<?xml version="1.0" encoding="UTF-8"?>
<gpx version="1.1" creator="https://www.youtrack.es" xsi:schemaLocation="http://www.topografix.com/GPX/1/1 http://www.topografix.com/GPX/1/1/gpx.xsd http://www.garmin.com/xmlschemas/GpxExtensions/v3 http://www.garmin.com/xmlschemas/GpxExtensionsv3.xsd http://www.garmin.com/xmlschemas/TrackPointExtension/v1 http://www.garmin.com/xmlschemas/TrackPointExtensionv1.xsd" xmlns:gpxtpx="http://www.garmin.com/xmlschemas/TrackPointExtension/v1" xmlns:gpxx="http://www.garmin.com/xmlschemas/GpxExtensions/v3" xmlns:xsi="http://www.w3.org/2001/XMLSchema-instance">
  <metadata>
    <link href="https://www.youtrack.es">
      <text>YouTrack.es</text>
    </link>
    <time>2026-05-08T00:14:33Z</time>
  </metadata>
  <trk>
    <src>https://www.youtrack.es</src>
    <link href="https://www.youtrack.es/ruta/37946-transcantabrica-galicia">
      <text>YouTrack.es</text>
    </link>
    <trkseg>
      <trkpt lat="43.349836" lon="-1.783968">
        <ele>4.527</ele>
        <time>2019-06-15T11:09:48Z</time>
      </trkpt>
      <trkpt lat="43.349808" lon="-1.784031">
        <ele>3.768</ele>
        <time>2019-06-15T11:10:09Z</time>
      </trkpt>
      <trkpt lat="43.349830" lon="-1.783975">
        <ele>4.414</ele>
        <time>2019-06-15T11:12:22Z</time>
      </trkpt>
      <trkpt lat="43.349870" lon="-1.783909">
        <ele>5.408</ele>
        <time>2019-06-15T11:23:07Z</time>
      </trkpt>
      <trkpt lat="43.349917" lon="-1.783853">
        <ele>6.465</ele>
        <time>2019-06-15T11:23:09Z</time>
      </trkpt>
      <trkpt lat="43.349999" lon="-1.783799">
        <ele>8.079</ele>
        <time>2019-06-15T11:23:11Z</time>
      </trkpt>
      <trkpt lat="43.350070" lon="-1.783745">
        <ele>8.928</ele>
        <time>2019-06-15T11:23:12Z</time>
      </trkpt>
      <trkpt lat="43.350116" lon="-1.783690">
        <ele>9.577</ele>
        <time>2019-06-15T11:23:13Z</time>
      </trkpt>
      <trkpt lat="43.350153" lon="-1.783640">
        <ele>9.956</ele>
        <time>2019-06-15T11:23:14Z</time>
      </trkpt>
      <trkpt lat="43.350184" lon="-1.783595">
        <ele>10.027</ele>
        <time>2019-06-15T11:23:15Z</time>
      </trkpt>
      <trkpt lat="43.350221" lon="-1.783542">
        <ele>10.286</ele>
        <time>2019-06-15T11:23:16Z</time>
      </trkpt>
      <trkpt lat="43.350267" lon="-1.783482">
        <ele>10.420</ele>
        <time>2019-06-15T11:23:17Z</time>
      </trkpt>
      <trkpt lat="43.350339" lon="-1.783398">
        <ele>10.878</ele>
        <time>2019-06-15T11:23:18Z</time>
      </trkpt>
      <trkpt lat="43.350401" lon="-1.783320">
        <ele>11.033</ele>
        <time>2019-06-15T11:23:19Z</time>
      </trkpt>
      <trkpt lat="43.350471" lon="-1.783230">
        <ele>11.426</ele>
        <time>2019-06-15T11:23:20Z</time>
      </trkpt>
      <trkpt lat="43.350496" lon="-1.783151">
        <ele>11.708</ele>
        <time>2019-06-15T11:23:21Z</time>
      </trkpt>
      <trkpt lat="43.350553" lon="-1.783072">
        <ele>11.980</ele>
        <time>2019-06-15T11:23:22Z</time>
      </trkpt>
      <trkpt lat="43.350606" lon="-1.782999">
        <ele>12.434</ele>
        <time>2019-06-15T11:23:23Z</time>
      </trkpt>
      <trkpt lat="43.350662" lon="-1.782928">
        <ele>12.823</ele>
        <time>2019-06-15T11:23:24Z</time>
      </trkpt>
      <trkpt lat="43.350714" lon="-1.782868">
        <ele>13.212</ele>
        <time>2019-06-15T11:23:25Z</time>
      </trkpt>
      <trkpt lat="43.350778" lon="-1.782821">
        <ele>13.611</ele>
        <time>2019-06-15T11:23:26Z</time>
      </trkpt>
      <trkpt lat="43.350833" lon="-1.782791">
        <ele>14.022</ele>
        <time>2019-06-15T11:23:27Z</time>
      </trkpt>
      <trkpt lat="43.350890" lon="-1.782776">
        <ele>14.261</ele>
        <time>2019-06-15T11:23:28Z</time>
      </trkpt>
      <trkpt lat="43.350948" lon="-1.782770">
        <ele>14.585</ele>
        <time>2019-06-15T11:23:29Z</time>
      </trkpt>
      <trkpt lat="43.351009" lon="-1.782784">
        <ele>14.662</ele>
        <time>2019-06-15T11:23:30Z</time>
      </trkpt>
      <trkpt lat="43.351062" lon="-1.782806">
        <ele>14.783</ele>
        <time>2019-06-15T11:23:31Z</time>
      </trkpt>
      <trkpt lat="43.351133" lon="-1.782840">
        <ele>14.811</ele>
        <time>2019-06-15T11:23:33Z</time>
      </trkpt>
      <trkpt lat="43.351118" lon="-1.782911">
        <ele>14.508</ele>
        <time>2019-06-15T11:23:43Z</time>
      </trkpt>
      <trkpt lat="43.351023" lon="-1.782880">
        <ele>14.379</ele>
        <time>2019-06-15T11:23:45Z</time>
      </trkpt>
      <trkpt lat="43.350964" lon="-1.782858">
        <ele>14.293</ele>
        <time>2019-06-15T11:23:46Z</time>
      </trkpt>
      <trkpt lat="43.350896" lon="-1.782853">
        <ele>14.082</ele>
        <time>2019-06-15T11:23:47Z</time>
      </trkpt>
      <trkpt lat="43.350821" lon="-1.782868">
        <ele>13.671</ele>
        <time>2019-06-15T11:23:48Z</time>
      </trkpt>
      <trkpt lat="43.350747" lon="-1.782914">
        <ele>13.290</ele>
        <time>2019-06-15T11:23:49Z</time>
      </trkpt>
      <trkpt lat="43.350679" lon="-1.782984">
        <ele>12.771</ele>
        <time>2019-06-15T11:23:50Z</time>
      </trkpt>
      <trkpt lat="43.350624" lon="-1.783063">
        <ele>12.240</ele>
        <time>2019-06-15T11:23:51Z</time>
      </trkpt>
      <trkpt lat="43.350559" lon="-1.783166">
        <ele>11.694</ele>
        <time>2019-06-15T11:23:52Z</time>
      </trkpt>
      <trkpt lat="43.350494" lon="-1.783272">
        <ele>11.267</ele>
        <time>2019-06-15T11:23:53Z</time>
      </trkpt>
      <trkpt lat="43.350425" lon="-1.783379">
        <ele>10.881</ele>
        <time>2019-06-15T11:23:54Z</time>
      </trkpt>
      <trkpt lat="43.350350" lon="-1.783485">
        <ele>10.519</ele>
        <time>2019-06-15T11:23:55Z</time>
      </trkpt>
      <trkpt lat="43.350264" lon="-1.783598">
        <ele>10.008</ele>
        <time>2019-06-15T11:23:56Z</time>
      </trkpt>
      <trkpt lat="43.350171" lon="-1.783718">
        <ele>9.679</ele>
        <time>2019-06-15T11:23:57Z</time>
      </trkpt>
      <trkpt lat="43.350062" lon="-1.783856">
        <ele>7.953</ele>
        <time>2019-06-15T11:23:58Z</time>
      </trkpt>
      <trkpt lat="43.349963" lon="-1.783985">
        <ele>5.672</ele>
        <time>2019-06-15T11:23:59Z</time>
      </trkpt>
      <trkpt lat="43.349854" lon="-1.784123">
        <ele>3.351</ele>
        <time>2019-06-15T11:24:00Z</time>
      </trkpt>
      <trkpt lat="43.349753" lon="-1.784253">
        <ele>1.680</ele>
        <time>2019-06-15T11:24:01Z</time>
      </trkpt>
      <trkpt lat="43.349645" lon="-1.784394">
        <ele>0.321</ele>
        <time>2019-06-15T11:24:02Z</time>
      </trkpt>
      <trkpt lat="43.349542" lon="-1.784528">
        <ele>0.030</ele>
        <time>2019-06-15T11:24:03Z</time>
      </trkpt>
      <trkpt lat="43.349441" lon="-1.784662">
        <ele>0.074</ele>
        <time>2019-06-15T11:24:04Z</time>
      </trkpt>
      <trkpt lat="43.349338" lon="-1.784796">
        <ele>0.051</ele>
        <time>2019-06-15T11:24:05Z</time>
      </trkpt>
      <trkpt lat="43.349234" lon="-1.784935">
        <ele>0.001</ele>
        <time>2019-06-15T11:24:06Z</time>
      </trkpt>
      <trkpt lat="43.349135" lon="-1.785070">
        <ele>0.111</ele>
        <time>2019-06-15T11:24:07Z</time>
      </trkpt>
      <trkpt lat="43.349038" lon="-1.785201">
        <ele>0.808</ele>
        <time>2019-06-15T11:24:08Z</time>
      </trkpt>
      <trkpt lat="43.348944" lon="-1.785325">
        <ele>1.938</ele>
        <time>2019-06-15T11:24:09Z</time>
      </trkpt>
      <trkpt lat="43.348857" lon="-1.785443">
        <ele>3.412</ele>
        <time>2019-06-15T11:24:10Z</time>
      </trkpt>
      <trkpt lat="43.348770" lon="-1.785555">
        <ele>4.971</ele>
        <time>2019-06-15T11:24:11Z</time>
      </trkpt>
      <trkpt lat="43.348689" lon="-1.785658">
        <ele>5.550</ele>
        <time>2019-06-15T11:24:12Z</time>
      </trkpt>
      <trkpt lat="43.348613" lon="-1.785761">
        <ele>6.039</ele>
        <time>2019-06-15T11:24:13Z</time>
      </trkpt>
      <trkpt lat="43.348543" lon="-1.785857">
        <ele>6.170</ele>
        <time>2019-06-15T11:24:14Z</time>
      </trkpt>
      <trkpt lat="43.348478" lon="-1.785945">
        <ele>6.259</ele>
        <time>2019-06-15T11:24:15Z</time>
      </trkpt>
      <trkpt lat="43.348413" lon="-1.786029">
        <ele>6.273</ele>
        <time>2019-06-15T11:24:16Z</time>
      </trkpt>
      <trkpt lat="43.348352" lon="-1.786109">
        <ele>6.175</ele>
        <time>2019-06-15T11:24:17Z</time>
      </trkpt>
      <trkpt lat="43.348294" lon="-1.786186">
        <ele>5.828</ele>
        <time>2019-06-15T11:24:18Z</time>
      </trkpt>
      <trkpt lat="43.348236" lon="-1.786258">
        <ele>5.520</ele>
        <time>2019-06-15T11:24:19Z</time>
      </trkpt>
      <trkpt lat="43.348184" lon="-1.786329">
        <ele>5.308</ele>
        <time>2019-06-15T11:24:20Z</time>
      </trkpt>
      <trkpt lat="43.348133" lon="-1.786398">
        <ele>5.330</ele>
        <time>2019-06-15T11:24:21Z</time>
      </trkpt>
      <trkpt lat="43.348086" lon="-1.786473">
        <ele>5.114</ele>
        <time>2019-06-15T11:24:22Z</time>
      </trkpt>
      <trkpt lat="43.348048" lon="-1.786556">
        <ele>5.023</ele>
        <time>2019-06-15T11:24:23Z</time>
      </trkpt>
      <trkpt lat="43.348028" lon="-1.786649">
        <ele>5.192</ele>
        <time>2019-06-15T11:24:24Z</time>
      </trkpt>
      <trkpt lat="43.348014" lon="-1.786750">
        <ele>5.271</ele>
        <time>2019-06-15T11:24:25Z</time>
      </trkpt>
      <trkpt lat="43.348000" lon="-1.786837">
        <ele>5.232</ele>
        <time>2019-06-15T11:24:26Z</time>
      </trkpt>
      <trkpt lat="43.347976" lon="-1.786920">
        <ele>5.311</ele>
        <time>2019-06-15T11:24:27Z</time>
      </trkpt>
      <trkpt lat="43.347943" lon="-1.786987">
        <ele>5.345</ele>
        <time>2019-06-15T11:24:28Z</time>
      </trkpt>
      <trkpt lat="43.347897" lon="-1.787035">
        <ele>5.449</ele>
        <time>2019-06-15T11:24:29Z</time>
      </trkpt>
      <trkpt lat="43.347844" lon="-1.787063">
        <ele>5.402</ele>
        <time>2019-06-15T11:24:30Z</time>
      </trkpt>
      <trkpt lat="43.347788" lon="-1.787071">
        <ele>5.522</ele>
        <time>2019-06-15T11:24:31Z</time>
      </trkpt>
      <trkpt lat="43.347733" lon="-1.787066">
        <ele>5.508</ele>
        <time>2019-06-15T11:24:32Z</time>
      </trkpt>
      <trkpt lat="43.347683" lon="-1.787055">
        <ele>5.467</ele>
        <time>2019-06-15T11:24:33Z</time>
      </trkpt>
      <trkpt lat="43.347622" lon="-1.787044">
        <ele>5.341</ele>
        <time>2019-06-15T11:24:34Z</time>
      </trkpt>
      <trkpt lat="43.347562" lon="-1.787046">
        <ele>5.120</ele>
        <time>2019-06-15T11:24:35Z</time>
      </trkpt>
      <trkpt lat="43.347497" lon="-1.787062">
        <ele>5.019</ele>
        <time>2019-06-15T11:24:36Z</time>
      </trkpt>
      <trkpt lat="43.347443" lon="-1.787081">
        <ele>5.038</ele>
        <time>2019-06-15T11:24:37Z</time>
      </trkpt>
      <trkpt lat="43.347390" lon="-1.787104">
        <ele>5.069</ele>
        <time>2019-06-15T11:24:38Z</time>
      </trkpt>
      <trkpt lat="43.347336" lon="-1.787127">
        <ele>5.078</ele>
        <time>2019-06-15T11:24:39Z</time>
      </trkpt>
      <trkpt lat="43.347277" lon="-1.787152">
        <ele>5.082</ele>
        <time>2019-06-15T11:24:40Z</time>
      </trkpt>
      <trkpt lat="43.347219" lon="-1.787176">
        <ele>5.051</ele>
        <time>2019-06-15T11:24:41Z</time>
      </trkpt>
      <trkpt lat="43.347152" lon="-1.787206">
        <ele>5.001</ele>
        <time>2019-06-15T11:24:43Z</time>
      </trkpt>
      <trkpt lat="43.347099" lon="-1.787234">
        <ele>5.011</ele>
        <time>2019-06-15T11:24:48Z</time>
      </trkpt>
      <trkpt lat="43.347051" lon="-1.787265">
        <ele>5.008</ele>
        <time>2019-06-15T11:24:50Z</time>
      </trkpt>
      <trkpt lat="43.346963" lon="-1.787312">
        <ele>5.088</ele>
        <time>2019-06-15T11:24:52Z</time>
      </trkpt>
      <trkpt lat="43.346909" lon="-1.787339">
        <ele>5.072</ele>
        <time>2019-06-15T11:24:53Z</time>
      </trkpt>
      <trkpt lat="43.346853" lon="-1.787367">
        <ele>5.041</ele>
        <time>2019-06-15T11:24:54Z</time>
      </trkpt>
      <trkpt lat="43.346793" lon="-1.787396">
        <ele>5.080</ele>
        <time>2019-06-15T11:24:55Z</time>
      </trkpt>
      <trkpt lat="43.346728" lon="-1.787430">
        <ele>5.029</ele>
        <time>2019-06-15T11:24:56Z</time>
      </trkpt>
      <trkpt lat="43.346650" lon="-1.787469">
        <ele>5.010</ele>
        <time>2019-06-15T11:24:57Z</time>
      </trkpt>
      <trkpt lat="43.346579" lon="-1.787501">
        <ele>5.039</ele>
        <time>2019-06-15T11:24:58Z</time>
      </trkpt>
      <trkpt lat="43.346515" lon="-1.787530">
        <ele>5.023</ele>
        <time>2019-06-15T11:24:59Z</time>
      </trkpt>
      <trkpt lat="43.346461" lon="-1.787555">
        <ele>5.018</ele>
        <time>2019-06-15T11:25:00Z</time>
      </trkpt>
      <trkpt lat="43.346414" lon="-1.787577">
        <ele>5.098</ele>
        <time>2019-06-15T11:25:01Z</time>
      </trkpt>
      <trkpt lat="43.346333" lon="-1.787617">
        <ele>4.817</ele>
        <time>2019-06-15T11:25:03Z</time>
      </trkpt>
      <trkpt lat="43.346279" lon="-1.787643">
        <ele>4.608</ele>
        <time>2019-06-15T11:25:05Z</time>
      </trkpt>
      <trkpt lat="43.346235" lon="-1.787659">
        <ele>4.514</ele>
        <time>2019-06-15T11:25:10Z</time>
      </trkpt>
      <trkpt lat="43.346182" lon="-1.787683">
        <ele>4.538</ele>
        <time>2019-06-15T11:25:12Z</time>
      </trkpt>
      <trkpt lat="43.346118" lon="-1.787714">
        <ele>4.677</ele>
        <time>2019-06-15T11:25:14Z</time>
      </trkpt>
      <trkpt lat="43.346043" lon="-1.787749">
        <ele>4.776</ele>
        <time>2019-06-15T11:25:16Z</time>
      </trkpt>
      <trkpt lat="43.345964" lon="-1.787787">
        <ele>5.015</ele>
        <time>2019-06-15T11:25:18Z</time>
      </trkpt>
      <trkpt lat="43.345888" lon="-1.787836">
        <ele>5.026</ele>
        <time>2019-06-15T11:25:20Z</time>
      </trkpt>
      <trkpt lat="43.345848" lon="-1.787868">
        <ele>5.075</ele>
        <time>2019-06-15T11:25:21Z</time>
      </trkpt>
      <trkpt lat="43.345803" lon="-1.787919">
        <ele>5.029</ele>
        <time>2019-06-15T11:25:22Z</time>
      </trkpt>
      <trkpt lat="43.345765" lon="-1.787983">
        <ele>5.037</ele>
        <time>2019-06-15T11:25:23Z</time>
      </trkpt>
      <trkpt lat="43.345726" lon="-1.788045">
        <ele>5.049</ele>
        <time>2019-06-15T11:25:24Z</time>
      </trkpt>
      <trkpt lat="43.345687" lon="-1.788102">
        <ele>5.113</ele>
        <time>2019-06-15T11:25:25Z</time>
      </trkpt>
      <trkpt lat="43.345640" lon="-1.788149">
        <ele>5.108</ele>
        <time>2019-06-15T11:25:26Z</time>
      </trkpt>
      <trkpt lat="43.345592" lon="-1.788195">
        <ele>5.196</ele>
        <time>2019-06-15T11:25:27Z</time>
      </trkpt>
      <trkpt lat="43.345551" lon="-1.788239">
        <ele>5.060</ele>
        <time>2019-06-15T11:25:28Z</time>
      </trkpt>
      <trkpt lat="43.345506" lon="-1.788332">
        <ele>5.029</ele>
        <time>2019-06-15T11:25:30Z</time>
      </trkpt>
      <trkpt lat="43.345477" lon="-1.788431">
        <ele>5.068</ele>
        <time>2019-06-15T11:25:32Z</time>
      </trkpt>
      <trkpt lat="43.345434" lon="-1.788549">
        <ele>5.037</ele>
        <time>2019-06-15T11:25:34Z</time>
      </trkpt>
      <trkpt lat="43.345391" lon="-1.788625">
        <ele>5.078</ele>
        <time>2019-06-15T11:25:35Z</time>
      </trkpt>
      <trkpt lat="43.345332" lon="-1.788718">
        <ele>5.397</ele>
        <time>2019-06-15T11:25:36Z</time>
      </trkpt>
      <trkpt lat="43.345261" lon="-1.788819">
        <ele>5.681</ele>
        <time>2019-06-15T11:25:37Z</time>
      </trkpt>
      <trkpt lat="43.345179" lon="-1.788925">
        <ele>5.483</ele>
        <time>2019-06-15T11:25:38Z</time>
      </trkpt>
      <trkpt lat="43.345094" lon="-1.789021">
        <ele>5.825</ele>
        <time>2019-06-15T11:25:39Z</time>
      </trkpt>
      <trkpt lat="43.345002" lon="-1.789103">
        <ele>7.117</ele>
        <time>2019-06-15T11:25:40Z</time>
      </trkpt>
      <trkpt lat="43.344906" lon="-1.789182">
        <ele>7.308</ele>
        <time>2019-06-15T11:25:41Z</time>
      </trkpt>
      <trkpt lat="43.344815" lon="-1.789251">
        <ele>6.881</ele>
        <time>2019-06-15T11:25:42Z</time>
      </trkpt>
      <trkpt lat="43.344728" lon="-1.789307">
        <ele>7.085</ele>
        <time>2019-06-15T11:25:43Z</time>
      </trkpt>
      <trkpt lat="43.344656" lon="-1.789348">
        <ele>7.894</ele>
        <time>2019-06-15T11:25:44Z</time>
      </trkpt>
      <trkpt lat="43.344584" lon="-1.789392">
        <ele>8.863</ele>
        <time>2019-06-15T11:25:45Z</time>
      </trkpt>
      <trkpt lat="43.344525" lon="-1.789432">
        <ele>9.952</ele>
        <time>2019-06-15T11:25:46Z</time>
      </trkpt>
      <trkpt lat="43.344464" lon="-1.789479">
        <ele>10.763</ele>
        <time>2019-06-15T11:25:47Z</time>
      </trkpt>
      <trkpt lat="43.344410" lon="-1.789525">
        <ele>10.852</ele>
        <time>2019-06-15T11:25:48Z</time>
      </trkpt>
      <trkpt lat="43.344354" lon="-1.789580">
        <ele>10.886</ele>
        <time>2019-06-15T11:25:49Z</time>
      </trkpt>
      <trkpt lat="43.344306" lon="-1.789648">
        <ele>10.881</ele>
        <time>2019-06-15T11:25:50Z</time>
      </trkpt>
      <trkpt lat="43.344266" lon="-1.789715">
        <ele>10.761</ele>
        <time>2019-06-15T11:25:51Z</time>
      </trkpt>
      <trkpt lat="43.344227" lon="-1.789797">
        <ele>11.117</ele>
        <time>2019-06-15T11:25:52Z</time>
      </trkpt>
      <trkpt lat="43.344196" lon="-1.789880">
        <ele>11.508</ele>
        <time>2019-06-15T11:25:53Z</time>
      </trkpt>
      <trkpt lat="43.344169" lon="-1.789981">
        <ele>11.931</ele>
        <time>2019-06-15T11:25:54Z</time>
      </trkpt>
      <trkpt lat="43.344156" lon="-1.790083">
        <ele>12.015</ele>
        <time>2019-06-15T11:25:55Z</time>
      </trkpt>
      <trkpt lat="43.344150" lon="-1.790199">
        <ele>11.954</ele>
        <time>2019-06-15T11:25:56Z</time>
      </trkpt>
      <trkpt lat="43.344145" lon="-1.790337">
        <ele>11.923</ele>
        <time>2019-06-15T11:25:57Z</time>
      </trkpt>
      <trkpt lat="43.344141" lon="-1.790500">
        <ele>12.062</ele>
        <time>2019-06-15T11:25:58Z</time>
      </trkpt>
      <trkpt lat="43.344139" lon="-1.790652">
        <ele>12.173</ele>
        <time>2019-06-15T11:25:59Z</time>
      </trkpt>
      <trkpt lat="43.344139" lon="-1.790814">
        <ele>12.322</ele>
        <time>2019-06-15T11:26:00Z</time>
      </trkpt>
      <trkpt lat="43.344142" lon="-1.790991">
        <ele>12.476</ele>
        <time>2019-06-15T11:26:01Z</time>
      </trkpt>
      <trkpt lat="43.344146" lon="-1.791169">
        <ele>12.641</ele>
        <time>2019-06-15T11:26:02Z</time>
      </trkpt>
      <trkpt lat="43.344154" lon="-1.791357">
        <ele>13.281</ele>
        <time>2019-06-15T11:26:03Z</time>
      </trkpt>
      <trkpt lat="43.344163" lon="-1.791540">
        <ele>13.109</ele>
        <time>2019-06-15T11:26:04Z</time>
      </trkpt>
      <trkpt lat="43.344172" lon="-1.791719">
        <ele>13.308</ele>
        <time>2019-06-15T11:26:05Z</time>
      </trkpt>
      <trkpt lat="43.344186" lon="-1.791883">
        <ele>14.487</ele>
        <time>2019-06-15T11:26:06Z</time>
      </trkpt>
      <trkpt lat="43.344207" lon="-1.792032">
        <ele>15.421</ele>
        <time>2019-06-15T11:26:07Z</time>
      </trkpt>
      <trkpt lat="43.344237" lon="-1.792161">
        <ele>16.080</ele>
        <time>2019-06-15T11:26:08Z</time>
      </trkpt>
      <trkpt lat="43.344268" lon="-1.792273">
        <ele>16.249</ele>
        <time>2019-06-15T11:26:09Z</time>
      </trkpt>
      <trkpt lat="43.344296" lon="-1.792360">
        <ele>16.258</ele>
        <time>2019-06-15T11:26:10Z</time>
      </trkpt>
      <trkpt lat="43.344323" lon="-1.792437">
        <ele>16.119</ele>
        <time>2019-06-15T11:26:11Z</time>
      </trkpt>
      <trkpt lat="43.344347" lon="-1.792506">
        <ele>15.818</ele>
        <time>2019-06-15T11:26:12Z</time>
      </trkpt>
      <trkpt lat="43.344376" lon="-1.792577">
        <ele>15.432</ele>
        <time>2019-06-15T11:26:13Z</time>
      </trkpt>
      <trkpt lat="43.344414" lon="-1.792653">
        <ele>14.565</ele>
        <time>2019-06-15T11:26:14Z</time>
      </trkpt>
      <trkpt lat="43.344459" lon="-1.792740">
        <ele>13.768</ele>
        <time>2019-06-15T11:26:15Z</time>
      </trkpt>
      <trkpt lat="43.344513" lon="-1.792832">
        <ele>13.314</ele>
        <time>2019-06-15T11:26:16Z</time>
      </trkpt>
      <trkpt lat="43.344571" lon="-1.792913">
        <ele>12.608</ele>
        <time>2019-06-15T11:26:17Z</time>
      </trkpt>
      <trkpt lat="43.344636" lon="-1.792995">
        <ele>11.969</ele>
        <time>2019-06-15T11:26:18Z</time>
      </trkpt>
      <trkpt lat="43.344700" lon="-1.793076">
        <ele>11.223</ele>
        <time>2019-06-15T11:26:19Z</time>
      </trkpt>
      <trkpt lat="43.344763" lon="-1.793152">
        <ele>11.012</ele>
        <time>2019-06-15T11:26:20Z</time>
      </trkpt>
      <trkpt lat="43.344821" lon="-1.793224">
        <ele>11.071</ele>
        <time>2019-06-15T11:26:21Z</time>
      </trkpt>
      <trkpt lat="43.344878" lon="-1.793294">
        <ele>11.050</ele>
        <time>2019-06-15T11:26:22Z</time>
      </trkpt>
      <trkpt lat="43.344934" lon="-1.793372">
        <ele>11.011</ele>
        <time>2019-06-15T11:26:23Z</time>
      </trkpt>
      <trkpt lat="43.344998" lon="-1.793472">
        <ele>11.020</ele>
        <time>2019-06-15T11:26:24Z</time>
      </trkpt>
      <trkpt lat="43.345050" lon="-1.793583">
        <ele>11.024</ele>
        <time>2019-06-15T11:26:25Z</time>
      </trkpt>
      <trkpt lat="43.345099" lon="-1.793708">
        <ele>12.485</ele>
        <time>2019-06-15T11:26:26Z</time>
      </trkpt>
      <trkpt lat="43.345140" lon="-1.793837">
        <ele>14.389</ele>
        <time>2019-06-15T11:26:27Z</time>
      </trkpt>
      <trkpt lat="43.345172" lon="-1.793980">
        <ele>15.617</ele>
        <time>2019-06-15T11:26:28Z</time>
      </trkpt>
      <trkpt lat="43.345193" lon="-1.794134">
        <ele>16.408</ele>
        <time>2019-06-15T11:26:29Z</time>
      </trkpt>
      <trkpt lat="43.345200" lon="-1.794297">
        <ele>15.581</ele>
        <time>2019-06-15T11:26:30Z</time>
      </trkpt>
      <trkpt lat="43.345195" lon="-1.794465">
        <ele>14.325</ele>
        <time>2019-06-15T11:26:31Z</time>
      </trkpt>
      <trkpt lat="43.345177" lon="-1.794630">
        <ele>13.344</ele>
        <time>2019-06-15T11:26:32Z</time>
      </trkpt>
      <trkpt lat="43.345160" lon="-1.794818">
        <ele>12.473</ele>
        <time>2019-06-15T11:26:33Z</time>
      </trkpt>
      <trkpt lat="43.345143" lon="-1.795001">
        <ele>11.972</ele>
        <time>2019-06-15T11:26:34Z</time>
      </trkpt>
      <trkpt lat="43.345123" lon="-1.795192">
        <ele>11.193</ele>
        <time>2019-06-15T11:26:35Z</time>
      </trkpt>
      <trkpt lat="43.345103" lon="-1.795382">
        <ele>10.322</ele>
        <time>2019-06-15T11:26:36Z</time>
      </trkpt>
      <trkpt lat="43.345079" lon="-1.795556">
        <ele>9.746</ele>
        <time>2019-06-15T11:26:37Z</time>
      </trkpt>
      <trkpt lat="43.345058" lon="-1.795727">
        <ele>8.923</ele>
        <time>2019-06-15T11:26:38Z</time>
      </trkpt>
      <trkpt lat="43.345039" lon="-1.795884">
        <ele>7.783</ele>
        <time>2019-06-15T11:26:39Z</time>
      </trkpt>
      <trkpt lat="43.345020" lon="-1.796033">
        <ele>6.011</ele>
        <time>2019-06-15T11:26:40Z</time>
      </trkpt>
      <trkpt lat="43.345002" lon="-1.796172">
        <ele>5.408</ele>
        <time>2019-06-15T11:26:41Z</time>
      </trkpt>
      <trkpt lat="43.344987" lon="-1.796323">
        <ele>6.535</ele>
        <time>2019-06-15T11:26:42Z</time>
      </trkpt>
      <trkpt lat="43.344971" lon="-1.796469">
        <ele>6.899</ele>
        <time>2019-06-15T11:26:43Z</time>
      </trkpt>
      <trkpt lat="43.344954" lon="-1.796622">
        <ele>6.888</ele>
        <time>2019-06-15T11:26:44Z</time>
      </trkpt>
      <trkpt lat="43.344943" lon="-1.796789">
        <ele>6.477</ele>
        <time>2019-06-15T11:26:45Z</time>
      </trkpt>
      <trkpt lat="43.344937" lon="-1.796967">
        <ele>6.026</ele>
        <time>2019-06-15T11:26:46Z</time>
      </trkpt>
      <trkpt lat="43.344939" lon="-1.797144">
        <ele>5.617</ele>
        <time>2019-06-15T11:26:47Z</time>
      </trkpt>
      <trkpt lat="43.344949" lon="-1.797334">
        <ele>5.576</ele>
        <time>2019-06-15T11:26:48Z</time>
      </trkpt>
      <trkpt lat="43.344974" lon="-1.797534">
        <ele>5.490</ele>
        <time>2019-06-15T11:26:49Z</time>
      </trkpt>
      <trkpt lat="43.345007" lon="-1.797721">
        <ele>5.021</ele>
        <time>2019-06-15T11:26:50Z</time>
      </trkpt>
      <trkpt lat="43.345045" lon="-1.797906">
        <ele>5.041</ele>
        <time>2019-06-15T11:26:51Z</time>
      </trkpt>
      <trkpt lat="43.345090" lon="-1.798071">
        <ele>5.105</ele>
        <time>2019-06-15T11:26:52Z</time>
      </trkpt>
      <trkpt lat="43.345137" lon="-1.798217">
        <ele>5.608</ele>
        <time>2019-06-15T11:26:53Z</time>
      </trkpt>
      <trkpt lat="43.345184" lon="-1.798355">
        <ele>5.855</ele>
        <time>2019-06-15T11:26:54Z</time>
      </trkpt>
      <trkpt lat="43.345229" lon="-1.798480">
        <ele>6.089</ele>
        <time>2019-06-15T11:26:55Z</time>
      </trkpt>
      <trkpt lat="43.345277" lon="-1.798601">
        <ele>6.048</ele>
        <time>2019-06-15T11:26:56Z</time>
      </trkpt>
      <trkpt lat="43.345326" lon="-1.798729">
        <ele>6.677</ele>
        <time>2019-06-15T11:26:57Z</time>
      </trkpt>
      <trkpt lat="43.345377" lon="-1.798850">
        <ele>6.816</ele>
        <time>2019-06-15T11:26:58Z</time>
      </trkpt>
      <trkpt lat="43.345438" lon="-1.798984">
        <ele>6.837</ele>
        <time>2019-06-15T11:26:59Z</time>
      </trkpt>
      <trkpt lat="43.345485" lon="-1.799113">
        <ele>6.816</ele>
        <time>2019-06-15T11:27:00Z</time>
      </trkpt>
      <trkpt lat="43.345533" lon="-1.799262">
        <ele>6.690</ele>
        <time>2019-06-15T11:27:01Z</time>
      </trkpt>
      <trkpt lat="43.345579" lon="-1.799405">
        <ele>6.787</ele>
        <time>2019-06-15T11:27:02Z</time>
      </trkpt>
      <trkpt lat="43.345618" lon="-1.799531">
        <ele>7.042</ele>
        <time>2019-06-15T11:27:03Z</time>
      </trkpt>
      <trkpt lat="43.345656" lon="-1.799647">
        <ele>7.126</ele>
        <time>2019-06-15T11:27:04Z</time>
      </trkpt>
      <trkpt lat="43.345698" lon="-1.799763">
        <ele>7.008</ele>
        <time>2019-06-15T11:27:05Z</time>
      </trkpt>
      <trkpt lat="43.345740" lon="-1.799856">
        <ele>6.781</ele>
        <time>2019-06-15T11:27:06Z</time>
      </trkpt>
      <trkpt lat="43.345790" lon="-1.799949">
        <ele>6.325</ele>
        <time>2019-06-15T11:27:07Z</time>
      </trkpt>
      <trkpt lat="43.345838" lon="-1.800042">
        <ele>6.044</ele>
        <time>2019-06-15T11:27:08Z</time>
      </trkpt>
      <trkpt lat="43.345877" lon="-1.800135">
        <ele>5.813</ele>
        <time>2019-06-15T11:27:09Z</time>
      </trkpt>
      <trkpt lat="43.345905" lon="-1.800233">
        <ele>5.752</ele>
        <time>2019-06-15T11:27:10Z</time>
      </trkpt>
      <trkpt lat="43.345911" lon="-1.800332">
        <ele>5.653</ele>
        <time>2019-06-15T11:27:11Z</time>
      </trkpt>
      <trkpt lat="43.345893" lon="-1.800424">
        <ele>5.622</ele>
        <time>2019-06-15T11:27:12Z</time>
      </trkpt>
      <trkpt lat="43.345867" lon="-1.800507">
        <ele>5.786</ele>
        <time>2019-06-15T11:27:13Z</time>
      </trkpt>
      <trkpt lat="43.345838" lon="-1.800597">
        <ele>6.117</ele>
        <time>2019-06-15T11:27:14Z</time>
      </trkpt>
      <trkpt lat="43.345810" lon="-1.800686">
        <ele>6.487</ele>
        <time>2019-06-15T11:27:15Z</time>
      </trkpt>
      <trkpt lat="43.345728" lon="-1.800707">
        <ele>5.915</ele>
        <time>2019-06-15T11:27:16Z</time>
      </trkpt>
      <trkpt lat="43.345700" lon="-1.800783">
        <ele>5.608</ele>
        <time>2019-06-15T11:27:17Z</time>
      </trkpt>
      <trkpt lat="43.345641" lon="-1.800859">
        <ele>4.934</ele>
        <time>2019-06-15T11:27:19Z</time>
      </trkpt>
      <trkpt lat="43.345614" lon="-1.800923">
        <ele>4.648</ele>
        <time>2019-06-15T11:27:20Z</time>
      </trkpt>
      <trkpt lat="43.345571" lon="-1.800983">
        <ele>4.267</ele>
        <time>2019-06-15T11:27:21Z</time>
      </trkpt>
      <trkpt lat="43.345551" lon="-1.801054">
        <ele>4.046</ele>
        <time>2019-06-15T11:27:22Z</time>
      </trkpt>
      <trkpt lat="43.345520" lon="-1.801160">
        <ele>4.125</ele>
        <time>2019-06-15T11:27:24Z</time>
      </trkpt>
      <trkpt lat="43.345510" lon="-1.801261">
        <ele>4.256</ele>
        <time>2019-06-15T11:27:26Z</time>
      </trkpt>
      <trkpt lat="43.345492" lon="-1.801340">
        <ele>4.255</ele>
        <time>2019-06-15T11:27:27Z</time>
      </trkpt>
      <trkpt lat="43.345446" lon="-1.801429">
        <ele>4.319</ele>
        <time>2019-06-15T11:27:28Z</time>
      </trkpt>
      <trkpt lat="43.345397" lon="-1.801512">
        <ele>4.383</ele>
        <time>2019-06-15T11:27:29Z</time>
      </trkpt>
      <trkpt lat="43.345355" lon="-1.801581">
        <ele>4.225</ele>
        <time>2019-06-15T11:27:30Z</time>
      </trkpt>
      <trkpt lat="43.345290" lon="-1.801643">
        <ele>4.117</ele>
        <time>2019-06-15T11:27:31Z</time>
      </trkpt>
      <trkpt lat="43.345247" lon="-1.801692">
        <ele>4.308</ele>
        <time>2019-06-15T11:27:32Z</time>
      </trkpt>
      <trkpt lat="43.345191" lon="-1.801784">
        <ele>4.991</ele>
        <time>2019-06-15T11:27:34Z</time>
      </trkpt>
      <trkpt lat="43.345157" lon="-1.801858">
        <ele>5.255</ele>
        <time>2019-06-15T11:27:35Z</time>
      </trkpt>
      <trkpt lat="43.345122" lon="-1.801954">
        <ele>5.574</ele>
        <time>2019-06-15T11:27:36Z</time>
      </trkpt>
      <trkpt lat="43.345081" lon="-1.802063">
        <ele>5.453</ele>
        <time>2019-06-15T11:27:37Z</time>
      </trkpt>
      <trkpt lat="43.345038" lon="-1.802190">
        <ele>5.312</ele>
        <time>2019-06-15T11:27:38Z</time>
      </trkpt>
      <trkpt lat="43.344993" lon="-1.802326">
        <ele>5.343</ele>
        <time>2019-06-15T11:27:39Z</time>
      </trkpt>
      <trkpt lat="43.344949" lon="-1.802493">
        <ele>5.682</ele>
        <time>2019-06-15T11:27:40Z</time>
      </trkpt>
      <trkpt lat="43.344908" lon="-1.802648">
        <ele>6.026</ele>
        <time>2019-06-15T11:27:41Z</time>
      </trkpt>
      <trkpt lat="43.344869" lon="-1.802803">
        <ele>6.623</ele>
        <time>2019-06-15T11:27:42Z</time>
      </trkpt>
      <trkpt lat="43.344830" lon="-1.802953">
        <ele>7.083</ele>
        <time>2019-06-15T11:27:43Z</time>
      </trkpt>
      <trkpt lat="43.344792" lon="-1.803102">
        <ele>7.411</ele>
        <time>2019-06-15T11:27:44Z</time>
      </trkpt>
      <trkpt lat="43.344761" lon="-1.803259">
        <ele>7.808</ele>
        <time>2019-06-15T11:27:45Z</time>
      </trkpt>
      <trkpt lat="43.344722" lon="-1.803418">
        <ele>8.325</ele>
        <time>2019-06-15T11:27:46Z</time>
      </trkpt>
      <trkpt lat="43.344686" lon="-1.803573">
        <ele>8.659</ele>
        <time>2019-06-15T11:27:47Z</time>
      </trkpt>
      <trkpt lat="43.344644" lon="-1.803738">
        <ele>8.778</ele>
        <time>2019-06-15T11:27:48Z</time>
      </trkpt>
      <trkpt lat="43.344599" lon="-1.803898">
        <ele>9.067</ele>
        <time>2019-06-15T11:27:49Z</time>
      </trkpt>
      <trkpt lat="43.344555" lon="-1.804060">
        <ele>9.456</ele>
        <time>2019-06-15T11:27:50Z</time>
      </trkpt>
      <trkpt lat="43.344503" lon="-1.804218">
        <ele>9.837</ele>
        <time>2019-06-15T11:27:51Z</time>
      </trkpt>
      <trkpt lat="43.344450" lon="-1.804369">
        <ele>10.016</ele>
        <time>2019-06-15T11:27:52Z</time>
      </trkpt>
      <trkpt lat="43.344391" lon="-1.804510">
        <ele>9.970</ele>
        <time>2019-06-15T11:27:53Z</time>
      </trkpt>
      <trkpt lat="43.344343" lon="-1.804637">
        <ele>10.187</ele>
        <time>2019-06-15T11:27:54Z</time>
      </trkpt>
      <trkpt lat="43.344295" lon="-1.804738">
        <ele>10.642</ele>
        <time>2019-06-15T11:27:55Z</time>
      </trkpt>
      <trkpt lat="43.344239" lon="-1.804851">
        <ele>11.026</ele>
        <time>2019-06-15T11:27:56Z</time>
      </trkpt>
      <trkpt lat="43.344180" lon="-1.804959">
        <ele>11.008</ele>
        <time>2019-06-15T11:27:57Z</time>
      </trkpt>
      <trkpt lat="43.344123" lon="-1.805072">
        <ele>11.011</ele>
        <time>2019-06-15T11:27:58Z</time>
      </trkpt>
      <trkpt lat="43.344066" lon="-1.805192">
        <ele>11.295</ele>
        <time>2019-06-15T11:27:59Z</time>
      </trkpt>
      <trkpt lat="43.344008" lon="-1.805301">
        <ele>11.744</ele>
        <time>2019-06-15T11:28:00Z</time>
      </trkpt>
      <trkpt lat="43.343951" lon="-1.805399">
        <ele>12.353</ele>
        <time>2019-06-15T11:28:01Z</time>
      </trkpt>
      <trkpt lat="43.343886" lon="-1.805516">
        <ele>12.982</ele>
        <time>2019-06-15T11:28:02Z</time>
      </trkpt>
      <trkpt lat="43.343808" lon="-1.805636">
        <ele>13.063</ele>
        <time>2019-06-15T11:28:03Z</time>
      </trkpt>
      <trkpt lat="43.343724" lon="-1.805766">
        <ele>13.052</ele>
        <time>2019-06-15T11:28:04Z</time>
      </trkpt>
      <trkpt lat="43.343641" lon="-1.805902">
        <ele>13.216</ele>
        <time>2019-06-15T11:28:05Z</time>
      </trkpt>
      <trkpt lat="43.343557" lon="-1.806047">
        <ele>13.852</ele>
        <time>2019-06-15T11:28:06Z</time>
      </trkpt>
      <trkpt lat="43.343462" lon="-1.806195">
        <ele>13.753</ele>
        <time>2019-06-15T11:28:07Z</time>
      </trkpt>
      <trkpt lat="43.343375" lon="-1.806348">
        <ele>13.708</ele>
        <time>2019-06-15T11:28:08Z</time>
      </trkpt>
      <trkpt lat="43.343285" lon="-1.806495">
        <ele>13.608</ele>
        <time>2019-06-15T11:28:09Z</time>
      </trkpt>
      <trkpt lat="43.343198" lon="-1.806649">
        <ele>13.518</ele>
        <time>2019-06-15T11:28:10Z</time>
      </trkpt>
      <trkpt lat="43.343124" lon="-1.806777">
        <ele>13.642</ele>
        <time>2019-06-15T11:28:11Z</time>
      </trkpt>
      <trkpt lat="43.343042" lon="-1.806910">
        <ele>13.951</ele>
        <time>2019-06-15T11:28:12Z</time>
      </trkpt>
      <trkpt lat="43.342963" lon="-1.807040">
        <ele>13.440</ele>
        <time>2019-06-15T11:28:13Z</time>
      </trkpt>
      <trkpt lat="43.342889" lon="-1.807157">
        <ele>13.799</ele>
        <time>2019-06-15T11:28:14Z</time>
      </trkpt>
      <trkpt lat="43.342821" lon="-1.807269">
        <ele>14.340</ele>
        <time>2019-06-15T11:28:15Z</time>
      </trkpt>
      <trkpt lat="43.342750" lon="-1.807388">
        <ele>14.239</ele>
        <time>2019-06-15T11:28:16Z</time>
      </trkpt>
      <trkpt lat="43.342689" lon="-1.807485">
        <ele>13.783</ele>
        <time>2019-06-15T11:28:17Z</time>
      </trkpt>
      <trkpt lat="43.342633" lon="-1.807579">
        <ele>13.516</ele>
        <time>2019-06-15T11:28:18Z</time>
      </trkpt>
      <trkpt lat="43.342581" lon="-1.807667">
        <ele>14.076</ele>
        <time>2019-06-15T11:28:19Z</time>
      </trkpt>
      <trkpt lat="43.342544" lon="-1.807730">
        <ele>14.913</ele>
        <time>2019-06-15T11:28:20Z</time>
      </trkpt>
      <trkpt lat="43.342513" lon="-1.807779">
        <ele>15.808</ele>
        <time>2019-06-15T11:28:21Z</time>
      </trkpt>
      <trkpt lat="43.342458" lon="-1.807847">
        <ele>15.554</ele>
        <time>2019-06-15T11:28:23Z</time>
      </trkpt>
      <trkpt lat="43.342429" lon="-1.807904">
        <ele>15.358</ele>
        <time>2019-06-15T11:28:25Z</time>
      </trkpt>
      <trkpt lat="43.342392" lon="-1.807955">
        <ele>15.217</ele>
        <time>2019-06-15T11:28:42Z</time>
      </trkpt>
      <trkpt lat="43.342332" lon="-1.808065">
        <ele>15.466</ele>
        <time>2019-06-15T11:28:44Z</time>
      </trkpt>
      <trkpt lat="43.342288" lon="-1.808162">
        <ele>15.455</ele>
        <time>2019-06-15T11:28:45Z</time>
      </trkpt>
      <trkpt lat="43.342241" lon="-1.808277">
        <ele>15.816</ele>
        <time>2019-06-15T11:28:46Z</time>
      </trkpt>
      <trkpt lat="43.342161" lon="-1.808397">
        <ele>16.285</ele>
        <time>2019-06-15T11:28:47Z</time>
      </trkpt>
      <trkpt lat="43.342072" lon="-1.808528">
        <ele>16.769</ele>
        <time>2019-06-15T11:28:48Z</time>
      </trkpt>
      <trkpt lat="43.341972" lon="-1.808675">
        <ele>17.552</ele>
        <time>2019-06-15T11:28:49Z</time>
      </trkpt>
      <trkpt lat="43.341869" lon="-1.808820">
        <ele>18.253</ele>
        <time>2019-06-15T11:28:50Z</time>
      </trkpt>
      <trkpt lat="43.341774" lon="-1.808952">
        <ele>18.708</ele>
        <time>2019-06-15T11:28:51Z</time>
      </trkpt>
      <trkpt lat="43.341675" lon="-1.809083">
        <ele>18.808</ele>
        <time>2019-06-15T11:28:52Z</time>
      </trkpt>
      <trkpt lat="43.341574" lon="-1.809213">
        <ele>18.918</ele>
        <time>2019-06-15T11:28:53Z</time>
      </trkpt>
      <trkpt lat="43.341462" lon="-1.809346">
        <ele>19.142</ele>
        <time>2019-06-15T11:28:54Z</time>
      </trkpt>
      <trkpt lat="43.341346" lon="-1.809476">
        <ele>19.371</ele>
        <time>2019-06-15T11:28:55Z</time>
      </trkpt>
      <trkpt lat="43.341230" lon="-1.809608">
        <ele>20.180</ele>
        <time>2019-06-15T11:28:56Z</time>
      </trkpt>
      <trkpt lat="43.341116" lon="-1.809719">
        <ele>20.089</ele>
        <time>2019-06-15T11:28:57Z</time>
      </trkpt>
      <trkpt lat="43.340993" lon="-1.809851">
        <ele>21.070</ele>
        <time>2019-06-15T11:28:58Z</time>
      </trkpt>
      <trkpt lat="43.340872" lon="-1.809984">
        <ele>21.179</ele>
        <time>2019-06-15T11:28:59Z</time>
      </trkpt>
      <trkpt lat="43.340754" lon="-1.810118">
        <ele>21.983</ele>
        <time>2019-06-15T11:29:00Z</time>
      </trkpt>
      <trkpt lat="43.340631" lon="-1.810248">
        <ele>22.213</ele>
        <time>2019-06-15T11:29:01Z</time>
      </trkpt>
      <trkpt lat="43.340516" lon="-1.810353">
        <ele>22.643</ele>
        <time>2019-06-15T11:29:02Z</time>
      </trkpt>
      <trkpt lat="43.340414" lon="-1.810459">
        <ele>23.107</ele>
        <time>2019-06-15T11:29:03Z</time>
      </trkpt>
      <trkpt lat="43.340319" lon="-1.810561">
        <ele>23.208</ele>
        <time>2019-06-15T11:29:04Z</time>
      </trkpt>
      <trkpt lat="43.340219" lon="-1.810648">
        <ele>23.734</ele>
        <time>2019-06-15T11:29:05Z</time>
      </trkpt>
      <trkpt lat="43.340135" lon="-1.810735">
        <ele>24.128</ele>
        <time>2019-06-15T11:29:06Z</time>
      </trkpt>
      <trkpt lat="43.340065" lon="-1.810813">
        <ele>24.287</ele>
        <time>2019-06-15T11:29:07Z</time>
      </trkpt>
      <trkpt lat="43.339997" lon="-1.810881">
        <ele>24.286</ele>
        <time>2019-06-15T11:29:08Z</time>
      </trkpt>
      <trkpt lat="43.339938" lon="-1.810949">
        <ele>24.685</ele>
        <time>2019-06-15T11:29:09Z</time>
      </trkpt>
      <trkpt lat="43.339905" lon="-1.811015">
        <ele>25.046</ele>
        <time>2019-06-15T11:29:10Z</time>
      </trkpt>
      <trkpt lat="43.339881" lon="-1.811080">
        <ele>25.365</ele>
        <time>2019-06-15T11:29:11Z</time>
      </trkpt>
      <trkpt lat="43.339852" lon="-1.811158">
        <ele>25.579</ele>
        <time>2019-06-15T11:29:12Z</time>
      </trkpt>
      <trkpt lat="43.339806" lon="-1.811242">
        <ele>25.762</ele>
        <time>2019-06-15T11:29:13Z</time>
      </trkpt>
      <trkpt lat="43.339747" lon="-1.811303">
        <ele>25.983</ele>
        <time>2019-06-15T11:29:14Z</time>
      </trkpt>
      <trkpt lat="43.339664" lon="-1.811339">
        <ele>26.011</ele>
        <time>2019-06-15T11:29:15Z</time>
      </trkpt>
      <trkpt lat="43.339593" lon="-1.811356">
        <ele>26.008</ele>
        <time>2019-06-15T11:29:16Z</time>
      </trkpt>
      <trkpt lat="43.339512" lon="-1.811359">
        <ele>26.079</ele>
        <time>2019-06-15T11:29:17Z</time>
      </trkpt>
      <trkpt lat="43.339427" lon="-1.811396">
        <ele>26.173</ele>
        <time>2019-06-15T11:29:18Z</time>
      </trkpt>
      <trkpt lat="43.339344" lon="-1.811461">
        <ele>26.412</ele>
        <time>2019-06-15T11:29:19Z</time>
      </trkpt>
      <trkpt lat="43.339259" lon="-1.811543">
        <ele>26.781</ele>
        <time>2019-06-15T11:29:20Z</time>
      </trkpt>
      <trkpt lat="43.339162" lon="-1.811635">
        <ele>27.010</ele>
        <time>2019-06-15T11:29:21Z</time>
      </trkpt>
      <trkpt lat="43.339059" lon="-1.811730">
        <ele>26.921</ele>
        <time>2019-06-15T11:29:22Z</time>
      </trkpt>
      <trkpt lat="43.338954" lon="-1.811834">
        <ele>26.570</ele>
        <time>2019-06-15T11:29:23Z</time>
      </trkpt>
      <trkpt lat="43.338842" lon="-1.811934">
        <ele>26.174</ele>
        <time>2019-06-15T11:29:24Z</time>
      </trkpt>
      <trkpt lat="43.338718" lon="-1.812036">
        <ele>26.171</ele>
        <time>2019-06-15T11:29:25Z</time>
      </trkpt>
      <trkpt lat="43.338578" lon="-1.812137">
        <ele>26.041</ele>
        <time>2019-06-15T11:29:26Z</time>
      </trkpt>
      <trkpt lat="43.338440" lon="-1.812263">
        <ele>25.315</ele>
        <time>2019-06-15T11:29:27Z</time>
      </trkpt>
      <trkpt lat="43.338284" lon="-1.812389">
        <ele>24.508</ele>
        <time>2019-06-15T11:29:28Z</time>
      </trkpt>
      <trkpt lat="43.338139" lon="-1.812524">
        <ele>24.050</ele>
        <time>2019-06-15T11:29:29Z</time>
      </trkpt>
      <trkpt lat="43.337980" lon="-1.812661">
        <ele>23.384</ele>
        <time>2019-06-15T11:29:30Z</time>
      </trkpt>
      <trkpt lat="43.337822" lon="-1.812806">
        <ele>22.183</ele>
        <time>2019-06-15T11:29:31Z</time>
      </trkpt>
      <trkpt lat="43.337666" lon="-1.812948">
        <ele>20.782</ele>
        <time>2019-06-15T11:29:32Z</time>
      </trkpt>
      <trkpt lat="43.337504" lon="-1.813095">
        <ele>19.981</ele>
        <time>2019-06-15T11:29:33Z</time>
      </trkpt>
      <trkpt lat="43.337366" lon="-1.813246">
        <ele>19.022</ele>
        <time>2019-06-15T11:29:34Z</time>
      </trkpt>
      <trkpt lat="43.337218" lon="-1.813375">
        <ele>18.831</ele>
        <time>2019-06-15T11:29:35Z</time>
      </trkpt>
      <trkpt lat="43.337067" lon="-1.813511">
        <ele>17.635</ele>
        <time>2019-06-15T11:29:36Z</time>
      </trkpt>
      <trkpt lat="43.336911" lon="-1.813644">
        <ele>17.023</ele>
        <time>2019-06-15T11:29:37Z</time>
      </trkpt>
      <trkpt lat="43.336753" lon="-1.813790">
        <ele>17.083</ele>
        <time>2019-06-15T11:29:38Z</time>
      </trkpt>
      <trkpt lat="43.336607" lon="-1.813937">
        <ele>16.811</ele>
        <time>2019-06-15T11:29:39Z</time>
      </trkpt>
      <trkpt lat="43.336449" lon="-1.814088">
        <ele>16.208</ele>
        <time>2019-06-15T11:29:40Z</time>
      </trkpt>
      <trkpt lat="43.336293" lon="-1.814226">
        <ele>15.925</ele>
        <time>2019-06-15T11:29:41Z</time>
      </trkpt>
      <trkpt lat="43.336146" lon="-1.814376">
        <ele>15.999</ele>
        <time>2019-06-15T11:29:42Z</time>
      </trkpt>
      <trkpt lat="43.335996" lon="-1.814539">
        <ele>15.518</ele>
        <time>2019-06-15T11:29:43Z</time>
      </trkpt>
      <trkpt lat="43.335836" lon="-1.814672">
        <ele>15.857</ele>
        <time>2019-06-15T11:29:44Z</time>
      </trkpt>
      <trkpt lat="43.335697" lon="-1.814796">
        <ele>16.066</ele>
        <time>2019-06-15T11:29:45Z</time>
      </trkpt>
      <trkpt lat="43.335552" lon="-1.814925">
        <ele>16.097</ele>
        <time>2019-06-15T11:29:46Z</time>
      </trkpt>
      <trkpt lat="43.335405" lon="-1.815052">
        <ele>17.086</ele>
        <time>2019-06-15T11:29:47Z</time>
      </trkpt>
      <trkpt lat="43.335264" lon="-1.815181">
        <ele>17.680</ele>
        <time>2019-06-15T11:29:48Z</time>
      </trkpt>
      <trkpt lat="43.335133" lon="-1.815309">
        <ele>18.339</ele>
        <time>2019-06-15T11:29:49Z</time>
      </trkpt>
      <trkpt lat="43.334999" lon="-1.815434">
        <ele>18.601</ele>
        <time>2019-06-15T11:29:50Z</time>
      </trkpt>
      <trkpt lat="43.334869" lon="-1.815550">
        <ele>19.921</ele>
        <time>2019-06-15T11:29:51Z</time>
      </trkpt>
      <trkpt lat="43.334745" lon="-1.815665">
        <ele>20.908</ele>
        <time>2019-06-15T11:29:52Z</time>
      </trkpt>
      <trkpt lat="43.334635" lon="-1.815771">
        <ele>21.666</ele>
        <time>2019-06-15T11:29:53Z</time>
      </trkpt>
      <trkpt lat="43.334537" lon="-1.815859">
        <ele>22.310</ele>
        <time>2019-06-15T11:29:54Z</time>
      </trkpt>
      <trkpt lat="43.334437" lon="-1.815943">
        <ele>22.729</ele>
        <time>2019-06-15T11:29:55Z</time>
      </trkpt>
      <trkpt lat="43.334339" lon="-1.816022">
        <ele>23.378</ele>
        <time>2019-06-15T11:29:56Z</time>
      </trkpt>
      <trkpt lat="43.334254" lon="-1.816105">
        <ele>24.147</ele>
        <time>2019-06-15T11:29:57Z</time>
      </trkpt>
      <trkpt lat="43.334170" lon="-1.816180">
        <ele>24.578</ele>
        <time>2019-06-15T11:29:58Z</time>
      </trkpt>
      <trkpt lat="43.334089" lon="-1.816248">
        <ele>24.777</ele>
        <time>2019-06-15T11:29:59Z</time>
      </trkpt>
      <trkpt lat="43.334011" lon="-1.816314">
        <ele>25.381</ele>
        <time>2019-06-15T11:30:00Z</time>
      </trkpt>
      <trkpt lat="43.333942" lon="-1.816376">
        <ele>26.298</ele>
        <time>2019-06-15T11:30:01Z</time>
      </trkpt>
      <trkpt lat="43.333879" lon="-1.816437">
        <ele>27.215</ele>
        <time>2019-06-15T11:30:02Z</time>
      </trkpt>
      <trkpt lat="43.333817" lon="-1.816494">
        <ele>27.526</ele>
        <time>2019-06-15T11:30:03Z</time>
      </trkpt>
      <trkpt lat="43.333753" lon="-1.816557">
        <ele>27.808</ele>
        <time>2019-06-15T11:30:04Z</time>
      </trkpt>
      <trkpt lat="43.333688" lon="-1.816617">
        <ele>28.042</ele>
        <time>2019-06-15T11:30:05Z</time>
      </trkpt>
      <trkpt lat="43.333633" lon="-1.816693">
        <ele>28.196</ele>
        <time>2019-06-15T11:30:06Z</time>
      </trkpt>
      <trkpt lat="43.333590" lon="-1.816777">
        <ele>28.415</ele>
        <time>2019-06-15T11:30:07Z</time>
      </trkpt>
      <trkpt lat="43.333561" lon="-1.816870">
        <ele>28.774</ele>
        <time>2019-06-15T11:30:08Z</time>
      </trkpt>
      <trkpt lat="43.333537" lon="-1.816959">
        <ele>29.033</ele>
        <time>2019-06-15T11:30:09Z</time>
      </trkpt>
      <trkpt lat="43.333505" lon="-1.817047">
        <ele>28.954</ele>
        <time>2019-06-15T11:30:10Z</time>
      </trkpt>
      <trkpt lat="43.333466" lon="-1.817114">
        <ele>28.783</ele>
        <time>2019-06-15T11:30:11Z</time>
      </trkpt>
      <trkpt lat="43.333405" lon="-1.817158">
        <ele>28.477</ele>
        <time>2019-06-15T11:30:12Z</time>
      </trkpt>
      <trkpt lat="43.333326" lon="-1.817184">
        <ele>28.186</ele>
        <time>2019-06-15T11:30:13Z</time>
      </trkpt>
      <trkpt lat="43.333258" lon="-1.817188">
        <ele>28.160</ele>
        <time>2019-06-15T11:30:14Z</time>
      </trkpt>
      <trkpt lat="43.333183" lon="-1.817184">
        <ele>28.126</ele>
        <time>2019-06-15T11:30:15Z</time>
      </trkpt>
      <trkpt lat="43.333105" lon="-1.817207">
        <ele>28.008</ele>
        <time>2019-06-15T11:30:16Z</time>
      </trkpt>
      <trkpt lat="43.333034" lon="-1.817244">
        <ele>28.041</ele>
        <time>2019-06-15T11:30:17Z</time>
      </trkpt>
      <trkpt lat="43.332946" lon="-1.817310">
        <ele>27.975</ele>
        <time>2019-06-15T11:30:18Z</time>
      </trkpt>
      <trkpt lat="43.332865" lon="-1.817390">
        <ele>27.614</ele>
        <time>2019-06-15T11:30:19Z</time>
      </trkpt>
      <trkpt lat="43.332773" lon="-1.817472">
        <ele>27.183</ele>
        <time>2019-06-15T11:30:20Z</time>
      </trkpt>
      <trkpt lat="43.332689" lon="-1.817538">
        <ele>27.132</ele>
        <time>2019-06-15T11:30:21Z</time>
      </trkpt>
      <trkpt lat="43.332601" lon="-1.817619">
        <ele>27.273</ele>
        <time>2019-06-15T11:30:22Z</time>
      </trkpt>
      <trkpt lat="43.332507" lon="-1.817696">
        <ele>27.052</ele>
        <time>2019-06-15T11:30:23Z</time>
      </trkpt>
      <trkpt lat="43.332420" lon="-1.817766">
        <ele>27.076</ele>
        <time>2019-06-15T11:30:24Z</time>
      </trkpt>
      <trkpt lat="43.332338" lon="-1.817847">
        <ele>26.927</ele>
        <time>2019-06-15T11:30:25Z</time>
      </trkpt>
      <trkpt lat="43.332246" lon="-1.817927">
        <ele>27.068</ele>
        <time>2019-06-15T11:30:26Z</time>
      </trkpt>
      <trkpt lat="43.332163" lon="-1.818000">
        <ele>26.814</ele>
        <time>2019-06-15T11:30:27Z</time>
      </trkpt>
      <trkpt lat="43.332085" lon="-1.818078">
        <ele>26.508</ele>
        <time>2019-06-15T11:30:28Z</time>
      </trkpt>
      <trkpt lat="43.331999" lon="-1.818158">
        <ele>26.195</ele>
        <time>2019-06-15T11:30:29Z</time>
      </trkpt>
      <trkpt lat="43.331911" lon="-1.818239">
        <ele>26.049</ele>
        <time>2019-06-15T11:30:30Z</time>
      </trkpt>
      <trkpt lat="43.331820" lon="-1.818322">
        <ele>26.038</ele>
        <time>2019-06-15T11:30:31Z</time>
      </trkpt>
      <trkpt lat="43.331727" lon="-1.818407">
        <ele>25.897</ele>
        <time>2019-06-15T11:30:32Z</time>
      </trkpt>
      <trkpt lat="43.331652" lon="-1.818496">
        <ele>25.416</ele>
        <time>2019-06-15T11:30:33Z</time>
      </trkpt>
      <trkpt lat="43.331578" lon="-1.818597">
        <ele>25.417</ele>
        <time>2019-06-15T11:30:34Z</time>
      </trkpt>
      <trkpt lat="43.331509" lon="-1.818691">
        <ele>25.426</ele>
        <time>2019-06-15T11:30:35Z</time>
      </trkpt>
      <trkpt lat="43.331436" lon="-1.818799">
        <ele>25.320</ele>
        <time>2019-06-15T11:30:36Z</time>
      </trkpt>
      <trkpt lat="43.331370" lon="-1.818911">
        <ele>25.016</ele>
        <time>2019-06-15T11:30:37Z</time>
      </trkpt>
      <trkpt lat="43.331318" lon="-1.819022">
        <ele>25.076</ele>
        <time>2019-06-15T11:30:38Z</time>
      </trkpt>
      <trkpt lat="43.331265" lon="-1.819141">
        <ele>25.013</ele>
        <time>2019-06-15T11:30:39Z</time>
      </trkpt>
      <trkpt lat="43.331206" lon="-1.819259">
        <ele>24.708</ele>
        <time>2019-06-15T11:30:40Z</time>
      </trkpt>
      <trkpt lat="43.331155" lon="-1.819382">
        <ele>24.254</ele>
        <time>2019-06-15T11:30:41Z</time>
      </trkpt>
      <trkpt lat="43.331096" lon="-1.819502">
        <ele>24.038</ele>
        <time>2019-06-15T11:30:42Z</time>
      </trkpt>
      <trkpt lat="43.331054" lon="-1.819629">
        <ele>24.147</ele>
        <time>2019-06-15T11:30:43Z</time>
      </trkpt>
      <trkpt lat="43.331013" lon="-1.819743">
        <ele>24.066</ele>
        <time>2019-06-15T11:30:44Z</time>
      </trkpt>
      <trkpt lat="43.330982" lon="-1.819860">
        <ele>24.045</ele>
        <time>2019-06-15T11:30:45Z</time>
      </trkpt>
      <trkpt lat="43.330947" lon="-1.819962">
        <ele>24.046</ele>
        <time>2019-06-15T11:30:46Z</time>
      </trkpt>
      <trkpt lat="43.330928" lon="-1.820068">
        <ele>24.095</ele>
        <time>2019-06-15T11:30:47Z</time>
      </trkpt>
      <trkpt lat="43.330905" lon="-1.820186">
        <ele>24.019</ele>
        <time>2019-06-15T11:30:48Z</time>
      </trkpt>
      <trkpt lat="43.330888" lon="-1.820297">
        <ele>23.919</ele>
        <time>2019-06-15T11:30:49Z</time>
      </trkpt>
      <trkpt lat="43.330886" lon="-1.820391">
        <ele>23.709</ele>
        <time>2019-06-15T11:30:50Z</time>
      </trkpt>
      <trkpt lat="43.330909" lon="-1.820472">
        <ele>23.519</ele>
        <time>2019-06-15T11:30:51Z</time>
      </trkpt>
      <trkpt lat="43.330946" lon="-1.820567">
        <ele>23.408</ele>
        <time>2019-06-15T11:30:52Z</time>
      </trkpt>
      <trkpt lat="43.330983" lon="-1.820662">
        <ele>23.524</ele>
        <time>2019-06-15T11:30:53Z</time>
      </trkpt>
      <trkpt lat="43.331028" lon="-1.820745">
        <ele>23.478</ele>
        <time>2019-06-15T11:30:54Z</time>
      </trkpt>
      <trkpt lat="43.331087" lon="-1.820809">
        <ele>23.297</ele>
        <time>2019-06-15T11:30:55Z</time>
      </trkpt>
      <trkpt lat="43.331149" lon="-1.820865">
        <ele>23.016</ele>
        <time>2019-06-15T11:30:56Z</time>
      </trkpt>
      <trkpt lat="43.331218" lon="-1.820911">
        <ele>23.185</ele>
        <time>2019-06-15T11:30:57Z</time>
      </trkpt>
      <trkpt lat="43.331285" lon="-1.820946">
        <ele>23.266</ele>
        <time>2019-06-15T11:30:58Z</time>
      </trkpt>
      <trkpt lat="43.331351" lon="-1.820965">
        <ele>23.485</ele>
        <time>2019-06-15T11:30:59Z</time>
      </trkpt>
      <trkpt lat="43.331402" lon="-1.820978">
        <ele>23.659</ele>
        <time>2019-06-15T11:31:00Z</time>
      </trkpt>
      <trkpt lat="43.331483" lon="-1.820975">
        <ele>24.331</ele>
        <time>2019-06-15T11:31:02Z</time>
      </trkpt>
      <trkpt lat="43.331530" lon="-1.820977">
        <ele>24.861</ele>
        <time>2019-06-15T11:31:03Z</time>
      </trkpt>
      <trkpt lat="43.331571" lon="-1.820919">
        <ele>25.207</ele>
        <time>2019-06-15T11:31:05Z</time>
      </trkpt>
      <trkpt lat="43.331589" lon="-1.820857">
        <ele>25.408</ele>
        <time>2019-06-15T11:31:20Z</time>
      </trkpt>
      <trkpt lat="43.331538" lon="-1.820797">
        <ele>24.916</ele>
        <time>2019-06-15T11:31:22Z</time>
      </trkpt>
      <trkpt lat="43.331428" lon="-1.820779">
        <ele>24.210</ele>
        <time>2019-06-15T11:31:24Z</time>
      </trkpt>
      <trkpt lat="43.331365" lon="-1.820761">
        <ele>23.939</ele>
        <time>2019-06-15T11:31:25Z</time>
      </trkpt>
      <trkpt lat="43.331303" lon="-1.820730">
        <ele>23.868</ele>
        <time>2019-06-15T11:31:26Z</time>
      </trkpt>
      <trkpt lat="43.331240" lon="-1.820684">
        <ele>23.827</ele>
        <time>2019-06-15T11:31:27Z</time>
      </trkpt>
      <trkpt lat="43.331172" lon="-1.820621">
        <ele>23.848</ele>
        <time>2019-06-15T11:31:28Z</time>
      </trkpt>
      <trkpt lat="43.331141" lon="-1.820554">
        <ele>24.047</ele>
        <time>2019-06-15T11:31:29Z</time>
      </trkpt>
      <trkpt lat="43.331105" lon="-1.820474">
        <ele>24.041</ele>
        <time>2019-06-15T11:31:30Z</time>
      </trkpt>
      <trkpt lat="43.331081" lon="-1.820396">
        <ele>24.052</ele>
        <time>2019-06-15T11:31:31Z</time>
      </trkpt>
      <trkpt lat="43.331072" lon="-1.820316">
        <ele>24.053</ele>
        <time>2019-06-15T11:31:32Z</time>
      </trkpt>
      <trkpt lat="43.331082" lon="-1.820214">
        <ele>24.008</ele>
        <time>2019-06-15T11:31:33Z</time>
      </trkpt>
      <trkpt lat="43.331100" lon="-1.820114">
        <ele>24.008</ele>
        <time>2019-06-15T11:31:34Z</time>
      </trkpt>
      <trkpt lat="43.331139" lon="-1.820032">
        <ele>24.028</ele>
        <time>2019-06-15T11:31:35Z</time>
      </trkpt>
      <trkpt lat="43.331172" lon="-1.819947">
        <ele>24.072</ele>
        <time>2019-06-15T11:31:36Z</time>
      </trkpt>
      <trkpt lat="43.331200" lon="-1.819874">
        <ele>24.091</ele>
        <time>2019-06-15T11:31:37Z</time>
      </trkpt>
      <trkpt lat="43.331221" lon="-1.819800">
        <ele>24.090</ele>
        <time>2019-06-15T11:31:38Z</time>
      </trkpt>
      <trkpt lat="43.331239" lon="-1.819723">
        <ele>24.069</ele>
        <time>2019-06-15T11:31:39Z</time>
      </trkpt>
      <trkpt lat="43.331251" lon="-1.819635">
        <ele>24.030</ele>
        <time>2019-06-15T11:31:40Z</time>
      </trkpt>
      <trkpt lat="43.331248" lon="-1.819557">
        <ele>24.089</ele>
        <time>2019-06-15T11:31:41Z</time>
      </trkpt>
      <trkpt lat="43.331262" lon="-1.819473">
        <ele>24.073</ele>
        <time>2019-06-15T11:31:42Z</time>
      </trkpt>
      <trkpt lat="43.331281" lon="-1.819378">
        <ele>24.216</ele>
        <time>2019-06-15T11:31:44Z</time>
      </trkpt>
      <trkpt lat="43.331339" lon="-1.819324">
        <ele>24.476</ele>
        <time>2019-06-15T11:31:47Z</time>
      </trkpt>
      <trkpt lat="43.331415" lon="-1.819274">
        <ele>24.613</ele>
        <time>2019-06-15T11:31:49Z</time>
      </trkpt>
      <trkpt lat="43.331445" lon="-1.819226">
        <ele>24.808</ele>
        <time>2019-06-15T11:31:50Z</time>
      </trkpt>
      <trkpt lat="43.331479" lon="-1.819148">
        <ele>25.054</ele>
        <time>2019-06-15T11:31:52Z</time>
      </trkpt>
      <trkpt lat="43.331510" lon="-1.819083">
        <ele>25.098</ele>
        <time>2019-06-15T11:31:57Z</time>
      </trkpt>
      <trkpt lat="43.331612" lon="-1.819191">
        <ele>25.077</ele>
        <time>2019-06-15T11:32:03Z</time>
      </trkpt>
      <trkpt lat="43.331667" lon="-1.819252">
        <ele>25.096</ele>
        <time>2019-06-15T11:32:04Z</time>
      </trkpt>
      <trkpt lat="43.331748" lon="-1.819326">
        <ele>25.045</ele>
        <time>2019-06-15T11:32:05Z</time>
      </trkpt>
      <trkpt lat="43.331812" lon="-1.819391">
        <ele>25.086</ele>
        <time>2019-06-15T11:32:06Z</time>
      </trkpt>
      <trkpt lat="43.331871" lon="-1.819449">
        <ele>25.085</ele>
        <time>2019-06-15T11:32:07Z</time>
      </trkpt>
      <trkpt lat="43.331910" lon="-1.819497">
        <ele>25.089</ele>
        <time>2019-06-15T11:32:08Z</time>
      </trkpt>
      <trkpt lat="43.331952" lon="-1.819530">
        <ele>25.155</ele>
        <time>2019-06-15T11:32:09Z</time>
      </trkpt>
      <trkpt lat="43.332006" lon="-1.819550">
        <ele>26.007</ele>
        <time>2019-06-15T11:32:11Z</time>
      </trkpt>
      <trkpt lat="43.332088" lon="-1.819449">
        <ele>26.617</ele>
        <time>2019-06-15T11:32:13Z</time>
      </trkpt>
      <trkpt lat="43.332147" lon="-1.819376">
        <ele>26.808</ele>
        <time>2019-06-15T11:32:14Z</time>
      </trkpt>
      <trkpt lat="43.332217" lon="-1.819293">
        <ele>26.918</ele>
        <time>2019-06-15T11:32:15Z</time>
      </trkpt>
      <trkpt lat="43.332285" lon="-1.819225">
        <ele>27.342</ele>
        <time>2019-06-15T11:32:16Z</time>
      </trkpt>
      <trkpt lat="43.332356" lon="-1.819162">
        <ele>27.451</ele>
        <time>2019-06-15T11:32:17Z</time>
      </trkpt>
      <trkpt lat="43.332407" lon="-1.819092">
        <ele>27.590</ele>
        <time>2019-06-15T11:32:18Z</time>
      </trkpt>
      <trkpt lat="43.332459" lon="-1.819032">
        <ele>27.349</ele>
        <time>2019-06-15T11:32:19Z</time>
      </trkpt>
      <trkpt lat="43.332532" lon="-1.818973">
        <ele>27.470</ele>
        <time>2019-06-15T11:32:20Z</time>
      </trkpt>
      <trkpt lat="43.332533" lon="-1.818897">
        <ele>26.689</ele>
        <time>2019-06-15T11:32:21Z</time>
      </trkpt>
      <trkpt lat="43.332484" lon="-1.818812">
        <ele>25.723</ele>
        <time>2019-06-15T11:32:22Z</time>
      </trkpt>
      <trkpt lat="43.332432" lon="-1.818705">
        <ele>25.527</ele>
        <time>2019-06-15T11:32:23Z</time>
      </trkpt>
      <trkpt lat="43.332386" lon="-1.818604">
        <ele>25.468</ele>
        <time>2019-06-15T11:32:24Z</time>
      </trkpt>
      <trkpt lat="43.332346" lon="-1.818517">
        <ele>25.414</ele>
        <time>2019-06-15T11:32:25Z</time>
      </trkpt>
      <trkpt lat="43.332275" lon="-1.818412">
        <ele>25.708</ele>
        <time>2019-06-15T11:32:26Z</time>
      </trkpt>
      <trkpt lat="43.332227" lon="-1.818339">
        <ele>26.045</ele>
        <time>2019-06-15T11:32:27Z</time>
      </trkpt>
      <trkpt lat="43.332194" lon="-1.818282">
        <ele>26.259</ele>
        <time>2019-06-15T11:32:28Z</time>
      </trkpt>
      <trkpt lat="43.332172" lon="-1.818228">
        <ele>26.378</ele>
        <time>2019-06-15T11:32:29Z</time>
      </trkpt>
      <trkpt lat="43.332170" lon="-1.818164">
        <ele>26.557</ele>
        <time>2019-06-15T11:32:31Z</time>
      </trkpt>
      <trkpt lat="43.332249" lon="-1.818081">
        <ele>26.836</ele>
        <time>2019-06-15T11:32:33Z</time>
      </trkpt>
      <trkpt lat="43.332294" lon="-1.818024">
        <ele>26.817</ele>
        <time>2019-06-15T11:32:34Z</time>
      </trkpt>
      <trkpt lat="43.332358" lon="-1.817972">
        <ele>26.786</ele>
        <time>2019-06-15T11:32:35Z</time>
      </trkpt>
      <trkpt lat="43.332409" lon="-1.817911">
        <ele>26.780</ele>
        <time>2019-06-15T11:32:36Z</time>
      </trkpt>
      <trkpt lat="43.332464" lon="-1.817852">
        <ele>26.863</ele>
        <time>2019-06-15T11:32:37Z</time>
      </trkpt>
      <trkpt lat="43.332513" lon="-1.817810">
        <ele>26.944</ele>
        <time>2019-06-15T11:32:38Z</time>
      </trkpt>
      <trkpt lat="43.332564" lon="-1.817762">
        <ele>27.218</ele>
        <time>2019-06-15T11:32:39Z</time>
      </trkpt>
      <trkpt lat="43.332631" lon="-1.817760">
        <ele>27.408</ele>
        <time>2019-06-15T11:32:40Z</time>
      </trkpt>
      <trkpt lat="43.332663" lon="-1.817716">
        <ele>27.539</ele>
        <time>2019-06-15T11:32:41Z</time>
      </trkpt>
      <trkpt lat="43.332725" lon="-1.817694">
        <ele>27.643</ele>
        <time>2019-06-15T11:32:43Z</time>
      </trkpt>
      <trkpt lat="43.332774" lon="-1.817675">
        <ele>27.632</ele>
        <time>2019-06-15T11:32:45Z</time>
      </trkpt>
      <trkpt lat="43.332818" lon="-1.817700">
        <ele>27.811</ele>
        <time>2019-06-15T11:32:51Z</time>
      </trkpt>
      <trkpt lat="43.332859" lon="-1.817728">
        <ele>27.960</ele>
        <time>2019-06-15T11:33:03Z</time>
      </trkpt>
      <trkpt lat="43.332872" lon="-1.817787">
        <ele>27.971</ele>
        <time>2019-06-15T11:33:21Z</time>
      </trkpt>
      <trkpt lat="43.332845" lon="-1.817726">
        <ele>27.960</ele>
        <time>2019-06-15T11:33:27Z</time>
      </trkpt>
      <trkpt lat="43.332805" lon="-1.817670">
        <ele>27.634</ele>
        <time>2019-06-15T11:33:34Z</time>
      </trkpt>
      <trkpt lat="43.332850" lon="-1.817673">
        <ele>27.725</ele>
        <time>2019-06-15T11:33:53Z</time>
      </trkpt>
      <trkpt lat="43.332866" lon="-1.817731">
        <ele>27.926</ele>
        <time>2019-06-15T11:34:01Z</time>
      </trkpt>
      <trkpt lat="43.332837" lon="-1.817672">
        <ele>27.708</ele>
        <time>2019-06-15T11:34:38Z</time>
      </trkpt>
      <trkpt lat="43.332882" lon="-1.817673">
        <ele>27.808</ele>
        <time>2019-06-15T11:35:06Z</time>
      </trkpt>
      <trkpt lat="43.332730" lon="-1.817696">
        <ele>27.675</ele>
        <time>2019-06-15T12:49:13Z</time>
      </trkpt>
      <trkpt lat="43.332667" lon="-1.817688">
        <ele>27.469</ele>
        <time>2019-06-15T12:50:09Z</time>
      </trkpt>
      <trkpt lat="43.332713" lon="-1.817676">
        <ele>27.588</ele>
        <time>2019-06-15T12:50:16Z</time>
      </trkpt>
      <trkpt lat="43.332756" lon="-1.817651">
        <ele>27.557</ele>
        <time>2019-06-15T12:50:17Z</time>
      </trkpt>
      <trkpt lat="43.332811" lon="-1.817609">
        <ele>27.576</ele>
        <time>2019-06-15T12:50:18Z</time>
      </trkpt>
      <trkpt lat="43.332863" lon="-1.817557">
        <ele>27.437</ele>
        <time>2019-06-15T12:50:19Z</time>
      </trkpt>
      <trkpt lat="43.332919" lon="-1.817496">
        <ele>27.536</ele>
        <time>2019-06-15T12:50:20Z</time>
      </trkpt>
      <trkpt lat="43.332976" lon="-1.817439">
        <ele>27.810</ele>
        <time>2019-06-15T12:50:21Z</time>
      </trkpt>
      <trkpt lat="43.333030" lon="-1.817393">
        <ele>27.969</ele>
        <time>2019-06-15T12:50:22Z</time>
      </trkpt>
      <trkpt lat="43.333090" lon="-1.817356">
        <ele>28.104</ele>
        <time>2019-06-15T12:50:23Z</time>
      </trkpt>
      <trkpt lat="43.333151" lon="-1.817336">
        <ele>28.124</ele>
        <time>2019-06-15T12:50:24Z</time>
      </trkpt>
      <trkpt lat="43.333205" lon="-1.817334">
        <ele>28.208</ele>
        <time>2019-06-15T12:50:25Z</time>
      </trkpt>
      <trkpt lat="43.333252" lon="-1.817346">
        <ele>28.339</ele>
        <time>2019-06-15T12:50:26Z</time>
      </trkpt>
      <trkpt lat="43.333329" lon="-1.817401">
        <ele>28.673</ele>
        <time>2019-06-15T12:50:28Z</time>
      </trkpt>
      <trkpt lat="43.333395" lon="-1.817443">
        <ele>29.092</ele>
        <time>2019-06-15T12:50:30Z</time>
      </trkpt>
      <trkpt lat="43.333442" lon="-1.817405">
        <ele>29.021</ele>
        <time>2019-06-15T12:50:32Z</time>
      </trkpt>
      <trkpt lat="43.333439" lon="-1.817328">
        <ele>28.830</ele>
        <time>2019-06-15T12:50:34Z</time>
      </trkpt>
      <trkpt lat="43.333388" lon="-1.817247">
        <ele>28.371</ele>
        <time>2019-06-15T12:50:36Z</time>
      </trkpt>
      <trkpt lat="43.333323" lon="-1.817228">
        <ele>28.060</ele>
        <time>2019-06-15T12:50:37Z</time>
      </trkpt>
      <trkpt lat="43.333257" lon="-1.817216">
        <ele>28.014</ele>
        <time>2019-06-15T12:50:38Z</time>
      </trkpt>
      <trkpt lat="43.333208" lon="-1.817182">
        <ele>28.163</ele>
        <time>2019-06-15T12:50:39Z</time>
      </trkpt>
      <trkpt lat="43.333165" lon="-1.817130">
        <ele>28.144</ele>
        <time>2019-06-15T12:50:40Z</time>
      </trkpt>
      <trkpt lat="43.333122" lon="-1.817065">
        <ele>28.118</ele>
        <time>2019-06-15T12:50:41Z</time>
      </trkpt>
      <trkpt lat="43.333083" lon="-1.816987">
        <ele>28.108</ele>
        <time>2019-06-15T12:50:42Z</time>
      </trkpt>
      <trkpt lat="43.333071" lon="-1.816890">
        <ele>28.039</ele>
        <time>2019-06-15T12:50:43Z</time>
      </trkpt>
      <trkpt lat="43.333085" lon="-1.816791">
        <ele>28.013</ele>
        <time>2019-06-15T12:50:44Z</time>
      </trkpt>
      <trkpt lat="43.333126" lon="-1.816702">
        <ele>28.052</ele>
        <time>2019-06-15T12:50:45Z</time>
      </trkpt>
      <trkpt lat="43.333171" lon="-1.816620">
        <ele>28.171</ele>
        <time>2019-06-15T12:50:46Z</time>
      </trkpt>
      <trkpt lat="43.333240" lon="-1.816588">
        <ele>28.150</ele>
        <time>2019-06-15T12:50:47Z</time>
      </trkpt>
      <trkpt lat="43.333297" lon="-1.816577">
        <ele>28.031</ele>
        <time>2019-06-15T12:50:48Z</time>
      </trkpt>
      <trkpt lat="43.333355" lon="-1.816601">
        <ele>28.050</ele>
        <time>2019-06-15T12:50:49Z</time>
      </trkpt>
      <trkpt lat="43.333410" lon="-1.816641">
        <ele>28.074</ele>
        <time>2019-06-15T12:50:50Z</time>
      </trkpt>
      <trkpt lat="43.333445" lon="-1.816698">
        <ele>28.147</ele>
        <time>2019-06-15T12:50:51Z</time>
      </trkpt>
      <trkpt lat="43.333480" lon="-1.816771">
        <ele>28.429</ele>
        <time>2019-06-15T12:50:52Z</time>
      </trkpt>
      <trkpt lat="43.333494" lon="-1.816834">
        <ele>28.621</ele>
        <time>2019-06-15T12:50:53Z</time>
      </trkpt>
      <trkpt lat="43.333491" lon="-1.816955">
        <ele>29.008</ele>
        <time>2019-06-15T12:50:55Z</time>
      </trkpt>
      <trkpt lat="43.333487" lon="-1.817020">
        <ele>28.927</ele>
        <time>2019-06-15T12:50:56Z</time>
      </trkpt>
      <trkpt lat="43.333461" lon="-1.817120">
        <ele>28.721</ele>
        <time>2019-06-15T12:50:58Z</time>
      </trkpt>
      <trkpt lat="43.333419" lon="-1.817154">
        <ele>28.590</ele>
        <time>2019-06-15T12:50:59Z</time>
      </trkpt>
      <trkpt lat="43.333375" lon="-1.817178">
        <ele>28.339</ele>
        <time>2019-06-15T12:51:00Z</time>
      </trkpt>
      <trkpt lat="43.333328" lon="-1.817189">
        <ele>28.128</ele>
        <time>2019-06-15T12:51:01Z</time>
      </trkpt>
      <trkpt lat="43.333268" lon="-1.817161">
        <ele>28.229</ele>
        <time>2019-06-15T12:51:02Z</time>
      </trkpt>
      <trkpt lat="43.333199" lon="-1.817149">
        <ele>28.138</ele>
        <time>2019-06-15T12:51:03Z</time>
      </trkpt>
      <trkpt lat="43.333143" lon="-1.817114">
        <ele>28.162</ele>
        <time>2019-06-15T12:51:04Z</time>
      </trkpt>
      <trkpt lat="43.333101" lon="-1.817060">
        <ele>28.164</ele>
        <time>2019-06-15T12:51:05Z</time>
      </trkpt>
      <trkpt lat="43.333063" lon="-1.816993">
        <ele>28.006</ele>
        <time>2019-06-15T12:51:06Z</time>
      </trkpt>
      <trkpt lat="43.333048" lon="-1.816912">
        <ele>28.016</ele>
        <time>2019-06-15T12:51:07Z</time>
      </trkpt>
      <trkpt lat="43.333055" lon="-1.816847">
        <ele>28.008</ele>
        <time>2019-06-15T12:51:08Z</time>
      </trkpt>
      <trkpt lat="43.333064" lon="-1.816775">
        <ele>28.059</ele>
        <time>2019-06-15T12:51:09Z</time>
      </trkpt>
      <trkpt lat="43.333095" lon="-1.816692">
        <ele>28.093</ele>
        <time>2019-06-15T12:51:10Z</time>
      </trkpt>
      <trkpt lat="43.333133" lon="-1.816620">
        <ele>28.132</ele>
        <time>2019-06-15T12:51:11Z</time>
      </trkpt>
      <trkpt lat="43.333186" lon="-1.816573">
        <ele>28.241</ele>
        <time>2019-06-15T12:51:12Z</time>
      </trkpt>
      <trkpt lat="43.333235" lon="-1.816549">
        <ele>28.120</ele>
        <time>2019-06-15T12:51:13Z</time>
      </trkpt>
      <trkpt lat="43.333296" lon="-1.816542">
        <ele>28.141</ele>
        <time>2019-06-15T12:51:14Z</time>
      </trkpt>
      <trkpt lat="43.333354" lon="-1.816554">
        <ele>28.010</ele>
        <time>2019-06-15T12:51:15Z</time>
      </trkpt>
      <trkpt lat="43.333416" lon="-1.816587">
        <ele>28.054</ele>
        <time>2019-06-15T12:51:16Z</time>
      </trkpt>
      <trkpt lat="43.333465" lon="-1.816632">
        <ele>28.014</ele>
        <time>2019-06-15T12:51:17Z</time>
      </trkpt>
      <trkpt lat="43.333498" lon="-1.816692">
        <ele>28.154</ele>
        <time>2019-06-15T12:51:18Z</time>
      </trkpt>
      <trkpt lat="43.333527" lon="-1.816754">
        <ele>28.309</ele>
        <time>2019-06-15T12:51:19Z</time>
      </trkpt>
      <trkpt lat="43.333546" lon="-1.816813">
        <ele>28.508</ele>
        <time>2019-06-15T12:51:20Z</time>
      </trkpt>
      <trkpt lat="43.333556" lon="-1.816878">
        <ele>28.864</ele>
        <time>2019-06-15T12:51:21Z</time>
      </trkpt>
      <trkpt lat="43.333550" lon="-1.816946">
        <ele>29.098</ele>
        <time>2019-06-15T12:51:22Z</time>
      </trkpt>
      <trkpt lat="43.333539" lon="-1.817020">
        <ele>28.917</ele>
        <time>2019-06-15T12:51:23Z</time>
      </trkpt>
      <trkpt lat="43.333520" lon="-1.817101">
        <ele>28.826</ele>
        <time>2019-06-15T12:51:25Z</time>
      </trkpt>
      <trkpt lat="43.333441" lon="-1.817160">
        <ele>28.555</ele>
        <time>2019-06-15T12:51:33Z</time>
      </trkpt>
      <trkpt lat="43.333373" lon="-1.817165">
        <ele>28.376</ele>
        <time>2019-06-15T12:51:34Z</time>
      </trkpt>
      <trkpt lat="43.333302" lon="-1.817165">
        <ele>28.215</ele>
        <time>2019-06-15T12:51:35Z</time>
      </trkpt>
      <trkpt lat="43.333226" lon="-1.817164">
        <ele>28.159</ele>
        <time>2019-06-15T12:51:36Z</time>
      </trkpt>
      <trkpt lat="43.333173" lon="-1.817103">
        <ele>28.261</ele>
        <time>2019-06-15T12:51:37Z</time>
      </trkpt>
      <trkpt lat="43.333140" lon="-1.817020">
        <ele>28.221</ele>
        <time>2019-06-15T12:51:38Z</time>
      </trkpt>
      <trkpt lat="43.333107" lon="-1.816951">
        <ele>28.213</ele>
        <time>2019-06-15T12:51:39Z</time>
      </trkpt>
      <trkpt lat="43.333095" lon="-1.816881">
        <ele>28.108</ele>
        <time>2019-06-15T12:51:40Z</time>
      </trkpt>
      <trkpt lat="43.333093" lon="-1.816795">
        <ele>28.149</ele>
        <time>2019-06-15T12:51:41Z</time>
      </trkpt>
      <trkpt lat="43.333105" lon="-1.816703">
        <ele>28.073</ele>
        <time>2019-06-15T12:51:42Z</time>
      </trkpt>
      <trkpt lat="43.333138" lon="-1.816629">
        <ele>28.122</ele>
        <time>2019-06-15T12:51:43Z</time>
      </trkpt>
      <trkpt lat="43.333175" lon="-1.816565">
        <ele>28.261</ele>
        <time>2019-06-15T12:51:44Z</time>
      </trkpt>
      <trkpt lat="43.333230" lon="-1.816527">
        <ele>28.220</ele>
        <time>2019-06-15T12:51:45Z</time>
      </trkpt>
      <trkpt lat="43.333292" lon="-1.816515">
        <ele>28.111</ele>
        <time>2019-06-15T12:51:46Z</time>
      </trkpt>
      <trkpt lat="43.333355" lon="-1.816503">
        <ele>28.020</ele>
        <time>2019-06-15T12:51:47Z</time>
      </trkpt>
      <trkpt lat="43.333436" lon="-1.816502">
        <ele>28.024</ele>
        <time>2019-06-15T12:51:48Z</time>
      </trkpt>
      <trkpt lat="43.333515" lon="-1.816481">
        <ele>28.094</ele>
        <time>2019-06-15T12:51:49Z</time>
      </trkpt>
      <trkpt lat="43.333610" lon="-1.816431">
        <ele>28.057</ele>
        <time>2019-06-15T12:51:50Z</time>
      </trkpt>
      <trkpt lat="43.333700" lon="-1.816358">
        <ele>27.622</ele>
        <time>2019-06-15T12:51:51Z</time>
      </trkpt>
      <trkpt lat="43.333785" lon="-1.816280">
        <ele>27.108</ele>
        <time>2019-06-15T12:51:52Z</time>
      </trkpt>
      <trkpt lat="43.333884" lon="-1.816191">
        <ele>26.372</ele>
        <time>2019-06-15T12:51:53Z</time>
      </trkpt>
      <trkpt lat="43.333986" lon="-1.816098">
        <ele>25.666</ele>
        <time>2019-06-15T12:51:54Z</time>
      </trkpt>
      <trkpt lat="43.334103" lon="-1.815996">
        <ele>25.245</ele>
        <time>2019-06-15T12:51:55Z</time>
      </trkpt>
      <trkpt lat="43.334231" lon="-1.815889">
        <ele>24.514</ele>
        <time>2019-06-15T12:51:56Z</time>
      </trkpt>
      <trkpt lat="43.334355" lon="-1.815770">
        <ele>23.613</ele>
        <time>2019-06-15T12:51:57Z</time>
      </trkpt>
      <trkpt lat="43.334483" lon="-1.815649">
        <ele>22.794</ele>
        <time>2019-06-15T12:51:58Z</time>
      </trkpt>
      <trkpt lat="43.334622" lon="-1.815533">
        <ele>21.683</ele>
        <time>2019-06-15T12:51:59Z</time>
      </trkpt>
      <trkpt lat="43.334780" lon="-1.815395">
        <ele>19.557</ele>
        <time>2019-06-15T12:52:00Z</time>
      </trkpt>
      <trkpt lat="43.334930" lon="-1.815258">
        <ele>18.279</ele>
        <time>2019-06-15T12:52:01Z</time>
      </trkpt>
      <trkpt lat="43.335077" lon="-1.815119">
        <ele>17.005</ele>
        <time>2019-06-15T12:52:02Z</time>
      </trkpt>
      <trkpt lat="43.335232" lon="-1.814987">
        <ele>16.825</ele>
        <time>2019-06-15T12:52:03Z</time>
      </trkpt>
      <trkpt lat="43.335387" lon="-1.814844">
        <ele>16.308</ele>
        <time>2019-06-15T12:52:04Z</time>
      </trkpt>
      <trkpt lat="43.335544" lon="-1.814697">
        <ele>15.910</ele>
        <time>2019-06-15T12:52:05Z</time>
      </trkpt>
      <trkpt lat="43.335699" lon="-1.814556">
        <ele>15.414</ele>
        <time>2019-06-15T12:52:06Z</time>
      </trkpt>
      <trkpt lat="43.335863" lon="-1.814418">
        <ele>15.193</ele>
        <time>2019-06-15T12:52:07Z</time>
      </trkpt>
      <trkpt lat="43.336023" lon="-1.814277">
        <ele>15.352</ele>
        <time>2019-06-15T12:52:08Z</time>
      </trkpt>
      <trkpt lat="43.336172" lon="-1.814137">
        <ele>15.351</ele>
        <time>2019-06-15T12:52:09Z</time>
      </trkpt>
      <trkpt lat="43.336323" lon="-1.813997">
        <ele>15.912</ele>
        <time>2019-06-15T12:52:10Z</time>
      </trkpt>
      <trkpt lat="43.336474" lon="-1.813854">
        <ele>16.391</ele>
        <time>2019-06-15T12:52:11Z</time>
      </trkpt>
      <trkpt lat="43.336628" lon="-1.813708">
        <ele>16.915</ele>
        <time>2019-06-15T12:52:12Z</time>
      </trkpt>
      <trkpt lat="43.336786" lon="-1.813567">
        <ele>16.987</ele>
        <time>2019-06-15T12:52:13Z</time>
      </trkpt>
      <trkpt lat="43.336939" lon="-1.813420">
        <ele>17.042</ele>
        <time>2019-06-15T12:52:14Z</time>
      </trkpt>
      <trkpt lat="43.337087" lon="-1.813274">
        <ele>17.826</ele>
        <time>2019-06-15T12:52:15Z</time>
      </trkpt>
      <trkpt lat="43.337233" lon="-1.813139">
        <ele>18.408</ele>
        <time>2019-06-15T12:52:16Z</time>
      </trkpt>
      <trkpt lat="43.337383" lon="-1.812998">
        <ele>18.961</ele>
        <time>2019-06-15T12:52:17Z</time>
      </trkpt>
      <trkpt lat="43.337517" lon="-1.812856">
        <ele>19.435</ele>
        <time>2019-06-15T12:52:18Z</time>
      </trkpt>
      <trkpt lat="43.337654" lon="-1.812722">
        <ele>21.294</ele>
        <time>2019-06-15T12:52:19Z</time>
      </trkpt>
      <trkpt lat="43.337791" lon="-1.812596">
        <ele>23.393</ele>
        <time>2019-06-15T12:52:20Z</time>
      </trkpt>
      <trkpt lat="43.337929" lon="-1.812474">
        <ele>24.252</ele>
        <time>2019-06-15T12:52:21Z</time>
      </trkpt>
      <trkpt lat="43.338069" lon="-1.812352">
        <ele>25.033</ele>
        <time>2019-06-15T12:52:22Z</time>
      </trkpt>
      <trkpt lat="43.338188" lon="-1.812238">
        <ele>25.412</ele>
        <time>2019-06-15T12:52:23Z</time>
      </trkpt>
      <trkpt lat="43.338301" lon="-1.812129">
        <ele>26.026</ele>
        <time>2019-06-15T12:52:24Z</time>
      </trkpt>
      <trkpt lat="43.338421" lon="-1.812017">
        <ele>26.838</ele>
        <time>2019-06-15T12:52:25Z</time>
      </trkpt>
      <trkpt lat="43.338539" lon="-1.811907">
        <ele>26.870</ele>
        <time>2019-06-15T12:52:26Z</time>
      </trkpt>
      <trkpt lat="43.338651" lon="-1.811806">
        <ele>27.417</ele>
        <time>2019-06-15T12:52:27Z</time>
      </trkpt>
      <trkpt lat="43.338748" lon="-1.811706">
        <ele>27.708</ele>
        <time>2019-06-15T12:52:28Z</time>
      </trkpt>
      <trkpt lat="43.338853" lon="-1.811620">
        <ele>27.646</ele>
        <time>2019-06-15T12:52:29Z</time>
      </trkpt>
      <trkpt lat="43.338945" lon="-1.811540">
        <ele>27.750</ele>
        <time>2019-06-15T12:52:30Z</time>
      </trkpt>
      <trkpt lat="43.339039" lon="-1.811461">
        <ele>27.789</ele>
        <time>2019-06-15T12:52:31Z</time>
      </trkpt>
      <trkpt lat="43.339118" lon="-1.811391">
        <ele>27.358</ele>
        <time>2019-06-15T12:52:32Z</time>
      </trkpt>
      <trkpt lat="43.339184" lon="-1.811331">
        <ele>27.337</ele>
        <time>2019-06-15T12:52:33Z</time>
      </trkpt>
      <trkpt lat="43.339240" lon="-1.811288">
        <ele>27.318</ele>
        <time>2019-06-15T12:52:34Z</time>
      </trkpt>
      <trkpt lat="43.339301" lon="-1.811224">
        <ele>27.117</ele>
        <time>2019-06-15T12:52:36Z</time>
      </trkpt>
      <trkpt lat="43.339347" lon="-1.811192">
        <ele>26.831</ele>
        <time>2019-06-15T12:52:38Z</time>
      </trkpt>
      <trkpt lat="43.339378" lon="-1.811137">
        <ele>26.798</ele>
        <time>2019-06-15T12:52:40Z</time>
      </trkpt>
      <trkpt lat="43.339426" lon="-1.811025">
        <ele>26.215</ele>
        <time>2019-06-15T12:52:42Z</time>
      </trkpt>
      <trkpt lat="43.339458" lon="-1.810943">
        <ele>26.026</ele>
        <time>2019-06-15T12:52:43Z</time>
      </trkpt>
      <trkpt lat="43.339494" lon="-1.810867">
        <ele>25.808</ele>
        <time>2019-06-15T12:52:44Z</time>
      </trkpt>
      <trkpt lat="43.339542" lon="-1.810815">
        <ele>25.652</ele>
        <time>2019-06-15T12:52:45Z</time>
      </trkpt>
      <trkpt lat="43.339602" lon="-1.810765">
        <ele>25.356</ele>
        <time>2019-06-15T12:52:46Z</time>
      </trkpt>
      <trkpt lat="43.339664" lon="-1.810753">
        <ele>25.155</ele>
        <time>2019-06-15T12:52:47Z</time>
      </trkpt>
      <trkpt lat="43.339724" lon="-1.810740">
        <ele>25.094</ele>
        <time>2019-06-15T12:52:48Z</time>
      </trkpt>
      <trkpt lat="43.339783" lon="-1.810738">
        <ele>24.853</ele>
        <time>2019-06-15T12:52:49Z</time>
      </trkpt>
      <trkpt lat="43.339876" lon="-1.810699">
        <ele>24.424</ele>
        <time>2019-06-15T12:52:50Z</time>
      </trkpt>
      <trkpt lat="43.339955" lon="-1.810626">
        <ele>24.273</ele>
        <time>2019-06-15T12:52:51Z</time>
      </trkpt>
      <trkpt lat="43.340056" lon="-1.810541">
        <ele>23.887</ele>
        <time>2019-06-15T12:52:52Z</time>
      </trkpt>
      <trkpt lat="43.340177" lon="-1.810430">
        <ele>23.428</ele>
        <time>2019-06-15T12:52:53Z</time>
      </trkpt>
      <trkpt lat="43.340296" lon="-1.810336">
        <ele>23.089</ele>
        <time>2019-06-15T12:52:54Z</time>
      </trkpt>
      <trkpt lat="43.340413" lon="-1.810222">
        <ele>22.517</ele>
        <time>2019-06-15T12:52:55Z</time>
      </trkpt>
      <trkpt lat="43.340524" lon="-1.810104">
        <ele>22.108</ele>
        <time>2019-06-15T12:52:56Z</time>
      </trkpt>
      <trkpt lat="43.340647" lon="-1.809977">
        <ele>21.725</ele>
        <time>2019-06-15T12:52:57Z</time>
      </trkpt>
      <trkpt lat="43.340780" lon="-1.809846">
        <ele>21.249</ele>
        <time>2019-06-15T12:52:58Z</time>
      </trkpt>
      <trkpt lat="43.340918" lon="-1.809708">
        <ele>20.698</ele>
        <time>2019-06-15T12:52:59Z</time>
      </trkpt>
      <trkpt lat="43.341036" lon="-1.809569">
        <ele>19.797</ele>
        <time>2019-06-15T12:53:00Z</time>
      </trkpt>
      <trkpt lat="43.341150" lon="-1.809436">
        <ele>18.986</ele>
        <time>2019-06-15T12:53:01Z</time>
      </trkpt>
      <trkpt lat="43.341280" lon="-1.809289">
        <ele>18.047</ele>
        <time>2019-06-15T12:53:02Z</time>
      </trkpt>
      <trkpt lat="43.341409" lon="-1.809136">
        <ele>17.976</ele>
        <time>2019-06-15T12:53:03Z</time>
      </trkpt>
      <trkpt lat="43.341537" lon="-1.808986">
        <ele>17.620</ele>
        <time>2019-06-15T12:53:04Z</time>
      </trkpt>
      <trkpt lat="43.341662" lon="-1.808833">
        <ele>17.623</ele>
        <time>2019-06-15T12:53:05Z</time>
      </trkpt>
      <trkpt lat="43.341778" lon="-1.808672">
        <ele>16.883</ele>
        <time>2019-06-15T12:53:06Z</time>
      </trkpt>
      <trkpt lat="43.341898" lon="-1.808506">
        <ele>16.411</ele>
        <time>2019-06-15T12:53:07Z</time>
      </trkpt>
      <trkpt lat="43.342015" lon="-1.808339">
        <ele>16.008</ele>
        <time>2019-06-15T12:53:08Z</time>
      </trkpt>
      <trkpt lat="43.342137" lon="-1.808169">
        <ele>14.965</ele>
        <time>2019-06-15T12:53:09Z</time>
      </trkpt>
      <trkpt lat="43.342255" lon="-1.807992">
        <ele>14.569</ele>
        <time>2019-06-15T12:53:10Z</time>
      </trkpt>
      <trkpt lat="43.342370" lon="-1.807820">
        <ele>14.318</ele>
        <time>2019-06-15T12:53:11Z</time>
      </trkpt>
      <trkpt lat="43.342482" lon="-1.807633">
        <ele>14.247</ele>
        <time>2019-06-15T12:53:12Z</time>
      </trkpt>
      <trkpt lat="43.342596" lon="-1.807442">
        <ele>13.196</ele>
        <time>2019-06-15T12:53:13Z</time>
      </trkpt>
      <trkpt lat="43.342706" lon="-1.807242">
        <ele>13.947</ele>
        <time>2019-06-15T12:53:14Z</time>
      </trkpt>
      <trkpt lat="43.342816" lon="-1.807050">
        <ele>13.716</ele>
        <time>2019-06-15T12:53:15Z</time>
      </trkpt>
      <trkpt lat="43.342922" lon="-1.806854">
        <ele>13.430</ele>
        <time>2019-06-15T12:53:16Z</time>
      </trkpt>
      <trkpt lat="43.343019" lon="-1.806673">
        <ele>13.795</ele>
        <time>2019-06-15T12:53:17Z</time>
      </trkpt>
      <trkpt lat="43.343113" lon="-1.806504">
        <ele>13.449</ele>
        <time>2019-06-15T12:53:18Z</time>
      </trkpt>
      <trkpt lat="43.343206" lon="-1.806337">
        <ele>13.523</ele>
        <time>2019-06-15T12:53:19Z</time>
      </trkpt>
      <trkpt lat="43.343284" lon="-1.806179">
        <ele>13.808</ele>
        <time>2019-06-15T12:53:20Z</time>
      </trkpt>
      <trkpt lat="43.343367" lon="-1.806056">
        <ele>13.812</ele>
        <time>2019-06-15T12:53:21Z</time>
      </trkpt>
      <trkpt lat="43.343434" lon="-1.805919">
        <ele>13.386</ele>
        <time>2019-06-15T12:53:22Z</time>
      </trkpt>
      <trkpt lat="43.343510" lon="-1.805792">
        <ele>13.035</ele>
        <time>2019-06-15T12:53:23Z</time>
      </trkpt>
      <trkpt lat="43.343576" lon="-1.805688">
        <ele>13.074</ele>
        <time>2019-06-15T12:53:24Z</time>
      </trkpt>
      <trkpt lat="43.343627" lon="-1.805602">
        <ele>13.083</ele>
        <time>2019-06-15T12:53:25Z</time>
      </trkpt>
      <trkpt lat="43.343664" lon="-1.805514">
        <ele>12.864</ele>
        <time>2019-06-15T12:53:26Z</time>
      </trkpt>
      <trkpt lat="43.343690" lon="-1.805424">
        <ele>12.533</ele>
        <time>2019-06-15T12:53:27Z</time>
      </trkpt>
      <trkpt lat="43.343658" lon="-1.805310">
        <ele>12.157</ele>
        <time>2019-06-15T12:53:28Z</time>
      </trkpt>
      <trkpt lat="43.343631" lon="-1.805210">
        <ele>11.846</ele>
        <time>2019-06-15T12:53:29Z</time>
      </trkpt>
      <trkpt lat="43.343623" lon="-1.805129">
        <ele>11.588</ele>
        <time>2019-06-15T12:53:30Z</time>
      </trkpt>
      <trkpt lat="43.343633" lon="-1.805036">
        <ele>11.116</ele>
        <time>2019-06-15T12:53:31Z</time>
      </trkpt>
      <trkpt lat="43.343661" lon="-1.804964">
        <ele>10.808</ele>
        <time>2019-06-15T12:53:32Z</time>
      </trkpt>
      <trkpt lat="43.343713" lon="-1.804907">
        <ele>10.437</ele>
        <time>2019-06-15T12:53:33Z</time>
      </trkpt>
      <trkpt lat="43.343774" lon="-1.804875">
        <ele>10.011</ele>
        <time>2019-06-15T12:53:34Z</time>
      </trkpt>
      <trkpt lat="43.343843" lon="-1.804866">
        <ele>9.770</ele>
        <time>2019-06-15T12:53:35Z</time>
      </trkpt>
      <trkpt lat="43.343932" lon="-1.804853">
        <ele>9.719</ele>
        <time>2019-06-15T12:53:36Z</time>
      </trkpt>
      <trkpt lat="43.344019" lon="-1.804817">
        <ele>9.928</ele>
        <time>2019-06-15T12:53:37Z</time>
      </trkpt>
      <trkpt lat="43.344094" lon="-1.804747">
        <ele>10.389</ele>
        <time>2019-06-15T12:53:38Z</time>
      </trkpt>
      <trkpt lat="43.344182" lon="-1.804649">
        <ele>10.468</ele>
        <time>2019-06-15T12:53:39Z</time>
      </trkpt>
      <trkpt lat="43.344255" lon="-1.804521">
        <ele>9.742</ele>
        <time>2019-06-15T12:53:40Z</time>
      </trkpt>
      <trkpt lat="43.344322" lon="-1.804395">
        <ele>9.319</ele>
        <time>2019-06-15T12:53:41Z</time>
      </trkpt>
      <trkpt lat="43.344374" lon="-1.804258">
        <ele>9.209</ele>
        <time>2019-06-15T12:53:42Z</time>
      </trkpt>
      <trkpt lat="43.344420" lon="-1.804126">
        <ele>9.519</ele>
        <time>2019-06-15T12:53:43Z</time>
      </trkpt>
      <trkpt lat="43.344462" lon="-1.803993">
        <ele>9.408</ele>
        <time>2019-06-15T12:53:44Z</time>
      </trkpt>
      <trkpt lat="43.344503" lon="-1.803868">
        <ele>8.944</ele>
        <time>2019-06-15T12:53:45Z</time>
      </trkpt>
      <trkpt lat="43.344540" lon="-1.803747">
        <ele>8.398</ele>
        <time>2019-06-15T12:53:46Z</time>
      </trkpt>
      <trkpt lat="43.344564" lon="-1.803634">
        <ele>8.047</ele>
        <time>2019-06-15T12:53:47Z</time>
      </trkpt>
      <trkpt lat="43.344580" lon="-1.803528">
        <ele>7.526</ele>
        <time>2019-06-15T12:53:48Z</time>
      </trkpt>
      <trkpt lat="43.344603" lon="-1.803445">
        <ele>7.335</ele>
        <time>2019-06-15T12:53:49Z</time>
      </trkpt>
      <trkpt lat="43.344625" lon="-1.803374">
        <ele>7.196</ele>
        <time>2019-06-15T12:53:50Z</time>
      </trkpt>
      <trkpt lat="43.344637" lon="-1.803311">
        <ele>7.025</ele>
        <time>2019-06-15T12:53:51Z</time>
      </trkpt>
      <trkpt lat="43.344638" lon="-1.803234">
        <ele>6.719</ele>
        <time>2019-06-15T12:53:53Z</time>
      </trkpt>
      <trkpt lat="43.344665" lon="-1.803182">
        <ele>6.828</ele>
        <time>2019-06-15T12:53:58Z</time>
      </trkpt>
      <trkpt lat="43.344687" lon="-1.803092">
        <ele>6.889</ele>
        <time>2019-06-15T12:54:00Z</time>
      </trkpt>
      <trkpt lat="43.344717" lon="-1.803019">
        <ele>6.817</ele>
        <time>2019-06-15T12:54:01Z</time>
      </trkpt>
      <trkpt lat="43.344736" lon="-1.802942">
        <ele>6.608</ele>
        <time>2019-06-15T12:54:02Z</time>
      </trkpt>
      <trkpt lat="43.344764" lon="-1.802839">
        <ele>6.415</ele>
        <time>2019-06-15T12:54:03Z</time>
      </trkpt>
      <trkpt lat="43.344796" lon="-1.802729">
        <ele>6.039</ele>
        <time>2019-06-15T12:54:04Z</time>
      </trkpt>
      <trkpt lat="43.344816" lon="-1.802613">
        <ele>5.468</ele>
        <time>2019-06-15T12:54:05Z</time>
      </trkpt>
      <trkpt lat="43.344843" lon="-1.802494">
        <ele>4.917</ele>
        <time>2019-06-15T12:54:06Z</time>
      </trkpt>
      <trkpt lat="43.344877" lon="-1.802373">
        <ele>4.946</ele>
        <time>2019-06-15T12:54:07Z</time>
      </trkpt>
      <trkpt lat="43.344903" lon="-1.802262">
        <ele>4.727</ele>
        <time>2019-06-15T12:54:08Z</time>
      </trkpt>
      <trkpt lat="43.344935" lon="-1.802149">
        <ele>4.876</ele>
        <time>2019-06-15T12:54:09Z</time>
      </trkpt>
      <trkpt lat="43.344952" lon="-1.802041">
        <ele>4.840</ele>
        <time>2019-06-15T12:54:10Z</time>
      </trkpt>
      <trkpt lat="43.344980" lon="-1.801939">
        <ele>4.927</ele>
        <time>2019-06-15T12:54:11Z</time>
      </trkpt>
      <trkpt lat="43.345007" lon="-1.801844">
        <ele>5.068</ele>
        <time>2019-06-15T12:54:12Z</time>
      </trkpt>
      <trkpt lat="43.345014" lon="-1.801754">
        <ele>5.014</ele>
        <time>2019-06-15T12:54:13Z</time>
      </trkpt>
      <trkpt lat="43.345022" lon="-1.801664">
        <ele>4.908</ele>
        <time>2019-06-15T12:54:14Z</time>
      </trkpt>
      <trkpt lat="43.345020" lon="-1.801570">
        <ele>4.685</ele>
        <time>2019-06-15T12:54:15Z</time>
      </trkpt>
      <trkpt lat="43.345000" lon="-1.801483">
        <ele>4.359</ele>
        <time>2019-06-15T12:54:16Z</time>
      </trkpt>
      <trkpt lat="43.344978" lon="-1.801381">
        <ele>4.098</ele>
        <time>2019-06-15T12:54:17Z</time>
      </trkpt>
      <trkpt lat="43.344961" lon="-1.801279">
        <ele>4.497</ele>
        <time>2019-06-15T12:54:18Z</time>
      </trkpt>
      <trkpt lat="43.344969" lon="-1.801186">
        <ele>4.756</ele>
        <time>2019-06-15T12:54:19Z</time>
      </trkpt>
      <trkpt lat="43.344990" lon="-1.801108">
        <ele>5.027</ele>
        <time>2019-06-15T12:54:20Z</time>
      </trkpt>
      <trkpt lat="43.345024" lon="-1.801032">
        <ele>5.356</ele>
        <time>2019-06-15T12:54:21Z</time>
      </trkpt>
      <trkpt lat="43.345067" lon="-1.800981">
        <ele>5.480</ele>
        <time>2019-06-15T12:54:22Z</time>
      </trkpt>
      <trkpt lat="43.345121" lon="-1.800961">
        <ele>5.327</ele>
        <time>2019-06-15T12:54:23Z</time>
      </trkpt>
      <trkpt lat="43.345175" lon="-1.800967">
        <ele>5.268</ele>
        <time>2019-06-15T12:54:24Z</time>
      </trkpt>
      <trkpt lat="43.345250" lon="-1.800998">
        <ele>5.014</ele>
        <time>2019-06-15T12:54:25Z</time>
      </trkpt>
      <trkpt lat="43.345312" lon="-1.801044">
        <ele>4.908</ele>
        <time>2019-06-15T12:54:26Z</time>
      </trkpt>
      <trkpt lat="43.345364" lon="-1.801107">
        <ele>4.725</ele>
        <time>2019-06-15T12:54:27Z</time>
      </trkpt>
      <trkpt lat="43.345402" lon="-1.801213">
        <ele>4.639</ele>
        <time>2019-06-15T12:54:28Z</time>
      </trkpt>
      <trkpt lat="43.345432" lon="-1.801319">
        <ele>4.478</ele>
        <time>2019-06-15T12:54:29Z</time>
      </trkpt>
      <trkpt lat="43.345459" lon="-1.801428">
        <ele>4.327</ele>
        <time>2019-06-15T12:54:30Z</time>
      </trkpt>
      <trkpt lat="43.345513" lon="-1.801533">
        <ele>4.136</ele>
        <time>2019-06-15T12:54:31Z</time>
      </trkpt>
      <trkpt lat="43.345575" lon="-1.801626">
        <ele>4.157</ele>
        <time>2019-06-15T12:54:32Z</time>
      </trkpt>
      <trkpt lat="43.345632" lon="-1.801717">
        <ele>4.546</ele>
        <time>2019-06-15T12:54:33Z</time>
      </trkpt>
      <trkpt lat="43.345760" lon="-1.801763">
        <ele>4.720</ele>
        <time>2019-06-15T12:54:34Z</time>
      </trkpt>
      <trkpt lat="43.345859" lon="-1.801841">
        <ele>4.361</ele>
        <time>2019-06-15T12:54:35Z</time>
      </trkpt>
      <trkpt lat="43.345970" lon="-1.801897">
        <ele>3.821</ele>
        <time>2019-06-15T12:54:36Z</time>
      </trkpt>
      <trkpt lat="43.346116" lon="-1.801947">
        <ele>3.013</ele>
        <time>2019-06-15T12:54:37Z</time>
      </trkpt>
      <trkpt lat="43.346259" lon="-1.801939">
        <ele>3.008</ele>
        <time>2019-06-15T12:54:38Z</time>
      </trkpt>
      <trkpt lat="43.346398" lon="-1.801959">
        <ele>3.099</ele>
        <time>2019-06-15T12:54:39Z</time>
      </trkpt>
      <trkpt lat="43.346423" lon="-1.801819">
        <ele>2.633</ele>
        <time>2019-06-15T12:54:40Z</time>
      </trkpt>
      <trkpt lat="43.346512" lon="-1.801778">
        <ele>2.712</ele>
        <time>2019-06-15T12:54:41Z</time>
      </trkpt>
      <trkpt lat="43.346546" lon="-1.801727">
        <ele>2.771</ele>
        <time>2019-06-15T12:54:42Z</time>
      </trkpt>
      <trkpt lat="43.346595" lon="-1.801699">
        <ele>2.870</ele>
        <time>2019-06-15T12:54:44Z</time>
      </trkpt>
      <trkpt lat="43.346614" lon="-1.801643">
        <ele>2.851</ele>
        <time>2019-06-15T12:55:11Z</time>
      </trkpt>
      <trkpt lat="43.346713" lon="-1.801571">
        <ele>3.050</ele>
        <time>2019-06-15T12:55:12Z</time>
      </trkpt>
      <trkpt lat="43.346798" lon="-1.801509">
        <ele>3.044</ele>
        <time>2019-06-15T12:55:13Z</time>
      </trkpt>
      <trkpt lat="43.346899" lon="-1.801448">
        <ele>3.093</ele>
        <time>2019-06-15T12:55:14Z</time>
      </trkpt>
      <trkpt lat="43.346997" lon="-1.801365">
        <ele>2.965</ele>
        <time>2019-06-15T12:55:15Z</time>
      </trkpt>
      <trkpt lat="43.347150" lon="-1.801294">
        <ele>2.921</ele>
        <time>2019-06-15T12:55:16Z</time>
      </trkpt>
      <trkpt lat="43.347300" lon="-1.801205">
        <ele>2.908</ele>
        <time>2019-06-15T12:55:17Z</time>
      </trkpt>
      <trkpt lat="43.347453" lon="-1.801119">
        <ele>3.032</ele>
        <time>2019-06-15T12:55:18Z</time>
      </trkpt>
      <trkpt lat="43.347591" lon="-1.801036">
        <ele>2.676</ele>
        <time>2019-06-15T12:55:19Z</time>
      </trkpt>
      <trkpt lat="43.347715" lon="-1.800955">
        <ele>2.595</ele>
        <time>2019-06-15T12:55:20Z</time>
      </trkpt>
      <trkpt lat="43.347829" lon="-1.800889">
        <ele>2.744</ele>
        <time>2019-06-15T12:55:21Z</time>
      </trkpt>
      <trkpt lat="43.347936" lon="-1.800827">
        <ele>2.433</ele>
        <time>2019-06-15T12:55:22Z</time>
      </trkpt>
      <trkpt lat="43.348045" lon="-1.800756">
        <ele>2.054</ele>
        <time>2019-06-15T12:55:23Z</time>
      </trkpt>
      <trkpt lat="43.348145" lon="-1.800682">
        <ele>2.033</ele>
        <time>2019-06-15T12:55:24Z</time>
      </trkpt>
      <trkpt lat="43.348258" lon="-1.800613">
        <ele>2.087</ele>
        <time>2019-06-15T12:55:25Z</time>
      </trkpt>
      <trkpt lat="43.348368" lon="-1.800548">
        <ele>2.059</ele>
        <time>2019-06-15T12:55:26Z</time>
      </trkpt>
      <trkpt lat="43.348472" lon="-1.800489">
        <ele>2.003</ele>
        <time>2019-06-15T12:55:27Z</time>
      </trkpt>
      <trkpt lat="43.348572" lon="-1.800424">
        <ele>2.023</ele>
        <time>2019-06-15T12:55:28Z</time>
      </trkpt>
      <trkpt lat="43.348678" lon="-1.800369">
        <ele>2.008</ele>
        <time>2019-06-15T12:55:29Z</time>
      </trkpt>
      <trkpt lat="43.348781" lon="-1.800316">
        <ele>2.038</ele>
        <time>2019-06-15T12:55:30Z</time>
      </trkpt>
      <trkpt lat="43.348886" lon="-1.800263">
        <ele>2.282</ele>
        <time>2019-06-15T12:55:31Z</time>
      </trkpt>
      <trkpt lat="43.348989" lon="-1.800205">
        <ele>3.051</ele>
        <time>2019-06-15T12:55:32Z</time>
      </trkpt>
      <trkpt lat="43.349093" lon="-1.800140">
        <ele>3.340</ele>
        <time>2019-06-15T12:55:33Z</time>
      </trkpt>
      <trkpt lat="43.349191" lon="-1.800088">
        <ele>3.099</ele>
        <time>2019-06-15T12:55:34Z</time>
      </trkpt>
      <trkpt lat="43.349286" lon="-1.800025">
        <ele>3.050</ele>
        <time>2019-06-15T12:55:35Z</time>
      </trkpt>
      <trkpt lat="43.349384" lon="-1.799969">
        <ele>3.099</ele>
        <time>2019-06-15T12:55:36Z</time>
      </trkpt>
      <trkpt lat="43.349484" lon="-1.799912">
        <ele>2.753</ele>
        <time>2019-06-15T12:55:37Z</time>
      </trkpt>
      <trkpt lat="43.349572" lon="-1.799858">
        <ele>2.731</ele>
        <time>2019-06-15T12:55:38Z</time>
      </trkpt>
      <trkpt lat="43.349663" lon="-1.799817">
        <ele>2.961</ele>
        <time>2019-06-15T12:55:39Z</time>
      </trkpt>
      <trkpt lat="43.349750" lon="-1.799782">
        <ele>3.007</ele>
        <time>2019-06-15T12:55:40Z</time>
      </trkpt>
      <trkpt lat="43.349828" lon="-1.799740">
        <ele>3.008</ele>
        <time>2019-06-15T12:55:41Z</time>
      </trkpt>
      <trkpt lat="43.349902" lon="-1.799690">
        <ele>3.116</ele>
        <time>2019-06-15T12:55:42Z</time>
      </trkpt>
      <trkpt lat="43.349979" lon="-1.799628">
        <ele>3.390</ele>
        <time>2019-06-15T12:55:43Z</time>
      </trkpt>
      <trkpt lat="43.350057" lon="-1.799567">
        <ele>3.449</ele>
        <time>2019-06-15T12:55:44Z</time>
      </trkpt>
      <trkpt lat="43.350149" lon="-1.799506">
        <ele>3.418</ele>
        <time>2019-06-15T12:55:45Z</time>
      </trkpt>
      <trkpt lat="43.350230" lon="-1.799444">
        <ele>3.277</ele>
        <time>2019-06-15T12:55:46Z</time>
      </trkpt>
      <trkpt lat="43.350307" lon="-1.799375">
        <ele>2.928</ele>
        <time>2019-06-15T12:55:47Z</time>
      </trkpt>
      <trkpt lat="43.350375" lon="-1.799300">
        <ele>2.697</ele>
        <time>2019-06-15T12:55:48Z</time>
      </trkpt>
      <trkpt lat="43.350445" lon="-1.799223">
        <ele>2.451</ele>
        <time>2019-06-15T12:55:49Z</time>
      </trkpt>
      <trkpt lat="43.350499" lon="-1.799148">
        <ele>2.175</ele>
        <time>2019-06-15T12:55:50Z</time>
      </trkpt>
      <trkpt lat="43.350556" lon="-1.799076">
        <ele>1.728</ele>
        <time>2019-06-15T12:55:51Z</time>
      </trkpt>
      <trkpt lat="43.350620" lon="-1.798999">
        <ele>1.820</ele>
        <time>2019-06-15T12:55:52Z</time>
      </trkpt>
      <trkpt lat="43.350685" lon="-1.798933">
        <ele>2.008</ele>
        <time>2019-06-15T12:55:53Z</time>
      </trkpt>
      <trkpt lat="43.350747" lon="-1.798858">
        <ele>2.450</ele>
        <time>2019-06-15T12:55:54Z</time>
      </trkpt>
      <trkpt lat="43.350806" lon="-1.798795">
        <ele>2.814</ele>
        <time>2019-06-15T12:55:55Z</time>
      </trkpt>
      <trkpt lat="43.350860" lon="-1.798746">
        <ele>3.033</ele>
        <time>2019-06-15T12:55:56Z</time>
      </trkpt>
      <trkpt lat="43.350901" lon="-1.798707">
        <ele>3.032</ele>
        <time>2019-06-15T12:55:57Z</time>
      </trkpt>
      <trkpt lat="43.350945" lon="-1.798659">
        <ele>3.091</ele>
        <time>2019-06-15T12:55:59Z</time>
      </trkpt>
      <trkpt lat="43.350995" lon="-1.798607">
        <ele>3.062</ele>
        <time>2019-06-15T12:56:09Z</time>
      </trkpt>
      <trkpt lat="43.351069" lon="-1.798519">
        <ele>3.031</ele>
        <time>2019-06-15T12:56:11Z</time>
      </trkpt>
      <trkpt lat="43.351115" lon="-1.798461">
        <ele>3.085</ele>
        <time>2019-06-15T12:56:12Z</time>
      </trkpt>
      <trkpt lat="43.351166" lon="-1.798404">
        <ele>3.072</ele>
        <time>2019-06-15T12:56:13Z</time>
      </trkpt>
      <trkpt lat="43.351229" lon="-1.798329">
        <ele>3.013</ele>
        <time>2019-06-15T12:56:14Z</time>
      </trkpt>
      <trkpt lat="43.351292" lon="-1.798245">
        <ele>3.014</ele>
        <time>2019-06-15T12:56:15Z</time>
      </trkpt>
      <trkpt lat="43.351368" lon="-1.798159">
        <ele>3.008</ele>
        <time>2019-06-15T12:56:16Z</time>
      </trkpt>
      <trkpt lat="43.351444" lon="-1.798060">
        <ele>3.060</ele>
        <time>2019-06-15T12:56:17Z</time>
      </trkpt>
      <trkpt lat="43.351527" lon="-1.797957">
        <ele>3.094</ele>
        <time>2019-06-15T12:56:18Z</time>
      </trkpt>
      <trkpt lat="43.351616" lon="-1.797847">
        <ele>3.093</ele>
        <time>2019-06-15T12:56:19Z</time>
      </trkpt>
      <trkpt lat="43.351702" lon="-1.797738">
        <ele>3.052</ele>
        <time>2019-06-15T12:56:20Z</time>
      </trkpt>
      <trkpt lat="43.351781" lon="-1.797639">
        <ele>3.031</ele>
        <time>2019-06-15T12:56:21Z</time>
      </trkpt>
      <trkpt lat="43.351853" lon="-1.797543">
        <ele>3.032</ele>
        <time>2019-06-15T12:56:22Z</time>
      </trkpt>
      <trkpt lat="43.351921" lon="-1.797454">
        <ele>2.841</ele>
        <time>2019-06-15T12:56:23Z</time>
      </trkpt>
      <trkpt lat="43.351987" lon="-1.797360">
        <ele>2.625</ele>
        <time>2019-06-15T12:56:24Z</time>
      </trkpt>
      <trkpt lat="43.352052" lon="-1.797279">
        <ele>2.589</ele>
        <time>2019-06-15T12:56:25Z</time>
      </trkpt>
      <trkpt lat="43.352119" lon="-1.797180">
        <ele>2.606</ele>
        <time>2019-06-15T12:56:26Z</time>
      </trkpt>
      <trkpt lat="43.352195" lon="-1.797106">
        <ele>2.926</ele>
        <time>2019-06-15T12:56:28Z</time>
      </trkpt>
      <trkpt lat="43.352238" lon="-1.797033">
        <ele>3.008</ele>
        <time>2019-06-15T12:56:29Z</time>
      </trkpt>
      <trkpt lat="43.352290" lon="-1.796962">
        <ele>3.031</ele>
        <time>2019-06-15T12:56:30Z</time>
      </trkpt>
      <trkpt lat="43.352371" lon="-1.796879">
        <ele>2.935</ele>
        <time>2019-06-15T12:56:31Z</time>
      </trkpt>
      <trkpt lat="43.352467" lon="-1.796794">
        <ele>2.944</ele>
        <time>2019-06-15T12:56:32Z</time>
      </trkpt>
      <trkpt lat="43.352576" lon="-1.796712">
        <ele>3.223</ele>
        <time>2019-06-15T12:56:33Z</time>
      </trkpt>
      <trkpt lat="43.352703" lon="-1.796652">
        <ele>3.712</ele>
        <time>2019-06-15T12:56:34Z</time>
      </trkpt>
      <trkpt lat="43.352842" lon="-1.796589">
        <ele>3.653</ele>
        <time>2019-06-15T12:56:35Z</time>
      </trkpt>
      <trkpt lat="43.352981" lon="-1.796534">
        <ele>3.172</ele>
        <time>2019-06-15T12:56:36Z</time>
      </trkpt>
      <trkpt lat="43.353123" lon="-1.796484">
        <ele>2.986</ele>
        <time>2019-06-15T12:56:37Z</time>
      </trkpt>
      <trkpt lat="43.353254" lon="-1.796438">
        <ele>2.919</ele>
        <time>2019-06-15T12:56:38Z</time>
      </trkpt>
      <trkpt lat="43.353385" lon="-1.796393">
        <ele>3.009</ele>
        <time>2019-06-15T12:56:39Z</time>
      </trkpt>
      <trkpt lat="43.353511" lon="-1.796353">
        <ele>2.919</ele>
        <time>2019-06-15T12:56:40Z</time>
      </trkpt>
      <trkpt lat="43.353637" lon="-1.796312">
        <ele>2.708</ele>
        <time>2019-06-15T12:56:41Z</time>
      </trkpt>
      <trkpt lat="43.353770" lon="-1.796271">
        <ele>2.514</ele>
        <time>2019-06-15T12:56:42Z</time>
      </trkpt>
      <trkpt lat="43.353909" lon="-1.796217">
        <ele>2.668</ele>
        <time>2019-06-15T12:56:43Z</time>
      </trkpt>
      <trkpt lat="43.354046" lon="-1.796174">
        <ele>2.317</ele>
        <time>2019-06-15T12:56:44Z</time>
      </trkpt>
      <trkpt lat="43.354172" lon="-1.796129">
        <ele>2.066</ele>
        <time>2019-06-15T12:56:45Z</time>
      </trkpt>
      <trkpt lat="43.354290" lon="-1.796088">
        <ele>1.945</ele>
        <time>2019-06-15T12:56:46Z</time>
      </trkpt>
      <trkpt lat="43.354428" lon="-1.796044">
        <ele>1.816</ele>
        <time>2019-06-15T12:56:47Z</time>
      </trkpt>
      <trkpt lat="43.354558" lon="-1.795999">
        <ele>1.845</ele>
        <time>2019-06-15T12:56:48Z</time>
      </trkpt>
      <trkpt lat="43.354690" lon="-1.795956">
        <ele>1.999</ele>
        <time>2019-06-15T12:56:49Z</time>
      </trkpt>
      <trkpt lat="43.354830" lon="-1.795911">
        <ele>2.256</ele>
        <time>2019-06-15T12:56:50Z</time>
      </trkpt>
      <trkpt lat="43.354967" lon="-1.795870">
        <ele>2.659</ele>
        <time>2019-06-15T12:56:51Z</time>
      </trkpt>
      <trkpt lat="43.355096" lon="-1.795824">
        <ele>3.014</ele>
        <time>2019-06-15T12:56:52Z</time>
      </trkpt>
      <trkpt lat="43.355221" lon="-1.795776">
        <ele>2.808</ele>
        <time>2019-06-15T12:56:53Z</time>
      </trkpt>
      <trkpt lat="43.355339" lon="-1.795728">
        <ele>2.658</ele>
        <time>2019-06-15T12:56:54Z</time>
      </trkpt>
      <trkpt lat="43.355464" lon="-1.795681">
        <ele>2.512</ele>
        <time>2019-06-15T12:56:55Z</time>
      </trkpt>
      <trkpt lat="43.355580" lon="-1.795636">
        <ele>2.721</ele>
        <time>2019-06-15T12:56:56Z</time>
      </trkpt>
      <trkpt lat="43.355692" lon="-1.795579">
        <ele>2.980</ele>
        <time>2019-06-15T12:56:57Z</time>
      </trkpt>
      <trkpt lat="43.355806" lon="-1.795507">
        <ele>2.819</ele>
        <time>2019-06-15T12:56:58Z</time>
      </trkpt>
      <trkpt lat="43.355916" lon="-1.795423">
        <ele>2.580</ele>
        <time>2019-06-15T12:56:59Z</time>
      </trkpt>
      <trkpt lat="43.356026" lon="-1.795325">
        <ele>2.699</ele>
        <time>2019-06-15T12:57:00Z</time>
      </trkpt>
      <trkpt lat="43.356133" lon="-1.795223">
        <ele>2.973</ele>
        <time>2019-06-15T12:57:01Z</time>
      </trkpt>
      <trkpt lat="43.356239" lon="-1.795112">
        <ele>2.691</ele>
        <time>2019-06-15T12:57:02Z</time>
      </trkpt>
      <trkpt lat="43.356336" lon="-1.794989">
        <ele>3.081</ele>
        <time>2019-06-15T12:57:03Z</time>
      </trkpt>
      <trkpt lat="43.356430" lon="-1.794871">
        <ele>2.819</ele>
        <time>2019-06-15T12:57:04Z</time>
      </trkpt>
      <trkpt lat="43.356531" lon="-1.794758">
        <ele>2.908</ele>
        <time>2019-06-15T12:57:05Z</time>
      </trkpt>
      <trkpt lat="43.356632" lon="-1.794639">
        <ele>3.052</ele>
        <time>2019-06-15T12:57:06Z</time>
      </trkpt>
      <trkpt lat="43.356738" lon="-1.794520">
        <ele>2.936</ele>
        <time>2019-06-15T12:57:07Z</time>
      </trkpt>
      <trkpt lat="43.356844" lon="-1.794402">
        <ele>2.935</ele>
        <time>2019-06-15T12:57:08Z</time>
      </trkpt>
      <trkpt lat="43.356945" lon="-1.794288">
        <ele>3.094</ele>
        <time>2019-06-15T12:57:09Z</time>
      </trkpt>
      <trkpt lat="43.357037" lon="-1.794184">
        <ele>3.053</ele>
        <time>2019-06-15T12:57:10Z</time>
      </trkpt>
      <trkpt lat="43.357126" lon="-1.794077">
        <ele>2.974</ele>
        <time>2019-06-15T12:57:11Z</time>
      </trkpt>
      <trkpt lat="43.357217" lon="-1.793984">
        <ele>3.043</ele>
        <time>2019-06-15T12:57:12Z</time>
      </trkpt>
      <trkpt lat="43.357309" lon="-1.793887">
        <ele>3.077</ele>
        <time>2019-06-15T12:57:13Z</time>
      </trkpt>
      <trkpt lat="43.357402" lon="-1.793783">
        <ele>2.658</ele>
        <time>2019-06-15T12:57:14Z</time>
      </trkpt>
      <trkpt lat="43.357493" lon="-1.793684">
        <ele>2.352</ele>
        <time>2019-06-15T12:57:15Z</time>
      </trkpt>
      <trkpt lat="43.357584" lon="-1.793593">
        <ele>2.017</ele>
        <time>2019-06-15T12:57:16Z</time>
      </trkpt>
      <trkpt lat="43.357669" lon="-1.793501">
        <ele>1.808</ele>
        <time>2019-06-15T12:57:17Z</time>
      </trkpt>
      <trkpt lat="43.357758" lon="-1.793420">
        <ele>2.068</ele>
        <time>2019-06-15T12:57:18Z</time>
      </trkpt>
      <trkpt lat="43.357848" lon="-1.793330">
        <ele>2.092</ele>
        <time>2019-06-15T12:57:19Z</time>
      </trkpt>
      <trkpt lat="43.357938" lon="-1.793231">
        <ele>1.841</ele>
        <time>2019-06-15T12:57:20Z</time>
      </trkpt>
      <trkpt lat="43.358028" lon="-1.793129">
        <ele>1.920</ele>
        <time>2019-06-15T12:57:21Z</time>
      </trkpt>
      <trkpt lat="43.358117" lon="-1.793046">
        <ele>2.089</ele>
        <time>2019-06-15T12:57:22Z</time>
      </trkpt>
      <trkpt lat="43.358206" lon="-1.792947">
        <ele>1.810</ele>
        <time>2019-06-15T12:57:23Z</time>
      </trkpt>
      <trkpt lat="43.358294" lon="-1.792854">
        <ele>1.919</ele>
        <time>2019-06-15T12:57:24Z</time>
      </trkpt>
      <trkpt lat="43.358381" lon="-1.792765">
        <ele>2.053</ele>
        <time>2019-06-15T12:57:25Z</time>
      </trkpt>
      <trkpt lat="43.358464" lon="-1.792677">
        <ele>1.812</ele>
        <time>2019-06-15T12:57:26Z</time>
      </trkpt>
      <trkpt lat="43.358531" lon="-1.792592">
        <ele>1.832</ele>
        <time>2019-06-15T12:57:27Z</time>
      </trkpt>
      <trkpt lat="43.358599" lon="-1.792519">
        <ele>2.005</ele>
        <time>2019-06-15T12:57:28Z</time>
      </trkpt>
      <trkpt lat="43.358669" lon="-1.792445">
        <ele>1.808</ele>
        <time>2019-06-15T12:57:29Z</time>
      </trkpt>
      <trkpt lat="43.358742" lon="-1.792377">
        <ele>1.814</ele>
        <time>2019-06-15T12:57:30Z</time>
      </trkpt>
      <trkpt lat="43.358819" lon="-1.792299">
        <ele>1.868</ele>
        <time>2019-06-15T12:57:31Z</time>
      </trkpt>
      <trkpt lat="43.358898" lon="-1.792227">
        <ele>2.097</ele>
        <time>2019-06-15T12:57:32Z</time>
      </trkpt>
      <trkpt lat="43.358971" lon="-1.792158">
        <ele>2.116</ele>
        <time>2019-06-15T12:57:33Z</time>
      </trkpt>
      <trkpt lat="43.359040" lon="-1.792090">
        <ele>2.325</ele>
        <time>2019-06-15T12:57:34Z</time>
      </trkpt>
      <trkpt lat="43.359103" lon="-1.792026">
        <ele>2.666</ele>
        <time>2019-06-15T12:57:35Z</time>
      </trkpt>
      <trkpt lat="43.359166" lon="-1.791964">
        <ele>3.055</ele>
        <time>2019-06-15T12:57:36Z</time>
      </trkpt>
      <trkpt lat="43.359224" lon="-1.791895">
        <ele>3.179</ele>
        <time>2019-06-15T12:57:37Z</time>
      </trkpt>
      <trkpt lat="43.359277" lon="-1.791816">
        <ele>3.176</ele>
        <time>2019-06-15T12:57:38Z</time>
      </trkpt>
      <trkpt lat="43.359325" lon="-1.791744">
        <ele>3.390</ele>
        <time>2019-06-15T12:57:39Z</time>
      </trkpt>
      <trkpt lat="43.359383" lon="-1.791689">
        <ele>3.619</ele>
        <time>2019-06-15T12:57:40Z</time>
      </trkpt>
      <trkpt lat="43.359449" lon="-1.791672">
        <ele>4.008</ele>
        <time>2019-06-15T12:57:41Z</time>
      </trkpt>
      <trkpt lat="43.359518" lon="-1.791683">
        <ele>4.020</ele>
        <time>2019-06-15T12:57:42Z</time>
      </trkpt>
      <trkpt lat="43.359568" lon="-1.791727">
        <ele>4.094</ele>
        <time>2019-06-15T12:57:43Z</time>
      </trkpt>
      <trkpt lat="43.359617" lon="-1.791801">
        <ele>4.053</ele>
        <time>2019-06-15T12:57:44Z</time>
      </trkpt>
      <trkpt lat="43.359649" lon="-1.791893">
        <ele>4.072</ele>
        <time>2019-06-15T12:57:45Z</time>
      </trkpt>
      <trkpt lat="43.359670" lon="-1.792001">
        <ele>3.811</ele>
        <time>2019-06-15T12:57:46Z</time>
      </trkpt>
      <trkpt lat="43.359669" lon="-1.792130">
        <ele>3.362</ele>
        <time>2019-06-15T12:57:47Z</time>
      </trkpt>
      <trkpt lat="43.359656" lon="-1.792275">
        <ele>3.081</ele>
        <time>2019-06-15T12:57:48Z</time>
      </trkpt>
      <trkpt lat="43.359659" lon="-1.792432">
        <ele>2.885</ele>
        <time>2019-06-15T12:57:49Z</time>
      </trkpt>
      <trkpt lat="43.359679" lon="-1.792604">
        <ele>2.825</ele>
        <time>2019-06-15T12:57:50Z</time>
      </trkpt>
      <trkpt lat="43.359701" lon="-1.792790">
        <ele>2.826</ele>
        <time>2019-06-15T12:57:51Z</time>
      </trkpt>
      <trkpt lat="43.359734" lon="-1.792969">
        <ele>2.908</ele>
        <time>2019-06-15T12:57:52Z</time>
      </trkpt>
      <trkpt lat="43.359767" lon="-1.793172">
        <ele>2.708</ele>
        <time>2019-06-15T12:57:53Z</time>
      </trkpt>
      <trkpt lat="43.359801" lon="-1.793361">
        <ele>2.495</ele>
        <time>2019-06-15T12:57:54Z</time>
      </trkpt>
      <trkpt lat="43.359829" lon="-1.793536">
        <ele>2.129</ele>
        <time>2019-06-15T12:57:55Z</time>
      </trkpt>
      <trkpt lat="43.359861" lon="-1.793707">
        <ele>2.088</ele>
        <time>2019-06-15T12:57:56Z</time>
      </trkpt>
      <trkpt lat="43.359904" lon="-1.793879">
        <ele>2.017</ele>
        <time>2019-06-15T12:57:57Z</time>
      </trkpt>
      <trkpt lat="43.359950" lon="-1.794028">
        <ele>2.396</ele>
        <time>2019-06-15T12:57:58Z</time>
      </trkpt>
      <trkpt lat="43.360000" lon="-1.794171">
        <ele>3.087</ele>
        <time>2019-06-15T12:57:59Z</time>
      </trkpt>
      <trkpt lat="43.360043" lon="-1.794306">
        <ele>2.856</ele>
        <time>2019-06-15T12:58:00Z</time>
      </trkpt>
      <trkpt lat="43.360099" lon="-1.794425">
        <ele>2.640</ele>
        <time>2019-06-15T12:58:01Z</time>
      </trkpt>
      <trkpt lat="43.360154" lon="-1.794548">
        <ele>2.336</ele>
        <time>2019-06-15T12:58:02Z</time>
      </trkpt>
      <trkpt lat="43.360207" lon="-1.794651">
        <ele>2.417</ele>
        <time>2019-06-15T12:58:03Z</time>
      </trkpt>
      <trkpt lat="43.360278" lon="-1.794744">
        <ele>3.018</ele>
        <time>2019-06-15T12:58:04Z</time>
      </trkpt>
      <trkpt lat="43.360352" lon="-1.794821">
        <ele>2.808</ele>
        <time>2019-06-15T12:58:05Z</time>
      </trkpt>
      <trkpt lat="43.360434" lon="-1.794888">
        <ele>2.826</ele>
        <time>2019-06-15T12:58:06Z</time>
      </trkpt>
      <trkpt lat="43.360526" lon="-1.794934">
        <ele>2.830</ele>
        <time>2019-06-15T12:58:07Z</time>
      </trkpt>
      <trkpt lat="43.360598" lon="-1.794956">
        <ele>2.989</ele>
        <time>2019-06-15T12:58:08Z</time>
      </trkpt>
      <trkpt lat="43.360667" lon="-1.794964">
        <ele>2.958</ele>
        <time>2019-06-15T12:58:09Z</time>
      </trkpt>
      <trkpt lat="43.360731" lon="-1.794961">
        <ele>2.957</ele>
        <time>2019-06-15T12:58:10Z</time>
      </trkpt>
      <trkpt lat="43.360787" lon="-1.794938">
        <ele>3.078</ele>
        <time>2019-06-15T12:58:11Z</time>
      </trkpt>
      <trkpt lat="43.360834" lon="-1.794888">
        <ele>3.037</ele>
        <time>2019-06-15T12:58:12Z</time>
      </trkpt>
      <trkpt lat="43.360875" lon="-1.794813">
        <ele>3.171</ele>
        <time>2019-06-15T12:58:13Z</time>
      </trkpt>
      <trkpt lat="43.360908" lon="-1.794726">
        <ele>3.351</ele>
        <time>2019-06-15T12:58:14Z</time>
      </trkpt>
      <trkpt lat="43.360959" lon="-1.794651">
        <ele>3.301</ele>
        <time>2019-06-15T12:58:15Z</time>
      </trkpt>
      <trkpt lat="43.361015" lon="-1.794597">
        <ele>3.411</ele>
        <time>2019-06-15T12:58:16Z</time>
      </trkpt>
      <trkpt lat="43.361088" lon="-1.794580">
        <ele>3.408</ele>
        <time>2019-06-15T12:58:17Z</time>
      </trkpt>
      <trkpt lat="43.361155" lon="-1.794581">
        <ele>3.558</ele>
        <time>2019-06-15T12:58:18Z</time>
      </trkpt>
      <trkpt lat="43.361204" lon="-1.794613">
        <ele>3.692</ele>
        <time>2019-06-15T12:58:19Z</time>
      </trkpt>
      <trkpt lat="43.361258" lon="-1.794675">
        <ele>3.871</ele>
        <time>2019-06-15T12:58:20Z</time>
      </trkpt>
      <trkpt lat="43.361300" lon="-1.794752">
        <ele>4.090</ele>
        <time>2019-06-15T12:58:21Z</time>
      </trkpt>
      <trkpt lat="43.361316" lon="-1.794852">
        <ele>4.039</ele>
        <time>2019-06-15T12:58:22Z</time>
      </trkpt>
      <trkpt lat="43.361312" lon="-1.794939">
        <ele>4.050</ele>
        <time>2019-06-15T12:58:23Z</time>
      </trkpt>
      <trkpt lat="43.361293" lon="-1.795033">
        <ele>4.019</ele>
        <time>2019-06-15T12:58:24Z</time>
      </trkpt>
      <trkpt lat="43.361272" lon="-1.795126">
        <ele>4.053</ele>
        <time>2019-06-15T12:58:25Z</time>
      </trkpt>
      <trkpt lat="43.361251" lon="-1.795212">
        <ele>4.057</ele>
        <time>2019-06-15T12:58:26Z</time>
      </trkpt>
      <trkpt lat="43.361249" lon="-1.795307">
        <ele>3.900</ele>
        <time>2019-06-15T12:58:27Z</time>
      </trkpt>
      <trkpt lat="43.361297" lon="-1.795443">
        <ele>3.820</ele>
        <time>2019-06-15T12:58:28Z</time>
      </trkpt>
      <trkpt lat="43.361362" lon="-1.795589">
        <ele>4.008</ele>
        <time>2019-06-15T12:58:29Z</time>
      </trkpt>
      <trkpt lat="43.361420" lon="-1.795739">
        <ele>4.728</ele>
        <time>2019-06-15T12:58:30Z</time>
      </trkpt>
      <trkpt lat="43.361479" lon="-1.795898">
        <ele>4.882</ele>
        <time>2019-06-15T12:58:31Z</time>
      </trkpt>
      <trkpt lat="43.361540" lon="-1.796079">
        <ele>4.691</ele>
        <time>2019-06-15T12:58:32Z</time>
      </trkpt>
      <trkpt lat="43.361612" lon="-1.796264">
        <ele>4.960</ele>
        <time>2019-06-15T12:58:33Z</time>
      </trkpt>
      <trkpt lat="43.361682" lon="-1.796451">
        <ele>4.869</ele>
        <time>2019-06-15T12:58:34Z</time>
      </trkpt>
      <trkpt lat="43.361753" lon="-1.796650">
        <ele>4.780</ele>
        <time>2019-06-15T12:58:35Z</time>
      </trkpt>
      <trkpt lat="43.361830" lon="-1.796846">
        <ele>5.269</ele>
        <time>2019-06-15T12:58:36Z</time>
      </trkpt>
      <trkpt lat="43.361903" lon="-1.797044">
        <ele>5.553</ele>
        <time>2019-06-15T12:58:37Z</time>
      </trkpt>
      <trkpt lat="43.361983" lon="-1.797235">
        <ele>5.269</ele>
        <time>2019-06-15T12:58:38Z</time>
      </trkpt>
      <trkpt lat="43.362061" lon="-1.797427">
        <ele>5.404</ele>
        <time>2019-06-15T12:58:39Z</time>
      </trkpt>
      <trkpt lat="43.362142" lon="-1.797621">
        <ele>6.024</ele>
        <time>2019-06-15T12:58:40Z</time>
      </trkpt>
      <trkpt lat="43.362220" lon="-1.797817">
        <ele>5.908</ele>
        <time>2019-06-15T12:58:41Z</time>
      </trkpt>
      <trkpt lat="43.362291" lon="-1.798003">
        <ele>5.639</ele>
        <time>2019-06-15T12:58:42Z</time>
      </trkpt>
      <trkpt lat="43.362359" lon="-1.798176">
        <ele>5.853</ele>
        <time>2019-06-15T12:58:43Z</time>
      </trkpt>
      <trkpt lat="43.362429" lon="-1.798350">
        <ele>6.242</ele>
        <time>2019-06-15T12:58:44Z</time>
      </trkpt>
      <trkpt lat="43.362495" lon="-1.798516">
        <ele>6.311</ele>
        <time>2019-06-15T12:58:45Z</time>
      </trkpt>
      <trkpt lat="43.362556" lon="-1.798672">
        <ele>6.020</ele>
        <time>2019-06-15T12:58:46Z</time>
      </trkpt>
      <trkpt lat="43.362611" lon="-1.798820">
        <ele>5.981</ele>
        <time>2019-06-15T12:58:47Z</time>
      </trkpt>
      <trkpt lat="43.362666" lon="-1.798945">
        <ele>6.230</ele>
        <time>2019-06-15T12:58:48Z</time>
      </trkpt>
      <trkpt lat="43.362726" lon="-1.799067">
        <ele>6.634</ele>
        <time>2019-06-15T12:58:49Z</time>
      </trkpt>
      <trkpt lat="43.362791" lon="-1.799175">
        <ele>7.036</ele>
        <time>2019-06-15T12:58:50Z</time>
      </trkpt>
      <trkpt lat="43.362864" lon="-1.799263">
        <ele>6.817</ele>
        <time>2019-06-15T12:58:51Z</time>
      </trkpt>
      <trkpt lat="43.362938" lon="-1.799346">
        <ele>6.718</ele>
        <time>2019-06-15T12:58:52Z</time>
      </trkpt>
      <trkpt lat="43.363006" lon="-1.799435">
        <ele>6.808</ele>
        <time>2019-06-15T12:58:53Z</time>
      </trkpt>
      <trkpt lat="43.363066" lon="-1.799538">
        <ele>6.656</ele>
        <time>2019-06-15T12:58:54Z</time>
      </trkpt>
      <trkpt lat="43.363084" lon="-1.799665">
        <ele>5.920</ele>
        <time>2019-06-15T12:58:55Z</time>
      </trkpt>
      <trkpt lat="43.363098" lon="-1.799784">
        <ele>5.569</ele>
        <time>2019-06-15T12:58:56Z</time>
      </trkpt>
      <trkpt lat="43.363118" lon="-1.799913">
        <ele>5.398</ele>
        <time>2019-06-15T12:58:57Z</time>
      </trkpt>
      <trkpt lat="43.363160" lon="-1.800057">
        <ele>5.177</ele>
        <time>2019-06-15T12:58:58Z</time>
      </trkpt>
      <trkpt lat="43.363228" lon="-1.800202">
        <ele>4.988</ele>
        <time>2019-06-15T12:58:59Z</time>
      </trkpt>
      <trkpt lat="43.363303" lon="-1.800356">
        <ele>4.957</ele>
        <time>2019-06-15T12:59:00Z</time>
      </trkpt>
      <trkpt lat="43.363390" lon="-1.800522">
        <ele>5.431</ele>
        <time>2019-06-15T12:59:01Z</time>
      </trkpt>
      <trkpt lat="43.363496" lon="-1.800700">
        <ele>5.723</ele>
        <time>2019-06-15T12:59:02Z</time>
      </trkpt>
      <trkpt lat="43.363610" lon="-1.800852">
        <ele>6.083</ele>
        <time>2019-06-15T12:59:03Z</time>
      </trkpt>
      <trkpt lat="43.363727" lon="-1.801010">
        <ele>5.811</ele>
        <time>2019-06-15T12:59:04Z</time>
      </trkpt>
      <trkpt lat="43.363850" lon="-1.801157">
        <ele>6.308</ele>
        <time>2019-06-15T12:59:05Z</time>
      </trkpt>
      <trkpt lat="43.363989" lon="-1.801300">
        <ele>7.455</ele>
        <time>2019-06-15T12:59:06Z</time>
      </trkpt>
      <trkpt lat="43.364130" lon="-1.801418">
        <ele>8.299</ele>
        <time>2019-06-15T12:59:07Z</time>
      </trkpt>
      <trkpt lat="43.364272" lon="-1.801535">
        <ele>8.988</ele>
        <time>2019-06-15T12:59:08Z</time>
      </trkpt>
      <trkpt lat="43.364428" lon="-1.801640">
        <ele>9.717</ele>
        <time>2019-06-15T12:59:09Z</time>
      </trkpt>
      <trkpt lat="43.364591" lon="-1.801741">
        <ele>10.176</ele>
        <time>2019-06-15T12:59:10Z</time>
      </trkpt>
      <trkpt lat="43.364754" lon="-1.801828">
        <ele>10.997</ele>
        <time>2019-06-15T12:59:11Z</time>
      </trkpt>
      <trkpt lat="43.364906" lon="-1.801887">
        <ele>12.086</ele>
        <time>2019-06-15T12:59:12Z</time>
      </trkpt>
      <trkpt lat="43.365069" lon="-1.801930">
        <ele>13.110</ele>
        <time>2019-06-15T12:59:13Z</time>
      </trkpt>
      <trkpt lat="43.365220" lon="-1.801965">
        <ele>13.752</ele>
        <time>2019-06-15T12:59:14Z</time>
      </trkpt>
      <trkpt lat="43.365362" lon="-1.801987">
        <ele>14.053</ele>
        <time>2019-06-15T12:59:15Z</time>
      </trkpt>
      <trkpt lat="43.365492" lon="-1.801988">
        <ele>14.608</ele>
        <time>2019-06-15T12:59:16Z</time>
      </trkpt>
      <trkpt lat="43.365611" lon="-1.801987">
        <ele>15.008</ele>
        <time>2019-06-15T12:59:17Z</time>
      </trkpt>
      <trkpt lat="43.365712" lon="-1.801968">
        <ele>15.598</ele>
        <time>2019-06-15T12:59:18Z</time>
      </trkpt>
      <trkpt lat="43.365801" lon="-1.801941">
        <ele>15.952</ele>
        <time>2019-06-15T12:59:19Z</time>
      </trkpt>
      <trkpt lat="43.365888" lon="-1.801901">
        <ele>16.541</ele>
        <time>2019-06-15T12:59:20Z</time>
      </trkpt>
      <trkpt lat="43.365960" lon="-1.801853">
        <ele>17.050</ele>
        <time>2019-06-15T12:59:21Z</time>
      </trkpt>
      <trkpt lat="43.366027" lon="-1.801792">
        <ele>17.459</ele>
        <time>2019-06-15T12:59:22Z</time>
      </trkpt>
      <trkpt lat="43.366082" lon="-1.801735">
        <ele>17.720</ele>
        <time>2019-06-15T12:59:23Z</time>
      </trkpt>
      <trkpt lat="43.366149" lon="-1.801695">
        <ele>17.949</ele>
        <time>2019-06-15T12:59:24Z</time>
      </trkpt>
      <trkpt lat="43.366209" lon="-1.801681">
        <ele>17.963</ele>
        <time>2019-06-15T12:59:25Z</time>
      </trkpt>
      <trkpt lat="43.366303" lon="-1.801730">
        <ele>17.896</ele>
        <time>2019-06-15T12:59:27Z</time>
      </trkpt>
      <trkpt lat="43.366332" lon="-1.801819">
        <ele>17.531</ele>
        <time>2019-06-15T12:59:28Z</time>
      </trkpt>
      <trkpt lat="43.366340" lon="-1.801901">
        <ele>17.224</ele>
        <time>2019-06-15T12:59:29Z</time>
      </trkpt>
      <trkpt lat="43.366325" lon="-1.801981">
        <ele>16.908</ele>
        <time>2019-06-15T12:59:30Z</time>
      </trkpt>
      <trkpt lat="43.366300" lon="-1.802084">
        <ele>16.532</ele>
        <time>2019-06-15T12:59:31Z</time>
      </trkpt>
      <trkpt lat="43.366287" lon="-1.802212">
        <ele>15.946</ele>
        <time>2019-06-15T12:59:32Z</time>
      </trkpt>
      <trkpt lat="43.366275" lon="-1.802346">
        <ele>15.525</ele>
        <time>2019-06-15T12:59:33Z</time>
      </trkpt>
      <trkpt lat="43.366278" lon="-1.802493">
        <ele>15.274</ele>
        <time>2019-06-15T12:59:34Z</time>
      </trkpt>
      <trkpt lat="43.366298" lon="-1.802669">
        <ele>14.953</ele>
        <time>2019-06-15T12:59:35Z</time>
      </trkpt>
      <trkpt lat="43.366341" lon="-1.802853">
        <ele>14.884</ele>
        <time>2019-06-15T12:59:36Z</time>
      </trkpt>
      <trkpt lat="43.366374" lon="-1.803043">
        <ele>14.963</ele>
        <time>2019-06-15T12:59:37Z</time>
      </trkpt>
      <trkpt lat="43.366396" lon="-1.803220">
        <ele>15.087</ele>
        <time>2019-06-15T12:59:38Z</time>
      </trkpt>
      <trkpt lat="43.366414" lon="-1.803407">
        <ele>15.577</ele>
        <time>2019-06-15T12:59:39Z</time>
      </trkpt>
      <trkpt lat="43.366445" lon="-1.803600">
        <ele>16.961</ele>
        <time>2019-06-15T12:59:40Z</time>
      </trkpt>
      <trkpt lat="43.366475" lon="-1.803783">
        <ele>18.027</ele>
        <time>2019-06-15T12:59:41Z</time>
      </trkpt>
      <trkpt lat="43.366500" lon="-1.803958">
        <ele>19.108</ele>
        <time>2019-06-15T12:59:42Z</time>
      </trkpt>
      <trkpt lat="43.366513" lon="-1.804118">
        <ele>20.140</ele>
        <time>2019-06-15T12:59:43Z</time>
      </trkpt>
      <trkpt lat="43.366541" lon="-1.804278">
        <ele>21.224</ele>
        <time>2019-06-15T12:59:44Z</time>
      </trkpt>
      <trkpt lat="43.366563" lon="-1.804443">
        <ele>22.293</ele>
        <time>2019-06-15T12:59:45Z</time>
      </trkpt>
      <trkpt lat="43.366569" lon="-1.804628">
        <ele>23.242</ele>
        <time>2019-06-15T12:59:46Z</time>
      </trkpt>
      <trkpt lat="43.366566" lon="-1.804808">
        <ele>24.151</ele>
        <time>2019-06-15T12:59:47Z</time>
      </trkpt>
      <trkpt lat="43.366559" lon="-1.804988">
        <ele>25.052</ele>
        <time>2019-06-15T12:59:48Z</time>
      </trkpt>
      <trkpt lat="43.366546" lon="-1.805155">
        <ele>25.461</ele>
        <time>2019-06-15T12:59:49Z</time>
      </trkpt>
      <trkpt lat="43.366543" lon="-1.805310">
        <ele>26.015</ele>
        <time>2019-06-15T12:59:50Z</time>
      </trkpt>
      <trkpt lat="43.366554" lon="-1.805476">
        <ele>27.571</ele>
        <time>2019-06-15T12:59:51Z</time>
      </trkpt>
      <trkpt lat="43.366581" lon="-1.805636">
        <ele>28.741</ele>
        <time>2019-06-15T12:59:52Z</time>
      </trkpt>
      <trkpt lat="43.366623" lon="-1.805812">
        <ele>29.315</ele>
        <time>2019-06-15T12:59:53Z</time>
      </trkpt>
      <trkpt lat="43.366670" lon="-1.805972">
        <ele>29.608</ele>
        <time>2019-06-15T12:59:54Z</time>
      </trkpt>
      <trkpt lat="43.366705" lon="-1.806138">
        <ele>29.830</ele>
        <time>2019-06-15T12:59:55Z</time>
      </trkpt>
      <trkpt lat="43.366738" lon="-1.806315">
        <ele>31.024</ele>
        <time>2019-06-15T12:59:56Z</time>
      </trkpt>
      <trkpt lat="43.366724" lon="-1.806485">
        <ele>32.293</ele>
        <time>2019-06-15T12:59:57Z</time>
      </trkpt>
      <trkpt lat="43.366715" lon="-1.806669">
        <ele>34.052</ele>
        <time>2019-06-15T12:59:58Z</time>
      </trkpt>
      <trkpt lat="43.366706" lon="-1.806856">
        <ele>35.611</ele>
        <time>2019-06-15T12:59:59Z</time>
      </trkpt>
      <trkpt lat="43.366695" lon="-1.807024">
        <ele>36.582</ele>
        <time>2019-06-15T13:00:00Z</time>
      </trkpt>
      <trkpt lat="43.366677" lon="-1.807177">
        <ele>36.931</ele>
        <time>2019-06-15T13:00:01Z</time>
      </trkpt>
      <trkpt lat="43.366670" lon="-1.807327">
        <ele>37.445</ele>
        <time>2019-06-15T13:00:02Z</time>
      </trkpt>
      <trkpt lat="43.366660" lon="-1.807468">
        <ele>37.782</ele>
        <time>2019-06-15T13:00:03Z</time>
      </trkpt>
      <trkpt lat="43.366645" lon="-1.807604">
        <ele>37.643</ele>
        <time>2019-06-15T13:00:04Z</time>
      </trkpt>
      <trkpt lat="43.366664" lon="-1.807744">
        <ele>38.017</ele>
        <time>2019-06-15T13:00:05Z</time>
      </trkpt>
      <trkpt lat="43.366676" lon="-1.807883">
        <ele>37.908</ele>
        <time>2019-06-15T13:00:06Z</time>
      </trkpt>
      <trkpt lat="43.366730" lon="-1.808040">
        <ele>38.941</ele>
        <time>2019-06-15T13:00:07Z</time>
      </trkpt>
      <trkpt lat="43.366783" lon="-1.808185">
        <ele>40.295</ele>
        <time>2019-06-15T13:00:08Z</time>
      </trkpt>
      <trkpt lat="43.366825" lon="-1.808305">
        <ele>40.964</ele>
        <time>2019-06-15T13:00:09Z</time>
      </trkpt>
      <trkpt lat="43.366865" lon="-1.808413">
        <ele>41.693</ele>
        <time>2019-06-15T13:00:10Z</time>
      </trkpt>
      <trkpt lat="43.366883" lon="-1.808501">
        <ele>41.872</ele>
        <time>2019-06-15T13:00:11Z</time>
      </trkpt>
      <trkpt lat="43.366867" lon="-1.808584">
        <ele>41.713</ele>
        <time>2019-06-15T13:00:12Z</time>
      </trkpt>
      <trkpt lat="43.366829" lon="-1.808646">
        <ele>42.032</ele>
        <time>2019-06-15T13:00:13Z</time>
      </trkpt>
      <trkpt lat="43.366740" lon="-1.808674">
        <ele>42.476</ele>
        <time>2019-06-15T13:00:14Z</time>
      </trkpt>
      <trkpt lat="43.366648" lon="-1.808673">
        <ele>42.593</ele>
        <time>2019-06-15T13:00:15Z</time>
      </trkpt>
      <trkpt lat="43.366562" lon="-1.808641">
        <ele>42.865</ele>
        <time>2019-06-15T13:00:16Z</time>
      </trkpt>
      <trkpt lat="43.366472" lon="-1.808593">
        <ele>42.921</ele>
        <time>2019-06-15T13:00:17Z</time>
      </trkpt>
      <trkpt lat="43.366392" lon="-1.808516">
        <ele>42.608</ele>
        <time>2019-06-15T13:00:18Z</time>
      </trkpt>
      <trkpt lat="43.366297" lon="-1.808427">
        <ele>42.852</ele>
        <time>2019-06-15T13:00:19Z</time>
      </trkpt>
      <trkpt lat="43.366198" lon="-1.808330">
        <ele>42.716</ele>
        <time>2019-06-15T13:00:20Z</time>
      </trkpt>
      <trkpt lat="43.366098" lon="-1.808233">
        <ele>42.715</ele>
        <time>2019-06-15T13:00:21Z</time>
      </trkpt>
      <trkpt lat="43.366012" lon="-1.808123">
        <ele>42.024</ele>
        <time>2019-06-15T13:00:22Z</time>
      </trkpt>
      <trkpt lat="43.365922" lon="-1.808006">
        <ele>41.763</ele>
        <time>2019-06-15T13:00:23Z</time>
      </trkpt>
      <trkpt lat="43.365852" lon="-1.807901">
        <ele>42.144</ele>
        <time>2019-06-15T13:00:24Z</time>
      </trkpt>
      <trkpt lat="43.365792" lon="-1.807805">
        <ele>42.963</ele>
        <time>2019-06-15T13:00:25Z</time>
      </trkpt>
      <trkpt lat="43.365750" lon="-1.807707">
        <ele>42.977</ele>
        <time>2019-06-15T13:00:26Z</time>
      </trkpt>
      <trkpt lat="43.365698" lon="-1.807597">
        <ele>42.873</ele>
        <time>2019-06-15T13:00:27Z</time>
      </trkpt>
      <trkpt lat="43.365645" lon="-1.807474">
        <ele>42.785</ele>
        <time>2019-06-15T13:00:28Z</time>
      </trkpt>
      <trkpt lat="43.365588" lon="-1.807341">
        <ele>43.513</ele>
        <time>2019-06-15T13:00:29Z</time>
      </trkpt>
      <trkpt lat="43.365535" lon="-1.807226">
        <ele>44.208</ele>
        <time>2019-06-15T13:00:30Z</time>
      </trkpt>
      <trkpt lat="43.365484" lon="-1.807108">
        <ele>44.560</ele>
        <time>2019-06-15T13:00:31Z</time>
      </trkpt>
      <trkpt lat="43.365424" lon="-1.806990">
        <ele>45.024</ele>
        <time>2019-06-15T13:00:32Z</time>
      </trkpt>
      <trkpt lat="43.365366" lon="-1.806897">
        <ele>45.323</ele>
        <time>2019-06-15T13:00:33Z</time>
      </trkpt>
      <trkpt lat="43.365252" lon="-1.806864">
        <ele>46.432</ele>
        <time>2019-06-15T13:00:34Z</time>
      </trkpt>
      <trkpt lat="43.365143" lon="-1.806838">
        <ele>46.911</ele>
        <time>2019-06-15T13:00:35Z</time>
      </trkpt>
      <trkpt lat="43.365045" lon="-1.806853">
        <ele>48.072</ele>
        <time>2019-06-15T13:00:36Z</time>
      </trkpt>
      <trkpt lat="43.364934" lon="-1.806865">
        <ele>48.941</ele>
        <time>2019-06-15T13:00:37Z</time>
      </trkpt>
      <trkpt lat="43.364827" lon="-1.806892">
        <ele>49.925</ele>
        <time>2019-06-15T13:00:38Z</time>
      </trkpt>
      <trkpt lat="43.364725" lon="-1.806928">
        <ele>50.815</ele>
        <time>2019-06-15T13:00:39Z</time>
      </trkpt>
      <trkpt lat="43.364632" lon="-1.806987">
        <ele>51.665</ele>
        <time>2019-06-15T13:00:40Z</time>
      </trkpt>
      <trkpt lat="43.364560" lon="-1.807064">
        <ele>52.211</ele>
        <time>2019-06-15T13:00:41Z</time>
      </trkpt>
      <trkpt lat="43.364506" lon="-1.807150">
        <ele>52.708</ele>
        <time>2019-06-15T13:00:42Z</time>
      </trkpt>
      <trkpt lat="43.364465" lon="-1.807240">
        <ele>53.024</ele>
        <time>2019-06-15T13:00:43Z</time>
      </trkpt>
      <trkpt lat="43.364465" lon="-1.807342">
        <ele>53.088</ele>
        <time>2019-06-15T13:00:44Z</time>
      </trkpt>
      <trkpt lat="43.364488" lon="-1.807474">
        <ele>53.027</ele>
        <time>2019-06-15T13:00:45Z</time>
      </trkpt>
      <trkpt lat="43.364536" lon="-1.807603">
        <ele>52.956</ele>
        <time>2019-06-15T13:00:46Z</time>
      </trkpt>
      <trkpt lat="43.364590" lon="-1.807749">
        <ele>53.055</ele>
        <time>2019-06-15T13:00:47Z</time>
      </trkpt>
      <trkpt lat="43.364642" lon="-1.807896">
        <ele>53.316</ele>
        <time>2019-06-15T13:00:48Z</time>
      </trkpt>
      <trkpt lat="43.364697" lon="-1.808049">
        <ele>53.725</ele>
        <time>2019-06-15T13:00:49Z</time>
      </trkpt>
      <trkpt lat="43.364751" lon="-1.808211">
        <ele>54.789</ele>
        <time>2019-06-15T13:00:50Z</time>
      </trkpt>
      <trkpt lat="43.364806" lon="-1.808364">
        <ele>55.777</ele>
        <time>2019-06-15T13:00:51Z</time>
      </trkpt>
      <trkpt lat="43.364848" lon="-1.808514">
        <ele>56.661</ele>
        <time>2019-06-15T13:00:52Z</time>
      </trkpt>
      <trkpt lat="43.364888" lon="-1.808653">
        <ele>57.427</ele>
        <time>2019-06-15T13:00:53Z</time>
      </trkpt>
      <trkpt lat="43.364923" lon="-1.808777">
        <ele>58.208</ele>
        <time>2019-06-15T13:00:54Z</time>
      </trkpt>
      <trkpt lat="43.364962" lon="-1.808887">
        <ele>58.970</ele>
        <time>2019-06-15T13:00:55Z</time>
      </trkpt>
      <trkpt lat="43.365019" lon="-1.808972">
        <ele>59.354</ele>
        <time>2019-06-15T13:00:56Z</time>
      </trkpt>
      <trkpt lat="43.365109" lon="-1.809038">
        <ele>59.773</ele>
        <time>2019-06-15T13:00:57Z</time>
      </trkpt>
      <trkpt lat="43.365200" lon="-1.809111">
        <ele>60.422</ele>
        <time>2019-06-15T13:00:58Z</time>
      </trkpt>
      <trkpt lat="43.365291" lon="-1.809182">
        <ele>61.251</ele>
        <time>2019-06-15T13:00:59Z</time>
      </trkpt>
      <trkpt lat="43.365395" lon="-1.809229">
        <ele>62.062</ele>
        <time>2019-06-15T13:01:00Z</time>
      </trkpt>
      <trkpt lat="43.365506" lon="-1.809266">
        <ele>62.841</ele>
        <time>2019-06-15T13:01:01Z</time>
      </trkpt>
      <trkpt lat="43.365618" lon="-1.809307">
        <ele>63.765</ele>
        <time>2019-06-15T13:01:02Z</time>
      </trkpt>
      <trkpt lat="43.365744" lon="-1.809355">
        <ele>65.072</ele>
        <time>2019-06-15T13:01:03Z</time>
      </trkpt>
      <trkpt lat="43.365857" lon="-1.809418">
        <ele>66.513</ele>
        <time>2019-06-15T13:01:04Z</time>
      </trkpt>
      <trkpt lat="43.365986" lon="-1.809493">
        <ele>67.514</ele>
        <time>2019-06-15T13:01:05Z</time>
      </trkpt>
      <trkpt lat="43.366105" lon="-1.809566">
        <ele>68.708</ele>
        <time>2019-06-15T13:01:06Z</time>
      </trkpt>
      <trkpt lat="43.366228" lon="-1.809654">
        <ele>69.970</ele>
        <time>2019-06-15T13:01:07Z</time>
      </trkpt>
      <trkpt lat="43.366360" lon="-1.809745">
        <ele>71.484</ele>
        <time>2019-06-15T13:01:08Z</time>
      </trkpt>
      <trkpt lat="43.366488" lon="-1.809829">
        <ele>72.573</ele>
        <time>2019-06-15T13:01:09Z</time>
      </trkpt>
      <trkpt lat="43.366607" lon="-1.809909">
        <ele>73.852</ele>
        <time>2019-06-15T13:01:10Z</time>
      </trkpt>
      <trkpt lat="43.366725" lon="-1.809979">
        <ele>74.851</ele>
        <time>2019-06-15T13:01:11Z</time>
      </trkpt>
      <trkpt lat="43.366828" lon="-1.810051">
        <ele>75.312</ele>
        <time>2019-06-15T13:01:12Z</time>
      </trkpt>
      <trkpt lat="43.366937" lon="-1.810143">
        <ele>76.611</ele>
        <time>2019-06-15T13:01:13Z</time>
      </trkpt>
      <trkpt lat="43.367035" lon="-1.810243">
        <ele>76.765</ele>
        <time>2019-06-15T13:01:14Z</time>
      </trkpt>
      <trkpt lat="43.367126" lon="-1.810377">
        <ele>77.798</ele>
        <time>2019-06-15T13:01:15Z</time>
      </trkpt>
      <trkpt lat="43.367206" lon="-1.810491">
        <ele>78.715</ele>
        <time>2019-06-15T13:01:16Z</time>
      </trkpt>
      <trkpt lat="43.367286" lon="-1.810588">
        <ele>80.426</ele>
        <time>2019-06-15T13:01:17Z</time>
      </trkpt>
      <trkpt lat="43.367355" lon="-1.810650">
        <ele>81.608</ele>
        <time>2019-06-15T13:01:18Z</time>
      </trkpt>
      <trkpt lat="43.367436" lon="-1.810681">
        <ele>81.722</ele>
        <time>2019-06-15T13:01:19Z</time>
      </trkpt>
      <trkpt lat="43.367519" lon="-1.810671">
        <ele>81.536</ele>
        <time>2019-06-15T13:01:20Z</time>
      </trkpt>
      <trkpt lat="43.367582" lon="-1.810624">
        <ele>82.525</ele>
        <time>2019-06-15T13:01:21Z</time>
      </trkpt>
      <trkpt lat="43.367645" lon="-1.810546">
        <ele>83.014</ele>
        <time>2019-06-15T13:01:22Z</time>
      </trkpt>
      <trkpt lat="43.367689" lon="-1.810430">
        <ele>82.643</ele>
        <time>2019-06-15T13:01:23Z</time>
      </trkpt>
      <trkpt lat="43.367745" lon="-1.810321">
        <ele>83.154</ele>
        <time>2019-06-15T13:01:24Z</time>
      </trkpt>
      <trkpt lat="43.367790" lon="-1.810227">
        <ele>83.893</ele>
        <time>2019-06-15T13:01:25Z</time>
      </trkpt>
      <trkpt lat="43.367851" lon="-1.810157">
        <ele>84.627</ele>
        <time>2019-06-15T13:01:26Z</time>
      </trkpt>
      <trkpt lat="43.367924" lon="-1.810104">
        <ele>85.518</ele>
        <time>2019-06-15T13:01:27Z</time>
      </trkpt>
      <trkpt lat="43.367986" lon="-1.810067">
        <ele>86.298</ele>
        <time>2019-06-15T13:01:28Z</time>
      </trkpt>
      <trkpt lat="43.368049" lon="-1.810025">
        <ele>86.517</ele>
        <time>2019-06-15T13:01:29Z</time>
      </trkpt>
      <trkpt lat="43.368123" lon="-1.810023">
        <ele>86.608</ele>
        <time>2019-06-15T13:01:30Z</time>
      </trkpt>
      <trkpt lat="43.368222" lon="-1.810078">
        <ele>88.064</ele>
        <time>2019-06-15T13:01:31Z</time>
      </trkpt>
      <trkpt lat="43.368326" lon="-1.810121">
        <ele>89.098</ele>
        <time>2019-06-15T13:01:32Z</time>
      </trkpt>
      <trkpt lat="43.368440" lon="-1.810133">
        <ele>89.747</ele>
        <time>2019-06-15T13:01:33Z</time>
      </trkpt>
      <trkpt lat="43.368546" lon="-1.810114">
        <ele>89.626</ele>
        <time>2019-06-15T13:01:34Z</time>
      </trkpt>
      <trkpt lat="43.368676" lon="-1.810086">
        <ele>90.315</ele>
        <time>2019-06-15T13:01:35Z</time>
      </trkpt>
      <trkpt lat="43.368784" lon="-1.810046">
        <ele>91.336</ele>
        <time>2019-06-15T13:01:36Z</time>
      </trkpt>
      <trkpt lat="43.368893" lon="-1.809983">
        <ele>91.785</ele>
        <time>2019-06-15T13:01:37Z</time>
      </trkpt>
      <trkpt lat="43.368995" lon="-1.809921">
        <ele>92.679</ele>
        <time>2019-06-15T13:01:38Z</time>
      </trkpt>
      <trkpt lat="43.369110" lon="-1.809867">
        <ele>93.618</ele>
        <time>2019-06-15T13:01:39Z</time>
      </trkpt>
      <trkpt lat="43.369220" lon="-1.809818">
        <ele>94.298</ele>
        <time>2019-06-15T13:01:40Z</time>
      </trkpt>
      <trkpt lat="43.369327" lon="-1.809765">
        <ele>94.817</ele>
        <time>2019-06-15T13:01:41Z</time>
      </trkpt>
      <trkpt lat="43.369423" lon="-1.809714">
        <ele>95.408</ele>
        <time>2019-06-15T13:01:42Z</time>
      </trkpt>
      <trkpt lat="43.369507" lon="-1.809627">
        <ele>95.154</ele>
        <time>2019-06-15T13:01:43Z</time>
      </trkpt>
      <trkpt lat="43.369570" lon="-1.809569">
        <ele>94.938</ele>
        <time>2019-06-15T13:01:44Z</time>
      </trkpt>
      <trkpt lat="43.369659" lon="-1.809532">
        <ele>95.527</ele>
        <time>2019-06-15T13:01:45Z</time>
      </trkpt>
      <trkpt lat="43.369784" lon="-1.809569">
        <ele>97.186</ele>
        <time>2019-06-15T13:01:46Z</time>
      </trkpt>
      <trkpt lat="43.369861" lon="-1.809608">
        <ele>97.835</ele>
        <time>2019-06-15T13:01:47Z</time>
      </trkpt>
      <trkpt lat="43.369941" lon="-1.809651">
        <ele>98.886</ele>
        <time>2019-06-15T13:01:48Z</time>
      </trkpt>
      <trkpt lat="43.370030" lon="-1.809681">
        <ele>99.795</ele>
        <time>2019-06-15T13:01:49Z</time>
      </trkpt>
      <trkpt lat="43.370106" lon="-1.809701">
        <ele>100.719</ele>
        <time>2019-06-15T13:01:50Z</time>
      </trkpt>
      <trkpt lat="43.370233" lon="-1.809662">
        <ele>100.065</ele>
        <time>2019-06-15T13:01:51Z</time>
      </trkpt>
      <trkpt lat="43.370324" lon="-1.809627">
        <ele>100.068</ele>
        <time>2019-06-15T13:01:52Z</time>
      </trkpt>
      <trkpt lat="43.370405" lon="-1.809586">
        <ele>100.114</ele>
        <time>2019-06-15T13:01:53Z</time>
      </trkpt>
      <trkpt lat="43.370487" lon="-1.809550">
        <ele>100.308</ele>
        <time>2019-06-15T13:01:54Z</time>
      </trkpt>
      <trkpt lat="43.370598" lon="-1.809648">
        <ele>104.149</ele>
        <time>2019-06-15T13:01:55Z</time>
      </trkpt>
      <trkpt lat="43.370698" lon="-1.809720">
        <ele>105.413</ele>
        <time>2019-06-15T13:01:56Z</time>
      </trkpt>
      <trkpt lat="43.370814" lon="-1.809777">
        <ele>106.492</ele>
        <time>2019-06-15T13:01:57Z</time>
      </trkpt>
      <trkpt lat="43.370899" lon="-1.809817">
        <ele>107.751</ele>
        <time>2019-06-15T13:01:58Z</time>
      </trkpt>
      <trkpt lat="43.370994" lon="-1.809857">
        <ele>109.170</ele>
        <time>2019-06-15T13:01:59Z</time>
      </trkpt>
      <trkpt lat="43.371109" lon="-1.809868">
        <ele>109.321</ele>
        <time>2019-06-15T13:02:00Z</time>
      </trkpt>
      <trkpt lat="43.371205" lon="-1.809873">
        <ele>109.930</ele>
        <time>2019-06-15T13:02:01Z</time>
      </trkpt>
      <trkpt lat="43.371309" lon="-1.809875">
        <ele>110.574</ele>
        <time>2019-06-15T13:02:02Z</time>
      </trkpt>
      <trkpt lat="43.371403" lon="-1.809882">
        <ele>111.336</ele>
        <time>2019-06-15T13:02:03Z</time>
      </trkpt>
      <trkpt lat="43.371509" lon="-1.809884">
        <ele>112.117</ele>
        <time>2019-06-15T13:02:04Z</time>
      </trkpt>
      <trkpt lat="43.371610" lon="-1.809861">
        <ele>112.118</ele>
        <time>2019-06-15T13:02:05Z</time>
      </trkpt>
      <trkpt lat="43.371708" lon="-1.809835">
        <ele>112.008</ele>
        <time>2019-06-15T13:02:06Z</time>
      </trkpt>
      <trkpt lat="43.371807" lon="-1.809812">
        <ele>112.166</ele>
        <time>2019-06-15T13:02:07Z</time>
      </trkpt>
      <trkpt lat="43.371921" lon="-1.809812">
        <ele>113.190</ele>
        <time>2019-06-15T13:02:08Z</time>
      </trkpt>
      <trkpt lat="43.372029" lon="-1.809806">
        <ele>113.769</ele>
        <time>2019-06-15T13:02:09Z</time>
      </trkpt>
      <trkpt lat="43.372120" lon="-1.809770">
        <ele>113.728</ele>
        <time>2019-06-15T13:02:10Z</time>
      </trkpt>
      <trkpt lat="43.372190" lon="-1.809767">
        <ele>114.247</ele>
        <time>2019-06-15T13:02:11Z</time>
      </trkpt>
      <trkpt lat="43.372263" lon="-1.809783">
        <ele>115.218</ele>
        <time>2019-06-15T13:02:12Z</time>
      </trkpt>
      <trkpt lat="43.372326" lon="-1.809804">
        <ele>116.217</ele>
        <time>2019-06-15T13:02:13Z</time>
      </trkpt>
      <trkpt lat="43.372377" lon="-1.809853">
        <ele>117.111</ele>
        <time>2019-06-15T13:02:14Z</time>
      </trkpt>
      <trkpt lat="43.372435" lon="-1.809898">
        <ele>118.096</ele>
        <time>2019-06-15T13:02:15Z</time>
      </trkpt>
      <trkpt lat="43.372430" lon="-1.810003">
        <ele>118.531</ele>
        <time>2019-06-15T13:02:16Z</time>
      </trkpt>
      <trkpt lat="43.372456" lon="-1.810163">
        <ele>120.824</ele>
        <time>2019-06-15T13:02:17Z</time>
      </trkpt>
      <trkpt lat="43.372386" lon="-1.810294">
        <ele>121.808</ele>
        <time>2019-06-15T13:02:18Z</time>
      </trkpt>
      <trkpt lat="43.372325" lon="-1.810401">
        <ele>123.272</ele>
        <time>2019-06-15T13:02:19Z</time>
      </trkpt>
      <trkpt lat="43.372240" lon="-1.810473">
        <ele>122.946</ele>
        <time>2019-06-15T13:02:20Z</time>
      </trkpt>
      <trkpt lat="43.372156" lon="-1.810567">
        <ele>124.125</ele>
        <time>2019-06-15T13:02:21Z</time>
      </trkpt>
      <trkpt lat="43.372065" lon="-1.810626">
        <ele>125.354</ele>
        <time>2019-06-15T13:02:22Z</time>
      </trkpt>
      <trkpt lat="43.371957" lon="-1.810657">
        <ele>125.323</ele>
        <time>2019-06-15T13:02:23Z</time>
      </trkpt>
      <trkpt lat="43.371853" lon="-1.810653">
        <ele>126.784</ele>
        <time>2019-06-15T13:02:24Z</time>
      </trkpt>
      <trkpt lat="43.371746" lon="-1.810616">
        <ele>127.563</ele>
        <time>2019-06-15T13:02:25Z</time>
      </trkpt>
      <trkpt lat="43.371636" lon="-1.810579">
        <ele>128.487</ele>
        <time>2019-06-15T13:02:26Z</time>
      </trkpt>
      <trkpt lat="43.371513" lon="-1.810539">
        <ele>130.018</ele>
        <time>2019-06-15T13:02:27Z</time>
      </trkpt>
      <trkpt lat="43.371391" lon="-1.810537">
        <ele>132.598</ele>
        <time>2019-06-15T13:02:28Z</time>
      </trkpt>
      <trkpt lat="43.371271" lon="-1.810548">
        <ele>132.817</ele>
        <time>2019-06-15T13:02:29Z</time>
      </trkpt>
      <trkpt lat="43.371144" lon="-1.810550">
        <ele>132.908</ele>
        <time>2019-06-15T13:02:30Z</time>
      </trkpt>
      <trkpt lat="43.371024" lon="-1.810562">
        <ele>134.314</ele>
        <time>2019-06-15T13:02:31Z</time>
      </trkpt>
      <trkpt lat="43.370898" lon="-1.810572">
        <ele>136.228</ele>
        <time>2019-06-15T13:02:32Z</time>
      </trkpt>
      <trkpt lat="43.370770" lon="-1.810557">
        <ele>136.537</ele>
        <time>2019-06-15T13:02:33Z</time>
      </trkpt>
      <trkpt lat="43.370649" lon="-1.810554">
        <ele>137.396</ele>
        <time>2019-06-15T13:02:34Z</time>
      </trkpt>
      <trkpt lat="43.370521" lon="-1.810566">
        <ele>138.255</ele>
        <time>2019-06-15T13:02:35Z</time>
      </trkpt>
      <trkpt lat="43.370392" lon="-1.810593">
        <ele>138.466</ele>
        <time>2019-06-15T13:02:36Z</time>
      </trkpt>
      <trkpt lat="43.370273" lon="-1.810634">
        <ele>139.125</ele>
        <time>2019-06-15T13:02:37Z</time>
      </trkpt>
      <trkpt lat="43.370170" lon="-1.810687">
        <ele>139.959</ele>
        <time>2019-06-15T13:02:38Z</time>
      </trkpt>
      <trkpt lat="43.370062" lon="-1.810759">
        <ele>140.891</ele>
        <time>2019-06-15T13:02:39Z</time>
      </trkpt>
      <trkpt lat="43.369958" lon="-1.810834">
        <ele>141.081</ele>
        <time>2019-06-15T13:02:40Z</time>
      </trkpt>
      <trkpt lat="43.369900" lon="-1.810945">
        <ele>142.719</ele>
        <time>2019-06-15T13:02:41Z</time>
      </trkpt>
      <trkpt lat="43.369810" lon="-1.811042">
        <ele>142.408</ele>
        <time>2019-06-15T13:02:42Z</time>
      </trkpt>
      <trkpt lat="43.369731" lon="-1.811148">
        <ele>142.112</ele>
        <time>2019-06-15T13:02:43Z</time>
      </trkpt>
      <trkpt lat="43.369657" lon="-1.811270">
        <ele>142.966</ele>
        <time>2019-06-15T13:02:44Z</time>
      </trkpt>
      <trkpt lat="43.369587" lon="-1.811402">
        <ele>144.135</ele>
        <time>2019-06-15T13:02:45Z</time>
      </trkpt>
      <trkpt lat="43.369515" lon="-1.811526">
        <ele>146.744</ele>
        <time>2019-06-15T13:02:46Z</time>
      </trkpt>
      <trkpt lat="43.369413" lon="-1.811605">
        <ele>147.183</ele>
        <time>2019-06-15T13:02:47Z</time>
      </trkpt>
      <trkpt lat="43.369317" lon="-1.811680">
        <ele>147.834</ele>
        <time>2019-06-15T13:02:48Z</time>
      </trkpt>
      <trkpt lat="43.369227" lon="-1.811760">
        <ele>149.163</ele>
        <time>2019-06-15T13:02:49Z</time>
      </trkpt>
      <trkpt lat="43.369176" lon="-1.811790">
        <ele>149.187</ele>
        <time>2019-06-15T13:02:50Z</time>
      </trkpt>
      <trkpt lat="43.369113" lon="-1.811828">
        <ele>148.838</ele>
        <time>2019-06-15T13:02:51Z</time>
      </trkpt>
      <trkpt lat="43.369041" lon="-1.811914">
        <ele>149.270</ele>
        <time>2019-06-15T13:02:52Z</time>
      </trkpt>
      <trkpt lat="43.368981" lon="-1.811994">
        <ele>147.817</ele>
        <time>2019-06-15T13:02:53Z</time>
      </trkpt>
      <trkpt lat="43.368966" lon="-1.812062">
        <ele>147.308</ele>
        <time>2019-06-15T13:02:54Z</time>
      </trkpt>
      <trkpt lat="43.369017" lon="-1.812190">
        <ele>150.616</ele>
        <time>2019-06-15T13:02:55Z</time>
      </trkpt>
      <trkpt lat="43.369052" lon="-1.812274">
        <ele>152.450</ele>
        <time>2019-06-15T13:02:56Z</time>
      </trkpt>
      <trkpt lat="43.369088" lon="-1.812464">
        <ele>152.759</ele>
        <time>2019-06-15T13:02:57Z</time>
      </trkpt>
      <trkpt lat="43.369114" lon="-1.812642">
        <ele>152.168</ele>
        <time>2019-06-15T13:02:58Z</time>
      </trkpt>
      <trkpt lat="43.369167" lon="-1.812741">
        <ele>154.567</ele>
        <time>2019-06-15T13:02:59Z</time>
      </trkpt>
      <trkpt lat="43.369210" lon="-1.812892">
        <ele>154.318</ele>
        <time>2019-06-15T13:03:00Z</time>
      </trkpt>
      <trkpt lat="43.369259" lon="-1.813037">
        <ele>154.517</ele>
        <time>2019-06-15T13:03:01Z</time>
      </trkpt>
      <trkpt lat="43.369321" lon="-1.813191">
        <ele>154.961</ele>
        <time>2019-06-15T13:03:02Z</time>
      </trkpt>
      <trkpt lat="43.369387" lon="-1.813334">
        <ele>155.034</ele>
        <time>2019-06-15T13:03:03Z</time>
      </trkpt>
      <trkpt lat="43.369452" lon="-1.813467">
        <ele>155.255</ele>
        <time>2019-06-15T13:03:04Z</time>
      </trkpt>
      <trkpt lat="43.369485" lon="-1.813607">
        <ele>154.810</ele>
        <time>2019-06-15T13:03:05Z</time>
      </trkpt>
      <trkpt lat="43.369549" lon="-1.813695">
        <ele>155.408</ele>
        <time>2019-06-15T13:03:06Z</time>
      </trkpt>
      <trkpt lat="43.369622" lon="-1.813780">
        <ele>155.896</ele>
        <time>2019-06-15T13:03:07Z</time>
      </trkpt>
      <trkpt lat="43.369702" lon="-1.813858">
        <ele>156.130</ele>
        <time>2019-06-15T13:03:08Z</time>
      </trkpt>
      <trkpt lat="43.369782" lon="-1.813933">
        <ele>155.899</ele>
        <time>2019-06-15T13:03:09Z</time>
      </trkpt>
      <trkpt lat="43.369859" lon="-1.813967">
        <ele>156.078</ele>
        <time>2019-06-15T13:03:10Z</time>
      </trkpt>
      <trkpt lat="43.369927" lon="-1.814034">
        <ele>155.857</ele>
        <time>2019-06-15T13:03:11Z</time>
      </trkpt>
      <trkpt lat="43.369994" lon="-1.814095">
        <ele>155.798</ele>
        <time>2019-06-15T13:03:12Z</time>
      </trkpt>
      <trkpt lat="43.370053" lon="-1.814197">
        <ele>156.477</ele>
        <time>2019-06-15T13:03:13Z</time>
      </trkpt>
      <trkpt lat="43.370113" lon="-1.814317">
        <ele>157.841</ele>
        <time>2019-06-15T13:03:14Z</time>
      </trkpt>
      <trkpt lat="43.370129" lon="-1.814459">
        <ele>158.324</ele>
        <time>2019-06-15T13:03:15Z</time>
      </trkpt>
      <trkpt lat="43.370100" lon="-1.814613">
        <ele>159.204</ele>
        <time>2019-06-15T13:03:16Z</time>
      </trkpt>
      <trkpt lat="43.370078" lon="-1.814775">
        <ele>160.514</ele>
        <time>2019-06-15T13:03:17Z</time>
      </trkpt>
      <trkpt lat="43.370056" lon="-1.814938">
        <ele>162.308</ele>
        <time>2019-06-15T13:03:18Z</time>
      </trkpt>
      <trkpt lat="43.370024" lon="-1.815094">
        <ele>163.465</ele>
        <time>2019-06-15T13:03:19Z</time>
      </trkpt>
      <trkpt lat="43.369994" lon="-1.815248">
        <ele>164.319</ele>
        <time>2019-06-15T13:03:20Z</time>
      </trkpt>
      <trkpt lat="43.369920" lon="-1.815400">
        <ele>163.758</ele>
        <time>2019-06-15T13:03:21Z</time>
      </trkpt>
      <trkpt lat="43.369850" lon="-1.815537">
        <ele>163.597</ele>
        <time>2019-06-15T13:03:22Z</time>
      </trkpt>
      <trkpt lat="43.369758" lon="-1.815669">
        <ele>162.716</ele>
        <time>2019-06-15T13:03:23Z</time>
      </trkpt>
      <trkpt lat="43.369672" lon="-1.815807">
        <ele>163.517</ele>
        <time>2019-06-15T13:03:24Z</time>
      </trkpt>
      <trkpt lat="43.369585" lon="-1.815946">
        <ele>164.366</ele>
        <time>2019-06-15T13:03:25Z</time>
      </trkpt>
      <trkpt lat="43.369527" lon="-1.816093">
        <ele>166.430</ele>
        <time>2019-06-15T13:03:26Z</time>
      </trkpt>
      <trkpt lat="43.369459" lon="-1.816224">
        <ele>167.738</ele>
        <time>2019-06-15T13:03:27Z</time>
      </trkpt>
      <trkpt lat="43.369399" lon="-1.816308">
        <ele>167.870</ele>
        <time>2019-06-15T13:03:28Z</time>
      </trkpt>
      <trkpt lat="43.369352" lon="-1.816429">
        <ele>168.317</ele>
        <time>2019-06-15T13:03:29Z</time>
      </trkpt>
      <trkpt lat="43.369327" lon="-1.816551">
        <ele>168.308</ele>
        <time>2019-06-15T13:03:30Z</time>
      </trkpt>
      <trkpt lat="43.369296" lon="-1.816662">
        <ele>168.176</ele>
        <time>2019-06-15T13:03:31Z</time>
      </trkpt>
      <trkpt lat="43.369304" lon="-1.816792">
        <ele>167.110</ele>
        <time>2019-06-15T13:03:32Z</time>
      </trkpt>
      <trkpt lat="43.369333" lon="-1.816910">
        <ele>167.139</ele>
        <time>2019-06-15T13:03:33Z</time>
      </trkpt>
      <trkpt lat="43.369343" lon="-1.817030">
        <ele>165.918</ele>
        <time>2019-06-15T13:03:34Z</time>
      </trkpt>
      <trkpt lat="43.369452" lon="-1.817134">
        <ele>169.697</ele>
        <time>2019-06-15T13:03:35Z</time>
      </trkpt>
      <trkpt lat="43.369531" lon="-1.817273">
        <ele>172.138</ele>
        <time>2019-06-15T13:03:36Z</time>
      </trkpt>
      <trkpt lat="43.369566" lon="-1.817406">
        <ele>174.037</ele>
        <time>2019-06-15T13:03:37Z</time>
      </trkpt>
      <trkpt lat="43.369570" lon="-1.817532">
        <ele>175.161</ele>
        <time>2019-06-15T13:03:38Z</time>
      </trkpt>
      <trkpt lat="43.369507" lon="-1.817630">
        <ele>174.724</ele>
        <time>2019-06-15T13:03:39Z</time>
      </trkpt>
      <trkpt lat="43.369436" lon="-1.817735">
        <ele>174.504</ele>
        <time>2019-06-15T13:03:40Z</time>
      </trkpt>
      <trkpt lat="43.369364" lon="-1.817847">
        <ele>176.114</ele>
        <time>2019-06-15T13:03:41Z</time>
      </trkpt>
      <trkpt lat="43.369252" lon="-1.817939">
        <ele>175.708</ele>
        <time>2019-06-15T13:03:42Z</time>
      </trkpt>
      <trkpt lat="43.369180" lon="-1.817985">
        <ele>174.925</ele>
        <time>2019-06-15T13:03:43Z</time>
      </trkpt>
      <trkpt lat="43.369097" lon="-1.818043">
        <ele>175.549</ele>
        <time>2019-06-15T13:03:44Z</time>
      </trkpt>
      <trkpt lat="43.369002" lon="-1.818093">
        <ele>176.478</ele>
        <time>2019-06-15T13:03:45Z</time>
      </trkpt>
      <trkpt lat="43.368892" lon="-1.818139">
        <ele>176.977</ele>
        <time>2019-06-15T13:03:46Z</time>
      </trkpt>
      <trkpt lat="43.368779" lon="-1.818186">
        <ele>177.736</ele>
        <time>2019-06-15T13:03:47Z</time>
      </trkpt>
      <trkpt lat="43.368682" lon="-1.818234">
        <ele>178.667</ele>
        <time>2019-06-15T13:03:48Z</time>
      </trkpt>
      <trkpt lat="43.368592" lon="-1.818276">
        <ele>179.196</ele>
        <time>2019-06-15T13:03:49Z</time>
      </trkpt>
      <trkpt lat="43.368504" lon="-1.818338">
        <ele>179.540</ele>
        <time>2019-06-15T13:03:50Z</time>
      </trkpt>
      <trkpt lat="43.368401" lon="-1.818411">
        <ele>179.981</ele>
        <time>2019-06-15T13:03:51Z</time>
      </trkpt>
      <trkpt lat="43.368291" lon="-1.818495">
        <ele>180.361</ele>
        <time>2019-06-15T13:03:52Z</time>
      </trkpt>
      <trkpt lat="43.368189" lon="-1.818570">
        <ele>180.717</ele>
        <time>2019-06-15T13:03:53Z</time>
      </trkpt>
      <trkpt lat="43.368061" lon="-1.818687">
        <ele>182.108</ele>
        <time>2019-06-15T13:03:54Z</time>
      </trkpt>
      <trkpt lat="43.367925" lon="-1.818743">
        <ele>181.951</ele>
        <time>2019-06-15T13:03:55Z</time>
      </trkpt>
      <trkpt lat="43.367805" lon="-1.818811">
        <ele>182.495</ele>
        <time>2019-06-15T13:03:56Z</time>
      </trkpt>
      <trkpt lat="43.367685" lon="-1.818865">
        <ele>183.834</ele>
        <time>2019-06-15T13:03:57Z</time>
      </trkpt>
      <trkpt lat="43.367568" lon="-1.818909">
        <ele>185.013</ele>
        <time>2019-06-15T13:03:58Z</time>
      </trkpt>
      <trkpt lat="43.367467" lon="-1.818949">
        <ele>185.842</ele>
        <time>2019-06-15T13:03:59Z</time>
      </trkpt>
      <trkpt lat="43.367374" lon="-1.818984">
        <ele>185.773</ele>
        <time>2019-06-15T13:04:00Z</time>
      </trkpt>
      <trkpt lat="43.367294" lon="-1.819010">
        <ele>185.312</ele>
        <time>2019-06-15T13:04:01Z</time>
      </trkpt>
      <trkpt lat="43.367239" lon="-1.819098">
        <ele>186.176</ele>
        <time>2019-06-15T13:04:02Z</time>
      </trkpt>
      <trkpt lat="43.367180" lon="-1.819165">
        <ele>185.545</ele>
        <time>2019-06-15T13:04:03Z</time>
      </trkpt>
      <trkpt lat="43.367115" lon="-1.819249">
        <ele>184.447</ele>
        <time>2019-06-15T13:04:04Z</time>
      </trkpt>
      <trkpt lat="43.367099" lon="-1.819386">
        <ele>185.811</ele>
        <time>2019-06-15T13:04:05Z</time>
      </trkpt>
      <trkpt lat="43.367108" lon="-1.819540">
        <ele>187.808</ele>
        <time>2019-06-15T13:04:06Z</time>
      </trkpt>
      <trkpt lat="43.367133" lon="-1.819697">
        <ele>190.087</ele>
        <time>2019-06-15T13:04:07Z</time>
      </trkpt>
      <trkpt lat="43.367143" lon="-1.819826">
        <ele>191.441</ele>
        <time>2019-06-15T13:04:08Z</time>
      </trkpt>
      <trkpt lat="43.367140" lon="-1.819925">
        <ele>192.050</ele>
        <time>2019-06-15T13:04:09Z</time>
      </trkpt>
      <trkpt lat="43.367124" lon="-1.820022">
        <ele>191.769</ele>
        <time>2019-06-15T13:04:10Z</time>
      </trkpt>
      <trkpt lat="43.367103" lon="-1.820111">
        <ele>190.768</ele>
        <time>2019-06-15T13:04:11Z</time>
      </trkpt>
      <trkpt lat="43.367077" lon="-1.820202">
        <ele>189.639</ele>
        <time>2019-06-15T13:04:12Z</time>
      </trkpt>
      <trkpt lat="43.367052" lon="-1.820294">
        <ele>188.978</ele>
        <time>2019-06-15T13:04:13Z</time>
      </trkpt>
      <trkpt lat="43.367021" lon="-1.820396">
        <ele>189.222</ele>
        <time>2019-06-15T13:04:14Z</time>
      </trkpt>
      <trkpt lat="43.366993" lon="-1.820491">
        <ele>189.933</ele>
        <time>2019-06-15T13:04:15Z</time>
      </trkpt>
      <trkpt lat="43.366964" lon="-1.820570">
        <ele>190.623</ele>
        <time>2019-06-15T13:04:16Z</time>
      </trkpt>
      <trkpt lat="43.366942" lon="-1.820645">
        <ele>190.915</ele>
        <time>2019-06-15T13:04:17Z</time>
      </trkpt>
      <trkpt lat="43.366921" lon="-1.820715">
        <ele>191.008</ele>
        <time>2019-06-15T13:04:18Z</time>
      </trkpt>
      <trkpt lat="43.366903" lon="-1.820780">
        <ele>191.266</ele>
        <time>2019-06-15T13:04:19Z</time>
      </trkpt>
      <trkpt lat="43.366883" lon="-1.820843">
        <ele>191.580</ele>
        <time>2019-06-15T13:04:20Z</time>
      </trkpt>
      <trkpt lat="43.366861" lon="-1.820907">
        <ele>191.669</ele>
        <time>2019-06-15T13:04:21Z</time>
      </trkpt>
      <trkpt lat="43.366831" lon="-1.820983">
        <ele>191.868</ele>
        <time>2019-06-15T13:04:22Z</time>
      </trkpt>
      <trkpt lat="43.366809" lon="-1.821062">
        <ele>192.447</ele>
        <time>2019-06-15T13:04:23Z</time>
      </trkpt>
      <trkpt lat="43.366788" lon="-1.821121">
        <ele>192.968</ele>
        <time>2019-06-15T13:04:24Z</time>
      </trkpt>
      <trkpt lat="43.366772" lon="-1.821209">
        <ele>193.377</ele>
        <time>2019-06-15T13:04:26Z</time>
      </trkpt>
      <trkpt lat="43.366765" lon="-1.821285">
        <ele>193.761</ele>
        <time>2019-06-15T13:04:28Z</time>
      </trkpt>
      <trkpt lat="43.366715" lon="-1.821317">
        <ele>193.748</ele>
        <time>2019-06-15T13:04:30Z</time>
      </trkpt>
      <trkpt lat="43.366677" lon="-1.821257">
        <ele>193.161</ele>
        <time>2019-06-15T13:04:33Z</time>
      </trkpt>
      <trkpt lat="43.366697" lon="-1.821187">
        <ele>192.717</ele>
        <time>2019-06-15T13:04:36Z</time>
      </trkpt>
      <trkpt lat="43.366733" lon="-1.821145">
        <ele>192.708</ele>
        <time>2019-06-15T13:04:57Z</time>
      </trkpt>
      <trkpt lat="43.366715" lon="-1.821207">
        <ele>193.067</ele>
        <time>2019-06-15T13:05:50Z</time>
      </trkpt>
      <trkpt lat="43.366739" lon="-1.821279">
        <ele>193.651</ele>
        <time>2019-06-15T13:06:05Z</time>
      </trkpt>
      <trkpt lat="43.366765" lon="-1.821329">
        <ele>194.040</ele>
        <time>2019-06-15T13:06:11Z</time>
      </trkpt>
      <trkpt lat="43.366760" lon="-1.821395">
        <ele>194.429</ele>
        <time>2019-06-15T13:08:05Z</time>
      </trkpt>
      <trkpt lat="43.366824" lon="-1.820941">
        <ele>191.278</ele>
        <time>2019-06-15T13:16:25Z</time>
      </trkpt>
      <trkpt lat="43.366876" lon="-1.820939">
        <ele>192.129</ele>
        <time>2019-06-15T13:17:17Z</time>
      </trkpt>
      <trkpt lat="43.366897" lon="-1.820999">
        <ele>192.958</ele>
        <time>2019-06-15T13:17:31Z</time>
      </trkpt>
      <trkpt lat="43.366892" lon="-1.821067">
        <ele>193.352</ele>
        <time>2019-06-15T13:17:32Z</time>
      </trkpt>
      <trkpt lat="43.366879" lon="-1.821148">
        <ele>193.775</ele>
        <time>2019-06-15T13:17:33Z</time>
      </trkpt>
      <trkpt lat="43.366870" lon="-1.821233">
        <ele>194.028</ele>
        <time>2019-06-15T13:17:34Z</time>
      </trkpt>
      <trkpt lat="43.366871" lon="-1.821327">
        <ele>194.520</ele>
        <time>2019-06-15T13:17:35Z</time>
      </trkpt>
      <trkpt lat="43.366883" lon="-1.821416">
        <ele>195.008</ele>
        <time>2019-06-15T13:17:36Z</time>
      </trkpt>
      <trkpt lat="43.366906" lon="-1.821495">
        <ele>195.760</ele>
        <time>2019-06-15T13:17:37Z</time>
      </trkpt>
      <trkpt lat="43.366937" lon="-1.821559">
        <ele>196.254</ele>
        <time>2019-06-15T13:17:38Z</time>
      </trkpt>
      <trkpt lat="43.366974" lon="-1.821610">
        <ele>196.693</ele>
        <time>2019-06-15T13:17:39Z</time>
      </trkpt>
      <trkpt lat="43.367014" lon="-1.821645">
        <ele>196.772</ele>
        <time>2019-06-15T13:17:40Z</time>
      </trkpt>
      <trkpt lat="43.367058" lon="-1.821674">
        <ele>196.671</ele>
        <time>2019-06-15T13:17:41Z</time>
      </trkpt>
      <trkpt lat="43.367103" lon="-1.821708">
        <ele>196.422</ele>
        <time>2019-06-15T13:17:42Z</time>
      </trkpt>
      <trkpt lat="43.367154" lon="-1.821755">
        <ele>196.171</ele>
        <time>2019-06-15T13:17:43Z</time>
      </trkpt>
      <trkpt lat="43.367183" lon="-1.821828">
        <ele>195.735</ele>
        <time>2019-06-15T13:17:44Z</time>
      </trkpt>
      <trkpt lat="43.367190" lon="-1.821926">
        <ele>195.423</ele>
        <time>2019-06-15T13:17:45Z</time>
      </trkpt>
      <trkpt lat="43.367189" lon="-1.822024">
        <ele>195.483</ele>
        <time>2019-06-15T13:17:46Z</time>
      </trkpt>
      <trkpt lat="43.367180" lon="-1.822158">
        <ele>195.511</ele>
        <time>2019-06-15T13:17:47Z</time>
      </trkpt>
      <trkpt lat="43.367175" lon="-1.822282">
        <ele>195.508</ele>
        <time>2019-06-15T13:17:48Z</time>
      </trkpt>
      <trkpt lat="43.367165" lon="-1.822435">
        <ele>195.855</ele>
        <time>2019-06-15T13:17:49Z</time>
      </trkpt>
      <trkpt lat="43.367156" lon="-1.822593">
        <ele>196.099</ele>
        <time>2019-06-15T13:17:50Z</time>
      </trkpt>
      <trkpt lat="43.367145" lon="-1.822745">
        <ele>196.118</ele>
        <time>2019-06-15T13:17:51Z</time>
      </trkpt>
      <trkpt lat="43.367134" lon="-1.822908">
        <ele>195.957</ele>
        <time>2019-06-15T13:17:52Z</time>
      </trkpt>
      <trkpt lat="43.367126" lon="-1.823077">
        <ele>195.796</ele>
        <time>2019-06-15T13:17:53Z</time>
      </trkpt>
      <trkpt lat="43.367109" lon="-1.823233">
        <ele>196.077</ele>
        <time>2019-06-15T13:17:54Z</time>
      </trkpt>
      <trkpt lat="43.367101" lon="-1.823403">
        <ele>196.426</ele>
        <time>2019-06-15T13:17:55Z</time>
      </trkpt>
      <trkpt lat="43.367105" lon="-1.823544">
        <ele>196.750</ele>
        <time>2019-06-15T13:17:56Z</time>
      </trkpt>
      <trkpt lat="43.367094" lon="-1.823702">
        <ele>196.471</ele>
        <time>2019-06-15T13:17:57Z</time>
      </trkpt>
      <trkpt lat="43.367070" lon="-1.823860">
        <ele>195.741</ele>
        <time>2019-06-15T13:17:58Z</time>
      </trkpt>
      <trkpt lat="43.367026" lon="-1.824048">
        <ele>194.415</ele>
        <time>2019-06-15T13:17:59Z</time>
      </trkpt>
      <trkpt lat="43.366979" lon="-1.824245">
        <ele>192.808</ele>
        <time>2019-06-15T13:18:00Z</time>
      </trkpt>
      <trkpt lat="43.366925" lon="-1.824444">
        <ele>191.270</ele>
        <time>2019-06-15T13:18:01Z</time>
      </trkpt>
      <trkpt lat="43.366878" lon="-1.824634">
        <ele>190.714</ele>
        <time>2019-06-15T13:18:02Z</time>
      </trkpt>
      <trkpt lat="43.366839" lon="-1.824825">
        <ele>190.723</ele>
        <time>2019-06-15T13:18:03Z</time>
      </trkpt>
      <trkpt lat="43.366810" lon="-1.825018">
        <ele>190.922</ele>
        <time>2019-06-15T13:18:04Z</time>
      </trkpt>
      <trkpt lat="43.366792" lon="-1.825199">
        <ele>191.041</ele>
        <time>2019-06-15T13:18:05Z</time>
      </trkpt>
      <trkpt lat="43.366772" lon="-1.825381">
        <ele>191.492</ele>
        <time>2019-06-15T13:18:06Z</time>
      </trkpt>
      <trkpt lat="43.366761" lon="-1.825557">
        <ele>191.361</ele>
        <time>2019-06-15T13:18:07Z</time>
      </trkpt>
      <trkpt lat="43.366744" lon="-1.825727">
        <ele>189.715</ele>
        <time>2019-06-15T13:18:08Z</time>
      </trkpt>
      <trkpt lat="43.366727" lon="-1.825880">
        <ele>188.965</ele>
        <time>2019-06-15T13:18:09Z</time>
      </trkpt>
      <trkpt lat="43.366714" lon="-1.826038">
        <ele>188.768</ele>
        <time>2019-06-15T13:18:10Z</time>
      </trkpt>
      <trkpt lat="43.366733" lon="-1.826173">
        <ele>189.414</ele>
        <time>2019-06-15T13:18:11Z</time>
      </trkpt>
      <trkpt lat="43.366738" lon="-1.826311">
        <ele>192.708</ele>
        <time>2019-06-15T13:18:12Z</time>
      </trkpt>
      <trkpt lat="43.366743" lon="-1.826448">
        <ele>196.139</ele>
        <time>2019-06-15T13:18:13Z</time>
      </trkpt>
      <trkpt lat="43.366977" lon="-1.826460">
        <ele>188.583</ele>
        <time>2019-06-15T13:18:14Z</time>
      </trkpt>
      <trkpt lat="43.367062" lon="-1.826556">
        <ele>187.592</ele>
        <time>2019-06-15T13:18:15Z</time>
      </trkpt>
      <trkpt lat="43.367136" lon="-1.826700">
        <ele>187.541</ele>
        <time>2019-06-15T13:18:16Z</time>
      </trkpt>
      <trkpt lat="43.367210" lon="-1.826816">
        <ele>186.190</ele>
        <time>2019-06-15T13:18:17Z</time>
      </trkpt>
      <trkpt lat="43.367277" lon="-1.826952">
        <ele>185.531</ele>
        <time>2019-06-15T13:18:18Z</time>
      </trkpt>
      <trkpt lat="43.367343" lon="-1.827076">
        <ele>185.070</ele>
        <time>2019-06-15T13:18:19Z</time>
      </trkpt>
      <trkpt lat="43.367402" lon="-1.827189">
        <ele>184.234</ele>
        <time>2019-06-15T13:18:20Z</time>
      </trkpt>
      <trkpt lat="43.367464" lon="-1.827302">
        <ele>183.649</ele>
        <time>2019-06-15T13:18:21Z</time>
      </trkpt>
      <trkpt lat="43.367525" lon="-1.827387">
        <ele>183.702</ele>
        <time>2019-06-15T13:18:22Z</time>
      </trkpt>
      <trkpt lat="43.367590" lon="-1.827475">
        <ele>185.122</ele>
        <time>2019-06-15T13:18:23Z</time>
      </trkpt>
      <trkpt lat="43.367682" lon="-1.827482">
        <ele>184.908</ele>
        <time>2019-06-15T13:18:24Z</time>
      </trkpt>
      <trkpt lat="43.367774" lon="-1.827493">
        <ele>184.817</ele>
        <time>2019-06-15T13:18:25Z</time>
      </trkpt>
      <trkpt lat="43.367864" lon="-1.827483">
        <ele>186.671</ele>
        <time>2019-06-15T13:18:26Z</time>
      </trkpt>
      <trkpt lat="43.367954" lon="-1.827482">
        <ele>188.810</ele>
        <time>2019-06-15T13:18:27Z</time>
      </trkpt>
      <trkpt lat="43.368090" lon="-1.827358">
        <ele>187.379</ele>
        <time>2019-06-15T13:18:28Z</time>
      </trkpt>
      <trkpt lat="43.368195" lon="-1.827309">
        <ele>186.638</ele>
        <time>2019-06-15T13:18:29Z</time>
      </trkpt>
      <trkpt lat="43.368277" lon="-1.827207">
        <ele>183.899</ele>
        <time>2019-06-15T13:18:30Z</time>
      </trkpt>
      <trkpt lat="43.368348" lon="-1.827163">
        <ele>182.798</ele>
        <time>2019-06-15T13:18:31Z</time>
      </trkpt>
      <trkpt lat="43.368467" lon="-1.827152">
        <ele>181.092</ele>
        <time>2019-06-15T13:18:32Z</time>
      </trkpt>
      <trkpt lat="43.368577" lon="-1.827154">
        <ele>179.911</ele>
        <time>2019-06-15T13:18:33Z</time>
      </trkpt>
      <trkpt lat="43.368726" lon="-1.827202">
        <ele>180.521</ele>
        <time>2019-06-15T13:18:34Z</time>
      </trkpt>
      <trkpt lat="43.368842" lon="-1.827225">
        <ele>180.403</ele>
        <time>2019-06-15T13:18:35Z</time>
      </trkpt>
      <trkpt lat="43.368957" lon="-1.827260">
        <ele>180.208</ele>
        <time>2019-06-15T13:18:36Z</time>
      </trkpt>
      <trkpt lat="43.369071" lon="-1.827289">
        <ele>179.394</ele>
        <time>2019-06-15T13:18:37Z</time>
      </trkpt>
      <trkpt lat="43.369160" lon="-1.827374">
        <ele>179.388</ele>
        <time>2019-06-15T13:18:38Z</time>
      </trkpt>
      <trkpt lat="43.369251" lon="-1.827451">
        <ele>178.227</ele>
        <time>2019-06-15T13:18:39Z</time>
      </trkpt>
      <trkpt lat="43.369332" lon="-1.827519">
        <ele>177.026</ele>
        <time>2019-06-15T13:18:40Z</time>
      </trkpt>
      <trkpt lat="43.369388" lon="-1.827651">
        <ele>176.725</ele>
        <time>2019-06-15T13:18:41Z</time>
      </trkpt>
      <trkpt lat="43.369385" lon="-1.827827">
        <ele>177.966</ele>
        <time>2019-06-15T13:18:42Z</time>
      </trkpt>
      <trkpt lat="43.369409" lon="-1.827995">
        <ele>177.115</ele>
        <time>2019-06-15T13:18:43Z</time>
      </trkpt>
      <trkpt lat="43.369429" lon="-1.828162">
        <ele>176.189</ele>
        <time>2019-06-15T13:18:44Z</time>
      </trkpt>
      <trkpt lat="43.369434" lon="-1.828308">
        <ele>175.421</ele>
        <time>2019-06-15T13:18:45Z</time>
      </trkpt>
      <trkpt lat="43.369452" lon="-1.828460">
        <ele>174.341</ele>
        <time>2019-06-15T13:18:46Z</time>
      </trkpt>
      <trkpt lat="43.369453" lon="-1.828612">
        <ele>173.705</ele>
        <time>2019-06-15T13:18:47Z</time>
      </trkpt>
      <trkpt lat="43.369457" lon="-1.828775">
        <ele>173.508</ele>
        <time>2019-06-15T13:18:48Z</time>
      </trkpt>
      <trkpt lat="43.369473" lon="-1.828946">
        <ele>173.075</ele>
        <time>2019-06-15T13:18:49Z</time>
      </trkpt>
      <trkpt lat="43.369496" lon="-1.829090">
        <ele>172.339</ele>
        <time>2019-06-15T13:18:50Z</time>
      </trkpt>
      <trkpt lat="43.369528" lon="-1.829262">
        <ele>172.618</ele>
        <time>2019-06-15T13:18:51Z</time>
      </trkpt>
      <trkpt lat="43.369551" lon="-1.829423">
        <ele>174.717</ele>
        <time>2019-06-15T13:18:52Z</time>
      </trkpt>
      <trkpt lat="43.369621" lon="-1.829540">
        <ele>175.646</ele>
        <time>2019-06-15T13:18:53Z</time>
      </trkpt>
      <trkpt lat="43.369677" lon="-1.829635">
        <ele>176.727</ele>
        <time>2019-06-15T13:18:54Z</time>
      </trkpt>
      <trkpt lat="43.369774" lon="-1.829701">
        <ele>175.886</ele>
        <time>2019-06-15T13:18:55Z</time>
      </trkpt>
      <trkpt lat="43.369878" lon="-1.829789">
        <ele>174.810</ele>
        <time>2019-06-15T13:18:56Z</time>
      </trkpt>
      <trkpt lat="43.369912" lon="-1.829886">
        <ele>175.575</ele>
        <time>2019-06-15T13:18:57Z</time>
      </trkpt>
      <trkpt lat="43.369978" lon="-1.829964">
        <ele>174.328</ele>
        <time>2019-06-15T13:18:58Z</time>
      </trkpt>
      <trkpt lat="43.370031" lon="-1.830062">
        <ele>172.920</ele>
        <time>2019-06-15T13:18:59Z</time>
      </trkpt>
      <trkpt lat="43.370019" lon="-1.830192">
        <ele>174.408</ele>
        <time>2019-06-15T13:19:00Z</time>
      </trkpt>
      <trkpt lat="43.370002" lon="-1.830333">
        <ele>175.980</ele>
        <time>2019-06-15T13:19:01Z</time>
      </trkpt>
      <trkpt lat="43.369986" lon="-1.830480">
        <ele>176.654</ele>
        <time>2019-06-15T13:19:02Z</time>
      </trkpt>
      <trkpt lat="43.369974" lon="-1.830615">
        <ele>176.913</ele>
        <time>2019-06-15T13:19:03Z</time>
      </trkpt>
      <trkpt lat="43.369971" lon="-1.830763">
        <ele>176.582</ele>
        <time>2019-06-15T13:19:04Z</time>
      </trkpt>
      <trkpt lat="43.369963" lon="-1.830924">
        <ele>177.611</ele>
        <time>2019-06-15T13:19:05Z</time>
      </trkpt>
      <trkpt lat="43.369961" lon="-1.831102">
        <ele>179.762</ele>
        <time>2019-06-15T13:19:06Z</time>
      </trkpt>
      <trkpt lat="43.369963" lon="-1.831262">
        <ele>180.281</ele>
        <time>2019-06-15T13:19:07Z</time>
      </trkpt>
      <trkpt lat="43.369963" lon="-1.831420">
        <ele>180.325</ele>
        <time>2019-06-15T13:19:08Z</time>
      </trkpt>
      <trkpt lat="43.369950" lon="-1.831566">
        <ele>179.338</ele>
        <time>2019-06-15T13:19:09Z</time>
      </trkpt>
      <trkpt lat="43.369935" lon="-1.831719">
        <ele>178.670</ele>
        <time>2019-06-15T13:19:10Z</time>
      </trkpt>
      <trkpt lat="43.369919" lon="-1.831886">
        <ele>178.817</ele>
        <time>2019-06-15T13:19:11Z</time>
      </trkpt>
      <trkpt lat="43.369905" lon="-1.832045">
        <ele>180.908</ele>
        <time>2019-06-15T13:19:12Z</time>
      </trkpt>
      <trkpt lat="43.369905" lon="-1.832154">
        <ele>182.866</ele>
        <time>2019-06-15T13:19:13Z</time>
      </trkpt>
      <trkpt lat="43.369900" lon="-1.832280">
        <ele>184.890</ele>
        <time>2019-06-15T13:19:14Z</time>
      </trkpt>
      <trkpt lat="43.369886" lon="-1.832397">
        <ele>186.249</ele>
        <time>2019-06-15T13:19:15Z</time>
      </trkpt>
      <trkpt lat="43.369832" lon="-1.832535">
        <ele>187.988</ele>
        <time>2019-06-15T13:19:16Z</time>
      </trkpt>
      <trkpt lat="43.369785" lon="-1.832623">
        <ele>188.417</ele>
        <time>2019-06-15T13:19:17Z</time>
      </trkpt>
      <trkpt lat="43.369712" lon="-1.832692">
        <ele>189.118</ele>
        <time>2019-06-15T13:19:18Z</time>
      </trkpt>
      <trkpt lat="43.369634" lon="-1.832738">
        <ele>189.517</ele>
        <time>2019-06-15T13:19:19Z</time>
      </trkpt>
      <trkpt lat="43.369521" lon="-1.832687">
        <ele>190.781</ele>
        <time>2019-06-15T13:19:20Z</time>
      </trkpt>
      <trkpt lat="43.369414" lon="-1.832651">
        <ele>191.956</ele>
        <time>2019-06-15T13:19:21Z</time>
      </trkpt>
      <trkpt lat="43.369319" lon="-1.832605">
        <ele>192.859</ele>
        <time>2019-06-15T13:19:22Z</time>
      </trkpt>
      <trkpt lat="43.369186" lon="-1.832492">
        <ele>195.014</ele>
        <time>2019-06-15T13:19:23Z</time>
      </trkpt>
      <trkpt lat="43.369058" lon="-1.832411">
        <ele>195.808</ele>
        <time>2019-06-15T13:19:24Z</time>
      </trkpt>
      <trkpt lat="43.368923" lon="-1.832309">
        <ele>197.448</ele>
        <time>2019-06-15T13:19:25Z</time>
      </trkpt>
      <trkpt lat="43.368779" lon="-1.832223">
        <ele>198.272</ele>
        <time>2019-06-15T13:19:26Z</time>
      </trkpt>
      <trkpt lat="43.368630" lon="-1.832112">
        <ele>199.151</ele>
        <time>2019-06-15T13:19:27Z</time>
      </trkpt>
      <trkpt lat="43.368492" lon="-1.832015">
        <ele>201.180</ele>
        <time>2019-06-15T13:19:28Z</time>
      </trkpt>
      <trkpt lat="43.368349" lon="-1.831920">
        <ele>203.569</ele>
        <time>2019-06-15T13:19:29Z</time>
      </trkpt>
      <trkpt lat="43.368211" lon="-1.831830">
        <ele>206.010</ele>
        <time>2019-06-15T13:19:30Z</time>
      </trkpt>
      <trkpt lat="43.368056" lon="-1.831718">
        <ele>208.339</ele>
        <time>2019-06-15T13:19:31Z</time>
      </trkpt>
      <trkpt lat="43.367916" lon="-1.831610">
        <ele>209.273</ele>
        <time>2019-06-15T13:19:32Z</time>
      </trkpt>
      <trkpt lat="43.367760" lon="-1.831502">
        <ele>210.326</ele>
        <time>2019-06-15T13:19:33Z</time>
      </trkpt>
      <trkpt lat="43.367608" lon="-1.831395">
        <ele>211.047</ele>
        <time>2019-06-15T13:19:34Z</time>
      </trkpt>
      <trkpt lat="43.367464" lon="-1.831285">
        <ele>212.111</ele>
        <time>2019-06-15T13:19:35Z</time>
      </trkpt>
      <trkpt lat="43.367330" lon="-1.831178">
        <ele>213.208</ele>
        <time>2019-06-15T13:19:36Z</time>
      </trkpt>
      <trkpt lat="43.367209" lon="-1.831086">
        <ele>214.635</ele>
        <time>2019-06-15T13:19:37Z</time>
      </trkpt>
      <trkpt lat="43.367094" lon="-1.830997">
        <ele>216.459</ele>
        <time>2019-06-15T13:19:38Z</time>
      </trkpt>
      <trkpt lat="43.366992" lon="-1.830911">
        <ele>218.148</ele>
        <time>2019-06-15T13:19:39Z</time>
      </trkpt>
      <trkpt lat="43.366893" lon="-1.830846">
        <ele>219.747</ele>
        <time>2019-06-15T13:19:40Z</time>
      </trkpt>
      <trkpt lat="43.366803" lon="-1.830775">
        <ele>221.586</ele>
        <time>2019-06-15T13:19:41Z</time>
      </trkpt>
      <trkpt lat="43.366719" lon="-1.830735">
        <ele>222.577</ele>
        <time>2019-06-15T13:19:42Z</time>
      </trkpt>
      <trkpt lat="43.366646" lon="-1.830712">
        <ele>223.546</ele>
        <time>2019-06-15T13:19:43Z</time>
      </trkpt>
      <trkpt lat="43.366575" lon="-1.830733">
        <ele>224.530</ele>
        <time>2019-06-15T13:19:44Z</time>
      </trkpt>
      <trkpt lat="43.366512" lon="-1.830781">
        <ele>225.549</ele>
        <time>2019-06-15T13:19:45Z</time>
      </trkpt>
      <trkpt lat="43.366472" lon="-1.830874">
        <ele>226.602</ele>
        <time>2019-06-15T13:19:46Z</time>
      </trkpt>
      <trkpt lat="43.366443" lon="-1.830959">
        <ele>228.222</ele>
        <time>2019-06-15T13:19:47Z</time>
      </trkpt>
      <trkpt lat="43.366443" lon="-1.831072">
        <ele>229.008</ele>
        <time>2019-06-15T13:19:48Z</time>
      </trkpt>
      <trkpt lat="43.366444" lon="-1.831190">
        <ele>229.447</ele>
        <time>2019-06-15T13:19:49Z</time>
      </trkpt>
      <trkpt lat="43.366418" lon="-1.831294">
        <ele>230.341</ele>
        <time>2019-06-15T13:19:50Z</time>
      </trkpt>
      <trkpt lat="43.366380" lon="-1.831373">
        <ele>231.160</ele>
        <time>2019-06-15T13:19:51Z</time>
      </trkpt>
      <trkpt lat="43.366316" lon="-1.831429">
        <ele>231.189</ele>
        <time>2019-06-15T13:19:52Z</time>
      </trkpt>
      <trkpt lat="43.366236" lon="-1.831453">
        <ele>231.568</ele>
        <time>2019-06-15T13:19:53Z</time>
      </trkpt>
      <trkpt lat="43.366145" lon="-1.831446">
        <ele>232.549</ele>
        <time>2019-06-15T13:19:54Z</time>
      </trkpt>
      <trkpt lat="43.366056" lon="-1.831404">
        <ele>234.198</ele>
        <time>2019-06-15T13:19:55Z</time>
      </trkpt>
      <trkpt lat="43.365958" lon="-1.831340">
        <ele>235.622</ele>
        <time>2019-06-15T13:19:56Z</time>
      </trkpt>
      <trkpt lat="43.365863" lon="-1.831289">
        <ele>236.965</ele>
        <time>2019-06-15T13:19:57Z</time>
      </trkpt>
      <trkpt lat="43.365772" lon="-1.831223">
        <ele>239.468</ele>
        <time>2019-06-15T13:19:58Z</time>
      </trkpt>
      <trkpt lat="43.365680" lon="-1.831140">
        <ele>242.214</ele>
        <time>2019-06-15T13:19:59Z</time>
      </trkpt>
      <trkpt lat="43.365607" lon="-1.831047">
        <ele>244.108</ele>
        <time>2019-06-15T13:20:00Z</time>
      </trkpt>
      <trkpt lat="43.365530" lon="-1.830959">
        <ele>245.969</ele>
        <time>2019-06-15T13:20:01Z</time>
      </trkpt>
      <trkpt lat="43.365599" lon="-1.830706">
        <ele>245.543</ele>
        <time>2019-06-15T13:20:02Z</time>
      </trkpt>
      <trkpt lat="43.365588" lon="-1.830565">
        <ele>246.652</ele>
        <time>2019-06-15T13:20:03Z</time>
      </trkpt>
      <trkpt lat="43.365580" lon="-1.830407">
        <ele>247.211</ele>
        <time>2019-06-15T13:20:04Z</time>
      </trkpt>
      <trkpt lat="43.365568" lon="-1.830249">
        <ele>247.910</ele>
        <time>2019-06-15T13:20:05Z</time>
      </trkpt>
      <trkpt lat="43.365554" lon="-1.830088">
        <ele>248.761</ele>
        <time>2019-06-15T13:20:06Z</time>
      </trkpt>
      <trkpt lat="43.365549" lon="-1.829934">
        <ele>249.940</ele>
        <time>2019-06-15T13:20:07Z</time>
      </trkpt>
      <trkpt lat="43.365541" lon="-1.829797">
        <ele>251.564</ele>
        <time>2019-06-15T13:20:08Z</time>
      </trkpt>
      <trkpt lat="43.365522" lon="-1.829673">
        <ele>253.241</ele>
        <time>2019-06-15T13:20:09Z</time>
      </trkpt>
      <trkpt lat="43.365486" lon="-1.829564">
        <ele>254.881</ele>
        <time>2019-06-15T13:20:10Z</time>
      </trkpt>
      <trkpt lat="43.365438" lon="-1.829493">
        <ele>256.009</ele>
        <time>2019-06-15T13:20:11Z</time>
      </trkpt>
      <trkpt lat="43.365365" lon="-1.829443">
        <ele>257.108</ele>
        <time>2019-06-15T13:20:12Z</time>
      </trkpt>
      <trkpt lat="43.365282" lon="-1.829425">
        <ele>258.357</ele>
        <time>2019-06-15T13:20:13Z</time>
      </trkpt>
      <trkpt lat="43.365195" lon="-1.829429">
        <ele>260.061</ele>
        <time>2019-06-15T13:20:14Z</time>
      </trkpt>
      <trkpt lat="43.365148" lon="-1.829453">
        <ele>260.850</ele>
        <time>2019-06-15T13:20:15Z</time>
      </trkpt>
      <trkpt lat="43.365125" lon="-1.829627">
        <ele>261.379</ele>
        <time>2019-06-15T13:20:16Z</time>
      </trkpt>
      <trkpt lat="43.365091" lon="-1.829747">
        <ele>262.158</ele>
        <time>2019-06-15T13:20:17Z</time>
      </trkpt>
      <trkpt lat="43.365064" lon="-1.829893">
        <ele>262.969</ele>
        <time>2019-06-15T13:20:18Z</time>
      </trkpt>
      <trkpt lat="43.365055" lon="-1.830026">
        <ele>263.448</ele>
        <time>2019-06-15T13:20:19Z</time>
      </trkpt>
      <trkpt lat="43.365041" lon="-1.830167">
        <ele>263.792</ele>
        <time>2019-06-15T13:20:20Z</time>
      </trkpt>
      <trkpt lat="43.365011" lon="-1.830315">
        <ele>264.575</ele>
        <time>2019-06-15T13:20:21Z</time>
      </trkpt>
      <trkpt lat="43.364978" lon="-1.830463">
        <ele>265.028</ele>
        <time>2019-06-15T13:20:22Z</time>
      </trkpt>
      <trkpt lat="43.364941" lon="-1.830604">
        <ele>265.620</ele>
        <time>2019-06-15T13:20:23Z</time>
      </trkpt>
      <trkpt lat="43.364878" lon="-1.830718">
        <ele>267.008</ele>
        <time>2019-06-15T13:20:24Z</time>
      </trkpt>
      <trkpt lat="43.364790" lon="-1.830817">
        <ele>268.630</ele>
        <time>2019-06-15T13:20:25Z</time>
      </trkpt>
      <trkpt lat="43.364703" lon="-1.830913">
        <ele>269.524</ele>
        <time>2019-06-15T13:20:26Z</time>
      </trkpt>
      <trkpt lat="43.364600" lon="-1.830997">
        <ele>270.663</ele>
        <time>2019-06-15T13:20:27Z</time>
      </trkpt>
      <trkpt lat="43.364499" lon="-1.831084">
        <ele>271.452</ele>
        <time>2019-06-15T13:20:28Z</time>
      </trkpt>
      <trkpt lat="43.364401" lon="-1.831175">
        <ele>271.911</ele>
        <time>2019-06-15T13:20:29Z</time>
      </trkpt>
      <trkpt lat="43.364308" lon="-1.831307">
        <ele>272.012</ele>
        <time>2019-06-15T13:20:30Z</time>
      </trkpt>
      <trkpt lat="43.364220" lon="-1.831415">
        <ele>272.611</ele>
        <time>2019-06-15T13:20:31Z</time>
      </trkpt>
      <trkpt lat="43.364149" lon="-1.831526">
        <ele>273.545</ele>
        <time>2019-06-15T13:20:32Z</time>
      </trkpt>
      <trkpt lat="43.364073" lon="-1.831653">
        <ele>274.817</ele>
        <time>2019-06-15T13:20:33Z</time>
      </trkpt>
      <trkpt lat="43.363993" lon="-1.831788">
        <ele>276.787</ele>
        <time>2019-06-15T13:20:34Z</time>
      </trkpt>
      <trkpt lat="43.363913" lon="-1.831919">
        <ele>278.515</ele>
        <time>2019-06-15T13:20:35Z</time>
      </trkpt>
      <trkpt lat="43.363836" lon="-1.832053">
        <ele>279.308</ele>
        <time>2019-06-15T13:20:36Z</time>
      </trkpt>
      <trkpt lat="43.363750" lon="-1.832181">
        <ele>280.094</ele>
        <time>2019-06-15T13:20:37Z</time>
      </trkpt>
      <trkpt lat="43.363669" lon="-1.832312">
        <ele>280.888</ele>
        <time>2019-06-15T13:20:38Z</time>
      </trkpt>
      <trkpt lat="43.363607" lon="-1.832445">
        <ele>281.617</ele>
        <time>2019-06-15T13:20:39Z</time>
      </trkpt>
      <trkpt lat="43.363555" lon="-1.832571">
        <ele>283.886</ele>
        <time>2019-06-15T13:20:40Z</time>
      </trkpt>
      <trkpt lat="43.363512" lon="-1.832696">
        <ele>285.825</ele>
        <time>2019-06-15T13:20:41Z</time>
      </trkpt>
      <trkpt lat="43.363475" lon="-1.832822">
        <ele>287.986</ele>
        <time>2019-06-15T13:20:42Z</time>
      </trkpt>
      <trkpt lat="43.363494" lon="-1.832951">
        <ele>288.615</ele>
        <time>2019-06-15T13:20:43Z</time>
      </trkpt>
      <trkpt lat="43.363578" lon="-1.833097">
        <ele>288.189</ele>
        <time>2019-06-15T13:20:44Z</time>
      </trkpt>
      <trkpt lat="43.363646" lon="-1.833215">
        <ele>288.847</ele>
        <time>2019-06-15T13:20:45Z</time>
      </trkpt>
      <trkpt lat="43.363721" lon="-1.833332">
        <ele>289.429</ele>
        <time>2019-06-15T13:20:46Z</time>
      </trkpt>
      <trkpt lat="43.363786" lon="-1.833455">
        <ele>290.421</ele>
        <time>2019-06-15T13:20:47Z</time>
      </trkpt>
      <trkpt lat="43.363838" lon="-1.833585">
        <ele>292.008</ele>
        <time>2019-06-15T13:20:48Z</time>
      </trkpt>
      <trkpt lat="43.363892" lon="-1.833715">
        <ele>291.657</ele>
        <time>2019-06-15T13:20:49Z</time>
      </trkpt>
      <trkpt lat="43.363908" lon="-1.833874">
        <ele>292.481</ele>
        <time>2019-06-15T13:20:50Z</time>
      </trkpt>
      <trkpt lat="43.363920" lon="-1.834019">
        <ele>293.090</ele>
        <time>2019-06-15T13:20:51Z</time>
      </trkpt>
      <trkpt lat="43.363911" lon="-1.834152">
        <ele>294.289</ele>
        <time>2019-06-15T13:20:52Z</time>
      </trkpt>
      <trkpt lat="43.363884" lon="-1.834296">
        <ele>294.618</ele>
        <time>2019-06-15T13:20:53Z</time>
      </trkpt>
      <trkpt lat="43.363823" lon="-1.834417">
        <ele>295.389</ele>
        <time>2019-06-15T13:20:54Z</time>
      </trkpt>
      <trkpt lat="43.363756" lon="-1.834507">
        <ele>295.658</ele>
        <time>2019-06-15T13:20:55Z</time>
      </trkpt>
      <trkpt lat="43.363668" lon="-1.834585">
        <ele>296.482</ele>
        <time>2019-06-15T13:20:56Z</time>
      </trkpt>
      <trkpt lat="43.363577" lon="-1.834658">
        <ele>297.091</ele>
        <time>2019-06-15T13:20:57Z</time>
      </trkpt>
      <trkpt lat="43.363466" lon="-1.834665">
        <ele>297.981</ele>
        <time>2019-06-15T13:20:58Z</time>
      </trkpt>
      <trkpt lat="43.363359" lon="-1.834661">
        <ele>298.919</ele>
        <time>2019-06-15T13:20:59Z</time>
      </trkpt>
      <trkpt lat="43.363249" lon="-1.834642">
        <ele>299.908</ele>
        <time>2019-06-15T13:21:00Z</time>
      </trkpt>
      <trkpt lat="43.363142" lon="-1.834625">
        <ele>300.642</ele>
        <time>2019-06-15T13:21:01Z</time>
      </trkpt>
      <trkpt lat="43.363040" lon="-1.834609">
        <ele>301.366</ele>
        <time>2019-06-15T13:21:02Z</time>
      </trkpt>
      <trkpt lat="43.362952" lon="-1.834597">
        <ele>301.715</ele>
        <time>2019-06-15T13:21:03Z</time>
      </trkpt>
      <trkpt lat="43.362862" lon="-1.834571">
        <ele>302.344</ele>
        <time>2019-06-15T13:21:04Z</time>
      </trkpt>
      <trkpt lat="43.362773" lon="-1.834551">
        <ele>302.983</ele>
        <time>2019-06-15T13:21:05Z</time>
      </trkpt>
      <trkpt lat="43.362683" lon="-1.834528">
        <ele>303.624</ele>
        <time>2019-06-15T13:21:06Z</time>
      </trkpt>
      <trkpt lat="43.362601" lon="-1.834511">
        <ele>304.293</ele>
        <time>2019-06-15T13:21:07Z</time>
      </trkpt>
      <trkpt lat="43.362519" lon="-1.834492">
        <ele>305.067</ele>
        <time>2019-06-15T13:21:08Z</time>
      </trkpt>
      <trkpt lat="43.362436" lon="-1.834486">
        <ele>305.749</ele>
        <time>2019-06-15T13:21:09Z</time>
      </trkpt>
      <trkpt lat="43.362352" lon="-1.834482">
        <ele>306.502</ele>
        <time>2019-06-15T13:21:10Z</time>
      </trkpt>
      <trkpt lat="43.362263" lon="-1.834487">
        <ele>307.122</ele>
        <time>2019-06-15T13:21:11Z</time>
      </trkpt>
      <trkpt lat="43.362175" lon="-1.834499">
        <ele>307.708</ele>
        <time>2019-06-15T13:21:12Z</time>
      </trkpt>
      <trkpt lat="43.362085" lon="-1.834512">
        <ele>308.427</ele>
        <time>2019-06-15T13:21:13Z</time>
      </trkpt>
      <trkpt lat="43.361996" lon="-1.834535">
        <ele>308.991</ele>
        <time>2019-06-15T13:21:14Z</time>
      </trkpt>
      <trkpt lat="43.361906" lon="-1.834562">
        <ele>309.480</ele>
        <time>2019-06-15T13:21:15Z</time>
      </trkpt>
      <trkpt lat="43.361816" lon="-1.834595">
        <ele>309.959</ele>
        <time>2019-06-15T13:21:16Z</time>
      </trkpt>
      <trkpt lat="43.361723" lon="-1.834630">
        <ele>310.628</ele>
        <time>2019-06-15T13:21:17Z</time>
      </trkpt>
      <trkpt lat="43.361626" lon="-1.834674">
        <ele>311.339</ele>
        <time>2019-06-15T13:21:18Z</time>
      </trkpt>
      <trkpt lat="43.361518" lon="-1.834718">
        <ele>312.238</ele>
        <time>2019-06-15T13:21:19Z</time>
      </trkpt>
      <trkpt lat="43.361405" lon="-1.834771">
        <ele>313.142</ele>
        <time>2019-06-15T13:21:20Z</time>
      </trkpt>
      <trkpt lat="43.361287" lon="-1.834832">
        <ele>314.652</ele>
        <time>2019-06-15T13:21:21Z</time>
      </trkpt>
      <trkpt lat="43.361173" lon="-1.834902">
        <ele>316.153</ele>
        <time>2019-06-15T13:21:22Z</time>
      </trkpt>
      <trkpt lat="43.361061" lon="-1.834984">
        <ele>317.308</ele>
        <time>2019-06-15T13:21:23Z</time>
      </trkpt>
      <trkpt lat="43.360954" lon="-1.835089">
        <ele>318.308</ele>
        <time>2019-06-15T13:21:24Z</time>
      </trkpt>
      <trkpt lat="43.360850" lon="-1.835197">
        <ele>319.528</ele>
        <time>2019-06-15T13:21:25Z</time>
      </trkpt>
      <trkpt lat="43.360751" lon="-1.835324">
        <ele>320.552</ele>
        <time>2019-06-15T13:21:26Z</time>
      </trkpt>
      <trkpt lat="43.360653" lon="-1.835468">
        <ele>321.721</ele>
        <time>2019-06-15T13:21:27Z</time>
      </trkpt>
      <trkpt lat="43.360558" lon="-1.835617">
        <ele>323.570</ele>
        <time>2019-06-15T13:21:28Z</time>
      </trkpt>
      <trkpt lat="43.360472" lon="-1.835773">
        <ele>324.899</ele>
        <time>2019-06-15T13:21:29Z</time>
      </trkpt>
      <trkpt lat="43.360379" lon="-1.835932">
        <ele>326.110</ele>
        <time>2019-06-15T13:21:30Z</time>
      </trkpt>
      <trkpt lat="43.360284" lon="-1.836091">
        <ele>327.149</ele>
        <time>2019-06-15T13:21:31Z</time>
      </trkpt>
      <trkpt lat="43.360190" lon="-1.836243">
        <ele>328.963</ele>
        <time>2019-06-15T13:21:32Z</time>
      </trkpt>
      <trkpt lat="43.360096" lon="-1.836392">
        <ele>329.965</ele>
        <time>2019-06-15T13:21:33Z</time>
      </trkpt>
      <trkpt lat="43.359999" lon="-1.836525">
        <ele>331.068</ele>
        <time>2019-06-15T13:21:34Z</time>
      </trkpt>
      <trkpt lat="43.359907" lon="-1.836657">
        <ele>332.414</ele>
        <time>2019-06-15T13:21:35Z</time>
      </trkpt>
      <trkpt lat="43.359853" lon="-1.836773">
        <ele>332.608</ele>
        <time>2019-06-15T13:21:36Z</time>
      </trkpt>
      <trkpt lat="43.359812" lon="-1.836900">
        <ele>332.519</ele>
        <time>2019-06-15T13:21:37Z</time>
      </trkpt>
      <trkpt lat="43.359777" lon="-1.837023">
        <ele>334.263</ele>
        <time>2019-06-15T13:21:38Z</time>
      </trkpt>
      <trkpt lat="43.359761" lon="-1.837152">
        <ele>336.562</ele>
        <time>2019-06-15T13:21:39Z</time>
      </trkpt>
      <trkpt lat="43.359783" lon="-1.837306">
        <ele>337.741</ele>
        <time>2019-06-15T13:21:40Z</time>
      </trkpt>
      <trkpt lat="43.359839" lon="-1.837473">
        <ele>338.260</ele>
        <time>2019-06-15T13:21:41Z</time>
      </trkpt>
      <trkpt lat="43.359854" lon="-1.837622">
        <ele>338.431</ele>
        <time>2019-06-15T13:21:42Z</time>
      </trkpt>
      <trkpt lat="43.359847" lon="-1.837763">
        <ele>338.810</ele>
        <time>2019-06-15T13:21:43Z</time>
      </trkpt>
      <trkpt lat="43.359815" lon="-1.837907">
        <ele>339.054</ele>
        <time>2019-06-15T13:21:44Z</time>
      </trkpt>
      <trkpt lat="43.359755" lon="-1.838046">
        <ele>340.111</ele>
        <time>2019-06-15T13:21:45Z</time>
      </trkpt>
      <trkpt lat="43.359689" lon="-1.838174">
        <ele>341.721</ele>
        <time>2019-06-15T13:21:46Z</time>
      </trkpt>
      <trkpt lat="43.359617" lon="-1.838300">
        <ele>343.203</ele>
        <time>2019-06-15T13:21:47Z</time>
      </trkpt>
      <trkpt lat="43.359533" lon="-1.838382">
        <ele>345.008</ele>
        <time>2019-06-15T13:21:48Z</time>
      </trkpt>
      <trkpt lat="43.359462" lon="-1.838503">
        <ele>346.224</ele>
        <time>2019-06-15T13:21:49Z</time>
      </trkpt>
      <trkpt lat="43.359420" lon="-1.838655">
        <ele>346.738</ele>
        <time>2019-06-15T13:21:50Z</time>
      </trkpt>
      <trkpt lat="43.359385" lon="-1.838799">
        <ele>347.297</ele>
        <time>2019-06-15T13:21:51Z</time>
      </trkpt>
      <trkpt lat="43.359366" lon="-1.838949">
        <ele>347.396</ele>
        <time>2019-06-15T13:21:52Z</time>
      </trkpt>
      <trkpt lat="43.359347" lon="-1.839089">
        <ele>348.035</ele>
        <time>2019-06-15T13:21:53Z</time>
      </trkpt>
      <trkpt lat="43.359318" lon="-1.839228">
        <ele>349.286</ele>
        <time>2019-06-15T13:21:54Z</time>
      </trkpt>
      <trkpt lat="43.359278" lon="-1.839358">
        <ele>350.655</ele>
        <time>2019-06-15T13:21:55Z</time>
      </trkpt>
      <trkpt lat="43.359226" lon="-1.839473">
        <ele>351.559</ele>
        <time>2019-06-15T13:21:56Z</time>
      </trkpt>
      <trkpt lat="43.359135" lon="-1.839549">
        <ele>352.857</ele>
        <time>2019-06-15T13:21:57Z</time>
      </trkpt>
      <trkpt lat="43.359036" lon="-1.839611">
        <ele>354.100</ele>
        <time>2019-06-15T13:21:58Z</time>
      </trkpt>
      <trkpt lat="43.358936" lon="-1.839676">
        <ele>354.920</ele>
        <time>2019-06-15T13:21:59Z</time>
      </trkpt>
      <trkpt lat="43.358834" lon="-1.839731">
        <ele>355.708</ele>
        <time>2019-06-15T13:22:00Z</time>
      </trkpt>
      <trkpt lat="43.358723" lon="-1.839784">
        <ele>356.618</ele>
        <time>2019-06-15T13:22:01Z</time>
      </trkpt>
      <trkpt lat="43.358612" lon="-1.839836">
        <ele>357.812</ele>
        <time>2019-06-15T13:22:02Z</time>
      </trkpt>
      <trkpt lat="43.358504" lon="-1.839886">
        <ele>358.541</ele>
        <time>2019-06-15T13:22:03Z</time>
      </trkpt>
      <trkpt lat="43.358394" lon="-1.839936">
        <ele>359.220</ele>
        <time>2019-06-15T13:22:04Z</time>
      </trkpt>
      <trkpt lat="43.358285" lon="-1.839986">
        <ele>359.969</ele>
        <time>2019-06-15T13:22:05Z</time>
      </trkpt>
      <trkpt lat="43.358174" lon="-1.840036">
        <ele>361.020</ele>
        <time>2019-06-15T13:22:06Z</time>
      </trkpt>
      <trkpt lat="43.358060" lon="-1.840093">
        <ele>361.919</ele>
        <time>2019-06-15T13:22:07Z</time>
      </trkpt>
      <trkpt lat="43.357935" lon="-1.840152">
        <ele>362.953</ele>
        <time>2019-06-15T13:22:08Z</time>
      </trkpt>
      <trkpt lat="43.357809" lon="-1.840216">
        <ele>363.517</ele>
        <time>2019-06-15T13:22:09Z</time>
      </trkpt>
      <trkpt lat="43.357677" lon="-1.840278">
        <ele>364.887</ele>
        <time>2019-06-15T13:22:10Z</time>
      </trkpt>
      <trkpt lat="43.357545" lon="-1.840343">
        <ele>366.115</ele>
        <time>2019-06-15T13:22:11Z</time>
      </trkpt>
      <trkpt lat="43.357411" lon="-1.840405">
        <ele>367.308</ele>
        <time>2019-06-15T13:22:12Z</time>
      </trkpt>
      <trkpt lat="43.357279" lon="-1.840466">
        <ele>368.674</ele>
        <time>2019-06-15T13:22:13Z</time>
      </trkpt>
      <trkpt lat="43.357158" lon="-1.840530">
        <ele>369.488</ele>
        <time>2019-06-15T13:22:14Z</time>
      </trkpt>
      <trkpt lat="43.357044" lon="-1.840589">
        <ele>370.047</ele>
        <time>2019-06-15T13:22:15Z</time>
      </trkpt>
      <trkpt lat="43.356942" lon="-1.840631">
        <ele>370.986</ele>
        <time>2019-06-15T13:22:16Z</time>
      </trkpt>
      <trkpt lat="43.356848" lon="-1.840663">
        <ele>371.845</ele>
        <time>2019-06-15T13:22:17Z</time>
      </trkpt>
      <trkpt lat="43.356770" lon="-1.840687">
        <ele>372.666</ele>
        <time>2019-06-15T13:22:18Z</time>
      </trkpt>
      <trkpt lat="43.356699" lon="-1.840708">
        <ele>373.395</ele>
        <time>2019-06-15T13:22:19Z</time>
      </trkpt>
      <trkpt lat="43.356612" lon="-1.840721">
        <ele>374.239</ele>
        <time>2019-06-15T13:22:20Z</time>
      </trkpt>
      <trkpt lat="43.356514" lon="-1.840737">
        <ele>375.081</ele>
        <time>2019-06-15T13:22:21Z</time>
      </trkpt>
      <trkpt lat="43.356415" lon="-1.840763">
        <ele>375.761</ele>
        <time>2019-06-15T13:22:22Z</time>
      </trkpt>
      <trkpt lat="43.356308" lon="-1.840785">
        <ele>376.617</ele>
        <time>2019-06-15T13:22:23Z</time>
      </trkpt>
      <trkpt lat="43.356196" lon="-1.840812">
        <ele>377.408</ele>
        <time>2019-06-15T13:22:24Z</time>
      </trkpt>
      <trkpt lat="43.356078" lon="-1.840858">
        <ele>378.061</ele>
        <time>2019-06-15T13:22:25Z</time>
      </trkpt>
      <trkpt lat="43.355957" lon="-1.840922">
        <ele>378.845</ele>
        <time>2019-06-15T13:22:26Z</time>
      </trkpt>
      <trkpt lat="43.355831" lon="-1.840988">
        <ele>379.874</ele>
        <time>2019-06-15T13:22:27Z</time>
      </trkpt>
      <trkpt lat="43.355705" lon="-1.841049">
        <ele>381.233</ele>
        <time>2019-06-15T13:22:28Z</time>
      </trkpt>
      <trkpt lat="43.355574" lon="-1.841120">
        <ele>382.592</ele>
        <time>2019-06-15T13:22:29Z</time>
      </trkpt>
      <trkpt lat="43.355446" lon="-1.841192">
        <ele>383.423</ele>
        <time>2019-06-15T13:22:30Z</time>
      </trkpt>
      <trkpt lat="43.355311" lon="-1.841265">
        <ele>384.392</ele>
        <time>2019-06-15T13:22:31Z</time>
      </trkpt>
      <trkpt lat="43.355180" lon="-1.841332">
        <ele>385.286</ele>
        <time>2019-06-15T13:22:32Z</time>
      </trkpt>
      <trkpt lat="43.355050" lon="-1.841410">
        <ele>386.039</ele>
        <time>2019-06-15T13:22:33Z</time>
      </trkpt>
      <trkpt lat="43.354919" lon="-1.841482">
        <ele>387.201</ele>
        <time>2019-06-15T13:22:34Z</time>
      </trkpt>
      <trkpt lat="43.354799" lon="-1.841555">
        <ele>388.121</ele>
        <time>2019-06-15T13:22:35Z</time>
      </trkpt>
      <trkpt lat="43.354669" lon="-1.841628">
        <ele>389.308</ele>
        <time>2019-06-15T13:22:36Z</time>
      </trkpt>
      <trkpt lat="43.354548" lon="-1.841713">
        <ele>390.616</ele>
        <time>2019-06-15T13:22:37Z</time>
      </trkpt>
      <trkpt lat="43.354437" lon="-1.841820">
        <ele>391.550</ele>
        <time>2019-06-15T13:22:38Z</time>
      </trkpt>
      <trkpt lat="43.354324" lon="-1.841916">
        <ele>392.069</ele>
        <time>2019-06-15T13:22:39Z</time>
      </trkpt>
      <trkpt lat="43.354212" lon="-1.842012">
        <ele>392.838</ele>
        <time>2019-06-15T13:22:40Z</time>
      </trkpt>
      <trkpt lat="43.354102" lon="-1.842105">
        <ele>394.177</ele>
        <time>2019-06-15T13:22:41Z</time>
      </trkpt>
      <trkpt lat="43.353993" lon="-1.842194">
        <ele>395.438</ele>
        <time>2019-06-15T13:22:42Z</time>
      </trkpt>
      <trkpt lat="43.353876" lon="-1.842290">
        <ele>396.597</ele>
        <time>2019-06-15T13:22:43Z</time>
      </trkpt>
      <trkpt lat="43.353759" lon="-1.842386">
        <ele>397.421</ele>
        <time>2019-06-15T13:22:44Z</time>
      </trkpt>
      <trkpt lat="43.353640" lon="-1.842481">
        <ele>398.675</ele>
        <time>2019-06-15T13:22:45Z</time>
      </trkpt>
      <trkpt lat="43.353520" lon="-1.842579">
        <ele>399.728</ele>
        <time>2019-06-15T13:22:46Z</time>
      </trkpt>
      <trkpt lat="43.353394" lon="-1.842694">
        <ele>400.720</ele>
        <time>2019-06-15T13:22:47Z</time>
      </trkpt>
      <trkpt lat="43.353272" lon="-1.842800">
        <ele>401.708</ele>
        <time>2019-06-15T13:22:48Z</time>
      </trkpt>
      <trkpt lat="43.353153" lon="-1.842899">
        <ele>402.520</ele>
        <time>2019-06-15T13:22:49Z</time>
      </trkpt>
      <trkpt lat="43.353036" lon="-1.843000">
        <ele>402.564</ele>
        <time>2019-06-15T13:22:50Z</time>
      </trkpt>
      <trkpt lat="43.352916" lon="-1.843102">
        <ele>402.213</ele>
        <time>2019-06-15T13:22:51Z</time>
      </trkpt>
      <trkpt lat="43.352797" lon="-1.843198">
        <ele>401.922</ele>
        <time>2019-06-15T13:22:52Z</time>
      </trkpt>
      <trkpt lat="43.352689" lon="-1.843289">
        <ele>401.991</ele>
        <time>2019-06-15T13:22:53Z</time>
      </trkpt>
      <trkpt lat="43.352601" lon="-1.843365">
        <ele>402.092</ele>
        <time>2019-06-15T13:22:54Z</time>
      </trkpt>
      <trkpt lat="43.352535" lon="-1.843420">
        <ele>402.161</ele>
        <time>2019-06-15T13:22:55Z</time>
      </trkpt>
      <trkpt lat="43.352487" lon="-1.843459">
        <ele>402.275</ele>
        <time>2019-06-15T13:22:56Z</time>
      </trkpt>
      <trkpt lat="43.352410" lon="-1.843446">
        <ele>402.929</ele>
        <time>2019-06-15T13:22:58Z</time>
      </trkpt>
      <trkpt lat="43.352412" lon="-1.843381">
        <ele>403.100</ele>
        <time>2019-06-15T13:23:00Z</time>
      </trkpt>
      <trkpt lat="43.352458" lon="-1.843297">
        <ele>403.320</ele>
        <time>2019-06-15T13:23:02Z</time>
      </trkpt>
      <trkpt lat="43.352465" lon="-1.843235">
        <ele>403.408</ele>
        <time>2019-06-15T13:23:04Z</time>
      </trkpt>
      <trkpt lat="43.352484" lon="-1.843177">
        <ele>403.615</ele>
        <time>2019-06-15T13:24:34Z</time>
      </trkpt>
      <trkpt lat="43.352510" lon="-1.843233">
        <ele>403.359</ele>
        <time>2019-06-15T13:25:23Z</time>
      </trkpt>
      <trkpt lat="43.352551" lon="-1.843262">
        <ele>402.948</ele>
        <time>2019-06-15T13:25:26Z</time>
      </trkpt>
      <trkpt lat="43.352587" lon="-1.843323">
        <ele>402.487</ele>
        <time>2019-06-15T13:25:30Z</time>
      </trkpt>
      <trkpt lat="43.352597" lon="-1.843397">
        <ele>401.886</ele>
        <time>2019-06-15T13:25:34Z</time>
      </trkpt>
      <trkpt lat="43.352592" lon="-1.843460">
        <ele>401.327</ele>
        <time>2019-06-15T13:25:39Z</time>
      </trkpt>
      <trkpt lat="43.352570" lon="-1.843395">
        <ele>402.066</ele>
        <time>2019-06-15T13:25:49Z</time>
      </trkpt>
      <trkpt lat="43.352568" lon="-1.843316">
        <ele>402.610</ele>
        <time>2019-06-15T13:25:53Z</time>
      </trkpt>
      <trkpt lat="43.352545" lon="-1.843244">
        <ele>403.151</ele>
        <time>2019-06-15T13:25:57Z</time>
      </trkpt>
      <trkpt lat="43.352499" lon="-1.843207">
        <ele>403.501</ele>
        <time>2019-06-15T13:26:01Z</time>
      </trkpt>
      <trkpt lat="43.352454" lon="-1.843191">
        <ele>403.611</ele>
        <time>2019-06-15T13:26:23Z</time>
      </trkpt>
      <trkpt lat="43.352499" lon="-1.843168">
        <ele>403.608</ele>
        <time>2019-06-15T13:26:49Z</time>
      </trkpt>
      <trkpt lat="43.352470" lon="-1.843114">
        <ele>403.898</ele>
        <time>2019-06-15T13:27:00Z</time>
      </trkpt>
      <trkpt lat="43.352446" lon="-1.843055">
        <ele>404.032</ele>
        <time>2019-06-15T13:27:04Z</time>
      </trkpt>
      <trkpt lat="43.352405" lon="-1.843014">
        <ele>404.051</ele>
        <time>2019-06-15T13:27:08Z</time>
      </trkpt>
      <trkpt lat="43.352372" lon="-1.842961">
        <ele>404.030</ele>
        <time>2019-06-15T13:27:12Z</time>
      </trkpt>
      <trkpt lat="43.352342" lon="-1.842909">
        <ele>403.989</ele>
        <time>2019-06-15T13:27:16Z</time>
      </trkpt>
      <trkpt lat="43.352296" lon="-1.842887">
        <ele>403.790</ele>
        <time>2019-06-15T13:27:20Z</time>
      </trkpt>
      <trkpt lat="43.352249" lon="-1.842887">
        <ele>403.529</ele>
        <time>2019-06-15T13:27:24Z</time>
      </trkpt>
      <trkpt lat="43.352293" lon="-1.842933">
        <ele>403.833</ele>
        <time>2019-06-15T13:27:40Z</time>
      </trkpt>
      <trkpt lat="43.352316" lon="-1.842990">
        <ele>403.934</ele>
        <time>2019-06-15T13:27:52Z</time>
      </trkpt>
      <trkpt lat="43.352351" lon="-1.843044">
        <ele>404.055</ele>
        <time>2019-06-15T13:28:01Z</time>
      </trkpt>
      <trkpt lat="43.352387" lon="-1.843092">
        <ele>403.910</ele>
        <time>2019-06-15T13:28:05Z</time>
      </trkpt>
      <trkpt lat="43.352430" lon="-1.843128">
        <ele>403.808</ele>
        <time>2019-06-15T13:28:10Z</time>
      </trkpt>
      <trkpt lat="43.352470" lon="-1.843090">
        <ele>403.966</ele>
        <time>2019-06-15T13:28:15Z</time>
      </trkpt>
      <trkpt lat="43.352477" lon="-1.843161">
        <ele>403.710</ele>
        <time>2019-06-15T13:28:27Z</time>
      </trkpt>
      <trkpt lat="43.352445" lon="-1.843206">
        <ele>403.689</ele>
        <time>2019-06-15T13:29:27Z</time>
      </trkpt>
      <trkpt lat="43.352503" lon="-1.843200">
        <ele>403.528</ele>
        <time>2019-06-15T13:30:09Z</time>
      </trkpt>
      <trkpt lat="43.352562" lon="-1.843257">
        <ele>402.947</ele>
        <time>2019-06-15T13:30:11Z</time>
      </trkpt>
      <trkpt lat="43.352581" lon="-1.843319">
        <ele>402.518</ele>
        <time>2019-06-15T13:30:13Z</time>
      </trkpt>
      <trkpt lat="43.352561" lon="-1.843387">
        <ele>402.137</ele>
        <time>2019-06-15T13:30:19Z</time>
      </trkpt>
      <trkpt lat="43.352506" lon="-1.843501">
        <ele>401.721</ele>
        <time>2019-06-15T13:30:21Z</time>
      </trkpt>
      <trkpt lat="43.352450" lon="-1.843579">
        <ele>401.976</ele>
        <time>2019-06-15T13:30:22Z</time>
      </trkpt>
      <trkpt lat="43.352345" lon="-1.843668">
        <ele>402.690</ele>
        <time>2019-06-15T13:30:23Z</time>
      </trkpt>
      <trkpt lat="43.352282" lon="-1.843764">
        <ele>402.819</ele>
        <time>2019-06-15T13:30:24Z</time>
      </trkpt>
      <trkpt lat="43.352230" lon="-1.843885">
        <ele>402.908</ele>
        <time>2019-06-15T13:30:25Z</time>
      </trkpt>
      <trkpt lat="43.352186" lon="-1.844017">
        <ele>404.280</ele>
        <time>2019-06-15T13:30:26Z</time>
      </trkpt>
      <trkpt lat="43.352142" lon="-1.844152">
        <ele>405.994</ele>
        <time>2019-06-15T13:30:27Z</time>
      </trkpt>
      <trkpt lat="43.352093" lon="-1.844303">
        <ele>407.313</ele>
        <time>2019-06-15T13:30:28Z</time>
      </trkpt>
      <trkpt lat="43.352043" lon="-1.844440">
        <ele>408.572</ele>
        <time>2019-06-15T13:30:29Z</time>
      </trkpt>
      <trkpt lat="43.351989" lon="-1.844570">
        <ele>409.461</ele>
        <time>2019-06-15T13:30:30Z</time>
      </trkpt>
      <trkpt lat="43.351919" lon="-1.844701">
        <ele>410.572</ele>
        <time>2019-06-15T13:30:31Z</time>
      </trkpt>
      <trkpt lat="43.351847" lon="-1.844841">
        <ele>411.061</ele>
        <time>2019-06-15T13:30:32Z</time>
      </trkpt>
      <trkpt lat="43.351764" lon="-1.844986">
        <ele>412.085</ele>
        <time>2019-06-15T13:30:33Z</time>
      </trkpt>
      <trkpt lat="43.351670" lon="-1.845126">
        <ele>413.574</ele>
        <time>2019-06-15T13:30:34Z</time>
      </trkpt>
      <trkpt lat="43.351566" lon="-1.845247">
        <ele>414.956</ele>
        <time>2019-06-15T13:30:35Z</time>
      </trkpt>
      <trkpt lat="43.351453" lon="-1.845366">
        <ele>416.521</ele>
        <time>2019-06-15T13:30:36Z</time>
      </trkpt>
      <trkpt lat="43.351341" lon="-1.845462">
        <ele>418.008</ele>
        <time>2019-06-15T13:30:37Z</time>
      </trkpt>
      <trkpt lat="43.351226" lon="-1.845564">
        <ele>418.770</ele>
        <time>2019-06-15T13:30:38Z</time>
      </trkpt>
      <trkpt lat="43.351132" lon="-1.845671">
        <ele>419.354</ele>
        <time>2019-06-15T13:30:39Z</time>
      </trkpt>
      <trkpt lat="43.351015" lon="-1.845771">
        <ele>420.333</ele>
        <time>2019-06-15T13:30:40Z</time>
      </trkpt>
      <trkpt lat="43.350910" lon="-1.845877">
        <ele>420.822</ele>
        <time>2019-06-15T13:30:41Z</time>
      </trkpt>
      <trkpt lat="43.350798" lon="-1.845965">
        <ele>421.791</ele>
        <time>2019-06-15T13:30:42Z</time>
      </trkpt>
      <trkpt lat="43.350689" lon="-1.846043">
        <ele>423.162</ele>
        <time>2019-06-15T13:30:43Z</time>
      </trkpt>
      <trkpt lat="43.350597" lon="-1.846137">
        <ele>424.261</ele>
        <time>2019-06-15T13:30:44Z</time>
      </trkpt>
      <trkpt lat="43.350516" lon="-1.846211">
        <ele>425.425</ele>
        <time>2019-06-15T13:30:45Z</time>
      </trkpt>
      <trkpt lat="43.350429" lon="-1.846291">
        <ele>426.672</ele>
        <time>2019-06-15T13:30:46Z</time>
      </trkpt>
      <trkpt lat="43.350361" lon="-1.846377">
        <ele>427.513</ele>
        <time>2019-06-15T13:30:47Z</time>
      </trkpt>
      <trkpt lat="43.350311" lon="-1.846464">
        <ele>428.414</ele>
        <time>2019-06-15T13:30:48Z</time>
      </trkpt>
      <trkpt lat="43.350261" lon="-1.846553">
        <ele>429.208</ele>
        <time>2019-06-15T13:30:49Z</time>
      </trkpt>
      <trkpt lat="43.350245" lon="-1.846660">
        <ele>429.580</ele>
        <time>2019-06-15T13:30:50Z</time>
      </trkpt>
      <trkpt lat="43.350247" lon="-1.846807">
        <ele>430.514</ele>
        <time>2019-06-15T13:30:51Z</time>
      </trkpt>
      <trkpt lat="43.350229" lon="-1.846928">
        <ele>431.733</ele>
        <time>2019-06-15T13:30:52Z</time>
      </trkpt>
      <trkpt lat="43.350297" lon="-1.847098">
        <ele>431.872</ele>
        <time>2019-06-15T13:30:53Z</time>
      </trkpt>
      <trkpt lat="43.350309" lon="-1.847209">
        <ele>432.351</ele>
        <time>2019-06-15T13:30:54Z</time>
      </trkpt>
      <trkpt lat="43.350288" lon="-1.847402">
        <ele>434.192</ele>
        <time>2019-06-15T13:30:55Z</time>
      </trkpt>
      <trkpt lat="43.350281" lon="-1.847547">
        <ele>434.941</ele>
        <time>2019-06-15T13:30:56Z</time>
      </trkpt>
      <trkpt lat="43.350251" lon="-1.847701">
        <ele>435.685</ele>
        <time>2019-06-15T13:30:57Z</time>
      </trkpt>
      <trkpt lat="43.350212" lon="-1.847849">
        <ele>436.555</ele>
        <time>2019-06-15T13:30:58Z</time>
      </trkpt>
      <trkpt lat="43.350150" lon="-1.847964">
        <ele>438.107</ele>
        <time>2019-06-15T13:30:59Z</time>
      </trkpt>
      <trkpt lat="43.350084" lon="-1.848093">
        <ele>439.517</ele>
        <time>2019-06-15T13:31:00Z</time>
      </trkpt>
      <trkpt lat="43.350023" lon="-1.848210">
        <ele>440.208</ele>
        <time>2019-06-15T13:31:01Z</time>
      </trkpt>
      <trkpt lat="43.349960" lon="-1.848326">
        <ele>441.118</ele>
        <time>2019-06-15T13:31:02Z</time>
      </trkpt>
      <trkpt lat="43.349931" lon="-1.848440">
        <ele>441.462</ele>
        <time>2019-06-15T13:31:03Z</time>
      </trkpt>
      <trkpt lat="43.349886" lon="-1.848565">
        <ele>442.081</ele>
        <time>2019-06-15T13:31:04Z</time>
      </trkpt>
      <trkpt lat="43.349888" lon="-1.848699">
        <ele>442.510</ele>
        <time>2019-06-15T13:31:05Z</time>
      </trkpt>
      <trkpt lat="43.349889" lon="-1.848822">
        <ele>443.559</ele>
        <time>2019-06-15T13:31:06Z</time>
      </trkpt>
      <trkpt lat="43.349951" lon="-1.848948">
        <ele>443.930</ele>
        <time>2019-06-15T13:31:07Z</time>
      </trkpt>
      <trkpt lat="43.350008" lon="-1.849059">
        <ele>444.919</ele>
        <time>2019-06-15T13:31:08Z</time>
      </trkpt>
      <trkpt lat="43.350086" lon="-1.849157">
        <ele>445.283</ele>
        <time>2019-06-15T13:31:09Z</time>
      </trkpt>
      <trkpt lat="43.350161" lon="-1.849257">
        <ele>446.539</ele>
        <time>2019-06-15T13:31:10Z</time>
      </trkpt>
      <trkpt lat="43.350248" lon="-1.849374">
        <ele>447.801</ele>
        <time>2019-06-15T13:31:11Z</time>
      </trkpt>
      <trkpt lat="43.350322" lon="-1.849486">
        <ele>449.121</ele>
        <time>2019-06-15T13:31:12Z</time>
      </trkpt>
      <trkpt lat="43.350404" lon="-1.849588">
        <ele>449.508</ele>
        <time>2019-06-15T13:31:13Z</time>
      </trkpt>
      <trkpt lat="43.350486" lon="-1.849685">
        <ele>449.726</ele>
        <time>2019-06-15T13:31:14Z</time>
      </trkpt>
      <trkpt lat="43.350554" lon="-1.849778">
        <ele>449.630</ele>
        <time>2019-06-15T13:31:15Z</time>
      </trkpt>
      <trkpt lat="43.350620" lon="-1.849880">
        <ele>449.589</ele>
        <time>2019-06-15T13:31:16Z</time>
      </trkpt>
      <trkpt lat="43.350681" lon="-1.849990">
        <ele>449.658</ele>
        <time>2019-06-15T13:31:17Z</time>
      </trkpt>
      <trkpt lat="43.350707" lon="-1.850127">
        <ele>449.987</ele>
        <time>2019-06-15T13:31:18Z</time>
      </trkpt>
      <trkpt lat="43.350724" lon="-1.850279">
        <ele>450.418</ele>
        <time>2019-06-15T13:31:19Z</time>
      </trkpt>
      <trkpt lat="43.350728" lon="-1.850435">
        <ele>450.827</ele>
        <time>2019-06-15T13:31:20Z</time>
      </trkpt>
      <trkpt lat="43.350737" lon="-1.850590">
        <ele>451.171</ele>
        <time>2019-06-15T13:31:21Z</time>
      </trkpt>
      <trkpt lat="43.350747" lon="-1.850744">
        <ele>451.116</ele>
        <time>2019-06-15T13:31:22Z</time>
      </trkpt>
      <trkpt lat="43.350756" lon="-1.850886">
        <ele>451.176</ele>
        <time>2019-06-15T13:31:23Z</time>
      </trkpt>
      <trkpt lat="43.350771" lon="-1.851027">
        <ele>451.113</ele>
        <time>2019-06-15T13:31:24Z</time>
      </trkpt>
      <trkpt lat="43.350773" lon="-1.851154">
        <ele>451.608</ele>
        <time>2019-06-15T13:31:25Z</time>
      </trkpt>
      <trkpt lat="43.350765" lon="-1.851282">
        <ele>452.684</ele>
        <time>2019-06-15T13:31:26Z</time>
      </trkpt>
      <trkpt lat="43.350744" lon="-1.851411">
        <ele>453.788</ele>
        <time>2019-06-15T13:31:27Z</time>
      </trkpt>
      <trkpt lat="43.350710" lon="-1.851540">
        <ele>454.647</ele>
        <time>2019-06-15T13:31:28Z</time>
      </trkpt>
      <trkpt lat="43.350653" lon="-1.851655">
        <ele>455.036</ele>
        <time>2019-06-15T13:31:29Z</time>
      </trkpt>
      <trkpt lat="43.350582" lon="-1.851743">
        <ele>454.515</ele>
        <time>2019-06-15T13:31:30Z</time>
      </trkpt>
      <trkpt lat="43.350488" lon="-1.851835">
        <ele>454.276</ele>
        <time>2019-06-15T13:31:31Z</time>
      </trkpt>
      <trkpt lat="43.350376" lon="-1.851910">
        <ele>454.125</ele>
        <time>2019-06-15T13:31:32Z</time>
      </trkpt>
      <trkpt lat="43.350259" lon="-1.851975">
        <ele>453.899</ele>
        <time>2019-06-15T13:31:33Z</time>
      </trkpt>
      <trkpt lat="43.350149" lon="-1.852044">
        <ele>453.532</ele>
        <time>2019-06-15T13:31:34Z</time>
      </trkpt>
      <trkpt lat="43.350032" lon="-1.852115">
        <ele>452.892</ele>
        <time>2019-06-15T13:31:35Z</time>
      </trkpt>
      <trkpt lat="43.349926" lon="-1.852195">
        <ele>452.311</ele>
        <time>2019-06-15T13:31:36Z</time>
      </trkpt>
      <trkpt lat="43.349827" lon="-1.852295">
        <ele>451.508</ele>
        <time>2019-06-15T13:31:37Z</time>
      </trkpt>
      <trkpt lat="43.349743" lon="-1.852409">
        <ele>450.496</ele>
        <time>2019-06-15T13:31:38Z</time>
      </trkpt>
      <trkpt lat="43.349667" lon="-1.852532">
        <ele>449.980</ele>
        <time>2019-06-15T13:31:39Z</time>
      </trkpt>
      <trkpt lat="43.349594" lon="-1.852655">
        <ele>449.639</ele>
        <time>2019-06-15T13:31:40Z</time>
      </trkpt>
      <trkpt lat="43.349515" lon="-1.852783">
        <ele>449.698</ele>
        <time>2019-06-15T13:31:41Z</time>
      </trkpt>
      <trkpt lat="43.349431" lon="-1.852906">
        <ele>450.217</ele>
        <time>2019-06-15T13:31:42Z</time>
      </trkpt>
      <trkpt lat="43.349346" lon="-1.853039">
        <ele>450.588</ele>
        <time>2019-06-15T13:31:43Z</time>
      </trkpt>
      <trkpt lat="43.349252" lon="-1.853181">
        <ele>449.917</ele>
        <time>2019-06-15T13:31:44Z</time>
      </trkpt>
      <trkpt lat="43.349154" lon="-1.853333">
        <ele>449.431</ele>
        <time>2019-06-15T13:31:45Z</time>
      </trkpt>
      <trkpt lat="43.349052" lon="-1.853477">
        <ele>448.862</ele>
        <time>2019-06-15T13:31:46Z</time>
      </trkpt>
      <trkpt lat="43.348946" lon="-1.853628">
        <ele>448.583</ele>
        <time>2019-06-15T13:31:47Z</time>
      </trkpt>
      <trkpt lat="43.348843" lon="-1.853780">
        <ele>448.311</ele>
        <time>2019-06-15T13:31:48Z</time>
      </trkpt>
      <trkpt lat="43.348740" lon="-1.853933">
        <ele>447.708</ele>
        <time>2019-06-15T13:31:49Z</time>
      </trkpt>
      <trkpt lat="43.348635" lon="-1.854091">
        <ele>447.769</ele>
        <time>2019-06-15T13:31:50Z</time>
      </trkpt>
      <trkpt lat="43.348541" lon="-1.854257">
        <ele>448.013</ele>
        <time>2019-06-15T13:31:51Z</time>
      </trkpt>
      <trkpt lat="43.348452" lon="-1.854440">
        <ele>447.472</ele>
        <time>2019-06-15T13:31:52Z</time>
      </trkpt>
      <trkpt lat="43.348372" lon="-1.854614">
        <ele>447.221</ele>
        <time>2019-06-15T13:31:53Z</time>
      </trkpt>
      <trkpt lat="43.348303" lon="-1.854786">
        <ele>447.260</ele>
        <time>2019-06-15T13:31:54Z</time>
      </trkpt>
      <trkpt lat="43.348233" lon="-1.854947">
        <ele>447.311</ele>
        <time>2019-06-15T13:31:55Z</time>
      </trkpt>
      <trkpt lat="43.348165" lon="-1.855104">
        <ele>447.430</ele>
        <time>2019-06-15T13:31:56Z</time>
      </trkpt>
      <trkpt lat="43.348096" lon="-1.855257">
        <ele>447.624</ele>
        <time>2019-06-15T13:31:57Z</time>
      </trkpt>
      <trkpt lat="43.348026" lon="-1.855409">
        <ele>448.878</ele>
        <time>2019-06-15T13:31:58Z</time>
      </trkpt>
      <trkpt lat="43.347952" lon="-1.855565">
        <ele>449.533</ele>
        <time>2019-06-15T13:31:59Z</time>
      </trkpt>
      <trkpt lat="43.347871" lon="-1.855722">
        <ele>448.826</ele>
        <time>2019-06-15T13:32:00Z</time>
      </trkpt>
      <trkpt lat="43.347794" lon="-1.855879">
        <ele>448.308</ele>
        <time>2019-06-15T13:32:01Z</time>
      </trkpt>
      <trkpt lat="43.347719" lon="-1.856038">
        <ele>448.150</ele>
        <time>2019-06-15T13:32:02Z</time>
      </trkpt>
      <trkpt lat="43.347646" lon="-1.856200">
        <ele>447.654</ele>
        <time>2019-06-15T13:32:03Z</time>
      </trkpt>
      <trkpt lat="43.347571" lon="-1.856368">
        <ele>447.113</ele>
        <time>2019-06-15T13:32:04Z</time>
      </trkpt>
      <trkpt lat="43.347507" lon="-1.856545">
        <ele>447.412</ele>
        <time>2019-06-15T13:32:05Z</time>
      </trkpt>
      <trkpt lat="43.347451" lon="-1.856728">
        <ele>447.671</ele>
        <time>2019-06-15T13:32:06Z</time>
      </trkpt>
      <trkpt lat="43.347405" lon="-1.856901">
        <ele>447.742</ele>
        <time>2019-06-15T13:32:07Z</time>
      </trkpt>
      <trkpt lat="43.347366" lon="-1.857067">
        <ele>447.911</ele>
        <time>2019-06-15T13:32:08Z</time>
      </trkpt>
      <trkpt lat="43.347330" lon="-1.857207">
        <ele>448.195</ele>
        <time>2019-06-15T13:32:09Z</time>
      </trkpt>
      <trkpt lat="43.347303" lon="-1.857331">
        <ele>448.374</ele>
        <time>2019-06-15T13:32:10Z</time>
      </trkpt>
      <trkpt lat="43.347289" lon="-1.857454">
        <ele>448.056</ele>
        <time>2019-06-15T13:32:11Z</time>
      </trkpt>
      <trkpt lat="43.347290" lon="-1.857564">
        <ele>448.221</ele>
        <time>2019-06-15T13:32:12Z</time>
      </trkpt>
      <trkpt lat="43.347344" lon="-1.857671">
        <ele>447.108</ele>
        <time>2019-06-15T13:32:13Z</time>
      </trkpt>
      <trkpt lat="43.347406" lon="-1.857771">
        <ele>446.660</ele>
        <time>2019-06-15T13:32:14Z</time>
      </trkpt>
      <trkpt lat="43.347472" lon="-1.857868">
        <ele>446.774</ele>
        <time>2019-06-15T13:32:15Z</time>
      </trkpt>
      <trkpt lat="43.347545" lon="-1.857959">
        <ele>446.683</ele>
        <time>2019-06-15T13:32:16Z</time>
      </trkpt>
      <trkpt lat="43.347610" lon="-1.858014">
        <ele>445.952</ele>
        <time>2019-06-15T13:32:17Z</time>
      </trkpt>
      <trkpt lat="43.347653" lon="-1.858091">
        <ele>446.031</ele>
        <time>2019-06-15T13:32:18Z</time>
      </trkpt>
      <trkpt lat="43.347690" lon="-1.858174">
        <ele>446.142</ele>
        <time>2019-06-15T13:32:19Z</time>
      </trkpt>
      <trkpt lat="43.347722" lon="-1.858263">
        <ele>446.711</ele>
        <time>2019-06-15T13:32:20Z</time>
      </trkpt>
      <trkpt lat="43.347713" lon="-1.858348">
        <ele>447.925</ele>
        <time>2019-06-15T13:32:21Z</time>
      </trkpt>
      <trkpt lat="43.347689" lon="-1.858437">
        <ele>447.898</ele>
        <time>2019-06-15T13:32:22Z</time>
      </trkpt>
      <trkpt lat="43.347647" lon="-1.858513">
        <ele>447.915</ele>
        <time>2019-06-15T13:32:23Z</time>
      </trkpt>
      <trkpt lat="43.347591" lon="-1.858566">
        <ele>448.326</ele>
        <time>2019-06-15T13:32:24Z</time>
      </trkpt>
      <trkpt lat="43.347520" lon="-1.858589">
        <ele>448.908</ele>
        <time>2019-06-15T13:32:25Z</time>
      </trkpt>
      <trkpt lat="43.347441" lon="-1.858606">
        <ele>449.032</ele>
        <time>2019-06-15T13:32:26Z</time>
      </trkpt>
      <trkpt lat="43.347351" lon="-1.858627">
        <ele>448.766</ele>
        <time>2019-06-15T13:32:27Z</time>
      </trkpt>
      <trkpt lat="43.347258" lon="-1.858659">
        <ele>448.085</ele>
        <time>2019-06-15T13:32:28Z</time>
      </trkpt>
      <trkpt lat="43.347161" lon="-1.858704">
        <ele>448.084</ele>
        <time>2019-06-15T13:32:29Z</time>
      </trkpt>
      <trkpt lat="43.347071" lon="-1.858765">
        <ele>448.153</ele>
        <time>2019-06-15T13:32:30Z</time>
      </trkpt>
      <trkpt lat="43.346980" lon="-1.858840">
        <ele>447.724</ele>
        <time>2019-06-15T13:32:31Z</time>
      </trkpt>
      <trkpt lat="43.346897" lon="-1.858931">
        <ele>447.213</ele>
        <time>2019-06-15T13:32:32Z</time>
      </trkpt>
      <trkpt lat="43.346808" lon="-1.859029">
        <ele>446.917</ele>
        <time>2019-06-15T13:32:33Z</time>
      </trkpt>
      <trkpt lat="43.346729" lon="-1.859136">
        <ele>446.173</ele>
        <time>2019-06-15T13:32:34Z</time>
      </trkpt>
      <trkpt lat="43.346654" lon="-1.859249">
        <ele>445.185</ele>
        <time>2019-06-15T13:32:35Z</time>
      </trkpt>
      <trkpt lat="43.346577" lon="-1.859356">
        <ele>444.813</ele>
        <time>2019-06-15T13:32:36Z</time>
      </trkpt>
      <trkpt lat="43.346503" lon="-1.859461">
        <ele>444.408</ele>
        <time>2019-06-15T13:32:37Z</time>
      </trkpt>
      <trkpt lat="43.346440" lon="-1.859556">
        <ele>444.210</ele>
        <time>2019-06-15T13:32:38Z</time>
      </trkpt>
      <trkpt lat="43.346381" lon="-1.859651">
        <ele>444.254</ele>
        <time>2019-06-15T13:32:39Z</time>
      </trkpt>
      <trkpt lat="43.346331" lon="-1.859740">
        <ele>444.273</ele>
        <time>2019-06-15T13:32:40Z</time>
      </trkpt>
      <trkpt lat="43.346294" lon="-1.859813">
        <ele>444.042</ele>
        <time>2019-06-15T13:32:41Z</time>
      </trkpt>
      <trkpt lat="43.346261" lon="-1.859885">
        <ele>443.621</ele>
        <time>2019-06-15T13:32:42Z</time>
      </trkpt>
      <trkpt lat="43.346224" lon="-1.859983">
        <ele>442.662</ele>
        <time>2019-06-15T13:32:44Z</time>
      </trkpt>
      <trkpt lat="43.346202" lon="-1.860051">
        <ele>441.711</ele>
        <time>2019-06-15T13:32:46Z</time>
      </trkpt>
      <trkpt lat="43.346163" lon="-1.860014">
        <ele>444.465</ele>
        <time>2019-06-15T13:34:05Z</time>
      </trkpt>
      <trkpt lat="43.346167" lon="-1.860077">
        <ele>442.647</ele>
        <time>2019-06-15T13:35:15Z</time>
      </trkpt>
      <trkpt lat="43.346104" lon="-1.860168">
        <ele>443.129</ele>
        <time>2019-06-15T13:35:17Z</time>
      </trkpt>
      <trkpt lat="43.346053" lon="-1.860235">
        <ele>444.021</ele>
        <time>2019-06-15T13:35:18Z</time>
      </trkpt>
      <trkpt lat="43.345994" lon="-1.860322">
        <ele>444.508</ele>
        <time>2019-06-15T13:35:19Z</time>
      </trkpt>
      <trkpt lat="43.345926" lon="-1.860452">
        <ele>443.727</ele>
        <time>2019-06-15T13:35:20Z</time>
      </trkpt>
      <trkpt lat="43.345868" lon="-1.860583">
        <ele>442.511</ele>
        <time>2019-06-15T13:35:21Z</time>
      </trkpt>
      <trkpt lat="43.345809" lon="-1.860723">
        <ele>442.070</ele>
        <time>2019-06-15T13:35:22Z</time>
      </trkpt>
      <trkpt lat="43.345746" lon="-1.860879">
        <ele>441.339</ele>
        <time>2019-06-15T13:35:23Z</time>
      </trkpt>
      <trkpt lat="43.345688" lon="-1.861033">
        <ele>440.348</ele>
        <time>2019-06-15T13:35:24Z</time>
      </trkpt>
      <trkpt lat="43.345625" lon="-1.861173">
        <ele>440.359</ele>
        <time>2019-06-15T13:35:25Z</time>
      </trkpt>
      <trkpt lat="43.345569" lon="-1.861310">
        <ele>440.768</ele>
        <time>2019-06-15T13:35:26Z</time>
      </trkpt>
      <trkpt lat="43.345512" lon="-1.861454">
        <ele>440.072</ele>
        <time>2019-06-15T13:35:27Z</time>
      </trkpt>
      <trkpt lat="43.345462" lon="-1.861541">
        <ele>439.778</ele>
        <time>2019-06-15T13:35:28Z</time>
      </trkpt>
      <trkpt lat="43.345415" lon="-1.861665">
        <ele>438.633</ele>
        <time>2019-06-15T13:35:29Z</time>
      </trkpt>
      <trkpt lat="43.345376" lon="-1.861784">
        <ele>437.726</ele>
        <time>2019-06-15T13:35:30Z</time>
      </trkpt>
      <trkpt lat="43.345330" lon="-1.861905">
        <ele>437.308</ele>
        <time>2019-06-15T13:35:31Z</time>
      </trkpt>
      <trkpt lat="43.345288" lon="-1.862015">
        <ele>437.510</ele>
        <time>2019-06-15T13:35:32Z</time>
      </trkpt>
      <trkpt lat="43.345234" lon="-1.862101">
        <ele>437.124</ele>
        <time>2019-06-15T13:35:33Z</time>
      </trkpt>
      <trkpt lat="43.345183" lon="-1.862171">
        <ele>436.513</ele>
        <time>2019-06-15T13:35:34Z</time>
      </trkpt>
      <trkpt lat="43.345121" lon="-1.862185">
        <ele>436.742</ele>
        <time>2019-06-15T13:35:35Z</time>
      </trkpt>
      <trkpt lat="43.345052" lon="-1.862181">
        <ele>437.341</ele>
        <time>2019-06-15T13:35:36Z</time>
      </trkpt>
      <trkpt lat="43.344981" lon="-1.862148">
        <ele>438.122</ele>
        <time>2019-06-15T13:35:37Z</time>
      </trkpt>
      <trkpt lat="43.344908" lon="-1.862124">
        <ele>437.721</ele>
        <time>2019-06-15T13:35:38Z</time>
      </trkpt>
      <trkpt lat="43.344844" lon="-1.862122">
        <ele>436.915</ele>
        <time>2019-06-15T13:35:39Z</time>
      </trkpt>
      <trkpt lat="43.344776" lon="-1.862147">
        <ele>435.778</ele>
        <time>2019-06-15T13:35:40Z</time>
      </trkpt>
      <trkpt lat="43.344731" lon="-1.862192">
        <ele>434.533</ele>
        <time>2019-06-15T13:35:41Z</time>
      </trkpt>
      <trkpt lat="43.344688" lon="-1.862248">
        <ele>434.426</ele>
        <time>2019-06-15T13:35:42Z</time>
      </trkpt>
      <trkpt lat="43.344653" lon="-1.862349">
        <ele>434.108</ele>
        <time>2019-06-15T13:35:43Z</time>
      </trkpt>
      <trkpt lat="43.344645" lon="-1.862459">
        <ele>433.260</ele>
        <time>2019-06-15T13:35:44Z</time>
      </trkpt>
      <trkpt lat="43.344633" lon="-1.862594">
        <ele>432.564</ele>
        <time>2019-06-15T13:35:45Z</time>
      </trkpt>
      <trkpt lat="43.344611" lon="-1.862724">
        <ele>432.453</ele>
        <time>2019-06-15T13:35:46Z</time>
      </trkpt>
      <trkpt lat="43.344601" lon="-1.862873">
        <ele>431.772</ele>
        <time>2019-06-15T13:35:47Z</time>
      </trkpt>
      <trkpt lat="43.344557" lon="-1.863016">
        <ele>432.161</ele>
        <time>2019-06-15T13:35:48Z</time>
      </trkpt>
      <trkpt lat="43.344534" lon="-1.863155">
        <ele>431.142</ele>
        <time>2019-06-15T13:35:49Z</time>
      </trkpt>
      <trkpt lat="43.344493" lon="-1.863288">
        <ele>430.461</ele>
        <time>2019-06-15T13:35:50Z</time>
      </trkpt>
      <trkpt lat="43.344459" lon="-1.863387">
        <ele>429.975</ele>
        <time>2019-06-15T13:35:51Z</time>
      </trkpt>
      <trkpt lat="43.344418" lon="-1.863496">
        <ele>429.358</ele>
        <time>2019-06-15T13:35:52Z</time>
      </trkpt>
      <trkpt lat="43.344368" lon="-1.863599">
        <ele>428.852</ele>
        <time>2019-06-15T13:35:53Z</time>
      </trkpt>
      <trkpt lat="43.344319" lon="-1.863684">
        <ele>428.317</ele>
        <time>2019-06-15T13:35:54Z</time>
      </trkpt>
      <trkpt lat="43.344267" lon="-1.863766">
        <ele>427.708</ele>
        <time>2019-06-15T13:35:55Z</time>
      </trkpt>
      <trkpt lat="43.344206" lon="-1.863826">
        <ele>427.658</ele>
        <time>2019-06-15T13:35:56Z</time>
      </trkpt>
      <trkpt lat="43.344121" lon="-1.863871">
        <ele>427.472</ele>
        <time>2019-06-15T13:35:57Z</time>
      </trkpt>
      <trkpt lat="43.344041" lon="-1.863883">
        <ele>427.191</ele>
        <time>2019-06-15T13:35:58Z</time>
      </trkpt>
      <trkpt lat="43.343957" lon="-1.863875">
        <ele>427.480</ele>
        <time>2019-06-15T13:35:59Z</time>
      </trkpt>
      <trkpt lat="43.343880" lon="-1.863858">
        <ele>427.939</ele>
        <time>2019-06-15T13:36:00Z</time>
      </trkpt>
      <trkpt lat="43.343802" lon="-1.863851">
        <ele>428.410</ele>
        <time>2019-06-15T13:36:01Z</time>
      </trkpt>
      <trkpt lat="43.343729" lon="-1.863856">
        <ele>428.539</ele>
        <time>2019-06-15T13:36:02Z</time>
      </trkpt>
      <trkpt lat="43.343662" lon="-1.863887">
        <ele>427.963</ele>
        <time>2019-06-15T13:36:03Z</time>
      </trkpt>
      <trkpt lat="43.343589" lon="-1.863932">
        <ele>427.073</ele>
        <time>2019-06-15T13:36:04Z</time>
      </trkpt>
      <trkpt lat="43.343511" lon="-1.863996">
        <ele>426.185</ele>
        <time>2019-06-15T13:36:05Z</time>
      </trkpt>
      <trkpt lat="43.343431" lon="-1.864060">
        <ele>425.413</ele>
        <time>2019-06-15T13:36:06Z</time>
      </trkpt>
      <trkpt lat="43.343350" lon="-1.864128">
        <ele>424.708</ele>
        <time>2019-06-15T13:36:07Z</time>
      </trkpt>
      <trkpt lat="43.343266" lon="-1.864192">
        <ele>424.380</ele>
        <time>2019-06-15T13:36:08Z</time>
      </trkpt>
      <trkpt lat="43.343186" lon="-1.864245">
        <ele>424.184</ele>
        <time>2019-06-15T13:36:09Z</time>
      </trkpt>
      <trkpt lat="43.343112" lon="-1.864297">
        <ele>423.963</ele>
        <time>2019-06-15T13:36:10Z</time>
      </trkpt>
      <trkpt lat="43.343030" lon="-1.864346">
        <ele>423.742</ele>
        <time>2019-06-15T13:36:11Z</time>
      </trkpt>
      <trkpt lat="43.342926" lon="-1.864393">
        <ele>423.241</ele>
        <time>2019-06-15T13:36:12Z</time>
      </trkpt>
      <trkpt lat="43.342829" lon="-1.864453">
        <ele>422.422</ele>
        <time>2019-06-15T13:36:13Z</time>
      </trkpt>
      <trkpt lat="43.342726" lon="-1.864519">
        <ele>421.971</ele>
        <time>2019-06-15T13:36:14Z</time>
      </trkpt>
      <trkpt lat="43.342638" lon="-1.864584">
        <ele>421.585</ele>
        <time>2019-06-15T13:36:15Z</time>
      </trkpt>
      <trkpt lat="43.342542" lon="-1.864671">
        <ele>420.799</ele>
        <time>2019-06-15T13:36:16Z</time>
      </trkpt>
      <trkpt lat="43.342459" lon="-1.864782">
        <ele>419.707</ele>
        <time>2019-06-15T13:36:17Z</time>
      </trkpt>
      <trkpt lat="43.342375" lon="-1.864900">
        <ele>419.127</ele>
        <time>2019-06-15T13:36:18Z</time>
      </trkpt>
      <trkpt lat="43.342302" lon="-1.865041">
        <ele>417.808</ele>
        <time>2019-06-15T13:36:19Z</time>
      </trkpt>
      <trkpt lat="43.342231" lon="-1.865181">
        <ele>416.892</ele>
        <time>2019-06-15T13:36:20Z</time>
      </trkpt>
      <trkpt lat="43.342166" lon="-1.865326">
        <ele>416.016</ele>
        <time>2019-06-15T13:36:21Z</time>
      </trkpt>
      <trkpt lat="43.342107" lon="-1.865466">
        <ele>415.165</ele>
        <time>2019-06-15T13:36:22Z</time>
      </trkpt>
      <trkpt lat="43.342051" lon="-1.865574">
        <ele>414.714</ele>
        <time>2019-06-15T13:36:23Z</time>
      </trkpt>
      <trkpt lat="43.341980" lon="-1.865716">
        <ele>414.283</ele>
        <time>2019-06-15T13:36:24Z</time>
      </trkpt>
      <trkpt lat="43.341897" lon="-1.865850">
        <ele>413.814</ele>
        <time>2019-06-15T13:36:25Z</time>
      </trkpt>
      <trkpt lat="43.341807" lon="-1.865980">
        <ele>413.333</ele>
        <time>2019-06-15T13:36:26Z</time>
      </trkpt>
      <trkpt lat="43.341717" lon="-1.866094">
        <ele>413.167</ele>
        <time>2019-06-15T13:36:27Z</time>
      </trkpt>
      <trkpt lat="43.341615" lon="-1.866221">
        <ele>412.735</ele>
        <time>2019-06-15T13:36:28Z</time>
      </trkpt>
      <trkpt lat="43.341529" lon="-1.866356">
        <ele>411.786</ele>
        <time>2019-06-15T13:36:29Z</time>
      </trkpt>
      <trkpt lat="43.341448" lon="-1.866511">
        <ele>410.414</ele>
        <time>2019-06-15T13:36:30Z</time>
      </trkpt>
      <trkpt lat="43.341383" lon="-1.866667">
        <ele>409.208</ele>
        <time>2019-06-15T13:36:31Z</time>
      </trkpt>
      <trkpt lat="43.341314" lon="-1.866825">
        <ele>408.776</ele>
        <time>2019-06-15T13:36:32Z</time>
      </trkpt>
      <trkpt lat="43.341247" lon="-1.866983">
        <ele>407.940</ele>
        <time>2019-06-15T13:36:33Z</time>
      </trkpt>
      <trkpt lat="43.341165" lon="-1.867151">
        <ele>407.539</ele>
        <time>2019-06-15T13:36:34Z</time>
      </trkpt>
      <trkpt lat="43.341102" lon="-1.867307">
        <ele>406.768</ele>
        <time>2019-06-15T13:36:35Z</time>
      </trkpt>
      <trkpt lat="43.341025" lon="-1.867466">
        <ele>405.857</ele>
        <time>2019-06-15T13:36:36Z</time>
      </trkpt>
      <trkpt lat="43.340952" lon="-1.867621">
        <ele>404.668</ele>
        <time>2019-06-15T13:36:37Z</time>
      </trkpt>
      <trkpt lat="43.340878" lon="-1.867781">
        <ele>403.787</ele>
        <time>2019-06-15T13:36:38Z</time>
      </trkpt>
      <trkpt lat="43.340806" lon="-1.867943">
        <ele>403.061</ele>
        <time>2019-06-15T13:36:39Z</time>
      </trkpt>
      <trkpt lat="43.340741" lon="-1.868123">
        <ele>402.294</ele>
        <time>2019-06-15T13:36:40Z</time>
      </trkpt>
      <trkpt lat="43.340686" lon="-1.868303">
        <ele>401.357</ele>
        <time>2019-06-15T13:36:41Z</time>
      </trkpt>
      <trkpt lat="43.340645" lon="-1.868460">
        <ele>400.622</ele>
        <time>2019-06-15T13:36:42Z</time>
      </trkpt>
      <trkpt lat="43.340596" lon="-1.868635">
        <ele>400.108</ele>
        <time>2019-06-15T13:36:43Z</time>
      </trkpt>
      <trkpt lat="43.340548" lon="-1.868799">
        <ele>399.632</ele>
        <time>2019-06-15T13:36:44Z</time>
      </trkpt>
      <trkpt lat="43.340501" lon="-1.868970">
        <ele>399.116</ele>
        <time>2019-06-15T13:36:45Z</time>
      </trkpt>
      <trkpt lat="43.340463" lon="-1.869132">
        <ele>398.525</ele>
        <time>2019-06-15T13:36:46Z</time>
      </trkpt>
      <trkpt lat="43.340438" lon="-1.869284">
        <ele>398.164</ele>
        <time>2019-06-15T13:36:47Z</time>
      </trkpt>
      <trkpt lat="43.340435" lon="-1.869412">
        <ele>397.173</ele>
        <time>2019-06-15T13:36:48Z</time>
      </trkpt>
      <trkpt lat="43.340443" lon="-1.869553">
        <ele>396.044</ele>
        <time>2019-06-15T13:36:49Z</time>
      </trkpt>
      <trkpt lat="43.340449" lon="-1.869689">
        <ele>395.273</ele>
        <time>2019-06-15T13:36:50Z</time>
      </trkpt>
      <trkpt lat="43.340440" lon="-1.869829">
        <ele>393.447</ele>
        <time>2019-06-15T13:36:51Z</time>
      </trkpt>
      <trkpt lat="43.340333" lon="-1.869985">
        <ele>393.757</ele>
        <time>2019-06-15T13:36:52Z</time>
      </trkpt>
      <trkpt lat="43.340268" lon="-1.870123">
        <ele>392.600</ele>
        <time>2019-06-15T13:36:53Z</time>
      </trkpt>
      <trkpt lat="43.340200" lon="-1.870268">
        <ele>391.420</ele>
        <time>2019-06-15T13:36:54Z</time>
      </trkpt>
      <trkpt lat="43.340117" lon="-1.870411">
        <ele>391.008</ele>
        <time>2019-06-15T13:36:55Z</time>
      </trkpt>
      <trkpt lat="43.340042" lon="-1.870551">
        <ele>390.058</ele>
        <time>2019-06-15T13:36:56Z</time>
      </trkpt>
      <trkpt lat="43.339966" lon="-1.870686">
        <ele>389.542</ele>
        <time>2019-06-15T13:36:57Z</time>
      </trkpt>
      <trkpt lat="43.339896" lon="-1.870808">
        <ele>388.741</ele>
        <time>2019-06-15T13:36:58Z</time>
      </trkpt>
      <trkpt lat="43.339829" lon="-1.870932">
        <ele>388.010</ele>
        <time>2019-06-15T13:36:59Z</time>
      </trkpt>
      <trkpt lat="43.339754" lon="-1.871048">
        <ele>388.029</ele>
        <time>2019-06-15T13:37:00Z</time>
      </trkpt>
      <trkpt lat="43.339668" lon="-1.871156">
        <ele>387.820</ele>
        <time>2019-06-15T13:37:01Z</time>
      </trkpt>
      <trkpt lat="43.339571" lon="-1.871246">
        <ele>387.359</ele>
        <time>2019-06-15T13:37:02Z</time>
      </trkpt>
      <trkpt lat="43.339467" lon="-1.871298">
        <ele>387.673</ele>
        <time>2019-06-15T13:37:03Z</time>
      </trkpt>
      <trkpt lat="43.339329" lon="-1.871333">
        <ele>388.593</ele>
        <time>2019-06-15T13:37:04Z</time>
      </trkpt>
      <trkpt lat="43.339206" lon="-1.871367">
        <ele>389.065</ele>
        <time>2019-06-15T13:37:05Z</time>
      </trkpt>
      <trkpt lat="43.339077" lon="-1.871411">
        <ele>389.021</ele>
        <time>2019-06-15T13:37:06Z</time>
      </trkpt>
      <trkpt lat="43.338965" lon="-1.871450">
        <ele>388.708</ele>
        <time>2019-06-15T13:37:07Z</time>
      </trkpt>
      <trkpt lat="43.338858" lon="-1.871493">
        <ele>388.372</ele>
        <time>2019-06-15T13:37:08Z</time>
      </trkpt>
      <trkpt lat="43.338759" lon="-1.871543">
        <ele>388.066</ele>
        <time>2019-06-15T13:37:09Z</time>
      </trkpt>
      <trkpt lat="43.338671" lon="-1.871607">
        <ele>387.545</ele>
        <time>2019-06-15T13:37:10Z</time>
      </trkpt>
      <trkpt lat="43.338600" lon="-1.871718">
        <ele>386.674</ele>
        <time>2019-06-15T13:37:11Z</time>
      </trkpt>
      <trkpt lat="43.338541" lon="-1.871858">
        <ele>386.283</ele>
        <time>2019-06-15T13:37:12Z</time>
      </trkpt>
      <trkpt lat="43.338493" lon="-1.872036">
        <ele>385.154</ele>
        <time>2019-06-15T13:37:13Z</time>
      </trkpt>
      <trkpt lat="43.338444" lon="-1.872238">
        <ele>383.843</ele>
        <time>2019-06-15T13:37:14Z</time>
      </trkpt>
      <trkpt lat="43.338390" lon="-1.872448">
        <ele>382.587</ele>
        <time>2019-06-15T13:37:15Z</time>
      </trkpt>
      <trkpt lat="43.338333" lon="-1.872673">
        <ele>380.534</ele>
        <time>2019-06-15T13:37:16Z</time>
      </trkpt>
      <trkpt lat="43.338278" lon="-1.872890">
        <ele>378.855</ele>
        <time>2019-06-15T13:37:17Z</time>
      </trkpt>
      <trkpt lat="43.338220" lon="-1.873097">
        <ele>377.610</ele>
        <time>2019-06-15T13:37:18Z</time>
      </trkpt>
      <trkpt lat="43.338159" lon="-1.873305">
        <ele>376.408</ele>
        <time>2019-06-15T13:37:19Z</time>
      </trkpt>
      <trkpt lat="43.338103" lon="-1.873493">
        <ele>374.996</ele>
        <time>2019-06-15T13:37:20Z</time>
      </trkpt>
      <trkpt lat="43.338043" lon="-1.873703">
        <ele>373.390</ele>
        <time>2019-06-15T13:37:21Z</time>
      </trkpt>
      <trkpt lat="43.337981" lon="-1.873905">
        <ele>372.139</ele>
        <time>2019-06-15T13:37:22Z</time>
      </trkpt>
      <trkpt lat="43.337910" lon="-1.874107">
        <ele>370.168</ele>
        <time>2019-06-15T13:37:23Z</time>
      </trkpt>
      <trkpt lat="43.337835" lon="-1.874309">
        <ele>368.217</ele>
        <time>2019-06-15T13:37:24Z</time>
      </trkpt>
      <trkpt lat="43.337763" lon="-1.874518">
        <ele>366.678</ele>
        <time>2019-06-15T13:37:25Z</time>
      </trkpt>
      <trkpt lat="43.337705" lon="-1.874731">
        <ele>365.877</ele>
        <time>2019-06-15T13:37:26Z</time>
      </trkpt>
      <trkpt lat="43.337658" lon="-1.874930">
        <ele>365.231</ele>
        <time>2019-06-15T13:37:27Z</time>
      </trkpt>
      <trkpt lat="43.337632" lon="-1.875127">
        <ele>364.019</ele>
        <time>2019-06-15T13:37:28Z</time>
      </trkpt>
      <trkpt lat="43.337598" lon="-1.875334">
        <ele>362.509</ele>
        <time>2019-06-15T13:37:29Z</time>
      </trkpt>
      <trkpt lat="43.337570" lon="-1.875537">
        <ele>360.219</ele>
        <time>2019-06-15T13:37:30Z</time>
      </trkpt>
      <trkpt lat="43.337548" lon="-1.875724">
        <ele>358.408</ele>
        <time>2019-06-15T13:37:31Z</time>
      </trkpt>
      <trkpt lat="43.337547" lon="-1.875876">
        <ele>357.064</ele>
        <time>2019-06-15T13:37:32Z</time>
      </trkpt>
      <trkpt lat="43.337556" lon="-1.876048">
        <ele>356.158</ele>
        <time>2019-06-15T13:37:33Z</time>
      </trkpt>
      <trkpt lat="43.337580" lon="-1.876219">
        <ele>354.877</ele>
        <time>2019-06-15T13:37:34Z</time>
      </trkpt>
      <trkpt lat="43.337598" lon="-1.876398">
        <ele>353.566</ele>
        <time>2019-06-15T13:37:35Z</time>
      </trkpt>
      <trkpt lat="43.337604" lon="-1.876585">
        <ele>351.765</ele>
        <time>2019-06-15T13:37:36Z</time>
      </trkpt>
      <trkpt lat="43.337596" lon="-1.876776">
        <ele>349.976</ele>
        <time>2019-06-15T13:37:37Z</time>
      </trkpt>
      <trkpt lat="43.337569" lon="-1.876959">
        <ele>348.675</ele>
        <time>2019-06-15T13:37:38Z</time>
      </trkpt>
      <trkpt lat="43.337539" lon="-1.877134">
        <ele>347.749</ele>
        <time>2019-06-15T13:37:39Z</time>
      </trkpt>
      <trkpt lat="43.337509" lon="-1.877332">
        <ele>346.565</ele>
        <time>2019-06-15T13:37:40Z</time>
      </trkpt>
      <trkpt lat="43.337481" lon="-1.877521">
        <ele>345.168</ele>
        <time>2019-06-15T13:37:41Z</time>
      </trkpt>
      <trkpt lat="43.337442" lon="-1.877686">
        <ele>343.614</ele>
        <time>2019-06-15T13:37:42Z</time>
      </trkpt>
      <trkpt lat="43.337386" lon="-1.877851">
        <ele>342.108</ele>
        <time>2019-06-15T13:37:43Z</time>
      </trkpt>
      <trkpt lat="43.337323" lon="-1.878016">
        <ele>340.559</ele>
        <time>2019-06-15T13:37:44Z</time>
      </trkpt>
      <trkpt lat="43.337259" lon="-1.878178">
        <ele>339.343</ele>
        <time>2019-06-15T13:37:45Z</time>
      </trkpt>
      <trkpt lat="43.337196" lon="-1.878330">
        <ele>338.742</ele>
        <time>2019-06-15T13:37:46Z</time>
      </trkpt>
      <trkpt lat="43.337145" lon="-1.878467">
        <ele>337.951</ele>
        <time>2019-06-15T13:37:47Z</time>
      </trkpt>
      <trkpt lat="43.337097" lon="-1.878574">
        <ele>337.350</ele>
        <time>2019-06-15T13:37:48Z</time>
      </trkpt>
      <trkpt lat="43.337038" lon="-1.878689">
        <ele>336.591</ele>
        <time>2019-06-15T13:37:49Z</time>
      </trkpt>
      <trkpt lat="43.336962" lon="-1.878777">
        <ele>336.150</ele>
        <time>2019-06-15T13:37:50Z</time>
      </trkpt>
      <trkpt lat="43.336883" lon="-1.878859">
        <ele>334.764</ele>
        <time>2019-06-15T13:37:51Z</time>
      </trkpt>
      <trkpt lat="43.336784" lon="-1.878822">
        <ele>335.656</ele>
        <time>2019-06-15T13:37:52Z</time>
      </trkpt>
      <trkpt lat="43.336680" lon="-1.878821">
        <ele>335.759</ele>
        <time>2019-06-15T13:37:53Z</time>
      </trkpt>
      <trkpt lat="43.336577" lon="-1.878849">
        <ele>336.614</ele>
        <time>2019-06-15T13:37:54Z</time>
      </trkpt>
      <trkpt lat="43.336488" lon="-1.878907">
        <ele>336.808</ele>
        <time>2019-06-15T13:37:55Z</time>
      </trkpt>
      <trkpt lat="43.336402" lon="-1.878977">
        <ele>336.848</ele>
        <time>2019-06-15T13:37:56Z</time>
      </trkpt>
      <trkpt lat="43.336352" lon="-1.879146">
        <ele>334.892</ele>
        <time>2019-06-15T13:37:57Z</time>
      </trkpt>
      <trkpt lat="43.336291" lon="-1.879296">
        <ele>333.631</ele>
        <time>2019-06-15T13:37:58Z</time>
      </trkpt>
      <trkpt lat="43.336231" lon="-1.879457">
        <ele>332.670</ele>
        <time>2019-06-15T13:37:59Z</time>
      </trkpt>
      <trkpt lat="43.336172" lon="-1.879617">
        <ele>332.369</ele>
        <time>2019-06-15T13:38:00Z</time>
      </trkpt>
      <trkpt lat="43.336116" lon="-1.879783">
        <ele>331.920</ele>
        <time>2019-06-15T13:38:01Z</time>
      </trkpt>
      <trkpt lat="43.336070" lon="-1.879947">
        <ele>331.559</ele>
        <time>2019-06-15T13:38:02Z</time>
      </trkpt>
      <trkpt lat="43.336048" lon="-1.880137">
        <ele>331.133</ele>
        <time>2019-06-15T13:38:03Z</time>
      </trkpt>
      <trkpt lat="43.336040" lon="-1.880341">
        <ele>330.366</ele>
        <time>2019-06-15T13:38:04Z</time>
      </trkpt>
      <trkpt lat="43.336042" lon="-1.880541">
        <ele>328.629</ele>
        <time>2019-06-15T13:38:05Z</time>
      </trkpt>
      <trkpt lat="43.336041" lon="-1.880752">
        <ele>327.521</ele>
        <time>2019-06-15T13:38:06Z</time>
      </trkpt>
      <trkpt lat="43.336036" lon="-1.880956">
        <ele>326.608</ele>
        <time>2019-06-15T13:38:07Z</time>
      </trkpt>
      <trkpt lat="43.336029" lon="-1.881161">
        <ele>325.769</ele>
        <time>2019-06-15T13:38:08Z</time>
      </trkpt>
      <trkpt lat="43.336028" lon="-1.881368">
        <ele>324.283</ele>
        <time>2019-06-15T13:38:09Z</time>
      </trkpt>
      <trkpt lat="43.336022" lon="-1.881569">
        <ele>322.542</ele>
        <time>2019-06-15T13:38:10Z</time>
      </trkpt>
      <trkpt lat="43.336005" lon="-1.881756">
        <ele>321.531</ele>
        <time>2019-06-15T13:38:11Z</time>
      </trkpt>
      <trkpt lat="43.335979" lon="-1.881958">
        <ele>320.870</ele>
        <time>2019-06-15T13:38:12Z</time>
      </trkpt>
      <trkpt lat="43.335935" lon="-1.882151">
        <ele>320.181</ele>
        <time>2019-06-15T13:38:13Z</time>
      </trkpt>
      <trkpt lat="43.335881" lon="-1.882320">
        <ele>319.480</ele>
        <time>2019-06-15T13:38:14Z</time>
      </trkpt>
      <trkpt lat="43.335810" lon="-1.882504">
        <ele>318.514</ele>
        <time>2019-06-15T13:38:15Z</time>
      </trkpt>
      <trkpt lat="43.335742" lon="-1.882699">
        <ele>317.877</ele>
        <time>2019-06-15T13:38:16Z</time>
      </trkpt>
      <trkpt lat="43.335673" lon="-1.882885">
        <ele>316.061</ele>
        <time>2019-06-15T13:38:17Z</time>
      </trkpt>
      <trkpt lat="43.335608" lon="-1.883074">
        <ele>313.327</ele>
        <time>2019-06-15T13:38:18Z</time>
      </trkpt>
      <trkpt lat="43.335540" lon="-1.883261">
        <ele>311.308</ele>
        <time>2019-06-15T13:38:19Z</time>
      </trkpt>
      <trkpt lat="43.335467" lon="-1.883445">
        <ele>309.320</ele>
        <time>2019-06-15T13:38:20Z</time>
      </trkpt>
      <trkpt lat="43.335394" lon="-1.883632">
        <ele>307.124</ele>
        <time>2019-06-15T13:38:21Z</time>
      </trkpt>
      <trkpt lat="43.335322" lon="-1.883812">
        <ele>305.973</ele>
        <time>2019-06-15T13:38:22Z</time>
      </trkpt>
      <trkpt lat="43.335258" lon="-1.884005">
        <ele>304.422</ele>
        <time>2019-06-15T13:38:23Z</time>
      </trkpt>
      <trkpt lat="43.335203" lon="-1.884160">
        <ele>303.081</ele>
        <time>2019-06-15T13:38:24Z</time>
      </trkpt>
      <trkpt lat="43.335146" lon="-1.884298">
        <ele>302.772</ele>
        <time>2019-06-15T13:38:25Z</time>
      </trkpt>
      <trkpt lat="43.335099" lon="-1.884434">
        <ele>302.321</ele>
        <time>2019-06-15T13:38:26Z</time>
      </trkpt>
      <trkpt lat="43.335069" lon="-1.884557">
        <ele>302.485</ele>
        <time>2019-06-15T13:38:27Z</time>
      </trkpt>
      <trkpt lat="43.335062" lon="-1.884692">
        <ele>301.895</ele>
        <time>2019-06-15T13:38:28Z</time>
      </trkpt>
      <trkpt lat="43.335079" lon="-1.884812">
        <ele>301.349</ele>
        <time>2019-06-15T13:38:29Z</time>
      </trkpt>
      <trkpt lat="43.335129" lon="-1.884918">
        <ele>300.823</ele>
        <time>2019-06-15T13:38:30Z</time>
      </trkpt>
      <trkpt lat="43.335168" lon="-1.885020">
        <ele>301.208</ele>
        <time>2019-06-15T13:38:31Z</time>
      </trkpt>
      <trkpt lat="43.335282" lon="-1.884995">
        <ele>299.962</ele>
        <time>2019-06-15T13:38:32Z</time>
      </trkpt>
      <trkpt lat="43.335383" lon="-1.884974">
        <ele>299.246</ele>
        <time>2019-06-15T13:38:33Z</time>
      </trkpt>
      <trkpt lat="43.335489" lon="-1.884935">
        <ele>297.885</ele>
        <time>2019-06-15T13:38:34Z</time>
      </trkpt>
      <trkpt lat="43.335589" lon="-1.884926">
        <ele>296.654</ele>
        <time>2019-06-15T13:38:35Z</time>
      </trkpt>
      <trkpt lat="43.335682" lon="-1.884916">
        <ele>294.763</ele>
        <time>2019-06-15T13:38:36Z</time>
      </trkpt>
      <trkpt lat="43.335779" lon="-1.884933">
        <ele>293.534</ele>
        <time>2019-06-15T13:38:37Z</time>
      </trkpt>
      <trkpt lat="43.335879" lon="-1.884968">
        <ele>292.073</ele>
        <time>2019-06-15T13:38:38Z</time>
      </trkpt>
      <trkpt lat="43.335959" lon="-1.885004">
        <ele>290.467</ele>
        <time>2019-06-15T13:38:39Z</time>
      </trkpt>
      <trkpt lat="43.336030" lon="-1.885122">
        <ele>289.519</ele>
        <time>2019-06-15T13:38:40Z</time>
      </trkpt>
      <trkpt lat="43.336054" lon="-1.885258">
        <ele>289.909</ele>
        <time>2019-06-15T13:38:41Z</time>
      </trkpt>
      <trkpt lat="43.336067" lon="-1.885400">
        <ele>289.019</ele>
        <time>2019-06-15T13:38:42Z</time>
      </trkpt>
      <trkpt lat="43.336067" lon="-1.885552">
        <ele>288.308</ele>
        <time>2019-06-15T13:38:43Z</time>
      </trkpt>
      <trkpt lat="43.336041" lon="-1.885699">
        <ele>287.014</ele>
        <time>2019-06-15T13:38:44Z</time>
      </trkpt>
      <trkpt lat="43.335994" lon="-1.885869">
        <ele>285.818</ele>
        <time>2019-06-15T13:38:45Z</time>
      </trkpt>
      <trkpt lat="43.335936" lon="-1.886029">
        <ele>285.097</ele>
        <time>2019-06-15T13:38:46Z</time>
      </trkpt>
      <trkpt lat="43.335881" lon="-1.886186">
        <ele>284.446</ele>
        <time>2019-06-15T13:38:47Z</time>
      </trkpt>
      <trkpt lat="43.335821" lon="-1.886349">
        <ele>283.975</ele>
        <time>2019-06-15T13:38:48Z</time>
      </trkpt>
      <trkpt lat="43.335763" lon="-1.886506">
        <ele>282.516</ele>
        <time>2019-06-15T13:38:49Z</time>
      </trkpt>
      <trkpt lat="43.335735" lon="-1.886650">
        <ele>280.595</ele>
        <time>2019-06-15T13:38:50Z</time>
      </trkpt>
      <trkpt lat="43.335717" lon="-1.886821">
        <ele>280.429</ele>
        <time>2019-06-15T13:38:51Z</time>
      </trkpt>
      <trkpt lat="43.335765" lon="-1.886994">
        <ele>278.194</ele>
        <time>2019-06-15T13:38:52Z</time>
      </trkpt>
      <trkpt lat="43.335802" lon="-1.887156">
        <ele>277.057</ele>
        <time>2019-06-15T13:38:53Z</time>
      </trkpt>
      <trkpt lat="43.335830" lon="-1.887323">
        <ele>275.422</ele>
        <time>2019-06-15T13:38:54Z</time>
      </trkpt>
      <trkpt lat="43.335847" lon="-1.887510">
        <ele>273.608</ele>
        <time>2019-06-15T13:38:55Z</time>
      </trkpt>
      <trkpt lat="43.335884" lon="-1.887662">
        <ele>273.612</ele>
        <time>2019-06-15T13:38:56Z</time>
      </trkpt>
      <trkpt lat="43.335910" lon="-1.887827">
        <ele>273.886</ele>
        <time>2019-06-15T13:38:57Z</time>
      </trkpt>
      <trkpt lat="43.335937" lon="-1.887986">
        <ele>273.015</ele>
        <time>2019-06-15T13:38:58Z</time>
      </trkpt>
      <trkpt lat="43.335960" lon="-1.888141">
        <ele>272.234</ele>
        <time>2019-06-15T13:38:59Z</time>
      </trkpt>
      <trkpt lat="43.335985" lon="-1.888287">
        <ele>271.343</ele>
        <time>2019-06-15T13:39:00Z</time>
      </trkpt>
      <trkpt lat="43.336004" lon="-1.888439">
        <ele>270.434</ele>
        <time>2019-06-15T13:39:01Z</time>
      </trkpt>
      <trkpt lat="43.336002" lon="-1.888606">
        <ele>270.073</ele>
        <time>2019-06-15T13:39:02Z</time>
      </trkpt>
      <trkpt lat="43.335985" lon="-1.888779">
        <ele>269.797</ele>
        <time>2019-06-15T13:39:03Z</time>
      </trkpt>
      <trkpt lat="43.335954" lon="-1.888950">
        <ele>269.181</ele>
        <time>2019-06-15T13:39:04Z</time>
      </trkpt>
      <trkpt lat="43.335902" lon="-1.889154">
        <ele>267.161</ele>
        <time>2019-06-15T13:39:05Z</time>
      </trkpt>
      <trkpt lat="43.335843" lon="-1.889370">
        <ele>266.317</ele>
        <time>2019-06-15T13:39:06Z</time>
      </trkpt>
      <trkpt lat="43.335802" lon="-1.889522">
        <ele>265.508</ele>
        <time>2019-06-15T13:39:07Z</time>
      </trkpt>
      <trkpt lat="43.335751" lon="-1.889715">
        <ele>264.151</ele>
        <time>2019-06-15T13:39:08Z</time>
      </trkpt>
      <trkpt lat="43.335703" lon="-1.889914">
        <ele>262.055</ele>
        <time>2019-06-15T13:39:09Z</time>
      </trkpt>
      <trkpt lat="43.335661" lon="-1.890141">
        <ele>259.934</ele>
        <time>2019-06-15T13:39:10Z</time>
      </trkpt>
      <trkpt lat="43.335612" lon="-1.890289">
        <ele>258.153</ele>
        <time>2019-06-15T13:39:11Z</time>
      </trkpt>
      <trkpt lat="43.335564" lon="-1.890487">
        <ele>255.772</ele>
        <time>2019-06-15T13:39:12Z</time>
      </trkpt>
      <trkpt lat="43.335519" lon="-1.890682">
        <ele>254.753</ele>
        <time>2019-06-15T13:39:13Z</time>
      </trkpt>
      <trkpt lat="43.335463" lon="-1.890889">
        <ele>253.752</ele>
        <time>2019-06-15T13:39:14Z</time>
      </trkpt>
      <trkpt lat="43.335408" lon="-1.891106">
        <ele>252.596</ele>
        <time>2019-06-15T13:39:15Z</time>
      </trkpt>
      <trkpt lat="43.335341" lon="-1.891330">
        <ele>251.355</ele>
        <time>2019-06-15T13:39:16Z</time>
      </trkpt>
      <trkpt lat="43.335265" lon="-1.891557">
        <ele>250.107</ele>
        <time>2019-06-15T13:39:17Z</time>
      </trkpt>
      <trkpt lat="43.335175" lon="-1.891789">
        <ele>250.317</ele>
        <time>2019-06-15T13:39:18Z</time>
      </trkpt>
      <trkpt lat="43.335079" lon="-1.891999">
        <ele>251.008</ele>
        <time>2019-06-15T13:39:19Z</time>
      </trkpt>
      <trkpt lat="43.334986" lon="-1.892215">
        <ele>251.338</ele>
        <time>2019-06-15T13:39:20Z</time>
      </trkpt>
      <trkpt lat="43.334898" lon="-1.892416">
        <ele>252.392</ele>
        <time>2019-06-15T13:39:21Z</time>
      </trkpt>
      <trkpt lat="43.334812" lon="-1.892600">
        <ele>254.051</ele>
        <time>2019-06-15T13:39:22Z</time>
      </trkpt>
      <trkpt lat="43.334729" lon="-1.892774">
        <ele>255.090</ele>
        <time>2019-06-15T13:39:23Z</time>
      </trkpt>
      <trkpt lat="43.334654" lon="-1.892921">
        <ele>258.169</ele>
        <time>2019-06-15T13:39:24Z</time>
      </trkpt>
      <trkpt lat="43.334605" lon="-1.893057">
        <ele>260.020</ele>
        <time>2019-06-15T13:39:25Z</time>
      </trkpt>
      <trkpt lat="43.334550" lon="-1.893165">
        <ele>261.759</ele>
        <time>2019-06-15T13:39:26Z</time>
      </trkpt>
      <trkpt lat="43.334500" lon="-1.893268">
        <ele>262.433</ele>
        <time>2019-06-15T13:39:27Z</time>
      </trkpt>
      <trkpt lat="43.334469" lon="-1.893350">
        <ele>262.854</ele>
        <time>2019-06-15T13:39:28Z</time>
      </trkpt>
      <trkpt lat="43.334418" lon="-1.893449">
        <ele>263.956</ele>
        <time>2019-06-15T13:39:29Z</time>
      </trkpt>
      <trkpt lat="43.334372" lon="-1.893544">
        <ele>265.311</ele>
        <time>2019-06-15T13:39:30Z</time>
      </trkpt>
      <trkpt lat="43.334347" lon="-1.893642">
        <ele>266.208</ele>
        <time>2019-06-15T13:39:31Z</time>
      </trkpt>
      <trkpt lat="43.334331" lon="-1.893737">
        <ele>266.678</ele>
        <time>2019-06-15T13:39:32Z</time>
      </trkpt>
      <trkpt lat="43.334312" lon="-1.893841">
        <ele>266.912</ele>
        <time>2019-06-15T13:39:33Z</time>
      </trkpt>
      <trkpt lat="43.334305" lon="-1.893939">
        <ele>267.081</ele>
        <time>2019-06-15T13:39:34Z</time>
      </trkpt>
      <trkpt lat="43.334306" lon="-1.894074">
        <ele>267.050</ele>
        <time>2019-06-15T13:39:35Z</time>
      </trkpt>
      <trkpt lat="43.334301" lon="-1.894203">
        <ele>266.729</ele>
        <time>2019-06-15T13:39:36Z</time>
      </trkpt>
      <trkpt lat="43.334306" lon="-1.894333">
        <ele>266.120</ele>
        <time>2019-06-15T13:39:37Z</time>
      </trkpt>
      <trkpt lat="43.334305" lon="-1.894487">
        <ele>265.159</ele>
        <time>2019-06-15T13:39:38Z</time>
      </trkpt>
      <trkpt lat="43.334305" lon="-1.894587">
        <ele>264.223</ele>
        <time>2019-06-15T13:39:39Z</time>
      </trkpt>
      <trkpt lat="43.334307" lon="-1.894724">
        <ele>263.065</ele>
        <time>2019-06-15T13:39:40Z</time>
      </trkpt>
      <trkpt lat="43.334303" lon="-1.894904">
        <ele>261.368</ele>
        <time>2019-06-15T13:39:41Z</time>
      </trkpt>
      <trkpt lat="43.334300" lon="-1.895079">
        <ele>259.814</ele>
        <time>2019-06-15T13:39:42Z</time>
      </trkpt>
      <trkpt lat="43.334282" lon="-1.895240">
        <ele>258.508</ele>
        <time>2019-06-15T13:39:43Z</time>
      </trkpt>
      <trkpt lat="43.334249" lon="-1.895432">
        <ele>257.779</ele>
        <time>2019-06-15T13:39:44Z</time>
      </trkpt>
      <trkpt lat="43.334213" lon="-1.895616">
        <ele>257.723</ele>
        <time>2019-06-15T13:39:45Z</time>
      </trkpt>
      <trkpt lat="43.334177" lon="-1.895797">
        <ele>258.762</ele>
        <time>2019-06-15T13:39:46Z</time>
      </trkpt>
      <trkpt lat="43.334137" lon="-1.895970">
        <ele>258.611</ele>
        <time>2019-06-15T13:39:47Z</time>
      </trkpt>
      <trkpt lat="43.334089" lon="-1.896140">
        <ele>257.520</ele>
        <time>2019-06-15T13:39:48Z</time>
      </trkpt>
      <trkpt lat="43.334050" lon="-1.896303">
        <ele>256.591</ele>
        <time>2019-06-15T13:39:49Z</time>
      </trkpt>
      <trkpt lat="43.334007" lon="-1.896472">
        <ele>255.570</ele>
        <time>2019-06-15T13:39:50Z</time>
      </trkpt>
      <trkpt lat="43.333966" lon="-1.896644">
        <ele>255.024</ele>
        <time>2019-06-15T13:39:51Z</time>
      </trkpt>
      <trkpt lat="43.333938" lon="-1.896813">
        <ele>255.099</ele>
        <time>2019-06-15T13:39:52Z</time>
      </trkpt>
      <trkpt lat="43.333907" lon="-1.896979">
        <ele>255.207</ele>
        <time>2019-06-15T13:39:53Z</time>
      </trkpt>
      <trkpt lat="43.333881" lon="-1.897138">
        <ele>255.427</ele>
        <time>2019-06-15T13:39:54Z</time>
      </trkpt>
      <trkpt lat="43.333866" lon="-1.897298">
        <ele>255.008</ele>
        <time>2019-06-15T13:39:55Z</time>
      </trkpt>
      <trkpt lat="43.333843" lon="-1.897457">
        <ele>254.222</ele>
        <time>2019-06-15T13:39:56Z</time>
      </trkpt>
      <trkpt lat="43.333825" lon="-1.897620">
        <ele>253.326</ele>
        <time>2019-06-15T13:39:57Z</time>
      </trkpt>
      <trkpt lat="43.333806" lon="-1.897773">
        <ele>252.675</ele>
        <time>2019-06-15T13:39:58Z</time>
      </trkpt>
      <trkpt lat="43.333782" lon="-1.897922">
        <ele>252.694</ele>
        <time>2019-06-15T13:39:59Z</time>
      </trkpt>
      <trkpt lat="43.333747" lon="-1.898091">
        <ele>252.843</ele>
        <time>2019-06-15T13:40:00Z</time>
      </trkpt>
      <trkpt lat="43.333716" lon="-1.898263">
        <ele>253.944</ele>
        <time>2019-06-15T13:40:01Z</time>
      </trkpt>
      <trkpt lat="43.333672" lon="-1.898433">
        <ele>254.543</ele>
        <time>2019-06-15T13:40:02Z</time>
      </trkpt>
      <trkpt lat="43.333628" lon="-1.898590">
        <ele>255.197</ele>
        <time>2019-06-15T13:40:03Z</time>
      </trkpt>
      <trkpt lat="43.333573" lon="-1.898752">
        <ele>254.375</ele>
        <time>2019-06-15T13:40:04Z</time>
      </trkpt>
      <trkpt lat="43.333533" lon="-1.898898">
        <ele>253.928</ele>
        <time>2019-06-15T13:40:05Z</time>
      </trkpt>
      <trkpt lat="43.333489" lon="-1.899053">
        <ele>253.420</ele>
        <time>2019-06-15T13:40:06Z</time>
      </trkpt>
      <trkpt lat="43.333455" lon="-1.899203">
        <ele>253.108</ele>
        <time>2019-06-15T13:40:07Z</time>
      </trkpt>
      <trkpt lat="43.333435" lon="-1.899343">
        <ele>251.960</ele>
        <time>2019-06-15T13:40:08Z</time>
      </trkpt>
      <trkpt lat="43.333431" lon="-1.899462">
        <ele>251.484</ele>
        <time>2019-06-15T13:40:09Z</time>
      </trkpt>
      <trkpt lat="43.333426" lon="-1.899582">
        <ele>250.313</ele>
        <time>2019-06-15T13:40:10Z</time>
      </trkpt>
      <trkpt lat="43.333417" lon="-1.899702">
        <ele>249.262</ele>
        <time>2019-06-15T13:40:11Z</time>
      </trkpt>
      <trkpt lat="43.333401" lon="-1.899839">
        <ele>248.921</ele>
        <time>2019-06-15T13:40:12Z</time>
      </trkpt>
      <trkpt lat="43.333358" lon="-1.899968">
        <ele>248.312</ele>
        <time>2019-06-15T13:40:13Z</time>
      </trkpt>
      <trkpt lat="43.333303" lon="-1.900090">
        <ele>248.611</ele>
        <time>2019-06-15T13:40:14Z</time>
      </trkpt>
      <trkpt lat="43.333241" lon="-1.900214">
        <ele>248.875</ele>
        <time>2019-06-15T13:40:15Z</time>
      </trkpt>
      <trkpt lat="43.333165" lon="-1.900297">
        <ele>247.769</ele>
        <time>2019-06-15T13:40:16Z</time>
      </trkpt>
      <trkpt lat="43.333092" lon="-1.900394">
        <ele>247.604</ele>
        <time>2019-06-15T13:40:17Z</time>
      </trkpt>
      <trkpt lat="43.333026" lon="-1.900482">
        <ele>248.624</ele>
        <time>2019-06-15T13:40:18Z</time>
      </trkpt>
      <trkpt lat="43.332959" lon="-1.900573">
        <ele>249.708</ele>
        <time>2019-06-15T13:40:19Z</time>
      </trkpt>
      <trkpt lat="43.332925" lon="-1.900665">
        <ele>249.579</ele>
        <time>2019-06-15T13:40:20Z</time>
      </trkpt>
      <trkpt lat="43.332899" lon="-1.900780">
        <ele>249.613</ele>
        <time>2019-06-15T13:40:21Z</time>
      </trkpt>
      <trkpt lat="43.332880" lon="-1.900890">
        <ele>248.832</ele>
        <time>2019-06-15T13:40:22Z</time>
      </trkpt>
      <trkpt lat="43.332892" lon="-1.901015">
        <ele>248.161</ele>
        <time>2019-06-15T13:40:23Z</time>
      </trkpt>
      <trkpt lat="43.332915" lon="-1.901144">
        <ele>247.460</ele>
        <time>2019-06-15T13:40:24Z</time>
      </trkpt>
      <trkpt lat="43.332938" lon="-1.901278">
        <ele>245.951</ele>
        <time>2019-06-15T13:40:25Z</time>
      </trkpt>
      <trkpt lat="43.332955" lon="-1.901412">
        <ele>244.320</ele>
        <time>2019-06-15T13:40:26Z</time>
      </trkpt>
      <trkpt lat="43.332950" lon="-1.901571">
        <ele>243.114</ele>
        <time>2019-06-15T13:40:27Z</time>
      </trkpt>
      <trkpt lat="43.332942" lon="-1.901712">
        <ele>242.444</ele>
        <time>2019-06-15T13:40:28Z</time>
      </trkpt>
      <trkpt lat="43.332924" lon="-1.901843">
        <ele>242.605</ele>
        <time>2019-06-15T13:40:29Z</time>
      </trkpt>
      <trkpt lat="43.332900" lon="-1.901941">
        <ele>242.315</ele>
        <time>2019-06-15T13:40:30Z</time>
      </trkpt>
      <trkpt lat="43.332870" lon="-1.902075">
        <ele>241.608</ele>
        <time>2019-06-15T13:40:31Z</time>
      </trkpt>
      <trkpt lat="43.332847" lon="-1.902228">
        <ele>241.747</ele>
        <time>2019-06-15T13:40:32Z</time>
      </trkpt>
      <trkpt lat="43.332834" lon="-1.902378">
        <ele>240.591</ele>
        <time>2019-06-15T13:40:33Z</time>
      </trkpt>
      <trkpt lat="43.332839" lon="-1.902532">
        <ele>239.520</ele>
        <time>2019-06-15T13:40:34Z</time>
      </trkpt>
      <trkpt lat="43.332839" lon="-1.902682">
        <ele>237.679</ele>
        <time>2019-06-15T13:40:35Z</time>
      </trkpt>
      <trkpt lat="43.332844" lon="-1.902855">
        <ele>235.658</ele>
        <time>2019-06-15T13:40:36Z</time>
      </trkpt>
      <trkpt lat="43.332840" lon="-1.903011">
        <ele>233.999</ele>
        <time>2019-06-15T13:40:37Z</time>
      </trkpt>
      <trkpt lat="43.332825" lon="-1.903173">
        <ele>232.788</ele>
        <time>2019-06-15T13:40:38Z</time>
      </trkpt>
      <trkpt lat="43.332814" lon="-1.903332">
        <ele>231.742</ele>
        <time>2019-06-15T13:40:39Z</time>
      </trkpt>
      <trkpt lat="43.332813" lon="-1.903470">
        <ele>230.379</ele>
        <time>2019-06-15T13:40:40Z</time>
      </trkpt>
      <trkpt lat="43.332806" lon="-1.903610">
        <ele>228.705</ele>
        <time>2019-06-15T13:40:41Z</time>
      </trkpt>
      <trkpt lat="43.332798" lon="-1.903741">
        <ele>227.125</ele>
        <time>2019-06-15T13:40:42Z</time>
      </trkpt>
      <trkpt lat="43.332790" lon="-1.903852">
        <ele>225.708</ele>
        <time>2019-06-15T13:40:43Z</time>
      </trkpt>
      <trkpt lat="43.332777" lon="-1.903935">
        <ele>224.710</ele>
        <time>2019-06-15T13:40:44Z</time>
      </trkpt>
      <trkpt lat="43.332755" lon="-1.904038">
        <ele>223.844</ele>
        <time>2019-06-15T13:40:45Z</time>
      </trkpt>
      <trkpt lat="43.332709" lon="-1.904100">
        <ele>223.213</ele>
        <time>2019-06-15T13:40:47Z</time>
      </trkpt>
      <trkpt lat="43.332610" lon="-1.904071">
        <ele>222.942</ele>
        <time>2019-06-15T13:40:49Z</time>
      </trkpt>
      <trkpt lat="43.332568" lon="-1.904041">
        <ele>222.841</ele>
        <time>2019-06-15T13:40:50Z</time>
      </trkpt>
      <trkpt lat="43.332492" lon="-1.903975">
        <ele>222.452</ele>
        <time>2019-06-15T13:40:51Z</time>
      </trkpt>
      <trkpt lat="43.332444" lon="-1.903889">
        <ele>221.261</ele>
        <time>2019-06-15T13:40:52Z</time>
      </trkpt>
      <trkpt lat="43.332399" lon="-1.903797">
        <ele>220.765</ele>
        <time>2019-06-15T13:40:53Z</time>
      </trkpt>
      <trkpt lat="43.332300" lon="-1.903593">
        <ele>219.652</ele>
        <time>2019-06-15T13:40:54Z</time>
      </trkpt>
      <trkpt lat="43.332259" lon="-1.903444">
        <ele>219.053</ele>
        <time>2019-06-15T13:40:55Z</time>
      </trkpt>
      <trkpt lat="43.332203" lon="-1.903268">
        <ele>217.608</ele>
        <time>2019-06-15T13:40:56Z</time>
      </trkpt>
      <trkpt lat="43.332156" lon="-1.903106">
        <ele>216.608</ele>
        <time>2019-06-15T13:40:57Z</time>
      </trkpt>
      <trkpt lat="43.332131" lon="-1.902984">
        <ele>216.068</ele>
        <time>2019-06-15T13:40:58Z</time>
      </trkpt>
      <trkpt lat="43.332113" lon="-1.902834">
        <ele>215.712</ele>
        <time>2019-06-15T13:40:59Z</time>
      </trkpt>
      <trkpt lat="43.332108" lon="-1.902693">
        <ele>215.621</ele>
        <time>2019-06-15T13:41:00Z</time>
      </trkpt>
      <trkpt lat="43.332099" lon="-1.902541">
        <ele>215.120</ele>
        <time>2019-06-15T13:41:01Z</time>
      </trkpt>
      <trkpt lat="43.332064" lon="-1.902395">
        <ele>214.199</ele>
        <time>2019-06-15T13:41:02Z</time>
      </trkpt>
      <trkpt lat="43.332011" lon="-1.902263">
        <ele>213.610</ele>
        <time>2019-06-15T13:41:03Z</time>
      </trkpt>
      <trkpt lat="43.331952" lon="-1.902156">
        <ele>214.019</ele>
        <time>2019-06-15T13:41:04Z</time>
      </trkpt>
      <trkpt lat="43.331850" lon="-1.902042">
        <ele>214.983</ele>
        <time>2019-06-15T13:41:05Z</time>
      </trkpt>
      <trkpt lat="43.331768" lon="-1.901950">
        <ele>215.126</ele>
        <time>2019-06-15T13:41:06Z</time>
      </trkpt>
      <trkpt lat="43.331705" lon="-1.901832">
        <ele>215.147</ele>
        <time>2019-06-15T13:41:07Z</time>
      </trkpt>
      <trkpt lat="43.331650" lon="-1.901696">
        <ele>214.411</ele>
        <time>2019-06-15T13:41:08Z</time>
      </trkpt>
      <trkpt lat="43.331610" lon="-1.901557">
        <ele>212.808</ele>
        <time>2019-06-15T13:41:09Z</time>
      </trkpt>
      <trkpt lat="43.331602" lon="-1.901425">
        <ele>212.155</ele>
        <time>2019-06-15T13:41:10Z</time>
      </trkpt>
      <trkpt lat="43.331610" lon="-1.901266">
        <ele>210.849</ele>
        <time>2019-06-15T13:41:11Z</time>
      </trkpt>
      <trkpt lat="43.331615" lon="-1.901120">
        <ele>209.328</ele>
        <time>2019-06-15T13:41:12Z</time>
      </trkpt>
      <trkpt lat="43.331645" lon="-1.900953">
        <ele>207.417</ele>
        <time>2019-06-15T13:41:13Z</time>
      </trkpt>
      <trkpt lat="43.331682" lon="-1.900806">
        <ele>206.336</ele>
        <time>2019-06-15T13:41:14Z</time>
      </trkpt>
      <trkpt lat="43.331735" lon="-1.900631">
        <ele>204.547</ele>
        <time>2019-06-15T13:41:15Z</time>
      </trkpt>
      <trkpt lat="43.331801" lon="-1.900487">
        <ele>203.646</ele>
        <time>2019-06-15T13:41:16Z</time>
      </trkpt>
      <trkpt lat="43.331873" lon="-1.900346">
        <ele>202.290</ele>
        <time>2019-06-15T13:41:17Z</time>
      </trkpt>
      <trkpt lat="43.331951" lon="-1.900213">
        <ele>201.076</ele>
        <time>2019-06-15T13:41:18Z</time>
      </trkpt>
      <trkpt lat="43.332002" lon="-1.900064">
        <ele>197.690</ele>
        <time>2019-06-15T13:41:19Z</time>
      </trkpt>
      <trkpt lat="43.332105" lon="-1.899949">
        <ele>196.219</ele>
        <time>2019-06-15T13:41:20Z</time>
      </trkpt>
      <trkpt lat="43.332194" lon="-1.899868">
        <ele>195.308</ele>
        <time>2019-06-15T13:41:21Z</time>
      </trkpt>
      <trkpt lat="43.332274" lon="-1.899820">
        <ele>195.980</ele>
        <time>2019-06-15T13:41:22Z</time>
      </trkpt>
      <trkpt lat="43.332358" lon="-1.899750">
        <ele>195.424</ele>
        <time>2019-06-15T13:41:23Z</time>
      </trkpt>
      <trkpt lat="43.332423" lon="-1.899695">
        <ele>195.983</ele>
        <time>2019-06-15T13:41:24Z</time>
      </trkpt>
      <trkpt lat="43.332480" lon="-1.899632">
        <ele>197.032</ele>
        <time>2019-06-15T13:41:25Z</time>
      </trkpt>
      <trkpt lat="43.332541" lon="-1.899535">
        <ele>199.051</ele>
        <time>2019-06-15T13:41:26Z</time>
      </trkpt>
      <trkpt lat="43.332559" lon="-1.899422">
        <ele>199.522</ele>
        <time>2019-06-15T13:41:27Z</time>
      </trkpt>
      <trkpt lat="43.332532" lon="-1.899325">
        <ele>198.761</ele>
        <time>2019-06-15T13:41:28Z</time>
      </trkpt>
      <trkpt lat="43.332519" lon="-1.899230">
        <ele>199.195</ele>
        <time>2019-06-15T13:41:29Z</time>
      </trkpt>
      <trkpt lat="43.332421" lon="-1.899223">
        <ele>197.085</ele>
        <time>2019-06-15T13:41:30Z</time>
      </trkpt>
      <trkpt lat="43.332310" lon="-1.899135">
        <ele>198.289</ele>
        <time>2019-06-15T13:41:31Z</time>
      </trkpt>
      <trkpt lat="43.332168" lon="-1.899110">
        <ele>196.417</ele>
        <time>2019-06-15T13:41:32Z</time>
      </trkpt>
      <trkpt lat="43.332038" lon="-1.899008">
        <ele>195.208</ele>
        <time>2019-06-15T13:41:33Z</time>
      </trkpt>
      <trkpt lat="43.331928" lon="-1.898944">
        <ele>192.971</ele>
        <time>2019-06-15T13:41:34Z</time>
      </trkpt>
      <trkpt lat="43.331823" lon="-1.898850">
        <ele>192.935</ele>
        <time>2019-06-15T13:41:35Z</time>
      </trkpt>
      <trkpt lat="43.331701" lon="-1.898776">
        <ele>192.454</ele>
        <time>2019-06-15T13:41:36Z</time>
      </trkpt>
      <trkpt lat="43.331590" lon="-1.898691">
        <ele>191.143</ele>
        <time>2019-06-15T13:41:37Z</time>
      </trkpt>
      <trkpt lat="43.331486" lon="-1.898605">
        <ele>189.152</ele>
        <time>2019-06-15T13:41:38Z</time>
      </trkpt>
      <trkpt lat="43.331376" lon="-1.898515">
        <ele>187.533</ele>
        <time>2019-06-15T13:41:39Z</time>
      </trkpt>
      <trkpt lat="43.331232" lon="-1.898565">
        <ele>182.232</ele>
        <time>2019-06-15T13:41:40Z</time>
      </trkpt>
      <trkpt lat="43.331088" lon="-1.898504">
        <ele>181.716</ele>
        <time>2019-06-15T13:41:41Z</time>
      </trkpt>
      <trkpt lat="43.330958" lon="-1.898474">
        <ele>179.264</ele>
        <time>2019-06-15T13:41:42Z</time>
      </trkpt>
      <trkpt lat="43.330823" lon="-1.898432">
        <ele>177.106</ele>
        <time>2019-06-15T13:41:43Z</time>
      </trkpt>
      <trkpt lat="43.330693" lon="-1.898407">
        <ele>174.816</ele>
        <time>2019-06-15T13:41:44Z</time>
      </trkpt>
      <trkpt lat="43.330585" lon="-1.898369">
        <ele>173.408</ele>
        <time>2019-06-15T13:41:45Z</time>
      </trkpt>
      <trkpt lat="43.330465" lon="-1.898333">
        <ele>172.719</ele>
        <time>2019-06-15T13:41:46Z</time>
      </trkpt>
      <trkpt lat="43.330366" lon="-1.898301">
        <ele>172.673</ele>
        <time>2019-06-15T13:41:47Z</time>
      </trkpt>
      <trkpt lat="43.330272" lon="-1.898244">
        <ele>173.192</ele>
        <time>2019-06-15T13:41:48Z</time>
      </trkpt>
      <trkpt lat="43.330196" lon="-1.898217">
        <ele>171.831</ele>
        <time>2019-06-15T13:41:49Z</time>
      </trkpt>
      <trkpt lat="43.330125" lon="-1.898172">
        <ele>170.920</ele>
        <time>2019-06-15T13:41:50Z</time>
      </trkpt>
      <trkpt lat="43.330050" lon="-1.898185">
        <ele>168.261</ele>
        <time>2019-06-15T13:41:52Z</time>
      </trkpt>
      <trkpt lat="43.330012" lon="-1.898277">
        <ele>165.350</ele>
        <time>2019-06-15T13:41:54Z</time>
      </trkpt>
      <trkpt lat="43.330105" lon="-1.898460">
        <ele>162.914</ele>
        <time>2019-06-15T13:41:56Z</time>
      </trkpt>
      <trkpt lat="43.330159" lon="-1.898536">
        <ele>161.957</ele>
        <time>2019-06-15T13:41:57Z</time>
      </trkpt>
      <trkpt lat="43.330248" lon="-1.898612">
        <ele>161.400</ele>
        <time>2019-06-15T13:41:58Z</time>
      </trkpt>
      <trkpt lat="43.330345" lon="-1.898673">
        <ele>159.220</ele>
        <time>2019-06-15T13:41:59Z</time>
      </trkpt>
      <trkpt lat="43.330436" lon="-1.898744">
        <ele>156.408</ele>
        <time>2019-06-15T13:42:00Z</time>
      </trkpt>
      <trkpt lat="43.330600" lon="-1.898729">
        <ele>158.798</ele>
        <time>2019-06-15T13:42:01Z</time>
      </trkpt>
      <trkpt lat="43.330729" lon="-1.898786">
        <ele>158.412</ele>
        <time>2019-06-15T13:42:02Z</time>
      </trkpt>
      <trkpt lat="43.330851" lon="-1.898839">
        <ele>158.091</ele>
        <time>2019-06-15T13:42:03Z</time>
      </trkpt>
      <trkpt lat="43.330963" lon="-1.898926">
        <ele>156.810</ele>
        <time>2019-06-15T13:42:04Z</time>
      </trkpt>
      <trkpt lat="43.331074" lon="-1.899002">
        <ele>156.269</ele>
        <time>2019-06-15T13:42:05Z</time>
      </trkpt>
      <trkpt lat="43.331173" lon="-1.899083">
        <ele>156.050</ele>
        <time>2019-06-15T13:42:06Z</time>
      </trkpt>
      <trkpt lat="43.331261" lon="-1.899190">
        <ele>155.089</ele>
        <time>2019-06-15T13:42:07Z</time>
      </trkpt>
      <trkpt lat="43.331346" lon="-1.899296">
        <ele>154.723</ele>
        <time>2019-06-15T13:42:08Z</time>
      </trkpt>
      <trkpt lat="43.331426" lon="-1.899328">
        <ele>157.567</ele>
        <time>2019-06-15T13:42:09Z</time>
      </trkpt>
      <trkpt lat="43.331490" lon="-1.899422">
        <ele>156.781</ele>
        <time>2019-06-15T13:42:10Z</time>
      </trkpt>
      <trkpt lat="43.331553" lon="-1.899521">
        <ele>158.119</ele>
        <time>2019-06-15T13:42:11Z</time>
      </trkpt>
      <trkpt lat="43.331581" lon="-1.899591">
        <ele>159.008</ele>
        <time>2019-06-15T13:42:12Z</time>
      </trkpt>
      <trkpt lat="43.331615" lon="-1.899653">
        <ele>160.449</ele>
        <time>2019-06-15T13:42:13Z</time>
      </trkpt>
      <trkpt lat="43.331646" lon="-1.899735">
        <ele>162.493</ele>
        <time>2019-06-15T13:42:14Z</time>
      </trkpt>
      <trkpt lat="43.331553" lon="-1.899801">
        <ele>159.822</ele>
        <time>2019-06-15T13:42:15Z</time>
      </trkpt>
      <trkpt lat="43.331507" lon="-1.899812">
        <ele>157.491</ele>
        <time>2019-06-15T13:42:16Z</time>
      </trkpt>
      <trkpt lat="43.331420" lon="-1.899933">
        <ele>156.030</ele>
        <time>2019-06-15T13:42:17Z</time>
      </trkpt>
      <trkpt lat="43.331237" lon="-1.900086">
        <ele>150.471</ele>
        <time>2019-06-15T13:42:18Z</time>
      </trkpt>
      <trkpt lat="43.331122" lon="-1.900208">
        <ele>147.360</ele>
        <time>2019-06-15T13:42:19Z</time>
      </trkpt>
      <trkpt lat="43.331002" lon="-1.900354">
        <ele>145.674</ele>
        <time>2019-06-15T13:42:20Z</time>
      </trkpt>
      <trkpt lat="43.330888" lon="-1.900465">
        <ele>143.086</ele>
        <time>2019-06-15T13:42:21Z</time>
      </trkpt>
      <trkpt lat="43.330822" lon="-1.900617">
        <ele>144.360</ele>
        <time>2019-06-15T13:42:22Z</time>
      </trkpt>
      <trkpt lat="43.330743" lon="-1.900714">
        <ele>142.926</ele>
        <time>2019-06-15T13:42:23Z</time>
      </trkpt>
      <trkpt lat="43.330659" lon="-1.900859">
        <ele>142.508</ele>
        <time>2019-06-15T13:42:24Z</time>
      </trkpt>
      <trkpt lat="43.330633" lon="-1.900994">
        <ele>143.471</ele>
        <time>2019-06-15T13:42:25Z</time>
      </trkpt>
      <trkpt lat="43.330613" lon="-1.901099">
        <ele>143.915</ele>
        <time>2019-06-15T13:42:26Z</time>
      </trkpt>
      <trkpt lat="43.330574" lon="-1.901194">
        <ele>144.264</ele>
        <time>2019-06-15T13:42:27Z</time>
      </trkpt>
      <trkpt lat="43.330476" lon="-1.901226">
        <ele>141.393</ele>
        <time>2019-06-15T13:42:28Z</time>
      </trkpt>
      <trkpt lat="43.330404" lon="-1.901220">
        <ele>138.562</ele>
        <time>2019-06-15T13:42:29Z</time>
      </trkpt>
      <trkpt lat="43.330352" lon="-1.901237">
        <ele>137.283</ele>
        <time>2019-06-15T13:42:30Z</time>
      </trkpt>
      <trkpt lat="43.330365" lon="-1.901107">
        <ele>133.052</ele>
        <time>2019-06-15T13:42:31Z</time>
      </trkpt>
      <trkpt lat="43.330387" lon="-1.900992">
        <ele>130.146</ele>
        <time>2019-06-15T13:42:32Z</time>
      </trkpt>
      <trkpt lat="43.330437" lon="-1.900862">
        <ele>129.138</ele>
        <time>2019-06-15T13:42:33Z</time>
      </trkpt>
      <trkpt lat="43.330524" lon="-1.900705">
        <ele>129.870</ele>
        <time>2019-06-15T13:42:34Z</time>
      </trkpt>
      <trkpt lat="43.330610" lon="-1.900586">
        <ele>131.117</ele>
        <time>2019-06-15T13:42:35Z</time>
      </trkpt>
      <trkpt lat="43.330678" lon="-1.900452">
        <ele>130.108</ele>
        <time>2019-06-15T13:42:36Z</time>
      </trkpt>
      <trkpt lat="43.330757" lon="-1.900322">
        <ele>130.056</ele>
        <time>2019-06-15T13:42:37Z</time>
      </trkpt>
      <trkpt lat="43.330844" lon="-1.900217">
        <ele>131.690</ele>
        <time>2019-06-15T13:42:38Z</time>
      </trkpt>
      <trkpt lat="43.330935" lon="-1.900073">
        <ele>132.039</ele>
        <time>2019-06-15T13:42:39Z</time>
      </trkpt>
      <trkpt lat="43.331019" lon="-1.899952">
        <ele>132.528</ele>
        <time>2019-06-15T13:42:40Z</time>
      </trkpt>
      <trkpt lat="43.331072" lon="-1.899840">
        <ele>131.867</ele>
        <time>2019-06-15T13:42:41Z</time>
      </trkpt>
      <trkpt lat="43.331097" lon="-1.899720">
        <ele>129.348</ele>
        <time>2019-06-15T13:42:42Z</time>
      </trkpt>
      <trkpt lat="43.331094" lon="-1.899577">
        <ele>132.417</ele>
        <time>2019-06-15T13:42:43Z</time>
      </trkpt>
      <trkpt lat="43.331122" lon="-1.899451">
        <ele>136.411</ele>
        <time>2019-06-15T13:42:44Z</time>
      </trkpt>
      <trkpt lat="43.331104" lon="-1.899329">
        <ele>141.222</ele>
        <time>2019-06-15T13:42:45Z</time>
      </trkpt>
      <trkpt lat="43.331064" lon="-1.899188">
        <ele>146.562</ele>
        <time>2019-06-15T13:42:46Z</time>
      </trkpt>
      <trkpt lat="43.330973" lon="-1.899132">
        <ele>146.308</ele>
        <time>2019-06-15T13:42:47Z</time>
      </trkpt>
      <trkpt lat="43.330847" lon="-1.899174">
        <ele>140.108</ele>
        <time>2019-06-15T13:42:48Z</time>
      </trkpt>
      <trkpt lat="43.330730" lon="-1.899143">
        <ele>139.455</ele>
        <time>2019-06-15T13:42:49Z</time>
      </trkpt>
      <trkpt lat="43.330553" lon="-1.899255">
        <ele>130.989</ele>
        <time>2019-06-15T13:42:50Z</time>
      </trkpt>
      <trkpt lat="43.330416" lon="-1.899271">
        <ele>129.448</ele>
        <time>2019-06-15T13:42:51Z</time>
      </trkpt>
      <trkpt lat="43.330316" lon="-1.899312">
        <ele>126.987</ele>
        <time>2019-06-15T13:42:52Z</time>
      </trkpt>
      <trkpt lat="43.330188" lon="-1.899356">
        <ele>124.896</ele>
        <time>2019-06-15T13:42:53Z</time>
      </trkpt>
      <trkpt lat="43.330057" lon="-1.899384">
        <ele>124.117</ele>
        <time>2019-06-15T13:42:54Z</time>
      </trkpt>
      <trkpt lat="43.329932" lon="-1.899391">
        <ele>123.456</ele>
        <time>2019-06-15T13:42:55Z</time>
      </trkpt>
      <trkpt lat="43.329807" lon="-1.899392">
        <ele>122.060</ele>
        <time>2019-06-15T13:42:56Z</time>
      </trkpt>
      <trkpt lat="43.329690" lon="-1.899364">
        <ele>121.755</ele>
        <time>2019-06-15T13:42:57Z</time>
      </trkpt>
      <trkpt lat="43.329554" lon="-1.899313">
        <ele>121.507</ele>
        <time>2019-06-15T13:42:58Z</time>
      </trkpt>
      <trkpt lat="43.329439" lon="-1.899268">
        <ele>120.917</ele>
        <time>2019-06-15T13:42:59Z</time>
      </trkpt>
      <trkpt lat="43.329312" lon="-1.899214">
        <ele>118.708</ele>
        <time>2019-06-15T13:43:00Z</time>
      </trkpt>
      <trkpt lat="43.329210" lon="-1.899140">
        <ele>118.198</ele>
        <time>2019-06-15T13:43:01Z</time>
      </trkpt>
      <trkpt lat="43.329112" lon="-1.899086">
        <ele>118.692</ele>
        <time>2019-06-15T13:43:02Z</time>
      </trkpt>
      <trkpt lat="43.329035" lon="-1.899074">
        <ele>119.071</ele>
        <time>2019-06-15T13:43:03Z</time>
      </trkpt>
      <trkpt lat="43.328964" lon="-1.899061">
        <ele>119.370</ele>
        <time>2019-06-15T13:43:04Z</time>
      </trkpt>
      <trkpt lat="43.328907" lon="-1.899184">
        <ele>116.689</ele>
        <time>2019-06-15T13:43:05Z</time>
      </trkpt>
      <trkpt lat="43.328854" lon="-1.899257">
        <ele>117.170</ele>
        <time>2019-06-15T13:43:06Z</time>
      </trkpt>
      <trkpt lat="43.328827" lon="-1.899360">
        <ele>116.729</ele>
        <time>2019-06-15T13:43:07Z</time>
      </trkpt>
      <trkpt lat="43.328786" lon="-1.899502">
        <ele>116.533</ele>
        <time>2019-06-15T13:43:08Z</time>
      </trkpt>
      <trkpt lat="43.328768" lon="-1.899662">
        <ele>114.699</ele>
        <time>2019-06-15T13:43:09Z</time>
      </trkpt>
      <trkpt lat="43.328758" lon="-1.899924">
        <ele>109.507</ele>
        <time>2019-06-15T13:43:10Z</time>
      </trkpt>
      <trkpt lat="43.328732" lon="-1.900071">
        <ele>106.627</ele>
        <time>2019-06-15T13:43:11Z</time>
      </trkpt>
      <trkpt lat="43.328688" lon="-1.900230">
        <ele>103.208</ele>
        <time>2019-06-15T13:43:12Z</time>
      </trkpt>
      <trkpt lat="43.328611" lon="-1.900381">
        <ele>100.342</ele>
        <time>2019-06-15T13:43:13Z</time>
      </trkpt>
      <trkpt lat="43.328535" lon="-1.900509">
        <ele>97.516</ele>
        <time>2019-06-15T13:43:14Z</time>
      </trkpt>
      <trkpt lat="43.328471" lon="-1.900549">
        <ele>97.795</ele>
        <time>2019-06-15T13:43:15Z</time>
      </trkpt>
      <trkpt lat="43.328386" lon="-1.900576">
        <ele>99.054</ele>
        <time>2019-06-15T13:43:16Z</time>
      </trkpt>
      <trkpt lat="43.328306" lon="-1.900628">
        <ele>99.353</ele>
        <time>2019-06-15T13:43:17Z</time>
      </trkpt>
      <trkpt lat="43.328243" lon="-1.900715">
        <ele>98.494</ele>
        <time>2019-06-15T13:43:18Z</time>
      </trkpt>
      <trkpt lat="43.328194" lon="-1.900817">
        <ele>97.413</ele>
        <time>2019-06-15T13:43:19Z</time>
      </trkpt>
      <trkpt lat="43.328146" lon="-1.901000">
        <ele>95.277</ele>
        <time>2019-06-15T13:43:20Z</time>
      </trkpt>
      <trkpt lat="43.328099" lon="-1.901176">
        <ele>93.766</ele>
        <time>2019-06-15T13:43:21Z</time>
      </trkpt>
      <trkpt lat="43.328046" lon="-1.901364">
        <ele>92.129</ele>
        <time>2019-06-15T13:43:22Z</time>
      </trkpt>
      <trkpt lat="43.328000" lon="-1.901552">
        <ele>91.621</ele>
        <time>2019-06-15T13:43:23Z</time>
      </trkpt>
      <trkpt lat="43.327962" lon="-1.901742">
        <ele>90.508</ele>
        <time>2019-06-15T13:43:24Z</time>
      </trkpt>
      <trkpt lat="43.327921" lon="-1.901932">
        <ele>89.519</ele>
        <time>2019-06-15T13:43:25Z</time>
      </trkpt>
      <trkpt lat="43.327889" lon="-1.902103">
        <ele>89.433</ele>
        <time>2019-06-15T13:43:26Z</time>
      </trkpt>
      <trkpt lat="43.327846" lon="-1.902258">
        <ele>89.542</ele>
        <time>2019-06-15T13:43:27Z</time>
      </trkpt>
      <trkpt lat="43.327841" lon="-1.902448">
        <ele>88.321</ele>
        <time>2019-06-15T13:43:28Z</time>
      </trkpt>
      <trkpt lat="43.327830" lon="-1.902635">
        <ele>87.240</ele>
        <time>2019-06-15T13:43:29Z</time>
      </trkpt>
      <trkpt lat="43.327825" lon="-1.902815">
        <ele>85.891</ele>
        <time>2019-06-15T13:43:30Z</time>
      </trkpt>
      <trkpt lat="43.327819" lon="-1.903001">
        <ele>84.210</ele>
        <time>2019-06-15T13:43:31Z</time>
      </trkpt>
      <trkpt lat="43.327813" lon="-1.903180">
        <ele>82.694</ele>
        <time>2019-06-15T13:43:32Z</time>
      </trkpt>
      <trkpt lat="43.327808" lon="-1.903350">
        <ele>81.168</ele>
        <time>2019-06-15T13:43:33Z</time>
      </trkpt>
      <trkpt lat="43.327804" lon="-1.903539">
        <ele>79.342</ele>
        <time>2019-06-15T13:43:34Z</time>
      </trkpt>
      <trkpt lat="43.327799" lon="-1.903733">
        <ele>78.226</ele>
        <time>2019-06-15T13:43:35Z</time>
      </trkpt>
      <trkpt lat="43.327795" lon="-1.903946">
        <ele>77.508</ele>
        <time>2019-06-15T13:43:36Z</time>
      </trkpt>
      <trkpt lat="43.327802" lon="-1.904139">
        <ele>76.679</ele>
        <time>2019-06-15T13:43:37Z</time>
      </trkpt>
      <trkpt lat="43.327826" lon="-1.904289">
        <ele>75.923</ele>
        <time>2019-06-15T13:43:38Z</time>
      </trkpt>
      <trkpt lat="43.327847" lon="-1.904481">
        <ele>75.252</ele>
        <time>2019-06-15T13:43:39Z</time>
      </trkpt>
      <trkpt lat="43.327868" lon="-1.904674">
        <ele>73.921</ele>
        <time>2019-06-15T13:43:40Z</time>
      </trkpt>
      <trkpt lat="43.327882" lon="-1.904857">
        <ele>72.590</ele>
        <time>2019-06-15T13:43:41Z</time>
      </trkpt>
      <trkpt lat="43.327893" lon="-1.905045">
        <ele>71.491</ele>
        <time>2019-06-15T13:43:42Z</time>
      </trkpt>
      <trkpt lat="43.327907" lon="-1.905243">
        <ele>71.340</ele>
        <time>2019-06-15T13:43:43Z</time>
      </trkpt>
      <trkpt lat="43.327940" lon="-1.905428">
        <ele>69.454</ele>
        <time>2019-06-15T13:43:44Z</time>
      </trkpt>
      <trkpt lat="43.327967" lon="-1.905611">
        <ele>67.147</ele>
        <time>2019-06-15T13:43:45Z</time>
      </trkpt>
      <trkpt lat="43.327966" lon="-1.905823">
        <ele>65.629</ele>
        <time>2019-06-15T13:43:46Z</time>
      </trkpt>
      <trkpt lat="43.327964" lon="-1.906046">
        <ele>64.321</ele>
        <time>2019-06-15T13:43:47Z</time>
      </trkpt>
      <trkpt lat="43.327978" lon="-1.906243">
        <ele>62.708</ele>
        <time>2019-06-15T13:43:48Z</time>
      </trkpt>
      <trkpt lat="43.327980" lon="-1.906444">
        <ele>61.657</ele>
        <time>2019-06-15T13:43:49Z</time>
      </trkpt>
      <trkpt lat="43.327990" lon="-1.906626">
        <ele>59.581</ele>
        <time>2019-06-15T13:43:50Z</time>
      </trkpt>
      <trkpt lat="43.327999" lon="-1.906796">
        <ele>57.970</ele>
        <time>2019-06-15T13:43:51Z</time>
      </trkpt>
      <trkpt lat="43.327999" lon="-1.906960">
        <ele>56.879</ele>
        <time>2019-06-15T13:43:52Z</time>
      </trkpt>
      <trkpt lat="43.327992" lon="-1.907127">
        <ele>56.248</ele>
        <time>2019-06-15T13:43:53Z</time>
      </trkpt>
      <trkpt lat="43.327968" lon="-1.907261">
        <ele>56.489</ele>
        <time>2019-06-15T13:43:54Z</time>
      </trkpt>
      <trkpt lat="43.327942" lon="-1.907367">
        <ele>56.148</ele>
        <time>2019-06-15T13:43:55Z</time>
      </trkpt>
      <trkpt lat="43.327899" lon="-1.907542">
        <ele>55.252</ele>
        <time>2019-06-15T13:43:56Z</time>
      </trkpt>
      <trkpt lat="43.327862" lon="-1.907759">
        <ele>54.169</ele>
        <time>2019-06-15T13:43:57Z</time>
      </trkpt>
      <trkpt lat="43.327820" lon="-1.907958">
        <ele>52.204</ele>
        <time>2019-06-15T13:43:58Z</time>
      </trkpt>
      <trkpt lat="43.327781" lon="-1.908149">
        <ele>48.824</ele>
        <time>2019-06-15T13:43:59Z</time>
      </trkpt>
      <trkpt lat="43.327750" lon="-1.908329">
        <ele>47.708</ele>
        <time>2019-06-15T13:44:00Z</time>
      </trkpt>
      <trkpt lat="43.327707" lon="-1.908536">
        <ele>49.069</ele>
        <time>2019-06-15T13:44:01Z</time>
      </trkpt>
      <trkpt lat="43.327680" lon="-1.908717">
        <ele>48.653</ele>
        <time>2019-06-15T13:44:02Z</time>
      </trkpt>
      <trkpt lat="43.327649" lon="-1.908885">
        <ele>47.422</ele>
        <time>2019-06-15T13:44:03Z</time>
      </trkpt>
      <trkpt lat="43.327609" lon="-1.909048">
        <ele>46.481</ele>
        <time>2019-06-15T13:44:04Z</time>
      </trkpt>
      <trkpt lat="43.327563" lon="-1.909210">
        <ele>43.890</ele>
        <time>2019-06-15T13:44:05Z</time>
      </trkpt>
      <trkpt lat="43.327509" lon="-1.909367">
        <ele>39.151</ele>
        <time>2019-06-15T13:44:06Z</time>
      </trkpt>
      <trkpt lat="43.327471" lon="-1.909470">
        <ele>37.750</ele>
        <time>2019-06-15T13:44:07Z</time>
      </trkpt>
      <trkpt lat="43.327437" lon="-1.909521">
        <ele>38.064</ele>
        <time>2019-06-15T13:44:08Z</time>
      </trkpt>
      <trkpt lat="43.327367" lon="-1.909593">
        <ele>37.379</ele>
        <time>2019-06-15T13:44:09Z</time>
      </trkpt>
      <trkpt lat="43.327251" lon="-1.909704">
        <ele>32.505</ele>
        <time>2019-06-15T13:44:10Z</time>
      </trkpt>
      <trkpt lat="43.327152" lon="-1.909750">
        <ele>31.025</ele>
        <time>2019-06-15T13:44:11Z</time>
      </trkpt>
      <trkpt lat="43.327041" lon="-1.909784">
        <ele>30.608</ele>
        <time>2019-06-15T13:44:12Z</time>
      </trkpt>
      <trkpt lat="43.326909" lon="-1.909794">
        <ele>29.670</ele>
        <time>2019-06-15T13:44:13Z</time>
      </trkpt>
      <trkpt lat="43.326767" lon="-1.909801">
        <ele>27.884</ele>
        <time>2019-06-15T13:44:14Z</time>
      </trkpt>
      <trkpt lat="43.326610" lon="-1.909817">
        <ele>25.653</ele>
        <time>2019-06-15T13:44:15Z</time>
      </trkpt>
      <trkpt lat="43.326464" lon="-1.909835">
        <ele>23.662</ele>
        <time>2019-06-15T13:44:16Z</time>
      </trkpt>
      <trkpt lat="43.326314" lon="-1.909860">
        <ele>22.181</ele>
        <time>2019-06-15T13:44:17Z</time>
      </trkpt>
      <trkpt lat="43.326163" lon="-1.909887">
        <ele>21.132</ele>
        <time>2019-06-15T13:44:18Z</time>
      </trkpt>
      <trkpt lat="43.326036" lon="-1.909924">
        <ele>20.661</ele>
        <time>2019-06-15T13:44:19Z</time>
      </trkpt>
      <trkpt lat="43.325906" lon="-1.909969">
        <ele>19.865</ele>
        <time>2019-06-15T13:44:20Z</time>
      </trkpt>
      <trkpt lat="43.325774" lon="-1.910004">
        <ele>18.211</ele>
        <time>2019-06-15T13:44:21Z</time>
      </trkpt>
      <trkpt lat="43.325643" lon="-1.910016">
        <ele>16.421</ele>
        <time>2019-06-15T13:44:22Z</time>
      </trkpt>
      <trkpt lat="43.325501" lon="-1.909952">
        <ele>15.903</ele>
        <time>2019-06-15T13:44:23Z</time>
      </trkpt>
      <trkpt lat="43.325360" lon="-1.909948">
        <ele>14.608</ele>
        <time>2019-06-15T13:44:24Z</time>
      </trkpt>
      <trkpt lat="43.325239" lon="-1.909933">
        <ele>14.164</ele>
        <time>2019-06-15T13:44:25Z</time>
      </trkpt>
      <trkpt lat="43.325110" lon="-1.909880">
        <ele>14.658</ele>
        <time>2019-06-15T13:44:26Z</time>
      </trkpt>
      <trkpt lat="43.324990" lon="-1.909842">
        <ele>14.477</ele>
        <time>2019-06-15T13:44:27Z</time>
      </trkpt>
      <trkpt lat="43.324880" lon="-1.909814">
        <ele>13.646</ele>
        <time>2019-06-15T13:44:28Z</time>
      </trkpt>
      <trkpt lat="43.324793" lon="-1.909788">
        <ele>13.165</ele>
        <time>2019-06-15T13:44:29Z</time>
      </trkpt>
      <trkpt lat="43.324721" lon="-1.909776">
        <ele>12.416</ele>
        <time>2019-06-15T13:44:30Z</time>
      </trkpt>
      <trkpt lat="43.324667" lon="-1.909762">
        <ele>11.895</ele>
        <time>2019-06-15T13:44:31Z</time>
      </trkpt>
      <trkpt lat="43.324604" lon="-1.909768">
        <ele>10.539</ele>
        <time>2019-06-15T13:44:32Z</time>
      </trkpt>
      <trkpt lat="43.324533" lon="-1.909776">
        <ele>9.098</ele>
        <time>2019-06-15T13:44:33Z</time>
      </trkpt>
      <trkpt lat="43.324449" lon="-1.909716">
        <ele>8.315</ele>
        <time>2019-06-15T13:44:36Z</time>
      </trkpt>
      <trkpt lat="43.324408" lon="-1.909645">
        <ele>9.226</ele>
        <time>2019-06-15T13:44:37Z</time>
      </trkpt>
      <trkpt lat="43.324366" lon="-1.909531">
        <ele>10.308</ele>
        <time>2019-06-15T13:44:38Z</time>
      </trkpt>
      <trkpt lat="43.324334" lon="-1.909403">
        <ele>11.572</ele>
        <time>2019-06-15T13:44:39Z</time>
      </trkpt>
      <trkpt lat="43.324296" lon="-1.909265">
        <ele>12.236</ele>
        <time>2019-06-15T13:44:40Z</time>
      </trkpt>
      <trkpt lat="43.324262" lon="-1.909137">
        <ele>12.485</ele>
        <time>2019-06-15T13:44:41Z</time>
      </trkpt>
      <trkpt lat="43.324220" lon="-1.908992">
        <ele>12.694</ele>
        <time>2019-06-15T13:44:42Z</time>
      </trkpt>
      <trkpt lat="43.324175" lon="-1.908838">
        <ele>12.153</ele>
        <time>2019-06-15T13:44:43Z</time>
      </trkpt>
      <trkpt lat="43.324145" lon="-1.908678">
        <ele>12.644</ele>
        <time>2019-06-15T13:44:44Z</time>
      </trkpt>
      <trkpt lat="43.324114" lon="-1.908511">
        <ele>13.243</ele>
        <time>2019-06-15T13:44:45Z</time>
      </trkpt>
      <trkpt lat="43.324103" lon="-1.908353">
        <ele>14.437</ele>
        <time>2019-06-15T13:44:46Z</time>
      </trkpt>
      <trkpt lat="43.324085" lon="-1.908181">
        <ele>13.448</ele>
        <time>2019-06-15T13:44:47Z</time>
      </trkpt>
      <trkpt lat="43.324091" lon="-1.908013">
        <ele>13.361</ele>
        <time>2019-06-15T13:44:48Z</time>
      </trkpt>
      <trkpt lat="43.324105" lon="-1.907861">
        <ele>12.817</ele>
        <time>2019-06-15T13:44:49Z</time>
      </trkpt>
      <trkpt lat="43.324134" lon="-1.907682">
        <ele>13.508</ele>
        <time>2019-06-15T13:44:50Z</time>
      </trkpt>
      <trkpt lat="43.324171" lon="-1.907506">
        <ele>15.387</ele>
        <time>2019-06-15T13:44:51Z</time>
      </trkpt>
      <trkpt lat="43.324200" lon="-1.907323">
        <ele>17.321</ele>
        <time>2019-06-15T13:44:52Z</time>
      </trkpt>
      <trkpt lat="43.324232" lon="-1.907140">
        <ele>18.760</ele>
        <time>2019-06-15T13:44:53Z</time>
      </trkpt>
      <trkpt lat="43.324265" lon="-1.906949">
        <ele>19.519</ele>
        <time>2019-06-15T13:44:54Z</time>
      </trkpt>
      <trkpt lat="43.324301" lon="-1.906766">
        <ele>20.068</ele>
        <time>2019-06-15T13:44:55Z</time>
      </trkpt>
      <trkpt lat="43.324340" lon="-1.906576">
        <ele>20.339</ele>
        <time>2019-06-15T13:44:56Z</time>
      </trkpt>
      <trkpt lat="43.324374" lon="-1.906386">
        <ele>20.928</ele>
        <time>2019-06-15T13:44:57Z</time>
      </trkpt>
      <trkpt lat="43.324401" lon="-1.906209">
        <ele>22.062</ele>
        <time>2019-06-15T13:44:58Z</time>
      </trkpt>
      <trkpt lat="43.324420" lon="-1.906018">
        <ele>22.331</ele>
        <time>2019-06-15T13:44:59Z</time>
      </trkpt>
      <trkpt lat="43.324445" lon="-1.905821">
        <ele>23.061</ele>
        <time>2019-06-15T13:45:00Z</time>
      </trkpt>
      <trkpt lat="43.324466" lon="-1.905616">
        <ele>23.307</ele>
        <time>2019-06-15T13:45:01Z</time>
      </trkpt>
      <trkpt lat="43.324497" lon="-1.905413">
        <ele>23.308</ele>
        <time>2019-06-15T13:45:02Z</time>
      </trkpt>
      <trkpt lat="43.324529" lon="-1.905223">
        <ele>23.346</ele>
        <time>2019-06-15T13:45:03Z</time>
      </trkpt>
      <trkpt lat="43.324561" lon="-1.905040">
        <ele>23.190</ele>
        <time>2019-06-15T13:45:04Z</time>
      </trkpt>
      <trkpt lat="43.324594" lon="-1.904852">
        <ele>23.399</ele>
        <time>2019-06-15T13:45:05Z</time>
      </trkpt>
      <trkpt lat="43.324623" lon="-1.904665">
        <ele>23.178</ele>
        <time>2019-06-15T13:45:06Z</time>
      </trkpt>
      <trkpt lat="43.324650" lon="-1.904494">
        <ele>22.337</ele>
        <time>2019-06-15T13:45:07Z</time>
      </trkpt>
      <trkpt lat="43.324672" lon="-1.904317">
        <ele>22.488</ele>
        <time>2019-06-15T13:45:08Z</time>
      </trkpt>
      <trkpt lat="43.324686" lon="-1.904135">
        <ele>22.737</ele>
        <time>2019-06-15T13:45:09Z</time>
      </trkpt>
      <trkpt lat="43.324678" lon="-1.903971">
        <ele>22.151</ele>
        <time>2019-06-15T13:45:10Z</time>
      </trkpt>
      <trkpt lat="43.324667" lon="-1.903805">
        <ele>22.644</ele>
        <time>2019-06-15T13:45:11Z</time>
      </trkpt>
      <trkpt lat="43.324636" lon="-1.903627">
        <ele>23.205</ele>
        <time>2019-06-15T13:45:12Z</time>
      </trkpt>
      <trkpt lat="43.324608" lon="-1.903457">
        <ele>23.115</ele>
        <time>2019-06-15T13:45:13Z</time>
      </trkpt>
      <trkpt lat="43.324584" lon="-1.903283">
        <ele>23.008</ele>
        <time>2019-06-15T13:45:14Z</time>
      </trkpt>
      <trkpt lat="43.324567" lon="-1.903106">
        <ele>23.347</ele>
        <time>2019-06-15T13:45:15Z</time>
      </trkpt>
      <trkpt lat="43.324538" lon="-1.902941">
        <ele>22.011</ele>
        <time>2019-06-15T13:45:16Z</time>
      </trkpt>
      <trkpt lat="43.324516" lon="-1.902771">
        <ele>21.090</ele>
        <time>2019-06-15T13:45:17Z</time>
      </trkpt>
      <trkpt lat="43.324496" lon="-1.902617">
        <ele>20.419</ele>
        <time>2019-06-15T13:45:18Z</time>
      </trkpt>
      <trkpt lat="43.324477" lon="-1.902456">
        <ele>20.348</ele>
        <time>2019-06-15T13:45:19Z</time>
      </trkpt>
      <trkpt lat="43.324450" lon="-1.902274">
        <ele>20.759</ele>
        <time>2019-06-15T13:45:20Z</time>
      </trkpt>
      <trkpt lat="43.324419" lon="-1.902109">
        <ele>20.768</ele>
        <time>2019-06-15T13:45:21Z</time>
      </trkpt>
      <trkpt lat="43.324377" lon="-1.901940">
        <ele>20.042</ele>
        <time>2019-06-15T13:45:22Z</time>
      </trkpt>
      <trkpt lat="43.324325" lon="-1.901776">
        <ele>20.378</ele>
        <time>2019-06-15T13:45:23Z</time>
      </trkpt>
      <trkpt lat="43.324292" lon="-1.901604">
        <ele>22.833</ele>
        <time>2019-06-15T13:45:24Z</time>
      </trkpt>
      <trkpt lat="43.324225" lon="-1.901447">
        <ele>23.426</ele>
        <time>2019-06-15T13:45:25Z</time>
      </trkpt>
      <trkpt lat="43.324144" lon="-1.901314">
        <ele>23.108</ele>
        <time>2019-06-15T13:45:26Z</time>
      </trkpt>
      <trkpt lat="43.324043" lon="-1.901185">
        <ele>23.220</ele>
        <time>2019-06-15T13:45:27Z</time>
      </trkpt>
      <trkpt lat="43.323934" lon="-1.901066">
        <ele>22.234</ele>
        <time>2019-06-15T13:45:28Z</time>
      </trkpt>
      <trkpt lat="43.323829" lon="-1.900971">
        <ele>21.663</ele>
        <time>2019-06-15T13:45:29Z</time>
      </trkpt>
      <trkpt lat="43.323718" lon="-1.900886">
        <ele>21.432</ele>
        <time>2019-06-15T13:45:30Z</time>
      </trkpt>
      <trkpt lat="43.323576" lon="-1.900831">
        <ele>20.181</ele>
        <time>2019-06-15T13:45:31Z</time>
      </trkpt>
      <trkpt lat="43.323473" lon="-1.900773">
        <ele>21.432</ele>
        <time>2019-06-15T13:45:32Z</time>
      </trkpt>
      <trkpt lat="43.323344" lon="-1.900699">
        <ele>22.931</ele>
        <time>2019-06-15T13:45:33Z</time>
      </trkpt>
      <trkpt lat="43.323221" lon="-1.900636">
        <ele>23.315</ele>
        <time>2019-06-15T13:45:34Z</time>
      </trkpt>
      <trkpt lat="43.323104" lon="-1.900576">
        <ele>23.269</ele>
        <time>2019-06-15T13:45:35Z</time>
      </trkpt>
      <trkpt lat="43.322997" lon="-1.900520">
        <ele>23.504</ele>
        <time>2019-06-15T13:45:36Z</time>
      </trkpt>
      <trkpt lat="43.322893" lon="-1.900448">
        <ele>24.524</ele>
        <time>2019-06-15T13:45:37Z</time>
      </trkpt>
      <trkpt lat="43.322797" lon="-1.900413">
        <ele>24.708</ele>
        <time>2019-06-15T13:45:38Z</time>
      </trkpt>
      <trkpt lat="43.322716" lon="-1.900368">
        <ele>24.459</ele>
        <time>2019-06-15T13:45:39Z</time>
      </trkpt>
      <trkpt lat="43.322653" lon="-1.900362">
        <ele>23.573</ele>
        <time>2019-06-15T13:45:40Z</time>
      </trkpt>
      <trkpt lat="43.322585" lon="-1.900324">
        <ele>22.992</ele>
        <time>2019-06-15T13:45:41Z</time>
      </trkpt>
      <trkpt lat="43.322548" lon="-1.900272">
        <ele>23.081</ele>
        <time>2019-06-15T13:45:42Z</time>
      </trkpt>
      <trkpt lat="43.322505" lon="-1.900239">
        <ele>22.760</ele>
        <time>2019-06-15T13:45:46Z</time>
      </trkpt>
      <trkpt lat="43.322518" lon="-1.900312">
        <ele>21.981</ele>
        <time>2019-06-15T13:46:04Z</time>
      </trkpt>
      <trkpt lat="43.322563" lon="-1.900212">
        <ele>24.220</ele>
        <time>2019-06-15T13:46:18Z</time>
      </trkpt>
      <trkpt lat="43.322609" lon="-1.900195">
        <ele>25.424</ele>
        <time>2019-06-15T13:46:36Z</time>
      </trkpt>
      <trkpt lat="43.322564" lon="-1.900161">
        <ele>25.048</ele>
        <time>2019-06-15T13:46:51Z</time>
      </trkpt>
      <trkpt lat="43.322531" lon="-1.900096">
        <ele>25.361</ele>
        <time>2019-06-15T13:47:01Z</time>
      </trkpt>
      <trkpt lat="43.322479" lon="-1.899964">
        <ele>25.517</ele>
        <time>2019-06-15T13:47:03Z</time>
      </trkpt>
      <trkpt lat="43.322443" lon="-1.899881">
        <ele>24.708</ele>
        <time>2019-06-15T13:47:04Z</time>
      </trkpt>
      <trkpt lat="43.322398" lon="-1.899772">
        <ele>23.727</ele>
        <time>2019-06-15T13:47:05Z</time>
      </trkpt>
      <trkpt lat="43.322351" lon="-1.899651">
        <ele>22.981</ele>
        <time>2019-06-15T13:47:06Z</time>
      </trkpt>
      <trkpt lat="43.322295" lon="-1.899516">
        <ele>22.160</ele>
        <time>2019-06-15T13:47:07Z</time>
      </trkpt>
      <trkpt lat="43.322238" lon="-1.899374">
        <ele>21.829</ele>
        <time>2019-06-15T13:47:08Z</time>
      </trkpt>
      <trkpt lat="43.322173" lon="-1.899233">
        <ele>21.598</ele>
        <time>2019-06-15T13:47:09Z</time>
      </trkpt>
      <trkpt lat="43.322110" lon="-1.899095">
        <ele>20.539</ele>
        <time>2019-06-15T13:47:10Z</time>
      </trkpt>
      <trkpt lat="43.322058" lon="-1.898967">
        <ele>19.038</ele>
        <time>2019-06-15T13:47:11Z</time>
      </trkpt>
      <trkpt lat="43.322003" lon="-1.898832">
        <ele>17.432</ele>
        <time>2019-06-15T13:47:12Z</time>
      </trkpt>
      <trkpt lat="43.321912" lon="-1.898800">
        <ele>15.847</ele>
        <time>2019-06-15T13:47:13Z</time>
      </trkpt>
      <trkpt lat="43.321867" lon="-1.898676">
        <ele>15.529</ele>
        <time>2019-06-15T13:47:14Z</time>
      </trkpt>
      <trkpt lat="43.321815" lon="-1.898552">
        <ele>14.721</ele>
        <time>2019-06-15T13:47:15Z</time>
      </trkpt>
      <trkpt lat="43.321767" lon="-1.898454">
        <ele>14.008</ele>
        <time>2019-06-15T13:47:16Z</time>
      </trkpt>
      <trkpt lat="43.321716" lon="-1.898280">
        <ele>13.017</ele>
        <time>2019-06-15T13:47:17Z</time>
      </trkpt>
      <trkpt lat="43.321686" lon="-1.898177">
        <ele>12.561</ele>
        <time>2019-06-15T13:47:18Z</time>
      </trkpt>
      <trkpt lat="43.321653" lon="-1.898105">
        <ele>12.150</ele>
        <time>2019-06-15T13:47:19Z</time>
      </trkpt>
      <trkpt lat="43.321630" lon="-1.897943">
        <ele>11.359</ele>
        <time>2019-06-15T13:47:20Z</time>
      </trkpt>
      <trkpt lat="43.321604" lon="-1.897838">
        <ele>10.878</ele>
        <time>2019-06-15T13:47:21Z</time>
      </trkpt>
      <trkpt lat="43.321571" lon="-1.897780">
        <ele>10.399</ele>
        <time>2019-06-15T13:47:22Z</time>
      </trkpt>
      <trkpt lat="43.321554" lon="-1.897662">
        <ele>9.798</ele>
        <time>2019-06-15T13:47:23Z</time>
      </trkpt>
      <trkpt lat="43.321536" lon="-1.897590">
        <ele>9.352</ele>
        <time>2019-06-15T13:47:24Z</time>
      </trkpt>
      <trkpt lat="43.321494" lon="-1.897501">
        <ele>9.055</ele>
        <time>2019-06-15T13:47:25Z</time>
      </trkpt>
      <trkpt lat="43.321439" lon="-1.897418">
        <ele>9.007</ele>
        <time>2019-06-15T13:47:27Z</time>
      </trkpt>
      <trkpt lat="43.321405" lon="-1.897362">
        <ele>9.017</ele>
        <time>2019-06-15T13:47:28Z</time>
      </trkpt>
      <trkpt lat="43.321453" lon="-1.897442">
        <ele>9.008</ele>
        <time>2019-06-15T13:47:32Z</time>
      </trkpt>
      <trkpt lat="43.321509" lon="-1.897503">
        <ele>9.018</ele>
        <time>2019-06-15T13:47:34Z</time>
      </trkpt>
      <trkpt lat="43.321370" lon="-1.897388">
        <ele>8.972</ele>
        <time>2019-06-15T13:47:39Z</time>
      </trkpt>
      <trkpt lat="43.321311" lon="-1.897277">
        <ele>8.741</ele>
        <time>2019-06-15T13:47:55Z</time>
      </trkpt>
      <trkpt lat="43.321260" lon="-1.897212">
        <ele>8.560</ele>
        <time>2019-06-15T13:47:56Z</time>
      </trkpt>
      <trkpt lat="43.321220" lon="-1.897145">
        <ele>8.329</ele>
        <time>2019-06-15T13:47:57Z</time>
      </trkpt>
      <trkpt lat="43.321114" lon="-1.897118">
        <ele>8.010</ele>
        <time>2019-06-15T13:47:58Z</time>
      </trkpt>
      <trkpt lat="43.321044" lon="-1.897068">
        <ele>8.079</ele>
        <time>2019-06-15T13:47:59Z</time>
      </trkpt>
      <trkpt lat="43.320956" lon="-1.897018">
        <ele>8.063</ele>
        <time>2019-06-15T13:48:00Z</time>
      </trkpt>
      <trkpt lat="43.320845" lon="-1.896989">
        <ele>8.016</ele>
        <time>2019-06-15T13:48:01Z</time>
      </trkpt>
      <trkpt lat="43.320737" lon="-1.896983">
        <ele>8.076</ele>
        <time>2019-06-15T13:48:02Z</time>
      </trkpt>
      <trkpt lat="43.320627" lon="-1.896989">
        <ele>8.013</ele>
        <time>2019-06-15T13:48:03Z</time>
      </trkpt>
      <trkpt lat="43.320556" lon="-1.897072">
        <ele>8.008</ele>
        <time>2019-06-15T13:48:04Z</time>
      </trkpt>
      <trkpt lat="43.320458" lon="-1.897137">
        <ele>8.064</ele>
        <time>2019-06-15T13:48:05Z</time>
      </trkpt>
      <trkpt lat="43.320350" lon="-1.897169">
        <ele>7.768</ele>
        <time>2019-06-15T13:48:06Z</time>
      </trkpt>
      <trkpt lat="43.320272" lon="-1.897220">
        <ele>7.017</ele>
        <time>2019-06-15T13:48:07Z</time>
      </trkpt>
      <trkpt lat="43.320190" lon="-1.897265">
        <ele>7.486</ele>
        <time>2019-06-15T13:48:08Z</time>
      </trkpt>
      <trkpt lat="43.320124" lon="-1.897296">
        <ele>7.565</ele>
        <time>2019-06-15T13:48:09Z</time>
      </trkpt>
      <trkpt lat="43.320045" lon="-1.897310">
        <ele>7.686</ele>
        <time>2019-06-15T13:48:10Z</time>
      </trkpt>
      <trkpt lat="43.319984" lon="-1.897334">
        <ele>7.865</ele>
        <time>2019-06-15T13:48:11Z</time>
      </trkpt>
      <trkpt lat="43.319938" lon="-1.897361">
        <ele>8.179</ele>
        <time>2019-06-15T13:48:12Z</time>
      </trkpt>
      <trkpt lat="43.319882" lon="-1.897375">
        <ele>8.481</ele>
        <time>2019-06-15T13:48:13Z</time>
      </trkpt>
      <trkpt lat="43.319811" lon="-1.897385">
        <ele>8.761</ele>
        <time>2019-06-15T13:48:14Z</time>
      </trkpt>
      <trkpt lat="43.319741" lon="-1.897399">
        <ele>8.817</ele>
        <time>2019-06-15T13:48:15Z</time>
      </trkpt>
      <trkpt lat="43.319654" lon="-1.897452">
        <ele>7.908</ele>
        <time>2019-06-15T13:48:16Z</time>
      </trkpt>
      <trkpt lat="43.319564" lon="-1.897497">
        <ele>7.241</ele>
        <time>2019-06-15T13:48:17Z</time>
      </trkpt>
      <trkpt lat="43.319480" lon="-1.897596">
        <ele>7.225</ele>
        <time>2019-06-15T13:48:18Z</time>
      </trkpt>
      <trkpt lat="43.319406" lon="-1.897666">
        <ele>7.434</ele>
        <time>2019-06-15T13:48:19Z</time>
      </trkpt>
      <trkpt lat="43.319330" lon="-1.897757">
        <ele>7.863</ele>
        <time>2019-06-15T13:48:20Z</time>
      </trkpt>
      <trkpt lat="43.319273" lon="-1.897875">
        <ele>7.832</ele>
        <time>2019-06-15T13:48:21Z</time>
      </trkpt>
      <trkpt lat="43.319216" lon="-1.897993">
        <ele>7.473</ele>
        <time>2019-06-15T13:48:22Z</time>
      </trkpt>
      <trkpt lat="43.319183" lon="-1.898116">
        <ele>7.022</ele>
        <time>2019-06-15T13:48:23Z</time>
      </trkpt>
      <trkpt lat="43.319158" lon="-1.898249">
        <ele>7.556</ele>
        <time>2019-06-15T13:48:24Z</time>
      </trkpt>
      <trkpt lat="43.319149" lon="-1.898384">
        <ele>7.929</ele>
        <time>2019-06-15T13:48:25Z</time>
      </trkpt>
      <trkpt lat="43.319148" lon="-1.898519">
        <ele>7.900</ele>
        <time>2019-06-15T13:48:26Z</time>
      </trkpt>
      <trkpt lat="43.319155" lon="-1.898670">
        <ele>7.820</ele>
        <time>2019-06-15T13:48:27Z</time>
      </trkpt>
      <trkpt lat="43.319150" lon="-1.898818">
        <ele>8.608</ele>
        <time>2019-06-15T13:48:28Z</time>
      </trkpt>
      <trkpt lat="43.319145" lon="-1.898965">
        <ele>9.165</ele>
        <time>2019-06-15T13:48:29Z</time>
      </trkpt>
      <trkpt lat="43.319139" lon="-1.899123">
        <ele>9.259</ele>
        <time>2019-06-15T13:48:30Z</time>
      </trkpt>
      <trkpt lat="43.319120" lon="-1.899288">
        <ele>9.758</ele>
        <time>2019-06-15T13:48:31Z</time>
      </trkpt>
      <trkpt lat="43.319101" lon="-1.899443">
        <ele>9.957</ele>
        <time>2019-06-15T13:48:32Z</time>
      </trkpt>
      <trkpt lat="43.319067" lon="-1.899594">
        <ele>9.896</ele>
        <time>2019-06-15T13:48:33Z</time>
      </trkpt>
      <trkpt lat="43.319030" lon="-1.899743">
        <ele>9.387</ele>
        <time>2019-06-15T13:48:34Z</time>
      </trkpt>
      <trkpt lat="43.318999" lon="-1.899885">
        <ele>8.876</ele>
        <time>2019-06-15T13:48:35Z</time>
      </trkpt>
      <trkpt lat="43.318972" lon="-1.900029">
        <ele>8.490</ele>
        <time>2019-06-15T13:48:36Z</time>
      </trkpt>
      <trkpt lat="43.318947" lon="-1.900175">
        <ele>8.342</ele>
        <time>2019-06-15T13:48:37Z</time>
      </trkpt>
      <trkpt lat="43.318906" lon="-1.900325">
        <ele>8.422</ele>
        <time>2019-06-15T13:48:38Z</time>
      </trkpt>
      <trkpt lat="43.318863" lon="-1.900475">
        <ele>8.614</ele>
        <time>2019-06-15T13:48:39Z</time>
      </trkpt>
      <trkpt lat="43.318828" lon="-1.900629">
        <ele>8.808</ele>
        <time>2019-06-15T13:48:40Z</time>
      </trkpt>
      <trkpt lat="43.318787" lon="-1.900748">
        <ele>9.127</ele>
        <time>2019-06-15T13:48:41Z</time>
      </trkpt>
      <trkpt lat="43.318743" lon="-1.900885">
        <ele>9.421</ele>
        <time>2019-06-15T13:48:42Z</time>
      </trkpt>
      <trkpt lat="43.318716" lon="-1.901003">
        <ele>9.630</ele>
        <time>2019-06-15T13:48:43Z</time>
      </trkpt>
      <trkpt lat="43.318689" lon="-1.901111">
        <ele>9.899</ele>
        <time>2019-06-15T13:48:44Z</time>
      </trkpt>
      <trkpt lat="43.318671" lon="-1.901195">
        <ele>10.828</ele>
        <time>2019-06-15T13:48:45Z</time>
      </trkpt>
      <trkpt lat="43.318658" lon="-1.901306">
        <ele>11.729</ele>
        <time>2019-06-15T13:48:47Z</time>
      </trkpt>
      <trkpt lat="43.318681" lon="-1.901432">
        <ele>12.098</ele>
        <time>2019-06-15T13:48:49Z</time>
      </trkpt>
      <trkpt lat="43.318714" lon="-1.901509">
        <ele>12.142</ele>
        <time>2019-06-15T13:48:50Z</time>
      </trkpt>
      <trkpt lat="43.318741" lon="-1.901594">
        <ele>12.467</ele>
        <time>2019-06-15T13:48:51Z</time>
      </trkpt>
      <trkpt lat="43.318762" lon="-1.901671">
        <ele>12.981</ele>
        <time>2019-06-15T13:48:52Z</time>
      </trkpt>
      <trkpt lat="43.318756" lon="-1.901759">
        <ele>12.019</ele>
        <time>2019-06-15T13:48:53Z</time>
      </trkpt>
      <trkpt lat="43.318745" lon="-1.901872">
        <ele>10.808</ele>
        <time>2019-06-15T13:48:54Z</time>
      </trkpt>
      <trkpt lat="43.318727" lon="-1.901975">
        <ele>9.759</ele>
        <time>2019-06-15T13:48:55Z</time>
      </trkpt>
      <trkpt lat="43.318706" lon="-1.902078">
        <ele>8.793</ele>
        <time>2019-06-15T13:48:56Z</time>
      </trkpt>
      <trkpt lat="43.318693" lon="-1.902172">
        <ele>7.812</ele>
        <time>2019-06-15T13:48:57Z</time>
      </trkpt>
      <trkpt lat="43.318693" lon="-1.902272">
        <ele>7.291</ele>
        <time>2019-06-15T13:48:58Z</time>
      </trkpt>
      <trkpt lat="43.318708" lon="-1.902385">
        <ele>7.120</ele>
        <time>2019-06-15T13:48:59Z</time>
      </trkpt>
      <trkpt lat="43.318746" lon="-1.902513">
        <ele>7.031</ele>
        <time>2019-06-15T13:49:00Z</time>
      </trkpt>
      <trkpt lat="43.318787" lon="-1.902654">
        <ele>6.660</ele>
        <time>2019-06-15T13:49:01Z</time>
      </trkpt>
      <trkpt lat="43.318833" lon="-1.902803">
        <ele>6.134</ele>
        <time>2019-06-15T13:49:02Z</time>
      </trkpt>
      <trkpt lat="43.318879" lon="-1.902963">
        <ele>5.494</ele>
        <time>2019-06-15T13:49:03Z</time>
      </trkpt>
      <trkpt lat="43.318926" lon="-1.903122">
        <ele>4.957</ele>
        <time>2019-06-15T13:49:04Z</time>
      </trkpt>
      <trkpt lat="43.318977" lon="-1.903278">
        <ele>4.722</ele>
        <time>2019-06-15T13:49:05Z</time>
      </trkpt>
      <trkpt lat="43.319024" lon="-1.903445">
        <ele>4.708</ele>
        <time>2019-06-15T13:49:06Z</time>
      </trkpt>
      <trkpt lat="43.319072" lon="-1.903615">
        <ele>4.792</ele>
        <time>2019-06-15T13:49:07Z</time>
      </trkpt>
      <trkpt lat="43.319121" lon="-1.903818">
        <ele>4.366</ele>
        <time>2019-06-15T13:49:08Z</time>
      </trkpt>
      <trkpt lat="43.319170" lon="-1.904020">
        <ele>4.585</ele>
        <time>2019-06-15T13:49:09Z</time>
      </trkpt>
      <trkpt lat="43.319210" lon="-1.904222">
        <ele>4.874</ele>
        <time>2019-06-15T13:49:10Z</time>
      </trkpt>
      <trkpt lat="43.319236" lon="-1.904419">
        <ele>4.883</ele>
        <time>2019-06-15T13:49:11Z</time>
      </trkpt>
      <trkpt lat="43.319260" lon="-1.904599">
        <ele>5.014</ele>
        <time>2019-06-15T13:49:12Z</time>
      </trkpt>
      <trkpt lat="43.319284" lon="-1.904785">
        <ele>5.483</ele>
        <time>2019-06-15T13:49:13Z</time>
      </trkpt>
      <trkpt lat="43.319306" lon="-1.904967">
        <ele>5.997</ele>
        <time>2019-06-15T13:49:14Z</time>
      </trkpt>
      <trkpt lat="43.319319" lon="-1.905149">
        <ele>5.779</ele>
        <time>2019-06-15T13:49:15Z</time>
      </trkpt>
      <trkpt lat="43.319319" lon="-1.905332">
        <ele>4.505</ele>
        <time>2019-06-15T13:49:16Z</time>
      </trkpt>
      <trkpt lat="43.319315" lon="-1.905516">
        <ele>1.225</ele>
        <time>2019-06-15T13:49:17Z</time>
      </trkpt>
      <trkpt lat="43.319310" lon="-1.905710">
        <ele>1.908</ele>
        <time>2019-06-15T13:49:18Z</time>
      </trkpt>
      <trkpt lat="43.319295" lon="-1.905907">
        <ele>5.440</ele>
        <time>2019-06-15T13:49:19Z</time>
      </trkpt>
      <trkpt lat="43.319275" lon="-1.906115">
        <ele>12.534</ele>
        <time>2019-06-15T13:49:20Z</time>
      </trkpt>
      <trkpt lat="43.319245" lon="-1.906329">
        <ele>16.913</ele>
        <time>2019-06-15T13:49:21Z</time>
      </trkpt>
      <trkpt lat="43.319209" lon="-1.906532">
        <ele>18.972</ele>
        <time>2019-06-15T13:49:22Z</time>
      </trkpt>
      <trkpt lat="43.319164" lon="-1.906734">
        <ele>20.181</ele>
        <time>2019-06-15T13:49:23Z</time>
      </trkpt>
      <trkpt lat="43.319111" lon="-1.906968">
        <ele>21.162</ele>
        <time>2019-06-15T13:49:24Z</time>
      </trkpt>
      <trkpt lat="43.319057" lon="-1.907179">
        <ele>20.741</ele>
        <time>2019-06-15T13:49:25Z</time>
      </trkpt>
      <trkpt lat="43.318999" lon="-1.907393">
        <ele>20.545</ele>
        <time>2019-06-15T13:49:26Z</time>
      </trkpt>
      <trkpt lat="43.318942" lon="-1.907614">
        <ele>19.913</ele>
        <time>2019-06-15T13:49:27Z</time>
      </trkpt>
      <trkpt lat="43.318881" lon="-1.907827">
        <ele>20.043</ele>
        <time>2019-06-15T13:49:28Z</time>
      </trkpt>
      <trkpt lat="43.318819" lon="-1.908038">
        <ele>20.007</ele>
        <time>2019-06-15T13:49:29Z</time>
      </trkpt>
      <trkpt lat="43.318756" lon="-1.908253">
        <ele>18.108</ele>
        <time>2019-06-15T13:49:30Z</time>
      </trkpt>
      <trkpt lat="43.318691" lon="-1.908473">
        <ele>16.974</ele>
        <time>2019-06-15T13:49:31Z</time>
      </trkpt>
      <trkpt lat="43.318629" lon="-1.908681">
        <ele>17.258</ele>
        <time>2019-06-15T13:49:32Z</time>
      </trkpt>
      <trkpt lat="43.318563" lon="-1.908900">
        <ele>16.227</ele>
        <time>2019-06-15T13:49:33Z</time>
      </trkpt>
      <trkpt lat="43.318492" lon="-1.909139">
        <ele>13.956</ele>
        <time>2019-06-15T13:49:34Z</time>
      </trkpt>
      <trkpt lat="43.318420" lon="-1.909372">
        <ele>13.645</ele>
        <time>2019-06-15T13:49:35Z</time>
      </trkpt>
      <trkpt lat="43.318346" lon="-1.909589">
        <ele>13.516</ele>
        <time>2019-06-15T13:49:36Z</time>
      </trkpt>
      <trkpt lat="43.318271" lon="-1.909807">
        <ele>12.575</ele>
        <time>2019-06-15T13:49:37Z</time>
      </trkpt>
      <trkpt lat="43.318198" lon="-1.910029">
        <ele>11.129</ele>
        <time>2019-06-15T13:49:38Z</time>
      </trkpt>
      <trkpt lat="43.318126" lon="-1.910248">
        <ele>11.236</ele>
        <time>2019-06-15T13:49:39Z</time>
      </trkpt>
      <trkpt lat="43.318056" lon="-1.910463">
        <ele>10.317</ele>
        <time>2019-06-15T13:49:40Z</time>
      </trkpt>
      <trkpt lat="43.317986" lon="-1.910684">
        <ele>9.618</ele>
        <time>2019-06-15T13:49:41Z</time>
      </trkpt>
      <trkpt lat="43.317918" lon="-1.910904">
        <ele>8.508</ele>
        <time>2019-06-15T13:49:42Z</time>
      </trkpt>
      <trkpt lat="43.317857" lon="-1.911114">
        <ele>7.816</ele>
        <time>2019-06-15T13:49:43Z</time>
      </trkpt>
      <trkpt lat="43.317800" lon="-1.911318">
        <ele>7.940</ele>
        <time>2019-06-15T13:49:44Z</time>
      </trkpt>
      <trkpt lat="43.317749" lon="-1.911508">
        <ele>8.119</ele>
        <time>2019-06-15T13:49:45Z</time>
      </trkpt>
      <trkpt lat="43.317703" lon="-1.911676">
        <ele>8.028</ele>
        <time>2019-06-15T13:49:46Z</time>
      </trkpt>
      <trkpt lat="43.317667" lon="-1.911815">
        <ele>7.767</ele>
        <time>2019-06-15T13:49:47Z</time>
      </trkpt>
      <trkpt lat="43.317642" lon="-1.911920">
        <ele>7.558</ele>
        <time>2019-06-15T13:49:48Z</time>
      </trkpt>
      <trkpt lat="43.317627" lon="-1.911999">
        <ele>7.777</ele>
        <time>2019-06-15T13:49:49Z</time>
      </trkpt>
      <trkpt lat="43.317612" lon="-1.912091">
        <ele>8.081</ele>
        <time>2019-06-15T13:49:51Z</time>
      </trkpt>
      <trkpt lat="43.317595" lon="-1.912173">
        <ele>8.572</ele>
        <time>2019-06-15T13:49:53Z</time>
      </trkpt>
      <trkpt lat="43.317582" lon="-1.912234">
        <ele>8.813</ele>
        <time>2019-06-15T13:49:54Z</time>
      </trkpt>
      <trkpt lat="43.317609" lon="-1.912349">
        <ele>8.314</ele>
        <time>2019-06-15T13:49:56Z</time>
      </trkpt>
      <trkpt lat="43.317619" lon="-1.912433">
        <ele>8.008</ele>
        <time>2019-06-15T13:49:57Z</time>
      </trkpt>
      <trkpt lat="43.317619" lon="-1.912521">
        <ele>7.970</ele>
        <time>2019-06-15T13:49:58Z</time>
      </trkpt>
      <trkpt lat="43.317613" lon="-1.912607">
        <ele>8.024</ele>
        <time>2019-06-15T13:49:59Z</time>
      </trkpt>
      <trkpt lat="43.317587" lon="-1.912763">
        <ele>8.873</ele>
        <time>2019-06-15T13:50:00Z</time>
      </trkpt>
      <trkpt lat="43.317564" lon="-1.912907">
        <ele>9.912</ele>
        <time>2019-06-15T13:50:01Z</time>
      </trkpt>
      <trkpt lat="43.317548" lon="-1.913059">
        <ele>10.811</ele>
        <time>2019-06-15T13:50:02Z</time>
      </trkpt>
      <trkpt lat="43.317550" lon="-1.913193">
        <ele>10.722</ele>
        <time>2019-06-15T13:50:03Z</time>
      </trkpt>
      <trkpt lat="43.317557" lon="-1.913357">
        <ele>10.451</ele>
        <time>2019-06-15T13:50:04Z</time>
      </trkpt>
      <trkpt lat="43.317572" lon="-1.913546">
        <ele>9.135</ele>
        <time>2019-06-15T13:50:05Z</time>
      </trkpt>
      <trkpt lat="43.317608" lon="-1.913750">
        <ele>7.876</ele>
        <time>2019-06-15T13:50:06Z</time>
      </trkpt>
      <trkpt lat="43.317653" lon="-1.913948">
        <ele>6.690</ele>
        <time>2019-06-15T13:50:07Z</time>
      </trkpt>
      <trkpt lat="43.317715" lon="-1.914147">
        <ele>5.519</ele>
        <time>2019-06-15T13:50:08Z</time>
      </trkpt>
      <trkpt lat="43.317775" lon="-1.914356">
        <ele>5.008</ele>
        <time>2019-06-15T13:50:09Z</time>
      </trkpt>
      <trkpt lat="43.317849" lon="-1.914555">
        <ele>4.770</ele>
        <time>2019-06-15T13:50:10Z</time>
      </trkpt>
      <trkpt lat="43.317924" lon="-1.914755">
        <ele>4.464</ele>
        <time>2019-06-15T13:50:11Z</time>
      </trkpt>
      <trkpt lat="43.317997" lon="-1.914935">
        <ele>4.023</ele>
        <time>2019-06-15T13:50:12Z</time>
      </trkpt>
      <trkpt lat="43.318067" lon="-1.915119">
        <ele>4.032</ele>
        <time>2019-06-15T13:50:13Z</time>
      </trkpt>
      <trkpt lat="43.318126" lon="-1.915293">
        <ele>4.031</ele>
        <time>2019-06-15T13:50:14Z</time>
      </trkpt>
      <trkpt lat="43.318185" lon="-1.915454">
        <ele>4.092</ele>
        <time>2019-06-15T13:50:15Z</time>
      </trkpt>
      <trkpt lat="43.318242" lon="-1.915607">
        <ele>3.941</ele>
        <time>2019-06-15T13:50:16Z</time>
      </trkpt>
      <trkpt lat="43.318283" lon="-1.915751">
        <ele>3.965</ele>
        <time>2019-06-15T13:50:17Z</time>
      </trkpt>
      <trkpt lat="43.318335" lon="-1.915882">
        <ele>3.851</ele>
        <time>2019-06-15T13:50:18Z</time>
      </trkpt>
      <trkpt lat="43.318391" lon="-1.916017">
        <ele>3.501</ele>
        <time>2019-06-15T13:50:19Z</time>
      </trkpt>
      <trkpt lat="43.318439" lon="-1.916156">
        <ele>3.411</ele>
        <time>2019-06-15T13:50:20Z</time>
      </trkpt>
      <trkpt lat="43.318492" lon="-1.916296">
        <ele>3.608</ele>
        <time>2019-06-15T13:50:21Z</time>
      </trkpt>
      <trkpt lat="43.318536" lon="-1.916436">
        <ele>3.758</ele>
        <time>2019-06-15T13:50:22Z</time>
      </trkpt>
      <trkpt lat="43.318584" lon="-1.916575">
        <ele>3.932</ele>
        <time>2019-06-15T13:50:23Z</time>
      </trkpt>
      <trkpt lat="43.318631" lon="-1.916706">
        <ele>3.921</ele>
        <time>2019-06-15T13:50:24Z</time>
      </trkpt>
      <trkpt lat="43.318675" lon="-1.916827">
        <ele>3.650</ele>
        <time>2019-06-15T13:50:25Z</time>
      </trkpt>
      <trkpt lat="43.318721" lon="-1.916934">
        <ele>3.459</ele>
        <time>2019-06-15T13:50:26Z</time>
      </trkpt>
      <trkpt lat="43.318763" lon="-1.917052">
        <ele>3.360</ele>
        <time>2019-06-15T13:50:27Z</time>
      </trkpt>
      <trkpt lat="43.318807" lon="-1.917165">
        <ele>3.169</ele>
        <time>2019-06-15T13:50:28Z</time>
      </trkpt>
      <trkpt lat="43.318851" lon="-1.917269">
        <ele>3.013</ele>
        <time>2019-06-15T13:50:29Z</time>
      </trkpt>
      <trkpt lat="43.318880" lon="-1.917364">
        <ele>3.099</ele>
        <time>2019-06-15T13:50:30Z</time>
      </trkpt>
      <trkpt lat="43.318913" lon="-1.917467">
        <ele>3.107</ele>
        <time>2019-06-15T13:50:31Z</time>
      </trkpt>
      <trkpt lat="43.318928" lon="-1.917567">
        <ele>3.127</ele>
        <time>2019-06-15T13:50:32Z</time>
      </trkpt>
      <trkpt lat="43.318962" lon="-1.917661">
        <ele>3.308</ele>
        <time>2019-06-15T13:50:33Z</time>
      </trkpt>
      <trkpt lat="43.318981" lon="-1.917725">
        <ele>3.382</ele>
        <time>2019-06-15T13:50:34Z</time>
      </trkpt>
      <trkpt lat="43.319003" lon="-1.917779">
        <ele>3.476</ele>
        <time>2019-06-15T13:50:35Z</time>
      </trkpt>
      <trkpt lat="43.319027" lon="-1.917840">
        <ele>3.485</ele>
        <time>2019-06-15T13:50:37Z</time>
      </trkpt>
      <trkpt lat="43.319027" lon="-1.917907">
        <ele>3.314</ele>
        <time>2019-06-15T13:51:00Z</time>
      </trkpt>
      <trkpt lat="43.319071" lon="-1.917951">
        <ele>3.293</ele>
        <time>2019-06-15T13:51:02Z</time>
      </trkpt>
      <trkpt lat="43.319180" lon="-1.918115">
        <ele>3.034</ele>
        <time>2019-06-15T13:51:04Z</time>
      </trkpt>
      <trkpt lat="43.319227" lon="-1.918240">
        <ele>3.293</ele>
        <time>2019-06-15T13:51:05Z</time>
      </trkpt>
      <trkpt lat="43.319271" lon="-1.918363">
        <ele>3.447</ele>
        <time>2019-06-15T13:51:06Z</time>
      </trkpt>
      <trkpt lat="43.319344" lon="-1.918503">
        <ele>3.618</ele>
        <time>2019-06-15T13:51:07Z</time>
      </trkpt>
      <trkpt lat="43.319383" lon="-1.918661">
        <ele>3.898</ele>
        <time>2019-06-15T13:51:08Z</time>
      </trkpt>
      <trkpt lat="43.319453" lon="-1.918828">
        <ele>4.017</ele>
        <time>2019-06-15T13:51:09Z</time>
      </trkpt>
      <trkpt lat="43.319521" lon="-1.919000">
        <ele>4.008</ele>
        <time>2019-06-15T13:51:10Z</time>
      </trkpt>
      <trkpt lat="43.319594" lon="-1.919183">
        <ele>4.014</ele>
        <time>2019-06-15T13:51:11Z</time>
      </trkpt>
      <trkpt lat="43.319667" lon="-1.919366">
        <ele>4.688</ele>
        <time>2019-06-15T13:51:12Z</time>
      </trkpt>
      <trkpt lat="43.319747" lon="-1.919545">
        <ele>4.917</ele>
        <time>2019-06-15T13:51:13Z</time>
      </trkpt>
      <trkpt lat="43.319828" lon="-1.919729">
        <ele>4.726</ele>
        <time>2019-06-15T13:51:14Z</time>
      </trkpt>
      <trkpt lat="43.319911" lon="-1.919917">
        <ele>5.765</ele>
        <time>2019-06-15T13:51:15Z</time>
      </trkpt>
      <trkpt lat="43.319997" lon="-1.920097">
        <ele>6.446</ele>
        <time>2019-06-15T13:51:16Z</time>
      </trkpt>
      <trkpt lat="43.320094" lon="-1.920278">
        <ele>6.365</ele>
        <time>2019-06-15T13:51:17Z</time>
      </trkpt>
      <trkpt lat="43.320186" lon="-1.920446">
        <ele>6.339</ele>
        <time>2019-06-15T13:51:18Z</time>
      </trkpt>
      <trkpt lat="43.320269" lon="-1.920623">
        <ele>7.423</ele>
        <time>2019-06-15T13:51:19Z</time>
      </trkpt>
      <trkpt lat="43.320352" lon="-1.920792">
        <ele>7.983</ele>
        <time>2019-06-15T13:51:20Z</time>
      </trkpt>
      <trkpt lat="43.320434" lon="-1.920964">
        <ele>8.111</ele>
        <time>2019-06-15T13:51:21Z</time>
      </trkpt>
      <trkpt lat="43.320517" lon="-1.921136">
        <ele>9.308</ele>
        <time>2019-06-15T13:51:22Z</time>
      </trkpt>
      <trkpt lat="43.320607" lon="-1.921300">
        <ele>10.235</ele>
        <time>2019-06-15T13:51:23Z</time>
      </trkpt>
      <trkpt lat="43.320677" lon="-1.921441">
        <ele>10.419</ele>
        <time>2019-06-15T13:51:24Z</time>
      </trkpt>
      <trkpt lat="43.320721" lon="-1.921564">
        <ele>10.998</ele>
        <time>2019-06-15T13:51:25Z</time>
      </trkpt>
      <trkpt lat="43.320777" lon="-1.921683">
        <ele>11.227</ele>
        <time>2019-06-15T13:51:26Z</time>
      </trkpt>
      <trkpt lat="43.320832" lon="-1.921794">
        <ele>11.976</ele>
        <time>2019-06-15T13:51:27Z</time>
      </trkpt>
      <trkpt lat="43.320896" lon="-1.921896">
        <ele>12.217</ele>
        <time>2019-06-15T13:51:28Z</time>
      </trkpt>
      <trkpt lat="43.320963" lon="-1.921983">
        <ele>11.976</ele>
        <time>2019-06-15T13:51:29Z</time>
      </trkpt>
      <trkpt lat="43.321026" lon="-1.922050">
        <ele>11.340</ele>
        <time>2019-06-15T13:51:30Z</time>
      </trkpt>
      <trkpt lat="43.321102" lon="-1.922112">
        <ele>10.964</ele>
        <time>2019-06-15T13:51:31Z</time>
      </trkpt>
      <trkpt lat="43.321171" lon="-1.922189">
        <ele>10.406</ele>
        <time>2019-06-15T13:51:32Z</time>
      </trkpt>
      <trkpt lat="43.321237" lon="-1.922291">
        <ele>9.516</ele>
        <time>2019-06-15T13:51:33Z</time>
      </trkpt>
      <trkpt lat="43.321309" lon="-1.922429">
        <ele>9.108</ele>
        <time>2019-06-15T13:51:34Z</time>
      </trkpt>
      <trkpt lat="43.321363" lon="-1.922574">
        <ele>9.289</ele>
        <time>2019-06-15T13:51:35Z</time>
      </trkpt>
      <trkpt lat="43.321407" lon="-1.922722">
        <ele>8.763</ele>
        <time>2019-06-15T13:51:36Z</time>
      </trkpt>
      <trkpt lat="43.321440" lon="-1.922889">
        <ele>8.122</ele>
        <time>2019-06-15T13:51:37Z</time>
      </trkpt>
      <trkpt lat="43.321463" lon="-1.923073">
        <ele>7.721</ele>
        <time>2019-06-15T13:51:38Z</time>
      </trkpt>
      <trkpt lat="43.321479" lon="-1.923278">
        <ele>7.440</ele>
        <time>2019-06-15T13:51:39Z</time>
      </trkpt>
      <trkpt lat="43.321495" lon="-1.923480">
        <ele>7.131</ele>
        <time>2019-06-15T13:51:40Z</time>
      </trkpt>
      <trkpt lat="43.321509" lon="-1.923678">
        <ele>6.880</ele>
        <time>2019-06-15T13:51:41Z</time>
      </trkpt>
      <trkpt lat="43.321518" lon="-1.923883">
        <ele>6.764</ele>
        <time>2019-06-15T13:51:42Z</time>
      </trkpt>
      <trkpt lat="43.321522" lon="-1.924081">
        <ele>6.621</ele>
        <time>2019-06-15T13:51:43Z</time>
      </trkpt>
      <trkpt lat="43.321522" lon="-1.924283">
        <ele>6.441</ele>
        <time>2019-06-15T13:51:44Z</time>
      </trkpt>
      <trkpt lat="43.321515" lon="-1.924490">
        <ele>6.305</ele>
        <time>2019-06-15T13:51:45Z</time>
      </trkpt>
      <trkpt lat="43.321507" lon="-1.924701">
        <ele>6.808</ele>
        <time>2019-06-15T13:51:46Z</time>
      </trkpt>
      <trkpt lat="43.321496" lon="-1.924905">
        <ele>6.755</ele>
        <time>2019-06-15T13:51:47Z</time>
      </trkpt>
      <trkpt lat="43.321481" lon="-1.925103">
        <ele>6.759</ele>
        <time>2019-06-15T13:51:48Z</time>
      </trkpt>
      <trkpt lat="43.321461" lon="-1.925282">
        <ele>7.048</ele>
        <time>2019-06-15T13:51:49Z</time>
      </trkpt>
      <trkpt lat="43.321446" lon="-1.925449">
        <ele>6.757</ele>
        <time>2019-06-15T13:51:50Z</time>
      </trkpt>
      <trkpt lat="43.321431" lon="-1.925609">
        <ele>6.576</ele>
        <time>2019-06-15T13:51:51Z</time>
      </trkpt>
      <trkpt lat="43.321416" lon="-1.925764">
        <ele>6.737</ele>
        <time>2019-06-15T13:51:52Z</time>
      </trkpt>
      <trkpt lat="43.321404" lon="-1.925916">
        <ele>6.626</ele>
        <time>2019-06-15T13:51:53Z</time>
      </trkpt>
      <trkpt lat="43.321387" lon="-1.926056">
        <ele>6.330</ele>
        <time>2019-06-15T13:51:54Z</time>
      </trkpt>
      <trkpt lat="43.321373" lon="-1.926189">
        <ele>6.441</ele>
        <time>2019-06-15T13:51:55Z</time>
      </trkpt>
      <trkpt lat="43.321363" lon="-1.926314">
        <ele>6.381</ele>
        <time>2019-06-15T13:51:56Z</time>
      </trkpt>
      <trkpt lat="43.321350" lon="-1.926439">
        <ele>6.209</ele>
        <time>2019-06-15T13:51:57Z</time>
      </trkpt>
      <trkpt lat="43.321338" lon="-1.926565">
        <ele>6.008</ele>
        <time>2019-06-15T13:51:58Z</time>
      </trkpt>
      <trkpt lat="43.321323" lon="-1.926696">
        <ele>5.917</ele>
        <time>2019-06-15T13:51:59Z</time>
      </trkpt>
      <trkpt lat="43.321315" lon="-1.926835">
        <ele>6.111</ele>
        <time>2019-06-15T13:52:00Z</time>
      </trkpt>
      <trkpt lat="43.321298" lon="-1.926978">
        <ele>6.640</ele>
        <time>2019-06-15T13:52:01Z</time>
      </trkpt>
      <trkpt lat="43.321283" lon="-1.927124">
        <ele>6.889</ele>
        <time>2019-06-15T13:52:02Z</time>
      </trkpt>
      <trkpt lat="43.321272" lon="-1.927276">
        <ele>6.988</ele>
        <time>2019-06-15T13:52:03Z</time>
      </trkpt>
      <trkpt lat="43.321257" lon="-1.927431">
        <ele>7.019</ele>
        <time>2019-06-15T13:52:04Z</time>
      </trkpt>
      <trkpt lat="43.321246" lon="-1.927598">
        <ele>7.188</ele>
        <time>2019-06-15T13:52:05Z</time>
      </trkpt>
      <trkpt lat="43.321243" lon="-1.927783">
        <ele>7.232</ele>
        <time>2019-06-15T13:52:06Z</time>
      </trkpt>
      <trkpt lat="43.321242" lon="-1.927954">
        <ele>7.529</ele>
        <time>2019-06-15T13:52:07Z</time>
      </trkpt>
      <trkpt lat="43.321239" lon="-1.928129">
        <ele>7.800</ele>
        <time>2019-06-15T13:52:08Z</time>
      </trkpt>
      <trkpt lat="43.321241" lon="-1.928303">
        <ele>7.720</ele>
        <time>2019-06-15T13:52:09Z</time>
      </trkpt>
      <trkpt lat="43.321245" lon="-1.928470">
        <ele>7.908</ele>
        <time>2019-06-15T13:52:10Z</time>
      </trkpt>
      <trkpt lat="43.321250" lon="-1.928629">
        <ele>8.055</ele>
        <time>2019-06-15T13:52:11Z</time>
      </trkpt>
      <trkpt lat="43.321262" lon="-1.928795">
        <ele>8.069</ele>
        <time>2019-06-15T13:52:12Z</time>
      </trkpt>
      <trkpt lat="43.321264" lon="-1.928955">
        <ele>8.088</ele>
        <time>2019-06-15T13:52:13Z</time>
      </trkpt>
      <trkpt lat="43.321271" lon="-1.929121">
        <ele>7.817</ele>
        <time>2019-06-15T13:52:14Z</time>
      </trkpt>
      <trkpt lat="43.321279" lon="-1.929277">
        <ele>7.696</ele>
        <time>2019-06-15T13:52:15Z</time>
      </trkpt>
      <trkpt lat="43.321282" lon="-1.929423">
        <ele>7.547</ele>
        <time>2019-06-15T13:52:16Z</time>
      </trkpt>
      <trkpt lat="43.321292" lon="-1.929567">
        <ele>7.456</ele>
        <time>2019-06-15T13:52:17Z</time>
      </trkpt>
      <trkpt lat="43.321296" lon="-1.929721">
        <ele>7.790</ele>
        <time>2019-06-15T13:52:18Z</time>
      </trkpt>
      <trkpt lat="43.321300" lon="-1.929877">
        <ele>7.419</ele>
        <time>2019-06-15T13:52:19Z</time>
      </trkpt>
      <trkpt lat="43.321301" lon="-1.930022">
        <ele>7.209</ele>
        <time>2019-06-15T13:52:20Z</time>
      </trkpt>
      <trkpt lat="43.321305" lon="-1.930169">
        <ele>7.319</ele>
        <time>2019-06-15T13:52:21Z</time>
      </trkpt>
      <trkpt lat="43.321310" lon="-1.930323">
        <ele>7.308</ele>
        <time>2019-06-15T13:52:22Z</time>
      </trkpt>
      <trkpt lat="43.321318" lon="-1.930469">
        <ele>7.064</ele>
        <time>2019-06-15T13:52:23Z</time>
      </trkpt>
      <trkpt lat="43.321321" lon="-1.930608">
        <ele>7.028</ele>
        <time>2019-06-15T13:52:24Z</time>
      </trkpt>
      <trkpt lat="43.321323" lon="-1.930759">
        <ele>7.177</ele>
        <time>2019-06-15T13:52:25Z</time>
      </trkpt>
      <trkpt lat="43.321328" lon="-1.930912">
        <ele>7.246</ele>
        <time>2019-06-15T13:52:26Z</time>
      </trkpt>
      <trkpt lat="43.321334" lon="-1.931069">
        <ele>7.515</ele>
        <time>2019-06-15T13:52:27Z</time>
      </trkpt>
      <trkpt lat="43.321339" lon="-1.931228">
        <ele>7.976</ele>
        <time>2019-06-15T13:52:28Z</time>
      </trkpt>
      <trkpt lat="43.321333" lon="-1.931395">
        <ele>8.675</ele>
        <time>2019-06-15T13:52:29Z</time>
      </trkpt>
      <trkpt lat="43.321322" lon="-1.931552">
        <ele>9.419</ele>
        <time>2019-06-15T13:52:30Z</time>
      </trkpt>
      <trkpt lat="43.321314" lon="-1.931718">
        <ele>9.638</ele>
        <time>2019-06-15T13:52:31Z</time>
      </trkpt>
      <trkpt lat="43.321301" lon="-1.931884">
        <ele>8.970</ele>
        <time>2019-06-15T13:52:32Z</time>
      </trkpt>
      <trkpt lat="43.321283" lon="-1.932049">
        <ele>8.817</ele>
        <time>2019-06-15T13:52:33Z</time>
      </trkpt>
      <trkpt lat="43.321268" lon="-1.932211">
        <ele>8.908</ele>
        <time>2019-06-15T13:52:34Z</time>
      </trkpt>
      <trkpt lat="43.321254" lon="-1.932356">
        <ele>9.446</ele>
        <time>2019-06-15T13:52:35Z</time>
      </trkpt>
      <trkpt lat="43.321244" lon="-1.932508">
        <ele>9.780</ele>
        <time>2019-06-15T13:52:36Z</time>
      </trkpt>
      <trkpt lat="43.321230" lon="-1.932664">
        <ele>9.959</ele>
        <time>2019-06-15T13:52:37Z</time>
      </trkpt>
      <trkpt lat="43.321215" lon="-1.932815">
        <ele>10.228</ele>
        <time>2019-06-15T13:52:38Z</time>
      </trkpt>
      <trkpt lat="43.321199" lon="-1.932949">
        <ele>10.477</ele>
        <time>2019-06-15T13:52:39Z</time>
      </trkpt>
      <trkpt lat="43.321177" lon="-1.933085">
        <ele>10.978</ele>
        <time>2019-06-15T13:52:40Z</time>
      </trkpt>
      <trkpt lat="43.321160" lon="-1.933216">
        <ele>11.757</ele>
        <time>2019-06-15T13:52:41Z</time>
      </trkpt>
      <trkpt lat="43.321138" lon="-1.933351">
        <ele>12.411</ele>
        <time>2019-06-15T13:52:42Z</time>
      </trkpt>
      <trkpt lat="43.321115" lon="-1.933493">
        <ele>12.916</ele>
        <time>2019-06-15T13:52:43Z</time>
      </trkpt>
      <trkpt lat="43.321086" lon="-1.933632">
        <ele>13.476</ele>
        <time>2019-06-15T13:52:44Z</time>
      </trkpt>
      <trkpt lat="43.321055" lon="-1.933778">
        <ele>13.313</ele>
        <time>2019-06-15T13:52:45Z</time>
      </trkpt>
      <trkpt lat="43.321016" lon="-1.933917">
        <ele>13.008</ele>
        <time>2019-06-15T13:52:46Z</time>
      </trkpt>
      <trkpt lat="43.320974" lon="-1.934031">
        <ele>12.454</ele>
        <time>2019-06-15T13:52:47Z</time>
      </trkpt>
      <trkpt lat="43.320934" lon="-1.934168">
        <ele>12.178</ele>
        <time>2019-06-15T13:52:48Z</time>
      </trkpt>
      <trkpt lat="43.320886" lon="-1.934317">
        <ele>12.127</ele>
        <time>2019-06-15T13:52:49Z</time>
      </trkpt>
      <trkpt lat="43.320839" lon="-1.934473">
        <ele>11.426</ele>
        <time>2019-06-15T13:52:50Z</time>
      </trkpt>
      <trkpt lat="43.320791" lon="-1.934635">
        <ele>9.995</ele>
        <time>2019-06-15T13:52:51Z</time>
      </trkpt>
      <trkpt lat="43.320738" lon="-1.934799">
        <ele>9.366</ele>
        <time>2019-06-15T13:52:52Z</time>
      </trkpt>
      <trkpt lat="43.320687" lon="-1.934950">
        <ele>9.345</ele>
        <time>2019-06-15T13:52:53Z</time>
      </trkpt>
      <trkpt lat="43.320636" lon="-1.935104">
        <ele>9.319</ele>
        <time>2019-06-15T13:52:54Z</time>
      </trkpt>
      <trkpt lat="43.320587" lon="-1.935251">
        <ele>8.861</ele>
        <time>2019-06-15T13:52:55Z</time>
      </trkpt>
      <trkpt lat="43.320537" lon="-1.935392">
        <ele>8.321</ele>
        <time>2019-06-15T13:52:56Z</time>
      </trkpt>
      <trkpt lat="43.320488" lon="-1.935539">
        <ele>8.113</ele>
        <time>2019-06-15T13:52:57Z</time>
      </trkpt>
      <trkpt lat="43.320440" lon="-1.935672">
        <ele>8.508</ele>
        <time>2019-06-15T13:52:58Z</time>
      </trkpt>
      <trkpt lat="43.320395" lon="-1.935805">
        <ele>8.819</ele>
        <time>2019-06-15T13:52:59Z</time>
      </trkpt>
      <trkpt lat="43.320349" lon="-1.935963">
        <ele>8.993</ele>
        <time>2019-06-15T13:53:00Z</time>
      </trkpt>
      <trkpt lat="43.320311" lon="-1.936119">
        <ele>8.442</ele>
        <time>2019-06-15T13:53:01Z</time>
      </trkpt>
      <trkpt lat="43.320277" lon="-1.936269">
        <ele>7.961</ele>
        <time>2019-06-15T13:53:02Z</time>
      </trkpt>
      <trkpt lat="43.320250" lon="-1.936415">
        <ele>7.330</ele>
        <time>2019-06-15T13:53:03Z</time>
      </trkpt>
      <trkpt lat="43.320222" lon="-1.936549">
        <ele>7.051</ele>
        <time>2019-06-15T13:53:04Z</time>
      </trkpt>
      <trkpt lat="43.320195" lon="-1.936683">
        <ele>6.720</ele>
        <time>2019-06-15T13:53:05Z</time>
      </trkpt>
      <trkpt lat="43.320176" lon="-1.936812">
        <ele>6.714</ele>
        <time>2019-06-15T13:53:06Z</time>
      </trkpt>
      <trkpt lat="43.320162" lon="-1.936941">
        <ele>6.544</ele>
        <time>2019-06-15T13:53:07Z</time>
      </trkpt>
      <trkpt lat="43.320144" lon="-1.937041">
        <ele>6.605</ele>
        <time>2019-06-15T13:53:08Z</time>
      </trkpt>
      <trkpt lat="43.320130" lon="-1.937137">
        <ele>6.515</ele>
        <time>2019-06-15T13:53:09Z</time>
      </trkpt>
      <trkpt lat="43.320116" lon="-1.937223">
        <ele>6.308</ele>
        <time>2019-06-15T13:53:10Z</time>
      </trkpt>
      <trkpt lat="43.320111" lon="-1.937304">
        <ele>6.097</ele>
        <time>2019-06-15T13:53:11Z</time>
      </trkpt>
      <trkpt lat="43.320124" lon="-1.937386">
        <ele>5.631</ele>
        <time>2019-06-15T13:53:12Z</time>
      </trkpt>
      <trkpt lat="43.320142" lon="-1.937465">
        <ele>5.190</ele>
        <time>2019-06-15T13:53:13Z</time>
      </trkpt>
      <trkpt lat="43.320181" lon="-1.937539">
        <ele>4.679</ele>
        <time>2019-06-15T13:53:14Z</time>
      </trkpt>
      <trkpt lat="43.320211" lon="-1.937605">
        <ele>4.458</ele>
        <time>2019-06-15T13:53:15Z</time>
      </trkpt>
      <trkpt lat="43.320221" lon="-1.937695">
        <ele>4.389</ele>
        <time>2019-06-15T13:53:16Z</time>
      </trkpt>
      <trkpt lat="43.320206" lon="-1.937783">
        <ele>4.358</ele>
        <time>2019-06-15T13:53:17Z</time>
      </trkpt>
      <trkpt lat="43.320185" lon="-1.937861">
        <ele>4.352</ele>
        <time>2019-06-15T13:53:18Z</time>
      </trkpt>
      <trkpt lat="43.320145" lon="-1.937951">
        <ele>4.538</ele>
        <time>2019-06-15T13:53:19Z</time>
      </trkpt>
      <trkpt lat="43.320115" lon="-1.938058">
        <ele>4.670</ele>
        <time>2019-06-15T13:53:20Z</time>
      </trkpt>
      <trkpt lat="43.320095" lon="-1.938162">
        <ele>4.917</ele>
        <time>2019-06-15T13:53:21Z</time>
      </trkpt>
      <trkpt lat="43.320084" lon="-1.938255">
        <ele>5.108</ele>
        <time>2019-06-15T13:53:22Z</time>
      </trkpt>
      <trkpt lat="43.320069" lon="-1.938333">
        <ele>5.256</ele>
        <time>2019-06-15T13:53:23Z</time>
      </trkpt>
      <trkpt lat="43.320059" lon="-1.938405">
        <ele>5.450</ele>
        <time>2019-06-15T13:53:25Z</time>
      </trkpt>
      <trkpt lat="43.320049" lon="-1.938487">
        <ele>5.519</ele>
        <time>2019-06-15T13:53:34Z</time>
      </trkpt>
      <trkpt lat="43.320025" lon="-1.938611">
        <ele>5.918</ele>
        <time>2019-06-15T13:53:36Z</time>
      </trkpt>
      <trkpt lat="43.319997" lon="-1.938713">
        <ele>6.827</ele>
        <time>2019-06-15T13:53:37Z</time>
      </trkpt>
      <trkpt lat="43.319957" lon="-1.938826">
        <ele>8.378</ele>
        <time>2019-06-15T13:53:38Z</time>
      </trkpt>
      <trkpt lat="43.319916" lon="-1.938934">
        <ele>9.727</ele>
        <time>2019-06-15T13:53:39Z</time>
      </trkpt>
      <trkpt lat="43.319876" lon="-1.939053">
        <ele>10.851</ele>
        <time>2019-06-15T13:53:40Z</time>
      </trkpt>
      <trkpt lat="43.319834" lon="-1.939171">
        <ele>12.038</ele>
        <time>2019-06-15T13:53:41Z</time>
      </trkpt>
      <trkpt lat="43.319810" lon="-1.939286">
        <ele>12.770</ele>
        <time>2019-06-15T13:53:42Z</time>
      </trkpt>
      <trkpt lat="43.319792" lon="-1.939403">
        <ele>13.417</ele>
        <time>2019-06-15T13:53:43Z</time>
      </trkpt>
      <trkpt lat="43.319791" lon="-1.939536">
        <ele>13.108</ele>
        <time>2019-06-15T13:53:44Z</time>
      </trkpt>
      <trkpt lat="43.319806" lon="-1.939677">
        <ele>12.416</ele>
        <time>2019-06-15T13:53:45Z</time>
      </trkpt>
      <trkpt lat="43.319820" lon="-1.939810">
        <ele>14.130</ele>
        <time>2019-06-15T13:53:46Z</time>
      </trkpt>
      <trkpt lat="43.319842" lon="-1.939971">
        <ele>17.239</ele>
        <time>2019-06-15T13:53:47Z</time>
      </trkpt>
      <trkpt lat="43.319865" lon="-1.940139">
        <ele>18.028</ele>
        <time>2019-06-15T13:53:48Z</time>
      </trkpt>
      <trkpt lat="43.319887" lon="-1.940304">
        <ele>18.117</ele>
        <time>2019-06-15T13:53:49Z</time>
      </trkpt>
      <trkpt lat="43.319925" lon="-1.940499">
        <ele>16.948</ele>
        <time>2019-06-15T13:53:50Z</time>
      </trkpt>
      <trkpt lat="43.319953" lon="-1.940670">
        <ele>17.217</ele>
        <time>2019-06-15T13:53:51Z</time>
      </trkpt>
      <trkpt lat="43.319981" lon="-1.940847">
        <ele>19.131</ele>
        <time>2019-06-15T13:53:52Z</time>
      </trkpt>
      <trkpt lat="43.320015" lon="-1.941049">
        <ele>21.473</ele>
        <time>2019-06-15T13:53:53Z</time>
      </trkpt>
      <trkpt lat="43.320050" lon="-1.941228">
        <ele>22.485</ele>
        <time>2019-06-15T13:53:54Z</time>
      </trkpt>
      <trkpt lat="43.320096" lon="-1.941420">
        <ele>23.313</ele>
        <time>2019-06-15T13:53:55Z</time>
      </trkpt>
      <trkpt lat="43.320137" lon="-1.941599">
        <ele>24.508</ele>
        <time>2019-06-15T13:53:56Z</time>
      </trkpt>
      <trkpt lat="43.320198" lon="-1.941788">
        <ele>25.120</ele>
        <time>2019-06-15T13:53:57Z</time>
      </trkpt>
      <trkpt lat="43.320256" lon="-1.941974">
        <ele>25.414</ele>
        <time>2019-06-15T13:53:58Z</time>
      </trkpt>
      <trkpt lat="43.320313" lon="-1.942162">
        <ele>26.733</ele>
        <time>2019-06-15T13:53:59Z</time>
      </trkpt>
      <trkpt lat="43.320364" lon="-1.942342">
        <ele>27.612</ele>
        <time>2019-06-15T13:54:00Z</time>
      </trkpt>
      <trkpt lat="43.320417" lon="-1.942522">
        <ele>28.161</ele>
        <time>2019-06-15T13:54:01Z</time>
      </trkpt>
      <trkpt lat="43.320468" lon="-1.942710">
        <ele>29.072</ele>
        <time>2019-06-15T13:54:02Z</time>
      </trkpt>
      <trkpt lat="43.320508" lon="-1.942848">
        <ele>29.591</ele>
        <time>2019-06-15T13:54:03Z</time>
      </trkpt>
      <trkpt lat="43.320548" lon="-1.943025">
        <ele>29.925</ele>
        <time>2019-06-15T13:54:04Z</time>
      </trkpt>
      <trkpt lat="43.320597" lon="-1.943199">
        <ele>30.526</ele>
        <time>2019-06-15T13:54:05Z</time>
      </trkpt>
      <trkpt lat="43.320653" lon="-1.943367">
        <ele>31.147</ele>
        <time>2019-06-15T13:54:06Z</time>
      </trkpt>
      <trkpt lat="43.320710" lon="-1.943537">
        <ele>31.711</ele>
        <time>2019-06-15T13:54:07Z</time>
      </trkpt>
      <trkpt lat="43.320762" lon="-1.943684">
        <ele>32.408</ele>
        <time>2019-06-15T13:54:08Z</time>
      </trkpt>
      <trkpt lat="43.320823" lon="-1.943836">
        <ele>32.945</ele>
        <time>2019-06-15T13:54:09Z</time>
      </trkpt>
      <trkpt lat="43.320889" lon="-1.943959">
        <ele>33.349</ele>
        <time>2019-06-15T13:54:10Z</time>
      </trkpt>
      <trkpt lat="43.320944" lon="-1.944061">
        <ele>33.928</ele>
        <time>2019-06-15T13:54:11Z</time>
      </trkpt>
      <trkpt lat="43.320998" lon="-1.944176">
        <ele>34.797</ele>
        <time>2019-06-15T13:54:12Z</time>
      </trkpt>
      <trkpt lat="43.321032" lon="-1.944229">
        <ele>35.236</ele>
        <time>2019-06-15T13:54:13Z</time>
      </trkpt>
      <trkpt lat="43.321069" lon="-1.944268">
        <ele>35.627</ele>
        <time>2019-06-15T13:54:14Z</time>
      </trkpt>
      <trkpt lat="43.321129" lon="-1.944320">
        <ele>36.156</ele>
        <time>2019-06-15T13:54:16Z</time>
      </trkpt>
      <trkpt lat="43.321170" lon="-1.944349">
        <ele>36.250</ele>
        <time>2019-06-15T13:54:17Z</time>
      </trkpt>
      <trkpt lat="43.321221" lon="-1.944368">
        <ele>36.254</ele>
        <time>2019-06-15T13:54:18Z</time>
      </trkpt>
      <trkpt lat="43.321279" lon="-1.944388">
        <ele>36.156</ele>
        <time>2019-06-15T13:54:19Z</time>
      </trkpt>
      <trkpt lat="43.321321" lon="-1.944427">
        <ele>36.211</ele>
        <time>2019-06-15T13:54:20Z</time>
      </trkpt>
      <trkpt lat="43.321345" lon="-1.944486">
        <ele>36.608</ele>
        <time>2019-06-15T13:54:21Z</time>
      </trkpt>
      <trkpt lat="43.321353" lon="-1.944610">
        <ele>37.858</ele>
        <time>2019-06-15T13:54:23Z</time>
      </trkpt>
      <trkpt lat="43.321348" lon="-1.944709">
        <ele>38.752</ele>
        <time>2019-06-15T13:54:24Z</time>
      </trkpt>
      <trkpt lat="43.321351" lon="-1.944834">
        <ele>39.371</ele>
        <time>2019-06-15T13:54:25Z</time>
      </trkpt>
      <trkpt lat="43.321357" lon="-1.944956">
        <ele>39.770</ele>
        <time>2019-06-15T13:54:26Z</time>
      </trkpt>
      <trkpt lat="43.321376" lon="-1.945104">
        <ele>40.489</ele>
        <time>2019-06-15T13:54:27Z</time>
      </trkpt>
      <trkpt lat="43.321395" lon="-1.945256">
        <ele>40.930</ele>
        <time>2019-06-15T13:54:28Z</time>
      </trkpt>
      <trkpt lat="43.321422" lon="-1.945404">
        <ele>41.129</ele>
        <time>2019-06-15T13:54:29Z</time>
      </trkpt>
      <trkpt lat="43.321445" lon="-1.945556">
        <ele>41.263</ele>
        <time>2019-06-15T13:54:30Z</time>
      </trkpt>
      <trkpt lat="43.321457" lon="-1.945722">
        <ele>41.891</ele>
        <time>2019-06-15T13:54:31Z</time>
      </trkpt>
      <trkpt lat="43.321467" lon="-1.945869">
        <ele>42.381</ele>
        <time>2019-06-15T13:54:32Z</time>
      </trkpt>
      <trkpt lat="43.321457" lon="-1.946007">
        <ele>42.619</ele>
        <time>2019-06-15T13:54:33Z</time>
      </trkpt>
      <trkpt lat="43.321449" lon="-1.946144">
        <ele>42.908</ele>
        <time>2019-06-15T13:54:34Z</time>
      </trkpt>
      <trkpt lat="43.321442" lon="-1.946284">
        <ele>43.592</ele>
        <time>2019-06-15T13:54:35Z</time>
      </trkpt>
      <trkpt lat="43.321432" lon="-1.946434">
        <ele>44.216</ele>
        <time>2019-06-15T13:54:36Z</time>
      </trkpt>
      <trkpt lat="43.321428" lon="-1.946573">
        <ele>44.745</ele>
        <time>2019-06-15T13:54:37Z</time>
      </trkpt>
      <trkpt lat="43.321425" lon="-1.946736">
        <ele>45.274</ele>
        <time>2019-06-15T13:54:38Z</time>
      </trkpt>
      <trkpt lat="43.321429" lon="-1.946903">
        <ele>45.973</ele>
        <time>2019-06-15T13:54:39Z</time>
      </trkpt>
      <trkpt lat="43.321432" lon="-1.947073">
        <ele>46.714</ele>
        <time>2019-06-15T13:54:40Z</time>
      </trkpt>
      <trkpt lat="43.321417" lon="-1.947254">
        <ele>47.533</ele>
        <time>2019-06-15T13:54:41Z</time>
      </trkpt>
      <trkpt lat="43.321415" lon="-1.947429">
        <ele>48.897</ele>
        <time>2019-06-15T13:54:42Z</time>
      </trkpt>
      <trkpt lat="43.321410" lon="-1.947612">
        <ele>49.742</ele>
        <time>2019-06-15T13:54:43Z</time>
      </trkpt>
      <trkpt lat="43.321410" lon="-1.947807">
        <ele>50.322</ele>
        <time>2019-06-15T13:54:44Z</time>
      </trkpt>
      <trkpt lat="43.321425" lon="-1.947991">
        <ele>50.514</ele>
        <time>2019-06-15T13:54:45Z</time>
      </trkpt>
      <trkpt lat="43.321424" lon="-1.948170">
        <ele>50.908</ele>
        <time>2019-06-15T13:54:46Z</time>
      </trkpt>
      <trkpt lat="43.321417" lon="-1.948347">
        <ele>51.417</ele>
        <time>2019-06-15T13:54:47Z</time>
      </trkpt>
      <trkpt lat="43.321414" lon="-1.948524">
        <ele>51.411</ele>
        <time>2019-06-15T13:54:48Z</time>
      </trkpt>
      <trkpt lat="43.321417" lon="-1.948707">
        <ele>51.480</ele>
        <time>2019-06-15T13:54:49Z</time>
      </trkpt>
      <trkpt lat="43.321423" lon="-1.948885">
        <ele>51.599</ele>
        <time>2019-06-15T13:54:50Z</time>
      </trkpt>
      <trkpt lat="43.321419" lon="-1.949070">
        <ele>51.468</ele>
        <time>2019-06-15T13:54:51Z</time>
      </trkpt>
      <trkpt lat="43.321417" lon="-1.949244">
        <ele>51.519</ele>
        <time>2019-06-15T13:54:52Z</time>
      </trkpt>
      <trkpt lat="43.321424" lon="-1.949442">
        <ele>51.898</ele>
        <time>2019-06-15T13:54:53Z</time>
      </trkpt>
      <trkpt lat="43.321426" lon="-1.949632">
        <ele>51.522</ele>
        <time>2019-06-15T13:54:54Z</time>
      </trkpt>
      <trkpt lat="43.321416" lon="-1.949796">
        <ele>51.284</ele>
        <time>2019-06-15T13:54:55Z</time>
      </trkpt>
      <trkpt lat="43.321413" lon="-1.949988">
        <ele>51.807</ele>
        <time>2019-06-15T13:54:56Z</time>
      </trkpt>
      <trkpt lat="43.321411" lon="-1.950145">
        <ele>51.817</ele>
        <time>2019-06-15T13:54:57Z</time>
      </trkpt>
      <trkpt lat="43.321407" lon="-1.950325">
        <ele>51.408</ele>
        <time>2019-06-15T13:54:58Z</time>
      </trkpt>
      <trkpt lat="43.321403" lon="-1.950511">
        <ele>50.761</ele>
        <time>2019-06-15T13:54:59Z</time>
      </trkpt>
      <trkpt lat="43.321403" lon="-1.950694">
        <ele>49.625</ele>
        <time>2019-06-15T13:55:00Z</time>
      </trkpt>
      <trkpt lat="43.321408" lon="-1.950880">
        <ele>48.824</ele>
        <time>2019-06-15T13:55:01Z</time>
      </trkpt>
      <trkpt lat="43.321414" lon="-1.951059">
        <ele>48.923</ele>
        <time>2019-06-15T13:55:02Z</time>
      </trkpt>
      <trkpt lat="43.321421" lon="-1.951242">
        <ele>48.682</ele>
        <time>2019-06-15T13:55:03Z</time>
      </trkpt>
      <trkpt lat="43.321426" lon="-1.951426">
        <ele>47.963</ele>
        <time>2019-06-15T13:55:04Z</time>
      </trkpt>
      <trkpt lat="43.321434" lon="-1.951608">
        <ele>46.872</ele>
        <time>2019-06-15T13:55:05Z</time>
      </trkpt>
      <trkpt lat="43.321436" lon="-1.951801">
        <ele>45.746</ele>
        <time>2019-06-15T13:55:06Z</time>
      </trkpt>
      <trkpt lat="43.321440" lon="-1.951981">
        <ele>44.965</ele>
        <time>2019-06-15T13:55:07Z</time>
      </trkpt>
      <trkpt lat="43.321445" lon="-1.952161">
        <ele>44.368</ele>
        <time>2019-06-15T13:55:08Z</time>
      </trkpt>
      <trkpt lat="43.321449" lon="-1.952305">
        <ele>43.514</ele>
        <time>2019-06-15T13:55:09Z</time>
      </trkpt>
      <trkpt lat="43.321455" lon="-1.952473">
        <ele>42.408</ele>
        <time>2019-06-15T13:55:10Z</time>
      </trkpt>
      <trkpt lat="43.321475" lon="-1.952616">
        <ele>41.949</ele>
        <time>2019-06-15T13:55:11Z</time>
      </trkpt>
      <trkpt lat="43.321486" lon="-1.952777">
        <ele>41.193</ele>
        <time>2019-06-15T13:55:12Z</time>
      </trkpt>
      <trkpt lat="43.321493" lon="-1.952916">
        <ele>40.432</ele>
        <time>2019-06-15T13:55:13Z</time>
      </trkpt>
      <trkpt lat="43.321504" lon="-1.953058">
        <ele>39.891</ele>
        <time>2019-06-15T13:55:14Z</time>
      </trkpt>
      <trkpt lat="43.321510" lon="-1.953218">
        <ele>39.380</ele>
        <time>2019-06-15T13:55:15Z</time>
      </trkpt>
      <trkpt lat="43.321520" lon="-1.953416">
        <ele>38.931</ele>
        <time>2019-06-15T13:55:16Z</time>
      </trkpt>
      <trkpt lat="43.321515" lon="-1.953620">
        <ele>38.990</ele>
        <time>2019-06-15T13:55:17Z</time>
      </trkpt>
      <trkpt lat="43.321519" lon="-1.953823">
        <ele>39.674</ele>
        <time>2019-06-15T13:55:18Z</time>
      </trkpt>
      <trkpt lat="43.321527" lon="-1.954028">
        <ele>39.791</ele>
        <time>2019-06-15T13:55:19Z</time>
      </trkpt>
      <trkpt lat="43.321541" lon="-1.954230">
        <ele>39.681</ele>
        <time>2019-06-15T13:55:20Z</time>
      </trkpt>
      <trkpt lat="43.321549" lon="-1.954446">
        <ele>38.919</ele>
        <time>2019-06-15T13:55:21Z</time>
      </trkpt>
      <trkpt lat="43.321559" lon="-1.954655">
        <ele>38.108</ele>
        <time>2019-06-15T13:55:22Z</time>
      </trkpt>
      <trkpt lat="43.321566" lon="-1.954875">
        <ele>37.462</ele>
        <time>2019-06-15T13:55:23Z</time>
      </trkpt>
      <trkpt lat="43.321571" lon="-1.955092">
        <ele>36.976</ele>
        <time>2019-06-15T13:55:24Z</time>
      </trkpt>
      <trkpt lat="43.321573" lon="-1.955309">
        <ele>36.595</ele>
        <time>2019-06-15T13:55:25Z</time>
      </trkpt>
      <trkpt lat="43.321582" lon="-1.955528">
        <ele>35.584</ele>
        <time>2019-06-15T13:55:26Z</time>
      </trkpt>
      <trkpt lat="43.321592" lon="-1.955733">
        <ele>35.053</ele>
        <time>2019-06-15T13:55:27Z</time>
      </trkpt>
      <trkpt lat="43.321604" lon="-1.955913">
        <ele>34.384</ele>
        <time>2019-06-15T13:55:28Z</time>
      </trkpt>
      <trkpt lat="43.321614" lon="-1.956113">
        <ele>33.013</ele>
        <time>2019-06-15T13:55:29Z</time>
      </trkpt>
      <trkpt lat="43.321626" lon="-1.956317">
        <ele>32.427</ele>
        <time>2019-06-15T13:55:30Z</time>
      </trkpt>
      <trkpt lat="43.321633" lon="-1.956538">
        <ele>31.674</ele>
        <time>2019-06-15T13:55:31Z</time>
      </trkpt>
      <trkpt lat="43.321637" lon="-1.956758">
        <ele>30.956</ele>
        <time>2019-06-15T13:55:32Z</time>
      </trkpt>
      <trkpt lat="43.321642" lon="-1.956985">
        <ele>30.021</ele>
        <time>2019-06-15T13:55:33Z</time>
      </trkpt>
      <trkpt lat="43.321649" lon="-1.957221">
        <ele>29.108</ele>
        <time>2019-06-15T13:55:34Z</time>
      </trkpt>
      <trkpt lat="43.321662" lon="-1.957454">
        <ele>28.250</ele>
        <time>2019-06-15T13:55:35Z</time>
      </trkpt>
      <trkpt lat="43.321672" lon="-1.957684">
        <ele>27.414</ele>
        <time>2019-06-15T13:55:36Z</time>
      </trkpt>
      <trkpt lat="43.321686" lon="-1.957925">
        <ele>26.543</ele>
        <time>2019-06-15T13:55:37Z</time>
      </trkpt>
      <trkpt lat="43.321702" lon="-1.958140">
        <ele>26.132</ele>
        <time>2019-06-15T13:55:38Z</time>
      </trkpt>
      <trkpt lat="43.321714" lon="-1.958347">
        <ele>26.031</ele>
        <time>2019-06-15T13:55:39Z</time>
      </trkpt>
      <trkpt lat="43.321724" lon="-1.958556">
        <ele>25.442</ele>
        <time>2019-06-15T13:55:40Z</time>
      </trkpt>
      <trkpt lat="43.321741" lon="-1.958757">
        <ele>25.151</ele>
        <time>2019-06-15T13:55:41Z</time>
      </trkpt>
      <trkpt lat="43.321754" lon="-1.958962">
        <ele>24.645</ele>
        <time>2019-06-15T13:55:42Z</time>
      </trkpt>
      <trkpt lat="43.321761" lon="-1.959157">
        <ele>23.464</ele>
        <time>2019-06-15T13:55:43Z</time>
      </trkpt>
      <trkpt lat="43.321775" lon="-1.959351">
        <ele>22.706</ele>
        <time>2019-06-15T13:55:44Z</time>
      </trkpt>
      <trkpt lat="43.321788" lon="-1.959515">
        <ele>22.316</ele>
        <time>2019-06-15T13:55:45Z</time>
      </trkpt>
      <trkpt lat="43.321799" lon="-1.959683">
        <ele>22.108</ele>
        <time>2019-06-15T13:55:46Z</time>
      </trkpt>
      <trkpt lat="43.321812" lon="-1.959855">
        <ele>21.839</ele>
        <time>2019-06-15T13:55:47Z</time>
      </trkpt>
      <trkpt lat="43.321813" lon="-1.960020">
        <ele>21.463</ele>
        <time>2019-06-15T13:55:48Z</time>
      </trkpt>
      <trkpt lat="43.321827" lon="-1.960186">
        <ele>20.252</ele>
        <time>2019-06-15T13:55:49Z</time>
      </trkpt>
      <trkpt lat="43.321847" lon="-1.960350">
        <ele>19.571</ele>
        <time>2019-06-15T13:55:50Z</time>
      </trkpt>
      <trkpt lat="43.321873" lon="-1.960506">
        <ele>19.190</ele>
        <time>2019-06-15T13:55:51Z</time>
      </trkpt>
      <trkpt lat="43.321923" lon="-1.960637">
        <ele>18.731</ele>
        <time>2019-06-15T13:55:52Z</time>
      </trkpt>
      <trkpt lat="43.321988" lon="-1.960724">
        <ele>18.530</ele>
        <time>2019-06-15T13:55:53Z</time>
      </trkpt>
      <trkpt lat="43.322048" lon="-1.960809">
        <ele>18.494</ele>
        <time>2019-06-15T13:55:54Z</time>
      </trkpt>
      <trkpt lat="43.322109" lon="-1.960877">
        <ele>18.483</ele>
        <time>2019-06-15T13:55:55Z</time>
      </trkpt>
      <trkpt lat="43.322129" lon="-1.960987">
        <ele>18.125</ele>
        <time>2019-06-15T13:55:56Z</time>
      </trkpt>
      <trkpt lat="43.322131" lon="-1.961099">
        <ele>17.717</ele>
        <time>2019-06-15T13:55:57Z</time>
      </trkpt>
      <trkpt lat="43.322107" lon="-1.961259">
        <ele>16.708</ele>
        <time>2019-06-15T13:55:58Z</time>
      </trkpt>
      <trkpt lat="43.322077" lon="-1.961327">
        <ele>16.391</ele>
        <time>2019-06-15T13:55:59Z</time>
      </trkpt>
      <trkpt lat="43.322035" lon="-1.961418">
        <ele>15.955</ele>
        <time>2019-06-15T13:56:00Z</time>
      </trkpt>
      <trkpt lat="43.321999" lon="-1.961476">
        <ele>15.764</ele>
        <time>2019-06-15T13:56:01Z</time>
      </trkpt>
      <trkpt lat="43.321968" lon="-1.961546">
        <ele>15.413</ele>
        <time>2019-06-15T13:56:02Z</time>
      </trkpt>
      <trkpt lat="43.321991" lon="-1.961481">
        <ele>15.792</ele>
        <time>2019-06-15T13:56:16Z</time>
      </trkpt>
      <trkpt lat="43.321940" lon="-1.961630">
        <ele>15.143</ele>
        <time>2019-06-15T13:56:24Z</time>
      </trkpt>
      <trkpt lat="43.321916" lon="-1.961735">
        <ele>15.062</ele>
        <time>2019-06-15T13:56:25Z</time>
      </trkpt>
      <trkpt lat="43.321913" lon="-1.961872">
        <ele>15.086</ele>
        <time>2019-06-15T13:56:26Z</time>
      </trkpt>
      <trkpt lat="43.321917" lon="-1.962035">
        <ele>14.745</ele>
        <time>2019-06-15T13:56:27Z</time>
      </trkpt>
      <trkpt lat="43.321929" lon="-1.962231">
        <ele>14.047</ele>
        <time>2019-06-15T13:56:28Z</time>
      </trkpt>
      <trkpt lat="43.321930" lon="-1.962435">
        <ele>13.211</ele>
        <time>2019-06-15T13:56:29Z</time>
      </trkpt>
      <trkpt lat="43.321939" lon="-1.962646">
        <ele>13.008</ele>
        <time>2019-06-15T13:56:30Z</time>
      </trkpt>
      <trkpt lat="43.321939" lon="-1.962829">
        <ele>12.897</ele>
        <time>2019-06-15T13:56:31Z</time>
      </trkpt>
      <trkpt lat="43.321949" lon="-1.963027">
        <ele>12.181</ele>
        <time>2019-06-15T13:56:32Z</time>
      </trkpt>
      <trkpt lat="43.321963" lon="-1.963217">
        <ele>11.610</ele>
        <time>2019-06-15T13:56:33Z</time>
      </trkpt>
      <trkpt lat="43.321971" lon="-1.963434">
        <ele>11.319</ele>
        <time>2019-06-15T13:56:34Z</time>
      </trkpt>
      <trkpt lat="43.321980" lon="-1.963653">
        <ele>11.288</ele>
        <time>2019-06-15T13:56:35Z</time>
      </trkpt>
      <trkpt lat="43.321988" lon="-1.963863">
        <ele>11.239</ele>
        <time>2019-06-15T13:56:36Z</time>
      </trkpt>
      <trkpt lat="43.321992" lon="-1.964076">
        <ele>11.228</ele>
        <time>2019-06-15T13:56:37Z</time>
      </trkpt>
      <trkpt lat="43.322002" lon="-1.964290">
        <ele>10.962</ele>
        <time>2019-06-15T13:56:38Z</time>
      </trkpt>
      <trkpt lat="43.322014" lon="-1.964503">
        <ele>10.529</ele>
        <time>2019-06-15T13:56:39Z</time>
      </trkpt>
      <trkpt lat="43.322022" lon="-1.964708">
        <ele>10.600</ele>
        <time>2019-06-15T13:56:40Z</time>
      </trkpt>
      <trkpt lat="43.322036" lon="-1.964905">
        <ele>10.420</ele>
        <time>2019-06-15T13:56:41Z</time>
      </trkpt>
      <trkpt lat="43.322046" lon="-1.965103">
        <ele>10.208</ele>
        <time>2019-06-15T13:56:42Z</time>
      </trkpt>
      <trkpt lat="43.322069" lon="-1.965293">
        <ele>10.025</ele>
        <time>2019-06-15T13:56:43Z</time>
      </trkpt>
      <trkpt lat="43.322094" lon="-1.965485">
        <ele>10.099</ele>
        <time>2019-06-15T13:56:44Z</time>
      </trkpt>
      <trkpt lat="43.322121" lon="-1.965671">
        <ele>10.068</ele>
        <time>2019-06-15T13:56:45Z</time>
      </trkpt>
      <trkpt lat="43.322163" lon="-1.965811">
        <ele>10.047</ele>
        <time>2019-06-15T13:56:46Z</time>
      </trkpt>
      <trkpt lat="43.322215" lon="-1.965934">
        <ele>10.086</ele>
        <time>2019-06-15T13:56:47Z</time>
      </trkpt>
      <trkpt lat="43.322255" lon="-1.966037">
        <ele>10.087</ele>
        <time>2019-06-15T13:56:48Z</time>
      </trkpt>
      <trkpt lat="43.322298" lon="-1.966096">
        <ele>10.076</ele>
        <time>2019-06-15T13:56:49Z</time>
      </trkpt>
      <trkpt lat="43.322338" lon="-1.966197">
        <ele>9.810</ele>
        <time>2019-06-15T13:56:51Z</time>
      </trkpt>
      <trkpt lat="43.322404" lon="-1.966261">
        <ele>9.861</ele>
        <time>2019-06-15T13:56:57Z</time>
      </trkpt>
      <trkpt lat="43.322445" lon="-1.966309">
        <ele>9.921</ele>
        <time>2019-06-15T13:56:58Z</time>
      </trkpt>
      <trkpt lat="43.322503" lon="-1.966392">
        <ele>10.013</ele>
        <time>2019-06-15T13:56:59Z</time>
      </trkpt>
      <trkpt lat="43.322565" lon="-1.966472">
        <ele>10.208</ele>
        <time>2019-06-15T13:57:00Z</time>
      </trkpt>
      <trkpt lat="43.322621" lon="-1.966555">
        <ele>10.289</ele>
        <time>2019-06-15T13:57:01Z</time>
      </trkpt>
      <trkpt lat="43.322689" lon="-1.966637">
        <ele>10.143</ele>
        <time>2019-06-15T13:57:02Z</time>
      </trkpt>
      <trkpt lat="43.322759" lon="-1.966726">
        <ele>10.262</ele>
        <time>2019-06-15T13:57:03Z</time>
      </trkpt>
      <trkpt lat="43.322817" lon="-1.966806">
        <ele>10.571</ele>
        <time>2019-06-15T13:57:04Z</time>
      </trkpt>
      <trkpt lat="43.322888" lon="-1.966872">
        <ele>10.710</ele>
        <time>2019-06-15T13:57:05Z</time>
      </trkpt>
      <trkpt lat="43.322942" lon="-1.966935">
        <ele>11.041</ele>
        <time>2019-06-15T13:57:06Z</time>
      </trkpt>
      <trkpt lat="43.322992" lon="-1.966995">
        <ele>11.090</ele>
        <time>2019-06-15T13:57:07Z</time>
      </trkpt>
      <trkpt lat="43.323058" lon="-1.967072">
        <ele>11.024</ele>
        <time>2019-06-15T13:57:08Z</time>
      </trkpt>
      <trkpt lat="43.323128" lon="-1.967156">
        <ele>11.393</ele>
        <time>2019-06-15T13:57:09Z</time>
      </trkpt>
      <trkpt lat="43.323192" lon="-1.967241">
        <ele>11.565</ele>
        <time>2019-06-15T13:57:10Z</time>
      </trkpt>
      <trkpt lat="43.323270" lon="-1.967359">
        <ele>11.821</ele>
        <time>2019-06-15T13:57:11Z</time>
      </trkpt>
      <trkpt lat="43.323351" lon="-1.967459">
        <ele>12.008</ele>
        <time>2019-06-15T13:57:12Z</time>
      </trkpt>
      <trkpt lat="43.323438" lon="-1.967542">
        <ele>12.012</ele>
        <time>2019-06-15T13:57:13Z</time>
      </trkpt>
      <trkpt lat="43.323504" lon="-1.967658">
        <ele>12.046</ele>
        <time>2019-06-15T13:57:14Z</time>
      </trkpt>
      <trkpt lat="43.323603" lon="-1.967745">
        <ele>12.015</ele>
        <time>2019-06-15T13:57:15Z</time>
      </trkpt>
      <trkpt lat="43.323688" lon="-1.967859">
        <ele>12.344</ele>
        <time>2019-06-15T13:57:16Z</time>
      </trkpt>
      <trkpt lat="43.323767" lon="-1.967966">
        <ele>12.723</ele>
        <time>2019-06-15T13:57:17Z</time>
      </trkpt>
      <trkpt lat="43.323839" lon="-1.968057">
        <ele>13.084</ele>
        <time>2019-06-15T13:57:18Z</time>
      </trkpt>
      <trkpt lat="43.323927" lon="-1.968165">
        <ele>13.083</ele>
        <time>2019-06-15T13:57:19Z</time>
      </trkpt>
      <trkpt lat="43.324019" lon="-1.968286">
        <ele>13.017</ele>
        <time>2019-06-15T13:57:20Z</time>
      </trkpt>
      <trkpt lat="43.324109" lon="-1.968407">
        <ele>13.286</ele>
        <time>2019-06-15T13:57:21Z</time>
      </trkpt>
      <trkpt lat="43.324204" lon="-1.968533">
        <ele>13.960</ele>
        <time>2019-06-15T13:57:22Z</time>
      </trkpt>
      <trkpt lat="43.324295" lon="-1.968651">
        <ele>14.526</ele>
        <time>2019-06-15T13:57:23Z</time>
      </trkpt>
      <trkpt lat="43.324391" lon="-1.968772">
        <ele>14.808</ele>
        <time>2019-06-15T13:57:24Z</time>
      </trkpt>
      <trkpt lat="43.324490" lon="-1.968884">
        <ele>15.711</ele>
        <time>2019-06-15T13:57:25Z</time>
      </trkpt>
      <trkpt lat="43.324581" lon="-1.968999">
        <ele>16.045</ele>
        <time>2019-06-15T13:57:26Z</time>
      </trkpt>
      <trkpt lat="43.324682" lon="-1.969145">
        <ele>15.164</ele>
        <time>2019-06-15T13:57:27Z</time>
      </trkpt>
      <trkpt lat="43.324783" lon="-1.969294">
        <ele>15.123</ele>
        <time>2019-06-15T13:57:28Z</time>
      </trkpt>
      <trkpt lat="43.324887" lon="-1.969424">
        <ele>15.172</ele>
        <time>2019-06-15T13:57:29Z</time>
      </trkpt>
      <trkpt lat="43.324968" lon="-1.969559">
        <ele>14.663</ele>
        <time>2019-06-15T13:57:30Z</time>
      </trkpt>
      <trkpt lat="43.325088" lon="-1.969662">
        <ele>15.182</ele>
        <time>2019-06-15T13:57:31Z</time>
      </trkpt>
      <trkpt lat="43.325165" lon="-1.969788">
        <ele>14.826</ele>
        <time>2019-06-15T13:57:32Z</time>
      </trkpt>
      <trkpt lat="43.325260" lon="-1.969905">
        <ele>14.394</ele>
        <time>2019-06-15T13:57:33Z</time>
      </trkpt>
      <trkpt lat="43.325352" lon="-1.970025">
        <ele>13.757</ele>
        <time>2019-06-15T13:57:34Z</time>
      </trkpt>
      <trkpt lat="43.325454" lon="-1.970155">
        <ele>13.822</ele>
        <time>2019-06-15T13:57:35Z</time>
      </trkpt>
      <trkpt lat="43.325555" lon="-1.970285">
        <ele>13.008</ele>
        <time>2019-06-15T13:57:36Z</time>
      </trkpt>
      <trkpt lat="43.325652" lon="-1.970401">
        <ele>14.022</ele>
        <time>2019-06-15T13:57:37Z</time>
      </trkpt>
      <trkpt lat="43.325745" lon="-1.970529">
        <ele>13.766</ele>
        <time>2019-06-15T13:57:38Z</time>
      </trkpt>
      <trkpt lat="43.325843" lon="-1.970649">
        <ele>13.055</ele>
        <time>2019-06-15T13:57:39Z</time>
      </trkpt>
      <trkpt lat="43.325930" lon="-1.970772">
        <ele>12.174</ele>
        <time>2019-06-15T13:57:40Z</time>
      </trkpt>
      <trkpt lat="43.326015" lon="-1.970894">
        <ele>11.583</ele>
        <time>2019-06-15T13:57:41Z</time>
      </trkpt>
      <trkpt lat="43.326103" lon="-1.971007">
        <ele>11.484</ele>
        <time>2019-06-15T13:57:42Z</time>
      </trkpt>
      <trkpt lat="43.326186" lon="-1.971109">
        <ele>10.713</ele>
        <time>2019-06-15T13:57:43Z</time>
      </trkpt>
      <trkpt lat="43.326265" lon="-1.971205">
        <ele>10.327</ele>
        <time>2019-06-15T13:57:44Z</time>
      </trkpt>
      <trkpt lat="43.326343" lon="-1.971309">
        <ele>10.032</ele>
        <time>2019-06-15T13:57:45Z</time>
      </trkpt>
      <trkpt lat="43.326405" lon="-1.971428">
        <ele>9.992</ele>
        <time>2019-06-15T13:57:46Z</time>
      </trkpt>
      <trkpt lat="43.326457" lon="-1.971536">
        <ele>9.911</ele>
        <time>2019-06-15T13:57:47Z</time>
      </trkpt>
      <trkpt lat="43.326505" lon="-1.971660">
        <ele>10.008</ele>
        <time>2019-06-15T13:57:48Z</time>
      </trkpt>
      <trkpt lat="43.326537" lon="-1.971804">
        <ele>9.536</ele>
        <time>2019-06-15T13:57:49Z</time>
      </trkpt>
      <trkpt lat="43.326554" lon="-1.971944">
        <ele>9.010</ele>
        <time>2019-06-15T13:57:50Z</time>
      </trkpt>
      <trkpt lat="43.326550" lon="-1.972057">
        <ele>8.859</ele>
        <time>2019-06-15T13:57:51Z</time>
      </trkpt>
      <trkpt lat="43.326522" lon="-1.972126">
        <ele>8.758</ele>
        <time>2019-06-15T13:57:52Z</time>
      </trkpt>
      <trkpt lat="43.326484" lon="-1.972257">
        <ele>8.697</ele>
        <time>2019-06-15T13:57:53Z</time>
      </trkpt>
      <trkpt lat="43.326438" lon="-1.972373">
        <ele>8.638</ele>
        <time>2019-06-15T13:57:54Z</time>
      </trkpt>
      <trkpt lat="43.326387" lon="-1.972516">
        <ele>8.977</ele>
        <time>2019-06-15T13:57:55Z</time>
      </trkpt>
      <trkpt lat="43.326327" lon="-1.972656">
        <ele>8.431</ele>
        <time>2019-06-15T13:57:56Z</time>
      </trkpt>
      <trkpt lat="43.326268" lon="-1.972792">
        <ele>8.066</ele>
        <time>2019-06-15T13:57:57Z</time>
      </trkpt>
      <trkpt lat="43.326212" lon="-1.972931">
        <ele>8.029</ele>
        <time>2019-06-15T13:57:58Z</time>
      </trkpt>
      <trkpt lat="43.326171" lon="-1.973025">
        <ele>8.321</ele>
        <time>2019-06-15T13:57:59Z</time>
      </trkpt>
      <trkpt lat="43.326117" lon="-1.973166">
        <ele>8.508</ele>
        <time>2019-06-15T13:58:00Z</time>
      </trkpt>
      <trkpt lat="43.326060" lon="-1.973314">
        <ele>8.149</ele>
        <time>2019-06-15T13:58:01Z</time>
      </trkpt>
      <trkpt lat="43.326004" lon="-1.973460">
        <ele>7.753</ele>
        <time>2019-06-15T13:58:02Z</time>
      </trkpt>
      <trkpt lat="43.325949" lon="-1.973601">
        <ele>7.642</ele>
        <time>2019-06-15T13:58:03Z</time>
      </trkpt>
      <trkpt lat="43.325893" lon="-1.973752">
        <ele>7.711</ele>
        <time>2019-06-15T13:58:04Z</time>
      </trkpt>
      <trkpt lat="43.325837" lon="-1.973900">
        <ele>8.040</ele>
        <time>2019-06-15T13:58:05Z</time>
      </trkpt>
      <trkpt lat="43.325783" lon="-1.974056">
        <ele>7.991</ele>
        <time>2019-06-15T13:58:06Z</time>
      </trkpt>
      <trkpt lat="43.325738" lon="-1.974200">
        <ele>8.090</ele>
        <time>2019-06-15T13:58:07Z</time>
      </trkpt>
      <trkpt lat="43.325672" lon="-1.974367">
        <ele>8.024</ele>
        <time>2019-06-15T13:58:08Z</time>
      </trkpt>
      <trkpt lat="43.325616" lon="-1.974524">
        <ele>7.736</ele>
        <time>2019-06-15T13:58:09Z</time>
      </trkpt>
      <trkpt lat="43.325555" lon="-1.974681">
        <ele>7.117</ele>
        <time>2019-06-15T13:58:10Z</time>
      </trkpt>
      <trkpt lat="43.325501" lon="-1.974833">
        <ele>7.018</ele>
        <time>2019-06-15T13:58:11Z</time>
      </trkpt>
      <trkpt lat="43.325448" lon="-1.974972">
        <ele>7.008</ele>
        <time>2019-06-15T13:58:12Z</time>
      </trkpt>
      <trkpt lat="43.325400" lon="-1.975109">
        <ele>7.086</ele>
        <time>2019-06-15T13:58:13Z</time>
      </trkpt>
      <trkpt lat="43.325351" lon="-1.975254">
        <ele>7.010</ele>
        <time>2019-06-15T13:58:14Z</time>
      </trkpt>
      <trkpt lat="43.325289" lon="-1.975390">
        <ele>7.019</ele>
        <time>2019-06-15T13:58:15Z</time>
      </trkpt>
      <trkpt lat="43.325227" lon="-1.975548">
        <ele>7.068</ele>
        <time>2019-06-15T13:58:16Z</time>
      </trkpt>
      <trkpt lat="43.325166" lon="-1.975719">
        <ele>7.047</ele>
        <time>2019-06-15T13:58:17Z</time>
      </trkpt>
      <trkpt lat="43.325105" lon="-1.975884">
        <ele>7.088</ele>
        <time>2019-06-15T13:58:18Z</time>
      </trkpt>
      <trkpt lat="43.325043" lon="-1.976049">
        <ele>7.097</ele>
        <time>2019-06-15T13:58:19Z</time>
      </trkpt>
      <trkpt lat="43.324975" lon="-1.976217">
        <ele>7.031</ele>
        <time>2019-06-15T13:58:20Z</time>
      </trkpt>
      <trkpt lat="43.324904" lon="-1.976399">
        <ele>7.069</ele>
        <time>2019-06-15T13:58:21Z</time>
      </trkpt>
      <trkpt lat="43.324838" lon="-1.976563">
        <ele>7.004</ele>
        <time>2019-06-15T13:58:22Z</time>
      </trkpt>
      <trkpt lat="43.324775" lon="-1.976718">
        <ele>7.024</ele>
        <time>2019-06-15T13:58:23Z</time>
      </trkpt>
      <trkpt lat="43.324723" lon="-1.976867">
        <ele>7.008</ele>
        <time>2019-06-15T13:58:24Z</time>
      </trkpt>
      <trkpt lat="43.324663" lon="-1.976998">
        <ele>6.839</ele>
        <time>2019-06-15T13:58:25Z</time>
      </trkpt>
      <trkpt lat="43.324614" lon="-1.977128">
        <ele>6.693</ele>
        <time>2019-06-15T13:58:26Z</time>
      </trkpt>
      <trkpt lat="43.324564" lon="-1.977245">
        <ele>6.692</ele>
        <time>2019-06-15T13:58:27Z</time>
      </trkpt>
      <trkpt lat="43.324519" lon="-1.977339">
        <ele>6.871</ele>
        <time>2019-06-15T13:58:28Z</time>
      </trkpt>
      <trkpt lat="43.324487" lon="-1.977421">
        <ele>7.020</ele>
        <time>2019-06-15T13:58:29Z</time>
      </trkpt>
      <trkpt lat="43.324455" lon="-1.977528">
        <ele>7.011</ele>
        <time>2019-06-15T13:58:31Z</time>
      </trkpt>
      <trkpt lat="43.324449" lon="-1.977622">
        <ele>7.050</ele>
        <time>2019-06-15T13:59:08Z</time>
      </trkpt>
      <trkpt lat="43.324385" lon="-1.977835">
        <ele>7.294</ele>
        <time>2019-06-15T13:59:10Z</time>
      </trkpt>
      <trkpt lat="43.324341" lon="-1.977947">
        <ele>7.442</ele>
        <time>2019-06-15T13:59:11Z</time>
      </trkpt>
      <trkpt lat="43.324305" lon="-1.978067">
        <ele>7.522</ele>
        <time>2019-06-15T13:59:12Z</time>
      </trkpt>
      <trkpt lat="43.324260" lon="-1.978195">
        <ele>7.314</ele>
        <time>2019-06-15T13:59:13Z</time>
      </trkpt>
      <trkpt lat="43.324211" lon="-1.978320">
        <ele>7.208</ele>
        <time>2019-06-15T13:59:14Z</time>
      </trkpt>
      <trkpt lat="43.324171" lon="-1.978449">
        <ele>7.027</ele>
        <time>2019-06-15T13:59:15Z</time>
      </trkpt>
      <trkpt lat="43.324116" lon="-1.978573">
        <ele>7.071</ele>
        <time>2019-06-15T13:59:16Z</time>
      </trkpt>
      <trkpt lat="43.324083" lon="-1.978655">
        <ele>7.130</ele>
        <time>2019-06-15T13:59:17Z</time>
      </trkpt>
      <trkpt lat="43.324042" lon="-1.978756">
        <ele>7.379</ele>
        <time>2019-06-15T13:59:18Z</time>
      </trkpt>
      <trkpt lat="43.323989" lon="-1.978903">
        <ele>7.378</ele>
        <time>2019-06-15T13:59:19Z</time>
      </trkpt>
      <trkpt lat="43.323940" lon="-1.979000">
        <ele>7.149</ele>
        <time>2019-06-15T13:59:20Z</time>
      </trkpt>
      <trkpt lat="43.323894" lon="-1.979106">
        <ele>7.038</ele>
        <time>2019-06-15T13:59:21Z</time>
      </trkpt>
      <trkpt lat="43.323851" lon="-1.979227">
        <ele>6.772</ele>
        <time>2019-06-15T13:59:22Z</time>
      </trkpt>
      <trkpt lat="43.323807" lon="-1.979333">
        <ele>5.751</ele>
        <time>2019-06-15T13:59:23Z</time>
      </trkpt>
      <trkpt lat="43.323767" lon="-1.979402">
        <ele>4.701</ele>
        <time>2019-06-15T13:59:24Z</time>
      </trkpt>
      <trkpt lat="43.323716" lon="-1.979559">
        <ele>2.111</ele>
        <time>2019-06-15T13:59:25Z</time>
      </trkpt>
      <trkpt lat="43.323686" lon="-1.979666">
        <ele>0.608</ele>
        <time>2019-06-15T13:59:26Z</time>
      </trkpt>
      <trkpt lat="43.323615" lon="-1.979836">
        <ele>0.048</ele>
        <time>2019-06-15T13:59:27Z</time>
      </trkpt>
      <trkpt lat="43.323573" lon="-1.979947">
        <ele>0.052</ele>
        <time>2019-06-15T13:59:28Z</time>
      </trkpt>
      <trkpt lat="43.323532" lon="-1.980048">
        <ele>0.071</ele>
        <time>2019-06-15T13:59:29Z</time>
      </trkpt>
      <trkpt lat="43.323492" lon="-1.980152">
        <ele>0.080</ele>
        <time>2019-06-15T13:59:30Z</time>
      </trkpt>
      <trkpt lat="43.323452" lon="-1.980245">
        <ele>0.049</ele>
        <time>2019-06-15T13:59:31Z</time>
      </trkpt>
      <trkpt lat="43.323426" lon="-1.980325">
        <ele>0.320</ele>
        <time>2019-06-15T13:59:32Z</time>
      </trkpt>
      <trkpt lat="43.323395" lon="-1.980404">
        <ele>1.199</ele>
        <time>2019-06-15T13:59:33Z</time>
      </trkpt>
      <trkpt lat="43.323358" lon="-1.980485">
        <ele>2.053</ele>
        <time>2019-06-15T13:59:34Z</time>
      </trkpt>
      <trkpt lat="43.323342" lon="-1.980559">
        <ele>3.056</ele>
        <time>2019-06-15T13:59:37Z</time>
      </trkpt>
      <trkpt lat="43.323302" lon="-1.980634">
        <ele>4.559</ele>
        <time>2019-06-15T13:59:39Z</time>
      </trkpt>
      <trkpt lat="43.323274" lon="-1.980682">
        <ele>5.314</ele>
        <time>2019-06-15T13:59:40Z</time>
      </trkpt>
      <trkpt lat="43.323247" lon="-1.980741">
        <ele>6.108</ele>
        <time>2019-06-15T13:59:41Z</time>
      </trkpt>
      <trkpt lat="43.323224" lon="-1.980804">
        <ele>6.738</ele>
        <time>2019-06-15T13:59:42Z</time>
      </trkpt>
      <trkpt lat="43.323202" lon="-1.980875">
        <ele>7.092</ele>
        <time>2019-06-15T13:59:43Z</time>
      </trkpt>
      <trkpt lat="43.323170" lon="-1.980958">
        <ele>7.071</ele>
        <time>2019-06-15T13:59:44Z</time>
      </trkpt>
      <trkpt lat="43.323136" lon="-1.981064">
        <ele>7.030</ele>
        <time>2019-06-15T13:59:45Z</time>
      </trkpt>
      <trkpt lat="43.323104" lon="-1.981159">
        <ele>6.949</ele>
        <time>2019-06-15T13:59:46Z</time>
      </trkpt>
      <trkpt lat="43.323081" lon="-1.981260">
        <ele>6.540</ele>
        <time>2019-06-15T13:59:47Z</time>
      </trkpt>
      <trkpt lat="43.323056" lon="-1.981363">
        <ele>6.119</ele>
        <time>2019-06-15T13:59:48Z</time>
      </trkpt>
      <trkpt lat="43.323023" lon="-1.981464">
        <ele>6.113</ele>
        <time>2019-06-15T13:59:49Z</time>
      </trkpt>
      <trkpt lat="43.322997" lon="-1.981559">
        <ele>6.121</ele>
        <time>2019-06-15T13:59:50Z</time>
      </trkpt>
      <trkpt lat="43.322967" lon="-1.981666">
        <ele>6.041</ele>
        <time>2019-06-15T13:59:51Z</time>
      </trkpt>
      <trkpt lat="43.322923" lon="-1.981780">
        <ele>6.005</ele>
        <time>2019-06-15T13:59:52Z</time>
      </trkpt>
      <trkpt lat="43.322868" lon="-1.981917">
        <ele>6.008</ele>
        <time>2019-06-15T13:59:53Z</time>
      </trkpt>
      <trkpt lat="43.322818" lon="-1.982026">
        <ele>6.035</ele>
        <time>2019-06-15T13:59:54Z</time>
      </trkpt>
      <trkpt lat="43.322770" lon="-1.982141">
        <ele>6.079</ele>
        <time>2019-06-15T13:59:55Z</time>
      </trkpt>
      <trkpt lat="43.322711" lon="-1.982307">
        <ele>6.088</ele>
        <time>2019-06-15T13:59:56Z</time>
      </trkpt>
      <trkpt lat="43.322643" lon="-1.982443">
        <ele>6.047</ele>
        <time>2019-06-15T13:59:57Z</time>
      </trkpt>
      <trkpt lat="43.322598" lon="-1.982561">
        <ele>6.016</ele>
        <time>2019-06-15T13:59:58Z</time>
      </trkpt>
      <trkpt lat="43.322551" lon="-1.982687">
        <ele>6.097</ele>
        <time>2019-06-15T13:59:59Z</time>
      </trkpt>
      <trkpt lat="43.322506" lon="-1.982810">
        <ele>6.046</ele>
        <time>2019-06-15T14:00:00Z</time>
      </trkpt>
      <trkpt lat="43.322458" lon="-1.982931">
        <ele>6.070</ele>
        <time>2019-06-15T14:00:01Z</time>
      </trkpt>
      <trkpt lat="43.322419" lon="-1.983043">
        <ele>6.017</ele>
        <time>2019-06-15T14:00:02Z</time>
      </trkpt>
      <trkpt lat="43.322359" lon="-1.983177">
        <ele>6.087</ele>
        <time>2019-06-15T14:00:03Z</time>
      </trkpt>
      <trkpt lat="43.322332" lon="-1.983274">
        <ele>6.015</ele>
        <time>2019-06-15T14:00:04Z</time>
      </trkpt>
      <trkpt lat="43.322294" lon="-1.983370">
        <ele>6.008</ele>
        <time>2019-06-15T14:00:05Z</time>
      </trkpt>
      <trkpt lat="43.322270" lon="-1.983446">
        <ele>6.014</ele>
        <time>2019-06-15T14:00:06Z</time>
      </trkpt>
      <trkpt lat="43.322255" lon="-1.983513">
        <ele>6.048</ele>
        <time>2019-06-15T14:00:10Z</time>
      </trkpt>
      <trkpt lat="43.322214" lon="-1.983580">
        <ele>6.077</ele>
        <time>2019-06-15T14:00:16Z</time>
      </trkpt>
      <trkpt lat="43.322178" lon="-1.983655">
        <ele>6.096</ele>
        <time>2019-06-15T14:00:18Z</time>
      </trkpt>
      <trkpt lat="43.322139" lon="-1.983728">
        <ele>6.065</ele>
        <time>2019-06-15T14:00:19Z</time>
      </trkpt>
      <trkpt lat="43.322110" lon="-1.983796">
        <ele>6.086</ele>
        <time>2019-06-15T14:00:20Z</time>
      </trkpt>
      <trkpt lat="43.322086" lon="-1.983868">
        <ele>6.095</ele>
        <time>2019-06-15T14:00:21Z</time>
      </trkpt>
      <trkpt lat="43.322055" lon="-1.983957">
        <ele>6.039</ele>
        <time>2019-06-15T14:00:22Z</time>
      </trkpt>
      <trkpt lat="43.322027" lon="-1.984040">
        <ele>6.035</ele>
        <time>2019-06-15T14:00:23Z</time>
      </trkpt>
      <trkpt lat="43.321999" lon="-1.984120">
        <ele>6.086</ele>
        <time>2019-06-15T14:00:24Z</time>
      </trkpt>
      <trkpt lat="43.321967" lon="-1.984201">
        <ele>6.014</ele>
        <time>2019-06-15T14:00:25Z</time>
      </trkpt>
      <trkpt lat="43.321940" lon="-1.984294">
        <ele>6.008</ele>
        <time>2019-06-15T14:00:26Z</time>
      </trkpt>
      <trkpt lat="43.321897" lon="-1.984377">
        <ele>6.036</ele>
        <time>2019-06-15T14:00:27Z</time>
      </trkpt>
      <trkpt lat="43.321850" lon="-1.984445">
        <ele>6.080</ele>
        <time>2019-06-15T14:00:28Z</time>
      </trkpt>
      <trkpt lat="43.321817" lon="-1.984533">
        <ele>6.229</ele>
        <time>2019-06-15T14:00:29Z</time>
      </trkpt>
      <trkpt lat="43.321790" lon="-1.984630">
        <ele>6.348</ele>
        <time>2019-06-15T14:00:30Z</time>
      </trkpt>
      <trkpt lat="43.321757" lon="-1.984710">
        <ele>6.397</ele>
        <time>2019-06-15T14:00:31Z</time>
      </trkpt>
      <trkpt lat="43.321722" lon="-1.984782">
        <ele>6.458</ele>
        <time>2019-06-15T14:00:32Z</time>
      </trkpt>
      <trkpt lat="43.321701" lon="-1.984858">
        <ele>6.637</ele>
        <time>2019-06-15T14:00:33Z</time>
      </trkpt>
      <trkpt lat="43.321643" lon="-1.984905">
        <ele>6.711</ele>
        <time>2019-06-15T14:00:35Z</time>
      </trkpt>
      <trkpt lat="43.321589" lon="-1.984920">
        <ele>6.779</ele>
        <time>2019-06-15T14:00:36Z</time>
      </trkpt>
      <trkpt lat="43.321506" lon="-1.984919">
        <ele>6.705</ele>
        <time>2019-06-15T14:00:38Z</time>
      </trkpt>
      <trkpt lat="43.321405" lon="-1.984835">
        <ele>6.425</ele>
        <time>2019-06-15T14:00:39Z</time>
      </trkpt>
      <trkpt lat="43.321321" lon="-1.984794">
        <ele>6.408</ele>
        <time>2019-06-15T14:00:40Z</time>
      </trkpt>
      <trkpt lat="43.321242" lon="-1.984731">
        <ele>6.510</ele>
        <time>2019-06-15T14:00:41Z</time>
      </trkpt>
      <trkpt lat="43.321163" lon="-1.984683">
        <ele>6.744</ele>
        <time>2019-06-15T14:00:42Z</time>
      </trkpt>
      <trkpt lat="43.321074" lon="-1.984612">
        <ele>6.723</ele>
        <time>2019-06-15T14:00:43Z</time>
      </trkpt>
      <trkpt lat="43.320991" lon="-1.984542">
        <ele>6.682</ele>
        <time>2019-06-15T14:00:44Z</time>
      </trkpt>
      <trkpt lat="43.320896" lon="-1.984481">
        <ele>6.841</ele>
        <time>2019-06-15T14:00:45Z</time>
      </trkpt>
      <trkpt lat="43.320809" lon="-1.984426">
        <ele>7.012</ele>
        <time>2019-06-15T14:00:46Z</time>
      </trkpt>
      <trkpt lat="43.320722" lon="-1.984358">
        <ele>7.091</ele>
        <time>2019-06-15T14:00:47Z</time>
      </trkpt>
      <trkpt lat="43.320645" lon="-1.984294">
        <ele>7.025</ele>
        <time>2019-06-15T14:00:48Z</time>
      </trkpt>
      <trkpt lat="43.320555" lon="-1.984221">
        <ele>7.018</ele>
        <time>2019-06-15T14:00:49Z</time>
      </trkpt>
      <trkpt lat="43.320479" lon="-1.984163">
        <ele>7.098</ele>
        <time>2019-06-15T14:00:50Z</time>
      </trkpt>
      <trkpt lat="43.320404" lon="-1.984115">
        <ele>7.017</ele>
        <time>2019-06-15T14:00:51Z</time>
      </trkpt>
      <trkpt lat="43.320343" lon="-1.984073">
        <ele>7.008</ele>
        <time>2019-06-15T14:00:52Z</time>
      </trkpt>
      <trkpt lat="43.320283" lon="-1.984038">
        <ele>7.034</ele>
        <time>2019-06-15T14:00:53Z</time>
      </trkpt>
      <trkpt lat="43.320214" lon="-1.983985">
        <ele>7.068</ele>
        <time>2019-06-15T14:00:55Z</time>
      </trkpt>
      <trkpt lat="43.320157" lon="-1.983960">
        <ele>7.057</ele>
        <time>2019-06-15T14:01:22Z</time>
      </trkpt>
      <trkpt lat="43.320114" lon="-1.983940">
        <ele>7.096</ele>
        <time>2019-06-15T14:01:24Z</time>
      </trkpt>
      <trkpt lat="43.320072" lon="-1.983990">
        <ele>7.035</ele>
        <time>2019-06-15T14:01:26Z</time>
      </trkpt>
      <trkpt lat="43.320049" lon="-1.984076">
        <ele>7.026</ele>
        <time>2019-06-15T14:01:27Z</time>
      </trkpt>
      <trkpt lat="43.320011" lon="-1.984165">
        <ele>7.075</ele>
        <time>2019-06-15T14:01:28Z</time>
      </trkpt>
      <trkpt lat="43.319980" lon="-1.984246">
        <ele>7.069</ele>
        <time>2019-06-15T14:01:29Z</time>
      </trkpt>
      <trkpt lat="43.319947" lon="-1.984335">
        <ele>7.015</ele>
        <time>2019-06-15T14:01:30Z</time>
      </trkpt>
      <trkpt lat="43.319908" lon="-1.984429">
        <ele>7.065</ele>
        <time>2019-06-15T14:01:31Z</time>
      </trkpt>
      <trkpt lat="43.319874" lon="-1.984503">
        <ele>7.011</ele>
        <time>2019-06-15T14:01:32Z</time>
      </trkpt>
      <trkpt lat="43.319839" lon="-1.984549">
        <ele>7.008</ele>
        <time>2019-06-15T14:01:33Z</time>
      </trkpt>
      <trkpt lat="43.319733" lon="-1.984593">
        <ele>7.074</ele>
        <time>2019-06-15T14:01:35Z</time>
      </trkpt>
      <trkpt lat="43.319674" lon="-1.984583">
        <ele>7.098</ele>
        <time>2019-06-15T14:01:36Z</time>
      </trkpt>
      <trkpt lat="43.319628" lon="-1.984545">
        <ele>7.097</ele>
        <time>2019-06-15T14:01:37Z</time>
      </trkpt>
      <trkpt lat="43.319552" lon="-1.984485">
        <ele>7.036</ele>
        <time>2019-06-15T14:01:38Z</time>
      </trkpt>
      <trkpt lat="43.319475" lon="-1.984436">
        <ele>7.075</ele>
        <time>2019-06-15T14:01:39Z</time>
      </trkpt>
      <trkpt lat="43.319405" lon="-1.984391">
        <ele>7.036</ele>
        <time>2019-06-15T14:01:40Z</time>
      </trkpt>
      <trkpt lat="43.319334" lon="-1.984334">
        <ele>7.025</ele>
        <time>2019-06-15T14:01:41Z</time>
      </trkpt>
      <trkpt lat="43.319268" lon="-1.984292">
        <ele>7.059</ele>
        <time>2019-06-15T14:01:42Z</time>
      </trkpt>
      <trkpt lat="43.319211" lon="-1.984249">
        <ele>7.025</ele>
        <time>2019-06-15T14:01:43Z</time>
      </trkpt>
      <trkpt lat="43.319158" lon="-1.984221">
        <ele>7.026</ele>
        <time>2019-06-15T14:01:44Z</time>
      </trkpt>
      <trkpt lat="43.319111" lon="-1.984182">
        <ele>7.008</ele>
        <time>2019-06-15T14:01:45Z</time>
      </trkpt>
      <trkpt lat="43.319062" lon="-1.984157">
        <ele>7.008</ele>
        <time>2019-06-15T14:01:46Z</time>
      </trkpt>
      <trkpt lat="43.319005" lon="-1.984123">
        <ele>7.095</ele>
        <time>2019-06-15T14:01:47Z</time>
      </trkpt>
      <trkpt lat="43.318959" lon="-1.984139">
        <ele>7.059</ele>
        <time>2019-06-15T14:01:48Z</time>
      </trkpt>
      <trkpt lat="43.318912" lon="-1.984155">
        <ele>7.098</ele>
        <time>2019-06-15T14:01:49Z</time>
      </trkpt>
      <trkpt lat="43.318874" lon="-1.984192">
        <ele>7.057</ele>
        <time>2019-06-15T14:01:50Z</time>
      </trkpt>
      <trkpt lat="43.318823" lon="-1.984281">
        <ele>7.096</ele>
        <time>2019-06-15T14:01:52Z</time>
      </trkpt>
      <trkpt lat="43.318792" lon="-1.984360">
        <ele>7.057</ele>
        <time>2019-06-15T14:01:54Z</time>
      </trkpt>
      <trkpt lat="43.318757" lon="-1.984468">
        <ele>7.036</ele>
        <time>2019-06-15T14:01:56Z</time>
      </trkpt>
      <trkpt lat="43.318737" lon="-1.984527">
        <ele>7.070</ele>
        <time>2019-06-15T14:01:57Z</time>
      </trkpt>
      <trkpt lat="43.318700" lon="-1.984628">
        <ele>7.013</ele>
        <time>2019-06-15T14:01:59Z</time>
      </trkpt>
      <trkpt lat="43.318661" lon="-1.984728">
        <ele>7.043</ele>
        <time>2019-06-15T14:02:01Z</time>
      </trkpt>
      <trkpt lat="43.318626" lon="-1.984784">
        <ele>6.507</ele>
        <time>2019-06-15T14:02:02Z</time>
      </trkpt>
      <trkpt lat="43.318581" lon="-1.984823">
        <ele>6.308</ele>
        <time>2019-06-15T14:02:03Z</time>
      </trkpt>
      <trkpt lat="43.318529" lon="-1.984876">
        <ele>6.174</ele>
        <time>2019-06-15T14:02:04Z</time>
      </trkpt>
      <trkpt lat="43.318476" lon="-1.984894">
        <ele>6.188</ele>
        <time>2019-06-15T14:02:05Z</time>
      </trkpt>
      <trkpt lat="43.318415" lon="-1.984892">
        <ele>6.247</ele>
        <time>2019-06-15T14:02:06Z</time>
      </trkpt>
      <trkpt lat="43.318370" lon="-1.984862">
        <ele>6.466</ele>
        <time>2019-06-15T14:02:07Z</time>
      </trkpt>
      <trkpt lat="43.318313" lon="-1.984804">
        <ele>6.855</ele>
        <time>2019-06-15T14:02:09Z</time>
      </trkpt>
      <trkpt lat="43.318265" lon="-1.984778">
        <ele>7.156</ele>
        <time>2019-06-15T14:02:18Z</time>
      </trkpt>
      <trkpt lat="43.318203" lon="-1.984740">
        <ele>7.435</ele>
        <time>2019-06-15T14:02:37Z</time>
      </trkpt>
      <trkpt lat="43.318159" lon="-1.984722">
        <ele>7.619</ele>
        <time>2019-06-15T14:02:38Z</time>
      </trkpt>
      <trkpt lat="43.318073" lon="-1.984756">
        <ele>7.918</ele>
        <time>2019-06-15T14:02:40Z</time>
      </trkpt>
      <trkpt lat="43.318022" lon="-1.984808">
        <ele>8.098</ele>
        <time>2019-06-15T14:02:41Z</time>
      </trkpt>
      <trkpt lat="43.317970" lon="-1.984851">
        <ele>8.017</ele>
        <time>2019-06-15T14:02:42Z</time>
      </trkpt>
      <trkpt lat="43.317926" lon="-1.984901">
        <ele>8.008</ele>
        <time>2019-06-15T14:02:43Z</time>
      </trkpt>
      <trkpt lat="43.317877" lon="-1.984945">
        <ele>8.024</ele>
        <time>2019-06-15T14:02:44Z</time>
      </trkpt>
      <trkpt lat="43.317839" lon="-1.984996">
        <ele>8.038</ele>
        <time>2019-06-15T14:02:45Z</time>
      </trkpt>
      <trkpt lat="43.317798" lon="-1.985037">
        <ele>8.047</ele>
        <time>2019-06-15T14:02:47Z</time>
      </trkpt>
      <trkpt lat="43.317742" lon="-1.985071">
        <ele>8.036</ele>
        <time>2019-06-15T14:02:49Z</time>
      </trkpt>
      <trkpt lat="43.317677" lon="-1.985133">
        <ele>8.045</ele>
        <time>2019-06-15T14:02:51Z</time>
      </trkpt>
      <trkpt lat="43.317638" lon="-1.985167">
        <ele>8.096</ele>
        <time>2019-06-15T14:02:52Z</time>
      </trkpt>
      <trkpt lat="43.317590" lon="-1.985213">
        <ele>8.095</ele>
        <time>2019-06-15T14:02:53Z</time>
      </trkpt>
      <trkpt lat="43.317551" lon="-1.985257">
        <ele>8.099</ele>
        <time>2019-06-15T14:02:54Z</time>
      </trkpt>
      <trkpt lat="43.317508" lon="-1.985301">
        <ele>8.013</ele>
        <time>2019-06-15T14:02:55Z</time>
      </trkpt>
      <trkpt lat="43.317444" lon="-1.985357">
        <ele>8.143</ele>
        <time>2019-06-15T14:02:56Z</time>
      </trkpt>
      <trkpt lat="43.317383" lon="-1.985411">
        <ele>8.207</ele>
        <time>2019-06-15T14:02:57Z</time>
      </trkpt>
      <trkpt lat="43.317325" lon="-1.985468">
        <ele>8.208</ele>
        <time>2019-06-15T14:02:58Z</time>
      </trkpt>
      <trkpt lat="43.317250" lon="-1.985522">
        <ele>8.174</ele>
        <time>2019-06-15T14:02:59Z</time>
      </trkpt>
      <trkpt lat="43.317185" lon="-1.985586">
        <ele>8.178</ele>
        <time>2019-06-15T14:03:00Z</time>
      </trkpt>
      <trkpt lat="43.317120" lon="-1.985652">
        <ele>8.217</ele>
        <time>2019-06-15T14:03:01Z</time>
      </trkpt>
      <trkpt lat="43.317054" lon="-1.985708">
        <ele>8.336</ele>
        <time>2019-06-15T14:03:02Z</time>
      </trkpt>
      <trkpt lat="43.316979" lon="-1.985760">
        <ele>8.245</ele>
        <time>2019-06-15T14:03:03Z</time>
      </trkpt>
      <trkpt lat="43.316919" lon="-1.985823">
        <ele>8.176</ele>
        <time>2019-06-15T14:03:04Z</time>
      </trkpt>
      <trkpt lat="43.316845" lon="-1.985923">
        <ele>8.295</ele>
        <time>2019-06-15T14:03:05Z</time>
      </trkpt>
      <trkpt lat="43.316791" lon="-1.985990">
        <ele>8.279</ele>
        <time>2019-06-15T14:03:06Z</time>
      </trkpt>
      <trkpt lat="43.316753" lon="-1.986061">
        <ele>8.122</ele>
        <time>2019-06-15T14:03:07Z</time>
      </trkpt>
      <trkpt lat="43.316690" lon="-1.986114">
        <ele>8.062</ele>
        <time>2019-06-15T14:03:08Z</time>
      </trkpt>
      <trkpt lat="43.316620" lon="-1.986186">
        <ele>8.008</ele>
        <time>2019-06-15T14:03:10Z</time>
      </trkpt>
      <trkpt lat="43.316556" lon="-1.986333">
        <ele>8.008</ele>
        <time>2019-06-15T14:03:12Z</time>
      </trkpt>
      <trkpt lat="43.316536" lon="-1.986389">
        <ele>8.035</ele>
        <time>2019-06-15T14:03:13Z</time>
      </trkpt>
      <trkpt lat="43.316362" lon="-1.986651">
        <ele>8.139</ele>
        <time>2019-06-15T14:03:15Z</time>
      </trkpt>
      <trkpt lat="43.316297" lon="-1.986732">
        <ele>8.378</ele>
        <time>2019-06-15T14:03:16Z</time>
      </trkpt>
      <trkpt lat="43.316242" lon="-1.986812">
        <ele>8.597</ele>
        <time>2019-06-15T14:03:17Z</time>
      </trkpt>
      <trkpt lat="43.316183" lon="-1.986870">
        <ele>8.786</ele>
        <time>2019-06-15T14:03:18Z</time>
      </trkpt>
      <trkpt lat="43.316125" lon="-1.986946">
        <ele>8.937</ele>
        <time>2019-06-15T14:03:19Z</time>
      </trkpt>
      <trkpt lat="43.316068" lon="-1.987032">
        <ele>8.736</ele>
        <time>2019-06-15T14:03:20Z</time>
      </trkpt>
      <trkpt lat="43.316009" lon="-1.987096">
        <ele>8.750</ele>
        <time>2019-06-15T14:03:21Z</time>
      </trkpt>
      <trkpt lat="43.315947" lon="-1.987165">
        <ele>8.732</ele>
        <time>2019-06-15T14:03:22Z</time>
      </trkpt>
      <trkpt lat="43.315891" lon="-1.987240">
        <ele>8.792</ele>
        <time>2019-06-15T14:03:23Z</time>
      </trkpt>
      <trkpt lat="43.315833" lon="-1.987306">
        <ele>8.711</ele>
        <time>2019-06-15T14:03:24Z</time>
      </trkpt>
      <trkpt lat="43.315786" lon="-1.987371">
        <ele>8.608</ele>
        <time>2019-06-15T14:03:25Z</time>
      </trkpt>
      <trkpt lat="43.315745" lon="-1.987439">
        <ele>8.536</ele>
        <time>2019-06-15T14:03:26Z</time>
      </trkpt>
      <trkpt lat="43.315687" lon="-1.987504">
        <ele>8.560</ele>
        <time>2019-06-15T14:03:27Z</time>
      </trkpt>
      <trkpt lat="43.315624" lon="-1.987587">
        <ele>8.879</ele>
        <time>2019-06-15T14:03:28Z</time>
      </trkpt>
      <trkpt lat="43.315575" lon="-1.987667">
        <ele>8.948</ele>
        <time>2019-06-15T14:03:29Z</time>
      </trkpt>
      <trkpt lat="43.315524" lon="-1.987733">
        <ele>9.087</ele>
        <time>2019-06-15T14:03:30Z</time>
      </trkpt>
      <trkpt lat="43.315478" lon="-1.987820">
        <ele>9.088</ele>
        <time>2019-06-15T14:03:31Z</time>
      </trkpt>
      <trkpt lat="43.315436" lon="-1.987907">
        <ele>9.097</ele>
        <time>2019-06-15T14:03:32Z</time>
      </trkpt>
      <trkpt lat="43.315410" lon="-1.988029">
        <ele>9.041</ele>
        <time>2019-06-15T14:03:33Z</time>
      </trkpt>
      <trkpt lat="43.315383" lon="-1.988154">
        <ele>8.916</ele>
        <time>2019-06-15T14:03:34Z</time>
      </trkpt>
      <trkpt lat="43.315358" lon="-1.988283">
        <ele>8.876</ele>
        <time>2019-06-15T14:03:35Z</time>
      </trkpt>
      <trkpt lat="43.315327" lon="-1.988429">
        <ele>8.813</ele>
        <time>2019-06-15T14:03:36Z</time>
      </trkpt>
      <trkpt lat="43.315287" lon="-1.988574">
        <ele>9.008</ele>
        <time>2019-06-15T14:03:37Z</time>
      </trkpt>
      <trkpt lat="43.315258" lon="-1.988722">
        <ele>9.034</ele>
        <time>2019-06-15T14:03:38Z</time>
      </trkpt>
      <trkpt lat="43.315218" lon="-1.988879">
        <ele>9.088</ele>
        <time>2019-06-15T14:03:39Z</time>
      </trkpt>
      <trkpt lat="43.315176" lon="-1.989052">
        <ele>8.887</ele>
        <time>2019-06-15T14:03:40Z</time>
      </trkpt>
      <trkpt lat="43.315139" lon="-1.989224">
        <ele>8.356</ele>
        <time>2019-06-15T14:03:41Z</time>
      </trkpt>
      <trkpt lat="43.315111" lon="-1.989379">
        <ele>7.865</ele>
        <time>2019-06-15T14:03:42Z</time>
      </trkpt>
      <trkpt lat="43.315074" lon="-1.989535">
        <ele>7.876</ele>
        <time>2019-06-15T14:03:43Z</time>
      </trkpt>
      <trkpt lat="43.315045" lon="-1.989689">
        <ele>8.365</ele>
        <time>2019-06-15T14:03:44Z</time>
      </trkpt>
      <trkpt lat="43.315016" lon="-1.989841">
        <ele>7.949</ele>
        <time>2019-06-15T14:03:45Z</time>
      </trkpt>
      <trkpt lat="43.314986" lon="-1.989968">
        <ele>7.693</ele>
        <time>2019-06-15T14:03:46Z</time>
      </trkpt>
      <trkpt lat="43.314958" lon="-1.990117">
        <ele>7.965</ele>
        <time>2019-06-15T14:03:47Z</time>
      </trkpt>
      <trkpt lat="43.314930" lon="-1.990273">
        <ele>8.321</ele>
        <time>2019-06-15T14:03:48Z</time>
      </trkpt>
      <trkpt lat="43.314899" lon="-1.990419">
        <ele>8.108</ele>
        <time>2019-06-15T14:03:49Z</time>
      </trkpt>
      <trkpt lat="43.314877" lon="-1.990561">
        <ele>7.752</ele>
        <time>2019-06-15T14:03:50Z</time>
      </trkpt>
      <trkpt lat="43.314851" lon="-1.990699">
        <ele>7.236</ele>
        <time>2019-06-15T14:03:51Z</time>
      </trkpt>
      <trkpt lat="43.314826" lon="-1.990837">
        <ele>7.015</ele>
        <time>2019-06-15T14:03:52Z</time>
      </trkpt>
      <trkpt lat="43.314797" lon="-1.990976">
        <ele>7.894</ele>
        <time>2019-06-15T14:03:53Z</time>
      </trkpt>
      <trkpt lat="43.314770" lon="-1.991121">
        <ele>8.693</ele>
        <time>2019-06-15T14:03:54Z</time>
      </trkpt>
      <trkpt lat="43.314735" lon="-1.991314">
        <ele>8.284</ele>
        <time>2019-06-15T14:03:55Z</time>
      </trkpt>
      <trkpt lat="43.314704" lon="-1.991489">
        <ele>7.693</ele>
        <time>2019-06-15T14:03:56Z</time>
      </trkpt>
      <trkpt lat="43.314675" lon="-1.991671">
        <ele>7.087</ele>
        <time>2019-06-15T14:03:57Z</time>
      </trkpt>
      <trkpt lat="43.314651" lon="-1.991834">
        <ele>7.168</ele>
        <time>2019-06-15T14:03:58Z</time>
      </trkpt>
      <trkpt lat="43.314628" lon="-1.991985">
        <ele>7.242</ele>
        <time>2019-06-15T14:03:59Z</time>
      </trkpt>
      <trkpt lat="43.314607" lon="-1.992147">
        <ele>7.026</ele>
        <time>2019-06-15T14:04:00Z</time>
      </trkpt>
      <trkpt lat="43.314584" lon="-1.992310">
        <ele>7.308</ele>
        <time>2019-06-15T14:04:01Z</time>
      </trkpt>
      <trkpt lat="43.314567" lon="-1.992466">
        <ele>7.689</ele>
        <time>2019-06-15T14:04:02Z</time>
      </trkpt>
      <trkpt lat="43.314557" lon="-1.992626">
        <ele>7.853</ele>
        <time>2019-06-15T14:04:03Z</time>
      </trkpt>
      <trkpt lat="43.314552" lon="-1.992764">
        <ele>7.842</ele>
        <time>2019-06-15T14:04:04Z</time>
      </trkpt>
      <trkpt lat="43.314549" lon="-1.992911">
        <ele>7.921</ele>
        <time>2019-06-15T14:04:05Z</time>
      </trkpt>
      <trkpt lat="43.314543" lon="-1.993057">
        <ele>8.110</ele>
        <time>2019-06-15T14:04:06Z</time>
      </trkpt>
      <trkpt lat="43.314536" lon="-1.993228">
        <ele>8.251</ele>
        <time>2019-06-15T14:04:07Z</time>
      </trkpt>
      <trkpt lat="43.314538" lon="-1.993382">
        <ele>8.150</ele>
        <time>2019-06-15T14:04:08Z</time>
      </trkpt>
      <trkpt lat="43.314536" lon="-1.993558">
        <ele>8.664</ele>
        <time>2019-06-15T14:04:09Z</time>
      </trkpt>
      <trkpt lat="43.314536" lon="-1.993729">
        <ele>8.737</ele>
        <time>2019-06-15T14:04:10Z</time>
      </trkpt>
      <trkpt lat="43.314534" lon="-1.993889">
        <ele>8.849</ele>
        <time>2019-06-15T14:04:11Z</time>
      </trkpt>
      <trkpt lat="43.314533" lon="-1.994061">
        <ele>8.913</ele>
        <time>2019-06-15T14:04:12Z</time>
      </trkpt>
      <trkpt lat="43.314533" lon="-1.994222">
        <ele>8.908</ele>
        <time>2019-06-15T14:04:13Z</time>
      </trkpt>
      <trkpt lat="43.314530" lon="-1.994398">
        <ele>9.046</ele>
        <time>2019-06-15T14:04:14Z</time>
      </trkpt>
      <trkpt lat="43.314516" lon="-1.994556">
        <ele>10.190</ele>
        <time>2019-06-15T14:04:15Z</time>
      </trkpt>
      <trkpt lat="43.314507" lon="-1.994711">
        <ele>11.039</ele>
        <time>2019-06-15T14:04:16Z</time>
      </trkpt>
      <trkpt lat="43.314494" lon="-1.994862">
        <ele>11.718</ele>
        <time>2019-06-15T14:04:17Z</time>
      </trkpt>
      <trkpt lat="43.314482" lon="-1.995022">
        <ele>12.227</ele>
        <time>2019-06-15T14:04:18Z</time>
      </trkpt>
      <trkpt lat="43.314473" lon="-1.995185">
        <ele>12.788</ele>
        <time>2019-06-15T14:04:19Z</time>
      </trkpt>
      <trkpt lat="43.314473" lon="-1.995357">
        <ele>12.797</ele>
        <time>2019-06-15T14:04:20Z</time>
      </trkpt>
      <trkpt lat="43.314477" lon="-1.995522">
        <ele>12.581</ele>
        <time>2019-06-15T14:04:21Z</time>
      </trkpt>
      <trkpt lat="43.314485" lon="-1.995697">
        <ele>12.584</ele>
        <time>2019-06-15T14:04:22Z</time>
      </trkpt>
      <trkpt lat="43.314497" lon="-1.995864">
        <ele>12.607</ele>
        <time>2019-06-15T14:04:23Z</time>
      </trkpt>
      <trkpt lat="43.314517" lon="-1.996038">
        <ele>13.017</ele>
        <time>2019-06-15T14:04:24Z</time>
      </trkpt>
      <trkpt lat="43.314541" lon="-1.996195">
        <ele>13.308</ele>
        <time>2019-06-15T14:04:25Z</time>
      </trkpt>
      <trkpt lat="43.314570" lon="-1.996357">
        <ele>13.791</ele>
        <time>2019-06-15T14:04:26Z</time>
      </trkpt>
      <trkpt lat="43.314596" lon="-1.996512">
        <ele>13.865</ele>
        <time>2019-06-15T14:04:27Z</time>
      </trkpt>
      <trkpt lat="43.314627" lon="-1.996662">
        <ele>13.414</ele>
        <time>2019-06-15T14:04:28Z</time>
      </trkpt>
      <trkpt lat="43.314657" lon="-1.996819">
        <ele>12.413</ele>
        <time>2019-06-15T14:04:29Z</time>
      </trkpt>
      <trkpt lat="43.314692" lon="-1.996986">
        <ele>11.262</ele>
        <time>2019-06-15T14:04:30Z</time>
      </trkpt>
      <trkpt lat="43.314731" lon="-1.997157">
        <ele>10.953</ele>
        <time>2019-06-15T14:04:31Z</time>
      </trkpt>
      <trkpt lat="43.314777" lon="-1.997326">
        <ele>11.682</ele>
        <time>2019-06-15T14:04:32Z</time>
      </trkpt>
      <trkpt lat="43.314825" lon="-1.997493">
        <ele>12.816</ele>
        <time>2019-06-15T14:04:33Z</time>
      </trkpt>
      <trkpt lat="43.314877" lon="-1.997641">
        <ele>15.957</ele>
        <time>2019-06-15T14:04:34Z</time>
      </trkpt>
      <trkpt lat="43.314929" lon="-1.997800">
        <ele>20.200</ele>
        <time>2019-06-15T14:04:35Z</time>
      </trkpt>
      <trkpt lat="43.314988" lon="-1.997950">
        <ele>21.020</ele>
        <time>2019-06-15T14:04:36Z</time>
      </trkpt>
      <trkpt lat="43.315042" lon="-1.998092">
        <ele>21.408</ele>
        <time>2019-06-15T14:04:37Z</time>
      </trkpt>
      <trkpt lat="43.315107" lon="-1.998264">
        <ele>21.828</ele>
        <time>2019-06-15T14:04:38Z</time>
      </trkpt>
      <trkpt lat="43.315172" lon="-1.998428">
        <ele>21.532</ele>
        <time>2019-06-15T14:04:39Z</time>
      </trkpt>
      <trkpt lat="43.315209" lon="-1.998533">
        <ele>21.051</ele>
        <time>2019-06-15T14:04:40Z</time>
      </trkpt>
      <trkpt lat="43.315280" lon="-1.998700">
        <ele>18.660</ele>
        <time>2019-06-15T14:04:41Z</time>
      </trkpt>
      <trkpt lat="43.315347" lon="-1.998807">
        <ele>14.759</ele>
        <time>2019-06-15T14:04:42Z</time>
      </trkpt>
      <trkpt lat="43.315350" lon="-1.998885">
        <ele>13.780</ele>
        <time>2019-06-15T14:04:43Z</time>
      </trkpt>
      <trkpt lat="43.315384" lon="-1.998951">
        <ele>12.719</ele>
        <time>2019-06-15T14:04:44Z</time>
      </trkpt>
      <trkpt lat="43.315412" lon="-1.999033">
        <ele>11.953</ele>
        <time>2019-06-15T14:04:45Z</time>
      </trkpt>
      <trkpt lat="43.315436" lon="-1.999087">
        <ele>11.289</ele>
        <time>2019-06-15T14:04:46Z</time>
      </trkpt>
      <trkpt lat="43.315477" lon="-1.999136">
        <ele>9.806</ele>
        <time>2019-06-15T14:04:48Z</time>
      </trkpt>
      <trkpt lat="43.315513" lon="-1.999268">
        <ele>8.726</ele>
        <time>2019-06-15T14:05:19Z</time>
      </trkpt>
      <trkpt lat="43.315525" lon="-1.999371">
        <ele>8.608</ele>
        <time>2019-06-15T14:05:21Z</time>
      </trkpt>
      <trkpt lat="43.315547" lon="-1.999448">
        <ele>8.281</ele>
        <time>2019-06-15T14:05:22Z</time>
      </trkpt>
      <trkpt lat="43.315561" lon="-1.999531">
        <ele>8.255</ele>
        <time>2019-06-15T14:05:23Z</time>
      </trkpt>
      <trkpt lat="43.315579" lon="-1.999620">
        <ele>8.234</ele>
        <time>2019-06-15T14:05:24Z</time>
      </trkpt>
      <trkpt lat="43.315601" lon="-1.999713">
        <ele>8.023</ele>
        <time>2019-06-15T14:05:25Z</time>
      </trkpt>
      <trkpt lat="43.315612" lon="-1.999812">
        <ele>7.652</ele>
        <time>2019-06-15T14:05:26Z</time>
      </trkpt>
      <trkpt lat="43.315619" lon="-1.999899">
        <ele>7.323</ele>
        <time>2019-06-15T14:05:27Z</time>
      </trkpt>
      <trkpt lat="43.315628" lon="-1.999987">
        <ele>7.012</ele>
        <time>2019-06-15T14:05:28Z</time>
      </trkpt>
      <trkpt lat="43.315639" lon="-2.000072">
        <ele>6.776</ele>
        <time>2019-06-15T14:05:29Z</time>
      </trkpt>
      <trkpt lat="43.315650" lon="-2.000151">
        <ele>6.564</ele>
        <time>2019-06-15T14:05:30Z</time>
      </trkpt>
      <trkpt lat="43.315655" lon="-2.000235">
        <ele>6.306</ele>
        <time>2019-06-15T14:05:31Z</time>
      </trkpt>
      <trkpt lat="43.315657" lon="-2.000314">
        <ele>6.216</ele>
        <time>2019-06-15T14:05:32Z</time>
      </trkpt>
      <trkpt lat="43.315644" lon="-2.000403">
        <ele>6.108</ele>
        <time>2019-06-15T14:05:33Z</time>
      </trkpt>
      <trkpt lat="43.315632" lon="-2.000504">
        <ele>5.919</ele>
        <time>2019-06-15T14:05:34Z</time>
      </trkpt>
      <trkpt lat="43.315610" lon="-2.000601">
        <ele>5.883</ele>
        <time>2019-06-15T14:05:35Z</time>
      </trkpt>
      <trkpt lat="43.315583" lon="-2.000702">
        <ele>5.942</ele>
        <time>2019-06-15T14:05:36Z</time>
      </trkpt>
      <trkpt lat="43.315555" lon="-2.000816">
        <ele>6.081</ele>
        <time>2019-06-15T14:05:37Z</time>
      </trkpt>
      <trkpt lat="43.315522" lon="-2.000914">
        <ele>6.080</ele>
        <time>2019-06-15T14:05:38Z</time>
      </trkpt>
      <trkpt lat="43.315499" lon="-2.000989">
        <ele>6.061</ele>
        <time>2019-06-15T14:05:39Z</time>
      </trkpt>
      <trkpt lat="43.315489" lon="-2.001082">
        <ele>6.080</ele>
        <time>2019-06-15T14:05:40Z</time>
      </trkpt>
      <trkpt lat="43.315490" lon="-2.001184">
        <ele>6.074</ele>
        <time>2019-06-15T14:05:41Z</time>
      </trkpt>
      <trkpt lat="43.315511" lon="-2.001277">
        <ele>6.083</ele>
        <time>2019-06-15T14:05:42Z</time>
      </trkpt>
      <trkpt lat="43.315538" lon="-2.001380">
        <ele>6.025</ele>
        <time>2019-06-15T14:05:43Z</time>
      </trkpt>
      <trkpt lat="43.315568" lon="-2.001483">
        <ele>6.017</ele>
        <time>2019-06-15T14:05:44Z</time>
      </trkpt>
      <trkpt lat="43.315592" lon="-2.001592">
        <ele>6.008</ele>
        <time>2019-06-15T14:05:45Z</time>
      </trkpt>
      <trkpt lat="43.315622" lon="-2.001685">
        <ele>6.021</ele>
        <time>2019-06-15T14:05:46Z</time>
      </trkpt>
      <trkpt lat="43.315642" lon="-2.001770">
        <ele>6.085</ele>
        <time>2019-06-15T14:05:47Z</time>
      </trkpt>
      <trkpt lat="43.315670" lon="-2.001866">
        <ele>6.024</ele>
        <time>2019-06-15T14:05:48Z</time>
      </trkpt>
      <trkpt lat="43.315698" lon="-2.001956">
        <ele>6.033</ele>
        <time>2019-06-15T14:05:49Z</time>
      </trkpt>
      <trkpt lat="43.315727" lon="-2.002050">
        <ele>6.072</ele>
        <time>2019-06-15T14:05:50Z</time>
      </trkpt>
      <trkpt lat="43.315762" lon="-2.002138">
        <ele>6.093</ele>
        <time>2019-06-15T14:05:51Z</time>
      </trkpt>
      <trkpt lat="43.315795" lon="-2.002216">
        <ele>6.032</ele>
        <time>2019-06-15T14:05:52Z</time>
      </trkpt>
      <trkpt lat="43.315810" lon="-2.002277">
        <ele>6.026</ele>
        <time>2019-06-15T14:05:54Z</time>
      </trkpt>
      <trkpt lat="43.315844" lon="-2.002341">
        <ele>6.039</ele>
        <time>2019-06-15T14:05:57Z</time>
      </trkpt>
      <trkpt lat="43.315872" lon="-2.002426">
        <ele>6.001</ele>
        <time>2019-06-15T14:05:59Z</time>
      </trkpt>
      <trkpt lat="43.315892" lon="-2.002513">
        <ele>6.021</ele>
        <time>2019-06-15T14:06:01Z</time>
      </trkpt>
      <trkpt lat="43.315926" lon="-2.002612">
        <ele>6.008</ele>
        <time>2019-06-15T14:06:03Z</time>
      </trkpt>
      <trkpt lat="43.315941" lon="-2.002683">
        <ele>6.086</ele>
        <time>2019-06-15T14:06:05Z</time>
      </trkpt>
      <trkpt lat="43.315955" lon="-2.002748">
        <ele>6.050</ele>
        <time>2019-06-15T14:06:12Z</time>
      </trkpt>
      <trkpt lat="43.316006" lon="-2.002828">
        <ele>5.959</ele>
        <time>2019-06-15T14:06:22Z</time>
      </trkpt>
      <trkpt lat="43.316018" lon="-2.002913">
        <ele>5.838</ele>
        <time>2019-06-15T14:06:24Z</time>
      </trkpt>
      <trkpt lat="43.316045" lon="-2.002979">
        <ele>5.837</ele>
        <time>2019-06-15T14:06:26Z</time>
      </trkpt>
      <trkpt lat="43.316073" lon="-2.003082">
        <ele>5.898</ele>
        <time>2019-06-15T14:06:28Z</time>
      </trkpt>
      <trkpt lat="43.316085" lon="-2.003191">
        <ele>5.417</ele>
        <time>2019-06-15T14:06:30Z</time>
      </trkpt>
      <trkpt lat="43.316108" lon="-2.003252">
        <ele>5.371</ele>
        <time>2019-06-15T14:06:31Z</time>
      </trkpt>
      <trkpt lat="43.316124" lon="-2.003315">
        <ele>5.119</ele>
        <time>2019-06-15T14:06:32Z</time>
      </trkpt>
      <trkpt lat="43.316160" lon="-2.003443">
        <ele>5.509</ele>
        <time>2019-06-15T14:06:34Z</time>
      </trkpt>
      <trkpt lat="43.316184" lon="-2.003516">
        <ele>5.719</ele>
        <time>2019-06-15T14:06:35Z</time>
      </trkpt>
      <trkpt lat="43.316205" lon="-2.003583">
        <ele>5.908</ele>
        <time>2019-06-15T14:06:36Z</time>
      </trkpt>
      <trkpt lat="43.316230" lon="-2.003667">
        <ele>6.074</ele>
        <time>2019-06-15T14:06:37Z</time>
      </trkpt>
      <trkpt lat="43.316252" lon="-2.003728">
        <ele>6.028</ele>
        <time>2019-06-15T14:06:38Z</time>
      </trkpt>
      <trkpt lat="43.316270" lon="-2.003792">
        <ele>6.037</ele>
        <time>2019-06-15T14:06:39Z</time>
      </trkpt>
      <trkpt lat="43.316298" lon="-2.003857">
        <ele>6.076</ele>
        <time>2019-06-15T14:06:40Z</time>
      </trkpt>
      <trkpt lat="43.316308" lon="-2.003938">
        <ele>6.085</ele>
        <time>2019-06-15T14:06:41Z</time>
      </trkpt>
      <trkpt lat="43.316333" lon="-2.004015">
        <ele>6.036</ele>
        <time>2019-06-15T14:06:42Z</time>
      </trkpt>
      <trkpt lat="43.316356" lon="-2.004069">
        <ele>6.045</ele>
        <time>2019-06-15T14:06:43Z</time>
      </trkpt>
      <trkpt lat="43.316376" lon="-2.004154">
        <ele>6.079</ele>
        <time>2019-06-15T14:06:44Z</time>
      </trkpt>
      <trkpt lat="43.316391" lon="-2.004247">
        <ele>6.079</ele>
        <time>2019-06-15T14:06:45Z</time>
      </trkpt>
      <trkpt lat="43.316410" lon="-2.004334">
        <ele>6.005</ele>
        <time>2019-06-15T14:06:46Z</time>
      </trkpt>
      <trkpt lat="43.316433" lon="-2.004391">
        <ele>6.025</ele>
        <time>2019-06-15T14:06:47Z</time>
      </trkpt>
      <trkpt lat="43.316465" lon="-2.004462">
        <ele>6.008</ele>
        <time>2019-06-15T14:06:48Z</time>
      </trkpt>
      <trkpt lat="43.316486" lon="-2.004535">
        <ele>6.060</ele>
        <time>2019-06-15T14:06:49Z</time>
      </trkpt>
      <trkpt lat="43.316516" lon="-2.004596">
        <ele>6.084</ele>
        <time>2019-06-15T14:06:50Z</time>
      </trkpt>
      <trkpt lat="43.316548" lon="-2.004664">
        <ele>6.023</ele>
        <time>2019-06-15T14:06:51Z</time>
      </trkpt>
      <trkpt lat="43.316558" lon="-2.004747">
        <ele>6.052</ele>
        <time>2019-06-15T14:06:52Z</time>
      </trkpt>
      <trkpt lat="43.316595" lon="-2.004840">
        <ele>6.081</ele>
        <time>2019-06-15T14:06:53Z</time>
      </trkpt>
      <trkpt lat="43.316626" lon="-2.004939">
        <ele>6.092</ele>
        <time>2019-06-15T14:06:54Z</time>
      </trkpt>
      <trkpt lat="43.316668" lon="-2.005049">
        <ele>6.091</ele>
        <time>2019-06-15T14:06:55Z</time>
      </trkpt>
      <trkpt lat="43.316711" lon="-2.005154">
        <ele>5.985</ele>
        <time>2019-06-15T14:06:56Z</time>
      </trkpt>
      <trkpt lat="43.316744" lon="-2.005259">
        <ele>6.061</ele>
        <time>2019-06-15T14:06:57Z</time>
      </trkpt>
      <trkpt lat="43.316773" lon="-2.005362">
        <ele>5.721</ele>
        <time>2019-06-15T14:06:58Z</time>
      </trkpt>
      <trkpt lat="43.316787" lon="-2.005473">
        <ele>5.313</ele>
        <time>2019-06-15T14:06:59Z</time>
      </trkpt>
      <trkpt lat="43.316845" lon="-2.005540">
        <ele>5.108</ele>
        <time>2019-06-15T14:07:00Z</time>
      </trkpt>
      <trkpt lat="43.316884" lon="-2.005597">
        <ele>5.359</ele>
        <time>2019-06-15T14:07:01Z</time>
      </trkpt>
      <trkpt lat="43.316964" lon="-2.005662">
        <ele>5.853</ele>
        <time>2019-06-15T14:07:02Z</time>
      </trkpt>
      <trkpt lat="43.317054" lon="-2.005704">
        <ele>6.182</ele>
        <time>2019-06-15T14:07:03Z</time>
      </trkpt>
      <trkpt lat="43.317136" lon="-2.005730">
        <ele>6.381</ele>
        <time>2019-06-15T14:07:04Z</time>
      </trkpt>
      <trkpt lat="43.317270" lon="-2.005756">
        <ele>6.460</ele>
        <time>2019-06-15T14:07:05Z</time>
      </trkpt>
      <trkpt lat="43.317392" lon="-2.005780">
        <ele>6.691</ele>
        <time>2019-06-15T14:07:06Z</time>
      </trkpt>
      <trkpt lat="43.317518" lon="-2.005790">
        <ele>6.770</ele>
        <time>2019-06-15T14:07:07Z</time>
      </trkpt>
      <trkpt lat="43.317639" lon="-2.005805">
        <ele>6.794</ele>
        <time>2019-06-15T14:07:08Z</time>
      </trkpt>
      <trkpt lat="43.317757" lon="-2.005810">
        <ele>6.896</ele>
        <time>2019-06-15T14:07:09Z</time>
      </trkpt>
      <trkpt lat="43.317865" lon="-2.005814">
        <ele>6.531</ele>
        <time>2019-06-15T14:07:10Z</time>
      </trkpt>
      <trkpt lat="43.317982" lon="-2.005823">
        <ele>6.224</ele>
        <time>2019-06-15T14:07:11Z</time>
      </trkpt>
      <trkpt lat="43.318099" lon="-2.005834">
        <ele>6.008</ele>
        <time>2019-06-15T14:07:12Z</time>
      </trkpt>
      <trkpt lat="43.318221" lon="-2.005850">
        <ele>6.992</ele>
        <time>2019-06-15T14:07:13Z</time>
      </trkpt>
      <trkpt lat="43.318331" lon="-2.005872">
        <ele>8.176</ele>
        <time>2019-06-15T14:07:14Z</time>
      </trkpt>
      <trkpt lat="43.318418" lon="-2.005888">
        <ele>8.665</ele>
        <time>2019-06-15T14:07:15Z</time>
      </trkpt>
      <trkpt lat="43.318514" lon="-2.005902">
        <ele>8.754</ele>
        <time>2019-06-15T14:07:16Z</time>
      </trkpt>
      <trkpt lat="43.318603" lon="-2.005904">
        <ele>8.363</ele>
        <time>2019-06-15T14:07:17Z</time>
      </trkpt>
      <trkpt lat="43.318695" lon="-2.005915">
        <ele>8.654</ele>
        <time>2019-06-15T14:07:18Z</time>
      </trkpt>
      <trkpt lat="43.318780" lon="-2.005929">
        <ele>8.873</ele>
        <time>2019-06-15T14:07:19Z</time>
      </trkpt>
      <trkpt lat="43.318841" lon="-2.005951">
        <ele>9.027</ele>
        <time>2019-06-15T14:07:20Z</time>
      </trkpt>
      <trkpt lat="43.318908" lon="-2.006027">
        <ele>9.567</ele>
        <time>2019-06-15T14:07:21Z</time>
      </trkpt>
      <trkpt lat="43.318952" lon="-2.006176">
        <ele>11.081</ele>
        <time>2019-06-15T14:07:23Z</time>
      </trkpt>
      <trkpt lat="43.318981" lon="-2.006286">
        <ele>12.419</ele>
        <time>2019-06-15T14:07:24Z</time>
      </trkpt>
      <trkpt lat="43.318998" lon="-2.006402">
        <ele>13.908</ele>
        <time>2019-06-15T14:07:25Z</time>
      </trkpt>
      <trkpt lat="43.319010" lon="-2.006509">
        <ele>14.679</ele>
        <time>2019-06-15T14:07:26Z</time>
      </trkpt>
      <trkpt lat="43.319030" lon="-2.006602">
        <ele>15.183</ele>
        <time>2019-06-15T14:07:27Z</time>
      </trkpt>
      <trkpt lat="43.319079" lon="-2.006685">
        <ele>15.832</ele>
        <time>2019-06-15T14:07:28Z</time>
      </trkpt>
      <trkpt lat="43.319149" lon="-2.006715">
        <ele>16.381</ele>
        <time>2019-06-15T14:07:29Z</time>
      </trkpt>
      <trkpt lat="43.319213" lon="-2.006718">
        <ele>17.750</ele>
        <time>2019-06-15T14:07:30Z</time>
      </trkpt>
      <trkpt lat="43.319277" lon="-2.006720">
        <ele>19.721</ele>
        <time>2019-06-15T14:07:31Z</time>
      </trkpt>
      <trkpt lat="43.319323" lon="-2.006695">
        <ele>20.680</ele>
        <time>2019-06-15T14:07:32Z</time>
      </trkpt>
      <trkpt lat="43.319378" lon="-2.006565">
        <ele>21.034</ele>
        <time>2019-06-15T14:07:33Z</time>
      </trkpt>
      <trkpt lat="43.319434" lon="-2.006460">
        <ele>21.552</ele>
        <time>2019-06-15T14:07:34Z</time>
      </trkpt>
      <trkpt lat="43.319472" lon="-2.006332">
        <ele>21.953</ele>
        <time>2019-06-15T14:07:35Z</time>
      </trkpt>
      <trkpt lat="43.319516" lon="-2.006200">
        <ele>23.108</ele>
        <time>2019-06-15T14:07:36Z</time>
      </trkpt>
      <trkpt lat="43.319554" lon="-2.006066">
        <ele>23.608</ele>
        <time>2019-06-15T14:07:37Z</time>
      </trkpt>
      <trkpt lat="43.319599" lon="-2.005944">
        <ele>24.098</ele>
        <time>2019-06-15T14:07:38Z</time>
      </trkpt>
      <trkpt lat="43.319669" lon="-2.005814">
        <ele>24.492</ele>
        <time>2019-06-15T14:07:39Z</time>
      </trkpt>
      <trkpt lat="43.319696" lon="-2.005706">
        <ele>23.781</ele>
        <time>2019-06-15T14:07:40Z</time>
      </trkpt>
      <trkpt lat="43.319750" lon="-2.005605">
        <ele>24.080</ele>
        <time>2019-06-15T14:07:41Z</time>
      </trkpt>
      <trkpt lat="43.319800" lon="-2.005508">
        <ele>22.879</ele>
        <time>2019-06-15T14:07:42Z</time>
      </trkpt>
      <trkpt lat="43.319857" lon="-2.005450">
        <ele>22.380</ele>
        <time>2019-06-15T14:07:43Z</time>
      </trkpt>
      <trkpt lat="43.319914" lon="-2.005402">
        <ele>22.159</ele>
        <time>2019-06-15T14:07:44Z</time>
      </trkpt>
      <trkpt lat="43.319989" lon="-2.005401">
        <ele>23.533</ele>
        <time>2019-06-15T14:07:45Z</time>
      </trkpt>
      <trkpt lat="43.320053" lon="-2.005376">
        <ele>23.781</ele>
        <time>2019-06-15T14:07:46Z</time>
      </trkpt>
      <trkpt lat="43.320104" lon="-2.005418">
        <ele>25.961</ele>
        <time>2019-06-15T14:07:47Z</time>
      </trkpt>
      <trkpt lat="43.320150" lon="-2.005487">
        <ele>29.917</ele>
        <time>2019-06-15T14:07:48Z</time>
      </trkpt>
      <trkpt lat="43.320173" lon="-2.005564">
        <ele>34.108</ele>
        <time>2019-06-15T14:07:50Z</time>
      </trkpt>
      <trkpt lat="43.320079" lon="-2.005721">
        <ele>34.591</ele>
        <time>2019-06-15T14:07:52Z</time>
      </trkpt>
      <trkpt lat="43.320034" lon="-2.005796">
        <ele>34.555</ele>
        <time>2019-06-15T14:07:53Z</time>
      </trkpt>
      <trkpt lat="43.319965" lon="-2.005855">
        <ele>33.534</ele>
        <time>2019-06-15T14:07:54Z</time>
      </trkpt>
      <trkpt lat="43.319919" lon="-2.005949">
        <ele>34.253</ele>
        <time>2019-06-15T14:07:55Z</time>
      </trkpt>
      <trkpt lat="43.319882" lon="-2.006080">
        <ele>35.712</ele>
        <time>2019-06-15T14:07:56Z</time>
      </trkpt>
      <trkpt lat="43.319847" lon="-2.006213">
        <ele>35.913</ele>
        <time>2019-06-15T14:07:57Z</time>
      </trkpt>
      <trkpt lat="43.319818" lon="-2.006350">
        <ele>36.142</ele>
        <time>2019-06-15T14:07:58Z</time>
      </trkpt>
      <trkpt lat="43.319784" lon="-2.006483">
        <ele>36.216</ele>
        <time>2019-06-15T14:07:59Z</time>
      </trkpt>
      <trkpt lat="43.319773" lon="-2.006629">
        <ele>37.399</ele>
        <time>2019-06-15T14:08:00Z</time>
      </trkpt>
      <trkpt lat="43.319754" lon="-2.006750">
        <ele>37.907</ele>
        <time>2019-06-15T14:08:01Z</time>
      </trkpt>
      <trkpt lat="43.319764" lon="-2.006882">
        <ele>39.727</ele>
        <time>2019-06-15T14:08:02Z</time>
      </trkpt>
      <trkpt lat="43.319779" lon="-2.006965">
        <ele>41.208</ele>
        <time>2019-06-15T14:08:03Z</time>
      </trkpt>
      <trkpt lat="43.319843" lon="-2.006960">
        <ele>43.352</ele>
        <time>2019-06-15T14:08:04Z</time>
      </trkpt>
      <trkpt lat="43.319882" lon="-2.006994">
        <ele>45.446</ele>
        <time>2019-06-15T14:08:05Z</time>
      </trkpt>
      <trkpt lat="43.319994" lon="-2.006954">
        <ele>48.155</ele>
        <time>2019-06-15T14:08:07Z</time>
      </trkpt>
      <trkpt lat="43.320054" lon="-2.006794">
        <ele>49.654</ele>
        <time>2019-06-15T14:08:09Z</time>
      </trkpt>
      <trkpt lat="43.320085" lon="-2.006697">
        <ele>50.313</ele>
        <time>2019-06-15T14:08:10Z</time>
      </trkpt>
      <trkpt lat="43.320105" lon="-2.006569">
        <ele>50.134</ele>
        <time>2019-06-15T14:08:11Z</time>
      </trkpt>
      <trkpt lat="43.320141" lon="-2.006445">
        <ele>50.773</ele>
        <time>2019-06-15T14:08:12Z</time>
      </trkpt>
      <trkpt lat="43.320187" lon="-2.006333">
        <ele>51.517</ele>
        <time>2019-06-15T14:08:13Z</time>
      </trkpt>
      <trkpt lat="43.320241" lon="-2.006225">
        <ele>51.913</ele>
        <time>2019-06-15T14:08:14Z</time>
      </trkpt>
      <trkpt lat="43.320298" lon="-2.006128">
        <ele>52.243</ele>
        <time>2019-06-15T14:08:15Z</time>
      </trkpt>
      <trkpt lat="43.320366" lon="-2.006030">
        <ele>52.807</ele>
        <time>2019-06-15T14:08:16Z</time>
      </trkpt>
      <trkpt lat="43.320435" lon="-2.005945">
        <ele>53.608</ele>
        <time>2019-06-15T14:08:17Z</time>
      </trkpt>
      <trkpt lat="43.320501" lon="-2.005872">
        <ele>54.294</ele>
        <time>2019-06-15T14:08:18Z</time>
      </trkpt>
      <trkpt lat="43.320556" lon="-2.005814">
        <ele>54.218</ele>
        <time>2019-06-15T14:08:19Z</time>
      </trkpt>
      <trkpt lat="43.320592" lon="-2.005765">
        <ele>52.317</ele>
        <time>2019-06-15T14:08:20Z</time>
      </trkpt>
      <trkpt lat="43.320650" lon="-2.005699">
        <ele>48.936</ele>
        <time>2019-06-15T14:08:22Z</time>
      </trkpt>
      <trkpt lat="43.320704" lon="-2.005681">
        <ele>47.455</ele>
        <time>2019-06-15T14:08:25Z</time>
      </trkpt>
      <trkpt lat="43.320768" lon="-2.005702">
        <ele>48.176</ele>
        <time>2019-06-15T14:08:27Z</time>
      </trkpt>
      <trkpt lat="43.320816" lon="-2.005775">
        <ele>52.895</ele>
        <time>2019-06-15T14:08:29Z</time>
      </trkpt>
      <trkpt lat="43.320811" lon="-2.005861">
        <ele>58.249</ele>
        <time>2019-06-15T14:08:31Z</time>
      </trkpt>
      <trkpt lat="43.320733" lon="-2.006014">
        <ele>63.777</ele>
        <time>2019-06-15T14:08:33Z</time>
      </trkpt>
      <trkpt lat="43.320684" lon="-2.006061">
        <ele>64.361</ele>
        <time>2019-06-15T14:08:34Z</time>
      </trkpt>
      <trkpt lat="43.320635" lon="-2.006124">
        <ele>64.927</ele>
        <time>2019-06-15T14:08:35Z</time>
      </trkpt>
      <trkpt lat="43.320580" lon="-2.006203">
        <ele>65.108</ele>
        <time>2019-06-15T14:08:36Z</time>
      </trkpt>
      <trkpt lat="43.320537" lon="-2.006289">
        <ele>65.790</ele>
        <time>2019-06-15T14:08:37Z</time>
      </trkpt>
      <trkpt lat="43.320495" lon="-2.006387">
        <ele>66.354</ele>
        <time>2019-06-15T14:08:38Z</time>
      </trkpt>
      <trkpt lat="43.320464" lon="-2.006476">
        <ele>66.343</ele>
        <time>2019-06-15T14:08:39Z</time>
      </trkpt>
      <trkpt lat="43.320436" lon="-2.006589">
        <ele>66.792</ele>
        <time>2019-06-15T14:08:41Z</time>
      </trkpt>
      <trkpt lat="43.320422" lon="-2.006651">
        <ele>67.021</ele>
        <time>2019-06-15T14:08:42Z</time>
      </trkpt>
      <trkpt lat="43.320402" lon="-2.006730">
        <ele>67.162</ele>
        <time>2019-06-15T14:08:43Z</time>
      </trkpt>
      <trkpt lat="43.320385" lon="-2.006814">
        <ele>67.311</ele>
        <time>2019-06-15T14:08:44Z</time>
      </trkpt>
      <trkpt lat="43.320369" lon="-2.006904">
        <ele>67.855</ele>
        <time>2019-06-15T14:08:45Z</time>
      </trkpt>
      <trkpt lat="43.320348" lon="-2.006992">
        <ele>68.472</ele>
        <time>2019-06-15T14:08:46Z</time>
      </trkpt>
      <trkpt lat="43.320331" lon="-2.007080">
        <ele>69.413</ele>
        <time>2019-06-15T14:08:47Z</time>
      </trkpt>
      <trkpt lat="43.320319" lon="-2.007162">
        <ele>70.414</ele>
        <time>2019-06-15T14:08:48Z</time>
      </trkpt>
      <trkpt lat="43.320306" lon="-2.007230">
        <ele>71.108</ele>
        <time>2019-06-15T14:08:49Z</time>
      </trkpt>
      <trkpt lat="43.320302" lon="-2.007311">
        <ele>72.250</ele>
        <time>2019-06-15T14:08:50Z</time>
      </trkpt>
      <trkpt lat="43.320322" lon="-2.007374">
        <ele>74.044</ele>
        <time>2019-06-15T14:08:51Z</time>
      </trkpt>
      <trkpt lat="43.320359" lon="-2.007415">
        <ele>76.333</ele>
        <time>2019-06-15T14:08:52Z</time>
      </trkpt>
      <trkpt lat="43.320413" lon="-2.007455">
        <ele>79.482</ele>
        <time>2019-06-15T14:08:54Z</time>
      </trkpt>
      <trkpt lat="43.320469" lon="-2.007450">
        <ele>81.941</ele>
        <time>2019-06-15T14:08:58Z</time>
      </trkpt>
      <trkpt lat="43.320525" lon="-2.007288">
        <ele>80.572</ele>
        <time>2019-06-15T14:08:59Z</time>
      </trkpt>
      <trkpt lat="43.320546" lon="-2.007105">
        <ele>77.541</ele>
        <time>2019-06-15T14:09:00Z</time>
      </trkpt>
      <trkpt lat="43.320579" lon="-2.006938">
        <ele>76.155</ele>
        <time>2019-06-15T14:09:01Z</time>
      </trkpt>
      <trkpt lat="43.320613" lon="-2.006811">
        <ele>76.672</ele>
        <time>2019-06-15T14:09:02Z</time>
      </trkpt>
      <trkpt lat="43.320654" lon="-2.006720">
        <ele>77.513</ele>
        <time>2019-06-15T14:09:03Z</time>
      </trkpt>
      <trkpt lat="43.320714" lon="-2.006632">
        <ele>78.614</ele>
        <time>2019-06-15T14:09:04Z</time>
      </trkpt>
      <trkpt lat="43.320770" lon="-2.006556">
        <ele>79.308</ele>
        <time>2019-06-15T14:09:05Z</time>
      </trkpt>
      <trkpt lat="43.320826" lon="-2.006481">
        <ele>79.730</ele>
        <time>2019-06-15T14:09:06Z</time>
      </trkpt>
      <trkpt lat="43.320892" lon="-2.006414">
        <ele>79.254</ele>
        <time>2019-06-15T14:09:07Z</time>
      </trkpt>
      <trkpt lat="43.320950" lon="-2.006362">
        <ele>78.613</ele>
        <time>2019-06-15T14:09:08Z</time>
      </trkpt>
      <trkpt lat="43.321028" lon="-2.006323">
        <ele>78.682</ele>
        <time>2019-06-15T14:09:09Z</time>
      </trkpt>
      <trkpt lat="43.321073" lon="-2.006293">
        <ele>78.541</ele>
        <time>2019-06-15T14:09:10Z</time>
      </trkpt>
      <trkpt lat="43.321120" lon="-2.006288">
        <ele>78.512</ele>
        <time>2019-06-15T14:09:11Z</time>
      </trkpt>
      <trkpt lat="43.321192" lon="-2.006300">
        <ele>76.541</ele>
        <time>2019-06-15T14:09:12Z</time>
      </trkpt>
      <trkpt lat="43.321252" lon="-2.006340">
        <ele>75.995</ele>
        <time>2019-06-15T14:09:13Z</time>
      </trkpt>
      <trkpt lat="43.321301" lon="-2.006403">
        <ele>76.656</ele>
        <time>2019-06-15T14:09:14Z</time>
      </trkpt>
      <trkpt lat="43.321345" lon="-2.006470">
        <ele>77.159</ele>
        <time>2019-06-15T14:09:15Z</time>
      </trkpt>
      <trkpt lat="43.321368" lon="-2.006565">
        <ele>78.914</ele>
        <time>2019-06-15T14:09:16Z</time>
      </trkpt>
      <trkpt lat="43.321404" lon="-2.006661">
        <ele>80.208</ele>
        <time>2019-06-15T14:09:17Z</time>
      </trkpt>
      <trkpt lat="43.321450" lon="-2.006766">
        <ele>81.928</ele>
        <time>2019-06-15T14:09:18Z</time>
      </trkpt>
      <trkpt lat="43.321506" lon="-2.006855">
        <ele>83.282</ele>
        <time>2019-06-15T14:09:19Z</time>
      </trkpt>
      <trkpt lat="43.321575" lon="-2.006935">
        <ele>84.281</ele>
        <time>2019-06-15T14:09:20Z</time>
      </trkpt>
      <trkpt lat="43.321630" lon="-2.007016">
        <ele>84.830</ele>
        <time>2019-06-15T14:09:21Z</time>
      </trkpt>
      <trkpt lat="43.321679" lon="-2.007100">
        <ele>85.099</ele>
        <time>2019-06-15T14:09:22Z</time>
      </trkpt>
      <trkpt lat="43.321734" lon="-2.007191">
        <ele>86.070</ele>
        <time>2019-06-15T14:09:23Z</time>
      </trkpt>
      <trkpt lat="43.321802" lon="-2.007261">
        <ele>86.889</ele>
        <time>2019-06-15T14:09:24Z</time>
      </trkpt>
      <trkpt lat="43.321875" lon="-2.007329">
        <ele>87.723</ele>
        <time>2019-06-15T14:09:25Z</time>
      </trkpt>
      <trkpt lat="43.321956" lon="-2.007375">
        <ele>87.421</ele>
        <time>2019-06-15T14:09:26Z</time>
      </trkpt>
      <trkpt lat="43.322027" lon="-2.007429">
        <ele>85.541</ele>
        <time>2019-06-15T14:09:27Z</time>
      </trkpt>
      <trkpt lat="43.322083" lon="-2.007497">
        <ele>84.905</ele>
        <time>2019-06-15T14:09:28Z</time>
      </trkpt>
      <trkpt lat="43.322122" lon="-2.007605">
        <ele>85.908</ele>
        <time>2019-06-15T14:09:29Z</time>
      </trkpt>
      <trkpt lat="43.322156" lon="-2.007711">
        <ele>87.275</ele>
        <time>2019-06-15T14:09:30Z</time>
      </trkpt>
      <trkpt lat="43.322207" lon="-2.007812">
        <ele>87.799</ele>
        <time>2019-06-15T14:09:31Z</time>
      </trkpt>
      <trkpt lat="43.322217" lon="-2.007893">
        <ele>89.638</ele>
        <time>2019-06-15T14:09:32Z</time>
      </trkpt>
      <trkpt lat="43.322251" lon="-2.007988">
        <ele>90.257</ele>
        <time>2019-06-15T14:09:33Z</time>
      </trkpt>
      <trkpt lat="43.322310" lon="-2.008061">
        <ele>89.066</ele>
        <time>2019-06-15T14:09:34Z</time>
      </trkpt>
      <trkpt lat="43.322371" lon="-2.008136">
        <ele>90.057</ele>
        <time>2019-06-15T14:09:35Z</time>
      </trkpt>
      <trkpt lat="43.322437" lon="-2.008192">
        <ele>90.146</ele>
        <time>2019-06-15T14:09:36Z</time>
      </trkpt>
      <trkpt lat="43.322523" lon="-2.008237">
        <ele>88.440</ele>
        <time>2019-06-15T14:09:37Z</time>
      </trkpt>
      <trkpt lat="43.322589" lon="-2.008318">
        <ele>89.565</ele>
        <time>2019-06-15T14:09:38Z</time>
      </trkpt>
      <trkpt lat="43.322641" lon="-2.008413">
        <ele>91.468</ele>
        <time>2019-06-15T14:09:39Z</time>
      </trkpt>
      <trkpt lat="43.322697" lon="-2.008501">
        <ele>92.714</ele>
        <time>2019-06-15T14:09:40Z</time>
      </trkpt>
      <trkpt lat="43.322751" lon="-2.008588">
        <ele>94.308</ele>
        <time>2019-06-15T14:09:41Z</time>
      </trkpt>
      <trkpt lat="43.322792" lon="-2.008670">
        <ele>92.829</ele>
        <time>2019-06-15T14:09:42Z</time>
      </trkpt>
      <trkpt lat="43.322800" lon="-2.008770">
        <ele>92.663</ele>
        <time>2019-06-15T14:09:43Z</time>
      </trkpt>
      <trkpt lat="43.322804" lon="-2.008853">
        <ele>92.822</ele>
        <time>2019-06-15T14:09:44Z</time>
      </trkpt>
      <trkpt lat="43.322796" lon="-2.009002">
        <ele>93.661</ele>
        <time>2019-06-15T14:09:45Z</time>
      </trkpt>
      <trkpt lat="43.322752" lon="-2.009146">
        <ele>97.860</ele>
        <time>2019-06-15T14:09:46Z</time>
      </trkpt>
      <trkpt lat="43.322726" lon="-2.009285">
        <ele>100.571</ele>
        <time>2019-06-15T14:09:47Z</time>
      </trkpt>
      <trkpt lat="43.322707" lon="-2.009405">
        <ele>102.230</ele>
        <time>2019-06-15T14:09:48Z</time>
      </trkpt>
      <trkpt lat="43.322682" lon="-2.009530">
        <ele>104.154</ele>
        <time>2019-06-15T14:09:49Z</time>
      </trkpt>
      <trkpt lat="43.322674" lon="-2.009645">
        <ele>104.132</ele>
        <time>2019-06-15T14:09:50Z</time>
      </trkpt>
      <trkpt lat="43.322654" lon="-2.009738">
        <ele>105.592</ele>
        <time>2019-06-15T14:09:51Z</time>
      </trkpt>
      <trkpt lat="43.322646" lon="-2.009844">
        <ele>108.111</ele>
        <time>2019-06-15T14:09:52Z</time>
      </trkpt>
      <trkpt lat="43.322689" lon="-2.009924">
        <ele>106.208</ele>
        <time>2019-06-15T14:09:53Z</time>
      </trkpt>
      <trkpt lat="43.322745" lon="-2.009983">
        <ele>103.166</ele>
        <time>2019-06-15T14:09:54Z</time>
      </trkpt>
      <trkpt lat="43.322779" lon="-2.010059">
        <ele>103.530</ele>
        <time>2019-06-15T14:09:55Z</time>
      </trkpt>
      <trkpt lat="43.322813" lon="-2.010123">
        <ele>104.089</ele>
        <time>2019-06-15T14:09:56Z</time>
      </trkpt>
      <trkpt lat="43.322853" lon="-2.010206">
        <ele>104.188</ele>
        <time>2019-06-15T14:09:58Z</time>
      </trkpt>
      <trkpt lat="43.322835" lon="-2.010298">
        <ele>107.857</ele>
        <time>2019-06-15T14:10:00Z</time>
      </trkpt>
      <trkpt lat="43.322813" lon="-2.010366">
        <ele>108.868</ele>
        <time>2019-06-15T14:10:01Z</time>
      </trkpt>
      <trkpt lat="43.322772" lon="-2.010405">
        <ele>111.387</ele>
        <time>2019-06-15T14:10:02Z</time>
      </trkpt>
      <trkpt lat="43.322719" lon="-2.010446">
        <ele>111.781</ele>
        <time>2019-06-15T14:10:03Z</time>
      </trkpt>
      <trkpt lat="43.322667" lon="-2.010477">
        <ele>112.278</ele>
        <time>2019-06-15T14:10:04Z</time>
      </trkpt>
      <trkpt lat="43.322578" lon="-2.010516">
        <ele>113.333</ele>
        <time>2019-06-15T14:10:06Z</time>
      </trkpt>
      <trkpt lat="43.322530" lon="-2.010501">
        <ele>114.426</ele>
        <time>2019-06-15T14:10:07Z</time>
      </trkpt>
      <trkpt lat="43.322477" lon="-2.010485">
        <ele>115.708</ele>
        <time>2019-06-15T14:10:08Z</time>
      </trkpt>
      <trkpt lat="43.322414" lon="-2.010468">
        <ele>117.440</ele>
        <time>2019-06-15T14:10:09Z</time>
      </trkpt>
      <trkpt lat="43.322355" lon="-2.010463">
        <ele>118.884</ele>
        <time>2019-06-15T14:10:10Z</time>
      </trkpt>
      <trkpt lat="43.322302" lon="-2.010477">
        <ele>119.523</ele>
        <time>2019-06-15T14:10:11Z</time>
      </trkpt>
      <trkpt lat="43.322235" lon="-2.010509">
        <ele>119.632</ele>
        <time>2019-06-15T14:10:12Z</time>
      </trkpt>
      <trkpt lat="43.322177" lon="-2.010557">
        <ele>119.631</ele>
        <time>2019-06-15T14:10:13Z</time>
      </trkpt>
      <trkpt lat="43.322128" lon="-2.010607">
        <ele>119.552</ele>
        <time>2019-06-15T14:10:14Z</time>
      </trkpt>
      <trkpt lat="43.322091" lon="-2.010666">
        <ele>119.111</ele>
        <time>2019-06-15T14:10:15Z</time>
      </trkpt>
      <trkpt lat="43.322060" lon="-2.010737">
        <ele>118.355</ele>
        <time>2019-06-15T14:10:16Z</time>
      </trkpt>
      <trkpt lat="43.322030" lon="-2.010804">
        <ele>117.973</ele>
        <time>2019-06-15T14:10:17Z</time>
      </trkpt>
      <trkpt lat="43.322006" lon="-2.010867">
        <ele>117.285</ele>
        <time>2019-06-15T14:10:18Z</time>
      </trkpt>
      <trkpt lat="43.321986" lon="-2.010926">
        <ele>116.213</ele>
        <time>2019-06-15T14:10:21Z</time>
      </trkpt>
      <trkpt lat="43.321948" lon="-2.010961">
        <ele>117.208</ele>
        <time>2019-06-15T14:17:07Z</time>
      </trkpt>
      <trkpt lat="43.321887" lon="-2.010938">
        <ele>120.760</ele>
        <time>2019-06-15T14:17:09Z</time>
      </trkpt>
      <trkpt lat="43.321840" lon="-2.010867">
        <ele>125.524</ele>
        <time>2019-06-15T14:17:11Z</time>
      </trkpt>
      <trkpt lat="43.321853" lon="-2.010769">
        <ele>128.053</ele>
        <time>2019-06-15T14:17:13Z</time>
      </trkpt>
      <trkpt lat="43.321909" lon="-2.010697">
        <ele>126.982</ele>
        <time>2019-06-15T14:17:14Z</time>
      </trkpt>
      <trkpt lat="43.321971" lon="-2.010613">
        <ele>125.751</ele>
        <time>2019-06-15T14:17:15Z</time>
      </trkpt>
      <trkpt lat="43.322024" lon="-2.010548">
        <ele>125.542</ele>
        <time>2019-06-15T14:17:16Z</time>
      </trkpt>
      <trkpt lat="43.322075" lon="-2.010460">
        <ele>127.311</ele>
        <time>2019-06-15T14:17:17Z</time>
      </trkpt>
      <trkpt lat="43.322133" lon="-2.010385">
        <ele>128.275</ele>
        <time>2019-06-15T14:17:18Z</time>
      </trkpt>
      <trkpt lat="43.322183" lon="-2.010319">
        <ele>128.994</ele>
        <time>2019-06-15T14:17:19Z</time>
      </trkpt>
      <trkpt lat="43.322242" lon="-2.010249">
        <ele>129.057</ele>
        <time>2019-06-15T14:17:20Z</time>
      </trkpt>
      <trkpt lat="43.322290" lon="-2.010189">
        <ele>128.522</ele>
        <time>2019-06-15T14:17:21Z</time>
      </trkpt>
      <trkpt lat="43.322334" lon="-2.010122">
        <ele>128.008</ele>
        <time>2019-06-15T14:17:22Z</time>
      </trkpt>
      <trkpt lat="43.322381" lon="-2.010055">
        <ele>127.172</ele>
        <time>2019-06-15T14:17:23Z</time>
      </trkpt>
      <trkpt lat="43.322376" lon="-2.009944">
        <ele>128.386</ele>
        <time>2019-06-15T14:17:24Z</time>
      </trkpt>
      <trkpt lat="43.322389" lon="-2.009836">
        <ele>127.485</ele>
        <time>2019-06-15T14:17:25Z</time>
      </trkpt>
      <trkpt lat="43.322398" lon="-2.009718">
        <ele>126.524</ele>
        <time>2019-06-15T14:17:26Z</time>
      </trkpt>
      <trkpt lat="43.322400" lon="-2.009603">
        <ele>128.433</ele>
        <time>2019-06-15T14:17:27Z</time>
      </trkpt>
      <trkpt lat="43.322409" lon="-2.009489">
        <ele>129.794</ele>
        <time>2019-06-15T14:17:28Z</time>
      </trkpt>
      <trkpt lat="43.322421" lon="-2.009382">
        <ele>130.083</ele>
        <time>2019-06-15T14:17:29Z</time>
      </trkpt>
      <trkpt lat="43.322410" lon="-2.009270">
        <ele>131.537</ele>
        <time>2019-06-15T14:17:30Z</time>
      </trkpt>
      <trkpt lat="43.322396" lon="-2.009169">
        <ele>133.177</ele>
        <time>2019-06-15T14:17:31Z</time>
      </trkpt>
      <trkpt lat="43.322355" lon="-2.009072">
        <ele>134.261</ele>
        <time>2019-06-15T14:17:32Z</time>
      </trkpt>
      <trkpt lat="43.322314" lon="-2.008983">
        <ele>135.227</ele>
        <time>2019-06-15T14:17:33Z</time>
      </trkpt>
      <trkpt lat="43.322277" lon="-2.008905">
        <ele>136.008</ele>
        <time>2019-06-15T14:17:34Z</time>
      </trkpt>
      <trkpt lat="43.322209" lon="-2.008856">
        <ele>138.940</ele>
        <time>2019-06-15T14:17:35Z</time>
      </trkpt>
      <trkpt lat="43.322154" lon="-2.008809">
        <ele>140.494</ele>
        <time>2019-06-15T14:17:36Z</time>
      </trkpt>
      <trkpt lat="43.322078" lon="-2.008786">
        <ele>143.423</ele>
        <time>2019-06-15T14:17:37Z</time>
      </trkpt>
      <trkpt lat="43.322002" lon="-2.008727">
        <ele>144.452</ele>
        <time>2019-06-15T14:17:38Z</time>
      </trkpt>
      <trkpt lat="43.321926" lon="-2.008677">
        <ele>145.181</ele>
        <time>2019-06-15T14:17:39Z</time>
      </trkpt>
      <trkpt lat="43.321857" lon="-2.008637">
        <ele>145.872</ele>
        <time>2019-06-15T14:17:40Z</time>
      </trkpt>
      <trkpt lat="43.321782" lon="-2.008598">
        <ele>146.641</ele>
        <time>2019-06-15T14:17:41Z</time>
      </trkpt>
      <trkpt lat="43.321724" lon="-2.008590">
        <ele>148.575</ele>
        <time>2019-06-15T14:17:42Z</time>
      </trkpt>
      <trkpt lat="43.321662" lon="-2.008533">
        <ele>147.966</ele>
        <time>2019-06-15T14:17:43Z</time>
      </trkpt>
      <trkpt lat="43.321612" lon="-2.008477">
        <ele>146.029</ele>
        <time>2019-06-15T14:17:44Z</time>
      </trkpt>
      <trkpt lat="43.321614" lon="-2.008395">
        <ele>141.721</ele>
        <time>2019-06-15T14:17:45Z</time>
      </trkpt>
      <trkpt lat="43.321552" lon="-2.008454">
        <ele>146.308</ele>
        <time>2019-06-15T14:17:46Z</time>
      </trkpt>
      <trkpt lat="43.321474" lon="-2.008463">
        <ele>148.679</ele>
        <time>2019-06-15T14:17:49Z</time>
      </trkpt>
      <trkpt lat="43.321432" lon="-2.008428">
        <ele>148.053</ele>
        <time>2019-06-15T14:17:51Z</time>
      </trkpt>
      <trkpt lat="43.321395" lon="-2.008382">
        <ele>146.932</ele>
        <time>2019-06-15T14:17:56Z</time>
      </trkpt>
      <trkpt lat="43.321366" lon="-2.008328">
        <ele>144.141</ele>
        <time>2019-06-15T14:18:17Z</time>
      </trkpt>
      <trkpt lat="43.321376" lon="-2.008264">
        <ele>141.030</ele>
        <time>2019-06-15T14:18:45Z</time>
      </trkpt>
      <trkpt lat="43.321326" lon="-2.008309">
        <ele>142.351</ele>
        <time>2019-06-15T14:19:19Z</time>
      </trkpt>
      <trkpt lat="43.321313" lon="-2.008382">
        <ele>144.910</ele>
        <time>2019-06-15T14:19:20Z</time>
      </trkpt>
      <trkpt lat="43.321303" lon="-2.008540">
        <ele>150.214</ele>
        <time>2019-06-15T14:19:21Z</time>
      </trkpt>
      <trkpt lat="43.321279" lon="-2.008638">
        <ele>152.436</ele>
        <time>2019-06-15T14:19:22Z</time>
      </trkpt>
      <trkpt lat="43.321239" lon="-2.008728">
        <ele>153.217</ele>
        <time>2019-06-15T14:19:23Z</time>
      </trkpt>
      <trkpt lat="43.321196" lon="-2.008834">
        <ele>154.218</ele>
        <time>2019-06-15T14:19:24Z</time>
      </trkpt>
      <trkpt lat="43.321146" lon="-2.008953">
        <ele>155.708</ele>
        <time>2019-06-15T14:19:25Z</time>
      </trkpt>
      <trkpt lat="43.321089" lon="-2.009055">
        <ele>157.346</ele>
        <time>2019-06-15T14:19:26Z</time>
      </trkpt>
      <trkpt lat="43.321041" lon="-2.009170">
        <ele>159.070</ele>
        <time>2019-06-15T14:19:27Z</time>
      </trkpt>
      <trkpt lat="43.320984" lon="-2.009276">
        <ele>157.719</ele>
        <time>2019-06-15T14:19:28Z</time>
      </trkpt>
      <trkpt lat="43.320947" lon="-2.009392">
        <ele>158.668</ele>
        <time>2019-06-15T14:19:29Z</time>
      </trkpt>
      <trkpt lat="43.320907" lon="-2.009501">
        <ele>159.437</ele>
        <time>2019-06-15T14:19:30Z</time>
      </trkpt>
      <trkpt lat="43.320870" lon="-2.009605">
        <ele>160.398</ele>
        <time>2019-06-15T14:19:31Z</time>
      </trkpt>
      <trkpt lat="43.320846" lon="-2.009740">
        <ele>162.847</ele>
        <time>2019-06-15T14:19:32Z</time>
      </trkpt>
      <trkpt lat="43.320822" lon="-2.009859">
        <ele>163.321</ele>
        <time>2019-06-15T14:19:33Z</time>
      </trkpt>
      <trkpt lat="43.320797" lon="-2.009980">
        <ele>163.846</ele>
        <time>2019-06-15T14:19:34Z</time>
      </trkpt>
      <trkpt lat="43.320778" lon="-2.010090">
        <ele>164.988</ele>
        <time>2019-06-15T14:19:35Z</time>
      </trkpt>
      <trkpt lat="43.320753" lon="-2.010199">
        <ele>166.116</ele>
        <time>2019-06-15T14:19:36Z</time>
      </trkpt>
      <trkpt lat="43.320722" lon="-2.010318">
        <ele>166.708</ele>
        <time>2019-06-15T14:19:37Z</time>
      </trkpt>
      <trkpt lat="43.320688" lon="-2.010417">
        <ele>165.947</ele>
        <time>2019-06-15T14:19:38Z</time>
      </trkpt>
      <trkpt lat="43.320650" lon="-2.010467">
        <ele>165.291</ele>
        <time>2019-06-15T14:19:40Z</time>
      </trkpt>
      <trkpt lat="43.320605" lon="-2.010505">
        <ele>164.530</ele>
        <time>2019-06-15T14:19:41Z</time>
      </trkpt>
      <trkpt lat="43.320567" lon="-2.010559">
        <ele>164.149</ele>
        <time>2019-06-15T14:19:43Z</time>
      </trkpt>
      <trkpt lat="43.320529" lon="-2.010609">
        <ele>162.728</ele>
        <time>2019-06-15T14:19:45Z</time>
      </trkpt>
      <trkpt lat="43.320452" lon="-2.010630">
        <ele>161.799</ele>
        <time>2019-06-15T14:19:48Z</time>
      </trkpt>
      <trkpt lat="43.320368" lon="-2.010622">
        <ele>161.458</ele>
        <time>2019-06-15T14:19:50Z</time>
      </trkpt>
      <trkpt lat="43.320287" lon="-2.010644">
        <ele>160.582</ele>
        <time>2019-06-15T14:19:52Z</time>
      </trkpt>
      <trkpt lat="43.320243" lon="-2.010660">
        <ele>160.163</ele>
        <time>2019-06-15T14:19:53Z</time>
      </trkpt>
      <trkpt lat="43.320183" lon="-2.010677">
        <ele>159.944</ele>
        <time>2019-06-15T14:19:54Z</time>
      </trkpt>
      <trkpt lat="43.320132" lon="-2.010694">
        <ele>159.818</ele>
        <time>2019-06-15T14:19:55Z</time>
      </trkpt>
      <trkpt lat="43.320075" lon="-2.010711">
        <ele>159.808</ele>
        <time>2019-06-15T14:19:56Z</time>
      </trkpt>
      <trkpt lat="43.320031" lon="-2.010743">
        <ele>159.819</ele>
        <time>2019-06-15T14:19:57Z</time>
      </trkpt>
      <trkpt lat="43.319988" lon="-2.010777">
        <ele>160.193</ele>
        <time>2019-06-15T14:19:58Z</time>
      </trkpt>
      <trkpt lat="43.319956" lon="-2.010821">
        <ele>160.322</ele>
        <time>2019-06-15T14:19:59Z</time>
      </trkpt>
      <trkpt lat="43.319925" lon="-2.010874">
        <ele>159.841</ele>
        <time>2019-06-15T14:20:00Z</time>
      </trkpt>
      <trkpt lat="43.319887" lon="-2.010931">
        <ele>159.430</ele>
        <time>2019-06-15T14:20:01Z</time>
      </trkpt>
      <trkpt lat="43.319840" lon="-2.011015">
        <ele>159.741</ele>
        <time>2019-06-15T14:20:02Z</time>
      </trkpt>
      <trkpt lat="43.319793" lon="-2.011109">
        <ele>160.960</ele>
        <time>2019-06-15T14:20:03Z</time>
      </trkpt>
      <trkpt lat="43.319741" lon="-2.011203">
        <ele>160.884</ele>
        <time>2019-06-15T14:20:04Z</time>
      </trkpt>
      <trkpt lat="43.319689" lon="-2.011291">
        <ele>160.166</ele>
        <time>2019-06-15T14:20:05Z</time>
      </trkpt>
      <trkpt lat="43.319626" lon="-2.011343">
        <ele>159.929</ele>
        <time>2019-06-15T14:20:06Z</time>
      </trkpt>
      <trkpt lat="43.319551" lon="-2.011394">
        <ele>159.921</ele>
        <time>2019-06-15T14:20:07Z</time>
      </trkpt>
      <trkpt lat="43.319479" lon="-2.011398">
        <ele>161.008</ele>
        <time>2019-06-15T14:20:08Z</time>
      </trkpt>
      <trkpt lat="43.319406" lon="-2.011388">
        <ele>161.579</ele>
        <time>2019-06-15T14:20:09Z</time>
      </trkpt>
      <trkpt lat="43.319325" lon="-2.011399">
        <ele>159.973</ele>
        <time>2019-06-15T14:20:10Z</time>
      </trkpt>
      <trkpt lat="43.319236" lon="-2.011395">
        <ele>158.872</ele>
        <time>2019-06-15T14:20:11Z</time>
      </trkpt>
      <trkpt lat="43.319150" lon="-2.011413">
        <ele>156.991</ele>
        <time>2019-06-15T14:20:12Z</time>
      </trkpt>
      <trkpt lat="43.319053" lon="-2.011408">
        <ele>155.430</ele>
        <time>2019-06-15T14:20:13Z</time>
      </trkpt>
      <trkpt lat="43.318965" lon="-2.011400">
        <ele>154.041</ele>
        <time>2019-06-15T14:20:14Z</time>
      </trkpt>
      <trkpt lat="43.318890" lon="-2.011404">
        <ele>152.650</ele>
        <time>2019-06-15T14:20:15Z</time>
      </trkpt>
      <trkpt lat="43.318802" lon="-2.011425">
        <ele>151.564</ele>
        <time>2019-06-15T14:20:16Z</time>
      </trkpt>
      <trkpt lat="43.318717" lon="-2.011459">
        <ele>150.491</ele>
        <time>2019-06-15T14:20:17Z</time>
      </trkpt>
      <trkpt lat="43.318656" lon="-2.011504">
        <ele>149.481</ele>
        <time>2019-06-15T14:20:18Z</time>
      </trkpt>
      <trkpt lat="43.318584" lon="-2.011571">
        <ele>148.719</ele>
        <time>2019-06-15T14:20:19Z</time>
      </trkpt>
      <trkpt lat="43.318520" lon="-2.011649">
        <ele>148.808</ele>
        <time>2019-06-15T14:20:20Z</time>
      </trkpt>
      <trkpt lat="43.318457" lon="-2.011728">
        <ele>148.462</ele>
        <time>2019-06-15T14:20:21Z</time>
      </trkpt>
      <trkpt lat="43.318404" lon="-2.011806">
        <ele>147.856</ele>
        <time>2019-06-15T14:20:22Z</time>
      </trkpt>
      <trkpt lat="43.318339" lon="-2.011907">
        <ele>147.595</ele>
        <time>2019-06-15T14:20:23Z</time>
      </trkpt>
      <trkpt lat="43.318294" lon="-2.012005">
        <ele>147.664</ele>
        <time>2019-06-15T14:20:24Z</time>
      </trkpt>
      <trkpt lat="43.318268" lon="-2.012116">
        <ele>147.293</ele>
        <time>2019-06-15T14:20:25Z</time>
      </trkpt>
      <trkpt lat="43.318254" lon="-2.012246">
        <ele>146.314</ele>
        <time>2019-06-15T14:20:26Z</time>
      </trkpt>
      <trkpt lat="43.318251" lon="-2.012377">
        <ele>145.863</ele>
        <time>2019-06-15T14:20:27Z</time>
      </trkpt>
      <trkpt lat="43.318255" lon="-2.012515">
        <ele>145.187</ele>
        <time>2019-06-15T14:20:28Z</time>
      </trkpt>
      <trkpt lat="43.318250" lon="-2.012652">
        <ele>145.174</ele>
        <time>2019-06-15T14:20:29Z</time>
      </trkpt>
      <trkpt lat="43.318241" lon="-2.012785">
        <ele>145.256</ele>
        <time>2019-06-15T14:20:30Z</time>
      </trkpt>
      <trkpt lat="43.318233" lon="-2.012936">
        <ele>144.021</ele>
        <time>2019-06-15T14:20:31Z</time>
      </trkpt>
      <trkpt lat="43.318227" lon="-2.013083">
        <ele>142.608</ele>
        <time>2019-06-15T14:20:32Z</time>
      </trkpt>
      <trkpt lat="43.318215" lon="-2.013224">
        <ele>141.470</ele>
        <time>2019-06-15T14:20:33Z</time>
      </trkpt>
      <trkpt lat="43.318208" lon="-2.013345">
        <ele>140.284</ele>
        <time>2019-06-15T14:20:34Z</time>
      </trkpt>
      <trkpt lat="43.318182" lon="-2.013471">
        <ele>140.443</ele>
        <time>2019-06-15T14:20:35Z</time>
      </trkpt>
      <trkpt lat="43.318176" lon="-2.013605">
        <ele>139.682</ele>
        <time>2019-06-15T14:20:36Z</time>
      </trkpt>
      <trkpt lat="43.318176" lon="-2.013738">
        <ele>139.141</ele>
        <time>2019-06-15T14:20:37Z</time>
      </trkpt>
      <trkpt lat="43.318178" lon="-2.013875">
        <ele>138.662</ele>
        <time>2019-06-15T14:20:38Z</time>
      </trkpt>
      <trkpt lat="43.318169" lon="-2.014018">
        <ele>138.051</ele>
        <time>2019-06-15T14:20:39Z</time>
      </trkpt>
      <trkpt lat="43.318173" lon="-2.014138">
        <ele>137.115</ele>
        <time>2019-06-15T14:20:40Z</time>
      </trkpt>
      <trkpt lat="43.318174" lon="-2.014284">
        <ele>136.133</ele>
        <time>2019-06-15T14:20:41Z</time>
      </trkpt>
      <trkpt lat="43.318170" lon="-2.014432">
        <ele>135.323</ele>
        <time>2019-06-15T14:20:42Z</time>
      </trkpt>
      <trkpt lat="43.318157" lon="-2.014569">
        <ele>134.315</ele>
        <time>2019-06-15T14:20:43Z</time>
      </trkpt>
      <trkpt lat="43.318136" lon="-2.014709">
        <ele>133.108</ele>
        <time>2019-06-15T14:20:44Z</time>
      </trkpt>
      <trkpt lat="43.318105" lon="-2.014847">
        <ele>132.646</ele>
        <time>2019-06-15T14:20:45Z</time>
      </trkpt>
      <trkpt lat="43.318062" lon="-2.014987">
        <ele>132.090</ele>
        <time>2019-06-15T14:20:46Z</time>
      </trkpt>
      <trkpt lat="43.318022" lon="-2.015135">
        <ele>131.069</ele>
        <time>2019-06-15T14:20:47Z</time>
      </trkpt>
      <trkpt lat="43.317982" lon="-2.015270">
        <ele>130.078</ele>
        <time>2019-06-15T14:20:48Z</time>
      </trkpt>
      <trkpt lat="43.317941" lon="-2.015402">
        <ele>128.677</ele>
        <time>2019-06-15T14:20:49Z</time>
      </trkpt>
      <trkpt lat="43.317903" lon="-2.015530">
        <ele>127.678</ele>
        <time>2019-06-15T14:20:50Z</time>
      </trkpt>
      <trkpt lat="43.317872" lon="-2.015641">
        <ele>127.037</ele>
        <time>2019-06-15T14:20:51Z</time>
      </trkpt>
      <trkpt lat="43.317843" lon="-2.015757">
        <ele>126.581</ele>
        <time>2019-06-15T14:20:52Z</time>
      </trkpt>
      <trkpt lat="43.317810" lon="-2.015867">
        <ele>126.244</ele>
        <time>2019-06-15T14:20:53Z</time>
      </trkpt>
      <trkpt lat="43.317779" lon="-2.015965">
        <ele>126.505</ele>
        <time>2019-06-15T14:20:54Z</time>
      </trkpt>
      <trkpt lat="43.317762" lon="-2.016048">
        <ele>126.315</ele>
        <time>2019-06-15T14:20:55Z</time>
      </trkpt>
      <trkpt lat="43.317737" lon="-2.016129">
        <ele>125.708</ele>
        <time>2019-06-15T14:20:56Z</time>
      </trkpt>
      <trkpt lat="43.317729" lon="-2.016220">
        <ele>125.627</ele>
        <time>2019-06-15T14:20:58Z</time>
      </trkpt>
      <trkpt lat="43.317743" lon="-2.016300">
        <ele>126.121</ele>
        <time>2019-06-15T14:21:01Z</time>
      </trkpt>
      <trkpt lat="43.317820" lon="-2.016293">
        <ele>127.470</ele>
        <time>2019-06-15T14:21:03Z</time>
      </trkpt>
      <trkpt lat="43.317903" lon="-2.016264">
        <ele>127.999</ele>
        <time>2019-06-15T14:21:04Z</time>
      </trkpt>
      <trkpt lat="43.317993" lon="-2.016270">
        <ele>128.768</ele>
        <time>2019-06-15T14:21:05Z</time>
      </trkpt>
      <trkpt lat="43.318086" lon="-2.016288">
        <ele>129.219</ele>
        <time>2019-06-15T14:21:06Z</time>
      </trkpt>
      <trkpt lat="43.318181" lon="-2.016341">
        <ele>129.528</ele>
        <time>2019-06-15T14:21:07Z</time>
      </trkpt>
      <trkpt lat="43.318267" lon="-2.016404">
        <ele>130.442</ele>
        <time>2019-06-15T14:21:08Z</time>
      </trkpt>
      <trkpt lat="43.318352" lon="-2.016481">
        <ele>131.943</ele>
        <time>2019-06-15T14:21:09Z</time>
      </trkpt>
      <trkpt lat="43.318460" lon="-2.016565">
        <ele>131.764</ele>
        <time>2019-06-15T14:21:10Z</time>
      </trkpt>
      <trkpt lat="43.318552" lon="-2.016649">
        <ele>131.810</ele>
        <time>2019-06-15T14:21:11Z</time>
      </trkpt>
      <trkpt lat="43.318663" lon="-2.016712">
        <ele>131.008</ele>
        <time>2019-06-15T14:21:12Z</time>
      </trkpt>
      <trkpt lat="43.318760" lon="-2.016785">
        <ele>130.927</ele>
        <time>2019-06-15T14:21:13Z</time>
      </trkpt>
      <trkpt lat="43.318825" lon="-2.016845">
        <ele>131.521</ele>
        <time>2019-06-15T14:21:14Z</time>
      </trkpt>
      <trkpt lat="43.318869" lon="-2.016900">
        <ele>132.680</ele>
        <time>2019-06-15T14:21:15Z</time>
      </trkpt>
      <trkpt lat="43.318932" lon="-2.016939">
        <ele>132.469</ele>
        <time>2019-06-15T14:21:16Z</time>
      </trkpt>
      <trkpt lat="43.318988" lon="-2.016972">
        <ele>132.018</ele>
        <time>2019-06-15T14:21:17Z</time>
      </trkpt>
      <trkpt lat="43.319040" lon="-2.016977">
        <ele>130.559</ele>
        <time>2019-06-15T14:21:18Z</time>
      </trkpt>
      <trkpt lat="43.319076" lon="-2.017033">
        <ele>131.958</ele>
        <time>2019-06-15T14:21:19Z</time>
      </trkpt>
      <trkpt lat="43.319119" lon="-2.017064">
        <ele>132.092</ele>
        <time>2019-06-15T14:21:20Z</time>
      </trkpt>
      <trkpt lat="43.319198" lon="-2.017151">
        <ele>133.881</ele>
        <time>2019-06-15T14:21:22Z</time>
      </trkpt>
      <trkpt lat="43.319233" lon="-2.017214">
        <ele>135.761</ele>
        <time>2019-06-15T14:21:23Z</time>
      </trkpt>
      <trkpt lat="43.319274" lon="-2.017275">
        <ele>136.017</ele>
        <time>2019-06-15T14:21:24Z</time>
      </trkpt>
      <trkpt lat="43.319291" lon="-2.017340">
        <ele>136.808</ele>
        <time>2019-06-15T14:21:25Z</time>
      </trkpt>
      <trkpt lat="43.319291" lon="-2.017410">
        <ele>138.251</ele>
        <time>2019-06-15T14:21:26Z</time>
      </trkpt>
      <trkpt lat="43.319277" lon="-2.017472">
        <ele>140.075</ele>
        <time>2019-06-15T14:21:27Z</time>
      </trkpt>
      <trkpt lat="43.319252" lon="-2.017531">
        <ele>141.344</ele>
        <time>2019-06-15T14:21:28Z</time>
      </trkpt>
      <trkpt lat="43.319202" lon="-2.017621">
        <ele>142.233</ele>
        <time>2019-06-15T14:21:30Z</time>
      </trkpt>
      <trkpt lat="43.319169" lon="-2.017688">
        <ele>142.922</ele>
        <time>2019-06-15T14:21:31Z</time>
      </trkpt>
      <trkpt lat="43.319116" lon="-2.017748">
        <ele>143.573</ele>
        <time>2019-06-15T14:21:32Z</time>
      </trkpt>
      <trkpt lat="43.319058" lon="-2.017806">
        <ele>143.812</ele>
        <time>2019-06-15T14:21:33Z</time>
      </trkpt>
      <trkpt lat="43.319005" lon="-2.017865">
        <ele>143.816</ele>
        <time>2019-06-15T14:21:34Z</time>
      </trkpt>
      <trkpt lat="43.318967" lon="-2.017906">
        <ele>143.998</ele>
        <time>2019-06-15T14:21:35Z</time>
      </trkpt>
      <trkpt lat="43.318928" lon="-2.017945">
        <ele>144.115</ele>
        <time>2019-06-15T14:21:36Z</time>
      </trkpt>
      <trkpt lat="43.318877" lon="-2.018026">
        <ele>143.826</ele>
        <time>2019-06-15T14:21:38Z</time>
      </trkpt>
      <trkpt lat="43.318845" lon="-2.018076">
        <ele>143.808</ele>
        <time>2019-06-15T14:21:39Z</time>
      </trkpt>
      <trkpt lat="43.318823" lon="-2.018135">
        <ele>143.512</ele>
        <time>2019-06-15T14:21:40Z</time>
      </trkpt>
      <trkpt lat="43.318792" lon="-2.018192">
        <ele>143.776</ele>
        <time>2019-06-15T14:21:41Z</time>
      </trkpt>
      <trkpt lat="43.318760" lon="-2.018274">
        <ele>143.875</ele>
        <time>2019-06-15T14:21:42Z</time>
      </trkpt>
      <trkpt lat="43.318726" lon="-2.018361">
        <ele>144.444</ele>
        <time>2019-06-15T14:21:43Z</time>
      </trkpt>
      <trkpt lat="43.318696" lon="-2.018481">
        <ele>145.773</ele>
        <time>2019-06-15T14:21:44Z</time>
      </trkpt>
      <trkpt lat="43.318684" lon="-2.018591">
        <ele>146.384</ele>
        <time>2019-06-15T14:21:45Z</time>
      </trkpt>
      <trkpt lat="43.318673" lon="-2.018711">
        <ele>147.833</ele>
        <time>2019-06-15T14:21:46Z</time>
      </trkpt>
      <trkpt lat="43.318676" lon="-2.018827">
        <ele>148.637</ele>
        <time>2019-06-15T14:21:47Z</time>
      </trkpt>
      <trkpt lat="43.318678" lon="-2.018931">
        <ele>149.168</ele>
        <time>2019-06-15T14:21:48Z</time>
      </trkpt>
      <trkpt lat="43.318666" lon="-2.019034">
        <ele>150.542</ele>
        <time>2019-06-15T14:21:49Z</time>
      </trkpt>
      <trkpt lat="43.318680" lon="-2.019144">
        <ele>149.726</ele>
        <time>2019-06-15T14:21:50Z</time>
      </trkpt>
      <trkpt lat="43.318684" lon="-2.019256">
        <ele>149.808</ele>
        <time>2019-06-15T14:21:51Z</time>
      </trkpt>
      <trkpt lat="43.318685" lon="-2.019384">
        <ele>150.319</ele>
        <time>2019-06-15T14:21:52Z</time>
      </trkpt>
      <trkpt lat="43.318660" lon="-2.019534">
        <ele>152.923</ele>
        <time>2019-06-15T14:21:53Z</time>
      </trkpt>
      <trkpt lat="43.318635" lon="-2.019672">
        <ele>155.172</ele>
        <time>2019-06-15T14:21:54Z</time>
      </trkpt>
      <trkpt lat="43.318593" lon="-2.019812">
        <ele>157.021</ele>
        <time>2019-06-15T14:21:55Z</time>
      </trkpt>
      <trkpt lat="43.318492" lon="-2.019960">
        <ele>157.950</ele>
        <time>2019-06-15T14:21:56Z</time>
      </trkpt>
      <trkpt lat="43.318384" lon="-2.020082">
        <ele>158.571</ele>
        <time>2019-06-15T14:21:57Z</time>
      </trkpt>
      <trkpt lat="43.318285" lon="-2.020207">
        <ele>159.450</ele>
        <time>2019-06-15T14:21:58Z</time>
      </trkpt>
      <trkpt lat="43.318162" lon="-2.020331">
        <ele>160.134</ele>
        <time>2019-06-15T14:21:59Z</time>
      </trkpt>
      <trkpt lat="43.318031" lon="-2.020461">
        <ele>161.733</ele>
        <time>2019-06-15T14:22:00Z</time>
      </trkpt>
      <trkpt lat="43.317911" lon="-2.020566">
        <ele>163.523</ele>
        <time>2019-06-15T14:22:01Z</time>
      </trkpt>
      <trkpt lat="43.317779" lon="-2.020688">
        <ele>166.015</ele>
        <time>2019-06-15T14:22:02Z</time>
      </trkpt>
      <trkpt lat="43.317672" lon="-2.020784">
        <ele>167.408</ele>
        <time>2019-06-15T14:22:03Z</time>
      </trkpt>
      <trkpt lat="43.317560" lon="-2.020888">
        <ele>168.556</ele>
        <time>2019-06-15T14:22:04Z</time>
      </trkpt>
      <trkpt lat="43.317450" lon="-2.020969">
        <ele>170.050</ele>
        <time>2019-06-15T14:22:05Z</time>
      </trkpt>
      <trkpt lat="43.317313" lon="-2.021023">
        <ele>172.079</ele>
        <time>2019-06-15T14:22:06Z</time>
      </trkpt>
      <trkpt lat="43.317178" lon="-2.021082">
        <ele>173.318</ele>
        <time>2019-06-15T14:22:07Z</time>
      </trkpt>
      <trkpt lat="43.317051" lon="-2.021134">
        <ele>174.687</ele>
        <time>2019-06-15T14:22:08Z</time>
      </trkpt>
      <trkpt lat="43.316940" lon="-2.021207">
        <ele>175.028</ele>
        <time>2019-06-15T14:22:09Z</time>
      </trkpt>
      <trkpt lat="43.316825" lon="-2.021279">
        <ele>175.857</ele>
        <time>2019-06-15T14:22:10Z</time>
      </trkpt>
      <trkpt lat="43.316734" lon="-2.021388">
        <ele>175.691</ele>
        <time>2019-06-15T14:22:11Z</time>
      </trkpt>
      <trkpt lat="43.316663" lon="-2.021496">
        <ele>175.599</ele>
        <time>2019-06-15T14:22:12Z</time>
      </trkpt>
      <trkpt lat="43.316588" lon="-2.021645">
        <ele>175.507</ele>
        <time>2019-06-15T14:22:13Z</time>
      </trkpt>
      <trkpt lat="43.316535" lon="-2.021805">
        <ele>175.527</ele>
        <time>2019-06-15T14:22:14Z</time>
      </trkpt>
      <trkpt lat="43.316478" lon="-2.022004">
        <ele>176.608</ele>
        <time>2019-06-15T14:22:15Z</time>
      </trkpt>
      <trkpt lat="43.316434" lon="-2.022173">
        <ele>178.992</ele>
        <time>2019-06-15T14:22:16Z</time>
      </trkpt>
      <trkpt lat="43.316389" lon="-2.022329">
        <ele>181.076</ele>
        <time>2019-06-15T14:22:17Z</time>
      </trkpt>
      <trkpt lat="43.316343" lon="-2.022490">
        <ele>182.235</ele>
        <time>2019-06-15T14:22:18Z</time>
      </trkpt>
      <trkpt lat="43.316318" lon="-2.022630">
        <ele>182.784</ele>
        <time>2019-06-15T14:22:19Z</time>
      </trkpt>
      <trkpt lat="43.316273" lon="-2.022784">
        <ele>183.543</ele>
        <time>2019-06-15T14:22:20Z</time>
      </trkpt>
      <trkpt lat="43.316217" lon="-2.022906">
        <ele>184.494</ele>
        <time>2019-06-15T14:22:21Z</time>
      </trkpt>
      <trkpt lat="43.316157" lon="-2.023001">
        <ele>185.363</ele>
        <time>2019-06-15T14:22:22Z</time>
      </trkpt>
      <trkpt lat="43.316080" lon="-2.023099">
        <ele>186.437</ele>
        <time>2019-06-15T14:22:23Z</time>
      </trkpt>
      <trkpt lat="43.315998" lon="-2.023156">
        <ele>187.296</ele>
        <time>2019-06-15T14:22:24Z</time>
      </trkpt>
      <trkpt lat="43.315894" lon="-2.023241">
        <ele>187.731</ele>
        <time>2019-06-15T14:22:25Z</time>
      </trkpt>
      <trkpt lat="43.315805" lon="-2.023332">
        <ele>187.524</ele>
        <time>2019-06-15T14:22:26Z</time>
      </trkpt>
      <trkpt lat="43.315717" lon="-2.023426">
        <ele>187.908</ele>
        <time>2019-06-15T14:22:27Z</time>
      </trkpt>
      <trkpt lat="43.315631" lon="-2.023548">
        <ele>188.122</ele>
        <time>2019-06-15T14:22:28Z</time>
      </trkpt>
      <trkpt lat="43.315578" lon="-2.023710">
        <ele>187.886</ele>
        <time>2019-06-15T14:22:29Z</time>
      </trkpt>
      <trkpt lat="43.315536" lon="-2.023870">
        <ele>187.945</ele>
        <time>2019-06-15T14:22:30Z</time>
      </trkpt>
      <trkpt lat="43.315497" lon="-2.024060">
        <ele>188.434</ele>
        <time>2019-06-15T14:22:31Z</time>
      </trkpt>
      <trkpt lat="43.315460" lon="-2.024245">
        <ele>189.643</ele>
        <time>2019-06-15T14:22:32Z</time>
      </trkpt>
      <trkpt lat="43.315434" lon="-2.024425">
        <ele>191.444</ele>
        <time>2019-06-15T14:22:33Z</time>
      </trkpt>
      <trkpt lat="43.315396" lon="-2.024617">
        <ele>192.413</ele>
        <time>2019-06-15T14:22:34Z</time>
      </trkpt>
      <trkpt lat="43.315335" lon="-2.024842">
        <ele>193.427</ele>
        <time>2019-06-15T14:22:35Z</time>
      </trkpt>
      <trkpt lat="43.315292" lon="-2.025033">
        <ele>194.783</ele>
        <time>2019-06-15T14:22:36Z</time>
      </trkpt>
      <trkpt lat="43.315271" lon="-2.025204">
        <ele>195.125</ele>
        <time>2019-06-15T14:22:37Z</time>
      </trkpt>
      <trkpt lat="43.315237" lon="-2.025381">
        <ele>195.417</ele>
        <time>2019-06-15T14:22:38Z</time>
      </trkpt>
      <trkpt lat="43.315204" lon="-2.025544">
        <ele>195.608</ele>
        <time>2019-06-15T14:22:39Z</time>
      </trkpt>
      <trkpt lat="43.315148" lon="-2.025701">
        <ele>195.721</ele>
        <time>2019-06-15T14:22:40Z</time>
      </trkpt>
      <trkpt lat="43.315107" lon="-2.025847">
        <ele>195.875</ele>
        <time>2019-06-15T14:22:41Z</time>
      </trkpt>
      <trkpt lat="43.315050" lon="-2.025980">
        <ele>196.474</ele>
        <time>2019-06-15T14:22:42Z</time>
      </trkpt>
      <trkpt lat="43.314981" lon="-2.026110">
        <ele>197.343</ele>
        <time>2019-06-15T14:22:43Z</time>
      </trkpt>
      <trkpt lat="43.314901" lon="-2.026275">
        <ele>197.282</ele>
        <time>2019-06-15T14:22:44Z</time>
      </trkpt>
      <trkpt lat="43.314828" lon="-2.026441">
        <ele>197.383</ele>
        <time>2019-06-15T14:22:45Z</time>
      </trkpt>
      <trkpt lat="43.314746" lon="-2.026612">
        <ele>197.892</ele>
        <time>2019-06-15T14:22:46Z</time>
      </trkpt>
      <trkpt lat="43.314662" lon="-2.026781">
        <ele>198.726</ele>
        <time>2019-06-15T14:22:47Z</time>
      </trkpt>
      <trkpt lat="43.314577" lon="-2.026936">
        <ele>199.655</ele>
        <time>2019-06-15T14:22:48Z</time>
      </trkpt>
      <trkpt lat="43.314499" lon="-2.027079">
        <ele>200.207</ele>
        <time>2019-06-15T14:22:49Z</time>
      </trkpt>
      <trkpt lat="43.314417" lon="-2.027243">
        <ele>200.317</ele>
        <time>2019-06-15T14:22:50Z</time>
      </trkpt>
      <trkpt lat="43.314347" lon="-2.027390">
        <ele>200.608</ele>
        <time>2019-06-15T14:22:51Z</time>
      </trkpt>
      <trkpt lat="43.314271" lon="-2.027545">
        <ele>200.878</ele>
        <time>2019-06-15T14:22:52Z</time>
      </trkpt>
      <trkpt lat="43.314188" lon="-2.027694">
        <ele>201.762</ele>
        <time>2019-06-15T14:22:53Z</time>
      </trkpt>
      <trkpt lat="43.314112" lon="-2.027863">
        <ele>202.871</ele>
        <time>2019-06-15T14:22:54Z</time>
      </trkpt>
      <trkpt lat="43.314037" lon="-2.028029">
        <ele>204.340</ele>
        <time>2019-06-15T14:22:55Z</time>
      </trkpt>
      <trkpt lat="43.313955" lon="-2.028183">
        <ele>205.189</ele>
        <time>2019-06-15T14:22:56Z</time>
      </trkpt>
      <trkpt lat="43.313857" lon="-2.028328">
        <ele>205.570</ele>
        <time>2019-06-15T14:22:57Z</time>
      </trkpt>
      <trkpt lat="43.313758" lon="-2.028477">
        <ele>206.639</ele>
        <time>2019-06-15T14:22:58Z</time>
      </trkpt>
      <trkpt lat="43.313638" lon="-2.028619">
        <ele>207.743</ele>
        <time>2019-06-15T14:22:59Z</time>
      </trkpt>
      <trkpt lat="43.313525" lon="-2.028750">
        <ele>208.671</ele>
        <time>2019-06-15T14:23:00Z</time>
      </trkpt>
      <trkpt lat="43.313401" lon="-2.028879">
        <ele>209.341</ele>
        <time>2019-06-15T14:23:01Z</time>
      </trkpt>
      <trkpt lat="43.313299" lon="-2.029000">
        <ele>209.315</ele>
        <time>2019-06-15T14:23:02Z</time>
      </trkpt>
      <trkpt lat="43.313201" lon="-2.029127">
        <ele>209.708</ele>
        <time>2019-06-15T14:23:03Z</time>
      </trkpt>
      <trkpt lat="43.313083" lon="-2.029270">
        <ele>211.150</ele>
        <time>2019-06-15T14:23:04Z</time>
      </trkpt>
      <trkpt lat="43.312975" lon="-2.029432">
        <ele>212.874</ele>
        <time>2019-06-15T14:23:05Z</time>
      </trkpt>
      <trkpt lat="43.312868" lon="-2.029583">
        <ele>213.643</ele>
        <time>2019-06-15T14:23:06Z</time>
      </trkpt>
      <trkpt lat="43.312761" lon="-2.029760">
        <ele>214.382</ele>
        <time>2019-06-15T14:23:07Z</time>
      </trkpt>
      <trkpt lat="43.312671" lon="-2.029941">
        <ele>215.311</ele>
        <time>2019-06-15T14:23:08Z</time>
      </trkpt>
      <trkpt lat="43.312572" lon="-2.030148">
        <ele>215.672</ele>
        <time>2019-06-15T14:23:09Z</time>
      </trkpt>
      <trkpt lat="43.312485" lon="-2.030339">
        <ele>215.621</ele>
        <time>2019-06-15T14:23:10Z</time>
      </trkpt>
      <trkpt lat="43.312396" lon="-2.030526">
        <ele>214.945</ele>
        <time>2019-06-15T14:23:11Z</time>
      </trkpt>
      <trkpt lat="43.312301" lon="-2.030720">
        <ele>214.385</ele>
        <time>2019-06-15T14:23:12Z</time>
      </trkpt>
      <trkpt lat="43.312215" lon="-2.030901">
        <ele>214.689</ele>
        <time>2019-06-15T14:23:13Z</time>
      </trkpt>
      <trkpt lat="43.312127" lon="-2.031074">
        <ele>215.317</ele>
        <time>2019-06-15T14:23:14Z</time>
      </trkpt>
      <trkpt lat="43.312045" lon="-2.031239">
        <ele>215.708</ele>
        <time>2019-06-15T14:23:15Z</time>
      </trkpt>
      <trkpt lat="43.311968" lon="-2.031409">
        <ele>216.361</ele>
        <time>2019-06-15T14:23:16Z</time>
      </trkpt>
      <trkpt lat="43.311896" lon="-2.031560">
        <ele>216.815</ele>
        <time>2019-06-15T14:23:17Z</time>
      </trkpt>
      <trkpt lat="43.311828" lon="-2.031714">
        <ele>217.124</ele>
        <time>2019-06-15T14:23:18Z</time>
      </trkpt>
      <trkpt lat="43.311758" lon="-2.031870">
        <ele>217.883</ele>
        <time>2019-06-15T14:23:19Z</time>
      </trkpt>
      <trkpt lat="43.311690" lon="-2.032009">
        <ele>218.642</ele>
        <time>2019-06-15T14:23:20Z</time>
      </trkpt>
      <trkpt lat="43.311626" lon="-2.032135">
        <ele>218.673</ele>
        <time>2019-06-15T14:23:21Z</time>
      </trkpt>
      <trkpt lat="43.311554" lon="-2.032287">
        <ele>218.482</ele>
        <time>2019-06-15T14:23:22Z</time>
      </trkpt>
      <trkpt lat="43.311459" lon="-2.032411">
        <ele>219.596</ele>
        <time>2019-06-15T14:23:23Z</time>
      </trkpt>
      <trkpt lat="43.311350" lon="-2.032540">
        <ele>221.034</ele>
        <time>2019-06-15T14:23:24Z</time>
      </trkpt>
      <trkpt lat="43.311225" lon="-2.032667">
        <ele>221.755</ele>
        <time>2019-06-15T14:23:25Z</time>
      </trkpt>
      <trkpt lat="43.311094" lon="-2.032772">
        <ele>223.310</ele>
        <time>2019-06-15T14:23:26Z</time>
      </trkpt>
      <trkpt lat="43.310965" lon="-2.032876">
        <ele>223.708</ele>
        <time>2019-06-15T14:23:27Z</time>
      </trkpt>
      <trkpt lat="43.310844" lon="-2.032993">
        <ele>224.516</ele>
        <time>2019-06-15T14:23:28Z</time>
      </trkpt>
      <trkpt lat="43.310731" lon="-2.033119">
        <ele>225.980</ele>
        <time>2019-06-15T14:23:29Z</time>
      </trkpt>
      <trkpt lat="43.310638" lon="-2.033271">
        <ele>226.689</ele>
        <time>2019-06-15T14:23:30Z</time>
      </trkpt>
      <trkpt lat="43.310550" lon="-2.033424">
        <ele>227.198</ele>
        <time>2019-06-15T14:23:31Z</time>
      </trkpt>
      <trkpt lat="43.310463" lon="-2.033587">
        <ele>227.577</ele>
        <time>2019-06-15T14:23:32Z</time>
      </trkpt>
      <trkpt lat="43.310380" lon="-2.033764">
        <ele>227.938</ele>
        <time>2019-06-15T14:23:33Z</time>
      </trkpt>
      <trkpt lat="43.310306" lon="-2.033951">
        <ele>228.687</ele>
        <time>2019-06-15T14:23:34Z</time>
      </trkpt>
      <trkpt lat="43.310236" lon="-2.034144">
        <ele>229.251</ele>
        <time>2019-06-15T14:23:35Z</time>
      </trkpt>
      <trkpt lat="43.310167" lon="-2.034344">
        <ele>228.587</ele>
        <time>2019-06-15T14:23:36Z</time>
      </trkpt>
      <trkpt lat="43.310096" lon="-2.034560">
        <ele>228.342</ele>
        <time>2019-06-15T14:23:37Z</time>
      </trkpt>
      <trkpt lat="43.310032" lon="-2.034782">
        <ele>228.226</ele>
        <time>2019-06-15T14:23:38Z</time>
      </trkpt>
      <trkpt lat="43.309961" lon="-2.035018">
        <ele>226.708</ele>
        <time>2019-06-15T14:23:39Z</time>
      </trkpt>
      <trkpt lat="43.309882" lon="-2.035257">
        <ele>226.131</ele>
        <time>2019-06-15T14:23:40Z</time>
      </trkpt>
      <trkpt lat="43.309808" lon="-2.035490">
        <ele>225.735</ele>
        <time>2019-06-15T14:23:41Z</time>
      </trkpt>
      <trkpt lat="43.309717" lon="-2.035731">
        <ele>226.274</ele>
        <time>2019-06-15T14:23:42Z</time>
      </trkpt>
      <trkpt lat="43.309621" lon="-2.035969">
        <ele>226.043</ele>
        <time>2019-06-15T14:23:43Z</time>
      </trkpt>
      <trkpt lat="43.309530" lon="-2.036201">
        <ele>226.292</ele>
        <time>2019-06-15T14:23:44Z</time>
      </trkpt>
      <trkpt lat="43.309429" lon="-2.036453">
        <ele>226.773</ele>
        <time>2019-06-15T14:23:45Z</time>
      </trkpt>
      <trkpt lat="43.309337" lon="-2.036674">
        <ele>227.412</ele>
        <time>2019-06-15T14:23:46Z</time>
      </trkpt>
      <trkpt lat="43.309241" lon="-2.036884">
        <ele>229.816</ele>
        <time>2019-06-15T14:23:47Z</time>
      </trkpt>
      <trkpt lat="43.309139" lon="-2.037084">
        <ele>232.077</ele>
        <time>2019-06-15T14:23:48Z</time>
      </trkpt>
      <trkpt lat="43.309021" lon="-2.037262">
        <ele>232.961</ele>
        <time>2019-06-15T14:23:49Z</time>
      </trkpt>
      <trkpt lat="43.308900" lon="-2.037445">
        <ele>235.727</ele>
        <time>2019-06-15T14:23:50Z</time>
      </trkpt>
      <trkpt lat="43.308789" lon="-2.037585">
        <ele>237.308</ele>
        <time>2019-06-15T14:23:51Z</time>
      </trkpt>
      <trkpt lat="43.308667" lon="-2.037749">
        <ele>238.860</ele>
        <time>2019-06-15T14:23:52Z</time>
      </trkpt>
      <trkpt lat="43.308552" lon="-2.037885">
        <ele>240.944</ele>
        <time>2019-06-15T14:23:53Z</time>
      </trkpt>
      <trkpt lat="43.308448" lon="-2.038014">
        <ele>241.913</ele>
        <time>2019-06-15T14:23:54Z</time>
      </trkpt>
      <trkpt lat="43.308351" lon="-2.038141">
        <ele>242.892</ele>
        <time>2019-06-15T14:23:55Z</time>
      </trkpt>
      <trkpt lat="43.308249" lon="-2.038267">
        <ele>243.821</ele>
        <time>2019-06-15T14:23:56Z</time>
      </trkpt>
      <trkpt lat="43.308145" lon="-2.038392">
        <ele>244.342</ele>
        <time>2019-06-15T14:23:57Z</time>
      </trkpt>
      <trkpt lat="43.308028" lon="-2.038540">
        <ele>245.371</ele>
        <time>2019-06-15T14:23:58Z</time>
      </trkpt>
      <trkpt lat="43.307908" lon="-2.038662">
        <ele>246.285</ele>
        <time>2019-06-15T14:23:59Z</time>
      </trkpt>
      <trkpt lat="43.307786" lon="-2.038775">
        <ele>246.714</ele>
        <time>2019-06-15T14:24:00Z</time>
      </trkpt>
      <trkpt lat="43.307652" lon="-2.038862">
        <ele>247.654</ele>
        <time>2019-06-15T14:24:01Z</time>
      </trkpt>
      <trkpt lat="43.307518" lon="-2.038942">
        <ele>248.209</ele>
        <time>2019-06-15T14:24:02Z</time>
      </trkpt>
      <trkpt lat="43.307390" lon="-2.039034">
        <ele>248.208</ele>
        <time>2019-06-15T14:24:03Z</time>
      </trkpt>
      <trkpt lat="43.307266" lon="-2.039123">
        <ele>248.274</ele>
        <time>2019-06-15T14:24:04Z</time>
      </trkpt>
      <trkpt lat="43.307157" lon="-2.039190">
        <ele>248.448</ele>
        <time>2019-06-15T14:24:05Z</time>
      </trkpt>
      <trkpt lat="43.307054" lon="-2.039271">
        <ele>248.547</ele>
        <time>2019-06-15T14:24:06Z</time>
      </trkpt>
      <trkpt lat="43.306955" lon="-2.039344">
        <ele>248.956</ele>
        <time>2019-06-15T14:24:07Z</time>
      </trkpt>
      <trkpt lat="43.306860" lon="-2.039435">
        <ele>249.375</ele>
        <time>2019-06-15T14:24:08Z</time>
      </trkpt>
      <trkpt lat="43.306782" lon="-2.039554">
        <ele>249.696</ele>
        <time>2019-06-15T14:24:09Z</time>
      </trkpt>
      <trkpt lat="43.306706" lon="-2.039681">
        <ele>250.365</ele>
        <time>2019-06-15T14:24:10Z</time>
      </trkpt>
      <trkpt lat="43.306646" lon="-2.039816">
        <ele>250.869</ele>
        <time>2019-06-15T14:24:11Z</time>
      </trkpt>
      <trkpt lat="43.306581" lon="-2.039949">
        <ele>250.821</ele>
        <time>2019-06-15T14:24:12Z</time>
      </trkpt>
      <trkpt lat="43.306544" lon="-2.040110">
        <ele>250.741</ele>
        <time>2019-06-15T14:24:13Z</time>
      </trkpt>
      <trkpt lat="43.306502" lon="-2.040272">
        <ele>250.805</ele>
        <time>2019-06-15T14:24:14Z</time>
      </trkpt>
      <trkpt lat="43.306471" lon="-2.040447">
        <ele>251.108</ele>
        <time>2019-06-15T14:24:15Z</time>
      </trkpt>
      <trkpt lat="43.306438" lon="-2.040624">
        <ele>251.325</ele>
        <time>2019-06-15T14:24:16Z</time>
      </trkpt>
      <trkpt lat="43.306400" lon="-2.040790">
        <ele>251.139</ele>
        <time>2019-06-15T14:24:17Z</time>
      </trkpt>
      <trkpt lat="43.306367" lon="-2.040954">
        <ele>251.148</ele>
        <time>2019-06-15T14:24:18Z</time>
      </trkpt>
      <trkpt lat="43.306338" lon="-2.041109">
        <ele>251.267</ele>
        <time>2019-06-15T14:24:19Z</time>
      </trkpt>
      <trkpt lat="43.306307" lon="-2.041272">
        <ele>251.136</ele>
        <time>2019-06-15T14:24:20Z</time>
      </trkpt>
      <trkpt lat="43.306275" lon="-2.041433">
        <ele>251.077</ele>
        <time>2019-06-15T14:24:21Z</time>
      </trkpt>
      <trkpt lat="43.306241" lon="-2.041611">
        <ele>251.046</ele>
        <time>2019-06-15T14:24:22Z</time>
      </trkpt>
      <trkpt lat="43.306206" lon="-2.041806">
        <ele>251.060</ele>
        <time>2019-06-15T14:24:23Z</time>
      </trkpt>
      <trkpt lat="43.306171" lon="-2.041991">
        <ele>251.093</ele>
        <time>2019-06-15T14:24:24Z</time>
      </trkpt>
      <trkpt lat="43.306132" lon="-2.042179">
        <ele>250.965</ele>
        <time>2019-06-15T14:24:25Z</time>
      </trkpt>
      <trkpt lat="43.306092" lon="-2.042380">
        <ele>250.821</ele>
        <time>2019-06-15T14:24:26Z</time>
      </trkpt>
      <trkpt lat="43.306059" lon="-2.042560">
        <ele>250.308</ele>
        <time>2019-06-15T14:24:27Z</time>
      </trkpt>
      <trkpt lat="43.306026" lon="-2.042745">
        <ele>249.782</ele>
        <time>2019-06-15T14:24:28Z</time>
      </trkpt>
      <trkpt lat="43.305995" lon="-2.042929">
        <ele>248.996</ele>
        <time>2019-06-15T14:24:29Z</time>
      </trkpt>
      <trkpt lat="43.305955" lon="-2.043106">
        <ele>248.545</ele>
        <time>2019-06-15T14:24:30Z</time>
      </trkpt>
      <trkpt lat="43.305915" lon="-2.043297">
        <ele>248.454</ele>
        <time>2019-06-15T14:24:31Z</time>
      </trkpt>
      <trkpt lat="43.305874" lon="-2.043483">
        <ele>248.533</ele>
        <time>2019-06-15T14:24:32Z</time>
      </trkpt>
      <trkpt lat="43.305838" lon="-2.043667">
        <ele>248.974</ele>
        <time>2019-06-15T14:24:33Z</time>
      </trkpt>
      <trkpt lat="43.305805" lon="-2.043850">
        <ele>248.933</ele>
        <time>2019-06-15T14:24:34Z</time>
      </trkpt>
      <trkpt lat="43.305763" lon="-2.044042">
        <ele>248.777</ele>
        <time>2019-06-15T14:24:35Z</time>
      </trkpt>
      <trkpt lat="43.305733" lon="-2.044226">
        <ele>248.592</ele>
        <time>2019-06-15T14:24:36Z</time>
      </trkpt>
      <trkpt lat="43.305689" lon="-2.044415">
        <ele>248.173</ele>
        <time>2019-06-15T14:24:37Z</time>
      </trkpt>
      <trkpt lat="43.305658" lon="-2.044583">
        <ele>247.520</ele>
        <time>2019-06-15T14:24:38Z</time>
      </trkpt>
      <trkpt lat="43.305633" lon="-2.044732">
        <ele>247.008</ele>
        <time>2019-06-15T14:24:39Z</time>
      </trkpt>
      <trkpt lat="43.305603" lon="-2.044889">
        <ele>247.542</ele>
        <time>2019-06-15T14:24:40Z</time>
      </trkpt>
      <trkpt lat="43.305568" lon="-2.045044">
        <ele>248.056</ele>
        <time>2019-06-15T14:24:41Z</time>
      </trkpt>
      <trkpt lat="43.305531" lon="-2.045190">
        <ele>247.955</ele>
        <time>2019-06-15T14:24:42Z</time>
      </trkpt>
      <trkpt lat="43.305500" lon="-2.045310">
        <ele>247.844</ele>
        <time>2019-06-15T14:24:43Z</time>
      </trkpt>
      <trkpt lat="43.305460" lon="-2.045404">
        <ele>247.863</ele>
        <time>2019-06-15T14:24:44Z</time>
      </trkpt>
      <trkpt lat="43.305434" lon="-2.045485">
        <ele>247.974</ele>
        <time>2019-06-15T14:24:45Z</time>
      </trkpt>
      <trkpt lat="43.305364" lon="-2.045541">
        <ele>248.043</ele>
        <time>2019-06-15T14:24:46Z</time>
      </trkpt>
      <trkpt lat="43.305301" lon="-2.045603">
        <ele>248.217</ele>
        <time>2019-06-15T14:24:47Z</time>
      </trkpt>
      <trkpt lat="43.305223" lon="-2.045674">
        <ele>248.447</ele>
        <time>2019-06-15T14:24:48Z</time>
      </trkpt>
      <trkpt lat="43.305144" lon="-2.045741">
        <ele>248.729</ele>
        <time>2019-06-15T14:24:49Z</time>
      </trkpt>
      <trkpt lat="43.305071" lon="-2.045806">
        <ele>248.921</ele>
        <time>2019-06-15T14:24:50Z</time>
      </trkpt>
      <trkpt lat="43.305009" lon="-2.045864">
        <ele>249.208</ele>
        <time>2019-06-15T14:24:51Z</time>
      </trkpt>
      <trkpt lat="43.304951" lon="-2.045912">
        <ele>249.687</ele>
        <time>2019-06-15T14:24:52Z</time>
      </trkpt>
      <trkpt lat="43.304906" lon="-2.045977">
        <ele>250.091</ele>
        <time>2019-06-15T14:24:53Z</time>
      </trkpt>
      <trkpt lat="43.304857" lon="-2.046061">
        <ele>250.650</ele>
        <time>2019-06-15T14:24:54Z</time>
      </trkpt>
      <trkpt lat="43.304802" lon="-2.046145">
        <ele>251.129</ele>
        <time>2019-06-15T14:24:55Z</time>
      </trkpt>
      <trkpt lat="43.304733" lon="-2.046261">
        <ele>251.578</ele>
        <time>2019-06-15T14:24:56Z</time>
      </trkpt>
      <trkpt lat="43.304677" lon="-2.046366">
        <ele>251.679</ele>
        <time>2019-06-15T14:24:57Z</time>
      </trkpt>
      <trkpt lat="43.304617" lon="-2.046477">
        <ele>251.718</ele>
        <time>2019-06-15T14:24:58Z</time>
      </trkpt>
      <trkpt lat="43.304551" lon="-2.046607">
        <ele>252.072</ele>
        <time>2019-06-15T14:24:59Z</time>
      </trkpt>
      <trkpt lat="43.304479" lon="-2.046746">
        <ele>252.475</ele>
        <time>2019-06-15T14:25:00Z</time>
      </trkpt>
      <trkpt lat="43.304407" lon="-2.046877">
        <ele>252.628</ele>
        <time>2019-06-15T14:25:01Z</time>
      </trkpt>
      <trkpt lat="43.304339" lon="-2.047005">
        <ele>252.820</ele>
        <time>2019-06-15T14:25:02Z</time>
      </trkpt>
      <trkpt lat="43.304264" lon="-2.047146">
        <ele>253.108</ele>
        <time>2019-06-15T14:25:03Z</time>
      </trkpt>
      <trkpt lat="43.304195" lon="-2.047280">
        <ele>253.550</ele>
        <time>2019-06-15T14:25:04Z</time>
      </trkpt>
      <trkpt lat="43.304143" lon="-2.047379">
        <ele>254.054</ele>
        <time>2019-06-15T14:25:05Z</time>
      </trkpt>
      <trkpt lat="43.304082" lon="-2.047514">
        <ele>254.463</ele>
        <time>2019-06-15T14:25:06Z</time>
      </trkpt>
      <trkpt lat="43.304030" lon="-2.047655">
        <ele>254.092</ele>
        <time>2019-06-15T14:25:07Z</time>
      </trkpt>
      <trkpt lat="43.303970" lon="-2.047827">
        <ele>253.611</ele>
        <time>2019-06-15T14:25:08Z</time>
      </trkpt>
      <trkpt lat="43.303910" lon="-2.048003">
        <ele>253.262</ele>
        <time>2019-06-15T14:25:09Z</time>
      </trkpt>
      <trkpt lat="43.303851" lon="-2.048183">
        <ele>252.351</ele>
        <time>2019-06-15T14:25:10Z</time>
      </trkpt>
      <trkpt lat="43.303799" lon="-2.048360">
        <ele>251.665</ele>
        <time>2019-06-15T14:25:11Z</time>
      </trkpt>
      <trkpt lat="43.303736" lon="-2.048541">
        <ele>252.688</ele>
        <time>2019-06-15T14:25:12Z</time>
      </trkpt>
      <trkpt lat="43.303673" lon="-2.048709">
        <ele>253.624</ele>
        <time>2019-06-15T14:25:13Z</time>
      </trkpt>
      <trkpt lat="43.303603" lon="-2.048838">
        <ele>254.326</ele>
        <time>2019-06-15T14:25:14Z</time>
      </trkpt>
      <trkpt lat="43.303528" lon="-2.048966">
        <ele>255.308</ele>
        <time>2019-06-15T14:25:15Z</time>
      </trkpt>
      <trkpt lat="43.303446" lon="-2.049072">
        <ele>256.341</ele>
        <time>2019-06-15T14:25:16Z</time>
      </trkpt>
      <trkpt lat="43.303342" lon="-2.049152">
        <ele>256.835</ele>
        <time>2019-06-15T14:25:17Z</time>
      </trkpt>
      <trkpt lat="43.303243" lon="-2.049234">
        <ele>258.424</ele>
        <time>2019-06-15T14:25:18Z</time>
      </trkpt>
      <trkpt lat="43.303154" lon="-2.049302">
        <ele>259.333</ele>
        <time>2019-06-15T14:25:19Z</time>
      </trkpt>
      <trkpt lat="43.303073" lon="-2.049370">
        <ele>259.992</ele>
        <time>2019-06-15T14:25:20Z</time>
      </trkpt>
      <trkpt lat="43.303000" lon="-2.049446">
        <ele>260.453</ele>
        <time>2019-06-15T14:25:21Z</time>
      </trkpt>
      <trkpt lat="43.302959" lon="-2.049535">
        <ele>261.592</ele>
        <time>2019-06-15T14:25:22Z</time>
      </trkpt>
      <trkpt lat="43.302926" lon="-2.049650">
        <ele>263.036</ele>
        <time>2019-06-15T14:25:23Z</time>
      </trkpt>
      <trkpt lat="43.302908" lon="-2.049760">
        <ele>264.259</ele>
        <time>2019-06-15T14:25:24Z</time>
      </trkpt>
      <trkpt lat="43.302912" lon="-2.049886">
        <ele>265.403</ele>
        <time>2019-06-15T14:25:25Z</time>
      </trkpt>
      <trkpt lat="43.302901" lon="-2.050041">
        <ele>266.423</ele>
        <time>2019-06-15T14:25:26Z</time>
      </trkpt>
      <trkpt lat="43.302901" lon="-2.050193">
        <ele>267.408</ele>
        <time>2019-06-15T14:25:27Z</time>
      </trkpt>
      <trkpt lat="43.302885" lon="-2.050356">
        <ele>267.928</ele>
        <time>2019-06-15T14:25:28Z</time>
      </trkpt>
      <trkpt lat="43.302862" lon="-2.050523">
        <ele>267.982</ele>
        <time>2019-06-15T14:25:29Z</time>
      </trkpt>
      <trkpt lat="43.302828" lon="-2.050678">
        <ele>267.411</ele>
        <time>2019-06-15T14:25:30Z</time>
      </trkpt>
      <trkpt lat="43.302784" lon="-2.050832">
        <ele>266.320</ele>
        <time>2019-06-15T14:25:31Z</time>
      </trkpt>
      <trkpt lat="43.302724" lon="-2.050991">
        <ele>266.569</ele>
        <time>2019-06-15T14:25:32Z</time>
      </trkpt>
      <trkpt lat="43.302663" lon="-2.051135">
        <ele>267.080</ele>
        <time>2019-06-15T14:25:33Z</time>
      </trkpt>
      <trkpt lat="43.302601" lon="-2.051281">
        <ele>267.789</ele>
        <time>2019-06-15T14:25:34Z</time>
      </trkpt>
      <trkpt lat="43.302539" lon="-2.051415">
        <ele>268.163</ele>
        <time>2019-06-15T14:25:35Z</time>
      </trkpt>
      <trkpt lat="43.302479" lon="-2.051553">
        <ele>268.977</ele>
        <time>2019-06-15T14:25:36Z</time>
      </trkpt>
      <trkpt lat="43.302426" lon="-2.051695">
        <ele>270.661</ele>
        <time>2019-06-15T14:25:37Z</time>
      </trkpt>
      <trkpt lat="43.302377" lon="-2.051826">
        <ele>271.527</ele>
        <time>2019-06-15T14:25:38Z</time>
      </trkpt>
      <trkpt lat="43.302322" lon="-2.051968">
        <ele>272.008</ele>
        <time>2019-06-15T14:25:39Z</time>
      </trkpt>
      <trkpt lat="43.302263" lon="-2.052132">
        <ele>270.990</ele>
        <time>2019-06-15T14:25:40Z</time>
      </trkpt>
      <trkpt lat="43.302208" lon="-2.052275">
        <ele>270.254</ele>
        <time>2019-06-15T14:25:41Z</time>
      </trkpt>
      <trkpt lat="43.302143" lon="-2.052425">
        <ele>270.863</ele>
        <time>2019-06-15T14:25:42Z</time>
      </trkpt>
      <trkpt lat="43.302076" lon="-2.052581">
        <ele>270.712</ele>
        <time>2019-06-15T14:25:43Z</time>
      </trkpt>
      <trkpt lat="43.302023" lon="-2.052748">
        <ele>270.191</ele>
        <time>2019-06-15T14:25:44Z</time>
      </trkpt>
      <trkpt lat="43.301966" lon="-2.052942">
        <ele>270.062</ele>
        <time>2019-06-15T14:25:45Z</time>
      </trkpt>
      <trkpt lat="43.301918" lon="-2.053145">
        <ele>270.741</ele>
        <time>2019-06-15T14:25:46Z</time>
      </trkpt>
      <trkpt lat="43.301868" lon="-2.053336">
        <ele>271.915</ele>
        <time>2019-06-15T14:25:47Z</time>
      </trkpt>
      <trkpt lat="43.301814" lon="-2.053528">
        <ele>273.078</ele>
        <time>2019-06-15T14:25:48Z</time>
      </trkpt>
      <trkpt lat="43.301767" lon="-2.053711">
        <ele>273.733</ele>
        <time>2019-06-15T14:25:49Z</time>
      </trkpt>
      <trkpt lat="43.301720" lon="-2.053898">
        <ele>274.426</ele>
        <time>2019-06-15T14:25:50Z</time>
      </trkpt>
      <trkpt lat="43.301680" lon="-2.054074">
        <ele>274.908</ele>
        <time>2019-06-15T14:25:51Z</time>
      </trkpt>
      <trkpt lat="43.301642" lon="-2.054228">
        <ele>275.240</ele>
        <time>2019-06-15T14:25:52Z</time>
      </trkpt>
      <trkpt lat="43.301606" lon="-2.054385">
        <ele>276.424</ele>
        <time>2019-06-15T14:25:53Z</time>
      </trkpt>
      <trkpt lat="43.301565" lon="-2.054527">
        <ele>277.833</ele>
        <time>2019-06-15T14:25:54Z</time>
      </trkpt>
      <trkpt lat="43.301537" lon="-2.054651">
        <ele>278.622</ele>
        <time>2019-06-15T14:25:55Z</time>
      </trkpt>
      <trkpt lat="43.301494" lon="-2.054793">
        <ele>279.411</ele>
        <time>2019-06-15T14:25:56Z</time>
      </trkpt>
      <trkpt lat="43.301408" lon="-2.054929">
        <ele>280.192</ele>
        <time>2019-06-15T14:25:57Z</time>
      </trkpt>
      <trkpt lat="43.301337" lon="-2.055047">
        <ele>280.461</ele>
        <time>2019-06-15T14:25:58Z</time>
      </trkpt>
      <trkpt lat="43.301228" lon="-2.055160">
        <ele>281.255</ele>
        <time>2019-06-15T14:25:59Z</time>
      </trkpt>
      <trkpt lat="43.301130" lon="-2.055238">
        <ele>281.911</ele>
        <time>2019-06-15T14:26:00Z</time>
      </trkpt>
      <trkpt lat="43.301015" lon="-2.055341">
        <ele>281.921</ele>
        <time>2019-06-15T14:26:01Z</time>
      </trkpt>
      <trkpt lat="43.300899" lon="-2.055431">
        <ele>282.303</ele>
        <time>2019-06-15T14:26:02Z</time>
      </trkpt>
      <trkpt lat="43.300779" lon="-2.055512">
        <ele>283.108</ele>
        <time>2019-06-15T14:26:03Z</time>
      </trkpt>
      <trkpt lat="43.300665" lon="-2.055586">
        <ele>284.484</ele>
        <time>2019-06-15T14:26:04Z</time>
      </trkpt>
      <trkpt lat="43.300578" lon="-2.055641">
        <ele>285.738</ele>
        <time>2019-06-15T14:26:05Z</time>
      </trkpt>
      <trkpt lat="43.300477" lon="-2.055727">
        <ele>286.627</ele>
        <time>2019-06-15T14:26:06Z</time>
      </trkpt>
      <trkpt lat="43.300394" lon="-2.055817">
        <ele>287.836</ele>
        <time>2019-06-15T14:26:07Z</time>
      </trkpt>
      <trkpt lat="43.300318" lon="-2.055904">
        <ele>288.995</ele>
        <time>2019-06-15T14:26:08Z</time>
      </trkpt>
      <trkpt lat="43.300261" lon="-2.055999">
        <ele>290.226</ele>
        <time>2019-06-15T14:26:09Z</time>
      </trkpt>
      <trkpt lat="43.300219" lon="-2.056142">
        <ele>291.595</ele>
        <time>2019-06-15T14:26:10Z</time>
      </trkpt>
      <trkpt lat="43.300185" lon="-2.056285">
        <ele>292.519</ele>
        <time>2019-06-15T14:26:11Z</time>
      </trkpt>
      <trkpt lat="43.300156" lon="-2.056426">
        <ele>293.555</ele>
        <time>2019-06-15T14:26:12Z</time>
      </trkpt>
      <trkpt lat="43.300139" lon="-2.056586">
        <ele>294.107</ele>
        <time>2019-06-15T14:26:13Z</time>
      </trkpt>
      <trkpt lat="43.300129" lon="-2.056744">
        <ele>294.817</ele>
        <time>2019-06-15T14:26:14Z</time>
      </trkpt>
      <trkpt lat="43.300116" lon="-2.056906">
        <ele>295.508</ele>
        <time>2019-06-15T14:26:15Z</time>
      </trkpt>
      <trkpt lat="43.300114" lon="-2.057069">
        <ele>296.598</ele>
        <time>2019-06-15T14:26:16Z</time>
      </trkpt>
      <trkpt lat="43.300113" lon="-2.057232">
        <ele>297.742</ele>
        <time>2019-06-15T14:26:17Z</time>
      </trkpt>
      <trkpt lat="43.300119" lon="-2.057386">
        <ele>298.811</ele>
        <time>2019-06-15T14:26:18Z</time>
      </trkpt>
      <trkpt lat="43.300124" lon="-2.057525">
        <ele>299.840</ele>
        <time>2019-06-15T14:26:19Z</time>
      </trkpt>
      <trkpt lat="43.300133" lon="-2.057684">
        <ele>301.269</ele>
        <time>2019-06-15T14:26:20Z</time>
      </trkpt>
      <trkpt lat="43.300146" lon="-2.057840">
        <ele>302.540</ele>
        <time>2019-06-15T14:26:21Z</time>
      </trkpt>
      <trkpt lat="43.300168" lon="-2.057993">
        <ele>304.119</ele>
        <time>2019-06-15T14:26:22Z</time>
      </trkpt>
      <trkpt lat="43.300178" lon="-2.058142">
        <ele>305.283</ele>
        <time>2019-06-15T14:26:23Z</time>
      </trkpt>
      <trkpt lat="43.300203" lon="-2.058269">
        <ele>306.723</ele>
        <time>2019-06-15T14:26:24Z</time>
      </trkpt>
      <trkpt lat="43.300227" lon="-2.058415">
        <ele>308.583</ele>
        <time>2019-06-15T14:26:25Z</time>
      </trkpt>
      <trkpt lat="43.300240" lon="-2.058563">
        <ele>310.011</ele>
        <time>2019-06-15T14:26:26Z</time>
      </trkpt>
      <trkpt lat="43.300239" lon="-2.058716">
        <ele>311.408</ele>
        <time>2019-06-15T14:26:27Z</time>
      </trkpt>
      <trkpt lat="43.300221" lon="-2.058868">
        <ele>312.175</ele>
        <time>2019-06-15T14:26:28Z</time>
      </trkpt>
      <trkpt lat="43.300183" lon="-2.059004">
        <ele>312.129</ele>
        <time>2019-06-15T14:26:29Z</time>
      </trkpt>
      <trkpt lat="43.300142" lon="-2.059149">
        <ele>312.498</ele>
        <time>2019-06-15T14:26:30Z</time>
      </trkpt>
      <trkpt lat="43.300101" lon="-2.059292">
        <ele>313.127</ele>
        <time>2019-06-15T14:26:31Z</time>
      </trkpt>
      <trkpt lat="43.300049" lon="-2.059423">
        <ele>313.866</ele>
        <time>2019-06-15T14:26:32Z</time>
      </trkpt>
      <trkpt lat="43.299994" lon="-2.059574">
        <ele>314.397</ele>
        <time>2019-06-15T14:26:33Z</time>
      </trkpt>
      <trkpt lat="43.299951" lon="-2.059725">
        <ele>315.336</ele>
        <time>2019-06-15T14:26:34Z</time>
      </trkpt>
      <trkpt lat="43.299924" lon="-2.059897">
        <ele>316.310</ele>
        <time>2019-06-15T14:26:35Z</time>
      </trkpt>
      <trkpt lat="43.299905" lon="-2.060077">
        <ele>317.545</ele>
        <time>2019-06-15T14:26:36Z</time>
      </trkpt>
      <trkpt lat="43.299897" lon="-2.060261">
        <ele>318.847</ele>
        <time>2019-06-15T14:26:37Z</time>
      </trkpt>
      <trkpt lat="43.299891" lon="-2.060428">
        <ele>319.011</ele>
        <time>2019-06-15T14:26:38Z</time>
      </trkpt>
      <trkpt lat="43.299879" lon="-2.060597">
        <ele>319.208</ele>
        <time>2019-06-15T14:26:39Z</time>
      </trkpt>
      <trkpt lat="43.299872" lon="-2.060766">
        <ele>319.447</ele>
        <time>2019-06-15T14:26:40Z</time>
      </trkpt>
      <trkpt lat="43.299866" lon="-2.060931">
        <ele>319.361</ele>
        <time>2019-06-15T14:26:41Z</time>
      </trkpt>
      <trkpt lat="43.299851" lon="-2.061102">
        <ele>319.060</ele>
        <time>2019-06-15T14:26:42Z</time>
      </trkpt>
      <trkpt lat="43.299822" lon="-2.061272">
        <ele>319.479</ele>
        <time>2019-06-15T14:26:43Z</time>
      </trkpt>
      <trkpt lat="43.299795" lon="-2.061456">
        <ele>320.018</ele>
        <time>2019-06-15T14:26:44Z</time>
      </trkpt>
      <trkpt lat="43.299757" lon="-2.061633">
        <ele>320.829</ele>
        <time>2019-06-15T14:26:45Z</time>
      </trkpt>
      <trkpt lat="43.299718" lon="-2.061791">
        <ele>321.928</ele>
        <time>2019-06-15T14:26:46Z</time>
      </trkpt>
      <trkpt lat="43.299673" lon="-2.061937">
        <ele>322.892</ele>
        <time>2019-06-15T14:26:47Z</time>
      </trkpt>
      <trkpt lat="43.299625" lon="-2.062078">
        <ele>323.912</ele>
        <time>2019-06-15T14:26:48Z</time>
      </trkpt>
      <trkpt lat="43.299580" lon="-2.062208">
        <ele>324.832</ele>
        <time>2019-06-15T14:26:49Z</time>
      </trkpt>
      <trkpt lat="43.299532" lon="-2.062336">
        <ele>326.105</ele>
        <time>2019-06-15T14:26:50Z</time>
      </trkpt>
      <trkpt lat="43.299476" lon="-2.062460">
        <ele>327.608</ele>
        <time>2019-06-15T14:26:51Z</time>
      </trkpt>
      <trkpt lat="43.299436" lon="-2.062576">
        <ele>329.264</ele>
        <time>2019-06-15T14:26:52Z</time>
      </trkpt>
      <trkpt lat="43.299396" lon="-2.062698">
        <ele>330.728</ele>
        <time>2019-06-15T14:26:53Z</time>
      </trkpt>
      <trkpt lat="43.299358" lon="-2.062800">
        <ele>331.757</ele>
        <time>2019-06-15T14:26:54Z</time>
      </trkpt>
      <trkpt lat="43.299320" lon="-2.062894">
        <ele>332.296</ele>
        <time>2019-06-15T14:26:55Z</time>
      </trkpt>
      <trkpt lat="43.299291" lon="-2.063007">
        <ele>333.255</ele>
        <time>2019-06-15T14:26:56Z</time>
      </trkpt>
      <trkpt lat="43.299272" lon="-2.063123">
        <ele>334.076</ele>
        <time>2019-06-15T14:26:57Z</time>
      </trkpt>
      <trkpt lat="43.299275" lon="-2.063235">
        <ele>334.785</ele>
        <time>2019-06-15T14:26:58Z</time>
      </trkpt>
      <trkpt lat="43.299277" lon="-2.063357">
        <ele>335.479</ele>
        <time>2019-06-15T14:26:59Z</time>
      </trkpt>
      <trkpt lat="43.299282" lon="-2.063447">
        <ele>335.547</ele>
        <time>2019-06-15T14:27:00Z</time>
      </trkpt>
      <trkpt lat="43.299298" lon="-2.063535">
        <ele>335.529</ele>
        <time>2019-06-15T14:27:01Z</time>
      </trkpt>
      <trkpt lat="43.299325" lon="-2.063626">
        <ele>335.521</ele>
        <time>2019-06-15T14:27:02Z</time>
      </trkpt>
      <trkpt lat="43.299346" lon="-2.063711">
        <ele>335.508</ele>
        <time>2019-06-15T14:27:03Z</time>
      </trkpt>
      <trkpt lat="43.299382" lon="-2.063776">
        <ele>335.447</ele>
        <time>2019-06-15T14:27:04Z</time>
      </trkpt>
      <trkpt lat="43.299414" lon="-2.063825">
        <ele>335.231</ele>
        <time>2019-06-15T14:27:05Z</time>
      </trkpt>
      <trkpt lat="43.299441" lon="-2.063895">
        <ele>335.060</ele>
        <time>2019-06-15T14:27:06Z</time>
      </trkpt>
      <trkpt lat="43.299450" lon="-2.063963">
        <ele>334.949</ele>
        <time>2019-06-15T14:27:07Z</time>
      </trkpt>
      <trkpt lat="43.299477" lon="-2.064034">
        <ele>334.418</ele>
        <time>2019-06-15T14:27:08Z</time>
      </trkpt>
      <trkpt lat="43.299496" lon="-2.064105">
        <ele>333.929</ele>
        <time>2019-06-15T14:27:09Z</time>
      </trkpt>
      <trkpt lat="43.299533" lon="-2.064157">
        <ele>333.138</ele>
        <time>2019-06-15T14:27:10Z</time>
      </trkpt>
      <trkpt lat="43.299558" lon="-2.064227">
        <ele>333.052</ele>
        <time>2019-06-15T14:27:11Z</time>
      </trkpt>
      <trkpt lat="43.299611" lon="-2.064352">
        <ele>332.724</ele>
        <time>2019-06-15T14:27:12Z</time>
      </trkpt>
      <trkpt lat="43.299664" lon="-2.064452">
        <ele>332.404</ele>
        <time>2019-06-15T14:27:13Z</time>
      </trkpt>
      <trkpt lat="43.299685" lon="-2.064547">
        <ele>333.214</ele>
        <time>2019-06-15T14:27:14Z</time>
      </trkpt>
      <trkpt lat="43.299722" lon="-2.064637">
        <ele>333.808</ele>
        <time>2019-06-15T14:27:15Z</time>
      </trkpt>
      <trkpt lat="43.299739" lon="-2.064718">
        <ele>334.455</ele>
        <time>2019-06-15T14:27:16Z</time>
      </trkpt>
      <trkpt lat="43.299767" lon="-2.064811">
        <ele>333.429</ele>
        <time>2019-06-15T14:27:17Z</time>
      </trkpt>
      <trkpt lat="43.299778" lon="-2.064895">
        <ele>332.928</ele>
        <time>2019-06-15T14:27:18Z</time>
      </trkpt>
      <trkpt lat="43.299788" lon="-2.064993">
        <ele>332.417</ele>
        <time>2019-06-15T14:27:19Z</time>
      </trkpt>
      <trkpt lat="43.299778" lon="-2.065078">
        <ele>332.266</ele>
        <time>2019-06-15T14:27:20Z</time>
      </trkpt>
      <trkpt lat="43.299775" lon="-2.065154">
        <ele>331.867</ele>
        <time>2019-06-15T14:27:21Z</time>
      </trkpt>
      <trkpt lat="43.299746" lon="-2.065250">
        <ele>332.326</ele>
        <time>2019-06-15T14:27:22Z</time>
      </trkpt>
      <trkpt lat="43.299706" lon="-2.065345">
        <ele>332.340</ele>
        <time>2019-06-15T14:27:23Z</time>
      </trkpt>
      <trkpt lat="43.299677" lon="-2.065441">
        <ele>331.592</ele>
        <time>2019-06-15T14:27:24Z</time>
      </trkpt>
      <trkpt lat="43.299637" lon="-2.065554">
        <ele>330.873</ele>
        <time>2019-06-15T14:27:25Z</time>
      </trkpt>
      <trkpt lat="43.299612" lon="-2.065655">
        <ele>330.220</ele>
        <time>2019-06-15T14:27:26Z</time>
      </trkpt>
      <trkpt lat="43.299599" lon="-2.065734">
        <ele>329.608</ele>
        <time>2019-06-15T14:27:27Z</time>
      </trkpt>
      <trkpt lat="43.299590" lon="-2.065807">
        <ele>329.132</ele>
        <time>2019-06-15T14:27:28Z</time>
      </trkpt>
      <trkpt lat="43.299590" lon="-2.065879">
        <ele>329.366</ele>
        <time>2019-06-15T14:27:29Z</time>
      </trkpt>
      <trkpt lat="43.299598" lon="-2.065949">
        <ele>329.925</ele>
        <time>2019-06-15T14:27:30Z</time>
      </trkpt>
      <trkpt lat="43.299613" lon="-2.066029">
        <ele>330.644</ele>
        <time>2019-06-15T14:27:31Z</time>
      </trkpt>
      <trkpt lat="43.299660" lon="-2.066101">
        <ele>330.493</ele>
        <time>2019-06-15T14:27:32Z</time>
      </trkpt>
      <trkpt lat="43.299728" lon="-2.066160">
        <ele>330.374</ele>
        <time>2019-06-15T14:27:33Z</time>
      </trkpt>
      <trkpt lat="43.299791" lon="-2.066199">
        <ele>330.733</ele>
        <time>2019-06-15T14:27:34Z</time>
      </trkpt>
      <trkpt lat="43.299849" lon="-2.066237">
        <ele>331.157</ele>
        <time>2019-06-15T14:27:35Z</time>
      </trkpt>
      <trkpt lat="43.299906" lon="-2.066265">
        <ele>331.173</ele>
        <time>2019-06-15T14:27:36Z</time>
      </trkpt>
      <trkpt lat="43.299951" lon="-2.066304">
        <ele>331.585</ele>
        <time>2019-06-15T14:27:37Z</time>
      </trkpt>
      <trkpt lat="43.300003" lon="-2.066367">
        <ele>332.413</ele>
        <time>2019-06-15T14:27:38Z</time>
      </trkpt>
      <trkpt lat="43.300063" lon="-2.066481">
        <ele>332.708</ele>
        <time>2019-06-15T14:27:40Z</time>
      </trkpt>
      <trkpt lat="43.300094" lon="-2.066555">
        <ele>333.070</ele>
        <time>2019-06-15T14:27:41Z</time>
      </trkpt>
      <trkpt lat="43.300119" lon="-2.066646">
        <ele>333.624</ele>
        <time>2019-06-15T14:27:42Z</time>
      </trkpt>
      <trkpt lat="43.300135" lon="-2.066740">
        <ele>334.073</ele>
        <time>2019-06-15T14:27:43Z</time>
      </trkpt>
      <trkpt lat="43.300142" lon="-2.066836">
        <ele>334.422</ele>
        <time>2019-06-15T14:27:44Z</time>
      </trkpt>
      <trkpt lat="43.300151" lon="-2.066944">
        <ele>334.721</ele>
        <time>2019-06-15T14:27:45Z</time>
      </trkpt>
      <trkpt lat="43.300137" lon="-2.067064">
        <ele>335.562</ele>
        <time>2019-06-15T14:27:46Z</time>
      </trkpt>
      <trkpt lat="43.300115" lon="-2.067172">
        <ele>336.381</ele>
        <time>2019-06-15T14:27:47Z</time>
      </trkpt>
      <trkpt lat="43.300088" lon="-2.067289">
        <ele>336.915</ele>
        <time>2019-06-15T14:27:48Z</time>
      </trkpt>
      <trkpt lat="43.300049" lon="-2.067399">
        <ele>337.318</ele>
        <time>2019-06-15T14:27:49Z</time>
      </trkpt>
      <trkpt lat="43.300004" lon="-2.067507">
        <ele>337.998</ele>
        <time>2019-06-15T14:27:50Z</time>
      </trkpt>
      <trkpt lat="43.299951" lon="-2.067614">
        <ele>338.417</ele>
        <time>2019-06-15T14:27:51Z</time>
      </trkpt>
      <trkpt lat="43.299889" lon="-2.067707">
        <ele>339.308</ele>
        <time>2019-06-15T14:27:52Z</time>
      </trkpt>
      <trkpt lat="43.299818" lon="-2.067810">
        <ele>340.234</ele>
        <time>2019-06-15T14:27:53Z</time>
      </trkpt>
      <trkpt lat="43.299745" lon="-2.067911">
        <ele>341.018</ele>
        <time>2019-06-15T14:27:54Z</time>
      </trkpt>
      <trkpt lat="43.299679" lon="-2.068028">
        <ele>341.467</ele>
        <time>2019-06-15T14:27:55Z</time>
      </trkpt>
      <trkpt lat="43.299608" lon="-2.068167">
        <ele>341.346</ele>
        <time>2019-06-15T14:27:56Z</time>
      </trkpt>
      <trkpt lat="43.299544" lon="-2.068308">
        <ele>340.975</ele>
        <time>2019-06-15T14:27:57Z</time>
      </trkpt>
      <trkpt lat="43.299497" lon="-2.068453">
        <ele>340.336</ele>
        <time>2019-06-15T14:27:58Z</time>
      </trkpt>
      <trkpt lat="43.299459" lon="-2.068585">
        <ele>339.935</ele>
        <time>2019-06-15T14:27:59Z</time>
      </trkpt>
      <trkpt lat="43.299427" lon="-2.068726">
        <ele>340.559</ele>
        <time>2019-06-15T14:28:00Z</time>
      </trkpt>
      <trkpt lat="43.299415" lon="-2.068877">
        <ele>340.999</ele>
        <time>2019-06-15T14:28:01Z</time>
      </trkpt>
      <trkpt lat="43.299417" lon="-2.069037">
        <ele>341.507</ele>
        <time>2019-06-15T14:28:02Z</time>
      </trkpt>
      <trkpt lat="43.299410" lon="-2.069196">
        <ele>342.427</ele>
        <time>2019-06-15T14:28:03Z</time>
      </trkpt>
      <trkpt lat="43.299390" lon="-2.069344">
        <ele>343.508</ele>
        <time>2019-06-15T14:28:04Z</time>
      </trkpt>
      <trkpt lat="43.299353" lon="-2.069489">
        <ele>344.662</ele>
        <time>2019-06-15T14:28:05Z</time>
      </trkpt>
      <trkpt lat="43.299307" lon="-2.069621">
        <ele>344.996</ele>
        <time>2019-06-15T14:28:06Z</time>
      </trkpt>
      <trkpt lat="43.299253" lon="-2.069736">
        <ele>345.445</ele>
        <time>2019-06-15T14:28:07Z</time>
      </trkpt>
      <trkpt lat="43.299189" lon="-2.069852">
        <ele>346.034</ele>
        <time>2019-06-15T14:28:08Z</time>
      </trkpt>
      <trkpt lat="43.299121" lon="-2.069969">
        <ele>346.593</ele>
        <time>2019-06-15T14:28:09Z</time>
      </trkpt>
      <trkpt lat="43.299059" lon="-2.070067">
        <ele>346.924</ele>
        <time>2019-06-15T14:28:10Z</time>
      </trkpt>
      <trkpt lat="43.298988" lon="-2.070166">
        <ele>347.333</ele>
        <time>2019-06-15T14:28:11Z</time>
      </trkpt>
      <trkpt lat="43.298902" lon="-2.070260">
        <ele>348.057</ele>
        <time>2019-06-15T14:28:12Z</time>
      </trkpt>
      <trkpt lat="43.298798" lon="-2.070326">
        <ele>347.519</ele>
        <time>2019-06-15T14:28:13Z</time>
      </trkpt>
      <trkpt lat="43.298681" lon="-2.070385">
        <ele>346.809</ele>
        <time>2019-06-15T14:28:14Z</time>
      </trkpt>
      <trkpt lat="43.298549" lon="-2.070435">
        <ele>346.519</ele>
        <time>2019-06-15T14:28:15Z</time>
      </trkpt>
      <trkpt lat="43.298423" lon="-2.070487">
        <ele>346.108</ele>
        <time>2019-06-15T14:28:16Z</time>
      </trkpt>
      <trkpt lat="43.298299" lon="-2.070536">
        <ele>345.974</ele>
        <time>2019-06-15T14:28:17Z</time>
      </trkpt>
      <trkpt lat="43.298182" lon="-2.070600">
        <ele>346.168</ele>
        <time>2019-06-15T14:28:18Z</time>
      </trkpt>
      <trkpt lat="43.298093" lon="-2.070720">
        <ele>344.767</ele>
        <time>2019-06-15T14:28:19Z</time>
      </trkpt>
      <trkpt lat="43.297996" lon="-2.070841">
        <ele>344.546</ele>
        <time>2019-06-15T14:28:20Z</time>
      </trkpt>
      <trkpt lat="43.297941" lon="-2.070984">
        <ele>342.625</ele>
        <time>2019-06-15T14:28:21Z</time>
      </trkpt>
      <trkpt lat="43.297882" lon="-2.071147">
        <ele>341.386</ele>
        <time>2019-06-15T14:28:22Z</time>
      </trkpt>
      <trkpt lat="43.297838" lon="-2.071319">
        <ele>340.965</ele>
        <time>2019-06-15T14:28:23Z</time>
      </trkpt>
      <trkpt lat="43.297818" lon="-2.071493">
        <ele>340.579</ele>
        <time>2019-06-15T14:28:24Z</time>
      </trkpt>
      <trkpt lat="43.297806" lon="-2.071653">
        <ele>340.461</ele>
        <time>2019-06-15T14:28:25Z</time>
      </trkpt>
      <trkpt lat="43.297817" lon="-2.071801">
        <ele>340.421</ele>
        <time>2019-06-15T14:28:26Z</time>
      </trkpt>
      <trkpt lat="43.297826" lon="-2.071954">
        <ele>340.713</ele>
        <time>2019-06-15T14:28:27Z</time>
      </trkpt>
      <trkpt lat="43.297810" lon="-2.072115">
        <ele>341.108</ele>
        <time>2019-06-15T14:28:28Z</time>
      </trkpt>
      <trkpt lat="43.297795" lon="-2.072295">
        <ele>340.939</ele>
        <time>2019-06-15T14:28:29Z</time>
      </trkpt>
      <trkpt lat="43.297769" lon="-2.072473">
        <ele>340.523</ele>
        <time>2019-06-15T14:28:30Z</time>
      </trkpt>
      <trkpt lat="43.297720" lon="-2.072665">
        <ele>340.552</ele>
        <time>2019-06-15T14:28:31Z</time>
      </trkpt>
      <trkpt lat="43.297672" lon="-2.072858">
        <ele>340.321</ele>
        <time>2019-06-15T14:28:32Z</time>
      </trkpt>
      <trkpt lat="43.297631" lon="-2.073050">
        <ele>339.950</ele>
        <time>2019-06-15T14:28:33Z</time>
      </trkpt>
      <trkpt lat="43.297597" lon="-2.073230">
        <ele>339.821</ele>
        <time>2019-06-15T14:28:34Z</time>
      </trkpt>
      <trkpt lat="43.297571" lon="-2.073402">
        <ele>339.610</ele>
        <time>2019-06-15T14:28:35Z</time>
      </trkpt>
      <trkpt lat="43.297550" lon="-2.073563">
        <ele>339.514</ele>
        <time>2019-06-15T14:28:36Z</time>
      </trkpt>
      <trkpt lat="43.297540" lon="-2.073702">
        <ele>340.022</ele>
        <time>2019-06-15T14:28:37Z</time>
      </trkpt>
      <trkpt lat="43.297527" lon="-2.073837">
        <ele>341.362</ele>
        <time>2019-06-15T14:28:38Z</time>
      </trkpt>
      <trkpt lat="43.297543" lon="-2.073948">
        <ele>341.708</ele>
        <time>2019-06-15T14:28:39Z</time>
      </trkpt>
      <trkpt lat="43.297572" lon="-2.074053">
        <ele>342.308</ele>
        <time>2019-06-15T14:28:40Z</time>
      </trkpt>
      <trkpt lat="43.297614" lon="-2.074166">
        <ele>342.665</ele>
        <time>2019-06-15T14:28:41Z</time>
      </trkpt>
      <trkpt lat="43.297665" lon="-2.074288">
        <ele>343.189</ele>
        <time>2019-06-15T14:28:42Z</time>
      </trkpt>
      <trkpt lat="43.297689" lon="-2.074380">
        <ele>344.348</ele>
        <time>2019-06-15T14:28:43Z</time>
      </trkpt>
      <trkpt lat="43.297711" lon="-2.074490">
        <ele>345.347</ele>
        <time>2019-06-15T14:28:44Z</time>
      </trkpt>
      <trkpt lat="43.297726" lon="-2.074619">
        <ele>345.256</ele>
        <time>2019-06-15T14:28:45Z</time>
      </trkpt>
      <trkpt lat="43.297716" lon="-2.074744">
        <ele>345.787</ele>
        <time>2019-06-15T14:28:46Z</time>
      </trkpt>
      <trkpt lat="43.297695" lon="-2.074866">
        <ele>345.716</ele>
        <time>2019-06-15T14:28:47Z</time>
      </trkpt>
      <trkpt lat="43.297655" lon="-2.075007">
        <ele>346.080</ele>
        <time>2019-06-15T14:28:48Z</time>
      </trkpt>
      <trkpt lat="43.297609" lon="-2.075147">
        <ele>346.255</ele>
        <time>2019-06-15T14:28:49Z</time>
      </trkpt>
      <trkpt lat="43.297519" lon="-2.075266">
        <ele>347.607</ele>
        <time>2019-06-15T14:28:50Z</time>
      </trkpt>
      <trkpt lat="43.297429" lon="-2.075380">
        <ele>347.417</ele>
        <time>2019-06-15T14:28:51Z</time>
      </trkpt>
      <trkpt lat="43.297329" lon="-2.075490">
        <ele>347.308</ele>
        <time>2019-06-15T14:28:52Z</time>
      </trkpt>
      <trkpt lat="43.297211" lon="-2.075614">
        <ele>347.098</ele>
        <time>2019-06-15T14:28:53Z</time>
      </trkpt>
      <trkpt lat="43.297084" lon="-2.075715">
        <ele>346.432</ele>
        <time>2019-06-15T14:28:54Z</time>
      </trkpt>
      <trkpt lat="43.296957" lon="-2.075826">
        <ele>346.021</ele>
        <time>2019-06-15T14:28:55Z</time>
      </trkpt>
      <trkpt lat="43.296834" lon="-2.075941">
        <ele>346.150</ele>
        <time>2019-06-15T14:28:56Z</time>
      </trkpt>
      <trkpt lat="43.296716" lon="-2.076058">
        <ele>346.129</ele>
        <time>2019-06-15T14:28:57Z</time>
      </trkpt>
      <trkpt lat="43.296616" lon="-2.076199">
        <ele>345.940</ele>
        <time>2019-06-15T14:28:58Z</time>
      </trkpt>
      <trkpt lat="43.296527" lon="-2.076334">
        <ele>346.089</ele>
        <time>2019-06-15T14:28:59Z</time>
      </trkpt>
      <trkpt lat="43.296430" lon="-2.076484">
        <ele>346.173</ele>
        <time>2019-06-15T14:29:00Z</time>
      </trkpt>
      <trkpt lat="43.296330" lon="-2.076625">
        <ele>345.848</ele>
        <time>2019-06-15T14:29:01Z</time>
      </trkpt>
      <trkpt lat="43.296215" lon="-2.076763">
        <ele>345.461</ele>
        <time>2019-06-15T14:29:02Z</time>
      </trkpt>
      <trkpt lat="43.296108" lon="-2.076857">
        <ele>345.617</ele>
        <time>2019-06-15T14:29:03Z</time>
      </trkpt>
      <trkpt lat="43.295997" lon="-2.076964">
        <ele>345.808</ele>
        <time>2019-06-15T14:29:04Z</time>
      </trkpt>
      <trkpt lat="43.295899" lon="-2.077083">
        <ele>345.857</ele>
        <time>2019-06-15T14:29:05Z</time>
      </trkpt>
      <trkpt lat="43.295819" lon="-2.077201">
        <ele>345.741</ele>
        <time>2019-06-15T14:29:06Z</time>
      </trkpt>
      <trkpt lat="43.295772" lon="-2.077363">
        <ele>345.180</ele>
        <time>2019-06-15T14:29:07Z</time>
      </trkpt>
      <trkpt lat="43.295737" lon="-2.077513">
        <ele>344.749</ele>
        <time>2019-06-15T14:29:08Z</time>
      </trkpt>
      <trkpt lat="43.295693" lon="-2.077671">
        <ele>345.168</ele>
        <time>2019-06-15T14:29:09Z</time>
      </trkpt>
      <trkpt lat="43.295650" lon="-2.077822">
        <ele>345.299</ele>
        <time>2019-06-15T14:29:10Z</time>
      </trkpt>
      <trkpt lat="43.295601" lon="-2.077998">
        <ele>345.178</ele>
        <time>2019-06-15T14:29:11Z</time>
      </trkpt>
      <trkpt lat="43.295557" lon="-2.078158">
        <ele>345.212</ele>
        <time>2019-06-15T14:29:12Z</time>
      </trkpt>
      <trkpt lat="43.295509" lon="-2.078315">
        <ele>345.382</ele>
        <time>2019-06-15T14:29:13Z</time>
      </trkpt>
      <trkpt lat="43.295458" lon="-2.078471">
        <ele>345.843</ele>
        <time>2019-06-15T14:29:14Z</time>
      </trkpt>
      <trkpt lat="43.295408" lon="-2.078611">
        <ele>346.217</ele>
        <time>2019-06-15T14:29:15Z</time>
      </trkpt>
      <trkpt lat="43.295362" lon="-2.078737">
        <ele>346.108</ele>
        <time>2019-06-15T14:29:16Z</time>
      </trkpt>
      <trkpt lat="43.295325" lon="-2.078875">
        <ele>345.991</ele>
        <time>2019-06-15T14:29:17Z</time>
      </trkpt>
      <trkpt lat="43.295299" lon="-2.079036">
        <ele>345.455</ele>
        <time>2019-06-15T14:29:18Z</time>
      </trkpt>
      <trkpt lat="43.295294" lon="-2.079197">
        <ele>344.474</ele>
        <time>2019-06-15T14:29:19Z</time>
      </trkpt>
      <trkpt lat="43.295305" lon="-2.079382">
        <ele>343.443</ele>
        <time>2019-06-15T14:29:20Z</time>
      </trkpt>
      <trkpt lat="43.295323" lon="-2.079568">
        <ele>342.942</ele>
        <time>2019-06-15T14:29:21Z</time>
      </trkpt>
      <trkpt lat="43.295350" lon="-2.079741">
        <ele>342.493</ele>
        <time>2019-06-15T14:29:22Z</time>
      </trkpt>
      <trkpt lat="43.295354" lon="-2.079934">
        <ele>342.582</ele>
        <time>2019-06-15T14:29:23Z</time>
      </trkpt>
      <trkpt lat="43.295341" lon="-2.080111">
        <ele>342.796</ele>
        <time>2019-06-15T14:29:24Z</time>
      </trkpt>
      <trkpt lat="43.295335" lon="-2.080294">
        <ele>342.697</ele>
        <time>2019-06-15T14:29:25Z</time>
      </trkpt>
      <trkpt lat="43.295324" lon="-2.080484">
        <ele>342.823</ele>
        <time>2019-06-15T14:29:26Z</time>
      </trkpt>
      <trkpt lat="43.295289" lon="-2.080657">
        <ele>343.425</ele>
        <time>2019-06-15T14:29:27Z</time>
      </trkpt>
      <trkpt lat="43.295264" lon="-2.080853">
        <ele>343.208</ele>
        <time>2019-06-15T14:29:28Z</time>
      </trkpt>
      <trkpt lat="43.295230" lon="-2.081037">
        <ele>343.432</ele>
        <time>2019-06-15T14:29:29Z</time>
      </trkpt>
      <trkpt lat="43.295205" lon="-2.081212">
        <ele>343.476</ele>
        <time>2019-06-15T14:29:30Z</time>
      </trkpt>
      <trkpt lat="43.295179" lon="-2.081417">
        <ele>343.545</ele>
        <time>2019-06-15T14:29:31Z</time>
      </trkpt>
      <trkpt lat="43.295157" lon="-2.081582">
        <ele>344.214</ele>
        <time>2019-06-15T14:29:32Z</time>
      </trkpt>
      <trkpt lat="43.295137" lon="-2.081755">
        <ele>345.113</ele>
        <time>2019-06-15T14:29:33Z</time>
      </trkpt>
      <trkpt lat="43.295125" lon="-2.081887">
        <ele>346.024</ele>
        <time>2019-06-15T14:29:34Z</time>
      </trkpt>
      <trkpt lat="43.295090" lon="-2.082006">
        <ele>345.953</ele>
        <time>2019-06-15T14:29:35Z</time>
      </trkpt>
      <trkpt lat="43.295073" lon="-2.082144">
        <ele>345.657</ele>
        <time>2019-06-15T14:29:36Z</time>
      </trkpt>
      <trkpt lat="43.295045" lon="-2.082319">
        <ele>344.992</ele>
        <time>2019-06-15T14:29:37Z</time>
      </trkpt>
      <trkpt lat="43.295033" lon="-2.082456">
        <ele>344.373</ele>
        <time>2019-06-15T14:29:38Z</time>
      </trkpt>
      <trkpt lat="43.295037" lon="-2.082611">
        <ele>344.020</ele>
        <time>2019-06-15T14:29:39Z</time>
      </trkpt>
      <trkpt lat="43.295037" lon="-2.082773">
        <ele>343.908</ele>
        <time>2019-06-15T14:29:40Z</time>
      </trkpt>
      <trkpt lat="43.295002" lon="-2.082960">
        <ele>344.622</ele>
        <time>2019-06-15T14:29:41Z</time>
      </trkpt>
      <trkpt lat="43.295004" lon="-2.083083">
        <ele>345.066</ele>
        <time>2019-06-15T14:29:42Z</time>
      </trkpt>
      <trkpt lat="43.295023" lon="-2.083217">
        <ele>344.835</ele>
        <time>2019-06-15T14:29:43Z</time>
      </trkpt>
      <trkpt lat="43.295036" lon="-2.083367">
        <ele>344.634</ele>
        <time>2019-06-15T14:29:44Z</time>
      </trkpt>
      <trkpt lat="43.295074" lon="-2.083526">
        <ele>344.263</ele>
        <time>2019-06-15T14:29:45Z</time>
      </trkpt>
      <trkpt lat="43.295091" lon="-2.083706">
        <ele>344.594</ele>
        <time>2019-06-15T14:29:46Z</time>
      </trkpt>
      <trkpt lat="43.295122" lon="-2.083861">
        <ele>344.753</ele>
        <time>2019-06-15T14:29:47Z</time>
      </trkpt>
      <trkpt lat="43.295152" lon="-2.084024">
        <ele>344.787</ele>
        <time>2019-06-15T14:29:48Z</time>
      </trkpt>
      <trkpt lat="43.295182" lon="-2.084177">
        <ele>344.525</ele>
        <time>2019-06-15T14:29:49Z</time>
      </trkpt>
      <trkpt lat="43.295212" lon="-2.084320">
        <ele>344.326</ele>
        <time>2019-06-15T14:29:50Z</time>
      </trkpt>
      <trkpt lat="43.295219" lon="-2.084467">
        <ele>344.708</ele>
        <time>2019-06-15T14:29:51Z</time>
      </trkpt>
      <trkpt lat="43.295222" lon="-2.084622">
        <ele>344.708</ele>
        <time>2019-06-15T14:29:52Z</time>
      </trkpt>
      <trkpt lat="43.295208" lon="-2.084781">
        <ele>345.055</ele>
        <time>2019-06-15T14:29:53Z</time>
      </trkpt>
      <trkpt lat="43.295197" lon="-2.084950">
        <ele>344.899</ele>
        <time>2019-06-15T14:29:54Z</time>
      </trkpt>
      <trkpt lat="43.295164" lon="-2.085109">
        <ele>344.598</ele>
        <time>2019-06-15T14:29:55Z</time>
      </trkpt>
      <trkpt lat="43.295131" lon="-2.085288">
        <ele>343.747</ele>
        <time>2019-06-15T14:29:56Z</time>
      </trkpt>
      <trkpt lat="43.295099" lon="-2.085461">
        <ele>343.516</ele>
        <time>2019-06-15T14:29:57Z</time>
      </trkpt>
      <trkpt lat="43.295069" lon="-2.085634">
        <ele>343.267</ele>
        <time>2019-06-15T14:29:58Z</time>
      </trkpt>
      <trkpt lat="43.295041" lon="-2.085782">
        <ele>343.096</ele>
        <time>2019-06-15T14:29:59Z</time>
      </trkpt>
      <trkpt lat="43.295001" lon="-2.085961">
        <ele>343.060</ele>
        <time>2019-06-15T14:30:00Z</time>
      </trkpt>
      <trkpt lat="43.294945" lon="-2.086148">
        <ele>342.875</ele>
        <time>2019-06-15T14:30:01Z</time>
      </trkpt>
      <trkpt lat="43.294881" lon="-2.086339">
        <ele>342.128</ele>
        <time>2019-06-15T14:30:02Z</time>
      </trkpt>
      <trkpt lat="43.294803" lon="-2.086534">
        <ele>341.520</ele>
        <time>2019-06-15T14:30:03Z</time>
      </trkpt>
      <trkpt lat="43.294732" lon="-2.086738">
        <ele>341.008</ele>
        <time>2019-06-15T14:30:04Z</time>
      </trkpt>
      <trkpt lat="43.294658" lon="-2.086928">
        <ele>340.390</ele>
        <time>2019-06-15T14:30:05Z</time>
      </trkpt>
      <trkpt lat="43.294585" lon="-2.087121">
        <ele>339.214</ele>
        <time>2019-06-15T14:30:06Z</time>
      </trkpt>
      <trkpt lat="43.294512" lon="-2.087309">
        <ele>338.643</ele>
        <time>2019-06-15T14:30:07Z</time>
      </trkpt>
      <trkpt lat="43.294449" lon="-2.087481">
        <ele>338.142</ele>
        <time>2019-06-15T14:30:08Z</time>
      </trkpt>
      <trkpt lat="43.294384" lon="-2.087657">
        <ele>336.921</ele>
        <time>2019-06-15T14:30:09Z</time>
      </trkpt>
      <trkpt lat="43.294329" lon="-2.087844">
        <ele>335.752</ele>
        <time>2019-06-15T14:30:10Z</time>
      </trkpt>
      <trkpt lat="43.294271" lon="-2.088016">
        <ele>335.421</ele>
        <time>2019-06-15T14:30:11Z</time>
      </trkpt>
      <trkpt lat="43.294223" lon="-2.088182">
        <ele>335.085</ele>
        <time>2019-06-15T14:30:12Z</time>
      </trkpt>
      <trkpt lat="43.294180" lon="-2.088338">
        <ele>334.745</ele>
        <time>2019-06-15T14:30:13Z</time>
      </trkpt>
      <trkpt lat="43.294118" lon="-2.088525">
        <ele>333.747</ele>
        <time>2019-06-15T14:30:14Z</time>
      </trkpt>
      <trkpt lat="43.294072" lon="-2.088709">
        <ele>333.211</ele>
        <time>2019-06-15T14:30:15Z</time>
      </trkpt>
      <trkpt lat="43.294026" lon="-2.088878">
        <ele>333.508</ele>
        <time>2019-06-15T14:30:16Z</time>
      </trkpt>
      <trkpt lat="43.293977" lon="-2.089040">
        <ele>334.027</ele>
        <time>2019-06-15T14:30:17Z</time>
      </trkpt>
      <trkpt lat="43.293938" lon="-2.089191">
        <ele>334.571</ele>
        <time>2019-06-15T14:30:18Z</time>
      </trkpt>
      <trkpt lat="43.293888" lon="-2.089352">
        <ele>335.010</ele>
        <time>2019-06-15T14:30:19Z</time>
      </trkpt>
      <trkpt lat="43.293846" lon="-2.089517">
        <ele>333.989</ele>
        <time>2019-06-15T14:30:20Z</time>
      </trkpt>
      <trkpt lat="43.293814" lon="-2.089675">
        <ele>333.048</ele>
        <time>2019-06-15T14:30:21Z</time>
      </trkpt>
      <trkpt lat="43.293779" lon="-2.089836">
        <ele>332.929</ele>
        <time>2019-06-15T14:30:22Z</time>
      </trkpt>
      <trkpt lat="43.293751" lon="-2.089979">
        <ele>333.418</ele>
        <time>2019-06-15T14:30:23Z</time>
      </trkpt>
      <trkpt lat="43.293724" lon="-2.090106">
        <ele>333.462</ele>
        <time>2019-06-15T14:30:24Z</time>
      </trkpt>
      <trkpt lat="43.293696" lon="-2.090241">
        <ele>333.396</ele>
        <time>2019-06-15T14:30:25Z</time>
      </trkpt>
      <trkpt lat="43.293673" lon="-2.090368">
        <ele>333.131</ele>
        <time>2019-06-15T14:30:26Z</time>
      </trkpt>
      <trkpt lat="43.293646" lon="-2.090476">
        <ele>333.024</ele>
        <time>2019-06-15T14:30:27Z</time>
      </trkpt>
      <trkpt lat="43.293625" lon="-2.090586">
        <ele>333.008</ele>
        <time>2019-06-15T14:30:28Z</time>
      </trkpt>
      <trkpt lat="43.293615" lon="-2.090673">
        <ele>333.012</ele>
        <time>2019-06-15T14:30:29Z</time>
      </trkpt>
      <trkpt lat="43.293590" lon="-2.090778">
        <ele>332.676</ele>
        <time>2019-06-15T14:30:30Z</time>
      </trkpt>
      <trkpt lat="43.293571" lon="-2.090873">
        <ele>332.365</ele>
        <time>2019-06-15T14:30:31Z</time>
      </trkpt>
      <trkpt lat="43.293550" lon="-2.090974">
        <ele>332.034</ele>
        <time>2019-06-15T14:30:32Z</time>
      </trkpt>
      <trkpt lat="43.293525" lon="-2.091091">
        <ele>331.763</ele>
        <time>2019-06-15T14:30:33Z</time>
      </trkpt>
      <trkpt lat="43.293492" lon="-2.091203">
        <ele>331.634</ele>
        <time>2019-06-15T14:30:34Z</time>
      </trkpt>
      <trkpt lat="43.293469" lon="-2.091311">
        <ele>331.733</ele>
        <time>2019-06-15T14:30:35Z</time>
      </trkpt>
      <trkpt lat="43.293449" lon="-2.091417">
        <ele>331.767</ele>
        <time>2019-06-15T14:30:36Z</time>
      </trkpt>
      <trkpt lat="43.293432" lon="-2.091520">
        <ele>331.675</ele>
        <time>2019-06-15T14:30:37Z</time>
      </trkpt>
      <trkpt lat="43.293412" lon="-2.091629">
        <ele>331.528</ele>
        <time>2019-06-15T14:30:38Z</time>
      </trkpt>
      <trkpt lat="43.293400" lon="-2.091740">
        <ele>331.520</ele>
        <time>2019-06-15T14:30:39Z</time>
      </trkpt>
      <trkpt lat="43.293380" lon="-2.091854">
        <ele>331.308</ele>
        <time>2019-06-15T14:30:40Z</time>
      </trkpt>
      <trkpt lat="43.293376" lon="-2.091943">
        <ele>331.350</ele>
        <time>2019-06-15T14:30:41Z</time>
      </trkpt>
      <trkpt lat="43.293367" lon="-2.092068">
        <ele>330.974</ele>
        <time>2019-06-15T14:30:42Z</time>
      </trkpt>
      <trkpt lat="43.293353" lon="-2.092197">
        <ele>330.363</ele>
        <time>2019-06-15T14:30:43Z</time>
      </trkpt>
      <trkpt lat="43.293345" lon="-2.092322">
        <ele>330.152</ele>
        <time>2019-06-15T14:30:44Z</time>
      </trkpt>
      <trkpt lat="43.293342" lon="-2.092431">
        <ele>330.171</ele>
        <time>2019-06-15T14:30:45Z</time>
      </trkpt>
      <trkpt lat="43.293334" lon="-2.092550">
        <ele>330.072</ele>
        <time>2019-06-15T14:30:46Z</time>
      </trkpt>
      <trkpt lat="43.293352" lon="-2.092633">
        <ele>330.121</ele>
        <time>2019-06-15T14:30:47Z</time>
      </trkpt>
      <trkpt lat="43.293352" lon="-2.092744">
        <ele>330.125</ele>
        <time>2019-06-15T14:30:48Z</time>
      </trkpt>
      <trkpt lat="43.293348" lon="-2.092842">
        <ele>329.897</ele>
        <time>2019-06-15T14:30:49Z</time>
      </trkpt>
      <trkpt lat="43.293341" lon="-2.092942">
        <ele>329.423</ele>
        <time>2019-06-15T14:30:50Z</time>
      </trkpt>
      <trkpt lat="43.293337" lon="-2.093048">
        <ele>329.025</ele>
        <time>2019-06-15T14:30:51Z</time>
      </trkpt>
      <trkpt lat="43.293323" lon="-2.093165">
        <ele>328.608</ele>
        <time>2019-06-15T14:30:52Z</time>
      </trkpt>
      <trkpt lat="43.293320" lon="-2.093270">
        <ele>328.212</ele>
        <time>2019-06-15T14:30:53Z</time>
      </trkpt>
      <trkpt lat="43.293316" lon="-2.093364">
        <ele>327.936</ele>
        <time>2019-06-15T14:30:54Z</time>
      </trkpt>
      <trkpt lat="43.293308" lon="-2.093463">
        <ele>327.645</ele>
        <time>2019-06-15T14:30:55Z</time>
      </trkpt>
      <trkpt lat="43.293320" lon="-2.093524">
        <ele>327.344</ele>
        <time>2019-06-15T14:30:56Z</time>
      </trkpt>
      <trkpt lat="43.293323" lon="-2.093608">
        <ele>327.083</ele>
        <time>2019-06-15T14:30:57Z</time>
      </trkpt>
      <trkpt lat="43.293325" lon="-2.093681">
        <ele>326.824</ele>
        <time>2019-06-15T14:30:58Z</time>
      </trkpt>
      <trkpt lat="43.293328" lon="-2.093747">
        <ele>326.543</ele>
        <time>2019-06-15T14:30:59Z</time>
      </trkpt>
      <trkpt lat="43.293330" lon="-2.093812">
        <ele>326.377</ele>
        <time>2019-06-15T14:31:00Z</time>
      </trkpt>
      <trkpt lat="43.293328" lon="-2.093907">
        <ele>326.019</ele>
        <time>2019-06-15T14:31:02Z</time>
      </trkpt>
      <trkpt lat="43.293331" lon="-2.093975">
        <ele>326.009</ele>
        <time>2019-06-15T14:31:10Z</time>
      </trkpt>
      <trkpt lat="43.293296" lon="-2.094051">
        <ele>326.319</ele>
        <time>2019-06-15T14:31:27Z</time>
      </trkpt>
      <trkpt lat="43.293291" lon="-2.094222">
        <ele>326.508</ele>
        <time>2019-06-15T14:31:29Z</time>
      </trkpt>
      <trkpt lat="43.293310" lon="-2.094345">
        <ele>326.354</ele>
        <time>2019-06-15T14:31:30Z</time>
      </trkpt>
      <trkpt lat="43.293302" lon="-2.094470">
        <ele>326.438</ele>
        <time>2019-06-15T14:31:31Z</time>
      </trkpt>
      <trkpt lat="43.293305" lon="-2.094608">
        <ele>325.937</ele>
        <time>2019-06-15T14:31:32Z</time>
      </trkpt>
      <trkpt lat="43.293313" lon="-2.094737">
        <ele>325.336</ele>
        <time>2019-06-15T14:31:33Z</time>
      </trkpt>
      <trkpt lat="43.293317" lon="-2.094869">
        <ele>324.375</ele>
        <time>2019-06-15T14:31:34Z</time>
      </trkpt>
      <trkpt lat="43.293309" lon="-2.095010">
        <ele>323.586</ele>
        <time>2019-06-15T14:31:35Z</time>
      </trkpt>
      <trkpt lat="43.293302" lon="-2.095146">
        <ele>323.225</ele>
        <time>2019-06-15T14:31:36Z</time>
      </trkpt>
      <trkpt lat="43.293300" lon="-2.095275">
        <ele>322.889</ele>
        <time>2019-06-15T14:31:37Z</time>
      </trkpt>
      <trkpt lat="43.293293" lon="-2.095417">
        <ele>322.694</ele>
        <time>2019-06-15T14:31:38Z</time>
      </trkpt>
      <trkpt lat="43.293290" lon="-2.095548">
        <ele>322.357</ele>
        <time>2019-06-15T14:31:39Z</time>
      </trkpt>
      <trkpt lat="43.293278" lon="-2.095671">
        <ele>321.822</ele>
        <time>2019-06-15T14:31:40Z</time>
      </trkpt>
      <trkpt lat="43.293244" lon="-2.095807">
        <ele>321.808</ele>
        <time>2019-06-15T14:31:41Z</time>
      </trkpt>
      <trkpt lat="43.293203" lon="-2.095940">
        <ele>321.492</ele>
        <time>2019-06-15T14:31:42Z</time>
      </trkpt>
      <trkpt lat="43.293162" lon="-2.096078">
        <ele>321.056</ele>
        <time>2019-06-15T14:31:43Z</time>
      </trkpt>
      <trkpt lat="43.293118" lon="-2.096211">
        <ele>320.895</ele>
        <time>2019-06-15T14:31:44Z</time>
      </trkpt>
      <trkpt lat="43.293075" lon="-2.096340">
        <ele>320.854</ele>
        <time>2019-06-15T14:31:45Z</time>
      </trkpt>
      <trkpt lat="43.293033" lon="-2.096472">
        <ele>320.083</ele>
        <time>2019-06-15T14:31:46Z</time>
      </trkpt>
      <trkpt lat="43.293001" lon="-2.096598">
        <ele>318.764</ele>
        <time>2019-06-15T14:31:47Z</time>
      </trkpt>
      <trkpt lat="43.292966" lon="-2.096730">
        <ele>317.933</ele>
        <time>2019-06-15T14:31:48Z</time>
      </trkpt>
      <trkpt lat="43.292929" lon="-2.096888">
        <ele>317.337</ele>
        <time>2019-06-15T14:31:49Z</time>
      </trkpt>
      <trkpt lat="43.292887" lon="-2.097029">
        <ele>316.971</ele>
        <time>2019-06-15T14:31:50Z</time>
      </trkpt>
      <trkpt lat="43.292846" lon="-2.097179">
        <ele>316.541</ele>
        <time>2019-06-15T14:31:51Z</time>
      </trkpt>
      <trkpt lat="43.292804" lon="-2.097307">
        <ele>316.415</ele>
        <time>2019-06-15T14:31:52Z</time>
      </trkpt>
      <trkpt lat="43.292762" lon="-2.097446">
        <ele>315.908</ele>
        <time>2019-06-15T14:31:53Z</time>
      </trkpt>
      <trkpt lat="43.292717" lon="-2.097575">
        <ele>315.820</ele>
        <time>2019-06-15T14:31:54Z</time>
      </trkpt>
      <trkpt lat="43.292693" lon="-2.097669">
        <ele>315.654</ele>
        <time>2019-06-15T14:31:55Z</time>
      </trkpt>
      <trkpt lat="43.292656" lon="-2.097799">
        <ele>315.583</ele>
        <time>2019-06-15T14:31:56Z</time>
      </trkpt>
      <trkpt lat="43.292628" lon="-2.097931">
        <ele>315.412</ele>
        <time>2019-06-15T14:31:57Z</time>
      </trkpt>
      <trkpt lat="43.292591" lon="-2.098074">
        <ele>315.381</ele>
        <time>2019-06-15T14:31:58Z</time>
      </trkpt>
      <trkpt lat="43.292564" lon="-2.098210">
        <ele>315.432</ele>
        <time>2019-06-15T14:31:59Z</time>
      </trkpt>
      <trkpt lat="43.292535" lon="-2.098344">
        <ele>315.421</ele>
        <time>2019-06-15T14:32:00Z</time>
      </trkpt>
      <trkpt lat="43.292527" lon="-2.098471">
        <ele>314.895</ele>
        <time>2019-06-15T14:32:01Z</time>
      </trkpt>
      <trkpt lat="43.292510" lon="-2.098616">
        <ele>313.914</ele>
        <time>2019-06-15T14:32:02Z</time>
      </trkpt>
      <trkpt lat="43.292489" lon="-2.098750">
        <ele>313.654</ele>
        <time>2019-06-15T14:32:03Z</time>
      </trkpt>
      <trkpt lat="43.292456" lon="-2.098884">
        <ele>313.309</ele>
        <time>2019-06-15T14:32:04Z</time>
      </trkpt>
      <trkpt lat="43.292428" lon="-2.099029">
        <ele>312.608</ele>
        <time>2019-06-15T14:32:05Z</time>
      </trkpt>
      <trkpt lat="43.292399" lon="-2.099175">
        <ele>312.074</ele>
        <time>2019-06-15T14:32:06Z</time>
      </trkpt>
      <trkpt lat="43.292369" lon="-2.099324">
        <ele>311.348</ele>
        <time>2019-06-15T14:32:07Z</time>
      </trkpt>
      <trkpt lat="43.292339" lon="-2.099477">
        <ele>310.417</ele>
        <time>2019-06-15T14:32:08Z</time>
      </trkpt>
      <trkpt lat="43.292296" lon="-2.099627">
        <ele>309.336</ele>
        <time>2019-06-15T14:32:09Z</time>
      </trkpt>
      <trkpt lat="43.292261" lon="-2.099781">
        <ele>307.935</ele>
        <time>2019-06-15T14:32:10Z</time>
      </trkpt>
      <trkpt lat="43.292232" lon="-2.099921">
        <ele>306.726</ele>
        <time>2019-06-15T14:32:11Z</time>
      </trkpt>
      <trkpt lat="43.292203" lon="-2.100067">
        <ele>305.675</ele>
        <time>2019-06-15T14:32:12Z</time>
      </trkpt>
      <trkpt lat="43.292163" lon="-2.100233">
        <ele>304.289</ele>
        <time>2019-06-15T14:32:13Z</time>
      </trkpt>
      <trkpt lat="43.292136" lon="-2.100382">
        <ele>302.683</ele>
        <time>2019-06-15T14:32:14Z</time>
      </trkpt>
      <trkpt lat="43.292101" lon="-2.100532">
        <ele>300.525</ele>
        <time>2019-06-15T14:32:15Z</time>
      </trkpt>
      <trkpt lat="43.292065" lon="-2.100688">
        <ele>298.717</ele>
        <time>2019-06-15T14:32:16Z</time>
      </trkpt>
      <trkpt lat="43.292027" lon="-2.100840">
        <ele>296.808</ele>
        <time>2019-06-15T14:32:17Z</time>
      </trkpt>
      <trkpt lat="43.291989" lon="-2.100943">
        <ele>296.681</ele>
        <time>2019-06-15T14:32:18Z</time>
      </trkpt>
      <trkpt lat="43.291954" lon="-2.101040">
        <ele>296.625</ele>
        <time>2019-06-15T14:32:19Z</time>
      </trkpt>
      <trkpt lat="43.291917" lon="-2.101117">
        <ele>296.414</ele>
        <time>2019-06-15T14:32:20Z</time>
      </trkpt>
      <trkpt lat="43.291876" lon="-2.101197">
        <ele>296.343</ele>
        <time>2019-06-15T14:32:21Z</time>
      </trkpt>
      <trkpt lat="43.291864" lon="-2.101127">
        <ele>295.222</ele>
        <time>2019-06-15T14:32:22Z</time>
      </trkpt>
      <trkpt lat="43.291813" lon="-2.101169">
        <ele>294.693</ele>
        <time>2019-06-15T14:32:23Z</time>
      </trkpt>
      <trkpt lat="43.291724" lon="-2.101233">
        <ele>294.172</ele>
        <time>2019-06-15T14:32:24Z</time>
      </trkpt>
      <trkpt lat="43.291651" lon="-2.101300">
        <ele>294.496</ele>
        <time>2019-06-15T14:32:25Z</time>
      </trkpt>
      <trkpt lat="43.291570" lon="-2.101360">
        <ele>294.292</ele>
        <time>2019-06-15T14:32:26Z</time>
      </trkpt>
      <trkpt lat="43.291479" lon="-2.101442">
        <ele>294.073</ele>
        <time>2019-06-15T14:32:27Z</time>
      </trkpt>
      <trkpt lat="43.291402" lon="-2.101514">
        <ele>293.620</ele>
        <time>2019-06-15T14:32:28Z</time>
      </trkpt>
      <trkpt lat="43.291338" lon="-2.101599">
        <ele>293.008</ele>
        <time>2019-06-15T14:32:29Z</time>
      </trkpt>
      <trkpt lat="43.291265" lon="-2.101705">
        <ele>292.712</ele>
        <time>2019-06-15T14:32:30Z</time>
      </trkpt>
      <trkpt lat="43.291193" lon="-2.101827">
        <ele>292.926</ele>
        <time>2019-06-15T14:32:31Z</time>
      </trkpt>
      <trkpt lat="43.291134" lon="-2.101956">
        <ele>293.875</ele>
        <time>2019-06-15T14:32:32Z</time>
      </trkpt>
      <trkpt lat="43.291077" lon="-2.102079">
        <ele>293.054</ele>
        <time>2019-06-15T14:32:33Z</time>
      </trkpt>
      <trkpt lat="43.291026" lon="-2.102184">
        <ele>292.173</ele>
        <time>2019-06-15T14:32:34Z</time>
      </trkpt>
      <trkpt lat="43.290978" lon="-2.102320">
        <ele>292.134</ele>
        <time>2019-06-15T14:32:35Z</time>
      </trkpt>
      <trkpt lat="43.290938" lon="-2.102449">
        <ele>292.443</ele>
        <time>2019-06-15T14:32:36Z</time>
      </trkpt>
      <trkpt lat="43.290885" lon="-2.102579">
        <ele>292.127</ele>
        <time>2019-06-15T14:32:37Z</time>
      </trkpt>
      <trkpt lat="43.290835" lon="-2.102716">
        <ele>292.278</ele>
        <time>2019-06-15T14:32:38Z</time>
      </trkpt>
      <trkpt lat="43.290817" lon="-2.102847">
        <ele>292.933</ele>
        <time>2019-06-15T14:32:39Z</time>
      </trkpt>
      <trkpt lat="43.290773" lon="-2.102983">
        <ele>292.426</ele>
        <time>2019-06-15T14:32:40Z</time>
      </trkpt>
      <trkpt lat="43.290744" lon="-2.103118">
        <ele>292.408</ele>
        <time>2019-06-15T14:32:41Z</time>
      </trkpt>
      <trkpt lat="43.290721" lon="-2.103255">
        <ele>292.270</ele>
        <time>2019-06-15T14:32:42Z</time>
      </trkpt>
      <trkpt lat="43.290684" lon="-2.103388">
        <ele>291.364</ele>
        <time>2019-06-15T14:32:43Z</time>
      </trkpt>
      <trkpt lat="43.290653" lon="-2.103515">
        <ele>290.733</ele>
        <time>2019-06-15T14:32:44Z</time>
      </trkpt>
      <trkpt lat="43.290617" lon="-2.103649">
        <ele>290.532</ele>
        <time>2019-06-15T14:32:45Z</time>
      </trkpt>
      <trkpt lat="43.290564" lon="-2.103777">
        <ele>290.791</ele>
        <time>2019-06-15T14:32:46Z</time>
      </trkpt>
      <trkpt lat="43.290510" lon="-2.103900">
        <ele>290.162</ele>
        <time>2019-06-15T14:32:47Z</time>
      </trkpt>
      <trkpt lat="43.290446" lon="-2.104013">
        <ele>289.891</ele>
        <time>2019-06-15T14:32:48Z</time>
      </trkpt>
      <trkpt lat="43.290383" lon="-2.104120">
        <ele>290.245</ele>
        <time>2019-06-15T14:32:49Z</time>
      </trkpt>
      <trkpt lat="43.290327" lon="-2.104200">
        <ele>290.213</ele>
        <time>2019-06-15T14:32:50Z</time>
      </trkpt>
      <trkpt lat="43.290250" lon="-2.104311">
        <ele>289.543</ele>
        <time>2019-06-15T14:32:52Z</time>
      </trkpt>
      <trkpt lat="43.290206" lon="-2.104370">
        <ele>288.907</ele>
        <time>2019-06-15T14:32:53Z</time>
      </trkpt>
      <trkpt lat="43.290149" lon="-2.104440">
        <ele>288.308</ele>
        <time>2019-06-15T14:32:54Z</time>
      </trkpt>
      <trkpt lat="43.290104" lon="-2.104533">
        <ele>287.874</ele>
        <time>2019-06-15T14:32:55Z</time>
      </trkpt>
      <trkpt lat="43.290059" lon="-2.104618">
        <ele>287.448</ele>
        <time>2019-06-15T14:32:56Z</time>
      </trkpt>
      <trkpt lat="43.290026" lon="-2.104691">
        <ele>287.347</ele>
        <time>2019-06-15T14:32:57Z</time>
      </trkpt>
      <trkpt lat="43.289993" lon="-2.104765">
        <ele>286.946</ele>
        <time>2019-06-15T14:32:58Z</time>
      </trkpt>
      <trkpt lat="43.289970" lon="-2.104831">
        <ele>286.445</ele>
        <time>2019-06-15T14:32:59Z</time>
      </trkpt>
      <trkpt lat="43.289913" lon="-2.104906">
        <ele>284.786</ele>
        <time>2019-06-15T14:33:01Z</time>
      </trkpt>
      <trkpt lat="43.289830" lon="-2.104920">
        <ele>282.085</ele>
        <time>2019-06-15T14:33:03Z</time>
      </trkpt>
      <trkpt lat="43.289779" lon="-2.104805">
        <ele>279.699</ele>
        <time>2019-06-15T14:33:05Z</time>
      </trkpt>
      <trkpt lat="43.289776" lon="-2.104697">
        <ele>278.653</ele>
        <time>2019-06-15T14:33:06Z</time>
      </trkpt>
      <trkpt lat="43.289794" lon="-2.104589">
        <ele>278.004</ele>
        <time>2019-06-15T14:33:07Z</time>
      </trkpt>
      <trkpt lat="43.289812" lon="-2.104467">
        <ele>277.214</ele>
        <time>2019-06-15T14:33:08Z</time>
      </trkpt>
      <trkpt lat="43.289849" lon="-2.104351">
        <ele>275.808</ele>
        <time>2019-06-15T14:33:09Z</time>
      </trkpt>
      <trkpt lat="43.289911" lon="-2.104247">
        <ele>275.168</ele>
        <time>2019-06-15T14:33:10Z</time>
      </trkpt>
      <trkpt lat="43.289964" lon="-2.104149">
        <ele>274.342</ele>
        <time>2019-06-15T14:33:11Z</time>
      </trkpt>
      <trkpt lat="43.290018" lon="-2.104051">
        <ele>273.021</ele>
        <time>2019-06-15T14:33:12Z</time>
      </trkpt>
      <trkpt lat="43.290067" lon="-2.103980">
        <ele>272.870</ele>
        <time>2019-06-15T14:33:13Z</time>
      </trkpt>
      <trkpt lat="43.290123" lon="-2.103881">
        <ele>272.089</ele>
        <time>2019-06-15T14:33:14Z</time>
      </trkpt>
      <trkpt lat="43.290180" lon="-2.103791">
        <ele>271.650</ele>
        <time>2019-06-15T14:33:15Z</time>
      </trkpt>
      <trkpt lat="43.290233" lon="-2.103696">
        <ele>271.279</ele>
        <time>2019-06-15T14:33:16Z</time>
      </trkpt>
      <trkpt lat="43.290273" lon="-2.103591">
        <ele>270.733</ele>
        <time>2019-06-15T14:33:17Z</time>
      </trkpt>
      <trkpt lat="43.290287" lon="-2.103470">
        <ele>271.025</ele>
        <time>2019-06-15T14:33:18Z</time>
      </trkpt>
      <trkpt lat="43.290263" lon="-2.103357">
        <ele>269.226</ele>
        <time>2019-06-15T14:33:19Z</time>
      </trkpt>
      <trkpt lat="43.290271" lon="-2.103252">
        <ele>269.008</ele>
        <time>2019-06-15T14:33:20Z</time>
      </trkpt>
      <trkpt lat="43.290279" lon="-2.103139">
        <ele>268.708</ele>
        <time>2019-06-15T14:33:21Z</time>
      </trkpt>
      <trkpt lat="43.290279" lon="-2.103027">
        <ele>267.525</ele>
        <time>2019-06-15T14:33:22Z</time>
      </trkpt>
      <trkpt lat="43.290315" lon="-2.102914">
        <ele>267.199</ele>
        <time>2019-06-15T14:33:23Z</time>
      </trkpt>
      <trkpt lat="43.290356" lon="-2.102801">
        <ele>267.068</ele>
        <time>2019-06-15T14:33:24Z</time>
      </trkpt>
      <trkpt lat="43.290384" lon="-2.102688">
        <ele>266.217</ele>
        <time>2019-06-15T14:33:25Z</time>
      </trkpt>
      <trkpt lat="43.290435" lon="-2.102587">
        <ele>266.976</ele>
        <time>2019-06-15T14:33:26Z</time>
      </trkpt>
      <trkpt lat="43.290469" lon="-2.102476">
        <ele>266.737</ele>
        <time>2019-06-15T14:33:27Z</time>
      </trkpt>
      <trkpt lat="43.290485" lon="-2.102377">
        <ele>266.246</ele>
        <time>2019-06-15T14:33:28Z</time>
      </trkpt>
      <trkpt lat="43.290498" lon="-2.102267">
        <ele>265.310</ele>
        <time>2019-06-15T14:33:29Z</time>
      </trkpt>
      <trkpt lat="43.290506" lon="-2.102141">
        <ele>263.731</ele>
        <time>2019-06-15T14:33:30Z</time>
      </trkpt>
      <trkpt lat="43.290525" lon="-2.102033">
        <ele>262.961</ele>
        <time>2019-06-15T14:33:31Z</time>
      </trkpt>
      <trkpt lat="43.290546" lon="-2.101927">
        <ele>261.907</ele>
        <time>2019-06-15T14:33:32Z</time>
      </trkpt>
      <trkpt lat="43.290584" lon="-2.101826">
        <ele>260.908</ele>
        <time>2019-06-15T14:33:33Z</time>
      </trkpt>
      <trkpt lat="43.290640" lon="-2.101727">
        <ele>261.186</ele>
        <time>2019-06-15T14:33:34Z</time>
      </trkpt>
      <trkpt lat="43.290673" lon="-2.101613">
        <ele>259.690</ele>
        <time>2019-06-15T14:33:35Z</time>
      </trkpt>
      <trkpt lat="43.290722" lon="-2.101519">
        <ele>260.099</ele>
        <time>2019-06-15T14:33:36Z</time>
      </trkpt>
      <trkpt lat="43.290762" lon="-2.101459">
        <ele>261.078</ele>
        <time>2019-06-15T14:33:37Z</time>
      </trkpt>
      <trkpt lat="43.290763" lon="-2.101368">
        <ele>259.157</ele>
        <time>2019-06-15T14:33:38Z</time>
      </trkpt>
      <trkpt lat="43.290760" lon="-2.101278">
        <ele>258.788</ele>
        <time>2019-06-15T14:33:39Z</time>
      </trkpt>
      <trkpt lat="43.290764" lon="-2.101166">
        <ele>258.757</ele>
        <time>2019-06-15T14:33:40Z</time>
      </trkpt>
      <trkpt lat="43.290730" lon="-2.101058">
        <ele>258.621</ele>
        <time>2019-06-15T14:33:41Z</time>
      </trkpt>
      <trkpt lat="43.290662" lon="-2.101038">
        <ele>255.945</ele>
        <time>2019-06-15T14:33:42Z</time>
      </trkpt>
      <trkpt lat="43.290628" lon="-2.100978">
        <ele>256.347</ele>
        <time>2019-06-15T14:33:43Z</time>
      </trkpt>
      <trkpt lat="43.290584" lon="-2.100930">
        <ele>255.911</ele>
        <time>2019-06-15T14:33:44Z</time>
      </trkpt>
      <trkpt lat="43.290527" lon="-2.100915">
        <ele>253.708</ele>
        <time>2019-06-15T14:33:45Z</time>
      </trkpt>
      <trkpt lat="43.290488" lon="-2.100875">
        <ele>253.227</ele>
        <time>2019-06-15T14:33:46Z</time>
      </trkpt>
      <trkpt lat="43.290455" lon="-2.100832">
        <ele>253.031</ele>
        <time>2019-06-15T14:33:47Z</time>
      </trkpt>
      <trkpt lat="43.290417" lon="-2.100777">
        <ele>252.270</ele>
        <time>2019-06-15T14:33:49Z</time>
      </trkpt>
      <trkpt lat="43.290373" lon="-2.100804">
        <ele>249.479</ele>
        <time>2019-06-15T14:34:35Z</time>
      </trkpt>
      <trkpt lat="43.290358" lon="-2.100743">
        <ele>250.088</ele>
        <time>2019-06-15T14:35:00Z</time>
      </trkpt>
      <trkpt lat="43.290325" lon="-2.100666">
        <ele>250.099</ele>
        <time>2019-06-15T14:35:03Z</time>
      </trkpt>
      <trkpt lat="43.290295" lon="-2.100595">
        <ele>250.048</ele>
        <time>2019-06-15T14:35:04Z</time>
      </trkpt>
      <trkpt lat="43.290268" lon="-2.100539">
        <ele>250.132</ele>
        <time>2019-06-15T14:35:05Z</time>
      </trkpt>
      <trkpt lat="43.290233" lon="-2.100481">
        <ele>250.622</ele>
        <time>2019-06-15T14:35:06Z</time>
      </trkpt>
      <trkpt lat="43.290151" lon="-2.100454">
        <ele>250.562</ele>
        <time>2019-06-15T14:35:08Z</time>
      </trkpt>
      <trkpt lat="43.290088" lon="-2.100455">
        <ele>250.008</ele>
        <time>2019-06-15T14:35:09Z</time>
      </trkpt>
      <trkpt lat="43.290030" lon="-2.100476">
        <ele>248.708</ele>
        <time>2019-06-15T14:35:10Z</time>
      </trkpt>
      <trkpt lat="43.289973" lon="-2.100476">
        <ele>247.835</ele>
        <time>2019-06-15T14:35:11Z</time>
      </trkpt>
      <trkpt lat="43.289919" lon="-2.100480">
        <ele>246.529</ele>
        <time>2019-06-15T14:35:12Z</time>
      </trkpt>
      <trkpt lat="43.289869" lon="-2.100482">
        <ele>245.398</ele>
        <time>2019-06-15T14:35:13Z</time>
      </trkpt>
      <trkpt lat="43.289805" lon="-2.100441">
        <ele>245.977</ele>
        <time>2019-06-15T14:35:14Z</time>
      </trkpt>
      <trkpt lat="43.289747" lon="-2.100413">
        <ele>246.236</ele>
        <time>2019-06-15T14:35:15Z</time>
      </trkpt>
      <trkpt lat="43.289684" lon="-2.100373">
        <ele>246.367</ele>
        <time>2019-06-15T14:35:16Z</time>
      </trkpt>
      <trkpt lat="43.289634" lon="-2.100336">
        <ele>246.266</ele>
        <time>2019-06-15T14:35:17Z</time>
      </trkpt>
      <trkpt lat="43.289594" lon="-2.100304">
        <ele>246.160</ele>
        <time>2019-06-15T14:35:18Z</time>
      </trkpt>
      <trkpt lat="43.289547" lon="-2.100262">
        <ele>246.234</ele>
        <time>2019-06-15T14:35:19Z</time>
      </trkpt>
      <trkpt lat="43.289477" lon="-2.100197">
        <ele>246.255</ele>
        <time>2019-06-15T14:35:21Z</time>
      </trkpt>
      <trkpt lat="43.289393" lon="-2.100160">
        <ele>244.810</ele>
        <time>2019-06-15T14:35:23Z</time>
      </trkpt>
      <trkpt lat="43.289323" lon="-2.100129">
        <ele>243.808</ele>
        <time>2019-06-15T14:35:25Z</time>
      </trkpt>
      <trkpt lat="43.289264" lon="-2.100112">
        <ele>242.416</ele>
        <time>2019-06-15T14:35:26Z</time>
      </trkpt>
      <trkpt lat="43.289196" lon="-2.100091">
        <ele>240.850</ele>
        <time>2019-06-15T14:35:27Z</time>
      </trkpt>
      <trkpt lat="43.289133" lon="-2.100066">
        <ele>239.669</ele>
        <time>2019-06-15T14:35:28Z</time>
      </trkpt>
      <trkpt lat="43.289089" lon="-2.100008">
        <ele>240.258</ele>
        <time>2019-06-15T14:35:29Z</time>
      </trkpt>
      <trkpt lat="43.289041" lon="-2.099959">
        <ele>239.977</ele>
        <time>2019-06-15T14:35:30Z</time>
      </trkpt>
      <trkpt lat="43.288989" lon="-2.099913">
        <ele>238.948</ele>
        <time>2019-06-15T14:35:31Z</time>
      </trkpt>
      <trkpt lat="43.288946" lon="-2.099768">
        <ele>239.497</ele>
        <time>2019-06-15T14:35:32Z</time>
      </trkpt>
      <trkpt lat="43.288898" lon="-2.099676">
        <ele>238.081</ele>
        <time>2019-06-15T14:35:33Z</time>
      </trkpt>
      <trkpt lat="43.288864" lon="-2.099566">
        <ele>237.338</ele>
        <time>2019-06-15T14:35:34Z</time>
      </trkpt>
      <trkpt lat="43.288851" lon="-2.099455">
        <ele>237.870</ele>
        <time>2019-06-15T14:35:35Z</time>
      </trkpt>
      <trkpt lat="43.288824" lon="-2.099343">
        <ele>236.917</ele>
        <time>2019-06-15T14:35:36Z</time>
      </trkpt>
      <trkpt lat="43.288779" lon="-2.099236">
        <ele>234.808</ele>
        <time>2019-06-15T14:35:37Z</time>
      </trkpt>
      <trkpt lat="43.288793" lon="-2.099106">
        <ele>235.786</ele>
        <time>2019-06-15T14:35:38Z</time>
      </trkpt>
      <trkpt lat="43.288779" lon="-2.098987">
        <ele>234.710</ele>
        <time>2019-06-15T14:35:39Z</time>
      </trkpt>
      <trkpt lat="43.288779" lon="-2.098847">
        <ele>234.029</ele>
        <time>2019-06-15T14:35:40Z</time>
      </trkpt>
      <trkpt lat="43.288775" lon="-2.098730">
        <ele>232.588</ele>
        <time>2019-06-15T14:35:41Z</time>
      </trkpt>
      <trkpt lat="43.288789" lon="-2.098582">
        <ele>231.717</ele>
        <time>2019-06-15T14:35:42Z</time>
      </trkpt>
      <trkpt lat="43.288802" lon="-2.098437">
        <ele>231.488</ele>
        <time>2019-06-15T14:35:43Z</time>
      </trkpt>
      <trkpt lat="43.288819" lon="-2.098274">
        <ele>231.177</ele>
        <time>2019-06-15T14:35:44Z</time>
      </trkpt>
      <trkpt lat="43.288824" lon="-2.098112">
        <ele>229.881</ele>
        <time>2019-06-15T14:35:45Z</time>
      </trkpt>
      <trkpt lat="43.288836" lon="-2.097944">
        <ele>229.144</ele>
        <time>2019-06-15T14:35:46Z</time>
      </trkpt>
      <trkpt lat="43.288847" lon="-2.097780">
        <ele>228.505</ele>
        <time>2019-06-15T14:35:47Z</time>
      </trkpt>
      <trkpt lat="43.288852" lon="-2.097620">
        <ele>227.615</ele>
        <time>2019-06-15T14:35:48Z</time>
      </trkpt>
      <trkpt lat="43.288862" lon="-2.097456">
        <ele>227.108</ele>
        <time>2019-06-15T14:35:49Z</time>
      </trkpt>
      <trkpt lat="43.288859" lon="-2.097301">
        <ele>225.847</ele>
        <time>2019-06-15T14:35:50Z</time>
      </trkpt>
      <trkpt lat="43.288857" lon="-2.097162">
        <ele>224.521</ele>
        <time>2019-06-15T14:35:51Z</time>
      </trkpt>
      <trkpt lat="43.288858" lon="-2.097020">
        <ele>223.110</ele>
        <time>2019-06-15T14:35:52Z</time>
      </trkpt>
      <trkpt lat="43.288861" lon="-2.096872">
        <ele>221.589</ele>
        <time>2019-06-15T14:35:53Z</time>
      </trkpt>
      <trkpt lat="43.288886" lon="-2.096744">
        <ele>221.018</ele>
        <time>2019-06-15T14:35:54Z</time>
      </trkpt>
      <trkpt lat="43.288926" lon="-2.096645">
        <ele>220.979</ele>
        <time>2019-06-15T14:35:55Z</time>
      </trkpt>
      <trkpt lat="43.288960" lon="-2.096529">
        <ele>219.228</ele>
        <time>2019-06-15T14:35:56Z</time>
      </trkpt>
      <trkpt lat="43.289034" lon="-2.096457">
        <ele>220.122</ele>
        <time>2019-06-15T14:35:57Z</time>
      </trkpt>
      <trkpt lat="43.289112" lon="-2.096364">
        <ele>220.159</ele>
        <time>2019-06-15T14:35:58Z</time>
      </trkpt>
      <trkpt lat="43.289186" lon="-2.096270">
        <ele>219.303</ele>
        <time>2019-06-15T14:35:59Z</time>
      </trkpt>
      <trkpt lat="43.289280" lon="-2.096168">
        <ele>218.723</ele>
        <time>2019-06-15T14:36:00Z</time>
      </trkpt>
      <trkpt lat="43.289345" lon="-2.096090">
        <ele>218.008</ele>
        <time>2019-06-15T14:36:01Z</time>
      </trkpt>
      <trkpt lat="43.289409" lon="-2.095993">
        <ele>216.998</ele>
        <time>2019-06-15T14:36:02Z</time>
      </trkpt>
      <trkpt lat="43.289478" lon="-2.095896">
        <ele>216.542</ele>
        <time>2019-06-15T14:36:03Z</time>
      </trkpt>
      <trkpt lat="43.289534" lon="-2.095799">
        <ele>216.641</ele>
        <time>2019-06-15T14:36:04Z</time>
      </trkpt>
      <trkpt lat="43.289537" lon="-2.095677">
        <ele>214.590</ele>
        <time>2019-06-15T14:36:05Z</time>
      </trkpt>
      <trkpt lat="43.289540" lon="-2.095557">
        <ele>212.559</ele>
        <time>2019-06-15T14:36:06Z</time>
      </trkpt>
      <trkpt lat="43.289537" lon="-2.095439">
        <ele>212.340</ele>
        <time>2019-06-15T14:36:07Z</time>
      </trkpt>
      <trkpt lat="43.289513" lon="-2.095303">
        <ele>210.779</ele>
        <time>2019-06-15T14:36:08Z</time>
      </trkpt>
      <trkpt lat="43.289487" lon="-2.095170">
        <ele>209.793</ele>
        <time>2019-06-15T14:36:09Z</time>
      </trkpt>
      <trkpt lat="43.289460" lon="-2.095040">
        <ele>208.815</ele>
        <time>2019-06-15T14:36:10Z</time>
      </trkpt>
      <trkpt lat="43.289447" lon="-2.094904">
        <ele>208.965</ele>
        <time>2019-06-15T14:36:11Z</time>
      </trkpt>
      <trkpt lat="43.289431" lon="-2.094780">
        <ele>208.611</ele>
        <time>2019-06-15T14:36:12Z</time>
      </trkpt>
      <trkpt lat="43.289432" lon="-2.094677">
        <ele>209.208</ele>
        <time>2019-06-15T14:36:13Z</time>
      </trkpt>
      <trkpt lat="43.289479" lon="-2.094587">
        <ele>212.494</ele>
        <time>2019-06-15T14:36:14Z</time>
      </trkpt>
      <trkpt lat="43.289451" lon="-2.094476">
        <ele>210.538</ele>
        <time>2019-06-15T14:36:16Z</time>
      </trkpt>
      <trkpt lat="43.289403" lon="-2.094401">
        <ele>208.437</ele>
        <time>2019-06-15T14:36:18Z</time>
      </trkpt>
      <trkpt lat="43.289378" lon="-2.094508">
        <ele>206.256</ele>
        <time>2019-06-15T14:36:19Z</time>
      </trkpt>
      <trkpt lat="43.289371" lon="-2.094667">
        <ele>205.235</ele>
        <time>2019-06-15T14:36:21Z</time>
      </trkpt>
      <trkpt lat="43.289368" lon="-2.094796">
        <ele>204.186</ele>
        <time>2019-06-15T14:36:22Z</time>
      </trkpt>
      <trkpt lat="43.289374" lon="-2.094925">
        <ele>203.435</ele>
        <time>2019-06-15T14:36:23Z</time>
      </trkpt>
      <trkpt lat="43.289372" lon="-2.095043">
        <ele>202.559</ele>
        <time>2019-06-15T14:36:24Z</time>
      </trkpt>
      <trkpt lat="43.289399" lon="-2.095150">
        <ele>204.056</ele>
        <time>2019-06-15T14:36:25Z</time>
      </trkpt>
      <trkpt lat="43.289386" lon="-2.095263">
        <ele>202.959</ele>
        <time>2019-06-15T14:36:26Z</time>
      </trkpt>
      <trkpt lat="43.289356" lon="-2.095355">
        <ele>201.814</ele>
        <time>2019-06-15T14:36:27Z</time>
      </trkpt>
      <trkpt lat="43.289332" lon="-2.095451">
        <ele>201.308</ele>
        <time>2019-06-15T14:36:28Z</time>
      </trkpt>
      <trkpt lat="43.289264" lon="-2.095545">
        <ele>199.188</ele>
        <time>2019-06-15T14:36:29Z</time>
      </trkpt>
      <trkpt lat="43.289215" lon="-2.095627">
        <ele>198.832</ele>
        <time>2019-06-15T14:36:30Z</time>
      </trkpt>
      <trkpt lat="43.289175" lon="-2.095712">
        <ele>199.361</ele>
        <time>2019-06-15T14:36:31Z</time>
      </trkpt>
      <trkpt lat="43.289125" lon="-2.095801">
        <ele>199.720</ele>
        <time>2019-06-15T14:36:32Z</time>
      </trkpt>
      <trkpt lat="43.289048" lon="-2.095834">
        <ele>197.839</ele>
        <time>2019-06-15T14:36:33Z</time>
      </trkpt>
      <trkpt lat="43.288965" lon="-2.095867">
        <ele>196.150</ele>
        <time>2019-06-15T14:36:34Z</time>
      </trkpt>
      <trkpt lat="43.288880" lon="-2.095899">
        <ele>194.449</ele>
        <time>2019-06-15T14:36:35Z</time>
      </trkpt>
      <trkpt lat="43.288793" lon="-2.095929">
        <ele>193.333</ele>
        <time>2019-06-15T14:36:36Z</time>
      </trkpt>
      <trkpt lat="43.288720" lon="-2.095984">
        <ele>193.418</ele>
        <time>2019-06-15T14:36:37Z</time>
      </trkpt>
      <trkpt lat="43.288646" lon="-2.096007">
        <ele>192.298</ele>
        <time>2019-06-15T14:36:38Z</time>
      </trkpt>
      <trkpt lat="43.288565" lon="-2.096037">
        <ele>191.117</ele>
        <time>2019-06-15T14:36:39Z</time>
      </trkpt>
      <trkpt lat="43.288488" lon="-2.096057">
        <ele>189.808</ele>
        <time>2019-06-15T14:36:40Z</time>
      </trkpt>
      <trkpt lat="43.288424" lon="-2.096093">
        <ele>189.154</ele>
        <time>2019-06-15T14:36:41Z</time>
      </trkpt>
      <trkpt lat="43.288367" lon="-2.096117">
        <ele>188.198</ele>
        <time>2019-06-15T14:36:42Z</time>
      </trkpt>
      <trkpt lat="43.288308" lon="-2.096160">
        <ele>187.087</ele>
        <time>2019-06-15T14:36:43Z</time>
      </trkpt>
      <trkpt lat="43.288266" lon="-2.096205">
        <ele>186.366</ele>
        <time>2019-06-15T14:36:44Z</time>
      </trkpt>
      <trkpt lat="43.288232" lon="-2.096280">
        <ele>186.115</ele>
        <time>2019-06-15T14:36:45Z</time>
      </trkpt>
      <trkpt lat="43.288198" lon="-2.096355">
        <ele>185.776</ele>
        <time>2019-06-15T14:36:46Z</time>
      </trkpt>
      <trkpt lat="43.288151" lon="-2.096462">
        <ele>184.715</ele>
        <time>2019-06-15T14:36:47Z</time>
      </trkpt>
      <trkpt lat="43.288119" lon="-2.096557">
        <ele>184.019</ele>
        <time>2019-06-15T14:36:48Z</time>
      </trkpt>
      <trkpt lat="43.288105" lon="-2.096692">
        <ele>184.111</ele>
        <time>2019-06-15T14:36:49Z</time>
      </trkpt>
      <trkpt lat="43.288088" lon="-2.096811">
        <ele>182.921</ele>
        <time>2019-06-15T14:36:50Z</time>
      </trkpt>
      <trkpt lat="43.288089" lon="-2.096956">
        <ele>182.503</ele>
        <time>2019-06-15T14:36:51Z</time>
      </trkpt>
      <trkpt lat="43.288083" lon="-2.097060">
        <ele>181.508</ele>
        <time>2019-06-15T14:36:52Z</time>
      </trkpt>
      <trkpt lat="43.288082" lon="-2.097193">
        <ele>180.584</ele>
        <time>2019-06-15T14:36:53Z</time>
      </trkpt>
      <trkpt lat="43.288065" lon="-2.097321">
        <ele>179.538</ele>
        <time>2019-06-15T14:36:54Z</time>
      </trkpt>
      <trkpt lat="43.288042" lon="-2.097463">
        <ele>178.317</ele>
        <time>2019-06-15T14:36:55Z</time>
      </trkpt>
      <trkpt lat="43.288019" lon="-2.097585">
        <ele>177.846</ele>
        <time>2019-06-15T14:36:56Z</time>
      </trkpt>
      <trkpt lat="43.287986" lon="-2.097704">
        <ele>177.015</ele>
        <time>2019-06-15T14:36:57Z</time>
      </trkpt>
      <trkpt lat="43.287946" lon="-2.097820">
        <ele>175.846</ele>
        <time>2019-06-15T14:36:58Z</time>
      </trkpt>
      <trkpt lat="43.287905" lon="-2.097941">
        <ele>174.685</ele>
        <time>2019-06-15T14:36:59Z</time>
      </trkpt>
      <trkpt lat="43.287863" lon="-2.098042">
        <ele>173.289</ele>
        <time>2019-06-15T14:37:00Z</time>
      </trkpt>
      <trkpt lat="43.287815" lon="-2.098155">
        <ele>172.979</ele>
        <time>2019-06-15T14:37:01Z</time>
      </trkpt>
      <trkpt lat="43.287764" lon="-2.098251">
        <ele>172.605</ele>
        <time>2019-06-15T14:37:02Z</time>
      </trkpt>
      <trkpt lat="43.287712" lon="-2.098325">
        <ele>171.725</ele>
        <time>2019-06-15T14:37:03Z</time>
      </trkpt>
      <trkpt lat="43.287665" lon="-2.098420">
        <ele>171.608</ele>
        <time>2019-06-15T14:37:04Z</time>
      </trkpt>
      <trkpt lat="43.287616" lon="-2.098476">
        <ele>170.520</ele>
        <time>2019-06-15T14:37:05Z</time>
      </trkpt>
      <trkpt lat="43.287560" lon="-2.098558">
        <ele>169.784</ele>
        <time>2019-06-15T14:37:06Z</time>
      </trkpt>
      <trkpt lat="43.287513" lon="-2.098654">
        <ele>169.133</ele>
        <time>2019-06-15T14:37:07Z</time>
      </trkpt>
      <trkpt lat="43.287489" lon="-2.098735">
        <ele>168.922</ele>
        <time>2019-06-15T14:37:08Z</time>
      </trkpt>
      <trkpt lat="43.287441" lon="-2.098879">
        <ele>168.561</ele>
        <time>2019-06-15T14:37:09Z</time>
      </trkpt>
      <trkpt lat="43.287402" lon="-2.099026">
        <ele>168.182</ele>
        <time>2019-06-15T14:37:10Z</time>
      </trkpt>
      <trkpt lat="43.287367" lon="-2.099153">
        <ele>167.681</ele>
        <time>2019-06-15T14:37:11Z</time>
      </trkpt>
      <trkpt lat="43.287322" lon="-2.099276">
        <ele>166.365</ele>
        <time>2019-06-15T14:37:12Z</time>
      </trkpt>
      <trkpt lat="43.287285" lon="-2.099419">
        <ele>165.414</ele>
        <time>2019-06-15T14:37:13Z</time>
      </trkpt>
      <trkpt lat="43.287276" lon="-2.099523">
        <ele>165.054</ele>
        <time>2019-06-15T14:37:14Z</time>
      </trkpt>
      <trkpt lat="43.287272" lon="-2.099655">
        <ele>164.709</ele>
        <time>2019-06-15T14:37:15Z</time>
      </trkpt>
      <trkpt lat="43.287277" lon="-2.099774">
        <ele>164.208</ele>
        <time>2019-06-15T14:37:16Z</time>
      </trkpt>
      <trkpt lat="43.287300" lon="-2.099876">
        <ele>163.754</ele>
        <time>2019-06-15T14:37:17Z</time>
      </trkpt>
      <trkpt lat="43.287331" lon="-2.099973">
        <ele>163.588</ele>
        <time>2019-06-15T14:37:18Z</time>
      </trkpt>
      <trkpt lat="43.287358" lon="-2.100104">
        <ele>162.437</ele>
        <time>2019-06-15T14:37:19Z</time>
      </trkpt>
      <trkpt lat="43.287387" lon="-2.100199">
        <ele>161.726</ele>
        <time>2019-06-15T14:37:20Z</time>
      </trkpt>
      <trkpt lat="43.287433" lon="-2.100295">
        <ele>161.285</ele>
        <time>2019-06-15T14:37:21Z</time>
      </trkpt>
      <trkpt lat="43.287503" lon="-2.100378">
        <ele>160.986</ele>
        <time>2019-06-15T14:37:22Z</time>
      </trkpt>
      <trkpt lat="43.287603" lon="-2.100424">
        <ele>162.115</ele>
        <time>2019-06-15T14:37:23Z</time>
      </trkpt>
      <trkpt lat="43.287670" lon="-2.100527">
        <ele>161.359</ele>
        <time>2019-06-15T14:37:24Z</time>
      </trkpt>
      <trkpt lat="43.287720" lon="-2.100633">
        <ele>160.789</ele>
        <time>2019-06-15T14:37:25Z</time>
      </trkpt>
      <trkpt lat="43.287761" lon="-2.100743">
        <ele>160.406</ele>
        <time>2019-06-15T14:37:26Z</time>
      </trkpt>
      <trkpt lat="43.287780" lon="-2.100866">
        <ele>159.826</ele>
        <time>2019-06-15T14:37:27Z</time>
      </trkpt>
      <trkpt lat="43.287791" lon="-2.100997">
        <ele>158.908</ele>
        <time>2019-06-15T14:37:28Z</time>
      </trkpt>
      <trkpt lat="43.287804" lon="-2.101141">
        <ele>157.641</ele>
        <time>2019-06-15T14:37:29Z</time>
      </trkpt>
      <trkpt lat="43.287837" lon="-2.101252">
        <ele>156.525</ele>
        <time>2019-06-15T14:37:30Z</time>
      </trkpt>
      <trkpt lat="43.287872" lon="-2.101352">
        <ele>155.444</ele>
        <time>2019-06-15T14:37:31Z</time>
      </trkpt>
      <trkpt lat="43.287911" lon="-2.101452">
        <ele>153.193</ele>
        <time>2019-06-15T14:37:32Z</time>
      </trkpt>
      <trkpt lat="43.287969" lon="-2.101502">
        <ele>152.832</ele>
        <time>2019-06-15T14:37:33Z</time>
      </trkpt>
      <trkpt lat="43.288050" lon="-2.101546">
        <ele>153.583</ele>
        <time>2019-06-15T14:37:34Z</time>
      </trkpt>
      <trkpt lat="43.288112" lon="-2.101565">
        <ele>153.062</ele>
        <time>2019-06-15T14:37:36Z</time>
      </trkpt>
      <trkpt lat="43.288230" lon="-2.101520">
        <ele>155.526</ele>
        <time>2019-06-15T14:37:37Z</time>
      </trkpt>
      <trkpt lat="43.288283" lon="-2.101554">
        <ele>154.125</ele>
        <time>2019-06-15T14:37:38Z</time>
      </trkpt>
      <trkpt lat="43.288341" lon="-2.101578">
        <ele>153.526</ele>
        <time>2019-06-15T14:37:39Z</time>
      </trkpt>
      <trkpt lat="43.288421" lon="-2.101658">
        <ele>153.508</ele>
        <time>2019-06-15T14:37:40Z</time>
      </trkpt>
      <trkpt lat="43.288483" lon="-2.101708">
        <ele>154.108</ele>
        <time>2019-06-15T14:37:41Z</time>
      </trkpt>
      <trkpt lat="43.288514" lon="-2.101847">
        <ele>149.095</ele>
        <time>2019-06-15T14:37:42Z</time>
      </trkpt>
      <trkpt lat="43.288578" lon="-2.101895">
        <ele>149.299</ele>
        <time>2019-06-15T14:37:43Z</time>
      </trkpt>
      <trkpt lat="43.288631" lon="-2.101952">
        <ele>147.758</ele>
        <time>2019-06-15T14:37:44Z</time>
      </trkpt>
      <trkpt lat="43.288691" lon="-2.101902">
        <ele>150.197</ele>
        <time>2019-06-15T14:37:45Z</time>
      </trkpt>
      <trkpt lat="43.288759" lon="-2.101911">
        <ele>149.616</ele>
        <time>2019-06-15T14:37:46Z</time>
      </trkpt>
      <trkpt lat="43.288827" lon="-2.101897">
        <ele>150.387</ele>
        <time>2019-06-15T14:37:47Z</time>
      </trkpt>
      <trkpt lat="43.288871" lon="-2.101913">
        <ele>149.576</ele>
        <time>2019-06-15T14:37:48Z</time>
      </trkpt>
      <trkpt lat="43.288919" lon="-2.101954">
        <ele>149.470</ele>
        <time>2019-06-15T14:37:50Z</time>
      </trkpt>
      <trkpt lat="43.288960" lon="-2.101986">
        <ele>151.532</ele>
        <time>2019-06-15T14:37:51Z</time>
      </trkpt>
      <trkpt lat="43.288913" lon="-2.102091">
        <ele>149.892</ele>
        <time>2019-06-15T14:37:53Z</time>
      </trkpt>
      <trkpt lat="43.288803" lon="-2.102317">
        <ele>148.011</ele>
        <time>2019-06-15T14:37:54Z</time>
      </trkpt>
      <trkpt lat="43.288749" lon="-2.102418">
        <ele>148.008</ele>
        <time>2019-06-15T14:37:55Z</time>
      </trkpt>
      <trkpt lat="43.288680" lon="-2.102500">
        <ele>146.576</ele>
        <time>2019-06-15T14:37:56Z</time>
      </trkpt>
      <trkpt lat="43.288582" lon="-2.102553">
        <ele>144.370</ele>
        <time>2019-06-15T14:37:57Z</time>
      </trkpt>
      <trkpt lat="43.288496" lon="-2.102618">
        <ele>144.439</ele>
        <time>2019-06-15T14:37:58Z</time>
      </trkpt>
      <trkpt lat="43.288408" lon="-2.102667">
        <ele>143.668</ele>
        <time>2019-06-15T14:37:59Z</time>
      </trkpt>
      <trkpt lat="43.288356" lon="-2.102751">
        <ele>145.617</ele>
        <time>2019-06-15T14:38:00Z</time>
      </trkpt>
      <trkpt lat="43.288263" lon="-2.102796">
        <ele>144.468</ele>
        <time>2019-06-15T14:38:01Z</time>
      </trkpt>
      <trkpt lat="43.288179" lon="-2.102845">
        <ele>143.757</ele>
        <time>2019-06-15T14:38:02Z</time>
      </trkpt>
      <trkpt lat="43.288094" lon="-2.102944">
        <ele>144.841</ele>
        <time>2019-06-15T14:38:03Z</time>
      </trkpt>
      <trkpt lat="43.288063" lon="-2.103091">
        <ele>149.614</ele>
        <time>2019-06-15T14:38:04Z</time>
      </trkpt>
      <trkpt lat="43.287994" lon="-2.103180">
        <ele>149.854</ele>
        <time>2019-06-15T14:38:05Z</time>
      </trkpt>
      <trkpt lat="43.287907" lon="-2.103211">
        <ele>147.209</ele>
        <time>2019-06-15T14:38:06Z</time>
      </trkpt>
      <trkpt lat="43.287829" lon="-2.103248">
        <ele>145.508</ele>
        <time>2019-06-15T14:38:07Z</time>
      </trkpt>
      <trkpt lat="43.287717" lon="-2.103282">
        <ele>143.764</ele>
        <time>2019-06-15T14:38:08Z</time>
      </trkpt>
      <trkpt lat="43.287618" lon="-2.103252">
        <ele>140.888</ele>
        <time>2019-06-15T14:38:09Z</time>
      </trkpt>
      <trkpt lat="43.287512" lon="-2.103262">
        <ele>139.467</ele>
        <time>2019-06-15T14:38:10Z</time>
      </trkpt>
      <trkpt lat="43.287414" lon="-2.103269">
        <ele>137.766</ele>
        <time>2019-06-15T14:38:11Z</time>
      </trkpt>
      <trkpt lat="43.287263" lon="-2.103269">
        <ele>134.715</ele>
        <time>2019-06-15T14:38:12Z</time>
      </trkpt>
      <trkpt lat="43.287163" lon="-2.103267">
        <ele>132.656</ele>
        <time>2019-06-15T14:38:13Z</time>
      </trkpt>
      <trkpt lat="43.287054" lon="-2.103298">
        <ele>131.675</ele>
        <time>2019-06-15T14:38:14Z</time>
      </trkpt>
      <trkpt lat="43.286961" lon="-2.103345">
        <ele>131.739</ele>
        <time>2019-06-15T14:38:15Z</time>
      </trkpt>
      <trkpt lat="43.286843" lon="-2.103388">
        <ele>130.968</ele>
        <time>2019-06-15T14:38:16Z</time>
      </trkpt>
      <trkpt lat="43.286748" lon="-2.103419">
        <ele>129.942</ele>
        <time>2019-06-15T14:38:17Z</time>
      </trkpt>
      <trkpt lat="43.286659" lon="-2.103469">
        <ele>129.226</ele>
        <time>2019-06-15T14:38:18Z</time>
      </trkpt>
      <trkpt lat="43.286578" lon="-2.103523">
        <ele>128.208</ele>
        <time>2019-06-15T14:38:19Z</time>
      </trkpt>
      <trkpt lat="43.286499" lon="-2.103577">
        <ele>127.369</ele>
        <time>2019-06-15T14:38:20Z</time>
      </trkpt>
      <trkpt lat="43.286420" lon="-2.103639">
        <ele>126.473</ele>
        <time>2019-06-15T14:38:21Z</time>
      </trkpt>
      <trkpt lat="43.286376" lon="-2.103691">
        <ele>125.992</ele>
        <time>2019-06-15T14:38:22Z</time>
      </trkpt>
      <trkpt lat="43.286308" lon="-2.103759">
        <ele>124.641</ele>
        <time>2019-06-15T14:38:23Z</time>
      </trkpt>
      <trkpt lat="43.286273" lon="-2.103874">
        <ele>125.540</ele>
        <time>2019-06-15T14:38:24Z</time>
      </trkpt>
      <trkpt lat="43.286221" lon="-2.103951">
        <ele>125.231</ele>
        <time>2019-06-15T14:38:25Z</time>
      </trkpt>
      <trkpt lat="43.286145" lon="-2.104008">
        <ele>123.780</ele>
        <time>2019-06-15T14:38:26Z</time>
      </trkpt>
      <trkpt lat="43.286068" lon="-2.104059">
        <ele>122.884</ele>
        <time>2019-06-15T14:38:27Z</time>
      </trkpt>
      <trkpt lat="43.285994" lon="-2.104110">
        <ele>122.696</ele>
        <time>2019-06-15T14:38:28Z</time>
      </trkpt>
      <trkpt lat="43.285922" lon="-2.104139">
        <ele>121.931</ele>
        <time>2019-06-15T14:38:29Z</time>
      </trkpt>
      <trkpt lat="43.285823" lon="-2.104167">
        <ele>120.824</ele>
        <time>2019-06-15T14:38:30Z</time>
      </trkpt>
      <trkpt lat="43.285735" lon="-2.104201">
        <ele>119.308</ele>
        <time>2019-06-15T14:38:31Z</time>
      </trkpt>
      <trkpt lat="43.285681" lon="-2.104334">
        <ele>119.862</ele>
        <time>2019-06-15T14:38:32Z</time>
      </trkpt>
      <trkpt lat="43.285609" lon="-2.104422">
        <ele>119.116</ele>
        <time>2019-06-15T14:38:33Z</time>
      </trkpt>
      <trkpt lat="43.285554" lon="-2.104536">
        <ele>118.395</ele>
        <time>2019-06-15T14:38:34Z</time>
      </trkpt>
      <trkpt lat="43.285510" lon="-2.104670">
        <ele>117.334</ele>
        <time>2019-06-15T14:38:35Z</time>
      </trkpt>
      <trkpt lat="43.285483" lon="-2.104795">
        <ele>116.823</ele>
        <time>2019-06-15T14:38:36Z</time>
      </trkpt>
      <trkpt lat="43.285454" lon="-2.104926">
        <ele>116.294</ele>
        <time>2019-06-15T14:38:37Z</time>
      </trkpt>
      <trkpt lat="43.285430" lon="-2.105063">
        <ele>115.653</ele>
        <time>2019-06-15T14:38:38Z</time>
      </trkpt>
      <trkpt lat="43.285398" lon="-2.105205">
        <ele>114.677</ele>
        <time>2019-06-15T14:38:39Z</time>
      </trkpt>
      <trkpt lat="43.285369" lon="-2.105350">
        <ele>113.664</ele>
        <time>2019-06-15T14:38:40Z</time>
      </trkpt>
      <trkpt lat="43.285356" lon="-2.105483">
        <ele>113.106</ele>
        <time>2019-06-15T14:38:41Z</time>
      </trkpt>
      <trkpt lat="43.285336" lon="-2.105640">
        <ele>112.416</ele>
        <time>2019-06-15T14:38:42Z</time>
      </trkpt>
      <trkpt lat="43.285316" lon="-2.105780">
        <ele>111.608</ele>
        <time>2019-06-15T14:38:43Z</time>
      </trkpt>
      <trkpt lat="43.285285" lon="-2.105915">
        <ele>110.329</ele>
        <time>2019-06-15T14:38:44Z</time>
      </trkpt>
      <trkpt lat="43.285256" lon="-2.106054">
        <ele>109.123</ele>
        <time>2019-06-15T14:38:45Z</time>
      </trkpt>
      <trkpt lat="43.285231" lon="-2.106210">
        <ele>108.932</ele>
        <time>2019-06-15T14:38:46Z</time>
      </trkpt>
      <trkpt lat="43.285183" lon="-2.106361">
        <ele>108.461</ele>
        <time>2019-06-15T14:38:47Z</time>
      </trkpt>
      <trkpt lat="43.285130" lon="-2.106509">
        <ele>107.560</ele>
        <time>2019-06-15T14:38:48Z</time>
      </trkpt>
      <trkpt lat="43.285078" lon="-2.106657">
        <ele>106.741</ele>
        <time>2019-06-15T14:38:49Z</time>
      </trkpt>
      <trkpt lat="43.285027" lon="-2.106795">
        <ele>105.480</ele>
        <time>2019-06-15T14:38:50Z</time>
      </trkpt>
      <trkpt lat="43.284991" lon="-2.106916">
        <ele>104.694</ele>
        <time>2019-06-15T14:38:51Z</time>
      </trkpt>
      <trkpt lat="43.284941" lon="-2.107025">
        <ele>102.949</ele>
        <time>2019-06-15T14:38:52Z</time>
      </trkpt>
      <trkpt lat="43.284896" lon="-2.107156">
        <ele>101.402</ele>
        <time>2019-06-15T14:38:53Z</time>
      </trkpt>
      <trkpt lat="43.284843" lon="-2.107267">
        <ele>99.922</ele>
        <time>2019-06-15T14:38:54Z</time>
      </trkpt>
      <trkpt lat="43.284785" lon="-2.107385">
        <ele>98.008</ele>
        <time>2019-06-15T14:38:55Z</time>
      </trkpt>
      <trkpt lat="43.284725" lon="-2.107492">
        <ele>96.197</ele>
        <time>2019-06-15T14:38:56Z</time>
      </trkpt>
      <trkpt lat="43.284698" lon="-2.107620">
        <ele>94.741</ele>
        <time>2019-06-15T14:38:57Z</time>
      </trkpt>
      <trkpt lat="43.284685" lon="-2.107713">
        <ele>93.960</ele>
        <time>2019-06-15T14:38:58Z</time>
      </trkpt>
      <trkpt lat="43.284703" lon="-2.107838">
        <ele>93.159</ele>
        <time>2019-06-15T14:38:59Z</time>
      </trkpt>
      <trkpt lat="43.284739" lon="-2.107938">
        <ele>92.718</ele>
        <time>2019-06-15T14:39:00Z</time>
      </trkpt>
      <trkpt lat="43.284738" lon="-2.108106">
        <ele>91.089</ele>
        <time>2019-06-15T14:39:01Z</time>
      </trkpt>
      <trkpt lat="43.284725" lon="-2.108265">
        <ele>89.698</ele>
        <time>2019-06-15T14:39:02Z</time>
      </trkpt>
      <trkpt lat="43.284710" lon="-2.108430">
        <ele>88.882</ele>
        <time>2019-06-15T14:39:03Z</time>
      </trkpt>
      <trkpt lat="43.284678" lon="-2.108552">
        <ele>88.345</ele>
        <time>2019-06-15T14:39:04Z</time>
      </trkpt>
      <trkpt lat="43.284631" lon="-2.108691">
        <ele>87.947</ele>
        <time>2019-06-15T14:39:05Z</time>
      </trkpt>
      <trkpt lat="43.284577" lon="-2.108833">
        <ele>87.511</ele>
        <time>2019-06-15T14:39:06Z</time>
      </trkpt>
      <trkpt lat="43.284551" lon="-2.108962">
        <ele>87.208</ele>
        <time>2019-06-15T14:39:07Z</time>
      </trkpt>
      <trkpt lat="43.284532" lon="-2.109086">
        <ele>86.727</ele>
        <time>2019-06-15T14:39:08Z</time>
      </trkpt>
      <trkpt lat="43.284537" lon="-2.109197">
        <ele>86.841</ele>
        <time>2019-06-15T14:39:09Z</time>
      </trkpt>
      <trkpt lat="43.284547" lon="-2.109313">
        <ele>86.430</ele>
        <time>2019-06-15T14:39:10Z</time>
      </trkpt>
      <trkpt lat="43.284557" lon="-2.109432">
        <ele>85.939</ele>
        <time>2019-06-15T14:39:11Z</time>
      </trkpt>
      <trkpt lat="43.284638" lon="-2.109522">
        <ele>86.168</ele>
        <time>2019-06-15T14:39:12Z</time>
      </trkpt>
      <trkpt lat="43.284697" lon="-2.109598">
        <ele>86.089</ele>
        <time>2019-06-15T14:39:13Z</time>
      </trkpt>
      <trkpt lat="43.284748" lon="-2.109716">
        <ele>84.688</ele>
        <time>2019-06-15T14:39:14Z</time>
      </trkpt>
      <trkpt lat="43.284786" lon="-2.109858">
        <ele>83.312</ele>
        <time>2019-06-15T14:39:15Z</time>
      </trkpt>
      <trkpt lat="43.284814" lon="-2.110000">
        <ele>81.739</ele>
        <time>2019-06-15T14:39:16Z</time>
      </trkpt>
      <trkpt lat="43.284822" lon="-2.110155">
        <ele>81.901</ele>
        <time>2019-06-15T14:39:17Z</time>
      </trkpt>
      <trkpt lat="43.284807" lon="-2.110308">
        <ele>82.021</ele>
        <time>2019-06-15T14:39:18Z</time>
      </trkpt>
      <trkpt lat="43.284758" lon="-2.110451">
        <ele>82.108</ele>
        <time>2019-06-15T14:39:19Z</time>
      </trkpt>
      <trkpt lat="43.284702" lon="-2.110588">
        <ele>82.116</ele>
        <time>2019-06-15T14:39:20Z</time>
      </trkpt>
      <trkpt lat="43.284641" lon="-2.110716">
        <ele>82.590</ele>
        <time>2019-06-15T14:39:21Z</time>
      </trkpt>
      <trkpt lat="43.284574" lon="-2.110839">
        <ele>82.459</ele>
        <time>2019-06-15T14:39:22Z</time>
      </trkpt>
      <trkpt lat="43.284489" lon="-2.110936">
        <ele>82.498</ele>
        <time>2019-06-15T14:39:23Z</time>
      </trkpt>
      <trkpt lat="43.284406" lon="-2.111024">
        <ele>82.257</ele>
        <time>2019-06-15T14:39:24Z</time>
      </trkpt>
      <trkpt lat="43.284318" lon="-2.111081">
        <ele>81.018</ele>
        <time>2019-06-15T14:39:25Z</time>
      </trkpt>
      <trkpt lat="43.284227" lon="-2.111138">
        <ele>79.017</ele>
        <time>2019-06-15T14:39:26Z</time>
      </trkpt>
      <trkpt lat="43.284119" lon="-2.111195">
        <ele>77.131</ele>
        <time>2019-06-15T14:39:27Z</time>
      </trkpt>
      <trkpt lat="43.284028" lon="-2.111211">
        <ele>76.451</ele>
        <time>2019-06-15T14:39:28Z</time>
      </trkpt>
      <trkpt lat="43.283906" lon="-2.111227">
        <ele>75.401</ele>
        <time>2019-06-15T14:39:29Z</time>
      </trkpt>
      <trkpt lat="43.283769" lon="-2.111233">
        <ele>74.411</ele>
        <time>2019-06-15T14:39:30Z</time>
      </trkpt>
      <trkpt lat="43.283646" lon="-2.111224">
        <ele>73.308</ele>
        <time>2019-06-15T14:39:31Z</time>
      </trkpt>
      <trkpt lat="43.283509" lon="-2.111226">
        <ele>72.228</ele>
        <time>2019-06-15T14:39:32Z</time>
      </trkpt>
      <trkpt lat="43.283376" lon="-2.111233">
        <ele>71.162</ele>
        <time>2019-06-15T14:39:33Z</time>
      </trkpt>
      <trkpt lat="43.283260" lon="-2.111233">
        <ele>69.851</ele>
        <time>2019-06-15T14:39:34Z</time>
      </trkpt>
      <trkpt lat="43.283143" lon="-2.111254">
        <ele>68.780</ele>
        <time>2019-06-15T14:39:35Z</time>
      </trkpt>
      <trkpt lat="43.283037" lon="-2.111290">
        <ele>67.639</ele>
        <time>2019-06-15T14:39:36Z</time>
      </trkpt>
      <trkpt lat="43.282949" lon="-2.111319">
        <ele>66.450</ele>
        <time>2019-06-15T14:39:37Z</time>
      </trkpt>
      <trkpt lat="43.282862" lon="-2.111360">
        <ele>65.349</ele>
        <time>2019-06-15T14:39:38Z</time>
      </trkpt>
      <trkpt lat="43.282800" lon="-2.111439">
        <ele>65.163</ele>
        <time>2019-06-15T14:39:39Z</time>
      </trkpt>
      <trkpt lat="43.282735" lon="-2.111515">
        <ele>64.764</ele>
        <time>2019-06-15T14:39:40Z</time>
      </trkpt>
      <trkpt lat="43.282668" lon="-2.111590">
        <ele>63.806</ele>
        <time>2019-06-15T14:39:41Z</time>
      </trkpt>
      <trkpt lat="43.282608" lon="-2.111647">
        <ele>62.916</ele>
        <time>2019-06-15T14:39:42Z</time>
      </trkpt>
      <trkpt lat="43.282552" lon="-2.111707">
        <ele>62.008</ele>
        <time>2019-06-15T14:39:43Z</time>
      </trkpt>
      <trkpt lat="43.282506" lon="-2.111749">
        <ele>61.139</ele>
        <time>2019-06-15T14:39:44Z</time>
      </trkpt>
      <trkpt lat="43.282473" lon="-2.111800">
        <ele>61.163</ele>
        <time>2019-06-15T14:39:45Z</time>
      </trkpt>
      <trkpt lat="43.282442" lon="-2.111873">
        <ele>61.482</ele>
        <time>2019-06-15T14:39:46Z</time>
      </trkpt>
      <trkpt lat="43.282417" lon="-2.111944">
        <ele>61.871</ele>
        <time>2019-06-15T14:39:47Z</time>
      </trkpt>
      <trkpt lat="43.282400" lon="-2.112035">
        <ele>62.290</ele>
        <time>2019-06-15T14:39:48Z</time>
      </trkpt>
      <trkpt lat="43.282374" lon="-2.112115">
        <ele>62.251</ele>
        <time>2019-06-15T14:39:49Z</time>
      </trkpt>
      <trkpt lat="43.282338" lon="-2.112172">
        <ele>61.770</ele>
        <time>2019-06-15T14:39:50Z</time>
      </trkpt>
      <trkpt lat="43.282288" lon="-2.112215">
        <ele>60.694</ele>
        <time>2019-06-15T14:39:51Z</time>
      </trkpt>
      <trkpt lat="43.282203" lon="-2.112218">
        <ele>58.799</ele>
        <time>2019-06-15T14:39:53Z</time>
      </trkpt>
      <trkpt lat="43.282150" lon="-2.112196">
        <ele>57.907</ele>
        <time>2019-06-15T14:39:54Z</time>
      </trkpt>
      <trkpt lat="43.282107" lon="-2.112155">
        <ele>57.127</ele>
        <time>2019-06-15T14:39:55Z</time>
      </trkpt>
      <trkpt lat="43.282061" lon="-2.112102">
        <ele>56.208</ele>
        <time>2019-06-15T14:39:56Z</time>
      </trkpt>
      <trkpt lat="43.282051" lon="-2.112005">
        <ele>55.632</ele>
        <time>2019-06-15T14:39:57Z</time>
      </trkpt>
      <trkpt lat="43.282056" lon="-2.111911">
        <ele>55.476</ele>
        <time>2019-06-15T14:39:58Z</time>
      </trkpt>
      <trkpt lat="43.282055" lon="-2.111826">
        <ele>55.485</ele>
        <time>2019-06-15T14:39:59Z</time>
      </trkpt>
      <trkpt lat="43.282094" lon="-2.111746">
        <ele>55.734</ele>
        <time>2019-06-15T14:40:00Z</time>
      </trkpt>
      <trkpt lat="43.282146" lon="-2.111686">
        <ele>55.833</ele>
        <time>2019-06-15T14:40:01Z</time>
      </trkpt>
      <trkpt lat="43.282208" lon="-2.111653">
        <ele>55.994</ele>
        <time>2019-06-15T14:40:02Z</time>
      </trkpt>
      <trkpt lat="43.282278" lon="-2.111655">
        <ele>56.743</ele>
        <time>2019-06-15T14:40:03Z</time>
      </trkpt>
      <trkpt lat="43.282345" lon="-2.111677">
        <ele>57.957</ele>
        <time>2019-06-15T14:40:04Z</time>
      </trkpt>
      <trkpt lat="43.282409" lon="-2.111716">
        <ele>59.282</ele>
        <time>2019-06-15T14:40:05Z</time>
      </trkpt>
      <trkpt lat="43.282430" lon="-2.111776">
        <ele>60.243</ele>
        <time>2019-06-15T14:40:06Z</time>
      </trkpt>
      <trkpt lat="43.282453" lon="-2.111863">
        <ele>61.417</ele>
        <time>2019-06-15T14:40:07Z</time>
      </trkpt>
      <trkpt lat="43.282453" lon="-2.111948">
        <ele>62.408</ele>
        <time>2019-06-15T14:40:08Z</time>
      </trkpt>
      <trkpt lat="43.282438" lon="-2.112021">
        <ele>62.761</ele>
        <time>2019-06-15T14:40:09Z</time>
      </trkpt>
      <trkpt lat="43.282412" lon="-2.112095">
        <ele>62.845</ele>
        <time>2019-06-15T14:40:10Z</time>
      </trkpt>
      <trkpt lat="43.282367" lon="-2.112159">
        <ele>62.314</ele>
        <time>2019-06-15T14:40:11Z</time>
      </trkpt>
      <trkpt lat="43.282305" lon="-2.112201">
        <ele>61.043</ele>
        <time>2019-06-15T14:40:12Z</time>
      </trkpt>
      <trkpt lat="43.282237" lon="-2.112228">
        <ele>59.472</ele>
        <time>2019-06-15T14:40:13Z</time>
      </trkpt>
      <trkpt lat="43.282176" lon="-2.112255">
        <ele>58.543</ele>
        <time>2019-06-15T14:40:14Z</time>
      </trkpt>
      <trkpt lat="43.282108" lon="-2.112287">
        <ele>57.662</ele>
        <time>2019-06-15T14:40:15Z</time>
      </trkpt>
      <trkpt lat="43.282043" lon="-2.112345">
        <ele>56.926</ele>
        <time>2019-06-15T14:40:16Z</time>
      </trkpt>
      <trkpt lat="43.281981" lon="-2.112414">
        <ele>56.245</ele>
        <time>2019-06-15T14:40:17Z</time>
      </trkpt>
      <trkpt lat="43.281929" lon="-2.112521">
        <ele>55.747</ele>
        <time>2019-06-15T14:40:18Z</time>
      </trkpt>
      <trkpt lat="43.281888" lon="-2.112645">
        <ele>55.011</ele>
        <time>2019-06-15T14:40:19Z</time>
      </trkpt>
      <trkpt lat="43.281843" lon="-2.112788">
        <ele>54.308</ele>
        <time>2019-06-15T14:40:20Z</time>
      </trkpt>
      <trkpt lat="43.281796" lon="-2.112934">
        <ele>55.077</ele>
        <time>2019-06-15T14:40:21Z</time>
      </trkpt>
      <trkpt lat="43.281748" lon="-2.113082">
        <ele>55.321</ele>
        <time>2019-06-15T14:40:22Z</time>
      </trkpt>
      <trkpt lat="43.281688" lon="-2.113231">
        <ele>54.910</ele>
        <time>2019-06-15T14:40:23Z</time>
      </trkpt>
      <trkpt lat="43.281628" lon="-2.113381">
        <ele>55.439</ele>
        <time>2019-06-15T14:40:24Z</time>
      </trkpt>
      <trkpt lat="43.281570" lon="-2.113556">
        <ele>56.528</ele>
        <time>2019-06-15T14:40:25Z</time>
      </trkpt>
      <trkpt lat="43.281518" lon="-2.113698">
        <ele>56.679</ele>
        <time>2019-06-15T14:40:26Z</time>
      </trkpt>
      <trkpt lat="43.281462" lon="-2.113844">
        <ele>55.588</ele>
        <time>2019-06-15T14:40:27Z</time>
      </trkpt>
      <trkpt lat="43.281400" lon="-2.113984">
        <ele>53.932</ele>
        <time>2019-06-15T14:40:28Z</time>
      </trkpt>
      <trkpt lat="43.281335" lon="-2.114123">
        <ele>55.333</ele>
        <time>2019-06-15T14:40:29Z</time>
      </trkpt>
      <trkpt lat="43.281271" lon="-2.114262">
        <ele>55.923</ele>
        <time>2019-06-15T14:40:30Z</time>
      </trkpt>
      <trkpt lat="43.280846" lon="-2.114695">
        <ele>48.815</ele>
        <time>2019-06-15T14:40:35Z</time>
      </trkpt>
      <trkpt lat="43.280757" lon="-2.114650">
        <ele>47.408</ele>
        <time>2019-06-15T14:40:36Z</time>
      </trkpt>
      <trkpt lat="43.280693" lon="-2.114635">
        <ele>46.756</ele>
        <time>2019-06-15T14:40:37Z</time>
      </trkpt>
      <trkpt lat="43.280570" lon="-2.114641">
        <ele>45.920</ele>
        <time>2019-06-15T14:40:38Z</time>
      </trkpt>
      <trkpt lat="43.280460" lon="-2.114662">
        <ele>46.469</ele>
        <time>2019-06-15T14:40:39Z</time>
      </trkpt>
      <trkpt lat="43.280358" lon="-2.114561">
        <ele>43.668</ele>
        <time>2019-06-15T14:40:40Z</time>
      </trkpt>
      <trkpt lat="43.280237" lon="-2.114536">
        <ele>42.157</ele>
        <time>2019-06-15T14:40:41Z</time>
      </trkpt>
      <trkpt lat="43.280120" lon="-2.114511">
        <ele>40.578</ele>
        <time>2019-06-15T14:40:42Z</time>
      </trkpt>
      <trkpt lat="43.279991" lon="-2.114486">
        <ele>38.427</ele>
        <time>2019-06-15T14:40:43Z</time>
      </trkpt>
      <trkpt lat="43.279863" lon="-2.114461">
        <ele>36.541</ele>
        <time>2019-06-15T14:40:44Z</time>
      </trkpt>
      <trkpt lat="43.279736" lon="-2.114442">
        <ele>35.088</ele>
        <time>2019-06-15T14:40:45Z</time>
      </trkpt>
      <trkpt lat="43.279605" lon="-2.114406">
        <ele>34.224</ele>
        <time>2019-06-15T14:40:46Z</time>
      </trkpt>
      <trkpt lat="43.279477" lon="-2.114332">
        <ele>33.026</ele>
        <time>2019-06-15T14:40:47Z</time>
      </trkpt>
      <trkpt lat="43.279351" lon="-2.114254">
        <ele>31.508</ele>
        <time>2019-06-15T14:40:48Z</time>
      </trkpt>
      <trkpt lat="43.279234" lon="-2.114174">
        <ele>28.951</ele>
        <time>2019-06-15T14:40:49Z</time>
      </trkpt>
      <trkpt lat="43.279119" lon="-2.114094">
        <ele>27.475</ele>
        <time>2019-06-15T14:40:50Z</time>
      </trkpt>
      <trkpt lat="43.279010" lon="-2.114006">
        <ele>25.984</ele>
        <time>2019-06-15T14:40:51Z</time>
      </trkpt>
      <trkpt lat="43.278919" lon="-2.113913">
        <ele>25.283</ele>
        <time>2019-06-15T14:40:52Z</time>
      </trkpt>
      <trkpt lat="43.278835" lon="-2.113802">
        <ele>24.772</ele>
        <time>2019-06-15T14:40:53Z</time>
      </trkpt>
      <trkpt lat="43.278764" lon="-2.113667">
        <ele>24.883</ele>
        <time>2019-06-15T14:40:54Z</time>
      </trkpt>
      <trkpt lat="43.278707" lon="-2.113527">
        <ele>24.732</ele>
        <time>2019-06-15T14:40:55Z</time>
      </trkpt>
      <trkpt lat="43.278651" lon="-2.113381">
        <ele>23.136</ele>
        <time>2019-06-15T14:40:56Z</time>
      </trkpt>
      <trkpt lat="43.278584" lon="-2.113252">
        <ele>20.939</ele>
        <time>2019-06-15T14:40:57Z</time>
      </trkpt>
      <trkpt lat="43.278512" lon="-2.113110">
        <ele>20.101</ele>
        <time>2019-06-15T14:40:58Z</time>
      </trkpt>
      <trkpt lat="43.278432" lon="-2.112996">
        <ele>19.121</ele>
        <time>2019-06-15T14:40:59Z</time>
      </trkpt>
      <trkpt lat="43.278342" lon="-2.112888">
        <ele>17.708</ele>
        <time>2019-06-15T14:41:00Z</time>
      </trkpt>
      <trkpt lat="43.278248" lon="-2.112835">
        <ele>17.446</ele>
        <time>2019-06-15T14:41:01Z</time>
      </trkpt>
      <trkpt lat="43.278149" lon="-2.112835">
        <ele>16.650</ele>
        <time>2019-06-15T14:41:02Z</time>
      </trkpt>
      <trkpt lat="43.277996" lon="-2.112916">
        <ele>14.629</ele>
        <time>2019-06-15T14:41:03Z</time>
      </trkpt>
      <trkpt lat="43.277880" lon="-2.112936">
        <ele>15.048</ele>
        <time>2019-06-15T14:41:04Z</time>
      </trkpt>
      <trkpt lat="43.277736" lon="-2.113016">
        <ele>13.317</ele>
        <time>2019-06-15T14:41:05Z</time>
      </trkpt>
      <trkpt lat="43.277621" lon="-2.113044">
        <ele>12.488</ele>
        <time>2019-06-15T14:41:06Z</time>
      </trkpt>
      <trkpt lat="43.277498" lon="-2.113093">
        <ele>11.337</ele>
        <time>2019-06-15T14:41:07Z</time>
      </trkpt>
      <trkpt lat="43.277379" lon="-2.113149">
        <ele>9.381</ele>
        <time>2019-06-15T14:41:08Z</time>
      </trkpt>
      <trkpt lat="43.277275" lon="-2.113200">
        <ele>7.826</ele>
        <time>2019-06-15T14:41:09Z</time>
      </trkpt>
      <trkpt lat="43.277181" lon="-2.113245">
        <ele>6.747</ele>
        <time>2019-06-15T14:41:10Z</time>
      </trkpt>
      <trkpt lat="43.277092" lon="-2.113278">
        <ele>5.811</ele>
        <time>2019-06-15T14:41:11Z</time>
      </trkpt>
      <trkpt lat="43.277021" lon="-2.113332">
        <ele>5.308</ele>
        <time>2019-06-15T14:41:12Z</time>
      </trkpt>
      <trkpt lat="43.276960" lon="-2.113409">
        <ele>4.895</ele>
        <time>2019-06-15T14:41:13Z</time>
      </trkpt>
      <trkpt lat="43.276925" lon="-2.113513">
        <ele>4.479</ele>
        <time>2019-06-15T14:41:14Z</time>
      </trkpt>
      <trkpt lat="43.276883" lon="-2.113616">
        <ele>4.218</ele>
        <time>2019-06-15T14:41:15Z</time>
      </trkpt>
      <trkpt lat="43.276889" lon="-2.113689">
        <ele>4.417</ele>
        <time>2019-06-15T14:41:16Z</time>
      </trkpt>
      <trkpt lat="43.276874" lon="-2.113795">
        <ele>4.716</ele>
        <time>2019-06-15T14:41:17Z</time>
      </trkpt>
      <trkpt lat="43.276869" lon="-2.113928">
        <ele>5.167</ele>
        <time>2019-06-15T14:41:18Z</time>
      </trkpt>
      <trkpt lat="43.276876" lon="-2.114072">
        <ele>5.566</ele>
        <time>2019-06-15T14:41:19Z</time>
      </trkpt>
      <trkpt lat="43.276895" lon="-2.114253">
        <ele>6.680</ele>
        <time>2019-06-15T14:41:20Z</time>
      </trkpt>
      <trkpt lat="43.276921" lon="-2.114433">
        <ele>8.558</ele>
        <time>2019-06-15T14:41:21Z</time>
      </trkpt>
      <trkpt lat="43.276933" lon="-2.114641">
        <ele>8.252</ele>
        <time>2019-06-15T14:41:22Z</time>
      </trkpt>
      <trkpt lat="43.276968" lon="-2.114828">
        <ele>7.617</ele>
        <time>2019-06-15T14:41:23Z</time>
      </trkpt>
      <trkpt lat="43.277023" lon="-2.115015">
        <ele>7.108</ele>
        <time>2019-06-15T14:41:24Z</time>
      </trkpt>
      <trkpt lat="43.277100" lon="-2.115201">
        <ele>6.748</ele>
        <time>2019-06-15T14:41:25Z</time>
      </trkpt>
      <trkpt lat="43.277172" lon="-2.115383">
        <ele>5.952</ele>
        <time>2019-06-15T14:41:26Z</time>
      </trkpt>
      <trkpt lat="43.277249" lon="-2.115569">
        <ele>5.861</ele>
        <time>2019-06-15T14:41:27Z</time>
      </trkpt>
      <trkpt lat="43.277319" lon="-2.115758">
        <ele>7.930</ele>
        <time>2019-06-15T14:41:28Z</time>
      </trkpt>
      <trkpt lat="43.277378" lon="-2.115963">
        <ele>10.299</ele>
        <time>2019-06-15T14:41:29Z</time>
      </trkpt>
      <trkpt lat="43.277422" lon="-2.116154">
        <ele>11.820</ele>
        <time>2019-06-15T14:41:30Z</time>
      </trkpt>
      <trkpt lat="43.277460" lon="-2.116341">
        <ele>12.759</ele>
        <time>2019-06-15T14:41:31Z</time>
      </trkpt>
      <trkpt lat="43.277465" lon="-2.116548">
        <ele>10.713</ele>
        <time>2019-06-15T14:41:32Z</time>
      </trkpt>
      <trkpt lat="43.277475" lon="-2.116741">
        <ele>12.148</ele>
        <time>2019-06-15T14:41:33Z</time>
      </trkpt>
      <trkpt lat="43.277379" lon="-2.116963">
        <ele>13.861</ele>
        <time>2019-06-15T14:41:34Z</time>
      </trkpt>
      <trkpt lat="43.277313" lon="-2.117165">
        <ele>11.417</ele>
        <time>2019-06-15T14:41:35Z</time>
      </trkpt>
      <trkpt lat="43.277229" lon="-2.117387">
        <ele>9.608</ele>
        <time>2019-06-15T14:41:36Z</time>
      </trkpt>
      <trkpt lat="43.277148" lon="-2.117605">
        <ele>12.477</ele>
        <time>2019-06-15T14:41:37Z</time>
      </trkpt>
      <trkpt lat="43.277053" lon="-2.117855">
        <ele>11.421</ele>
        <time>2019-06-15T14:41:38Z</time>
      </trkpt>
      <trkpt lat="43.276957" lon="-2.118055">
        <ele>6.940</ele>
        <time>2019-06-15T14:41:39Z</time>
      </trkpt>
      <trkpt lat="43.276873" lon="-2.118240">
        <ele>8.439</ele>
        <time>2019-06-15T14:41:40Z</time>
      </trkpt>
      <trkpt lat="43.276789" lon="-2.118431">
        <ele>10.128</ele>
        <time>2019-06-15T14:41:41Z</time>
      </trkpt>
      <trkpt lat="43.276705" lon="-2.118590">
        <ele>9.249</ele>
        <time>2019-06-15T14:41:42Z</time>
      </trkpt>
      <trkpt lat="43.276623" lon="-2.118764">
        <ele>9.198</ele>
        <time>2019-06-15T14:41:43Z</time>
      </trkpt>
      <trkpt lat="43.276549" lon="-2.118921">
        <ele>8.982</ele>
        <time>2019-06-15T14:41:44Z</time>
      </trkpt>
      <trkpt lat="43.276477" lon="-2.119070">
        <ele>7.099</ele>
        <time>2019-06-15T14:41:45Z</time>
      </trkpt>
      <trkpt lat="43.276462" lon="-2.119265">
        <ele>7.607</ele>
        <time>2019-06-15T14:41:46Z</time>
      </trkpt>
      <trkpt lat="43.276438" lon="-2.119467">
        <ele>8.027</ele>
        <time>2019-06-15T14:41:47Z</time>
      </trkpt>
      <trkpt lat="43.276408" lon="-2.119671">
        <ele>6.908</ele>
        <time>2019-06-15T14:41:48Z</time>
      </trkpt>
      <trkpt lat="43.276399" lon="-2.119887">
        <ele>7.152</ele>
        <time>2019-06-15T14:41:49Z</time>
      </trkpt>
      <trkpt lat="43.276408" lon="-2.120114">
        <ele>7.746</ele>
        <time>2019-06-15T14:41:50Z</time>
      </trkpt>
      <trkpt lat="43.276411" lon="-2.120330">
        <ele>7.465</ele>
        <time>2019-06-15T14:41:51Z</time>
      </trkpt>
      <trkpt lat="43.276423" lon="-2.120539">
        <ele>8.174</ele>
        <time>2019-06-15T14:41:52Z</time>
      </trkpt>
      <trkpt lat="43.276450" lon="-2.120727">
        <ele>8.793</ele>
        <time>2019-06-15T14:41:53Z</time>
      </trkpt>
      <trkpt lat="43.276477" lon="-2.120917">
        <ele>8.264</ele>
        <time>2019-06-15T14:41:54Z</time>
      </trkpt>
      <trkpt lat="43.276571" lon="-2.121091">
        <ele>8.193</ele>
        <time>2019-06-15T14:41:55Z</time>
      </trkpt>
      <trkpt lat="43.276625" lon="-2.121285">
        <ele>6.387</ele>
        <time>2019-06-15T14:41:56Z</time>
      </trkpt>
      <trkpt lat="43.276692" lon="-2.121474">
        <ele>5.956</ele>
        <time>2019-06-15T14:41:57Z</time>
      </trkpt>
      <trkpt lat="43.276777" lon="-2.121657">
        <ele>6.959</ele>
        <time>2019-06-15T14:41:58Z</time>
      </trkpt>
      <trkpt lat="43.276858" lon="-2.121846">
        <ele>6.414</ele>
        <time>2019-06-15T14:41:59Z</time>
      </trkpt>
      <trkpt lat="43.276934" lon="-2.122034">
        <ele>5.308</ele>
        <time>2019-06-15T14:42:00Z</time>
      </trkpt>
      <trkpt lat="43.276983" lon="-2.122236">
        <ele>5.548</ele>
        <time>2019-06-15T14:42:01Z</time>
      </trkpt>
      <trkpt lat="43.277046" lon="-2.122424">
        <ele>6.512</ele>
        <time>2019-06-15T14:42:02Z</time>
      </trkpt>
      <trkpt lat="43.277093" lon="-2.122612">
        <ele>7.311</ele>
        <time>2019-06-15T14:42:03Z</time>
      </trkpt>
      <trkpt lat="43.277138" lon="-2.122791">
        <ele>8.530</ele>
        <time>2019-06-15T14:42:04Z</time>
      </trkpt>
      <trkpt lat="43.277095" lon="-2.122950">
        <ele>6.769</ele>
        <time>2019-06-15T14:42:05Z</time>
      </trkpt>
      <trkpt lat="43.277108" lon="-2.123120">
        <ele>6.760</ele>
        <time>2019-06-15T14:42:06Z</time>
      </trkpt>
      <trkpt lat="43.277113" lon="-2.123270">
        <ele>6.979</ele>
        <time>2019-06-15T14:42:07Z</time>
      </trkpt>
      <trkpt lat="43.277124" lon="-2.123417">
        <ele>6.443</ele>
        <time>2019-06-15T14:42:08Z</time>
      </trkpt>
      <trkpt lat="43.277125" lon="-2.123548">
        <ele>5.291</ele>
        <time>2019-06-15T14:42:09Z</time>
      </trkpt>
      <trkpt lat="43.277113" lon="-2.123670">
        <ele>5.281</ele>
        <time>2019-06-15T14:42:10Z</time>
      </trkpt>
      <trkpt lat="43.277109" lon="-2.123824">
        <ele>7.319</ele>
        <time>2019-06-15T14:42:11Z</time>
      </trkpt>
      <trkpt lat="43.277103" lon="-2.123956">
        <ele>8.908</ele>
        <time>2019-06-15T14:42:12Z</time>
      </trkpt>
      <trkpt lat="43.277072" lon="-2.124077">
        <ele>9.462</ele>
        <time>2019-06-15T14:42:13Z</time>
      </trkpt>
      <trkpt lat="43.277031" lon="-2.124172">
        <ele>8.836</ele>
        <time>2019-06-15T14:42:14Z</time>
      </trkpt>
      <trkpt lat="43.277019" lon="-2.124250">
        <ele>8.935</ele>
        <time>2019-06-15T14:42:16Z</time>
      </trkpt>
      <trkpt lat="43.276992" lon="-2.124320">
        <ele>8.324</ele>
        <time>2019-06-15T14:42:18Z</time>
      </trkpt>
      <trkpt lat="43.276967" lon="-2.124386">
        <ele>7.673</ele>
        <time>2019-06-15T14:42:20Z</time>
      </trkpt>
      <trkpt lat="43.276941" lon="-2.124463">
        <ele>7.224</ele>
        <time>2019-06-15T14:42:21Z</time>
      </trkpt>
      <trkpt lat="43.276913" lon="-2.124543">
        <ele>8.043</ele>
        <time>2019-06-15T14:42:22Z</time>
      </trkpt>
      <trkpt lat="43.276824" lon="-2.124688">
        <ele>8.197</ele>
        <time>2019-06-15T14:42:23Z</time>
      </trkpt>
      <trkpt lat="43.276774" lon="-2.124793">
        <ele>8.173</ele>
        <time>2019-06-15T14:42:24Z</time>
      </trkpt>
      <trkpt lat="43.276721" lon="-2.124905">
        <ele>7.585</ele>
        <time>2019-06-15T14:42:25Z</time>
      </trkpt>
      <trkpt lat="43.276685" lon="-2.124993">
        <ele>6.713</ele>
        <time>2019-06-15T14:42:26Z</time>
      </trkpt>
      <trkpt lat="43.276636" lon="-2.125090">
        <ele>6.808</ele>
        <time>2019-06-15T14:42:27Z</time>
      </trkpt>
      <trkpt lat="43.276596" lon="-2.125186">
        <ele>7.210</ele>
        <time>2019-06-15T14:42:28Z</time>
      </trkpt>
      <trkpt lat="43.276528" lon="-2.125282">
        <ele>7.164</ele>
        <time>2019-06-15T14:42:29Z</time>
      </trkpt>
      <trkpt lat="43.276468" lon="-2.125346">
        <ele>6.723</ele>
        <time>2019-06-15T14:42:30Z</time>
      </trkpt>
      <trkpt lat="43.276423" lon="-2.125467">
        <ele>6.642</ele>
        <time>2019-06-15T14:42:31Z</time>
      </trkpt>
      <trkpt lat="43.276352" lon="-2.125567">
        <ele>5.831</ele>
        <time>2019-06-15T14:42:32Z</time>
      </trkpt>
      <trkpt lat="43.276277" lon="-2.125652">
        <ele>5.572</ele>
        <time>2019-06-15T14:42:33Z</time>
      </trkpt>
      <trkpt lat="43.276193" lon="-2.125712">
        <ele>5.281</ele>
        <time>2019-06-15T14:42:34Z</time>
      </trkpt>
      <trkpt lat="43.276120" lon="-2.125793">
        <ele>4.975</ele>
        <time>2019-06-15T14:42:35Z</time>
      </trkpt>
      <trkpt lat="43.276046" lon="-2.125852">
        <ele>4.287</ele>
        <time>2019-06-15T14:42:36Z</time>
      </trkpt>
      <trkpt lat="43.275941" lon="-2.125790">
        <ele>3.042</ele>
        <time>2019-06-15T14:42:37Z</time>
      </trkpt>
      <trkpt lat="43.275831" lon="-2.125775">
        <ele>1.826</ele>
        <time>2019-06-15T14:42:38Z</time>
      </trkpt>
      <trkpt lat="43.275750" lon="-2.125763">
        <ele>1.208</ele>
        <time>2019-06-15T14:42:39Z</time>
      </trkpt>
      <trkpt lat="43.275653" lon="-2.125739">
        <ele>0.641</ele>
        <time>2019-06-15T14:42:40Z</time>
      </trkpt>
      <trkpt lat="43.275566" lon="-2.125737">
        <ele>0.145</ele>
        <time>2019-06-15T14:42:41Z</time>
      </trkpt>
      <trkpt lat="43.275475" lon="-2.125718">
        <ele>0.064</ele>
        <time>2019-06-15T14:42:42Z</time>
      </trkpt>
      <trkpt lat="43.275374" lon="-2.125704">
        <ele>0.033</ele>
        <time>2019-06-15T14:42:43Z</time>
      </trkpt>
      <trkpt lat="43.275269" lon="-2.125685">
        <ele>0.062</ele>
        <time>2019-06-15T14:42:44Z</time>
      </trkpt>
      <trkpt lat="43.275172" lon="-2.125674">
        <ele>0.013</ele>
        <time>2019-06-15T14:42:45Z</time>
      </trkpt>
      <trkpt lat="43.275084" lon="-2.125660">
        <ele>0.082</ele>
        <time>2019-06-15T14:42:46Z</time>
      </trkpt>
      <trkpt lat="43.274989" lon="-2.125641">
        <ele>0.116</ele>
        <time>2019-06-15T14:42:47Z</time>
      </trkpt>
      <trkpt lat="43.274900" lon="-2.125616">
        <ele>1.338</ele>
        <time>2019-06-15T14:42:48Z</time>
      </trkpt>
      <trkpt lat="43.274820" lon="-2.125621">
        <ele>2.370</ele>
        <time>2019-06-15T14:42:49Z</time>
      </trkpt>
      <trkpt lat="43.274726" lon="-2.125598">
        <ele>3.617</ele>
        <time>2019-06-15T14:42:50Z</time>
      </trkpt>
      <trkpt lat="43.274651" lon="-2.125586">
        <ele>4.308</ele>
        <time>2019-06-15T14:42:51Z</time>
      </trkpt>
      <trkpt lat="43.274583" lon="-2.125594">
        <ele>4.916</ele>
        <time>2019-06-15T14:42:52Z</time>
      </trkpt>
      <trkpt lat="43.274509" lon="-2.125618">
        <ele>5.450</ele>
        <time>2019-06-15T14:42:53Z</time>
      </trkpt>
      <trkpt lat="43.274443" lon="-2.125670">
        <ele>6.089</ele>
        <time>2019-06-15T14:42:54Z</time>
      </trkpt>
      <trkpt lat="43.274386" lon="-2.125735">
        <ele>6.858</ele>
        <time>2019-06-15T14:42:55Z</time>
      </trkpt>
      <trkpt lat="43.274327" lon="-2.125804">
        <ele>7.687</ele>
        <time>2019-06-15T14:42:56Z</time>
      </trkpt>
      <trkpt lat="43.274309" lon="-2.125920">
        <ele>8.148</ele>
        <time>2019-06-15T14:42:57Z</time>
      </trkpt>
      <trkpt lat="43.274267" lon="-2.126015">
        <ele>9.027</ele>
        <time>2019-06-15T14:42:58Z</time>
      </trkpt>
      <trkpt lat="43.274348" lon="-2.126223">
        <ele>7.991</ele>
        <time>2019-06-15T14:42:59Z</time>
      </trkpt>
      <trkpt lat="43.274361" lon="-2.126389">
        <ele>7.823</ele>
        <time>2019-06-15T14:43:00Z</time>
      </trkpt>
      <trkpt lat="43.274366" lon="-2.126543">
        <ele>7.783</ele>
        <time>2019-06-15T14:43:01Z</time>
      </trkpt>
      <trkpt lat="43.274372" lon="-2.126725">
        <ele>7.611</ele>
        <time>2019-06-15T14:43:02Z</time>
      </trkpt>
      <trkpt lat="43.274347" lon="-2.126871">
        <ele>8.408</ele>
        <time>2019-06-15T14:43:03Z</time>
      </trkpt>
      <trkpt lat="43.274367" lon="-2.127058">
        <ele>8.385</ele>
        <time>2019-06-15T14:43:04Z</time>
      </trkpt>
      <trkpt lat="43.274348" lon="-2.127232">
        <ele>9.569</ele>
        <time>2019-06-15T14:43:05Z</time>
      </trkpt>
      <trkpt lat="43.274380" lon="-2.127391">
        <ele>8.918</ele>
        <time>2019-06-15T14:43:06Z</time>
      </trkpt>
      <trkpt lat="43.274391" lon="-2.127583">
        <ele>8.677</ele>
        <time>2019-06-15T14:43:07Z</time>
      </trkpt>
      <trkpt lat="43.274405" lon="-2.127794">
        <ele>7.396</ele>
        <time>2019-06-15T14:43:08Z</time>
      </trkpt>
      <trkpt lat="43.274398" lon="-2.127982">
        <ele>6.737</ele>
        <time>2019-06-15T14:43:09Z</time>
      </trkpt>
      <trkpt lat="43.274395" lon="-2.128164">
        <ele>6.136</ele>
        <time>2019-06-15T14:43:10Z</time>
      </trkpt>
      <trkpt lat="43.274404" lon="-2.128364">
        <ele>5.530</ele>
        <time>2019-06-15T14:43:11Z</time>
      </trkpt>
      <trkpt lat="43.274400" lon="-2.128551">
        <ele>5.067</ele>
        <time>2019-06-15T14:43:12Z</time>
      </trkpt>
      <trkpt lat="43.274403" lon="-2.128740">
        <ele>4.481</ele>
        <time>2019-06-15T14:43:13Z</time>
      </trkpt>
      <trkpt lat="43.274404" lon="-2.128936">
        <ele>3.419</ele>
        <time>2019-06-15T14:43:14Z</time>
      </trkpt>
      <trkpt lat="43.274427" lon="-2.129119">
        <ele>1.608</ele>
        <time>2019-06-15T14:43:15Z</time>
      </trkpt>
      <trkpt lat="43.274430" lon="-2.129329">
        <ele>1.189</ele>
        <time>2019-06-15T14:43:16Z</time>
      </trkpt>
      <trkpt lat="43.274429" lon="-2.129532">
        <ele>1.173</ele>
        <time>2019-06-15T14:43:17Z</time>
      </trkpt>
      <trkpt lat="43.274438" lon="-2.129728">
        <ele>1.082</ele>
        <time>2019-06-15T14:43:18Z</time>
      </trkpt>
      <trkpt lat="43.274448" lon="-2.129930">
        <ele>1.061</ele>
        <time>2019-06-15T14:43:19Z</time>
      </trkpt>
      <trkpt lat="43.274469" lon="-2.130115">
        <ele>0.910</ele>
        <time>2019-06-15T14:43:20Z</time>
      </trkpt>
      <trkpt lat="43.274512" lon="-2.130301">
        <ele>0.751</ele>
        <time>2019-06-15T14:43:21Z</time>
      </trkpt>
      <trkpt lat="43.274565" lon="-2.130487">
        <ele>0.180</ele>
        <time>2019-06-15T14:43:22Z</time>
      </trkpt>
      <trkpt lat="43.274627" lon="-2.130648">
        <ele>0.264</ele>
        <time>2019-06-15T14:43:23Z</time>
      </trkpt>
      <trkpt lat="43.274680" lon="-2.130808">
        <ele>0.878</ele>
        <time>2019-06-15T14:43:24Z</time>
      </trkpt>
      <trkpt lat="43.274723" lon="-2.130976">
        <ele>3.633</ele>
        <time>2019-06-15T14:43:25Z</time>
      </trkpt>
      <trkpt lat="43.274764" lon="-2.131145">
        <ele>5.826</ele>
        <time>2019-06-15T14:43:26Z</time>
      </trkpt>
      <trkpt lat="43.274774" lon="-2.131341">
        <ele>7.908</ele>
        <time>2019-06-15T14:43:27Z</time>
      </trkpt>
      <trkpt lat="43.274769" lon="-2.131510">
        <ele>9.480</ele>
        <time>2019-06-15T14:43:28Z</time>
      </trkpt>
      <trkpt lat="43.274744" lon="-2.131685">
        <ele>10.844</ele>
        <time>2019-06-15T14:43:29Z</time>
      </trkpt>
      <trkpt lat="43.274697" lon="-2.131848">
        <ele>11.583</ele>
        <time>2019-06-15T14:43:30Z</time>
      </trkpt>
      <trkpt lat="43.274597" lon="-2.131997">
        <ele>12.452</ele>
        <time>2019-06-15T14:43:31Z</time>
      </trkpt>
      <trkpt lat="43.274483" lon="-2.132148">
        <ele>15.221</ele>
        <time>2019-06-15T14:43:32Z</time>
      </trkpt>
      <trkpt lat="43.274387" lon="-2.132287">
        <ele>17.352</ele>
        <time>2019-06-15T14:43:33Z</time>
      </trkpt>
      <trkpt lat="43.274279" lon="-2.132436">
        <ele>18.911</ele>
        <time>2019-06-15T14:43:34Z</time>
      </trkpt>
      <trkpt lat="43.274155" lon="-2.132568">
        <ele>20.075</ele>
        <time>2019-06-15T14:43:35Z</time>
      </trkpt>
      <trkpt lat="43.274031" lon="-2.132671">
        <ele>19.999</ele>
        <time>2019-06-15T14:43:36Z</time>
      </trkpt>
      <trkpt lat="43.273905" lon="-2.132808">
        <ele>22.107</ele>
        <time>2019-06-15T14:43:37Z</time>
      </trkpt>
      <trkpt lat="43.273759" lon="-2.132926">
        <ele>23.827</ele>
        <time>2019-06-15T14:43:38Z</time>
      </trkpt>
      <trkpt lat="43.273622" lon="-2.133037">
        <ele>24.508</ele>
        <time>2019-06-15T14:43:39Z</time>
      </trkpt>
      <trkpt lat="43.273494" lon="-2.133141">
        <ele>28.772</ele>
        <time>2019-06-15T14:43:40Z</time>
      </trkpt>
      <trkpt lat="43.273375" lon="-2.133260">
        <ele>31.046</ele>
        <time>2019-06-15T14:43:41Z</time>
      </trkpt>
      <trkpt lat="43.273264" lon="-2.133402">
        <ele>33.295</ele>
        <time>2019-06-15T14:43:42Z</time>
      </trkpt>
      <trkpt lat="43.273144" lon="-2.133549">
        <ele>33.754</ele>
        <time>2019-06-15T14:43:43Z</time>
      </trkpt>
      <trkpt lat="43.273062" lon="-2.133720">
        <ele>34.483</ele>
        <time>2019-06-15T14:43:44Z</time>
      </trkpt>
      <trkpt lat="43.272969" lon="-2.133896">
        <ele>36.294</ele>
        <time>2019-06-15T14:43:45Z</time>
      </trkpt>
      <trkpt lat="43.272895" lon="-2.134077">
        <ele>35.473</ele>
        <time>2019-06-15T14:43:46Z</time>
      </trkpt>
      <trkpt lat="43.272835" lon="-2.134263">
        <ele>35.327</ele>
        <time>2019-06-15T14:43:47Z</time>
      </trkpt>
      <trkpt lat="43.272780" lon="-2.134457">
        <ele>35.213</ele>
        <time>2019-06-15T14:43:48Z</time>
      </trkpt>
      <trkpt lat="43.272717" lon="-2.134639">
        <ele>36.743</ele>
        <time>2019-06-15T14:43:49Z</time>
      </trkpt>
      <trkpt lat="43.272673" lon="-2.134829">
        <ele>41.707</ele>
        <time>2019-06-15T14:43:50Z</time>
      </trkpt>
      <trkpt lat="43.272626" lon="-2.135013">
        <ele>46.508</ele>
        <time>2019-06-15T14:43:51Z</time>
      </trkpt>
      <trkpt lat="43.272562" lon="-2.135187">
        <ele>46.624</ele>
        <time>2019-06-15T14:43:52Z</time>
      </trkpt>
      <trkpt lat="43.272490" lon="-2.135346">
        <ele>47.398</ele>
        <time>2019-06-15T14:43:53Z</time>
      </trkpt>
      <trkpt lat="43.272392" lon="-2.135493">
        <ele>48.917</ele>
        <time>2019-06-15T14:43:54Z</time>
      </trkpt>
      <trkpt lat="43.272314" lon="-2.135618">
        <ele>50.536</ele>
        <time>2019-06-15T14:43:55Z</time>
      </trkpt>
      <trkpt lat="43.272191" lon="-2.135739">
        <ele>50.875</ele>
        <time>2019-06-15T14:43:56Z</time>
      </trkpt>
      <trkpt lat="43.272072" lon="-2.135863">
        <ele>51.286</ele>
        <time>2019-06-15T14:43:57Z</time>
      </trkpt>
      <trkpt lat="43.271958" lon="-2.135978">
        <ele>50.825</ele>
        <time>2019-06-15T14:43:58Z</time>
      </trkpt>
      <trkpt lat="43.271846" lon="-2.136104">
        <ele>51.919</ele>
        <time>2019-06-15T14:43:59Z</time>
      </trkpt>
      <trkpt lat="43.271741" lon="-2.136203">
        <ele>52.444</ele>
        <time>2019-06-15T14:44:00Z</time>
      </trkpt>
      <trkpt lat="43.271582" lon="-2.136336">
        <ele>52.805</ele>
        <time>2019-06-15T14:44:01Z</time>
      </trkpt>
      <trkpt lat="43.271471" lon="-2.136457">
        <ele>54.315</ele>
        <time>2019-06-15T14:44:02Z</time>
      </trkpt>
      <trkpt lat="43.271323" lon="-2.136586">
        <ele>55.608</ele>
        <time>2019-06-15T14:44:03Z</time>
      </trkpt>
      <trkpt lat="43.271207" lon="-2.136684">
        <ele>55.827</ele>
        <time>2019-06-15T14:44:04Z</time>
      </trkpt>
      <trkpt lat="43.271084" lon="-2.136788">
        <ele>56.311</ele>
        <time>2019-06-15T14:44:05Z</time>
      </trkpt>
      <trkpt lat="43.270950" lon="-2.136851">
        <ele>56.010</ele>
        <time>2019-06-15T14:44:06Z</time>
      </trkpt>
      <trkpt lat="43.270854" lon="-2.136883">
        <ele>54.949</ele>
        <time>2019-06-15T14:44:07Z</time>
      </trkpt>
      <trkpt lat="43.270750" lon="-2.136932">
        <ele>56.668</ele>
        <time>2019-06-15T14:44:08Z</time>
      </trkpt>
      <trkpt lat="43.270651" lon="-2.136848">
        <ele>55.899</ele>
        <time>2019-06-15T14:44:09Z</time>
      </trkpt>
      <trkpt lat="43.270555" lon="-2.136805">
        <ele>56.088</ele>
        <time>2019-06-15T14:44:10Z</time>
      </trkpt>
      <trkpt lat="43.270473" lon="-2.136712">
        <ele>56.932</ele>
        <time>2019-06-15T14:44:11Z</time>
      </trkpt>
      <trkpt lat="43.270412" lon="-2.136594">
        <ele>57.437</ele>
        <time>2019-06-15T14:44:12Z</time>
      </trkpt>
      <trkpt lat="43.270364" lon="-2.136472">
        <ele>58.149</ele>
        <time>2019-06-15T14:44:13Z</time>
      </trkpt>
      <trkpt lat="43.270342" lon="-2.136317">
        <ele>58.013</ele>
        <time>2019-06-15T14:44:14Z</time>
      </trkpt>
      <trkpt lat="43.270334" lon="-2.136144">
        <ele>57.908</ele>
        <time>2019-06-15T14:44:15Z</time>
      </trkpt>
      <trkpt lat="43.270345" lon="-2.135948">
        <ele>57.486</ele>
        <time>2019-06-15T14:44:16Z</time>
      </trkpt>
      <trkpt lat="43.270344" lon="-2.135758">
        <ele>57.860</ele>
        <time>2019-06-15T14:44:17Z</time>
      </trkpt>
      <trkpt lat="43.270332" lon="-2.135558">
        <ele>58.719</ele>
        <time>2019-06-15T14:44:18Z</time>
      </trkpt>
      <trkpt lat="43.270353" lon="-2.135387">
        <ele>58.668</ele>
        <time>2019-06-15T14:44:19Z</time>
      </trkpt>
      <trkpt lat="43.270369" lon="-2.135229">
        <ele>58.577</ele>
        <time>2019-06-15T14:44:20Z</time>
      </trkpt>
      <trkpt lat="43.270358" lon="-2.135088">
        <ele>59.528</ele>
        <time>2019-06-15T14:44:21Z</time>
      </trkpt>
      <trkpt lat="43.270361" lon="-2.134981">
        <ele>59.597</ele>
        <time>2019-06-15T14:44:22Z</time>
      </trkpt>
      <trkpt lat="43.270313" lon="-2.134923">
        <ele>61.911</ele>
        <time>2019-06-15T14:44:23Z</time>
      </trkpt>
      <trkpt lat="43.270264" lon="-2.134856">
        <ele>63.638</ele>
        <time>2019-06-15T14:44:24Z</time>
      </trkpt>
      <trkpt lat="43.270217" lon="-2.134831">
        <ele>63.970</ele>
        <time>2019-06-15T14:44:25Z</time>
      </trkpt>
      <trkpt lat="43.270187" lon="-2.134940">
        <ele>65.317</ele>
        <time>2019-06-15T14:44:26Z</time>
      </trkpt>
      <trkpt lat="43.270181" lon="-2.135053">
        <ele>66.508</ele>
        <time>2019-06-15T14:44:27Z</time>
      </trkpt>
      <trkpt lat="43.270175" lon="-2.135176">
        <ele>67.656</ele>
        <time>2019-06-15T14:44:28Z</time>
      </trkpt>
      <trkpt lat="43.270188" lon="-2.135339">
        <ele>67.750</ele>
        <time>2019-06-15T14:44:29Z</time>
      </trkpt>
      <trkpt lat="43.270181" lon="-2.135514">
        <ele>67.779</ele>
        <time>2019-06-15T14:44:30Z</time>
      </trkpt>
      <trkpt lat="43.270150" lon="-2.135680">
        <ele>69.678</ele>
        <time>2019-06-15T14:44:31Z</time>
      </trkpt>
      <trkpt lat="43.270149" lon="-2.135862">
        <ele>69.827</ele>
        <time>2019-06-15T14:44:32Z</time>
      </trkpt>
      <trkpt lat="43.270142" lon="-2.136048">
        <ele>69.928</ele>
        <time>2019-06-15T14:44:33Z</time>
      </trkpt>
      <trkpt lat="43.270121" lon="-2.136261">
        <ele>71.237</ele>
        <time>2019-06-15T14:44:34Z</time>
      </trkpt>
      <trkpt lat="43.270105" lon="-2.136452">
        <ele>72.511</ele>
        <time>2019-06-15T14:44:35Z</time>
      </trkpt>
      <trkpt lat="43.270045" lon="-2.136641">
        <ele>77.141</ele>
        <time>2019-06-15T14:44:36Z</time>
      </trkpt>
      <trkpt lat="43.270046" lon="-2.136823">
        <ele>78.681</ele>
        <time>2019-06-15T14:44:37Z</time>
      </trkpt>
      <trkpt lat="43.270044" lon="-2.136993">
        <ele>81.009</ele>
        <time>2019-06-15T14:44:38Z</time>
      </trkpt>
      <trkpt lat="43.270066" lon="-2.137271">
        <ele>86.908</ele>
        <time>2019-06-15T14:44:39Z</time>
      </trkpt>
      <trkpt lat="43.270122" lon="-2.137386">
        <ele>87.227</ele>
        <time>2019-06-15T14:44:40Z</time>
      </trkpt>
      <trkpt lat="43.270212" lon="-2.137477">
        <ele>85.461</ele>
        <time>2019-06-15T14:44:41Z</time>
      </trkpt>
      <trkpt lat="43.270340" lon="-2.137592">
        <ele>84.350</ele>
        <time>2019-06-15T14:44:42Z</time>
      </trkpt>
      <trkpt lat="43.270408" lon="-2.137679">
        <ele>85.359</ele>
        <time>2019-06-15T14:44:43Z</time>
      </trkpt>
      <trkpt lat="43.270502" lon="-2.137779">
        <ele>86.268</ele>
        <time>2019-06-15T14:44:44Z</time>
      </trkpt>
      <trkpt lat="43.270643" lon="-2.137730">
        <ele>83.429</ele>
        <time>2019-06-15T14:44:45Z</time>
      </trkpt>
      <trkpt lat="43.270809" lon="-2.137718">
        <ele>82.828</ele>
        <time>2019-06-15T14:44:46Z</time>
      </trkpt>
      <trkpt lat="43.270998" lon="-2.137698">
        <ele>87.192</ele>
        <time>2019-06-15T14:44:47Z</time>
      </trkpt>
      <trkpt lat="43.271175" lon="-2.137647">
        <ele>91.086</ele>
        <time>2019-06-15T14:44:48Z</time>
      </trkpt>
      <trkpt lat="43.271296" lon="-2.137482">
        <ele>91.460</ele>
        <time>2019-06-15T14:44:49Z</time>
      </trkpt>
      <trkpt lat="43.271411" lon="-2.137344">
        <ele>90.926</ele>
        <time>2019-06-15T14:44:50Z</time>
      </trkpt>
      <trkpt lat="43.271512" lon="-2.137258">
        <ele>90.308</ele>
        <time>2019-06-15T14:44:51Z</time>
      </trkpt>
      <trkpt lat="43.271615" lon="-2.137168">
        <ele>89.781</ele>
        <time>2019-06-15T14:44:52Z</time>
      </trkpt>
      <trkpt lat="43.271724" lon="-2.137123">
        <ele>90.015</ele>
        <time>2019-06-15T14:44:53Z</time>
      </trkpt>
      <trkpt lat="43.271840" lon="-2.137101">
        <ele>90.474</ele>
        <time>2019-06-15T14:44:54Z</time>
      </trkpt>
      <trkpt lat="43.271956" lon="-2.137097">
        <ele>91.443</ele>
        <time>2019-06-15T14:44:55Z</time>
      </trkpt>
      <trkpt lat="43.272065" lon="-2.137099">
        <ele>91.682</ele>
        <time>2019-06-15T14:44:56Z</time>
      </trkpt>
      <trkpt lat="43.272168" lon="-2.137116">
        <ele>91.633</ele>
        <time>2019-06-15T14:44:57Z</time>
      </trkpt>
      <trkpt lat="43.272281" lon="-2.137169">
        <ele>91.482</ele>
        <time>2019-06-15T14:44:58Z</time>
      </trkpt>
      <trkpt lat="43.272392" lon="-2.137234">
        <ele>91.356</ele>
        <time>2019-06-15T14:44:59Z</time>
      </trkpt>
      <trkpt lat="43.272495" lon="-2.137309">
        <ele>91.462</ele>
        <time>2019-06-15T14:45:00Z</time>
      </trkpt>
      <trkpt lat="43.272605" lon="-2.137378">
        <ele>91.783</ele>
        <time>2019-06-15T14:45:01Z</time>
      </trkpt>
      <trkpt lat="43.272712" lon="-2.137459">
        <ele>90.911</ele>
        <time>2019-06-15T14:45:02Z</time>
      </trkpt>
      <trkpt lat="43.272808" lon="-2.137531">
        <ele>90.208</ele>
        <time>2019-06-15T14:45:03Z</time>
      </trkpt>
      <trkpt lat="43.272918" lon="-2.137618">
        <ele>90.249</ele>
        <time>2019-06-15T14:45:04Z</time>
      </trkpt>
      <trkpt lat="43.273027" lon="-2.137714">
        <ele>89.253</ele>
        <time>2019-06-15T14:45:05Z</time>
      </trkpt>
      <trkpt lat="43.273151" lon="-2.137831">
        <ele>87.332</ele>
        <time>2019-06-15T14:45:06Z</time>
      </trkpt>
      <trkpt lat="43.273287" lon="-2.137958">
        <ele>86.871</ele>
        <time>2019-06-15T14:45:07Z</time>
      </trkpt>
      <trkpt lat="43.273408" lon="-2.138099">
        <ele>86.540</ele>
        <time>2019-06-15T14:45:08Z</time>
      </trkpt>
      <trkpt lat="43.273527" lon="-2.138299">
        <ele>85.321</ele>
        <time>2019-06-15T14:45:09Z</time>
      </trkpt>
      <trkpt lat="43.273645" lon="-2.138499">
        <ele>85.630</ele>
        <time>2019-06-15T14:45:10Z</time>
      </trkpt>
      <trkpt lat="43.273756" lon="-2.138724">
        <ele>85.794</ele>
        <time>2019-06-15T14:45:11Z</time>
      </trkpt>
      <trkpt lat="43.273873" lon="-2.138923">
        <ele>84.564</ele>
        <time>2019-06-15T14:45:12Z</time>
      </trkpt>
      <trkpt lat="43.273995" lon="-2.139118">
        <ele>85.006</ele>
        <time>2019-06-15T14:45:13Z</time>
      </trkpt>
      <trkpt lat="43.274104" lon="-2.139319">
        <ele>83.916</ele>
        <time>2019-06-15T14:45:14Z</time>
      </trkpt>
      <trkpt lat="43.274215" lon="-2.139502">
        <ele>83.408</ele>
        <time>2019-06-15T14:45:15Z</time>
      </trkpt>
      <trkpt lat="43.274318" lon="-2.139678">
        <ele>82.589</ele>
        <time>2019-06-15T14:45:16Z</time>
      </trkpt>
      <trkpt lat="43.274445" lon="-2.139846">
        <ele>81.923</ele>
        <time>2019-06-15T14:45:17Z</time>
      </trkpt>
      <trkpt lat="43.274568" lon="-2.140014">
        <ele>79.962</ele>
        <time>2019-06-15T14:45:18Z</time>
      </trkpt>
      <trkpt lat="43.274682" lon="-2.140166">
        <ele>78.221</ele>
        <time>2019-06-15T14:45:19Z</time>
      </trkpt>
      <trkpt lat="43.274811" lon="-2.140326">
        <ele>76.040</ele>
        <time>2019-06-15T14:45:20Z</time>
      </trkpt>
      <trkpt lat="43.274967" lon="-2.140400">
        <ele>76.821</ele>
        <time>2019-06-15T14:45:21Z</time>
      </trkpt>
      <trkpt lat="43.275092" lon="-2.140548">
        <ele>77.460</ele>
        <time>2019-06-15T14:45:22Z</time>
      </trkpt>
      <trkpt lat="43.275232" lon="-2.140682">
        <ele>77.754</ele>
        <time>2019-06-15T14:45:23Z</time>
      </trkpt>
      <trkpt lat="43.275377" lon="-2.140792">
        <ele>78.135</ele>
        <time>2019-06-15T14:45:24Z</time>
      </trkpt>
      <trkpt lat="43.275506" lon="-2.140914">
        <ele>77.486</ele>
        <time>2019-06-15T14:45:25Z</time>
      </trkpt>
      <trkpt lat="43.275628" lon="-2.140997">
        <ele>76.414</ele>
        <time>2019-06-15T14:45:26Z</time>
      </trkpt>
      <trkpt lat="43.275743" lon="-2.141079">
        <ele>74.508</ele>
        <time>2019-06-15T14:45:27Z</time>
      </trkpt>
      <trkpt lat="43.275880" lon="-2.141118">
        <ele>73.436</ele>
        <time>2019-06-15T14:45:28Z</time>
      </trkpt>
      <trkpt lat="43.276030" lon="-2.141101">
        <ele>72.940</ele>
        <time>2019-06-15T14:45:29Z</time>
      </trkpt>
      <trkpt lat="43.276127" lon="-2.141070">
        <ele>72.819</ele>
        <time>2019-06-15T14:45:30Z</time>
      </trkpt>
      <trkpt lat="43.276262" lon="-2.141050">
        <ele>71.538</ele>
        <time>2019-06-15T14:45:31Z</time>
      </trkpt>
      <trkpt lat="43.276452" lon="-2.140993">
        <ele>71.697</ele>
        <time>2019-06-15T14:45:32Z</time>
      </trkpt>
      <trkpt lat="43.276560" lon="-2.141027">
        <ele>70.898</ele>
        <time>2019-06-15T14:45:33Z</time>
      </trkpt>
      <trkpt lat="43.276700" lon="-2.141066">
        <ele>70.097</ele>
        <time>2019-06-15T14:45:34Z</time>
      </trkpt>
      <trkpt lat="43.276849" lon="-2.141131">
        <ele>69.491</ele>
        <time>2019-06-15T14:45:35Z</time>
      </trkpt>
      <trkpt lat="43.276990" lon="-2.141232">
        <ele>68.098</ele>
        <time>2019-06-15T14:45:36Z</time>
      </trkpt>
      <trkpt lat="43.277157" lon="-2.141335">
        <ele>66.415</ele>
        <time>2019-06-15T14:45:37Z</time>
      </trkpt>
      <trkpt lat="43.277316" lon="-2.141433">
        <ele>65.426</ele>
        <time>2019-06-15T14:45:38Z</time>
      </trkpt>
      <trkpt lat="43.277472" lon="-2.141524">
        <ele>65.208</ele>
        <time>2019-06-15T14:45:39Z</time>
      </trkpt>
      <trkpt lat="43.277609" lon="-2.141614">
        <ele>65.182</ele>
        <time>2019-06-15T14:45:40Z</time>
      </trkpt>
      <trkpt lat="43.277764" lon="-2.141681">
        <ele>65.096</ele>
        <time>2019-06-15T14:45:41Z</time>
      </trkpt>
      <trkpt lat="43.277930" lon="-2.141745">
        <ele>64.715</ele>
        <time>2019-06-15T14:45:42Z</time>
      </trkpt>
      <trkpt lat="43.278090" lon="-2.141792">
        <ele>63.294</ele>
        <time>2019-06-15T14:45:43Z</time>
      </trkpt>
      <trkpt lat="43.278247" lon="-2.141819">
        <ele>60.963</ele>
        <time>2019-06-15T14:45:44Z</time>
      </trkpt>
      <trkpt lat="43.278414" lon="-2.141815">
        <ele>59.374</ele>
        <time>2019-06-15T14:45:45Z</time>
      </trkpt>
      <trkpt lat="43.278585" lon="-2.141794">
        <ele>58.383</ele>
        <time>2019-06-15T14:45:46Z</time>
      </trkpt>
      <trkpt lat="43.278749" lon="-2.141841">
        <ele>60.237</ele>
        <time>2019-06-15T14:45:47Z</time>
      </trkpt>
      <trkpt lat="43.278901" lon="-2.141896">
        <ele>61.253</ele>
        <time>2019-06-15T14:45:48Z</time>
      </trkpt>
      <trkpt lat="43.279022" lon="-2.142007">
        <ele>59.304</ele>
        <time>2019-06-15T14:45:49Z</time>
      </trkpt>
      <trkpt lat="43.279159" lon="-2.142102">
        <ele>58.814</ele>
        <time>2019-06-15T14:45:50Z</time>
      </trkpt>
      <trkpt lat="43.279283" lon="-2.142258">
        <ele>61.408</ele>
        <time>2019-06-15T14:45:51Z</time>
      </trkpt>
      <trkpt lat="43.279397" lon="-2.142420">
        <ele>62.988</ele>
        <time>2019-06-15T14:45:52Z</time>
      </trkpt>
      <trkpt lat="43.279521" lon="-2.142574">
        <ele>64.082</ele>
        <time>2019-06-15T14:45:53Z</time>
      </trkpt>
      <trkpt lat="43.279477" lon="-2.142806">
        <ele>58.591</ele>
        <time>2019-06-15T14:45:54Z</time>
      </trkpt>
      <trkpt lat="43.279557" lon="-2.143032">
        <ele>58.120</ele>
        <time>2019-06-15T14:45:55Z</time>
      </trkpt>
      <trkpt lat="43.279640" lon="-2.143233">
        <ele>56.979</ele>
        <time>2019-06-15T14:45:56Z</time>
      </trkpt>
      <trkpt lat="43.279755" lon="-2.143497">
        <ele>54.670</ele>
        <time>2019-06-15T14:45:57Z</time>
      </trkpt>
      <trkpt lat="43.279799" lon="-2.143698">
        <ele>51.569</ele>
        <time>2019-06-15T14:45:58Z</time>
      </trkpt>
      <trkpt lat="43.279873" lon="-2.143916">
        <ele>48.233</ele>
        <time>2019-06-15T14:45:59Z</time>
      </trkpt>
      <trkpt lat="43.279994" lon="-2.144127">
        <ele>47.338</ele>
        <time>2019-06-15T14:46:00Z</time>
      </trkpt>
      <trkpt lat="43.280107" lon="-2.144315">
        <ele>46.770</ele>
        <time>2019-06-15T14:46:01Z</time>
      </trkpt>
      <trkpt lat="43.280210" lon="-2.144505">
        <ele>45.817</ele>
        <time>2019-06-15T14:46:02Z</time>
      </trkpt>
      <trkpt lat="43.280321" lon="-2.144691">
        <ele>45.408</ele>
        <time>2019-06-15T14:46:03Z</time>
      </trkpt>
      <trkpt lat="43.280429" lon="-2.144880">
        <ele>45.016</ele>
        <time>2019-06-15T14:46:04Z</time>
      </trkpt>
      <trkpt lat="43.280493" lon="-2.145091">
        <ele>42.810</ele>
        <time>2019-06-15T14:46:05Z</time>
      </trkpt>
      <trkpt lat="43.280650" lon="-2.145237">
        <ele>44.249</ele>
        <time>2019-06-15T14:46:06Z</time>
      </trkpt>
      <trkpt lat="43.280753" lon="-2.145429">
        <ele>42.618</ele>
        <time>2019-06-15T14:46:07Z</time>
      </trkpt>
      <trkpt lat="43.280896" lon="-2.145609">
        <ele>39.947</ele>
        <time>2019-06-15T14:46:08Z</time>
      </trkpt>
      <trkpt lat="43.281016" lon="-2.145784">
        <ele>34.768</ele>
        <time>2019-06-15T14:46:09Z</time>
      </trkpt>
      <trkpt lat="43.281122" lon="-2.145984">
        <ele>31.697</ele>
        <time>2019-06-15T14:46:10Z</time>
      </trkpt>
      <trkpt lat="43.281240" lon="-2.146178">
        <ele>33.741</ele>
        <time>2019-06-15T14:46:11Z</time>
      </trkpt>
      <trkpt lat="43.281326" lon="-2.146380">
        <ele>36.673</ele>
        <time>2019-06-15T14:46:12Z</time>
      </trkpt>
      <trkpt lat="43.281407" lon="-2.146593">
        <ele>36.185</ele>
        <time>2019-06-15T14:46:13Z</time>
      </trkpt>
      <trkpt lat="43.281465" lon="-2.146801">
        <ele>35.313</ele>
        <time>2019-06-15T14:46:14Z</time>
      </trkpt>
      <trkpt lat="43.281501" lon="-2.146997">
        <ele>34.808</ele>
        <time>2019-06-15T14:46:15Z</time>
      </trkpt>
      <trkpt lat="43.281517" lon="-2.147218">
        <ele>34.240</ele>
        <time>2019-06-15T14:46:16Z</time>
      </trkpt>
      <trkpt lat="43.281501" lon="-2.147430">
        <ele>33.354</ele>
        <time>2019-06-15T14:46:17Z</time>
      </trkpt>
      <trkpt lat="43.281470" lon="-2.147648">
        <ele>32.513</ele>
        <time>2019-06-15T14:46:18Z</time>
      </trkpt>
      <trkpt lat="43.281461" lon="-2.147884">
        <ele>32.722</ele>
        <time>2019-06-15T14:46:19Z</time>
      </trkpt>
      <trkpt lat="43.281464" lon="-2.148104">
        <ele>32.181</ele>
        <time>2019-06-15T14:46:20Z</time>
      </trkpt>
      <trkpt lat="43.281475" lon="-2.148326">
        <ele>30.852</ele>
        <time>2019-06-15T14:46:21Z</time>
      </trkpt>
      <trkpt lat="43.281499" lon="-2.148548">
        <ele>28.581</ele>
        <time>2019-06-15T14:46:22Z</time>
      </trkpt>
      <trkpt lat="43.281548" lon="-2.148766">
        <ele>27.425</ele>
        <time>2019-06-15T14:46:23Z</time>
      </trkpt>
      <trkpt lat="43.281616" lon="-2.148992">
        <ele>26.354</ele>
        <time>2019-06-15T14:46:24Z</time>
      </trkpt>
      <trkpt lat="43.281681" lon="-2.149217">
        <ele>24.656</ele>
        <time>2019-06-15T14:46:25Z</time>
      </trkpt>
      <trkpt lat="43.281765" lon="-2.149453">
        <ele>23.411</ele>
        <time>2019-06-15T14:46:26Z</time>
      </trkpt>
      <trkpt lat="43.281836" lon="-2.149676">
        <ele>23.108</ele>
        <time>2019-06-15T14:46:27Z</time>
      </trkpt>
      <trkpt lat="43.281895" lon="-2.149881">
        <ele>21.718</ele>
        <time>2019-06-15T14:46:28Z</time>
      </trkpt>
      <trkpt lat="43.281937" lon="-2.150101">
        <ele>20.122</ele>
        <time>2019-06-15T14:46:29Z</time>
      </trkpt>
      <trkpt lat="43.281965" lon="-2.150340">
        <ele>19.121</ele>
        <time>2019-06-15T14:46:30Z</time>
      </trkpt>
      <trkpt lat="43.281997" lon="-2.150555">
        <ele>19.150</ele>
        <time>2019-06-15T14:46:31Z</time>
      </trkpt>
      <trkpt lat="43.282026" lon="-2.150796">
        <ele>18.989</ele>
        <time>2019-06-15T14:46:32Z</time>
      </trkpt>
      <trkpt lat="43.282054" lon="-2.151038">
        <ele>18.610</ele>
        <time>2019-06-15T14:46:33Z</time>
      </trkpt>
      <trkpt lat="43.282074" lon="-2.151282">
        <ele>18.249</ele>
        <time>2019-06-15T14:46:34Z</time>
      </trkpt>
      <trkpt lat="43.282109" lon="-2.151505">
        <ele>18.193</ele>
        <time>2019-06-15T14:46:35Z</time>
      </trkpt>
      <trkpt lat="43.282135" lon="-2.151713">
        <ele>17.863</ele>
        <time>2019-06-15T14:46:36Z</time>
      </trkpt>
      <trkpt lat="43.282187" lon="-2.151900">
        <ele>17.044</ele>
        <time>2019-06-15T14:46:37Z</time>
      </trkpt>
      <trkpt lat="43.282241" lon="-2.152109">
        <ele>15.918</ele>
        <time>2019-06-15T14:46:38Z</time>
      </trkpt>
      <trkpt lat="43.282296" lon="-2.152318">
        <ele>14.608</ele>
        <time>2019-06-15T14:46:39Z</time>
      </trkpt>
      <trkpt lat="43.282355" lon="-2.152525">
        <ele>13.379</ele>
        <time>2019-06-15T14:46:40Z</time>
      </trkpt>
      <trkpt lat="43.282439" lon="-2.152740">
        <ele>12.753</ele>
        <time>2019-06-15T14:46:41Z</time>
      </trkpt>
      <trkpt lat="43.282519" lon="-2.152971">
        <ele>12.392</ele>
        <time>2019-06-15T14:46:42Z</time>
      </trkpt>
      <trkpt lat="43.282601" lon="-2.153183">
        <ele>11.431</ele>
        <time>2019-06-15T14:46:43Z</time>
      </trkpt>
      <trkpt lat="43.282695" lon="-2.153378">
        <ele>11.360</ele>
        <time>2019-06-15T14:46:44Z</time>
      </trkpt>
      <trkpt lat="43.282770" lon="-2.153589">
        <ele>11.951</ele>
        <time>2019-06-15T14:46:45Z</time>
      </trkpt>
      <trkpt lat="43.282861" lon="-2.153808">
        <ele>11.880</ele>
        <time>2019-06-15T14:46:46Z</time>
      </trkpt>
      <trkpt lat="43.282938" lon="-2.154017">
        <ele>11.464</ele>
        <time>2019-06-15T14:46:47Z</time>
      </trkpt>
      <trkpt lat="43.283023" lon="-2.154225">
        <ele>11.161</ele>
        <time>2019-06-15T14:46:48Z</time>
      </trkpt>
      <trkpt lat="43.283109" lon="-2.154425">
        <ele>10.721</ele>
        <time>2019-06-15T14:46:49Z</time>
      </trkpt>
      <trkpt lat="43.283162" lon="-2.154601">
        <ele>9.713</ele>
        <time>2019-06-15T14:46:50Z</time>
      </trkpt>
      <trkpt lat="43.283230" lon="-2.154774">
        <ele>8.308</ele>
        <time>2019-06-15T14:46:51Z</time>
      </trkpt>
      <trkpt lat="43.283312" lon="-2.154935">
        <ele>8.039</ele>
        <time>2019-06-15T14:46:52Z</time>
      </trkpt>
      <trkpt lat="43.283379" lon="-2.155083">
        <ele>8.013</ele>
        <time>2019-06-15T14:46:53Z</time>
      </trkpt>
      <trkpt lat="43.283438" lon="-2.155234">
        <ele>8.022</ele>
        <time>2019-06-15T14:46:54Z</time>
      </trkpt>
      <trkpt lat="43.283502" lon="-2.155382">
        <ele>7.771</ele>
        <time>2019-06-15T14:46:55Z</time>
      </trkpt>
      <trkpt lat="43.283566" lon="-2.155515">
        <ele>6.710</ele>
        <time>2019-06-15T14:46:56Z</time>
      </trkpt>
      <trkpt lat="43.283617" lon="-2.155661">
        <ele>6.021</ele>
        <time>2019-06-15T14:46:57Z</time>
      </trkpt>
      <trkpt lat="43.283653" lon="-2.155803">
        <ele>6.290</ele>
        <time>2019-06-15T14:46:58Z</time>
      </trkpt>
      <trkpt lat="43.283684" lon="-2.155938">
        <ele>6.284</ele>
        <time>2019-06-15T14:46:59Z</time>
      </trkpt>
      <trkpt lat="43.283745" lon="-2.156032">
        <ele>6.135</ele>
        <time>2019-06-15T14:47:00Z</time>
      </trkpt>
      <trkpt lat="43.283817" lon="-2.156099">
        <ele>6.086</ele>
        <time>2019-06-15T14:47:01Z</time>
      </trkpt>
      <trkpt lat="43.283895" lon="-2.156119">
        <ele>6.014</ele>
        <time>2019-06-15T14:47:02Z</time>
      </trkpt>
      <trkpt lat="43.283970" lon="-2.156151">
        <ele>6.208</ele>
        <time>2019-06-15T14:47:03Z</time>
      </trkpt>
      <trkpt lat="43.284031" lon="-2.156208">
        <ele>6.346</ele>
        <time>2019-06-15T14:47:04Z</time>
      </trkpt>
      <trkpt lat="43.284101" lon="-2.156262">
        <ele>6.370</ele>
        <time>2019-06-15T14:47:05Z</time>
      </trkpt>
      <trkpt lat="43.284132" lon="-2.156350">
        <ele>6.199</ele>
        <time>2019-06-15T14:47:06Z</time>
      </trkpt>
      <trkpt lat="43.284150" lon="-2.156448">
        <ele>5.898</ele>
        <time>2019-06-15T14:47:07Z</time>
      </trkpt>
      <trkpt lat="43.284160" lon="-2.156544">
        <ele>5.487</ele>
        <time>2019-06-15T14:47:08Z</time>
      </trkpt>
      <trkpt lat="43.284167" lon="-2.156643">
        <ele>5.148</ele>
        <time>2019-06-15T14:47:09Z</time>
      </trkpt>
      <trkpt lat="43.284235" lon="-2.156800">
        <ele>4.917</ele>
        <time>2019-06-15T14:47:10Z</time>
      </trkpt>
      <trkpt lat="43.284264" lon="-2.156911">
        <ele>4.721</ele>
        <time>2019-06-15T14:47:11Z</time>
      </trkpt>
      <trkpt lat="43.284356" lon="-2.157028">
        <ele>4.343</ele>
        <time>2019-06-15T14:47:12Z</time>
      </trkpt>
      <trkpt lat="43.284414" lon="-2.157168">
        <ele>4.164</ele>
        <time>2019-06-15T14:47:13Z</time>
      </trkpt>
      <trkpt lat="43.284458" lon="-2.157301">
        <ele>4.310</ele>
        <time>2019-06-15T14:47:14Z</time>
      </trkpt>
      <trkpt lat="43.284506" lon="-2.157424">
        <ele>4.408</ele>
        <time>2019-06-15T14:47:15Z</time>
      </trkpt>
      <trkpt lat="43.284546" lon="-2.157535">
        <ele>4.337</ele>
        <time>2019-06-15T14:47:16Z</time>
      </trkpt>
      <trkpt lat="43.284581" lon="-2.157640">
        <ele>4.331</ele>
        <time>2019-06-15T14:47:17Z</time>
      </trkpt>
      <trkpt lat="43.284622" lon="-2.157758">
        <ele>4.380</ele>
        <time>2019-06-15T14:47:18Z</time>
      </trkpt>
      <trkpt lat="43.284673" lon="-2.157869">
        <ele>4.439</ele>
        <time>2019-06-15T14:47:19Z</time>
      </trkpt>
      <trkpt lat="43.284720" lon="-2.157984">
        <ele>4.728</ele>
        <time>2019-06-15T14:47:20Z</time>
      </trkpt>
      <trkpt lat="43.284770" lon="-2.158076">
        <ele>4.719</ele>
        <time>2019-06-15T14:47:21Z</time>
      </trkpt>
      <trkpt lat="43.284810" lon="-2.158197">
        <ele>4.498</ele>
        <time>2019-06-15T14:47:22Z</time>
      </trkpt>
      <trkpt lat="43.284871" lon="-2.158323">
        <ele>3.952</ele>
        <time>2019-06-15T14:47:23Z</time>
      </trkpt>
      <trkpt lat="43.284935" lon="-2.158400">
        <ele>3.731</ele>
        <time>2019-06-15T14:47:24Z</time>
      </trkpt>
      <trkpt lat="43.284974" lon="-2.158510">
        <ele>3.861</ele>
        <time>2019-06-15T14:47:25Z</time>
      </trkpt>
      <trkpt lat="43.285011" lon="-2.158626">
        <ele>4.007</ele>
        <time>2019-06-15T14:47:26Z</time>
      </trkpt>
      <trkpt lat="43.285048" lon="-2.158734">
        <ele>4.108</ele>
        <time>2019-06-15T14:47:27Z</time>
      </trkpt>
      <trkpt lat="43.285111" lon="-2.158840">
        <ele>4.086</ele>
        <time>2019-06-15T14:47:28Z</time>
      </trkpt>
      <trkpt lat="43.285178" lon="-2.158931">
        <ele>4.090</ele>
        <time>2019-06-15T14:47:29Z</time>
      </trkpt>
      <trkpt lat="43.285226" lon="-2.159045">
        <ele>4.479</ele>
        <time>2019-06-15T14:47:30Z</time>
      </trkpt>
      <trkpt lat="43.285279" lon="-2.159150">
        <ele>4.958</ele>
        <time>2019-06-15T14:47:31Z</time>
      </trkpt>
      <trkpt lat="43.285317" lon="-2.159248">
        <ele>5.647</ele>
        <time>2019-06-15T14:47:32Z</time>
      </trkpt>
      <trkpt lat="43.285345" lon="-2.159331">
        <ele>6.158</ele>
        <time>2019-06-15T14:47:33Z</time>
      </trkpt>
      <trkpt lat="43.285380" lon="-2.159428">
        <ele>6.757</ele>
        <time>2019-06-15T14:47:34Z</time>
      </trkpt>
      <trkpt lat="43.285410" lon="-2.159524">
        <ele>6.721</ele>
        <time>2019-06-15T14:47:35Z</time>
      </trkpt>
      <trkpt lat="43.285442" lon="-2.159633">
        <ele>6.416</ele>
        <time>2019-06-15T14:47:36Z</time>
      </trkpt>
      <trkpt lat="43.285478" lon="-2.159754">
        <ele>6.076</ele>
        <time>2019-06-15T14:47:37Z</time>
      </trkpt>
      <trkpt lat="43.285510" lon="-2.159871">
        <ele>6.013</ele>
        <time>2019-06-15T14:47:38Z</time>
      </trkpt>
      <trkpt lat="43.285541" lon="-2.159969">
        <ele>6.008</ele>
        <time>2019-06-15T14:47:39Z</time>
      </trkpt>
      <trkpt lat="43.285556" lon="-2.160069">
        <ele>6.394</ele>
        <time>2019-06-15T14:47:40Z</time>
      </trkpt>
      <trkpt lat="43.285575" lon="-2.160155">
        <ele>6.738</ele>
        <time>2019-06-15T14:47:41Z</time>
      </trkpt>
      <trkpt lat="43.285587" lon="-2.160236">
        <ele>7.117</ele>
        <time>2019-06-15T14:47:42Z</time>
      </trkpt>
      <trkpt lat="43.285637" lon="-2.160269">
        <ele>7.656</ele>
        <time>2019-06-15T14:47:43Z</time>
      </trkpt>
      <trkpt lat="43.285657" lon="-2.160376">
        <ele>7.625</ele>
        <time>2019-06-15T14:47:45Z</time>
      </trkpt>
      <trkpt lat="43.285658" lon="-2.160460">
        <ele>7.586</ele>
        <time>2019-06-15T14:47:48Z</time>
      </trkpt>
      <trkpt lat="43.285684" lon="-2.160530">
        <ele>7.545</ele>
        <time>2019-06-15T14:47:56Z</time>
      </trkpt>
      <trkpt lat="43.285686" lon="-2.160614">
        <ele>7.539</ele>
        <time>2019-06-15T14:47:57Z</time>
      </trkpt>
      <trkpt lat="43.285697" lon="-2.160719">
        <ele>7.567</ele>
        <time>2019-06-15T14:47:58Z</time>
      </trkpt>
      <trkpt lat="43.285710" lon="-2.160835">
        <ele>7.681</ele>
        <time>2019-06-15T14:47:59Z</time>
      </trkpt>
      <trkpt lat="43.285718" lon="-2.160942">
        <ele>7.819</ele>
        <time>2019-06-15T14:48:00Z</time>
      </trkpt>
      <trkpt lat="43.285735" lon="-2.161060">
        <ele>8.208</ele>
        <time>2019-06-15T14:48:01Z</time>
      </trkpt>
      <trkpt lat="43.285741" lon="-2.161184">
        <ele>8.299</ele>
        <time>2019-06-15T14:48:02Z</time>
      </trkpt>
      <trkpt lat="43.285756" lon="-2.161301">
        <ele>8.093</ele>
        <time>2019-06-15T14:48:03Z</time>
      </trkpt>
      <trkpt lat="43.285764" lon="-2.161421">
        <ele>7.882</ele>
        <time>2019-06-15T14:48:04Z</time>
      </trkpt>
      <trkpt lat="43.285757" lon="-2.161559">
        <ele>7.781</ele>
        <time>2019-06-15T14:48:05Z</time>
      </trkpt>
      <trkpt lat="43.285767" lon="-2.161663">
        <ele>7.840</ele>
        <time>2019-06-15T14:48:06Z</time>
      </trkpt>
      <trkpt lat="43.285773" lon="-2.161764">
        <ele>7.871</ele>
        <time>2019-06-15T14:48:07Z</time>
      </trkpt>
      <trkpt lat="43.285788" lon="-2.161865">
        <ele>7.830</ele>
        <time>2019-06-15T14:48:08Z</time>
      </trkpt>
      <trkpt lat="43.285788" lon="-2.161946">
        <ele>7.874</ele>
        <time>2019-06-15T14:48:09Z</time>
      </trkpt>
      <trkpt lat="43.285795" lon="-2.162012">
        <ele>7.958</ele>
        <time>2019-06-15T14:48:10Z</time>
      </trkpt>
      <trkpt lat="43.285773" lon="-2.162086">
        <ele>7.952</ele>
        <time>2019-06-15T14:48:11Z</time>
      </trkpt>
      <trkpt lat="43.285726" lon="-2.162142">
        <ele>7.917</ele>
        <time>2019-06-15T14:48:12Z</time>
      </trkpt>
      <trkpt lat="43.285713" lon="-2.162202">
        <ele>8.008</ele>
        <time>2019-06-15T14:48:17Z</time>
      </trkpt>
      <trkpt lat="43.285745" lon="-2.162329">
        <ele>7.968</ele>
        <time>2019-06-15T14:48:20Z</time>
      </trkpt>
      <trkpt lat="43.285807" lon="-2.162432">
        <ele>7.942</ele>
        <time>2019-06-15T14:48:22Z</time>
      </trkpt>
      <trkpt lat="43.285857" lon="-2.162457">
        <ele>8.291</ele>
        <time>2019-06-15T14:48:23Z</time>
      </trkpt>
      <trkpt lat="43.285988" lon="-2.162433">
        <ele>9.090</ele>
        <time>2019-06-15T14:48:24Z</time>
      </trkpt>
      <trkpt lat="43.286088" lon="-2.162427">
        <ele>9.679</ele>
        <time>2019-06-15T14:48:25Z</time>
      </trkpt>
      <trkpt lat="43.286167" lon="-2.162440">
        <ele>10.060</ele>
        <time>2019-06-15T14:48:26Z</time>
      </trkpt>
      <trkpt lat="43.286259" lon="-2.162464">
        <ele>10.459</ele>
        <time>2019-06-15T14:48:27Z</time>
      </trkpt>
      <trkpt lat="43.286359" lon="-2.162474">
        <ele>10.853</ele>
        <time>2019-06-15T14:48:28Z</time>
      </trkpt>
      <trkpt lat="43.286498" lon="-2.162474">
        <ele>10.935</ele>
        <time>2019-06-15T14:48:29Z</time>
      </trkpt>
      <trkpt lat="43.286602" lon="-2.162494">
        <ele>11.086</ele>
        <time>2019-06-15T14:48:30Z</time>
      </trkpt>
      <trkpt lat="43.286710" lon="-2.162514">
        <ele>11.014</ele>
        <time>2019-06-15T14:48:31Z</time>
      </trkpt>
      <trkpt lat="43.286800" lon="-2.162532">
        <ele>11.008</ele>
        <time>2019-06-15T14:48:32Z</time>
      </trkpt>
      <trkpt lat="43.286892" lon="-2.162550">
        <ele>11.056</ele>
        <time>2019-06-15T14:48:33Z</time>
      </trkpt>
      <trkpt lat="43.286995" lon="-2.162558">
        <ele>11.210</ele>
        <time>2019-06-15T14:48:34Z</time>
      </trkpt>
      <trkpt lat="43.287071" lon="-2.162572">
        <ele>11.599</ele>
        <time>2019-06-15T14:48:35Z</time>
      </trkpt>
      <trkpt lat="43.287170" lon="-2.162571">
        <ele>11.898</ele>
        <time>2019-06-15T14:48:36Z</time>
      </trkpt>
      <trkpt lat="43.287226" lon="-2.162583">
        <ele>12.047</ele>
        <time>2019-06-15T14:48:37Z</time>
      </trkpt>
      <trkpt lat="43.287294" lon="-2.162626">
        <ele>11.768</ele>
        <time>2019-06-15T14:48:38Z</time>
      </trkpt>
      <trkpt lat="43.287347" lon="-2.162619">
        <ele>11.667</ele>
        <time>2019-06-15T14:48:39Z</time>
      </trkpt>
      <trkpt lat="43.287394" lon="-2.162629">
        <ele>11.411</ele>
        <time>2019-06-15T14:48:40Z</time>
      </trkpt>
      <trkpt lat="43.287474" lon="-2.162643">
        <ele>11.144</ele>
        <time>2019-06-15T14:48:42Z</time>
      </trkpt>
      <trkpt lat="43.287514" lon="-2.162706">
        <ele>11.005</ele>
        <time>2019-06-15T14:48:44Z</time>
      </trkpt>
      <trkpt lat="43.287518" lon="-2.162813">
        <ele>11.015</ele>
        <time>2019-06-15T14:48:46Z</time>
      </trkpt>
      <trkpt lat="43.287502" lon="-2.162932">
        <ele>11.008</ele>
        <time>2019-06-15T14:48:48Z</time>
      </trkpt>
      <trkpt lat="43.287482" lon="-2.162998">
        <ele>11.167</ele>
        <time>2019-06-15T14:48:49Z</time>
      </trkpt>
      <trkpt lat="43.287443" lon="-2.163096">
        <ele>11.121</ele>
        <time>2019-06-15T14:48:51Z</time>
      </trkpt>
      <trkpt lat="43.287407" lon="-2.163248">
        <ele>10.630</ele>
        <time>2019-06-15T14:48:53Z</time>
      </trkpt>
      <trkpt lat="43.287391" lon="-2.163360">
        <ele>10.499</ele>
        <time>2019-06-15T14:48:54Z</time>
      </trkpt>
      <trkpt lat="43.287368" lon="-2.163486">
        <ele>10.528</ele>
        <time>2019-06-15T14:48:55Z</time>
      </trkpt>
      <trkpt lat="43.287349" lon="-2.163603">
        <ele>10.539</ele>
        <time>2019-06-15T14:48:56Z</time>
      </trkpt>
      <trkpt lat="43.287320" lon="-2.163724">
        <ele>10.898</ele>
        <time>2019-06-15T14:48:57Z</time>
      </trkpt>
      <trkpt lat="43.287307" lon="-2.163847">
        <ele>11.042</ele>
        <time>2019-06-15T14:48:58Z</time>
      </trkpt>
      <trkpt lat="43.287293" lon="-2.163947">
        <ele>11.083</ele>
        <time>2019-06-15T14:48:59Z</time>
      </trkpt>
      <trkpt lat="43.287275" lon="-2.164052">
        <ele>11.025</ele>
        <time>2019-06-15T14:49:00Z</time>
      </trkpt>
      <trkpt lat="43.287255" lon="-2.164161">
        <ele>11.017</ele>
        <time>2019-06-15T14:49:01Z</time>
      </trkpt>
      <trkpt lat="43.287243" lon="-2.164257">
        <ele>11.008</ele>
        <time>2019-06-15T14:49:02Z</time>
      </trkpt>
      <trkpt lat="43.287229" lon="-2.164353">
        <ele>11.041</ele>
        <time>2019-06-15T14:49:03Z</time>
      </trkpt>
      <trkpt lat="43.287213" lon="-2.164440">
        <ele>11.085</ele>
        <time>2019-06-15T14:49:04Z</time>
      </trkpt>
      <trkpt lat="43.287200" lon="-2.164533">
        <ele>11.084</ele>
        <time>2019-06-15T14:49:05Z</time>
      </trkpt>
      <trkpt lat="43.287210" lon="-2.164645">
        <ele>11.053</ele>
        <time>2019-06-15T14:49:07Z</time>
      </trkpt>
      <trkpt lat="43.287190" lon="-2.164732">
        <ele>11.022</ele>
        <time>2019-06-15T14:49:08Z</time>
      </trkpt>
      <trkpt lat="43.287176" lon="-2.164831">
        <ele>11.043</ele>
        <time>2019-06-15T14:49:09Z</time>
      </trkpt>
      <trkpt lat="43.287171" lon="-2.164939">
        <ele>11.012</ele>
        <time>2019-06-15T14:49:10Z</time>
      </trkpt>
      <trkpt lat="43.287149" lon="-2.165044">
        <ele>10.976</ele>
        <time>2019-06-15T14:49:11Z</time>
      </trkpt>
      <trkpt lat="43.287129" lon="-2.165137">
        <ele>10.795</ele>
        <time>2019-06-15T14:49:12Z</time>
      </trkpt>
      <trkpt lat="43.287105" lon="-2.165245">
        <ele>10.549</ele>
        <time>2019-06-15T14:49:13Z</time>
      </trkpt>
      <trkpt lat="43.287091" lon="-2.165332">
        <ele>10.423</ele>
        <time>2019-06-15T14:49:14Z</time>
      </trkpt>
      <trkpt lat="43.287047" lon="-2.165444">
        <ele>10.308</ele>
        <time>2019-06-15T14:49:15Z</time>
      </trkpt>
      <trkpt lat="43.287011" lon="-2.165555">
        <ele>10.032</ele>
        <time>2019-06-15T14:49:16Z</time>
      </trkpt>
      <trkpt lat="43.287006" lon="-2.165669">
        <ele>10.016</ele>
        <time>2019-06-15T14:49:17Z</time>
      </trkpt>
      <trkpt lat="43.286956" lon="-2.165774">
        <ele>10.045</ele>
        <time>2019-06-15T14:49:18Z</time>
      </trkpt>
      <trkpt lat="43.286945" lon="-2.165909">
        <ele>9.774</ele>
        <time>2019-06-15T14:49:19Z</time>
      </trkpt>
      <trkpt lat="43.286902" lon="-2.165991">
        <ele>9.663</ele>
        <time>2019-06-15T14:49:20Z</time>
      </trkpt>
      <trkpt lat="43.286887" lon="-2.166085">
        <ele>9.344</ele>
        <time>2019-06-15T14:49:21Z</time>
      </trkpt>
      <trkpt lat="43.286879" lon="-2.166165">
        <ele>9.243</ele>
        <time>2019-06-15T14:49:22Z</time>
      </trkpt>
      <trkpt lat="43.286845" lon="-2.166256">
        <ele>9.277</ele>
        <time>2019-06-15T14:49:23Z</time>
      </trkpt>
      <trkpt lat="43.286829" lon="-2.166360">
        <ele>9.014</ele>
        <time>2019-06-15T14:49:24Z</time>
      </trkpt>
      <trkpt lat="43.286815" lon="-2.166454">
        <ele>8.954</ele>
        <time>2019-06-15T14:49:25Z</time>
      </trkpt>
      <trkpt lat="43.286809" lon="-2.166535">
        <ele>8.709</ele>
        <time>2019-06-15T14:49:26Z</time>
      </trkpt>
      <trkpt lat="43.286800" lon="-2.166620">
        <ele>8.608</ele>
        <time>2019-06-15T14:49:27Z</time>
      </trkpt>
      <trkpt lat="43.286794" lon="-2.166695">
        <ele>8.494</ele>
        <time>2019-06-15T14:49:28Z</time>
      </trkpt>
      <trkpt lat="43.286783" lon="-2.166765">
        <ele>8.378</ele>
        <time>2019-06-15T14:49:29Z</time>
      </trkpt>
      <trkpt lat="43.286782" lon="-2.166845">
        <ele>8.197</ele>
        <time>2019-06-15T14:49:30Z</time>
      </trkpt>
      <trkpt lat="43.286782" lon="-2.166917">
        <ele>8.076</ele>
        <time>2019-06-15T14:49:31Z</time>
      </trkpt>
      <trkpt lat="43.286767" lon="-2.166979">
        <ele>8.025</ele>
        <time>2019-06-15T14:49:32Z</time>
      </trkpt>
      <trkpt lat="43.286755" lon="-2.167043">
        <ele>8.166</ele>
        <time>2019-06-15T14:49:33Z</time>
      </trkpt>
      <trkpt lat="43.286728" lon="-2.167152">
        <ele>8.235</ele>
        <time>2019-06-15T14:49:35Z</time>
      </trkpt>
      <trkpt lat="43.286677" lon="-2.167208">
        <ele>8.099</ele>
        <time>2019-06-15T14:49:38Z</time>
      </trkpt>
      <trkpt lat="43.286636" lon="-2.167236">
        <ele>8.072</ele>
        <time>2019-06-15T14:49:39Z</time>
      </trkpt>
      <trkpt lat="43.286551" lon="-2.167225">
        <ele>8.013</ele>
        <time>2019-06-15T14:49:40Z</time>
      </trkpt>
      <trkpt lat="43.286486" lon="-2.167246">
        <ele>8.014</ele>
        <time>2019-06-15T14:49:41Z</time>
      </trkpt>
      <trkpt lat="43.286403" lon="-2.167257">
        <ele>8.008</ele>
        <time>2019-06-15T14:49:42Z</time>
      </trkpt>
      <trkpt lat="43.286336" lon="-2.167267">
        <ele>8.290</ele>
        <time>2019-06-15T14:49:43Z</time>
      </trkpt>
      <trkpt lat="43.286270" lon="-2.167281">
        <ele>8.414</ele>
        <time>2019-06-15T14:49:44Z</time>
      </trkpt>
      <trkpt lat="43.286199" lon="-2.167295">
        <ele>8.783</ele>
        <time>2019-06-15T14:49:45Z</time>
      </trkpt>
      <trkpt lat="43.286140" lon="-2.167295">
        <ele>8.972</ele>
        <time>2019-06-15T14:49:46Z</time>
      </trkpt>
      <trkpt lat="43.286091" lon="-2.167298">
        <ele>9.011</ele>
        <time>2019-06-15T14:49:47Z</time>
      </trkpt>
      <trkpt lat="43.286036" lon="-2.167301">
        <ele>8.972</ele>
        <time>2019-06-15T14:49:48Z</time>
      </trkpt>
      <trkpt lat="43.285997" lon="-2.167336">
        <ele>8.841</ele>
        <time>2019-06-15T14:49:49Z</time>
      </trkpt>
      <trkpt lat="43.285954" lon="-2.167382">
        <ele>8.795</ele>
        <time>2019-06-15T14:49:50Z</time>
      </trkpt>
      <trkpt lat="43.285931" lon="-2.167446">
        <ele>8.586</ele>
        <time>2019-06-15T14:49:51Z</time>
      </trkpt>
      <trkpt lat="43.285936" lon="-2.167542">
        <ele>8.360</ele>
        <time>2019-06-15T14:49:52Z</time>
      </trkpt>
      <trkpt lat="43.285939" lon="-2.167650">
        <ele>8.226</ele>
        <time>2019-06-15T14:49:53Z</time>
      </trkpt>
      <trkpt lat="43.285949" lon="-2.167774">
        <ele>8.008</ele>
        <time>2019-06-15T14:49:54Z</time>
      </trkpt>
      <trkpt lat="43.285965" lon="-2.167946">
        <ele>8.031</ele>
        <time>2019-06-15T14:49:55Z</time>
      </trkpt>
      <trkpt lat="43.285968" lon="-2.168114">
        <ele>8.165</ele>
        <time>2019-06-15T14:49:56Z</time>
      </trkpt>
      <trkpt lat="43.285987" lon="-2.168283">
        <ele>8.414</ele>
        <time>2019-06-15T14:49:57Z</time>
      </trkpt>
      <trkpt lat="43.285983" lon="-2.168448">
        <ele>8.573</ele>
        <time>2019-06-15T14:49:58Z</time>
      </trkpt>
      <trkpt lat="43.286000" lon="-2.168609">
        <ele>8.462</ele>
        <time>2019-06-15T14:49:59Z</time>
      </trkpt>
      <trkpt lat="43.285957" lon="-2.168754">
        <ele>8.823</ele>
        <time>2019-06-15T14:50:00Z</time>
      </trkpt>
      <trkpt lat="43.285973" lon="-2.168917">
        <ele>9.072</ele>
        <time>2019-06-15T14:50:01Z</time>
      </trkpt>
      <trkpt lat="43.286028" lon="-2.169024">
        <ele>9.036</ele>
        <time>2019-06-15T14:50:02Z</time>
      </trkpt>
      <trkpt lat="43.286048" lon="-2.169182">
        <ele>9.054</ele>
        <time>2019-06-15T14:50:03Z</time>
      </trkpt>
      <trkpt lat="43.286071" lon="-2.169331">
        <ele>9.056</ele>
        <time>2019-06-15T14:50:04Z</time>
      </trkpt>
      <trkpt lat="43.286073" lon="-2.169482">
        <ele>9.011</ele>
        <time>2019-06-15T14:50:05Z</time>
      </trkpt>
      <trkpt lat="43.286090" lon="-2.169630">
        <ele>9.008</ele>
        <time>2019-06-15T14:50:06Z</time>
      </trkpt>
      <trkpt lat="43.286104" lon="-2.169776">
        <ele>9.078</ele>
        <time>2019-06-15T14:50:07Z</time>
      </trkpt>
      <trkpt lat="43.286117" lon="-2.169918">
        <ele>9.082</ele>
        <time>2019-06-15T14:50:08Z</time>
      </trkpt>
      <trkpt lat="43.286131" lon="-2.170067">
        <ele>9.331</ele>
        <time>2019-06-15T14:50:09Z</time>
      </trkpt>
      <trkpt lat="43.286148" lon="-2.170204">
        <ele>9.740</ele>
        <time>2019-06-15T14:50:10Z</time>
      </trkpt>
      <trkpt lat="43.286194" lon="-2.170287">
        <ele>9.759</ele>
        <time>2019-06-15T14:50:11Z</time>
      </trkpt>
      <trkpt lat="43.286203" lon="-2.170426">
        <ele>9.320</ele>
        <time>2019-06-15T14:50:12Z</time>
      </trkpt>
      <trkpt lat="43.286213" lon="-2.170561">
        <ele>9.069</ele>
        <time>2019-06-15T14:50:13Z</time>
      </trkpt>
      <trkpt lat="43.286233" lon="-2.170699">
        <ele>9.053</ele>
        <time>2019-06-15T14:50:14Z</time>
      </trkpt>
      <trkpt lat="43.286248" lon="-2.170834">
        <ele>9.014</ele>
        <time>2019-06-15T14:50:15Z</time>
      </trkpt>
      <trkpt lat="43.286253" lon="-2.170967">
        <ele>9.054</ele>
        <time>2019-06-15T14:50:16Z</time>
      </trkpt>
      <trkpt lat="43.286264" lon="-2.171093">
        <ele>9.009</ele>
        <time>2019-06-15T14:50:17Z</time>
      </trkpt>
      <trkpt lat="43.286264" lon="-2.171216">
        <ele>8.808</ele>
        <time>2019-06-15T14:50:18Z</time>
      </trkpt>
      <trkpt lat="43.286282" lon="-2.171371">
        <ele>8.654</ele>
        <time>2019-06-15T14:50:19Z</time>
      </trkpt>
      <trkpt lat="43.286294" lon="-2.171522">
        <ele>8.798</ele>
        <time>2019-06-15T14:50:20Z</time>
      </trkpt>
      <trkpt lat="43.286309" lon="-2.171664">
        <ele>8.737</ele>
        <time>2019-06-15T14:50:21Z</time>
      </trkpt>
      <trkpt lat="43.286327" lon="-2.171812">
        <ele>8.846</ele>
        <time>2019-06-15T14:50:22Z</time>
      </trkpt>
      <trkpt lat="43.286330" lon="-2.171940">
        <ele>8.855</ele>
        <time>2019-06-15T14:50:23Z</time>
      </trkpt>
      <trkpt lat="43.286353" lon="-2.172072">
        <ele>8.966</ele>
        <time>2019-06-15T14:50:24Z</time>
      </trkpt>
      <trkpt lat="43.286375" lon="-2.172210">
        <ele>8.945</ele>
        <time>2019-06-15T14:50:25Z</time>
      </trkpt>
      <trkpt lat="43.286391" lon="-2.172349">
        <ele>9.059</ele>
        <time>2019-06-15T14:50:26Z</time>
      </trkpt>
      <trkpt lat="43.286417" lon="-2.172475">
        <ele>9.029</ele>
        <time>2019-06-15T14:50:27Z</time>
      </trkpt>
      <trkpt lat="43.286442" lon="-2.172600">
        <ele>9.000</ele>
        <time>2019-06-15T14:50:28Z</time>
      </trkpt>
      <trkpt lat="43.286458" lon="-2.172732">
        <ele>9.020</ele>
        <time>2019-06-15T14:50:29Z</time>
      </trkpt>
      <trkpt lat="43.286477" lon="-2.172855">
        <ele>8.908</ele>
        <time>2019-06-15T14:50:30Z</time>
      </trkpt>
      <trkpt lat="43.286517" lon="-2.172939">
        <ele>8.765</ele>
        <time>2019-06-15T14:50:31Z</time>
      </trkpt>
      <trkpt lat="43.286541" lon="-2.173060">
        <ele>8.499</ele>
        <time>2019-06-15T14:50:32Z</time>
      </trkpt>
      <trkpt lat="43.286584" lon="-2.173143">
        <ele>8.228</ele>
        <time>2019-06-15T14:50:33Z</time>
      </trkpt>
      <trkpt lat="43.286599" lon="-2.173274">
        <ele>8.157</ele>
        <time>2019-06-15T14:50:34Z</time>
      </trkpt>
      <trkpt lat="43.286621" lon="-2.173403">
        <ele>8.056</ele>
        <time>2019-06-15T14:50:35Z</time>
      </trkpt>
      <trkpt lat="43.286654" lon="-2.173531">
        <ele>8.057</ele>
        <time>2019-06-15T14:50:36Z</time>
      </trkpt>
      <trkpt lat="43.286670" lon="-2.173672">
        <ele>8.026</ele>
        <time>2019-06-15T14:50:37Z</time>
      </trkpt>
      <trkpt lat="43.286687" lon="-2.173807">
        <ele>8.010</ele>
        <time>2019-06-15T14:50:38Z</time>
      </trkpt>
      <trkpt lat="43.286698" lon="-2.173935">
        <ele>8.089</ele>
        <time>2019-06-15T14:50:39Z</time>
      </trkpt>
      <trkpt lat="43.286720" lon="-2.174025">
        <ele>8.006</ele>
        <time>2019-06-15T14:50:40Z</time>
      </trkpt>
      <trkpt lat="43.286734" lon="-2.174132">
        <ele>8.026</ele>
        <time>2019-06-15T14:50:41Z</time>
      </trkpt>
      <trkpt lat="43.286742" lon="-2.174216">
        <ele>8.008</ele>
        <time>2019-06-15T14:50:42Z</time>
      </trkpt>
      <trkpt lat="43.286758" lon="-2.174277">
        <ele>7.931</ele>
        <time>2019-06-15T14:50:43Z</time>
      </trkpt>
      <trkpt lat="43.286790" lon="-2.174333">
        <ele>7.735</ele>
        <time>2019-06-15T14:50:44Z</time>
      </trkpt>
      <trkpt lat="43.286803" lon="-2.174399">
        <ele>7.684</ele>
        <time>2019-06-15T14:50:45Z</time>
      </trkpt>
      <trkpt lat="43.286808" lon="-2.174462">
        <ele>7.543</ele>
        <time>2019-06-15T14:50:46Z</time>
      </trkpt>
      <trkpt lat="43.286810" lon="-2.174525">
        <ele>7.562</ele>
        <time>2019-06-15T14:50:47Z</time>
      </trkpt>
      <trkpt lat="43.286806" lon="-2.174587">
        <ele>7.553</ele>
        <time>2019-06-15T14:50:48Z</time>
      </trkpt>
      <trkpt lat="43.286812" lon="-2.174664">
        <ele>7.562</ele>
        <time>2019-06-15T14:50:49Z</time>
      </trkpt>
      <trkpt lat="43.286816" lon="-2.174737">
        <ele>7.566</ele>
        <time>2019-06-15T14:50:50Z</time>
      </trkpt>
      <trkpt lat="43.286820" lon="-2.174812">
        <ele>7.448</ele>
        <time>2019-06-15T14:50:51Z</time>
      </trkpt>
      <trkpt lat="43.286823" lon="-2.174889">
        <ele>7.461</ele>
        <time>2019-06-15T14:50:52Z</time>
      </trkpt>
      <trkpt lat="43.286827" lon="-2.174963">
        <ele>7.417</ele>
        <time>2019-06-15T14:50:53Z</time>
      </trkpt>
      <trkpt lat="43.286812" lon="-2.175029">
        <ele>7.408</ele>
        <time>2019-06-15T14:50:54Z</time>
      </trkpt>
      <trkpt lat="43.286809" lon="-2.175096">
        <ele>7.357</ele>
        <time>2019-06-15T14:50:55Z</time>
      </trkpt>
      <trkpt lat="43.286808" lon="-2.175161">
        <ele>7.231</ele>
        <time>2019-06-15T14:50:56Z</time>
      </trkpt>
      <trkpt lat="43.286821" lon="-2.175260">
        <ele>7.090</ele>
        <time>2019-06-15T14:50:58Z</time>
      </trkpt>
      <trkpt lat="43.286792" lon="-2.175320">
        <ele>7.139</ele>
        <time>2019-06-15T14:51:00Z</time>
      </trkpt>
      <trkpt lat="43.286830" lon="-2.175403">
        <ele>7.368</ele>
        <time>2019-06-15T14:51:29Z</time>
      </trkpt>
      <trkpt lat="43.286875" lon="-2.175439">
        <ele>7.429</ele>
        <time>2019-06-15T14:51:48Z</time>
      </trkpt>
      <trkpt lat="43.286921" lon="-2.175458">
        <ele>7.628</ele>
        <time>2019-06-15T14:51:59Z</time>
      </trkpt>
      <trkpt lat="43.286810" lon="-2.175357">
        <ele>7.162</ele>
        <time>2019-06-15T14:53:53Z</time>
      </trkpt>
      <trkpt lat="43.286840" lon="-2.175442">
        <ele>7.499</ele>
        <time>2019-06-15T14:54:01Z</time>
      </trkpt>
      <trkpt lat="43.286850" lon="-2.175574">
        <ele>7.707</ele>
        <time>2019-06-15T14:54:02Z</time>
      </trkpt>
      <trkpt lat="43.286850" lon="-2.175694">
        <ele>7.727</ele>
        <time>2019-06-15T14:54:03Z</time>
      </trkpt>
      <trkpt lat="43.286800" lon="-2.175885">
        <ele>7.508</ele>
        <time>2019-06-15T14:54:04Z</time>
      </trkpt>
      <trkpt lat="43.286776" lon="-2.176024">
        <ele>7.482</ele>
        <time>2019-06-15T14:54:05Z</time>
      </trkpt>
      <trkpt lat="43.286764" lon="-2.176172">
        <ele>7.366</ele>
        <time>2019-06-15T14:54:06Z</time>
      </trkpt>
      <trkpt lat="43.286749" lon="-2.176322">
        <ele>7.315</ele>
        <time>2019-06-15T14:54:07Z</time>
      </trkpt>
      <trkpt lat="43.286710" lon="-2.176455">
        <ele>7.244</ele>
        <time>2019-06-15T14:54:08Z</time>
      </trkpt>
      <trkpt lat="43.286706" lon="-2.176551">
        <ele>7.133</ele>
        <time>2019-06-15T14:54:09Z</time>
      </trkpt>
      <trkpt lat="43.286693" lon="-2.176653">
        <ele>7.194</ele>
        <time>2019-06-15T14:54:10Z</time>
      </trkpt>
      <trkpt lat="43.286674" lon="-2.176783">
        <ele>7.033</ele>
        <time>2019-06-15T14:54:12Z</time>
      </trkpt>
      <trkpt lat="43.286656" lon="-2.176886">
        <ele>7.057</ele>
        <time>2019-06-15T14:54:13Z</time>
      </trkpt>
      <trkpt lat="43.286663" lon="-2.176979">
        <ele>7.075</ele>
        <time>2019-06-15T14:54:14Z</time>
      </trkpt>
      <trkpt lat="43.286665" lon="-2.177083">
        <ele>7.028</ele>
        <time>2019-06-15T14:54:15Z</time>
      </trkpt>
      <trkpt lat="43.286661" lon="-2.177194">
        <ele>7.020</ele>
        <time>2019-06-15T14:54:16Z</time>
      </trkpt>
      <trkpt lat="43.286670" lon="-2.177324">
        <ele>7.408</ele>
        <time>2019-06-15T14:54:17Z</time>
      </trkpt>
      <trkpt lat="43.286665" lon="-2.177465">
        <ele>7.970</ele>
        <time>2019-06-15T14:54:18Z</time>
      </trkpt>
      <trkpt lat="43.286685" lon="-2.177607">
        <ele>7.754</ele>
        <time>2019-06-15T14:54:19Z</time>
      </trkpt>
      <trkpt lat="43.286757" lon="-2.177716">
        <ele>7.533</ele>
        <time>2019-06-15T14:54:20Z</time>
      </trkpt>
      <trkpt lat="43.286827" lon="-2.177822">
        <ele>7.812</ele>
        <time>2019-06-15T14:54:21Z</time>
      </trkpt>
      <trkpt lat="43.286986" lon="-2.177823">
        <ele>8.071</ele>
        <time>2019-06-15T14:54:22Z</time>
      </trkpt>
      <trkpt lat="43.287096" lon="-2.177839">
        <ele>7.752</ele>
        <time>2019-06-15T14:54:23Z</time>
      </trkpt>
      <trkpt lat="43.287177" lon="-2.177886">
        <ele>7.681</ele>
        <time>2019-06-15T14:54:24Z</time>
      </trkpt>
      <trkpt lat="43.287268" lon="-2.177927">
        <ele>6.745</ele>
        <time>2019-06-15T14:54:25Z</time>
      </trkpt>
      <trkpt lat="43.287366" lon="-2.177952">
        <ele>5.291</ele>
        <time>2019-06-15T14:54:26Z</time>
      </trkpt>
      <trkpt lat="43.287449" lon="-2.178028">
        <ele>4.581</ele>
        <time>2019-06-15T14:54:27Z</time>
      </trkpt>
      <trkpt lat="43.287531" lon="-2.178113">
        <ele>4.219</ele>
        <time>2019-06-15T14:54:28Z</time>
      </trkpt>
      <trkpt lat="43.287613" lon="-2.178192">
        <ele>3.608</ele>
        <time>2019-06-15T14:54:29Z</time>
      </trkpt>
      <trkpt lat="43.287685" lon="-2.178295">
        <ele>3.382</ele>
        <time>2019-06-15T14:54:30Z</time>
      </trkpt>
      <trkpt lat="43.287758" lon="-2.178404">
        <ele>3.646</ele>
        <time>2019-06-15T14:54:31Z</time>
      </trkpt>
      <trkpt lat="43.287836" lon="-2.178498">
        <ele>4.355</ele>
        <time>2019-06-15T14:54:32Z</time>
      </trkpt>
      <trkpt lat="43.287916" lon="-2.178584">
        <ele>4.684</ele>
        <time>2019-06-15T14:54:33Z</time>
      </trkpt>
      <trkpt lat="43.287999" lon="-2.178655">
        <ele>4.763</ele>
        <time>2019-06-15T14:54:34Z</time>
      </trkpt>
      <trkpt lat="43.288104" lon="-2.178704">
        <ele>4.394</ele>
        <time>2019-06-15T14:54:35Z</time>
      </trkpt>
      <trkpt lat="43.288196" lon="-2.178749">
        <ele>4.553</ele>
        <time>2019-06-15T14:54:36Z</time>
      </trkpt>
      <trkpt lat="43.288283" lon="-2.178768">
        <ele>4.237</ele>
        <time>2019-06-15T14:54:37Z</time>
      </trkpt>
      <trkpt lat="43.288378" lon="-2.178781">
        <ele>4.141</ele>
        <time>2019-06-15T14:54:38Z</time>
      </trkpt>
      <trkpt lat="43.288492" lon="-2.178804">
        <ele>4.581</ele>
        <time>2019-06-15T14:54:39Z</time>
      </trkpt>
      <trkpt lat="43.288588" lon="-2.178814">
        <ele>4.709</ele>
        <time>2019-06-15T14:54:40Z</time>
      </trkpt>
      <trkpt lat="43.288723" lon="-2.178837">
        <ele>5.408</ele>
        <time>2019-06-15T14:54:41Z</time>
      </trkpt>
      <trkpt lat="43.288851" lon="-2.178863">
        <ele>6.327</ele>
        <time>2019-06-15T14:54:42Z</time>
      </trkpt>
      <trkpt lat="43.288973" lon="-2.178882">
        <ele>6.841</ele>
        <time>2019-06-15T14:54:43Z</time>
      </trkpt>
      <trkpt lat="43.289090" lon="-2.178888">
        <ele>7.010</ele>
        <time>2019-06-15T14:54:44Z</time>
      </trkpt>
      <trkpt lat="43.289207" lon="-2.178904">
        <ele>7.479</ele>
        <time>2019-06-15T14:54:45Z</time>
      </trkpt>
      <trkpt lat="43.289342" lon="-2.178913">
        <ele>6.618</ele>
        <time>2019-06-15T14:54:46Z</time>
      </trkpt>
      <trkpt lat="43.289495" lon="-2.178946">
        <ele>7.679</ele>
        <time>2019-06-15T14:54:47Z</time>
      </trkpt>
      <trkpt lat="43.289611" lon="-2.178959">
        <ele>8.188</ele>
        <time>2019-06-15T14:54:48Z</time>
      </trkpt>
      <trkpt lat="43.289733" lon="-2.178969">
        <ele>8.392</ele>
        <time>2019-06-15T14:54:49Z</time>
      </trkpt>
      <trkpt lat="43.289854" lon="-2.178983">
        <ele>8.496</ele>
        <time>2019-06-15T14:54:50Z</time>
      </trkpt>
      <trkpt lat="43.289972" lon="-2.179008">
        <ele>9.131</ele>
        <time>2019-06-15T14:54:51Z</time>
      </trkpt>
      <trkpt lat="43.290085" lon="-2.179019">
        <ele>9.124</ele>
        <time>2019-06-15T14:54:52Z</time>
      </trkpt>
      <trkpt lat="43.290183" lon="-2.179040">
        <ele>9.608</ele>
        <time>2019-06-15T14:54:53Z</time>
      </trkpt>
      <trkpt lat="43.290278" lon="-2.179050">
        <ele>9.542</ele>
        <time>2019-06-15T14:54:54Z</time>
      </trkpt>
      <trkpt lat="43.290384" lon="-2.179054">
        <ele>10.526</ele>
        <time>2019-06-15T14:54:55Z</time>
      </trkpt>
      <trkpt lat="43.290491" lon="-2.179041">
        <ele>10.765</ele>
        <time>2019-06-15T14:54:56Z</time>
      </trkpt>
      <trkpt lat="43.290603" lon="-2.179031">
        <ele>11.164</ele>
        <time>2019-06-15T14:54:57Z</time>
      </trkpt>
      <trkpt lat="43.290724" lon="-2.179005">
        <ele>11.093</ele>
        <time>2019-06-15T14:54:58Z</time>
      </trkpt>
      <trkpt lat="43.290846" lon="-2.178984">
        <ele>11.034</ele>
        <time>2019-06-15T14:54:59Z</time>
      </trkpt>
      <trkpt lat="43.290949" lon="-2.178971">
        <ele>9.333</ele>
        <time>2019-06-15T14:55:00Z</time>
      </trkpt>
      <trkpt lat="43.291050" lon="-2.178981">
        <ele>8.447</ele>
        <time>2019-06-15T14:55:01Z</time>
      </trkpt>
      <trkpt lat="43.291146" lon="-2.179008">
        <ele>7.431</ele>
        <time>2019-06-15T14:55:02Z</time>
      </trkpt>
      <trkpt lat="43.291228" lon="-2.179064">
        <ele>6.561</ele>
        <time>2019-06-15T14:55:03Z</time>
      </trkpt>
      <trkpt lat="43.291298" lon="-2.179160">
        <ele>6.207</ele>
        <time>2019-06-15T14:55:04Z</time>
      </trkpt>
      <trkpt lat="43.291367" lon="-2.179267">
        <ele>6.308</ele>
        <time>2019-06-15T14:55:05Z</time>
      </trkpt>
      <trkpt lat="43.291431" lon="-2.179412">
        <ele>6.436</ele>
        <time>2019-06-15T14:55:06Z</time>
      </trkpt>
      <trkpt lat="43.291497" lon="-2.179568">
        <ele>6.920</ele>
        <time>2019-06-15T14:55:07Z</time>
      </trkpt>
      <trkpt lat="43.291567" lon="-2.179721">
        <ele>6.359</ele>
        <time>2019-06-15T14:55:08Z</time>
      </trkpt>
      <trkpt lat="43.291636" lon="-2.179874">
        <ele>6.728</ele>
        <time>2019-06-15T14:55:09Z</time>
      </trkpt>
      <trkpt lat="43.291700" lon="-2.180048">
        <ele>7.647</ele>
        <time>2019-06-15T14:55:10Z</time>
      </trkpt>
      <trkpt lat="43.291753" lon="-2.180225">
        <ele>7.518</ele>
        <time>2019-06-15T14:55:11Z</time>
      </trkpt>
      <trkpt lat="43.291790" lon="-2.180419">
        <ele>7.247</ele>
        <time>2019-06-15T14:55:12Z</time>
      </trkpt>
      <trkpt lat="43.291832" lon="-2.180594">
        <ele>5.951</ele>
        <time>2019-06-15T14:55:13Z</time>
      </trkpt>
      <trkpt lat="43.291860" lon="-2.180758">
        <ele>5.584</ele>
        <time>2019-06-15T14:55:14Z</time>
      </trkpt>
      <trkpt lat="43.291910" lon="-2.180915">
        <ele>5.607</ele>
        <time>2019-06-15T14:55:15Z</time>
      </trkpt>
      <trkpt lat="43.292000" lon="-2.181068">
        <ele>7.017</ele>
        <time>2019-06-15T14:55:16Z</time>
      </trkpt>
      <trkpt lat="43.292085" lon="-2.181195">
        <ele>9.308</ele>
        <time>2019-06-15T14:55:17Z</time>
      </trkpt>
      <trkpt lat="43.292225" lon="-2.181301">
        <ele>9.491</ele>
        <time>2019-06-15T14:55:18Z</time>
      </trkpt>
      <trkpt lat="43.292357" lon="-2.181411">
        <ele>11.575</ele>
        <time>2019-06-15T14:55:19Z</time>
      </trkpt>
      <trkpt lat="43.292492" lon="-2.181529">
        <ele>12.174</ele>
        <time>2019-06-15T14:55:20Z</time>
      </trkpt>
      <trkpt lat="43.292642" lon="-2.181677">
        <ele>10.243</ele>
        <time>2019-06-15T14:55:21Z</time>
      </trkpt>
      <trkpt lat="43.292794" lon="-2.181817">
        <ele>9.882</ele>
        <time>2019-06-15T14:55:22Z</time>
      </trkpt>
      <trkpt lat="43.292928" lon="-2.181988">
        <ele>9.723</ele>
        <time>2019-06-15T14:55:23Z</time>
      </trkpt>
      <trkpt lat="43.293063" lon="-2.182161">
        <ele>8.342</ele>
        <time>2019-06-15T14:55:24Z</time>
      </trkpt>
      <trkpt lat="43.293196" lon="-2.182332">
        <ele>7.256</ele>
        <time>2019-06-15T14:55:25Z</time>
      </trkpt>
      <trkpt lat="43.293325" lon="-2.182514">
        <ele>5.757</ele>
        <time>2019-06-15T14:55:26Z</time>
      </trkpt>
      <trkpt lat="43.293431" lon="-2.182702">
        <ele>7.600</ele>
        <time>2019-06-15T14:55:27Z</time>
      </trkpt>
      <trkpt lat="43.293531" lon="-2.182884">
        <ele>8.620</ele>
        <time>2019-06-15T14:55:28Z</time>
      </trkpt>
      <trkpt lat="43.293657" lon="-2.183053">
        <ele>8.508</ele>
        <time>2019-06-15T14:55:29Z</time>
      </trkpt>
      <trkpt lat="43.293775" lon="-2.183207">
        <ele>8.668</ele>
        <time>2019-06-15T14:55:30Z</time>
      </trkpt>
      <trkpt lat="43.293883" lon="-2.183366">
        <ele>8.072</ele>
        <time>2019-06-15T14:55:31Z</time>
      </trkpt>
      <trkpt lat="43.293984" lon="-2.183509">
        <ele>7.531</ele>
        <time>2019-06-15T14:55:32Z</time>
      </trkpt>
      <trkpt lat="43.294077" lon="-2.183639">
        <ele>6.390</ele>
        <time>2019-06-15T14:55:33Z</time>
      </trkpt>
      <trkpt lat="43.294130" lon="-2.183764">
        <ele>7.889</ele>
        <time>2019-06-15T14:55:34Z</time>
      </trkpt>
      <trkpt lat="43.294183" lon="-2.183891">
        <ele>9.580</ele>
        <time>2019-06-15T14:55:35Z</time>
      </trkpt>
      <trkpt lat="43.294232" lon="-2.184024">
        <ele>7.119</ele>
        <time>2019-06-15T14:55:36Z</time>
      </trkpt>
      <trkpt lat="43.294261" lon="-2.184170">
        <ele>5.213</ele>
        <time>2019-06-15T14:55:37Z</time>
      </trkpt>
      <trkpt lat="43.294297" lon="-2.184309">
        <ele>2.631</ele>
        <time>2019-06-15T14:55:38Z</time>
      </trkpt>
      <trkpt lat="43.294036" lon="-2.184420">
        <ele>6.561</ele>
        <time>2019-06-15T14:55:39Z</time>
      </trkpt>
      <trkpt lat="43.293950" lon="-2.184543">
        <ele>5.907</ele>
        <time>2019-06-15T14:55:40Z</time>
      </trkpt>
      <trkpt lat="43.293838" lon="-2.184666">
        <ele>5.508</ele>
        <time>2019-06-15T14:55:41Z</time>
      </trkpt>
      <trkpt lat="43.293732" lon="-2.184799">
        <ele>5.636</ele>
        <time>2019-06-15T14:55:42Z</time>
      </trkpt>
      <trkpt lat="43.293593" lon="-2.184940">
        <ele>5.480</ele>
        <time>2019-06-15T14:55:43Z</time>
      </trkpt>
      <trkpt lat="43.293465" lon="-2.185083">
        <ele>5.999</ele>
        <time>2019-06-15T14:55:44Z</time>
      </trkpt>
      <trkpt lat="43.293319" lon="-2.185224">
        <ele>5.498</ele>
        <time>2019-06-15T14:55:45Z</time>
      </trkpt>
      <trkpt lat="43.293200" lon="-2.185363">
        <ele>6.727</ele>
        <time>2019-06-15T14:55:46Z</time>
      </trkpt>
      <trkpt lat="43.293075" lon="-2.185501">
        <ele>5.848</ele>
        <time>2019-06-15T14:55:47Z</time>
      </trkpt>
      <trkpt lat="43.292945" lon="-2.185698">
        <ele>7.417</ele>
        <time>2019-06-15T14:55:48Z</time>
      </trkpt>
      <trkpt lat="43.292878" lon="-2.185880">
        <ele>5.631</ele>
        <time>2019-06-15T14:55:49Z</time>
      </trkpt>
      <trkpt lat="43.292781" lon="-2.186079">
        <ele>5.412</ele>
        <time>2019-06-15T14:55:50Z</time>
      </trkpt>
      <trkpt lat="43.292724" lon="-2.186294">
        <ele>5.732</ele>
        <time>2019-06-15T14:55:51Z</time>
      </trkpt>
      <trkpt lat="43.292652" lon="-2.186478">
        <ele>6.505</ele>
        <time>2019-06-15T14:55:52Z</time>
      </trkpt>
      <trkpt lat="43.292594" lon="-2.186674">
        <ele>6.608</ele>
        <time>2019-06-15T14:55:53Z</time>
      </trkpt>
      <trkpt lat="43.292531" lon="-2.186884">
        <ele>6.814</ele>
        <time>2019-06-15T14:55:54Z</time>
      </trkpt>
      <trkpt lat="43.292517" lon="-2.187082">
        <ele>6.138</ele>
        <time>2019-06-15T14:55:55Z</time>
      </trkpt>
      <trkpt lat="43.292459" lon="-2.187307">
        <ele>8.277</ele>
        <time>2019-06-15T14:55:56Z</time>
      </trkpt>
      <trkpt lat="43.292538" lon="-2.187486">
        <ele>6.066</ele>
        <time>2019-06-15T14:55:57Z</time>
      </trkpt>
      <trkpt lat="43.292561" lon="-2.187661">
        <ele>6.085</ele>
        <time>2019-06-15T14:55:58Z</time>
      </trkpt>
      <trkpt lat="43.292582" lon="-2.187857">
        <ele>6.066</ele>
        <time>2019-06-15T14:55:59Z</time>
      </trkpt>
      <trkpt lat="43.292580" lon="-2.188051">
        <ele>6.365</ele>
        <time>2019-06-15T14:56:00Z</time>
      </trkpt>
      <trkpt lat="43.292585" lon="-2.188225">
        <ele>4.989</ele>
        <time>2019-06-15T14:56:01Z</time>
      </trkpt>
      <trkpt lat="43.292577" lon="-2.188411">
        <ele>3.387</ele>
        <time>2019-06-15T14:56:02Z</time>
      </trkpt>
      <trkpt lat="43.292485" lon="-2.188572">
        <ele>2.442</ele>
        <time>2019-06-15T14:56:03Z</time>
      </trkpt>
      <trkpt lat="43.292406" lon="-2.188739">
        <ele>3.526</ele>
        <time>2019-06-15T14:56:04Z</time>
      </trkpt>
      <trkpt lat="43.292264" lon="-2.188929">
        <ele>3.808</ele>
        <time>2019-06-15T14:56:05Z</time>
      </trkpt>
      <trkpt lat="43.292176" lon="-2.189120">
        <ele>3.741</ele>
        <time>2019-06-15T14:56:06Z</time>
      </trkpt>
      <trkpt lat="43.292137" lon="-2.189301">
        <ele>4.595</ele>
        <time>2019-06-15T14:56:07Z</time>
      </trkpt>
      <trkpt lat="43.292121" lon="-2.189498">
        <ele>5.244</ele>
        <time>2019-06-15T14:56:08Z</time>
      </trkpt>
      <trkpt lat="43.292139" lon="-2.189717">
        <ele>5.233</ele>
        <time>2019-06-15T14:56:09Z</time>
      </trkpt>
      <trkpt lat="43.292157" lon="-2.189917">
        <ele>6.912</ele>
        <time>2019-06-15T14:56:10Z</time>
      </trkpt>
      <trkpt lat="43.292376" lon="-2.190043">
        <ele>2.623</ele>
        <time>2019-06-15T14:56:11Z</time>
      </trkpt>
      <trkpt lat="43.292467" lon="-2.190221">
        <ele>3.342</ele>
        <time>2019-06-15T14:56:12Z</time>
      </trkpt>
      <trkpt lat="43.292614" lon="-2.190371">
        <ele>4.666</ele>
        <time>2019-06-15T14:56:13Z</time>
      </trkpt>
      <trkpt lat="43.292758" lon="-2.190490">
        <ele>4.485</ele>
        <time>2019-06-15T14:56:14Z</time>
      </trkpt>
      <trkpt lat="43.292895" lon="-2.190612">
        <ele>5.089</ele>
        <time>2019-06-15T14:56:15Z</time>
      </trkpt>
      <trkpt lat="43.293045" lon="-2.190753">
        <ele>5.317</ele>
        <time>2019-06-15T14:56:16Z</time>
      </trkpt>
      <trkpt lat="43.293201" lon="-2.190906">
        <ele>6.508</ele>
        <time>2019-06-15T14:56:17Z</time>
      </trkpt>
      <trkpt lat="43.293375" lon="-2.191002">
        <ele>6.081</ele>
        <time>2019-06-15T14:56:18Z</time>
      </trkpt>
      <trkpt lat="43.293525" lon="-2.191111">
        <ele>6.535</ele>
        <time>2019-06-15T14:56:19Z</time>
      </trkpt>
      <trkpt lat="43.293673" lon="-2.191187">
        <ele>8.484</ele>
        <time>2019-06-15T14:56:20Z</time>
      </trkpt>
      <trkpt lat="43.293848" lon="-2.191216">
        <ele>7.783</ele>
        <time>2019-06-15T14:56:21Z</time>
      </trkpt>
      <trkpt lat="43.294004" lon="-2.191219">
        <ele>6.762</ele>
        <time>2019-06-15T14:56:22Z</time>
      </trkpt>
      <trkpt lat="43.294163" lon="-2.191237">
        <ele>6.673</ele>
        <time>2019-06-15T14:56:23Z</time>
      </trkpt>
      <trkpt lat="43.294317" lon="-2.191255">
        <ele>6.972</ele>
        <time>2019-06-15T14:56:24Z</time>
      </trkpt>
      <trkpt lat="43.294405" lon="-2.191316">
        <ele>8.726</ele>
        <time>2019-06-15T14:56:25Z</time>
      </trkpt>
      <trkpt lat="43.294563" lon="-2.191326">
        <ele>8.256</ele>
        <time>2019-06-15T14:56:26Z</time>
      </trkpt>
      <trkpt lat="43.294706" lon="-2.191360">
        <ele>8.359</ele>
        <time>2019-06-15T14:56:27Z</time>
      </trkpt>
      <trkpt lat="43.294845" lon="-2.191409">
        <ele>8.414</ele>
        <time>2019-06-15T14:56:28Z</time>
      </trkpt>
      <trkpt lat="43.294964" lon="-2.191489">
        <ele>8.308</ele>
        <time>2019-06-15T14:56:29Z</time>
      </trkpt>
      <trkpt lat="43.295081" lon="-2.191598">
        <ele>6.878</ele>
        <time>2019-06-15T14:56:30Z</time>
      </trkpt>
      <trkpt lat="43.295187" lon="-2.191735">
        <ele>6.692</ele>
        <time>2019-06-15T14:56:31Z</time>
      </trkpt>
      <trkpt lat="43.295290" lon="-2.191875">
        <ele>6.311</ele>
        <time>2019-06-15T14:56:32Z</time>
      </trkpt>
      <trkpt lat="43.295405" lon="-2.192009">
        <ele>6.520</ele>
        <time>2019-06-15T14:56:33Z</time>
      </trkpt>
      <trkpt lat="43.295519" lon="-2.192128">
        <ele>7.299</ele>
        <time>2019-06-15T14:56:34Z</time>
      </trkpt>
      <trkpt lat="43.295638" lon="-2.192213">
        <ele>8.250</ele>
        <time>2019-06-15T14:56:35Z</time>
      </trkpt>
      <trkpt lat="43.295768" lon="-2.192249">
        <ele>8.849</ele>
        <time>2019-06-15T14:56:36Z</time>
      </trkpt>
      <trkpt lat="43.295905" lon="-2.192294">
        <ele>9.613</ele>
        <time>2019-06-15T14:56:37Z</time>
      </trkpt>
      <trkpt lat="43.296046" lon="-2.192342">
        <ele>9.816</ele>
        <time>2019-06-15T14:56:38Z</time>
      </trkpt>
      <trkpt lat="43.296190" lon="-2.192388">
        <ele>9.776</ele>
        <time>2019-06-15T14:56:39Z</time>
      </trkpt>
      <trkpt lat="43.296335" lon="-2.192438">
        <ele>10.113</ele>
        <time>2019-06-15T14:56:40Z</time>
      </trkpt>
      <trkpt lat="43.296478" lon="-2.192472">
        <ele>10.608</ele>
        <time>2019-06-15T14:56:41Z</time>
      </trkpt>
      <trkpt lat="43.296620" lon="-2.192472">
        <ele>10.154</ele>
        <time>2019-06-15T14:56:42Z</time>
      </trkpt>
      <trkpt lat="43.296765" lon="-2.192444">
        <ele>9.078</ele>
        <time>2019-06-15T14:56:43Z</time>
      </trkpt>
      <trkpt lat="43.296897" lon="-2.192420">
        <ele>8.517</ele>
        <time>2019-06-15T14:56:44Z</time>
      </trkpt>
      <trkpt lat="43.297045" lon="-2.192396">
        <ele>9.056</ele>
        <time>2019-06-15T14:56:45Z</time>
      </trkpt>
      <trkpt lat="43.297190" lon="-2.192371">
        <ele>9.635</ele>
        <time>2019-06-15T14:56:46Z</time>
      </trkpt>
      <trkpt lat="43.297325" lon="-2.192349">
        <ele>8.596</ele>
        <time>2019-06-15T14:56:47Z</time>
      </trkpt>
      <trkpt lat="43.297473" lon="-2.192321">
        <ele>7.235</ele>
        <time>2019-06-15T14:56:48Z</time>
      </trkpt>
      <trkpt lat="43.297623" lon="-2.192289">
        <ele>7.759</ele>
        <time>2019-06-15T14:56:49Z</time>
      </trkpt>
      <trkpt lat="43.297755" lon="-2.192257">
        <ele>8.476</ele>
        <time>2019-06-15T14:56:50Z</time>
      </trkpt>
      <trkpt lat="43.297887" lon="-2.192235">
        <ele>9.290</ele>
        <time>2019-06-15T14:56:51Z</time>
      </trkpt>
      <trkpt lat="43.297995" lon="-2.192212">
        <ele>9.219</ele>
        <time>2019-06-15T14:56:52Z</time>
      </trkpt>
      <trkpt lat="43.298121" lon="-2.192202">
        <ele>9.308</ele>
        <time>2019-06-15T14:56:53Z</time>
      </trkpt>
      <trkpt lat="43.298234" lon="-2.192232">
        <ele>10.480</ele>
        <time>2019-06-15T14:56:54Z</time>
      </trkpt>
      <trkpt lat="43.298344" lon="-2.192280">
        <ele>11.944</ele>
        <time>2019-06-15T14:56:55Z</time>
      </trkpt>
      <trkpt lat="43.298445" lon="-2.192340">
        <ele>9.943</ele>
        <time>2019-06-15T14:56:56Z</time>
      </trkpt>
      <trkpt lat="43.298537" lon="-2.192435">
        <ele>7.912</ele>
        <time>2019-06-15T14:56:57Z</time>
      </trkpt>
      <trkpt lat="43.298615" lon="-2.192547">
        <ele>5.891</ele>
        <time>2019-06-15T14:56:58Z</time>
      </trkpt>
      <trkpt lat="43.298658" lon="-2.192681">
        <ele>6.932</ele>
        <time>2019-06-15T14:56:59Z</time>
      </trkpt>
      <trkpt lat="43.298718" lon="-2.192834">
        <ele>6.721</ele>
        <time>2019-06-15T14:57:00Z</time>
      </trkpt>
      <trkpt lat="43.298773" lon="-2.193004">
        <ele>6.835</ele>
        <time>2019-06-15T14:57:01Z</time>
      </trkpt>
      <trkpt lat="43.298842" lon="-2.193169">
        <ele>7.465</ele>
        <time>2019-06-15T14:57:02Z</time>
      </trkpt>
      <trkpt lat="43.298904" lon="-2.193334">
        <ele>8.568</ele>
        <time>2019-06-15T14:57:03Z</time>
      </trkpt>
      <trkpt lat="43.298972" lon="-2.193502">
        <ele>8.914</ele>
        <time>2019-06-15T14:57:04Z</time>
      </trkpt>
      <trkpt lat="43.299047" lon="-2.193647">
        <ele>9.708</ele>
        <time>2019-06-15T14:57:05Z</time>
      </trkpt>
      <trkpt lat="43.299102" lon="-2.193799">
        <ele>13.329</ele>
        <time>2019-06-15T14:57:06Z</time>
      </trkpt>
      <trkpt lat="43.299156" lon="-2.193947">
        <ele>14.113</ele>
        <time>2019-06-15T14:57:07Z</time>
      </trkpt>
      <trkpt lat="43.299213" lon="-2.194074">
        <ele>10.632</ele>
        <time>2019-06-15T14:57:08Z</time>
      </trkpt>
      <trkpt lat="43.299234" lon="-2.194222">
        <ele>8.981</ele>
        <time>2019-06-15T14:57:09Z</time>
      </trkpt>
      <trkpt lat="43.299229" lon="-2.194387">
        <ele>8.780</ele>
        <time>2019-06-15T14:57:10Z</time>
      </trkpt>
      <trkpt lat="43.299212" lon="-2.194571">
        <ele>7.741</ele>
        <time>2019-06-15T14:57:11Z</time>
      </trkpt>
      <trkpt lat="43.299215" lon="-2.194763">
        <ele>5.370</ele>
        <time>2019-06-15T14:57:12Z</time>
      </trkpt>
      <trkpt lat="43.299168" lon="-2.194936">
        <ele>3.954</ele>
        <time>2019-06-15T14:57:13Z</time>
      </trkpt>
      <trkpt lat="43.299082" lon="-2.195126">
        <ele>8.643</ele>
        <time>2019-06-15T14:57:14Z</time>
      </trkpt>
      <trkpt lat="43.299034" lon="-2.195314">
        <ele>9.064</ele>
        <time>2019-06-15T14:57:15Z</time>
      </trkpt>
      <trkpt lat="43.298952" lon="-2.195518">
        <ele>8.610</ele>
        <time>2019-06-15T14:57:16Z</time>
      </trkpt>
      <trkpt lat="43.298913" lon="-2.195704">
        <ele>6.708</ele>
        <time>2019-06-15T14:57:17Z</time>
      </trkpt>
      <trkpt lat="43.298851" lon="-2.195892">
        <ele>6.997</ele>
        <time>2019-06-15T14:57:18Z</time>
      </trkpt>
      <trkpt lat="43.298793" lon="-2.196108">
        <ele>7.311</ele>
        <time>2019-06-15T14:57:19Z</time>
      </trkpt>
      <trkpt lat="43.298747" lon="-2.196314">
        <ele>8.990</ele>
        <time>2019-06-15T14:57:20Z</time>
      </trkpt>
      <trkpt lat="43.298724" lon="-2.196510">
        <ele>9.099</ele>
        <time>2019-06-15T14:57:21Z</time>
      </trkpt>
      <trkpt lat="43.298732" lon="-2.196687">
        <ele>7.978</ele>
        <time>2019-06-15T14:57:22Z</time>
      </trkpt>
      <trkpt lat="43.298707" lon="-2.196901">
        <ele>9.589</ele>
        <time>2019-06-15T14:57:23Z</time>
      </trkpt>
      <trkpt lat="43.298718" lon="-2.197094">
        <ele>9.718</ele>
        <time>2019-06-15T14:57:24Z</time>
      </trkpt>
      <trkpt lat="43.298714" lon="-2.197304">
        <ele>10.952</ele>
        <time>2019-06-15T14:57:25Z</time>
      </trkpt>
      <trkpt lat="43.298739" lon="-2.197479">
        <ele>10.563</ele>
        <time>2019-06-15T14:57:26Z</time>
      </trkpt>
      <trkpt lat="43.298762" lon="-2.197691">
        <ele>10.344</ele>
        <time>2019-06-15T14:57:27Z</time>
      </trkpt>
      <trkpt lat="43.298791" lon="-2.197904">
        <ele>10.518</ele>
        <time>2019-06-15T14:57:28Z</time>
      </trkpt>
      <trkpt lat="43.298832" lon="-2.198112">
        <ele>10.808</ele>
        <time>2019-06-15T14:57:29Z</time>
      </trkpt>
      <trkpt lat="43.298880" lon="-2.198302">
        <ele>11.819</ele>
        <time>2019-06-15T14:57:30Z</time>
      </trkpt>
      <trkpt lat="43.298940" lon="-2.198502">
        <ele>12.123</ele>
        <time>2019-06-15T14:57:31Z</time>
      </trkpt>
      <trkpt lat="43.298937" lon="-2.198687">
        <ele>14.872</ele>
        <time>2019-06-15T14:57:32Z</time>
      </trkpt>
      <trkpt lat="43.298979" lon="-2.198893">
        <ele>15.911</ele>
        <time>2019-06-15T14:57:33Z</time>
      </trkpt>
      <trkpt lat="43.299034" lon="-2.199085">
        <ele>15.590</ele>
        <time>2019-06-15T14:57:34Z</time>
      </trkpt>
      <trkpt lat="43.299081" lon="-2.199277">
        <ele>17.071</ele>
        <time>2019-06-15T14:57:35Z</time>
      </trkpt>
      <trkpt lat="43.299135" lon="-2.199456">
        <ele>18.740</ele>
        <time>2019-06-15T14:57:36Z</time>
      </trkpt>
      <trkpt lat="43.299185" lon="-2.199636">
        <ele>18.814</ele>
        <time>2019-06-15T14:57:37Z</time>
      </trkpt>
      <trkpt lat="43.299279" lon="-2.199782">
        <ele>16.637</ele>
        <time>2019-06-15T14:57:38Z</time>
      </trkpt>
      <trkpt lat="43.299362" lon="-2.199935">
        <ele>16.149</ele>
        <time>2019-06-15T14:57:39Z</time>
      </trkpt>
      <trkpt lat="43.299454" lon="-2.200086">
        <ele>16.113</ele>
        <time>2019-06-15T14:57:40Z</time>
      </trkpt>
      <trkpt lat="43.299569" lon="-2.200207">
        <ele>15.208</ele>
        <time>2019-06-15T14:57:41Z</time>
      </trkpt>
      <trkpt lat="43.299654" lon="-2.200331">
        <ele>16.526</ele>
        <time>2019-06-15T14:57:42Z</time>
      </trkpt>
      <trkpt lat="43.299761" lon="-2.200473">
        <ele>17.820</ele>
        <time>2019-06-15T14:57:43Z</time>
      </trkpt>
      <trkpt lat="43.299870" lon="-2.200600">
        <ele>16.999</ele>
        <time>2019-06-15T14:57:44Z</time>
      </trkpt>
      <trkpt lat="43.299964" lon="-2.200732">
        <ele>18.028</ele>
        <time>2019-06-15T14:57:45Z</time>
      </trkpt>
      <trkpt lat="43.300054" lon="-2.200853">
        <ele>19.167</ele>
        <time>2019-06-15T14:57:46Z</time>
      </trkpt>
      <trkpt lat="43.300145" lon="-2.200975">
        <ele>19.488</ele>
        <time>2019-06-15T14:57:47Z</time>
      </trkpt>
      <trkpt lat="43.300245" lon="-2.201090">
        <ele>20.287</ele>
        <time>2019-06-15T14:57:48Z</time>
      </trkpt>
      <trkpt lat="43.300342" lon="-2.201229">
        <ele>20.851</ele>
        <time>2019-06-15T14:57:49Z</time>
      </trkpt>
      <trkpt lat="43.300410" lon="-2.201380">
        <ele>24.326</ele>
        <time>2019-06-15T14:57:50Z</time>
      </trkpt>
      <trkpt lat="43.300507" lon="-2.201535">
        <ele>24.247</ele>
        <time>2019-06-15T14:57:51Z</time>
      </trkpt>
      <trkpt lat="43.300584" lon="-2.201705">
        <ele>22.811</ele>
        <time>2019-06-15T14:57:52Z</time>
      </trkpt>
      <trkpt lat="43.300666" lon="-2.201879">
        <ele>21.508</ele>
        <time>2019-06-15T14:57:53Z</time>
      </trkpt>
      <trkpt lat="43.300742" lon="-2.202045">
        <ele>21.865</ele>
        <time>2019-06-15T14:57:54Z</time>
      </trkpt>
      <trkpt lat="43.300816" lon="-2.202221">
        <ele>22.739</ele>
        <time>2019-06-15T14:57:55Z</time>
      </trkpt>
      <trkpt lat="43.300893" lon="-2.202388">
        <ele>21.228</ele>
        <time>2019-06-15T14:57:56Z</time>
      </trkpt>
      <trkpt lat="43.300948" lon="-2.202550">
        <ele>21.897</ele>
        <time>2019-06-15T14:57:57Z</time>
      </trkpt>
      <trkpt lat="43.301014" lon="-2.202709">
        <ele>22.386</ele>
        <time>2019-06-15T14:57:58Z</time>
      </trkpt>
      <trkpt lat="43.301105" lon="-2.202851">
        <ele>23.177</ele>
        <time>2019-06-15T14:57:59Z</time>
      </trkpt>
      <trkpt lat="43.301203" lon="-2.202958">
        <ele>23.956</ele>
        <time>2019-06-15T14:58:00Z</time>
      </trkpt>
      <trkpt lat="43.301313" lon="-2.203048">
        <ele>24.140</ele>
        <time>2019-06-15T14:58:01Z</time>
      </trkpt>
      <trkpt lat="43.301427" lon="-2.203122">
        <ele>24.815</ele>
        <time>2019-06-15T14:58:02Z</time>
      </trkpt>
      <trkpt lat="43.301556" lon="-2.203194">
        <ele>24.465</ele>
        <time>2019-06-15T14:58:03Z</time>
      </trkpt>
      <trkpt lat="43.301686" lon="-2.203252">
        <ele>23.111</ele>
        <time>2019-06-15T14:58:04Z</time>
      </trkpt>
      <trkpt lat="43.301810" lon="-2.203317">
        <ele>22.408</ele>
        <time>2019-06-15T14:58:05Z</time>
      </trkpt>
      <trkpt lat="43.301915" lon="-2.203387">
        <ele>22.264</ele>
        <time>2019-06-15T14:58:06Z</time>
      </trkpt>
      <trkpt lat="43.302017" lon="-2.203451">
        <ele>22.818</ele>
        <time>2019-06-15T14:58:07Z</time>
      </trkpt>
      <trkpt lat="43.302115" lon="-2.203509">
        <ele>23.687</ele>
        <time>2019-06-15T14:58:08Z</time>
      </trkpt>
      <trkpt lat="43.302212" lon="-2.203568">
        <ele>24.666</ele>
        <time>2019-06-15T14:58:09Z</time>
      </trkpt>
      <trkpt lat="43.302314" lon="-2.203612">
        <ele>27.035</ele>
        <time>2019-06-15T14:58:10Z</time>
      </trkpt>
      <trkpt lat="43.302396" lon="-2.203659">
        <ele>27.676</ele>
        <time>2019-06-15T14:58:11Z</time>
      </trkpt>
      <trkpt lat="43.302464" lon="-2.203705">
        <ele>28.125</ele>
        <time>2019-06-15T14:58:12Z</time>
      </trkpt>
      <trkpt lat="43.302544" lon="-2.203759">
        <ele>28.849</ele>
        <time>2019-06-15T14:58:13Z</time>
      </trkpt>
      <trkpt lat="43.302614" lon="-2.203809">
        <ele>29.379</ele>
        <time>2019-06-15T14:58:14Z</time>
      </trkpt>
      <trkpt lat="43.302686" lon="-2.203863">
        <ele>29.405</ele>
        <time>2019-06-15T14:58:15Z</time>
      </trkpt>
      <trkpt lat="43.302758" lon="-2.203927">
        <ele>29.125</ele>
        <time>2019-06-15T14:58:16Z</time>
      </trkpt>
      <trkpt lat="43.302827" lon="-2.204028">
        <ele>28.608</ele>
        <time>2019-06-15T14:58:17Z</time>
      </trkpt>
      <trkpt lat="43.302886" lon="-2.204116">
        <ele>28.270</ele>
        <time>2019-06-15T14:58:18Z</time>
      </trkpt>
      <trkpt lat="43.302930" lon="-2.204224">
        <ele>28.044</ele>
        <time>2019-06-15T14:58:19Z</time>
      </trkpt>
      <trkpt lat="43.302982" lon="-2.204337">
        <ele>27.743</ele>
        <time>2019-06-15T14:58:20Z</time>
      </trkpt>
      <trkpt lat="43.303029" lon="-2.204460">
        <ele>27.322</ele>
        <time>2019-06-15T14:58:21Z</time>
      </trkpt>
      <trkpt lat="43.303073" lon="-2.204589">
        <ele>27.711</ele>
        <time>2019-06-15T14:58:22Z</time>
      </trkpt>
      <trkpt lat="43.303127" lon="-2.204733">
        <ele>29.152</ele>
        <time>2019-06-15T14:58:23Z</time>
      </trkpt>
      <trkpt lat="43.303182" lon="-2.204884">
        <ele>30.611</ele>
        <time>2019-06-15T14:58:24Z</time>
      </trkpt>
      <trkpt lat="43.303234" lon="-2.205034">
        <ele>31.855</ele>
        <time>2019-06-15T14:58:25Z</time>
      </trkpt>
      <trkpt lat="43.303260" lon="-2.205183">
        <ele>28.856</ele>
        <time>2019-06-15T14:58:26Z</time>
      </trkpt>
      <trkpt lat="43.303274" lon="-2.205333">
        <ele>25.559</ele>
        <time>2019-06-15T14:58:27Z</time>
      </trkpt>
      <trkpt lat="43.303294" lon="-2.205478">
        <ele>22.614</ele>
        <time>2019-06-15T14:58:28Z</time>
      </trkpt>
      <trkpt lat="43.303301" lon="-2.205620">
        <ele>20.108</ele>
        <time>2019-06-15T14:58:29Z</time>
      </trkpt>
      <trkpt lat="43.303289" lon="-2.205720">
        <ele>19.218</ele>
        <time>2019-06-15T14:58:30Z</time>
      </trkpt>
      <trkpt lat="43.303260" lon="-2.205877">
        <ele>18.262</ele>
        <time>2019-06-15T14:58:31Z</time>
      </trkpt>
      <trkpt lat="43.303238" lon="-2.206025">
        <ele>17.021</ele>
        <time>2019-06-15T14:58:32Z</time>
      </trkpt>
      <trkpt lat="43.303214" lon="-2.206167">
        <ele>16.810</ele>
        <time>2019-06-15T14:58:33Z</time>
      </trkpt>
      <trkpt lat="43.303213" lon="-2.206321">
        <ele>16.299</ele>
        <time>2019-06-15T14:58:34Z</time>
      </trkpt>
      <trkpt lat="43.303244" lon="-2.206476">
        <ele>14.930</ele>
        <time>2019-06-15T14:58:35Z</time>
      </trkpt>
      <trkpt lat="43.303268" lon="-2.206632">
        <ele>14.549</ele>
        <time>2019-06-15T14:58:36Z</time>
      </trkpt>
      <trkpt lat="43.303315" lon="-2.206771">
        <ele>13.163</ele>
        <time>2019-06-15T14:58:37Z</time>
      </trkpt>
      <trkpt lat="43.303353" lon="-2.206903">
        <ele>13.446</ele>
        <time>2019-06-15T14:58:38Z</time>
      </trkpt>
      <trkpt lat="43.303408" lon="-2.207038">
        <ele>13.988</ele>
        <time>2019-06-15T14:58:39Z</time>
      </trkpt>
      <trkpt lat="43.303461" lon="-2.207186">
        <ele>15.816</ele>
        <time>2019-06-15T14:58:40Z</time>
      </trkpt>
      <trkpt lat="43.303559" lon="-2.207310">
        <ele>15.108</ele>
        <time>2019-06-15T14:58:41Z</time>
      </trkpt>
      <trkpt lat="43.303669" lon="-2.207419">
        <ele>14.197</ele>
        <time>2019-06-15T14:58:42Z</time>
      </trkpt>
      <trkpt lat="43.303767" lon="-2.207526">
        <ele>15.331</ele>
        <time>2019-06-15T14:58:43Z</time>
      </trkpt>
      <trkpt lat="43.303879" lon="-2.207634">
        <ele>15.180</ele>
        <time>2019-06-15T14:58:44Z</time>
      </trkpt>
      <trkpt lat="43.303975" lon="-2.207729">
        <ele>14.789</ele>
        <time>2019-06-15T14:58:45Z</time>
      </trkpt>
      <trkpt lat="43.304073" lon="-2.207823">
        <ele>14.778</ele>
        <time>2019-06-15T14:58:46Z</time>
      </trkpt>
      <trkpt lat="43.304156" lon="-2.207916">
        <ele>14.229</ele>
        <time>2019-06-15T14:58:47Z</time>
      </trkpt>
      <trkpt lat="43.304194" lon="-2.207982">
        <ele>14.238</ele>
        <time>2019-06-15T14:58:49Z</time>
      </trkpt>
      <trkpt lat="43.304268" lon="-2.208005">
        <ele>13.822</ele>
        <time>2019-06-15T14:58:50Z</time>
      </trkpt>
      <trkpt lat="43.304197" lon="-2.208052">
        <ele>14.877</ele>
        <time>2019-06-15T14:59:54Z</time>
      </trkpt>
      <trkpt lat="43.304316" lon="-2.208108">
        <ele>15.161</ele>
        <time>2019-06-15T14:59:56Z</time>
      </trkpt>
      <trkpt lat="43.304383" lon="-2.208142">
        <ele>15.027</ele>
        <time>2019-06-15T14:59:57Z</time>
      </trkpt>
      <trkpt lat="43.304479" lon="-2.208173">
        <ele>14.208</ele>
        <time>2019-06-15T14:59:58Z</time>
      </trkpt>
      <trkpt lat="43.304590" lon="-2.208220">
        <ele>13.330</ele>
        <time>2019-06-15T14:59:59Z</time>
      </trkpt>
      <trkpt lat="43.304726" lon="-2.208271">
        <ele>12.114</ele>
        <time>2019-06-15T15:00:00Z</time>
      </trkpt>
      <trkpt lat="43.304864" lon="-2.208328">
        <ele>12.493</ele>
        <time>2019-06-15T15:00:01Z</time>
      </trkpt>
      <trkpt lat="43.305007" lon="-2.208380">
        <ele>13.042</ele>
        <time>2019-06-15T15:00:02Z</time>
      </trkpt>
      <trkpt lat="43.305141" lon="-2.208449">
        <ele>12.561</ele>
        <time>2019-06-15T15:00:03Z</time>
      </trkpt>
      <trkpt lat="43.305286" lon="-2.208521">
        <ele>12.692</ele>
        <time>2019-06-15T15:00:04Z</time>
      </trkpt>
      <trkpt lat="43.305420" lon="-2.208616">
        <ele>12.581</ele>
        <time>2019-06-15T15:00:05Z</time>
      </trkpt>
      <trkpt lat="43.305526" lon="-2.208732">
        <ele>12.555</ele>
        <time>2019-06-15T15:00:06Z</time>
      </trkpt>
      <trkpt lat="43.305613" lon="-2.208862">
        <ele>11.822</ele>
        <time>2019-06-15T15:00:07Z</time>
      </trkpt>
      <trkpt lat="43.305694" lon="-2.209011">
        <ele>11.462</ele>
        <time>2019-06-15T15:00:08Z</time>
      </trkpt>
      <trkpt lat="43.305747" lon="-2.209171">
        <ele>12.408</ele>
        <time>2019-06-15T15:00:09Z</time>
      </trkpt>
      <trkpt lat="43.305783" lon="-2.209329">
        <ele>10.708</ele>
        <time>2019-06-15T15:00:10Z</time>
      </trkpt>
      <trkpt lat="43.305784" lon="-2.209515">
        <ele>10.095</ele>
        <time>2019-06-15T15:00:11Z</time>
      </trkpt>
      <trkpt lat="43.305773" lon="-2.209698">
        <ele>9.139</ele>
        <time>2019-06-15T15:00:12Z</time>
      </trkpt>
      <trkpt lat="43.305771" lon="-2.209897">
        <ele>9.378</ele>
        <time>2019-06-15T15:00:13Z</time>
      </trkpt>
      <trkpt lat="43.305763" lon="-2.210100">
        <ele>10.847</ele>
        <time>2019-06-15T15:00:14Z</time>
      </trkpt>
      <trkpt lat="43.305757" lon="-2.210286">
        <ele>12.396</ele>
        <time>2019-06-15T15:00:15Z</time>
      </trkpt>
      <trkpt lat="43.305793" lon="-2.210463">
        <ele>10.237</ele>
        <time>2019-06-15T15:00:16Z</time>
      </trkpt>
      <trkpt lat="43.305850" lon="-2.210634">
        <ele>8.576</ele>
        <time>2019-06-15T15:00:17Z</time>
      </trkpt>
      <trkpt lat="43.305922" lon="-2.210811">
        <ele>10.090</ele>
        <time>2019-06-15T15:00:18Z</time>
      </trkpt>
      <trkpt lat="43.306019" lon="-2.211000">
        <ele>11.047</ele>
        <time>2019-06-15T15:00:19Z</time>
      </trkpt>
      <trkpt lat="43.306122" lon="-2.211172">
        <ele>11.229</ele>
        <time>2019-06-15T15:00:20Z</time>
      </trkpt>
      <trkpt lat="43.306208" lon="-2.211356">
        <ele>12.221</ele>
        <time>2019-06-15T15:00:21Z</time>
      </trkpt>
      <trkpt lat="43.306310" lon="-2.211526">
        <ele>11.408</ele>
        <time>2019-06-15T15:00:22Z</time>
      </trkpt>
      <trkpt lat="43.306407" lon="-2.211700">
        <ele>11.137</ele>
        <time>2019-06-15T15:00:23Z</time>
      </trkpt>
      <trkpt lat="43.306505" lon="-2.211858">
        <ele>11.221</ele>
        <time>2019-06-15T15:00:24Z</time>
      </trkpt>
      <trkpt lat="43.306611" lon="-2.212007">
        <ele>10.990</ele>
        <time>2019-06-15T15:00:25Z</time>
      </trkpt>
      <trkpt lat="43.306697" lon="-2.212148">
        <ele>12.179</ele>
        <time>2019-06-15T15:00:26Z</time>
      </trkpt>
      <trkpt lat="43.306791" lon="-2.212299">
        <ele>12.618</ele>
        <time>2019-06-15T15:00:27Z</time>
      </trkpt>
      <trkpt lat="43.306860" lon="-2.212453">
        <ele>13.319</ele>
        <time>2019-06-15T15:00:28Z</time>
      </trkpt>
      <trkpt lat="43.306916" lon="-2.212639">
        <ele>13.568</ele>
        <time>2019-06-15T15:00:29Z</time>
      </trkpt>
      <trkpt lat="43.306961" lon="-2.212836">
        <ele>11.712</ele>
        <time>2019-06-15T15:00:30Z</time>
      </trkpt>
      <trkpt lat="43.306996" lon="-2.213038">
        <ele>8.568</ele>
        <time>2019-06-15T15:00:31Z</time>
      </trkpt>
      <trkpt lat="43.307012" lon="-2.213227">
        <ele>7.242</ele>
        <time>2019-06-15T15:00:32Z</time>
      </trkpt>
      <trkpt lat="43.307020" lon="-2.213419">
        <ele>6.326</ele>
        <time>2019-06-15T15:00:33Z</time>
      </trkpt>
      <trkpt lat="43.306968" lon="-2.213665">
        <ele>7.308</ele>
        <time>2019-06-15T15:00:34Z</time>
      </trkpt>
      <trkpt lat="43.306969" lon="-2.213877">
        <ele>7.489</ele>
        <time>2019-06-15T15:00:35Z</time>
      </trkpt>
      <trkpt lat="43.307001" lon="-2.214080">
        <ele>9.563</ele>
        <time>2019-06-15T15:00:36Z</time>
      </trkpt>
      <trkpt lat="43.307036" lon="-2.214290">
        <ele>10.662</ele>
        <time>2019-06-15T15:00:37Z</time>
      </trkpt>
      <trkpt lat="43.307104" lon="-2.214498">
        <ele>10.131</ele>
        <time>2019-06-15T15:00:38Z</time>
      </trkpt>
      <trkpt lat="43.307204" lon="-2.214669">
        <ele>10.230</ele>
        <time>2019-06-15T15:00:39Z</time>
      </trkpt>
      <trkpt lat="43.307328" lon="-2.214843">
        <ele>10.781</ele>
        <time>2019-06-15T15:00:40Z</time>
      </trkpt>
      <trkpt lat="43.307470" lon="-2.214987">
        <ele>11.280</ele>
        <time>2019-06-15T15:00:41Z</time>
      </trkpt>
      <trkpt lat="43.307630" lon="-2.215123">
        <ele>11.494</ele>
        <time>2019-06-15T15:00:42Z</time>
      </trkpt>
      <trkpt lat="43.307782" lon="-2.215244">
        <ele>12.662</ele>
        <time>2019-06-15T15:00:43Z</time>
      </trkpt>
      <trkpt lat="43.307926" lon="-2.215359">
        <ele>12.683</ele>
        <time>2019-06-15T15:00:44Z</time>
      </trkpt>
      <trkpt lat="43.308058" lon="-2.215479">
        <ele>13.511</ele>
        <time>2019-06-15T15:00:45Z</time>
      </trkpt>
      <trkpt lat="43.308174" lon="-2.215592">
        <ele>14.708</ele>
        <time>2019-06-15T15:00:46Z</time>
      </trkpt>
      <trkpt lat="43.308299" lon="-2.215704">
        <ele>14.949</ele>
        <time>2019-06-15T15:00:47Z</time>
      </trkpt>
      <trkpt lat="43.308402" lon="-2.215824">
        <ele>15.683</ele>
        <time>2019-06-15T15:00:48Z</time>
      </trkpt>
      <trkpt lat="43.308507" lon="-2.215965">
        <ele>15.242</ele>
        <time>2019-06-15T15:00:49Z</time>
      </trkpt>
      <trkpt lat="43.308550" lon="-2.216125">
        <ele>15.661</ele>
        <time>2019-06-15T15:00:50Z</time>
      </trkpt>
      <trkpt lat="43.308632" lon="-2.216318">
        <ele>12.480</ele>
        <time>2019-06-15T15:00:51Z</time>
      </trkpt>
      <trkpt lat="43.308697" lon="-2.216530">
        <ele>10.781</ele>
        <time>2019-06-15T15:00:52Z</time>
      </trkpt>
      <trkpt lat="43.308751" lon="-2.216756">
        <ele>9.970</ele>
        <time>2019-06-15T15:00:53Z</time>
      </trkpt>
      <trkpt lat="43.308805" lon="-2.217001">
        <ele>8.664</ele>
        <time>2019-06-15T15:00:54Z</time>
      </trkpt>
      <trkpt lat="43.308851" lon="-2.217250">
        <ele>8.087</ele>
        <time>2019-06-15T15:00:55Z</time>
      </trkpt>
      <trkpt lat="43.308883" lon="-2.217508">
        <ele>9.642</ele>
        <time>2019-06-15T15:00:56Z</time>
      </trkpt>
      <trkpt lat="43.308915" lon="-2.217764">
        <ele>11.626</ele>
        <time>2019-06-15T15:00:57Z</time>
      </trkpt>
      <trkpt lat="43.308931" lon="-2.218027">
        <ele>11.808</ele>
        <time>2019-06-15T15:00:58Z</time>
      </trkpt>
      <trkpt lat="43.308944" lon="-2.218302">
        <ele>9.871</ele>
        <time>2019-06-15T15:00:59Z</time>
      </trkpt>
      <trkpt lat="43.308957" lon="-2.218577">
        <ele>10.465</ele>
        <time>2019-06-15T15:01:00Z</time>
      </trkpt>
      <trkpt lat="43.308959" lon="-2.218840">
        <ele>11.724</ele>
        <time>2019-06-15T15:01:01Z</time>
      </trkpt>
      <trkpt lat="43.308966" lon="-2.219107">
        <ele>12.383</ele>
        <time>2019-06-15T15:01:02Z</time>
      </trkpt>
      <trkpt lat="43.308951" lon="-2.219361">
        <ele>15.912</ele>
        <time>2019-06-15T15:01:03Z</time>
      </trkpt>
      <trkpt lat="43.308948" lon="-2.219640">
        <ele>18.493</ele>
        <time>2019-06-15T15:01:04Z</time>
      </trkpt>
      <trkpt lat="43.308965" lon="-2.219895">
        <ele>18.282</ele>
        <time>2019-06-15T15:01:05Z</time>
      </trkpt>
      <trkpt lat="43.308984" lon="-2.220097">
        <ele>18.186</ele>
        <time>2019-06-15T15:01:06Z</time>
      </trkpt>
      <trkpt lat="43.308994" lon="-2.220346">
        <ele>19.673</ele>
        <time>2019-06-15T15:01:07Z</time>
      </trkpt>
      <trkpt lat="43.309029" lon="-2.220612">
        <ele>19.085</ele>
        <time>2019-06-15T15:01:08Z</time>
      </trkpt>
      <trkpt lat="43.309055" lon="-2.220879">
        <ele>18.413</ele>
        <time>2019-06-15T15:01:09Z</time>
      </trkpt>
      <trkpt lat="43.309053" lon="-2.221129">
        <ele>21.708</ele>
        <time>2019-06-15T15:01:10Z</time>
      </trkpt>
      <trkpt lat="43.309099" lon="-2.221379">
        <ele>23.820</ele>
        <time>2019-06-15T15:01:11Z</time>
      </trkpt>
      <trkpt lat="43.309171" lon="-2.221619">
        <ele>23.554</ele>
        <time>2019-06-15T15:01:12Z</time>
      </trkpt>
      <trkpt lat="43.309223" lon="-2.221853">
        <ele>24.383</ele>
        <time>2019-06-15T15:01:13Z</time>
      </trkpt>
      <trkpt lat="43.309339" lon="-2.222056">
        <ele>24.632</ele>
        <time>2019-06-15T15:01:14Z</time>
      </trkpt>
      <trkpt lat="43.309476" lon="-2.222241">
        <ele>25.151</ele>
        <time>2019-06-15T15:01:15Z</time>
      </trkpt>
      <trkpt lat="43.309606" lon="-2.222406">
        <ele>24.922</ele>
        <time>2019-06-15T15:01:16Z</time>
      </trkpt>
      <trkpt lat="43.309698" lon="-2.222558">
        <ele>26.931</ele>
        <time>2019-06-15T15:01:17Z</time>
      </trkpt>
      <trkpt lat="43.309767" lon="-2.222722">
        <ele>25.735</ele>
        <time>2019-06-15T15:01:18Z</time>
      </trkpt>
      <trkpt lat="43.309816" lon="-2.222910">
        <ele>23.916</ele>
        <time>2019-06-15T15:01:19Z</time>
      </trkpt>
      <trkpt lat="43.309845" lon="-2.223124">
        <ele>23.076</ele>
        <time>2019-06-15T15:01:20Z</time>
      </trkpt>
      <trkpt lat="43.309857" lon="-2.223358">
        <ele>22.413</ele>
        <time>2019-06-15T15:01:21Z</time>
      </trkpt>
      <trkpt lat="43.309845" lon="-2.223594">
        <ele>24.708</ele>
        <time>2019-06-15T15:01:22Z</time>
      </trkpt>
      <trkpt lat="43.309810" lon="-2.223832">
        <ele>27.384</ele>
        <time>2019-06-15T15:01:23Z</time>
      </trkpt>
      <trkpt lat="43.309780" lon="-2.224070">
        <ele>29.138</ele>
        <time>2019-06-15T15:01:24Z</time>
      </trkpt>
      <trkpt lat="43.309773" lon="-2.224287">
        <ele>30.357</ele>
        <time>2019-06-15T15:01:25Z</time>
      </trkpt>
      <trkpt lat="43.309790" lon="-2.224510">
        <ele>31.246</ele>
        <time>2019-06-15T15:01:26Z</time>
      </trkpt>
      <trkpt lat="43.309824" lon="-2.224714">
        <ele>31.395</ele>
        <time>2019-06-15T15:01:27Z</time>
      </trkpt>
      <trkpt lat="43.309864" lon="-2.224896">
        <ele>32.726</ele>
        <time>2019-06-15T15:01:28Z</time>
      </trkpt>
      <trkpt lat="43.309898" lon="-2.225080">
        <ele>34.725</ele>
        <time>2019-06-15T15:01:29Z</time>
      </trkpt>
      <trkpt lat="43.309945" lon="-2.225246">
        <ele>36.969</ele>
        <time>2019-06-15T15:01:30Z</time>
      </trkpt>
      <trkpt lat="43.309990" lon="-2.225402">
        <ele>35.756</ele>
        <time>2019-06-15T15:01:31Z</time>
      </trkpt>
      <trkpt lat="43.310040" lon="-2.225575">
        <ele>31.559</ele>
        <time>2019-06-15T15:01:32Z</time>
      </trkpt>
      <trkpt lat="43.310093" lon="-2.225753">
        <ele>27.814</ele>
        <time>2019-06-15T15:01:33Z</time>
      </trkpt>
      <trkpt lat="43.310148" lon="-2.225945">
        <ele>25.708</ele>
        <time>2019-06-15T15:01:34Z</time>
      </trkpt>
      <trkpt lat="43.310199" lon="-2.226141">
        <ele>25.578</ele>
        <time>2019-06-15T15:01:35Z</time>
      </trkpt>
      <trkpt lat="43.310244" lon="-2.226341">
        <ele>26.332</ele>
        <time>2019-06-15T15:01:36Z</time>
      </trkpt>
      <trkpt lat="43.310275" lon="-2.226548">
        <ele>26.151</ele>
        <time>2019-06-15T15:01:37Z</time>
      </trkpt>
      <trkpt lat="43.310296" lon="-2.226751">
        <ele>25.340</ele>
        <time>2019-06-15T15:01:38Z</time>
      </trkpt>
      <trkpt lat="43.310315" lon="-2.226955">
        <ele>24.959</ele>
        <time>2019-06-15T15:01:39Z</time>
      </trkpt>
      <trkpt lat="43.310328" lon="-2.227158">
        <ele>24.250</ele>
        <time>2019-06-15T15:01:40Z</time>
      </trkpt>
      <trkpt lat="43.310346" lon="-2.227354">
        <ele>23.739</ele>
        <time>2019-06-15T15:01:41Z</time>
      </trkpt>
      <trkpt lat="43.310365" lon="-2.227542">
        <ele>23.543</ele>
        <time>2019-06-15T15:01:42Z</time>
      </trkpt>
      <trkpt lat="43.310369" lon="-2.227717">
        <ele>24.673</ele>
        <time>2019-06-15T15:01:43Z</time>
      </trkpt>
      <trkpt lat="43.310374" lon="-2.227883">
        <ele>25.185</ele>
        <time>2019-06-15T15:01:44Z</time>
      </trkpt>
      <trkpt lat="43.310352" lon="-2.228026">
        <ele>26.113</ele>
        <time>2019-06-15T15:01:45Z</time>
      </trkpt>
      <trkpt lat="43.310349" lon="-2.228163">
        <ele>25.208</ele>
        <time>2019-06-15T15:01:46Z</time>
      </trkpt>
      <trkpt lat="43.310329" lon="-2.228295">
        <ele>24.730</ele>
        <time>2019-06-15T15:01:47Z</time>
      </trkpt>
      <trkpt lat="43.310291" lon="-2.228429">
        <ele>23.834</ele>
        <time>2019-06-15T15:01:48Z</time>
      </trkpt>
      <trkpt lat="43.310255" lon="-2.228581">
        <ele>22.723</ele>
        <time>2019-06-15T15:01:49Z</time>
      </trkpt>
      <trkpt lat="43.310195" lon="-2.228736">
        <ele>19.242</ele>
        <time>2019-06-15T15:01:50Z</time>
      </trkpt>
      <trkpt lat="43.310126" lon="-2.228904">
        <ele>16.641</ele>
        <time>2019-06-15T15:01:51Z</time>
      </trkpt>
      <trkpt lat="43.310050" lon="-2.229087">
        <ele>16.652</ele>
        <time>2019-06-15T15:01:52Z</time>
      </trkpt>
      <trkpt lat="43.309981" lon="-2.229287">
        <ele>16.711</ele>
        <time>2019-06-15T15:01:53Z</time>
      </trkpt>
      <trkpt lat="43.309918" lon="-2.229516">
        <ele>17.345</ele>
        <time>2019-06-15T15:01:54Z</time>
      </trkpt>
      <trkpt lat="43.309875" lon="-2.229749">
        <ele>16.754</ele>
        <time>2019-06-15T15:01:55Z</time>
      </trkpt>
      <trkpt lat="43.309824" lon="-2.229984">
        <ele>17.456</ele>
        <time>2019-06-15T15:01:56Z</time>
      </trkpt>
      <trkpt lat="43.309774" lon="-2.230230">
        <ele>17.811</ele>
        <time>2019-06-15T15:01:57Z</time>
      </trkpt>
      <trkpt lat="43.309724" lon="-2.230476">
        <ele>19.208</ele>
        <time>2019-06-15T15:01:58Z</time>
      </trkpt>
      <trkpt lat="43.309651" lon="-2.230732">
        <ele>20.688</ele>
        <time>2019-06-15T15:01:59Z</time>
      </trkpt>
      <trkpt lat="43.309566" lon="-2.230973">
        <ele>19.492</ele>
        <time>2019-06-15T15:02:00Z</time>
      </trkpt>
      <trkpt lat="43.309464" lon="-2.231228">
        <ele>18.681</ele>
        <time>2019-06-15T15:02:01Z</time>
      </trkpt>
      <trkpt lat="43.309361" lon="-2.231467">
        <ele>18.970</ele>
        <time>2019-06-15T15:02:02Z</time>
      </trkpt>
      <trkpt lat="43.309251" lon="-2.231721">
        <ele>17.049</ele>
        <time>2019-06-15T15:02:03Z</time>
      </trkpt>
      <trkpt lat="43.309151" lon="-2.231959">
        <ele>17.590</ele>
        <time>2019-06-15T15:02:04Z</time>
      </trkpt>
      <trkpt lat="43.309037" lon="-2.232221">
        <ele>16.229</ele>
        <time>2019-06-15T15:02:05Z</time>
      </trkpt>
      <trkpt lat="43.308924" lon="-2.232484">
        <ele>15.733</ele>
        <time>2019-06-15T15:02:06Z</time>
      </trkpt>
      <trkpt lat="43.308821" lon="-2.232752">
        <ele>16.786</ele>
        <time>2019-06-15T15:02:07Z</time>
      </trkpt>
      <trkpt lat="43.308713" lon="-2.233025">
        <ele>15.660</ele>
        <time>2019-06-15T15:02:08Z</time>
      </trkpt>
      <trkpt lat="43.308630" lon="-2.233302">
        <ele>16.326</ele>
        <time>2019-06-15T15:02:09Z</time>
      </trkpt>
      <trkpt lat="43.308528" lon="-2.233606">
        <ele>18.708</ele>
        <time>2019-06-15T15:02:10Z</time>
      </trkpt>
      <trkpt lat="43.308497" lon="-2.233855">
        <ele>16.951</ele>
        <time>2019-06-15T15:02:11Z</time>
      </trkpt>
      <trkpt lat="43.308475" lon="-2.234160">
        <ele>13.545</ele>
        <time>2019-06-15T15:02:12Z</time>
      </trkpt>
      <trkpt lat="43.308430" lon="-2.234477">
        <ele>13.724</ele>
        <time>2019-06-15T15:02:13Z</time>
      </trkpt>
      <trkpt lat="43.308382" lon="-2.234782">
        <ele>14.083</ele>
        <time>2019-06-15T15:02:14Z</time>
      </trkpt>
      <trkpt lat="43.308392" lon="-2.235071">
        <ele>12.082</ele>
        <time>2019-06-15T15:02:15Z</time>
      </trkpt>
      <trkpt lat="43.308359" lon="-2.235367">
        <ele>10.853</ele>
        <time>2019-06-15T15:02:16Z</time>
      </trkpt>
      <trkpt lat="43.308335" lon="-2.235644">
        <ele>10.932</ele>
        <time>2019-06-15T15:02:17Z</time>
      </trkpt>
      <trkpt lat="43.308314" lon="-2.235920">
        <ele>11.656</ele>
        <time>2019-06-15T15:02:18Z</time>
      </trkpt>
      <trkpt lat="43.308323" lon="-2.236170">
        <ele>10.522</ele>
        <time>2019-06-15T15:02:19Z</time>
      </trkpt>
      <trkpt lat="43.308333" lon="-2.236420">
        <ele>10.162</ele>
        <time>2019-06-15T15:02:20Z</time>
      </trkpt>
      <trkpt lat="43.308358" lon="-2.236665">
        <ele>10.008</ele>
        <time>2019-06-15T15:02:21Z</time>
      </trkpt>
      <trkpt lat="43.308362" lon="-2.236916">
        <ele>9.908</ele>
        <time>2019-06-15T15:02:22Z</time>
      </trkpt>
      <trkpt lat="43.308351" lon="-2.237152">
        <ele>8.295</ele>
        <time>2019-06-15T15:02:23Z</time>
      </trkpt>
      <trkpt lat="43.308331" lon="-2.237407">
        <ele>6.819</ele>
        <time>2019-06-15T15:02:24Z</time>
      </trkpt>
      <trkpt lat="43.308276" lon="-2.237663">
        <ele>8.578</ele>
        <time>2019-06-15T15:02:25Z</time>
      </trkpt>
      <trkpt lat="43.308231" lon="-2.237878">
        <ele>8.437</ele>
        <time>2019-06-15T15:02:26Z</time>
      </trkpt>
      <trkpt lat="43.308192" lon="-2.238070">
        <ele>6.466</ele>
        <time>2019-06-15T15:02:27Z</time>
      </trkpt>
      <trkpt lat="43.308134" lon="-2.238289">
        <ele>3.987</ele>
        <time>2019-06-15T15:02:28Z</time>
      </trkpt>
      <trkpt lat="43.308047" lon="-2.238486">
        <ele>3.386</ele>
        <time>2019-06-15T15:02:29Z</time>
      </trkpt>
      <trkpt lat="43.307948" lon="-2.238689">
        <ele>7.910</ele>
        <time>2019-06-15T15:02:30Z</time>
      </trkpt>
      <trkpt lat="43.307871" lon="-2.238884">
        <ele>11.323</ele>
        <time>2019-06-15T15:02:31Z</time>
      </trkpt>
      <trkpt lat="43.307637" lon="-2.239023">
        <ele>15.083</ele>
        <time>2019-06-15T15:02:32Z</time>
      </trkpt>
      <trkpt lat="43.307513" lon="-2.239067">
        <ele>15.211</ele>
        <time>2019-06-15T15:02:33Z</time>
      </trkpt>
      <trkpt lat="43.307377" lon="-2.239139">
        <ele>13.408</ele>
        <time>2019-06-15T15:02:34Z</time>
      </trkpt>
      <trkpt lat="43.307235" lon="-2.239206">
        <ele>12.065</ele>
        <time>2019-06-15T15:02:35Z</time>
      </trkpt>
      <trkpt lat="43.307087" lon="-2.239228">
        <ele>11.539</ele>
        <time>2019-06-15T15:02:36Z</time>
      </trkpt>
      <trkpt lat="43.306938" lon="-2.239261">
        <ele>10.618</ele>
        <time>2019-06-15T15:02:37Z</time>
      </trkpt>
      <trkpt lat="43.306748" lon="-2.239118">
        <ele>14.767</ele>
        <time>2019-06-15T15:02:38Z</time>
      </trkpt>
      <trkpt lat="43.306553" lon="-2.239065">
        <ele>15.296</ele>
        <time>2019-06-15T15:02:39Z</time>
      </trkpt>
      <trkpt lat="43.306368" lon="-2.239030">
        <ele>14.697</ele>
        <time>2019-06-15T15:02:40Z</time>
      </trkpt>
      <trkpt lat="43.306177" lon="-2.238999">
        <ele>12.826</ele>
        <time>2019-06-15T15:02:41Z</time>
      </trkpt>
      <trkpt lat="43.305995" lon="-2.238968">
        <ele>11.720</ele>
        <time>2019-06-15T15:02:42Z</time>
      </trkpt>
      <trkpt lat="43.305829" lon="-2.238938">
        <ele>10.833</ele>
        <time>2019-06-15T15:02:43Z</time>
      </trkpt>
      <trkpt lat="43.305665" lon="-2.238880">
        <ele>11.223</ele>
        <time>2019-06-15T15:02:44Z</time>
      </trkpt>
      <trkpt lat="43.305484" lon="-2.238847">
        <ele>11.515</ele>
        <time>2019-06-15T15:02:45Z</time>
      </trkpt>
      <trkpt lat="43.305299" lon="-2.238836">
        <ele>11.308</ele>
        <time>2019-06-15T15:02:46Z</time>
      </trkpt>
      <trkpt lat="43.305129" lon="-2.238813">
        <ele>12.666</ele>
        <time>2019-06-15T15:02:47Z</time>
      </trkpt>
      <trkpt lat="43.304967" lon="-2.238814">
        <ele>12.210</ele>
        <time>2019-06-15T15:02:48Z</time>
      </trkpt>
      <trkpt lat="43.304803" lon="-2.238848">
        <ele>9.819</ele>
        <time>2019-06-15T15:02:49Z</time>
      </trkpt>
      <trkpt lat="43.304621" lon="-2.238925">
        <ele>7.578</ele>
        <time>2019-06-15T15:02:50Z</time>
      </trkpt>
      <trkpt lat="43.304458" lon="-2.239055">
        <ele>5.557</ele>
        <time>2019-06-15T15:02:51Z</time>
      </trkpt>
      <trkpt lat="43.304309" lon="-2.239188">
        <ele>5.168</ele>
        <time>2019-06-15T15:02:52Z</time>
      </trkpt>
      <trkpt lat="43.304164" lon="-2.239359">
        <ele>5.647</ele>
        <time>2019-06-15T15:02:53Z</time>
      </trkpt>
      <trkpt lat="43.304031" lon="-2.239561">
        <ele>6.451</ele>
        <time>2019-06-15T15:02:54Z</time>
      </trkpt>
      <trkpt lat="43.303939" lon="-2.239766">
        <ele>6.188</ele>
        <time>2019-06-15T15:02:55Z</time>
      </trkpt>
      <trkpt lat="43.303833" lon="-2.240000">
        <ele>5.024</ele>
        <time>2019-06-15T15:02:56Z</time>
      </trkpt>
      <trkpt lat="43.303735" lon="-2.240219">
        <ele>5.726</ele>
        <time>2019-06-15T15:02:57Z</time>
      </trkpt>
      <trkpt lat="43.303635" lon="-2.240426">
        <ele>5.308</ele>
        <time>2019-06-15T15:02:58Z</time>
      </trkpt>
      <trkpt lat="43.303537" lon="-2.240642">
        <ele>5.841</ele>
        <time>2019-06-15T15:02:59Z</time>
      </trkpt>
      <trkpt lat="43.303439" lon="-2.240866">
        <ele>6.025</ele>
        <time>2019-06-15T15:03:00Z</time>
      </trkpt>
      <trkpt lat="43.303352" lon="-2.241115">
        <ele>6.514</ele>
        <time>2019-06-15T15:03:01Z</time>
      </trkpt>
      <trkpt lat="43.303283" lon="-2.241366">
        <ele>8.633</ele>
        <time>2019-06-15T15:03:02Z</time>
      </trkpt>
      <trkpt lat="43.303285" lon="-2.241626">
        <ele>8.772</ele>
        <time>2019-06-15T15:03:03Z</time>
      </trkpt>
      <trkpt lat="43.303263" lon="-2.241917">
        <ele>10.333</ele>
        <time>2019-06-15T15:03:04Z</time>
      </trkpt>
      <trkpt lat="43.303295" lon="-2.242159">
        <ele>10.682</ele>
        <time>2019-06-15T15:03:05Z</time>
      </trkpt>
      <trkpt lat="43.303301" lon="-2.242420">
        <ele>10.336</ele>
        <time>2019-06-15T15:03:06Z</time>
      </trkpt>
      <trkpt lat="43.303295" lon="-2.242692">
        <ele>10.531</ele>
        <time>2019-06-15T15:03:07Z</time>
      </trkpt>
      <trkpt lat="43.303317" lon="-2.242915">
        <ele>8.661</ele>
        <time>2019-06-15T15:03:08Z</time>
      </trkpt>
      <trkpt lat="43.303315" lon="-2.243151">
        <ele>7.807</ele>
        <time>2019-06-15T15:03:09Z</time>
      </trkpt>
      <trkpt lat="43.303315" lon="-2.243372">
        <ele>7.008</ele>
        <time>2019-06-15T15:03:10Z</time>
      </trkpt>
      <trkpt lat="43.303335" lon="-2.243575">
        <ele>5.186</ele>
        <time>2019-06-15T15:03:11Z</time>
      </trkpt>
      <trkpt lat="43.303317" lon="-2.243775">
        <ele>5.470</ele>
        <time>2019-06-15T15:03:12Z</time>
      </trkpt>
      <trkpt lat="43.303281" lon="-2.243967">
        <ele>6.669</ele>
        <time>2019-06-15T15:03:13Z</time>
      </trkpt>
      <trkpt lat="43.303225" lon="-2.244133">
        <ele>8.358</ele>
        <time>2019-06-15T15:03:14Z</time>
      </trkpt>
      <trkpt lat="43.303095" lon="-2.244277">
        <ele>10.177</ele>
        <time>2019-06-15T15:03:15Z</time>
      </trkpt>
      <trkpt lat="43.302984" lon="-2.244422">
        <ele>6.518</ele>
        <time>2019-06-15T15:03:16Z</time>
      </trkpt>
      <trkpt lat="43.302857" lon="-2.244551">
        <ele>5.747</ele>
        <time>2019-06-15T15:03:17Z</time>
      </trkpt>
      <trkpt lat="43.302704" lon="-2.244692">
        <ele>4.951</ele>
        <time>2019-06-15T15:03:18Z</time>
      </trkpt>
      <trkpt lat="43.302554" lon="-2.244828">
        <ele>5.877</ele>
        <time>2019-06-15T15:03:19Z</time>
      </trkpt>
      <trkpt lat="43.302407" lon="-2.244959">
        <ele>6.361</ele>
        <time>2019-06-15T15:03:20Z</time>
      </trkpt>
      <trkpt lat="43.302262" lon="-2.245090">
        <ele>8.027</ele>
        <time>2019-06-15T15:03:21Z</time>
      </trkpt>
      <trkpt lat="43.302100" lon="-2.245232">
        <ele>12.408</ele>
        <time>2019-06-15T15:03:22Z</time>
      </trkpt>
      <trkpt lat="43.301939" lon="-2.245374">
        <ele>15.150</ele>
        <time>2019-06-15T15:03:23Z</time>
      </trkpt>
      <trkpt lat="43.301573" lon="-2.245574">
        <ele>16.394</ele>
        <time>2019-06-15T15:03:25Z</time>
      </trkpt>
      <trkpt lat="43.301390" lon="-2.245767">
        <ele>12.833</ele>
        <time>2019-06-15T15:03:26Z</time>
      </trkpt>
      <trkpt lat="43.301255" lon="-2.245920">
        <ele>14.542</ele>
        <time>2019-06-15T15:03:27Z</time>
      </trkpt>
      <trkpt lat="43.301135" lon="-2.246055">
        <ele>12.211</ele>
        <time>2019-06-15T15:03:28Z</time>
      </trkpt>
      <trkpt lat="43.301016" lon="-2.246175">
        <ele>11.562</ele>
        <time>2019-06-15T15:03:29Z</time>
      </trkpt>
      <trkpt lat="43.300880" lon="-2.246263">
        <ele>13.761</ele>
        <time>2019-06-15T15:03:30Z</time>
      </trkpt>
      <trkpt lat="43.300735" lon="-2.246357">
        <ele>11.215</ele>
        <time>2019-06-15T15:03:31Z</time>
      </trkpt>
      <trkpt lat="43.300589" lon="-2.246400">
        <ele>9.128</ele>
        <time>2019-06-15T15:03:32Z</time>
      </trkpt>
      <trkpt lat="43.300395" lon="-2.246362">
        <ele>8.989</ele>
        <time>2019-06-15T15:03:33Z</time>
      </trkpt>
      <trkpt lat="43.300214" lon="-2.246337">
        <ele>8.117</ele>
        <time>2019-06-15T15:03:34Z</time>
      </trkpt>
      <trkpt lat="43.300050" lon="-2.246311">
        <ele>6.908</ele>
        <time>2019-06-15T15:03:35Z</time>
      </trkpt>
      <trkpt lat="43.299886" lon="-2.246288">
        <ele>6.745</ele>
        <time>2019-06-15T15:03:36Z</time>
      </trkpt>
      <trkpt lat="43.299734" lon="-2.246257">
        <ele>6.939</ele>
        <time>2019-06-15T15:03:37Z</time>
      </trkpt>
      <trkpt lat="43.299588" lon="-2.246254">
        <ele>7.788</ele>
        <time>2019-06-15T15:03:38Z</time>
      </trkpt>
      <trkpt lat="43.299454" lon="-2.246273">
        <ele>8.227</ele>
        <time>2019-06-15T15:03:39Z</time>
      </trkpt>
      <trkpt lat="43.299318" lon="-2.246318">
        <ele>8.986</ele>
        <time>2019-06-15T15:03:40Z</time>
      </trkpt>
      <trkpt lat="43.299192" lon="-2.246391">
        <ele>8.817</ele>
        <time>2019-06-15T15:03:41Z</time>
      </trkpt>
      <trkpt lat="43.299072" lon="-2.246477">
        <ele>8.676</ele>
        <time>2019-06-15T15:03:42Z</time>
      </trkpt>
      <trkpt lat="43.298973" lon="-2.246572">
        <ele>7.910</ele>
        <time>2019-06-15T15:03:43Z</time>
      </trkpt>
      <trkpt lat="43.298863" lon="-2.246691">
        <ele>6.862</ele>
        <time>2019-06-15T15:03:44Z</time>
      </trkpt>
      <trkpt lat="43.298755" lon="-2.246808">
        <ele>6.383</ele>
        <time>2019-06-15T15:03:45Z</time>
      </trkpt>
      <trkpt lat="43.298648" lon="-2.246928">
        <ele>6.011</ele>
        <time>2019-06-15T15:03:46Z</time>
      </trkpt>
      <trkpt lat="43.298526" lon="-2.247067">
        <ele>6.008</ele>
        <time>2019-06-15T15:03:47Z</time>
      </trkpt>
      <trkpt lat="43.298421" lon="-2.247207">
        <ele>6.089</ele>
        <time>2019-06-15T15:03:48Z</time>
      </trkpt>
      <trkpt lat="43.298307" lon="-2.247362">
        <ele>6.513</ele>
        <time>2019-06-15T15:03:49Z</time>
      </trkpt>
      <trkpt lat="43.298205" lon="-2.247501">
        <ele>7.042</ele>
        <time>2019-06-15T15:03:50Z</time>
      </trkpt>
      <trkpt lat="43.298098" lon="-2.247643">
        <ele>7.051</ele>
        <time>2019-06-15T15:03:51Z</time>
      </trkpt>
      <trkpt lat="43.297993" lon="-2.247783">
        <ele>6.870</ele>
        <time>2019-06-15T15:03:52Z</time>
      </trkpt>
      <trkpt lat="43.297890" lon="-2.247920">
        <ele>6.251</ele>
        <time>2019-06-15T15:03:53Z</time>
      </trkpt>
      <trkpt lat="43.297786" lon="-2.248071">
        <ele>5.960</ele>
        <time>2019-06-15T15:03:54Z</time>
      </trkpt>
      <trkpt lat="43.297681" lon="-2.248204">
        <ele>4.894</ele>
        <time>2019-06-15T15:03:55Z</time>
      </trkpt>
      <trkpt lat="43.297576" lon="-2.248352">
        <ele>4.793</ele>
        <time>2019-06-15T15:03:56Z</time>
      </trkpt>
      <trkpt lat="43.297471" lon="-2.248495">
        <ele>4.565</ele>
        <time>2019-06-15T15:03:57Z</time>
      </trkpt>
      <trkpt lat="43.297356" lon="-2.248633">
        <ele>4.921</ele>
        <time>2019-06-15T15:03:58Z</time>
      </trkpt>
      <trkpt lat="43.297243" lon="-2.248779">
        <ele>4.608</ele>
        <time>2019-06-15T15:03:59Z</time>
      </trkpt>
      <trkpt lat="43.297135" lon="-2.248927">
        <ele>4.312</ele>
        <time>2019-06-15T15:04:00Z</time>
      </trkpt>
      <trkpt lat="43.297029" lon="-2.249083">
        <ele>4.356</ele>
        <time>2019-06-15T15:04:01Z</time>
      </trkpt>
      <trkpt lat="43.296921" lon="-2.249229">
        <ele>4.555</ele>
        <time>2019-06-15T15:04:02Z</time>
      </trkpt>
      <trkpt lat="43.296813" lon="-2.249380">
        <ele>4.314</ele>
        <time>2019-06-15T15:04:03Z</time>
      </trkpt>
      <trkpt lat="43.296710" lon="-2.249527">
        <ele>5.153</ele>
        <time>2019-06-15T15:04:04Z</time>
      </trkpt>
      <trkpt lat="43.296606" lon="-2.249677">
        <ele>5.444</ele>
        <time>2019-06-15T15:04:05Z</time>
      </trkpt>
      <trkpt lat="43.296496" lon="-2.249843">
        <ele>6.013</ele>
        <time>2019-06-15T15:04:06Z</time>
      </trkpt>
      <trkpt lat="43.296387" lon="-2.249999">
        <ele>6.027</ele>
        <time>2019-06-15T15:04:07Z</time>
      </trkpt>
      <trkpt lat="43.296276" lon="-2.250152">
        <ele>6.733</ele>
        <time>2019-06-15T15:04:08Z</time>
      </trkpt>
      <trkpt lat="43.296166" lon="-2.250295">
        <ele>7.023</ele>
        <time>2019-06-15T15:04:09Z</time>
      </trkpt>
      <trkpt lat="43.296060" lon="-2.250432">
        <ele>7.015</ele>
        <time>2019-06-15T15:04:10Z</time>
      </trkpt>
      <trkpt lat="43.295963" lon="-2.250563">
        <ele>7.008</ele>
        <time>2019-06-15T15:04:11Z</time>
      </trkpt>
      <trkpt lat="43.295849" lon="-2.250705">
        <ele>7.096</ele>
        <time>2019-06-15T15:04:12Z</time>
      </trkpt>
      <trkpt lat="43.295738" lon="-2.250822">
        <ele>7.090</ele>
        <time>2019-06-15T15:04:13Z</time>
      </trkpt>
      <trkpt lat="43.295625" lon="-2.250934">
        <ele>7.079</ele>
        <time>2019-06-15T15:04:14Z</time>
      </trkpt>
      <trkpt lat="43.295504" lon="-2.251037">
        <ele>7.088</ele>
        <time>2019-06-15T15:04:15Z</time>
      </trkpt>
      <trkpt lat="43.295376" lon="-2.251142">
        <ele>6.947</ele>
        <time>2019-06-15T15:04:16Z</time>
      </trkpt>
      <trkpt lat="43.295232" lon="-2.251226">
        <ele>6.758</ele>
        <time>2019-06-15T15:04:17Z</time>
      </trkpt>
      <trkpt lat="43.295099" lon="-2.251330">
        <ele>5.777</ele>
        <time>2019-06-15T15:04:18Z</time>
      </trkpt>
      <trkpt lat="43.294968" lon="-2.251423">
        <ele>4.341</ele>
        <time>2019-06-15T15:04:19Z</time>
      </trkpt>
      <trkpt lat="43.294836" lon="-2.251516">
        <ele>1.929</ele>
        <time>2019-06-15T15:04:20Z</time>
      </trkpt>
      <trkpt lat="43.294709" lon="-2.251620">
        <ele>0.000</ele>
        <time>2019-06-15T15:04:21Z</time>
      </trkpt>
      <trkpt lat="43.294586" lon="-2.251707">
        <ele>0.020</ele>
        <time>2019-06-15T15:04:22Z</time>
      </trkpt>
      <trkpt lat="43.294461" lon="-2.251802">
        <ele>0.008</ele>
        <time>2019-06-15T15:04:23Z</time>
      </trkpt>
      <trkpt lat="43.294344" lon="-2.251889">
        <ele>0.095</ele>
        <time>2019-06-15T15:04:24Z</time>
      </trkpt>
      <trkpt lat="43.294228" lon="-2.251984">
        <ele>0.039</ele>
        <time>2019-06-15T15:04:25Z</time>
      </trkpt>
      <trkpt lat="43.294121" lon="-2.252065">
        <ele>0.588</ele>
        <time>2019-06-15T15:04:26Z</time>
      </trkpt>
      <trkpt lat="43.294019" lon="-2.252143">
        <ele>2.267</ele>
        <time>2019-06-15T15:04:27Z</time>
      </trkpt>
      <trkpt lat="43.293927" lon="-2.252227">
        <ele>4.316</ele>
        <time>2019-06-15T15:04:28Z</time>
      </trkpt>
      <trkpt lat="43.293849" lon="-2.252312">
        <ele>4.917</ele>
        <time>2019-06-15T15:04:29Z</time>
      </trkpt>
      <trkpt lat="43.293791" lon="-2.252400">
        <ele>5.196</ele>
        <time>2019-06-15T15:04:30Z</time>
      </trkpt>
      <trkpt lat="43.293744" lon="-2.252502">
        <ele>5.580</ele>
        <time>2019-06-15T15:04:31Z</time>
      </trkpt>
      <trkpt lat="43.293721" lon="-2.252614">
        <ele>5.864</ele>
        <time>2019-06-15T15:04:32Z</time>
      </trkpt>
      <trkpt lat="43.293707" lon="-2.252754">
        <ele>6.006</ele>
        <time>2019-06-15T15:04:33Z</time>
      </trkpt>
      <trkpt lat="43.293710" lon="-2.252906">
        <ele>6.016</ele>
        <time>2019-06-15T15:04:34Z</time>
      </trkpt>
      <trkpt lat="43.293723" lon="-2.253054">
        <ele>6.008</ele>
        <time>2019-06-15T15:04:35Z</time>
      </trkpt>
      <trkpt lat="43.293740" lon="-2.253197">
        <ele>5.739</ele>
        <time>2019-06-15T15:04:36Z</time>
      </trkpt>
      <trkpt lat="43.293759" lon="-2.253333">
        <ele>5.563</ele>
        <time>2019-06-15T15:04:37Z</time>
      </trkpt>
      <trkpt lat="43.293786" lon="-2.253456">
        <ele>5.412</ele>
        <time>2019-06-15T15:04:38Z</time>
      </trkpt>
      <trkpt lat="43.293817" lon="-2.253571">
        <ele>5.191</ele>
        <time>2019-06-15T15:04:39Z</time>
      </trkpt>
      <trkpt lat="43.293846" lon="-2.253672">
        <ele>5.060</ele>
        <time>2019-06-15T15:04:41Z</time>
      </trkpt>
      <trkpt lat="43.293893" lon="-2.253710">
        <ele>5.031</ele>
        <time>2019-06-15T15:04:59Z</time>
      </trkpt>
      <trkpt lat="43.293905" lon="-2.253795">
        <ele>4.950</ele>
        <time>2019-06-15T15:05:00Z</time>
      </trkpt>
      <trkpt lat="43.293917" lon="-2.253882">
        <ele>4.834</ele>
        <time>2019-06-15T15:05:01Z</time>
      </trkpt>
      <trkpt lat="43.293933" lon="-2.253972">
        <ele>4.778</ele>
        <time>2019-06-15T15:05:02Z</time>
      </trkpt>
      <trkpt lat="43.293955" lon="-2.254079">
        <ele>4.533</ele>
        <time>2019-06-15T15:05:03Z</time>
      </trkpt>
      <trkpt lat="43.293986" lon="-2.254199">
        <ele>4.326</ele>
        <time>2019-06-15T15:05:04Z</time>
      </trkpt>
      <trkpt lat="43.294015" lon="-2.254326">
        <ele>4.008</ele>
        <time>2019-06-15T15:05:05Z</time>
      </trkpt>
      <trkpt lat="43.294035" lon="-2.254471">
        <ele>4.050</ele>
        <time>2019-06-15T15:05:06Z</time>
      </trkpt>
      <trkpt lat="43.294063" lon="-2.254607">
        <ele>4.044</ele>
        <time>2019-06-15T15:05:07Z</time>
      </trkpt>
      <trkpt lat="43.294052" lon="-2.254757">
        <ele>4.093</ele>
        <time>2019-06-15T15:05:08Z</time>
      </trkpt>
      <trkpt lat="43.294089" lon="-2.254896">
        <ele>4.062</ele>
        <time>2019-06-15T15:05:09Z</time>
      </trkpt>
      <trkpt lat="43.294119" lon="-2.255032">
        <ele>4.081</ele>
        <time>2019-06-15T15:05:10Z</time>
      </trkpt>
      <trkpt lat="43.294148" lon="-2.255168">
        <ele>4.072</ele>
        <time>2019-06-15T15:05:11Z</time>
      </trkpt>
      <trkpt lat="43.294180" lon="-2.255305">
        <ele>3.921</ele>
        <time>2019-06-15T15:05:12Z</time>
      </trkpt>
      <trkpt lat="43.294204" lon="-2.255434">
        <ele>3.785</ele>
        <time>2019-06-15T15:05:13Z</time>
      </trkpt>
      <trkpt lat="43.294241" lon="-2.255558">
        <ele>3.596</ele>
        <time>2019-06-15T15:05:14Z</time>
      </trkpt>
      <trkpt lat="43.294269" lon="-2.255697">
        <ele>3.531</ele>
        <time>2019-06-15T15:05:15Z</time>
      </trkpt>
      <trkpt lat="43.294293" lon="-2.255851">
        <ele>3.524</ele>
        <time>2019-06-15T15:05:16Z</time>
      </trkpt>
      <trkpt lat="43.294351" lon="-2.255942">
        <ele>3.308</ele>
        <time>2019-06-15T15:05:17Z</time>
      </trkpt>
      <trkpt lat="43.294377" lon="-2.256078">
        <ele>3.282</ele>
        <time>2019-06-15T15:05:18Z</time>
      </trkpt>
      <trkpt lat="43.294413" lon="-2.256214">
        <ele>3.146</ele>
        <time>2019-06-15T15:05:19Z</time>
      </trkpt>
      <trkpt lat="43.294447" lon="-2.256338">
        <ele>3.025</ele>
        <time>2019-06-15T15:05:20Z</time>
      </trkpt>
      <trkpt lat="43.294477" lon="-2.256505">
        <ele>3.554</ele>
        <time>2019-06-15T15:05:21Z</time>
      </trkpt>
      <trkpt lat="43.294516" lon="-2.256653">
        <ele>4.023</ele>
        <time>2019-06-15T15:05:22Z</time>
      </trkpt>
      <trkpt lat="43.294545" lon="-2.256825">
        <ele>4.084</ele>
        <time>2019-06-15T15:05:23Z</time>
      </trkpt>
      <trkpt lat="43.294573" lon="-2.256978">
        <ele>4.043</ele>
        <time>2019-06-15T15:05:24Z</time>
      </trkpt>
      <trkpt lat="43.294592" lon="-2.257138">
        <ele>4.047</ele>
        <time>2019-06-15T15:05:25Z</time>
      </trkpt>
      <trkpt lat="43.294610" lon="-2.257272">
        <ele>3.966</ele>
        <time>2019-06-15T15:05:26Z</time>
      </trkpt>
      <trkpt lat="43.294636" lon="-2.257402">
        <ele>3.629</ele>
        <time>2019-06-15T15:05:27Z</time>
      </trkpt>
      <trkpt lat="43.294645" lon="-2.257503">
        <ele>3.421</ele>
        <time>2019-06-15T15:05:28Z</time>
      </trkpt>
      <trkpt lat="43.294662" lon="-2.257604">
        <ele>3.308</ele>
        <time>2019-06-15T15:05:29Z</time>
      </trkpt>
      <trkpt lat="43.294696" lon="-2.257703">
        <ele>3.159</ele>
        <time>2019-06-15T15:05:30Z</time>
      </trkpt>
      <trkpt lat="43.294698" lon="-2.257780">
        <ele>2.913</ele>
        <time>2019-06-15T15:05:31Z</time>
      </trkpt>
      <trkpt lat="43.294742" lon="-2.257833">
        <ele>2.412</ele>
        <time>2019-06-15T15:05:32Z</time>
      </trkpt>
      <trkpt lat="43.294818" lon="-2.257951">
        <ele>1.661</ele>
        <time>2019-06-15T15:05:34Z</time>
      </trkpt>
      <trkpt lat="43.294870" lon="-2.258021">
        <ele>1.520</ele>
        <time>2019-06-15T15:05:35Z</time>
      </trkpt>
      <trkpt lat="43.294909" lon="-2.258085">
        <ele>1.971</ele>
        <time>2019-06-15T15:05:36Z</time>
      </trkpt>
      <trkpt lat="43.294976" lon="-2.258099">
        <ele>2.280</ele>
        <time>2019-06-15T15:05:37Z</time>
      </trkpt>
      <trkpt lat="43.295040" lon="-2.258098">
        <ele>2.424</ele>
        <time>2019-06-15T15:05:38Z</time>
      </trkpt>
      <trkpt lat="43.295094" lon="-2.258118">
        <ele>2.663</ele>
        <time>2019-06-15T15:05:39Z</time>
      </trkpt>
      <trkpt lat="43.295148" lon="-2.258094">
        <ele>2.744</ele>
        <time>2019-06-15T15:05:40Z</time>
      </trkpt>
      <trkpt lat="43.295205" lon="-2.258079">
        <ele>2.818</ele>
        <time>2019-06-15T15:05:41Z</time>
      </trkpt>
      <trkpt lat="43.295241" lon="-2.258018">
        <ele>2.608</ele>
        <time>2019-06-15T15:05:43Z</time>
      </trkpt>
      <trkpt lat="43.295280" lon="-2.257984">
        <ele>2.589</ele>
        <time>2019-06-15T15:05:49Z</time>
      </trkpt>
      <trkpt lat="43.295375" lon="-2.257907">
        <ele>2.343</ele>
        <time>2019-06-15T15:05:51Z</time>
      </trkpt>
      <trkpt lat="43.295432" lon="-2.257852">
        <ele>2.342</ele>
        <time>2019-06-15T15:05:52Z</time>
      </trkpt>
      <trkpt lat="43.295490" lon="-2.257787">
        <ele>2.581</ele>
        <time>2019-06-15T15:05:53Z</time>
      </trkpt>
      <trkpt lat="43.295561" lon="-2.257713">
        <ele>2.570</ele>
        <time>2019-06-15T15:05:54Z</time>
      </trkpt>
      <trkpt lat="43.295627" lon="-2.257628">
        <ele>2.251</ele>
        <time>2019-06-15T15:05:55Z</time>
      </trkpt>
      <trkpt lat="43.295708" lon="-2.257542">
        <ele>2.240</ele>
        <time>2019-06-15T15:05:56Z</time>
      </trkpt>
      <trkpt lat="43.295782" lon="-2.257463">
        <ele>2.544</ele>
        <time>2019-06-15T15:05:57Z</time>
      </trkpt>
      <trkpt lat="43.295857" lon="-2.257388">
        <ele>2.656</ele>
        <time>2019-06-15T15:05:58Z</time>
      </trkpt>
      <trkpt lat="43.295938" lon="-2.257297">
        <ele>2.459</ele>
        <time>2019-06-15T15:05:59Z</time>
      </trkpt>
      <trkpt lat="43.296011" lon="-2.257208">
        <ele>2.614</ele>
        <time>2019-06-15T15:06:00Z</time>
      </trkpt>
      <trkpt lat="43.296085" lon="-2.257125">
        <ele>2.508</ele>
        <time>2019-06-15T15:06:01Z</time>
      </trkpt>
      <trkpt lat="43.296160" lon="-2.257046">
        <ele>2.558</ele>
        <time>2019-06-15T15:06:02Z</time>
      </trkpt>
      <trkpt lat="43.296227" lon="-2.256963">
        <ele>2.552</ele>
        <time>2019-06-15T15:06:03Z</time>
      </trkpt>
      <trkpt lat="43.296294" lon="-2.256892">
        <ele>2.551</ele>
        <time>2019-06-15T15:06:04Z</time>
      </trkpt>
      <trkpt lat="43.296354" lon="-2.256825">
        <ele>2.810</ele>
        <time>2019-06-15T15:06:05Z</time>
      </trkpt>
      <trkpt lat="43.296408" lon="-2.256762">
        <ele>3.099</ele>
        <time>2019-06-15T15:06:06Z</time>
      </trkpt>
      <trkpt lat="43.296457" lon="-2.256710">
        <ele>3.080</ele>
        <time>2019-06-15T15:06:07Z</time>
      </trkpt>
      <trkpt lat="43.296503" lon="-2.256656">
        <ele>3.019</ele>
        <time>2019-06-15T15:06:08Z</time>
      </trkpt>
      <trkpt lat="43.296556" lon="-2.256587">
        <ele>2.993</ele>
        <time>2019-06-15T15:06:09Z</time>
      </trkpt>
      <trkpt lat="43.296614" lon="-2.256509">
        <ele>2.957</ele>
        <time>2019-06-15T15:06:10Z</time>
      </trkpt>
      <trkpt lat="43.296680" lon="-2.256430">
        <ele>3.000</ele>
        <time>2019-06-15T15:06:11Z</time>
      </trkpt>
      <trkpt lat="43.296743" lon="-2.256346">
        <ele>2.920</ele>
        <time>2019-06-15T15:06:12Z</time>
      </trkpt>
      <trkpt lat="43.296803" lon="-2.256264">
        <ele>2.808</ele>
        <time>2019-06-15T15:06:13Z</time>
      </trkpt>
      <trkpt lat="43.296872" lon="-2.256169">
        <ele>2.858</ele>
        <time>2019-06-15T15:06:14Z</time>
      </trkpt>
      <trkpt lat="43.296931" lon="-2.256089">
        <ele>2.922</ele>
        <time>2019-06-15T15:06:15Z</time>
      </trkpt>
      <trkpt lat="43.296988" lon="-2.256023">
        <ele>2.781</ele>
        <time>2019-06-15T15:06:16Z</time>
      </trkpt>
      <trkpt lat="43.297046" lon="-2.255951">
        <ele>2.650</ele>
        <time>2019-06-15T15:06:17Z</time>
      </trkpt>
      <trkpt lat="43.297101" lon="-2.255886">
        <ele>2.689</ele>
        <time>2019-06-15T15:06:18Z</time>
      </trkpt>
      <trkpt lat="43.297165" lon="-2.255833">
        <ele>2.820</ele>
        <time>2019-06-15T15:06:19Z</time>
      </trkpt>
      <trkpt lat="43.297228" lon="-2.255780">
        <ele>3.049</ele>
        <time>2019-06-15T15:06:20Z</time>
      </trkpt>
      <trkpt lat="43.297305" lon="-2.255729">
        <ele>3.093</ele>
        <time>2019-06-15T15:06:21Z</time>
      </trkpt>
      <trkpt lat="43.297385" lon="-2.255685">
        <ele>3.068</ele>
        <time>2019-06-15T15:06:22Z</time>
      </trkpt>
      <trkpt lat="43.297474" lon="-2.255635">
        <ele>3.042</ele>
        <time>2019-06-15T15:06:23Z</time>
      </trkpt>
      <trkpt lat="43.297571" lon="-2.255589">
        <ele>3.026</ele>
        <time>2019-06-15T15:06:24Z</time>
      </trkpt>
      <trkpt lat="43.297668" lon="-2.255552">
        <ele>3.008</ele>
        <time>2019-06-15T15:06:25Z</time>
      </trkpt>
      <trkpt lat="43.297756" lon="-2.255509">
        <ele>3.079</ele>
        <time>2019-06-15T15:06:26Z</time>
      </trkpt>
      <trkpt lat="43.297841" lon="-2.255464">
        <ele>3.063</ele>
        <time>2019-06-15T15:06:27Z</time>
      </trkpt>
      <trkpt lat="43.297910" lon="-2.255419">
        <ele>3.022</ele>
        <time>2019-06-15T15:06:28Z</time>
      </trkpt>
      <trkpt lat="43.297975" lon="-2.255379">
        <ele>3.031</ele>
        <time>2019-06-15T15:06:29Z</time>
      </trkpt>
      <trkpt lat="43.298036" lon="-2.255331">
        <ele>3.020</ele>
        <time>2019-06-15T15:06:30Z</time>
      </trkpt>
      <trkpt lat="43.298097" lon="-2.255283">
        <ele>3.071</ele>
        <time>2019-06-15T15:06:31Z</time>
      </trkpt>
      <trkpt lat="43.298166" lon="-2.255224">
        <ele>2.850</ele>
        <time>2019-06-15T15:06:32Z</time>
      </trkpt>
      <trkpt lat="43.298231" lon="-2.255164">
        <ele>2.744</ele>
        <time>2019-06-15T15:06:33Z</time>
      </trkpt>
      <trkpt lat="43.298292" lon="-2.255108">
        <ele>2.889</ele>
        <time>2019-06-15T15:06:34Z</time>
      </trkpt>
      <trkpt lat="43.298344" lon="-2.255078">
        <ele>3.006</ele>
        <time>2019-06-15T15:06:35Z</time>
      </trkpt>
      <trkpt lat="43.298409" lon="-2.255073">
        <ele>3.026</ele>
        <time>2019-06-15T15:06:37Z</time>
      </trkpt>
      <trkpt lat="43.298445" lon="-2.255140">
        <ele>3.008</ele>
        <time>2019-06-15T15:06:39Z</time>
      </trkpt>
      <trkpt lat="43.298482" lon="-2.255234">
        <ele>3.071</ele>
        <time>2019-06-15T15:06:40Z</time>
      </trkpt>
      <trkpt lat="43.298515" lon="-2.255313">
        <ele>3.065</ele>
        <time>2019-06-15T15:06:41Z</time>
      </trkpt>
      <trkpt lat="43.298554" lon="-2.255384">
        <ele>3.074</ele>
        <time>2019-06-15T15:06:42Z</time>
      </trkpt>
      <trkpt lat="43.298576" lon="-2.255459">
        <ele>3.053</ele>
        <time>2019-06-15T15:06:43Z</time>
      </trkpt>
      <trkpt lat="43.298605" lon="-2.255535">
        <ele>3.062</ele>
        <time>2019-06-15T15:06:44Z</time>
      </trkpt>
      <trkpt lat="43.298637" lon="-2.255606">
        <ele>3.073</ele>
        <time>2019-06-15T15:06:45Z</time>
      </trkpt>
      <trkpt lat="43.298677" lon="-2.255682">
        <ele>3.192</ele>
        <time>2019-06-15T15:06:46Z</time>
      </trkpt>
      <trkpt lat="43.298706" lon="-2.255756">
        <ele>3.236</ele>
        <time>2019-06-15T15:06:47Z</time>
      </trkpt>
      <trkpt lat="43.298731" lon="-2.255826">
        <ele>3.456</ele>
        <time>2019-06-15T15:06:48Z</time>
      </trkpt>
      <trkpt lat="43.298763" lon="-2.255888">
        <ele>3.859</ele>
        <time>2019-06-15T15:06:49Z</time>
      </trkpt>
      <trkpt lat="43.298792" lon="-2.255953">
        <ele>4.214</ele>
        <time>2019-06-15T15:06:50Z</time>
      </trkpt>
      <trkpt lat="43.298797" lon="-2.256021">
        <ele>4.608</ele>
        <time>2019-06-15T15:06:52Z</time>
      </trkpt>
      <trkpt lat="43.298749" lon="-2.256173">
        <ele>4.738</ele>
        <time>2019-06-15T15:06:54Z</time>
      </trkpt>
      <trkpt lat="43.298727" lon="-2.256241">
        <ele>4.682</ele>
        <time>2019-06-15T15:06:55Z</time>
      </trkpt>
      <trkpt lat="43.298710" lon="-2.256304">
        <ele>4.641</ele>
        <time>2019-06-15T15:06:56Z</time>
      </trkpt>
      <trkpt lat="43.298669" lon="-2.256370">
        <ele>4.070</ele>
        <time>2019-06-15T15:06:57Z</time>
      </trkpt>
      <trkpt lat="43.298628" lon="-2.256428">
        <ele>3.589</ele>
        <time>2019-06-15T15:06:58Z</time>
      </trkpt>
      <trkpt lat="43.298578" lon="-2.256466">
        <ele>3.290</ele>
        <time>2019-06-15T15:06:59Z</time>
      </trkpt>
      <trkpt lat="43.298534" lon="-2.256530">
        <ele>3.439</ele>
        <time>2019-06-15T15:07:01Z</time>
      </trkpt>
      <trkpt lat="43.298501" lon="-2.256621">
        <ele>3.553</ele>
        <time>2019-06-15T15:07:03Z</time>
      </trkpt>
      <trkpt lat="43.298491" lon="-2.256760">
        <ele>3.993</ele>
        <time>2019-06-15T15:07:05Z</time>
      </trkpt>
      <trkpt lat="43.298523" lon="-2.256825">
        <ele>4.365</ele>
        <time>2019-06-15T15:07:06Z</time>
      </trkpt>
      <trkpt lat="43.298563" lon="-2.256906">
        <ele>4.721</ele>
        <time>2019-06-15T15:07:07Z</time>
      </trkpt>
      <trkpt lat="43.298607" lon="-2.256972">
        <ele>5.108</ele>
        <time>2019-06-15T15:07:08Z</time>
      </trkpt>
      <trkpt lat="43.298643" lon="-2.257057">
        <ele>5.912</ele>
        <time>2019-06-15T15:07:09Z</time>
      </trkpt>
      <trkpt lat="43.298662" lon="-2.257114">
        <ele>6.326</ele>
        <time>2019-06-15T15:07:10Z</time>
      </trkpt>
      <trkpt lat="43.298694" lon="-2.257172">
        <ele>6.835</ele>
        <time>2019-06-15T15:07:11Z</time>
      </trkpt>
      <trkpt lat="43.298722" lon="-2.257222">
        <ele>7.274</ele>
        <time>2019-06-15T15:07:12Z</time>
      </trkpt>
      <trkpt lat="43.298726" lon="-2.257295">
        <ele>8.243</ele>
        <time>2019-06-15T15:07:13Z</time>
      </trkpt>
      <trkpt lat="43.298719" lon="-2.257404">
        <ele>9.574</ele>
        <time>2019-06-15T15:07:14Z</time>
      </trkpt>
      <trkpt lat="43.298661" lon="-2.257527">
        <ele>10.683</ele>
        <time>2019-06-15T15:07:15Z</time>
      </trkpt>
      <trkpt lat="43.298641" lon="-2.257624">
        <ele>11.547</ele>
        <time>2019-06-15T15:07:16Z</time>
      </trkpt>
      <trkpt lat="43.298668" lon="-2.257685">
        <ele>12.314</ele>
        <time>2019-06-15T15:07:17Z</time>
      </trkpt>
      <trkpt lat="43.298687" lon="-2.257746">
        <ele>13.054</ele>
        <time>2019-06-15T15:07:18Z</time>
      </trkpt>
      <trkpt lat="43.298710" lon="-2.257814">
        <ele>13.509</ele>
        <time>2019-06-15T15:07:19Z</time>
      </trkpt>
      <trkpt lat="43.298796" lon="-2.257869">
        <ele>14.308</ele>
        <time>2019-06-15T15:07:20Z</time>
      </trkpt>
      <trkpt lat="43.298863" lon="-2.257939">
        <ele>15.514</ele>
        <time>2019-06-15T15:07:21Z</time>
      </trkpt>
      <trkpt lat="43.298915" lon="-2.258035">
        <ele>16.998</ele>
        <time>2019-06-15T15:07:22Z</time>
      </trkpt>
      <trkpt lat="43.298954" lon="-2.258153">
        <ele>18.127</ele>
        <time>2019-06-15T15:07:23Z</time>
      </trkpt>
      <trkpt lat="43.298998" lon="-2.258237">
        <ele>18.896</ele>
        <time>2019-06-15T15:07:24Z</time>
      </trkpt>
      <trkpt lat="43.299037" lon="-2.258335">
        <ele>19.515</ele>
        <time>2019-06-15T15:07:25Z</time>
      </trkpt>
      <trkpt lat="43.299069" lon="-2.258404">
        <ele>19.976</ele>
        <time>2019-06-15T15:07:26Z</time>
      </trkpt>
      <trkpt lat="43.299101" lon="-2.258450">
        <ele>20.165</ele>
        <time>2019-06-15T15:07:27Z</time>
      </trkpt>
      <trkpt lat="43.299149" lon="-2.258541">
        <ele>20.649</ele>
        <time>2019-06-15T15:07:29Z</time>
      </trkpt>
      <trkpt lat="43.299189" lon="-2.258609">
        <ele>20.876</ele>
        <time>2019-06-15T15:07:30Z</time>
      </trkpt>
      <trkpt lat="43.299226" lon="-2.258671">
        <ele>20.790</ele>
        <time>2019-06-15T15:07:31Z</time>
      </trkpt>
      <trkpt lat="43.299239" lon="-2.258731">
        <ele>20.719</ele>
        <time>2019-06-15T15:07:32Z</time>
      </trkpt>
      <trkpt lat="43.299266" lon="-2.258793">
        <ele>20.508</ele>
        <time>2019-06-15T15:07:33Z</time>
      </trkpt>
      <trkpt lat="43.299284" lon="-2.258857">
        <ele>20.360</ele>
        <time>2019-06-15T15:07:34Z</time>
      </trkpt>
      <trkpt lat="43.299304" lon="-2.258916">
        <ele>20.124</ele>
        <time>2019-06-15T15:07:35Z</time>
      </trkpt>
      <trkpt lat="43.299362" lon="-2.258982">
        <ele>19.523</ele>
        <time>2019-06-15T15:07:37Z</time>
      </trkpt>
      <trkpt lat="43.299430" lon="-2.259063">
        <ele>18.862</ele>
        <time>2019-06-15T15:07:39Z</time>
      </trkpt>
      <trkpt lat="43.299483" lon="-2.259074">
        <ele>19.071</ele>
        <time>2019-06-15T15:07:40Z</time>
      </trkpt>
      <trkpt lat="43.299554" lon="-2.259104">
        <ele>19.552</ele>
        <time>2019-06-15T15:07:42Z</time>
      </trkpt>
      <trkpt lat="43.299608" lon="-2.259071">
        <ele>20.111</ele>
        <time>2019-06-15T15:07:44Z</time>
      </trkpt>
      <trkpt lat="43.299658" lon="-2.259043">
        <ele>20.775</ele>
        <time>2019-06-15T15:07:49Z</time>
      </trkpt>
      <trkpt lat="43.299665" lon="-2.258969">
        <ele>21.348</ele>
        <time>2019-06-15T15:07:56Z</time>
      </trkpt>
      <trkpt lat="43.299618" lon="-2.258976">
        <ele>20.761</ele>
        <time>2019-06-15T15:08:25Z</time>
      </trkpt>
      <trkpt lat="43.299609" lon="-2.259044">
        <ele>20.217</ele>
        <time>2019-06-15T15:11:37Z</time>
      </trkpt>
      <trkpt lat="43.299563" lon="-2.259067">
        <ele>19.708</ele>
        <time>2019-06-15T15:13:06Z</time>
      </trkpt>
      <trkpt lat="43.299587" lon="-2.259008">
        <ele>20.157</ele>
        <time>2019-06-15T15:16:20Z</time>
      </trkpt>
      <trkpt lat="43.299612" lon="-2.259060">
        <ele>20.141</ele>
        <time>2019-06-15T15:21:08Z</time>
      </trkpt>
      <trkpt lat="43.299656" lon="-2.259092">
        <ele>20.340</ele>
        <time>2019-06-15T15:21:11Z</time>
      </trkpt>
      <trkpt lat="43.299683" lon="-2.259142">
        <ele>20.169</ele>
        <time>2019-06-15T15:21:16Z</time>
      </trkpt>
      <trkpt lat="43.299712" lon="-2.259195">
        <ele>20.088</ele>
        <time>2019-06-15T15:21:19Z</time>
      </trkpt>
      <trkpt lat="43.299707" lon="-2.259259">
        <ele>20.059</ele>
        <time>2019-06-15T15:21:23Z</time>
      </trkpt>
      <trkpt lat="43.299721" lon="-2.259320">
        <ele>20.048</ele>
        <time>2019-06-15T15:21:27Z</time>
      </trkpt>
      <trkpt lat="43.299753" lon="-2.259375">
        <ele>20.572</ele>
        <time>2019-06-15T15:21:30Z</time>
      </trkpt>
      <trkpt lat="43.299768" lon="-2.259434">
        <ele>20.583</ele>
        <time>2019-06-15T15:21:34Z</time>
      </trkpt>
      <trkpt lat="43.299802" lon="-2.259500">
        <ele>21.425</ele>
        <time>2019-06-15T15:21:38Z</time>
      </trkpt>
      <trkpt lat="43.299840" lon="-2.259563">
        <ele>22.017</ele>
        <time>2019-06-15T15:21:42Z</time>
      </trkpt>
      <trkpt lat="43.299875" lon="-2.259624">
        <ele>22.008</ele>
        <time>2019-06-15T15:21:46Z</time>
      </trkpt>
      <trkpt lat="43.299889" lon="-2.259690">
        <ele>22.081</ele>
        <time>2019-06-15T15:21:50Z</time>
      </trkpt>
      <trkpt lat="43.299909" lon="-2.259762">
        <ele>21.575</ele>
        <time>2019-06-15T15:21:54Z</time>
      </trkpt>
      <trkpt lat="43.299952" lon="-2.259819">
        <ele>20.374</ele>
        <time>2019-06-15T15:21:59Z</time>
      </trkpt>
      <trkpt lat="43.299990" lon="-2.259871">
        <ele>19.293</ele>
        <time>2019-06-15T15:22:02Z</time>
      </trkpt>
      <trkpt lat="43.300031" lon="-2.259927">
        <ele>18.352</ele>
        <time>2019-06-15T15:22:06Z</time>
      </trkpt>
      <trkpt lat="43.300051" lon="-2.259998">
        <ele>16.983</ele>
        <time>2019-06-15T15:22:18Z</time>
      </trkpt>
      <trkpt lat="43.300074" lon="-2.260060">
        <ele>14.172</ele>
        <time>2019-06-15T15:22:22Z</time>
      </trkpt>
      <trkpt lat="43.300083" lon="-2.260125">
        <ele>11.586</ele>
        <time>2019-06-15T15:22:26Z</time>
      </trkpt>
      <trkpt lat="43.300069" lon="-2.260186">
        <ele>9.596</ele>
        <time>2019-06-15T15:22:32Z</time>
      </trkpt>
      <trkpt lat="43.299551" lon="-2.259055">
        <ele>19.631</ele>
        <time>2019-06-15T16:25:42Z</time>
      </trkpt>
      <trkpt lat="43.299595" lon="-2.259042">
        <ele>20.124</ele>
        <time>2019-06-15T16:26:39Z</time>
      </trkpt>
      <trkpt lat="43.299587" lon="-2.258981">
        <ele>20.208</ele>
        <time>2019-06-15T16:27:04Z</time>
      </trkpt>
      <trkpt lat="43.299613" lon="-2.259051">
        <ele>20.242</ele>
        <time>2019-06-15T16:28:36Z</time>
      </trkpt>
      <trkpt lat="43.299587" lon="-2.259143">
        <ele>19.686</ele>
        <time>2019-06-15T16:28:38Z</time>
      </trkpt>
      <trkpt lat="43.299555" lon="-2.259188">
        <ele>19.595</ele>
        <time>2019-06-15T16:28:39Z</time>
      </trkpt>
      <trkpt lat="43.299480" lon="-2.259233">
        <ele>19.844</ele>
        <time>2019-06-15T16:28:41Z</time>
      </trkpt>
      <trkpt lat="43.299403" lon="-2.259214">
        <ele>20.213</ele>
        <time>2019-06-15T16:28:43Z</time>
      </trkpt>
      <trkpt lat="43.299322" lon="-2.259158">
        <ele>20.774</ele>
        <time>2019-06-15T16:28:45Z</time>
      </trkpt>
      <trkpt lat="43.299275" lon="-2.259078">
        <ele>21.133</ele>
        <time>2019-06-15T16:28:47Z</time>
      </trkpt>
      <trkpt lat="43.299252" lon="-2.259018">
        <ele>21.237</ele>
        <time>2019-06-15T16:28:48Z</time>
      </trkpt>
      <trkpt lat="43.299225" lon="-2.258941">
        <ele>21.376</ele>
        <time>2019-06-15T16:28:49Z</time>
      </trkpt>
      <trkpt lat="43.299196" lon="-2.258852">
        <ele>21.590</ele>
        <time>2019-06-15T16:28:50Z</time>
      </trkpt>
      <trkpt lat="43.299167" lon="-2.258768">
        <ele>21.619</ele>
        <time>2019-06-15T16:28:51Z</time>
      </trkpt>
      <trkpt lat="43.299140" lon="-2.258696">
        <ele>21.408</ele>
        <time>2019-06-15T16:28:52Z</time>
      </trkpt>
      <trkpt lat="43.299117" lon="-2.258631">
        <ele>21.240</ele>
        <time>2019-06-15T16:28:53Z</time>
      </trkpt>
      <trkpt lat="43.299091" lon="-2.258556">
        <ele>20.954</ele>
        <time>2019-06-15T16:28:54Z</time>
      </trkpt>
      <trkpt lat="43.299059" lon="-2.258470">
        <ele>20.423</ele>
        <time>2019-06-15T16:28:55Z</time>
      </trkpt>
      <trkpt lat="43.299022" lon="-2.258390">
        <ele>19.972</ele>
        <time>2019-06-15T16:28:56Z</time>
      </trkpt>
      <trkpt lat="43.298988" lon="-2.258314">
        <ele>19.521</ele>
        <time>2019-06-15T16:28:57Z</time>
      </trkpt>
      <trkpt lat="43.298956" lon="-2.258238">
        <ele>18.962</ele>
        <time>2019-06-15T16:28:58Z</time>
      </trkpt>
      <trkpt lat="43.298921" lon="-2.258162">
        <ele>18.291</ele>
        <time>2019-06-15T16:28:59Z</time>
      </trkpt>
      <trkpt lat="43.298886" lon="-2.258086">
        <ele>17.335</ele>
        <time>2019-06-15T16:29:00Z</time>
      </trkpt>
      <trkpt lat="43.298845" lon="-2.258031">
        <ele>16.113</ele>
        <time>2019-06-15T16:29:01Z</time>
      </trkpt>
      <trkpt lat="43.298782" lon="-2.257945">
        <ele>14.743</ele>
        <time>2019-06-15T16:29:03Z</time>
      </trkpt>
      <trkpt lat="43.298732" lon="-2.257895">
        <ele>14.007</ele>
        <time>2019-06-15T16:29:04Z</time>
      </trkpt>
      <trkpt lat="43.298696" lon="-2.257852">
        <ele>13.608</ele>
        <time>2019-06-15T16:29:05Z</time>
      </trkpt>
      <trkpt lat="43.298663" lon="-2.257808">
        <ele>13.254</ele>
        <time>2019-06-15T16:29:06Z</time>
      </trkpt>
      <trkpt lat="43.298642" lon="-2.257736">
        <ele>12.738</ele>
        <time>2019-06-15T16:29:07Z</time>
      </trkpt>
      <trkpt lat="43.298625" lon="-2.257673">
        <ele>11.947</ele>
        <time>2019-06-15T16:29:08Z</time>
      </trkpt>
      <trkpt lat="43.298664" lon="-2.257578">
        <ele>11.256</ele>
        <time>2019-06-15T16:29:09Z</time>
      </trkpt>
      <trkpt lat="43.298677" lon="-2.257512">
        <ele>10.685</ele>
        <time>2019-06-15T16:29:10Z</time>
      </trkpt>
      <trkpt lat="43.298693" lon="-2.257430">
        <ele>9.796</ele>
        <time>2019-06-15T16:29:11Z</time>
      </trkpt>
      <trkpt lat="43.298700" lon="-2.257307">
        <ele>8.135</ele>
        <time>2019-06-15T16:29:13Z</time>
      </trkpt>
      <trkpt lat="43.298681" lon="-2.257235">
        <ele>6.929</ele>
        <time>2019-06-15T16:29:14Z</time>
      </trkpt>
      <trkpt lat="43.298677" lon="-2.257163">
        <ele>6.618</ele>
        <time>2019-06-15T16:29:15Z</time>
      </trkpt>
      <trkpt lat="43.298683" lon="-2.257030">
        <ele>6.498</ele>
        <time>2019-06-15T16:29:17Z</time>
      </trkpt>
      <trkpt lat="43.298664" lon="-2.256942">
        <ele>5.917</ele>
        <time>2019-06-15T16:29:18Z</time>
      </trkpt>
      <trkpt lat="43.298603" lon="-2.256893">
        <ele>4.808</ele>
        <time>2019-06-15T16:29:19Z</time>
      </trkpt>
      <trkpt lat="43.298554" lon="-2.256847">
        <ele>4.454</ele>
        <time>2019-06-15T16:29:20Z</time>
      </trkpt>
      <trkpt lat="43.298485" lon="-2.256800">
        <ele>4.088</ele>
        <time>2019-06-15T16:29:22Z</time>
      </trkpt>
      <trkpt lat="43.298443" lon="-2.256702">
        <ele>3.517</ele>
        <time>2019-06-15T16:29:24Z</time>
      </trkpt>
      <trkpt lat="43.298401" lon="-2.256593">
        <ele>3.216</ele>
        <time>2019-06-15T16:29:25Z</time>
      </trkpt>
      <trkpt lat="43.298373" lon="-2.256503">
        <ele>3.195</ele>
        <time>2019-06-15T16:29:26Z</time>
      </trkpt>
      <trkpt lat="43.298343" lon="-2.256410">
        <ele>3.056</ele>
        <time>2019-06-15T16:29:27Z</time>
      </trkpt>
      <trkpt lat="43.298313" lon="-2.256329">
        <ele>3.085</ele>
        <time>2019-06-15T16:29:28Z</time>
      </trkpt>
      <trkpt lat="43.298299" lon="-2.256242">
        <ele>3.089</ele>
        <time>2019-06-15T16:29:29Z</time>
      </trkpt>
      <trkpt lat="43.298273" lon="-2.256166">
        <ele>3.076</ele>
        <time>2019-06-15T16:29:30Z</time>
      </trkpt>
      <trkpt lat="43.298245" lon="-2.256102">
        <ele>3.090</ele>
        <time>2019-06-15T16:29:31Z</time>
      </trkpt>
      <trkpt lat="43.298219" lon="-2.256024">
        <ele>3.019</ele>
        <time>2019-06-15T16:29:32Z</time>
      </trkpt>
      <trkpt lat="43.298195" lon="-2.255957">
        <ele>3.008</ele>
        <time>2019-06-15T16:29:33Z</time>
      </trkpt>
      <trkpt lat="43.298173" lon="-2.255899">
        <ele>3.040</ele>
        <time>2019-06-15T16:29:34Z</time>
      </trkpt>
      <trkpt lat="43.298144" lon="-2.255845">
        <ele>3.024</ele>
        <time>2019-06-15T16:29:35Z</time>
      </trkpt>
      <trkpt lat="43.298112" lon="-2.255785">
        <ele>3.073</ele>
        <time>2019-06-15T16:29:36Z</time>
      </trkpt>
      <trkpt lat="43.298079" lon="-2.255723">
        <ele>3.072</ele>
        <time>2019-06-15T16:29:37Z</time>
      </trkpt>
      <trkpt lat="43.298039" lon="-2.255612">
        <ele>3.071</ele>
        <time>2019-06-15T16:29:39Z</time>
      </trkpt>
      <trkpt lat="43.297997" lon="-2.255510">
        <ele>3.092</ele>
        <time>2019-06-15T16:29:41Z</time>
      </trkpt>
      <trkpt lat="43.297949" lon="-2.255450">
        <ele>3.011</ele>
        <time>2019-06-15T16:29:43Z</time>
      </trkpt>
      <trkpt lat="43.297887" lon="-2.255467">
        <ele>3.025</ele>
        <time>2019-06-15T16:29:45Z</time>
      </trkpt>
      <trkpt lat="43.297837" lon="-2.255480">
        <ele>3.089</ele>
        <time>2019-06-15T16:29:46Z</time>
      </trkpt>
      <trkpt lat="43.297776" lon="-2.255489">
        <ele>3.006</ele>
        <time>2019-06-15T16:29:47Z</time>
      </trkpt>
      <trkpt lat="43.297709" lon="-2.255514">
        <ele>3.026</ele>
        <time>2019-06-15T16:29:48Z</time>
      </trkpt>
      <trkpt lat="43.297654" lon="-2.255546">
        <ele>3.008</ele>
        <time>2019-06-15T16:29:49Z</time>
      </trkpt>
      <trkpt lat="43.297603" lon="-2.255566">
        <ele>3.051</ele>
        <time>2019-06-15T16:29:50Z</time>
      </trkpt>
      <trkpt lat="43.297550" lon="-2.255589">
        <ele>3.095</ele>
        <time>2019-06-15T16:29:51Z</time>
      </trkpt>
      <trkpt lat="43.297486" lon="-2.255617">
        <ele>3.034</ele>
        <time>2019-06-15T16:29:52Z</time>
      </trkpt>
      <trkpt lat="43.297433" lon="-2.255638">
        <ele>3.073</ele>
        <time>2019-06-15T16:29:53Z</time>
      </trkpt>
      <trkpt lat="43.297378" lon="-2.255664">
        <ele>3.042</ele>
        <time>2019-06-15T16:29:54Z</time>
      </trkpt>
      <trkpt lat="43.297324" lon="-2.255710">
        <ele>3.023</ele>
        <time>2019-06-15T16:29:55Z</time>
      </trkpt>
      <trkpt lat="43.297263" lon="-2.255750">
        <ele>3.092</ele>
        <time>2019-06-15T16:29:56Z</time>
      </trkpt>
      <trkpt lat="43.297228" lon="-2.255801">
        <ele>3.016</ele>
        <time>2019-06-15T16:29:57Z</time>
      </trkpt>
      <trkpt lat="43.297174" lon="-2.255852">
        <ele>2.835</ele>
        <time>2019-06-15T16:29:58Z</time>
      </trkpt>
      <trkpt lat="43.297132" lon="-2.255894">
        <ele>2.786</ele>
        <time>2019-06-15T16:29:59Z</time>
      </trkpt>
      <trkpt lat="43.297061" lon="-2.256015">
        <ele>2.814</ele>
        <time>2019-06-15T16:30:01Z</time>
      </trkpt>
      <trkpt lat="43.297006" lon="-2.256078">
        <ele>2.908</ele>
        <time>2019-06-15T16:30:02Z</time>
      </trkpt>
      <trkpt lat="43.296954" lon="-2.256147">
        <ele>3.036</ele>
        <time>2019-06-15T16:30:03Z</time>
      </trkpt>
      <trkpt lat="43.296891" lon="-2.256203">
        <ele>2.980</ele>
        <time>2019-06-15T16:30:04Z</time>
      </trkpt>
      <trkpt lat="43.296820" lon="-2.256241">
        <ele>2.849</ele>
        <time>2019-06-15T16:30:05Z</time>
      </trkpt>
      <trkpt lat="43.296759" lon="-2.256315">
        <ele>2.888</ele>
        <time>2019-06-15T16:30:06Z</time>
      </trkpt>
      <trkpt lat="43.296695" lon="-2.256393">
        <ele>3.037</ele>
        <time>2019-06-15T16:30:07Z</time>
      </trkpt>
      <trkpt lat="43.296636" lon="-2.256468">
        <ele>2.948</ele>
        <time>2019-06-15T16:30:08Z</time>
      </trkpt>
      <trkpt lat="43.296577" lon="-2.256546">
        <ele>2.947</ele>
        <time>2019-06-15T16:30:09Z</time>
      </trkpt>
      <trkpt lat="43.296511" lon="-2.256596">
        <ele>2.941</ele>
        <time>2019-06-15T16:30:10Z</time>
      </trkpt>
      <trkpt lat="43.296473" lon="-2.256698">
        <ele>3.017</ele>
        <time>2019-06-15T16:30:11Z</time>
      </trkpt>
      <trkpt lat="43.296402" lon="-2.256786">
        <ele>3.087</ele>
        <time>2019-06-15T16:30:12Z</time>
      </trkpt>
      <trkpt lat="43.296342" lon="-2.256857">
        <ele>2.715</ele>
        <time>2019-06-15T16:30:13Z</time>
      </trkpt>
      <trkpt lat="43.296279" lon="-2.256928">
        <ele>2.608</ele>
        <time>2019-06-15T16:30:14Z</time>
      </trkpt>
      <trkpt lat="43.296217" lon="-2.257002">
        <ele>2.594</ele>
        <time>2019-06-15T16:30:15Z</time>
      </trkpt>
      <trkpt lat="43.296157" lon="-2.257094">
        <ele>2.628</ele>
        <time>2019-06-15T16:30:16Z</time>
      </trkpt>
      <trkpt lat="43.296099" lon="-2.257178">
        <ele>2.877</ele>
        <time>2019-06-15T16:30:17Z</time>
      </trkpt>
      <trkpt lat="43.296047" lon="-2.257288">
        <ele>2.666</ele>
        <time>2019-06-15T16:30:18Z</time>
      </trkpt>
      <trkpt lat="43.295975" lon="-2.257362">
        <ele>2.515</ele>
        <time>2019-06-15T16:30:19Z</time>
      </trkpt>
      <trkpt lat="43.295903" lon="-2.257419">
        <ele>2.636</ele>
        <time>2019-06-15T16:30:20Z</time>
      </trkpt>
      <trkpt lat="43.295853" lon="-2.257501">
        <ele>2.935</ele>
        <time>2019-06-15T16:30:21Z</time>
      </trkpt>
      <trkpt lat="43.295795" lon="-2.257564">
        <ele>2.829</ele>
        <time>2019-06-15T16:30:22Z</time>
      </trkpt>
      <trkpt lat="43.295736" lon="-2.257608">
        <ele>2.653</ele>
        <time>2019-06-15T16:30:23Z</time>
      </trkpt>
      <trkpt lat="43.295676" lon="-2.257673">
        <ele>2.604</ele>
        <time>2019-06-15T16:30:24Z</time>
      </trkpt>
      <trkpt lat="43.295617" lon="-2.257747">
        <ele>2.814</ele>
        <time>2019-06-15T16:30:25Z</time>
      </trkpt>
      <trkpt lat="43.295573" lon="-2.257761">
        <ele>2.908</ele>
        <time>2019-06-15T16:30:26Z</time>
      </trkpt>
      <trkpt lat="43.295513" lon="-2.257822">
        <ele>2.758</ele>
        <time>2019-06-15T16:30:27Z</time>
      </trkpt>
      <trkpt lat="43.295455" lon="-2.257879">
        <ele>2.512</ele>
        <time>2019-06-15T16:30:28Z</time>
      </trkpt>
      <trkpt lat="43.295399" lon="-2.257939">
        <ele>2.521</ele>
        <time>2019-06-15T16:30:29Z</time>
      </trkpt>
      <trkpt lat="43.295345" lon="-2.257997">
        <ele>2.790</ele>
        <time>2019-06-15T16:30:30Z</time>
      </trkpt>
      <trkpt lat="43.295297" lon="-2.258062">
        <ele>3.069</ele>
        <time>2019-06-15T16:30:31Z</time>
      </trkpt>
      <trkpt lat="43.295263" lon="-2.258115">
        <ele>3.060</ele>
        <time>2019-06-15T16:30:32Z</time>
      </trkpt>
      <trkpt lat="43.295223" lon="-2.258149">
        <ele>2.949</ele>
        <time>2019-06-15T16:30:33Z</time>
      </trkpt>
      <trkpt lat="43.295138" lon="-2.258233">
        <ele>3.153</ele>
        <time>2019-06-15T16:30:35Z</time>
      </trkpt>
      <trkpt lat="43.295091" lon="-2.258267">
        <ele>3.483</ele>
        <time>2019-06-15T16:30:36Z</time>
      </trkpt>
      <trkpt lat="43.295037" lon="-2.258304">
        <ele>3.725</ele>
        <time>2019-06-15T16:30:37Z</time>
      </trkpt>
      <trkpt lat="43.294981" lon="-2.258346">
        <ele>4.317</ele>
        <time>2019-06-15T16:30:38Z</time>
      </trkpt>
      <trkpt lat="43.294919" lon="-2.258383">
        <ele>4.908</ele>
        <time>2019-06-15T16:30:39Z</time>
      </trkpt>
      <trkpt lat="43.294834" lon="-2.258380">
        <ele>4.761</ele>
        <time>2019-06-15T16:30:40Z</time>
      </trkpt>
      <trkpt lat="43.294757" lon="-2.258384">
        <ele>4.655</ele>
        <time>2019-06-15T16:30:41Z</time>
      </trkpt>
      <trkpt lat="43.294675" lon="-2.258408">
        <ele>4.654</ele>
        <time>2019-06-15T16:30:42Z</time>
      </trkpt>
      <trkpt lat="43.294588" lon="-2.258420">
        <ele>4.363</ele>
        <time>2019-06-15T16:30:43Z</time>
      </trkpt>
      <trkpt lat="43.294492" lon="-2.258430">
        <ele>3.982</ele>
        <time>2019-06-15T16:30:44Z</time>
      </trkpt>
      <trkpt lat="43.294409" lon="-2.258458">
        <ele>3.823</ele>
        <time>2019-06-15T16:30:45Z</time>
      </trkpt>
      <trkpt lat="43.294319" lon="-2.258450">
        <ele>3.622</ele>
        <time>2019-06-15T16:30:46Z</time>
      </trkpt>
      <trkpt lat="43.294222" lon="-2.258443">
        <ele>3.576</ele>
        <time>2019-06-15T16:30:47Z</time>
      </trkpt>
      <trkpt lat="43.294120" lon="-2.258445">
        <ele>3.336</ele>
        <time>2019-06-15T16:30:48Z</time>
      </trkpt>
      <trkpt lat="43.294019" lon="-2.258464">
        <ele>3.217</ele>
        <time>2019-06-15T16:30:49Z</time>
      </trkpt>
      <trkpt lat="43.293912" lon="-2.258462">
        <ele>3.018</ele>
        <time>2019-06-15T16:30:50Z</time>
      </trkpt>
      <trkpt lat="43.293811" lon="-2.258462">
        <ele>2.808</ele>
        <time>2019-06-15T16:30:51Z</time>
      </trkpt>
      <trkpt lat="43.293712" lon="-2.258464">
        <ele>2.616</ele>
        <time>2019-06-15T16:30:52Z</time>
      </trkpt>
      <trkpt lat="43.293618" lon="-2.258472">
        <ele>2.590</ele>
        <time>2019-06-15T16:30:53Z</time>
      </trkpt>
      <trkpt lat="43.293541" lon="-2.258482">
        <ele>2.579</ele>
        <time>2019-06-15T16:30:54Z</time>
      </trkpt>
      <trkpt lat="43.293446" lon="-2.258480">
        <ele>2.568</ele>
        <time>2019-06-15T16:30:55Z</time>
      </trkpt>
      <trkpt lat="43.293353" lon="-2.258487">
        <ele>2.667</ele>
        <time>2019-06-15T16:30:56Z</time>
      </trkpt>
      <trkpt lat="43.293253" lon="-2.258486">
        <ele>2.548</ele>
        <time>2019-06-15T16:30:57Z</time>
      </trkpt>
      <trkpt lat="43.293161" lon="-2.258467">
        <ele>2.567</ele>
        <time>2019-06-15T16:30:58Z</time>
      </trkpt>
      <trkpt lat="43.293052" lon="-2.258457">
        <ele>2.451</ele>
        <time>2019-06-15T16:30:59Z</time>
      </trkpt>
      <trkpt lat="43.292959" lon="-2.258446">
        <ele>2.299</ele>
        <time>2019-06-15T16:31:00Z</time>
      </trkpt>
      <trkpt lat="43.292866" lon="-2.258452">
        <ele>2.007</ele>
        <time>2019-06-15T16:31:01Z</time>
      </trkpt>
      <trkpt lat="43.292734" lon="-2.258485">
        <ele>2.227</ele>
        <time>2019-06-15T16:31:02Z</time>
      </trkpt>
      <trkpt lat="43.292649" lon="-2.258500">
        <ele>2.508</ele>
        <time>2019-06-15T16:31:03Z</time>
      </trkpt>
      <trkpt lat="43.292545" lon="-2.258510">
        <ele>2.872</ele>
        <time>2019-06-15T16:31:04Z</time>
      </trkpt>
      <trkpt lat="43.292445" lon="-2.258516">
        <ele>3.036</ele>
        <time>2019-06-15T16:31:05Z</time>
      </trkpt>
      <trkpt lat="43.292367" lon="-2.258526">
        <ele>3.295</ele>
        <time>2019-06-15T16:31:06Z</time>
      </trkpt>
      <trkpt lat="43.292263" lon="-2.258537">
        <ele>3.474</ele>
        <time>2019-06-15T16:31:07Z</time>
      </trkpt>
      <trkpt lat="43.292166" lon="-2.258545">
        <ele>3.583</ele>
        <time>2019-06-15T16:31:08Z</time>
      </trkpt>
      <trkpt lat="43.292089" lon="-2.258530">
        <ele>3.344</ele>
        <time>2019-06-15T16:31:09Z</time>
      </trkpt>
      <trkpt lat="43.291986" lon="-2.258533">
        <ele>3.293</ele>
        <time>2019-06-15T16:31:10Z</time>
      </trkpt>
      <trkpt lat="43.291886" lon="-2.258538">
        <ele>3.237</ele>
        <time>2019-06-15T16:31:11Z</time>
      </trkpt>
      <trkpt lat="43.291781" lon="-2.258537">
        <ele>3.219</ele>
        <time>2019-06-15T16:31:12Z</time>
      </trkpt>
      <trkpt lat="43.291682" lon="-2.258553">
        <ele>3.409</ele>
        <time>2019-06-15T16:31:13Z</time>
      </trkpt>
      <trkpt lat="43.291584" lon="-2.258560">
        <ele>3.419</ele>
        <time>2019-06-15T16:31:14Z</time>
      </trkpt>
      <trkpt lat="43.291486" lon="-2.258563">
        <ele>3.408</ele>
        <time>2019-06-15T16:31:15Z</time>
      </trkpt>
      <trkpt lat="43.291373" lon="-2.258569">
        <ele>3.454</ele>
        <time>2019-06-15T16:31:16Z</time>
      </trkpt>
      <trkpt lat="43.291267" lon="-2.258574">
        <ele>3.528</ele>
        <time>2019-06-15T16:31:17Z</time>
      </trkpt>
      <trkpt lat="43.291172" lon="-2.258581">
        <ele>3.747</ele>
        <time>2019-06-15T16:31:18Z</time>
      </trkpt>
      <trkpt lat="43.291073" lon="-2.258587">
        <ele>3.626</ele>
        <time>2019-06-15T16:31:19Z</time>
      </trkpt>
      <trkpt lat="43.290985" lon="-2.258578">
        <ele>3.295</ele>
        <time>2019-06-15T16:31:20Z</time>
      </trkpt>
      <trkpt lat="43.290898" lon="-2.258577">
        <ele>2.916</ele>
        <time>2019-06-15T16:31:21Z</time>
      </trkpt>
      <trkpt lat="43.290808" lon="-2.258594">
        <ele>2.865</ele>
        <time>2019-06-15T16:31:22Z</time>
      </trkpt>
      <trkpt lat="43.290715" lon="-2.258608">
        <ele>3.059</ele>
        <time>2019-06-15T16:31:23Z</time>
      </trkpt>
      <trkpt lat="43.290623" lon="-2.258615">
        <ele>3.081</ele>
        <time>2019-06-15T16:31:24Z</time>
      </trkpt>
      <trkpt lat="43.290514" lon="-2.258605">
        <ele>2.961</ele>
        <time>2019-06-15T16:31:25Z</time>
      </trkpt>
      <trkpt lat="43.290416" lon="-2.258631">
        <ele>3.117</ele>
        <time>2019-06-15T16:31:26Z</time>
      </trkpt>
      <trkpt lat="43.290319" lon="-2.258636">
        <ele>3.108</ele>
        <time>2019-06-15T16:31:27Z</time>
      </trkpt>
      <trkpt lat="43.290225" lon="-2.258632">
        <ele>3.161</ele>
        <time>2019-06-15T16:31:28Z</time>
      </trkpt>
      <trkpt lat="43.290143" lon="-2.258653">
        <ele>3.225</ele>
        <time>2019-06-15T16:31:29Z</time>
      </trkpt>
      <trkpt lat="43.290060" lon="-2.258652">
        <ele>3.134</ele>
        <time>2019-06-15T16:31:30Z</time>
      </trkpt>
      <trkpt lat="43.289981" lon="-2.258649">
        <ele>3.163</ele>
        <time>2019-06-15T16:31:31Z</time>
      </trkpt>
      <trkpt lat="43.289907" lon="-2.258659">
        <ele>3.262</ele>
        <time>2019-06-15T16:31:32Z</time>
      </trkpt>
      <trkpt lat="43.289831" lon="-2.258663">
        <ele>3.363</ele>
        <time>2019-06-15T16:31:33Z</time>
      </trkpt>
      <trkpt lat="43.289753" lon="-2.258644">
        <ele>3.282</ele>
        <time>2019-06-15T16:31:34Z</time>
      </trkpt>
      <trkpt lat="43.289669" lon="-2.258638">
        <ele>3.326</ele>
        <time>2019-06-15T16:31:35Z</time>
      </trkpt>
      <trkpt lat="43.289585" lon="-2.258645">
        <ele>3.646</ele>
        <time>2019-06-15T16:31:36Z</time>
      </trkpt>
      <trkpt lat="43.289497" lon="-2.258655">
        <ele>4.188</ele>
        <time>2019-06-15T16:31:37Z</time>
      </trkpt>
      <trkpt lat="43.289411" lon="-2.258667">
        <ele>4.316</ele>
        <time>2019-06-15T16:31:38Z</time>
      </trkpt>
      <trkpt lat="43.289326" lon="-2.258714">
        <ele>5.008</ele>
        <time>2019-06-15T16:31:39Z</time>
      </trkpt>
      <trkpt lat="43.289243" lon="-2.258748">
        <ele>5.167</ele>
        <time>2019-06-15T16:31:40Z</time>
      </trkpt>
      <trkpt lat="43.289141" lon="-2.258783">
        <ele>5.061</ele>
        <time>2019-06-15T16:31:41Z</time>
      </trkpt>
      <trkpt lat="43.289042" lon="-2.258859">
        <ele>5.250</ele>
        <time>2019-06-15T16:31:42Z</time>
      </trkpt>
      <trkpt lat="43.288935" lon="-2.258946">
        <ele>6.329</ele>
        <time>2019-06-15T16:31:43Z</time>
      </trkpt>
      <trkpt lat="43.288819" lon="-2.258995">
        <ele>6.768</ele>
        <time>2019-06-15T16:31:44Z</time>
      </trkpt>
      <trkpt lat="43.288714" lon="-2.259047">
        <ele>7.129</ele>
        <time>2019-06-15T16:31:45Z</time>
      </trkpt>
      <trkpt lat="43.288597" lon="-2.259094">
        <ele>6.818</ele>
        <time>2019-06-15T16:31:46Z</time>
      </trkpt>
      <trkpt lat="43.288477" lon="-2.259144">
        <ele>7.052</ele>
        <time>2019-06-15T16:31:47Z</time>
      </trkpt>
      <trkpt lat="43.288363" lon="-2.259192">
        <ele>7.573</ele>
        <time>2019-06-15T16:31:48Z</time>
      </trkpt>
      <trkpt lat="43.288252" lon="-2.259230">
        <ele>8.085</ele>
        <time>2019-06-15T16:31:49Z</time>
      </trkpt>
      <trkpt lat="43.288158" lon="-2.259266">
        <ele>8.313</ele>
        <time>2019-06-15T16:31:50Z</time>
      </trkpt>
      <trkpt lat="43.288063" lon="-2.259315">
        <ele>9.108</ele>
        <time>2019-06-15T16:31:51Z</time>
      </trkpt>
      <trkpt lat="43.287964" lon="-2.259359">
        <ele>8.720</ele>
        <time>2019-06-15T16:31:52Z</time>
      </trkpt>
      <trkpt lat="43.287856" lon="-2.259404">
        <ele>7.424</ele>
        <time>2019-06-15T16:31:53Z</time>
      </trkpt>
      <trkpt lat="43.287749" lon="-2.259442">
        <ele>5.793</ele>
        <time>2019-06-15T16:31:54Z</time>
      </trkpt>
      <trkpt lat="43.287643" lon="-2.259484">
        <ele>6.722</ele>
        <time>2019-06-15T16:31:55Z</time>
      </trkpt>
      <trkpt lat="43.287556" lon="-2.259515">
        <ele>6.931</ele>
        <time>2019-06-15T16:31:56Z</time>
      </trkpt>
      <trkpt lat="43.287485" lon="-2.259562">
        <ele>7.872</ele>
        <time>2019-06-15T16:31:57Z</time>
      </trkpt>
      <trkpt lat="43.287410" lon="-2.259596">
        <ele>8.911</ele>
        <time>2019-06-15T16:31:58Z</time>
      </trkpt>
      <trkpt lat="43.287327" lon="-2.259627">
        <ele>9.715</ele>
        <time>2019-06-15T16:31:59Z</time>
      </trkpt>
      <trkpt lat="43.287251" lon="-2.259673">
        <ele>10.837</ele>
        <time>2019-06-15T16:32:00Z</time>
      </trkpt>
      <trkpt lat="43.287130" lon="-2.259613">
        <ele>10.249</ele>
        <time>2019-06-15T16:32:01Z</time>
      </trkpt>
      <trkpt lat="43.287029" lon="-2.259616">
        <ele>11.313</ele>
        <time>2019-06-15T16:32:02Z</time>
      </trkpt>
      <trkpt lat="43.286930" lon="-2.259586">
        <ele>11.408</ele>
        <time>2019-06-15T16:32:03Z</time>
      </trkpt>
      <trkpt lat="43.286830" lon="-2.259516">
        <ele>10.336</ele>
        <time>2019-06-15T16:32:04Z</time>
      </trkpt>
      <trkpt lat="43.286720" lon="-2.259439">
        <ele>8.310</ele>
        <time>2019-06-15T16:32:05Z</time>
      </trkpt>
      <trkpt lat="43.286624" lon="-2.259392">
        <ele>8.349</ele>
        <time>2019-06-15T16:32:06Z</time>
      </trkpt>
      <trkpt lat="43.286525" lon="-2.259324">
        <ele>7.948</ele>
        <time>2019-06-15T16:32:07Z</time>
      </trkpt>
      <trkpt lat="43.286432" lon="-2.259093">
        <ele>6.967</ele>
        <time>2019-06-15T16:32:08Z</time>
      </trkpt>
      <trkpt lat="43.286334" lon="-2.258938">
        <ele>6.848</ele>
        <time>2019-06-15T16:32:09Z</time>
      </trkpt>
      <trkpt lat="43.286253" lon="-2.258832">
        <ele>6.417</ele>
        <time>2019-06-15T16:32:10Z</time>
      </trkpt>
      <trkpt lat="43.286175" lon="-2.258711">
        <ele>6.311</ele>
        <time>2019-06-15T16:32:11Z</time>
      </trkpt>
      <trkpt lat="43.286090" lon="-2.258613">
        <ele>7.472</ele>
        <time>2019-06-15T16:32:12Z</time>
      </trkpt>
      <trkpt lat="43.286008" lon="-2.258542">
        <ele>8.013</ele>
        <time>2019-06-15T16:32:13Z</time>
      </trkpt>
      <trkpt lat="43.285924" lon="-2.258466">
        <ele>8.414</ele>
        <time>2019-06-15T16:32:14Z</time>
      </trkpt>
      <trkpt lat="43.285813" lon="-2.258440">
        <ele>9.508</ele>
        <time>2019-06-15T16:32:15Z</time>
      </trkpt>
      <trkpt lat="43.285720" lon="-2.258420">
        <ele>9.060</ele>
        <time>2019-06-15T16:32:16Z</time>
      </trkpt>
      <trkpt lat="43.285613" lon="-2.258497">
        <ele>10.054</ele>
        <time>2019-06-15T16:32:17Z</time>
      </trkpt>
      <trkpt lat="43.285528" lon="-2.258552">
        <ele>10.123</ele>
        <time>2019-06-15T16:32:18Z</time>
      </trkpt>
      <trkpt lat="43.285453" lon="-2.258621">
        <ele>8.912</ele>
        <time>2019-06-15T16:32:19Z</time>
      </trkpt>
      <trkpt lat="43.285398" lon="-2.258736">
        <ele>9.511</ele>
        <time>2019-06-15T16:32:20Z</time>
      </trkpt>
      <trkpt lat="43.285343" lon="-2.258857">
        <ele>9.542</ele>
        <time>2019-06-15T16:32:21Z</time>
      </trkpt>
      <trkpt lat="43.285289" lon="-2.258978">
        <ele>8.271</ele>
        <time>2019-06-15T16:32:22Z</time>
      </trkpt>
      <trkpt lat="43.285260" lon="-2.259094">
        <ele>8.345</ele>
        <time>2019-06-15T16:32:23Z</time>
      </trkpt>
      <trkpt lat="43.285227" lon="-2.259205">
        <ele>9.118</ele>
        <time>2019-06-15T16:32:24Z</time>
      </trkpt>
      <trkpt lat="43.285194" lon="-2.259307">
        <ele>9.898</ele>
        <time>2019-06-15T16:32:25Z</time>
      </trkpt>
      <trkpt lat="43.285162" lon="-2.259413">
        <ele>10.217</ele>
        <time>2019-06-15T16:32:26Z</time>
      </trkpt>
      <trkpt lat="43.285170" lon="-2.259531">
        <ele>11.408</ele>
        <time>2019-06-15T16:32:27Z</time>
      </trkpt>
      <trkpt lat="43.285160" lon="-2.259663">
        <ele>12.334</ele>
        <time>2019-06-15T16:32:28Z</time>
      </trkpt>
      <trkpt lat="43.285121" lon="-2.259772">
        <ele>11.618</ele>
        <time>2019-06-15T16:32:29Z</time>
      </trkpt>
      <trkpt lat="43.285089" lon="-2.259879">
        <ele>10.717</ele>
        <time>2019-06-15T16:32:30Z</time>
      </trkpt>
      <trkpt lat="43.285057" lon="-2.259984">
        <ele>9.636</ele>
        <time>2019-06-15T16:32:31Z</time>
      </trkpt>
      <trkpt lat="43.285030" lon="-2.260089">
        <ele>9.125</ele>
        <time>2019-06-15T16:32:32Z</time>
      </trkpt>
      <trkpt lat="43.285004" lon="-2.260194">
        <ele>8.646</ele>
        <time>2019-06-15T16:32:33Z</time>
      </trkpt>
      <trkpt lat="43.285012" lon="-2.260339">
        <ele>9.425</ele>
        <time>2019-06-15T16:32:34Z</time>
      </trkpt>
      <trkpt lat="43.285013" lon="-2.260471">
        <ele>9.089</ele>
        <time>2019-06-15T16:32:35Z</time>
      </trkpt>
      <trkpt lat="43.285018" lon="-2.260600">
        <ele>8.598</ele>
        <time>2019-06-15T16:32:36Z</time>
      </trkpt>
      <trkpt lat="43.285100" lon="-2.260777">
        <ele>9.415</ele>
        <time>2019-06-15T16:32:37Z</time>
      </trkpt>
      <trkpt lat="43.285207" lon="-2.260903">
        <ele>10.126</ele>
        <time>2019-06-15T16:32:38Z</time>
      </trkpt>
      <trkpt lat="43.285289" lon="-2.261052">
        <ele>7.508</ele>
        <time>2019-06-15T16:32:39Z</time>
      </trkpt>
      <trkpt lat="43.285402" lon="-2.261192">
        <ele>10.772</ele>
        <time>2019-06-15T16:32:40Z</time>
      </trkpt>
      <trkpt lat="43.285490" lon="-2.261351">
        <ele>11.236</ele>
        <time>2019-06-15T16:32:41Z</time>
      </trkpt>
      <trkpt lat="43.285555" lon="-2.261517">
        <ele>10.155</ele>
        <time>2019-06-15T16:32:42Z</time>
      </trkpt>
      <trkpt lat="43.285595" lon="-2.261684">
        <ele>10.854</ele>
        <time>2019-06-15T16:32:43Z</time>
      </trkpt>
      <trkpt lat="43.285642" lon="-2.261854">
        <ele>13.263</ele>
        <time>2019-06-15T16:32:44Z</time>
      </trkpt>
      <trkpt lat="43.285595" lon="-2.262084">
        <ele>10.734</ele>
        <time>2019-06-15T16:32:45Z</time>
      </trkpt>
      <trkpt lat="43.285576" lon="-2.262259">
        <ele>11.133</ele>
        <time>2019-06-15T16:32:46Z</time>
      </trkpt>
      <trkpt lat="43.285546" lon="-2.262458">
        <ele>14.667</ele>
        <time>2019-06-15T16:32:47Z</time>
      </trkpt>
      <trkpt lat="43.285478" lon="-2.262670">
        <ele>17.562</ele>
        <time>2019-06-15T16:32:48Z</time>
      </trkpt>
      <trkpt lat="43.285416" lon="-2.262848">
        <ele>19.483</ele>
        <time>2019-06-15T16:32:49Z</time>
      </trkpt>
      <trkpt lat="43.285349" lon="-2.262985">
        <ele>20.811</ele>
        <time>2019-06-15T16:32:50Z</time>
      </trkpt>
      <trkpt lat="43.285252" lon="-2.263056">
        <ele>17.908</ele>
        <time>2019-06-15T16:32:51Z</time>
      </trkpt>
      <trkpt lat="43.285154" lon="-2.263237">
        <ele>20.079</ele>
        <time>2019-06-15T16:32:52Z</time>
      </trkpt>
      <trkpt lat="43.285059" lon="-2.263356">
        <ele>19.153</ele>
        <time>2019-06-15T16:32:53Z</time>
      </trkpt>
      <trkpt lat="43.285006" lon="-2.263426">
        <ele>19.332</ele>
        <time>2019-06-15T16:32:54Z</time>
      </trkpt>
      <trkpt lat="43.284961" lon="-2.263526">
        <ele>21.171</ele>
        <time>2019-06-15T16:32:55Z</time>
      </trkpt>
      <trkpt lat="43.284897" lon="-2.263598">
        <ele>19.610</ele>
        <time>2019-06-15T16:32:56Z</time>
      </trkpt>
      <trkpt lat="43.284862" lon="-2.263687">
        <ele>16.511</ele>
        <time>2019-06-15T16:32:57Z</time>
      </trkpt>
      <trkpt lat="43.284848" lon="-2.263776">
        <ele>14.540</ele>
        <time>2019-06-15T16:32:58Z</time>
      </trkpt>
      <trkpt lat="43.284846" lon="-2.263847">
        <ele>13.464</ele>
        <time>2019-06-15T16:32:59Z</time>
      </trkpt>
      <trkpt lat="43.284844" lon="-2.263916">
        <ele>12.453</ele>
        <time>2019-06-15T16:33:00Z</time>
      </trkpt>
      <trkpt lat="43.284868" lon="-2.263980">
        <ele>12.204</ele>
        <time>2019-06-15T16:33:01Z</time>
      </trkpt>
      <trkpt lat="43.284893" lon="-2.264041">
        <ele>11.714</ele>
        <time>2019-06-15T16:33:02Z</time>
      </trkpt>
      <trkpt lat="43.284920" lon="-2.264116">
        <ele>10.608</ele>
        <time>2019-06-15T16:33:05Z</time>
      </trkpt>
      <trkpt lat="43.284954" lon="-2.264059">
        <ele>12.638</ele>
        <time>2019-06-15T16:34:45Z</time>
      </trkpt>
      <trkpt lat="43.284895" lon="-2.264013">
        <ele>12.372</ele>
        <time>2019-06-15T16:35:18Z</time>
      </trkpt>
      <trkpt lat="43.284863" lon="-2.264068">
        <ele>10.691</ele>
        <time>2019-06-15T16:35:23Z</time>
      </trkpt>
      <trkpt lat="43.284890" lon="-2.264018">
        <ele>12.130</ele>
        <time>2019-06-15T16:36:14Z</time>
      </trkpt>
      <trkpt lat="43.284935" lon="-2.264069">
        <ele>12.059</ele>
        <time>2019-06-15T16:37:02Z</time>
      </trkpt>
      <trkpt lat="43.284959" lon="-2.264158">
        <ele>9.970</ele>
        <time>2019-06-15T16:37:05Z</time>
      </trkpt>
      <trkpt lat="43.284942" lon="-2.264225">
        <ele>9.219</ele>
        <time>2019-06-15T16:37:06Z</time>
      </trkpt>
      <trkpt lat="43.284916" lon="-2.264289">
        <ele>8.853</ele>
        <time>2019-06-15T16:37:07Z</time>
      </trkpt>
      <trkpt lat="43.284890" lon="-2.264359">
        <ele>8.486</ele>
        <time>2019-06-15T16:37:08Z</time>
      </trkpt>
      <trkpt lat="43.284869" lon="-2.264438">
        <ele>8.060</ele>
        <time>2019-06-15T16:37:09Z</time>
      </trkpt>
      <trkpt lat="43.284860" lon="-2.264539">
        <ele>7.326</ele>
        <time>2019-06-15T16:37:10Z</time>
      </trkpt>
      <trkpt lat="43.284893" lon="-2.264746">
        <ele>6.008</ele>
        <time>2019-06-15T16:37:11Z</time>
      </trkpt>
      <trkpt lat="43.284921" lon="-2.264887">
        <ele>5.851</ele>
        <time>2019-06-15T16:37:12Z</time>
      </trkpt>
      <trkpt lat="43.284947" lon="-2.265025">
        <ele>5.975</ele>
        <time>2019-06-15T16:37:13Z</time>
      </trkpt>
      <trkpt lat="43.284966" lon="-2.265165">
        <ele>6.564</ele>
        <time>2019-06-15T16:37:14Z</time>
      </trkpt>
      <trkpt lat="43.284976" lon="-2.265308">
        <ele>7.123</ele>
        <time>2019-06-15T16:37:15Z</time>
      </trkpt>
      <trkpt lat="43.284957" lon="-2.265442">
        <ele>7.632</ele>
        <time>2019-06-15T16:37:16Z</time>
      </trkpt>
      <trkpt lat="43.284925" lon="-2.265575">
        <ele>7.993</ele>
        <time>2019-06-15T16:37:17Z</time>
      </trkpt>
      <trkpt lat="43.284868" lon="-2.265713">
        <ele>7.772</ele>
        <time>2019-06-15T16:37:18Z</time>
      </trkpt>
      <trkpt lat="43.284795" lon="-2.265836">
        <ele>7.716</ele>
        <time>2019-06-15T16:37:19Z</time>
      </trkpt>
      <trkpt lat="43.284709" lon="-2.265955">
        <ele>8.044</ele>
        <time>2019-06-15T16:37:20Z</time>
      </trkpt>
      <trkpt lat="43.284595" lon="-2.266048">
        <ele>8.505</ele>
        <time>2019-06-15T16:37:21Z</time>
      </trkpt>
      <trkpt lat="43.284469" lon="-2.266102">
        <ele>8.915</ele>
        <time>2019-06-15T16:37:22Z</time>
      </trkpt>
      <trkpt lat="43.284305" lon="-2.266197">
        <ele>9.208</ele>
        <time>2019-06-15T16:37:23Z</time>
      </trkpt>
      <trkpt lat="43.284164" lon="-2.266265">
        <ele>8.597</ele>
        <time>2019-06-15T16:37:24Z</time>
      </trkpt>
      <trkpt lat="43.284031" lon="-2.266321">
        <ele>8.711</ele>
        <time>2019-06-15T16:37:25Z</time>
      </trkpt>
      <trkpt lat="43.283889" lon="-2.266373">
        <ele>8.380</ele>
        <time>2019-06-15T16:37:26Z</time>
      </trkpt>
      <trkpt lat="43.283741" lon="-2.266426">
        <ele>9.259</ele>
        <time>2019-06-15T16:37:27Z</time>
      </trkpt>
      <trkpt lat="43.283585" lon="-2.266472">
        <ele>10.068</ele>
        <time>2019-06-15T16:37:28Z</time>
      </trkpt>
      <trkpt lat="43.283434" lon="-2.266514">
        <ele>10.529</ele>
        <time>2019-06-15T16:37:29Z</time>
      </trkpt>
      <trkpt lat="43.283288" lon="-2.266512">
        <ele>10.748</ele>
        <time>2019-06-15T16:37:30Z</time>
      </trkpt>
      <trkpt lat="43.283150" lon="-2.266497">
        <ele>11.352</ele>
        <time>2019-06-15T16:37:31Z</time>
      </trkpt>
      <trkpt lat="43.282994" lon="-2.266494">
        <ele>11.781</ele>
        <time>2019-06-15T16:37:32Z</time>
      </trkpt>
      <trkpt lat="43.282831" lon="-2.266453">
        <ele>12.061</ele>
        <time>2019-06-15T16:37:33Z</time>
      </trkpt>
      <trkpt lat="43.282667" lon="-2.266420">
        <ele>11.617</ele>
        <time>2019-06-15T16:37:34Z</time>
      </trkpt>
      <trkpt lat="43.282500" lon="-2.266353">
        <ele>12.708</ele>
        <time>2019-06-15T16:37:35Z</time>
      </trkpt>
      <trkpt lat="43.282351" lon="-2.266282">
        <ele>15.041</ele>
        <time>2019-06-15T16:37:36Z</time>
      </trkpt>
      <trkpt lat="43.282208" lon="-2.266217">
        <ele>15.845</ele>
        <time>2019-06-15T16:37:37Z</time>
      </trkpt>
      <trkpt lat="43.282065" lon="-2.266157">
        <ele>15.884</ele>
        <time>2019-06-15T16:37:38Z</time>
      </trkpt>
      <trkpt lat="43.281895" lon="-2.266136">
        <ele>14.373</ele>
        <time>2019-06-15T16:37:39Z</time>
      </trkpt>
      <trkpt lat="43.281734" lon="-2.266100">
        <ele>14.182</ele>
        <time>2019-06-15T16:37:40Z</time>
      </trkpt>
      <trkpt lat="43.281580" lon="-2.266078">
        <ele>14.663</ele>
        <time>2019-06-15T16:37:41Z</time>
      </trkpt>
      <trkpt lat="43.281433" lon="-2.266071">
        <ele>14.942</ele>
        <time>2019-06-15T16:37:42Z</time>
      </trkpt>
      <trkpt lat="43.281288" lon="-2.266102">
        <ele>13.876</ele>
        <time>2019-06-15T16:37:43Z</time>
      </trkpt>
      <trkpt lat="43.281142" lon="-2.266158">
        <ele>14.167</ele>
        <time>2019-06-15T16:37:44Z</time>
      </trkpt>
      <trkpt lat="43.281000" lon="-2.266251">
        <ele>16.181</ele>
        <time>2019-06-15T16:37:45Z</time>
      </trkpt>
      <trkpt lat="43.280889" lon="-2.266365">
        <ele>14.819</ele>
        <time>2019-06-15T16:37:46Z</time>
      </trkpt>
      <trkpt lat="43.280769" lon="-2.266492">
        <ele>15.808</ele>
        <time>2019-06-15T16:37:47Z</time>
      </trkpt>
      <trkpt lat="43.280650" lon="-2.266626">
        <ele>16.419</ele>
        <time>2019-06-15T16:37:48Z</time>
      </trkpt>
      <trkpt lat="43.280552" lon="-2.266818">
        <ele>15.553</ele>
        <time>2019-06-15T16:37:49Z</time>
      </trkpt>
      <trkpt lat="43.280472" lon="-2.267017">
        <ele>15.432</ele>
        <time>2019-06-15T16:37:50Z</time>
      </trkpt>
      <trkpt lat="43.280394" lon="-2.267225">
        <ele>15.741</ele>
        <time>2019-06-15T16:37:51Z</time>
      </trkpt>
      <trkpt lat="43.280316" lon="-2.267421">
        <ele>16.250</ele>
        <time>2019-06-15T16:37:52Z</time>
      </trkpt>
      <trkpt lat="43.280229" lon="-2.267637">
        <ele>17.561</ele>
        <time>2019-06-15T16:37:53Z</time>
      </trkpt>
      <trkpt lat="43.280155" lon="-2.267829">
        <ele>19.650</ele>
        <time>2019-06-15T16:37:54Z</time>
      </trkpt>
      <trkpt lat="43.280074" lon="-2.268016">
        <ele>21.084</ele>
        <time>2019-06-15T16:37:55Z</time>
      </trkpt>
      <trkpt lat="43.279999" lon="-2.268204">
        <ele>22.752</ele>
        <time>2019-06-15T16:37:56Z</time>
      </trkpt>
      <trkpt lat="43.279898" lon="-2.268384">
        <ele>25.053</ele>
        <time>2019-06-15T16:37:57Z</time>
      </trkpt>
      <trkpt lat="43.279782" lon="-2.268548">
        <ele>25.008</ele>
        <time>2019-06-15T16:37:58Z</time>
      </trkpt>
      <trkpt lat="43.279656" lon="-2.268724">
        <ele>26.308</ele>
        <time>2019-06-15T16:37:59Z</time>
      </trkpt>
      <trkpt lat="43.279540" lon="-2.268895">
        <ele>27.648</ele>
        <time>2019-06-15T16:38:00Z</time>
      </trkpt>
      <trkpt lat="43.279426" lon="-2.269039">
        <ele>29.012</ele>
        <time>2019-06-15T16:38:01Z</time>
      </trkpt>
      <trkpt lat="43.279297" lon="-2.269182">
        <ele>28.711</ele>
        <time>2019-06-15T16:38:02Z</time>
      </trkpt>
      <trkpt lat="43.279168" lon="-2.269321">
        <ele>28.510</ele>
        <time>2019-06-15T16:38:03Z</time>
      </trkpt>
      <trkpt lat="43.279048" lon="-2.269455">
        <ele>29.729</ele>
        <time>2019-06-15T16:38:04Z</time>
      </trkpt>
      <trkpt lat="43.278939" lon="-2.269612">
        <ele>31.970</ele>
        <time>2019-06-15T16:38:05Z</time>
      </trkpt>
      <trkpt lat="43.278816" lon="-2.269773">
        <ele>32.929</ele>
        <time>2019-06-15T16:38:06Z</time>
      </trkpt>
      <trkpt lat="43.278699" lon="-2.269910">
        <ele>32.643</ele>
        <time>2019-06-15T16:38:07Z</time>
      </trkpt>
      <trkpt lat="43.278582" lon="-2.270044">
        <ele>32.613</ele>
        <time>2019-06-15T16:38:08Z</time>
      </trkpt>
      <trkpt lat="43.278461" lon="-2.270162">
        <ele>31.343</ele>
        <time>2019-06-15T16:38:09Z</time>
      </trkpt>
      <trkpt lat="43.278336" lon="-2.270307">
        <ele>31.407</ele>
        <time>2019-06-15T16:38:10Z</time>
      </trkpt>
      <trkpt lat="43.278208" lon="-2.270450">
        <ele>30.608</ele>
        <time>2019-06-15T16:38:11Z</time>
      </trkpt>
      <trkpt lat="43.278084" lon="-2.270590">
        <ele>30.154</ele>
        <time>2019-06-15T16:38:12Z</time>
      </trkpt>
      <trkpt lat="43.277956" lon="-2.270698">
        <ele>30.588</ele>
        <time>2019-06-15T16:38:13Z</time>
      </trkpt>
      <trkpt lat="43.277822" lon="-2.270812">
        <ele>31.147</ele>
        <time>2019-06-15T16:38:14Z</time>
      </trkpt>
      <trkpt lat="43.277684" lon="-2.270910">
        <ele>31.126</ele>
        <time>2019-06-15T16:38:15Z</time>
      </trkpt>
      <trkpt lat="43.277554" lon="-2.271023">
        <ele>31.335</ele>
        <time>2019-06-15T16:38:16Z</time>
      </trkpt>
      <trkpt lat="43.277421" lon="-2.271138">
        <ele>31.166</ele>
        <time>2019-06-15T16:38:17Z</time>
      </trkpt>
      <trkpt lat="43.277288" lon="-2.271266">
        <ele>30.215</ele>
        <time>2019-06-15T16:38:18Z</time>
      </trkpt>
      <trkpt lat="43.277189" lon="-2.271402">
        <ele>29.849</ele>
        <time>2019-06-15T16:38:19Z</time>
      </trkpt>
      <trkpt lat="43.277067" lon="-2.271554">
        <ele>30.133</ele>
        <time>2019-06-15T16:38:20Z</time>
      </trkpt>
      <trkpt lat="43.276946" lon="-2.271700">
        <ele>30.423</ele>
        <time>2019-06-15T16:38:21Z</time>
      </trkpt>
      <trkpt lat="43.276825" lon="-2.271847">
        <ele>30.115</ele>
        <time>2019-06-15T16:38:22Z</time>
      </trkpt>
      <trkpt lat="43.276707" lon="-2.271974">
        <ele>30.108</ele>
        <time>2019-06-15T16:38:23Z</time>
      </trkpt>
      <trkpt lat="43.276590" lon="-2.272122">
        <ele>30.826</ele>
        <time>2019-06-15T16:38:24Z</time>
      </trkpt>
      <trkpt lat="43.276484" lon="-2.272307">
        <ele>32.840</ele>
        <time>2019-06-15T16:38:25Z</time>
      </trkpt>
      <trkpt lat="43.276364" lon="-2.272493">
        <ele>34.239</ele>
        <time>2019-06-15T16:38:26Z</time>
      </trkpt>
      <trkpt lat="43.276260" lon="-2.272667">
        <ele>34.838</ele>
        <time>2019-06-15T16:38:27Z</time>
      </trkpt>
      <trkpt lat="43.276152" lon="-2.272854">
        <ele>34.137</ele>
        <time>2019-06-15T16:38:28Z</time>
      </trkpt>
      <trkpt lat="43.276071" lon="-2.273042">
        <ele>35.498</ele>
        <time>2019-06-15T16:38:29Z</time>
      </trkpt>
      <trkpt lat="43.275973" lon="-2.273214">
        <ele>33.917</ele>
        <time>2019-06-15T16:38:30Z</time>
      </trkpt>
      <trkpt lat="43.275879" lon="-2.273369">
        <ele>33.431</ele>
        <time>2019-06-15T16:38:31Z</time>
      </trkpt>
      <trkpt lat="43.275786" lon="-2.273536">
        <ele>33.067</ele>
        <time>2019-06-15T16:38:32Z</time>
      </trkpt>
      <trkpt lat="43.275689" lon="-2.273692">
        <ele>32.581</ele>
        <time>2019-06-15T16:38:33Z</time>
      </trkpt>
      <trkpt lat="43.275613" lon="-2.273838">
        <ele>32.719</ele>
        <time>2019-06-15T16:38:34Z</time>
      </trkpt>
      <trkpt lat="43.275552" lon="-2.274004">
        <ele>33.108</ele>
        <time>2019-06-15T16:38:35Z</time>
      </trkpt>
      <trkpt lat="43.275508" lon="-2.274167">
        <ele>33.639</ele>
        <time>2019-06-15T16:38:36Z</time>
      </trkpt>
      <trkpt lat="43.275469" lon="-2.274333">
        <ele>32.923</ele>
        <time>2019-06-15T16:38:37Z</time>
      </trkpt>
      <trkpt lat="43.275437" lon="-2.274505">
        <ele>32.112</ele>
        <time>2019-06-15T16:38:38Z</time>
      </trkpt>
      <trkpt lat="43.275463" lon="-2.274721">
        <ele>31.081</ele>
        <time>2019-06-15T16:38:39Z</time>
      </trkpt>
      <trkpt lat="43.275467" lon="-2.274919">
        <ele>29.180</ele>
        <time>2019-06-15T16:38:40Z</time>
      </trkpt>
      <trkpt lat="43.275570" lon="-2.275184">
        <ele>29.941</ele>
        <time>2019-06-15T16:38:41Z</time>
      </trkpt>
      <trkpt lat="43.275640" lon="-2.275385">
        <ele>29.740</ele>
        <time>2019-06-15T16:38:42Z</time>
      </trkpt>
      <trkpt lat="43.275737" lon="-2.275623">
        <ele>28.694</ele>
        <time>2019-06-15T16:38:43Z</time>
      </trkpt>
      <trkpt lat="43.275840" lon="-2.275851">
        <ele>29.122</ele>
        <time>2019-06-15T16:38:44Z</time>
      </trkpt>
      <trkpt lat="43.275894" lon="-2.276105">
        <ele>30.162</ele>
        <time>2019-06-15T16:38:45Z</time>
      </trkpt>
      <trkpt lat="43.275964" lon="-2.276361">
        <ele>30.408</ele>
        <time>2019-06-15T16:38:46Z</time>
      </trkpt>
      <trkpt lat="43.276034" lon="-2.276594">
        <ele>31.408</ele>
        <time>2019-06-15T16:38:47Z</time>
      </trkpt>
      <trkpt lat="43.276102" lon="-2.276837">
        <ele>31.545</ele>
        <time>2019-06-15T16:38:48Z</time>
      </trkpt>
      <trkpt lat="43.276166" lon="-2.277079">
        <ele>33.049</ele>
        <time>2019-06-15T16:38:49Z</time>
      </trkpt>
      <trkpt lat="43.276280" lon="-2.277287">
        <ele>32.868</ele>
        <time>2019-06-15T16:38:50Z</time>
      </trkpt>
      <trkpt lat="43.276342" lon="-2.277518">
        <ele>32.557</ele>
        <time>2019-06-15T16:38:51Z</time>
      </trkpt>
      <trkpt lat="43.276404" lon="-2.277747">
        <ele>32.636</ele>
        <time>2019-06-15T16:38:52Z</time>
      </trkpt>
      <trkpt lat="43.276457" lon="-2.277971">
        <ele>33.517</ele>
        <time>2019-06-15T16:38:53Z</time>
      </trkpt>
      <trkpt lat="43.276516" lon="-2.278205">
        <ele>33.456</ele>
        <time>2019-06-15T16:38:54Z</time>
      </trkpt>
      <trkpt lat="43.276567" lon="-2.278456">
        <ele>33.560</ele>
        <time>2019-06-15T16:38:55Z</time>
      </trkpt>
      <trkpt lat="43.276620" lon="-2.278717">
        <ele>33.881</ele>
        <time>2019-06-15T16:38:56Z</time>
      </trkpt>
      <trkpt lat="43.276673" lon="-2.278973">
        <ele>34.361</ele>
        <time>2019-06-15T16:38:57Z</time>
      </trkpt>
      <trkpt lat="43.276733" lon="-2.279238">
        <ele>35.417</ele>
        <time>2019-06-15T16:38:58Z</time>
      </trkpt>
      <trkpt lat="43.276790" lon="-2.279510">
        <ele>37.208</ele>
        <time>2019-06-15T16:38:59Z</time>
      </trkpt>
      <trkpt lat="43.276843" lon="-2.279750">
        <ele>39.151</ele>
        <time>2019-06-15T16:39:00Z</time>
      </trkpt>
      <trkpt lat="43.276884" lon="-2.280024">
        <ele>39.035</ele>
        <time>2019-06-15T16:39:01Z</time>
      </trkpt>
      <trkpt lat="43.276933" lon="-2.280284">
        <ele>37.944</ele>
        <time>2019-06-15T16:39:02Z</time>
      </trkpt>
      <trkpt lat="43.276991" lon="-2.280550">
        <ele>37.943</ele>
        <time>2019-06-15T16:39:03Z</time>
      </trkpt>
      <trkpt lat="43.277028" lon="-2.280796">
        <ele>37.522</ele>
        <time>2019-06-15T16:39:04Z</time>
      </trkpt>
      <trkpt lat="43.277083" lon="-2.281030">
        <ele>38.233</ele>
        <time>2019-06-15T16:39:05Z</time>
      </trkpt>
      <trkpt lat="43.277130" lon="-2.281276">
        <ele>39.142</ele>
        <time>2019-06-15T16:39:06Z</time>
      </trkpt>
      <trkpt lat="43.277177" lon="-2.281520">
        <ele>39.756</ele>
        <time>2019-06-15T16:39:07Z</time>
      </trkpt>
      <trkpt lat="43.277228" lon="-2.281748">
        <ele>40.518</ele>
        <time>2019-06-15T16:39:08Z</time>
      </trkpt>
      <trkpt lat="43.277276" lon="-2.281981">
        <ele>42.298</ele>
        <time>2019-06-15T16:39:09Z</time>
      </trkpt>
      <trkpt lat="43.277324" lon="-2.282212">
        <ele>45.217</ele>
        <time>2019-06-15T16:39:10Z</time>
      </trkpt>
      <trkpt lat="43.277376" lon="-2.282443">
        <ele>47.108</ele>
        <time>2019-06-15T16:39:11Z</time>
      </trkpt>
      <trkpt lat="43.277496" lon="-2.282626">
        <ele>49.224</ele>
        <time>2019-06-15T16:39:12Z</time>
      </trkpt>
      <trkpt lat="43.277598" lon="-2.282856">
        <ele>48.048</ele>
        <time>2019-06-15T16:39:13Z</time>
      </trkpt>
      <trkpt lat="43.277716" lon="-2.283083">
        <ele>48.747</ele>
        <time>2019-06-15T16:39:14Z</time>
      </trkpt>
      <trkpt lat="43.277810" lon="-2.283321">
        <ele>49.446</ele>
        <time>2019-06-15T16:39:15Z</time>
      </trkpt>
      <trkpt lat="43.277925" lon="-2.283569">
        <ele>50.045</ele>
        <time>2019-06-15T16:39:16Z</time>
      </trkpt>
      <trkpt lat="43.278036" lon="-2.283795">
        <ele>50.176</ele>
        <time>2019-06-15T16:39:17Z</time>
      </trkpt>
      <trkpt lat="43.278146" lon="-2.284006">
        <ele>50.265</ele>
        <time>2019-06-15T16:39:18Z</time>
      </trkpt>
      <trkpt lat="43.278265" lon="-2.284221">
        <ele>51.049</ele>
        <time>2019-06-15T16:39:19Z</time>
      </trkpt>
      <trkpt lat="43.278386" lon="-2.284416">
        <ele>51.097</ele>
        <time>2019-06-15T16:39:20Z</time>
      </trkpt>
      <trkpt lat="43.278502" lon="-2.284601">
        <ele>52.423</ele>
        <time>2019-06-15T16:39:21Z</time>
      </trkpt>
      <trkpt lat="43.278615" lon="-2.284795">
        <ele>53.325</ele>
        <time>2019-06-15T16:39:22Z</time>
      </trkpt>
      <trkpt lat="43.278737" lon="-2.284985">
        <ele>55.608</ele>
        <time>2019-06-15T16:39:23Z</time>
      </trkpt>
      <trkpt lat="43.278853" lon="-2.285183">
        <ele>56.662</ele>
        <time>2019-06-15T16:39:24Z</time>
      </trkpt>
      <trkpt lat="43.278954" lon="-2.285378">
        <ele>57.276</ele>
        <time>2019-06-15T16:39:25Z</time>
      </trkpt>
      <trkpt lat="43.279053" lon="-2.285566">
        <ele>57.075</ele>
        <time>2019-06-15T16:39:26Z</time>
      </trkpt>
      <trkpt lat="43.279138" lon="-2.285771">
        <ele>57.684</ele>
        <time>2019-06-15T16:39:27Z</time>
      </trkpt>
      <trkpt lat="43.279203" lon="-2.285972">
        <ele>58.973</ele>
        <time>2019-06-15T16:39:28Z</time>
      </trkpt>
      <trkpt lat="43.279236" lon="-2.286214">
        <ele>60.184</ele>
        <time>2019-06-15T16:39:29Z</time>
      </trkpt>
      <trkpt lat="43.279254" lon="-2.286434">
        <ele>61.063</ele>
        <time>2019-06-15T16:39:30Z</time>
      </trkpt>
      <trkpt lat="43.279249" lon="-2.286695">
        <ele>61.917</ele>
        <time>2019-06-15T16:39:31Z</time>
      </trkpt>
      <trkpt lat="43.279252" lon="-2.286934">
        <ele>63.626</ele>
        <time>2019-06-15T16:39:32Z</time>
      </trkpt>
      <trkpt lat="43.279243" lon="-2.287191">
        <ele>64.247</ele>
        <time>2019-06-15T16:39:33Z</time>
      </trkpt>
      <trkpt lat="43.279237" lon="-2.287405">
        <ele>64.011</ele>
        <time>2019-06-15T16:39:34Z</time>
      </trkpt>
      <trkpt lat="43.279234" lon="-2.287624">
        <ele>65.208</ele>
        <time>2019-06-15T16:39:35Z</time>
      </trkpt>
      <trkpt lat="43.279235" lon="-2.287823">
        <ele>66.915</ele>
        <time>2019-06-15T16:39:36Z</time>
      </trkpt>
      <trkpt lat="43.279245" lon="-2.288027">
        <ele>68.359</ele>
        <time>2019-06-15T16:39:37Z</time>
      </trkpt>
      <trkpt lat="43.279250" lon="-2.288218">
        <ele>68.538</ele>
        <time>2019-06-15T16:39:38Z</time>
      </trkpt>
      <trkpt lat="43.279287" lon="-2.288415">
        <ele>68.257</ele>
        <time>2019-06-15T16:39:39Z</time>
      </trkpt>
      <trkpt lat="43.279331" lon="-2.288618">
        <ele>66.136</ele>
        <time>2019-06-15T16:39:40Z</time>
      </trkpt>
      <trkpt lat="43.279387" lon="-2.288808">
        <ele>66.447</ele>
        <time>2019-06-15T16:39:41Z</time>
      </trkpt>
      <trkpt lat="43.279443" lon="-2.289018">
        <ele>67.516</ele>
        <time>2019-06-15T16:39:42Z</time>
      </trkpt>
      <trkpt lat="43.279551" lon="-2.289227">
        <ele>71.130</ele>
        <time>2019-06-15T16:39:43Z</time>
      </trkpt>
      <trkpt lat="43.279627" lon="-2.289407">
        <ele>72.671</ele>
        <time>2019-06-15T16:39:44Z</time>
      </trkpt>
      <trkpt lat="43.279717" lon="-2.289613">
        <ele>74.041</ele>
        <time>2019-06-15T16:39:45Z</time>
      </trkpt>
      <trkpt lat="43.279782" lon="-2.289817">
        <ele>74.715</ele>
        <time>2019-06-15T16:39:46Z</time>
      </trkpt>
      <trkpt lat="43.279862" lon="-2.289982">
        <ele>76.308</ele>
        <time>2019-06-15T16:39:47Z</time>
      </trkpt>
      <trkpt lat="43.279930" lon="-2.290158">
        <ele>76.830</ele>
        <time>2019-06-15T16:39:48Z</time>
      </trkpt>
      <trkpt lat="43.279985" lon="-2.290344">
        <ele>77.214</ele>
        <time>2019-06-15T16:39:49Z</time>
      </trkpt>
      <trkpt lat="43.280004" lon="-2.290537">
        <ele>77.243</ele>
        <time>2019-06-15T16:39:50Z</time>
      </trkpt>
      <trkpt lat="43.280022" lon="-2.290743">
        <ele>79.792</ele>
        <time>2019-06-15T16:39:51Z</time>
      </trkpt>
      <trkpt lat="43.280011" lon="-2.290940">
        <ele>82.421</ele>
        <time>2019-06-15T16:39:52Z</time>
      </trkpt>
      <trkpt lat="43.279980" lon="-2.291140">
        <ele>84.462</ele>
        <time>2019-06-15T16:39:53Z</time>
      </trkpt>
      <trkpt lat="43.279959" lon="-2.291327">
        <ele>84.281</ele>
        <time>2019-06-15T16:39:54Z</time>
      </trkpt>
      <trkpt lat="43.279987" lon="-2.291476">
        <ele>85.515</ele>
        <time>2019-06-15T16:39:55Z</time>
      </trkpt>
      <trkpt lat="43.279995" lon="-2.291656">
        <ele>85.822</ele>
        <time>2019-06-15T16:39:56Z</time>
      </trkpt>
      <trkpt lat="43.280012" lon="-2.291824">
        <ele>85.262</ele>
        <time>2019-06-15T16:39:57Z</time>
      </trkpt>
      <trkpt lat="43.280079" lon="-2.291979">
        <ele>85.508</ele>
        <time>2019-06-15T16:39:58Z</time>
      </trkpt>
      <trkpt lat="43.280222" lon="-2.292092">
        <ele>87.208</ele>
        <time>2019-06-15T16:39:59Z</time>
      </trkpt>
      <trkpt lat="43.280390" lon="-2.292210">
        <ele>88.715</ele>
        <time>2019-06-15T16:40:00Z</time>
      </trkpt>
      <trkpt lat="43.280531" lon="-2.292295">
        <ele>89.399</ele>
        <time>2019-06-15T16:40:01Z</time>
      </trkpt>
      <trkpt lat="43.280666" lon="-2.292380">
        <ele>90.278</ele>
        <time>2019-06-15T16:40:02Z</time>
      </trkpt>
      <trkpt lat="43.280811" lon="-2.292485">
        <ele>90.917</ele>
        <time>2019-06-15T16:40:03Z</time>
      </trkpt>
      <trkpt lat="43.280960" lon="-2.292574">
        <ele>92.896</ele>
        <time>2019-06-15T16:40:04Z</time>
      </trkpt>
      <trkpt lat="43.281118" lon="-2.292675">
        <ele>94.797</ele>
        <time>2019-06-15T16:40:05Z</time>
      </trkpt>
      <trkpt lat="43.281250" lon="-2.292762">
        <ele>94.976</ele>
        <time>2019-06-15T16:40:06Z</time>
      </trkpt>
      <trkpt lat="43.281393" lon="-2.292846">
        <ele>95.830</ele>
        <time>2019-06-15T16:40:07Z</time>
      </trkpt>
      <trkpt lat="43.281514" lon="-2.292936">
        <ele>95.758</ele>
        <time>2019-06-15T16:40:08Z</time>
      </trkpt>
      <trkpt lat="43.281629" lon="-2.293018">
        <ele>95.452</ele>
        <time>2019-06-15T16:40:09Z</time>
      </trkpt>
      <trkpt lat="43.281732" lon="-2.293091">
        <ele>95.417</ele>
        <time>2019-06-15T16:40:10Z</time>
      </trkpt>
      <trkpt lat="43.281843" lon="-2.293162">
        <ele>96.208</ele>
        <time>2019-06-15T16:40:11Z</time>
      </trkpt>
      <trkpt lat="43.281938" lon="-2.293279">
        <ele>97.198</ele>
        <time>2019-06-15T16:40:12Z</time>
      </trkpt>
      <trkpt lat="43.282033" lon="-2.293393">
        <ele>97.532</ele>
        <time>2019-06-15T16:40:13Z</time>
      </trkpt>
      <trkpt lat="43.282006" lon="-2.293569">
        <ele>96.831</ele>
        <time>2019-06-15T16:40:14Z</time>
      </trkpt>
      <trkpt lat="43.282022" lon="-2.293709">
        <ele>97.880</ele>
        <time>2019-06-15T16:40:15Z</time>
      </trkpt>
      <trkpt lat="43.281979" lon="-2.293860">
        <ele>99.039</ele>
        <time>2019-06-15T16:40:16Z</time>
      </trkpt>
      <trkpt lat="43.281948" lon="-2.294009">
        <ele>100.710</ele>
        <time>2019-06-15T16:40:17Z</time>
      </trkpt>
      <trkpt lat="43.281884" lon="-2.294116">
        <ele>101.019</ele>
        <time>2019-06-15T16:40:18Z</time>
      </trkpt>
      <trkpt lat="43.281811" lon="-2.294239">
        <ele>103.373</ele>
        <time>2019-06-15T16:40:19Z</time>
      </trkpt>
      <trkpt lat="43.281678" lon="-2.294375">
        <ele>105.739</ele>
        <time>2019-06-15T16:40:20Z</time>
      </trkpt>
      <trkpt lat="43.281566" lon="-2.294494">
        <ele>107.001</ele>
        <time>2019-06-15T16:40:21Z</time>
      </trkpt>
      <trkpt lat="43.281489" lon="-2.294672">
        <ele>109.621</ele>
        <time>2019-06-15T16:40:22Z</time>
      </trkpt>
      <trkpt lat="43.281405" lon="-2.294849">
        <ele>110.408</ele>
        <time>2019-06-15T16:40:23Z</time>
      </trkpt>
      <trkpt lat="43.281344" lon="-2.295051">
        <ele>111.086</ele>
        <time>2019-06-15T16:40:24Z</time>
      </trkpt>
      <trkpt lat="43.281279" lon="-2.295258">
        <ele>108.850</ele>
        <time>2019-06-15T16:40:25Z</time>
      </trkpt>
      <trkpt lat="43.281234" lon="-2.295482">
        <ele>110.219</ele>
        <time>2019-06-15T16:40:26Z</time>
      </trkpt>
      <trkpt lat="43.281177" lon="-2.295691">
        <ele>111.718</ele>
        <time>2019-06-15T16:40:27Z</time>
      </trkpt>
      <trkpt lat="43.281115" lon="-2.295895">
        <ele>111.297</ele>
        <time>2019-06-15T16:40:28Z</time>
      </trkpt>
      <trkpt lat="43.281055" lon="-2.296090">
        <ele>110.128</ele>
        <time>2019-06-15T16:40:29Z</time>
      </trkpt>
      <trkpt lat="43.281001" lon="-2.296288">
        <ele>113.567</ele>
        <time>2019-06-15T16:40:30Z</time>
      </trkpt>
      <trkpt lat="43.280946" lon="-2.296477">
        <ele>115.711</ele>
        <time>2019-06-15T16:40:31Z</time>
      </trkpt>
      <trkpt lat="43.280897" lon="-2.296626">
        <ele>116.275</ele>
        <time>2019-06-15T16:40:32Z</time>
      </trkpt>
      <trkpt lat="43.280817" lon="-2.296780">
        <ele>114.028</ele>
        <time>2019-06-15T16:40:33Z</time>
      </trkpt>
      <trkpt lat="43.280742" lon="-2.296938">
        <ele>113.620</ele>
        <time>2019-06-15T16:40:34Z</time>
      </trkpt>
      <trkpt lat="43.280612" lon="-2.297045">
        <ele>112.908</ele>
        <time>2019-06-15T16:40:35Z</time>
      </trkpt>
      <trkpt lat="43.280502" lon="-2.297166">
        <ele>113.680</ele>
        <time>2019-06-15T16:40:36Z</time>
      </trkpt>
      <trkpt lat="43.280322" lon="-2.297148">
        <ele>113.844</ele>
        <time>2019-06-15T16:40:37Z</time>
      </trkpt>
      <trkpt lat="43.280192" lon="-2.297181">
        <ele>115.083</ele>
        <time>2019-06-15T16:40:38Z</time>
      </trkpt>
      <trkpt lat="43.280076" lon="-2.297247">
        <ele>116.952</ele>
        <time>2019-06-15T16:40:39Z</time>
      </trkpt>
      <trkpt lat="43.279950" lon="-2.297327">
        <ele>118.811</ele>
        <time>2019-06-15T16:40:40Z</time>
      </trkpt>
      <trkpt lat="43.279820" lon="-2.297409">
        <ele>118.412</ele>
        <time>2019-06-15T16:40:41Z</time>
      </trkpt>
      <trkpt lat="43.279706" lon="-2.297496">
        <ele>117.541</ele>
        <time>2019-06-15T16:40:42Z</time>
      </trkpt>
      <trkpt lat="43.279604" lon="-2.297704">
        <ele>119.755</ele>
        <time>2019-06-15T16:40:43Z</time>
      </trkpt>
      <trkpt lat="43.279506" lon="-2.297901">
        <ele>120.729</ele>
        <time>2019-06-15T16:40:44Z</time>
      </trkpt>
      <trkpt lat="43.279425" lon="-2.298051">
        <ele>121.200</ele>
        <time>2019-06-15T16:40:45Z</time>
      </trkpt>
      <trkpt lat="43.279337" lon="-2.298227">
        <ele>122.320</ele>
        <time>2019-06-15T16:40:46Z</time>
      </trkpt>
      <trkpt lat="43.279249" lon="-2.298400">
        <ele>122.508</ele>
        <time>2019-06-15T16:40:47Z</time>
      </trkpt>
      <trkpt lat="43.279191" lon="-2.298595">
        <ele>122.015</ele>
        <time>2019-06-15T16:40:48Z</time>
      </trkpt>
      <trkpt lat="43.279136" lon="-2.298816">
        <ele>122.479</ele>
        <time>2019-06-15T16:40:49Z</time>
      </trkpt>
      <trkpt lat="43.279073" lon="-2.299035">
        <ele>125.258</ele>
        <time>2019-06-15T16:40:50Z</time>
      </trkpt>
      <trkpt lat="43.279040" lon="-2.299329">
        <ele>128.017</ele>
        <time>2019-06-15T16:40:51Z</time>
      </trkpt>
      <trkpt lat="43.279010" lon="-2.299634">
        <ele>132.196</ele>
        <time>2019-06-15T16:40:52Z</time>
      </trkpt>
      <trkpt lat="43.279207" lon="-2.299815">
        <ele>122.757</ele>
        <time>2019-06-15T16:40:53Z</time>
      </trkpt>
      <trkpt lat="43.279261" lon="-2.300068">
        <ele>124.166</ele>
        <time>2019-06-15T16:40:54Z</time>
      </trkpt>
      <trkpt lat="43.279309" lon="-2.300347">
        <ele>127.940</ele>
        <time>2019-06-15T16:40:55Z</time>
      </trkpt>
      <trkpt lat="43.279365" lon="-2.300618">
        <ele>129.844</ele>
        <time>2019-06-15T16:40:56Z</time>
      </trkpt>
      <trkpt lat="43.279436" lon="-2.300886">
        <ele>128.405</ele>
        <time>2019-06-15T16:40:57Z</time>
      </trkpt>
      <trkpt lat="43.279488" lon="-2.301154">
        <ele>130.515</ele>
        <time>2019-06-15T16:40:58Z</time>
      </trkpt>
      <trkpt lat="43.279588" lon="-2.301418">
        <ele>129.108</ele>
        <time>2019-06-15T16:40:59Z</time>
      </trkpt>
      <trkpt lat="43.279621" lon="-2.301689">
        <ele>130.927</ele>
        <time>2019-06-15T16:41:00Z</time>
      </trkpt>
      <trkpt lat="43.279663" lon="-2.301958">
        <ele>131.371</ele>
        <time>2019-06-15T16:41:01Z</time>
      </trkpt>
      <trkpt lat="43.279700" lon="-2.302230">
        <ele>133.470</ele>
        <time>2019-06-15T16:41:02Z</time>
      </trkpt>
      <trkpt lat="43.279781" lon="-2.302513">
        <ele>135.249</ele>
        <time>2019-06-15T16:41:03Z</time>
      </trkpt>
      <trkpt lat="43.279880" lon="-2.302755">
        <ele>134.088</ele>
        <time>2019-06-15T16:41:04Z</time>
      </trkpt>
      <trkpt lat="43.279974" lon="-2.303035">
        <ele>134.519</ele>
        <time>2019-06-15T16:41:05Z</time>
      </trkpt>
      <trkpt lat="43.280030" lon="-2.303322">
        <ele>136.968</ele>
        <time>2019-06-15T16:41:06Z</time>
      </trkpt>
      <trkpt lat="43.280116" lon="-2.303587">
        <ele>139.912</ele>
        <time>2019-06-15T16:41:07Z</time>
      </trkpt>
      <trkpt lat="43.280250" lon="-2.303845">
        <ele>138.099</ele>
        <time>2019-06-15T16:41:08Z</time>
      </trkpt>
      <trkpt lat="43.280327" lon="-2.304122">
        <ele>138.707</ele>
        <time>2019-06-15T16:41:09Z</time>
      </trkpt>
      <trkpt lat="43.280426" lon="-2.304372">
        <ele>141.527</ele>
        <time>2019-06-15T16:41:10Z</time>
      </trkpt>
      <trkpt lat="43.280516" lon="-2.304614">
        <ele>141.208</ele>
        <time>2019-06-15T16:41:11Z</time>
      </trkpt>
      <trkpt lat="43.280604" lon="-2.304862">
        <ele>141.052</ele>
        <time>2019-06-15T16:41:12Z</time>
      </trkpt>
      <trkpt lat="43.280681" lon="-2.305108">
        <ele>142.436</ele>
        <time>2019-06-15T16:41:13Z</time>
      </trkpt>
      <trkpt lat="43.280757" lon="-2.305342">
        <ele>143.965</ele>
        <time>2019-06-15T16:41:14Z</time>
      </trkpt>
      <trkpt lat="43.280842" lon="-2.305587">
        <ele>144.124</ele>
        <time>2019-06-15T16:41:15Z</time>
      </trkpt>
      <trkpt lat="43.280929" lon="-2.305826">
        <ele>143.583</ele>
        <time>2019-06-15T16:41:16Z</time>
      </trkpt>
      <trkpt lat="43.281029" lon="-2.306057">
        <ele>141.254</ele>
        <time>2019-06-15T16:41:17Z</time>
      </trkpt>
      <trkpt lat="43.281124" lon="-2.306294">
        <ele>141.743</ele>
        <time>2019-06-15T16:41:18Z</time>
      </trkpt>
      <trkpt lat="43.281213" lon="-2.306539">
        <ele>141.237</ele>
        <time>2019-06-15T16:41:19Z</time>
      </trkpt>
      <trkpt lat="43.281306" lon="-2.306775">
        <ele>141.351</ele>
        <time>2019-06-15T16:41:20Z</time>
      </trkpt>
      <trkpt lat="43.281384" lon="-2.306997">
        <ele>142.901</ele>
        <time>2019-06-15T16:41:21Z</time>
      </trkpt>
      <trkpt lat="43.281476" lon="-2.307205">
        <ele>142.811</ele>
        <time>2019-06-15T16:41:22Z</time>
      </trkpt>
      <trkpt lat="43.281570" lon="-2.307427">
        <ele>145.508</ele>
        <time>2019-06-15T16:41:23Z</time>
      </trkpt>
      <trkpt lat="43.281704" lon="-2.307625">
        <ele>145.388</ele>
        <time>2019-06-15T16:41:24Z</time>
      </trkpt>
      <trkpt lat="43.281830" lon="-2.307825">
        <ele>147.062</ele>
        <time>2019-06-15T16:41:25Z</time>
      </trkpt>
      <trkpt lat="43.282012" lon="-2.307965">
        <ele>145.341</ele>
        <time>2019-06-15T16:41:26Z</time>
      </trkpt>
      <trkpt lat="43.282185" lon="-2.308117">
        <ele>145.990</ele>
        <time>2019-06-15T16:41:27Z</time>
      </trkpt>
      <trkpt lat="43.282357" lon="-2.308273">
        <ele>145.759</ele>
        <time>2019-06-15T16:41:28Z</time>
      </trkpt>
      <trkpt lat="43.282536" lon="-2.308429">
        <ele>146.140</ele>
        <time>2019-06-15T16:41:29Z</time>
      </trkpt>
      <trkpt lat="43.282715" lon="-2.308586">
        <ele>146.999</ele>
        <time>2019-06-15T16:41:30Z</time>
      </trkpt>
      <trkpt lat="43.282884" lon="-2.308739">
        <ele>148.213</ele>
        <time>2019-06-15T16:41:31Z</time>
      </trkpt>
      <trkpt lat="43.283052" lon="-2.308874">
        <ele>148.353</ele>
        <time>2019-06-15T16:41:32Z</time>
      </trkpt>
      <trkpt lat="43.283214" lon="-2.309010">
        <ele>150.004</ele>
        <time>2019-06-15T16:41:33Z</time>
      </trkpt>
      <trkpt lat="43.283372" lon="-2.309136">
        <ele>150.314</ele>
        <time>2019-06-15T16:41:34Z</time>
      </trkpt>
      <trkpt lat="43.283515" lon="-2.309257">
        <ele>152.908</ele>
        <time>2019-06-15T16:41:35Z</time>
      </trkpt>
      <trkpt lat="43.283664" lon="-2.309370">
        <ele>152.078</ele>
        <time>2019-06-15T16:41:36Z</time>
      </trkpt>
      <trkpt lat="43.283793" lon="-2.309496">
        <ele>152.272</ele>
        <time>2019-06-15T16:41:37Z</time>
      </trkpt>
      <trkpt lat="43.283920" lon="-2.309631">
        <ele>150.311</ele>
        <time>2019-06-15T16:41:38Z</time>
      </trkpt>
      <trkpt lat="43.284020" lon="-2.309792">
        <ele>149.830</ele>
        <time>2019-06-15T16:41:39Z</time>
      </trkpt>
      <trkpt lat="43.284108" lon="-2.309968">
        <ele>147.369</ele>
        <time>2019-06-15T16:41:40Z</time>
      </trkpt>
      <trkpt lat="43.284127" lon="-2.310183">
        <ele>147.070</ele>
        <time>2019-06-15T16:41:41Z</time>
      </trkpt>
      <trkpt lat="43.284185" lon="-2.310368">
        <ele>144.929</ele>
        <time>2019-06-15T16:41:42Z</time>
      </trkpt>
      <trkpt lat="43.284241" lon="-2.310568">
        <ele>143.973</ele>
        <time>2019-06-15T16:41:43Z</time>
      </trkpt>
      <trkpt lat="43.284289" lon="-2.310755">
        <ele>143.431</ele>
        <time>2019-06-15T16:41:44Z</time>
      </trkpt>
      <trkpt lat="43.284321" lon="-2.310945">
        <ele>142.961</ele>
        <time>2019-06-15T16:41:45Z</time>
      </trkpt>
      <trkpt lat="43.284317" lon="-2.311117">
        <ele>143.407</ele>
        <time>2019-06-15T16:41:46Z</time>
      </trkpt>
      <trkpt lat="43.284275" lon="-2.311283">
        <ele>144.508</ele>
        <time>2019-06-15T16:41:47Z</time>
      </trkpt>
      <trkpt lat="43.284253" lon="-2.311464">
        <ele>144.096</ele>
        <time>2019-06-15T16:41:48Z</time>
      </trkpt>
      <trkpt lat="43.284161" lon="-2.311635">
        <ele>145.660</ele>
        <time>2019-06-15T16:41:49Z</time>
      </trkpt>
      <trkpt lat="43.284072" lon="-2.311790">
        <ele>144.659</ele>
        <time>2019-06-15T16:41:50Z</time>
      </trkpt>
      <trkpt lat="43.283961" lon="-2.311899">
        <ele>144.518</ele>
        <time>2019-06-15T16:41:51Z</time>
      </trkpt>
      <trkpt lat="43.283833" lon="-2.311987">
        <ele>143.657</ele>
        <time>2019-06-15T16:41:52Z</time>
      </trkpt>
      <trkpt lat="43.283681" lon="-2.312029">
        <ele>142.298</ele>
        <time>2019-06-15T16:41:53Z</time>
      </trkpt>
      <trkpt lat="43.283527" lon="-2.312031">
        <ele>141.447</ele>
        <time>2019-06-15T16:41:54Z</time>
      </trkpt>
      <trkpt lat="43.283361" lon="-2.311982">
        <ele>141.751</ele>
        <time>2019-06-15T16:41:55Z</time>
      </trkpt>
      <trkpt lat="43.283186" lon="-2.311951">
        <ele>141.167</ele>
        <time>2019-06-15T16:41:56Z</time>
      </trkpt>
      <trkpt lat="43.283005" lon="-2.311873">
        <ele>141.381</ele>
        <time>2019-06-15T16:41:57Z</time>
      </trkpt>
      <trkpt lat="43.282838" lon="-2.311765">
        <ele>141.019</ele>
        <time>2019-06-15T16:41:58Z</time>
      </trkpt>
      <trkpt lat="43.282666" lon="-2.311669">
        <ele>139.308</ele>
        <time>2019-06-15T16:41:59Z</time>
      </trkpt>
      <trkpt lat="43.282494" lon="-2.311564">
        <ele>138.079</ele>
        <time>2019-06-15T16:42:00Z</time>
      </trkpt>
      <trkpt lat="43.282328" lon="-2.311448">
        <ele>139.963</ele>
        <time>2019-06-15T16:42:01Z</time>
      </trkpt>
      <trkpt lat="43.282155" lon="-2.311338">
        <ele>141.922</ele>
        <time>2019-06-15T16:42:02Z</time>
      </trkpt>
      <trkpt lat="43.281991" lon="-2.311231">
        <ele>142.911</ele>
        <time>2019-06-15T16:42:03Z</time>
      </trkpt>
      <trkpt lat="43.281816" lon="-2.311125">
        <ele>142.810</ele>
        <time>2019-06-15T16:42:04Z</time>
      </trkpt>
      <trkpt lat="43.281655" lon="-2.311022">
        <ele>142.241</ele>
        <time>2019-06-15T16:42:05Z</time>
      </trkpt>
      <trkpt lat="43.281505" lon="-2.310924">
        <ele>139.710</ele>
        <time>2019-06-15T16:42:06Z</time>
      </trkpt>
      <trkpt lat="43.281347" lon="-2.310814">
        <ele>139.334</ele>
        <time>2019-06-15T16:42:07Z</time>
      </trkpt>
      <trkpt lat="43.281208" lon="-2.310716">
        <ele>141.169</ele>
        <time>2019-06-15T16:42:08Z</time>
      </trkpt>
      <trkpt lat="43.281051" lon="-2.310625">
        <ele>142.204</ele>
        <time>2019-06-15T16:42:09Z</time>
      </trkpt>
      <trkpt lat="43.280902" lon="-2.310535">
        <ele>142.624</ele>
        <time>2019-06-15T16:42:10Z</time>
      </trkpt>
      <trkpt lat="43.280757" lon="-2.310444">
        <ele>142.808</ele>
        <time>2019-06-15T16:42:11Z</time>
      </trkpt>
      <trkpt lat="43.280610" lon="-2.310358">
        <ele>141.849</ele>
        <time>2019-06-15T16:42:12Z</time>
      </trkpt>
      <trkpt lat="43.280478" lon="-2.310258">
        <ele>140.763</ele>
        <time>2019-06-15T16:42:13Z</time>
      </trkpt>
      <trkpt lat="43.280343" lon="-2.310173">
        <ele>139.682</ele>
        <time>2019-06-15T16:42:14Z</time>
      </trkpt>
      <trkpt lat="43.280199" lon="-2.310114">
        <ele>139.931</ele>
        <time>2019-06-15T16:42:15Z</time>
      </trkpt>
      <trkpt lat="43.280068" lon="-2.310087">
        <ele>140.880</ele>
        <time>2019-06-15T16:42:16Z</time>
      </trkpt>
      <trkpt lat="43.279920" lon="-2.310081">
        <ele>141.241</ele>
        <time>2019-06-15T16:42:17Z</time>
      </trkpt>
      <trkpt lat="43.279781" lon="-2.310108">
        <ele>141.110</ele>
        <time>2019-06-15T16:42:18Z</time>
      </trkpt>
      <trkpt lat="43.279646" lon="-2.310165">
        <ele>140.774</ele>
        <time>2019-06-15T16:42:19Z</time>
      </trkpt>
      <trkpt lat="43.279536" lon="-2.310200">
        <ele>140.429</ele>
        <time>2019-06-15T16:42:20Z</time>
      </trkpt>
      <trkpt lat="43.279422" lon="-2.310311">
        <ele>139.900</ele>
        <time>2019-06-15T16:42:21Z</time>
      </trkpt>
      <trkpt lat="43.279317" lon="-2.310449">
        <ele>139.920</ele>
        <time>2019-06-15T16:42:22Z</time>
      </trkpt>
      <trkpt lat="43.279207" lon="-2.310584">
        <ele>140.908</ele>
        <time>2019-06-15T16:42:23Z</time>
      </trkpt>
      <trkpt lat="43.279173" lon="-2.310730">
        <ele>141.075</ele>
        <time>2019-06-15T16:42:24Z</time>
      </trkpt>
      <trkpt lat="43.279138" lon="-2.310960">
        <ele>140.419</ele>
        <time>2019-06-15T16:42:25Z</time>
      </trkpt>
      <trkpt lat="43.279099" lon="-2.311173">
        <ele>139.968</ele>
        <time>2019-06-15T16:42:26Z</time>
      </trkpt>
      <trkpt lat="43.279058" lon="-2.311380">
        <ele>140.247</ele>
        <time>2019-06-15T16:42:27Z</time>
      </trkpt>
      <trkpt lat="43.279021" lon="-2.311600">
        <ele>137.876</ele>
        <time>2019-06-15T16:42:28Z</time>
      </trkpt>
      <trkpt lat="43.278985" lon="-2.311815">
        <ele>131.967</ele>
        <time>2019-06-15T16:42:29Z</time>
      </trkpt>
      <trkpt lat="43.278991" lon="-2.312029">
        <ele>126.356</ele>
        <time>2019-06-15T16:42:30Z</time>
      </trkpt>
      <trkpt lat="43.279009" lon="-2.312266">
        <ele>124.090</ele>
        <time>2019-06-15T16:42:31Z</time>
      </trkpt>
      <trkpt lat="43.279035" lon="-2.312481">
        <ele>130.597</ele>
        <time>2019-06-15T16:42:32Z</time>
      </trkpt>
      <trkpt lat="43.279069" lon="-2.312690">
        <ele>137.923</ele>
        <time>2019-06-15T16:42:33Z</time>
      </trkpt>
      <trkpt lat="43.279130" lon="-2.312902">
        <ele>142.725</ele>
        <time>2019-06-15T16:42:34Z</time>
      </trkpt>
      <trkpt lat="43.279210" lon="-2.313132">
        <ele>144.708</ele>
        <time>2019-06-15T16:42:35Z</time>
      </trkpt>
      <trkpt lat="43.279363" lon="-2.313317">
        <ele>144.672</ele>
        <time>2019-06-15T16:42:36Z</time>
      </trkpt>
      <trkpt lat="43.279515" lon="-2.313518">
        <ele>146.476</ele>
        <time>2019-06-15T16:42:37Z</time>
      </trkpt>
      <trkpt lat="43.279640" lon="-2.313752">
        <ele>149.985</ele>
        <time>2019-06-15T16:42:38Z</time>
      </trkpt>
      <trkpt lat="43.279792" lon="-2.313908">
        <ele>148.194</ele>
        <time>2019-06-15T16:42:39Z</time>
      </trkpt>
      <trkpt lat="43.279919" lon="-2.314123">
        <ele>148.713</ele>
        <time>2019-06-15T16:42:40Z</time>
      </trkpt>
      <trkpt lat="43.280045" lon="-2.314307">
        <ele>148.024</ele>
        <time>2019-06-15T16:42:41Z</time>
      </trkpt>
      <trkpt lat="43.280191" lon="-2.314497">
        <ele>147.963</ele>
        <time>2019-06-15T16:42:42Z</time>
      </trkpt>
      <trkpt lat="43.280310" lon="-2.314665">
        <ele>147.167</ele>
        <time>2019-06-15T16:42:43Z</time>
      </trkpt>
      <trkpt lat="43.280404" lon="-2.314858">
        <ele>148.015</ele>
        <time>2019-06-15T16:42:44Z</time>
      </trkpt>
      <trkpt lat="43.280519" lon="-2.315028">
        <ele>147.665</ele>
        <time>2019-06-15T16:42:45Z</time>
      </trkpt>
      <trkpt lat="43.280618" lon="-2.315199">
        <ele>148.011</ele>
        <time>2019-06-15T16:42:46Z</time>
      </trkpt>
      <trkpt lat="43.280700" lon="-2.315360">
        <ele>148.208</ele>
        <time>2019-06-15T16:42:47Z</time>
      </trkpt>
      <trkpt lat="43.280797" lon="-2.315516">
        <ele>147.724</ele>
        <time>2019-06-15T16:42:48Z</time>
      </trkpt>
      <trkpt lat="43.280868" lon="-2.315673">
        <ele>148.898</ele>
        <time>2019-06-15T16:42:49Z</time>
      </trkpt>
      <trkpt lat="43.280956" lon="-2.315845">
        <ele>148.387</ele>
        <time>2019-06-15T16:42:50Z</time>
      </trkpt>
      <trkpt lat="43.281021" lon="-2.316047">
        <ele>148.046</ele>
        <time>2019-06-15T16:42:51Z</time>
      </trkpt>
      <trkpt lat="43.281056" lon="-2.316251">
        <ele>149.115</ele>
        <time>2019-06-15T16:42:52Z</time>
      </trkpt>
      <trkpt lat="43.281066" lon="-2.316461">
        <ele>150.976</ele>
        <time>2019-06-15T16:42:53Z</time>
      </trkpt>
      <trkpt lat="43.281085" lon="-2.316669">
        <ele>150.875</ele>
        <time>2019-06-15T16:42:54Z</time>
      </trkpt>
      <trkpt lat="43.281111" lon="-2.316848">
        <ele>150.329</ele>
        <time>2019-06-15T16:42:55Z</time>
      </trkpt>
      <trkpt lat="43.281132" lon="-2.317037">
        <ele>150.233</ele>
        <time>2019-06-15T16:42:56Z</time>
      </trkpt>
      <trkpt lat="43.281160" lon="-2.317229">
        <ele>148.623</ele>
        <time>2019-06-15T16:42:57Z</time>
      </trkpt>
      <trkpt lat="43.281135" lon="-2.317387">
        <ele>149.915</ele>
        <time>2019-06-15T16:42:58Z</time>
      </trkpt>
      <trkpt lat="43.281091" lon="-2.317562">
        <ele>150.808</ele>
        <time>2019-06-15T16:42:59Z</time>
      </trkpt>
      <trkpt lat="43.281067" lon="-2.317772">
        <ele>148.056</ele>
        <time>2019-06-15T16:43:00Z</time>
      </trkpt>
      <trkpt lat="43.280971" lon="-2.317991">
        <ele>147.580</ele>
        <time>2019-06-15T16:43:01Z</time>
      </trkpt>
      <trkpt lat="43.280845" lon="-2.318208">
        <ele>149.539</ele>
        <time>2019-06-15T16:43:02Z</time>
      </trkpt>
      <trkpt lat="43.280703" lon="-2.318368">
        <ele>152.368</ele>
        <time>2019-06-15T16:43:03Z</time>
      </trkpt>
      <trkpt lat="43.280579" lon="-2.318544">
        <ele>153.797</ele>
        <time>2019-06-15T16:43:04Z</time>
      </trkpt>
      <trkpt lat="43.280459" lon="-2.318742">
        <ele>153.598</ele>
        <time>2019-06-15T16:43:05Z</time>
      </trkpt>
      <trkpt lat="43.280360" lon="-2.318945">
        <ele>153.937</ele>
        <time>2019-06-15T16:43:06Z</time>
      </trkpt>
      <trkpt lat="43.280275" lon="-2.319158">
        <ele>155.281</ele>
        <time>2019-06-15T16:43:07Z</time>
      </trkpt>
      <trkpt lat="43.280238" lon="-2.319393">
        <ele>155.984</ele>
        <time>2019-06-15T16:43:08Z</time>
      </trkpt>
      <trkpt lat="43.280186" lon="-2.319606">
        <ele>155.807</ele>
        <time>2019-06-15T16:43:09Z</time>
      </trkpt>
      <trkpt lat="43.280122" lon="-2.319821">
        <ele>156.417</ele>
        <time>2019-06-15T16:43:10Z</time>
      </trkpt>
      <trkpt lat="43.280043" lon="-2.320031">
        <ele>157.808</ele>
        <time>2019-06-15T16:43:11Z</time>
      </trkpt>
      <trkpt lat="43.279964" lon="-2.320222">
        <ele>158.981</ele>
        <time>2019-06-15T16:43:12Z</time>
      </trkpt>
      <trkpt lat="43.279851" lon="-2.320388">
        <ele>160.355</ele>
        <time>2019-06-15T16:43:13Z</time>
      </trkpt>
      <trkpt lat="43.279732" lon="-2.320534">
        <ele>162.174</ele>
        <time>2019-06-15T16:43:14Z</time>
      </trkpt>
      <trkpt lat="43.279618" lon="-2.320670">
        <ele>163.413</ele>
        <time>2019-06-15T16:43:15Z</time>
      </trkpt>
      <trkpt lat="43.279501" lon="-2.320805">
        <ele>164.422</ele>
        <time>2019-06-15T16:43:16Z</time>
      </trkpt>
      <trkpt lat="43.279385" lon="-2.320936">
        <ele>165.163</ele>
        <time>2019-06-15T16:43:17Z</time>
      </trkpt>
      <trkpt lat="43.279274" lon="-2.321068">
        <ele>165.782</ele>
        <time>2019-06-15T16:43:18Z</time>
      </trkpt>
      <trkpt lat="43.279180" lon="-2.321241">
        <ele>167.056</ele>
        <time>2019-06-15T16:43:19Z</time>
      </trkpt>
      <trkpt lat="43.279103" lon="-2.321430">
        <ele>168.227</ele>
        <time>2019-06-15T16:43:20Z</time>
      </trkpt>
      <trkpt lat="43.279024" lon="-2.321651">
        <ele>169.468</ele>
        <time>2019-06-15T16:43:21Z</time>
      </trkpt>
      <trkpt lat="43.278952" lon="-2.321837">
        <ele>169.914</ele>
        <time>2019-06-15T16:43:22Z</time>
      </trkpt>
      <trkpt lat="43.278891" lon="-2.322039">
        <ele>169.908</ele>
        <time>2019-06-15T16:43:23Z</time>
      </trkpt>
      <trkpt lat="43.278832" lon="-2.322227">
        <ele>170.215</ele>
        <time>2019-06-15T16:43:24Z</time>
      </trkpt>
      <trkpt lat="43.278751" lon="-2.322411">
        <ele>170.759</ele>
        <time>2019-06-15T16:43:25Z</time>
      </trkpt>
      <trkpt lat="43.278671" lon="-2.322590">
        <ele>171.828</ele>
        <time>2019-06-15T16:43:26Z</time>
      </trkpt>
      <trkpt lat="43.278542" lon="-2.322736">
        <ele>174.157</ele>
        <time>2019-06-15T16:43:27Z</time>
      </trkpt>
      <trkpt lat="43.278452" lon="-2.322855">
        <ele>173.366</ele>
        <time>2019-06-15T16:43:28Z</time>
      </trkpt>
      <trkpt lat="43.278351" lon="-2.323012">
        <ele>173.857</ele>
        <time>2019-06-15T16:43:29Z</time>
      </trkpt>
      <trkpt lat="43.278250" lon="-2.323167">
        <ele>173.946</ele>
        <time>2019-06-15T16:43:30Z</time>
      </trkpt>
      <trkpt lat="43.278154" lon="-2.323309">
        <ele>175.180</ele>
        <time>2019-06-15T16:43:31Z</time>
      </trkpt>
      <trkpt lat="43.278058" lon="-2.323434">
        <ele>178.234</ele>
        <time>2019-06-15T16:43:32Z</time>
      </trkpt>
      <trkpt lat="43.277926" lon="-2.323612">
        <ele>180.755</ele>
        <time>2019-06-15T16:43:33Z</time>
      </trkpt>
      <trkpt lat="43.277790" lon="-2.323760">
        <ele>181.510</ele>
        <time>2019-06-15T16:43:34Z</time>
      </trkpt>
      <trkpt lat="43.277652" lon="-2.323892">
        <ele>182.108</ele>
        <time>2019-06-15T16:43:35Z</time>
      </trkpt>
      <trkpt lat="43.277530" lon="-2.323996">
        <ele>182.236</ele>
        <time>2019-06-15T16:43:36Z</time>
      </trkpt>
      <trkpt lat="43.277408" lon="-2.324114">
        <ele>182.130</ele>
        <time>2019-06-15T16:43:37Z</time>
      </trkpt>
      <trkpt lat="43.277284" lon="-2.324217">
        <ele>183.139</ele>
        <time>2019-06-15T16:43:38Z</time>
      </trkpt>
      <trkpt lat="43.277176" lon="-2.324286">
        <ele>184.588</ele>
        <time>2019-06-15T16:43:39Z</time>
      </trkpt>
      <trkpt lat="43.277057" lon="-2.324366">
        <ele>185.437</ele>
        <time>2019-06-15T16:43:40Z</time>
      </trkpt>
      <trkpt lat="43.276929" lon="-2.324436">
        <ele>186.418</ele>
        <time>2019-06-15T16:43:41Z</time>
      </trkpt>
      <trkpt lat="43.276805" lon="-2.324506">
        <ele>185.697</ele>
        <time>2019-06-15T16:43:42Z</time>
      </trkpt>
      <trkpt lat="43.276641" lon="-2.324496">
        <ele>187.641</ele>
        <time>2019-06-15T16:43:43Z</time>
      </trkpt>
      <trkpt lat="43.276494" lon="-2.324554">
        <ele>187.355</ele>
        <time>2019-06-15T16:43:44Z</time>
      </trkpt>
      <trkpt lat="43.276352" lon="-2.324592">
        <ele>187.507</ele>
        <time>2019-06-15T16:43:45Z</time>
      </trkpt>
      <trkpt lat="43.276205" lon="-2.324598">
        <ele>188.617</ele>
        <time>2019-06-15T16:43:46Z</time>
      </trkpt>
      <trkpt lat="43.276088" lon="-2.324617">
        <ele>189.008</ele>
        <time>2019-06-15T16:43:47Z</time>
      </trkpt>
      <trkpt lat="43.275953" lon="-2.324629">
        <ele>189.998</ele>
        <time>2019-06-15T16:43:48Z</time>
      </trkpt>
      <trkpt lat="43.275826" lon="-2.324664">
        <ele>190.082</ele>
        <time>2019-06-15T16:43:49Z</time>
      </trkpt>
      <trkpt lat="43.275694" lon="-2.324696">
        <ele>191.391</ele>
        <time>2019-06-15T16:43:50Z</time>
      </trkpt>
      <trkpt lat="43.275579" lon="-2.324710">
        <ele>192.980</ele>
        <time>2019-06-15T16:43:51Z</time>
      </trkpt>
      <trkpt lat="43.275458" lon="-2.324738">
        <ele>193.469</ele>
        <time>2019-06-15T16:43:52Z</time>
      </trkpt>
      <trkpt lat="43.275338" lon="-2.324759">
        <ele>194.090</ele>
        <time>2019-06-15T16:43:53Z</time>
      </trkpt>
      <trkpt lat="43.275208" lon="-2.324770">
        <ele>195.149</ele>
        <time>2019-06-15T16:43:54Z</time>
      </trkpt>
      <trkpt lat="43.275088" lon="-2.324826">
        <ele>194.893</ele>
        <time>2019-06-15T16:43:55Z</time>
      </trkpt>
      <trkpt lat="43.274986" lon="-2.324884">
        <ele>194.695</ele>
        <time>2019-06-15T16:43:56Z</time>
      </trkpt>
      <trkpt lat="43.274881" lon="-2.324945">
        <ele>195.649</ele>
        <time>2019-06-15T16:43:57Z</time>
      </trkpt>
      <trkpt lat="43.274805" lon="-2.325048">
        <ele>196.523</ele>
        <time>2019-06-15T16:43:58Z</time>
      </trkpt>
      <trkpt lat="43.274785" lon="-2.325276">
        <ele>196.508</ele>
        <time>2019-06-15T16:43:59Z</time>
      </trkpt>
      <trkpt lat="43.274748" lon="-2.325460">
        <ele>199.452</ele>
        <time>2019-06-15T16:44:00Z</time>
      </trkpt>
      <trkpt lat="43.274722" lon="-2.325638">
        <ele>201.996</ele>
        <time>2019-06-15T16:44:01Z</time>
      </trkpt>
      <trkpt lat="43.274751" lon="-2.325784">
        <ele>202.615</ele>
        <time>2019-06-15T16:44:02Z</time>
      </trkpt>
      <trkpt lat="43.274794" lon="-2.325937">
        <ele>203.754</ele>
        <time>2019-06-15T16:44:03Z</time>
      </trkpt>
      <trkpt lat="43.274828" lon="-2.326081">
        <ele>205.543</ele>
        <time>2019-06-15T16:44:04Z</time>
      </trkpt>
      <trkpt lat="43.274955" lon="-2.326169">
        <ele>204.724</ele>
        <time>2019-06-15T16:44:05Z</time>
      </trkpt>
      <trkpt lat="43.275121" lon="-2.326258">
        <ele>206.433</ele>
        <time>2019-06-15T16:44:06Z</time>
      </trkpt>
      <trkpt lat="43.275231" lon="-2.326333">
        <ele>210.067</ele>
        <time>2019-06-15T16:44:07Z</time>
      </trkpt>
      <trkpt lat="43.275416" lon="-2.326218">
        <ele>207.445</ele>
        <time>2019-06-15T16:44:08Z</time>
      </trkpt>
      <trkpt lat="43.275557" lon="-2.326188">
        <ele>208.147</ele>
        <time>2019-06-15T16:44:09Z</time>
      </trkpt>
      <trkpt lat="43.275698" lon="-2.326163">
        <ele>207.811</ele>
        <time>2019-06-15T16:44:10Z</time>
      </trkpt>
      <trkpt lat="43.275844" lon="-2.326146">
        <ele>208.008</ele>
        <time>2019-06-15T16:44:11Z</time>
      </trkpt>
      <trkpt lat="43.275962" lon="-2.326190">
        <ele>208.597</ele>
        <time>2019-06-15T16:44:12Z</time>
      </trkpt>
      <trkpt lat="43.276113" lon="-2.326261">
        <ele>209.211</ele>
        <time>2019-06-15T16:44:13Z</time>
      </trkpt>
      <trkpt lat="43.276263" lon="-2.326362">
        <ele>209.940</ele>
        <time>2019-06-15T16:44:14Z</time>
      </trkpt>
      <trkpt lat="43.276421" lon="-2.326464">
        <ele>211.079</ele>
        <time>2019-06-15T16:44:15Z</time>
      </trkpt>
      <trkpt lat="43.276581" lon="-2.326581">
        <ele>211.738</ele>
        <time>2019-06-15T16:44:16Z</time>
      </trkpt>
      <trkpt lat="43.276754" lon="-2.326697">
        <ele>211.319</ele>
        <time>2019-06-15T16:44:17Z</time>
      </trkpt>
      <trkpt lat="43.276921" lon="-2.326800">
        <ele>211.258</ele>
        <time>2019-06-15T16:44:18Z</time>
      </trkpt>
      <trkpt lat="43.277089" lon="-2.326912">
        <ele>211.322</ele>
        <time>2019-06-15T16:44:19Z</time>
      </trkpt>
      <trkpt lat="43.277232" lon="-2.327027">
        <ele>212.253</ele>
        <time>2019-06-15T16:44:20Z</time>
      </trkpt>
      <trkpt lat="43.277406" lon="-2.327134">
        <ele>213.504</ele>
        <time>2019-06-15T16:44:21Z</time>
      </trkpt>
      <trkpt lat="43.277562" lon="-2.327236">
        <ele>214.314</ele>
        <time>2019-06-15T16:44:22Z</time>
      </trkpt>
      <trkpt lat="43.277710" lon="-2.327342">
        <ele>215.808</ele>
        <time>2019-06-15T16:44:23Z</time>
      </trkpt>
      <trkpt lat="43.277854" lon="-2.327450">
        <ele>216.278</ele>
        <time>2019-06-15T16:44:24Z</time>
      </trkpt>
      <trkpt lat="43.277969" lon="-2.327578">
        <ele>217.792</ele>
        <time>2019-06-15T16:44:25Z</time>
      </trkpt>
      <trkpt lat="43.278097" lon="-2.327715">
        <ele>217.231</ele>
        <time>2019-06-15T16:44:26Z</time>
      </trkpt>
      <trkpt lat="43.278211" lon="-2.327872">
        <ele>216.710</ele>
        <time>2019-06-15T16:44:27Z</time>
      </trkpt>
      <trkpt lat="43.278330" lon="-2.328037">
        <ele>215.879</ele>
        <time>2019-06-15T16:44:28Z</time>
      </trkpt>
      <trkpt lat="43.278411" lon="-2.328231">
        <ele>215.360</ele>
        <time>2019-06-15T16:44:29Z</time>
      </trkpt>
      <trkpt lat="43.278474" lon="-2.328432">
        <ele>214.599</ele>
        <time>2019-06-15T16:44:30Z</time>
      </trkpt>
      <trkpt lat="43.278525" lon="-2.328642">
        <ele>214.273</ele>
        <time>2019-06-15T16:44:31Z</time>
      </trkpt>
      <trkpt lat="43.278581" lon="-2.328828">
        <ele>217.743</ele>
        <time>2019-06-15T16:44:32Z</time>
      </trkpt>
      <trkpt lat="43.278636" lon="-2.328995">
        <ele>220.264</ele>
        <time>2019-06-15T16:44:33Z</time>
      </trkpt>
      <trkpt lat="43.278684" lon="-2.329160">
        <ele>221.910</ele>
        <time>2019-06-15T16:44:34Z</time>
      </trkpt>
      <trkpt lat="43.278721" lon="-2.329312">
        <ele>222.508</ele>
        <time>2019-06-15T16:44:35Z</time>
      </trkpt>
      <trkpt lat="43.278757" lon="-2.329463">
        <ele>223.047</ele>
        <time>2019-06-15T16:44:36Z</time>
      </trkpt>
      <trkpt lat="43.278784" lon="-2.329606">
        <ele>222.621</ele>
        <time>2019-06-15T16:44:37Z</time>
      </trkpt>
      <trkpt lat="43.278808" lon="-2.329738">
        <ele>222.210</ele>
        <time>2019-06-15T16:44:38Z</time>
      </trkpt>
      <trkpt lat="43.278820" lon="-2.329878">
        <ele>221.379</ele>
        <time>2019-06-15T16:44:39Z</time>
      </trkpt>
      <trkpt lat="43.278818" lon="-2.330023">
        <ele>220.388</ele>
        <time>2019-06-15T16:44:40Z</time>
      </trkpt>
      <trkpt lat="43.278801" lon="-2.330172">
        <ele>219.249</ele>
        <time>2019-06-15T16:44:41Z</time>
      </trkpt>
      <trkpt lat="43.278778" lon="-2.330311">
        <ele>218.458</ele>
        <time>2019-06-15T16:44:42Z</time>
      </trkpt>
      <trkpt lat="43.278748" lon="-2.330451">
        <ele>218.182</ele>
        <time>2019-06-15T16:44:43Z</time>
      </trkpt>
      <trkpt lat="43.278719" lon="-2.330557">
        <ele>218.121</ele>
        <time>2019-06-15T16:44:44Z</time>
      </trkpt>
      <trkpt lat="43.278696" lon="-2.330657">
        <ele>218.141</ele>
        <time>2019-06-15T16:44:45Z</time>
      </trkpt>
      <trkpt lat="43.278677" lon="-2.330744">
        <ele>218.105</ele>
        <time>2019-06-15T16:44:46Z</time>
      </trkpt>
      <trkpt lat="43.278652" lon="-2.330832">
        <ele>218.308</ele>
        <time>2019-06-15T16:44:47Z</time>
      </trkpt>
      <trkpt lat="43.278628" lon="-2.330928">
        <ele>218.465</ele>
        <time>2019-06-15T16:44:48Z</time>
      </trkpt>
      <trkpt lat="43.278603" lon="-2.331030">
        <ele>218.459</ele>
        <time>2019-06-15T16:44:49Z</time>
      </trkpt>
      <trkpt lat="43.278572" lon="-2.331130">
        <ele>218.248</ele>
        <time>2019-06-15T16:44:50Z</time>
      </trkpt>
      <trkpt lat="43.278537" lon="-2.331238">
        <ele>218.327</ele>
        <time>2019-06-15T16:44:51Z</time>
      </trkpt>
      <trkpt lat="43.278500" lon="-2.331340">
        <ele>218.686</ele>
        <time>2019-06-15T16:44:52Z</time>
      </trkpt>
      <trkpt lat="43.278461" lon="-2.331426">
        <ele>218.997</ele>
        <time>2019-06-15T16:44:53Z</time>
      </trkpt>
      <trkpt lat="43.278428" lon="-2.331504">
        <ele>218.846</ele>
        <time>2019-06-15T16:44:54Z</time>
      </trkpt>
      <trkpt lat="43.278409" lon="-2.331580">
        <ele>218.550</ele>
        <time>2019-06-15T16:44:55Z</time>
      </trkpt>
      <trkpt lat="43.278406" lon="-2.331658">
        <ele>218.016</ele>
        <time>2019-06-15T16:44:56Z</time>
      </trkpt>
      <trkpt lat="43.278407" lon="-2.331737">
        <ele>217.776</ele>
        <time>2019-06-15T16:44:57Z</time>
      </trkpt>
      <trkpt lat="43.278503" lon="-2.331845">
        <ele>215.913</ele>
        <time>2019-06-15T16:44:59Z</time>
      </trkpt>
      <trkpt lat="43.278553" lon="-2.331916">
        <ele>214.908</ele>
        <time>2019-06-15T16:45:00Z</time>
      </trkpt>
      <trkpt lat="43.278585" lon="-2.332010">
        <ele>214.444</ele>
        <time>2019-06-15T16:45:01Z</time>
      </trkpt>
      <trkpt lat="43.278592" lon="-2.332098">
        <ele>214.288</ele>
        <time>2019-06-15T16:45:02Z</time>
      </trkpt>
      <trkpt lat="43.278586" lon="-2.332193">
        <ele>214.317</ele>
        <time>2019-06-15T16:45:03Z</time>
      </trkpt>
      <trkpt lat="43.278584" lon="-2.332294">
        <ele>215.166</ele>
        <time>2019-06-15T16:45:04Z</time>
      </trkpt>
      <trkpt lat="43.278602" lon="-2.332396">
        <ele>216.055</ele>
        <time>2019-06-15T16:45:05Z</time>
      </trkpt>
      <trkpt lat="43.278662" lon="-2.332494">
        <ele>215.626</ele>
        <time>2019-06-15T16:45:06Z</time>
      </trkpt>
      <trkpt lat="43.278742" lon="-2.332574">
        <ele>215.785</ele>
        <time>2019-06-15T16:45:07Z</time>
      </trkpt>
      <trkpt lat="43.278836" lon="-2.332655">
        <ele>215.329</ele>
        <time>2019-06-15T16:45:08Z</time>
      </trkpt>
      <trkpt lat="43.278935" lon="-2.332750">
        <ele>215.119</ele>
        <time>2019-06-15T16:45:09Z</time>
      </trkpt>
      <trkpt lat="43.279040" lon="-2.332857">
        <ele>215.309</ele>
        <time>2019-06-15T16:45:10Z</time>
      </trkpt>
      <trkpt lat="43.279160" lon="-2.332960">
        <ele>214.819</ele>
        <time>2019-06-15T16:45:11Z</time>
      </trkpt>
      <trkpt lat="43.279287" lon="-2.333070">
        <ele>213.108</ele>
        <time>2019-06-15T16:45:12Z</time>
      </trkpt>
      <trkpt lat="43.279411" lon="-2.333179">
        <ele>211.764</ele>
        <time>2019-06-15T16:45:13Z</time>
      </trkpt>
      <trkpt lat="43.279534" lon="-2.333286">
        <ele>212.238</ele>
        <time>2019-06-15T16:45:14Z</time>
      </trkpt>
      <trkpt lat="43.279642" lon="-2.333419">
        <ele>213.267</ele>
        <time>2019-06-15T16:45:15Z</time>
      </trkpt>
      <trkpt lat="43.279679" lon="-2.333575">
        <ele>214.076</ele>
        <time>2019-06-15T16:45:16Z</time>
      </trkpt>
      <trkpt lat="43.279782" lon="-2.333729">
        <ele>213.085</ele>
        <time>2019-06-15T16:45:17Z</time>
      </trkpt>
      <trkpt lat="43.279842" lon="-2.333916">
        <ele>212.066</ele>
        <time>2019-06-15T16:45:18Z</time>
      </trkpt>
      <trkpt lat="43.279905" lon="-2.334090">
        <ele>208.985</ele>
        <time>2019-06-15T16:45:19Z</time>
      </trkpt>
      <trkpt lat="43.279961" lon="-2.334328">
        <ele>208.489</ele>
        <time>2019-06-15T16:45:20Z</time>
      </trkpt>
      <trkpt lat="43.280009" lon="-2.334533">
        <ele>209.197</ele>
        <time>2019-06-15T16:45:21Z</time>
      </trkpt>
      <trkpt lat="43.280044" lon="-2.334707">
        <ele>209.323</ele>
        <time>2019-06-15T16:45:22Z</time>
      </trkpt>
      <trkpt lat="43.280070" lon="-2.334888">
        <ele>209.925</ele>
        <time>2019-06-15T16:45:23Z</time>
      </trkpt>
      <trkpt lat="43.280095" lon="-2.335063">
        <ele>209.608</ele>
        <time>2019-06-15T16:45:24Z</time>
      </trkpt>
      <trkpt lat="43.280123" lon="-2.335240">
        <ele>207.162</ele>
        <time>2019-06-15T16:45:25Z</time>
      </trkpt>
      <trkpt lat="43.280204" lon="-2.335384">
        <ele>203.896</ele>
        <time>2019-06-15T16:45:26Z</time>
      </trkpt>
      <trkpt lat="43.280255" lon="-2.335535">
        <ele>203.585</ele>
        <time>2019-06-15T16:45:27Z</time>
      </trkpt>
      <trkpt lat="43.280322" lon="-2.335683">
        <ele>203.614</ele>
        <time>2019-06-15T16:45:28Z</time>
      </trkpt>
      <trkpt lat="43.280407" lon="-2.335797">
        <ele>203.133</ele>
        <time>2019-06-15T16:45:29Z</time>
      </trkpt>
      <trkpt lat="43.280505" lon="-2.335902">
        <ele>203.354</ele>
        <time>2019-06-15T16:45:30Z</time>
      </trkpt>
      <trkpt lat="43.280632" lon="-2.335967">
        <ele>204.483</ele>
        <time>2019-06-15T16:45:31Z</time>
      </trkpt>
      <trkpt lat="43.280760" lon="-2.335999">
        <ele>205.967</ele>
        <time>2019-06-15T16:45:32Z</time>
      </trkpt>
      <trkpt lat="43.280893" lon="-2.336025">
        <ele>206.095</ele>
        <time>2019-06-15T16:45:33Z</time>
      </trkpt>
      <trkpt lat="43.281042" lon="-2.336044">
        <ele>204.449</ele>
        <time>2019-06-15T16:45:34Z</time>
      </trkpt>
      <trkpt lat="43.281175" lon="-2.336104">
        <ele>203.923</ele>
        <time>2019-06-15T16:45:35Z</time>
      </trkpt>
      <trkpt lat="43.281309" lon="-2.336195">
        <ele>203.808</ele>
        <time>2019-06-15T16:45:36Z</time>
      </trkpt>
      <trkpt lat="43.281447" lon="-2.336275">
        <ele>201.332</ele>
        <time>2019-06-15T16:45:37Z</time>
      </trkpt>
      <trkpt lat="43.281550" lon="-2.336457">
        <ele>200.736</ele>
        <time>2019-06-15T16:45:38Z</time>
      </trkpt>
      <trkpt lat="43.281678" lon="-2.336584">
        <ele>199.555</ele>
        <time>2019-06-15T16:45:39Z</time>
      </trkpt>
      <trkpt lat="43.281784" lon="-2.336742">
        <ele>198.944</ele>
        <time>2019-06-15T16:45:40Z</time>
      </trkpt>
      <trkpt lat="43.281851" lon="-2.336907">
        <ele>198.893</ele>
        <time>2019-06-15T16:45:41Z</time>
      </trkpt>
      <trkpt lat="43.281941" lon="-2.337067">
        <ele>197.094</ele>
        <time>2019-06-15T16:45:42Z</time>
      </trkpt>
      <trkpt lat="43.281979" lon="-2.337202">
        <ele>196.413</ele>
        <time>2019-06-15T16:45:43Z</time>
      </trkpt>
      <trkpt lat="43.282060" lon="-2.337323">
        <ele>195.697</ele>
        <time>2019-06-15T16:45:44Z</time>
      </trkpt>
      <trkpt lat="43.282149" lon="-2.337398">
        <ele>195.738</ele>
        <time>2019-06-15T16:45:45Z</time>
      </trkpt>
      <trkpt lat="43.282251" lon="-2.337494">
        <ele>198.970</ele>
        <time>2019-06-15T16:45:46Z</time>
      </trkpt>
      <trkpt lat="43.282323" lon="-2.337515">
        <ele>200.417</ele>
        <time>2019-06-15T16:45:47Z</time>
      </trkpt>
      <trkpt lat="43.282406" lon="-2.337563">
        <ele>202.908</ele>
        <time>2019-06-15T16:45:48Z</time>
      </trkpt>
      <trkpt lat="43.282571" lon="-2.337463">
        <ele>199.466</ele>
        <time>2019-06-15T16:45:49Z</time>
      </trkpt>
      <trkpt lat="43.282715" lon="-2.337422">
        <ele>198.010</ele>
        <time>2019-06-15T16:45:50Z</time>
      </trkpt>
      <trkpt lat="43.282964" lon="-2.337367">
        <ele>195.869</ele>
        <time>2019-06-15T16:45:51Z</time>
      </trkpt>
      <trkpt lat="43.283036" lon="-2.337402">
        <ele>196.378</ele>
        <time>2019-06-15T16:45:52Z</time>
      </trkpt>
      <trkpt lat="43.283151" lon="-2.337436">
        <ele>194.947</ele>
        <time>2019-06-15T16:45:53Z</time>
      </trkpt>
      <trkpt lat="43.283261" lon="-2.337505">
        <ele>193.668</ele>
        <time>2019-06-15T16:45:54Z</time>
      </trkpt>
      <trkpt lat="43.283351" lon="-2.337595">
        <ele>192.837</ele>
        <time>2019-06-15T16:45:55Z</time>
      </trkpt>
      <trkpt lat="43.283450" lon="-2.337733">
        <ele>192.531</ele>
        <time>2019-06-15T16:45:56Z</time>
      </trkpt>
      <trkpt lat="43.283538" lon="-2.337867">
        <ele>194.028</ele>
        <time>2019-06-15T16:45:57Z</time>
      </trkpt>
      <trkpt lat="43.283655" lon="-2.337948">
        <ele>194.289</ele>
        <time>2019-06-15T16:45:58Z</time>
      </trkpt>
      <trkpt lat="43.283866" lon="-2.337971">
        <ele>191.517</ele>
        <time>2019-06-15T16:45:59Z</time>
      </trkpt>
      <trkpt lat="43.284025" lon="-2.338023">
        <ele>191.008</ele>
        <time>2019-06-15T16:46:00Z</time>
      </trkpt>
      <trkpt lat="43.284182" lon="-2.338085">
        <ele>190.465</ele>
        <time>2019-06-15T16:46:01Z</time>
      </trkpt>
      <trkpt lat="43.284347" lon="-2.338170">
        <ele>188.749</ele>
        <time>2019-06-15T16:46:02Z</time>
      </trkpt>
      <trkpt lat="43.284540" lon="-2.338262">
        <ele>186.648</ele>
        <time>2019-06-15T16:46:03Z</time>
      </trkpt>
      <trkpt lat="43.284722" lon="-2.338367">
        <ele>185.977</ele>
        <time>2019-06-15T16:46:04Z</time>
      </trkpt>
      <trkpt lat="43.284906" lon="-2.338478">
        <ele>185.326</ele>
        <time>2019-06-15T16:46:05Z</time>
      </trkpt>
      <trkpt lat="43.285098" lon="-2.338584">
        <ele>184.127</ele>
        <time>2019-06-15T16:46:06Z</time>
      </trkpt>
      <trkpt lat="43.285287" lon="-2.338684">
        <ele>184.586</ele>
        <time>2019-06-15T16:46:07Z</time>
      </trkpt>
      <trkpt lat="43.285506" lon="-2.338738">
        <ele>184.610</ele>
        <time>2019-06-15T16:46:08Z</time>
      </trkpt>
      <trkpt lat="43.285691" lon="-2.338807">
        <ele>183.571</ele>
        <time>2019-06-15T16:46:09Z</time>
      </trkpt>
      <trkpt lat="43.285904" lon="-2.338853">
        <ele>181.341</ele>
        <time>2019-06-15T16:46:10Z</time>
      </trkpt>
      <trkpt lat="43.286104" lon="-2.338894">
        <ele>180.115</ele>
        <time>2019-06-15T16:46:11Z</time>
      </trkpt>
      <trkpt lat="43.286306" lon="-2.338941">
        <ele>180.108</ele>
        <time>2019-06-15T16:46:12Z</time>
      </trkpt>
      <trkpt lat="43.286490" lon="-2.338981">
        <ele>180.430</ele>
        <time>2019-06-15T16:46:13Z</time>
      </trkpt>
      <trkpt lat="43.286682" lon="-2.339032">
        <ele>180.494</ele>
        <time>2019-06-15T16:46:14Z</time>
      </trkpt>
      <trkpt lat="43.286865" lon="-2.339099">
        <ele>179.363</ele>
        <time>2019-06-15T16:46:15Z</time>
      </trkpt>
      <trkpt lat="43.287026" lon="-2.339186">
        <ele>178.032</ele>
        <time>2019-06-15T16:46:16Z</time>
      </trkpt>
      <trkpt lat="43.287188" lon="-2.339273">
        <ele>176.651</ele>
        <time>2019-06-15T16:46:17Z</time>
      </trkpt>
      <trkpt lat="43.287342" lon="-2.339353">
        <ele>175.742</ele>
        <time>2019-06-15T16:46:18Z</time>
      </trkpt>
      <trkpt lat="43.287497" lon="-2.339425">
        <ele>175.651</ele>
        <time>2019-06-15T16:46:19Z</time>
      </trkpt>
      <trkpt lat="43.287656" lon="-2.339475">
        <ele>175.315</ele>
        <time>2019-06-15T16:46:20Z</time>
      </trkpt>
      <trkpt lat="43.287824" lon="-2.339491">
        <ele>174.838</ele>
        <time>2019-06-15T16:46:21Z</time>
      </trkpt>
      <trkpt lat="43.287978" lon="-2.339463">
        <ele>175.070</ele>
        <time>2019-06-15T16:46:22Z</time>
      </trkpt>
      <trkpt lat="43.288129" lon="-2.339416">
        <ele>174.717</ele>
        <time>2019-06-15T16:46:23Z</time>
      </trkpt>
      <trkpt lat="43.288276" lon="-2.339359">
        <ele>174.408</ele>
        <time>2019-06-15T16:46:24Z</time>
      </trkpt>
      <trkpt lat="43.288421" lon="-2.339324">
        <ele>173.736</ele>
        <time>2019-06-15T16:46:25Z</time>
      </trkpt>
      <trkpt lat="43.288563" lon="-2.339302">
        <ele>172.340</ele>
        <time>2019-06-15T16:46:26Z</time>
      </trkpt>
      <trkpt lat="43.288715" lon="-2.339287">
        <ele>171.239</ele>
        <time>2019-06-15T16:46:27Z</time>
      </trkpt>
      <trkpt lat="43.288867" lon="-2.339289">
        <ele>170.738</ele>
        <time>2019-06-15T16:46:28Z</time>
      </trkpt>
      <trkpt lat="43.289005" lon="-2.339285">
        <ele>170.727</ele>
        <time>2019-06-15T16:46:29Z</time>
      </trkpt>
      <trkpt lat="43.289145" lon="-2.339278">
        <ele>170.878</ele>
        <time>2019-06-15T16:46:30Z</time>
      </trkpt>
      <trkpt lat="43.289249" lon="-2.339209">
        <ele>170.597</ele>
        <time>2019-06-15T16:46:31Z</time>
      </trkpt>
      <trkpt lat="43.289351" lon="-2.339145">
        <ele>171.061</ele>
        <time>2019-06-15T16:46:32Z</time>
      </trkpt>
      <trkpt lat="43.289442" lon="-2.339054">
        <ele>171.756</ele>
        <time>2019-06-15T16:46:33Z</time>
      </trkpt>
      <trkpt lat="43.289549" lon="-2.338959">
        <ele>172.859</ele>
        <time>2019-06-15T16:46:34Z</time>
      </trkpt>
      <trkpt lat="43.289603" lon="-2.338841">
        <ele>172.414</ele>
        <time>2019-06-15T16:46:35Z</time>
      </trkpt>
      <trkpt lat="43.289700" lon="-2.338740">
        <ele>171.408</ele>
        <time>2019-06-15T16:46:36Z</time>
      </trkpt>
      <trkpt lat="43.289795" lon="-2.338666">
        <ele>168.898</ele>
        <time>2019-06-15T16:46:37Z</time>
      </trkpt>
      <trkpt lat="43.289884" lon="-2.338661">
        <ele>167.762</ele>
        <time>2019-06-15T16:46:38Z</time>
      </trkpt>
      <trkpt lat="43.289982" lon="-2.338645">
        <ele>166.211</ele>
        <time>2019-06-15T16:46:39Z</time>
      </trkpt>
      <trkpt lat="43.290086" lon="-2.338616">
        <ele>164.820</ele>
        <time>2019-06-15T16:46:40Z</time>
      </trkpt>
      <trkpt lat="43.290203" lon="-2.338631">
        <ele>164.669</ele>
        <time>2019-06-15T16:46:41Z</time>
      </trkpt>
      <trkpt lat="43.290307" lon="-2.338598">
        <ele>164.580</ele>
        <time>2019-06-15T16:46:42Z</time>
      </trkpt>
      <trkpt lat="43.290413" lon="-2.338555">
        <ele>166.719</ele>
        <time>2019-06-15T16:46:43Z</time>
      </trkpt>
      <trkpt lat="43.290447" lon="-2.338456">
        <ele>166.653</ele>
        <time>2019-06-15T16:46:44Z</time>
      </trkpt>
      <trkpt lat="43.290511" lon="-2.338333">
        <ele>168.153</ele>
        <time>2019-06-15T16:46:45Z</time>
      </trkpt>
      <trkpt lat="43.290553" lon="-2.338196">
        <ele>167.904</ele>
        <time>2019-06-15T16:46:46Z</time>
      </trkpt>
      <trkpt lat="43.290617" lon="-2.338026">
        <ele>169.114</ele>
        <time>2019-06-15T16:46:47Z</time>
      </trkpt>
      <trkpt lat="43.290661" lon="-2.337816">
        <ele>168.608</ele>
        <time>2019-06-15T16:46:48Z</time>
      </trkpt>
      <trkpt lat="43.290708" lon="-2.337630">
        <ele>167.048</ele>
        <time>2019-06-15T16:46:49Z</time>
      </trkpt>
      <trkpt lat="43.290772" lon="-2.337467">
        <ele>165.432</ele>
        <time>2019-06-15T16:46:50Z</time>
      </trkpt>
      <trkpt lat="43.290814" lon="-2.337303">
        <ele>162.571</ele>
        <time>2019-06-15T16:46:51Z</time>
      </trkpt>
      <trkpt lat="43.290860" lon="-2.337162">
        <ele>161.320</ele>
        <time>2019-06-15T16:46:52Z</time>
      </trkpt>
      <trkpt lat="43.290918" lon="-2.337019">
        <ele>161.359</ele>
        <time>2019-06-15T16:46:53Z</time>
      </trkpt>
      <trkpt lat="43.290951" lon="-2.336879">
        <ele>160.070</ele>
        <time>2019-06-15T16:46:54Z</time>
      </trkpt>
      <trkpt lat="43.291064" lon="-2.336796">
        <ele>160.169</ele>
        <time>2019-06-15T16:46:55Z</time>
      </trkpt>
      <trkpt lat="43.291170" lon="-2.336692">
        <ele>158.843</ele>
        <time>2019-06-15T16:46:56Z</time>
      </trkpt>
      <trkpt lat="43.291295" lon="-2.336640">
        <ele>157.848</ele>
        <time>2019-06-15T16:46:57Z</time>
      </trkpt>
      <trkpt lat="43.291466" lon="-2.336597">
        <ele>156.661</ele>
        <time>2019-06-15T16:46:58Z</time>
      </trkpt>
      <trkpt lat="43.291620" lon="-2.336572">
        <ele>155.717</ele>
        <time>2019-06-15T16:46:59Z</time>
      </trkpt>
      <trkpt lat="43.291753" lon="-2.336559">
        <ele>154.508</ele>
        <time>2019-06-15T16:47:00Z</time>
      </trkpt>
      <trkpt lat="43.291911" lon="-2.336563">
        <ele>153.137</ele>
        <time>2019-06-15T16:47:01Z</time>
      </trkpt>
      <trkpt lat="43.292059" lon="-2.336564">
        <ele>152.151</ele>
        <time>2019-06-15T16:47:02Z</time>
      </trkpt>
      <trkpt lat="43.292215" lon="-2.336575">
        <ele>151.470</ele>
        <time>2019-06-15T16:47:03Z</time>
      </trkpt>
      <trkpt lat="43.292378" lon="-2.336591">
        <ele>150.479</ele>
        <time>2019-06-15T16:47:04Z</time>
      </trkpt>
      <trkpt lat="43.292509" lon="-2.336626">
        <ele>150.188</ele>
        <time>2019-06-15T16:47:05Z</time>
      </trkpt>
      <trkpt lat="43.292679" lon="-2.336650">
        <ele>149.429</ele>
        <time>2019-06-15T16:47:06Z</time>
      </trkpt>
      <trkpt lat="43.292832" lon="-2.336681">
        <ele>148.888</ele>
        <time>2019-06-15T16:47:07Z</time>
      </trkpt>
      <trkpt lat="43.292974" lon="-2.336728">
        <ele>148.422</ele>
        <time>2019-06-15T16:47:08Z</time>
      </trkpt>
      <trkpt lat="43.293112" lon="-2.336776">
        <ele>148.126</ele>
        <time>2019-06-15T16:47:09Z</time>
      </trkpt>
      <trkpt lat="43.293232" lon="-2.336814">
        <ele>147.847</ele>
        <time>2019-06-15T16:47:10Z</time>
      </trkpt>
      <trkpt lat="43.293382" lon="-2.336846">
        <ele>146.911</ele>
        <time>2019-06-15T16:47:11Z</time>
      </trkpt>
      <trkpt lat="43.293509" lon="-2.336885">
        <ele>146.108</ele>
        <time>2019-06-15T16:47:12Z</time>
      </trkpt>
      <trkpt lat="43.293647" lon="-2.336913">
        <ele>145.125</ele>
        <time>2019-06-15T16:47:13Z</time>
      </trkpt>
      <trkpt lat="43.293762" lon="-2.336944">
        <ele>144.989</ele>
        <time>2019-06-15T16:47:14Z</time>
      </trkpt>
      <trkpt lat="43.293858" lon="-2.336976">
        <ele>144.698</ele>
        <time>2019-06-15T16:47:15Z</time>
      </trkpt>
      <trkpt lat="43.293961" lon="-2.337018">
        <ele>144.197</ele>
        <time>2019-06-15T16:47:16Z</time>
      </trkpt>
      <trkpt lat="43.294081" lon="-2.337062">
        <ele>143.036</ele>
        <time>2019-06-15T16:47:17Z</time>
      </trkpt>
      <trkpt lat="43.294188" lon="-2.337162">
        <ele>141.887</ele>
        <time>2019-06-15T16:47:18Z</time>
      </trkpt>
      <trkpt lat="43.294260" lon="-2.337295">
        <ele>141.496</ele>
        <time>2019-06-15T16:47:19Z</time>
      </trkpt>
      <trkpt lat="43.294313" lon="-2.337438">
        <ele>140.970</ele>
        <time>2019-06-15T16:47:20Z</time>
      </trkpt>
      <trkpt lat="43.294347" lon="-2.337563">
        <ele>139.361</ele>
        <time>2019-06-15T16:47:21Z</time>
      </trkpt>
      <trkpt lat="43.294388" lon="-2.337694">
        <ele>136.521</ele>
        <time>2019-06-15T16:47:22Z</time>
      </trkpt>
      <trkpt lat="43.294290" lon="-2.337851">
        <ele>135.613</ele>
        <time>2019-06-15T16:47:23Z</time>
      </trkpt>
      <trkpt lat="43.294169" lon="-2.337996">
        <ele>135.808</ele>
        <time>2019-06-15T16:47:24Z</time>
      </trkpt>
      <trkpt lat="43.294078" lon="-2.338121">
        <ele>136.329</ele>
        <time>2019-06-15T16:47:25Z</time>
      </trkpt>
      <trkpt lat="43.293996" lon="-2.338265">
        <ele>135.783</ele>
        <time>2019-06-15T16:47:26Z</time>
      </trkpt>
      <trkpt lat="43.293919" lon="-2.338380">
        <ele>135.432</ele>
        <time>2019-06-15T16:47:27Z</time>
      </trkpt>
      <trkpt lat="43.293831" lon="-2.338502">
        <ele>135.381</ele>
        <time>2019-06-15T16:47:28Z</time>
      </trkpt>
      <trkpt lat="43.293759" lon="-2.338620">
        <ele>134.730</ele>
        <time>2019-06-15T16:47:29Z</time>
      </trkpt>
      <trkpt lat="43.293691" lon="-2.338741">
        <ele>134.351</ele>
        <time>2019-06-15T16:47:30Z</time>
      </trkpt>
      <trkpt lat="43.293658" lon="-2.338918">
        <ele>132.760</ele>
        <time>2019-06-15T16:47:31Z</time>
      </trkpt>
      <trkpt lat="43.293662" lon="-2.339072">
        <ele>131.944</ele>
        <time>2019-06-15T16:47:32Z</time>
      </trkpt>
      <trkpt lat="43.293691" lon="-2.339231">
        <ele>131.386</ele>
        <time>2019-06-15T16:47:33Z</time>
      </trkpt>
      <trkpt lat="43.293728" lon="-2.339366">
        <ele>131.760</ele>
        <time>2019-06-15T16:47:34Z</time>
      </trkpt>
      <trkpt lat="43.293815" lon="-2.339462">
        <ele>130.926</ele>
        <time>2019-06-15T16:47:35Z</time>
      </trkpt>
      <trkpt lat="43.293896" lon="-2.339599">
        <ele>131.108</ele>
        <time>2019-06-15T16:47:36Z</time>
      </trkpt>
      <trkpt lat="43.293975" lon="-2.339731">
        <ele>131.571</ele>
        <time>2019-06-15T16:47:37Z</time>
      </trkpt>
      <trkpt lat="43.294048" lon="-2.339865">
        <ele>130.965</ele>
        <time>2019-06-15T16:47:38Z</time>
      </trkpt>
      <trkpt lat="43.294061" lon="-2.340039">
        <ele>131.384</ele>
        <time>2019-06-15T16:47:39Z</time>
      </trkpt>
      <trkpt lat="43.294094" lon="-2.340195">
        <ele>129.833</ele>
        <time>2019-06-15T16:47:40Z</time>
      </trkpt>
      <trkpt lat="43.294084" lon="-2.340416">
        <ele>128.262</ele>
        <time>2019-06-15T16:47:41Z</time>
      </trkpt>
      <trkpt lat="43.294088" lon="-2.340612">
        <ele>126.343</ele>
        <time>2019-06-15T16:47:42Z</time>
      </trkpt>
      <trkpt lat="43.294082" lon="-2.340801">
        <ele>124.612</ele>
        <time>2019-06-15T16:47:43Z</time>
      </trkpt>
      <trkpt lat="43.294080" lon="-2.340992">
        <ele>123.796</ele>
        <time>2019-06-15T16:47:44Z</time>
      </trkpt>
      <trkpt lat="43.294072" lon="-2.341169">
        <ele>123.295</ele>
        <time>2019-06-15T16:47:45Z</time>
      </trkpt>
      <trkpt lat="43.294203" lon="-2.341344">
        <ele>122.049</ele>
        <time>2019-06-15T16:47:46Z</time>
      </trkpt>
      <trkpt lat="43.294292" lon="-2.341398">
        <ele>121.823</ele>
        <time>2019-06-15T16:47:47Z</time>
      </trkpt>
      <trkpt lat="43.294408" lon="-2.341489">
        <ele>123.308</ele>
        <time>2019-06-15T16:47:48Z</time>
      </trkpt>
      <trkpt lat="43.294499" lon="-2.341535">
        <ele>124.082</ele>
        <time>2019-06-15T16:47:49Z</time>
      </trkpt>
      <trkpt lat="43.294604" lon="-2.341585">
        <ele>124.786</ele>
        <time>2019-06-15T16:47:50Z</time>
      </trkpt>
      <trkpt lat="43.294762" lon="-2.341543">
        <ele>123.635</ele>
        <time>2019-06-15T16:47:51Z</time>
      </trkpt>
      <trkpt lat="43.294891" lon="-2.341486">
        <ele>123.164</ele>
        <time>2019-06-15T16:47:52Z</time>
      </trkpt>
      <trkpt lat="43.294995" lon="-2.341388">
        <ele>121.023</ele>
        <time>2019-06-15T16:47:53Z</time>
      </trkpt>
      <trkpt lat="43.295114" lon="-2.341252">
        <ele>123.024</ele>
        <time>2019-06-15T16:47:54Z</time>
      </trkpt>
      <trkpt lat="43.295232" lon="-2.341155">
        <ele>123.693</ele>
        <time>2019-06-15T16:47:55Z</time>
      </trkpt>
      <trkpt lat="43.295362" lon="-2.340991">
        <ele>120.817</ele>
        <time>2019-06-15T16:47:56Z</time>
      </trkpt>
      <trkpt lat="43.295519" lon="-2.340812">
        <ele>116.344</ele>
        <time>2019-06-15T16:47:57Z</time>
      </trkpt>
      <trkpt lat="43.295706" lon="-2.340678">
        <ele>115.505</ele>
        <time>2019-06-15T16:47:58Z</time>
      </trkpt>
      <trkpt lat="43.295881" lon="-2.340556">
        <ele>112.915</ele>
        <time>2019-06-15T16:47:59Z</time>
      </trkpt>
      <trkpt lat="43.296066" lon="-2.340399">
        <ele>111.608</ele>
        <time>2019-06-15T16:48:00Z</time>
      </trkpt>
      <trkpt lat="43.296247" lon="-2.340271">
        <ele>109.817</ele>
        <time>2019-06-15T16:48:01Z</time>
      </trkpt>
      <trkpt lat="43.296431" lon="-2.340137">
        <ele>108.871</ele>
        <time>2019-06-15T16:48:02Z</time>
      </trkpt>
      <trkpt lat="43.296619" lon="-2.340018">
        <ele>107.380</ele>
        <time>2019-06-15T16:48:03Z</time>
      </trkpt>
      <trkpt lat="43.296781" lon="-2.339896">
        <ele>105.599</ele>
        <time>2019-06-15T16:48:04Z</time>
      </trkpt>
      <trkpt lat="43.296962" lon="-2.339823">
        <ele>106.018</ele>
        <time>2019-06-15T16:48:05Z</time>
      </trkpt>
      <trkpt lat="43.297134" lon="-2.339721">
        <ele>105.489</ele>
        <time>2019-06-15T16:48:06Z</time>
      </trkpt>
      <trkpt lat="43.297318" lon="-2.339625">
        <ele>105.778</ele>
        <time>2019-06-15T16:48:07Z</time>
      </trkpt>
      <trkpt lat="43.297485" lon="-2.339531">
        <ele>104.262</ele>
        <time>2019-06-15T16:48:08Z</time>
      </trkpt>
      <trkpt lat="43.297651" lon="-2.339442">
        <ele>102.035</ele>
        <time>2019-06-15T16:48:09Z</time>
      </trkpt>
      <trkpt lat="43.297805" lon="-2.339352">
        <ele>101.286</ele>
        <time>2019-06-15T16:48:10Z</time>
      </trkpt>
      <trkpt lat="43.297939" lon="-2.339276">
        <ele>100.914</ele>
        <time>2019-06-15T16:48:11Z</time>
      </trkpt>
      <trkpt lat="43.298082" lon="-2.339203">
        <ele>100.208</ele>
        <time>2019-06-15T16:48:12Z</time>
      </trkpt>
      <trkpt lat="43.298173" lon="-2.339098">
        <ele>99.396</ele>
        <time>2019-06-15T16:48:13Z</time>
      </trkpt>
      <trkpt lat="43.298243" lon="-2.338974">
        <ele>98.250</ele>
        <time>2019-06-15T16:48:14Z</time>
      </trkpt>
      <trkpt lat="43.298339" lon="-2.338838">
        <ele>99.339</ele>
        <time>2019-06-15T16:48:15Z</time>
      </trkpt>
      <trkpt lat="43.298384" lon="-2.338652">
        <ele>98.398</ele>
        <time>2019-06-15T16:48:16Z</time>
      </trkpt>
      <trkpt lat="43.298422" lon="-2.338469">
        <ele>97.917</ele>
        <time>2019-06-15T16:48:17Z</time>
      </trkpt>
      <trkpt lat="43.298440" lon="-2.338278">
        <ele>96.578</ele>
        <time>2019-06-15T16:48:18Z</time>
      </trkpt>
      <trkpt lat="43.298448" lon="-2.338091">
        <ele>94.617</ele>
        <time>2019-06-15T16:48:19Z</time>
      </trkpt>
      <trkpt lat="43.298467" lon="-2.337912">
        <ele>93.221</ele>
        <time>2019-06-15T16:48:20Z</time>
      </trkpt>
      <trkpt lat="43.298514" lon="-2.337756">
        <ele>92.751</ele>
        <time>2019-06-15T16:48:21Z</time>
      </trkpt>
      <trkpt lat="43.298570" lon="-2.337578">
        <ele>91.201</ele>
        <time>2019-06-15T16:48:22Z</time>
      </trkpt>
      <trkpt lat="43.298641" lon="-2.337427">
        <ele>89.611</ele>
        <time>2019-06-15T16:48:23Z</time>
      </trkpt>
      <trkpt lat="43.298737" lon="-2.337304">
        <ele>87.908</ele>
        <time>2019-06-15T16:48:24Z</time>
      </trkpt>
      <trkpt lat="43.298829" lon="-2.337186">
        <ele>86.298</ele>
        <time>2019-06-15T16:48:25Z</time>
      </trkpt>
      <trkpt lat="43.298978" lon="-2.337167">
        <ele>87.292</ele>
        <time>2019-06-15T16:48:26Z</time>
      </trkpt>
      <trkpt lat="43.299091" lon="-2.337126">
        <ele>86.831</ele>
        <time>2019-06-15T16:48:27Z</time>
      </trkpt>
      <trkpt lat="43.299205" lon="-2.337092">
        <ele>85.290</ele>
        <time>2019-06-15T16:48:28Z</time>
      </trkpt>
      <trkpt lat="43.299337" lon="-2.337171">
        <ele>84.089</ele>
        <time>2019-06-15T16:48:29Z</time>
      </trkpt>
      <trkpt lat="43.299450" lon="-2.337202">
        <ele>82.320</ele>
        <time>2019-06-15T16:48:30Z</time>
      </trkpt>
      <trkpt lat="43.299557" lon="-2.337222">
        <ele>82.649</ele>
        <time>2019-06-15T16:48:31Z</time>
      </trkpt>
      <trkpt lat="43.299660" lon="-2.337243">
        <ele>83.143</ele>
        <time>2019-06-15T16:48:32Z</time>
      </trkpt>
      <trkpt lat="43.299722" lon="-2.337246">
        <ele>83.038</ele>
        <time>2019-06-15T16:48:33Z</time>
      </trkpt>
      <trkpt lat="43.299803" lon="-2.337225">
        <ele>81.870</ele>
        <time>2019-06-15T16:48:34Z</time>
      </trkpt>
      <trkpt lat="43.299871" lon="-2.337202">
        <ele>80.917</ele>
        <time>2019-06-15T16:48:35Z</time>
      </trkpt>
      <trkpt lat="43.299947" lon="-2.337185">
        <ele>80.408</ele>
        <time>2019-06-15T16:48:37Z</time>
      </trkpt>
      <trkpt lat="43.299996" lon="-2.337189">
        <ele>80.496</ele>
        <time>2019-06-15T16:48:38Z</time>
      </trkpt>
      <trkpt lat="43.300044" lon="-2.337203">
        <ele>78.530</ele>
        <time>2019-06-15T16:48:40Z</time>
      </trkpt>
      <trkpt lat="43.300113" lon="-2.337226">
        <ele>75.839</ele>
        <time>2019-06-15T16:48:42Z</time>
      </trkpt>
      <trkpt lat="43.300164" lon="-2.337239">
        <ele>73.768</ele>
        <time>2019-06-15T16:48:44Z</time>
      </trkpt>
      <trkpt lat="43.300124" lon="-2.337198">
        <ele>74.677</ele>
        <time>2019-06-15T16:49:27Z</time>
      </trkpt>
      <trkpt lat="43.300118" lon="-2.337132">
        <ele>73.258</ele>
        <time>2019-06-15T16:49:34Z</time>
      </trkpt>
      <trkpt lat="43.300123" lon="-2.337195">
        <ele>74.537</ele>
        <time>2019-06-15T16:49:59Z</time>
      </trkpt>
      <trkpt lat="43.300128" lon="-2.337268">
        <ele>76.231</ele>
        <time>2019-06-15T16:52:31Z</time>
      </trkpt>
      <trkpt lat="43.300177" lon="-2.337374">
        <ele>76.542</ele>
        <time>2019-06-15T16:52:33Z</time>
      </trkpt>
      <trkpt lat="43.300202" lon="-2.337430">
        <ele>76.822</ele>
        <time>2019-06-15T16:52:34Z</time>
      </trkpt>
      <trkpt lat="43.300240" lon="-2.337531">
        <ele>76.814</ele>
        <time>2019-06-15T16:52:36Z</time>
      </trkpt>
      <trkpt lat="43.300256" lon="-2.337601">
        <ele>75.908</ele>
        <time>2019-06-15T16:52:37Z</time>
      </trkpt>
      <trkpt lat="43.300269" lon="-2.337704">
        <ele>74.887</ele>
        <time>2019-06-15T16:52:38Z</time>
      </trkpt>
      <trkpt lat="43.300262" lon="-2.337850">
        <ele>74.831</ele>
        <time>2019-06-15T16:52:39Z</time>
      </trkpt>
      <trkpt lat="43.300263" lon="-2.337998">
        <ele>74.240</ele>
        <time>2019-06-15T16:52:40Z</time>
      </trkpt>
      <trkpt lat="43.300268" lon="-2.338166">
        <ele>72.969</ele>
        <time>2019-06-15T16:52:41Z</time>
      </trkpt>
      <trkpt lat="43.300273" lon="-2.338339">
        <ele>71.488</ele>
        <time>2019-06-15T16:52:42Z</time>
      </trkpt>
      <trkpt lat="43.300271" lon="-2.338525">
        <ele>71.679</ele>
        <time>2019-06-15T16:52:43Z</time>
      </trkpt>
      <trkpt lat="43.300277" lon="-2.338699">
        <ele>71.498</ele>
        <time>2019-06-15T16:52:44Z</time>
      </trkpt>
      <trkpt lat="43.300276" lon="-2.338873">
        <ele>72.032</ele>
        <time>2019-06-15T16:52:45Z</time>
      </trkpt>
      <trkpt lat="43.300281" lon="-2.339048">
        <ele>73.584</ele>
        <time>2019-06-15T16:52:46Z</time>
      </trkpt>
      <trkpt lat="43.300297" lon="-2.339220">
        <ele>73.807</ele>
        <time>2019-06-15T16:52:47Z</time>
      </trkpt>
      <trkpt lat="43.300305" lon="-2.339395">
        <ele>73.817</ele>
        <time>2019-06-15T16:52:48Z</time>
      </trkpt>
      <trkpt lat="43.300326" lon="-2.339540">
        <ele>73.008</ele>
        <time>2019-06-15T16:52:49Z</time>
      </trkpt>
      <trkpt lat="43.300371" lon="-2.339690">
        <ele>70.891</ele>
        <time>2019-06-15T16:52:50Z</time>
      </trkpt>
      <trkpt lat="43.300428" lon="-2.339819">
        <ele>70.565</ele>
        <time>2019-06-15T16:52:51Z</time>
      </trkpt>
      <trkpt lat="43.300490" lon="-2.339947">
        <ele>71.444</ele>
        <time>2019-06-15T16:52:52Z</time>
      </trkpt>
      <trkpt lat="43.300570" lon="-2.340046">
        <ele>71.643</ele>
        <time>2019-06-15T16:52:53Z</time>
      </trkpt>
      <trkpt lat="43.300652" lon="-2.340132">
        <ele>72.132</ele>
        <time>2019-06-15T16:52:54Z</time>
      </trkpt>
      <trkpt lat="43.300750" lon="-2.340187">
        <ele>70.363</ele>
        <time>2019-06-15T16:52:55Z</time>
      </trkpt>
      <trkpt lat="43.300843" lon="-2.340244">
        <ele>69.182</ele>
        <time>2019-06-15T16:52:56Z</time>
      </trkpt>
      <trkpt lat="43.300930" lon="-2.340314">
        <ele>70.246</ele>
        <time>2019-06-15T16:52:57Z</time>
      </trkpt>
      <trkpt lat="43.301017" lon="-2.340389">
        <ele>69.374</ele>
        <time>2019-06-15T16:52:58Z</time>
      </trkpt>
      <trkpt lat="43.301073" lon="-2.340499">
        <ele>68.156</ele>
        <time>2019-06-15T16:52:59Z</time>
      </trkpt>
      <trkpt lat="43.301128" lon="-2.340638">
        <ele>65.021</ele>
        <time>2019-06-15T16:53:00Z</time>
      </trkpt>
      <trkpt lat="43.301172" lon="-2.340807">
        <ele>62.108</ele>
        <time>2019-06-15T16:53:01Z</time>
      </trkpt>
      <trkpt lat="43.301216" lon="-2.340985">
        <ele>60.080</ele>
        <time>2019-06-15T16:53:02Z</time>
      </trkpt>
      <trkpt lat="43.301260" lon="-2.341159">
        <ele>58.554</ele>
        <time>2019-06-15T16:53:03Z</time>
      </trkpt>
      <trkpt lat="43.301324" lon="-2.341329">
        <ele>56.923</ele>
        <time>2019-06-15T16:53:04Z</time>
      </trkpt>
      <trkpt lat="43.301392" lon="-2.341494">
        <ele>56.412</ele>
        <time>2019-06-15T16:53:05Z</time>
      </trkpt>
      <trkpt lat="43.301467" lon="-2.341659">
        <ele>54.611</ele>
        <time>2019-06-15T16:53:06Z</time>
      </trkpt>
      <trkpt lat="43.301538" lon="-2.341822">
        <ele>54.012</ele>
        <time>2019-06-15T16:53:07Z</time>
      </trkpt>
      <trkpt lat="43.301618" lon="-2.341983">
        <ele>53.611</ele>
        <time>2019-06-15T16:53:08Z</time>
      </trkpt>
      <trkpt lat="43.301700" lon="-2.342142">
        <ele>51.385</ele>
        <time>2019-06-15T16:53:09Z</time>
      </trkpt>
      <trkpt lat="43.301773" lon="-2.342301">
        <ele>50.537</ele>
        <time>2019-06-15T16:53:10Z</time>
      </trkpt>
      <trkpt lat="43.301834" lon="-2.342452">
        <ele>51.249</ele>
        <time>2019-06-15T16:53:11Z</time>
      </trkpt>
      <trkpt lat="43.301908" lon="-2.342611">
        <ele>51.613</ele>
        <time>2019-06-15T16:53:12Z</time>
      </trkpt>
      <trkpt lat="43.301984" lon="-2.342742">
        <ele>49.908</ele>
        <time>2019-06-15T16:53:13Z</time>
      </trkpt>
      <trkpt lat="43.302062" lon="-2.342872">
        <ele>47.936</ele>
        <time>2019-06-15T16:53:14Z</time>
      </trkpt>
      <trkpt lat="43.302129" lon="-2.342998">
        <ele>48.120</ele>
        <time>2019-06-15T16:53:15Z</time>
      </trkpt>
      <trkpt lat="43.302171" lon="-2.343132">
        <ele>48.949</ele>
        <time>2019-06-15T16:53:16Z</time>
      </trkpt>
      <trkpt lat="43.302214" lon="-2.343265">
        <ele>47.878</ele>
        <time>2019-06-15T16:53:17Z</time>
      </trkpt>
      <trkpt lat="43.302227" lon="-2.343411">
        <ele>46.057</ele>
        <time>2019-06-15T16:53:18Z</time>
      </trkpt>
      <trkpt lat="43.302209" lon="-2.343545">
        <ele>44.948</ele>
        <time>2019-06-15T16:53:19Z</time>
      </trkpt>
      <trkpt lat="43.302171" lon="-2.343676">
        <ele>44.467</ele>
        <time>2019-06-15T16:53:20Z</time>
      </trkpt>
      <trkpt lat="43.302106" lon="-2.343782">
        <ele>44.551</ele>
        <time>2019-06-15T16:53:21Z</time>
      </trkpt>
      <trkpt lat="43.302019" lon="-2.343885">
        <ele>43.839</ele>
        <time>2019-06-15T16:53:22Z</time>
      </trkpt>
      <trkpt lat="43.301922" lon="-2.343984">
        <ele>40.701</ele>
        <time>2019-06-15T16:53:23Z</time>
      </trkpt>
      <trkpt lat="43.301786" lon="-2.344068">
        <ele>39.421</ele>
        <time>2019-06-15T16:53:24Z</time>
      </trkpt>
      <trkpt lat="43.301670" lon="-2.344156">
        <ele>37.508</ele>
        <time>2019-06-15T16:53:25Z</time>
      </trkpt>
      <trkpt lat="43.301560" lon="-2.344264">
        <ele>38.616</ele>
        <time>2019-06-15T16:53:26Z</time>
      </trkpt>
      <trkpt lat="43.301478" lon="-2.344385">
        <ele>38.640</ele>
        <time>2019-06-15T16:53:27Z</time>
      </trkpt>
      <trkpt lat="43.301412" lon="-2.344518">
        <ele>38.589</ele>
        <time>2019-06-15T16:53:28Z</time>
      </trkpt>
      <trkpt lat="43.301358" lon="-2.344673">
        <ele>37.858</ele>
        <time>2019-06-15T16:53:29Z</time>
      </trkpt>
      <trkpt lat="43.301288" lon="-2.344791">
        <ele>34.617</ele>
        <time>2019-06-15T16:53:30Z</time>
      </trkpt>
      <trkpt lat="43.301204" lon="-2.344899">
        <ele>31.168</ele>
        <time>2019-06-15T16:53:31Z</time>
      </trkpt>
      <trkpt lat="43.301104" lon="-2.344973">
        <ele>30.547</ele>
        <time>2019-06-15T16:53:32Z</time>
      </trkpt>
      <trkpt lat="43.300968" lon="-2.344982">
        <ele>32.091</ele>
        <time>2019-06-15T16:53:33Z</time>
      </trkpt>
      <trkpt lat="43.300843" lon="-2.344976">
        <ele>34.262</ele>
        <time>2019-06-15T16:53:34Z</time>
      </trkpt>
      <trkpt lat="43.300720" lon="-2.344953">
        <ele>34.683</ele>
        <time>2019-06-15T16:53:35Z</time>
      </trkpt>
      <trkpt lat="43.300597" lon="-2.344936">
        <ele>34.411</ele>
        <time>2019-06-15T16:53:36Z</time>
      </trkpt>
      <trkpt lat="43.300481" lon="-2.344939">
        <ele>34.408</ele>
        <time>2019-06-15T16:53:37Z</time>
      </trkpt>
      <trkpt lat="43.300366" lon="-2.344958">
        <ele>34.529</ele>
        <time>2019-06-15T16:53:38Z</time>
      </trkpt>
      <trkpt lat="43.300239" lon="-2.345048">
        <ele>32.353</ele>
        <time>2019-06-15T16:53:39Z</time>
      </trkpt>
      <trkpt lat="43.300122" lon="-2.345136">
        <ele>31.082</ele>
        <time>2019-06-15T16:53:40Z</time>
      </trkpt>
      <trkpt lat="43.300018" lon="-2.345241">
        <ele>30.581</ele>
        <time>2019-06-15T16:53:41Z</time>
      </trkpt>
      <trkpt lat="43.299917" lon="-2.345381">
        <ele>26.460</ele>
        <time>2019-06-15T16:53:42Z</time>
      </trkpt>
      <trkpt lat="43.299817" lon="-2.345541">
        <ele>24.161</ele>
        <time>2019-06-15T16:53:43Z</time>
      </trkpt>
      <trkpt lat="43.299714" lon="-2.345702">
        <ele>26.970</ele>
        <time>2019-06-15T16:53:44Z</time>
      </trkpt>
      <trkpt lat="43.299610" lon="-2.345853">
        <ele>27.494</ele>
        <time>2019-06-15T16:53:45Z</time>
      </trkpt>
      <trkpt lat="43.299501" lon="-2.345980">
        <ele>25.317</ele>
        <time>2019-06-15T16:53:46Z</time>
      </trkpt>
      <trkpt lat="43.299395" lon="-2.346120">
        <ele>22.887</ele>
        <time>2019-06-15T16:53:47Z</time>
      </trkpt>
      <trkpt lat="43.299297" lon="-2.346275">
        <ele>21.515</ele>
        <time>2019-06-15T16:53:48Z</time>
      </trkpt>
      <trkpt lat="43.299210" lon="-2.346432">
        <ele>21.508</ele>
        <time>2019-06-15T16:53:49Z</time>
      </trkpt>
      <trkpt lat="43.299138" lon="-2.346598">
        <ele>22.674</ele>
        <time>2019-06-15T16:53:50Z</time>
      </trkpt>
      <trkpt lat="43.299100" lon="-2.346824">
        <ele>20.488</ele>
        <time>2019-06-15T16:53:51Z</time>
      </trkpt>
      <trkpt lat="43.299044" lon="-2.347008">
        <ele>19.447</ele>
        <time>2019-06-15T16:53:52Z</time>
      </trkpt>
      <trkpt lat="43.298966" lon="-2.347177">
        <ele>18.716</ele>
        <time>2019-06-15T16:53:53Z</time>
      </trkpt>
      <trkpt lat="43.298891" lon="-2.347351">
        <ele>16.725</ele>
        <time>2019-06-15T16:53:54Z</time>
      </trkpt>
      <trkpt lat="43.298813" lon="-2.347520">
        <ele>16.486</ele>
        <time>2019-06-15T16:53:55Z</time>
      </trkpt>
      <trkpt lat="43.298746" lon="-2.347683">
        <ele>16.025</ele>
        <time>2019-06-15T16:53:56Z</time>
      </trkpt>
      <trkpt lat="43.298693" lon="-2.347853">
        <ele>15.349</ele>
        <time>2019-06-15T16:53:57Z</time>
      </trkpt>
      <trkpt lat="43.298638" lon="-2.348026">
        <ele>16.044</ele>
        <time>2019-06-15T16:53:58Z</time>
      </trkpt>
      <trkpt lat="43.298653" lon="-2.348199">
        <ele>14.305</ele>
        <time>2019-06-15T16:53:59Z</time>
      </trkpt>
      <trkpt lat="43.298653" lon="-2.348392">
        <ele>13.915</ele>
        <time>2019-06-15T16:54:00Z</time>
      </trkpt>
      <trkpt lat="43.298644" lon="-2.348605">
        <ele>14.308</ele>
        <time>2019-06-15T16:54:01Z</time>
      </trkpt>
      <trkpt lat="43.298663" lon="-2.348808">
        <ele>12.147</ele>
        <time>2019-06-15T16:54:02Z</time>
      </trkpt>
      <trkpt lat="43.298653" lon="-2.349030">
        <ele>11.291</ele>
        <time>2019-06-15T16:54:03Z</time>
      </trkpt>
      <trkpt lat="43.298650" lon="-2.349240">
        <ele>10.250</ele>
        <time>2019-06-15T16:54:04Z</time>
      </trkpt>
      <trkpt lat="43.298645" lon="-2.349443">
        <ele>9.759</ele>
        <time>2019-06-15T16:54:05Z</time>
      </trkpt>
      <trkpt lat="43.298643" lon="-2.349648">
        <ele>10.438</ele>
        <time>2019-06-15T16:54:06Z</time>
      </trkpt>
      <trkpt lat="43.298642" lon="-2.349843">
        <ele>10.759</ele>
        <time>2019-06-15T16:54:07Z</time>
      </trkpt>
      <trkpt lat="43.298644" lon="-2.350032">
        <ele>10.598</ele>
        <time>2019-06-15T16:54:08Z</time>
      </trkpt>
      <trkpt lat="43.298640" lon="-2.350213">
        <ele>10.172</ele>
        <time>2019-06-15T16:54:09Z</time>
      </trkpt>
      <trkpt lat="43.298637" lon="-2.350343">
        <ele>10.086</ele>
        <time>2019-06-15T16:54:10Z</time>
      </trkpt>
      <trkpt lat="43.298635" lon="-2.350490">
        <ele>10.160</ele>
        <time>2019-06-15T16:54:11Z</time>
      </trkpt>
      <trkpt lat="43.298624" lon="-2.350618">
        <ele>9.226</ele>
        <time>2019-06-15T16:54:12Z</time>
      </trkpt>
      <trkpt lat="43.298595" lon="-2.350693">
        <ele>8.408</ele>
        <time>2019-06-15T16:54:13Z</time>
      </trkpt>
      <trkpt lat="43.298543" lon="-2.350763">
        <ele>7.361</ele>
        <time>2019-06-15T16:54:14Z</time>
      </trkpt>
      <trkpt lat="43.298470" lon="-2.350810">
        <ele>6.465</ele>
        <time>2019-06-15T16:54:15Z</time>
      </trkpt>
      <trkpt lat="43.298385" lon="-2.350800">
        <ele>7.494</ele>
        <time>2019-06-15T16:54:16Z</time>
      </trkpt>
      <trkpt lat="43.298297" lon="-2.350774">
        <ele>8.623</ele>
        <time>2019-06-15T16:54:17Z</time>
      </trkpt>
      <trkpt lat="43.298210" lon="-2.350707">
        <ele>9.742</ele>
        <time>2019-06-15T16:54:18Z</time>
      </trkpt>
      <trkpt lat="43.298123" lon="-2.350619">
        <ele>10.063</ele>
        <time>2019-06-15T16:54:19Z</time>
      </trkpt>
      <trkpt lat="43.298035" lon="-2.350538">
        <ele>9.522</ele>
        <time>2019-06-15T16:54:20Z</time>
      </trkpt>
      <trkpt lat="43.297949" lon="-2.350450">
        <ele>11.256</ele>
        <time>2019-06-15T16:54:21Z</time>
      </trkpt>
      <trkpt lat="43.297866" lon="-2.350377">
        <ele>10.475</ele>
        <time>2019-06-15T16:54:22Z</time>
      </trkpt>
      <trkpt lat="43.297776" lon="-2.350329">
        <ele>7.428</ele>
        <time>2019-06-15T16:54:23Z</time>
      </trkpt>
      <trkpt lat="43.297705" lon="-2.350293">
        <ele>7.620</ele>
        <time>2019-06-15T16:54:24Z</time>
      </trkpt>
      <trkpt lat="43.297619" lon="-2.350254">
        <ele>8.108</ele>
        <time>2019-06-15T16:54:25Z</time>
      </trkpt>
      <trkpt lat="43.297534" lon="-2.350229">
        <ele>7.880</ele>
        <time>2019-06-15T16:54:26Z</time>
      </trkpt>
      <trkpt lat="43.297449" lon="-2.350207">
        <ele>7.364</ele>
        <time>2019-06-15T16:54:27Z</time>
      </trkpt>
      <trkpt lat="43.297371" lon="-2.350222">
        <ele>6.963</ele>
        <time>2019-06-15T16:54:28Z</time>
      </trkpt>
      <trkpt lat="43.297277" lon="-2.350280">
        <ele>6.252</ele>
        <time>2019-06-15T16:54:29Z</time>
      </trkpt>
      <trkpt lat="43.297191" lon="-2.350357">
        <ele>5.791</ele>
        <time>2019-06-15T16:54:30Z</time>
      </trkpt>
      <trkpt lat="43.297114" lon="-2.350415">
        <ele>5.552</ele>
        <time>2019-06-15T16:54:31Z</time>
      </trkpt>
      <trkpt lat="43.297062" lon="-2.350482">
        <ele>5.331</ele>
        <time>2019-06-15T16:54:32Z</time>
      </trkpt>
      <trkpt lat="43.296999" lon="-2.350552">
        <ele>5.055</ele>
        <time>2019-06-15T16:54:33Z</time>
      </trkpt>
      <trkpt lat="43.296926" lon="-2.350649">
        <ele>5.092</ele>
        <time>2019-06-15T16:54:34Z</time>
      </trkpt>
      <trkpt lat="43.296858" lon="-2.350745">
        <ele>5.173</ele>
        <time>2019-06-15T16:54:35Z</time>
      </trkpt>
      <trkpt lat="43.296814" lon="-2.350871">
        <ele>5.020</ele>
        <time>2019-06-15T16:54:36Z</time>
      </trkpt>
      <trkpt lat="43.296765" lon="-2.350974">
        <ele>5.008</ele>
        <time>2019-06-15T16:54:37Z</time>
      </trkpt>
      <trkpt lat="43.296725" lon="-2.351086">
        <ele>5.042</ele>
        <time>2019-06-15T16:54:38Z</time>
      </trkpt>
      <trkpt lat="43.296674" lon="-2.351207">
        <ele>5.096</ele>
        <time>2019-06-15T16:54:39Z</time>
      </trkpt>
      <trkpt lat="43.296630" lon="-2.351301">
        <ele>5.045</ele>
        <time>2019-06-15T16:54:40Z</time>
      </trkpt>
      <trkpt lat="43.296588" lon="-2.351401">
        <ele>5.024</ele>
        <time>2019-06-15T16:54:41Z</time>
      </trkpt>
      <trkpt lat="43.296547" lon="-2.351511">
        <ele>4.873</ele>
        <time>2019-06-15T16:54:42Z</time>
      </trkpt>
      <trkpt lat="43.296504" lon="-2.351616">
        <ele>4.734</ele>
        <time>2019-06-15T16:54:43Z</time>
      </trkpt>
      <trkpt lat="43.296461" lon="-2.351741">
        <ele>4.783</ele>
        <time>2019-06-15T16:54:44Z</time>
      </trkpt>
      <trkpt lat="43.296417" lon="-2.351845">
        <ele>4.917</ele>
        <time>2019-06-15T16:54:45Z</time>
      </trkpt>
      <trkpt lat="43.296379" lon="-2.351954">
        <ele>5.062</ele>
        <time>2019-06-15T16:54:46Z</time>
      </trkpt>
      <trkpt lat="43.296345" lon="-2.352037">
        <ele>4.783</ele>
        <time>2019-06-15T16:54:47Z</time>
      </trkpt>
      <trkpt lat="43.296315" lon="-2.352118">
        <ele>4.511</ele>
        <time>2019-06-15T16:54:48Z</time>
      </trkpt>
      <trkpt lat="43.296278" lon="-2.352204">
        <ele>4.408</ele>
        <time>2019-06-15T16:54:49Z</time>
      </trkpt>
      <trkpt lat="43.296252" lon="-2.352291">
        <ele>4.489</ele>
        <time>2019-06-15T16:54:50Z</time>
      </trkpt>
      <trkpt lat="43.296222" lon="-2.352371">
        <ele>4.333</ele>
        <time>2019-06-15T16:54:51Z</time>
      </trkpt>
      <trkpt lat="43.296191" lon="-2.352449">
        <ele>4.172</ele>
        <time>2019-06-15T16:54:52Z</time>
      </trkpt>
      <trkpt lat="43.296162" lon="-2.352538">
        <ele>4.031</ele>
        <time>2019-06-15T16:54:53Z</time>
      </trkpt>
      <trkpt lat="43.296135" lon="-2.352605">
        <ele>4.070</ele>
        <time>2019-06-15T16:54:54Z</time>
      </trkpt>
      <trkpt lat="43.296108" lon="-2.352685">
        <ele>4.041</ele>
        <time>2019-06-15T16:54:55Z</time>
      </trkpt>
      <trkpt lat="43.296070" lon="-2.352790">
        <ele>4.060</ele>
        <time>2019-06-15T16:54:56Z</time>
      </trkpt>
      <trkpt lat="43.296035" lon="-2.352882">
        <ele>4.034</ele>
        <time>2019-06-15T16:54:57Z</time>
      </trkpt>
      <trkpt lat="43.295948" lon="-2.352985">
        <ele>4.099</ele>
        <time>2019-06-15T16:54:58Z</time>
      </trkpt>
      <trkpt lat="43.295918" lon="-2.353083">
        <ele>4.007</ele>
        <time>2019-06-15T16:54:59Z</time>
      </trkpt>
      <trkpt lat="43.295867" lon="-2.353168">
        <ele>4.027</ele>
        <time>2019-06-15T16:55:00Z</time>
      </trkpt>
      <trkpt lat="43.295830" lon="-2.353262">
        <ele>4.008</ele>
        <time>2019-06-15T16:55:01Z</time>
      </trkpt>
      <trkpt lat="43.295806" lon="-2.353367">
        <ele>4.012</ele>
        <time>2019-06-15T16:55:02Z</time>
      </trkpt>
      <trkpt lat="43.295773" lon="-2.353459">
        <ele>4.076</ele>
        <time>2019-06-15T16:55:03Z</time>
      </trkpt>
      <trkpt lat="43.295740" lon="-2.353553">
        <ele>4.015</ele>
        <time>2019-06-15T16:55:04Z</time>
      </trkpt>
      <trkpt lat="43.295712" lon="-2.353644">
        <ele>4.014</ele>
        <time>2019-06-15T16:55:05Z</time>
      </trkpt>
      <trkpt lat="43.295677" lon="-2.353746">
        <ele>4.093</ele>
        <time>2019-06-15T16:55:06Z</time>
      </trkpt>
      <trkpt lat="43.295645" lon="-2.353836">
        <ele>4.084</ele>
        <time>2019-06-15T16:55:07Z</time>
      </trkpt>
      <trkpt lat="43.295629" lon="-2.353935">
        <ele>4.023</ele>
        <time>2019-06-15T16:55:08Z</time>
      </trkpt>
      <trkpt lat="43.295584" lon="-2.354021">
        <ele>4.087</ele>
        <time>2019-06-15T16:55:09Z</time>
      </trkpt>
      <trkpt lat="43.295547" lon="-2.354124">
        <ele>4.094</ele>
        <time>2019-06-15T16:55:10Z</time>
      </trkpt>
      <trkpt lat="43.295517" lon="-2.354212">
        <ele>4.057</ele>
        <time>2019-06-15T16:55:11Z</time>
      </trkpt>
      <trkpt lat="43.295477" lon="-2.354284">
        <ele>4.022</ele>
        <time>2019-06-15T16:55:12Z</time>
      </trkpt>
      <trkpt lat="43.295445" lon="-2.354369">
        <ele>4.008</ele>
        <time>2019-06-15T16:55:13Z</time>
      </trkpt>
      <trkpt lat="43.295419" lon="-2.354462">
        <ele>4.082</ele>
        <time>2019-06-15T16:55:14Z</time>
      </trkpt>
      <trkpt lat="43.295388" lon="-2.354561">
        <ele>4.076</ele>
        <time>2019-06-15T16:55:15Z</time>
      </trkpt>
      <trkpt lat="43.295356" lon="-2.354655">
        <ele>4.095</ele>
        <time>2019-06-15T16:55:16Z</time>
      </trkpt>
      <trkpt lat="43.295311" lon="-2.354745">
        <ele>4.054</ele>
        <time>2019-06-15T16:55:17Z</time>
      </trkpt>
      <trkpt lat="43.295275" lon="-2.354829">
        <ele>4.023</ele>
        <time>2019-06-15T16:55:18Z</time>
      </trkpt>
      <trkpt lat="43.295239" lon="-2.354907">
        <ele>4.084</ele>
        <time>2019-06-15T16:55:19Z</time>
      </trkpt>
      <trkpt lat="43.295187" lon="-2.354967">
        <ele>4.013</ele>
        <time>2019-06-15T16:55:20Z</time>
      </trkpt>
      <trkpt lat="43.295140" lon="-2.355016">
        <ele>4.067</ele>
        <time>2019-06-15T16:55:21Z</time>
      </trkpt>
      <trkpt lat="43.295086" lon="-2.355056">
        <ele>4.094</ele>
        <time>2019-06-15T16:55:22Z</time>
      </trkpt>
      <trkpt lat="43.295029" lon="-2.355098">
        <ele>4.057</ele>
        <time>2019-06-15T16:55:23Z</time>
      </trkpt>
      <trkpt lat="43.294944" lon="-2.355106">
        <ele>4.022</ele>
        <time>2019-06-15T16:55:25Z</time>
      </trkpt>
      <trkpt lat="43.294898" lon="-2.355110">
        <ele>4.008</ele>
        <time>2019-06-15T16:55:26Z</time>
      </trkpt>
      <trkpt lat="43.294842" lon="-2.355102">
        <ele>4.072</ele>
        <time>2019-06-15T16:55:27Z</time>
      </trkpt>
      <trkpt lat="43.294770" lon="-2.355127">
        <ele>4.096</ele>
        <time>2019-06-15T16:55:28Z</time>
      </trkpt>
      <trkpt lat="43.294719" lon="-2.355137">
        <ele>4.075</ele>
        <time>2019-06-15T16:55:29Z</time>
      </trkpt>
      <trkpt lat="43.294669" lon="-2.355151">
        <ele>3.974</ele>
        <time>2019-06-15T16:55:30Z</time>
      </trkpt>
      <trkpt lat="43.294608" lon="-2.355187">
        <ele>3.733</ele>
        <time>2019-06-15T16:55:31Z</time>
      </trkpt>
      <trkpt lat="43.294543" lon="-2.355210">
        <ele>3.584</ele>
        <time>2019-06-15T16:55:32Z</time>
      </trkpt>
      <trkpt lat="43.294481" lon="-2.355251">
        <ele>3.223</ele>
        <time>2019-06-15T16:55:33Z</time>
      </trkpt>
      <trkpt lat="43.294429" lon="-2.355275">
        <ele>3.077</ele>
        <time>2019-06-15T16:55:34Z</time>
      </trkpt>
      <trkpt lat="43.294346" lon="-2.355299">
        <ele>3.042</ele>
        <time>2019-06-15T16:55:35Z</time>
      </trkpt>
      <trkpt lat="43.294260" lon="-2.355312">
        <ele>3.022</ele>
        <time>2019-06-15T16:55:36Z</time>
      </trkpt>
      <trkpt lat="43.294177" lon="-2.355319">
        <ele>3.014</ele>
        <time>2019-06-15T16:55:37Z</time>
      </trkpt>
      <trkpt lat="43.294097" lon="-2.355332">
        <ele>3.008</ele>
        <time>2019-06-15T16:55:38Z</time>
      </trkpt>
      <trkpt lat="43.294007" lon="-2.355312">
        <ele>3.167</ele>
        <time>2019-06-15T16:55:39Z</time>
      </trkpt>
      <trkpt lat="43.293921" lon="-2.355316">
        <ele>3.171</ele>
        <time>2019-06-15T16:55:40Z</time>
      </trkpt>
      <trkpt lat="43.293862" lon="-2.355280">
        <ele>3.030</ele>
        <time>2019-06-15T16:55:41Z</time>
      </trkpt>
      <trkpt lat="43.293784" lon="-2.355272">
        <ele>3.099</ele>
        <time>2019-06-15T16:55:42Z</time>
      </trkpt>
      <trkpt lat="43.293703" lon="-2.355273">
        <ele>3.038</ele>
        <time>2019-06-15T16:55:43Z</time>
      </trkpt>
      <trkpt lat="43.293619" lon="-2.355277">
        <ele>3.049</ele>
        <time>2019-06-15T16:55:44Z</time>
      </trkpt>
      <trkpt lat="43.293551" lon="-2.355294">
        <ele>3.048</ele>
        <time>2019-06-15T16:55:45Z</time>
      </trkpt>
      <trkpt lat="43.293458" lon="-2.355349">
        <ele>3.192</ele>
        <time>2019-06-15T16:55:46Z</time>
      </trkpt>
      <trkpt lat="43.293376" lon="-2.355392">
        <ele>3.374</ele>
        <time>2019-06-15T16:55:47Z</time>
      </trkpt>
      <trkpt lat="43.293311" lon="-2.355417">
        <ele>3.556</ele>
        <time>2019-06-15T16:55:48Z</time>
      </trkpt>
      <trkpt lat="43.293250" lon="-2.355462">
        <ele>3.521</ele>
        <time>2019-06-15T16:55:49Z</time>
      </trkpt>
      <trkpt lat="43.293173" lon="-2.355514">
        <ele>3.408</ele>
        <time>2019-06-15T16:55:50Z</time>
      </trkpt>
      <trkpt lat="43.293117" lon="-2.355555">
        <ele>3.210</ele>
        <time>2019-06-15T16:55:51Z</time>
      </trkpt>
      <trkpt lat="43.293074" lon="-2.355581">
        <ele>3.164</ele>
        <time>2019-06-15T16:55:52Z</time>
      </trkpt>
      <trkpt lat="43.293024" lon="-2.355621">
        <ele>3.043</ele>
        <time>2019-06-15T16:55:53Z</time>
      </trkpt>
      <trkpt lat="43.292970" lon="-2.355656">
        <ele>3.042</ele>
        <time>2019-06-15T16:55:54Z</time>
      </trkpt>
      <trkpt lat="43.292912" lon="-2.355697">
        <ele>3.091</ele>
        <time>2019-06-15T16:55:55Z</time>
      </trkpt>
      <trkpt lat="43.292868" lon="-2.355725">
        <ele>3.012</ele>
        <time>2019-06-15T16:55:56Z</time>
      </trkpt>
      <trkpt lat="43.292791" lon="-2.355759">
        <ele>3.041</ele>
        <time>2019-06-15T16:55:58Z</time>
      </trkpt>
      <trkpt lat="43.292739" lon="-2.355815">
        <ele>3.075</ele>
        <time>2019-06-15T16:56:00Z</time>
      </trkpt>
      <trkpt lat="43.292653" lon="-2.355856">
        <ele>3.071</ele>
        <time>2019-06-15T16:56:02Z</time>
      </trkpt>
      <trkpt lat="43.292604" lon="-2.355890">
        <ele>2.941</ele>
        <time>2019-06-15T16:56:03Z</time>
      </trkpt>
      <trkpt lat="43.292583" lon="-2.355991">
        <ele>2.815</ele>
        <time>2019-06-15T16:56:04Z</time>
      </trkpt>
      <trkpt lat="43.292527" lon="-2.356025">
        <ele>2.908</ele>
        <time>2019-06-15T16:56:05Z</time>
      </trkpt>
      <trkpt lat="43.292485" lon="-2.356061">
        <ele>3.060</ele>
        <time>2019-06-15T16:56:06Z</time>
      </trkpt>
      <trkpt lat="43.292439" lon="-2.356094">
        <ele>3.074</ele>
        <time>2019-06-15T16:56:08Z</time>
      </trkpt>
      <trkpt lat="43.292401" lon="-2.356172">
        <ele>2.963</ele>
        <time>2019-06-15T16:56:10Z</time>
      </trkpt>
      <trkpt lat="43.292357" lon="-2.356238">
        <ele>3.042</ele>
        <time>2019-06-15T16:56:18Z</time>
      </trkpt>
      <trkpt lat="43.292306" lon="-2.356272">
        <ele>3.291</ele>
        <time>2019-06-15T16:56:19Z</time>
      </trkpt>
      <trkpt lat="43.292255" lon="-2.356307">
        <ele>3.512</ele>
        <time>2019-06-15T16:56:20Z</time>
      </trkpt>
      <trkpt lat="43.292179" lon="-2.356350">
        <ele>3.811</ele>
        <time>2019-06-15T16:56:21Z</time>
      </trkpt>
      <trkpt lat="43.292114" lon="-2.356387">
        <ele>3.645</ele>
        <time>2019-06-15T16:56:22Z</time>
      </trkpt>
      <trkpt lat="43.292025" lon="-2.356441">
        <ele>3.185</ele>
        <time>2019-06-15T16:56:23Z</time>
      </trkpt>
      <trkpt lat="43.291941" lon="-2.356495">
        <ele>3.089</ele>
        <time>2019-06-15T16:56:24Z</time>
      </trkpt>
      <trkpt lat="43.291822" lon="-2.356511">
        <ele>3.717</ele>
        <time>2019-06-15T16:56:25Z</time>
      </trkpt>
      <trkpt lat="43.291706" lon="-2.356557">
        <ele>4.208</ele>
        <time>2019-06-15T16:56:26Z</time>
      </trkpt>
      <trkpt lat="43.291600" lon="-2.356613">
        <ele>4.491</ele>
        <time>2019-06-15T16:56:27Z</time>
      </trkpt>
      <trkpt lat="43.291489" lon="-2.356681">
        <ele>3.975</ele>
        <time>2019-06-15T16:56:28Z</time>
      </trkpt>
      <trkpt lat="43.291369" lon="-2.356739">
        <ele>3.814</ele>
        <time>2019-06-15T16:56:29Z</time>
      </trkpt>
      <trkpt lat="43.291266" lon="-2.356775">
        <ele>4.183</ele>
        <time>2019-06-15T16:56:30Z</time>
      </trkpt>
      <trkpt lat="43.291150" lon="-2.356814">
        <ele>4.352</ele>
        <time>2019-06-15T16:56:31Z</time>
      </trkpt>
      <trkpt lat="43.291039" lon="-2.356859">
        <ele>4.143</ele>
        <time>2019-06-15T16:56:32Z</time>
      </trkpt>
      <trkpt lat="43.290928" lon="-2.356912">
        <ele>4.062</ele>
        <time>2019-06-15T16:56:33Z</time>
      </trkpt>
      <trkpt lat="43.290831" lon="-2.356938">
        <ele>4.076</ele>
        <time>2019-06-15T16:56:34Z</time>
      </trkpt>
      <trkpt lat="43.290728" lon="-2.357011">
        <ele>4.327</ele>
        <time>2019-06-15T16:56:35Z</time>
      </trkpt>
      <trkpt lat="43.290608" lon="-2.357049">
        <ele>4.668</ele>
        <time>2019-06-15T16:56:36Z</time>
      </trkpt>
      <trkpt lat="43.290494" lon="-2.357086">
        <ele>5.514</ele>
        <time>2019-06-15T16:56:37Z</time>
      </trkpt>
      <trkpt lat="43.290376" lon="-2.357134">
        <ele>6.308</ele>
        <time>2019-06-15T16:56:38Z</time>
      </trkpt>
      <trkpt lat="43.290251" lon="-2.357147">
        <ele>7.345</ele>
        <time>2019-06-15T16:56:39Z</time>
      </trkpt>
      <trkpt lat="43.290116" lon="-2.357159">
        <ele>7.499</ele>
        <time>2019-06-15T16:56:40Z</time>
      </trkpt>
      <trkpt lat="43.289982" lon="-2.357174">
        <ele>7.128</ele>
        <time>2019-06-15T16:56:41Z</time>
      </trkpt>
      <trkpt lat="43.289842" lon="-2.357173">
        <ele>6.917</ele>
        <time>2019-06-15T16:56:42Z</time>
      </trkpt>
      <trkpt lat="43.289707" lon="-2.357187">
        <ele>6.546</ele>
        <time>2019-06-15T16:56:43Z</time>
      </trkpt>
      <trkpt lat="43.289570" lon="-2.357224">
        <ele>6.667</ele>
        <time>2019-06-15T16:56:44Z</time>
      </trkpt>
      <trkpt lat="43.289435" lon="-2.357280">
        <ele>7.036</ele>
        <time>2019-06-15T16:56:45Z</time>
      </trkpt>
      <trkpt lat="43.289301" lon="-2.357389">
        <ele>7.140</ele>
        <time>2019-06-15T16:56:46Z</time>
      </trkpt>
      <trkpt lat="43.289180" lon="-2.357494">
        <ele>6.074</ele>
        <time>2019-06-15T16:56:47Z</time>
      </trkpt>
      <trkpt lat="43.289061" lon="-2.357617">
        <ele>6.456</ele>
        <time>2019-06-15T16:56:48Z</time>
      </trkpt>
      <trkpt lat="43.288941" lon="-2.357757">
        <ele>6.421</ele>
        <time>2019-06-15T16:56:49Z</time>
      </trkpt>
      <trkpt lat="43.288831" lon="-2.357931">
        <ele>6.608</ele>
        <time>2019-06-15T16:56:50Z</time>
      </trkpt>
      <trkpt lat="43.288732" lon="-2.358099">
        <ele>7.490</ele>
        <time>2019-06-15T16:56:51Z</time>
      </trkpt>
      <trkpt lat="43.288617" lon="-2.358269">
        <ele>7.364</ele>
        <time>2019-06-15T16:56:52Z</time>
      </trkpt>
      <trkpt lat="43.288540" lon="-2.358355">
        <ele>8.943</ele>
        <time>2019-06-15T16:56:53Z</time>
      </trkpt>
      <trkpt lat="43.288440" lon="-2.358525">
        <ele>9.542</ele>
        <time>2019-06-15T16:56:54Z</time>
      </trkpt>
      <trkpt lat="43.288372" lon="-2.358715">
        <ele>8.141</ele>
        <time>2019-06-15T16:56:55Z</time>
      </trkpt>
      <trkpt lat="43.288301" lon="-2.358907">
        <ele>7.652</ele>
        <time>2019-06-15T16:56:56Z</time>
      </trkpt>
      <trkpt lat="43.288235" lon="-2.359123">
        <ele>9.031</ele>
        <time>2019-06-15T16:56:57Z</time>
      </trkpt>
      <trkpt lat="43.288159" lon="-2.359342">
        <ele>10.715</ele>
        <time>2019-06-15T16:56:58Z</time>
      </trkpt>
      <trkpt lat="43.288117" lon="-2.359552">
        <ele>11.349</ele>
        <time>2019-06-15T16:56:59Z</time>
      </trkpt>
      <trkpt lat="43.288195" lon="-2.359777">
        <ele>8.302</ele>
        <time>2019-06-15T16:57:00Z</time>
      </trkpt>
      <trkpt lat="43.288235" lon="-2.359987">
        <ele>7.622</ele>
        <time>2019-06-15T16:57:01Z</time>
      </trkpt>
      <trkpt lat="43.288271" lon="-2.360198">
        <ele>7.708</ele>
        <time>2019-06-15T16:57:02Z</time>
      </trkpt>
      <trkpt lat="43.288313" lon="-2.360403">
        <ele>6.967</ele>
        <time>2019-06-15T16:57:03Z</time>
      </trkpt>
      <trkpt lat="43.288379" lon="-2.360590">
        <ele>6.061</ele>
        <time>2019-06-15T16:57:04Z</time>
      </trkpt>
      <trkpt lat="43.288433" lon="-2.360780">
        <ele>4.890</ele>
        <time>2019-06-15T16:57:05Z</time>
      </trkpt>
      <trkpt lat="43.288499" lon="-2.360970">
        <ele>3.769</ele>
        <time>2019-06-15T16:57:06Z</time>
      </trkpt>
      <trkpt lat="43.288570" lon="-2.361141">
        <ele>3.138</ele>
        <time>2019-06-15T16:57:07Z</time>
      </trkpt>
      <trkpt lat="43.288635" lon="-2.361273">
        <ele>3.549</ele>
        <time>2019-06-15T16:57:08Z</time>
      </trkpt>
      <trkpt lat="43.288710" lon="-2.361428">
        <ele>4.088</ele>
        <time>2019-06-15T16:57:09Z</time>
      </trkpt>
      <trkpt lat="43.288798" lon="-2.361577">
        <ele>4.072</ele>
        <time>2019-06-15T16:57:10Z</time>
      </trkpt>
      <trkpt lat="43.288864" lon="-2.361707">
        <ele>4.273</ele>
        <time>2019-06-15T16:57:11Z</time>
      </trkpt>
      <trkpt lat="43.288932" lon="-2.361810">
        <ele>4.485</ele>
        <time>2019-06-15T16:57:12Z</time>
      </trkpt>
      <trkpt lat="43.289001" lon="-2.361895">
        <ele>4.513</ele>
        <time>2019-06-15T16:57:13Z</time>
      </trkpt>
      <trkpt lat="43.289077" lon="-2.361975">
        <ele>4.608</ele>
        <time>2019-06-15T16:57:14Z</time>
      </trkpt>
      <trkpt lat="43.289163" lon="-2.362061">
        <ele>4.940</ele>
        <time>2019-06-15T16:57:15Z</time>
      </trkpt>
      <trkpt lat="43.289259" lon="-2.362158">
        <ele>5.324</ele>
        <time>2019-06-15T16:57:16Z</time>
      </trkpt>
      <trkpt lat="43.289364" lon="-2.362250">
        <ele>5.873</ele>
        <time>2019-06-15T16:57:17Z</time>
      </trkpt>
      <trkpt lat="43.289485" lon="-2.362348">
        <ele>6.412</ele>
        <time>2019-06-15T16:57:18Z</time>
      </trkpt>
      <trkpt lat="43.289590" lon="-2.362476">
        <ele>6.631</ele>
        <time>2019-06-15T16:57:19Z</time>
      </trkpt>
      <trkpt lat="43.289708" lon="-2.362580">
        <ele>6.422</ele>
        <time>2019-06-15T16:57:20Z</time>
      </trkpt>
      <trkpt lat="43.289823" lon="-2.362694">
        <ele>6.641</ele>
        <time>2019-06-15T16:57:21Z</time>
      </trkpt>
      <trkpt lat="43.289945" lon="-2.362804">
        <ele>6.245</ele>
        <time>2019-06-15T16:57:22Z</time>
      </trkpt>
      <trkpt lat="43.290045" lon="-2.362926">
        <ele>6.744</ele>
        <time>2019-06-15T16:57:23Z</time>
      </trkpt>
      <trkpt lat="43.290145" lon="-2.363027">
        <ele>7.105</ele>
        <time>2019-06-15T16:57:24Z</time>
      </trkpt>
      <trkpt lat="43.290244" lon="-2.363138">
        <ele>7.615</ele>
        <time>2019-06-15T16:57:25Z</time>
      </trkpt>
      <trkpt lat="43.290323" lon="-2.363241">
        <ele>8.308</ele>
        <time>2019-06-15T16:57:26Z</time>
      </trkpt>
      <trkpt lat="43.290411" lon="-2.363326">
        <ele>8.967</ele>
        <time>2019-06-15T16:57:27Z</time>
      </trkpt>
      <trkpt lat="43.290483" lon="-2.363416">
        <ele>10.331</ele>
        <time>2019-06-15T16:57:28Z</time>
      </trkpt>
      <trkpt lat="43.290562" lon="-2.363479">
        <ele>11.110</ele>
        <time>2019-06-15T16:57:29Z</time>
      </trkpt>
      <trkpt lat="43.290635" lon="-2.363519">
        <ele>11.599</ele>
        <time>2019-06-15T16:57:30Z</time>
      </trkpt>
      <trkpt lat="43.290702" lon="-2.363548">
        <ele>11.748</ele>
        <time>2019-06-15T16:57:31Z</time>
      </trkpt>
      <trkpt lat="43.290764" lon="-2.363546">
        <ele>11.379</ele>
        <time>2019-06-15T16:57:32Z</time>
      </trkpt>
      <trkpt lat="43.290825" lon="-2.363536">
        <ele>10.798</ele>
        <time>2019-06-15T16:57:33Z</time>
      </trkpt>
      <trkpt lat="43.290867" lon="-2.363511">
        <ele>10.262</ele>
        <time>2019-06-15T16:57:34Z</time>
      </trkpt>
      <trkpt lat="43.290908" lon="-2.363470">
        <ele>9.614</ele>
        <time>2019-06-15T16:57:35Z</time>
      </trkpt>
      <trkpt lat="43.290949" lon="-2.363435">
        <ele>9.154</ele>
        <time>2019-06-15T16:57:36Z</time>
      </trkpt>
      <trkpt lat="43.291002" lon="-2.363393">
        <ele>8.609</ele>
        <time>2019-06-15T16:57:37Z</time>
      </trkpt>
      <trkpt lat="43.291054" lon="-2.363375">
        <ele>8.408</ele>
        <time>2019-06-15T16:57:38Z</time>
      </trkpt>
      <trkpt lat="43.291105" lon="-2.363380">
        <ele>8.744</ele>
        <time>2019-06-15T16:57:39Z</time>
      </trkpt>
      <trkpt lat="43.291156" lon="-2.363392">
        <ele>7.728</ele>
        <time>2019-06-15T16:57:40Z</time>
      </trkpt>
      <trkpt lat="43.291199" lon="-2.363422">
        <ele>7.017</ele>
        <time>2019-06-15T16:57:41Z</time>
      </trkpt>
      <trkpt lat="43.291231" lon="-2.363477">
        <ele>6.666</ele>
        <time>2019-06-15T16:57:42Z</time>
      </trkpt>
      <trkpt lat="43.291250" lon="-2.363551">
        <ele>6.625</ele>
        <time>2019-06-15T16:57:43Z</time>
      </trkpt>
      <trkpt lat="43.291257" lon="-2.363639">
        <ele>6.876</ele>
        <time>2019-06-15T16:57:44Z</time>
      </trkpt>
      <trkpt lat="43.291250" lon="-2.363734">
        <ele>7.045</ele>
        <time>2019-06-15T16:57:45Z</time>
      </trkpt>
      <trkpt lat="43.291245" lon="-2.363835">
        <ele>7.219</ele>
        <time>2019-06-15T16:57:46Z</time>
      </trkpt>
      <trkpt lat="43.291267" lon="-2.363965">
        <ele>7.144</ele>
        <time>2019-06-15T16:57:47Z</time>
      </trkpt>
      <trkpt lat="43.291289" lon="-2.364111">
        <ele>7.705</ele>
        <time>2019-06-15T16:57:48Z</time>
      </trkpt>
      <trkpt lat="43.291326" lon="-2.364254">
        <ele>7.915</ele>
        <time>2019-06-15T16:57:49Z</time>
      </trkpt>
      <trkpt lat="43.291357" lon="-2.364411">
        <ele>8.308</ele>
        <time>2019-06-15T16:57:50Z</time>
      </trkpt>
      <trkpt lat="43.291373" lon="-2.364587">
        <ele>8.347</ele>
        <time>2019-06-15T16:57:51Z</time>
      </trkpt>
      <trkpt lat="43.291369" lon="-2.364771">
        <ele>8.441</ele>
        <time>2019-06-15T16:57:52Z</time>
      </trkpt>
      <trkpt lat="43.291336" lon="-2.364970">
        <ele>8.880</ele>
        <time>2019-06-15T16:57:53Z</time>
      </trkpt>
      <trkpt lat="43.291295" lon="-2.365156">
        <ele>8.029</ele>
        <time>2019-06-15T16:57:54Z</time>
      </trkpt>
      <trkpt lat="43.291257" lon="-2.365351">
        <ele>7.338</ele>
        <time>2019-06-15T16:57:55Z</time>
      </trkpt>
      <trkpt lat="43.291185" lon="-2.365528">
        <ele>7.699</ele>
        <time>2019-06-15T16:57:56Z</time>
      </trkpt>
      <trkpt lat="43.291113" lon="-2.365730">
        <ele>7.168</ele>
        <time>2019-06-15T16:57:57Z</time>
      </trkpt>
      <trkpt lat="43.291048" lon="-2.365925">
        <ele>7.552</ele>
        <time>2019-06-15T16:57:58Z</time>
      </trkpt>
      <trkpt lat="43.290992" lon="-2.366088">
        <ele>7.771</ele>
        <time>2019-06-15T16:57:59Z</time>
      </trkpt>
      <trkpt lat="43.290930" lon="-2.366263">
        <ele>7.241</ele>
        <time>2019-06-15T16:58:00Z</time>
      </trkpt>
      <trkpt lat="43.290865" lon="-2.366437">
        <ele>6.115</ele>
        <time>2019-06-15T16:58:01Z</time>
      </trkpt>
      <trkpt lat="43.290749" lon="-2.366592">
        <ele>6.208</ele>
        <time>2019-06-15T16:58:02Z</time>
      </trkpt>
      <trkpt lat="43.290619" lon="-2.366713">
        <ele>5.970</ele>
        <time>2019-06-15T16:58:03Z</time>
      </trkpt>
      <trkpt lat="43.290491" lon="-2.366805">
        <ele>6.354</ele>
        <time>2019-06-15T16:58:04Z</time>
      </trkpt>
      <trkpt lat="43.290351" lon="-2.366900">
        <ele>5.843</ele>
        <time>2019-06-15T16:58:05Z</time>
      </trkpt>
      <trkpt lat="43.290187" lon="-2.367002">
        <ele>5.222</ele>
        <time>2019-06-15T16:58:06Z</time>
      </trkpt>
      <trkpt lat="43.290038" lon="-2.367091">
        <ele>5.241</ele>
        <time>2019-06-15T16:58:07Z</time>
      </trkpt>
      <trkpt lat="43.289887" lon="-2.367133">
        <ele>5.212</ele>
        <time>2019-06-15T16:58:08Z</time>
      </trkpt>
      <trkpt lat="43.289729" lon="-2.367139">
        <ele>5.511</ele>
        <time>2019-06-15T16:58:09Z</time>
      </trkpt>
      <trkpt lat="43.289571" lon="-2.367124">
        <ele>5.265</ele>
        <time>2019-06-15T16:58:10Z</time>
      </trkpt>
      <trkpt lat="43.289398" lon="-2.367081">
        <ele>5.494</ele>
        <time>2019-06-15T16:58:11Z</time>
      </trkpt>
      <trkpt lat="43.289223" lon="-2.367020">
        <ele>5.557</ele>
        <time>2019-06-15T16:58:12Z</time>
      </trkpt>
      <trkpt lat="43.289042" lon="-2.366938">
        <ele>5.322</ele>
        <time>2019-06-15T16:58:13Z</time>
      </trkpt>
      <trkpt lat="43.288861" lon="-2.366843">
        <ele>5.608</ele>
        <time>2019-06-15T16:58:14Z</time>
      </trkpt>
      <trkpt lat="43.288680" lon="-2.366745">
        <ele>5.252</ele>
        <time>2019-06-15T16:58:15Z</time>
      </trkpt>
      <trkpt lat="43.288490" lon="-2.366643">
        <ele>5.196</ele>
        <time>2019-06-15T16:58:16Z</time>
      </trkpt>
      <trkpt lat="43.288301" lon="-2.366562">
        <ele>6.165</ele>
        <time>2019-06-15T16:58:17Z</time>
      </trkpt>
      <trkpt lat="43.288119" lon="-2.366487">
        <ele>6.674</ele>
        <time>2019-06-15T16:58:18Z</time>
      </trkpt>
      <trkpt lat="43.287910" lon="-2.366463">
        <ele>6.753</ele>
        <time>2019-06-15T16:58:19Z</time>
      </trkpt>
      <trkpt lat="43.287705" lon="-2.366431">
        <ele>7.534</ele>
        <time>2019-06-15T16:58:20Z</time>
      </trkpt>
      <trkpt lat="43.287496" lon="-2.366446">
        <ele>7.863</ele>
        <time>2019-06-15T16:58:21Z</time>
      </trkpt>
      <trkpt lat="43.287283" lon="-2.366462">
        <ele>7.477</ele>
        <time>2019-06-15T16:58:22Z</time>
      </trkpt>
      <trkpt lat="43.287072" lon="-2.366469">
        <ele>6.981</ele>
        <time>2019-06-15T16:58:23Z</time>
      </trkpt>
      <trkpt lat="43.286857" lon="-2.366483">
        <ele>6.361</ele>
        <time>2019-06-15T16:58:24Z</time>
      </trkpt>
      <trkpt lat="43.286638" lon="-2.366488">
        <ele>6.217</ele>
        <time>2019-06-15T16:58:25Z</time>
      </trkpt>
      <trkpt lat="43.286423" lon="-2.366486">
        <ele>6.308</ele>
        <time>2019-06-15T16:58:26Z</time>
      </trkpt>
      <trkpt lat="43.286200" lon="-2.366490">
        <ele>6.241</ele>
        <time>2019-06-15T16:58:27Z</time>
      </trkpt>
      <trkpt lat="43.285976" lon="-2.366493">
        <ele>6.655</ele>
        <time>2019-06-15T16:58:28Z</time>
      </trkpt>
      <trkpt lat="43.285754" lon="-2.366494">
        <ele>7.064</ele>
        <time>2019-06-15T16:58:29Z</time>
      </trkpt>
      <trkpt lat="43.285529" lon="-2.366501">
        <ele>6.823</ele>
        <time>2019-06-15T16:58:30Z</time>
      </trkpt>
      <trkpt lat="43.285301" lon="-2.366502">
        <ele>8.772</ele>
        <time>2019-06-15T16:58:31Z</time>
      </trkpt>
      <trkpt lat="43.285071" lon="-2.366512">
        <ele>8.673</ele>
        <time>2019-06-15T16:58:32Z</time>
      </trkpt>
      <trkpt lat="43.284847" lon="-2.366518">
        <ele>8.462</ele>
        <time>2019-06-15T16:58:33Z</time>
      </trkpt>
      <trkpt lat="43.284625" lon="-2.366513">
        <ele>8.176</ele>
        <time>2019-06-15T16:58:34Z</time>
      </trkpt>
      <trkpt lat="43.284408" lon="-2.366514">
        <ele>7.662</ele>
        <time>2019-06-15T16:58:35Z</time>
      </trkpt>
      <trkpt lat="43.284191" lon="-2.366510">
        <ele>9.183</ele>
        <time>2019-06-15T16:58:36Z</time>
      </trkpt>
      <trkpt lat="43.283988" lon="-2.366519">
        <ele>10.211</ele>
        <time>2019-06-15T16:58:37Z</time>
      </trkpt>
      <trkpt lat="43.283787" lon="-2.366532">
        <ele>10.308</ele>
        <time>2019-06-15T16:58:38Z</time>
      </trkpt>
      <trkpt lat="43.283598" lon="-2.366564">
        <ele>8.619</ele>
        <time>2019-06-15T16:58:39Z</time>
      </trkpt>
      <trkpt lat="43.283410" lon="-2.366603">
        <ele>7.293</ele>
        <time>2019-06-15T16:58:40Z</time>
      </trkpt>
      <trkpt lat="43.283222" lon="-2.366651">
        <ele>7.052</ele>
        <time>2019-06-15T16:58:41Z</time>
      </trkpt>
      <trkpt lat="43.283046" lon="-2.366729">
        <ele>6.621</ele>
        <time>2019-06-15T16:58:42Z</time>
      </trkpt>
      <trkpt lat="43.282882" lon="-2.366805">
        <ele>7.330</ele>
        <time>2019-06-15T16:58:43Z</time>
      </trkpt>
      <trkpt lat="43.282721" lon="-2.366897">
        <ele>6.921</ele>
        <time>2019-06-15T16:58:44Z</time>
      </trkpt>
      <trkpt lat="43.282576" lon="-2.366977">
        <ele>6.840</ele>
        <time>2019-06-15T16:58:45Z</time>
      </trkpt>
      <trkpt lat="43.282415" lon="-2.367078">
        <ele>7.014</ele>
        <time>2019-06-15T16:58:46Z</time>
      </trkpt>
      <trkpt lat="43.282263" lon="-2.367134">
        <ele>8.331</ele>
        <time>2019-06-15T16:58:47Z</time>
      </trkpt>
      <trkpt lat="43.282112" lon="-2.367158">
        <ele>8.661</ele>
        <time>2019-06-15T16:58:48Z</time>
      </trkpt>
      <trkpt lat="43.281959" lon="-2.367175">
        <ele>8.507</ele>
        <time>2019-06-15T16:58:49Z</time>
      </trkpt>
      <trkpt lat="43.281810" lon="-2.367146">
        <ele>8.508</ele>
        <time>2019-06-15T16:58:50Z</time>
      </trkpt>
      <trkpt lat="43.281668" lon="-2.367115">
        <ele>7.936</ele>
        <time>2019-06-15T16:58:51Z</time>
      </trkpt>
      <trkpt lat="43.281520" lon="-2.367062">
        <ele>6.790</ele>
        <time>2019-06-15T16:58:52Z</time>
      </trkpt>
      <trkpt lat="43.281426" lon="-2.366726">
        <ele>11.369</ele>
        <time>2019-06-15T16:58:53Z</time>
      </trkpt>
      <trkpt lat="43.281321" lon="-2.366546">
        <ele>11.248</ele>
        <time>2019-06-15T16:58:54Z</time>
      </trkpt>
      <trkpt lat="43.281250" lon="-2.366314">
        <ele>12.187</ele>
        <time>2019-06-15T16:58:55Z</time>
      </trkpt>
      <trkpt lat="43.281189" lon="-2.366071">
        <ele>11.958</ele>
        <time>2019-06-15T16:58:56Z</time>
      </trkpt>
      <trkpt lat="43.281118" lon="-2.365859">
        <ele>11.087</ele>
        <time>2019-06-15T16:58:57Z</time>
      </trkpt>
      <trkpt lat="43.281047" lon="-2.365637">
        <ele>10.661</ele>
        <time>2019-06-15T16:58:58Z</time>
      </trkpt>
      <trkpt lat="43.280985" lon="-2.365425">
        <ele>11.417</ele>
        <time>2019-06-15T16:58:59Z</time>
      </trkpt>
      <trkpt lat="43.280922" lon="-2.365240">
        <ele>11.787</ele>
        <time>2019-06-15T16:59:00Z</time>
      </trkpt>
      <trkpt lat="43.280846" lon="-2.365052">
        <ele>11.615</ele>
        <time>2019-06-15T16:59:01Z</time>
      </trkpt>
      <trkpt lat="43.280734" lon="-2.364867">
        <ele>10.608</ele>
        <time>2019-06-15T16:59:02Z</time>
      </trkpt>
      <trkpt lat="43.280626" lon="-2.364721">
        <ele>11.814</ele>
        <time>2019-06-15T16:59:03Z</time>
      </trkpt>
      <trkpt lat="43.280486" lon="-2.364638">
        <ele>14.588</ele>
        <time>2019-06-15T16:59:04Z</time>
      </trkpt>
      <trkpt lat="43.280311" lon="-2.364618">
        <ele>11.857</ele>
        <time>2019-06-15T16:59:05Z</time>
      </trkpt>
      <trkpt lat="43.280146" lon="-2.364592">
        <ele>11.776</ele>
        <time>2019-06-15T16:59:06Z</time>
      </trkpt>
      <trkpt lat="43.279979" lon="-2.364595">
        <ele>11.055</ele>
        <time>2019-06-15T16:59:07Z</time>
      </trkpt>
      <trkpt lat="43.279808" lon="-2.364632">
        <ele>9.736</ele>
        <time>2019-06-15T16:59:08Z</time>
      </trkpt>
      <trkpt lat="43.279625" lon="-2.364667">
        <ele>9.385</ele>
        <time>2019-06-15T16:59:09Z</time>
      </trkpt>
      <trkpt lat="43.279451" lon="-2.364704">
        <ele>9.819</ele>
        <time>2019-06-15T16:59:10Z</time>
      </trkpt>
      <trkpt lat="43.279277" lon="-2.364752">
        <ele>9.376</ele>
        <time>2019-06-15T16:59:11Z</time>
      </trkpt>
      <trkpt lat="43.279108" lon="-2.364828">
        <ele>8.590</ele>
        <time>2019-06-15T16:59:12Z</time>
      </trkpt>
      <trkpt lat="43.278961" lon="-2.364919">
        <ele>8.119</ele>
        <time>2019-06-15T16:59:13Z</time>
      </trkpt>
      <trkpt lat="43.278816" lon="-2.365020">
        <ele>9.808</ele>
        <time>2019-06-15T16:59:14Z</time>
      </trkpt>
      <trkpt lat="43.278654" lon="-2.365165">
        <ele>9.990</ele>
        <time>2019-06-15T16:59:15Z</time>
      </trkpt>
      <trkpt lat="43.278499" lon="-2.365293">
        <ele>8.634</ele>
        <time>2019-06-15T16:59:16Z</time>
      </trkpt>
      <trkpt lat="43.278348" lon="-2.365416">
        <ele>8.793</ele>
        <time>2019-06-15T16:59:17Z</time>
      </trkpt>
      <trkpt lat="43.278197" lon="-2.365551">
        <ele>8.782</ele>
        <time>2019-06-15T16:59:18Z</time>
      </trkpt>
      <trkpt lat="43.278052" lon="-2.365688">
        <ele>9.581</ele>
        <time>2019-06-15T16:59:19Z</time>
      </trkpt>
      <trkpt lat="43.277907" lon="-2.365836">
        <ele>10.472</ele>
        <time>2019-06-15T16:59:20Z</time>
      </trkpt>
      <trkpt lat="43.277769" lon="-2.365981">
        <ele>11.391</ele>
        <time>2019-06-15T16:59:21Z</time>
      </trkpt>
      <trkpt lat="43.277666" lon="-2.366193">
        <ele>11.255</ele>
        <time>2019-06-15T16:59:22Z</time>
      </trkpt>
      <trkpt lat="43.277562" lon="-2.366384">
        <ele>11.321</ele>
        <time>2019-06-15T16:59:23Z</time>
      </trkpt>
      <trkpt lat="43.277466" lon="-2.366570">
        <ele>12.141</ele>
        <time>2019-06-15T16:59:24Z</time>
      </trkpt>
      <trkpt lat="43.277435" lon="-2.366832">
        <ele>10.105</ele>
        <time>2019-06-15T16:59:25Z</time>
      </trkpt>
      <trkpt lat="43.277402" lon="-2.367067">
        <ele>10.808</ele>
        <time>2019-06-15T16:59:26Z</time>
      </trkpt>
      <trkpt lat="43.277388" lon="-2.367280">
        <ele>11.835</ele>
        <time>2019-06-15T16:59:27Z</time>
      </trkpt>
      <trkpt lat="43.277398" lon="-2.367550">
        <ele>12.529</ele>
        <time>2019-06-15T16:59:28Z</time>
      </trkpt>
      <trkpt lat="43.277454" lon="-2.367783">
        <ele>9.258</ele>
        <time>2019-06-15T16:59:29Z</time>
      </trkpt>
      <trkpt lat="43.277496" lon="-2.368026">
        <ele>8.217</ele>
        <time>2019-06-15T16:59:30Z</time>
      </trkpt>
      <trkpt lat="43.277574" lon="-2.368250">
        <ele>12.066</ele>
        <time>2019-06-15T16:59:31Z</time>
      </trkpt>
      <trkpt lat="43.277667" lon="-2.368489">
        <ele>12.627</ele>
        <time>2019-06-15T16:59:32Z</time>
      </trkpt>
      <trkpt lat="43.277768" lon="-2.368719">
        <ele>10.186</ele>
        <time>2019-06-15T16:59:33Z</time>
      </trkpt>
      <trkpt lat="43.277866" lon="-2.368946">
        <ele>12.140</ele>
        <time>2019-06-15T16:59:34Z</time>
      </trkpt>
      <trkpt lat="43.277968" lon="-2.369172">
        <ele>11.886</ele>
        <time>2019-06-15T16:59:35Z</time>
      </trkpt>
      <trkpt lat="43.278072" lon="-2.369391">
        <ele>10.960</ele>
        <time>2019-06-15T16:59:36Z</time>
      </trkpt>
      <trkpt lat="43.278181" lon="-2.369597">
        <ele>12.726</ele>
        <time>2019-06-15T16:59:37Z</time>
      </trkpt>
      <trkpt lat="43.278314" lon="-2.369783">
        <ele>9.108</ele>
        <time>2019-06-15T16:59:38Z</time>
      </trkpt>
      <trkpt lat="43.278445" lon="-2.369951">
        <ele>9.571</ele>
        <time>2019-06-15T16:59:39Z</time>
      </trkpt>
      <trkpt lat="43.278578" lon="-2.370126">
        <ele>9.755</ele>
        <time>2019-06-15T16:59:40Z</time>
      </trkpt>
      <trkpt lat="43.278722" lon="-2.370278">
        <ele>9.444</ele>
        <time>2019-06-15T16:59:41Z</time>
      </trkpt>
      <trkpt lat="43.278853" lon="-2.370432">
        <ele>10.833</ele>
        <time>2019-06-15T16:59:42Z</time>
      </trkpt>
      <trkpt lat="43.278982" lon="-2.370580">
        <ele>11.062</ele>
        <time>2019-06-15T16:59:43Z</time>
      </trkpt>
      <trkpt lat="43.279106" lon="-2.370729">
        <ele>11.443</ele>
        <time>2019-06-15T16:59:44Z</time>
      </trkpt>
      <trkpt lat="43.279248" lon="-2.370852">
        <ele>9.062</ele>
        <time>2019-06-15T16:59:45Z</time>
      </trkpt>
      <trkpt lat="43.279357" lon="-2.371006">
        <ele>9.066</ele>
        <time>2019-06-15T16:59:46Z</time>
      </trkpt>
      <trkpt lat="43.279461" lon="-2.371157">
        <ele>6.956</ele>
        <time>2019-06-15T16:59:47Z</time>
      </trkpt>
      <trkpt lat="43.279459" lon="-2.371354">
        <ele>7.659</ele>
        <time>2019-06-15T16:59:48Z</time>
      </trkpt>
      <trkpt lat="43.279512" lon="-2.371543">
        <ele>6.314</ele>
        <time>2019-06-15T16:59:49Z</time>
      </trkpt>
      <trkpt lat="43.279561" lon="-2.371726">
        <ele>5.008</ele>
        <time>2019-06-15T16:59:50Z</time>
      </trkpt>
      <trkpt lat="43.279591" lon="-2.371961">
        <ele>4.198</ele>
        <time>2019-06-15T16:59:51Z</time>
      </trkpt>
      <trkpt lat="43.279512" lon="-2.372175">
        <ele>3.362</ele>
        <time>2019-06-15T16:59:52Z</time>
      </trkpt>
      <trkpt lat="43.279434" lon="-2.372412">
        <ele>3.051</ele>
        <time>2019-06-15T16:59:53Z</time>
      </trkpt>
      <trkpt lat="43.279337" lon="-2.372607">
        <ele>4.730</ele>
        <time>2019-06-15T16:59:54Z</time>
      </trkpt>
      <trkpt lat="43.279268" lon="-2.372801">
        <ele>4.399</ele>
        <time>2019-06-15T16:59:55Z</time>
      </trkpt>
      <trkpt lat="43.279160" lon="-2.372985">
        <ele>3.980</ele>
        <time>2019-06-15T16:59:56Z</time>
      </trkpt>
      <trkpt lat="43.279078" lon="-2.373195">
        <ele>5.459</ele>
        <time>2019-06-15T16:59:57Z</time>
      </trkpt>
      <trkpt lat="43.278992" lon="-2.373342">
        <ele>5.753</ele>
        <time>2019-06-15T16:59:58Z</time>
      </trkpt>
      <trkpt lat="43.278919" lon="-2.373512">
        <ele>5.142</ele>
        <time>2019-06-15T16:59:59Z</time>
      </trkpt>
      <trkpt lat="43.278784" lon="-2.373597">
        <ele>5.822</ele>
        <time>2019-06-15T17:00:00Z</time>
      </trkpt>
      <trkpt lat="43.278614" lon="-2.373684">
        <ele>6.714</ele>
        <time>2019-06-15T17:00:01Z</time>
      </trkpt>
      <trkpt lat="43.278461" lon="-2.373765">
        <ele>6.508</ele>
        <time>2019-06-15T17:00:02Z</time>
      </trkpt>
      <trkpt lat="43.278355" lon="-2.373832">
        <ele>5.547</ele>
        <time>2019-06-15T17:00:03Z</time>
      </trkpt>
      <trkpt lat="43.278196" lon="-2.373895">
        <ele>4.981</ele>
        <time>2019-06-15T17:00:04Z</time>
      </trkpt>
      <trkpt lat="43.278072" lon="-2.373982">
        <ele>4.670</ele>
        <time>2019-06-15T17:00:05Z</time>
      </trkpt>
      <trkpt lat="43.277891" lon="-2.374012">
        <ele>5.539</ele>
        <time>2019-06-15T17:00:06Z</time>
      </trkpt>
      <trkpt lat="43.277630" lon="-2.373978">
        <ele>8.998</ele>
        <time>2019-06-15T17:00:07Z</time>
      </trkpt>
      <trkpt lat="43.277470" lon="-2.374028">
        <ele>8.359</ele>
        <time>2019-06-15T17:00:08Z</time>
      </trkpt>
      <trkpt lat="43.277271" lon="-2.374054">
        <ele>8.818</ele>
        <time>2019-06-15T17:00:09Z</time>
      </trkpt>
      <trkpt lat="43.277099" lon="-2.374029">
        <ele>11.812</ele>
        <time>2019-06-15T17:00:10Z</time>
      </trkpt>
      <trkpt lat="43.276923" lon="-2.373999">
        <ele>15.057</ele>
        <time>2019-06-15T17:00:11Z</time>
      </trkpt>
      <trkpt lat="43.276752" lon="-2.373954">
        <ele>17.100</ele>
        <time>2019-06-15T17:00:12Z</time>
      </trkpt>
      <trkpt lat="43.276597" lon="-2.373884">
        <ele>20.420</ele>
        <time>2019-06-15T17:00:13Z</time>
      </trkpt>
      <trkpt lat="43.276443" lon="-2.373794">
        <ele>22.808</ele>
        <time>2019-06-15T17:00:14Z</time>
      </trkpt>
      <trkpt lat="43.276304" lon="-2.373680">
        <ele>23.668</ele>
        <time>2019-06-15T17:00:15Z</time>
      </trkpt>
      <trkpt lat="43.276172" lon="-2.373540">
        <ele>24.082</ele>
        <time>2019-06-15T17:00:16Z</time>
      </trkpt>
      <trkpt lat="43.276042" lon="-2.373381">
        <ele>23.841</ele>
        <time>2019-06-15T17:00:17Z</time>
      </trkpt>
      <trkpt lat="43.275918" lon="-2.373199">
        <ele>24.330</ele>
        <time>2019-06-15T17:00:18Z</time>
      </trkpt>
      <trkpt lat="43.275799" lon="-2.373013">
        <ele>25.199</ele>
        <time>2019-06-15T17:00:19Z</time>
      </trkpt>
      <trkpt lat="43.275686" lon="-2.372827">
        <ele>27.320</ele>
        <time>2019-06-15T17:00:20Z</time>
      </trkpt>
      <trkpt lat="43.275571" lon="-2.372647">
        <ele>28.339</ele>
        <time>2019-06-15T17:00:21Z</time>
      </trkpt>
      <trkpt lat="43.275456" lon="-2.372461">
        <ele>28.563</ele>
        <time>2019-06-15T17:00:22Z</time>
      </trkpt>
      <trkpt lat="43.275333" lon="-2.372253">
        <ele>27.721</ele>
        <time>2019-06-15T17:00:23Z</time>
      </trkpt>
      <trkpt lat="43.275215" lon="-2.372088">
        <ele>26.841</ele>
        <time>2019-06-15T17:00:24Z</time>
      </trkpt>
      <trkpt lat="43.275102" lon="-2.371930">
        <ele>26.805</ele>
        <time>2019-06-15T17:00:25Z</time>
      </trkpt>
      <trkpt lat="43.274995" lon="-2.371806">
        <ele>26.408</ele>
        <time>2019-06-15T17:00:26Z</time>
      </trkpt>
      <trkpt lat="43.274882" lon="-2.371666">
        <ele>26.515</ele>
        <time>2019-06-15T17:00:27Z</time>
      </trkpt>
      <trkpt lat="43.274758" lon="-2.371577">
        <ele>25.439</ele>
        <time>2019-06-15T17:00:28Z</time>
      </trkpt>
      <trkpt lat="43.274624" lon="-2.371469">
        <ele>24.938</ele>
        <time>2019-06-15T17:00:29Z</time>
      </trkpt>
      <trkpt lat="43.274473" lon="-2.371400">
        <ele>24.157</ele>
        <time>2019-06-15T17:00:30Z</time>
      </trkpt>
      <trkpt lat="43.274327" lon="-2.371344">
        <ele>24.086</ele>
        <time>2019-06-15T17:00:31Z</time>
      </trkpt>
      <trkpt lat="43.274170" lon="-2.371282">
        <ele>23.987</ele>
        <time>2019-06-15T17:00:32Z</time>
      </trkpt>
      <trkpt lat="43.274000" lon="-2.371226">
        <ele>23.766</ele>
        <time>2019-06-15T17:00:33Z</time>
      </trkpt>
      <trkpt lat="43.273830" lon="-2.371164">
        <ele>23.650</ele>
        <time>2019-06-15T17:00:34Z</time>
      </trkpt>
      <trkpt lat="43.273655" lon="-2.371099">
        <ele>23.566</ele>
        <time>2019-06-15T17:00:35Z</time>
      </trkpt>
      <trkpt lat="43.273473" lon="-2.371042">
        <ele>22.129</ele>
        <time>2019-06-15T17:00:36Z</time>
      </trkpt>
      <trkpt lat="43.273298" lon="-2.371016">
        <ele>20.621</ele>
        <time>2019-06-15T17:00:37Z</time>
      </trkpt>
      <trkpt lat="43.273112" lon="-2.371006">
        <ele>20.108</ele>
        <time>2019-06-15T17:00:38Z</time>
      </trkpt>
      <trkpt lat="43.272920" lon="-2.371006">
        <ele>20.779</ele>
        <time>2019-06-15T17:00:39Z</time>
      </trkpt>
      <trkpt lat="43.272736" lon="-2.370994">
        <ele>21.743</ele>
        <time>2019-06-15T17:00:40Z</time>
      </trkpt>
      <trkpt lat="43.272544" lon="-2.370986">
        <ele>21.792</ele>
        <time>2019-06-15T17:00:41Z</time>
      </trkpt>
      <trkpt lat="43.272355" lon="-2.370981">
        <ele>21.291</ele>
        <time>2019-06-15T17:00:42Z</time>
      </trkpt>
      <trkpt lat="43.272161" lon="-2.370973">
        <ele>20.860</ele>
        <time>2019-06-15T17:00:43Z</time>
      </trkpt>
      <trkpt lat="43.271963" lon="-2.370977">
        <ele>19.991</ele>
        <time>2019-06-15T17:00:44Z</time>
      </trkpt>
      <trkpt lat="43.271784" lon="-2.370965">
        <ele>19.470</ele>
        <time>2019-06-15T17:00:45Z</time>
      </trkpt>
      <trkpt lat="43.271609" lon="-2.370953">
        <ele>19.114</ele>
        <time>2019-06-15T17:00:46Z</time>
      </trkpt>
      <trkpt lat="43.271429" lon="-2.370950">
        <ele>19.044</ele>
        <time>2019-06-15T17:00:47Z</time>
      </trkpt>
      <trkpt lat="43.271246" lon="-2.370973">
        <ele>19.005</ele>
        <time>2019-06-15T17:00:48Z</time>
      </trkpt>
      <trkpt lat="43.271066" lon="-2.371021">
        <ele>19.415</ele>
        <time>2019-06-15T17:00:49Z</time>
      </trkpt>
      <trkpt lat="43.270898" lon="-2.371091">
        <ele>19.708</ele>
        <time>2019-06-15T17:00:50Z</time>
      </trkpt>
      <trkpt lat="43.270743" lon="-2.371190">
        <ele>19.727</ele>
        <time>2019-06-15T17:00:51Z</time>
      </trkpt>
      <trkpt lat="43.270594" lon="-2.371300">
        <ele>19.151</ele>
        <time>2019-06-15T17:00:52Z</time>
      </trkpt>
      <trkpt lat="43.270445" lon="-2.371422">
        <ele>19.010</ele>
        <time>2019-06-15T17:00:53Z</time>
      </trkpt>
      <trkpt lat="43.270304" lon="-2.371571">
        <ele>19.359</ele>
        <time>2019-06-15T17:00:54Z</time>
      </trkpt>
      <trkpt lat="43.270175" lon="-2.371736">
        <ele>17.358</ele>
        <time>2019-06-15T17:00:55Z</time>
      </trkpt>
      <trkpt lat="43.270062" lon="-2.371903">
        <ele>14.679</ele>
        <time>2019-06-15T17:00:56Z</time>
      </trkpt>
      <trkpt lat="43.269950" lon="-2.372087">
        <ele>10.968</ele>
        <time>2019-06-15T17:00:57Z</time>
      </trkpt>
      <trkpt lat="43.269861" lon="-2.372269">
        <ele>7.282</ele>
        <time>2019-06-15T17:00:58Z</time>
      </trkpt>
      <trkpt lat="43.269812" lon="-2.372438">
        <ele>4.584</ele>
        <time>2019-06-15T17:00:59Z</time>
      </trkpt>
      <trkpt lat="43.269768" lon="-2.372578">
        <ele>5.007</ele>
        <time>2019-06-15T17:01:00Z</time>
      </trkpt>
      <trkpt lat="43.269717" lon="-2.372698">
        <ele>7.217</ele>
        <time>2019-06-15T17:01:01Z</time>
      </trkpt>
      <trkpt lat="43.269679" lon="-2.372786">
        <ele>9.008</ele>
        <time>2019-06-15T17:01:02Z</time>
      </trkpt>
      <trkpt lat="43.269646" lon="-2.372885">
        <ele>14.281</ele>
        <time>2019-06-15T17:01:03Z</time>
      </trkpt>
      <trkpt lat="43.269616" lon="-2.372979">
        <ele>18.865</ele>
        <time>2019-06-15T17:01:04Z</time>
      </trkpt>
      <trkpt lat="43.269664" lon="-2.373043">
        <ele>23.654</ele>
        <time>2019-06-15T17:01:06Z</time>
      </trkpt>
      <trkpt lat="43.269727" lon="-2.373059">
        <ele>26.353</ele>
        <time>2019-06-15T17:01:07Z</time>
      </trkpt>
      <trkpt lat="43.269800" lon="-2.373074">
        <ele>27.622</ele>
        <time>2019-06-15T17:01:08Z</time>
      </trkpt>
      <trkpt lat="43.269892" lon="-2.373067">
        <ele>26.963</ele>
        <time>2019-06-15T17:01:09Z</time>
      </trkpt>
      <trkpt lat="43.270004" lon="-2.373059">
        <ele>26.472</ele>
        <time>2019-06-15T17:01:10Z</time>
      </trkpt>
      <trkpt lat="43.270112" lon="-2.372995">
        <ele>27.136</ele>
        <time>2019-06-15T17:01:11Z</time>
      </trkpt>
      <trkpt lat="43.270240" lon="-2.372959">
        <ele>29.369</ele>
        <time>2019-06-15T17:01:12Z</time>
      </trkpt>
      <trkpt lat="43.270360" lon="-2.372907">
        <ele>31.004</ele>
        <time>2019-06-15T17:01:13Z</time>
      </trkpt>
      <trkpt lat="43.270489" lon="-2.372841">
        <ele>31.924</ele>
        <time>2019-06-15T17:01:14Z</time>
      </trkpt>
      <trkpt lat="43.270645" lon="-2.372786">
        <ele>35.108</ele>
        <time>2019-06-15T17:01:15Z</time>
      </trkpt>
      <trkpt lat="43.270777" lon="-2.372709">
        <ele>36.079</ele>
        <time>2019-06-15T17:01:16Z</time>
      </trkpt>
      <trkpt lat="43.270915" lon="-2.372646">
        <ele>35.153</ele>
        <time>2019-06-15T17:01:17Z</time>
      </trkpt>
      <trkpt lat="43.271034" lon="-2.372576">
        <ele>33.182</ele>
        <time>2019-06-15T17:01:18Z</time>
      </trkpt>
      <trkpt lat="43.271154" lon="-2.372515">
        <ele>33.911</ele>
        <time>2019-06-15T17:01:19Z</time>
      </trkpt>
      <trkpt lat="43.271273" lon="-2.372449">
        <ele>36.130</ele>
        <time>2019-06-15T17:01:20Z</time>
      </trkpt>
      <trkpt lat="43.271390" lon="-2.372392">
        <ele>38.851</ele>
        <time>2019-06-15T17:01:21Z</time>
      </trkpt>
      <trkpt lat="43.271489" lon="-2.372350">
        <ele>37.450</ele>
        <time>2019-06-15T17:01:22Z</time>
      </trkpt>
      <trkpt lat="43.271588" lon="-2.372304">
        <ele>36.544</ele>
        <time>2019-06-15T17:01:23Z</time>
      </trkpt>
      <trkpt lat="43.271649" lon="-2.372283">
        <ele>36.714</ele>
        <time>2019-06-15T17:01:24Z</time>
      </trkpt>
      <trkpt lat="43.271709" lon="-2.372296">
        <ele>35.654</ele>
        <time>2019-06-15T17:01:25Z</time>
      </trkpt>
      <trkpt lat="43.271756" lon="-2.372366">
        <ele>35.609</ele>
        <time>2019-06-15T17:01:26Z</time>
      </trkpt>
      <trkpt lat="43.271825" lon="-2.372446">
        <ele>34.608</ele>
        <time>2019-06-15T17:01:27Z</time>
      </trkpt>
      <trkpt lat="43.271874" lon="-2.372521">
        <ele>33.774</ele>
        <time>2019-06-15T17:01:28Z</time>
      </trkpt>
      <trkpt lat="43.271923" lon="-2.372637">
        <ele>32.498</ele>
        <time>2019-06-15T17:01:29Z</time>
      </trkpt>
      <trkpt lat="43.271965" lon="-2.372764">
        <ele>32.547</ele>
        <time>2019-06-15T17:01:30Z</time>
      </trkpt>
      <trkpt lat="43.272032" lon="-2.372879">
        <ele>33.686</ele>
        <time>2019-06-15T17:01:31Z</time>
      </trkpt>
      <trkpt lat="43.272138" lon="-2.372950">
        <ele>33.325</ele>
        <time>2019-06-15T17:01:32Z</time>
      </trkpt>
      <trkpt lat="43.272269" lon="-2.372984">
        <ele>32.176</ele>
        <time>2019-06-15T17:01:33Z</time>
      </trkpt>
      <trkpt lat="43.272407" lon="-2.373048">
        <ele>31.215</ele>
        <time>2019-06-15T17:01:34Z</time>
      </trkpt>
      <trkpt lat="43.272555" lon="-2.373116">
        <ele>29.599</ele>
        <time>2019-06-15T17:01:35Z</time>
      </trkpt>
      <trkpt lat="43.272717" lon="-2.373190">
        <ele>27.449</ele>
        <time>2019-06-15T17:01:36Z</time>
      </trkpt>
      <trkpt lat="43.272885" lon="-2.373259">
        <ele>25.702</ele>
        <time>2019-06-15T17:01:37Z</time>
      </trkpt>
      <trkpt lat="43.273023" lon="-2.373332">
        <ele>24.522</ele>
        <time>2019-06-15T17:01:38Z</time>
      </trkpt>
      <trkpt lat="43.273181" lon="-2.373405">
        <ele>23.808</ele>
        <time>2019-06-15T17:01:39Z</time>
      </trkpt>
      <trkpt lat="43.273323" lon="-2.373478">
        <ele>23.287</ele>
        <time>2019-06-15T17:01:40Z</time>
      </trkpt>
      <trkpt lat="43.273446" lon="-2.373553">
        <ele>22.261</ele>
        <time>2019-06-15T17:01:41Z</time>
      </trkpt>
      <trkpt lat="43.273612" lon="-2.373618">
        <ele>20.150</ele>
        <time>2019-06-15T17:01:42Z</time>
      </trkpt>
      <trkpt lat="43.273632" lon="-2.373748">
        <ele>22.649</ele>
        <time>2019-06-15T17:01:43Z</time>
      </trkpt>
      <trkpt lat="43.273759" lon="-2.373815">
        <ele>21.978</ele>
        <time>2019-06-15T17:01:44Z</time>
      </trkpt>
      <trkpt lat="43.273865" lon="-2.373884">
        <ele>21.329</ele>
        <time>2019-06-15T17:01:45Z</time>
      </trkpt>
      <trkpt lat="43.274003" lon="-2.373975">
        <ele>19.448</ele>
        <time>2019-06-15T17:01:46Z</time>
      </trkpt>
      <trkpt lat="43.274083" lon="-2.374088">
        <ele>19.522</ele>
        <time>2019-06-15T17:01:47Z</time>
      </trkpt>
      <trkpt lat="43.274170" lon="-2.374275">
        <ele>20.852</ele>
        <time>2019-06-15T17:01:48Z</time>
      </trkpt>
      <trkpt lat="43.274250" lon="-2.374431">
        <ele>20.553</ele>
        <time>2019-06-15T17:01:49Z</time>
      </trkpt>
      <trkpt lat="43.274344" lon="-2.374602">
        <ele>20.708</ele>
        <time>2019-06-15T17:01:50Z</time>
      </trkpt>
      <trkpt lat="43.274419" lon="-2.374779">
        <ele>22.108</ele>
        <time>2019-06-15T17:01:51Z</time>
      </trkpt>
      <trkpt lat="43.274502" lon="-2.374943">
        <ele>22.138</ele>
        <time>2019-06-15T17:01:52Z</time>
      </trkpt>
      <trkpt lat="43.274575" lon="-2.375104">
        <ele>22.822</ele>
        <time>2019-06-15T17:01:53Z</time>
      </trkpt>
      <trkpt lat="43.274659" lon="-2.375268">
        <ele>24.741</ele>
        <time>2019-06-15T17:01:54Z</time>
      </trkpt>
      <trkpt lat="43.274737" lon="-2.375425">
        <ele>26.790</ele>
        <time>2019-06-15T17:01:55Z</time>
      </trkpt>
      <trkpt lat="43.274796" lon="-2.375569">
        <ele>29.259</ele>
        <time>2019-06-15T17:01:56Z</time>
      </trkpt>
      <trkpt lat="43.274924" lon="-2.375662">
        <ele>29.320</ele>
        <time>2019-06-15T17:01:57Z</time>
      </trkpt>
      <trkpt lat="43.275067" lon="-2.375745">
        <ele>29.519</ele>
        <time>2019-06-15T17:01:58Z</time>
      </trkpt>
      <trkpt lat="43.275185" lon="-2.375804">
        <ele>30.663</ele>
        <time>2019-06-15T17:01:59Z</time>
      </trkpt>
      <trkpt lat="43.275312" lon="-2.375861">
        <ele>33.837</ele>
        <time>2019-06-15T17:02:00Z</time>
      </trkpt>
      <trkpt lat="43.275474" lon="-2.375876">
        <ele>37.749</ele>
        <time>2019-06-15T17:02:01Z</time>
      </trkpt>
      <trkpt lat="43.275640" lon="-2.375888">
        <ele>41.613</ele>
        <time>2019-06-15T17:02:02Z</time>
      </trkpt>
      <trkpt lat="43.275791" lon="-2.375879">
        <ele>44.008</ele>
        <time>2019-06-15T17:02:03Z</time>
      </trkpt>
      <trkpt lat="43.275891" lon="-2.375817">
        <ele>41.976</ele>
        <time>2019-06-15T17:02:04Z</time>
      </trkpt>
      <trkpt lat="43.276010" lon="-2.375762">
        <ele>41.080</ele>
        <time>2019-06-15T17:02:05Z</time>
      </trkpt>
      <trkpt lat="43.276131" lon="-2.375700">
        <ele>40.619</ele>
        <time>2019-06-15T17:02:06Z</time>
      </trkpt>
      <trkpt lat="43.276257" lon="-2.375653">
        <ele>39.818</ele>
        <time>2019-06-15T17:02:07Z</time>
      </trkpt>
      <trkpt lat="43.276385" lon="-2.375590">
        <ele>39.367</ele>
        <time>2019-06-15T17:02:08Z</time>
      </trkpt>
      <trkpt lat="43.276503" lon="-2.375558">
        <ele>38.558</ele>
        <time>2019-06-15T17:02:09Z</time>
      </trkpt>
      <trkpt lat="43.276605" lon="-2.375559">
        <ele>38.967</ele>
        <time>2019-06-15T17:02:10Z</time>
      </trkpt>
      <trkpt lat="43.276702" lon="-2.375574">
        <ele>39.071</ele>
        <time>2019-06-15T17:02:11Z</time>
      </trkpt>
      <trkpt lat="43.276795" lon="-2.375603">
        <ele>38.526</ele>
        <time>2019-06-15T17:02:12Z</time>
      </trkpt>
      <trkpt lat="43.276887" lon="-2.375690">
        <ele>39.747</ele>
        <time>2019-06-15T17:02:13Z</time>
      </trkpt>
      <trkpt lat="43.276969" lon="-2.375797">
        <ele>41.511</ele>
        <time>2019-06-15T17:02:14Z</time>
      </trkpt>
      <trkpt lat="43.277059" lon="-2.375920">
        <ele>42.808</ele>
        <time>2019-06-15T17:02:15Z</time>
      </trkpt>
      <trkpt lat="43.277146" lon="-2.376047">
        <ele>44.025</ele>
        <time>2019-06-15T17:02:16Z</time>
      </trkpt>
      <trkpt lat="43.277261" lon="-2.376165">
        <ele>44.589</ele>
        <time>2019-06-15T17:02:17Z</time>
      </trkpt>
      <trkpt lat="43.277370" lon="-2.376300">
        <ele>45.038</ele>
        <time>2019-06-15T17:02:18Z</time>
      </trkpt>
      <trkpt lat="43.277474" lon="-2.376436">
        <ele>45.587</ele>
        <time>2019-06-15T17:02:19Z</time>
      </trkpt>
      <trkpt lat="43.277577" lon="-2.376570">
        <ele>47.196</ele>
        <time>2019-06-15T17:02:20Z</time>
      </trkpt>
      <trkpt lat="43.277682" lon="-2.376695">
        <ele>48.027</ele>
        <time>2019-06-15T17:02:21Z</time>
      </trkpt>
      <trkpt lat="43.277799" lon="-2.376803">
        <ele>48.086</ele>
        <time>2019-06-15T17:02:22Z</time>
      </trkpt>
      <trkpt lat="43.277914" lon="-2.376911">
        <ele>48.640</ele>
        <time>2019-06-15T17:02:23Z</time>
      </trkpt>
      <trkpt lat="43.278007" lon="-2.376997">
        <ele>48.468</ele>
        <time>2019-06-15T17:02:24Z</time>
      </trkpt>
      <trkpt lat="43.278109" lon="-2.377106">
        <ele>47.642</ele>
        <time>2019-06-15T17:02:25Z</time>
      </trkpt>
      <trkpt lat="43.278204" lon="-2.377231">
        <ele>46.826</ele>
        <time>2019-06-15T17:02:26Z</time>
      </trkpt>
      <trkpt lat="43.278293" lon="-2.377356">
        <ele>46.308</ele>
        <time>2019-06-15T17:02:27Z</time>
      </trkpt>
      <trkpt lat="43.278388" lon="-2.377484">
        <ele>45.159</ele>
        <time>2019-06-15T17:02:28Z</time>
      </trkpt>
      <trkpt lat="43.278462" lon="-2.377597">
        <ele>44.493</ele>
        <time>2019-06-15T17:02:29Z</time>
      </trkpt>
      <trkpt lat="43.278523" lon="-2.377726">
        <ele>45.132</ele>
        <time>2019-06-15T17:02:30Z</time>
      </trkpt>
      <trkpt lat="43.278587" lon="-2.377848">
        <ele>45.551</ele>
        <time>2019-06-15T17:02:31Z</time>
      </trkpt>
      <trkpt lat="43.278638" lon="-2.377979">
        <ele>46.460</ele>
        <time>2019-06-15T17:02:32Z</time>
      </trkpt>
      <trkpt lat="43.278698" lon="-2.378093">
        <ele>46.831</ele>
        <time>2019-06-15T17:02:33Z</time>
      </trkpt>
      <trkpt lat="43.278780" lon="-2.378198">
        <ele>46.160</ele>
        <time>2019-06-15T17:02:34Z</time>
      </trkpt>
      <trkpt lat="43.278856" lon="-2.378303">
        <ele>45.044</ele>
        <time>2019-06-15T17:02:35Z</time>
      </trkpt>
      <trkpt lat="43.278968" lon="-2.378380">
        <ele>43.488</ele>
        <time>2019-06-15T17:02:36Z</time>
      </trkpt>
      <trkpt lat="43.279069" lon="-2.378470">
        <ele>42.924</ele>
        <time>2019-06-15T17:02:37Z</time>
      </trkpt>
      <trkpt lat="43.279178" lon="-2.378546">
        <ele>41.826</ele>
        <time>2019-06-15T17:02:38Z</time>
      </trkpt>
      <trkpt lat="43.279280" lon="-2.378605">
        <ele>42.508</ele>
        <time>2019-06-15T17:02:39Z</time>
      </trkpt>
      <trkpt lat="43.279383" lon="-2.378662">
        <ele>42.891</ele>
        <time>2019-06-15T17:02:40Z</time>
      </trkpt>
      <trkpt lat="43.279514" lon="-2.378650">
        <ele>43.495</ele>
        <time>2019-06-15T17:02:41Z</time>
      </trkpt>
      <trkpt lat="43.279611" lon="-2.378614">
        <ele>44.434</ele>
        <time>2019-06-15T17:02:42Z</time>
      </trkpt>
      <trkpt lat="43.279695" lon="-2.378538">
        <ele>44.853</ele>
        <time>2019-06-15T17:02:43Z</time>
      </trkpt>
      <trkpt lat="43.279802" lon="-2.378430">
        <ele>45.572</ele>
        <time>2019-06-15T17:02:44Z</time>
      </trkpt>
      <trkpt lat="43.279913" lon="-2.378316">
        <ele>46.293</ele>
        <time>2019-06-15T17:02:45Z</time>
      </trkpt>
      <trkpt lat="43.280037" lon="-2.378183">
        <ele>46.242</ele>
        <time>2019-06-15T17:02:46Z</time>
      </trkpt>
      <trkpt lat="43.280137" lon="-2.378057">
        <ele>45.096</ele>
        <time>2019-06-15T17:02:47Z</time>
      </trkpt>
      <trkpt lat="43.280255" lon="-2.377928">
        <ele>44.577</ele>
        <time>2019-06-15T17:02:48Z</time>
      </trkpt>
      <trkpt lat="43.280386" lon="-2.377783">
        <ele>43.861</ele>
        <time>2019-06-15T17:02:49Z</time>
      </trkpt>
      <trkpt lat="43.280524" lon="-2.377641">
        <ele>42.927</ele>
        <time>2019-06-15T17:02:50Z</time>
      </trkpt>
      <trkpt lat="43.280660" lon="-2.377521">
        <ele>41.608</ele>
        <time>2019-06-15T17:02:51Z</time>
      </trkpt>
      <trkpt lat="43.280809" lon="-2.377392">
        <ele>41.170</ele>
        <time>2019-06-15T17:02:52Z</time>
      </trkpt>
      <trkpt lat="43.280962" lon="-2.377265">
        <ele>42.234</ele>
        <time>2019-06-15T17:02:53Z</time>
      </trkpt>
      <trkpt lat="43.281103" lon="-2.377162">
        <ele>43.033</ele>
        <time>2019-06-15T17:02:54Z</time>
      </trkpt>
      <trkpt lat="43.281256" lon="-2.377051">
        <ele>43.522</ele>
        <time>2019-06-15T17:02:55Z</time>
      </trkpt>
      <trkpt lat="43.281410" lon="-2.376951">
        <ele>43.351</ele>
        <time>2019-06-15T17:02:56Z</time>
      </trkpt>
      <trkpt lat="43.281575" lon="-2.376897">
        <ele>45.222</ele>
        <time>2019-06-15T17:02:57Z</time>
      </trkpt>
      <trkpt lat="43.281749" lon="-2.376839">
        <ele>47.071</ele>
        <time>2019-06-15T17:02:58Z</time>
      </trkpt>
      <trkpt lat="43.281927" lon="-2.376782">
        <ele>47.855</ele>
        <time>2019-06-15T17:02:59Z</time>
      </trkpt>
      <trkpt lat="43.282094" lon="-2.376728">
        <ele>47.662</ele>
        <time>2019-06-15T17:03:00Z</time>
      </trkpt>
      <trkpt lat="43.282247" lon="-2.376694">
        <ele>47.183</ele>
        <time>2019-06-15T17:03:01Z</time>
      </trkpt>
      <trkpt lat="43.282410" lon="-2.376649">
        <ele>48.011</ele>
        <time>2019-06-15T17:03:02Z</time>
      </trkpt>
      <trkpt lat="43.282573" lon="-2.376597">
        <ele>49.808</ele>
        <time>2019-06-15T17:03:03Z</time>
      </trkpt>
      <trkpt lat="43.282726" lon="-2.376565">
        <ele>51.689</ele>
        <time>2019-06-15T17:03:04Z</time>
      </trkpt>
      <trkpt lat="43.282862" lon="-2.376534">
        <ele>52.153</ele>
        <time>2019-06-15T17:03:05Z</time>
      </trkpt>
      <trkpt lat="43.283018" lon="-2.376521">
        <ele>52.622</ele>
        <time>2019-06-15T17:03:06Z</time>
      </trkpt>
      <trkpt lat="43.283186" lon="-2.376532">
        <ele>52.691</ele>
        <time>2019-06-15T17:03:07Z</time>
      </trkpt>
      <trkpt lat="43.283350" lon="-2.376559">
        <ele>52.460</ele>
        <time>2019-06-15T17:03:08Z</time>
      </trkpt>
      <trkpt lat="43.283522" lon="-2.376607">
        <ele>52.831</ele>
        <time>2019-06-15T17:03:09Z</time>
      </trkpt>
      <trkpt lat="43.283690" lon="-2.376645">
        <ele>53.180</ele>
        <time>2019-06-15T17:03:10Z</time>
      </trkpt>
      <trkpt lat="43.283866" lon="-2.376687">
        <ele>54.574</ele>
        <time>2019-06-15T17:03:11Z</time>
      </trkpt>
      <trkpt lat="43.284038" lon="-2.376725">
        <ele>57.075</ele>
        <time>2019-06-15T17:03:12Z</time>
      </trkpt>
      <trkpt lat="43.284197" lon="-2.376721">
        <ele>58.028</ele>
        <time>2019-06-15T17:03:13Z</time>
      </trkpt>
      <trkpt lat="43.284344" lon="-2.376718">
        <ele>58.420</ele>
        <time>2019-06-15T17:03:14Z</time>
      </trkpt>
      <trkpt lat="43.284498" lon="-2.376703">
        <ele>58.408</ele>
        <time>2019-06-15T17:03:15Z</time>
      </trkpt>
      <trkpt lat="43.284645" lon="-2.376690">
        <ele>58.510</ele>
        <time>2019-06-15T17:03:16Z</time>
      </trkpt>
      <trkpt lat="43.284787" lon="-2.376664">
        <ele>58.964</ele>
        <time>2019-06-15T17:03:17Z</time>
      </trkpt>
      <trkpt lat="43.284955" lon="-2.376628">
        <ele>60.723</ele>
        <time>2019-06-15T17:03:18Z</time>
      </trkpt>
      <trkpt lat="43.285050" lon="-2.376553">
        <ele>60.552</ele>
        <time>2019-06-15T17:03:19Z</time>
      </trkpt>
      <trkpt lat="43.285187" lon="-2.376453">
        <ele>59.851</ele>
        <time>2019-06-15T17:03:20Z</time>
      </trkpt>
      <trkpt lat="43.285327" lon="-2.376350">
        <ele>58.962</ele>
        <time>2019-06-15T17:03:21Z</time>
      </trkpt>
      <trkpt lat="43.285468" lon="-2.376216">
        <ele>58.471</ele>
        <time>2019-06-15T17:03:22Z</time>
      </trkpt>
      <trkpt lat="43.285612" lon="-2.376090">
        <ele>58.255</ele>
        <time>2019-06-15T17:03:23Z</time>
      </trkpt>
      <trkpt lat="43.285771" lon="-2.375973">
        <ele>58.863</ele>
        <time>2019-06-15T17:03:24Z</time>
      </trkpt>
      <trkpt lat="43.285931" lon="-2.375847">
        <ele>59.444</ele>
        <time>2019-06-15T17:03:25Z</time>
      </trkpt>
      <trkpt lat="43.286096" lon="-2.375742">
        <ele>62.218</ele>
        <time>2019-06-15T17:03:26Z</time>
      </trkpt>
      <trkpt lat="43.286238" lon="-2.375634">
        <ele>63.408</ele>
        <time>2019-06-15T17:03:27Z</time>
      </trkpt>
      <trkpt lat="43.286404" lon="-2.375525">
        <ele>62.979</ele>
        <time>2019-06-15T17:03:28Z</time>
      </trkpt>
      <trkpt lat="43.286514" lon="-2.375427">
        <ele>64.213</ele>
        <time>2019-06-15T17:03:29Z</time>
      </trkpt>
      <trkpt lat="43.286620" lon="-2.375328">
        <ele>64.312</ele>
        <time>2019-06-15T17:03:30Z</time>
      </trkpt>
      <trkpt lat="43.286718" lon="-2.375201">
        <ele>65.351</ele>
        <time>2019-06-15T17:03:31Z</time>
      </trkpt>
      <trkpt lat="43.286799" lon="-2.375060">
        <ele>67.260</ele>
        <time>2019-06-15T17:03:32Z</time>
      </trkpt>
      <trkpt lat="43.286877" lon="-2.374931">
        <ele>68.141</ele>
        <time>2019-06-15T17:03:33Z</time>
      </trkpt>
      <trkpt lat="43.286966" lon="-2.374850">
        <ele>68.780</ele>
        <time>2019-06-15T17:03:34Z</time>
      </trkpt>
      <trkpt lat="43.287070" lon="-2.374770">
        <ele>70.754</ele>
        <time>2019-06-15T17:03:35Z</time>
      </trkpt>
      <trkpt lat="43.287197" lon="-2.374717">
        <ele>72.219</ele>
        <time>2019-06-15T17:03:36Z</time>
      </trkpt>
      <trkpt lat="43.287319" lon="-2.374668">
        <ele>73.109</ele>
        <time>2019-06-15T17:03:37Z</time>
      </trkpt>
      <trkpt lat="43.287424" lon="-2.374619">
        <ele>73.919</ele>
        <time>2019-06-15T17:03:38Z</time>
      </trkpt>
      <trkpt lat="43.287540" lon="-2.374575">
        <ele>73.808</ele>
        <time>2019-06-15T17:03:39Z</time>
      </trkpt>
      <trkpt lat="43.287617" lon="-2.374493">
        <ele>74.314</ele>
        <time>2019-06-15T17:03:40Z</time>
      </trkpt>
      <trkpt lat="43.287704" lon="-2.374423">
        <ele>73.048</ele>
        <time>2019-06-15T17:03:41Z</time>
      </trkpt>
      <trkpt lat="43.287719" lon="-2.374267">
        <ele>75.257</ele>
        <time>2019-06-15T17:03:42Z</time>
      </trkpt>
      <trkpt lat="43.287692" lon="-2.374139">
        <ele>78.846</ele>
        <time>2019-06-15T17:03:43Z</time>
      </trkpt>
      <trkpt lat="43.287690" lon="-2.374028">
        <ele>80.895</ele>
        <time>2019-06-15T17:03:44Z</time>
      </trkpt>
      <trkpt lat="43.287708" lon="-2.373926">
        <ele>81.626</ele>
        <time>2019-06-15T17:03:45Z</time>
      </trkpt>
      <trkpt lat="43.287749" lon="-2.373865">
        <ele>81.095</ele>
        <time>2019-06-15T17:03:46Z</time>
      </trkpt>
      <trkpt lat="43.287837" lon="-2.373806">
        <ele>82.619</ele>
        <time>2019-06-15T17:03:47Z</time>
      </trkpt>
      <trkpt lat="43.287914" lon="-2.373796">
        <ele>84.629</ele>
        <time>2019-06-15T17:03:48Z</time>
      </trkpt>
      <trkpt lat="43.287996" lon="-2.373807">
        <ele>86.000</ele>
        <time>2019-06-15T17:03:49Z</time>
      </trkpt>
      <trkpt lat="43.288099" lon="-2.373849">
        <ele>86.220</ele>
        <time>2019-06-15T17:03:50Z</time>
      </trkpt>
      <trkpt lat="43.288211" lon="-2.373881">
        <ele>86.608</ele>
        <time>2019-06-15T17:03:51Z</time>
      </trkpt>
      <trkpt lat="43.288317" lon="-2.373917">
        <ele>86.795</ele>
        <time>2019-06-15T17:03:52Z</time>
      </trkpt>
      <trkpt lat="43.288453" lon="-2.373933">
        <ele>87.839</ele>
        <time>2019-06-15T17:03:53Z</time>
      </trkpt>
      <trkpt lat="43.288571" lon="-2.373928">
        <ele>89.668</ele>
        <time>2019-06-15T17:03:54Z</time>
      </trkpt>
      <trkpt lat="43.288707" lon="-2.373913">
        <ele>91.447</ele>
        <time>2019-06-15T17:03:55Z</time>
      </trkpt>
      <trkpt lat="43.288840" lon="-2.373914">
        <ele>92.156</ele>
        <time>2019-06-15T17:03:56Z</time>
      </trkpt>
      <trkpt lat="43.288936" lon="-2.373913">
        <ele>93.477</ele>
        <time>2019-06-15T17:03:57Z</time>
      </trkpt>
      <trkpt lat="43.289021" lon="-2.373914">
        <ele>95.126</ele>
        <time>2019-06-15T17:03:58Z</time>
      </trkpt>
      <trkpt lat="43.289101" lon="-2.373933">
        <ele>96.780</ele>
        <time>2019-06-15T17:03:59Z</time>
      </trkpt>
      <trkpt lat="43.289155" lon="-2.374000">
        <ele>98.163</ele>
        <time>2019-06-15T17:04:01Z</time>
      </trkpt>
      <trkpt lat="43.289167" lon="-2.374096">
        <ele>98.844</ele>
        <time>2019-06-15T17:04:03Z</time>
      </trkpt>
      <trkpt lat="43.289153" lon="-2.374166">
        <ele>98.418</ele>
        <time>2019-06-15T17:04:04Z</time>
      </trkpt>
      <trkpt lat="43.289126" lon="-2.374253">
        <ele>100.408</ele>
        <time>2019-06-15T17:04:05Z</time>
      </trkpt>
      <trkpt lat="43.289093" lon="-2.374332">
        <ele>101.689</ele>
        <time>2019-06-15T17:04:06Z</time>
      </trkpt>
      <trkpt lat="43.289032" lon="-2.374467">
        <ele>103.023</ele>
        <time>2019-06-15T17:04:07Z</time>
      </trkpt>
      <trkpt lat="43.288976" lon="-2.374581">
        <ele>103.462</ele>
        <time>2019-06-15T17:04:08Z</time>
      </trkpt>
      <trkpt lat="43.288919" lon="-2.374696">
        <ele>103.391</ele>
        <time>2019-06-15T17:04:09Z</time>
      </trkpt>
      <trkpt lat="43.288874" lon="-2.374812">
        <ele>104.470</ele>
        <time>2019-06-15T17:04:10Z</time>
      </trkpt>
      <trkpt lat="43.288809" lon="-2.374933">
        <ele>105.481</ele>
        <time>2019-06-15T17:04:11Z</time>
      </trkpt>
      <trkpt lat="43.288748" lon="-2.375047">
        <ele>106.270</ele>
        <time>2019-06-15T17:04:12Z</time>
      </trkpt>
      <trkpt lat="43.288695" lon="-2.375119">
        <ele>105.514</ele>
        <time>2019-06-15T17:04:13Z</time>
      </trkpt>
      <trkpt lat="43.288651" lon="-2.375211">
        <ele>106.089</ele>
        <time>2019-06-15T17:04:14Z</time>
      </trkpt>
      <trkpt lat="43.288619" lon="-2.375313">
        <ele>106.406</ele>
        <time>2019-06-15T17:04:15Z</time>
      </trkpt>
      <trkpt lat="43.288634" lon="-2.375414">
        <ele>107.026</ele>
        <time>2019-06-15T17:04:16Z</time>
      </trkpt>
      <trkpt lat="43.288654" lon="-2.375537">
        <ele>107.608</ele>
        <time>2019-06-15T17:04:17Z</time>
      </trkpt>
      <trkpt lat="43.288688" lon="-2.375630">
        <ele>106.611</ele>
        <time>2019-06-15T17:04:18Z</time>
      </trkpt>
      <trkpt lat="43.288803" lon="-2.375683">
        <ele>109.295</ele>
        <time>2019-06-15T17:04:19Z</time>
      </trkpt>
      <trkpt lat="43.288896" lon="-2.375740">
        <ele>110.974</ele>
        <time>2019-06-15T17:04:20Z</time>
      </trkpt>
      <trkpt lat="43.289007" lon="-2.375780">
        <ele>113.223</ele>
        <time>2019-06-15T17:04:21Z</time>
      </trkpt>
      <trkpt lat="43.289132" lon="-2.375819">
        <ele>115.572</ele>
        <time>2019-06-15T17:04:22Z</time>
      </trkpt>
      <trkpt lat="43.289267" lon="-2.375853">
        <ele>118.473</ele>
        <time>2019-06-15T17:04:23Z</time>
      </trkpt>
      <trkpt lat="43.289391" lon="-2.375894">
        <ele>120.892</ele>
        <time>2019-06-15T17:04:24Z</time>
      </trkpt>
      <trkpt lat="43.289519" lon="-2.375928">
        <ele>123.216</ele>
        <time>2019-06-15T17:04:25Z</time>
      </trkpt>
      <trkpt lat="43.289654" lon="-2.375953">
        <ele>125.621</ele>
        <time>2019-06-15T17:04:26Z</time>
      </trkpt>
      <trkpt lat="43.289792" lon="-2.375980">
        <ele>127.541</ele>
        <time>2019-06-15T17:04:27Z</time>
      </trkpt>
      <trkpt lat="43.289919" lon="-2.375996">
        <ele>129.305</ele>
        <time>2019-06-15T17:04:28Z</time>
      </trkpt>
      <trkpt lat="43.290054" lon="-2.376012">
        <ele>131.108</ele>
        <time>2019-06-15T17:04:29Z</time>
      </trkpt>
      <trkpt lat="43.290173" lon="-2.376019">
        <ele>132.535</ele>
        <time>2019-06-15T17:04:30Z</time>
      </trkpt>
      <trkpt lat="43.290278" lon="-2.376038">
        <ele>133.239</ele>
        <time>2019-06-15T17:04:31Z</time>
      </trkpt>
      <trkpt lat="43.290382" lon="-2.376049">
        <ele>134.398</ele>
        <time>2019-06-15T17:04:32Z</time>
      </trkpt>
      <trkpt lat="43.290449" lon="-2.376095">
        <ele>133.777</ele>
        <time>2019-06-15T17:04:33Z</time>
      </trkpt>
      <trkpt lat="43.290498" lon="-2.376141">
        <ele>133.796</ele>
        <time>2019-06-15T17:04:34Z</time>
      </trkpt>
      <trkpt lat="43.290557" lon="-2.376173">
        <ele>134.897</ele>
        <time>2019-06-15T17:04:35Z</time>
      </trkpt>
      <trkpt lat="43.290594" lon="-2.376238">
        <ele>136.226</ele>
        <time>2019-06-15T17:04:36Z</time>
      </trkpt>
      <trkpt lat="43.290631" lon="-2.376299">
        <ele>137.750</ele>
        <time>2019-06-15T17:04:37Z</time>
      </trkpt>
      <trkpt lat="43.290633" lon="-2.376402">
        <ele>137.967</ele>
        <time>2019-06-15T17:04:38Z</time>
      </trkpt>
      <trkpt lat="43.290634" lon="-2.376488">
        <ele>139.581</ele>
        <time>2019-06-15T17:04:39Z</time>
      </trkpt>
      <trkpt lat="43.290617" lon="-2.376587">
        <ele>140.719</ele>
        <time>2019-06-15T17:04:40Z</time>
      </trkpt>
      <trkpt lat="43.290499" lon="-2.376700">
        <ele>138.108</ele>
        <time>2019-06-15T17:04:41Z</time>
      </trkpt>
      <trkpt lat="43.290435" lon="-2.376805">
        <ele>137.929</ele>
        <time>2019-06-15T17:04:42Z</time>
      </trkpt>
      <trkpt lat="43.290375" lon="-2.376891">
        <ele>138.233</ele>
        <time>2019-06-15T17:04:43Z</time>
      </trkpt>
      <trkpt lat="43.290335" lon="-2.376974">
        <ele>139.052</ele>
        <time>2019-06-15T17:04:44Z</time>
      </trkpt>
      <trkpt lat="43.290306" lon="-2.377073">
        <ele>139.881</ele>
        <time>2019-06-15T17:04:45Z</time>
      </trkpt>
      <trkpt lat="43.290278" lon="-2.377168">
        <ele>141.090</ele>
        <time>2019-06-15T17:04:46Z</time>
      </trkpt>
      <trkpt lat="43.290277" lon="-2.377247">
        <ele>141.411</ele>
        <time>2019-06-15T17:04:47Z</time>
      </trkpt>
      <trkpt lat="43.290323" lon="-2.377313">
        <ele>140.180</ele>
        <time>2019-06-15T17:04:48Z</time>
      </trkpt>
      <trkpt lat="43.290354" lon="-2.377373">
        <ele>138.764</ele>
        <time>2019-06-15T17:04:49Z</time>
      </trkpt>
      <trkpt lat="43.290497" lon="-2.377282">
        <ele>141.222</ele>
        <time>2019-06-15T17:04:50Z</time>
      </trkpt>
      <trkpt lat="43.290581" lon="-2.377258">
        <ele>141.562</ele>
        <time>2019-06-15T17:04:51Z</time>
      </trkpt>
      <trkpt lat="43.290723" lon="-2.377151">
        <ele>141.608</ele>
        <time>2019-06-15T17:04:52Z</time>
      </trkpt>
      <trkpt lat="43.290796" lon="-2.377114">
        <ele>141.808</ele>
        <time>2019-06-15T17:04:53Z</time>
      </trkpt>
      <trkpt lat="43.290894" lon="-2.377054">
        <ele>142.715</ele>
        <time>2019-06-15T17:04:54Z</time>
      </trkpt>
      <trkpt lat="43.290944" lon="-2.376930">
        <ele>146.189</ele>
        <time>2019-06-15T17:04:55Z</time>
      </trkpt>
      <trkpt lat="43.291039" lon="-2.376850">
        <ele>147.138</ele>
        <time>2019-06-15T17:04:56Z</time>
      </trkpt>
      <trkpt lat="43.291137" lon="-2.376780">
        <ele>149.037</ele>
        <time>2019-06-15T17:04:57Z</time>
      </trkpt>
      <trkpt lat="43.291254" lon="-2.376739">
        <ele>151.366</ele>
        <time>2019-06-15T17:04:58Z</time>
      </trkpt>
      <trkpt lat="43.291386" lon="-2.376741">
        <ele>152.617</ele>
        <time>2019-06-15T17:04:59Z</time>
      </trkpt>
      <trkpt lat="43.291507" lon="-2.376757">
        <ele>153.826</ele>
        <time>2019-06-15T17:05:00Z</time>
      </trkpt>
      <trkpt lat="43.291627" lon="-2.376769">
        <ele>155.050</ele>
        <time>2019-06-15T17:05:01Z</time>
      </trkpt>
      <trkpt lat="43.291754" lon="-2.376779">
        <ele>155.186</ele>
        <time>2019-06-15T17:05:02Z</time>
      </trkpt>
      <trkpt lat="43.291857" lon="-2.376766">
        <ele>155.360</ele>
        <time>2019-06-15T17:05:03Z</time>
      </trkpt>
      <trkpt lat="43.291958" lon="-2.376748">
        <ele>155.726</ele>
        <time>2019-06-15T17:05:04Z</time>
      </trkpt>
      <trkpt lat="43.292057" lon="-2.376743">
        <ele>156.708</ele>
        <time>2019-06-15T17:05:05Z</time>
      </trkpt>
      <trkpt lat="43.292140" lon="-2.376751">
        <ele>157.531</ele>
        <time>2019-06-15T17:05:06Z</time>
      </trkpt>
      <trkpt lat="43.292210" lon="-2.376788">
        <ele>158.385</ele>
        <time>2019-06-15T17:05:07Z</time>
      </trkpt>
      <trkpt lat="43.292267" lon="-2.376860">
        <ele>159.784</ele>
        <time>2019-06-15T17:05:08Z</time>
      </trkpt>
      <trkpt lat="43.292308" lon="-2.376966">
        <ele>161.423</ele>
        <time>2019-06-15T17:05:09Z</time>
      </trkpt>
      <trkpt lat="43.292304" lon="-2.377086">
        <ele>162.682</ele>
        <time>2019-06-15T17:05:10Z</time>
      </trkpt>
      <trkpt lat="43.292278" lon="-2.377211">
        <ele>163.383</ele>
        <time>2019-06-15T17:05:11Z</time>
      </trkpt>
      <trkpt lat="43.292260" lon="-2.377342">
        <ele>163.842</ele>
        <time>2019-06-15T17:05:12Z</time>
      </trkpt>
      <trkpt lat="43.292280" lon="-2.377465">
        <ele>165.256</ele>
        <time>2019-06-15T17:05:13Z</time>
      </trkpt>
      <trkpt lat="43.292294" lon="-2.377589">
        <ele>165.198</ele>
        <time>2019-06-15T17:05:14Z</time>
      </trkpt>
      <trkpt lat="43.292387" lon="-2.377676">
        <ele>166.515</ele>
        <time>2019-06-15T17:05:15Z</time>
      </trkpt>
      <trkpt lat="43.292485" lon="-2.377732">
        <ele>168.226</ele>
        <time>2019-06-15T17:05:16Z</time>
      </trkpt>
      <trkpt lat="43.292567" lon="-2.377744">
        <ele>169.108</ele>
        <time>2019-06-15T17:05:17Z</time>
      </trkpt>
      <trkpt lat="43.292673" lon="-2.377710">
        <ele>170.482</ele>
        <time>2019-06-15T17:05:18Z</time>
      </trkpt>
      <trkpt lat="43.292748" lon="-2.377650">
        <ele>171.616</ele>
        <time>2019-06-15T17:05:19Z</time>
      </trkpt>
      <trkpt lat="43.292815" lon="-2.377553">
        <ele>173.165</ele>
        <time>2019-06-15T17:05:20Z</time>
      </trkpt>
      <trkpt lat="43.292898" lon="-2.377483">
        <ele>174.224</ele>
        <time>2019-06-15T17:05:21Z</time>
      </trkpt>
      <trkpt lat="43.292976" lon="-2.377442">
        <ele>174.963</ele>
        <time>2019-06-15T17:05:22Z</time>
      </trkpt>
      <trkpt lat="43.293086" lon="-2.377402">
        <ele>176.054</ele>
        <time>2019-06-15T17:05:23Z</time>
      </trkpt>
      <trkpt lat="43.293210" lon="-2.377378">
        <ele>177.153</ele>
        <time>2019-06-15T17:05:24Z</time>
      </trkpt>
      <trkpt lat="43.293330" lon="-2.377360">
        <ele>178.017</ele>
        <time>2019-06-15T17:05:25Z</time>
      </trkpt>
      <trkpt lat="43.293455" lon="-2.377348">
        <ele>178.934</ele>
        <time>2019-06-15T17:05:26Z</time>
      </trkpt>
      <trkpt lat="43.293607" lon="-2.377317">
        <ele>180.055</ele>
        <time>2019-06-15T17:05:27Z</time>
      </trkpt>
      <trkpt lat="43.293708" lon="-2.377272">
        <ele>181.110</ele>
        <time>2019-06-15T17:05:28Z</time>
      </trkpt>
      <trkpt lat="43.293806" lon="-2.377242">
        <ele>182.208</ele>
        <time>2019-06-15T17:05:29Z</time>
      </trkpt>
      <trkpt lat="43.293859" lon="-2.377243">
        <ele>183.046</ele>
        <time>2019-06-15T17:05:30Z</time>
      </trkpt>
      <trkpt lat="43.293929" lon="-2.377268">
        <ele>185.450</ele>
        <time>2019-06-15T17:05:31Z</time>
      </trkpt>
      <trkpt lat="43.293994" lon="-2.377309">
        <ele>188.789</ele>
        <time>2019-06-15T17:05:32Z</time>
      </trkpt>
      <trkpt lat="43.294011" lon="-2.377404">
        <ele>191.358</ele>
        <time>2019-06-15T17:05:33Z</time>
      </trkpt>
      <trkpt lat="43.294040" lon="-2.377479">
        <ele>194.087</ele>
        <time>2019-06-15T17:05:34Z</time>
      </trkpt>
      <trkpt lat="43.293895" lon="-2.377563">
        <ele>190.388</ele>
        <time>2019-06-15T17:05:35Z</time>
      </trkpt>
      <trkpt lat="43.293856" lon="-2.377648">
        <ele>190.827</ele>
        <time>2019-06-15T17:05:36Z</time>
      </trkpt>
      <trkpt lat="43.293816" lon="-2.377756">
        <ele>191.811</ele>
        <time>2019-06-15T17:05:37Z</time>
      </trkpt>
      <trkpt lat="43.293786" lon="-2.377858">
        <ele>191.785</ele>
        <time>2019-06-15T17:05:38Z</time>
      </trkpt>
      <trkpt lat="43.293830" lon="-2.377975">
        <ele>193.289</ele>
        <time>2019-06-15T17:05:39Z</time>
      </trkpt>
      <trkpt lat="43.293866" lon="-2.378087">
        <ele>194.217</ele>
        <time>2019-06-15T17:05:40Z</time>
      </trkpt>
      <trkpt lat="43.293905" lon="-2.378215">
        <ele>194.408</ele>
        <time>2019-06-15T17:05:41Z</time>
      </trkpt>
      <trkpt lat="43.293970" lon="-2.378339">
        <ele>195.871</ele>
        <time>2019-06-15T17:05:42Z</time>
      </trkpt>
      <trkpt lat="43.294059" lon="-2.378457">
        <ele>197.155</ele>
        <time>2019-06-15T17:05:43Z</time>
      </trkpt>
      <trkpt lat="43.294167" lon="-2.378578">
        <ele>198.684</ele>
        <time>2019-06-15T17:05:44Z</time>
      </trkpt>
      <trkpt lat="43.294268" lon="-2.378707">
        <ele>200.743</ele>
        <time>2019-06-15T17:05:45Z</time>
      </trkpt>
      <trkpt lat="43.294362" lon="-2.378857">
        <ele>201.862</ele>
        <time>2019-06-15T17:05:46Z</time>
      </trkpt>
      <trkpt lat="43.294471" lon="-2.378992">
        <ele>203.843</ele>
        <time>2019-06-15T17:05:47Z</time>
      </trkpt>
      <trkpt lat="43.294576" lon="-2.379121">
        <ele>204.962</ele>
        <time>2019-06-15T17:05:48Z</time>
      </trkpt>
      <trkpt lat="43.294689" lon="-2.379218">
        <ele>206.516</ele>
        <time>2019-06-15T17:05:49Z</time>
      </trkpt>
      <trkpt lat="43.294784" lon="-2.379308">
        <ele>208.262</ele>
        <time>2019-06-15T17:05:50Z</time>
      </trkpt>
      <trkpt lat="43.294866" lon="-2.379378">
        <ele>210.383</ele>
        <time>2019-06-15T17:05:51Z</time>
      </trkpt>
      <trkpt lat="43.294919" lon="-2.379487">
        <ele>210.811</ele>
        <time>2019-06-15T17:05:52Z</time>
      </trkpt>
      <trkpt lat="43.294952" lon="-2.379614">
        <ele>211.208</ele>
        <time>2019-06-15T17:05:53Z</time>
      </trkpt>
      <trkpt lat="43.294991" lon="-2.379753">
        <ele>212.069</ele>
        <time>2019-06-15T17:05:54Z</time>
      </trkpt>
      <trkpt lat="43.295044" lon="-2.379892">
        <ele>213.023</ele>
        <time>2019-06-15T17:05:55Z</time>
      </trkpt>
      <trkpt lat="43.295119" lon="-2.380054">
        <ele>214.582</ele>
        <time>2019-06-15T17:05:56Z</time>
      </trkpt>
      <trkpt lat="43.295190" lon="-2.380213">
        <ele>215.161</ele>
        <time>2019-06-15T17:05:57Z</time>
      </trkpt>
      <trkpt lat="43.295292" lon="-2.380335">
        <ele>217.490</ele>
        <time>2019-06-15T17:05:58Z</time>
      </trkpt>
      <trkpt lat="43.295385" lon="-2.380453">
        <ele>218.451</ele>
        <time>2019-06-15T17:05:59Z</time>
      </trkpt>
      <trkpt lat="43.295488" lon="-2.380532">
        <ele>220.220</ele>
        <time>2019-06-15T17:06:00Z</time>
      </trkpt>
      <trkpt lat="43.295581" lon="-2.380609">
        <ele>222.364</ele>
        <time>2019-06-15T17:06:01Z</time>
      </trkpt>
      <trkpt lat="43.295651" lon="-2.380687">
        <ele>224.946</ele>
        <time>2019-06-15T17:06:02Z</time>
      </trkpt>
      <trkpt lat="43.295694" lon="-2.380775">
        <ele>226.788</ele>
        <time>2019-06-15T17:06:03Z</time>
      </trkpt>
      <trkpt lat="43.295744" lon="-2.380896">
        <ele>230.516</ele>
        <time>2019-06-15T17:06:04Z</time>
      </trkpt>
      <trkpt lat="43.295783" lon="-2.381013">
        <ele>234.908</ele>
        <time>2019-06-15T17:06:05Z</time>
      </trkpt>
      <trkpt lat="43.295759" lon="-2.381134">
        <ele>235.217</ele>
        <time>2019-06-15T17:06:06Z</time>
      </trkpt>
      <trkpt lat="43.295748" lon="-2.381269">
        <ele>236.451</ele>
        <time>2019-06-15T17:06:07Z</time>
      </trkpt>
      <trkpt lat="43.295685" lon="-2.381402">
        <ele>234.170</ele>
        <time>2019-06-15T17:06:08Z</time>
      </trkpt>
      <trkpt lat="43.295603" lon="-2.381505">
        <ele>230.869</ele>
        <time>2019-06-15T17:06:09Z</time>
      </trkpt>
      <trkpt lat="43.295543" lon="-2.381622">
        <ele>230.538</ele>
        <time>2019-06-15T17:06:10Z</time>
      </trkpt>
      <trkpt lat="43.295452" lon="-2.381695">
        <ele>230.319</ele>
        <time>2019-06-15T17:06:11Z</time>
      </trkpt>
      <trkpt lat="43.295358" lon="-2.381750">
        <ele>230.268</ele>
        <time>2019-06-15T17:06:12Z</time>
      </trkpt>
      <trkpt lat="43.295276" lon="-2.381794">
        <ele>230.582</ele>
        <time>2019-06-15T17:06:13Z</time>
      </trkpt>
      <trkpt lat="43.295192" lon="-2.381875">
        <ele>232.599</ele>
        <time>2019-06-15T17:06:14Z</time>
      </trkpt>
      <trkpt lat="43.295138" lon="-2.381955">
        <ele>234.107</ele>
        <time>2019-06-15T17:06:15Z</time>
      </trkpt>
      <trkpt lat="43.295092" lon="-2.382069">
        <ele>234.227</ele>
        <time>2019-06-15T17:06:16Z</time>
      </trkpt>
      <trkpt lat="43.295069" lon="-2.382203">
        <ele>235.108</ele>
        <time>2019-06-15T17:06:17Z</time>
      </trkpt>
      <trkpt lat="43.295039" lon="-2.382331">
        <ele>235.062</ele>
        <time>2019-06-15T17:06:18Z</time>
      </trkpt>
      <trkpt lat="43.295026" lon="-2.382461">
        <ele>235.216</ele>
        <time>2019-06-15T17:06:19Z</time>
      </trkpt>
      <trkpt lat="43.295002" lon="-2.382584">
        <ele>235.085</ele>
        <time>2019-06-15T17:06:20Z</time>
      </trkpt>
      <trkpt lat="43.294991" lon="-2.382711">
        <ele>234.974</ele>
        <time>2019-06-15T17:06:21Z</time>
      </trkpt>
      <trkpt lat="43.294993" lon="-2.382831">
        <ele>234.963</ele>
        <time>2019-06-15T17:06:22Z</time>
      </trkpt>
      <trkpt lat="43.294999" lon="-2.382942">
        <ele>235.074</ele>
        <time>2019-06-15T17:06:23Z</time>
      </trkpt>
      <trkpt lat="43.295007" lon="-2.383059">
        <ele>235.133</ele>
        <time>2019-06-15T17:06:24Z</time>
      </trkpt>
      <trkpt lat="43.295025" lon="-2.383152">
        <ele>234.947</ele>
        <time>2019-06-15T17:06:25Z</time>
      </trkpt>
      <trkpt lat="43.295063" lon="-2.383244">
        <ele>234.767</ele>
        <time>2019-06-15T17:06:26Z</time>
      </trkpt>
      <trkpt lat="43.295110" lon="-2.383313">
        <ele>234.581</ele>
        <time>2019-06-15T17:06:27Z</time>
      </trkpt>
      <trkpt lat="43.295174" lon="-2.383371">
        <ele>234.019</ele>
        <time>2019-06-15T17:06:28Z</time>
      </trkpt>
      <trkpt lat="43.295248" lon="-2.383430">
        <ele>232.908</ele>
        <time>2019-06-15T17:06:29Z</time>
      </trkpt>
      <trkpt lat="43.295324" lon="-2.383491">
        <ele>231.319</ele>
        <time>2019-06-15T17:06:30Z</time>
      </trkpt>
      <trkpt lat="43.295415" lon="-2.383527">
        <ele>229.893</ele>
        <time>2019-06-15T17:06:31Z</time>
      </trkpt>
      <trkpt lat="43.295508" lon="-2.383569">
        <ele>228.332</ele>
        <time>2019-06-15T17:06:32Z</time>
      </trkpt>
      <trkpt lat="43.295591" lon="-2.383569">
        <ele>227.121</ele>
        <time>2019-06-15T17:06:33Z</time>
      </trkpt>
      <trkpt lat="43.295672" lon="-2.383540">
        <ele>225.690</ele>
        <time>2019-06-15T17:06:34Z</time>
      </trkpt>
      <trkpt lat="43.295750" lon="-2.383489">
        <ele>224.221</ele>
        <time>2019-06-15T17:06:35Z</time>
      </trkpt>
      <trkpt lat="43.295806" lon="-2.383398">
        <ele>223.480</ele>
        <time>2019-06-15T17:06:36Z</time>
      </trkpt>
      <trkpt lat="43.295845" lon="-2.383294">
        <ele>222.494</ele>
        <time>2019-06-15T17:06:37Z</time>
      </trkpt>
      <trkpt lat="43.295851" lon="-2.383179">
        <ele>222.345</ele>
        <time>2019-06-15T17:06:38Z</time>
      </trkpt>
      <trkpt lat="43.295878" lon="-2.383082">
        <ele>221.547</ele>
        <time>2019-06-15T17:06:39Z</time>
      </trkpt>
      <trkpt lat="43.295908" lon="-2.382974">
        <ele>222.411</ele>
        <time>2019-06-15T17:06:40Z</time>
      </trkpt>
      <trkpt lat="43.295997" lon="-2.382903">
        <ele>222.108</ele>
        <time>2019-06-15T17:06:41Z</time>
      </trkpt>
      <trkpt lat="43.296086" lon="-2.382857">
        <ele>221.687</ele>
        <time>2019-06-15T17:06:42Z</time>
      </trkpt>
      <trkpt lat="43.296182" lon="-2.382825">
        <ele>221.941</ele>
        <time>2019-06-15T17:06:43Z</time>
      </trkpt>
      <trkpt lat="43.296289" lon="-2.382829">
        <ele>221.220</ele>
        <time>2019-06-15T17:06:44Z</time>
      </trkpt>
      <trkpt lat="43.296404" lon="-2.382837">
        <ele>220.289</ele>
        <time>2019-06-15T17:06:45Z</time>
      </trkpt>
      <trkpt lat="43.296518" lon="-2.382847">
        <ele>219.898</ele>
        <time>2019-06-15T17:06:46Z</time>
      </trkpt>
      <trkpt lat="43.296620" lon="-2.382870">
        <ele>218.749</ele>
        <time>2019-06-15T17:06:47Z</time>
      </trkpt>
      <trkpt lat="43.296732" lon="-2.382890">
        <ele>216.038</ele>
        <time>2019-06-15T17:06:48Z</time>
      </trkpt>
      <trkpt lat="43.296830" lon="-2.382913">
        <ele>212.382</ele>
        <time>2019-06-15T17:06:49Z</time>
      </trkpt>
      <trkpt lat="43.296943" lon="-2.382910">
        <ele>209.469</ele>
        <time>2019-06-15T17:06:50Z</time>
      </trkpt>
      <trkpt lat="43.297076" lon="-2.382804">
        <ele>213.004</ele>
        <time>2019-06-15T17:06:51Z</time>
      </trkpt>
      <trkpt lat="43.297211" lon="-2.382775">
        <ele>212.324</ele>
        <time>2019-06-15T17:06:53Z</time>
      </trkpt>
      <trkpt lat="43.297303" lon="-2.382772">
        <ele>216.008</ele>
        <time>2019-06-15T17:06:54Z</time>
      </trkpt>
      <trkpt lat="43.297336" lon="-2.382852">
        <ele>214.959</ele>
        <time>2019-06-15T17:06:55Z</time>
      </trkpt>
      <trkpt lat="43.297373" lon="-2.382946">
        <ele>213.783</ele>
        <time>2019-06-15T17:06:56Z</time>
      </trkpt>
      <trkpt lat="43.297424" lon="-2.383075">
        <ele>212.292</ele>
        <time>2019-06-15T17:06:57Z</time>
      </trkpt>
      <trkpt lat="43.297477" lon="-2.383237">
        <ele>209.311</ele>
        <time>2019-06-15T17:06:58Z</time>
      </trkpt>
      <trkpt lat="43.297531" lon="-2.383371">
        <ele>206.180</ele>
        <time>2019-06-15T17:06:59Z</time>
      </trkpt>
      <trkpt lat="43.297586" lon="-2.383495">
        <ele>202.011</ele>
        <time>2019-06-15T17:07:00Z</time>
      </trkpt>
      <trkpt lat="43.297621" lon="-2.383588">
        <ele>198.760</ele>
        <time>2019-06-15T17:07:01Z</time>
      </trkpt>
      <trkpt lat="43.297750" lon="-2.383646">
        <ele>198.114</ele>
        <time>2019-06-15T17:07:02Z</time>
      </trkpt>
      <trkpt lat="43.297860" lon="-2.383635">
        <ele>200.535</ele>
        <time>2019-06-15T17:07:03Z</time>
      </trkpt>
      <trkpt lat="43.297951" lon="-2.383648">
        <ele>201.886</ele>
        <time>2019-06-15T17:07:04Z</time>
      </trkpt>
      <trkpt lat="43.298049" lon="-2.383663">
        <ele>203.214</ele>
        <time>2019-06-15T17:07:05Z</time>
      </trkpt>
      <trkpt lat="43.298089" lon="-2.383749">
        <ele>202.808</ele>
        <time>2019-06-15T17:07:06Z</time>
      </trkpt>
      <trkpt lat="43.298147" lon="-2.383829">
        <ele>204.126</ele>
        <time>2019-06-15T17:07:07Z</time>
      </trkpt>
      <trkpt lat="43.298184" lon="-2.384005">
        <ele>201.150</ele>
        <time>2019-06-15T17:07:08Z</time>
      </trkpt>
      <trkpt lat="43.298244" lon="-2.384160">
        <ele>199.839</ele>
        <time>2019-06-15T17:07:09Z</time>
      </trkpt>
      <trkpt lat="43.298284" lon="-2.384313">
        <ele>197.018</ele>
        <time>2019-06-15T17:07:10Z</time>
      </trkpt>
      <trkpt lat="43.298343" lon="-2.384449">
        <ele>195.277</ele>
        <time>2019-06-15T17:07:11Z</time>
      </trkpt>
      <trkpt lat="43.298411" lon="-2.384582">
        <ele>192.438</ele>
        <time>2019-06-15T17:07:12Z</time>
      </trkpt>
      <trkpt lat="43.298476" lon="-2.384715">
        <ele>188.427</ele>
        <time>2019-06-15T17:07:13Z</time>
      </trkpt>
      <trkpt lat="43.298595" lon="-2.384749">
        <ele>189.641</ele>
        <time>2019-06-15T17:07:14Z</time>
      </trkpt>
      <trkpt lat="43.298673" lon="-2.384858">
        <ele>188.961</ele>
        <time>2019-06-15T17:07:15Z</time>
      </trkpt>
      <trkpt lat="43.298747" lon="-2.384972">
        <ele>188.421</ele>
        <time>2019-06-15T17:07:16Z</time>
      </trkpt>
      <trkpt lat="43.298827" lon="-2.385108">
        <ele>187.513</ele>
        <time>2019-06-15T17:07:17Z</time>
      </trkpt>
      <trkpt lat="43.298906" lon="-2.385251">
        <ele>185.608</ele>
        <time>2019-06-15T17:07:18Z</time>
      </trkpt>
      <trkpt lat="43.298982" lon="-2.385386">
        <ele>182.519</ele>
        <time>2019-06-15T17:07:19Z</time>
      </trkpt>
      <trkpt lat="43.299086" lon="-2.385493">
        <ele>180.873</ele>
        <time>2019-06-15T17:07:20Z</time>
      </trkpt>
      <trkpt lat="43.299175" lon="-2.385612">
        <ele>177.812</ele>
        <time>2019-06-15T17:07:21Z</time>
      </trkpt>
      <trkpt lat="43.299282" lon="-2.385691">
        <ele>176.931</ele>
        <time>2019-06-15T17:07:22Z</time>
      </trkpt>
      <trkpt lat="43.299394" lon="-2.385799">
        <ele>174.510</ele>
        <time>2019-06-15T17:07:23Z</time>
      </trkpt>
      <trkpt lat="43.299506" lon="-2.385883">
        <ele>172.691</ele>
        <time>2019-06-15T17:07:24Z</time>
      </trkpt>
      <trkpt lat="43.299631" lon="-2.385969">
        <ele>170.370</ele>
        <time>2019-06-15T17:07:25Z</time>
      </trkpt>
      <trkpt lat="43.299716" lon="-2.386080">
        <ele>166.424</ele>
        <time>2019-06-15T17:07:26Z</time>
      </trkpt>
      <trkpt lat="43.299818" lon="-2.386164">
        <ele>163.435</ele>
        <time>2019-06-15T17:07:27Z</time>
      </trkpt>
      <trkpt lat="43.299956" lon="-2.386187">
        <ele>164.586</ele>
        <time>2019-06-15T17:07:28Z</time>
      </trkpt>
      <trkpt lat="43.300042" lon="-2.386209">
        <ele>164.414</ele>
        <time>2019-06-15T17:07:29Z</time>
      </trkpt>
      <trkpt lat="43.300134" lon="-2.386259">
        <ele>162.708</ele>
        <time>2019-06-15T17:07:30Z</time>
      </trkpt>
      <trkpt lat="43.300235" lon="-2.386195">
        <ele>164.366</ele>
        <time>2019-06-15T17:07:31Z</time>
      </trkpt>
      <trkpt lat="43.300330" lon="-2.386179">
        <ele>161.940</ele>
        <time>2019-06-15T17:07:32Z</time>
      </trkpt>
      <trkpt lat="43.300455" lon="-2.386097">
        <ele>157.379</ele>
        <time>2019-06-15T17:07:33Z</time>
      </trkpt>
      <trkpt lat="43.300568" lon="-2.385997">
        <ele>153.548</ele>
        <time>2019-06-15T17:07:34Z</time>
      </trkpt>
      <trkpt lat="43.300568" lon="-2.385933">
        <ele>154.737</ele>
        <time>2019-06-15T17:07:35Z</time>
      </trkpt>
      <trkpt lat="43.300630" lon="-2.385863">
        <ele>153.748</ele>
        <time>2019-06-15T17:07:36Z</time>
      </trkpt>
      <trkpt lat="43.300703" lon="-2.385810">
        <ele>152.567</ele>
        <time>2019-06-15T17:07:37Z</time>
      </trkpt>
      <trkpt lat="43.300746" lon="-2.385646">
        <ele>157.221</ele>
        <time>2019-06-15T17:07:38Z</time>
      </trkpt>
      <trkpt lat="43.300802" lon="-2.385478">
        <ele>162.288</ele>
        <time>2019-06-15T17:07:39Z</time>
      </trkpt>
      <trkpt lat="43.300877" lon="-2.385431">
        <ele>163.024</ele>
        <time>2019-06-15T17:07:40Z</time>
      </trkpt>
      <trkpt lat="43.300956" lon="-2.385494">
        <ele>161.126</ele>
        <time>2019-06-15T17:07:41Z</time>
      </trkpt>
      <trkpt lat="43.301084" lon="-2.385534">
        <ele>159.608</ele>
        <time>2019-06-15T17:07:42Z</time>
      </trkpt>
      <trkpt lat="43.301201" lon="-2.385593">
        <ele>158.021</ele>
        <time>2019-06-15T17:07:43Z</time>
      </trkpt>
      <trkpt lat="43.301335" lon="-2.385675">
        <ele>156.585</ele>
        <time>2019-06-15T17:07:44Z</time>
      </trkpt>
      <trkpt lat="43.301441" lon="-2.385725">
        <ele>155.384</ele>
        <time>2019-06-15T17:07:45Z</time>
      </trkpt>
      <trkpt lat="43.301531" lon="-2.385799">
        <ele>153.093</ele>
        <time>2019-06-15T17:07:46Z</time>
      </trkpt>
      <trkpt lat="43.301617" lon="-2.385879">
        <ele>151.312</ele>
        <time>2019-06-15T17:07:47Z</time>
      </trkpt>
      <trkpt lat="43.301673" lon="-2.385976">
        <ele>150.333</ele>
        <time>2019-06-15T17:07:48Z</time>
      </trkpt>
      <trkpt lat="43.301713" lon="-2.386086">
        <ele>149.122</ele>
        <time>2019-06-15T17:07:49Z</time>
      </trkpt>
      <trkpt lat="43.301730" lon="-2.386218">
        <ele>148.046</ele>
        <time>2019-06-15T17:07:50Z</time>
      </trkpt>
      <trkpt lat="43.301724" lon="-2.386348">
        <ele>147.422</ele>
        <time>2019-06-15T17:07:51Z</time>
      </trkpt>
      <trkpt lat="43.301675" lon="-2.386440">
        <ele>147.762</ele>
        <time>2019-06-15T17:07:52Z</time>
      </trkpt>
      <trkpt lat="43.301613" lon="-2.386545">
        <ele>147.508</ele>
        <time>2019-06-15T17:07:53Z</time>
      </trkpt>
      <trkpt lat="43.301547" lon="-2.386637">
        <ele>147.208</ele>
        <time>2019-06-15T17:07:54Z</time>
      </trkpt>
      <trkpt lat="43.301496" lon="-2.386731">
        <ele>146.395</ele>
        <time>2019-06-15T17:07:55Z</time>
      </trkpt>
      <trkpt lat="43.301442" lon="-2.386849">
        <ele>145.389</ele>
        <time>2019-06-15T17:07:56Z</time>
      </trkpt>
      <trkpt lat="43.301422" lon="-2.386977">
        <ele>144.458</ele>
        <time>2019-06-15T17:07:57Z</time>
      </trkpt>
      <trkpt lat="43.301426" lon="-2.387122">
        <ele>143.287</ele>
        <time>2019-06-15T17:07:58Z</time>
      </trkpt>
      <trkpt lat="43.301455" lon="-2.387290">
        <ele>142.216</ele>
        <time>2019-06-15T17:07:59Z</time>
      </trkpt>
      <trkpt lat="43.301485" lon="-2.387458">
        <ele>142.297</ele>
        <time>2019-06-15T17:08:00Z</time>
      </trkpt>
      <trkpt lat="43.301519" lon="-2.387611">
        <ele>141.536</ele>
        <time>2019-06-15T17:08:01Z</time>
      </trkpt>
      <trkpt lat="43.301558" lon="-2.387751">
        <ele>140.440</ele>
        <time>2019-06-15T17:08:02Z</time>
      </trkpt>
      <trkpt lat="43.301600" lon="-2.387893">
        <ele>139.456</ele>
        <time>2019-06-15T17:08:03Z</time>
      </trkpt>
      <trkpt lat="43.301634" lon="-2.388006">
        <ele>138.759</ele>
        <time>2019-06-15T17:08:04Z</time>
      </trkpt>
      <trkpt lat="43.301669" lon="-2.388070">
        <ele>138.114</ele>
        <time>2019-06-15T17:08:05Z</time>
      </trkpt>
      <trkpt lat="43.301715" lon="-2.388098">
        <ele>136.808</ele>
        <time>2019-06-15T17:08:06Z</time>
      </trkpt>
      <trkpt lat="43.301759" lon="-2.388125">
        <ele>135.658</ele>
        <time>2019-06-15T17:08:07Z</time>
      </trkpt>
      <trkpt lat="43.301822" lon="-2.388128">
        <ele>133.512</ele>
        <time>2019-06-15T17:08:08Z</time>
      </trkpt>
      <trkpt lat="43.301860" lon="-2.388056">
        <ele>131.731</ele>
        <time>2019-06-15T17:08:09Z</time>
      </trkpt>
      <trkpt lat="43.301917" lon="-2.387983">
        <ele>130.130</ele>
        <time>2019-06-15T17:08:10Z</time>
      </trkpt>
      <trkpt lat="43.301938" lon="-2.387768">
        <ele>130.339</ele>
        <time>2019-06-15T17:08:11Z</time>
      </trkpt>
      <trkpt lat="43.302000" lon="-2.387616">
        <ele>129.340</ele>
        <time>2019-06-15T17:08:12Z</time>
      </trkpt>
      <trkpt lat="43.302077" lon="-2.387487">
        <ele>127.839</ele>
        <time>2019-06-15T17:08:13Z</time>
      </trkpt>
      <trkpt lat="43.302162" lon="-2.387341">
        <ele>127.083</ele>
        <time>2019-06-15T17:08:14Z</time>
      </trkpt>
      <trkpt lat="43.302234" lon="-2.387210">
        <ele>126.845</ele>
        <time>2019-06-15T17:08:15Z</time>
      </trkpt>
      <trkpt lat="43.302344" lon="-2.387099">
        <ele>124.447</ele>
        <time>2019-06-15T17:08:16Z</time>
      </trkpt>
      <trkpt lat="43.302428" lon="-2.386978">
        <ele>123.011</ele>
        <time>2019-06-15T17:08:17Z</time>
      </trkpt>
      <trkpt lat="43.302506" lon="-2.386851">
        <ele>121.808</ele>
        <time>2019-06-15T17:08:18Z</time>
      </trkpt>
      <trkpt lat="43.302593" lon="-2.386751">
        <ele>120.267</ele>
        <time>2019-06-15T17:08:19Z</time>
      </trkpt>
      <trkpt lat="43.302620" lon="-2.386645">
        <ele>120.621</ele>
        <time>2019-06-15T17:08:20Z</time>
      </trkpt>
      <trkpt lat="43.302645" lon="-2.386554">
        <ele>120.210</ele>
        <time>2019-06-15T17:08:21Z</time>
      </trkpt>
      <trkpt lat="43.302694" lon="-2.386516">
        <ele>119.059</ele>
        <time>2019-06-15T17:08:22Z</time>
      </trkpt>
      <trkpt lat="43.302742" lon="-2.386474">
        <ele>117.798</ele>
        <time>2019-06-15T17:08:23Z</time>
      </trkpt>
      <trkpt lat="43.302785" lon="-2.386441">
        <ele>116.579</ele>
        <time>2019-06-15T17:08:24Z</time>
      </trkpt>
      <trkpt lat="43.302833" lon="-2.386477">
        <ele>114.128</ele>
        <time>2019-06-15T17:08:25Z</time>
      </trkpt>
      <trkpt lat="43.302879" lon="-2.386537">
        <ele>111.542</ele>
        <time>2019-06-15T17:08:26Z</time>
      </trkpt>
      <trkpt lat="43.302892" lon="-2.386622">
        <ele>110.286</ele>
        <time>2019-06-15T17:08:27Z</time>
      </trkpt>
      <trkpt lat="43.302870" lon="-2.386715">
        <ele>110.360</ele>
        <time>2019-06-15T17:08:28Z</time>
      </trkpt>
      <trkpt lat="43.302839" lon="-2.386835">
        <ele>110.126</ele>
        <time>2019-06-15T17:08:29Z</time>
      </trkpt>
      <trkpt lat="43.302784" lon="-2.386973">
        <ele>110.408</ele>
        <time>2019-06-15T17:08:30Z</time>
      </trkpt>
      <trkpt lat="43.302734" lon="-2.387126">
        <ele>110.691</ele>
        <time>2019-06-15T17:08:31Z</time>
      </trkpt>
      <trkpt lat="43.302681" lon="-2.387265">
        <ele>111.015</ele>
        <time>2019-06-15T17:08:32Z</time>
      </trkpt>
      <trkpt lat="43.302637" lon="-2.387404">
        <ele>110.874</ele>
        <time>2019-06-15T17:08:33Z</time>
      </trkpt>
      <trkpt lat="43.302593" lon="-2.387531">
        <ele>110.593</ele>
        <time>2019-06-15T17:08:34Z</time>
      </trkpt>
      <trkpt lat="43.302549" lon="-2.387684">
        <ele>109.852</ele>
        <time>2019-06-15T17:08:35Z</time>
      </trkpt>
      <trkpt lat="43.302516" lon="-2.387827">
        <ele>109.323</ele>
        <time>2019-06-15T17:08:36Z</time>
      </trkpt>
      <trkpt lat="43.302521" lon="-2.387953">
        <ele>108.622</ele>
        <time>2019-06-15T17:08:37Z</time>
      </trkpt>
      <trkpt lat="43.302528" lon="-2.388056">
        <ele>107.926</ele>
        <time>2019-06-15T17:08:38Z</time>
      </trkpt>
      <trkpt lat="43.302540" lon="-2.388140">
        <ele>105.674</ele>
        <time>2019-06-15T17:08:39Z</time>
      </trkpt>
      <trkpt lat="43.302610" lon="-2.388210">
        <ele>101.356</ele>
        <time>2019-06-15T17:08:41Z</time>
      </trkpt>
      <trkpt lat="43.302699" lon="-2.388204">
        <ele>97.921</ele>
        <time>2019-06-15T17:08:42Z</time>
      </trkpt>
      <trkpt lat="43.302765" lon="-2.388168">
        <ele>96.108</ele>
        <time>2019-06-15T17:08:43Z</time>
      </trkpt>
      <trkpt lat="43.302818" lon="-2.388068">
        <ele>96.290</ele>
        <time>2019-06-15T17:08:44Z</time>
      </trkpt>
      <trkpt lat="43.302824" lon="-2.387890">
        <ele>97.974</ele>
        <time>2019-06-15T17:08:45Z</time>
      </trkpt>
      <trkpt lat="43.302855" lon="-2.387736">
        <ele>98.343</ele>
        <time>2019-06-15T17:08:46Z</time>
      </trkpt>
      <trkpt lat="43.302890" lon="-2.387579">
        <ele>99.072</ele>
        <time>2019-06-15T17:08:47Z</time>
      </trkpt>
      <trkpt lat="43.302933" lon="-2.387428">
        <ele>99.121</ele>
        <time>2019-06-15T17:08:48Z</time>
      </trkpt>
      <trkpt lat="43.302977" lon="-2.387278">
        <ele>98.852</ele>
        <time>2019-06-15T17:08:49Z</time>
      </trkpt>
      <trkpt lat="43.303022" lon="-2.387130">
        <ele>98.421</ele>
        <time>2019-06-15T17:08:50Z</time>
      </trkpt>
      <trkpt lat="43.303067" lon="-2.386996">
        <ele>98.025</ele>
        <time>2019-06-15T17:08:51Z</time>
      </trkpt>
      <trkpt lat="43.303086" lon="-2.386861">
        <ele>98.576</ele>
        <time>2019-06-15T17:08:52Z</time>
      </trkpt>
      <trkpt lat="43.303136" lon="-2.386772">
        <ele>97.490</ele>
        <time>2019-06-15T17:08:53Z</time>
      </trkpt>
      <trkpt lat="43.303173" lon="-2.386676">
        <ele>97.119</ele>
        <time>2019-06-15T17:08:54Z</time>
      </trkpt>
      <trkpt lat="43.303238" lon="-2.386591">
        <ele>95.608</ele>
        <time>2019-06-15T17:08:56Z</time>
      </trkpt>
      <trkpt lat="43.303278" lon="-2.386635">
        <ele>94.010</ele>
        <time>2019-06-15T17:08:57Z</time>
      </trkpt>
      <trkpt lat="43.303307" lon="-2.386684">
        <ele>92.684</ele>
        <time>2019-06-15T17:08:58Z</time>
      </trkpt>
      <trkpt lat="43.303259" lon="-2.386859">
        <ele>92.013</ele>
        <time>2019-06-15T17:08:59Z</time>
      </trkpt>
      <trkpt lat="43.303256" lon="-2.386981">
        <ele>90.582</ele>
        <time>2019-06-15T17:09:00Z</time>
      </trkpt>
      <trkpt lat="43.303225" lon="-2.387104">
        <ele>89.941</ele>
        <time>2019-06-15T17:09:01Z</time>
      </trkpt>
      <trkpt lat="43.303196" lon="-2.387253">
        <ele>89.122</ele>
        <time>2019-06-15T17:09:02Z</time>
      </trkpt>
      <trkpt lat="43.303153" lon="-2.387399">
        <ele>89.551</ele>
        <time>2019-06-15T17:09:03Z</time>
      </trkpt>
      <trkpt lat="43.303116" lon="-2.387554">
        <ele>89.495</ele>
        <time>2019-06-15T17:09:04Z</time>
      </trkpt>
      <trkpt lat="43.303084" lon="-2.387709">
        <ele>88.652</ele>
        <time>2019-06-15T17:09:05Z</time>
      </trkpt>
      <trkpt lat="43.303044" lon="-2.387861">
        <ele>88.953</ele>
        <time>2019-06-15T17:09:06Z</time>
      </trkpt>
      <trkpt lat="43.303019" lon="-2.388011">
        <ele>88.808</ele>
        <time>2019-06-15T17:09:07Z</time>
      </trkpt>
      <trkpt lat="43.302986" lon="-2.388170">
        <ele>88.208</ele>
        <time>2019-06-15T17:09:08Z</time>
      </trkpt>
      <trkpt lat="43.302967" lon="-2.388317">
        <ele>86.888</ele>
        <time>2019-06-15T17:09:09Z</time>
      </trkpt>
      <trkpt lat="43.302954" lon="-2.388457">
        <ele>85.662</ele>
        <time>2019-06-15T17:09:10Z</time>
      </trkpt>
      <trkpt lat="43.302945" lon="-2.388583">
        <ele>84.561</ele>
        <time>2019-06-15T17:09:11Z</time>
      </trkpt>
      <trkpt lat="43.302943" lon="-2.388697">
        <ele>85.260</ele>
        <time>2019-06-15T17:09:12Z</time>
      </trkpt>
      <trkpt lat="43.302985" lon="-2.388832">
        <ele>85.869</ele>
        <time>2019-06-15T17:09:13Z</time>
      </trkpt>
      <trkpt lat="43.303009" lon="-2.388921">
        <ele>86.710</ele>
        <time>2019-06-15T17:09:14Z</time>
      </trkpt>
      <trkpt lat="43.303043" lon="-2.389001">
        <ele>87.799</ele>
        <time>2019-06-15T17:09:15Z</time>
      </trkpt>
      <trkpt lat="43.303137" lon="-2.388955">
        <ele>86.363</ele>
        <time>2019-06-15T17:09:16Z</time>
      </trkpt>
      <trkpt lat="43.303201" lon="-2.388976">
        <ele>86.986</ele>
        <time>2019-06-15T17:09:17Z</time>
      </trkpt>
      <trkpt lat="43.303377" lon="-2.388820">
        <ele>82.960</ele>
        <time>2019-06-15T17:09:18Z</time>
      </trkpt>
      <trkpt lat="43.303479" lon="-2.388737">
        <ele>82.026</ele>
        <time>2019-06-15T17:09:19Z</time>
      </trkpt>
      <trkpt lat="43.303581" lon="-2.388671">
        <ele>81.308</ele>
        <time>2019-06-15T17:09:20Z</time>
      </trkpt>
      <trkpt lat="43.303691" lon="-2.388584">
        <ele>80.611</ele>
        <time>2019-06-15T17:09:21Z</time>
      </trkpt>
      <trkpt lat="43.303787" lon="-2.388504">
        <ele>79.925</ele>
        <time>2019-06-15T17:09:22Z</time>
      </trkpt>
      <trkpt lat="43.303883" lon="-2.388430">
        <ele>78.714</ele>
        <time>2019-06-15T17:09:23Z</time>
      </trkpt>
      <trkpt lat="43.303967" lon="-2.388388">
        <ele>77.583</ele>
        <time>2019-06-15T17:09:24Z</time>
      </trkpt>
      <trkpt lat="43.304072" lon="-2.388356">
        <ele>76.612</ele>
        <time>2019-06-15T17:09:25Z</time>
      </trkpt>
      <trkpt lat="43.304180" lon="-2.388339">
        <ele>76.143</ele>
        <time>2019-06-15T17:09:26Z</time>
      </trkpt>
      <trkpt lat="43.304286" lon="-2.388321">
        <ele>75.342</ele>
        <time>2019-06-15T17:09:27Z</time>
      </trkpt>
      <trkpt lat="43.304394" lon="-2.388303">
        <ele>74.546</ele>
        <time>2019-06-15T17:09:28Z</time>
      </trkpt>
      <trkpt lat="43.304500" lon="-2.388280">
        <ele>73.187</ele>
        <time>2019-06-15T17:09:29Z</time>
      </trkpt>
      <trkpt lat="43.304605" lon="-2.388259">
        <ele>71.442</ele>
        <time>2019-06-15T17:09:30Z</time>
      </trkpt>
      <trkpt lat="43.304708" lon="-2.388241">
        <ele>69.826</ele>
        <time>2019-06-15T17:09:31Z</time>
      </trkpt>
      <trkpt lat="43.304814" lon="-2.388224">
        <ele>68.908</ele>
        <time>2019-06-15T17:09:32Z</time>
      </trkpt>
      <trkpt lat="43.304916" lon="-2.388196">
        <ele>68.061</ele>
        <time>2019-06-15T17:09:33Z</time>
      </trkpt>
      <trkpt lat="43.305020" lon="-2.388181">
        <ele>67.235</ele>
        <time>2019-06-15T17:09:34Z</time>
      </trkpt>
      <trkpt lat="43.305118" lon="-2.388151">
        <ele>66.024</ele>
        <time>2019-06-15T17:09:35Z</time>
      </trkpt>
      <trkpt lat="43.305220" lon="-2.388131">
        <ele>65.033</ele>
        <time>2019-06-15T17:09:36Z</time>
      </trkpt>
      <trkpt lat="43.305341" lon="-2.388110">
        <ele>63.842</ele>
        <time>2019-06-15T17:09:37Z</time>
      </trkpt>
      <trkpt lat="43.305432" lon="-2.388114">
        <ele>63.173</ele>
        <time>2019-06-15T17:09:38Z</time>
      </trkpt>
      <trkpt lat="43.305529" lon="-2.388089">
        <ele>61.932</ele>
        <time>2019-06-15T17:09:39Z</time>
      </trkpt>
      <trkpt lat="43.305615" lon="-2.388057">
        <ele>61.086</ele>
        <time>2019-06-15T17:09:40Z</time>
      </trkpt>
      <trkpt lat="43.305705" lon="-2.388034">
        <ele>60.566</ele>
        <time>2019-06-15T17:09:41Z</time>
      </trkpt>
      <trkpt lat="43.305797" lon="-2.388007">
        <ele>60.129</ele>
        <time>2019-06-15T17:09:42Z</time>
      </trkpt>
      <trkpt lat="43.305906" lon="-2.387999">
        <ele>59.921</ele>
        <time>2019-06-15T17:09:43Z</time>
      </trkpt>
      <trkpt lat="43.306008" lon="-2.387975">
        <ele>59.508</ele>
        <time>2019-06-15T17:09:44Z</time>
      </trkpt>
      <trkpt lat="43.306116" lon="-2.387956">
        <ele>59.389</ele>
        <time>2019-06-15T17:09:45Z</time>
      </trkpt>
      <trkpt lat="43.306221" lon="-2.387921">
        <ele>58.893</ele>
        <time>2019-06-15T17:09:46Z</time>
      </trkpt>
      <trkpt lat="43.306314" lon="-2.387908">
        <ele>58.542</ele>
        <time>2019-06-15T17:09:47Z</time>
      </trkpt>
      <trkpt lat="43.306409" lon="-2.387912">
        <ele>58.341</ele>
        <time>2019-06-15T17:09:48Z</time>
      </trkpt>
      <trkpt lat="43.306496" lon="-2.387900">
        <ele>57.430</ele>
        <time>2019-06-15T17:09:49Z</time>
      </trkpt>
      <trkpt lat="43.306574" lon="-2.387893">
        <ele>56.681</ele>
        <time>2019-06-15T17:09:50Z</time>
      </trkpt>
      <trkpt lat="43.306639" lon="-2.387886">
        <ele>56.080</ele>
        <time>2019-06-15T17:09:51Z</time>
      </trkpt>
      <trkpt lat="43.306732" lon="-2.387891">
        <ele>55.274</ele>
        <time>2019-06-15T17:09:53Z</time>
      </trkpt>
      <trkpt lat="43.306796" lon="-2.387854">
        <ele>54.533</ele>
        <time>2019-06-15T17:09:54Z</time>
      </trkpt>
      <trkpt lat="43.306868" lon="-2.387784">
        <ele>53.623</ele>
        <time>2019-06-15T17:09:56Z</time>
      </trkpt>
      <trkpt lat="43.306917" lon="-2.387748">
        <ele>53.115</ele>
        <time>2019-06-15T17:09:57Z</time>
      </trkpt>
      <trkpt lat="43.306971" lon="-2.387732">
        <ele>52.508</ele>
        <time>2019-06-15T17:09:58Z</time>
      </trkpt>
      <trkpt lat="43.307053" lon="-2.387774">
        <ele>51.816</ele>
        <time>2019-06-15T17:10:00Z</time>
      </trkpt>
      <trkpt lat="43.307071" lon="-2.387896">
        <ele>52.130</ele>
        <time>2019-06-15T17:10:02Z</time>
      </trkpt>
      <trkpt lat="43.307057" lon="-2.387971">
        <ele>52.559</ele>
        <time>2019-06-15T17:10:03Z</time>
      </trkpt>
      <trkpt lat="43.307030" lon="-2.388054">
        <ele>53.158</ele>
        <time>2019-06-15T17:10:04Z</time>
      </trkpt>
      <trkpt lat="43.306988" lon="-2.388151">
        <ele>54.327</ele>
        <time>2019-06-15T17:10:05Z</time>
      </trkpt>
      <trkpt lat="43.306955" lon="-2.388276">
        <ele>55.598</ele>
        <time>2019-06-15T17:10:06Z</time>
      </trkpt>
      <trkpt lat="43.306943" lon="-2.388408">
        <ele>56.687</ele>
        <time>2019-06-15T17:10:07Z</time>
      </trkpt>
      <trkpt lat="43.306938" lon="-2.388546">
        <ele>57.721</ele>
        <time>2019-06-15T17:10:08Z</time>
      </trkpt>
      <trkpt lat="43.306937" lon="-2.388697">
        <ele>59.477</ele>
        <time>2019-06-15T17:10:09Z</time>
      </trkpt>
      <trkpt lat="43.306950" lon="-2.388850">
        <ele>61.461</ele>
        <time>2019-06-15T17:10:10Z</time>
      </trkpt>
      <trkpt lat="43.306977" lon="-2.388995">
        <ele>62.927</ele>
        <time>2019-06-15T17:10:11Z</time>
      </trkpt>
      <trkpt lat="43.307006" lon="-2.389129">
        <ele>64.008</ele>
        <time>2019-06-15T17:10:12Z</time>
      </trkpt>
      <trkpt lat="43.307037" lon="-2.389233">
        <ele>64.880</ele>
        <time>2019-06-15T17:10:13Z</time>
      </trkpt>
      <trkpt lat="43.307060" lon="-2.389335">
        <ele>66.054</ele>
        <time>2019-06-15T17:10:14Z</time>
      </trkpt>
      <trkpt lat="43.307090" lon="-2.389420">
        <ele>67.293</ele>
        <time>2019-06-15T17:10:15Z</time>
      </trkpt>
      <trkpt lat="43.307155" lon="-2.389443">
        <ele>67.772</ele>
        <time>2019-06-15T17:10:16Z</time>
      </trkpt>
      <trkpt lat="43.307203" lon="-2.389468">
        <ele>68.051</ele>
        <time>2019-06-15T17:10:17Z</time>
      </trkpt>
      <trkpt lat="43.307246" lon="-2.389448">
        <ele>68.182</ele>
        <time>2019-06-15T17:10:18Z</time>
      </trkpt>
      <trkpt lat="43.307302" lon="-2.389431">
        <ele>68.031</ele>
        <time>2019-06-15T17:10:20Z</time>
      </trkpt>
      <trkpt lat="43.307290" lon="-2.389530">
        <ele>68.855</ele>
        <time>2019-06-15T17:10:35Z</time>
      </trkpt>
      <trkpt lat="43.307258" lon="-2.389581">
        <ele>68.814</ele>
        <time>2019-06-15T17:10:36Z</time>
      </trkpt>
      <trkpt lat="43.307226" lon="-2.389695">
        <ele>69.054</ele>
        <time>2019-06-15T17:10:37Z</time>
      </trkpt>
      <trkpt lat="43.307219" lon="-2.389758">
        <ele>69.409</ele>
        <time>2019-06-15T17:10:38Z</time>
      </trkpt>
      <trkpt lat="43.307232" lon="-2.389831">
        <ele>70.308</ele>
        <time>2019-06-15T17:10:39Z</time>
      </trkpt>
      <trkpt lat="43.307245" lon="-2.389904">
        <ele>71.164</ele>
        <time>2019-06-15T17:10:40Z</time>
      </trkpt>
      <trkpt lat="43.307335" lon="-2.390028">
        <ele>72.848</ele>
        <time>2019-06-15T17:10:41Z</time>
      </trkpt>
      <trkpt lat="43.307398" lon="-2.390130">
        <ele>74.187</ele>
        <time>2019-06-15T17:10:42Z</time>
      </trkpt>
      <trkpt lat="43.307457" lon="-2.390224">
        <ele>74.886</ele>
        <time>2019-06-15T17:10:43Z</time>
      </trkpt>
      <trkpt lat="43.307488" lon="-2.390344">
        <ele>75.335</ele>
        <time>2019-06-15T17:10:44Z</time>
      </trkpt>
      <trkpt lat="43.307583" lon="-2.390431">
        <ele>78.576</ele>
        <time>2019-06-15T17:10:45Z</time>
      </trkpt>
      <trkpt lat="43.307598" lon="-2.390537">
        <ele>79.215</ele>
        <time>2019-06-15T17:10:46Z</time>
      </trkpt>
      <trkpt lat="43.307631" lon="-2.390636">
        <ele>80.769</ele>
        <time>2019-06-15T17:10:47Z</time>
      </trkpt>
      <trkpt lat="43.307540" lon="-2.390813">
        <ele>77.757</ele>
        <time>2019-06-15T17:10:48Z</time>
      </trkpt>
      <trkpt lat="43.307498" lon="-2.390959">
        <ele>76.000</ele>
        <time>2019-06-15T17:10:49Z</time>
      </trkpt>
      <trkpt lat="43.307479" lon="-2.391085">
        <ele>75.620</ele>
        <time>2019-06-15T17:10:50Z</time>
      </trkpt>
      <trkpt lat="43.307463" lon="-2.391189">
        <ele>74.808</ele>
        <time>2019-06-15T17:10:51Z</time>
      </trkpt>
      <trkpt lat="43.307457" lon="-2.391294">
        <ele>74.158</ele>
        <time>2019-06-15T17:10:52Z</time>
      </trkpt>
      <trkpt lat="43.307449" lon="-2.391403">
        <ele>73.562</ele>
        <time>2019-06-15T17:10:53Z</time>
      </trkpt>
      <trkpt lat="43.307427" lon="-2.391548">
        <ele>73.361</ele>
        <time>2019-06-15T17:10:54Z</time>
      </trkpt>
      <trkpt lat="43.307407" lon="-2.391690">
        <ele>72.870</ele>
        <time>2019-06-15T17:10:55Z</time>
      </trkpt>
      <trkpt lat="43.307381" lon="-2.391843">
        <ele>71.359</ele>
        <time>2019-06-15T17:10:56Z</time>
      </trkpt>
      <trkpt lat="43.307339" lon="-2.392007">
        <ele>70.210</ele>
        <time>2019-06-15T17:10:57Z</time>
      </trkpt>
      <trkpt lat="43.307298" lon="-2.392159">
        <ele>69.679</ele>
        <time>2019-06-15T17:10:58Z</time>
      </trkpt>
      <trkpt lat="43.307178" lon="-2.392282">
        <ele>69.133</ele>
        <time>2019-06-15T17:10:59Z</time>
      </trkpt>
      <trkpt lat="43.307090" lon="-2.392425">
        <ele>69.452</ele>
        <time>2019-06-15T17:11:00Z</time>
      </trkpt>
      <trkpt lat="43.306996" lon="-2.392528">
        <ele>69.453</ele>
        <time>2019-06-15T17:11:01Z</time>
      </trkpt>
      <trkpt lat="43.306901" lon="-2.392640">
        <ele>69.908</ele>
        <time>2019-06-15T17:11:02Z</time>
      </trkpt>
      <trkpt lat="43.306818" lon="-2.392748">
        <ele>69.508</ele>
        <time>2019-06-15T17:11:03Z</time>
      </trkpt>
      <trkpt lat="43.306742" lon="-2.392879">
        <ele>70.088</ele>
        <time>2019-06-15T17:11:04Z</time>
      </trkpt>
      <trkpt lat="43.306671" lon="-2.393007">
        <ele>69.422</ele>
        <time>2019-06-15T17:11:05Z</time>
      </trkpt>
      <trkpt lat="43.306616" lon="-2.393145">
        <ele>69.221</ele>
        <time>2019-06-15T17:11:06Z</time>
      </trkpt>
      <trkpt lat="43.306595" lon="-2.393306">
        <ele>69.930</ele>
        <time>2019-06-15T17:11:07Z</time>
      </trkpt>
      <trkpt lat="43.306563" lon="-2.393464">
        <ele>67.489</ele>
        <time>2019-06-15T17:11:08Z</time>
      </trkpt>
      <trkpt lat="43.306597" lon="-2.393662">
        <ele>66.230</ele>
        <time>2019-06-15T17:11:09Z</time>
      </trkpt>
      <trkpt lat="43.306620" lon="-2.393858">
        <ele>65.369</ele>
        <time>2019-06-15T17:11:10Z</time>
      </trkpt>
      <trkpt lat="43.306652" lon="-2.394053">
        <ele>63.513</ele>
        <time>2019-06-15T17:11:11Z</time>
      </trkpt>
      <trkpt lat="43.306713" lon="-2.394240">
        <ele>62.868</ele>
        <time>2019-06-15T17:11:12Z</time>
      </trkpt>
      <trkpt lat="43.306767" lon="-2.394427">
        <ele>60.942</ele>
        <time>2019-06-15T17:11:13Z</time>
      </trkpt>
      <trkpt lat="43.306829" lon="-2.394610">
        <ele>58.426</ele>
        <time>2019-06-15T17:11:14Z</time>
      </trkpt>
      <trkpt lat="43.306902" lon="-2.394788">
        <ele>56.208</ele>
        <time>2019-06-15T17:11:15Z</time>
      </trkpt>
      <trkpt lat="43.306989" lon="-2.394926">
        <ele>56.899</ele>
        <time>2019-06-15T17:11:16Z</time>
      </trkpt>
      <trkpt lat="43.307075" lon="-2.395064">
        <ele>56.263</ele>
        <time>2019-06-15T17:11:17Z</time>
      </trkpt>
      <trkpt lat="43.307159" lon="-2.395194">
        <ele>54.362</ele>
        <time>2019-06-15T17:11:18Z</time>
      </trkpt>
      <trkpt lat="43.307246" lon="-2.395327">
        <ele>51.811</ele>
        <time>2019-06-15T17:11:19Z</time>
      </trkpt>
      <trkpt lat="43.307375" lon="-2.395400">
        <ele>51.310</ele>
        <time>2019-06-15T17:11:20Z</time>
      </trkpt>
      <trkpt lat="43.307483" lon="-2.395467">
        <ele>50.371</ele>
        <time>2019-06-15T17:11:21Z</time>
      </trkpt>
      <trkpt lat="43.307605" lon="-2.395539">
        <ele>48.040</ele>
        <time>2019-06-15T17:11:22Z</time>
      </trkpt>
      <trkpt lat="43.307725" lon="-2.395628">
        <ele>46.794</ele>
        <time>2019-06-15T17:11:23Z</time>
      </trkpt>
      <trkpt lat="43.307829" lon="-2.395748">
        <ele>45.773</ele>
        <time>2019-06-15T17:11:24Z</time>
      </trkpt>
      <trkpt lat="43.307925" lon="-2.395876">
        <ele>45.385</ele>
        <time>2019-06-15T17:11:25Z</time>
      </trkpt>
      <trkpt lat="43.308039" lon="-2.395995">
        <ele>45.713</ele>
        <time>2019-06-15T17:11:26Z</time>
      </trkpt>
      <trkpt lat="43.308100" lon="-2.396157">
        <ele>45.508</ele>
        <time>2019-06-15T17:11:27Z</time>
      </trkpt>
      <trkpt lat="43.308157" lon="-2.396346">
        <ele>46.220</ele>
        <time>2019-06-15T17:11:28Z</time>
      </trkpt>
      <trkpt lat="43.308212" lon="-2.396535">
        <ele>46.654</ele>
        <time>2019-06-15T17:11:29Z</time>
      </trkpt>
      <trkpt lat="43.308199" lon="-2.396788">
        <ele>45.253</ele>
        <time>2019-06-15T17:11:30Z</time>
      </trkpt>
      <trkpt lat="43.308214" lon="-2.397022">
        <ele>45.052</ele>
        <time>2019-06-15T17:11:31Z</time>
      </trkpt>
      <trkpt lat="43.308206" lon="-2.397242">
        <ele>44.931</ele>
        <time>2019-06-15T17:11:32Z</time>
      </trkpt>
      <trkpt lat="43.308210" lon="-2.397487">
        <ele>46.152</ele>
        <time>2019-06-15T17:11:33Z</time>
      </trkpt>
      <trkpt lat="43.308187" lon="-2.397773">
        <ele>44.251</ele>
        <time>2019-06-15T17:11:34Z</time>
      </trkpt>
      <trkpt lat="43.308169" lon="-2.398077">
        <ele>43.075</ele>
        <time>2019-06-15T17:11:35Z</time>
      </trkpt>
      <trkpt lat="43.308151" lon="-2.398318">
        <ele>41.569</ele>
        <time>2019-06-15T17:11:36Z</time>
      </trkpt>
      <trkpt lat="43.308146" lon="-2.398586">
        <ele>39.804</ele>
        <time>2019-06-15T17:11:37Z</time>
      </trkpt>
      <trkpt lat="43.308145" lon="-2.398846">
        <ele>37.624</ele>
        <time>2019-06-15T17:11:38Z</time>
      </trkpt>
      <trkpt lat="43.308151" lon="-2.399117">
        <ele>36.308</ele>
        <time>2019-06-15T17:11:39Z</time>
      </trkpt>
      <trkpt lat="43.308152" lon="-2.399379">
        <ele>36.629</ele>
        <time>2019-06-15T17:11:40Z</time>
      </trkpt>
      <trkpt lat="43.308155" lon="-2.399641">
        <ele>37.033</ele>
        <time>2019-06-15T17:11:41Z</time>
      </trkpt>
      <trkpt lat="43.308169" lon="-2.399900">
        <ele>38.082</ele>
        <time>2019-06-15T17:11:42Z</time>
      </trkpt>
      <trkpt lat="43.308171" lon="-2.400157">
        <ele>38.871</ele>
        <time>2019-06-15T17:11:43Z</time>
      </trkpt>
      <trkpt lat="43.308179" lon="-2.400413">
        <ele>39.230</ele>
        <time>2019-06-15T17:11:44Z</time>
      </trkpt>
      <trkpt lat="43.308175" lon="-2.400670">
        <ele>37.951</ele>
        <time>2019-06-15T17:11:45Z</time>
      </trkpt>
      <trkpt lat="43.308189" lon="-2.400931">
        <ele>36.410</ele>
        <time>2019-06-15T17:11:46Z</time>
      </trkpt>
      <trkpt lat="43.308198" lon="-2.401181">
        <ele>35.294</ele>
        <time>2019-06-15T17:11:47Z</time>
      </trkpt>
      <trkpt lat="43.308207" lon="-2.401402">
        <ele>34.117</ele>
        <time>2019-06-15T17:11:48Z</time>
      </trkpt>
      <trkpt lat="43.308222" lon="-2.401645">
        <ele>32.987</ele>
        <time>2019-06-15T17:11:49Z</time>
      </trkpt>
      <trkpt lat="43.308237" lon="-2.401878">
        <ele>32.515</ele>
        <time>2019-06-15T17:11:50Z</time>
      </trkpt>
      <trkpt lat="43.308249" lon="-2.402113">
        <ele>31.808</ele>
        <time>2019-06-15T17:11:51Z</time>
      </trkpt>
      <trkpt lat="43.308256" lon="-2.402327">
        <ele>31.244</ele>
        <time>2019-06-15T17:11:52Z</time>
      </trkpt>
      <trkpt lat="43.308248" lon="-2.402553">
        <ele>30.678</ele>
        <time>2019-06-15T17:11:53Z</time>
      </trkpt>
      <trkpt lat="43.308258" lon="-2.402774">
        <ele>30.597</ele>
        <time>2019-06-15T17:11:54Z</time>
      </trkpt>
      <trkpt lat="43.308265" lon="-2.402958">
        <ele>31.036</ele>
        <time>2019-06-15T17:11:55Z</time>
      </trkpt>
      <trkpt lat="43.308273" lon="-2.403162">
        <ele>31.365</ele>
        <time>2019-06-15T17:11:56Z</time>
      </trkpt>
      <trkpt lat="43.308310" lon="-2.403375">
        <ele>31.946</ele>
        <time>2019-06-15T17:11:57Z</time>
      </trkpt>
      <trkpt lat="43.308322" lon="-2.403564">
        <ele>32.695</ele>
        <time>2019-06-15T17:11:58Z</time>
      </trkpt>
      <trkpt lat="43.308332" lon="-2.403753">
        <ele>32.039</ele>
        <time>2019-06-15T17:11:59Z</time>
      </trkpt>
      <trkpt lat="43.308341" lon="-2.403941">
        <ele>30.624</ele>
        <time>2019-06-15T17:12:00Z</time>
      </trkpt>
      <trkpt lat="43.308371" lon="-2.404141">
        <ele>29.004</ele>
        <time>2019-06-15T17:12:01Z</time>
      </trkpt>
      <trkpt lat="43.308388" lon="-2.404277">
        <ele>28.414</ele>
        <time>2019-06-15T17:12:02Z</time>
      </trkpt>
      <trkpt lat="43.308426" lon="-2.404431">
        <ele>27.808</ele>
        <time>2019-06-15T17:12:03Z</time>
      </trkpt>
      <trkpt lat="43.308508" lon="-2.404634">
        <ele>27.145</ele>
        <time>2019-06-15T17:12:04Z</time>
      </trkpt>
      <trkpt lat="43.308590" lon="-2.404827">
        <ele>26.659</ele>
        <time>2019-06-15T17:12:05Z</time>
      </trkpt>
      <trkpt lat="43.308668" lon="-2.405022">
        <ele>26.978</ele>
        <time>2019-06-15T17:12:06Z</time>
      </trkpt>
      <trkpt lat="43.308736" lon="-2.405232">
        <ele>26.787</ele>
        <time>2019-06-15T17:12:07Z</time>
      </trkpt>
      <trkpt lat="43.308813" lon="-2.405439">
        <ele>26.886</ele>
        <time>2019-06-15T17:12:08Z</time>
      </trkpt>
      <trkpt lat="43.308872" lon="-2.405705">
        <ele>25.967</ele>
        <time>2019-06-15T17:12:09Z</time>
      </trkpt>
      <trkpt lat="43.308945" lon="-2.405947">
        <ele>27.036</ele>
        <time>2019-06-15T17:12:10Z</time>
      </trkpt>
      <trkpt lat="43.309013" lon="-2.406175">
        <ele>26.990</ele>
        <time>2019-06-15T17:12:11Z</time>
      </trkpt>
      <trkpt lat="43.309079" lon="-2.406389">
        <ele>25.728</ele>
        <time>2019-06-15T17:12:12Z</time>
      </trkpt>
      <trkpt lat="43.309151" lon="-2.406612">
        <ele>23.789</ele>
        <time>2019-06-15T17:12:13Z</time>
      </trkpt>
      <trkpt lat="43.309204" lon="-2.406828">
        <ele>23.617</ele>
        <time>2019-06-15T17:12:14Z</time>
      </trkpt>
      <trkpt lat="43.309274" lon="-2.407038">
        <ele>24.008</ele>
        <time>2019-06-15T17:12:15Z</time>
      </trkpt>
      <trkpt lat="43.309348" lon="-2.407195">
        <ele>23.915</ele>
        <time>2019-06-15T17:12:16Z</time>
      </trkpt>
      <trkpt lat="43.309399" lon="-2.407447">
        <ele>22.319</ele>
        <time>2019-06-15T17:12:17Z</time>
      </trkpt>
      <trkpt lat="43.309462" lon="-2.407632">
        <ele>22.198</ele>
        <time>2019-06-15T17:12:18Z</time>
      </trkpt>
      <trkpt lat="43.309518" lon="-2.407838">
        <ele>21.797</ele>
        <time>2019-06-15T17:12:19Z</time>
      </trkpt>
      <trkpt lat="43.309580" lon="-2.408014">
        <ele>21.396</ele>
        <time>2019-06-15T17:12:20Z</time>
      </trkpt>
      <trkpt lat="43.309642" lon="-2.408172">
        <ele>21.187</ele>
        <time>2019-06-15T17:12:21Z</time>
      </trkpt>
      <trkpt lat="43.309706" lon="-2.408359">
        <ele>20.816</ele>
        <time>2019-06-15T17:12:22Z</time>
      </trkpt>
      <trkpt lat="43.309766" lon="-2.408530">
        <ele>20.490</ele>
        <time>2019-06-15T17:12:23Z</time>
      </trkpt>
      <trkpt lat="43.309850" lon="-2.408684">
        <ele>20.735</ele>
        <time>2019-06-15T17:12:24Z</time>
      </trkpt>
      <trkpt lat="43.309952" lon="-2.408838">
        <ele>19.886</ele>
        <time>2019-06-15T17:12:25Z</time>
      </trkpt>
      <trkpt lat="43.310081" lon="-2.409005">
        <ele>19.914</ele>
        <time>2019-06-15T17:12:26Z</time>
      </trkpt>
      <trkpt lat="43.310225" lon="-2.409168">
        <ele>18.008</ele>
        <time>2019-06-15T17:12:27Z</time>
      </trkpt>
      <trkpt lat="43.310367" lon="-2.409329">
        <ele>19.366</ele>
        <time>2019-06-15T17:12:28Z</time>
      </trkpt>
      <trkpt lat="43.310493" lon="-2.409489">
        <ele>18.680</ele>
        <time>2019-06-15T17:12:29Z</time>
      </trkpt>
      <trkpt lat="43.310642" lon="-2.409647">
        <ele>18.539</ele>
        <time>2019-06-15T17:12:30Z</time>
      </trkpt>
      <trkpt lat="43.310793" lon="-2.409783">
        <ele>17.718</ele>
        <time>2019-06-15T17:12:31Z</time>
      </trkpt>
      <trkpt lat="43.310929" lon="-2.409913">
        <ele>17.977</ele>
        <time>2019-06-15T17:12:32Z</time>
      </trkpt>
      <trkpt lat="43.311072" lon="-2.410039">
        <ele>17.068</ele>
        <time>2019-06-15T17:12:33Z</time>
      </trkpt>
      <trkpt lat="43.311244" lon="-2.410125">
        <ele>17.037</ele>
        <time>2019-06-15T17:12:34Z</time>
      </trkpt>
      <trkpt lat="43.311402" lon="-2.410201">
        <ele>16.561</ele>
        <time>2019-06-15T17:12:35Z</time>
      </trkpt>
      <trkpt lat="43.311574" lon="-2.410266">
        <ele>15.533</ele>
        <time>2019-06-15T17:12:36Z</time>
      </trkpt>
      <trkpt lat="43.311758" lon="-2.410310">
        <ele>15.223</ele>
        <time>2019-06-15T17:12:37Z</time>
      </trkpt>
      <trkpt lat="43.311956" lon="-2.410335">
        <ele>15.215</ele>
        <time>2019-06-15T17:12:38Z</time>
      </trkpt>
      <trkpt lat="43.312128" lon="-2.410368">
        <ele>15.608</ele>
        <time>2019-06-15T17:12:39Z</time>
      </trkpt>
      <trkpt lat="43.312312" lon="-2.410395">
        <ele>16.166</ele>
        <time>2019-06-15T17:12:40Z</time>
      </trkpt>
      <trkpt lat="43.312483" lon="-2.410424">
        <ele>16.870</ele>
        <time>2019-06-15T17:12:41Z</time>
      </trkpt>
      <trkpt lat="43.312654" lon="-2.410464">
        <ele>17.449</ele>
        <time>2019-06-15T17:12:42Z</time>
      </trkpt>
      <trkpt lat="43.312825" lon="-2.410505">
        <ele>17.298</ele>
        <time>2019-06-15T17:12:43Z</time>
      </trkpt>
      <trkpt lat="43.312956" lon="-2.410574">
        <ele>16.217</ele>
        <time>2019-06-15T17:12:44Z</time>
      </trkpt>
      <trkpt lat="43.313103" lon="-2.410625">
        <ele>16.838</ele>
        <time>2019-06-15T17:12:45Z</time>
      </trkpt>
      <trkpt lat="43.313216" lon="-2.410674">
        <ele>16.967</ele>
        <time>2019-06-15T17:12:46Z</time>
      </trkpt>
      <trkpt lat="43.313350" lon="-2.410683">
        <ele>17.361</ele>
        <time>2019-06-15T17:12:47Z</time>
      </trkpt>
      <trkpt lat="43.313448" lon="-2.410723">
        <ele>16.581</ele>
        <time>2019-06-15T17:12:48Z</time>
      </trkpt>
      <trkpt lat="43.313533" lon="-2.410747">
        <ele>16.161</ele>
        <time>2019-06-15T17:12:49Z</time>
      </trkpt>
      <trkpt lat="43.313611" lon="-2.410781">
        <ele>15.317</ele>
        <time>2019-06-15T17:12:50Z</time>
      </trkpt>
      <trkpt lat="43.313718" lon="-2.410822">
        <ele>13.908</ele>
        <time>2019-06-15T17:12:51Z</time>
      </trkpt>
      <trkpt lat="43.313817" lon="-2.410864">
        <ele>13.261</ele>
        <time>2019-06-15T17:12:52Z</time>
      </trkpt>
      <trkpt lat="43.313913" lon="-2.410941">
        <ele>13.095</ele>
        <time>2019-06-15T17:12:53Z</time>
      </trkpt>
      <trkpt lat="43.314029" lon="-2.411002">
        <ele>12.964</ele>
        <time>2019-06-15T17:12:54Z</time>
      </trkpt>
      <trkpt lat="43.314184" lon="-2.411074">
        <ele>12.333</ele>
        <time>2019-06-15T17:12:55Z</time>
      </trkpt>
      <trkpt lat="43.314358" lon="-2.411138">
        <ele>12.082</ele>
        <time>2019-06-15T17:12:56Z</time>
      </trkpt>
      <trkpt lat="43.314503" lon="-2.411202">
        <ele>12.023</ele>
        <time>2019-06-15T17:12:57Z</time>
      </trkpt>
      <trkpt lat="43.314656" lon="-2.411268">
        <ele>12.072</ele>
        <time>2019-06-15T17:12:58Z</time>
      </trkpt>
      <trkpt lat="43.314807" lon="-2.411320">
        <ele>12.256</ele>
        <time>2019-06-15T17:12:59Z</time>
      </trkpt>
      <trkpt lat="43.314965" lon="-2.411363">
        <ele>12.221</ele>
        <time>2019-06-15T17:13:00Z</time>
      </trkpt>
      <trkpt lat="43.315120" lon="-2.411400">
        <ele>12.041</ele>
        <time>2019-06-15T17:13:01Z</time>
      </trkpt>
      <trkpt lat="43.315274" lon="-2.411438">
        <ele>11.805</ele>
        <time>2019-06-15T17:13:02Z</time>
      </trkpt>
      <trkpt lat="43.315423" lon="-2.411442">
        <ele>11.808</ele>
        <time>2019-06-15T17:13:03Z</time>
      </trkpt>
      <trkpt lat="43.315595" lon="-2.411452">
        <ele>11.835</ele>
        <time>2019-06-15T17:13:04Z</time>
      </trkpt>
      <trkpt lat="43.315744" lon="-2.411471">
        <ele>12.079</ele>
        <time>2019-06-15T17:13:05Z</time>
      </trkpt>
      <trkpt lat="43.315886" lon="-2.411499">
        <ele>13.088</ele>
        <time>2019-06-15T17:13:06Z</time>
      </trkpt>
      <trkpt lat="43.316033" lon="-2.411523">
        <ele>14.797</ele>
        <time>2019-06-15T17:13:07Z</time>
      </trkpt>
      <trkpt lat="43.316186" lon="-2.411565">
        <ele>16.436</ele>
        <time>2019-06-15T17:13:08Z</time>
      </trkpt>
      <trkpt lat="43.316339" lon="-2.411603">
        <ele>17.467</ele>
        <time>2019-06-15T17:13:09Z</time>
      </trkpt>
      <trkpt lat="43.316488" lon="-2.411652">
        <ele>17.996</ele>
        <time>2019-06-15T17:13:10Z</time>
      </trkpt>
      <trkpt lat="43.316639" lon="-2.411696">
        <ele>18.360</ele>
        <time>2019-06-15T17:13:11Z</time>
      </trkpt>
      <trkpt lat="43.316809" lon="-2.411759">
        <ele>16.472</ele>
        <time>2019-06-15T17:13:12Z</time>
      </trkpt>
      <trkpt lat="43.316947" lon="-2.411841">
        <ele>14.113</ele>
        <time>2019-06-15T17:13:13Z</time>
      </trkpt>
      <trkpt lat="43.317057" lon="-2.411931">
        <ele>12.614</ele>
        <time>2019-06-15T17:13:14Z</time>
      </trkpt>
      <trkpt lat="43.317182" lon="-2.412015">
        <ele>10.108</ele>
        <time>2019-06-15T17:13:15Z</time>
      </trkpt>
      <trkpt lat="43.317277" lon="-2.412263">
        <ele>12.450</ele>
        <time>2019-06-15T17:13:16Z</time>
      </trkpt>
      <trkpt lat="43.317385" lon="-2.412387">
        <ele>17.234</ele>
        <time>2019-06-15T17:13:17Z</time>
      </trkpt>
      <trkpt lat="43.317505" lon="-2.412457">
        <ele>19.083</ele>
        <time>2019-06-15T17:13:18Z</time>
      </trkpt>
      <trkpt lat="43.317614" lon="-2.412532">
        <ele>24.442</ele>
        <time>2019-06-15T17:13:19Z</time>
      </trkpt>
      <trkpt lat="43.317733" lon="-2.412523">
        <ele>25.111</ele>
        <time>2019-06-15T17:13:20Z</time>
      </trkpt>
      <trkpt lat="43.317862" lon="-2.412525">
        <ele>26.382</ele>
        <time>2019-06-15T17:13:21Z</time>
      </trkpt>
      <trkpt lat="43.317963" lon="-2.412552">
        <ele>28.371</ele>
        <time>2019-06-15T17:13:22Z</time>
      </trkpt>
      <trkpt lat="43.318045" lon="-2.412602">
        <ele>30.395</ele>
        <time>2019-06-15T17:13:23Z</time>
      </trkpt>
      <trkpt lat="43.318171" lon="-2.412677">
        <ele>28.455</ele>
        <time>2019-06-15T17:13:24Z</time>
      </trkpt>
      <trkpt lat="43.318283" lon="-2.412754">
        <ele>27.007</ele>
        <time>2019-06-15T17:13:25Z</time>
      </trkpt>
      <trkpt lat="43.318398" lon="-2.412844">
        <ele>27.317</ele>
        <time>2019-06-15T17:13:26Z</time>
      </trkpt>
      <trkpt lat="43.318507" lon="-2.412932">
        <ele>29.108</ele>
        <time>2019-06-15T17:13:27Z</time>
      </trkpt>
      <trkpt lat="43.318561" lon="-2.413025">
        <ele>32.348</ele>
        <time>2019-06-15T17:13:28Z</time>
      </trkpt>
      <trkpt lat="43.318656" lon="-2.413094">
        <ele>35.162</ele>
        <time>2019-06-15T17:13:29Z</time>
      </trkpt>
      <trkpt lat="43.318753" lon="-2.413118">
        <ele>36.621</ele>
        <time>2019-06-15T17:13:30Z</time>
      </trkpt>
      <trkpt lat="43.318865" lon="-2.413117">
        <ele>37.150</ele>
        <time>2019-06-15T17:13:31Z</time>
      </trkpt>
      <trkpt lat="43.318992" lon="-2.413119">
        <ele>38.169</ele>
        <time>2019-06-15T17:13:32Z</time>
      </trkpt>
      <trkpt lat="43.319122" lon="-2.413127">
        <ele>39.550</ele>
        <time>2019-06-15T17:13:33Z</time>
      </trkpt>
      <trkpt lat="43.319260" lon="-2.413140">
        <ele>41.589</ele>
        <time>2019-06-15T17:13:34Z</time>
      </trkpt>
      <trkpt lat="43.319385" lon="-2.413128">
        <ele>42.193</ele>
        <time>2019-06-15T17:13:35Z</time>
      </trkpt>
      <trkpt lat="43.319524" lon="-2.413141">
        <ele>44.813</ele>
        <time>2019-06-15T17:13:36Z</time>
      </trkpt>
      <trkpt lat="43.319670" lon="-2.413120">
        <ele>46.543</ele>
        <time>2019-06-15T17:13:37Z</time>
      </trkpt>
      <trkpt lat="43.319782" lon="-2.413098">
        <ele>46.507</ele>
        <time>2019-06-15T17:13:38Z</time>
      </trkpt>
      <trkpt lat="43.319919" lon="-2.413074">
        <ele>45.708</ele>
        <time>2019-06-15T17:13:39Z</time>
      </trkpt>
      <trkpt lat="43.320038" lon="-2.413049">
        <ele>45.484</ele>
        <time>2019-06-15T17:13:40Z</time>
      </trkpt>
      <trkpt lat="43.320151" lon="-2.413007">
        <ele>45.918</ele>
        <time>2019-06-15T17:13:41Z</time>
      </trkpt>
      <trkpt lat="43.320262" lon="-2.412971">
        <ele>46.457</ele>
        <time>2019-06-15T17:13:42Z</time>
      </trkpt>
      <trkpt lat="43.320364" lon="-2.412936">
        <ele>46.596</ele>
        <time>2019-06-15T17:13:43Z</time>
      </trkpt>
      <trkpt lat="43.320482" lon="-2.412899">
        <ele>46.745</ele>
        <time>2019-06-15T17:13:44Z</time>
      </trkpt>
      <trkpt lat="43.320556" lon="-2.412896">
        <ele>47.416</ele>
        <time>2019-06-15T17:13:45Z</time>
      </trkpt>
      <trkpt lat="43.320628" lon="-2.412924">
        <ele>44.335</ele>
        <time>2019-06-15T17:13:46Z</time>
      </trkpt>
      <trkpt lat="43.320715" lon="-2.412955">
        <ele>40.359</ele>
        <time>2019-06-15T17:13:47Z</time>
      </trkpt>
      <trkpt lat="43.320742" lon="-2.413054">
        <ele>41.217</ele>
        <time>2019-06-15T17:13:48Z</time>
      </trkpt>
      <trkpt lat="43.320770" lon="-2.413190">
        <ele>40.287</ele>
        <time>2019-06-15T17:13:49Z</time>
      </trkpt>
      <trkpt lat="43.320781" lon="-2.413334">
        <ele>40.215</ele>
        <time>2019-06-15T17:13:50Z</time>
      </trkpt>
      <trkpt lat="43.320787" lon="-2.413481">
        <ele>40.708</ele>
        <time>2019-06-15T17:13:51Z</time>
      </trkpt>
      <trkpt lat="43.320805" lon="-2.413637">
        <ele>41.034</ele>
        <time>2019-06-15T17:13:52Z</time>
      </trkpt>
      <trkpt lat="43.320852" lon="-2.413809">
        <ele>40.618</ele>
        <time>2019-06-15T17:13:53Z</time>
      </trkpt>
      <trkpt lat="43.320913" lon="-2.413984">
        <ele>37.687</ele>
        <time>2019-06-15T17:13:54Z</time>
      </trkpt>
      <trkpt lat="43.320965" lon="-2.414184">
        <ele>36.586</ele>
        <time>2019-06-15T17:13:55Z</time>
      </trkpt>
      <trkpt lat="43.321001" lon="-2.414390">
        <ele>36.955</ele>
        <time>2019-06-15T17:13:56Z</time>
      </trkpt>
      <trkpt lat="43.321036" lon="-2.414594">
        <ele>36.816</ele>
        <time>2019-06-15T17:13:57Z</time>
      </trkpt>
      <trkpt lat="43.321071" lon="-2.414791">
        <ele>37.295</ele>
        <time>2019-06-15T17:13:58Z</time>
      </trkpt>
      <trkpt lat="43.321119" lon="-2.414973">
        <ele>37.579</ele>
        <time>2019-06-15T17:13:59Z</time>
      </trkpt>
      <trkpt lat="43.321166" lon="-2.415155">
        <ele>37.452</ele>
        <time>2019-06-15T17:14:00Z</time>
      </trkpt>
      <trkpt lat="43.321223" lon="-2.415317">
        <ele>36.553</ele>
        <time>2019-06-15T17:14:01Z</time>
      </trkpt>
      <trkpt lat="43.321287" lon="-2.415481">
        <ele>38.408</ele>
        <time>2019-06-15T17:14:02Z</time>
      </trkpt>
      <trkpt lat="43.321400" lon="-2.415607">
        <ele>35.808</ele>
        <time>2019-06-15T17:14:03Z</time>
      </trkpt>
      <trkpt lat="43.321479" lon="-2.415725">
        <ele>36.428</ele>
        <time>2019-06-15T17:14:04Z</time>
      </trkpt>
      <trkpt lat="43.321558" lon="-2.415851">
        <ele>37.852</ele>
        <time>2019-06-15T17:14:05Z</time>
      </trkpt>
      <trkpt lat="43.321658" lon="-2.415982">
        <ele>36.061</ele>
        <time>2019-06-15T17:14:06Z</time>
      </trkpt>
      <trkpt lat="43.321735" lon="-2.416144">
        <ele>34.040</ele>
        <time>2019-06-15T17:14:07Z</time>
      </trkpt>
      <trkpt lat="43.321843" lon="-2.416316">
        <ele>27.539</ele>
        <time>2019-06-15T17:14:08Z</time>
      </trkpt>
      <trkpt lat="43.321910" lon="-2.416500">
        <ele>25.340</ele>
        <time>2019-06-15T17:14:09Z</time>
      </trkpt>
      <trkpt lat="43.321965" lon="-2.416674">
        <ele>23.539</ele>
        <time>2019-06-15T17:14:10Z</time>
      </trkpt>
      <trkpt lat="43.321977" lon="-2.416869">
        <ele>25.133</ele>
        <time>2019-06-15T17:14:11Z</time>
      </trkpt>
      <trkpt lat="43.322011" lon="-2.417041">
        <ele>25.815</ele>
        <time>2019-06-15T17:14:12Z</time>
      </trkpt>
      <trkpt lat="43.322044" lon="-2.417197">
        <ele>26.965</ele>
        <time>2019-06-15T17:14:13Z</time>
      </trkpt>
      <trkpt lat="43.322077" lon="-2.417354">
        <ele>26.011</ele>
        <time>2019-06-15T17:14:14Z</time>
      </trkpt>
      <trkpt lat="43.322091" lon="-2.417518">
        <ele>26.808</ele>
        <time>2019-06-15T17:14:15Z</time>
      </trkpt>
      <trkpt lat="43.322079" lon="-2.417673">
        <ele>27.954</ele>
        <time>2019-06-15T17:14:16Z</time>
      </trkpt>
      <trkpt lat="43.322092" lon="-2.417869">
        <ele>26.158</ele>
        <time>2019-06-15T17:14:17Z</time>
      </trkpt>
      <trkpt lat="43.322099" lon="-2.418042">
        <ele>24.417</ele>
        <time>2019-06-15T17:14:18Z</time>
      </trkpt>
      <trkpt lat="43.322102" lon="-2.418214">
        <ele>24.966</ele>
        <time>2019-06-15T17:14:19Z</time>
      </trkpt>
      <trkpt lat="43.322119" lon="-2.418366">
        <ele>24.535</ele>
        <time>2019-06-15T17:14:20Z</time>
      </trkpt>
      <trkpt lat="43.322139" lon="-2.418508">
        <ele>24.516</ele>
        <time>2019-06-15T17:14:21Z</time>
      </trkpt>
      <trkpt lat="43.322167" lon="-2.418645">
        <ele>23.865</ele>
        <time>2019-06-15T17:14:22Z</time>
      </trkpt>
      <trkpt lat="43.322193" lon="-2.418769">
        <ele>23.369</ele>
        <time>2019-06-15T17:14:23Z</time>
      </trkpt>
      <trkpt lat="43.322209" lon="-2.418904">
        <ele>23.995</ele>
        <time>2019-06-15T17:14:24Z</time>
      </trkpt>
      <trkpt lat="43.322214" lon="-2.419041">
        <ele>23.949</ele>
        <time>2019-06-15T17:14:25Z</time>
      </trkpt>
      <trkpt lat="43.322201" lon="-2.419175">
        <ele>24.523</ele>
        <time>2019-06-15T17:14:26Z</time>
      </trkpt>
      <trkpt lat="43.322168" lon="-2.419273">
        <ele>24.308</ele>
        <time>2019-06-15T17:14:27Z</time>
      </trkpt>
      <trkpt lat="43.322107" lon="-2.419345">
        <ele>24.652</ele>
        <time>2019-06-15T17:14:28Z</time>
      </trkpt>
      <trkpt lat="43.322036" lon="-2.419411">
        <ele>24.666</ele>
        <time>2019-06-15T17:14:29Z</time>
      </trkpt>
      <trkpt lat="43.321951" lon="-2.419428">
        <ele>25.335</ele>
        <time>2019-06-15T17:14:30Z</time>
      </trkpt>
      <trkpt lat="43.321876" lon="-2.419477">
        <ele>20.774</ele>
        <time>2019-06-15T17:14:31Z</time>
      </trkpt>
      <trkpt lat="43.321788" lon="-2.419497">
        <ele>16.893</ele>
        <time>2019-06-15T17:14:32Z</time>
      </trkpt>
      <trkpt lat="43.321683" lon="-2.419346">
        <ele>20.064</ele>
        <time>2019-06-15T17:14:33Z</time>
      </trkpt>
      <trkpt lat="43.321570" lon="-2.419239">
        <ele>20.053</ele>
        <time>2019-06-15T17:14:34Z</time>
      </trkpt>
      <trkpt lat="43.321465" lon="-2.419129">
        <ele>19.697</ele>
        <time>2019-06-15T17:14:35Z</time>
      </trkpt>
      <trkpt lat="43.321361" lon="-2.419019">
        <ele>20.052</ele>
        <time>2019-06-15T17:14:36Z</time>
      </trkpt>
      <trkpt lat="43.321267" lon="-2.418939">
        <ele>20.753</ele>
        <time>2019-06-15T17:14:37Z</time>
      </trkpt>
      <trkpt lat="43.321149" lon="-2.418882">
        <ele>19.508</ele>
        <time>2019-06-15T17:14:38Z</time>
      </trkpt>
      <trkpt lat="43.321039" lon="-2.418832">
        <ele>18.908</ele>
        <time>2019-06-15T17:14:39Z</time>
      </trkpt>
      <trkpt lat="43.320909" lon="-2.418824">
        <ele>17.458</ele>
        <time>2019-06-15T17:14:40Z</time>
      </trkpt>
      <trkpt lat="43.320767" lon="-2.418815">
        <ele>17.222</ele>
        <time>2019-06-15T17:14:41Z</time>
      </trkpt>
      <trkpt lat="43.320638" lon="-2.418860">
        <ele>16.431</ele>
        <time>2019-06-15T17:14:42Z</time>
      </trkpt>
      <trkpt lat="43.320500" lon="-2.418922">
        <ele>14.580</ele>
        <time>2019-06-15T17:14:43Z</time>
      </trkpt>
      <trkpt lat="43.320369" lon="-2.418976">
        <ele>14.469</ele>
        <time>2019-06-15T17:14:44Z</time>
      </trkpt>
      <trkpt lat="43.320244" lon="-2.419059">
        <ele>13.030</ele>
        <time>2019-06-15T17:14:45Z</time>
      </trkpt>
      <trkpt lat="43.320128" lon="-2.419126">
        <ele>12.599</ele>
        <time>2019-06-15T17:14:46Z</time>
      </trkpt>
      <trkpt lat="43.320030" lon="-2.419184">
        <ele>11.943</ele>
        <time>2019-06-15T17:14:47Z</time>
      </trkpt>
      <trkpt lat="43.319916" lon="-2.419250">
        <ele>12.683</ele>
        <time>2019-06-15T17:14:48Z</time>
      </trkpt>
      <trkpt lat="43.319829" lon="-2.419338">
        <ele>12.025</ele>
        <time>2019-06-15T17:14:49Z</time>
      </trkpt>
      <trkpt lat="43.319750" lon="-2.419420">
        <ele>11.217</ele>
        <time>2019-06-15T17:14:50Z</time>
      </trkpt>
      <trkpt lat="43.319675" lon="-2.419515">
        <ele>11.408</ele>
        <time>2019-06-15T17:14:51Z</time>
      </trkpt>
      <trkpt lat="43.319601" lon="-2.419624">
        <ele>11.181</ele>
        <time>2019-06-15T17:14:52Z</time>
      </trkpt>
      <trkpt lat="43.319537" lon="-2.419725">
        <ele>9.795</ele>
        <time>2019-06-15T17:14:53Z</time>
      </trkpt>
      <trkpt lat="43.319489" lon="-2.419822">
        <ele>9.934</ele>
        <time>2019-06-15T17:14:54Z</time>
      </trkpt>
      <trkpt lat="43.319455" lon="-2.419914">
        <ele>10.183</ele>
        <time>2019-06-15T17:14:55Z</time>
      </trkpt>
      <trkpt lat="43.319443" lon="-2.419990">
        <ele>10.142</ele>
        <time>2019-06-15T17:14:56Z</time>
      </trkpt>
      <trkpt lat="43.319438" lon="-2.420060">
        <ele>10.213</ele>
        <time>2019-06-15T17:14:57Z</time>
      </trkpt>
      <trkpt lat="43.319451" lon="-2.420125">
        <ele>9.952</ele>
        <time>2019-06-15T17:14:59Z</time>
      </trkpt>
      <trkpt lat="43.319528" lon="-2.420192">
        <ele>8.346</ele>
        <time>2019-06-15T17:15:01Z</time>
      </trkpt>
      <trkpt lat="43.319591" lon="-2.420169">
        <ele>7.072</ele>
        <time>2019-06-15T17:15:02Z</time>
      </trkpt>
      <trkpt lat="43.319647" lon="-2.420129">
        <ele>6.013</ele>
        <time>2019-06-15T17:15:03Z</time>
      </trkpt>
      <trkpt lat="43.319702" lon="-2.420097">
        <ele>5.014</ele>
        <time>2019-06-15T17:15:04Z</time>
      </trkpt>
      <trkpt lat="43.319754" lon="-2.420031">
        <ele>4.508</ele>
        <time>2019-06-15T17:15:05Z</time>
      </trkpt>
      <trkpt lat="43.319796" lon="-2.419891">
        <ele>4.590</ele>
        <time>2019-06-15T17:15:06Z</time>
      </trkpt>
      <trkpt lat="43.319846" lon="-2.419763">
        <ele>4.214</ele>
        <time>2019-06-15T17:15:07Z</time>
      </trkpt>
      <trkpt lat="43.319897" lon="-2.419645">
        <ele>4.333</ele>
        <time>2019-06-15T17:15:08Z</time>
      </trkpt>
      <trkpt lat="43.320001" lon="-2.419529">
        <ele>3.822</ele>
        <time>2019-06-15T17:15:09Z</time>
      </trkpt>
      <trkpt lat="43.320034" lon="-2.419442">
        <ele>4.681</ele>
        <time>2019-06-15T17:15:10Z</time>
      </trkpt>
      <trkpt lat="43.320112" lon="-2.419342">
        <ele>6.012</ele>
        <time>2019-06-15T17:15:11Z</time>
      </trkpt>
      <trkpt lat="43.320262" lon="-2.419266">
        <ele>5.291</ele>
        <time>2019-06-15T17:15:12Z</time>
      </trkpt>
      <trkpt lat="43.320384" lon="-2.419206">
        <ele>4.865</ele>
        <time>2019-06-15T17:15:13Z</time>
      </trkpt>
      <trkpt lat="43.320492" lon="-2.419161">
        <ele>4.231</ele>
        <time>2019-06-15T17:15:14Z</time>
      </trkpt>
      <trkpt lat="43.320602" lon="-2.419120">
        <ele>5.061</ele>
        <time>2019-06-15T17:15:15Z</time>
      </trkpt>
      <trkpt lat="43.320734" lon="-2.419109">
        <ele>5.507</ele>
        <time>2019-06-15T17:15:16Z</time>
      </trkpt>
      <trkpt lat="43.320837" lon="-2.419104">
        <ele>5.708</ele>
        <time>2019-06-15T17:15:17Z</time>
      </trkpt>
      <trkpt lat="43.320952" lon="-2.419114">
        <ele>6.226</ele>
        <time>2019-06-15T17:15:18Z</time>
      </trkpt>
      <trkpt lat="43.321062" lon="-2.419161">
        <ele>4.940</ele>
        <time>2019-06-15T17:15:19Z</time>
      </trkpt>
      <trkpt lat="43.321170" lon="-2.419219">
        <ele>5.859</ele>
        <time>2019-06-15T17:15:20Z</time>
      </trkpt>
      <trkpt lat="43.321259" lon="-2.419317">
        <ele>5.678</ele>
        <time>2019-06-15T17:15:21Z</time>
      </trkpt>
      <trkpt lat="43.321348" lon="-2.419402">
        <ele>4.837</ele>
        <time>2019-06-15T17:15:22Z</time>
      </trkpt>
      <trkpt lat="43.321424" lon="-2.419483">
        <ele>4.728</ele>
        <time>2019-06-15T17:15:23Z</time>
      </trkpt>
      <trkpt lat="43.321537" lon="-2.419564">
        <ele>6.567</ele>
        <time>2019-06-15T17:15:24Z</time>
      </trkpt>
      <trkpt lat="43.321632" lon="-2.419656">
        <ele>5.971</ele>
        <time>2019-06-15T17:15:25Z</time>
      </trkpt>
      <trkpt lat="43.321719" lon="-2.419727">
        <ele>4.718</ele>
        <time>2019-06-15T17:15:26Z</time>
      </trkpt>
      <trkpt lat="43.321812" lon="-2.419790">
        <ele>5.498</ele>
        <time>2019-06-15T17:15:27Z</time>
      </trkpt>
      <trkpt lat="43.321901" lon="-2.419850">
        <ele>6.017</ele>
        <time>2019-06-15T17:15:28Z</time>
      </trkpt>
      <trkpt lat="43.321971" lon="-2.419907">
        <ele>6.108</ele>
        <time>2019-06-15T17:15:29Z</time>
      </trkpt>
      <trkpt lat="43.322034" lon="-2.419945">
        <ele>5.894</ele>
        <time>2019-06-15T17:15:30Z</time>
      </trkpt>
      <trkpt lat="43.322105" lon="-2.419973">
        <ele>5.528</ele>
        <time>2019-06-15T17:15:32Z</time>
      </trkpt>
      <trkpt lat="43.322157" lon="-2.419974">
        <ele>5.667</ele>
        <time>2019-06-15T17:15:34Z</time>
      </trkpt>
      <trkpt lat="43.322171" lon="-2.420036">
        <ele>4.516</ele>
        <time>2019-06-15T17:15:36Z</time>
      </trkpt>
      <trkpt lat="43.322206" lon="-2.420108">
        <ele>3.465</ele>
        <time>2019-06-15T17:15:38Z</time>
      </trkpt>
      <trkpt lat="43.322246" lon="-2.420190">
        <ele>2.286</ele>
        <time>2019-06-15T17:15:39Z</time>
      </trkpt>
      <trkpt lat="43.322285" lon="-2.420261">
        <ele>1.025</ele>
        <time>2019-06-15T17:15:40Z</time>
      </trkpt>
      <trkpt lat="43.322336" lon="-2.420344">
        <ele>0.539</ele>
        <time>2019-06-15T17:15:41Z</time>
      </trkpt>
      <trkpt lat="43.322410" lon="-2.420459">
        <ele>0.184</ele>
        <time>2019-06-15T17:15:42Z</time>
      </trkpt>
      <trkpt lat="43.322472" lon="-2.420583">
        <ele>0.307</ele>
        <time>2019-06-15T17:15:43Z</time>
      </trkpt>
      <trkpt lat="43.322527" lon="-2.420683">
        <ele>1.517</ele>
        <time>2019-06-15T17:15:44Z</time>
      </trkpt>
      <trkpt lat="43.322578" lon="-2.420772">
        <ele>2.608</ele>
        <time>2019-06-15T17:15:45Z</time>
      </trkpt>
      <trkpt lat="43.322635" lon="-2.420855">
        <ele>3.671</ele>
        <time>2019-06-15T17:15:46Z</time>
      </trkpt>
      <trkpt lat="43.322677" lon="-2.420954">
        <ele>4.235</ele>
        <time>2019-06-15T17:15:47Z</time>
      </trkpt>
      <trkpt lat="43.322712" lon="-2.421035">
        <ele>4.744</ele>
        <time>2019-06-15T17:15:48Z</time>
      </trkpt>
      <trkpt lat="43.322756" lon="-2.421117">
        <ele>5.093</ele>
        <time>2019-06-15T17:15:49Z</time>
      </trkpt>
      <trkpt lat="43.322825" lon="-2.421222">
        <ele>4.742</ele>
        <time>2019-06-15T17:15:50Z</time>
      </trkpt>
      <trkpt lat="43.322885" lon="-2.421326">
        <ele>4.223</ele>
        <time>2019-06-15T17:15:51Z</time>
      </trkpt>
      <trkpt lat="43.322955" lon="-2.421437">
        <ele>3.842</ele>
        <time>2019-06-15T17:15:52Z</time>
      </trkpt>
      <trkpt lat="43.322977" lon="-2.421536">
        <ele>3.886</ele>
        <time>2019-06-15T17:15:53Z</time>
      </trkpt>
      <trkpt lat="43.323007" lon="-2.421647">
        <ele>4.051</ele>
        <time>2019-06-15T17:15:54Z</time>
      </trkpt>
      <trkpt lat="43.323044" lon="-2.421763">
        <ele>4.001</ele>
        <time>2019-06-15T17:15:55Z</time>
      </trkpt>
      <trkpt lat="43.323067" lon="-2.421861">
        <ele>4.011</ele>
        <time>2019-06-15T17:15:56Z</time>
      </trkpt>
      <trkpt lat="43.323099" lon="-2.421963">
        <ele>3.908</ele>
        <time>2019-06-15T17:15:57Z</time>
      </trkpt>
      <trkpt lat="43.323125" lon="-2.422038">
        <ele>3.898</ele>
        <time>2019-06-15T17:15:58Z</time>
      </trkpt>
      <trkpt lat="43.323149" lon="-2.422109">
        <ele>3.972</ele>
        <time>2019-06-15T17:15:59Z</time>
      </trkpt>
      <trkpt lat="43.323182" lon="-2.422183">
        <ele>3.981</ele>
        <time>2019-06-15T17:16:00Z</time>
      </trkpt>
      <trkpt lat="43.323196" lon="-2.422256">
        <ele>4.120</ele>
        <time>2019-06-15T17:16:01Z</time>
      </trkpt>
      <trkpt lat="43.323205" lon="-2.422320">
        <ele>4.259</ele>
        <time>2019-06-15T17:16:02Z</time>
      </trkpt>
      <trkpt lat="43.323249" lon="-2.422385">
        <ele>4.210</ele>
        <time>2019-06-15T17:16:03Z</time>
      </trkpt>
      <trkpt lat="43.323270" lon="-2.422442">
        <ele>4.229</ele>
        <time>2019-06-15T17:16:04Z</time>
      </trkpt>
      <trkpt lat="43.323298" lon="-2.422492">
        <ele>4.163</ele>
        <time>2019-06-15T17:16:05Z</time>
      </trkpt>
      <trkpt lat="43.323249" lon="-2.422497">
        <ele>4.358</ele>
        <time>2019-06-15T17:16:11Z</time>
      </trkpt>
      <trkpt lat="43.323198" lon="-2.422505">
        <ele>4.552</ele>
        <time>2019-06-15T17:16:20Z</time>
      </trkpt>
      <trkpt lat="43.323152" lon="-2.422514">
        <ele>4.717</ele>
        <time>2019-06-15T17:16:26Z</time>
      </trkpt>
      <trkpt lat="43.323184" lon="-2.422455">
        <ele>4.508</ele>
        <time>2019-06-15T17:17:34Z</time>
      </trkpt>
      <trkpt lat="43.323249" lon="-2.422502">
        <ele>4.388</ele>
        <time>2019-06-15T17:17:37Z</time>
      </trkpt>
      <trkpt lat="43.323314" lon="-2.422565">
        <ele>4.342</ele>
        <time>2019-06-15T17:17:39Z</time>
      </trkpt>
      <trkpt lat="43.323354" lon="-2.422602">
        <ele>4.371</ele>
        <time>2019-06-15T17:17:41Z</time>
      </trkpt>
      <trkpt lat="43.323388" lon="-2.422740">
        <ele>4.720</ele>
        <time>2019-06-15T17:18:23Z</time>
      </trkpt>
      <trkpt lat="43.323348" lon="-2.422770">
        <ele>4.979</ele>
        <time>2019-06-15T17:18:29Z</time>
      </trkpt>
      <trkpt lat="43.323286" lon="-2.422736">
        <ele>5.240</ele>
        <time>2019-06-15T17:18:32Z</time>
      </trkpt>
      <trkpt lat="43.323233" lon="-2.422697">
        <ele>5.329</ele>
        <time>2019-06-15T17:18:33Z</time>
      </trkpt>
      <trkpt lat="43.323163" lon="-2.422650">
        <ele>5.513</ele>
        <time>2019-06-15T17:18:34Z</time>
      </trkpt>
      <trkpt lat="43.323084" lon="-2.422603">
        <ele>5.614</ele>
        <time>2019-06-15T17:18:35Z</time>
      </trkpt>
      <trkpt lat="43.323005" lon="-2.422565">
        <ele>5.754</ele>
        <time>2019-06-15T17:18:36Z</time>
      </trkpt>
      <trkpt lat="43.322941" lon="-2.422539">
        <ele>5.609</ele>
        <time>2019-06-15T17:18:37Z</time>
      </trkpt>
      <trkpt lat="43.322887" lon="-2.422518">
        <ele>5.308</ele>
        <time>2019-06-15T17:18:38Z</time>
      </trkpt>
      <trkpt lat="43.322843" lon="-2.422496">
        <ele>5.024</ele>
        <time>2019-06-15T17:18:39Z</time>
      </trkpt>
      <trkpt lat="43.322757" lon="-2.422448">
        <ele>5.258</ele>
        <time>2019-06-15T17:18:41Z</time>
      </trkpt>
      <trkpt lat="43.322710" lon="-2.422415">
        <ele>5.717</ele>
        <time>2019-06-15T17:18:42Z</time>
      </trkpt>
      <trkpt lat="43.322634" lon="-2.422357">
        <ele>6.056</ele>
        <time>2019-06-15T17:18:43Z</time>
      </trkpt>
      <trkpt lat="43.322546" lon="-2.422331">
        <ele>6.375</ele>
        <time>2019-06-15T17:18:44Z</time>
      </trkpt>
      <trkpt lat="43.322459" lon="-2.422296">
        <ele>6.776</ele>
        <time>2019-06-15T17:18:45Z</time>
      </trkpt>
      <trkpt lat="43.322346" lon="-2.422220">
        <ele>7.275</ele>
        <time>2019-06-15T17:18:46Z</time>
      </trkpt>
      <trkpt lat="43.322280" lon="-2.422230">
        <ele>8.389</ele>
        <time>2019-06-15T17:18:47Z</time>
      </trkpt>
      <trkpt lat="43.322204" lon="-2.422094">
        <ele>7.866</ele>
        <time>2019-06-15T17:18:48Z</time>
      </trkpt>
      <trkpt lat="43.322165" lon="-2.421977">
        <ele>7.029</ele>
        <time>2019-06-15T17:18:49Z</time>
      </trkpt>
      <trkpt lat="43.322090" lon="-2.421896">
        <ele>7.221</ele>
        <time>2019-06-15T17:18:50Z</time>
      </trkpt>
      <trkpt lat="43.322034" lon="-2.421901">
        <ele>7.808</ele>
        <time>2019-06-15T17:18:51Z</time>
      </trkpt>
      <trkpt lat="43.321991" lon="-2.421880">
        <ele>8.149</ele>
        <time>2019-06-15T17:18:52Z</time>
      </trkpt>
      <trkpt lat="43.321939" lon="-2.421869">
        <ele>8.593</ele>
        <time>2019-06-15T17:18:53Z</time>
      </trkpt>
      <trkpt lat="43.321886" lon="-2.421840">
        <ele>8.862</ele>
        <time>2019-06-15T17:18:54Z</time>
      </trkpt>
      <trkpt lat="43.321838" lon="-2.421842">
        <ele>9.371</ele>
        <time>2019-06-15T17:18:56Z</time>
      </trkpt>
      <trkpt lat="43.321831" lon="-2.421928">
        <ele>10.160</ele>
        <time>2019-06-15T17:18:59Z</time>
      </trkpt>
      <trkpt lat="43.321871" lon="-2.422100">
        <ele>12.621</ele>
        <time>2019-06-15T17:19:01Z</time>
      </trkpt>
      <trkpt lat="43.321982" lon="-2.422205">
        <ele>12.290</ele>
        <time>2019-06-15T17:19:02Z</time>
      </trkpt>
      <trkpt lat="43.322065" lon="-2.422295">
        <ele>13.564</ele>
        <time>2019-06-15T17:19:03Z</time>
      </trkpt>
      <trkpt lat="43.322076" lon="-2.422388">
        <ele>16.035</ele>
        <time>2019-06-15T17:19:04Z</time>
      </trkpt>
      <trkpt lat="43.322140" lon="-2.422472">
        <ele>16.386</ele>
        <time>2019-06-15T17:19:05Z</time>
      </trkpt>
      <trkpt lat="43.322264" lon="-2.422544">
        <ele>14.714</ele>
        <time>2019-06-15T17:19:06Z</time>
      </trkpt>
      <trkpt lat="43.322297" lon="-2.422637">
        <ele>16.908</ele>
        <time>2019-06-15T17:19:07Z</time>
      </trkpt>
      <trkpt lat="43.322371" lon="-2.422782">
        <ele>18.856</ele>
        <time>2019-06-15T17:19:08Z</time>
      </trkpt>
      <trkpt lat="43.322418" lon="-2.422924">
        <ele>22.720</ele>
        <time>2019-06-15T17:19:09Z</time>
      </trkpt>
      <trkpt lat="43.322480" lon="-2.423033">
        <ele>22.759</ele>
        <time>2019-06-15T17:19:10Z</time>
      </trkpt>
      <trkpt lat="43.322665" lon="-2.422987">
        <ele>17.998</ele>
        <time>2019-06-15T17:19:11Z</time>
      </trkpt>
      <trkpt lat="43.322720" lon="-2.423057">
        <ele>18.947</ele>
        <time>2019-06-15T17:19:12Z</time>
      </trkpt>
      <trkpt lat="43.322832" lon="-2.423114">
        <ele>20.878</ele>
        <time>2019-06-15T17:19:13Z</time>
      </trkpt>
      <trkpt lat="43.322962" lon="-2.423186">
        <ele>21.587</ele>
        <time>2019-06-15T17:19:14Z</time>
      </trkpt>
      <trkpt lat="43.323058" lon="-2.423243">
        <ele>20.781</ele>
        <time>2019-06-15T17:19:15Z</time>
      </trkpt>
      <trkpt lat="43.323088" lon="-2.423322">
        <ele>22.186</ele>
        <time>2019-06-15T17:19:16Z</time>
      </trkpt>
      <trkpt lat="43.323157" lon="-2.423338">
        <ele>21.460</ele>
        <time>2019-06-15T17:19:17Z</time>
      </trkpt>
      <trkpt lat="43.323224" lon="-2.423392">
        <ele>22.126</ele>
        <time>2019-06-15T17:19:18Z</time>
      </trkpt>
      <trkpt lat="43.323322" lon="-2.423415">
        <ele>20.408</ele>
        <time>2019-06-15T17:19:19Z</time>
      </trkpt>
      <trkpt lat="43.323355" lon="-2.423472">
        <ele>21.341</ele>
        <time>2019-06-15T17:19:20Z</time>
      </trkpt>
      <trkpt lat="43.323403" lon="-2.423554">
        <ele>22.825</ele>
        <time>2019-06-15T17:19:21Z</time>
      </trkpt>
      <trkpt lat="43.323481" lon="-2.423565">
        <ele>22.284</ele>
        <time>2019-06-15T17:19:22Z</time>
      </trkpt>
      <trkpt lat="43.323532" lon="-2.423577">
        <ele>22.083</ele>
        <time>2019-06-15T17:19:23Z</time>
      </trkpt>
      <trkpt lat="43.323608" lon="-2.423481">
        <ele>18.812</ele>
        <time>2019-06-15T17:19:24Z</time>
      </trkpt>
      <trkpt lat="43.323655" lon="-2.423553">
        <ele>20.663</ele>
        <time>2019-06-15T17:19:26Z</time>
      </trkpt>
      <trkpt lat="43.323746" lon="-2.423626">
        <ele>22.712</ele>
        <time>2019-06-15T17:19:29Z</time>
      </trkpt>
      <trkpt lat="43.323841" lon="-2.423619">
        <ele>22.326</ele>
        <time>2019-06-15T17:19:30Z</time>
      </trkpt>
      <trkpt lat="43.323929" lon="-2.423652">
        <ele>23.885</ele>
        <time>2019-06-15T17:19:31Z</time>
      </trkpt>
      <trkpt lat="43.324026" lon="-2.423663">
        <ele>24.589</ele>
        <time>2019-06-15T17:19:32Z</time>
      </trkpt>
      <trkpt lat="43.324133" lon="-2.423613">
        <ele>23.017</ele>
        <time>2019-06-15T17:19:33Z</time>
      </trkpt>
      <trkpt lat="43.324195" lon="-2.423621">
        <ele>23.608</ele>
        <time>2019-06-15T17:19:34Z</time>
      </trkpt>
      <trkpt lat="43.324268" lon="-2.423633">
        <ele>24.651</ele>
        <time>2019-06-15T17:19:35Z</time>
      </trkpt>
      <trkpt lat="43.324369" lon="-2.423632">
        <ele>25.315</ele>
        <time>2019-06-15T17:19:36Z</time>
      </trkpt>
      <trkpt lat="43.324483" lon="-2.423619">
        <ele>25.624</ele>
        <time>2019-06-15T17:19:37Z</time>
      </trkpt>
      <trkpt lat="43.324619" lon="-2.423604">
        <ele>26.223</ele>
        <time>2019-06-15T17:19:38Z</time>
      </trkpt>
      <trkpt lat="43.324738" lon="-2.423595">
        <ele>26.952</ele>
        <time>2019-06-15T17:19:39Z</time>
      </trkpt>
      <trkpt lat="43.324841" lon="-2.423605">
        <ele>27.893</ele>
        <time>2019-06-15T17:19:40Z</time>
      </trkpt>
      <trkpt lat="43.324952" lon="-2.423610">
        <ele>28.692</ele>
        <time>2019-06-15T17:19:41Z</time>
      </trkpt>
      <trkpt lat="43.325054" lon="-2.423612">
        <ele>29.246</ele>
        <time>2019-06-15T17:19:42Z</time>
      </trkpt>
      <trkpt lat="43.325162" lon="-2.423613">
        <ele>29.753</ele>
        <time>2019-06-15T17:19:43Z</time>
      </trkpt>
      <trkpt lat="43.325255" lon="-2.423611">
        <ele>29.904</ele>
        <time>2019-06-15T17:19:44Z</time>
      </trkpt>
      <trkpt lat="43.325340" lon="-2.423611">
        <ele>31.614</ele>
        <time>2019-06-15T17:19:45Z</time>
      </trkpt>
      <trkpt lat="43.325427" lon="-2.423595">
        <ele>33.408</ele>
        <time>2019-06-15T17:19:46Z</time>
      </trkpt>
      <trkpt lat="43.325540" lon="-2.423563">
        <ele>35.478</ele>
        <time>2019-06-15T17:19:47Z</time>
      </trkpt>
      <trkpt lat="43.325593" lon="-2.423498">
        <ele>36.652</ele>
        <time>2019-06-15T17:19:48Z</time>
      </trkpt>
      <trkpt lat="43.325652" lon="-2.423404">
        <ele>37.351</ele>
        <time>2019-06-15T17:19:49Z</time>
      </trkpt>
      <trkpt lat="43.325725" lon="-2.423313">
        <ele>37.820</ele>
        <time>2019-06-15T17:19:50Z</time>
      </trkpt>
      <trkpt lat="43.325816" lon="-2.423232">
        <ele>38.869</ele>
        <time>2019-06-15T17:19:51Z</time>
      </trkpt>
      <trkpt lat="43.325919" lon="-2.423151">
        <ele>39.980</ele>
        <time>2019-06-15T17:19:52Z</time>
      </trkpt>
      <trkpt lat="43.326026" lon="-2.423064">
        <ele>40.119</ele>
        <time>2019-06-15T17:19:53Z</time>
      </trkpt>
      <trkpt lat="43.326138" lon="-2.422976">
        <ele>38.123</ele>
        <time>2019-06-15T17:19:54Z</time>
      </trkpt>
      <trkpt lat="43.326275" lon="-2.422884">
        <ele>37.332</ele>
        <time>2019-06-15T17:19:55Z</time>
      </trkpt>
      <trkpt lat="43.326397" lon="-2.422797">
        <ele>38.492</ele>
        <time>2019-06-15T17:19:56Z</time>
      </trkpt>
      <trkpt lat="43.326499" lon="-2.422715">
        <ele>40.811</ele>
        <time>2019-06-15T17:19:57Z</time>
      </trkpt>
      <trkpt lat="43.326619" lon="-2.422633">
        <ele>43.708</ele>
        <time>2019-06-15T17:19:58Z</time>
      </trkpt>
      <trkpt lat="43.326719" lon="-2.422549">
        <ele>43.936</ele>
        <time>2019-06-15T17:19:59Z</time>
      </trkpt>
      <trkpt lat="43.326817" lon="-2.422460">
        <ele>42.360</ele>
        <time>2019-06-15T17:20:00Z</time>
      </trkpt>
      <trkpt lat="43.326930" lon="-2.422430">
        <ele>44.349</ele>
        <time>2019-06-15T17:20:01Z</time>
      </trkpt>
      <trkpt lat="43.327042" lon="-2.422390">
        <ele>45.878</ele>
        <time>2019-06-15T17:20:02Z</time>
      </trkpt>
      <trkpt lat="43.327132" lon="-2.422335">
        <ele>46.187</ele>
        <time>2019-06-15T17:20:03Z</time>
      </trkpt>
      <trkpt lat="43.327247" lon="-2.422271">
        <ele>47.228</ele>
        <time>2019-06-15T17:20:04Z</time>
      </trkpt>
      <trkpt lat="43.327342" lon="-2.422186">
        <ele>49.087</ele>
        <time>2019-06-15T17:20:05Z</time>
      </trkpt>
      <trkpt lat="43.327370" lon="-2.422052">
        <ele>47.911</ele>
        <time>2019-06-15T17:20:06Z</time>
      </trkpt>
      <trkpt lat="43.327416" lon="-2.421951">
        <ele>48.293</ele>
        <time>2019-06-15T17:20:07Z</time>
      </trkpt>
      <trkpt lat="43.327469" lon="-2.421851">
        <ele>48.465</ele>
        <time>2019-06-15T17:20:08Z</time>
      </trkpt>
      <trkpt lat="43.327505" lon="-2.421761">
        <ele>48.321</ele>
        <time>2019-06-15T17:20:09Z</time>
      </trkpt>
      <trkpt lat="43.327547" lon="-2.421668">
        <ele>48.208</ele>
        <time>2019-06-15T17:20:10Z</time>
      </trkpt>
      <trkpt lat="43.327589" lon="-2.421571">
        <ele>47.842</ele>
        <time>2019-06-15T17:20:11Z</time>
      </trkpt>
      <trkpt lat="43.327627" lon="-2.421461">
        <ele>46.546</ele>
        <time>2019-06-15T17:20:12Z</time>
      </trkpt>
      <trkpt lat="43.327666" lon="-2.421361">
        <ele>45.635</ele>
        <time>2019-06-15T17:20:13Z</time>
      </trkpt>
      <trkpt lat="43.327709" lon="-2.421296">
        <ele>46.074</ele>
        <time>2019-06-15T17:20:14Z</time>
      </trkpt>
      <trkpt lat="43.327743" lon="-2.421219">
        <ele>45.873</ele>
        <time>2019-06-15T17:20:15Z</time>
      </trkpt>
      <trkpt lat="43.327788" lon="-2.421151">
        <ele>45.174</ele>
        <time>2019-06-15T17:20:16Z</time>
      </trkpt>
      <trkpt lat="43.327845" lon="-2.421149">
        <ele>41.863</ele>
        <time>2019-06-15T17:20:17Z</time>
      </trkpt>
      <trkpt lat="43.327889" lon="-2.421175">
        <ele>40.017</ele>
        <time>2019-06-15T17:20:18Z</time>
      </trkpt>
      <trkpt lat="43.327931" lon="-2.421248">
        <ele>40.016</ele>
        <time>2019-06-15T17:20:19Z</time>
      </trkpt>
      <trkpt lat="43.327988" lon="-2.421341">
        <ele>40.776</ele>
        <time>2019-06-15T17:20:20Z</time>
      </trkpt>
      <trkpt lat="43.328042" lon="-2.421450">
        <ele>42.913</ele>
        <time>2019-06-15T17:20:21Z</time>
      </trkpt>
      <trkpt lat="43.328100" lon="-2.421564">
        <ele>44.008</ele>
        <time>2019-06-15T17:20:22Z</time>
      </trkpt>
      <trkpt lat="43.328165" lon="-2.421668">
        <ele>45.544</ele>
        <time>2019-06-15T17:20:23Z</time>
      </trkpt>
      <trkpt lat="43.328265" lon="-2.421753">
        <ele>44.278</ele>
        <time>2019-06-15T17:20:24Z</time>
      </trkpt>
      <trkpt lat="43.328335" lon="-2.421848">
        <ele>44.067</ele>
        <time>2019-06-15T17:20:25Z</time>
      </trkpt>
      <trkpt lat="43.328396" lon="-2.421970">
        <ele>41.956</ele>
        <time>2019-06-15T17:20:26Z</time>
      </trkpt>
      <trkpt lat="43.328441" lon="-2.422117">
        <ele>41.125</ele>
        <time>2019-06-15T17:20:27Z</time>
      </trkpt>
      <trkpt lat="43.328479" lon="-2.422304">
        <ele>42.836</ele>
        <time>2019-06-15T17:20:28Z</time>
      </trkpt>
      <trkpt lat="43.328524" lon="-2.422498">
        <ele>44.845</ele>
        <time>2019-06-15T17:20:29Z</time>
      </trkpt>
      <trkpt lat="43.328565" lon="-2.422660">
        <ele>47.269</ele>
        <time>2019-06-15T17:20:30Z</time>
      </trkpt>
      <trkpt lat="43.328619" lon="-2.422834">
        <ele>48.452</ele>
        <time>2019-06-15T17:20:31Z</time>
      </trkpt>
      <trkpt lat="43.328690" lon="-2.422984">
        <ele>49.453</ele>
        <time>2019-06-15T17:20:32Z</time>
      </trkpt>
      <trkpt lat="43.328768" lon="-2.423118">
        <ele>51.508</ele>
        <time>2019-06-15T17:20:33Z</time>
      </trkpt>
      <trkpt lat="43.328848" lon="-2.423245">
        <ele>51.708</ele>
        <time>2019-06-15T17:20:34Z</time>
      </trkpt>
      <trkpt lat="43.328974" lon="-2.423368">
        <ele>50.288</ele>
        <time>2019-06-15T17:20:35Z</time>
      </trkpt>
      <trkpt lat="43.329076" lon="-2.423494">
        <ele>49.262</ele>
        <time>2019-06-15T17:20:36Z</time>
      </trkpt>
      <trkpt lat="43.329176" lon="-2.423623">
        <ele>46.741</ele>
        <time>2019-06-15T17:20:37Z</time>
      </trkpt>
      <trkpt lat="43.329268" lon="-2.423753">
        <ele>45.410</ele>
        <time>2019-06-15T17:20:38Z</time>
      </trkpt>
      <trkpt lat="43.329360" lon="-2.423880">
        <ele>46.179</ele>
        <time>2019-06-15T17:20:39Z</time>
      </trkpt>
      <trkpt lat="43.329443" lon="-2.423988">
        <ele>46.550</ele>
        <time>2019-06-15T17:20:40Z</time>
      </trkpt>
      <trkpt lat="43.329519" lon="-2.424084">
        <ele>46.439</ele>
        <time>2019-06-15T17:20:41Z</time>
      </trkpt>
      <trkpt lat="43.329619" lon="-2.424194">
        <ele>46.863</ele>
        <time>2019-06-15T17:20:42Z</time>
      </trkpt>
      <trkpt lat="43.329707" lon="-2.424290">
        <ele>46.763</ele>
        <time>2019-06-15T17:20:43Z</time>
      </trkpt>
      <trkpt lat="43.329791" lon="-2.424408">
        <ele>46.344</ele>
        <time>2019-06-15T17:20:44Z</time>
      </trkpt>
      <trkpt lat="43.329882" lon="-2.424522">
        <ele>45.918</ele>
        <time>2019-06-15T17:20:45Z</time>
      </trkpt>
      <trkpt lat="43.329964" lon="-2.424646">
        <ele>45.708</ele>
        <time>2019-06-15T17:20:46Z</time>
      </trkpt>
      <trkpt lat="43.330031" lon="-2.424760">
        <ele>44.229</ele>
        <time>2019-06-15T17:20:47Z</time>
      </trkpt>
      <trkpt lat="43.330105" lon="-2.424883">
        <ele>39.793</ele>
        <time>2019-06-15T17:20:48Z</time>
      </trkpt>
      <trkpt lat="43.330161" lon="-2.425002">
        <ele>35.812</ele>
        <time>2019-06-15T17:20:49Z</time>
      </trkpt>
      <trkpt lat="43.330179" lon="-2.425147">
        <ele>36.081</ele>
        <time>2019-06-15T17:20:50Z</time>
      </trkpt>
      <trkpt lat="43.330218" lon="-2.425278">
        <ele>34.450</ele>
        <time>2019-06-15T17:20:51Z</time>
      </trkpt>
      <trkpt lat="43.330243" lon="-2.425506">
        <ele>38.581</ele>
        <time>2019-06-15T17:20:52Z</time>
      </trkpt>
      <trkpt lat="43.330284" lon="-2.425662">
        <ele>40.080</ele>
        <time>2019-06-15T17:20:53Z</time>
      </trkpt>
      <trkpt lat="43.330325" lon="-2.425851">
        <ele>40.544</ele>
        <time>2019-06-15T17:20:54Z</time>
      </trkpt>
      <trkpt lat="43.330410" lon="-2.426005">
        <ele>36.498</ele>
        <time>2019-06-15T17:20:55Z</time>
      </trkpt>
      <trkpt lat="43.330439" lon="-2.426200">
        <ele>41.515</ele>
        <time>2019-06-15T17:20:56Z</time>
      </trkpt>
      <trkpt lat="43.330499" lon="-2.426381">
        <ele>46.026</ele>
        <time>2019-06-15T17:20:57Z</time>
      </trkpt>
      <trkpt lat="43.330560" lon="-2.426544">
        <ele>47.308</ele>
        <time>2019-06-15T17:20:58Z</time>
      </trkpt>
      <trkpt lat="43.330619" lon="-2.426698">
        <ele>49.162</ele>
        <time>2019-06-15T17:20:59Z</time>
      </trkpt>
      <trkpt lat="43.330699" lon="-2.426831">
        <ele>49.636</ele>
        <time>2019-06-15T17:21:00Z</time>
      </trkpt>
      <trkpt lat="43.330740" lon="-2.426972">
        <ele>52.325</ele>
        <time>2019-06-15T17:21:01Z</time>
      </trkpt>
      <trkpt lat="43.330803" lon="-2.427102">
        <ele>50.654</ele>
        <time>2019-06-15T17:21:02Z</time>
      </trkpt>
      <trkpt lat="43.330836" lon="-2.427245">
        <ele>51.083</ele>
        <time>2019-06-15T17:21:03Z</time>
      </trkpt>
      <trkpt lat="43.330857" lon="-2.427402">
        <ele>51.134</ele>
        <time>2019-06-15T17:21:04Z</time>
      </trkpt>
      <trkpt lat="43.330886" lon="-2.427609">
        <ele>52.033</ele>
        <time>2019-06-15T17:21:05Z</time>
      </trkpt>
      <trkpt lat="43.330894" lon="-2.427800">
        <ele>54.177</ele>
        <time>2019-06-15T17:21:06Z</time>
      </trkpt>
      <trkpt lat="43.330902" lon="-2.427986">
        <ele>55.198</ele>
        <time>2019-06-15T17:21:07Z</time>
      </trkpt>
      <trkpt lat="43.330915" lon="-2.428150">
        <ele>55.615</ele>
        <time>2019-06-15T17:21:08Z</time>
      </trkpt>
      <trkpt lat="43.330941" lon="-2.428312">
        <ele>55.626</ele>
        <time>2019-06-15T17:21:09Z</time>
      </trkpt>
      <trkpt lat="43.331015" lon="-2.428449">
        <ele>56.508</ele>
        <time>2019-06-15T17:21:10Z</time>
      </trkpt>
      <trkpt lat="43.331089" lon="-2.428597">
        <ele>59.662</ele>
        <time>2019-06-15T17:21:11Z</time>
      </trkpt>
      <trkpt lat="43.331192" lon="-2.428743">
        <ele>58.736</ele>
        <time>2019-06-15T17:21:12Z</time>
      </trkpt>
      <trkpt lat="43.331268" lon="-2.428907">
        <ele>59.865</ele>
        <time>2019-06-15T17:21:13Z</time>
      </trkpt>
      <trkpt lat="43.331329" lon="-2.429081">
        <ele>62.394</ele>
        <time>2019-06-15T17:21:14Z</time>
      </trkpt>
      <trkpt lat="43.331384" lon="-2.429283">
        <ele>64.323</ele>
        <time>2019-06-15T17:21:15Z</time>
      </trkpt>
      <trkpt lat="43.331435" lon="-2.429487">
        <ele>65.624</ele>
        <time>2019-06-15T17:21:16Z</time>
      </trkpt>
      <trkpt lat="43.331476" lon="-2.429698">
        <ele>66.673</ele>
        <time>2019-06-15T17:21:17Z</time>
      </trkpt>
      <trkpt lat="43.331531" lon="-2.429887">
        <ele>67.747</ele>
        <time>2019-06-15T17:21:18Z</time>
      </trkpt>
      <trkpt lat="43.331579" lon="-2.430050">
        <ele>68.697</ele>
        <time>2019-06-15T17:21:19Z</time>
      </trkpt>
      <trkpt lat="43.331628" lon="-2.430227">
        <ele>70.123</ele>
        <time>2019-06-15T17:21:20Z</time>
      </trkpt>
      <trkpt lat="43.331717" lon="-2.430331">
        <ele>67.525</ele>
        <time>2019-06-15T17:21:21Z</time>
      </trkpt>
      <trkpt lat="43.331771" lon="-2.430467">
        <ele>68.108</ele>
        <time>2019-06-15T17:21:22Z</time>
      </trkpt>
      <trkpt lat="43.331818" lon="-2.430624">
        <ele>69.152</ele>
        <time>2019-06-15T17:21:23Z</time>
      </trkpt>
      <trkpt lat="43.331864" lon="-2.430800">
        <ele>69.216</ele>
        <time>2019-06-15T17:21:24Z</time>
      </trkpt>
      <trkpt lat="43.331901" lon="-2.431002">
        <ele>69.785</ele>
        <time>2019-06-15T17:21:25Z</time>
      </trkpt>
      <trkpt lat="43.331919" lon="-2.431213">
        <ele>72.094</ele>
        <time>2019-06-15T17:21:26Z</time>
      </trkpt>
      <trkpt lat="43.331952" lon="-2.431396">
        <ele>72.723</ele>
        <time>2019-06-15T17:21:27Z</time>
      </trkpt>
      <trkpt lat="43.331985" lon="-2.431580">
        <ele>73.954</ele>
        <time>2019-06-15T17:21:28Z</time>
      </trkpt>
      <trkpt lat="43.332021" lon="-2.431760">
        <ele>74.373</ele>
        <time>2019-06-15T17:21:29Z</time>
      </trkpt>
      <trkpt lat="43.332038" lon="-2.431953">
        <ele>75.657</ele>
        <time>2019-06-15T17:21:30Z</time>
      </trkpt>
      <trkpt lat="43.332050" lon="-2.432146">
        <ele>75.314</ele>
        <time>2019-06-15T17:21:31Z</time>
      </trkpt>
      <trkpt lat="43.332062" lon="-2.432338">
        <ele>75.754</ele>
        <time>2019-06-15T17:21:32Z</time>
      </trkpt>
      <trkpt lat="43.332068" lon="-2.432526">
        <ele>76.909</ele>
        <time>2019-06-15T17:21:33Z</time>
      </trkpt>
      <trkpt lat="43.332075" lon="-2.432723">
        <ele>79.408</ele>
        <time>2019-06-15T17:21:34Z</time>
      </trkpt>
      <trkpt lat="43.332119" lon="-2.432939">
        <ele>80.114</ele>
        <time>2019-06-15T17:21:35Z</time>
      </trkpt>
      <trkpt lat="43.332149" lon="-2.433138">
        <ele>81.798</ele>
        <time>2019-06-15T17:21:36Z</time>
      </trkpt>
      <trkpt lat="43.332213" lon="-2.433347">
        <ele>81.077</ele>
        <time>2019-06-15T17:21:37Z</time>
      </trkpt>
      <trkpt lat="43.332283" lon="-2.433557">
        <ele>80.976</ele>
        <time>2019-06-15T17:21:38Z</time>
      </trkpt>
      <trkpt lat="43.332336" lon="-2.433771">
        <ele>79.815</ele>
        <time>2019-06-15T17:21:39Z</time>
      </trkpt>
      <trkpt lat="43.332369" lon="-2.433994">
        <ele>79.646</ele>
        <time>2019-06-15T17:21:40Z</time>
      </trkpt>
      <trkpt lat="43.332419" lon="-2.434208">
        <ele>78.735</ele>
        <time>2019-06-15T17:21:41Z</time>
      </trkpt>
      <trkpt lat="43.332434" lon="-2.434409">
        <ele>80.189</ele>
        <time>2019-06-15T17:21:42Z</time>
      </trkpt>
      <trkpt lat="43.332490" lon="-2.434603">
        <ele>80.313</ele>
        <time>2019-06-15T17:21:43Z</time>
      </trkpt>
      <trkpt lat="43.332525" lon="-2.434767">
        <ele>80.743</ele>
        <time>2019-06-15T17:21:44Z</time>
      </trkpt>
      <trkpt lat="43.332561" lon="-2.434946">
        <ele>80.207</ele>
        <time>2019-06-15T17:21:45Z</time>
      </trkpt>
      <trkpt lat="43.332578" lon="-2.435092">
        <ele>79.408</ele>
        <time>2019-06-15T17:21:46Z</time>
      </trkpt>
      <trkpt lat="43.332584" lon="-2.435215">
        <ele>78.824</ele>
        <time>2019-06-15T17:21:47Z</time>
      </trkpt>
      <trkpt lat="43.332588" lon="-2.435342">
        <ele>78.578</ele>
        <time>2019-06-15T17:21:48Z</time>
      </trkpt>
      <trkpt lat="43.332608" lon="-2.435447">
        <ele>78.097</ele>
        <time>2019-06-15T17:21:49Z</time>
      </trkpt>
      <trkpt lat="43.332599" lon="-2.435515">
        <ele>78.236</ele>
        <time>2019-06-15T17:21:50Z</time>
      </trkpt>
      <trkpt lat="43.332600" lon="-2.435609">
        <ele>77.925</ele>
        <time>2019-06-15T17:21:51Z</time>
      </trkpt>
      <trkpt lat="43.332397" lon="-2.435526">
        <ele>82.356</ele>
        <time>2019-06-15T17:21:52Z</time>
      </trkpt>
      <trkpt lat="43.332337" lon="-2.435556">
        <ele>83.525</ele>
        <time>2019-06-15T17:21:53Z</time>
      </trkpt>
      <trkpt lat="43.332265" lon="-2.435595">
        <ele>84.819</ele>
        <time>2019-06-15T17:21:54Z</time>
      </trkpt>
      <trkpt lat="43.332281" lon="-2.435763">
        <ele>83.465</ele>
        <time>2019-06-15T17:21:55Z</time>
      </trkpt>
      <trkpt lat="43.332278" lon="-2.435903">
        <ele>82.468</ele>
        <time>2019-06-15T17:21:56Z</time>
      </trkpt>
      <trkpt lat="43.332247" lon="-2.436080">
        <ele>82.214</ele>
        <time>2019-06-15T17:21:57Z</time>
      </trkpt>
      <trkpt lat="43.332259" lon="-2.436246">
        <ele>80.208</ele>
        <time>2019-06-15T17:21:58Z</time>
      </trkpt>
      <trkpt lat="43.332271" lon="-2.436425">
        <ele>78.049</ele>
        <time>2019-06-15T17:21:59Z</time>
      </trkpt>
      <trkpt lat="43.332250" lon="-2.436587">
        <ele>77.943</ele>
        <time>2019-06-15T17:22:00Z</time>
      </trkpt>
      <trkpt lat="43.332231" lon="-2.436722">
        <ele>78.092</ele>
        <time>2019-06-15T17:22:01Z</time>
      </trkpt>
      <trkpt lat="43.332206" lon="-2.436870">
        <ele>78.751</ele>
        <time>2019-06-15T17:22:02Z</time>
      </trkpt>
      <trkpt lat="43.332188" lon="-2.437007">
        <ele>78.550</ele>
        <time>2019-06-15T17:22:03Z</time>
      </trkpt>
      <trkpt lat="43.332176" lon="-2.437146">
        <ele>77.431</ele>
        <time>2019-06-15T17:22:04Z</time>
      </trkpt>
      <trkpt lat="43.332162" lon="-2.437273">
        <ele>76.980</ele>
        <time>2019-06-15T17:22:05Z</time>
      </trkpt>
      <trkpt lat="43.332152" lon="-2.437378">
        <ele>76.614</ele>
        <time>2019-06-15T17:22:06Z</time>
      </trkpt>
      <trkpt lat="43.332139" lon="-2.437494">
        <ele>76.388</ele>
        <time>2019-06-15T17:22:07Z</time>
      </trkpt>
      <trkpt lat="43.332096" lon="-2.437581">
        <ele>76.824</ele>
        <time>2019-06-15T17:22:08Z</time>
      </trkpt>
      <trkpt lat="43.332034" lon="-2.437661">
        <ele>77.826</ele>
        <time>2019-06-15T17:22:09Z</time>
      </trkpt>
      <trkpt lat="43.331976" lon="-2.437730">
        <ele>78.308</ele>
        <time>2019-06-15T17:22:10Z</time>
      </trkpt>
      <trkpt lat="43.331884" lon="-2.437734">
        <ele>79.791</ele>
        <time>2019-06-15T17:22:11Z</time>
      </trkpt>
      <trkpt lat="43.331807" lon="-2.437770">
        <ele>78.845</ele>
        <time>2019-06-15T17:22:12Z</time>
      </trkpt>
      <trkpt lat="43.331609" lon="-2.437720">
        <ele>81.914</ele>
        <time>2019-06-15T17:22:13Z</time>
      </trkpt>
      <trkpt lat="43.331485" lon="-2.437709">
        <ele>82.953</ele>
        <time>2019-06-15T17:22:14Z</time>
      </trkpt>
      <trkpt lat="43.331358" lon="-2.437746">
        <ele>81.722</ele>
        <time>2019-06-15T17:22:15Z</time>
      </trkpt>
      <trkpt lat="43.331259" lon="-2.437765">
        <ele>81.643</ele>
        <time>2019-06-15T17:22:16Z</time>
      </trkpt>
      <trkpt lat="43.331141" lon="-2.437792">
        <ele>81.042</ele>
        <time>2019-06-15T17:22:17Z</time>
      </trkpt>
      <trkpt lat="43.331028" lon="-2.437799">
        <ele>81.586</ele>
        <time>2019-06-15T17:22:18Z</time>
      </trkpt>
      <trkpt lat="43.330927" lon="-2.437824">
        <ele>81.222</ele>
        <time>2019-06-15T17:22:19Z</time>
      </trkpt>
      <trkpt lat="43.330840" lon="-2.437909">
        <ele>78.262</ele>
        <time>2019-06-15T17:22:20Z</time>
      </trkpt>
      <trkpt lat="43.330753" lon="-2.437923">
        <ele>80.308</ele>
        <time>2019-06-15T17:22:21Z</time>
      </trkpt>
      <trkpt lat="43.330700" lon="-2.437953">
        <ele>81.208</ele>
        <time>2019-06-15T17:22:22Z</time>
      </trkpt>
      <trkpt lat="43.330649" lon="-2.437997">
        <ele>82.335</ele>
        <time>2019-06-15T17:22:23Z</time>
      </trkpt>
      <trkpt lat="43.330609" lon="-2.438109">
        <ele>82.659</ele>
        <time>2019-06-15T17:22:24Z</time>
      </trkpt>
      <trkpt lat="43.330562" lon="-2.438192">
        <ele>83.798</ele>
        <time>2019-06-15T17:22:25Z</time>
      </trkpt>
      <trkpt lat="43.330522" lon="-2.438298">
        <ele>83.747</ele>
        <time>2019-06-15T17:22:26Z</time>
      </trkpt>
      <trkpt lat="43.330495" lon="-2.438385">
        <ele>84.476</ele>
        <time>2019-06-15T17:22:27Z</time>
      </trkpt>
      <trkpt lat="43.330469" lon="-2.438464">
        <ele>85.557</ele>
        <time>2019-06-15T17:22:28Z</time>
      </trkpt>
      <trkpt lat="43.330473" lon="-2.438584">
        <ele>86.176</ele>
        <time>2019-06-15T17:22:29Z</time>
      </trkpt>
      <trkpt lat="43.330600" lon="-2.438601">
        <ele>85.390</ele>
        <time>2019-06-15T17:22:30Z</time>
      </trkpt>
      <trkpt lat="43.330664" lon="-2.438662">
        <ele>87.654</ele>
        <time>2019-06-15T17:22:31Z</time>
      </trkpt>
      <trkpt lat="43.330780" lon="-2.438655">
        <ele>86.256</ele>
        <time>2019-06-15T17:22:32Z</time>
      </trkpt>
      <trkpt lat="43.330882" lon="-2.438660">
        <ele>85.211</ele>
        <time>2019-06-15T17:22:33Z</time>
      </trkpt>
      <trkpt lat="43.330985" lon="-2.438679">
        <ele>84.708</ele>
        <time>2019-06-15T17:22:34Z</time>
      </trkpt>
      <trkpt lat="43.331094" lon="-2.438711">
        <ele>84.798</ele>
        <time>2019-06-15T17:22:35Z</time>
      </trkpt>
      <trkpt lat="43.331217" lon="-2.438738">
        <ele>81.532</ele>
        <time>2019-06-15T17:22:36Z</time>
      </trkpt>
      <trkpt lat="43.331350" lon="-2.438825">
        <ele>80.021</ele>
        <time>2019-06-15T17:22:37Z</time>
      </trkpt>
      <trkpt lat="43.331461" lon="-2.438894">
        <ele>80.270</ele>
        <time>2019-06-15T17:22:38Z</time>
      </trkpt>
      <trkpt lat="43.331558" lon="-2.438972">
        <ele>80.929</ele>
        <time>2019-06-15T17:22:39Z</time>
      </trkpt>
      <trkpt lat="43.331622" lon="-2.439081">
        <ele>81.140</ele>
        <time>2019-06-15T17:22:40Z</time>
      </trkpt>
      <trkpt lat="43.331682" lon="-2.439218">
        <ele>79.789</ele>
        <time>2019-06-15T17:22:41Z</time>
      </trkpt>
      <trkpt lat="43.331753" lon="-2.439367">
        <ele>77.633</ele>
        <time>2019-06-15T17:22:42Z</time>
      </trkpt>
      <trkpt lat="43.331775" lon="-2.439540">
        <ele>77.035</ele>
        <time>2019-06-15T17:22:43Z</time>
      </trkpt>
      <trkpt lat="43.331788" lon="-2.439729">
        <ele>76.586</ele>
        <time>2019-06-15T17:22:44Z</time>
      </trkpt>
      <trkpt lat="43.331783" lon="-2.439938">
        <ele>72.514</ele>
        <time>2019-06-15T17:22:45Z</time>
      </trkpt>
      <trkpt lat="43.331753" lon="-2.440149">
        <ele>67.508</ele>
        <time>2019-06-15T17:22:46Z</time>
      </trkpt>
      <trkpt lat="43.331714" lon="-2.440368">
        <ele>61.856</ele>
        <time>2019-06-15T17:22:47Z</time>
      </trkpt>
      <trkpt lat="43.331673" lon="-2.440597">
        <ele>56.160</ele>
        <time>2019-06-15T17:22:48Z</time>
      </trkpt>
      <trkpt lat="43.331648" lon="-2.440831">
        <ele>52.419</ele>
        <time>2019-06-15T17:22:49Z</time>
      </trkpt>
      <trkpt lat="43.331638" lon="-2.441073">
        <ele>50.168</ele>
        <time>2019-06-15T17:22:50Z</time>
      </trkpt>
      <trkpt lat="43.331634" lon="-2.441327">
        <ele>50.427</ele>
        <time>2019-06-15T17:22:51Z</time>
      </trkpt>
      <trkpt lat="43.331648" lon="-2.441573">
        <ele>51.558</ele>
        <time>2019-06-15T17:22:52Z</time>
      </trkpt>
      <trkpt lat="43.331678" lon="-2.441810">
        <ele>58.137</ele>
        <time>2019-06-15T17:22:53Z</time>
      </trkpt>
      <trkpt lat="43.331709" lon="-2.442034">
        <ele>69.631</ele>
        <time>2019-06-15T17:22:54Z</time>
      </trkpt>
      <trkpt lat="43.331749" lon="-2.442265">
        <ele>77.748</ele>
        <time>2019-06-15T17:22:55Z</time>
      </trkpt>
      <trkpt lat="43.331793" lon="-2.442487">
        <ele>79.661</ele>
        <time>2019-06-15T17:22:56Z</time>
      </trkpt>
      <trkpt lat="43.331830" lon="-2.442700">
        <ele>79.117</ele>
        <time>2019-06-15T17:22:57Z</time>
      </trkpt>
      <trkpt lat="43.331825" lon="-2.442900">
        <ele>78.408</ele>
        <time>2019-06-15T17:22:58Z</time>
      </trkpt>
      <trkpt lat="43.331767" lon="-2.443092">
        <ele>77.137</ele>
        <time>2019-06-15T17:22:59Z</time>
      </trkpt>
      <trkpt lat="43.331725" lon="-2.443284">
        <ele>73.581</ele>
        <time>2019-06-15T17:23:00Z</time>
      </trkpt>
      <trkpt lat="43.331661" lon="-2.443453">
        <ele>72.610</ele>
        <time>2019-06-15T17:23:01Z</time>
      </trkpt>
      <trkpt lat="43.331555" lon="-2.443602">
        <ele>72.489</ele>
        <time>2019-06-15T17:23:02Z</time>
      </trkpt>
      <trkpt lat="43.331435" lon="-2.443753">
        <ele>76.238</ele>
        <time>2019-06-15T17:23:03Z</time>
      </trkpt>
      <trkpt lat="43.331347" lon="-2.443934">
        <ele>79.129</ele>
        <time>2019-06-15T17:23:04Z</time>
      </trkpt>
      <trkpt lat="43.331271" lon="-2.444114">
        <ele>80.098</ele>
        <time>2019-06-15T17:23:05Z</time>
      </trkpt>
      <trkpt lat="43.331212" lon="-2.444284">
        <ele>80.012</ele>
        <time>2019-06-15T17:23:06Z</time>
      </trkpt>
      <trkpt lat="43.331170" lon="-2.444445">
        <ele>79.634</ele>
        <time>2019-06-15T17:23:07Z</time>
      </trkpt>
      <trkpt lat="43.331123" lon="-2.444566">
        <ele>80.455</ele>
        <time>2019-06-15T17:23:08Z</time>
      </trkpt>
      <trkpt lat="43.331087" lon="-2.444682">
        <ele>81.210</ele>
        <time>2019-06-15T17:23:09Z</time>
      </trkpt>
      <trkpt lat="43.331069" lon="-2.444786">
        <ele>83.408</ele>
        <time>2019-06-15T17:23:10Z</time>
      </trkpt>
      <trkpt lat="43.331076" lon="-2.444885">
        <ele>86.686</ele>
        <time>2019-06-15T17:23:11Z</time>
      </trkpt>
      <trkpt lat="43.331091" lon="-2.444968">
        <ele>89.540</ele>
        <time>2019-06-15T17:23:12Z</time>
      </trkpt>
      <trkpt lat="43.331174" lon="-2.445044">
        <ele>93.929</ele>
        <time>2019-06-15T17:23:13Z</time>
      </trkpt>
      <trkpt lat="43.331385" lon="-2.444980">
        <ele>91.168</ele>
        <time>2019-06-15T17:23:14Z</time>
      </trkpt>
      <trkpt lat="43.331514" lon="-2.444963">
        <ele>91.417</ele>
        <time>2019-06-15T17:23:15Z</time>
      </trkpt>
      <trkpt lat="43.331638" lon="-2.444950">
        <ele>91.788</ele>
        <time>2019-06-15T17:23:16Z</time>
      </trkpt>
      <trkpt lat="43.331744" lon="-2.444963">
        <ele>91.737</ele>
        <time>2019-06-15T17:23:17Z</time>
      </trkpt>
      <trkpt lat="43.331859" lon="-2.444960">
        <ele>90.021</ele>
        <time>2019-06-15T17:23:18Z</time>
      </trkpt>
      <trkpt lat="43.331909" lon="-2.444930">
        <ele>88.384</ele>
        <time>2019-06-15T17:23:19Z</time>
      </trkpt>
      <trkpt lat="43.332000" lon="-2.444931">
        <ele>84.907</ele>
        <time>2019-06-15T17:23:20Z</time>
      </trkpt>
      <trkpt lat="43.332069" lon="-2.445018">
        <ele>82.117</ele>
        <time>2019-06-15T17:23:21Z</time>
      </trkpt>
      <trkpt lat="43.332110" lon="-2.445116">
        <ele>80.408</ele>
        <time>2019-06-15T17:23:22Z</time>
      </trkpt>
      <trkpt lat="43.332116" lon="-2.445248">
        <ele>81.421</ele>
        <time>2019-06-15T17:23:23Z</time>
      </trkpt>
      <trkpt lat="43.332133" lon="-2.445399">
        <ele>82.695</ele>
        <time>2019-06-15T17:23:24Z</time>
      </trkpt>
      <trkpt lat="43.332152" lon="-2.445600">
        <ele>84.574</ele>
        <time>2019-06-15T17:23:25Z</time>
      </trkpt>
      <trkpt lat="43.332171" lon="-2.445780">
        <ele>84.283</ele>
        <time>2019-06-15T17:23:26Z</time>
      </trkpt>
      <trkpt lat="43.332195" lon="-2.445986">
        <ele>83.112</ele>
        <time>2019-06-15T17:23:27Z</time>
      </trkpt>
      <trkpt lat="43.332218" lon="-2.446193">
        <ele>82.523</ele>
        <time>2019-06-15T17:23:28Z</time>
      </trkpt>
      <trkpt lat="43.332223" lon="-2.446404">
        <ele>85.192</ele>
        <time>2019-06-15T17:23:29Z</time>
      </trkpt>
      <trkpt lat="43.332251" lon="-2.446608">
        <ele>85.126</ele>
        <time>2019-06-15T17:23:30Z</time>
      </trkpt>
      <trkpt lat="43.332303" lon="-2.446798">
        <ele>84.095</ele>
        <time>2019-06-15T17:23:31Z</time>
      </trkpt>
      <trkpt lat="43.332350" lon="-2.447005">
        <ele>85.349</ele>
        <time>2019-06-15T17:23:32Z</time>
      </trkpt>
      <trkpt lat="43.332415" lon="-2.447175">
        <ele>85.923</ele>
        <time>2019-06-15T17:23:33Z</time>
      </trkpt>
      <trkpt lat="43.332473" lon="-2.447325">
        <ele>85.208</ele>
        <time>2019-06-15T17:23:34Z</time>
      </trkpt>
      <trkpt lat="43.332560" lon="-2.447488">
        <ele>81.712</ele>
        <time>2019-06-15T17:23:35Z</time>
      </trkpt>
      <trkpt lat="43.332632" lon="-2.447660">
        <ele>81.226</ele>
        <time>2019-06-15T17:23:36Z</time>
      </trkpt>
      <trkpt lat="43.332703" lon="-2.447801">
        <ele>81.345</ele>
        <time>2019-06-15T17:23:37Z</time>
      </trkpt>
      <trkpt lat="43.332789" lon="-2.447940">
        <ele>79.874</ele>
        <time>2019-06-15T17:23:38Z</time>
      </trkpt>
      <trkpt lat="43.332863" lon="-2.448082">
        <ele>78.093</ele>
        <time>2019-06-15T17:23:39Z</time>
      </trkpt>
      <trkpt lat="43.332915" lon="-2.448235">
        <ele>77.324</ele>
        <time>2019-06-15T17:23:40Z</time>
      </trkpt>
      <trkpt lat="43.332962" lon="-2.448386">
        <ele>76.753</ele>
        <time>2019-06-15T17:23:41Z</time>
      </trkpt>
      <trkpt lat="43.332992" lon="-2.448557">
        <ele>77.247</ele>
        <time>2019-06-15T17:23:42Z</time>
      </trkpt>
      <trkpt lat="43.332971" lon="-2.448731">
        <ele>78.825</ele>
        <time>2019-06-15T17:23:43Z</time>
      </trkpt>
      <trkpt lat="43.332931" lon="-2.448898">
        <ele>80.426</ele>
        <time>2019-06-15T17:23:44Z</time>
      </trkpt>
      <trkpt lat="43.332925" lon="-2.449064">
        <ele>80.308</ele>
        <time>2019-06-15T17:23:45Z</time>
      </trkpt>
      <trkpt lat="43.332913" lon="-2.449227">
        <ele>81.708</ele>
        <time>2019-06-15T17:23:46Z</time>
      </trkpt>
      <trkpt lat="43.332913" lon="-2.449391">
        <ele>84.335</ele>
        <time>2019-06-15T17:23:47Z</time>
      </trkpt>
      <trkpt lat="43.332932" lon="-2.449557">
        <ele>84.239</ele>
        <time>2019-06-15T17:23:48Z</time>
      </trkpt>
      <trkpt lat="43.332942" lon="-2.449692">
        <ele>83.648</ele>
        <time>2019-06-15T17:23:49Z</time>
      </trkpt>
      <trkpt lat="43.332936" lon="-2.449827">
        <ele>81.397</ele>
        <time>2019-06-15T17:23:50Z</time>
      </trkpt>
      <trkpt lat="43.332885" lon="-2.449933">
        <ele>81.356</ele>
        <time>2019-06-15T17:23:51Z</time>
      </trkpt>
      <trkpt lat="43.332828" lon="-2.450040">
        <ele>80.827</ele>
        <time>2019-06-15T17:23:52Z</time>
      </trkpt>
      <trkpt lat="43.332785" lon="-2.450147">
        <ele>78.356</ele>
        <time>2019-06-15T17:23:53Z</time>
      </trkpt>
      <trkpt lat="43.332747" lon="-2.450214">
        <ele>75.930</ele>
        <time>2019-06-15T17:23:54Z</time>
      </trkpt>
      <trkpt lat="43.332709" lon="-2.450250">
        <ele>74.593</ele>
        <time>2019-06-15T17:23:55Z</time>
      </trkpt>
      <trkpt lat="43.332625" lon="-2.450275">
        <ele>73.765</ele>
        <time>2019-06-15T17:23:56Z</time>
      </trkpt>
      <trkpt lat="43.332551" lon="-2.450316">
        <ele>72.921</ele>
        <time>2019-06-15T17:23:57Z</time>
      </trkpt>
      <trkpt lat="43.332453" lon="-2.450309">
        <ele>74.508</ele>
        <time>2019-06-15T17:23:58Z</time>
      </trkpt>
      <trkpt lat="43.332367" lon="-2.450375">
        <ele>76.742</ele>
        <time>2019-06-15T17:23:59Z</time>
      </trkpt>
      <trkpt lat="43.332277" lon="-2.450392">
        <ele>79.966</ele>
        <time>2019-06-15T17:24:00Z</time>
      </trkpt>
      <trkpt lat="43.332205" lon="-2.450379">
        <ele>82.225</ele>
        <time>2019-06-15T17:24:01Z</time>
      </trkpt>
      <trkpt lat="43.332146" lon="-2.450416">
        <ele>85.814</ele>
        <time>2019-06-15T17:24:02Z</time>
      </trkpt>
      <trkpt lat="43.332120" lon="-2.450488">
        <ele>89.333</ele>
        <time>2019-06-15T17:24:03Z</time>
      </trkpt>
      <trkpt lat="43.332093" lon="-2.450663">
        <ele>96.444</ele>
        <time>2019-06-15T17:24:04Z</time>
      </trkpt>
      <trkpt lat="43.332164" lon="-2.450814">
        <ele>97.053</ele>
        <time>2019-06-15T17:24:05Z</time>
      </trkpt>
      <trkpt lat="43.332283" lon="-2.450941">
        <ele>90.747</ele>
        <time>2019-06-15T17:24:06Z</time>
      </trkpt>
      <trkpt lat="43.332319" lon="-2.451057">
        <ele>89.548</ele>
        <time>2019-06-15T17:24:07Z</time>
      </trkpt>
      <trkpt lat="43.332325" lon="-2.451149">
        <ele>90.261</ele>
        <time>2019-06-15T17:24:08Z</time>
      </trkpt>
      <trkpt lat="43.332359" lon="-2.451242">
        <ele>90.217</ele>
        <time>2019-06-15T17:24:09Z</time>
      </trkpt>
      <trkpt lat="43.332427" lon="-2.451301">
        <ele>89.708</ele>
        <time>2019-06-15T17:24:10Z</time>
      </trkpt>
      <trkpt lat="43.332550" lon="-2.451337">
        <ele>89.577</ele>
        <time>2019-06-15T17:24:11Z</time>
      </trkpt>
      <trkpt lat="43.332622" lon="-2.451377">
        <ele>91.491</ele>
        <time>2019-06-15T17:24:12Z</time>
      </trkpt>
      <trkpt lat="43.332796" lon="-2.451324">
        <ele>88.080</ele>
        <time>2019-06-15T17:24:13Z</time>
      </trkpt>
      <trkpt lat="43.332903" lon="-2.451326">
        <ele>86.619</ele>
        <time>2019-06-15T17:24:14Z</time>
      </trkpt>
      <trkpt lat="43.333071" lon="-2.451370">
        <ele>86.158</ele>
        <time>2019-06-15T17:24:15Z</time>
      </trkpt>
      <trkpt lat="43.333197" lon="-2.451407">
        <ele>86.389</ele>
        <time>2019-06-15T17:24:16Z</time>
      </trkpt>
      <trkpt lat="43.333369" lon="-2.451417">
        <ele>84.888</ele>
        <time>2019-06-15T17:24:17Z</time>
      </trkpt>
      <trkpt lat="43.333494" lon="-2.451441">
        <ele>84.152</ele>
        <time>2019-06-15T17:24:18Z</time>
      </trkpt>
      <trkpt lat="43.333594" lon="-2.451455">
        <ele>83.247</ele>
        <time>2019-06-15T17:24:19Z</time>
      </trkpt>
      <trkpt lat="43.333604" lon="-2.451579">
        <ele>84.929</ele>
        <time>2019-06-15T17:24:20Z</time>
      </trkpt>
      <trkpt lat="43.333668" lon="-2.451655">
        <ele>83.821</ele>
        <time>2019-06-15T17:24:21Z</time>
      </trkpt>
      <trkpt lat="43.333729" lon="-2.451750">
        <ele>82.508</ele>
        <time>2019-06-15T17:24:22Z</time>
      </trkpt>
      <trkpt lat="43.333785" lon="-2.451876">
        <ele>81.517</ele>
        <time>2019-06-15T17:24:23Z</time>
      </trkpt>
      <trkpt lat="43.333768" lon="-2.451990">
        <ele>82.541</ele>
        <time>2019-06-15T17:24:24Z</time>
      </trkpt>
      <trkpt lat="43.333769" lon="-2.452117">
        <ele>81.870</ele>
        <time>2019-06-15T17:24:25Z</time>
      </trkpt>
      <trkpt lat="43.333782" lon="-2.452247">
        <ele>80.939</ele>
        <time>2019-06-15T17:24:26Z</time>
      </trkpt>
      <trkpt lat="43.333823" lon="-2.452378">
        <ele>80.978</ele>
        <time>2019-06-15T17:24:27Z</time>
      </trkpt>
      <trkpt lat="43.333796" lon="-2.452468">
        <ele>82.739</ele>
        <time>2019-06-15T17:24:28Z</time>
      </trkpt>
      <trkpt lat="43.333810" lon="-2.452578">
        <ele>84.148</ele>
        <time>2019-06-15T17:24:29Z</time>
      </trkpt>
      <trkpt lat="43.333832" lon="-2.452656">
        <ele>85.042</ele>
        <time>2019-06-15T17:24:30Z</time>
      </trkpt>
      <trkpt lat="43.333885" lon="-2.452733">
        <ele>85.395</ele>
        <time>2019-06-15T17:24:31Z</time>
      </trkpt>
      <trkpt lat="43.334025" lon="-2.452849">
        <ele>84.049</ele>
        <time>2019-06-15T17:24:32Z</time>
      </trkpt>
      <trkpt lat="43.334093" lon="-2.452951">
        <ele>83.623</ele>
        <time>2019-06-15T17:24:33Z</time>
      </trkpt>
      <trkpt lat="43.334132" lon="-2.453159">
        <ele>84.908</ele>
        <time>2019-06-15T17:24:34Z</time>
      </trkpt>
      <trkpt lat="43.334184" lon="-2.453328">
        <ele>85.652</ele>
        <time>2019-06-15T17:24:35Z</time>
      </trkpt>
      <trkpt lat="43.334254" lon="-2.453458">
        <ele>86.156</ele>
        <time>2019-06-15T17:24:36Z</time>
      </trkpt>
      <trkpt lat="43.334304" lon="-2.453587">
        <ele>86.725</ele>
        <time>2019-06-15T17:24:37Z</time>
      </trkpt>
      <trkpt lat="43.334370" lon="-2.453731">
        <ele>86.994</ele>
        <time>2019-06-15T17:24:38Z</time>
      </trkpt>
      <trkpt lat="43.334413" lon="-2.453849">
        <ele>87.213</ele>
        <time>2019-06-15T17:24:39Z</time>
      </trkpt>
      <trkpt lat="43.334455" lon="-2.453972">
        <ele>86.954</ele>
        <time>2019-06-15T17:24:40Z</time>
      </trkpt>
      <trkpt lat="43.334481" lon="-2.454101">
        <ele>86.553</ele>
        <time>2019-06-15T17:24:41Z</time>
      </trkpt>
      <trkpt lat="43.334507" lon="-2.454204">
        <ele>86.797</ele>
        <time>2019-06-15T17:24:42Z</time>
      </trkpt>
      <trkpt lat="43.334552" lon="-2.454299">
        <ele>87.577</ele>
        <time>2019-06-15T17:24:43Z</time>
      </trkpt>
      <trkpt lat="43.334607" lon="-2.454385">
        <ele>88.661</ele>
        <time>2019-06-15T17:24:44Z</time>
      </trkpt>
      <trkpt lat="43.334685" lon="-2.454443">
        <ele>89.427</ele>
        <time>2019-06-15T17:24:45Z</time>
      </trkpt>
      <trkpt lat="43.334787" lon="-2.454488">
        <ele>89.308</ele>
        <time>2019-06-15T17:24:46Z</time>
      </trkpt>
      <trkpt lat="43.334930" lon="-2.454546">
        <ele>88.820</ele>
        <time>2019-06-15T17:24:47Z</time>
      </trkpt>
      <trkpt lat="43.335031" lon="-2.454610">
        <ele>88.114</ele>
        <time>2019-06-15T17:24:48Z</time>
      </trkpt>
      <trkpt lat="43.335155" lon="-2.454685">
        <ele>85.943</ele>
        <time>2019-06-15T17:24:49Z</time>
      </trkpt>
      <trkpt lat="43.335249" lon="-2.454817">
        <ele>85.242</ele>
        <time>2019-06-15T17:24:50Z</time>
      </trkpt>
      <trkpt lat="43.335321" lon="-2.454986">
        <ele>85.151</ele>
        <time>2019-06-15T17:24:51Z</time>
      </trkpt>
      <trkpt lat="43.335402" lon="-2.455126">
        <ele>84.622</ele>
        <time>2019-06-15T17:24:52Z</time>
      </trkpt>
      <trkpt lat="43.335456" lon="-2.455258">
        <ele>85.211</ele>
        <time>2019-06-15T17:24:53Z</time>
      </trkpt>
      <trkpt lat="43.335510" lon="-2.455385">
        <ele>85.595</ele>
        <time>2019-06-15T17:24:54Z</time>
      </trkpt>
      <trkpt lat="43.335571" lon="-2.455498">
        <ele>85.139</ele>
        <time>2019-06-15T17:24:55Z</time>
      </trkpt>
      <trkpt lat="43.335620" lon="-2.455617">
        <ele>83.801</ele>
        <time>2019-06-15T17:24:56Z</time>
      </trkpt>
      <trkpt lat="43.335643" lon="-2.455731">
        <ele>83.621</ele>
        <time>2019-06-15T17:24:57Z</time>
      </trkpt>
      <trkpt lat="43.335625" lon="-2.455853">
        <ele>84.908</ele>
        <time>2019-06-15T17:24:58Z</time>
      </trkpt>
      <trkpt lat="43.335596" lon="-2.455953">
        <ele>83.916</ele>
        <time>2019-06-15T17:24:59Z</time>
      </trkpt>
      <trkpt lat="43.335553" lon="-2.456038">
        <ele>83.690</ele>
        <time>2019-06-15T17:25:00Z</time>
      </trkpt>
      <trkpt lat="43.335497" lon="-2.456121">
        <ele>82.459</ele>
        <time>2019-06-15T17:25:01Z</time>
      </trkpt>
      <trkpt lat="43.335405" lon="-2.456161">
        <ele>82.168</ele>
        <time>2019-06-15T17:25:02Z</time>
      </trkpt>
      <trkpt lat="43.335320" lon="-2.456201">
        <ele>82.237</ele>
        <time>2019-06-15T17:25:03Z</time>
      </trkpt>
      <trkpt lat="43.335220" lon="-2.456237">
        <ele>84.688</ele>
        <time>2019-06-15T17:25:04Z</time>
      </trkpt>
      <trkpt lat="43.335133" lon="-2.456303">
        <ele>86.697</ele>
        <time>2019-06-15T17:25:05Z</time>
      </trkpt>
      <trkpt lat="43.335074" lon="-2.456400">
        <ele>86.641</ele>
        <time>2019-06-15T17:25:06Z</time>
      </trkpt>
      <trkpt lat="43.335043" lon="-2.456524">
        <ele>88.942</ele>
        <time>2019-06-15T17:25:07Z</time>
      </trkpt>
      <trkpt lat="43.335019" lon="-2.456651">
        <ele>90.922</ele>
        <time>2019-06-15T17:25:08Z</time>
      </trkpt>
      <trkpt lat="43.335029" lon="-2.456839">
        <ele>91.714</ele>
        <time>2019-06-15T17:25:09Z</time>
      </trkpt>
      <trkpt lat="43.335109" lon="-2.457006">
        <ele>87.708</ele>
        <time>2019-06-15T17:25:10Z</time>
      </trkpt>
      <trkpt lat="43.335127" lon="-2.457152">
        <ele>86.797</ele>
        <time>2019-06-15T17:25:11Z</time>
      </trkpt>
      <trkpt lat="43.335137" lon="-2.457297">
        <ele>84.861</ele>
        <time>2019-06-15T17:25:12Z</time>
      </trkpt>
      <trkpt lat="43.335126" lon="-2.457436">
        <ele>82.770</ele>
        <time>2019-06-15T17:25:13Z</time>
      </trkpt>
      <trkpt lat="43.335081" lon="-2.457566">
        <ele>81.999</ele>
        <time>2019-06-15T17:25:14Z</time>
      </trkpt>
      <trkpt lat="43.335051" lon="-2.457707">
        <ele>81.058</ele>
        <time>2019-06-15T17:25:15Z</time>
      </trkpt>
      <trkpt lat="43.335039" lon="-2.457851">
        <ele>80.549</ele>
        <time>2019-06-15T17:25:16Z</time>
      </trkpt>
      <trkpt lat="43.335051" lon="-2.457963">
        <ele>79.698</ele>
        <time>2019-06-15T17:25:17Z</time>
      </trkpt>
      <trkpt lat="43.335031" lon="-2.458091">
        <ele>80.362</ele>
        <time>2019-06-15T17:25:18Z</time>
      </trkpt>
      <trkpt lat="43.335022" lon="-2.458221">
        <ele>78.652</ele>
        <time>2019-06-15T17:25:19Z</time>
      </trkpt>
      <trkpt lat="43.335003" lon="-2.458315">
        <ele>78.153</ele>
        <time>2019-06-15T17:25:20Z</time>
      </trkpt>
      <trkpt lat="43.334920" lon="-2.458399">
        <ele>78.008</ele>
        <time>2019-06-15T17:25:21Z</time>
      </trkpt>
      <trkpt lat="43.334836" lon="-2.458501">
        <ele>75.808</ele>
        <time>2019-06-15T17:25:22Z</time>
      </trkpt>
      <trkpt lat="43.334752" lon="-2.458606">
        <ele>72.668</ele>
        <time>2019-06-15T17:25:23Z</time>
      </trkpt>
      <trkpt lat="43.334657" lon="-2.458655">
        <ele>73.322</ele>
        <time>2019-06-15T17:25:24Z</time>
      </trkpt>
      <trkpt lat="43.334569" lon="-2.458701">
        <ele>75.481</ele>
        <time>2019-06-15T17:25:25Z</time>
      </trkpt>
      <trkpt lat="43.334502" lon="-2.458787">
        <ele>76.860</ele>
        <time>2019-06-15T17:25:26Z</time>
      </trkpt>
      <trkpt lat="43.334457" lon="-2.458880">
        <ele>78.219</ele>
        <time>2019-06-15T17:25:27Z</time>
      </trkpt>
      <trkpt lat="43.334509" lon="-2.459029">
        <ele>74.950</ele>
        <time>2019-06-15T17:25:28Z</time>
      </trkpt>
      <trkpt lat="43.334518" lon="-2.459159">
        <ele>74.669</ele>
        <time>2019-06-15T17:25:29Z</time>
      </trkpt>
      <trkpt lat="43.334538" lon="-2.459311">
        <ele>74.593</ele>
        <time>2019-06-15T17:25:30Z</time>
      </trkpt>
      <trkpt lat="43.334575" lon="-2.459458">
        <ele>73.211</ele>
        <time>2019-06-15T17:25:31Z</time>
      </trkpt>
      <trkpt lat="43.334605" lon="-2.459607">
        <ele>72.021</ele>
        <time>2019-06-15T17:25:32Z</time>
      </trkpt>
      <trkpt lat="43.334635" lon="-2.459751">
        <ele>70.803</ele>
        <time>2019-06-15T17:25:33Z</time>
      </trkpt>
      <trkpt lat="43.334646" lon="-2.459896">
        <ele>69.208</ele>
        <time>2019-06-15T17:25:34Z</time>
      </trkpt>
      <trkpt lat="43.334674" lon="-2.460035">
        <ele>66.884</ele>
        <time>2019-06-15T17:25:35Z</time>
      </trkpt>
      <trkpt lat="43.334646" lon="-2.460110">
        <ele>66.118</ele>
        <time>2019-06-15T17:25:36Z</time>
      </trkpt>
      <trkpt lat="43.334640" lon="-2.460227">
        <ele>63.617</ele>
        <time>2019-06-15T17:25:37Z</time>
      </trkpt>
      <trkpt lat="43.334571" lon="-2.460252">
        <ele>64.426</ele>
        <time>2019-06-15T17:25:38Z</time>
      </trkpt>
      <trkpt lat="43.334502" lon="-2.460291">
        <ele>64.355</ele>
        <time>2019-06-15T17:25:39Z</time>
      </trkpt>
      <trkpt lat="43.334397" lon="-2.460229">
        <ele>66.196</ele>
        <time>2019-06-15T17:25:40Z</time>
      </trkpt>
      <trkpt lat="43.334299" lon="-2.460192">
        <ele>64.615</ele>
        <time>2019-06-15T17:25:41Z</time>
      </trkpt>
      <trkpt lat="43.334215" lon="-2.460125">
        <ele>64.919</ele>
        <time>2019-06-15T17:25:42Z</time>
      </trkpt>
      <trkpt lat="43.334155" lon="-2.460032">
        <ele>67.387</ele>
        <time>2019-06-15T17:25:43Z</time>
      </trkpt>
      <trkpt lat="43.334106" lon="-2.459935">
        <ele>68.742</ele>
        <time>2019-06-15T17:25:44Z</time>
      </trkpt>
      <trkpt lat="43.334069" lon="-2.459839">
        <ele>69.526</ele>
        <time>2019-06-15T17:25:45Z</time>
      </trkpt>
      <trkpt lat="43.334014" lon="-2.459773">
        <ele>68.308</ele>
        <time>2019-06-15T17:25:46Z</time>
      </trkpt>
      <trkpt lat="43.333951" lon="-2.459744">
        <ele>65.821</ele>
        <time>2019-06-15T17:25:47Z</time>
      </trkpt>
      <trkpt lat="43.333891" lon="-2.459748">
        <ele>62.865</ele>
        <time>2019-06-15T17:25:48Z</time>
      </trkpt>
      <trkpt lat="43.333840" lon="-2.459830">
        <ele>63.254</ele>
        <time>2019-06-15T17:25:49Z</time>
      </trkpt>
      <trkpt lat="43.333793" lon="-2.459898">
        <ele>64.763</ele>
        <time>2019-06-15T17:25:50Z</time>
      </trkpt>
      <trkpt lat="43.333759" lon="-2.460047">
        <ele>66.722</ele>
        <time>2019-06-15T17:25:51Z</time>
      </trkpt>
      <trkpt lat="43.333731" lon="-2.460162">
        <ele>68.893</ele>
        <time>2019-06-15T17:25:52Z</time>
      </trkpt>
      <trkpt lat="43.333697" lon="-2.460276">
        <ele>71.812</ele>
        <time>2019-06-15T17:25:53Z</time>
      </trkpt>
      <trkpt lat="43.333727" lon="-2.460365">
        <ele>71.386</ele>
        <time>2019-06-15T17:25:54Z</time>
      </trkpt>
      <trkpt lat="43.333753" lon="-2.460496">
        <ele>72.169</ele>
        <time>2019-06-15T17:25:55Z</time>
      </trkpt>
      <trkpt lat="43.333830" lon="-2.460586">
        <ele>69.804</ele>
        <time>2019-06-15T17:25:56Z</time>
      </trkpt>
      <trkpt lat="43.334093" lon="-2.460638">
        <ele>60.424</ele>
        <time>2019-06-15T17:25:57Z</time>
      </trkpt>
      <trkpt lat="43.334193" lon="-2.460726">
        <ele>59.008</ele>
        <time>2019-06-15T17:25:58Z</time>
      </trkpt>
      <trkpt lat="43.334227" lon="-2.460803">
        <ele>59.589</ele>
        <time>2019-06-15T17:25:59Z</time>
      </trkpt>
      <trkpt lat="43.334289" lon="-2.460914">
        <ele>57.543</ele>
        <time>2019-06-15T17:26:00Z</time>
      </trkpt>
      <trkpt lat="43.334332" lon="-2.461059">
        <ele>55.422</ele>
        <time>2019-06-15T17:26:01Z</time>
      </trkpt>
      <trkpt lat="43.334333" lon="-2.461214">
        <ele>55.791</ele>
        <time>2019-06-15T17:26:02Z</time>
      </trkpt>
      <trkpt lat="43.334328" lon="-2.461363">
        <ele>56.590</ele>
        <time>2019-06-15T17:26:03Z</time>
      </trkpt>
      <trkpt lat="43.334302" lon="-2.461474">
        <ele>56.821</ele>
        <time>2019-06-15T17:26:04Z</time>
      </trkpt>
      <trkpt lat="43.334287" lon="-2.461602">
        <ele>55.770</ele>
        <time>2019-06-15T17:26:05Z</time>
      </trkpt>
      <trkpt lat="43.334253" lon="-2.461716">
        <ele>56.624</ele>
        <time>2019-06-15T17:26:06Z</time>
      </trkpt>
      <trkpt lat="43.334230" lon="-2.461824">
        <ele>57.166</ele>
        <time>2019-06-15T17:26:07Z</time>
      </trkpt>
      <trkpt lat="43.334264" lon="-2.461942">
        <ele>56.029</ele>
        <time>2019-06-15T17:26:08Z</time>
      </trkpt>
      <trkpt lat="43.334275" lon="-2.462042">
        <ele>57.421</ele>
        <time>2019-06-15T17:26:09Z</time>
      </trkpt>
      <trkpt lat="43.334310" lon="-2.462099">
        <ele>58.308</ele>
        <time>2019-06-15T17:26:10Z</time>
      </trkpt>
      <trkpt lat="43.334359" lon="-2.462125">
        <ele>58.979</ele>
        <time>2019-06-15T17:26:11Z</time>
      </trkpt>
      <trkpt lat="43.334439" lon="-2.462123">
        <ele>59.133</ele>
        <time>2019-06-15T17:26:12Z</time>
      </trkpt>
      <trkpt lat="43.334580" lon="-2.462071">
        <ele>58.172</ele>
        <time>2019-06-15T17:26:13Z</time>
      </trkpt>
      <trkpt lat="43.334685" lon="-2.462080">
        <ele>58.831</ele>
        <time>2019-06-15T17:26:14Z</time>
      </trkpt>
      <trkpt lat="43.334818" lon="-2.462123">
        <ele>59.120</ele>
        <time>2019-06-15T17:26:15Z</time>
      </trkpt>
      <trkpt lat="43.334942" lon="-2.462165">
        <ele>59.071</ele>
        <time>2019-06-15T17:26:16Z</time>
      </trkpt>
      <trkpt lat="43.335089" lon="-2.462252">
        <ele>58.710</ele>
        <time>2019-06-15T17:26:17Z</time>
      </trkpt>
      <trkpt lat="43.335273" lon="-2.462356">
        <ele>56.544</ele>
        <time>2019-06-15T17:26:18Z</time>
      </trkpt>
      <trkpt lat="43.335385" lon="-2.462454">
        <ele>53.811</ele>
        <time>2019-06-15T17:26:19Z</time>
      </trkpt>
      <trkpt lat="43.335442" lon="-2.462578">
        <ele>56.021</ele>
        <time>2019-06-15T17:26:20Z</time>
      </trkpt>
      <trkpt lat="43.335577" lon="-2.462662">
        <ele>54.403</ele>
        <time>2019-06-15T17:26:21Z</time>
      </trkpt>
      <trkpt lat="43.335704" lon="-2.462728">
        <ele>54.008</ele>
        <time>2019-06-15T17:26:22Z</time>
      </trkpt>
      <trkpt lat="43.335823" lon="-2.462783">
        <ele>53.494</ele>
        <time>2019-06-15T17:26:23Z</time>
      </trkpt>
      <trkpt lat="43.335909" lon="-2.462805">
        <ele>53.048</ele>
        <time>2019-06-15T17:26:24Z</time>
      </trkpt>
      <trkpt lat="43.336009" lon="-2.462834">
        <ele>52.547</ele>
        <time>2019-06-15T17:26:25Z</time>
      </trkpt>
      <trkpt lat="43.336148" lon="-2.462864">
        <ele>50.996</ele>
        <time>2019-06-15T17:26:26Z</time>
      </trkpt>
      <trkpt lat="43.336268" lon="-2.462911">
        <ele>48.485</ele>
        <time>2019-06-15T17:26:27Z</time>
      </trkpt>
      <trkpt lat="43.336421" lon="-2.462991">
        <ele>45.216</ele>
        <time>2019-06-15T17:26:28Z</time>
      </trkpt>
      <trkpt lat="43.336531" lon="-2.463097">
        <ele>44.295</ele>
        <time>2019-06-15T17:26:29Z</time>
      </trkpt>
      <trkpt lat="43.336581" lon="-2.463240">
        <ele>45.059</ele>
        <time>2019-06-15T17:26:30Z</time>
      </trkpt>
      <trkpt lat="43.336645" lon="-2.463391">
        <ele>45.285</ele>
        <time>2019-06-15T17:26:31Z</time>
      </trkpt>
      <trkpt lat="43.336712" lon="-2.463544">
        <ele>46.189</ele>
        <time>2019-06-15T17:26:32Z</time>
      </trkpt>
      <trkpt lat="43.336791" lon="-2.463669">
        <ele>46.117</ele>
        <time>2019-06-15T17:26:33Z</time>
      </trkpt>
      <trkpt lat="43.336886" lon="-2.463783">
        <ele>45.608</ele>
        <time>2019-06-15T17:26:34Z</time>
      </trkpt>
      <trkpt lat="43.336988" lon="-2.463889">
        <ele>44.881</ele>
        <time>2019-06-15T17:26:35Z</time>
      </trkpt>
      <trkpt lat="43.337118" lon="-2.463981">
        <ele>45.135</ele>
        <time>2019-06-15T17:26:36Z</time>
      </trkpt>
      <trkpt lat="43.337244" lon="-2.464061">
        <ele>44.714</ele>
        <time>2019-06-15T17:26:37Z</time>
      </trkpt>
      <trkpt lat="43.337373" lon="-2.464139">
        <ele>43.993</ele>
        <time>2019-06-15T17:26:38Z</time>
      </trkpt>
      <trkpt lat="43.337483" lon="-2.464211">
        <ele>44.042</ele>
        <time>2019-06-15T17:26:39Z</time>
      </trkpt>
      <trkpt lat="43.337609" lon="-2.464290">
        <ele>43.853</ele>
        <time>2019-06-15T17:26:40Z</time>
      </trkpt>
      <trkpt lat="43.337757" lon="-2.464322">
        <ele>39.942</ele>
        <time>2019-06-15T17:26:41Z</time>
      </trkpt>
      <trkpt lat="43.337881" lon="-2.464362">
        <ele>38.056</ele>
        <time>2019-06-15T17:26:42Z</time>
      </trkpt>
      <trkpt lat="43.338002" lon="-2.464403">
        <ele>36.163</ele>
        <time>2019-06-15T17:26:43Z</time>
      </trkpt>
      <trkpt lat="43.338033" lon="-2.464501">
        <ele>36.244</ele>
        <time>2019-06-15T17:26:44Z</time>
      </trkpt>
      <trkpt lat="43.338050" lon="-2.464586">
        <ele>34.718</ele>
        <time>2019-06-15T17:26:45Z</time>
      </trkpt>
      <trkpt lat="43.338073" lon="-2.464676">
        <ele>32.308</ele>
        <time>2019-06-15T17:26:46Z</time>
      </trkpt>
      <trkpt lat="43.337980" lon="-2.464783">
        <ele>34.529</ele>
        <time>2019-06-15T17:26:47Z</time>
      </trkpt>
      <trkpt lat="43.337920" lon="-2.464899">
        <ele>32.783</ele>
        <time>2019-06-15T17:26:48Z</time>
      </trkpt>
      <trkpt lat="43.337874" lon="-2.465015">
        <ele>30.282</ele>
        <time>2019-06-15T17:26:49Z</time>
      </trkpt>
      <trkpt lat="43.337824" lon="-2.465147">
        <ele>27.161</ele>
        <time>2019-06-15T17:26:50Z</time>
      </trkpt>
      <trkpt lat="43.337742" lon="-2.465280">
        <ele>24.970</ele>
        <time>2019-06-15T17:26:51Z</time>
      </trkpt>
      <trkpt lat="43.337648" lon="-2.465396">
        <ele>25.611</ele>
        <time>2019-06-15T17:26:52Z</time>
      </trkpt>
      <trkpt lat="43.337548" lon="-2.465529">
        <ele>24.460</ele>
        <time>2019-06-15T17:26:53Z</time>
      </trkpt>
      <trkpt lat="43.337465" lon="-2.465615">
        <ele>25.044</ele>
        <time>2019-06-15T17:26:54Z</time>
      </trkpt>
      <trkpt lat="43.337377" lon="-2.465727">
        <ele>26.677</ele>
        <time>2019-06-15T17:26:55Z</time>
      </trkpt>
      <trkpt lat="43.337332" lon="-2.465856">
        <ele>26.561</ele>
        <time>2019-06-15T17:26:56Z</time>
      </trkpt>
      <trkpt lat="43.337298" lon="-2.465979">
        <ele>26.927</ele>
        <time>2019-06-15T17:26:57Z</time>
      </trkpt>
      <trkpt lat="43.337254" lon="-2.466105">
        <ele>27.008</ele>
        <time>2019-06-15T17:26:58Z</time>
      </trkpt>
      <trkpt lat="43.337208" lon="-2.466223">
        <ele>25.980</ele>
        <time>2019-06-15T17:26:59Z</time>
      </trkpt>
      <trkpt lat="43.337168" lon="-2.466345">
        <ele>24.414</ele>
        <time>2019-06-15T17:27:00Z</time>
      </trkpt>
      <trkpt lat="43.337106" lon="-2.466410">
        <ele>25.553</ele>
        <time>2019-06-15T17:27:01Z</time>
      </trkpt>
      <trkpt lat="43.337040" lon="-2.466480">
        <ele>27.372</ele>
        <time>2019-06-15T17:27:02Z</time>
      </trkpt>
      <trkpt lat="43.336985" lon="-2.466557">
        <ele>27.641</ele>
        <time>2019-06-15T17:27:03Z</time>
      </trkpt>
      <trkpt lat="43.336966" lon="-2.466650">
        <ele>26.242</ele>
        <time>2019-06-15T17:27:04Z</time>
      </trkpt>
      <trkpt lat="43.336926" lon="-2.466726">
        <ele>28.481</ele>
        <time>2019-06-15T17:27:05Z</time>
      </trkpt>
      <trkpt lat="43.336927" lon="-2.466790">
        <ele>30.645</ele>
        <time>2019-06-15T17:27:06Z</time>
      </trkpt>
      <trkpt lat="43.336963" lon="-2.466863">
        <ele>32.965</ele>
        <time>2019-06-15T17:27:08Z</time>
      </trkpt>
      <trkpt lat="43.337171" lon="-2.466915">
        <ele>33.368</ele>
        <time>2019-06-15T17:27:09Z</time>
      </trkpt>
      <trkpt lat="43.337251" lon="-2.467022">
        <ele>34.214</ele>
        <time>2019-06-15T17:27:10Z</time>
      </trkpt>
      <trkpt lat="43.337327" lon="-2.467136">
        <ele>32.508</ele>
        <time>2019-06-15T17:27:11Z</time>
      </trkpt>
      <trkpt lat="43.337348" lon="-2.467282">
        <ele>33.539</ele>
        <time>2019-06-15T17:27:12Z</time>
      </trkpt>
      <trkpt lat="43.337393" lon="-2.467449">
        <ele>33.513</ele>
        <time>2019-06-15T17:27:13Z</time>
      </trkpt>
      <trkpt lat="43.337409" lon="-2.467598">
        <ele>34.232</ele>
        <time>2019-06-15T17:27:14Z</time>
      </trkpt>
      <trkpt lat="43.337443" lon="-2.467736">
        <ele>33.381</ele>
        <time>2019-06-15T17:27:15Z</time>
      </trkpt>
      <trkpt lat="43.337464" lon="-2.467850">
        <ele>32.620</ele>
        <time>2019-06-15T17:27:16Z</time>
      </trkpt>
      <trkpt lat="43.337522" lon="-2.467973">
        <ele>31.581</ele>
        <time>2019-06-15T17:27:17Z</time>
      </trkpt>
      <trkpt lat="43.337548" lon="-2.468032">
        <ele>32.720</ele>
        <time>2019-06-15T17:27:18Z</time>
      </trkpt>
      <trkpt lat="43.337677" lon="-2.468015">
        <ele>37.334</ele>
        <time>2019-06-15T17:27:19Z</time>
      </trkpt>
      <trkpt lat="43.337744" lon="-2.467983">
        <ele>39.846</ele>
        <time>2019-06-15T17:27:20Z</time>
      </trkpt>
      <trkpt lat="43.337826" lon="-2.467963">
        <ele>45.388</ele>
        <time>2019-06-15T17:27:21Z</time>
      </trkpt>
      <trkpt lat="43.337862" lon="-2.467876">
        <ele>48.416</ele>
        <time>2019-06-15T17:27:22Z</time>
      </trkpt>
      <trkpt lat="43.337855" lon="-2.467732">
        <ele>47.508</ele>
        <time>2019-06-15T17:27:23Z</time>
      </trkpt>
      <trkpt lat="43.337854" lon="-2.467608">
        <ele>47.077</ele>
        <time>2019-06-15T17:27:24Z</time>
      </trkpt>
      <trkpt lat="43.337868" lon="-2.467462">
        <ele>47.831</ele>
        <time>2019-06-15T17:27:25Z</time>
      </trkpt>
      <trkpt lat="43.337868" lon="-2.467288">
        <ele>47.510</ele>
        <time>2019-06-15T17:27:26Z</time>
      </trkpt>
      <trkpt lat="43.337884" lon="-2.467131">
        <ele>48.829</ele>
        <time>2019-06-15T17:27:27Z</time>
      </trkpt>
      <trkpt lat="43.337872" lon="-2.466924">
        <ele>47.748</ele>
        <time>2019-06-15T17:27:28Z</time>
      </trkpt>
      <trkpt lat="43.337876" lon="-2.466769">
        <ele>47.249</ele>
        <time>2019-06-15T17:27:29Z</time>
      </trkpt>
      <trkpt lat="43.337921" lon="-2.466631">
        <ele>49.128</ele>
        <time>2019-06-15T17:27:30Z</time>
      </trkpt>
      <trkpt lat="43.337979" lon="-2.466481">
        <ele>49.892</ele>
        <time>2019-06-15T17:27:31Z</time>
      </trkpt>
      <trkpt lat="43.338038" lon="-2.466332">
        <ele>49.478</ele>
        <time>2019-06-15T17:27:32Z</time>
      </trkpt>
      <trkpt lat="43.338115" lon="-2.466202">
        <ele>49.033</ele>
        <time>2019-06-15T17:27:33Z</time>
      </trkpt>
      <trkpt lat="43.338195" lon="-2.466076">
        <ele>49.426</ele>
        <time>2019-06-15T17:27:34Z</time>
      </trkpt>
      <trkpt lat="43.338290" lon="-2.465971">
        <ele>50.408</ele>
        <time>2019-06-15T17:27:35Z</time>
      </trkpt>
      <trkpt lat="43.338380" lon="-2.465866">
        <ele>51.340</ele>
        <time>2019-06-15T17:27:36Z</time>
      </trkpt>
      <trkpt lat="43.338490" lon="-2.465761">
        <ele>52.134</ele>
        <time>2019-06-15T17:27:37Z</time>
      </trkpt>
      <trkpt lat="43.338603" lon="-2.465662">
        <ele>52.693</ele>
        <time>2019-06-15T17:27:38Z</time>
      </trkpt>
      <trkpt lat="43.338707" lon="-2.465576">
        <ele>54.432</ele>
        <time>2019-06-15T17:27:39Z</time>
      </trkpt>
      <trkpt lat="43.338759" lon="-2.465438">
        <ele>52.551</ele>
        <time>2019-06-15T17:27:40Z</time>
      </trkpt>
      <trkpt lat="43.338839" lon="-2.465316">
        <ele>53.242</ele>
        <time>2019-06-15T17:27:41Z</time>
      </trkpt>
      <trkpt lat="43.338901" lon="-2.465206">
        <ele>52.971</ele>
        <time>2019-06-15T17:27:42Z</time>
      </trkpt>
      <trkpt lat="43.338968" lon="-2.465097">
        <ele>51.665</ele>
        <time>2019-06-15T17:27:43Z</time>
      </trkpt>
      <trkpt lat="43.339034" lon="-2.465002">
        <ele>50.818</ele>
        <time>2019-06-15T17:27:44Z</time>
      </trkpt>
      <trkpt lat="43.339103" lon="-2.464917">
        <ele>50.898</ele>
        <time>2019-06-15T17:27:45Z</time>
      </trkpt>
      <trkpt lat="43.339180" lon="-2.464906">
        <ele>52.817</ele>
        <time>2019-06-15T17:27:46Z</time>
      </trkpt>
      <trkpt lat="43.339255" lon="-2.464870">
        <ele>50.908</ele>
        <time>2019-06-15T17:27:47Z</time>
      </trkpt>
      <trkpt lat="43.339342" lon="-2.464908">
        <ele>51.344</ele>
        <time>2019-06-15T17:27:48Z</time>
      </trkpt>
      <trkpt lat="43.339418" lon="-2.464937">
        <ele>51.728</ele>
        <time>2019-06-15T17:27:49Z</time>
      </trkpt>
      <trkpt lat="43.339511" lon="-2.465016">
        <ele>52.767</ele>
        <time>2019-06-15T17:27:50Z</time>
      </trkpt>
      <trkpt lat="43.339586" lon="-2.465073">
        <ele>53.026</ele>
        <time>2019-06-15T17:27:51Z</time>
      </trkpt>
      <trkpt lat="43.339690" lon="-2.465123">
        <ele>52.585</ele>
        <time>2019-06-15T17:27:52Z</time>
      </trkpt>
      <trkpt lat="43.339799" lon="-2.465182">
        <ele>52.076</ele>
        <time>2019-06-15T17:27:53Z</time>
      </trkpt>
      <trkpt lat="43.339915" lon="-2.465244">
        <ele>50.735</ele>
        <time>2019-06-15T17:27:54Z</time>
      </trkpt>
      <trkpt lat="43.339996" lon="-2.465325">
        <ele>51.059</ele>
        <time>2019-06-15T17:27:55Z</time>
      </trkpt>
      <trkpt lat="43.340158" lon="-2.465403">
        <ele>50.246</ele>
        <time>2019-06-15T17:27:56Z</time>
      </trkpt>
      <trkpt lat="43.340330" lon="-2.465474">
        <ele>49.088</ele>
        <time>2019-06-15T17:27:57Z</time>
      </trkpt>
      <trkpt lat="43.340498" lon="-2.465602">
        <ele>49.616</ele>
        <time>2019-06-15T17:27:58Z</time>
      </trkpt>
      <trkpt lat="43.340639" lon="-2.465694">
        <ele>49.408</ele>
        <time>2019-06-15T17:27:59Z</time>
      </trkpt>
      <trkpt lat="43.340812" lon="-2.465766">
        <ele>47.037</ele>
        <time>2019-06-15T17:28:00Z</time>
      </trkpt>
      <trkpt lat="43.340945" lon="-2.465856">
        <ele>46.861</ele>
        <time>2019-06-15T17:28:01Z</time>
      </trkpt>
      <trkpt lat="43.341084" lon="-2.465926">
        <ele>45.880</ele>
        <time>2019-06-15T17:28:02Z</time>
      </trkpt>
      <trkpt lat="43.341205" lon="-2.465996">
        <ele>45.169</ele>
        <time>2019-06-15T17:28:03Z</time>
      </trkpt>
      <trkpt lat="43.341341" lon="-2.466078">
        <ele>44.278</ele>
        <time>2019-06-15T17:28:04Z</time>
      </trkpt>
      <trkpt lat="43.341425" lon="-2.466158">
        <ele>44.539</ele>
        <time>2019-06-15T17:28:05Z</time>
      </trkpt>
      <trkpt lat="43.341550" lon="-2.466247">
        <ele>43.028</ele>
        <time>2019-06-15T17:28:06Z</time>
      </trkpt>
      <trkpt lat="43.341683" lon="-2.466335">
        <ele>40.662</ele>
        <time>2019-06-15T17:28:07Z</time>
      </trkpt>
      <trkpt lat="43.341811" lon="-2.466432">
        <ele>39.093</ele>
        <time>2019-06-15T17:28:08Z</time>
      </trkpt>
      <trkpt lat="43.341887" lon="-2.466521">
        <ele>38.965</ele>
        <time>2019-06-15T17:28:09Z</time>
      </trkpt>
      <trkpt lat="43.342005" lon="-2.466644">
        <ele>37.921</ele>
        <time>2019-06-15T17:28:10Z</time>
      </trkpt>
      <trkpt lat="43.342038" lon="-2.466771">
        <ele>38.208</ele>
        <time>2019-06-15T17:28:11Z</time>
      </trkpt>
      <trkpt lat="43.342101" lon="-2.466881">
        <ele>37.862</ele>
        <time>2019-06-15T17:28:12Z</time>
      </trkpt>
      <trkpt lat="43.342154" lon="-2.466977">
        <ele>38.256</ele>
        <time>2019-06-15T17:28:13Z</time>
      </trkpt>
      <trkpt lat="43.342185" lon="-2.467067">
        <ele>38.365</ele>
        <time>2019-06-15T17:28:14Z</time>
      </trkpt>
      <trkpt lat="43.342235" lon="-2.467166">
        <ele>37.244</ele>
        <time>2019-06-15T17:28:15Z</time>
      </trkpt>
      <trkpt lat="43.342277" lon="-2.467286">
        <ele>34.883</ele>
        <time>2019-06-15T17:28:16Z</time>
      </trkpt>
      <trkpt lat="43.342287" lon="-2.467422">
        <ele>33.944</ele>
        <time>2019-06-15T17:28:17Z</time>
      </trkpt>
      <trkpt lat="43.342258" lon="-2.467556">
        <ele>34.553</ele>
        <time>2019-06-15T17:28:18Z</time>
      </trkpt>
      <trkpt lat="43.342179" lon="-2.467630">
        <ele>37.297</ele>
        <time>2019-06-15T17:28:19Z</time>
      </trkpt>
      <trkpt lat="43.342170" lon="-2.467726">
        <ele>37.376</ele>
        <time>2019-06-15T17:28:20Z</time>
      </trkpt>
      <trkpt lat="43.342177" lon="-2.467803">
        <ele>37.490</ele>
        <time>2019-06-15T17:28:21Z</time>
      </trkpt>
      <trkpt lat="43.342204" lon="-2.467868">
        <ele>38.419</ele>
        <time>2019-06-15T17:28:22Z</time>
      </trkpt>
      <trkpt lat="43.342219" lon="-2.467929">
        <ele>40.008</ele>
        <time>2019-06-15T17:28:23Z</time>
      </trkpt>
      <trkpt lat="43.342270" lon="-2.467955">
        <ele>42.030</ele>
        <time>2019-06-15T17:28:24Z</time>
      </trkpt>
      <trkpt lat="43.342364" lon="-2.467893">
        <ele>42.184</ele>
        <time>2019-06-15T17:28:26Z</time>
      </trkpt>
      <trkpt lat="43.342489" lon="-2.467827">
        <ele>42.123</ele>
        <time>2019-06-15T17:28:27Z</time>
      </trkpt>
      <trkpt lat="43.342698" lon="-2.467712">
        <ele>41.512</ele>
        <time>2019-06-15T17:28:28Z</time>
      </trkpt>
      <trkpt lat="43.342770" lon="-2.467664">
        <ele>41.541</ele>
        <time>2019-06-15T17:28:29Z</time>
      </trkpt>
      <trkpt lat="43.342883" lon="-2.467636">
        <ele>39.612</ele>
        <time>2019-06-15T17:28:30Z</time>
      </trkpt>
      <trkpt lat="43.343001" lon="-2.467638">
        <ele>38.281</ele>
        <time>2019-06-15T17:28:31Z</time>
      </trkpt>
      <trkpt lat="43.343125" lon="-2.467699">
        <ele>37.865</ele>
        <time>2019-06-15T17:28:32Z</time>
      </trkpt>
      <trkpt lat="43.343164" lon="-2.467777">
        <ele>38.853</ele>
        <time>2019-06-15T17:28:33Z</time>
      </trkpt>
      <trkpt lat="43.343271" lon="-2.467844">
        <ele>39.504</ele>
        <time>2019-06-15T17:28:34Z</time>
      </trkpt>
      <trkpt lat="43.343407" lon="-2.467915">
        <ele>39.614</ele>
        <time>2019-06-15T17:28:35Z</time>
      </trkpt>
      <trkpt lat="43.343530" lon="-2.468019">
        <ele>39.908</ele>
        <time>2019-06-15T17:28:36Z</time>
      </trkpt>
      <trkpt lat="43.343689" lon="-2.468135">
        <ele>40.028</ele>
        <time>2019-06-15T17:28:37Z</time>
      </trkpt>
      <trkpt lat="43.343829" lon="-2.468243">
        <ele>40.182</ele>
        <time>2019-06-15T17:28:38Z</time>
      </trkpt>
      <trkpt lat="43.343969" lon="-2.468366">
        <ele>40.431</ele>
        <time>2019-06-15T17:28:39Z</time>
      </trkpt>
      <trkpt lat="43.344103" lon="-2.468465">
        <ele>40.570</ele>
        <time>2019-06-15T17:28:40Z</time>
      </trkpt>
      <trkpt lat="43.344232" lon="-2.468549">
        <ele>40.439</ele>
        <time>2019-06-15T17:28:41Z</time>
      </trkpt>
      <trkpt lat="43.344344" lon="-2.468645">
        <ele>41.170</ele>
        <time>2019-06-15T17:28:42Z</time>
      </trkpt>
      <trkpt lat="43.344462" lon="-2.468734">
        <ele>40.989</ele>
        <time>2019-06-15T17:28:43Z</time>
      </trkpt>
      <trkpt lat="43.344578" lon="-2.468815">
        <ele>40.593</ele>
        <time>2019-06-15T17:28:44Z</time>
      </trkpt>
      <trkpt lat="43.344624" lon="-2.468912">
        <ele>41.259</ele>
        <time>2019-06-15T17:28:45Z</time>
      </trkpt>
      <trkpt lat="43.344647" lon="-2.469020">
        <ele>39.703</ele>
        <time>2019-06-15T17:28:46Z</time>
      </trkpt>
      <trkpt lat="43.344652" lon="-2.469130">
        <ele>38.423</ele>
        <time>2019-06-15T17:28:47Z</time>
      </trkpt>
      <trkpt lat="43.344617" lon="-2.469232">
        <ele>38.408</ele>
        <time>2019-06-15T17:28:48Z</time>
      </trkpt>
      <trkpt lat="43.344567" lon="-2.469329">
        <ele>38.688</ele>
        <time>2019-06-15T17:28:49Z</time>
      </trkpt>
      <trkpt lat="43.344519" lon="-2.469437">
        <ele>38.532</ele>
        <time>2019-06-15T17:28:50Z</time>
      </trkpt>
      <trkpt lat="43.344492" lon="-2.469545">
        <ele>39.511</ele>
        <time>2019-06-15T17:28:51Z</time>
      </trkpt>
      <trkpt lat="43.344497" lon="-2.469649">
        <ele>40.070</ele>
        <time>2019-06-15T17:28:52Z</time>
      </trkpt>
      <trkpt lat="43.344524" lon="-2.469734">
        <ele>40.879</ele>
        <time>2019-06-15T17:28:53Z</time>
      </trkpt>
      <trkpt lat="43.344587" lon="-2.469773">
        <ele>42.210</ele>
        <time>2019-06-15T17:28:54Z</time>
      </trkpt>
      <trkpt lat="43.344672" lon="-2.469785">
        <ele>43.289</ele>
        <time>2019-06-15T17:28:55Z</time>
      </trkpt>
      <trkpt lat="43.344753" lon="-2.469797">
        <ele>44.113</ele>
        <time>2019-06-15T17:28:56Z</time>
      </trkpt>
      <trkpt lat="43.344845" lon="-2.469756">
        <ele>44.018</ele>
        <time>2019-06-15T17:28:57Z</time>
      </trkpt>
      <trkpt lat="43.344962" lon="-2.469702">
        <ele>44.198</ele>
        <time>2019-06-15T17:28:58Z</time>
      </trkpt>
      <trkpt lat="43.345067" lon="-2.469680">
        <ele>43.517</ele>
        <time>2019-06-15T17:28:59Z</time>
      </trkpt>
      <trkpt lat="43.345160" lon="-2.469686">
        <ele>43.108</ele>
        <time>2019-06-15T17:29:00Z</time>
      </trkpt>
      <trkpt lat="43.345265" lon="-2.469729">
        <ele>43.154</ele>
        <time>2019-06-15T17:29:01Z</time>
      </trkpt>
      <trkpt lat="43.345341" lon="-2.469824">
        <ele>42.418</ele>
        <time>2019-06-15T17:29:02Z</time>
      </trkpt>
      <trkpt lat="43.345392" lon="-2.469951">
        <ele>41.927</ele>
        <time>2019-06-15T17:29:03Z</time>
      </trkpt>
      <trkpt lat="43.345431" lon="-2.470094">
        <ele>41.726</ele>
        <time>2019-06-15T17:29:04Z</time>
      </trkpt>
      <trkpt lat="43.345465" lon="-2.470225">
        <ele>41.995</ele>
        <time>2019-06-15T17:29:05Z</time>
      </trkpt>
      <trkpt lat="43.345519" lon="-2.470340">
        <ele>42.846</ele>
        <time>2019-06-15T17:29:06Z</time>
      </trkpt>
      <trkpt lat="43.345589" lon="-2.470425">
        <ele>44.015</ele>
        <time>2019-06-15T17:29:07Z</time>
      </trkpt>
      <trkpt lat="43.345705" lon="-2.470478">
        <ele>44.459</ele>
        <time>2019-06-15T17:29:08Z</time>
      </trkpt>
      <trkpt lat="43.345814" lon="-2.470511">
        <ele>44.362</ele>
        <time>2019-06-15T17:29:09Z</time>
      </trkpt>
      <trkpt lat="43.345921" lon="-2.470544">
        <ele>44.583</ele>
        <time>2019-06-15T17:29:10Z</time>
      </trkpt>
      <trkpt lat="43.346005" lon="-2.470599">
        <ele>44.711</ele>
        <time>2019-06-15T17:29:11Z</time>
      </trkpt>
      <trkpt lat="43.346076" lon="-2.470687">
        <ele>44.708</ele>
        <time>2019-06-15T17:29:12Z</time>
      </trkpt>
      <trkpt lat="43.346140" lon="-2.470777">
        <ele>44.589</ele>
        <time>2019-06-15T17:29:13Z</time>
      </trkpt>
      <trkpt lat="43.346181" lon="-2.470901">
        <ele>44.483</ele>
        <time>2019-06-15T17:29:14Z</time>
      </trkpt>
      <trkpt lat="43.346249" lon="-2.471039">
        <ele>43.572</ele>
        <time>2019-06-15T17:29:15Z</time>
      </trkpt>
      <trkpt lat="43.346293" lon="-2.471226">
        <ele>41.861</ele>
        <time>2019-06-15T17:29:16Z</time>
      </trkpt>
      <trkpt lat="43.346281" lon="-2.471379">
        <ele>40.840</ele>
        <time>2019-06-15T17:29:17Z</time>
      </trkpt>
      <trkpt lat="43.346311" lon="-2.471536">
        <ele>41.831</ele>
        <time>2019-06-15T17:29:18Z</time>
      </trkpt>
      <trkpt lat="43.346368" lon="-2.471685">
        <ele>42.790</ele>
        <time>2019-06-15T17:29:19Z</time>
      </trkpt>
      <trkpt lat="43.346450" lon="-2.471828">
        <ele>44.034</ele>
        <time>2019-06-15T17:29:20Z</time>
      </trkpt>
      <trkpt lat="43.346548" lon="-2.471968">
        <ele>45.075</ele>
        <time>2019-06-15T17:29:21Z</time>
      </trkpt>
      <trkpt lat="43.346674" lon="-2.472100">
        <ele>44.528</ele>
        <time>2019-06-15T17:29:22Z</time>
      </trkpt>
      <trkpt lat="43.346765" lon="-2.472224">
        <ele>43.520</ele>
        <time>2019-06-15T17:29:23Z</time>
      </trkpt>
      <trkpt lat="43.346838" lon="-2.472365">
        <ele>42.408</ele>
        <time>2019-06-15T17:29:24Z</time>
      </trkpt>
      <trkpt lat="43.346891" lon="-2.472500">
        <ele>41.580</ele>
        <time>2019-06-15T17:29:25Z</time>
      </trkpt>
      <trkpt lat="43.346957" lon="-2.472630">
        <ele>42.244</ele>
        <time>2019-06-15T17:29:26Z</time>
      </trkpt>
      <trkpt lat="43.347021" lon="-2.472741">
        <ele>41.723</ele>
        <time>2019-06-15T17:29:27Z</time>
      </trkpt>
      <trkpt lat="43.347088" lon="-2.472849">
        <ele>40.042</ele>
        <time>2019-06-15T17:29:28Z</time>
      </trkpt>
      <trkpt lat="43.347117" lon="-2.472962">
        <ele>39.611</ele>
        <time>2019-06-15T17:29:29Z</time>
      </trkpt>
      <trkpt lat="43.347136" lon="-2.473104">
        <ele>39.322</ele>
        <time>2019-06-15T17:29:30Z</time>
      </trkpt>
      <trkpt lat="43.347127" lon="-2.473254">
        <ele>39.861</ele>
        <time>2019-06-15T17:29:31Z</time>
      </trkpt>
      <trkpt lat="43.347112" lon="-2.473418">
        <ele>40.435</ele>
        <time>2019-06-15T17:29:32Z</time>
      </trkpt>
      <trkpt lat="43.347086" lon="-2.473583">
        <ele>41.041</ele>
        <time>2019-06-15T17:29:33Z</time>
      </trkpt>
      <trkpt lat="43.347058" lon="-2.473734">
        <ele>41.981</ele>
        <time>2019-06-15T17:29:34Z</time>
      </trkpt>
      <trkpt lat="43.347027" lon="-2.473862">
        <ele>42.009</ele>
        <time>2019-06-15T17:29:35Z</time>
      </trkpt>
      <trkpt lat="43.346979" lon="-2.473987">
        <ele>41.808</ele>
        <time>2019-06-15T17:29:36Z</time>
      </trkpt>
      <trkpt lat="43.346921" lon="-2.474073">
        <ele>42.287</ele>
        <time>2019-06-15T17:29:37Z</time>
      </trkpt>
      <trkpt lat="43.346858" lon="-2.474163">
        <ele>43.841</ele>
        <time>2019-06-15T17:29:38Z</time>
      </trkpt>
      <trkpt lat="43.346808" lon="-2.474255">
        <ele>45.120</ele>
        <time>2019-06-15T17:29:39Z</time>
      </trkpt>
      <trkpt lat="43.346787" lon="-2.474350">
        <ele>44.769</ele>
        <time>2019-06-15T17:29:40Z</time>
      </trkpt>
      <trkpt lat="43.346789" lon="-2.474447">
        <ele>43.698</ele>
        <time>2019-06-15T17:29:41Z</time>
      </trkpt>
      <trkpt lat="43.346795" lon="-2.474557">
        <ele>46.199</ele>
        <time>2019-06-15T17:29:42Z</time>
      </trkpt>
      <trkpt lat="43.346788" lon="-2.474641">
        <ele>47.938</ele>
        <time>2019-06-15T17:29:43Z</time>
      </trkpt>
      <trkpt lat="43.346839" lon="-2.474693">
        <ele>49.742</ele>
        <time>2019-06-15T17:29:44Z</time>
      </trkpt>
      <trkpt lat="43.346881" lon="-2.474729">
        <ele>51.411</ele>
        <time>2019-06-15T17:29:45Z</time>
      </trkpt>
      <trkpt lat="43.346955" lon="-2.474721">
        <ele>52.121</ele>
        <time>2019-06-15T17:29:46Z</time>
      </trkpt>
      <trkpt lat="43.347071" lon="-2.474641">
        <ele>51.103</ele>
        <time>2019-06-15T17:29:47Z</time>
      </trkpt>
      <trkpt lat="43.347216" lon="-2.474533">
        <ele>50.808</ele>
        <time>2019-06-15T17:29:48Z</time>
      </trkpt>
      <trkpt lat="43.347346" lon="-2.474493">
        <ele>56.384</ele>
        <time>2019-06-15T17:29:49Z</time>
      </trkpt>
      <trkpt lat="43.347433" lon="-2.474336">
        <ele>59.448</ele>
        <time>2019-06-15T17:29:50Z</time>
      </trkpt>
      <trkpt lat="43.347514" lon="-2.474237">
        <ele>62.827</ele>
        <time>2019-06-15T17:29:51Z</time>
      </trkpt>
      <trkpt lat="43.347570" lon="-2.474056">
        <ele>60.466</ele>
        <time>2019-06-15T17:29:52Z</time>
      </trkpt>
      <trkpt lat="43.347620" lon="-2.473913">
        <ele>57.795</ele>
        <time>2019-06-15T17:29:53Z</time>
      </trkpt>
      <trkpt lat="43.347672" lon="-2.473758">
        <ele>54.976</ele>
        <time>2019-06-15T17:29:54Z</time>
      </trkpt>
      <trkpt lat="43.347731" lon="-2.473626">
        <ele>53.095</ele>
        <time>2019-06-15T17:29:55Z</time>
      </trkpt>
      <trkpt lat="43.347810" lon="-2.473517">
        <ele>51.979</ele>
        <time>2019-06-15T17:29:56Z</time>
      </trkpt>
      <trkpt lat="43.347877" lon="-2.473497">
        <ele>51.356</ele>
        <time>2019-06-15T17:29:57Z</time>
      </trkpt>
      <trkpt lat="43.347968" lon="-2.473502">
        <ele>51.259</ele>
        <time>2019-06-15T17:29:58Z</time>
      </trkpt>
      <trkpt lat="43.348068" lon="-2.473505">
        <ele>51.214</ele>
        <time>2019-06-15T17:29:59Z</time>
      </trkpt>
      <trkpt lat="43.348185" lon="-2.473488">
        <ele>51.908</ele>
        <time>2019-06-15T17:30:00Z</time>
      </trkpt>
      <trkpt lat="43.348297" lon="-2.473457">
        <ele>52.478</ele>
        <time>2019-06-15T17:30:01Z</time>
      </trkpt>
      <trkpt lat="43.348425" lon="-2.473446">
        <ele>52.682</ele>
        <time>2019-06-15T17:30:02Z</time>
      </trkpt>
      <trkpt lat="43.348556" lon="-2.473466">
        <ele>52.941</ele>
        <time>2019-06-15T17:30:03Z</time>
      </trkpt>
      <trkpt lat="43.348703" lon="-2.473490">
        <ele>53.490</ele>
        <time>2019-06-15T17:30:04Z</time>
      </trkpt>
      <trkpt lat="43.348858" lon="-2.473514">
        <ele>54.249</ele>
        <time>2019-06-15T17:30:05Z</time>
      </trkpt>
      <trkpt lat="43.349030" lon="-2.473537">
        <ele>55.770</ele>
        <time>2019-06-15T17:30:06Z</time>
      </trkpt>
      <trkpt lat="43.349208" lon="-2.473552">
        <ele>56.949</ele>
        <time>2019-06-15T17:30:07Z</time>
      </trkpt>
      <trkpt lat="43.349380" lon="-2.473571">
        <ele>57.333</ele>
        <time>2019-06-15T17:30:08Z</time>
      </trkpt>
      <trkpt lat="43.349547" lon="-2.473594">
        <ele>57.721</ele>
        <time>2019-06-15T17:30:09Z</time>
      </trkpt>
      <trkpt lat="43.349713" lon="-2.473626">
        <ele>58.441</ele>
        <time>2019-06-15T17:30:10Z</time>
      </trkpt>
      <trkpt lat="43.349881" lon="-2.473646">
        <ele>59.105</ele>
        <time>2019-06-15T17:30:11Z</time>
      </trkpt>
      <trkpt lat="43.349986" lon="-2.473622">
        <ele>58.408</ele>
        <time>2019-06-15T17:30:12Z</time>
      </trkpt>
      <trkpt lat="43.350085" lon="-2.473647">
        <ele>56.595</ele>
        <time>2019-06-15T17:30:13Z</time>
      </trkpt>
      <trkpt lat="43.350172" lon="-2.473703">
        <ele>54.829</ele>
        <time>2019-06-15T17:30:14Z</time>
      </trkpt>
      <trkpt lat="43.350242" lon="-2.473773">
        <ele>53.248</ele>
        <time>2019-06-15T17:30:15Z</time>
      </trkpt>
      <trkpt lat="43.350276" lon="-2.473863">
        <ele>52.887</ele>
        <time>2019-06-15T17:30:16Z</time>
      </trkpt>
      <trkpt lat="43.350297" lon="-2.473992">
        <ele>51.786</ele>
        <time>2019-06-15T17:30:17Z</time>
      </trkpt>
      <trkpt lat="43.350267" lon="-2.474103">
        <ele>55.367</ele>
        <time>2019-06-15T17:30:18Z</time>
      </trkpt>
      <trkpt lat="43.350269" lon="-2.474245">
        <ele>54.066</ele>
        <time>2019-06-15T17:30:19Z</time>
      </trkpt>
      <trkpt lat="43.350246" lon="-2.474443">
        <ele>52.590</ele>
        <time>2019-06-15T17:30:20Z</time>
      </trkpt>
      <trkpt lat="43.350228" lon="-2.474615">
        <ele>54.561</ele>
        <time>2019-06-15T17:30:21Z</time>
      </trkpt>
      <trkpt lat="43.350214" lon="-2.474802">
        <ele>56.121</ele>
        <time>2019-06-15T17:30:22Z</time>
      </trkpt>
      <trkpt lat="43.350234" lon="-2.474991">
        <ele>53.513</ele>
        <time>2019-06-15T17:30:23Z</time>
      </trkpt>
      <trkpt lat="43.350253" lon="-2.475160">
        <ele>55.808</ele>
        <time>2019-06-15T17:30:24Z</time>
      </trkpt>
      <trkpt lat="43.350269" lon="-2.475320">
        <ele>58.639</ele>
        <time>2019-06-15T17:30:25Z</time>
      </trkpt>
      <trkpt lat="43.350304" lon="-2.475461">
        <ele>58.643</ele>
        <time>2019-06-15T17:30:26Z</time>
      </trkpt>
      <trkpt lat="43.350317" lon="-2.475609">
        <ele>58.812</ele>
        <time>2019-06-15T17:30:27Z</time>
      </trkpt>
      <trkpt lat="43.350310" lon="-2.475775">
        <ele>56.911</ele>
        <time>2019-06-15T17:30:28Z</time>
      </trkpt>
      <trkpt lat="43.350278" lon="-2.475943">
        <ele>56.470</ele>
        <time>2019-06-15T17:30:29Z</time>
      </trkpt>
      <trkpt lat="43.350248" lon="-2.476117">
        <ele>55.811</ele>
        <time>2019-06-15T17:30:30Z</time>
      </trkpt>
      <trkpt lat="43.350207" lon="-2.476276">
        <ele>55.220</ele>
        <time>2019-06-15T17:30:31Z</time>
      </trkpt>
      <trkpt lat="43.350151" lon="-2.476423">
        <ele>55.984</ele>
        <time>2019-06-15T17:30:32Z</time>
      </trkpt>
      <trkpt lat="43.350107" lon="-2.476568">
        <ele>55.845</ele>
        <time>2019-06-15T17:30:33Z</time>
      </trkpt>
      <trkpt lat="43.350065" lon="-2.476705">
        <ele>55.947</ele>
        <time>2019-06-15T17:30:34Z</time>
      </trkpt>
      <trkpt lat="43.350025" lon="-2.476808">
        <ele>56.811</ele>
        <time>2019-06-15T17:30:35Z</time>
      </trkpt>
      <trkpt lat="43.349960" lon="-2.476909">
        <ele>58.808</ele>
        <time>2019-06-15T17:30:36Z</time>
      </trkpt>
      <trkpt lat="43.349912" lon="-2.477020">
        <ele>57.867</ele>
        <time>2019-06-15T17:30:37Z</time>
      </trkpt>
      <trkpt lat="43.349812" lon="-2.477099">
        <ele>59.741</ele>
        <time>2019-06-15T17:30:38Z</time>
      </trkpt>
      <trkpt lat="43.349741" lon="-2.477196">
        <ele>59.210</ele>
        <time>2019-06-15T17:30:39Z</time>
      </trkpt>
      <trkpt lat="43.349660" lon="-2.477274">
        <ele>58.859</ele>
        <time>2019-06-15T17:30:40Z</time>
      </trkpt>
      <trkpt lat="43.349542" lon="-2.477356">
        <ele>59.168</ele>
        <time>2019-06-15T17:30:41Z</time>
      </trkpt>
      <trkpt lat="43.349433" lon="-2.477438">
        <ele>58.859</ele>
        <time>2019-06-15T17:30:42Z</time>
      </trkpt>
      <trkpt lat="43.349302" lon="-2.477487">
        <ele>58.228</ele>
        <time>2019-06-15T17:30:43Z</time>
      </trkpt>
      <trkpt lat="43.349150" lon="-2.477535">
        <ele>57.822</ele>
        <time>2019-06-15T17:30:44Z</time>
      </trkpt>
      <trkpt lat="43.349001" lon="-2.477572">
        <ele>57.064</ele>
        <time>2019-06-15T17:30:45Z</time>
      </trkpt>
      <trkpt lat="43.348906" lon="-2.477599">
        <ele>56.806</ele>
        <time>2019-06-15T17:30:46Z</time>
      </trkpt>
      <trkpt lat="43.348834" lon="-2.477574">
        <ele>57.616</ele>
        <time>2019-06-15T17:30:47Z</time>
      </trkpt>
      <trkpt lat="43.348725" lon="-2.477586">
        <ele>57.908</ele>
        <time>2019-06-15T17:30:48Z</time>
      </trkpt>
      <trkpt lat="43.348648" lon="-2.477600">
        <ele>58.199</ele>
        <time>2019-06-15T17:30:49Z</time>
      </trkpt>
      <trkpt lat="43.348583" lon="-2.477598">
        <ele>58.853</ele>
        <time>2019-06-15T17:30:50Z</time>
      </trkpt>
      <trkpt lat="43.348507" lon="-2.477622">
        <ele>60.572</ele>
        <time>2019-06-15T17:30:51Z</time>
      </trkpt>
      <trkpt lat="43.348441" lon="-2.477668">
        <ele>62.841</ele>
        <time>2019-06-15T17:30:52Z</time>
      </trkpt>
      <trkpt lat="43.348407" lon="-2.477753">
        <ele>65.920</ele>
        <time>2019-06-15T17:30:53Z</time>
      </trkpt>
      <trkpt lat="43.348372" lon="-2.477833">
        <ele>70.591</ele>
        <time>2019-06-15T17:30:54Z</time>
      </trkpt>
      <trkpt lat="43.348373" lon="-2.477976">
        <ele>76.330</ele>
        <time>2019-06-15T17:30:55Z</time>
      </trkpt>
      <trkpt lat="43.348446" lon="-2.478062">
        <ele>77.294</ele>
        <time>2019-06-15T17:30:56Z</time>
      </trkpt>
      <trkpt lat="43.348579" lon="-2.478018">
        <ele>70.339</ele>
        <time>2019-06-15T17:30:57Z</time>
      </trkpt>
      <trkpt lat="43.348705" lon="-2.478065">
        <ele>69.801</ele>
        <time>2019-06-15T17:30:58Z</time>
      </trkpt>
      <trkpt lat="43.349027" lon="-2.478119">
        <ele>66.121</ele>
        <time>2019-06-15T17:30:59Z</time>
      </trkpt>
      <trkpt lat="43.349188" lon="-2.478156">
        <ele>64.408</ele>
        <time>2019-06-15T17:31:00Z</time>
      </trkpt>
      <trkpt lat="43.349341" lon="-2.478171">
        <ele>63.316</ele>
        <time>2019-06-15T17:31:01Z</time>
      </trkpt>
      <trkpt lat="43.349455" lon="-2.478213">
        <ele>63.420</ele>
        <time>2019-06-15T17:31:02Z</time>
      </trkpt>
      <trkpt lat="43.349578" lon="-2.478248">
        <ele>62.029</ele>
        <time>2019-06-15T17:31:03Z</time>
      </trkpt>
      <trkpt lat="43.349691" lon="-2.478299">
        <ele>61.458</ele>
        <time>2019-06-15T17:31:04Z</time>
      </trkpt>
      <trkpt lat="43.349767" lon="-2.478385">
        <ele>63.947</ele>
        <time>2019-06-15T17:31:05Z</time>
      </trkpt>
      <trkpt lat="43.349840" lon="-2.478484">
        <ele>66.898</ele>
        <time>2019-06-15T17:31:06Z</time>
      </trkpt>
      <trkpt lat="43.349930" lon="-2.478578">
        <ele>68.897</ele>
        <time>2019-06-15T17:31:07Z</time>
      </trkpt>
      <trkpt lat="43.349995" lon="-2.478656">
        <ele>69.791</ele>
        <time>2019-06-15T17:31:08Z</time>
      </trkpt>
      <trkpt lat="43.350050" lon="-2.478730">
        <ele>72.173</ele>
        <time>2019-06-15T17:31:09Z</time>
      </trkpt>
      <trkpt lat="43.350129" lon="-2.478629">
        <ele>72.685</ele>
        <time>2019-06-15T17:31:12Z</time>
      </trkpt>
      <trkpt lat="43.350242" lon="-2.478517">
        <ele>73.113</ele>
        <time>2019-06-15T17:31:13Z</time>
      </trkpt>
      <trkpt lat="43.350356" lon="-2.478434">
        <ele>72.208</ele>
        <time>2019-06-15T17:31:14Z</time>
      </trkpt>
      <trkpt lat="43.350451" lon="-2.478393">
        <ele>71.110</ele>
        <time>2019-06-15T17:31:15Z</time>
      </trkpt>
      <trkpt lat="43.350547" lon="-2.478402">
        <ele>71.274</ele>
        <time>2019-06-15T17:31:16Z</time>
      </trkpt>
      <trkpt lat="43.350642" lon="-2.478439">
        <ele>73.073</ele>
        <time>2019-06-15T17:31:17Z</time>
      </trkpt>
      <trkpt lat="43.350732" lon="-2.478471">
        <ele>74.442</ele>
        <time>2019-06-15T17:31:18Z</time>
      </trkpt>
      <trkpt lat="43.350780" lon="-2.478393">
        <ele>72.891</ele>
        <time>2019-06-15T17:31:19Z</time>
      </trkpt>
      <trkpt lat="43.350841" lon="-2.478343">
        <ele>72.662</ele>
        <time>2019-06-15T17:31:20Z</time>
      </trkpt>
      <trkpt lat="43.350891" lon="-2.478260">
        <ele>75.331</ele>
        <time>2019-06-15T17:31:21Z</time>
      </trkpt>
      <trkpt lat="43.350843" lon="-2.478006">
        <ele>74.735</ele>
        <time>2019-06-15T17:31:23Z</time>
      </trkpt>
      <trkpt lat="43.350856" lon="-2.477849">
        <ele>75.895</ele>
        <time>2019-06-15T17:31:24Z</time>
      </trkpt>
      <trkpt lat="43.350866" lon="-2.477689">
        <ele>76.049</ele>
        <time>2019-06-15T17:31:25Z</time>
      </trkpt>
      <trkpt lat="43.350944" lon="-2.477533">
        <ele>78.223</ele>
        <time>2019-06-15T17:31:26Z</time>
      </trkpt>
      <trkpt lat="43.350998" lon="-2.477406">
        <ele>78.008</ele>
        <time>2019-06-15T17:31:27Z</time>
      </trkpt>
      <trkpt lat="43.351056" lon="-2.477261">
        <ele>77.062</ele>
        <time>2019-06-15T17:31:28Z</time>
      </trkpt>
      <trkpt lat="43.351097" lon="-2.477170">
        <ele>76.426</ele>
        <time>2019-06-15T17:31:29Z</time>
      </trkpt>
      <trkpt lat="43.351162" lon="-2.477157">
        <ele>75.395</ele>
        <time>2019-06-15T17:31:30Z</time>
      </trkpt>
      <trkpt lat="43.351217" lon="-2.477133">
        <ele>73.264</ele>
        <time>2019-06-15T17:31:31Z</time>
      </trkpt>
      <trkpt lat="43.351307" lon="-2.477218">
        <ele>73.683</ele>
        <time>2019-06-15T17:31:32Z</time>
      </trkpt>
      <trkpt lat="43.351366" lon="-2.477336">
        <ele>75.374</ele>
        <time>2019-06-15T17:31:33Z</time>
      </trkpt>
      <trkpt lat="43.351438" lon="-2.477462">
        <ele>77.453</ele>
        <time>2019-06-15T17:31:34Z</time>
      </trkpt>
      <trkpt lat="43.351502" lon="-2.477568">
        <ele>79.737</ele>
        <time>2019-06-15T17:31:35Z</time>
      </trkpt>
      <trkpt lat="43.351583" lon="-2.477641">
        <ele>80.295</ele>
        <time>2019-06-15T17:31:36Z</time>
      </trkpt>
      <trkpt lat="43.351667" lon="-2.477681">
        <ele>78.949</ele>
        <time>2019-06-15T17:31:37Z</time>
      </trkpt>
      <trkpt lat="43.351749" lon="-2.477722">
        <ele>79.923</ele>
        <time>2019-06-15T17:31:38Z</time>
      </trkpt>
      <trkpt lat="43.351879" lon="-2.477745">
        <ele>80.408</ele>
        <time>2019-06-15T17:31:39Z</time>
      </trkpt>
      <trkpt lat="43.352080" lon="-2.477816">
        <ele>78.862</ele>
        <time>2019-06-15T17:31:40Z</time>
      </trkpt>
      <trkpt lat="43.352205" lon="-2.477885">
        <ele>78.276</ele>
        <time>2019-06-15T17:31:41Z</time>
      </trkpt>
      <trkpt lat="43.352320" lon="-2.477945">
        <ele>76.475</ele>
        <time>2019-06-15T17:31:42Z</time>
      </trkpt>
      <trkpt lat="43.352388" lon="-2.478056">
        <ele>81.074</ele>
        <time>2019-06-15T17:31:43Z</time>
      </trkpt>
      <trkpt lat="43.352476" lon="-2.478150">
        <ele>83.273</ele>
        <time>2019-06-15T17:31:44Z</time>
      </trkpt>
      <trkpt lat="43.352580" lon="-2.478181">
        <ele>81.624</ele>
        <time>2019-06-15T17:31:45Z</time>
      </trkpt>
      <trkpt lat="43.352670" lon="-2.478229">
        <ele>80.443</ele>
        <time>2019-06-15T17:31:46Z</time>
      </trkpt>
      <trkpt lat="43.352749" lon="-2.478300">
        <ele>80.047</ele>
        <time>2019-06-15T17:31:47Z</time>
      </trkpt>
      <trkpt lat="43.352820" lon="-2.478422">
        <ele>80.141</ele>
        <time>2019-06-15T17:31:48Z</time>
      </trkpt>
      <trkpt lat="43.352898" lon="-2.478532">
        <ele>79.181</ele>
        <time>2019-06-15T17:31:49Z</time>
      </trkpt>
      <trkpt lat="43.352944" lon="-2.478671">
        <ele>80.409</ele>
        <time>2019-06-15T17:31:50Z</time>
      </trkpt>
      <trkpt lat="43.353006" lon="-2.478831">
        <ele>81.808</ele>
        <time>2019-06-15T17:31:51Z</time>
      </trkpt>
      <trkpt lat="43.353072" lon="-2.478978">
        <ele>82.337</ele>
        <time>2019-06-15T17:31:52Z</time>
      </trkpt>
      <trkpt lat="43.353135" lon="-2.479118">
        <ele>83.121</ele>
        <time>2019-06-15T17:31:53Z</time>
      </trkpt>
      <trkpt lat="43.353231" lon="-2.479230">
        <ele>82.180</ele>
        <time>2019-06-15T17:31:54Z</time>
      </trkpt>
      <trkpt lat="43.353306" lon="-2.479337">
        <ele>82.249</ele>
        <time>2019-06-15T17:31:55Z</time>
      </trkpt>
      <trkpt lat="43.353386" lon="-2.479425">
        <ele>83.118</ele>
        <time>2019-06-15T17:31:56Z</time>
      </trkpt>
      <trkpt lat="43.353475" lon="-2.479498">
        <ele>84.759</ele>
        <time>2019-06-15T17:31:57Z</time>
      </trkpt>
      <trkpt lat="43.353554" lon="-2.479565">
        <ele>86.628</ele>
        <time>2019-06-15T17:31:58Z</time>
      </trkpt>
      <trkpt lat="43.353624" lon="-2.479617">
        <ele>88.292</ele>
        <time>2019-06-15T17:31:59Z</time>
      </trkpt>
      <trkpt lat="43.353711" lon="-2.479682">
        <ele>90.392</ele>
        <time>2019-06-15T17:32:00Z</time>
      </trkpt>
      <trkpt lat="43.353878" lon="-2.479663">
        <ele>89.573</ele>
        <time>2019-06-15T17:32:01Z</time>
      </trkpt>
      <trkpt lat="43.353923" lon="-2.479636">
        <ele>88.320</ele>
        <time>2019-06-15T17:32:02Z</time>
      </trkpt>
      <trkpt lat="43.354026" lon="-2.479635">
        <ele>86.608</ele>
        <time>2019-06-15T17:32:03Z</time>
      </trkpt>
      <trkpt lat="43.354078" lon="-2.479631">
        <ele>85.742</ele>
        <time>2019-06-15T17:32:04Z</time>
      </trkpt>
      <trkpt lat="43.354133" lon="-2.479674">
        <ele>85.746</ele>
        <time>2019-06-15T17:32:05Z</time>
      </trkpt>
      <trkpt lat="43.354203" lon="-2.479741">
        <ele>85.235</ele>
        <time>2019-06-15T17:32:06Z</time>
      </trkpt>
      <trkpt lat="43.354233" lon="-2.479918">
        <ele>86.194</ele>
        <time>2019-06-15T17:32:07Z</time>
      </trkpt>
      <trkpt lat="43.354269" lon="-2.480064">
        <ele>85.183</ele>
        <time>2019-06-15T17:32:08Z</time>
      </trkpt>
      <trkpt lat="43.354308" lon="-2.480201">
        <ele>82.694</ele>
        <time>2019-06-15T17:32:09Z</time>
      </trkpt>
      <trkpt lat="43.354363" lon="-2.480385">
        <ele>79.483</ele>
        <time>2019-06-15T17:32:10Z</time>
      </trkpt>
      <trkpt lat="43.354410" lon="-2.480577">
        <ele>77.217</ele>
        <time>2019-06-15T17:32:11Z</time>
      </trkpt>
      <trkpt lat="43.354437" lon="-2.480816">
        <ele>76.338</ele>
        <time>2019-06-15T17:32:12Z</time>
      </trkpt>
      <trkpt lat="43.354452" lon="-2.481008">
        <ele>75.670</ele>
        <time>2019-06-15T17:32:13Z</time>
      </trkpt>
      <trkpt lat="43.354457" lon="-2.481199">
        <ele>74.917</ele>
        <time>2019-06-15T17:32:14Z</time>
      </trkpt>
      <trkpt lat="43.354455" lon="-2.481406">
        <ele>74.408</ele>
        <time>2019-06-15T17:32:15Z</time>
      </trkpt>
      <trkpt lat="43.354444" lon="-2.481587">
        <ele>75.016</ele>
        <time>2019-06-15T17:32:16Z</time>
      </trkpt>
      <trkpt lat="43.354463" lon="-2.481785">
        <ele>73.610</ele>
        <time>2019-06-15T17:32:17Z</time>
      </trkpt>
      <trkpt lat="43.354466" lon="-2.481961">
        <ele>73.389</ele>
        <time>2019-06-15T17:32:18Z</time>
      </trkpt>
      <trkpt lat="43.354469" lon="-2.482117">
        <ele>73.348</ele>
        <time>2019-06-15T17:32:19Z</time>
      </trkpt>
      <trkpt lat="43.354475" lon="-2.482272">
        <ele>73.817</ele>
        <time>2019-06-15T17:32:20Z</time>
      </trkpt>
      <trkpt lat="43.354487" lon="-2.482432">
        <ele>75.618</ele>
        <time>2019-06-15T17:32:21Z</time>
      </trkpt>
      <trkpt lat="43.354517" lon="-2.482591">
        <ele>76.327</ele>
        <time>2019-06-15T17:32:22Z</time>
      </trkpt>
      <trkpt lat="43.354608" lon="-2.482747">
        <ele>74.431</ele>
        <time>2019-06-15T17:32:23Z</time>
      </trkpt>
      <trkpt lat="43.354682" lon="-2.482898">
        <ele>73.525</ele>
        <time>2019-06-15T17:32:24Z</time>
      </trkpt>
      <trkpt lat="43.354738" lon="-2.483054">
        <ele>73.226</ele>
        <time>2019-06-15T17:32:25Z</time>
      </trkpt>
      <trkpt lat="43.354818" lon="-2.483197">
        <ele>71.208</ele>
        <time>2019-06-15T17:32:26Z</time>
      </trkpt>
      <trkpt lat="43.354898" lon="-2.483336">
        <ele>70.108</ele>
        <time>2019-06-15T17:32:27Z</time>
      </trkpt>
      <trkpt lat="43.354956" lon="-2.483475">
        <ele>69.415</ele>
        <time>2019-06-15T17:32:28Z</time>
      </trkpt>
      <trkpt lat="43.355024" lon="-2.483594">
        <ele>67.979</ele>
        <time>2019-06-15T17:32:29Z</time>
      </trkpt>
      <trkpt lat="43.355071" lon="-2.483723">
        <ele>67.718</ele>
        <time>2019-06-15T17:32:30Z</time>
      </trkpt>
      <trkpt lat="43.355097" lon="-2.483851">
        <ele>68.127</ele>
        <time>2019-06-15T17:32:31Z</time>
      </trkpt>
      <trkpt lat="43.355134" lon="-2.483973">
        <ele>66.966</ele>
        <time>2019-06-15T17:32:32Z</time>
      </trkpt>
      <trkpt lat="43.355126" lon="-2.484115">
        <ele>66.727</ele>
        <time>2019-06-15T17:32:33Z</time>
      </trkpt>
      <trkpt lat="43.355092" lon="-2.484271">
        <ele>66.626</ele>
        <time>2019-06-15T17:32:34Z</time>
      </trkpt>
      <trkpt lat="43.355044" lon="-2.484425">
        <ele>66.680</ele>
        <time>2019-06-15T17:32:35Z</time>
      </trkpt>
      <trkpt lat="43.354994" lon="-2.484582">
        <ele>66.273</ele>
        <time>2019-06-15T17:32:36Z</time>
      </trkpt>
      <trkpt lat="43.354950" lon="-2.484741">
        <ele>65.385</ele>
        <time>2019-06-15T17:32:37Z</time>
      </trkpt>
      <trkpt lat="43.354928" lon="-2.484900">
        <ele>64.813</ele>
        <time>2019-06-15T17:32:38Z</time>
      </trkpt>
      <trkpt lat="43.354905" lon="-2.485055">
        <ele>64.408</ele>
        <time>2019-06-15T17:32:39Z</time>
      </trkpt>
      <trkpt lat="43.354897" lon="-2.485207">
        <ele>63.810</ele>
        <time>2019-06-15T17:32:40Z</time>
      </trkpt>
      <trkpt lat="43.354886" lon="-2.485351">
        <ele>63.024</ele>
        <time>2019-06-15T17:32:41Z</time>
      </trkpt>
      <trkpt lat="43.354876" lon="-2.485497">
        <ele>61.963</ele>
        <time>2019-06-15T17:32:42Z</time>
      </trkpt>
      <trkpt lat="43.354842" lon="-2.485625">
        <ele>62.862</ele>
        <time>2019-06-15T17:32:43Z</time>
      </trkpt>
      <trkpt lat="43.354819" lon="-2.485747">
        <ele>63.031</ele>
        <time>2019-06-15T17:32:44Z</time>
      </trkpt>
      <trkpt lat="43.354750" lon="-2.485852">
        <ele>62.852</ele>
        <time>2019-06-15T17:32:45Z</time>
      </trkpt>
      <trkpt lat="43.354704" lon="-2.485973">
        <ele>62.341</ele>
        <time>2019-06-15T17:32:46Z</time>
      </trkpt>
      <trkpt lat="43.354614" lon="-2.485995">
        <ele>63.415</ele>
        <time>2019-06-15T17:32:47Z</time>
      </trkpt>
      <trkpt lat="43.354571" lon="-2.486062">
        <ele>62.967</ele>
        <time>2019-06-15T17:32:48Z</time>
      </trkpt>
      <trkpt lat="43.354529" lon="-2.486158">
        <ele>63.181</ele>
        <time>2019-06-15T17:32:49Z</time>
      </trkpt>
      <trkpt lat="43.354493" lon="-2.486254">
        <ele>64.619</ele>
        <time>2019-06-15T17:32:50Z</time>
      </trkpt>
      <trkpt lat="43.354482" lon="-2.486328">
        <ele>65.508</ele>
        <time>2019-06-15T17:32:51Z</time>
      </trkpt>
      <trkpt lat="43.354502" lon="-2.486420">
        <ele>67.239</ele>
        <time>2019-06-15T17:32:52Z</time>
      </trkpt>
      <trkpt lat="43.354562" lon="-2.486477">
        <ele>69.223</ele>
        <time>2019-06-15T17:32:53Z</time>
      </trkpt>
      <trkpt lat="43.354634" lon="-2.486488">
        <ele>70.152</ele>
        <time>2019-06-15T17:32:54Z</time>
      </trkpt>
      <trkpt lat="43.354793" lon="-2.486460">
        <ele>73.391</ele>
        <time>2019-06-15T17:32:55Z</time>
      </trkpt>
      <trkpt lat="43.354979" lon="-2.486390">
        <ele>79.130</ele>
        <time>2019-06-15T17:32:56Z</time>
      </trkpt>
      <trkpt lat="43.355106" lon="-2.486282">
        <ele>81.571</ele>
        <time>2019-06-15T17:32:57Z</time>
      </trkpt>
      <trkpt lat="43.355206" lon="-2.486215">
        <ele>83.950</ele>
        <time>2019-06-15T17:32:58Z</time>
      </trkpt>
      <trkpt lat="43.355303" lon="-2.486091">
        <ele>83.334</ele>
        <time>2019-06-15T17:32:59Z</time>
      </trkpt>
      <trkpt lat="43.355410" lon="-2.486003">
        <ele>80.951</ele>
        <time>2019-06-15T17:33:00Z</time>
      </trkpt>
      <trkpt lat="43.355542" lon="-2.485960">
        <ele>81.001</ele>
        <time>2019-06-15T17:33:01Z</time>
      </trkpt>
      <trkpt lat="43.355654" lon="-2.485885">
        <ele>79.711</ele>
        <time>2019-06-15T17:33:02Z</time>
      </trkpt>
      <trkpt lat="43.355761" lon="-2.485834">
        <ele>78.808</ele>
        <time>2019-06-15T17:33:03Z</time>
      </trkpt>
      <trkpt lat="43.355874" lon="-2.485792">
        <ele>77.838</ele>
        <time>2019-06-15T17:33:04Z</time>
      </trkpt>
      <trkpt lat="43.356012" lon="-2.485774">
        <ele>76.772</ele>
        <time>2019-06-15T17:33:05Z</time>
      </trkpt>
      <trkpt lat="43.356155" lon="-2.485792">
        <ele>76.741</ele>
        <time>2019-06-15T17:33:06Z</time>
      </trkpt>
      <trkpt lat="43.356289" lon="-2.485840">
        <ele>77.560</ele>
        <time>2019-06-15T17:33:07Z</time>
      </trkpt>
      <trkpt lat="43.356477" lon="-2.485885">
        <ele>77.819</ele>
        <time>2019-06-15T17:33:08Z</time>
      </trkpt>
      <trkpt lat="43.356555" lon="-2.485964">
        <ele>79.220</ele>
        <time>2019-06-15T17:33:09Z</time>
      </trkpt>
      <trkpt lat="43.356667" lon="-2.486037">
        <ele>80.449</ele>
        <time>2019-06-15T17:33:10Z</time>
      </trkpt>
      <trkpt lat="43.356784" lon="-2.486079">
        <ele>81.793</ele>
        <time>2019-06-15T17:33:11Z</time>
      </trkpt>
      <trkpt lat="43.356897" lon="-2.486085">
        <ele>82.326</ele>
        <time>2019-06-15T17:33:12Z</time>
      </trkpt>
      <trkpt lat="43.356988" lon="-2.486089">
        <ele>82.247</ele>
        <time>2019-06-15T17:33:13Z</time>
      </trkpt>
      <trkpt lat="43.357091" lon="-2.486110">
        <ele>81.911</ele>
        <time>2019-06-15T17:33:14Z</time>
      </trkpt>
      <trkpt lat="43.357167" lon="-2.486107">
        <ele>81.308</ele>
        <time>2019-06-15T17:33:15Z</time>
      </trkpt>
      <trkpt lat="43.357271" lon="-2.486159">
        <ele>79.985</ele>
        <time>2019-06-15T17:33:16Z</time>
      </trkpt>
      <trkpt lat="43.357315" lon="-2.486230">
        <ele>78.789</ele>
        <time>2019-06-15T17:33:17Z</time>
      </trkpt>
      <trkpt lat="43.357376" lon="-2.486363">
        <ele>76.728</ele>
        <time>2019-06-15T17:33:18Z</time>
      </trkpt>
      <trkpt lat="43.357424" lon="-2.486487">
        <ele>74.167</ele>
        <time>2019-06-15T17:33:19Z</time>
      </trkpt>
      <trkpt lat="43.357343" lon="-2.486683">
        <ele>75.476</ele>
        <time>2019-06-15T17:33:20Z</time>
      </trkpt>
      <trkpt lat="43.357370" lon="-2.486816">
        <ele>76.477</ele>
        <time>2019-06-15T17:33:21Z</time>
      </trkpt>
      <trkpt lat="43.357402" lon="-2.486953">
        <ele>77.576</ele>
        <time>2019-06-15T17:33:22Z</time>
      </trkpt>
      <trkpt lat="43.357448" lon="-2.487064">
        <ele>76.070</ele>
        <time>2019-06-15T17:33:23Z</time>
      </trkpt>
      <trkpt lat="43.357485" lon="-2.487192">
        <ele>73.947</ele>
        <time>2019-06-15T17:33:24Z</time>
      </trkpt>
      <trkpt lat="43.357524" lon="-2.487302">
        <ele>71.629</ele>
        <time>2019-06-15T17:33:25Z</time>
      </trkpt>
      <trkpt lat="43.357521" lon="-2.487415">
        <ele>71.221</ele>
        <time>2019-06-15T17:33:26Z</time>
      </trkpt>
      <trkpt lat="43.357482" lon="-2.487526">
        <ele>72.408</ele>
        <time>2019-06-15T17:33:27Z</time>
      </trkpt>
      <trkpt lat="43.357479" lon="-2.487648">
        <ele>74.547</ele>
        <time>2019-06-15T17:33:28Z</time>
      </trkpt>
      <trkpt lat="43.357489" lon="-2.487747">
        <ele>75.861</ele>
        <time>2019-06-15T17:33:29Z</time>
      </trkpt>
      <trkpt lat="43.357499" lon="-2.487863">
        <ele>79.730</ele>
        <time>2019-06-15T17:33:30Z</time>
      </trkpt>
      <trkpt lat="43.357554" lon="-2.487941">
        <ele>83.339</ele>
        <time>2019-06-15T17:33:32Z</time>
      </trkpt>
      <trkpt lat="43.357635" lon="-2.487860">
        <ele>80.468</ele>
        <time>2019-06-15T17:33:33Z</time>
      </trkpt>
      <trkpt lat="43.357842" lon="-2.487800">
        <ele>80.429</ele>
        <time>2019-06-15T17:33:34Z</time>
      </trkpt>
      <trkpt lat="43.357961" lon="-2.487744">
        <ele>81.638</ele>
        <time>2019-06-15T17:33:35Z</time>
      </trkpt>
      <trkpt lat="43.358060" lon="-2.487561">
        <ele>78.832</ele>
        <time>2019-06-15T17:33:36Z</time>
      </trkpt>
      <trkpt lat="43.358164" lon="-2.487466">
        <ele>76.745</ele>
        <time>2019-06-15T17:33:37Z</time>
      </trkpt>
      <trkpt lat="43.358291" lon="-2.487423">
        <ele>76.447</ele>
        <time>2019-06-15T17:33:38Z</time>
      </trkpt>
      <trkpt lat="43.358408" lon="-2.487349">
        <ele>74.011</ele>
        <time>2019-06-15T17:33:39Z</time>
      </trkpt>
      <trkpt lat="43.358517" lon="-2.487296">
        <ele>71.908</ele>
        <time>2019-06-15T17:33:40Z</time>
      </trkpt>
      <trkpt lat="43.358651" lon="-2.487271">
        <ele>70.337</ele>
        <time>2019-06-15T17:33:41Z</time>
      </trkpt>
      <trkpt lat="43.358734" lon="-2.487256">
        <ele>68.761</ele>
        <time>2019-06-15T17:33:42Z</time>
      </trkpt>
      <trkpt lat="43.358857" lon="-2.487294">
        <ele>67.380</ele>
        <time>2019-06-15T17:33:43Z</time>
      </trkpt>
      <trkpt lat="43.358950" lon="-2.487349">
        <ele>64.829</ele>
        <time>2019-06-15T17:33:44Z</time>
      </trkpt>
      <trkpt lat="43.359060" lon="-2.487403">
        <ele>60.218</ele>
        <time>2019-06-15T17:33:45Z</time>
      </trkpt>
      <trkpt lat="43.359020" lon="-2.487520">
        <ele>62.239</ele>
        <time>2019-06-15T17:33:46Z</time>
      </trkpt>
      <trkpt lat="43.359061" lon="-2.487638">
        <ele>58.948</ele>
        <time>2019-06-15T17:33:47Z</time>
      </trkpt>
      <trkpt lat="43.359088" lon="-2.487764">
        <ele>56.032</ele>
        <time>2019-06-15T17:33:48Z</time>
      </trkpt>
      <trkpt lat="43.359097" lon="-2.487917">
        <ele>54.875</ele>
        <time>2019-06-15T17:33:49Z</time>
      </trkpt>
      <trkpt lat="43.358974" lon="-2.488061">
        <ele>61.828</ele>
        <time>2019-06-15T17:33:50Z</time>
      </trkpt>
      <trkpt lat="43.358948" lon="-2.488199">
        <ele>63.320</ele>
        <time>2019-06-15T17:33:51Z</time>
      </trkpt>
      <trkpt lat="43.358931" lon="-2.488318">
        <ele>63.508</ele>
        <time>2019-06-15T17:33:52Z</time>
      </trkpt>
      <trkpt lat="43.358918" lon="-2.488435">
        <ele>65.420</ele>
        <time>2019-06-15T17:33:53Z</time>
      </trkpt>
      <trkpt lat="43.358928" lon="-2.488516">
        <ele>66.964</ele>
        <time>2019-06-15T17:33:54Z</time>
      </trkpt>
      <trkpt lat="43.358959" lon="-2.488607">
        <ele>69.243</ele>
        <time>2019-06-15T17:33:55Z</time>
      </trkpt>
      <trkpt lat="43.359034" lon="-2.488648">
        <ele>71.992</ele>
        <time>2019-06-15T17:33:56Z</time>
      </trkpt>
      <trkpt lat="43.359139" lon="-2.488620">
        <ele>72.851</ele>
        <time>2019-06-15T17:33:57Z</time>
      </trkpt>
      <trkpt lat="43.359219" lon="-2.488597">
        <ele>71.692</ele>
        <time>2019-06-15T17:33:58Z</time>
      </trkpt>
      <trkpt lat="43.359307" lon="-2.488529">
        <ele>67.751</ele>
        <time>2019-06-15T17:33:59Z</time>
      </trkpt>
      <trkpt lat="43.359401" lon="-2.488495">
        <ele>65.655</ele>
        <time>2019-06-15T17:34:00Z</time>
      </trkpt>
      <trkpt lat="43.359478" lon="-2.488445">
        <ele>64.173</ele>
        <time>2019-06-15T17:34:01Z</time>
      </trkpt>
      <trkpt lat="43.359579" lon="-2.488421">
        <ele>65.085</ele>
        <time>2019-06-15T17:34:02Z</time>
      </trkpt>
      <trkpt lat="43.359685" lon="-2.488390">
        <ele>66.113</ele>
        <time>2019-06-15T17:34:03Z</time>
      </trkpt>
      <trkpt lat="43.359749" lon="-2.488251">
        <ele>65.208</ele>
        <time>2019-06-15T17:34:04Z</time>
      </trkpt>
      <trkpt lat="43.359791" lon="-2.488134">
        <ele>64.030</ele>
        <time>2019-06-15T17:34:05Z</time>
      </trkpt>
      <trkpt lat="43.359860" lon="-2.488018">
        <ele>62.964</ele>
        <time>2019-06-15T17:34:06Z</time>
      </trkpt>
      <trkpt lat="43.359931" lon="-2.487908">
        <ele>61.553</ele>
        <time>2019-06-15T17:34:07Z</time>
      </trkpt>
      <trkpt lat="43.360000" lon="-2.487830">
        <ele>61.332</ele>
        <time>2019-06-15T17:34:08Z</time>
      </trkpt>
      <trkpt lat="43.360072" lon="-2.487777">
        <ele>59.781</ele>
        <time>2019-06-15T17:34:09Z</time>
      </trkpt>
      <trkpt lat="43.360151" lon="-2.487720">
        <ele>57.272</ele>
        <time>2019-06-15T17:34:10Z</time>
      </trkpt>
      <trkpt lat="43.360264" lon="-2.487745">
        <ele>57.551</ele>
        <time>2019-06-15T17:34:11Z</time>
      </trkpt>
      <trkpt lat="43.360351" lon="-2.487762">
        <ele>56.755</ele>
        <time>2019-06-15T17:34:12Z</time>
      </trkpt>
      <trkpt lat="43.360458" lon="-2.487861">
        <ele>57.054</ele>
        <time>2019-06-15T17:34:13Z</time>
      </trkpt>
      <trkpt lat="43.360540" lon="-2.487937">
        <ele>56.856</ele>
        <time>2019-06-15T17:34:14Z</time>
      </trkpt>
      <trkpt lat="43.360666" lon="-2.488030">
        <ele>56.111</ele>
        <time>2019-06-15T17:34:15Z</time>
      </trkpt>
      <trkpt lat="43.360792" lon="-2.488120">
        <ele>55.308</ele>
        <time>2019-06-15T17:34:16Z</time>
      </trkpt>
      <trkpt lat="43.360898" lon="-2.488214">
        <ele>55.548</ele>
        <time>2019-06-15T17:34:17Z</time>
      </trkpt>
      <trkpt lat="43.361026" lon="-2.488278">
        <ele>55.092</ele>
        <time>2019-06-15T17:34:18Z</time>
      </trkpt>
      <trkpt lat="43.361142" lon="-2.488340">
        <ele>54.761</ele>
        <time>2019-06-15T17:34:19Z</time>
      </trkpt>
      <trkpt lat="43.361267" lon="-2.488390">
        <ele>54.090</ele>
        <time>2019-06-15T17:34:20Z</time>
      </trkpt>
      <trkpt lat="43.361397" lon="-2.488445">
        <ele>53.499</ele>
        <time>2019-06-15T17:34:21Z</time>
      </trkpt>
      <trkpt lat="43.361515" lon="-2.488491">
        <ele>53.520</ele>
        <time>2019-06-15T17:34:22Z</time>
      </trkpt>
      <trkpt lat="43.361615" lon="-2.488503">
        <ele>53.039</ele>
        <time>2019-06-15T17:34:23Z</time>
      </trkpt>
      <trkpt lat="43.361685" lon="-2.488506">
        <ele>52.223</ele>
        <time>2019-06-15T17:34:24Z</time>
      </trkpt>
      <trkpt lat="43.361788" lon="-2.488515">
        <ele>49.662</ele>
        <time>2019-06-15T17:34:25Z</time>
      </trkpt>
      <trkpt lat="43.361888" lon="-2.488617">
        <ele>48.883</ele>
        <time>2019-06-15T17:34:26Z</time>
      </trkpt>
      <trkpt lat="43.361983" lon="-2.488687">
        <ele>47.911</ele>
        <time>2019-06-15T17:34:27Z</time>
      </trkpt>
      <trkpt lat="43.362081" lon="-2.488812">
        <ele>48.508</ele>
        <time>2019-06-15T17:34:28Z</time>
      </trkpt>
      <trkpt lat="43.362142" lon="-2.488935">
        <ele>49.319</ele>
        <time>2019-06-15T17:34:29Z</time>
      </trkpt>
      <trkpt lat="43.362215" lon="-2.489041">
        <ele>48.883</ele>
        <time>2019-06-15T17:34:30Z</time>
      </trkpt>
      <trkpt lat="43.362277" lon="-2.489122">
        <ele>48.712</ele>
        <time>2019-06-15T17:34:31Z</time>
      </trkpt>
      <trkpt lat="43.362360" lon="-2.489202">
        <ele>48.271</ele>
        <time>2019-06-15T17:34:32Z</time>
      </trkpt>
      <trkpt lat="43.362415" lon="-2.489273">
        <ele>47.750</ele>
        <time>2019-06-15T17:34:33Z</time>
      </trkpt>
      <trkpt lat="43.362427" lon="-2.489378">
        <ele>48.071</ele>
        <time>2019-06-15T17:34:34Z</time>
      </trkpt>
      <trkpt lat="43.362445" lon="-2.489479">
        <ele>47.830</ele>
        <time>2019-06-15T17:34:35Z</time>
      </trkpt>
      <trkpt lat="43.362465" lon="-2.489597">
        <ele>46.734</ele>
        <time>2019-06-15T17:34:36Z</time>
      </trkpt>
      <trkpt lat="43.362464" lon="-2.489724">
        <ele>46.058</ele>
        <time>2019-06-15T17:34:37Z</time>
      </trkpt>
      <trkpt lat="43.362481" lon="-2.489858">
        <ele>45.652</ele>
        <time>2019-06-15T17:34:38Z</time>
      </trkpt>
      <trkpt lat="43.362487" lon="-2.489987">
        <ele>45.517</ele>
        <time>2019-06-15T17:34:39Z</time>
      </trkpt>
      <trkpt lat="43.362489" lon="-2.490111">
        <ele>45.408</ele>
        <time>2019-06-15T17:34:40Z</time>
      </trkpt>
      <trkpt lat="43.362486" lon="-2.490229">
        <ele>45.518</ele>
        <time>2019-06-15T17:34:41Z</time>
      </trkpt>
      <trkpt lat="43.362486" lon="-2.490340">
        <ele>45.462</ele>
        <time>2019-06-15T17:34:42Z</time>
      </trkpt>
      <trkpt lat="43.362480" lon="-2.490441">
        <ele>45.641</ele>
        <time>2019-06-15T17:34:43Z</time>
      </trkpt>
      <trkpt lat="43.362468" lon="-2.490542">
        <ele>45.930</ele>
        <time>2019-06-15T17:34:44Z</time>
      </trkpt>
      <trkpt lat="43.362441" lon="-2.490647">
        <ele>45.189</ele>
        <time>2019-06-15T17:34:45Z</time>
      </trkpt>
      <trkpt lat="43.362414" lon="-2.490756">
        <ele>44.160</ele>
        <time>2019-06-15T17:34:46Z</time>
      </trkpt>
      <trkpt lat="43.362375" lon="-2.490853">
        <ele>43.499</ele>
        <time>2019-06-15T17:34:47Z</time>
      </trkpt>
      <trkpt lat="43.362329" lon="-2.490944">
        <ele>41.993</ele>
        <time>2019-06-15T17:34:48Z</time>
      </trkpt>
      <trkpt lat="43.362281" lon="-2.491018">
        <ele>41.424</ele>
        <time>2019-06-15T17:34:49Z</time>
      </trkpt>
      <trkpt lat="43.362239" lon="-2.491094">
        <ele>40.804</ele>
        <time>2019-06-15T17:34:50Z</time>
      </trkpt>
      <trkpt lat="43.362201" lon="-2.491161">
        <ele>40.114</ele>
        <time>2019-06-15T17:34:51Z</time>
      </trkpt>
      <trkpt lat="43.362164" lon="-2.491204">
        <ele>40.208</ele>
        <time>2019-06-15T17:34:52Z</time>
      </trkpt>
      <trkpt lat="43.362112" lon="-2.491269">
        <ele>40.135</ele>
        <time>2019-06-15T17:34:54Z</time>
      </trkpt>
      <trkpt lat="43.362072" lon="-2.491313">
        <ele>40.249</ele>
        <time>2019-06-15T17:34:56Z</time>
      </trkpt>
      <trkpt lat="43.362028" lon="-2.491335">
        <ele>41.388</ele>
        <time>2019-06-15T17:35:00Z</time>
      </trkpt>
      <trkpt lat="43.361981" lon="-2.491302">
        <ele>44.527</ele>
        <time>2019-06-15T17:35:18Z</time>
      </trkpt>
      <trkpt lat="43.361935" lon="-2.491267">
        <ele>47.856</ele>
        <time>2019-06-15T17:35:31Z</time>
      </trkpt>
      <trkpt lat="43.361985" lon="-2.491294">
        <ele>44.777</ele>
        <time>2019-06-15T17:35:36Z</time>
      </trkpt>
      <trkpt lat="43.362069" lon="-2.491327">
        <ele>39.816</ele>
        <time>2019-06-15T17:35:42Z</time>
      </trkpt>
      <trkpt lat="43.362035" lon="-2.491367">
        <ele>39.990</ele>
        <time>2019-06-15T17:36:04Z</time>
      </trkpt>
      <trkpt lat="43.362079" lon="-2.491386">
        <ele>37.323</ele>
        <time>2019-06-15T17:36:16Z</time>
      </trkpt>
      <trkpt lat="43.362033" lon="-2.491353">
        <ele>40.583</ele>
        <time>2019-06-15T17:36:23Z</time>
      </trkpt>
      <trkpt lat="43.361985" lon="-2.491331">
        <ele>43.311</ele>
        <time>2019-06-15T17:37:13Z</time>
      </trkpt>
      <trkpt lat="43.361914" lon="-2.491394">
        <ele>44.308</ele>
        <time>2019-06-15T17:37:15Z</time>
      </trkpt>
      <trkpt lat="43.361865" lon="-2.491455">
        <ele>44.735</ele>
        <time>2019-06-15T17:37:16Z</time>
      </trkpt>
      <trkpt lat="43.361818" lon="-2.491546">
        <ele>44.569</ele>
        <time>2019-06-15T17:37:17Z</time>
      </trkpt>
      <trkpt lat="43.361802" lon="-2.491658">
        <ele>42.588</ele>
        <time>2019-06-15T17:37:18Z</time>
      </trkpt>
      <trkpt lat="43.361763" lon="-2.491777">
        <ele>41.787</ele>
        <time>2019-06-15T17:37:19Z</time>
      </trkpt>
      <trkpt lat="43.361726" lon="-2.491896">
        <ele>41.016</ele>
        <time>2019-06-15T17:37:20Z</time>
      </trkpt>
      <trkpt lat="43.361680" lon="-2.492006">
        <ele>41.737</ele>
        <time>2019-06-15T17:37:21Z</time>
      </trkpt>
      <trkpt lat="43.361630" lon="-2.492111">
        <ele>42.346</ele>
        <time>2019-06-15T17:37:22Z</time>
      </trkpt>
      <trkpt lat="43.361590" lon="-2.492203">
        <ele>42.350</ele>
        <time>2019-06-15T17:37:23Z</time>
      </trkpt>
      <trkpt lat="43.361556" lon="-2.492291">
        <ele>41.543</ele>
        <time>2019-06-15T17:37:24Z</time>
      </trkpt>
      <trkpt lat="43.361539" lon="-2.492412">
        <ele>38.964</ele>
        <time>2019-06-15T17:37:25Z</time>
      </trkpt>
      <trkpt lat="43.361527" lon="-2.492496">
        <ele>37.210</ele>
        <time>2019-06-15T17:37:26Z</time>
      </trkpt>
      <trkpt lat="43.361517" lon="-2.492592">
        <ele>37.508</ele>
        <time>2019-06-15T17:37:27Z</time>
      </trkpt>
      <trkpt lat="43.361512" lon="-2.492690">
        <ele>37.747</ele>
        <time>2019-06-15T17:37:28Z</time>
      </trkpt>
      <trkpt lat="43.361519" lon="-2.492789">
        <ele>37.121</ele>
        <time>2019-06-15T17:37:29Z</time>
      </trkpt>
      <trkpt lat="43.361522" lon="-2.492894">
        <ele>36.920</ele>
        <time>2019-06-15T17:37:30Z</time>
      </trkpt>
      <trkpt lat="43.361537" lon="-2.493006">
        <ele>35.989</ele>
        <time>2019-06-15T17:37:31Z</time>
      </trkpt>
      <trkpt lat="43.361522" lon="-2.493111">
        <ele>36.118</ele>
        <time>2019-06-15T17:37:32Z</time>
      </trkpt>
      <trkpt lat="43.361482" lon="-2.493214">
        <ele>37.279</ele>
        <time>2019-06-15T17:37:33Z</time>
      </trkpt>
      <trkpt lat="43.361464" lon="-2.493322">
        <ele>36.638</ele>
        <time>2019-06-15T17:37:34Z</time>
      </trkpt>
      <trkpt lat="43.361433" lon="-2.493394">
        <ele>38.112</ele>
        <time>2019-06-15T17:37:35Z</time>
      </trkpt>
      <trkpt lat="43.361423" lon="-2.493515">
        <ele>38.286</ele>
        <time>2019-06-15T17:37:36Z</time>
      </trkpt>
      <trkpt lat="43.361416" lon="-2.493631">
        <ele>38.060</ele>
        <time>2019-06-15T17:37:37Z</time>
      </trkpt>
      <trkpt lat="43.361402" lon="-2.493740">
        <ele>38.526</ele>
        <time>2019-06-15T17:37:38Z</time>
      </trkpt>
      <trkpt lat="43.361381" lon="-2.493844">
        <ele>39.408</ele>
        <time>2019-06-15T17:37:39Z</time>
      </trkpt>
      <trkpt lat="43.361374" lon="-2.493959">
        <ele>38.471</ele>
        <time>2019-06-15T17:37:40Z</time>
      </trkpt>
      <trkpt lat="43.361357" lon="-2.494053">
        <ele>37.525</ele>
        <time>2019-06-15T17:37:41Z</time>
      </trkpt>
      <trkpt lat="43.361332" lon="-2.494143">
        <ele>37.144</ele>
        <time>2019-06-15T17:37:42Z</time>
      </trkpt>
      <trkpt lat="43.361316" lon="-2.494220">
        <ele>37.833</ele>
        <time>2019-06-15T17:37:43Z</time>
      </trkpt>
      <trkpt lat="43.361328" lon="-2.494298">
        <ele>37.972</ele>
        <time>2019-06-15T17:37:44Z</time>
      </trkpt>
      <trkpt lat="43.361340" lon="-2.494376">
        <ele>38.013</ele>
        <time>2019-06-15T17:37:45Z</time>
      </trkpt>
      <trkpt lat="43.361387" lon="-2.494454">
        <ele>37.242</ele>
        <time>2019-06-15T17:37:46Z</time>
      </trkpt>
      <trkpt lat="43.361442" lon="-2.494530">
        <ele>36.546</ele>
        <time>2019-06-15T17:37:47Z</time>
      </trkpt>
      <trkpt lat="43.361513" lon="-2.494600">
        <ele>35.281</ele>
        <time>2019-06-15T17:37:48Z</time>
      </trkpt>
      <trkpt lat="43.361570" lon="-2.494683">
        <ele>34.661</ele>
        <time>2019-06-15T17:37:49Z</time>
      </trkpt>
      <trkpt lat="43.361620" lon="-2.494796">
        <ele>33.817</ele>
        <time>2019-06-15T17:37:50Z</time>
      </trkpt>
      <trkpt lat="43.361662" lon="-2.494898">
        <ele>32.808</ele>
        <time>2019-06-15T17:37:51Z</time>
      </trkpt>
      <trkpt lat="43.361693" lon="-2.495028">
        <ele>32.151</ele>
        <time>2019-06-15T17:37:52Z</time>
      </trkpt>
      <trkpt lat="43.361709" lon="-2.495158">
        <ele>31.585</ele>
        <time>2019-06-15T17:37:53Z</time>
      </trkpt>
      <trkpt lat="43.361737" lon="-2.495289">
        <ele>30.624</ele>
        <time>2019-06-15T17:37:54Z</time>
      </trkpt>
      <trkpt lat="43.361767" lon="-2.495392">
        <ele>30.593</ele>
        <time>2019-06-15T17:37:55Z</time>
      </trkpt>
      <trkpt lat="43.361814" lon="-2.495501">
        <ele>30.272</ele>
        <time>2019-06-15T17:37:56Z</time>
      </trkpt>
      <trkpt lat="43.361859" lon="-2.495592">
        <ele>29.983</ele>
        <time>2019-06-15T17:37:57Z</time>
      </trkpt>
      <trkpt lat="43.361911" lon="-2.495682">
        <ele>29.722</ele>
        <time>2019-06-15T17:37:58Z</time>
      </trkpt>
      <trkpt lat="43.361969" lon="-2.495769">
        <ele>29.226</ele>
        <time>2019-06-15T17:37:59Z</time>
      </trkpt>
      <trkpt lat="43.362040" lon="-2.495863">
        <ele>28.648</ele>
        <time>2019-06-15T17:38:00Z</time>
      </trkpt>
      <trkpt lat="43.362114" lon="-2.495948">
        <ele>28.561</ele>
        <time>2019-06-15T17:38:01Z</time>
      </trkpt>
      <trkpt lat="43.362191" lon="-2.496029">
        <ele>28.517</ele>
        <time>2019-06-15T17:38:02Z</time>
      </trkpt>
      <trkpt lat="43.362270" lon="-2.496113">
        <ele>28.308</ele>
        <time>2019-06-15T17:38:03Z</time>
      </trkpt>
      <trkpt lat="43.362346" lon="-2.496184">
        <ele>28.187</ele>
        <time>2019-06-15T17:38:04Z</time>
      </trkpt>
      <trkpt lat="43.362428" lon="-2.496262">
        <ele>28.541</ele>
        <time>2019-06-15T17:38:05Z</time>
      </trkpt>
      <trkpt lat="43.362539" lon="-2.496355">
        <ele>29.390</ele>
        <time>2019-06-15T17:38:06Z</time>
      </trkpt>
      <trkpt lat="43.362644" lon="-2.496416">
        <ele>28.459</ele>
        <time>2019-06-15T17:38:07Z</time>
      </trkpt>
      <trkpt lat="43.362733" lon="-2.496484">
        <ele>29.178</ele>
        <time>2019-06-15T17:38:08Z</time>
      </trkpt>
      <trkpt lat="43.362806" lon="-2.496536">
        <ele>29.669</ele>
        <time>2019-06-15T17:38:09Z</time>
      </trkpt>
      <trkpt lat="43.362926" lon="-2.496587">
        <ele>26.198</ele>
        <time>2019-06-15T17:38:10Z</time>
      </trkpt>
      <trkpt lat="43.363017" lon="-2.496665">
        <ele>24.222</ele>
        <time>2019-06-15T17:38:11Z</time>
      </trkpt>
      <trkpt lat="43.363080" lon="-2.496756">
        <ele>22.724</ele>
        <time>2019-06-15T17:38:12Z</time>
      </trkpt>
      <trkpt lat="43.363153" lon="-2.496857">
        <ele>20.404</ele>
        <time>2019-06-15T17:38:13Z</time>
      </trkpt>
      <trkpt lat="43.363197" lon="-2.496963">
        <ele>19.314</ele>
        <time>2019-06-15T17:38:14Z</time>
      </trkpt>
      <trkpt lat="43.363225" lon="-2.497062">
        <ele>17.408</ele>
        <time>2019-06-15T17:38:15Z</time>
      </trkpt>
      <trkpt lat="43.363248" lon="-2.497178">
        <ele>16.345</ele>
        <time>2019-06-15T17:38:16Z</time>
      </trkpt>
      <trkpt lat="43.363219" lon="-2.497280">
        <ele>16.189</ele>
        <time>2019-06-15T17:38:17Z</time>
      </trkpt>
      <trkpt lat="43.363168" lon="-2.497363">
        <ele>15.988</ele>
        <time>2019-06-15T17:38:18Z</time>
      </trkpt>
      <trkpt lat="43.363105" lon="-2.497424">
        <ele>16.577</ele>
        <time>2019-06-15T17:38:19Z</time>
      </trkpt>
      <trkpt lat="43.363011" lon="-2.497425">
        <ele>17.786</ele>
        <time>2019-06-15T17:38:20Z</time>
      </trkpt>
      <trkpt lat="43.362903" lon="-2.497399">
        <ele>17.767</ele>
        <time>2019-06-15T17:38:21Z</time>
      </trkpt>
      <trkpt lat="43.362793" lon="-2.497349">
        <ele>19.186</ele>
        <time>2019-06-15T17:38:22Z</time>
      </trkpt>
      <trkpt lat="43.362671" lon="-2.497292">
        <ele>18.930</ele>
        <time>2019-06-15T17:38:23Z</time>
      </trkpt>
      <trkpt lat="43.362545" lon="-2.497232">
        <ele>18.625</ele>
        <time>2019-06-15T17:38:24Z</time>
      </trkpt>
      <trkpt lat="43.362426" lon="-2.497160">
        <ele>18.926</ele>
        <time>2019-06-15T17:38:25Z</time>
      </trkpt>
      <trkpt lat="43.362312" lon="-2.497091">
        <ele>18.608</ele>
        <time>2019-06-15T17:38:26Z</time>
      </trkpt>
      <trkpt lat="43.362202" lon="-2.497031">
        <ele>17.808</ele>
        <time>2019-06-15T17:38:27Z</time>
      </trkpt>
      <trkpt lat="43.362092" lon="-2.496975">
        <ele>17.495</ele>
        <time>2019-06-15T17:38:28Z</time>
      </trkpt>
      <trkpt lat="43.361988" lon="-2.496922">
        <ele>17.159</ele>
        <time>2019-06-15T17:38:29Z</time>
      </trkpt>
      <trkpt lat="43.361890" lon="-2.496890">
        <ele>17.058</ele>
        <time>2019-06-15T17:38:30Z</time>
      </trkpt>
      <trkpt lat="43.361787" lon="-2.496869">
        <ele>16.647</ele>
        <time>2019-06-15T17:38:31Z</time>
      </trkpt>
      <trkpt lat="43.361681" lon="-2.496868">
        <ele>15.476</ele>
        <time>2019-06-15T17:38:32Z</time>
      </trkpt>
      <trkpt lat="43.361568" lon="-2.496877">
        <ele>15.357</ele>
        <time>2019-06-15T17:38:33Z</time>
      </trkpt>
      <trkpt lat="43.361461" lon="-2.496913">
        <ele>14.616</ele>
        <time>2019-06-15T17:38:34Z</time>
      </trkpt>
      <trkpt lat="43.361351" lon="-2.496954">
        <ele>14.280</ele>
        <time>2019-06-15T17:38:35Z</time>
      </trkpt>
      <trkpt lat="43.361243" lon="-2.497019">
        <ele>13.773</ele>
        <time>2019-06-15T17:38:36Z</time>
      </trkpt>
      <trkpt lat="43.361154" lon="-2.497094">
        <ele>12.885</ele>
        <time>2019-06-15T17:38:37Z</time>
      </trkpt>
      <trkpt lat="43.361071" lon="-2.497188">
        <ele>11.713</ele>
        <time>2019-06-15T17:38:38Z</time>
      </trkpt>
      <trkpt lat="43.360996" lon="-2.497287">
        <ele>11.808</ele>
        <time>2019-06-15T17:38:39Z</time>
      </trkpt>
      <trkpt lat="43.360926" lon="-2.497405">
        <ele>12.020</ele>
        <time>2019-06-15T17:38:40Z</time>
      </trkpt>
      <trkpt lat="43.360887" lon="-2.497539">
        <ele>11.564</ele>
        <time>2019-06-15T17:38:41Z</time>
      </trkpt>
      <trkpt lat="43.360856" lon="-2.497682">
        <ele>11.133</ele>
        <time>2019-06-15T17:38:42Z</time>
      </trkpt>
      <trkpt lat="43.360831" lon="-2.497821">
        <ele>10.762</ele>
        <time>2019-06-15T17:38:43Z</time>
      </trkpt>
      <trkpt lat="43.360776" lon="-2.497966">
        <ele>11.861</ele>
        <time>2019-06-15T17:38:44Z</time>
      </trkpt>
      <trkpt lat="43.360723" lon="-2.498089">
        <ele>11.812</ele>
        <time>2019-06-15T17:38:45Z</time>
      </trkpt>
      <trkpt lat="43.360662" lon="-2.498191">
        <ele>10.981</ele>
        <time>2019-06-15T17:38:46Z</time>
      </trkpt>
      <trkpt lat="43.360597" lon="-2.498277">
        <ele>9.585</ele>
        <time>2019-06-15T17:38:47Z</time>
      </trkpt>
      <trkpt lat="43.360528" lon="-2.498337">
        <ele>8.752</ele>
        <time>2019-06-15T17:38:48Z</time>
      </trkpt>
      <trkpt lat="43.360458" lon="-2.498396">
        <ele>9.253</ele>
        <time>2019-06-15T17:38:49Z</time>
      </trkpt>
      <trkpt lat="43.360398" lon="-2.498446">
        <ele>9.508</ele>
        <time>2019-06-15T17:38:50Z</time>
      </trkpt>
      <trkpt lat="43.360359" lon="-2.498499">
        <ele>9.108</ele>
        <time>2019-06-15T17:38:51Z</time>
      </trkpt>
      <trkpt lat="43.360339" lon="-2.498557">
        <ele>8.098</ele>
        <time>2019-06-15T17:38:52Z</time>
      </trkpt>
      <trkpt lat="43.360327" lon="-2.498628">
        <ele>6.362</ele>
        <time>2019-06-15T17:38:53Z</time>
      </trkpt>
      <trkpt lat="43.360334" lon="-2.498713">
        <ele>4.281</ele>
        <time>2019-06-15T17:38:54Z</time>
      </trkpt>
      <trkpt lat="43.360364" lon="-2.498801">
        <ele>1.890</ele>
        <time>2019-06-15T17:38:55Z</time>
      </trkpt>
      <trkpt lat="43.360390" lon="-2.498894">
        <ele>0.179</ele>
        <time>2019-06-15T17:38:56Z</time>
      </trkpt>
      <trkpt lat="43.360416" lon="-2.498982">
        <ele>2.790</ele>
        <time>2019-06-15T17:38:57Z</time>
      </trkpt>
      <trkpt lat="43.360431" lon="-2.499073">
        <ele>5.529</ele>
        <time>2019-06-15T17:38:58Z</time>
      </trkpt>
      <trkpt lat="43.360456" lon="-2.499147">
        <ele>8.253</ele>
        <time>2019-06-15T17:38:59Z</time>
      </trkpt>
      <trkpt lat="43.360490" lon="-2.499203">
        <ele>11.051</ele>
        <time>2019-06-15T17:39:00Z</time>
      </trkpt>
      <trkpt lat="43.360539" lon="-2.499246">
        <ele>13.401</ele>
        <time>2019-06-15T17:39:01Z</time>
      </trkpt>
      <trkpt lat="43.360598" lon="-2.499257">
        <ele>14.111</ele>
        <time>2019-06-15T17:39:02Z</time>
      </trkpt>
      <trkpt lat="43.360676" lon="-2.499253">
        <ele>14.308</ele>
        <time>2019-06-15T17:39:03Z</time>
      </trkpt>
      <trkpt lat="43.360758" lon="-2.499225">
        <ele>13.958</ele>
        <time>2019-06-15T17:39:04Z</time>
      </trkpt>
      <trkpt lat="43.360848" lon="-2.499176">
        <ele>13.322</ele>
        <time>2019-06-15T17:39:05Z</time>
      </trkpt>
      <trkpt lat="43.360934" lon="-2.499118">
        <ele>11.951</ele>
        <time>2019-06-15T17:39:06Z</time>
      </trkpt>
      <trkpt lat="43.361048" lon="-2.499080">
        <ele>11.660</ele>
        <time>2019-06-15T17:39:07Z</time>
      </trkpt>
      <trkpt lat="43.361136" lon="-2.499050">
        <ele>11.329</ele>
        <time>2019-06-15T17:39:08Z</time>
      </trkpt>
      <trkpt lat="43.361230" lon="-2.499030">
        <ele>11.040</ele>
        <time>2019-06-15T17:39:09Z</time>
      </trkpt>
      <trkpt lat="43.361356" lon="-2.499053">
        <ele>12.429</ele>
        <time>2019-06-15T17:39:10Z</time>
      </trkpt>
      <trkpt lat="43.361460" lon="-2.499058">
        <ele>11.883</ele>
        <time>2019-06-15T17:39:11Z</time>
      </trkpt>
      <trkpt lat="43.361590" lon="-2.499130">
        <ele>12.344</ele>
        <time>2019-06-15T17:39:12Z</time>
      </trkpt>
      <trkpt lat="43.361679" lon="-2.499202">
        <ele>12.605</ele>
        <time>2019-06-15T17:39:13Z</time>
      </trkpt>
      <trkpt lat="43.361747" lon="-2.499271">
        <ele>12.815</ele>
        <time>2019-06-15T17:39:14Z</time>
      </trkpt>
      <trkpt lat="43.361806" lon="-2.499357">
        <ele>13.108</ele>
        <time>2019-06-15T17:39:15Z</time>
      </trkpt>
      <trkpt lat="43.361883" lon="-2.499476">
        <ele>13.117</ele>
        <time>2019-06-15T17:39:16Z</time>
      </trkpt>
      <trkpt lat="43.361953" lon="-2.499593">
        <ele>13.581</ele>
        <time>2019-06-15T17:39:17Z</time>
      </trkpt>
      <trkpt lat="43.362006" lon="-2.499724">
        <ele>14.340</ele>
        <time>2019-06-15T17:39:18Z</time>
      </trkpt>
      <trkpt lat="43.362066" lon="-2.499853">
        <ele>14.629</ele>
        <time>2019-06-15T17:39:19Z</time>
      </trkpt>
      <trkpt lat="43.362145" lon="-2.499979">
        <ele>14.288</ele>
        <time>2019-06-15T17:39:20Z</time>
      </trkpt>
      <trkpt lat="43.362209" lon="-2.500100">
        <ele>13.949</ele>
        <time>2019-06-15T17:39:21Z</time>
      </trkpt>
      <trkpt lat="43.362286" lon="-2.500226">
        <ele>13.358</ele>
        <time>2019-06-15T17:39:22Z</time>
      </trkpt>
      <trkpt lat="43.362339" lon="-2.500352">
        <ele>13.292</ele>
        <time>2019-06-15T17:39:23Z</time>
      </trkpt>
      <trkpt lat="43.362381" lon="-2.500475">
        <ele>13.327</ele>
        <time>2019-06-15T17:39:24Z</time>
      </trkpt>
      <trkpt lat="43.362431" lon="-2.500604">
        <ele>12.968</ele>
        <time>2019-06-15T17:39:25Z</time>
      </trkpt>
      <trkpt lat="43.362495" lon="-2.500715">
        <ele>11.314</ele>
        <time>2019-06-15T17:39:26Z</time>
      </trkpt>
      <trkpt lat="43.362557" lon="-2.500829">
        <ele>10.708</ele>
        <time>2019-06-15T17:39:27Z</time>
      </trkpt>
      <trkpt lat="43.362600" lon="-2.500934">
        <ele>10.865</ele>
        <time>2019-06-15T17:39:28Z</time>
      </trkpt>
      <trkpt lat="43.362625" lon="-2.501024">
        <ele>11.149</ele>
        <time>2019-06-15T17:39:29Z</time>
      </trkpt>
      <trkpt lat="43.362651" lon="-2.501102">
        <ele>11.128</ele>
        <time>2019-06-15T17:39:30Z</time>
      </trkpt>
      <trkpt lat="43.362684" lon="-2.501163">
        <ele>10.857</ele>
        <time>2019-06-15T17:39:31Z</time>
      </trkpt>
      <trkpt lat="43.362707" lon="-2.501226">
        <ele>10.726</ele>
        <time>2019-06-15T17:39:32Z</time>
      </trkpt>
      <trkpt lat="43.362706" lon="-2.501296">
        <ele>11.377</ele>
        <time>2019-06-15T17:39:34Z</time>
      </trkpt>
      <trkpt lat="43.362706" lon="-2.501372">
        <ele>11.966</ele>
        <time>2019-06-15T17:39:36Z</time>
      </trkpt>
      <trkpt lat="43.362706" lon="-2.501436">
        <ele>12.130</ele>
        <time>2019-06-15T17:39:38Z</time>
      </trkpt>
      <trkpt lat="43.362732" lon="-2.501511">
        <ele>11.469</ele>
        <time>2019-06-15T17:39:40Z</time>
      </trkpt>
      <trkpt lat="43.362764" lon="-2.501593">
        <ele>10.404</ele>
        <time>2019-06-15T17:39:42Z</time>
      </trkpt>
      <trkpt lat="43.362781" lon="-2.501652">
        <ele>10.024</ele>
        <time>2019-06-15T17:39:44Z</time>
      </trkpt>
      <trkpt lat="43.362804" lon="-2.501707">
        <ele>10.008</ele>
        <time>2019-06-15T17:39:47Z</time>
      </trkpt>
      <trkpt lat="43.362826" lon="-2.501783">
        <ele>10.239</ele>
        <time>2019-06-15T17:39:50Z</time>
      </trkpt>
      <trkpt lat="43.362840" lon="-2.501855">
        <ele>10.313</ele>
        <time>2019-06-15T17:39:52Z</time>
      </trkpt>
      <trkpt lat="43.362867" lon="-2.501933">
        <ele>10.392</ele>
        <time>2019-06-15T17:39:54Z</time>
      </trkpt>
      <trkpt lat="43.362903" lon="-2.502016">
        <ele>10.091</ele>
        <time>2019-06-15T17:39:56Z</time>
      </trkpt>
      <trkpt lat="43.362942" lon="-2.502114">
        <ele>9.550</ele>
        <time>2019-06-15T17:39:58Z</time>
      </trkpt>
      <trkpt lat="43.362982" lon="-2.502225">
        <ele>8.831</ele>
        <time>2019-06-15T17:40:00Z</time>
      </trkpt>
      <trkpt lat="43.362996" lon="-2.502295">
        <ele>8.740</ele>
        <time>2019-06-15T17:40:01Z</time>
      </trkpt>
      <trkpt lat="43.363016" lon="-2.502361">
        <ele>8.544</ele>
        <time>2019-06-15T17:40:02Z</time>
      </trkpt>
      <trkpt lat="43.363017" lon="-2.502444">
        <ele>8.539</ele>
        <time>2019-06-15T17:40:03Z</time>
      </trkpt>
      <trkpt lat="43.363030" lon="-2.502526">
        <ele>8.501</ele>
        <time>2019-06-15T17:40:04Z</time>
      </trkpt>
      <trkpt lat="43.363024" lon="-2.502633">
        <ele>8.921</ele>
        <time>2019-06-15T17:40:05Z</time>
      </trkpt>
      <trkpt lat="43.363026" lon="-2.502731">
        <ele>9.308</ele>
        <time>2019-06-15T17:40:06Z</time>
      </trkpt>
      <trkpt lat="43.363035" lon="-2.502835">
        <ele>9.366</ele>
        <time>2019-06-15T17:40:07Z</time>
      </trkpt>
      <trkpt lat="43.363029" lon="-2.502925">
        <ele>9.440</ele>
        <time>2019-06-15T17:40:08Z</time>
      </trkpt>
      <trkpt lat="43.363036" lon="-2.502998">
        <ele>9.319</ele>
        <time>2019-06-15T17:40:09Z</time>
      </trkpt>
      <trkpt lat="43.363040" lon="-2.503065">
        <ele>9.498</ele>
        <time>2019-06-15T17:40:10Z</time>
      </trkpt>
      <trkpt lat="43.363054" lon="-2.503133">
        <ele>9.957</ele>
        <time>2019-06-15T17:40:11Z</time>
      </trkpt>
      <trkpt lat="43.363072" lon="-2.503193">
        <ele>10.488</ele>
        <time>2019-06-15T17:40:12Z</time>
      </trkpt>
      <trkpt lat="43.363147" lon="-2.503193">
        <ele>9.887</ele>
        <time>2019-06-15T17:40:15Z</time>
      </trkpt>
      <trkpt lat="43.363218" lon="-2.503182">
        <ele>9.261</ele>
        <time>2019-06-15T17:40:16Z</time>
      </trkpt>
      <trkpt lat="43.363231" lon="-2.503250">
        <ele>9.826</ele>
        <time>2019-06-15T17:40:19Z</time>
      </trkpt>
      <trkpt lat="43.363258" lon="-2.503331">
        <ele>10.547</ele>
        <time>2019-06-15T17:40:21Z</time>
      </trkpt>
      <trkpt lat="43.363325" lon="-2.503436">
        <ele>10.811</ele>
        <time>2019-06-15T17:40:23Z</time>
      </trkpt>
      <trkpt lat="43.363349" lon="-2.503507">
        <ele>11.208</ele>
        <time>2019-06-15T17:40:24Z</time>
      </trkpt>
      <trkpt lat="43.363381" lon="-2.503580">
        <ele>11.635</ele>
        <time>2019-06-15T17:40:25Z</time>
      </trkpt>
      <trkpt lat="43.363402" lon="-2.503665">
        <ele>12.149</ele>
        <time>2019-06-15T17:40:26Z</time>
      </trkpt>
      <trkpt lat="43.363440" lon="-2.503741">
        <ele>12.428</ele>
        <time>2019-06-15T17:40:27Z</time>
      </trkpt>
      <trkpt lat="43.363461" lon="-2.503800">
        <ele>12.677</ele>
        <time>2019-06-15T17:40:28Z</time>
      </trkpt>
      <trkpt lat="43.363486" lon="-2.503860">
        <ele>12.876</ele>
        <time>2019-06-15T17:40:29Z</time>
      </trkpt>
      <trkpt lat="43.363522" lon="-2.503962">
        <ele>12.787</ele>
        <time>2019-06-15T17:40:31Z</time>
      </trkpt>
      <trkpt lat="43.363564" lon="-2.504045">
        <ele>12.496</ele>
        <time>2019-06-15T17:40:33Z</time>
      </trkpt>
      <trkpt lat="43.363597" lon="-2.504105">
        <ele>12.110</ele>
        <time>2019-06-15T17:40:34Z</time>
      </trkpt>
      <trkpt lat="43.363618" lon="-2.504170">
        <ele>12.117</ele>
        <time>2019-06-15T17:40:35Z</time>
      </trkpt>
      <trkpt lat="43.363653" lon="-2.504215">
        <ele>12.487</ele>
        <time>2019-06-15T17:40:36Z</time>
      </trkpt>
      <trkpt lat="43.363667" lon="-2.504283">
        <ele>12.415</ele>
        <time>2019-06-15T17:40:38Z</time>
      </trkpt>
      <trkpt lat="43.363681" lon="-2.504377">
        <ele>12.408</ele>
        <time>2019-06-15T17:40:40Z</time>
      </trkpt>
      <trkpt lat="43.363705" lon="-2.504429">
        <ele>12.434</ele>
        <time>2019-06-15T17:40:41Z</time>
      </trkpt>
      <trkpt lat="43.363735" lon="-2.504501">
        <ele>12.418</ele>
        <time>2019-06-15T17:40:42Z</time>
      </trkpt>
      <trkpt lat="43.363800" lon="-2.504613">
        <ele>12.727</ele>
        <time>2019-06-15T17:40:44Z</time>
      </trkpt>
      <trkpt lat="43.363839" lon="-2.504679">
        <ele>12.866</ele>
        <time>2019-06-15T17:40:45Z</time>
      </trkpt>
      <trkpt lat="43.363876" lon="-2.504735">
        <ele>13.065</ele>
        <time>2019-06-15T17:40:46Z</time>
      </trkpt>
      <trkpt lat="43.363901" lon="-2.504802">
        <ele>13.166</ele>
        <time>2019-06-15T17:40:47Z</time>
      </trkpt>
      <trkpt lat="43.363927" lon="-2.504866">
        <ele>13.315</ele>
        <time>2019-06-15T17:40:48Z</time>
      </trkpt>
      <trkpt lat="43.363951" lon="-2.504922">
        <ele>13.639</ele>
        <time>2019-06-15T17:40:49Z</time>
      </trkpt>
      <trkpt lat="43.363961" lon="-2.505005">
        <ele>13.853</ele>
        <time>2019-06-15T17:40:51Z</time>
      </trkpt>
      <trkpt lat="43.363983" lon="-2.505151">
        <ele>13.704</ele>
        <time>2019-06-15T17:40:53Z</time>
      </trkpt>
      <trkpt lat="43.363999" lon="-2.505235">
        <ele>13.714</ele>
        <time>2019-06-15T17:40:54Z</time>
      </trkpt>
      <trkpt lat="43.364049" lon="-2.505331">
        <ele>14.308</ele>
        <time>2019-06-15T17:40:55Z</time>
      </trkpt>
      <trkpt lat="43.364090" lon="-2.505438">
        <ele>14.938</ele>
        <time>2019-06-15T17:40:56Z</time>
      </trkpt>
      <trkpt lat="43.364126" lon="-2.505506">
        <ele>15.452</ele>
        <time>2019-06-15T17:40:57Z</time>
      </trkpt>
      <trkpt lat="43.364181" lon="-2.505660">
        <ele>16.991</ele>
        <time>2019-06-15T17:40:58Z</time>
      </trkpt>
      <trkpt lat="43.364193" lon="-2.505787">
        <ele>18.060</ele>
        <time>2019-06-15T17:40:59Z</time>
      </trkpt>
      <trkpt lat="43.364192" lon="-2.505917">
        <ele>18.649</ele>
        <time>2019-06-15T17:41:00Z</time>
      </trkpt>
      <trkpt lat="43.364191" lon="-2.506046">
        <ele>19.290</ele>
        <time>2019-06-15T17:41:01Z</time>
      </trkpt>
      <trkpt lat="43.364174" lon="-2.506172">
        <ele>19.439</ele>
        <time>2019-06-15T17:41:02Z</time>
      </trkpt>
      <trkpt lat="43.364167" lon="-2.506282">
        <ele>19.623</ele>
        <time>2019-06-15T17:41:03Z</time>
      </trkpt>
      <trkpt lat="43.364139" lon="-2.506384">
        <ele>19.772</ele>
        <time>2019-06-15T17:41:04Z</time>
      </trkpt>
      <trkpt lat="43.364132" lon="-2.506494">
        <ele>20.413</ele>
        <time>2019-06-15T17:41:05Z</time>
      </trkpt>
      <trkpt lat="43.364118" lon="-2.506634">
        <ele>21.214</ele>
        <time>2019-06-15T17:41:06Z</time>
      </trkpt>
      <trkpt lat="43.364095" lon="-2.506734">
        <ele>21.708</ele>
        <time>2019-06-15T17:41:07Z</time>
      </trkpt>
      <trkpt lat="43.364088" lon="-2.506864">
        <ele>22.660</ele>
        <time>2019-06-15T17:41:08Z</time>
      </trkpt>
      <trkpt lat="43.364078" lon="-2.506981">
        <ele>23.214</ele>
        <time>2019-06-15T17:41:09Z</time>
      </trkpt>
      <trkpt lat="43.364063" lon="-2.507137">
        <ele>23.633</ele>
        <time>2019-06-15T17:41:10Z</time>
      </trkpt>
      <trkpt lat="43.364047" lon="-2.507269">
        <ele>24.132</ele>
        <time>2019-06-15T17:41:11Z</time>
      </trkpt>
      <trkpt lat="43.364026" lon="-2.507412">
        <ele>25.241</ele>
        <time>2019-06-15T17:41:12Z</time>
      </trkpt>
      <trkpt lat="43.364026" lon="-2.507548">
        <ele>26.492</ele>
        <time>2019-06-15T17:41:13Z</time>
      </trkpt>
      <trkpt lat="43.364010" lon="-2.507673">
        <ele>27.351</ele>
        <time>2019-06-15T17:41:14Z</time>
      </trkpt>
      <trkpt lat="43.363993" lon="-2.507794">
        <ele>28.055</ele>
        <time>2019-06-15T17:41:15Z</time>
      </trkpt>
      <trkpt lat="43.363980" lon="-2.507904">
        <ele>28.453</ele>
        <time>2019-06-15T17:41:16Z</time>
      </trkpt>
      <trkpt lat="43.363952" lon="-2.508012">
        <ele>28.604</ele>
        <time>2019-06-15T17:41:17Z</time>
      </trkpt>
      <trkpt lat="43.363923" lon="-2.508124">
        <ele>29.014</ele>
        <time>2019-06-15T17:41:18Z</time>
      </trkpt>
      <trkpt lat="43.363877" lon="-2.508222">
        <ele>29.108</ele>
        <time>2019-06-15T17:41:19Z</time>
      </trkpt>
      <trkpt lat="43.363840" lon="-2.508331">
        <ele>29.588</ele>
        <time>2019-06-15T17:41:20Z</time>
      </trkpt>
      <trkpt lat="43.363810" lon="-2.508477">
        <ele>30.052</ele>
        <time>2019-06-15T17:41:21Z</time>
      </trkpt>
      <trkpt lat="43.363783" lon="-2.508621">
        <ele>30.691</ele>
        <time>2019-06-15T17:41:22Z</time>
      </trkpt>
      <trkpt lat="43.363727" lon="-2.508748">
        <ele>30.780</ele>
        <time>2019-06-15T17:41:23Z</time>
      </trkpt>
      <trkpt lat="43.363651" lon="-2.508851">
        <ele>30.919</ele>
        <time>2019-06-15T17:41:24Z</time>
      </trkpt>
      <trkpt lat="43.363564" lon="-2.508943">
        <ele>31.660</ele>
        <time>2019-06-15T17:41:25Z</time>
      </trkpt>
      <trkpt lat="43.363476" lon="-2.509036">
        <ele>32.589</ele>
        <time>2019-06-15T17:41:26Z</time>
      </trkpt>
      <trkpt lat="43.363393" lon="-2.509097">
        <ele>33.393</ele>
        <time>2019-06-15T17:41:27Z</time>
      </trkpt>
      <trkpt lat="43.363313" lon="-2.509170">
        <ele>34.232</ele>
        <time>2019-06-15T17:41:28Z</time>
      </trkpt>
      <trkpt lat="43.363290" lon="-2.509255">
        <ele>35.792</ele>
        <time>2019-06-15T17:41:29Z</time>
      </trkpt>
      <trkpt lat="43.363223" lon="-2.509352">
        <ele>36.811</ele>
        <time>2019-06-15T17:41:30Z</time>
      </trkpt>
      <trkpt lat="43.363161" lon="-2.509455">
        <ele>37.208</ele>
        <time>2019-06-15T17:41:31Z</time>
      </trkpt>
      <trkpt lat="43.363110" lon="-2.509559">
        <ele>37.116</ele>
        <time>2019-06-15T17:41:32Z</time>
      </trkpt>
      <trkpt lat="43.363058" lon="-2.509655">
        <ele>36.840</ele>
        <time>2019-06-15T17:41:33Z</time>
      </trkpt>
      <trkpt lat="43.363033" lon="-2.509757">
        <ele>37.059</ele>
        <time>2019-06-15T17:41:34Z</time>
      </trkpt>
      <trkpt lat="43.363029" lon="-2.509867">
        <ele>37.038</ele>
        <time>2019-06-15T17:41:35Z</time>
      </trkpt>
      <trkpt lat="43.363023" lon="-2.509979">
        <ele>36.937</ele>
        <time>2019-06-15T17:41:36Z</time>
      </trkpt>
      <trkpt lat="43.363045" lon="-2.510096">
        <ele>36.648</ele>
        <time>2019-06-15T17:41:37Z</time>
      </trkpt>
      <trkpt lat="43.363071" lon="-2.510220">
        <ele>36.467</ele>
        <time>2019-06-15T17:41:38Z</time>
      </trkpt>
      <trkpt lat="43.363095" lon="-2.510348">
        <ele>36.461</ele>
        <time>2019-06-15T17:41:39Z</time>
      </trkpt>
      <trkpt lat="43.363146" lon="-2.510498">
        <ele>36.791</ele>
        <time>2019-06-15T17:41:40Z</time>
      </trkpt>
      <trkpt lat="43.363204" lon="-2.510655">
        <ele>37.181</ele>
        <time>2019-06-15T17:41:41Z</time>
      </trkpt>
      <trkpt lat="43.363253" lon="-2.510801">
        <ele>37.819</ele>
        <time>2019-06-15T17:41:42Z</time>
      </trkpt>
      <trkpt lat="43.363309" lon="-2.510984">
        <ele>38.708</ele>
        <time>2019-06-15T17:41:43Z</time>
      </trkpt>
      <trkpt lat="43.363376" lon="-2.511153">
        <ele>39.282</ele>
        <time>2019-06-15T17:41:44Z</time>
      </trkpt>
      <trkpt lat="43.363441" lon="-2.511304">
        <ele>39.676</ele>
        <time>2019-06-15T17:41:45Z</time>
      </trkpt>
      <trkpt lat="43.363512" lon="-2.511448">
        <ele>40.425</ele>
        <time>2019-06-15T17:41:46Z</time>
      </trkpt>
      <trkpt lat="43.363576" lon="-2.511571">
        <ele>41.354</ele>
        <time>2019-06-15T17:41:47Z</time>
      </trkpt>
      <trkpt lat="43.363636" lon="-2.511686">
        <ele>42.293</ele>
        <time>2019-06-15T17:41:48Z</time>
      </trkpt>
      <trkpt lat="43.363681" lon="-2.511762">
        <ele>42.994</ele>
        <time>2019-06-15T17:41:49Z</time>
      </trkpt>
      <trkpt lat="43.363736" lon="-2.511847">
        <ele>43.763</ele>
        <time>2019-06-15T17:41:50Z</time>
      </trkpt>
      <trkpt lat="43.363780" lon="-2.511936">
        <ele>44.597</ele>
        <time>2019-06-15T17:41:51Z</time>
      </trkpt>
      <trkpt lat="43.363837" lon="-2.512017">
        <ele>45.156</ele>
        <time>2019-06-15T17:41:52Z</time>
      </trkpt>
      <trkpt lat="43.363878" lon="-2.512099">
        <ele>45.559</ele>
        <time>2019-06-15T17:41:53Z</time>
      </trkpt>
      <trkpt lat="43.363923" lon="-2.512182">
        <ele>46.014</ele>
        <time>2019-06-15T17:41:54Z</time>
      </trkpt>
      <trkpt lat="43.363962" lon="-2.512268">
        <ele>46.508</ele>
        <time>2019-06-15T17:41:55Z</time>
      </trkpt>
      <trkpt lat="43.364011" lon="-2.512364">
        <ele>47.258</ele>
        <time>2019-06-15T17:41:56Z</time>
      </trkpt>
      <trkpt lat="43.364072" lon="-2.512456">
        <ele>47.892</ele>
        <time>2019-06-15T17:41:57Z</time>
      </trkpt>
      <trkpt lat="43.364137" lon="-2.512514">
        <ele>48.021</ele>
        <time>2019-06-15T17:41:58Z</time>
      </trkpt>
      <trkpt lat="43.364202" lon="-2.512568">
        <ele>48.160</ele>
        <time>2019-06-15T17:41:59Z</time>
      </trkpt>
      <trkpt lat="43.364277" lon="-2.512605">
        <ele>48.439</ele>
        <time>2019-06-15T17:42:00Z</time>
      </trkpt>
      <trkpt lat="43.364356" lon="-2.512637">
        <ele>48.720</ele>
        <time>2019-06-15T17:42:01Z</time>
      </trkpt>
      <trkpt lat="43.364421" lon="-2.512693">
        <ele>48.929</ele>
        <time>2019-06-15T17:42:02Z</time>
      </trkpt>
      <trkpt lat="43.364490" lon="-2.512773">
        <ele>49.373</ele>
        <time>2019-06-15T17:42:03Z</time>
      </trkpt>
      <trkpt lat="43.364548" lon="-2.512881">
        <ele>49.973</ele>
        <time>2019-06-15T17:42:04Z</time>
      </trkpt>
      <trkpt lat="43.364608" lon="-2.513006">
        <ele>50.785</ele>
        <time>2019-06-15T17:42:05Z</time>
      </trkpt>
      <trkpt lat="43.364676" lon="-2.513129">
        <ele>50.813</ele>
        <time>2019-06-15T17:42:06Z</time>
      </trkpt>
      <trkpt lat="43.364765" lon="-2.513240">
        <ele>50.408</ele>
        <time>2019-06-15T17:42:07Z</time>
      </trkpt>
      <trkpt lat="43.364888" lon="-2.513326">
        <ele>50.930</ele>
        <time>2019-06-15T17:42:08Z</time>
      </trkpt>
      <trkpt lat="43.365022" lon="-2.513406">
        <ele>52.194</ele>
        <time>2019-06-15T17:42:09Z</time>
      </trkpt>
      <trkpt lat="43.365168" lon="-2.513474">
        <ele>52.623</ele>
        <time>2019-06-15T17:42:10Z</time>
      </trkpt>
      <trkpt lat="43.365318" lon="-2.513531">
        <ele>52.862</ele>
        <time>2019-06-15T17:42:11Z</time>
      </trkpt>
      <trkpt lat="43.365471" lon="-2.513594">
        <ele>52.921</ele>
        <time>2019-06-15T17:42:12Z</time>
      </trkpt>
      <trkpt lat="43.365628" lon="-2.513656">
        <ele>53.682</ele>
        <time>2019-06-15T17:42:13Z</time>
      </trkpt>
      <trkpt lat="43.365785" lon="-2.513721">
        <ele>54.891</ele>
        <time>2019-06-15T17:42:14Z</time>
      </trkpt>
      <trkpt lat="43.365950" lon="-2.513807">
        <ele>55.325</ele>
        <time>2019-06-15T17:42:15Z</time>
      </trkpt>
      <trkpt lat="43.366110" lon="-2.513908">
        <ele>55.783</ele>
        <time>2019-06-15T17:42:16Z</time>
      </trkpt>
      <trkpt lat="43.366272" lon="-2.514013">
        <ele>56.025</ele>
        <time>2019-06-15T17:42:17Z</time>
      </trkpt>
      <trkpt lat="43.366424" lon="-2.514141">
        <ele>58.917</ele>
        <time>2019-06-15T17:42:18Z</time>
      </trkpt>
      <trkpt lat="43.366571" lon="-2.514287">
        <ele>59.608</ele>
        <time>2019-06-15T17:42:19Z</time>
      </trkpt>
      <trkpt lat="43.366709" lon="-2.514455">
        <ele>61.761</ele>
        <time>2019-06-15T17:42:20Z</time>
      </trkpt>
      <trkpt lat="43.366837" lon="-2.514655">
        <ele>62.545</ele>
        <time>2019-06-15T17:42:21Z</time>
      </trkpt>
      <trkpt lat="43.366948" lon="-2.514861">
        <ele>65.584</ele>
        <time>2019-06-15T17:42:22Z</time>
      </trkpt>
      <trkpt lat="43.367033" lon="-2.515077">
        <ele>66.443</ele>
        <time>2019-06-15T17:42:23Z</time>
      </trkpt>
      <trkpt lat="43.367101" lon="-2.515318">
        <ele>67.122</ele>
        <time>2019-06-15T17:42:24Z</time>
      </trkpt>
      <trkpt lat="43.367140" lon="-2.515583">
        <ele>67.923</ele>
        <time>2019-06-15T17:42:25Z</time>
      </trkpt>
      <trkpt lat="43.367174" lon="-2.515857">
        <ele>69.642</ele>
        <time>2019-06-15T17:42:26Z</time>
      </trkpt>
      <trkpt lat="43.367188" lon="-2.516129">
        <ele>73.556</ele>
        <time>2019-06-15T17:42:27Z</time>
      </trkpt>
      <trkpt lat="43.367177" lon="-2.516402">
        <ele>77.287</ele>
        <time>2019-06-15T17:42:28Z</time>
      </trkpt>
      <trkpt lat="43.367152" lon="-2.516670">
        <ele>80.342</ele>
        <time>2019-06-15T17:42:29Z</time>
      </trkpt>
      <trkpt lat="43.367102" lon="-2.516936">
        <ele>83.126</ele>
        <time>2019-06-15T17:42:30Z</time>
      </trkpt>
      <trkpt lat="43.367033" lon="-2.517201">
        <ele>84.208</ele>
        <time>2019-06-15T17:42:31Z</time>
      </trkpt>
      <trkpt lat="43.366939" lon="-2.517461">
        <ele>85.051</ele>
        <time>2019-06-15T17:42:32Z</time>
      </trkpt>
      <trkpt lat="43.366820" lon="-2.517687">
        <ele>87.015</ele>
        <time>2019-06-15T17:42:33Z</time>
      </trkpt>
      <trkpt lat="43.366698" lon="-2.517893">
        <ele>87.024</ele>
        <time>2019-06-15T17:42:34Z</time>
      </trkpt>
      <trkpt lat="43.366560" lon="-2.518075">
        <ele>87.843</ele>
        <time>2019-06-15T17:42:35Z</time>
      </trkpt>
      <trkpt lat="43.366415" lon="-2.518245">
        <ele>88.892</ele>
        <time>2019-06-15T17:42:36Z</time>
      </trkpt>
      <trkpt lat="43.366277" lon="-2.518407">
        <ele>89.513</ele>
        <time>2019-06-15T17:42:37Z</time>
      </trkpt>
      <trkpt lat="43.366141" lon="-2.518543">
        <ele>89.512</ele>
        <time>2019-06-15T17:42:38Z</time>
      </trkpt>
      <trkpt lat="43.366013" lon="-2.518674">
        <ele>89.686</ele>
        <time>2019-06-15T17:42:39Z</time>
      </trkpt>
      <trkpt lat="43.365892" lon="-2.518794">
        <ele>90.056</ele>
        <time>2019-06-15T17:42:40Z</time>
      </trkpt>
      <trkpt lat="43.365780" lon="-2.518902">
        <ele>90.459</ele>
        <time>2019-06-15T17:42:41Z</time>
      </trkpt>
      <trkpt lat="43.365679" lon="-2.519033">
        <ele>90.314</ele>
        <time>2019-06-15T17:42:42Z</time>
      </trkpt>
      <trkpt lat="43.365580" lon="-2.519171">
        <ele>92.608</ele>
        <time>2019-06-15T17:42:43Z</time>
      </trkpt>
      <trkpt lat="43.365487" lon="-2.519315">
        <ele>91.288</ele>
        <time>2019-06-15T17:42:44Z</time>
      </trkpt>
      <trkpt lat="43.365395" lon="-2.519469">
        <ele>92.522</ele>
        <time>2019-06-15T17:42:45Z</time>
      </trkpt>
      <trkpt lat="43.365303" lon="-2.519640">
        <ele>95.091</ele>
        <time>2019-06-15T17:42:46Z</time>
      </trkpt>
      <trkpt lat="43.365223" lon="-2.519812">
        <ele>97.420</ele>
        <time>2019-06-15T17:42:47Z</time>
      </trkpt>
      <trkpt lat="43.365152" lon="-2.520005">
        <ele>99.269</ele>
        <time>2019-06-15T17:42:48Z</time>
      </trkpt>
      <trkpt lat="43.365069" lon="-2.520205">
        <ele>101.370</ele>
        <time>2019-06-15T17:42:49Z</time>
      </trkpt>
      <trkpt lat="43.365007" lon="-2.520434">
        <ele>102.569</ele>
        <time>2019-06-15T17:42:50Z</time>
      </trkpt>
      <trkpt lat="43.364944" lon="-2.520670">
        <ele>105.313</ele>
        <time>2019-06-15T17:42:51Z</time>
      </trkpt>
      <trkpt lat="43.364883" lon="-2.520905">
        <ele>107.535</ele>
        <time>2019-06-15T17:42:52Z</time>
      </trkpt>
      <trkpt lat="43.364819" lon="-2.521152">
        <ele>109.386</ele>
        <time>2019-06-15T17:42:53Z</time>
      </trkpt>
      <trkpt lat="43.364728" lon="-2.521387">
        <ele>109.114</ele>
        <time>2019-06-15T17:42:54Z</time>
      </trkpt>
      <trkpt lat="43.364640" lon="-2.521612">
        <ele>113.108</ele>
        <time>2019-06-15T17:42:55Z</time>
      </trkpt>
      <trkpt lat="43.364531" lon="-2.521821">
        <ele>115.226</ele>
        <time>2019-06-15T17:42:56Z</time>
      </trkpt>
      <trkpt lat="43.364397" lon="-2.522020">
        <ele>115.860</ele>
        <time>2019-06-15T17:42:57Z</time>
      </trkpt>
      <trkpt lat="43.364260" lon="-2.522172">
        <ele>117.319</ele>
        <time>2019-06-15T17:42:58Z</time>
      </trkpt>
      <trkpt lat="43.364095" lon="-2.522302">
        <ele>118.018</ele>
        <time>2019-06-15T17:42:59Z</time>
      </trkpt>
      <trkpt lat="43.363911" lon="-2.522403">
        <ele>118.917</ele>
        <time>2019-06-15T17:43:00Z</time>
      </trkpt>
      <trkpt lat="43.363713" lon="-2.522492">
        <ele>119.088</ele>
        <time>2019-06-15T17:43:01Z</time>
      </trkpt>
      <trkpt lat="43.363511" lon="-2.522498">
        <ele>119.797</ele>
        <time>2019-06-15T17:43:02Z</time>
      </trkpt>
      <trkpt lat="43.363306" lon="-2.522495">
        <ele>121.321</ele>
        <time>2019-06-15T17:43:03Z</time>
      </trkpt>
      <trkpt lat="43.363127" lon="-2.522468">
        <ele>123.496</ele>
        <time>2019-06-15T17:43:04Z</time>
      </trkpt>
      <trkpt lat="43.362935" lon="-2.522417">
        <ele>126.731</ele>
        <time>2019-06-15T17:43:05Z</time>
      </trkpt>
      <trkpt lat="43.362757" lon="-2.522325">
        <ele>129.224</ele>
        <time>2019-06-15T17:43:06Z</time>
      </trkpt>
      <trkpt lat="43.362591" lon="-2.522191">
        <ele>129.008</ele>
        <time>2019-06-15T17:43:07Z</time>
      </trkpt>
      <trkpt lat="43.362420" lon="-2.522059">
        <ele>131.182</ele>
        <time>2019-06-15T17:43:08Z</time>
      </trkpt>
      <trkpt lat="43.362256" lon="-2.521939">
        <ele>130.886</ele>
        <time>2019-06-15T17:43:09Z</time>
      </trkpt>
      <trkpt lat="43.362105" lon="-2.521849">
        <ele>132.185</ele>
        <time>2019-06-15T17:43:10Z</time>
      </trkpt>
      <trkpt lat="43.361946" lon="-2.521767">
        <ele>133.154</ele>
        <time>2019-06-15T17:43:11Z</time>
      </trkpt>
      <trkpt lat="43.361779" lon="-2.521706">
        <ele>133.393</ele>
        <time>2019-06-15T17:43:12Z</time>
      </trkpt>
      <trkpt lat="43.361589" lon="-2.521666">
        <ele>133.374</ele>
        <time>2019-06-15T17:43:13Z</time>
      </trkpt>
      <trkpt lat="43.361399" lon="-2.521638">
        <ele>133.833</ele>
        <time>2019-06-15T17:43:14Z</time>
      </trkpt>
      <trkpt lat="43.361220" lon="-2.521658">
        <ele>134.017</ele>
        <time>2019-06-15T17:43:15Z</time>
      </trkpt>
      <trkpt lat="43.361048" lon="-2.521694">
        <ele>134.245</ele>
        <time>2019-06-15T17:43:16Z</time>
      </trkpt>
      <trkpt lat="43.360873" lon="-2.521748">
        <ele>134.147</ele>
        <time>2019-06-15T17:43:17Z</time>
      </trkpt>
      <trkpt lat="43.360703" lon="-2.521841">
        <ele>134.011</ele>
        <time>2019-06-15T17:43:18Z</time>
      </trkpt>
      <trkpt lat="43.360537" lon="-2.521969">
        <ele>134.208</ele>
        <time>2019-06-15T17:43:19Z</time>
      </trkpt>
      <trkpt lat="43.360375" lon="-2.522104">
        <ele>134.777</ele>
        <time>2019-06-15T17:43:20Z</time>
      </trkpt>
      <trkpt lat="43.360217" lon="-2.522266">
        <ele>134.851</ele>
        <time>2019-06-15T17:43:21Z</time>
      </trkpt>
      <trkpt lat="43.360074" lon="-2.522435">
        <ele>136.760</ele>
        <time>2019-06-15T17:43:22Z</time>
      </trkpt>
      <trkpt lat="43.359934" lon="-2.522616">
        <ele>138.659</ele>
        <time>2019-06-15T17:43:23Z</time>
      </trkpt>
      <trkpt lat="43.359822" lon="-2.522804">
        <ele>141.188</ele>
        <time>2019-06-15T17:43:24Z</time>
      </trkpt>
      <trkpt lat="43.359692" lon="-2.522978">
        <ele>141.689</ele>
        <time>2019-06-15T17:43:25Z</time>
      </trkpt>
      <trkpt lat="43.359555" lon="-2.523154">
        <ele>141.828</ele>
        <time>2019-06-15T17:43:26Z</time>
      </trkpt>
      <trkpt lat="43.359491" lon="-2.523357">
        <ele>144.142</ele>
        <time>2019-06-15T17:43:27Z</time>
      </trkpt>
      <trkpt lat="43.359397" lon="-2.523517">
        <ele>143.524</ele>
        <time>2019-06-15T17:43:28Z</time>
      </trkpt>
      <trkpt lat="43.359307" lon="-2.523668">
        <ele>144.504</ele>
        <time>2019-06-15T17:43:29Z</time>
      </trkpt>
      <trkpt lat="43.359186" lon="-2.523783">
        <ele>145.614</ele>
        <time>2019-06-15T17:43:30Z</time>
      </trkpt>
      <trkpt lat="43.359067" lon="-2.523900">
        <ele>147.308</ele>
        <time>2019-06-15T17:43:31Z</time>
      </trkpt>
      <trkpt lat="43.358933" lon="-2.523917">
        <ele>146.595</ele>
        <time>2019-06-15T17:43:32Z</time>
      </trkpt>
      <trkpt lat="43.358799" lon="-2.523983">
        <ele>148.679</ele>
        <time>2019-06-15T17:43:33Z</time>
      </trkpt>
      <trkpt lat="43.358669" lon="-2.524019">
        <ele>150.188</ele>
        <time>2019-06-15T17:43:34Z</time>
      </trkpt>
      <trkpt lat="43.358547" lon="-2.524031">
        <ele>151.547</ele>
        <time>2019-06-15T17:43:35Z</time>
      </trkpt>
      <trkpt lat="43.358415" lon="-2.524037">
        <ele>153.616</ele>
        <time>2019-06-15T17:43:36Z</time>
      </trkpt>
      <trkpt lat="43.358295" lon="-2.524024">
        <ele>155.037</ele>
        <time>2019-06-15T17:43:37Z</time>
      </trkpt>
      <trkpt lat="43.358162" lon="-2.523880">
        <ele>155.176</ele>
        <time>2019-06-15T17:43:38Z</time>
      </trkpt>
      <trkpt lat="43.358057" lon="-2.523776">
        <ele>155.560</ele>
        <time>2019-06-15T17:43:39Z</time>
      </trkpt>
      <trkpt lat="43.357952" lon="-2.523728">
        <ele>154.946</ele>
        <time>2019-06-15T17:43:40Z</time>
      </trkpt>
      <trkpt lat="43.357853" lon="-2.523723">
        <ele>155.188</ele>
        <time>2019-06-15T17:43:41Z</time>
      </trkpt>
      <trkpt lat="43.357736" lon="-2.523656">
        <ele>153.416</ele>
        <time>2019-06-15T17:43:42Z</time>
      </trkpt>
      <trkpt lat="43.357623" lon="-2.523709">
        <ele>152.908</ele>
        <time>2019-06-15T17:43:43Z</time>
      </trkpt>
      <trkpt lat="43.357510" lon="-2.523772">
        <ele>151.957</ele>
        <time>2019-06-15T17:43:44Z</time>
      </trkpt>
      <trkpt lat="43.357442" lon="-2.523933">
        <ele>152.891</ele>
        <time>2019-06-15T17:43:45Z</time>
      </trkpt>
      <trkpt lat="43.357363" lon="-2.524048">
        <ele>153.150</ele>
        <time>2019-06-15T17:43:46Z</time>
      </trkpt>
      <trkpt lat="43.357291" lon="-2.524171">
        <ele>153.039</ele>
        <time>2019-06-15T17:43:47Z</time>
      </trkpt>
      <trkpt lat="43.357210" lon="-2.524335">
        <ele>152.468</ele>
        <time>2019-06-15T17:43:48Z</time>
      </trkpt>
      <trkpt lat="43.357169" lon="-2.524524">
        <ele>152.769</ele>
        <time>2019-06-15T17:43:49Z</time>
      </trkpt>
      <trkpt lat="43.357121" lon="-2.524714">
        <ele>152.358</ele>
        <time>2019-06-15T17:43:50Z</time>
      </trkpt>
      <trkpt lat="43.357073" lon="-2.524911">
        <ele>151.912</ele>
        <time>2019-06-15T17:43:51Z</time>
      </trkpt>
      <trkpt lat="43.357041" lon="-2.525104">
        <ele>151.731</ele>
        <time>2019-06-15T17:43:52Z</time>
      </trkpt>
      <trkpt lat="43.357007" lon="-2.525309">
        <ele>150.961</ele>
        <time>2019-06-15T17:43:53Z</time>
      </trkpt>
      <trkpt lat="43.356993" lon="-2.525500">
        <ele>150.307</ele>
        <time>2019-06-15T17:43:54Z</time>
      </trkpt>
      <trkpt lat="43.356986" lon="-2.525672">
        <ele>150.308</ele>
        <time>2019-06-15T17:43:55Z</time>
      </trkpt>
      <trkpt lat="43.356941" lon="-2.525868">
        <ele>149.196</ele>
        <time>2019-06-15T17:43:56Z</time>
      </trkpt>
      <trkpt lat="43.356876" lon="-2.526037">
        <ele>148.470</ele>
        <time>2019-06-15T17:43:57Z</time>
      </trkpt>
      <trkpt lat="43.356813" lon="-2.526217">
        <ele>149.149</ele>
        <time>2019-06-15T17:43:58Z</time>
      </trkpt>
      <trkpt lat="43.356732" lon="-2.526339">
        <ele>148.518</ele>
        <time>2019-06-15T17:43:59Z</time>
      </trkpt>
      <trkpt lat="43.356647" lon="-2.526468">
        <ele>148.537</ele>
        <time>2019-06-15T17:44:00Z</time>
      </trkpt>
      <trkpt lat="43.356588" lon="-2.526592">
        <ele>149.858</ele>
        <time>2019-06-15T17:44:01Z</time>
      </trkpt>
      <trkpt lat="43.356522" lon="-2.526736">
        <ele>149.977</ele>
        <time>2019-06-15T17:44:02Z</time>
      </trkpt>
      <trkpt lat="43.356491" lon="-2.526898">
        <ele>150.151</ele>
        <time>2019-06-15T17:44:03Z</time>
      </trkpt>
      <trkpt lat="43.356477" lon="-2.527070">
        <ele>149.537</ele>
        <time>2019-06-15T17:44:04Z</time>
      </trkpt>
      <trkpt lat="43.356481" lon="-2.527265">
        <ele>149.049</ele>
        <time>2019-06-15T17:44:05Z</time>
      </trkpt>
      <trkpt lat="43.356499" lon="-2.527454">
        <ele>148.513</ele>
        <time>2019-06-15T17:44:06Z</time>
      </trkpt>
      <trkpt lat="43.356530" lon="-2.527650">
        <ele>147.708</ele>
        <time>2019-06-15T17:44:07Z</time>
      </trkpt>
      <trkpt lat="43.356559" lon="-2.527849">
        <ele>146.456</ele>
        <time>2019-06-15T17:44:08Z</time>
      </trkpt>
      <trkpt lat="43.356592" lon="-2.528047">
        <ele>145.230</ele>
        <time>2019-06-15T17:44:09Z</time>
      </trkpt>
      <trkpt lat="43.356631" lon="-2.528237">
        <ele>144.749</ele>
        <time>2019-06-15T17:44:10Z</time>
      </trkpt>
      <trkpt lat="43.356664" lon="-2.528430">
        <ele>143.998</ele>
        <time>2019-06-15T17:44:11Z</time>
      </trkpt>
      <trkpt lat="43.356711" lon="-2.528544">
        <ele>144.457</ele>
        <time>2019-06-15T17:44:12Z</time>
      </trkpt>
      <trkpt lat="43.356747" lon="-2.528713">
        <ele>143.998</ele>
        <time>2019-06-15T17:44:13Z</time>
      </trkpt>
      <trkpt lat="43.356768" lon="-2.528868">
        <ele>143.187</ele>
        <time>2019-06-15T17:44:14Z</time>
      </trkpt>
      <trkpt lat="43.356773" lon="-2.529017">
        <ele>142.531</ele>
        <time>2019-06-15T17:44:15Z</time>
      </trkpt>
      <trkpt lat="43.356783" lon="-2.529162">
        <ele>142.157</ele>
        <time>2019-06-15T17:44:16Z</time>
      </trkpt>
      <trkpt lat="43.356803" lon="-2.529291">
        <ele>141.600</ele>
        <time>2019-06-15T17:44:17Z</time>
      </trkpt>
      <trkpt lat="43.356809" lon="-2.529383">
        <ele>141.020</ele>
        <time>2019-06-15T17:44:18Z</time>
      </trkpt>
      <trkpt lat="43.356810" lon="-2.529457">
        <ele>140.408</ele>
        <time>2019-06-15T17:44:19Z</time>
      </trkpt>
      <trkpt lat="43.356818" lon="-2.529519">
        <ele>139.838</ele>
        <time>2019-06-15T17:44:22Z</time>
      </trkpt>
      <trkpt lat="43.356755" lon="-2.529488">
        <ele>140.172</ele>
        <time>2019-06-15T17:45:02Z</time>
      </trkpt>
      <trkpt lat="43.356811" lon="-2.529491">
        <ele>140.141</ele>
        <time>2019-06-15T17:46:06Z</time>
      </trkpt>
      <trkpt lat="43.356877" lon="-2.529532">
        <ele>139.660</ele>
        <time>2019-06-15T17:46:08Z</time>
      </trkpt>
      <trkpt lat="43.357023" lon="-2.529615">
        <ele>138.199</ele>
        <time>2019-06-15T17:46:09Z</time>
      </trkpt>
      <trkpt lat="43.357103" lon="-2.529675">
        <ele>137.050</ele>
        <time>2019-06-15T17:46:10Z</time>
      </trkpt>
      <trkpt lat="43.357281" lon="-2.529731">
        <ele>136.099</ele>
        <time>2019-06-15T17:46:11Z</time>
      </trkpt>
      <trkpt lat="43.357389" lon="-2.529764">
        <ele>135.563</ele>
        <time>2019-06-15T17:46:12Z</time>
      </trkpt>
      <trkpt lat="43.357523" lon="-2.529848">
        <ele>133.957</ele>
        <time>2019-06-15T17:46:13Z</time>
      </trkpt>
      <trkpt lat="43.357660" lon="-2.529893">
        <ele>133.100</ele>
        <time>2019-06-15T17:46:14Z</time>
      </trkpt>
      <trkpt lat="43.357787" lon="-2.529928">
        <ele>132.520</ele>
        <time>2019-06-15T17:46:15Z</time>
      </trkpt>
      <trkpt lat="43.357889" lon="-2.529977">
        <ele>131.308</ele>
        <time>2019-06-15T17:46:16Z</time>
      </trkpt>
      <trkpt lat="43.357991" lon="-2.530030">
        <ele>130.518</ele>
        <time>2019-06-15T17:46:17Z</time>
      </trkpt>
      <trkpt lat="43.358095" lon="-2.530082">
        <ele>130.442</ele>
        <time>2019-06-15T17:46:18Z</time>
      </trkpt>
      <trkpt lat="43.358179" lon="-2.530159">
        <ele>131.181</ele>
        <time>2019-06-15T17:46:19Z</time>
      </trkpt>
      <trkpt lat="43.358253" lon="-2.530260">
        <ele>132.110</ele>
        <time>2019-06-15T17:46:20Z</time>
      </trkpt>
      <trkpt lat="43.358308" lon="-2.530399">
        <ele>132.479</ele>
        <time>2019-06-15T17:46:21Z</time>
      </trkpt>
      <trkpt lat="43.358332" lon="-2.530553">
        <ele>132.080</ele>
        <time>2019-06-15T17:46:22Z</time>
      </trkpt>
      <trkpt lat="43.358368" lon="-2.530713">
        <ele>132.139</ele>
        <time>2019-06-15T17:46:23Z</time>
      </trkpt>
      <trkpt lat="43.358410" lon="-2.530922">
        <ele>131.923</ele>
        <time>2019-06-15T17:46:24Z</time>
      </trkpt>
      <trkpt lat="43.358463" lon="-2.531134">
        <ele>131.791</ele>
        <time>2019-06-15T17:46:25Z</time>
      </trkpt>
      <trkpt lat="43.358488" lon="-2.531356">
        <ele>129.881</ele>
        <time>2019-06-15T17:46:26Z</time>
      </trkpt>
      <trkpt lat="43.358528" lon="-2.531573">
        <ele>128.719</ele>
        <time>2019-06-15T17:46:27Z</time>
      </trkpt>
      <trkpt lat="43.358595" lon="-2.531793">
        <ele>127.908</ele>
        <time>2019-06-15T17:46:28Z</time>
      </trkpt>
      <trkpt lat="43.358647" lon="-2.532013">
        <ele>126.662</ele>
        <time>2019-06-15T17:46:29Z</time>
      </trkpt>
      <trkpt lat="43.358761" lon="-2.532256">
        <ele>130.046</ele>
        <time>2019-06-15T17:46:30Z</time>
      </trkpt>
      <trkpt lat="43.358795" lon="-2.532448">
        <ele>128.195</ele>
        <time>2019-06-15T17:46:31Z</time>
      </trkpt>
      <trkpt lat="43.358853" lon="-2.532663">
        <ele>125.774</ele>
        <time>2019-06-15T17:46:32Z</time>
      </trkpt>
      <trkpt lat="43.358912" lon="-2.532849">
        <ele>124.113</ele>
        <time>2019-06-15T17:46:33Z</time>
      </trkpt>
      <trkpt lat="43.359001" lon="-2.533077">
        <ele>124.854</ele>
        <time>2019-06-15T17:46:34Z</time>
      </trkpt>
      <trkpt lat="43.359072" lon="-2.533288">
        <ele>124.093</ele>
        <time>2019-06-15T17:46:35Z</time>
      </trkpt>
      <trkpt lat="43.359145" lon="-2.533525">
        <ele>122.977</ele>
        <time>2019-06-15T17:46:36Z</time>
      </trkpt>
      <trkpt lat="43.359175" lon="-2.533721">
        <ele>120.613</ele>
        <time>2019-06-15T17:46:37Z</time>
      </trkpt>
      <trkpt lat="43.359230" lon="-2.533975">
        <ele>119.743</ele>
        <time>2019-06-15T17:46:38Z</time>
      </trkpt>
      <trkpt lat="43.359285" lon="-2.534212">
        <ele>118.907</ele>
        <time>2019-06-15T17:46:39Z</time>
      </trkpt>
      <trkpt lat="43.359286" lon="-2.534451">
        <ele>115.808</ele>
        <time>2019-06-15T17:46:40Z</time>
      </trkpt>
      <trkpt lat="43.359339" lon="-2.534673">
        <ele>114.414</ele>
        <time>2019-06-15T17:46:41Z</time>
      </trkpt>
      <trkpt lat="43.359406" lon="-2.534916">
        <ele>113.218</ele>
        <time>2019-06-15T17:46:42Z</time>
      </trkpt>
      <trkpt lat="43.359477" lon="-2.535139">
        <ele>112.687</ele>
        <time>2019-06-15T17:46:43Z</time>
      </trkpt>
      <trkpt lat="43.359559" lon="-2.535379">
        <ele>112.156</ele>
        <time>2019-06-15T17:46:44Z</time>
      </trkpt>
      <trkpt lat="43.359650" lon="-2.535620">
        <ele>110.855</ele>
        <time>2019-06-15T17:46:45Z</time>
      </trkpt>
      <trkpt lat="43.359765" lon="-2.535809">
        <ele>110.896</ele>
        <time>2019-06-15T17:46:46Z</time>
      </trkpt>
      <trkpt lat="43.359853" lon="-2.536032">
        <ele>109.455</ele>
        <time>2019-06-15T17:46:47Z</time>
      </trkpt>
      <trkpt lat="43.359944" lon="-2.536258">
        <ele>106.829</ele>
        <time>2019-06-15T17:46:48Z</time>
      </trkpt>
      <trkpt lat="43.360016" lon="-2.536451">
        <ele>105.023</ele>
        <time>2019-06-15T17:46:49Z</time>
      </trkpt>
      <trkpt lat="43.360079" lon="-2.536676">
        <ele>104.483</ele>
        <time>2019-06-15T17:46:50Z</time>
      </trkpt>
      <trkpt lat="43.360140" lon="-2.536924">
        <ele>103.711</ele>
        <time>2019-06-15T17:46:51Z</time>
      </trkpt>
      <trkpt lat="43.360192" lon="-2.537180">
        <ele>103.008</ele>
        <time>2019-06-15T17:46:52Z</time>
      </trkpt>
      <trkpt lat="43.360238" lon="-2.537439">
        <ele>103.265</ele>
        <time>2019-06-15T17:46:53Z</time>
      </trkpt>
      <trkpt lat="43.360258" lon="-2.537688">
        <ele>102.929</ele>
        <time>2019-06-15T17:46:54Z</time>
      </trkpt>
      <trkpt lat="43.360271" lon="-2.537911">
        <ele>102.918</ele>
        <time>2019-06-15T17:46:55Z</time>
      </trkpt>
      <trkpt lat="43.360298" lon="-2.538126">
        <ele>102.927</ele>
        <time>2019-06-15T17:46:56Z</time>
      </trkpt>
      <trkpt lat="43.360326" lon="-2.538329">
        <ele>102.796</ele>
        <time>2019-06-15T17:46:57Z</time>
      </trkpt>
      <trkpt lat="43.360357" lon="-2.538522">
        <ele>102.787</ele>
        <time>2019-06-15T17:46:58Z</time>
      </trkpt>
      <trkpt lat="43.360419" lon="-2.538730">
        <ele>102.976</ele>
        <time>2019-06-15T17:46:59Z</time>
      </trkpt>
      <trkpt lat="43.360504" lon="-2.538931">
        <ele>102.820</ele>
        <time>2019-06-15T17:47:00Z</time>
      </trkpt>
      <trkpt lat="43.360581" lon="-2.539129">
        <ele>101.718</ele>
        <time>2019-06-15T17:47:01Z</time>
      </trkpt>
      <trkpt lat="43.360656" lon="-2.539329">
        <ele>100.998</ele>
        <time>2019-06-15T17:47:02Z</time>
      </trkpt>
      <trkpt lat="43.360725" lon="-2.539531">
        <ele>100.117</ele>
        <time>2019-06-15T17:47:03Z</time>
      </trkpt>
      <trkpt lat="43.360792" lon="-2.539723">
        <ele>99.208</ele>
        <time>2019-06-15T17:47:04Z</time>
      </trkpt>
      <trkpt lat="43.360829" lon="-2.539923">
        <ele>98.524</ele>
        <time>2019-06-15T17:47:05Z</time>
      </trkpt>
      <trkpt lat="43.360840" lon="-2.540146">
        <ele>98.118</ele>
        <time>2019-06-15T17:47:06Z</time>
      </trkpt>
      <trkpt lat="43.360831" lon="-2.540373">
        <ele>98.487</ele>
        <time>2019-06-15T17:47:07Z</time>
      </trkpt>
      <trkpt lat="43.360822" lon="-2.540604">
        <ele>99.386</ele>
        <time>2019-06-15T17:47:08Z</time>
      </trkpt>
      <trkpt lat="43.360818" lon="-2.540835">
        <ele>100.285</ele>
        <time>2019-06-15T17:47:09Z</time>
      </trkpt>
      <trkpt lat="43.360830" lon="-2.541051">
        <ele>100.816</ele>
        <time>2019-06-15T17:47:10Z</time>
      </trkpt>
      <trkpt lat="43.360857" lon="-2.541259">
        <ele>101.495</ele>
        <time>2019-06-15T17:47:11Z</time>
      </trkpt>
      <trkpt lat="43.360893" lon="-2.541452">
        <ele>101.979</ele>
        <time>2019-06-15T17:47:12Z</time>
      </trkpt>
      <trkpt lat="43.360941" lon="-2.541655">
        <ele>102.974</ele>
        <time>2019-06-15T17:47:13Z</time>
      </trkpt>
      <trkpt lat="43.360988" lon="-2.541841">
        <ele>104.656</ele>
        <time>2019-06-15T17:47:14Z</time>
      </trkpt>
      <trkpt lat="43.361027" lon="-2.542025">
        <ele>106.121</ele>
        <time>2019-06-15T17:47:15Z</time>
      </trkpt>
      <trkpt lat="43.361077" lon="-2.542209">
        <ele>106.908</ele>
        <time>2019-06-15T17:47:16Z</time>
      </trkpt>
      <trkpt lat="43.361114" lon="-2.542364">
        <ele>108.010</ele>
        <time>2019-06-15T17:47:17Z</time>
      </trkpt>
      <trkpt lat="43.361149" lon="-2.542503">
        <ele>108.934</ele>
        <time>2019-06-15T17:47:18Z</time>
      </trkpt>
      <trkpt lat="43.361182" lon="-2.542634">
        <ele>109.153</ele>
        <time>2019-06-15T17:47:19Z</time>
      </trkpt>
      <trkpt lat="43.361214" lon="-2.542755">
        <ele>109.232</ele>
        <time>2019-06-15T17:47:20Z</time>
      </trkpt>
      <trkpt lat="43.361242" lon="-2.542883">
        <ele>109.691</ele>
        <time>2019-06-15T17:47:21Z</time>
      </trkpt>
      <trkpt lat="43.361275" lon="-2.543020">
        <ele>110.212</ele>
        <time>2019-06-15T17:47:22Z</time>
      </trkpt>
      <trkpt lat="43.361313" lon="-2.543167">
        <ele>111.041</ele>
        <time>2019-06-15T17:47:23Z</time>
      </trkpt>
      <trkpt lat="43.361353" lon="-2.543325">
        <ele>111.945</ele>
        <time>2019-06-15T17:47:24Z</time>
      </trkpt>
      <trkpt lat="43.361397" lon="-2.543489">
        <ele>112.577</ele>
        <time>2019-06-15T17:47:25Z</time>
      </trkpt>
      <trkpt lat="43.361439" lon="-2.543652">
        <ele>112.861</ele>
        <time>2019-06-15T17:47:26Z</time>
      </trkpt>
      <trkpt lat="43.361476" lon="-2.543794">
        <ele>112.927</ele>
        <time>2019-06-15T17:47:27Z</time>
      </trkpt>
      <trkpt lat="43.361506" lon="-2.543920">
        <ele>112.908</ele>
        <time>2019-06-15T17:47:28Z</time>
      </trkpt>
      <trkpt lat="43.361534" lon="-2.544026">
        <ele>112.870</ele>
        <time>2019-06-15T17:47:29Z</time>
      </trkpt>
      <trkpt lat="43.361561" lon="-2.544117">
        <ele>112.764</ele>
        <time>2019-06-15T17:47:30Z</time>
      </trkpt>
      <trkpt lat="43.361589" lon="-2.544221">
        <ele>112.543</ele>
        <time>2019-06-15T17:47:31Z</time>
      </trkpt>
      <trkpt lat="43.361617" lon="-2.544327">
        <ele>112.292</ele>
        <time>2019-06-15T17:47:32Z</time>
      </trkpt>
      <trkpt lat="43.361648" lon="-2.544442">
        <ele>111.921</ele>
        <time>2019-06-15T17:47:33Z</time>
      </trkpt>
      <trkpt lat="43.361690" lon="-2.544562">
        <ele>111.752</ele>
        <time>2019-06-15T17:47:34Z</time>
      </trkpt>
      <trkpt lat="43.361736" lon="-2.544683">
        <ele>111.471</ele>
        <time>2019-06-15T17:47:35Z</time>
      </trkpt>
      <trkpt lat="43.361781" lon="-2.544802">
        <ele>111.385</ele>
        <time>2019-06-15T17:47:36Z</time>
      </trkpt>
      <trkpt lat="43.361826" lon="-2.544917">
        <ele>111.235</ele>
        <time>2019-06-15T17:47:37Z</time>
      </trkpt>
      <trkpt lat="43.361872" lon="-2.545023">
        <ele>110.986</ele>
        <time>2019-06-15T17:47:38Z</time>
      </trkpt>
      <trkpt lat="43.361922" lon="-2.545128">
        <ele>110.514</ele>
        <time>2019-06-15T17:47:39Z</time>
      </trkpt>
      <trkpt lat="43.361983" lon="-2.545235">
        <ele>110.208</ele>
        <time>2019-06-15T17:47:40Z</time>
      </trkpt>
      <trkpt lat="43.362053" lon="-2.545353">
        <ele>109.776</ele>
        <time>2019-06-15T17:47:41Z</time>
      </trkpt>
      <trkpt lat="43.362122" lon="-2.545454">
        <ele>109.420</ele>
        <time>2019-06-15T17:47:42Z</time>
      </trkpt>
      <trkpt lat="43.362192" lon="-2.545560">
        <ele>109.019</ele>
        <time>2019-06-15T17:47:43Z</time>
      </trkpt>
      <trkpt lat="43.362247" lon="-2.545659">
        <ele>108.698</ele>
        <time>2019-06-15T17:47:44Z</time>
      </trkpt>
      <trkpt lat="43.362297" lon="-2.545747">
        <ele>108.187</ele>
        <time>2019-06-15T17:47:45Z</time>
      </trkpt>
      <trkpt lat="43.362356" lon="-2.545850">
        <ele>107.558</ele>
        <time>2019-06-15T17:47:46Z</time>
      </trkpt>
      <trkpt lat="43.362412" lon="-2.545963">
        <ele>106.857</ele>
        <time>2019-06-15T17:47:47Z</time>
      </trkpt>
      <trkpt lat="43.362488" lon="-2.546082">
        <ele>106.171</ele>
        <time>2019-06-15T17:47:48Z</time>
      </trkpt>
      <trkpt lat="43.362559" lon="-2.546201">
        <ele>106.116</ele>
        <time>2019-06-15T17:47:49Z</time>
      </trkpt>
      <trkpt lat="43.362624" lon="-2.546293">
        <ele>106.376</ele>
        <time>2019-06-15T17:47:50Z</time>
      </trkpt>
      <trkpt lat="43.362687" lon="-2.546373">
        <ele>106.613</ele>
        <time>2019-06-15T17:47:51Z</time>
      </trkpt>
      <trkpt lat="43.362762" lon="-2.546463">
        <ele>106.908</ele>
        <time>2019-06-15T17:47:52Z</time>
      </trkpt>
      <trkpt lat="43.362819" lon="-2.546561">
        <ele>106.974</ele>
        <time>2019-06-15T17:47:53Z</time>
      </trkpt>
      <trkpt lat="43.362873" lon="-2.546680">
        <ele>106.738</ele>
        <time>2019-06-15T17:47:54Z</time>
      </trkpt>
      <trkpt lat="43.362949" lon="-2.546822">
        <ele>106.977</ele>
        <time>2019-06-15T17:47:55Z</time>
      </trkpt>
      <trkpt lat="43.363034" lon="-2.546968">
        <ele>107.846</ele>
        <time>2019-06-15T17:47:56Z</time>
      </trkpt>
      <trkpt lat="43.363138" lon="-2.547127">
        <ele>108.725</ele>
        <time>2019-06-15T17:47:57Z</time>
      </trkpt>
      <trkpt lat="43.363238" lon="-2.547306">
        <ele>110.156</ele>
        <time>2019-06-15T17:47:58Z</time>
      </trkpt>
      <trkpt lat="43.363344" lon="-2.547480">
        <ele>111.235</ele>
        <time>2019-06-15T17:47:59Z</time>
      </trkpt>
      <trkpt lat="43.363446" lon="-2.547657">
        <ele>112.319</ele>
        <time>2019-06-15T17:48:00Z</time>
      </trkpt>
      <trkpt lat="43.363550" lon="-2.547843">
        <ele>112.128</ele>
        <time>2019-06-15T17:48:01Z</time>
      </trkpt>
      <trkpt lat="43.363659" lon="-2.548028">
        <ele>111.789</ele>
        <time>2019-06-15T17:48:02Z</time>
      </trkpt>
      <trkpt lat="43.363769" lon="-2.548214">
        <ele>111.317</ele>
        <time>2019-06-15T17:48:03Z</time>
      </trkpt>
      <trkpt lat="43.363875" lon="-2.548404">
        <ele>111.508</ele>
        <time>2019-06-15T17:48:04Z</time>
      </trkpt>
      <trkpt lat="43.364005" lon="-2.548595">
        <ele>112.325</ele>
        <time>2019-06-15T17:48:05Z</time>
      </trkpt>
      <trkpt lat="43.364103" lon="-2.548768">
        <ele>113.189</ele>
        <time>2019-06-15T17:48:06Z</time>
      </trkpt>
      <trkpt lat="43.364204" lon="-2.548921">
        <ele>114.728</ele>
        <time>2019-06-15T17:48:07Z</time>
      </trkpt>
      <trkpt lat="43.364282" lon="-2.549084">
        <ele>116.157</ele>
        <time>2019-06-15T17:48:08Z</time>
      </trkpt>
      <trkpt lat="43.364358" lon="-2.549246">
        <ele>117.216</ele>
        <time>2019-06-15T17:48:09Z</time>
      </trkpt>
      <trkpt lat="43.364431" lon="-2.549435">
        <ele>117.817</ele>
        <time>2019-06-15T17:48:10Z</time>
      </trkpt>
      <trkpt lat="43.364516" lon="-2.549631">
        <ele>119.216</ele>
        <time>2019-06-15T17:48:11Z</time>
      </trkpt>
      <trkpt lat="43.364593" lon="-2.549823">
        <ele>120.450</ele>
        <time>2019-06-15T17:48:12Z</time>
      </trkpt>
      <trkpt lat="43.364654" lon="-2.550021">
        <ele>120.766</ele>
        <time>2019-06-15T17:48:13Z</time>
      </trkpt>
      <trkpt lat="43.364719" lon="-2.550218">
        <ele>121.229</ele>
        <time>2019-06-15T17:48:14Z</time>
      </trkpt>
      <trkpt lat="43.364783" lon="-2.550402">
        <ele>122.121</ele>
        <time>2019-06-15T17:48:15Z</time>
      </trkpt>
      <trkpt lat="43.364815" lon="-2.550603">
        <ele>122.508</ele>
        <time>2019-06-15T17:48:16Z</time>
      </trkpt>
      <trkpt lat="43.364838" lon="-2.550824">
        <ele>123.239</ele>
        <time>2019-06-15T17:48:17Z</time>
      </trkpt>
      <trkpt lat="43.364857" lon="-2.551044">
        <ele>125.023</ele>
        <time>2019-06-15T17:48:18Z</time>
      </trkpt>
      <trkpt lat="43.364834" lon="-2.551276">
        <ele>126.472</ele>
        <time>2019-06-15T17:48:19Z</time>
      </trkpt>
      <trkpt lat="43.364827" lon="-2.551511">
        <ele>127.451</ele>
        <time>2019-06-15T17:48:20Z</time>
      </trkpt>
      <trkpt lat="43.364805" lon="-2.551738">
        <ele>127.660</ele>
        <time>2019-06-15T17:48:21Z</time>
      </trkpt>
      <trkpt lat="43.364795" lon="-2.551956">
        <ele>128.531</ele>
        <time>2019-06-15T17:48:22Z</time>
      </trkpt>
      <trkpt lat="43.364755" lon="-2.552162">
        <ele>128.720</ele>
        <time>2019-06-15T17:48:23Z</time>
      </trkpt>
      <trkpt lat="43.364740" lon="-2.552367">
        <ele>128.734</ele>
        <time>2019-06-15T17:48:24Z</time>
      </trkpt>
      <trkpt lat="43.364662" lon="-2.552543">
        <ele>129.094</ele>
        <time>2019-06-15T17:48:25Z</time>
      </trkpt>
      <trkpt lat="43.364601" lon="-2.552697">
        <ele>128.657</ele>
        <time>2019-06-15T17:48:26Z</time>
      </trkpt>
      <trkpt lat="43.364493" lon="-2.552864">
        <ele>130.022</ele>
        <time>2019-06-15T17:48:27Z</time>
      </trkpt>
      <trkpt lat="43.364410" lon="-2.553005">
        <ele>130.908</ele>
        <time>2019-06-15T17:48:28Z</time>
      </trkpt>
      <trkpt lat="43.364332" lon="-2.553128">
        <ele>130.062</ele>
        <time>2019-06-15T17:48:29Z</time>
      </trkpt>
      <trkpt lat="43.364207" lon="-2.553239">
        <ele>128.446</ele>
        <time>2019-06-15T17:48:30Z</time>
      </trkpt>
      <trkpt lat="43.364053" lon="-2.553300">
        <ele>129.375</ele>
        <time>2019-06-15T17:48:31Z</time>
      </trkpt>
      <trkpt lat="43.363922" lon="-2.553403">
        <ele>129.794</ele>
        <time>2019-06-15T17:48:32Z</time>
      </trkpt>
      <trkpt lat="43.363854" lon="-2.553551">
        <ele>128.593</ele>
        <time>2019-06-15T17:48:33Z</time>
      </trkpt>
      <trkpt lat="43.363778" lon="-2.553707">
        <ele>129.114</ele>
        <time>2019-06-15T17:48:34Z</time>
      </trkpt>
      <trkpt lat="43.363710" lon="-2.553871">
        <ele>130.283</ele>
        <time>2019-06-15T17:48:35Z</time>
      </trkpt>
      <trkpt lat="43.363668" lon="-2.554070">
        <ele>131.167</ele>
        <time>2019-06-15T17:48:36Z</time>
      </trkpt>
      <trkpt lat="43.363612" lon="-2.554256">
        <ele>131.477</ele>
        <time>2019-06-15T17:48:37Z</time>
      </trkpt>
      <trkpt lat="43.363583" lon="-2.554435">
        <ele>129.661</ele>
        <time>2019-06-15T17:48:38Z</time>
      </trkpt>
      <trkpt lat="43.363546" lon="-2.554642">
        <ele>130.727</ele>
        <time>2019-06-15T17:48:39Z</time>
      </trkpt>
      <trkpt lat="43.363563" lon="-2.554835">
        <ele>129.208</ele>
        <time>2019-06-15T17:48:40Z</time>
      </trkpt>
      <trkpt lat="43.363603" lon="-2.555022">
        <ele>127.050</ele>
        <time>2019-06-15T17:48:41Z</time>
      </trkpt>
      <trkpt lat="43.363649" lon="-2.555190">
        <ele>128.314</ele>
        <time>2019-06-15T17:48:42Z</time>
      </trkpt>
      <trkpt lat="43.363696" lon="-2.555392">
        <ele>130.453</ele>
        <time>2019-06-15T17:48:43Z</time>
      </trkpt>
      <trkpt lat="43.363741" lon="-2.555568">
        <ele>131.712</ele>
        <time>2019-06-15T17:48:44Z</time>
      </trkpt>
      <trkpt lat="43.363806" lon="-2.555716">
        <ele>130.711</ele>
        <time>2019-06-15T17:48:45Z</time>
      </trkpt>
      <trkpt lat="43.363874" lon="-2.555927">
        <ele>130.852</ele>
        <time>2019-06-15T17:48:46Z</time>
      </trkpt>
      <trkpt lat="43.363955" lon="-2.556133">
        <ele>131.721</ele>
        <time>2019-06-15T17:48:47Z</time>
      </trkpt>
      <trkpt lat="43.364012" lon="-2.556324">
        <ele>131.625</ele>
        <time>2019-06-15T17:48:48Z</time>
      </trkpt>
      <trkpt lat="43.363989" lon="-2.556481">
        <ele>134.136</ele>
        <time>2019-06-15T17:48:49Z</time>
      </trkpt>
      <trkpt lat="43.364032" lon="-2.556653">
        <ele>133.217</ele>
        <time>2019-06-15T17:48:50Z</time>
      </trkpt>
      <trkpt lat="43.364041" lon="-2.556738">
        <ele>134.818</ele>
        <time>2019-06-15T17:48:51Z</time>
      </trkpt>
      <trkpt lat="43.364144" lon="-2.556839">
        <ele>134.308</ele>
        <time>2019-06-15T17:48:52Z</time>
      </trkpt>
      <trkpt lat="43.364195" lon="-2.556933">
        <ele>136.656</ele>
        <time>2019-06-15T17:48:53Z</time>
      </trkpt>
      <trkpt lat="43.364226" lon="-2.557037">
        <ele>140.850</ele>
        <time>2019-06-15T17:48:54Z</time>
      </trkpt>
      <trkpt lat="43.364323" lon="-2.557082">
        <ele>143.039</ele>
        <time>2019-06-15T17:48:55Z</time>
      </trkpt>
      <trkpt lat="43.364434" lon="-2.557047">
        <ele>141.898</ele>
        <time>2019-06-15T17:48:56Z</time>
      </trkpt>
      <trkpt lat="43.364514" lon="-2.557035">
        <ele>141.017</ele>
        <time>2019-06-15T17:48:57Z</time>
      </trkpt>
      <trkpt lat="43.364628" lon="-2.557007">
        <ele>139.558</ele>
        <time>2019-06-15T17:48:58Z</time>
      </trkpt>
      <trkpt lat="43.364719" lon="-2.556986">
        <ele>138.587</ele>
        <time>2019-06-15T17:48:59Z</time>
      </trkpt>
      <trkpt lat="43.364857" lon="-2.557173">
        <ele>141.061</ele>
        <time>2019-06-15T17:49:00Z</time>
      </trkpt>
      <trkpt lat="43.364978" lon="-2.557233">
        <ele>139.097</ele>
        <time>2019-06-15T17:49:01Z</time>
      </trkpt>
      <trkpt lat="43.365072" lon="-2.557350">
        <ele>137.523</ele>
        <time>2019-06-15T17:49:02Z</time>
      </trkpt>
      <trkpt lat="43.365170" lon="-2.557503">
        <ele>136.125</ele>
        <time>2019-06-15T17:49:03Z</time>
      </trkpt>
      <trkpt lat="43.365298" lon="-2.557644">
        <ele>129.008</ele>
        <time>2019-06-15T17:49:04Z</time>
      </trkpt>
      <trkpt lat="43.365327" lon="-2.557812">
        <ele>126.842</ele>
        <time>2019-06-15T17:49:05Z</time>
      </trkpt>
      <trkpt lat="43.365385" lon="-2.557959">
        <ele>124.916</ele>
        <time>2019-06-15T17:49:06Z</time>
      </trkpt>
      <trkpt lat="43.365517" lon="-2.558119">
        <ele>124.175</ele>
        <time>2019-06-15T17:49:07Z</time>
      </trkpt>
      <trkpt lat="43.365381" lon="-2.558245">
        <ele>132.224</ele>
        <time>2019-06-15T17:49:08Z</time>
      </trkpt>
      <trkpt lat="43.365385" lon="-2.558353">
        <ele>135.243</ele>
        <time>2019-06-15T17:49:09Z</time>
      </trkpt>
      <trkpt lat="43.365403" lon="-2.558433">
        <ele>136.294</ele>
        <time>2019-06-15T17:49:10Z</time>
      </trkpt>
      <trkpt lat="43.365467" lon="-2.558503">
        <ele>136.883</ele>
        <time>2019-06-15T17:49:11Z</time>
      </trkpt>
      <trkpt lat="43.365558" lon="-2.558586">
        <ele>137.517</ele>
        <time>2019-06-15T17:49:12Z</time>
      </trkpt>
      <trkpt lat="43.365689" lon="-2.558691">
        <ele>138.785</ele>
        <time>2019-06-15T17:49:13Z</time>
      </trkpt>
      <trkpt lat="43.365772" lon="-2.558799">
        <ele>138.189</ele>
        <time>2019-06-15T17:49:14Z</time>
      </trkpt>
      <trkpt lat="43.365848" lon="-2.558940">
        <ele>136.017</ele>
        <time>2019-06-15T17:49:15Z</time>
      </trkpt>
      <trkpt lat="43.365934" lon="-2.559072">
        <ele>134.408</ele>
        <time>2019-06-15T17:49:16Z</time>
      </trkpt>
      <trkpt lat="43.366014" lon="-2.559239">
        <ele>134.391</ele>
        <time>2019-06-15T17:49:17Z</time>
      </trkpt>
      <trkpt lat="43.366109" lon="-2.559402">
        <ele>135.855</ele>
        <time>2019-06-15T17:49:18Z</time>
      </trkpt>
      <trkpt lat="43.366189" lon="-2.559539">
        <ele>136.614</ele>
        <time>2019-06-15T17:49:19Z</time>
      </trkpt>
      <trkpt lat="43.366300" lon="-2.559679">
        <ele>135.563</ele>
        <time>2019-06-15T17:49:20Z</time>
      </trkpt>
      <trkpt lat="43.366361" lon="-2.559787">
        <ele>135.722</ele>
        <time>2019-06-15T17:49:21Z</time>
      </trkpt>
      <trkpt lat="43.366462" lon="-2.559896">
        <ele>136.023</ele>
        <time>2019-06-15T17:49:22Z</time>
      </trkpt>
      <trkpt lat="43.366559" lon="-2.559993">
        <ele>136.722</ele>
        <time>2019-06-15T17:49:23Z</time>
      </trkpt>
      <trkpt lat="43.366707" lon="-2.560030">
        <ele>135.666</ele>
        <time>2019-06-15T17:49:24Z</time>
      </trkpt>
      <trkpt lat="43.366824" lon="-2.560081">
        <ele>136.056</ele>
        <time>2019-06-15T17:49:25Z</time>
      </trkpt>
      <trkpt lat="43.366935" lon="-2.560129">
        <ele>136.359</ele>
        <time>2019-06-15T17:49:26Z</time>
      </trkpt>
      <trkpt lat="43.367049" lon="-2.560148">
        <ele>135.614</ele>
        <time>2019-06-15T17:49:27Z</time>
      </trkpt>
      <trkpt lat="43.367169" lon="-2.560161">
        <ele>134.608</ele>
        <time>2019-06-15T17:49:28Z</time>
      </trkpt>
      <trkpt lat="43.367247" lon="-2.560201">
        <ele>134.658</ele>
        <time>2019-06-15T17:49:29Z</time>
      </trkpt>
      <trkpt lat="43.367349" lon="-2.560271">
        <ele>134.122</ele>
        <time>2019-06-15T17:49:30Z</time>
      </trkpt>
      <trkpt lat="43.367433" lon="-2.560369">
        <ele>133.371</ele>
        <time>2019-06-15T17:49:31Z</time>
      </trkpt>
      <trkpt lat="43.367495" lon="-2.560469">
        <ele>133.120</ele>
        <time>2019-06-15T17:49:32Z</time>
      </trkpt>
      <trkpt lat="43.367529" lon="-2.560572">
        <ele>133.049</ele>
        <time>2019-06-15T17:49:33Z</time>
      </trkpt>
      <trkpt lat="43.367564" lon="-2.560669">
        <ele>132.470</ele>
        <time>2019-06-15T17:49:34Z</time>
      </trkpt>
      <trkpt lat="43.367607" lon="-2.560749">
        <ele>132.069</ele>
        <time>2019-06-15T17:49:35Z</time>
      </trkpt>
      <trkpt lat="43.367628" lon="-2.560807">
        <ele>132.393</ele>
        <time>2019-06-15T17:49:36Z</time>
      </trkpt>
      <trkpt lat="43.367661" lon="-2.560877">
        <ele>132.452</ele>
        <time>2019-06-15T17:49:38Z</time>
      </trkpt>
      <trkpt lat="43.367662" lon="-2.560995">
        <ele>132.853</ele>
        <time>2019-06-15T17:49:46Z</time>
      </trkpt>
      <trkpt lat="43.367651" lon="-2.561086">
        <ele>133.008</ele>
        <time>2019-06-15T17:49:47Z</time>
      </trkpt>
      <trkpt lat="43.367681" lon="-2.561231">
        <ele>132.608</ele>
        <time>2019-06-15T17:49:48Z</time>
      </trkpt>
      <trkpt lat="43.367720" lon="-2.561388">
        <ele>132.218</ele>
        <time>2019-06-15T17:49:49Z</time>
      </trkpt>
      <trkpt lat="43.367775" lon="-2.561562">
        <ele>131.112</ele>
        <time>2019-06-15T17:49:50Z</time>
      </trkpt>
      <trkpt lat="43.367852" lon="-2.561746">
        <ele>130.041</ele>
        <time>2019-06-15T17:49:51Z</time>
      </trkpt>
      <trkpt lat="43.367931" lon="-2.561919">
        <ele>128.790</ele>
        <time>2019-06-15T17:49:52Z</time>
      </trkpt>
      <trkpt lat="43.368003" lon="-2.562086">
        <ele>127.669</ele>
        <time>2019-06-15T17:49:53Z</time>
      </trkpt>
      <trkpt lat="43.368079" lon="-2.562247">
        <ele>127.270</ele>
        <time>2019-06-15T17:49:54Z</time>
      </trkpt>
      <trkpt lat="43.368149" lon="-2.562402">
        <ele>126.179</ele>
        <time>2019-06-15T17:49:55Z</time>
      </trkpt>
      <trkpt lat="43.368231" lon="-2.562553">
        <ele>125.463</ele>
        <time>2019-06-15T17:49:56Z</time>
      </trkpt>
      <trkpt lat="43.368316" lon="-2.562704">
        <ele>124.362</ele>
        <time>2019-06-15T17:49:57Z</time>
      </trkpt>
      <trkpt lat="43.368401" lon="-2.562850">
        <ele>123.083</ele>
        <time>2019-06-15T17:49:58Z</time>
      </trkpt>
      <trkpt lat="43.368481" lon="-2.562991">
        <ele>122.211</ele>
        <time>2019-06-15T17:49:59Z</time>
      </trkpt>
      <trkpt lat="43.368563" lon="-2.563124">
        <ele>121.808</ele>
        <time>2019-06-15T17:50:00Z</time>
      </trkpt>
      <trkpt lat="43.368652" lon="-2.563252">
        <ele>120.779</ele>
        <time>2019-06-15T17:50:01Z</time>
      </trkpt>
      <trkpt lat="43.368739" lon="-2.563371">
        <ele>119.593</ele>
        <time>2019-06-15T17:50:02Z</time>
      </trkpt>
      <trkpt lat="43.368843" lon="-2.563477">
        <ele>119.842</ele>
        <time>2019-06-15T17:50:03Z</time>
      </trkpt>
      <trkpt lat="43.368930" lon="-2.563600">
        <ele>118.731</ele>
        <time>2019-06-15T17:50:04Z</time>
      </trkpt>
      <trkpt lat="43.369022" lon="-2.563606">
        <ele>117.650</ele>
        <time>2019-06-15T17:50:05Z</time>
      </trkpt>
      <trkpt lat="43.369164" lon="-2.563616">
        <ele>115.931</ele>
        <time>2019-06-15T17:50:06Z</time>
      </trkpt>
      <trkpt lat="43.369287" lon="-2.563575">
        <ele>113.930</ele>
        <time>2019-06-15T17:50:07Z</time>
      </trkpt>
      <trkpt lat="43.369468" lon="-2.563423">
        <ele>112.834</ele>
        <time>2019-06-15T17:50:08Z</time>
      </trkpt>
      <trkpt lat="43.369542" lon="-2.563309">
        <ele>113.062</ele>
        <time>2019-06-15T17:50:09Z</time>
      </trkpt>
      <trkpt lat="43.369617" lon="-2.563209">
        <ele>113.283</ele>
        <time>2019-06-15T17:50:10Z</time>
      </trkpt>
      <trkpt lat="43.369721" lon="-2.563145">
        <ele>112.111</ele>
        <time>2019-06-15T17:50:11Z</time>
      </trkpt>
      <trkpt lat="43.369844" lon="-2.563116">
        <ele>112.808</ele>
        <time>2019-06-15T17:50:12Z</time>
      </trkpt>
      <trkpt lat="43.369946" lon="-2.563143">
        <ele>112.469</ele>
        <time>2019-06-15T17:50:13Z</time>
      </trkpt>
      <trkpt lat="43.370057" lon="-2.563167">
        <ele>111.783</ele>
        <time>2019-06-15T17:50:14Z</time>
      </trkpt>
      <trkpt lat="43.370170" lon="-2.563220">
        <ele>110.572</ele>
        <time>2019-06-15T17:50:15Z</time>
      </trkpt>
      <trkpt lat="43.370267" lon="-2.563287">
        <ele>109.581</ele>
        <time>2019-06-15T17:50:16Z</time>
      </trkpt>
      <trkpt lat="43.370339" lon="-2.563361">
        <ele>109.350</ele>
        <time>2019-06-15T17:50:17Z</time>
      </trkpt>
      <trkpt lat="43.370431" lon="-2.563474">
        <ele>109.551</ele>
        <time>2019-06-15T17:50:18Z</time>
      </trkpt>
      <trkpt lat="43.370455" lon="-2.563665">
        <ele>108.480</ele>
        <time>2019-06-15T17:50:19Z</time>
      </trkpt>
      <trkpt lat="43.370543" lon="-2.563834">
        <ele>109.184</ele>
        <time>2019-06-15T17:50:20Z</time>
      </trkpt>
      <trkpt lat="43.370594" lon="-2.563994">
        <ele>108.985</ele>
        <time>2019-06-15T17:50:21Z</time>
      </trkpt>
      <trkpt lat="43.370655" lon="-2.564158">
        <ele>108.289</ele>
        <time>2019-06-15T17:50:22Z</time>
      </trkpt>
      <trkpt lat="43.370726" lon="-2.564327">
        <ele>107.017</ele>
        <time>2019-06-15T17:50:23Z</time>
      </trkpt>
      <trkpt lat="43.370794" lon="-2.564464">
        <ele>105.708</ele>
        <time>2019-06-15T17:50:24Z</time>
      </trkpt>
      <trkpt lat="43.370855" lon="-2.564597">
        <ele>105.651</ele>
        <time>2019-06-15T17:50:25Z</time>
      </trkpt>
      <trkpt lat="43.370890" lon="-2.564736">
        <ele>105.225</ele>
        <time>2019-06-15T17:50:26Z</time>
      </trkpt>
      <trkpt lat="43.370899" lon="-2.564869">
        <ele>105.044</ele>
        <time>2019-06-15T17:50:27Z</time>
      </trkpt>
      <trkpt lat="43.370862" lon="-2.564997">
        <ele>104.313</ele>
        <time>2019-06-15T17:50:28Z</time>
      </trkpt>
      <trkpt lat="43.370822" lon="-2.565118">
        <ele>107.952</ele>
        <time>2019-06-15T17:50:29Z</time>
      </trkpt>
      <trkpt lat="43.370771" lon="-2.565226">
        <ele>110.143</ele>
        <time>2019-06-15T17:50:30Z</time>
      </trkpt>
      <trkpt lat="43.370659" lon="-2.565287">
        <ele>107.932</ele>
        <time>2019-06-15T17:50:31Z</time>
      </trkpt>
      <trkpt lat="43.370562" lon="-2.565379">
        <ele>105.796</ele>
        <time>2019-06-15T17:50:32Z</time>
      </trkpt>
      <trkpt lat="43.370437" lon="-2.565441">
        <ele>106.553</ele>
        <time>2019-06-15T17:50:33Z</time>
      </trkpt>
      <trkpt lat="43.370311" lon="-2.565509">
        <ele>108.504</ele>
        <time>2019-06-15T17:50:34Z</time>
      </trkpt>
      <trkpt lat="43.370189" lon="-2.565580">
        <ele>108.114</ele>
        <time>2019-06-15T17:50:35Z</time>
      </trkpt>
      <trkpt lat="43.370062" lon="-2.565651">
        <ele>106.508</ele>
        <time>2019-06-15T17:50:36Z</time>
      </trkpt>
      <trkpt lat="43.369948" lon="-2.565721">
        <ele>105.518</ele>
        <time>2019-06-15T17:50:37Z</time>
      </trkpt>
      <trkpt lat="43.369844" lon="-2.565780">
        <ele>104.662</ele>
        <time>2019-06-15T17:50:38Z</time>
      </trkpt>
      <trkpt lat="43.369738" lon="-2.565854">
        <ele>103.961</ele>
        <time>2019-06-15T17:50:39Z</time>
      </trkpt>
      <trkpt lat="43.369649" lon="-2.565913">
        <ele>103.410</ele>
        <time>2019-06-15T17:50:40Z</time>
      </trkpt>
      <trkpt lat="43.369561" lon="-2.565974">
        <ele>102.589</ele>
        <time>2019-06-15T17:50:41Z</time>
      </trkpt>
      <trkpt lat="43.369479" lon="-2.566044">
        <ele>101.360</ele>
        <time>2019-06-15T17:50:42Z</time>
      </trkpt>
      <trkpt lat="43.369433" lon="-2.566186">
        <ele>101.039</ele>
        <time>2019-06-15T17:50:43Z</time>
      </trkpt>
      <trkpt lat="43.369380" lon="-2.566340">
        <ele>99.323</ele>
        <time>2019-06-15T17:50:44Z</time>
      </trkpt>
      <trkpt lat="43.369337" lon="-2.566506">
        <ele>97.711</ele>
        <time>2019-06-15T17:50:45Z</time>
      </trkpt>
      <trkpt lat="43.369335" lon="-2.566717">
        <ele>98.421</ele>
        <time>2019-06-15T17:50:46Z</time>
      </trkpt>
      <trkpt lat="43.369311" lon="-2.566912">
        <ele>97.303</ele>
        <time>2019-06-15T17:50:47Z</time>
      </trkpt>
      <trkpt lat="43.369295" lon="-2.567113">
        <ele>96.008</ele>
        <time>2019-06-15T17:50:48Z</time>
      </trkpt>
      <trkpt lat="43.369279" lon="-2.567287">
        <ele>95.554</ele>
        <time>2019-06-15T17:50:49Z</time>
      </trkpt>
      <trkpt lat="43.369252" lon="-2.567447">
        <ele>95.468</ele>
        <time>2019-06-15T17:50:50Z</time>
      </trkpt>
      <trkpt lat="43.369230" lon="-2.567622">
        <ele>94.937</ele>
        <time>2019-06-15T17:50:51Z</time>
      </trkpt>
      <trkpt lat="43.369231" lon="-2.567804">
        <ele>94.916</ele>
        <time>2019-06-15T17:50:52Z</time>
      </trkpt>
      <trkpt lat="43.369267" lon="-2.567976">
        <ele>94.295</ele>
        <time>2019-06-15T17:50:53Z</time>
      </trkpt>
      <trkpt lat="43.369293" lon="-2.568153">
        <ele>92.556</ele>
        <time>2019-06-15T17:50:54Z</time>
      </trkpt>
      <trkpt lat="43.369340" lon="-2.568364">
        <ele>90.575</ele>
        <time>2019-06-15T17:50:55Z</time>
      </trkpt>
      <trkpt lat="43.369399" lon="-2.568557">
        <ele>89.319</ele>
        <time>2019-06-15T17:50:56Z</time>
      </trkpt>
      <trkpt lat="43.369451" lon="-2.568766">
        <ele>87.416</ele>
        <time>2019-06-15T17:50:57Z</time>
      </trkpt>
      <trkpt lat="43.369509" lon="-2.568974">
        <ele>85.976</ele>
        <time>2019-06-15T17:50:58Z</time>
      </trkpt>
      <trkpt lat="43.369589" lon="-2.569171">
        <ele>86.213</ele>
        <time>2019-06-15T17:50:59Z</time>
      </trkpt>
      <trkpt lat="43.369627" lon="-2.569345">
        <ele>84.008</ele>
        <time>2019-06-15T17:51:00Z</time>
      </trkpt>
      <trkpt lat="43.369684" lon="-2.569547">
        <ele>82.274</ele>
        <time>2019-06-15T17:51:01Z</time>
      </trkpt>
      <trkpt lat="43.369757" lon="-2.569767">
        <ele>80.978</ele>
        <time>2019-06-15T17:51:02Z</time>
      </trkpt>
      <trkpt lat="43.369820" lon="-2.569983">
        <ele>81.327</ele>
        <time>2019-06-15T17:51:03Z</time>
      </trkpt>
      <trkpt lat="43.369869" lon="-2.570190">
        <ele>81.446</ele>
        <time>2019-06-15T17:51:04Z</time>
      </trkpt>
      <trkpt lat="43.369896" lon="-2.570409">
        <ele>80.795</ele>
        <time>2019-06-15T17:51:05Z</time>
      </trkpt>
      <trkpt lat="43.369942" lon="-2.570625">
        <ele>80.676</ele>
        <time>2019-06-15T17:51:06Z</time>
      </trkpt>
      <trkpt lat="43.369978" lon="-2.570843">
        <ele>80.095</ele>
        <time>2019-06-15T17:51:07Z</time>
      </trkpt>
      <trkpt lat="43.370051" lon="-2.571049">
        <ele>79.949</ele>
        <time>2019-06-15T17:51:08Z</time>
      </trkpt>
      <trkpt lat="43.370105" lon="-2.571256">
        <ele>79.883</ele>
        <time>2019-06-15T17:51:09Z</time>
      </trkpt>
      <trkpt lat="43.370161" lon="-2.571443">
        <ele>79.425</ele>
        <time>2019-06-15T17:51:10Z</time>
      </trkpt>
      <trkpt lat="43.370238" lon="-2.571631">
        <ele>78.317</ele>
        <time>2019-06-15T17:51:11Z</time>
      </trkpt>
      <trkpt lat="43.370295" lon="-2.571813">
        <ele>75.608</ele>
        <time>2019-06-15T17:51:12Z</time>
      </trkpt>
      <trkpt lat="43.370361" lon="-2.571995">
        <ele>73.181</ele>
        <time>2019-06-15T17:51:13Z</time>
      </trkpt>
      <trkpt lat="43.370434" lon="-2.572040">
        <ele>74.885</ele>
        <time>2019-06-15T17:51:14Z</time>
      </trkpt>
      <trkpt lat="43.370539" lon="-2.572190">
        <ele>73.614</ele>
        <time>2019-06-15T17:51:15Z</time>
      </trkpt>
      <trkpt lat="43.370614" lon="-2.572328">
        <ele>72.423</ele>
        <time>2019-06-15T17:51:16Z</time>
      </trkpt>
      <trkpt lat="43.370700" lon="-2.572440">
        <ele>70.822</ele>
        <time>2019-06-15T17:51:17Z</time>
      </trkpt>
      <trkpt lat="43.370785" lon="-2.572551">
        <ele>68.023</ele>
        <time>2019-06-15T17:51:18Z</time>
      </trkpt>
      <trkpt lat="43.370873" lon="-2.572598">
        <ele>67.062</ele>
        <time>2019-06-15T17:51:19Z</time>
      </trkpt>
      <trkpt lat="43.370987" lon="-2.572650">
        <ele>65.116</ele>
        <time>2019-06-15T17:51:20Z</time>
      </trkpt>
      <trkpt lat="43.371124" lon="-2.572613">
        <ele>65.881</ele>
        <time>2019-06-15T17:51:21Z</time>
      </trkpt>
      <trkpt lat="43.371241" lon="-2.572651">
        <ele>65.561</ele>
        <time>2019-06-15T17:51:22Z</time>
      </trkpt>
      <trkpt lat="43.371325" lon="-2.572698">
        <ele>65.917</ele>
        <time>2019-06-15T17:51:23Z</time>
      </trkpt>
      <trkpt lat="43.371367" lon="-2.572782">
        <ele>66.508</ele>
        <time>2019-06-15T17:51:24Z</time>
      </trkpt>
      <trkpt lat="43.371354" lon="-2.572925">
        <ele>65.421</ele>
        <time>2019-06-15T17:51:25Z</time>
      </trkpt>
      <trkpt lat="43.371387" lon="-2.573061">
        <ele>66.095</ele>
        <time>2019-06-15T17:51:26Z</time>
      </trkpt>
      <trkpt lat="43.371344" lon="-2.573248">
        <ele>68.244</ele>
        <time>2019-06-15T17:51:27Z</time>
      </trkpt>
      <trkpt lat="43.371325" lon="-2.573421">
        <ele>71.413</ele>
        <time>2019-06-15T17:51:28Z</time>
      </trkpt>
      <trkpt lat="43.371257" lon="-2.573603">
        <ele>72.782</ele>
        <time>2019-06-15T17:51:29Z</time>
      </trkpt>
      <trkpt lat="43.371231" lon="-2.573795">
        <ele>72.823</ele>
        <time>2019-06-15T17:51:30Z</time>
      </trkpt>
      <trkpt lat="43.371176" lon="-2.573981">
        <ele>70.522</ele>
        <time>2019-06-15T17:51:31Z</time>
      </trkpt>
      <trkpt lat="43.371109" lon="-2.574177">
        <ele>68.056</ele>
        <time>2019-06-15T17:51:32Z</time>
      </trkpt>
      <trkpt lat="43.371039" lon="-2.574374">
        <ele>66.652</ele>
        <time>2019-06-15T17:51:33Z</time>
      </trkpt>
      <trkpt lat="43.370976" lon="-2.574563">
        <ele>67.553</ele>
        <time>2019-06-15T17:51:34Z</time>
      </trkpt>
      <trkpt lat="43.370940" lon="-2.574765">
        <ele>69.408</ele>
        <time>2019-06-15T17:51:35Z</time>
      </trkpt>
      <trkpt lat="43.370903" lon="-2.574964">
        <ele>69.208</ele>
        <time>2019-06-15T17:51:36Z</time>
      </trkpt>
      <trkpt lat="43.370867" lon="-2.575157">
        <ele>68.228</ele>
        <time>2019-06-15T17:51:37Z</time>
      </trkpt>
      <trkpt lat="43.370835" lon="-2.575369">
        <ele>66.112</ele>
        <time>2019-06-15T17:51:38Z</time>
      </trkpt>
      <trkpt lat="43.370811" lon="-2.575570">
        <ele>63.591</ele>
        <time>2019-06-15T17:51:39Z</time>
      </trkpt>
      <trkpt lat="43.370795" lon="-2.575781">
        <ele>63.790</ele>
        <time>2019-06-15T17:51:40Z</time>
      </trkpt>
      <trkpt lat="43.370781" lon="-2.575998">
        <ele>66.199</ele>
        <time>2019-06-15T17:51:41Z</time>
      </trkpt>
      <trkpt lat="43.370761" lon="-2.576213">
        <ele>67.050</ele>
        <time>2019-06-15T17:51:42Z</time>
      </trkpt>
      <trkpt lat="43.370752" lon="-2.576422">
        <ele>66.369</ele>
        <time>2019-06-15T17:51:43Z</time>
      </trkpt>
      <trkpt lat="43.370730" lon="-2.576618">
        <ele>64.443</ele>
        <time>2019-06-15T17:51:44Z</time>
      </trkpt>
      <trkpt lat="43.370728" lon="-2.576821">
        <ele>62.318</ele>
        <time>2019-06-15T17:51:45Z</time>
      </trkpt>
      <trkpt lat="43.370732" lon="-2.577017">
        <ele>60.498</ele>
        <time>2019-06-15T17:51:46Z</time>
      </trkpt>
      <trkpt lat="43.370742" lon="-2.577223">
        <ele>59.117</ele>
        <time>2019-06-15T17:51:47Z</time>
      </trkpt>
      <trkpt lat="43.370767" lon="-2.577426">
        <ele>59.208</ele>
        <time>2019-06-15T17:51:48Z</time>
      </trkpt>
      <trkpt lat="43.370778" lon="-2.577629">
        <ele>57.584</ele>
        <time>2019-06-15T17:51:49Z</time>
      </trkpt>
      <trkpt lat="43.370803" lon="-2.577830">
        <ele>55.588</ele>
        <time>2019-06-15T17:51:50Z</time>
      </trkpt>
      <trkpt lat="43.370844" lon="-2.578009">
        <ele>54.597</ele>
        <time>2019-06-15T17:51:51Z</time>
      </trkpt>
      <trkpt lat="43.370874" lon="-2.578201">
        <ele>54.136</ele>
        <time>2019-06-15T17:51:52Z</time>
      </trkpt>
      <trkpt lat="43.370898" lon="-2.578386">
        <ele>54.495</ele>
        <time>2019-06-15T17:51:53Z</time>
      </trkpt>
      <trkpt lat="43.370898" lon="-2.578567">
        <ele>53.496</ele>
        <time>2019-06-15T17:51:54Z</time>
      </trkpt>
      <trkpt lat="43.370932" lon="-2.578748">
        <ele>53.665</ele>
        <time>2019-06-15T17:51:55Z</time>
      </trkpt>
      <trkpt lat="43.370961" lon="-2.578930">
        <ele>52.579</ele>
        <time>2019-06-15T17:51:56Z</time>
      </trkpt>
      <trkpt lat="43.371010" lon="-2.579089">
        <ele>52.166</ele>
        <time>2019-06-15T17:51:57Z</time>
      </trkpt>
      <trkpt lat="43.371062" lon="-2.579250">
        <ele>51.529</ele>
        <time>2019-06-15T17:51:58Z</time>
      </trkpt>
      <trkpt lat="43.371090" lon="-2.579404">
        <ele>49.721</ele>
        <time>2019-06-15T17:51:59Z</time>
      </trkpt>
      <trkpt lat="43.371146" lon="-2.579560">
        <ele>49.708</ele>
        <time>2019-06-15T17:52:00Z</time>
      </trkpt>
      <trkpt lat="43.371190" lon="-2.579718">
        <ele>48.859</ele>
        <time>2019-06-15T17:52:01Z</time>
      </trkpt>
      <trkpt lat="43.371229" lon="-2.579868">
        <ele>49.053</ele>
        <time>2019-06-15T17:52:02Z</time>
      </trkpt>
      <trkpt lat="43.371256" lon="-2.580010">
        <ele>48.772</ele>
        <time>2019-06-15T17:52:03Z</time>
      </trkpt>
      <trkpt lat="43.371250" lon="-2.580163">
        <ele>47.371</ele>
        <time>2019-06-15T17:52:04Z</time>
      </trkpt>
      <trkpt lat="43.371267" lon="-2.580311">
        <ele>46.450</ele>
        <time>2019-06-15T17:52:05Z</time>
      </trkpt>
      <trkpt lat="43.371300" lon="-2.580406">
        <ele>45.551</ele>
        <time>2019-06-15T17:52:06Z</time>
      </trkpt>
      <trkpt lat="43.371398" lon="-2.580519">
        <ele>46.040</ele>
        <time>2019-06-15T17:52:07Z</time>
      </trkpt>
      <trkpt lat="43.371449" lon="-2.580633">
        <ele>42.474</ele>
        <time>2019-06-15T17:52:08Z</time>
      </trkpt>
      <trkpt lat="43.371502" lon="-2.580726">
        <ele>39.166</ele>
        <time>2019-06-15T17:52:09Z</time>
      </trkpt>
      <trkpt lat="43.371596" lon="-2.580823">
        <ele>36.429</ele>
        <time>2019-06-15T17:52:10Z</time>
      </trkpt>
      <trkpt lat="43.371671" lon="-2.580838">
        <ele>36.821</ele>
        <time>2019-06-15T17:52:11Z</time>
      </trkpt>
      <trkpt lat="43.371804" lon="-2.580855">
        <ele>37.308</ele>
        <time>2019-06-15T17:52:12Z</time>
      </trkpt>
      <trkpt lat="43.371902" lon="-2.580772">
        <ele>41.239</ele>
        <time>2019-06-15T17:52:13Z</time>
      </trkpt>
      <trkpt lat="43.371995" lon="-2.580779">
        <ele>41.663</ele>
        <time>2019-06-15T17:52:14Z</time>
      </trkpt>
      <trkpt lat="43.372134" lon="-2.580747">
        <ele>42.522</ele>
        <time>2019-06-15T17:52:15Z</time>
      </trkpt>
      <trkpt lat="43.372283" lon="-2.580740">
        <ele>41.781</ele>
        <time>2019-06-15T17:52:16Z</time>
      </trkpt>
      <trkpt lat="43.372538" lon="-2.580703">
        <ele>37.850</ele>
        <time>2019-06-15T17:52:17Z</time>
      </trkpt>
      <trkpt lat="43.372675" lon="-2.580641">
        <ele>36.741</ele>
        <time>2019-06-15T17:52:18Z</time>
      </trkpt>
      <trkpt lat="43.372783" lon="-2.580600">
        <ele>36.840</ele>
        <time>2019-06-15T17:52:19Z</time>
      </trkpt>
      <trkpt lat="43.372856" lon="-2.580601">
        <ele>37.744</ele>
        <time>2019-06-15T17:52:20Z</time>
      </trkpt>
      <trkpt lat="43.372985" lon="-2.580634">
        <ele>38.697</ele>
        <time>2019-06-15T17:52:21Z</time>
      </trkpt>
      <trkpt lat="43.373117" lon="-2.580688">
        <ele>39.623</ele>
        <time>2019-06-15T17:52:22Z</time>
      </trkpt>
      <trkpt lat="43.373222" lon="-2.580779">
        <ele>39.525</ele>
        <time>2019-06-15T17:52:23Z</time>
      </trkpt>
      <trkpt lat="43.373341" lon="-2.580884">
        <ele>39.708</ele>
        <time>2019-06-15T17:52:24Z</time>
      </trkpt>
      <trkpt lat="43.373400" lon="-2.580956">
        <ele>40.362</ele>
        <time>2019-06-15T17:52:25Z</time>
      </trkpt>
      <trkpt lat="43.373469" lon="-2.581048">
        <ele>40.216</ele>
        <time>2019-06-15T17:52:26Z</time>
      </trkpt>
      <trkpt lat="43.373543" lon="-2.581134">
        <ele>39.885</ele>
        <time>2019-06-15T17:52:27Z</time>
      </trkpt>
      <trkpt lat="43.373614" lon="-2.581218">
        <ele>39.974</ele>
        <time>2019-06-15T17:52:28Z</time>
      </trkpt>
      <trkpt lat="43.373718" lon="-2.581289">
        <ele>40.633</ele>
        <time>2019-06-15T17:52:29Z</time>
      </trkpt>
      <trkpt lat="43.373807" lon="-2.581368">
        <ele>39.484</ele>
        <time>2019-06-15T17:52:30Z</time>
      </trkpt>
      <trkpt lat="43.373892" lon="-2.581432">
        <ele>37.233</ele>
        <time>2019-06-15T17:52:31Z</time>
      </trkpt>
      <trkpt lat="43.373995" lon="-2.581476">
        <ele>36.577</ele>
        <time>2019-06-15T17:52:32Z</time>
      </trkpt>
      <trkpt lat="43.374101" lon="-2.581515">
        <ele>35.911</ele>
        <time>2019-06-15T17:52:33Z</time>
      </trkpt>
      <trkpt lat="43.374214" lon="-2.581555">
        <ele>35.921</ele>
        <time>2019-06-15T17:52:34Z</time>
      </trkpt>
      <trkpt lat="43.374313" lon="-2.581593">
        <ele>36.403</ele>
        <time>2019-06-15T17:52:35Z</time>
      </trkpt>
      <trkpt lat="43.374394" lon="-2.581639">
        <ele>35.608</ele>
        <time>2019-06-15T17:52:36Z</time>
      </trkpt>
      <trkpt lat="43.374487" lon="-2.581716">
        <ele>35.624</ele>
        <time>2019-06-15T17:52:37Z</time>
      </trkpt>
      <trkpt lat="43.374595" lon="-2.581826">
        <ele>37.018</ele>
        <time>2019-06-15T17:52:38Z</time>
      </trkpt>
      <trkpt lat="43.374688" lon="-2.581956">
        <ele>36.017</ele>
        <time>2019-06-15T17:52:39Z</time>
      </trkpt>
      <trkpt lat="43.374783" lon="-2.582105">
        <ele>35.536</ele>
        <time>2019-06-15T17:52:40Z</time>
      </trkpt>
      <trkpt lat="43.374862" lon="-2.582255">
        <ele>34.415</ele>
        <time>2019-06-15T17:52:41Z</time>
      </trkpt>
      <trkpt lat="43.374947" lon="-2.582400">
        <ele>33.786</ele>
        <time>2019-06-15T17:52:42Z</time>
      </trkpt>
      <trkpt lat="43.375025" lon="-2.582539">
        <ele>32.195</ele>
        <time>2019-06-15T17:52:43Z</time>
      </trkpt>
      <trkpt lat="43.375114" lon="-2.582671">
        <ele>32.079</ele>
        <time>2019-06-15T17:52:44Z</time>
      </trkpt>
      <trkpt lat="43.375197" lon="-2.582788">
        <ele>31.145</ele>
        <time>2019-06-15T17:52:45Z</time>
      </trkpt>
      <trkpt lat="43.375280" lon="-2.582910">
        <ele>29.447</ele>
        <time>2019-06-15T17:52:46Z</time>
      </trkpt>
      <trkpt lat="43.375364" lon="-2.583033">
        <ele>26.511</ele>
        <time>2019-06-15T17:52:47Z</time>
      </trkpt>
      <trkpt lat="43.375446" lon="-2.583149">
        <ele>25.508</ele>
        <time>2019-06-15T17:52:48Z</time>
      </trkpt>
      <trkpt lat="43.375532" lon="-2.583266">
        <ele>25.087</ele>
        <time>2019-06-15T17:52:49Z</time>
      </trkpt>
      <trkpt lat="43.375615" lon="-2.583381">
        <ele>24.191</ele>
        <time>2019-06-15T17:52:50Z</time>
      </trkpt>
      <trkpt lat="43.375701" lon="-2.583507">
        <ele>23.540</ele>
        <time>2019-06-15T17:52:51Z</time>
      </trkpt>
      <trkpt lat="43.375789" lon="-2.583623">
        <ele>23.779</ele>
        <time>2019-06-15T17:52:52Z</time>
      </trkpt>
      <trkpt lat="43.375874" lon="-2.583747">
        <ele>23.088</ele>
        <time>2019-06-15T17:52:53Z</time>
      </trkpt>
      <trkpt lat="43.375967" lon="-2.583860">
        <ele>22.059</ele>
        <time>2019-06-15T17:52:54Z</time>
      </trkpt>
      <trkpt lat="43.376067" lon="-2.583963">
        <ele>21.298</ele>
        <time>2019-06-15T17:52:55Z</time>
      </trkpt>
      <trkpt lat="43.376184" lon="-2.584046">
        <ele>20.852</ele>
        <time>2019-06-15T17:52:56Z</time>
      </trkpt>
      <trkpt lat="43.376303" lon="-2.584100">
        <ele>20.752</ele>
        <time>2019-06-15T17:52:57Z</time>
      </trkpt>
      <trkpt lat="43.376414" lon="-2.584168">
        <ele>20.553</ele>
        <time>2019-06-15T17:52:58Z</time>
      </trkpt>
      <trkpt lat="43.376517" lon="-2.584242">
        <ele>20.908</ele>
        <time>2019-06-15T17:52:59Z</time>
      </trkpt>
      <trkpt lat="43.376631" lon="-2.584304">
        <ele>21.008</ele>
        <time>2019-06-15T17:53:00Z</time>
      </trkpt>
      <trkpt lat="43.376735" lon="-2.584367">
        <ele>20.198</ele>
        <time>2019-06-15T17:53:01Z</time>
      </trkpt>
      <trkpt lat="43.376838" lon="-2.584419">
        <ele>19.222</ele>
        <time>2019-06-15T17:53:02Z</time>
      </trkpt>
      <trkpt lat="43.376947" lon="-2.584465">
        <ele>18.351</ele>
        <time>2019-06-15T17:53:03Z</time>
      </trkpt>
      <trkpt lat="43.377059" lon="-2.584500">
        <ele>17.520</ele>
        <time>2019-06-15T17:53:04Z</time>
      </trkpt>
      <trkpt lat="43.377184" lon="-2.584532">
        <ele>16.869</ele>
        <time>2019-06-15T17:53:05Z</time>
      </trkpt>
      <trkpt lat="43.377308" lon="-2.584564">
        <ele>16.050</ele>
        <time>2019-06-15T17:53:06Z</time>
      </trkpt>
      <trkpt lat="43.377419" lon="-2.584592">
        <ele>15.459</ele>
        <time>2019-06-15T17:53:07Z</time>
      </trkpt>
      <trkpt lat="43.377535" lon="-2.584623">
        <ele>14.763</ele>
        <time>2019-06-15T17:53:08Z</time>
      </trkpt>
      <trkpt lat="43.377643" lon="-2.584648">
        <ele>14.225</ele>
        <time>2019-06-15T17:53:09Z</time>
      </trkpt>
      <trkpt lat="43.377750" lon="-2.584678">
        <ele>13.526</ele>
        <time>2019-06-15T17:53:10Z</time>
      </trkpt>
      <trkpt lat="43.377852" lon="-2.584706">
        <ele>12.508</ele>
        <time>2019-06-15T17:53:11Z</time>
      </trkpt>
      <trkpt lat="43.377953" lon="-2.584733">
        <ele>11.808</ele>
        <time>2019-06-15T17:53:12Z</time>
      </trkpt>
      <trkpt lat="43.378056" lon="-2.584733">
        <ele>11.815</ele>
        <time>2019-06-15T17:53:13Z</time>
      </trkpt>
      <trkpt lat="43.378124" lon="-2.584722">
        <ele>12.089</ele>
        <time>2019-06-15T17:53:14Z</time>
      </trkpt>
      <trkpt lat="43.378208" lon="-2.584754">
        <ele>11.478</ele>
        <time>2019-06-15T17:53:15Z</time>
      </trkpt>
      <trkpt lat="43.378291" lon="-2.584784">
        <ele>10.987</ele>
        <time>2019-06-15T17:53:16Z</time>
      </trkpt>
      <trkpt lat="43.378369" lon="-2.584830">
        <ele>10.326</ele>
        <time>2019-06-15T17:53:17Z</time>
      </trkpt>
      <trkpt lat="43.378452" lon="-2.584857">
        <ele>10.447</ele>
        <time>2019-06-15T17:53:18Z</time>
      </trkpt>
      <trkpt lat="43.378567" lon="-2.584901">
        <ele>10.216</ele>
        <time>2019-06-15T17:53:19Z</time>
      </trkpt>
      <trkpt lat="43.378634" lon="-2.584910">
        <ele>10.350</ele>
        <time>2019-06-15T17:53:20Z</time>
      </trkpt>
      <trkpt lat="43.378690" lon="-2.584934">
        <ele>9.789</ele>
        <time>2019-06-15T17:53:21Z</time>
      </trkpt>
      <trkpt lat="43.378761" lon="-2.584955">
        <ele>9.106</ele>
        <time>2019-06-15T17:53:22Z</time>
      </trkpt>
      <trkpt lat="43.378806" lon="-2.584962">
        <ele>9.026</ele>
        <time>2019-06-15T17:53:23Z</time>
      </trkpt>
      <trkpt lat="43.378914" lon="-2.585013">
        <ele>7.908</ele>
        <time>2019-06-15T17:53:25Z</time>
      </trkpt>
      <trkpt lat="43.379006" lon="-2.585011">
        <ele>8.331</ele>
        <time>2019-06-15T17:53:26Z</time>
      </trkpt>
      <trkpt lat="43.379075" lon="-2.585031">
        <ele>8.345</ele>
        <time>2019-06-15T17:53:27Z</time>
      </trkpt>
      <trkpt lat="43.379140" lon="-2.585056">
        <ele>8.174</ele>
        <time>2019-06-15T17:53:28Z</time>
      </trkpt>
      <trkpt lat="43.379247" lon="-2.585082">
        <ele>7.543</ele>
        <time>2019-06-15T17:53:29Z</time>
      </trkpt>
      <trkpt lat="43.379308" lon="-2.585094">
        <ele>7.112</ele>
        <time>2019-06-15T17:53:30Z</time>
      </trkpt>
      <trkpt lat="43.379433" lon="-2.585109">
        <ele>6.543</ele>
        <time>2019-06-15T17:53:31Z</time>
      </trkpt>
      <trkpt lat="43.379552" lon="-2.585067">
        <ele>6.432</ele>
        <time>2019-06-15T17:53:33Z</time>
      </trkpt>
      <trkpt lat="43.379609" lon="-2.585042">
        <ele>6.426</ele>
        <time>2019-06-15T17:53:34Z</time>
      </trkpt>
      <trkpt lat="43.379664" lon="-2.585017">
        <ele>6.389</ele>
        <time>2019-06-15T17:53:35Z</time>
      </trkpt>
      <trkpt lat="43.379709" lon="-2.585014">
        <ele>6.006</ele>
        <time>2019-06-15T17:53:36Z</time>
      </trkpt>
      <trkpt lat="43.379774" lon="-2.584997">
        <ele>5.926</ele>
        <time>2019-06-15T17:53:37Z</time>
      </trkpt>
      <trkpt lat="43.379858" lon="-2.584996">
        <ele>5.508</ele>
        <time>2019-06-15T17:53:38Z</time>
      </trkpt>
      <trkpt lat="43.379912" lon="-2.584992">
        <ele>5.481</ele>
        <time>2019-06-15T17:53:39Z</time>
      </trkpt>
      <trkpt lat="43.379977" lon="-2.585024">
        <ele>5.165</ele>
        <time>2019-06-15T17:53:40Z</time>
      </trkpt>
      <trkpt lat="43.380046" lon="-2.585087">
        <ele>4.774</ele>
        <time>2019-06-15T17:53:42Z</time>
      </trkpt>
      <trkpt lat="43.380046" lon="-2.585173">
        <ele>4.873</ele>
        <time>2019-06-15T17:53:44Z</time>
      </trkpt>
      <trkpt lat="43.380068" lon="-2.585262">
        <ele>4.762</ele>
        <time>2019-06-15T17:53:46Z</time>
      </trkpt>
      <trkpt lat="43.380094" lon="-2.585350">
        <ele>4.983</ele>
        <time>2019-06-15T17:53:48Z</time>
      </trkpt>
      <trkpt lat="43.380110" lon="-2.585418">
        <ele>5.252</ele>
        <time>2019-06-15T17:53:50Z</time>
      </trkpt>
      <trkpt lat="43.380129" lon="-2.585479">
        <ele>5.546</ele>
        <time>2019-06-15T17:53:52Z</time>
      </trkpt>
      <trkpt lat="43.380156" lon="-2.585538">
        <ele>6.031</ele>
        <time>2019-06-15T17:53:54Z</time>
      </trkpt>
      <trkpt lat="43.380209" lon="-2.585586">
        <ele>6.661</ele>
        <time>2019-06-15T17:53:56Z</time>
      </trkpt>
      <trkpt lat="43.380265" lon="-2.585644">
        <ele>7.207</ele>
        <time>2019-06-15T17:53:58Z</time>
      </trkpt>
      <trkpt lat="43.380313" lon="-2.585745">
        <ele>8.908</ele>
        <time>2019-06-15T17:54:00Z</time>
      </trkpt>
      <trkpt lat="43.380342" lon="-2.585798">
        <ele>10.236</ele>
        <time>2019-06-15T17:54:01Z</time>
      </trkpt>
      <trkpt lat="43.380377" lon="-2.585867">
        <ele>11.330</ele>
        <time>2019-06-15T17:54:02Z</time>
      </trkpt>
      <trkpt lat="43.380413" lon="-2.585925">
        <ele>11.999</ele>
        <time>2019-06-15T17:54:03Z</time>
      </trkpt>
      <trkpt lat="43.380451" lon="-2.585977">
        <ele>12.418</ele>
        <time>2019-06-15T17:54:04Z</time>
      </trkpt>
      <trkpt lat="43.380506" lon="-2.586027">
        <ele>13.247</ele>
        <time>2019-06-15T17:54:05Z</time>
      </trkpt>
      <trkpt lat="43.380553" lon="-2.586074">
        <ele>13.648</ele>
        <time>2019-06-15T17:54:06Z</time>
      </trkpt>
      <trkpt lat="43.380577" lon="-2.586198">
        <ele>13.387</ele>
        <time>2019-06-15T17:54:08Z</time>
      </trkpt>
      <trkpt lat="43.380618" lon="-2.586315">
        <ele>14.111</ele>
        <time>2019-06-15T17:54:10Z</time>
      </trkpt>
      <trkpt lat="43.380651" lon="-2.586394">
        <ele>14.748</ele>
        <time>2019-06-15T17:54:11Z</time>
      </trkpt>
      <trkpt lat="43.380663" lon="-2.586538">
        <ele>13.761</ele>
        <time>2019-06-15T17:54:12Z</time>
      </trkpt>
      <trkpt lat="43.380722" lon="-2.586662">
        <ele>13.717</ele>
        <time>2019-06-15T17:54:13Z</time>
      </trkpt>
      <trkpt lat="43.380775" lon="-2.586780">
        <ele>13.808</ele>
        <time>2019-06-15T17:54:14Z</time>
      </trkpt>
      <trkpt lat="43.380831" lon="-2.586900">
        <ele>14.327</ele>
        <time>2019-06-15T17:54:15Z</time>
      </trkpt>
      <trkpt lat="43.380894" lon="-2.587048">
        <ele>15.091</ele>
        <time>2019-06-15T17:54:16Z</time>
      </trkpt>
      <trkpt lat="43.380993" lon="-2.587193">
        <ele>16.530</ele>
        <time>2019-06-15T17:54:17Z</time>
      </trkpt>
      <trkpt lat="43.381082" lon="-2.587336">
        <ele>19.069</ele>
        <time>2019-06-15T17:54:18Z</time>
      </trkpt>
      <trkpt lat="43.381128" lon="-2.587484">
        <ele>21.058</ele>
        <time>2019-06-15T17:54:19Z</time>
      </trkpt>
      <trkpt lat="43.381154" lon="-2.587646">
        <ele>22.929</ele>
        <time>2019-06-15T17:54:20Z</time>
      </trkpt>
      <trkpt lat="43.381161" lon="-2.587814">
        <ele>23.948</ele>
        <time>2019-06-15T17:54:21Z</time>
      </trkpt>
      <trkpt lat="43.381153" lon="-2.588002">
        <ele>24.582</ele>
        <time>2019-06-15T17:54:22Z</time>
      </trkpt>
      <trkpt lat="43.381142" lon="-2.588200">
        <ele>26.598</ele>
        <time>2019-06-15T17:54:23Z</time>
      </trkpt>
      <trkpt lat="43.381120" lon="-2.588389">
        <ele>27.815</ele>
        <time>2019-06-15T17:54:24Z</time>
      </trkpt>
      <trkpt lat="43.381112" lon="-2.588576">
        <ele>28.826</ele>
        <time>2019-06-15T17:54:25Z</time>
      </trkpt>
      <trkpt lat="43.381096" lon="-2.588764">
        <ele>29.408</ele>
        <time>2019-06-15T17:54:26Z</time>
      </trkpt>
      <trkpt lat="43.381075" lon="-2.588937">
        <ele>30.042</ele>
        <time>2019-06-15T17:54:27Z</time>
      </trkpt>
      <trkpt lat="43.381040" lon="-2.589112">
        <ele>31.356</ele>
        <time>2019-06-15T17:54:28Z</time>
      </trkpt>
      <trkpt lat="43.380988" lon="-2.589264">
        <ele>31.995</ele>
        <time>2019-06-15T17:54:29Z</time>
      </trkpt>
      <trkpt lat="43.380946" lon="-2.589413">
        <ele>32.964</ele>
        <time>2019-06-15T17:54:30Z</time>
      </trkpt>
      <trkpt lat="43.380915" lon="-2.589561">
        <ele>33.273</ele>
        <time>2019-06-15T17:54:31Z</time>
      </trkpt>
      <trkpt lat="43.380908" lon="-2.589707">
        <ele>34.174</ele>
        <time>2019-06-15T17:54:32Z</time>
      </trkpt>
      <trkpt lat="43.380940" lon="-2.589840">
        <ele>34.053</ele>
        <time>2019-06-15T17:54:33Z</time>
      </trkpt>
      <trkpt lat="43.380975" lon="-2.589974">
        <ele>33.537</ele>
        <time>2019-06-15T17:54:34Z</time>
      </trkpt>
      <trkpt lat="43.381089" lon="-2.590063">
        <ele>36.369</ele>
        <time>2019-06-15T17:54:35Z</time>
      </trkpt>
      <trkpt lat="43.381177" lon="-2.590170">
        <ele>37.504</ele>
        <time>2019-06-15T17:54:36Z</time>
      </trkpt>
      <trkpt lat="43.381237" lon="-2.590307">
        <ele>37.224</ele>
        <time>2019-06-15T17:54:37Z</time>
      </trkpt>
      <trkpt lat="43.381305" lon="-2.590465">
        <ele>39.208</ele>
        <time>2019-06-15T17:54:38Z</time>
      </trkpt>
      <trkpt lat="43.381352" lon="-2.590615">
        <ele>41.019</ele>
        <time>2019-06-15T17:54:39Z</time>
      </trkpt>
      <trkpt lat="43.381384" lon="-2.590788">
        <ele>42.613</ele>
        <time>2019-06-15T17:54:40Z</time>
      </trkpt>
      <trkpt lat="43.381395" lon="-2.590955">
        <ele>44.112</ele>
        <time>2019-06-15T17:54:41Z</time>
      </trkpt>
      <trkpt lat="43.381374" lon="-2.591131">
        <ele>44.641</ele>
        <time>2019-06-15T17:54:42Z</time>
      </trkpt>
      <trkpt lat="43.381348" lon="-2.591289">
        <ele>45.230</ele>
        <time>2019-06-15T17:54:43Z</time>
      </trkpt>
      <trkpt lat="43.381273" lon="-2.591392">
        <ele>46.081</ele>
        <time>2019-06-15T17:54:44Z</time>
      </trkpt>
      <trkpt lat="43.381201" lon="-2.591493">
        <ele>46.490</ele>
        <time>2019-06-15T17:54:45Z</time>
      </trkpt>
      <trkpt lat="43.381094" lon="-2.591570">
        <ele>47.784</ele>
        <time>2019-06-15T17:54:46Z</time>
      </trkpt>
      <trkpt lat="43.381045" lon="-2.591618">
        <ele>49.329</ele>
        <time>2019-06-15T17:54:47Z</time>
      </trkpt>
      <trkpt lat="43.380962" lon="-2.591688">
        <ele>53.000</ele>
        <time>2019-06-15T17:54:48Z</time>
      </trkpt>
      <trkpt lat="43.380818" lon="-2.591665">
        <ele>56.020</ele>
        <time>2019-06-15T17:54:49Z</time>
      </trkpt>
      <trkpt lat="43.380740" lon="-2.591725">
        <ele>58.808</ele>
        <time>2019-06-15T17:54:50Z</time>
      </trkpt>
      <trkpt lat="43.380645" lon="-2.591829">
        <ele>63.395</ele>
        <time>2019-06-15T17:54:51Z</time>
      </trkpt>
      <trkpt lat="43.380561" lon="-2.591962">
        <ele>68.359</ele>
        <time>2019-06-15T17:54:52Z</time>
      </trkpt>
      <trkpt lat="43.380498" lon="-2.592100">
        <ele>69.138</ele>
        <time>2019-06-15T17:54:53Z</time>
      </trkpt>
      <trkpt lat="43.380433" lon="-2.592247">
        <ele>69.767</ele>
        <time>2019-06-15T17:54:54Z</time>
      </trkpt>
      <trkpt lat="43.380358" lon="-2.592409">
        <ele>69.326</ele>
        <time>2019-06-15T17:54:55Z</time>
      </trkpt>
      <trkpt lat="43.380261" lon="-2.592594">
        <ele>68.117</ele>
        <time>2019-06-15T17:54:56Z</time>
      </trkpt>
      <trkpt lat="43.380187" lon="-2.592776">
        <ele>68.346</ele>
        <time>2019-06-15T17:54:57Z</time>
      </trkpt>
      <trkpt lat="43.380109" lon="-2.592967">
        <ele>70.030</ele>
        <time>2019-06-15T17:54:58Z</time>
      </trkpt>
      <trkpt lat="43.380045" lon="-2.593146">
        <ele>72.618</ele>
        <time>2019-06-15T17:54:59Z</time>
      </trkpt>
      <trkpt lat="43.379968" lon="-2.593321">
        <ele>75.698</ele>
        <time>2019-06-15T17:55:00Z</time>
      </trkpt>
      <trkpt lat="43.379888" lon="-2.593492">
        <ele>79.817</ele>
        <time>2019-06-15T17:55:01Z</time>
      </trkpt>
      <trkpt lat="43.379830" lon="-2.593675">
        <ele>82.708</ele>
        <time>2019-06-15T17:55:02Z</time>
      </trkpt>
      <trkpt lat="43.379774" lon="-2.593825">
        <ele>83.534</ele>
        <time>2019-06-15T17:55:03Z</time>
      </trkpt>
      <trkpt lat="43.379756" lon="-2.594000">
        <ele>84.878</ele>
        <time>2019-06-15T17:55:04Z</time>
      </trkpt>
      <trkpt lat="43.379746" lon="-2.594178">
        <ele>85.827</ele>
        <time>2019-06-15T17:55:05Z</time>
      </trkpt>
      <trkpt lat="43.379774" lon="-2.594368">
        <ele>87.466</ele>
        <time>2019-06-15T17:55:06Z</time>
      </trkpt>
      <trkpt lat="43.379787" lon="-2.594537">
        <ele>88.275</ele>
        <time>2019-06-15T17:55:07Z</time>
      </trkpt>
      <trkpt lat="43.379818" lon="-2.594729">
        <ele>89.556</ele>
        <time>2019-06-15T17:55:08Z</time>
      </trkpt>
      <trkpt lat="43.379843" lon="-2.594914">
        <ele>90.735</ele>
        <time>2019-06-15T17:55:09Z</time>
      </trkpt>
      <trkpt lat="43.379868" lon="-2.595104">
        <ele>91.719</ele>
        <time>2019-06-15T17:55:10Z</time>
      </trkpt>
      <trkpt lat="43.379908" lon="-2.595305">
        <ele>93.059</ele>
        <time>2019-06-15T17:55:11Z</time>
      </trkpt>
      <trkpt lat="43.379960" lon="-2.595510">
        <ele>94.003</ele>
        <time>2019-06-15T17:55:12Z</time>
      </trkpt>
      <trkpt lat="43.380014" lon="-2.595718">
        <ele>95.523</ele>
        <time>2019-06-15T17:55:13Z</time>
      </trkpt>
      <trkpt lat="43.380073" lon="-2.595938">
        <ele>96.908</ele>
        <time>2019-06-15T17:55:14Z</time>
      </trkpt>
      <trkpt lat="43.380144" lon="-2.596151">
        <ele>97.928</ele>
        <time>2019-06-15T17:55:15Z</time>
      </trkpt>
      <trkpt lat="43.380215" lon="-2.596366">
        <ele>98.652</ele>
        <time>2019-06-15T17:55:16Z</time>
      </trkpt>
      <trkpt lat="43.380283" lon="-2.596562">
        <ele>100.141</ele>
        <time>2019-06-15T17:55:17Z</time>
      </trkpt>
      <trkpt lat="43.380309" lon="-2.596747">
        <ele>100.680</ele>
        <time>2019-06-15T17:55:18Z</time>
      </trkpt>
      <trkpt lat="43.380359" lon="-2.596950">
        <ele>101.599</ele>
        <time>2019-06-15T17:55:19Z</time>
      </trkpt>
      <trkpt lat="43.380387" lon="-2.597149">
        <ele>102.030</ele>
        <time>2019-06-15T17:55:20Z</time>
      </trkpt>
      <trkpt lat="43.380424" lon="-2.597343">
        <ele>103.149</ele>
        <time>2019-06-15T17:55:21Z</time>
      </trkpt>
      <trkpt lat="43.380446" lon="-2.597538">
        <ele>104.213</ele>
        <time>2019-06-15T17:55:22Z</time>
      </trkpt>
      <trkpt lat="43.380470" lon="-2.597729">
        <ele>105.522</ele>
        <time>2019-06-15T17:55:23Z</time>
      </trkpt>
      <trkpt lat="43.380505" lon="-2.597925">
        <ele>106.362</ele>
        <time>2019-06-15T17:55:24Z</time>
      </trkpt>
      <trkpt lat="43.380540" lon="-2.598102">
        <ele>106.808</ele>
        <time>2019-06-15T17:55:25Z</time>
      </trkpt>
      <trkpt lat="43.380588" lon="-2.598282">
        <ele>107.308</ele>
        <time>2019-06-15T17:55:26Z</time>
      </trkpt>
      <trkpt lat="43.380692" lon="-2.598457">
        <ele>109.175</ele>
        <time>2019-06-15T17:55:27Z</time>
      </trkpt>
      <trkpt lat="43.380784" lon="-2.598632">
        <ele>111.339</ele>
        <time>2019-06-15T17:55:28Z</time>
      </trkpt>
      <trkpt lat="43.380849" lon="-2.598836">
        <ele>112.168</ele>
        <time>2019-06-15T17:55:29Z</time>
      </trkpt>
      <trkpt lat="43.380899" lon="-2.599053">
        <ele>113.147</ele>
        <time>2019-06-15T17:55:30Z</time>
      </trkpt>
      <trkpt lat="43.380944" lon="-2.599272">
        <ele>114.696</ele>
        <time>2019-06-15T17:55:31Z</time>
      </trkpt>
      <trkpt lat="43.380974" lon="-2.599505">
        <ele>116.367</ele>
        <time>2019-06-15T17:55:32Z</time>
      </trkpt>
      <trkpt lat="43.380997" lon="-2.599750">
        <ele>118.046</ele>
        <time>2019-06-15T17:55:33Z</time>
      </trkpt>
      <trkpt lat="43.381006" lon="-2.599994">
        <ele>120.150</ele>
        <time>2019-06-15T17:55:34Z</time>
      </trkpt>
      <trkpt lat="43.381011" lon="-2.600254">
        <ele>122.625</ele>
        <time>2019-06-15T17:55:35Z</time>
      </trkpt>
      <trkpt lat="43.381020" lon="-2.600510">
        <ele>124.426</ele>
        <time>2019-06-15T17:55:36Z</time>
      </trkpt>
      <trkpt lat="43.381030" lon="-2.600766">
        <ele>125.708</ele>
        <time>2019-06-15T17:55:37Z</time>
      </trkpt>
      <trkpt lat="43.381029" lon="-2.601034">
        <ele>127.208</ele>
        <time>2019-06-15T17:55:38Z</time>
      </trkpt>
      <trkpt lat="43.381031" lon="-2.601303">
        <ele>128.665</ele>
        <time>2019-06-15T17:55:39Z</time>
      </trkpt>
      <trkpt lat="43.381025" lon="-2.601574">
        <ele>129.749</ele>
        <time>2019-06-15T17:55:40Z</time>
      </trkpt>
      <trkpt lat="43.381022" lon="-2.601847">
        <ele>131.418</ele>
        <time>2019-06-15T17:55:41Z</time>
      </trkpt>
      <trkpt lat="43.381022" lon="-2.602122">
        <ele>133.697</ele>
        <time>2019-06-15T17:55:42Z</time>
      </trkpt>
      <trkpt lat="43.381008" lon="-2.602394">
        <ele>135.216</ele>
        <time>2019-06-15T17:55:43Z</time>
      </trkpt>
      <trkpt lat="43.381003" lon="-2.602675">
        <ele>137.387</ele>
        <time>2019-06-15T17:55:44Z</time>
      </trkpt>
      <trkpt lat="43.381002" lon="-2.602949">
        <ele>139.976</ele>
        <time>2019-06-15T17:55:45Z</time>
      </trkpt>
      <trkpt lat="43.381008" lon="-2.603225">
        <ele>142.220</ele>
        <time>2019-06-15T17:55:46Z</time>
      </trkpt>
      <trkpt lat="43.381021" lon="-2.603504">
        <ele>144.467</ele>
        <time>2019-06-15T17:55:47Z</time>
      </trkpt>
      <trkpt lat="43.381031" lon="-2.603789">
        <ele>145.681</ele>
        <time>2019-06-15T17:55:48Z</time>
      </trkpt>
      <trkpt lat="43.381043" lon="-2.604075">
        <ele>147.419</ele>
        <time>2019-06-15T17:55:49Z</time>
      </trkpt>
      <trkpt lat="43.381053" lon="-2.604359">
        <ele>149.908</ele>
        <time>2019-06-15T17:55:50Z</time>
      </trkpt>
      <trkpt lat="43.381062" lon="-2.604631">
        <ele>150.469</ele>
        <time>2019-06-15T17:55:51Z</time>
      </trkpt>
      <trkpt lat="43.381068" lon="-2.604899">
        <ele>150.533</ele>
        <time>2019-06-15T17:55:52Z</time>
      </trkpt>
      <trkpt lat="43.381075" lon="-2.605174">
        <ele>150.752</ele>
        <time>2019-06-15T17:55:53Z</time>
      </trkpt>
      <trkpt lat="43.381078" lon="-2.605443">
        <ele>151.431</ele>
        <time>2019-06-15T17:55:54Z</time>
      </trkpt>
      <trkpt lat="43.381099" lon="-2.605716">
        <ele>153.190</ele>
        <time>2019-06-15T17:55:55Z</time>
      </trkpt>
      <trkpt lat="43.381126" lon="-2.605986">
        <ele>155.071</ele>
        <time>2019-06-15T17:55:56Z</time>
      </trkpt>
      <trkpt lat="43.381164" lon="-2.606257">
        <ele>156.770</ele>
        <time>2019-06-15T17:55:57Z</time>
      </trkpt>
      <trkpt lat="43.381190" lon="-2.606529">
        <ele>158.774</ele>
        <time>2019-06-15T17:55:58Z</time>
      </trkpt>
      <trkpt lat="43.381228" lon="-2.606790">
        <ele>160.269</ele>
        <time>2019-06-15T17:55:59Z</time>
      </trkpt>
      <trkpt lat="43.381270" lon="-2.607051">
        <ele>161.504</ele>
        <time>2019-06-15T17:56:00Z</time>
      </trkpt>
      <trkpt lat="43.381310" lon="-2.607305">
        <ele>162.724</ele>
        <time>2019-06-15T17:56:01Z</time>
      </trkpt>
      <trkpt lat="43.381329" lon="-2.607568">
        <ele>164.408</ele>
        <time>2019-06-15T17:56:02Z</time>
      </trkpt>
      <trkpt lat="43.381345" lon="-2.607832">
        <ele>166.199</ele>
        <time>2019-06-15T17:56:03Z</time>
      </trkpt>
      <trkpt lat="43.381344" lon="-2.608087">
        <ele>167.943</ele>
        <time>2019-06-15T17:56:04Z</time>
      </trkpt>
      <trkpt lat="43.381336" lon="-2.608341">
        <ele>169.222</ele>
        <time>2019-06-15T17:56:05Z</time>
      </trkpt>
      <trkpt lat="43.381313" lon="-2.608609">
        <ele>170.921</ele>
        <time>2019-06-15T17:56:06Z</time>
      </trkpt>
      <trkpt lat="43.381300" lon="-2.608886">
        <ele>171.660</ele>
        <time>2019-06-15T17:56:07Z</time>
      </trkpt>
      <trkpt lat="43.381291" lon="-2.609154">
        <ele>173.141</ele>
        <time>2019-06-15T17:56:08Z</time>
      </trkpt>
      <trkpt lat="43.381288" lon="-2.609411">
        <ele>173.960</ele>
        <time>2019-06-15T17:56:09Z</time>
      </trkpt>
      <trkpt lat="43.381266" lon="-2.609644">
        <ele>176.214</ele>
        <time>2019-06-15T17:56:10Z</time>
      </trkpt>
      <trkpt lat="43.381237" lon="-2.609888">
        <ele>178.732</ele>
        <time>2019-06-15T17:56:11Z</time>
      </trkpt>
      <trkpt lat="43.381217" lon="-2.610122">
        <ele>180.392</ele>
        <time>2019-06-15T17:56:12Z</time>
      </trkpt>
      <trkpt lat="43.381200" lon="-2.610361">
        <ele>181.911</ele>
        <time>2019-06-15T17:56:13Z</time>
      </trkpt>
      <trkpt lat="43.381195" lon="-2.610583">
        <ele>183.208</ele>
        <time>2019-06-15T17:56:14Z</time>
      </trkpt>
      <trkpt lat="43.381192" lon="-2.610796">
        <ele>184.036</ele>
        <time>2019-06-15T17:56:15Z</time>
      </trkpt>
      <trkpt lat="43.381188" lon="-2.611011">
        <ele>184.580</ele>
        <time>2019-06-15T17:56:16Z</time>
      </trkpt>
      <trkpt lat="43.381167" lon="-2.611226">
        <ele>186.759</ele>
        <time>2019-06-15T17:56:17Z</time>
      </trkpt>
      <trkpt lat="43.381160" lon="-2.611438">
        <ele>188.938</ele>
        <time>2019-06-15T17:56:18Z</time>
      </trkpt>
      <trkpt lat="43.381160" lon="-2.611647">
        <ele>191.197</ele>
        <time>2019-06-15T17:56:19Z</time>
      </trkpt>
      <trkpt lat="43.381165" lon="-2.611853">
        <ele>192.618</ele>
        <time>2019-06-15T17:56:20Z</time>
      </trkpt>
      <trkpt lat="43.381161" lon="-2.612045">
        <ele>194.747</ele>
        <time>2019-06-15T17:56:21Z</time>
      </trkpt>
      <trkpt lat="43.381146" lon="-2.612225">
        <ele>197.551</ele>
        <time>2019-06-15T17:56:22Z</time>
      </trkpt>
      <trkpt lat="43.381136" lon="-2.612399">
        <ele>198.893</ele>
        <time>2019-06-15T17:56:23Z</time>
      </trkpt>
      <trkpt lat="43.381125" lon="-2.612569">
        <ele>200.165</ele>
        <time>2019-06-15T17:56:24Z</time>
      </trkpt>
      <trkpt lat="43.381116" lon="-2.612741">
        <ele>201.721</ele>
        <time>2019-06-15T17:56:25Z</time>
      </trkpt>
      <trkpt lat="43.381099" lon="-2.612901">
        <ele>202.508</ele>
        <time>2019-06-15T17:56:26Z</time>
      </trkpt>
      <trkpt lat="43.381090" lon="-2.613052">
        <ele>203.162</ele>
        <time>2019-06-15T17:56:27Z</time>
      </trkpt>
      <trkpt lat="43.381077" lon="-2.613183">
        <ele>203.966</ele>
        <time>2019-06-15T17:56:28Z</time>
      </trkpt>
      <trkpt lat="43.381072" lon="-2.613299">
        <ele>204.615</ele>
        <time>2019-06-15T17:56:29Z</time>
      </trkpt>
      <trkpt lat="43.381075" lon="-2.613415">
        <ele>204.864</ele>
        <time>2019-06-15T17:56:30Z</time>
      </trkpt>
      <trkpt lat="43.381091" lon="-2.613522">
        <ele>204.943</ele>
        <time>2019-06-15T17:56:31Z</time>
      </trkpt>
      <trkpt lat="43.381108" lon="-2.613638">
        <ele>205.094</ele>
        <time>2019-06-15T17:56:32Z</time>
      </trkpt>
      <trkpt lat="43.381120" lon="-2.613761">
        <ele>205.073</ele>
        <time>2019-06-15T17:56:33Z</time>
      </trkpt>
      <trkpt lat="43.381127" lon="-2.613887">
        <ele>205.097</ele>
        <time>2019-06-15T17:56:34Z</time>
      </trkpt>
      <trkpt lat="43.381138" lon="-2.614031">
        <ele>205.125</ele>
        <time>2019-06-15T17:56:35Z</time>
      </trkpt>
      <trkpt lat="43.381152" lon="-2.614162">
        <ele>205.326</ele>
        <time>2019-06-15T17:56:36Z</time>
      </trkpt>
      <trkpt lat="43.381153" lon="-2.614293">
        <ele>204.908</ele>
        <time>2019-06-15T17:56:37Z</time>
      </trkpt>
      <trkpt lat="43.381159" lon="-2.614424">
        <ele>204.608</ele>
        <time>2019-06-15T17:56:38Z</time>
      </trkpt>
      <trkpt lat="43.381161" lon="-2.614549">
        <ele>203.965</ele>
        <time>2019-06-15T17:56:39Z</time>
      </trkpt>
      <trkpt lat="43.381162" lon="-2.614675">
        <ele>203.229</ele>
        <time>2019-06-15T17:56:40Z</time>
      </trkpt>
      <trkpt lat="43.381163" lon="-2.614813">
        <ele>202.618</ele>
        <time>2019-06-15T17:56:41Z</time>
      </trkpt>
      <trkpt lat="43.381162" lon="-2.614960">
        <ele>202.197</ele>
        <time>2019-06-15T17:56:42Z</time>
      </trkpt>
      <trkpt lat="43.381159" lon="-2.615121">
        <ele>201.086</ele>
        <time>2019-06-15T17:56:43Z</time>
      </trkpt>
      <trkpt lat="43.381163" lon="-2.615285">
        <ele>199.937</ele>
        <time>2019-06-15T17:56:44Z</time>
      </trkpt>
      <trkpt lat="43.381180" lon="-2.615457">
        <ele>198.866</ele>
        <time>2019-06-15T17:56:45Z</time>
      </trkpt>
      <trkpt lat="43.381208" lon="-2.615617">
        <ele>197.910</ele>
        <time>2019-06-15T17:56:46Z</time>
      </trkpt>
      <trkpt lat="43.381231" lon="-2.615767">
        <ele>196.917</ele>
        <time>2019-06-15T17:56:47Z</time>
      </trkpt>
      <trkpt lat="43.381270" lon="-2.615925">
        <ele>195.387</ele>
        <time>2019-06-15T17:56:48Z</time>
      </trkpt>
      <trkpt lat="43.381307" lon="-2.616064">
        <ele>193.915</ele>
        <time>2019-06-15T17:56:49Z</time>
      </trkpt>
      <trkpt lat="43.381346" lon="-2.616200">
        <ele>192.708</ele>
        <time>2019-06-15T17:56:50Z</time>
      </trkpt>
      <trkpt lat="43.381405" lon="-2.616333">
        <ele>192.064</ele>
        <time>2019-06-15T17:56:51Z</time>
      </trkpt>
      <trkpt lat="43.381475" lon="-2.616444">
        <ele>191.118</ele>
        <time>2019-06-15T17:56:52Z</time>
      </trkpt>
      <trkpt lat="43.381556" lon="-2.616558">
        <ele>190.417</ele>
        <time>2019-06-15T17:56:53Z</time>
      </trkpt>
      <trkpt lat="43.381653" lon="-2.616661">
        <ele>189.976</ele>
        <time>2019-06-15T17:56:54Z</time>
      </trkpt>
      <trkpt lat="43.381769" lon="-2.616756">
        <ele>188.345</ele>
        <time>2019-06-15T17:56:55Z</time>
      </trkpt>
      <trkpt lat="43.381874" lon="-2.616835">
        <ele>187.356</ele>
        <time>2019-06-15T17:56:56Z</time>
      </trkpt>
      <trkpt lat="43.381976" lon="-2.616904">
        <ele>186.655</ele>
        <time>2019-06-15T17:56:57Z</time>
      </trkpt>
      <trkpt lat="43.382075" lon="-2.616993">
        <ele>185.229</ele>
        <time>2019-06-15T17:56:58Z</time>
      </trkpt>
      <trkpt lat="43.382171" lon="-2.617086">
        <ele>184.533</ele>
        <time>2019-06-15T17:56:59Z</time>
      </trkpt>
      <trkpt lat="43.382258" lon="-2.617174">
        <ele>184.123</ele>
        <time>2019-06-15T17:57:00Z</time>
      </trkpt>
      <trkpt lat="43.382327" lon="-2.617286">
        <ele>182.815</ele>
        <time>2019-06-15T17:57:01Z</time>
      </trkpt>
      <trkpt lat="43.382391" lon="-2.617408">
        <ele>181.408</ele>
        <time>2019-06-15T17:57:02Z</time>
      </trkpt>
      <trkpt lat="43.382448" lon="-2.617538">
        <ele>180.836</ele>
        <time>2019-06-15T17:57:03Z</time>
      </trkpt>
      <trkpt lat="43.382493" lon="-2.617677">
        <ele>182.610</ele>
        <time>2019-06-15T17:57:04Z</time>
      </trkpt>
      <trkpt lat="43.382543" lon="-2.617825">
        <ele>182.329</ele>
        <time>2019-06-15T17:57:05Z</time>
      </trkpt>
      <trkpt lat="43.382598" lon="-2.617985">
        <ele>181.578</ele>
        <time>2019-06-15T17:57:06Z</time>
      </trkpt>
      <trkpt lat="43.382658" lon="-2.618140">
        <ele>181.337</ele>
        <time>2019-06-15T17:57:07Z</time>
      </trkpt>
      <trkpt lat="43.382703" lon="-2.618277">
        <ele>181.728</ele>
        <time>2019-06-15T17:57:08Z</time>
      </trkpt>
      <trkpt lat="43.382785" lon="-2.618427">
        <ele>182.057</ele>
        <time>2019-06-15T17:57:09Z</time>
      </trkpt>
      <trkpt lat="43.382865" lon="-2.618591">
        <ele>181.421</ele>
        <time>2019-06-15T17:57:10Z</time>
      </trkpt>
      <trkpt lat="43.382953" lon="-2.618761">
        <ele>182.427</ele>
        <time>2019-06-15T17:57:11Z</time>
      </trkpt>
      <trkpt lat="43.383054" lon="-2.618938">
        <ele>184.768</ele>
        <time>2019-06-15T17:57:12Z</time>
      </trkpt>
      <trkpt lat="43.383157" lon="-2.619108">
        <ele>183.114</ele>
        <time>2019-06-15T17:57:13Z</time>
      </trkpt>
      <trkpt lat="43.383254" lon="-2.619263">
        <ele>182.508</ele>
        <time>2019-06-15T17:57:14Z</time>
      </trkpt>
      <trkpt lat="43.383349" lon="-2.619416">
        <ele>183.615</ele>
        <time>2019-06-15T17:57:15Z</time>
      </trkpt>
      <trkpt lat="43.383442" lon="-2.619562">
        <ele>183.579</ele>
        <time>2019-06-15T17:57:16Z</time>
      </trkpt>
      <trkpt lat="43.383543" lon="-2.619712">
        <ele>182.798</ele>
        <time>2019-06-15T17:57:17Z</time>
      </trkpt>
      <trkpt lat="43.383629" lon="-2.619847">
        <ele>182.547</ele>
        <time>2019-06-15T17:57:18Z</time>
      </trkpt>
      <trkpt lat="43.383775" lon="-2.620011">
        <ele>183.366</ele>
        <time>2019-06-15T17:57:19Z</time>
      </trkpt>
      <trkpt lat="43.383888" lon="-2.620126">
        <ele>184.677</ele>
        <time>2019-06-15T17:57:20Z</time>
      </trkpt>
      <trkpt lat="43.384003" lon="-2.620213">
        <ele>184.996</ele>
        <time>2019-06-15T17:57:21Z</time>
      </trkpt>
      <trkpt lat="43.384122" lon="-2.620296">
        <ele>184.640</ele>
        <time>2019-06-15T17:57:22Z</time>
      </trkpt>
      <trkpt lat="43.384238" lon="-2.620385">
        <ele>182.932</ele>
        <time>2019-06-15T17:57:23Z</time>
      </trkpt>
      <trkpt lat="43.384334" lon="-2.620503">
        <ele>181.792</ele>
        <time>2019-06-15T17:57:24Z</time>
      </trkpt>
      <trkpt lat="43.384412" lon="-2.620639">
        <ele>180.111</ele>
        <time>2019-06-15T17:57:25Z</time>
      </trkpt>
      <trkpt lat="43.384461" lon="-2.620804">
        <ele>178.908</ele>
        <time>2019-06-15T17:57:26Z</time>
      </trkpt>
      <trkpt lat="43.384527" lon="-2.620971">
        <ele>178.896</ele>
        <time>2019-06-15T17:57:27Z</time>
      </trkpt>
      <trkpt lat="43.384542" lon="-2.621128">
        <ele>182.050</ele>
        <time>2019-06-15T17:57:28Z</time>
      </trkpt>
      <trkpt lat="43.384661" lon="-2.621224">
        <ele>181.189</ele>
        <time>2019-06-15T17:57:29Z</time>
      </trkpt>
      <trkpt lat="43.384741" lon="-2.621340">
        <ele>182.818</ele>
        <time>2019-06-15T17:57:30Z</time>
      </trkpt>
      <trkpt lat="43.384842" lon="-2.621447">
        <ele>183.797</ele>
        <time>2019-06-15T17:57:31Z</time>
      </trkpt>
      <trkpt lat="43.384967" lon="-2.621537">
        <ele>182.958</ele>
        <time>2019-06-15T17:57:32Z</time>
      </trkpt>
      <trkpt lat="43.385101" lon="-2.621612">
        <ele>181.987</ele>
        <time>2019-06-15T17:57:33Z</time>
      </trkpt>
      <trkpt lat="43.385220" lon="-2.621698">
        <ele>181.771</ele>
        <time>2019-06-15T17:57:34Z</time>
      </trkpt>
      <trkpt lat="43.385338" lon="-2.621795">
        <ele>182.576</ele>
        <time>2019-06-15T17:57:35Z</time>
      </trkpt>
      <trkpt lat="43.385457" lon="-2.621845">
        <ele>182.890</ele>
        <time>2019-06-15T17:57:36Z</time>
      </trkpt>
      <trkpt lat="43.385580" lon="-2.621883">
        <ele>183.019</ele>
        <time>2019-06-15T17:57:37Z</time>
      </trkpt>
      <trkpt lat="43.385705" lon="-2.621883">
        <ele>183.808</ele>
        <time>2019-06-15T17:57:38Z</time>
      </trkpt>
      <trkpt lat="43.385832" lon="-2.621858">
        <ele>184.470</ele>
        <time>2019-06-15T17:57:39Z</time>
      </trkpt>
      <trkpt lat="43.385922" lon="-2.621851">
        <ele>185.634</ele>
        <time>2019-06-15T17:57:40Z</time>
      </trkpt>
      <trkpt lat="43.385930" lon="-2.621582">
        <ele>184.193</ele>
        <time>2019-06-15T17:57:41Z</time>
      </trkpt>
      <trkpt lat="43.385976" lon="-2.621421">
        <ele>183.532</ele>
        <time>2019-06-15T17:57:42Z</time>
      </trkpt>
      <trkpt lat="43.386033" lon="-2.621244">
        <ele>182.551</ele>
        <time>2019-06-15T17:57:43Z</time>
      </trkpt>
      <trkpt lat="43.386110" lon="-2.621075">
        <ele>182.682</ele>
        <time>2019-06-15T17:57:44Z</time>
      </trkpt>
      <trkpt lat="43.386185" lon="-2.620941">
        <ele>182.211</ele>
        <time>2019-06-15T17:57:45Z</time>
      </trkpt>
      <trkpt lat="43.386269" lon="-2.620794">
        <ele>181.735</ele>
        <time>2019-06-15T17:57:46Z</time>
      </trkpt>
      <trkpt lat="43.386374" lon="-2.620685">
        <ele>182.152</ele>
        <time>2019-06-15T17:57:47Z</time>
      </trkpt>
      <trkpt lat="43.386506" lon="-2.620622">
        <ele>182.653</ele>
        <time>2019-06-15T17:57:48Z</time>
      </trkpt>
      <trkpt lat="43.386615" lon="-2.620533">
        <ele>182.408</ele>
        <time>2019-06-15T17:57:49Z</time>
      </trkpt>
      <trkpt lat="43.386720" lon="-2.620472">
        <ele>181.908</ele>
        <time>2019-06-15T17:57:50Z</time>
      </trkpt>
      <trkpt lat="43.386854" lon="-2.620480">
        <ele>181.568</ele>
        <time>2019-06-15T17:57:51Z</time>
      </trkpt>
      <trkpt lat="43.386962" lon="-2.620513">
        <ele>181.362</ele>
        <time>2019-06-15T17:57:52Z</time>
      </trkpt>
      <trkpt lat="43.387066" lon="-2.620577">
        <ele>180.931</ele>
        <time>2019-06-15T17:57:53Z</time>
      </trkpt>
      <trkpt lat="43.387173" lon="-2.620664">
        <ele>180.540</ele>
        <time>2019-06-15T17:57:54Z</time>
      </trkpt>
      <trkpt lat="43.387262" lon="-2.620772">
        <ele>179.789</ele>
        <time>2019-06-15T17:57:55Z</time>
      </trkpt>
      <trkpt lat="43.387355" lon="-2.620933">
        <ele>179.210</ele>
        <time>2019-06-15T17:57:56Z</time>
      </trkpt>
      <trkpt lat="43.387448" lon="-2.621085">
        <ele>178.839</ele>
        <time>2019-06-15T17:57:57Z</time>
      </trkpt>
      <trkpt lat="43.387541" lon="-2.621259">
        <ele>178.613</ele>
        <time>2019-06-15T17:57:58Z</time>
      </trkpt>
      <trkpt lat="43.387636" lon="-2.621443">
        <ele>178.091</ele>
        <time>2019-06-15T17:57:59Z</time>
      </trkpt>
      <trkpt lat="43.387749" lon="-2.621621">
        <ele>177.181</ele>
        <time>2019-06-15T17:58:00Z</time>
      </trkpt>
      <trkpt lat="43.387851" lon="-2.621813">
        <ele>177.119</ele>
        <time>2019-06-15T17:58:01Z</time>
      </trkpt>
      <trkpt lat="43.387959" lon="-2.621994">
        <ele>177.408</ele>
        <time>2019-06-15T17:58:02Z</time>
      </trkpt>
      <trkpt lat="43.388076" lon="-2.622194">
        <ele>177.632</ele>
        <time>2019-06-15T17:58:03Z</time>
      </trkpt>
      <trkpt lat="43.388186" lon="-2.622387">
        <ele>177.726</ele>
        <time>2019-06-15T17:58:04Z</time>
      </trkpt>
      <trkpt lat="43.388285" lon="-2.622567">
        <ele>178.365</ele>
        <time>2019-06-15T17:58:05Z</time>
      </trkpt>
      <trkpt lat="43.388388" lon="-2.622733">
        <ele>177.944</ele>
        <time>2019-06-15T17:58:06Z</time>
      </trkpt>
      <trkpt lat="43.388485" lon="-2.622885">
        <ele>177.993</ele>
        <time>2019-06-15T17:58:07Z</time>
      </trkpt>
      <trkpt lat="43.388572" lon="-2.623056">
        <ele>176.634</ele>
        <time>2019-06-15T17:58:08Z</time>
      </trkpt>
      <trkpt lat="43.388665" lon="-2.623221">
        <ele>174.893</ele>
        <time>2019-06-15T17:58:09Z</time>
      </trkpt>
      <trkpt lat="43.388760" lon="-2.623372">
        <ele>172.917</ele>
        <time>2019-06-15T17:58:10Z</time>
      </trkpt>
      <trkpt lat="43.388853" lon="-2.623525">
        <ele>171.533</ele>
        <time>2019-06-15T17:58:11Z</time>
      </trkpt>
      <trkpt lat="43.388952" lon="-2.623663">
        <ele>170.223</ele>
        <time>2019-06-15T17:58:12Z</time>
      </trkpt>
      <trkpt lat="43.389076" lon="-2.623794">
        <ele>169.215</ele>
        <time>2019-06-15T17:58:13Z</time>
      </trkpt>
      <trkpt lat="43.389217" lon="-2.623911">
        <ele>168.508</ele>
        <time>2019-06-15T17:58:14Z</time>
      </trkpt>
      <trkpt lat="43.389361" lon="-2.624020">
        <ele>167.926</ele>
        <time>2019-06-15T17:58:15Z</time>
      </trkpt>
      <trkpt lat="43.389504" lon="-2.624111">
        <ele>168.320</ele>
        <time>2019-06-15T17:58:16Z</time>
      </trkpt>
      <trkpt lat="43.389647" lon="-2.624213">
        <ele>168.279</ele>
        <time>2019-06-15T17:58:17Z</time>
      </trkpt>
      <trkpt lat="43.389773" lon="-2.624314">
        <ele>167.838</ele>
        <time>2019-06-15T17:58:18Z</time>
      </trkpt>
      <trkpt lat="43.389908" lon="-2.624417">
        <ele>167.317</ele>
        <time>2019-06-15T17:58:19Z</time>
      </trkpt>
      <trkpt lat="43.390046" lon="-2.624515">
        <ele>166.588</ele>
        <time>2019-06-15T17:58:20Z</time>
      </trkpt>
      <trkpt lat="43.390176" lon="-2.624626">
        <ele>165.557</ele>
        <time>2019-06-15T17:58:21Z</time>
      </trkpt>
      <trkpt lat="43.390321" lon="-2.624734">
        <ele>164.741</ele>
        <time>2019-06-15T17:58:22Z</time>
      </trkpt>
      <trkpt lat="43.390478" lon="-2.624842">
        <ele>163.332</ele>
        <time>2019-06-15T17:58:23Z</time>
      </trkpt>
      <trkpt lat="43.390628" lon="-2.624952">
        <ele>162.392</ele>
        <time>2019-06-15T17:58:24Z</time>
      </trkpt>
      <trkpt lat="43.390781" lon="-2.625061">
        <ele>161.411</ele>
        <time>2019-06-15T17:58:25Z</time>
      </trkpt>
      <trkpt lat="43.390935" lon="-2.625173">
        <ele>160.008</ele>
        <time>2019-06-15T17:58:26Z</time>
      </trkpt>
      <trkpt lat="43.391084" lon="-2.625271">
        <ele>159.196</ele>
        <time>2019-06-15T17:58:27Z</time>
      </trkpt>
      <trkpt lat="43.391229" lon="-2.625377">
        <ele>157.510</ele>
        <time>2019-06-15T17:58:28Z</time>
      </trkpt>
      <trkpt lat="43.391375" lon="-2.625482">
        <ele>156.739</ele>
        <time>2019-06-15T17:58:29Z</time>
      </trkpt>
      <trkpt lat="43.391516" lon="-2.625586">
        <ele>156.748</ele>
        <time>2019-06-15T17:58:30Z</time>
      </trkpt>
      <trkpt lat="43.391652" lon="-2.625684">
        <ele>156.147</ele>
        <time>2019-06-15T17:58:31Z</time>
      </trkpt>
      <trkpt lat="43.391771" lon="-2.625780">
        <ele>155.178</ele>
        <time>2019-06-15T17:58:32Z</time>
      </trkpt>
      <trkpt lat="43.391877" lon="-2.625885">
        <ele>154.477</ele>
        <time>2019-06-15T17:58:33Z</time>
      </trkpt>
      <trkpt lat="43.391986" lon="-2.626014">
        <ele>153.181</ele>
        <time>2019-06-15T17:58:34Z</time>
      </trkpt>
      <trkpt lat="43.392073" lon="-2.626165">
        <ele>151.999</ele>
        <time>2019-06-15T17:58:35Z</time>
      </trkpt>
      <trkpt lat="43.392126" lon="-2.626336">
        <ele>150.007</ele>
        <time>2019-06-15T17:58:36Z</time>
      </trkpt>
      <trkpt lat="43.392156" lon="-2.626509">
        <ele>147.827</ele>
        <time>2019-06-15T17:58:37Z</time>
      </trkpt>
      <trkpt lat="43.392145" lon="-2.626695">
        <ele>145.808</ele>
        <time>2019-06-15T17:58:38Z</time>
      </trkpt>
      <trkpt lat="43.392149" lon="-2.626912">
        <ele>144.542</ele>
        <time>2019-06-15T17:58:39Z</time>
      </trkpt>
      <trkpt lat="43.392143" lon="-2.627141">
        <ele>144.126</ele>
        <time>2019-06-15T17:58:40Z</time>
      </trkpt>
      <trkpt lat="43.392145" lon="-2.627372">
        <ele>144.885</ele>
        <time>2019-06-15T17:58:41Z</time>
      </trkpt>
      <trkpt lat="43.392154" lon="-2.627591">
        <ele>146.154</ele>
        <time>2019-06-15T17:58:42Z</time>
      </trkpt>
      <trkpt lat="43.392155" lon="-2.627803">
        <ele>147.323</ele>
        <time>2019-06-15T17:58:43Z</time>
      </trkpt>
      <trkpt lat="43.392145" lon="-2.628011">
        <ele>147.784</ele>
        <time>2019-06-15T17:58:44Z</time>
      </trkpt>
      <trkpt lat="43.392119" lon="-2.628214">
        <ele>147.833</ele>
        <time>2019-06-15T17:58:45Z</time>
      </trkpt>
      <trkpt lat="43.392077" lon="-2.628385">
        <ele>147.767</ele>
        <time>2019-06-15T17:58:46Z</time>
      </trkpt>
      <trkpt lat="43.392008" lon="-2.628593">
        <ele>147.824</ele>
        <time>2019-06-15T17:58:47Z</time>
      </trkpt>
      <trkpt lat="43.391941" lon="-2.628782">
        <ele>148.104</ele>
        <time>2019-06-15T17:58:48Z</time>
      </trkpt>
      <trkpt lat="43.391877" lon="-2.628975">
        <ele>147.714</ele>
        <time>2019-06-15T17:58:49Z</time>
      </trkpt>
      <trkpt lat="43.391812" lon="-2.629163">
        <ele>147.708</ele>
        <time>2019-06-15T17:58:50Z</time>
      </trkpt>
      <trkpt lat="43.391747" lon="-2.629347">
        <ele>147.375</ele>
        <time>2019-06-15T17:58:51Z</time>
      </trkpt>
      <trkpt lat="43.391696" lon="-2.629525">
        <ele>146.569</ele>
        <time>2019-06-15T17:58:52Z</time>
      </trkpt>
      <trkpt lat="43.391643" lon="-2.629713">
        <ele>145.368</ele>
        <time>2019-06-15T17:58:53Z</time>
      </trkpt>
      <trkpt lat="43.391589" lon="-2.629908">
        <ele>144.497</ele>
        <time>2019-06-15T17:58:54Z</time>
      </trkpt>
      <trkpt lat="43.391546" lon="-2.630091">
        <ele>144.026</ele>
        <time>2019-06-15T17:58:55Z</time>
      </trkpt>
      <trkpt lat="43.391512" lon="-2.630283">
        <ele>144.117</ele>
        <time>2019-06-15T17:58:56Z</time>
      </trkpt>
      <trkpt lat="43.391486" lon="-2.630461">
        <ele>143.416</ele>
        <time>2019-06-15T17:58:57Z</time>
      </trkpt>
      <trkpt lat="43.391461" lon="-2.630625">
        <ele>142.350</ele>
        <time>2019-06-15T17:58:58Z</time>
      </trkpt>
      <trkpt lat="43.391445" lon="-2.630791">
        <ele>140.531</ele>
        <time>2019-06-15T17:58:59Z</time>
      </trkpt>
      <trkpt lat="43.391448" lon="-2.630953">
        <ele>138.961</ele>
        <time>2019-06-15T17:59:00Z</time>
      </trkpt>
      <trkpt lat="43.391494" lon="-2.631102">
        <ele>138.007</ele>
        <time>2019-06-15T17:59:01Z</time>
      </trkpt>
      <trkpt lat="43.391548" lon="-2.631239">
        <ele>137.208</ele>
        <time>2019-06-15T17:59:02Z</time>
      </trkpt>
      <trkpt lat="43.391614" lon="-2.631384">
        <ele>136.316</ele>
        <time>2019-06-15T17:59:03Z</time>
      </trkpt>
      <trkpt lat="43.391684" lon="-2.631512">
        <ele>135.440</ele>
        <time>2019-06-15T17:59:04Z</time>
      </trkpt>
      <trkpt lat="43.391763" lon="-2.631637">
        <ele>134.549</ele>
        <time>2019-06-15T17:59:05Z</time>
      </trkpt>
      <trkpt lat="43.391851" lon="-2.631749">
        <ele>133.868</ele>
        <time>2019-06-15T17:59:06Z</time>
      </trkpt>
      <trkpt lat="43.391940" lon="-2.631845">
        <ele>133.437</ele>
        <time>2019-06-15T17:59:07Z</time>
      </trkpt>
      <trkpt lat="43.392028" lon="-2.631937">
        <ele>132.778</ele>
        <time>2019-06-15T17:59:08Z</time>
      </trkpt>
      <trkpt lat="43.392122" lon="-2.632023">
        <ele>131.637</ele>
        <time>2019-06-15T17:59:09Z</time>
      </trkpt>
      <trkpt lat="43.392231" lon="-2.632082">
        <ele>131.171</ele>
        <time>2019-06-15T17:59:10Z</time>
      </trkpt>
      <trkpt lat="43.392339" lon="-2.632120">
        <ele>130.514</ele>
        <time>2019-06-15T17:59:11Z</time>
      </trkpt>
      <trkpt lat="43.392456" lon="-2.632162">
        <ele>129.754</ele>
        <time>2019-06-15T17:59:12Z</time>
      </trkpt>
      <trkpt lat="43.392569" lon="-2.632206">
        <ele>129.509</ele>
        <time>2019-06-15T17:59:13Z</time>
      </trkpt>
      <trkpt lat="43.392686" lon="-2.632273">
        <ele>129.208</ele>
        <time>2019-06-15T17:59:14Z</time>
      </trkpt>
      <trkpt lat="43.392795" lon="-2.632332">
        <ele>128.794</ele>
        <time>2019-06-15T17:59:15Z</time>
      </trkpt>
      <trkpt lat="43.392893" lon="-2.632400">
        <ele>127.938</ele>
        <time>2019-06-15T17:59:16Z</time>
      </trkpt>
      <trkpt lat="43.392976" lon="-2.632464">
        <ele>126.677</ele>
        <time>2019-06-15T17:59:17Z</time>
      </trkpt>
      <trkpt lat="43.393062" lon="-2.632518">
        <ele>125.946</ele>
        <time>2019-06-15T17:59:18Z</time>
      </trkpt>
      <trkpt lat="43.393135" lon="-2.632575">
        <ele>126.365</ele>
        <time>2019-06-15T17:59:19Z</time>
      </trkpt>
      <trkpt lat="43.393213" lon="-2.632619">
        <ele>126.736</ele>
        <time>2019-06-15T17:59:21Z</time>
      </trkpt>
      <trkpt lat="43.393313" lon="-2.632677">
        <ele>127.285</ele>
        <time>2019-06-15T17:59:23Z</time>
      </trkpt>
      <trkpt lat="43.393360" lon="-2.632705">
        <ele>127.439</ele>
        <time>2019-06-15T17:59:24Z</time>
      </trkpt>
      <trkpt lat="43.393415" lon="-2.632723">
        <ele>127.772</ele>
        <time>2019-06-15T17:59:25Z</time>
      </trkpt>
      <trkpt lat="43.393492" lon="-2.632746">
        <ele>128.213</ele>
        <time>2019-06-15T17:59:26Z</time>
      </trkpt>
      <trkpt lat="43.393546" lon="-2.632764">
        <ele>128.514</ele>
        <time>2019-06-15T17:59:27Z</time>
      </trkpt>
      <trkpt lat="43.393598" lon="-2.632800">
        <ele>128.708</ele>
        <time>2019-06-15T17:59:28Z</time>
      </trkpt>
      <trkpt lat="43.393658" lon="-2.632810">
        <ele>129.790</ele>
        <time>2019-06-15T17:59:29Z</time>
      </trkpt>
      <trkpt lat="43.393719" lon="-2.632803">
        <ele>130.874</ele>
        <time>2019-06-15T17:59:30Z</time>
      </trkpt>
      <trkpt lat="43.393769" lon="-2.632820">
        <ele>131.763</ele>
        <time>2019-06-15T17:59:31Z</time>
      </trkpt>
      <trkpt lat="43.393829" lon="-2.632897">
        <ele>132.792</ele>
        <time>2019-06-15T17:59:34Z</time>
      </trkpt>
      <trkpt lat="43.393760" lon="-2.632917">
        <ele>131.241</ele>
        <time>2019-06-15T17:59:36Z</time>
      </trkpt>
      <trkpt lat="43.393684" lon="-2.632870">
        <ele>129.822</ele>
        <time>2019-06-15T17:59:38Z</time>
      </trkpt>
      <trkpt lat="43.393640" lon="-2.632842">
        <ele>129.111</ele>
        <time>2019-06-15T17:59:39Z</time>
      </trkpt>
      <trkpt lat="43.393575" lon="-2.632814">
        <ele>128.335</ele>
        <time>2019-06-15T17:59:40Z</time>
      </trkpt>
      <trkpt lat="43.393513" lon="-2.632796">
        <ele>127.735</ele>
        <time>2019-06-15T17:59:41Z</time>
      </trkpt>
      <trkpt lat="43.393445" lon="-2.632771">
        <ele>127.386</ele>
        <time>2019-06-15T17:59:42Z</time>
      </trkpt>
      <trkpt lat="43.393377" lon="-2.632756">
        <ele>126.814</ele>
        <time>2019-06-15T17:59:43Z</time>
      </trkpt>
      <trkpt lat="43.393303" lon="-2.632754">
        <ele>126.008</ele>
        <time>2019-06-15T17:59:44Z</time>
      </trkpt>
      <trkpt lat="43.393235" lon="-2.632731">
        <ele>125.626</ele>
        <time>2019-06-15T17:59:45Z</time>
      </trkpt>
      <trkpt lat="43.393173" lon="-2.632723">
        <ele>124.980</ele>
        <time>2019-06-15T17:59:46Z</time>
      </trkpt>
      <trkpt lat="43.393123" lon="-2.632716">
        <ele>124.529</ele>
        <time>2019-06-15T17:59:47Z</time>
      </trkpt>
      <trkpt lat="43.393073" lon="-2.632699">
        <ele>124.188</ele>
        <time>2019-06-15T17:59:48Z</time>
      </trkpt>
      <trkpt lat="43.393025" lon="-2.632725">
        <ele>123.147</ele>
        <time>2019-06-15T17:59:50Z</time>
      </trkpt>
      <trkpt lat="43.393040" lon="-2.632666">
        <ele>124.018</ele>
        <time>2019-06-15T18:00:16Z</time>
      </trkpt>
      <trkpt lat="43.392994" lon="-2.632660">
        <ele>123.487</ele>
        <time>2019-06-15T18:01:00Z</time>
      </trkpt>
      <trkpt lat="43.392912" lon="-2.632629">
        <ele>122.691</ele>
        <time>2019-06-15T18:01:02Z</time>
      </trkpt>
      <trkpt lat="43.392831" lon="-2.632624">
        <ele>121.569</ele>
        <time>2019-06-15T18:01:03Z</time>
      </trkpt>
      <trkpt lat="43.392743" lon="-2.632620">
        <ele>120.504</ele>
        <time>2019-06-15T18:01:04Z</time>
      </trkpt>
      <trkpt lat="43.392653" lon="-2.632621">
        <ele>119.524</ele>
        <time>2019-06-15T18:01:05Z</time>
      </trkpt>
      <trkpt lat="43.392556" lon="-2.632639">
        <ele>118.108</ele>
        <time>2019-06-15T18:01:06Z</time>
      </trkpt>
      <trkpt lat="43.392464" lon="-2.632662">
        <ele>116.949</ele>
        <time>2019-06-15T18:01:07Z</time>
      </trkpt>
      <trkpt lat="43.392357" lon="-2.632689">
        <ele>116.273</ele>
        <time>2019-06-15T18:01:08Z</time>
      </trkpt>
      <trkpt lat="43.392254" lon="-2.632733">
        <ele>115.172</ele>
        <time>2019-06-15T18:01:09Z</time>
      </trkpt>
      <trkpt lat="43.392157" lon="-2.632787">
        <ele>113.891</ele>
        <time>2019-06-15T18:01:10Z</time>
      </trkpt>
      <trkpt lat="43.392049" lon="-2.632842">
        <ele>113.030</ele>
        <time>2019-06-15T18:01:11Z</time>
      </trkpt>
      <trkpt lat="43.391946" lon="-2.632878">
        <ele>112.611</ele>
        <time>2019-06-15T18:01:12Z</time>
      </trkpt>
      <trkpt lat="43.391866" lon="-2.632913">
        <ele>111.970</ele>
        <time>2019-06-15T18:01:13Z</time>
      </trkpt>
      <trkpt lat="43.391782" lon="-2.632937">
        <ele>111.554</ele>
        <time>2019-06-15T18:01:14Z</time>
      </trkpt>
      <trkpt lat="43.391685" lon="-2.632943">
        <ele>111.279</ele>
        <time>2019-06-15T18:01:15Z</time>
      </trkpt>
      <trkpt lat="43.391601" lon="-2.632923">
        <ele>110.505</ele>
        <time>2019-06-15T18:01:16Z</time>
      </trkpt>
      <trkpt lat="43.391527" lon="-2.632880">
        <ele>109.925</ele>
        <time>2019-06-15T18:01:17Z</time>
      </trkpt>
      <trkpt lat="43.391451" lon="-2.632837">
        <ele>109.308</ele>
        <time>2019-06-15T18:01:18Z</time>
      </trkpt>
      <trkpt lat="43.391372" lon="-2.632796">
        <ele>108.680</ele>
        <time>2019-06-15T18:01:19Z</time>
      </trkpt>
      <trkpt lat="43.391293" lon="-2.632752">
        <ele>108.044</ele>
        <time>2019-06-15T18:01:20Z</time>
      </trkpt>
      <trkpt lat="43.391229" lon="-2.632704">
        <ele>107.853</ele>
        <time>2019-06-15T18:01:21Z</time>
      </trkpt>
      <trkpt lat="43.391153" lon="-2.632656">
        <ele>107.442</ele>
        <time>2019-06-15T18:01:22Z</time>
      </trkpt>
      <trkpt lat="43.391054" lon="-2.632620">
        <ele>106.111</ele>
        <time>2019-06-15T18:01:23Z</time>
      </trkpt>
      <trkpt lat="43.390974" lon="-2.632573">
        <ele>105.112</ele>
        <time>2019-06-15T18:01:24Z</time>
      </trkpt>
      <trkpt lat="43.390951" lon="-2.632516">
        <ele>105.361</ele>
        <time>2019-06-15T18:01:25Z</time>
      </trkpt>
      <trkpt lat="43.390896" lon="-2.632461">
        <ele>104.725</ele>
        <time>2019-06-15T18:01:26Z</time>
      </trkpt>
      <trkpt lat="43.390851" lon="-2.632426">
        <ele>103.987</ele>
        <time>2019-06-15T18:01:27Z</time>
      </trkpt>
      <trkpt lat="43.390801" lon="-2.632384">
        <ele>103.242</ele>
        <time>2019-06-15T18:01:28Z</time>
      </trkpt>
      <trkpt lat="43.390728" lon="-2.632331">
        <ele>102.226</ele>
        <time>2019-06-15T18:01:30Z</time>
      </trkpt>
      <trkpt lat="43.390772" lon="-2.632347">
        <ele>102.908</ele>
        <time>2019-06-15T18:01:39Z</time>
      </trkpt>
      <trkpt lat="43.390704" lon="-2.632244">
        <ele>102.521</ele>
        <time>2019-06-15T18:01:48Z</time>
      </trkpt>
      <trkpt lat="43.390666" lon="-2.632196">
        <ele>102.485</ele>
        <time>2019-06-15T18:01:49Z</time>
      </trkpt>
      <trkpt lat="43.390620" lon="-2.632126">
        <ele>102.454</ele>
        <time>2019-06-15T18:01:50Z</time>
      </trkpt>
      <trkpt lat="43.390550" lon="-2.632062">
        <ele>101.633</ele>
        <time>2019-06-15T18:01:51Z</time>
      </trkpt>
      <trkpt lat="43.390471" lon="-2.631997">
        <ele>100.582</ele>
        <time>2019-06-15T18:01:52Z</time>
      </trkpt>
      <trkpt lat="43.390404" lon="-2.631928">
        <ele>99.923</ele>
        <time>2019-06-15T18:01:53Z</time>
      </trkpt>
      <trkpt lat="43.390337" lon="-2.631865">
        <ele>99.272</ele>
        <time>2019-06-15T18:01:54Z</time>
      </trkpt>
      <trkpt lat="43.390275" lon="-2.631792">
        <ele>98.656</ele>
        <time>2019-06-15T18:01:55Z</time>
      </trkpt>
      <trkpt lat="43.390246" lon="-2.631712">
        <ele>98.988</ele>
        <time>2019-06-15T18:01:56Z</time>
      </trkpt>
      <trkpt lat="43.390163" lon="-2.631667">
        <ele>97.924</ele>
        <time>2019-06-15T18:01:57Z</time>
      </trkpt>
      <trkpt lat="43.390065" lon="-2.631636">
        <ele>96.226</ele>
        <time>2019-06-15T18:01:58Z</time>
      </trkpt>
      <trkpt lat="43.390012" lon="-2.631570">
        <ele>95.208</ele>
        <time>2019-06-15T18:01:59Z</time>
      </trkpt>
      <trkpt lat="43.389949" lon="-2.631530">
        <ele>94.461</ele>
        <time>2019-06-15T18:02:00Z</time>
      </trkpt>
      <trkpt lat="43.389900" lon="-2.631486">
        <ele>93.845</ele>
        <time>2019-06-15T18:02:01Z</time>
      </trkpt>
      <trkpt lat="43.389832" lon="-2.631433">
        <ele>93.124</ele>
        <time>2019-06-15T18:02:02Z</time>
      </trkpt>
      <trkpt lat="43.389796" lon="-2.631341">
        <ele>92.843</ele>
        <time>2019-06-15T18:02:03Z</time>
      </trkpt>
      <trkpt lat="43.389717" lon="-2.631305">
        <ele>91.912</ele>
        <time>2019-06-15T18:02:04Z</time>
      </trkpt>
      <trkpt lat="43.389657" lon="-2.631280">
        <ele>91.463</ele>
        <time>2019-06-15T18:02:05Z</time>
      </trkpt>
      <trkpt lat="43.389581" lon="-2.631260">
        <ele>90.782</ele>
        <time>2019-06-15T18:02:06Z</time>
      </trkpt>
      <trkpt lat="43.389504" lon="-2.631237">
        <ele>90.146</ele>
        <time>2019-06-15T18:02:07Z</time>
      </trkpt>
      <trkpt lat="43.389456" lon="-2.631242">
        <ele>89.631</ele>
        <time>2019-06-15T18:02:08Z</time>
      </trkpt>
      <trkpt lat="43.389387" lon="-2.631245">
        <ele>89.361</ele>
        <time>2019-06-15T18:02:09Z</time>
      </trkpt>
      <trkpt lat="43.389282" lon="-2.631272">
        <ele>88.707</ele>
        <time>2019-06-15T18:02:10Z</time>
      </trkpt>
      <trkpt lat="43.389182" lon="-2.631296">
        <ele>87.808</ele>
        <time>2019-06-15T18:02:11Z</time>
      </trkpt>
      <trkpt lat="43.389079" lon="-2.631313">
        <ele>86.916</ele>
        <time>2019-06-15T18:02:12Z</time>
      </trkpt>
      <trkpt lat="43.388977" lon="-2.631332">
        <ele>86.160</ele>
        <time>2019-06-15T18:02:13Z</time>
      </trkpt>
      <trkpt lat="43.388881" lon="-2.631350">
        <ele>85.469</ele>
        <time>2019-06-15T18:02:14Z</time>
      </trkpt>
      <trkpt lat="43.388796" lon="-2.631376">
        <ele>84.428</ele>
        <time>2019-06-15T18:02:15Z</time>
      </trkpt>
      <trkpt lat="43.388717" lon="-2.631398">
        <ele>83.737</ele>
        <time>2019-06-15T18:02:16Z</time>
      </trkpt>
      <trkpt lat="43.388654" lon="-2.631430">
        <ele>83.158</ele>
        <time>2019-06-15T18:02:17Z</time>
      </trkpt>
      <trkpt lat="43.388613" lon="-2.631471">
        <ele>82.747</ele>
        <time>2019-06-15T18:02:18Z</time>
      </trkpt>
      <trkpt lat="43.388592" lon="-2.631530">
        <ele>82.511</ele>
        <time>2019-06-15T18:02:19Z</time>
      </trkpt>
      <trkpt lat="43.388587" lon="-2.631597">
        <ele>82.323</ele>
        <time>2019-06-15T18:02:20Z</time>
      </trkpt>
      <trkpt lat="43.388616" lon="-2.631677">
        <ele>82.083</ele>
        <time>2019-06-15T18:02:21Z</time>
      </trkpt>
      <trkpt lat="43.388667" lon="-2.631767">
        <ele>81.811</ele>
        <time>2019-06-15T18:02:22Z</time>
      </trkpt>
      <trkpt lat="43.388731" lon="-2.631871">
        <ele>81.708</ele>
        <time>2019-06-15T18:02:23Z</time>
      </trkpt>
      <trkpt lat="43.388811" lon="-2.631979">
        <ele>81.675</ele>
        <time>2019-06-15T18:02:24Z</time>
      </trkpt>
      <trkpt lat="43.388901" lon="-2.632107">
        <ele>81.559</ele>
        <time>2019-06-15T18:02:25Z</time>
      </trkpt>
      <trkpt lat="43.389001" lon="-2.632245">
        <ele>81.788</ele>
        <time>2019-06-15T18:02:26Z</time>
      </trkpt>
      <trkpt lat="43.389108" lon="-2.632396">
        <ele>81.587</ele>
        <time>2019-06-15T18:02:27Z</time>
      </trkpt>
      <trkpt lat="43.389220" lon="-2.632547">
        <ele>80.866</ele>
        <time>2019-06-15T18:02:28Z</time>
      </trkpt>
      <trkpt lat="43.389335" lon="-2.632703">
        <ele>80.387</ele>
        <time>2019-06-15T18:02:29Z</time>
      </trkpt>
      <trkpt lat="43.389449" lon="-2.632863">
        <ele>79.796</ele>
        <time>2019-06-15T18:02:30Z</time>
      </trkpt>
      <trkpt lat="43.389560" lon="-2.633020">
        <ele>79.240</ele>
        <time>2019-06-15T18:02:31Z</time>
      </trkpt>
      <trkpt lat="43.389677" lon="-2.633176">
        <ele>79.086</ele>
        <time>2019-06-15T18:02:32Z</time>
      </trkpt>
      <trkpt lat="43.389789" lon="-2.633327">
        <ele>79.260</ele>
        <time>2019-06-15T18:02:33Z</time>
      </trkpt>
      <trkpt lat="43.389869" lon="-2.633467">
        <ele>79.026</ele>
        <time>2019-06-15T18:02:34Z</time>
      </trkpt>
      <trkpt lat="43.389957" lon="-2.633619">
        <ele>78.808</ele>
        <time>2019-06-15T18:02:35Z</time>
      </trkpt>
      <trkpt lat="43.390030" lon="-2.633785">
        <ele>79.361</ele>
        <time>2019-06-15T18:02:36Z</time>
      </trkpt>
      <trkpt lat="43.390081" lon="-2.633959">
        <ele>79.365</ele>
        <time>2019-06-15T18:02:37Z</time>
      </trkpt>
      <trkpt lat="43.390083" lon="-2.634132">
        <ele>78.594</ele>
        <time>2019-06-15T18:02:38Z</time>
      </trkpt>
      <trkpt lat="43.390088" lon="-2.634290">
        <ele>78.243</ele>
        <time>2019-06-15T18:02:39Z</time>
      </trkpt>
      <trkpt lat="43.390099" lon="-2.634439">
        <ele>78.022</ele>
        <time>2019-06-15T18:02:40Z</time>
      </trkpt>
      <trkpt lat="43.390106" lon="-2.634596">
        <ele>77.523</ele>
        <time>2019-06-15T18:02:41Z</time>
      </trkpt>
      <trkpt lat="43.390130" lon="-2.634766">
        <ele>77.062</ele>
        <time>2019-06-15T18:02:42Z</time>
      </trkpt>
      <trkpt lat="43.390154" lon="-2.634931">
        <ele>77.036</ele>
        <time>2019-06-15T18:02:43Z</time>
      </trkpt>
      <trkpt lat="43.390214" lon="-2.635083">
        <ele>76.843</ele>
        <time>2019-06-15T18:02:44Z</time>
      </trkpt>
      <trkpt lat="43.390296" lon="-2.635207">
        <ele>76.364</ele>
        <time>2019-06-15T18:02:45Z</time>
      </trkpt>
      <trkpt lat="43.390377" lon="-2.635339">
        <ele>76.310</ele>
        <time>2019-06-15T18:02:46Z</time>
      </trkpt>
      <trkpt lat="43.390500" lon="-2.635457">
        <ele>76.308</ele>
        <time>2019-06-15T18:02:47Z</time>
      </trkpt>
      <trkpt lat="43.390631" lon="-2.635575">
        <ele>76.387</ele>
        <time>2019-06-15T18:02:48Z</time>
      </trkpt>
      <trkpt lat="43.390753" lon="-2.635667">
        <ele>76.491</ele>
        <time>2019-06-15T18:02:49Z</time>
      </trkpt>
      <trkpt lat="43.390885" lon="-2.635762">
        <ele>76.590</ele>
        <time>2019-06-15T18:02:50Z</time>
      </trkpt>
      <trkpt lat="43.390997" lon="-2.635856">
        <ele>76.549</ele>
        <time>2019-06-15T18:02:51Z</time>
      </trkpt>
      <trkpt lat="43.391103" lon="-2.635943">
        <ele>76.248</ele>
        <time>2019-06-15T18:02:52Z</time>
      </trkpt>
      <trkpt lat="43.391186" lon="-2.636063">
        <ele>76.249</ele>
        <time>2019-06-15T18:02:53Z</time>
      </trkpt>
      <trkpt lat="43.391252" lon="-2.636201">
        <ele>76.458</ele>
        <time>2019-06-15T18:02:54Z</time>
      </trkpt>
      <trkpt lat="43.391304" lon="-2.636362">
        <ele>76.562</ele>
        <time>2019-06-15T18:02:55Z</time>
      </trkpt>
      <trkpt lat="43.391347" lon="-2.636535">
        <ele>76.312</ele>
        <time>2019-06-15T18:02:56Z</time>
      </trkpt>
      <trkpt lat="43.391378" lon="-2.636707">
        <ele>75.832</ele>
        <time>2019-06-15T18:02:57Z</time>
      </trkpt>
      <trkpt lat="43.391404" lon="-2.636870">
        <ele>75.505</ele>
        <time>2019-06-15T18:02:58Z</time>
      </trkpt>
      <trkpt lat="43.391445" lon="-2.637026">
        <ele>75.408</ele>
        <time>2019-06-15T18:02:59Z</time>
      </trkpt>
      <trkpt lat="43.391477" lon="-2.637193">
        <ele>74.874</ele>
        <time>2019-06-15T18:03:00Z</time>
      </trkpt>
      <trkpt lat="43.391527" lon="-2.637394">
        <ele>75.088</ele>
        <time>2019-06-15T18:03:01Z</time>
      </trkpt>
      <trkpt lat="43.391571" lon="-2.637594">
        <ele>75.037</ele>
        <time>2019-06-15T18:03:02Z</time>
      </trkpt>
      <trkpt lat="43.391627" lon="-2.637799">
        <ele>74.646</ele>
        <time>2019-06-15T18:03:03Z</time>
      </trkpt>
      <trkpt lat="43.391667" lon="-2.637999">
        <ele>74.225</ele>
        <time>2019-06-15T18:03:04Z</time>
      </trkpt>
      <trkpt lat="43.391726" lon="-2.638212">
        <ele>74.336</ele>
        <time>2019-06-15T18:03:05Z</time>
      </trkpt>
      <trkpt lat="43.391824" lon="-2.638395">
        <ele>75.645</ele>
        <time>2019-06-15T18:03:06Z</time>
      </trkpt>
      <trkpt lat="43.391871" lon="-2.638571">
        <ele>77.859</ele>
        <time>2019-06-15T18:03:07Z</time>
      </trkpt>
      <trkpt lat="43.391891" lon="-2.638736">
        <ele>81.273</ele>
        <time>2019-06-15T18:03:08Z</time>
      </trkpt>
      <trkpt lat="43.391905" lon="-2.638908">
        <ele>85.485</ele>
        <time>2019-06-15T18:03:09Z</time>
      </trkpt>
      <trkpt lat="43.391814" lon="-2.639000">
        <ele>81.713</ele>
        <time>2019-06-15T18:03:10Z</time>
      </trkpt>
      <trkpt lat="43.391794" lon="-2.639108">
        <ele>81.608</ele>
        <time>2019-06-15T18:03:11Z</time>
      </trkpt>
      <trkpt lat="43.391769" lon="-2.639207">
        <ele>80.690</ele>
        <time>2019-06-15T18:03:12Z</time>
      </trkpt>
      <trkpt lat="43.391748" lon="-2.639328">
        <ele>79.824</ele>
        <time>2019-06-15T18:03:13Z</time>
      </trkpt>
      <trkpt lat="43.391708" lon="-2.639456">
        <ele>77.963</ele>
        <time>2019-06-15T18:03:14Z</time>
      </trkpt>
      <trkpt lat="43.391677" lon="-2.639617">
        <ele>76.922</ele>
        <time>2019-06-15T18:03:15Z</time>
      </trkpt>
      <trkpt lat="43.391625" lon="-2.639779">
        <ele>76.591</ele>
        <time>2019-06-15T18:03:16Z</time>
      </trkpt>
      <trkpt lat="43.391576" lon="-2.639953">
        <ele>75.732</ele>
        <time>2019-06-15T18:03:17Z</time>
      </trkpt>
      <trkpt lat="43.391535" lon="-2.640107">
        <ele>75.171</ele>
        <time>2019-06-15T18:03:18Z</time>
      </trkpt>
      <trkpt lat="43.391498" lon="-2.640262">
        <ele>74.745</ele>
        <time>2019-06-15T18:03:19Z</time>
      </trkpt>
      <trkpt lat="43.391489" lon="-2.640415">
        <ele>73.969</ele>
        <time>2019-06-15T18:03:20Z</time>
      </trkpt>
      <trkpt lat="43.391520" lon="-2.640563">
        <ele>73.804</ele>
        <time>2019-06-15T18:03:21Z</time>
      </trkpt>
      <trkpt lat="43.391553" lon="-2.640715">
        <ele>73.324</ele>
        <time>2019-06-15T18:03:22Z</time>
      </trkpt>
      <trkpt lat="43.391611" lon="-2.640845">
        <ele>73.108</ele>
        <time>2019-06-15T18:03:23Z</time>
      </trkpt>
      <trkpt lat="43.391669" lon="-2.640968">
        <ele>72.519</ele>
        <time>2019-06-15T18:03:24Z</time>
      </trkpt>
      <trkpt lat="43.391731" lon="-2.641080">
        <ele>71.223</ele>
        <time>2019-06-15T18:03:25Z</time>
      </trkpt>
      <trkpt lat="43.391829" lon="-2.641027">
        <ele>71.922</ele>
        <time>2019-06-15T18:03:26Z</time>
      </trkpt>
      <trkpt lat="43.391977" lon="-2.641052">
        <ele>71.331</ele>
        <time>2019-06-15T18:03:27Z</time>
      </trkpt>
      <trkpt lat="43.392086" lon="-2.641054">
        <ele>71.280</ele>
        <time>2019-06-15T18:03:28Z</time>
      </trkpt>
      <trkpt lat="43.392191" lon="-2.641072">
        <ele>70.831</ele>
        <time>2019-06-15T18:03:29Z</time>
      </trkpt>
      <trkpt lat="43.392290" lon="-2.641111">
        <ele>70.750</ele>
        <time>2019-06-15T18:03:30Z</time>
      </trkpt>
      <trkpt lat="43.392394" lon="-2.641226">
        <ele>70.584</ele>
        <time>2019-06-15T18:03:31Z</time>
      </trkpt>
      <trkpt lat="43.392496" lon="-2.641333">
        <ele>69.895</ele>
        <time>2019-06-15T18:03:32Z</time>
      </trkpt>
      <trkpt lat="43.392593" lon="-2.641476">
        <ele>69.549</ele>
        <time>2019-06-15T18:03:33Z</time>
      </trkpt>
      <trkpt lat="43.392697" lon="-2.641603">
        <ele>69.323</ele>
        <time>2019-06-15T18:03:34Z</time>
      </trkpt>
      <trkpt lat="43.392806" lon="-2.641727">
        <ele>68.308</ele>
        <time>2019-06-15T18:03:35Z</time>
      </trkpt>
      <trkpt lat="43.392939" lon="-2.641831">
        <ele>67.412</ele>
        <time>2019-06-15T18:03:36Z</time>
      </trkpt>
      <trkpt lat="43.393076" lon="-2.641925">
        <ele>67.826</ele>
        <time>2019-06-15T18:03:37Z</time>
      </trkpt>
      <trkpt lat="43.393210" lon="-2.642017">
        <ele>68.335</ele>
        <time>2019-06-15T18:03:38Z</time>
      </trkpt>
      <trkpt lat="43.393355" lon="-2.642098">
        <ele>67.994</ele>
        <time>2019-06-15T18:03:39Z</time>
      </trkpt>
      <trkpt lat="43.393514" lon="-2.642189">
        <ele>66.923</ele>
        <time>2019-06-15T18:03:40Z</time>
      </trkpt>
      <trkpt lat="43.393684" lon="-2.642301">
        <ele>65.554</ele>
        <time>2019-06-15T18:03:41Z</time>
      </trkpt>
      <trkpt lat="43.393853" lon="-2.642405">
        <ele>64.883</ele>
        <time>2019-06-15T18:03:42Z</time>
      </trkpt>
      <trkpt lat="43.394035" lon="-2.642494">
        <ele>64.587</ele>
        <time>2019-06-15T18:03:43Z</time>
      </trkpt>
      <trkpt lat="43.394228" lon="-2.642580">
        <ele>65.174</ele>
        <time>2019-06-15T18:03:44Z</time>
      </trkpt>
      <trkpt lat="43.394434" lon="-2.642672">
        <ele>64.956</ele>
        <time>2019-06-15T18:03:45Z</time>
      </trkpt>
      <trkpt lat="43.394644" lon="-2.642763">
        <ele>64.521</ele>
        <time>2019-06-15T18:03:46Z</time>
      </trkpt>
      <trkpt lat="43.394840" lon="-2.642870">
        <ele>64.708</ele>
        <time>2019-06-15T18:03:47Z</time>
      </trkpt>
      <trkpt lat="43.395043" lon="-2.642972">
        <ele>63.690</ele>
        <time>2019-06-15T18:03:48Z</time>
      </trkpt>
      <trkpt lat="43.395218" lon="-2.643103">
        <ele>63.314</ele>
        <time>2019-06-15T18:03:49Z</time>
      </trkpt>
      <trkpt lat="43.395430" lon="-2.643199">
        <ele>62.733</ele>
        <time>2019-06-15T18:03:50Z</time>
      </trkpt>
      <trkpt lat="43.395624" lon="-2.643297">
        <ele>62.272</ele>
        <time>2019-06-15T18:03:51Z</time>
      </trkpt>
      <trkpt lat="43.395818" lon="-2.643391">
        <ele>62.031</ele>
        <time>2019-06-15T18:03:52Z</time>
      </trkpt>
      <trkpt lat="43.395992" lon="-2.643471">
        <ele>62.012</ele>
        <time>2019-06-15T18:03:53Z</time>
      </trkpt>
      <trkpt lat="43.396190" lon="-2.643560">
        <ele>61.811</ele>
        <time>2019-06-15T18:03:54Z</time>
      </trkpt>
      <trkpt lat="43.396355" lon="-2.643642">
        <ele>61.245</ele>
        <time>2019-06-15T18:03:55Z</time>
      </trkpt>
      <trkpt lat="43.396521" lon="-2.643718">
        <ele>61.684</ele>
        <time>2019-06-15T18:03:56Z</time>
      </trkpt>
      <trkpt lat="43.396678" lon="-2.643737">
        <ele>62.007</ele>
        <time>2019-06-15T18:03:57Z</time>
      </trkpt>
      <trkpt lat="43.396846" lon="-2.643769">
        <ele>63.517</ele>
        <time>2019-06-15T18:03:58Z</time>
      </trkpt>
      <trkpt lat="43.397041" lon="-2.643743">
        <ele>63.708</ele>
        <time>2019-06-15T18:03:59Z</time>
      </trkpt>
      <trkpt lat="43.397207" lon="-2.643748">
        <ele>63.591</ele>
        <time>2019-06-15T18:04:00Z</time>
      </trkpt>
      <trkpt lat="43.397336" lon="-2.643788">
        <ele>63.455</ele>
        <time>2019-06-15T18:04:01Z</time>
      </trkpt>
      <trkpt lat="43.397474" lon="-2.643852">
        <ele>63.064</ele>
        <time>2019-06-15T18:04:02Z</time>
      </trkpt>
      <trkpt lat="43.397616" lon="-2.643936">
        <ele>62.563</ele>
        <time>2019-06-15T18:04:03Z</time>
      </trkpt>
      <trkpt lat="43.397764" lon="-2.644048">
        <ele>62.512</ele>
        <time>2019-06-15T18:04:04Z</time>
      </trkpt>
      <trkpt lat="43.397905" lon="-2.644172">
        <ele>61.863</ele>
        <time>2019-06-15T18:04:05Z</time>
      </trkpt>
      <trkpt lat="43.398028" lon="-2.644312">
        <ele>61.492</ele>
        <time>2019-06-15T18:04:06Z</time>
      </trkpt>
      <trkpt lat="43.398151" lon="-2.644441">
        <ele>60.946</ele>
        <time>2019-06-15T18:04:07Z</time>
      </trkpt>
      <trkpt lat="43.398248" lon="-2.644560">
        <ele>61.633</ele>
        <time>2019-06-15T18:04:08Z</time>
      </trkpt>
      <trkpt lat="43.398332" lon="-2.644677">
        <ele>60.723</ele>
        <time>2019-06-15T18:04:09Z</time>
      </trkpt>
      <trkpt lat="43.398362" lon="-2.644828">
        <ele>60.815</ele>
        <time>2019-06-15T18:04:10Z</time>
      </trkpt>
      <trkpt lat="43.398378" lon="-2.644976">
        <ele>60.508</ele>
        <time>2019-06-15T18:04:11Z</time>
      </trkpt>
      <trkpt lat="43.398380" lon="-2.645146">
        <ele>59.736</ele>
        <time>2019-06-15T18:04:12Z</time>
      </trkpt>
      <trkpt lat="43.398351" lon="-2.645315">
        <ele>59.070</ele>
        <time>2019-06-15T18:04:13Z</time>
      </trkpt>
      <trkpt lat="43.398340" lon="-2.645484">
        <ele>59.069</ele>
        <time>2019-06-15T18:04:14Z</time>
      </trkpt>
      <trkpt lat="43.398350" lon="-2.645644">
        <ele>59.998</ele>
        <time>2019-06-15T18:04:15Z</time>
      </trkpt>
      <trkpt lat="43.398392" lon="-2.645786">
        <ele>60.627</ele>
        <time>2019-06-15T18:04:16Z</time>
      </trkpt>
      <trkpt lat="43.398446" lon="-2.645921">
        <ele>61.568</ele>
        <time>2019-06-15T18:04:17Z</time>
      </trkpt>
      <trkpt lat="43.398572" lon="-2.646003">
        <ele>59.877</ele>
        <time>2019-06-15T18:04:18Z</time>
      </trkpt>
      <trkpt lat="43.398692" lon="-2.646093">
        <ele>58.721</ele>
        <time>2019-06-15T18:04:19Z</time>
      </trkpt>
      <trkpt lat="43.398814" lon="-2.646180">
        <ele>58.368</ele>
        <time>2019-06-15T18:04:20Z</time>
      </trkpt>
      <trkpt lat="43.398916" lon="-2.646295">
        <ele>58.342</ele>
        <time>2019-06-15T18:04:21Z</time>
      </trkpt>
      <trkpt lat="43.399007" lon="-2.646435">
        <ele>58.126</ele>
        <time>2019-06-15T18:04:22Z</time>
      </trkpt>
      <trkpt lat="43.399087" lon="-2.646580">
        <ele>57.308</ele>
        <time>2019-06-15T18:04:23Z</time>
      </trkpt>
      <trkpt lat="43.399164" lon="-2.646715">
        <ele>56.429</ele>
        <time>2019-06-15T18:04:24Z</time>
      </trkpt>
      <trkpt lat="43.399258" lon="-2.646817">
        <ele>56.883</ele>
        <time>2019-06-15T18:04:25Z</time>
      </trkpt>
      <trkpt lat="43.399353" lon="-2.646918">
        <ele>57.782</ele>
        <time>2019-06-15T18:04:26Z</time>
      </trkpt>
      <trkpt lat="43.399459" lon="-2.646976">
        <ele>59.341</ele>
        <time>2019-06-15T18:04:27Z</time>
      </trkpt>
      <trkpt lat="43.399569" lon="-2.646973">
        <ele>60.160</ele>
        <time>2019-06-15T18:04:28Z</time>
      </trkpt>
      <trkpt lat="43.399719" lon="-2.646918">
        <ele>59.481</ele>
        <time>2019-06-15T18:04:29Z</time>
      </trkpt>
      <trkpt lat="43.399852" lon="-2.646836">
        <ele>57.990</ele>
        <time>2019-06-15T18:04:30Z</time>
      </trkpt>
      <trkpt lat="43.399941" lon="-2.646825">
        <ele>57.984</ele>
        <time>2019-06-15T18:04:31Z</time>
      </trkpt>
      <trkpt lat="43.400031" lon="-2.646844">
        <ele>58.055</ele>
        <time>2019-06-15T18:04:32Z</time>
      </trkpt>
      <trkpt lat="43.400111" lon="-2.646897">
        <ele>57.407</ele>
        <time>2019-06-15T18:04:33Z</time>
      </trkpt>
      <trkpt lat="43.400214" lon="-2.646979">
        <ele>55.617</ele>
        <time>2019-06-15T18:04:34Z</time>
      </trkpt>
      <trkpt lat="43.400312" lon="-2.647105">
        <ele>55.608</ele>
        <time>2019-06-15T18:04:35Z</time>
      </trkpt>
      <trkpt lat="43.400393" lon="-2.647214">
        <ele>55.598</ele>
        <time>2019-06-15T18:04:36Z</time>
      </trkpt>
      <trkpt lat="43.400517" lon="-2.647320">
        <ele>55.712</ele>
        <time>2019-06-15T18:04:37Z</time>
      </trkpt>
      <trkpt lat="43.400651" lon="-2.647390">
        <ele>55.951</ele>
        <time>2019-06-15T18:04:38Z</time>
      </trkpt>
      <trkpt lat="43.400845" lon="-2.647429">
        <ele>55.160</ele>
        <time>2019-06-15T18:04:39Z</time>
      </trkpt>
      <trkpt lat="43.400998" lon="-2.647493">
        <ele>53.979</ele>
        <time>2019-06-15T18:04:40Z</time>
      </trkpt>
      <trkpt lat="43.401159" lon="-2.647543">
        <ele>52.880</ele>
        <time>2019-06-15T18:04:41Z</time>
      </trkpt>
      <trkpt lat="43.401301" lon="-2.647616">
        <ele>52.969</ele>
        <time>2019-06-15T18:04:42Z</time>
      </trkpt>
      <trkpt lat="43.401444" lon="-2.647714">
        <ele>52.533</ele>
        <time>2019-06-15T18:04:43Z</time>
      </trkpt>
      <trkpt lat="43.401584" lon="-2.647827">
        <ele>51.018</ele>
        <time>2019-06-15T18:04:44Z</time>
      </trkpt>
      <trkpt lat="43.401728" lon="-2.647976">
        <ele>52.198</ele>
        <time>2019-06-15T18:04:45Z</time>
      </trkpt>
      <trkpt lat="43.401867" lon="-2.648143">
        <ele>50.917</ele>
        <time>2019-06-15T18:04:46Z</time>
      </trkpt>
      <trkpt lat="43.401996" lon="-2.648316">
        <ele>49.708</ele>
        <time>2019-06-15T18:04:47Z</time>
      </trkpt>
      <trkpt lat="43.402131" lon="-2.648485">
        <ele>49.784</ele>
        <time>2019-06-15T18:04:48Z</time>
      </trkpt>
      <trkpt lat="43.402268" lon="-2.648644">
        <ele>47.018</ele>
        <time>2019-06-15T18:04:49Z</time>
      </trkpt>
      <trkpt lat="43.402408" lon="-2.648810">
        <ele>46.277</ele>
        <time>2019-06-15T18:04:50Z</time>
      </trkpt>
      <trkpt lat="43.402539" lon="-2.648962">
        <ele>45.726</ele>
        <time>2019-06-15T18:04:51Z</time>
      </trkpt>
      <trkpt lat="43.402677" lon="-2.649100">
        <ele>44.245</ele>
        <time>2019-06-15T18:04:52Z</time>
      </trkpt>
      <trkpt lat="43.402802" lon="-2.649254">
        <ele>42.386</ele>
        <time>2019-06-15T18:04:53Z</time>
      </trkpt>
      <trkpt lat="43.402928" lon="-2.649391">
        <ele>41.775</ele>
        <time>2019-06-15T18:04:54Z</time>
      </trkpt>
      <trkpt lat="43.403047" lon="-2.649547">
        <ele>40.069</ele>
        <time>2019-06-15T18:04:55Z</time>
      </trkpt>
      <trkpt lat="43.403175" lon="-2.649735">
        <ele>40.079</ele>
        <time>2019-06-15T18:04:56Z</time>
      </trkpt>
      <trkpt lat="43.403278" lon="-2.649941">
        <ele>38.205</ele>
        <time>2019-06-15T18:04:57Z</time>
      </trkpt>
      <trkpt lat="43.403387" lon="-2.650146">
        <ele>38.325</ele>
        <time>2019-06-15T18:04:58Z</time>
      </trkpt>
      <trkpt lat="43.403500" lon="-2.650350">
        <ele>38.008</ele>
        <time>2019-06-15T18:04:59Z</time>
      </trkpt>
      <trkpt lat="43.403629" lon="-2.650534">
        <ele>34.550</ele>
        <time>2019-06-15T18:05:00Z</time>
      </trkpt>
      <trkpt lat="43.403750" lon="-2.650721">
        <ele>36.984</ele>
        <time>2019-06-15T18:05:01Z</time>
      </trkpt>
      <trkpt lat="43.403894" lon="-2.650888">
        <ele>34.513</ele>
        <time>2019-06-15T18:05:02Z</time>
      </trkpt>
      <trkpt lat="43.404012" lon="-2.651025">
        <ele>35.222</ele>
        <time>2019-06-15T18:05:03Z</time>
      </trkpt>
      <trkpt lat="43.404144" lon="-2.651174">
        <ele>32.291</ele>
        <time>2019-06-15T18:05:04Z</time>
      </trkpt>
      <trkpt lat="43.404263" lon="-2.651343">
        <ele>32.212</ele>
        <time>2019-06-15T18:05:05Z</time>
      </trkpt>
      <trkpt lat="43.404365" lon="-2.651543">
        <ele>31.031</ele>
        <time>2019-06-15T18:05:06Z</time>
      </trkpt>
      <trkpt lat="43.404463" lon="-2.651753">
        <ele>28.825</ele>
        <time>2019-06-15T18:05:07Z</time>
      </trkpt>
      <trkpt lat="43.404555" lon="-2.651966">
        <ele>29.091</ele>
        <time>2019-06-15T18:05:08Z</time>
      </trkpt>
      <trkpt lat="43.404625" lon="-2.652163">
        <ele>28.781</ele>
        <time>2019-06-15T18:05:09Z</time>
      </trkpt>
      <trkpt lat="43.404704" lon="-2.652341">
        <ele>28.119</ele>
        <time>2019-06-15T18:05:10Z</time>
      </trkpt>
      <trkpt lat="43.404781" lon="-2.652495">
        <ele>28.708</ele>
        <time>2019-06-15T18:05:11Z</time>
      </trkpt>
      <trkpt lat="43.404858" lon="-2.652622">
        <ele>28.492</ele>
        <time>2019-06-15T18:05:12Z</time>
      </trkpt>
      <trkpt lat="43.404959" lon="-2.652719">
        <ele>27.336</ele>
        <time>2019-06-15T18:05:13Z</time>
      </trkpt>
      <trkpt lat="43.405066" lon="-2.652793">
        <ele>27.315</ele>
        <time>2019-06-15T18:05:14Z</time>
      </trkpt>
      <trkpt lat="43.405176" lon="-2.652813">
        <ele>27.354</ele>
        <time>2019-06-15T18:05:15Z</time>
      </trkpt>
      <trkpt lat="43.405299" lon="-2.652820">
        <ele>26.663</ele>
        <time>2019-06-15T18:05:16Z</time>
      </trkpt>
      <trkpt lat="43.405445" lon="-2.652835">
        <ele>26.414</ele>
        <time>2019-06-15T18:05:17Z</time>
      </trkpt>
      <trkpt lat="43.405587" lon="-2.652835">
        <ele>25.413</ele>
        <time>2019-06-15T18:05:18Z</time>
      </trkpt>
      <trkpt lat="43.405728" lon="-2.652853">
        <ele>24.177</ele>
        <time>2019-06-15T18:05:19Z</time>
      </trkpt>
      <trkpt lat="43.405845" lon="-2.652888">
        <ele>23.337</ele>
        <time>2019-06-15T18:05:20Z</time>
      </trkpt>
      <trkpt lat="43.405962" lon="-2.652961">
        <ele>23.349</ele>
        <time>2019-06-15T18:05:21Z</time>
      </trkpt>
      <trkpt lat="43.406097" lon="-2.653068">
        <ele>20.613</ele>
        <time>2019-06-15T18:05:22Z</time>
      </trkpt>
      <trkpt lat="43.406232" lon="-2.653184">
        <ele>21.408</ele>
        <time>2019-06-15T18:05:23Z</time>
      </trkpt>
      <trkpt lat="43.406362" lon="-2.653296">
        <ele>19.176</ele>
        <time>2019-06-15T18:05:24Z</time>
      </trkpt>
      <trkpt lat="43.406488" lon="-2.653402">
        <ele>18.960</ele>
        <time>2019-06-15T18:05:25Z</time>
      </trkpt>
      <trkpt lat="43.406642" lon="-2.653463">
        <ele>19.049</ele>
        <time>2019-06-15T18:05:26Z</time>
      </trkpt>
      <trkpt lat="43.406794" lon="-2.653518">
        <ele>17.278</ele>
        <time>2019-06-15T18:05:27Z</time>
      </trkpt>
      <trkpt lat="43.406951" lon="-2.653600">
        <ele>14.857</ele>
        <time>2019-06-15T18:05:28Z</time>
      </trkpt>
      <trkpt lat="43.407106" lon="-2.653698">
        <ele>14.828</ele>
        <time>2019-06-15T18:05:29Z</time>
      </trkpt>
      <trkpt lat="43.407267" lon="-2.653817">
        <ele>13.997</ele>
        <time>2019-06-15T18:05:30Z</time>
      </trkpt>
      <trkpt lat="43.407428" lon="-2.653934">
        <ele>12.681</ele>
        <time>2019-06-15T18:05:31Z</time>
      </trkpt>
      <trkpt lat="43.407577" lon="-2.654032">
        <ele>11.977</ele>
        <time>2019-06-15T18:05:32Z</time>
      </trkpt>
      <trkpt lat="43.407718" lon="-2.654117">
        <ele>11.461</ele>
        <time>2019-06-15T18:05:33Z</time>
      </trkpt>
      <trkpt lat="43.407844" lon="-2.654196">
        <ele>11.227</ele>
        <time>2019-06-15T18:05:34Z</time>
      </trkpt>
      <trkpt lat="43.407949" lon="-2.654265">
        <ele>11.408</ele>
        <time>2019-06-15T18:05:35Z</time>
      </trkpt>
      <trkpt lat="43.408034" lon="-2.654336">
        <ele>10.790</ele>
        <time>2019-06-15T18:05:36Z</time>
      </trkpt>
      <trkpt lat="43.408097" lon="-2.654414">
        <ele>10.894</ele>
        <time>2019-06-15T18:05:37Z</time>
      </trkpt>
      <trkpt lat="43.408147" lon="-2.654486">
        <ele>11.173</ele>
        <time>2019-06-15T18:05:38Z</time>
      </trkpt>
      <trkpt lat="43.408180" lon="-2.654536">
        <ele>11.232</ele>
        <time>2019-06-15T18:05:39Z</time>
      </trkpt>
      <trkpt lat="43.408228" lon="-2.654577">
        <ele>10.511</ele>
        <time>2019-06-15T18:05:41Z</time>
      </trkpt>
      <trkpt lat="43.408267" lon="-2.654632">
        <ele>9.892</ele>
        <time>2019-06-15T18:05:54Z</time>
      </trkpt>
      <trkpt lat="43.408295" lon="-2.654681">
        <ele>9.211</ele>
        <time>2019-06-15T18:06:01Z</time>
      </trkpt>
      <trkpt lat="43.408248" lon="-2.654688">
        <ele>11.095</ele>
        <time>2019-06-15T18:06:48Z</time>
      </trkpt>
      <trkpt lat="43.408277" lon="-2.654770">
        <ele>10.219</ele>
        <time>2019-06-15T18:08:17Z</time>
      </trkpt>
      <trkpt lat="43.408281" lon="-2.654852">
        <ele>10.009</ele>
        <time>2019-06-15T18:08:18Z</time>
      </trkpt>
      <trkpt lat="43.408290" lon="-2.654927">
        <ele>9.619</ele>
        <time>2019-06-15T18:08:19Z</time>
      </trkpt>
      <trkpt lat="43.408308" lon="-2.655006">
        <ele>8.508</ele>
        <time>2019-06-15T18:08:20Z</time>
      </trkpt>
      <trkpt lat="43.408328" lon="-2.655079">
        <ele>7.674</ele>
        <time>2019-06-15T18:08:21Z</time>
      </trkpt>
      <trkpt lat="43.408349" lon="-2.655150">
        <ele>7.488</ele>
        <time>2019-06-15T18:08:22Z</time>
      </trkpt>
      <trkpt lat="43.408377" lon="-2.655216">
        <ele>7.487</ele>
        <time>2019-06-15T18:08:23Z</time>
      </trkpt>
      <trkpt lat="43.408403" lon="-2.655282">
        <ele>7.266</ele>
        <time>2019-06-15T18:08:24Z</time>
      </trkpt>
      <trkpt lat="43.408425" lon="-2.655339">
        <ele>6.995</ele>
        <time>2019-06-15T18:08:25Z</time>
      </trkpt>
      <trkpt lat="43.408460" lon="-2.655448">
        <ele>6.676</ele>
        <time>2019-06-15T18:08:27Z</time>
      </trkpt>
      <trkpt lat="43.408490" lon="-2.655503">
        <ele>6.425</ele>
        <time>2019-06-15T18:08:29Z</time>
      </trkpt>
      <trkpt lat="43.408539" lon="-2.655464">
        <ele>6.179</ele>
        <time>2019-06-15T18:08:32Z</time>
      </trkpt>
      <trkpt lat="43.408551" lon="-2.655362">
        <ele>5.831</ele>
        <time>2019-06-15T18:08:34Z</time>
      </trkpt>
      <trkpt lat="43.408544" lon="-2.655294">
        <ele>5.861</ele>
        <time>2019-06-15T18:08:35Z</time>
      </trkpt>
      <trkpt lat="43.408540" lon="-2.655230">
        <ele>5.907</ele>
        <time>2019-06-15T18:08:36Z</time>
      </trkpt>
      <trkpt lat="43.408513" lon="-2.655158">
        <ele>6.208</ele>
        <time>2019-06-15T18:08:37Z</time>
      </trkpt>
      <trkpt lat="43.408487" lon="-2.655088">
        <ele>6.456</ele>
        <time>2019-06-15T18:08:38Z</time>
      </trkpt>
      <trkpt lat="43.408465" lon="-2.655016">
        <ele>6.560</ele>
        <time>2019-06-15T18:08:39Z</time>
      </trkpt>
      <trkpt lat="43.408452" lon="-2.654948">
        <ele>6.789</ele>
        <time>2019-06-15T18:08:40Z</time>
      </trkpt>
      <trkpt lat="43.408449" lon="-2.654881">
        <ele>6.878</ele>
        <time>2019-06-15T18:08:41Z</time>
      </trkpt>
      <trkpt lat="43.408468" lon="-2.654806">
        <ele>6.917</ele>
        <time>2019-06-15T18:08:43Z</time>
      </trkpt>
      <trkpt lat="43.408505" lon="-2.654770">
        <ele>6.748</ele>
        <time>2019-06-15T18:08:45Z</time>
      </trkpt>
      <trkpt lat="43.408542" lon="-2.654733">
        <ele>6.517</ele>
        <time>2019-06-15T18:08:48Z</time>
      </trkpt>
      <trkpt lat="43.408493" lon="-2.654749">
        <ele>6.851</ele>
        <time>2019-06-15T18:32:03Z</time>
      </trkpt>
      <trkpt lat="43.408449" lon="-2.654847">
        <ele>6.913</ele>
        <time>2019-06-15T18:32:05Z</time>
      </trkpt>
      <trkpt lat="43.408443" lon="-2.654915">
        <ele>6.843</ele>
        <time>2019-06-15T18:32:06Z</time>
      </trkpt>
      <trkpt lat="43.408449" lon="-2.654986">
        <ele>6.607</ele>
        <time>2019-06-15T18:32:07Z</time>
      </trkpt>
      <trkpt lat="43.408493" lon="-2.655082">
        <ele>6.408</ele>
        <time>2019-06-15T18:32:08Z</time>
      </trkpt>
      <trkpt lat="43.408505" lon="-2.655144">
        <ele>6.324</ele>
        <time>2019-06-15T18:32:09Z</time>
      </trkpt>
      <trkpt lat="43.408530" lon="-2.655247">
        <ele>5.968</ele>
        <time>2019-06-15T18:32:11Z</time>
      </trkpt>
      <trkpt lat="43.408537" lon="-2.655362">
        <ele>5.977</ele>
        <time>2019-06-15T18:32:13Z</time>
      </trkpt>
      <trkpt lat="43.408517" lon="-2.655438">
        <ele>6.286</ele>
        <time>2019-06-15T18:32:15Z</time>
      </trkpt>
      <trkpt lat="43.408470" lon="-2.655433">
        <ele>6.525</ele>
        <time>2019-06-15T18:32:19Z</time>
      </trkpt>
      <trkpt lat="43.408433" lon="-2.655362">
        <ele>6.856</ele>
        <time>2019-06-15T18:32:21Z</time>
      </trkpt>
      <trkpt lat="43.408396" lon="-2.655285">
        <ele>7.325</ele>
        <time>2019-06-15T18:32:22Z</time>
      </trkpt>
      <trkpt lat="43.408364" lon="-2.655189">
        <ele>7.439</ele>
        <time>2019-06-15T18:32:23Z</time>
      </trkpt>
      <trkpt lat="43.408325" lon="-2.655075">
        <ele>7.858</ele>
        <time>2019-06-15T18:32:24Z</time>
      </trkpt>
      <trkpt lat="43.408293" lon="-2.654970">
        <ele>9.452</ele>
        <time>2019-06-15T18:32:25Z</time>
      </trkpt>
      <trkpt lat="43.408273" lon="-2.654876">
        <ele>10.417</ele>
        <time>2019-06-15T18:32:26Z</time>
      </trkpt>
      <trkpt lat="43.408256" lon="-2.654790">
        <ele>11.208</ele>
        <time>2019-06-15T18:32:27Z</time>
      </trkpt>
      <trkpt lat="43.408245" lon="-2.654723">
        <ele>11.578</ele>
        <time>2019-06-15T18:32:28Z</time>
      </trkpt>
      <trkpt lat="43.408209" lon="-2.654644">
        <ele>11.922</ele>
        <time>2019-06-15T18:32:30Z</time>
      </trkpt>
      <trkpt lat="43.408158" lon="-2.654701">
        <ele>14.671</ele>
        <time>2019-06-15T18:32:33Z</time>
      </trkpt>
      <trkpt lat="43.408163" lon="-2.654792">
        <ele>15.340</ele>
        <time>2019-06-15T18:32:34Z</time>
      </trkpt>
      <trkpt lat="43.408170" lon="-2.654908">
        <ele>15.879</ele>
        <time>2019-06-15T18:32:35Z</time>
      </trkpt>
      <trkpt lat="43.408178" lon="-2.655045">
        <ele>16.120</ele>
        <time>2019-06-15T18:32:36Z</time>
      </trkpt>
      <trkpt lat="43.408186" lon="-2.655197">
        <ele>16.289</ele>
        <time>2019-06-15T18:32:37Z</time>
      </trkpt>
      <trkpt lat="43.408191" lon="-2.655348">
        <ele>15.763</ele>
        <time>2019-06-15T18:32:38Z</time>
      </trkpt>
      <trkpt lat="43.408197" lon="-2.655491">
        <ele>14.369</ele>
        <time>2019-06-15T18:32:39Z</time>
      </trkpt>
      <trkpt lat="43.408208" lon="-2.655624">
        <ele>13.604</ele>
        <time>2019-06-15T18:32:40Z</time>
      </trkpt>
      <trkpt lat="43.408211" lon="-2.655762">
        <ele>14.124</ele>
        <time>2019-06-15T18:32:41Z</time>
      </trkpt>
      <trkpt lat="43.408202" lon="-2.655900">
        <ele>14.108</ele>
        <time>2019-06-15T18:32:42Z</time>
      </trkpt>
      <trkpt lat="43.408182" lon="-2.656045">
        <ele>13.649</ele>
        <time>2019-06-15T18:32:43Z</time>
      </trkpt>
      <trkpt lat="43.408153" lon="-2.656155">
        <ele>13.553</ele>
        <time>2019-06-15T18:32:44Z</time>
      </trkpt>
      <trkpt lat="43.408121" lon="-2.656278">
        <ele>12.522</ele>
        <time>2019-06-15T18:32:45Z</time>
      </trkpt>
      <trkpt lat="43.408084" lon="-2.656388">
        <ele>11.491</ele>
        <time>2019-06-15T18:32:46Z</time>
      </trkpt>
      <trkpt lat="43.408047" lon="-2.656497">
        <ele>11.850</ele>
        <time>2019-06-15T18:32:47Z</time>
      </trkpt>
      <trkpt lat="43.408013" lon="-2.656611">
        <ele>12.471</ele>
        <time>2019-06-15T18:32:48Z</time>
      </trkpt>
      <trkpt lat="43.407988" lon="-2.656737">
        <ele>12.150</ele>
        <time>2019-06-15T18:32:49Z</time>
      </trkpt>
      <trkpt lat="43.407964" lon="-2.656885">
        <ele>12.064</ele>
        <time>2019-06-15T18:32:50Z</time>
      </trkpt>
      <trkpt lat="43.407938" lon="-2.657044">
        <ele>12.397</ele>
        <time>2019-06-15T18:32:51Z</time>
      </trkpt>
      <trkpt lat="43.407907" lon="-2.657202">
        <ele>13.323</ele>
        <time>2019-06-15T18:32:52Z</time>
      </trkpt>
      <trkpt lat="43.407880" lon="-2.657349">
        <ele>14.925</ele>
        <time>2019-06-15T18:32:53Z</time>
      </trkpt>
      <trkpt lat="43.407856" lon="-2.657499">
        <ele>16.608</ele>
        <time>2019-06-15T18:32:54Z</time>
      </trkpt>
      <trkpt lat="43.407834" lon="-2.657648">
        <ele>17.152</ele>
        <time>2019-06-15T18:32:55Z</time>
      </trkpt>
      <trkpt lat="43.407821" lon="-2.657799">
        <ele>17.466</ele>
        <time>2019-06-15T18:32:56Z</time>
      </trkpt>
      <trkpt lat="43.407790" lon="-2.657953">
        <ele>19.265</ele>
        <time>2019-06-15T18:32:57Z</time>
      </trkpt>
      <trkpt lat="43.407763" lon="-2.658097">
        <ele>21.274</ele>
        <time>2019-06-15T18:32:58Z</time>
      </trkpt>
      <trkpt lat="43.407763" lon="-2.658252">
        <ele>22.363</ele>
        <time>2019-06-15T18:32:59Z</time>
      </trkpt>
      <trkpt lat="43.407790" lon="-2.658398">
        <ele>23.234</ele>
        <time>2019-06-15T18:33:00Z</time>
      </trkpt>
      <trkpt lat="43.407853" lon="-2.658549">
        <ele>24.623</ele>
        <time>2019-06-15T18:33:01Z</time>
      </trkpt>
      <trkpt lat="43.407936" lon="-2.658701">
        <ele>26.327</ele>
        <time>2019-06-15T18:33:02Z</time>
      </trkpt>
      <trkpt lat="43.408006" lon="-2.658868">
        <ele>26.916</ele>
        <time>2019-06-15T18:33:03Z</time>
      </trkpt>
      <trkpt lat="43.408088" lon="-2.659027">
        <ele>27.876</ele>
        <time>2019-06-15T18:33:04Z</time>
      </trkpt>
      <trkpt lat="43.408171" lon="-2.659199">
        <ele>29.313</ele>
        <time>2019-06-15T18:33:05Z</time>
      </trkpt>
      <trkpt lat="43.408252" lon="-2.659369">
        <ele>28.408</ele>
        <time>2019-06-15T18:33:06Z</time>
      </trkpt>
      <trkpt lat="43.408325" lon="-2.659537">
        <ele>26.534</ele>
        <time>2019-06-15T18:33:07Z</time>
      </trkpt>
      <trkpt lat="43.408390" lon="-2.659705">
        <ele>27.178</ele>
        <time>2019-06-15T18:33:08Z</time>
      </trkpt>
      <trkpt lat="43.408449" lon="-2.659887">
        <ele>27.577</ele>
        <time>2019-06-15T18:33:09Z</time>
      </trkpt>
      <trkpt lat="43.408493" lon="-2.660074">
        <ele>27.476</ele>
        <time>2019-06-15T18:33:10Z</time>
      </trkpt>
      <trkpt lat="43.408515" lon="-2.660280">
        <ele>26.515</ele>
        <time>2019-06-15T18:33:11Z</time>
      </trkpt>
      <trkpt lat="43.408535" lon="-2.660494">
        <ele>25.216</ele>
        <time>2019-06-15T18:33:12Z</time>
      </trkpt>
      <trkpt lat="43.408578" lon="-2.660704">
        <ele>25.115</ele>
        <time>2019-06-15T18:33:13Z</time>
      </trkpt>
      <trkpt lat="43.408642" lon="-2.660915">
        <ele>25.229</ele>
        <time>2019-06-15T18:33:14Z</time>
      </trkpt>
      <trkpt lat="43.408716" lon="-2.661118">
        <ele>25.689</ele>
        <time>2019-06-15T18:33:15Z</time>
      </trkpt>
      <trkpt lat="43.408801" lon="-2.661310">
        <ele>26.106</ele>
        <time>2019-06-15T18:33:16Z</time>
      </trkpt>
      <trkpt lat="43.408874" lon="-2.661518">
        <ele>28.026</ele>
        <time>2019-06-15T18:33:17Z</time>
      </trkpt>
      <trkpt lat="43.408920" lon="-2.661736">
        <ele>28.408</ele>
        <time>2019-06-15T18:33:18Z</time>
      </trkpt>
      <trkpt lat="43.408970" lon="-2.661973">
        <ele>27.911</ele>
        <time>2019-06-15T18:33:19Z</time>
      </trkpt>
      <trkpt lat="43.409013" lon="-2.662214">
        <ele>30.475</ele>
        <time>2019-06-15T18:33:20Z</time>
      </trkpt>
      <trkpt lat="43.409072" lon="-2.662451">
        <ele>34.974</ele>
        <time>2019-06-15T18:33:21Z</time>
      </trkpt>
      <trkpt lat="43.409142" lon="-2.662682">
        <ele>33.523</ele>
        <time>2019-06-15T18:33:22Z</time>
      </trkpt>
      <trkpt lat="43.409217" lon="-2.662915">
        <ele>31.592</ele>
        <time>2019-06-15T18:33:23Z</time>
      </trkpt>
      <trkpt lat="43.409294" lon="-2.663124">
        <ele>32.333</ele>
        <time>2019-06-15T18:33:24Z</time>
      </trkpt>
      <trkpt lat="43.409391" lon="-2.663334">
        <ele>34.172</ele>
        <time>2019-06-15T18:33:25Z</time>
      </trkpt>
      <trkpt lat="43.409497" lon="-2.663537">
        <ele>34.776</ele>
        <time>2019-06-15T18:33:26Z</time>
      </trkpt>
      <trkpt lat="43.409611" lon="-2.663721">
        <ele>37.335</ele>
        <time>2019-06-15T18:33:27Z</time>
      </trkpt>
      <trkpt lat="43.409734" lon="-2.663908">
        <ele>38.286</ele>
        <time>2019-06-15T18:33:28Z</time>
      </trkpt>
      <trkpt lat="43.409842" lon="-2.664070">
        <ele>40.314</ele>
        <time>2019-06-15T18:33:29Z</time>
      </trkpt>
      <trkpt lat="43.409929" lon="-2.664236">
        <ele>42.708</ele>
        <time>2019-06-15T18:33:30Z</time>
      </trkpt>
      <trkpt lat="43.410009" lon="-2.664390">
        <ele>42.066</ele>
        <time>2019-06-15T18:33:31Z</time>
      </trkpt>
      <trkpt lat="43.410064" lon="-2.664547">
        <ele>42.470</ele>
        <time>2019-06-15T18:33:32Z</time>
      </trkpt>
      <trkpt lat="43.410124" lon="-2.664705">
        <ele>43.019</ele>
        <time>2019-06-15T18:33:33Z</time>
      </trkpt>
      <trkpt lat="43.410126" lon="-2.664969">
        <ele>45.428</ele>
        <time>2019-06-15T18:33:34Z</time>
      </trkpt>
      <trkpt lat="43.410142" lon="-2.665179">
        <ele>46.467</ele>
        <time>2019-06-15T18:33:35Z</time>
      </trkpt>
      <trkpt lat="43.410162" lon="-2.665387">
        <ele>47.398</ele>
        <time>2019-06-15T18:33:36Z</time>
      </trkpt>
      <trkpt lat="43.410203" lon="-2.665595">
        <ele>47.797</ele>
        <time>2019-06-15T18:33:37Z</time>
      </trkpt>
      <trkpt lat="43.410276" lon="-2.665791">
        <ele>46.881</ele>
        <time>2019-06-15T18:33:38Z</time>
      </trkpt>
      <trkpt lat="43.410344" lon="-2.665973">
        <ele>48.281</ele>
        <time>2019-06-15T18:33:39Z</time>
      </trkpt>
      <trkpt lat="43.410443" lon="-2.666133">
        <ele>49.861</ele>
        <time>2019-06-15T18:33:40Z</time>
      </trkpt>
      <trkpt lat="43.410556" lon="-2.666280">
        <ele>51.817</ele>
        <time>2019-06-15T18:33:41Z</time>
      </trkpt>
      <trkpt lat="43.410675" lon="-2.666422">
        <ele>53.908</ele>
        <time>2019-06-15T18:33:42Z</time>
      </trkpt>
      <trkpt lat="43.410779" lon="-2.666574">
        <ele>55.591</ele>
        <time>2019-06-15T18:33:43Z</time>
      </trkpt>
      <trkpt lat="43.410859" lon="-2.666727">
        <ele>55.395</ele>
        <time>2019-06-15T18:33:44Z</time>
      </trkpt>
      <trkpt lat="43.410923" lon="-2.666917">
        <ele>55.534</ele>
        <time>2019-06-15T18:33:45Z</time>
      </trkpt>
      <trkpt lat="43.410975" lon="-2.667092">
        <ele>54.233</ele>
        <time>2019-06-15T18:33:46Z</time>
      </trkpt>
      <trkpt lat="43.411019" lon="-2.667312">
        <ele>53.312</ele>
        <time>2019-06-15T18:33:47Z</time>
      </trkpt>
      <trkpt lat="43.411033" lon="-2.667540">
        <ele>55.243</ele>
        <time>2019-06-15T18:33:48Z</time>
      </trkpt>
      <trkpt lat="43.411032" lon="-2.667786">
        <ele>59.822</ele>
        <time>2019-06-15T18:33:49Z</time>
      </trkpt>
      <trkpt lat="43.411041" lon="-2.668023">
        <ele>62.466</ele>
        <time>2019-06-15T18:33:50Z</time>
      </trkpt>
      <trkpt lat="43.411061" lon="-2.668264">
        <ele>64.122</ele>
        <time>2019-06-15T18:33:51Z</time>
      </trkpt>
      <trkpt lat="43.411073" lon="-2.668498">
        <ele>63.262</ele>
        <time>2019-06-15T18:33:52Z</time>
      </trkpt>
      <trkpt lat="43.411083" lon="-2.668732">
        <ele>60.608</ele>
        <time>2019-06-15T18:33:53Z</time>
      </trkpt>
      <trkpt lat="43.411100" lon="-2.668939">
        <ele>58.208</ele>
        <time>2019-06-15T18:33:54Z</time>
      </trkpt>
      <trkpt lat="43.411122" lon="-2.669141">
        <ele>56.755</ele>
        <time>2019-06-15T18:33:55Z</time>
      </trkpt>
      <trkpt lat="43.411139" lon="-2.669341">
        <ele>58.939</ele>
        <time>2019-06-15T18:33:56Z</time>
      </trkpt>
      <trkpt lat="43.411167" lon="-2.669531">
        <ele>61.438</ele>
        <time>2019-06-15T18:33:57Z</time>
      </trkpt>
      <trkpt lat="43.411279" lon="-2.669639">
        <ele>59.297</ele>
        <time>2019-06-15T18:33:58Z</time>
      </trkpt>
      <trkpt lat="43.411342" lon="-2.669800">
        <ele>59.856</ele>
        <time>2019-06-15T18:33:59Z</time>
      </trkpt>
      <trkpt lat="43.411379" lon="-2.669989">
        <ele>60.367</ele>
        <time>2019-06-15T18:34:00Z</time>
      </trkpt>
      <trkpt lat="43.411395" lon="-2.670184">
        <ele>59.746</ele>
        <time>2019-06-15T18:34:01Z</time>
      </trkpt>
      <trkpt lat="43.411391" lon="-2.670403">
        <ele>59.420</ele>
        <time>2019-06-15T18:34:02Z</time>
      </trkpt>
      <trkpt lat="43.411389" lon="-2.670626">
        <ele>59.018</ele>
        <time>2019-06-15T18:34:03Z</time>
      </trkpt>
      <trkpt lat="43.411388" lon="-2.670858">
        <ele>59.098</ele>
        <time>2019-06-15T18:34:04Z</time>
      </trkpt>
      <trkpt lat="43.411388" lon="-2.671066">
        <ele>59.017</ele>
        <time>2019-06-15T18:34:05Z</time>
      </trkpt>
      <trkpt lat="43.411387" lon="-2.671257">
        <ele>59.108</ele>
        <time>2019-06-15T18:34:06Z</time>
      </trkpt>
      <trkpt lat="43.411378" lon="-2.671456">
        <ele>59.674</ele>
        <time>2019-06-15T18:34:07Z</time>
      </trkpt>
      <trkpt lat="43.411420" lon="-2.671633">
        <ele>57.258</ele>
        <time>2019-06-15T18:34:08Z</time>
      </trkpt>
      <trkpt lat="43.411415" lon="-2.671808">
        <ele>57.127</ele>
        <time>2019-06-15T18:34:09Z</time>
      </trkpt>
      <trkpt lat="43.411383" lon="-2.671993">
        <ele>58.166</ele>
        <time>2019-06-15T18:34:10Z</time>
      </trkpt>
      <trkpt lat="43.411353" lon="-2.672158">
        <ele>58.315</ele>
        <time>2019-06-15T18:34:11Z</time>
      </trkpt>
      <trkpt lat="43.411284" lon="-2.672281">
        <ele>58.816</ele>
        <time>2019-06-15T18:34:12Z</time>
      </trkpt>
      <trkpt lat="43.411214" lon="-2.672413">
        <ele>58.745</ele>
        <time>2019-06-15T18:34:13Z</time>
      </trkpt>
      <trkpt lat="43.411099" lon="-2.672493">
        <ele>60.259</ele>
        <time>2019-06-15T18:34:14Z</time>
      </trkpt>
      <trkpt lat="43.410966" lon="-2.672558">
        <ele>60.022</ele>
        <time>2019-06-15T18:34:15Z</time>
      </trkpt>
      <trkpt lat="43.410834" lon="-2.672611">
        <ele>59.662</ele>
        <time>2019-06-15T18:34:16Z</time>
      </trkpt>
      <trkpt lat="43.410702" lon="-2.672656">
        <ele>59.008</ele>
        <time>2019-06-15T18:34:17Z</time>
      </trkpt>
      <trkpt lat="43.410597" lon="-2.672769">
        <ele>57.808</ele>
        <time>2019-06-15T18:34:18Z</time>
      </trkpt>
      <trkpt lat="43.410497" lon="-2.672880">
        <ele>55.425</ele>
        <time>2019-06-15T18:34:19Z</time>
      </trkpt>
      <trkpt lat="43.410386" lon="-2.673018">
        <ele>55.379</ele>
        <time>2019-06-15T18:34:20Z</time>
      </trkpt>
      <trkpt lat="43.410305" lon="-2.673209">
        <ele>57.378</ele>
        <time>2019-06-15T18:34:21Z</time>
      </trkpt>
      <trkpt lat="43.410283" lon="-2.673387">
        <ele>57.837</ele>
        <time>2019-06-15T18:34:22Z</time>
      </trkpt>
      <trkpt lat="43.410254" lon="-2.673592">
        <ele>58.766</ele>
        <time>2019-06-15T18:34:23Z</time>
      </trkpt>
      <trkpt lat="43.410219" lon="-2.673832">
        <ele>59.417</ele>
        <time>2019-06-15T18:34:24Z</time>
      </trkpt>
      <trkpt lat="43.410188" lon="-2.674027">
        <ele>59.116</ele>
        <time>2019-06-15T18:34:25Z</time>
      </trkpt>
      <trkpt lat="43.410147" lon="-2.674200">
        <ele>58.530</ele>
        <time>2019-06-15T18:34:26Z</time>
      </trkpt>
      <trkpt lat="43.410059" lon="-2.674380">
        <ele>58.394</ele>
        <time>2019-06-15T18:34:27Z</time>
      </trkpt>
      <trkpt lat="43.409957" lon="-2.674545">
        <ele>57.957</ele>
        <time>2019-06-15T18:34:28Z</time>
      </trkpt>
      <trkpt lat="43.409847" lon="-2.674698">
        <ele>57.122</ele>
        <time>2019-06-15T18:34:29Z</time>
      </trkpt>
      <trkpt lat="43.409709" lon="-2.674798">
        <ele>56.908</ele>
        <time>2019-06-15T18:34:30Z</time>
      </trkpt>
      <trkpt lat="43.409546" lon="-2.674773">
        <ele>58.342</ele>
        <time>2019-06-15T18:34:31Z</time>
      </trkpt>
      <trkpt lat="43.409389" lon="-2.674833">
        <ele>58.086</ele>
        <time>2019-06-15T18:34:32Z</time>
      </trkpt>
      <trkpt lat="43.409247" lon="-2.674864">
        <ele>59.335</ele>
        <time>2019-06-15T18:34:33Z</time>
      </trkpt>
      <trkpt lat="43.409118" lon="-2.674933">
        <ele>59.354</ele>
        <time>2019-06-15T18:34:34Z</time>
      </trkpt>
      <trkpt lat="43.409014" lon="-2.675039">
        <ele>57.873</ele>
        <time>2019-06-15T18:34:35Z</time>
      </trkpt>
      <trkpt lat="43.408930" lon="-2.675135">
        <ele>57.614</ele>
        <time>2019-06-15T18:34:36Z</time>
      </trkpt>
      <trkpt lat="43.408857" lon="-2.675256">
        <ele>57.843</ele>
        <time>2019-06-15T18:34:37Z</time>
      </trkpt>
      <trkpt lat="43.408796" lon="-2.675421">
        <ele>58.357</ele>
        <time>2019-06-15T18:34:38Z</time>
      </trkpt>
      <trkpt lat="43.408778" lon="-2.675561">
        <ele>58.583</ele>
        <time>2019-06-15T18:34:39Z</time>
      </trkpt>
      <trkpt lat="43.408768" lon="-2.675730">
        <ele>62.225</ele>
        <time>2019-06-15T18:34:40Z</time>
      </trkpt>
      <trkpt lat="43.408915" lon="-2.675914">
        <ele>60.317</ele>
        <time>2019-06-15T18:34:41Z</time>
      </trkpt>
      <trkpt lat="43.408993" lon="-2.676025">
        <ele>59.908</ele>
        <time>2019-06-15T18:34:42Z</time>
      </trkpt>
      <trkpt lat="43.409098" lon="-2.676183">
        <ele>60.931</ele>
        <time>2019-06-15T18:34:43Z</time>
      </trkpt>
      <trkpt lat="43.409197" lon="-2.676341">
        <ele>61.535</ele>
        <time>2019-06-15T18:34:44Z</time>
      </trkpt>
      <trkpt lat="43.409274" lon="-2.676513">
        <ele>61.294</ele>
        <time>2019-06-15T18:34:45Z</time>
      </trkpt>
      <trkpt lat="43.409340" lon="-2.676690">
        <ele>60.253</ele>
        <time>2019-06-15T18:34:46Z</time>
      </trkpt>
      <trkpt lat="43.409378" lon="-2.676888">
        <ele>61.512</ele>
        <time>2019-06-15T18:34:47Z</time>
      </trkpt>
      <trkpt lat="43.409400" lon="-2.677084">
        <ele>62.653</ele>
        <time>2019-06-15T18:34:48Z</time>
      </trkpt>
      <trkpt lat="43.409411" lon="-2.677283">
        <ele>63.292</ele>
        <time>2019-06-15T18:34:49Z</time>
      </trkpt>
      <trkpt lat="43.409417" lon="-2.677475">
        <ele>63.136</ele>
        <time>2019-06-15T18:34:50Z</time>
      </trkpt>
      <trkpt lat="43.409384" lon="-2.677638">
        <ele>62.728</ele>
        <time>2019-06-15T18:34:51Z</time>
      </trkpt>
      <trkpt lat="43.409368" lon="-2.677810">
        <ele>62.089</ele>
        <time>2019-06-15T18:34:52Z</time>
      </trkpt>
      <trkpt lat="43.409319" lon="-2.677961">
        <ele>61.117</ele>
        <time>2019-06-15T18:34:53Z</time>
      </trkpt>
      <trkpt lat="43.409265" lon="-2.678101">
        <ele>60.408</ele>
        <time>2019-06-15T18:34:54Z</time>
      </trkpt>
      <trkpt lat="43.409177" lon="-2.678207">
        <ele>60.225</ele>
        <time>2019-06-15T18:34:55Z</time>
      </trkpt>
      <trkpt lat="43.409066" lon="-2.678292">
        <ele>60.299</ele>
        <time>2019-06-15T18:34:56Z</time>
      </trkpt>
      <trkpt lat="43.408954" lon="-2.678347">
        <ele>60.328</ele>
        <time>2019-06-15T18:34:57Z</time>
      </trkpt>
      <trkpt lat="43.408830" lon="-2.678388">
        <ele>60.397</ele>
        <time>2019-06-15T18:34:58Z</time>
      </trkpt>
      <trkpt lat="43.408688" lon="-2.678341">
        <ele>61.626</ele>
        <time>2019-06-15T18:34:59Z</time>
      </trkpt>
      <trkpt lat="43.408523" lon="-2.678286">
        <ele>62.137</ele>
        <time>2019-06-15T18:35:00Z</time>
      </trkpt>
      <trkpt lat="43.408372" lon="-2.678245">
        <ele>61.866</ele>
        <time>2019-06-15T18:35:01Z</time>
      </trkpt>
      <trkpt lat="43.408236" lon="-2.678197">
        <ele>61.470</ele>
        <time>2019-06-15T18:35:02Z</time>
      </trkpt>
      <trkpt lat="43.408097" lon="-2.678163">
        <ele>60.526</ele>
        <time>2019-06-15T18:35:03Z</time>
      </trkpt>
      <trkpt lat="43.407965" lon="-2.678150">
        <ele>59.947</ele>
        <time>2019-06-15T18:35:04Z</time>
      </trkpt>
      <trkpt lat="43.407836" lon="-2.678139">
        <ele>59.411</ele>
        <time>2019-06-15T18:35:05Z</time>
      </trkpt>
      <trkpt lat="43.407718" lon="-2.678200">
        <ele>58.308</ele>
        <time>2019-06-15T18:35:06Z</time>
      </trkpt>
      <trkpt lat="43.407602" lon="-2.678272">
        <ele>57.575</ele>
        <time>2019-06-15T18:35:07Z</time>
      </trkpt>
      <trkpt lat="43.407483" lon="-2.678354">
        <ele>56.859</ele>
        <time>2019-06-15T18:35:08Z</time>
      </trkpt>
      <trkpt lat="43.407392" lon="-2.678447">
        <ele>56.218</ele>
        <time>2019-06-15T18:35:09Z</time>
      </trkpt>
      <trkpt lat="43.407281" lon="-2.678668">
        <ele>54.817</ele>
        <time>2019-06-15T18:35:10Z</time>
      </trkpt>
      <trkpt lat="43.407168" lon="-2.678840">
        <ele>54.686</ele>
        <time>2019-06-15T18:35:11Z</time>
      </trkpt>
      <trkpt lat="43.407065" lon="-2.679016">
        <ele>53.337</ele>
        <time>2019-06-15T18:35:12Z</time>
      </trkpt>
      <trkpt lat="43.406978" lon="-2.679196">
        <ele>52.816</ele>
        <time>2019-06-15T18:35:13Z</time>
      </trkpt>
      <trkpt lat="43.406895" lon="-2.679387">
        <ele>52.660</ele>
        <time>2019-06-15T18:35:14Z</time>
      </trkpt>
      <trkpt lat="43.406821" lon="-2.679574">
        <ele>52.078</ele>
        <time>2019-06-15T18:35:15Z</time>
      </trkpt>
      <trkpt lat="43.406728" lon="-2.679762">
        <ele>51.833</ele>
        <time>2019-06-15T18:35:16Z</time>
      </trkpt>
      <trkpt lat="43.406619" lon="-2.679959">
        <ele>51.026</ele>
        <time>2019-06-15T18:35:17Z</time>
      </trkpt>
      <trkpt lat="43.406508" lon="-2.680142">
        <ele>49.308</ele>
        <time>2019-06-15T18:35:18Z</time>
      </trkpt>
      <trkpt lat="43.406369" lon="-2.680244">
        <ele>49.650</ele>
        <time>2019-06-15T18:35:19Z</time>
      </trkpt>
      <trkpt lat="43.406245" lon="-2.680404">
        <ele>49.464</ele>
        <time>2019-06-15T18:35:20Z</time>
      </trkpt>
      <trkpt lat="43.406131" lon="-2.680580">
        <ele>48.253</ele>
        <time>2019-06-15T18:35:21Z</time>
      </trkpt>
      <trkpt lat="43.406030" lon="-2.680798">
        <ele>47.472</ele>
        <time>2019-06-15T18:35:22Z</time>
      </trkpt>
      <trkpt lat="43.405938" lon="-2.681036">
        <ele>46.571</ele>
        <time>2019-06-15T18:35:23Z</time>
      </trkpt>
      <trkpt lat="43.405865" lon="-2.681272">
        <ele>45.552</ele>
        <time>2019-06-15T18:35:24Z</time>
      </trkpt>
      <trkpt lat="43.405796" lon="-2.681502">
        <ele>44.611</ele>
        <time>2019-06-15T18:35:25Z</time>
      </trkpt>
      <trkpt lat="43.405724" lon="-2.681728">
        <ele>43.865</ele>
        <time>2019-06-15T18:35:26Z</time>
      </trkpt>
      <trkpt lat="43.405659" lon="-2.681932">
        <ele>43.514</ele>
        <time>2019-06-15T18:35:27Z</time>
      </trkpt>
      <trkpt lat="43.405597" lon="-2.682119">
        <ele>43.154</ele>
        <time>2019-06-15T18:35:28Z</time>
      </trkpt>
      <trkpt lat="43.405527" lon="-2.682303">
        <ele>42.709</ele>
        <time>2019-06-15T18:35:29Z</time>
      </trkpt>
      <trkpt lat="43.405442" lon="-2.682460">
        <ele>42.208</ele>
        <time>2019-06-15T18:35:30Z</time>
      </trkpt>
      <trkpt lat="43.405329" lon="-2.682596">
        <ele>41.854</ele>
        <time>2019-06-15T18:35:31Z</time>
      </trkpt>
      <trkpt lat="43.405198" lon="-2.682730">
        <ele>41.598</ele>
        <time>2019-06-15T18:35:32Z</time>
      </trkpt>
      <trkpt lat="43.405054" lon="-2.682849">
        <ele>39.827</ele>
        <time>2019-06-15T18:35:33Z</time>
      </trkpt>
      <trkpt lat="43.404905" lon="-2.682964">
        <ele>39.056</ele>
        <time>2019-06-15T18:35:34Z</time>
      </trkpt>
      <trkpt lat="43.404770" lon="-2.683109">
        <ele>38.045</ele>
        <time>2019-06-15T18:35:35Z</time>
      </trkpt>
      <trkpt lat="43.404655" lon="-2.683271">
        <ele>36.826</ele>
        <time>2019-06-15T18:35:36Z</time>
      </trkpt>
      <trkpt lat="43.404551" lon="-2.683451">
        <ele>35.845</ele>
        <time>2019-06-15T18:35:37Z</time>
      </trkpt>
      <trkpt lat="43.404460" lon="-2.683620">
        <ele>35.419</ele>
        <time>2019-06-15T18:35:38Z</time>
      </trkpt>
      <trkpt lat="43.404365" lon="-2.683800">
        <ele>34.416</ele>
        <time>2019-06-15T18:35:39Z</time>
      </trkpt>
      <trkpt lat="43.404265" lon="-2.683939">
        <ele>33.776</ele>
        <time>2019-06-15T18:35:40Z</time>
      </trkpt>
      <trkpt lat="43.404162" lon="-2.684076">
        <ele>33.013</ele>
        <time>2019-06-15T18:35:41Z</time>
      </trkpt>
      <trkpt lat="43.404046" lon="-2.684180">
        <ele>31.908</ele>
        <time>2019-06-15T18:35:42Z</time>
      </trkpt>
      <trkpt lat="43.403917" lon="-2.684268">
        <ele>31.374</ele>
        <time>2019-06-15T18:35:43Z</time>
      </trkpt>
      <trkpt lat="43.403789" lon="-2.684347">
        <ele>28.758</ele>
        <time>2019-06-15T18:35:44Z</time>
      </trkpt>
      <trkpt lat="43.403598" lon="-2.684318">
        <ele>27.827</ele>
        <time>2019-06-15T18:35:45Z</time>
      </trkpt>
      <trkpt lat="43.403415" lon="-2.684320">
        <ele>26.976</ele>
        <time>2019-06-15T18:35:46Z</time>
      </trkpt>
      <trkpt lat="43.403234" lon="-2.684318">
        <ele>27.645</ele>
        <time>2019-06-15T18:35:47Z</time>
      </trkpt>
      <trkpt lat="43.403057" lon="-2.684348">
        <ele>27.876</ele>
        <time>2019-06-15T18:35:48Z</time>
      </trkpt>
      <trkpt lat="43.402888" lon="-2.684373">
        <ele>26.725</ele>
        <time>2019-06-15T18:35:49Z</time>
      </trkpt>
      <trkpt lat="43.402735" lon="-2.684378">
        <ele>26.079</ele>
        <time>2019-06-15T18:35:50Z</time>
      </trkpt>
      <trkpt lat="43.402573" lon="-2.684387">
        <ele>24.251</ele>
        <time>2019-06-15T18:35:51Z</time>
      </trkpt>
      <trkpt lat="43.402415" lon="-2.684408">
        <ele>22.601</ele>
        <time>2019-06-15T18:35:52Z</time>
      </trkpt>
      <trkpt lat="43.402269" lon="-2.684438">
        <ele>21.311</ele>
        <time>2019-06-15T18:35:53Z</time>
      </trkpt>
      <trkpt lat="43.402121" lon="-2.684482">
        <ele>19.808</ele>
        <time>2019-06-15T18:35:54Z</time>
      </trkpt>
      <trkpt lat="43.401979" lon="-2.684533">
        <ele>18.018</ele>
        <time>2019-06-15T18:35:55Z</time>
      </trkpt>
      <trkpt lat="43.401841" lon="-2.684575">
        <ele>16.632</ele>
        <time>2019-06-15T18:35:56Z</time>
      </trkpt>
      <trkpt lat="43.401702" lon="-2.684607">
        <ele>16.411</ele>
        <time>2019-06-15T18:35:57Z</time>
      </trkpt>
      <trkpt lat="43.401564" lon="-2.684639">
        <ele>15.540</ele>
        <time>2019-06-15T18:35:58Z</time>
      </trkpt>
      <trkpt lat="43.401440" lon="-2.684656">
        <ele>15.299</ele>
        <time>2019-06-15T18:35:59Z</time>
      </trkpt>
      <trkpt lat="43.401321" lon="-2.684669">
        <ele>15.080</ele>
        <time>2019-06-15T18:36:00Z</time>
      </trkpt>
      <trkpt lat="43.401197" lon="-2.684686">
        <ele>14.779</ele>
        <time>2019-06-15T18:36:01Z</time>
      </trkpt>
      <trkpt lat="43.401073" lon="-2.684691">
        <ele>14.763</ele>
        <time>2019-06-15T18:36:02Z</time>
      </trkpt>
      <trkpt lat="43.400935" lon="-2.684678">
        <ele>14.752</ele>
        <time>2019-06-15T18:36:03Z</time>
      </trkpt>
      <trkpt lat="43.400801" lon="-2.684672">
        <ele>14.453</ele>
        <time>2019-06-15T18:36:04Z</time>
      </trkpt>
      <trkpt lat="43.400670" lon="-2.684657">
        <ele>13.808</ele>
        <time>2019-06-15T18:36:05Z</time>
      </trkpt>
      <trkpt lat="43.400535" lon="-2.684645">
        <ele>13.008</ele>
        <time>2019-06-15T18:36:06Z</time>
      </trkpt>
      <trkpt lat="43.400400" lon="-2.684636">
        <ele>12.018</ele>
        <time>2019-06-15T18:36:07Z</time>
      </trkpt>
      <trkpt lat="43.400260" lon="-2.684634">
        <ele>10.742</ele>
        <time>2019-06-15T18:36:08Z</time>
      </trkpt>
      <trkpt lat="43.400115" lon="-2.684614">
        <ele>10.291</ele>
        <time>2019-06-15T18:36:09Z</time>
      </trkpt>
      <trkpt lat="43.399961" lon="-2.684608">
        <ele>9.490</ele>
        <time>2019-06-15T18:36:10Z</time>
      </trkpt>
      <trkpt lat="43.399811" lon="-2.684594">
        <ele>9.279</ele>
        <time>2019-06-15T18:36:11Z</time>
      </trkpt>
      <trkpt lat="43.399660" lon="-2.684581">
        <ele>8.590</ele>
        <time>2019-06-15T18:36:12Z</time>
      </trkpt>
      <trkpt lat="43.399511" lon="-2.684571">
        <ele>7.249</ele>
        <time>2019-06-15T18:36:13Z</time>
      </trkpt>
      <trkpt lat="43.399351" lon="-2.684556">
        <ele>6.333</ele>
        <time>2019-06-15T18:36:14Z</time>
      </trkpt>
      <trkpt lat="43.399212" lon="-2.684547">
        <ele>5.842</ele>
        <time>2019-06-15T18:36:15Z</time>
      </trkpt>
      <trkpt lat="43.399068" lon="-2.684551">
        <ele>5.622</ele>
        <time>2019-06-15T18:36:16Z</time>
      </trkpt>
      <trkpt lat="43.398929" lon="-2.684529">
        <ele>5.714</ele>
        <time>2019-06-15T18:36:17Z</time>
      </trkpt>
      <trkpt lat="43.398799" lon="-2.684503">
        <ele>5.808</ele>
        <time>2019-06-15T18:36:18Z</time>
      </trkpt>
      <trkpt lat="43.398651" lon="-2.684506">
        <ele>5.817</ele>
        <time>2019-06-15T18:36:19Z</time>
      </trkpt>
      <trkpt lat="43.398514" lon="-2.684498">
        <ele>5.831</ele>
        <time>2019-06-15T18:36:20Z</time>
      </trkpt>
      <trkpt lat="43.398374" lon="-2.684470">
        <ele>5.960</ele>
        <time>2019-06-15T18:36:21Z</time>
      </trkpt>
      <trkpt lat="43.398223" lon="-2.684452">
        <ele>5.969</ele>
        <time>2019-06-15T18:36:22Z</time>
      </trkpt>
      <trkpt lat="43.398075" lon="-2.684401">
        <ele>7.828</ele>
        <time>2019-06-15T18:36:23Z</time>
      </trkpt>
      <trkpt lat="43.397938" lon="-2.684342">
        <ele>8.369</ele>
        <time>2019-06-15T18:36:24Z</time>
      </trkpt>
      <trkpt lat="43.397821" lon="-2.684267">
        <ele>8.978</ele>
        <time>2019-06-15T18:36:25Z</time>
      </trkpt>
      <trkpt lat="43.397690" lon="-2.684213">
        <ele>8.222</ele>
        <time>2019-06-15T18:36:26Z</time>
      </trkpt>
      <trkpt lat="43.397551" lon="-2.684164">
        <ele>7.155</ele>
        <time>2019-06-15T18:36:27Z</time>
      </trkpt>
      <trkpt lat="43.397414" lon="-2.684103">
        <ele>8.607</ele>
        <time>2019-06-15T18:36:28Z</time>
      </trkpt>
      <trkpt lat="43.397274" lon="-2.684004">
        <ele>10.017</ele>
        <time>2019-06-15T18:36:29Z</time>
      </trkpt>
      <trkpt lat="43.397153" lon="-2.683909">
        <ele>9.508</ele>
        <time>2019-06-15T18:36:30Z</time>
      </trkpt>
      <trkpt lat="43.397021" lon="-2.683796">
        <ele>10.478</ele>
        <time>2019-06-15T18:36:31Z</time>
      </trkpt>
      <trkpt lat="43.396875" lon="-2.683662">
        <ele>10.492</ele>
        <time>2019-06-15T18:36:32Z</time>
      </trkpt>
      <trkpt lat="43.396792" lon="-2.683477">
        <ele>12.691</ele>
        <time>2019-06-15T18:36:33Z</time>
      </trkpt>
      <trkpt lat="43.396689" lon="-2.683304">
        <ele>11.550</ele>
        <time>2019-06-15T18:36:34Z</time>
      </trkpt>
      <trkpt lat="43.396579" lon="-2.683123">
        <ele>12.429</ele>
        <time>2019-06-15T18:36:35Z</time>
      </trkpt>
      <trkpt lat="43.396477" lon="-2.682930">
        <ele>12.120</ele>
        <time>2019-06-15T18:36:36Z</time>
      </trkpt>
      <trkpt lat="43.396365" lon="-2.682780">
        <ele>10.129</ele>
        <time>2019-06-15T18:36:37Z</time>
      </trkpt>
      <trkpt lat="43.396286" lon="-2.682565">
        <ele>11.283</ele>
        <time>2019-06-15T18:36:38Z</time>
      </trkpt>
      <trkpt lat="43.396234" lon="-2.682343">
        <ele>11.096</ele>
        <time>2019-06-15T18:36:39Z</time>
      </trkpt>
      <trkpt lat="43.396167" lon="-2.682112">
        <ele>9.631</ele>
        <time>2019-06-15T18:36:40Z</time>
      </trkpt>
      <trkpt lat="43.396115" lon="-2.681881">
        <ele>10.224</ele>
        <time>2019-06-15T18:36:41Z</time>
      </trkpt>
      <trkpt lat="43.396073" lon="-2.681662">
        <ele>11.608</ele>
        <time>2019-06-15T18:36:42Z</time>
      </trkpt>
      <trkpt lat="43.396014" lon="-2.681461">
        <ele>11.382</ele>
        <time>2019-06-15T18:36:43Z</time>
      </trkpt>
      <trkpt lat="43.395962" lon="-2.681268">
        <ele>10.676</ele>
        <time>2019-06-15T18:36:44Z</time>
      </trkpt>
      <trkpt lat="43.395917" lon="-2.681083">
        <ele>9.845</ele>
        <time>2019-06-15T18:36:45Z</time>
      </trkpt>
      <trkpt lat="43.395863" lon="-2.680915">
        <ele>8.274</ele>
        <time>2019-06-15T18:36:46Z</time>
      </trkpt>
      <trkpt lat="43.395805" lon="-2.680757">
        <ele>7.583</ele>
        <time>2019-06-15T18:36:47Z</time>
      </trkpt>
      <trkpt lat="43.395739" lon="-2.680616">
        <ele>7.824</ele>
        <time>2019-06-15T18:36:48Z</time>
      </trkpt>
      <trkpt lat="43.395645" lon="-2.680490">
        <ele>6.643</ele>
        <time>2019-06-15T18:36:49Z</time>
      </trkpt>
      <trkpt lat="43.395556" lon="-2.680389">
        <ele>4.677</ele>
        <time>2019-06-15T18:36:50Z</time>
      </trkpt>
      <trkpt lat="43.395456" lon="-2.680294">
        <ele>4.967</ele>
        <time>2019-06-15T18:36:51Z</time>
      </trkpt>
      <trkpt lat="43.395327" lon="-2.680233">
        <ele>5.281</ele>
        <time>2019-06-15T18:36:52Z</time>
      </trkpt>
      <trkpt lat="43.395199" lon="-2.680150">
        <ele>5.719</ele>
        <time>2019-06-15T18:36:53Z</time>
      </trkpt>
      <trkpt lat="43.395050" lon="-2.680215">
        <ele>6.008</ele>
        <time>2019-06-15T18:36:54Z</time>
      </trkpt>
      <trkpt lat="43.394902" lon="-2.680241">
        <ele>6.419</ele>
        <time>2019-06-15T18:36:55Z</time>
      </trkpt>
      <trkpt lat="43.394780" lon="-2.680317">
        <ele>6.363</ele>
        <time>2019-06-15T18:36:56Z</time>
      </trkpt>
      <trkpt lat="43.394653" lon="-2.680386">
        <ele>6.562</ele>
        <time>2019-06-15T18:36:57Z</time>
      </trkpt>
      <trkpt lat="43.394549" lon="-2.680510">
        <ele>7.131</ele>
        <time>2019-06-15T18:36:58Z</time>
      </trkpt>
      <trkpt lat="43.394467" lon="-2.680628">
        <ele>8.080</ele>
        <time>2019-06-15T18:36:59Z</time>
      </trkpt>
      <trkpt lat="43.394371" lon="-2.680777">
        <ele>10.351</ele>
        <time>2019-06-15T18:37:00Z</time>
      </trkpt>
      <trkpt lat="43.394340" lon="-2.681052">
        <ele>8.410</ele>
        <time>2019-06-15T18:37:01Z</time>
      </trkpt>
      <trkpt lat="43.394289" lon="-2.681279">
        <ele>8.064</ele>
        <time>2019-06-15T18:37:02Z</time>
      </trkpt>
      <trkpt lat="43.394225" lon="-2.681473">
        <ele>8.095</ele>
        <time>2019-06-15T18:37:03Z</time>
      </trkpt>
      <trkpt lat="43.394179" lon="-2.681673">
        <ele>6.649</ele>
        <time>2019-06-15T18:37:04Z</time>
      </trkpt>
      <trkpt lat="43.394105" lon="-2.681875">
        <ele>7.423</ele>
        <time>2019-06-15T18:37:05Z</time>
      </trkpt>
      <trkpt lat="43.394017" lon="-2.682045">
        <ele>8.108</ele>
        <time>2019-06-15T18:37:06Z</time>
      </trkpt>
      <trkpt lat="43.393940" lon="-2.682190">
        <ele>8.032</ele>
        <time>2019-06-15T18:37:07Z</time>
      </trkpt>
      <trkpt lat="43.393841" lon="-2.682336">
        <ele>7.466</ele>
        <time>2019-06-15T18:37:08Z</time>
      </trkpt>
      <trkpt lat="43.393695" lon="-2.682441">
        <ele>9.745</ele>
        <time>2019-06-15T18:37:09Z</time>
      </trkpt>
      <trkpt lat="43.393551" lon="-2.682533">
        <ele>11.634</ele>
        <time>2019-06-15T18:37:10Z</time>
      </trkpt>
      <trkpt lat="43.393397" lon="-2.682573">
        <ele>14.793</ele>
        <time>2019-06-15T18:37:11Z</time>
      </trkpt>
      <trkpt lat="43.393235" lon="-2.682632">
        <ele>16.114</ele>
        <time>2019-06-15T18:37:12Z</time>
      </trkpt>
      <trkpt lat="43.393051" lon="-2.682641">
        <ele>18.533</ele>
        <time>2019-06-15T18:37:13Z</time>
      </trkpt>
      <trkpt lat="43.392874" lon="-2.682651">
        <ele>18.857</ele>
        <time>2019-06-15T18:37:14Z</time>
      </trkpt>
      <trkpt lat="43.392706" lon="-2.682644">
        <ele>19.693</ele>
        <time>2019-06-15T18:37:15Z</time>
      </trkpt>
      <trkpt lat="43.392543" lon="-2.682620">
        <ele>20.965</ele>
        <time>2019-06-15T18:37:16Z</time>
      </trkpt>
      <trkpt lat="43.392386" lon="-2.682597">
        <ele>21.421</ele>
        <time>2019-06-15T18:37:17Z</time>
      </trkpt>
      <trkpt lat="43.392219" lon="-2.682519">
        <ele>24.108</ele>
        <time>2019-06-15T18:37:18Z</time>
      </trkpt>
      <trkpt lat="43.392041" lon="-2.682417">
        <ele>26.222</ele>
        <time>2019-06-15T18:37:19Z</time>
      </trkpt>
      <trkpt lat="43.391860" lon="-2.682334">
        <ele>26.866</ele>
        <time>2019-06-15T18:37:20Z</time>
      </trkpt>
      <trkpt lat="43.391685" lon="-2.682227">
        <ele>27.345</ele>
        <time>2019-06-15T18:37:21Z</time>
      </trkpt>
      <trkpt lat="43.391503" lon="-2.682120">
        <ele>28.834</ele>
        <time>2019-06-15T18:37:22Z</time>
      </trkpt>
      <trkpt lat="43.391311" lon="-2.682015">
        <ele>29.383</ele>
        <time>2019-06-15T18:37:23Z</time>
      </trkpt>
      <trkpt lat="43.391141" lon="-2.681893">
        <ele>30.534</ele>
        <time>2019-06-15T18:37:24Z</time>
      </trkpt>
      <trkpt lat="43.390987" lon="-2.681758">
        <ele>32.993</ele>
        <time>2019-06-15T18:37:25Z</time>
      </trkpt>
      <trkpt lat="43.390812" lon="-2.681645">
        <ele>34.997</ele>
        <time>2019-06-15T18:37:26Z</time>
      </trkpt>
      <trkpt lat="43.390591" lon="-2.681586">
        <ele>36.473</ele>
        <time>2019-06-15T18:37:27Z</time>
      </trkpt>
      <trkpt lat="43.390398" lon="-2.681485">
        <ele>38.385</ele>
        <time>2019-06-15T18:37:28Z</time>
      </trkpt>
      <trkpt lat="43.390189" lon="-2.681408">
        <ele>38.413</ele>
        <time>2019-06-15T18:37:29Z</time>
      </trkpt>
      <trkpt lat="43.390002" lon="-2.681321">
        <ele>39.708</ele>
        <time>2019-06-15T18:37:30Z</time>
      </trkpt>
      <trkpt lat="43.389808" lon="-2.681234">
        <ele>40.430</ele>
        <time>2019-06-15T18:37:31Z</time>
      </trkpt>
      <trkpt lat="43.389632" lon="-2.681149">
        <ele>41.224</ele>
        <time>2019-06-15T18:37:32Z</time>
      </trkpt>
      <trkpt lat="43.389457" lon="-2.681037">
        <ele>42.973</ele>
        <time>2019-06-15T18:37:33Z</time>
      </trkpt>
      <trkpt lat="43.389271" lon="-2.680935">
        <ele>44.152</ele>
        <time>2019-06-15T18:37:34Z</time>
      </trkpt>
      <trkpt lat="43.389100" lon="-2.680818">
        <ele>46.041</ele>
        <time>2019-06-15T18:37:35Z</time>
      </trkpt>
      <trkpt lat="43.388904" lon="-2.680707">
        <ele>48.272</ele>
        <time>2019-06-15T18:37:36Z</time>
      </trkpt>
      <trkpt lat="43.388712" lon="-2.680590">
        <ele>48.911</ele>
        <time>2019-06-15T18:37:37Z</time>
      </trkpt>
      <trkpt lat="43.388529" lon="-2.680466">
        <ele>50.285</ele>
        <time>2019-06-15T18:37:38Z</time>
      </trkpt>
      <trkpt lat="43.388356" lon="-2.680342">
        <ele>50.045</ele>
        <time>2019-06-15T18:37:39Z</time>
      </trkpt>
      <trkpt lat="43.388204" lon="-2.680215">
        <ele>52.147</ele>
        <time>2019-06-15T18:37:40Z</time>
      </trkpt>
      <trkpt lat="43.388049" lon="-2.680093">
        <ele>53.211</ele>
        <time>2019-06-15T18:37:41Z</time>
      </trkpt>
      <trkpt lat="43.387890" lon="-2.679957">
        <ele>53.308</ele>
        <time>2019-06-15T18:37:42Z</time>
      </trkpt>
      <trkpt lat="43.387735" lon="-2.679834">
        <ele>53.587</ele>
        <time>2019-06-15T18:37:43Z</time>
      </trkpt>
      <trkpt lat="43.387586" lon="-2.679718">
        <ele>54.091</ele>
        <time>2019-06-15T18:37:44Z</time>
      </trkpt>
      <trkpt lat="43.387431" lon="-2.679587">
        <ele>54.310</ele>
        <time>2019-06-15T18:37:45Z</time>
      </trkpt>
      <trkpt lat="43.387260" lon="-2.679462">
        <ele>54.389</ele>
        <time>2019-06-15T18:37:46Z</time>
      </trkpt>
      <trkpt lat="43.387099" lon="-2.679342">
        <ele>55.118</ele>
        <time>2019-06-15T18:37:47Z</time>
      </trkpt>
      <trkpt lat="43.386933" lon="-2.679226">
        <ele>55.359</ele>
        <time>2019-06-15T18:37:48Z</time>
      </trkpt>
      <trkpt lat="43.386792" lon="-2.679117">
        <ele>55.648</ele>
        <time>2019-06-15T18:37:49Z</time>
      </trkpt>
      <trkpt lat="43.386640" lon="-2.679014">
        <ele>55.612</ele>
        <time>2019-06-15T18:37:50Z</time>
      </trkpt>
      <trkpt lat="43.386498" lon="-2.678916">
        <ele>56.094</ele>
        <time>2019-06-15T18:37:51Z</time>
      </trkpt>
      <trkpt lat="43.386362" lon="-2.678823">
        <ele>55.557</ele>
        <time>2019-06-15T18:37:52Z</time>
      </trkpt>
      <trkpt lat="43.386230" lon="-2.678731">
        <ele>54.922</ele>
        <time>2019-06-15T18:37:53Z</time>
      </trkpt>
      <trkpt lat="43.386100" lon="-2.678649">
        <ele>54.308</ele>
        <time>2019-06-15T18:37:54Z</time>
      </trkpt>
      <trkpt lat="43.385974" lon="-2.678558">
        <ele>54.272</ele>
        <time>2019-06-15T18:37:55Z</time>
      </trkpt>
      <trkpt lat="43.385830" lon="-2.678464">
        <ele>53.936</ele>
        <time>2019-06-15T18:37:56Z</time>
      </trkpt>
      <trkpt lat="43.385698" lon="-2.678368">
        <ele>53.395</ele>
        <time>2019-06-15T18:37:57Z</time>
      </trkpt>
      <trkpt lat="43.385558" lon="-2.678271">
        <ele>52.834</ele>
        <time>2019-06-15T18:37:58Z</time>
      </trkpt>
      <trkpt lat="43.385433" lon="-2.678159">
        <ele>52.213</ele>
        <time>2019-06-15T18:37:59Z</time>
      </trkpt>
      <trkpt lat="43.385292" lon="-2.678050">
        <ele>52.014</ele>
        <time>2019-06-15T18:38:00Z</time>
      </trkpt>
      <trkpt lat="43.385150" lon="-2.677933">
        <ele>51.783</ele>
        <time>2019-06-15T18:38:01Z</time>
      </trkpt>
      <trkpt lat="43.385012" lon="-2.677828">
        <ele>51.797</ele>
        <time>2019-06-15T18:38:02Z</time>
      </trkpt>
      <trkpt lat="43.384866" lon="-2.677740">
        <ele>53.136</ele>
        <time>2019-06-15T18:38:03Z</time>
      </trkpt>
      <trkpt lat="43.384721" lon="-2.677660">
        <ele>54.017</ele>
        <time>2019-06-15T18:38:04Z</time>
      </trkpt>
      <trkpt lat="43.384567" lon="-2.677575">
        <ele>55.418</ele>
        <time>2019-06-15T18:38:05Z</time>
      </trkpt>
      <trkpt lat="43.384430" lon="-2.677474">
        <ele>56.108</ele>
        <time>2019-06-15T18:38:06Z</time>
      </trkpt>
      <trkpt lat="43.384284" lon="-2.677351">
        <ele>56.946</ele>
        <time>2019-06-15T18:38:07Z</time>
      </trkpt>
      <trkpt lat="43.384146" lon="-2.677209">
        <ele>57.280</ele>
        <time>2019-06-15T18:38:08Z</time>
      </trkpt>
      <trkpt lat="43.384001" lon="-2.677089">
        <ele>58.559</ele>
        <time>2019-06-15T18:38:09Z</time>
      </trkpt>
      <trkpt lat="43.383867" lon="-2.676974">
        <ele>59.428</ele>
        <time>2019-06-15T18:38:10Z</time>
      </trkpt>
      <trkpt lat="43.383721" lon="-2.676864">
        <ele>60.387</ele>
        <time>2019-06-15T18:38:11Z</time>
      </trkpt>
      <trkpt lat="43.383581" lon="-2.676745">
        <ele>61.128</ele>
        <time>2019-06-15T18:38:12Z</time>
      </trkpt>
      <trkpt lat="43.383447" lon="-2.676640">
        <ele>63.017</ele>
        <time>2019-06-15T18:38:13Z</time>
      </trkpt>
      <trkpt lat="43.383326" lon="-2.676521">
        <ele>64.641</ele>
        <time>2019-06-15T18:38:14Z</time>
      </trkpt>
      <trkpt lat="43.383189" lon="-2.676413">
        <ele>65.742</ele>
        <time>2019-06-15T18:38:15Z</time>
      </trkpt>
      <trkpt lat="43.383068" lon="-2.676291">
        <ele>66.522</ele>
        <time>2019-06-15T18:38:16Z</time>
      </trkpt>
      <trkpt lat="43.382943" lon="-2.676160">
        <ele>67.014</ele>
        <time>2019-06-15T18:38:17Z</time>
      </trkpt>
      <trkpt lat="43.382820" lon="-2.676031">
        <ele>68.008</ele>
        <time>2019-06-15T18:38:18Z</time>
      </trkpt>
      <trkpt lat="43.382711" lon="-2.675909">
        <ele>68.517</ele>
        <time>2019-06-15T18:38:19Z</time>
      </trkpt>
      <trkpt lat="43.382608" lon="-2.675788">
        <ele>68.861</ele>
        <time>2019-06-15T18:38:20Z</time>
      </trkpt>
      <trkpt lat="43.382505" lon="-2.675674">
        <ele>69.770</ele>
        <time>2019-06-15T18:38:21Z</time>
      </trkpt>
      <trkpt lat="43.382402" lon="-2.675564">
        <ele>69.589</ele>
        <time>2019-06-15T18:38:22Z</time>
      </trkpt>
      <trkpt lat="43.382299" lon="-2.675455">
        <ele>69.368</ele>
        <time>2019-06-15T18:38:23Z</time>
      </trkpt>
      <trkpt lat="43.382179" lon="-2.675332">
        <ele>68.349</ele>
        <time>2019-06-15T18:38:24Z</time>
      </trkpt>
      <trkpt lat="43.382051" lon="-2.675215">
        <ele>66.748</ele>
        <time>2019-06-15T18:38:25Z</time>
      </trkpt>
      <trkpt lat="43.381902" lon="-2.675136">
        <ele>64.292</ele>
        <time>2019-06-15T18:38:26Z</time>
      </trkpt>
      <trkpt lat="43.381741" lon="-2.675051">
        <ele>62.036</ele>
        <time>2019-06-15T18:38:27Z</time>
      </trkpt>
      <trkpt lat="43.381573" lon="-2.674975">
        <ele>60.517</ele>
        <time>2019-06-15T18:38:28Z</time>
      </trkpt>
      <trkpt lat="43.381429" lon="-2.674917">
        <ele>59.618</ele>
        <time>2019-06-15T18:38:29Z</time>
      </trkpt>
      <trkpt lat="43.381279" lon="-2.674854">
        <ele>59.508</ele>
        <time>2019-06-15T18:38:30Z</time>
      </trkpt>
      <trkpt lat="43.381114" lon="-2.674794">
        <ele>59.746</ele>
        <time>2019-06-15T18:38:31Z</time>
      </trkpt>
      <trkpt lat="43.380968" lon="-2.674725">
        <ele>61.040</ele>
        <time>2019-06-15T18:38:32Z</time>
      </trkpt>
      <trkpt lat="43.380819" lon="-2.674682">
        <ele>62.329</ele>
        <time>2019-06-15T18:38:33Z</time>
      </trkpt>
      <trkpt lat="43.380666" lon="-2.674634">
        <ele>64.898</ele>
        <time>2019-06-15T18:38:34Z</time>
      </trkpt>
      <trkpt lat="43.380520" lon="-2.674583">
        <ele>66.487</ele>
        <time>2019-06-15T18:38:35Z</time>
      </trkpt>
      <trkpt lat="43.380364" lon="-2.674538">
        <ele>67.678</ele>
        <time>2019-06-15T18:38:36Z</time>
      </trkpt>
      <trkpt lat="43.380210" lon="-2.674469">
        <ele>67.957</ele>
        <time>2019-06-15T18:38:37Z</time>
      </trkpt>
      <trkpt lat="43.380079" lon="-2.674376">
        <ele>67.911</ele>
        <time>2019-06-15T18:38:38Z</time>
      </trkpt>
      <trkpt lat="43.379955" lon="-2.674269">
        <ele>68.186</ele>
        <time>2019-06-15T18:38:39Z</time>
      </trkpt>
      <trkpt lat="43.379822" lon="-2.674155">
        <ele>68.860</ele>
        <time>2019-06-15T18:38:40Z</time>
      </trkpt>
      <trkpt lat="43.379701" lon="-2.674037">
        <ele>69.726</ele>
        <time>2019-06-15T18:38:41Z</time>
      </trkpt>
      <trkpt lat="43.379565" lon="-2.673938">
        <ele>70.708</ele>
        <time>2019-06-15T18:38:42Z</time>
      </trkpt>
      <trkpt lat="43.379426" lon="-2.673852">
        <ele>71.781</ele>
        <time>2019-06-15T18:38:43Z</time>
      </trkpt>
      <trkpt lat="43.379268" lon="-2.673780">
        <ele>71.645</ele>
        <time>2019-06-15T18:38:44Z</time>
      </trkpt>
      <trkpt lat="43.379121" lon="-2.673694">
        <ele>72.454</ele>
        <time>2019-06-15T18:38:45Z</time>
      </trkpt>
      <trkpt lat="43.378972" lon="-2.673611">
        <ele>73.773</ele>
        <time>2019-06-15T18:38:46Z</time>
      </trkpt>
      <trkpt lat="43.378816" lon="-2.673532">
        <ele>74.422</ele>
        <time>2019-06-15T18:38:47Z</time>
      </trkpt>
      <trkpt lat="43.378673" lon="-2.673435">
        <ele>74.813</ele>
        <time>2019-06-15T18:38:48Z</time>
      </trkpt>
      <trkpt lat="43.378533" lon="-2.673327">
        <ele>75.332</ele>
        <time>2019-06-15T18:38:49Z</time>
      </trkpt>
      <trkpt lat="43.378404" lon="-2.673206">
        <ele>75.916</ele>
        <time>2019-06-15T18:38:50Z</time>
      </trkpt>
      <trkpt lat="43.378281" lon="-2.673068">
        <ele>75.535</ele>
        <time>2019-06-15T18:38:51Z</time>
      </trkpt>
      <trkpt lat="43.378160" lon="-2.672919">
        <ele>76.386</ele>
        <time>2019-06-15T18:38:52Z</time>
      </trkpt>
      <trkpt lat="43.378040" lon="-2.672772">
        <ele>76.614</ele>
        <time>2019-06-15T18:38:53Z</time>
      </trkpt>
      <trkpt lat="43.377935" lon="-2.672625">
        <ele>76.808</ele>
        <time>2019-06-15T18:38:54Z</time>
      </trkpt>
      <trkpt lat="43.377822" lon="-2.672471">
        <ele>76.326</ele>
        <time>2019-06-15T18:38:55Z</time>
      </trkpt>
      <trkpt lat="43.377693" lon="-2.672315">
        <ele>75.410</ele>
        <time>2019-06-15T18:38:56Z</time>
      </trkpt>
      <trkpt lat="43.377569" lon="-2.672162">
        <ele>75.029</ele>
        <time>2019-06-15T18:38:57Z</time>
      </trkpt>
      <trkpt lat="43.377464" lon="-2.672017">
        <ele>75.238</ele>
        <time>2019-06-15T18:38:58Z</time>
      </trkpt>
      <trkpt lat="43.377326" lon="-2.671890">
        <ele>76.467</ele>
        <time>2019-06-15T18:38:59Z</time>
      </trkpt>
      <trkpt lat="43.377180" lon="-2.671818">
        <ele>76.688</ele>
        <time>2019-06-15T18:39:00Z</time>
      </trkpt>
      <trkpt lat="43.377041" lon="-2.671731">
        <ele>77.397</ele>
        <time>2019-06-15T18:39:01Z</time>
      </trkpt>
      <trkpt lat="43.376917" lon="-2.671709">
        <ele>76.741</ele>
        <time>2019-06-15T18:39:02Z</time>
      </trkpt>
      <trkpt lat="43.376786" lon="-2.671677">
        <ele>76.958</ele>
        <time>2019-06-15T18:39:03Z</time>
      </trkpt>
      <trkpt lat="43.376647" lon="-2.671671">
        <ele>76.852</ele>
        <time>2019-06-15T18:39:04Z</time>
      </trkpt>
      <trkpt lat="43.376507" lon="-2.671697">
        <ele>75.317</ele>
        <time>2019-06-15T18:39:05Z</time>
      </trkpt>
      <trkpt lat="43.376348" lon="-2.671724">
        <ele>73.708</ele>
        <time>2019-06-15T18:39:06Z</time>
      </trkpt>
      <trkpt lat="43.376209" lon="-2.671798">
        <ele>72.368</ele>
        <time>2019-06-15T18:39:07Z</time>
      </trkpt>
      <trkpt lat="43.376091" lon="-2.671877">
        <ele>71.042</ele>
        <time>2019-06-15T18:39:08Z</time>
      </trkpt>
      <trkpt lat="43.375961" lon="-2.671966">
        <ele>71.341</ele>
        <time>2019-06-15T18:39:09Z</time>
      </trkpt>
      <trkpt lat="43.375827" lon="-2.672045">
        <ele>72.670</ele>
        <time>2019-06-15T18:39:10Z</time>
      </trkpt>
      <trkpt lat="43.375687" lon="-2.672093">
        <ele>73.239</ele>
        <time>2019-06-15T18:39:11Z</time>
      </trkpt>
      <trkpt lat="43.375547" lon="-2.672128">
        <ele>73.620</ele>
        <time>2019-06-15T18:39:12Z</time>
      </trkpt>
      <trkpt lat="43.375422" lon="-2.672110">
        <ele>73.129</ele>
        <time>2019-06-15T18:39:13Z</time>
      </trkpt>
      <trkpt lat="43.375261" lon="-2.671980">
        <ele>74.213</ele>
        <time>2019-06-15T18:39:14Z</time>
      </trkpt>
      <trkpt lat="43.375126" lon="-2.671930">
        <ele>73.559</ele>
        <time>2019-06-15T18:39:15Z</time>
      </trkpt>
      <trkpt lat="43.375010" lon="-2.671828">
        <ele>73.803</ele>
        <time>2019-06-15T18:39:16Z</time>
      </trkpt>
      <trkpt lat="43.374900" lon="-2.671739">
        <ele>73.823</ele>
        <time>2019-06-15T18:39:17Z</time>
      </trkpt>
      <trkpt lat="43.374780" lon="-2.671641">
        <ele>74.108</ele>
        <time>2019-06-15T18:39:18Z</time>
      </trkpt>
      <trkpt lat="43.374661" lon="-2.671554">
        <ele>74.348</ele>
        <time>2019-06-15T18:39:19Z</time>
      </trkpt>
      <trkpt lat="43.374554" lon="-2.671456">
        <ele>74.582</ele>
        <time>2019-06-15T18:39:20Z</time>
      </trkpt>
      <trkpt lat="43.374443" lon="-2.671366">
        <ele>74.591</ele>
        <time>2019-06-15T18:39:21Z</time>
      </trkpt>
      <trkpt lat="43.374315" lon="-2.671272">
        <ele>74.780</ele>
        <time>2019-06-15T18:39:22Z</time>
      </trkpt>
      <trkpt lat="43.374202" lon="-2.671164">
        <ele>74.829</ele>
        <time>2019-06-15T18:39:23Z</time>
      </trkpt>
      <trkpt lat="43.374054" lon="-2.671081">
        <ele>74.550</ele>
        <time>2019-06-15T18:39:24Z</time>
      </trkpt>
      <trkpt lat="43.373903" lon="-2.670995">
        <ele>74.779</ele>
        <time>2019-06-15T18:39:25Z</time>
      </trkpt>
      <trkpt lat="43.373723" lon="-2.670925">
        <ele>75.093</ele>
        <time>2019-06-15T18:39:26Z</time>
      </trkpt>
      <trkpt lat="43.373535" lon="-2.670863">
        <ele>75.148</ele>
        <time>2019-06-15T18:39:27Z</time>
      </trkpt>
      <trkpt lat="43.373335" lon="-2.670793">
        <ele>74.861</ele>
        <time>2019-06-15T18:39:28Z</time>
      </trkpt>
      <trkpt lat="43.373131" lon="-2.670727">
        <ele>74.517</ele>
        <time>2019-06-15T18:39:29Z</time>
      </trkpt>
      <trkpt lat="43.372926" lon="-2.670662">
        <ele>72.808</ele>
        <time>2019-06-15T18:39:30Z</time>
      </trkpt>
      <trkpt lat="43.372730" lon="-2.670594">
        <ele>71.817</ele>
        <time>2019-06-15T18:39:31Z</time>
      </trkpt>
      <trkpt lat="43.372543" lon="-2.670489">
        <ele>73.051</ele>
        <time>2019-06-15T18:39:32Z</time>
      </trkpt>
      <trkpt lat="43.372347" lon="-2.670405">
        <ele>73.760</ele>
        <time>2019-06-15T18:39:33Z</time>
      </trkpt>
      <trkpt lat="43.372163" lon="-2.670291">
        <ele>74.659</ele>
        <time>2019-06-15T18:39:34Z</time>
      </trkpt>
      <trkpt lat="43.371965" lon="-2.670193">
        <ele>74.868</ele>
        <time>2019-06-15T18:39:35Z</time>
      </trkpt>
      <trkpt lat="43.371773" lon="-2.670032">
        <ele>76.149</ele>
        <time>2019-06-15T18:39:36Z</time>
      </trkpt>
      <trkpt lat="43.371579" lon="-2.669891">
        <ele>78.448</ele>
        <time>2019-06-15T18:39:37Z</time>
      </trkpt>
      <trkpt lat="43.371373" lon="-2.669774">
        <ele>79.692</ele>
        <time>2019-06-15T18:39:38Z</time>
      </trkpt>
      <trkpt lat="43.371155" lon="-2.669635">
        <ele>81.979</ele>
        <time>2019-06-15T18:39:39Z</time>
      </trkpt>
      <trkpt lat="43.370978" lon="-2.669645">
        <ele>78.305</ele>
        <time>2019-06-15T18:39:40Z</time>
      </trkpt>
      <trkpt lat="43.370783" lon="-2.669587">
        <ele>78.625</ele>
        <time>2019-06-15T18:39:41Z</time>
      </trkpt>
      <trkpt lat="43.370619" lon="-2.669575">
        <ele>78.608</ele>
        <time>2019-06-15T18:39:42Z</time>
      </trkpt>
      <trkpt lat="43.370453" lon="-2.669493">
        <ele>78.850</ele>
        <time>2019-06-15T18:39:43Z</time>
      </trkpt>
      <trkpt lat="43.370285" lon="-2.669388">
        <ele>79.294</ele>
        <time>2019-06-15T18:39:44Z</time>
      </trkpt>
      <trkpt lat="43.370131" lon="-2.669306">
        <ele>80.373</ele>
        <time>2019-06-15T18:39:45Z</time>
      </trkpt>
      <trkpt lat="43.369972" lon="-2.669265">
        <ele>79.042</ele>
        <time>2019-06-15T18:39:46Z</time>
      </trkpt>
      <trkpt lat="43.369799" lon="-2.669215">
        <ele>78.511</ele>
        <time>2019-06-15T18:39:47Z</time>
      </trkpt>
      <trkpt lat="43.369629" lon="-2.669231">
        <ele>76.852</ele>
        <time>2019-06-15T18:39:48Z</time>
      </trkpt>
      <trkpt lat="43.369467" lon="-2.669252">
        <ele>76.261</ele>
        <time>2019-06-15T18:39:49Z</time>
      </trkpt>
      <trkpt lat="43.369306" lon="-2.669251">
        <ele>75.945</ele>
        <time>2019-06-15T18:39:50Z</time>
      </trkpt>
      <trkpt lat="43.369136" lon="-2.669183">
        <ele>77.035</ele>
        <time>2019-06-15T18:39:51Z</time>
      </trkpt>
      <trkpt lat="43.368969" lon="-2.669123">
        <ele>75.986</ele>
        <time>2019-06-15T18:39:52Z</time>
      </trkpt>
      <trkpt lat="43.368834" lon="-2.669066">
        <ele>75.214</ele>
        <time>2019-06-15T18:39:53Z</time>
      </trkpt>
      <trkpt lat="43.368678" lon="-2.669019">
        <ele>73.608</ele>
        <time>2019-06-15T18:39:54Z</time>
      </trkpt>
      <trkpt lat="43.368516" lon="-2.668960">
        <ele>73.096</ele>
        <time>2019-06-15T18:39:55Z</time>
      </trkpt>
      <trkpt lat="43.368340" lon="-2.668981">
        <ele>70.750</ele>
        <time>2019-06-15T18:39:56Z</time>
      </trkpt>
      <trkpt lat="43.368204" lon="-2.668992">
        <ele>70.559</ele>
        <time>2019-06-15T18:39:57Z</time>
      </trkpt>
      <trkpt lat="43.368027" lon="-2.669015">
        <ele>70.068</ele>
        <time>2019-06-15T18:39:58Z</time>
      </trkpt>
      <trkpt lat="43.367829" lon="-2.669081">
        <ele>68.087</ele>
        <time>2019-06-15T18:39:59Z</time>
      </trkpt>
      <trkpt lat="43.367646" lon="-2.669119">
        <ele>67.088</ele>
        <time>2019-06-15T18:40:00Z</time>
      </trkpt>
      <trkpt lat="43.367460" lon="-2.669148">
        <ele>66.557</ele>
        <time>2019-06-15T18:40:01Z</time>
      </trkpt>
      <trkpt lat="43.367286" lon="-2.669177">
        <ele>65.681</ele>
        <time>2019-06-15T18:40:02Z</time>
      </trkpt>
      <trkpt lat="43.367148" lon="-2.669186">
        <ele>64.825</ele>
        <time>2019-06-15T18:40:03Z</time>
      </trkpt>
      <trkpt lat="43.366974" lon="-2.669225">
        <ele>62.126</ele>
        <time>2019-06-15T18:40:04Z</time>
      </trkpt>
      <trkpt lat="43.366811" lon="-2.669262">
        <ele>61.908</ele>
        <time>2019-06-15T18:40:05Z</time>
      </trkpt>
      <trkpt lat="43.366664" lon="-2.669278">
        <ele>62.808</ele>
        <time>2019-06-15T18:40:06Z</time>
      </trkpt>
      <trkpt lat="43.366505" lon="-2.669319">
        <ele>62.765</ele>
        <time>2019-06-15T18:40:07Z</time>
      </trkpt>
      <trkpt lat="43.366343" lon="-2.669325">
        <ele>63.259</ele>
        <time>2019-06-15T18:40:08Z</time>
      </trkpt>
      <trkpt lat="43.366177" lon="-2.669336">
        <ele>62.478</ele>
        <time>2019-06-15T18:40:09Z</time>
      </trkpt>
      <trkpt lat="43.365998" lon="-2.669297">
        <ele>62.487</ele>
        <time>2019-06-15T18:40:10Z</time>
      </trkpt>
      <trkpt lat="43.365878" lon="-2.669229">
        <ele>63.496</ele>
        <time>2019-06-15T18:40:11Z</time>
      </trkpt>
      <trkpt lat="43.365720" lon="-2.669210">
        <ele>61.137</ele>
        <time>2019-06-15T18:40:12Z</time>
      </trkpt>
      <trkpt lat="43.365610" lon="-2.669114">
        <ele>61.426</ele>
        <time>2019-06-15T18:40:13Z</time>
      </trkpt>
      <trkpt lat="43.365511" lon="-2.669010">
        <ele>61.270</ele>
        <time>2019-06-15T18:40:14Z</time>
      </trkpt>
      <trkpt lat="43.365428" lon="-2.668873">
        <ele>61.445</ele>
        <time>2019-06-15T18:40:15Z</time>
      </trkpt>
      <trkpt lat="43.365381" lon="-2.668725">
        <ele>60.247</ele>
        <time>2019-06-15T18:40:16Z</time>
      </trkpt>
      <trkpt lat="43.365310" lon="-2.668583">
        <ele>58.011</ele>
        <time>2019-06-15T18:40:17Z</time>
      </trkpt>
      <trkpt lat="43.365191" lon="-2.668468">
        <ele>56.108</ele>
        <time>2019-06-15T18:40:18Z</time>
      </trkpt>
      <trkpt lat="43.365068" lon="-2.668356">
        <ele>56.027</ele>
        <time>2019-06-15T18:40:19Z</time>
      </trkpt>
      <trkpt lat="43.364919" lon="-2.668315">
        <ele>55.981</ele>
        <time>2019-06-15T18:40:20Z</time>
      </trkpt>
      <trkpt lat="43.364761" lon="-2.668277">
        <ele>55.930</ele>
        <time>2019-06-15T18:40:21Z</time>
      </trkpt>
      <trkpt lat="43.364603" lon="-2.668251">
        <ele>56.219</ele>
        <time>2019-06-15T18:40:22Z</time>
      </trkpt>
      <trkpt lat="43.364387" lon="-2.668226">
        <ele>55.928</ele>
        <time>2019-06-15T18:40:23Z</time>
      </trkpt>
      <trkpt lat="43.364195" lon="-2.668190">
        <ele>54.469</ele>
        <time>2019-06-15T18:40:24Z</time>
      </trkpt>
      <trkpt lat="43.364018" lon="-2.668140">
        <ele>53.218</ele>
        <time>2019-06-15T18:40:25Z</time>
      </trkpt>
      <trkpt lat="43.363834" lon="-2.668108">
        <ele>52.752</ele>
        <time>2019-06-15T18:40:26Z</time>
      </trkpt>
      <trkpt lat="43.363662" lon="-2.668117">
        <ele>52.622</ele>
        <time>2019-06-15T18:40:27Z</time>
      </trkpt>
      <trkpt lat="43.363492" lon="-2.668094">
        <ele>52.762</ele>
        <time>2019-06-15T18:40:28Z</time>
      </trkpt>
      <trkpt lat="43.363339" lon="-2.668086">
        <ele>52.408</ele>
        <time>2019-06-15T18:40:29Z</time>
      </trkpt>
      <trkpt lat="43.363193" lon="-2.668069">
        <ele>52.208</ele>
        <time>2019-06-15T18:40:30Z</time>
      </trkpt>
      <trkpt lat="43.363049" lon="-2.668057">
        <ele>51.945</ele>
        <time>2019-06-15T18:40:31Z</time>
      </trkpt>
      <trkpt lat="43.362902" lon="-2.668033">
        <ele>51.489</ele>
        <time>2019-06-15T18:40:32Z</time>
      </trkpt>
      <trkpt lat="43.362760" lon="-2.668006">
        <ele>50.988</ele>
        <time>2019-06-15T18:40:33Z</time>
      </trkpt>
      <trkpt lat="43.362656" lon="-2.667952">
        <ele>50.947</ele>
        <time>2019-06-15T18:40:34Z</time>
      </trkpt>
      <trkpt lat="43.362532" lon="-2.667892">
        <ele>50.926</ele>
        <time>2019-06-15T18:40:35Z</time>
      </trkpt>
      <trkpt lat="43.362412" lon="-2.667835">
        <ele>49.797</ele>
        <time>2019-06-15T18:40:36Z</time>
      </trkpt>
      <trkpt lat="43.362361" lon="-2.667674">
        <ele>51.516</ele>
        <time>2019-06-15T18:40:37Z</time>
      </trkpt>
      <trkpt lat="43.362304" lon="-2.667529">
        <ele>52.020</ele>
        <time>2019-06-15T18:40:38Z</time>
      </trkpt>
      <trkpt lat="43.362233" lon="-2.667386">
        <ele>50.368</ele>
        <time>2019-06-15T18:40:39Z</time>
      </trkpt>
      <trkpt lat="43.362204" lon="-2.667207">
        <ele>49.042</ele>
        <time>2019-06-15T18:40:40Z</time>
      </trkpt>
      <trkpt lat="43.362199" lon="-2.667028">
        <ele>47.626</ele>
        <time>2019-06-15T18:40:41Z</time>
      </trkpt>
      <trkpt lat="43.362196" lon="-2.666855">
        <ele>46.808</ele>
        <time>2019-06-15T18:40:42Z</time>
      </trkpt>
      <trkpt lat="43.362168" lon="-2.666710">
        <ele>45.749</ele>
        <time>2019-06-15T18:40:43Z</time>
      </trkpt>
      <trkpt lat="43.362124" lon="-2.666563">
        <ele>45.993</ele>
        <time>2019-06-15T18:40:44Z</time>
      </trkpt>
      <trkpt lat="43.362078" lon="-2.666411">
        <ele>47.122</ele>
        <time>2019-06-15T18:40:45Z</time>
      </trkpt>
      <trkpt lat="43.361986" lon="-2.666324">
        <ele>47.071</ele>
        <time>2019-06-15T18:40:46Z</time>
      </trkpt>
      <trkpt lat="43.361812" lon="-2.666246">
        <ele>45.950</ele>
        <time>2019-06-15T18:40:47Z</time>
      </trkpt>
      <trkpt lat="43.361673" lon="-2.666150">
        <ele>45.531</ele>
        <time>2019-06-15T18:40:48Z</time>
      </trkpt>
      <trkpt lat="43.361527" lon="-2.666066">
        <ele>45.970</ele>
        <time>2019-06-15T18:40:49Z</time>
      </trkpt>
      <trkpt lat="43.361384" lon="-2.665979">
        <ele>45.934</ele>
        <time>2019-06-15T18:40:50Z</time>
      </trkpt>
      <trkpt lat="43.361240" lon="-2.665886">
        <ele>45.879</ele>
        <time>2019-06-15T18:40:51Z</time>
      </trkpt>
      <trkpt lat="43.361109" lon="-2.665803">
        <ele>45.605</ele>
        <time>2019-06-15T18:40:52Z</time>
      </trkpt>
      <trkpt lat="43.360996" lon="-2.665690">
        <ele>46.425</ele>
        <time>2019-06-15T18:40:53Z</time>
      </trkpt>
      <trkpt lat="43.360876" lon="-2.665555">
        <ele>45.908</ele>
        <time>2019-06-15T18:40:54Z</time>
      </trkpt>
      <trkpt lat="43.360759" lon="-2.665396">
        <ele>46.640</ele>
        <time>2019-06-15T18:40:55Z</time>
      </trkpt>
      <trkpt lat="43.360653" lon="-2.665212">
        <ele>47.014</ele>
        <time>2019-06-15T18:40:56Z</time>
      </trkpt>
      <trkpt lat="43.360547" lon="-2.665003">
        <ele>46.813</ele>
        <time>2019-06-15T18:40:57Z</time>
      </trkpt>
      <trkpt lat="43.360437" lon="-2.664802">
        <ele>47.032</ele>
        <time>2019-06-15T18:40:58Z</time>
      </trkpt>
      <trkpt lat="43.360314" lon="-2.664595">
        <ele>46.171</ele>
        <time>2019-06-15T18:40:59Z</time>
      </trkpt>
      <trkpt lat="43.360184" lon="-2.664393">
        <ele>45.722</ele>
        <time>2019-06-15T18:41:00Z</time>
      </trkpt>
      <trkpt lat="43.360051" lon="-2.664212">
        <ele>44.431</ele>
        <time>2019-06-15T18:41:01Z</time>
      </trkpt>
      <trkpt lat="43.359945" lon="-2.664023">
        <ele>44.155</ele>
        <time>2019-06-15T18:41:02Z</time>
      </trkpt>
      <trkpt lat="43.359833" lon="-2.663849">
        <ele>43.967</ele>
        <time>2019-06-15T18:41:03Z</time>
      </trkpt>
      <trkpt lat="43.359715" lon="-2.663678">
        <ele>42.181</ele>
        <time>2019-06-15T18:41:04Z</time>
      </trkpt>
      <trkpt lat="43.359602" lon="-2.663490">
        <ele>41.619</ele>
        <time>2019-06-15T18:41:05Z</time>
      </trkpt>
      <trkpt lat="43.359499" lon="-2.663297">
        <ele>40.408</ele>
        <time>2019-06-15T18:41:06Z</time>
      </trkpt>
      <trkpt lat="43.359422" lon="-2.663101">
        <ele>39.669</ele>
        <time>2019-06-15T18:41:07Z</time>
      </trkpt>
      <trkpt lat="43.359352" lon="-2.662909">
        <ele>38.993</ele>
        <time>2019-06-15T18:41:08Z</time>
      </trkpt>
      <trkpt lat="43.359248" lon="-2.662732">
        <ele>37.882</ele>
        <time>2019-06-15T18:41:09Z</time>
      </trkpt>
      <trkpt lat="43.359154" lon="-2.662555">
        <ele>37.131</ele>
        <time>2019-06-15T18:41:10Z</time>
      </trkpt>
      <trkpt lat="43.359050" lon="-2.662415">
        <ele>36.080</ele>
        <time>2019-06-15T18:41:11Z</time>
      </trkpt>
      <trkpt lat="43.358955" lon="-2.662256">
        <ele>35.321</ele>
        <time>2019-06-15T18:41:12Z</time>
      </trkpt>
      <trkpt lat="43.358869" lon="-2.662097">
        <ele>34.440</ele>
        <time>2019-06-15T18:41:13Z</time>
      </trkpt>
      <trkpt lat="43.358847" lon="-2.661916">
        <ele>34.984</ele>
        <time>2019-06-15T18:41:14Z</time>
      </trkpt>
      <trkpt lat="43.358820" lon="-2.661724">
        <ele>34.383</ele>
        <time>2019-06-15T18:41:15Z</time>
      </trkpt>
      <trkpt lat="43.358796" lon="-2.661535">
        <ele>33.025</ele>
        <time>2019-06-15T18:41:16Z</time>
      </trkpt>
      <trkpt lat="43.358766" lon="-2.661348">
        <ele>30.917</ele>
        <time>2019-06-15T18:41:17Z</time>
      </trkpt>
      <trkpt lat="43.358749" lon="-2.661160">
        <ele>27.708</ele>
        <time>2019-06-15T18:41:18Z</time>
      </trkpt>
      <trkpt lat="43.358895" lon="-2.661007">
        <ele>29.321</ele>
        <time>2019-06-15T18:41:19Z</time>
      </trkpt>
      <trkpt lat="43.359018" lon="-2.660832">
        <ele>29.295</ele>
        <time>2019-06-15T18:41:20Z</time>
      </trkpt>
      <trkpt lat="43.359122" lon="-2.660657">
        <ele>28.244</ele>
        <time>2019-06-15T18:41:21Z</time>
      </trkpt>
      <trkpt lat="43.359208" lon="-2.660530">
        <ele>27.663</ele>
        <time>2019-06-15T18:41:22Z</time>
      </trkpt>
      <trkpt lat="43.359289" lon="-2.660368">
        <ele>27.052</ele>
        <time>2019-06-15T18:41:23Z</time>
      </trkpt>
      <trkpt lat="43.359324" lon="-2.660191">
        <ele>25.563</ele>
        <time>2019-06-15T18:41:24Z</time>
      </trkpt>
      <trkpt lat="43.359354" lon="-2.659984">
        <ele>24.772</ele>
        <time>2019-06-15T18:41:25Z</time>
      </trkpt>
      <trkpt lat="43.359362" lon="-2.659764">
        <ele>24.966</ele>
        <time>2019-06-15T18:41:26Z</time>
      </trkpt>
      <trkpt lat="43.359346" lon="-2.659523">
        <ele>25.242</ele>
        <time>2019-06-15T18:41:27Z</time>
      </trkpt>
      <trkpt lat="43.359301" lon="-2.659305">
        <ele>24.922</ele>
        <time>2019-06-15T18:41:28Z</time>
      </trkpt>
      <trkpt lat="43.359248" lon="-2.659064">
        <ele>24.114</ele>
        <time>2019-06-15T18:41:29Z</time>
      </trkpt>
      <trkpt lat="43.359197" lon="-2.658834">
        <ele>23.508</ele>
        <time>2019-06-15T18:41:30Z</time>
      </trkpt>
      <trkpt lat="43.359138" lon="-2.658604">
        <ele>23.117</ele>
        <time>2019-06-15T18:41:31Z</time>
      </trkpt>
      <trkpt lat="43.359101" lon="-2.658368">
        <ele>22.361</ele>
        <time>2019-06-15T18:41:32Z</time>
      </trkpt>
      <trkpt lat="43.359114" lon="-2.658072">
        <ele>23.950</ele>
        <time>2019-06-15T18:41:33Z</time>
      </trkpt>
      <trkpt lat="43.359105" lon="-2.657810">
        <ele>23.189</ele>
        <time>2019-06-15T18:41:34Z</time>
      </trkpt>
      <trkpt lat="43.359101" lon="-2.657589">
        <ele>22.458</ele>
        <time>2019-06-15T18:41:35Z</time>
      </trkpt>
      <trkpt lat="43.359104" lon="-2.657325">
        <ele>20.599</ele>
        <time>2019-06-15T18:41:36Z</time>
      </trkpt>
      <trkpt lat="43.359112" lon="-2.657016">
        <ele>19.228</ele>
        <time>2019-06-15T18:41:37Z</time>
      </trkpt>
      <trkpt lat="43.359116" lon="-2.656759">
        <ele>20.012</ele>
        <time>2019-06-15T18:41:38Z</time>
      </trkpt>
      <trkpt lat="43.359141" lon="-2.656575">
        <ele>20.971</ele>
        <time>2019-06-15T18:41:39Z</time>
      </trkpt>
      <trkpt lat="43.359167" lon="-2.656362">
        <ele>21.041</ele>
        <time>2019-06-15T18:41:40Z</time>
      </trkpt>
      <trkpt lat="43.359150" lon="-2.656141">
        <ele>20.515</ele>
        <time>2019-06-15T18:41:41Z</time>
      </trkpt>
      <trkpt lat="43.359158" lon="-2.655917">
        <ele>20.108</ele>
        <time>2019-06-15T18:41:42Z</time>
      </trkpt>
      <trkpt lat="43.359176" lon="-2.655736">
        <ele>20.130</ele>
        <time>2019-06-15T18:41:43Z</time>
      </trkpt>
      <trkpt lat="43.359172" lon="-2.655540">
        <ele>19.244</ele>
        <time>2019-06-15T18:41:44Z</time>
      </trkpt>
      <trkpt lat="43.359155" lon="-2.655359">
        <ele>18.813</ele>
        <time>2019-06-15T18:41:45Z</time>
      </trkpt>
      <trkpt lat="43.359110" lon="-2.655171">
        <ele>18.072</ele>
        <time>2019-06-15T18:41:46Z</time>
      </trkpt>
      <trkpt lat="43.359056" lon="-2.655004">
        <ele>17.231</ele>
        <time>2019-06-15T18:41:47Z</time>
      </trkpt>
      <trkpt lat="43.359001" lon="-2.654841">
        <ele>16.922</ele>
        <time>2019-06-15T18:41:48Z</time>
      </trkpt>
      <trkpt lat="43.358914" lon="-2.654698">
        <ele>17.221</ele>
        <time>2019-06-15T18:41:49Z</time>
      </trkpt>
      <trkpt lat="43.358826" lon="-2.654546">
        <ele>18.065</ele>
        <time>2019-06-15T18:41:50Z</time>
      </trkpt>
      <trkpt lat="43.358737" lon="-2.654463">
        <ele>18.371</ele>
        <time>2019-06-15T18:41:51Z</time>
      </trkpt>
      <trkpt lat="43.358647" lon="-2.654359">
        <ele>18.541</ele>
        <time>2019-06-15T18:41:52Z</time>
      </trkpt>
      <trkpt lat="43.358546" lon="-2.654280">
        <ele>18.415</ele>
        <time>2019-06-15T18:41:53Z</time>
      </trkpt>
      <trkpt lat="43.358450" lon="-2.654210">
        <ele>18.708</ele>
        <time>2019-06-15T18:41:54Z</time>
      </trkpt>
      <trkpt lat="43.358357" lon="-2.654168">
        <ele>19.050</ele>
        <time>2019-06-15T18:41:55Z</time>
      </trkpt>
      <trkpt lat="43.358273" lon="-2.654131">
        <ele>19.364</ele>
        <time>2019-06-15T18:41:56Z</time>
      </trkpt>
      <trkpt lat="43.358156" lon="-2.654051">
        <ele>20.113</ele>
        <time>2019-06-15T18:41:57Z</time>
      </trkpt>
      <trkpt lat="43.358053" lon="-2.653972">
        <ele>21.122</ele>
        <time>2019-06-15T18:41:58Z</time>
      </trkpt>
      <trkpt lat="43.357951" lon="-2.653883">
        <ele>21.761</ele>
        <time>2019-06-15T18:41:59Z</time>
      </trkpt>
      <trkpt lat="43.357848" lon="-2.653775">
        <ele>22.242</ele>
        <time>2019-06-15T18:42:00Z</time>
      </trkpt>
      <trkpt lat="43.357755" lon="-2.653659">
        <ele>22.611</ele>
        <time>2019-06-15T18:42:01Z</time>
      </trkpt>
      <trkpt lat="43.357655" lon="-2.653549">
        <ele>23.055</ele>
        <time>2019-06-15T18:42:02Z</time>
      </trkpt>
      <trkpt lat="43.357545" lon="-2.653432">
        <ele>23.512</ele>
        <time>2019-06-15T18:42:03Z</time>
      </trkpt>
      <trkpt lat="43.357458" lon="-2.653318">
        <ele>23.832</ele>
        <time>2019-06-15T18:42:04Z</time>
      </trkpt>
      <trkpt lat="43.357366" lon="-2.653212">
        <ele>24.305</ele>
        <time>2019-06-15T18:42:05Z</time>
      </trkpt>
      <trkpt lat="43.357278" lon="-2.653095">
        <ele>25.508</ele>
        <time>2019-06-15T18:42:06Z</time>
      </trkpt>
      <trkpt lat="43.357192" lon="-2.652978">
        <ele>27.054</ele>
        <time>2019-06-15T18:42:07Z</time>
      </trkpt>
      <trkpt lat="43.357112" lon="-2.652859">
        <ele>27.888</ele>
        <time>2019-06-15T18:42:08Z</time>
      </trkpt>
      <trkpt lat="43.357044" lon="-2.652756">
        <ele>28.147</ele>
        <time>2019-06-15T18:42:09Z</time>
      </trkpt>
      <trkpt lat="43.356973" lon="-2.652642">
        <ele>28.586</ele>
        <time>2019-06-15T18:42:10Z</time>
      </trkpt>
      <trkpt lat="43.356895" lon="-2.652527">
        <ele>28.795</ele>
        <time>2019-06-15T18:42:11Z</time>
      </trkpt>
      <trkpt lat="43.356823" lon="-2.652410">
        <ele>29.576</ele>
        <time>2019-06-15T18:42:12Z</time>
      </trkpt>
      <trkpt lat="43.356744" lon="-2.652301">
        <ele>29.725</ele>
        <time>2019-06-15T18:42:13Z</time>
      </trkpt>
      <trkpt lat="43.356680" lon="-2.652186">
        <ele>30.129</ele>
        <time>2019-06-15T18:42:14Z</time>
      </trkpt>
      <trkpt lat="43.356601" lon="-2.652074">
        <ele>31.142</ele>
        <time>2019-06-15T18:42:15Z</time>
      </trkpt>
      <trkpt lat="43.356506" lon="-2.651991">
        <ele>31.222</ele>
        <time>2019-06-15T18:42:16Z</time>
      </trkpt>
      <trkpt lat="43.356403" lon="-2.651923">
        <ele>30.414</ele>
        <time>2019-06-15T18:42:17Z</time>
      </trkpt>
      <trkpt lat="43.356295" lon="-2.651872">
        <ele>29.908</ele>
        <time>2019-06-15T18:42:18Z</time>
      </trkpt>
      <trkpt lat="43.356175" lon="-2.651844">
        <ele>29.597</ele>
        <time>2019-06-15T18:42:19Z</time>
      </trkpt>
      <trkpt lat="43.356050" lon="-2.651849">
        <ele>29.611</ele>
        <time>2019-06-15T18:42:20Z</time>
      </trkpt>
      <trkpt lat="43.355928" lon="-2.651863">
        <ele>30.740</ele>
        <time>2019-06-15T18:42:21Z</time>
      </trkpt>
      <trkpt lat="43.355816" lon="-2.651894">
        <ele>31.679</ele>
        <time>2019-06-15T18:42:22Z</time>
      </trkpt>
      <trkpt lat="43.355702" lon="-2.651916">
        <ele>32.648</ele>
        <time>2019-06-15T18:42:23Z</time>
      </trkpt>
      <trkpt lat="43.355599" lon="-2.651944">
        <ele>33.539</ele>
        <time>2019-06-15T18:42:24Z</time>
      </trkpt>
      <trkpt lat="43.355478" lon="-2.651975">
        <ele>34.548</ele>
        <time>2019-06-15T18:42:25Z</time>
      </trkpt>
      <trkpt lat="43.355368" lon="-2.651985">
        <ele>35.782</ele>
        <time>2019-06-15T18:42:26Z</time>
      </trkpt>
      <trkpt lat="43.355248" lon="-2.651978">
        <ele>36.918</ele>
        <time>2019-06-15T18:42:27Z</time>
      </trkpt>
      <trkpt lat="43.355130" lon="-2.651962">
        <ele>37.998</ele>
        <time>2019-06-15T18:42:28Z</time>
      </trkpt>
      <trkpt lat="43.355020" lon="-2.651924">
        <ele>39.117</ele>
        <time>2019-06-15T18:42:29Z</time>
      </trkpt>
      <trkpt lat="43.354910" lon="-2.651879">
        <ele>39.708</ele>
        <time>2019-06-15T18:42:30Z</time>
      </trkpt>
      <trkpt lat="43.354820" lon="-2.651835">
        <ele>40.214</ele>
        <time>2019-06-15T18:42:31Z</time>
      </trkpt>
      <trkpt lat="43.354721" lon="-2.651769">
        <ele>40.918</ele>
        <time>2019-06-15T18:42:32Z</time>
      </trkpt>
      <trkpt lat="43.354634" lon="-2.651695">
        <ele>41.647</ele>
        <time>2019-06-15T18:42:33Z</time>
      </trkpt>
      <trkpt lat="43.354561" lon="-2.651615">
        <ele>42.576</ele>
        <time>2019-06-15T18:42:34Z</time>
      </trkpt>
      <trkpt lat="43.354498" lon="-2.651533">
        <ele>43.425</ele>
        <time>2019-06-15T18:42:35Z</time>
      </trkpt>
      <trkpt lat="43.354448" lon="-2.651450">
        <ele>44.356</ele>
        <time>2019-06-15T18:42:36Z</time>
      </trkpt>
      <trkpt lat="43.354413" lon="-2.651365">
        <ele>44.575</ele>
        <time>2019-06-15T18:42:37Z</time>
      </trkpt>
      <trkpt lat="43.354390" lon="-2.651269">
        <ele>44.939</ele>
        <time>2019-06-15T18:42:38Z</time>
      </trkpt>
      <trkpt lat="43.354380" lon="-2.651190">
        <ele>45.519</ele>
        <time>2019-06-15T18:42:39Z</time>
      </trkpt>
      <trkpt lat="43.354368" lon="-2.651121">
        <ele>46.109</ele>
        <time>2019-06-15T18:42:40Z</time>
      </trkpt>
      <trkpt lat="43.354368" lon="-2.651051">
        <ele>46.519</ele>
        <time>2019-06-15T18:42:41Z</time>
      </trkpt>
      <trkpt lat="43.354359" lon="-2.650981">
        <ele>46.708</ele>
        <time>2019-06-15T18:42:42Z</time>
      </trkpt>
      <trkpt lat="43.354352" lon="-2.650906">
        <ele>47.044</ele>
        <time>2019-06-15T18:42:43Z</time>
      </trkpt>
      <trkpt lat="43.354337" lon="-2.650841">
        <ele>47.228</ele>
        <time>2019-06-15T18:42:44Z</time>
      </trkpt>
      <trkpt lat="43.354324" lon="-2.650728">
        <ele>47.597</ele>
        <time>2019-06-15T18:42:46Z</time>
      </trkpt>
      <trkpt lat="43.354291" lon="-2.650663">
        <ele>47.566</ele>
        <time>2019-06-15T18:42:47Z</time>
      </trkpt>
      <trkpt lat="43.354245" lon="-2.650622">
        <ele>47.315</ele>
        <time>2019-06-15T18:42:48Z</time>
      </trkpt>
      <trkpt lat="43.354191" lon="-2.650565">
        <ele>47.136</ele>
        <time>2019-06-15T18:42:49Z</time>
      </trkpt>
      <trkpt lat="43.354123" lon="-2.650523">
        <ele>46.925</ele>
        <time>2019-06-15T18:42:50Z</time>
      </trkpt>
      <trkpt lat="43.354049" lon="-2.650487">
        <ele>46.859</ele>
        <time>2019-06-15T18:42:51Z</time>
      </trkpt>
      <trkpt lat="43.353982" lon="-2.650489">
        <ele>46.321</ele>
        <time>2019-06-15T18:42:52Z</time>
      </trkpt>
      <trkpt lat="43.353909" lon="-2.650486">
        <ele>45.941</ele>
        <time>2019-06-15T18:42:53Z</time>
      </trkpt>
      <trkpt lat="43.353849" lon="-2.650479">
        <ele>45.805</ele>
        <time>2019-06-15T18:42:54Z</time>
      </trkpt>
      <trkpt lat="43.353763" lon="-2.650499">
        <ele>45.508</ele>
        <time>2019-06-15T18:42:55Z</time>
      </trkpt>
      <trkpt lat="43.353658" lon="-2.650532">
        <ele>45.225</ele>
        <time>2019-06-15T18:42:56Z</time>
      </trkpt>
      <trkpt lat="43.353564" lon="-2.650569">
        <ele>44.649</ele>
        <time>2019-06-15T18:42:57Z</time>
      </trkpt>
      <trkpt lat="43.353497" lon="-2.650601">
        <ele>43.878</ele>
        <time>2019-06-15T18:42:58Z</time>
      </trkpt>
      <trkpt lat="43.353424" lon="-2.650607">
        <ele>43.517</ele>
        <time>2019-06-15T18:42:59Z</time>
      </trkpt>
      <trkpt lat="43.353342" lon="-2.650633">
        <ele>42.936</ele>
        <time>2019-06-15T18:43:00Z</time>
      </trkpt>
      <trkpt lat="43.353286" lon="-2.650657">
        <ele>42.517</ele>
        <time>2019-06-15T18:43:01Z</time>
      </trkpt>
      <trkpt lat="43.353211" lon="-2.650687">
        <ele>42.156</ele>
        <time>2019-06-15T18:43:02Z</time>
      </trkpt>
      <trkpt lat="43.353131" lon="-2.650726">
        <ele>41.790</ele>
        <time>2019-06-15T18:43:03Z</time>
      </trkpt>
      <trkpt lat="43.353060" lon="-2.650746">
        <ele>41.618</ele>
        <time>2019-06-15T18:43:04Z</time>
      </trkpt>
      <trkpt lat="43.352959" lon="-2.650765">
        <ele>41.198</ele>
        <time>2019-06-15T18:43:05Z</time>
      </trkpt>
      <trkpt lat="43.352866" lon="-2.650790">
        <ele>40.617</ele>
        <time>2019-06-15T18:43:06Z</time>
      </trkpt>
      <trkpt lat="43.352767" lon="-2.650825">
        <ele>40.108</ele>
        <time>2019-06-15T18:43:07Z</time>
      </trkpt>
      <trkpt lat="43.352674" lon="-2.650865">
        <ele>39.874</ele>
        <time>2019-06-15T18:43:08Z</time>
      </trkpt>
      <trkpt lat="43.352586" lon="-2.650897">
        <ele>39.698</ele>
        <time>2019-06-15T18:43:09Z</time>
      </trkpt>
      <trkpt lat="43.352495" lon="-2.650929">
        <ele>39.347</ele>
        <time>2019-06-15T18:43:10Z</time>
      </trkpt>
      <trkpt lat="43.352415" lon="-2.650959">
        <ele>38.976</ele>
        <time>2019-06-15T18:43:11Z</time>
      </trkpt>
      <trkpt lat="43.352328" lon="-2.650991">
        <ele>38.635</ele>
        <time>2019-06-15T18:43:12Z</time>
      </trkpt>
      <trkpt lat="43.352252" lon="-2.651001">
        <ele>38.426</ele>
        <time>2019-06-15T18:43:13Z</time>
      </trkpt>
      <trkpt lat="43.352159" lon="-2.651032">
        <ele>37.995</ele>
        <time>2019-06-15T18:43:14Z</time>
      </trkpt>
      <trkpt lat="43.352098" lon="-2.651054">
        <ele>37.469</ele>
        <time>2019-06-15T18:43:15Z</time>
      </trkpt>
      <trkpt lat="43.352009" lon="-2.651073">
        <ele>36.769</ele>
        <time>2019-06-15T18:43:16Z</time>
      </trkpt>
      <trkpt lat="43.351925" lon="-2.651102">
        <ele>36.104</ele>
        <time>2019-06-15T18:43:17Z</time>
      </trkpt>
      <trkpt lat="43.351835" lon="-2.651136">
        <ele>35.824</ele>
        <time>2019-06-15T18:43:18Z</time>
      </trkpt>
      <trkpt lat="43.351745" lon="-2.651188">
        <ele>35.208</ele>
        <time>2019-06-15T18:43:19Z</time>
      </trkpt>
      <trkpt lat="43.351654" lon="-2.651218">
        <ele>34.829</ele>
        <time>2019-06-15T18:43:20Z</time>
      </trkpt>
      <trkpt lat="43.351556" lon="-2.651254">
        <ele>34.533</ele>
        <time>2019-06-15T18:43:21Z</time>
      </trkpt>
      <trkpt lat="43.351456" lon="-2.651289">
        <ele>34.152</ele>
        <time>2019-06-15T18:43:22Z</time>
      </trkpt>
      <trkpt lat="43.351372" lon="-2.651314">
        <ele>33.881</ele>
        <time>2019-06-15T18:43:23Z</time>
      </trkpt>
      <trkpt lat="43.351275" lon="-2.651352">
        <ele>33.350</ele>
        <time>2019-06-15T18:43:24Z</time>
      </trkpt>
      <trkpt lat="43.351175" lon="-2.651389">
        <ele>33.071</ele>
        <time>2019-06-15T18:43:25Z</time>
      </trkpt>
      <trkpt lat="43.351080" lon="-2.651422">
        <ele>32.850</ele>
        <time>2019-06-15T18:43:26Z</time>
      </trkpt>
      <trkpt lat="43.350986" lon="-2.651453">
        <ele>32.664</ele>
        <time>2019-06-15T18:43:27Z</time>
      </trkpt>
      <trkpt lat="43.350902" lon="-2.651483">
        <ele>32.699</ele>
        <time>2019-06-15T18:43:28Z</time>
      </trkpt>
      <trkpt lat="43.350822" lon="-2.651510">
        <ele>32.507</ele>
        <time>2019-06-15T18:43:29Z</time>
      </trkpt>
      <trkpt lat="43.350740" lon="-2.651533">
        <ele>32.327</ele>
        <time>2019-06-15T18:43:30Z</time>
      </trkpt>
      <trkpt lat="43.350650" lon="-2.651559">
        <ele>32.008</ele>
        <time>2019-06-15T18:43:31Z</time>
      </trkpt>
      <trkpt lat="43.350554" lon="-2.651583">
        <ele>31.632</ele>
        <time>2019-06-15T18:43:32Z</time>
      </trkpt>
      <trkpt lat="43.350457" lon="-2.651620">
        <ele>31.066</ele>
        <time>2019-06-15T18:43:33Z</time>
      </trkpt>
      <trkpt lat="43.350369" lon="-2.651651">
        <ele>30.445</ele>
        <time>2019-06-15T18:43:34Z</time>
      </trkpt>
      <trkpt lat="43.350324" lon="-2.651662">
        <ele>30.264</ele>
        <time>2019-06-15T18:43:35Z</time>
      </trkpt>
      <trkpt lat="43.350243" lon="-2.651673">
        <ele>29.783</ele>
        <time>2019-06-15T18:43:37Z</time>
      </trkpt>
      <trkpt lat="43.350199" lon="-2.651713">
        <ele>29.324</ele>
        <time>2019-06-15T18:43:39Z</time>
      </trkpt>
      <trkpt lat="43.350164" lon="-2.651668">
        <ele>29.263</ele>
        <time>2019-06-15T18:43:52Z</time>
      </trkpt>
      <trkpt lat="43.350091" lon="-2.651695">
        <ele>28.617</ele>
        <time>2019-06-15T18:43:55Z</time>
      </trkpt>
      <trkpt lat="43.350030" lon="-2.651708">
        <ele>28.239</ele>
        <time>2019-06-15T18:43:56Z</time>
      </trkpt>
      <trkpt lat="43.349945" lon="-2.651726">
        <ele>27.601</ele>
        <time>2019-06-15T18:43:57Z</time>
      </trkpt>
      <trkpt lat="43.349861" lon="-2.651754">
        <ele>27.021</ele>
        <time>2019-06-15T18:43:58Z</time>
      </trkpt>
      <trkpt lat="43.349763" lon="-2.651795">
        <ele>26.308</ele>
        <time>2019-06-15T18:43:59Z</time>
      </trkpt>
      <trkpt lat="43.349665" lon="-2.651833">
        <ele>25.756</ele>
        <time>2019-06-15T18:44:00Z</time>
      </trkpt>
      <trkpt lat="43.349562" lon="-2.651864">
        <ele>25.080</ele>
        <time>2019-06-15T18:44:01Z</time>
      </trkpt>
      <trkpt lat="43.349463" lon="-2.651893">
        <ele>24.349</ele>
        <time>2019-06-15T18:44:02Z</time>
      </trkpt>
      <trkpt lat="43.349362" lon="-2.651946">
        <ele>23.748</ele>
        <time>2019-06-15T18:44:03Z</time>
      </trkpt>
      <trkpt lat="43.349263" lon="-2.651984">
        <ele>23.357</ele>
        <time>2019-06-15T18:44:04Z</time>
      </trkpt>
      <trkpt lat="43.349145" lon="-2.652034">
        <ele>22.618</ele>
        <time>2019-06-15T18:44:05Z</time>
      </trkpt>
      <trkpt lat="43.349036" lon="-2.652074">
        <ele>22.137</ele>
        <time>2019-06-15T18:44:06Z</time>
      </trkpt>
      <trkpt lat="43.348905" lon="-2.652103">
        <ele>21.581</ele>
        <time>2019-06-15T18:44:07Z</time>
      </trkpt>
      <trkpt lat="43.348798" lon="-2.652144">
        <ele>21.037</ele>
        <time>2019-06-15T18:44:08Z</time>
      </trkpt>
      <trkpt lat="43.348684" lon="-2.652183">
        <ele>20.449</ele>
        <time>2019-06-15T18:44:09Z</time>
      </trkpt>
      <trkpt lat="43.348570" lon="-2.652214">
        <ele>20.013</ele>
        <time>2019-06-15T18:44:10Z</time>
      </trkpt>
      <trkpt lat="43.348463" lon="-2.652240">
        <ele>20.008</ele>
        <time>2019-06-15T18:44:11Z</time>
      </trkpt>
      <trkpt lat="43.348351" lon="-2.652267">
        <ele>20.076</ele>
        <time>2019-06-15T18:44:12Z</time>
      </trkpt>
      <trkpt lat="43.348247" lon="-2.652297">
        <ele>19.580</ele>
        <time>2019-06-15T18:44:13Z</time>
      </trkpt>
      <trkpt lat="43.348196" lon="-2.652295">
        <ele>19.159</ele>
        <time>2019-06-15T18:44:14Z</time>
      </trkpt>
      <trkpt lat="43.348128" lon="-2.652351">
        <ele>18.958</ele>
        <time>2019-06-15T18:44:15Z</time>
      </trkpt>
      <trkpt lat="43.348054" lon="-2.652385">
        <ele>18.677</ele>
        <time>2019-06-15T18:44:16Z</time>
      </trkpt>
      <trkpt lat="43.347983" lon="-2.652409">
        <ele>18.448</ele>
        <time>2019-06-15T18:44:17Z</time>
      </trkpt>
      <trkpt lat="43.347943" lon="-2.652442">
        <ele>18.467</ele>
        <time>2019-06-15T18:44:19Z</time>
      </trkpt>
      <trkpt lat="43.347888" lon="-2.652509">
        <ele>18.411</ele>
        <time>2019-06-15T18:44:37Z</time>
      </trkpt>
      <trkpt lat="43.347829" lon="-2.652531">
        <ele>18.246</ele>
        <time>2019-06-15T18:44:38Z</time>
      </trkpt>
      <trkpt lat="43.347749" lon="-2.652550">
        <ele>17.988</ele>
        <time>2019-06-15T18:44:39Z</time>
      </trkpt>
      <trkpt lat="43.347643" lon="-2.652531">
        <ele>17.516</ele>
        <time>2019-06-15T18:44:40Z</time>
      </trkpt>
      <trkpt lat="43.347502" lon="-2.652574">
        <ele>17.008</ele>
        <time>2019-06-15T18:44:41Z</time>
      </trkpt>
      <trkpt lat="43.347387" lon="-2.652612">
        <ele>16.217</ele>
        <time>2019-06-15T18:44:42Z</time>
      </trkpt>
      <trkpt lat="43.347253" lon="-2.652657">
        <ele>15.211</ele>
        <time>2019-06-15T18:44:43Z</time>
      </trkpt>
      <trkpt lat="43.347116" lon="-2.652713">
        <ele>14.110</ele>
        <time>2019-06-15T18:44:44Z</time>
      </trkpt>
      <trkpt lat="43.346966" lon="-2.652759">
        <ele>13.199</ele>
        <time>2019-06-15T18:44:45Z</time>
      </trkpt>
      <trkpt lat="43.346824" lon="-2.652803">
        <ele>12.278</ele>
        <time>2019-06-15T18:44:46Z</time>
      </trkpt>
      <trkpt lat="43.346695" lon="-2.652820">
        <ele>11.359</ele>
        <time>2019-06-15T18:44:47Z</time>
      </trkpt>
      <trkpt lat="43.346552" lon="-2.652875">
        <ele>10.958</ele>
        <time>2019-06-15T18:44:48Z</time>
      </trkpt>
      <trkpt lat="43.346407" lon="-2.652921">
        <ele>10.622</ele>
        <time>2019-06-15T18:44:49Z</time>
      </trkpt>
      <trkpt lat="43.346275" lon="-2.652957">
        <ele>10.211</ele>
        <time>2019-06-15T18:44:50Z</time>
      </trkpt>
      <trkpt lat="43.346132" lon="-2.653005">
        <ele>9.921</ele>
        <time>2019-06-15T18:44:51Z</time>
      </trkpt>
      <trkpt lat="43.345975" lon="-2.653052">
        <ele>10.003</ele>
        <time>2019-06-15T18:44:52Z</time>
      </trkpt>
      <trkpt lat="43.345824" lon="-2.653097">
        <ele>10.208</ele>
        <time>2019-06-15T18:44:53Z</time>
      </trkpt>
      <trkpt lat="43.345657" lon="-2.653154">
        <ele>10.674</ele>
        <time>2019-06-15T18:44:54Z</time>
      </trkpt>
      <trkpt lat="43.345492" lon="-2.653215">
        <ele>11.178</ele>
        <time>2019-06-15T18:44:55Z</time>
      </trkpt>
      <trkpt lat="43.345323" lon="-2.653265">
        <ele>11.537</ele>
        <time>2019-06-15T18:44:56Z</time>
      </trkpt>
      <trkpt lat="43.345159" lon="-2.653310">
        <ele>11.066</ele>
        <time>2019-06-15T18:44:57Z</time>
      </trkpt>
      <trkpt lat="43.344995" lon="-2.653373">
        <ele>10.225</ele>
        <time>2019-06-15T18:44:58Z</time>
      </trkpt>
      <trkpt lat="43.344831" lon="-2.653426">
        <ele>9.286</ele>
        <time>2019-06-15T18:44:59Z</time>
      </trkpt>
      <trkpt lat="43.344656" lon="-2.653484">
        <ele>8.165</ele>
        <time>2019-06-15T18:45:00Z</time>
      </trkpt>
      <trkpt lat="43.344488" lon="-2.653537">
        <ele>7.049</ele>
        <time>2019-06-15T18:45:01Z</time>
      </trkpt>
      <trkpt lat="43.344313" lon="-2.653594">
        <ele>6.081</ele>
        <time>2019-06-15T18:45:02Z</time>
      </trkpt>
      <trkpt lat="43.344134" lon="-2.653656">
        <ele>4.961</ele>
        <time>2019-06-15T18:45:03Z</time>
      </trkpt>
      <trkpt lat="43.343956" lon="-2.653717">
        <ele>4.217</ele>
        <time>2019-06-15T18:45:04Z</time>
      </trkpt>
      <trkpt lat="43.343774" lon="-2.653779">
        <ele>3.608</ele>
        <time>2019-06-15T18:45:05Z</time>
      </trkpt>
      <trkpt lat="43.343617" lon="-2.653827">
        <ele>3.071</ele>
        <time>2019-06-15T18:45:06Z</time>
      </trkpt>
      <trkpt lat="43.343450" lon="-2.653890">
        <ele>3.045</ele>
        <time>2019-06-15T18:45:07Z</time>
      </trkpt>
      <trkpt lat="43.343282" lon="-2.653927">
        <ele>2.974</ele>
        <time>2019-06-15T18:45:08Z</time>
      </trkpt>
      <trkpt lat="43.343103" lon="-2.653980">
        <ele>2.753</ele>
        <time>2019-06-15T18:45:09Z</time>
      </trkpt>
      <trkpt lat="43.342922" lon="-2.654042">
        <ele>2.782</ele>
        <time>2019-06-15T18:45:10Z</time>
      </trkpt>
      <trkpt lat="43.342747" lon="-2.654090">
        <ele>3.043</ele>
        <time>2019-06-15T18:45:11Z</time>
      </trkpt>
      <trkpt lat="43.342559" lon="-2.654151">
        <ele>3.032</ele>
        <time>2019-06-15T18:45:12Z</time>
      </trkpt>
      <trkpt lat="43.342381" lon="-2.654215">
        <ele>2.836</ele>
        <time>2019-06-15T18:45:13Z</time>
      </trkpt>
      <trkpt lat="43.342197" lon="-2.654280">
        <ele>2.724</ele>
        <time>2019-06-15T18:45:14Z</time>
      </trkpt>
      <trkpt lat="43.342019" lon="-2.654348">
        <ele>3.304</ele>
        <time>2019-06-15T18:45:15Z</time>
      </trkpt>
      <trkpt lat="43.341842" lon="-2.654408">
        <ele>4.114</ele>
        <time>2019-06-15T18:45:16Z</time>
      </trkpt>
      <trkpt lat="43.341669" lon="-2.654468">
        <ele>4.908</ele>
        <time>2019-06-15T18:45:17Z</time>
      </trkpt>
      <trkpt lat="43.341519" lon="-2.654534">
        <ele>4.555</ele>
        <time>2019-06-15T18:45:18Z</time>
      </trkpt>
      <trkpt lat="43.341358" lon="-2.654580">
        <ele>4.639</ele>
        <time>2019-06-15T18:45:19Z</time>
      </trkpt>
      <trkpt lat="43.341217" lon="-2.654616">
        <ele>5.278</ele>
        <time>2019-06-15T18:45:20Z</time>
      </trkpt>
      <trkpt lat="43.341073" lon="-2.654657">
        <ele>6.057</ele>
        <time>2019-06-15T18:45:21Z</time>
      </trkpt>
      <trkpt lat="43.340930" lon="-2.654683">
        <ele>6.856</ele>
        <time>2019-06-15T18:45:22Z</time>
      </trkpt>
      <trkpt lat="43.340796" lon="-2.654720">
        <ele>7.087</ele>
        <time>2019-06-15T18:45:23Z</time>
      </trkpt>
      <trkpt lat="43.340663" lon="-2.654759">
        <ele>6.936</ele>
        <time>2019-06-15T18:45:24Z</time>
      </trkpt>
      <trkpt lat="43.340538" lon="-2.654795">
        <ele>6.790</ele>
        <time>2019-06-15T18:45:25Z</time>
      </trkpt>
      <trkpt lat="43.340415" lon="-2.654811">
        <ele>6.225</ele>
        <time>2019-06-15T18:45:26Z</time>
      </trkpt>
      <trkpt lat="43.340286" lon="-2.654835">
        <ele>5.626</ele>
        <time>2019-06-15T18:45:27Z</time>
      </trkpt>
      <trkpt lat="43.340155" lon="-2.654876">
        <ele>5.208</ele>
        <time>2019-06-15T18:45:28Z</time>
      </trkpt>
      <trkpt lat="43.340027" lon="-2.654912">
        <ele>5.008</ele>
        <time>2019-06-15T18:45:29Z</time>
      </trkpt>
      <trkpt lat="43.339909" lon="-2.654947">
        <ele>4.785</ele>
        <time>2019-06-15T18:45:30Z</time>
      </trkpt>
      <trkpt lat="43.339800" lon="-2.654983">
        <ele>4.339</ele>
        <time>2019-06-15T18:45:31Z</time>
      </trkpt>
      <trkpt lat="43.339696" lon="-2.655033">
        <ele>4.158</ele>
        <time>2019-06-15T18:45:32Z</time>
      </trkpt>
      <trkpt lat="43.339600" lon="-2.655083">
        <ele>4.227</ele>
        <time>2019-06-15T18:45:33Z</time>
      </trkpt>
      <trkpt lat="43.339512" lon="-2.655132">
        <ele>4.116</ele>
        <time>2019-06-15T18:45:34Z</time>
      </trkpt>
      <trkpt lat="43.339417" lon="-2.655160">
        <ele>4.077</ele>
        <time>2019-06-15T18:45:35Z</time>
      </trkpt>
      <trkpt lat="43.339315" lon="-2.655163">
        <ele>4.086</ele>
        <time>2019-06-15T18:45:36Z</time>
      </trkpt>
      <trkpt lat="43.339213" lon="-2.655149">
        <ele>4.010</ele>
        <time>2019-06-15T18:45:37Z</time>
      </trkpt>
      <trkpt lat="43.339089" lon="-2.655140">
        <ele>4.069</ele>
        <time>2019-06-15T18:45:38Z</time>
      </trkpt>
      <trkpt lat="43.338971" lon="-2.655131">
        <ele>4.004</ele>
        <time>2019-06-15T18:45:39Z</time>
      </trkpt>
      <trkpt lat="43.338797" lon="-2.655191">
        <ele>4.024</ele>
        <time>2019-06-15T18:45:40Z</time>
      </trkpt>
      <trkpt lat="43.338641" lon="-2.655221">
        <ele>4.008</ele>
        <time>2019-06-15T18:45:41Z</time>
      </trkpt>
      <trkpt lat="43.338476" lon="-2.655253">
        <ele>4.029</ele>
        <time>2019-06-15T18:45:42Z</time>
      </trkpt>
      <trkpt lat="43.338299" lon="-2.655286">
        <ele>4.273</ele>
        <time>2019-06-15T18:45:43Z</time>
      </trkpt>
      <trkpt lat="43.338128" lon="-2.655309">
        <ele>5.542</ele>
        <time>2019-06-15T18:45:44Z</time>
      </trkpt>
      <trkpt lat="43.337929" lon="-2.655324">
        <ele>7.361</ele>
        <time>2019-06-15T18:45:45Z</time>
      </trkpt>
      <trkpt lat="43.337749" lon="-2.655326">
        <ele>9.460</ele>
        <time>2019-06-15T18:45:46Z</time>
      </trkpt>
      <trkpt lat="43.337546" lon="-2.655295">
        <ele>11.921</ele>
        <time>2019-06-15T18:45:47Z</time>
      </trkpt>
      <trkpt lat="43.337359" lon="-2.655236">
        <ele>13.760</ele>
        <time>2019-06-15T18:45:48Z</time>
      </trkpt>
      <trkpt lat="43.337170" lon="-2.655186">
        <ele>16.374</ele>
        <time>2019-06-15T18:45:49Z</time>
      </trkpt>
      <trkpt lat="43.336989" lon="-2.655141">
        <ele>19.212</ele>
        <time>2019-06-15T18:45:50Z</time>
      </trkpt>
      <trkpt lat="43.336807" lon="-2.655080">
        <ele>19.932</ele>
        <time>2019-06-15T18:45:51Z</time>
      </trkpt>
      <trkpt lat="43.336622" lon="-2.655021">
        <ele>20.705</ele>
        <time>2019-06-15T18:45:52Z</time>
      </trkpt>
      <trkpt lat="43.336442" lon="-2.654937">
        <ele>22.808</ele>
        <time>2019-06-15T18:45:53Z</time>
      </trkpt>
      <trkpt lat="43.336282" lon="-2.654856">
        <ele>24.514</ele>
        <time>2019-06-15T18:45:54Z</time>
      </trkpt>
      <trkpt lat="43.336113" lon="-2.654799">
        <ele>26.258</ele>
        <time>2019-06-15T18:45:55Z</time>
      </trkpt>
      <trkpt lat="43.335939" lon="-2.654733">
        <ele>26.287</ele>
        <time>2019-06-15T18:45:56Z</time>
      </trkpt>
      <trkpt lat="43.335774" lon="-2.654676">
        <ele>26.976</ele>
        <time>2019-06-15T18:45:57Z</time>
      </trkpt>
      <trkpt lat="43.335613" lon="-2.654666">
        <ele>28.035</ele>
        <time>2019-06-15T18:45:58Z</time>
      </trkpt>
      <trkpt lat="43.335441" lon="-2.654710">
        <ele>28.956</ele>
        <time>2019-06-15T18:45:59Z</time>
      </trkpt>
      <trkpt lat="43.335280" lon="-2.654787">
        <ele>31.125</ele>
        <time>2019-06-15T18:46:00Z</time>
      </trkpt>
      <trkpt lat="43.335122" lon="-2.654898">
        <ele>32.499</ele>
        <time>2019-06-15T18:46:01Z</time>
      </trkpt>
      <trkpt lat="43.335018" lon="-2.655064">
        <ele>32.272</ele>
        <time>2019-06-15T18:46:02Z</time>
      </trkpt>
      <trkpt lat="43.334894" lon="-2.655268">
        <ele>33.513</ele>
        <time>2019-06-15T18:46:03Z</time>
      </trkpt>
      <trkpt lat="43.334765" lon="-2.655446">
        <ele>35.014</ele>
        <time>2019-06-15T18:46:04Z</time>
      </trkpt>
      <trkpt lat="43.334631" lon="-2.655619">
        <ele>36.908</ele>
        <time>2019-06-15T18:46:05Z</time>
      </trkpt>
      <trkpt lat="43.334492" lon="-2.655783">
        <ele>39.370</ele>
        <time>2019-06-15T18:46:06Z</time>
      </trkpt>
      <trkpt lat="43.334363" lon="-2.655955">
        <ele>41.264</ele>
        <time>2019-06-15T18:46:07Z</time>
      </trkpt>
      <trkpt lat="43.334229" lon="-2.656119">
        <ele>41.213</ele>
        <time>2019-06-15T18:46:08Z</time>
      </trkpt>
      <trkpt lat="43.334088" lon="-2.656274">
        <ele>41.262</ele>
        <time>2019-06-15T18:46:09Z</time>
      </trkpt>
      <trkpt lat="43.333951" lon="-2.656425">
        <ele>43.071</ele>
        <time>2019-06-15T18:46:10Z</time>
      </trkpt>
      <trkpt lat="43.333794" lon="-2.656551">
        <ele>45.032</ele>
        <time>2019-06-15T18:46:11Z</time>
      </trkpt>
      <trkpt lat="43.333631" lon="-2.656648">
        <ele>45.831</ele>
        <time>2019-06-15T18:46:12Z</time>
      </trkpt>
      <trkpt lat="43.333467" lon="-2.656725">
        <ele>46.895</ele>
        <time>2019-06-15T18:46:13Z</time>
      </trkpt>
      <trkpt lat="43.333306" lon="-2.656789">
        <ele>48.095</ele>
        <time>2019-06-15T18:46:14Z</time>
      </trkpt>
      <trkpt lat="43.333155" lon="-2.656848">
        <ele>50.149</ele>
        <time>2019-06-15T18:46:15Z</time>
      </trkpt>
      <trkpt lat="43.333023" lon="-2.656909">
        <ele>51.523</ele>
        <time>2019-06-15T18:46:16Z</time>
      </trkpt>
      <trkpt lat="43.332896" lon="-2.656964">
        <ele>51.608</ele>
        <time>2019-06-15T18:46:17Z</time>
      </trkpt>
      <trkpt lat="43.332774" lon="-2.657029">
        <ele>51.982</ele>
        <time>2019-06-15T18:46:18Z</time>
      </trkpt>
      <trkpt lat="43.332651" lon="-2.657116">
        <ele>52.536</ele>
        <time>2019-06-15T18:46:19Z</time>
      </trkpt>
      <trkpt lat="43.332525" lon="-2.657230">
        <ele>52.265</ele>
        <time>2019-06-15T18:46:20Z</time>
      </trkpt>
      <trkpt lat="43.332378" lon="-2.657350">
        <ele>50.914</ele>
        <time>2019-06-15T18:46:21Z</time>
      </trkpt>
      <trkpt lat="43.332222" lon="-2.657503">
        <ele>49.093</ele>
        <time>2019-06-15T18:46:22Z</time>
      </trkpt>
      <trkpt lat="43.332049" lon="-2.657654">
        <ele>47.364</ele>
        <time>2019-06-15T18:46:23Z</time>
      </trkpt>
      <trkpt lat="43.331876" lon="-2.657806">
        <ele>45.723</ele>
        <time>2019-06-15T18:46:24Z</time>
      </trkpt>
      <trkpt lat="43.331694" lon="-2.657979">
        <ele>44.527</ele>
        <time>2019-06-15T18:46:25Z</time>
      </trkpt>
      <trkpt lat="43.331508" lon="-2.658152">
        <ele>43.069</ele>
        <time>2019-06-15T18:46:26Z</time>
      </trkpt>
      <trkpt lat="43.331327" lon="-2.658336">
        <ele>41.204</ele>
        <time>2019-06-15T18:46:27Z</time>
      </trkpt>
      <trkpt lat="43.331136" lon="-2.658521">
        <ele>39.324</ele>
        <time>2019-06-15T18:46:28Z</time>
      </trkpt>
      <trkpt lat="43.330952" lon="-2.658716">
        <ele>37.808</ele>
        <time>2019-06-15T18:46:29Z</time>
      </trkpt>
      <trkpt lat="43.330762" lon="-2.658894">
        <ele>36.779</ele>
        <time>2019-06-15T18:46:30Z</time>
      </trkpt>
      <trkpt lat="43.330586" lon="-2.659082">
        <ele>35.943</ele>
        <time>2019-06-15T18:46:31Z</time>
      </trkpt>
      <trkpt lat="43.330415" lon="-2.659252">
        <ele>35.922</ele>
        <time>2019-06-15T18:46:32Z</time>
      </trkpt>
      <trkpt lat="43.330243" lon="-2.659411">
        <ele>35.981</ele>
        <time>2019-06-15T18:46:33Z</time>
      </trkpt>
      <trkpt lat="43.330078" lon="-2.659560">
        <ele>36.370</ele>
        <time>2019-06-15T18:46:34Z</time>
      </trkpt>
      <trkpt lat="43.329924" lon="-2.659693">
        <ele>36.551</ele>
        <time>2019-06-15T18:46:35Z</time>
      </trkpt>
      <trkpt lat="43.329785" lon="-2.659832">
        <ele>37.330</ele>
        <time>2019-06-15T18:46:36Z</time>
      </trkpt>
      <trkpt lat="43.329650" lon="-2.659967">
        <ele>38.054</ele>
        <time>2019-06-15T18:46:37Z</time>
      </trkpt>
      <trkpt lat="43.329540" lon="-2.660112">
        <ele>38.828</ele>
        <time>2019-06-15T18:46:38Z</time>
      </trkpt>
      <trkpt lat="43.329440" lon="-2.660248">
        <ele>40.089</ele>
        <time>2019-06-15T18:46:39Z</time>
      </trkpt>
      <trkpt lat="43.329349" lon="-2.660395">
        <ele>40.617</ele>
        <time>2019-06-15T18:46:40Z</time>
      </trkpt>
      <trkpt lat="43.329258" lon="-2.660537">
        <ele>40.608</ele>
        <time>2019-06-15T18:46:41Z</time>
      </trkpt>
      <trkpt lat="43.329181" lon="-2.660682">
        <ele>41.065</ele>
        <time>2019-06-15T18:46:42Z</time>
      </trkpt>
      <trkpt lat="43.329131" lon="-2.660805">
        <ele>40.959</ele>
        <time>2019-06-15T18:46:43Z</time>
      </trkpt>
      <trkpt lat="43.329047" lon="-2.660965">
        <ele>40.438</ele>
        <time>2019-06-15T18:46:44Z</time>
      </trkpt>
      <trkpt lat="43.328965" lon="-2.661133">
        <ele>40.137</ele>
        <time>2019-06-15T18:46:45Z</time>
      </trkpt>
      <trkpt lat="43.328880" lon="-2.661305">
        <ele>39.886</ele>
        <time>2019-06-15T18:46:46Z</time>
      </trkpt>
      <trkpt lat="43.328792" lon="-2.661473">
        <ele>38.137</ele>
        <time>2019-06-15T18:46:47Z</time>
      </trkpt>
      <trkpt lat="43.328712" lon="-2.661662">
        <ele>36.636</ele>
        <time>2019-06-15T18:46:48Z</time>
      </trkpt>
      <trkpt lat="43.328637" lon="-2.661883">
        <ele>34.670</ele>
        <time>2019-06-15T18:46:49Z</time>
      </trkpt>
      <trkpt lat="43.328547" lon="-2.662112">
        <ele>31.073</ele>
        <time>2019-06-15T18:46:50Z</time>
      </trkpt>
      <trkpt lat="43.328465" lon="-2.662347">
        <ele>30.085</ele>
        <time>2019-06-15T18:46:51Z</time>
      </trkpt>
      <trkpt lat="43.328360" lon="-2.662618">
        <ele>28.213</ele>
        <time>2019-06-15T18:46:52Z</time>
      </trkpt>
      <trkpt lat="43.328282" lon="-2.662888">
        <ele>26.108</ele>
        <time>2019-06-15T18:46:53Z</time>
      </trkpt>
      <trkpt lat="43.328195" lon="-2.663160">
        <ele>24.560</ele>
        <time>2019-06-15T18:46:54Z</time>
      </trkpt>
      <trkpt lat="43.328115" lon="-2.663433">
        <ele>23.064</ele>
        <time>2019-06-15T18:46:55Z</time>
      </trkpt>
      <trkpt lat="43.328023" lon="-2.663721">
        <ele>21.473</ele>
        <time>2019-06-15T18:46:56Z</time>
      </trkpt>
      <trkpt lat="43.327945" lon="-2.663988">
        <ele>20.142</ele>
        <time>2019-06-15T18:46:57Z</time>
      </trkpt>
      <trkpt lat="43.327865" lon="-2.664268">
        <ele>17.891</ele>
        <time>2019-06-15T18:46:58Z</time>
      </trkpt>
      <trkpt lat="43.327783" lon="-2.664543">
        <ele>15.752</ele>
        <time>2019-06-15T18:46:59Z</time>
      </trkpt>
      <trkpt lat="43.327707" lon="-2.664778">
        <ele>14.141</ele>
        <time>2019-06-15T18:47:00Z</time>
      </trkpt>
      <trkpt lat="43.327609" lon="-2.665016">
        <ele>12.785</ele>
        <time>2019-06-15T18:47:01Z</time>
      </trkpt>
      <trkpt lat="43.327496" lon="-2.665239">
        <ele>11.961</ele>
        <time>2019-06-15T18:47:02Z</time>
      </trkpt>
      <trkpt lat="43.327392" lon="-2.665429">
        <ele>9.521</ele>
        <time>2019-06-15T18:47:03Z</time>
      </trkpt>
      <trkpt lat="43.327262" lon="-2.665635">
        <ele>9.113</ele>
        <time>2019-06-15T18:47:04Z</time>
      </trkpt>
      <trkpt lat="43.327113" lon="-2.665784">
        <ele>9.708</ele>
        <time>2019-06-15T18:47:05Z</time>
      </trkpt>
      <trkpt lat="43.326965" lon="-2.665960">
        <ele>12.549</ele>
        <time>2019-06-15T18:47:06Z</time>
      </trkpt>
      <trkpt lat="43.326812" lon="-2.666094">
        <ele>14.093</ele>
        <time>2019-06-15T18:47:07Z</time>
      </trkpt>
      <trkpt lat="43.326670" lon="-2.666218">
        <ele>14.462</ele>
        <time>2019-06-15T18:47:08Z</time>
      </trkpt>
      <trkpt lat="43.326526" lon="-2.666346">
        <ele>15.151</ele>
        <time>2019-06-15T18:47:09Z</time>
      </trkpt>
      <trkpt lat="43.326378" lon="-2.666436">
        <ele>15.010</ele>
        <time>2019-06-15T18:47:10Z</time>
      </trkpt>
      <trkpt lat="43.326239" lon="-2.666506">
        <ele>15.311</ele>
        <time>2019-06-15T18:47:11Z</time>
      </trkpt>
      <trkpt lat="43.326103" lon="-2.666572">
        <ele>15.470</ele>
        <time>2019-06-15T18:47:12Z</time>
      </trkpt>
      <trkpt lat="43.326000" lon="-2.666605">
        <ele>15.384</ele>
        <time>2019-06-15T18:47:13Z</time>
      </trkpt>
      <trkpt lat="43.325882" lon="-2.666656">
        <ele>15.178</ele>
        <time>2019-06-15T18:47:14Z</time>
      </trkpt>
      <trkpt lat="43.325756" lon="-2.666707">
        <ele>14.933</ele>
        <time>2019-06-15T18:47:15Z</time>
      </trkpt>
      <trkpt lat="43.325646" lon="-2.666753">
        <ele>14.726</ele>
        <time>2019-06-15T18:47:16Z</time>
      </trkpt>
      <trkpt lat="43.325543" lon="-2.666805">
        <ele>14.508</ele>
        <time>2019-06-15T18:47:17Z</time>
      </trkpt>
      <trkpt lat="43.325438" lon="-2.666858">
        <ele>14.380</ele>
        <time>2019-06-15T18:47:18Z</time>
      </trkpt>
      <trkpt lat="43.325337" lon="-2.666909">
        <ele>14.164</ele>
        <time>2019-06-15T18:47:19Z</time>
      </trkpt>
      <trkpt lat="43.325241" lon="-2.666959">
        <ele>14.043</ele>
        <time>2019-06-15T18:47:20Z</time>
      </trkpt>
      <trkpt lat="43.325143" lon="-2.666999">
        <ele>14.092</ele>
        <time>2019-06-15T18:47:21Z</time>
      </trkpt>
      <trkpt lat="43.325052" lon="-2.667045">
        <ele>14.071</ele>
        <time>2019-06-15T18:47:22Z</time>
      </trkpt>
      <trkpt lat="43.324978" lon="-2.667083">
        <ele>14.022</ele>
        <time>2019-06-15T18:47:23Z</time>
      </trkpt>
      <trkpt lat="43.324895" lon="-2.667132">
        <ele>14.091</ele>
        <time>2019-06-15T18:47:24Z</time>
      </trkpt>
      <trkpt lat="43.324806" lon="-2.667181">
        <ele>14.065</ele>
        <time>2019-06-15T18:47:25Z</time>
      </trkpt>
      <trkpt lat="43.324722" lon="-2.667244">
        <ele>14.021</ele>
        <time>2019-06-15T18:47:26Z</time>
      </trkpt>
      <trkpt lat="43.324644" lon="-2.667341">
        <ele>13.941</ele>
        <time>2019-06-15T18:47:27Z</time>
      </trkpt>
      <trkpt lat="43.324563" lon="-2.667430">
        <ele>13.605</ele>
        <time>2019-06-15T18:47:28Z</time>
      </trkpt>
      <trkpt lat="43.324480" lon="-2.667509">
        <ele>13.108</ele>
        <time>2019-06-15T18:47:29Z</time>
      </trkpt>
      <trkpt lat="43.324384" lon="-2.667583">
        <ele>12.925</ele>
        <time>2019-06-15T18:47:30Z</time>
      </trkpt>
      <trkpt lat="43.324287" lon="-2.667678">
        <ele>12.649</ele>
        <time>2019-06-15T18:47:31Z</time>
      </trkpt>
      <trkpt lat="43.324178" lon="-2.667763">
        <ele>12.158</ele>
        <time>2019-06-15T18:47:32Z</time>
      </trkpt>
      <trkpt lat="43.324070" lon="-2.667870">
        <ele>11.427</ele>
        <time>2019-06-15T18:47:33Z</time>
      </trkpt>
      <trkpt lat="43.323963" lon="-2.667976">
        <ele>10.276</ele>
        <time>2019-06-15T18:47:34Z</time>
      </trkpt>
      <trkpt lat="43.323856" lon="-2.668080">
        <ele>8.717</ele>
        <time>2019-06-15T18:47:35Z</time>
      </trkpt>
      <trkpt lat="43.323738" lon="-2.668188">
        <ele>7.476</ele>
        <time>2019-06-15T18:47:36Z</time>
      </trkpt>
      <trkpt lat="43.323621" lon="-2.668301">
        <ele>6.220</ele>
        <time>2019-06-15T18:47:37Z</time>
      </trkpt>
      <trkpt lat="43.323507" lon="-2.668409">
        <ele>5.651</ele>
        <time>2019-06-15T18:47:38Z</time>
      </trkpt>
      <trkpt lat="43.323386" lon="-2.668499">
        <ele>5.301</ele>
        <time>2019-06-15T18:47:39Z</time>
      </trkpt>
      <trkpt lat="43.323268" lon="-2.668578">
        <ele>5.311</ele>
        <time>2019-06-15T18:47:40Z</time>
      </trkpt>
      <trkpt lat="43.323160" lon="-2.668667">
        <ele>5.408</ele>
        <time>2019-06-15T18:47:41Z</time>
      </trkpt>
      <trkpt lat="43.323070" lon="-2.668744">
        <ele>5.568</ele>
        <time>2019-06-15T18:47:42Z</time>
      </trkpt>
      <trkpt lat="43.322979" lon="-2.668835">
        <ele>5.412</ele>
        <time>2019-06-15T18:47:43Z</time>
      </trkpt>
      <trkpt lat="43.322895" lon="-2.668932">
        <ele>5.461</ele>
        <time>2019-06-15T18:47:44Z</time>
      </trkpt>
      <trkpt lat="43.322808" lon="-2.669042">
        <ele>5.320</ele>
        <time>2019-06-15T18:47:45Z</time>
      </trkpt>
      <trkpt lat="43.322719" lon="-2.669162">
        <ele>5.439</ele>
        <time>2019-06-15T18:47:46Z</time>
      </trkpt>
      <trkpt lat="43.322622" lon="-2.669287">
        <ele>5.460</ele>
        <time>2019-06-15T18:47:47Z</time>
      </trkpt>
      <trkpt lat="43.322515" lon="-2.669427">
        <ele>5.179</ele>
        <time>2019-06-15T18:47:48Z</time>
      </trkpt>
      <trkpt lat="43.322395" lon="-2.669563">
        <ele>4.793</ele>
        <time>2019-06-15T18:47:49Z</time>
      </trkpt>
      <trkpt lat="43.322261" lon="-2.669701">
        <ele>4.974</ele>
        <time>2019-06-15T18:47:50Z</time>
      </trkpt>
      <trkpt lat="43.322119" lon="-2.669845">
        <ele>4.856</ele>
        <time>2019-06-15T18:47:51Z</time>
      </trkpt>
      <trkpt lat="43.321971" lon="-2.669989">
        <ele>4.121</ele>
        <time>2019-06-15T18:47:52Z</time>
      </trkpt>
      <trkpt lat="43.321828" lon="-2.670133">
        <ele>4.408</ele>
        <time>2019-06-15T18:47:53Z</time>
      </trkpt>
      <trkpt lat="43.321692" lon="-2.670274">
        <ele>4.920</ele>
        <time>2019-06-15T18:47:54Z</time>
      </trkpt>
      <trkpt lat="43.321568" lon="-2.670424">
        <ele>4.714</ele>
        <time>2019-06-15T18:47:55Z</time>
      </trkpt>
      <trkpt lat="43.321438" lon="-2.670554">
        <ele>4.883</ele>
        <time>2019-06-15T18:47:56Z</time>
      </trkpt>
      <trkpt lat="43.321309" lon="-2.670685">
        <ele>4.512</ele>
        <time>2019-06-15T18:47:57Z</time>
      </trkpt>
      <trkpt lat="43.321179" lon="-2.670809">
        <ele>4.741</ele>
        <time>2019-06-15T18:47:58Z</time>
      </trkpt>
      <trkpt lat="43.321061" lon="-2.670933">
        <ele>4.932</ele>
        <time>2019-06-15T18:47:59Z</time>
      </trkpt>
      <trkpt lat="43.320934" lon="-2.671058">
        <ele>4.971</ele>
        <time>2019-06-15T18:48:00Z</time>
      </trkpt>
      <trkpt lat="43.320810" lon="-2.671184">
        <ele>5.055</ele>
        <time>2019-06-15T18:48:01Z</time>
      </trkpt>
      <trkpt lat="43.320676" lon="-2.671337">
        <ele>4.573</ele>
        <time>2019-06-15T18:48:02Z</time>
      </trkpt>
      <trkpt lat="43.320551" lon="-2.671498">
        <ele>4.085</ele>
        <time>2019-06-15T18:48:03Z</time>
      </trkpt>
      <trkpt lat="43.320428" lon="-2.671665">
        <ele>4.013</ele>
        <time>2019-06-15T18:48:04Z</time>
      </trkpt>
      <trkpt lat="43.320344" lon="-2.671857">
        <ele>4.008</ele>
        <time>2019-06-15T18:48:05Z</time>
      </trkpt>
      <trkpt lat="43.320263" lon="-2.672033">
        <ele>3.790</ele>
        <time>2019-06-15T18:48:06Z</time>
      </trkpt>
      <trkpt lat="43.320202" lon="-2.672196">
        <ele>3.164</ele>
        <time>2019-06-15T18:48:07Z</time>
      </trkpt>
      <trkpt lat="43.320168" lon="-2.672348">
        <ele>3.073</ele>
        <time>2019-06-15T18:48:08Z</time>
      </trkpt>
      <trkpt lat="43.320129" lon="-2.672518">
        <ele>3.052</ele>
        <time>2019-06-15T18:48:09Z</time>
      </trkpt>
      <trkpt lat="43.320091" lon="-2.672683">
        <ele>3.031</ele>
        <time>2019-06-15T18:48:10Z</time>
      </trkpt>
      <trkpt lat="43.320043" lon="-2.672863">
        <ele>3.012</ele>
        <time>2019-06-15T18:48:11Z</time>
      </trkpt>
      <trkpt lat="43.319997" lon="-2.673049">
        <ele>3.071</ele>
        <time>2019-06-15T18:48:12Z</time>
      </trkpt>
      <trkpt lat="43.319969" lon="-2.673300">
        <ele>3.045</ele>
        <time>2019-06-15T18:48:13Z</time>
      </trkpt>
      <trkpt lat="43.319947" lon="-2.673542">
        <ele>3.074</ele>
        <time>2019-06-15T18:48:14Z</time>
      </trkpt>
      <trkpt lat="43.319940" lon="-2.673787">
        <ele>3.156</ele>
        <time>2019-06-15T18:48:15Z</time>
      </trkpt>
      <trkpt lat="43.319929" lon="-2.674054">
        <ele>3.121</ele>
        <time>2019-06-15T18:48:16Z</time>
      </trkpt>
      <trkpt lat="43.319932" lon="-2.674314">
        <ele>3.008</ele>
        <time>2019-06-15T18:48:17Z</time>
      </trkpt>
      <trkpt lat="43.319958" lon="-2.674570">
        <ele>3.550</ele>
        <time>2019-06-15T18:48:18Z</time>
      </trkpt>
      <trkpt lat="43.319996" lon="-2.674819">
        <ele>3.764</ele>
        <time>2019-06-15T18:48:19Z</time>
      </trkpt>
      <trkpt lat="43.320040" lon="-2.675056">
        <ele>3.413</ele>
        <time>2019-06-15T18:48:20Z</time>
      </trkpt>
      <trkpt lat="43.320087" lon="-2.675317">
        <ele>3.822</ele>
        <time>2019-06-15T18:48:21Z</time>
      </trkpt>
      <trkpt lat="43.320135" lon="-2.675565">
        <ele>2.561</ele>
        <time>2019-06-15T18:48:22Z</time>
      </trkpt>
      <trkpt lat="43.320187" lon="-2.675808">
        <ele>3.552</ele>
        <time>2019-06-15T18:48:23Z</time>
      </trkpt>
      <trkpt lat="43.320241" lon="-2.676044">
        <ele>3.311</ele>
        <time>2019-06-15T18:48:24Z</time>
      </trkpt>
      <trkpt lat="43.320292" lon="-2.676264">
        <ele>3.055</ele>
        <time>2019-06-15T18:48:25Z</time>
      </trkpt>
      <trkpt lat="43.320333" lon="-2.676480">
        <ele>2.934</ele>
        <time>2019-06-15T18:48:26Z</time>
      </trkpt>
      <trkpt lat="43.320374" lon="-2.676692">
        <ele>3.055</ele>
        <time>2019-06-15T18:48:27Z</time>
      </trkpt>
      <trkpt lat="43.320413" lon="-2.676891">
        <ele>3.010</ele>
        <time>2019-06-15T18:48:28Z</time>
      </trkpt>
      <trkpt lat="43.320455" lon="-2.677072">
        <ele>3.008</ele>
        <time>2019-06-15T18:48:29Z</time>
      </trkpt>
      <trkpt lat="43.320486" lon="-2.677213">
        <ele>3.036</ele>
        <time>2019-06-15T18:48:30Z</time>
      </trkpt>
      <trkpt lat="43.320528" lon="-2.677341">
        <ele>2.620</ele>
        <time>2019-06-15T18:48:31Z</time>
      </trkpt>
      <trkpt lat="43.320573" lon="-2.677457">
        <ele>2.279</ele>
        <time>2019-06-15T18:48:32Z</time>
      </trkpt>
      <trkpt lat="43.320618" lon="-2.677581">
        <ele>2.658</ele>
        <time>2019-06-15T18:48:33Z</time>
      </trkpt>
      <trkpt lat="43.320671" lon="-2.677683">
        <ele>3.347</ele>
        <time>2019-06-15T18:48:34Z</time>
      </trkpt>
      <trkpt lat="43.320735" lon="-2.677786">
        <ele>4.028</ele>
        <time>2019-06-15T18:48:35Z</time>
      </trkpt>
      <trkpt lat="43.320799" lon="-2.677888">
        <ele>4.467</ele>
        <time>2019-06-15T18:48:36Z</time>
      </trkpt>
      <trkpt lat="43.320858" lon="-2.678002">
        <ele>4.671</ele>
        <time>2019-06-15T18:48:37Z</time>
      </trkpt>
      <trkpt lat="43.320925" lon="-2.678108">
        <ele>4.368</ele>
        <time>2019-06-15T18:48:38Z</time>
      </trkpt>
      <trkpt lat="43.321004" lon="-2.678211">
        <ele>3.942</ele>
        <time>2019-06-15T18:48:39Z</time>
      </trkpt>
      <trkpt lat="43.321103" lon="-2.678293">
        <ele>3.926</ele>
        <time>2019-06-15T18:48:40Z</time>
      </trkpt>
      <trkpt lat="43.321226" lon="-2.678332">
        <ele>4.008</ele>
        <time>2019-06-15T18:48:41Z</time>
      </trkpt>
      <trkpt lat="43.321359" lon="-2.678343">
        <ele>4.079</ele>
        <time>2019-06-15T18:48:42Z</time>
      </trkpt>
      <trkpt lat="43.321476" lon="-2.678337">
        <ele>4.033</ele>
        <time>2019-06-15T18:48:43Z</time>
      </trkpt>
      <trkpt lat="43.321593" lon="-2.678326">
        <ele>4.032</ele>
        <time>2019-06-15T18:48:44Z</time>
      </trkpt>
      <trkpt lat="43.321722" lon="-2.678319">
        <ele>3.911</ele>
        <time>2019-06-15T18:48:45Z</time>
      </trkpt>
      <trkpt lat="43.321840" lon="-2.678284">
        <ele>3.850</ele>
        <time>2019-06-15T18:48:46Z</time>
      </trkpt>
      <trkpt lat="43.321975" lon="-2.678284">
        <ele>3.861</ele>
        <time>2019-06-15T18:48:47Z</time>
      </trkpt>
      <trkpt lat="43.322098" lon="-2.678279">
        <ele>3.830</ele>
        <time>2019-06-15T18:48:48Z</time>
      </trkpt>
      <trkpt lat="43.322241" lon="-2.678280">
        <ele>3.884</ele>
        <time>2019-06-15T18:48:49Z</time>
      </trkpt>
      <trkpt lat="43.322358" lon="-2.678261">
        <ele>3.712</ele>
        <time>2019-06-15T18:48:50Z</time>
      </trkpt>
      <trkpt lat="43.322488" lon="-2.678245">
        <ele>3.732</ele>
        <time>2019-06-15T18:48:51Z</time>
      </trkpt>
      <trkpt lat="43.322627" lon="-2.678239">
        <ele>3.705</ele>
        <time>2019-06-15T18:48:52Z</time>
      </trkpt>
      <trkpt lat="43.322766" lon="-2.678217">
        <ele>3.608</ele>
        <time>2019-06-15T18:48:53Z</time>
      </trkpt>
      <trkpt lat="43.322906" lon="-2.678215">
        <ele>3.314</ele>
        <time>2019-06-15T18:48:54Z</time>
      </trkpt>
      <trkpt lat="43.323067" lon="-2.678187">
        <ele>3.048</ele>
        <time>2019-06-15T18:48:55Z</time>
      </trkpt>
      <trkpt lat="43.323227" lon="-2.678167">
        <ele>3.087</ele>
        <time>2019-06-15T18:48:56Z</time>
      </trkpt>
      <trkpt lat="43.323386" lon="-2.678133">
        <ele>3.216</ele>
        <time>2019-06-15T18:48:57Z</time>
      </trkpt>
      <trkpt lat="43.323520" lon="-2.678120">
        <ele>3.785</ele>
        <time>2019-06-15T18:48:58Z</time>
      </trkpt>
      <trkpt lat="43.323662" lon="-2.678106">
        <ele>4.036</ele>
        <time>2019-06-15T18:48:59Z</time>
      </trkpt>
      <trkpt lat="43.323790" lon="-2.678076">
        <ele>4.085</ele>
        <time>2019-06-15T18:49:00Z</time>
      </trkpt>
      <trkpt lat="43.323890" lon="-2.678049">
        <ele>4.079</ele>
        <time>2019-06-15T18:49:01Z</time>
      </trkpt>
      <trkpt lat="43.323986" lon="-2.678038">
        <ele>4.039</ele>
        <time>2019-06-15T18:49:02Z</time>
      </trkpt>
      <trkpt lat="43.324097" lon="-2.678037">
        <ele>4.001</ele>
        <time>2019-06-15T18:49:03Z</time>
      </trkpt>
      <trkpt lat="43.324209" lon="-2.678018">
        <ele>4.021</ele>
        <time>2019-06-15T18:49:04Z</time>
      </trkpt>
      <trkpt lat="43.324319" lon="-2.678005">
        <ele>4.008</ele>
        <time>2019-06-15T18:49:05Z</time>
      </trkpt>
      <trkpt lat="43.324412" lon="-2.677994">
        <ele>4.046</ele>
        <time>2019-06-15T18:49:06Z</time>
      </trkpt>
      <trkpt lat="43.324497" lon="-2.677987">
        <ele>4.080</ele>
        <time>2019-06-15T18:49:07Z</time>
      </trkpt>
      <trkpt lat="43.324569" lon="-2.677987">
        <ele>4.029</ele>
        <time>2019-06-15T18:49:08Z</time>
      </trkpt>
      <trkpt lat="43.324625" lon="-2.677997">
        <ele>4.028</ele>
        <time>2019-06-15T18:49:09Z</time>
      </trkpt>
      <trkpt lat="43.324692" lon="-2.677977">
        <ele>4.017</ele>
        <time>2019-06-15T18:49:10Z</time>
      </trkpt>
      <trkpt lat="43.324739" lon="-2.677972">
        <ele>4.098</ele>
        <time>2019-06-15T18:49:11Z</time>
      </trkpt>
      <trkpt lat="43.324794" lon="-2.677958">
        <ele>3.977</ele>
        <time>2019-06-15T18:49:13Z</time>
      </trkpt>
      <trkpt lat="43.324850" lon="-2.677933">
        <ele>3.861</ele>
        <time>2019-06-15T18:49:20Z</time>
      </trkpt>
      <trkpt lat="43.324905" lon="-2.677918">
        <ele>3.792</ele>
        <time>2019-06-15T18:49:21Z</time>
      </trkpt>
      <trkpt lat="43.324971" lon="-2.677899">
        <ele>3.573</ele>
        <time>2019-06-15T18:49:22Z</time>
      </trkpt>
      <trkpt lat="43.325074" lon="-2.677880">
        <ele>3.520</ele>
        <time>2019-06-15T18:49:23Z</time>
      </trkpt>
      <trkpt lat="43.325182" lon="-2.677862">
        <ele>3.808</ele>
        <time>2019-06-15T18:49:24Z</time>
      </trkpt>
      <trkpt lat="43.325308" lon="-2.677847">
        <ele>4.042</ele>
        <time>2019-06-15T18:49:25Z</time>
      </trkpt>
      <trkpt lat="43.325448" lon="-2.677834">
        <ele>4.076</ele>
        <time>2019-06-15T18:49:26Z</time>
      </trkpt>
      <trkpt lat="43.325603" lon="-2.677822">
        <ele>4.085</ele>
        <time>2019-06-15T18:49:27Z</time>
      </trkpt>
      <trkpt lat="43.325766" lon="-2.677802">
        <ele>4.084</ele>
        <time>2019-06-15T18:49:28Z</time>
      </trkpt>
      <trkpt lat="43.325934" lon="-2.677780">
        <ele>4.023</ele>
        <time>2019-06-15T18:49:29Z</time>
      </trkpt>
      <trkpt lat="43.326113" lon="-2.677758">
        <ele>4.094</ele>
        <time>2019-06-15T18:49:30Z</time>
      </trkpt>
      <trkpt lat="43.326300" lon="-2.677744">
        <ele>3.933</ele>
        <time>2019-06-15T18:49:31Z</time>
      </trkpt>
      <trkpt lat="43.326495" lon="-2.677718">
        <ele>3.977</ele>
        <time>2019-06-15T18:49:32Z</time>
      </trkpt>
      <trkpt lat="43.326695" lon="-2.677681">
        <ele>4.129</ele>
        <time>2019-06-15T18:49:33Z</time>
      </trkpt>
      <trkpt lat="43.326897" lon="-2.677650">
        <ele>4.400</ele>
        <time>2019-06-15T18:49:34Z</time>
      </trkpt>
      <trkpt lat="43.327102" lon="-2.677629">
        <ele>5.320</ele>
        <time>2019-06-15T18:49:35Z</time>
      </trkpt>
      <trkpt lat="43.327309" lon="-2.677603">
        <ele>6.108</ele>
        <time>2019-06-15T18:49:36Z</time>
      </trkpt>
      <trkpt lat="43.327519" lon="-2.677576">
        <ele>6.715</ele>
        <time>2019-06-15T18:49:37Z</time>
      </trkpt>
      <trkpt lat="43.327721" lon="-2.677545">
        <ele>7.599</ele>
        <time>2019-06-15T18:49:38Z</time>
      </trkpt>
      <trkpt lat="43.327929" lon="-2.677517">
        <ele>8.068</ele>
        <time>2019-06-15T18:49:39Z</time>
      </trkpt>
      <trkpt lat="43.328136" lon="-2.677488">
        <ele>8.527</ele>
        <time>2019-06-15T18:49:40Z</time>
      </trkpt>
      <trkpt lat="43.328338" lon="-2.677456">
        <ele>9.466</ele>
        <time>2019-06-15T18:49:41Z</time>
      </trkpt>
      <trkpt lat="43.328544" lon="-2.677422">
        <ele>10.217</ele>
        <time>2019-06-15T18:49:42Z</time>
      </trkpt>
      <trkpt lat="43.328738" lon="-2.677397">
        <ele>10.136</ele>
        <time>2019-06-15T18:49:43Z</time>
      </trkpt>
      <trkpt lat="43.328951" lon="-2.677376">
        <ele>9.370</ele>
        <time>2019-06-15T18:49:44Z</time>
      </trkpt>
      <trkpt lat="43.329142" lon="-2.677356">
        <ele>7.649</ele>
        <time>2019-06-15T18:49:45Z</time>
      </trkpt>
      <trkpt lat="43.329325" lon="-2.677322">
        <ele>6.702</ele>
        <time>2019-06-15T18:49:46Z</time>
      </trkpt>
      <trkpt lat="43.329506" lon="-2.677296">
        <ele>5.922</ele>
        <time>2019-06-15T18:49:47Z</time>
      </trkpt>
      <trkpt lat="43.329691" lon="-2.677273">
        <ele>5.008</ele>
        <time>2019-06-15T18:49:48Z</time>
      </trkpt>
      <trkpt lat="43.329874" lon="-2.677248">
        <ele>5.067</ele>
        <time>2019-06-15T18:49:49Z</time>
      </trkpt>
      <trkpt lat="43.330045" lon="-2.677229">
        <ele>5.071</ele>
        <time>2019-06-15T18:49:50Z</time>
      </trkpt>
      <trkpt lat="43.330213" lon="-2.677214">
        <ele>5.020</ele>
        <time>2019-06-15T18:49:51Z</time>
      </trkpt>
      <trkpt lat="43.330368" lon="-2.677184">
        <ele>4.979</ele>
        <time>2019-06-15T18:49:52Z</time>
      </trkpt>
      <trkpt lat="43.330534" lon="-2.677159">
        <ele>5.028</ele>
        <time>2019-06-15T18:49:53Z</time>
      </trkpt>
      <trkpt lat="43.330706" lon="-2.677134">
        <ele>5.079</ele>
        <time>2019-06-15T18:49:54Z</time>
      </trkpt>
      <trkpt lat="43.330886" lon="-2.677112">
        <ele>5.098</ele>
        <time>2019-06-15T18:49:55Z</time>
      </trkpt>
      <trkpt lat="43.331069" lon="-2.677099">
        <ele>5.062</ele>
        <time>2019-06-15T18:49:56Z</time>
      </trkpt>
      <trkpt lat="43.331267" lon="-2.677073">
        <ele>5.674</ele>
        <time>2019-06-15T18:49:57Z</time>
      </trkpt>
      <trkpt lat="43.331456" lon="-2.677054">
        <ele>6.156</ele>
        <time>2019-06-15T18:49:58Z</time>
      </trkpt>
      <trkpt lat="43.331633" lon="-2.677036">
        <ele>6.321</ele>
        <time>2019-06-15T18:49:59Z</time>
      </trkpt>
      <trkpt lat="43.331806" lon="-2.677013">
        <ele>6.208</ele>
        <time>2019-06-15T18:50:00Z</time>
      </trkpt>
      <trkpt lat="43.331976" lon="-2.676985">
        <ele>6.250</ele>
        <time>2019-06-15T18:50:01Z</time>
      </trkpt>
      <trkpt lat="43.332147" lon="-2.676961">
        <ele>6.774</ele>
        <time>2019-06-15T18:50:02Z</time>
      </trkpt>
      <trkpt lat="43.332330" lon="-2.676942">
        <ele>7.493</ele>
        <time>2019-06-15T18:50:03Z</time>
      </trkpt>
      <trkpt lat="43.332502" lon="-2.676918">
        <ele>8.142</ele>
        <time>2019-06-15T18:50:04Z</time>
      </trkpt>
      <trkpt lat="43.332694" lon="-2.676886">
        <ele>8.861</ele>
        <time>2019-06-15T18:50:05Z</time>
      </trkpt>
      <trkpt lat="43.332907" lon="-2.676864">
        <ele>9.512</ele>
        <time>2019-06-15T18:50:06Z</time>
      </trkpt>
      <trkpt lat="43.333103" lon="-2.676834">
        <ele>10.191</ele>
        <time>2019-06-15T18:50:07Z</time>
      </trkpt>
      <trkpt lat="43.333296" lon="-2.676800">
        <ele>10.955</ele>
        <time>2019-06-15T18:50:08Z</time>
      </trkpt>
      <trkpt lat="43.333498" lon="-2.676773">
        <ele>11.891</ele>
        <time>2019-06-15T18:50:09Z</time>
      </trkpt>
      <trkpt lat="43.333686" lon="-2.676758">
        <ele>12.881</ele>
        <time>2019-06-15T18:50:10Z</time>
      </trkpt>
      <trkpt lat="43.333884" lon="-2.676738">
        <ele>14.219</ele>
        <time>2019-06-15T18:50:11Z</time>
      </trkpt>
      <trkpt lat="43.334080" lon="-2.676703">
        <ele>16.208</ele>
        <time>2019-06-15T18:50:12Z</time>
      </trkpt>
      <trkpt lat="43.334289" lon="-2.676679">
        <ele>17.922</ele>
        <time>2019-06-15T18:50:13Z</time>
      </trkpt>
      <trkpt lat="43.334482" lon="-2.676642">
        <ele>19.576</ele>
        <time>2019-06-15T18:50:14Z</time>
      </trkpt>
      <trkpt lat="43.334664" lon="-2.676600">
        <ele>21.835</ele>
        <time>2019-06-15T18:50:15Z</time>
      </trkpt>
      <trkpt lat="43.334813" lon="-2.676572">
        <ele>23.124</ele>
        <time>2019-06-15T18:50:16Z</time>
      </trkpt>
      <trkpt lat="43.335002" lon="-2.676545">
        <ele>24.683</ele>
        <time>2019-06-15T18:50:17Z</time>
      </trkpt>
      <trkpt lat="43.335209" lon="-2.676518">
        <ele>26.384</ele>
        <time>2019-06-15T18:50:18Z</time>
      </trkpt>
      <trkpt lat="43.335404" lon="-2.676501">
        <ele>28.033</ele>
        <time>2019-06-15T18:50:19Z</time>
      </trkpt>
      <trkpt lat="43.335604" lon="-2.676490">
        <ele>29.917</ele>
        <time>2019-06-15T18:50:20Z</time>
      </trkpt>
      <trkpt lat="43.335795" lon="-2.676463">
        <ele>31.027</ele>
        <time>2019-06-15T18:50:21Z</time>
      </trkpt>
      <trkpt lat="43.335984" lon="-2.676447">
        <ele>32.668</ele>
        <time>2019-06-15T18:50:22Z</time>
      </trkpt>
      <trkpt lat="43.336164" lon="-2.676423">
        <ele>33.914</ele>
        <time>2019-06-15T18:50:23Z</time>
      </trkpt>
      <trkpt lat="43.336341" lon="-2.676404">
        <ele>34.908</ele>
        <time>2019-06-15T18:50:24Z</time>
      </trkpt>
      <trkpt lat="43.336518" lon="-2.676372">
        <ele>35.885</ele>
        <time>2019-06-15T18:50:25Z</time>
      </trkpt>
      <trkpt lat="43.336682" lon="-2.676354">
        <ele>36.819</ele>
        <time>2019-06-15T18:50:26Z</time>
      </trkpt>
      <trkpt lat="43.336826" lon="-2.676328">
        <ele>36.778</ele>
        <time>2019-06-15T18:50:27Z</time>
      </trkpt>
      <trkpt lat="43.336966" lon="-2.676306">
        <ele>36.797</ele>
        <time>2019-06-15T18:50:28Z</time>
      </trkpt>
      <trkpt lat="43.337107" lon="-2.676281">
        <ele>36.456</ele>
        <time>2019-06-15T18:50:29Z</time>
      </trkpt>
      <trkpt lat="43.337263" lon="-2.676255">
        <ele>35.927</ele>
        <time>2019-06-15T18:50:30Z</time>
      </trkpt>
      <trkpt lat="43.337423" lon="-2.676248">
        <ele>35.376</ele>
        <time>2019-06-15T18:50:31Z</time>
      </trkpt>
      <trkpt lat="43.337599" lon="-2.676257">
        <ele>34.380</ele>
        <time>2019-06-15T18:50:32Z</time>
      </trkpt>
      <trkpt lat="43.337775" lon="-2.676281">
        <ele>33.275</ele>
        <time>2019-06-15T18:50:33Z</time>
      </trkpt>
      <trkpt lat="43.337966" lon="-2.676330">
        <ele>32.128</ele>
        <time>2019-06-15T18:50:34Z</time>
      </trkpt>
      <trkpt lat="43.338146" lon="-2.676404">
        <ele>31.220</ele>
        <time>2019-06-15T18:50:35Z</time>
      </trkpt>
      <trkpt lat="43.338344" lon="-2.676495">
        <ele>29.608</ele>
        <time>2019-06-15T18:50:36Z</time>
      </trkpt>
      <trkpt lat="43.338549" lon="-2.676581">
        <ele>28.150</ele>
        <time>2019-06-15T18:50:37Z</time>
      </trkpt>
      <trkpt lat="43.338768" lon="-2.676676">
        <ele>27.534</ele>
        <time>2019-06-15T18:50:38Z</time>
      </trkpt>
      <trkpt lat="43.338984" lon="-2.676747">
        <ele>27.063</ele>
        <time>2019-06-15T18:50:39Z</time>
      </trkpt>
      <trkpt lat="43.339214" lon="-2.676837">
        <ele>26.712</ele>
        <time>2019-06-15T18:50:40Z</time>
      </trkpt>
      <trkpt lat="43.339437" lon="-2.676928">
        <ele>27.751</ele>
        <time>2019-06-15T18:50:41Z</time>
      </trkpt>
      <trkpt lat="43.339641" lon="-2.677015">
        <ele>28.982</ele>
        <time>2019-06-15T18:50:42Z</time>
      </trkpt>
      <trkpt lat="43.339857" lon="-2.677108">
        <ele>30.421</ele>
        <time>2019-06-15T18:50:43Z</time>
      </trkpt>
      <trkpt lat="43.340076" lon="-2.677205">
        <ele>31.865</ele>
        <time>2019-06-15T18:50:44Z</time>
      </trkpt>
      <trkpt lat="43.340281" lon="-2.677278">
        <ele>32.847</ele>
        <time>2019-06-15T18:50:45Z</time>
      </trkpt>
      <trkpt lat="43.340484" lon="-2.677362">
        <ele>33.629</ele>
        <time>2019-06-15T18:50:46Z</time>
      </trkpt>
      <trkpt lat="43.340687" lon="-2.677434">
        <ele>33.521</ele>
        <time>2019-06-15T18:50:47Z</time>
      </trkpt>
      <trkpt lat="43.340892" lon="-2.677510">
        <ele>32.508</ele>
        <time>2019-06-15T18:50:48Z</time>
      </trkpt>
      <trkpt lat="43.341100" lon="-2.677591">
        <ele>31.187</ele>
        <time>2019-06-15T18:50:49Z</time>
      </trkpt>
      <trkpt lat="43.341304" lon="-2.677673">
        <ele>30.651</ele>
        <time>2019-06-15T18:50:50Z</time>
      </trkpt>
      <trkpt lat="43.341519" lon="-2.677760">
        <ele>31.610</ele>
        <time>2019-06-15T18:50:51Z</time>
      </trkpt>
      <trkpt lat="43.341726" lon="-2.677851">
        <ele>32.669</ele>
        <time>2019-06-15T18:50:52Z</time>
      </trkpt>
      <trkpt lat="43.341929" lon="-2.677938">
        <ele>31.928</ele>
        <time>2019-06-15T18:50:53Z</time>
      </trkpt>
      <trkpt lat="43.342129" lon="-2.678009">
        <ele>30.949</ele>
        <time>2019-06-15T18:50:54Z</time>
      </trkpt>
      <trkpt lat="43.342340" lon="-2.678099">
        <ele>30.318</ele>
        <time>2019-06-15T18:50:55Z</time>
      </trkpt>
      <trkpt lat="43.342554" lon="-2.678185">
        <ele>28.452</ele>
        <time>2019-06-15T18:50:56Z</time>
      </trkpt>
      <trkpt lat="43.342783" lon="-2.678272">
        <ele>25.375</ele>
        <time>2019-06-15T18:50:57Z</time>
      </trkpt>
      <trkpt lat="43.342998" lon="-2.678389">
        <ele>25.228</ele>
        <time>2019-06-15T18:50:58Z</time>
      </trkpt>
      <trkpt lat="43.343233" lon="-2.678490">
        <ele>25.220</ele>
        <time>2019-06-15T18:50:59Z</time>
      </trkpt>
      <trkpt lat="43.343453" lon="-2.678586">
        <ele>27.508</ele>
        <time>2019-06-15T18:51:00Z</time>
      </trkpt>
      <trkpt lat="43.343669" lon="-2.678671">
        <ele>30.240</ele>
        <time>2019-06-15T18:51:01Z</time>
      </trkpt>
      <trkpt lat="43.343893" lon="-2.678752">
        <ele>31.564</ele>
        <time>2019-06-15T18:51:02Z</time>
      </trkpt>
      <trkpt lat="43.344122" lon="-2.678846">
        <ele>32.443</ele>
        <time>2019-06-15T18:51:03Z</time>
      </trkpt>
      <trkpt lat="43.344344" lon="-2.678926">
        <ele>32.352</ele>
        <time>2019-06-15T18:51:04Z</time>
      </trkpt>
      <trkpt lat="43.344552" lon="-2.679005">
        <ele>32.571</ele>
        <time>2019-06-15T18:51:05Z</time>
      </trkpt>
      <trkpt lat="43.344747" lon="-2.679086">
        <ele>32.882</ele>
        <time>2019-06-15T18:51:06Z</time>
      </trkpt>
      <trkpt lat="43.344949" lon="-2.679176">
        <ele>33.351</ele>
        <time>2019-06-15T18:51:07Z</time>
      </trkpt>
      <trkpt lat="43.345170" lon="-2.679300">
        <ele>33.235</ele>
        <time>2019-06-15T18:51:08Z</time>
      </trkpt>
      <trkpt lat="43.345389" lon="-2.679412">
        <ele>31.745</ele>
        <time>2019-06-15T18:51:09Z</time>
      </trkpt>
      <trkpt lat="43.345604" lon="-2.679514">
        <ele>29.947</ele>
        <time>2019-06-15T18:51:10Z</time>
      </trkpt>
      <trkpt lat="43.345842" lon="-2.679644">
        <ele>27.611</ele>
        <time>2019-06-15T18:51:11Z</time>
      </trkpt>
      <trkpt lat="43.346057" lon="-2.679751">
        <ele>25.708</ele>
        <time>2019-06-15T18:51:12Z</time>
      </trkpt>
      <trkpt lat="43.346283" lon="-2.679859">
        <ele>24.387</ele>
        <time>2019-06-15T18:51:13Z</time>
      </trkpt>
      <trkpt lat="43.346544" lon="-2.679994">
        <ele>22.341</ele>
        <time>2019-06-15T18:51:14Z</time>
      </trkpt>
      <trkpt lat="43.346777" lon="-2.680103">
        <ele>20.220</ele>
        <time>2019-06-15T18:51:15Z</time>
      </trkpt>
      <trkpt lat="43.347023" lon="-2.680222">
        <ele>18.649</ele>
        <time>2019-06-15T18:51:16Z</time>
      </trkpt>
      <trkpt lat="43.347252" lon="-2.680315">
        <ele>17.678</ele>
        <time>2019-06-15T18:51:17Z</time>
      </trkpt>
      <trkpt lat="43.347522" lon="-2.680439">
        <ele>15.589</ele>
        <time>2019-06-15T18:51:18Z</time>
      </trkpt>
      <trkpt lat="43.347748" lon="-2.680550">
        <ele>14.298</ele>
        <time>2019-06-15T18:51:19Z</time>
      </trkpt>
      <trkpt lat="43.347999" lon="-2.680681">
        <ele>13.032</ele>
        <time>2019-06-15T18:51:20Z</time>
      </trkpt>
      <trkpt lat="43.348250" lon="-2.680793">
        <ele>13.988</ele>
        <time>2019-06-15T18:51:21Z</time>
      </trkpt>
      <trkpt lat="43.348486" lon="-2.680912">
        <ele>15.524</ele>
        <time>2019-06-15T18:51:22Z</time>
      </trkpt>
      <trkpt lat="43.348721" lon="-2.681030">
        <ele>17.726</ele>
        <time>2019-06-15T18:51:23Z</time>
      </trkpt>
      <trkpt lat="43.348952" lon="-2.681142">
        <ele>20.608</ele>
        <time>2019-06-15T18:51:24Z</time>
      </trkpt>
      <trkpt lat="43.349179" lon="-2.681251">
        <ele>22.561</ele>
        <time>2019-06-15T18:51:25Z</time>
      </trkpt>
      <trkpt lat="43.349361" lon="-2.681348">
        <ele>23.795</ele>
        <time>2019-06-15T18:51:26Z</time>
      </trkpt>
      <trkpt lat="43.349548" lon="-2.681446">
        <ele>24.734</ele>
        <time>2019-06-15T18:51:27Z</time>
      </trkpt>
      <trkpt lat="43.349730" lon="-2.681539">
        <ele>25.113</ele>
        <time>2019-06-15T18:51:28Z</time>
      </trkpt>
      <trkpt lat="43.349888" lon="-2.681633">
        <ele>26.082</ele>
        <time>2019-06-15T18:51:29Z</time>
      </trkpt>
      <trkpt lat="43.350058" lon="-2.681713">
        <ele>26.673</ele>
        <time>2019-06-15T18:51:30Z</time>
      </trkpt>
      <trkpt lat="43.350206" lon="-2.681772">
        <ele>27.262</ele>
        <time>2019-06-15T18:51:31Z</time>
      </trkpt>
      <trkpt lat="43.350404" lon="-2.681854">
        <ele>27.776</ele>
        <time>2019-06-15T18:51:32Z</time>
      </trkpt>
      <trkpt lat="43.350594" lon="-2.681936">
        <ele>27.998</ele>
        <time>2019-06-15T18:51:33Z</time>
      </trkpt>
      <trkpt lat="43.350767" lon="-2.682028">
        <ele>28.415</ele>
        <time>2019-06-15T18:51:34Z</time>
      </trkpt>
      <trkpt lat="43.350939" lon="-2.682128">
        <ele>28.726</ele>
        <time>2019-06-15T18:51:35Z</time>
      </trkpt>
      <trkpt lat="43.351101" lon="-2.682232">
        <ele>29.008</ele>
        <time>2019-06-15T18:51:36Z</time>
      </trkpt>
      <trkpt lat="43.351268" lon="-2.682369">
        <ele>29.372</ele>
        <time>2019-06-15T18:51:37Z</time>
      </trkpt>
      <trkpt lat="43.351434" lon="-2.682504">
        <ele>30.086</ele>
        <time>2019-06-15T18:51:38Z</time>
      </trkpt>
      <trkpt lat="43.351595" lon="-2.682666">
        <ele>30.225</ele>
        <time>2019-06-15T18:51:39Z</time>
      </trkpt>
      <trkpt lat="43.351755" lon="-2.682832">
        <ele>29.914</ele>
        <time>2019-06-15T18:51:40Z</time>
      </trkpt>
      <trkpt lat="43.351929" lon="-2.682983">
        <ele>29.143</ele>
        <time>2019-06-15T18:51:41Z</time>
      </trkpt>
      <trkpt lat="43.352094" lon="-2.683128">
        <ele>28.894</ele>
        <time>2019-06-15T18:51:42Z</time>
      </trkpt>
      <trkpt lat="43.352259" lon="-2.683261">
        <ele>28.653</ele>
        <time>2019-06-15T18:51:43Z</time>
      </trkpt>
      <trkpt lat="43.352435" lon="-2.683396">
        <ele>28.277</ele>
        <time>2019-06-15T18:51:44Z</time>
      </trkpt>
      <trkpt lat="43.352614" lon="-2.683533">
        <ele>27.962</ele>
        <time>2019-06-15T18:51:45Z</time>
      </trkpt>
      <trkpt lat="43.352783" lon="-2.683680">
        <ele>28.083</ele>
        <time>2019-06-15T18:51:46Z</time>
      </trkpt>
      <trkpt lat="43.352942" lon="-2.683825">
        <ele>28.011</ele>
        <time>2019-06-15T18:51:47Z</time>
      </trkpt>
      <trkpt lat="43.353101" lon="-2.683961">
        <ele>28.408</ele>
        <time>2019-06-15T18:51:48Z</time>
      </trkpt>
      <trkpt lat="43.353245" lon="-2.684089">
        <ele>28.939</ele>
        <time>2019-06-15T18:51:49Z</time>
      </trkpt>
      <trkpt lat="43.353388" lon="-2.684220">
        <ele>29.583</ele>
        <time>2019-06-15T18:51:50Z</time>
      </trkpt>
      <trkpt lat="43.353513" lon="-2.684332">
        <ele>30.552</ele>
        <time>2019-06-15T18:51:51Z</time>
      </trkpt>
      <trkpt lat="43.353624" lon="-2.684441">
        <ele>31.131</ele>
        <time>2019-06-15T18:51:52Z</time>
      </trkpt>
      <trkpt lat="43.353745" lon="-2.684550">
        <ele>32.350</ele>
        <time>2019-06-15T18:51:53Z</time>
      </trkpt>
      <trkpt lat="43.353871" lon="-2.684654">
        <ele>32.461</ele>
        <time>2019-06-15T18:51:54Z</time>
      </trkpt>
      <trkpt lat="43.353989" lon="-2.684764">
        <ele>33.850</ele>
        <time>2019-06-15T18:51:55Z</time>
      </trkpt>
      <trkpt lat="43.354108" lon="-2.684871">
        <ele>34.914</ele>
        <time>2019-06-15T18:51:56Z</time>
      </trkpt>
      <trkpt lat="43.354230" lon="-2.684977">
        <ele>35.751</ele>
        <time>2019-06-15T18:51:57Z</time>
      </trkpt>
      <trkpt lat="43.354356" lon="-2.685091">
        <ele>37.301</ele>
        <time>2019-06-15T18:51:58Z</time>
      </trkpt>
      <trkpt lat="43.354475" lon="-2.685208">
        <ele>37.511</ele>
        <time>2019-06-15T18:51:59Z</time>
      </trkpt>
      <trkpt lat="43.354595" lon="-2.685313">
        <ele>38.008</ele>
        <time>2019-06-15T18:52:00Z</time>
      </trkpt>
      <trkpt lat="43.354710" lon="-2.685421">
        <ele>38.468</ele>
        <time>2019-06-15T18:52:01Z</time>
      </trkpt>
      <trkpt lat="43.354820" lon="-2.685519">
        <ele>38.592</ele>
        <time>2019-06-15T18:52:02Z</time>
      </trkpt>
      <trkpt lat="43.354930" lon="-2.685622">
        <ele>38.851</ele>
        <time>2019-06-15T18:52:03Z</time>
      </trkpt>
      <trkpt lat="43.355045" lon="-2.685725">
        <ele>38.790</ele>
        <time>2019-06-15T18:52:04Z</time>
      </trkpt>
      <trkpt lat="43.355177" lon="-2.685824">
        <ele>38.489</ele>
        <time>2019-06-15T18:52:05Z</time>
      </trkpt>
      <trkpt lat="43.355306" lon="-2.685931">
        <ele>38.420</ele>
        <time>2019-06-15T18:52:06Z</time>
      </trkpt>
      <trkpt lat="43.355442" lon="-2.686027">
        <ele>38.419</ele>
        <time>2019-06-15T18:52:07Z</time>
      </trkpt>
      <trkpt lat="43.355581" lon="-2.686121">
        <ele>37.193</ele>
        <time>2019-06-15T18:52:08Z</time>
      </trkpt>
      <trkpt lat="43.355764" lon="-2.686212">
        <ele>37.175</ele>
        <time>2019-06-15T18:52:09Z</time>
      </trkpt>
      <trkpt lat="43.355896" lon="-2.686288">
        <ele>36.928</ele>
        <time>2019-06-15T18:52:10Z</time>
      </trkpt>
      <trkpt lat="43.356032" lon="-2.686378">
        <ele>36.020</ele>
        <time>2019-06-15T18:52:11Z</time>
      </trkpt>
      <trkpt lat="43.356200" lon="-2.686456">
        <ele>35.608</ele>
        <time>2019-06-15T18:52:12Z</time>
      </trkpt>
      <trkpt lat="43.356314" lon="-2.686493">
        <ele>35.660</ele>
        <time>2019-06-15T18:52:13Z</time>
      </trkpt>
      <trkpt lat="43.356448" lon="-2.686562">
        <ele>35.424</ele>
        <time>2019-06-15T18:52:14Z</time>
      </trkpt>
      <trkpt lat="43.356595" lon="-2.686610">
        <ele>35.563</ele>
        <time>2019-06-15T18:52:15Z</time>
      </trkpt>
      <trkpt lat="43.356750" lon="-2.686674">
        <ele>35.592</ele>
        <time>2019-06-15T18:52:16Z</time>
      </trkpt>
      <trkpt lat="43.356919" lon="-2.686758">
        <ele>35.861</ele>
        <time>2019-06-15T18:52:17Z</time>
      </trkpt>
      <trkpt lat="43.357077" lon="-2.686808">
        <ele>36.982</ele>
        <time>2019-06-15T18:52:18Z</time>
      </trkpt>
      <trkpt lat="43.357235" lon="-2.686883">
        <ele>36.771</ele>
        <time>2019-06-15T18:52:19Z</time>
      </trkpt>
      <trkpt lat="43.357394" lon="-2.686961">
        <ele>36.025</ele>
        <time>2019-06-15T18:52:20Z</time>
      </trkpt>
      <trkpt lat="43.357561" lon="-2.687038">
        <ele>35.924</ele>
        <time>2019-06-15T18:52:21Z</time>
      </trkpt>
      <trkpt lat="43.357712" lon="-2.687126">
        <ele>34.904</ele>
        <time>2019-06-15T18:52:22Z</time>
      </trkpt>
      <trkpt lat="43.357866" lon="-2.687221">
        <ele>33.014</ele>
        <time>2019-06-15T18:52:23Z</time>
      </trkpt>
      <trkpt lat="43.358021" lon="-2.687316">
        <ele>32.008</ele>
        <time>2019-06-15T18:52:24Z</time>
      </trkpt>
      <trkpt lat="43.358175" lon="-2.687425">
        <ele>30.545</ele>
        <time>2019-06-15T18:52:25Z</time>
      </trkpt>
      <trkpt lat="43.358343" lon="-2.687544">
        <ele>28.729</ele>
        <time>2019-06-15T18:52:26Z</time>
      </trkpt>
      <trkpt lat="43.358503" lon="-2.687661">
        <ele>27.658</ele>
        <time>2019-06-15T18:52:27Z</time>
      </trkpt>
      <trkpt lat="43.358665" lon="-2.687784">
        <ele>27.067</ele>
        <time>2019-06-15T18:52:28Z</time>
      </trkpt>
      <trkpt lat="43.358823" lon="-2.687908">
        <ele>26.616</ele>
        <time>2019-06-15T18:52:29Z</time>
      </trkpt>
      <trkpt lat="43.358981" lon="-2.688026">
        <ele>25.767</ele>
        <time>2019-06-15T18:52:30Z</time>
      </trkpt>
      <trkpt lat="43.359139" lon="-2.688140">
        <ele>25.746</ele>
        <time>2019-06-15T18:52:31Z</time>
      </trkpt>
      <trkpt lat="43.359295" lon="-2.688260">
        <ele>26.530</ele>
        <time>2019-06-15T18:52:32Z</time>
      </trkpt>
      <trkpt lat="43.359431" lon="-2.688379">
        <ele>27.224</ele>
        <time>2019-06-15T18:52:33Z</time>
      </trkpt>
      <trkpt lat="43.359584" lon="-2.688488">
        <ele>27.304</ele>
        <time>2019-06-15T18:52:34Z</time>
      </trkpt>
      <trkpt lat="43.359726" lon="-2.688597">
        <ele>27.914</ele>
        <time>2019-06-15T18:52:35Z</time>
      </trkpt>
      <trkpt lat="43.359870" lon="-2.688697">
        <ele>27.808</ele>
        <time>2019-06-15T18:52:36Z</time>
      </trkpt>
      <trkpt lat="43.360010" lon="-2.688789">
        <ele>27.695</ele>
        <time>2019-06-15T18:52:37Z</time>
      </trkpt>
      <trkpt lat="43.360136" lon="-2.688890">
        <ele>28.099</ele>
        <time>2019-06-15T18:52:38Z</time>
      </trkpt>
      <trkpt lat="43.360271" lon="-2.688985">
        <ele>28.088</ele>
        <time>2019-06-15T18:52:39Z</time>
      </trkpt>
      <trkpt lat="43.360410" lon="-2.689084">
        <ele>27.967</ele>
        <time>2019-06-15T18:52:40Z</time>
      </trkpt>
      <trkpt lat="43.360550" lon="-2.689175">
        <ele>28.046</ele>
        <time>2019-06-15T18:52:41Z</time>
      </trkpt>
      <trkpt lat="43.360686" lon="-2.689274">
        <ele>28.477</ele>
        <time>2019-06-15T18:52:42Z</time>
      </trkpt>
      <trkpt lat="43.360815" lon="-2.689371">
        <ele>28.796</ele>
        <time>2019-06-15T18:52:43Z</time>
      </trkpt>
      <trkpt lat="43.360956" lon="-2.689462">
        <ele>28.640</ele>
        <time>2019-06-15T18:52:44Z</time>
      </trkpt>
      <trkpt lat="43.361093" lon="-2.689553">
        <ele>28.433</ele>
        <time>2019-06-15T18:52:45Z</time>
      </trkpt>
      <trkpt lat="43.361229" lon="-2.689647">
        <ele>28.823</ele>
        <time>2019-06-15T18:52:46Z</time>
      </trkpt>
      <trkpt lat="43.361377" lon="-2.689748">
        <ele>29.015</ele>
        <time>2019-06-15T18:52:47Z</time>
      </trkpt>
      <trkpt lat="43.361526" lon="-2.689845">
        <ele>28.508</ele>
        <time>2019-06-15T18:52:48Z</time>
      </trkpt>
      <trkpt lat="43.361674" lon="-2.689941">
        <ele>28.046</ele>
        <time>2019-06-15T18:52:49Z</time>
      </trkpt>
      <trkpt lat="43.361817" lon="-2.690033">
        <ele>27.580</ele>
        <time>2019-06-15T18:52:50Z</time>
      </trkpt>
      <trkpt lat="43.361967" lon="-2.690125">
        <ele>27.099</ele>
        <time>2019-06-15T18:52:51Z</time>
      </trkpt>
      <trkpt lat="43.362101" lon="-2.690210">
        <ele>27.088</ele>
        <time>2019-06-15T18:52:52Z</time>
      </trkpt>
      <trkpt lat="43.362217" lon="-2.690303">
        <ele>27.077</ele>
        <time>2019-06-15T18:52:53Z</time>
      </trkpt>
      <trkpt lat="43.362352" lon="-2.690392">
        <ele>26.588</ele>
        <time>2019-06-15T18:52:54Z</time>
      </trkpt>
      <trkpt lat="43.362482" lon="-2.690481">
        <ele>26.157</ele>
        <time>2019-06-15T18:52:55Z</time>
      </trkpt>
      <trkpt lat="43.362597" lon="-2.690563">
        <ele>25.791</ele>
        <time>2019-06-15T18:52:56Z</time>
      </trkpt>
      <trkpt lat="43.362696" lon="-2.690642">
        <ele>25.693</ele>
        <time>2019-06-15T18:52:57Z</time>
      </trkpt>
      <trkpt lat="43.362815" lon="-2.690724">
        <ele>25.565</ele>
        <time>2019-06-15T18:52:58Z</time>
      </trkpt>
      <trkpt lat="43.362914" lon="-2.690797">
        <ele>25.421</ele>
        <time>2019-06-15T18:52:59Z</time>
      </trkpt>
      <trkpt lat="43.363023" lon="-2.690877">
        <ele>25.108</ele>
        <time>2019-06-15T18:53:00Z</time>
      </trkpt>
      <trkpt lat="43.363151" lon="-2.690965">
        <ele>25.022</ele>
        <time>2019-06-15T18:53:01Z</time>
      </trkpt>
      <trkpt lat="43.363292" lon="-2.691055">
        <ele>25.046</ele>
        <time>2019-06-15T18:53:02Z</time>
      </trkpt>
      <trkpt lat="43.363439" lon="-2.691151">
        <ele>24.775</ele>
        <time>2019-06-15T18:53:03Z</time>
      </trkpt>
      <trkpt lat="43.363595" lon="-2.691255">
        <ele>24.594</ele>
        <time>2019-06-15T18:53:04Z</time>
      </trkpt>
      <trkpt lat="43.363757" lon="-2.691369">
        <ele>24.483</ele>
        <time>2019-06-15T18:53:05Z</time>
      </trkpt>
      <trkpt lat="43.363918" lon="-2.691492">
        <ele>24.654</ele>
        <time>2019-06-15T18:53:06Z</time>
      </trkpt>
      <trkpt lat="43.364084" lon="-2.691625">
        <ele>25.053</ele>
        <time>2019-06-15T18:53:07Z</time>
      </trkpt>
      <trkpt lat="43.364255" lon="-2.691761">
        <ele>25.477</ele>
        <time>2019-06-15T18:53:08Z</time>
      </trkpt>
      <trkpt lat="43.364426" lon="-2.691896">
        <ele>25.644</ele>
        <time>2019-06-15T18:53:09Z</time>
      </trkpt>
      <trkpt lat="43.364593" lon="-2.692025">
        <ele>25.605</ele>
        <time>2019-06-15T18:53:10Z</time>
      </trkpt>
      <trkpt lat="43.364763" lon="-2.692149">
        <ele>25.515</ele>
        <time>2019-06-15T18:53:11Z</time>
      </trkpt>
      <trkpt lat="43.364928" lon="-2.692262">
        <ele>25.508</ele>
        <time>2019-06-15T18:53:12Z</time>
      </trkpt>
      <trkpt lat="43.365074" lon="-2.692375">
        <ele>25.557</ele>
        <time>2019-06-15T18:53:13Z</time>
      </trkpt>
      <trkpt lat="43.365224" lon="-2.692484">
        <ele>24.761</ele>
        <time>2019-06-15T18:53:14Z</time>
      </trkpt>
      <trkpt lat="43.365366" lon="-2.692589">
        <ele>24.390</ele>
        <time>2019-06-15T18:53:15Z</time>
      </trkpt>
      <trkpt lat="43.365508" lon="-2.692683">
        <ele>23.279</ele>
        <time>2019-06-15T18:53:16Z</time>
      </trkpt>
      <trkpt lat="43.365655" lon="-2.692773">
        <ele>21.938</ele>
        <time>2019-06-15T18:53:17Z</time>
      </trkpt>
      <trkpt lat="43.365786" lon="-2.692871">
        <ele>21.469</ele>
        <time>2019-06-15T18:53:18Z</time>
      </trkpt>
      <trkpt lat="43.365917" lon="-2.692957">
        <ele>19.918</ele>
        <time>2019-06-15T18:53:19Z</time>
      </trkpt>
      <trkpt lat="43.365990" lon="-2.693044">
        <ele>19.682</ele>
        <time>2019-06-15T18:53:20Z</time>
      </trkpt>
      <trkpt lat="43.366127" lon="-2.693146">
        <ele>18.351</ele>
        <time>2019-06-15T18:53:21Z</time>
      </trkpt>
      <trkpt lat="43.366268" lon="-2.693233">
        <ele>16.601</ele>
        <time>2019-06-15T18:53:22Z</time>
      </trkpt>
      <trkpt lat="43.366394" lon="-2.693338">
        <ele>15.911</ele>
        <time>2019-06-15T18:53:23Z</time>
      </trkpt>
      <trkpt lat="43.366527" lon="-2.693428">
        <ele>14.008</ele>
        <time>2019-06-15T18:53:24Z</time>
      </trkpt>
      <trkpt lat="43.366658" lon="-2.693528">
        <ele>12.968</ele>
        <time>2019-06-15T18:53:25Z</time>
      </trkpt>
      <trkpt lat="43.366778" lon="-2.693625">
        <ele>12.212</ele>
        <time>2019-06-15T18:53:26Z</time>
      </trkpt>
      <trkpt lat="43.366888" lon="-2.693729">
        <ele>11.481</ele>
        <time>2019-06-15T18:53:27Z</time>
      </trkpt>
      <trkpt lat="43.367008" lon="-2.693817">
        <ele>10.530</ele>
        <time>2019-06-15T18:53:28Z</time>
      </trkpt>
      <trkpt lat="43.367130" lon="-2.693898">
        <ele>10.059</ele>
        <time>2019-06-15T18:53:29Z</time>
      </trkpt>
      <trkpt lat="43.367253" lon="-2.693975">
        <ele>8.730</ele>
        <time>2019-06-15T18:53:30Z</time>
      </trkpt>
      <trkpt lat="43.367371" lon="-2.694068">
        <ele>7.489</ele>
        <time>2019-06-15T18:53:31Z</time>
      </trkpt>
      <trkpt lat="43.367504" lon="-2.694151">
        <ele>6.013</ele>
        <time>2019-06-15T18:53:32Z</time>
      </trkpt>
      <trkpt lat="43.367608" lon="-2.694210">
        <ele>6.094</ele>
        <time>2019-06-15T18:53:33Z</time>
      </trkpt>
      <trkpt lat="43.367716" lon="-2.694291">
        <ele>6.057</ele>
        <time>2019-06-15T18:53:34Z</time>
      </trkpt>
      <trkpt lat="43.367819" lon="-2.694368">
        <ele>5.822</ele>
        <time>2019-06-15T18:53:35Z</time>
      </trkpt>
      <trkpt lat="43.367908" lon="-2.694422">
        <ele>5.508</ele>
        <time>2019-06-15T18:53:36Z</time>
      </trkpt>
      <trkpt lat="43.368000" lon="-2.694486">
        <ele>5.282</ele>
        <time>2019-06-15T18:53:37Z</time>
      </trkpt>
      <trkpt lat="43.368103" lon="-2.694553">
        <ele>5.186</ele>
        <time>2019-06-15T18:53:38Z</time>
      </trkpt>
      <trkpt lat="43.368208" lon="-2.694620">
        <ele>5.365</ele>
        <time>2019-06-15T18:53:39Z</time>
      </trkpt>
      <trkpt lat="43.368316" lon="-2.694696">
        <ele>5.894</ele>
        <time>2019-06-15T18:53:40Z</time>
      </trkpt>
      <trkpt lat="43.368446" lon="-2.694786">
        <ele>6.983</ele>
        <time>2019-06-15T18:53:41Z</time>
      </trkpt>
      <trkpt lat="43.368590" lon="-2.694879">
        <ele>9.174</ele>
        <time>2019-06-15T18:53:42Z</time>
      </trkpt>
      <trkpt lat="43.368721" lon="-2.694964">
        <ele>10.223</ele>
        <time>2019-06-15T18:53:43Z</time>
      </trkpt>
      <trkpt lat="43.368855" lon="-2.695056">
        <ele>11.217</ele>
        <time>2019-06-15T18:53:44Z</time>
      </trkpt>
      <trkpt lat="43.368989" lon="-2.695135">
        <ele>12.655</ele>
        <time>2019-06-15T18:53:45Z</time>
      </trkpt>
      <trkpt lat="43.369117" lon="-2.695222">
        <ele>13.507</ele>
        <time>2019-06-15T18:53:46Z</time>
      </trkpt>
      <trkpt lat="43.369237" lon="-2.695296">
        <ele>13.817</ele>
        <time>2019-06-15T18:53:47Z</time>
      </trkpt>
      <trkpt lat="43.369356" lon="-2.695377">
        <ele>14.208</ele>
        <time>2019-06-15T18:53:48Z</time>
      </trkpt>
      <trkpt lat="43.369476" lon="-2.695463">
        <ele>14.538</ele>
        <time>2019-06-15T18:53:49Z</time>
      </trkpt>
      <trkpt lat="43.369585" lon="-2.695545">
        <ele>14.462</ele>
        <time>2019-06-15T18:53:50Z</time>
      </trkpt>
      <trkpt lat="43.369699" lon="-2.695632">
        <ele>14.191</ele>
        <time>2019-06-15T18:53:51Z</time>
      </trkpt>
      <trkpt lat="43.369824" lon="-2.695724">
        <ele>14.460</ele>
        <time>2019-06-15T18:53:52Z</time>
      </trkpt>
      <trkpt lat="43.369956" lon="-2.695812">
        <ele>14.239</ele>
        <time>2019-06-15T18:53:53Z</time>
      </trkpt>
      <trkpt lat="43.370087" lon="-2.695904">
        <ele>14.710</ele>
        <time>2019-06-15T18:53:54Z</time>
      </trkpt>
      <trkpt lat="43.370219" lon="-2.695995">
        <ele>15.089</ele>
        <time>2019-06-15T18:53:55Z</time>
      </trkpt>
      <trkpt lat="43.370350" lon="-2.696089">
        <ele>15.333</ele>
        <time>2019-06-15T18:53:56Z</time>
      </trkpt>
      <trkpt lat="43.370484" lon="-2.696182">
        <ele>15.986</ele>
        <time>2019-06-15T18:53:57Z</time>
      </trkpt>
      <trkpt lat="43.370620" lon="-2.696281">
        <ele>16.560</ele>
        <time>2019-06-15T18:53:58Z</time>
      </trkpt>
      <trkpt lat="43.370767" lon="-2.696377">
        <ele>17.526</ele>
        <time>2019-06-15T18:53:59Z</time>
      </trkpt>
      <trkpt lat="43.370925" lon="-2.696486">
        <ele>18.308</ele>
        <time>2019-06-15T18:54:00Z</time>
      </trkpt>
      <trkpt lat="43.371093" lon="-2.696604">
        <ele>18.951</ele>
        <time>2019-06-15T18:54:01Z</time>
      </trkpt>
      <trkpt lat="43.371248" lon="-2.696719">
        <ele>19.535</ele>
        <time>2019-06-15T18:54:02Z</time>
      </trkpt>
      <trkpt lat="43.371418" lon="-2.696837">
        <ele>20.284</ele>
        <time>2019-06-15T18:54:03Z</time>
      </trkpt>
      <trkpt lat="43.371599" lon="-2.696955">
        <ele>21.523</ele>
        <time>2019-06-15T18:54:04Z</time>
      </trkpt>
      <trkpt lat="43.371784" lon="-2.697070">
        <ele>22.442</ele>
        <time>2019-06-15T18:54:05Z</time>
      </trkpt>
      <trkpt lat="43.371961" lon="-2.697183">
        <ele>23.163</ele>
        <time>2019-06-15T18:54:06Z</time>
      </trkpt>
      <trkpt lat="43.372134" lon="-2.697308">
        <ele>24.432</ele>
        <time>2019-06-15T18:54:07Z</time>
      </trkpt>
      <trkpt lat="43.372290" lon="-2.697432">
        <ele>25.816</ele>
        <time>2019-06-15T18:54:08Z</time>
      </trkpt>
      <trkpt lat="43.372457" lon="-2.697543">
        <ele>27.538</ele>
        <time>2019-06-15T18:54:09Z</time>
      </trkpt>
      <trkpt lat="43.372602" lon="-2.697640">
        <ele>29.770</ele>
        <time>2019-06-15T18:54:10Z</time>
      </trkpt>
      <trkpt lat="43.372733" lon="-2.697732">
        <ele>31.517</ele>
        <time>2019-06-15T18:54:11Z</time>
      </trkpt>
      <trkpt lat="43.372863" lon="-2.697818">
        <ele>32.808</ele>
        <time>2019-06-15T18:54:12Z</time>
      </trkpt>
      <trkpt lat="43.372994" lon="-2.697907">
        <ele>33.966</ele>
        <time>2019-06-15T18:54:13Z</time>
      </trkpt>
      <trkpt lat="43.373126" lon="-2.697997">
        <ele>35.380</ele>
        <time>2019-06-15T18:54:14Z</time>
      </trkpt>
      <trkpt lat="43.373259" lon="-2.698086">
        <ele>36.769</ele>
        <time>2019-06-15T18:54:15Z</time>
      </trkpt>
      <trkpt lat="43.373385" lon="-2.698176">
        <ele>37.298</ele>
        <time>2019-06-15T18:54:16Z</time>
      </trkpt>
      <trkpt lat="43.373509" lon="-2.698272">
        <ele>37.457</ele>
        <time>2019-06-15T18:54:17Z</time>
      </trkpt>
      <trkpt lat="43.373638" lon="-2.698376">
        <ele>38.128</ele>
        <time>2019-06-15T18:54:18Z</time>
      </trkpt>
      <trkpt lat="43.373769" lon="-2.698471">
        <ele>39.017</ele>
        <time>2019-06-15T18:54:19Z</time>
      </trkpt>
      <trkpt lat="43.373909" lon="-2.698568">
        <ele>39.881</ele>
        <time>2019-06-15T18:54:20Z</time>
      </trkpt>
      <trkpt lat="43.374047" lon="-2.698652">
        <ele>41.017</ele>
        <time>2019-06-15T18:54:21Z</time>
      </trkpt>
      <trkpt lat="43.374175" lon="-2.698735">
        <ele>41.787</ele>
        <time>2019-06-15T18:54:22Z</time>
      </trkpt>
      <trkpt lat="43.374327" lon="-2.698824">
        <ele>42.015</ele>
        <time>2019-06-15T18:54:23Z</time>
      </trkpt>
      <trkpt lat="43.374458" lon="-2.698912">
        <ele>42.108</ele>
        <time>2019-06-15T18:54:24Z</time>
      </trkpt>
      <trkpt lat="43.374589" lon="-2.699009">
        <ele>43.394</ele>
        <time>2019-06-15T18:54:25Z</time>
      </trkpt>
      <trkpt lat="43.374723" lon="-2.699086">
        <ele>44.368</ele>
        <time>2019-06-15T18:54:26Z</time>
      </trkpt>
      <trkpt lat="43.374862" lon="-2.699160">
        <ele>45.157</ele>
        <time>2019-06-15T18:54:27Z</time>
      </trkpt>
      <trkpt lat="43.374938" lon="-2.699232">
        <ele>45.696</ele>
        <time>2019-06-15T18:54:28Z</time>
      </trkpt>
      <trkpt lat="43.375082" lon="-2.699285">
        <ele>46.545</ele>
        <time>2019-06-15T18:54:29Z</time>
      </trkpt>
      <trkpt lat="43.375239" lon="-2.699328">
        <ele>47.246</ele>
        <time>2019-06-15T18:54:30Z</time>
      </trkpt>
      <trkpt lat="43.375387" lon="-2.699361">
        <ele>46.675</ele>
        <time>2019-06-15T18:54:31Z</time>
      </trkpt>
      <trkpt lat="43.375535" lon="-2.699383">
        <ele>45.639</ele>
        <time>2019-06-15T18:54:32Z</time>
      </trkpt>
      <trkpt lat="43.375686" lon="-2.699393">
        <ele>43.813</ele>
        <time>2019-06-15T18:54:33Z</time>
      </trkpt>
      <trkpt lat="43.375837" lon="-2.699402">
        <ele>42.043</ele>
        <time>2019-06-15T18:54:34Z</time>
      </trkpt>
      <trkpt lat="43.376003" lon="-2.699405">
        <ele>40.207</ele>
        <time>2019-06-15T18:54:35Z</time>
      </trkpt>
      <trkpt lat="43.376161" lon="-2.699408">
        <ele>38.808</ele>
        <time>2019-06-15T18:54:36Z</time>
      </trkpt>
      <trkpt lat="43.376327" lon="-2.699408">
        <ele>38.274</ele>
        <time>2019-06-15T18:54:37Z</time>
      </trkpt>
      <trkpt lat="43.376486" lon="-2.699411">
        <ele>38.028</ele>
        <time>2019-06-15T18:54:38Z</time>
      </trkpt>
      <trkpt lat="43.376640" lon="-2.699413">
        <ele>38.047</ele>
        <time>2019-06-15T18:54:39Z</time>
      </trkpt>
      <trkpt lat="43.376795" lon="-2.699412">
        <ele>37.696</ele>
        <time>2019-06-15T18:54:40Z</time>
      </trkpt>
      <trkpt lat="43.376940" lon="-2.699403">
        <ele>37.245</ele>
        <time>2019-06-15T18:54:41Z</time>
      </trkpt>
      <trkpt lat="43.377076" lon="-2.699406">
        <ele>37.176</ele>
        <time>2019-06-15T18:54:42Z</time>
      </trkpt>
      <trkpt lat="43.377215" lon="-2.699417">
        <ele>37.065</ele>
        <time>2019-06-15T18:54:43Z</time>
      </trkpt>
      <trkpt lat="43.377359" lon="-2.699423">
        <ele>37.099</ele>
        <time>2019-06-15T18:54:44Z</time>
      </trkpt>
      <trkpt lat="43.377486" lon="-2.699424">
        <ele>37.182</ele>
        <time>2019-06-15T18:54:45Z</time>
      </trkpt>
      <trkpt lat="43.377611" lon="-2.699422">
        <ele>37.143</ele>
        <time>2019-06-15T18:54:46Z</time>
      </trkpt>
      <trkpt lat="43.377716" lon="-2.699404">
        <ele>37.317</ele>
        <time>2019-06-15T18:54:47Z</time>
      </trkpt>
      <trkpt lat="43.377804" lon="-2.699394">
        <ele>37.308</ele>
        <time>2019-06-15T18:54:48Z</time>
      </trkpt>
      <trkpt lat="43.377903" lon="-2.699381">
        <ele>37.391</ele>
        <time>2019-06-15T18:54:49Z</time>
      </trkpt>
      <trkpt lat="43.377987" lon="-2.699353">
        <ele>37.225</ele>
        <time>2019-06-15T18:54:50Z</time>
      </trkpt>
      <trkpt lat="43.378092" lon="-2.699352">
        <ele>36.974</ele>
        <time>2019-06-15T18:54:51Z</time>
      </trkpt>
      <trkpt lat="43.378196" lon="-2.699368">
        <ele>36.523</ele>
        <time>2019-06-15T18:54:52Z</time>
      </trkpt>
      <trkpt lat="43.378299" lon="-2.699397">
        <ele>36.152</ele>
        <time>2019-06-15T18:54:53Z</time>
      </trkpt>
      <trkpt lat="43.378419" lon="-2.699423">
        <ele>35.713</ele>
        <time>2019-06-15T18:54:54Z</time>
      </trkpt>
      <trkpt lat="43.378539" lon="-2.699434">
        <ele>35.392</ele>
        <time>2019-06-15T18:54:55Z</time>
      </trkpt>
      <trkpt lat="43.378666" lon="-2.699438">
        <ele>34.856</ele>
        <time>2019-06-15T18:54:56Z</time>
      </trkpt>
      <trkpt lat="43.378789" lon="-2.699439">
        <ele>34.487</ele>
        <time>2019-06-15T18:54:57Z</time>
      </trkpt>
      <trkpt lat="43.378913" lon="-2.699444">
        <ele>33.942</ele>
        <time>2019-06-15T18:54:58Z</time>
      </trkpt>
      <trkpt lat="43.379039" lon="-2.699442">
        <ele>33.526</ele>
        <time>2019-06-15T18:54:59Z</time>
      </trkpt>
      <trkpt lat="43.379169" lon="-2.699443">
        <ele>33.008</ele>
        <time>2019-06-15T18:55:00Z</time>
      </trkpt>
      <trkpt lat="43.379294" lon="-2.699444">
        <ele>32.511</ele>
        <time>2019-06-15T18:55:01Z</time>
      </trkpt>
      <trkpt lat="43.379416" lon="-2.699444">
        <ele>32.115</ele>
        <time>2019-06-15T18:55:02Z</time>
      </trkpt>
      <trkpt lat="43.379547" lon="-2.699458">
        <ele>32.044</ele>
        <time>2019-06-15T18:55:03Z</time>
      </trkpt>
      <trkpt lat="43.379673" lon="-2.699463">
        <ele>31.983</ele>
        <time>2019-06-15T18:55:04Z</time>
      </trkpt>
      <trkpt lat="43.379790" lon="-2.699473">
        <ele>31.772</ele>
        <time>2019-06-15T18:55:05Z</time>
      </trkpt>
      <trkpt lat="43.379906" lon="-2.699481">
        <ele>31.263</ele>
        <time>2019-06-15T18:55:06Z</time>
      </trkpt>
      <trkpt lat="43.380030" lon="-2.699481">
        <ele>30.712</ele>
        <time>2019-06-15T18:55:07Z</time>
      </trkpt>
      <trkpt lat="43.380146" lon="-2.699482">
        <ele>29.966</ele>
        <time>2019-06-15T18:55:08Z</time>
      </trkpt>
      <trkpt lat="43.380252" lon="-2.699474">
        <ele>29.247</ele>
        <time>2019-06-15T18:55:09Z</time>
      </trkpt>
      <trkpt lat="43.380384" lon="-2.699457">
        <ele>28.229</ele>
        <time>2019-06-15T18:55:10Z</time>
      </trkpt>
      <trkpt lat="43.380511" lon="-2.699419">
        <ele>27.521</ele>
        <time>2019-06-15T18:55:11Z</time>
      </trkpt>
      <trkpt lat="43.380633" lon="-2.699361">
        <ele>26.708</ele>
        <time>2019-06-15T18:55:12Z</time>
      </trkpt>
      <trkpt lat="43.380760" lon="-2.699299">
        <ele>25.587</ele>
        <time>2019-06-15T18:55:13Z</time>
      </trkpt>
      <trkpt lat="43.380894" lon="-2.699265">
        <ele>23.911</ele>
        <time>2019-06-15T18:55:14Z</time>
      </trkpt>
      <trkpt lat="43.381018" lon="-2.699196">
        <ele>22.890</ele>
        <time>2019-06-15T18:55:15Z</time>
      </trkpt>
      <trkpt lat="43.381147" lon="-2.699133">
        <ele>22.089</ele>
        <time>2019-06-15T18:55:16Z</time>
      </trkpt>
      <trkpt lat="43.381235" lon="-2.699050">
        <ele>21.698</ele>
        <time>2019-06-15T18:55:17Z</time>
      </trkpt>
      <trkpt lat="43.381343" lon="-2.698976">
        <ele>19.949</ele>
        <time>2019-06-15T18:55:18Z</time>
      </trkpt>
      <trkpt lat="43.381504" lon="-2.698936">
        <ele>18.288</ele>
        <time>2019-06-15T18:55:19Z</time>
      </trkpt>
      <trkpt lat="43.381625" lon="-2.698883">
        <ele>17.322</ele>
        <time>2019-06-15T18:55:20Z</time>
      </trkpt>
      <trkpt lat="43.381742" lon="-2.698840">
        <ele>16.671</ele>
        <time>2019-06-15T18:55:21Z</time>
      </trkpt>
      <trkpt lat="43.381833" lon="-2.698790">
        <ele>16.041</ele>
        <time>2019-06-15T18:55:22Z</time>
      </trkpt>
      <trkpt lat="43.381926" lon="-2.698743">
        <ele>15.515</ele>
        <time>2019-06-15T18:55:23Z</time>
      </trkpt>
      <trkpt lat="43.381995" lon="-2.698707">
        <ele>15.408</ele>
        <time>2019-06-15T18:55:24Z</time>
      </trkpt>
      <trkpt lat="43.382056" lon="-2.698682">
        <ele>15.450</ele>
        <time>2019-06-15T18:55:25Z</time>
      </trkpt>
      <trkpt lat="43.382107" lon="-2.698658">
        <ele>15.374</ele>
        <time>2019-06-15T18:55:26Z</time>
      </trkpt>
      <trkpt lat="43.382161" lon="-2.698627">
        <ele>15.123</ele>
        <time>2019-06-15T18:55:27Z</time>
      </trkpt>
      <trkpt lat="43.382207" lon="-2.698604">
        <ele>15.022</ele>
        <time>2019-06-15T18:55:28Z</time>
      </trkpt>
      <trkpt lat="43.382272" lon="-2.698573">
        <ele>15.011</ele>
        <time>2019-06-15T18:55:30Z</time>
      </trkpt>
      <trkpt lat="43.382325" lon="-2.698523">
        <ele>15.112</ele>
        <time>2019-06-15T18:55:42Z</time>
      </trkpt>
      <trkpt lat="43.382387" lon="-2.698489">
        <ele>15.281</ele>
        <time>2019-06-15T18:55:43Z</time>
      </trkpt>
      <trkpt lat="43.382502" lon="-2.698439">
        <ele>15.465</ele>
        <time>2019-06-15T18:55:44Z</time>
      </trkpt>
      <trkpt lat="43.382593" lon="-2.698379">
        <ele>15.171</ele>
        <time>2019-06-15T18:55:45Z</time>
      </trkpt>
      <trkpt lat="43.382705" lon="-2.698320">
        <ele>15.041</ele>
        <time>2019-06-15T18:55:46Z</time>
      </trkpt>
      <trkpt lat="43.382845" lon="-2.698255">
        <ele>15.015</ele>
        <time>2019-06-15T18:55:47Z</time>
      </trkpt>
      <trkpt lat="43.382985" lon="-2.698194">
        <ele>15.208</ele>
        <time>2019-06-15T18:55:48Z</time>
      </trkpt>
      <trkpt lat="43.383142" lon="-2.698121">
        <ele>15.590</ele>
        <time>2019-06-15T18:55:49Z</time>
      </trkpt>
      <trkpt lat="43.383302" lon="-2.698052">
        <ele>15.984</ele>
        <time>2019-06-15T18:55:50Z</time>
      </trkpt>
      <trkpt lat="43.383440" lon="-2.697975">
        <ele>16.913</ele>
        <time>2019-06-15T18:55:51Z</time>
      </trkpt>
      <trkpt lat="43.383617" lon="-2.697902">
        <ele>18.072</ele>
        <time>2019-06-15T18:55:52Z</time>
      </trkpt>
      <trkpt lat="43.383775" lon="-2.697831">
        <ele>19.231</ele>
        <time>2019-06-15T18:55:53Z</time>
      </trkpt>
      <trkpt lat="43.383926" lon="-2.697752">
        <ele>20.312</ele>
        <time>2019-06-15T18:55:54Z</time>
      </trkpt>
      <trkpt lat="43.384084" lon="-2.697681">
        <ele>21.591</ele>
        <time>2019-06-15T18:55:55Z</time>
      </trkpt>
      <trkpt lat="43.384240" lon="-2.697603">
        <ele>22.565</ele>
        <time>2019-06-15T18:55:56Z</time>
      </trkpt>
      <trkpt lat="43.384406" lon="-2.697549">
        <ele>23.752</ele>
        <time>2019-06-15T18:55:57Z</time>
      </trkpt>
      <trkpt lat="43.384560" lon="-2.697471">
        <ele>25.053</ele>
        <time>2019-06-15T18:55:58Z</time>
      </trkpt>
      <trkpt lat="43.384715" lon="-2.697394">
        <ele>26.308</ele>
        <time>2019-06-15T18:55:59Z</time>
      </trkpt>
      <trkpt lat="43.384863" lon="-2.697327">
        <ele>27.108</ele>
        <time>2019-06-15T18:56:00Z</time>
      </trkpt>
      <trkpt lat="43.385014" lon="-2.697255">
        <ele>28.028</ele>
        <time>2019-06-15T18:56:01Z</time>
      </trkpt>
      <trkpt lat="43.385179" lon="-2.697195">
        <ele>29.362</ele>
        <time>2019-06-15T18:56:02Z</time>
      </trkpt>
      <trkpt lat="43.385317" lon="-2.697130">
        <ele>30.171</ele>
        <time>2019-06-15T18:56:03Z</time>
      </trkpt>
      <trkpt lat="43.385467" lon="-2.697052">
        <ele>30.370</ele>
        <time>2019-06-15T18:56:04Z</time>
      </trkpt>
      <trkpt lat="43.385633" lon="-2.696992">
        <ele>29.839</ele>
        <time>2019-06-15T18:56:05Z</time>
      </trkpt>
      <trkpt lat="43.385789" lon="-2.696917">
        <ele>29.250</ele>
        <time>2019-06-15T18:56:06Z</time>
      </trkpt>
      <trkpt lat="43.385950" lon="-2.696842">
        <ele>27.759</ele>
        <time>2019-06-15T18:56:07Z</time>
      </trkpt>
      <trkpt lat="43.386128" lon="-2.696764">
        <ele>25.943</ele>
        <time>2019-06-15T18:56:08Z</time>
      </trkpt>
      <trkpt lat="43.386263" lon="-2.696695">
        <ele>24.943</ele>
        <time>2019-06-15T18:56:09Z</time>
      </trkpt>
      <trkpt lat="43.386426" lon="-2.696631">
        <ele>23.764</ele>
        <time>2019-06-15T18:56:10Z</time>
      </trkpt>
      <trkpt lat="43.386600" lon="-2.696555">
        <ele>22.210</ele>
        <time>2019-06-15T18:56:11Z</time>
      </trkpt>
      <trkpt lat="43.386760" lon="-2.696481">
        <ele>20.708</ele>
        <time>2019-06-15T18:56:12Z</time>
      </trkpt>
      <trkpt lat="43.386873" lon="-2.696422">
        <ele>19.677</ele>
        <time>2019-06-15T18:56:13Z</time>
      </trkpt>
      <trkpt lat="43.387051" lon="-2.696354">
        <ele>18.741</ele>
        <time>2019-06-15T18:56:14Z</time>
      </trkpt>
      <trkpt lat="43.387198" lon="-2.696282">
        <ele>18.110</ele>
        <time>2019-06-15T18:56:15Z</time>
      </trkpt>
      <trkpt lat="43.387332" lon="-2.696232">
        <ele>17.829</ele>
        <time>2019-06-15T18:56:16Z</time>
      </trkpt>
      <trkpt lat="43.387474" lon="-2.696167">
        <ele>17.328</ele>
        <time>2019-06-15T18:56:17Z</time>
      </trkpt>
      <trkpt lat="43.387610" lon="-2.696112">
        <ele>16.669</ele>
        <time>2019-06-15T18:56:18Z</time>
      </trkpt>
      <trkpt lat="43.387756" lon="-2.696052">
        <ele>15.768</ele>
        <time>2019-06-15T18:56:19Z</time>
      </trkpt>
      <trkpt lat="43.387884" lon="-2.696000">
        <ele>15.272</ele>
        <time>2019-06-15T18:56:20Z</time>
      </trkpt>
      <trkpt lat="43.388007" lon="-2.695940">
        <ele>14.883</ele>
        <time>2019-06-15T18:56:21Z</time>
      </trkpt>
      <trkpt lat="43.388111" lon="-2.695847">
        <ele>14.125</ele>
        <time>2019-06-15T18:56:22Z</time>
      </trkpt>
      <trkpt lat="43.388208" lon="-2.695765">
        <ele>13.617</ele>
        <time>2019-06-15T18:56:23Z</time>
      </trkpt>
      <trkpt lat="43.388295" lon="-2.695708">
        <ele>13.508</ele>
        <time>2019-06-15T18:56:24Z</time>
      </trkpt>
      <trkpt lat="43.388392" lon="-2.695650">
        <ele>13.121</ele>
        <time>2019-06-15T18:56:25Z</time>
      </trkpt>
      <trkpt lat="43.388507" lon="-2.695639">
        <ele>12.785</ele>
        <time>2019-06-15T18:56:26Z</time>
      </trkpt>
      <trkpt lat="43.388637" lon="-2.695629">
        <ele>12.484</ele>
        <time>2019-06-15T18:56:27Z</time>
      </trkpt>
      <trkpt lat="43.388770" lon="-2.695589">
        <ele>12.853</ele>
        <time>2019-06-15T18:56:28Z</time>
      </trkpt>
      <trkpt lat="43.388916" lon="-2.695529">
        <ele>12.932</ele>
        <time>2019-06-15T18:56:29Z</time>
      </trkpt>
      <trkpt lat="43.389067" lon="-2.695460">
        <ele>13.093</ele>
        <time>2019-06-15T18:56:30Z</time>
      </trkpt>
      <trkpt lat="43.389219" lon="-2.695387">
        <ele>13.192</ele>
        <time>2019-06-15T18:56:31Z</time>
      </trkpt>
      <trkpt lat="43.389399" lon="-2.695306">
        <ele>13.256</ele>
        <time>2019-06-15T18:56:32Z</time>
      </trkpt>
      <trkpt lat="43.389553" lon="-2.695232">
        <ele>12.681</ele>
        <time>2019-06-15T18:56:33Z</time>
      </trkpt>
      <trkpt lat="43.389716" lon="-2.695158">
        <ele>12.161</ele>
        <time>2019-06-15T18:56:34Z</time>
      </trkpt>
      <trkpt lat="43.389875" lon="-2.695083">
        <ele>12.717</ele>
        <time>2019-06-15T18:56:35Z</time>
      </trkpt>
      <trkpt lat="43.389994" lon="-2.695011">
        <ele>13.008</ele>
        <time>2019-06-15T18:56:36Z</time>
      </trkpt>
      <trkpt lat="43.390144" lon="-2.694930">
        <ele>14.181</ele>
        <time>2019-06-15T18:56:37Z</time>
      </trkpt>
      <trkpt lat="43.390284" lon="-2.694862">
        <ele>15.135</ele>
        <time>2019-06-15T18:56:38Z</time>
      </trkpt>
      <trkpt lat="43.390430" lon="-2.694794">
        <ele>15.624</ele>
        <time>2019-06-15T18:56:39Z</time>
      </trkpt>
      <trkpt lat="43.390580" lon="-2.694720">
        <ele>15.083</ele>
        <time>2019-06-15T18:56:40Z</time>
      </trkpt>
      <trkpt lat="43.390738" lon="-2.694644">
        <ele>14.282</ele>
        <time>2019-06-15T18:56:41Z</time>
      </trkpt>
      <trkpt lat="43.390877" lon="-2.694596">
        <ele>13.983</ele>
        <time>2019-06-15T18:56:42Z</time>
      </trkpt>
      <trkpt lat="43.391002" lon="-2.694537">
        <ele>13.562</ele>
        <time>2019-06-15T18:56:43Z</time>
      </trkpt>
      <trkpt lat="43.391149" lon="-2.694489">
        <ele>13.396</ele>
        <time>2019-06-15T18:56:44Z</time>
      </trkpt>
      <trkpt lat="43.391278" lon="-2.694445">
        <ele>12.414</ele>
        <time>2019-06-15T18:56:45Z</time>
      </trkpt>
      <trkpt lat="43.391377" lon="-2.694454">
        <ele>12.154</ele>
        <time>2019-06-15T18:56:46Z</time>
      </trkpt>
      <trkpt lat="43.391495" lon="-2.694430">
        <ele>11.009</ele>
        <time>2019-06-15T18:56:47Z</time>
      </trkpt>
      <trkpt lat="43.391609" lon="-2.694414">
        <ele>10.108</ele>
        <time>2019-06-15T18:56:48Z</time>
      </trkpt>
      <trkpt lat="43.391702" lon="-2.694512">
        <ele>10.134</ele>
        <time>2019-06-15T18:56:49Z</time>
      </trkpt>
      <trkpt lat="43.391795" lon="-2.694568">
        <ele>9.358</ele>
        <time>2019-06-15T18:56:50Z</time>
      </trkpt>
      <trkpt lat="43.391869" lon="-2.694646">
        <ele>8.767</ele>
        <time>2019-06-15T18:56:51Z</time>
      </trkpt>
      <trkpt lat="43.391920" lon="-2.694764">
        <ele>8.596</ele>
        <time>2019-06-15T18:56:52Z</time>
      </trkpt>
      <trkpt lat="43.391986" lon="-2.694877">
        <ele>7.815</ele>
        <time>2019-06-15T18:56:53Z</time>
      </trkpt>
      <trkpt lat="43.392010" lon="-2.695047">
        <ele>7.886</ele>
        <time>2019-06-15T18:56:54Z</time>
      </trkpt>
      <trkpt lat="43.392048" lon="-2.695197">
        <ele>7.585</ele>
        <time>2019-06-15T18:56:55Z</time>
      </trkpt>
      <trkpt lat="43.392064" lon="-2.695329">
        <ele>7.439</ele>
        <time>2019-06-15T18:56:56Z</time>
      </trkpt>
      <trkpt lat="43.392065" lon="-2.695459">
        <ele>7.451</ele>
        <time>2019-06-15T18:56:57Z</time>
      </trkpt>
      <trkpt lat="43.392060" lon="-2.695586">
        <ele>7.301</ele>
        <time>2019-06-15T18:56:58Z</time>
      </trkpt>
      <trkpt lat="43.392015" lon="-2.695699">
        <ele>7.311</ele>
        <time>2019-06-15T18:56:59Z</time>
      </trkpt>
      <trkpt lat="43.391981" lon="-2.695818">
        <ele>6.708</ele>
        <time>2019-06-15T18:57:00Z</time>
      </trkpt>
      <trkpt lat="43.391943" lon="-2.695951">
        <ele>5.878</ele>
        <time>2019-06-15T18:57:01Z</time>
      </trkpt>
      <trkpt lat="43.391926" lon="-2.696073">
        <ele>5.182</ele>
        <time>2019-06-15T18:57:02Z</time>
      </trkpt>
      <trkpt lat="43.391903" lon="-2.696204">
        <ele>5.221</ele>
        <time>2019-06-15T18:57:03Z</time>
      </trkpt>
      <trkpt lat="43.391898" lon="-2.696336">
        <ele>4.990</ele>
        <time>2019-06-15T18:57:04Z</time>
      </trkpt>
      <trkpt lat="43.391939" lon="-2.696435">
        <ele>4.249</ele>
        <time>2019-06-15T18:57:05Z</time>
      </trkpt>
      <trkpt lat="43.391974" lon="-2.696544">
        <ele>4.560</ele>
        <time>2019-06-15T18:57:06Z</time>
      </trkpt>
      <trkpt lat="43.392027" lon="-2.696636">
        <ele>4.999</ele>
        <time>2019-06-15T18:57:07Z</time>
      </trkpt>
      <trkpt lat="43.392111" lon="-2.696697">
        <ele>5.023</ele>
        <time>2019-06-15T18:57:08Z</time>
      </trkpt>
      <trkpt lat="43.392211" lon="-2.696736">
        <ele>5.082</ele>
        <time>2019-06-15T18:57:09Z</time>
      </trkpt>
      <trkpt lat="43.392330" lon="-2.696769">
        <ele>4.943</ele>
        <time>2019-06-15T18:57:10Z</time>
      </trkpt>
      <trkpt lat="43.392477" lon="-2.696802">
        <ele>5.017</ele>
        <time>2019-06-15T18:57:11Z</time>
      </trkpt>
      <trkpt lat="43.392589" lon="-2.696867">
        <ele>5.908</ele>
        <time>2019-06-15T18:57:12Z</time>
      </trkpt>
      <trkpt lat="43.392718" lon="-2.696889">
        <ele>6.591</ele>
        <time>2019-06-15T18:57:13Z</time>
      </trkpt>
      <trkpt lat="43.392855" lon="-2.696936">
        <ele>7.845</ele>
        <time>2019-06-15T18:57:14Z</time>
      </trkpt>
      <trkpt lat="43.392995" lon="-2.696974">
        <ele>9.064</ele>
        <time>2019-06-15T18:57:15Z</time>
      </trkpt>
      <trkpt lat="43.393140" lon="-2.697007">
        <ele>9.883</ele>
        <time>2019-06-15T18:57:16Z</time>
      </trkpt>
      <trkpt lat="43.393279" lon="-2.697052">
        <ele>10.772</ele>
        <time>2019-06-15T18:57:17Z</time>
      </trkpt>
      <trkpt lat="43.393401" lon="-2.697086">
        <ele>12.383</ele>
        <time>2019-06-15T18:57:18Z</time>
      </trkpt>
      <trkpt lat="43.393518" lon="-2.697127">
        <ele>14.292</ele>
        <time>2019-06-15T18:57:19Z</time>
      </trkpt>
      <trkpt lat="43.393636" lon="-2.697165">
        <ele>16.036</ele>
        <time>2019-06-15T18:57:20Z</time>
      </trkpt>
      <trkpt lat="43.393748" lon="-2.697200">
        <ele>17.313</ele>
        <time>2019-06-15T18:57:21Z</time>
      </trkpt>
      <trkpt lat="43.393848" lon="-2.697221">
        <ele>18.443</ele>
        <time>2019-06-15T18:57:22Z</time>
      </trkpt>
      <trkpt lat="43.393941" lon="-2.697245">
        <ele>19.707</ele>
        <time>2019-06-15T18:57:23Z</time>
      </trkpt>
      <trkpt lat="43.394046" lon="-2.697281">
        <ele>21.108</ele>
        <time>2019-06-15T18:57:24Z</time>
      </trkpt>
      <trkpt lat="43.394151" lon="-2.697321">
        <ele>22.464</ele>
        <time>2019-06-15T18:57:25Z</time>
      </trkpt>
      <trkpt lat="43.394262" lon="-2.697355">
        <ele>23.648</ele>
        <time>2019-06-15T18:57:26Z</time>
      </trkpt>
      <trkpt lat="43.394378" lon="-2.697393">
        <ele>24.747</ele>
        <time>2019-06-15T18:57:27Z</time>
      </trkpt>
      <trkpt lat="43.394483" lon="-2.697432">
        <ele>25.866</ele>
        <time>2019-06-15T18:57:28Z</time>
      </trkpt>
      <trkpt lat="43.394593" lon="-2.697466">
        <ele>27.315</ele>
        <time>2019-06-15T18:57:29Z</time>
      </trkpt>
      <trkpt lat="43.394688" lon="-2.697500">
        <ele>28.526</ele>
        <time>2019-06-15T18:57:30Z</time>
      </trkpt>
      <trkpt lat="43.394786" lon="-2.697526">
        <ele>29.425</ele>
        <time>2019-06-15T18:57:31Z</time>
      </trkpt>
      <trkpt lat="43.394877" lon="-2.697558">
        <ele>30.339</ele>
        <time>2019-06-15T18:57:32Z</time>
      </trkpt>
      <trkpt lat="43.394972" lon="-2.697596">
        <ele>31.451</ele>
        <time>2019-06-15T18:57:33Z</time>
      </trkpt>
      <trkpt lat="43.395066" lon="-2.697631">
        <ele>32.701</ele>
        <time>2019-06-15T18:57:34Z</time>
      </trkpt>
      <trkpt lat="43.395160" lon="-2.697663">
        <ele>33.811</ele>
        <time>2019-06-15T18:57:35Z</time>
      </trkpt>
      <trkpt lat="43.395250" lon="-2.697704">
        <ele>34.708</ele>
        <time>2019-06-15T18:57:36Z</time>
      </trkpt>
      <trkpt lat="43.395344" lon="-2.697720">
        <ele>35.068</ele>
        <time>2019-06-15T18:57:37Z</time>
      </trkpt>
      <trkpt lat="43.395425" lon="-2.697747">
        <ele>35.052</ele>
        <time>2019-06-15T18:57:38Z</time>
      </trkpt>
      <trkpt lat="43.395472" lon="-2.697745">
        <ele>35.091</ele>
        <time>2019-06-15T18:57:39Z</time>
      </trkpt>
      <trkpt lat="43.395521" lon="-2.697767">
        <ele>35.030</ele>
        <time>2019-06-15T18:57:45Z</time>
      </trkpt>
      <trkpt lat="43.395593" lon="-2.697806">
        <ele>35.089</ele>
        <time>2019-06-15T18:57:50Z</time>
      </trkpt>
      <trkpt lat="43.395688" lon="-2.697811">
        <ele>34.530</ele>
        <time>2019-06-15T18:57:51Z</time>
      </trkpt>
      <trkpt lat="43.395774" lon="-2.697856">
        <ele>34.519</ele>
        <time>2019-06-15T18:57:52Z</time>
      </trkpt>
      <trkpt lat="43.395878" lon="-2.697872">
        <ele>33.843</ele>
        <time>2019-06-15T18:57:53Z</time>
      </trkpt>
      <trkpt lat="43.395992" lon="-2.697892">
        <ele>32.796</ele>
        <time>2019-06-15T18:57:54Z</time>
      </trkpt>
      <trkpt lat="43.396097" lon="-2.697914">
        <ele>31.631</ele>
        <time>2019-06-15T18:57:55Z</time>
      </trkpt>
      <trkpt lat="43.396205" lon="-2.697941">
        <ele>30.624</ele>
        <time>2019-06-15T18:57:56Z</time>
      </trkpt>
      <trkpt lat="43.396300" lon="-2.697922">
        <ele>29.208</ele>
        <time>2019-06-15T18:57:57Z</time>
      </trkpt>
      <trkpt lat="43.396411" lon="-2.697954">
        <ele>28.172</ele>
        <time>2019-06-15T18:57:58Z</time>
      </trkpt>
      <trkpt lat="43.396524" lon="-2.697993">
        <ele>27.236</ele>
        <time>2019-06-15T18:57:59Z</time>
      </trkpt>
      <trkpt lat="43.396649" lon="-2.698029">
        <ele>26.155</ele>
        <time>2019-06-15T18:58:00Z</time>
      </trkpt>
      <trkpt lat="43.396776" lon="-2.698071">
        <ele>24.934</ele>
        <time>2019-06-15T18:58:01Z</time>
      </trkpt>
      <trkpt lat="43.396896" lon="-2.698075">
        <ele>23.753</ele>
        <time>2019-06-15T18:58:02Z</time>
      </trkpt>
      <trkpt lat="43.397061" lon="-2.698130">
        <ele>22.244</ele>
        <time>2019-06-15T18:58:03Z</time>
      </trkpt>
      <trkpt lat="43.397220" lon="-2.698180">
        <ele>20.843</ele>
        <time>2019-06-15T18:58:04Z</time>
      </trkpt>
      <trkpt lat="43.397413" lon="-2.698304">
        <ele>19.787</ele>
        <time>2019-06-15T18:58:05Z</time>
      </trkpt>
      <trkpt lat="43.397593" lon="-2.698357">
        <ele>17.942</ele>
        <time>2019-06-15T18:58:06Z</time>
      </trkpt>
      <trkpt lat="43.397764" lon="-2.698405">
        <ele>15.522</ele>
        <time>2019-06-15T18:58:07Z</time>
      </trkpt>
      <trkpt lat="43.397932" lon="-2.698473">
        <ele>19.114</ele>
        <time>2019-06-15T18:58:08Z</time>
      </trkpt>
      <trkpt lat="43.398092" lon="-2.698503">
        <ele>23.008</ele>
        <time>2019-06-15T18:58:09Z</time>
      </trkpt>
      <trkpt lat="43.398239" lon="-2.698492">
        <ele>25.397</ele>
        <time>2019-06-15T18:58:10Z</time>
      </trkpt>
      <trkpt lat="43.398373" lon="-2.698445">
        <ele>26.431</ele>
        <time>2019-06-15T18:58:11Z</time>
      </trkpt>
      <trkpt lat="43.398503" lon="-2.698395">
        <ele>27.020</ele>
        <time>2019-06-15T18:58:12Z</time>
      </trkpt>
      <trkpt lat="43.398585" lon="-2.698224">
        <ele>28.049</ele>
        <time>2019-06-15T18:58:13Z</time>
      </trkpt>
      <trkpt lat="43.398681" lon="-2.698086">
        <ele>30.988</ele>
        <time>2019-06-15T18:58:14Z</time>
      </trkpt>
      <trkpt lat="43.398774" lon="-2.697948">
        <ele>34.729</ele>
        <time>2019-06-15T18:58:15Z</time>
      </trkpt>
      <trkpt lat="43.398765" lon="-2.697734">
        <ele>36.148</ele>
        <time>2019-06-15T18:58:16Z</time>
      </trkpt>
      <trkpt lat="43.398818" lon="-2.697554">
        <ele>38.122</ele>
        <time>2019-06-15T18:58:17Z</time>
      </trkpt>
      <trkpt lat="43.398880" lon="-2.697344">
        <ele>38.718</ele>
        <time>2019-06-15T18:58:18Z</time>
      </trkpt>
      <trkpt lat="43.398938" lon="-2.697152">
        <ele>39.198</ele>
        <time>2019-06-15T18:58:19Z</time>
      </trkpt>
      <trkpt lat="43.398996" lon="-2.696947">
        <ele>39.317</ele>
        <time>2019-06-15T18:58:20Z</time>
      </trkpt>
      <trkpt lat="43.399056" lon="-2.696756">
        <ele>40.908</ele>
        <time>2019-06-15T18:58:21Z</time>
      </trkpt>
      <trkpt lat="43.399138" lon="-2.696581">
        <ele>42.264</ele>
        <time>2019-06-15T18:58:22Z</time>
      </trkpt>
      <trkpt lat="43.399215" lon="-2.696407">
        <ele>43.558</ele>
        <time>2019-06-15T18:58:23Z</time>
      </trkpt>
      <trkpt lat="43.399308" lon="-2.696251">
        <ele>44.687</ele>
        <time>2019-06-15T18:58:24Z</time>
      </trkpt>
      <trkpt lat="43.399401" lon="-2.696096">
        <ele>44.816</ele>
        <time>2019-06-15T18:58:25Z</time>
      </trkpt>
      <trkpt lat="43.399552" lon="-2.696007">
        <ele>48.165</ele>
        <time>2019-06-15T18:58:26Z</time>
      </trkpt>
      <trkpt lat="43.399664" lon="-2.695885">
        <ele>49.496</ele>
        <time>2019-06-15T18:58:27Z</time>
      </trkpt>
      <trkpt lat="43.399782" lon="-2.695760">
        <ele>50.435</ele>
        <time>2019-06-15T18:58:28Z</time>
      </trkpt>
      <trkpt lat="43.399893" lon="-2.695647">
        <ele>51.239</ele>
        <time>2019-06-15T18:58:29Z</time>
      </trkpt>
      <trkpt lat="43.400018" lon="-2.695541">
        <ele>51.794</ele>
        <time>2019-06-15T18:58:30Z</time>
      </trkpt>
      <trkpt lat="43.400159" lon="-2.695461">
        <ele>50.757</ele>
        <time>2019-06-15T18:58:31Z</time>
      </trkpt>
      <trkpt lat="43.400297" lon="-2.695387">
        <ele>49.422</ele>
        <time>2019-06-15T18:58:32Z</time>
      </trkpt>
      <trkpt lat="43.400432" lon="-2.695336">
        <ele>47.208</ele>
        <time>2019-06-15T18:58:33Z</time>
      </trkpt>
      <trkpt lat="43.400553" lon="-2.695332">
        <ele>46.682</ele>
        <time>2019-06-15T18:58:34Z</time>
      </trkpt>
      <trkpt lat="43.400683" lon="-2.695356">
        <ele>44.576</ele>
        <time>2019-06-15T18:58:35Z</time>
      </trkpt>
      <trkpt lat="43.400808" lon="-2.695408">
        <ele>43.325</ele>
        <time>2019-06-15T18:58:36Z</time>
      </trkpt>
      <trkpt lat="43.400949" lon="-2.695472">
        <ele>40.544</ele>
        <time>2019-06-15T18:58:37Z</time>
      </trkpt>
      <trkpt lat="43.401093" lon="-2.695601">
        <ele>41.063</ele>
        <time>2019-06-15T18:58:38Z</time>
      </trkpt>
      <trkpt lat="43.401223" lon="-2.695713">
        <ele>40.584</ele>
        <time>2019-06-15T18:58:39Z</time>
      </trkpt>
      <trkpt lat="43.401372" lon="-2.695825">
        <ele>39.393</ele>
        <time>2019-06-15T18:58:40Z</time>
      </trkpt>
      <trkpt lat="43.401524" lon="-2.695945">
        <ele>37.797</ele>
        <time>2019-06-15T18:58:41Z</time>
      </trkpt>
      <trkpt lat="43.401682" lon="-2.696059">
        <ele>35.573</ele>
        <time>2019-06-15T18:58:42Z</time>
      </trkpt>
      <trkpt lat="43.401829" lon="-2.696164">
        <ele>34.285</ele>
        <time>2019-06-15T18:58:43Z</time>
      </trkpt>
      <trkpt lat="43.401994" lon="-2.696286">
        <ele>32.413</ele>
        <time>2019-06-15T18:58:44Z</time>
      </trkpt>
      <trkpt lat="43.402139" lon="-2.696396">
        <ele>31.608</ele>
        <time>2019-06-15T18:58:45Z</time>
      </trkpt>
      <trkpt lat="43.402288" lon="-2.696493">
        <ele>30.610</ele>
        <time>2019-06-15T18:58:46Z</time>
      </trkpt>
      <trkpt lat="43.402433" lon="-2.696589">
        <ele>29.364</ele>
        <time>2019-06-15T18:58:47Z</time>
      </trkpt>
      <trkpt lat="43.402551" lon="-2.696713">
        <ele>28.783</ele>
        <time>2019-06-15T18:58:48Z</time>
      </trkpt>
      <trkpt lat="43.402679" lon="-2.696825">
        <ele>27.782</ele>
        <time>2019-06-15T18:58:49Z</time>
      </trkpt>
      <trkpt lat="43.402804" lon="-2.696941">
        <ele>26.431</ele>
        <time>2019-06-15T18:58:50Z</time>
      </trkpt>
      <trkpt lat="43.402924" lon="-2.697071">
        <ele>24.762</ele>
        <time>2019-06-15T18:58:51Z</time>
      </trkpt>
      <trkpt lat="43.403038" lon="-2.697229">
        <ele>22.581</ele>
        <time>2019-06-15T18:58:52Z</time>
      </trkpt>
      <trkpt lat="43.403136" lon="-2.697432">
        <ele>19.495</ele>
        <time>2019-06-15T18:58:53Z</time>
      </trkpt>
      <trkpt lat="43.403228" lon="-2.697639">
        <ele>18.629</ele>
        <time>2019-06-15T18:58:54Z</time>
      </trkpt>
      <trkpt lat="43.403327" lon="-2.697844">
        <ele>18.300</ele>
        <time>2019-06-15T18:58:55Z</time>
      </trkpt>
      <trkpt lat="43.403416" lon="-2.698055">
        <ele>17.220</ele>
        <time>2019-06-15T18:58:56Z</time>
      </trkpt>
      <trkpt lat="43.403511" lon="-2.698260">
        <ele>16.108</ele>
        <time>2019-06-15T18:58:57Z</time>
      </trkpt>
      <trkpt lat="43.403614" lon="-2.698464">
        <ele>13.565</ele>
        <time>2019-06-15T18:58:58Z</time>
      </trkpt>
      <trkpt lat="43.403709" lon="-2.698694">
        <ele>8.689</ele>
        <time>2019-06-15T18:58:59Z</time>
      </trkpt>
      <trkpt lat="43.403809" lon="-2.698924">
        <ele>6.588</ele>
        <time>2019-06-15T18:59:00Z</time>
      </trkpt>
      <trkpt lat="43.403910" lon="-2.699129">
        <ele>10.267</ele>
        <time>2019-06-15T18:59:01Z</time>
      </trkpt>
      <trkpt lat="43.404007" lon="-2.699376">
        <ele>11.176</ele>
        <time>2019-06-15T18:59:02Z</time>
      </trkpt>
      <trkpt lat="43.404106" lon="-2.699614">
        <ele>12.257</ele>
        <time>2019-06-15T18:59:03Z</time>
      </trkpt>
      <trkpt lat="43.404154" lon="-2.699800">
        <ele>13.396</ele>
        <time>2019-06-15T18:59:04Z</time>
      </trkpt>
      <trkpt lat="43.404225" lon="-2.699995">
        <ele>12.690</ele>
        <time>2019-06-15T18:59:05Z</time>
      </trkpt>
      <trkpt lat="43.404326" lon="-2.700182">
        <ele>10.283</ele>
        <time>2019-06-15T18:59:06Z</time>
      </trkpt>
      <trkpt lat="43.404416" lon="-2.700353">
        <ele>7.225</ele>
        <time>2019-06-15T18:59:07Z</time>
      </trkpt>
      <trkpt lat="43.404528" lon="-2.700501">
        <ele>6.817</ele>
        <time>2019-06-15T18:59:08Z</time>
      </trkpt>
      <trkpt lat="43.404680" lon="-2.700603">
        <ele>6.808</ele>
        <time>2019-06-15T18:59:09Z</time>
      </trkpt>
      <trkpt lat="43.404821" lon="-2.700697">
        <ele>10.681</ele>
        <time>2019-06-15T18:59:10Z</time>
      </trkpt>
      <trkpt lat="43.404969" lon="-2.700745">
        <ele>16.485</ele>
        <time>2019-06-15T18:59:11Z</time>
      </trkpt>
      <trkpt lat="43.405128" lon="-2.700745">
        <ele>19.434</ele>
        <time>2019-06-15T18:59:12Z</time>
      </trkpt>
      <trkpt lat="43.405286" lon="-2.700713">
        <ele>21.593</ele>
        <time>2019-06-15T18:59:13Z</time>
      </trkpt>
      <trkpt lat="43.405444" lon="-2.700638">
        <ele>23.942</ele>
        <time>2019-06-15T18:59:14Z</time>
      </trkpt>
      <trkpt lat="43.405605" lon="-2.700561">
        <ele>25.693</ele>
        <time>2019-06-15T18:59:15Z</time>
      </trkpt>
      <trkpt lat="43.405779" lon="-2.700487">
        <ele>28.932</ele>
        <time>2019-06-15T18:59:16Z</time>
      </trkpt>
      <trkpt lat="43.405939" lon="-2.700416">
        <ele>30.046</ele>
        <time>2019-06-15T18:59:17Z</time>
      </trkpt>
      <trkpt lat="43.406107" lon="-2.700364">
        <ele>30.471</ele>
        <time>2019-06-15T18:59:18Z</time>
      </trkpt>
      <trkpt lat="43.406287" lon="-2.700339">
        <ele>30.441</ele>
        <time>2019-06-15T18:59:19Z</time>
      </trkpt>
      <trkpt lat="43.406454" lon="-2.700344">
        <ele>31.115</ele>
        <time>2019-06-15T18:59:20Z</time>
      </trkpt>
      <trkpt lat="43.406618" lon="-2.700400">
        <ele>32.008</ele>
        <time>2019-06-15T18:59:21Z</time>
      </trkpt>
      <trkpt lat="43.406776" lon="-2.700469">
        <ele>32.140</ele>
        <time>2019-06-15T18:59:22Z</time>
      </trkpt>
      <trkpt lat="43.406928" lon="-2.700576">
        <ele>32.474</ele>
        <time>2019-06-15T18:59:23Z</time>
      </trkpt>
      <trkpt lat="43.407092" lon="-2.700762">
        <ele>34.013</ele>
        <time>2019-06-15T18:59:24Z</time>
      </trkpt>
      <trkpt lat="43.407225" lon="-2.700937">
        <ele>34.072</ele>
        <time>2019-06-15T18:59:25Z</time>
      </trkpt>
      <trkpt lat="43.407326" lon="-2.701133">
        <ele>32.531</ele>
        <time>2019-06-15T18:59:26Z</time>
      </trkpt>
      <trkpt lat="43.407434" lon="-2.701312">
        <ele>32.992</ele>
        <time>2019-06-15T18:59:27Z</time>
      </trkpt>
      <trkpt lat="43.407560" lon="-2.701457">
        <ele>31.011</ele>
        <time>2019-06-15T18:59:28Z</time>
      </trkpt>
      <trkpt lat="43.407685" lon="-2.701580">
        <ele>29.945</ele>
        <time>2019-06-15T18:59:29Z</time>
      </trkpt>
      <trkpt lat="43.407837" lon="-2.701686">
        <ele>29.344</ele>
        <time>2019-06-15T18:59:30Z</time>
      </trkpt>
      <trkpt lat="43.407995" lon="-2.701772">
        <ele>29.205</ele>
        <time>2019-06-15T18:59:31Z</time>
      </trkpt>
      <trkpt lat="43.408162" lon="-2.701825">
        <ele>31.215</ele>
        <time>2019-06-15T18:59:32Z</time>
      </trkpt>
      <trkpt lat="43.408336" lon="-2.701798">
        <ele>32.408</ele>
        <time>2019-06-15T18:59:33Z</time>
      </trkpt>
      <trkpt lat="43.408545" lon="-2.701767">
        <ele>34.287</ele>
        <time>2019-06-15T18:59:34Z</time>
      </trkpt>
      <trkpt lat="43.408731" lon="-2.701717">
        <ele>34.321</ele>
        <time>2019-06-15T18:59:35Z</time>
      </trkpt>
      <trkpt lat="43.408924" lon="-2.701646">
        <ele>33.010</ele>
        <time>2019-06-15T18:59:36Z</time>
      </trkpt>
      <trkpt lat="43.409134" lon="-2.701581">
        <ele>33.069</ele>
        <time>2019-06-15T18:59:37Z</time>
      </trkpt>
      <trkpt lat="43.409337" lon="-2.701521">
        <ele>33.088</ele>
        <time>2019-06-15T18:59:38Z</time>
      </trkpt>
      <trkpt lat="43.409546" lon="-2.701461">
        <ele>32.199</ele>
        <time>2019-06-15T18:59:39Z</time>
      </trkpt>
      <trkpt lat="43.409780" lon="-2.701451">
        <ele>31.448</ele>
        <time>2019-06-15T18:59:40Z</time>
      </trkpt>
      <trkpt lat="43.410005" lon="-2.701447">
        <ele>30.752</ele>
        <time>2019-06-15T18:59:41Z</time>
      </trkpt>
      <trkpt lat="43.410219" lon="-2.701457">
        <ele>30.687</ele>
        <time>2019-06-15T18:59:42Z</time>
      </trkpt>
      <trkpt lat="43.410436" lon="-2.701480">
        <ele>30.042</ele>
        <time>2019-06-15T18:59:43Z</time>
      </trkpt>
      <trkpt lat="43.410648" lon="-2.701522">
        <ele>29.426</ele>
        <time>2019-06-15T18:59:44Z</time>
      </trkpt>
      <trkpt lat="43.410875" lon="-2.701574">
        <ele>29.008</ele>
        <time>2019-06-15T18:59:45Z</time>
      </trkpt>
      <trkpt lat="43.411085" lon="-2.701663">
        <ele>30.841</ele>
        <time>2019-06-15T18:59:46Z</time>
      </trkpt>
      <trkpt lat="43.411278" lon="-2.701757">
        <ele>32.065</ele>
        <time>2019-06-15T18:59:47Z</time>
      </trkpt>
      <trkpt lat="43.411467" lon="-2.701890">
        <ele>32.724</ele>
        <time>2019-06-15T18:59:48Z</time>
      </trkpt>
      <trkpt lat="43.411650" lon="-2.702023">
        <ele>35.183</ele>
        <time>2019-06-15T18:59:49Z</time>
      </trkpt>
      <trkpt lat="43.411830" lon="-2.702152">
        <ele>35.742</ele>
        <time>2019-06-15T18:59:50Z</time>
      </trkpt>
      <trkpt lat="43.412015" lon="-2.702281">
        <ele>36.193</ele>
        <time>2019-06-15T18:59:51Z</time>
      </trkpt>
      <trkpt lat="43.412203" lon="-2.702429">
        <ele>36.982</ele>
        <time>2019-06-15T18:59:52Z</time>
      </trkpt>
      <trkpt lat="43.412386" lon="-2.702576">
        <ele>37.776</ele>
        <time>2019-06-15T18:59:53Z</time>
      </trkpt>
      <trkpt lat="43.412560" lon="-2.702734">
        <ele>39.192</ele>
        <time>2019-06-15T18:59:54Z</time>
      </trkpt>
      <trkpt lat="43.412725" lon="-2.702894">
        <ele>40.373</ele>
        <time>2019-06-15T18:59:55Z</time>
      </trkpt>
      <trkpt lat="43.412916" lon="-2.703059">
        <ele>41.120</ele>
        <time>2019-06-15T18:59:56Z</time>
      </trkpt>
      <trkpt lat="43.413105" lon="-2.703225">
        <ele>42.908</ele>
        <time>2019-06-15T18:59:57Z</time>
      </trkpt>
      <trkpt lat="43.413290" lon="-2.703397">
        <ele>44.332</ele>
        <time>2019-06-15T18:59:58Z</time>
      </trkpt>
      <trkpt lat="43.413464" lon="-2.703559">
        <ele>43.896</ele>
        <time>2019-06-15T18:59:59Z</time>
      </trkpt>
      <trkpt lat="43.413647" lon="-2.703722">
        <ele>43.415</ele>
        <time>2019-06-15T19:00:00Z</time>
      </trkpt>
      <trkpt lat="43.413825" lon="-2.703886">
        <ele>47.954</ele>
        <time>2019-06-15T19:00:01Z</time>
      </trkpt>
      <trkpt lat="43.413999" lon="-2.704049">
        <ele>49.623</ele>
        <time>2019-06-15T19:00:02Z</time>
      </trkpt>
      <trkpt lat="43.414180" lon="-2.704218">
        <ele>51.924</ele>
        <time>2019-06-15T19:00:03Z</time>
      </trkpt>
      <trkpt lat="43.414359" lon="-2.704393">
        <ele>53.163</ele>
        <time>2019-06-15T19:00:04Z</time>
      </trkpt>
      <trkpt lat="43.414530" lon="-2.704570">
        <ele>53.987</ele>
        <time>2019-06-15T19:00:05Z</time>
      </trkpt>
      <trkpt lat="43.414693" lon="-2.704756">
        <ele>54.032</ele>
        <time>2019-06-15T19:00:06Z</time>
      </trkpt>
      <trkpt lat="43.414862" lon="-2.704940">
        <ele>53.792</ele>
        <time>2019-06-15T19:00:07Z</time>
      </trkpt>
      <trkpt lat="43.415031" lon="-2.705134">
        <ele>53.311</ele>
        <time>2019-06-15T19:00:08Z</time>
      </trkpt>
      <trkpt lat="43.415196" lon="-2.705319">
        <ele>53.108</ele>
        <time>2019-06-15T19:00:09Z</time>
      </trkpt>
      <trkpt lat="43.415359" lon="-2.705504">
        <ele>52.036</ele>
        <time>2019-06-15T19:00:10Z</time>
      </trkpt>
      <trkpt lat="43.415522" lon="-2.705679">
        <ele>51.510</ele>
        <time>2019-06-15T19:00:11Z</time>
      </trkpt>
      <trkpt lat="43.415675" lon="-2.705853">
        <ele>51.759</ele>
        <time>2019-06-15T19:00:12Z</time>
      </trkpt>
      <trkpt lat="43.415840" lon="-2.706017">
        <ele>51.278</ele>
        <time>2019-06-15T19:00:13Z</time>
      </trkpt>
      <trkpt lat="43.415979" lon="-2.706179">
        <ele>51.217</ele>
        <time>2019-06-15T19:00:14Z</time>
      </trkpt>
      <trkpt lat="43.416108" lon="-2.706335">
        <ele>50.528</ele>
        <time>2019-06-15T19:00:15Z</time>
      </trkpt>
      <trkpt lat="43.416243" lon="-2.706500">
        <ele>49.697</ele>
        <time>2019-06-15T19:00:16Z</time>
      </trkpt>
      <trkpt lat="43.416378" lon="-2.706691">
        <ele>48.521</ele>
        <time>2019-06-15T19:00:17Z</time>
      </trkpt>
      <trkpt lat="43.416516" lon="-2.706885">
        <ele>47.412</ele>
        <time>2019-06-15T19:00:18Z</time>
      </trkpt>
      <trkpt lat="43.416657" lon="-2.707093">
        <ele>46.332</ele>
        <time>2019-06-15T19:00:19Z</time>
      </trkpt>
      <trkpt lat="43.416790" lon="-2.707320">
        <ele>41.605</ele>
        <time>2019-06-15T19:00:20Z</time>
      </trkpt>
      <trkpt lat="43.416926" lon="-2.707563">
        <ele>42.208</ele>
        <time>2019-06-15T19:00:21Z</time>
      </trkpt>
      <trkpt lat="43.417054" lon="-2.707811">
        <ele>41.324</ele>
        <time>2019-06-15T19:00:22Z</time>
      </trkpt>
      <trkpt lat="43.417117" lon="-2.708067">
        <ele>40.518</ele>
        <time>2019-06-15T19:00:23Z</time>
      </trkpt>
      <trkpt lat="43.417255" lon="-2.708324">
        <ele>39.387</ele>
        <time>2019-06-15T19:00:24Z</time>
      </trkpt>
      <trkpt lat="43.417371" lon="-2.708571">
        <ele>36.096</ele>
        <time>2019-06-15T19:00:25Z</time>
      </trkpt>
      <trkpt lat="43.417449" lon="-2.708823">
        <ele>35.135</ele>
        <time>2019-06-15T19:00:26Z</time>
      </trkpt>
      <trkpt lat="43.417507" lon="-2.709071">
        <ele>34.776</ele>
        <time>2019-06-15T19:00:27Z</time>
      </trkpt>
      <trkpt lat="43.417580" lon="-2.709330">
        <ele>31.395</ele>
        <time>2019-06-15T19:00:28Z</time>
      </trkpt>
      <trkpt lat="43.417638" lon="-2.709590">
        <ele>32.119</ele>
        <time>2019-06-15T19:00:29Z</time>
      </trkpt>
      <trkpt lat="43.417662" lon="-2.709841">
        <ele>35.599</ele>
        <time>2019-06-15T19:00:30Z</time>
      </trkpt>
      <trkpt lat="43.417656" lon="-2.710095">
        <ele>38.007</ele>
        <time>2019-06-15T19:00:31Z</time>
      </trkpt>
      <trkpt lat="43.417638" lon="-2.710346">
        <ele>38.527</ele>
        <time>2019-06-15T19:00:32Z</time>
      </trkpt>
      <trkpt lat="43.417574" lon="-2.710614">
        <ele>36.208</ele>
        <time>2019-06-15T19:00:33Z</time>
      </trkpt>
      <trkpt lat="43.417509" lon="-2.710856">
        <ele>35.492</ele>
        <time>2019-06-15T19:00:34Z</time>
      </trkpt>
      <trkpt lat="43.417450" lon="-2.711103">
        <ele>37.396</ele>
        <time>2019-06-15T19:00:35Z</time>
      </trkpt>
      <trkpt lat="43.417393" lon="-2.711340">
        <ele>33.395</ele>
        <time>2019-06-15T19:00:36Z</time>
      </trkpt>
      <trkpt lat="43.417365" lon="-2.711584">
        <ele>25.444</ele>
        <time>2019-06-15T19:00:37Z</time>
      </trkpt>
      <trkpt lat="43.417356" lon="-2.711842">
        <ele>21.063</ele>
        <time>2019-06-15T19:00:38Z</time>
      </trkpt>
      <trkpt lat="43.417347" lon="-2.712111">
        <ele>20.694</ele>
        <time>2019-06-15T19:00:39Z</time>
      </trkpt>
      <trkpt lat="43.417336" lon="-2.712394">
        <ele>20.573</ele>
        <time>2019-06-15T19:00:40Z</time>
      </trkpt>
      <trkpt lat="43.417332" lon="-2.712681">
        <ele>18.797</ele>
        <time>2019-06-15T19:00:41Z</time>
      </trkpt>
      <trkpt lat="43.417318" lon="-2.712960">
        <ele>19.082</ele>
        <time>2019-06-15T19:00:42Z</time>
      </trkpt>
      <trkpt lat="43.417286" lon="-2.713224">
        <ele>21.143</ele>
        <time>2019-06-15T19:00:43Z</time>
      </trkpt>
      <trkpt lat="43.417244" lon="-2.713469">
        <ele>19.417</ele>
        <time>2019-06-15T19:00:44Z</time>
      </trkpt>
      <trkpt lat="43.417188" lon="-2.713683">
        <ele>13.208</ele>
        <time>2019-06-15T19:00:45Z</time>
      </trkpt>
      <trkpt lat="43.417132" lon="-2.713871">
        <ele>9.891</ele>
        <time>2019-06-15T19:00:46Z</time>
      </trkpt>
      <trkpt lat="43.417099" lon="-2.714040">
        <ele>15.195</ele>
        <time>2019-06-15T19:00:47Z</time>
      </trkpt>
      <trkpt lat="43.417081" lon="-2.714157">
        <ele>19.384</ele>
        <time>2019-06-15T19:00:48Z</time>
      </trkpt>
      <trkpt lat="43.417077" lon="-2.714261">
        <ele>20.453</ele>
        <time>2019-06-15T19:00:49Z</time>
      </trkpt>
      <trkpt lat="43.417089" lon="-2.714407">
        <ele>21.142</ele>
        <time>2019-06-15T19:00:50Z</time>
      </trkpt>
      <trkpt lat="43.417093" lon="-2.714550">
        <ele>22.023</ele>
        <time>2019-06-15T19:00:51Z</time>
      </trkpt>
      <trkpt lat="43.417082" lon="-2.714719">
        <ele>23.592</ele>
        <time>2019-06-15T19:00:52Z</time>
      </trkpt>
      <trkpt lat="43.417049" lon="-2.714899">
        <ele>24.516</ele>
        <time>2019-06-15T19:00:53Z</time>
      </trkpt>
      <trkpt lat="43.417016" lon="-2.715080">
        <ele>24.894</ele>
        <time>2019-06-15T19:00:54Z</time>
      </trkpt>
      <trkpt lat="43.417014" lon="-2.715286">
        <ele>23.257</ele>
        <time>2019-06-15T19:00:55Z</time>
      </trkpt>
      <trkpt lat="43.417013" lon="-2.715498">
        <ele>22.922</ele>
        <time>2019-06-15T19:00:56Z</time>
      </trkpt>
      <trkpt lat="43.417032" lon="-2.715706">
        <ele>23.108</ele>
        <time>2019-06-15T19:00:57Z</time>
      </trkpt>
      <trkpt lat="43.417061" lon="-2.715919">
        <ele>23.782</ele>
        <time>2019-06-15T19:00:58Z</time>
      </trkpt>
      <trkpt lat="43.417096" lon="-2.716126">
        <ele>24.316</ele>
        <time>2019-06-15T19:00:59Z</time>
      </trkpt>
      <trkpt lat="43.417140" lon="-2.716347">
        <ele>23.755</ele>
        <time>2019-06-15T19:01:00Z</time>
      </trkpt>
      <trkpt lat="43.417144" lon="-2.716559">
        <ele>28.284</ele>
        <time>2019-06-15T19:01:01Z</time>
      </trkpt>
      <trkpt lat="43.417157" lon="-2.716777">
        <ele>31.223</ele>
        <time>2019-06-15T19:01:02Z</time>
      </trkpt>
      <trkpt lat="43.417183" lon="-2.716991">
        <ele>31.824</ele>
        <time>2019-06-15T19:01:03Z</time>
      </trkpt>
      <trkpt lat="43.417163" lon="-2.717184">
        <ele>33.333</ele>
        <time>2019-06-15T19:01:04Z</time>
      </trkpt>
      <trkpt lat="43.417130" lon="-2.717386">
        <ele>31.857</ele>
        <time>2019-06-15T19:01:05Z</time>
      </trkpt>
      <trkpt lat="43.417090" lon="-2.717567">
        <ele>29.119</ele>
        <time>2019-06-15T19:01:06Z</time>
      </trkpt>
      <trkpt lat="43.417047" lon="-2.717732">
        <ele>26.309</ele>
        <time>2019-06-15T19:01:07Z</time>
      </trkpt>
      <trkpt lat="43.417015" lon="-2.717903">
        <ele>26.419</ele>
        <time>2019-06-15T19:01:08Z</time>
      </trkpt>
      <trkpt lat="43.417042" lon="-2.718045">
        <ele>23.008</ele>
        <time>2019-06-15T19:01:09Z</time>
      </trkpt>
      <trkpt lat="43.417053" lon="-2.718208">
        <ele>23.984</ele>
        <time>2019-06-15T19:01:10Z</time>
      </trkpt>
      <trkpt lat="43.417061" lon="-2.718372">
        <ele>25.178</ele>
        <time>2019-06-15T19:01:11Z</time>
      </trkpt>
      <trkpt lat="43.417053" lon="-2.718545">
        <ele>26.267</ele>
        <time>2019-06-15T19:01:12Z</time>
      </trkpt>
      <trkpt lat="43.417039" lon="-2.718713">
        <ele>25.726</ele>
        <time>2019-06-15T19:01:13Z</time>
      </trkpt>
      <trkpt lat="43.417017" lon="-2.718896">
        <ele>24.585</ele>
        <time>2019-06-15T19:01:14Z</time>
      </trkpt>
      <trkpt lat="43.416983" lon="-2.719063">
        <ele>25.246</ele>
        <time>2019-06-15T19:01:15Z</time>
      </trkpt>
      <trkpt lat="43.416952" lon="-2.719224">
        <ele>25.775</ele>
        <time>2019-06-15T19:01:16Z</time>
      </trkpt>
      <trkpt lat="43.416928" lon="-2.719379">
        <ele>24.349</ele>
        <time>2019-06-15T19:01:17Z</time>
      </trkpt>
      <trkpt lat="43.416904" lon="-2.719499">
        <ele>23.045</ele>
        <time>2019-06-15T19:01:18Z</time>
      </trkpt>
      <trkpt lat="43.416875" lon="-2.719629">
        <ele>21.447</ele>
        <time>2019-06-15T19:01:19Z</time>
      </trkpt>
      <trkpt lat="43.416838" lon="-2.719776">
        <ele>19.911</ele>
        <time>2019-06-15T19:01:20Z</time>
      </trkpt>
      <trkpt lat="43.416790" lon="-2.719925">
        <ele>19.008</ele>
        <time>2019-06-15T19:01:21Z</time>
      </trkpt>
      <trkpt lat="43.416741" lon="-2.720078">
        <ele>19.287</ele>
        <time>2019-06-15T19:01:22Z</time>
      </trkpt>
      <trkpt lat="43.416696" lon="-2.720248">
        <ele>18.951</ele>
        <time>2019-06-15T19:01:23Z</time>
      </trkpt>
      <trkpt lat="43.416650" lon="-2.720408">
        <ele>22.260</ele>
        <time>2019-06-15T19:01:24Z</time>
      </trkpt>
      <trkpt lat="43.416661" lon="-2.720549">
        <ele>24.029</ele>
        <time>2019-06-15T19:01:25Z</time>
      </trkpt>
      <trkpt lat="43.416675" lon="-2.720712">
        <ele>23.048</ele>
        <time>2019-06-15T19:01:26Z</time>
      </trkpt>
      <trkpt lat="43.416705" lon="-2.720883">
        <ele>20.819</ele>
        <time>2019-06-15T19:01:27Z</time>
      </trkpt>
      <trkpt lat="43.416736" lon="-2.721062">
        <ele>17.748</ele>
        <time>2019-06-15T19:01:28Z</time>
      </trkpt>
      <trkpt lat="43.416764" lon="-2.721248">
        <ele>15.372</ele>
        <time>2019-06-15T19:01:29Z</time>
      </trkpt>
      <trkpt lat="43.416794" lon="-2.721426">
        <ele>13.273</ele>
        <time>2019-06-15T19:01:30Z</time>
      </trkpt>
      <trkpt lat="43.416799" lon="-2.721554">
        <ele>13.185</ele>
        <time>2019-06-15T19:01:31Z</time>
      </trkpt>
      <trkpt lat="43.416828" lon="-2.721742">
        <ele>11.913</ele>
        <time>2019-06-15T19:01:32Z</time>
      </trkpt>
      <trkpt lat="43.416872" lon="-2.721894">
        <ele>9.808</ele>
        <time>2019-06-15T19:01:33Z</time>
      </trkpt>
      <trkpt lat="43.416880" lon="-2.722046">
        <ele>9.640</ele>
        <time>2019-06-15T19:01:34Z</time>
      </trkpt>
      <trkpt lat="43.416911" lon="-2.722201">
        <ele>9.024</ele>
        <time>2019-06-15T19:01:35Z</time>
      </trkpt>
      <trkpt lat="43.416922" lon="-2.722295">
        <ele>9.033</ele>
        <time>2019-06-15T19:01:36Z</time>
      </trkpt>
      <trkpt lat="43.416944" lon="-2.722430">
        <ele>8.892</ele>
        <time>2019-06-15T19:01:37Z</time>
      </trkpt>
      <trkpt lat="43.416970" lon="-2.722541">
        <ele>8.821</ele>
        <time>2019-06-15T19:01:38Z</time>
      </trkpt>
      <trkpt lat="43.417001" lon="-2.722657">
        <ele>9.062</ele>
        <time>2019-06-15T19:01:39Z</time>
      </trkpt>
      <trkpt lat="43.417032" lon="-2.722770">
        <ele>9.151</ele>
        <time>2019-06-15T19:01:40Z</time>
      </trkpt>
      <trkpt lat="43.417101" lon="-2.722871">
        <ele>7.835</ele>
        <time>2019-06-15T19:01:41Z</time>
      </trkpt>
      <trkpt lat="43.417189" lon="-2.722960">
        <ele>6.897</ele>
        <time>2019-06-15T19:01:42Z</time>
      </trkpt>
      <trkpt lat="43.417269" lon="-2.723045">
        <ele>6.823</ele>
        <time>2019-06-15T19:01:43Z</time>
      </trkpt>
      <trkpt lat="43.417340" lon="-2.723115">
        <ele>6.725</ele>
        <time>2019-06-15T19:01:44Z</time>
      </trkpt>
      <trkpt lat="43.417409" lon="-2.723158">
        <ele>6.608</ele>
        <time>2019-06-15T19:01:45Z</time>
      </trkpt>
      <trkpt lat="43.417458" lon="-2.723199">
        <ele>6.652</ele>
        <time>2019-06-15T19:01:46Z</time>
      </trkpt>
      <trkpt lat="43.417546" lon="-2.723254">
        <ele>6.766</ele>
        <time>2019-06-15T19:01:47Z</time>
      </trkpt>
      <trkpt lat="43.417623" lon="-2.723306">
        <ele>6.995</ele>
        <time>2019-06-15T19:01:48Z</time>
      </trkpt>
      <trkpt lat="43.417700" lon="-2.723361">
        <ele>7.274</ele>
        <time>2019-06-15T19:01:49Z</time>
      </trkpt>
      <trkpt lat="43.417762" lon="-2.723390">
        <ele>7.413</ele>
        <time>2019-06-15T19:01:50Z</time>
      </trkpt>
      <trkpt lat="43.417817" lon="-2.723437">
        <ele>7.534</ele>
        <time>2019-06-15T19:01:51Z</time>
      </trkpt>
      <trkpt lat="43.417873" lon="-2.723456">
        <ele>7.223</ele>
        <time>2019-06-15T19:01:52Z</time>
      </trkpt>
      <trkpt lat="43.417933" lon="-2.723504">
        <ele>7.167</ele>
        <time>2019-06-15T19:01:53Z</time>
      </trkpt>
      <trkpt lat="43.418017" lon="-2.723552">
        <ele>6.991</ele>
        <time>2019-06-15T19:01:54Z</time>
      </trkpt>
      <trkpt lat="43.418089" lon="-2.723592">
        <ele>6.781</ele>
        <time>2019-06-15T19:01:55Z</time>
      </trkpt>
      <trkpt lat="43.418144" lon="-2.723620">
        <ele>6.719</ele>
        <time>2019-06-15T19:01:56Z</time>
      </trkpt>
      <trkpt lat="43.418190" lon="-2.723649">
        <ele>6.508</ele>
        <time>2019-06-15T19:01:57Z</time>
      </trkpt>
      <trkpt lat="43.418246" lon="-2.723683">
        <ele>6.322</ele>
        <time>2019-06-15T19:01:59Z</time>
      </trkpt>
      <trkpt lat="43.418316" lon="-2.723699">
        <ele>6.196</ele>
        <time>2019-06-15T19:02:02Z</time>
      </trkpt>
      <trkpt lat="43.418369" lon="-2.723719">
        <ele>5.995</ele>
        <time>2019-06-15T19:02:04Z</time>
      </trkpt>
      <trkpt lat="43.418449" lon="-2.723697">
        <ele>5.644</ele>
        <time>2019-06-15T19:02:06Z</time>
      </trkpt>
      <trkpt lat="43.418520" lon="-2.723688">
        <ele>5.333</ele>
        <time>2019-06-15T19:02:08Z</time>
      </trkpt>
      <trkpt lat="43.418577" lon="-2.723755">
        <ele>5.144</ele>
        <time>2019-06-15T19:02:10Z</time>
      </trkpt>
      <trkpt lat="43.418614" lon="-2.723858">
        <ele>5.063</ele>
        <time>2019-06-15T19:02:12Z</time>
      </trkpt>
      <trkpt lat="43.418639" lon="-2.723947">
        <ele>5.057</ele>
        <time>2019-06-15T19:02:14Z</time>
      </trkpt>
      <trkpt lat="43.418679" lon="-2.724000">
        <ele>5.087</ele>
        <time>2019-06-15T19:02:16Z</time>
      </trkpt>
      <trkpt lat="43.418725" lon="-2.724035">
        <ele>5.042</ele>
        <time>2019-06-15T19:02:18Z</time>
      </trkpt>
      <trkpt lat="43.418774" lon="-2.724007">
        <ele>5.026</ele>
        <time>2019-06-15T19:02:42Z</time>
      </trkpt>
      <trkpt lat="43.418826" lon="-2.724040">
        <ele>5.008</ele>
        <time>2019-06-15T19:02:46Z</time>
      </trkpt>
      <trkpt lat="43.418885" lon="-2.724095">
        <ele>5.051</ele>
        <time>2019-06-15T19:02:48Z</time>
      </trkpt>
      <trkpt lat="43.418926" lon="-2.724132">
        <ele>5.095</ele>
        <time>2019-06-15T19:02:49Z</time>
      </trkpt>
      <trkpt lat="43.418967" lon="-2.724168">
        <ele>5.084</ele>
        <time>2019-06-15T19:02:50Z</time>
      </trkpt>
      <trkpt lat="43.419038" lon="-2.724235">
        <ele>5.033</ele>
        <time>2019-06-15T19:02:52Z</time>
      </trkpt>
      <trkpt lat="43.419112" lon="-2.724289">
        <ele>5.082</ele>
        <time>2019-06-15T19:02:54Z</time>
      </trkpt>
      <trkpt lat="43.419185" lon="-2.724371">
        <ele>5.333</ele>
        <time>2019-06-15T19:02:56Z</time>
      </trkpt>
      <trkpt lat="43.419216" lon="-2.724422">
        <ele>5.772</ele>
        <time>2019-06-15T19:02:57Z</time>
      </trkpt>
      <trkpt lat="43.419210" lon="-2.724498">
        <ele>5.896</ele>
        <time>2019-06-15T19:02:58Z</time>
      </trkpt>
      <trkpt lat="43.419241" lon="-2.724573">
        <ele>6.436</ele>
        <time>2019-06-15T19:02:59Z</time>
      </trkpt>
      <trkpt lat="43.419275" lon="-2.724643">
        <ele>7.017</ele>
        <time>2019-06-15T19:03:00Z</time>
      </trkpt>
      <trkpt lat="43.419302" lon="-2.724723">
        <ele>7.518</ele>
        <time>2019-06-15T19:03:01Z</time>
      </trkpt>
      <trkpt lat="43.419345" lon="-2.724780">
        <ele>7.908</ele>
        <time>2019-06-15T19:03:02Z</time>
      </trkpt>
      <trkpt lat="43.419374" lon="-2.724850">
        <ele>8.266</ele>
        <time>2019-06-15T19:03:03Z</time>
      </trkpt>
      <trkpt lat="43.419402" lon="-2.724930">
        <ele>8.550</ele>
        <time>2019-06-15T19:03:04Z</time>
      </trkpt>
      <trkpt lat="43.419442" lon="-2.725011">
        <ele>8.969</ele>
        <time>2019-06-15T19:03:05Z</time>
      </trkpt>
      <trkpt lat="43.419474" lon="-2.725091">
        <ele>9.298</ele>
        <time>2019-06-15T19:03:06Z</time>
      </trkpt>
      <trkpt lat="43.419500" lon="-2.725147">
        <ele>9.557</ele>
        <time>2019-06-15T19:03:07Z</time>
      </trkpt>
      <trkpt lat="43.419538" lon="-2.725264">
        <ele>9.728</ele>
        <time>2019-06-15T19:03:09Z</time>
      </trkpt>
      <trkpt lat="43.419565" lon="-2.725336">
        <ele>10.167</ele>
        <time>2019-06-15T19:03:10Z</time>
      </trkpt>
      <trkpt lat="43.419591" lon="-2.725408">
        <ele>10.431</ele>
        <time>2019-06-15T19:03:11Z</time>
      </trkpt>
      <trkpt lat="43.419610" lon="-2.725479">
        <ele>10.781</ele>
        <time>2019-06-15T19:03:12Z</time>
      </trkpt>
      <trkpt lat="43.419634" lon="-2.725544">
        <ele>11.161</ele>
        <time>2019-06-15T19:03:13Z</time>
      </trkpt>
      <trkpt lat="43.419646" lon="-2.725614">
        <ele>11.217</ele>
        <time>2019-06-15T19:03:14Z</time>
      </trkpt>
      <trkpt lat="43.419655" lon="-2.725705">
        <ele>11.108</ele>
        <time>2019-06-15T19:03:15Z</time>
      </trkpt>
      <trkpt lat="43.419668" lon="-2.725775">
        <ele>11.221</ele>
        <time>2019-06-15T19:03:16Z</time>
      </trkpt>
      <trkpt lat="43.419682" lon="-2.725851">
        <ele>11.135</ele>
        <time>2019-06-15T19:03:17Z</time>
      </trkpt>
      <trkpt lat="43.419692" lon="-2.725925">
        <ele>10.624</ele>
        <time>2019-06-15T19:03:18Z</time>
      </trkpt>
      <trkpt lat="43.419724" lon="-2.725982">
        <ele>10.453</ele>
        <time>2019-06-15T19:03:19Z</time>
      </trkpt>
      <trkpt lat="43.419686" lon="-2.726117">
        <ele>8.792</ele>
        <time>2019-06-15T19:03:21Z</time>
      </trkpt>
      <trkpt lat="43.419621" lon="-2.726257">
        <ele>7.973</ele>
        <time>2019-06-15T19:03:22Z</time>
      </trkpt>
      <trkpt lat="43.419577" lon="-2.726419">
        <ele>7.512</ele>
        <time>2019-06-15T19:03:23Z</time>
      </trkpt>
      <trkpt lat="43.419573" lon="-2.726521">
        <ele>7.716</ele>
        <time>2019-06-15T19:03:24Z</time>
      </trkpt>
      <trkpt lat="43.419506" lon="-2.726610">
        <ele>7.887</ele>
        <time>2019-06-15T19:03:25Z</time>
      </trkpt>
      <trkpt lat="43.419514" lon="-2.726778">
        <ele>8.742</ele>
        <time>2019-06-15T19:03:26Z</time>
      </trkpt>
      <trkpt lat="43.419515" lon="-2.726907">
        <ele>9.526</ele>
        <time>2019-06-15T19:03:27Z</time>
      </trkpt>
      <trkpt lat="43.419498" lon="-2.727078">
        <ele>10.208</ele>
        <time>2019-06-15T19:03:28Z</time>
      </trkpt>
      <trkpt lat="43.419552" lon="-2.727158">
        <ele>10.191</ele>
        <time>2019-06-15T19:03:29Z</time>
      </trkpt>
      <trkpt lat="43.419559" lon="-2.727265">
        <ele>10.535</ele>
        <time>2019-06-15T19:03:30Z</time>
      </trkpt>
      <trkpt lat="43.419566" lon="-2.727381">
        <ele>11.334</ele>
        <time>2019-06-15T19:03:31Z</time>
      </trkpt>
      <trkpt lat="43.419669" lon="-2.727395">
        <ele>10.663</ele>
        <time>2019-06-15T19:03:32Z</time>
      </trkpt>
      <trkpt lat="43.419677" lon="-2.727506">
        <ele>11.382</ele>
        <time>2019-06-15T19:03:33Z</time>
      </trkpt>
      <trkpt lat="43.419681" lon="-2.727613">
        <ele>11.373</ele>
        <time>2019-06-15T19:03:34Z</time>
      </trkpt>
      <trkpt lat="43.419692" lon="-2.727725">
        <ele>11.282</ele>
        <time>2019-06-15T19:03:35Z</time>
      </trkpt>
      <trkpt lat="43.419692" lon="-2.727837">
        <ele>11.426</ele>
        <time>2019-06-15T19:03:36Z</time>
      </trkpt>
      <trkpt lat="43.419705" lon="-2.727941">
        <ele>11.727</ele>
        <time>2019-06-15T19:03:37Z</time>
      </trkpt>
      <trkpt lat="43.419713" lon="-2.728048">
        <ele>12.068</ele>
        <time>2019-06-15T19:03:38Z</time>
      </trkpt>
      <trkpt lat="43.419708" lon="-2.728176">
        <ele>12.114</ele>
        <time>2019-06-15T19:03:39Z</time>
      </trkpt>
      <trkpt lat="43.419712" lon="-2.728291">
        <ele>12.108</ele>
        <time>2019-06-15T19:03:40Z</time>
      </trkpt>
      <trkpt lat="43.419710" lon="-2.728417">
        <ele>12.285</ele>
        <time>2019-06-15T19:03:41Z</time>
      </trkpt>
      <trkpt lat="43.419714" lon="-2.728522">
        <ele>12.259</ele>
        <time>2019-06-15T19:03:42Z</time>
      </trkpt>
      <trkpt lat="43.419721" lon="-2.728615">
        <ele>12.098</ele>
        <time>2019-06-15T19:03:43Z</time>
      </trkpt>
      <trkpt lat="43.419731" lon="-2.728688">
        <ele>12.347</ele>
        <time>2019-06-15T19:03:44Z</time>
      </trkpt>
      <trkpt lat="43.419735" lon="-2.728756">
        <ele>12.556</ele>
        <time>2019-06-15T19:03:45Z</time>
      </trkpt>
      <trkpt lat="43.419723" lon="-2.728889">
        <ele>13.037</ele>
        <time>2019-06-15T19:03:47Z</time>
      </trkpt>
      <trkpt lat="43.419707" lon="-2.728992">
        <ele>13.366</ele>
        <time>2019-06-15T19:03:48Z</time>
      </trkpt>
      <trkpt lat="43.419698" lon="-2.729092">
        <ele>13.460</ele>
        <time>2019-06-15T19:03:49Z</time>
      </trkpt>
      <trkpt lat="43.419698" lon="-2.729187">
        <ele>13.696</ele>
        <time>2019-06-15T19:03:50Z</time>
      </trkpt>
      <trkpt lat="43.419716" lon="-2.729269">
        <ele>13.931</ele>
        <time>2019-06-15T19:03:51Z</time>
      </trkpt>
      <trkpt lat="43.419736" lon="-2.729342">
        <ele>14.224</ele>
        <time>2019-06-15T19:03:52Z</time>
      </trkpt>
      <trkpt lat="43.419789" lon="-2.729374">
        <ele>13.908</ele>
        <time>2019-06-15T19:03:53Z</time>
      </trkpt>
      <trkpt lat="43.419834" lon="-2.729407">
        <ele>13.632</ele>
        <time>2019-06-15T19:03:54Z</time>
      </trkpt>
      <trkpt lat="43.419879" lon="-2.729434">
        <ele>13.356</ele>
        <time>2019-06-15T19:03:55Z</time>
      </trkpt>
      <trkpt lat="43.419946" lon="-2.729433">
        <ele>12.645</ele>
        <time>2019-06-15T19:03:56Z</time>
      </trkpt>
      <trkpt lat="43.420019" lon="-2.729434">
        <ele>12.014</ele>
        <time>2019-06-15T19:03:57Z</time>
      </trkpt>
      <trkpt lat="43.420118" lon="-2.729402">
        <ele>12.083</ele>
        <time>2019-06-15T19:03:58Z</time>
      </trkpt>
      <trkpt lat="43.420195" lon="-2.729386">
        <ele>12.024</ele>
        <time>2019-06-15T19:03:59Z</time>
      </trkpt>
      <trkpt lat="43.420271" lon="-2.729375">
        <ele>12.063</ele>
        <time>2019-06-15T19:04:00Z</time>
      </trkpt>
      <trkpt lat="43.420370" lon="-2.729345">
        <ele>12.397</ele>
        <time>2019-06-15T19:04:01Z</time>
      </trkpt>
      <trkpt lat="43.420448" lon="-2.729329">
        <ele>12.641</ele>
        <time>2019-06-15T19:04:02Z</time>
      </trkpt>
      <trkpt lat="43.420536" lon="-2.729274">
        <ele>12.981</ele>
        <time>2019-06-15T19:04:03Z</time>
      </trkpt>
      <trkpt lat="43.420618" lon="-2.729257">
        <ele>13.409</ele>
        <time>2019-06-15T19:04:04Z</time>
      </trkpt>
      <trkpt lat="43.420701" lon="-2.729234">
        <ele>14.008</ele>
        <time>2019-06-15T19:04:05Z</time>
      </trkpt>
      <trkpt lat="43.420762" lon="-2.729219">
        <ele>14.577</ele>
        <time>2019-06-15T19:04:06Z</time>
      </trkpt>
      <trkpt lat="43.420830" lon="-2.729201">
        <ele>15.011</ele>
        <time>2019-06-15T19:04:07Z</time>
      </trkpt>
      <trkpt lat="43.420886" lon="-2.729190">
        <ele>15.340</ele>
        <time>2019-06-15T19:04:08Z</time>
      </trkpt>
      <trkpt lat="43.420950" lon="-2.729175">
        <ele>15.859</ele>
        <time>2019-06-15T19:04:09Z</time>
      </trkpt>
      <trkpt lat="43.421063" lon="-2.729090">
        <ele>16.988</ele>
        <time>2019-06-15T19:04:10Z</time>
      </trkpt>
      <trkpt lat="43.421170" lon="-2.729066">
        <ele>18.239</ele>
        <time>2019-06-15T19:04:11Z</time>
      </trkpt>
      <trkpt lat="43.421246" lon="-2.729067">
        <ele>19.318</ele>
        <time>2019-06-15T19:04:12Z</time>
      </trkpt>
      <trkpt lat="43.421330" lon="-2.729044">
        <ele>20.652</ele>
        <time>2019-06-15T19:04:13Z</time>
      </trkpt>
      <trkpt lat="43.421413" lon="-2.729027">
        <ele>21.848</ele>
        <time>2019-06-15T19:04:14Z</time>
      </trkpt>
      <trkpt lat="43.421507" lon="-2.728989">
        <ele>23.261</ele>
        <time>2019-06-15T19:04:15Z</time>
      </trkpt>
      <trkpt lat="43.421601" lon="-2.728953">
        <ele>24.617</ele>
        <time>2019-06-15T19:04:16Z</time>
      </trkpt>
      <trkpt lat="43.421699" lon="-2.728912">
        <ele>26.008</ele>
        <time>2019-06-15T19:04:17Z</time>
      </trkpt>
      <trkpt lat="43.421753" lon="-2.728898">
        <ele>26.357</ele>
        <time>2019-06-15T19:04:18Z</time>
      </trkpt>
      <trkpt lat="43.421817" lon="-2.728879">
        <ele>26.691</ele>
        <time>2019-06-15T19:04:19Z</time>
      </trkpt>
      <trkpt lat="43.421882" lon="-2.728846">
        <ele>26.960</ele>
        <time>2019-06-15T19:04:20Z</time>
      </trkpt>
      <trkpt lat="43.421937" lon="-2.728820">
        <ele>27.279</ele>
        <time>2019-06-15T19:04:21Z</time>
      </trkpt>
      <trkpt lat="43.422012" lon="-2.728780">
        <ele>28.448</ele>
        <time>2019-06-15T19:04:22Z</time>
      </trkpt>
      <trkpt lat="43.422075" lon="-2.728730">
        <ele>29.429</ele>
        <time>2019-06-15T19:04:23Z</time>
      </trkpt>
      <trkpt lat="43.422143" lon="-2.728680">
        <ele>30.338</ele>
        <time>2019-06-15T19:04:24Z</time>
      </trkpt>
      <trkpt lat="43.422229" lon="-2.728631">
        <ele>31.242</ele>
        <time>2019-06-15T19:04:25Z</time>
      </trkpt>
      <trkpt lat="43.422295" lon="-2.728586">
        <ele>32.028</ele>
        <time>2019-06-15T19:04:26Z</time>
      </trkpt>
      <trkpt lat="43.422373" lon="-2.728514">
        <ele>33.489</ele>
        <time>2019-06-15T19:04:27Z</time>
      </trkpt>
      <trkpt lat="43.422428" lon="-2.728486">
        <ele>34.517</ele>
        <time>2019-06-15T19:04:28Z</time>
      </trkpt>
      <trkpt lat="43.422489" lon="-2.728439">
        <ele>36.008</ele>
        <time>2019-06-15T19:04:29Z</time>
      </trkpt>
      <trkpt lat="43.422555" lon="-2.728409">
        <ele>37.135</ele>
        <time>2019-06-15T19:04:30Z</time>
      </trkpt>
      <trkpt lat="43.422612" lon="-2.728361">
        <ele>38.149</ele>
        <time>2019-06-15T19:04:31Z</time>
      </trkpt>
      <trkpt lat="43.422670" lon="-2.728335">
        <ele>38.878</ele>
        <time>2019-06-15T19:04:32Z</time>
      </trkpt>
      <trkpt lat="43.422732" lon="-2.728291">
        <ele>39.647</ele>
        <time>2019-06-15T19:04:33Z</time>
      </trkpt>
      <trkpt lat="43.422795" lon="-2.728245">
        <ele>40.516</ele>
        <time>2019-06-15T19:04:34Z</time>
      </trkpt>
      <trkpt lat="43.422862" lon="-2.728205">
        <ele>41.587</ele>
        <time>2019-06-15T19:04:35Z</time>
      </trkpt>
      <trkpt lat="43.422928" lon="-2.728167">
        <ele>42.446</ele>
        <time>2019-06-15T19:04:36Z</time>
      </trkpt>
      <trkpt lat="43.422985" lon="-2.728144">
        <ele>43.290</ele>
        <time>2019-06-15T19:04:37Z</time>
      </trkpt>
      <trkpt lat="43.423046" lon="-2.728156">
        <ele>43.925</ele>
        <time>2019-06-15T19:04:38Z</time>
      </trkpt>
      <trkpt lat="43.423115" lon="-2.728157">
        <ele>44.626</ele>
        <time>2019-06-15T19:04:39Z</time>
      </trkpt>
      <trkpt lat="43.423180" lon="-2.728200">
        <ele>45.108</ele>
        <time>2019-06-15T19:04:41Z</time>
      </trkpt>
      <trkpt lat="43.423219" lon="-2.728251">
        <ele>45.408</ele>
        <time>2019-06-15T19:04:43Z</time>
      </trkpt>
      <trkpt lat="43.423255" lon="-2.728298">
        <ele>45.585</ele>
        <time>2019-06-15T19:04:44Z</time>
      </trkpt>
      <trkpt lat="43.423298" lon="-2.728381">
        <ele>45.759</ele>
        <time>2019-06-15T19:04:45Z</time>
      </trkpt>
      <trkpt lat="43.423348" lon="-2.728497">
        <ele>46.188</ele>
        <time>2019-06-15T19:04:46Z</time>
      </trkpt>
      <trkpt lat="43.423410" lon="-2.728617">
        <ele>46.357</ele>
        <time>2019-06-15T19:04:47Z</time>
      </trkpt>
      <trkpt lat="43.423464" lon="-2.728745">
        <ele>46.286</ele>
        <time>2019-06-15T19:04:48Z</time>
      </trkpt>
      <trkpt lat="43.423485" lon="-2.728875">
        <ele>46.177</ele>
        <time>2019-06-15T19:04:49Z</time>
      </trkpt>
      <trkpt lat="43.423496" lon="-2.729011">
        <ele>46.236</ele>
        <time>2019-06-15T19:04:50Z</time>
      </trkpt>
      <trkpt lat="43.423544" lon="-2.729128">
        <ele>46.540</ele>
        <time>2019-06-15T19:04:51Z</time>
      </trkpt>
      <trkpt lat="43.423601" lon="-2.729261">
        <ele>46.986</ele>
        <time>2019-06-15T19:04:52Z</time>
      </trkpt>
      <trkpt lat="43.423652" lon="-2.729419">
        <ele>46.660</ele>
        <time>2019-06-15T19:04:53Z</time>
      </trkpt>
      <trkpt lat="43.423697" lon="-2.729588">
        <ele>46.126</ele>
        <time>2019-06-15T19:04:54Z</time>
      </trkpt>
      <trkpt lat="43.423740" lon="-2.729751">
        <ele>45.708</ele>
        <time>2019-06-15T19:04:55Z</time>
      </trkpt>
      <trkpt lat="43.423764" lon="-2.729914">
        <ele>45.771</ele>
        <time>2019-06-15T19:04:56Z</time>
      </trkpt>
      <trkpt lat="43.423787" lon="-2.730086">
        <ele>45.865</ele>
        <time>2019-06-15T19:04:57Z</time>
      </trkpt>
      <trkpt lat="43.423807" lon="-2.730262">
        <ele>45.974</ele>
        <time>2019-06-15T19:04:58Z</time>
      </trkpt>
      <trkpt lat="43.423835" lon="-2.730429">
        <ele>46.583</ele>
        <time>2019-06-15T19:04:59Z</time>
      </trkpt>
      <trkpt lat="43.423866" lon="-2.730596">
        <ele>47.162</ele>
        <time>2019-06-15T19:05:00Z</time>
      </trkpt>
      <trkpt lat="43.423904" lon="-2.730780">
        <ele>46.923</ele>
        <time>2019-06-15T19:05:01Z</time>
      </trkpt>
      <trkpt lat="43.423939" lon="-2.730974">
        <ele>47.212</ele>
        <time>2019-06-15T19:05:02Z</time>
      </trkpt>
      <trkpt lat="43.423986" lon="-2.731171">
        <ele>48.096</ele>
        <time>2019-06-15T19:05:03Z</time>
      </trkpt>
      <trkpt lat="43.424049" lon="-2.731347">
        <ele>48.676</ele>
        <time>2019-06-15T19:05:04Z</time>
      </trkpt>
      <trkpt lat="43.424110" lon="-2.731502">
        <ele>48.890</ele>
        <time>2019-06-15T19:05:05Z</time>
      </trkpt>
      <trkpt lat="43.424170" lon="-2.731654">
        <ele>48.919</ele>
        <time>2019-06-15T19:05:06Z</time>
      </trkpt>
      <trkpt lat="43.424227" lon="-2.731810">
        <ele>48.908</ele>
        <time>2019-06-15T19:05:07Z</time>
      </trkpt>
      <trkpt lat="43.424277" lon="-2.731960">
        <ele>48.940</ele>
        <time>2019-06-15T19:05:08Z</time>
      </trkpt>
      <trkpt lat="43.424346" lon="-2.732108">
        <ele>49.034</ele>
        <time>2019-06-15T19:05:09Z</time>
      </trkpt>
      <trkpt lat="43.424422" lon="-2.732228">
        <ele>49.253</ele>
        <time>2019-06-15T19:05:10Z</time>
      </trkpt>
      <trkpt lat="43.424497" lon="-2.732320">
        <ele>49.762</ele>
        <time>2019-06-15T19:05:11Z</time>
      </trkpt>
      <trkpt lat="43.424587" lon="-2.732386">
        <ele>49.791</ele>
        <time>2019-06-15T19:05:12Z</time>
      </trkpt>
      <trkpt lat="43.424684" lon="-2.732466">
        <ele>49.962</ele>
        <time>2019-06-15T19:05:13Z</time>
      </trkpt>
      <trkpt lat="43.424762" lon="-2.732575">
        <ele>50.271</ele>
        <time>2019-06-15T19:05:14Z</time>
      </trkpt>
      <trkpt lat="43.424836" lon="-2.732706">
        <ele>50.335</ele>
        <time>2019-06-15T19:05:15Z</time>
      </trkpt>
      <trkpt lat="43.424888" lon="-2.732876">
        <ele>50.534</ele>
        <time>2019-06-15T19:05:16Z</time>
      </trkpt>
      <trkpt lat="43.424933" lon="-2.733071">
        <ele>50.555</ele>
        <time>2019-06-15T19:05:17Z</time>
      </trkpt>
      <trkpt lat="43.424985" lon="-2.733251">
        <ele>50.710</ele>
        <time>2019-06-15T19:05:18Z</time>
      </trkpt>
      <trkpt lat="43.425036" lon="-2.733443">
        <ele>51.508</ele>
        <time>2019-06-15T19:05:19Z</time>
      </trkpt>
      <trkpt lat="43.425081" lon="-2.733607">
        <ele>52.896</ele>
        <time>2019-06-15T19:05:20Z</time>
      </trkpt>
      <trkpt lat="43.425103" lon="-2.733758">
        <ele>53.810</ele>
        <time>2019-06-15T19:05:21Z</time>
      </trkpt>
      <trkpt lat="43.425107" lon="-2.733895">
        <ele>54.819</ele>
        <time>2019-06-15T19:05:22Z</time>
      </trkpt>
      <trkpt lat="43.425077" lon="-2.734025">
        <ele>55.468</ele>
        <time>2019-06-15T19:05:23Z</time>
      </trkpt>
      <trkpt lat="43.425023" lon="-2.734143">
        <ele>56.547</ele>
        <time>2019-06-15T19:05:24Z</time>
      </trkpt>
      <trkpt lat="43.424965" lon="-2.734247">
        <ele>57.718</ele>
        <time>2019-06-15T19:05:25Z</time>
      </trkpt>
      <trkpt lat="43.424912" lon="-2.734340">
        <ele>58.627</ele>
        <time>2019-06-15T19:05:26Z</time>
      </trkpt>
      <trkpt lat="43.424876" lon="-2.734445">
        <ele>59.361</ele>
        <time>2019-06-15T19:05:27Z</time>
      </trkpt>
      <trkpt lat="43.424863" lon="-2.734586">
        <ele>60.584</ele>
        <time>2019-06-15T19:05:28Z</time>
      </trkpt>
      <trkpt lat="43.424862" lon="-2.734741">
        <ele>61.607</ele>
        <time>2019-06-15T19:05:29Z</time>
      </trkpt>
      <trkpt lat="43.424868" lon="-2.734909">
        <ele>62.817</ele>
        <time>2019-06-15T19:05:30Z</time>
      </trkpt>
      <trkpt lat="43.424871" lon="-2.735069">
        <ele>63.808</ele>
        <time>2019-06-15T19:05:31Z</time>
      </trkpt>
      <trkpt lat="43.424856" lon="-2.735215">
        <ele>64.791</ele>
        <time>2019-06-15T19:05:32Z</time>
      </trkpt>
      <trkpt lat="43.424822" lon="-2.735362">
        <ele>65.975</ele>
        <time>2019-06-15T19:05:33Z</time>
      </trkpt>
      <trkpt lat="43.424762" lon="-2.735504">
        <ele>67.444</ele>
        <time>2019-06-15T19:05:34Z</time>
      </trkpt>
      <trkpt lat="43.424703" lon="-2.735671">
        <ele>68.933</ele>
        <time>2019-06-15T19:05:35Z</time>
      </trkpt>
      <trkpt lat="43.424640" lon="-2.735832">
        <ele>69.232</ele>
        <time>2019-06-15T19:05:36Z</time>
      </trkpt>
      <trkpt lat="43.424592" lon="-2.736001">
        <ele>69.173</ele>
        <time>2019-06-15T19:05:37Z</time>
      </trkpt>
      <trkpt lat="43.424542" lon="-2.736164">
        <ele>69.142</ele>
        <time>2019-06-15T19:05:38Z</time>
      </trkpt>
      <trkpt lat="43.424505" lon="-2.736323">
        <ele>69.616</ele>
        <time>2019-06-15T19:05:39Z</time>
      </trkpt>
      <trkpt lat="43.424483" lon="-2.736478">
        <ele>70.091</ele>
        <time>2019-06-15T19:05:40Z</time>
      </trkpt>
      <trkpt lat="43.424471" lon="-2.736649">
        <ele>70.381</ele>
        <time>2019-06-15T19:05:41Z</time>
      </trkpt>
      <trkpt lat="43.424469" lon="-2.736825">
        <ele>71.019</ele>
        <time>2019-06-15T19:05:42Z</time>
      </trkpt>
      <trkpt lat="43.424477" lon="-2.737012">
        <ele>71.608</ele>
        <time>2019-06-15T19:05:43Z</time>
      </trkpt>
      <trkpt lat="43.424527" lon="-2.737227">
        <ele>72.812</ele>
        <time>2019-06-15T19:05:44Z</time>
      </trkpt>
      <trkpt lat="43.424573" lon="-2.737412">
        <ele>74.526</ele>
        <time>2019-06-15T19:05:45Z</time>
      </trkpt>
      <trkpt lat="43.424627" lon="-2.737611">
        <ele>76.155</ele>
        <time>2019-06-15T19:05:46Z</time>
      </trkpt>
      <trkpt lat="43.424681" lon="-2.737806">
        <ele>77.384</ele>
        <time>2019-06-15T19:05:47Z</time>
      </trkpt>
      <trkpt lat="43.424755" lon="-2.737997">
        <ele>78.393</ele>
        <time>2019-06-15T19:05:48Z</time>
      </trkpt>
      <trkpt lat="43.424795" lon="-2.738201">
        <ele>78.824</ele>
        <time>2019-06-15T19:05:49Z</time>
      </trkpt>
      <trkpt lat="43.424824" lon="-2.738392">
        <ele>79.373</ele>
        <time>2019-06-15T19:05:50Z</time>
      </trkpt>
      <trkpt lat="43.424856" lon="-2.738563">
        <ele>80.337</ele>
        <time>2019-06-15T19:05:51Z</time>
      </trkpt>
      <trkpt lat="43.424889" lon="-2.738734">
        <ele>81.541</ele>
        <time>2019-06-15T19:05:52Z</time>
      </trkpt>
      <trkpt lat="43.424936" lon="-2.738897">
        <ele>83.181</ele>
        <time>2019-06-15T19:05:53Z</time>
      </trkpt>
      <trkpt lat="43.425032" lon="-2.739053">
        <ele>84.909</ele>
        <time>2019-06-15T19:05:54Z</time>
      </trkpt>
      <trkpt lat="43.425111" lon="-2.739211">
        <ele>86.308</ele>
        <time>2019-06-15T19:05:55Z</time>
      </trkpt>
      <trkpt lat="43.425222" lon="-2.739346">
        <ele>87.567</ele>
        <time>2019-06-15T19:05:56Z</time>
      </trkpt>
      <trkpt lat="43.425332" lon="-2.739469">
        <ele>88.521</ele>
        <time>2019-06-15T19:05:57Z</time>
      </trkpt>
      <trkpt lat="43.425438" lon="-2.739570">
        <ele>89.650</ele>
        <time>2019-06-15T19:05:58Z</time>
      </trkpt>
      <trkpt lat="43.425533" lon="-2.739697">
        <ele>90.749</ele>
        <time>2019-06-15T19:05:59Z</time>
      </trkpt>
      <trkpt lat="43.425599" lon="-2.739820">
        <ele>90.388</ele>
        <time>2019-06-15T19:06:00Z</time>
      </trkpt>
      <trkpt lat="43.425673" lon="-2.739942">
        <ele>88.679</ele>
        <time>2019-06-15T19:06:01Z</time>
      </trkpt>
      <trkpt lat="43.425703" lon="-2.740096">
        <ele>87.898</ele>
        <time>2019-06-15T19:06:02Z</time>
      </trkpt>
      <trkpt lat="43.425724" lon="-2.740267">
        <ele>87.092</ele>
        <time>2019-06-15T19:06:03Z</time>
      </trkpt>
      <trkpt lat="43.425729" lon="-2.740436">
        <ele>87.785</ele>
        <time>2019-06-15T19:06:04Z</time>
      </trkpt>
      <trkpt lat="43.425718" lon="-2.740642">
        <ele>90.889</ele>
        <time>2019-06-15T19:06:05Z</time>
      </trkpt>
      <trkpt lat="43.425705" lon="-2.740836">
        <ele>95.417</ele>
        <time>2019-06-15T19:06:06Z</time>
      </trkpt>
      <trkpt lat="43.425691" lon="-2.741009">
        <ele>96.508</ele>
        <time>2019-06-15T19:06:07Z</time>
      </trkpt>
      <trkpt lat="43.425667" lon="-2.741167">
        <ele>96.611</ele>
        <time>2019-06-15T19:06:08Z</time>
      </trkpt>
      <trkpt lat="43.425642" lon="-2.741319">
        <ele>95.425</ele>
        <time>2019-06-15T19:06:09Z</time>
      </trkpt>
      <trkpt lat="43.425641" lon="-2.741489">
        <ele>96.144</ele>
        <time>2019-06-15T19:06:10Z</time>
      </trkpt>
      <trkpt lat="43.425643" lon="-2.741652">
        <ele>98.273</ele>
        <time>2019-06-15T19:06:11Z</time>
      </trkpt>
      <trkpt lat="43.425696" lon="-2.741788">
        <ele>98.982</ele>
        <time>2019-06-15T19:06:12Z</time>
      </trkpt>
      <trkpt lat="43.425751" lon="-2.741906">
        <ele>99.313</ele>
        <time>2019-06-15T19:06:13Z</time>
      </trkpt>
      <trkpt lat="43.425810" lon="-2.741972">
        <ele>99.532</ele>
        <time>2019-06-15T19:06:14Z</time>
      </trkpt>
      <trkpt lat="43.425887" lon="-2.741982">
        <ele>100.486</ele>
        <time>2019-06-15T19:06:15Z</time>
      </trkpt>
      <trkpt lat="43.425965" lon="-2.741977">
        <ele>101.866</ele>
        <time>2019-06-15T19:06:16Z</time>
      </trkpt>
      <trkpt lat="43.426017" lon="-2.741936">
        <ele>102.229</ele>
        <time>2019-06-15T19:06:17Z</time>
      </trkpt>
      <trkpt lat="43.426110" lon="-2.741791">
        <ele>101.821</ele>
        <time>2019-06-15T19:06:18Z</time>
      </trkpt>
      <trkpt lat="43.426199" lon="-2.741672">
        <ele>102.608</ele>
        <time>2019-06-15T19:06:19Z</time>
      </trkpt>
      <trkpt lat="43.426288" lon="-2.741552">
        <ele>103.539</ele>
        <time>2019-06-15T19:06:20Z</time>
      </trkpt>
      <trkpt lat="43.426380" lon="-2.741417">
        <ele>103.363</ele>
        <time>2019-06-15T19:06:21Z</time>
      </trkpt>
      <trkpt lat="43.426469" lon="-2.741307">
        <ele>102.882</ele>
        <time>2019-06-15T19:06:22Z</time>
      </trkpt>
      <trkpt lat="43.426562" lon="-2.741220">
        <ele>102.311</ele>
        <time>2019-06-15T19:06:23Z</time>
      </trkpt>
      <trkpt lat="43.426688" lon="-2.741153">
        <ele>102.350</ele>
        <time>2019-06-15T19:06:24Z</time>
      </trkpt>
      <trkpt lat="43.426826" lon="-2.741112">
        <ele>102.781</ele>
        <time>2019-06-15T19:06:25Z</time>
      </trkpt>
      <trkpt lat="43.426969" lon="-2.741079">
        <ele>103.410</ele>
        <time>2019-06-15T19:06:26Z</time>
      </trkpt>
      <trkpt lat="43.427113" lon="-2.741046">
        <ele>104.244</ele>
        <time>2019-06-15T19:06:27Z</time>
      </trkpt>
      <trkpt lat="43.427235" lon="-2.740986">
        <ele>104.785</ele>
        <time>2019-06-15T19:06:28Z</time>
      </trkpt>
      <trkpt lat="43.427341" lon="-2.740883">
        <ele>106.389</ele>
        <time>2019-06-15T19:06:29Z</time>
      </trkpt>
      <trkpt lat="43.427442" lon="-2.740755">
        <ele>107.017</ele>
        <time>2019-06-15T19:06:30Z</time>
      </trkpt>
      <trkpt lat="43.427550" lon="-2.740625">
        <ele>107.408</ele>
        <time>2019-06-15T19:06:31Z</time>
      </trkpt>
      <trkpt lat="43.427677" lon="-2.740519">
        <ele>108.991</ele>
        <time>2019-06-15T19:06:32Z</time>
      </trkpt>
      <trkpt lat="43.427807" lon="-2.740404">
        <ele>110.155</ele>
        <time>2019-06-15T19:06:33Z</time>
      </trkpt>
      <trkpt lat="43.427923" lon="-2.740293">
        <ele>111.114</ele>
        <time>2019-06-15T19:06:34Z</time>
      </trkpt>
      <trkpt lat="43.428024" lon="-2.740179">
        <ele>112.413</ele>
        <time>2019-06-15T19:06:35Z</time>
      </trkpt>
      <trkpt lat="43.428121" lon="-2.740076">
        <ele>112.922</ele>
        <time>2019-06-15T19:06:36Z</time>
      </trkpt>
      <trkpt lat="43.428210" lon="-2.740006">
        <ele>113.513</ele>
        <time>2019-06-15T19:06:37Z</time>
      </trkpt>
      <trkpt lat="43.428301" lon="-2.739978">
        <ele>114.722</ele>
        <time>2019-06-15T19:06:38Z</time>
      </trkpt>
      <trkpt lat="43.428392" lon="-2.739991">
        <ele>115.246</ele>
        <time>2019-06-15T19:06:39Z</time>
      </trkpt>
      <trkpt lat="43.428487" lon="-2.740040">
        <ele>116.021</ele>
        <time>2019-06-15T19:06:40Z</time>
      </trkpt>
      <trkpt lat="43.428586" lon="-2.740100">
        <ele>117.041</ele>
        <time>2019-06-15T19:06:41Z</time>
      </trkpt>
      <trkpt lat="43.428681" lon="-2.740173">
        <ele>116.305</ele>
        <time>2019-06-15T19:06:42Z</time>
      </trkpt>
      <trkpt lat="43.428770" lon="-2.740267">
        <ele>114.908</ele>
        <time>2019-06-15T19:06:43Z</time>
      </trkpt>
      <trkpt lat="43.428831" lon="-2.740378">
        <ele>113.715</ele>
        <time>2019-06-15T19:06:44Z</time>
      </trkpt>
      <trkpt lat="43.428892" lon="-2.740543">
        <ele>112.799</ele>
        <time>2019-06-15T19:06:45Z</time>
      </trkpt>
      <trkpt lat="43.428940" lon="-2.740676">
        <ele>114.568</ele>
        <time>2019-06-15T19:06:46Z</time>
      </trkpt>
      <trkpt lat="43.429006" lon="-2.740817">
        <ele>117.487</ele>
        <time>2019-06-15T19:06:47Z</time>
      </trkpt>
      <trkpt lat="43.429071" lon="-2.740939">
        <ele>122.516</ele>
        <time>2019-06-15T19:06:48Z</time>
      </trkpt>
      <trkpt lat="43.429178" lon="-2.740990">
        <ele>124.117</ele>
        <time>2019-06-15T19:06:49Z</time>
      </trkpt>
      <trkpt lat="43.429267" lon="-2.741024">
        <ele>125.786</ele>
        <time>2019-06-15T19:06:50Z</time>
      </trkpt>
      <trkpt lat="43.429362" lon="-2.741038">
        <ele>125.720</ele>
        <time>2019-06-15T19:06:51Z</time>
      </trkpt>
      <trkpt lat="43.429469" lon="-2.741043">
        <ele>124.378</ele>
        <time>2019-06-15T19:06:52Z</time>
      </trkpt>
      <trkpt lat="43.429571" lon="-2.741071">
        <ele>121.333</ele>
        <time>2019-06-15T19:06:53Z</time>
      </trkpt>
      <trkpt lat="43.429675" lon="-2.741157">
        <ele>120.726</ele>
        <time>2019-06-15T19:06:54Z</time>
      </trkpt>
      <trkpt lat="43.429782" lon="-2.741244">
        <ele>119.708</ele>
        <time>2019-06-15T19:06:55Z</time>
      </trkpt>
      <trkpt lat="43.429850" lon="-2.741375">
        <ele>123.670</ele>
        <time>2019-06-15T19:06:56Z</time>
      </trkpt>
      <trkpt lat="43.429942" lon="-2.741455">
        <ele>127.594</ele>
        <time>2019-06-15T19:06:57Z</time>
      </trkpt>
      <trkpt lat="43.430038" lon="-2.741531">
        <ele>133.063</ele>
        <time>2019-06-15T19:06:58Z</time>
      </trkpt>
      <trkpt lat="43.430134" lon="-2.741550">
        <ele>136.592</ele>
        <time>2019-06-15T19:06:59Z</time>
      </trkpt>
      <trkpt lat="43.430232" lon="-2.741590">
        <ele>142.651</ele>
        <time>2019-06-15T19:07:00Z</time>
      </trkpt>
      <trkpt lat="43.430450" lon="-2.741450">
        <ele>131.442</ele>
        <time>2019-06-15T19:07:01Z</time>
      </trkpt>
      <trkpt lat="43.430573" lon="-2.741421">
        <ele>130.681</ele>
        <time>2019-06-15T19:07:02Z</time>
      </trkpt>
      <trkpt lat="43.430688" lon="-2.741397">
        <ele>128.575</ele>
        <time>2019-06-15T19:07:03Z</time>
      </trkpt>
      <trkpt lat="43.430797" lon="-2.741398">
        <ele>128.557</ele>
        <time>2019-06-15T19:07:04Z</time>
      </trkpt>
      <trkpt lat="43.430891" lon="-2.741445">
        <ele>129.700</ele>
        <time>2019-06-15T19:07:05Z</time>
      </trkpt>
      <trkpt lat="43.430969" lon="-2.741531">
        <ele>130.420</ele>
        <time>2019-06-15T19:07:06Z</time>
      </trkpt>
      <trkpt lat="43.431048" lon="-2.741634">
        <ele>129.108</ele>
        <time>2019-06-15T19:07:07Z</time>
      </trkpt>
      <trkpt lat="43.431131" lon="-2.741746">
        <ele>125.788</ele>
        <time>2019-06-15T19:07:08Z</time>
      </trkpt>
      <trkpt lat="43.431212" lon="-2.741872">
        <ele>122.472</ele>
        <time>2019-06-15T19:07:09Z</time>
      </trkpt>
      <trkpt lat="43.431290" lon="-2.742000">
        <ele>119.511</ele>
        <time>2019-06-15T19:07:10Z</time>
      </trkpt>
      <trkpt lat="43.431304" lon="-2.742232">
        <ele>122.070</ele>
        <time>2019-06-15T19:07:11Z</time>
      </trkpt>
      <trkpt lat="43.431355" lon="-2.742419">
        <ele>120.529</ele>
        <time>2019-06-15T19:07:12Z</time>
      </trkpt>
      <trkpt lat="43.431333" lon="-2.742655">
        <ele>122.970</ele>
        <time>2019-06-15T19:07:13Z</time>
      </trkpt>
      <trkpt lat="43.431343" lon="-2.742864">
        <ele>122.499</ele>
        <time>2019-06-15T19:07:14Z</time>
      </trkpt>
      <trkpt lat="43.431347" lon="-2.743072">
        <ele>121.573</ele>
        <time>2019-06-15T19:07:15Z</time>
      </trkpt>
      <trkpt lat="43.431325" lon="-2.743274">
        <ele>122.163</ele>
        <time>2019-06-15T19:07:16Z</time>
      </trkpt>
      <trkpt lat="43.431303" lon="-2.743433">
        <ele>122.744</ele>
        <time>2019-06-15T19:07:17Z</time>
      </trkpt>
      <trkpt lat="43.431275" lon="-2.743595">
        <ele>123.318</ele>
        <time>2019-06-15T19:07:18Z</time>
      </trkpt>
      <trkpt lat="43.431215" lon="-2.743764">
        <ele>124.508</ele>
        <time>2019-06-15T19:07:19Z</time>
      </trkpt>
      <trkpt lat="43.431145" lon="-2.743913">
        <ele>125.339</ele>
        <time>2019-06-15T19:07:20Z</time>
      </trkpt>
      <trkpt lat="43.431103" lon="-2.744088">
        <ele>124.623</ele>
        <time>2019-06-15T19:07:21Z</time>
      </trkpt>
      <trkpt lat="43.431081" lon="-2.744242">
        <ele>123.712</ele>
        <time>2019-06-15T19:07:22Z</time>
      </trkpt>
      <trkpt lat="43.431073" lon="-2.744406">
        <ele>122.021</ele>
        <time>2019-06-15T19:07:23Z</time>
      </trkpt>
      <trkpt lat="43.431058" lon="-2.744569">
        <ele>122.450</ele>
        <time>2019-06-15T19:07:24Z</time>
      </trkpt>
      <trkpt lat="43.431094" lon="-2.744708">
        <ele>120.141</ele>
        <time>2019-06-15T19:07:25Z</time>
      </trkpt>
      <trkpt lat="43.431109" lon="-2.744863">
        <ele>121.740</ele>
        <time>2019-06-15T19:07:26Z</time>
      </trkpt>
      <trkpt lat="43.431157" lon="-2.744983">
        <ele>121.294</ele>
        <time>2019-06-15T19:07:27Z</time>
      </trkpt>
      <trkpt lat="43.431190" lon="-2.745129">
        <ele>121.217</ele>
        <time>2019-06-15T19:07:28Z</time>
      </trkpt>
      <trkpt lat="43.431232" lon="-2.745280">
        <ele>120.287</ele>
        <time>2019-06-15T19:07:29Z</time>
      </trkpt>
      <trkpt lat="43.431259" lon="-2.745449">
        <ele>119.015</ele>
        <time>2019-06-15T19:07:30Z</time>
      </trkpt>
      <trkpt lat="43.431289" lon="-2.745614">
        <ele>117.308</ele>
        <time>2019-06-15T19:07:31Z</time>
      </trkpt>
      <trkpt lat="43.431272" lon="-2.745776">
        <ele>117.834</ele>
        <time>2019-06-15T19:07:32Z</time>
      </trkpt>
      <trkpt lat="43.431227" lon="-2.745907">
        <ele>119.988</ele>
        <time>2019-06-15T19:07:33Z</time>
      </trkpt>
      <trkpt lat="43.431191" lon="-2.746052">
        <ele>120.937</ele>
        <time>2019-06-15T19:07:34Z</time>
      </trkpt>
      <trkpt lat="43.431171" lon="-2.746181">
        <ele>121.566</ele>
        <time>2019-06-15T19:07:35Z</time>
      </trkpt>
      <trkpt lat="43.431155" lon="-2.746333">
        <ele>122.345</ele>
        <time>2019-06-15T19:07:36Z</time>
      </trkpt>
      <trkpt lat="43.431137" lon="-2.746488">
        <ele>123.746</ele>
        <time>2019-06-15T19:07:37Z</time>
      </trkpt>
      <trkpt lat="43.431206" lon="-2.746655">
        <ele>119.825</ele>
        <time>2019-06-15T19:07:38Z</time>
      </trkpt>
      <trkpt lat="43.431250" lon="-2.746842">
        <ele>117.939</ele>
        <time>2019-06-15T19:07:39Z</time>
      </trkpt>
      <trkpt lat="43.431292" lon="-2.746992">
        <ele>116.873</ele>
        <time>2019-06-15T19:07:40Z</time>
      </trkpt>
      <trkpt lat="43.431334" lon="-2.747161">
        <ele>117.385</ele>
        <time>2019-06-15T19:07:41Z</time>
      </trkpt>
      <trkpt lat="43.431365" lon="-2.747320">
        <ele>117.913</ele>
        <time>2019-06-15T19:07:42Z</time>
      </trkpt>
      <trkpt lat="43.431405" lon="-2.747467">
        <ele>118.908</ele>
        <time>2019-06-15T19:07:43Z</time>
      </trkpt>
      <trkpt lat="43.431435" lon="-2.747585">
        <ele>121.470</ele>
        <time>2019-06-15T19:07:44Z</time>
      </trkpt>
      <trkpt lat="43.431467" lon="-2.747665">
        <ele>123.324</ele>
        <time>2019-06-15T19:07:45Z</time>
      </trkpt>
      <trkpt lat="43.431513" lon="-2.747734">
        <ele>125.193</ele>
        <time>2019-06-15T19:07:46Z</time>
      </trkpt>
      <trkpt lat="43.431577" lon="-2.747758">
        <ele>126.482</ele>
        <time>2019-06-15T19:07:47Z</time>
      </trkpt>
      <trkpt lat="43.431609" lon="-2.747815">
        <ele>127.181</ele>
        <time>2019-06-15T19:07:48Z</time>
      </trkpt>
      <trkpt lat="43.431680" lon="-2.747811">
        <ele>128.982</ele>
        <time>2019-06-15T19:07:49Z</time>
      </trkpt>
      <trkpt lat="43.431721" lon="-2.747749">
        <ele>131.841</ele>
        <time>2019-06-15T19:07:50Z</time>
      </trkpt>
      <trkpt lat="43.431774" lon="-2.747565">
        <ele>133.845</ele>
        <time>2019-06-15T19:07:51Z</time>
      </trkpt>
      <trkpt lat="43.431778" lon="-2.747268">
        <ele>131.455</ele>
        <time>2019-06-15T19:07:52Z</time>
      </trkpt>
      <trkpt lat="43.431809" lon="-2.747098">
        <ele>132.107</ele>
        <time>2019-06-15T19:07:53Z</time>
      </trkpt>
      <trkpt lat="43.431819" lon="-2.746915">
        <ele>131.017</ele>
        <time>2019-06-15T19:07:54Z</time>
      </trkpt>
      <trkpt lat="43.431848" lon="-2.746704">
        <ele>129.408</ele>
        <time>2019-06-15T19:07:55Z</time>
      </trkpt>
      <trkpt lat="43.431888" lon="-2.746484">
        <ele>128.758</ele>
        <time>2019-06-15T19:07:56Z</time>
      </trkpt>
      <trkpt lat="43.431938" lon="-2.746271">
        <ele>128.422</ele>
        <time>2019-06-15T19:07:57Z</time>
      </trkpt>
      <trkpt lat="43.431996" lon="-2.746083">
        <ele>129.021</ele>
        <time>2019-06-15T19:07:58Z</time>
      </trkpt>
      <trkpt lat="43.432057" lon="-2.745910">
        <ele>130.110</ele>
        <time>2019-06-15T19:07:59Z</time>
      </trkpt>
      <trkpt lat="43.432120" lon="-2.745745">
        <ele>131.099</ele>
        <time>2019-06-15T19:08:00Z</time>
      </trkpt>
      <trkpt lat="43.432187" lon="-2.745588">
        <ele>131.180</ele>
        <time>2019-06-15T19:08:01Z</time>
      </trkpt>
      <trkpt lat="43.432261" lon="-2.745446">
        <ele>129.579</ele>
        <time>2019-06-15T19:08:02Z</time>
      </trkpt>
      <trkpt lat="43.432351" lon="-2.745314">
        <ele>128.693</ele>
        <time>2019-06-15T19:08:03Z</time>
      </trkpt>
      <trkpt lat="43.432436" lon="-2.745199">
        <ele>128.268</ele>
        <time>2019-06-15T19:08:04Z</time>
      </trkpt>
      <trkpt lat="43.432514" lon="-2.745117">
        <ele>128.242</ele>
        <time>2019-06-15T19:08:05Z</time>
      </trkpt>
      <trkpt lat="43.432605" lon="-2.745070">
        <ele>125.626</ele>
        <time>2019-06-15T19:08:06Z</time>
      </trkpt>
      <trkpt lat="43.432688" lon="-2.745062">
        <ele>124.308</ele>
        <time>2019-06-15T19:08:07Z</time>
      </trkpt>
      <trkpt lat="43.432784" lon="-2.745101">
        <ele>123.769</ele>
        <time>2019-06-15T19:08:08Z</time>
      </trkpt>
      <trkpt lat="43.432879" lon="-2.745150">
        <ele>122.173</ele>
        <time>2019-06-15T19:08:09Z</time>
      </trkpt>
      <trkpt lat="43.432923" lon="-2.745279">
        <ele>123.412</ele>
        <time>2019-06-15T19:08:10Z</time>
      </trkpt>
      <trkpt lat="43.432995" lon="-2.745390">
        <ele>122.741</ele>
        <time>2019-06-15T19:08:11Z</time>
      </trkpt>
      <trkpt lat="43.433050" lon="-2.745516">
        <ele>122.780</ele>
        <time>2019-06-15T19:08:12Z</time>
      </trkpt>
      <trkpt lat="43.433156" lon="-2.745680">
        <ele>122.381</ele>
        <time>2019-06-15T19:08:13Z</time>
      </trkpt>
      <trkpt lat="43.433231" lon="-2.745831">
        <ele>122.830</ele>
        <time>2019-06-15T19:08:14Z</time>
      </trkpt>
      <trkpt lat="43.433341" lon="-2.745947">
        <ele>122.614</ele>
        <time>2019-06-15T19:08:15Z</time>
      </trkpt>
      <trkpt lat="43.433444" lon="-2.746038">
        <ele>123.091</ele>
        <time>2019-06-15T19:08:16Z</time>
      </trkpt>
      <trkpt lat="43.433538" lon="-2.746117">
        <ele>123.681</ele>
        <time>2019-06-15T19:08:17Z</time>
      </trkpt>
      <trkpt lat="43.433647" lon="-2.746176">
        <ele>123.519</ele>
        <time>2019-06-15T19:08:18Z</time>
      </trkpt>
      <trkpt lat="43.433805" lon="-2.746221">
        <ele>122.608</ele>
        <time>2019-06-15T19:08:19Z</time>
      </trkpt>
      <trkpt lat="43.433958" lon="-2.746261">
        <ele>122.172</ele>
        <time>2019-06-15T19:08:20Z</time>
      </trkpt>
      <trkpt lat="43.434108" lon="-2.746286">
        <ele>121.566</ele>
        <time>2019-06-15T19:08:21Z</time>
      </trkpt>
      <trkpt lat="43.434257" lon="-2.746295">
        <ele>120.745</ele>
        <time>2019-06-15T19:08:22Z</time>
      </trkpt>
      <trkpt lat="43.434384" lon="-2.746294">
        <ele>119.914</ele>
        <time>2019-06-15T19:08:23Z</time>
      </trkpt>
      <trkpt lat="43.434483" lon="-2.746319">
        <ele>119.623</ele>
        <time>2019-06-15T19:08:24Z</time>
      </trkpt>
      <trkpt lat="43.434584" lon="-2.746370">
        <ele>118.994</ele>
        <time>2019-06-15T19:08:25Z</time>
      </trkpt>
      <trkpt lat="43.434661" lon="-2.746475">
        <ele>119.233</ele>
        <time>2019-06-15T19:08:26Z</time>
      </trkpt>
      <trkpt lat="43.434749" lon="-2.746571">
        <ele>118.977</ele>
        <time>2019-06-15T19:08:27Z</time>
      </trkpt>
      <trkpt lat="43.434821" lon="-2.746665">
        <ele>119.558</ele>
        <time>2019-06-15T19:08:28Z</time>
      </trkpt>
      <trkpt lat="43.434885" lon="-2.746787">
        <ele>120.452</ele>
        <time>2019-06-15T19:08:29Z</time>
      </trkpt>
      <trkpt lat="43.434971" lon="-2.746933">
        <ele>121.317</ele>
        <time>2019-06-15T19:08:30Z</time>
      </trkpt>
      <trkpt lat="43.435039" lon="-2.747081">
        <ele>121.608</ele>
        <time>2019-06-15T19:08:31Z</time>
      </trkpt>
      <trkpt lat="43.435105" lon="-2.747222">
        <ele>121.928</ele>
        <time>2019-06-15T19:08:32Z</time>
      </trkpt>
      <trkpt lat="43.435212" lon="-2.747349">
        <ele>122.572</ele>
        <time>2019-06-15T19:08:33Z</time>
      </trkpt>
      <trkpt lat="43.435298" lon="-2.747480">
        <ele>123.421</ele>
        <time>2019-06-15T19:08:34Z</time>
      </trkpt>
      <trkpt lat="43.435405" lon="-2.747575">
        <ele>124.360</ele>
        <time>2019-06-15T19:08:35Z</time>
      </trkpt>
      <trkpt lat="43.435510" lon="-2.747658">
        <ele>125.289</ele>
        <time>2019-06-15T19:08:36Z</time>
      </trkpt>
      <trkpt lat="43.435644" lon="-2.747776">
        <ele>126.440</ele>
        <time>2019-06-15T19:08:37Z</time>
      </trkpt>
      <trkpt lat="43.435826" lon="-2.747897">
        <ele>126.689</ele>
        <time>2019-06-15T19:08:38Z</time>
      </trkpt>
      <trkpt lat="43.435967" lon="-2.748010">
        <ele>128.023</ele>
        <time>2019-06-15T19:08:39Z</time>
      </trkpt>
      <trkpt lat="43.436109" lon="-2.748111">
        <ele>129.239</ele>
        <time>2019-06-15T19:08:40Z</time>
      </trkpt>
      <trkpt lat="43.436247" lon="-2.748227">
        <ele>130.201</ele>
        <time>2019-06-15T19:08:41Z</time>
      </trkpt>
      <trkpt lat="43.436375" lon="-2.748335">
        <ele>131.221</ele>
        <time>2019-06-15T19:08:42Z</time>
      </trkpt>
      <trkpt lat="43.436469" lon="-2.748424">
        <ele>132.108</ele>
        <time>2019-06-15T19:08:43Z</time>
      </trkpt>
      <trkpt lat="43.436584" lon="-2.748502">
        <ele>133.146</ele>
        <time>2019-06-15T19:08:44Z</time>
      </trkpt>
      <trkpt lat="43.436723" lon="-2.748569">
        <ele>134.330</ele>
        <time>2019-06-15T19:08:45Z</time>
      </trkpt>
      <trkpt lat="43.436880" lon="-2.748578">
        <ele>135.119</ele>
        <time>2019-06-15T19:08:46Z</time>
      </trkpt>
      <trkpt lat="43.437020" lon="-2.748586">
        <ele>134.988</ele>
        <time>2019-06-15T19:08:47Z</time>
      </trkpt>
      <trkpt lat="43.437091" lon="-2.748610">
        <ele>134.947</ele>
        <time>2019-06-15T19:08:48Z</time>
      </trkpt>
      <trkpt lat="43.437177" lon="-2.748639">
        <ele>134.538</ele>
        <time>2019-06-15T19:08:49Z</time>
      </trkpt>
      <trkpt lat="43.437268" lon="-2.748685">
        <ele>133.697</ele>
        <time>2019-06-15T19:08:50Z</time>
      </trkpt>
      <trkpt lat="43.437399" lon="-2.748749">
        <ele>131.511</ele>
        <time>2019-06-15T19:08:51Z</time>
      </trkpt>
      <trkpt lat="43.437494" lon="-2.748807">
        <ele>130.281</ele>
        <time>2019-06-15T19:08:52Z</time>
      </trkpt>
      <trkpt lat="43.437518" lon="-2.749020">
        <ele>132.561</ele>
        <time>2019-06-15T19:08:53Z</time>
      </trkpt>
      <trkpt lat="43.437526" lon="-2.749190">
        <ele>134.417</ele>
        <time>2019-06-15T19:08:54Z</time>
      </trkpt>
      <trkpt lat="43.437587" lon="-2.749324">
        <ele>133.708</ele>
        <time>2019-06-15T19:08:55Z</time>
      </trkpt>
      <trkpt lat="43.437721" lon="-2.749427">
        <ele>131.981</ele>
        <time>2019-06-15T19:08:56Z</time>
      </trkpt>
      <trkpt lat="43.437790" lon="-2.749574">
        <ele>133.355</ele>
        <time>2019-06-15T19:08:57Z</time>
      </trkpt>
      <trkpt lat="43.437843" lon="-2.749768">
        <ele>136.514</ele>
        <time>2019-06-15T19:08:58Z</time>
      </trkpt>
      <trkpt lat="43.437942" lon="-2.749887">
        <ele>138.563</ele>
        <time>2019-06-15T19:08:59Z</time>
      </trkpt>
      <trkpt lat="43.438047" lon="-2.749966">
        <ele>140.282</ele>
        <time>2019-06-15T19:09:00Z</time>
      </trkpt>
      <trkpt lat="43.438140" lon="-2.750043">
        <ele>142.873</ele>
        <time>2019-06-15T19:09:01Z</time>
      </trkpt>
      <trkpt lat="43.438234" lon="-2.750007">
        <ele>142.572</ele>
        <time>2019-06-15T19:09:02Z</time>
      </trkpt>
      <trkpt lat="43.438337" lon="-2.749990">
        <ele>142.936</ele>
        <time>2019-06-15T19:09:03Z</time>
      </trkpt>
      <trkpt lat="43.438454" lon="-2.749954">
        <ele>143.668</ele>
        <time>2019-06-15T19:09:04Z</time>
      </trkpt>
      <trkpt lat="43.438590" lon="-2.749896">
        <ele>144.642</ele>
        <time>2019-06-15T19:09:05Z</time>
      </trkpt>
      <trkpt lat="43.438719" lon="-2.749848">
        <ele>145.526</ele>
        <time>2019-06-15T19:09:06Z</time>
      </trkpt>
      <trkpt lat="43.438850" lon="-2.749828">
        <ele>146.708</ele>
        <time>2019-06-15T19:09:07Z</time>
      </trkpt>
      <trkpt lat="43.438978" lon="-2.749809">
        <ele>146.049</ele>
        <time>2019-06-15T19:09:08Z</time>
      </trkpt>
      <trkpt lat="43.439081" lon="-2.749936">
        <ele>147.163</ele>
        <time>2019-06-15T19:09:09Z</time>
      </trkpt>
      <trkpt lat="43.439209" lon="-2.750030">
        <ele>148.422</ele>
        <time>2019-06-15T19:09:10Z</time>
      </trkpt>
      <trkpt lat="43.439335" lon="-2.750142">
        <ele>149.981</ele>
        <time>2019-06-15T19:09:11Z</time>
      </trkpt>
      <trkpt lat="43.439461" lon="-2.750239">
        <ele>151.260</ele>
        <time>2019-06-15T19:09:12Z</time>
      </trkpt>
      <trkpt lat="43.439561" lon="-2.750350">
        <ele>152.671</ele>
        <time>2019-06-15T19:09:13Z</time>
      </trkpt>
      <trkpt lat="43.439695" lon="-2.750466">
        <ele>153.720</ele>
        <time>2019-06-15T19:09:14Z</time>
      </trkpt>
      <trkpt lat="43.439817" lon="-2.750586">
        <ele>154.194</ele>
        <time>2019-06-15T19:09:15Z</time>
      </trkpt>
      <trkpt lat="43.439927" lon="-2.750722">
        <ele>154.465</ele>
        <time>2019-06-15T19:09:16Z</time>
      </trkpt>
      <trkpt lat="43.440054" lon="-2.750878">
        <ele>154.968</ele>
        <time>2019-06-15T19:09:17Z</time>
      </trkpt>
      <trkpt lat="43.440128" lon="-2.751053">
        <ele>156.314</ele>
        <time>2019-06-15T19:09:18Z</time>
      </trkpt>
      <trkpt lat="43.440169" lon="-2.751249">
        <ele>158.408</ele>
        <time>2019-06-15T19:09:19Z</time>
      </trkpt>
      <trkpt lat="43.440204" lon="-2.751456">
        <ele>160.339</ele>
        <time>2019-06-15T19:09:20Z</time>
      </trkpt>
      <trkpt lat="43.440236" lon="-2.751666">
        <ele>161.413</ele>
        <time>2019-06-15T19:09:21Z</time>
      </trkpt>
      <trkpt lat="43.440268" lon="-2.751864">
        <ele>160.412</ele>
        <time>2019-06-15T19:09:22Z</time>
      </trkpt>
      <trkpt lat="43.440265" lon="-2.752016">
        <ele>161.311</ele>
        <time>2019-06-15T19:09:23Z</time>
      </trkpt>
      <trkpt lat="43.440304" lon="-2.752184">
        <ele>162.920</ele>
        <time>2019-06-15T19:09:24Z</time>
      </trkpt>
      <trkpt lat="43.440346" lon="-2.752332">
        <ele>166.451</ele>
        <time>2019-06-15T19:09:25Z</time>
      </trkpt>
      <trkpt lat="43.440408" lon="-2.752378">
        <ele>166.510</ele>
        <time>2019-06-15T19:09:26Z</time>
      </trkpt>
      <trkpt lat="43.440472" lon="-2.752462">
        <ele>167.864</ele>
        <time>2019-06-15T19:09:27Z</time>
      </trkpt>
      <trkpt lat="43.440581" lon="-2.752567">
        <ele>168.382</ele>
        <time>2019-06-15T19:09:28Z</time>
      </trkpt>
      <trkpt lat="43.440668" lon="-2.752684">
        <ele>169.343</ele>
        <time>2019-06-15T19:09:29Z</time>
      </trkpt>
      <trkpt lat="43.440747" lon="-2.752811">
        <ele>169.917</ele>
        <time>2019-06-15T19:09:30Z</time>
      </trkpt>
      <trkpt lat="43.440776" lon="-2.752935">
        <ele>170.808</ele>
        <time>2019-06-15T19:09:31Z</time>
      </trkpt>
      <trkpt lat="43.440781" lon="-2.753054">
        <ele>172.341</ele>
        <time>2019-06-15T19:09:32Z</time>
      </trkpt>
      <trkpt lat="43.440822" lon="-2.753179">
        <ele>173.015</ele>
        <time>2019-06-15T19:09:33Z</time>
      </trkpt>
      <trkpt lat="43.440902" lon="-2.753280">
        <ele>174.494</ele>
        <time>2019-06-15T19:09:34Z</time>
      </trkpt>
      <trkpt lat="43.441005" lon="-2.753322">
        <ele>175.413</ele>
        <time>2019-06-15T19:09:35Z</time>
      </trkpt>
      <trkpt lat="43.441107" lon="-2.753374">
        <ele>176.992</ele>
        <time>2019-06-15T19:09:36Z</time>
      </trkpt>
      <trkpt lat="43.441216" lon="-2.753474">
        <ele>177.973</ele>
        <time>2019-06-15T19:09:37Z</time>
      </trkpt>
      <trkpt lat="43.441351" lon="-2.753583">
        <ele>178.162</ele>
        <time>2019-06-15T19:09:38Z</time>
      </trkpt>
      <trkpt lat="43.441483" lon="-2.753716">
        <ele>179.996</ele>
        <time>2019-06-15T19:09:39Z</time>
      </trkpt>
      <trkpt lat="43.441602" lon="-2.753826">
        <ele>181.727</ele>
        <time>2019-06-15T19:09:40Z</time>
      </trkpt>
      <trkpt lat="43.441771" lon="-2.753884">
        <ele>181.768</ele>
        <time>2019-06-15T19:09:41Z</time>
      </trkpt>
      <trkpt lat="43.441901" lon="-2.753968">
        <ele>183.214</ele>
        <time>2019-06-15T19:09:42Z</time>
      </trkpt>
      <trkpt lat="43.442022" lon="-2.754055">
        <ele>184.308</ele>
        <time>2019-06-15T19:09:43Z</time>
      </trkpt>
      <trkpt lat="43.442126" lon="-2.754115">
        <ele>184.715</ele>
        <time>2019-06-15T19:09:44Z</time>
      </trkpt>
      <trkpt lat="43.442297" lon="-2.754172">
        <ele>185.759</ele>
        <time>2019-06-15T19:09:45Z</time>
      </trkpt>
      <trkpt lat="43.442411" lon="-2.754199">
        <ele>187.358</ele>
        <time>2019-06-15T19:09:46Z</time>
      </trkpt>
      <trkpt lat="43.442557" lon="-2.754209">
        <ele>188.017</ele>
        <time>2019-06-15T19:09:47Z</time>
      </trkpt>
      <trkpt lat="43.442683" lon="-2.754241">
        <ele>188.166</ele>
        <time>2019-06-15T19:09:48Z</time>
      </trkpt>
      <trkpt lat="43.442791" lon="-2.754316">
        <ele>188.917</ele>
        <time>2019-06-15T19:09:49Z</time>
      </trkpt>
      <trkpt lat="43.442847" lon="-2.754434">
        <ele>190.586</ele>
        <time>2019-06-15T19:09:50Z</time>
      </trkpt>
      <trkpt lat="43.442938" lon="-2.754555">
        <ele>192.350</ele>
        <time>2019-06-15T19:09:51Z</time>
      </trkpt>
      <trkpt lat="43.443054" lon="-2.754645">
        <ele>192.814</ele>
        <time>2019-06-15T19:09:52Z</time>
      </trkpt>
      <trkpt lat="43.443169" lon="-2.754675">
        <ele>194.054</ele>
        <time>2019-06-15T19:09:53Z</time>
      </trkpt>
      <trkpt lat="43.443282" lon="-2.754712">
        <ele>195.509</ele>
        <time>2019-06-15T19:09:54Z</time>
      </trkpt>
      <trkpt lat="43.443383" lon="-2.754740">
        <ele>196.608</ele>
        <time>2019-06-15T19:09:55Z</time>
      </trkpt>
      <trkpt lat="43.443504" lon="-2.754756">
        <ele>196.834</ele>
        <time>2019-06-15T19:09:56Z</time>
      </trkpt>
      <trkpt lat="43.443615" lon="-2.754813">
        <ele>197.658</ele>
        <time>2019-06-15T19:09:57Z</time>
      </trkpt>
      <trkpt lat="43.443694" lon="-2.754900">
        <ele>198.487</ele>
        <time>2019-06-15T19:09:58Z</time>
      </trkpt>
      <trkpt lat="43.443783" lon="-2.754989">
        <ele>199.596</ele>
        <time>2019-06-15T19:09:59Z</time>
      </trkpt>
      <trkpt lat="43.443935" lon="-2.755003">
        <ele>199.645</ele>
        <time>2019-06-15T19:10:00Z</time>
      </trkpt>
      <trkpt lat="43.444059" lon="-2.755021">
        <ele>201.676</ele>
        <time>2019-06-15T19:10:01Z</time>
      </trkpt>
      <trkpt lat="43.444167" lon="-2.755033">
        <ele>203.315</ele>
        <time>2019-06-15T19:10:02Z</time>
      </trkpt>
      <trkpt lat="43.444344" lon="-2.754981">
        <ele>203.969</ele>
        <time>2019-06-15T19:10:03Z</time>
      </trkpt>
      <trkpt lat="43.444474" lon="-2.754960">
        <ele>204.979</ele>
        <time>2019-06-15T19:10:04Z</time>
      </trkpt>
      <trkpt lat="43.444634" lon="-2.754926">
        <ele>205.005</ele>
        <time>2019-06-15T19:10:05Z</time>
      </trkpt>
      <trkpt lat="43.444779" lon="-2.754891">
        <ele>205.325</ele>
        <time>2019-06-15T19:10:06Z</time>
      </trkpt>
      <trkpt lat="43.444904" lon="-2.754854">
        <ele>206.308</ele>
        <time>2019-06-15T19:10:07Z</time>
      </trkpt>
      <trkpt lat="43.445056" lon="-2.754843">
        <ele>208.240</ele>
        <time>2019-06-15T19:10:08Z</time>
      </trkpt>
      <trkpt lat="43.445211" lon="-2.754830">
        <ele>209.884</ele>
        <time>2019-06-15T19:10:09Z</time>
      </trkpt>
      <trkpt lat="43.445371" lon="-2.754868">
        <ele>211.983</ele>
        <time>2019-06-15T19:10:10Z</time>
      </trkpt>
      <trkpt lat="43.445536" lon="-2.754902">
        <ele>213.572</ele>
        <time>2019-06-15T19:10:11Z</time>
      </trkpt>
      <trkpt lat="43.445701" lon="-2.754944">
        <ele>214.731</ele>
        <time>2019-06-15T19:10:12Z</time>
      </trkpt>
      <trkpt lat="43.445874" lon="-2.754970">
        <ele>215.912</ele>
        <time>2019-06-15T19:10:13Z</time>
      </trkpt>
      <trkpt lat="43.446029" lon="-2.755017">
        <ele>216.941</ele>
        <time>2019-06-15T19:10:14Z</time>
      </trkpt>
      <trkpt lat="43.446179" lon="-2.755079">
        <ele>217.715</ele>
        <time>2019-06-15T19:10:15Z</time>
      </trkpt>
      <trkpt lat="43.446333" lon="-2.755142">
        <ele>218.021</ele>
        <time>2019-06-15T19:10:16Z</time>
      </trkpt>
      <trkpt lat="43.446497" lon="-2.755214">
        <ele>219.641</ele>
        <time>2019-06-15T19:10:17Z</time>
      </trkpt>
      <trkpt lat="43.446645" lon="-2.755288">
        <ele>221.605</ele>
        <time>2019-06-15T19:10:18Z</time>
      </trkpt>
      <trkpt lat="43.446783" lon="-2.755361">
        <ele>222.908</ele>
        <time>2019-06-15T19:10:19Z</time>
      </trkpt>
      <trkpt lat="43.446895" lon="-2.755448">
        <ele>222.485</ele>
        <time>2019-06-15T19:10:20Z</time>
      </trkpt>
      <trkpt lat="43.447000" lon="-2.755526">
        <ele>220.849</ele>
        <time>2019-06-15T19:10:21Z</time>
      </trkpt>
      <trkpt lat="43.447103" lon="-2.755605">
        <ele>219.838</ele>
        <time>2019-06-15T19:10:22Z</time>
      </trkpt>
      <trkpt lat="43.447109" lon="-2.755751">
        <ele>219.387</ele>
        <time>2019-06-15T19:10:23Z</time>
      </trkpt>
      <trkpt lat="43.447138" lon="-2.755880">
        <ele>218.136</ele>
        <time>2019-06-15T19:10:24Z</time>
      </trkpt>
      <trkpt lat="43.447137" lon="-2.756022">
        <ele>216.997</ele>
        <time>2019-06-15T19:10:25Z</time>
      </trkpt>
      <trkpt lat="43.447098" lon="-2.756154">
        <ele>217.036</ele>
        <time>2019-06-15T19:10:26Z</time>
      </trkpt>
      <trkpt lat="43.447034" lon="-2.756294">
        <ele>217.390</ele>
        <time>2019-06-15T19:10:27Z</time>
      </trkpt>
      <trkpt lat="43.446946" lon="-2.756431">
        <ele>217.812</ele>
        <time>2019-06-15T19:10:28Z</time>
      </trkpt>
      <trkpt lat="43.446837" lon="-2.756583">
        <ele>219.432</ele>
        <time>2019-06-15T19:10:29Z</time>
      </trkpt>
      <trkpt lat="43.446724" lon="-2.756730">
        <ele>219.005</ele>
        <time>2019-06-15T19:10:30Z</time>
      </trkpt>
      <trkpt lat="43.446612" lon="-2.756885">
        <ele>219.808</ele>
        <time>2019-06-15T19:10:31Z</time>
      </trkpt>
      <trkpt lat="43.446506" lon="-2.757056">
        <ele>220.044</ele>
        <time>2019-06-15T19:10:32Z</time>
      </trkpt>
      <trkpt lat="43.446410" lon="-2.757242">
        <ele>219.098</ele>
        <time>2019-06-15T19:10:33Z</time>
      </trkpt>
      <trkpt lat="43.446332" lon="-2.757437">
        <ele>221.117</ele>
        <time>2019-06-15T19:10:34Z</time>
      </trkpt>
      <trkpt lat="43.446264" lon="-2.757639">
        <ele>223.986</ele>
        <time>2019-06-15T19:10:35Z</time>
      </trkpt>
      <trkpt lat="43.446203" lon="-2.757851">
        <ele>227.925</ele>
        <time>2019-06-15T19:10:36Z</time>
      </trkpt>
      <trkpt lat="43.446163" lon="-2.758070">
        <ele>229.896</ele>
        <time>2019-06-15T19:10:37Z</time>
      </trkpt>
      <trkpt lat="43.446129" lon="-2.758293">
        <ele>228.195</ele>
        <time>2019-06-15T19:10:38Z</time>
      </trkpt>
      <trkpt lat="43.446099" lon="-2.758531">
        <ele>226.349</ele>
        <time>2019-06-15T19:10:39Z</time>
      </trkpt>
      <trkpt lat="43.446057" lon="-2.758775">
        <ele>226.664</ele>
        <time>2019-06-15T19:10:40Z</time>
      </trkpt>
      <trkpt lat="43.446005" lon="-2.759023">
        <ele>228.006</ele>
        <time>2019-06-15T19:10:41Z</time>
      </trkpt>
      <trkpt lat="43.445939" lon="-2.759258">
        <ele>229.916</ele>
        <time>2019-06-15T19:10:42Z</time>
      </trkpt>
      <trkpt lat="43.445867" lon="-2.759495">
        <ele>232.008</ele>
        <time>2019-06-15T19:10:43Z</time>
      </trkpt>
      <trkpt lat="43.445770" lon="-2.759740">
        <ele>233.599</ele>
        <time>2019-06-15T19:10:44Z</time>
      </trkpt>
      <trkpt lat="43.445667" lon="-2.759977">
        <ele>235.623</ele>
        <time>2019-06-15T19:10:45Z</time>
      </trkpt>
      <trkpt lat="43.445554" lon="-2.760197">
        <ele>238.682</ele>
        <time>2019-06-15T19:10:46Z</time>
      </trkpt>
      <trkpt lat="43.445442" lon="-2.760438">
        <ele>240.471</ele>
        <time>2019-06-15T19:10:47Z</time>
      </trkpt>
      <trkpt lat="43.445334" lon="-2.760678">
        <ele>239.180</ele>
        <time>2019-06-15T19:10:48Z</time>
      </trkpt>
      <trkpt lat="43.445238" lon="-2.760934">
        <ele>235.721</ele>
        <time>2019-06-15T19:10:49Z</time>
      </trkpt>
      <trkpt lat="43.445149" lon="-2.761196">
        <ele>239.280</ele>
        <time>2019-06-15T19:10:50Z</time>
      </trkpt>
      <trkpt lat="43.445069" lon="-2.761472">
        <ele>244.484</ele>
        <time>2019-06-15T19:10:51Z</time>
      </trkpt>
      <trkpt lat="43.444997" lon="-2.761750">
        <ele>245.927</ele>
        <time>2019-06-15T19:10:52Z</time>
      </trkpt>
      <trkpt lat="43.444941" lon="-2.762029">
        <ele>245.768</ele>
        <time>2019-06-15T19:10:53Z</time>
      </trkpt>
      <trkpt lat="43.444884" lon="-2.762319">
        <ele>242.114</ele>
        <time>2019-06-15T19:10:54Z</time>
      </trkpt>
      <trkpt lat="43.444829" lon="-2.762599">
        <ele>242.008</ele>
        <time>2019-06-15T19:10:55Z</time>
      </trkpt>
      <trkpt lat="43.444773" lon="-2.762885">
        <ele>242.695</ele>
        <time>2019-06-15T19:10:56Z</time>
      </trkpt>
      <trkpt lat="43.444720" lon="-2.763175">
        <ele>246.619</ele>
        <time>2019-06-15T19:10:57Z</time>
      </trkpt>
      <trkpt lat="43.444655" lon="-2.763452">
        <ele>250.188</ele>
        <time>2019-06-15T19:10:58Z</time>
      </trkpt>
      <trkpt lat="43.444585" lon="-2.763736">
        <ele>250.457</ele>
        <time>2019-06-15T19:10:59Z</time>
      </trkpt>
      <trkpt lat="43.444509" lon="-2.764001">
        <ele>250.766</ele>
        <time>2019-06-15T19:11:00Z</time>
      </trkpt>
      <trkpt lat="43.444421" lon="-2.764270">
        <ele>252.297</ele>
        <time>2019-06-15T19:11:01Z</time>
      </trkpt>
      <trkpt lat="43.444320" lon="-2.764537">
        <ele>253.196</ele>
        <time>2019-06-15T19:11:02Z</time>
      </trkpt>
      <trkpt lat="43.444205" lon="-2.764797">
        <ele>254.190</ele>
        <time>2019-06-15T19:11:03Z</time>
      </trkpt>
      <trkpt lat="43.444089" lon="-2.765051">
        <ele>260.239</ele>
        <time>2019-06-15T19:11:04Z</time>
      </trkpt>
      <trkpt lat="43.443960" lon="-2.765295">
        <ele>266.701</ele>
        <time>2019-06-15T19:11:05Z</time>
      </trkpt>
      <trkpt lat="43.443825" lon="-2.765522">
        <ele>268.721</ele>
        <time>2019-06-15T19:11:06Z</time>
      </trkpt>
      <trkpt lat="43.443681" lon="-2.765739">
        <ele>267.208</ele>
        <time>2019-06-15T19:11:07Z</time>
      </trkpt>
      <trkpt lat="43.443532" lon="-2.765954">
        <ele>269.796</ele>
        <time>2019-06-15T19:11:08Z</time>
      </trkpt>
      <trkpt lat="43.443375" lon="-2.766166">
        <ele>272.680</ele>
        <time>2019-06-15T19:11:09Z</time>
      </trkpt>
      <trkpt lat="43.443217" lon="-2.766354">
        <ele>275.219</ele>
        <time>2019-06-15T19:11:10Z</time>
      </trkpt>
      <trkpt lat="43.443051" lon="-2.766551">
        <ele>277.378</ele>
        <time>2019-06-15T19:11:11Z</time>
      </trkpt>
      <trkpt lat="43.442883" lon="-2.766729">
        <ele>281.757</ele>
        <time>2019-06-15T19:11:12Z</time>
      </trkpt>
      <trkpt lat="43.442717" lon="-2.766914">
        <ele>286.398</ele>
        <time>2019-06-15T19:11:13Z</time>
      </trkpt>
      <trkpt lat="43.442544" lon="-2.767103">
        <ele>288.217</ele>
        <time>2019-06-15T19:11:14Z</time>
      </trkpt>
      <trkpt lat="43.442385" lon="-2.767282">
        <ele>288.111</ele>
        <time>2019-06-15T19:11:15Z</time>
      </trkpt>
      <trkpt lat="43.442222" lon="-2.767468">
        <ele>290.481</ele>
        <time>2019-06-15T19:11:16Z</time>
      </trkpt>
      <trkpt lat="43.442062" lon="-2.767659">
        <ele>295.461</ele>
        <time>2019-06-15T19:11:17Z</time>
      </trkpt>
      <trkpt lat="43.441905" lon="-2.767864">
        <ele>300.117</ele>
        <time>2019-06-15T19:11:18Z</time>
      </trkpt>
      <trkpt lat="43.441758" lon="-2.768083">
        <ele>295.608</ele>
        <time>2019-06-15T19:11:19Z</time>
      </trkpt>
      <trkpt lat="43.441620" lon="-2.768312">
        <ele>287.561</ele>
        <time>2019-06-15T19:11:20Z</time>
      </trkpt>
      <trkpt lat="43.441483" lon="-2.768554">
        <ele>285.595</ele>
        <time>2019-06-15T19:11:21Z</time>
      </trkpt>
      <trkpt lat="43.441365" lon="-2.768796">
        <ele>284.784</ele>
        <time>2019-06-15T19:11:22Z</time>
      </trkpt>
      <trkpt lat="43.441246" lon="-2.769057">
        <ele>284.943</ele>
        <time>2019-06-15T19:11:23Z</time>
      </trkpt>
      <trkpt lat="43.441144" lon="-2.769322">
        <ele>287.642</ele>
        <time>2019-06-15T19:11:24Z</time>
      </trkpt>
      <trkpt lat="43.441061" lon="-2.769578">
        <ele>293.093</ele>
        <time>2019-06-15T19:11:25Z</time>
      </trkpt>
      <trkpt lat="43.440973" lon="-2.769852">
        <ele>297.972</ele>
        <time>2019-06-15T19:11:26Z</time>
      </trkpt>
      <trkpt lat="43.440907" lon="-2.770102">
        <ele>302.246</ele>
        <time>2019-06-15T19:11:27Z</time>
      </trkpt>
      <trkpt lat="43.440845" lon="-2.770352">
        <ele>306.379</ele>
        <time>2019-06-15T19:11:28Z</time>
      </trkpt>
      <trkpt lat="43.440792" lon="-2.770608">
        <ele>308.405</ele>
        <time>2019-06-15T19:11:29Z</time>
      </trkpt>
      <trkpt lat="43.440754" lon="-2.770866">
        <ele>310.125</ele>
        <time>2019-06-15T19:11:30Z</time>
      </trkpt>
      <trkpt lat="43.440721" lon="-2.771129">
        <ele>313.308</ele>
        <time>2019-06-15T19:11:31Z</time>
      </trkpt>
      <trkpt lat="43.440700" lon="-2.771407">
        <ele>312.240</ele>
        <time>2019-06-15T19:11:32Z</time>
      </trkpt>
      <trkpt lat="43.440681" lon="-2.771694">
        <ele>304.594</ele>
        <time>2019-06-15T19:11:33Z</time>
      </trkpt>
      <trkpt lat="43.440674" lon="-2.771985">
        <ele>299.733</ele>
        <time>2019-06-15T19:11:34Z</time>
      </trkpt>
      <trkpt lat="43.440671" lon="-2.772270">
        <ele>297.822</ele>
        <time>2019-06-15T19:11:35Z</time>
      </trkpt>
      <trkpt lat="43.440672" lon="-2.772530">
        <ele>295.731</ele>
        <time>2019-06-15T19:11:36Z</time>
      </trkpt>
      <trkpt lat="43.440676" lon="-2.772806">
        <ele>291.492</ele>
        <time>2019-06-15T19:11:37Z</time>
      </trkpt>
      <trkpt lat="43.440674" lon="-2.773078">
        <ele>290.011</ele>
        <time>2019-06-15T19:11:38Z</time>
      </trkpt>
      <trkpt lat="43.440666" lon="-2.773354">
        <ele>288.385</ele>
        <time>2019-06-15T19:11:39Z</time>
      </trkpt>
      <trkpt lat="43.440655" lon="-2.773616">
        <ele>284.635</ele>
        <time>2019-06-15T19:11:40Z</time>
      </trkpt>
      <trkpt lat="43.440628" lon="-2.773881">
        <ele>283.286</ele>
        <time>2019-06-15T19:11:41Z</time>
      </trkpt>
      <trkpt lat="43.440602" lon="-2.774142">
        <ele>279.314</ele>
        <time>2019-06-15T19:11:42Z</time>
      </trkpt>
      <trkpt lat="43.440554" lon="-2.774405">
        <ele>276.308</ele>
        <time>2019-06-15T19:11:43Z</time>
      </trkpt>
      <trkpt lat="43.440482" lon="-2.774677">
        <ele>275.516</ele>
        <time>2019-06-15T19:11:44Z</time>
      </trkpt>
      <trkpt lat="43.440389" lon="-2.774939">
        <ele>277.730</ele>
        <time>2019-06-15T19:11:45Z</time>
      </trkpt>
      <trkpt lat="43.440280" lon="-2.775193">
        <ele>276.059</ele>
        <time>2019-06-15T19:11:46Z</time>
      </trkpt>
      <trkpt lat="43.440150" lon="-2.775426">
        <ele>274.698</ele>
        <time>2019-06-15T19:11:47Z</time>
      </trkpt>
      <trkpt lat="43.440005" lon="-2.775663">
        <ele>270.237</ele>
        <time>2019-06-15T19:11:48Z</time>
      </trkpt>
      <trkpt lat="43.439851" lon="-2.775815">
        <ele>271.038</ele>
        <time>2019-06-15T19:11:49Z</time>
      </trkpt>
      <trkpt lat="43.439703" lon="-2.775973">
        <ele>271.197</ele>
        <time>2019-06-15T19:11:50Z</time>
      </trkpt>
      <trkpt lat="43.439552" lon="-2.776160">
        <ele>270.821</ele>
        <time>2019-06-15T19:11:51Z</time>
      </trkpt>
      <trkpt lat="43.439392" lon="-2.776331">
        <ele>270.385</ele>
        <time>2019-06-15T19:11:52Z</time>
      </trkpt>
      <trkpt lat="43.439233" lon="-2.776513">
        <ele>268.989</ele>
        <time>2019-06-15T19:11:53Z</time>
      </trkpt>
      <trkpt lat="43.439087" lon="-2.776704">
        <ele>267.817</ele>
        <time>2019-06-15T19:11:54Z</time>
      </trkpt>
      <trkpt lat="43.438959" lon="-2.776901">
        <ele>266.908</ele>
        <time>2019-06-15T19:11:55Z</time>
      </trkpt>
      <trkpt lat="43.438852" lon="-2.777129">
        <ele>265.751</ele>
        <time>2019-06-15T19:11:56Z</time>
      </trkpt>
      <trkpt lat="43.438748" lon="-2.777352">
        <ele>263.165</ele>
        <time>2019-06-15T19:11:57Z</time>
      </trkpt>
      <trkpt lat="43.438665" lon="-2.777581">
        <ele>260.424</ele>
        <time>2019-06-15T19:11:58Z</time>
      </trkpt>
      <trkpt lat="43.438577" lon="-2.777812">
        <ele>258.923</ele>
        <time>2019-06-15T19:11:59Z</time>
      </trkpt>
      <trkpt lat="43.438615" lon="-2.778122">
        <ele>256.072</ele>
        <time>2019-06-15T19:12:00Z</time>
      </trkpt>
      <trkpt lat="43.438621" lon="-2.778383">
        <ele>252.163</ele>
        <time>2019-06-15T19:12:01Z</time>
      </trkpt>
      <trkpt lat="43.438648" lon="-2.778648">
        <ele>247.472</ele>
        <time>2019-06-15T19:12:02Z</time>
      </trkpt>
      <trkpt lat="43.438694" lon="-2.778873">
        <ele>243.556</ele>
        <time>2019-06-15T19:12:03Z</time>
      </trkpt>
      <trkpt lat="43.438747" lon="-2.779122">
        <ele>239.755</ele>
        <time>2019-06-15T19:12:04Z</time>
      </trkpt>
      <trkpt lat="43.438805" lon="-2.779371">
        <ele>237.007</ele>
        <time>2019-06-15T19:12:05Z</time>
      </trkpt>
      <trkpt lat="43.438851" lon="-2.779628">
        <ele>235.517</ele>
        <time>2019-06-15T19:12:06Z</time>
      </trkpt>
      <trkpt lat="43.438880" lon="-2.779877">
        <ele>235.708</ele>
        <time>2019-06-15T19:12:07Z</time>
      </trkpt>
      <trkpt lat="43.438879" lon="-2.780142">
        <ele>236.288</ele>
        <time>2019-06-15T19:12:08Z</time>
      </trkpt>
      <trkpt lat="43.438869" lon="-2.780394">
        <ele>236.882</ele>
        <time>2019-06-15T19:12:09Z</time>
      </trkpt>
      <trkpt lat="43.438836" lon="-2.780629">
        <ele>237.291</ele>
        <time>2019-06-15T19:12:10Z</time>
      </trkpt>
      <trkpt lat="43.438805" lon="-2.780874">
        <ele>238.050</ele>
        <time>2019-06-15T19:12:11Z</time>
      </trkpt>
      <trkpt lat="43.438788" lon="-2.781117">
        <ele>236.999</ele>
        <time>2019-06-15T19:12:12Z</time>
      </trkpt>
      <trkpt lat="43.438791" lon="-2.781375">
        <ele>234.410</ele>
        <time>2019-06-15T19:12:13Z</time>
      </trkpt>
      <trkpt lat="43.438820" lon="-2.781614">
        <ele>230.779</ele>
        <time>2019-06-15T19:12:14Z</time>
      </trkpt>
      <trkpt lat="43.438859" lon="-2.781851">
        <ele>226.633</ele>
        <time>2019-06-15T19:12:15Z</time>
      </trkpt>
      <trkpt lat="43.438946" lon="-2.782069">
        <ele>221.843</ele>
        <time>2019-06-15T19:12:16Z</time>
      </trkpt>
      <trkpt lat="43.439018" lon="-2.782263">
        <ele>217.364</ele>
        <time>2019-06-15T19:12:17Z</time>
      </trkpt>
      <trkpt lat="43.439104" lon="-2.782443">
        <ele>213.010</ele>
        <time>2019-06-15T19:12:18Z</time>
      </trkpt>
      <trkpt lat="43.439161" lon="-2.782621">
        <ele>210.208</ele>
        <time>2019-06-15T19:12:19Z</time>
      </trkpt>
      <trkpt lat="43.439210" lon="-2.782781">
        <ele>208.047</ele>
        <time>2019-06-15T19:12:20Z</time>
      </trkpt>
      <trkpt lat="43.439254" lon="-2.782933">
        <ele>203.441</ele>
        <time>2019-06-15T19:12:21Z</time>
      </trkpt>
      <trkpt lat="43.439271" lon="-2.783060">
        <ele>200.020</ele>
        <time>2019-06-15T19:12:22Z</time>
      </trkpt>
      <trkpt lat="43.439287" lon="-2.783173">
        <ele>196.259</ele>
        <time>2019-06-15T19:12:23Z</time>
      </trkpt>
      <trkpt lat="43.439310" lon="-2.783231">
        <ele>194.198</ele>
        <time>2019-06-15T19:12:24Z</time>
      </trkpt>
      <trkpt lat="43.439365" lon="-2.783258">
        <ele>192.749</ele>
        <time>2019-06-15T19:12:26Z</time>
      </trkpt>
      <trkpt lat="43.439466" lon="-2.783230">
        <ele>192.428</ele>
        <time>2019-06-15T19:12:28Z</time>
      </trkpt>
      <trkpt lat="43.439519" lon="-2.783215">
        <ele>192.492</ele>
        <time>2019-06-15T19:12:29Z</time>
      </trkpt>
      <trkpt lat="43.439583" lon="-2.783195">
        <ele>192.512</ele>
        <time>2019-06-15T19:12:30Z</time>
      </trkpt>
      <trkpt lat="43.439652" lon="-2.783169">
        <ele>192.632</ele>
        <time>2019-06-15T19:12:31Z</time>
      </trkpt>
      <trkpt lat="43.439728" lon="-2.783144">
        <ele>192.705</ele>
        <time>2019-06-15T19:12:32Z</time>
      </trkpt>
      <trkpt lat="43.439818" lon="-2.783114">
        <ele>192.808</ele>
        <time>2019-06-15T19:12:33Z</time>
      </trkpt>
      <trkpt lat="43.439922" lon="-2.783078">
        <ele>193.064</ele>
        <time>2019-06-15T19:12:34Z</time>
      </trkpt>
      <trkpt lat="43.439989" lon="-2.783039">
        <ele>193.458</ele>
        <time>2019-06-15T19:12:35Z</time>
      </trkpt>
      <trkpt lat="43.440074" lon="-2.782999">
        <ele>193.037</ele>
        <time>2019-06-15T19:12:36Z</time>
      </trkpt>
      <trkpt lat="43.440131" lon="-2.782942">
        <ele>193.296</ele>
        <time>2019-06-15T19:12:37Z</time>
      </trkpt>
      <trkpt lat="43.440203" lon="-2.782887">
        <ele>192.825</ele>
        <time>2019-06-15T19:12:38Z</time>
      </trkpt>
      <trkpt lat="43.440252" lon="-2.782833">
        <ele>192.756</ele>
        <time>2019-06-15T19:12:39Z</time>
      </trkpt>
      <trkpt lat="43.440284" lon="-2.782775">
        <ele>192.875</ele>
        <time>2019-06-15T19:12:40Z</time>
      </trkpt>
      <trkpt lat="43.440325" lon="-2.782715">
        <ele>191.879</ele>
        <time>2019-06-15T19:12:41Z</time>
      </trkpt>
      <trkpt lat="43.440359" lon="-2.782662">
        <ele>190.886</ele>
        <time>2019-06-15T19:12:42Z</time>
      </trkpt>
      <trkpt lat="43.440398" lon="-2.782598">
        <ele>189.660</ele>
        <time>2019-06-15T19:12:43Z</time>
      </trkpt>
      <trkpt lat="43.440416" lon="-2.782538">
        <ele>189.026</ele>
        <time>2019-06-15T19:12:44Z</time>
      </trkpt>
      <trkpt lat="43.440427" lon="-2.782468">
        <ele>188.908</ele>
        <time>2019-06-15T19:12:45Z</time>
      </trkpt>
      <trkpt lat="43.440435" lon="-2.782393">
        <ele>189.341</ele>
        <time>2019-06-15T19:12:46Z</time>
      </trkpt>
      <trkpt lat="43.440442" lon="-2.782317">
        <ele>189.865</ele>
        <time>2019-06-15T19:12:47Z</time>
      </trkpt>
      <trkpt lat="43.440442" lon="-2.782229">
        <ele>190.614</ele>
        <time>2019-06-15T19:12:48Z</time>
      </trkpt>
      <trkpt lat="43.440443" lon="-2.782150">
        <ele>191.153</ele>
        <time>2019-06-15T19:12:49Z</time>
      </trkpt>
      <trkpt lat="43.440432" lon="-2.782067">
        <ele>191.972</ele>
        <time>2019-06-15T19:12:50Z</time>
      </trkpt>
      <trkpt lat="43.440430" lon="-2.781981">
        <ele>192.443</ele>
        <time>2019-06-15T19:12:51Z</time>
      </trkpt>
      <trkpt lat="43.440421" lon="-2.781897">
        <ele>192.822</ele>
        <time>2019-06-15T19:12:52Z</time>
      </trkpt>
      <trkpt lat="43.440412" lon="-2.781825">
        <ele>192.966</ele>
        <time>2019-06-15T19:12:53Z</time>
      </trkpt>
      <trkpt lat="43.440404" lon="-2.781752">
        <ele>193.163</ele>
        <time>2019-06-15T19:12:54Z</time>
      </trkpt>
      <trkpt lat="43.440400" lon="-2.781672">
        <ele>193.244</ele>
        <time>2019-06-15T19:12:55Z</time>
      </trkpt>
      <trkpt lat="43.440392" lon="-2.781596">
        <ele>193.418</ele>
        <time>2019-06-15T19:12:56Z</time>
      </trkpt>
      <trkpt lat="43.440390" lon="-2.781508">
        <ele>193.308</ele>
        <time>2019-06-15T19:12:57Z</time>
      </trkpt>
      <trkpt lat="43.440381" lon="-2.781428">
        <ele>193.679</ele>
        <time>2019-06-15T19:12:58Z</time>
      </trkpt>
      <trkpt lat="43.440366" lon="-2.781346">
        <ele>194.073</ele>
        <time>2019-06-15T19:12:59Z</time>
      </trkpt>
      <trkpt lat="43.440356" lon="-2.781264">
        <ele>194.052</ele>
        <time>2019-06-15T19:13:00Z</time>
      </trkpt>
      <trkpt lat="43.440348" lon="-2.781176">
        <ele>194.031</ele>
        <time>2019-06-15T19:13:01Z</time>
      </trkpt>
      <trkpt lat="43.440353" lon="-2.781077">
        <ele>193.680</ele>
        <time>2019-06-15T19:13:02Z</time>
      </trkpt>
      <trkpt lat="43.440365" lon="-2.780987">
        <ele>193.561</ele>
        <time>2019-06-15T19:13:03Z</time>
      </trkpt>
      <trkpt lat="43.440377" lon="-2.780889">
        <ele>193.430</ele>
        <time>2019-06-15T19:13:04Z</time>
      </trkpt>
      <trkpt lat="43.440397" lon="-2.780785">
        <ele>193.874</ele>
        <time>2019-06-15T19:13:05Z</time>
      </trkpt>
      <trkpt lat="43.440413" lon="-2.780695">
        <ele>194.929</ele>
        <time>2019-06-15T19:13:06Z</time>
      </trkpt>
      <trkpt lat="43.440430" lon="-2.780605">
        <ele>196.100</ele>
        <time>2019-06-15T19:13:07Z</time>
      </trkpt>
      <trkpt lat="43.440450" lon="-2.780504">
        <ele>196.920</ele>
        <time>2019-06-15T19:13:08Z</time>
      </trkpt>
      <trkpt lat="43.440471" lon="-2.780399">
        <ele>197.008</ele>
        <time>2019-06-15T19:13:09Z</time>
      </trkpt>
      <trkpt lat="43.440484" lon="-2.780281">
        <ele>197.695</ele>
        <time>2019-06-15T19:13:10Z</time>
      </trkpt>
      <trkpt lat="43.440502" lon="-2.780139">
        <ele>196.789</ele>
        <time>2019-06-15T19:13:11Z</time>
      </trkpt>
      <trkpt lat="43.440514" lon="-2.780004">
        <ele>196.048</ele>
        <time>2019-06-15T19:13:12Z</time>
      </trkpt>
      <trkpt lat="43.440523" lon="-2.779863">
        <ele>196.357</ele>
        <time>2019-06-15T19:13:13Z</time>
      </trkpt>
      <trkpt lat="43.440527" lon="-2.779705">
        <ele>197.076</ele>
        <time>2019-06-15T19:13:14Z</time>
      </trkpt>
      <trkpt lat="43.440540" lon="-2.779555">
        <ele>197.097</ele>
        <time>2019-06-15T19:13:15Z</time>
      </trkpt>
      <trkpt lat="43.440550" lon="-2.779406">
        <ele>197.666</ele>
        <time>2019-06-15T19:13:16Z</time>
      </trkpt>
      <trkpt lat="43.440564" lon="-2.779266">
        <ele>198.560</ele>
        <time>2019-06-15T19:13:17Z</time>
      </trkpt>
      <trkpt lat="43.440577" lon="-2.779122">
        <ele>199.237</ele>
        <time>2019-06-15T19:13:18Z</time>
      </trkpt>
      <trkpt lat="43.440593" lon="-2.778990">
        <ele>199.349</ele>
        <time>2019-06-15T19:13:19Z</time>
      </trkpt>
      <trkpt lat="43.440637" lon="-2.778890">
        <ele>198.613</ele>
        <time>2019-06-15T19:13:20Z</time>
      </trkpt>
      <trkpt lat="43.440674" lon="-2.778817">
        <ele>198.508</ele>
        <time>2019-06-15T19:13:21Z</time>
      </trkpt>
      <trkpt lat="43.440690" lon="-2.778739">
        <ele>199.096</ele>
        <time>2019-06-15T19:13:22Z</time>
      </trkpt>
      <trkpt lat="43.440709" lon="-2.778680">
        <ele>199.310</ele>
        <time>2019-06-15T19:13:23Z</time>
      </trkpt>
      <trkpt lat="43.440738" lon="-2.778586">
        <ele>199.619</ele>
        <time>2019-06-15T19:13:25Z</time>
      </trkpt>
      <trkpt lat="43.440753" lon="-2.778522">
        <ele>199.738</ele>
        <time>2019-06-15T19:13:28Z</time>
      </trkpt>
      <trkpt lat="43.440800" lon="-2.778545">
        <ele>198.227</ele>
        <time>2019-06-15T19:13:32Z</time>
      </trkpt>
      <trkpt lat="43.440849" lon="-2.778606">
        <ele>196.178</ele>
        <time>2019-06-15T19:13:34Z</time>
      </trkpt>
      <trkpt lat="43.440837" lon="-2.778667">
        <ele>196.057</ele>
        <time>2019-06-15T19:13:39Z</time>
      </trkpt>
      <trkpt lat="43.440793" lon="-2.778651">
        <ele>197.571</ele>
        <time>2019-06-15T19:16:20Z</time>
      </trkpt>
      <trkpt lat="43.440763" lon="-2.778707">
        <ele>197.589</ele>
        <time>2019-06-15T19:16:53Z</time>
      </trkpt>
      <trkpt lat="43.440778" lon="-2.778773">
        <ele>196.206</ele>
        <time>2019-06-15T19:16:56Z</time>
      </trkpt>
      <trkpt lat="43.440795" lon="-2.778843">
        <ele>194.726</ele>
        <time>2019-06-15T19:16:59Z</time>
      </trkpt>
      <trkpt lat="43.440792" lon="-2.778908">
        <ele>193.808</ele>
        <time>2019-06-15T19:17:04Z</time>
      </trkpt>
      <trkpt lat="43.440781" lon="-2.778843">
        <ele>195.161</ele>
        <time>2019-06-15T19:17:49Z</time>
      </trkpt>
      <trkpt lat="43.440750" lon="-2.778791">
        <ele>196.725</ele>
        <time>2019-06-15T19:17:53Z</time>
      </trkpt>
      <trkpt lat="43.440777" lon="-2.778734">
        <ele>196.764</ele>
        <time>2019-06-15T19:18:03Z</time>
      </trkpt>
      <trkpt lat="43.440838" lon="-2.778720">
        <ele>195.243</ele>
        <time>2019-06-15T19:18:06Z</time>
      </trkpt>
      <trkpt lat="43.440821" lon="-2.778645">
        <ele>196.812</ele>
        <time>2019-06-15T19:18:17Z</time>
      </trkpt>
      <trkpt lat="43.440781" lon="-2.778681">
        <ele>197.483</ele>
        <time>2019-06-15T19:27:28Z</time>
      </trkpt>
      <trkpt lat="43.440701" lon="-2.778719">
        <ele>199.052</ele>
        <time>2019-06-15T19:27:30Z</time>
      </trkpt>
      <trkpt lat="43.440654" lon="-2.778783">
        <ele>199.436</ele>
        <time>2019-06-15T19:27:31Z</time>
      </trkpt>
      <trkpt lat="43.440611" lon="-2.778884">
        <ele>199.513</ele>
        <time>2019-06-15T19:27:32Z</time>
      </trkpt>
      <trkpt lat="43.440596" lon="-2.779068">
        <ele>198.643</ele>
        <time>2019-06-15T19:27:33Z</time>
      </trkpt>
      <trkpt lat="43.440577" lon="-2.779276">
        <ele>197.707</ele>
        <time>2019-06-15T19:27:34Z</time>
      </trkpt>
      <trkpt lat="43.440564" lon="-2.779452">
        <ele>196.508</ele>
        <time>2019-06-15T19:27:35Z</time>
      </trkpt>
      <trkpt lat="43.440555" lon="-2.779615">
        <ele>196.494</ele>
        <time>2019-06-15T19:27:36Z</time>
      </trkpt>
      <trkpt lat="43.440541" lon="-2.779761">
        <ele>196.228</ele>
        <time>2019-06-15T19:27:37Z</time>
      </trkpt>
      <trkpt lat="43.440526" lon="-2.779920">
        <ele>195.837</ele>
        <time>2019-06-15T19:27:38Z</time>
      </trkpt>
      <trkpt lat="43.440514" lon="-2.780074">
        <ele>196.196</ele>
        <time>2019-06-15T19:27:39Z</time>
      </trkpt>
      <trkpt lat="43.440498" lon="-2.780225">
        <ele>197.065</ele>
        <time>2019-06-15T19:27:40Z</time>
      </trkpt>
      <trkpt lat="43.440467" lon="-2.780367">
        <ele>197.416</ele>
        <time>2019-06-15T19:27:41Z</time>
      </trkpt>
      <trkpt lat="43.440442" lon="-2.780509">
        <ele>197.115</ele>
        <time>2019-06-15T19:27:42Z</time>
      </trkpt>
      <trkpt lat="43.440429" lon="-2.780679">
        <ele>194.669</ele>
        <time>2019-06-15T19:27:43Z</time>
      </trkpt>
      <trkpt lat="43.440407" lon="-2.780818">
        <ele>192.787</ele>
        <time>2019-06-15T19:27:44Z</time>
      </trkpt>
      <trkpt lat="43.440385" lon="-2.780946">
        <ele>192.842</ele>
        <time>2019-06-15T19:27:45Z</time>
      </trkpt>
      <trkpt lat="43.440376" lon="-2.781022">
        <ele>192.826</ele>
        <time>2019-06-15T19:27:46Z</time>
      </trkpt>
      <trkpt lat="43.440377" lon="-2.781121">
        <ele>192.408</ele>
        <time>2019-06-15T19:27:47Z</time>
      </trkpt>
      <trkpt lat="43.440378" lon="-2.781249">
        <ele>193.061</ele>
        <time>2019-06-15T19:27:48Z</time>
      </trkpt>
      <trkpt lat="43.440384" lon="-2.781327">
        <ele>193.155</ele>
        <time>2019-06-15T19:27:49Z</time>
      </trkpt>
      <trkpt lat="43.440386" lon="-2.781447">
        <ele>193.454</ele>
        <time>2019-06-15T19:27:50Z</time>
      </trkpt>
      <trkpt lat="43.440397" lon="-2.781567">
        <ele>193.173</ele>
        <time>2019-06-15T19:27:51Z</time>
      </trkpt>
      <trkpt lat="43.440408" lon="-2.781677">
        <ele>192.982</ele>
        <time>2019-06-15T19:27:52Z</time>
      </trkpt>
      <trkpt lat="43.440404" lon="-2.781781">
        <ele>193.253</ele>
        <time>2019-06-15T19:27:53Z</time>
      </trkpt>
      <trkpt lat="43.440422" lon="-2.781894">
        <ele>192.722</ele>
        <time>2019-06-15T19:27:54Z</time>
      </trkpt>
      <trkpt lat="43.440433" lon="-2.782022">
        <ele>192.186</ele>
        <time>2019-06-15T19:27:55Z</time>
      </trkpt>
      <trkpt lat="43.440446" lon="-2.782144">
        <ele>191.078</ele>
        <time>2019-06-15T19:27:56Z</time>
      </trkpt>
      <trkpt lat="43.440464" lon="-2.782256">
        <ele>189.633</ele>
        <time>2019-06-15T19:27:57Z</time>
      </trkpt>
      <trkpt lat="43.440470" lon="-2.782355">
        <ele>188.526</ele>
        <time>2019-06-15T19:27:58Z</time>
      </trkpt>
      <trkpt lat="43.440464" lon="-2.782457">
        <ele>187.708</ele>
        <time>2019-06-15T19:27:59Z</time>
      </trkpt>
      <trkpt lat="43.440455" lon="-2.782559">
        <ele>187.760</ele>
        <time>2019-06-15T19:28:00Z</time>
      </trkpt>
      <trkpt lat="43.440429" lon="-2.782652">
        <ele>188.684</ele>
        <time>2019-06-15T19:28:01Z</time>
      </trkpt>
      <trkpt lat="43.440384" lon="-2.782715">
        <ele>190.023</ele>
        <time>2019-06-15T19:28:02Z</time>
      </trkpt>
      <trkpt lat="43.440324" lon="-2.782802">
        <ele>191.432</ele>
        <time>2019-06-15T19:28:03Z</time>
      </trkpt>
      <trkpt lat="43.440248" lon="-2.782880">
        <ele>192.191</ele>
        <time>2019-06-15T19:28:04Z</time>
      </trkpt>
      <trkpt lat="43.440169" lon="-2.782950">
        <ele>192.422</ele>
        <time>2019-06-15T19:28:05Z</time>
      </trkpt>
      <trkpt lat="43.440073" lon="-2.783022">
        <ele>192.671</ele>
        <time>2019-06-15T19:28:06Z</time>
      </trkpt>
      <trkpt lat="43.439988" lon="-2.783074">
        <ele>192.625</ele>
        <time>2019-06-15T19:28:07Z</time>
      </trkpt>
      <trkpt lat="43.439908" lon="-2.783104">
        <ele>192.493</ele>
        <time>2019-06-15T19:28:08Z</time>
      </trkpt>
      <trkpt lat="43.439824" lon="-2.783141">
        <ele>192.165</ele>
        <time>2019-06-15T19:28:09Z</time>
      </trkpt>
      <trkpt lat="43.439742" lon="-2.783162">
        <ele>192.221</ele>
        <time>2019-06-15T19:28:10Z</time>
      </trkpt>
      <trkpt lat="43.439671" lon="-2.783172">
        <ele>192.408</ele>
        <time>2019-06-15T19:28:11Z</time>
      </trkpt>
      <trkpt lat="43.439601" lon="-2.783208">
        <ele>192.042</ele>
        <time>2019-06-15T19:28:12Z</time>
      </trkpt>
      <trkpt lat="43.439530" lon="-2.783252">
        <ele>191.476</ele>
        <time>2019-06-15T19:28:13Z</time>
      </trkpt>
      <trkpt lat="43.439443" lon="-2.783292">
        <ele>191.125</ele>
        <time>2019-06-15T19:28:14Z</time>
      </trkpt>
      <trkpt lat="43.439366" lon="-2.783323">
        <ele>190.994</ele>
        <time>2019-06-15T19:28:15Z</time>
      </trkpt>
      <trkpt lat="43.439308" lon="-2.783373">
        <ele>190.263</ele>
        <time>2019-06-15T19:28:16Z</time>
      </trkpt>
      <trkpt lat="43.439255" lon="-2.783443">
        <ele>189.344</ele>
        <time>2019-06-15T19:28:17Z</time>
      </trkpt>
      <trkpt lat="43.439201" lon="-2.783533">
        <ele>188.143</ele>
        <time>2019-06-15T19:28:18Z</time>
      </trkpt>
      <trkpt lat="43.439144" lon="-2.783630">
        <ele>187.157</ele>
        <time>2019-06-15T19:28:19Z</time>
      </trkpt>
      <trkpt lat="43.439077" lon="-2.783763">
        <ele>186.221</ele>
        <time>2019-06-15T19:28:20Z</time>
      </trkpt>
      <trkpt lat="43.438971" lon="-2.783985">
        <ele>185.541</ele>
        <time>2019-06-15T19:28:21Z</time>
      </trkpt>
      <trkpt lat="43.438870" lon="-2.784153">
        <ele>185.905</ele>
        <time>2019-06-15T19:28:22Z</time>
      </trkpt>
      <trkpt lat="43.438752" lon="-2.784317">
        <ele>185.608</ele>
        <time>2019-06-15T19:28:23Z</time>
      </trkpt>
      <trkpt lat="43.438640" lon="-2.784474">
        <ele>185.045</ele>
        <time>2019-06-15T19:28:24Z</time>
      </trkpt>
      <trkpt lat="43.438529" lon="-2.784634">
        <ele>182.999</ele>
        <time>2019-06-15T19:28:25Z</time>
      </trkpt>
      <trkpt lat="43.438427" lon="-2.784758">
        <ele>182.658</ele>
        <time>2019-06-15T19:28:26Z</time>
      </trkpt>
      <trkpt lat="43.438326" lon="-2.784848">
        <ele>183.547</ele>
        <time>2019-06-15T19:28:27Z</time>
      </trkpt>
      <trkpt lat="43.438220" lon="-2.784959">
        <ele>182.586</ele>
        <time>2019-06-15T19:28:28Z</time>
      </trkpt>
      <trkpt lat="43.438117" lon="-2.785027">
        <ele>183.097</ele>
        <time>2019-06-15T19:28:29Z</time>
      </trkpt>
      <trkpt lat="43.438027" lon="-2.785077">
        <ele>183.056</ele>
        <time>2019-06-15T19:28:30Z</time>
      </trkpt>
      <trkpt lat="43.437920" lon="-2.785104">
        <ele>182.470</ele>
        <time>2019-06-15T19:28:31Z</time>
      </trkpt>
      <trkpt lat="43.437800" lon="-2.785069">
        <ele>183.012</ele>
        <time>2019-06-15T19:28:32Z</time>
      </trkpt>
      <trkpt lat="43.437680" lon="-2.785028">
        <ele>182.932</ele>
        <time>2019-06-15T19:28:33Z</time>
      </trkpt>
      <trkpt lat="43.437568" lon="-2.784988">
        <ele>182.605</ele>
        <time>2019-06-15T19:28:34Z</time>
      </trkpt>
      <trkpt lat="43.437458" lon="-2.784928">
        <ele>182.508</ele>
        <time>2019-06-15T19:28:35Z</time>
      </trkpt>
      <trkpt lat="43.437352" lon="-2.784870">
        <ele>182.154</ele>
        <time>2019-06-15T19:28:36Z</time>
      </trkpt>
      <trkpt lat="43.437261" lon="-2.784790">
        <ele>181.548</ele>
        <time>2019-06-15T19:28:37Z</time>
      </trkpt>
      <trkpt lat="43.437185" lon="-2.784684">
        <ele>181.627</ele>
        <time>2019-06-15T19:28:38Z</time>
      </trkpt>
      <trkpt lat="43.437117" lon="-2.784567">
        <ele>182.356</ele>
        <time>2019-06-15T19:28:39Z</time>
      </trkpt>
      <trkpt lat="43.437102" lon="-2.784367">
        <ele>183.275</ele>
        <time>2019-06-15T19:28:40Z</time>
      </trkpt>
      <trkpt lat="43.437066" lon="-2.784177">
        <ele>183.026</ele>
        <time>2019-06-15T19:28:41Z</time>
      </trkpt>
      <trkpt lat="43.437022" lon="-2.783951">
        <ele>181.225</ele>
        <time>2019-06-15T19:28:42Z</time>
      </trkpt>
      <trkpt lat="43.436979" lon="-2.783714">
        <ele>177.459</ele>
        <time>2019-06-15T19:28:43Z</time>
      </trkpt>
      <trkpt lat="43.436937" lon="-2.783466">
        <ele>173.836</ele>
        <time>2019-06-15T19:28:44Z</time>
      </trkpt>
      <trkpt lat="43.436894" lon="-2.783216">
        <ele>171.717</ele>
        <time>2019-06-15T19:28:45Z</time>
      </trkpt>
      <trkpt lat="43.436832" lon="-2.782944">
        <ele>171.218</ele>
        <time>2019-06-15T19:28:46Z</time>
      </trkpt>
      <trkpt lat="43.436779" lon="-2.782681">
        <ele>171.708</ele>
        <time>2019-06-15T19:28:47Z</time>
      </trkpt>
      <trkpt lat="43.436733" lon="-2.782435">
        <ele>171.066</ele>
        <time>2019-06-15T19:28:48Z</time>
      </trkpt>
      <trkpt lat="43.436685" lon="-2.782189">
        <ele>168.910</ele>
        <time>2019-06-15T19:28:49Z</time>
      </trkpt>
      <trkpt lat="43.436634" lon="-2.781960">
        <ele>168.629</ele>
        <time>2019-06-15T19:28:50Z</time>
      </trkpt>
      <trkpt lat="43.436591" lon="-2.781731">
        <ele>168.368</ele>
        <time>2019-06-15T19:28:51Z</time>
      </trkpt>
      <trkpt lat="43.436550" lon="-2.781524">
        <ele>166.517</ele>
        <time>2019-06-15T19:28:52Z</time>
      </trkpt>
      <trkpt lat="43.436514" lon="-2.781317">
        <ele>164.098</ele>
        <time>2019-06-15T19:28:53Z</time>
      </trkpt>
      <trkpt lat="43.436495" lon="-2.781199">
        <ele>162.587</ele>
        <time>2019-06-15T19:28:54Z</time>
      </trkpt>
      <trkpt lat="43.436465" lon="-2.781041">
        <ele>160.351</ele>
        <time>2019-06-15T19:28:55Z</time>
      </trkpt>
      <trkpt lat="43.436418" lon="-2.780948">
        <ele>158.421</ele>
        <time>2019-06-15T19:28:56Z</time>
      </trkpt>
      <trkpt lat="43.436378" lon="-2.780836">
        <ele>156.941</ele>
        <time>2019-06-15T19:28:57Z</time>
      </trkpt>
      <trkpt lat="43.436270" lon="-2.780841">
        <ele>156.205</ele>
        <time>2019-06-15T19:28:58Z</time>
      </trkpt>
      <trkpt lat="43.436190" lon="-2.780834">
        <ele>155.608</ele>
        <time>2019-06-15T19:28:59Z</time>
      </trkpt>
      <trkpt lat="43.436110" lon="-2.780894">
        <ele>155.075</ele>
        <time>2019-06-15T19:29:00Z</time>
      </trkpt>
      <trkpt lat="43.436029" lon="-2.780967">
        <ele>154.139</ele>
        <time>2019-06-15T19:29:01Z</time>
      </trkpt>
      <trkpt lat="43.435997" lon="-2.781128">
        <ele>152.958</ele>
        <time>2019-06-15T19:29:02Z</time>
      </trkpt>
      <trkpt lat="43.435976" lon="-2.781286">
        <ele>152.387</ele>
        <time>2019-06-15T19:29:03Z</time>
      </trkpt>
      <trkpt lat="43.435967" lon="-2.781504">
        <ele>152.066</ele>
        <time>2019-06-15T19:29:04Z</time>
      </trkpt>
      <trkpt lat="43.435942" lon="-2.781735">
        <ele>151.257</ele>
        <time>2019-06-15T19:29:05Z</time>
      </trkpt>
      <trkpt lat="43.435923" lon="-2.781954">
        <ele>150.456</ele>
        <time>2019-06-15T19:29:06Z</time>
      </trkpt>
      <trkpt lat="43.435905" lon="-2.782187">
        <ele>147.460</ele>
        <time>2019-06-15T19:29:07Z</time>
      </trkpt>
      <trkpt lat="43.435901" lon="-2.782391">
        <ele>144.527</ele>
        <time>2019-06-15T19:29:08Z</time>
      </trkpt>
      <trkpt lat="43.435891" lon="-2.782598">
        <ele>142.568</ele>
        <time>2019-06-15T19:29:09Z</time>
      </trkpt>
      <trkpt lat="43.435862" lon="-2.782775">
        <ele>141.614</ele>
        <time>2019-06-15T19:29:10Z</time>
      </trkpt>
      <trkpt lat="43.435836" lon="-2.782915">
        <ele>143.008</ele>
        <time>2019-06-15T19:29:11Z</time>
      </trkpt>
      <trkpt lat="43.435749" lon="-2.783000">
        <ele>143.165</ele>
        <time>2019-06-15T19:29:12Z</time>
      </trkpt>
      <trkpt lat="43.435671" lon="-2.783092">
        <ele>144.779</ele>
        <time>2019-06-15T19:29:13Z</time>
      </trkpt>
      <trkpt lat="43.435555" lon="-2.783105">
        <ele>144.138</ele>
        <time>2019-06-15T19:29:14Z</time>
      </trkpt>
      <trkpt lat="43.435452" lon="-2.783141">
        <ele>142.777</ele>
        <time>2019-06-15T19:29:15Z</time>
      </trkpt>
      <trkpt lat="43.435349" lon="-2.783207">
        <ele>141.286</ele>
        <time>2019-06-15T19:29:16Z</time>
      </trkpt>
      <trkpt lat="43.435274" lon="-2.783323">
        <ele>140.747</ele>
        <time>2019-06-15T19:29:17Z</time>
      </trkpt>
      <trkpt lat="43.435216" lon="-2.783398">
        <ele>139.426</ele>
        <time>2019-06-15T19:29:18Z</time>
      </trkpt>
      <trkpt lat="43.435145" lon="-2.783489">
        <ele>137.360</ele>
        <time>2019-06-15T19:29:19Z</time>
      </trkpt>
      <trkpt lat="43.435187" lon="-2.783709">
        <ele>138.636</ele>
        <time>2019-06-15T19:29:20Z</time>
      </trkpt>
      <trkpt lat="43.435189" lon="-2.783920">
        <ele>137.317</ele>
        <time>2019-06-15T19:29:21Z</time>
      </trkpt>
      <trkpt lat="43.435175" lon="-2.784090">
        <ele>137.218</ele>
        <time>2019-06-15T19:29:22Z</time>
      </trkpt>
      <trkpt lat="43.435130" lon="-2.784235">
        <ele>135.208</ele>
        <time>2019-06-15T19:29:23Z</time>
      </trkpt>
      <trkpt lat="43.435093" lon="-2.784342">
        <ele>133.786</ele>
        <time>2019-06-15T19:29:24Z</time>
      </trkpt>
      <trkpt lat="43.435022" lon="-2.784461">
        <ele>130.760</ele>
        <time>2019-06-15T19:29:25Z</time>
      </trkpt>
      <trkpt lat="43.434929" lon="-2.784606">
        <ele>126.389</ele>
        <time>2019-06-15T19:29:26Z</time>
      </trkpt>
      <trkpt lat="43.434788" lon="-2.784681">
        <ele>124.248</ele>
        <time>2019-06-15T19:29:27Z</time>
      </trkpt>
      <trkpt lat="43.434650" lon="-2.784789">
        <ele>123.517</ele>
        <time>2019-06-15T19:29:28Z</time>
      </trkpt>
      <trkpt lat="43.434515" lon="-2.784889">
        <ele>122.898</ele>
        <time>2019-06-15T19:29:29Z</time>
      </trkpt>
      <trkpt lat="43.434396" lon="-2.784987">
        <ele>122.277</ele>
        <time>2019-06-15T19:29:30Z</time>
      </trkpt>
      <trkpt lat="43.434290" lon="-2.785123">
        <ele>121.521</ele>
        <time>2019-06-15T19:29:31Z</time>
      </trkpt>
      <trkpt lat="43.434192" lon="-2.785256">
        <ele>121.155</ele>
        <time>2019-06-15T19:29:32Z</time>
      </trkpt>
      <trkpt lat="43.434138" lon="-2.785441">
        <ele>122.407</ele>
        <time>2019-06-15T19:29:33Z</time>
      </trkpt>
      <trkpt lat="43.434087" lon="-2.785624">
        <ele>123.517</ele>
        <time>2019-06-15T19:29:34Z</time>
      </trkpt>
      <trkpt lat="43.434046" lon="-2.785844">
        <ele>124.108</ele>
        <time>2019-06-15T19:29:35Z</time>
      </trkpt>
      <trkpt lat="43.434003" lon="-2.786049">
        <ele>121.858</ele>
        <time>2019-06-15T19:29:36Z</time>
      </trkpt>
      <trkpt lat="43.433963" lon="-2.786270">
        <ele>118.512</ele>
        <time>2019-06-15T19:29:37Z</time>
      </trkpt>
      <trkpt lat="43.433925" lon="-2.786483">
        <ele>115.461</ele>
        <time>2019-06-15T19:29:38Z</time>
      </trkpt>
      <trkpt lat="43.433902" lon="-2.786652">
        <ele>113.420</ele>
        <time>2019-06-15T19:29:39Z</time>
      </trkpt>
      <trkpt lat="43.433885" lon="-2.786886">
        <ele>111.399</ele>
        <time>2019-06-15T19:29:40Z</time>
      </trkpt>
      <trkpt lat="43.433850" lon="-2.787102">
        <ele>109.620</ele>
        <time>2019-06-15T19:29:41Z</time>
      </trkpt>
      <trkpt lat="43.433815" lon="-2.787277">
        <ele>109.139</ele>
        <time>2019-06-15T19:29:42Z</time>
      </trkpt>
      <trkpt lat="43.433786" lon="-2.787458">
        <ele>109.453</ele>
        <time>2019-06-15T19:29:43Z</time>
      </trkpt>
      <trkpt lat="43.433760" lon="-2.787617">
        <ele>108.928</ele>
        <time>2019-06-15T19:29:44Z</time>
      </trkpt>
      <trkpt lat="43.433722" lon="-2.787814">
        <ele>107.889</ele>
        <time>2019-06-15T19:29:45Z</time>
      </trkpt>
      <trkpt lat="43.433708" lon="-2.788017">
        <ele>106.617</ele>
        <time>2019-06-15T19:29:46Z</time>
      </trkpt>
      <trkpt lat="43.433676" lon="-2.788229">
        <ele>106.408</ele>
        <time>2019-06-15T19:29:47Z</time>
      </trkpt>
      <trkpt lat="43.433649" lon="-2.788432">
        <ele>106.195</ele>
        <time>2019-06-15T19:29:48Z</time>
      </trkpt>
      <trkpt lat="43.433626" lon="-2.788647">
        <ele>105.469</ele>
        <time>2019-06-15T19:29:49Z</time>
      </trkpt>
      <trkpt lat="43.433603" lon="-2.788844">
        <ele>103.868</ele>
        <time>2019-06-15T19:29:50Z</time>
      </trkpt>
      <trkpt lat="43.433568" lon="-2.789010">
        <ele>100.757</ele>
        <time>2019-06-15T19:29:51Z</time>
      </trkpt>
      <trkpt lat="43.433559" lon="-2.789197">
        <ele>98.616</ele>
        <time>2019-06-15T19:29:52Z</time>
      </trkpt>
      <trkpt lat="43.433558" lon="-2.789394">
        <ele>97.457</ele>
        <time>2019-06-15T19:29:53Z</time>
      </trkpt>
      <trkpt lat="43.433548" lon="-2.789588">
        <ele>96.316</ele>
        <time>2019-06-15T19:29:54Z</time>
      </trkpt>
      <trkpt lat="43.433536" lon="-2.789761">
        <ele>95.780</ele>
        <time>2019-06-15T19:29:55Z</time>
      </trkpt>
      <trkpt lat="43.433524" lon="-2.789947">
        <ele>95.776</ele>
        <time>2019-06-15T19:29:56Z</time>
      </trkpt>
      <trkpt lat="43.433515" lon="-2.790119">
        <ele>95.390</ele>
        <time>2019-06-15T19:29:57Z</time>
      </trkpt>
      <trkpt lat="43.433497" lon="-2.790307">
        <ele>94.319</ele>
        <time>2019-06-15T19:29:58Z</time>
      </trkpt>
      <trkpt lat="43.433492" lon="-2.790426">
        <ele>94.208</ele>
        <time>2019-06-15T19:29:59Z</time>
      </trkpt>
      <trkpt lat="43.433477" lon="-2.790604">
        <ele>93.710</ele>
        <time>2019-06-15T19:30:00Z</time>
      </trkpt>
      <trkpt lat="43.433462" lon="-2.790774">
        <ele>93.114</ele>
        <time>2019-06-15T19:30:01Z</time>
      </trkpt>
      <trkpt lat="43.433445" lon="-2.790946">
        <ele>91.783</ele>
        <time>2019-06-15T19:30:02Z</time>
      </trkpt>
      <trkpt lat="43.433435" lon="-2.791106">
        <ele>90.352</ele>
        <time>2019-06-15T19:30:03Z</time>
      </trkpt>
      <trkpt lat="43.433445" lon="-2.791278">
        <ele>88.981</ele>
        <time>2019-06-15T19:30:04Z</time>
      </trkpt>
      <trkpt lat="43.433468" lon="-2.791427">
        <ele>87.792</ele>
        <time>2019-06-15T19:30:05Z</time>
      </trkpt>
      <trkpt lat="43.433522" lon="-2.791571">
        <ele>86.291</ele>
        <time>2019-06-15T19:30:06Z</time>
      </trkpt>
      <trkpt lat="43.433596" lon="-2.791690">
        <ele>85.445</ele>
        <time>2019-06-15T19:30:07Z</time>
      </trkpt>
      <trkpt lat="43.433693" lon="-2.791821">
        <ele>84.915</ele>
        <time>2019-06-15T19:30:08Z</time>
      </trkpt>
      <trkpt lat="43.433796" lon="-2.791962">
        <ele>83.665</ele>
        <time>2019-06-15T19:30:09Z</time>
      </trkpt>
      <trkpt lat="43.433897" lon="-2.792104">
        <ele>81.711</ele>
        <time>2019-06-15T19:30:10Z</time>
      </trkpt>
      <trkpt lat="43.433995" lon="-2.792232">
        <ele>81.108</ele>
        <time>2019-06-15T19:30:11Z</time>
      </trkpt>
      <trkpt lat="43.434096" lon="-2.792362">
        <ele>80.294</ele>
        <time>2019-06-15T19:30:12Z</time>
      </trkpt>
      <trkpt lat="43.434197" lon="-2.792489">
        <ele>78.838</ele>
        <time>2019-06-15T19:30:13Z</time>
      </trkpt>
      <trkpt lat="43.434289" lon="-2.792611">
        <ele>78.777</ele>
        <time>2019-06-15T19:30:14Z</time>
      </trkpt>
      <trkpt lat="43.434372" lon="-2.792723">
        <ele>78.166</ele>
        <time>2019-06-15T19:30:15Z</time>
      </trkpt>
      <trkpt lat="43.434429" lon="-2.792872">
        <ele>77.555</ele>
        <time>2019-06-15T19:30:16Z</time>
      </trkpt>
      <trkpt lat="43.434490" lon="-2.793015">
        <ele>78.376</ele>
        <time>2019-06-15T19:30:17Z</time>
      </trkpt>
      <trkpt lat="43.434475" lon="-2.793166">
        <ele>77.715</ele>
        <time>2019-06-15T19:30:18Z</time>
      </trkpt>
      <trkpt lat="43.434458" lon="-2.793337">
        <ele>77.369</ele>
        <time>2019-06-15T19:30:19Z</time>
      </trkpt>
      <trkpt lat="43.434409" lon="-2.793521">
        <ele>75.952</ele>
        <time>2019-06-15T19:30:20Z</time>
      </trkpt>
      <trkpt lat="43.434373" lon="-2.793706">
        <ele>74.953</ele>
        <time>2019-06-15T19:30:21Z</time>
      </trkpt>
      <trkpt lat="43.434353" lon="-2.793878">
        <ele>74.108</ele>
        <time>2019-06-15T19:30:22Z</time>
      </trkpt>
      <trkpt lat="43.434326" lon="-2.794040">
        <ele>73.308</ele>
        <time>2019-06-15T19:30:23Z</time>
      </trkpt>
      <trkpt lat="43.434299" lon="-2.794197">
        <ele>72.188</ele>
        <time>2019-06-15T19:30:24Z</time>
      </trkpt>
      <trkpt lat="43.434284" lon="-2.794367">
        <ele>70.322</ele>
        <time>2019-06-15T19:30:25Z</time>
      </trkpt>
      <trkpt lat="43.434258" lon="-2.794543">
        <ele>68.521</ele>
        <time>2019-06-15T19:30:26Z</time>
      </trkpt>
      <trkpt lat="43.434235" lon="-2.794733">
        <ele>67.280</ele>
        <time>2019-06-15T19:30:27Z</time>
      </trkpt>
      <trkpt lat="43.434227" lon="-2.794878">
        <ele>66.369</ele>
        <time>2019-06-15T19:30:28Z</time>
      </trkpt>
      <trkpt lat="43.434204" lon="-2.795072">
        <ele>64.640</ele>
        <time>2019-06-15T19:30:29Z</time>
      </trkpt>
      <trkpt lat="43.434180" lon="-2.795247">
        <ele>62.439</ele>
        <time>2019-06-15T19:30:30Z</time>
      </trkpt>
      <trkpt lat="43.434172" lon="-2.795462">
        <ele>60.023</ele>
        <time>2019-06-15T19:30:31Z</time>
      </trkpt>
      <trkpt lat="43.434141" lon="-2.795652">
        <ele>58.417</ele>
        <time>2019-06-15T19:30:32Z</time>
      </trkpt>
      <trkpt lat="43.434126" lon="-2.795853">
        <ele>56.887</ele>
        <time>2019-06-15T19:30:33Z</time>
      </trkpt>
      <trkpt lat="43.434104" lon="-2.796063">
        <ele>54.515</ele>
        <time>2019-06-15T19:30:34Z</time>
      </trkpt>
      <trkpt lat="43.434078" lon="-2.796254">
        <ele>52.608</ele>
        <time>2019-06-15T19:30:35Z</time>
      </trkpt>
      <trkpt lat="43.434059" lon="-2.796454">
        <ele>50.294</ele>
        <time>2019-06-15T19:30:36Z</time>
      </trkpt>
      <trkpt lat="43.434038" lon="-2.796656">
        <ele>47.048</ele>
        <time>2019-06-15T19:30:37Z</time>
      </trkpt>
      <trkpt lat="43.434015" lon="-2.796854">
        <ele>46.297</ele>
        <time>2019-06-15T19:30:38Z</time>
      </trkpt>
      <trkpt lat="43.433990" lon="-2.797048">
        <ele>45.396</ele>
        <time>2019-06-15T19:30:39Z</time>
      </trkpt>
      <trkpt lat="43.433967" lon="-2.797239">
        <ele>44.065</ele>
        <time>2019-06-15T19:30:40Z</time>
      </trkpt>
      <trkpt lat="43.433942" lon="-2.797429">
        <ele>42.356</ele>
        <time>2019-06-15T19:30:41Z</time>
      </trkpt>
      <trkpt lat="43.433928" lon="-2.797642">
        <ele>40.395</ele>
        <time>2019-06-15T19:30:42Z</time>
      </trkpt>
      <trkpt lat="43.433895" lon="-2.797751">
        <ele>39.339</ele>
        <time>2019-06-15T19:30:43Z</time>
      </trkpt>
      <trkpt lat="43.433864" lon="-2.797918">
        <ele>37.026</ele>
        <time>2019-06-15T19:30:44Z</time>
      </trkpt>
      <trkpt lat="43.433810" lon="-2.798049">
        <ele>36.147</ele>
        <time>2019-06-15T19:30:45Z</time>
      </trkpt>
      <trkpt lat="43.433759" lon="-2.798214">
        <ele>35.011</ele>
        <time>2019-06-15T19:30:46Z</time>
      </trkpt>
      <trkpt lat="43.433708" lon="-2.798356">
        <ele>34.208</ele>
        <time>2019-06-15T19:30:47Z</time>
      </trkpt>
      <trkpt lat="43.433649" lon="-2.798468">
        <ele>33.815</ele>
        <time>2019-06-15T19:30:48Z</time>
      </trkpt>
      <trkpt lat="43.433593" lon="-2.798597">
        <ele>32.629</ele>
        <time>2019-06-15T19:30:49Z</time>
      </trkpt>
      <trkpt lat="43.433556" lon="-2.798656">
        <ele>32.778</ele>
        <time>2019-06-15T19:30:50Z</time>
      </trkpt>
      <trkpt lat="43.433515" lon="-2.798714">
        <ele>33.037</ele>
        <time>2019-06-15T19:30:51Z</time>
      </trkpt>
      <trkpt lat="43.433478" lon="-2.798784">
        <ele>33.076</ele>
        <time>2019-06-15T19:30:52Z</time>
      </trkpt>
      <trkpt lat="43.433443" lon="-2.798827">
        <ele>33.327</ele>
        <time>2019-06-15T19:30:53Z</time>
      </trkpt>
      <trkpt lat="43.433401" lon="-2.798892">
        <ele>33.516</ele>
        <time>2019-06-15T19:30:54Z</time>
      </trkpt>
      <trkpt lat="43.433347" lon="-2.798970">
        <ele>34.180</ele>
        <time>2019-06-15T19:30:55Z</time>
      </trkpt>
      <trkpt lat="43.433288" lon="-2.799050">
        <ele>33.919</ele>
        <time>2019-06-15T19:30:56Z</time>
      </trkpt>
      <trkpt lat="43.433232" lon="-2.799134">
        <ele>33.309</ele>
        <time>2019-06-15T19:30:57Z</time>
      </trkpt>
      <trkpt lat="43.433165" lon="-2.799205">
        <ele>32.219</ele>
        <time>2019-06-15T19:30:58Z</time>
      </trkpt>
      <trkpt lat="43.433102" lon="-2.799280">
        <ele>31.308</ele>
        <time>2019-06-15T19:30:59Z</time>
      </trkpt>
      <trkpt lat="43.433043" lon="-2.799335">
        <ele>31.254</ele>
        <time>2019-06-15T19:31:00Z</time>
      </trkpt>
      <trkpt lat="43.432965" lon="-2.799378">
        <ele>31.098</ele>
        <time>2019-06-15T19:31:01Z</time>
      </trkpt>
      <trkpt lat="43.432884" lon="-2.799416">
        <ele>30.997</ele>
        <time>2019-06-15T19:31:02Z</time>
      </trkpt>
      <trkpt lat="43.432803" lon="-2.799448">
        <ele>30.876</ele>
        <time>2019-06-15T19:31:03Z</time>
      </trkpt>
      <trkpt lat="43.432728" lon="-2.799472">
        <ele>29.785</ele>
        <time>2019-06-15T19:31:04Z</time>
      </trkpt>
      <trkpt lat="43.432648" lon="-2.799508">
        <ele>28.226</ele>
        <time>2019-06-15T19:31:05Z</time>
      </trkpt>
      <trkpt lat="43.432575" lon="-2.799523">
        <ele>27.545</ele>
        <time>2019-06-15T19:31:06Z</time>
      </trkpt>
      <trkpt lat="43.432505" lon="-2.799545">
        <ele>26.869</ele>
        <time>2019-06-15T19:31:07Z</time>
      </trkpt>
      <trkpt lat="43.432437" lon="-2.799559">
        <ele>26.499</ele>
        <time>2019-06-15T19:31:08Z</time>
      </trkpt>
      <trkpt lat="43.432339" lon="-2.799585">
        <ele>25.707</ele>
        <time>2019-06-15T19:31:10Z</time>
      </trkpt>
      <trkpt lat="43.432264" lon="-2.799592">
        <ele>25.527</ele>
        <time>2019-06-15T19:31:11Z</time>
      </trkpt>
      <trkpt lat="43.432202" lon="-2.799604">
        <ele>25.208</ele>
        <time>2019-06-15T19:31:12Z</time>
      </trkpt>
      <trkpt lat="43.432124" lon="-2.799617">
        <ele>24.652</ele>
        <time>2019-06-15T19:31:13Z</time>
      </trkpt>
      <trkpt lat="43.432067" lon="-2.799637">
        <ele>24.246</ele>
        <time>2019-06-15T19:31:14Z</time>
      </trkpt>
      <trkpt lat="43.432007" lon="-2.799723">
        <ele>23.285</ele>
        <time>2019-06-15T19:31:16Z</time>
      </trkpt>
      <trkpt lat="43.431973" lon="-2.799781">
        <ele>22.824</ele>
        <time>2019-06-15T19:31:17Z</time>
      </trkpt>
      <trkpt lat="43.431925" lon="-2.799833">
        <ele>22.593</ele>
        <time>2019-06-15T19:31:18Z</time>
      </trkpt>
      <trkpt lat="43.431879" lon="-2.799882">
        <ele>22.054</ele>
        <time>2019-06-15T19:31:19Z</time>
      </trkpt>
      <trkpt lat="43.431810" lon="-2.799914">
        <ele>21.363</ele>
        <time>2019-06-15T19:31:20Z</time>
      </trkpt>
      <trkpt lat="43.431765" lon="-2.799991">
        <ele>20.757</ele>
        <time>2019-06-15T19:31:21Z</time>
      </trkpt>
      <trkpt lat="43.431704" lon="-2.800078">
        <ele>19.732</ele>
        <time>2019-06-15T19:31:22Z</time>
      </trkpt>
      <trkpt lat="43.431656" lon="-2.800178">
        <ele>18.792</ele>
        <time>2019-06-15T19:31:23Z</time>
      </trkpt>
      <trkpt lat="43.431603" lon="-2.800276">
        <ele>18.011</ele>
        <time>2019-06-15T19:31:24Z</time>
      </trkpt>
      <trkpt lat="43.431555" lon="-2.800376">
        <ele>17.908</ele>
        <time>2019-06-15T19:31:25Z</time>
      </trkpt>
      <trkpt lat="43.431497" lon="-2.800474">
        <ele>17.636</ele>
        <time>2019-06-15T19:31:26Z</time>
      </trkpt>
      <trkpt lat="43.431438" lon="-2.800583">
        <ele>17.190</ele>
        <time>2019-06-15T19:31:27Z</time>
      </trkpt>
      <trkpt lat="43.431369" lon="-2.800702">
        <ele>16.419</ele>
        <time>2019-06-15T19:31:28Z</time>
      </trkpt>
      <trkpt lat="43.431291" lon="-2.800852">
        <ele>15.648</ele>
        <time>2019-06-15T19:31:29Z</time>
      </trkpt>
      <trkpt lat="43.431214" lon="-2.801010">
        <ele>15.037</ele>
        <time>2019-06-15T19:31:30Z</time>
      </trkpt>
      <trkpt lat="43.431151" lon="-2.801157">
        <ele>14.348</ele>
        <time>2019-06-15T19:31:31Z</time>
      </trkpt>
      <trkpt lat="43.431076" lon="-2.801310">
        <ele>13.997</ele>
        <time>2019-06-15T19:31:32Z</time>
      </trkpt>
      <trkpt lat="43.431004" lon="-2.801447">
        <ele>13.531</ele>
        <time>2019-06-15T19:31:33Z</time>
      </trkpt>
      <trkpt lat="43.430935" lon="-2.801581">
        <ele>12.983</ele>
        <time>2019-06-15T19:31:34Z</time>
      </trkpt>
      <trkpt lat="43.430868" lon="-2.801702">
        <ele>12.225</ele>
        <time>2019-06-15T19:31:35Z</time>
      </trkpt>
      <trkpt lat="43.430803" lon="-2.801830">
        <ele>11.817</ele>
        <time>2019-06-15T19:31:36Z</time>
      </trkpt>
      <trkpt lat="43.430725" lon="-2.801978">
        <ele>11.108</ele>
        <time>2019-06-15T19:31:37Z</time>
      </trkpt>
      <trkpt lat="43.430653" lon="-2.802126">
        <ele>10.591</ele>
        <time>2019-06-15T19:31:38Z</time>
      </trkpt>
      <trkpt lat="43.430572" lon="-2.802323">
        <ele>10.115</ele>
        <time>2019-06-15T19:31:39Z</time>
      </trkpt>
      <trkpt lat="43.430492" lon="-2.802503">
        <ele>9.314</ele>
        <time>2019-06-15T19:31:40Z</time>
      </trkpt>
      <trkpt lat="43.430393" lon="-2.802712">
        <ele>8.263</ele>
        <time>2019-06-15T19:31:41Z</time>
      </trkpt>
      <trkpt lat="43.430300" lon="-2.802915">
        <ele>6.772</ele>
        <time>2019-06-15T19:31:42Z</time>
      </trkpt>
      <trkpt lat="43.430222" lon="-2.803104">
        <ele>5.923</ele>
        <time>2019-06-15T19:31:43Z</time>
      </trkpt>
      <trkpt lat="43.430148" lon="-2.803286">
        <ele>5.642</ele>
        <time>2019-06-15T19:31:44Z</time>
      </trkpt>
      <trkpt lat="43.430087" lon="-2.803442">
        <ele>5.716</ele>
        <time>2019-06-15T19:31:45Z</time>
      </trkpt>
      <trkpt lat="43.430018" lon="-2.803587">
        <ele>5.959</ele>
        <time>2019-06-15T19:31:46Z</time>
      </trkpt>
      <trkpt lat="43.429971" lon="-2.803673">
        <ele>6.403</ele>
        <time>2019-06-15T19:31:47Z</time>
      </trkpt>
      <trkpt lat="43.429904" lon="-2.803800">
        <ele>6.623</ele>
        <time>2019-06-15T19:31:48Z</time>
      </trkpt>
      <trkpt lat="43.429847" lon="-2.803927">
        <ele>6.108</ele>
        <time>2019-06-15T19:31:49Z</time>
      </trkpt>
      <trkpt lat="43.429784" lon="-2.804060">
        <ele>6.198</ele>
        <time>2019-06-15T19:31:50Z</time>
      </trkpt>
      <trkpt lat="43.429700" lon="-2.804209">
        <ele>6.212</ele>
        <time>2019-06-15T19:31:51Z</time>
      </trkpt>
      <trkpt lat="43.429626" lon="-2.804342">
        <ele>6.591</ele>
        <time>2019-06-15T19:31:52Z</time>
      </trkpt>
      <trkpt lat="43.429541" lon="-2.804491">
        <ele>6.370</ele>
        <time>2019-06-15T19:31:53Z</time>
      </trkpt>
      <trkpt lat="43.429466" lon="-2.804653">
        <ele>6.129</ele>
        <time>2019-06-15T19:31:54Z</time>
      </trkpt>
      <trkpt lat="43.429393" lon="-2.804807">
        <ele>6.080</ele>
        <time>2019-06-15T19:31:55Z</time>
      </trkpt>
      <trkpt lat="43.429320" lon="-2.804936">
        <ele>6.049</ele>
        <time>2019-06-15T19:31:56Z</time>
      </trkpt>
      <trkpt lat="43.429253" lon="-2.805051">
        <ele>6.043</ele>
        <time>2019-06-15T19:31:57Z</time>
      </trkpt>
      <trkpt lat="43.429178" lon="-2.805163">
        <ele>6.045</ele>
        <time>2019-06-15T19:31:58Z</time>
      </trkpt>
      <trkpt lat="43.429121" lon="-2.805317">
        <ele>6.047</ele>
        <time>2019-06-15T19:31:59Z</time>
      </trkpt>
      <trkpt lat="43.429051" lon="-2.805467">
        <ele>6.011</ele>
        <time>2019-06-15T19:32:00Z</time>
      </trkpt>
      <trkpt lat="43.428985" lon="-2.805609">
        <ele>5.908</ele>
        <time>2019-06-15T19:32:01Z</time>
      </trkpt>
      <trkpt lat="43.428916" lon="-2.805736">
        <ele>5.417</ele>
        <time>2019-06-15T19:32:02Z</time>
      </trkpt>
      <trkpt lat="43.428852" lon="-2.805866">
        <ele>5.071</ele>
        <time>2019-06-15T19:32:03Z</time>
      </trkpt>
      <trkpt lat="43.428800" lon="-2.805991">
        <ele>5.070</ele>
        <time>2019-06-15T19:32:04Z</time>
      </trkpt>
      <trkpt lat="43.428741" lon="-2.806117">
        <ele>5.099</ele>
        <time>2019-06-15T19:32:05Z</time>
      </trkpt>
      <trkpt lat="43.428686" lon="-2.806248">
        <ele>5.068</ele>
        <time>2019-06-15T19:32:06Z</time>
      </trkpt>
      <trkpt lat="43.428626" lon="-2.806374">
        <ele>5.039</ele>
        <time>2019-06-15T19:32:07Z</time>
      </trkpt>
      <trkpt lat="43.428561" lon="-2.806497">
        <ele>5.078</ele>
        <time>2019-06-15T19:32:08Z</time>
      </trkpt>
      <trkpt lat="43.428500" lon="-2.806623">
        <ele>5.062</ele>
        <time>2019-06-15T19:32:09Z</time>
      </trkpt>
      <trkpt lat="43.428460" lon="-2.806703">
        <ele>5.081</ele>
        <time>2019-06-15T19:32:10Z</time>
      </trkpt>
      <trkpt lat="43.428414" lon="-2.806807">
        <ele>5.061</ele>
        <time>2019-06-15T19:32:11Z</time>
      </trkpt>
      <trkpt lat="43.428373" lon="-2.806888">
        <ele>5.017</ele>
        <time>2019-06-15T19:32:12Z</time>
      </trkpt>
      <trkpt lat="43.428334" lon="-2.806951">
        <ele>5.008</ele>
        <time>2019-06-15T19:32:13Z</time>
      </trkpt>
      <trkpt lat="43.428281" lon="-2.807044">
        <ele>4.911</ele>
        <time>2019-06-15T19:32:15Z</time>
      </trkpt>
      <trkpt lat="43.428236" lon="-2.807125">
        <ele>4.935</ele>
        <time>2019-06-15T19:32:16Z</time>
      </trkpt>
      <trkpt lat="43.428201" lon="-2.807216">
        <ele>5.024</ele>
        <time>2019-06-15T19:32:17Z</time>
      </trkpt>
      <trkpt lat="43.428163" lon="-2.807319">
        <ele>5.063</ele>
        <time>2019-06-15T19:32:18Z</time>
      </trkpt>
      <trkpt lat="43.428117" lon="-2.807410">
        <ele>5.012</ele>
        <time>2019-06-15T19:32:19Z</time>
      </trkpt>
      <trkpt lat="43.428065" lon="-2.807535">
        <ele>4.943</ele>
        <time>2019-06-15T19:32:20Z</time>
      </trkpt>
      <trkpt lat="43.428012" lon="-2.807664">
        <ele>4.582</ele>
        <time>2019-06-15T19:32:21Z</time>
      </trkpt>
      <trkpt lat="43.427955" lon="-2.807813">
        <ele>4.496</ele>
        <time>2019-06-15T19:32:22Z</time>
      </trkpt>
      <trkpt lat="43.427911" lon="-2.807980">
        <ele>4.965</ele>
        <time>2019-06-15T19:32:23Z</time>
      </trkpt>
      <trkpt lat="43.427859" lon="-2.808155">
        <ele>5.568</ele>
        <time>2019-06-15T19:32:24Z</time>
      </trkpt>
      <trkpt lat="43.427813" lon="-2.808393">
        <ele>5.914</ele>
        <time>2019-06-15T19:32:25Z</time>
      </trkpt>
      <trkpt lat="43.427771" lon="-2.808612">
        <ele>6.208</ele>
        <time>2019-06-15T19:32:26Z</time>
      </trkpt>
      <trkpt lat="43.427738" lon="-2.808802">
        <ele>6.659</ele>
        <time>2019-06-15T19:32:27Z</time>
      </trkpt>
      <trkpt lat="43.427691" lon="-2.808978">
        <ele>6.623</ele>
        <time>2019-06-15T19:32:28Z</time>
      </trkpt>
      <trkpt lat="43.427649" lon="-2.809155">
        <ele>6.172</ele>
        <time>2019-06-15T19:32:29Z</time>
      </trkpt>
      <trkpt lat="43.427627" lon="-2.809311">
        <ele>5.791</ele>
        <time>2019-06-15T19:32:30Z</time>
      </trkpt>
      <trkpt lat="43.427600" lon="-2.809456">
        <ele>5.350</ele>
        <time>2019-06-15T19:32:31Z</time>
      </trkpt>
      <trkpt lat="43.427568" lon="-2.809618">
        <ele>5.111</ele>
        <time>2019-06-15T19:32:32Z</time>
      </trkpt>
      <trkpt lat="43.427532" lon="-2.809789">
        <ele>4.750</ele>
        <time>2019-06-15T19:32:33Z</time>
      </trkpt>
      <trkpt lat="43.427494" lon="-2.809962">
        <ele>4.144</ele>
        <time>2019-06-15T19:32:34Z</time>
      </trkpt>
      <trkpt lat="43.427466" lon="-2.810138">
        <ele>4.162</ele>
        <time>2019-06-15T19:32:35Z</time>
      </trkpt>
      <trkpt lat="43.427431" lon="-2.810321">
        <ele>4.283</ele>
        <time>2019-06-15T19:32:36Z</time>
      </trkpt>
      <trkpt lat="43.427397" lon="-2.810489">
        <ele>4.111</ele>
        <time>2019-06-15T19:32:37Z</time>
      </trkpt>
      <trkpt lat="43.427367" lon="-2.810639">
        <ele>4.008</ele>
        <time>2019-06-15T19:32:38Z</time>
      </trkpt>
      <trkpt lat="43.427342" lon="-2.810783">
        <ele>4.019</ele>
        <time>2019-06-15T19:32:39Z</time>
      </trkpt>
      <trkpt lat="43.427321" lon="-2.810884">
        <ele>4.133</ele>
        <time>2019-06-15T19:32:40Z</time>
      </trkpt>
      <trkpt lat="43.427300" lon="-2.810988">
        <ele>4.432</ele>
        <time>2019-06-15T19:32:41Z</time>
      </trkpt>
      <trkpt lat="43.427283" lon="-2.811076">
        <ele>4.741</ele>
        <time>2019-06-15T19:32:42Z</time>
      </trkpt>
      <trkpt lat="43.427264" lon="-2.811165">
        <ele>4.750</ele>
        <time>2019-06-15T19:32:43Z</time>
      </trkpt>
      <trkpt lat="43.427252" lon="-2.811261">
        <ele>4.431</ele>
        <time>2019-06-15T19:32:44Z</time>
      </trkpt>
      <trkpt lat="43.427239" lon="-2.811349">
        <ele>4.160</ele>
        <time>2019-06-15T19:32:45Z</time>
      </trkpt>
      <trkpt lat="43.427223" lon="-2.811438">
        <ele>4.024</ele>
        <time>2019-06-15T19:32:46Z</time>
      </trkpt>
      <trkpt lat="43.427205" lon="-2.811537">
        <ele>4.057</ele>
        <time>2019-06-15T19:32:47Z</time>
      </trkpt>
      <trkpt lat="43.427187" lon="-2.811647">
        <ele>4.000</ele>
        <time>2019-06-15T19:32:48Z</time>
      </trkpt>
      <trkpt lat="43.427161" lon="-2.811767">
        <ele>3.420</ele>
        <time>2019-06-15T19:32:49Z</time>
      </trkpt>
      <trkpt lat="43.427139" lon="-2.811884">
        <ele>2.908</ele>
        <time>2019-06-15T19:32:50Z</time>
      </trkpt>
      <trkpt lat="43.427127" lon="-2.811985">
        <ele>2.758</ele>
        <time>2019-06-15T19:32:51Z</time>
      </trkpt>
      <trkpt lat="43.427113" lon="-2.812088">
        <ele>2.742</ele>
        <time>2019-06-15T19:32:52Z</time>
      </trkpt>
      <trkpt lat="43.427114" lon="-2.812171">
        <ele>2.681</ele>
        <time>2019-06-15T19:32:53Z</time>
      </trkpt>
      <trkpt lat="43.427119" lon="-2.812248">
        <ele>2.840</ele>
        <time>2019-06-15T19:32:54Z</time>
      </trkpt>
      <trkpt lat="43.427139" lon="-2.812318">
        <ele>3.169</ele>
        <time>2019-06-15T19:32:55Z</time>
      </trkpt>
      <trkpt lat="43.427147" lon="-2.812426">
        <ele>3.730</ele>
        <time>2019-06-15T19:32:56Z</time>
      </trkpt>
      <trkpt lat="43.427166" lon="-2.812500">
        <ele>4.079</ele>
        <time>2019-06-15T19:32:57Z</time>
      </trkpt>
      <trkpt lat="43.427162" lon="-2.812583">
        <ele>3.733</ele>
        <time>2019-06-15T19:32:58Z</time>
      </trkpt>
      <trkpt lat="43.427152" lon="-2.812651">
        <ele>3.551</ele>
        <time>2019-06-15T19:32:59Z</time>
      </trkpt>
      <trkpt lat="43.427127" lon="-2.812714">
        <ele>3.201</ele>
        <time>2019-06-15T19:33:00Z</time>
      </trkpt>
      <trkpt lat="43.427076" lon="-2.812768">
        <ele>3.011</ele>
        <time>2019-06-15T19:33:01Z</time>
      </trkpt>
      <trkpt lat="43.427009" lon="-2.812819">
        <ele>3.008</ele>
        <time>2019-06-15T19:33:02Z</time>
      </trkpt>
      <trkpt lat="43.426926" lon="-2.812848">
        <ele>3.058</ele>
        <time>2019-06-15T19:33:03Z</time>
      </trkpt>
      <trkpt lat="43.426832" lon="-2.812887">
        <ele>3.052</ele>
        <time>2019-06-15T19:33:04Z</time>
      </trkpt>
      <trkpt lat="43.426695" lon="-2.812917">
        <ele>3.021</ele>
        <time>2019-06-15T19:33:05Z</time>
      </trkpt>
      <trkpt lat="43.426558" lon="-2.812966">
        <ele>2.970</ele>
        <time>2019-06-15T19:33:06Z</time>
      </trkpt>
      <trkpt lat="43.426422" lon="-2.813020">
        <ele>2.949</ele>
        <time>2019-06-15T19:33:07Z</time>
      </trkpt>
      <trkpt lat="43.426283" lon="-2.813070">
        <ele>3.080</ele>
        <time>2019-06-15T19:33:08Z</time>
      </trkpt>
      <trkpt lat="43.426141" lon="-2.813125">
        <ele>3.059</ele>
        <time>2019-06-15T19:33:09Z</time>
      </trkpt>
      <trkpt lat="43.426024" lon="-2.813159">
        <ele>2.853</ele>
        <time>2019-06-15T19:33:10Z</time>
      </trkpt>
      <trkpt lat="43.425882" lon="-2.813204">
        <ele>2.688</ele>
        <time>2019-06-15T19:33:11Z</time>
      </trkpt>
      <trkpt lat="43.425751" lon="-2.813240">
        <ele>2.724</ele>
        <time>2019-06-15T19:33:12Z</time>
      </trkpt>
      <trkpt lat="43.425640" lon="-2.813270">
        <ele>2.826</ele>
        <time>2019-06-15T19:33:13Z</time>
      </trkpt>
      <trkpt lat="43.425534" lon="-2.813293">
        <ele>2.908</ele>
        <time>2019-06-15T19:33:14Z</time>
      </trkpt>
      <trkpt lat="43.425432" lon="-2.813323">
        <ele>3.421</ele>
        <time>2019-06-15T19:33:15Z</time>
      </trkpt>
      <trkpt lat="43.425344" lon="-2.813359">
        <ele>3.875</ele>
        <time>2019-06-15T19:33:16Z</time>
      </trkpt>
      <trkpt lat="43.425237" lon="-2.813395">
        <ele>4.034</ele>
        <time>2019-06-15T19:33:17Z</time>
      </trkpt>
      <trkpt lat="43.425119" lon="-2.813455">
        <ele>4.083</ele>
        <time>2019-06-15T19:33:18Z</time>
      </trkpt>
      <trkpt lat="43.424992" lon="-2.813497">
        <ele>4.052</ele>
        <time>2019-06-15T19:33:19Z</time>
      </trkpt>
      <trkpt lat="43.424865" lon="-2.813530">
        <ele>4.033</ele>
        <time>2019-06-15T19:33:20Z</time>
      </trkpt>
      <trkpt lat="43.424745" lon="-2.813575">
        <ele>4.062</ele>
        <time>2019-06-15T19:33:21Z</time>
      </trkpt>
      <trkpt lat="43.424636" lon="-2.813607">
        <ele>4.086</ele>
        <time>2019-06-15T19:33:22Z</time>
      </trkpt>
      <trkpt lat="43.424525" lon="-2.813638">
        <ele>4.089</ele>
        <time>2019-06-15T19:33:23Z</time>
      </trkpt>
      <trkpt lat="43.424419" lon="-2.813664">
        <ele>4.006</ele>
        <time>2019-06-15T19:33:24Z</time>
      </trkpt>
      <trkpt lat="43.424309" lon="-2.813697">
        <ele>4.026</ele>
        <time>2019-06-15T19:33:25Z</time>
      </trkpt>
      <trkpt lat="43.424220" lon="-2.813722">
        <ele>4.008</ele>
        <time>2019-06-15T19:33:26Z</time>
      </trkpt>
      <trkpt lat="43.424112" lon="-2.813736">
        <ele>4.171</ele>
        <time>2019-06-15T19:33:28Z</time>
      </trkpt>
      <trkpt lat="43.424046" lon="-2.813745">
        <ele>4.245</ele>
        <time>2019-06-15T19:33:29Z</time>
      </trkpt>
      <trkpt lat="43.423967" lon="-2.813767">
        <ele>4.364</ele>
        <time>2019-06-15T19:33:30Z</time>
      </trkpt>
      <trkpt lat="43.423875" lon="-2.813798">
        <ele>4.333</ele>
        <time>2019-06-15T19:33:31Z</time>
      </trkpt>
      <trkpt lat="43.423758" lon="-2.813829">
        <ele>4.272</ele>
        <time>2019-06-15T19:33:32Z</time>
      </trkpt>
      <trkpt lat="43.423618" lon="-2.813871">
        <ele>4.183</ele>
        <time>2019-06-15T19:33:33Z</time>
      </trkpt>
      <trkpt lat="43.423448" lon="-2.813915">
        <ele>4.572</ele>
        <time>2019-06-15T19:33:34Z</time>
      </trkpt>
      <trkpt lat="43.423297" lon="-2.813958">
        <ele>4.866</ele>
        <time>2019-06-15T19:33:35Z</time>
      </trkpt>
      <trkpt lat="43.423133" lon="-2.813995">
        <ele>4.952</ele>
        <time>2019-06-15T19:33:36Z</time>
      </trkpt>
      <trkpt lat="43.422983" lon="-2.814040">
        <ele>5.053</ele>
        <time>2019-06-15T19:33:37Z</time>
      </trkpt>
      <trkpt lat="43.422847" lon="-2.814076">
        <ele>5.008</ele>
        <time>2019-06-15T19:33:38Z</time>
      </trkpt>
      <trkpt lat="43.422712" lon="-2.814122">
        <ele>5.208</ele>
        <time>2019-06-15T19:33:39Z</time>
      </trkpt>
      <trkpt lat="43.422580" lon="-2.814157">
        <ele>5.788</ele>
        <time>2019-06-15T19:33:40Z</time>
      </trkpt>
      <trkpt lat="43.422480" lon="-2.814178">
        <ele>6.012</ele>
        <time>2019-06-15T19:33:41Z</time>
      </trkpt>
      <trkpt lat="43.422360" lon="-2.814193">
        <ele>6.051</ele>
        <time>2019-06-15T19:33:42Z</time>
      </trkpt>
      <trkpt lat="43.422240" lon="-2.814210">
        <ele>6.020</ele>
        <time>2019-06-15T19:33:43Z</time>
      </trkpt>
      <trkpt lat="43.422148" lon="-2.814198">
        <ele>6.049</ele>
        <time>2019-06-15T19:33:44Z</time>
      </trkpt>
      <trkpt lat="43.422049" lon="-2.814185">
        <ele>6.040</ele>
        <time>2019-06-15T19:33:45Z</time>
      </trkpt>
      <trkpt lat="43.421956" lon="-2.814166">
        <ele>6.049</ele>
        <time>2019-06-15T19:33:46Z</time>
      </trkpt>
      <trkpt lat="43.421848" lon="-2.814137">
        <ele>6.053</ele>
        <time>2019-06-15T19:33:47Z</time>
      </trkpt>
      <trkpt lat="43.421700" lon="-2.814057">
        <ele>6.066</ele>
        <time>2019-06-15T19:33:48Z</time>
      </trkpt>
      <trkpt lat="43.421568" lon="-2.814007">
        <ele>6.029</ele>
        <time>2019-06-15T19:33:49Z</time>
      </trkpt>
      <trkpt lat="43.421407" lon="-2.814000">
        <ele>6.021</ele>
        <time>2019-06-15T19:33:50Z</time>
      </trkpt>
      <trkpt lat="43.421253" lon="-2.813969">
        <ele>6.008</ele>
        <time>2019-06-15T19:33:51Z</time>
      </trkpt>
      <trkpt lat="43.421102" lon="-2.813945">
        <ele>6.049</ele>
        <time>2019-06-15T19:33:52Z</time>
      </trkpt>
      <trkpt lat="43.420958" lon="-2.813912">
        <ele>6.043</ele>
        <time>2019-06-15T19:33:53Z</time>
      </trkpt>
      <trkpt lat="43.420819" lon="-2.813892">
        <ele>6.192</ele>
        <time>2019-06-15T19:33:54Z</time>
      </trkpt>
      <trkpt lat="43.420699" lon="-2.813860">
        <ele>6.561</ele>
        <time>2019-06-15T19:33:55Z</time>
      </trkpt>
      <trkpt lat="43.420577" lon="-2.813845">
        <ele>6.950</ele>
        <time>2019-06-15T19:33:56Z</time>
      </trkpt>
      <trkpt lat="43.420447" lon="-2.813823">
        <ele>7.011</ele>
        <time>2019-06-15T19:33:57Z</time>
      </trkpt>
      <trkpt lat="43.420313" lon="-2.813784">
        <ele>7.030</ele>
        <time>2019-06-15T19:33:58Z</time>
      </trkpt>
      <trkpt lat="43.420158" lon="-2.813757">
        <ele>7.294</ele>
        <time>2019-06-15T19:33:59Z</time>
      </trkpt>
      <trkpt lat="43.420014" lon="-2.813732">
        <ele>7.511</ele>
        <time>2019-06-15T19:34:00Z</time>
      </trkpt>
      <trkpt lat="43.419856" lon="-2.813708">
        <ele>7.821</ele>
        <time>2019-06-15T19:34:01Z</time>
      </trkpt>
      <trkpt lat="43.419684" lon="-2.813700">
        <ele>8.003</ele>
        <time>2019-06-15T19:34:02Z</time>
      </trkpt>
      <trkpt lat="43.419529" lon="-2.813690">
        <ele>8.008</ele>
        <time>2019-06-15T19:34:03Z</time>
      </trkpt>
      <trkpt lat="43.419397" lon="-2.813666">
        <ele>8.274</ele>
        <time>2019-06-15T19:34:04Z</time>
      </trkpt>
      <trkpt lat="43.419251" lon="-2.813638">
        <ele>8.728</ele>
        <time>2019-06-15T19:34:05Z</time>
      </trkpt>
      <trkpt lat="43.419100" lon="-2.813619">
        <ele>9.047</ele>
        <time>2019-06-15T19:34:06Z</time>
      </trkpt>
      <trkpt lat="43.418966" lon="-2.813585">
        <ele>9.076</ele>
        <time>2019-06-15T19:34:07Z</time>
      </trkpt>
      <trkpt lat="43.418829" lon="-2.813562">
        <ele>9.055</ele>
        <time>2019-06-15T19:34:08Z</time>
      </trkpt>
      <trkpt lat="43.418708" lon="-2.813548">
        <ele>9.086</ele>
        <time>2019-06-15T19:34:09Z</time>
      </trkpt>
      <trkpt lat="43.418575" lon="-2.813521">
        <ele>9.015</ele>
        <time>2019-06-15T19:34:10Z</time>
      </trkpt>
      <trkpt lat="43.418468" lon="-2.813509">
        <ele>9.079</ele>
        <time>2019-06-15T19:34:11Z</time>
      </trkpt>
      <trkpt lat="43.418360" lon="-2.813488">
        <ele>9.094</ele>
        <time>2019-06-15T19:34:12Z</time>
      </trkpt>
      <trkpt lat="43.418256" lon="-2.813476">
        <ele>9.157</ele>
        <time>2019-06-15T19:34:13Z</time>
      </trkpt>
      <trkpt lat="43.418158" lon="-2.813457">
        <ele>9.322</ele>
        <time>2019-06-15T19:34:14Z</time>
      </trkpt>
      <trkpt lat="43.418066" lon="-2.813438">
        <ele>9.408</ele>
        <time>2019-06-15T19:34:15Z</time>
      </trkpt>
      <trkpt lat="43.417996" lon="-2.813399">
        <ele>9.582</ele>
        <time>2019-06-15T19:34:16Z</time>
      </trkpt>
      <trkpt lat="43.417908" lon="-2.813358">
        <ele>9.696</ele>
        <time>2019-06-15T19:34:17Z</time>
      </trkpt>
      <trkpt lat="43.417804" lon="-2.813312">
        <ele>9.875</ele>
        <time>2019-06-15T19:34:18Z</time>
      </trkpt>
      <trkpt lat="43.417707" lon="-2.813272">
        <ele>10.264</ele>
        <time>2019-06-15T19:34:19Z</time>
      </trkpt>
      <trkpt lat="43.417609" lon="-2.813191">
        <ele>10.413</ele>
        <time>2019-06-15T19:34:20Z</time>
      </trkpt>
      <trkpt lat="43.417534" lon="-2.813086">
        <ele>10.134</ele>
        <time>2019-06-15T19:34:21Z</time>
      </trkpt>
      <trkpt lat="43.417448" lon="-2.812990">
        <ele>10.453</ele>
        <time>2019-06-15T19:34:22Z</time>
      </trkpt>
      <trkpt lat="43.417363" lon="-2.812889">
        <ele>10.847</ele>
        <time>2019-06-15T19:34:23Z</time>
      </trkpt>
      <trkpt lat="43.417271" lon="-2.812784">
        <ele>10.716</ele>
        <time>2019-06-15T19:34:24Z</time>
      </trkpt>
      <trkpt lat="43.417161" lon="-2.812696">
        <ele>10.976</ele>
        <time>2019-06-15T19:34:25Z</time>
      </trkpt>
      <trkpt lat="43.417061" lon="-2.812607">
        <ele>10.913</ele>
        <time>2019-06-15T19:34:26Z</time>
      </trkpt>
      <trkpt lat="43.416962" lon="-2.812540">
        <ele>11.208</ele>
        <time>2019-06-15T19:34:27Z</time>
      </trkpt>
      <trkpt lat="43.416859" lon="-2.812484">
        <ele>11.764</ele>
        <time>2019-06-15T19:34:28Z</time>
      </trkpt>
      <trkpt lat="43.416742" lon="-2.812458">
        <ele>12.428</ele>
        <time>2019-06-15T19:34:29Z</time>
      </trkpt>
      <trkpt lat="43.416645" lon="-2.812428">
        <ele>12.637</ele>
        <time>2019-06-15T19:34:30Z</time>
      </trkpt>
      <trkpt lat="43.416542" lon="-2.812401">
        <ele>12.936</ele>
        <time>2019-06-15T19:34:31Z</time>
      </trkpt>
      <trkpt lat="43.416453" lon="-2.812400">
        <ele>13.685</ele>
        <time>2019-06-15T19:34:32Z</time>
      </trkpt>
      <trkpt lat="43.416362" lon="-2.812390">
        <ele>13.956</ele>
        <time>2019-06-15T19:34:33Z</time>
      </trkpt>
      <trkpt lat="43.416267" lon="-2.812379">
        <ele>13.925</ele>
        <time>2019-06-15T19:34:34Z</time>
      </trkpt>
      <trkpt lat="43.416172" lon="-2.812380">
        <ele>14.289</ele>
        <time>2019-06-15T19:34:35Z</time>
      </trkpt>
      <trkpt lat="43.416071" lon="-2.812412">
        <ele>14.861</ele>
        <time>2019-06-15T19:34:36Z</time>
      </trkpt>
      <trkpt lat="43.415979" lon="-2.812441">
        <ele>14.621</ele>
        <time>2019-06-15T19:34:37Z</time>
      </trkpt>
      <trkpt lat="43.415912" lon="-2.812470">
        <ele>14.413</ele>
        <time>2019-06-15T19:34:38Z</time>
      </trkpt>
      <trkpt lat="43.415832" lon="-2.812507">
        <ele>14.108</ele>
        <time>2019-06-15T19:34:39Z</time>
      </trkpt>
      <trkpt lat="43.415762" lon="-2.812523">
        <ele>13.839</ele>
        <time>2019-06-15T19:34:40Z</time>
      </trkpt>
      <trkpt lat="43.415671" lon="-2.812552">
        <ele>13.543</ele>
        <time>2019-06-15T19:34:41Z</time>
      </trkpt>
      <trkpt lat="43.415567" lon="-2.812581">
        <ele>13.062</ele>
        <time>2019-06-15T19:34:42Z</time>
      </trkpt>
      <trkpt lat="43.415480" lon="-2.812617">
        <ele>13.051</ele>
        <time>2019-06-15T19:34:43Z</time>
      </trkpt>
      <trkpt lat="43.415366" lon="-2.812673">
        <ele>13.070</ele>
        <time>2019-06-15T19:34:44Z</time>
      </trkpt>
      <trkpt lat="43.415238" lon="-2.812743">
        <ele>12.911</ele>
        <time>2019-06-15T19:34:45Z</time>
      </trkpt>
      <trkpt lat="43.415114" lon="-2.812833">
        <ele>13.220</ele>
        <time>2019-06-15T19:34:46Z</time>
      </trkpt>
      <trkpt lat="43.414980" lon="-2.812913">
        <ele>13.054</ele>
        <time>2019-06-15T19:34:47Z</time>
      </trkpt>
      <trkpt lat="43.414866" lon="-2.812989">
        <ele>12.911</ele>
        <time>2019-06-15T19:34:48Z</time>
      </trkpt>
      <trkpt lat="43.414749" lon="-2.813044">
        <ele>13.021</ele>
        <time>2019-06-15T19:34:49Z</time>
      </trkpt>
      <trkpt lat="43.414642" lon="-2.813099">
        <ele>13.203</ele>
        <time>2019-06-15T19:34:50Z</time>
      </trkpt>
      <trkpt lat="43.414564" lon="-2.813167">
        <ele>13.408</ele>
        <time>2019-06-15T19:34:51Z</time>
      </trkpt>
      <trkpt lat="43.414515" lon="-2.813252">
        <ele>13.734</ele>
        <time>2019-06-15T19:34:52Z</time>
      </trkpt>
      <trkpt lat="43.414495" lon="-2.813353">
        <ele>14.198</ele>
        <time>2019-06-15T19:34:53Z</time>
      </trkpt>
      <trkpt lat="43.414498" lon="-2.813477">
        <ele>14.767</ele>
        <time>2019-06-15T19:34:54Z</time>
      </trkpt>
      <trkpt lat="43.414506" lon="-2.813597">
        <ele>15.496</ele>
        <time>2019-06-15T19:34:55Z</time>
      </trkpt>
      <trkpt lat="43.414524" lon="-2.813705">
        <ele>16.295</ele>
        <time>2019-06-15T19:34:56Z</time>
      </trkpt>
      <trkpt lat="43.414587" lon="-2.813787">
        <ele>17.396</ele>
        <time>2019-06-15T19:34:57Z</time>
      </trkpt>
      <trkpt lat="43.414652" lon="-2.813859">
        <ele>18.355</ele>
        <time>2019-06-15T19:34:58Z</time>
      </trkpt>
      <trkpt lat="43.414753" lon="-2.813792">
        <ele>18.829</ele>
        <time>2019-06-15T19:34:59Z</time>
      </trkpt>
      <trkpt lat="43.414885" lon="-2.813737">
        <ele>20.236</ele>
        <time>2019-06-15T19:35:00Z</time>
      </trkpt>
      <trkpt lat="43.415009" lon="-2.813652">
        <ele>20.817</ele>
        <time>2019-06-15T19:35:01Z</time>
      </trkpt>
      <trkpt lat="43.415157" lon="-2.813584">
        <ele>22.418</ele>
        <time>2019-06-15T19:35:02Z</time>
      </trkpt>
      <trkpt lat="43.415299" lon="-2.813494">
        <ele>23.308</ele>
        <time>2019-06-15T19:35:03Z</time>
      </trkpt>
      <trkpt lat="43.415446" lon="-2.813419">
        <ele>24.856</ele>
        <time>2019-06-15T19:35:04Z</time>
      </trkpt>
      <trkpt lat="43.415592" lon="-2.813354">
        <ele>26.290</ele>
        <time>2019-06-15T19:35:05Z</time>
      </trkpt>
      <trkpt lat="43.415733" lon="-2.813284">
        <ele>27.729</ele>
        <time>2019-06-15T19:35:06Z</time>
      </trkpt>
      <trkpt lat="43.415856" lon="-2.813211">
        <ele>28.278</ele>
        <time>2019-06-15T19:35:07Z</time>
      </trkpt>
      <trkpt lat="43.415951" lon="-2.813159">
        <ele>28.397</ele>
        <time>2019-06-15T19:35:08Z</time>
      </trkpt>
      <trkpt lat="43.416068" lon="-2.813117">
        <ele>29.268</ele>
        <time>2019-06-15T19:35:09Z</time>
      </trkpt>
      <trkpt lat="43.416180" lon="-2.813090">
        <ele>29.567</ele>
        <time>2019-06-15T19:35:10Z</time>
      </trkpt>
      <trkpt lat="43.416289" lon="-2.813101">
        <ele>29.711</ele>
        <time>2019-06-15T19:35:11Z</time>
      </trkpt>
      <trkpt lat="43.416399" lon="-2.813142">
        <ele>30.128</ele>
        <time>2019-06-15T19:35:12Z</time>
      </trkpt>
      <trkpt lat="43.416511" lon="-2.813223">
        <ele>30.189</ele>
        <time>2019-06-15T19:35:13Z</time>
      </trkpt>
      <trkpt lat="43.416609" lon="-2.813327">
        <ele>30.517</ele>
        <time>2019-06-15T19:35:14Z</time>
      </trkpt>
      <trkpt lat="43.416696" lon="-2.813446">
        <ele>30.608</ele>
        <time>2019-06-15T19:35:15Z</time>
      </trkpt>
      <trkpt lat="43.416756" lon="-2.813583">
        <ele>30.515</ele>
        <time>2019-06-15T19:35:16Z</time>
      </trkpt>
      <trkpt lat="43.416810" lon="-2.813723">
        <ele>30.069</ele>
        <time>2019-06-15T19:35:17Z</time>
      </trkpt>
      <trkpt lat="43.416810" lon="-2.813895">
        <ele>30.918</ele>
        <time>2019-06-15T19:35:18Z</time>
      </trkpt>
      <trkpt lat="43.416813" lon="-2.814061">
        <ele>31.177</ele>
        <time>2019-06-15T19:35:19Z</time>
      </trkpt>
      <trkpt lat="43.416795" lon="-2.814225">
        <ele>31.666</ele>
        <time>2019-06-15T19:35:20Z</time>
      </trkpt>
      <trkpt lat="43.416758" lon="-2.814401">
        <ele>32.287</ele>
        <time>2019-06-15T19:35:21Z</time>
      </trkpt>
      <trkpt lat="43.416720" lon="-2.814584">
        <ele>32.746</ele>
        <time>2019-06-15T19:35:22Z</time>
      </trkpt>
      <trkpt lat="43.416671" lon="-2.814776">
        <ele>33.670</ele>
        <time>2019-06-15T19:35:23Z</time>
      </trkpt>
      <trkpt lat="43.416620" lon="-2.814977">
        <ele>34.887</ele>
        <time>2019-06-15T19:35:24Z</time>
      </trkpt>
      <trkpt lat="43.416568" lon="-2.815187">
        <ele>35.942</ele>
        <time>2019-06-15T19:35:25Z</time>
      </trkpt>
      <trkpt lat="43.416517" lon="-2.815391">
        <ele>37.226</ele>
        <time>2019-06-15T19:35:26Z</time>
      </trkpt>
      <trkpt lat="43.416464" lon="-2.815588">
        <ele>38.508</ele>
        <time>2019-06-15T19:35:27Z</time>
      </trkpt>
      <trkpt lat="43.416413" lon="-2.815776">
        <ele>39.411</ele>
        <time>2019-06-15T19:35:28Z</time>
      </trkpt>
      <trkpt lat="43.416362" lon="-2.815953">
        <ele>40.155</ele>
        <time>2019-06-15T19:35:29Z</time>
      </trkpt>
      <trkpt lat="43.416322" lon="-2.816125">
        <ele>40.444</ele>
        <time>2019-06-15T19:35:30Z</time>
      </trkpt>
      <trkpt lat="43.416285" lon="-2.816306">
        <ele>41.283</ele>
        <time>2019-06-15T19:35:31Z</time>
      </trkpt>
      <trkpt lat="43.416264" lon="-2.816485">
        <ele>42.542</ele>
        <time>2019-06-15T19:35:32Z</time>
      </trkpt>
      <trkpt lat="43.416284" lon="-2.816668">
        <ele>43.873</ele>
        <time>2019-06-15T19:35:33Z</time>
      </trkpt>
      <trkpt lat="43.416314" lon="-2.816832">
        <ele>47.042</ele>
        <time>2019-06-15T19:35:34Z</time>
      </trkpt>
      <trkpt lat="43.416435" lon="-2.816932">
        <ele>48.126</ele>
        <time>2019-06-15T19:35:35Z</time>
      </trkpt>
      <trkpt lat="43.416511" lon="-2.817068">
        <ele>48.821</ele>
        <time>2019-06-15T19:35:36Z</time>
      </trkpt>
      <trkpt lat="43.416579" lon="-2.817189">
        <ele>49.241</ele>
        <time>2019-06-15T19:35:37Z</time>
      </trkpt>
      <trkpt lat="43.416628" lon="-2.817325">
        <ele>49.805</ele>
        <time>2019-06-15T19:35:38Z</time>
      </trkpt>
      <trkpt lat="43.416674" lon="-2.817470">
        <ele>50.508</ele>
        <time>2019-06-15T19:35:39Z</time>
      </trkpt>
      <trkpt lat="43.416689" lon="-2.817658">
        <ele>51.635</ele>
        <time>2019-06-15T19:35:40Z</time>
      </trkpt>
      <trkpt lat="43.416687" lon="-2.817817">
        <ele>52.649</ele>
        <time>2019-06-15T19:35:41Z</time>
      </trkpt>
      <trkpt lat="43.416692" lon="-2.817969">
        <ele>53.168</ele>
        <time>2019-06-15T19:35:42Z</time>
      </trkpt>
      <trkpt lat="43.416668" lon="-2.818102">
        <ele>54.037</ele>
        <time>2019-06-15T19:35:43Z</time>
      </trkpt>
      <trkpt lat="43.416602" lon="-2.818219">
        <ele>55.096</ele>
        <time>2019-06-15T19:35:44Z</time>
      </trkpt>
      <trkpt lat="43.416504" lon="-2.818318">
        <ele>56.417</ele>
        <time>2019-06-15T19:35:45Z</time>
      </trkpt>
      <trkpt lat="43.416377" lon="-2.818385">
        <ele>57.426</ele>
        <time>2019-06-15T19:35:46Z</time>
      </trkpt>
      <trkpt lat="43.416244" lon="-2.818418">
        <ele>57.740</ele>
        <time>2019-06-15T19:35:47Z</time>
      </trkpt>
      <trkpt lat="43.416110" lon="-2.818436">
        <ele>58.118</ele>
        <time>2019-06-15T19:35:48Z</time>
      </trkpt>
      <trkpt lat="43.415970" lon="-2.818382">
        <ele>60.698</ele>
        <time>2019-06-15T19:35:49Z</time>
      </trkpt>
      <trkpt lat="43.415831" lon="-2.818356">
        <ele>62.317</ele>
        <time>2019-06-15T19:35:50Z</time>
      </trkpt>
      <trkpt lat="43.415692" lon="-2.818288">
        <ele>63.408</ele>
        <time>2019-06-15T19:35:51Z</time>
      </trkpt>
      <trkpt lat="43.415564" lon="-2.818231">
        <ele>64.134</ele>
        <time>2019-06-15T19:35:52Z</time>
      </trkpt>
      <trkpt lat="43.415431" lon="-2.818197">
        <ele>65.198</ele>
        <time>2019-06-15T19:35:53Z</time>
      </trkpt>
      <trkpt lat="43.415300" lon="-2.818174">
        <ele>66.097</ele>
        <time>2019-06-15T19:35:54Z</time>
      </trkpt>
      <trkpt lat="43.415190" lon="-2.818261">
        <ele>66.246</ele>
        <time>2019-06-15T19:35:55Z</time>
      </trkpt>
      <trkpt lat="43.415054" lon="-2.818335">
        <ele>66.685</ele>
        <time>2019-06-15T19:35:56Z</time>
      </trkpt>
      <trkpt lat="43.414918" lon="-2.818415">
        <ele>66.256</ele>
        <time>2019-06-15T19:35:57Z</time>
      </trkpt>
      <trkpt lat="43.414772" lon="-2.818488">
        <ele>66.325</ele>
        <time>2019-06-15T19:35:58Z</time>
      </trkpt>
      <trkpt lat="43.414644" lon="-2.818580">
        <ele>66.229</ele>
        <time>2019-06-15T19:35:59Z</time>
      </trkpt>
      <trkpt lat="43.414550" lon="-2.818673">
        <ele>66.358</ele>
        <time>2019-06-15T19:36:00Z</time>
      </trkpt>
      <trkpt lat="43.414477" lon="-2.818789">
        <ele>66.752</ele>
        <time>2019-06-15T19:36:01Z</time>
      </trkpt>
      <trkpt lat="43.414437" lon="-2.818912">
        <ele>67.217</ele>
        <time>2019-06-15T19:36:02Z</time>
      </trkpt>
      <trkpt lat="43.414422" lon="-2.819078">
        <ele>67.908</ele>
        <time>2019-06-15T19:36:03Z</time>
      </trkpt>
      <trkpt lat="43.414415" lon="-2.819236">
        <ele>68.358</ele>
        <time>2019-06-15T19:36:04Z</time>
      </trkpt>
      <trkpt lat="43.414424" lon="-2.819405">
        <ele>68.372</ele>
        <time>2019-06-15T19:36:05Z</time>
      </trkpt>
      <trkpt lat="43.414440" lon="-2.819638">
        <ele>69.481</ele>
        <time>2019-06-15T19:36:06Z</time>
      </trkpt>
      <trkpt lat="43.414450" lon="-2.819856">
        <ele>69.840</ele>
        <time>2019-06-15T19:36:07Z</time>
      </trkpt>
      <trkpt lat="43.414463" lon="-2.820101">
        <ele>69.339</ele>
        <time>2019-06-15T19:36:08Z</time>
      </trkpt>
      <trkpt lat="43.414473" lon="-2.820325">
        <ele>69.190</ele>
        <time>2019-06-15T19:36:09Z</time>
      </trkpt>
      <trkpt lat="43.414481" lon="-2.820545">
        <ele>69.669</ele>
        <time>2019-06-15T19:36:10Z</time>
      </trkpt>
      <trkpt lat="43.414491" lon="-2.820754">
        <ele>70.393</ele>
        <time>2019-06-15T19:36:11Z</time>
      </trkpt>
      <trkpt lat="43.414498" lon="-2.820966">
        <ele>72.159</ele>
        <time>2019-06-15T19:36:12Z</time>
      </trkpt>
      <trkpt lat="43.414487" lon="-2.821156">
        <ele>74.203</ele>
        <time>2019-06-15T19:36:13Z</time>
      </trkpt>
      <trkpt lat="43.414467" lon="-2.821362">
        <ele>75.423</ele>
        <time>2019-06-15T19:36:14Z</time>
      </trkpt>
      <trkpt lat="43.414425" lon="-2.821591">
        <ele>74.908</ele>
        <time>2019-06-15T19:36:15Z</time>
      </trkpt>
      <trkpt lat="43.414363" lon="-2.821806">
        <ele>74.538</ele>
        <time>2019-06-15T19:36:16Z</time>
      </trkpt>
      <trkpt lat="43.414296" lon="-2.821997">
        <ele>75.552</ele>
        <time>2019-06-15T19:36:17Z</time>
      </trkpt>
      <trkpt lat="43.414231" lon="-2.822184">
        <ele>77.761</ele>
        <time>2019-06-15T19:36:18Z</time>
      </trkpt>
      <trkpt lat="43.414172" lon="-2.822369">
        <ele>80.210</ele>
        <time>2019-06-15T19:36:19Z</time>
      </trkpt>
      <trkpt lat="43.414115" lon="-2.822546">
        <ele>81.569</ele>
        <time>2019-06-15T19:36:20Z</time>
      </trkpt>
      <trkpt lat="43.414064" lon="-2.822721">
        <ele>83.050</ele>
        <time>2019-06-15T19:36:21Z</time>
      </trkpt>
      <trkpt lat="43.414010" lon="-2.822888">
        <ele>84.339</ele>
        <time>2019-06-15T19:36:22Z</time>
      </trkpt>
      <trkpt lat="43.413960" lon="-2.823049">
        <ele>85.743</ele>
        <time>2019-06-15T19:36:23Z</time>
      </trkpt>
      <trkpt lat="43.413905" lon="-2.823218">
        <ele>87.422</ele>
        <time>2019-06-15T19:36:24Z</time>
      </trkpt>
      <trkpt lat="43.413839" lon="-2.823384">
        <ele>89.262</ele>
        <time>2019-06-15T19:36:25Z</time>
      </trkpt>
      <trkpt lat="43.413771" lon="-2.823536">
        <ele>90.408</ele>
        <time>2019-06-15T19:36:26Z</time>
      </trkpt>
      <trkpt lat="43.413695" lon="-2.823691">
        <ele>91.408</ele>
        <time>2019-06-15T19:36:27Z</time>
      </trkpt>
      <trkpt lat="43.413619" lon="-2.823831">
        <ele>92.295</ele>
        <time>2019-06-15T19:36:28Z</time>
      </trkpt>
      <trkpt lat="43.413543" lon="-2.823977">
        <ele>93.319</ele>
        <time>2019-06-15T19:36:29Z</time>
      </trkpt>
      <trkpt lat="43.413482" lon="-2.824147">
        <ele>93.938</ele>
        <time>2019-06-15T19:36:30Z</time>
      </trkpt>
      <trkpt lat="43.413440" lon="-2.824320">
        <ele>94.737</ele>
        <time>2019-06-15T19:36:31Z</time>
      </trkpt>
      <trkpt lat="43.413394" lon="-2.824490">
        <ele>96.296</ele>
        <time>2019-06-15T19:36:32Z</time>
      </trkpt>
      <trkpt lat="43.413393" lon="-2.824683">
        <ele>97.177</ele>
        <time>2019-06-15T19:36:33Z</time>
      </trkpt>
      <trkpt lat="43.413383" lon="-2.824875">
        <ele>98.276</ele>
        <time>2019-06-15T19:36:34Z</time>
      </trkpt>
      <trkpt lat="43.413367" lon="-2.825061">
        <ele>99.420</ele>
        <time>2019-06-15T19:36:35Z</time>
      </trkpt>
      <trkpt lat="43.413342" lon="-2.825255">
        <ele>100.729</ele>
        <time>2019-06-15T19:36:36Z</time>
      </trkpt>
      <trkpt lat="43.413306" lon="-2.825450">
        <ele>101.700</ele>
        <time>2019-06-15T19:36:37Z</time>
      </trkpt>
      <trkpt lat="43.413257" lon="-2.825646">
        <ele>102.620</ele>
        <time>2019-06-15T19:36:38Z</time>
      </trkpt>
      <trkpt lat="43.413206" lon="-2.825837">
        <ele>103.208</ele>
        <time>2019-06-15T19:36:39Z</time>
      </trkpt>
      <trkpt lat="43.413158" lon="-2.826036">
        <ele>104.025</ele>
        <time>2019-06-15T19:36:40Z</time>
      </trkpt>
      <trkpt lat="43.413104" lon="-2.826231">
        <ele>104.299</ele>
        <time>2019-06-15T19:36:41Z</time>
      </trkpt>
      <trkpt lat="43.413054" lon="-2.826407">
        <ele>104.228</ele>
        <time>2019-06-15T19:36:42Z</time>
      </trkpt>
      <trkpt lat="43.413020" lon="-2.826565">
        <ele>106.467</ele>
        <time>2019-06-15T19:36:43Z</time>
      </trkpt>
      <trkpt lat="43.412992" lon="-2.826725">
        <ele>107.966</ele>
        <time>2019-06-15T19:36:44Z</time>
      </trkpt>
      <trkpt lat="43.413002" lon="-2.826898">
        <ele>108.117</ele>
        <time>2019-06-15T19:36:45Z</time>
      </trkpt>
      <trkpt lat="43.413020" lon="-2.827080">
        <ele>108.646</ele>
        <time>2019-06-15T19:36:46Z</time>
      </trkpt>
      <trkpt lat="43.413084" lon="-2.827224">
        <ele>108.830</ele>
        <time>2019-06-15T19:36:47Z</time>
      </trkpt>
      <trkpt lat="43.413144" lon="-2.827351">
        <ele>109.725</ele>
        <time>2019-06-15T19:36:48Z</time>
      </trkpt>
      <trkpt lat="43.413204" lon="-2.827486">
        <ele>111.426</ele>
        <time>2019-06-15T19:36:49Z</time>
      </trkpt>
      <trkpt lat="43.413290" lon="-2.827591">
        <ele>113.008</ele>
        <time>2019-06-15T19:36:50Z</time>
      </trkpt>
      <trkpt lat="43.413401" lon="-2.827688">
        <ele>114.008</ele>
        <time>2019-06-15T19:36:51Z</time>
      </trkpt>
      <trkpt lat="43.413590" lon="-2.827745">
        <ele>115.195</ele>
        <time>2019-06-15T19:36:52Z</time>
      </trkpt>
      <trkpt lat="43.413734" lon="-2.827820">
        <ele>115.969</ele>
        <time>2019-06-15T19:36:53Z</time>
      </trkpt>
      <trkpt lat="43.413865" lon="-2.827896">
        <ele>116.768</ele>
        <time>2019-06-15T19:36:54Z</time>
      </trkpt>
      <trkpt lat="43.413987" lon="-2.827994">
        <ele>119.517</ele>
        <time>2019-06-15T19:36:55Z</time>
      </trkpt>
      <trkpt lat="43.414089" lon="-2.828091">
        <ele>121.976</ele>
        <time>2019-06-15T19:36:56Z</time>
      </trkpt>
      <trkpt lat="43.414187" lon="-2.828198">
        <ele>123.377</ele>
        <time>2019-06-15T19:36:57Z</time>
      </trkpt>
      <trkpt lat="43.414264" lon="-2.828325">
        <ele>123.516</ele>
        <time>2019-06-15T19:36:58Z</time>
      </trkpt>
      <trkpt lat="43.414319" lon="-2.828449">
        <ele>124.230</ele>
        <time>2019-06-15T19:36:59Z</time>
      </trkpt>
      <trkpt lat="43.414335" lon="-2.828607">
        <ele>125.571</ele>
        <time>2019-06-15T19:37:00Z</time>
      </trkpt>
      <trkpt lat="43.414346" lon="-2.828769">
        <ele>125.641</ele>
        <time>2019-06-15T19:37:01Z</time>
      </trkpt>
      <trkpt lat="43.414329" lon="-2.828946">
        <ele>126.115</ele>
        <time>2019-06-15T19:37:02Z</time>
      </trkpt>
      <trkpt lat="43.414281" lon="-2.829136">
        <ele>127.008</ele>
        <time>2019-06-15T19:37:03Z</time>
      </trkpt>
      <trkpt lat="43.414216" lon="-2.829332">
        <ele>129.070</ele>
        <time>2019-06-15T19:37:04Z</time>
      </trkpt>
      <trkpt lat="43.414146" lon="-2.829512">
        <ele>131.994</ele>
        <time>2019-06-15T19:37:05Z</time>
      </trkpt>
      <trkpt lat="43.414071" lon="-2.829693">
        <ele>134.933</ele>
        <time>2019-06-15T19:37:06Z</time>
      </trkpt>
      <trkpt lat="43.413998" lon="-2.829875">
        <ele>136.182</ele>
        <time>2019-06-15T19:37:07Z</time>
      </trkpt>
      <trkpt lat="43.413927" lon="-2.830002">
        <ele>138.291</ele>
        <time>2019-06-15T19:37:08Z</time>
      </trkpt>
      <trkpt lat="43.413860" lon="-2.830210">
        <ele>139.382</ele>
        <time>2019-06-15T19:37:09Z</time>
      </trkpt>
      <trkpt lat="43.413789" lon="-2.830441">
        <ele>140.661</ele>
        <time>2019-06-15T19:37:10Z</time>
      </trkpt>
      <trkpt lat="43.413712" lon="-2.830652">
        <ele>141.985</ele>
        <time>2019-06-15T19:37:11Z</time>
      </trkpt>
      <trkpt lat="43.413636" lon="-2.830854">
        <ele>142.459</ele>
        <time>2019-06-15T19:37:12Z</time>
      </trkpt>
      <trkpt lat="43.413566" lon="-2.831048">
        <ele>143.303</ele>
        <time>2019-06-15T19:37:13Z</time>
      </trkpt>
      <trkpt lat="43.413517" lon="-2.831234">
        <ele>144.223</ele>
        <time>2019-06-15T19:37:14Z</time>
      </trkpt>
      <trkpt lat="43.413463" lon="-2.831438">
        <ele>145.808</ele>
        <time>2019-06-15T19:37:15Z</time>
      </trkpt>
      <trkpt lat="43.413427" lon="-2.831670">
        <ele>147.648</ele>
        <time>2019-06-15T19:37:16Z</time>
      </trkpt>
      <trkpt lat="43.413386" lon="-2.831886">
        <ele>149.812</ele>
        <time>2019-06-15T19:37:17Z</time>
      </trkpt>
      <trkpt lat="43.413345" lon="-2.832093">
        <ele>152.371</ele>
        <time>2019-06-15T19:37:18Z</time>
      </trkpt>
      <trkpt lat="43.413303" lon="-2.832334">
        <ele>153.790</ele>
        <time>2019-06-15T19:37:19Z</time>
      </trkpt>
      <trkpt lat="43.413263" lon="-2.832570">
        <ele>153.929</ele>
        <time>2019-06-15T19:37:20Z</time>
      </trkpt>
      <trkpt lat="43.413227" lon="-2.832789">
        <ele>154.150</ele>
        <time>2019-06-15T19:37:21Z</time>
      </trkpt>
      <trkpt lat="43.413195" lon="-2.832993">
        <ele>155.699</ele>
        <time>2019-06-15T19:37:22Z</time>
      </trkpt>
      <trkpt lat="43.413165" lon="-2.833194">
        <ele>156.863</ele>
        <time>2019-06-15T19:37:23Z</time>
      </trkpt>
      <trkpt lat="43.413148" lon="-2.833368">
        <ele>157.598</ele>
        <time>2019-06-15T19:37:24Z</time>
      </trkpt>
      <trkpt lat="43.413129" lon="-2.833550">
        <ele>158.715</ele>
        <time>2019-06-15T19:37:25Z</time>
      </trkpt>
      <trkpt lat="43.413114" lon="-2.833719">
        <ele>160.326</ele>
        <time>2019-06-15T19:37:26Z</time>
      </trkpt>
      <trkpt lat="43.413214" lon="-2.833828">
        <ele>159.308</ele>
        <time>2019-06-15T19:37:27Z</time>
      </trkpt>
      <trkpt lat="43.413270" lon="-2.833957">
        <ele>160.432</ele>
        <time>2019-06-15T19:37:28Z</time>
      </trkpt>
      <trkpt lat="43.413329" lon="-2.834088">
        <ele>161.756</ele>
        <time>2019-06-15T19:37:29Z</time>
      </trkpt>
      <trkpt lat="43.413385" lon="-2.834223">
        <ele>164.765</ele>
        <time>2019-06-15T19:37:30Z</time>
      </trkpt>
      <trkpt lat="43.413420" lon="-2.834293">
        <ele>166.164</ele>
        <time>2019-06-15T19:37:31Z</time>
      </trkpt>
      <trkpt lat="43.413540" lon="-2.833942">
        <ele>165.763</ele>
        <time>2019-06-15T19:37:32Z</time>
      </trkpt>
      <trkpt lat="43.413646" lon="-2.833803">
        <ele>167.214</ele>
        <time>2019-06-15T19:37:33Z</time>
      </trkpt>
      <trkpt lat="43.413745" lon="-2.833664">
        <ele>169.323</ele>
        <time>2019-06-15T19:37:34Z</time>
      </trkpt>
      <trkpt lat="43.413861" lon="-2.833483">
        <ele>170.947</ele>
        <time>2019-06-15T19:37:35Z</time>
      </trkpt>
      <trkpt lat="43.413961" lon="-2.833333">
        <ele>171.319</ele>
        <time>2019-06-15T19:37:36Z</time>
      </trkpt>
      <trkpt lat="43.414098" lon="-2.833250">
        <ele>174.009</ele>
        <time>2019-06-15T19:37:37Z</time>
      </trkpt>
      <trkpt lat="43.414272" lon="-2.833150">
        <ele>176.719</ele>
        <time>2019-06-15T19:37:38Z</time>
      </trkpt>
      <trkpt lat="43.414420" lon="-2.833059">
        <ele>177.608</ele>
        <time>2019-06-15T19:37:39Z</time>
      </trkpt>
      <trkpt lat="43.414578" lon="-2.832944">
        <ele>179.154</ele>
        <time>2019-06-15T19:37:40Z</time>
      </trkpt>
      <trkpt lat="43.414702" lon="-2.832816">
        <ele>180.178</ele>
        <time>2019-06-15T19:37:41Z</time>
      </trkpt>
      <trkpt lat="43.414795" lon="-2.832686">
        <ele>181.277</ele>
        <time>2019-06-15T19:37:42Z</time>
      </trkpt>
      <trkpt lat="43.414906" lon="-2.832563">
        <ele>182.576</ele>
        <time>2019-06-15T19:37:43Z</time>
      </trkpt>
      <trkpt lat="43.415054" lon="-2.832504">
        <ele>185.175</ele>
        <time>2019-06-15T19:37:44Z</time>
      </trkpt>
      <trkpt lat="43.415203" lon="-2.832474">
        <ele>186.866</ele>
        <time>2019-06-15T19:37:45Z</time>
      </trkpt>
      <trkpt lat="43.415345" lon="-2.832440">
        <ele>188.975</ele>
        <time>2019-06-15T19:37:46Z</time>
      </trkpt>
      <trkpt lat="43.415480" lon="-2.832418">
        <ele>191.969</ele>
        <time>2019-06-15T19:37:47Z</time>
      </trkpt>
      <trkpt lat="43.415598" lon="-2.832292">
        <ele>192.466</ele>
        <time>2019-06-15T19:37:48Z</time>
      </trkpt>
      <trkpt lat="43.415677" lon="-2.832170">
        <ele>192.929</ele>
        <time>2019-06-15T19:37:49Z</time>
      </trkpt>
      <trkpt lat="43.415752" lon="-2.832051">
        <ele>193.221</ele>
        <time>2019-06-15T19:37:50Z</time>
      </trkpt>
      <trkpt lat="43.415832" lon="-2.831947">
        <ele>193.008</ele>
        <time>2019-06-15T19:37:51Z</time>
      </trkpt>
      <trkpt lat="43.415950" lon="-2.831871">
        <ele>192.659</ele>
        <time>2019-06-15T19:37:52Z</time>
      </trkpt>
      <trkpt lat="43.416074" lon="-2.831840">
        <ele>193.023</ele>
        <time>2019-06-15T19:37:53Z</time>
      </trkpt>
      <trkpt lat="43.416181" lon="-2.831828">
        <ele>194.862</ele>
        <time>2019-06-15T19:37:54Z</time>
      </trkpt>
      <trkpt lat="43.416269" lon="-2.831830">
        <ele>197.161</ele>
        <time>2019-06-15T19:37:55Z</time>
      </trkpt>
      <trkpt lat="43.416394" lon="-2.831759">
        <ele>198.540</ele>
        <time>2019-06-15T19:37:56Z</time>
      </trkpt>
      <trkpt lat="43.416509" lon="-2.831712">
        <ele>200.921</ele>
        <time>2019-06-15T19:37:57Z</time>
      </trkpt>
      <trkpt lat="43.416608" lon="-2.831587">
        <ele>201.480</ele>
        <time>2019-06-15T19:37:58Z</time>
      </trkpt>
      <trkpt lat="43.416719" lon="-2.831490">
        <ele>202.454</ele>
        <time>2019-06-15T19:37:59Z</time>
      </trkpt>
      <trkpt lat="43.416866" lon="-2.831409">
        <ele>203.871</ele>
        <time>2019-06-15T19:38:00Z</time>
      </trkpt>
      <trkpt lat="43.417005" lon="-2.831330">
        <ele>205.041</ele>
        <time>2019-06-15T19:38:01Z</time>
      </trkpt>
      <trkpt lat="43.417155" lon="-2.831290">
        <ele>206.715</ele>
        <time>2019-06-15T19:38:02Z</time>
      </trkpt>
      <trkpt lat="43.417302" lon="-2.831246">
        <ele>207.508</ele>
        <time>2019-06-15T19:38:03Z</time>
      </trkpt>
      <trkpt lat="43.417442" lon="-2.831295">
        <ele>209.680</ele>
        <time>2019-06-15T19:38:04Z</time>
      </trkpt>
      <trkpt lat="43.417557" lon="-2.831321">
        <ele>210.194</ele>
        <time>2019-06-15T19:38:05Z</time>
      </trkpt>
      <trkpt lat="43.417668" lon="-2.831346">
        <ele>209.833</ele>
        <time>2019-06-15T19:38:06Z</time>
      </trkpt>
      <trkpt lat="43.417750" lon="-2.831438">
        <ele>211.692</ele>
        <time>2019-06-15T19:38:07Z</time>
      </trkpt>
      <trkpt lat="43.417829" lon="-2.831523">
        <ele>213.941</ele>
        <time>2019-06-15T19:38:08Z</time>
      </trkpt>
      <trkpt lat="43.417931" lon="-2.831609">
        <ele>216.752</ele>
        <time>2019-06-15T19:38:09Z</time>
      </trkpt>
      <trkpt lat="43.418041" lon="-2.831652">
        <ele>218.471</ele>
        <time>2019-06-15T19:38:10Z</time>
      </trkpt>
      <trkpt lat="43.418153" lon="-2.831691">
        <ele>221.985</ele>
        <time>2019-06-15T19:38:11Z</time>
      </trkpt>
      <trkpt lat="43.418300" lon="-2.831630">
        <ele>222.324</ele>
        <time>2019-06-15T19:38:12Z</time>
      </trkpt>
      <trkpt lat="43.418443" lon="-2.831555">
        <ele>223.104</ele>
        <time>2019-06-15T19:38:13Z</time>
      </trkpt>
      <trkpt lat="43.418586" lon="-2.831501">
        <ele>224.014</ele>
        <time>2019-06-15T19:38:14Z</time>
      </trkpt>
      <trkpt lat="43.418768" lon="-2.831432">
        <ele>224.408</ele>
        <time>2019-06-15T19:38:15Z</time>
      </trkpt>
      <trkpt lat="43.418923" lon="-2.831405">
        <ele>226.565</ele>
        <time>2019-06-15T19:38:16Z</time>
      </trkpt>
      <trkpt lat="43.419071" lon="-2.831338">
        <ele>227.679</ele>
        <time>2019-06-15T19:38:17Z</time>
      </trkpt>
      <trkpt lat="43.419247" lon="-2.831328">
        <ele>229.018</ele>
        <time>2019-06-15T19:38:18Z</time>
      </trkpt>
      <trkpt lat="43.419422" lon="-2.831320">
        <ele>227.687</ele>
        <time>2019-06-15T19:38:19Z</time>
      </trkpt>
      <trkpt lat="43.419613" lon="-2.831366">
        <ele>230.036</ele>
        <time>2019-06-15T19:38:20Z</time>
      </trkpt>
      <trkpt lat="43.419808" lon="-2.831421">
        <ele>232.917</ele>
        <time>2019-06-15T19:38:21Z</time>
      </trkpt>
      <trkpt lat="43.419984" lon="-2.831466">
        <ele>235.536</ele>
        <time>2019-06-15T19:38:22Z</time>
      </trkpt>
      <trkpt lat="43.420130" lon="-2.831469">
        <ele>235.580</ele>
        <time>2019-06-15T19:38:23Z</time>
      </trkpt>
      <trkpt lat="43.420255" lon="-2.831467">
        <ele>235.267</ele>
        <time>2019-06-15T19:38:24Z</time>
      </trkpt>
      <trkpt lat="43.420402" lon="-2.831466">
        <ele>237.581</ele>
        <time>2019-06-15T19:38:25Z</time>
      </trkpt>
      <trkpt lat="43.420555" lon="-2.831381">
        <ele>236.719</ele>
        <time>2019-06-15T19:38:26Z</time>
      </trkpt>
      <trkpt lat="43.420689" lon="-2.831287">
        <ele>238.808</ele>
        <time>2019-06-15T19:38:27Z</time>
      </trkpt>
      <trkpt lat="43.420827" lon="-2.831161">
        <ele>239.679</ele>
        <time>2019-06-15T19:38:28Z</time>
      </trkpt>
      <trkpt lat="43.420957" lon="-2.831043">
        <ele>240.493</ele>
        <time>2019-06-15T19:38:29Z</time>
      </trkpt>
      <trkpt lat="43.421097" lon="-2.830937">
        <ele>241.912</ele>
        <time>2019-06-15T19:38:30Z</time>
      </trkpt>
      <trkpt lat="43.421235" lon="-2.830850">
        <ele>241.861</ele>
        <time>2019-06-15T19:38:31Z</time>
      </trkpt>
      <trkpt lat="43.421366" lon="-2.830812">
        <ele>242.960</ele>
        <time>2019-06-15T19:38:32Z</time>
      </trkpt>
      <trkpt lat="43.421478" lon="-2.830781">
        <ele>242.981</ele>
        <time>2019-06-15T19:38:33Z</time>
      </trkpt>
      <trkpt lat="43.421571" lon="-2.830746">
        <ele>242.540</ele>
        <time>2019-06-15T19:38:34Z</time>
      </trkpt>
      <trkpt lat="43.421637" lon="-2.830710">
        <ele>241.894</ele>
        <time>2019-06-15T19:38:35Z</time>
      </trkpt>
      <trkpt lat="43.421695" lon="-2.830693">
        <ele>241.364</ele>
        <time>2019-06-15T19:38:36Z</time>
      </trkpt>
      <trkpt lat="43.421744" lon="-2.830700">
        <ele>241.306</ele>
        <time>2019-06-15T19:38:37Z</time>
      </trkpt>
      <trkpt lat="43.421807" lon="-2.830736">
        <ele>242.316</ele>
        <time>2019-06-15T19:38:43Z</time>
      </trkpt>
      <trkpt lat="43.421865" lon="-2.830783">
        <ele>244.008</ele>
        <time>2019-06-15T19:38:44Z</time>
      </trkpt>
      <trkpt lat="43.421939" lon="-2.830822">
        <ele>245.559</ele>
        <time>2019-06-15T19:38:45Z</time>
      </trkpt>
      <trkpt lat="43.422049" lon="-2.830878">
        <ele>245.783</ele>
        <time>2019-06-15T19:38:46Z</time>
      </trkpt>
      <trkpt lat="43.422152" lon="-2.830957">
        <ele>246.732</ele>
        <time>2019-06-15T19:38:47Z</time>
      </trkpt>
      <trkpt lat="43.422246" lon="-2.831043">
        <ele>247.881</ele>
        <time>2019-06-15T19:38:48Z</time>
      </trkpt>
      <trkpt lat="43.422357" lon="-2.831150">
        <ele>248.690</ele>
        <time>2019-06-15T19:38:49Z</time>
      </trkpt>
      <trkpt lat="43.422466" lon="-2.831266">
        <ele>249.261</ele>
        <time>2019-06-15T19:38:50Z</time>
      </trkpt>
      <trkpt lat="43.422596" lon="-2.831389">
        <ele>249.690</ele>
        <time>2019-06-15T19:38:51Z</time>
      </trkpt>
      <trkpt lat="43.422715" lon="-2.831515">
        <ele>250.584</ele>
        <time>2019-06-15T19:38:52Z</time>
      </trkpt>
      <trkpt lat="43.422873" lon="-2.831611">
        <ele>250.657</ele>
        <time>2019-06-15T19:38:53Z</time>
      </trkpt>
      <trkpt lat="43.423007" lon="-2.831718">
        <ele>253.600</ele>
        <time>2019-06-15T19:38:54Z</time>
      </trkpt>
      <trkpt lat="43.423190" lon="-2.831803">
        <ele>254.020</ele>
        <time>2019-06-15T19:38:55Z</time>
      </trkpt>
      <trkpt lat="43.423358" lon="-2.831870">
        <ele>252.608</ele>
        <time>2019-06-15T19:38:56Z</time>
      </trkpt>
      <trkpt lat="43.423507" lon="-2.831950">
        <ele>253.438</ele>
        <time>2019-06-15T19:38:57Z</time>
      </trkpt>
      <trkpt lat="43.423646" lon="-2.832021">
        <ele>255.072</ele>
        <time>2019-06-15T19:38:58Z</time>
      </trkpt>
      <trkpt lat="43.423776" lon="-2.832072">
        <ele>256.611</ele>
        <time>2019-06-15T19:38:59Z</time>
      </trkpt>
      <trkpt lat="43.423906" lon="-2.832108">
        <ele>257.440</ele>
        <time>2019-06-15T19:39:00Z</time>
      </trkpt>
      <trkpt lat="43.424031" lon="-2.832088">
        <ele>258.799</ele>
        <time>2019-06-15T19:39:01Z</time>
      </trkpt>
      <trkpt lat="43.424145" lon="-2.831974">
        <ele>256.790</ele>
        <time>2019-06-15T19:39:02Z</time>
      </trkpt>
      <trkpt lat="43.424259" lon="-2.831848">
        <ele>257.399</ele>
        <time>2019-06-15T19:39:03Z</time>
      </trkpt>
      <trkpt lat="43.424352" lon="-2.831693">
        <ele>256.743</ele>
        <time>2019-06-15T19:39:04Z</time>
      </trkpt>
      <trkpt lat="43.424470" lon="-2.831535">
        <ele>257.132</ele>
        <time>2019-06-15T19:39:05Z</time>
      </trkpt>
      <trkpt lat="43.424587" lon="-2.831360">
        <ele>256.392</ele>
        <time>2019-06-15T19:39:06Z</time>
      </trkpt>
      <trkpt lat="43.424715" lon="-2.831193">
        <ele>256.511</ele>
        <time>2019-06-15T19:39:07Z</time>
      </trkpt>
      <trkpt lat="43.424809" lon="-2.831031">
        <ele>256.608</ele>
        <time>2019-06-15T19:39:08Z</time>
      </trkpt>
      <trkpt lat="43.424912" lon="-2.830882">
        <ele>257.076</ele>
        <time>2019-06-15T19:39:09Z</time>
      </trkpt>
      <trkpt lat="43.425014" lon="-2.830730">
        <ele>257.720</ele>
        <time>2019-06-15T19:39:10Z</time>
      </trkpt>
      <trkpt lat="43.425115" lon="-2.830594">
        <ele>259.029</ele>
        <time>2019-06-15T19:39:11Z</time>
      </trkpt>
      <trkpt lat="43.425211" lon="-2.830469">
        <ele>259.158</ele>
        <time>2019-06-15T19:39:12Z</time>
      </trkpt>
      <trkpt lat="43.425312" lon="-2.830370">
        <ele>259.147</ele>
        <time>2019-06-15T19:39:13Z</time>
      </trkpt>
      <trkpt lat="43.425404" lon="-2.830302">
        <ele>258.588</ele>
        <time>2019-06-15T19:39:14Z</time>
      </trkpt>
      <trkpt lat="43.425512" lon="-2.830269">
        <ele>259.137</ele>
        <time>2019-06-15T19:39:15Z</time>
      </trkpt>
      <trkpt lat="43.425617" lon="-2.830287">
        <ele>259.391</ele>
        <time>2019-06-15T19:39:16Z</time>
      </trkpt>
      <trkpt lat="43.425714" lon="-2.830342">
        <ele>258.991</ele>
        <time>2019-06-15T19:39:17Z</time>
      </trkpt>
      <trkpt lat="43.425810" lon="-2.830434">
        <ele>258.381</ele>
        <time>2019-06-15T19:39:18Z</time>
      </trkpt>
      <trkpt lat="43.425877" lon="-2.830554">
        <ele>256.219</ele>
        <time>2019-06-15T19:39:19Z</time>
      </trkpt>
      <trkpt lat="43.425922" lon="-2.830687">
        <ele>253.708</ele>
        <time>2019-06-15T19:39:20Z</time>
      </trkpt>
      <trkpt lat="43.425925" lon="-2.830833">
        <ele>254.142</ele>
        <time>2019-06-15T19:39:21Z</time>
      </trkpt>
      <trkpt lat="43.425893" lon="-2.830980">
        <ele>254.776</ele>
        <time>2019-06-15T19:39:22Z</time>
      </trkpt>
      <trkpt lat="43.425828" lon="-2.831134">
        <ele>257.825</ele>
        <time>2019-06-15T19:39:23Z</time>
      </trkpt>
      <trkpt lat="43.425743" lon="-2.831282">
        <ele>258.754</ele>
        <time>2019-06-15T19:39:24Z</time>
      </trkpt>
      <trkpt lat="43.425652" lon="-2.831440">
        <ele>259.393</ele>
        <time>2019-06-15T19:39:25Z</time>
      </trkpt>
      <trkpt lat="43.425555" lon="-2.831608">
        <ele>260.354</ele>
        <time>2019-06-15T19:39:26Z</time>
      </trkpt>
      <trkpt lat="43.425455" lon="-2.831774">
        <ele>261.613</ele>
        <time>2019-06-15T19:39:27Z</time>
      </trkpt>
      <trkpt lat="43.425349" lon="-2.831966">
        <ele>262.357</ele>
        <time>2019-06-15T19:39:28Z</time>
      </trkpt>
      <trkpt lat="43.425253" lon="-2.832168">
        <ele>263.094</ele>
        <time>2019-06-15T19:39:29Z</time>
      </trkpt>
      <trkpt lat="43.425144" lon="-2.832357">
        <ele>263.157</ele>
        <time>2019-06-15T19:39:30Z</time>
      </trkpt>
      <trkpt lat="43.425041" lon="-2.832543">
        <ele>263.422</ele>
        <time>2019-06-15T19:39:31Z</time>
      </trkpt>
      <trkpt lat="43.424945" lon="-2.832714">
        <ele>265.108</ele>
        <time>2019-06-15T19:39:32Z</time>
      </trkpt>
      <trkpt lat="43.424850" lon="-2.832880">
        <ele>267.062</ele>
        <time>2019-06-15T19:39:33Z</time>
      </trkpt>
      <trkpt lat="43.424799" lon="-2.833021">
        <ele>266.856</ele>
        <time>2019-06-15T19:39:34Z</time>
      </trkpt>
      <trkpt lat="43.424750" lon="-2.833192">
        <ele>267.525</ele>
        <time>2019-06-15T19:39:35Z</time>
      </trkpt>
      <trkpt lat="43.424713" lon="-2.833353">
        <ele>268.784</ele>
        <time>2019-06-15T19:39:36Z</time>
      </trkpt>
      <trkpt lat="43.424782" lon="-2.833513">
        <ele>267.053</ele>
        <time>2019-06-15T19:39:37Z</time>
      </trkpt>
      <trkpt lat="43.424822" lon="-2.833689">
        <ele>267.444</ele>
        <time>2019-06-15T19:39:38Z</time>
      </trkpt>
      <trkpt lat="43.424901" lon="-2.833864">
        <ele>266.923</ele>
        <time>2019-06-15T19:39:39Z</time>
      </trkpt>
      <trkpt lat="43.424954" lon="-2.834058">
        <ele>268.617</ele>
        <time>2019-06-15T19:39:40Z</time>
      </trkpt>
      <trkpt lat="43.425006" lon="-2.834257">
        <ele>268.663</ele>
        <time>2019-06-15T19:39:41Z</time>
      </trkpt>
      <trkpt lat="43.425038" lon="-2.834463">
        <ele>269.044</ele>
        <time>2019-06-15T19:39:42Z</time>
      </trkpt>
      <trkpt lat="43.425065" lon="-2.834688">
        <ele>272.018</ele>
        <time>2019-06-15T19:39:43Z</time>
      </trkpt>
      <trkpt lat="43.425100" lon="-2.834897">
        <ele>274.008</ele>
        <time>2019-06-15T19:39:44Z</time>
      </trkpt>
      <trkpt lat="43.425123" lon="-2.835071">
        <ele>275.699</ele>
        <time>2019-06-15T19:39:45Z</time>
      </trkpt>
      <trkpt lat="43.425164" lon="-2.835257">
        <ele>276.173</ele>
        <time>2019-06-15T19:39:46Z</time>
      </trkpt>
      <trkpt lat="43.425210" lon="-2.835433">
        <ele>276.442</ele>
        <time>2019-06-15T19:39:47Z</time>
      </trkpt>
      <trkpt lat="43.425296" lon="-2.835621">
        <ele>276.271</ele>
        <time>2019-06-15T19:39:48Z</time>
      </trkpt>
      <trkpt lat="43.425401" lon="-2.835811">
        <ele>275.780</ele>
        <time>2019-06-15T19:39:49Z</time>
      </trkpt>
      <trkpt lat="43.425491" lon="-2.836008">
        <ele>277.391</ele>
        <time>2019-06-15T19:39:50Z</time>
      </trkpt>
      <trkpt lat="43.425576" lon="-2.836211">
        <ele>278.030</ele>
        <time>2019-06-15T19:39:51Z</time>
      </trkpt>
      <trkpt lat="43.425664" lon="-2.836400">
        <ele>278.664</ele>
        <time>2019-06-15T19:39:52Z</time>
      </trkpt>
      <trkpt lat="43.425752" lon="-2.836580">
        <ele>281.117</ele>
        <time>2019-06-15T19:39:53Z</time>
      </trkpt>
      <trkpt lat="43.425843" lon="-2.836747">
        <ele>280.187</ele>
        <time>2019-06-15T19:39:54Z</time>
      </trkpt>
      <trkpt lat="43.425916" lon="-2.836888">
        <ele>281.915</ele>
        <time>2019-06-15T19:39:55Z</time>
      </trkpt>
      <trkpt lat="43.425988" lon="-2.837026">
        <ele>282.708</ele>
        <time>2019-06-15T19:39:56Z</time>
      </trkpt>
      <trkpt lat="43.426034" lon="-2.837165">
        <ele>283.294</ele>
        <time>2019-06-15T19:39:57Z</time>
      </trkpt>
      <trkpt lat="43.426058" lon="-2.837300">
        <ele>282.918</ele>
        <time>2019-06-15T19:39:58Z</time>
      </trkpt>
      <trkpt lat="43.426065" lon="-2.837428">
        <ele>282.317</ele>
        <time>2019-06-15T19:39:59Z</time>
      </trkpt>
      <trkpt lat="43.426064" lon="-2.837556">
        <ele>281.186</ele>
        <time>2019-06-15T19:40:00Z</time>
      </trkpt>
      <trkpt lat="43.426009" lon="-2.837697">
        <ele>279.585</ele>
        <time>2019-06-15T19:40:01Z</time>
      </trkpt>
      <trkpt lat="43.425938" lon="-2.837844">
        <ele>277.756</ele>
        <time>2019-06-15T19:40:02Z</time>
      </trkpt>
      <trkpt lat="43.425869" lon="-2.837979">
        <ele>276.555</ele>
        <time>2019-06-15T19:40:03Z</time>
      </trkpt>
      <trkpt lat="43.425736" lon="-2.838158">
        <ele>274.569</ele>
        <time>2019-06-15T19:40:04Z</time>
      </trkpt>
      <trkpt lat="43.425625" lon="-2.838324">
        <ele>272.551</ele>
        <time>2019-06-15T19:40:05Z</time>
      </trkpt>
      <trkpt lat="43.425502" lon="-2.838490">
        <ele>272.501</ele>
        <time>2019-06-15T19:40:06Z</time>
      </trkpt>
      <trkpt lat="43.425389" lon="-2.838646">
        <ele>271.211</ele>
        <time>2019-06-15T19:40:07Z</time>
      </trkpt>
      <trkpt lat="43.425272" lon="-2.838793">
        <ele>271.008</ele>
        <time>2019-06-15T19:40:08Z</time>
      </trkpt>
      <trkpt lat="43.425149" lon="-2.838900">
        <ele>269.448</ele>
        <time>2019-06-15T19:40:09Z</time>
      </trkpt>
      <trkpt lat="43.425017" lon="-2.839012">
        <ele>267.862</ele>
        <time>2019-06-15T19:40:10Z</time>
      </trkpt>
      <trkpt lat="43.424866" lon="-2.839104">
        <ele>265.661</ele>
        <time>2019-06-15T19:40:11Z</time>
      </trkpt>
      <trkpt lat="43.424717" lon="-2.839186">
        <ele>262.360</ele>
        <time>2019-06-15T19:40:12Z</time>
      </trkpt>
      <trkpt lat="43.424521" lon="-2.839265">
        <ele>260.219</ele>
        <time>2019-06-15T19:40:13Z</time>
      </trkpt>
      <trkpt lat="43.424310" lon="-2.839365">
        <ele>257.670</ele>
        <time>2019-06-15T19:40:14Z</time>
      </trkpt>
      <trkpt lat="43.424081" lon="-2.839415">
        <ele>257.529</ele>
        <time>2019-06-15T19:40:15Z</time>
      </trkpt>
      <trkpt lat="43.423875" lon="-2.839503">
        <ele>256.243</ele>
        <time>2019-06-15T19:40:16Z</time>
      </trkpt>
      <trkpt lat="43.423678" lon="-2.839597">
        <ele>255.145</ele>
        <time>2019-06-15T19:40:17Z</time>
      </trkpt>
      <trkpt lat="43.423487" lon="-2.839676">
        <ele>254.447</ele>
        <time>2019-06-15T19:40:18Z</time>
      </trkpt>
      <trkpt lat="43.423309" lon="-2.839738">
        <ele>253.611</ele>
        <time>2019-06-15T19:40:19Z</time>
      </trkpt>
      <trkpt lat="43.423118" lon="-2.839808">
        <ele>251.408</ele>
        <time>2019-06-15T19:40:20Z</time>
      </trkpt>
      <trkpt lat="43.422956" lon="-2.839905">
        <ele>250.147</ele>
        <time>2019-06-15T19:40:21Z</time>
      </trkpt>
      <trkpt lat="43.422802" lon="-2.839989">
        <ele>250.091</ele>
        <time>2019-06-15T19:40:22Z</time>
      </trkpt>
      <trkpt lat="43.422671" lon="-2.840058">
        <ele>249.430</ele>
        <time>2019-06-15T19:40:23Z</time>
      </trkpt>
      <trkpt lat="43.422573" lon="-2.840110">
        <ele>249.249</ele>
        <time>2019-06-15T19:40:24Z</time>
      </trkpt>
      <trkpt lat="43.422514" lon="-2.840189">
        <ele>248.838</ele>
        <time>2019-06-15T19:40:25Z</time>
      </trkpt>
      <trkpt lat="43.422456" lon="-2.840277">
        <ele>249.079</ele>
        <time>2019-06-15T19:40:26Z</time>
      </trkpt>
      <trkpt lat="43.422432" lon="-2.840394">
        <ele>248.918</ele>
        <time>2019-06-15T19:40:27Z</time>
      </trkpt>
      <trkpt lat="43.422395" lon="-2.840490">
        <ele>250.062</ele>
        <time>2019-06-15T19:40:28Z</time>
      </trkpt>
      <trkpt lat="43.422502" lon="-2.840651">
        <ele>246.359</ele>
        <time>2019-06-15T19:40:29Z</time>
      </trkpt>
      <trkpt lat="43.422547" lon="-2.840803">
        <ele>246.703</ele>
        <time>2019-06-15T19:40:30Z</time>
      </trkpt>
      <trkpt lat="43.422643" lon="-2.840992">
        <ele>246.523</ele>
        <time>2019-06-15T19:40:31Z</time>
      </trkpt>
      <trkpt lat="43.422725" lon="-2.841173">
        <ele>246.008</ele>
        <time>2019-06-15T19:40:32Z</time>
      </trkpt>
      <trkpt lat="43.422821" lon="-2.841362">
        <ele>244.048</ele>
        <time>2019-06-15T19:40:33Z</time>
      </trkpt>
      <trkpt lat="43.422944" lon="-2.841490">
        <ele>241.092</ele>
        <time>2019-06-15T19:40:34Z</time>
      </trkpt>
      <trkpt lat="43.423026" lon="-2.841669">
        <ele>240.331</ele>
        <time>2019-06-15T19:40:35Z</time>
      </trkpt>
      <trkpt lat="43.423111" lon="-2.841822">
        <ele>239.070</ele>
        <time>2019-06-15T19:40:36Z</time>
      </trkpt>
      <trkpt lat="43.423187" lon="-2.842007">
        <ele>238.989</ele>
        <time>2019-06-15T19:40:37Z</time>
      </trkpt>
      <trkpt lat="43.423285" lon="-2.842181">
        <ele>238.250</ele>
        <time>2019-06-15T19:40:38Z</time>
      </trkpt>
      <trkpt lat="43.423406" lon="-2.842310">
        <ele>236.739</ele>
        <time>2019-06-15T19:40:39Z</time>
      </trkpt>
      <trkpt lat="43.423522" lon="-2.842462">
        <ele>237.053</ele>
        <time>2019-06-15T19:40:40Z</time>
      </trkpt>
      <trkpt lat="43.423689" lon="-2.842554">
        <ele>234.269</ele>
        <time>2019-06-15T19:40:41Z</time>
      </trkpt>
      <trkpt lat="43.423833" lon="-2.842654">
        <ele>232.804</ele>
        <time>2019-06-15T19:40:42Z</time>
      </trkpt>
      <trkpt lat="43.423976" lon="-2.842763">
        <ele>232.324</ele>
        <time>2019-06-15T19:40:43Z</time>
      </trkpt>
      <trkpt lat="43.424137" lon="-2.842803">
        <ele>229.308</ele>
        <time>2019-06-15T19:40:44Z</time>
      </trkpt>
      <trkpt lat="43.424281" lon="-2.842894">
        <ele>226.849</ele>
        <time>2019-06-15T19:40:45Z</time>
      </trkpt>
      <trkpt lat="43.424375" lon="-2.843018">
        <ele>226.463</ele>
        <time>2019-06-15T19:40:46Z</time>
      </trkpt>
      <trkpt lat="43.424485" lon="-2.843132">
        <ele>223.852</ele>
        <time>2019-06-15T19:40:47Z</time>
      </trkpt>
      <trkpt lat="43.424583" lon="-2.843268">
        <ele>221.081</ele>
        <time>2019-06-15T19:40:48Z</time>
      </trkpt>
      <trkpt lat="43.424650" lon="-2.843360">
        <ele>219.090</ele>
        <time>2019-06-15T19:40:49Z</time>
      </trkpt>
      <trkpt lat="43.424723" lon="-2.843467">
        <ele>215.531</ele>
        <time>2019-06-15T19:40:50Z</time>
      </trkpt>
      <trkpt lat="43.424593" lon="-2.843761">
        <ele>218.180</ele>
        <time>2019-06-15T19:40:51Z</time>
      </trkpt>
      <trkpt lat="43.424528" lon="-2.843902">
        <ele>218.884</ele>
        <time>2019-06-15T19:40:52Z</time>
      </trkpt>
      <trkpt lat="43.424449" lon="-2.844042">
        <ele>218.949</ele>
        <time>2019-06-15T19:40:53Z</time>
      </trkpt>
      <trkpt lat="43.424329" lon="-2.844142">
        <ele>220.202</ele>
        <time>2019-06-15T19:40:54Z</time>
      </trkpt>
      <trkpt lat="43.424231" lon="-2.844217">
        <ele>221.022</ele>
        <time>2019-06-15T19:40:55Z</time>
      </trkpt>
      <trkpt lat="43.424052" lon="-2.844224">
        <ele>223.908</ele>
        <time>2019-06-15T19:40:56Z</time>
      </trkpt>
      <trkpt lat="43.423910" lon="-2.844225">
        <ele>225.357</ele>
        <time>2019-06-15T19:40:57Z</time>
      </trkpt>
      <trkpt lat="43.423755" lon="-2.844198">
        <ele>226.311</ele>
        <time>2019-06-15T19:40:58Z</time>
      </trkpt>
      <trkpt lat="43.423607" lon="-2.844198">
        <ele>226.370</ele>
        <time>2019-06-15T19:40:59Z</time>
      </trkpt>
      <trkpt lat="43.423453" lon="-2.844199">
        <ele>226.649</ele>
        <time>2019-06-15T19:41:00Z</time>
      </trkpt>
      <trkpt lat="43.423315" lon="-2.844207">
        <ele>226.638</ele>
        <time>2019-06-15T19:41:01Z</time>
      </trkpt>
      <trkpt lat="43.423183" lon="-2.844225">
        <ele>226.869</ele>
        <time>2019-06-15T19:41:02Z</time>
      </trkpt>
      <trkpt lat="43.423036" lon="-2.844287">
        <ele>226.488</ele>
        <time>2019-06-15T19:41:03Z</time>
      </trkpt>
      <trkpt lat="43.422913" lon="-2.844351">
        <ele>227.432</ele>
        <time>2019-06-15T19:41:04Z</time>
      </trkpt>
      <trkpt lat="43.422826" lon="-2.844408">
        <ele>227.974</ele>
        <time>2019-06-15T19:41:05Z</time>
      </trkpt>
      <trkpt lat="43.422719" lon="-2.844459">
        <ele>228.356</ele>
        <time>2019-06-15T19:41:06Z</time>
      </trkpt>
      <trkpt lat="43.422629" lon="-2.844514">
        <ele>227.921</ele>
        <time>2019-06-15T19:41:07Z</time>
      </trkpt>
      <trkpt lat="43.422548" lon="-2.844576">
        <ele>227.708</ele>
        <time>2019-06-15T19:41:08Z</time>
      </trkpt>
      <trkpt lat="43.422465" lon="-2.844635">
        <ele>228.290</ele>
        <time>2019-06-15T19:41:09Z</time>
      </trkpt>
      <trkpt lat="43.422501" lon="-2.844875">
        <ele>227.784</ele>
        <time>2019-06-15T19:41:10Z</time>
      </trkpt>
      <trkpt lat="43.422474" lon="-2.845020">
        <ele>231.863</ele>
        <time>2019-06-15T19:41:11Z</time>
      </trkpt>
      <trkpt lat="43.422621" lon="-2.845204">
        <ele>231.922</ele>
        <time>2019-06-15T19:41:12Z</time>
      </trkpt>
      <trkpt lat="43.422746" lon="-2.845314">
        <ele>229.011</ele>
        <time>2019-06-15T19:41:13Z</time>
      </trkpt>
      <trkpt lat="43.422827" lon="-2.845467">
        <ele>227.472</ele>
        <time>2019-06-15T19:41:14Z</time>
      </trkpt>
      <trkpt lat="43.422969" lon="-2.845630">
        <ele>223.971</ele>
        <time>2019-06-15T19:41:15Z</time>
      </trkpt>
      <trkpt lat="43.423075" lon="-2.845793">
        <ele>221.065</ele>
        <time>2019-06-15T19:41:16Z</time>
      </trkpt>
      <trkpt lat="43.423166" lon="-2.846005">
        <ele>220.652</ele>
        <time>2019-06-15T19:41:17Z</time>
      </trkpt>
      <trkpt lat="43.423316" lon="-2.846127">
        <ele>218.853</ele>
        <time>2019-06-15T19:41:18Z</time>
      </trkpt>
      <trkpt lat="43.423479" lon="-2.846219">
        <ele>216.308</ele>
        <time>2019-06-15T19:41:19Z</time>
      </trkpt>
      <trkpt lat="43.423611" lon="-2.846334">
        <ele>214.208</ele>
        <time>2019-06-15T19:41:20Z</time>
      </trkpt>
      <trkpt lat="43.423749" lon="-2.846443">
        <ele>211.788</ele>
        <time>2019-06-15T19:41:21Z</time>
      </trkpt>
      <trkpt lat="43.423822" lon="-2.846584">
        <ele>211.282</ele>
        <time>2019-06-15T19:41:22Z</time>
      </trkpt>
      <trkpt lat="43.423845" lon="-2.846734">
        <ele>211.581</ele>
        <time>2019-06-15T19:41:23Z</time>
      </trkpt>
      <trkpt lat="43.423902" lon="-2.846905">
        <ele>209.680</ele>
        <time>2019-06-15T19:41:24Z</time>
      </trkpt>
      <trkpt lat="43.423945" lon="-2.847077">
        <ele>207.239</ele>
        <time>2019-06-15T19:41:25Z</time>
      </trkpt>
      <trkpt lat="43.423952" lon="-2.847280">
        <ele>205.690</ele>
        <time>2019-06-15T19:41:26Z</time>
      </trkpt>
      <trkpt lat="43.423968" lon="-2.847493">
        <ele>204.079</ele>
        <time>2019-06-15T19:41:27Z</time>
      </trkpt>
      <trkpt lat="43.423989" lon="-2.847688">
        <ele>202.813</ele>
        <time>2019-06-15T19:41:28Z</time>
      </trkpt>
      <trkpt lat="43.424012" lon="-2.847873">
        <ele>202.058</ele>
        <time>2019-06-15T19:41:29Z</time>
      </trkpt>
      <trkpt lat="43.424065" lon="-2.847987">
        <ele>201.452</ele>
        <time>2019-06-15T19:41:30Z</time>
      </trkpt>
      <trkpt lat="43.424101" lon="-2.848134">
        <ele>203.217</ele>
        <time>2019-06-15T19:41:31Z</time>
      </trkpt>
      <trkpt lat="43.424250" lon="-2.848236">
        <ele>202.608</ele>
        <time>2019-06-15T19:41:32Z</time>
      </trkpt>
      <trkpt lat="43.424385" lon="-2.848283">
        <ele>200.538</ele>
        <time>2019-06-15T19:41:33Z</time>
      </trkpt>
      <trkpt lat="43.424486" lon="-2.848283">
        <ele>197.952</ele>
        <time>2019-06-15T19:41:34Z</time>
      </trkpt>
      <trkpt lat="43.424563" lon="-2.848351">
        <ele>196.141</ele>
        <time>2019-06-15T19:41:35Z</time>
      </trkpt>
      <trkpt lat="43.424633" lon="-2.848451">
        <ele>194.090</ele>
        <time>2019-06-15T19:41:36Z</time>
      </trkpt>
      <trkpt lat="43.424689" lon="-2.848586">
        <ele>192.849</ele>
        <time>2019-06-15T19:41:37Z</time>
      </trkpt>
      <trkpt lat="43.424727" lon="-2.848739">
        <ele>191.320</ele>
        <time>2019-06-15T19:41:38Z</time>
      </trkpt>
      <trkpt lat="43.424705" lon="-2.848993">
        <ele>191.019</ele>
        <time>2019-06-15T19:41:39Z</time>
      </trkpt>
      <trkpt lat="43.424715" lon="-2.849203">
        <ele>190.533</ele>
        <time>2019-06-15T19:41:40Z</time>
      </trkpt>
      <trkpt lat="43.424730" lon="-2.849439">
        <ele>191.841</ele>
        <time>2019-06-15T19:41:41Z</time>
      </trkpt>
      <trkpt lat="43.424744" lon="-2.849671">
        <ele>191.581</ele>
        <time>2019-06-15T19:41:42Z</time>
      </trkpt>
      <trkpt lat="43.424758" lon="-2.849893">
        <ele>191.209</ele>
        <time>2019-06-15T19:41:43Z</time>
      </trkpt>
      <trkpt lat="43.424777" lon="-2.850128">
        <ele>190.408</ele>
        <time>2019-06-15T19:41:44Z</time>
      </trkpt>
      <trkpt lat="43.424786" lon="-2.850362">
        <ele>189.677</ele>
        <time>2019-06-15T19:41:45Z</time>
      </trkpt>
      <trkpt lat="43.424787" lon="-2.850582">
        <ele>189.291</ele>
        <time>2019-06-15T19:41:46Z</time>
      </trkpt>
      <trkpt lat="43.424786" lon="-2.850824">
        <ele>188.040</ele>
        <time>2019-06-15T19:41:47Z</time>
      </trkpt>
      <trkpt lat="43.424783" lon="-2.851057">
        <ele>186.299</ele>
        <time>2019-06-15T19:41:48Z</time>
      </trkpt>
      <trkpt lat="43.424758" lon="-2.851304">
        <ele>185.328</ele>
        <time>2019-06-15T19:41:49Z</time>
      </trkpt>
      <trkpt lat="43.424739" lon="-2.851545">
        <ele>183.799</ele>
        <time>2019-06-15T19:41:50Z</time>
      </trkpt>
      <trkpt lat="43.424723" lon="-2.851793">
        <ele>183.918</ele>
        <time>2019-06-15T19:41:51Z</time>
      </trkpt>
      <trkpt lat="43.424698" lon="-2.852028">
        <ele>185.772</ele>
        <time>2019-06-15T19:41:52Z</time>
      </trkpt>
      <trkpt lat="43.424678" lon="-2.852231">
        <ele>186.734</ele>
        <time>2019-06-15T19:41:53Z</time>
      </trkpt>
      <trkpt lat="43.424654" lon="-2.852457">
        <ele>185.755</ele>
        <time>2019-06-15T19:41:54Z</time>
      </trkpt>
      <trkpt lat="43.424636" lon="-2.852663">
        <ele>184.710</ele>
        <time>2019-06-15T19:41:55Z</time>
      </trkpt>
      <trkpt lat="43.424616" lon="-2.852873">
        <ele>183.108</ele>
        <time>2019-06-15T19:41:56Z</time>
      </trkpt>
      <trkpt lat="43.424597" lon="-2.853052">
        <ele>181.236</ele>
        <time>2019-06-15T19:41:57Z</time>
      </trkpt>
      <trkpt lat="43.424578" lon="-2.853241">
        <ele>179.040</ele>
        <time>2019-06-15T19:41:58Z</time>
      </trkpt>
      <trkpt lat="43.424573" lon="-2.853430">
        <ele>177.669</ele>
        <time>2019-06-15T19:41:59Z</time>
      </trkpt>
      <trkpt lat="43.424577" lon="-2.853619">
        <ele>177.158</ele>
        <time>2019-06-15T19:42:00Z</time>
      </trkpt>
      <trkpt lat="43.424588" lon="-2.853794">
        <ele>177.347</ele>
        <time>2019-06-15T19:42:01Z</time>
      </trkpt>
      <trkpt lat="43.424705" lon="-2.853859">
        <ele>179.118</ele>
        <time>2019-06-15T19:42:02Z</time>
      </trkpt>
      <trkpt lat="43.424792" lon="-2.853979">
        <ele>180.417</ele>
        <time>2019-06-15T19:42:03Z</time>
      </trkpt>
      <trkpt lat="43.424886" lon="-2.854085">
        <ele>181.841</ele>
        <time>2019-06-15T19:42:04Z</time>
      </trkpt>
      <trkpt lat="43.424974" lon="-2.854190">
        <ele>184.273</ele>
        <time>2019-06-15T19:42:05Z</time>
      </trkpt>
      <trkpt lat="43.425095" lon="-2.854167">
        <ele>185.085</ele>
        <time>2019-06-15T19:42:06Z</time>
      </trkpt>
      <trkpt lat="43.425324" lon="-2.853994">
        <ele>183.113</ele>
        <time>2019-06-15T19:42:07Z</time>
      </trkpt>
      <trkpt lat="43.425472" lon="-2.853966">
        <ele>183.808</ele>
        <time>2019-06-15T19:42:08Z</time>
      </trkpt>
      <trkpt lat="43.425645" lon="-2.853910">
        <ele>184.120</ele>
        <time>2019-06-15T19:42:09Z</time>
      </trkpt>
      <trkpt lat="43.425807" lon="-2.853871">
        <ele>184.564</ele>
        <time>2019-06-15T19:42:10Z</time>
      </trkpt>
      <trkpt lat="43.425958" lon="-2.853841">
        <ele>184.943</ele>
        <time>2019-06-15T19:42:11Z</time>
      </trkpt>
      <trkpt lat="43.426086" lon="-2.853814">
        <ele>185.362</ele>
        <time>2019-06-15T19:42:12Z</time>
      </trkpt>
      <trkpt lat="43.426204" lon="-2.853806">
        <ele>185.691</ele>
        <time>2019-06-15T19:42:13Z</time>
      </trkpt>
      <trkpt lat="43.426318" lon="-2.853805">
        <ele>185.812</ele>
        <time>2019-06-15T19:42:14Z</time>
      </trkpt>
      <trkpt lat="43.426436" lon="-2.853830">
        <ele>186.031</ele>
        <time>2019-06-15T19:42:15Z</time>
      </trkpt>
      <trkpt lat="43.426552" lon="-2.853869">
        <ele>186.095</ele>
        <time>2019-06-15T19:42:16Z</time>
      </trkpt>
      <trkpt lat="43.426639" lon="-2.853939">
        <ele>186.173</ele>
        <time>2019-06-15T19:42:17Z</time>
      </trkpt>
      <trkpt lat="43.426709" lon="-2.854072">
        <ele>185.885</ele>
        <time>2019-06-15T19:42:18Z</time>
      </trkpt>
      <trkpt lat="43.426763" lon="-2.854222">
        <ele>185.513</ele>
        <time>2019-06-15T19:42:19Z</time>
      </trkpt>
      <trkpt lat="43.426816" lon="-2.854379">
        <ele>184.708</ele>
        <time>2019-06-15T19:42:20Z</time>
      </trkpt>
      <trkpt lat="43.426843" lon="-2.854534">
        <ele>183.660</ele>
        <time>2019-06-15T19:42:21Z</time>
      </trkpt>
      <trkpt lat="43.426812" lon="-2.854751">
        <ele>182.174</ele>
        <time>2019-06-15T19:42:22Z</time>
      </trkpt>
      <trkpt lat="43.426781" lon="-2.854950">
        <ele>180.343</ele>
        <time>2019-06-15T19:42:23Z</time>
      </trkpt>
      <trkpt lat="43.426741" lon="-2.855163">
        <ele>178.192</ele>
        <time>2019-06-15T19:42:24Z</time>
      </trkpt>
      <trkpt lat="43.426695" lon="-2.855386">
        <ele>176.231</ele>
        <time>2019-06-15T19:42:25Z</time>
      </trkpt>
      <trkpt lat="43.426660" lon="-2.855582">
        <ele>175.062</ele>
        <time>2019-06-15T19:42:26Z</time>
      </trkpt>
      <trkpt lat="43.426626" lon="-2.855789">
        <ele>174.141</ele>
        <time>2019-06-15T19:42:27Z</time>
      </trkpt>
      <trkpt lat="43.426606" lon="-2.855977">
        <ele>172.585</ele>
        <time>2019-06-15T19:42:28Z</time>
      </trkpt>
      <trkpt lat="43.426603" lon="-2.856198">
        <ele>170.765</ele>
        <time>2019-06-15T19:42:29Z</time>
      </trkpt>
      <trkpt lat="43.426619" lon="-2.856352">
        <ele>169.668</ele>
        <time>2019-06-15T19:42:30Z</time>
      </trkpt>
      <trkpt lat="43.426639" lon="-2.856556">
        <ele>170.214</ele>
        <time>2019-06-15T19:42:31Z</time>
      </trkpt>
      <trkpt lat="43.426713" lon="-2.856757">
        <ele>169.008</ele>
        <time>2019-06-15T19:42:32Z</time>
      </trkpt>
      <trkpt lat="43.426763" lon="-2.856963">
        <ele>169.219</ele>
        <time>2019-06-15T19:42:33Z</time>
      </trkpt>
      <trkpt lat="43.426830" lon="-2.857183">
        <ele>167.143</ele>
        <time>2019-06-15T19:42:34Z</time>
      </trkpt>
      <trkpt lat="43.426972" lon="-2.857355">
        <ele>162.552</ele>
        <time>2019-06-15T19:42:35Z</time>
      </trkpt>
      <trkpt lat="43.427082" lon="-2.857539">
        <ele>160.311</ele>
        <time>2019-06-15T19:42:36Z</time>
      </trkpt>
      <trkpt lat="43.427189" lon="-2.857744">
        <ele>161.170</ele>
        <time>2019-06-15T19:42:37Z</time>
      </trkpt>
      <trkpt lat="43.427288" lon="-2.857937">
        <ele>160.051</ele>
        <time>2019-06-15T19:42:38Z</time>
      </trkpt>
      <trkpt lat="43.427407" lon="-2.858110">
        <ele>159.350</ele>
        <time>2019-06-15T19:42:39Z</time>
      </trkpt>
      <trkpt lat="43.427490" lon="-2.858280">
        <ele>158.854</ele>
        <time>2019-06-15T19:42:40Z</time>
      </trkpt>
      <trkpt lat="43.427563" lon="-2.858438">
        <ele>158.032</ele>
        <time>2019-06-15T19:42:41Z</time>
      </trkpt>
      <trkpt lat="43.427634" lon="-2.858593">
        <ele>157.092</ele>
        <time>2019-06-15T19:42:42Z</time>
      </trkpt>
      <trkpt lat="43.427686" lon="-2.858772">
        <ele>155.011</ele>
        <time>2019-06-15T19:42:43Z</time>
      </trkpt>
      <trkpt lat="43.427730" lon="-2.858951">
        <ele>153.308</ele>
        <time>2019-06-15T19:42:44Z</time>
      </trkpt>
      <trkpt lat="43.427716" lon="-2.859152">
        <ele>152.536</ele>
        <time>2019-06-15T19:42:45Z</time>
      </trkpt>
      <trkpt lat="43.427708" lon="-2.859355">
        <ele>150.570</ele>
        <time>2019-06-15T19:42:46Z</time>
      </trkpt>
      <trkpt lat="43.427686" lon="-2.859550">
        <ele>148.539</ele>
        <time>2019-06-15T19:42:47Z</time>
      </trkpt>
      <trkpt lat="43.427645" lon="-2.859726">
        <ele>147.378</ele>
        <time>2019-06-15T19:42:48Z</time>
      </trkpt>
      <trkpt lat="43.427604" lon="-2.859885">
        <ele>145.997</ele>
        <time>2019-06-15T19:42:49Z</time>
      </trkpt>
      <trkpt lat="43.427524" lon="-2.860045">
        <ele>146.148</ele>
        <time>2019-06-15T19:42:50Z</time>
      </trkpt>
      <trkpt lat="43.427440" lon="-2.860202">
        <ele>146.197</ele>
        <time>2019-06-15T19:42:51Z</time>
      </trkpt>
      <trkpt lat="43.427318" lon="-2.860314">
        <ele>145.861</ele>
        <time>2019-06-15T19:42:52Z</time>
      </trkpt>
      <trkpt lat="43.427192" lon="-2.860420">
        <ele>145.048</ele>
        <time>2019-06-15T19:42:53Z</time>
      </trkpt>
      <trkpt lat="43.427063" lon="-2.860502">
        <ele>143.861</ele>
        <time>2019-06-15T19:42:54Z</time>
      </trkpt>
      <trkpt lat="43.426937" lon="-2.860586">
        <ele>142.217</ele>
        <time>2019-06-15T19:42:55Z</time>
      </trkpt>
      <trkpt lat="43.426795" lon="-2.860626">
        <ele>140.108</ele>
        <time>2019-06-15T19:42:56Z</time>
      </trkpt>
      <trkpt lat="43.426696" lon="-2.860559">
        <ele>141.197</ele>
        <time>2019-06-15T19:42:57Z</time>
      </trkpt>
      <trkpt lat="43.426504" lon="-2.860518">
        <ele>139.431</ele>
        <time>2019-06-15T19:42:58Z</time>
      </trkpt>
      <trkpt lat="43.426326" lon="-2.860495">
        <ele>137.690</ele>
        <time>2019-06-15T19:42:59Z</time>
      </trkpt>
      <trkpt lat="43.426147" lon="-2.860453">
        <ele>136.659</ele>
        <time>2019-06-15T19:43:00Z</time>
      </trkpt>
      <trkpt lat="43.425953" lon="-2.860430">
        <ele>136.228</ele>
        <time>2019-06-15T19:43:01Z</time>
      </trkpt>
      <trkpt lat="43.425761" lon="-2.860482">
        <ele>134.799</ele>
        <time>2019-06-15T19:43:02Z</time>
      </trkpt>
      <trkpt lat="43.425592" lon="-2.860535">
        <ele>132.898</ele>
        <time>2019-06-15T19:43:03Z</time>
      </trkpt>
      <trkpt lat="43.425427" lon="-2.860604">
        <ele>130.622</ele>
        <time>2019-06-15T19:43:04Z</time>
      </trkpt>
      <trkpt lat="43.425248" lon="-2.860666">
        <ele>129.121</ele>
        <time>2019-06-15T19:43:05Z</time>
      </trkpt>
      <trkpt lat="43.425097" lon="-2.860727">
        <ele>128.341</ele>
        <time>2019-06-15T19:43:06Z</time>
      </trkpt>
      <trkpt lat="43.424972" lon="-2.860777">
        <ele>127.705</ele>
        <time>2019-06-15T19:43:07Z</time>
      </trkpt>
      <trkpt lat="43.424852" lon="-2.860817">
        <ele>126.708</ele>
        <time>2019-06-15T19:43:08Z</time>
      </trkpt>
      <trkpt lat="43.424795" lon="-2.860799">
        <ele>126.895</ele>
        <time>2019-06-15T19:43:09Z</time>
      </trkpt>
      <trkpt lat="43.424686" lon="-2.860805">
        <ele>125.969</ele>
        <time>2019-06-15T19:43:10Z</time>
      </trkpt>
      <trkpt lat="43.424605" lon="-2.860639">
        <ele>126.668</ele>
        <time>2019-06-15T19:43:11Z</time>
      </trkpt>
      <trkpt lat="43.424515" lon="-2.860540">
        <ele>125.497</ele>
        <time>2019-06-15T19:43:12Z</time>
      </trkpt>
      <trkpt lat="43.424428" lon="-2.860398">
        <ele>125.996</ele>
        <time>2019-06-15T19:43:13Z</time>
      </trkpt>
      <trkpt lat="43.424341" lon="-2.860253">
        <ele>125.747</ele>
        <time>2019-06-15T19:43:14Z</time>
      </trkpt>
      <trkpt lat="43.424237" lon="-2.860129">
        <ele>123.356</ele>
        <time>2019-06-15T19:43:15Z</time>
      </trkpt>
      <trkpt lat="43.424137" lon="-2.860032">
        <ele>120.090</ele>
        <time>2019-06-15T19:43:16Z</time>
      </trkpt>
      <trkpt lat="43.424035" lon="-2.859923">
        <ele>118.413</ele>
        <time>2019-06-15T19:43:17Z</time>
      </trkpt>
      <trkpt lat="43.423928" lon="-2.859847">
        <ele>116.643</ele>
        <time>2019-06-15T19:43:18Z</time>
      </trkpt>
      <trkpt lat="43.423815" lon="-2.859786">
        <ele>115.607</ele>
        <time>2019-06-15T19:43:19Z</time>
      </trkpt>
      <trkpt lat="43.423608" lon="-2.859911">
        <ele>113.308</ele>
        <time>2019-06-15T19:43:20Z</time>
      </trkpt>
      <trkpt lat="43.423436" lon="-2.859933">
        <ele>110.254</ele>
        <time>2019-06-15T19:43:21Z</time>
      </trkpt>
      <trkpt lat="43.423266" lon="-2.859955">
        <ele>108.118</ele>
        <time>2019-06-15T19:43:22Z</time>
      </trkpt>
      <trkpt lat="43.423116" lon="-2.859972">
        <ele>107.457</ele>
        <time>2019-06-15T19:43:23Z</time>
      </trkpt>
      <trkpt lat="43.422975" lon="-2.859978">
        <ele>106.556</ele>
        <time>2019-06-15T19:43:24Z</time>
      </trkpt>
      <trkpt lat="43.422851" lon="-2.860017">
        <ele>105.095</ele>
        <time>2019-06-15T19:43:25Z</time>
      </trkpt>
      <trkpt lat="43.422752" lon="-2.860091">
        <ele>102.246</ele>
        <time>2019-06-15T19:43:26Z</time>
      </trkpt>
      <trkpt lat="43.422652" lon="-2.860149">
        <ele>100.975</ele>
        <time>2019-06-15T19:43:27Z</time>
      </trkpt>
      <trkpt lat="43.422552" lon="-2.860218">
        <ele>101.549</ele>
        <time>2019-06-15T19:43:28Z</time>
      </trkpt>
      <trkpt lat="43.422522" lon="-2.860335">
        <ele>102.033</ele>
        <time>2019-06-15T19:43:29Z</time>
      </trkpt>
      <trkpt lat="43.422542" lon="-2.860529">
        <ele>99.623</ele>
        <time>2019-06-15T19:43:30Z</time>
      </trkpt>
      <trkpt lat="43.422549" lon="-2.860710">
        <ele>101.515</ele>
        <time>2019-06-15T19:43:31Z</time>
      </trkpt>
      <trkpt lat="43.422593" lon="-2.860838">
        <ele>102.108</ele>
        <time>2019-06-15T19:43:32Z</time>
      </trkpt>
      <trkpt lat="43.422693" lon="-2.860954">
        <ele>100.916</ele>
        <time>2019-06-15T19:43:33Z</time>
      </trkpt>
      <trkpt lat="43.422829" lon="-2.861096">
        <ele>98.350</ele>
        <time>2019-06-15T19:43:34Z</time>
      </trkpt>
      <trkpt lat="43.422933" lon="-2.861246">
        <ele>98.879</ele>
        <time>2019-06-15T19:43:35Z</time>
      </trkpt>
      <trkpt lat="43.423067" lon="-2.861424">
        <ele>97.298</ele>
        <time>2019-06-15T19:43:36Z</time>
      </trkpt>
      <trkpt lat="43.423182" lon="-2.861608">
        <ele>95.477</ele>
        <time>2019-06-15T19:43:37Z</time>
      </trkpt>
      <trkpt lat="43.423291" lon="-2.861797">
        <ele>93.348</ele>
        <time>2019-06-15T19:43:38Z</time>
      </trkpt>
      <trkpt lat="43.423396" lon="-2.861998">
        <ele>91.837</ele>
        <time>2019-06-15T19:43:39Z</time>
      </trkpt>
      <trkpt lat="43.423505" lon="-2.862191">
        <ele>89.791</ele>
        <time>2019-06-15T19:43:40Z</time>
      </trkpt>
      <trkpt lat="43.423608" lon="-2.862382">
        <ele>89.412</ele>
        <time>2019-06-15T19:43:41Z</time>
      </trkpt>
      <trkpt lat="43.423692" lon="-2.862589">
        <ele>89.632</ele>
        <time>2019-06-15T19:43:42Z</time>
      </trkpt>
      <trkpt lat="43.423791" lon="-2.862777">
        <ele>89.205</ele>
        <time>2019-06-15T19:43:43Z</time>
      </trkpt>
      <trkpt lat="43.423889" lon="-2.862960">
        <ele>87.008</ele>
        <time>2019-06-15T19:43:44Z</time>
      </trkpt>
      <trkpt lat="43.423962" lon="-2.863145">
        <ele>86.454</ele>
        <time>2019-06-15T19:43:45Z</time>
      </trkpt>
      <trkpt lat="43.424065" lon="-2.863307">
        <ele>85.498</ele>
        <time>2019-06-15T19:43:46Z</time>
      </trkpt>
      <trkpt lat="43.424157" lon="-2.863485">
        <ele>83.117</ele>
        <time>2019-06-15T19:43:47Z</time>
      </trkpt>
      <trkpt lat="43.424273" lon="-2.863615">
        <ele>80.696</ele>
        <time>2019-06-15T19:43:48Z</time>
      </trkpt>
      <trkpt lat="43.424374" lon="-2.863781">
        <ele>80.795</ele>
        <time>2019-06-15T19:43:49Z</time>
      </trkpt>
      <trkpt lat="43.424510" lon="-2.863938">
        <ele>78.826</ele>
        <time>2019-06-15T19:43:50Z</time>
      </trkpt>
      <trkpt lat="43.424636" lon="-2.864118">
        <ele>79.095</ele>
        <time>2019-06-15T19:43:51Z</time>
      </trkpt>
      <trkpt lat="43.424784" lon="-2.864271">
        <ele>76.549</ele>
        <time>2019-06-15T19:43:52Z</time>
      </trkpt>
      <trkpt lat="43.424981" lon="-2.864443">
        <ele>71.091</ele>
        <time>2019-06-15T19:43:53Z</time>
      </trkpt>
      <trkpt lat="43.425155" lon="-2.864642">
        <ele>70.481</ele>
        <time>2019-06-15T19:43:54Z</time>
      </trkpt>
      <trkpt lat="43.425306" lon="-2.864811">
        <ele>69.319</ele>
        <time>2019-06-15T19:43:55Z</time>
      </trkpt>
      <trkpt lat="43.425485" lon="-2.864990">
        <ele>68.008</ele>
        <time>2019-06-15T19:43:56Z</time>
      </trkpt>
      <trkpt lat="43.425669" lon="-2.865137">
        <ele>64.932</ele>
        <time>2019-06-15T19:43:57Z</time>
      </trkpt>
      <trkpt lat="43.425846" lon="-2.865336">
        <ele>63.036</ele>
        <time>2019-06-15T19:43:58Z</time>
      </trkpt>
      <trkpt lat="43.426029" lon="-2.865534">
        <ele>61.035</ele>
        <time>2019-06-15T19:43:59Z</time>
      </trkpt>
      <trkpt lat="43.426216" lon="-2.865733">
        <ele>58.954</ele>
        <time>2019-06-15T19:44:00Z</time>
      </trkpt>
      <trkpt lat="43.426403" lon="-2.865924">
        <ele>56.993</ele>
        <time>2019-06-15T19:44:01Z</time>
      </trkpt>
      <trkpt lat="43.426606" lon="-2.866140">
        <ele>53.554</ele>
        <time>2019-06-15T19:44:02Z</time>
      </trkpt>
      <trkpt lat="43.426816" lon="-2.866315">
        <ele>48.553</ele>
        <time>2019-06-15T19:44:03Z</time>
      </trkpt>
      <trkpt lat="43.426979" lon="-2.866506">
        <ele>45.627</ele>
        <time>2019-06-15T19:44:04Z</time>
      </trkpt>
      <trkpt lat="43.427065" lon="-2.866733">
        <ele>47.678</ele>
        <time>2019-06-15T19:44:05Z</time>
      </trkpt>
      <trkpt lat="43.427217" lon="-2.866915">
        <ele>45.833</ele>
        <time>2019-06-15T19:44:06Z</time>
      </trkpt>
      <trkpt lat="43.427362" lon="-2.867070">
        <ele>46.926</ele>
        <time>2019-06-15T19:44:07Z</time>
      </trkpt>
      <trkpt lat="43.427505" lon="-2.867228">
        <ele>45.108</ele>
        <time>2019-06-15T19:44:08Z</time>
      </trkpt>
      <trkpt lat="43.427616" lon="-2.867350">
        <ele>46.360</ele>
        <time>2019-06-15T19:44:09Z</time>
      </trkpt>
      <trkpt lat="43.427637" lon="-2.867479">
        <ele>48.284</ele>
        <time>2019-06-15T19:44:10Z</time>
      </trkpt>
      <trkpt lat="43.427683" lon="-2.867622">
        <ele>48.263</ele>
        <time>2019-06-15T19:44:11Z</time>
      </trkpt>
      <trkpt lat="43.427701" lon="-2.867759">
        <ele>49.092</ele>
        <time>2019-06-15T19:44:12Z</time>
      </trkpt>
      <trkpt lat="43.427706" lon="-2.867893">
        <ele>47.311</ele>
        <time>2019-06-15T19:44:13Z</time>
      </trkpt>
      <trkpt lat="43.427708" lon="-2.868022">
        <ele>45.342</ele>
        <time>2019-06-15T19:44:14Z</time>
      </trkpt>
      <trkpt lat="43.427569" lon="-2.868140">
        <ele>46.861</ele>
        <time>2019-06-15T19:44:15Z</time>
      </trkpt>
      <trkpt lat="43.427485" lon="-2.868244">
        <ele>46.335</ele>
        <time>2019-06-15T19:44:16Z</time>
      </trkpt>
      <trkpt lat="43.427385" lon="-2.868362">
        <ele>46.577</ele>
        <time>2019-06-15T19:44:17Z</time>
      </trkpt>
      <trkpt lat="43.427222" lon="-2.868462">
        <ele>48.261</ele>
        <time>2019-06-15T19:44:18Z</time>
      </trkpt>
      <trkpt lat="43.427080" lon="-2.868579">
        <ele>47.827</ele>
        <time>2019-06-15T19:44:19Z</time>
      </trkpt>
      <trkpt lat="43.426948" lon="-2.868708">
        <ele>46.908</ele>
        <time>2019-06-15T19:44:20Z</time>
      </trkpt>
      <trkpt lat="43.426806" lon="-2.868817">
        <ele>46.090</ele>
        <time>2019-06-15T19:44:21Z</time>
      </trkpt>
      <trkpt lat="43.426680" lon="-2.868933">
        <ele>45.214</ele>
        <time>2019-06-15T19:44:22Z</time>
      </trkpt>
      <trkpt lat="43.426546" lon="-2.869035">
        <ele>45.223</ele>
        <time>2019-06-15T19:44:23Z</time>
      </trkpt>
      <trkpt lat="43.426415" lon="-2.869147">
        <ele>44.242</ele>
        <time>2019-06-15T19:44:24Z</time>
      </trkpt>
      <trkpt lat="43.426300" lon="-2.869261">
        <ele>43.651</ele>
        <time>2019-06-15T19:44:25Z</time>
      </trkpt>
      <trkpt lat="43.426190" lon="-2.869389">
        <ele>43.122</ele>
        <time>2019-06-15T19:44:26Z</time>
      </trkpt>
      <trkpt lat="43.426087" lon="-2.869513">
        <ele>42.841</ele>
        <time>2019-06-15T19:44:27Z</time>
      </trkpt>
      <trkpt lat="43.425990" lon="-2.869644">
        <ele>42.315</ele>
        <time>2019-06-15T19:44:28Z</time>
      </trkpt>
      <trkpt lat="43.425972" lon="-2.869812">
        <ele>42.068</ele>
        <time>2019-06-15T19:44:29Z</time>
      </trkpt>
      <trkpt lat="43.426010" lon="-2.869980">
        <ele>42.042</ele>
        <time>2019-06-15T19:44:30Z</time>
      </trkpt>
      <trkpt lat="43.426054" lon="-2.870097">
        <ele>42.626</ele>
        <time>2019-06-15T19:44:31Z</time>
      </trkpt>
      <trkpt lat="43.426112" lon="-2.870229">
        <ele>43.608</ele>
        <time>2019-06-15T19:44:32Z</time>
      </trkpt>
      <trkpt lat="43.426180" lon="-2.870367">
        <ele>45.439</ele>
        <time>2019-06-15T19:44:33Z</time>
      </trkpt>
      <trkpt lat="43.426313" lon="-2.870412">
        <ele>46.333</ele>
        <time>2019-06-15T19:44:34Z</time>
      </trkpt>
      <trkpt lat="43.426435" lon="-2.870477">
        <ele>47.942</ele>
        <time>2019-06-15T19:44:35Z</time>
      </trkpt>
      <trkpt lat="43.426570" lon="-2.870448">
        <ele>48.471</ele>
        <time>2019-06-15T19:44:36Z</time>
      </trkpt>
      <trkpt lat="43.426721" lon="-2.870445">
        <ele>49.390</ele>
        <time>2019-06-15T19:44:37Z</time>
      </trkpt>
      <trkpt lat="43.426849" lon="-2.870441">
        <ele>50.041</ele>
        <time>2019-06-15T19:44:38Z</time>
      </trkpt>
      <trkpt lat="43.426979" lon="-2.870434">
        <ele>50.980</ele>
        <time>2019-06-15T19:44:39Z</time>
      </trkpt>
      <trkpt lat="43.427104" lon="-2.870432">
        <ele>52.634</ele>
        <time>2019-06-15T19:44:40Z</time>
      </trkpt>
      <trkpt lat="43.427217" lon="-2.870439">
        <ele>54.442</ele>
        <time>2019-06-15T19:44:41Z</time>
      </trkpt>
      <trkpt lat="43.427336" lon="-2.870411">
        <ele>56.722</ele>
        <time>2019-06-15T19:44:42Z</time>
      </trkpt>
      <trkpt lat="43.427462" lon="-2.870334">
        <ele>58.314</ele>
        <time>2019-06-15T19:44:43Z</time>
      </trkpt>
      <trkpt lat="43.427575" lon="-2.870224">
        <ele>59.608</ele>
        <time>2019-06-15T19:44:44Z</time>
      </trkpt>
      <trkpt lat="43.427684" lon="-2.870090">
        <ele>60.437</ele>
        <time>2019-06-15T19:44:45Z</time>
      </trkpt>
      <trkpt lat="43.427787" lon="-2.869952">
        <ele>60.821</ele>
        <time>2019-06-15T19:44:46Z</time>
      </trkpt>
      <trkpt lat="43.427897" lon="-2.869840">
        <ele>62.990</ele>
        <time>2019-06-15T19:44:47Z</time>
      </trkpt>
      <trkpt lat="43.428030" lon="-2.869751">
        <ele>64.389</ele>
        <time>2019-06-15T19:44:48Z</time>
      </trkpt>
      <trkpt lat="43.428177" lon="-2.869691">
        <ele>65.158</ele>
        <time>2019-06-15T19:44:49Z</time>
      </trkpt>
      <trkpt lat="43.428337" lon="-2.869657">
        <ele>66.979</ele>
        <time>2019-06-15T19:44:50Z</time>
      </trkpt>
      <trkpt lat="43.428483" lon="-2.869625">
        <ele>68.648</ele>
        <time>2019-06-15T19:44:51Z</time>
      </trkpt>
      <trkpt lat="43.428626" lon="-2.869537">
        <ele>68.792</ele>
        <time>2019-06-15T19:44:52Z</time>
      </trkpt>
      <trkpt lat="43.428784" lon="-2.869445">
        <ele>71.069</ele>
        <time>2019-06-15T19:44:53Z</time>
      </trkpt>
      <trkpt lat="43.428933" lon="-2.869347">
        <ele>74.104</ele>
        <time>2019-06-15T19:44:54Z</time>
      </trkpt>
      <trkpt lat="43.429085" lon="-2.869249">
        <ele>75.024</ele>
        <time>2019-06-15T19:44:55Z</time>
      </trkpt>
      <trkpt lat="43.429244" lon="-2.869142">
        <ele>74.108</ele>
        <time>2019-06-15T19:44:56Z</time>
      </trkpt>
      <trkpt lat="43.429394" lon="-2.869037">
        <ele>75.839</ele>
        <time>2019-06-15T19:44:57Z</time>
      </trkpt>
      <trkpt lat="43.429547" lon="-2.868940">
        <ele>79.253</ele>
        <time>2019-06-15T19:44:58Z</time>
      </trkpt>
      <trkpt lat="43.429687" lon="-2.868858">
        <ele>80.932</ele>
        <time>2019-06-15T19:44:59Z</time>
      </trkpt>
      <trkpt lat="43.429836" lon="-2.868786">
        <ele>81.251</ele>
        <time>2019-06-15T19:45:00Z</time>
      </trkpt>
      <trkpt lat="43.429986" lon="-2.868733">
        <ele>82.320</ele>
        <time>2019-06-15T19:45:01Z</time>
      </trkpt>
      <trkpt lat="43.430115" lon="-2.868708">
        <ele>83.691</ele>
        <time>2019-06-15T19:45:02Z</time>
      </trkpt>
      <trkpt lat="43.430255" lon="-2.868740">
        <ele>86.560</ele>
        <time>2019-06-15T19:45:03Z</time>
      </trkpt>
      <trkpt lat="43.430368" lon="-2.868784">
        <ele>84.644</ele>
        <time>2019-06-15T19:45:04Z</time>
      </trkpt>
      <trkpt lat="43.430478" lon="-2.868886">
        <ele>84.135</ele>
        <time>2019-06-15T19:45:05Z</time>
      </trkpt>
      <trkpt lat="43.430564" lon="-2.869013">
        <ele>84.186</ele>
        <time>2019-06-15T19:45:06Z</time>
      </trkpt>
      <trkpt lat="43.430635" lon="-2.869168">
        <ele>83.714</ele>
        <time>2019-06-15T19:45:07Z</time>
      </trkpt>
      <trkpt lat="43.430706" lon="-2.869336">
        <ele>84.208</ele>
        <time>2019-06-15T19:45:08Z</time>
      </trkpt>
      <trkpt lat="43.430780" lon="-2.869515">
        <ele>85.276</ele>
        <time>2019-06-15T19:45:09Z</time>
      </trkpt>
      <trkpt lat="43.430838" lon="-2.869672">
        <ele>86.590</ele>
        <time>2019-06-15T19:45:10Z</time>
      </trkpt>
      <trkpt lat="43.430889" lon="-2.869814">
        <ele>87.569</ele>
        <time>2019-06-15T19:45:11Z</time>
      </trkpt>
      <trkpt lat="43.430942" lon="-2.869944">
        <ele>88.568</ele>
        <time>2019-06-15T19:45:12Z</time>
      </trkpt>
      <trkpt lat="43.430985" lon="-2.870077">
        <ele>89.797</ele>
        <time>2019-06-15T19:45:13Z</time>
      </trkpt>
      <trkpt lat="43.431009" lon="-2.870222">
        <ele>91.358</ele>
        <time>2019-06-15T19:45:14Z</time>
      </trkpt>
      <trkpt lat="43.431007" lon="-2.870370">
        <ele>91.587</ele>
        <time>2019-06-15T19:45:15Z</time>
      </trkpt>
      <trkpt lat="43.430983" lon="-2.870512">
        <ele>90.841</ele>
        <time>2019-06-15T19:45:16Z</time>
      </trkpt>
      <trkpt lat="43.430934" lon="-2.870649">
        <ele>89.634</ele>
        <time>2019-06-15T19:45:17Z</time>
      </trkpt>
      <trkpt lat="43.430873" lon="-2.870770">
        <ele>88.555</ele>
        <time>2019-06-15T19:45:18Z</time>
      </trkpt>
      <trkpt lat="43.430799" lon="-2.870892">
        <ele>86.410</ele>
        <time>2019-06-15T19:45:19Z</time>
      </trkpt>
      <trkpt lat="43.430676" lon="-2.870984">
        <ele>84.608</ele>
        <time>2019-06-15T19:45:20Z</time>
      </trkpt>
      <trkpt lat="43.430556" lon="-2.871062">
        <ele>83.966</ele>
        <time>2019-06-15T19:45:21Z</time>
      </trkpt>
      <trkpt lat="43.430419" lon="-2.871122">
        <ele>82.740</ele>
        <time>2019-06-15T19:45:22Z</time>
      </trkpt>
      <trkpt lat="43.430291" lon="-2.871186">
        <ele>81.149</ele>
        <time>2019-06-15T19:45:23Z</time>
      </trkpt>
      <trkpt lat="43.430163" lon="-2.871255">
        <ele>80.058</ele>
        <time>2019-06-15T19:45:24Z</time>
      </trkpt>
      <trkpt lat="43.430020" lon="-2.871341">
        <ele>78.987</ele>
        <time>2019-06-15T19:45:25Z</time>
      </trkpt>
      <trkpt lat="43.429885" lon="-2.871431">
        <ele>77.658</ele>
        <time>2019-06-15T19:45:26Z</time>
      </trkpt>
      <trkpt lat="43.429732" lon="-2.871624">
        <ele>74.797</ele>
        <time>2019-06-15T19:45:27Z</time>
      </trkpt>
      <trkpt lat="43.429586" lon="-2.871798">
        <ele>71.961</ele>
        <time>2019-06-15T19:45:28Z</time>
      </trkpt>
      <trkpt lat="43.429457" lon="-2.871997">
        <ele>69.122</ele>
        <time>2019-06-15T19:45:29Z</time>
      </trkpt>
      <trkpt lat="43.429331" lon="-2.872203">
        <ele>66.262</ele>
        <time>2019-06-15T19:45:30Z</time>
      </trkpt>
      <trkpt lat="43.429198" lon="-2.872423">
        <ele>67.208</ele>
        <time>2019-06-15T19:45:31Z</time>
      </trkpt>
      <trkpt lat="43.429062" lon="-2.872647">
        <ele>66.008</ele>
        <time>2019-06-15T19:45:32Z</time>
      </trkpt>
      <trkpt lat="43.428938" lon="-2.872850">
        <ele>65.055</ele>
        <time>2019-06-15T19:45:33Z</time>
      </trkpt>
      <trkpt lat="43.428799" lon="-2.873047">
        <ele>63.749</ele>
        <time>2019-06-15T19:45:34Z</time>
      </trkpt>
      <trkpt lat="43.428672" lon="-2.873247">
        <ele>62.188</ele>
        <time>2019-06-15T19:45:35Z</time>
      </trkpt>
      <trkpt lat="43.428525" lon="-2.873436">
        <ele>58.797</ele>
        <time>2019-06-15T19:45:36Z</time>
      </trkpt>
      <trkpt lat="43.428377" lon="-2.873620">
        <ele>54.456</ele>
        <time>2019-06-15T19:45:37Z</time>
      </trkpt>
      <trkpt lat="43.428163" lon="-2.873743">
        <ele>52.757</ele>
        <time>2019-06-15T19:45:38Z</time>
      </trkpt>
      <trkpt lat="43.427974" lon="-2.873893">
        <ele>51.366</ele>
        <time>2019-06-15T19:45:39Z</time>
      </trkpt>
      <trkpt lat="43.427809" lon="-2.874035">
        <ele>50.120</ele>
        <time>2019-06-15T19:45:40Z</time>
      </trkpt>
      <trkpt lat="43.427649" lon="-2.874168">
        <ele>48.843</ele>
        <time>2019-06-15T19:45:41Z</time>
      </trkpt>
      <trkpt lat="43.427485" lon="-2.874310">
        <ele>46.664</ele>
        <time>2019-06-15T19:45:42Z</time>
      </trkpt>
      <trkpt lat="43.427319" lon="-2.874457">
        <ele>44.910</ele>
        <time>2019-06-15T19:45:43Z</time>
      </trkpt>
      <trkpt lat="43.427169" lon="-2.874546">
        <ele>44.808</ele>
        <time>2019-06-15T19:45:44Z</time>
      </trkpt>
      <trkpt lat="43.426985" lon="-2.874649">
        <ele>44.637</ele>
        <time>2019-06-15T19:45:45Z</time>
      </trkpt>
      <trkpt lat="43.426798" lon="-2.874738">
        <ele>43.171</ele>
        <time>2019-06-15T19:45:46Z</time>
      </trkpt>
      <trkpt lat="43.426619" lon="-2.874813">
        <ele>41.380</ele>
        <time>2019-06-15T19:45:47Z</time>
      </trkpt>
      <trkpt lat="43.426444" lon="-2.874887">
        <ele>40.269</ele>
        <time>2019-06-15T19:45:48Z</time>
      </trkpt>
      <trkpt lat="43.426294" lon="-2.874956">
        <ele>39.138</ele>
        <time>2019-06-15T19:45:49Z</time>
      </trkpt>
      <trkpt lat="43.426135" lon="-2.875020">
        <ele>37.999</ele>
        <time>2019-06-15T19:45:50Z</time>
      </trkpt>
      <trkpt lat="43.425982" lon="-2.875087">
        <ele>36.368</ele>
        <time>2019-06-15T19:45:51Z</time>
      </trkpt>
      <trkpt lat="43.425852" lon="-2.875134">
        <ele>34.752</ele>
        <time>2019-06-15T19:45:52Z</time>
      </trkpt>
      <trkpt lat="43.425754" lon="-2.875186">
        <ele>34.023</ele>
        <time>2019-06-15T19:45:53Z</time>
      </trkpt>
      <trkpt lat="43.425677" lon="-2.875254">
        <ele>33.383</ele>
        <time>2019-06-15T19:45:54Z</time>
      </trkpt>
      <trkpt lat="43.425603" lon="-2.875339">
        <ele>32.311</ele>
        <time>2019-06-15T19:45:55Z</time>
      </trkpt>
      <trkpt lat="43.425576" lon="-2.875484">
        <ele>30.808</ele>
        <time>2019-06-15T19:45:56Z</time>
      </trkpt>
      <trkpt lat="43.425565" lon="-2.875603">
        <ele>30.255</ele>
        <time>2019-06-15T19:45:57Z</time>
      </trkpt>
      <trkpt lat="43.425611" lon="-2.875666">
        <ele>30.239</ele>
        <time>2019-06-15T19:45:58Z</time>
      </trkpt>
      <trkpt lat="43.425665" lon="-2.875788">
        <ele>29.828</ele>
        <time>2019-06-15T19:45:59Z</time>
      </trkpt>
      <trkpt lat="43.425753" lon="-2.875894">
        <ele>30.237</ele>
        <time>2019-06-15T19:46:00Z</time>
      </trkpt>
      <trkpt lat="43.425831" lon="-2.875999">
        <ele>31.036</ele>
        <time>2019-06-15T19:46:01Z</time>
      </trkpt>
      <trkpt lat="43.425936" lon="-2.876046">
        <ele>30.497</ele>
        <time>2019-06-15T19:46:02Z</time>
      </trkpt>
      <trkpt lat="43.426166" lon="-2.876119">
        <ele>27.866</ele>
        <time>2019-06-15T19:46:03Z</time>
      </trkpt>
      <trkpt lat="43.426333" lon="-2.876178">
        <ele>28.360</ele>
        <time>2019-06-15T19:46:04Z</time>
      </trkpt>
      <trkpt lat="43.426483" lon="-2.876230">
        <ele>28.282</ele>
        <time>2019-06-15T19:46:05Z</time>
      </trkpt>
      <trkpt lat="43.426679" lon="-2.876295">
        <ele>25.943</ele>
        <time>2019-06-15T19:46:06Z</time>
      </trkpt>
      <trkpt lat="43.426832" lon="-2.876335">
        <ele>24.417</ele>
        <time>2019-06-15T19:46:07Z</time>
      </trkpt>
      <trkpt lat="43.426968" lon="-2.876309">
        <ele>23.408</ele>
        <time>2019-06-15T19:46:08Z</time>
      </trkpt>
      <trkpt lat="43.427121" lon="-2.876289">
        <ele>25.891</ele>
        <time>2019-06-15T19:46:09Z</time>
      </trkpt>
      <trkpt lat="43.427266" lon="-2.876163">
        <ele>25.125</ele>
        <time>2019-06-15T19:46:10Z</time>
      </trkpt>
      <trkpt lat="43.427409" lon="-2.876061">
        <ele>25.284</ele>
        <time>2019-06-15T19:46:11Z</time>
      </trkpt>
      <trkpt lat="43.427555" lon="-2.875985">
        <ele>25.623</ele>
        <time>2019-06-15T19:46:12Z</time>
      </trkpt>
      <trkpt lat="43.427712" lon="-2.875939">
        <ele>25.982</ele>
        <time>2019-06-15T19:46:13Z</time>
      </trkpt>
      <trkpt lat="43.427864" lon="-2.875912">
        <ele>25.953</ele>
        <time>2019-06-15T19:46:14Z</time>
      </trkpt>
      <trkpt lat="43.428034" lon="-2.875901">
        <ele>25.982</ele>
        <time>2019-06-15T19:46:15Z</time>
      </trkpt>
      <trkpt lat="43.428212" lon="-2.875903">
        <ele>26.726</ele>
        <time>2019-06-15T19:46:16Z</time>
      </trkpt>
      <trkpt lat="43.428397" lon="-2.875894">
        <ele>27.499</ele>
        <time>2019-06-15T19:46:17Z</time>
      </trkpt>
      <trkpt lat="43.428582" lon="-2.875880">
        <ele>28.307</ele>
        <time>2019-06-15T19:46:18Z</time>
      </trkpt>
      <trkpt lat="43.428760" lon="-2.875871">
        <ele>29.327</ele>
        <time>2019-06-15T19:46:19Z</time>
      </trkpt>
      <trkpt lat="43.428932" lon="-2.875864">
        <ele>30.208</ele>
        <time>2019-06-15T19:46:20Z</time>
      </trkpt>
      <trkpt lat="43.429091" lon="-2.875863">
        <ele>30.862</ele>
        <time>2019-06-15T19:46:21Z</time>
      </trkpt>
      <trkpt lat="43.429230" lon="-2.875874">
        <ele>31.616</ele>
        <time>2019-06-15T19:46:22Z</time>
      </trkpt>
      <trkpt lat="43.429359" lon="-2.875919">
        <ele>32.665</ele>
        <time>2019-06-15T19:46:23Z</time>
      </trkpt>
      <trkpt lat="43.429470" lon="-2.875991">
        <ele>32.974</ele>
        <time>2019-06-15T19:46:24Z</time>
      </trkpt>
      <trkpt lat="43.429529" lon="-2.876096">
        <ele>33.343</ele>
        <time>2019-06-15T19:46:25Z</time>
      </trkpt>
      <trkpt lat="43.429563" lon="-2.876217">
        <ele>33.624</ele>
        <time>2019-06-15T19:46:26Z</time>
      </trkpt>
      <trkpt lat="43.429576" lon="-2.876365">
        <ele>34.183</ele>
        <time>2019-06-15T19:46:27Z</time>
      </trkpt>
      <trkpt lat="43.429561" lon="-2.876518">
        <ele>34.737</ele>
        <time>2019-06-15T19:46:28Z</time>
      </trkpt>
      <trkpt lat="43.429522" lon="-2.876670">
        <ele>35.368</ele>
        <time>2019-06-15T19:46:29Z</time>
      </trkpt>
      <trkpt lat="43.429481" lon="-2.876817">
        <ele>36.142</ele>
        <time>2019-06-15T19:46:30Z</time>
      </trkpt>
      <trkpt lat="43.429469" lon="-2.876943">
        <ele>36.026</ele>
        <time>2019-06-15T19:46:31Z</time>
      </trkpt>
      <trkpt lat="43.429459" lon="-2.877073">
        <ele>37.908</ele>
        <time>2019-06-15T19:46:32Z</time>
      </trkpt>
      <trkpt lat="43.429485" lon="-2.877193">
        <ele>39.789</ele>
        <time>2019-06-15T19:46:33Z</time>
      </trkpt>
      <trkpt lat="43.429531" lon="-2.877286">
        <ele>41.783</ele>
        <time>2019-06-15T19:46:34Z</time>
      </trkpt>
      <trkpt lat="43.429612" lon="-2.877349">
        <ele>43.742</ele>
        <time>2019-06-15T19:46:35Z</time>
      </trkpt>
      <trkpt lat="43.429709" lon="-2.877372">
        <ele>45.211</ele>
        <time>2019-06-15T19:46:36Z</time>
      </trkpt>
      <trkpt lat="43.429820" lon="-2.877334">
        <ele>46.520</ele>
        <time>2019-06-15T19:46:37Z</time>
      </trkpt>
      <trkpt lat="43.429938" lon="-2.877241">
        <ele>45.661</ele>
        <time>2019-06-15T19:46:38Z</time>
      </trkpt>
      <trkpt lat="43.430073" lon="-2.877172">
        <ele>47.620</ele>
        <time>2019-06-15T19:46:39Z</time>
      </trkpt>
      <trkpt lat="43.430203" lon="-2.877059">
        <ele>49.144</ele>
        <time>2019-06-15T19:46:40Z</time>
      </trkpt>
      <trkpt lat="43.430336" lon="-2.876932">
        <ele>50.112</ele>
        <time>2019-06-15T19:46:41Z</time>
      </trkpt>
      <trkpt lat="43.430476" lon="-2.876801">
        <ele>52.332</ele>
        <time>2019-06-15T19:46:42Z</time>
      </trkpt>
      <trkpt lat="43.430618" lon="-2.876684">
        <ele>52.905</ele>
        <time>2019-06-15T19:46:43Z</time>
      </trkpt>
      <trkpt lat="43.430767" lon="-2.876578">
        <ele>53.708</ele>
        <time>2019-06-15T19:46:44Z</time>
      </trkpt>
      <trkpt lat="43.430924" lon="-2.876479">
        <ele>54.954</ele>
        <time>2019-06-15T19:46:45Z</time>
      </trkpt>
      <trkpt lat="43.431096" lon="-2.876382">
        <ele>55.658</ele>
        <time>2019-06-15T19:46:46Z</time>
      </trkpt>
      <trkpt lat="43.431262" lon="-2.876298">
        <ele>57.897</ele>
        <time>2019-06-15T19:46:47Z</time>
      </trkpt>
      <trkpt lat="43.431427" lon="-2.876208">
        <ele>59.126</ele>
        <time>2019-06-15T19:46:48Z</time>
      </trkpt>
      <trkpt lat="43.431588" lon="-2.876130">
        <ele>60.195</ele>
        <time>2019-06-15T19:46:49Z</time>
      </trkpt>
      <trkpt lat="43.431752" lon="-2.876063">
        <ele>61.566</ele>
        <time>2019-06-15T19:46:50Z</time>
      </trkpt>
      <trkpt lat="43.431921" lon="-2.876012">
        <ele>64.065</ele>
        <time>2019-06-15T19:46:51Z</time>
      </trkpt>
      <trkpt lat="43.432095" lon="-2.875980">
        <ele>65.069</ele>
        <time>2019-06-15T19:46:52Z</time>
      </trkpt>
      <trkpt lat="43.432274" lon="-2.875989">
        <ele>66.427</ele>
        <time>2019-06-15T19:46:53Z</time>
      </trkpt>
      <trkpt lat="43.432453" lon="-2.876001">
        <ele>67.068</ele>
        <time>2019-06-15T19:46:54Z</time>
      </trkpt>
      <trkpt lat="43.432633" lon="-2.876032">
        <ele>67.614</ele>
        <time>2019-06-15T19:46:55Z</time>
      </trkpt>
      <trkpt lat="43.432812" lon="-2.876078">
        <ele>69.108</ele>
        <time>2019-06-15T19:46:56Z</time>
      </trkpt>
      <trkpt lat="43.432988" lon="-2.876131">
        <ele>70.935</ele>
        <time>2019-06-15T19:46:57Z</time>
      </trkpt>
      <trkpt lat="43.433176" lon="-2.876183">
        <ele>69.689</ele>
        <time>2019-06-15T19:46:58Z</time>
      </trkpt>
      <trkpt lat="43.433352" lon="-2.876242">
        <ele>69.888</ele>
        <time>2019-06-15T19:46:59Z</time>
      </trkpt>
      <trkpt lat="43.433515" lon="-2.876282">
        <ele>72.487</ele>
        <time>2019-06-15T19:47:00Z</time>
      </trkpt>
      <trkpt lat="43.433672" lon="-2.876332">
        <ele>75.766</ele>
        <time>2019-06-15T19:47:01Z</time>
      </trkpt>
      <trkpt lat="43.433806" lon="-2.876381">
        <ele>77.227</ele>
        <time>2019-06-15T19:47:02Z</time>
      </trkpt>
      <trkpt lat="43.433935" lon="-2.876416">
        <ele>77.766</ele>
        <time>2019-06-15T19:47:03Z</time>
      </trkpt>
      <trkpt lat="43.434055" lon="-2.876448">
        <ele>78.850</ele>
        <time>2019-06-15T19:47:04Z</time>
      </trkpt>
      <trkpt lat="43.434169" lon="-2.876485">
        <ele>79.711</ele>
        <time>2019-06-15T19:47:05Z</time>
      </trkpt>
      <trkpt lat="43.434269" lon="-2.876526">
        <ele>78.521</ele>
        <time>2019-06-15T19:47:06Z</time>
      </trkpt>
      <trkpt lat="43.434365" lon="-2.876609">
        <ele>78.103</ele>
        <time>2019-06-15T19:47:07Z</time>
      </trkpt>
      <trkpt lat="43.434445" lon="-2.876716">
        <ele>78.308</ele>
        <time>2019-06-15T19:47:08Z</time>
      </trkpt>
      <trkpt lat="43.434501" lon="-2.876851">
        <ele>77.274</ele>
        <time>2019-06-15T19:47:09Z</time>
      </trkpt>
      <trkpt lat="43.434531" lon="-2.877004">
        <ele>77.068</ele>
        <time>2019-06-15T19:47:10Z</time>
      </trkpt>
      <trkpt lat="43.434542" lon="-2.877158">
        <ele>77.087</ele>
        <time>2019-06-15T19:47:11Z</time>
      </trkpt>
      <trkpt lat="43.434523" lon="-2.877313">
        <ele>77.176</ele>
        <time>2019-06-15T19:47:12Z</time>
      </trkpt>
      <trkpt lat="43.434497" lon="-2.877466">
        <ele>76.775</ele>
        <time>2019-06-15T19:47:13Z</time>
      </trkpt>
      <trkpt lat="43.434400" lon="-2.877597">
        <ele>76.036</ele>
        <time>2019-06-15T19:47:14Z</time>
      </trkpt>
      <trkpt lat="43.434313" lon="-2.877691">
        <ele>75.935</ele>
        <time>2019-06-15T19:47:15Z</time>
      </trkpt>
      <trkpt lat="43.434220" lon="-2.877779">
        <ele>77.339</ele>
        <time>2019-06-15T19:47:16Z</time>
      </trkpt>
      <trkpt lat="43.434105" lon="-2.877806">
        <ele>79.646</ele>
        <time>2019-06-15T19:47:17Z</time>
      </trkpt>
      <trkpt lat="43.433977" lon="-2.877810">
        <ele>80.588</ele>
        <time>2019-06-15T19:47:18Z</time>
      </trkpt>
      <trkpt lat="43.433855" lon="-2.877750">
        <ele>81.016</ele>
        <time>2019-06-15T19:47:19Z</time>
      </trkpt>
      <trkpt lat="43.433735" lon="-2.877653">
        <ele>81.008</ele>
        <time>2019-06-15T19:47:20Z</time>
      </trkpt>
      <trkpt lat="43.433613" lon="-2.877529">
        <ele>81.037</ele>
        <time>2019-06-15T19:47:21Z</time>
      </trkpt>
      <trkpt lat="43.433493" lon="-2.877417">
        <ele>81.011</ele>
        <time>2019-06-15T19:47:22Z</time>
      </trkpt>
      <trkpt lat="43.433379" lon="-2.877313">
        <ele>81.030</ele>
        <time>2019-06-15T19:47:23Z</time>
      </trkpt>
      <trkpt lat="43.433232" lon="-2.877251">
        <ele>81.049</ele>
        <time>2019-06-15T19:47:24Z</time>
      </trkpt>
      <trkpt lat="43.433087" lon="-2.877215">
        <ele>80.988</ele>
        <time>2019-06-15T19:47:25Z</time>
      </trkpt>
      <trkpt lat="43.432917" lon="-2.877264">
        <ele>81.019</ele>
        <time>2019-06-15T19:47:26Z</time>
      </trkpt>
      <trkpt lat="43.432764" lon="-2.877320">
        <ele>81.048</ele>
        <time>2019-06-15T19:47:27Z</time>
      </trkpt>
      <trkpt lat="43.432591" lon="-2.877415">
        <ele>81.282</ele>
        <time>2019-06-15T19:47:28Z</time>
      </trkpt>
      <trkpt lat="43.432405" lon="-2.877520">
        <ele>81.033</ele>
        <time>2019-06-15T19:47:29Z</time>
      </trkpt>
      <trkpt lat="43.432214" lon="-2.877626">
        <ele>80.523</ele>
        <time>2019-06-15T19:47:30Z</time>
      </trkpt>
      <trkpt lat="43.432021" lon="-2.877741">
        <ele>80.015</ele>
        <time>2019-06-15T19:47:31Z</time>
      </trkpt>
      <trkpt lat="43.431822" lon="-2.877861">
        <ele>80.208</ele>
        <time>2019-06-15T19:47:32Z</time>
      </trkpt>
      <trkpt lat="43.431623" lon="-2.877980">
        <ele>80.046</ele>
        <time>2019-06-15T19:47:33Z</time>
      </trkpt>
      <trkpt lat="43.431417" lon="-2.878102">
        <ele>80.070</ele>
        <time>2019-06-15T19:47:34Z</time>
      </trkpt>
      <trkpt lat="43.431207" lon="-2.878231">
        <ele>80.019</ele>
        <time>2019-06-15T19:47:35Z</time>
      </trkpt>
      <trkpt lat="43.431000" lon="-2.878345">
        <ele>80.158</ele>
        <time>2019-06-15T19:47:36Z</time>
      </trkpt>
      <trkpt lat="43.430794" lon="-2.878467">
        <ele>81.067</ele>
        <time>2019-06-15T19:47:37Z</time>
      </trkpt>
      <trkpt lat="43.430605" lon="-2.878563">
        <ele>81.138</ele>
        <time>2019-06-15T19:47:38Z</time>
      </trkpt>
      <trkpt lat="43.430425" lon="-2.878670">
        <ele>81.237</ele>
        <time>2019-06-15T19:47:39Z</time>
      </trkpt>
      <trkpt lat="43.430251" lon="-2.878774">
        <ele>81.691</ele>
        <time>2019-06-15T19:47:40Z</time>
      </trkpt>
      <trkpt lat="43.430099" lon="-2.878882">
        <ele>82.026</ele>
        <time>2019-06-15T19:47:41Z</time>
      </trkpt>
      <trkpt lat="43.429958" lon="-2.878993">
        <ele>82.547</ele>
        <time>2019-06-15T19:47:42Z</time>
      </trkpt>
      <trkpt lat="43.429835" lon="-2.879121">
        <ele>83.411</ele>
        <time>2019-06-15T19:47:43Z</time>
      </trkpt>
      <trkpt lat="43.429720" lon="-2.879274">
        <ele>83.608</ele>
        <time>2019-06-15T19:47:44Z</time>
      </trkpt>
      <trkpt lat="43.429621" lon="-2.879437">
        <ele>83.745</ele>
        <time>2019-06-15T19:47:45Z</time>
      </trkpt>
      <trkpt lat="43.429525" lon="-2.879610">
        <ele>84.289</ele>
        <time>2019-06-15T19:47:46Z</time>
      </trkpt>
      <trkpt lat="43.429491" lon="-2.879836">
        <ele>84.298</ele>
        <time>2019-06-15T19:47:47Z</time>
      </trkpt>
      <trkpt lat="43.429451" lon="-2.880049">
        <ele>84.977</ele>
        <time>2019-06-15T19:47:48Z</time>
      </trkpt>
      <trkpt lat="43.429418" lon="-2.880274">
        <ele>86.546</ele>
        <time>2019-06-15T19:47:49Z</time>
      </trkpt>
      <trkpt lat="43.429381" lon="-2.880508">
        <ele>87.377</ele>
        <time>2019-06-15T19:47:50Z</time>
      </trkpt>
      <trkpt lat="43.429357" lon="-2.880732">
        <ele>86.976</ele>
        <time>2019-06-15T19:47:51Z</time>
      </trkpt>
      <trkpt lat="43.429331" lon="-2.880955">
        <ele>85.280</ele>
        <time>2019-06-15T19:47:52Z</time>
      </trkpt>
      <trkpt lat="43.429311" lon="-2.881159">
        <ele>84.042</ele>
        <time>2019-06-15T19:47:53Z</time>
      </trkpt>
      <trkpt lat="43.429276" lon="-2.881349">
        <ele>85.222</ele>
        <time>2019-06-15T19:47:54Z</time>
      </trkpt>
      <trkpt lat="43.429258" lon="-2.881546">
        <ele>86.114</ele>
        <time>2019-06-15T19:47:55Z</time>
      </trkpt>
      <trkpt lat="43.429253" lon="-2.881746">
        <ele>86.408</ele>
        <time>2019-06-15T19:47:56Z</time>
      </trkpt>
      <trkpt lat="43.429252" lon="-2.881913">
        <ele>86.527</ele>
        <time>2019-06-15T19:47:57Z</time>
      </trkpt>
      <trkpt lat="43.429282" lon="-2.882091">
        <ele>86.141</ele>
        <time>2019-06-15T19:47:58Z</time>
      </trkpt>
      <trkpt lat="43.429330" lon="-2.882260">
        <ele>85.550</ele>
        <time>2019-06-15T19:47:59Z</time>
      </trkpt>
      <trkpt lat="43.429401" lon="-2.882430">
        <ele>84.469</ele>
        <time>2019-06-15T19:48:00Z</time>
      </trkpt>
      <trkpt lat="43.429496" lon="-2.882534">
        <ele>84.478</ele>
        <time>2019-06-15T19:48:01Z</time>
      </trkpt>
      <trkpt lat="43.429654" lon="-2.882662">
        <ele>84.189</ele>
        <time>2019-06-15T19:48:02Z</time>
      </trkpt>
      <trkpt lat="43.429798" lon="-2.882764">
        <ele>83.198</ele>
        <time>2019-06-15T19:48:03Z</time>
      </trkpt>
      <trkpt lat="43.429944" lon="-2.882847">
        <ele>82.712</ele>
        <time>2019-06-15T19:48:04Z</time>
      </trkpt>
      <trkpt lat="43.430078" lon="-2.882926">
        <ele>81.152</ele>
        <time>2019-06-15T19:48:05Z</time>
      </trkpt>
      <trkpt lat="43.430163" lon="-2.882945">
        <ele>80.053</ele>
        <time>2019-06-15T19:48:06Z</time>
      </trkpt>
      <trkpt lat="43.430272" lon="-2.882947">
        <ele>78.808</ele>
        <time>2019-06-15T19:48:07Z</time>
      </trkpt>
      <trkpt lat="43.430388" lon="-2.882932">
        <ele>75.708</ele>
        <time>2019-06-15T19:48:08Z</time>
      </trkpt>
      <trkpt lat="43.430481" lon="-2.882883">
        <ele>73.488</ele>
        <time>2019-06-15T19:48:09Z</time>
      </trkpt>
      <trkpt lat="43.430562" lon="-2.882781">
        <ele>71.862</ele>
        <time>2019-06-15T19:48:10Z</time>
      </trkpt>
      <trkpt lat="43.430566" lon="-2.882602">
        <ele>71.831</ele>
        <time>2019-06-15T19:48:11Z</time>
      </trkpt>
      <trkpt lat="43.430585" lon="-2.882432">
        <ele>71.570</ele>
        <time>2019-06-15T19:48:12Z</time>
      </trkpt>
      <trkpt lat="43.430598" lon="-2.882261">
        <ele>71.269</ele>
        <time>2019-06-15T19:48:13Z</time>
      </trkpt>
      <trkpt lat="43.430618" lon="-2.882095">
        <ele>71.380</ele>
        <time>2019-06-15T19:48:14Z</time>
      </trkpt>
      <trkpt lat="43.430656" lon="-2.881948">
        <ele>71.269</ele>
        <time>2019-06-15T19:48:15Z</time>
      </trkpt>
      <trkpt lat="43.430729" lon="-2.881848">
        <ele>70.673</ele>
        <time>2019-06-15T19:48:16Z</time>
      </trkpt>
      <trkpt lat="43.430822" lon="-2.881735">
        <ele>69.065</ele>
        <time>2019-06-15T19:48:17Z</time>
      </trkpt>
      <trkpt lat="43.430927" lon="-2.881691">
        <ele>68.568</ele>
        <time>2019-06-15T19:48:18Z</time>
      </trkpt>
      <trkpt lat="43.431021" lon="-2.881697">
        <ele>68.114</ele>
        <time>2019-06-15T19:48:19Z</time>
      </trkpt>
      <trkpt lat="43.431126" lon="-2.881761">
        <ele>67.808</ele>
        <time>2019-06-15T19:48:20Z</time>
      </trkpt>
      <trkpt lat="43.431214" lon="-2.881851">
        <ele>69.689</ele>
        <time>2019-06-15T19:48:21Z</time>
      </trkpt>
      <trkpt lat="43.431281" lon="-2.881963">
        <ele>70.793</ele>
        <time>2019-06-15T19:48:22Z</time>
      </trkpt>
      <trkpt lat="43.431324" lon="-2.882130">
        <ele>69.492</ele>
        <time>2019-06-15T19:48:23Z</time>
      </trkpt>
      <trkpt lat="43.431365" lon="-2.882295">
        <ele>67.221</ele>
        <time>2019-06-15T19:48:24Z</time>
      </trkpt>
      <trkpt lat="43.431398" lon="-2.882440">
        <ele>64.430</ele>
        <time>2019-06-15T19:48:25Z</time>
      </trkpt>
      <trkpt lat="43.431447" lon="-2.882596">
        <ele>61.771</ele>
        <time>2019-06-15T19:48:26Z</time>
      </trkpt>
      <trkpt lat="43.431562" lon="-2.882668">
        <ele>60.350</ele>
        <time>2019-06-15T19:48:27Z</time>
      </trkpt>
      <trkpt lat="43.431651" lon="-2.882766">
        <ele>57.424</ele>
        <time>2019-06-15T19:48:28Z</time>
      </trkpt>
      <trkpt lat="43.431793" lon="-2.882821">
        <ele>56.687</ele>
        <time>2019-06-15T19:48:29Z</time>
      </trkpt>
      <trkpt lat="43.431895" lon="-2.882898">
        <ele>55.842</ele>
        <time>2019-06-15T19:48:30Z</time>
      </trkpt>
      <trkpt lat="43.431978" lon="-2.883001">
        <ele>55.526</ele>
        <time>2019-06-15T19:48:31Z</time>
      </trkpt>
      <trkpt lat="43.432041" lon="-2.883136">
        <ele>56.508</ele>
        <time>2019-06-15T19:48:32Z</time>
      </trkpt>
      <trkpt lat="43.432094" lon="-2.883265">
        <ele>58.051</ele>
        <time>2019-06-15T19:48:33Z</time>
      </trkpt>
      <trkpt lat="43.432130" lon="-2.883406">
        <ele>58.455</ele>
        <time>2019-06-15T19:48:34Z</time>
      </trkpt>
      <trkpt lat="43.432066" lon="-2.883641">
        <ele>53.824</ele>
        <time>2019-06-15T19:48:35Z</time>
      </trkpt>
      <trkpt lat="43.432038" lon="-2.883864">
        <ele>50.913</ele>
        <time>2019-06-15T19:48:36Z</time>
      </trkpt>
      <trkpt lat="43.432000" lon="-2.884071">
        <ele>50.032</ele>
        <time>2019-06-15T19:48:37Z</time>
      </trkpt>
      <trkpt lat="43.431966" lon="-2.884277">
        <ele>49.313</ele>
        <time>2019-06-15T19:48:38Z</time>
      </trkpt>
      <trkpt lat="43.431941" lon="-2.884477">
        <ele>48.922</ele>
        <time>2019-06-15T19:48:39Z</time>
      </trkpt>
      <trkpt lat="43.431913" lon="-2.884698">
        <ele>48.016</ele>
        <time>2019-06-15T19:48:40Z</time>
      </trkpt>
      <trkpt lat="43.431901" lon="-2.884948">
        <ele>47.389</ele>
        <time>2019-06-15T19:48:41Z</time>
      </trkpt>
      <trkpt lat="43.431896" lon="-2.885211">
        <ele>44.906</ele>
        <time>2019-06-15T19:48:42Z</time>
      </trkpt>
      <trkpt lat="43.431891" lon="-2.885463">
        <ele>43.226</ele>
        <time>2019-06-15T19:48:43Z</time>
      </trkpt>
      <trkpt lat="43.431890" lon="-2.885712">
        <ele>42.008</ele>
        <time>2019-06-15T19:48:44Z</time>
      </trkpt>
      <trkpt lat="43.431886" lon="-2.885954">
        <ele>40.431</ele>
        <time>2019-06-15T19:48:45Z</time>
      </trkpt>
      <trkpt lat="43.431892" lon="-2.886194">
        <ele>39.015</ele>
        <time>2019-06-15T19:48:46Z</time>
      </trkpt>
      <trkpt lat="43.431892" lon="-2.886420">
        <ele>37.654</ele>
        <time>2019-06-15T19:48:47Z</time>
      </trkpt>
      <trkpt lat="43.431890" lon="-2.886658">
        <ele>36.173</ele>
        <time>2019-06-15T19:48:48Z</time>
      </trkpt>
      <trkpt lat="43.431893" lon="-2.886873">
        <ele>35.422</ele>
        <time>2019-06-15T19:48:49Z</time>
      </trkpt>
      <trkpt lat="43.431910" lon="-2.887071">
        <ele>33.563</ele>
        <time>2019-06-15T19:48:50Z</time>
      </trkpt>
      <trkpt lat="43.431948" lon="-2.887237">
        <ele>31.982</ele>
        <time>2019-06-15T19:48:51Z</time>
      </trkpt>
      <trkpt lat="43.431992" lon="-2.887411">
        <ele>30.056</ele>
        <time>2019-06-15T19:48:52Z</time>
      </trkpt>
      <trkpt lat="43.432077" lon="-2.887544">
        <ele>28.257</ele>
        <time>2019-06-15T19:48:53Z</time>
      </trkpt>
      <trkpt lat="43.432215" lon="-2.887648">
        <ele>27.300</ele>
        <time>2019-06-15T19:48:54Z</time>
      </trkpt>
      <trkpt lat="43.432332" lon="-2.887730">
        <ele>24.920</ele>
        <time>2019-06-15T19:48:55Z</time>
      </trkpt>
      <trkpt lat="43.432454" lon="-2.887822">
        <ele>22.008</ele>
        <time>2019-06-15T19:48:56Z</time>
      </trkpt>
      <trkpt lat="43.432565" lon="-2.887909">
        <ele>21.768</ele>
        <time>2019-06-15T19:48:57Z</time>
      </trkpt>
      <trkpt lat="43.432652" lon="-2.888042">
        <ele>23.292</ele>
        <time>2019-06-15T19:48:58Z</time>
      </trkpt>
      <trkpt lat="43.432725" lon="-2.888174">
        <ele>25.571</ele>
        <time>2019-06-15T19:48:59Z</time>
      </trkpt>
      <trkpt lat="43.432696" lon="-2.888310">
        <ele>25.360</ele>
        <time>2019-06-15T19:49:00Z</time>
      </trkpt>
      <trkpt lat="43.432742" lon="-2.888442">
        <ele>28.559</ele>
        <time>2019-06-15T19:49:01Z</time>
      </trkpt>
      <trkpt lat="43.432529" lon="-2.888751">
        <ele>20.910</ele>
        <time>2019-06-15T19:49:02Z</time>
      </trkpt>
      <trkpt lat="43.432470" lon="-2.888938">
        <ele>19.379</ele>
        <time>2019-06-15T19:49:03Z</time>
      </trkpt>
      <trkpt lat="43.432434" lon="-2.889134">
        <ele>18.823</ele>
        <time>2019-06-15T19:49:04Z</time>
      </trkpt>
      <trkpt lat="43.432425" lon="-2.889328">
        <ele>18.117</ele>
        <time>2019-06-15T19:49:05Z</time>
      </trkpt>
      <trkpt lat="43.432464" lon="-2.889531">
        <ele>18.187</ele>
        <time>2019-06-15T19:49:06Z</time>
      </trkpt>
      <trkpt lat="43.432502" lon="-2.889742">
        <ele>16.915</ele>
        <time>2019-06-15T19:49:07Z</time>
      </trkpt>
      <trkpt lat="43.432541" lon="-2.889956">
        <ele>17.008</ele>
        <time>2019-06-15T19:49:08Z</time>
      </trkpt>
      <trkpt lat="43.432600" lon="-2.890173">
        <ele>16.924</ele>
        <time>2019-06-15T19:49:09Z</time>
      </trkpt>
      <trkpt lat="43.432640" lon="-2.890372">
        <ele>16.778</ele>
        <time>2019-06-15T19:49:10Z</time>
      </trkpt>
      <trkpt lat="43.432686" lon="-2.890578">
        <ele>16.487</ele>
        <time>2019-06-15T19:49:11Z</time>
      </trkpt>
      <trkpt lat="43.432733" lon="-2.890775">
        <ele>14.866</ele>
        <time>2019-06-15T19:49:12Z</time>
      </trkpt>
      <trkpt lat="43.432773" lon="-2.890955">
        <ele>13.235</ele>
        <time>2019-06-15T19:49:13Z</time>
      </trkpt>
      <trkpt lat="43.432782" lon="-2.891160">
        <ele>10.846</ele>
        <time>2019-06-15T19:49:14Z</time>
      </trkpt>
      <trkpt lat="43.432788" lon="-2.891324">
        <ele>9.835</ele>
        <time>2019-06-15T19:49:15Z</time>
      </trkpt>
      <trkpt lat="43.432794" lon="-2.891472">
        <ele>9.229</ele>
        <time>2019-06-15T19:49:16Z</time>
      </trkpt>
      <trkpt lat="43.432773" lon="-2.891653">
        <ele>8.066</ele>
        <time>2019-06-15T19:49:17Z</time>
      </trkpt>
      <trkpt lat="43.432716" lon="-2.891830">
        <ele>7.729</ele>
        <time>2019-06-15T19:49:18Z</time>
      </trkpt>
      <trkpt lat="43.432631" lon="-2.892034">
        <ele>7.321</ele>
        <time>2019-06-15T19:49:19Z</time>
      </trkpt>
      <trkpt lat="43.432563" lon="-2.892233">
        <ele>7.408</ele>
        <time>2019-06-15T19:49:20Z</time>
      </trkpt>
      <trkpt lat="43.432486" lon="-2.892428">
        <ele>6.529</ele>
        <time>2019-06-15T19:49:21Z</time>
      </trkpt>
      <trkpt lat="43.432413" lon="-2.892621">
        <ele>8.383</ele>
        <time>2019-06-15T19:49:22Z</time>
      </trkpt>
      <trkpt lat="43.432352" lon="-2.892801">
        <ele>9.032</ele>
        <time>2019-06-15T19:49:23Z</time>
      </trkpt>
      <trkpt lat="43.432289" lon="-2.892961">
        <ele>8.031</ele>
        <time>2019-06-15T19:49:24Z</time>
      </trkpt>
      <trkpt lat="43.432240" lon="-2.893096">
        <ele>6.170</ele>
        <time>2019-06-15T19:49:25Z</time>
      </trkpt>
      <trkpt lat="43.432201" lon="-2.893218">
        <ele>5.611</ele>
        <time>2019-06-15T19:49:26Z</time>
      </trkpt>
      <trkpt lat="43.432167" lon="-2.893311">
        <ele>5.320</ele>
        <time>2019-06-15T19:49:27Z</time>
      </trkpt>
      <trkpt lat="43.432143" lon="-2.893394">
        <ele>5.074</ele>
        <time>2019-06-15T19:49:28Z</time>
      </trkpt>
      <trkpt lat="43.432119" lon="-2.893470">
        <ele>5.022</ele>
        <time>2019-06-15T19:49:29Z</time>
      </trkpt>
      <trkpt lat="43.432091" lon="-2.893530">
        <ele>5.262</ele>
        <time>2019-06-15T19:49:30Z</time>
      </trkpt>
      <trkpt lat="43.432014" lon="-2.893578">
        <ele>6.708</ele>
        <time>2019-06-15T19:49:32Z</time>
      </trkpt>
      <trkpt lat="43.431966" lon="-2.893575">
        <ele>8.008</ele>
        <time>2019-06-15T19:50:26Z</time>
      </trkpt>
      <trkpt lat="43.432010" lon="-2.893554">
        <ele>7.115</ele>
        <time>2019-06-15T19:51:20Z</time>
      </trkpt>
      <trkpt lat="43.431976" lon="-2.893600">
        <ele>7.429</ele>
        <time>2019-06-15T19:53:08Z</time>
      </trkpt>
      <trkpt lat="43.431967" lon="-2.893684">
        <ele>6.918</ele>
        <time>2019-06-15T19:54:01Z</time>
      </trkpt>
      <trkpt lat="43.431963" lon="-2.893762">
        <ele>6.527</ele>
        <time>2019-06-15T19:54:02Z</time>
      </trkpt>
      <trkpt lat="43.431949" lon="-2.893855">
        <ele>6.266</ele>
        <time>2019-06-15T19:54:03Z</time>
      </trkpt>
      <trkpt lat="43.431929" lon="-2.893953">
        <ele>5.537</ele>
        <time>2019-06-15T19:54:04Z</time>
      </trkpt>
      <trkpt lat="43.431903" lon="-2.894066">
        <ele>4.516</ele>
        <time>2019-06-15T19:54:05Z</time>
      </trkpt>
      <trkpt lat="43.431883" lon="-2.894196">
        <ele>3.860</ele>
        <time>2019-06-15T19:54:06Z</time>
      </trkpt>
      <trkpt lat="43.431879" lon="-2.894336">
        <ele>4.748</ele>
        <time>2019-06-15T19:54:07Z</time>
      </trkpt>
      <trkpt lat="43.431885" lon="-2.894473">
        <ele>5.661</ele>
        <time>2019-06-15T19:54:08Z</time>
      </trkpt>
      <trkpt lat="43.431893" lon="-2.894609">
        <ele>7.017</ele>
        <time>2019-06-15T19:54:09Z</time>
      </trkpt>
      <trkpt lat="43.431895" lon="-2.894743">
        <ele>8.108</ele>
        <time>2019-06-15T19:54:10Z</time>
      </trkpt>
      <trkpt lat="43.431899" lon="-2.894881">
        <ele>8.857</ele>
        <time>2019-06-15T19:54:11Z</time>
      </trkpt>
      <trkpt lat="43.431902" lon="-2.895007">
        <ele>9.321</ele>
        <time>2019-06-15T19:54:12Z</time>
      </trkpt>
      <trkpt lat="43.431911" lon="-2.895127">
        <ele>9.240</ele>
        <time>2019-06-15T19:54:13Z</time>
      </trkpt>
      <trkpt lat="43.431917" lon="-2.895248">
        <ele>9.289</ele>
        <time>2019-06-15T19:54:14Z</time>
      </trkpt>
      <trkpt lat="43.431913" lon="-2.895360">
        <ele>9.588</ele>
        <time>2019-06-15T19:54:15Z</time>
      </trkpt>
      <trkpt lat="43.431913" lon="-2.895491">
        <ele>10.089</ele>
        <time>2019-06-15T19:54:16Z</time>
      </trkpt>
      <trkpt lat="43.431913" lon="-2.895618">
        <ele>10.228</ele>
        <time>2019-06-15T19:54:17Z</time>
      </trkpt>
      <trkpt lat="43.431918" lon="-2.895740">
        <ele>10.142</ele>
        <time>2019-06-15T19:54:18Z</time>
      </trkpt>
      <trkpt lat="43.431925" lon="-2.895862">
        <ele>10.225</ele>
        <time>2019-06-15T19:54:19Z</time>
      </trkpt>
      <trkpt lat="43.431931" lon="-2.895980">
        <ele>10.626</ele>
        <time>2019-06-15T19:54:20Z</time>
      </trkpt>
      <trkpt lat="43.431938" lon="-2.896105">
        <ele>11.008</ele>
        <time>2019-06-15T19:54:21Z</time>
      </trkpt>
      <trkpt lat="43.431943" lon="-2.896224">
        <ele>11.408</ele>
        <time>2019-06-15T19:54:22Z</time>
      </trkpt>
      <trkpt lat="43.431943" lon="-2.896337">
        <ele>11.865</ele>
        <time>2019-06-15T19:54:23Z</time>
      </trkpt>
      <trkpt lat="43.431948" lon="-2.896455">
        <ele>12.029</ele>
        <time>2019-06-15T19:54:24Z</time>
      </trkpt>
      <trkpt lat="43.431945" lon="-2.896568">
        <ele>12.038</ele>
        <time>2019-06-15T19:54:25Z</time>
      </trkpt>
      <trkpt lat="43.431937" lon="-2.896670">
        <ele>12.047</ele>
        <time>2019-06-15T19:54:26Z</time>
      </trkpt>
      <trkpt lat="43.431918" lon="-2.896769">
        <ele>12.116</ele>
        <time>2019-06-15T19:54:27Z</time>
      </trkpt>
      <trkpt lat="43.431891" lon="-2.896859">
        <ele>12.267</ele>
        <time>2019-06-15T19:54:28Z</time>
      </trkpt>
      <trkpt lat="43.431847" lon="-2.896943">
        <ele>12.446</ele>
        <time>2019-06-15T19:54:29Z</time>
      </trkpt>
      <trkpt lat="43.431783" lon="-2.897016">
        <ele>12.720</ele>
        <time>2019-06-15T19:54:30Z</time>
      </trkpt>
      <trkpt lat="43.431710" lon="-2.897102">
        <ele>13.382</ele>
        <time>2019-06-15T19:54:31Z</time>
      </trkpt>
      <trkpt lat="43.431622" lon="-2.897164">
        <ele>13.943</ele>
        <time>2019-06-15T19:54:32Z</time>
      </trkpt>
      <trkpt lat="43.431523" lon="-2.897225">
        <ele>14.017</ele>
        <time>2019-06-15T19:54:33Z</time>
      </trkpt>
      <trkpt lat="43.431423" lon="-2.897281">
        <ele>14.408</ele>
        <time>2019-06-15T19:54:34Z</time>
      </trkpt>
      <trkpt lat="43.431329" lon="-2.897333">
        <ele>15.051</ele>
        <time>2019-06-15T19:54:35Z</time>
      </trkpt>
      <trkpt lat="43.431244" lon="-2.897389">
        <ele>15.785</ele>
        <time>2019-06-15T19:54:36Z</time>
      </trkpt>
      <trkpt lat="43.431164" lon="-2.897437">
        <ele>16.494</ele>
        <time>2019-06-15T19:54:37Z</time>
      </trkpt>
      <trkpt lat="43.431094" lon="-2.897497">
        <ele>16.963</ele>
        <time>2019-06-15T19:54:38Z</time>
      </trkpt>
      <trkpt lat="43.431024" lon="-2.897562">
        <ele>18.492</ele>
        <time>2019-06-15T19:54:39Z</time>
      </trkpt>
      <trkpt lat="43.430929" lon="-2.897610">
        <ele>19.693</ele>
        <time>2019-06-15T19:54:40Z</time>
      </trkpt>
      <trkpt lat="43.430821" lon="-2.897658">
        <ele>21.062</ele>
        <time>2019-06-15T19:54:41Z</time>
      </trkpt>
      <trkpt lat="43.430702" lon="-2.897702">
        <ele>20.876</ele>
        <time>2019-06-15T19:54:42Z</time>
      </trkpt>
      <trkpt lat="43.430579" lon="-2.897745">
        <ele>19.962</ele>
        <time>2019-06-15T19:54:43Z</time>
      </trkpt>
      <trkpt lat="43.430450" lon="-2.897782">
        <ele>19.883</ele>
        <time>2019-06-15T19:54:44Z</time>
      </trkpt>
      <trkpt lat="43.430318" lon="-2.897819">
        <ele>20.811</ele>
        <time>2019-06-15T19:54:45Z</time>
      </trkpt>
      <trkpt lat="43.430184" lon="-2.897856">
        <ele>21.808</ele>
        <time>2019-06-15T19:54:46Z</time>
      </trkpt>
      <trkpt lat="43.430046" lon="-2.897900">
        <ele>23.029</ele>
        <time>2019-06-15T19:54:47Z</time>
      </trkpt>
      <trkpt lat="43.429902" lon="-2.897947">
        <ele>23.843</ele>
        <time>2019-06-15T19:54:48Z</time>
      </trkpt>
      <trkpt lat="43.429757" lon="-2.897983">
        <ele>23.522</ele>
        <time>2019-06-15T19:54:49Z</time>
      </trkpt>
      <trkpt lat="43.429618" lon="-2.898031">
        <ele>23.741</ele>
        <time>2019-06-15T19:54:50Z</time>
      </trkpt>
      <trkpt lat="43.429472" lon="-2.898074">
        <ele>24.020</ele>
        <time>2019-06-15T19:54:51Z</time>
      </trkpt>
      <trkpt lat="43.429338" lon="-2.898127">
        <ele>25.641</ele>
        <time>2019-06-15T19:54:52Z</time>
      </trkpt>
      <trkpt lat="43.429209" lon="-2.898187">
        <ele>27.430</ele>
        <time>2019-06-15T19:54:53Z</time>
      </trkpt>
      <trkpt lat="43.429106" lon="-2.898232">
        <ele>28.114</ele>
        <time>2019-06-15T19:54:54Z</time>
      </trkpt>
      <trkpt lat="43.428993" lon="-2.898290">
        <ele>28.498</ele>
        <time>2019-06-15T19:54:55Z</time>
      </trkpt>
      <trkpt lat="43.428877" lon="-2.898347">
        <ele>28.415</ele>
        <time>2019-06-15T19:54:56Z</time>
      </trkpt>
      <trkpt lat="43.428757" lon="-2.898407">
        <ele>29.326</ele>
        <time>2019-06-15T19:54:57Z</time>
      </trkpt>
      <trkpt lat="43.428612" lon="-2.898458">
        <ele>29.408</ele>
        <time>2019-06-15T19:54:58Z</time>
      </trkpt>
      <trkpt lat="43.428471" lon="-2.898511">
        <ele>29.222</ele>
        <time>2019-06-15T19:54:59Z</time>
      </trkpt>
      <trkpt lat="43.428311" lon="-2.898542">
        <ele>27.986</ele>
        <time>2019-06-15T19:55:00Z</time>
      </trkpt>
      <trkpt lat="43.428151" lon="-2.898586">
        <ele>30.465</ele>
        <time>2019-06-15T19:55:01Z</time>
      </trkpt>
      <trkpt lat="43.427989" lon="-2.898631">
        <ele>32.334</ele>
        <time>2019-06-15T19:55:02Z</time>
      </trkpt>
      <trkpt lat="43.427827" lon="-2.898679">
        <ele>33.663</ele>
        <time>2019-06-15T19:55:03Z</time>
      </trkpt>
      <trkpt lat="43.427669" lon="-2.898725">
        <ele>35.234</ele>
        <time>2019-06-15T19:55:04Z</time>
      </trkpt>
      <trkpt lat="43.427511" lon="-2.898771">
        <ele>36.083</ele>
        <time>2019-06-15T19:55:05Z</time>
      </trkpt>
      <trkpt lat="43.427375" lon="-2.898861">
        <ele>36.527</ele>
        <time>2019-06-15T19:55:06Z</time>
      </trkpt>
      <trkpt lat="43.427241" lon="-2.898937">
        <ele>34.923</ele>
        <time>2019-06-15T19:55:07Z</time>
      </trkpt>
      <trkpt lat="43.427101" lon="-2.899059">
        <ele>35.483</ele>
        <time>2019-06-15T19:55:08Z</time>
      </trkpt>
      <trkpt lat="43.426964" lon="-2.899198">
        <ele>34.111</ele>
        <time>2019-06-15T19:55:09Z</time>
      </trkpt>
      <trkpt lat="43.426818" lon="-2.899328">
        <ele>34.908</ele>
        <time>2019-06-15T19:55:10Z</time>
      </trkpt>
      <trkpt lat="43.426673" lon="-2.899458">
        <ele>35.425</ele>
        <time>2019-06-15T19:55:11Z</time>
      </trkpt>
      <trkpt lat="43.426520" lon="-2.899583">
        <ele>36.929</ele>
        <time>2019-06-15T19:55:12Z</time>
      </trkpt>
      <trkpt lat="43.426372" lon="-2.899708">
        <ele>37.698</ele>
        <time>2019-06-15T19:55:13Z</time>
      </trkpt>
      <trkpt lat="43.426217" lon="-2.899829">
        <ele>39.017</ele>
        <time>2019-06-15T19:55:14Z</time>
      </trkpt>
      <trkpt lat="43.426053" lon="-2.899943">
        <ele>39.956</ele>
        <time>2019-06-15T19:55:15Z</time>
      </trkpt>
      <trkpt lat="43.425881" lon="-2.900062">
        <ele>41.767</ele>
        <time>2019-06-15T19:55:16Z</time>
      </trkpt>
      <trkpt lat="43.425726" lon="-2.900194">
        <ele>43.696</ele>
        <time>2019-06-15T19:55:17Z</time>
      </trkpt>
      <trkpt lat="43.425575" lon="-2.900351">
        <ele>44.440</ele>
        <time>2019-06-15T19:55:18Z</time>
      </trkpt>
      <trkpt lat="43.425425" lon="-2.900510">
        <ele>44.665</ele>
        <time>2019-06-15T19:55:19Z</time>
      </trkpt>
      <trkpt lat="43.425251" lon="-2.900667">
        <ele>44.468</ele>
        <time>2019-06-15T19:55:20Z</time>
      </trkpt>
      <trkpt lat="43.425089" lon="-2.900800">
        <ele>45.414</ele>
        <time>2019-06-15T19:55:21Z</time>
      </trkpt>
      <trkpt lat="43.424939" lon="-2.900926">
        <ele>47.508</ele>
        <time>2019-06-15T19:55:22Z</time>
      </trkpt>
      <trkpt lat="43.424805" lon="-2.901056">
        <ele>48.819</ele>
        <time>2019-06-15T19:55:23Z</time>
      </trkpt>
      <trkpt lat="43.424682" lon="-2.901207">
        <ele>50.743</ele>
        <time>2019-06-15T19:55:24Z</time>
      </trkpt>
      <trkpt lat="43.424593" lon="-2.901373">
        <ele>53.492</ele>
        <time>2019-06-15T19:55:25Z</time>
      </trkpt>
      <trkpt lat="43.424527" lon="-2.901547">
        <ele>53.081</ele>
        <time>2019-06-15T19:55:26Z</time>
      </trkpt>
      <trkpt lat="43.424482" lon="-2.901712">
        <ele>51.490</ele>
        <time>2019-06-15T19:55:27Z</time>
      </trkpt>
      <trkpt lat="43.424522" lon="-2.901887">
        <ele>53.381</ele>
        <time>2019-06-15T19:55:28Z</time>
      </trkpt>
      <trkpt lat="43.424561" lon="-2.902057">
        <ele>54.420</ele>
        <time>2019-06-15T19:55:29Z</time>
      </trkpt>
      <trkpt lat="43.424590" lon="-2.902221">
        <ele>54.454</ele>
        <time>2019-06-15T19:55:30Z</time>
      </trkpt>
      <trkpt lat="43.424619" lon="-2.902386">
        <ele>55.453</ele>
        <time>2019-06-15T19:55:31Z</time>
      </trkpt>
      <trkpt lat="43.424589" lon="-2.902557">
        <ele>54.304</ele>
        <time>2019-06-15T19:55:32Z</time>
      </trkpt>
      <trkpt lat="43.424538" lon="-2.902725">
        <ele>54.414</ele>
        <time>2019-06-15T19:55:33Z</time>
      </trkpt>
      <trkpt lat="43.424454" lon="-2.902884">
        <ele>55.708</ele>
        <time>2019-06-15T19:55:34Z</time>
      </trkpt>
      <trkpt lat="43.424345" lon="-2.903038">
        <ele>56.948</ele>
        <time>2019-06-15T19:55:35Z</time>
      </trkpt>
      <trkpt lat="43.424224" lon="-2.903179">
        <ele>57.222</ele>
        <time>2019-06-15T19:55:36Z</time>
      </trkpt>
      <trkpt lat="43.424102" lon="-2.903312">
        <ele>57.281</ele>
        <time>2019-06-15T19:55:37Z</time>
      </trkpt>
      <trkpt lat="43.423957" lon="-2.903442">
        <ele>56.780</ele>
        <time>2019-06-15T19:55:38Z</time>
      </trkpt>
      <trkpt lat="43.423806" lon="-2.903591">
        <ele>59.299</ele>
        <time>2019-06-15T19:55:39Z</time>
      </trkpt>
      <trkpt lat="43.423657" lon="-2.903730">
        <ele>61.650</ele>
        <time>2019-06-15T19:55:40Z</time>
      </trkpt>
      <trkpt lat="43.423512" lon="-2.903853">
        <ele>63.099</ele>
        <time>2019-06-15T19:55:41Z</time>
      </trkpt>
      <trkpt lat="43.423359" lon="-2.903976">
        <ele>63.323</ele>
        <time>2019-06-15T19:55:42Z</time>
      </trkpt>
      <trkpt lat="43.423200" lon="-2.904082">
        <ele>64.577</ele>
        <time>2019-06-15T19:55:43Z</time>
      </trkpt>
      <trkpt lat="43.423054" lon="-2.904172">
        <ele>64.461</ele>
        <time>2019-06-15T19:55:44Z</time>
      </trkpt>
      <trkpt lat="43.422903" lon="-2.904219">
        <ele>69.627</ele>
        <time>2019-06-15T19:55:45Z</time>
      </trkpt>
      <trkpt lat="43.422711" lon="-2.904139">
        <ele>66.608</ele>
        <time>2019-06-15T19:55:46Z</time>
      </trkpt>
      <trkpt lat="43.422545" lon="-2.904131">
        <ele>68.670</ele>
        <time>2019-06-15T19:55:47Z</time>
      </trkpt>
      <trkpt lat="43.422385" lon="-2.904121">
        <ele>68.484</ele>
        <time>2019-06-15T19:55:48Z</time>
      </trkpt>
      <trkpt lat="43.422216" lon="-2.904170">
        <ele>70.073</ele>
        <time>2019-06-15T19:55:49Z</time>
      </trkpt>
      <trkpt lat="43.422041" lon="-2.904248">
        <ele>68.612</ele>
        <time>2019-06-15T19:55:50Z</time>
      </trkpt>
      <trkpt lat="43.421868" lon="-2.904326">
        <ele>66.721</ele>
        <time>2019-06-15T19:55:51Z</time>
      </trkpt>
      <trkpt lat="43.421700" lon="-2.904420">
        <ele>66.172</ele>
        <time>2019-06-15T19:55:52Z</time>
      </trkpt>
      <trkpt lat="43.421537" lon="-2.904529">
        <ele>67.511</ele>
        <time>2019-06-15T19:55:53Z</time>
      </trkpt>
      <trkpt lat="43.421378" lon="-2.904643">
        <ele>68.855</ele>
        <time>2019-06-15T19:55:54Z</time>
      </trkpt>
      <trkpt lat="43.421218" lon="-2.904757">
        <ele>67.873</ele>
        <time>2019-06-15T19:55:55Z</time>
      </trkpt>
      <trkpt lat="43.421058" lon="-2.904861">
        <ele>66.885</ele>
        <time>2019-06-15T19:55:56Z</time>
      </trkpt>
      <trkpt lat="43.420891" lon="-2.904956">
        <ele>67.613</ele>
        <time>2019-06-15T19:55:57Z</time>
      </trkpt>
      <trkpt lat="43.420732" lon="-2.905036">
        <ele>69.208</ele>
        <time>2019-06-15T19:55:58Z</time>
      </trkpt>
      <trkpt lat="43.420581" lon="-2.905110">
        <ele>72.270</ele>
        <time>2019-06-15T19:55:59Z</time>
      </trkpt>
      <trkpt lat="43.420434" lon="-2.905215">
        <ele>73.854</ele>
        <time>2019-06-15T19:56:00Z</time>
      </trkpt>
      <trkpt lat="43.420298" lon="-2.905347">
        <ele>72.893</ele>
        <time>2019-06-15T19:56:01Z</time>
      </trkpt>
      <trkpt lat="43.420176" lon="-2.905498">
        <ele>72.162</ele>
        <time>2019-06-15T19:56:02Z</time>
      </trkpt>
      <trkpt lat="43.420085" lon="-2.905639">
        <ele>71.791</ele>
        <time>2019-06-15T19:56:03Z</time>
      </trkpt>
      <trkpt lat="43.420016" lon="-2.905790">
        <ele>71.812</ele>
        <time>2019-06-15T19:56:04Z</time>
      </trkpt>
      <trkpt lat="43.419963" lon="-2.905933">
        <ele>72.341</ele>
        <time>2019-06-15T19:56:05Z</time>
      </trkpt>
      <trkpt lat="43.419938" lon="-2.906062">
        <ele>73.055</ele>
        <time>2019-06-15T19:56:06Z</time>
      </trkpt>
      <trkpt lat="43.419934" lon="-2.906197">
        <ele>73.222</ele>
        <time>2019-06-15T19:56:07Z</time>
      </trkpt>
      <trkpt lat="43.419964" lon="-2.906356">
        <ele>73.462</ele>
        <time>2019-06-15T19:56:08Z</time>
      </trkpt>
      <trkpt lat="43.420009" lon="-2.906526">
        <ele>73.308</ele>
        <time>2019-06-15T19:56:09Z</time>
      </trkpt>
      <trkpt lat="43.420062" lon="-2.906701">
        <ele>73.608</ele>
        <time>2019-06-15T19:56:10Z</time>
      </trkpt>
      <trkpt lat="43.420128" lon="-2.906896">
        <ele>74.575</ele>
        <time>2019-06-15T19:56:11Z</time>
      </trkpt>
      <trkpt lat="43.420188" lon="-2.907090">
        <ele>75.419</ele>
        <time>2019-06-15T19:56:12Z</time>
      </trkpt>
      <trkpt lat="43.420257" lon="-2.907310">
        <ele>75.978</ele>
        <time>2019-06-15T19:56:13Z</time>
      </trkpt>
      <trkpt lat="43.420330" lon="-2.907532">
        <ele>76.287</ele>
        <time>2019-06-15T19:56:14Z</time>
      </trkpt>
      <trkpt lat="43.420414" lon="-2.907764">
        <ele>77.526</ele>
        <time>2019-06-15T19:56:15Z</time>
      </trkpt>
      <trkpt lat="43.420496" lon="-2.908009">
        <ele>77.047</ele>
        <time>2019-06-15T19:56:16Z</time>
      </trkpt>
      <trkpt lat="43.420582" lon="-2.908259">
        <ele>76.716</ele>
        <time>2019-06-15T19:56:17Z</time>
      </trkpt>
      <trkpt lat="43.420666" lon="-2.908496">
        <ele>75.920</ele>
        <time>2019-06-15T19:56:18Z</time>
      </trkpt>
      <trkpt lat="43.420746" lon="-2.908731">
        <ele>74.879</ele>
        <time>2019-06-15T19:56:19Z</time>
      </trkpt>
      <trkpt lat="43.420828" lon="-2.908961">
        <ele>73.905</ele>
        <time>2019-06-15T19:56:20Z</time>
      </trkpt>
      <trkpt lat="43.420911" lon="-2.909189">
        <ele>74.625</ele>
        <time>2019-06-15T19:56:21Z</time>
      </trkpt>
      <trkpt lat="43.420981" lon="-2.909416">
        <ele>75.508</ele>
        <time>2019-06-15T19:56:22Z</time>
      </trkpt>
      <trkpt lat="43.421039" lon="-2.909637">
        <ele>75.580</ele>
        <time>2019-06-15T19:56:23Z</time>
      </trkpt>
      <trkpt lat="43.421079" lon="-2.909849">
        <ele>75.694</ele>
        <time>2019-06-15T19:56:24Z</time>
      </trkpt>
      <trkpt lat="43.421114" lon="-2.910055">
        <ele>76.433</ele>
        <time>2019-06-15T19:56:25Z</time>
      </trkpt>
      <trkpt lat="43.421088" lon="-2.910251">
        <ele>77.432</ele>
        <time>2019-06-15T19:56:26Z</time>
      </trkpt>
      <trkpt lat="43.421071" lon="-2.910448">
        <ele>78.071</ele>
        <time>2019-06-15T19:56:27Z</time>
      </trkpt>
      <trkpt lat="43.421002" lon="-2.910662">
        <ele>77.872</ele>
        <time>2019-06-15T19:56:28Z</time>
      </trkpt>
      <trkpt lat="43.420932" lon="-2.910874">
        <ele>78.521</ele>
        <time>2019-06-15T19:56:29Z</time>
      </trkpt>
      <trkpt lat="43.420843" lon="-2.911084">
        <ele>79.715</ele>
        <time>2019-06-15T19:56:30Z</time>
      </trkpt>
      <trkpt lat="43.420774" lon="-2.911302">
        <ele>82.173</ele>
        <time>2019-06-15T19:56:31Z</time>
      </trkpt>
      <trkpt lat="43.420722" lon="-2.911511">
        <ele>83.885</ele>
        <time>2019-06-15T19:56:32Z</time>
      </trkpt>
      <trkpt lat="43.420681" lon="-2.911728">
        <ele>85.113</ele>
        <time>2019-06-15T19:56:33Z</time>
      </trkpt>
      <trkpt lat="43.420668" lon="-2.911951">
        <ele>86.208</ele>
        <time>2019-06-15T19:56:34Z</time>
      </trkpt>
      <trkpt lat="43.420679" lon="-2.912180">
        <ele>87.210</ele>
        <time>2019-06-15T19:56:35Z</time>
      </trkpt>
      <trkpt lat="43.420699" lon="-2.912423">
        <ele>88.314</ele>
        <time>2019-06-15T19:56:36Z</time>
      </trkpt>
      <trkpt lat="43.420716" lon="-2.912660">
        <ele>88.783</ele>
        <time>2019-06-15T19:56:37Z</time>
      </trkpt>
      <trkpt lat="43.420716" lon="-2.912908">
        <ele>89.242</ele>
        <time>2019-06-15T19:56:38Z</time>
      </trkpt>
      <trkpt lat="43.420701" lon="-2.913157">
        <ele>90.361</ele>
        <time>2019-06-15T19:56:39Z</time>
      </trkpt>
      <trkpt lat="43.420670" lon="-2.913416">
        <ele>91.842</ele>
        <time>2019-06-15T19:56:40Z</time>
      </trkpt>
      <trkpt lat="43.420616" lon="-2.913669">
        <ele>93.371</ele>
        <time>2019-06-15T19:56:41Z</time>
      </trkpt>
      <trkpt lat="43.420563" lon="-2.913900">
        <ele>95.235</ele>
        <time>2019-06-15T19:56:42Z</time>
      </trkpt>
      <trkpt lat="43.420504" lon="-2.914097">
        <ele>95.989</ele>
        <time>2019-06-15T19:56:43Z</time>
      </trkpt>
      <trkpt lat="43.420440" lon="-2.914266">
        <ele>96.806</ele>
        <time>2019-06-15T19:56:44Z</time>
      </trkpt>
      <trkpt lat="43.420365" lon="-2.914408">
        <ele>97.526</ele>
        <time>2019-06-15T19:56:45Z</time>
      </trkpt>
      <trkpt lat="43.420272" lon="-2.914505">
        <ele>97.608</ele>
        <time>2019-06-15T19:56:46Z</time>
      </trkpt>
      <trkpt lat="43.420162" lon="-2.914555">
        <ele>98.011</ele>
        <time>2019-06-15T19:56:47Z</time>
      </trkpt>
      <trkpt lat="43.420033" lon="-2.914576">
        <ele>98.045</ele>
        <time>2019-06-15T19:56:48Z</time>
      </trkpt>
      <trkpt lat="43.419894" lon="-2.914569">
        <ele>99.084</ele>
        <time>2019-06-15T19:56:49Z</time>
      </trkpt>
      <trkpt lat="43.419746" lon="-2.914540">
        <ele>100.443</ele>
        <time>2019-06-15T19:56:50Z</time>
      </trkpt>
      <trkpt lat="43.419593" lon="-2.914519">
        <ele>101.612</ele>
        <time>2019-06-15T19:56:51Z</time>
      </trkpt>
      <trkpt lat="43.419456" lon="-2.914495">
        <ele>102.543</ele>
        <time>2019-06-15T19:56:52Z</time>
      </trkpt>
      <trkpt lat="43.419321" lon="-2.914518">
        <ele>103.852</ele>
        <time>2019-06-15T19:56:53Z</time>
      </trkpt>
      <trkpt lat="43.419194" lon="-2.914546">
        <ele>105.246</ele>
        <time>2019-06-15T19:56:54Z</time>
      </trkpt>
      <trkpt lat="43.419072" lon="-2.914593">
        <ele>105.621</ele>
        <time>2019-06-15T19:56:55Z</time>
      </trkpt>
      <trkpt lat="43.418920" lon="-2.914698">
        <ele>106.041</ele>
        <time>2019-06-15T19:56:56Z</time>
      </trkpt>
      <trkpt lat="43.418801" lon="-2.914825">
        <ele>106.505</ele>
        <time>2019-06-15T19:56:57Z</time>
      </trkpt>
      <trkpt lat="43.418695" lon="-2.914978">
        <ele>107.608</ele>
        <time>2019-06-15T19:56:58Z</time>
      </trkpt>
      <trkpt lat="43.418573" lon="-2.915143">
        <ele>109.245</ele>
        <time>2019-06-15T19:56:59Z</time>
      </trkpt>
      <trkpt lat="43.418432" lon="-2.915238">
        <ele>109.929</ele>
        <time>2019-06-15T19:57:00Z</time>
      </trkpt>
      <trkpt lat="43.418271" lon="-2.915328">
        <ele>110.968</ele>
        <time>2019-06-15T19:57:01Z</time>
      </trkpt>
      <trkpt lat="43.418112" lon="-2.915400">
        <ele>112.247</ele>
        <time>2019-06-15T19:57:02Z</time>
      </trkpt>
      <trkpt lat="43.417941" lon="-2.915477">
        <ele>112.686</ele>
        <time>2019-06-15T19:57:03Z</time>
      </trkpt>
      <trkpt lat="43.417782" lon="-2.915559">
        <ele>113.157</ele>
        <time>2019-06-15T19:57:04Z</time>
      </trkpt>
      <trkpt lat="43.417629" lon="-2.915683">
        <ele>114.136</ele>
        <time>2019-06-15T19:57:05Z</time>
      </trkpt>
      <trkpt lat="43.417487" lon="-2.915824">
        <ele>115.620</ele>
        <time>2019-06-15T19:57:06Z</time>
      </trkpt>
      <trkpt lat="43.417347" lon="-2.915973">
        <ele>116.682</ele>
        <time>2019-06-15T19:57:07Z</time>
      </trkpt>
      <trkpt lat="43.417216" lon="-2.916128">
        <ele>118.143</ele>
        <time>2019-06-15T19:57:08Z</time>
      </trkpt>
      <trkpt lat="43.417092" lon="-2.916284">
        <ele>118.417</ele>
        <time>2019-06-15T19:57:09Z</time>
      </trkpt>
      <trkpt lat="43.417036" lon="-2.916450">
        <ele>119.908</ele>
        <time>2019-06-15T19:57:10Z</time>
      </trkpt>
      <trkpt lat="43.417011" lon="-2.916608">
        <ele>121.161</ele>
        <time>2019-06-15T19:57:11Z</time>
      </trkpt>
      <trkpt lat="43.417004" lon="-2.916755">
        <ele>122.085</ele>
        <time>2019-06-15T19:57:12Z</time>
      </trkpt>
      <trkpt lat="43.417028" lon="-2.916915">
        <ele>122.874</ele>
        <time>2019-06-15T19:57:13Z</time>
      </trkpt>
      <trkpt lat="43.417070" lon="-2.917090">
        <ele>123.623</ele>
        <time>2019-06-15T19:57:14Z</time>
      </trkpt>
      <trkpt lat="43.417115" lon="-2.917270">
        <ele>124.362</ele>
        <time>2019-06-15T19:57:15Z</time>
      </trkpt>
      <trkpt lat="43.417166" lon="-2.917447">
        <ele>124.333</ele>
        <time>2019-06-15T19:57:16Z</time>
      </trkpt>
      <trkpt lat="43.417218" lon="-2.917630">
        <ele>123.652</ele>
        <time>2019-06-15T19:57:17Z</time>
      </trkpt>
      <trkpt lat="43.417264" lon="-2.917835">
        <ele>122.726</ele>
        <time>2019-06-15T19:57:18Z</time>
      </trkpt>
      <trkpt lat="43.417286" lon="-2.918021">
        <ele>121.368</ele>
        <time>2019-06-15T19:57:19Z</time>
      </trkpt>
      <trkpt lat="43.417289" lon="-2.918218">
        <ele>119.542</ele>
        <time>2019-06-15T19:57:20Z</time>
      </trkpt>
      <trkpt lat="43.417269" lon="-2.918444">
        <ele>117.826</ele>
        <time>2019-06-15T19:57:21Z</time>
      </trkpt>
      <trkpt lat="43.417234" lon="-2.918682">
        <ele>116.108</ele>
        <time>2019-06-15T19:57:22Z</time>
      </trkpt>
      <trkpt lat="43.417196" lon="-2.918914">
        <ele>114.779</ele>
        <time>2019-06-15T19:57:23Z</time>
      </trkpt>
      <trkpt lat="43.417157" lon="-2.919146">
        <ele>114.363</ele>
        <time>2019-06-15T19:57:24Z</time>
      </trkpt>
      <trkpt lat="43.417126" lon="-2.919387">
        <ele>113.092</ele>
        <time>2019-06-15T19:57:25Z</time>
      </trkpt>
      <trkpt lat="43.417093" lon="-2.919625">
        <ele>111.331</ele>
        <time>2019-06-15T19:57:26Z</time>
      </trkpt>
      <trkpt lat="43.417065" lon="-2.919855">
        <ele>110.170</ele>
        <time>2019-06-15T19:57:27Z</time>
      </trkpt>
      <trkpt lat="43.417048" lon="-2.920058">
        <ele>109.011</ele>
        <time>2019-06-15T19:57:28Z</time>
      </trkpt>
      <trkpt lat="43.417043" lon="-2.920239">
        <ele>107.580</ele>
        <time>2019-06-15T19:57:29Z</time>
      </trkpt>
      <trkpt lat="43.417057" lon="-2.920407">
        <ele>107.254</ele>
        <time>2019-06-15T19:57:30Z</time>
      </trkpt>
      <trkpt lat="43.417109" lon="-2.920571">
        <ele>106.365</ele>
        <time>2019-06-15T19:57:31Z</time>
      </trkpt>
      <trkpt lat="43.417167" lon="-2.920762">
        <ele>106.868</ele>
        <time>2019-06-15T19:57:32Z</time>
      </trkpt>
      <trkpt lat="43.417220" lon="-2.920959">
        <ele>106.114</ele>
        <time>2019-06-15T19:57:33Z</time>
      </trkpt>
      <trkpt lat="43.417263" lon="-2.921174">
        <ele>104.208</ele>
        <time>2019-06-15T19:57:34Z</time>
      </trkpt>
      <trkpt lat="43.417329" lon="-2.921394">
        <ele>102.239</ele>
        <time>2019-06-15T19:57:35Z</time>
      </trkpt>
      <trkpt lat="43.417414" lon="-2.921613">
        <ele>102.653</ele>
        <time>2019-06-15T19:57:36Z</time>
      </trkpt>
      <trkpt lat="43.417515" lon="-2.921815">
        <ele>101.592</ele>
        <time>2019-06-15T19:57:37Z</time>
      </trkpt>
      <trkpt lat="43.417610" lon="-2.922019">
        <ele>100.071</ele>
        <time>2019-06-15T19:57:38Z</time>
      </trkpt>
      <trkpt lat="43.417701" lon="-2.922228">
        <ele>98.830</ele>
        <time>2019-06-15T19:57:39Z</time>
      </trkpt>
      <trkpt lat="43.417781" lon="-2.922448">
        <ele>97.581</ele>
        <time>2019-06-15T19:57:40Z</time>
      </trkpt>
      <trkpt lat="43.417855" lon="-2.922680">
        <ele>95.670</ele>
        <time>2019-06-15T19:57:41Z</time>
      </trkpt>
      <trkpt lat="43.417926" lon="-2.922914">
        <ele>94.354</ele>
        <time>2019-06-15T19:57:42Z</time>
      </trkpt>
      <trkpt lat="43.417993" lon="-2.923141">
        <ele>93.469</ele>
        <time>2019-06-15T19:57:43Z</time>
      </trkpt>
      <trkpt lat="43.418057" lon="-2.923370">
        <ele>92.204</ele>
        <time>2019-06-15T19:57:44Z</time>
      </trkpt>
      <trkpt lat="43.418116" lon="-2.923585">
        <ele>90.524</ele>
        <time>2019-06-15T19:57:45Z</time>
      </trkpt>
      <trkpt lat="43.418171" lon="-2.923824">
        <ele>89.608</ele>
        <time>2019-06-15T19:57:46Z</time>
      </trkpt>
      <trkpt lat="43.418221" lon="-2.924067">
        <ele>88.069</ele>
        <time>2019-06-15T19:57:47Z</time>
      </trkpt>
      <trkpt lat="43.418267" lon="-2.924303">
        <ele>86.533</ele>
        <time>2019-06-15T19:57:48Z</time>
      </trkpt>
      <trkpt lat="43.418307" lon="-2.924537">
        <ele>85.172</ele>
        <time>2019-06-15T19:57:49Z</time>
      </trkpt>
      <trkpt lat="43.418333" lon="-2.924762">
        <ele>84.081</ele>
        <time>2019-06-15T19:57:50Z</time>
      </trkpt>
      <trkpt lat="43.418353" lon="-2.924974">
        <ele>82.880</ele>
        <time>2019-06-15T19:57:51Z</time>
      </trkpt>
      <trkpt lat="43.418362" lon="-2.925186">
        <ele>81.531</ele>
        <time>2019-06-15T19:57:52Z</time>
      </trkpt>
      <trkpt lat="43.418350" lon="-2.925393">
        <ele>81.170</ele>
        <time>2019-06-15T19:57:53Z</time>
      </trkpt>
      <trkpt lat="43.418318" lon="-2.925603">
        <ele>80.934</ele>
        <time>2019-06-15T19:57:54Z</time>
      </trkpt>
      <trkpt lat="43.418257" lon="-2.925804">
        <ele>80.327</ele>
        <time>2019-06-15T19:57:55Z</time>
      </trkpt>
      <trkpt lat="43.418185" lon="-2.925991">
        <ele>79.868</ele>
        <time>2019-06-15T19:57:56Z</time>
      </trkpt>
      <trkpt lat="43.418107" lon="-2.926175">
        <ele>79.414</ele>
        <time>2019-06-15T19:57:57Z</time>
      </trkpt>
      <trkpt lat="43.418036" lon="-2.926324">
        <ele>78.508</ele>
        <time>2019-06-15T19:57:58Z</time>
      </trkpt>
      <trkpt lat="43.417947" lon="-2.926438">
        <ele>77.975</ele>
        <time>2019-06-15T19:57:59Z</time>
      </trkpt>
      <trkpt lat="43.417862" lon="-2.926539">
        <ele>77.279</ele>
        <time>2019-06-15T19:58:00Z</time>
      </trkpt>
      <trkpt lat="43.417725" lon="-2.926587">
        <ele>77.798</ele>
        <time>2019-06-15T19:58:01Z</time>
      </trkpt>
      <trkpt lat="43.417583" lon="-2.926628">
        <ele>76.897</ele>
        <time>2019-06-15T19:58:02Z</time>
      </trkpt>
      <trkpt lat="43.417422" lon="-2.926651">
        <ele>76.126</ele>
        <time>2019-06-15T19:58:03Z</time>
      </trkpt>
      <trkpt lat="43.417260" lon="-2.926673">
        <ele>75.037</ele>
        <time>2019-06-15T19:58:04Z</time>
      </trkpt>
      <trkpt lat="43.417093" lon="-2.926695">
        <ele>74.466</ele>
        <time>2019-06-15T19:58:05Z</time>
      </trkpt>
      <trkpt lat="43.416927" lon="-2.926726">
        <ele>73.940</ele>
        <time>2019-06-15T19:58:06Z</time>
      </trkpt>
      <trkpt lat="43.416762" lon="-2.926749">
        <ele>72.941</ele>
        <time>2019-06-15T19:58:07Z</time>
      </trkpt>
      <trkpt lat="43.416600" lon="-2.926783">
        <ele>71.781</ele>
        <time>2019-06-15T19:58:08Z</time>
      </trkpt>
      <trkpt lat="43.416446" lon="-2.926819">
        <ele>70.509</ele>
        <time>2019-06-15T19:58:09Z</time>
      </trkpt>
      <trkpt lat="43.416294" lon="-2.926857">
        <ele>69.608</ele>
        <time>2019-06-15T19:58:10Z</time>
      </trkpt>
      <trkpt lat="43.416156" lon="-2.926885">
        <ele>69.127</ele>
        <time>2019-06-15T19:58:11Z</time>
      </trkpt>
      <trkpt lat="43.416038" lon="-2.926919">
        <ele>68.581</ele>
        <time>2019-06-15T19:58:12Z</time>
      </trkpt>
      <trkpt lat="43.415950" lon="-2.926987">
        <ele>67.440</ele>
        <time>2019-06-15T19:58:13Z</time>
      </trkpt>
      <trkpt lat="43.415863" lon="-2.927062">
        <ele>66.619</ele>
        <time>2019-06-15T19:58:14Z</time>
      </trkpt>
      <trkpt lat="43.415811" lon="-2.927162">
        <ele>66.128</ele>
        <time>2019-06-15T19:58:15Z</time>
      </trkpt>
      <trkpt lat="43.415790" lon="-2.927296">
        <ele>65.259</ele>
        <time>2019-06-15T19:58:16Z</time>
      </trkpt>
      <trkpt lat="43.415773" lon="-2.927461">
        <ele>63.998</ele>
        <time>2019-06-15T19:58:17Z</time>
      </trkpt>
      <trkpt lat="43.415764" lon="-2.927621">
        <ele>63.152</ele>
        <time>2019-06-15T19:58:18Z</time>
      </trkpt>
      <trkpt lat="43.415746" lon="-2.927782">
        <ele>62.525</ele>
        <time>2019-06-15T19:58:19Z</time>
      </trkpt>
      <trkpt lat="43.415724" lon="-2.927956">
        <ele>61.826</ele>
        <time>2019-06-15T19:58:20Z</time>
      </trkpt>
      <trkpt lat="43.415668" lon="-2.928122">
        <ele>61.208</ele>
        <time>2019-06-15T19:58:21Z</time>
      </trkpt>
      <trkpt lat="43.415601" lon="-2.928296">
        <ele>61.108</ele>
        <time>2019-06-15T19:58:22Z</time>
      </trkpt>
      <trkpt lat="43.415529" lon="-2.928482">
        <ele>60.985</ele>
        <time>2019-06-15T19:58:23Z</time>
      </trkpt>
      <trkpt lat="43.415450" lon="-2.928675">
        <ele>59.779</ele>
        <time>2019-06-15T19:58:24Z</time>
      </trkpt>
      <trkpt lat="43.415371" lon="-2.928874">
        <ele>57.918</ele>
        <time>2019-06-15T19:58:25Z</time>
      </trkpt>
      <trkpt lat="43.415292" lon="-2.929067">
        <ele>57.887</ele>
        <time>2019-06-15T19:58:26Z</time>
      </trkpt>
      <trkpt lat="43.415238" lon="-2.929219">
        <ele>57.216</ele>
        <time>2019-06-15T19:58:27Z</time>
      </trkpt>
      <trkpt lat="43.415179" lon="-2.929368">
        <ele>56.657</ele>
        <time>2019-06-15T19:58:28Z</time>
      </trkpt>
      <trkpt lat="43.415118" lon="-2.929532">
        <ele>56.446</ele>
        <time>2019-06-15T19:58:29Z</time>
      </trkpt>
      <trkpt lat="43.415064" lon="-2.929644">
        <ele>56.620</ele>
        <time>2019-06-15T19:58:30Z</time>
      </trkpt>
      <trkpt lat="43.415025" lon="-2.929764">
        <ele>56.489</ele>
        <time>2019-06-15T19:58:31Z</time>
      </trkpt>
      <trkpt lat="43.415000" lon="-2.929881">
        <ele>55.906</ele>
        <time>2019-06-15T19:58:32Z</time>
      </trkpt>
      <trkpt lat="43.414991" lon="-2.929992">
        <ele>55.126</ele>
        <time>2019-06-15T19:58:33Z</time>
      </trkpt>
      <trkpt lat="43.414989" lon="-2.930079">
        <ele>54.808</ele>
        <time>2019-06-15T19:58:34Z</time>
      </trkpt>
      <trkpt lat="43.414979" lon="-2.930157">
        <ele>54.531</ele>
        <time>2019-06-15T19:58:35Z</time>
      </trkpt>
      <trkpt lat="43.414964" lon="-2.930217">
        <ele>54.375</ele>
        <time>2019-06-15T19:58:36Z</time>
      </trkpt>
      <trkpt lat="43.414909" lon="-2.930273">
        <ele>54.334</ele>
        <time>2019-06-15T19:58:38Z</time>
      </trkpt>
      <trkpt lat="43.414863" lon="-2.930264">
        <ele>54.583</ele>
        <time>2019-06-15T19:58:39Z</time>
      </trkpt>
      <trkpt lat="43.414816" lon="-2.930227">
        <ele>54.892</ele>
        <time>2019-06-15T19:58:40Z</time>
      </trkpt>
      <trkpt lat="43.414762" lon="-2.930181">
        <ele>55.283</ele>
        <time>2019-06-15T19:58:41Z</time>
      </trkpt>
      <trkpt lat="43.414705" lon="-2.930145">
        <ele>55.542</ele>
        <time>2019-06-15T19:58:42Z</time>
      </trkpt>
      <trkpt lat="43.414637" lon="-2.930123">
        <ele>55.946</ele>
        <time>2019-06-15T19:58:43Z</time>
      </trkpt>
      <trkpt lat="43.414559" lon="-2.930115">
        <ele>56.288</ele>
        <time>2019-06-15T19:58:44Z</time>
      </trkpt>
      <trkpt lat="43.414469" lon="-2.930118">
        <ele>56.524</ele>
        <time>2019-06-15T19:58:45Z</time>
      </trkpt>
      <trkpt lat="43.414394" lon="-2.930137">
        <ele>56.826</ele>
        <time>2019-06-15T19:58:46Z</time>
      </trkpt>
      <trkpt lat="43.414305" lon="-2.930170">
        <ele>57.108</ele>
        <time>2019-06-15T19:58:47Z</time>
      </trkpt>
      <trkpt lat="43.414213" lon="-2.930214">
        <ele>57.361</ele>
        <time>2019-06-15T19:58:48Z</time>
      </trkpt>
      <trkpt lat="43.414113" lon="-2.930282">
        <ele>57.035</ele>
        <time>2019-06-15T19:58:49Z</time>
      </trkpt>
      <trkpt lat="43.414019" lon="-2.930359">
        <ele>56.664</ele>
        <time>2019-06-15T19:58:50Z</time>
      </trkpt>
      <trkpt lat="43.413916" lon="-2.930451">
        <ele>56.343</ele>
        <time>2019-06-15T19:58:51Z</time>
      </trkpt>
      <trkpt lat="43.413806" lon="-2.930555">
        <ele>55.472</ele>
        <time>2019-06-15T19:58:52Z</time>
      </trkpt>
      <trkpt lat="43.413695" lon="-2.930666">
        <ele>54.113</ele>
        <time>2019-06-15T19:58:53Z</time>
      </trkpt>
      <trkpt lat="43.413583" lon="-2.930777">
        <ele>53.092</ele>
        <time>2019-06-15T19:58:54Z</time>
      </trkpt>
      <trkpt lat="43.413469" lon="-2.930885">
        <ele>51.756</ele>
        <time>2019-06-15T19:58:55Z</time>
      </trkpt>
      <trkpt lat="43.413366" lon="-2.930996">
        <ele>50.611</ele>
        <time>2019-06-15T19:58:56Z</time>
      </trkpt>
      <trkpt lat="43.413259" lon="-2.931096">
        <ele>49.821</ele>
        <time>2019-06-15T19:58:57Z</time>
      </trkpt>
      <trkpt lat="43.413174" lon="-2.931180">
        <ele>49.303</ele>
        <time>2019-06-15T19:58:58Z</time>
      </trkpt>
      <trkpt lat="43.413096" lon="-2.931254">
        <ele>49.108</ele>
        <time>2019-06-15T19:58:59Z</time>
      </trkpt>
      <trkpt lat="43.413008" lon="-2.931326">
        <ele>49.144</ele>
        <time>2019-06-15T19:59:00Z</time>
      </trkpt>
      <trkpt lat="43.412926" lon="-2.931404">
        <ele>48.928</ele>
        <time>2019-06-15T19:59:01Z</time>
      </trkpt>
      <trkpt lat="43.412839" lon="-2.931469">
        <ele>48.427</ele>
        <time>2019-06-15T19:59:02Z</time>
      </trkpt>
      <trkpt lat="43.412747" lon="-2.931523">
        <ele>48.036</ele>
        <time>2019-06-15T19:59:03Z</time>
      </trkpt>
      <trkpt lat="43.412661" lon="-2.931569">
        <ele>47.775</ele>
        <time>2019-06-15T19:59:04Z</time>
      </trkpt>
      <trkpt lat="43.412574" lon="-2.931607">
        <ele>47.456</ele>
        <time>2019-06-15T19:59:05Z</time>
      </trkpt>
      <trkpt lat="43.412493" lon="-2.931649">
        <ele>47.115</ele>
        <time>2019-06-15T19:59:06Z</time>
      </trkpt>
      <trkpt lat="43.412419" lon="-2.931690">
        <ele>46.699</ele>
        <time>2019-06-15T19:59:07Z</time>
      </trkpt>
      <trkpt lat="43.412341" lon="-2.931716">
        <ele>46.234</ele>
        <time>2019-06-15T19:59:08Z</time>
      </trkpt>
      <trkpt lat="43.412264" lon="-2.931754">
        <ele>45.855</ele>
        <time>2019-06-15T19:59:09Z</time>
      </trkpt>
      <trkpt lat="43.412183" lon="-2.931787">
        <ele>45.610</ele>
        <time>2019-06-15T19:59:10Z</time>
      </trkpt>
      <trkpt lat="43.412110" lon="-2.931823">
        <ele>45.608</ele>
        <time>2019-06-15T19:59:11Z</time>
      </trkpt>
      <trkpt lat="43.412044" lon="-2.931864">
        <ele>45.596</ele>
        <time>2019-06-15T19:59:12Z</time>
      </trkpt>
      <trkpt lat="43.411982" lon="-2.931918">
        <ele>45.220</ele>
        <time>2019-06-15T19:59:13Z</time>
      </trkpt>
      <trkpt lat="43.411919" lon="-2.931965">
        <ele>44.919</ele>
        <time>2019-06-15T19:59:14Z</time>
      </trkpt>
      <trkpt lat="43.411870" lon="-2.932017">
        <ele>44.758</ele>
        <time>2019-06-15T19:59:15Z</time>
      </trkpt>
      <trkpt lat="43.411834" lon="-2.932078">
        <ele>44.517</ele>
        <time>2019-06-15T19:59:16Z</time>
      </trkpt>
      <trkpt lat="43.411797" lon="-2.932125">
        <ele>44.428</ele>
        <time>2019-06-15T19:59:17Z</time>
      </trkpt>
      <trkpt lat="43.411753" lon="-2.932178">
        <ele>44.217</ele>
        <time>2019-06-15T19:59:18Z</time>
      </trkpt>
      <trkpt lat="43.411705" lon="-2.932239">
        <ele>43.931</ele>
        <time>2019-06-15T19:59:19Z</time>
      </trkpt>
      <trkpt lat="43.411667" lon="-2.932324">
        <ele>43.693</ele>
        <time>2019-06-15T19:59:20Z</time>
      </trkpt>
      <trkpt lat="43.411625" lon="-2.932394">
        <ele>43.465</ele>
        <time>2019-06-15T19:59:21Z</time>
      </trkpt>
      <trkpt lat="43.411588" lon="-2.932466">
        <ele>43.121</ele>
        <time>2019-06-15T19:59:22Z</time>
      </trkpt>
      <trkpt lat="43.411548" lon="-2.932542">
        <ele>42.808</ele>
        <time>2019-06-15T19:59:23Z</time>
      </trkpt>
      <trkpt lat="43.411510" lon="-2.932633">
        <ele>42.662</ele>
        <time>2019-06-15T19:59:24Z</time>
      </trkpt>
      <trkpt lat="43.411468" lon="-2.932734">
        <ele>42.536</ele>
        <time>2019-06-15T19:59:25Z</time>
      </trkpt>
      <trkpt lat="43.411425" lon="-2.932854">
        <ele>42.275</ele>
        <time>2019-06-15T19:59:26Z</time>
      </trkpt>
      <trkpt lat="43.411385" lon="-2.932965">
        <ele>41.674</ele>
        <time>2019-06-15T19:59:27Z</time>
      </trkpt>
      <trkpt lat="43.411364" lon="-2.933083">
        <ele>40.763</ele>
        <time>2019-06-15T19:59:28Z</time>
      </trkpt>
      <trkpt lat="43.411339" lon="-2.933194">
        <ele>39.864</ele>
        <time>2019-06-15T19:59:29Z</time>
      </trkpt>
      <trkpt lat="43.411324" lon="-2.933310">
        <ele>38.953</ele>
        <time>2019-06-15T19:59:30Z</time>
      </trkpt>
      <trkpt lat="43.411312" lon="-2.933416">
        <ele>38.747</ele>
        <time>2019-06-15T19:59:31Z</time>
      </trkpt>
      <trkpt lat="43.411301" lon="-2.933525">
        <ele>38.786</ele>
        <time>2019-06-15T19:59:32Z</time>
      </trkpt>
      <trkpt lat="43.411283" lon="-2.933623">
        <ele>38.760</ele>
        <time>2019-06-15T19:59:33Z</time>
      </trkpt>
      <trkpt lat="43.411273" lon="-2.933717">
        <ele>38.726</ele>
        <time>2019-06-15T19:59:34Z</time>
      </trkpt>
      <trkpt lat="43.411277" lon="-2.933821">
        <ele>38.508</ele>
        <time>2019-06-15T19:59:35Z</time>
      </trkpt>
      <trkpt lat="43.411276" lon="-2.933920">
        <ele>38.431</ele>
        <time>2019-06-15T19:59:36Z</time>
      </trkpt>
      <trkpt lat="43.411323" lon="-2.934035">
        <ele>38.145</ele>
        <time>2019-06-15T19:59:38Z</time>
      </trkpt>
      <trkpt lat="43.411322" lon="-2.934108">
        <ele>38.164</ele>
        <time>2019-06-15T19:59:39Z</time>
      </trkpt>
      <trkpt lat="43.411298" lon="-2.934167">
        <ele>38.083</ele>
        <time>2019-06-15T19:59:40Z</time>
      </trkpt>
      <trkpt lat="43.411270" lon="-2.934238">
        <ele>38.042</ele>
        <time>2019-06-15T19:59:41Z</time>
      </trkpt>
      <trkpt lat="43.411220" lon="-2.934271">
        <ele>38.043</ele>
        <time>2019-06-15T19:59:42Z</time>
      </trkpt>
      <trkpt lat="43.411162" lon="-2.934265">
        <ele>38.092</ele>
        <time>2019-06-15T19:59:43Z</time>
      </trkpt>
      <trkpt lat="43.411090" lon="-2.934223">
        <ele>38.116</ele>
        <time>2019-06-15T19:59:44Z</time>
      </trkpt>
      <trkpt lat="43.411000" lon="-2.934176">
        <ele>38.442</ele>
        <time>2019-06-15T19:59:45Z</time>
      </trkpt>
      <trkpt lat="43.410896" lon="-2.934139">
        <ele>38.922</ele>
        <time>2019-06-15T19:59:46Z</time>
      </trkpt>
      <trkpt lat="43.410780" lon="-2.934097">
        <ele>38.914</ele>
        <time>2019-06-15T19:59:47Z</time>
      </trkpt>
      <trkpt lat="43.410646" lon="-2.934062">
        <ele>38.308</ele>
        <time>2019-06-15T19:59:48Z</time>
      </trkpt>
      <trkpt lat="43.410503" lon="-2.934008">
        <ele>37.647</ele>
        <time>2019-06-15T19:59:49Z</time>
      </trkpt>
      <trkpt lat="43.410350" lon="-2.933939">
        <ele>36.951</ele>
        <time>2019-06-15T19:59:50Z</time>
      </trkpt>
      <trkpt lat="43.410196" lon="-2.933852">
        <ele>36.230</ele>
        <time>2019-06-15T19:59:51Z</time>
      </trkpt>
      <trkpt lat="43.410041" lon="-2.933732">
        <ele>35.319</ele>
        <time>2019-06-15T19:59:52Z</time>
      </trkpt>
      <trkpt lat="43.409873" lon="-2.933611">
        <ele>34.218</ele>
        <time>2019-06-15T19:59:53Z</time>
      </trkpt>
      <trkpt lat="43.409708" lon="-2.933477">
        <ele>33.289</ele>
        <time>2019-06-15T19:59:54Z</time>
      </trkpt>
      <trkpt lat="43.409535" lon="-2.933343">
        <ele>32.238</ele>
        <time>2019-06-15T19:59:55Z</time>
      </trkpt>
      <trkpt lat="43.409363" lon="-2.933205">
        <ele>30.492</ele>
        <time>2019-06-15T19:59:56Z</time>
      </trkpt>
      <trkpt lat="43.409198" lon="-2.933087">
        <ele>28.959</ele>
        <time>2019-06-15T19:59:57Z</time>
      </trkpt>
      <trkpt lat="43.409029" lon="-2.932964">
        <ele>28.303</ele>
        <time>2019-06-15T19:59:58Z</time>
      </trkpt>
      <trkpt lat="43.408874" lon="-2.932841">
        <ele>28.423</ele>
        <time>2019-06-15T19:59:59Z</time>
      </trkpt>
      <trkpt lat="43.408714" lon="-2.932714">
        <ele>27.508</ele>
        <time>2019-06-15T20:00:00Z</time>
      </trkpt>
      <trkpt lat="43.408542" lon="-2.932602">
        <ele>26.388</ele>
        <time>2019-06-15T20:00:01Z</time>
      </trkpt>
      <trkpt lat="43.408361" lon="-2.932509">
        <ele>25.352</ele>
        <time>2019-06-15T20:00:02Z</time>
      </trkpt>
      <trkpt lat="43.408170" lon="-2.932444">
        <ele>25.141</ele>
        <time>2019-06-15T20:00:03Z</time>
      </trkpt>
      <trkpt lat="43.407976" lon="-2.932406">
        <ele>25.470</ele>
        <time>2019-06-15T20:00:04Z</time>
      </trkpt>
      <trkpt lat="43.407776" lon="-2.932390">
        <ele>26.249</ele>
        <time>2019-06-15T20:00:05Z</time>
      </trkpt>
      <trkpt lat="43.407563" lon="-2.932400">
        <ele>27.530</ele>
        <time>2019-06-15T20:00:06Z</time>
      </trkpt>
      <trkpt lat="43.407355" lon="-2.932408">
        <ele>28.529</ele>
        <time>2019-06-15T20:00:07Z</time>
      </trkpt>
      <trkpt lat="43.407165" lon="-2.932411">
        <ele>29.363</ele>
        <time>2019-06-15T20:00:08Z</time>
      </trkpt>
      <trkpt lat="43.406982" lon="-2.932408">
        <ele>30.286</ele>
        <time>2019-06-15T20:00:09Z</time>
      </trkpt>
      <trkpt lat="43.406803" lon="-2.932417">
        <ele>30.760</ele>
        <time>2019-06-15T20:00:10Z</time>
      </trkpt>
      <trkpt lat="43.406641" lon="-2.932432">
        <ele>31.126</ele>
        <time>2019-06-15T20:00:11Z</time>
      </trkpt>
      <trkpt lat="43.406484" lon="-2.932472">
        <ele>31.708</ele>
        <time>2019-06-15T20:00:12Z</time>
      </trkpt>
      <trkpt lat="43.406343" lon="-2.932531">
        <ele>32.491</ele>
        <time>2019-06-15T20:00:13Z</time>
      </trkpt>
      <trkpt lat="43.406210" lon="-2.932623">
        <ele>33.425</ele>
        <time>2019-06-15T20:00:14Z</time>
      </trkpt>
      <trkpt lat="43.406083" lon="-2.932740">
        <ele>34.314</ele>
        <time>2019-06-15T20:00:15Z</time>
      </trkpt>
      <trkpt lat="43.405964" lon="-2.932883">
        <ele>35.413</ele>
        <time>2019-06-15T20:00:16Z</time>
      </trkpt>
      <trkpt lat="43.405859" lon="-2.933037">
        <ele>36.652</ele>
        <time>2019-06-15T20:00:17Z</time>
      </trkpt>
      <trkpt lat="43.405762" lon="-2.933202">
        <ele>37.663</ele>
        <time>2019-06-15T20:00:18Z</time>
      </trkpt>
      <trkpt lat="43.405665" lon="-2.933361">
        <ele>39.052</ele>
        <time>2019-06-15T20:00:19Z</time>
      </trkpt>
      <trkpt lat="43.405570" lon="-2.933485">
        <ele>40.276</ele>
        <time>2019-06-15T20:00:20Z</time>
      </trkpt>
      <trkpt lat="43.405468" lon="-2.933593">
        <ele>41.313</ele>
        <time>2019-06-15T20:00:21Z</time>
      </trkpt>
      <trkpt lat="43.405366" lon="-2.933673">
        <ele>42.143</ele>
        <time>2019-06-15T20:00:22Z</time>
      </trkpt>
      <trkpt lat="43.405268" lon="-2.933723">
        <ele>42.907</ele>
        <time>2019-06-15T20:00:23Z</time>
      </trkpt>
      <trkpt lat="43.405162" lon="-2.933763">
        <ele>43.208</ele>
        <time>2019-06-15T20:00:24Z</time>
      </trkpt>
      <trkpt lat="43.405060" lon="-2.933817">
        <ele>43.794</ele>
        <time>2019-06-15T20:00:25Z</time>
      </trkpt>
      <trkpt lat="43.404947" lon="-2.933870">
        <ele>44.278</ele>
        <time>2019-06-15T20:00:26Z</time>
      </trkpt>
      <trkpt lat="43.404845" lon="-2.933954">
        <ele>44.327</ele>
        <time>2019-06-15T20:00:27Z</time>
      </trkpt>
      <trkpt lat="43.404749" lon="-2.934070">
        <ele>44.356</ele>
        <time>2019-06-15T20:00:28Z</time>
      </trkpt>
      <trkpt lat="43.404655" lon="-2.934200">
        <ele>44.065</ele>
        <time>2019-06-15T20:00:29Z</time>
      </trkpt>
      <trkpt lat="43.404583" lon="-2.934338">
        <ele>44.076</ele>
        <time>2019-06-15T20:00:30Z</time>
      </trkpt>
      <trkpt lat="43.404519" lon="-2.934487">
        <ele>44.065</ele>
        <time>2019-06-15T20:00:31Z</time>
      </trkpt>
      <trkpt lat="43.404461" lon="-2.934630">
        <ele>44.019</ele>
        <time>2019-06-15T20:00:32Z</time>
      </trkpt>
      <trkpt lat="43.404408" lon="-2.934778">
        <ele>43.983</ele>
        <time>2019-06-15T20:00:33Z</time>
      </trkpt>
      <trkpt lat="43.404356" lon="-2.934919">
        <ele>43.925</ele>
        <time>2019-06-15T20:00:34Z</time>
      </trkpt>
      <trkpt lat="43.404303" lon="-2.935055">
        <ele>44.117</ele>
        <time>2019-06-15T20:00:35Z</time>
      </trkpt>
      <trkpt lat="43.404252" lon="-2.935186">
        <ele>44.208</ele>
        <time>2019-06-15T20:00:36Z</time>
      </trkpt>
      <trkpt lat="43.404207" lon="-2.935307">
        <ele>44.261</ele>
        <time>2019-06-15T20:00:37Z</time>
      </trkpt>
      <trkpt lat="43.404169" lon="-2.935429">
        <ele>44.645</ele>
        <time>2019-06-15T20:00:38Z</time>
      </trkpt>
      <trkpt lat="43.404125" lon="-2.935545">
        <ele>44.874</ele>
        <time>2019-06-15T20:00:39Z</time>
      </trkpt>
      <trkpt lat="43.404090" lon="-2.935656">
        <ele>45.253</ele>
        <time>2019-06-15T20:00:40Z</time>
      </trkpt>
      <trkpt lat="43.404057" lon="-2.935763">
        <ele>45.512</ele>
        <time>2019-06-15T20:00:41Z</time>
      </trkpt>
      <trkpt lat="43.404028" lon="-2.935880">
        <ele>45.573</ele>
        <time>2019-06-15T20:00:42Z</time>
      </trkpt>
      <trkpt lat="43.403998" lon="-2.935997">
        <ele>45.222</ele>
        <time>2019-06-15T20:00:43Z</time>
      </trkpt>
      <trkpt lat="43.403960" lon="-2.936119">
        <ele>44.826</ele>
        <time>2019-06-15T20:00:44Z</time>
      </trkpt>
      <trkpt lat="43.403944" lon="-2.936235">
        <ele>44.715</ele>
        <time>2019-06-15T20:00:45Z</time>
      </trkpt>
      <trkpt lat="43.403946" lon="-2.936347">
        <ele>44.865</ele>
        <time>2019-06-15T20:00:46Z</time>
      </trkpt>
      <trkpt lat="43.403955" lon="-2.936476">
        <ele>44.911</ele>
        <time>2019-06-15T20:00:47Z</time>
      </trkpt>
      <trkpt lat="43.403973" lon="-2.936596">
        <ele>45.008</ele>
        <time>2019-06-15T20:00:48Z</time>
      </trkpt>
      <trkpt lat="43.403974" lon="-2.936710">
        <ele>44.854</ele>
        <time>2019-06-15T20:00:49Z</time>
      </trkpt>
      <trkpt lat="43.403948" lon="-2.936809">
        <ele>44.128</ele>
        <time>2019-06-15T20:00:50Z</time>
      </trkpt>
      <trkpt lat="43.403907" lon="-2.936899">
        <ele>43.437</ele>
        <time>2019-06-15T20:00:51Z</time>
      </trkpt>
      <trkpt lat="43.403849" lon="-2.936975">
        <ele>42.886</ele>
        <time>2019-06-15T20:00:52Z</time>
      </trkpt>
      <trkpt lat="43.403785" lon="-2.937057">
        <ele>42.565</ele>
        <time>2019-06-15T20:00:53Z</time>
      </trkpt>
      <trkpt lat="43.403719" lon="-2.937153">
        <ele>41.996</ele>
        <time>2019-06-15T20:00:54Z</time>
      </trkpt>
      <trkpt lat="43.403659" lon="-2.937286">
        <ele>41.175</ele>
        <time>2019-06-15T20:00:55Z</time>
      </trkpt>
      <trkpt lat="43.403602" lon="-2.937430">
        <ele>40.399</ele>
        <time>2019-06-15T20:00:56Z</time>
      </trkpt>
      <trkpt lat="43.403529" lon="-2.937594">
        <ele>39.792</ele>
        <time>2019-06-15T20:00:57Z</time>
      </trkpt>
      <trkpt lat="43.403457" lon="-2.937784">
        <ele>39.073</ele>
        <time>2019-06-15T20:00:58Z</time>
      </trkpt>
      <trkpt lat="43.403384" lon="-2.937969">
        <ele>37.720</ele>
        <time>2019-06-15T20:00:59Z</time>
      </trkpt>
      <trkpt lat="43.403303" lon="-2.938173">
        <ele>36.808</ele>
        <time>2019-06-15T20:01:00Z</time>
      </trkpt>
      <trkpt lat="43.403229" lon="-2.938367">
        <ele>36.342</ele>
        <time>2019-06-15T20:01:01Z</time>
      </trkpt>
      <trkpt lat="43.403158" lon="-2.938561">
        <ele>35.636</ele>
        <time>2019-06-15T20:01:02Z</time>
      </trkpt>
      <trkpt lat="43.403084" lon="-2.938752">
        <ele>34.155</ele>
        <time>2019-06-15T20:01:03Z</time>
      </trkpt>
      <trkpt lat="43.403011" lon="-2.938938">
        <ele>33.264</ele>
        <time>2019-06-15T20:01:04Z</time>
      </trkpt>
      <trkpt lat="43.402943" lon="-2.939119">
        <ele>32.533</ele>
        <time>2019-06-15T20:01:05Z</time>
      </trkpt>
      <trkpt lat="43.402873" lon="-2.939294">
        <ele>31.134</ele>
        <time>2019-06-15T20:01:06Z</time>
      </trkpt>
      <trkpt lat="43.402806" lon="-2.939471">
        <ele>29.483</ele>
        <time>2019-06-15T20:01:07Z</time>
      </trkpt>
      <trkpt lat="43.402741" lon="-2.939647">
        <ele>28.837</ele>
        <time>2019-06-15T20:01:08Z</time>
      </trkpt>
      <trkpt lat="43.402680" lon="-2.939822">
        <ele>27.839</ele>
        <time>2019-06-15T20:01:09Z</time>
      </trkpt>
      <trkpt lat="43.402611" lon="-2.940009">
        <ele>26.201</ele>
        <time>2019-06-15T20:01:10Z</time>
      </trkpt>
      <trkpt lat="43.402544" lon="-2.940215">
        <ele>24.721</ele>
        <time>2019-06-15T20:01:11Z</time>
      </trkpt>
      <trkpt lat="43.402480" lon="-2.940412">
        <ele>23.008</ele>
        <time>2019-06-15T20:01:12Z</time>
      </trkpt>
      <trkpt lat="43.402417" lon="-2.940601">
        <ele>21.596</ele>
        <time>2019-06-15T20:01:13Z</time>
      </trkpt>
      <trkpt lat="43.402355" lon="-2.940792">
        <ele>20.290</ele>
        <time>2019-06-15T20:01:14Z</time>
      </trkpt>
      <trkpt lat="43.402301" lon="-2.940980">
        <ele>19.369</ele>
        <time>2019-06-15T20:01:15Z</time>
      </trkpt>
      <trkpt lat="43.402242" lon="-2.941168">
        <ele>18.118</ele>
        <time>2019-06-15T20:01:16Z</time>
      </trkpt>
      <trkpt lat="43.402186" lon="-2.941351">
        <ele>16.697</ele>
        <time>2019-06-15T20:01:17Z</time>
      </trkpt>
      <trkpt lat="43.402133" lon="-2.941535">
        <ele>15.568</ele>
        <time>2019-06-15T20:01:18Z</time>
      </trkpt>
      <trkpt lat="43.402081" lon="-2.941714">
        <ele>14.597</ele>
        <time>2019-06-15T20:01:19Z</time>
      </trkpt>
      <trkpt lat="43.402027" lon="-2.941886">
        <ele>13.731</ele>
        <time>2019-06-15T20:01:20Z</time>
      </trkpt>
      <trkpt lat="43.401979" lon="-2.942048">
        <ele>12.431</ele>
        <time>2019-06-15T20:01:21Z</time>
      </trkpt>
      <trkpt lat="43.401932" lon="-2.942203">
        <ele>11.061</ele>
        <time>2019-06-15T20:01:22Z</time>
      </trkpt>
      <trkpt lat="43.401894" lon="-2.942350">
        <ele>10.807</ele>
        <time>2019-06-15T20:01:23Z</time>
      </trkpt>
      <trkpt lat="43.401867" lon="-2.942475">
        <ele>10.708</ele>
        <time>2019-06-15T20:01:24Z</time>
      </trkpt>
      <trkpt lat="43.401853" lon="-2.942585">
        <ele>10.326</ele>
        <time>2019-06-15T20:01:25Z</time>
      </trkpt>
      <trkpt lat="43.401852" lon="-2.942687">
        <ele>9.880</ele>
        <time>2019-06-15T20:01:26Z</time>
      </trkpt>
      <trkpt lat="43.401846" lon="-2.942792">
        <ele>9.349</ele>
        <time>2019-06-15T20:01:27Z</time>
      </trkpt>
      <trkpt lat="43.401823" lon="-2.942898">
        <ele>9.288</ele>
        <time>2019-06-15T20:01:28Z</time>
      </trkpt>
      <trkpt lat="43.401772" lon="-2.942995">
        <ele>9.147</ele>
        <time>2019-06-15T20:01:29Z</time>
      </trkpt>
      <trkpt lat="43.401703" lon="-2.943098">
        <ele>8.588</ele>
        <time>2019-06-15T20:01:30Z</time>
      </trkpt>
      <trkpt lat="43.401610" lon="-2.943193">
        <ele>7.677</ele>
        <time>2019-06-15T20:01:31Z</time>
      </trkpt>
      <trkpt lat="43.401516" lon="-2.943309">
        <ele>7.221</ele>
        <time>2019-06-15T20:01:32Z</time>
      </trkpt>
      <trkpt lat="43.401416" lon="-2.943422">
        <ele>6.578</ele>
        <time>2019-06-15T20:01:33Z</time>
      </trkpt>
      <trkpt lat="43.401297" lon="-2.943520">
        <ele>5.633</ele>
        <time>2019-06-15T20:01:34Z</time>
      </trkpt>
      <trkpt lat="43.401172" lon="-2.943598">
        <ele>5.626</ele>
        <time>2019-06-15T20:01:35Z</time>
      </trkpt>
      <trkpt lat="43.401034" lon="-2.943655">
        <ele>5.408</ele>
        <time>2019-06-15T20:01:36Z</time>
      </trkpt>
      <trkpt lat="43.400902" lon="-2.943718">
        <ele>4.530</ele>
        <time>2019-06-15T20:01:37Z</time>
      </trkpt>
      <trkpt lat="43.400757" lon="-2.943714">
        <ele>4.394</ele>
        <time>2019-06-15T20:01:38Z</time>
      </trkpt>
      <trkpt lat="43.400612" lon="-2.943711">
        <ele>4.123</ele>
        <time>2019-06-15T20:01:39Z</time>
      </trkpt>
      <trkpt lat="43.400465" lon="-2.943725">
        <ele>3.992</ele>
        <time>2019-06-15T20:01:40Z</time>
      </trkpt>
      <trkpt lat="43.400329" lon="-2.943736">
        <ele>4.011</ele>
        <time>2019-06-15T20:01:41Z</time>
      </trkpt>
      <trkpt lat="43.400188" lon="-2.943751">
        <ele>4.212</ele>
        <time>2019-06-15T20:01:42Z</time>
      </trkpt>
      <trkpt lat="43.400054" lon="-2.943757">
        <ele>4.461</ele>
        <time>2019-06-15T20:01:43Z</time>
      </trkpt>
      <trkpt lat="43.399910" lon="-2.943776">
        <ele>4.765</ele>
        <time>2019-06-15T20:01:44Z</time>
      </trkpt>
      <trkpt lat="43.399758" lon="-2.943791">
        <ele>5.256</ele>
        <time>2019-06-15T20:01:45Z</time>
      </trkpt>
      <trkpt lat="43.399605" lon="-2.943815">
        <ele>4.859</ele>
        <time>2019-06-15T20:01:46Z</time>
      </trkpt>
      <trkpt lat="43.399461" lon="-2.943831">
        <ele>4.314</ele>
        <time>2019-06-15T20:01:47Z</time>
      </trkpt>
      <trkpt lat="43.399320" lon="-2.943844">
        <ele>4.208</ele>
        <time>2019-06-15T20:01:48Z</time>
      </trkpt>
      <trkpt lat="43.399173" lon="-2.943860">
        <ele>4.148</ele>
        <time>2019-06-15T20:01:49Z</time>
      </trkpt>
      <trkpt lat="43.399018" lon="-2.943867">
        <ele>2.482</ele>
        <time>2019-06-15T20:01:50Z</time>
      </trkpt>
      <trkpt lat="43.398870" lon="-2.943873">
        <ele>1.011</ele>
        <time>2019-06-15T20:01:51Z</time>
      </trkpt>
      <trkpt lat="43.398733" lon="-2.943878">
        <ele>1.040</ele>
        <time>2019-06-15T20:01:52Z</time>
      </trkpt>
      <trkpt lat="43.398599" lon="-2.943893">
        <ele>1.079</ele>
        <time>2019-06-15T20:01:53Z</time>
      </trkpt>
      <trkpt lat="43.398464" lon="-2.943903">
        <ele>1.020</ele>
        <time>2019-06-15T20:01:54Z</time>
      </trkpt>
      <trkpt lat="43.398338" lon="-2.943915">
        <ele>1.069</ele>
        <time>2019-06-15T20:01:55Z</time>
      </trkpt>
      <trkpt lat="43.398221" lon="-2.943929">
        <ele>1.013</ele>
        <time>2019-06-15T20:01:56Z</time>
      </trkpt>
      <trkpt lat="43.398100" lon="-2.943941">
        <ele>1.079</ele>
        <time>2019-06-15T20:01:57Z</time>
      </trkpt>
      <trkpt lat="43.397977" lon="-2.943958">
        <ele>1.005</ele>
        <time>2019-06-15T20:01:58Z</time>
      </trkpt>
      <trkpt lat="43.397856" lon="-2.943971">
        <ele>1.025</ele>
        <time>2019-06-15T20:01:59Z</time>
      </trkpt>
      <trkpt lat="43.397734" lon="-2.943974">
        <ele>1.308</ele>
        <time>2019-06-15T20:02:00Z</time>
      </trkpt>
      <trkpt lat="43.397618" lon="-2.943989">
        <ele>2.040</ele>
        <time>2019-06-15T20:02:01Z</time>
      </trkpt>
      <trkpt lat="43.397495" lon="-2.943999">
        <ele>2.854</ele>
        <time>2019-06-15T20:02:02Z</time>
      </trkpt>
      <trkpt lat="43.397380" lon="-2.944009">
        <ele>3.833</ele>
        <time>2019-06-15T20:02:03Z</time>
      </trkpt>
      <trkpt lat="43.397266" lon="-2.944016">
        <ele>4.732</ele>
        <time>2019-06-15T20:02:04Z</time>
      </trkpt>
      <trkpt lat="43.397160" lon="-2.944019">
        <ele>5.241</ele>
        <time>2019-06-15T20:02:05Z</time>
      </trkpt>
      <trkpt lat="43.397060" lon="-2.944022">
        <ele>5.362</ele>
        <time>2019-06-15T20:02:06Z</time>
      </trkpt>
      <trkpt lat="43.396971" lon="-2.944035">
        <ele>5.471</ele>
        <time>2019-06-15T20:02:07Z</time>
      </trkpt>
      <trkpt lat="43.396892" lon="-2.944053">
        <ele>5.445</ele>
        <time>2019-06-15T20:02:08Z</time>
      </trkpt>
      <trkpt lat="43.396824" lon="-2.944088">
        <ele>5.576</ele>
        <time>2019-06-15T20:02:09Z</time>
      </trkpt>
      <trkpt lat="43.396769" lon="-2.944142">
        <ele>5.690</ele>
        <time>2019-06-15T20:02:10Z</time>
      </trkpt>
      <trkpt lat="43.396720" lon="-2.944224">
        <ele>5.819</ele>
        <time>2019-06-15T20:02:11Z</time>
      </trkpt>
      <trkpt lat="43.396685" lon="-2.944329">
        <ele>5.908</ele>
        <time>2019-06-15T20:02:12Z</time>
      </trkpt>
      <trkpt lat="43.396667" lon="-2.944448">
        <ele>6.070</ele>
        <time>2019-06-15T20:02:13Z</time>
      </trkpt>
      <trkpt lat="43.396680" lon="-2.944573">
        <ele>6.464</ele>
        <time>2019-06-15T20:02:14Z</time>
      </trkpt>
      <trkpt lat="43.396719" lon="-2.944691">
        <ele>6.573</ele>
        <time>2019-06-15T20:02:15Z</time>
      </trkpt>
      <trkpt lat="43.396782" lon="-2.944834">
        <ele>6.872</ele>
        <time>2019-06-15T20:02:16Z</time>
      </trkpt>
      <trkpt lat="43.396859" lon="-2.944974">
        <ele>6.891</ele>
        <time>2019-06-15T20:02:17Z</time>
      </trkpt>
      <trkpt lat="43.396949" lon="-2.945115">
        <ele>6.882</ele>
        <time>2019-06-15T20:02:18Z</time>
      </trkpt>
      <trkpt lat="43.397053" lon="-2.945221">
        <ele>6.911</ele>
        <time>2019-06-15T20:02:19Z</time>
      </trkpt>
      <trkpt lat="43.397156" lon="-2.945349">
        <ele>7.045</ele>
        <time>2019-06-15T20:02:20Z</time>
      </trkpt>
      <trkpt lat="43.397259" lon="-2.945492">
        <ele>7.262</ele>
        <time>2019-06-15T20:02:21Z</time>
      </trkpt>
      <trkpt lat="43.397362" lon="-2.945634">
        <ele>7.283</ele>
        <time>2019-06-15T20:02:22Z</time>
      </trkpt>
      <trkpt lat="43.397463" lon="-2.945760">
        <ele>7.011</ele>
        <time>2019-06-15T20:02:23Z</time>
      </trkpt>
      <trkpt lat="43.397556" lon="-2.945875">
        <ele>6.908</ele>
        <time>2019-06-15T20:02:24Z</time>
      </trkpt>
      <trkpt lat="43.397640" lon="-2.945985">
        <ele>7.179</ele>
        <time>2019-06-15T20:02:25Z</time>
      </trkpt>
      <trkpt lat="43.397728" lon="-2.946099">
        <ele>6.883</ele>
        <time>2019-06-15T20:02:26Z</time>
      </trkpt>
      <trkpt lat="43.397822" lon="-2.946202">
        <ele>7.122</ele>
        <time>2019-06-15T20:02:27Z</time>
      </trkpt>
      <trkpt lat="43.397919" lon="-2.946301">
        <ele>7.071</ele>
        <time>2019-06-15T20:02:28Z</time>
      </trkpt>
      <trkpt lat="43.398014" lon="-2.946393">
        <ele>6.080</ele>
        <time>2019-06-15T20:02:29Z</time>
      </trkpt>
      <trkpt lat="43.398126" lon="-2.946481">
        <ele>6.771</ele>
        <time>2019-06-15T20:02:30Z</time>
      </trkpt>
      <trkpt lat="43.398246" lon="-2.946548">
        <ele>6.920</ele>
        <time>2019-06-15T20:02:31Z</time>
      </trkpt>
      <trkpt lat="43.398382" lon="-2.946584">
        <ele>6.284</ele>
        <time>2019-06-15T20:02:32Z</time>
      </trkpt>
      <trkpt lat="43.398517" lon="-2.946607">
        <ele>5.873</ele>
        <time>2019-06-15T20:02:33Z</time>
      </trkpt>
      <trkpt lat="43.398651" lon="-2.946621">
        <ele>5.585</ele>
        <time>2019-06-15T20:02:34Z</time>
      </trkpt>
      <trkpt lat="43.398785" lon="-2.946633">
        <ele>5.613</ele>
        <time>2019-06-15T20:02:35Z</time>
      </trkpt>
      <trkpt lat="43.398913" lon="-2.946628">
        <ele>5.608</ele>
        <time>2019-06-15T20:02:36Z</time>
      </trkpt>
      <trkpt lat="43.399049" lon="-2.946609">
        <ele>6.280</ele>
        <time>2019-06-15T20:02:37Z</time>
      </trkpt>
      <trkpt lat="43.399168" lon="-2.946568">
        <ele>6.224</ele>
        <time>2019-06-15T20:02:38Z</time>
      </trkpt>
      <trkpt lat="43.399282" lon="-2.946528">
        <ele>6.833</ele>
        <time>2019-06-15T20:02:39Z</time>
      </trkpt>
      <trkpt lat="43.399404" lon="-2.946492">
        <ele>7.062</ele>
        <time>2019-06-15T20:02:40Z</time>
      </trkpt>
      <trkpt lat="43.399526" lon="-2.946449">
        <ele>6.281</ele>
        <time>2019-06-15T20:02:41Z</time>
      </trkpt>
      <trkpt lat="43.399650" lon="-2.946392">
        <ele>4.852</ele>
        <time>2019-06-15T20:02:42Z</time>
      </trkpt>
      <trkpt lat="43.399762" lon="-2.946340">
        <ele>4.371</ele>
        <time>2019-06-15T20:02:43Z</time>
      </trkpt>
      <trkpt lat="43.399877" lon="-2.946290">
        <ele>3.845</ele>
        <time>2019-06-15T20:02:44Z</time>
      </trkpt>
      <trkpt lat="43.399994" lon="-2.946240">
        <ele>3.426</ele>
        <time>2019-06-15T20:02:45Z</time>
      </trkpt>
      <trkpt lat="43.400126" lon="-2.946205">
        <ele>3.347</ele>
        <time>2019-06-15T20:02:46Z</time>
      </trkpt>
      <trkpt lat="43.400262" lon="-2.946177">
        <ele>3.411</ele>
        <time>2019-06-15T20:02:47Z</time>
      </trkpt>
      <trkpt lat="43.400391" lon="-2.946157">
        <ele>3.308</ele>
        <time>2019-06-15T20:02:48Z</time>
      </trkpt>
      <trkpt lat="43.400517" lon="-2.946148">
        <ele>3.215</ele>
        <time>2019-06-15T20:02:49Z</time>
      </trkpt>
      <trkpt lat="43.400642" lon="-2.946142">
        <ele>3.149</ele>
        <time>2019-06-15T20:02:50Z</time>
      </trkpt>
      <trkpt lat="43.400768" lon="-2.946139">
        <ele>3.188</ele>
        <time>2019-06-15T20:02:51Z</time>
      </trkpt>
      <trkpt lat="43.400895" lon="-2.946135">
        <ele>3.127</ele>
        <time>2019-06-15T20:02:52Z</time>
      </trkpt>
      <trkpt lat="43.401020" lon="-2.946134">
        <ele>3.116</ele>
        <time>2019-06-15T20:02:53Z</time>
      </trkpt>
      <trkpt lat="43.401141" lon="-2.946135">
        <ele>3.117</ele>
        <time>2019-06-15T20:02:54Z</time>
      </trkpt>
      <trkpt lat="43.401259" lon="-2.946135">
        <ele>3.186</ele>
        <time>2019-06-15T20:02:55Z</time>
      </trkpt>
      <trkpt lat="43.401362" lon="-2.946152">
        <ele>3.110</ele>
        <time>2019-06-15T20:02:56Z</time>
      </trkpt>
      <trkpt lat="43.401459" lon="-2.946156">
        <ele>3.232</ele>
        <time>2019-06-15T20:02:57Z</time>
      </trkpt>
      <trkpt lat="43.401560" lon="-2.946152">
        <ele>3.192</ele>
        <time>2019-06-15T20:02:58Z</time>
      </trkpt>
      <trkpt lat="43.401646" lon="-2.946170">
        <ele>3.211</ele>
        <time>2019-06-15T20:03:00Z</time>
      </trkpt>
      <trkpt lat="43.401694" lon="-2.946173">
        <ele>3.108</ele>
        <time>2019-06-15T20:03:01Z</time>
      </trkpt>
      <trkpt lat="43.401763" lon="-2.946179">
        <ele>2.986</ele>
        <time>2019-06-15T20:03:03Z</time>
      </trkpt>
      <trkpt lat="43.401837" lon="-2.946192">
        <ele>2.790</ele>
        <time>2019-06-15T20:03:27Z</time>
      </trkpt>
      <trkpt lat="43.401894" lon="-2.946227">
        <ele>2.659</ele>
        <time>2019-06-15T20:03:28Z</time>
      </trkpt>
      <trkpt lat="43.401949" lon="-2.946291">
        <ele>2.618</ele>
        <time>2019-06-15T20:03:29Z</time>
      </trkpt>
      <trkpt lat="43.401982" lon="-2.946380">
        <ele>2.777</ele>
        <time>2019-06-15T20:03:30Z</time>
      </trkpt>
      <trkpt lat="43.402026" lon="-2.946501">
        <ele>2.748</ele>
        <time>2019-06-15T20:03:31Z</time>
      </trkpt>
      <trkpt lat="43.402079" lon="-2.946631">
        <ele>2.557</ele>
        <time>2019-06-15T20:03:32Z</time>
      </trkpt>
      <trkpt lat="43.402125" lon="-2.946752">
        <ele>2.051</ele>
        <time>2019-06-15T20:03:33Z</time>
      </trkpt>
      <trkpt lat="43.402173" lon="-2.946889">
        <ele>1.941</ele>
        <time>2019-06-15T20:03:34Z</time>
      </trkpt>
      <trkpt lat="43.402222" lon="-2.947042">
        <ele>2.081</ele>
        <time>2019-06-15T20:03:35Z</time>
      </trkpt>
      <trkpt lat="43.402274" lon="-2.947212">
        <ele>1.809</ele>
        <time>2019-06-15T20:03:36Z</time>
      </trkpt>
      <trkpt lat="43.402324" lon="-2.947397">
        <ele>1.608</ele>
        <time>2019-06-15T20:03:37Z</time>
      </trkpt>
      <trkpt lat="43.402385" lon="-2.947590">
        <ele>1.427</ele>
        <time>2019-06-15T20:03:38Z</time>
      </trkpt>
      <trkpt lat="43.402449" lon="-2.947797">
        <ele>1.231</ele>
        <time>2019-06-15T20:03:39Z</time>
      </trkpt>
      <trkpt lat="43.402508" lon="-2.948027">
        <ele>1.910</ele>
        <time>2019-06-15T20:03:40Z</time>
      </trkpt>
      <trkpt lat="43.402583" lon="-2.948276">
        <ele>1.779</ele>
        <time>2019-06-15T20:03:41Z</time>
      </trkpt>
      <trkpt lat="43.402655" lon="-2.948539">
        <ele>1.458</ele>
        <time>2019-06-15T20:03:42Z</time>
      </trkpt>
      <trkpt lat="43.402728" lon="-2.948804">
        <ele>1.639</ele>
        <time>2019-06-15T20:03:43Z</time>
      </trkpt>
      <trkpt lat="43.402796" lon="-2.949064">
        <ele>1.948</ele>
        <time>2019-06-15T20:03:44Z</time>
      </trkpt>
      <trkpt lat="43.402881" lon="-2.949329">
        <ele>1.692</ele>
        <time>2019-06-15T20:03:45Z</time>
      </trkpt>
      <trkpt lat="43.402964" lon="-2.949605">
        <ele>1.579</ele>
        <time>2019-06-15T20:03:46Z</time>
      </trkpt>
      <trkpt lat="43.403048" lon="-2.949887">
        <ele>2.005</ele>
        <time>2019-06-15T20:03:47Z</time>
      </trkpt>
      <trkpt lat="43.403113" lon="-2.950157">
        <ele>1.825</ele>
        <time>2019-06-15T20:03:48Z</time>
      </trkpt>
      <trkpt lat="43.403195" lon="-2.950424">
        <ele>1.508</ele>
        <time>2019-06-15T20:03:49Z</time>
      </trkpt>
      <trkpt lat="43.403272" lon="-2.950692">
        <ele>1.540</ele>
        <time>2019-06-15T20:03:50Z</time>
      </trkpt>
      <trkpt lat="43.403345" lon="-2.950942">
        <ele>2.334</ele>
        <time>2019-06-15T20:03:51Z</time>
      </trkpt>
      <trkpt lat="43.403415" lon="-2.951206">
        <ele>2.213</ele>
        <time>2019-06-15T20:03:52Z</time>
      </trkpt>
      <trkpt lat="43.403488" lon="-2.951468">
        <ele>1.872</ele>
        <time>2019-06-15T20:03:53Z</time>
      </trkpt>
      <trkpt lat="43.403554" lon="-2.951725">
        <ele>2.891</ele>
        <time>2019-06-15T20:03:54Z</time>
      </trkpt>
      <trkpt lat="43.403622" lon="-2.951971">
        <ele>3.062</ele>
        <time>2019-06-15T20:03:55Z</time>
      </trkpt>
      <trkpt lat="43.403689" lon="-2.952205">
        <ele>3.311</ele>
        <time>2019-06-15T20:03:56Z</time>
      </trkpt>
      <trkpt lat="43.403752" lon="-2.952431">
        <ele>3.165</ele>
        <time>2019-06-15T20:03:57Z</time>
      </trkpt>
      <trkpt lat="43.403815" lon="-2.952646">
        <ele>3.316</ele>
        <time>2019-06-15T20:03:58Z</time>
      </trkpt>
      <trkpt lat="43.403871" lon="-2.952852">
        <ele>3.676</ele>
        <time>2019-06-15T20:03:59Z</time>
      </trkpt>
      <trkpt lat="43.403922" lon="-2.953045">
        <ele>3.013</ele>
        <time>2019-06-15T20:04:00Z</time>
      </trkpt>
      <trkpt lat="43.403980" lon="-2.953210">
        <ele>2.808</ele>
        <time>2019-06-15T20:04:01Z</time>
      </trkpt>
      <trkpt lat="43.404029" lon="-2.953360">
        <ele>3.144</ele>
        <time>2019-06-15T20:04:02Z</time>
      </trkpt>
      <trkpt lat="43.404074" lon="-2.953509">
        <ele>3.848</ele>
        <time>2019-06-15T20:04:03Z</time>
      </trkpt>
      <trkpt lat="43.404085" lon="-2.953628">
        <ele>4.277</ele>
        <time>2019-06-15T20:04:04Z</time>
      </trkpt>
      <trkpt lat="43.404082" lon="-2.953743">
        <ele>5.726</ele>
        <time>2019-06-15T20:04:05Z</time>
      </trkpt>
      <trkpt lat="43.404040" lon="-2.953822">
        <ele>6.185</ele>
        <time>2019-06-15T20:04:06Z</time>
      </trkpt>
      <trkpt lat="43.403979" lon="-2.953898">
        <ele>5.916</ele>
        <time>2019-06-15T20:04:07Z</time>
      </trkpt>
      <trkpt lat="43.403905" lon="-2.953960">
        <ele>5.795</ele>
        <time>2019-06-15T20:04:08Z</time>
      </trkpt>
      <trkpt lat="43.403855" lon="-2.954060">
        <ele>6.769</ele>
        <time>2019-06-15T20:04:09Z</time>
      </trkpt>
      <trkpt lat="43.403818" lon="-2.954151">
        <ele>7.514</ele>
        <time>2019-06-15T20:04:10Z</time>
      </trkpt>
      <trkpt lat="43.403804" lon="-2.954292">
        <ele>7.754</ele>
        <time>2019-06-15T20:04:11Z</time>
      </trkpt>
      <trkpt lat="43.403833" lon="-2.954433">
        <ele>8.409</ele>
        <time>2019-06-15T20:04:12Z</time>
      </trkpt>
      <trkpt lat="43.403878" lon="-2.954573">
        <ele>7.508</ele>
        <time>2019-06-15T20:04:13Z</time>
      </trkpt>
      <trkpt lat="43.403936" lon="-2.954706">
        <ele>8.484</ele>
        <time>2019-06-15T20:04:14Z</time>
      </trkpt>
      <trkpt lat="43.403989" lon="-2.954827">
        <ele>9.518</ele>
        <time>2019-06-15T20:04:15Z</time>
      </trkpt>
      <trkpt lat="43.404034" lon="-2.954945">
        <ele>9.577</ele>
        <time>2019-06-15T20:04:16Z</time>
      </trkpt>
      <trkpt lat="43.404063" lon="-2.955060">
        <ele>8.976</ele>
        <time>2019-06-15T20:04:17Z</time>
      </trkpt>
      <trkpt lat="43.404082" lon="-2.955169">
        <ele>8.435</ele>
        <time>2019-06-15T20:04:18Z</time>
      </trkpt>
      <trkpt lat="43.404087" lon="-2.955247">
        <ele>7.736</ele>
        <time>2019-06-15T20:04:19Z</time>
      </trkpt>
      <trkpt lat="43.404030" lon="-2.955340">
        <ele>7.285</ele>
        <time>2019-06-15T20:04:20Z</time>
      </trkpt>
      <trkpt lat="43.403965" lon="-2.955396">
        <ele>7.789</ele>
        <time>2019-06-15T20:04:21Z</time>
      </trkpt>
      <trkpt lat="43.403890" lon="-2.955380">
        <ele>7.814</ele>
        <time>2019-06-15T20:04:22Z</time>
      </trkpt>
      <trkpt lat="43.403791" lon="-2.955270">
        <ele>8.454</ele>
        <time>2019-06-15T20:04:23Z</time>
      </trkpt>
      <trkpt lat="43.403723" lon="-2.955198">
        <ele>9.009</ele>
        <time>2019-06-15T20:04:24Z</time>
      </trkpt>
      <trkpt lat="43.403654" lon="-2.955115">
        <ele>8.908</ele>
        <time>2019-06-15T20:04:25Z</time>
      </trkpt>
      <trkpt lat="43.403591" lon="-2.955037">
        <ele>8.564</ele>
        <time>2019-06-15T20:04:26Z</time>
      </trkpt>
      <trkpt lat="43.403529" lon="-2.954954">
        <ele>9.548</ele>
        <time>2019-06-15T20:04:27Z</time>
      </trkpt>
      <trkpt lat="43.403452" lon="-2.954864">
        <ele>10.677</ele>
        <time>2019-06-15T20:04:28Z</time>
      </trkpt>
      <trkpt lat="43.403384" lon="-2.954775">
        <ele>10.486</ele>
        <time>2019-06-15T20:04:29Z</time>
      </trkpt>
      <trkpt lat="43.403303" lon="-2.954696">
        <ele>10.595</ele>
        <time>2019-06-15T20:04:30Z</time>
      </trkpt>
      <trkpt lat="43.403215" lon="-2.954630">
        <ele>11.956</ele>
        <time>2019-06-15T20:04:31Z</time>
      </trkpt>
      <trkpt lat="43.403132" lon="-2.954575">
        <ele>13.185</ele>
        <time>2019-06-15T20:04:32Z</time>
      </trkpt>
      <trkpt lat="43.403051" lon="-2.954522">
        <ele>14.169</ele>
        <time>2019-06-15T20:04:33Z</time>
      </trkpt>
      <trkpt lat="43.402970" lon="-2.954468">
        <ele>14.463</ele>
        <time>2019-06-15T20:04:34Z</time>
      </trkpt>
      <trkpt lat="43.402890" lon="-2.954418">
        <ele>15.144</ele>
        <time>2019-06-15T20:04:35Z</time>
      </trkpt>
      <trkpt lat="43.402805" lon="-2.954368">
        <ele>16.018</ele>
        <time>2019-06-15T20:04:36Z</time>
      </trkpt>
      <trkpt lat="43.402718" lon="-2.954328">
        <ele>17.008</ele>
        <time>2019-06-15T20:04:37Z</time>
      </trkpt>
      <trkpt lat="43.402632" lon="-2.954302">
        <ele>18.179</ele>
        <time>2019-06-15T20:04:38Z</time>
      </trkpt>
      <trkpt lat="43.402544" lon="-2.954279">
        <ele>19.253</ele>
        <time>2019-06-15T20:04:39Z</time>
      </trkpt>
      <trkpt lat="43.402453" lon="-2.954276">
        <ele>20.242</ele>
        <time>2019-06-15T20:04:40Z</time>
      </trkpt>
      <trkpt lat="43.402361" lon="-2.954294">
        <ele>20.891</ele>
        <time>2019-06-15T20:04:41Z</time>
      </trkpt>
      <trkpt lat="43.402276" lon="-2.954339">
        <ele>21.740</ele>
        <time>2019-06-15T20:04:42Z</time>
      </trkpt>
      <trkpt lat="43.402202" lon="-2.954416">
        <ele>22.711</ele>
        <time>2019-06-15T20:04:43Z</time>
      </trkpt>
      <trkpt lat="43.402140" lon="-2.954501">
        <ele>23.750</ele>
        <time>2019-06-15T20:04:44Z</time>
      </trkpt>
      <trkpt lat="43.402096" lon="-2.954593">
        <ele>24.744</ele>
        <time>2019-06-15T20:04:45Z</time>
      </trkpt>
      <trkpt lat="43.402066" lon="-2.954684">
        <ele>25.516</ele>
        <time>2019-06-15T20:04:46Z</time>
      </trkpt>
      <trkpt lat="43.402050" lon="-2.954779">
        <ele>26.076</ele>
        <time>2019-06-15T20:04:47Z</time>
      </trkpt>
      <trkpt lat="43.402048" lon="-2.954887">
        <ele>26.613</ele>
        <time>2019-06-15T20:04:48Z</time>
      </trkpt>
      <trkpt lat="43.402057" lon="-2.955003">
        <ele>27.208</ele>
        <time>2019-06-15T20:04:49Z</time>
      </trkpt>
      <trkpt lat="43.402083" lon="-2.955122">
        <ele>27.714</ele>
        <time>2019-06-15T20:04:50Z</time>
      </trkpt>
      <trkpt lat="43.402120" lon="-2.955240">
        <ele>28.448</ele>
        <time>2019-06-15T20:04:51Z</time>
      </trkpt>
      <trkpt lat="43.402168" lon="-2.955346">
        <ele>29.237</ele>
        <time>2019-06-15T20:04:52Z</time>
      </trkpt>
      <trkpt lat="43.402232" lon="-2.955442">
        <ele>30.136</ele>
        <time>2019-06-15T20:04:53Z</time>
      </trkpt>
      <trkpt lat="43.402303" lon="-2.955538">
        <ele>30.995</ele>
        <time>2019-06-15T20:04:54Z</time>
      </trkpt>
      <trkpt lat="43.402379" lon="-2.955634">
        <ele>31.766</ele>
        <time>2019-06-15T20:04:55Z</time>
      </trkpt>
      <trkpt lat="43.402464" lon="-2.955734">
        <ele>32.615</ele>
        <time>2019-06-15T20:04:56Z</time>
      </trkpt>
      <trkpt lat="43.402555" lon="-2.955835">
        <ele>33.649</ele>
        <time>2019-06-15T20:04:57Z</time>
      </trkpt>
      <trkpt lat="43.402645" lon="-2.955934">
        <ele>34.654</ele>
        <time>2019-06-15T20:04:58Z</time>
      </trkpt>
      <trkpt lat="43.402735" lon="-2.956036">
        <ele>35.556</ele>
        <time>2019-06-15T20:04:59Z</time>
      </trkpt>
      <trkpt lat="43.402820" lon="-2.956138">
        <ele>36.311</ele>
        <time>2019-06-15T20:05:00Z</time>
      </trkpt>
      <trkpt lat="43.402892" lon="-2.956250">
        <ele>37.008</ele>
        <time>2019-06-15T20:05:01Z</time>
      </trkpt>
      <trkpt lat="43.402947" lon="-2.956358">
        <ele>37.898</ele>
        <time>2019-06-15T20:05:02Z</time>
      </trkpt>
      <trkpt lat="43.402989" lon="-2.956469">
        <ele>38.562</ele>
        <time>2019-06-15T20:05:03Z</time>
      </trkpt>
      <trkpt lat="43.403020" lon="-2.956588">
        <ele>39.251</ele>
        <time>2019-06-15T20:05:04Z</time>
      </trkpt>
      <trkpt lat="43.403047" lon="-2.956712">
        <ele>40.030</ele>
        <time>2019-06-15T20:05:05Z</time>
      </trkpt>
      <trkpt lat="43.403068" lon="-2.956843">
        <ele>40.649</ele>
        <time>2019-06-15T20:05:06Z</time>
      </trkpt>
      <trkpt lat="43.403090" lon="-2.956974">
        <ele>41.230</ele>
        <time>2019-06-15T20:05:07Z</time>
      </trkpt>
      <trkpt lat="43.403090" lon="-2.957086">
        <ele>42.069</ele>
        <time>2019-06-15T20:05:08Z</time>
      </trkpt>
      <trkpt lat="43.403088" lon="-2.957175">
        <ele>42.623</ele>
        <time>2019-06-15T20:05:09Z</time>
      </trkpt>
      <trkpt lat="43.403077" lon="-2.957236">
        <ele>43.069</ele>
        <time>2019-06-15T20:05:10Z</time>
      </trkpt>
      <trkpt lat="43.403041" lon="-2.957282">
        <ele>43.104</ele>
        <time>2019-06-15T20:05:22Z</time>
      </trkpt>
      <trkpt lat="43.403028" lon="-2.957430">
        <ele>43.624</ele>
        <time>2019-06-15T20:05:32Z</time>
      </trkpt>
      <trkpt lat="43.403014" lon="-2.957538">
        <ele>44.108</ele>
        <time>2019-06-15T20:05:33Z</time>
      </trkpt>
      <trkpt lat="43.403001" lon="-2.957676">
        <ele>45.179</ele>
        <time>2019-06-15T20:05:34Z</time>
      </trkpt>
      <trkpt lat="43.402984" lon="-2.957811">
        <ele>46.083</ele>
        <time>2019-06-15T20:05:35Z</time>
      </trkpt>
      <trkpt lat="43.402978" lon="-2.957963">
        <ele>47.162</ele>
        <time>2019-06-15T20:05:36Z</time>
      </trkpt>
      <trkpt lat="43.402978" lon="-2.958127">
        <ele>48.251</ele>
        <time>2019-06-15T20:05:37Z</time>
      </trkpt>
      <trkpt lat="43.402989" lon="-2.958287">
        <ele>49.440</ele>
        <time>2019-06-15T20:05:38Z</time>
      </trkpt>
      <trkpt lat="43.403030" lon="-2.958443">
        <ele>51.191</ele>
        <time>2019-06-15T20:05:39Z</time>
      </trkpt>
      <trkpt lat="43.403088" lon="-2.958594">
        <ele>52.890</ele>
        <time>2019-06-15T20:05:40Z</time>
      </trkpt>
      <trkpt lat="43.403167" lon="-2.958739">
        <ele>54.494</ele>
        <time>2019-06-15T20:05:41Z</time>
      </trkpt>
      <trkpt lat="43.403270" lon="-2.958878">
        <ele>55.935</ele>
        <time>2019-06-15T20:05:42Z</time>
      </trkpt>
      <trkpt lat="43.403385" lon="-2.959006">
        <ele>56.986</ele>
        <time>2019-06-15T20:05:43Z</time>
      </trkpt>
      <trkpt lat="43.403514" lon="-2.959138">
        <ele>58.414</ele>
        <time>2019-06-15T20:05:44Z</time>
      </trkpt>
      <trkpt lat="43.403643" lon="-2.959283">
        <ele>59.408</ele>
        <time>2019-06-15T20:05:45Z</time>
      </trkpt>
      <trkpt lat="43.403766" lon="-2.959433">
        <ele>59.926</ele>
        <time>2019-06-15T20:05:46Z</time>
      </trkpt>
      <trkpt lat="43.403900" lon="-2.959587">
        <ele>60.540</ele>
        <time>2019-06-15T20:05:47Z</time>
      </trkpt>
      <trkpt lat="43.404043" lon="-2.959743">
        <ele>61.189</ele>
        <time>2019-06-15T20:05:48Z</time>
      </trkpt>
      <trkpt lat="43.404187" lon="-2.959910">
        <ele>62.338</ele>
        <time>2019-06-15T20:05:49Z</time>
      </trkpt>
      <trkpt lat="43.404335" lon="-2.960072">
        <ele>63.337</ele>
        <time>2019-06-15T20:05:50Z</time>
      </trkpt>
      <trkpt lat="43.404490" lon="-2.960246">
        <ele>64.798</ele>
        <time>2019-06-15T20:05:51Z</time>
      </trkpt>
      <trkpt lat="43.404633" lon="-2.960411">
        <ele>65.857</ele>
        <time>2019-06-15T20:05:52Z</time>
      </trkpt>
      <trkpt lat="43.404781" lon="-2.960578">
        <ele>67.491</ele>
        <time>2019-06-15T20:05:53Z</time>
      </trkpt>
      <trkpt lat="43.404924" lon="-2.960738">
        <ele>69.056</ele>
        <time>2019-06-15T20:05:54Z</time>
      </trkpt>
      <trkpt lat="43.405066" lon="-2.960886">
        <ele>70.659</ele>
        <time>2019-06-15T20:05:55Z</time>
      </trkpt>
      <trkpt lat="43.405200" lon="-2.961019">
        <ele>72.114</ele>
        <time>2019-06-15T20:05:56Z</time>
      </trkpt>
      <trkpt lat="43.405335" lon="-2.961143">
        <ele>73.608</ele>
        <time>2019-06-15T20:05:57Z</time>
      </trkpt>
      <trkpt lat="43.405431" lon="-2.961276">
        <ele>74.688</ele>
        <time>2019-06-15T20:05:58Z</time>
      </trkpt>
      <trkpt lat="43.405549" lon="-2.961412">
        <ele>75.152</ele>
        <time>2019-06-15T20:05:59Z</time>
      </trkpt>
      <trkpt lat="43.405605" lon="-2.961521">
        <ele>75.421</ele>
        <time>2019-06-15T20:06:00Z</time>
      </trkpt>
      <trkpt lat="43.405662" lon="-2.961613">
        <ele>75.780</ele>
        <time>2019-06-15T20:06:01Z</time>
      </trkpt>
      <trkpt lat="43.405705" lon="-2.961662">
        <ele>76.039</ele>
        <time>2019-06-15T20:06:02Z</time>
      </trkpt>
      <trkpt lat="43.405755" lon="-2.961721">
        <ele>76.360</ele>
        <time>2019-06-15T20:06:05Z</time>
      </trkpt>
      <trkpt lat="43.405824" lon="-2.961808">
        <ele>76.579</ele>
        <time>2019-06-15T20:06:07Z</time>
      </trkpt>
      <trkpt lat="43.405852" lon="-2.961923">
        <ele>76.873</ele>
        <time>2019-06-15T20:06:08Z</time>
      </trkpt>
      <trkpt lat="43.405859" lon="-2.962035">
        <ele>77.151</ele>
        <time>2019-06-15T20:06:09Z</time>
      </trkpt>
      <trkpt lat="43.405857" lon="-2.962138">
        <ele>77.501</ele>
        <time>2019-06-15T20:06:10Z</time>
      </trkpt>
      <trkpt lat="43.405820" lon="-2.962283">
        <ele>78.311</ele>
        <time>2019-06-15T20:06:11Z</time>
      </trkpt>
      <trkpt lat="43.405803" lon="-2.962440">
        <ele>78.908</ele>
        <time>2019-06-15T20:06:12Z</time>
      </trkpt>
      <trkpt lat="43.405764" lon="-2.962608">
        <ele>79.928</ele>
        <time>2019-06-15T20:06:13Z</time>
      </trkpt>
      <trkpt lat="43.405718" lon="-2.962786">
        <ele>81.072</ele>
        <time>2019-06-15T20:06:14Z</time>
      </trkpt>
      <trkpt lat="43.405666" lon="-2.962976">
        <ele>81.771</ele>
        <time>2019-06-15T20:06:15Z</time>
      </trkpt>
      <trkpt lat="43.405613" lon="-2.963184">
        <ele>82.490</ele>
        <time>2019-06-15T20:06:16Z</time>
      </trkpt>
      <trkpt lat="43.405554" lon="-2.963399">
        <ele>83.259</ele>
        <time>2019-06-15T20:06:17Z</time>
      </trkpt>
      <trkpt lat="43.405494" lon="-2.963620">
        <ele>84.060</ele>
        <time>2019-06-15T20:06:18Z</time>
      </trkpt>
      <trkpt lat="43.405425" lon="-2.963857">
        <ele>84.919</ele>
        <time>2019-06-15T20:06:19Z</time>
      </trkpt>
      <trkpt lat="43.405358" lon="-2.964096">
        <ele>85.743</ele>
        <time>2019-06-15T20:06:20Z</time>
      </trkpt>
      <trkpt lat="43.405291" lon="-2.964340">
        <ele>86.651</ele>
        <time>2019-06-15T20:06:21Z</time>
      </trkpt>
      <trkpt lat="43.405216" lon="-2.964600">
        <ele>87.801</ele>
        <time>2019-06-15T20:06:22Z</time>
      </trkpt>
      <trkpt lat="43.405140" lon="-2.964863">
        <ele>88.811</ele>
        <time>2019-06-15T20:06:23Z</time>
      </trkpt>
      <trkpt lat="43.405069" lon="-2.965123">
        <ele>89.508</ele>
        <time>2019-06-15T20:06:24Z</time>
      </trkpt>
      <trkpt lat="43.404989" lon="-2.965395">
        <ele>90.788</ele>
        <time>2019-06-15T20:06:25Z</time>
      </trkpt>
      <trkpt lat="43.404913" lon="-2.965659">
        <ele>91.122</ele>
        <time>2019-06-15T20:06:26Z</time>
      </trkpt>
      <trkpt lat="43.404855" lon="-2.965889">
        <ele>91.291</ele>
        <time>2019-06-15T20:06:27Z</time>
      </trkpt>
      <trkpt lat="43.404779" lon="-2.966124">
        <ele>91.120</ele>
        <time>2019-06-15T20:06:28Z</time>
      </trkpt>
      <trkpt lat="43.404711" lon="-2.966367">
        <ele>91.769</ele>
        <time>2019-06-15T20:06:29Z</time>
      </trkpt>
      <trkpt lat="43.404649" lon="-2.966595">
        <ele>91.760</ele>
        <time>2019-06-15T20:06:30Z</time>
      </trkpt>
      <trkpt lat="43.404599" lon="-2.966814">
        <ele>91.879</ele>
        <time>2019-06-15T20:06:31Z</time>
      </trkpt>
      <trkpt lat="43.404530" lon="-2.967033">
        <ele>91.553</ele>
        <time>2019-06-15T20:06:32Z</time>
      </trkpt>
      <trkpt lat="43.404476" lon="-2.967224">
        <ele>91.367</ele>
        <time>2019-06-15T20:06:33Z</time>
      </trkpt>
      <trkpt lat="43.404433" lon="-2.967419">
        <ele>91.681</ele>
        <time>2019-06-15T20:06:34Z</time>
      </trkpt>
      <trkpt lat="43.404390" lon="-2.967597">
        <ele>91.419</ele>
        <time>2019-06-15T20:06:35Z</time>
      </trkpt>
      <trkpt lat="43.404343" lon="-2.967768">
        <ele>90.908</ele>
        <time>2019-06-15T20:06:36Z</time>
      </trkpt>
      <trkpt lat="43.404294" lon="-2.967927">
        <ele>90.439</ele>
        <time>2019-06-15T20:06:37Z</time>
      </trkpt>
      <trkpt lat="43.404253" lon="-2.968081">
        <ele>89.913</ele>
        <time>2019-06-15T20:06:38Z</time>
      </trkpt>
      <trkpt lat="43.404207" lon="-2.968225">
        <ele>89.382</ele>
        <time>2019-06-15T20:06:39Z</time>
      </trkpt>
      <trkpt lat="43.404154" lon="-2.968370">
        <ele>88.821</ele>
        <time>2019-06-15T20:06:40Z</time>
      </trkpt>
      <trkpt lat="43.404123" lon="-2.968473">
        <ele>88.320</ele>
        <time>2019-06-15T20:06:41Z</time>
      </trkpt>
      <trkpt lat="43.404071" lon="-2.968602">
        <ele>88.011</ele>
        <time>2019-06-15T20:06:42Z</time>
      </trkpt>
      <trkpt lat="43.404027" lon="-2.968720">
        <ele>88.090</ele>
        <time>2019-06-15T20:06:43Z</time>
      </trkpt>
      <trkpt lat="43.403977" lon="-2.968830">
        <ele>88.394</ele>
        <time>2019-06-15T20:06:44Z</time>
      </trkpt>
      <trkpt lat="43.403926" lon="-2.968933">
        <ele>88.678</ele>
        <time>2019-06-15T20:06:45Z</time>
      </trkpt>
      <trkpt lat="43.403875" lon="-2.969039">
        <ele>88.533</ele>
        <time>2019-06-15T20:06:46Z</time>
      </trkpt>
      <trkpt lat="43.403820" lon="-2.969152">
        <ele>88.326</ele>
        <time>2019-06-15T20:06:47Z</time>
      </trkpt>
      <trkpt lat="43.403767" lon="-2.969270">
        <ele>88.208</ele>
        <time>2019-06-15T20:06:48Z</time>
      </trkpt>
      <trkpt lat="43.403710" lon="-2.969387">
        <ele>88.450</ele>
        <time>2019-06-15T20:06:49Z</time>
      </trkpt>
      <trkpt lat="43.403657" lon="-2.969507">
        <ele>88.414</ele>
        <time>2019-06-15T20:06:50Z</time>
      </trkpt>
      <trkpt lat="43.403608" lon="-2.969616">
        <ele>88.413</ele>
        <time>2019-06-15T20:06:51Z</time>
      </trkpt>
      <trkpt lat="43.403575" lon="-2.969694">
        <ele>88.222</ele>
        <time>2019-06-15T20:06:52Z</time>
      </trkpt>
      <trkpt lat="43.403558" lon="-2.969758">
        <ele>88.291</ele>
        <time>2019-06-15T20:06:53Z</time>
      </trkpt>
      <trkpt lat="43.403537" lon="-2.969880">
        <ele>88.392</ele>
        <time>2019-06-15T20:06:55Z</time>
      </trkpt>
      <trkpt lat="43.403530" lon="-2.969954">
        <ele>88.381</ele>
        <time>2019-06-15T20:06:56Z</time>
      </trkpt>
      <trkpt lat="43.403507" lon="-2.970032">
        <ele>88.415</ele>
        <time>2019-06-15T20:06:57Z</time>
      </trkpt>
      <trkpt lat="43.403472" lon="-2.970106">
        <ele>88.593</ele>
        <time>2019-06-15T20:06:58Z</time>
      </trkpt>
      <trkpt lat="43.403414" lon="-2.970181">
        <ele>88.765</ele>
        <time>2019-06-15T20:06:59Z</time>
      </trkpt>
      <trkpt lat="43.403343" lon="-2.970271">
        <ele>89.021</ele>
        <time>2019-06-15T20:07:00Z</time>
      </trkpt>
      <trkpt lat="43.403265" lon="-2.970365">
        <ele>89.208</ele>
        <time>2019-06-15T20:07:01Z</time>
      </trkpt>
      <trkpt lat="43.403179" lon="-2.970483">
        <ele>89.392</ele>
        <time>2019-06-15T20:07:02Z</time>
      </trkpt>
      <trkpt lat="43.403073" lon="-2.970607">
        <ele>89.156</ele>
        <time>2019-06-15T20:07:03Z</time>
      </trkpt>
      <trkpt lat="43.402964" lon="-2.970730">
        <ele>88.845</ele>
        <time>2019-06-15T20:07:04Z</time>
      </trkpt>
      <trkpt lat="43.402812" lon="-2.970848">
        <ele>88.014</ele>
        <time>2019-06-15T20:07:05Z</time>
      </trkpt>
      <trkpt lat="43.402665" lon="-2.970979">
        <ele>87.443</ele>
        <time>2019-06-15T20:07:06Z</time>
      </trkpt>
      <trkpt lat="43.402500" lon="-2.971099">
        <ele>87.144</ele>
        <time>2019-06-15T20:07:07Z</time>
      </trkpt>
      <trkpt lat="43.402351" lon="-2.971210">
        <ele>87.263</ele>
        <time>2019-06-15T20:07:08Z</time>
      </trkpt>
      <trkpt lat="43.402203" lon="-2.971329">
        <ele>87.237</ele>
        <time>2019-06-15T20:07:09Z</time>
      </trkpt>
      <trkpt lat="43.402059" lon="-2.971436">
        <ele>86.862</ele>
        <time>2019-06-15T20:07:10Z</time>
      </trkpt>
      <trkpt lat="43.401898" lon="-2.971555">
        <ele>86.583</ele>
        <time>2019-06-15T20:07:11Z</time>
      </trkpt>
      <trkpt lat="43.401734" lon="-2.971684">
        <ele>86.711</ele>
        <time>2019-06-15T20:07:12Z</time>
      </trkpt>
      <trkpt lat="43.401562" lon="-2.971813">
        <ele>86.708</ele>
        <time>2019-06-15T20:07:13Z</time>
      </trkpt>
      <trkpt lat="43.401396" lon="-2.971929">
        <ele>87.089</ele>
        <time>2019-06-15T20:07:14Z</time>
      </trkpt>
      <trkpt lat="43.401226" lon="-2.972050">
        <ele>87.663</ele>
        <time>2019-06-15T20:07:15Z</time>
      </trkpt>
      <trkpt lat="43.401044" lon="-2.972162">
        <ele>88.262</ele>
        <time>2019-06-15T20:07:16Z</time>
      </trkpt>
      <trkpt lat="43.400873" lon="-2.972282">
        <ele>89.131</ele>
        <time>2019-06-15T20:07:17Z</time>
      </trkpt>
      <trkpt lat="43.400694" lon="-2.972380">
        <ele>89.660</ele>
        <time>2019-06-15T20:07:18Z</time>
      </trkpt>
      <trkpt lat="43.400506" lon="-2.972463">
        <ele>90.921</ele>
        <time>2019-06-15T20:07:19Z</time>
      </trkpt>
      <trkpt lat="43.400312" lon="-2.972520">
        <ele>92.860</ele>
        <time>2019-06-15T20:07:20Z</time>
      </trkpt>
      <trkpt lat="43.400121" lon="-2.972546">
        <ele>93.884</ele>
        <time>2019-06-15T20:07:21Z</time>
      </trkpt>
      <trkpt lat="43.399925" lon="-2.972561">
        <ele>95.188</ele>
        <time>2019-06-15T20:07:22Z</time>
      </trkpt>
      <trkpt lat="43.399743" lon="-2.972591">
        <ele>97.124</ele>
        <time>2019-06-15T20:07:23Z</time>
      </trkpt>
      <trkpt lat="43.399570" lon="-2.972653">
        <ele>99.326</ele>
        <time>2019-06-15T20:07:24Z</time>
      </trkpt>
      <trkpt lat="43.399405" lon="-2.972735">
        <ele>101.208</ele>
        <time>2019-06-15T20:07:25Z</time>
      </trkpt>
      <trkpt lat="43.399252" lon="-2.972851">
        <ele>102.211</ele>
        <time>2019-06-15T20:07:26Z</time>
      </trkpt>
      <trkpt lat="43.399099" lon="-2.972992">
        <ele>103.995</ele>
        <time>2019-06-15T20:07:27Z</time>
      </trkpt>
      <trkpt lat="43.398963" lon="-2.973121">
        <ele>104.564</ele>
        <time>2019-06-15T20:07:28Z</time>
      </trkpt>
      <trkpt lat="43.398828" lon="-2.973224">
        <ele>104.883</ele>
        <time>2019-06-15T20:07:29Z</time>
      </trkpt>
      <trkpt lat="43.398695" lon="-2.973295">
        <ele>104.442</ele>
        <time>2019-06-15T20:07:30Z</time>
      </trkpt>
      <trkpt lat="43.398554" lon="-2.973337">
        <ele>104.313</ele>
        <time>2019-06-15T20:07:31Z</time>
      </trkpt>
      <trkpt lat="43.398415" lon="-2.973363">
        <ele>105.472</ele>
        <time>2019-06-15T20:07:32Z</time>
      </trkpt>
      <trkpt lat="43.398281" lon="-2.973371">
        <ele>106.366</ele>
        <time>2019-06-15T20:07:33Z</time>
      </trkpt>
      <trkpt lat="43.398143" lon="-2.973329">
        <ele>106.392</ele>
        <time>2019-06-15T20:07:34Z</time>
      </trkpt>
      <trkpt lat="43.398006" lon="-2.973261">
        <ele>106.873</ele>
        <time>2019-06-15T20:07:35Z</time>
      </trkpt>
      <trkpt lat="43.397868" lon="-2.973199">
        <ele>108.120</ele>
        <time>2019-06-15T20:07:36Z</time>
      </trkpt>
      <trkpt lat="43.397742" lon="-2.973133">
        <ele>108.708</ele>
        <time>2019-06-15T20:07:37Z</time>
      </trkpt>
      <trkpt lat="43.397621" lon="-2.973066">
        <ele>108.932</ele>
        <time>2019-06-15T20:07:38Z</time>
      </trkpt>
      <trkpt lat="43.397501" lon="-2.973005">
        <ele>109.366</ele>
        <time>2019-06-15T20:07:39Z</time>
      </trkpt>
      <trkpt lat="43.397390" lon="-2.972958">
        <ele>109.935</ele>
        <time>2019-06-15T20:07:40Z</time>
      </trkpt>
      <trkpt lat="43.397277" lon="-2.972907">
        <ele>110.724</ele>
        <time>2019-06-15T20:07:41Z</time>
      </trkpt>
      <trkpt lat="43.397157" lon="-2.972850">
        <ele>111.183</ele>
        <time>2019-06-15T20:07:42Z</time>
      </trkpt>
      <trkpt lat="43.397033" lon="-2.972812">
        <ele>111.294</ele>
        <time>2019-06-15T20:07:43Z</time>
      </trkpt>
      <trkpt lat="43.396912" lon="-2.972778">
        <ele>111.183</ele>
        <time>2019-06-15T20:07:44Z</time>
      </trkpt>
      <trkpt lat="43.396793" lon="-2.972768">
        <ele>111.547</ele>
        <time>2019-06-15T20:07:45Z</time>
      </trkpt>
      <trkpt lat="43.396673" lon="-2.972773">
        <ele>112.081</ele>
        <time>2019-06-15T20:07:46Z</time>
      </trkpt>
      <trkpt lat="43.396559" lon="-2.972797">
        <ele>111.861</ele>
        <time>2019-06-15T20:07:47Z</time>
      </trkpt>
      <trkpt lat="43.396448" lon="-2.972837">
        <ele>111.717</ele>
        <time>2019-06-15T20:07:48Z</time>
      </trkpt>
      <trkpt lat="43.396349" lon="-2.972909">
        <ele>111.708</ele>
        <time>2019-06-15T20:07:49Z</time>
      </trkpt>
      <trkpt lat="43.396253" lon="-2.972992">
        <ele>111.471</ele>
        <time>2019-06-15T20:07:50Z</time>
      </trkpt>
      <trkpt lat="43.396163" lon="-2.973092">
        <ele>110.455</ele>
        <time>2019-06-15T20:07:51Z</time>
      </trkpt>
      <trkpt lat="43.396078" lon="-2.973222">
        <ele>109.314</ele>
        <time>2019-06-15T20:07:52Z</time>
      </trkpt>
      <trkpt lat="43.395998" lon="-2.973371">
        <ele>108.413</ele>
        <time>2019-06-15T20:07:53Z</time>
      </trkpt>
      <trkpt lat="43.395939" lon="-2.973531">
        <ele>107.492</ele>
        <time>2019-06-15T20:07:54Z</time>
      </trkpt>
      <trkpt lat="43.395877" lon="-2.973706">
        <ele>106.483</ele>
        <time>2019-06-15T20:07:55Z</time>
      </trkpt>
      <trkpt lat="43.395824" lon="-2.973881">
        <ele>105.182</ele>
        <time>2019-06-15T20:07:56Z</time>
      </trkpt>
      <trkpt lat="43.395778" lon="-2.974057">
        <ele>104.556</ele>
        <time>2019-06-15T20:07:57Z</time>
      </trkpt>
      <trkpt lat="43.395726" lon="-2.974235">
        <ele>103.631</ele>
        <time>2019-06-15T20:07:58Z</time>
      </trkpt>
      <trkpt lat="43.395675" lon="-2.974414">
        <ele>102.761</ele>
        <time>2019-06-15T20:07:59Z</time>
      </trkpt>
      <trkpt lat="43.395627" lon="-2.974598">
        <ele>101.907</ele>
        <time>2019-06-15T20:08:00Z</time>
      </trkpt>
      <trkpt lat="43.395577" lon="-2.974775">
        <ele>101.808</ele>
        <time>2019-06-15T20:08:01Z</time>
      </trkpt>
      <trkpt lat="43.395524" lon="-2.974947">
        <ele>102.266</ele>
        <time>2019-06-15T20:08:02Z</time>
      </trkpt>
      <trkpt lat="43.395484" lon="-2.975129">
        <ele>102.490</ele>
        <time>2019-06-15T20:08:03Z</time>
      </trkpt>
      <trkpt lat="43.395437" lon="-2.975305">
        <ele>102.439</ele>
        <time>2019-06-15T20:08:04Z</time>
      </trkpt>
      <trkpt lat="43.395395" lon="-2.975481">
        <ele>102.238</ele>
        <time>2019-06-15T20:08:05Z</time>
      </trkpt>
      <trkpt lat="43.395356" lon="-2.975660">
        <ele>101.947</ele>
        <time>2019-06-15T20:08:06Z</time>
      </trkpt>
      <trkpt lat="43.395310" lon="-2.975836">
        <ele>101.918</ele>
        <time>2019-06-15T20:08:07Z</time>
      </trkpt>
      <trkpt lat="43.395258" lon="-2.976010">
        <ele>101.577</ele>
        <time>2019-06-15T20:08:08Z</time>
      </trkpt>
      <trkpt lat="43.395191" lon="-2.976169">
        <ele>100.951</ele>
        <time>2019-06-15T20:08:09Z</time>
      </trkpt>
      <trkpt lat="43.395130" lon="-2.976345">
        <ele>99.835</ele>
        <time>2019-06-15T20:08:10Z</time>
      </trkpt>
      <trkpt lat="43.395057" lon="-2.976519">
        <ele>99.286</ele>
        <time>2019-06-15T20:08:11Z</time>
      </trkpt>
      <trkpt lat="43.394966" lon="-2.976689">
        <ele>99.014</ele>
        <time>2019-06-15T20:08:12Z</time>
      </trkpt>
      <trkpt lat="43.394877" lon="-2.976842">
        <ele>97.908</ele>
        <time>2019-06-15T20:08:13Z</time>
      </trkpt>
      <trkpt lat="43.394776" lon="-2.976984">
        <ele>96.796</ele>
        <time>2019-06-15T20:08:14Z</time>
      </trkpt>
      <trkpt lat="43.394670" lon="-2.977124">
        <ele>95.610</ele>
        <time>2019-06-15T20:08:15Z</time>
      </trkpt>
      <trkpt lat="43.394560" lon="-2.977258">
        <ele>94.189</ele>
        <time>2019-06-15T20:08:16Z</time>
      </trkpt>
      <trkpt lat="43.394440" lon="-2.977369">
        <ele>92.998</ele>
        <time>2019-06-15T20:08:17Z</time>
      </trkpt>
      <trkpt lat="43.394311" lon="-2.977470">
        <ele>91.817</ele>
        <time>2019-06-15T20:08:18Z</time>
      </trkpt>
      <trkpt lat="43.394179" lon="-2.977551">
        <ele>90.538</ele>
        <time>2019-06-15T20:08:19Z</time>
      </trkpt>
      <trkpt lat="43.394026" lon="-2.977651">
        <ele>88.697</ele>
        <time>2019-06-15T20:08:20Z</time>
      </trkpt>
      <trkpt lat="43.393882" lon="-2.977726">
        <ele>87.371</ele>
        <time>2019-06-15T20:08:21Z</time>
      </trkpt>
      <trkpt lat="43.393735" lon="-2.977783">
        <ele>86.445</ele>
        <time>2019-06-15T20:08:22Z</time>
      </trkpt>
      <trkpt lat="43.393581" lon="-2.977831">
        <ele>85.747</ele>
        <time>2019-06-15T20:08:23Z</time>
      </trkpt>
      <trkpt lat="43.393408" lon="-2.977888">
        <ele>85.211</ele>
        <time>2019-06-15T20:08:24Z</time>
      </trkpt>
      <trkpt lat="43.393220" lon="-2.977937">
        <ele>84.408</ele>
        <time>2019-06-15T20:08:25Z</time>
      </trkpt>
      <trkpt lat="43.393017" lon="-2.977999">
        <ele>82.877</ele>
        <time>2019-06-15T20:08:26Z</time>
      </trkpt>
      <trkpt lat="43.392806" lon="-2.978070">
        <ele>80.131</ele>
        <time>2019-06-15T20:08:27Z</time>
      </trkpt>
      <trkpt lat="43.392594" lon="-2.978139">
        <ele>78.490</ele>
        <time>2019-06-15T20:08:28Z</time>
      </trkpt>
      <trkpt lat="43.392376" lon="-2.978213">
        <ele>77.679</ele>
        <time>2019-06-15T20:08:29Z</time>
      </trkpt>
      <trkpt lat="43.392156" lon="-2.978296">
        <ele>77.588</ele>
        <time>2019-06-15T20:08:30Z</time>
      </trkpt>
      <trkpt lat="43.391928" lon="-2.978372">
        <ele>77.919</ele>
        <time>2019-06-15T20:08:31Z</time>
      </trkpt>
      <trkpt lat="43.391699" lon="-2.978446">
        <ele>78.548</ele>
        <time>2019-06-15T20:08:32Z</time>
      </trkpt>
      <trkpt lat="43.391461" lon="-2.978526">
        <ele>79.022</ele>
        <time>2019-06-15T20:08:33Z</time>
      </trkpt>
      <trkpt lat="43.391229" lon="-2.978609">
        <ele>79.689</ele>
        <time>2019-06-15T20:08:34Z</time>
      </trkpt>
      <trkpt lat="43.391003" lon="-2.978688">
        <ele>80.306</ele>
        <time>2019-06-15T20:08:35Z</time>
      </trkpt>
      <trkpt lat="43.390782" lon="-2.978750">
        <ele>80.826</ele>
        <time>2019-06-15T20:08:36Z</time>
      </trkpt>
      <trkpt lat="43.390574" lon="-2.978814">
        <ele>81.908</ele>
        <time>2019-06-15T20:08:37Z</time>
      </trkpt>
      <trkpt lat="43.390383" lon="-2.978895">
        <ele>83.211</ele>
        <time>2019-06-15T20:08:38Z</time>
      </trkpt>
      <trkpt lat="43.390200" lon="-2.978968">
        <ele>83.975</ele>
        <time>2019-06-15T20:08:39Z</time>
      </trkpt>
      <trkpt lat="43.390035" lon="-2.979074">
        <ele>84.544</ele>
        <time>2019-06-15T20:08:40Z</time>
      </trkpt>
      <trkpt lat="43.389886" lon="-2.979194">
        <ele>85.263</ele>
        <time>2019-06-15T20:08:41Z</time>
      </trkpt>
      <trkpt lat="43.389740" lon="-2.979322">
        <ele>86.672</ele>
        <time>2019-06-15T20:08:42Z</time>
      </trkpt>
      <trkpt lat="43.389633" lon="-2.979515">
        <ele>87.483</ele>
        <time>2019-06-15T20:08:43Z</time>
      </trkpt>
      <trkpt lat="43.389530" lon="-2.979702">
        <ele>86.412</ele>
        <time>2019-06-15T20:08:44Z</time>
      </trkpt>
      <trkpt lat="43.389438" lon="-2.979919">
        <ele>84.646</ele>
        <time>2019-06-15T20:08:45Z</time>
      </trkpt>
      <trkpt lat="43.389363" lon="-2.980156">
        <ele>83.393</ele>
        <time>2019-06-15T20:08:46Z</time>
      </trkpt>
      <trkpt lat="43.389310" lon="-2.980402">
        <ele>81.665</ele>
        <time>2019-06-15T20:08:47Z</time>
      </trkpt>
      <trkpt lat="43.389244" lon="-2.980652">
        <ele>79.721</ele>
        <time>2019-06-15T20:08:48Z</time>
      </trkpt>
      <trkpt lat="43.389166" lon="-2.980882">
        <ele>77.808</ele>
        <time>2019-06-15T20:08:49Z</time>
      </trkpt>
      <trkpt lat="43.389062" lon="-2.981107">
        <ele>76.382</ele>
        <time>2019-06-15T20:08:50Z</time>
      </trkpt>
      <trkpt lat="43.388932" lon="-2.981314">
        <ele>75.856</ele>
        <time>2019-06-15T20:08:51Z</time>
      </trkpt>
      <trkpt lat="43.388786" lon="-2.981503">
        <ele>74.875</ele>
        <time>2019-06-15T20:08:52Z</time>
      </trkpt>
      <trkpt lat="43.388625" lon="-2.981683">
        <ele>74.114</ele>
        <time>2019-06-15T20:08:53Z</time>
      </trkpt>
      <trkpt lat="43.388465" lon="-2.981853">
        <ele>73.343</ele>
        <time>2019-06-15T20:08:54Z</time>
      </trkpt>
      <trkpt lat="43.388289" lon="-2.982022">
        <ele>72.084</ele>
        <time>2019-06-15T20:08:55Z</time>
      </trkpt>
      <trkpt lat="43.388109" lon="-2.982187">
        <ele>70.623</ele>
        <time>2019-06-15T20:08:56Z</time>
      </trkpt>
      <trkpt lat="43.387937" lon="-2.982343">
        <ele>69.057</ele>
        <time>2019-06-15T20:08:57Z</time>
      </trkpt>
      <trkpt lat="43.387770" lon="-2.982500">
        <ele>66.914</ele>
        <time>2019-06-15T20:08:58Z</time>
      </trkpt>
      <trkpt lat="43.387607" lon="-2.982662">
        <ele>66.054</ele>
        <time>2019-06-15T20:08:59Z</time>
      </trkpt>
      <trkpt lat="43.387440" lon="-2.982821">
        <ele>64.709</ele>
        <time>2019-06-15T20:09:00Z</time>
      </trkpt>
      <trkpt lat="43.387271" lon="-2.982979">
        <ele>63.508</ele>
        <time>2019-06-15T20:09:01Z</time>
      </trkpt>
      <trkpt lat="43.387095" lon="-2.983141">
        <ele>61.674</ele>
        <time>2019-06-15T20:09:02Z</time>
      </trkpt>
      <trkpt lat="43.386914" lon="-2.983303">
        <ele>59.828</ele>
        <time>2019-06-15T20:09:03Z</time>
      </trkpt>
      <trkpt lat="43.386734" lon="-2.983446">
        <ele>58.567</ele>
        <time>2019-06-15T20:09:04Z</time>
      </trkpt>
      <trkpt lat="43.386551" lon="-2.983590">
        <ele>57.216</ele>
        <time>2019-06-15T20:09:05Z</time>
      </trkpt>
      <trkpt lat="43.386368" lon="-2.983723">
        <ele>55.865</ele>
        <time>2019-06-15T20:09:06Z</time>
      </trkpt>
      <trkpt lat="43.386177" lon="-2.983857">
        <ele>54.416</ele>
        <time>2019-06-15T20:09:07Z</time>
      </trkpt>
      <trkpt lat="43.385990" lon="-2.983988">
        <ele>52.555</ele>
        <time>2019-06-15T20:09:08Z</time>
      </trkpt>
      <trkpt lat="43.385802" lon="-2.984108">
        <ele>50.989</ele>
        <time>2019-06-15T20:09:09Z</time>
      </trkpt>
      <trkpt lat="43.385620" lon="-2.984234">
        <ele>50.277</ele>
        <time>2019-06-15T20:09:10Z</time>
      </trkpt>
      <trkpt lat="43.385434" lon="-2.984356">
        <ele>49.461</ele>
        <time>2019-06-15T20:09:11Z</time>
      </trkpt>
      <trkpt lat="43.385254" lon="-2.984475">
        <ele>48.827</ele>
        <time>2019-06-15T20:09:12Z</time>
      </trkpt>
      <trkpt lat="43.385080" lon="-2.984587">
        <ele>47.908</ele>
        <time>2019-06-15T20:09:13Z</time>
      </trkpt>
      <trkpt lat="43.384913" lon="-2.984702">
        <ele>47.350</ele>
        <time>2019-06-15T20:09:14Z</time>
      </trkpt>
      <trkpt lat="43.384749" lon="-2.984816">
        <ele>46.584</ele>
        <time>2019-06-15T20:09:15Z</time>
      </trkpt>
      <trkpt lat="43.384639" lon="-2.984899">
        <ele>46.063</ele>
        <time>2019-06-15T20:09:16Z</time>
      </trkpt>
      <trkpt lat="43.384550" lon="-2.984981">
        <ele>45.742</ele>
        <time>2019-06-15T20:09:17Z</time>
      </trkpt>
      <trkpt lat="43.384485" lon="-2.985052">
        <ele>45.621</ele>
        <time>2019-06-15T20:09:18Z</time>
      </trkpt>
      <trkpt lat="43.384438" lon="-2.985128">
        <ele>45.912</ele>
        <time>2019-06-15T20:09:19Z</time>
      </trkpt>
      <trkpt lat="43.384396" lon="-2.985221">
        <ele>46.121</ele>
        <time>2019-06-15T20:09:20Z</time>
      </trkpt>
      <trkpt lat="43.384365" lon="-2.985315">
        <ele>46.175</ele>
        <time>2019-06-15T20:09:21Z</time>
      </trkpt>
      <trkpt lat="43.384321" lon="-2.985409">
        <ele>45.775</ele>
        <time>2019-06-15T20:09:22Z</time>
      </trkpt>
      <trkpt lat="43.384258" lon="-2.985494">
        <ele>45.028</ele>
        <time>2019-06-15T20:09:23Z</time>
      </trkpt>
      <trkpt lat="43.384178" lon="-2.985560">
        <ele>44.120</ele>
        <time>2019-06-15T20:09:24Z</time>
      </trkpt>
      <trkpt lat="43.384116" lon="-2.985634">
        <ele>43.808</ele>
        <time>2019-06-15T20:09:25Z</time>
      </trkpt>
      <trkpt lat="43.384056" lon="-2.985724">
        <ele>43.320</ele>
        <time>2019-06-15T20:09:26Z</time>
      </trkpt>
      <trkpt lat="43.384003" lon="-2.985831">
        <ele>42.694</ele>
        <time>2019-06-15T20:09:27Z</time>
      </trkpt>
      <trkpt lat="43.383957" lon="-2.985948">
        <ele>42.213</ele>
        <time>2019-06-15T20:09:28Z</time>
      </trkpt>
      <trkpt lat="43.383901" lon="-2.986072">
        <ele>42.062</ele>
        <time>2019-06-15T20:09:29Z</time>
      </trkpt>
      <trkpt lat="43.383847" lon="-2.986188">
        <ele>41.941</ele>
        <time>2019-06-15T20:09:30Z</time>
      </trkpt>
      <trkpt lat="43.383801" lon="-2.986300">
        <ele>41.822</ele>
        <time>2019-06-15T20:09:31Z</time>
      </trkpt>
      <trkpt lat="43.383753" lon="-2.986402">
        <ele>41.591</ele>
        <time>2019-06-15T20:09:32Z</time>
      </trkpt>
      <trkpt lat="43.383698" lon="-2.986500">
        <ele>40.915</ele>
        <time>2019-06-15T20:09:33Z</time>
      </trkpt>
      <trkpt lat="43.383646" lon="-2.986591">
        <ele>40.419</ele>
        <time>2019-06-15T20:09:34Z</time>
      </trkpt>
      <trkpt lat="43.383597" lon="-2.986664">
        <ele>39.909</ele>
        <time>2019-06-15T20:09:35Z</time>
      </trkpt>
      <trkpt lat="43.383557" lon="-2.986727">
        <ele>40.019</ele>
        <time>2019-06-15T20:09:36Z</time>
      </trkpt>
      <trkpt lat="43.383521" lon="-2.986788">
        <ele>40.008</ele>
        <time>2019-06-15T20:09:37Z</time>
      </trkpt>
      <trkpt lat="43.383476" lon="-2.986854">
        <ele>39.934</ele>
        <time>2019-06-15T20:09:38Z</time>
      </trkpt>
      <trkpt lat="43.383415" lon="-2.986916">
        <ele>39.648</ele>
        <time>2019-06-15T20:09:39Z</time>
      </trkpt>
      <trkpt lat="43.383343" lon="-2.987005">
        <ele>39.557</ele>
        <time>2019-06-15T20:09:40Z</time>
      </trkpt>
      <trkpt lat="43.383258" lon="-2.987112">
        <ele>39.656</ele>
        <time>2019-06-15T20:09:41Z</time>
      </trkpt>
      <trkpt lat="43.383155" lon="-2.987225">
        <ele>39.195</ele>
        <time>2019-06-15T20:09:42Z</time>
      </trkpt>
      <trkpt lat="43.383059" lon="-2.987346">
        <ele>39.456</ele>
        <time>2019-06-15T20:09:43Z</time>
      </trkpt>
      <trkpt lat="43.382967" lon="-2.987464">
        <ele>39.855</ele>
        <time>2019-06-15T20:09:44Z</time>
      </trkpt>
      <trkpt lat="43.382862" lon="-2.987566">
        <ele>39.599</ele>
        <time>2019-06-15T20:09:45Z</time>
      </trkpt>
      <trkpt lat="43.382758" lon="-2.987659">
        <ele>39.547</ele>
        <time>2019-06-15T20:09:46Z</time>
      </trkpt>
      <trkpt lat="43.382647" lon="-2.987747">
        <ele>38.929</ele>
        <time>2019-06-15T20:09:47Z</time>
      </trkpt>
      <trkpt lat="43.382533" lon="-2.987842">
        <ele>37.721</ele>
        <time>2019-06-15T20:09:48Z</time>
      </trkpt>
      <trkpt lat="43.382422" lon="-2.987939">
        <ele>37.308</ele>
        <time>2019-06-15T20:09:49Z</time>
      </trkpt>
      <trkpt lat="43.382305" lon="-2.988033">
        <ele>36.667</ele>
        <time>2019-06-15T20:09:50Z</time>
      </trkpt>
      <trkpt lat="43.382193" lon="-2.988130">
        <ele>35.961</ele>
        <time>2019-06-15T20:09:51Z</time>
      </trkpt>
      <trkpt lat="43.382080" lon="-2.988234">
        <ele>35.590</ele>
        <time>2019-06-15T20:09:52Z</time>
      </trkpt>
      <trkpt lat="43.381966" lon="-2.988351">
        <ele>35.249</ele>
        <time>2019-06-15T20:09:53Z</time>
      </trkpt>
      <trkpt lat="43.381851" lon="-2.988473">
        <ele>35.398</ele>
        <time>2019-06-15T20:09:54Z</time>
      </trkpt>
      <trkpt lat="43.381743" lon="-2.988595">
        <ele>34.889</ele>
        <time>2019-06-15T20:09:55Z</time>
      </trkpt>
      <trkpt lat="43.381643" lon="-2.988713">
        <ele>34.238</ele>
        <time>2019-06-15T20:09:56Z</time>
      </trkpt>
      <trkpt lat="43.381541" lon="-2.988822">
        <ele>33.912</ele>
        <time>2019-06-15T20:09:57Z</time>
      </trkpt>
      <trkpt lat="43.381441" lon="-2.988933">
        <ele>33.424</ele>
        <time>2019-06-15T20:09:58Z</time>
      </trkpt>
      <trkpt lat="43.381349" lon="-2.989029">
        <ele>32.804</ele>
        <time>2019-06-15T20:09:59Z</time>
      </trkpt>
      <trkpt lat="43.381256" lon="-2.989120">
        <ele>32.414</ele>
        <time>2019-06-15T20:10:00Z</time>
      </trkpt>
      <trkpt lat="43.381160" lon="-2.989211">
        <ele>32.308</ele>
        <time>2019-06-15T20:10:01Z</time>
      </trkpt>
      <trkpt lat="43.381057" lon="-2.989306">
        <ele>32.265</ele>
        <time>2019-06-15T20:10:02Z</time>
      </trkpt>
      <trkpt lat="43.380951" lon="-2.989394">
        <ele>31.859</ele>
        <time>2019-06-15T20:10:03Z</time>
      </trkpt>
      <trkpt lat="43.380843" lon="-2.989478">
        <ele>31.348</ele>
        <time>2019-06-15T20:10:04Z</time>
      </trkpt>
      <trkpt lat="43.380740" lon="-2.989558">
        <ele>31.367</ele>
        <time>2019-06-15T20:10:05Z</time>
      </trkpt>
      <trkpt lat="43.380641" lon="-2.989635">
        <ele>31.286</ele>
        <time>2019-06-15T20:10:06Z</time>
      </trkpt>
      <trkpt lat="43.380543" lon="-2.989706">
        <ele>30.967</ele>
        <time>2019-06-15T20:10:07Z</time>
      </trkpt>
      <trkpt lat="43.380451" lon="-2.989769">
        <ele>30.656</ele>
        <time>2019-06-15T20:10:08Z</time>
      </trkpt>
      <trkpt lat="43.380363" lon="-2.989818">
        <ele>30.320</ele>
        <time>2019-06-15T20:10:09Z</time>
      </trkpt>
      <trkpt lat="43.380274" lon="-2.989872">
        <ele>30.128</ele>
        <time>2019-06-15T20:10:10Z</time>
      </trkpt>
      <trkpt lat="43.380180" lon="-2.989914">
        <ele>30.189</ele>
        <time>2019-06-15T20:10:11Z</time>
      </trkpt>
      <trkpt lat="43.380070" lon="-2.989953">
        <ele>30.017</ele>
        <time>2019-06-15T20:10:12Z</time>
      </trkpt>
      <trkpt lat="43.379949" lon="-2.989994">
        <ele>29.808</ele>
        <time>2019-06-15T20:10:13Z</time>
      </trkpt>
      <trkpt lat="43.379825" lon="-2.990031">
        <ele>29.725</ele>
        <time>2019-06-15T20:10:14Z</time>
      </trkpt>
      <trkpt lat="43.379694" lon="-2.990075">
        <ele>29.899</ele>
        <time>2019-06-15T20:10:15Z</time>
      </trkpt>
      <trkpt lat="43.379565" lon="-2.990118">
        <ele>29.868</ele>
        <time>2019-06-15T20:10:16Z</time>
      </trkpt>
      <trkpt lat="43.379435" lon="-2.990171">
        <ele>29.667</ele>
        <time>2019-06-15T20:10:17Z</time>
      </trkpt>
      <trkpt lat="43.379304" lon="-2.990232">
        <ele>29.426</ele>
        <time>2019-06-15T20:10:18Z</time>
      </trkpt>
      <trkpt lat="43.379179" lon="-2.990292">
        <ele>29.127</ele>
        <time>2019-06-15T20:10:19Z</time>
      </trkpt>
      <trkpt lat="43.379071" lon="-2.990346">
        <ele>29.266</ele>
        <time>2019-06-15T20:10:20Z</time>
      </trkpt>
      <trkpt lat="43.378975" lon="-2.990393">
        <ele>29.150</ele>
        <time>2019-06-15T20:10:21Z</time>
      </trkpt>
      <trkpt lat="43.378899" lon="-2.990433">
        <ele>29.034</ele>
        <time>2019-06-15T20:10:22Z</time>
      </trkpt>
      <trkpt lat="43.378847" lon="-2.990465">
        <ele>29.055</ele>
        <time>2019-06-15T20:10:23Z</time>
      </trkpt>
      <trkpt lat="43.378811" lon="-2.990516">
        <ele>29.010</ele>
        <time>2019-06-15T20:10:27Z</time>
      </trkpt>
      <trkpt lat="43.378769" lon="-2.990561">
        <ele>29.008</ele>
        <time>2019-06-15T20:10:42Z</time>
      </trkpt>
      <trkpt lat="43.378716" lon="-2.990600">
        <ele>29.046</ele>
        <time>2019-06-15T20:10:43Z</time>
      </trkpt>
      <trkpt lat="43.378646" lon="-2.990645">
        <ele>29.060</ele>
        <time>2019-06-15T20:10:44Z</time>
      </trkpt>
      <trkpt lat="43.378553" lon="-2.990689">
        <ele>29.089</ele>
        <time>2019-06-15T20:10:45Z</time>
      </trkpt>
      <trkpt lat="43.378446" lon="-2.990735">
        <ele>29.088</ele>
        <time>2019-06-15T20:10:46Z</time>
      </trkpt>
      <trkpt lat="43.378322" lon="-2.990769">
        <ele>29.057</ele>
        <time>2019-06-15T20:10:47Z</time>
      </trkpt>
      <trkpt lat="43.378186" lon="-2.990798">
        <ele>28.948</ele>
        <time>2019-06-15T20:10:48Z</time>
      </trkpt>
      <trkpt lat="43.378042" lon="-2.990822">
        <ele>29.037</ele>
        <time>2019-06-15T20:10:49Z</time>
      </trkpt>
      <trkpt lat="43.377893" lon="-2.990851">
        <ele>29.151</ele>
        <time>2019-06-15T20:10:50Z</time>
      </trkpt>
      <trkpt lat="43.377756" lon="-2.990874">
        <ele>29.398</ele>
        <time>2019-06-15T20:10:51Z</time>
      </trkpt>
      <trkpt lat="43.377617" lon="-2.990901">
        <ele>29.515</ele>
        <time>2019-06-15T20:10:52Z</time>
      </trkpt>
      <trkpt lat="43.377474" lon="-2.990937">
        <ele>29.726</ele>
        <time>2019-06-15T20:10:53Z</time>
      </trkpt>
      <trkpt lat="43.377329" lon="-2.990976">
        <ele>29.708</ele>
        <time>2019-06-15T20:10:54Z</time>
      </trkpt>
      <trkpt lat="43.377193" lon="-2.991028">
        <ele>29.612</ele>
        <time>2019-06-15T20:10:55Z</time>
      </trkpt>
      <trkpt lat="43.377063" lon="-2.991096">
        <ele>29.446</ele>
        <time>2019-06-15T20:10:56Z</time>
      </trkpt>
      <trkpt lat="43.376925" lon="-2.991171">
        <ele>29.475</ele>
        <time>2019-06-15T20:10:57Z</time>
      </trkpt>
      <trkpt lat="43.376803" lon="-2.991240">
        <ele>29.574</ele>
        <time>2019-06-15T20:10:58Z</time>
      </trkpt>
      <trkpt lat="43.376684" lon="-2.991316">
        <ele>29.183</ele>
        <time>2019-06-15T20:10:59Z</time>
      </trkpt>
      <trkpt lat="43.376579" lon="-2.991399">
        <ele>29.164</ele>
        <time>2019-06-15T20:11:00Z</time>
      </trkpt>
      <trkpt lat="43.376463" lon="-2.991477">
        <ele>29.443</ele>
        <time>2019-06-15T20:11:01Z</time>
      </trkpt>
      <trkpt lat="43.376354" lon="-2.991558">
        <ele>29.457</ele>
        <time>2019-06-15T20:11:02Z</time>
      </trkpt>
      <trkpt lat="43.376232" lon="-2.991643">
        <ele>29.317</ele>
        <time>2019-06-15T20:11:03Z</time>
      </trkpt>
      <trkpt lat="43.376104" lon="-2.991728">
        <ele>29.887</ele>
        <time>2019-06-15T20:11:04Z</time>
      </trkpt>
      <trkpt lat="43.375969" lon="-2.991826">
        <ele>30.215</ele>
        <time>2019-06-15T20:11:05Z</time>
      </trkpt>
      <trkpt lat="43.375826" lon="-2.991934">
        <ele>29.808</ele>
        <time>2019-06-15T20:11:06Z</time>
      </trkpt>
      <trkpt lat="43.375687" lon="-2.992044">
        <ele>29.544</ele>
        <time>2019-06-15T20:11:07Z</time>
      </trkpt>
      <trkpt lat="43.375555" lon="-2.992156">
        <ele>29.338</ele>
        <time>2019-06-15T20:11:08Z</time>
      </trkpt>
      <trkpt lat="43.375425" lon="-2.992272">
        <ele>29.367</ele>
        <time>2019-06-15T20:11:09Z</time>
      </trkpt>
      <trkpt lat="43.375311" lon="-2.992380">
        <ele>28.916</ele>
        <time>2019-06-15T20:11:10Z</time>
      </trkpt>
      <trkpt lat="43.375203" lon="-2.992491">
        <ele>28.775</ele>
        <time>2019-06-15T20:11:11Z</time>
      </trkpt>
      <trkpt lat="43.375101" lon="-2.992610">
        <ele>28.756</ele>
        <time>2019-06-15T20:11:12Z</time>
      </trkpt>
      <trkpt lat="43.375012" lon="-2.992739">
        <ele>28.165</ele>
        <time>2019-06-15T20:11:13Z</time>
      </trkpt>
      <trkpt lat="43.374921" lon="-2.992881">
        <ele>28.299</ele>
        <time>2019-06-15T20:11:14Z</time>
      </trkpt>
      <trkpt lat="43.374842" lon="-2.993044">
        <ele>27.942</ele>
        <time>2019-06-15T20:11:15Z</time>
      </trkpt>
      <trkpt lat="43.374773" lon="-2.993215">
        <ele>27.522</ele>
        <time>2019-06-15T20:11:16Z</time>
      </trkpt>
      <trkpt lat="43.374718" lon="-2.993383">
        <ele>27.214</ele>
        <time>2019-06-15T20:11:17Z</time>
      </trkpt>
      <trkpt lat="43.374670" lon="-2.993543">
        <ele>27.608</ele>
        <time>2019-06-15T20:11:18Z</time>
      </trkpt>
      <trkpt lat="43.374633" lon="-2.993696">
        <ele>28.187</ele>
        <time>2019-06-15T20:11:19Z</time>
      </trkpt>
      <trkpt lat="43.374598" lon="-2.993851">
        <ele>28.561</ele>
        <time>2019-06-15T20:11:20Z</time>
      </trkpt>
      <trkpt lat="43.374582" lon="-2.994005">
        <ele>28.530</ele>
        <time>2019-06-15T20:11:21Z</time>
      </trkpt>
      <trkpt lat="43.374573" lon="-2.994157">
        <ele>28.389</ele>
        <time>2019-06-15T20:11:22Z</time>
      </trkpt>
      <trkpt lat="43.374573" lon="-2.994318">
        <ele>28.888</ele>
        <time>2019-06-15T20:11:23Z</time>
      </trkpt>
      <trkpt lat="43.374580" lon="-2.994490">
        <ele>29.479</ele>
        <time>2019-06-15T20:11:24Z</time>
      </trkpt>
      <trkpt lat="43.374605" lon="-2.994664">
        <ele>30.048</ele>
        <time>2019-06-15T20:11:25Z</time>
      </trkpt>
      <trkpt lat="43.374640" lon="-2.994848">
        <ele>30.362</ele>
        <time>2019-06-15T20:11:26Z</time>
      </trkpt>
      <trkpt lat="43.374687" lon="-2.995037">
        <ele>30.129</ele>
        <time>2019-06-15T20:11:27Z</time>
      </trkpt>
      <trkpt lat="43.374729" lon="-2.995232">
        <ele>29.500</ele>
        <time>2019-06-15T20:11:28Z</time>
      </trkpt>
      <trkpt lat="43.374773" lon="-2.995427">
        <ele>29.720</ele>
        <time>2019-06-15T20:11:29Z</time>
      </trkpt>
      <trkpt lat="43.374808" lon="-2.995617">
        <ele>30.108</ele>
        <time>2019-06-15T20:11:30Z</time>
      </trkpt>
      <trkpt lat="43.374846" lon="-2.995819">
        <ele>31.145</ele>
        <time>2019-06-15T20:11:31Z</time>
      </trkpt>
      <trkpt lat="43.374881" lon="-2.996019">
        <ele>33.219</ele>
        <time>2019-06-15T20:11:32Z</time>
      </trkpt>
      <trkpt lat="43.374916" lon="-2.996213">
        <ele>33.928</ele>
        <time>2019-06-15T20:11:33Z</time>
      </trkpt>
      <trkpt lat="43.374883" lon="-2.996460">
        <ele>32.747</ele>
        <time>2019-06-15T20:11:34Z</time>
      </trkpt>
      <trkpt lat="43.374870" lon="-2.996682">
        <ele>33.796</ele>
        <time>2019-06-15T20:11:35Z</time>
      </trkpt>
      <trkpt lat="43.374848" lon="-2.996899">
        <ele>33.617</ele>
        <time>2019-06-15T20:11:36Z</time>
      </trkpt>
      <trkpt lat="43.374788" lon="-2.997108">
        <ele>33.096</ele>
        <time>2019-06-15T20:11:37Z</time>
      </trkpt>
      <trkpt lat="43.374716" lon="-2.997326">
        <ele>32.160</ele>
        <time>2019-06-15T20:11:38Z</time>
      </trkpt>
      <trkpt lat="43.374643" lon="-2.997530">
        <ele>33.872</ele>
        <time>2019-06-15T20:11:39Z</time>
      </trkpt>
      <trkpt lat="43.374542" lon="-2.997732">
        <ele>33.613</ele>
        <time>2019-06-15T20:11:40Z</time>
      </trkpt>
      <trkpt lat="43.374424" lon="-2.997933">
        <ele>32.114</ele>
        <time>2019-06-15T20:11:41Z</time>
      </trkpt>
      <trkpt lat="43.374317" lon="-2.998129">
        <ele>32.808</ele>
        <time>2019-06-15T20:11:42Z</time>
      </trkpt>
      <trkpt lat="43.374203" lon="-2.998301">
        <ele>31.870</ele>
        <time>2019-06-15T20:11:43Z</time>
      </trkpt>
      <trkpt lat="43.374103" lon="-2.998467">
        <ele>32.764</ele>
        <time>2019-06-15T20:11:44Z</time>
      </trkpt>
      <trkpt lat="43.373993" lon="-2.998629">
        <ele>32.793</ele>
        <time>2019-06-15T20:11:45Z</time>
      </trkpt>
      <trkpt lat="43.373884" lon="-2.998797">
        <ele>32.312</ele>
        <time>2019-06-15T20:11:46Z</time>
      </trkpt>
      <trkpt lat="43.373773" lon="-2.998946">
        <ele>32.661</ele>
        <time>2019-06-15T20:11:47Z</time>
      </trkpt>
      <trkpt lat="43.373671" lon="-2.999110">
        <ele>32.682</ele>
        <time>2019-06-15T20:11:48Z</time>
      </trkpt>
      <trkpt lat="43.373558" lon="-2.999267">
        <ele>32.731</ele>
        <time>2019-06-15T20:11:49Z</time>
      </trkpt>
      <trkpt lat="43.373432" lon="-2.999423">
        <ele>32.715</ele>
        <time>2019-06-15T20:11:50Z</time>
      </trkpt>
      <trkpt lat="43.373310" lon="-2.999568">
        <ele>32.489</ele>
        <time>2019-06-15T20:11:51Z</time>
      </trkpt>
      <trkpt lat="43.373186" lon="-2.999718">
        <ele>31.906</ele>
        <time>2019-06-15T20:11:52Z</time>
      </trkpt>
      <trkpt lat="43.373054" lon="-2.999864">
        <ele>31.526</ele>
        <time>2019-06-15T20:11:53Z</time>
      </trkpt>
      <trkpt lat="43.372909" lon="-2.999997">
        <ele>30.908</ele>
        <time>2019-06-15T20:11:54Z</time>
      </trkpt>
      <trkpt lat="43.372756" lon="-3.000121">
        <ele>27.381</ele>
        <time>2019-06-15T20:11:55Z</time>
      </trkpt>
      <trkpt lat="43.372600" lon="-3.000239">
        <ele>27.195</ele>
        <time>2019-06-15T20:11:56Z</time>
      </trkpt>
      <trkpt lat="43.372444" lon="-3.000358">
        <ele>29.694</ele>
        <time>2019-06-15T20:11:57Z</time>
      </trkpt>
      <trkpt lat="43.372267" lon="-3.000463">
        <ele>30.353</ele>
        <time>2019-06-15T20:11:58Z</time>
      </trkpt>
      <trkpt lat="43.372075" lon="-3.000567">
        <ele>30.052</ele>
        <time>2019-06-15T20:11:59Z</time>
      </trkpt>
      <trkpt lat="43.371884" lon="-3.000661">
        <ele>29.533</ele>
        <time>2019-06-15T20:12:00Z</time>
      </trkpt>
      <trkpt lat="43.371681" lon="-3.000745">
        <ele>29.472</ele>
        <time>2019-06-15T20:12:01Z</time>
      </trkpt>
      <trkpt lat="43.371475" lon="-3.000820">
        <ele>28.596</ele>
        <time>2019-06-15T20:12:02Z</time>
      </trkpt>
      <trkpt lat="43.371257" lon="-3.000879">
        <ele>28.017</ele>
        <time>2019-06-15T20:12:03Z</time>
      </trkpt>
      <trkpt lat="43.371030" lon="-3.000931">
        <ele>27.887</ele>
        <time>2019-06-15T20:12:04Z</time>
      </trkpt>
      <trkpt lat="43.370803" lon="-3.000969">
        <ele>27.415</ele>
        <time>2019-06-15T20:12:05Z</time>
      </trkpt>
      <trkpt lat="43.370565" lon="-3.000998">
        <ele>27.208</ele>
        <time>2019-06-15T20:12:06Z</time>
      </trkpt>
      <trkpt lat="43.370320" lon="-3.001025">
        <ele>26.844</ele>
        <time>2019-06-15T20:12:07Z</time>
      </trkpt>
      <trkpt lat="43.370073" lon="-3.001051">
        <ele>26.228</ele>
        <time>2019-06-15T20:12:08Z</time>
      </trkpt>
      <trkpt lat="43.369825" lon="-3.001081">
        <ele>25.597</ele>
        <time>2019-06-15T20:12:09Z</time>
      </trkpt>
      <trkpt lat="43.369575" lon="-3.001112">
        <ele>25.526</ele>
        <time>2019-06-15T20:12:10Z</time>
      </trkpt>
      <trkpt lat="43.369324" lon="-3.001155">
        <ele>26.725</ele>
        <time>2019-06-15T20:12:11Z</time>
      </trkpt>
      <trkpt lat="43.369073" lon="-3.001212">
        <ele>27.446</ele>
        <time>2019-06-15T20:12:12Z</time>
      </trkpt>
      <trkpt lat="43.368822" lon="-3.001295">
        <ele>27.645</ele>
        <time>2019-06-15T20:12:13Z</time>
      </trkpt>
      <trkpt lat="43.368568" lon="-3.001404">
        <ele>27.359</ele>
        <time>2019-06-15T20:12:14Z</time>
      </trkpt>
      <trkpt lat="43.368332" lon="-3.001537">
        <ele>28.621</ele>
        <time>2019-06-15T20:12:15Z</time>
      </trkpt>
      <trkpt lat="43.368093" lon="-3.001684">
        <ele>27.841</ele>
        <time>2019-06-15T20:12:16Z</time>
      </trkpt>
      <trkpt lat="43.367856" lon="-3.001837">
        <ele>29.105</ele>
        <time>2019-06-15T20:12:17Z</time>
      </trkpt>
      <trkpt lat="43.367622" lon="-3.002005">
        <ele>29.108</ele>
        <time>2019-06-15T20:12:18Z</time>
      </trkpt>
      <trkpt lat="43.367377" lon="-3.002169">
        <ele>29.035</ele>
        <time>2019-06-15T20:12:19Z</time>
      </trkpt>
      <trkpt lat="43.367141" lon="-3.002329">
        <ele>28.959</ele>
        <time>2019-06-15T20:12:20Z</time>
      </trkpt>
      <trkpt lat="43.366898" lon="-3.002488">
        <ele>28.838</ele>
        <time>2019-06-15T20:12:21Z</time>
      </trkpt>
      <trkpt lat="43.366646" lon="-3.002622">
        <ele>28.887</ele>
        <time>2019-06-15T20:12:22Z</time>
      </trkpt>
      <trkpt lat="43.366402" lon="-3.002744">
        <ele>28.986</ele>
        <time>2019-06-15T20:12:23Z</time>
      </trkpt>
      <trkpt lat="43.366155" lon="-3.002864">
        <ele>29.347</ele>
        <time>2019-06-15T20:12:24Z</time>
      </trkpt>
      <trkpt lat="43.365893" lon="-3.002956">
        <ele>28.916</ele>
        <time>2019-06-15T20:12:25Z</time>
      </trkpt>
      <trkpt lat="43.365642" lon="-3.003020">
        <ele>24.620</ele>
        <time>2019-06-15T20:12:26Z</time>
      </trkpt>
      <trkpt lat="43.365393" lon="-3.003084">
        <ele>25.866</ele>
        <time>2019-06-15T20:12:27Z</time>
      </trkpt>
      <trkpt lat="43.365146" lon="-3.003121">
        <ele>27.829</ele>
        <time>2019-06-15T20:12:28Z</time>
      </trkpt>
      <trkpt lat="43.364892" lon="-3.003134">
        <ele>27.321</ele>
        <time>2019-06-15T20:12:29Z</time>
      </trkpt>
      <trkpt lat="43.364636" lon="-3.003131">
        <ele>26.108</ele>
        <time>2019-06-15T20:12:30Z</time>
      </trkpt>
      <trkpt lat="43.364381" lon="-3.003101">
        <ele>24.519</ele>
        <time>2019-06-15T20:12:31Z</time>
      </trkpt>
      <trkpt lat="43.364124" lon="-3.003058">
        <ele>23.753</ele>
        <time>2019-06-15T20:12:32Z</time>
      </trkpt>
      <trkpt lat="43.363862" lon="-3.003002">
        <ele>21.982</ele>
        <time>2019-06-15T20:12:33Z</time>
      </trkpt>
      <trkpt lat="43.363611" lon="-3.002919">
        <ele>20.011</ele>
        <time>2019-06-15T20:12:34Z</time>
      </trkpt>
      <trkpt lat="43.363362" lon="-3.002814">
        <ele>14.890</ele>
        <time>2019-06-15T20:12:35Z</time>
      </trkpt>
      <trkpt lat="43.363124" lon="-3.002699">
        <ele>13.821</ele>
        <time>2019-06-15T20:12:36Z</time>
      </trkpt>
      <trkpt lat="43.362885" lon="-3.002565">
        <ele>13.130</ele>
        <time>2019-06-15T20:12:37Z</time>
      </trkpt>
      <trkpt lat="43.362655" lon="-3.002429">
        <ele>13.064</ele>
        <time>2019-06-15T20:12:38Z</time>
      </trkpt>
      <trkpt lat="43.362427" lon="-3.002267">
        <ele>14.172</ele>
        <time>2019-06-15T20:12:39Z</time>
      </trkpt>
      <trkpt lat="43.362207" lon="-3.002096">
        <ele>15.913</ele>
        <time>2019-06-15T20:12:40Z</time>
      </trkpt>
      <trkpt lat="43.361997" lon="-3.001930">
        <ele>16.214</ele>
        <time>2019-06-15T20:12:41Z</time>
      </trkpt>
      <trkpt lat="43.361785" lon="-3.001767">
        <ele>15.808</ele>
        <time>2019-06-15T20:12:42Z</time>
      </trkpt>
      <trkpt lat="43.361579" lon="-3.001600">
        <ele>15.590</ele>
        <time>2019-06-15T20:12:43Z</time>
      </trkpt>
      <trkpt lat="43.361365" lon="-3.001449">
        <ele>14.934</ele>
        <time>2019-06-15T20:12:44Z</time>
      </trkpt>
      <trkpt lat="43.361146" lon="-3.001304">
        <ele>14.193</ele>
        <time>2019-06-15T20:12:45Z</time>
      </trkpt>
      <trkpt lat="43.360917" lon="-3.001171">
        <ele>13.392</ele>
        <time>2019-06-15T20:12:46Z</time>
      </trkpt>
      <trkpt lat="43.360681" lon="-3.001051">
        <ele>12.531</ele>
        <time>2019-06-15T20:12:47Z</time>
      </trkpt>
      <trkpt lat="43.360441" lon="-3.000941">
        <ele>12.092</ele>
        <time>2019-06-15T20:12:48Z</time>
      </trkpt>
      <trkpt lat="43.360201" lon="-3.000848">
        <ele>11.721</ele>
        <time>2019-06-15T20:12:49Z</time>
      </trkpt>
      <trkpt lat="43.359956" lon="-3.000771">
        <ele>11.045</ele>
        <time>2019-06-15T20:12:50Z</time>
      </trkpt>
      <trkpt lat="43.359701" lon="-3.000704">
        <ele>10.596</ele>
        <time>2019-06-15T20:12:51Z</time>
      </trkpt>
      <trkpt lat="43.359450" lon="-3.000643">
        <ele>10.031</ele>
        <time>2019-06-15T20:12:52Z</time>
      </trkpt>
      <trkpt lat="43.359189" lon="-3.000587">
        <ele>9.224</ele>
        <time>2019-06-15T20:12:53Z</time>
      </trkpt>
      <trkpt lat="43.358932" lon="-3.000533">
        <ele>8.208</ele>
        <time>2019-06-15T20:12:54Z</time>
      </trkpt>
      <trkpt lat="43.358662" lon="-3.000495">
        <ele>8.042</ele>
        <time>2019-06-15T20:12:55Z</time>
      </trkpt>
      <trkpt lat="43.358393" lon="-3.000464">
        <ele>7.756</ele>
        <time>2019-06-15T20:12:56Z</time>
      </trkpt>
      <trkpt lat="43.358129" lon="-3.000432">
        <ele>7.645</ele>
        <time>2019-06-15T20:12:57Z</time>
      </trkpt>
      <trkpt lat="43.357870" lon="-3.000387">
        <ele>7.034</ele>
        <time>2019-06-15T20:12:58Z</time>
      </trkpt>
      <trkpt lat="43.357614" lon="-3.000352">
        <ele>6.543</ele>
        <time>2019-06-15T20:12:59Z</time>
      </trkpt>
      <trkpt lat="43.357361" lon="-3.000316">
        <ele>5.924</ele>
        <time>2019-06-15T20:13:00Z</time>
      </trkpt>
      <trkpt lat="43.357117" lon="-3.000276">
        <ele>5.443</ele>
        <time>2019-06-15T20:13:01Z</time>
      </trkpt>
      <trkpt lat="43.356871" lon="-3.000231">
        <ele>6.347</ele>
        <time>2019-06-15T20:13:02Z</time>
      </trkpt>
      <trkpt lat="43.356630" lon="-3.000182">
        <ele>6.763</ele>
        <time>2019-06-15T20:13:03Z</time>
      </trkpt>
      <trkpt lat="43.356387" lon="-3.000143">
        <ele>7.044</ele>
        <time>2019-06-15T20:13:04Z</time>
      </trkpt>
      <trkpt lat="43.356145" lon="-3.000106">
        <ele>7.418</ele>
        <time>2019-06-15T20:13:05Z</time>
      </trkpt>
      <trkpt lat="43.355915" lon="-3.000059">
        <ele>7.908</ele>
        <time>2019-06-15T20:13:06Z</time>
      </trkpt>
      <trkpt lat="43.355683" lon="-3.000011">
        <ele>7.899</ele>
        <time>2019-06-15T20:13:07Z</time>
      </trkpt>
      <trkpt lat="43.355448" lon="-2.999957">
        <ele>8.633</ele>
        <time>2019-06-15T20:13:08Z</time>
      </trkpt>
      <trkpt lat="43.355214" lon="-2.999914">
        <ele>10.112</ele>
        <time>2019-06-15T20:13:09Z</time>
      </trkpt>
      <trkpt lat="43.354981" lon="-2.999853">
        <ele>12.821</ele>
        <time>2019-06-15T20:13:10Z</time>
      </trkpt>
      <trkpt lat="43.354750" lon="-2.999776">
        <ele>9.810</ele>
        <time>2019-06-15T20:13:11Z</time>
      </trkpt>
      <trkpt lat="43.354524" lon="-2.999698">
        <ele>10.751</ele>
        <time>2019-06-15T20:13:12Z</time>
      </trkpt>
      <trkpt lat="43.354295" lon="-2.999602">
        <ele>11.450</ele>
        <time>2019-06-15T20:13:13Z</time>
      </trkpt>
      <trkpt lat="43.354061" lon="-2.999498">
        <ele>10.794</ele>
        <time>2019-06-15T20:13:14Z</time>
      </trkpt>
      <trkpt lat="43.353834" lon="-2.999380">
        <ele>10.842</ele>
        <time>2019-06-15T20:13:15Z</time>
      </trkpt>
      <trkpt lat="43.353612" lon="-2.999260">
        <ele>10.322</ele>
        <time>2019-06-15T20:13:16Z</time>
      </trkpt>
      <trkpt lat="43.353384" lon="-2.999128">
        <ele>10.614</ele>
        <time>2019-06-15T20:13:17Z</time>
      </trkpt>
      <trkpt lat="43.353155" lon="-2.998995">
        <ele>10.408</ele>
        <time>2019-06-15T20:13:18Z</time>
      </trkpt>
      <trkpt lat="43.352921" lon="-2.998881">
        <ele>10.557</ele>
        <time>2019-06-15T20:13:19Z</time>
      </trkpt>
      <trkpt lat="43.352692" lon="-2.998769">
        <ele>10.491</ele>
        <time>2019-06-15T20:13:20Z</time>
      </trkpt>
      <trkpt lat="43.352457" lon="-2.998645">
        <ele>10.670</ele>
        <time>2019-06-15T20:13:21Z</time>
      </trkpt>
      <trkpt lat="43.352225" lon="-2.998520">
        <ele>10.339</ele>
        <time>2019-06-15T20:13:22Z</time>
      </trkpt>
      <trkpt lat="43.351986" lon="-2.998408">
        <ele>10.328</ele>
        <time>2019-06-15T20:13:23Z</time>
      </trkpt>
      <trkpt lat="43.351751" lon="-2.998294">
        <ele>10.489</ele>
        <time>2019-06-15T20:13:24Z</time>
      </trkpt>
      <trkpt lat="43.351516" lon="-2.998181">
        <ele>11.178</ele>
        <time>2019-06-15T20:13:25Z</time>
      </trkpt>
      <trkpt lat="43.351283" lon="-2.998073">
        <ele>12.092</ele>
        <time>2019-06-15T20:13:26Z</time>
      </trkpt>
      <trkpt lat="43.351047" lon="-2.997964">
        <ele>11.974</ele>
        <time>2019-06-15T20:13:27Z</time>
      </trkpt>
      <trkpt lat="43.350810" lon="-2.997859">
        <ele>13.556</ele>
        <time>2019-06-15T20:13:28Z</time>
      </trkpt>
      <trkpt lat="43.350572" lon="-2.997745">
        <ele>15.121</ele>
        <time>2019-06-15T20:13:29Z</time>
      </trkpt>
      <trkpt lat="43.350352" lon="-2.997632">
        <ele>15.208</ele>
        <time>2019-06-15T20:13:30Z</time>
      </trkpt>
      <trkpt lat="43.350141" lon="-2.997528">
        <ele>16.420</ele>
        <time>2019-06-15T20:13:31Z</time>
      </trkpt>
      <trkpt lat="43.349936" lon="-2.997414">
        <ele>16.994</ele>
        <time>2019-06-15T20:13:32Z</time>
      </trkpt>
      <trkpt lat="43.349736" lon="-2.997286">
        <ele>17.823</ele>
        <time>2019-06-15T20:13:33Z</time>
      </trkpt>
      <trkpt lat="43.349539" lon="-2.997131">
        <ele>18.462</ele>
        <time>2019-06-15T20:13:34Z</time>
      </trkpt>
      <trkpt lat="43.349351" lon="-2.996964">
        <ele>19.741</ele>
        <time>2019-06-15T20:13:35Z</time>
      </trkpt>
      <trkpt lat="43.349162" lon="-2.996775">
        <ele>20.662</ele>
        <time>2019-06-15T20:13:36Z</time>
      </trkpt>
      <trkpt lat="43.348975" lon="-2.996573">
        <ele>21.151</ele>
        <time>2019-06-15T20:13:37Z</time>
      </trkpt>
      <trkpt lat="43.348797" lon="-2.996356">
        <ele>21.595</ele>
        <time>2019-06-15T20:13:38Z</time>
      </trkpt>
      <trkpt lat="43.348620" lon="-2.996130">
        <ele>21.948</ele>
        <time>2019-06-15T20:13:39Z</time>
      </trkpt>
      <trkpt lat="43.348456" lon="-2.995892">
        <ele>22.061</ele>
        <time>2019-06-15T20:13:40Z</time>
      </trkpt>
      <trkpt lat="43.348305" lon="-2.995642">
        <ele>22.417</ele>
        <time>2019-06-15T20:13:41Z</time>
      </trkpt>
      <trkpt lat="43.348155" lon="-2.995398">
        <ele>22.908</ele>
        <time>2019-06-15T20:13:42Z</time>
      </trkpt>
      <trkpt lat="43.348010" lon="-2.995153">
        <ele>23.117</ele>
        <time>2019-06-15T20:13:43Z</time>
      </trkpt>
      <trkpt lat="43.347863" lon="-2.994906">
        <ele>24.371</ele>
        <time>2019-06-15T20:13:44Z</time>
      </trkpt>
      <trkpt lat="43.347723" lon="-2.994665">
        <ele>23.730</ele>
        <time>2019-06-15T20:13:45Z</time>
      </trkpt>
      <trkpt lat="43.347580" lon="-2.994431">
        <ele>23.779</ele>
        <time>2019-06-15T20:13:46Z</time>
      </trkpt>
      <trkpt lat="43.347429" lon="-2.994199">
        <ele>23.358</ele>
        <time>2019-06-15T20:13:47Z</time>
      </trkpt>
      <trkpt lat="43.347264" lon="-2.993992">
        <ele>23.619</ele>
        <time>2019-06-15T20:13:48Z</time>
      </trkpt>
      <trkpt lat="43.347081" lon="-2.993806">
        <ele>22.338</ele>
        <time>2019-06-15T20:13:49Z</time>
      </trkpt>
      <trkpt lat="43.346887" lon="-2.993641">
        <ele>18.992</ele>
        <time>2019-06-15T20:13:50Z</time>
      </trkpt>
      <trkpt lat="43.346682" lon="-2.993498">
        <ele>10.623</ele>
        <time>2019-06-15T20:13:51Z</time>
      </trkpt>
      <trkpt lat="43.346470" lon="-2.993384">
        <ele>7.783</ele>
        <time>2019-06-15T20:13:52Z</time>
      </trkpt>
      <trkpt lat="43.346245" lon="-2.993299">
        <ele>7.011</ele>
        <time>2019-06-15T20:13:53Z</time>
      </trkpt>
      <trkpt lat="43.346010" lon="-2.993234">
        <ele>6.508</ele>
        <time>2019-06-15T20:13:54Z</time>
      </trkpt>
      <trkpt lat="43.345768" lon="-2.993207">
        <ele>6.585</ele>
        <time>2019-06-15T20:13:55Z</time>
      </trkpt>
      <trkpt lat="43.345531" lon="-2.993207">
        <ele>6.529</ele>
        <time>2019-06-15T20:13:56Z</time>
      </trkpt>
      <trkpt lat="43.345311" lon="-2.993262">
        <ele>6.548</ele>
        <time>2019-06-15T20:13:57Z</time>
      </trkpt>
      <trkpt lat="43.345077" lon="-2.993326">
        <ele>6.877</ele>
        <time>2019-06-15T20:13:58Z</time>
      </trkpt>
      <trkpt lat="43.344844" lon="-2.993430">
        <ele>7.686</ele>
        <time>2019-06-15T20:13:59Z</time>
      </trkpt>
      <trkpt lat="43.344621" lon="-2.993571">
        <ele>8.757</ele>
        <time>2019-06-15T20:14:00Z</time>
      </trkpt>
      <trkpt lat="43.344422" lon="-2.993726">
        <ele>11.966</ele>
        <time>2019-06-15T20:14:01Z</time>
      </trkpt>
      <trkpt lat="43.344234" lon="-2.993903">
        <ele>19.120</ele>
        <time>2019-06-15T20:14:02Z</time>
      </trkpt>
      <trkpt lat="43.344058" lon="-2.994101">
        <ele>20.554</ele>
        <time>2019-06-15T20:14:03Z</time>
      </trkpt>
      <trkpt lat="43.343903" lon="-2.994315">
        <ele>21.656</ele>
        <time>2019-06-15T20:14:04Z</time>
      </trkpt>
      <trkpt lat="43.343753" lon="-2.994545">
        <ele>21.711</ele>
        <time>2019-06-15T20:14:05Z</time>
      </trkpt>
      <trkpt lat="43.343615" lon="-2.994797">
        <ele>22.708</ele>
        <time>2019-06-15T20:14:06Z</time>
      </trkpt>
      <trkpt lat="43.343488" lon="-2.995065">
        <ele>22.938</ele>
        <time>2019-06-15T20:14:07Z</time>
      </trkpt>
      <trkpt lat="43.343360" lon="-2.995343">
        <ele>23.622</ele>
        <time>2019-06-15T20:14:08Z</time>
      </trkpt>
      <trkpt lat="43.343223" lon="-2.995618">
        <ele>23.571</ele>
        <time>2019-06-15T20:14:09Z</time>
      </trkpt>
      <trkpt lat="43.343083" lon="-2.995897">
        <ele>24.280</ele>
        <time>2019-06-15T20:14:10Z</time>
      </trkpt>
      <trkpt lat="43.342937" lon="-2.996167">
        <ele>22.519</ele>
        <time>2019-06-15T20:14:11Z</time>
      </trkpt>
      <trkpt lat="43.342775" lon="-2.996431">
        <ele>19.040</ele>
        <time>2019-06-15T20:14:12Z</time>
      </trkpt>
      <trkpt lat="43.342612" lon="-2.996669">
        <ele>22.639</ele>
        <time>2019-06-15T20:14:13Z</time>
      </trkpt>
      <trkpt lat="43.342413" lon="-2.996876">
        <ele>23.533</ele>
        <time>2019-06-15T20:14:14Z</time>
      </trkpt>
      <trkpt lat="43.342211" lon="-2.997078">
        <ele>24.169</ele>
        <time>2019-06-15T20:14:15Z</time>
      </trkpt>
      <trkpt lat="43.341998" lon="-2.997260">
        <ele>24.604</ele>
        <time>2019-06-15T20:14:16Z</time>
      </trkpt>
      <trkpt lat="43.341785" lon="-2.997409">
        <ele>24.124</ele>
        <time>2019-06-15T20:14:17Z</time>
      </trkpt>
      <trkpt lat="43.341560" lon="-2.997553">
        <ele>23.708</ele>
        <time>2019-06-15T20:14:18Z</time>
      </trkpt>
      <trkpt lat="43.341326" lon="-2.997668">
        <ele>23.589</ele>
        <time>2019-06-15T20:14:19Z</time>
      </trkpt>
      <trkpt lat="43.341085" lon="-2.997753">
        <ele>22.913</ele>
        <time>2019-06-15T20:14:20Z</time>
      </trkpt>
      <trkpt lat="43.340837" lon="-2.997829">
        <ele>21.392</ele>
        <time>2019-06-15T20:14:21Z</time>
      </trkpt>
      <trkpt lat="43.340578" lon="-2.997898">
        <ele>20.121</ele>
        <time>2019-06-15T20:14:22Z</time>
      </trkpt>
      <trkpt lat="43.340312" lon="-2.997958">
        <ele>19.410</ele>
        <time>2019-06-15T20:14:23Z</time>
      </trkpt>
      <trkpt lat="43.340044" lon="-2.998020">
        <ele>19.031</ele>
        <time>2019-06-15T20:14:24Z</time>
      </trkpt>
      <trkpt lat="43.339777" lon="-2.998086">
        <ele>17.610</ele>
        <time>2019-06-15T20:14:25Z</time>
      </trkpt>
      <trkpt lat="43.339522" lon="-2.998161">
        <ele>16.254</ele>
        <time>2019-06-15T20:14:26Z</time>
      </trkpt>
      <trkpt lat="43.339260" lon="-2.998244">
        <ele>15.429</ele>
        <time>2019-06-15T20:14:27Z</time>
      </trkpt>
      <trkpt lat="43.339004" lon="-2.998344">
        <ele>14.800</ele>
        <time>2019-06-15T20:14:28Z</time>
      </trkpt>
      <trkpt lat="43.338747" lon="-2.998443">
        <ele>12.920</ele>
        <time>2019-06-15T20:14:29Z</time>
      </trkpt>
      <trkpt lat="43.338490" lon="-2.998565">
        <ele>11.608</ele>
        <time>2019-06-15T20:14:30Z</time>
      </trkpt>
      <trkpt lat="43.338239" lon="-2.998699">
        <ele>11.155</ele>
        <time>2019-06-15T20:14:31Z</time>
      </trkpt>
      <trkpt lat="43.337994" lon="-2.998831">
        <ele>11.159</ele>
        <time>2019-06-15T20:14:32Z</time>
      </trkpt>
      <trkpt lat="43.337750" lon="-2.998964">
        <ele>9.998</ele>
        <time>2019-06-15T20:14:33Z</time>
      </trkpt>
      <trkpt lat="43.337511" lon="-2.999101">
        <ele>9.257</ele>
        <time>2019-06-15T20:14:34Z</time>
      </trkpt>
      <trkpt lat="43.337283" lon="-2.999230">
        <ele>8.496</ele>
        <time>2019-06-15T20:14:35Z</time>
      </trkpt>
      <trkpt lat="43.337060" lon="-2.999349">
        <ele>7.927</ele>
        <time>2019-06-15T20:14:36Z</time>
      </trkpt>
      <trkpt lat="43.336855" lon="-2.999472">
        <ele>7.826</ele>
        <time>2019-06-15T20:14:37Z</time>
      </trkpt>
      <trkpt lat="43.336651" lon="-2.999586">
        <ele>7.590</ele>
        <time>2019-06-15T20:14:38Z</time>
      </trkpt>
      <trkpt lat="43.336457" lon="-2.999689">
        <ele>7.898</ele>
        <time>2019-06-15T20:14:39Z</time>
      </trkpt>
      <trkpt lat="43.336263" lon="-2.999789">
        <ele>7.815</ele>
        <time>2019-06-15T20:14:40Z</time>
      </trkpt>
      <trkpt lat="43.336071" lon="-2.999908">
        <ele>7.526</ele>
        <time>2019-06-15T20:14:41Z</time>
      </trkpt>
      <trkpt lat="43.335874" lon="-3.000019">
        <ele>7.808</ele>
        <time>2019-06-15T20:14:42Z</time>
      </trkpt>
      <trkpt lat="43.335685" lon="-3.000122">
        <ele>7.812</ele>
        <time>2019-06-15T20:14:43Z</time>
      </trkpt>
      <trkpt lat="43.335507" lon="-3.000228">
        <ele>8.016</ele>
        <time>2019-06-15T20:14:44Z</time>
      </trkpt>
      <trkpt lat="43.335337" lon="-3.000332">
        <ele>7.855</ele>
        <time>2019-06-15T20:14:45Z</time>
      </trkpt>
      <trkpt lat="43.335170" lon="-3.000442">
        <ele>7.464</ele>
        <time>2019-06-15T20:14:46Z</time>
      </trkpt>
      <trkpt lat="43.335011" lon="-3.000553">
        <ele>7.083</ele>
        <time>2019-06-15T20:14:47Z</time>
      </trkpt>
      <trkpt lat="43.334857" lon="-3.000648">
        <ele>7.394</ele>
        <time>2019-06-15T20:14:48Z</time>
      </trkpt>
      <trkpt lat="43.334733" lon="-3.000752">
        <ele>7.333</ele>
        <time>2019-06-15T20:14:49Z</time>
      </trkpt>
      <trkpt lat="43.334600" lon="-3.000844">
        <ele>7.087</ele>
        <time>2019-06-15T20:14:50Z</time>
      </trkpt>
      <trkpt lat="43.334478" lon="-3.000929">
        <ele>7.381</ele>
        <time>2019-06-15T20:14:51Z</time>
      </trkpt>
      <trkpt lat="43.334366" lon="-3.001014">
        <ele>7.461</ele>
        <time>2019-06-15T20:14:52Z</time>
      </trkpt>
      <trkpt lat="43.334252" lon="-3.001099">
        <ele>6.717</ele>
        <time>2019-06-15T20:14:53Z</time>
      </trkpt>
      <trkpt lat="43.334134" lon="-3.001185">
        <ele>6.608</ele>
        <time>2019-06-15T20:14:54Z</time>
      </trkpt>
      <trkpt lat="43.334021" lon="-3.001260">
        <ele>7.061</ele>
        <time>2019-06-15T20:14:55Z</time>
      </trkpt>
      <trkpt lat="43.333900" lon="-3.001334">
        <ele>6.495</ele>
        <time>2019-06-15T20:14:56Z</time>
      </trkpt>
      <trkpt lat="43.333767" lon="-3.001404">
        <ele>6.554</ele>
        <time>2019-06-15T20:14:57Z</time>
      </trkpt>
      <trkpt lat="43.333634" lon="-3.001474">
        <ele>7.513</ele>
        <time>2019-06-15T20:14:58Z</time>
      </trkpt>
      <trkpt lat="43.333502" lon="-3.001546">
        <ele>8.592</ele>
        <time>2019-06-15T20:14:59Z</time>
      </trkpt>
      <trkpt lat="43.332855" lon="-3.001235">
        <ele>9.223</ele>
        <time>2019-06-15T20:15:04Z</time>
      </trkpt>
      <trkpt lat="43.332718" lon="-3.001087">
        <ele>8.742</ele>
        <time>2019-06-15T20:15:05Z</time>
      </trkpt>
      <trkpt lat="43.332597" lon="-3.000846">
        <ele>9.416</ele>
        <time>2019-06-15T20:15:06Z</time>
      </trkpt>
      <trkpt lat="43.332492" lon="-3.000686">
        <ele>10.112</ele>
        <time>2019-06-15T20:15:07Z</time>
      </trkpt>
      <trkpt lat="43.332392" lon="-3.000533">
        <ele>11.432</ele>
        <time>2019-06-15T20:15:08Z</time>
      </trkpt>
      <trkpt lat="43.332320" lon="-3.000370">
        <ele>11.405</ele>
        <time>2019-06-15T20:15:09Z</time>
      </trkpt>
      <trkpt lat="43.332247" lon="-3.000235">
        <ele>11.208</ele>
        <time>2019-06-15T20:15:10Z</time>
      </trkpt>
      <trkpt lat="43.332176" lon="-3.000093">
        <ele>11.974</ele>
        <time>2019-06-15T20:15:11Z</time>
      </trkpt>
      <trkpt lat="43.332099" lon="-2.999939">
        <ele>12.458</ele>
        <time>2019-06-15T20:15:12Z</time>
      </trkpt>
      <trkpt lat="43.332025" lon="-2.999796">
        <ele>12.727</ele>
        <time>2019-06-15T20:15:13Z</time>
      </trkpt>
      <trkpt lat="43.331956" lon="-2.999647">
        <ele>13.286</ele>
        <time>2019-06-15T20:15:14Z</time>
      </trkpt>
      <trkpt lat="43.331889" lon="-2.999496">
        <ele>13.955</ele>
        <time>2019-06-15T20:15:15Z</time>
      </trkpt>
      <trkpt lat="43.331811" lon="-2.999341">
        <ele>13.866</ele>
        <time>2019-06-15T20:15:16Z</time>
      </trkpt>
      <trkpt lat="43.331730" lon="-2.999175">
        <ele>13.835</ele>
        <time>2019-06-15T20:15:17Z</time>
      </trkpt>
      <trkpt lat="43.331644" lon="-2.999011">
        <ele>14.689</ele>
        <time>2019-06-15T20:15:18Z</time>
      </trkpt>
      <trkpt lat="43.331559" lon="-2.998851">
        <ele>15.037</ele>
        <time>2019-06-15T20:15:19Z</time>
      </trkpt>
      <trkpt lat="43.331479" lon="-2.998688">
        <ele>15.049</ele>
        <time>2019-06-15T20:15:20Z</time>
      </trkpt>
      <trkpt lat="43.331394" lon="-2.998547">
        <ele>15.213</ele>
        <time>2019-06-15T20:15:21Z</time>
      </trkpt>
      <trkpt lat="43.331302" lon="-2.998378">
        <ele>15.908</ele>
        <time>2019-06-15T20:15:22Z</time>
      </trkpt>
      <trkpt lat="43.331209" lon="-2.998192">
        <ele>15.896</ele>
        <time>2019-06-15T20:15:23Z</time>
      </trkpt>
      <trkpt lat="43.331112" lon="-2.997999">
        <ele>16.010</ele>
        <time>2019-06-15T20:15:24Z</time>
      </trkpt>
      <trkpt lat="43.331006" lon="-2.997786">
        <ele>16.479</ele>
        <time>2019-06-15T20:15:25Z</time>
      </trkpt>
      <trkpt lat="43.330890" lon="-2.997571">
        <ele>16.818</ele>
        <time>2019-06-15T20:15:26Z</time>
      </trkpt>
      <trkpt lat="43.330767" lon="-2.997352">
        <ele>17.017</ele>
        <time>2019-06-15T20:15:27Z</time>
      </trkpt>
      <trkpt lat="43.330641" lon="-2.997135">
        <ele>17.748</ele>
        <time>2019-06-15T20:15:28Z</time>
      </trkpt>
      <trkpt lat="43.330517" lon="-2.996916">
        <ele>18.097</ele>
        <time>2019-06-15T20:15:29Z</time>
      </trkpt>
      <trkpt lat="43.330393" lon="-2.996678">
        <ele>18.071</ele>
        <time>2019-06-15T20:15:30Z</time>
      </trkpt>
      <trkpt lat="43.330272" lon="-2.996438">
        <ele>18.098</ele>
        <time>2019-06-15T20:15:31Z</time>
      </trkpt>
      <trkpt lat="43.330148" lon="-2.996194">
        <ele>18.015</ele>
        <time>2019-06-15T20:15:32Z</time>
      </trkpt>
      <trkpt lat="43.330018" lon="-2.995933">
        <ele>18.626</ele>
        <time>2019-06-15T20:15:33Z</time>
      </trkpt>
      <trkpt lat="43.329887" lon="-2.995670">
        <ele>18.108</ele>
        <time>2019-06-15T20:15:34Z</time>
      </trkpt>
      <trkpt lat="43.329759" lon="-2.995409">
        <ele>18.722</ele>
        <time>2019-06-15T20:15:35Z</time>
      </trkpt>
      <trkpt lat="43.329621" lon="-2.995141">
        <ele>19.096</ele>
        <time>2019-06-15T20:15:36Z</time>
      </trkpt>
      <trkpt lat="43.329487" lon="-2.994871">
        <ele>18.985</ele>
        <time>2019-06-15T20:15:37Z</time>
      </trkpt>
      <trkpt lat="43.329356" lon="-2.994607">
        <ele>19.294</ele>
        <time>2019-06-15T20:15:38Z</time>
      </trkpt>
      <trkpt lat="43.329216" lon="-2.994331">
        <ele>19.353</ele>
        <time>2019-06-15T20:15:39Z</time>
      </trkpt>
      <trkpt lat="43.329075" lon="-2.994053">
        <ele>19.824</ele>
        <time>2019-06-15T20:15:40Z</time>
      </trkpt>
      <trkpt lat="43.328933" lon="-2.993763">
        <ele>20.223</ele>
        <time>2019-06-15T20:15:41Z</time>
      </trkpt>
      <trkpt lat="43.328796" lon="-2.993472">
        <ele>21.827</ele>
        <time>2019-06-15T20:15:42Z</time>
      </trkpt>
      <trkpt lat="43.328667" lon="-2.993199">
        <ele>22.835</ele>
        <time>2019-06-15T20:15:43Z</time>
      </trkpt>
      <trkpt lat="43.328526" lon="-2.992913">
        <ele>24.086</ele>
        <time>2019-06-15T20:15:44Z</time>
      </trkpt>
      <trkpt lat="43.328382" lon="-2.992623">
        <ele>25.014</ele>
        <time>2019-06-15T20:15:45Z</time>
      </trkpt>
      <trkpt lat="43.328244" lon="-2.992338">
        <ele>26.208</ele>
        <time>2019-06-15T20:15:46Z</time>
      </trkpt>
      <trkpt lat="43.328101" lon="-2.992060">
        <ele>26.676</ele>
        <time>2019-06-15T20:15:47Z</time>
      </trkpt>
      <trkpt lat="43.327962" lon="-2.991788">
        <ele>28.260</ele>
        <time>2019-06-15T20:15:48Z</time>
      </trkpt>
      <trkpt lat="43.327823" lon="-2.991515">
        <ele>27.499</ele>
        <time>2019-06-15T20:15:49Z</time>
      </trkpt>
      <trkpt lat="43.327707" lon="-2.991270">
        <ele>27.828</ele>
        <time>2019-06-15T20:15:50Z</time>
      </trkpt>
      <trkpt lat="43.327590" lon="-2.991041">
        <ele>27.457</ele>
        <time>2019-06-15T20:15:51Z</time>
      </trkpt>
      <trkpt lat="43.327466" lon="-2.990791">
        <ele>25.478</ele>
        <time>2019-06-15T20:15:52Z</time>
      </trkpt>
      <trkpt lat="43.327349" lon="-2.990566">
        <ele>25.587</ele>
        <time>2019-06-15T20:15:53Z</time>
      </trkpt>
      <trkpt lat="43.327229" lon="-2.990334">
        <ele>22.781</ele>
        <time>2019-06-15T20:15:54Z</time>
      </trkpt>
      <trkpt lat="43.327110" lon="-2.990103">
        <ele>23.055</ele>
        <time>2019-06-15T20:15:55Z</time>
      </trkpt>
      <trkpt lat="43.326995" lon="-2.989861">
        <ele>21.007</ele>
        <time>2019-06-15T20:15:56Z</time>
      </trkpt>
      <trkpt lat="43.326844" lon="-2.989559">
        <ele>20.017</ele>
        <time>2019-06-15T20:15:57Z</time>
      </trkpt>
      <trkpt lat="43.326703" lon="-2.989296">
        <ele>17.808</ele>
        <time>2019-06-15T20:15:58Z</time>
      </trkpt>
      <trkpt lat="43.326572" lon="-2.989034">
        <ele>16.728</ele>
        <time>2019-06-15T20:15:59Z</time>
      </trkpt>
      <trkpt lat="43.326449" lon="-2.988768">
        <ele>16.792</ele>
        <time>2019-06-15T20:16:00Z</time>
      </trkpt>
      <trkpt lat="43.326309" lon="-2.988486">
        <ele>16.961</ele>
        <time>2019-06-15T20:16:01Z</time>
      </trkpt>
      <trkpt lat="43.326175" lon="-2.988220">
        <ele>15.780</ele>
        <time>2019-06-15T20:16:02Z</time>
      </trkpt>
      <trkpt lat="43.326040" lon="-2.987955">
        <ele>14.239</ele>
        <time>2019-06-15T20:16:03Z</time>
      </trkpt>
      <trkpt lat="43.325905" lon="-2.987691">
        <ele>12.910</ele>
        <time>2019-06-15T20:16:04Z</time>
      </trkpt>
      <trkpt lat="43.325770" lon="-2.987428">
        <ele>11.869</ele>
        <time>2019-06-15T20:16:05Z</time>
      </trkpt>
      <trkpt lat="43.325635" lon="-2.987167">
        <ele>11.233</ele>
        <time>2019-06-15T20:16:06Z</time>
      </trkpt>
      <trkpt lat="43.325501" lon="-2.986907">
        <ele>10.689</ele>
        <time>2019-06-15T20:16:07Z</time>
      </trkpt>
      <trkpt lat="43.325368" lon="-2.986649">
        <ele>10.406</ele>
        <time>2019-06-15T20:16:08Z</time>
      </trkpt>
      <trkpt lat="43.325220" lon="-2.986388">
        <ele>10.626</ele>
        <time>2019-06-15T20:16:09Z</time>
      </trkpt>
      <trkpt lat="43.325112" lon="-2.986181">
        <ele>10.708</ele>
        <time>2019-06-15T20:16:10Z</time>
      </trkpt>
      <trkpt lat="43.324989" lon="-2.985946">
        <ele>11.061</ele>
        <time>2019-06-15T20:16:11Z</time>
      </trkpt>
      <trkpt lat="43.324794" lon="-2.985439">
        <ele>8.885</ele>
        <time>2019-06-15T20:16:12Z</time>
      </trkpt>
      <trkpt lat="43.324614" lon="-2.985146">
        <ele>8.514</ele>
        <time>2019-06-15T20:16:13Z</time>
      </trkpt>
      <trkpt lat="43.324465" lon="-2.984845">
        <ele>8.123</ele>
        <time>2019-06-15T20:16:14Z</time>
      </trkpt>
      <trkpt lat="43.324318" lon="-2.984551">
        <ele>9.972</ele>
        <time>2019-06-15T20:16:15Z</time>
      </trkpt>
      <trkpt lat="43.324186" lon="-2.984290">
        <ele>10.233</ele>
        <time>2019-06-15T20:16:16Z</time>
      </trkpt>
      <trkpt lat="43.324054" lon="-2.984019">
        <ele>10.762</ele>
        <time>2019-06-15T20:16:17Z</time>
      </trkpt>
      <trkpt lat="43.323924" lon="-2.983751">
        <ele>11.616</ele>
        <time>2019-06-15T20:16:18Z</time>
      </trkpt>
      <trkpt lat="43.323791" lon="-2.983492">
        <ele>12.658</ele>
        <time>2019-06-15T20:16:19Z</time>
      </trkpt>
      <trkpt lat="43.323658" lon="-2.983231">
        <ele>13.952</ele>
        <time>2019-06-15T20:16:20Z</time>
      </trkpt>
      <trkpt lat="43.323528" lon="-2.982986">
        <ele>14.017</ele>
        <time>2019-06-15T20:16:21Z</time>
      </trkpt>
      <trkpt lat="43.323395" lon="-2.982719">
        <ele>14.208</ele>
        <time>2019-06-15T20:16:22Z</time>
      </trkpt>
      <trkpt lat="43.323266" lon="-2.982447">
        <ele>14.728</ele>
        <time>2019-06-15T20:16:23Z</time>
      </trkpt>
      <trkpt lat="43.323129" lon="-2.982178">
        <ele>14.872</ele>
        <time>2019-06-15T20:16:24Z</time>
      </trkpt>
      <trkpt lat="43.322987" lon="-2.981902">
        <ele>15.041</ele>
        <time>2019-06-15T20:16:25Z</time>
      </trkpt>
      <trkpt lat="43.322845" lon="-2.981640">
        <ele>15.090</ele>
        <time>2019-06-15T20:16:26Z</time>
      </trkpt>
      <trkpt lat="43.322702" lon="-2.981375">
        <ele>15.049</ele>
        <time>2019-06-15T20:16:27Z</time>
      </trkpt>
      <trkpt lat="43.322566" lon="-2.981119">
        <ele>15.090</ele>
        <time>2019-06-15T20:16:28Z</time>
      </trkpt>
      <trkpt lat="43.322437" lon="-2.980878">
        <ele>15.039</ele>
        <time>2019-06-15T20:16:29Z</time>
      </trkpt>
      <trkpt lat="43.322309" lon="-2.980632">
        <ele>15.013</ele>
        <time>2019-06-15T20:16:30Z</time>
      </trkpt>
      <trkpt lat="43.322180" lon="-2.980376">
        <ele>14.981</ele>
        <time>2019-06-15T20:16:31Z</time>
      </trkpt>
      <trkpt lat="43.322047" lon="-2.980105">
        <ele>14.861</ele>
        <time>2019-06-15T20:16:32Z</time>
      </trkpt>
      <trkpt lat="43.321907" lon="-2.979832">
        <ele>15.017</ele>
        <time>2019-06-15T20:16:33Z</time>
      </trkpt>
      <trkpt lat="43.321766" lon="-2.979556">
        <ele>15.008</ele>
        <time>2019-06-15T20:16:34Z</time>
      </trkpt>
      <trkpt lat="43.321624" lon="-2.979278">
        <ele>14.941</ele>
        <time>2019-06-15T20:16:35Z</time>
      </trkpt>
      <trkpt lat="43.321479" lon="-2.979000">
        <ele>15.085</ele>
        <time>2019-06-15T20:16:36Z</time>
      </trkpt>
      <trkpt lat="43.321334" lon="-2.978718">
        <ele>15.084</ele>
        <time>2019-06-15T20:16:37Z</time>
      </trkpt>
      <trkpt lat="43.321185" lon="-2.978425">
        <ele>15.033</ele>
        <time>2019-06-15T20:16:38Z</time>
      </trkpt>
      <trkpt lat="43.321039" lon="-2.978138">
        <ele>15.052</ele>
        <time>2019-06-15T20:16:39Z</time>
      </trkpt>
      <trkpt lat="43.320896" lon="-2.977862">
        <ele>15.553</ele>
        <time>2019-06-15T20:16:40Z</time>
      </trkpt>
      <trkpt lat="43.320741" lon="-2.977582">
        <ele>16.062</ele>
        <time>2019-06-15T20:16:41Z</time>
      </trkpt>
      <trkpt lat="43.320602" lon="-2.977306">
        <ele>16.046</ele>
        <time>2019-06-15T20:16:42Z</time>
      </trkpt>
      <trkpt lat="43.320465" lon="-2.977028">
        <ele>16.028</ele>
        <time>2019-06-15T20:16:43Z</time>
      </trkpt>
      <trkpt lat="43.320335" lon="-2.976763">
        <ele>16.089</ele>
        <time>2019-06-15T20:16:44Z</time>
      </trkpt>
      <trkpt lat="43.320210" lon="-2.976497">
        <ele>15.917</ele>
        <time>2019-06-15T20:16:45Z</time>
      </trkpt>
      <trkpt lat="43.320071" lon="-2.976225">
        <ele>15.108</ele>
        <time>2019-06-15T20:16:46Z</time>
      </trkpt>
      <trkpt lat="43.319931" lon="-2.975957">
        <ele>14.315</ele>
        <time>2019-06-15T20:16:47Z</time>
      </trkpt>
      <trkpt lat="43.319794" lon="-2.975690">
        <ele>13.689</ele>
        <time>2019-06-15T20:16:48Z</time>
      </trkpt>
      <trkpt lat="43.319652" lon="-2.975418">
        <ele>12.948</ele>
        <time>2019-06-15T20:16:49Z</time>
      </trkpt>
      <trkpt lat="43.319510" lon="-2.975139">
        <ele>12.177</ele>
        <time>2019-06-15T20:16:50Z</time>
      </trkpt>
      <trkpt lat="43.319373" lon="-2.974858">
        <ele>12.046</ele>
        <time>2019-06-15T20:16:51Z</time>
      </trkpt>
      <trkpt lat="43.319238" lon="-2.974584">
        <ele>12.027</ele>
        <time>2019-06-15T20:16:52Z</time>
      </trkpt>
      <trkpt lat="43.319105" lon="-2.974319">
        <ele>11.746</ele>
        <time>2019-06-15T20:16:53Z</time>
      </trkpt>
      <trkpt lat="43.318972" lon="-2.974053">
        <ele>11.350</ele>
        <time>2019-06-15T20:16:54Z</time>
      </trkpt>
      <trkpt lat="43.318838" lon="-2.973785">
        <ele>10.934</ele>
        <time>2019-06-15T20:16:55Z</time>
      </trkpt>
      <trkpt lat="43.318703" lon="-2.973515">
        <ele>11.155</ele>
        <time>2019-06-15T20:16:56Z</time>
      </trkpt>
      <trkpt lat="43.318565" lon="-2.973244">
        <ele>10.810</ele>
        <time>2019-06-15T20:16:57Z</time>
      </trkpt>
      <trkpt lat="43.318433" lon="-2.972974">
        <ele>10.408</ele>
        <time>2019-06-15T20:16:58Z</time>
      </trkpt>
      <trkpt lat="43.318301" lon="-2.972708">
        <ele>10.016</ele>
        <time>2019-06-15T20:16:59Z</time>
      </trkpt>
      <trkpt lat="43.318171" lon="-2.972447">
        <ele>10.150</ele>
        <time>2019-06-15T20:17:00Z</time>
      </trkpt>
      <trkpt lat="43.318040" lon="-2.972180">
        <ele>9.919</ele>
        <time>2019-06-15T20:17:01Z</time>
      </trkpt>
      <trkpt lat="43.317907" lon="-2.971910">
        <ele>9.518</ele>
        <time>2019-06-15T20:17:02Z</time>
      </trkpt>
      <trkpt lat="43.317775" lon="-2.971646">
        <ele>9.997</ele>
        <time>2019-06-15T20:17:03Z</time>
      </trkpt>
      <trkpt lat="43.317643" lon="-2.971377">
        <ele>9.038</ele>
        <time>2019-06-15T20:17:04Z</time>
      </trkpt>
      <trkpt lat="43.317508" lon="-2.971106">
        <ele>9.067</ele>
        <time>2019-06-15T20:17:05Z</time>
      </trkpt>
      <trkpt lat="43.317367" lon="-2.970834">
        <ele>9.081</ele>
        <time>2019-06-15T20:17:06Z</time>
      </trkpt>
      <trkpt lat="43.317228" lon="-2.970560">
        <ele>9.048</ele>
        <time>2019-06-15T20:17:07Z</time>
      </trkpt>
      <trkpt lat="43.317087" lon="-2.970283">
        <ele>9.061</ele>
        <time>2019-06-15T20:17:08Z</time>
      </trkpt>
      <trkpt lat="43.316944" lon="-2.970008">
        <ele>9.017</ele>
        <time>2019-06-15T20:17:09Z</time>
      </trkpt>
      <trkpt lat="43.316794" lon="-2.969738">
        <ele>9.408</ele>
        <time>2019-06-15T20:17:10Z</time>
      </trkpt>
      <trkpt lat="43.316633" lon="-2.969478">
        <ele>9.917</ele>
        <time>2019-06-15T20:17:11Z</time>
      </trkpt>
      <trkpt lat="43.316463" lon="-2.969229">
        <ele>10.851</ele>
        <time>2019-06-15T20:17:12Z</time>
      </trkpt>
      <trkpt lat="43.316287" lon="-2.969003">
        <ele>11.430</ele>
        <time>2019-06-15T20:17:13Z</time>
      </trkpt>
      <trkpt lat="43.316106" lon="-2.968792">
        <ele>11.659</ele>
        <time>2019-06-15T20:17:14Z</time>
      </trkpt>
      <trkpt lat="43.315921" lon="-2.968589">
        <ele>8.348</ele>
        <time>2019-06-15T20:17:15Z</time>
      </trkpt>
      <trkpt lat="43.315736" lon="-2.968396">
        <ele>10.489</ele>
        <time>2019-06-15T20:17:16Z</time>
      </trkpt>
      <trkpt lat="43.315557" lon="-2.968218">
        <ele>15.448</ele>
        <time>2019-06-15T20:17:17Z</time>
      </trkpt>
      <trkpt lat="43.315381" lon="-2.968033">
        <ele>16.792</ele>
        <time>2019-06-15T20:17:18Z</time>
      </trkpt>
      <trkpt lat="43.315204" lon="-2.967844">
        <ele>17.856</ele>
        <time>2019-06-15T20:17:19Z</time>
      </trkpt>
      <trkpt lat="43.315028" lon="-2.967665">
        <ele>18.959</ele>
        <time>2019-06-15T20:17:20Z</time>
      </trkpt>
      <trkpt lat="43.314855" lon="-2.967490">
        <ele>19.614</ele>
        <time>2019-06-15T20:17:21Z</time>
      </trkpt>
      <trkpt lat="43.314685" lon="-2.967308">
        <ele>20.708</ele>
        <time>2019-06-15T20:17:22Z</time>
      </trkpt>
      <trkpt lat="43.314511" lon="-2.967115">
        <ele>22.128</ele>
        <time>2019-06-15T20:17:23Z</time>
      </trkpt>
      <trkpt lat="43.314338" lon="-2.966921">
        <ele>23.072</ele>
        <time>2019-06-15T20:17:24Z</time>
      </trkpt>
      <trkpt lat="43.314170" lon="-2.966740">
        <ele>23.711</ele>
        <time>2019-06-15T20:17:25Z</time>
      </trkpt>
      <trkpt lat="43.313996" lon="-2.966555">
        <ele>25.010</ele>
        <time>2019-06-15T20:17:26Z</time>
      </trkpt>
      <trkpt lat="43.313815" lon="-2.966364">
        <ele>26.319</ele>
        <time>2019-06-15T20:17:27Z</time>
      </trkpt>
      <trkpt lat="43.313641" lon="-2.966169">
        <ele>27.640</ele>
        <time>2019-06-15T20:17:28Z</time>
      </trkpt>
      <trkpt lat="43.313456" lon="-2.965969">
        <ele>28.629</ele>
        <time>2019-06-15T20:17:29Z</time>
      </trkpt>
      <trkpt lat="43.313271" lon="-2.965781">
        <ele>29.313</ele>
        <time>2019-06-15T20:17:30Z</time>
      </trkpt>
      <trkpt lat="43.313084" lon="-2.965593">
        <ele>30.796</ele>
        <time>2019-06-15T20:17:31Z</time>
      </trkpt>
      <trkpt lat="43.312893" lon="-2.965405">
        <ele>31.331</ele>
        <time>2019-06-15T20:17:32Z</time>
      </trkpt>
      <trkpt lat="43.312707" lon="-2.965205">
        <ele>32.524</ele>
        <time>2019-06-15T20:17:33Z</time>
      </trkpt>
      <trkpt lat="43.312523" lon="-2.965004">
        <ele>33.908</ele>
        <time>2019-06-15T20:17:34Z</time>
      </trkpt>
      <trkpt lat="43.312341" lon="-2.964812">
        <ele>35.182</ele>
        <time>2019-06-15T20:17:35Z</time>
      </trkpt>
      <trkpt lat="43.312161" lon="-2.964626">
        <ele>36.296</ele>
        <time>2019-06-15T20:17:36Z</time>
      </trkpt>
      <trkpt lat="43.311988" lon="-2.964454">
        <ele>36.885</ele>
        <time>2019-06-15T20:17:37Z</time>
      </trkpt>
      <trkpt lat="43.311821" lon="-2.964274">
        <ele>37.394</ele>
        <time>2019-06-15T20:17:38Z</time>
      </trkpt>
      <trkpt lat="43.311646" lon="-2.964088">
        <ele>37.283</ele>
        <time>2019-06-15T20:17:39Z</time>
      </trkpt>
      <trkpt lat="43.311464" lon="-2.963893">
        <ele>37.084</ele>
        <time>2019-06-15T20:17:40Z</time>
      </trkpt>
      <trkpt lat="43.311291" lon="-2.963698">
        <ele>37.353</ele>
        <time>2019-06-15T20:17:41Z</time>
      </trkpt>
      <trkpt lat="43.311118" lon="-2.963508">
        <ele>36.687</ele>
        <time>2019-06-15T20:17:42Z</time>
      </trkpt>
      <trkpt lat="43.310935" lon="-2.963319">
        <ele>35.413</ele>
        <time>2019-06-15T20:17:43Z</time>
      </trkpt>
      <trkpt lat="43.310761" lon="-2.963137">
        <ele>34.743</ele>
        <time>2019-06-15T20:17:44Z</time>
      </trkpt>
      <trkpt lat="43.310576" lon="-2.962971">
        <ele>34.107</ele>
        <time>2019-06-15T20:17:45Z</time>
      </trkpt>
      <trkpt lat="43.310395" lon="-2.962799">
        <ele>33.408</ele>
        <time>2019-06-15T20:17:46Z</time>
      </trkpt>
      <trkpt lat="43.310193" lon="-2.962658">
        <ele>32.514</ele>
        <time>2019-06-15T20:17:47Z</time>
      </trkpt>
      <trkpt lat="43.309995" lon="-2.962532">
        <ele>31.948</ele>
        <time>2019-06-15T20:17:48Z</time>
      </trkpt>
      <trkpt lat="43.309784" lon="-2.962430">
        <ele>32.067</ele>
        <time>2019-06-15T20:17:49Z</time>
      </trkpt>
      <trkpt lat="43.309561" lon="-2.962361">
        <ele>31.796</ele>
        <time>2019-06-15T20:17:50Z</time>
      </trkpt>
      <trkpt lat="43.309341" lon="-2.962318">
        <ele>31.255</ele>
        <time>2019-06-15T20:17:51Z</time>
      </trkpt>
      <trkpt lat="43.309128" lon="-2.962299">
        <ele>30.986</ele>
        <time>2019-06-15T20:17:52Z</time>
      </trkpt>
      <trkpt lat="43.308903" lon="-2.962303">
        <ele>30.495</ele>
        <time>2019-06-15T20:17:53Z</time>
      </trkpt>
      <trkpt lat="43.308693" lon="-2.962302">
        <ele>26.659</ele>
        <time>2019-06-15T20:17:54Z</time>
      </trkpt>
      <trkpt lat="43.308464" lon="-2.962313">
        <ele>27.851</ele>
        <time>2019-06-15T20:17:55Z</time>
      </trkpt>
      <trkpt lat="43.308240" lon="-2.962320">
        <ele>30.401</ele>
        <time>2019-06-15T20:17:56Z</time>
      </trkpt>
      <trkpt lat="43.308019" lon="-2.962307">
        <ele>30.311</ele>
        <time>2019-06-15T20:17:57Z</time>
      </trkpt>
      <trkpt lat="43.307803" lon="-2.962279">
        <ele>30.208</ele>
        <time>2019-06-15T20:17:58Z</time>
      </trkpt>
      <trkpt lat="43.307588" lon="-2.962223">
        <ele>30.098</ele>
        <time>2019-06-15T20:17:59Z</time>
      </trkpt>
      <trkpt lat="43.307376" lon="-2.962148">
        <ele>30.212</ele>
        <time>2019-06-15T20:18:00Z</time>
      </trkpt>
      <trkpt lat="43.307168" lon="-2.962041">
        <ele>30.751</ele>
        <time>2019-06-15T20:18:01Z</time>
      </trkpt>
      <trkpt lat="43.306969" lon="-2.961926">
        <ele>30.890</ele>
        <time>2019-06-15T20:18:02Z</time>
      </trkpt>
      <trkpt lat="43.306777" lon="-2.961791">
        <ele>31.419</ele>
        <time>2019-06-15T20:18:03Z</time>
      </trkpt>
      <trkpt lat="43.306586" lon="-2.961653">
        <ele>32.050</ele>
        <time>2019-06-15T20:18:04Z</time>
      </trkpt>
      <trkpt lat="43.306393" lon="-2.961517">
        <ele>32.559</ele>
        <time>2019-06-15T20:18:05Z</time>
      </trkpt>
      <trkpt lat="43.306191" lon="-2.961390">
        <ele>33.013</ele>
        <time>2019-06-15T20:18:06Z</time>
      </trkpt>
      <trkpt lat="43.305984" lon="-2.961286">
        <ele>33.978</ele>
        <time>2019-06-15T20:18:07Z</time>
      </trkpt>
      <trkpt lat="43.305782" lon="-2.961213">
        <ele>34.833</ele>
        <time>2019-06-15T20:18:08Z</time>
      </trkpt>
      <trkpt lat="43.305573" lon="-2.961150">
        <ele>35.626</ele>
        <time>2019-06-15T20:18:09Z</time>
      </trkpt>
      <trkpt lat="43.305369" lon="-2.961109">
        <ele>35.008</ele>
        <time>2019-06-15T20:18:10Z</time>
      </trkpt>
      <trkpt lat="43.305165" lon="-2.961092">
        <ele>35.540</ele>
        <time>2019-06-15T20:18:11Z</time>
      </trkpt>
      <trkpt lat="43.304963" lon="-2.961094">
        <ele>36.374</ele>
        <time>2019-06-15T20:18:12Z</time>
      </trkpt>
      <trkpt lat="43.304762" lon="-2.961107">
        <ele>37.773</ele>
        <time>2019-06-15T20:18:13Z</time>
      </trkpt>
      <trkpt lat="43.304559" lon="-2.961175">
        <ele>39.342</ele>
        <time>2019-06-15T20:18:14Z</time>
      </trkpt>
      <trkpt lat="43.304357" lon="-2.961251">
        <ele>40.051</ele>
        <time>2019-06-15T20:18:15Z</time>
      </trkpt>
      <trkpt lat="43.304155" lon="-2.961349">
        <ele>40.082</ele>
        <time>2019-06-15T20:18:16Z</time>
      </trkpt>
      <trkpt lat="43.303956" lon="-2.961459">
        <ele>41.931</ele>
        <time>2019-06-15T20:18:17Z</time>
      </trkpt>
      <trkpt lat="43.303761" lon="-2.961574">
        <ele>42.875</ele>
        <time>2019-06-15T20:18:18Z</time>
      </trkpt>
      <trkpt lat="43.303565" lon="-2.961696">
        <ele>42.327</ele>
        <time>2019-06-15T20:18:19Z</time>
      </trkpt>
      <trkpt lat="43.303375" lon="-2.961830">
        <ele>42.868</ele>
        <time>2019-06-15T20:18:20Z</time>
      </trkpt>
      <trkpt lat="43.303183" lon="-2.961973">
        <ele>42.214</ele>
        <time>2019-06-15T20:18:21Z</time>
      </trkpt>
      <trkpt lat="43.302991" lon="-2.962123">
        <ele>41.808</ele>
        <time>2019-06-15T20:18:22Z</time>
      </trkpt>
      <trkpt lat="43.302798" lon="-2.962274">
        <ele>40.625</ele>
        <time>2019-06-15T20:18:23Z</time>
      </trkpt>
      <trkpt lat="43.302614" lon="-2.962440">
        <ele>41.769</ele>
        <time>2019-06-15T20:18:24Z</time>
      </trkpt>
      <trkpt lat="43.302427" lon="-2.962616">
        <ele>41.928</ele>
        <time>2019-06-15T20:18:25Z</time>
      </trkpt>
      <trkpt lat="43.302259" lon="-2.962785">
        <ele>40.397</ele>
        <time>2019-06-15T20:18:26Z</time>
      </trkpt>
      <trkpt lat="43.302092" lon="-2.962978">
        <ele>40.946</ele>
        <time>2019-06-15T20:18:27Z</time>
      </trkpt>
      <trkpt lat="43.301929" lon="-2.963169">
        <ele>39.317</ele>
        <time>2019-06-15T20:18:28Z</time>
      </trkpt>
      <trkpt lat="43.301783" lon="-2.963370">
        <ele>39.716</ele>
        <time>2019-06-15T20:18:29Z</time>
      </trkpt>
      <trkpt lat="43.301626" lon="-2.963552">
        <ele>37.850</ele>
        <time>2019-06-15T20:18:30Z</time>
      </trkpt>
      <trkpt lat="43.301481" lon="-2.963744">
        <ele>37.164</ele>
        <time>2019-06-15T20:18:31Z</time>
      </trkpt>
      <trkpt lat="43.301331" lon="-2.963939">
        <ele>35.206</ele>
        <time>2019-06-15T20:18:32Z</time>
      </trkpt>
      <trkpt lat="43.301179" lon="-2.964124">
        <ele>34.016</ele>
        <time>2019-06-15T20:18:33Z</time>
      </trkpt>
      <trkpt lat="43.301016" lon="-2.964329">
        <ele>32.908</ele>
        <time>2019-06-15T20:18:34Z</time>
      </trkpt>
      <trkpt lat="43.300848" lon="-2.964530">
        <ele>31.049</ele>
        <time>2019-06-15T20:18:35Z</time>
      </trkpt>
      <trkpt lat="43.300683" lon="-2.964713">
        <ele>30.343</ele>
        <time>2019-06-15T20:18:36Z</time>
      </trkpt>
      <trkpt lat="43.300504" lon="-2.964883">
        <ele>29.142</ele>
        <time>2019-06-15T20:18:37Z</time>
      </trkpt>
      <trkpt lat="43.300326" lon="-2.965049">
        <ele>28.761</ele>
        <time>2019-06-15T20:18:38Z</time>
      </trkpt>
      <trkpt lat="43.300140" lon="-2.965190">
        <ele>27.850</ele>
        <time>2019-06-15T20:18:39Z</time>
      </trkpt>
      <trkpt lat="43.299962" lon="-2.965320">
        <ele>27.321</ele>
        <time>2019-06-15T20:18:40Z</time>
      </trkpt>
      <trkpt lat="43.299780" lon="-2.965440">
        <ele>27.760</ele>
        <time>2019-06-15T20:18:41Z</time>
      </trkpt>
      <trkpt lat="43.299592" lon="-2.965556">
        <ele>28.084</ele>
        <time>2019-06-15T20:18:42Z</time>
      </trkpt>
      <trkpt lat="43.299405" lon="-2.965669">
        <ele>28.881</ele>
        <time>2019-06-15T20:18:43Z</time>
      </trkpt>
      <trkpt lat="43.299222" lon="-2.965775">
        <ele>28.961</ele>
        <time>2019-06-15T20:18:44Z</time>
      </trkpt>
      <trkpt lat="43.299050" lon="-2.965876">
        <ele>29.117</ele>
        <time>2019-06-15T20:18:45Z</time>
      </trkpt>
      <trkpt lat="43.298880" lon="-2.965979">
        <ele>29.608</ele>
        <time>2019-06-15T20:18:46Z</time>
      </trkpt>
      <trkpt lat="43.298713" lon="-2.966080">
        <ele>30.591</ele>
        <time>2019-06-15T20:18:47Z</time>
      </trkpt>
      <trkpt lat="43.298557" lon="-2.966189">
        <ele>31.015</ele>
        <time>2019-06-15T20:18:48Z</time>
      </trkpt>
      <trkpt lat="43.298383" lon="-2.966320">
        <ele>31.764</ele>
        <time>2019-06-15T20:18:49Z</time>
      </trkpt>
      <trkpt lat="43.298216" lon="-2.966461">
        <ele>33.033</ele>
        <time>2019-06-15T20:18:50Z</time>
      </trkpt>
      <trkpt lat="43.298049" lon="-2.966604">
        <ele>33.082</ele>
        <time>2019-06-15T20:18:51Z</time>
      </trkpt>
      <trkpt lat="43.297893" lon="-2.966748">
        <ele>35.363</ele>
        <time>2019-06-15T20:18:52Z</time>
      </trkpt>
      <trkpt lat="43.297741" lon="-2.966913">
        <ele>35.292</ele>
        <time>2019-06-15T20:18:53Z</time>
      </trkpt>
      <trkpt lat="43.297592" lon="-2.967092">
        <ele>37.936</ele>
        <time>2019-06-15T20:18:54Z</time>
      </trkpt>
      <trkpt lat="43.297453" lon="-2.967290">
        <ele>38.426</ele>
        <time>2019-06-15T20:18:55Z</time>
      </trkpt>
      <trkpt lat="43.297312" lon="-2.967496">
        <ele>39.647</ele>
        <time>2019-06-15T20:18:56Z</time>
      </trkpt>
      <trkpt lat="43.297174" lon="-2.967718">
        <ele>39.611</ele>
        <time>2019-06-15T20:18:57Z</time>
      </trkpt>
      <trkpt lat="43.297048" lon="-2.967927">
        <ele>42.208</ele>
        <time>2019-06-15T20:18:58Z</time>
      </trkpt>
      <trkpt lat="43.296921" lon="-2.968154">
        <ele>41.855</ele>
        <time>2019-06-15T20:18:59Z</time>
      </trkpt>
      <trkpt lat="43.296816" lon="-2.968387">
        <ele>44.729</ele>
        <time>2019-06-15T20:19:00Z</time>
      </trkpt>
      <trkpt lat="43.296710" lon="-2.968622">
        <ele>44.278</ele>
        <time>2019-06-15T20:19:01Z</time>
      </trkpt>
      <trkpt lat="43.296613" lon="-2.968855">
        <ele>45.257</ele>
        <time>2019-06-15T20:19:02Z</time>
      </trkpt>
      <trkpt lat="43.296517" lon="-2.969090">
        <ele>47.076</ele>
        <time>2019-06-15T20:19:03Z</time>
      </trkpt>
      <trkpt lat="43.296444" lon="-2.969321">
        <ele>46.577</ele>
        <time>2019-06-15T20:19:04Z</time>
      </trkpt>
      <trkpt lat="43.296361" lon="-2.969567">
        <ele>45.876</ele>
        <time>2019-06-15T20:19:05Z</time>
      </trkpt>
      <trkpt lat="43.296282" lon="-2.969824">
        <ele>46.870</ele>
        <time>2019-06-15T20:19:06Z</time>
      </trkpt>
      <trkpt lat="43.296209" lon="-2.970096">
        <ele>45.151</ele>
        <time>2019-06-15T20:19:07Z</time>
      </trkpt>
      <trkpt lat="43.296149" lon="-2.970376">
        <ele>38.801</ele>
        <time>2019-06-15T20:19:08Z</time>
      </trkpt>
      <trkpt lat="43.296102" lon="-2.970668">
        <ele>33.611</ele>
        <time>2019-06-15T20:19:09Z</time>
      </trkpt>
      <trkpt lat="43.296046" lon="-2.970958">
        <ele>31.008</ele>
        <time>2019-06-15T20:19:10Z</time>
      </trkpt>
      <trkpt lat="43.295986" lon="-2.971253">
        <ele>29.478</ele>
        <time>2019-06-15T20:19:11Z</time>
      </trkpt>
      <trkpt lat="43.295930" lon="-2.971560">
        <ele>24.132</ele>
        <time>2019-06-15T20:19:12Z</time>
      </trkpt>
      <trkpt lat="43.295881" lon="-2.971861">
        <ele>15.971</ele>
        <time>2019-06-15T20:19:13Z</time>
      </trkpt>
      <trkpt lat="43.295825" lon="-2.972175">
        <ele>5.380</ele>
        <time>2019-06-15T20:19:14Z</time>
      </trkpt>
      <trkpt lat="43.295779" lon="-2.972472">
        <ele>3.139</ele>
        <time>2019-06-15T20:19:15Z</time>
      </trkpt>
      <trkpt lat="43.295724" lon="-2.972796">
        <ele>3.050</ele>
        <time>2019-06-15T20:19:16Z</time>
      </trkpt>
      <trkpt lat="43.295666" lon="-2.973115">
        <ele>3.039</ele>
        <time>2019-06-15T20:19:17Z</time>
      </trkpt>
      <trkpt lat="43.295620" lon="-2.973427">
        <ele>2.143</ele>
        <time>2019-06-15T20:19:18Z</time>
      </trkpt>
      <trkpt lat="43.295555" lon="-2.973749">
        <ele>0.067</ele>
        <time>2019-06-15T20:19:19Z</time>
      </trkpt>
      <trkpt lat="43.295496" lon="-2.974067">
        <ele>0.081</ele>
        <time>2019-06-15T20:19:20Z</time>
      </trkpt>
      <trkpt lat="43.295440" lon="-2.974383">
        <ele>0.019</ele>
        <time>2019-06-15T20:19:21Z</time>
      </trkpt>
      <trkpt lat="43.295390" lon="-2.974688">
        <ele>0.008</ele>
        <time>2019-06-15T20:19:22Z</time>
      </trkpt>
      <trkpt lat="43.295335" lon="-2.975000">
        <ele>1.629</ele>
        <time>2019-06-15T20:19:23Z</time>
      </trkpt>
      <trkpt lat="43.295283" lon="-2.975305">
        <ele>5.093</ele>
        <time>2019-06-15T20:19:24Z</time>
      </trkpt>
      <trkpt lat="43.295222" lon="-2.975618">
        <ele>5.022</ele>
        <time>2019-06-15T20:19:25Z</time>
      </trkpt>
      <trkpt lat="43.295171" lon="-2.975935">
        <ele>5.261</ele>
        <time>2019-06-15T20:19:26Z</time>
      </trkpt>
      <trkpt lat="43.295117" lon="-2.976254">
        <ele>7.630</ele>
        <time>2019-06-15T20:19:27Z</time>
      </trkpt>
      <trkpt lat="43.295058" lon="-2.976558">
        <ele>11.731</ele>
        <time>2019-06-15T20:19:28Z</time>
      </trkpt>
      <trkpt lat="43.295002" lon="-2.976873">
        <ele>13.080</ele>
        <time>2019-06-15T20:19:29Z</time>
      </trkpt>
      <trkpt lat="43.294950" lon="-2.977188">
        <ele>14.694</ele>
        <time>2019-06-15T20:19:30Z</time>
      </trkpt>
      <trkpt lat="43.294891" lon="-2.977508">
        <ele>20.276</ele>
        <time>2019-06-15T20:19:31Z</time>
      </trkpt>
      <trkpt lat="43.294836" lon="-2.977826">
        <ele>29.390</ele>
        <time>2019-06-15T20:19:32Z</time>
      </trkpt>
      <trkpt lat="43.294777" lon="-2.978154">
        <ele>38.419</ele>
        <time>2019-06-15T20:19:33Z</time>
      </trkpt>
      <trkpt lat="43.294715" lon="-2.978485">
        <ele>43.008</ele>
        <time>2019-06-15T20:19:34Z</time>
      </trkpt>
      <trkpt lat="43.294662" lon="-2.978814">
        <ele>42.270</ele>
        <time>2019-06-15T20:19:35Z</time>
      </trkpt>
      <trkpt lat="43.294605" lon="-2.979139">
        <ele>43.244</ele>
        <time>2019-06-15T20:19:36Z</time>
      </trkpt>
      <trkpt lat="43.294531" lon="-2.979461">
        <ele>42.213</ele>
        <time>2019-06-15T20:19:37Z</time>
      </trkpt>
      <trkpt lat="43.294458" lon="-2.979797">
        <ele>39.982</ele>
        <time>2019-06-15T20:19:38Z</time>
      </trkpt>
      <trkpt lat="43.294364" lon="-2.980124">
        <ele>40.311</ele>
        <time>2019-06-15T20:19:39Z</time>
      </trkpt>
      <trkpt lat="43.294257" lon="-2.980446">
        <ele>39.252</ele>
        <time>2019-06-15T20:19:40Z</time>
      </trkpt>
      <trkpt lat="43.294163" lon="-2.980771">
        <ele>35.051</ele>
        <time>2019-06-15T20:19:41Z</time>
      </trkpt>
      <trkpt lat="43.294052" lon="-2.981087">
        <ele>35.465</ele>
        <time>2019-06-15T20:19:42Z</time>
      </trkpt>
      <trkpt lat="43.293926" lon="-2.981400">
        <ele>33.184</ele>
        <time>2019-06-15T20:19:43Z</time>
      </trkpt>
      <trkpt lat="43.293813" lon="-2.981696">
        <ele>31.007</ele>
        <time>2019-06-15T20:19:44Z</time>
      </trkpt>
      <trkpt lat="43.293681" lon="-2.982006">
        <ele>29.017</ele>
        <time>2019-06-15T20:19:45Z</time>
      </trkpt>
      <trkpt lat="43.293539" lon="-2.982304">
        <ele>25.308</ele>
        <time>2019-06-15T20:19:46Z</time>
      </trkpt>
      <trkpt lat="43.293399" lon="-2.982600">
        <ele>24.681</ele>
        <time>2019-06-15T20:19:47Z</time>
      </trkpt>
      <trkpt lat="43.293263" lon="-2.982885">
        <ele>22.415</ele>
        <time>2019-06-15T20:19:48Z</time>
      </trkpt>
      <trkpt lat="43.293108" lon="-2.983168">
        <ele>22.134</ele>
        <time>2019-06-15T20:19:49Z</time>
      </trkpt>
      <trkpt lat="43.292948" lon="-2.983443">
        <ele>20.753</ele>
        <time>2019-06-15T20:19:50Z</time>
      </trkpt>
      <trkpt lat="43.292777" lon="-2.983717">
        <ele>20.672</ele>
        <time>2019-06-15T20:19:51Z</time>
      </trkpt>
      <trkpt lat="43.292597" lon="-2.983978">
        <ele>19.413</ele>
        <time>2019-06-15T20:19:52Z</time>
      </trkpt>
      <trkpt lat="43.292411" lon="-2.984204">
        <ele>19.482</ele>
        <time>2019-06-15T20:19:53Z</time>
      </trkpt>
      <trkpt lat="43.292212" lon="-2.984433">
        <ele>19.046</ele>
        <time>2019-06-15T20:19:54Z</time>
      </trkpt>
      <trkpt lat="43.292002" lon="-2.984644">
        <ele>17.899</ele>
        <time>2019-06-15T20:19:55Z</time>
      </trkpt>
      <trkpt lat="43.291778" lon="-2.984830">
        <ele>13.107</ele>
        <time>2019-06-15T20:19:56Z</time>
      </trkpt>
      <trkpt lat="43.291551" lon="-2.984992">
        <ele>9.127</ele>
        <time>2019-06-15T20:19:57Z</time>
      </trkpt>
      <trkpt lat="43.291314" lon="-2.985141">
        <ele>8.608</ele>
        <time>2019-06-15T20:19:58Z</time>
      </trkpt>
      <trkpt lat="43.291069" lon="-2.985273">
        <ele>9.622</ele>
        <time>2019-06-15T20:19:59Z</time>
      </trkpt>
      <trkpt lat="43.290829" lon="-2.985367">
        <ele>12.786</ele>
        <time>2019-06-15T20:20:00Z</time>
      </trkpt>
      <trkpt lat="43.290577" lon="-2.985450">
        <ele>13.925</ele>
        <time>2019-06-15T20:20:01Z</time>
      </trkpt>
      <trkpt lat="43.290328" lon="-2.985521">
        <ele>13.924</ele>
        <time>2019-06-15T20:20:02Z</time>
      </trkpt>
      <trkpt lat="43.290067" lon="-2.985573">
        <ele>13.113</ele>
        <time>2019-06-15T20:20:03Z</time>
      </trkpt>
      <trkpt lat="43.289813" lon="-2.985616">
        <ele>12.624</ele>
        <time>2019-06-15T20:20:04Z</time>
      </trkpt>
      <trkpt lat="43.289557" lon="-2.985672">
        <ele>12.193</ele>
        <time>2019-06-15T20:20:05Z</time>
      </trkpt>
      <trkpt lat="43.289304" lon="-2.985714">
        <ele>12.017</ele>
        <time>2019-06-15T20:20:06Z</time>
      </trkpt>
      <trkpt lat="43.289048" lon="-2.985753">
        <ele>12.467</ele>
        <time>2019-06-15T20:20:07Z</time>
      </trkpt>
      <trkpt lat="43.288801" lon="-2.985797">
        <ele>13.081</ele>
        <time>2019-06-15T20:20:08Z</time>
      </trkpt>
      <trkpt lat="43.288560" lon="-2.985852">
        <ele>13.419</ele>
        <time>2019-06-15T20:20:09Z</time>
      </trkpt>
      <trkpt lat="43.288316" lon="-2.985916">
        <ele>15.308</ele>
        <time>2019-06-15T20:20:10Z</time>
      </trkpt>
      <trkpt lat="43.288074" lon="-2.985973">
        <ele>16.049</ele>
        <time>2019-06-15T20:20:11Z</time>
      </trkpt>
      <trkpt lat="43.287834" lon="-2.986029">
        <ele>15.783</ele>
        <time>2019-06-15T20:20:12Z</time>
      </trkpt>
      <trkpt lat="43.287598" lon="-2.986075">
        <ele>16.062</ele>
        <time>2019-06-15T20:20:13Z</time>
      </trkpt>
      <trkpt lat="43.287358" lon="-2.986140">
        <ele>17.681</ele>
        <time>2019-06-15T20:20:14Z</time>
      </trkpt>
      <trkpt lat="43.287121" lon="-2.986208">
        <ele>19.980</ele>
        <time>2019-06-15T20:20:15Z</time>
      </trkpt>
      <trkpt lat="43.286883" lon="-2.986279">
        <ele>21.221</ele>
        <time>2019-06-15T20:20:16Z</time>
      </trkpt>
      <trkpt lat="43.286654" lon="-2.986356">
        <ele>22.030</ele>
        <time>2019-06-15T20:20:17Z</time>
      </trkpt>
      <trkpt lat="43.286437" lon="-2.986415">
        <ele>22.494</ele>
        <time>2019-06-15T20:20:18Z</time>
      </trkpt>
      <trkpt lat="43.286228" lon="-2.986471">
        <ele>23.079</ele>
        <time>2019-06-15T20:20:19Z</time>
      </trkpt>
      <trkpt lat="43.286027" lon="-2.986535">
        <ele>24.305</ele>
        <time>2019-06-15T20:20:20Z</time>
      </trkpt>
      <trkpt lat="43.285827" lon="-2.986595">
        <ele>25.025</ele>
        <time>2019-06-15T20:20:21Z</time>
      </trkpt>
      <trkpt lat="43.285621" lon="-2.986646">
        <ele>26.508</ele>
        <time>2019-06-15T20:20:22Z</time>
      </trkpt>
      <trkpt lat="43.285430" lon="-2.986672">
        <ele>27.580</ele>
        <time>2019-06-15T20:20:23Z</time>
      </trkpt>
      <trkpt lat="43.285055" lon="-2.986809">
        <ele>29.684</ele>
        <time>2019-06-15T20:20:25Z</time>
      </trkpt>
      <trkpt lat="43.284891" lon="-2.986852">
        <ele>30.143</ele>
        <time>2019-06-15T20:20:26Z</time>
      </trkpt>
      <trkpt lat="43.284715" lon="-2.986906">
        <ele>30.892</ele>
        <time>2019-06-15T20:20:27Z</time>
      </trkpt>
      <trkpt lat="43.284542" lon="-2.986955">
        <ele>28.311</ele>
        <time>2019-06-15T20:20:28Z</time>
      </trkpt>
      <trkpt lat="43.284380" lon="-2.987006">
        <ele>26.982</ele>
        <time>2019-06-15T20:20:29Z</time>
      </trkpt>
      <trkpt lat="43.284222" lon="-2.987032">
        <ele>27.991</ele>
        <time>2019-06-15T20:20:30Z</time>
      </trkpt>
      <trkpt lat="43.284058" lon="-2.987026">
        <ele>30.495</ele>
        <time>2019-06-15T20:20:31Z</time>
      </trkpt>
      <trkpt lat="43.283903" lon="-2.986987">
        <ele>33.246</ele>
        <time>2019-06-15T20:20:32Z</time>
      </trkpt>
      <trkpt lat="43.283742" lon="-2.986929">
        <ele>34.888</ele>
        <time>2019-06-15T20:20:33Z</time>
      </trkpt>
      <trkpt lat="43.283572" lon="-2.986862">
        <ele>35.916</ele>
        <time>2019-06-15T20:20:34Z</time>
      </trkpt>
      <trkpt lat="43.283401" lon="-2.986794">
        <ele>37.008</ele>
        <time>2019-06-15T20:20:35Z</time>
      </trkpt>
      <trkpt lat="43.283233" lon="-2.986717">
        <ele>37.937</ele>
        <time>2019-06-15T20:20:36Z</time>
      </trkpt>
      <trkpt lat="43.283059" lon="-2.986633">
        <ele>37.511</ele>
        <time>2019-06-15T20:20:37Z</time>
      </trkpt>
      <trkpt lat="43.282895" lon="-2.986550">
        <ele>37.530</ele>
        <time>2019-06-15T20:20:38Z</time>
      </trkpt>
      <trkpt lat="43.282724" lon="-2.986465">
        <ele>37.579</ele>
        <time>2019-06-15T20:20:39Z</time>
      </trkpt>
      <trkpt lat="43.282548" lon="-2.986373">
        <ele>37.568</ele>
        <time>2019-06-15T20:20:40Z</time>
      </trkpt>
      <trkpt lat="43.282382" lon="-2.986286">
        <ele>37.719</ele>
        <time>2019-06-15T20:20:41Z</time>
      </trkpt>
      <trkpt lat="43.282206" lon="-2.986191">
        <ele>38.078</ele>
        <time>2019-06-15T20:20:42Z</time>
      </trkpt>
      <trkpt lat="43.282029" lon="-2.986083">
        <ele>37.642</ele>
        <time>2019-06-15T20:20:43Z</time>
      </trkpt>
      <trkpt lat="43.281849" lon="-2.985984">
        <ele>38.459</ele>
        <time>2019-06-15T20:20:44Z</time>
      </trkpt>
      <trkpt lat="43.281666" lon="-2.985882">
        <ele>39.403</ele>
        <time>2019-06-15T20:20:45Z</time>
      </trkpt>
      <trkpt lat="43.281482" lon="-2.985763">
        <ele>40.123</ele>
        <time>2019-06-15T20:20:46Z</time>
      </trkpt>
      <trkpt lat="43.281305" lon="-2.985642">
        <ele>41.108</ele>
        <time>2019-06-15T20:20:47Z</time>
      </trkpt>
      <trkpt lat="43.281123" lon="-2.985520">
        <ele>41.898</ele>
        <time>2019-06-15T20:20:48Z</time>
      </trkpt>
      <trkpt lat="43.280943" lon="-2.985388">
        <ele>43.392</ele>
        <time>2019-06-15T20:20:49Z</time>
      </trkpt>
      <trkpt lat="43.280778" lon="-2.985253">
        <ele>43.931</ele>
        <time>2019-06-15T20:20:50Z</time>
      </trkpt>
      <trkpt lat="43.280599" lon="-2.985109">
        <ele>45.260</ele>
        <time>2019-06-15T20:20:51Z</time>
      </trkpt>
      <trkpt lat="43.280419" lon="-2.984937">
        <ele>45.759</ele>
        <time>2019-06-15T20:20:52Z</time>
      </trkpt>
      <trkpt lat="43.280249" lon="-2.984754">
        <ele>46.710</ele>
        <time>2019-06-15T20:20:53Z</time>
      </trkpt>
      <trkpt lat="43.280083" lon="-2.984565">
        <ele>47.629</ele>
        <time>2019-06-15T20:20:54Z</time>
      </trkpt>
      <trkpt lat="43.279914" lon="-2.984364">
        <ele>48.573</ele>
        <time>2019-06-15T20:20:55Z</time>
      </trkpt>
      <trkpt lat="43.279744" lon="-2.984158">
        <ele>48.944</ele>
        <time>2019-06-15T20:20:56Z</time>
      </trkpt>
      <trkpt lat="43.279567" lon="-2.983951">
        <ele>50.905</ele>
        <time>2019-06-15T20:20:57Z</time>
      </trkpt>
      <trkpt lat="43.279414" lon="-2.983745">
        <ele>51.915</ele>
        <time>2019-06-15T20:20:58Z</time>
      </trkpt>
      <trkpt lat="43.279274" lon="-2.983534">
        <ele>53.108</ele>
        <time>2019-06-15T20:20:59Z</time>
      </trkpt>
      <trkpt lat="43.279142" lon="-2.983325">
        <ele>53.077</ele>
        <time>2019-06-15T20:21:00Z</time>
      </trkpt>
      <trkpt lat="43.279018" lon="-2.983109">
        <ele>54.451</ele>
        <time>2019-06-15T20:21:01Z</time>
      </trkpt>
      <trkpt lat="43.278903" lon="-2.982891">
        <ele>53.810</ele>
        <time>2019-06-15T20:21:02Z</time>
      </trkpt>
      <trkpt lat="43.278794" lon="-2.982695">
        <ele>55.919</ele>
        <time>2019-06-15T20:21:03Z</time>
      </trkpt>
      <trkpt lat="43.278678" lon="-2.982465">
        <ele>55.448</ele>
        <time>2019-06-15T20:21:04Z</time>
      </trkpt>
      <trkpt lat="43.278565" lon="-2.982238">
        <ele>55.599</ele>
        <time>2019-06-15T20:21:05Z</time>
      </trkpt>
      <trkpt lat="43.278445" lon="-2.981999">
        <ele>55.948</ele>
        <time>2019-06-15T20:21:06Z</time>
      </trkpt>
      <trkpt lat="43.278321" lon="-2.981768">
        <ele>55.132</ele>
        <time>2019-06-15T20:21:07Z</time>
      </trkpt>
      <trkpt lat="43.278200" lon="-2.981537">
        <ele>55.584</ele>
        <time>2019-06-15T20:21:08Z</time>
      </trkpt>
      <trkpt lat="43.278072" lon="-2.981318">
        <ele>53.807</ele>
        <time>2019-06-15T20:21:09Z</time>
      </trkpt>
      <trkpt lat="43.277927" lon="-2.981106">
        <ele>54.817</ele>
        <time>2019-06-15T20:21:10Z</time>
      </trkpt>
      <trkpt lat="43.277780" lon="-2.980902">
        <ele>53.208</ele>
        <time>2019-06-15T20:21:11Z</time>
      </trkpt>
      <trkpt lat="43.277627" lon="-2.980718">
        <ele>53.491</ele>
        <time>2019-06-15T20:21:12Z</time>
      </trkpt>
      <trkpt lat="43.277463" lon="-2.980539">
        <ele>51.685</ele>
        <time>2019-06-15T20:21:13Z</time>
      </trkpt>
      <trkpt lat="43.277288" lon="-2.980377">
        <ele>51.224</ele>
        <time>2019-06-15T20:21:14Z</time>
      </trkpt>
      <trkpt lat="43.277106" lon="-2.980236">
        <ele>49.693</ele>
        <time>2019-06-15T20:21:15Z</time>
      </trkpt>
      <trkpt lat="43.276916" lon="-2.980103">
        <ele>48.742</ele>
        <time>2019-06-15T20:21:16Z</time>
      </trkpt>
      <trkpt lat="43.276721" lon="-2.979974">
        <ele>46.913</ele>
        <time>2019-06-15T20:21:17Z</time>
      </trkpt>
      <trkpt lat="43.276525" lon="-2.979851">
        <ele>47.422</ele>
        <time>2019-06-15T20:21:18Z</time>
      </trkpt>
      <trkpt lat="43.276332" lon="-2.979737">
        <ele>46.056</ele>
        <time>2019-06-15T20:21:19Z</time>
      </trkpt>
      <trkpt lat="43.276142" lon="-2.979636">
        <ele>46.349</ele>
        <time>2019-06-15T20:21:20Z</time>
      </trkpt>
      <trkpt lat="43.275958" lon="-2.979526">
        <ele>45.602</ele>
        <time>2019-06-15T20:21:21Z</time>
      </trkpt>
      <trkpt lat="43.275784" lon="-2.979414">
        <ele>43.722</ele>
        <time>2019-06-15T20:21:22Z</time>
      </trkpt>
      <trkpt lat="43.275610" lon="-2.979303">
        <ele>44.308</ele>
        <time>2019-06-15T20:21:23Z</time>
      </trkpt>
      <trkpt lat="43.275453" lon="-2.979183">
        <ele>42.647</ele>
        <time>2019-06-15T20:21:24Z</time>
      </trkpt>
      <trkpt lat="43.275301" lon="-2.979046">
        <ele>41.381</ele>
        <time>2019-06-15T20:21:25Z</time>
      </trkpt>
      <trkpt lat="43.275155" lon="-2.978893">
        <ele>39.090</ele>
        <time>2019-06-15T20:21:26Z</time>
      </trkpt>
      <trkpt lat="43.275021" lon="-2.978715">
        <ele>32.469</ele>
        <time>2019-06-15T20:21:27Z</time>
      </trkpt>
      <trkpt lat="43.274893" lon="-2.978539">
        <ele>28.088</ele>
        <time>2019-06-15T20:21:28Z</time>
      </trkpt>
      <trkpt lat="43.274789" lon="-2.978360">
        <ele>21.219</ele>
        <time>2019-06-15T20:21:29Z</time>
      </trkpt>
      <trkpt lat="43.274690" lon="-2.978170">
        <ele>12.828</ele>
        <time>2019-06-15T20:21:30Z</time>
      </trkpt>
      <trkpt lat="43.274607" lon="-2.977955">
        <ele>6.032</ele>
        <time>2019-06-15T20:21:31Z</time>
      </trkpt>
      <trkpt lat="43.274527" lon="-2.977714">
        <ele>4.078</ele>
        <time>2019-06-15T20:21:32Z</time>
      </trkpt>
      <trkpt lat="43.274460" lon="-2.977466">
        <ele>3.833</ele>
        <time>2019-06-15T20:21:33Z</time>
      </trkpt>
      <trkpt lat="43.274398" lon="-2.977196">
        <ele>2.026</ele>
        <time>2019-06-15T20:21:34Z</time>
      </trkpt>
      <trkpt lat="43.274346" lon="-2.976936">
        <ele>2.908</ele>
        <time>2019-06-15T20:21:35Z</time>
      </trkpt>
      <trkpt lat="43.274313" lon="-2.976689">
        <ele>7.180</ele>
        <time>2019-06-15T20:21:36Z</time>
      </trkpt>
      <trkpt lat="43.274277" lon="-2.976444">
        <ele>8.254</ele>
        <time>2019-06-15T20:21:37Z</time>
      </trkpt>
      <trkpt lat="43.274258" lon="-2.976189">
        <ele>8.353</ele>
        <time>2019-06-15T20:21:38Z</time>
      </trkpt>
      <trkpt lat="43.274229" lon="-2.975920">
        <ele>7.772</ele>
        <time>2019-06-15T20:21:39Z</time>
      </trkpt>
      <trkpt lat="43.274215" lon="-2.975654">
        <ele>7.881</ele>
        <time>2019-06-15T20:21:40Z</time>
      </trkpt>
      <trkpt lat="43.274201" lon="-2.975379">
        <ele>8.042</ele>
        <time>2019-06-15T20:21:41Z</time>
      </trkpt>
      <trkpt lat="43.274196" lon="-2.975123">
        <ele>9.171</ele>
        <time>2019-06-15T20:21:42Z</time>
      </trkpt>
      <trkpt lat="43.274191" lon="-2.974859">
        <ele>10.425</ele>
        <time>2019-06-15T20:21:43Z</time>
      </trkpt>
      <trkpt lat="43.274192" lon="-2.974592">
        <ele>11.365</ele>
        <time>2019-06-15T20:21:44Z</time>
      </trkpt>
      <trkpt lat="43.274200" lon="-2.974345">
        <ele>12.568</ele>
        <time>2019-06-15T20:21:45Z</time>
      </trkpt>
      <trkpt lat="43.274211" lon="-2.974098">
        <ele>14.214</ele>
        <time>2019-06-15T20:21:46Z</time>
      </trkpt>
      <trkpt lat="43.274221" lon="-2.973843">
        <ele>15.808</ele>
        <time>2019-06-15T20:21:47Z</time>
      </trkpt>
      <trkpt lat="43.274243" lon="-2.973616">
        <ele>16.469</ele>
        <time>2019-06-15T20:21:48Z</time>
      </trkpt>
      <trkpt lat="43.274268" lon="-2.973386">
        <ele>17.953</ele>
        <time>2019-06-15T20:21:49Z</time>
      </trkpt>
      <trkpt lat="43.274294" lon="-2.973152">
        <ele>19.442</ele>
        <time>2019-06-15T20:21:50Z</time>
      </trkpt>
      <trkpt lat="43.274317" lon="-2.972921">
        <ele>21.841</ele>
        <time>2019-06-15T20:21:51Z</time>
      </trkpt>
      <trkpt lat="43.274344" lon="-2.972680">
        <ele>24.670</ele>
        <time>2019-06-15T20:21:52Z</time>
      </trkpt>
      <trkpt lat="43.274376" lon="-2.972430">
        <ele>26.641</ele>
        <time>2019-06-15T20:21:53Z</time>
      </trkpt>
      <trkpt lat="43.274402" lon="-2.972189">
        <ele>26.630</ele>
        <time>2019-06-15T20:21:54Z</time>
      </trkpt>
      <trkpt lat="43.274430" lon="-2.971951">
        <ele>27.294</ele>
        <time>2019-06-15T20:21:55Z</time>
      </trkpt>
      <trkpt lat="43.274443" lon="-2.971696">
        <ele>27.097</ele>
        <time>2019-06-15T20:21:56Z</time>
      </trkpt>
      <trkpt lat="43.274447" lon="-2.971448">
        <ele>27.023</ele>
        <time>2019-06-15T20:21:57Z</time>
      </trkpt>
      <trkpt lat="43.274433" lon="-2.971208">
        <ele>27.225</ele>
        <time>2019-06-15T20:21:58Z</time>
      </trkpt>
      <trkpt lat="43.274408" lon="-2.970947">
        <ele>28.208</ele>
        <time>2019-06-15T20:21:59Z</time>
      </trkpt>
      <trkpt lat="43.274355" lon="-2.970691">
        <ele>29.342</ele>
        <time>2019-06-15T20:22:00Z</time>
      </trkpt>
      <trkpt lat="43.274284" lon="-2.970437">
        <ele>29.586</ele>
        <time>2019-06-15T20:22:01Z</time>
      </trkpt>
      <trkpt lat="43.274202" lon="-2.970200">
        <ele>29.215</ele>
        <time>2019-06-15T20:22:02Z</time>
      </trkpt>
      <trkpt lat="43.274109" lon="-2.969949">
        <ele>30.464</ele>
        <time>2019-06-15T20:22:03Z</time>
      </trkpt>
      <trkpt lat="43.273987" lon="-2.969714">
        <ele>30.293</ele>
        <time>2019-06-15T20:22:04Z</time>
      </trkpt>
      <trkpt lat="43.273853" lon="-2.969503">
        <ele>31.724</ele>
        <time>2019-06-15T20:22:05Z</time>
      </trkpt>
      <trkpt lat="43.273709" lon="-2.969299">
        <ele>32.213</ele>
        <time>2019-06-15T20:22:06Z</time>
      </trkpt>
      <trkpt lat="43.273548" lon="-2.969103">
        <ele>33.287</ele>
        <time>2019-06-15T20:22:07Z</time>
      </trkpt>
      <trkpt lat="43.273376" lon="-2.968917">
        <ele>34.061</ele>
        <time>2019-06-15T20:22:08Z</time>
      </trkpt>
      <trkpt lat="43.273195" lon="-2.968753">
        <ele>36.521</ele>
        <time>2019-06-15T20:22:09Z</time>
      </trkpt>
      <trkpt lat="43.273014" lon="-2.968583">
        <ele>36.113</ele>
        <time>2019-06-15T20:22:10Z</time>
      </trkpt>
      <trkpt lat="43.272832" lon="-2.968418">
        <ele>38.108</ele>
        <time>2019-06-15T20:22:11Z</time>
      </trkpt>
      <trkpt lat="43.272648" lon="-2.968273">
        <ele>39.569</ele>
        <time>2019-06-15T20:22:12Z</time>
      </trkpt>
      <trkpt lat="43.272468" lon="-2.968143">
        <ele>40.833</ele>
        <time>2019-06-15T20:22:13Z</time>
      </trkpt>
      <trkpt lat="43.272284" lon="-2.968015">
        <ele>41.572</ele>
        <time>2019-06-15T20:22:14Z</time>
      </trkpt>
      <trkpt lat="43.272102" lon="-2.967887">
        <ele>43.561</ele>
        <time>2019-06-15T20:22:15Z</time>
      </trkpt>
      <trkpt lat="43.271908" lon="-2.967766">
        <ele>42.150</ele>
        <time>2019-06-15T20:22:16Z</time>
      </trkpt>
      <trkpt lat="43.271719" lon="-2.967657">
        <ele>45.591</ele>
        <time>2019-06-15T20:22:17Z</time>
      </trkpt>
      <trkpt lat="43.271538" lon="-2.967572">
        <ele>46.030</ele>
        <time>2019-06-15T20:22:18Z</time>
      </trkpt>
      <trkpt lat="43.271353" lon="-2.967459">
        <ele>44.864</ele>
        <time>2019-06-15T20:22:19Z</time>
      </trkpt>
      <trkpt lat="43.271167" lon="-2.967365">
        <ele>47.385</ele>
        <time>2019-06-15T20:22:20Z</time>
      </trkpt>
      <trkpt lat="43.270988" lon="-2.967266">
        <ele>47.389</ele>
        <time>2019-06-15T20:22:21Z</time>
      </trkpt>
      <trkpt lat="43.270812" lon="-2.967181">
        <ele>47.617</ele>
        <time>2019-06-15T20:22:22Z</time>
      </trkpt>
      <trkpt lat="43.270634" lon="-2.967085">
        <ele>50.608</ele>
        <time>2019-06-15T20:22:23Z</time>
      </trkpt>
      <trkpt lat="43.270453" lon="-2.966980">
        <ele>50.711</ele>
        <time>2019-06-15T20:22:24Z</time>
      </trkpt>
      <trkpt lat="43.270279" lon="-2.966876">
        <ele>51.215</ele>
        <time>2019-06-15T20:22:25Z</time>
      </trkpt>
      <trkpt lat="43.270108" lon="-2.966762">
        <ele>54.064</ele>
        <time>2019-06-15T20:22:26Z</time>
      </trkpt>
      <trkpt lat="43.269948" lon="-2.966653">
        <ele>53.753</ele>
        <time>2019-06-15T20:22:27Z</time>
      </trkpt>
      <trkpt lat="43.269794" lon="-2.966530">
        <ele>56.032</ele>
        <time>2019-06-15T20:22:28Z</time>
      </trkpt>
      <trkpt lat="43.269645" lon="-2.966407">
        <ele>56.243</ele>
        <time>2019-06-15T20:22:29Z</time>
      </trkpt>
      <trkpt lat="43.269507" lon="-2.966287">
        <ele>57.632</ele>
        <time>2019-06-15T20:22:30Z</time>
      </trkpt>
      <trkpt lat="43.269376" lon="-2.966172">
        <ele>58.336</ele>
        <time>2019-06-15T20:22:31Z</time>
      </trkpt>
      <trkpt lat="43.269252" lon="-2.966055">
        <ele>59.372</ele>
        <time>2019-06-15T20:22:32Z</time>
      </trkpt>
      <trkpt lat="43.269139" lon="-2.965951">
        <ele>60.013</ele>
        <time>2019-06-15T20:22:33Z</time>
      </trkpt>
      <trkpt lat="43.269042" lon="-2.965858">
        <ele>60.414</ele>
        <time>2019-06-15T20:22:34Z</time>
      </trkpt>
      <trkpt lat="43.268951" lon="-2.965765">
        <ele>60.808</ele>
        <time>2019-06-15T20:22:35Z</time>
      </trkpt>
      <trkpt lat="43.268870" lon="-2.965685">
        <ele>60.720</ele>
        <time>2019-06-15T20:22:36Z</time>
      </trkpt>
      <trkpt lat="43.268792" lon="-2.965629">
        <ele>61.094</ele>
        <time>2019-06-15T20:22:37Z</time>
      </trkpt>
      <trkpt lat="43.268716" lon="-2.965600">
        <ele>62.053</ele>
        <time>2019-06-15T20:22:38Z</time>
      </trkpt>
      <trkpt lat="43.268635" lon="-2.965605">
        <ele>63.952</ele>
        <time>2019-06-15T20:22:39Z</time>
      </trkpt>
      <trkpt lat="43.268561" lon="-2.965634">
        <ele>65.411</ele>
        <time>2019-06-15T20:22:40Z</time>
      </trkpt>
      <trkpt lat="43.268504" lon="-2.965687">
        <ele>66.882</ele>
        <time>2019-06-15T20:22:41Z</time>
      </trkpt>
      <trkpt lat="43.268456" lon="-2.965777">
        <ele>68.771</ele>
        <time>2019-06-15T20:22:42Z</time>
      </trkpt>
      <trkpt lat="43.268429" lon="-2.965877">
        <ele>70.365</ele>
        <time>2019-06-15T20:22:43Z</time>
      </trkpt>
      <trkpt lat="43.268446" lon="-2.965985">
        <ele>71.931</ele>
        <time>2019-06-15T20:22:44Z</time>
      </trkpt>
      <trkpt lat="43.268482" lon="-2.966097">
        <ele>73.961</ele>
        <time>2019-06-15T20:22:45Z</time>
      </trkpt>
      <trkpt lat="43.268533" lon="-2.966203">
        <ele>74.407</ele>
        <time>2019-06-15T20:22:46Z</time>
      </trkpt>
      <trkpt lat="43.268617" lon="-2.966308">
        <ele>74.008</ele>
        <time>2019-06-15T20:22:47Z</time>
      </trkpt>
      <trkpt lat="43.268710" lon="-2.966392">
        <ele>75.266</ele>
        <time>2019-06-15T20:22:48Z</time>
      </trkpt>
      <trkpt lat="43.268810" lon="-2.966483">
        <ele>76.890</ele>
        <time>2019-06-15T20:22:49Z</time>
      </trkpt>
      <trkpt lat="43.268929" lon="-2.966575">
        <ele>76.779</ele>
        <time>2019-06-15T20:22:50Z</time>
      </trkpt>
      <trkpt lat="43.269049" lon="-2.966665">
        <ele>77.328</ele>
        <time>2019-06-15T20:22:51Z</time>
      </trkpt>
      <trkpt lat="43.269173" lon="-2.966768">
        <ele>78.347</ele>
        <time>2019-06-15T20:22:52Z</time>
      </trkpt>
      <trkpt lat="43.269299" lon="-2.966869">
        <ele>78.068</ele>
        <time>2019-06-15T20:22:53Z</time>
      </trkpt>
      <trkpt lat="43.269423" lon="-2.966988">
        <ele>79.047</ele>
        <time>2019-06-15T20:22:54Z</time>
      </trkpt>
      <trkpt lat="43.269554" lon="-2.967088">
        <ele>78.661</ele>
        <time>2019-06-15T20:22:55Z</time>
      </trkpt>
      <trkpt lat="43.269675" lon="-2.967203">
        <ele>79.619</ele>
        <time>2019-06-15T20:22:56Z</time>
      </trkpt>
      <trkpt lat="43.269779" lon="-2.967329">
        <ele>79.609</ele>
        <time>2019-06-15T20:22:57Z</time>
      </trkpt>
      <trkpt lat="43.269877" lon="-2.967468">
        <ele>80.519</ele>
        <time>2019-06-15T20:22:58Z</time>
      </trkpt>
      <trkpt lat="43.269970" lon="-2.967645">
        <ele>82.208</ele>
        <time>2019-06-15T20:22:59Z</time>
      </trkpt>
      <trkpt lat="43.270063" lon="-2.967819">
        <ele>82.464</ele>
        <time>2019-06-15T20:23:00Z</time>
      </trkpt>
      <trkpt lat="43.270131" lon="-2.968004">
        <ele>84.278</ele>
        <time>2019-06-15T20:23:01Z</time>
      </trkpt>
      <trkpt lat="43.270205" lon="-2.968205">
        <ele>86.077</ele>
        <time>2019-06-15T20:23:02Z</time>
      </trkpt>
      <trkpt lat="43.270259" lon="-2.968412">
        <ele>86.786</ele>
        <time>2019-06-15T20:23:03Z</time>
      </trkpt>
      <trkpt lat="43.270300" lon="-2.968628">
        <ele>88.145</ele>
        <time>2019-06-15T20:23:04Z</time>
      </trkpt>
      <trkpt lat="43.270331" lon="-2.968852">
        <ele>88.926</ele>
        <time>2019-06-15T20:23:05Z</time>
      </trkpt>
      <trkpt lat="43.270342" lon="-2.969090">
        <ele>89.755</ele>
        <time>2019-06-15T20:23:06Z</time>
      </trkpt>
      <trkpt lat="43.270338" lon="-2.969330">
        <ele>90.559</ele>
        <time>2019-06-15T20:23:07Z</time>
      </trkpt>
      <trkpt lat="43.270311" lon="-2.969576">
        <ele>91.282</ele>
        <time>2019-06-15T20:23:08Z</time>
      </trkpt>
      <trkpt lat="43.270271" lon="-2.969803">
        <ele>91.343</ele>
        <time>2019-06-15T20:23:09Z</time>
      </trkpt>
      <trkpt lat="43.270210" lon="-2.970044">
        <ele>92.017</ele>
        <time>2019-06-15T20:23:10Z</time>
      </trkpt>
      <trkpt lat="43.270132" lon="-2.970281">
        <ele>92.608</ele>
        <time>2019-06-15T20:23:11Z</time>
      </trkpt>
      <trkpt lat="43.270045" lon="-2.970499">
        <ele>93.071</ele>
        <time>2019-06-15T20:23:12Z</time>
      </trkpt>
      <trkpt lat="43.269938" lon="-2.970701">
        <ele>91.875</ele>
        <time>2019-06-15T20:23:13Z</time>
      </trkpt>
      <trkpt lat="43.269815" lon="-2.970892">
        <ele>92.964</ele>
        <time>2019-06-15T20:23:14Z</time>
      </trkpt>
      <trkpt lat="43.269688" lon="-2.971050">
        <ele>93.293</ele>
        <time>2019-06-15T20:23:15Z</time>
      </trkpt>
      <trkpt lat="43.269540" lon="-2.971191">
        <ele>92.312</ele>
        <time>2019-06-15T20:23:16Z</time>
      </trkpt>
      <trkpt lat="43.269383" lon="-2.971310">
        <ele>90.293</ele>
        <time>2019-06-15T20:23:17Z</time>
      </trkpt>
      <trkpt lat="43.269215" lon="-2.971412">
        <ele>89.652</ele>
        <time>2019-06-15T20:23:18Z</time>
      </trkpt>
      <trkpt lat="43.269048" lon="-2.971493">
        <ele>92.536</ele>
        <time>2019-06-15T20:23:19Z</time>
      </trkpt>
      <trkpt lat="43.268878" lon="-2.971542">
        <ele>95.479</ele>
        <time>2019-06-15T20:23:20Z</time>
      </trkpt>
      <trkpt lat="43.268703" lon="-2.971570">
        <ele>96.205</ele>
        <time>2019-06-15T20:23:21Z</time>
      </trkpt>
      <trkpt lat="43.268520" lon="-2.971577">
        <ele>96.625</ele>
        <time>2019-06-15T20:23:22Z</time>
      </trkpt>
      <trkpt lat="43.268331" lon="-2.971576">
        <ele>96.708</ele>
        <time>2019-06-15T20:23:23Z</time>
      </trkpt>
      <trkpt lat="43.268143" lon="-2.971558">
        <ele>96.820</ele>
        <time>2019-06-15T20:23:24Z</time>
      </trkpt>
      <trkpt lat="43.267959" lon="-2.971543">
        <ele>96.524</ele>
        <time>2019-06-15T20:23:25Z</time>
      </trkpt>
      <trkpt lat="43.267782" lon="-2.971529">
        <ele>96.093</ele>
        <time>2019-06-15T20:23:26Z</time>
      </trkpt>
      <trkpt lat="43.267609" lon="-2.971513">
        <ele>95.062</ele>
        <time>2019-06-15T20:23:27Z</time>
      </trkpt>
      <trkpt lat="43.267442" lon="-2.971490">
        <ele>93.911</ele>
        <time>2019-06-15T20:23:28Z</time>
      </trkpt>
      <trkpt lat="43.267271" lon="-2.971463">
        <ele>92.842</ele>
        <time>2019-06-15T20:23:29Z</time>
      </trkpt>
      <trkpt lat="43.267095" lon="-2.971442">
        <ele>92.281</ele>
        <time>2019-06-15T20:23:30Z</time>
      </trkpt>
      <trkpt lat="43.266915" lon="-2.971425">
        <ele>91.715</ele>
        <time>2019-06-15T20:23:31Z</time>
      </trkpt>
      <trkpt lat="43.266743" lon="-2.971411">
        <ele>90.617</ele>
        <time>2019-06-15T20:23:32Z</time>
      </trkpt>
      <trkpt lat="43.266558" lon="-2.971406">
        <ele>89.287</ele>
        <time>2019-06-15T20:23:33Z</time>
      </trkpt>
      <trkpt lat="43.266364" lon="-2.971403">
        <ele>87.915</ele>
        <time>2019-06-15T20:23:34Z</time>
      </trkpt>
      <trkpt lat="43.266166" lon="-2.971408">
        <ele>86.908</ele>
        <time>2019-06-15T20:23:35Z</time>
      </trkpt>
      <trkpt lat="43.265964" lon="-2.971417">
        <ele>86.364</ele>
        <time>2019-06-15T20:23:36Z</time>
      </trkpt>
      <trkpt lat="43.265762" lon="-2.971439">
        <ele>85.058</ele>
        <time>2019-06-15T20:23:37Z</time>
      </trkpt>
      <trkpt lat="43.265561" lon="-2.971477">
        <ele>82.967</ele>
        <time>2019-06-15T20:23:38Z</time>
      </trkpt>
      <trkpt lat="43.265365" lon="-2.971516">
        <ele>81.676</ele>
        <time>2019-06-15T20:23:39Z</time>
      </trkpt>
      <trkpt lat="43.265168" lon="-2.971554">
        <ele>81.225</ele>
        <time>2019-06-15T20:23:40Z</time>
      </trkpt>
      <trkpt lat="43.264983" lon="-2.971592">
        <ele>81.336</ele>
        <time>2019-06-15T20:23:41Z</time>
      </trkpt>
      <trkpt lat="43.264797" lon="-2.971631">
        <ele>80.075</ele>
        <time>2019-06-15T20:23:42Z</time>
      </trkpt>
      <trkpt lat="43.264611" lon="-2.971663">
        <ele>78.769</ele>
        <time>2019-06-15T20:23:43Z</time>
      </trkpt>
      <trkpt lat="43.264430" lon="-2.971690">
        <ele>78.079</ele>
        <time>2019-06-15T20:23:44Z</time>
      </trkpt>
      <trkpt lat="43.264246" lon="-2.971708">
        <ele>77.805</ele>
        <time>2019-06-15T20:23:45Z</time>
      </trkpt>
      <trkpt lat="43.264067" lon="-2.971719">
        <ele>77.425</ele>
        <time>2019-06-15T20:23:46Z</time>
      </trkpt>
      <trkpt lat="43.263888" lon="-2.971709">
        <ele>76.608</ele>
        <time>2019-06-15T20:23:47Z</time>
      </trkpt>
      <trkpt lat="43.263708" lon="-2.971692">
        <ele>75.130</ele>
        <time>2019-06-15T20:23:48Z</time>
      </trkpt>
      <trkpt lat="43.263526" lon="-2.971660">
        <ele>73.544</ele>
        <time>2019-06-15T20:23:49Z</time>
      </trkpt>
      <trkpt lat="43.263349" lon="-2.971616">
        <ele>72.973</ele>
        <time>2019-06-15T20:23:50Z</time>
      </trkpt>
      <trkpt lat="43.263170" lon="-2.971557">
        <ele>72.772</ele>
        <time>2019-06-15T20:23:51Z</time>
      </trkpt>
      <trkpt lat="43.262997" lon="-2.971484">
        <ele>71.121</ele>
        <time>2019-06-15T20:23:52Z</time>
      </trkpt>
      <trkpt lat="43.262818" lon="-2.971394">
        <ele>68.632</ele>
        <time>2019-06-15T20:23:53Z</time>
      </trkpt>
      <trkpt lat="43.262643" lon="-2.971285">
        <ele>67.391</ele>
        <time>2019-06-15T20:23:54Z</time>
      </trkpt>
      <trkpt lat="43.262473" lon="-2.971163">
        <ele>66.465</ele>
        <time>2019-06-15T20:23:55Z</time>
      </trkpt>
      <trkpt lat="43.262312" lon="-2.971021">
        <ele>65.135</ele>
        <time>2019-06-15T20:23:56Z</time>
      </trkpt>
      <trkpt lat="43.262149" lon="-2.970877">
        <ele>63.886</ele>
        <time>2019-06-15T20:23:57Z</time>
      </trkpt>
      <trkpt lat="43.261987" lon="-2.970732">
        <ele>63.014</ele>
        <time>2019-06-15T20:23:58Z</time>
      </trkpt>
      <trkpt lat="43.261826" lon="-2.970577">
        <ele>61.008</ele>
        <time>2019-06-15T20:23:59Z</time>
      </trkpt>
      <trkpt lat="43.261673" lon="-2.970427">
        <ele>60.046</ele>
        <time>2019-06-15T20:24:00Z</time>
      </trkpt>
      <trkpt lat="43.261509" lon="-2.970270">
        <ele>58.730</ele>
        <time>2019-06-15T20:24:01Z</time>
      </trkpt>
      <trkpt lat="43.261338" lon="-2.970121">
        <ele>56.419</ele>
        <time>2019-06-15T20:24:02Z</time>
      </trkpt>
      <trkpt lat="43.261166" lon="-2.969993">
        <ele>54.628</ele>
        <time>2019-06-15T20:24:03Z</time>
      </trkpt>
      <trkpt lat="43.260984" lon="-2.969880">
        <ele>52.747</ele>
        <time>2019-06-15T20:24:04Z</time>
      </trkpt>
      <trkpt lat="43.260795" lon="-2.969785">
        <ele>51.378</ele>
        <time>2019-06-15T20:24:05Z</time>
      </trkpt>
      <trkpt lat="43.260602" lon="-2.969696">
        <ele>49.147</ele>
        <time>2019-06-15T20:24:06Z</time>
      </trkpt>
      <trkpt lat="43.260412" lon="-2.969635">
        <ele>47.211</ele>
        <time>2019-06-15T20:24:07Z</time>
      </trkpt>
      <trkpt lat="43.260218" lon="-2.969590">
        <ele>46.122</ele>
        <time>2019-06-15T20:24:08Z</time>
      </trkpt>
      <trkpt lat="43.260024" lon="-2.969543">
        <ele>46.062</ele>
        <time>2019-06-15T20:24:09Z</time>
      </trkpt>
      <trkpt lat="43.259834" lon="-2.969494">
        <ele>46.108</ele>
        <time>2019-06-15T20:24:10Z</time>
      </trkpt>
      <trkpt lat="43.259645" lon="-2.969454">
        <ele>45.708</ele>
        <time>2019-06-15T20:24:11Z</time>
      </trkpt>
      <trkpt lat="43.259455" lon="-2.969418">
        <ele>44.715</ele>
        <time>2019-06-15T20:24:12Z</time>
      </trkpt>
      <trkpt lat="43.259267" lon="-2.969376">
        <ele>43.689</ele>
        <time>2019-06-15T20:24:13Z</time>
      </trkpt>
      <trkpt lat="43.259093" lon="-2.969342">
        <ele>42.288</ele>
        <time>2019-06-15T20:24:14Z</time>
      </trkpt>
      <trkpt lat="43.258913" lon="-2.969314">
        <ele>40.667</ele>
        <time>2019-06-15T20:24:15Z</time>
      </trkpt>
      <trkpt lat="43.258733" lon="-2.969286">
        <ele>38.966</ele>
        <time>2019-06-15T20:24:16Z</time>
      </trkpt>
      <trkpt lat="43.258555" lon="-2.969270">
        <ele>37.277</ele>
        <time>2019-06-15T20:24:17Z</time>
      </trkpt>
      <trkpt lat="43.258386" lon="-2.969255">
        <ele>35.816</ele>
        <time>2019-06-15T20:24:18Z</time>
      </trkpt>
      <trkpt lat="43.258209" lon="-2.969255">
        <ele>34.990</ele>
        <time>2019-06-15T20:24:19Z</time>
      </trkpt>
      <trkpt lat="43.258035" lon="-2.969270">
        <ele>34.111</ele>
        <time>2019-06-15T20:24:20Z</time>
      </trkpt>
      <trkpt lat="43.257857" lon="-2.969295">
        <ele>33.921</ele>
        <time>2019-06-15T20:24:21Z</time>
      </trkpt>
      <trkpt lat="43.257682" lon="-2.969328">
        <ele>33.103</ele>
        <time>2019-06-15T20:24:22Z</time>
      </trkpt>
      <trkpt lat="43.257503" lon="-2.969374">
        <ele>31.308</ele>
        <time>2019-06-15T20:24:23Z</time>
      </trkpt>
      <trkpt lat="43.257317" lon="-2.969428">
        <ele>30.374</ele>
        <time>2019-06-15T20:24:24Z</time>
      </trkpt>
      <trkpt lat="43.257147" lon="-2.969487">
        <ele>29.048</ele>
        <time>2019-06-15T20:24:25Z</time>
      </trkpt>
      <trkpt lat="43.256984" lon="-2.969549">
        <ele>27.767</ele>
        <time>2019-06-15T20:24:26Z</time>
      </trkpt>
      <trkpt lat="43.256828" lon="-2.969621">
        <ele>26.926</ele>
        <time>2019-06-15T20:24:27Z</time>
      </trkpt>
      <trkpt lat="43.256675" lon="-2.969694">
        <ele>26.535</ele>
        <time>2019-06-15T20:24:28Z</time>
      </trkpt>
      <trkpt lat="43.256543" lon="-2.969773">
        <ele>25.616</ele>
        <time>2019-06-15T20:24:29Z</time>
      </trkpt>
      <trkpt lat="43.256420" lon="-2.969858">
        <ele>23.885</ele>
        <time>2019-06-15T20:24:30Z</time>
      </trkpt>
      <trkpt lat="43.256308" lon="-2.969942">
        <ele>22.519</ele>
        <time>2019-06-15T20:24:31Z</time>
      </trkpt>
      <trkpt lat="43.256212" lon="-2.970026">
        <ele>22.383</ele>
        <time>2019-06-15T20:24:32Z</time>
      </trkpt>
      <trkpt lat="43.256132" lon="-2.970118">
        <ele>22.425</ele>
        <time>2019-06-15T20:24:33Z</time>
      </trkpt>
      <trkpt lat="43.256062" lon="-2.970199">
        <ele>22.117</ele>
        <time>2019-06-15T20:24:34Z</time>
      </trkpt>
      <trkpt lat="43.255993" lon="-2.970269">
        <ele>21.908</ele>
        <time>2019-06-15T20:24:35Z</time>
      </trkpt>
      <trkpt lat="43.255922" lon="-2.970318">
        <ele>22.781</ele>
        <time>2019-06-15T20:24:36Z</time>
      </trkpt>
      <trkpt lat="43.255851" lon="-2.970332">
        <ele>23.645</ele>
        <time>2019-06-15T20:24:37Z</time>
      </trkpt>
      <trkpt lat="43.255782" lon="-2.970331">
        <ele>24.654</ele>
        <time>2019-06-15T20:24:38Z</time>
      </trkpt>
      <trkpt lat="43.255710" lon="-2.970303">
        <ele>25.973</ele>
        <time>2019-06-15T20:24:39Z</time>
      </trkpt>
      <trkpt lat="43.255647" lon="-2.970246">
        <ele>27.592</ele>
        <time>2019-06-15T20:24:40Z</time>
      </trkpt>
      <trkpt lat="43.255608" lon="-2.970152">
        <ele>28.133</ele>
        <time>2019-06-15T20:24:41Z</time>
      </trkpt>
      <trkpt lat="43.255587" lon="-2.970057">
        <ele>28.212</ele>
        <time>2019-06-15T20:24:42Z</time>
      </trkpt>
      <trkpt lat="43.255597" lon="-2.969963">
        <ele>28.386</ele>
        <time>2019-06-15T20:24:43Z</time>
      </trkpt>
      <trkpt lat="43.255625" lon="-2.969866">
        <ele>28.662</ele>
        <time>2019-06-15T20:24:44Z</time>
      </trkpt>
      <trkpt lat="43.255682" lon="-2.969786">
        <ele>28.983</ele>
        <time>2019-06-15T20:24:45Z</time>
      </trkpt>
      <trkpt lat="43.255763" lon="-2.969727">
        <ele>29.011</ele>
        <time>2019-06-15T20:24:46Z</time>
      </trkpt>
      <trkpt lat="43.255855" lon="-2.969677">
        <ele>29.208</ele>
        <time>2019-06-15T20:24:47Z</time>
      </trkpt>
      <trkpt lat="43.255960" lon="-2.969625">
        <ele>29.519</ele>
        <time>2019-06-15T20:24:48Z</time>
      </trkpt>
      <trkpt lat="43.256087" lon="-2.969561">
        <ele>29.423</ele>
        <time>2019-06-15T20:24:49Z</time>
      </trkpt>
      <trkpt lat="43.256222" lon="-2.969482">
        <ele>30.112</ele>
        <time>2019-06-15T20:24:50Z</time>
      </trkpt>
      <trkpt lat="43.256370" lon="-2.969391">
        <ele>31.681</ele>
        <time>2019-06-15T20:24:51Z</time>
      </trkpt>
      <trkpt lat="43.256526" lon="-2.969302">
        <ele>32.020</ele>
        <time>2019-06-15T20:24:52Z</time>
      </trkpt>
      <trkpt lat="43.256689" lon="-2.969214">
        <ele>33.561</ele>
        <time>2019-06-15T20:24:53Z</time>
      </trkpt>
      <trkpt lat="43.256868" lon="-2.969142">
        <ele>34.970</ele>
        <time>2019-06-15T20:24:54Z</time>
      </trkpt>
      <trkpt lat="43.257055" lon="-2.969076">
        <ele>36.254</ele>
        <time>2019-06-15T20:24:55Z</time>
      </trkpt>
      <trkpt lat="43.257248" lon="-2.969021">
        <ele>37.683</ele>
        <time>2019-06-15T20:24:56Z</time>
      </trkpt>
      <trkpt lat="43.257449" lon="-2.968984">
        <ele>38.325</ele>
        <time>2019-06-15T20:24:57Z</time>
      </trkpt>
      <trkpt lat="43.257652" lon="-2.968954">
        <ele>39.817</ele>
        <time>2019-06-15T20:24:58Z</time>
      </trkpt>
      <trkpt lat="43.257855" lon="-2.968940">
        <ele>41.408</ele>
        <time>2019-06-15T20:24:59Z</time>
      </trkpt>
      <trkpt lat="43.258055" lon="-2.968932">
        <ele>42.981</ele>
        <time>2019-06-15T20:25:00Z</time>
      </trkpt>
      <trkpt lat="43.258262" lon="-2.968922">
        <ele>44.715</ele>
        <time>2019-06-15T20:25:01Z</time>
      </trkpt>
      <trkpt lat="43.258465" lon="-2.968929">
        <ele>46.414</ele>
        <time>2019-06-15T20:25:02Z</time>
      </trkpt>
      <trkpt lat="43.258675" lon="-2.968955">
        <ele>48.123</ele>
        <time>2019-06-15T20:25:03Z</time>
      </trkpt>
      <trkpt lat="43.258891" lon="-2.968991">
        <ele>49.792</ele>
        <time>2019-06-15T20:25:04Z</time>
      </trkpt>
      <trkpt lat="43.259109" lon="-2.969044">
        <ele>51.123</ele>
        <time>2019-06-15T20:25:05Z</time>
      </trkpt>
      <trkpt lat="43.259319" lon="-2.969091">
        <ele>51.842</ele>
        <time>2019-06-15T20:25:06Z</time>
      </trkpt>
      <trkpt lat="43.259535" lon="-2.969144">
        <ele>52.436</ele>
        <time>2019-06-15T20:25:07Z</time>
      </trkpt>
      <trkpt lat="43.259749" lon="-2.969194">
        <ele>53.765</ele>
        <time>2019-06-15T20:25:08Z</time>
      </trkpt>
      <trkpt lat="43.259961" lon="-2.969239">
        <ele>55.468</ele>
        <time>2019-06-15T20:25:09Z</time>
      </trkpt>
      <trkpt lat="43.260182" lon="-2.969277">
        <ele>56.414</ele>
        <time>2019-06-15T20:25:10Z</time>
      </trkpt>
      <trkpt lat="43.260389" lon="-2.969324">
        <ele>56.508</ele>
        <time>2019-06-15T20:25:11Z</time>
      </trkpt>
      <trkpt lat="43.260598" lon="-2.969392">
        <ele>56.929</ele>
        <time>2019-06-15T20:25:12Z</time>
      </trkpt>
      <trkpt lat="43.260807" lon="-2.969482">
        <ele>58.113</ele>
        <time>2019-06-15T20:25:13Z</time>
      </trkpt>
      <trkpt lat="43.261019" lon="-2.969586">
        <ele>61.052</ele>
        <time>2019-06-15T20:25:14Z</time>
      </trkpt>
      <trkpt lat="43.261222" lon="-2.969715">
        <ele>63.841</ele>
        <time>2019-06-15T20:25:15Z</time>
      </trkpt>
      <trkpt lat="43.261411" lon="-2.969860">
        <ele>65.520</ele>
        <time>2019-06-15T20:25:16Z</time>
      </trkpt>
      <trkpt lat="43.261596" lon="-2.970028">
        <ele>66.161</ele>
        <time>2019-06-15T20:25:17Z</time>
      </trkpt>
      <trkpt lat="43.261781" lon="-2.970209">
        <ele>67.670</ele>
        <time>2019-06-15T20:25:18Z</time>
      </trkpt>
      <trkpt lat="43.261959" lon="-2.970386">
        <ele>68.164</ele>
        <time>2019-06-15T20:25:19Z</time>
      </trkpt>
      <trkpt lat="43.262139" lon="-2.970569">
        <ele>68.712</ele>
        <time>2019-06-15T20:25:20Z</time>
      </trkpt>
      <trkpt lat="43.262315" lon="-2.970744">
        <ele>69.432</ele>
        <time>2019-06-15T20:25:21Z</time>
      </trkpt>
      <trkpt lat="43.262503" lon="-2.970899">
        <ele>70.405</ele>
        <time>2019-06-15T20:25:22Z</time>
      </trkpt>
      <trkpt lat="43.262687" lon="-2.971030">
        <ele>72.608</ele>
        <time>2019-06-15T20:25:23Z</time>
      </trkpt>
      <trkpt lat="43.262878" lon="-2.971127">
        <ele>73.284</ele>
        <time>2019-06-15T20:25:24Z</time>
      </trkpt>
      <trkpt lat="43.263055" lon="-2.971196">
        <ele>74.898</ele>
        <time>2019-06-15T20:25:25Z</time>
      </trkpt>
      <trkpt lat="43.263250" lon="-2.971274">
        <ele>77.067</ele>
        <time>2019-06-15T20:25:26Z</time>
      </trkpt>
      <trkpt lat="43.263458" lon="-2.971330">
        <ele>78.716</ele>
        <time>2019-06-15T20:25:27Z</time>
      </trkpt>
      <trkpt lat="43.263664" lon="-2.971365">
        <ele>79.985</ele>
        <time>2019-06-15T20:25:28Z</time>
      </trkpt>
      <trkpt lat="43.263865" lon="-2.971384">
        <ele>80.156</ele>
        <time>2019-06-15T20:25:29Z</time>
      </trkpt>
      <trkpt lat="43.264077" lon="-2.971394">
        <ele>81.945</ele>
        <time>2019-06-15T20:25:30Z</time>
      </trkpt>
      <trkpt lat="43.264277" lon="-2.971397">
        <ele>83.249</ele>
        <time>2019-06-15T20:25:31Z</time>
      </trkpt>
      <trkpt lat="43.264482" lon="-2.971361">
        <ele>85.938</ele>
        <time>2019-06-15T20:25:32Z</time>
      </trkpt>
      <trkpt lat="43.264693" lon="-2.971342">
        <ele>87.570</ele>
        <time>2019-06-15T20:25:33Z</time>
      </trkpt>
      <trkpt lat="43.264906" lon="-2.971320">
        <ele>88.117</ele>
        <time>2019-06-15T20:25:34Z</time>
      </trkpt>
      <trkpt lat="43.265127" lon="-2.971272">
        <ele>89.908</ele>
        <time>2019-06-15T20:25:35Z</time>
      </trkpt>
      <trkpt lat="43.265334" lon="-2.971253">
        <ele>90.956</ele>
        <time>2019-06-15T20:25:36Z</time>
      </trkpt>
      <trkpt lat="43.265536" lon="-2.971236">
        <ele>91.490</ele>
        <time>2019-06-15T20:25:37Z</time>
      </trkpt>
      <trkpt lat="43.265772" lon="-2.971208">
        <ele>93.099</ele>
        <time>2019-06-15T20:25:38Z</time>
      </trkpt>
      <trkpt lat="43.265976" lon="-2.971202">
        <ele>93.058</ele>
        <time>2019-06-15T20:25:39Z</time>
      </trkpt>
      <trkpt lat="43.266175" lon="-2.971186">
        <ele>93.327</ele>
        <time>2019-06-15T20:25:40Z</time>
      </trkpt>
      <trkpt lat="43.266376" lon="-2.971181">
        <ele>94.288</ele>
        <time>2019-06-15T20:25:41Z</time>
      </trkpt>
      <trkpt lat="43.266558" lon="-2.971180">
        <ele>95.087</ele>
        <time>2019-06-15T20:25:42Z</time>
      </trkpt>
      <trkpt lat="43.266744" lon="-2.971185">
        <ele>95.881</ele>
        <time>2019-06-15T20:25:43Z</time>
      </trkpt>
      <trkpt lat="43.266922" lon="-2.971186">
        <ele>96.831</ele>
        <time>2019-06-15T20:25:44Z</time>
      </trkpt>
      <trkpt lat="43.267082" lon="-2.971203">
        <ele>98.561</ele>
        <time>2019-06-15T20:25:45Z</time>
      </trkpt>
      <trkpt lat="43.267241" lon="-2.971204">
        <ele>100.307</ele>
        <time>2019-06-15T20:25:46Z</time>
      </trkpt>
      <trkpt lat="43.267390" lon="-2.971204">
        <ele>100.108</ele>
        <time>2019-06-15T20:25:47Z</time>
      </trkpt>
      <trkpt lat="43.267541" lon="-2.971193">
        <ele>100.286</ele>
        <time>2019-06-15T20:25:48Z</time>
      </trkpt>
      <trkpt lat="43.267674" lon="-2.971184">
        <ele>100.160</ele>
        <time>2019-06-15T20:25:49Z</time>
      </trkpt>
      <trkpt lat="43.267812" lon="-2.971175">
        <ele>99.999</ele>
        <time>2019-06-15T20:25:50Z</time>
      </trkpt>
      <trkpt lat="43.267946" lon="-2.971161">
        <ele>99.498</ele>
        <time>2019-06-15T20:25:51Z</time>
      </trkpt>
      <trkpt lat="43.268083" lon="-2.971151">
        <ele>98.737</ele>
        <time>2019-06-15T20:25:52Z</time>
      </trkpt>
      <trkpt lat="43.268213" lon="-2.971132">
        <ele>97.988</ele>
        <time>2019-06-15T20:25:53Z</time>
      </trkpt>
      <trkpt lat="43.268355" lon="-2.971106">
        <ele>97.157</ele>
        <time>2019-06-15T20:25:54Z</time>
      </trkpt>
      <trkpt lat="43.268486" lon="-2.971076">
        <ele>97.591</ele>
        <time>2019-06-15T20:25:55Z</time>
      </trkpt>
      <trkpt lat="43.268601" lon="-2.971010">
        <ele>97.851</ele>
        <time>2019-06-15T20:25:56Z</time>
      </trkpt>
      <trkpt lat="43.268703" lon="-2.970928">
        <ele>97.201</ele>
        <time>2019-06-15T20:25:57Z</time>
      </trkpt>
      <trkpt lat="43.268792" lon="-2.970842">
        <ele>95.811</ele>
        <time>2019-06-15T20:25:58Z</time>
      </trkpt>
      <trkpt lat="43.268896" lon="-2.970753">
        <ele>96.808</ele>
        <time>2019-06-15T20:25:59Z</time>
      </trkpt>
      <trkpt lat="43.268991" lon="-2.970633">
        <ele>98.348</ele>
        <time>2019-06-15T20:26:00Z</time>
      </trkpt>
      <trkpt lat="43.269075" lon="-2.970510">
        <ele>98.522</ele>
        <time>2019-06-15T20:26:01Z</time>
      </trkpt>
      <trkpt lat="43.269164" lon="-2.970382">
        <ele>97.321</ele>
        <time>2019-06-15T20:26:02Z</time>
      </trkpt>
      <trkpt lat="43.269258" lon="-2.970253">
        <ele>99.370</ele>
        <time>2019-06-15T20:26:03Z</time>
      </trkpt>
      <trkpt lat="43.269356" lon="-2.970118">
        <ele>100.579</ele>
        <time>2019-06-15T20:26:04Z</time>
      </trkpt>
      <trkpt lat="43.269463" lon="-2.969980">
        <ele>99.360</ele>
        <time>2019-06-15T20:26:05Z</time>
      </trkpt>
      <trkpt lat="43.269558" lon="-2.969846">
        <ele>101.179</ele>
        <time>2019-06-15T20:26:06Z</time>
      </trkpt>
      <trkpt lat="43.269640" lon="-2.969711">
        <ele>102.323</ele>
        <time>2019-06-15T20:26:07Z</time>
      </trkpt>
      <trkpt lat="43.269692" lon="-2.969568">
        <ele>102.579</ele>
        <time>2019-06-15T20:26:08Z</time>
      </trkpt>
      <trkpt lat="43.269719" lon="-2.969411">
        <ele>103.205</ele>
        <time>2019-06-15T20:26:09Z</time>
      </trkpt>
      <trkpt lat="43.269725" lon="-2.969239">
        <ele>103.625</ele>
        <time>2019-06-15T20:26:10Z</time>
      </trkpt>
      <trkpt lat="43.269705" lon="-2.969067">
        <ele>104.808</ele>
        <time>2019-06-15T20:26:11Z</time>
      </trkpt>
      <trkpt lat="43.269651" lon="-2.968905">
        <ele>105.720</ele>
        <time>2019-06-15T20:26:12Z</time>
      </trkpt>
      <trkpt lat="43.269582" lon="-2.968756">
        <ele>105.744</ele>
        <time>2019-06-15T20:26:13Z</time>
      </trkpt>
      <trkpt lat="43.269484" lon="-2.968626">
        <ele>107.313</ele>
        <time>2019-06-15T20:26:14Z</time>
      </trkpt>
      <trkpt lat="43.269367" lon="-2.968527">
        <ele>108.142</ele>
        <time>2019-06-15T20:26:15Z</time>
      </trkpt>
      <trkpt lat="43.269237" lon="-2.968422">
        <ele>110.081</ele>
        <time>2019-06-15T20:26:16Z</time>
      </trkpt>
      <trkpt lat="43.269105" lon="-2.968329">
        <ele>112.612</ele>
        <time>2019-06-15T20:26:17Z</time>
      </trkpt>
      <trkpt lat="43.268968" lon="-2.968236">
        <ele>113.071</ele>
        <time>2019-06-15T20:26:18Z</time>
      </trkpt>
      <trkpt lat="43.268826" lon="-2.968151">
        <ele>114.585</ele>
        <time>2019-06-15T20:26:19Z</time>
      </trkpt>
      <trkpt lat="43.268685" lon="-2.968061">
        <ele>116.062</ele>
        <time>2019-06-15T20:26:20Z</time>
      </trkpt>
      <trkpt lat="43.268553" lon="-2.967978">
        <ele>117.183</ele>
        <time>2019-06-15T20:26:21Z</time>
      </trkpt>
      <trkpt lat="43.268417" lon="-2.967883">
        <ele>117.911</ele>
        <time>2019-06-15T20:26:22Z</time>
      </trkpt>
      <trkpt lat="43.268291" lon="-2.967803">
        <ele>118.508</ele>
        <time>2019-06-15T20:26:23Z</time>
      </trkpt>
      <trkpt lat="43.268171" lon="-2.967724">
        <ele>118.459</ele>
        <time>2019-06-15T20:26:24Z</time>
      </trkpt>
      <trkpt lat="43.268053" lon="-2.967643">
        <ele>118.653</ele>
        <time>2019-06-15T20:26:25Z</time>
      </trkpt>
      <trkpt lat="43.267941" lon="-2.967568">
        <ele>118.532</ele>
        <time>2019-06-15T20:26:26Z</time>
      </trkpt>
      <trkpt lat="43.267835" lon="-2.967491">
        <ele>118.411</ele>
        <time>2019-06-15T20:26:27Z</time>
      </trkpt>
      <trkpt lat="43.267731" lon="-2.967419">
        <ele>118.160</ele>
        <time>2019-06-15T20:26:28Z</time>
      </trkpt>
      <trkpt lat="43.267633" lon="-2.967319">
        <ele>117.381</ele>
        <time>2019-06-15T20:26:29Z</time>
      </trkpt>
      <trkpt lat="43.267540" lon="-2.967217">
        <ele>116.620</ele>
        <time>2019-06-15T20:26:30Z</time>
      </trkpt>
      <trkpt lat="43.267453" lon="-2.967077">
        <ele>115.594</ele>
        <time>2019-06-15T20:26:31Z</time>
      </trkpt>
      <trkpt lat="43.267362" lon="-2.966940">
        <ele>114.447</ele>
        <time>2019-06-15T20:26:32Z</time>
      </trkpt>
      <trkpt lat="43.267284" lon="-2.966794">
        <ele>113.029</ele>
        <time>2019-06-15T20:26:33Z</time>
      </trkpt>
      <trkpt lat="43.267206" lon="-2.966665">
        <ele>113.121</ele>
        <time>2019-06-15T20:26:34Z</time>
      </trkpt>
      <trkpt lat="43.267138" lon="-2.966519">
        <ele>112.008</ele>
        <time>2019-06-15T20:26:35Z</time>
      </trkpt>
      <trkpt lat="43.267075" lon="-2.966369">
        <ele>111.397</ele>
        <time>2019-06-15T20:26:36Z</time>
      </trkpt>
      <trkpt lat="43.267017" lon="-2.966217">
        <ele>110.221</ele>
        <time>2019-06-15T20:26:37Z</time>
      </trkpt>
      <trkpt lat="43.266955" lon="-2.966063">
        <ele>110.030</ele>
        <time>2019-06-15T20:26:38Z</time>
      </trkpt>
      <trkpt lat="43.266890" lon="-2.965914">
        <ele>109.329</ele>
        <time>2019-06-15T20:26:39Z</time>
      </trkpt>
      <trkpt lat="43.266828" lon="-2.965781">
        <ele>107.978</ele>
        <time>2019-06-15T20:26:40Z</time>
      </trkpt>
      <trkpt lat="43.266767" lon="-2.965661">
        <ele>106.619</ele>
        <time>2019-06-15T20:26:41Z</time>
      </trkpt>
      <trkpt lat="43.266690" lon="-2.965551">
        <ele>106.388</ele>
        <time>2019-06-15T20:26:42Z</time>
      </trkpt>
      <trkpt lat="43.266614" lon="-2.965452">
        <ele>106.622</ele>
        <time>2019-06-15T20:26:43Z</time>
      </trkpt>
      <trkpt lat="43.266533" lon="-2.965365">
        <ele>106.342</ele>
        <time>2019-06-15T20:26:44Z</time>
      </trkpt>
      <trkpt lat="43.266452" lon="-2.965301">
        <ele>105.922</ele>
        <time>2019-06-15T20:26:45Z</time>
      </trkpt>
      <trkpt lat="43.266370" lon="-2.965236">
        <ele>105.014</ele>
        <time>2019-06-15T20:26:46Z</time>
      </trkpt>
      <trkpt lat="43.266298" lon="-2.965162">
        <ele>103.608</ele>
        <time>2019-06-15T20:26:47Z</time>
      </trkpt>
      <trkpt lat="43.266231" lon="-2.965078">
        <ele>102.287</ele>
        <time>2019-06-15T20:26:48Z</time>
      </trkpt>
      <trkpt lat="43.266177" lon="-2.964980">
        <ele>100.811</ele>
        <time>2019-06-15T20:26:49Z</time>
      </trkpt>
      <trkpt lat="43.266123" lon="-2.964869">
        <ele>100.390</ele>
        <time>2019-06-15T20:26:50Z</time>
      </trkpt>
      <trkpt lat="43.266072" lon="-2.964743">
        <ele>100.559</ele>
        <time>2019-06-15T20:26:51Z</time>
      </trkpt>
      <trkpt lat="43.266012" lon="-2.964618">
        <ele>100.678</ele>
        <time>2019-06-15T20:26:52Z</time>
      </trkpt>
      <trkpt lat="43.265959" lon="-2.964491">
        <ele>100.189</ele>
        <time>2019-06-15T20:26:53Z</time>
      </trkpt>
      <trkpt lat="43.265905" lon="-2.964372">
        <ele>99.728</ele>
        <time>2019-06-15T20:26:54Z</time>
      </trkpt>
      <trkpt lat="43.265845" lon="-2.964248">
        <ele>99.262</ele>
        <time>2019-06-15T20:26:55Z</time>
      </trkpt>
      <trkpt lat="43.265776" lon="-2.964138">
        <ele>99.014</ele>
        <time>2019-06-15T20:26:56Z</time>
      </trkpt>
      <trkpt lat="43.265693" lon="-2.964031">
        <ele>98.654</ele>
        <time>2019-06-15T20:26:57Z</time>
      </trkpt>
      <trkpt lat="43.265611" lon="-2.963939">
        <ele>98.209</ele>
        <time>2019-06-15T20:26:58Z</time>
      </trkpt>
      <trkpt lat="43.265518" lon="-2.963873">
        <ele>98.608</ele>
        <time>2019-06-15T20:26:59Z</time>
      </trkpt>
      <trkpt lat="43.265442" lon="-2.963795">
        <ele>98.694</ele>
        <time>2019-06-15T20:27:00Z</time>
      </trkpt>
      <trkpt lat="43.265367" lon="-2.963727">
        <ele>98.588</ele>
        <time>2019-06-15T20:27:01Z</time>
      </trkpt>
      <trkpt lat="43.265296" lon="-2.963660">
        <ele>98.187</ele>
        <time>2019-06-15T20:27:02Z</time>
      </trkpt>
      <trkpt lat="43.265228" lon="-2.963591">
        <ele>97.656</ele>
        <time>2019-06-15T20:27:03Z</time>
      </trkpt>
      <trkpt lat="43.265170" lon="-2.963542">
        <ele>97.695</ele>
        <time>2019-06-15T20:27:04Z</time>
      </trkpt>
      <trkpt lat="43.265110" lon="-2.963484">
        <ele>97.486</ele>
        <time>2019-06-15T20:27:05Z</time>
      </trkpt>
      <trkpt lat="43.265055" lon="-2.963438">
        <ele>97.575</ele>
        <time>2019-06-15T20:27:06Z</time>
      </trkpt>
      <trkpt lat="43.265004" lon="-2.963393">
        <ele>97.629</ele>
        <time>2019-06-15T20:27:07Z</time>
      </trkpt>
      <trkpt lat="43.264961" lon="-2.963355">
        <ele>97.598</ele>
        <time>2019-06-15T20:27:08Z</time>
      </trkpt>
      <trkpt lat="43.264896" lon="-2.963305">
        <ele>97.415</ele>
        <time>2019-06-15T20:27:10Z</time>
      </trkpt>
      <trkpt lat="43.264835" lon="-2.963262">
        <ele>97.626</ele>
        <time>2019-06-15T20:27:53Z</time>
      </trkpt>
      <trkpt lat="43.264786" lon="-2.963237">
        <ele>98.008</ele>
        <time>2019-06-15T20:27:54Z</time>
      </trkpt>
      <trkpt lat="43.264717" lon="-2.963185">
        <ele>98.392</ele>
        <time>2019-06-15T20:27:55Z</time>
      </trkpt>
      <trkpt lat="43.264636" lon="-2.963128">
        <ele>97.436</ele>
        <time>2019-06-15T20:27:56Z</time>
      </trkpt>
      <trkpt lat="43.264549" lon="-2.963066">
        <ele>96.595</ele>
        <time>2019-06-15T20:27:57Z</time>
      </trkpt>
      <trkpt lat="43.264462" lon="-2.963013">
        <ele>96.464</ele>
        <time>2019-06-15T20:27:58Z</time>
      </trkpt>
      <trkpt lat="43.264370" lon="-2.962968">
        <ele>96.823</ele>
        <time>2019-06-15T20:27:59Z</time>
      </trkpt>
      <trkpt lat="43.264282" lon="-2.962926">
        <ele>96.854</ele>
        <time>2019-06-15T20:28:00Z</time>
      </trkpt>
      <trkpt lat="43.264200" lon="-2.962899">
        <ele>96.883</ele>
        <time>2019-06-15T20:28:01Z</time>
      </trkpt>
      <trkpt lat="43.264106" lon="-2.962875">
        <ele>96.427</ele>
        <time>2019-06-15T20:28:02Z</time>
      </trkpt>
      <trkpt lat="43.264027" lon="-2.962884">
        <ele>96.688</ele>
        <time>2019-06-15T20:28:03Z</time>
      </trkpt>
      <trkpt lat="43.263930" lon="-2.962869">
        <ele>96.024</ele>
        <time>2019-06-15T20:28:04Z</time>
      </trkpt>
      <trkpt lat="43.263835" lon="-2.962833">
        <ele>95.026</ele>
        <time>2019-06-15T20:28:05Z</time>
      </trkpt>
      <trkpt lat="43.263737" lon="-2.962765">
        <ele>93.308</ele>
        <time>2019-06-15T20:28:06Z</time>
      </trkpt>
      <trkpt lat="43.263650" lon="-2.962709">
        <ele>92.591</ele>
        <time>2019-06-15T20:28:07Z</time>
      </trkpt>
      <trkpt lat="43.263567" lon="-2.962648">
        <ele>92.275</ele>
        <time>2019-06-15T20:28:08Z</time>
      </trkpt>
      <trkpt lat="43.263491" lon="-2.962570">
        <ele>91.754</ele>
        <time>2019-06-15T20:28:09Z</time>
      </trkpt>
      <trkpt lat="43.263427" lon="-2.962463">
        <ele>90.413</ele>
        <time>2019-06-15T20:28:10Z</time>
      </trkpt>
      <trkpt lat="43.263373" lon="-2.962357">
        <ele>89.432</ele>
        <time>2019-06-15T20:28:11Z</time>
      </trkpt>
      <trkpt lat="43.263320" lon="-2.962244">
        <ele>88.713</ele>
        <time>2019-06-15T20:28:12Z</time>
      </trkpt>
      <trkpt lat="43.263252" lon="-2.962124">
        <ele>89.072</ele>
        <time>2019-06-15T20:28:13Z</time>
      </trkpt>
      <trkpt lat="43.263195" lon="-2.962007">
        <ele>88.656</ele>
        <time>2019-06-15T20:28:14Z</time>
      </trkpt>
      <trkpt lat="43.263127" lon="-2.961902">
        <ele>88.511</ele>
        <time>2019-06-15T20:28:15Z</time>
      </trkpt>
      <trkpt lat="43.263057" lon="-2.961809">
        <ele>88.521</ele>
        <time>2019-06-15T20:28:16Z</time>
      </trkpt>
      <trkpt lat="43.262999" lon="-2.961739">
        <ele>88.203</ele>
        <time>2019-06-15T20:28:17Z</time>
      </trkpt>
      <trkpt lat="43.262952" lon="-2.961680">
        <ele>87.808</ele>
        <time>2019-06-15T20:28:18Z</time>
      </trkpt>
      <trkpt lat="43.262941" lon="-2.961618">
        <ele>86.554</ele>
        <time>2019-06-15T20:28:20Z</time>
      </trkpt>
      <trkpt lat="43.263002" lon="-2.961639">
        <ele>86.118</ele>
        <time>2019-06-15T20:28:23Z</time>
      </trkpt>
      <trkpt lat="43.263048" lon="-2.961639">
        <ele>85.597</ele>
        <time>2019-06-15T20:28:28Z</time>
      </trkpt>
      <trkpt lat="43.262962" lon="-2.961662">
        <ele>87.246</ele>
        <time>2019-06-15T20:28:33Z</time>
      </trkpt>
      <trkpt lat="43.262888" lon="-2.961636">
        <ele>87.665</ele>
        <time>2019-06-15T20:28:34Z</time>
      </trkpt>
      <trkpt lat="43.262807" lon="-2.961605">
        <ele>87.896</ele>
        <time>2019-06-15T20:28:35Z</time>
      </trkpt>
      <trkpt lat="43.262710" lon="-2.961583">
        <ele>87.865</ele>
        <time>2019-06-15T20:28:36Z</time>
      </trkpt>
      <trkpt lat="43.262611" lon="-2.961551">
        <ele>87.389</ele>
        <time>2019-06-15T20:28:37Z</time>
      </trkpt>
      <trkpt lat="43.262517" lon="-2.961519">
        <ele>86.794</ele>
        <time>2019-06-15T20:28:38Z</time>
      </trkpt>
      <trkpt lat="43.262428" lon="-2.961476">
        <ele>86.357</ele>
        <time>2019-06-15T20:28:39Z</time>
      </trkpt>
      <trkpt lat="43.262342" lon="-2.961427">
        <ele>85.822</ele>
        <time>2019-06-15T20:28:40Z</time>
      </trkpt>
      <trkpt lat="43.262267" lon="-2.961363">
        <ele>84.808</ele>
        <time>2019-06-15T20:28:41Z</time>
      </trkpt>
      <trkpt lat="43.262196" lon="-2.961298">
        <ele>84.292</ele>
        <time>2019-06-15T20:28:42Z</time>
      </trkpt>
      <trkpt lat="43.262135" lon="-2.961221">
        <ele>83.536</ele>
        <time>2019-06-15T20:28:43Z</time>
      </trkpt>
      <trkpt lat="43.262075" lon="-2.961142">
        <ele>82.915</ele>
        <time>2019-06-15T20:28:44Z</time>
      </trkpt>
      <trkpt lat="43.262020" lon="-2.961053">
        <ele>82.684</ele>
        <time>2019-06-15T20:28:45Z</time>
      </trkpt>
      <trkpt lat="43.261976" lon="-2.960974">
        <ele>82.493</ele>
        <time>2019-06-15T20:28:46Z</time>
      </trkpt>
      <trkpt lat="43.261946" lon="-2.960890">
        <ele>81.824</ele>
        <time>2019-06-15T20:28:47Z</time>
      </trkpt>
      <trkpt lat="43.261924" lon="-2.960797">
        <ele>81.393</ele>
        <time>2019-06-15T20:28:48Z</time>
      </trkpt>
      <trkpt lat="43.261913" lon="-2.960716">
        <ele>81.177</ele>
        <time>2019-06-15T20:28:49Z</time>
      </trkpt>
      <trkpt lat="43.261916" lon="-2.960635">
        <ele>80.485</ele>
        <time>2019-06-15T20:28:50Z</time>
      </trkpt>
      <trkpt lat="43.261914" lon="-2.960556">
        <ele>79.989</ele>
        <time>2019-06-15T20:28:51Z</time>
      </trkpt>
      <trkpt lat="43.261912" lon="-2.960458">
        <ele>79.717</ele>
        <time>2019-06-15T20:28:53Z</time>
      </trkpt>
      <trkpt lat="43.261918" lon="-2.960376">
        <ele>79.508</ele>
        <time>2019-06-15T20:28:56Z</time>
      </trkpt>
      <trkpt lat="43.261949" lon="-2.960318">
        <ele>78.981</ele>
        <time>2019-06-15T20:29:00Z</time>
      </trkpt>
      <trkpt lat="43.261994" lon="-2.960323">
        <ele>78.345</ele>
        <time>2019-06-15T20:29:01Z</time>
      </trkpt>
      <trkpt lat="43.262046" lon="-2.960343">
        <ele>77.664</ele>
        <time>2019-06-15T20:29:02Z</time>
      </trkpt>
      <trkpt lat="43.262116" lon="-2.960376">
        <ele>76.733</ele>
        <time>2019-06-15T20:29:03Z</time>
      </trkpt>
      <trkpt lat="43.262198" lon="-2.960420">
        <ele>75.852</ele>
        <time>2019-06-15T20:29:04Z</time>
      </trkpt>
      <trkpt lat="43.262285" lon="-2.960483">
        <ele>74.743</ele>
        <time>2019-06-15T20:29:05Z</time>
      </trkpt>
      <trkpt lat="43.262378" lon="-2.960560">
        <ele>74.352</ele>
        <time>2019-06-15T20:29:06Z</time>
      </trkpt>
      <trkpt lat="43.262472" lon="-2.960638">
        <ele>73.036</ele>
        <time>2019-06-15T20:29:07Z</time>
      </trkpt>
      <trkpt lat="43.262567" lon="-2.960717">
        <ele>72.057</ele>
        <time>2019-06-15T20:29:08Z</time>
      </trkpt>
      <trkpt lat="43.262658" lon="-2.960777">
        <ele>71.700</ele>
        <time>2019-06-15T20:29:09Z</time>
      </trkpt>
      <trkpt lat="43.262758" lon="-2.960836">
        <ele>72.020</ele>
        <time>2019-06-15T20:29:10Z</time>
      </trkpt>
      <trkpt lat="43.262844" lon="-2.960882">
        <ele>72.408</ele>
        <time>2019-06-15T20:29:11Z</time>
      </trkpt>
      <trkpt lat="43.262927" lon="-2.960911">
        <ele>72.948</ele>
        <time>2019-06-15T20:29:12Z</time>
      </trkpt>
      <trkpt lat="43.262988" lon="-2.960926">
        <ele>73.282</ele>
        <time>2019-06-15T20:29:13Z</time>
      </trkpt>
      <trkpt lat="43.263047" lon="-2.960940">
        <ele>73.531</ele>
        <time>2019-06-15T20:29:14Z</time>
      </trkpt>
      <trkpt lat="43.263095" lon="-2.960962">
        <ele>73.380</ele>
        <time>2019-06-15T20:29:15Z</time>
      </trkpt>
      <trkpt lat="43.263150" lon="-2.960986">
        <ele>72.979</ele>
        <time>2019-06-15T20:29:21Z</time>
      </trkpt>
      <trkpt lat="43.263243" lon="-2.961024">
        <ele>72.870</ele>
        <time>2019-06-15T20:29:23Z</time>
      </trkpt>
      <trkpt lat="43.263301" lon="-2.961053">
        <ele>73.299</ele>
        <time>2019-06-15T20:29:24Z</time>
      </trkpt>
      <trkpt lat="43.263346" lon="-2.961073">
        <ele>73.293</ele>
        <time>2019-06-15T20:29:25Z</time>
      </trkpt>
      <trkpt lat="43.263403" lon="-2.961158">
        <ele>73.097</ele>
        <time>2019-06-15T20:29:27Z</time>
      </trkpt>
      <trkpt lat="43.263438" lon="-2.961240">
        <ele>73.123</ele>
        <time>2019-06-15T20:29:29Z</time>
      </trkpt>
      <trkpt lat="43.263453" lon="-2.961309">
        <ele>73.925</ele>
        <time>2019-06-15T20:29:31Z</time>
      </trkpt>
      <trkpt lat="43.263413" lon="-2.961227">
        <ele>73.708</ele>
        <time>2019-06-15T20:29:47Z</time>
      </trkpt>
      <trkpt lat="43.263369" lon="-2.961130">
        <ele>73.832</ele>
        <time>2019-06-15T20:29:49Z</time>
      </trkpt>
      <trkpt lat="43.263325" lon="-2.961078">
        <ele>73.986</ele>
        <time>2019-06-15T20:29:51Z</time>
      </trkpt>
      <trkpt lat="43.263229" lon="-2.961048">
        <ele>73.635</ele>
        <time>2019-06-15T20:29:53Z</time>
      </trkpt>
      <trkpt lat="43.263156" lon="-2.961029">
        <ele>73.844</ele>
        <time>2019-06-15T20:29:55Z</time>
      </trkpt>
      <trkpt lat="43.263086" lon="-2.961008">
        <ele>74.293</ele>
        <time>2019-06-15T20:29:57Z</time>
      </trkpt>
      <trkpt lat="43.263013" lon="-2.960989">
        <ele>74.154</ele>
        <time>2019-06-15T20:29:59Z</time>
      </trkpt>
      <trkpt lat="43.262950" lon="-2.960993">
        <ele>73.923</ele>
        <time>2019-06-15T20:30:01Z</time>
      </trkpt>
      <trkpt lat="43.262900" lon="-2.960971">
        <ele>73.477</ele>
        <time>2019-06-15T20:30:03Z</time>
      </trkpt>
      <trkpt lat="43.262958" lon="-2.960935">
        <ele>73.295</ele>
        <time>2019-06-15T20:30:13Z</time>
      </trkpt>
      <trkpt lat="43.263031" lon="-2.960952">
        <ele>73.649</ele>
        <time>2019-06-15T20:30:14Z</time>
      </trkpt>
      <trkpt lat="43.263112" lon="-2.960977">
        <ele>73.323</ele>
        <time>2019-06-15T20:30:15Z</time>
      </trkpt>
      <trkpt lat="43.263186" lon="-2.961025">
        <ele>73.408</ele>
        <time>2019-06-15T20:30:16Z</time>
      </trkpt>
      <trkpt lat="43.263252" lon="-2.961073">
        <ele>74.282</ele>
        <time>2019-06-15T20:30:17Z</time>
      </trkpt>
      <trkpt lat="43.263303" lon="-2.961100">
        <ele>74.756</ele>
        <time>2019-06-15T20:30:18Z</time>
      </trkpt>
      <trkpt lat="43.263348" lon="-2.961129">
        <ele>74.675</ele>
        <time>2019-06-15T20:30:19Z</time>
      </trkpt>
      <trkpt lat="43.263386" lon="-2.961193">
        <ele>74.124</ele>
        <time>2019-06-15T20:30:21Z</time>
      </trkpt>
      <trkpt lat="43.263416" lon="-2.961273">
        <ele>74.353</ele>
        <time>2019-06-15T20:30:23Z</time>
      </trkpt>
      <trkpt lat="43.263375" lon="-2.961311">
        <ele>76.014</ele>
        <time>2019-06-15T20:30:44Z</time>
      </trkpt>
      <trkpt lat="43.263428" lon="-2.961313">
        <ele>74.743</ele>
        <time>2019-06-15T20:31:20Z</time>
      </trkpt>
      <trkpt lat="43.263379" lon="-2.961337">
        <ele>76.357</ele>
        <time>2019-06-15T20:31:38Z</time>
      </trkpt>
      <trkpt lat="43.263326" lon="-2.961324">
        <ele>77.315</ele>
        <time>2019-06-15T20:31:41Z</time>
      </trkpt>
      <trkpt lat="43.263281" lon="-2.961304">
        <ele>77.465</ele>
        <time>2019-06-15T20:31:44Z</time>
      </trkpt>
      <trkpt lat="43.263308" lon="-2.961243">
        <ele>76.611</ele>
        <time>2019-06-15T20:31:51Z</time>
      </trkpt>
      <trkpt lat="43.263339" lon="-2.961197">
        <ele>75.708</ele>
        <time>2019-06-15T20:31:57Z</time>
      </trkpt>
      <trkpt lat="43.263386" lon="-2.961166">
        <ele>73.744</ele>
        <time>2019-06-15T20:32:05Z</time>
      </trkpt>
      <trkpt lat="43.263418" lon="-2.961225">
        <ele>73.598</ele>
        <time>2019-06-15T20:32:09Z</time>
      </trkpt>
      <trkpt lat="43.263393" lon="-2.961296">
        <ele>75.397</ele>
        <time>2019-06-15T20:32:13Z</time>
      </trkpt>
      <trkpt lat="43.263343" lon="-2.961323">
        <ele>77.036</ele>
        <time>2019-06-15T20:32:15Z</time>
      </trkpt>
      <trkpt lat="43.263313" lon="-2.961375">
        <ele>78.095</ele>
        <time>2019-06-15T20:32:19Z</time>
      </trkpt>
      <trkpt lat="43.263295" lon="-2.961308">
        <ele>77.446</ele>
        <time>2019-06-15T20:32:43Z</time>
      </trkpt>
      <trkpt lat="43.263320" lon="-2.961254">
        <ele>76.635</ele>
        <time>2019-06-15T20:33:02Z</time>
      </trkpt>
      <trkpt lat="43.263364" lon="-2.961265">
        <ele>75.899</ele>
        <time>2019-06-15T20:33:41Z</time>
      </trkpt>
      <trkpt lat="43.263402" lon="-2.961229">
        <ele>74.126</ele>
        <time>2019-06-15T20:35:16Z</time>
      </trkpt>
      <trkpt lat="43.263366" lon="-2.961268">
        <ele>75.747</ele>
        <time>2019-06-15T20:37:26Z</time>
      </trkpt>
      <trkpt lat="43.263373" lon="-2.961335">
        <ele>76.411</ele>
        <time>2019-06-15T20:44:25Z</time>
      </trkpt>
      <trkpt lat="43.265202" lon="-2.961146">
        <ele>26.046</ele>
        <time>2019-06-16T11:33:55Z</time>
      </trkpt>
      <trkpt lat="43.265245" lon="-2.961114">
        <ele>23.488</ele>
        <time>2019-06-16T11:35:01Z</time>
      </trkpt>
      <trkpt lat="43.265285" lon="-2.961150">
        <ele>23.216</ele>
        <time>2019-06-16T11:36:12Z</time>
      </trkpt>
      <trkpt lat="43.265262" lon="-2.961239">
        <ele>27.008</ele>
        <time>2019-06-16T11:36:51Z</time>
      </trkpt>
      <trkpt lat="43.265283" lon="-2.961315">
        <ele>29.167</ele>
        <time>2019-06-16T11:36:53Z</time>
      </trkpt>
      <trkpt lat="43.265340" lon="-2.961404">
        <ele>29.691</ele>
        <time>2019-06-16T11:36:55Z</time>
      </trkpt>
      <trkpt lat="43.265377" lon="-2.961459">
        <ele>29.481</ele>
        <time>2019-06-16T11:36:56Z</time>
      </trkpt>
      <trkpt lat="43.265427" lon="-2.961524">
        <ele>29.335</ele>
        <time>2019-06-16T11:36:57Z</time>
      </trkpt>
      <trkpt lat="43.265508" lon="-2.961615">
        <ele>29.554</ele>
        <time>2019-06-16T11:36:58Z</time>
      </trkpt>
      <trkpt lat="43.265587" lon="-2.961704">
        <ele>30.074</ele>
        <time>2019-06-16T11:36:59Z</time>
      </trkpt>
      <trkpt lat="43.265677" lon="-2.961802">
        <ele>30.490</ele>
        <time>2019-06-16T11:37:00Z</time>
      </trkpt>
      <trkpt lat="43.265777" lon="-2.961885">
        <ele>30.879</ele>
        <time>2019-06-16T11:37:01Z</time>
      </trkpt>
      <trkpt lat="43.265879" lon="-2.961973">
        <ele>31.188</ele>
        <time>2019-06-16T11:37:02Z</time>
      </trkpt>
      <trkpt lat="43.266004" lon="-2.962083">
        <ele>30.524</ele>
        <time>2019-06-16T11:37:03Z</time>
      </trkpt>
      <trkpt lat="43.266110" lon="-2.962190">
        <ele>31.626</ele>
        <time>2019-06-16T11:37:04Z</time>
      </trkpt>
      <trkpt lat="43.266231" lon="-2.962299">
        <ele>30.708</ele>
        <time>2019-06-16T11:37:05Z</time>
      </trkpt>
      <trkpt lat="43.266362" lon="-2.962423">
        <ele>30.781</ele>
        <time>2019-06-16T11:37:06Z</time>
      </trkpt>
      <trkpt lat="43.266500" lon="-2.962529">
        <ele>30.555</ele>
        <time>2019-06-16T11:37:07Z</time>
      </trkpt>
      <trkpt lat="43.266640" lon="-2.962635">
        <ele>29.855</ele>
        <time>2019-06-16T11:37:08Z</time>
      </trkpt>
      <trkpt lat="43.266781" lon="-2.962751">
        <ele>30.179</ele>
        <time>2019-06-16T11:37:09Z</time>
      </trkpt>
      <trkpt lat="43.266931" lon="-2.962877">
        <ele>29.948</ele>
        <time>2019-06-16T11:37:10Z</time>
      </trkpt>
      <trkpt lat="43.267101" lon="-2.963017">
        <ele>29.368</ele>
        <time>2019-06-16T11:37:11Z</time>
      </trkpt>
      <trkpt lat="43.267228" lon="-2.963117">
        <ele>29.284</ele>
        <time>2019-06-16T11:37:12Z</time>
      </trkpt>
      <trkpt lat="43.267382" lon="-2.963217">
        <ele>28.363</ele>
        <time>2019-06-16T11:37:13Z</time>
      </trkpt>
      <trkpt lat="43.267529" lon="-2.963323">
        <ele>29.778</ele>
        <time>2019-06-16T11:37:14Z</time>
      </trkpt>
      <trkpt lat="43.267678" lon="-2.963427">
        <ele>29.833</ele>
        <time>2019-06-16T11:37:15Z</time>
      </trkpt>
      <trkpt lat="43.267828" lon="-2.963527">
        <ele>29.726</ele>
        <time>2019-06-16T11:37:16Z</time>
      </trkpt>
      <trkpt lat="43.267975" lon="-2.963630">
        <ele>29.608</ele>
        <time>2019-06-16T11:37:17Z</time>
      </trkpt>
      <trkpt lat="43.268110" lon="-2.963729">
        <ele>29.750</ele>
        <time>2019-06-16T11:37:18Z</time>
      </trkpt>
      <trkpt lat="43.268245" lon="-2.963830">
        <ele>28.694</ele>
        <time>2019-06-16T11:37:19Z</time>
      </trkpt>
      <trkpt lat="43.268387" lon="-2.963963">
        <ele>28.274</ele>
        <time>2019-06-16T11:37:20Z</time>
      </trkpt>
      <trkpt lat="43.268530" lon="-2.964090">
        <ele>27.438</ele>
        <time>2019-06-16T11:37:21Z</time>
      </trkpt>
      <trkpt lat="43.268670" lon="-2.964220">
        <ele>26.797</ele>
        <time>2019-06-16T11:37:22Z</time>
      </trkpt>
      <trkpt lat="43.268805" lon="-2.964353">
        <ele>26.267</ele>
        <time>2019-06-16T11:37:23Z</time>
      </trkpt>
      <trkpt lat="43.268947" lon="-2.964486">
        <ele>24.363</ele>
        <time>2019-06-16T11:37:24Z</time>
      </trkpt>
      <trkpt lat="43.269084" lon="-2.964616">
        <ele>22.892</ele>
        <time>2019-06-16T11:37:25Z</time>
      </trkpt>
      <trkpt lat="43.269214" lon="-2.964741">
        <ele>22.642</ele>
        <time>2019-06-16T11:37:26Z</time>
      </trkpt>
      <trkpt lat="43.269338" lon="-2.964857">
        <ele>22.522</ele>
        <time>2019-06-16T11:37:27Z</time>
      </trkpt>
      <trkpt lat="43.269461" lon="-2.964957">
        <ele>23.214</ele>
        <time>2019-06-16T11:37:28Z</time>
      </trkpt>
      <trkpt lat="43.269606" lon="-2.965054">
        <ele>21.508</ele>
        <time>2019-06-16T11:37:29Z</time>
      </trkpt>
      <trkpt lat="43.269735" lon="-2.965161">
        <ele>21.187</ele>
        <time>2019-06-16T11:37:30Z</time>
      </trkpt>
      <trkpt lat="43.269880" lon="-2.965255">
        <ele>21.321</ele>
        <time>2019-06-16T11:37:31Z</time>
      </trkpt>
      <trkpt lat="43.270029" lon="-2.965353">
        <ele>20.941</ele>
        <time>2019-06-16T11:37:32Z</time>
      </trkpt>
      <trkpt lat="43.270164" lon="-2.965448">
        <ele>20.755</ele>
        <time>2019-06-16T11:37:33Z</time>
      </trkpt>
      <trkpt lat="43.270303" lon="-2.965546">
        <ele>21.514</ele>
        <time>2019-06-16T11:37:34Z</time>
      </trkpt>
      <trkpt lat="43.270446" lon="-2.965642">
        <ele>20.394</ele>
        <time>2019-06-16T11:37:35Z</time>
      </trkpt>
      <trkpt lat="43.270589" lon="-2.965736">
        <ele>20.260</ele>
        <time>2019-06-16T11:37:36Z</time>
      </trkpt>
      <trkpt lat="43.270736" lon="-2.965834">
        <ele>20.859</ele>
        <time>2019-06-16T11:37:37Z</time>
      </trkpt>
      <trkpt lat="43.270879" lon="-2.965922">
        <ele>19.948</ele>
        <time>2019-06-16T11:37:38Z</time>
      </trkpt>
      <trkpt lat="43.271029" lon="-2.966010">
        <ele>19.461</ele>
        <time>2019-06-16T11:37:39Z</time>
      </trkpt>
      <trkpt lat="43.271172" lon="-2.966102">
        <ele>19.817</ele>
        <time>2019-06-16T11:37:40Z</time>
      </trkpt>
      <trkpt lat="43.271312" lon="-2.966192">
        <ele>19.708</ele>
        <time>2019-06-16T11:37:41Z</time>
      </trkpt>
      <trkpt lat="43.271456" lon="-2.966278">
        <ele>19.467</ele>
        <time>2019-06-16T11:37:42Z</time>
      </trkpt>
      <trkpt lat="43.271607" lon="-2.966368">
        <ele>19.571</ele>
        <time>2019-06-16T11:37:43Z</time>
      </trkpt>
      <trkpt lat="43.271751" lon="-2.966464">
        <ele>19.441</ele>
        <time>2019-06-16T11:37:44Z</time>
      </trkpt>
      <trkpt lat="43.271887" lon="-2.966542">
        <ele>18.675</ele>
        <time>2019-06-16T11:37:45Z</time>
      </trkpt>
      <trkpt lat="43.272030" lon="-2.966630">
        <ele>18.734</ele>
        <time>2019-06-16T11:37:46Z</time>
      </trkpt>
      <trkpt lat="43.272154" lon="-2.966723">
        <ele>19.364</ele>
        <time>2019-06-16T11:37:47Z</time>
      </trkpt>
      <trkpt lat="43.272300" lon="-2.966835">
        <ele>18.540</ele>
        <time>2019-06-16T11:37:48Z</time>
      </trkpt>
      <trkpt lat="43.272435" lon="-2.966942">
        <ele>17.819</ele>
        <time>2019-06-16T11:37:49Z</time>
      </trkpt>
      <trkpt lat="43.272563" lon="-2.967056">
        <ele>17.394</ele>
        <time>2019-06-16T11:37:50Z</time>
      </trkpt>
      <trkpt lat="43.272691" lon="-2.967199">
        <ele>17.857</ele>
        <time>2019-06-16T11:37:51Z</time>
      </trkpt>
      <trkpt lat="43.272820" lon="-2.967337">
        <ele>17.022</ele>
        <time>2019-06-16T11:37:52Z</time>
      </trkpt>
      <trkpt lat="43.272970" lon="-2.967496">
        <ele>15.708</ele>
        <time>2019-06-16T11:37:53Z</time>
      </trkpt>
      <trkpt lat="43.273096" lon="-2.967650">
        <ele>15.452</ele>
        <time>2019-06-16T11:37:54Z</time>
      </trkpt>
      <trkpt lat="43.273217" lon="-2.967796">
        <ele>14.786</ele>
        <time>2019-06-16T11:37:55Z</time>
      </trkpt>
      <trkpt lat="43.273328" lon="-2.967945">
        <ele>14.466</ele>
        <time>2019-06-16T11:37:56Z</time>
      </trkpt>
      <trkpt lat="43.273453" lon="-2.968091">
        <ele>14.110</ele>
        <time>2019-06-16T11:37:57Z</time>
      </trkpt>
      <trkpt lat="43.273580" lon="-2.968230">
        <ele>13.569</ele>
        <time>2019-06-16T11:37:58Z</time>
      </trkpt>
      <trkpt lat="43.273625" lon="-2.968403">
        <ele>16.329</ele>
        <time>2019-06-16T11:37:59Z</time>
      </trkpt>
      <trkpt lat="43.273721" lon="-2.968538">
        <ele>16.715</ele>
        <time>2019-06-16T11:38:00Z</time>
      </trkpt>
      <trkpt lat="43.273825" lon="-2.968673">
        <ele>16.724</ele>
        <time>2019-06-16T11:38:01Z</time>
      </trkpt>
      <trkpt lat="43.273927" lon="-2.968789">
        <ele>16.562</ele>
        <time>2019-06-16T11:38:02Z</time>
      </trkpt>
      <trkpt lat="43.274027" lon="-2.968917">
        <ele>16.883</ele>
        <time>2019-06-16T11:38:03Z</time>
      </trkpt>
      <trkpt lat="43.274123" lon="-2.969045">
        <ele>16.911</ele>
        <time>2019-06-16T11:38:04Z</time>
      </trkpt>
      <trkpt lat="43.274233" lon="-2.969161">
        <ele>16.508</ele>
        <time>2019-06-16T11:38:05Z</time>
      </trkpt>
      <trkpt lat="43.274347" lon="-2.969264">
        <ele>16.229</ele>
        <time>2019-06-16T11:38:06Z</time>
      </trkpt>
      <trkpt lat="43.274462" lon="-2.969363">
        <ele>16.153</ele>
        <time>2019-06-16T11:38:07Z</time>
      </trkpt>
      <trkpt lat="43.274559" lon="-2.969444">
        <ele>16.313</ele>
        <time>2019-06-16T11:38:08Z</time>
      </trkpt>
      <trkpt lat="43.274664" lon="-2.969522">
        <ele>17.077</ele>
        <time>2019-06-16T11:38:09Z</time>
      </trkpt>
      <trkpt lat="43.274772" lon="-2.969581">
        <ele>17.376</ele>
        <time>2019-06-16T11:38:10Z</time>
      </trkpt>
      <trkpt lat="43.274883" lon="-2.969640">
        <ele>17.316</ele>
        <time>2019-06-16T11:38:11Z</time>
      </trkpt>
      <trkpt lat="43.275001" lon="-2.969694">
        <ele>16.552</ele>
        <time>2019-06-16T11:38:12Z</time>
      </trkpt>
      <trkpt lat="43.275124" lon="-2.969749">
        <ele>16.161</ele>
        <time>2019-06-16T11:38:13Z</time>
      </trkpt>
      <trkpt lat="43.275244" lon="-2.969806">
        <ele>16.036</ele>
        <time>2019-06-16T11:38:14Z</time>
      </trkpt>
      <trkpt lat="43.275357" lon="-2.969860">
        <ele>15.817</ele>
        <time>2019-06-16T11:38:15Z</time>
      </trkpt>
      <trkpt lat="43.275471" lon="-2.969907">
        <ele>15.318</ele>
        <time>2019-06-16T11:38:16Z</time>
      </trkpt>
      <trkpt lat="43.275567" lon="-2.969946">
        <ele>14.708</ele>
        <time>2019-06-16T11:38:17Z</time>
      </trkpt>
      <trkpt lat="43.275685" lon="-2.969987">
        <ele>13.976</ele>
        <time>2019-06-16T11:38:18Z</time>
      </trkpt>
      <trkpt lat="43.275789" lon="-2.970036">
        <ele>13.370</ele>
        <time>2019-06-16T11:38:19Z</time>
      </trkpt>
      <trkpt lat="43.275893" lon="-2.970085">
        <ele>12.750</ele>
        <time>2019-06-16T11:38:20Z</time>
      </trkpt>
      <trkpt lat="43.276001" lon="-2.970134">
        <ele>12.014</ele>
        <time>2019-06-16T11:38:21Z</time>
      </trkpt>
      <trkpt lat="43.276105" lon="-2.970182">
        <ele>11.443</ele>
        <time>2019-06-16T11:38:22Z</time>
      </trkpt>
      <trkpt lat="43.276179" lon="-2.970247">
        <ele>11.563</ele>
        <time>2019-06-16T11:38:23Z</time>
      </trkpt>
      <trkpt lat="43.276263" lon="-2.970314">
        <ele>11.079</ele>
        <time>2019-06-16T11:38:24Z</time>
      </trkpt>
      <trkpt lat="43.276300" lon="-2.970408">
        <ele>11.238</ele>
        <time>2019-06-16T11:38:25Z</time>
      </trkpt>
      <trkpt lat="43.276340" lon="-2.970506">
        <ele>11.719</ele>
        <time>2019-06-16T11:38:26Z</time>
      </trkpt>
      <trkpt lat="43.276366" lon="-2.970590">
        <ele>12.109</ele>
        <time>2019-06-16T11:38:27Z</time>
      </trkpt>
      <trkpt lat="43.276339" lon="-2.970642">
        <ele>12.219</ele>
        <time>2019-06-16T11:38:32Z</time>
      </trkpt>
      <trkpt lat="43.276283" lon="-2.970655">
        <ele>12.408</ele>
        <time>2019-06-16T11:39:01Z</time>
      </trkpt>
      <trkpt lat="43.276310" lon="-2.970738">
        <ele>12.334</ele>
        <time>2019-06-16T11:39:03Z</time>
      </trkpt>
      <trkpt lat="43.276342" lon="-2.970819">
        <ele>12.238</ele>
        <time>2019-06-16T11:39:04Z</time>
      </trkpt>
      <trkpt lat="43.276374" lon="-2.970913">
        <ele>12.188</ele>
        <time>2019-06-16T11:39:05Z</time>
      </trkpt>
      <trkpt lat="43.276411" lon="-2.971017">
        <ele>11.852</ele>
        <time>2019-06-16T11:39:06Z</time>
      </trkpt>
      <trkpt lat="43.276451" lon="-2.971123">
        <ele>11.591</ele>
        <time>2019-06-16T11:39:07Z</time>
      </trkpt>
      <trkpt lat="43.276488" lon="-2.971230">
        <ele>11.091</ele>
        <time>2019-06-16T11:39:08Z</time>
      </trkpt>
      <trkpt lat="43.276527" lon="-2.971331">
        <ele>10.677</ele>
        <time>2019-06-16T11:39:09Z</time>
      </trkpt>
      <trkpt lat="43.276558" lon="-2.971436">
        <ele>10.466</ele>
        <time>2019-06-16T11:39:10Z</time>
      </trkpt>
      <trkpt lat="43.276582" lon="-2.971531">
        <ele>10.388</ele>
        <time>2019-06-16T11:39:11Z</time>
      </trkpt>
      <trkpt lat="43.276614" lon="-2.971623">
        <ele>10.224</ele>
        <time>2019-06-16T11:39:12Z</time>
      </trkpt>
      <trkpt lat="43.276642" lon="-2.971708">
        <ele>10.026</ele>
        <time>2019-06-16T11:39:13Z</time>
      </trkpt>
      <trkpt lat="43.276666" lon="-2.971791">
        <ele>9.608</ele>
        <time>2019-06-16T11:39:14Z</time>
      </trkpt>
      <trkpt lat="43.276694" lon="-2.971887">
        <ele>9.291</ele>
        <time>2019-06-16T11:39:15Z</time>
      </trkpt>
      <trkpt lat="43.276722" lon="-2.971988">
        <ele>9.085</ele>
        <time>2019-06-16T11:39:16Z</time>
      </trkpt>
      <trkpt lat="43.276754" lon="-2.972088">
        <ele>8.895</ele>
        <time>2019-06-16T11:39:17Z</time>
      </trkpt>
      <trkpt lat="43.276779" lon="-2.972194">
        <ele>8.629</ele>
        <time>2019-06-16T11:39:18Z</time>
      </trkpt>
      <trkpt lat="43.276802" lon="-2.972299">
        <ele>8.518</ele>
        <time>2019-06-16T11:39:19Z</time>
      </trkpt>
      <trkpt lat="43.276828" lon="-2.972402">
        <ele>8.488</ele>
        <time>2019-06-16T11:39:20Z</time>
      </trkpt>
      <trkpt lat="43.276856" lon="-2.972506">
        <ele>8.334</ele>
        <time>2019-06-16T11:39:21Z</time>
      </trkpt>
      <trkpt lat="43.276884" lon="-2.972608">
        <ele>7.933</ele>
        <time>2019-06-16T11:39:22Z</time>
      </trkpt>
      <trkpt lat="43.276911" lon="-2.972711">
        <ele>7.531</ele>
        <time>2019-06-16T11:39:23Z</time>
      </trkpt>
      <trkpt lat="43.276986" lon="-2.972771">
        <ele>7.061</ele>
        <time>2019-06-16T11:39:24Z</time>
      </trkpt>
      <trkpt lat="43.277014" lon="-2.972865">
        <ele>6.907</ele>
        <time>2019-06-16T11:39:25Z</time>
      </trkpt>
      <trkpt lat="43.277044" lon="-2.972972">
        <ele>6.708</ele>
        <time>2019-06-16T11:39:26Z</time>
      </trkpt>
      <trkpt lat="43.277074" lon="-2.973080">
        <ele>6.516</ele>
        <time>2019-06-16T11:39:27Z</time>
      </trkpt>
      <trkpt lat="43.277112" lon="-2.973180">
        <ele>6.450</ele>
        <time>2019-06-16T11:39:28Z</time>
      </trkpt>
      <trkpt lat="43.277148" lon="-2.973289">
        <ele>6.320</ele>
        <time>2019-06-16T11:39:29Z</time>
      </trkpt>
      <trkpt lat="43.277178" lon="-2.973408">
        <ele>5.944</ele>
        <time>2019-06-16T11:39:30Z</time>
      </trkpt>
      <trkpt lat="43.277231" lon="-2.973532">
        <ele>5.333</ele>
        <time>2019-06-16T11:39:31Z</time>
      </trkpt>
      <trkpt lat="43.277252" lon="-2.973654">
        <ele>4.943</ele>
        <time>2019-06-16T11:39:32Z</time>
      </trkpt>
      <trkpt lat="43.277290" lon="-2.973782">
        <ele>4.929</ele>
        <time>2019-06-16T11:39:33Z</time>
      </trkpt>
      <trkpt lat="43.277320" lon="-2.973904">
        <ele>4.998</ele>
        <time>2019-06-16T11:39:34Z</time>
      </trkpt>
      <trkpt lat="43.277355" lon="-2.974032">
        <ele>4.552</ele>
        <time>2019-06-16T11:39:35Z</time>
      </trkpt>
      <trkpt lat="43.277398" lon="-2.974159">
        <ele>4.053</ele>
        <time>2019-06-16T11:39:36Z</time>
      </trkpt>
      <trkpt lat="43.277448" lon="-2.974267">
        <ele>4.108</ele>
        <time>2019-06-16T11:39:37Z</time>
      </trkpt>
      <trkpt lat="43.277485" lon="-2.974395">
        <ele>4.008</ele>
        <time>2019-06-16T11:39:38Z</time>
      </trkpt>
      <trkpt lat="43.277523" lon="-2.974520">
        <ele>4.068</ele>
        <time>2019-06-16T11:39:39Z</time>
      </trkpt>
      <trkpt lat="43.277568" lon="-2.974658">
        <ele>4.032</ele>
        <time>2019-06-16T11:39:40Z</time>
      </trkpt>
      <trkpt lat="43.277617" lon="-2.974803">
        <ele>4.092</ele>
        <time>2019-06-16T11:39:41Z</time>
      </trkpt>
      <trkpt lat="43.277657" lon="-2.974935">
        <ele>4.076</ele>
        <time>2019-06-16T11:39:42Z</time>
      </trkpt>
      <trkpt lat="43.277688" lon="-2.975058">
        <ele>4.125</ele>
        <time>2019-06-16T11:39:43Z</time>
      </trkpt>
      <trkpt lat="43.277728" lon="-2.975191">
        <ele>4.175</ele>
        <time>2019-06-16T11:39:44Z</time>
      </trkpt>
      <trkpt lat="43.277766" lon="-2.975298">
        <ele>4.091</ele>
        <time>2019-06-16T11:39:45Z</time>
      </trkpt>
      <trkpt lat="43.277817" lon="-2.975397">
        <ele>4.090</ele>
        <time>2019-06-16T11:39:46Z</time>
      </trkpt>
      <trkpt lat="43.277854" lon="-2.975485">
        <ele>4.054</ele>
        <time>2019-06-16T11:39:47Z</time>
      </trkpt>
      <trkpt lat="43.277896" lon="-2.975571">
        <ele>4.056</ele>
        <time>2019-06-16T11:39:48Z</time>
      </trkpt>
      <trkpt lat="43.277926" lon="-2.975655">
        <ele>4.011</ele>
        <time>2019-06-16T11:39:49Z</time>
      </trkpt>
      <trkpt lat="43.277947" lon="-2.975751">
        <ele>4.008</ele>
        <time>2019-06-16T11:39:50Z</time>
      </trkpt>
      <trkpt lat="43.277955" lon="-2.975857">
        <ele>4.098</ele>
        <time>2019-06-16T11:39:51Z</time>
      </trkpt>
      <trkpt lat="43.277959" lon="-2.975963">
        <ele>4.252</ele>
        <time>2019-06-16T11:39:52Z</time>
      </trkpt>
      <trkpt lat="43.277980" lon="-2.976061">
        <ele>4.212</ele>
        <time>2019-06-16T11:39:53Z</time>
      </trkpt>
      <trkpt lat="43.278005" lon="-2.976184">
        <ele>4.426</ele>
        <time>2019-06-16T11:39:54Z</time>
      </trkpt>
      <trkpt lat="43.278040" lon="-2.976320">
        <ele>4.845</ele>
        <time>2019-06-16T11:39:55Z</time>
      </trkpt>
      <trkpt lat="43.278081" lon="-2.976457">
        <ele>4.935</ele>
        <time>2019-06-16T11:39:56Z</time>
      </trkpt>
      <trkpt lat="43.278129" lon="-2.976609">
        <ele>4.791</ele>
        <time>2019-06-16T11:39:57Z</time>
      </trkpt>
      <trkpt lat="43.278167" lon="-2.976766">
        <ele>3.740</ele>
        <time>2019-06-16T11:39:58Z</time>
      </trkpt>
      <trkpt lat="43.278220" lon="-2.976938">
        <ele>2.129</ele>
        <time>2019-06-16T11:39:59Z</time>
      </trkpt>
      <trkpt lat="43.278278" lon="-2.977122">
        <ele>2.000</ele>
        <time>2019-06-16T11:40:00Z</time>
      </trkpt>
      <trkpt lat="43.278330" lon="-2.977303">
        <ele>2.320</ele>
        <time>2019-06-16T11:40:01Z</time>
      </trkpt>
      <trkpt lat="43.278386" lon="-2.977482">
        <ele>3.308</ele>
        <time>2019-06-16T11:40:02Z</time>
      </trkpt>
      <trkpt lat="43.278440" lon="-2.977650">
        <ele>5.825</ele>
        <time>2019-06-16T11:40:03Z</time>
      </trkpt>
      <trkpt lat="43.278489" lon="-2.977818">
        <ele>7.669</ele>
        <time>2019-06-16T11:40:04Z</time>
      </trkpt>
      <trkpt lat="43.278537" lon="-2.977975">
        <ele>8.049</ele>
        <time>2019-06-16T11:40:05Z</time>
      </trkpt>
      <trkpt lat="43.278586" lon="-2.978122">
        <ele>8.523</ele>
        <time>2019-06-16T11:40:06Z</time>
      </trkpt>
      <trkpt lat="43.278637" lon="-2.978261">
        <ele>9.252</ele>
        <time>2019-06-16T11:40:07Z</time>
      </trkpt>
      <trkpt lat="43.278692" lon="-2.978402">
        <ele>9.522</ele>
        <time>2019-06-16T11:40:08Z</time>
      </trkpt>
      <trkpt lat="43.278790" lon="-2.978530">
        <ele>10.368</ele>
        <time>2019-06-16T11:40:09Z</time>
      </trkpt>
      <trkpt lat="43.278879" lon="-2.978632">
        <ele>12.147</ele>
        <time>2019-06-16T11:40:10Z</time>
      </trkpt>
      <trkpt lat="43.278994" lon="-2.978707">
        <ele>12.917</ele>
        <time>2019-06-16T11:40:11Z</time>
      </trkpt>
      <trkpt lat="43.279118" lon="-2.978769">
        <ele>13.587</ele>
        <time>2019-06-16T11:40:12Z</time>
      </trkpt>
      <trkpt lat="43.279232" lon="-2.978827">
        <ele>14.015</ele>
        <time>2019-06-16T11:40:13Z</time>
      </trkpt>
      <trkpt lat="43.279345" lon="-2.978874">
        <ele>14.608</ele>
        <time>2019-06-16T11:40:14Z</time>
      </trkpt>
      <trkpt lat="43.279445" lon="-2.978920">
        <ele>15.224</ele>
        <time>2019-06-16T11:40:15Z</time>
      </trkpt>
      <trkpt lat="43.279542" lon="-2.978965">
        <ele>16.368</ele>
        <time>2019-06-16T11:40:16Z</time>
      </trkpt>
      <trkpt lat="43.279646" lon="-2.979008">
        <ele>17.638</ele>
        <time>2019-06-16T11:40:17Z</time>
      </trkpt>
      <trkpt lat="43.279751" lon="-2.979056">
        <ele>18.972</ele>
        <time>2019-06-16T11:40:18Z</time>
      </trkpt>
      <trkpt lat="43.279841" lon="-2.979100">
        <ele>19.541</ele>
        <time>2019-06-16T11:40:19Z</time>
      </trkpt>
      <trkpt lat="43.279921" lon="-2.979135">
        <ele>19.811</ele>
        <time>2019-06-16T11:40:20Z</time>
      </trkpt>
      <trkpt lat="43.279996" lon="-2.979166">
        <ele>20.017</ele>
        <time>2019-06-16T11:40:21Z</time>
      </trkpt>
      <trkpt lat="43.280079" lon="-2.979197">
        <ele>20.376</ele>
        <time>2019-06-16T11:40:22Z</time>
      </trkpt>
      <trkpt lat="43.280159" lon="-2.979239">
        <ele>20.897</ele>
        <time>2019-06-16T11:40:23Z</time>
      </trkpt>
      <trkpt lat="43.280222" lon="-2.979263">
        <ele>21.023</ele>
        <time>2019-06-16T11:40:24Z</time>
      </trkpt>
      <trkpt lat="43.280299" lon="-2.979307">
        <ele>21.525</ele>
        <time>2019-06-16T11:40:26Z</time>
      </trkpt>
      <trkpt lat="43.280365" lon="-2.979332">
        <ele>21.808</ele>
        <time>2019-06-16T11:40:27Z</time>
      </trkpt>
      <trkpt lat="43.280447" lon="-2.979367">
        <ele>22.262</ele>
        <time>2019-06-16T11:40:28Z</time>
      </trkpt>
      <trkpt lat="43.280524" lon="-2.979399">
        <ele>22.566</ele>
        <time>2019-06-16T11:40:29Z</time>
      </trkpt>
      <trkpt lat="43.280603" lon="-2.979438">
        <ele>23.136</ele>
        <time>2019-06-16T11:40:30Z</time>
      </trkpt>
      <trkpt lat="43.280692" lon="-2.979484">
        <ele>23.860</ele>
        <time>2019-06-16T11:40:31Z</time>
      </trkpt>
      <trkpt lat="43.280812" lon="-2.979516">
        <ele>24.599</ele>
        <time>2019-06-16T11:40:32Z</time>
      </trkpt>
      <trkpt lat="43.280938" lon="-2.979560">
        <ele>24.819</ele>
        <time>2019-06-16T11:40:33Z</time>
      </trkpt>
      <trkpt lat="43.281045" lon="-2.979606">
        <ele>25.245</ele>
        <time>2019-06-16T11:40:34Z</time>
      </trkpt>
      <trkpt lat="43.281175" lon="-2.979630">
        <ele>25.544</ele>
        <time>2019-06-16T11:40:35Z</time>
      </trkpt>
      <trkpt lat="43.281316" lon="-2.979676">
        <ele>26.312</ele>
        <time>2019-06-16T11:40:36Z</time>
      </trkpt>
      <trkpt lat="43.281429" lon="-2.979712">
        <ele>26.932</ele>
        <time>2019-06-16T11:40:37Z</time>
      </trkpt>
      <trkpt lat="43.281546" lon="-2.979747">
        <ele>27.105</ele>
        <time>2019-06-16T11:40:38Z</time>
      </trkpt>
      <trkpt lat="43.281658" lon="-2.979768">
        <ele>27.308</ele>
        <time>2019-06-16T11:40:39Z</time>
      </trkpt>
      <trkpt lat="43.281748" lon="-2.979781">
        <ele>27.964</ele>
        <time>2019-06-16T11:40:40Z</time>
      </trkpt>
      <trkpt lat="43.281852" lon="-2.979790">
        <ele>28.588</ele>
        <time>2019-06-16T11:40:41Z</time>
      </trkpt>
      <trkpt lat="43.281940" lon="-2.979805">
        <ele>29.018</ele>
        <time>2019-06-16T11:40:42Z</time>
      </trkpt>
      <trkpt lat="43.282042" lon="-2.979826">
        <ele>29.662</ele>
        <time>2019-06-16T11:40:43Z</time>
      </trkpt>
      <trkpt lat="43.282146" lon="-2.979852">
        <ele>30.111</ele>
        <time>2019-06-16T11:40:44Z</time>
      </trkpt>
      <trkpt lat="43.282251" lon="-2.979868">
        <ele>30.531</ele>
        <time>2019-06-16T11:40:45Z</time>
      </trkpt>
      <trkpt lat="43.282338" lon="-2.979881">
        <ele>30.657</ele>
        <time>2019-06-16T11:40:46Z</time>
      </trkpt>
      <trkpt lat="43.282424" lon="-2.979899">
        <ele>30.616</ele>
        <time>2019-06-16T11:40:47Z</time>
      </trkpt>
      <trkpt lat="43.282494" lon="-2.979911">
        <ele>30.632</ele>
        <time>2019-06-16T11:40:48Z</time>
      </trkpt>
      <trkpt lat="43.282555" lon="-2.979922">
        <ele>31.192</ele>
        <time>2019-06-16T11:40:49Z</time>
      </trkpt>
      <trkpt lat="43.282614" lon="-2.979932">
        <ele>31.711</ele>
        <time>2019-06-16T11:40:50Z</time>
      </trkpt>
      <trkpt lat="43.282668" lon="-2.979946">
        <ele>32.508</ele>
        <time>2019-06-16T11:40:51Z</time>
      </trkpt>
      <trkpt lat="43.282738" lon="-2.979964">
        <ele>33.726</ele>
        <time>2019-06-16T11:40:53Z</time>
      </trkpt>
      <trkpt lat="43.282791" lon="-2.979980">
        <ele>34.630</ele>
        <time>2019-06-16T11:40:54Z</time>
      </trkpt>
      <trkpt lat="43.282908" lon="-2.980031">
        <ele>35.550</ele>
        <time>2019-06-16T11:40:56Z</time>
      </trkpt>
      <trkpt lat="43.282985" lon="-2.980062">
        <ele>35.884</ele>
        <time>2019-06-16T11:40:57Z</time>
      </trkpt>
      <trkpt lat="43.283102" lon="-2.980110">
        <ele>36.223</ele>
        <time>2019-06-16T11:40:58Z</time>
      </trkpt>
      <trkpt lat="43.283209" lon="-2.980166">
        <ele>36.693</ele>
        <time>2019-06-16T11:40:59Z</time>
      </trkpt>
      <trkpt lat="43.283305" lon="-2.980226">
        <ele>36.969</ele>
        <time>2019-06-16T11:41:00Z</time>
      </trkpt>
      <trkpt lat="43.283410" lon="-2.980318">
        <ele>37.748</ele>
        <time>2019-06-16T11:41:01Z</time>
      </trkpt>
      <trkpt lat="43.283542" lon="-2.980401">
        <ele>38.534</ele>
        <time>2019-06-16T11:41:02Z</time>
      </trkpt>
      <trkpt lat="43.283649" lon="-2.980482">
        <ele>38.955</ele>
        <time>2019-06-16T11:41:03Z</time>
      </trkpt>
      <trkpt lat="43.283765" lon="-2.980564">
        <ele>39.710</ele>
        <time>2019-06-16T11:41:04Z</time>
      </trkpt>
      <trkpt lat="43.283898" lon="-2.980627">
        <ele>41.108</ele>
        <time>2019-06-16T11:41:05Z</time>
      </trkpt>
      <trkpt lat="43.284013" lon="-2.980704">
        <ele>43.266</ele>
        <time>2019-06-16T11:41:06Z</time>
      </trkpt>
      <trkpt lat="43.284127" lon="-2.980783">
        <ele>44.680</ele>
        <time>2019-06-16T11:41:07Z</time>
      </trkpt>
      <trkpt lat="43.285059" lon="-2.981587">
        <ele>42.170</ele>
        <time>2019-06-16T11:41:15Z</time>
      </trkpt>
      <trkpt lat="43.285209" lon="-2.981718">
        <ele>41.354</ele>
        <time>2019-06-16T11:41:17Z</time>
      </trkpt>
      <trkpt lat="43.285325" lon="-2.981863">
        <ele>41.183</ele>
        <time>2019-06-16T11:41:18Z</time>
      </trkpt>
      <trkpt lat="43.285450" lon="-2.982049">
        <ele>41.253</ele>
        <time>2019-06-16T11:41:19Z</time>
      </trkpt>
      <trkpt lat="43.285546" lon="-2.982207">
        <ele>40.249</ele>
        <time>2019-06-16T11:41:20Z</time>
      </trkpt>
      <trkpt lat="43.285654" lon="-2.982393">
        <ele>41.428</ele>
        <time>2019-06-16T11:41:21Z</time>
      </trkpt>
      <trkpt lat="43.285736" lon="-2.982574">
        <ele>41.146</ele>
        <time>2019-06-16T11:41:22Z</time>
      </trkpt>
      <trkpt lat="43.285807" lon="-2.982749">
        <ele>39.688</ele>
        <time>2019-06-16T11:41:23Z</time>
      </trkpt>
      <trkpt lat="43.285882" lon="-2.982956">
        <ele>38.816</ele>
        <time>2019-06-16T11:41:24Z</time>
      </trkpt>
      <trkpt lat="43.285943" lon="-2.983158">
        <ele>38.508</ele>
        <time>2019-06-16T11:41:25Z</time>
      </trkpt>
      <trkpt lat="43.285988" lon="-2.983352">
        <ele>37.937</ele>
        <time>2019-06-16T11:41:26Z</time>
      </trkpt>
      <trkpt lat="43.286026" lon="-2.983570">
        <ele>36.891</ele>
        <time>2019-06-16T11:41:27Z</time>
      </trkpt>
      <trkpt lat="43.286052" lon="-2.983777">
        <ele>35.551</ele>
        <time>2019-06-16T11:41:28Z</time>
      </trkpt>
      <trkpt lat="43.286061" lon="-2.983986">
        <ele>34.415</ele>
        <time>2019-06-16T11:41:29Z</time>
      </trkpt>
      <trkpt lat="43.286061" lon="-2.984190">
        <ele>33.724</ele>
        <time>2019-06-16T11:41:30Z</time>
      </trkpt>
      <trkpt lat="43.286052" lon="-2.984419">
        <ele>33.534</ele>
        <time>2019-06-16T11:41:31Z</time>
      </trkpt>
      <trkpt lat="43.286021" lon="-2.984681">
        <ele>32.570</ele>
        <time>2019-06-16T11:41:32Z</time>
      </trkpt>
      <trkpt lat="43.285993" lon="-2.984942">
        <ele>31.339</ele>
        <time>2019-06-16T11:41:33Z</time>
      </trkpt>
      <trkpt lat="43.285947" lon="-2.985152">
        <ele>30.622</ele>
        <time>2019-06-16T11:41:34Z</time>
      </trkpt>
      <trkpt lat="43.285884" lon="-2.985422">
        <ele>31.062</ele>
        <time>2019-06-16T11:41:35Z</time>
      </trkpt>
      <trkpt lat="43.285808" lon="-2.985689">
        <ele>32.108</ele>
        <time>2019-06-16T11:41:36Z</time>
      </trkpt>
      <trkpt lat="43.285720" lon="-2.985948">
        <ele>29.108</ele>
        <time>2019-06-16T11:41:37Z</time>
      </trkpt>
      <trkpt lat="43.285625" lon="-2.986205">
        <ele>26.495</ele>
        <time>2019-06-16T11:41:38Z</time>
      </trkpt>
      <trkpt lat="43.285522" lon="-2.986459">
        <ele>26.459</ele>
        <time>2019-06-16T11:41:39Z</time>
      </trkpt>
      <trkpt lat="43.285419" lon="-2.986714">
        <ele>28.259</ele>
        <time>2019-06-16T11:41:40Z</time>
      </trkpt>
      <trkpt lat="43.285324" lon="-2.986959">
        <ele>31.853</ele>
        <time>2019-06-16T11:41:41Z</time>
      </trkpt>
      <trkpt lat="43.285231" lon="-2.987197">
        <ele>31.872</ele>
        <time>2019-06-16T11:41:42Z</time>
      </trkpt>
      <trkpt lat="43.285141" lon="-2.987433">
        <ele>30.752</ele>
        <time>2019-06-16T11:41:43Z</time>
      </trkpt>
      <trkpt lat="43.285055" lon="-2.987662">
        <ele>29.348</ele>
        <time>2019-06-16T11:41:44Z</time>
      </trkpt>
      <trkpt lat="43.284970" lon="-2.987882">
        <ele>26.567</ele>
        <time>2019-06-16T11:41:45Z</time>
      </trkpt>
      <trkpt lat="43.284890" lon="-2.988084">
        <ele>24.178</ele>
        <time>2019-06-16T11:41:46Z</time>
      </trkpt>
      <trkpt lat="43.284809" lon="-2.988283">
        <ele>23.433</ele>
        <time>2019-06-16T11:41:47Z</time>
      </trkpt>
      <trkpt lat="43.284735" lon="-2.988452">
        <ele>24.326</ele>
        <time>2019-06-16T11:41:48Z</time>
      </trkpt>
      <trkpt lat="43.284672" lon="-2.988618">
        <ele>25.508</ele>
        <time>2019-06-16T11:41:49Z</time>
      </trkpt>
      <trkpt lat="43.284620" lon="-2.988716">
        <ele>25.680</ele>
        <time>2019-06-16T11:41:50Z</time>
      </trkpt>
      <trkpt lat="43.284551" lon="-2.988868">
        <ele>25.414</ele>
        <time>2019-06-16T11:41:51Z</time>
      </trkpt>
      <trkpt lat="43.284492" lon="-2.989027">
        <ele>25.214</ele>
        <time>2019-06-16T11:41:52Z</time>
      </trkpt>
      <trkpt lat="43.284431" lon="-2.989186">
        <ele>24.928</ele>
        <time>2019-06-16T11:41:53Z</time>
      </trkpt>
      <trkpt lat="43.284371" lon="-2.989334">
        <ele>23.897</ele>
        <time>2019-06-16T11:41:54Z</time>
      </trkpt>
      <trkpt lat="43.284311" lon="-2.989478">
        <ele>22.867</ele>
        <time>2019-06-16T11:41:55Z</time>
      </trkpt>
      <trkpt lat="43.284255" lon="-2.989594">
        <ele>22.113</ele>
        <time>2019-06-16T11:41:56Z</time>
      </trkpt>
      <trkpt lat="43.284200" lon="-2.989736">
        <ele>21.762</ele>
        <time>2019-06-16T11:41:57Z</time>
      </trkpt>
      <trkpt lat="43.284145" lon="-2.989872">
        <ele>21.546</ele>
        <time>2019-06-16T11:41:58Z</time>
      </trkpt>
      <trkpt lat="43.284095" lon="-2.989986">
        <ele>21.188</ele>
        <time>2019-06-16T11:41:59Z</time>
      </trkpt>
      <trkpt lat="43.284059" lon="-2.990093">
        <ele>20.716</ele>
        <time>2019-06-16T11:42:00Z</time>
      </trkpt>
      <trkpt lat="43.284023" lon="-2.990180">
        <ele>20.408</ele>
        <time>2019-06-16T11:42:01Z</time>
      </trkpt>
      <trkpt lat="43.283992" lon="-2.990263">
        <ele>20.117</ele>
        <time>2019-06-16T11:42:02Z</time>
      </trkpt>
      <trkpt lat="43.283955" lon="-2.990332">
        <ele>19.831</ele>
        <time>2019-06-16T11:42:03Z</time>
      </trkpt>
      <trkpt lat="43.283926" lon="-2.990397">
        <ele>19.511</ele>
        <time>2019-06-16T11:42:04Z</time>
      </trkpt>
      <trkpt lat="43.283903" lon="-2.990459">
        <ele>19.325</ele>
        <time>2019-06-16T11:42:05Z</time>
      </trkpt>
      <trkpt lat="43.283886" lon="-2.990516">
        <ele>19.274</ele>
        <time>2019-06-16T11:42:06Z</time>
      </trkpt>
      <trkpt lat="43.283849" lon="-2.990564">
        <ele>19.154</ele>
        <time>2019-06-16T11:42:25Z</time>
      </trkpt>
      <trkpt lat="43.283829" lon="-2.990656">
        <ele>18.960</ele>
        <time>2019-06-16T11:42:26Z</time>
      </trkpt>
      <trkpt lat="43.283789" lon="-2.990741">
        <ele>18.779</ele>
        <time>2019-06-16T11:42:27Z</time>
      </trkpt>
      <trkpt lat="43.283745" lon="-2.990855">
        <ele>18.418</ele>
        <time>2019-06-16T11:42:28Z</time>
      </trkpt>
      <trkpt lat="43.283700" lon="-2.990988">
        <ele>18.198</ele>
        <time>2019-06-16T11:42:29Z</time>
      </trkpt>
      <trkpt lat="43.283644" lon="-2.991139">
        <ele>17.817</ele>
        <time>2019-06-16T11:42:30Z</time>
      </trkpt>
      <trkpt lat="43.283586" lon="-2.991294">
        <ele>17.408</ele>
        <time>2019-06-16T11:42:31Z</time>
      </trkpt>
      <trkpt lat="43.283523" lon="-2.991465">
        <ele>17.074</ele>
        <time>2019-06-16T11:42:32Z</time>
      </trkpt>
      <trkpt lat="43.283454" lon="-2.991638">
        <ele>16.738</ele>
        <time>2019-06-16T11:42:33Z</time>
      </trkpt>
      <trkpt lat="43.283394" lon="-2.991832">
        <ele>15.658</ele>
        <time>2019-06-16T11:42:34Z</time>
      </trkpt>
      <trkpt lat="43.283322" lon="-2.992023">
        <ele>14.782</ele>
        <time>2019-06-16T11:42:35Z</time>
      </trkpt>
      <trkpt lat="43.283262" lon="-2.992211">
        <ele>14.181</ele>
        <time>2019-06-16T11:42:36Z</time>
      </trkpt>
      <trkpt lat="43.283187" lon="-2.992399">
        <ele>13.791</ele>
        <time>2019-06-16T11:42:37Z</time>
      </trkpt>
      <trkpt lat="43.283113" lon="-2.992580">
        <ele>13.347</ele>
        <time>2019-06-16T11:42:38Z</time>
      </trkpt>
      <trkpt lat="43.283050" lon="-2.992753">
        <ele>12.246</ele>
        <time>2019-06-16T11:42:39Z</time>
      </trkpt>
      <trkpt lat="43.282982" lon="-2.992928">
        <ele>12.113</ele>
        <time>2019-06-16T11:42:40Z</time>
      </trkpt>
      <trkpt lat="43.282935" lon="-2.993080">
        <ele>11.943</ele>
        <time>2019-06-16T11:42:41Z</time>
      </trkpt>
      <trkpt lat="43.282893" lon="-2.993237">
        <ele>11.107</ele>
        <time>2019-06-16T11:42:42Z</time>
      </trkpt>
      <trkpt lat="43.282860" lon="-2.993396">
        <ele>10.608</ele>
        <time>2019-06-16T11:42:43Z</time>
      </trkpt>
      <trkpt lat="43.282861" lon="-2.993549">
        <ele>10.294</ele>
        <time>2019-06-16T11:42:44Z</time>
      </trkpt>
      <trkpt lat="43.282865" lon="-2.993698">
        <ele>10.158</ele>
        <time>2019-06-16T11:42:45Z</time>
      </trkpt>
      <trkpt lat="43.282897" lon="-2.993869">
        <ele>9.758</ele>
        <time>2019-06-16T11:42:46Z</time>
      </trkpt>
      <trkpt lat="43.282923" lon="-2.994036">
        <ele>9.522</ele>
        <time>2019-06-16T11:42:47Z</time>
      </trkpt>
      <trkpt lat="43.282969" lon="-2.994214">
        <ele>9.371</ele>
        <time>2019-06-16T11:42:48Z</time>
      </trkpt>
      <trkpt lat="43.283008" lon="-2.994385">
        <ele>9.021</ele>
        <time>2019-06-16T11:42:49Z</time>
      </trkpt>
      <trkpt lat="43.283043" lon="-2.994546">
        <ele>8.627</ele>
        <time>2019-06-16T11:42:50Z</time>
      </trkpt>
      <trkpt lat="43.283075" lon="-2.994714">
        <ele>8.026</ele>
        <time>2019-06-16T11:42:51Z</time>
      </trkpt>
      <trkpt lat="43.283115" lon="-2.994878">
        <ele>7.812</ele>
        <time>2019-06-16T11:42:52Z</time>
      </trkpt>
      <trkpt lat="43.283157" lon="-2.995036">
        <ele>7.532</ele>
        <time>2019-06-16T11:42:53Z</time>
      </trkpt>
      <trkpt lat="43.283199" lon="-2.995188">
        <ele>6.805</ele>
        <time>2019-06-16T11:42:54Z</time>
      </trkpt>
      <trkpt lat="43.283263" lon="-2.995370">
        <ele>6.208</ele>
        <time>2019-06-16T11:42:55Z</time>
      </trkpt>
      <trkpt lat="43.283314" lon="-2.995530">
        <ele>6.074</ele>
        <time>2019-06-16T11:42:56Z</time>
      </trkpt>
      <trkpt lat="43.283341" lon="-2.995699">
        <ele>6.048</ele>
        <time>2019-06-16T11:42:57Z</time>
      </trkpt>
      <trkpt lat="43.283361" lon="-2.995866">
        <ele>6.038</ele>
        <time>2019-06-16T11:42:58Z</time>
      </trkpt>
      <trkpt lat="43.283379" lon="-2.996034">
        <ele>5.932</ele>
        <time>2019-06-16T11:42:59Z</time>
      </trkpt>
      <trkpt lat="43.283403" lon="-2.996198">
        <ele>5.721</ele>
        <time>2019-06-16T11:43:00Z</time>
      </trkpt>
      <trkpt lat="43.283427" lon="-2.996353">
        <ele>5.771</ele>
        <time>2019-06-16T11:43:01Z</time>
      </trkpt>
      <trkpt lat="43.283451" lon="-2.996499">
        <ele>5.677</ele>
        <time>2019-06-16T11:43:02Z</time>
      </trkpt>
      <trkpt lat="43.283482" lon="-2.996638">
        <ele>5.576</ele>
        <time>2019-06-16T11:43:03Z</time>
      </trkpt>
      <trkpt lat="43.283407" lon="-2.996763">
        <ele>5.715</ele>
        <time>2019-06-16T11:43:04Z</time>
      </trkpt>
      <trkpt lat="43.283423" lon="-2.996920">
        <ele>5.765</ele>
        <time>2019-06-16T11:43:05Z</time>
      </trkpt>
      <trkpt lat="43.283444" lon="-2.997063">
        <ele>5.611</ele>
        <time>2019-06-16T11:43:06Z</time>
      </trkpt>
      <trkpt lat="43.283484" lon="-2.997172">
        <ele>5.508</ele>
        <time>2019-06-16T11:43:07Z</time>
      </trkpt>
      <trkpt lat="43.283513" lon="-2.997300">
        <ele>5.454</ele>
        <time>2019-06-16T11:43:08Z</time>
      </trkpt>
      <trkpt lat="43.283550" lon="-2.997416">
        <ele>5.218</ele>
        <time>2019-06-16T11:43:09Z</time>
      </trkpt>
      <trkpt lat="43.283585" lon="-2.997547">
        <ele>5.118</ele>
        <time>2019-06-16T11:43:10Z</time>
      </trkpt>
      <trkpt lat="43.283633" lon="-2.997661">
        <ele>5.072</ele>
        <time>2019-06-16T11:43:11Z</time>
      </trkpt>
      <trkpt lat="43.283672" lon="-2.997767">
        <ele>5.041</ele>
        <time>2019-06-16T11:43:12Z</time>
      </trkpt>
      <trkpt lat="43.283738" lon="-2.997883">
        <ele>5.021</ele>
        <time>2019-06-16T11:43:13Z</time>
      </trkpt>
      <trkpt lat="43.283805" lon="-2.997997">
        <ele>5.087</ele>
        <time>2019-06-16T11:43:14Z</time>
      </trkpt>
      <trkpt lat="43.283846" lon="-2.998098">
        <ele>4.716</ele>
        <time>2019-06-16T11:43:15Z</time>
      </trkpt>
      <trkpt lat="43.283915" lon="-2.998215">
        <ele>3.978</ele>
        <time>2019-06-16T11:43:16Z</time>
      </trkpt>
      <trkpt lat="43.283977" lon="-2.998335">
        <ele>3.333</ele>
        <time>2019-06-16T11:43:17Z</time>
      </trkpt>
      <trkpt lat="43.284028" lon="-2.998466">
        <ele>4.226</ele>
        <time>2019-06-16T11:43:18Z</time>
      </trkpt>
      <trkpt lat="43.284086" lon="-2.998599">
        <ele>4.908</ele>
        <time>2019-06-16T11:43:19Z</time>
      </trkpt>
      <trkpt lat="43.284136" lon="-2.998722">
        <ele>5.030</ele>
        <time>2019-06-16T11:43:20Z</time>
      </trkpt>
      <trkpt lat="43.284180" lon="-2.998837">
        <ele>5.054</ele>
        <time>2019-06-16T11:43:21Z</time>
      </trkpt>
      <trkpt lat="43.284231" lon="-2.998950">
        <ele>4.874</ele>
        <time>2019-06-16T11:43:22Z</time>
      </trkpt>
      <trkpt lat="43.284281" lon="-2.999071">
        <ele>4.938</ele>
        <time>2019-06-16T11:43:23Z</time>
      </trkpt>
      <trkpt lat="43.284324" lon="-2.999169">
        <ele>5.027</ele>
        <time>2019-06-16T11:43:24Z</time>
      </trkpt>
      <trkpt lat="43.284368" lon="-2.999259">
        <ele>5.117</ele>
        <time>2019-06-16T11:43:25Z</time>
      </trkpt>
      <trkpt lat="43.284402" lon="-2.999338">
        <ele>5.183</ele>
        <time>2019-06-16T11:43:26Z</time>
      </trkpt>
      <trkpt lat="43.284434" lon="-2.999407">
        <ele>5.012</ele>
        <time>2019-06-16T11:43:27Z</time>
      </trkpt>
      <trkpt lat="43.284462" lon="-2.999470">
        <ele>5.056</ele>
        <time>2019-06-16T11:43:28Z</time>
      </trkpt>
      <trkpt lat="43.284493" lon="-2.999552">
        <ele>4.959</ele>
        <time>2019-06-16T11:43:29Z</time>
      </trkpt>
      <trkpt lat="43.284515" lon="-2.999622">
        <ele>4.814</ele>
        <time>2019-06-16T11:43:31Z</time>
      </trkpt>
      <trkpt lat="43.284537" lon="-2.999676">
        <ele>4.708</ele>
        <time>2019-06-16T11:43:32Z</time>
      </trkpt>
      <trkpt lat="43.284577" lon="-2.999742">
        <ele>4.678</ele>
        <time>2019-06-16T11:43:34Z</time>
      </trkpt>
      <trkpt lat="43.284613" lon="-2.999812">
        <ele>4.572</ele>
        <time>2019-06-16T11:43:37Z</time>
      </trkpt>
      <trkpt lat="43.284658" lon="-2.999919">
        <ele>4.492</ele>
        <time>2019-06-16T11:43:39Z</time>
      </trkpt>
      <trkpt lat="43.284688" lon="-2.999978">
        <ele>4.266</ele>
        <time>2019-06-16T11:43:40Z</time>
      </trkpt>
      <trkpt lat="43.284715" lon="-3.000045">
        <ele>4.185</ele>
        <time>2019-06-16T11:43:41Z</time>
      </trkpt>
      <trkpt lat="43.284749" lon="-3.000121">
        <ele>4.155</ele>
        <time>2019-06-16T11:43:42Z</time>
      </trkpt>
      <trkpt lat="43.284784" lon="-3.000198">
        <ele>4.221</ele>
        <time>2019-06-16T11:43:43Z</time>
      </trkpt>
      <trkpt lat="43.284823" lon="-3.000278">
        <ele>4.420</ele>
        <time>2019-06-16T11:43:44Z</time>
      </trkpt>
      <trkpt lat="43.284864" lon="-3.000377">
        <ele>4.383</ele>
        <time>2019-06-16T11:43:45Z</time>
      </trkpt>
      <trkpt lat="43.284908" lon="-3.000477">
        <ele>4.225</ele>
        <time>2019-06-16T11:43:46Z</time>
      </trkpt>
      <trkpt lat="43.284956" lon="-3.000587">
        <ele>4.017</ele>
        <time>2019-06-16T11:43:47Z</time>
      </trkpt>
      <trkpt lat="43.285008" lon="-3.000701">
        <ele>4.008</ele>
        <time>2019-06-16T11:43:48Z</time>
      </trkpt>
      <trkpt lat="43.285054" lon="-3.000823">
        <ele>4.031</ele>
        <time>2019-06-16T11:43:49Z</time>
      </trkpt>
      <trkpt lat="43.285109" lon="-3.000977">
        <ele>4.355</ele>
        <time>2019-06-16T11:43:50Z</time>
      </trkpt>
      <trkpt lat="43.285177" lon="-3.001149">
        <ele>4.415</ele>
        <time>2019-06-16T11:43:51Z</time>
      </trkpt>
      <trkpt lat="43.285251" lon="-3.001330">
        <ele>4.169</ele>
        <time>2019-06-16T11:43:52Z</time>
      </trkpt>
      <trkpt lat="43.285331" lon="-3.001508">
        <ele>4.388</ele>
        <time>2019-06-16T11:43:53Z</time>
      </trkpt>
      <trkpt lat="43.285411" lon="-3.001682">
        <ele>4.558</ele>
        <time>2019-06-16T11:43:54Z</time>
      </trkpt>
      <trkpt lat="43.285491" lon="-3.001846">
        <ele>4.254</ele>
        <time>2019-06-16T11:43:55Z</time>
      </trkpt>
      <trkpt lat="43.285565" lon="-3.002007">
        <ele>4.363</ele>
        <time>2019-06-16T11:43:56Z</time>
      </trkpt>
      <trkpt lat="43.285638" lon="-3.002160">
        <ele>4.816</ele>
        <time>2019-06-16T11:43:57Z</time>
      </trkpt>
      <trkpt lat="43.285704" lon="-3.002311">
        <ele>4.876</ele>
        <time>2019-06-16T11:43:58Z</time>
      </trkpt>
      <trkpt lat="43.285763" lon="-3.002460">
        <ele>4.413</ele>
        <time>2019-06-16T11:43:59Z</time>
      </trkpt>
      <trkpt lat="43.285835" lon="-3.002599">
        <ele>4.408</ele>
        <time>2019-06-16T11:44:00Z</time>
      </trkpt>
      <trkpt lat="43.285899" lon="-3.002725">
        <ele>4.934</ele>
        <time>2019-06-16T11:44:01Z</time>
      </trkpt>
      <trkpt lat="43.285949" lon="-3.002856">
        <ele>4.918</ele>
        <time>2019-06-16T11:44:02Z</time>
      </trkpt>
      <trkpt lat="43.286014" lon="-3.002970">
        <ele>4.548</ele>
        <time>2019-06-16T11:44:03Z</time>
      </trkpt>
      <trkpt lat="43.286063" lon="-3.003075">
        <ele>4.232</ele>
        <time>2019-06-16T11:44:04Z</time>
      </trkpt>
      <trkpt lat="43.286106" lon="-3.003184">
        <ele>4.571</ele>
        <time>2019-06-16T11:44:05Z</time>
      </trkpt>
      <trkpt lat="43.286158" lon="-3.003274">
        <ele>4.871</ele>
        <time>2019-06-16T11:44:06Z</time>
      </trkpt>
      <trkpt lat="43.286215" lon="-3.003359">
        <ele>5.057</ele>
        <time>2019-06-16T11:44:07Z</time>
      </trkpt>
      <trkpt lat="43.286279" lon="-3.003439">
        <ele>5.046</ele>
        <time>2019-06-16T11:44:08Z</time>
      </trkpt>
      <trkpt lat="43.286329" lon="-3.003554">
        <ele>5.012</ele>
        <time>2019-06-16T11:44:09Z</time>
      </trkpt>
      <trkpt lat="43.286371" lon="-3.003682">
        <ele>5.032</ele>
        <time>2019-06-16T11:44:10Z</time>
      </trkpt>
      <trkpt lat="43.286412" lon="-3.003810">
        <ele>4.905</ele>
        <time>2019-06-16T11:44:11Z</time>
      </trkpt>
      <trkpt lat="43.286464" lon="-3.003922">
        <ele>4.708</ele>
        <time>2019-06-16T11:44:12Z</time>
      </trkpt>
      <trkpt lat="43.286520" lon="-3.004044">
        <ele>4.534</ele>
        <time>2019-06-16T11:44:13Z</time>
      </trkpt>
      <trkpt lat="43.286576" lon="-3.004150">
        <ele>4.388</ele>
        <time>2019-06-16T11:44:14Z</time>
      </trkpt>
      <trkpt lat="43.286636" lon="-3.004297">
        <ele>4.648</ele>
        <time>2019-06-16T11:44:15Z</time>
      </trkpt>
      <trkpt lat="43.286694" lon="-3.004442">
        <ele>5.012</ele>
        <time>2019-06-16T11:44:16Z</time>
      </trkpt>
      <trkpt lat="43.286764" lon="-3.004589">
        <ele>5.011</ele>
        <time>2019-06-16T11:44:17Z</time>
      </trkpt>
      <trkpt lat="43.286829" lon="-3.004735">
        <ele>5.081</ele>
        <time>2019-06-16T11:44:18Z</time>
      </trkpt>
      <trkpt lat="43.286900" lon="-3.004875">
        <ele>5.077</ele>
        <time>2019-06-16T11:44:19Z</time>
      </trkpt>
      <trkpt lat="43.286962" lon="-3.005005">
        <ele>4.966</ele>
        <time>2019-06-16T11:44:20Z</time>
      </trkpt>
      <trkpt lat="43.287021" lon="-3.005132">
        <ele>4.949</ele>
        <time>2019-06-16T11:44:21Z</time>
      </trkpt>
      <trkpt lat="43.287093" lon="-3.005223">
        <ele>4.902</ele>
        <time>2019-06-16T11:44:22Z</time>
      </trkpt>
      <trkpt lat="43.287174" lon="-3.005320">
        <ele>5.022</ele>
        <time>2019-06-16T11:44:23Z</time>
      </trkpt>
      <trkpt lat="43.287245" lon="-3.005389">
        <ele>5.008</ele>
        <time>2019-06-16T11:44:24Z</time>
      </trkpt>
      <trkpt lat="43.287333" lon="-3.005443">
        <ele>4.877</ele>
        <time>2019-06-16T11:44:25Z</time>
      </trkpt>
      <trkpt lat="43.287406" lon="-3.005485">
        <ele>4.811</ele>
        <time>2019-06-16T11:44:26Z</time>
      </trkpt>
      <trkpt lat="43.287448" lon="-3.005550">
        <ele>5.061</ele>
        <time>2019-06-16T11:44:27Z</time>
      </trkpt>
      <trkpt lat="43.287474" lon="-3.005642">
        <ele>5.055</ele>
        <time>2019-06-16T11:44:28Z</time>
      </trkpt>
      <trkpt lat="43.287486" lon="-3.005755">
        <ele>5.094</ele>
        <time>2019-06-16T11:44:29Z</time>
      </trkpt>
      <trkpt lat="43.287491" lon="-3.005877">
        <ele>5.024</ele>
        <time>2019-06-16T11:44:30Z</time>
      </trkpt>
      <trkpt lat="43.287520" lon="-3.006003">
        <ele>5.010</ele>
        <time>2019-06-16T11:44:31Z</time>
      </trkpt>
      <trkpt lat="43.287566" lon="-3.006169">
        <ele>4.889</ele>
        <time>2019-06-16T11:44:32Z</time>
      </trkpt>
      <trkpt lat="43.287623" lon="-3.006342">
        <ele>4.573</ele>
        <time>2019-06-16T11:44:33Z</time>
      </trkpt>
      <trkpt lat="43.287685" lon="-3.006532">
        <ele>4.785</ele>
        <time>2019-06-16T11:44:34Z</time>
      </trkpt>
      <trkpt lat="43.287761" lon="-3.006739">
        <ele>4.713</ele>
        <time>2019-06-16T11:44:35Z</time>
      </trkpt>
      <trkpt lat="43.287846" lon="-3.006949">
        <ele>4.008</ele>
        <time>2019-06-16T11:44:36Z</time>
      </trkpt>
      <trkpt lat="43.287929" lon="-3.007160">
        <ele>4.490</ele>
        <time>2019-06-16T11:44:37Z</time>
      </trkpt>
      <trkpt lat="43.288019" lon="-3.007370">
        <ele>4.484</ele>
        <time>2019-06-16T11:44:38Z</time>
      </trkpt>
      <trkpt lat="43.288024" lon="-3.007566">
        <ele>4.174</ele>
        <time>2019-06-16T11:44:39Z</time>
      </trkpt>
      <trkpt lat="43.288118" lon="-3.007796">
        <ele>4.258</ele>
        <time>2019-06-16T11:44:40Z</time>
      </trkpt>
      <trkpt lat="43.288231" lon="-3.008020">
        <ele>4.127</ele>
        <time>2019-06-16T11:44:41Z</time>
      </trkpt>
      <trkpt lat="43.288330" lon="-3.008244">
        <ele>4.067</ele>
        <time>2019-06-16T11:44:42Z</time>
      </trkpt>
      <trkpt lat="43.288422" lon="-3.008476">
        <ele>4.083</ele>
        <time>2019-06-16T11:44:43Z</time>
      </trkpt>
      <trkpt lat="43.288521" lon="-3.008713">
        <ele>4.082</ele>
        <time>2019-06-16T11:44:44Z</time>
      </trkpt>
      <trkpt lat="43.288606" lon="-3.008943">
        <ele>4.043</ele>
        <time>2019-06-16T11:44:45Z</time>
      </trkpt>
      <trkpt lat="43.288708" lon="-3.009163">
        <ele>4.064</ele>
        <time>2019-06-16T11:44:46Z</time>
      </trkpt>
      <trkpt lat="43.288803" lon="-3.009380">
        <ele>4.010</ele>
        <time>2019-06-16T11:44:47Z</time>
      </trkpt>
      <trkpt lat="43.288906" lon="-3.009600">
        <ele>3.508</ele>
        <time>2019-06-16T11:44:48Z</time>
      </trkpt>
      <trkpt lat="43.288990" lon="-3.009809">
        <ele>3.687</ele>
        <time>2019-06-16T11:44:49Z</time>
      </trkpt>
      <trkpt lat="43.289093" lon="-3.010011">
        <ele>4.061</ele>
        <time>2019-06-16T11:44:50Z</time>
      </trkpt>
      <trkpt lat="43.289244" lon="-3.010190">
        <ele>3.661</ele>
        <time>2019-06-16T11:44:51Z</time>
      </trkpt>
      <trkpt lat="43.289344" lon="-3.010369">
        <ele>3.445</ele>
        <time>2019-06-16T11:44:52Z</time>
      </trkpt>
      <trkpt lat="43.289409" lon="-3.010537">
        <ele>3.164</ele>
        <time>2019-06-16T11:44:53Z</time>
      </trkpt>
      <trkpt lat="43.289459" lon="-3.010673">
        <ele>3.134</ele>
        <time>2019-06-16T11:44:54Z</time>
      </trkpt>
      <trkpt lat="43.289564" lon="-3.010772">
        <ele>3.540</ele>
        <time>2019-06-16T11:44:55Z</time>
      </trkpt>
      <trkpt lat="43.289648" lon="-3.010855">
        <ele>3.819</ele>
        <time>2019-06-16T11:44:56Z</time>
      </trkpt>
      <trkpt lat="43.289710" lon="-3.010930">
        <ele>4.018</ele>
        <time>2019-06-16T11:44:57Z</time>
      </trkpt>
      <trkpt lat="43.289800" lon="-3.010977">
        <ele>4.098</ele>
        <time>2019-06-16T11:44:58Z</time>
      </trkpt>
      <trkpt lat="43.289841" lon="-3.011042">
        <ele>4.017</ele>
        <time>2019-06-16T11:44:59Z</time>
      </trkpt>
      <trkpt lat="43.289867" lon="-3.011137">
        <ele>4.008</ele>
        <time>2019-06-16T11:45:00Z</time>
      </trkpt>
      <trkpt lat="43.289880" lon="-3.011244">
        <ele>4.054</ele>
        <time>2019-06-16T11:45:01Z</time>
      </trkpt>
      <trkpt lat="43.289876" lon="-3.011368">
        <ele>4.048</ele>
        <time>2019-06-16T11:45:02Z</time>
      </trkpt>
      <trkpt lat="43.289883" lon="-3.011493">
        <ele>3.678</ele>
        <time>2019-06-16T11:45:03Z</time>
      </trkpt>
      <trkpt lat="43.289900" lon="-3.011635">
        <ele>3.142</ele>
        <time>2019-06-16T11:45:04Z</time>
      </trkpt>
      <trkpt lat="43.289949" lon="-3.011778">
        <ele>3.191</ele>
        <time>2019-06-16T11:45:05Z</time>
      </trkpt>
      <trkpt lat="43.290004" lon="-3.011931">
        <ele>3.031</ele>
        <time>2019-06-16T11:45:06Z</time>
      </trkpt>
      <trkpt lat="43.290078" lon="-3.012097">
        <ele>3.177</ele>
        <time>2019-06-16T11:45:07Z</time>
      </trkpt>
      <trkpt lat="43.290152" lon="-3.012289">
        <ele>3.076</ele>
        <time>2019-06-16T11:45:08Z</time>
      </trkpt>
      <trkpt lat="43.290234" lon="-3.012486">
        <ele>3.045</ele>
        <time>2019-06-16T11:45:09Z</time>
      </trkpt>
      <trkpt lat="43.290317" lon="-3.012680">
        <ele>3.047</ele>
        <time>2019-06-16T11:45:10Z</time>
      </trkpt>
      <trkpt lat="43.290398" lon="-3.012887">
        <ele>3.011</ele>
        <time>2019-06-16T11:45:11Z</time>
      </trkpt>
      <trkpt lat="43.290477" lon="-3.013106">
        <ele>3.108</ele>
        <time>2019-06-16T11:45:12Z</time>
      </trkpt>
      <trkpt lat="43.290567" lon="-3.013326">
        <ele>3.067</ele>
        <time>2019-06-16T11:45:13Z</time>
      </trkpt>
      <trkpt lat="43.290655" lon="-3.013546">
        <ele>3.841</ele>
        <time>2019-06-16T11:45:14Z</time>
      </trkpt>
      <trkpt lat="43.290762" lon="-3.013775">
        <ele>4.031</ele>
        <time>2019-06-16T11:45:15Z</time>
      </trkpt>
      <trkpt lat="43.290858" lon="-3.013991">
        <ele>4.035</ele>
        <time>2019-06-16T11:45:16Z</time>
      </trkpt>
      <trkpt lat="43.290962" lon="-3.014203">
        <ele>4.494</ele>
        <time>2019-06-16T11:45:17Z</time>
      </trkpt>
      <trkpt lat="43.291053" lon="-3.014402">
        <ele>4.124</ele>
        <time>2019-06-16T11:45:18Z</time>
      </trkpt>
      <trkpt lat="43.291142" lon="-3.014597">
        <ele>4.030</ele>
        <time>2019-06-16T11:45:19Z</time>
      </trkpt>
      <trkpt lat="43.291219" lon="-3.014753">
        <ele>4.079</ele>
        <time>2019-06-16T11:45:20Z</time>
      </trkpt>
      <trkpt lat="43.291282" lon="-3.014906">
        <ele>4.022</ele>
        <time>2019-06-16T11:45:21Z</time>
      </trkpt>
      <trkpt lat="43.291345" lon="-3.015047">
        <ele>4.062</ele>
        <time>2019-06-16T11:45:22Z</time>
      </trkpt>
      <trkpt lat="43.291398" lon="-3.015189">
        <ele>4.008</ele>
        <time>2019-06-16T11:45:23Z</time>
      </trkpt>
      <trkpt lat="43.291457" lon="-3.015327">
        <ele>4.208</ele>
        <time>2019-06-16T11:45:24Z</time>
      </trkpt>
      <trkpt lat="43.291503" lon="-3.015471">
        <ele>4.725</ele>
        <time>2019-06-16T11:45:25Z</time>
      </trkpt>
      <trkpt lat="43.291564" lon="-3.015615">
        <ele>5.129</ele>
        <time>2019-06-16T11:45:26Z</time>
      </trkpt>
      <trkpt lat="43.291648" lon="-3.015754">
        <ele>5.029</ele>
        <time>2019-06-16T11:45:27Z</time>
      </trkpt>
      <trkpt lat="43.291721" lon="-3.015905">
        <ele>5.463</ele>
        <time>2019-06-16T11:45:28Z</time>
      </trkpt>
      <trkpt lat="43.291804" lon="-3.016085">
        <ele>6.022</ele>
        <time>2019-06-16T11:45:29Z</time>
      </trkpt>
      <trkpt lat="43.291876" lon="-3.016237">
        <ele>6.142</ele>
        <time>2019-06-16T11:45:30Z</time>
      </trkpt>
      <trkpt lat="43.291917" lon="-3.016389">
        <ele>6.158</ele>
        <time>2019-06-16T11:45:31Z</time>
      </trkpt>
      <trkpt lat="43.292038" lon="-3.016531">
        <ele>6.387</ele>
        <time>2019-06-16T11:45:32Z</time>
      </trkpt>
      <trkpt lat="43.292111" lon="-3.016666">
        <ele>6.682</ele>
        <time>2019-06-16T11:45:33Z</time>
      </trkpt>
      <trkpt lat="43.292164" lon="-3.016793">
        <ele>6.443</ele>
        <time>2019-06-16T11:45:34Z</time>
      </trkpt>
      <trkpt lat="43.292210" lon="-3.016947">
        <ele>6.017</ele>
        <time>2019-06-16T11:45:35Z</time>
      </trkpt>
      <trkpt lat="43.292292" lon="-3.017103">
        <ele>6.308</ele>
        <time>2019-06-16T11:45:36Z</time>
      </trkpt>
      <trkpt lat="43.292358" lon="-3.017269">
        <ele>6.421</ele>
        <time>2019-06-16T11:45:37Z</time>
      </trkpt>
      <trkpt lat="43.292432" lon="-3.017445">
        <ele>6.265</ele>
        <time>2019-06-16T11:45:38Z</time>
      </trkpt>
      <trkpt lat="43.292502" lon="-3.017625">
        <ele>6.515</ele>
        <time>2019-06-16T11:45:39Z</time>
      </trkpt>
      <trkpt lat="43.292591" lon="-3.017812">
        <ele>7.169</ele>
        <time>2019-06-16T11:45:40Z</time>
      </trkpt>
      <trkpt lat="43.292697" lon="-3.018001">
        <ele>7.268</ele>
        <time>2019-06-16T11:45:41Z</time>
      </trkpt>
      <trkpt lat="43.292810" lon="-3.018196">
        <ele>7.498</ele>
        <time>2019-06-16T11:45:42Z</time>
      </trkpt>
      <trkpt lat="43.292923" lon="-3.018396">
        <ele>8.154</ele>
        <time>2019-06-16T11:45:43Z</time>
      </trkpt>
      <trkpt lat="43.293042" lon="-3.018557">
        <ele>8.733</ele>
        <time>2019-06-16T11:45:44Z</time>
      </trkpt>
      <trkpt lat="43.293171" lon="-3.018735">
        <ele>9.657</ele>
        <time>2019-06-16T11:45:45Z</time>
      </trkpt>
      <trkpt lat="43.293321" lon="-3.018896">
        <ele>9.300</ele>
        <time>2019-06-16T11:45:46Z</time>
      </trkpt>
      <trkpt lat="43.293451" lon="-3.019067">
        <ele>10.820</ele>
        <time>2019-06-16T11:45:47Z</time>
      </trkpt>
      <trkpt lat="43.293585" lon="-3.019224">
        <ele>11.708</ele>
        <time>2019-06-16T11:45:48Z</time>
      </trkpt>
      <trkpt lat="43.293730" lon="-3.019377">
        <ele>12.648</ele>
        <time>2019-06-16T11:45:49Z</time>
      </trkpt>
      <trkpt lat="43.293862" lon="-3.019532">
        <ele>13.122</ele>
        <time>2019-06-16T11:45:50Z</time>
      </trkpt>
      <trkpt lat="43.294021" lon="-3.019702">
        <ele>13.322</ele>
        <time>2019-06-16T11:45:51Z</time>
      </trkpt>
      <trkpt lat="43.294157" lon="-3.019864">
        <ele>13.876</ele>
        <time>2019-06-16T11:45:52Z</time>
      </trkpt>
      <trkpt lat="43.294274" lon="-3.020042">
        <ele>14.685</ele>
        <time>2019-06-16T11:45:53Z</time>
      </trkpt>
      <trkpt lat="43.294386" lon="-3.020219">
        <ele>14.985</ele>
        <time>2019-06-16T11:45:54Z</time>
      </trkpt>
      <trkpt lat="43.294483" lon="-3.020408">
        <ele>14.781</ele>
        <time>2019-06-16T11:45:55Z</time>
      </trkpt>
      <trkpt lat="43.294594" lon="-3.020579">
        <ele>14.970</ele>
        <time>2019-06-16T11:45:56Z</time>
      </trkpt>
      <trkpt lat="43.294731" lon="-3.020747">
        <ele>16.156</ele>
        <time>2019-06-16T11:45:57Z</time>
      </trkpt>
      <trkpt lat="43.294851" lon="-3.020888">
        <ele>17.959</ele>
        <time>2019-06-16T11:45:58Z</time>
      </trkpt>
      <trkpt lat="43.294978" lon="-3.021026">
        <ele>18.914</ele>
        <time>2019-06-16T11:45:59Z</time>
      </trkpt>
      <trkpt lat="43.295143" lon="-3.021121">
        <ele>18.808</ele>
        <time>2019-06-16T11:46:00Z</time>
      </trkpt>
      <trkpt lat="43.295296" lon="-3.021213">
        <ele>19.888</ele>
        <time>2019-06-16T11:46:01Z</time>
      </trkpt>
      <trkpt lat="43.295450" lon="-3.021304">
        <ele>20.212</ele>
        <time>2019-06-16T11:46:02Z</time>
      </trkpt>
      <trkpt lat="43.295579" lon="-3.021388">
        <ele>20.192</ele>
        <time>2019-06-16T11:46:03Z</time>
      </trkpt>
      <trkpt lat="43.295692" lon="-3.021475">
        <ele>22.146</ele>
        <time>2019-06-16T11:46:04Z</time>
      </trkpt>
      <trkpt lat="43.295822" lon="-3.021523">
        <ele>22.545</ele>
        <time>2019-06-16T11:46:05Z</time>
      </trkpt>
      <trkpt lat="43.295916" lon="-3.021585">
        <ele>23.065</ele>
        <time>2019-06-16T11:46:06Z</time>
      </trkpt>
      <trkpt lat="43.296026" lon="-3.021627">
        <ele>23.171</ele>
        <time>2019-06-16T11:46:07Z</time>
      </trkpt>
      <trkpt lat="43.296138" lon="-3.021670">
        <ele>23.110</ele>
        <time>2019-06-16T11:46:08Z</time>
      </trkpt>
      <trkpt lat="43.296207" lon="-3.021686">
        <ele>23.528</ele>
        <time>2019-06-16T11:46:09Z</time>
      </trkpt>
      <trkpt lat="43.296295" lon="-3.021714">
        <ele>24.289</ele>
        <time>2019-06-16T11:46:10Z</time>
      </trkpt>
      <trkpt lat="43.296348" lon="-3.021730">
        <ele>24.717</ele>
        <time>2019-06-16T11:46:11Z</time>
      </trkpt>
      <trkpt lat="43.296422" lon="-3.021749">
        <ele>25.508</ele>
        <time>2019-06-16T11:46:12Z</time>
      </trkpt>
      <trkpt lat="43.296497" lon="-3.021768">
        <ele>26.635</ele>
        <time>2019-06-16T11:46:13Z</time>
      </trkpt>
      <trkpt lat="43.296524" lon="-3.021857">
        <ele>28.259</ele>
        <time>2019-06-16T11:46:14Z</time>
      </trkpt>
      <trkpt lat="43.296529" lon="-3.021931">
        <ele>29.399</ele>
        <time>2019-06-16T11:46:15Z</time>
      </trkpt>
      <trkpt lat="43.296526" lon="-3.022023">
        <ele>29.373</ele>
        <time>2019-06-16T11:46:16Z</time>
      </trkpt>
      <trkpt lat="43.296518" lon="-3.022121">
        <ele>29.042</ele>
        <time>2019-06-16T11:46:17Z</time>
      </trkpt>
      <trkpt lat="43.296505" lon="-3.022216">
        <ele>28.582</ele>
        <time>2019-06-16T11:46:18Z</time>
      </trkpt>
      <trkpt lat="43.296453" lon="-3.022329">
        <ele>27.558</ele>
        <time>2019-06-16T11:46:19Z</time>
      </trkpt>
      <trkpt lat="43.296442" lon="-3.022495">
        <ele>27.637</ele>
        <time>2019-06-16T11:46:20Z</time>
      </trkpt>
      <trkpt lat="43.296429" lon="-3.022646">
        <ele>26.418</ele>
        <time>2019-06-16T11:46:21Z</time>
      </trkpt>
      <trkpt lat="43.296432" lon="-3.022946">
        <ele>23.798</ele>
        <time>2019-06-16T11:46:22Z</time>
      </trkpt>
      <trkpt lat="43.296426" lon="-3.023171">
        <ele>22.317</ele>
        <time>2019-06-16T11:46:23Z</time>
      </trkpt>
      <trkpt lat="43.296445" lon="-3.023394">
        <ele>20.808</ele>
        <time>2019-06-16T11:46:24Z</time>
      </trkpt>
      <trkpt lat="43.296471" lon="-3.023609">
        <ele>19.784</ele>
        <time>2019-06-16T11:46:25Z</time>
      </trkpt>
      <trkpt lat="43.296484" lon="-3.023782">
        <ele>20.058</ele>
        <time>2019-06-16T11:46:26Z</time>
      </trkpt>
      <trkpt lat="43.296492" lon="-3.023988">
        <ele>20.568</ele>
        <time>2019-06-16T11:46:27Z</time>
      </trkpt>
      <trkpt lat="43.296576" lon="-3.024198">
        <ele>17.472</ele>
        <time>2019-06-16T11:46:28Z</time>
      </trkpt>
      <trkpt lat="43.296600" lon="-3.024395">
        <ele>17.411</ele>
        <time>2019-06-16T11:46:29Z</time>
      </trkpt>
      <trkpt lat="43.296605" lon="-3.024592">
        <ele>17.061</ele>
        <time>2019-06-16T11:46:30Z</time>
      </trkpt>
      <trkpt lat="43.296617" lon="-3.024783">
        <ele>16.227</ele>
        <time>2019-06-16T11:46:31Z</time>
      </trkpt>
      <trkpt lat="43.296598" lon="-3.024977">
        <ele>17.466</ele>
        <time>2019-06-16T11:46:32Z</time>
      </trkpt>
      <trkpt lat="43.296608" lon="-3.025149">
        <ele>17.729</ele>
        <time>2019-06-16T11:46:33Z</time>
      </trkpt>
      <trkpt lat="43.296622" lon="-3.025331">
        <ele>17.800</ele>
        <time>2019-06-16T11:46:34Z</time>
      </trkpt>
      <trkpt lat="43.296658" lon="-3.025504">
        <ele>16.320</ele>
        <time>2019-06-16T11:46:35Z</time>
      </trkpt>
      <trkpt lat="43.296722" lon="-3.025691">
        <ele>16.208</ele>
        <time>2019-06-16T11:46:36Z</time>
      </trkpt>
      <trkpt lat="43.296784" lon="-3.025874">
        <ele>16.435</ele>
        <time>2019-06-16T11:46:37Z</time>
      </trkpt>
      <trkpt lat="43.296850" lon="-3.026055">
        <ele>16.329</ele>
        <time>2019-06-16T11:46:38Z</time>
      </trkpt>
      <trkpt lat="43.296890" lon="-3.026240">
        <ele>16.479</ele>
        <time>2019-06-16T11:46:39Z</time>
      </trkpt>
      <trkpt lat="43.296954" lon="-3.026421">
        <ele>14.933</ele>
        <time>2019-06-16T11:46:40Z</time>
      </trkpt>
      <trkpt lat="43.297030" lon="-3.026586">
        <ele>13.952</ele>
        <time>2019-06-16T11:46:41Z</time>
      </trkpt>
      <trkpt lat="43.297111" lon="-3.026736">
        <ele>12.552</ele>
        <time>2019-06-16T11:46:42Z</time>
      </trkpt>
      <trkpt lat="43.297169" lon="-3.026896">
        <ele>12.228</ele>
        <time>2019-06-16T11:46:43Z</time>
      </trkpt>
      <trkpt lat="43.297253" lon="-3.027038">
        <ele>12.077</ele>
        <time>2019-06-16T11:46:44Z</time>
      </trkpt>
      <trkpt lat="43.297380" lon="-3.027171">
        <ele>12.587</ele>
        <time>2019-06-16T11:46:45Z</time>
      </trkpt>
      <trkpt lat="43.297482" lon="-3.027295">
        <ele>13.242</ele>
        <time>2019-06-16T11:46:46Z</time>
      </trkpt>
      <trkpt lat="43.297578" lon="-3.027403">
        <ele>13.626</ele>
        <time>2019-06-16T11:46:47Z</time>
      </trkpt>
      <trkpt lat="43.297663" lon="-3.027506">
        <ele>14.008</ele>
        <time>2019-06-16T11:46:48Z</time>
      </trkpt>
      <trkpt lat="43.297730" lon="-3.027582">
        <ele>14.551</ele>
        <time>2019-06-16T11:46:49Z</time>
      </trkpt>
      <trkpt lat="43.297797" lon="-3.027659">
        <ele>15.215</ele>
        <time>2019-06-16T11:46:50Z</time>
      </trkpt>
      <trkpt lat="43.297844" lon="-3.027728">
        <ele>15.865</ele>
        <time>2019-06-16T11:46:51Z</time>
      </trkpt>
      <trkpt lat="43.297926" lon="-3.027789">
        <ele>16.629</ele>
        <time>2019-06-16T11:46:52Z</time>
      </trkpt>
      <trkpt lat="43.297992" lon="-3.027865">
        <ele>17.258</ele>
        <time>2019-06-16T11:46:53Z</time>
      </trkpt>
      <trkpt lat="43.298052" lon="-3.027933">
        <ele>17.648</ele>
        <time>2019-06-16T11:46:54Z</time>
      </trkpt>
      <trkpt lat="43.298133" lon="-3.028022">
        <ele>17.644</ele>
        <time>2019-06-16T11:46:55Z</time>
      </trkpt>
      <trkpt lat="43.298188" lon="-3.028108">
        <ele>18.093</ele>
        <time>2019-06-16T11:46:56Z</time>
      </trkpt>
      <trkpt lat="43.298257" lon="-3.028195">
        <ele>18.427</ele>
        <time>2019-06-16T11:46:57Z</time>
      </trkpt>
      <trkpt lat="43.298332" lon="-3.028302">
        <ele>18.868</ele>
        <time>2019-06-16T11:46:58Z</time>
      </trkpt>
      <trkpt lat="43.298411" lon="-3.028381">
        <ele>19.114</ele>
        <time>2019-06-16T11:46:59Z</time>
      </trkpt>
      <trkpt lat="43.298494" lon="-3.028473">
        <ele>19.408</ele>
        <time>2019-06-16T11:47:00Z</time>
      </trkpt>
      <trkpt lat="43.298556" lon="-3.028548">
        <ele>19.725</ele>
        <time>2019-06-16T11:47:01Z</time>
      </trkpt>
      <trkpt lat="43.298633" lon="-3.028644">
        <ele>19.969</ele>
        <time>2019-06-16T11:47:02Z</time>
      </trkpt>
      <trkpt lat="43.298705" lon="-3.028734">
        <ele>20.159</ele>
        <time>2019-06-16T11:47:03Z</time>
      </trkpt>
      <trkpt lat="43.298794" lon="-3.028820">
        <ele>20.873</ele>
        <time>2019-06-16T11:47:04Z</time>
      </trkpt>
      <trkpt lat="43.298870" lon="-3.028913">
        <ele>22.132</ele>
        <time>2019-06-16T11:47:05Z</time>
      </trkpt>
      <trkpt lat="43.298931" lon="-3.028986">
        <ele>22.872</ele>
        <time>2019-06-16T11:47:06Z</time>
      </trkpt>
      <trkpt lat="43.298987" lon="-3.029066">
        <ele>23.178</ele>
        <time>2019-06-16T11:47:07Z</time>
      </trkpt>
      <trkpt lat="43.299036" lon="-3.029140">
        <ele>23.237</ele>
        <time>2019-06-16T11:47:08Z</time>
      </trkpt>
      <trkpt lat="43.299089" lon="-3.029214">
        <ele>23.136</ele>
        <time>2019-06-16T11:47:09Z</time>
      </trkpt>
      <trkpt lat="43.299138" lon="-3.029285">
        <ele>22.817</ele>
        <time>2019-06-16T11:47:10Z</time>
      </trkpt>
      <trkpt lat="43.299170" lon="-3.029348">
        <ele>22.618</ele>
        <time>2019-06-16T11:47:11Z</time>
      </trkpt>
      <trkpt lat="43.299201" lon="-3.029433">
        <ele>22.508</ele>
        <time>2019-06-16T11:47:12Z</time>
      </trkpt>
      <trkpt lat="43.299256" lon="-3.029545">
        <ele>22.196</ele>
        <time>2019-06-16T11:47:13Z</time>
      </trkpt>
      <trkpt lat="43.299309" lon="-3.029662">
        <ele>21.740</ele>
        <time>2019-06-16T11:47:14Z</time>
      </trkpt>
      <trkpt lat="43.299359" lon="-3.029777">
        <ele>21.410</ele>
        <time>2019-06-16T11:47:15Z</time>
      </trkpt>
      <trkpt lat="43.299412" lon="-3.029906">
        <ele>21.164</ele>
        <time>2019-06-16T11:47:16Z</time>
      </trkpt>
      <trkpt lat="43.299467" lon="-3.030040">
        <ele>20.873</ele>
        <time>2019-06-16T11:47:17Z</time>
      </trkpt>
      <trkpt lat="43.299521" lon="-3.030164">
        <ele>20.433</ele>
        <time>2019-06-16T11:47:18Z</time>
      </trkpt>
      <trkpt lat="43.299570" lon="-3.030271">
        <ele>20.239</ele>
        <time>2019-06-16T11:47:19Z</time>
      </trkpt>
      <trkpt lat="43.299615" lon="-3.030375">
        <ele>20.338</ele>
        <time>2019-06-16T11:47:20Z</time>
      </trkpt>
      <trkpt lat="43.299664" lon="-3.030476">
        <ele>20.072</ele>
        <time>2019-06-16T11:47:21Z</time>
      </trkpt>
      <trkpt lat="43.299715" lon="-3.030594">
        <ele>19.513</ele>
        <time>2019-06-16T11:47:22Z</time>
      </trkpt>
      <trkpt lat="43.299770" lon="-3.030710">
        <ele>19.214</ele>
        <time>2019-06-16T11:47:23Z</time>
      </trkpt>
      <trkpt lat="43.299830" lon="-3.030822">
        <ele>19.008</ele>
        <time>2019-06-16T11:47:24Z</time>
      </trkpt>
      <trkpt lat="43.299891" lon="-3.030940">
        <ele>18.530</ele>
        <time>2019-06-16T11:47:25Z</time>
      </trkpt>
      <trkpt lat="43.299946" lon="-3.031058">
        <ele>17.944</ele>
        <time>2019-06-16T11:47:26Z</time>
      </trkpt>
      <trkpt lat="43.300002" lon="-3.031178">
        <ele>17.574</ele>
        <time>2019-06-16T11:47:27Z</time>
      </trkpt>
      <trkpt lat="43.300054" lon="-3.031296">
        <ele>17.448</ele>
        <time>2019-06-16T11:47:28Z</time>
      </trkpt>
      <trkpt lat="43.300104" lon="-3.031420">
        <ele>17.277</ele>
        <time>2019-06-16T11:47:29Z</time>
      </trkpt>
      <trkpt lat="43.300158" lon="-3.031531">
        <ele>16.467</ele>
        <time>2019-06-16T11:47:30Z</time>
      </trkpt>
      <trkpt lat="43.300211" lon="-3.031640">
        <ele>15.933</ele>
        <time>2019-06-16T11:47:31Z</time>
      </trkpt>
      <trkpt lat="43.300261" lon="-3.031755">
        <ele>15.652</ele>
        <time>2019-06-16T11:47:32Z</time>
      </trkpt>
      <trkpt lat="43.300313" lon="-3.031867">
        <ele>15.356</ele>
        <time>2019-06-16T11:47:33Z</time>
      </trkpt>
      <trkpt lat="43.300363" lon="-3.031983">
        <ele>15.359</ele>
        <time>2019-06-16T11:47:34Z</time>
      </trkpt>
      <trkpt lat="43.300421" lon="-3.032093">
        <ele>15.214</ele>
        <time>2019-06-16T11:47:35Z</time>
      </trkpt>
      <trkpt lat="43.300480" lon="-3.032191">
        <ele>14.908</ele>
        <time>2019-06-16T11:47:36Z</time>
      </trkpt>
      <trkpt lat="43.300535" lon="-3.032282">
        <ele>14.598</ele>
        <time>2019-06-16T11:47:37Z</time>
      </trkpt>
      <trkpt lat="43.300540" lon="-3.032370">
        <ele>14.852</ele>
        <time>2019-06-16T11:47:38Z</time>
      </trkpt>
      <trkpt lat="43.300579" lon="-3.032431">
        <ele>14.642</ele>
        <time>2019-06-16T11:47:39Z</time>
      </trkpt>
      <trkpt lat="43.300603" lon="-3.032501">
        <ele>14.776</ele>
        <time>2019-06-16T11:47:40Z</time>
      </trkpt>
      <trkpt lat="43.300641" lon="-3.032569">
        <ele>14.595</ele>
        <time>2019-06-16T11:47:41Z</time>
      </trkpt>
      <trkpt lat="43.300681" lon="-3.032629">
        <ele>14.595</ele>
        <time>2019-06-16T11:47:42Z</time>
      </trkpt>
      <trkpt lat="43.300718" lon="-3.032689">
        <ele>14.631</ele>
        <time>2019-06-16T11:47:43Z</time>
      </trkpt>
      <trkpt lat="43.300796" lon="-3.032749">
        <ele>14.850</ele>
        <time>2019-06-16T11:47:44Z</time>
      </trkpt>
      <trkpt lat="43.300831" lon="-3.032816">
        <ele>15.071</ele>
        <time>2019-06-16T11:47:45Z</time>
      </trkpt>
      <trkpt lat="43.300878" lon="-3.032883">
        <ele>14.941</ele>
        <time>2019-06-16T11:47:46Z</time>
      </trkpt>
      <trkpt lat="43.300926" lon="-3.032976">
        <ele>14.915</ele>
        <time>2019-06-16T11:47:47Z</time>
      </trkpt>
      <trkpt lat="43.300983" lon="-3.033049">
        <ele>15.008</ele>
        <time>2019-06-16T11:47:48Z</time>
      </trkpt>
      <trkpt lat="43.301045" lon="-3.033145">
        <ele>15.440</ele>
        <time>2019-06-16T11:47:49Z</time>
      </trkpt>
      <trkpt lat="43.301135" lon="-3.033117">
        <ele>15.144</ele>
        <time>2019-06-16T11:47:50Z</time>
      </trkpt>
      <trkpt lat="43.301179" lon="-3.033177">
        <ele>15.244</ele>
        <time>2019-06-16T11:47:51Z</time>
      </trkpt>
      <trkpt lat="43.301258" lon="-3.033257">
        <ele>15.218</ele>
        <time>2019-06-16T11:47:52Z</time>
      </trkpt>
      <trkpt lat="43.301321" lon="-3.033338">
        <ele>15.367</ele>
        <time>2019-06-16T11:47:53Z</time>
      </trkpt>
      <trkpt lat="43.301405" lon="-3.033419">
        <ele>15.327</ele>
        <time>2019-06-16T11:47:54Z</time>
      </trkpt>
      <trkpt lat="43.301456" lon="-3.033485">
        <ele>15.473</ele>
        <time>2019-06-16T11:47:55Z</time>
      </trkpt>
      <trkpt lat="43.301532" lon="-3.033581">
        <ele>15.422</ele>
        <time>2019-06-16T11:47:56Z</time>
      </trkpt>
      <trkpt lat="43.301592" lon="-3.033663">
        <ele>15.348</ele>
        <time>2019-06-16T11:47:57Z</time>
      </trkpt>
      <trkpt lat="43.301683" lon="-3.033740">
        <ele>15.061</ele>
        <time>2019-06-16T11:47:58Z</time>
      </trkpt>
      <trkpt lat="43.301740" lon="-3.033837">
        <ele>15.017</ele>
        <time>2019-06-16T11:47:59Z</time>
      </trkpt>
      <trkpt lat="43.301808" lon="-3.033910">
        <ele>15.008</ele>
        <time>2019-06-16T11:48:00Z</time>
      </trkpt>
      <trkpt lat="43.301873" lon="-3.033990">
        <ele>15.087</ele>
        <time>2019-06-16T11:48:01Z</time>
      </trkpt>
      <trkpt lat="43.301957" lon="-3.034061">
        <ele>15.021</ele>
        <time>2019-06-16T11:48:02Z</time>
      </trkpt>
      <trkpt lat="43.302029" lon="-3.034149">
        <ele>15.041</ele>
        <time>2019-06-16T11:48:03Z</time>
      </trkpt>
      <trkpt lat="43.302092" lon="-3.034229">
        <ele>15.115</ele>
        <time>2019-06-16T11:48:04Z</time>
      </trkpt>
      <trkpt lat="43.302166" lon="-3.034337">
        <ele>15.544</ele>
        <time>2019-06-16T11:48:05Z</time>
      </trkpt>
      <trkpt lat="43.302197" lon="-3.034428">
        <ele>15.934</ele>
        <time>2019-06-16T11:48:06Z</time>
      </trkpt>
      <trkpt lat="43.302297" lon="-3.034519">
        <ele>16.340</ele>
        <time>2019-06-16T11:48:07Z</time>
      </trkpt>
      <trkpt lat="43.302370" lon="-3.034603">
        <ele>16.669</ele>
        <time>2019-06-16T11:48:08Z</time>
      </trkpt>
      <trkpt lat="43.302453" lon="-3.034692">
        <ele>16.938</ele>
        <time>2019-06-16T11:48:09Z</time>
      </trkpt>
      <trkpt lat="43.302530" lon="-3.034782">
        <ele>17.370</ele>
        <time>2019-06-16T11:48:10Z</time>
      </trkpt>
      <trkpt lat="43.302611" lon="-3.034881">
        <ele>18.017</ele>
        <time>2019-06-16T11:48:11Z</time>
      </trkpt>
      <trkpt lat="43.302687" lon="-3.034961">
        <ele>18.508</ele>
        <time>2019-06-16T11:48:12Z</time>
      </trkpt>
      <trkpt lat="43.302746" lon="-3.035041">
        <ele>18.996</ele>
        <time>2019-06-16T11:48:13Z</time>
      </trkpt>
      <trkpt lat="43.302800" lon="-3.035093">
        <ele>19.140</ele>
        <time>2019-06-16T11:48:14Z</time>
      </trkpt>
      <trkpt lat="43.302856" lon="-3.035154">
        <ele>19.330</ele>
        <time>2019-06-16T11:48:15Z</time>
      </trkpt>
      <trkpt lat="43.302915" lon="-3.035227">
        <ele>19.594</ele>
        <time>2019-06-16T11:48:17Z</time>
      </trkpt>
      <trkpt lat="43.302954" lon="-3.035287">
        <ele>19.623</ele>
        <time>2019-06-16T11:48:19Z</time>
      </trkpt>
      <trkpt lat="43.303024" lon="-3.035323">
        <ele>19.943</ele>
        <time>2019-06-16T11:48:22Z</time>
      </trkpt>
      <trkpt lat="43.303100" lon="-3.035310">
        <ele>20.249</ele>
        <time>2019-06-16T11:48:39Z</time>
      </trkpt>
      <trkpt lat="43.303135" lon="-3.035351">
        <ele>20.328</ele>
        <time>2019-06-16T11:48:40Z</time>
      </trkpt>
      <trkpt lat="43.303214" lon="-3.035443">
        <ele>20.622</ele>
        <time>2019-06-16T11:48:41Z</time>
      </trkpt>
      <trkpt lat="43.303291" lon="-3.035524">
        <ele>20.862</ele>
        <time>2019-06-16T11:48:42Z</time>
      </trkpt>
      <trkpt lat="43.303407" lon="-3.035631">
        <ele>21.508</ele>
        <time>2019-06-16T11:48:43Z</time>
      </trkpt>
      <trkpt lat="43.303519" lon="-3.035737">
        <ele>22.308</ele>
        <time>2019-06-16T11:48:44Z</time>
      </trkpt>
      <trkpt lat="43.303626" lon="-3.035804">
        <ele>22.935</ele>
        <time>2019-06-16T11:48:45Z</time>
      </trkpt>
      <trkpt lat="43.303718" lon="-3.035877">
        <ele>23.519</ele>
        <time>2019-06-16T11:48:46Z</time>
      </trkpt>
      <trkpt lat="43.303793" lon="-3.035967">
        <ele>23.839</ele>
        <time>2019-06-16T11:48:47Z</time>
      </trkpt>
      <trkpt lat="43.303895" lon="-3.036042">
        <ele>24.093</ele>
        <time>2019-06-16T11:48:48Z</time>
      </trkpt>
      <trkpt lat="43.303966" lon="-3.036107">
        <ele>24.082</ele>
        <time>2019-06-16T11:48:49Z</time>
      </trkpt>
      <trkpt lat="43.304058" lon="-3.036249">
        <ele>24.892</ele>
        <time>2019-06-16T11:48:50Z</time>
      </trkpt>
      <trkpt lat="43.304167" lon="-3.036352">
        <ele>25.798</ele>
        <time>2019-06-16T11:48:51Z</time>
      </trkpt>
      <trkpt lat="43.304258" lon="-3.036439">
        <ele>26.257</ele>
        <time>2019-06-16T11:48:52Z</time>
      </trkpt>
      <trkpt lat="43.304361" lon="-3.036526">
        <ele>26.518</ele>
        <time>2019-06-16T11:48:53Z</time>
      </trkpt>
      <trkpt lat="43.304451" lon="-3.036606">
        <ele>26.898</ele>
        <time>2019-06-16T11:48:54Z</time>
      </trkpt>
      <trkpt lat="43.304535" lon="-3.036681">
        <ele>27.117</ele>
        <time>2019-06-16T11:48:55Z</time>
      </trkpt>
      <trkpt lat="43.304619" lon="-3.036753">
        <ele>27.508</ele>
        <time>2019-06-16T11:48:56Z</time>
      </trkpt>
      <trkpt lat="43.304690" lon="-3.036814">
        <ele>28.074</ele>
        <time>2019-06-16T11:48:57Z</time>
      </trkpt>
      <trkpt lat="43.304760" lon="-3.036865">
        <ele>28.418</ele>
        <time>2019-06-16T11:48:58Z</time>
      </trkpt>
      <trkpt lat="43.304803" lon="-3.036908">
        <ele>28.718</ele>
        <time>2019-06-16T11:48:59Z</time>
      </trkpt>
      <trkpt lat="43.304870" lon="-3.036961">
        <ele>29.152</ele>
        <time>2019-06-16T11:49:01Z</time>
      </trkpt>
      <trkpt lat="43.304921" lon="-3.037004">
        <ele>29.211</ele>
        <time>2019-06-16T11:49:24Z</time>
      </trkpt>
      <trkpt lat="43.304977" lon="-3.037050">
        <ele>29.491</ele>
        <time>2019-06-16T11:49:25Z</time>
      </trkpt>
      <trkpt lat="43.305057" lon="-3.037092">
        <ele>29.437</ele>
        <time>2019-06-16T11:49:27Z</time>
      </trkpt>
      <trkpt lat="43.305110" lon="-3.037129">
        <ele>29.536</ele>
        <time>2019-06-16T11:49:28Z</time>
      </trkpt>
      <trkpt lat="43.305196" lon="-3.037168">
        <ele>29.754</ele>
        <time>2019-06-16T11:49:29Z</time>
      </trkpt>
      <trkpt lat="43.305255" lon="-3.037244">
        <ele>30.256</ele>
        <time>2019-06-16T11:49:30Z</time>
      </trkpt>
      <trkpt lat="43.305312" lon="-3.037331">
        <ele>30.611</ele>
        <time>2019-06-16T11:49:31Z</time>
      </trkpt>
      <trkpt lat="43.305349" lon="-3.037415">
        <ele>31.108</ele>
        <time>2019-06-16T11:49:32Z</time>
      </trkpt>
      <trkpt lat="43.305416" lon="-3.037518">
        <ele>31.798</ele>
        <time>2019-06-16T11:49:33Z</time>
      </trkpt>
      <trkpt lat="43.305487" lon="-3.037636">
        <ele>32.322</ele>
        <time>2019-06-16T11:49:34Z</time>
      </trkpt>
      <trkpt lat="43.305548" lon="-3.037752">
        <ele>32.992</ele>
        <time>2019-06-16T11:49:35Z</time>
      </trkpt>
      <trkpt lat="43.305603" lon="-3.037849">
        <ele>32.856</ele>
        <time>2019-06-16T11:49:36Z</time>
      </trkpt>
      <trkpt lat="43.305651" lon="-3.037944">
        <ele>32.745</ele>
        <time>2019-06-16T11:49:37Z</time>
      </trkpt>
      <trkpt lat="43.305698" lon="-3.038051">
        <ele>32.575</ele>
        <time>2019-06-16T11:49:38Z</time>
      </trkpt>
      <trkpt lat="43.305731" lon="-3.038158">
        <ele>32.111</ele>
        <time>2019-06-16T11:49:39Z</time>
      </trkpt>
      <trkpt lat="43.305752" lon="-3.038260">
        <ele>31.820</ele>
        <time>2019-06-16T11:49:40Z</time>
      </trkpt>
      <trkpt lat="43.305761" lon="-3.038375">
        <ele>31.475</ele>
        <time>2019-06-16T11:49:41Z</time>
      </trkpt>
      <trkpt lat="43.305765" lon="-3.038516">
        <ele>31.228</ele>
        <time>2019-06-16T11:49:42Z</time>
      </trkpt>
      <trkpt lat="43.305771" lon="-3.038646">
        <ele>30.820</ele>
        <time>2019-06-16T11:49:43Z</time>
      </trkpt>
      <trkpt lat="43.305769" lon="-3.038786">
        <ele>30.608</ele>
        <time>2019-06-16T11:49:44Z</time>
      </trkpt>
      <trkpt lat="43.305798" lon="-3.038901">
        <ele>29.870</ele>
        <time>2019-06-16T11:49:45Z</time>
      </trkpt>
      <trkpt lat="43.305769" lon="-3.039038">
        <ele>30.164</ele>
        <time>2019-06-16T11:49:46Z</time>
      </trkpt>
      <trkpt lat="43.305741" lon="-3.039170">
        <ele>30.334</ele>
        <time>2019-06-16T11:49:47Z</time>
      </trkpt>
      <trkpt lat="43.305723" lon="-3.039292">
        <ele>30.118</ele>
        <time>2019-06-16T11:49:48Z</time>
      </trkpt>
      <trkpt lat="43.305711" lon="-3.039419">
        <ele>29.657</ele>
        <time>2019-06-16T11:49:49Z</time>
      </trkpt>
      <trkpt lat="43.305701" lon="-3.039533">
        <ele>29.217</ele>
        <time>2019-06-16T11:49:50Z</time>
      </trkpt>
      <trkpt lat="43.305691" lon="-3.039648">
        <ele>28.833</ele>
        <time>2019-06-16T11:49:51Z</time>
      </trkpt>
      <trkpt lat="43.305688" lon="-3.039771">
        <ele>28.392</ele>
        <time>2019-06-16T11:49:52Z</time>
      </trkpt>
      <trkpt lat="43.305684" lon="-3.039899">
        <ele>27.947</ele>
        <time>2019-06-16T11:49:53Z</time>
      </trkpt>
      <trkpt lat="43.305702" lon="-3.040021">
        <ele>27.429</ele>
        <time>2019-06-16T11:49:54Z</time>
      </trkpt>
      <trkpt lat="43.305738" lon="-3.040144">
        <ele>26.821</ele>
        <time>2019-06-16T11:49:55Z</time>
      </trkpt>
      <trkpt lat="43.305789" lon="-3.040264">
        <ele>26.208</ele>
        <time>2019-06-16T11:49:56Z</time>
      </trkpt>
      <trkpt lat="43.305858" lon="-3.040353">
        <ele>25.867</ele>
        <time>2019-06-16T11:49:57Z</time>
      </trkpt>
      <trkpt lat="43.305935" lon="-3.040452">
        <ele>25.071</ele>
        <time>2019-06-16T11:49:58Z</time>
      </trkpt>
      <trkpt lat="43.306020" lon="-3.040554">
        <ele>24.011</ele>
        <time>2019-06-16T11:49:59Z</time>
      </trkpt>
      <trkpt lat="43.306107" lon="-3.040632">
        <ele>23.685</ele>
        <time>2019-06-16T11:50:00Z</time>
      </trkpt>
      <trkpt lat="43.306184" lon="-3.040696">
        <ele>23.914</ele>
        <time>2019-06-16T11:50:01Z</time>
      </trkpt>
      <trkpt lat="43.306280" lon="-3.040756">
        <ele>24.324</ele>
        <time>2019-06-16T11:50:02Z</time>
      </trkpt>
      <trkpt lat="43.306365" lon="-3.040818">
        <ele>24.860</ele>
        <time>2019-06-16T11:50:03Z</time>
      </trkpt>
      <trkpt lat="43.306450" lon="-3.040885">
        <ele>25.839</ele>
        <time>2019-06-16T11:50:04Z</time>
      </trkpt>
      <trkpt lat="43.306529" lon="-3.040953">
        <ele>26.942</ele>
        <time>2019-06-16T11:50:05Z</time>
      </trkpt>
      <trkpt lat="43.306623" lon="-3.040999">
        <ele>27.922</ele>
        <time>2019-06-16T11:50:06Z</time>
      </trkpt>
      <trkpt lat="43.306704" lon="-3.041046">
        <ele>28.914</ele>
        <time>2019-06-16T11:50:07Z</time>
      </trkpt>
      <trkpt lat="43.306781" lon="-3.041079">
        <ele>30.008</ele>
        <time>2019-06-16T11:50:08Z</time>
      </trkpt>
      <trkpt lat="43.306859" lon="-3.041106">
        <ele>31.067</ele>
        <time>2019-06-16T11:50:09Z</time>
      </trkpt>
      <trkpt lat="43.306933" lon="-3.041123">
        <ele>31.931</ele>
        <time>2019-06-16T11:50:10Z</time>
      </trkpt>
      <trkpt lat="43.306997" lon="-3.041132">
        <ele>32.651</ele>
        <time>2019-06-16T11:50:11Z</time>
      </trkpt>
      <trkpt lat="43.307075" lon="-3.041155">
        <ele>33.515</ele>
        <time>2019-06-16T11:50:12Z</time>
      </trkpt>
      <trkpt lat="43.307139" lon="-3.041213">
        <ele>34.424</ele>
        <time>2019-06-16T11:50:13Z</time>
      </trkpt>
      <trkpt lat="43.307179" lon="-3.041282">
        <ele>35.184</ele>
        <time>2019-06-16T11:50:14Z</time>
      </trkpt>
      <trkpt lat="43.307199" lon="-3.041366">
        <ele>35.620</ele>
        <time>2019-06-16T11:50:15Z</time>
      </trkpt>
      <trkpt lat="43.307209" lon="-3.041454">
        <ele>36.079</ele>
        <time>2019-06-16T11:50:16Z</time>
      </trkpt>
      <trkpt lat="43.307165" lon="-3.041556">
        <ele>35.872</ele>
        <time>2019-06-16T11:50:17Z</time>
      </trkpt>
      <trkpt lat="43.307103" lon="-3.041657">
        <ele>35.213</ele>
        <time>2019-06-16T11:50:18Z</time>
      </trkpt>
      <trkpt lat="43.307049" lon="-3.041767">
        <ele>34.914</ele>
        <time>2019-06-16T11:50:19Z</time>
      </trkpt>
      <trkpt lat="43.306982" lon="-3.041899">
        <ele>34.408</ele>
        <time>2019-06-16T11:50:20Z</time>
      </trkpt>
      <trkpt lat="43.306934" lon="-3.042034">
        <ele>34.230</ele>
        <time>2019-06-16T11:50:21Z</time>
      </trkpt>
      <trkpt lat="43.306882" lon="-3.042181">
        <ele>34.094</ele>
        <time>2019-06-16T11:50:22Z</time>
      </trkpt>
      <trkpt lat="43.306832" lon="-3.042318">
        <ele>34.124</ele>
        <time>2019-06-16T11:50:23Z</time>
      </trkpt>
      <trkpt lat="43.306773" lon="-3.042473">
        <ele>34.398</ele>
        <time>2019-06-16T11:50:24Z</time>
      </trkpt>
      <trkpt lat="43.306731" lon="-3.042647">
        <ele>34.617</ele>
        <time>2019-06-16T11:50:25Z</time>
      </trkpt>
      <trkpt lat="43.306689" lon="-3.042827">
        <ele>34.647</ele>
        <time>2019-06-16T11:50:26Z</time>
      </trkpt>
      <trkpt lat="43.306637" lon="-3.043008">
        <ele>34.733</ele>
        <time>2019-06-16T11:50:27Z</time>
      </trkpt>
      <trkpt lat="43.306594" lon="-3.043183">
        <ele>35.472</ele>
        <time>2019-06-16T11:50:28Z</time>
      </trkpt>
      <trkpt lat="43.306551" lon="-3.043414">
        <ele>35.973</ele>
        <time>2019-06-16T11:50:29Z</time>
      </trkpt>
      <trkpt lat="43.306492" lon="-3.043638">
        <ele>35.985</ele>
        <time>2019-06-16T11:50:30Z</time>
      </trkpt>
      <trkpt lat="43.306446" lon="-3.043864">
        <ele>36.513</ele>
        <time>2019-06-16T11:50:31Z</time>
      </trkpt>
      <trkpt lat="43.306390" lon="-3.044085">
        <ele>36.008</ele>
        <time>2019-06-16T11:50:32Z</time>
      </trkpt>
      <trkpt lat="43.306340" lon="-3.044334">
        <ele>36.680</ele>
        <time>2019-06-16T11:50:33Z</time>
      </trkpt>
      <trkpt lat="43.306278" lon="-3.044586">
        <ele>37.674</ele>
        <time>2019-06-16T11:50:34Z</time>
      </trkpt>
      <trkpt lat="43.306233" lon="-3.044860">
        <ele>38.634</ele>
        <time>2019-06-16T11:50:35Z</time>
      </trkpt>
      <trkpt lat="43.306198" lon="-3.045117">
        <ele>39.248</ele>
        <time>2019-06-16T11:50:36Z</time>
      </trkpt>
      <trkpt lat="43.306212" lon="-3.045400">
        <ele>40.157</ele>
        <time>2019-06-16T11:50:37Z</time>
      </trkpt>
      <trkpt lat="43.306234" lon="-3.045681">
        <ele>41.217</ele>
        <time>2019-06-16T11:50:38Z</time>
      </trkpt>
      <trkpt lat="43.306245" lon="-3.045973">
        <ele>42.223</ele>
        <time>2019-06-16T11:50:39Z</time>
      </trkpt>
      <trkpt lat="43.306259" lon="-3.046249">
        <ele>42.892</ele>
        <time>2019-06-16T11:50:40Z</time>
      </trkpt>
      <trkpt lat="43.306282" lon="-3.046529">
        <ele>43.314</ele>
        <time>2019-06-16T11:50:41Z</time>
      </trkpt>
      <trkpt lat="43.306306" lon="-3.046830">
        <ele>43.854</ele>
        <time>2019-06-16T11:50:42Z</time>
      </trkpt>
      <trkpt lat="43.306335" lon="-3.047127">
        <ele>44.409</ele>
        <time>2019-06-16T11:50:43Z</time>
      </trkpt>
      <trkpt lat="43.306368" lon="-3.047424">
        <ele>45.408</ele>
        <time>2019-06-16T11:50:44Z</time>
      </trkpt>
      <trkpt lat="43.306394" lon="-3.047732">
        <ele>46.274</ele>
        <time>2019-06-16T11:50:45Z</time>
      </trkpt>
      <trkpt lat="43.306446" lon="-3.047993">
        <ele>47.698</ele>
        <time>2019-06-16T11:50:46Z</time>
      </trkpt>
      <trkpt lat="43.306478" lon="-3.048314">
        <ele>47.348</ele>
        <time>2019-06-16T11:50:47Z</time>
      </trkpt>
      <trkpt lat="43.306521" lon="-3.048626">
        <ele>47.312</ele>
        <time>2019-06-16T11:50:48Z</time>
      </trkpt>
      <trkpt lat="43.306560" lon="-3.048956">
        <ele>46.811</ele>
        <time>2019-06-16T11:50:49Z</time>
      </trkpt>
      <trkpt lat="43.306610" lon="-3.049250">
        <ele>47.381</ele>
        <time>2019-06-16T11:50:50Z</time>
      </trkpt>
      <trkpt lat="43.306650" lon="-3.049550">
        <ele>48.167</ele>
        <time>2019-06-16T11:50:51Z</time>
      </trkpt>
      <trkpt lat="43.306703" lon="-3.049848">
        <ele>48.916</ele>
        <time>2019-06-16T11:50:52Z</time>
      </trkpt>
      <trkpt lat="43.306765" lon="-3.050128">
        <ele>48.823</ele>
        <time>2019-06-16T11:50:53Z</time>
      </trkpt>
      <trkpt lat="43.306838" lon="-3.050368">
        <ele>49.383</ele>
        <time>2019-06-16T11:50:54Z</time>
      </trkpt>
      <trkpt lat="43.306949" lon="-3.050584">
        <ele>51.111</ele>
        <time>2019-06-16T11:50:55Z</time>
      </trkpt>
      <trkpt lat="43.307043" lon="-3.050760">
        <ele>51.308</ele>
        <time>2019-06-16T11:50:56Z</time>
      </trkpt>
      <trkpt lat="43.307153" lon="-3.050877">
        <ele>51.145</ele>
        <time>2019-06-16T11:50:57Z</time>
      </trkpt>
      <trkpt lat="43.307271" lon="-3.050995">
        <ele>51.429</ele>
        <time>2019-06-16T11:50:58Z</time>
      </trkpt>
      <trkpt lat="43.307384" lon="-3.051102">
        <ele>50.889</ele>
        <time>2019-06-16T11:50:59Z</time>
      </trkpt>
      <trkpt lat="43.307500" lon="-3.051147">
        <ele>49.713</ele>
        <time>2019-06-16T11:51:00Z</time>
      </trkpt>
      <trkpt lat="43.307656" lon="-3.051220">
        <ele>51.932</ele>
        <time>2019-06-16T11:51:01Z</time>
      </trkpt>
      <trkpt lat="43.307767" lon="-3.051291">
        <ele>53.832</ele>
        <time>2019-06-16T11:51:02Z</time>
      </trkpt>
      <trkpt lat="43.307855" lon="-3.051346">
        <ele>54.318</ele>
        <time>2019-06-16T11:51:03Z</time>
      </trkpt>
      <trkpt lat="43.307976" lon="-3.051462">
        <ele>54.557</ele>
        <time>2019-06-16T11:51:04Z</time>
      </trkpt>
      <trkpt lat="43.308114" lon="-3.051603">
        <ele>55.771</ele>
        <time>2019-06-16T11:51:05Z</time>
      </trkpt>
      <trkpt lat="43.308240" lon="-3.051749">
        <ele>56.941</ele>
        <time>2019-06-16T11:51:06Z</time>
      </trkpt>
      <trkpt lat="43.308348" lon="-3.051900">
        <ele>57.315</ele>
        <time>2019-06-16T11:51:07Z</time>
      </trkpt>
      <trkpt lat="43.308470" lon="-3.052032">
        <ele>58.308</ele>
        <time>2019-06-16T11:51:08Z</time>
      </trkpt>
      <trkpt lat="43.308556" lon="-3.052175">
        <ele>58.780</ele>
        <time>2019-06-16T11:51:09Z</time>
      </trkpt>
      <trkpt lat="43.308644" lon="-3.052287">
        <ele>59.294</ele>
        <time>2019-06-16T11:51:10Z</time>
      </trkpt>
      <trkpt lat="43.308748" lon="-3.052408">
        <ele>59.624</ele>
        <time>2019-06-16T11:51:11Z</time>
      </trkpt>
      <trkpt lat="43.308830" lon="-3.052543">
        <ele>59.578</ele>
        <time>2019-06-16T11:51:12Z</time>
      </trkpt>
      <trkpt lat="43.308913" lon="-3.052669">
        <ele>59.767</ele>
        <time>2019-06-16T11:51:13Z</time>
      </trkpt>
      <trkpt lat="43.309014" lon="-3.052781">
        <ele>60.347</ele>
        <time>2019-06-16T11:51:14Z</time>
      </trkpt>
      <trkpt lat="43.309111" lon="-3.052913">
        <ele>60.763</ele>
        <time>2019-06-16T11:51:15Z</time>
      </trkpt>
      <trkpt lat="43.309202" lon="-3.053043">
        <ele>60.662</ele>
        <time>2019-06-16T11:51:16Z</time>
      </trkpt>
      <trkpt lat="43.309259" lon="-3.053180">
        <ele>60.979</ele>
        <time>2019-06-16T11:51:17Z</time>
      </trkpt>
      <trkpt lat="43.309334" lon="-3.053317">
        <ele>60.705</ele>
        <time>2019-06-16T11:51:18Z</time>
      </trkpt>
      <trkpt lat="43.309412" lon="-3.053473">
        <ele>60.925</ele>
        <time>2019-06-16T11:51:19Z</time>
      </trkpt>
      <trkpt lat="43.309449" lon="-3.053654">
        <ele>61.408</ele>
        <time>2019-06-16T11:51:20Z</time>
      </trkpt>
      <trkpt lat="43.309508" lon="-3.053820">
        <ele>63.280</ele>
        <time>2019-06-16T11:51:21Z</time>
      </trkpt>
      <trkpt lat="43.309489" lon="-3.054012">
        <ele>64.124</ele>
        <time>2019-06-16T11:51:22Z</time>
      </trkpt>
      <trkpt lat="43.309465" lon="-3.054174">
        <ele>64.424</ele>
        <time>2019-06-16T11:51:23Z</time>
      </trkpt>
      <trkpt lat="43.309461" lon="-3.054348">
        <ele>64.928</ele>
        <time>2019-06-16T11:51:24Z</time>
      </trkpt>
      <trkpt lat="43.309465" lon="-3.054521">
        <ele>65.227</ele>
        <time>2019-06-16T11:51:25Z</time>
      </trkpt>
      <trkpt lat="43.309453" lon="-3.054704">
        <ele>65.147</ele>
        <time>2019-06-16T11:51:26Z</time>
      </trkpt>
      <trkpt lat="43.309468" lon="-3.054885">
        <ele>65.833</ele>
        <time>2019-06-16T11:51:27Z</time>
      </trkpt>
      <trkpt lat="43.309480" lon="-3.055053">
        <ele>66.442</ele>
        <time>2019-06-16T11:51:28Z</time>
      </trkpt>
      <trkpt lat="43.309506" lon="-3.055228">
        <ele>66.827</ele>
        <time>2019-06-16T11:51:29Z</time>
      </trkpt>
      <trkpt lat="43.309574" lon="-3.055389">
        <ele>67.568</ele>
        <time>2019-06-16T11:51:30Z</time>
      </trkpt>
      <trkpt lat="43.309637" lon="-3.055550">
        <ele>67.814</ele>
        <time>2019-06-16T11:51:31Z</time>
      </trkpt>
      <trkpt lat="43.309677" lon="-3.055648">
        <ele>68.008</ele>
        <time>2019-06-16T11:51:32Z</time>
      </trkpt>
      <trkpt lat="43.309721" lon="-3.055749">
        <ele>68.325</ele>
        <time>2019-06-16T11:51:33Z</time>
      </trkpt>
      <trkpt lat="43.309755" lon="-3.055855">
        <ele>68.049</ele>
        <time>2019-06-16T11:51:34Z</time>
      </trkpt>
      <trkpt lat="43.309857" lon="-3.055933">
        <ele>68.159</ele>
        <time>2019-06-16T11:51:35Z</time>
      </trkpt>
      <trkpt lat="43.309972" lon="-3.056014">
        <ele>68.463</ele>
        <time>2019-06-16T11:51:36Z</time>
      </trkpt>
      <trkpt lat="43.310080" lon="-3.056087">
        <ele>68.882</ele>
        <time>2019-06-16T11:51:37Z</time>
      </trkpt>
      <trkpt lat="43.310190" lon="-3.056154">
        <ele>69.272</ele>
        <time>2019-06-16T11:51:38Z</time>
      </trkpt>
      <trkpt lat="43.310301" lon="-3.056235">
        <ele>69.658</ele>
        <time>2019-06-16T11:51:39Z</time>
      </trkpt>
      <trkpt lat="43.310364" lon="-3.056316">
        <ele>69.697</ele>
        <time>2019-06-16T11:51:40Z</time>
      </trkpt>
      <trkpt lat="43.310481" lon="-3.056404">
        <ele>69.643</ele>
        <time>2019-06-16T11:51:41Z</time>
      </trkpt>
      <trkpt lat="43.310602" lon="-3.056487">
        <ele>69.864</ele>
        <time>2019-06-16T11:51:42Z</time>
      </trkpt>
      <trkpt lat="43.310716" lon="-3.056581">
        <ele>70.310</ele>
        <time>2019-06-16T11:51:43Z</time>
      </trkpt>
      <trkpt lat="43.310825" lon="-3.056678">
        <ele>70.808</ele>
        <time>2019-06-16T11:51:44Z</time>
      </trkpt>
      <trkpt lat="43.310922" lon="-3.056769">
        <ele>71.657</ele>
        <time>2019-06-16T11:51:45Z</time>
      </trkpt>
      <trkpt lat="43.311004" lon="-3.056878">
        <ele>71.621</ele>
        <time>2019-06-16T11:51:46Z</time>
      </trkpt>
      <trkpt lat="43.311123" lon="-3.056942">
        <ele>72.221</ele>
        <time>2019-06-16T11:51:47Z</time>
      </trkpt>
      <trkpt lat="43.311200" lon="-3.056984">
        <ele>73.055</ele>
        <time>2019-06-16T11:51:48Z</time>
      </trkpt>
      <trkpt lat="43.311250" lon="-3.057092">
        <ele>72.764</ele>
        <time>2019-06-16T11:51:49Z</time>
      </trkpt>
      <trkpt lat="43.311328" lon="-3.057196">
        <ele>72.654</ele>
        <time>2019-06-16T11:51:50Z</time>
      </trkpt>
      <trkpt lat="43.311367" lon="-3.057322">
        <ele>72.310</ele>
        <time>2019-06-16T11:51:51Z</time>
      </trkpt>
      <trkpt lat="43.311441" lon="-3.057430">
        <ele>73.049</ele>
        <time>2019-06-16T11:51:52Z</time>
      </trkpt>
      <trkpt lat="43.311482" lon="-3.057577">
        <ele>72.784</ele>
        <time>2019-06-16T11:51:53Z</time>
      </trkpt>
      <trkpt lat="43.311552" lon="-3.057717">
        <ele>72.907</ele>
        <time>2019-06-16T11:51:54Z</time>
      </trkpt>
      <trkpt lat="43.311644" lon="-3.057886">
        <ele>73.817</ele>
        <time>2019-06-16T11:51:55Z</time>
      </trkpt>
      <trkpt lat="43.311721" lon="-3.058057">
        <ele>74.008</ele>
        <time>2019-06-16T11:51:56Z</time>
      </trkpt>
      <trkpt lat="43.311793" lon="-3.058214">
        <ele>74.771</ele>
        <time>2019-06-16T11:51:57Z</time>
      </trkpt>
      <trkpt lat="43.311861" lon="-3.058375">
        <ele>75.395</ele>
        <time>2019-06-16T11:51:58Z</time>
      </trkpt>
      <trkpt lat="43.311935" lon="-3.058536">
        <ele>76.195</ele>
        <time>2019-06-16T11:51:59Z</time>
      </trkpt>
      <trkpt lat="43.312009" lon="-3.058690">
        <ele>76.429</ele>
        <time>2019-06-16T11:52:00Z</time>
      </trkpt>
      <trkpt lat="43.312089" lon="-3.058840">
        <ele>76.498</ele>
        <time>2019-06-16T11:52:01Z</time>
      </trkpt>
      <trkpt lat="43.312255" lon="-3.058971">
        <ele>77.658</ele>
        <time>2019-06-16T11:52:02Z</time>
      </trkpt>
      <trkpt lat="43.312352" lon="-3.059091">
        <ele>77.754</ele>
        <time>2019-06-16T11:52:03Z</time>
      </trkpt>
      <trkpt lat="43.312437" lon="-3.059212">
        <ele>77.453</ele>
        <time>2019-06-16T11:52:04Z</time>
      </trkpt>
      <trkpt lat="43.312539" lon="-3.059329">
        <ele>77.393</ele>
        <time>2019-06-16T11:52:05Z</time>
      </trkpt>
      <trkpt lat="43.312664" lon="-3.059436">
        <ele>77.565</ele>
        <time>2019-06-16T11:52:06Z</time>
      </trkpt>
      <trkpt lat="43.312801" lon="-3.059541">
        <ele>78.121</ele>
        <time>2019-06-16T11:52:07Z</time>
      </trkpt>
      <trkpt lat="43.312952" lon="-3.059650">
        <ele>78.908</ele>
        <time>2019-06-16T11:52:08Z</time>
      </trkpt>
      <trkpt lat="43.313089" lon="-3.059761">
        <ele>79.172</ele>
        <time>2019-06-16T11:52:09Z</time>
      </trkpt>
      <trkpt lat="43.313224" lon="-3.059875">
        <ele>79.896</ele>
        <time>2019-06-16T11:52:10Z</time>
      </trkpt>
      <trkpt lat="43.313368" lon="-3.059990">
        <ele>79.836</ele>
        <time>2019-06-16T11:52:11Z</time>
      </trkpt>
      <trkpt lat="43.313514" lon="-3.060102">
        <ele>80.090</ele>
        <time>2019-06-16T11:52:12Z</time>
      </trkpt>
      <trkpt lat="43.313649" lon="-3.060223">
        <ele>80.039</ele>
        <time>2019-06-16T11:52:13Z</time>
      </trkpt>
      <trkpt lat="43.313803" lon="-3.060348">
        <ele>80.619</ele>
        <time>2019-06-16T11:52:14Z</time>
      </trkpt>
      <trkpt lat="43.313941" lon="-3.060472">
        <ele>81.025</ele>
        <time>2019-06-16T11:52:15Z</time>
      </trkpt>
      <trkpt lat="43.314091" lon="-3.060591">
        <ele>81.694</ele>
        <time>2019-06-16T11:52:16Z</time>
      </trkpt>
      <trkpt lat="43.314229" lon="-3.060707">
        <ele>82.099</ele>
        <time>2019-06-16T11:52:17Z</time>
      </trkpt>
      <trkpt lat="43.314319" lon="-3.060815">
        <ele>81.207</ele>
        <time>2019-06-16T11:52:18Z</time>
      </trkpt>
      <trkpt lat="43.314430" lon="-3.060924">
        <ele>80.827</ele>
        <time>2019-06-16T11:52:19Z</time>
      </trkpt>
      <trkpt lat="43.314545" lon="-3.061035">
        <ele>81.208</ele>
        <time>2019-06-16T11:52:20Z</time>
      </trkpt>
      <trkpt lat="43.314677" lon="-3.061136">
        <ele>82.482</ele>
        <time>2019-06-16T11:52:21Z</time>
      </trkpt>
      <trkpt lat="43.314809" lon="-3.061229">
        <ele>83.586</ele>
        <time>2019-06-16T11:52:22Z</time>
      </trkpt>
      <trkpt lat="43.314929" lon="-3.061306">
        <ele>83.996</ele>
        <time>2019-06-16T11:52:23Z</time>
      </trkpt>
      <trkpt lat="43.315048" lon="-3.061372">
        <ele>83.810</ele>
        <time>2019-06-16T11:52:24Z</time>
      </trkpt>
      <trkpt lat="43.315167" lon="-3.061383">
        <ele>84.489</ele>
        <time>2019-06-16T11:52:25Z</time>
      </trkpt>
      <trkpt lat="43.315268" lon="-3.061407">
        <ele>84.339</ele>
        <time>2019-06-16T11:52:26Z</time>
      </trkpt>
      <trkpt lat="43.315358" lon="-3.061418">
        <ele>84.475</ele>
        <time>2019-06-16T11:52:27Z</time>
      </trkpt>
      <trkpt lat="43.315476" lon="-3.061426">
        <ele>84.674</ele>
        <time>2019-06-16T11:52:28Z</time>
      </trkpt>
      <trkpt lat="43.315571" lon="-3.061420">
        <ele>85.145</ele>
        <time>2019-06-16T11:52:29Z</time>
      </trkpt>
      <trkpt lat="43.315657" lon="-3.061411">
        <ele>85.447</ele>
        <time>2019-06-16T11:52:30Z</time>
      </trkpt>
      <trkpt lat="43.315756" lon="-3.061408">
        <ele>85.511</ele>
        <time>2019-06-16T11:52:31Z</time>
      </trkpt>
      <trkpt lat="43.315845" lon="-3.061395">
        <ele>85.908</ele>
        <time>2019-06-16T11:52:32Z</time>
      </trkpt>
      <trkpt lat="43.315946" lon="-3.061376">
        <ele>86.747</ele>
        <time>2019-06-16T11:52:33Z</time>
      </trkpt>
      <trkpt lat="43.316063" lon="-3.061340">
        <ele>87.641</ele>
        <time>2019-06-16T11:52:34Z</time>
      </trkpt>
      <trkpt lat="43.316168" lon="-3.061285">
        <ele>88.341</ele>
        <time>2019-06-16T11:52:35Z</time>
      </trkpt>
      <trkpt lat="43.316286" lon="-3.061225">
        <ele>88.255</ele>
        <time>2019-06-16T11:52:36Z</time>
      </trkpt>
      <trkpt lat="43.316405" lon="-3.061155">
        <ele>87.854</ele>
        <time>2019-06-16T11:52:37Z</time>
      </trkpt>
      <trkpt lat="43.316562" lon="-3.061071">
        <ele>88.254</ele>
        <time>2019-06-16T11:52:38Z</time>
      </trkpt>
      <trkpt lat="43.316706" lon="-3.060993">
        <ele>87.990</ele>
        <time>2019-06-16T11:52:39Z</time>
      </trkpt>
      <trkpt lat="43.316848" lon="-3.060927">
        <ele>87.829</ele>
        <time>2019-06-16T11:52:40Z</time>
      </trkpt>
      <trkpt lat="43.316999" lon="-3.060868">
        <ele>86.944</ele>
        <time>2019-06-16T11:52:41Z</time>
      </trkpt>
      <trkpt lat="43.317146" lon="-3.060823">
        <ele>84.405</ele>
        <time>2019-06-16T11:52:42Z</time>
      </trkpt>
      <trkpt lat="43.317286" lon="-3.060784">
        <ele>84.115</ele>
        <time>2019-06-16T11:52:43Z</time>
      </trkpt>
      <trkpt lat="43.317423" lon="-3.060753">
        <ele>86.408</ele>
        <time>2019-06-16T11:52:44Z</time>
      </trkpt>
      <trkpt lat="43.317552" lon="-3.060742">
        <ele>87.987</ele>
        <time>2019-06-16T11:52:45Z</time>
      </trkpt>
      <trkpt lat="43.317688" lon="-3.060755">
        <ele>88.631</ele>
        <time>2019-06-16T11:52:46Z</time>
      </trkpt>
      <trkpt lat="43.317794" lon="-3.060757">
        <ele>89.091</ele>
        <time>2019-06-16T11:52:47Z</time>
      </trkpt>
      <trkpt lat="43.317893" lon="-3.060790">
        <ele>89.335</ele>
        <time>2019-06-16T11:52:48Z</time>
      </trkpt>
      <trkpt lat="43.318000" lon="-3.060820">
        <ele>89.734</ele>
        <time>2019-06-16T11:52:49Z</time>
      </trkpt>
      <trkpt lat="43.318095" lon="-3.060858">
        <ele>90.024</ele>
        <time>2019-06-16T11:52:50Z</time>
      </trkpt>
      <trkpt lat="43.318185" lon="-3.060898">
        <ele>89.950</ele>
        <time>2019-06-16T11:52:51Z</time>
      </trkpt>
      <trkpt lat="43.318275" lon="-3.060958">
        <ele>90.059</ele>
        <time>2019-06-16T11:52:52Z</time>
      </trkpt>
      <trkpt lat="43.318351" lon="-3.061021">
        <ele>90.288</ele>
        <time>2019-06-16T11:52:53Z</time>
      </trkpt>
      <trkpt lat="43.318448" lon="-3.061085">
        <ele>90.024</ele>
        <time>2019-06-16T11:52:54Z</time>
      </trkpt>
      <trkpt lat="43.318529" lon="-3.061148">
        <ele>89.926</ele>
        <time>2019-06-16T11:52:55Z</time>
      </trkpt>
      <trkpt lat="43.318567" lon="-3.061209">
        <ele>90.108</ele>
        <time>2019-06-16T11:52:56Z</time>
      </trkpt>
      <trkpt lat="43.318628" lon="-3.061258">
        <ele>89.961</ele>
        <time>2019-06-16T11:52:57Z</time>
      </trkpt>
      <trkpt lat="43.318648" lon="-3.061331">
        <ele>90.365</ele>
        <time>2019-06-16T11:52:58Z</time>
      </trkpt>
      <trkpt lat="43.318709" lon="-3.061378">
        <ele>90.245</ele>
        <time>2019-06-16T11:52:59Z</time>
      </trkpt>
      <trkpt lat="43.318748" lon="-3.061426">
        <ele>90.399</ele>
        <time>2019-06-16T11:53:00Z</time>
      </trkpt>
      <trkpt lat="43.318799" lon="-3.061492">
        <ele>90.688</ele>
        <time>2019-06-16T11:53:01Z</time>
      </trkpt>
      <trkpt lat="43.318858" lon="-3.061558">
        <ele>91.058</ele>
        <time>2019-06-16T11:53:02Z</time>
      </trkpt>
      <trkpt lat="43.318906" lon="-3.061616">
        <ele>91.224</ele>
        <time>2019-06-16T11:53:03Z</time>
      </trkpt>
      <trkpt lat="43.318959" lon="-3.061682">
        <ele>91.123</ele>
        <time>2019-06-16T11:53:04Z</time>
      </trkpt>
      <trkpt lat="43.319005" lon="-3.061751">
        <ele>90.838</ele>
        <time>2019-06-16T11:53:05Z</time>
      </trkpt>
      <trkpt lat="43.319043" lon="-3.061827">
        <ele>90.770</ele>
        <time>2019-06-16T11:53:06Z</time>
      </trkpt>
      <trkpt lat="43.319073" lon="-3.061901">
        <ele>90.817</ele>
        <time>2019-06-16T11:53:07Z</time>
      </trkpt>
      <trkpt lat="43.319101" lon="-3.061976">
        <ele>90.808</ele>
        <time>2019-06-16T11:53:08Z</time>
      </trkpt>
      <trkpt lat="43.319123" lon="-3.062047">
        <ele>90.996</ele>
        <time>2019-06-16T11:53:09Z</time>
      </trkpt>
      <trkpt lat="43.319135" lon="-3.062115">
        <ele>91.010</ele>
        <time>2019-06-16T11:53:10Z</time>
      </trkpt>
      <trkpt lat="43.319154" lon="-3.062186">
        <ele>91.040</ele>
        <time>2019-06-16T11:53:11Z</time>
      </trkpt>
      <trkpt lat="43.319166" lon="-3.062261">
        <ele>91.354</ele>
        <time>2019-06-16T11:53:12Z</time>
      </trkpt>
      <trkpt lat="43.319186" lon="-3.062328">
        <ele>91.543</ele>
        <time>2019-06-16T11:53:13Z</time>
      </trkpt>
      <trkpt lat="43.319199" lon="-3.062401">
        <ele>91.823</ele>
        <time>2019-06-16T11:53:14Z</time>
      </trkpt>
      <trkpt lat="43.319215" lon="-3.062472">
        <ele>92.159</ele>
        <time>2019-06-16T11:53:15Z</time>
      </trkpt>
      <trkpt lat="43.319246" lon="-3.062600">
        <ele>92.518</ele>
        <time>2019-06-16T11:53:17Z</time>
      </trkpt>
      <trkpt lat="43.319270" lon="-3.062693">
        <ele>92.661</ele>
        <time>2019-06-16T11:53:18Z</time>
      </trkpt>
      <trkpt lat="43.319277" lon="-3.062792">
        <ele>93.121</ele>
        <time>2019-06-16T11:53:19Z</time>
      </trkpt>
      <trkpt lat="43.319296" lon="-3.062887">
        <ele>93.513</ele>
        <time>2019-06-16T11:53:20Z</time>
      </trkpt>
      <trkpt lat="43.319326" lon="-3.062985">
        <ele>93.608</ele>
        <time>2019-06-16T11:53:21Z</time>
      </trkpt>
      <trkpt lat="43.319354" lon="-3.063082">
        <ele>93.899</ele>
        <time>2019-06-16T11:53:22Z</time>
      </trkpt>
      <trkpt lat="43.319378" lon="-3.063181">
        <ele>94.153</ele>
        <time>2019-06-16T11:53:23Z</time>
      </trkpt>
      <trkpt lat="43.319406" lon="-3.063279">
        <ele>94.363</ele>
        <time>2019-06-16T11:53:24Z</time>
      </trkpt>
      <trkpt lat="43.319436" lon="-3.063371">
        <ele>94.377</ele>
        <time>2019-06-16T11:53:25Z</time>
      </trkpt>
      <trkpt lat="43.319458" lon="-3.063466">
        <ele>94.366</ele>
        <time>2019-06-16T11:53:26Z</time>
      </trkpt>
      <trkpt lat="43.319476" lon="-3.063547">
        <ele>94.366</ele>
        <time>2019-06-16T11:53:27Z</time>
      </trkpt>
      <trkpt lat="43.319496" lon="-3.063637">
        <ele>94.432</ele>
        <time>2019-06-16T11:53:28Z</time>
      </trkpt>
      <trkpt lat="43.319530" lon="-3.063731">
        <ele>94.611</ele>
        <time>2019-06-16T11:53:29Z</time>
      </trkpt>
      <trkpt lat="43.319550" lon="-3.063822">
        <ele>95.034</ele>
        <time>2019-06-16T11:53:30Z</time>
      </trkpt>
      <trkpt lat="43.319582" lon="-3.063915">
        <ele>95.255</ele>
        <time>2019-06-16T11:53:31Z</time>
      </trkpt>
      <trkpt lat="43.319614" lon="-3.064003">
        <ele>95.310</ele>
        <time>2019-06-16T11:53:32Z</time>
      </trkpt>
      <trkpt lat="43.319643" lon="-3.064079">
        <ele>95.608</ele>
        <time>2019-06-16T11:53:33Z</time>
      </trkpt>
      <trkpt lat="43.319674" lon="-3.064131">
        <ele>95.926</ele>
        <time>2019-06-16T11:53:34Z</time>
      </trkpt>
      <trkpt lat="43.319708" lon="-3.064196">
        <ele>96.360</ele>
        <time>2019-06-16T11:53:35Z</time>
      </trkpt>
      <trkpt lat="43.319758" lon="-3.064276">
        <ele>96.580</ele>
        <time>2019-06-16T11:53:36Z</time>
      </trkpt>
      <trkpt lat="43.319814" lon="-3.064350">
        <ele>96.854</ele>
        <time>2019-06-16T11:53:37Z</time>
      </trkpt>
      <trkpt lat="43.319875" lon="-3.064429">
        <ele>97.313</ele>
        <time>2019-06-16T11:53:38Z</time>
      </trkpt>
      <trkpt lat="43.319939" lon="-3.064510">
        <ele>97.813</ele>
        <time>2019-06-16T11:53:39Z</time>
      </trkpt>
      <trkpt lat="43.320011" lon="-3.064597">
        <ele>98.679</ele>
        <time>2019-06-16T11:53:40Z</time>
      </trkpt>
      <trkpt lat="43.320059" lon="-3.064665">
        <ele>99.068</ele>
        <time>2019-06-16T11:53:41Z</time>
      </trkpt>
      <trkpt lat="43.320114" lon="-3.064747">
        <ele>99.479</ele>
        <time>2019-06-16T11:53:42Z</time>
      </trkpt>
      <trkpt lat="43.320178" lon="-3.064844">
        <ele>100.205</ele>
        <time>2019-06-16T11:53:43Z</time>
      </trkpt>
      <trkpt lat="43.320286" lon="-3.064967">
        <ele>101.525</ele>
        <time>2019-06-16T11:53:44Z</time>
      </trkpt>
      <trkpt lat="43.320373" lon="-3.065087">
        <ele>102.608</ele>
        <time>2019-06-16T11:53:45Z</time>
      </trkpt>
      <trkpt lat="43.320480" lon="-3.065203">
        <ele>103.540</ele>
        <time>2019-06-16T11:53:46Z</time>
      </trkpt>
      <trkpt lat="43.320596" lon="-3.065340">
        <ele>104.444</ele>
        <time>2019-06-16T11:53:47Z</time>
      </trkpt>
      <trkpt lat="43.320717" lon="-3.065475">
        <ele>105.454</ele>
        <time>2019-06-16T11:53:48Z</time>
      </trkpt>
      <trkpt lat="43.320838" lon="-3.065621">
        <ele>106.498</ele>
        <time>2019-06-16T11:53:49Z</time>
      </trkpt>
      <trkpt lat="43.320959" lon="-3.065776">
        <ele>106.677</ele>
        <time>2019-06-16T11:53:50Z</time>
      </trkpt>
      <trkpt lat="43.321046" lon="-3.065942">
        <ele>107.647</ele>
        <time>2019-06-16T11:53:51Z</time>
      </trkpt>
      <trkpt lat="43.321148" lon="-3.066114">
        <ele>108.783</ele>
        <time>2019-06-16T11:53:52Z</time>
      </trkpt>
      <trkpt lat="43.321256" lon="-3.066287">
        <ele>109.332</ele>
        <time>2019-06-16T11:53:53Z</time>
      </trkpt>
      <trkpt lat="43.321354" lon="-3.066462">
        <ele>110.283</ele>
        <time>2019-06-16T11:53:54Z</time>
      </trkpt>
      <trkpt lat="43.321439" lon="-3.066638">
        <ele>110.925</ele>
        <time>2019-06-16T11:53:55Z</time>
      </trkpt>
      <trkpt lat="43.321502" lon="-3.066807">
        <ele>111.117</ele>
        <time>2019-06-16T11:53:56Z</time>
      </trkpt>
      <trkpt lat="43.321559" lon="-3.066955">
        <ele>111.808</ele>
        <time>2019-06-16T11:53:57Z</time>
      </trkpt>
      <trkpt lat="43.321598" lon="-3.067079">
        <ele>112.481</ele>
        <time>2019-06-16T11:53:58Z</time>
      </trkpt>
      <trkpt lat="43.321638" lon="-3.067209">
        <ele>113.355</ele>
        <time>2019-06-16T11:53:59Z</time>
      </trkpt>
      <trkpt lat="43.321665" lon="-3.067310">
        <ele>114.035</ele>
        <time>2019-06-16T11:54:00Z</time>
      </trkpt>
      <trkpt lat="43.321677" lon="-3.067397">
        <ele>114.199</ele>
        <time>2019-06-16T11:54:01Z</time>
      </trkpt>
      <trkpt lat="43.321682" lon="-3.067495">
        <ele>114.218</ele>
        <time>2019-06-16T11:54:03Z</time>
      </trkpt>
      <trkpt lat="43.321693" lon="-3.067600">
        <ele>114.638</ele>
        <time>2019-06-16T11:54:06Z</time>
      </trkpt>
      <trkpt lat="43.321700" lon="-3.067716">
        <ele>115.014</ele>
        <time>2019-06-16T11:54:08Z</time>
      </trkpt>
      <trkpt lat="43.321702" lon="-3.067788">
        <ele>115.363</ele>
        <time>2019-06-16T11:54:09Z</time>
      </trkpt>
      <trkpt lat="43.321704" lon="-3.067850">
        <ele>115.847</ele>
        <time>2019-06-16T11:54:10Z</time>
      </trkpt>
      <trkpt lat="43.321703" lon="-3.067929">
        <ele>116.329</ele>
        <time>2019-06-16T11:54:11Z</time>
      </trkpt>
      <trkpt lat="43.321697" lon="-3.068044">
        <ele>117.021</ele>
        <time>2019-06-16T11:54:12Z</time>
      </trkpt>
      <trkpt lat="43.321693" lon="-3.068145">
        <ele>117.408</ele>
        <time>2019-06-16T11:54:13Z</time>
      </trkpt>
      <trkpt lat="43.321691" lon="-3.068306">
        <ele>118.187</ele>
        <time>2019-06-16T11:54:14Z</time>
      </trkpt>
      <trkpt lat="43.321660" lon="-3.068433">
        <ele>118.761</ele>
        <time>2019-06-16T11:54:15Z</time>
      </trkpt>
      <trkpt lat="43.321679" lon="-3.068595">
        <ele>119.991</ele>
        <time>2019-06-16T11:54:16Z</time>
      </trkpt>
      <trkpt lat="43.321706" lon="-3.068772">
        <ele>120.415</ele>
        <time>2019-06-16T11:54:17Z</time>
      </trkpt>
      <trkpt lat="43.321757" lon="-3.068967">
        <ele>121.014</ele>
        <time>2019-06-16T11:54:18Z</time>
      </trkpt>
      <trkpt lat="43.321814" lon="-3.069141">
        <ele>121.214</ele>
        <time>2019-06-16T11:54:19Z</time>
      </trkpt>
      <trkpt lat="43.321885" lon="-3.069339">
        <ele>121.130</ele>
        <time>2019-06-16T11:54:20Z</time>
      </trkpt>
      <trkpt lat="43.321950" lon="-3.069538">
        <ele>121.889</ele>
        <time>2019-06-16T11:54:21Z</time>
      </trkpt>
      <trkpt lat="43.322022" lon="-3.069717">
        <ele>122.413</ele>
        <time>2019-06-16T11:54:22Z</time>
      </trkpt>
      <trkpt lat="43.322091" lon="-3.069899">
        <ele>121.843</ele>
        <time>2019-06-16T11:54:23Z</time>
      </trkpt>
      <trkpt lat="43.322159" lon="-3.070056">
        <ele>122.107</ele>
        <time>2019-06-16T11:54:24Z</time>
      </trkpt>
      <trkpt lat="43.322223" lon="-3.070224">
        <ele>123.208</ele>
        <time>2019-06-16T11:54:25Z</time>
      </trkpt>
      <trkpt lat="43.322279" lon="-3.070392">
        <ele>122.914</ele>
        <time>2019-06-16T11:54:26Z</time>
      </trkpt>
      <trkpt lat="43.322337" lon="-3.070555">
        <ele>122.538</ele>
        <time>2019-06-16T11:54:27Z</time>
      </trkpt>
      <trkpt lat="43.322369" lon="-3.070748">
        <ele>122.298</ele>
        <time>2019-06-16T11:54:28Z</time>
      </trkpt>
      <trkpt lat="43.322391" lon="-3.070933">
        <ele>122.042</ele>
        <time>2019-06-16T11:54:29Z</time>
      </trkpt>
      <trkpt lat="43.322411" lon="-3.071113">
        <ele>122.121</ele>
        <time>2019-06-16T11:54:30Z</time>
      </trkpt>
      <trkpt lat="43.322374" lon="-3.071306">
        <ele>122.321</ele>
        <time>2019-06-16T11:54:31Z</time>
      </trkpt>
      <trkpt lat="43.322352" lon="-3.071490">
        <ele>122.527</ele>
        <time>2019-06-16T11:54:32Z</time>
      </trkpt>
      <trkpt lat="43.322287" lon="-3.071684">
        <ele>122.076</ele>
        <time>2019-06-16T11:54:33Z</time>
      </trkpt>
      <trkpt lat="43.322229" lon="-3.071870">
        <ele>122.576</ele>
        <time>2019-06-16T11:54:34Z</time>
      </trkpt>
      <trkpt lat="43.322170" lon="-3.072043">
        <ele>122.790</ele>
        <time>2019-06-16T11:54:35Z</time>
      </trkpt>
      <trkpt lat="43.322111" lon="-3.072223">
        <ele>122.819</ele>
        <time>2019-06-16T11:54:36Z</time>
      </trkpt>
      <trkpt lat="43.322053" lon="-3.072391">
        <ele>123.408</ele>
        <time>2019-06-16T11:54:37Z</time>
      </trkpt>
      <trkpt lat="43.322000" lon="-3.072515">
        <ele>123.630</ele>
        <time>2019-06-16T11:54:38Z</time>
      </trkpt>
      <trkpt lat="43.321954" lon="-3.072676">
        <ele>123.734</ele>
        <time>2019-06-16T11:54:39Z</time>
      </trkpt>
      <trkpt lat="43.321916" lon="-3.072847">
        <ele>123.564</ele>
        <time>2019-06-16T11:54:40Z</time>
      </trkpt>
      <trkpt lat="43.321875" lon="-3.073025">
        <ele>122.488</ele>
        <time>2019-06-16T11:54:41Z</time>
      </trkpt>
      <trkpt lat="43.321826" lon="-3.073217">
        <ele>122.117</ele>
        <time>2019-06-16T11:54:42Z</time>
      </trkpt>
      <trkpt lat="43.321791" lon="-3.073402">
        <ele>122.037</ele>
        <time>2019-06-16T11:54:43Z</time>
      </trkpt>
      <trkpt lat="43.321811" lon="-3.073632">
        <ele>121.483</ele>
        <time>2019-06-16T11:54:44Z</time>
      </trkpt>
      <trkpt lat="43.321801" lon="-3.073838">
        <ele>120.372</ele>
        <time>2019-06-16T11:54:45Z</time>
      </trkpt>
      <trkpt lat="43.321798" lon="-3.074028">
        <ele>119.334</ele>
        <time>2019-06-16T11:54:46Z</time>
      </trkpt>
      <trkpt lat="43.321823" lon="-3.074200">
        <ele>118.255</ele>
        <time>2019-06-16T11:54:47Z</time>
      </trkpt>
      <trkpt lat="43.321857" lon="-3.074402">
        <ele>117.410</ele>
        <time>2019-06-16T11:54:48Z</time>
      </trkpt>
      <trkpt lat="43.321908" lon="-3.074607">
        <ele>116.108</ele>
        <time>2019-06-16T11:54:49Z</time>
      </trkpt>
      <trkpt lat="43.321966" lon="-3.074821">
        <ele>115.046</ele>
        <time>2019-06-16T11:54:50Z</time>
      </trkpt>
      <trkpt lat="43.322020" lon="-3.075030">
        <ele>114.760</ele>
        <time>2019-06-16T11:54:51Z</time>
      </trkpt>
      <trkpt lat="43.322145" lon="-3.075255">
        <ele>113.370</ele>
        <time>2019-06-16T11:54:52Z</time>
      </trkpt>
      <trkpt lat="43.322252" lon="-3.075470">
        <ele>112.234</ele>
        <time>2019-06-16T11:54:53Z</time>
      </trkpt>
      <trkpt lat="43.322349" lon="-3.075675">
        <ele>110.543</ele>
        <time>2019-06-16T11:54:54Z</time>
      </trkpt>
      <trkpt lat="43.322416" lon="-3.075877">
        <ele>109.033</ele>
        <time>2019-06-16T11:54:55Z</time>
      </trkpt>
      <trkpt lat="43.322489" lon="-3.076083">
        <ele>109.089</ele>
        <time>2019-06-16T11:54:56Z</time>
      </trkpt>
      <trkpt lat="43.322555" lon="-3.076281">
        <ele>107.758</ele>
        <time>2019-06-16T11:54:57Z</time>
      </trkpt>
      <trkpt lat="43.322604" lon="-3.076493">
        <ele>107.043</ele>
        <time>2019-06-16T11:54:58Z</time>
      </trkpt>
      <trkpt lat="43.322667" lon="-3.076714">
        <ele>106.664</ele>
        <time>2019-06-16T11:54:59Z</time>
      </trkpt>
      <trkpt lat="43.322718" lon="-3.076935">
        <ele>105.910</ele>
        <time>2019-06-16T11:55:00Z</time>
      </trkpt>
      <trkpt lat="43.322752" lon="-3.077157">
        <ele>104.708</ele>
        <time>2019-06-16T11:55:01Z</time>
      </trkpt>
      <trkpt lat="43.322791" lon="-3.077374">
        <ele>103.457</ele>
        <time>2019-06-16T11:55:02Z</time>
      </trkpt>
      <trkpt lat="43.322820" lon="-3.077592">
        <ele>102.431</ele>
        <time>2019-06-16T11:55:03Z</time>
      </trkpt>
      <trkpt lat="43.322840" lon="-3.077803">
        <ele>101.731</ele>
        <time>2019-06-16T11:55:04Z</time>
      </trkpt>
      <trkpt lat="43.322890" lon="-3.078020">
        <ele>100.795</ele>
        <time>2019-06-16T11:55:05Z</time>
      </trkpt>
      <trkpt lat="43.322902" lon="-3.078211">
        <ele>99.714</ele>
        <time>2019-06-16T11:55:06Z</time>
      </trkpt>
      <trkpt lat="43.322905" lon="-3.078410">
        <ele>98.614</ele>
        <time>2019-06-16T11:55:07Z</time>
      </trkpt>
      <trkpt lat="43.322895" lon="-3.078557">
        <ele>97.730</ele>
        <time>2019-06-16T11:55:08Z</time>
      </trkpt>
      <trkpt lat="43.322935" lon="-3.078719">
        <ele>97.169</ele>
        <time>2019-06-16T11:55:09Z</time>
      </trkpt>
      <trkpt lat="43.322953" lon="-3.078866">
        <ele>96.527</ele>
        <time>2019-06-16T11:55:10Z</time>
      </trkpt>
      <trkpt lat="43.322957" lon="-3.079011">
        <ele>96.268</ele>
        <time>2019-06-16T11:55:11Z</time>
      </trkpt>
      <trkpt lat="43.322933" lon="-3.079143">
        <ele>96.014</ele>
        <time>2019-06-16T11:55:12Z</time>
      </trkpt>
      <trkpt lat="43.322879" lon="-3.079244">
        <ele>95.708</ele>
        <time>2019-06-16T11:55:13Z</time>
      </trkpt>
      <trkpt lat="43.322814" lon="-3.079330">
        <ele>95.435</ele>
        <time>2019-06-16T11:55:14Z</time>
      </trkpt>
      <trkpt lat="43.322728" lon="-3.079397">
        <ele>95.069</ele>
        <time>2019-06-16T11:55:15Z</time>
      </trkpt>
      <trkpt lat="43.322636" lon="-3.079477">
        <ele>93.939</ele>
        <time>2019-06-16T11:55:16Z</time>
      </trkpt>
      <trkpt lat="43.322522" lon="-3.079566">
        <ele>92.663</ele>
        <time>2019-06-16T11:55:17Z</time>
      </trkpt>
      <trkpt lat="43.322389" lon="-3.079649">
        <ele>91.632</ele>
        <time>2019-06-16T11:55:18Z</time>
      </trkpt>
      <trkpt lat="43.322247" lon="-3.079747">
        <ele>90.542</ele>
        <time>2019-06-16T11:55:19Z</time>
      </trkpt>
      <trkpt lat="43.322088" lon="-3.079835">
        <ele>88.428</ele>
        <time>2019-06-16T11:55:20Z</time>
      </trkpt>
      <trkpt lat="43.321923" lon="-3.079915">
        <ele>87.647</ele>
        <time>2019-06-16T11:55:21Z</time>
      </trkpt>
      <trkpt lat="43.321752" lon="-3.080010">
        <ele>86.888</ele>
        <time>2019-06-16T11:55:22Z</time>
      </trkpt>
      <trkpt lat="43.321587" lon="-3.080107">
        <ele>85.124</ele>
        <time>2019-06-16T11:55:23Z</time>
      </trkpt>
      <trkpt lat="43.321453" lon="-3.080235">
        <ele>84.026</ele>
        <time>2019-06-16T11:55:24Z</time>
      </trkpt>
      <trkpt lat="43.321333" lon="-3.080401">
        <ele>83.308</ele>
        <time>2019-06-16T11:55:25Z</time>
      </trkpt>
      <trkpt lat="43.321204" lon="-3.080585">
        <ele>82.871</ele>
        <time>2019-06-16T11:55:26Z</time>
      </trkpt>
      <trkpt lat="43.321086" lon="-3.080781">
        <ele>83.455</ele>
        <time>2019-06-16T11:55:27Z</time>
      </trkpt>
      <trkpt lat="43.320968" lon="-3.080995">
        <ele>83.365</ele>
        <time>2019-06-16T11:55:28Z</time>
      </trkpt>
      <trkpt lat="43.320855" lon="-3.081217">
        <ele>82.719</ele>
        <time>2019-06-16T11:55:29Z</time>
      </trkpt>
      <trkpt lat="43.320746" lon="-3.081446">
        <ele>81.928</ele>
        <time>2019-06-16T11:55:30Z</time>
      </trkpt>
      <trkpt lat="43.320635" lon="-3.081664">
        <ele>81.138</ele>
        <time>2019-06-16T11:55:31Z</time>
      </trkpt>
      <trkpt lat="43.320526" lon="-3.081889">
        <ele>79.494</ele>
        <time>2019-06-16T11:55:32Z</time>
      </trkpt>
      <trkpt lat="43.320408" lon="-3.082135">
        <ele>78.523</ele>
        <time>2019-06-16T11:55:33Z</time>
      </trkpt>
      <trkpt lat="43.320290" lon="-3.082372">
        <ele>78.357</ele>
        <time>2019-06-16T11:55:34Z</time>
      </trkpt>
      <trkpt lat="43.320176" lon="-3.082613">
        <ele>78.000</ele>
        <time>2019-06-16T11:55:35Z</time>
      </trkpt>
      <trkpt lat="43.320057" lon="-3.082856">
        <ele>77.920</ele>
        <time>2019-06-16T11:55:36Z</time>
      </trkpt>
      <trkpt lat="43.319941" lon="-3.083085">
        <ele>77.508</ele>
        <time>2019-06-16T11:55:37Z</time>
      </trkpt>
      <trkpt lat="43.319825" lon="-3.083314">
        <ele>78.058</ele>
        <time>2019-06-16T11:55:38Z</time>
      </trkpt>
      <trkpt lat="43.319700" lon="-3.083503">
        <ele>77.472</ele>
        <time>2019-06-16T11:55:39Z</time>
      </trkpt>
      <trkpt lat="43.319573" lon="-3.083678">
        <ele>77.662</ele>
        <time>2019-06-16T11:55:40Z</time>
      </trkpt>
      <trkpt lat="43.319441" lon="-3.083862">
        <ele>78.326</ele>
        <time>2019-06-16T11:55:41Z</time>
      </trkpt>
      <trkpt lat="43.319321" lon="-3.084037">
        <ele>79.385</ele>
        <time>2019-06-16T11:55:42Z</time>
      </trkpt>
      <trkpt lat="43.319210" lon="-3.084216">
        <ele>79.995</ele>
        <time>2019-06-16T11:55:43Z</time>
      </trkpt>
      <trkpt lat="43.319124" lon="-3.084410">
        <ele>79.261</ele>
        <time>2019-06-16T11:55:44Z</time>
      </trkpt>
      <trkpt lat="43.319038" lon="-3.084601">
        <ele>76.690</ele>
        <time>2019-06-16T11:55:45Z</time>
      </trkpt>
      <trkpt lat="43.318977" lon="-3.084822">
        <ele>74.493</ele>
        <time>2019-06-16T11:55:46Z</time>
      </trkpt>
      <trkpt lat="43.318935" lon="-3.085040">
        <ele>73.565</ele>
        <time>2019-06-16T11:55:47Z</time>
      </trkpt>
      <trkpt lat="43.318886" lon="-3.085297">
        <ele>71.921</ele>
        <time>2019-06-16T11:55:48Z</time>
      </trkpt>
      <trkpt lat="43.318867" lon="-3.085587">
        <ele>71.508</ele>
        <time>2019-06-16T11:55:49Z</time>
      </trkpt>
      <trkpt lat="43.318823" lon="-3.085852">
        <ele>70.452</ele>
        <time>2019-06-16T11:55:50Z</time>
      </trkpt>
      <trkpt lat="43.318785" lon="-3.086122">
        <ele>70.176</ele>
        <time>2019-06-16T11:55:51Z</time>
      </trkpt>
      <trkpt lat="43.318710" lon="-3.086373">
        <ele>68.946</ele>
        <time>2019-06-16T11:55:52Z</time>
      </trkpt>
      <trkpt lat="43.318654" lon="-3.086627">
        <ele>67.890</ele>
        <time>2019-06-16T11:55:53Z</time>
      </trkpt>
      <trkpt lat="43.318564" lon="-3.086849">
        <ele>66.949</ele>
        <time>2019-06-16T11:55:54Z</time>
      </trkpt>
      <trkpt lat="43.318483" lon="-3.087076">
        <ele>67.519</ele>
        <time>2019-06-16T11:55:55Z</time>
      </trkpt>
      <trkpt lat="43.318373" lon="-3.087248">
        <ele>65.925</ele>
        <time>2019-06-16T11:55:56Z</time>
      </trkpt>
      <trkpt lat="43.318259" lon="-3.087435">
        <ele>65.984</ele>
        <time>2019-06-16T11:55:57Z</time>
      </trkpt>
      <trkpt lat="43.318171" lon="-3.087598">
        <ele>65.787</ele>
        <time>2019-06-16T11:55:58Z</time>
      </trkpt>
      <trkpt lat="43.318077" lon="-3.087775">
        <ele>64.742</ele>
        <time>2019-06-16T11:55:59Z</time>
      </trkpt>
      <trkpt lat="43.318046" lon="-3.087975">
        <ele>64.526</ele>
        <time>2019-06-16T11:56:00Z</time>
      </trkpt>
      <trkpt lat="43.318023" lon="-3.088181">
        <ele>64.508</ele>
        <time>2019-06-16T11:56:01Z</time>
      </trkpt>
      <trkpt lat="43.317998" lon="-3.088394">
        <ele>63.911</ele>
        <time>2019-06-16T11:56:02Z</time>
      </trkpt>
      <trkpt lat="43.317981" lon="-3.088640">
        <ele>62.855</ele>
        <time>2019-06-16T11:56:03Z</time>
      </trkpt>
      <trkpt lat="43.317964" lon="-3.088889">
        <ele>63.065</ele>
        <time>2019-06-16T11:56:04Z</time>
      </trkpt>
      <trkpt lat="43.317956" lon="-3.089128">
        <ele>64.479</ele>
        <time>2019-06-16T11:56:05Z</time>
      </trkpt>
      <trkpt lat="43.317944" lon="-3.089374">
        <ele>65.818</ele>
        <time>2019-06-16T11:56:06Z</time>
      </trkpt>
      <trkpt lat="43.317929" lon="-3.089606">
        <ele>67.318</ele>
        <time>2019-06-16T11:56:07Z</time>
      </trkpt>
      <trkpt lat="43.317909" lon="-3.089824">
        <ele>68.364</ele>
        <time>2019-06-16T11:56:08Z</time>
      </trkpt>
      <trkpt lat="43.317892" lon="-3.090032">
        <ele>68.933</ele>
        <time>2019-06-16T11:56:09Z</time>
      </trkpt>
      <trkpt lat="43.317878" lon="-3.090231">
        <ele>69.682</ele>
        <time>2019-06-16T11:56:10Z</time>
      </trkpt>
      <trkpt lat="43.317865" lon="-3.090415">
        <ele>70.543</ele>
        <time>2019-06-16T11:56:11Z</time>
      </trkpt>
      <trkpt lat="43.317892" lon="-3.090612">
        <ele>71.717</ele>
        <time>2019-06-16T11:56:12Z</time>
      </trkpt>
      <trkpt lat="43.317892" lon="-3.090820">
        <ele>72.808</ele>
        <time>2019-06-16T11:56:13Z</time>
      </trkpt>
      <trkpt lat="43.317869" lon="-3.091029">
        <ele>73.611</ele>
        <time>2019-06-16T11:56:14Z</time>
      </trkpt>
      <trkpt lat="43.317853" lon="-3.091248">
        <ele>74.325</ele>
        <time>2019-06-16T11:56:15Z</time>
      </trkpt>
      <trkpt lat="43.317837" lon="-3.091461">
        <ele>75.285</ele>
        <time>2019-06-16T11:56:16Z</time>
      </trkpt>
      <trkpt lat="43.317816" lon="-3.091669">
        <ele>76.619</ele>
        <time>2019-06-16T11:56:17Z</time>
      </trkpt>
      <trkpt lat="43.317820" lon="-3.091869">
        <ele>78.058</ele>
        <time>2019-06-16T11:56:18Z</time>
      </trkpt>
      <trkpt lat="43.317804" lon="-3.092055">
        <ele>78.698</ele>
        <time>2019-06-16T11:56:19Z</time>
      </trkpt>
      <trkpt lat="43.317775" lon="-3.092241">
        <ele>79.064</ele>
        <time>2019-06-16T11:56:20Z</time>
      </trkpt>
      <trkpt lat="43.317774" lon="-3.092434">
        <ele>78.913</ele>
        <time>2019-06-16T11:56:21Z</time>
      </trkpt>
      <trkpt lat="43.317789" lon="-3.092631">
        <ele>79.637</ele>
        <time>2019-06-16T11:56:22Z</time>
      </trkpt>
      <trkpt lat="43.317822" lon="-3.092826">
        <ele>80.749</ele>
        <time>2019-06-16T11:56:23Z</time>
      </trkpt>
      <trkpt lat="43.317856" lon="-3.093014">
        <ele>81.713</ele>
        <time>2019-06-16T11:56:24Z</time>
      </trkpt>
      <trkpt lat="43.317897" lon="-3.093199">
        <ele>82.508</ele>
        <time>2019-06-16T11:56:25Z</time>
      </trkpt>
      <trkpt lat="43.317937" lon="-3.093381">
        <ele>83.426</ele>
        <time>2019-06-16T11:56:26Z</time>
      </trkpt>
      <trkpt lat="43.317982" lon="-3.093557">
        <ele>84.290</ele>
        <time>2019-06-16T11:56:27Z</time>
      </trkpt>
      <trkpt lat="43.318024" lon="-3.093724">
        <ele>84.770</ele>
        <time>2019-06-16T11:56:28Z</time>
      </trkpt>
      <trkpt lat="43.318058" lon="-3.093889">
        <ele>85.014</ele>
        <time>2019-06-16T11:56:29Z</time>
      </trkpt>
      <trkpt lat="43.318104" lon="-3.094036">
        <ele>85.293</ele>
        <time>2019-06-16T11:56:30Z</time>
      </trkpt>
      <trkpt lat="43.318144" lon="-3.094189">
        <ele>85.343</ele>
        <time>2019-06-16T11:56:31Z</time>
      </trkpt>
      <trkpt lat="43.318190" lon="-3.094327">
        <ele>85.549</ele>
        <time>2019-06-16T11:56:32Z</time>
      </trkpt>
      <trkpt lat="43.318222" lon="-3.094442">
        <ele>85.638</ele>
        <time>2019-06-16T11:56:33Z</time>
      </trkpt>
      <trkpt lat="43.318250" lon="-3.094552">
        <ele>85.455</ele>
        <time>2019-06-16T11:56:34Z</time>
      </trkpt>
      <trkpt lat="43.318277" lon="-3.094637">
        <ele>85.207</ele>
        <time>2019-06-16T11:56:35Z</time>
      </trkpt>
      <trkpt lat="43.318302" lon="-3.094710">
        <ele>85.017</ele>
        <time>2019-06-16T11:56:36Z</time>
      </trkpt>
      <trkpt lat="43.318343" lon="-3.094797">
        <ele>84.808</ele>
        <time>2019-06-16T11:56:38Z</time>
      </trkpt>
      <trkpt lat="43.318374" lon="-3.094856">
        <ele>84.778</ele>
        <time>2019-06-16T11:56:40Z</time>
      </trkpt>
      <trkpt lat="43.318434" lon="-3.094868">
        <ele>84.832</ele>
        <time>2019-06-16T11:56:41Z</time>
      </trkpt>
      <trkpt lat="43.318479" lon="-3.094889">
        <ele>84.982</ele>
        <time>2019-06-16T11:56:42Z</time>
      </trkpt>
      <trkpt lat="43.318531" lon="-3.094981">
        <ele>84.866</ele>
        <time>2019-06-16T11:56:44Z</time>
      </trkpt>
      <trkpt lat="43.318518" lon="-3.095131">
        <ele>84.445</ele>
        <time>2019-06-16T11:56:46Z</time>
      </trkpt>
      <trkpt lat="43.318502" lon="-3.095219">
        <ele>84.185</ele>
        <time>2019-06-16T11:56:47Z</time>
      </trkpt>
      <trkpt lat="43.318496" lon="-3.095301">
        <ele>84.061</ele>
        <time>2019-06-16T11:56:48Z</time>
      </trkpt>
      <trkpt lat="43.318537" lon="-3.095377">
        <ele>83.740</ele>
        <time>2019-06-16T11:56:49Z</time>
      </trkpt>
      <trkpt lat="43.318561" lon="-3.095459">
        <ele>83.521</ele>
        <time>2019-06-16T11:56:50Z</time>
      </trkpt>
      <trkpt lat="43.318569" lon="-3.095562">
        <ele>83.241</ele>
        <time>2019-06-16T11:56:51Z</time>
      </trkpt>
      <trkpt lat="43.318584" lon="-3.095656">
        <ele>83.105</ele>
        <time>2019-06-16T11:56:52Z</time>
      </trkpt>
      <trkpt lat="43.318617" lon="-3.095765">
        <ele>83.008</ele>
        <time>2019-06-16T11:56:53Z</time>
      </trkpt>
      <trkpt lat="43.318646" lon="-3.095865">
        <ele>83.015</ele>
        <time>2019-06-16T11:56:54Z</time>
      </trkpt>
      <trkpt lat="43.318677" lon="-3.095966">
        <ele>83.019</ele>
        <time>2019-06-16T11:56:55Z</time>
      </trkpt>
      <trkpt lat="43.318695" lon="-3.096073">
        <ele>83.039</ele>
        <time>2019-06-16T11:56:56Z</time>
      </trkpt>
      <trkpt lat="43.318718" lon="-3.096174">
        <ele>82.783</ele>
        <time>2019-06-16T11:56:57Z</time>
      </trkpt>
      <trkpt lat="43.318728" lon="-3.096271">
        <ele>82.292</ele>
        <time>2019-06-16T11:56:58Z</time>
      </trkpt>
      <trkpt lat="43.318752" lon="-3.096373">
        <ele>81.652</ele>
        <time>2019-06-16T11:56:59Z</time>
      </trkpt>
      <trkpt lat="43.318774" lon="-3.096477">
        <ele>81.448</ele>
        <time>2019-06-16T11:57:00Z</time>
      </trkpt>
      <trkpt lat="43.318790" lon="-3.096578">
        <ele>81.457</ele>
        <time>2019-06-16T11:57:01Z</time>
      </trkpt>
      <trkpt lat="43.318823" lon="-3.096699">
        <ele>81.237</ele>
        <time>2019-06-16T11:57:02Z</time>
      </trkpt>
      <trkpt lat="43.318849" lon="-3.096810">
        <ele>81.149</ele>
        <time>2019-06-16T11:57:03Z</time>
      </trkpt>
      <trkpt lat="43.318895" lon="-3.096928">
        <ele>81.013</ele>
        <time>2019-06-16T11:57:04Z</time>
      </trkpt>
      <trkpt lat="43.318933" lon="-3.097038">
        <ele>81.308</ele>
        <time>2019-06-16T11:57:05Z</time>
      </trkpt>
      <trkpt lat="43.318961" lon="-3.097147">
        <ele>81.336</ele>
        <time>2019-06-16T11:57:06Z</time>
      </trkpt>
      <trkpt lat="43.318985" lon="-3.097259">
        <ele>81.290</ele>
        <time>2019-06-16T11:57:07Z</time>
      </trkpt>
      <trkpt lat="43.319011" lon="-3.097379">
        <ele>80.950</ele>
        <time>2019-06-16T11:57:08Z</time>
      </trkpt>
      <trkpt lat="43.319052" lon="-3.097496">
        <ele>80.614</ele>
        <time>2019-06-16T11:57:09Z</time>
      </trkpt>
      <trkpt lat="43.319084" lon="-3.097610">
        <ele>80.143</ele>
        <time>2019-06-16T11:57:10Z</time>
      </trkpt>
      <trkpt lat="43.319116" lon="-3.097721">
        <ele>79.583</ele>
        <time>2019-06-16T11:57:11Z</time>
      </trkpt>
      <trkpt lat="43.319146" lon="-3.097829">
        <ele>78.979</ele>
        <time>2019-06-16T11:57:12Z</time>
      </trkpt>
      <trkpt lat="43.319139" lon="-3.097922">
        <ele>78.688</ele>
        <time>2019-06-16T11:57:13Z</time>
      </trkpt>
      <trkpt lat="43.319159" lon="-3.098057">
        <ele>78.086</ele>
        <time>2019-06-16T11:57:14Z</time>
      </trkpt>
      <trkpt lat="43.319221" lon="-3.098170">
        <ele>77.660</ele>
        <time>2019-06-16T11:57:15Z</time>
      </trkpt>
      <trkpt lat="43.319235" lon="-3.098283">
        <ele>77.226</ele>
        <time>2019-06-16T11:57:16Z</time>
      </trkpt>
      <trkpt lat="43.319264" lon="-3.098390">
        <ele>76.808</ele>
        <time>2019-06-16T11:57:17Z</time>
      </trkpt>
      <trkpt lat="43.319294" lon="-3.098539">
        <ele>76.351</ele>
        <time>2019-06-16T11:57:18Z</time>
      </trkpt>
      <trkpt lat="43.319340" lon="-3.098690">
        <ele>75.865</ele>
        <time>2019-06-16T11:57:19Z</time>
      </trkpt>
      <trkpt lat="43.319374" lon="-3.098851">
        <ele>75.485</ele>
        <time>2019-06-16T11:57:20Z</time>
      </trkpt>
      <trkpt lat="43.319411" lon="-3.099013">
        <ele>74.789</ele>
        <time>2019-06-16T11:57:21Z</time>
      </trkpt>
      <trkpt lat="43.319443" lon="-3.099205">
        <ele>73.998</ele>
        <time>2019-06-16T11:57:22Z</time>
      </trkpt>
      <trkpt lat="43.319486" lon="-3.099371">
        <ele>72.928</ele>
        <time>2019-06-16T11:57:23Z</time>
      </trkpt>
      <trkpt lat="43.319539" lon="-3.099539">
        <ele>71.994</ele>
        <time>2019-06-16T11:57:24Z</time>
      </trkpt>
      <trkpt lat="43.319590" lon="-3.099705">
        <ele>70.923</ele>
        <time>2019-06-16T11:57:25Z</time>
      </trkpt>
      <trkpt lat="43.319633" lon="-3.099872">
        <ele>70.147</ele>
        <time>2019-06-16T11:57:26Z</time>
      </trkpt>
      <trkpt lat="43.319731" lon="-3.100029">
        <ele>68.929</ele>
        <time>2019-06-16T11:57:27Z</time>
      </trkpt>
      <trkpt lat="43.319777" lon="-3.100196">
        <ele>68.321</ele>
        <time>2019-06-16T11:57:28Z</time>
      </trkpt>
      <trkpt lat="43.319837" lon="-3.100350">
        <ele>67.908</ele>
        <time>2019-06-16T11:57:29Z</time>
      </trkpt>
      <trkpt lat="43.319890" lon="-3.100508">
        <ele>67.547</ele>
        <time>2019-06-16T11:57:30Z</time>
      </trkpt>
      <trkpt lat="43.319931" lon="-3.100662">
        <ele>66.921</ele>
        <time>2019-06-16T11:57:31Z</time>
      </trkpt>
      <trkpt lat="43.319976" lon="-3.100816">
        <ele>66.361</ele>
        <time>2019-06-16T11:57:32Z</time>
      </trkpt>
      <trkpt lat="43.320038" lon="-3.100994">
        <ele>65.775</ele>
        <time>2019-06-16T11:57:33Z</time>
      </trkpt>
      <trkpt lat="43.320057" lon="-3.101200">
        <ele>65.374</ele>
        <time>2019-06-16T11:57:34Z</time>
      </trkpt>
      <trkpt lat="43.320081" lon="-3.101426">
        <ele>64.314</ele>
        <time>2019-06-16T11:57:35Z</time>
      </trkpt>
      <trkpt lat="43.320205" lon="-3.101552">
        <ele>62.950</ele>
        <time>2019-06-16T11:57:36Z</time>
      </trkpt>
      <trkpt lat="43.320260" lon="-3.101735">
        <ele>61.969</ele>
        <time>2019-06-16T11:57:37Z</time>
      </trkpt>
      <trkpt lat="43.320328" lon="-3.101910">
        <ele>60.173</ele>
        <time>2019-06-16T11:57:38Z</time>
      </trkpt>
      <trkpt lat="43.320395" lon="-3.102091">
        <ele>59.185</ele>
        <time>2019-06-16T11:57:39Z</time>
      </trkpt>
      <trkpt lat="43.320455" lon="-3.102239">
        <ele>59.313</ele>
        <time>2019-06-16T11:57:40Z</time>
      </trkpt>
      <trkpt lat="43.320583" lon="-3.102378">
        <ele>59.008</ele>
        <time>2019-06-16T11:57:41Z</time>
      </trkpt>
      <trkpt lat="43.320704" lon="-3.102518">
        <ele>58.550</ele>
        <time>2019-06-16T11:57:42Z</time>
      </trkpt>
      <trkpt lat="43.320827" lon="-3.102658">
        <ele>58.434</ele>
        <time>2019-06-16T11:57:43Z</time>
      </trkpt>
      <trkpt lat="43.320904" lon="-3.102817">
        <ele>58.584</ele>
        <time>2019-06-16T11:57:44Z</time>
      </trkpt>
      <trkpt lat="43.321028" lon="-3.102985">
        <ele>57.148</ele>
        <time>2019-06-16T11:57:45Z</time>
      </trkpt>
      <trkpt lat="43.321129" lon="-3.103162">
        <ele>56.057</ele>
        <time>2019-06-16T11:57:46Z</time>
      </trkpt>
      <trkpt lat="43.321221" lon="-3.103345">
        <ele>55.127</ele>
        <time>2019-06-16T11:57:47Z</time>
      </trkpt>
      <trkpt lat="43.321310" lon="-3.103525">
        <ele>54.383</ele>
        <time>2019-06-16T11:57:48Z</time>
      </trkpt>
      <trkpt lat="43.321404" lon="-3.103704">
        <ele>52.922</ele>
        <time>2019-06-16T11:57:49Z</time>
      </trkpt>
      <trkpt lat="43.321493" lon="-3.103891">
        <ele>51.826</ele>
        <time>2019-06-16T11:57:50Z</time>
      </trkpt>
      <trkpt lat="43.321594" lon="-3.104072">
        <ele>50.247</ele>
        <time>2019-06-16T11:57:51Z</time>
      </trkpt>
      <trkpt lat="43.321687" lon="-3.104253">
        <ele>48.911</ele>
        <time>2019-06-16T11:57:52Z</time>
      </trkpt>
      <trkpt lat="43.321768" lon="-3.104431">
        <ele>48.108</ele>
        <time>2019-06-16T11:57:53Z</time>
      </trkpt>
      <trkpt lat="43.321833" lon="-3.104615">
        <ele>47.175</ele>
        <time>2019-06-16T11:57:54Z</time>
      </trkpt>
      <trkpt lat="43.321926" lon="-3.104791">
        <ele>46.299</ele>
        <time>2019-06-16T11:57:55Z</time>
      </trkpt>
      <trkpt lat="43.322002" lon="-3.104985">
        <ele>45.019</ele>
        <time>2019-06-16T11:57:56Z</time>
      </trkpt>
      <trkpt lat="43.322086" lon="-3.105187">
        <ele>43.853</ele>
        <time>2019-06-16T11:57:57Z</time>
      </trkpt>
      <trkpt lat="43.322148" lon="-3.105397">
        <ele>43.142</ele>
        <time>2019-06-16T11:57:58Z</time>
      </trkpt>
      <trkpt lat="43.322215" lon="-3.105610">
        <ele>42.122</ele>
        <time>2019-06-16T11:57:59Z</time>
      </trkpt>
      <trkpt lat="43.322249" lon="-3.105835">
        <ele>41.538</ele>
        <time>2019-06-16T11:58:00Z</time>
      </trkpt>
      <trkpt lat="43.322295" lon="-3.106054">
        <ele>40.597</ele>
        <time>2019-06-16T11:58:01Z</time>
      </trkpt>
      <trkpt lat="43.322353" lon="-3.106271">
        <ele>39.571</ele>
        <time>2019-06-16T11:58:02Z</time>
      </trkpt>
      <trkpt lat="43.322408" lon="-3.106491">
        <ele>38.741</ele>
        <time>2019-06-16T11:58:03Z</time>
      </trkpt>
      <trkpt lat="43.322457" lon="-3.106699">
        <ele>38.215</ele>
        <time>2019-06-16T11:58:04Z</time>
      </trkpt>
      <trkpt lat="43.322505" lon="-3.106908">
        <ele>37.008</ele>
        <time>2019-06-16T11:58:05Z</time>
      </trkpt>
      <trkpt lat="43.322563" lon="-3.107125">
        <ele>35.130</ele>
        <time>2019-06-16T11:58:06Z</time>
      </trkpt>
      <trkpt lat="43.322621" lon="-3.107299">
        <ele>33.894</ele>
        <time>2019-06-16T11:58:07Z</time>
      </trkpt>
      <trkpt lat="43.322668" lon="-3.107497">
        <ele>33.084</ele>
        <time>2019-06-16T11:58:08Z</time>
      </trkpt>
      <trkpt lat="43.322711" lon="-3.107684">
        <ele>32.048</ele>
        <time>2019-06-16T11:58:09Z</time>
      </trkpt>
      <trkpt lat="43.322742" lon="-3.107878">
        <ele>31.467</ele>
        <time>2019-06-16T11:58:10Z</time>
      </trkpt>
      <trkpt lat="43.322789" lon="-3.108071">
        <ele>30.747</ele>
        <time>2019-06-16T11:58:11Z</time>
      </trkpt>
      <trkpt lat="43.322823" lon="-3.108269">
        <ele>29.753</ele>
        <time>2019-06-16T11:58:12Z</time>
      </trkpt>
      <trkpt lat="43.322854" lon="-3.108468">
        <ele>28.882</ele>
        <time>2019-06-16T11:58:13Z</time>
      </trkpt>
      <trkpt lat="43.322905" lon="-3.108669">
        <ele>27.888</ele>
        <time>2019-06-16T11:58:14Z</time>
      </trkpt>
      <trkpt lat="43.322946" lon="-3.108829">
        <ele>26.724</ele>
        <time>2019-06-16T11:58:15Z</time>
      </trkpt>
      <trkpt lat="43.322986" lon="-3.109021">
        <ele>25.326</ele>
        <time>2019-06-16T11:58:16Z</time>
      </trkpt>
      <trkpt lat="43.322989" lon="-3.109146">
        <ele>24.408</ele>
        <time>2019-06-16T11:58:17Z</time>
      </trkpt>
      <trkpt lat="43.323011" lon="-3.109306">
        <ele>22.771</ele>
        <time>2019-06-16T11:58:18Z</time>
      </trkpt>
      <trkpt lat="43.323092" lon="-3.109444">
        <ele>21.155</ele>
        <time>2019-06-16T11:58:19Z</time>
      </trkpt>
      <trkpt lat="43.323169" lon="-3.109609">
        <ele>20.085</ele>
        <time>2019-06-16T11:58:20Z</time>
      </trkpt>
      <trkpt lat="43.323252" lon="-3.109775">
        <ele>18.339</ele>
        <time>2019-06-16T11:58:21Z</time>
      </trkpt>
      <trkpt lat="43.323337" lon="-3.109927">
        <ele>16.088</ele>
        <time>2019-06-16T11:58:22Z</time>
      </trkpt>
      <trkpt lat="43.323391" lon="-3.110070">
        <ele>14.428</ele>
        <time>2019-06-16T11:58:23Z</time>
      </trkpt>
      <trkpt lat="43.323469" lon="-3.110203">
        <ele>13.214</ele>
        <time>2019-06-16T11:58:24Z</time>
      </trkpt>
      <trkpt lat="43.323533" lon="-3.110336">
        <ele>11.713</ele>
        <time>2019-06-16T11:58:25Z</time>
      </trkpt>
      <trkpt lat="43.323598" lon="-3.110464">
        <ele>10.613</ele>
        <time>2019-06-16T11:58:26Z</time>
      </trkpt>
      <trkpt lat="43.323681" lon="-3.110571">
        <ele>9.943</ele>
        <time>2019-06-16T11:58:27Z</time>
      </trkpt>
      <trkpt lat="43.323748" lon="-3.110686">
        <ele>9.307</ele>
        <time>2019-06-16T11:58:28Z</time>
      </trkpt>
      <trkpt lat="43.323824" lon="-3.110751">
        <ele>8.808</ele>
        <time>2019-06-16T11:58:29Z</time>
      </trkpt>
      <trkpt lat="43.323911" lon="-3.110820">
        <ele>8.264</ele>
        <time>2019-06-16T11:58:30Z</time>
      </trkpt>
      <trkpt lat="43.324007" lon="-3.110892">
        <ele>8.128</ele>
        <time>2019-06-16T11:58:31Z</time>
      </trkpt>
      <trkpt lat="43.324090" lon="-3.110980">
        <ele>7.898</ele>
        <time>2019-06-16T11:58:32Z</time>
      </trkpt>
      <trkpt lat="43.324171" lon="-3.111065">
        <ele>7.312</ele>
        <time>2019-06-16T11:58:33Z</time>
      </trkpt>
      <trkpt lat="43.324225" lon="-3.111166">
        <ele>6.631</ele>
        <time>2019-06-16T11:58:34Z</time>
      </trkpt>
      <trkpt lat="43.324269" lon="-3.111255">
        <ele>6.381</ele>
        <time>2019-06-16T11:58:35Z</time>
      </trkpt>
      <trkpt lat="43.324273" lon="-3.111357">
        <ele>6.137</ele>
        <time>2019-06-16T11:58:36Z</time>
      </trkpt>
      <trkpt lat="43.324256" lon="-3.111456">
        <ele>6.216</ele>
        <time>2019-06-16T11:58:37Z</time>
      </trkpt>
      <trkpt lat="43.324242" lon="-3.111559">
        <ele>6.448</ele>
        <time>2019-06-16T11:58:38Z</time>
      </trkpt>
      <trkpt lat="43.324181" lon="-3.111662">
        <ele>6.961</ele>
        <time>2019-06-16T11:58:39Z</time>
      </trkpt>
      <trkpt lat="43.324153" lon="-3.111762">
        <ele>6.617</ele>
        <time>2019-06-16T11:58:40Z</time>
      </trkpt>
      <trkpt lat="43.324128" lon="-3.111852">
        <ele>6.208</ele>
        <time>2019-06-16T11:58:41Z</time>
      </trkpt>
      <trkpt lat="43.324125" lon="-3.111950">
        <ele>5.917</ele>
        <time>2019-06-16T11:58:42Z</time>
      </trkpt>
      <trkpt lat="43.324154" lon="-3.112058">
        <ele>6.031</ele>
        <time>2019-06-16T11:58:43Z</time>
      </trkpt>
      <trkpt lat="43.324176" lon="-3.112165">
        <ele>6.031</ele>
        <time>2019-06-16T11:58:44Z</time>
      </trkpt>
      <trkpt lat="43.324206" lon="-3.112306">
        <ele>6.145</ele>
        <time>2019-06-16T11:58:45Z</time>
      </trkpt>
      <trkpt lat="43.324211" lon="-3.112465">
        <ele>6.294</ele>
        <time>2019-06-16T11:58:46Z</time>
      </trkpt>
      <trkpt lat="43.324216" lon="-3.112628">
        <ele>6.254</ele>
        <time>2019-06-16T11:58:47Z</time>
      </trkpt>
      <trkpt lat="43.324189" lon="-3.112746">
        <ele>6.160</ele>
        <time>2019-06-16T11:58:48Z</time>
      </trkpt>
      <trkpt lat="43.324177" lon="-3.112876">
        <ele>6.429</ele>
        <time>2019-06-16T11:58:49Z</time>
      </trkpt>
      <trkpt lat="43.324166" lon="-3.113006">
        <ele>6.811</ele>
        <time>2019-06-16T11:58:50Z</time>
      </trkpt>
      <trkpt lat="43.324141" lon="-3.113143">
        <ele>6.921</ele>
        <time>2019-06-16T11:58:51Z</time>
      </trkpt>
      <trkpt lat="43.324125" lon="-3.113284">
        <ele>6.703</ele>
        <time>2019-06-16T11:58:52Z</time>
      </trkpt>
      <trkpt lat="43.324138" lon="-3.113402">
        <ele>6.808</ele>
        <time>2019-06-16T11:58:53Z</time>
      </trkpt>
      <trkpt lat="43.324125" lon="-3.113537">
        <ele>6.884</ele>
        <time>2019-06-16T11:58:54Z</time>
      </trkpt>
      <trkpt lat="43.324106" lon="-3.113683">
        <ele>6.848</ele>
        <time>2019-06-16T11:58:55Z</time>
      </trkpt>
      <trkpt lat="43.324096" lon="-3.113842">
        <ele>6.738</ele>
        <time>2019-06-16T11:58:56Z</time>
      </trkpt>
      <trkpt lat="43.324072" lon="-3.114008">
        <ele>6.732</ele>
        <time>2019-06-16T11:58:57Z</time>
      </trkpt>
      <trkpt lat="43.324043" lon="-3.114161">
        <ele>6.641</ele>
        <time>2019-06-16T11:58:58Z</time>
      </trkpt>
      <trkpt lat="43.324014" lon="-3.114318">
        <ele>6.581</ele>
        <time>2019-06-16T11:58:59Z</time>
      </trkpt>
      <trkpt lat="43.323981" lon="-3.114463">
        <ele>6.487</ele>
        <time>2019-06-16T11:59:00Z</time>
      </trkpt>
      <trkpt lat="43.323949" lon="-3.114614">
        <ele>6.716</ele>
        <time>2019-06-16T11:59:01Z</time>
      </trkpt>
      <trkpt lat="43.323899" lon="-3.114702">
        <ele>6.993</ele>
        <time>2019-06-16T11:59:02Z</time>
      </trkpt>
      <trkpt lat="43.323870" lon="-3.114845">
        <ele>6.965</ele>
        <time>2019-06-16T11:59:03Z</time>
      </trkpt>
      <trkpt lat="43.323839" lon="-3.114998">
        <ele>6.621</ele>
        <time>2019-06-16T11:59:04Z</time>
      </trkpt>
      <trkpt lat="43.323807" lon="-3.115146">
        <ele>6.608</ele>
        <time>2019-06-16T11:59:05Z</time>
      </trkpt>
      <trkpt lat="43.323780" lon="-3.115291">
        <ele>6.672</ele>
        <time>2019-06-16T11:59:06Z</time>
      </trkpt>
      <trkpt lat="43.323748" lon="-3.115437">
        <ele>6.856</ele>
        <time>2019-06-16T11:59:07Z</time>
      </trkpt>
      <trkpt lat="43.323715" lon="-3.115582">
        <ele>6.796</ele>
        <time>2019-06-16T11:59:08Z</time>
      </trkpt>
      <trkpt lat="43.323684" lon="-3.115707">
        <ele>6.570</ele>
        <time>2019-06-16T11:59:09Z</time>
      </trkpt>
      <trkpt lat="43.323655" lon="-3.115839">
        <ele>6.369</ele>
        <time>2019-06-16T11:59:10Z</time>
      </trkpt>
      <trkpt lat="43.323618" lon="-3.115965">
        <ele>6.099</ele>
        <time>2019-06-16T11:59:11Z</time>
      </trkpt>
      <trkpt lat="43.323583" lon="-3.116105">
        <ele>5.965</ele>
        <time>2019-06-16T11:59:12Z</time>
      </trkpt>
      <trkpt lat="43.323566" lon="-3.116238">
        <ele>6.294</ele>
        <time>2019-06-16T11:59:13Z</time>
      </trkpt>
      <trkpt lat="43.323563" lon="-3.116378">
        <ele>6.664</ele>
        <time>2019-06-16T11:59:14Z</time>
      </trkpt>
      <trkpt lat="43.323561" lon="-3.116506">
        <ele>6.606</ele>
        <time>2019-06-16T11:59:15Z</time>
      </trkpt>
      <trkpt lat="43.323574" lon="-3.116616">
        <ele>6.716</ele>
        <time>2019-06-16T11:59:16Z</time>
      </trkpt>
      <trkpt lat="43.323586" lon="-3.116722">
        <ele>6.808</ele>
        <time>2019-06-16T11:59:17Z</time>
      </trkpt>
      <trkpt lat="43.323599" lon="-3.116823">
        <ele>6.929</ele>
        <time>2019-06-16T11:59:18Z</time>
      </trkpt>
      <trkpt lat="43.323616" lon="-3.116905">
        <ele>7.073</ele>
        <time>2019-06-16T11:59:19Z</time>
      </trkpt>
      <trkpt lat="43.323624" lon="-3.116991">
        <ele>7.073</ele>
        <time>2019-06-16T11:59:20Z</time>
      </trkpt>
      <trkpt lat="43.323645" lon="-3.117082">
        <ele>7.057</ele>
        <time>2019-06-16T11:59:21Z</time>
      </trkpt>
      <trkpt lat="43.323668" lon="-3.117169">
        <ele>7.076</ele>
        <time>2019-06-16T11:59:22Z</time>
      </trkpt>
      <trkpt lat="43.323687" lon="-3.117243">
        <ele>7.086</ele>
        <time>2019-06-16T11:59:23Z</time>
      </trkpt>
      <trkpt lat="43.323704" lon="-3.117307">
        <ele>7.032</ele>
        <time>2019-06-16T11:59:24Z</time>
      </trkpt>
      <trkpt lat="43.323728" lon="-3.117373">
        <ele>7.021</ele>
        <time>2019-06-16T11:59:25Z</time>
      </trkpt>
      <trkpt lat="43.323689" lon="-3.117468">
        <ele>7.071</ele>
        <time>2019-06-16T11:59:28Z</time>
      </trkpt>
      <trkpt lat="43.323636" lon="-3.117506">
        <ele>7.041</ele>
        <time>2019-06-16T11:59:29Z</time>
      </trkpt>
      <trkpt lat="43.323574" lon="-3.117535">
        <ele>6.815</ele>
        <time>2019-06-16T11:59:30Z</time>
      </trkpt>
      <trkpt lat="43.323505" lon="-3.117576">
        <ele>6.708</ele>
        <time>2019-06-16T11:59:31Z</time>
      </trkpt>
      <trkpt lat="43.323424" lon="-3.117623">
        <ele>6.780</ele>
        <time>2019-06-16T11:59:32Z</time>
      </trkpt>
      <trkpt lat="43.323339" lon="-3.117675">
        <ele>7.014</ele>
        <time>2019-06-16T11:59:33Z</time>
      </trkpt>
      <trkpt lat="43.323245" lon="-3.117737">
        <ele>7.014</ele>
        <time>2019-06-16T11:59:34Z</time>
      </trkpt>
      <trkpt lat="43.323152" lon="-3.117789">
        <ele>7.028</ele>
        <time>2019-06-16T11:59:35Z</time>
      </trkpt>
      <trkpt lat="43.323054" lon="-3.117842">
        <ele>6.817</ele>
        <time>2019-06-16T11:59:36Z</time>
      </trkpt>
      <trkpt lat="43.322963" lon="-3.117895">
        <ele>6.487</ele>
        <time>2019-06-16T11:59:37Z</time>
      </trkpt>
      <trkpt lat="43.322867" lon="-3.117942">
        <ele>6.143</ele>
        <time>2019-06-16T11:59:38Z</time>
      </trkpt>
      <trkpt lat="43.322775" lon="-3.117981">
        <ele>6.092</ele>
        <time>2019-06-16T11:59:39Z</time>
      </trkpt>
      <trkpt lat="43.322687" lon="-3.118004">
        <ele>5.986</ele>
        <time>2019-06-16T11:59:40Z</time>
      </trkpt>
      <trkpt lat="43.322600" lon="-3.118013">
        <ele>5.960</ele>
        <time>2019-06-16T11:59:41Z</time>
      </trkpt>
      <trkpt lat="43.322515" lon="-3.118023">
        <ele>5.926</ele>
        <time>2019-06-16T11:59:42Z</time>
      </trkpt>
      <trkpt lat="43.322436" lon="-3.118023">
        <ele>5.708</ele>
        <time>2019-06-16T11:59:43Z</time>
      </trkpt>
      <trkpt lat="43.322360" lon="-3.118018">
        <ele>5.491</ele>
        <time>2019-06-16T11:59:44Z</time>
      </trkpt>
      <trkpt lat="43.322294" lon="-3.118017">
        <ele>5.295</ele>
        <time>2019-06-16T11:59:45Z</time>
      </trkpt>
      <trkpt lat="43.322228" lon="-3.118011">
        <ele>5.055</ele>
        <time>2019-06-16T11:59:46Z</time>
      </trkpt>
      <trkpt lat="43.322167" lon="-3.117999">
        <ele>5.079</ele>
        <time>2019-06-16T11:59:47Z</time>
      </trkpt>
      <trkpt lat="43.322117" lon="-3.117988">
        <ele>5.028</ele>
        <time>2019-06-16T11:59:48Z</time>
      </trkpt>
      <trkpt lat="43.322064" lon="-3.117959">
        <ele>5.048</ele>
        <time>2019-06-16T11:59:50Z</time>
      </trkpt>
      <trkpt lat="43.322019" lon="-3.117928">
        <ele>5.034</ele>
        <time>2019-06-16T11:59:53Z</time>
      </trkpt>
      <trkpt lat="43.321977" lon="-3.117900">
        <ele>5.053</ele>
        <time>2019-06-16T11:59:55Z</time>
      </trkpt>
      <trkpt lat="43.321928" lon="-3.117916">
        <ele>5.016</ele>
        <time>2019-06-16T11:59:58Z</time>
      </trkpt>
      <trkpt lat="43.321877" lon="-3.117963">
        <ele>4.876</ele>
        <time>2019-06-16T12:00:00Z</time>
      </trkpt>
      <trkpt lat="43.321853" lon="-3.118057">
        <ele>4.713</ele>
        <time>2019-06-16T12:00:01Z</time>
      </trkpt>
      <trkpt lat="43.321830" lon="-3.118168">
        <ele>5.008</ele>
        <time>2019-06-16T12:00:02Z</time>
      </trkpt>
      <trkpt lat="43.321811" lon="-3.118279">
        <ele>5.364</ele>
        <time>2019-06-16T12:00:03Z</time>
      </trkpt>
      <trkpt lat="43.321784" lon="-3.118408">
        <ele>5.368</ele>
        <time>2019-06-16T12:00:04Z</time>
      </trkpt>
      <trkpt lat="43.321758" lon="-3.118535">
        <ele>5.188</ele>
        <time>2019-06-16T12:00:05Z</time>
      </trkpt>
      <trkpt lat="43.321714" lon="-3.118636">
        <ele>5.082</ele>
        <time>2019-06-16T12:00:06Z</time>
      </trkpt>
      <trkpt lat="43.321662" lon="-3.118728">
        <ele>5.041</ele>
        <time>2019-06-16T12:00:07Z</time>
      </trkpt>
      <trkpt lat="43.321616" lon="-3.118816">
        <ele>5.051</ele>
        <time>2019-06-16T12:00:08Z</time>
      </trkpt>
      <trkpt lat="43.321576" lon="-3.118919">
        <ele>5.057</ele>
        <time>2019-06-16T12:00:09Z</time>
      </trkpt>
      <trkpt lat="43.321542" lon="-3.119037">
        <ele>4.866</ele>
        <time>2019-06-16T12:00:10Z</time>
      </trkpt>
      <trkpt lat="43.321511" lon="-3.119160">
        <ele>4.534</ele>
        <time>2019-06-16T12:00:11Z</time>
      </trkpt>
      <trkpt lat="43.321524" lon="-3.119332">
        <ele>4.555</ele>
        <time>2019-06-16T12:00:12Z</time>
      </trkpt>
      <trkpt lat="43.321542" lon="-3.119498">
        <ele>4.610</ele>
        <time>2019-06-16T12:00:13Z</time>
      </trkpt>
      <trkpt lat="43.321581" lon="-3.119669">
        <ele>4.708</ele>
        <time>2019-06-16T12:00:14Z</time>
      </trkpt>
      <trkpt lat="43.321623" lon="-3.119838">
        <ele>4.576</ele>
        <time>2019-06-16T12:00:15Z</time>
      </trkpt>
      <trkpt lat="43.321661" lon="-3.119983">
        <ele>4.150</ele>
        <time>2019-06-16T12:00:16Z</time>
      </trkpt>
      <trkpt lat="43.321699" lon="-3.120122">
        <ele>4.130</ele>
        <time>2019-06-16T12:00:17Z</time>
      </trkpt>
      <trkpt lat="43.321745" lon="-3.120254">
        <ele>4.334</ele>
        <time>2019-06-16T12:00:18Z</time>
      </trkpt>
      <trkpt lat="43.321784" lon="-3.120382">
        <ele>4.413</ele>
        <time>2019-06-16T12:00:19Z</time>
      </trkpt>
      <trkpt lat="43.321814" lon="-3.120470">
        <ele>4.573</ele>
        <time>2019-06-16T12:00:20Z</time>
      </trkpt>
      <trkpt lat="43.321846" lon="-3.120557">
        <ele>4.619</ele>
        <time>2019-06-16T12:00:21Z</time>
      </trkpt>
      <trkpt lat="43.321918" lon="-3.120595">
        <ele>4.818</ele>
        <time>2019-06-16T12:00:22Z</time>
      </trkpt>
      <trkpt lat="43.321960" lon="-3.120630">
        <ele>4.727</ele>
        <time>2019-06-16T12:00:23Z</time>
      </trkpt>
      <trkpt lat="43.322013" lon="-3.120668">
        <ele>4.568</ele>
        <time>2019-06-16T12:00:24Z</time>
      </trkpt>
      <trkpt lat="43.322108" lon="-3.120717">
        <ele>4.514</ele>
        <time>2019-06-16T12:00:26Z</time>
      </trkpt>
      <trkpt lat="43.322214" lon="-3.120712">
        <ele>4.608</ele>
        <time>2019-06-16T12:00:27Z</time>
      </trkpt>
      <trkpt lat="43.322321" lon="-3.120725">
        <ele>4.625</ele>
        <time>2019-06-16T12:00:28Z</time>
      </trkpt>
      <trkpt lat="43.322433" lon="-3.120749">
        <ele>4.739</ele>
        <time>2019-06-16T12:00:29Z</time>
      </trkpt>
      <trkpt lat="43.322521" lon="-3.120751">
        <ele>4.719</ele>
        <time>2019-06-16T12:00:30Z</time>
      </trkpt>
      <trkpt lat="43.322618" lon="-3.120773">
        <ele>4.933</ele>
        <time>2019-06-16T12:00:31Z</time>
      </trkpt>
      <trkpt lat="43.322711" lon="-3.120780">
        <ele>5.012</ele>
        <time>2019-06-16T12:00:32Z</time>
      </trkpt>
      <trkpt lat="43.322785" lon="-3.120800">
        <ele>5.032</ele>
        <time>2019-06-16T12:00:33Z</time>
      </trkpt>
      <trkpt lat="43.322856" lon="-3.120842">
        <ele>5.068</ele>
        <time>2019-06-16T12:00:34Z</time>
      </trkpt>
      <trkpt lat="43.322917" lon="-3.120903">
        <ele>5.097</ele>
        <time>2019-06-16T12:00:35Z</time>
      </trkpt>
      <trkpt lat="43.322948" lon="-3.121052">
        <ele>5.027</ele>
        <time>2019-06-16T12:00:37Z</time>
      </trkpt>
      <trkpt lat="43.322952" lon="-3.121143">
        <ele>4.968</ele>
        <time>2019-06-16T12:00:38Z</time>
      </trkpt>
      <trkpt lat="43.322938" lon="-3.121240">
        <ele>4.714</ele>
        <time>2019-06-16T12:00:39Z</time>
      </trkpt>
      <trkpt lat="43.322894" lon="-3.121321">
        <ele>4.708</ele>
        <time>2019-06-16T12:00:40Z</time>
      </trkpt>
      <trkpt lat="43.322842" lon="-3.121404">
        <ele>4.785</ele>
        <time>2019-06-16T12:00:41Z</time>
      </trkpt>
      <trkpt lat="43.322789" lon="-3.121468">
        <ele>4.739</ele>
        <time>2019-06-16T12:00:42Z</time>
      </trkpt>
      <trkpt lat="43.322745" lon="-3.121547">
        <ele>4.529</ele>
        <time>2019-06-16T12:00:43Z</time>
      </trkpt>
      <trkpt lat="43.322704" lon="-3.121620">
        <ele>4.453</ele>
        <time>2019-06-16T12:00:44Z</time>
      </trkpt>
      <trkpt lat="43.322664" lon="-3.121675">
        <ele>4.462</ele>
        <time>2019-06-16T12:00:45Z</time>
      </trkpt>
      <trkpt lat="43.322608" lon="-3.121753">
        <ele>4.292</ele>
        <time>2019-06-16T12:00:47Z</time>
      </trkpt>
      <trkpt lat="43.322565" lon="-3.121781">
        <ele>4.398</ele>
        <time>2019-06-16T12:00:49Z</time>
      </trkpt>
      <trkpt lat="43.322530" lon="-3.121820">
        <ele>4.397</ele>
        <time>2019-06-16T12:00:53Z</time>
      </trkpt>
      <trkpt lat="43.322553" lon="-3.121761">
        <ele>4.421</ele>
        <time>2019-06-16T12:01:00Z</time>
      </trkpt>
      <trkpt lat="43.322624" lon="-3.121683">
        <ele>4.541</ele>
        <time>2019-06-16T12:01:02Z</time>
      </trkpt>
      <trkpt lat="43.322671" lon="-3.121624">
        <ele>4.505</ele>
        <time>2019-06-16T12:01:03Z</time>
      </trkpt>
      <trkpt lat="43.322717" lon="-3.121558">
        <ele>4.508</ele>
        <time>2019-06-16T12:01:04Z</time>
      </trkpt>
      <trkpt lat="43.322759" lon="-3.121488">
        <ele>4.785</ele>
        <time>2019-06-16T12:01:05Z</time>
      </trkpt>
      <trkpt lat="43.322800" lon="-3.121421">
        <ele>4.859</ele>
        <time>2019-06-16T12:01:06Z</time>
      </trkpt>
      <trkpt lat="43.322829" lon="-3.121357">
        <ele>4.899</ele>
        <time>2019-06-16T12:01:07Z</time>
      </trkpt>
      <trkpt lat="43.322872" lon="-3.121302">
        <ele>4.873</ele>
        <time>2019-06-16T12:01:08Z</time>
      </trkpt>
      <trkpt lat="43.322909" lon="-3.121246">
        <ele>4.872</ele>
        <time>2019-06-16T12:01:09Z</time>
      </trkpt>
      <trkpt lat="43.322938" lon="-3.121179">
        <ele>4.952</ele>
        <time>2019-06-16T12:01:10Z</time>
      </trkpt>
      <trkpt lat="43.322950" lon="-3.121107">
        <ele>5.028</ele>
        <time>2019-06-16T12:01:11Z</time>
      </trkpt>
      <trkpt lat="43.322933" lon="-3.121031">
        <ele>5.087</ele>
        <time>2019-06-16T12:01:12Z</time>
      </trkpt>
      <trkpt lat="43.322922" lon="-3.120955">
        <ele>5.028</ele>
        <time>2019-06-16T12:01:13Z</time>
      </trkpt>
      <trkpt lat="43.322871" lon="-3.120899">
        <ele>5.089</ele>
        <time>2019-06-16T12:01:14Z</time>
      </trkpt>
      <trkpt lat="43.322827" lon="-3.120853">
        <ele>5.017</ele>
        <time>2019-06-16T12:01:15Z</time>
      </trkpt>
      <trkpt lat="43.322759" lon="-3.120823">
        <ele>5.008</ele>
        <time>2019-06-16T12:01:16Z</time>
      </trkpt>
      <trkpt lat="43.322689" lon="-3.120810">
        <ele>5.065</ele>
        <time>2019-06-16T12:01:17Z</time>
      </trkpt>
      <trkpt lat="43.322608" lon="-3.120786">
        <ele>4.919</ele>
        <time>2019-06-16T12:01:18Z</time>
      </trkpt>
      <trkpt lat="43.322526" lon="-3.120772">
        <ele>4.869</ele>
        <time>2019-06-16T12:01:19Z</time>
      </trkpt>
      <trkpt lat="43.322454" lon="-3.120773">
        <ele>4.883</ele>
        <time>2019-06-16T12:01:20Z</time>
      </trkpt>
      <trkpt lat="43.322391" lon="-3.120769">
        <ele>4.842</ele>
        <time>2019-06-16T12:01:21Z</time>
      </trkpt>
      <trkpt lat="43.322337" lon="-3.120775">
        <ele>4.822</ele>
        <time>2019-06-16T12:01:22Z</time>
      </trkpt>
      <trkpt lat="43.322272" lon="-3.120773">
        <ele>4.868</ele>
        <time>2019-06-16T12:01:23Z</time>
      </trkpt>
      <trkpt lat="43.322214" lon="-3.120783">
        <ele>4.817</ele>
        <time>2019-06-16T12:01:24Z</time>
      </trkpt>
      <trkpt lat="43.322159" lon="-3.120804">
        <ele>4.788</ele>
        <time>2019-06-16T12:01:25Z</time>
      </trkpt>
      <trkpt lat="43.322113" lon="-3.120813">
        <ele>4.624</ele>
        <time>2019-06-16T12:01:26Z</time>
      </trkpt>
      <trkpt lat="43.322074" lon="-3.120847">
        <ele>4.526</ele>
        <time>2019-06-16T12:01:27Z</time>
      </trkpt>
      <trkpt lat="43.322041" lon="-3.120891">
        <ele>4.408</ele>
        <time>2019-06-16T12:01:28Z</time>
      </trkpt>
      <trkpt lat="43.321978" lon="-3.120952">
        <ele>4.231</ele>
        <time>2019-06-16T12:01:30Z</time>
      </trkpt>
      <trkpt lat="43.321928" lon="-3.120960">
        <ele>4.015</ele>
        <time>2019-06-16T12:01:48Z</time>
      </trkpt>
      <trkpt lat="43.321891" lon="-3.120922">
        <ele>3.925</ele>
        <time>2019-06-16T12:01:50Z</time>
      </trkpt>
      <trkpt lat="43.321860" lon="-3.120849">
        <ele>4.049</ele>
        <time>2019-06-16T12:01:51Z</time>
      </trkpt>
      <trkpt lat="43.321856" lon="-3.120771">
        <ele>4.288</ele>
        <time>2019-06-16T12:01:52Z</time>
      </trkpt>
      <trkpt lat="43.321841" lon="-3.120689">
        <ele>4.328</ele>
        <time>2019-06-16T12:01:53Z</time>
      </trkpt>
      <trkpt lat="43.321823" lon="-3.120597">
        <ele>4.584</ele>
        <time>2019-06-16T12:01:54Z</time>
      </trkpt>
      <trkpt lat="43.321806" lon="-3.120502">
        <ele>4.513</ele>
        <time>2019-06-16T12:01:55Z</time>
      </trkpt>
      <trkpt lat="43.321781" lon="-3.120402">
        <ele>4.456</ele>
        <time>2019-06-16T12:01:56Z</time>
      </trkpt>
      <trkpt lat="43.321742" lon="-3.120306">
        <ele>4.359</ele>
        <time>2019-06-16T12:01:57Z</time>
      </trkpt>
      <trkpt lat="43.321723" lon="-3.120206">
        <ele>4.214</ele>
        <time>2019-06-16T12:01:58Z</time>
      </trkpt>
      <trkpt lat="43.321691" lon="-3.120105">
        <ele>4.108</ele>
        <time>2019-06-16T12:01:59Z</time>
      </trkpt>
      <trkpt lat="43.321660" lon="-3.120006">
        <ele>4.078</ele>
        <time>2019-06-16T12:02:00Z</time>
      </trkpt>
      <trkpt lat="43.321622" lon="-3.119908">
        <ele>4.352</ele>
        <time>2019-06-16T12:02:01Z</time>
      </trkpt>
      <trkpt lat="43.321577" lon="-3.119819">
        <ele>4.452</ele>
        <time>2019-06-16T12:02:02Z</time>
      </trkpt>
      <trkpt lat="43.321564" lon="-3.119737">
        <ele>4.646</ele>
        <time>2019-06-16T12:02:03Z</time>
      </trkpt>
      <trkpt lat="43.321542" lon="-3.119661">
        <ele>4.685</ele>
        <time>2019-06-16T12:02:04Z</time>
      </trkpt>
      <trkpt lat="43.321517" lon="-3.119591">
        <ele>4.555</ele>
        <time>2019-06-16T12:02:05Z</time>
      </trkpt>
      <trkpt lat="43.321481" lon="-3.119513">
        <ele>4.351</ele>
        <time>2019-06-16T12:02:06Z</time>
      </trkpt>
      <trkpt lat="43.321457" lon="-3.119445">
        <ele>4.210</ele>
        <time>2019-06-16T12:02:07Z</time>
      </trkpt>
      <trkpt lat="43.321435" lon="-3.119383">
        <ele>4.229</ele>
        <time>2019-06-16T12:02:08Z</time>
      </trkpt>
      <trkpt lat="43.321442" lon="-3.119302">
        <ele>4.200</ele>
        <time>2019-06-16T12:02:09Z</time>
      </trkpt>
      <trkpt lat="43.321503" lon="-3.119201">
        <ele>4.420</ele>
        <time>2019-06-16T12:02:10Z</time>
      </trkpt>
      <trkpt lat="43.321505" lon="-3.119129">
        <ele>4.508</ele>
        <time>2019-06-16T12:02:11Z</time>
      </trkpt>
      <trkpt lat="43.321529" lon="-3.119023">
        <ele>4.845</ele>
        <time>2019-06-16T12:02:13Z</time>
      </trkpt>
      <trkpt lat="43.321535" lon="-3.118887">
        <ele>5.089</ele>
        <time>2019-06-16T12:02:15Z</time>
      </trkpt>
      <trkpt lat="43.321501" lon="-3.118819">
        <ele>5.039</ele>
        <time>2019-06-16T12:02:17Z</time>
      </trkpt>
      <trkpt lat="43.321476" lon="-3.118725">
        <ele>5.063</ele>
        <time>2019-06-16T12:02:19Z</time>
      </trkpt>
      <trkpt lat="43.321396" lon="-3.118720">
        <ele>5.022</ele>
        <time>2019-06-16T12:02:21Z</time>
      </trkpt>
      <trkpt lat="43.321349" lon="-3.118765">
        <ele>5.382</ele>
        <time>2019-06-16T12:02:22Z</time>
      </trkpt>
      <trkpt lat="43.321313" lon="-3.118818">
        <ele>5.448</ele>
        <time>2019-06-16T12:02:23Z</time>
      </trkpt>
      <trkpt lat="43.321286" lon="-3.118890">
        <ele>5.487</ele>
        <time>2019-06-16T12:02:24Z</time>
      </trkpt>
      <trkpt lat="43.321267" lon="-3.118968">
        <ele>5.273</ele>
        <time>2019-06-16T12:02:25Z</time>
      </trkpt>
      <trkpt lat="43.321239" lon="-3.119041">
        <ele>5.085</ele>
        <time>2019-06-16T12:02:26Z</time>
      </trkpt>
      <trkpt lat="43.321206" lon="-3.119116">
        <ele>4.813</ele>
        <time>2019-06-16T12:02:27Z</time>
      </trkpt>
      <trkpt lat="43.321168" lon="-3.119186">
        <ele>4.808</ele>
        <time>2019-06-16T12:02:28Z</time>
      </trkpt>
      <trkpt lat="43.321120" lon="-3.119263">
        <ele>5.010</ele>
        <time>2019-06-16T12:02:29Z</time>
      </trkpt>
      <trkpt lat="43.321089" lon="-3.119357">
        <ele>5.144</ele>
        <time>2019-06-16T12:02:30Z</time>
      </trkpt>
      <trkpt lat="43.321039" lon="-3.119464">
        <ele>5.284</ele>
        <time>2019-06-16T12:02:31Z</time>
      </trkpt>
      <trkpt lat="43.321012" lon="-3.119596">
        <ele>5.228</ele>
        <time>2019-06-16T12:02:32Z</time>
      </trkpt>
      <trkpt lat="43.320954" lon="-3.119731">
        <ele>5.777</ele>
        <time>2019-06-16T12:02:33Z</time>
      </trkpt>
      <trkpt lat="43.320896" lon="-3.119877">
        <ele>6.267</ele>
        <time>2019-06-16T12:02:34Z</time>
      </trkpt>
      <trkpt lat="43.320821" lon="-3.120020">
        <ele>6.883</ele>
        <time>2019-06-16T12:02:35Z</time>
      </trkpt>
      <trkpt lat="43.320751" lon="-3.120170">
        <ele>6.042</ele>
        <time>2019-06-16T12:02:36Z</time>
      </trkpt>
      <trkpt lat="43.320683" lon="-3.120309">
        <ele>6.027</ele>
        <time>2019-06-16T12:02:37Z</time>
      </trkpt>
      <trkpt lat="43.320619" lon="-3.120446">
        <ele>6.468</ele>
        <time>2019-06-16T12:02:38Z</time>
      </trkpt>
      <trkpt lat="43.320558" lon="-3.120577">
        <ele>7.014</ele>
        <time>2019-06-16T12:02:39Z</time>
      </trkpt>
      <trkpt lat="43.320496" lon="-3.120715">
        <ele>7.108</ele>
        <time>2019-06-16T12:02:40Z</time>
      </trkpt>
      <trkpt lat="43.320430" lon="-3.120852">
        <ele>7.445</ele>
        <time>2019-06-16T12:02:41Z</time>
      </trkpt>
      <trkpt lat="43.320361" lon="-3.120981">
        <ele>7.549</ele>
        <time>2019-06-16T12:02:42Z</time>
      </trkpt>
      <trkpt lat="43.320300" lon="-3.121115">
        <ele>7.879</ele>
        <time>2019-06-16T12:02:43Z</time>
      </trkpt>
      <trkpt lat="43.320242" lon="-3.121248">
        <ele>7.383</ele>
        <time>2019-06-16T12:02:44Z</time>
      </trkpt>
      <trkpt lat="43.320182" lon="-3.121380">
        <ele>7.032</ele>
        <time>2019-06-16T12:02:45Z</time>
      </trkpt>
      <trkpt lat="43.320117" lon="-3.121506">
        <ele>6.922</ele>
        <time>2019-06-16T12:02:46Z</time>
      </trkpt>
      <trkpt lat="43.320057" lon="-3.121640">
        <ele>7.338</ele>
        <time>2019-06-16T12:02:47Z</time>
      </trkpt>
      <trkpt lat="43.319998" lon="-3.121762">
        <ele>7.317</ele>
        <time>2019-06-16T12:02:48Z</time>
      </trkpt>
      <trkpt lat="43.319943" lon="-3.121884">
        <ele>6.395</ele>
        <time>2019-06-16T12:02:49Z</time>
      </trkpt>
      <trkpt lat="43.319887" lon="-3.122001">
        <ele>6.049</ele>
        <time>2019-06-16T12:02:50Z</time>
      </trkpt>
      <trkpt lat="43.319829" lon="-3.122106">
        <ele>6.023</ele>
        <time>2019-06-16T12:02:51Z</time>
      </trkpt>
      <trkpt lat="43.319777" lon="-3.122219">
        <ele>6.008</ele>
        <time>2019-06-16T12:02:52Z</time>
      </trkpt>
      <trkpt lat="43.319737" lon="-3.122292">
        <ele>6.282</ele>
        <time>2019-06-16T12:02:53Z</time>
      </trkpt>
      <trkpt lat="43.319679" lon="-3.122363">
        <ele>6.316</ele>
        <time>2019-06-16T12:02:54Z</time>
      </trkpt>
      <trkpt lat="43.319625" lon="-3.122447">
        <ele>6.456</ele>
        <time>2019-06-16T12:02:55Z</time>
      </trkpt>
      <trkpt lat="43.319562" lon="-3.122523">
        <ele>6.520</ele>
        <time>2019-06-16T12:02:56Z</time>
      </trkpt>
      <trkpt lat="43.319491" lon="-3.122619">
        <ele>6.659</ele>
        <time>2019-06-16T12:02:57Z</time>
      </trkpt>
      <trkpt lat="43.319427" lon="-3.122696">
        <ele>6.689</ele>
        <time>2019-06-16T12:02:58Z</time>
      </trkpt>
      <trkpt lat="43.319371" lon="-3.122780">
        <ele>6.895</ele>
        <time>2019-06-16T12:02:59Z</time>
      </trkpt>
      <trkpt lat="43.319309" lon="-3.122850">
        <ele>7.024</ele>
        <time>2019-06-16T12:03:00Z</time>
      </trkpt>
      <trkpt lat="43.319249" lon="-3.122924">
        <ele>7.341</ele>
        <time>2019-06-16T12:03:01Z</time>
      </trkpt>
      <trkpt lat="43.319187" lon="-3.122999">
        <ele>7.781</ele>
        <time>2019-06-16T12:03:02Z</time>
      </trkpt>
      <trkpt lat="43.319127" lon="-3.123072">
        <ele>7.909</ele>
        <time>2019-06-16T12:03:03Z</time>
      </trkpt>
      <trkpt lat="43.319062" lon="-3.123143">
        <ele>8.108</ele>
        <time>2019-06-16T12:03:04Z</time>
      </trkpt>
      <trkpt lat="43.318987" lon="-3.123232">
        <ele>8.467</ele>
        <time>2019-06-16T12:03:05Z</time>
      </trkpt>
      <trkpt lat="43.318909" lon="-3.123334">
        <ele>9.021</ele>
        <time>2019-06-16T12:03:06Z</time>
      </trkpt>
      <trkpt lat="43.318838" lon="-3.123440">
        <ele>9.191</ele>
        <time>2019-06-16T12:03:07Z</time>
      </trkpt>
      <trkpt lat="43.318774" lon="-3.123538">
        <ele>9.355</ele>
        <time>2019-06-16T12:03:08Z</time>
      </trkpt>
      <trkpt lat="43.318716" lon="-3.123629">
        <ele>9.774</ele>
        <time>2019-06-16T12:03:09Z</time>
      </trkpt>
      <trkpt lat="43.318661" lon="-3.123718">
        <ele>10.284</ele>
        <time>2019-06-16T12:03:10Z</time>
      </trkpt>
      <trkpt lat="43.318611" lon="-3.123811">
        <ele>10.740</ele>
        <time>2019-06-16T12:03:11Z</time>
      </trkpt>
      <trkpt lat="43.318554" lon="-3.123909">
        <ele>11.439</ele>
        <time>2019-06-16T12:03:12Z</time>
      </trkpt>
      <trkpt lat="43.318488" lon="-3.124037">
        <ele>12.643</ele>
        <time>2019-06-16T12:03:13Z</time>
      </trkpt>
      <trkpt lat="43.318424" lon="-3.124167">
        <ele>13.064</ele>
        <time>2019-06-16T12:03:14Z</time>
      </trkpt>
      <trkpt lat="43.318346" lon="-3.124345">
        <ele>13.010</ele>
        <time>2019-06-16T12:03:15Z</time>
      </trkpt>
      <trkpt lat="43.318287" lon="-3.124509">
        <ele>13.608</ele>
        <time>2019-06-16T12:03:16Z</time>
      </trkpt>
      <trkpt lat="43.318234" lon="-3.124669">
        <ele>14.877</ele>
        <time>2019-06-16T12:03:17Z</time>
      </trkpt>
      <trkpt lat="43.318208" lon="-3.124818">
        <ele>15.791</ele>
        <time>2019-06-16T12:03:18Z</time>
      </trkpt>
      <trkpt lat="43.318195" lon="-3.124963">
        <ele>16.361</ele>
        <time>2019-06-16T12:03:19Z</time>
      </trkpt>
      <trkpt lat="43.318171" lon="-3.125101">
        <ele>16.945</ele>
        <time>2019-06-16T12:03:20Z</time>
      </trkpt>
      <trkpt lat="43.318172" lon="-3.125205">
        <ele>17.814</ele>
        <time>2019-06-16T12:03:21Z</time>
      </trkpt>
      <trkpt lat="43.318158" lon="-3.125328">
        <ele>18.044</ele>
        <time>2019-06-16T12:03:22Z</time>
      </trkpt>
      <trkpt lat="43.318138" lon="-3.125449">
        <ele>17.670</ele>
        <time>2019-06-16T12:03:23Z</time>
      </trkpt>
      <trkpt lat="43.318129" lon="-3.125576">
        <ele>17.429</ele>
        <time>2019-06-16T12:03:24Z</time>
      </trkpt>
      <trkpt lat="43.318124" lon="-3.125705">
        <ele>17.493</ele>
        <time>2019-06-16T12:03:25Z</time>
      </trkpt>
      <trkpt lat="43.318114" lon="-3.125834">
        <ele>17.365</ele>
        <time>2019-06-16T12:03:26Z</time>
      </trkpt>
      <trkpt lat="43.318205" lon="-3.125988">
        <ele>18.621</ele>
        <time>2019-06-16T12:03:27Z</time>
      </trkpt>
      <trkpt lat="43.318261" lon="-3.126151">
        <ele>18.308</ele>
        <time>2019-06-16T12:03:28Z</time>
      </trkpt>
      <trkpt lat="43.318372" lon="-3.126290">
        <ele>18.392</ele>
        <time>2019-06-16T12:03:29Z</time>
      </trkpt>
      <trkpt lat="43.318439" lon="-3.126435">
        <ele>18.156</ele>
        <time>2019-06-16T12:03:30Z</time>
      </trkpt>
      <trkpt lat="43.318517" lon="-3.126562">
        <ele>18.456</ele>
        <time>2019-06-16T12:03:31Z</time>
      </trkpt>
      <trkpt lat="43.318591" lon="-3.126671">
        <ele>18.010</ele>
        <time>2019-06-16T12:03:32Z</time>
      </trkpt>
      <trkpt lat="43.318672" lon="-3.126752">
        <ele>18.669</ele>
        <time>2019-06-16T12:03:33Z</time>
      </trkpt>
      <trkpt lat="43.318736" lon="-3.126838">
        <ele>19.039</ele>
        <time>2019-06-16T12:03:34Z</time>
      </trkpt>
      <trkpt lat="43.318808" lon="-3.126944">
        <ele>19.035</ele>
        <time>2019-06-16T12:03:35Z</time>
      </trkpt>
      <trkpt lat="43.318880" lon="-3.127067">
        <ele>19.454</ele>
        <time>2019-06-16T12:03:36Z</time>
      </trkpt>
      <trkpt lat="43.318933" lon="-3.127178">
        <ele>19.973</ele>
        <time>2019-06-16T12:03:37Z</time>
      </trkpt>
      <trkpt lat="43.319011" lon="-3.127307">
        <ele>20.385</ele>
        <time>2019-06-16T12:03:38Z</time>
      </trkpt>
      <trkpt lat="43.319071" lon="-3.127444">
        <ele>20.813</ele>
        <time>2019-06-16T12:03:39Z</time>
      </trkpt>
      <trkpt lat="43.319140" lon="-3.127584">
        <ele>21.008</ele>
        <time>2019-06-16T12:03:40Z</time>
      </trkpt>
      <trkpt lat="43.319206" lon="-3.127712">
        <ele>21.060</ele>
        <time>2019-06-16T12:03:41Z</time>
      </trkpt>
      <trkpt lat="43.319266" lon="-3.127848">
        <ele>21.374</ele>
        <time>2019-06-16T12:03:42Z</time>
      </trkpt>
      <trkpt lat="43.319331" lon="-3.127977">
        <ele>21.734</ele>
        <time>2019-06-16T12:03:43Z</time>
      </trkpt>
      <trkpt lat="43.319357" lon="-3.128138">
        <ele>22.358</ele>
        <time>2019-06-16T12:03:44Z</time>
      </trkpt>
      <trkpt lat="43.319404" lon="-3.128300">
        <ele>22.937</ele>
        <time>2019-06-16T12:03:45Z</time>
      </trkpt>
      <trkpt lat="43.319452" lon="-3.128459">
        <ele>23.147</ele>
        <time>2019-06-16T12:03:46Z</time>
      </trkpt>
      <trkpt lat="43.319491" lon="-3.128618">
        <ele>23.533</ele>
        <time>2019-06-16T12:03:47Z</time>
      </trkpt>
      <trkpt lat="43.319534" lon="-3.128753">
        <ele>24.152</ele>
        <time>2019-06-16T12:03:48Z</time>
      </trkpt>
      <trkpt lat="43.319594" lon="-3.128880">
        <ele>24.531</ele>
        <time>2019-06-16T12:03:49Z</time>
      </trkpt>
      <trkpt lat="43.319656" lon="-3.128985">
        <ele>24.861</ele>
        <time>2019-06-16T12:03:50Z</time>
      </trkpt>
      <trkpt lat="43.319730" lon="-3.129087">
        <ele>25.107</ele>
        <time>2019-06-16T12:03:51Z</time>
      </trkpt>
      <trkpt lat="43.319809" lon="-3.129190">
        <ele>25.708</ele>
        <time>2019-06-16T12:03:52Z</time>
      </trkpt>
      <trkpt lat="43.319890" lon="-3.129293">
        <ele>26.486</ele>
        <time>2019-06-16T12:03:53Z</time>
      </trkpt>
      <trkpt lat="43.319981" lon="-3.129390">
        <ele>26.980</ele>
        <time>2019-06-16T12:03:54Z</time>
      </trkpt>
      <trkpt lat="43.320058" lon="-3.129489">
        <ele>27.440</ele>
        <time>2019-06-16T12:03:55Z</time>
      </trkpt>
      <trkpt lat="43.320153" lon="-3.129583">
        <ele>28.134</ele>
        <time>2019-06-16T12:03:56Z</time>
      </trkpt>
      <trkpt lat="43.320234" lon="-3.129675">
        <ele>28.763</ele>
        <time>2019-06-16T12:03:57Z</time>
      </trkpt>
      <trkpt lat="43.320314" lon="-3.129751">
        <ele>29.263</ele>
        <time>2019-06-16T12:03:58Z</time>
      </trkpt>
      <trkpt lat="43.320378" lon="-3.129807">
        <ele>29.629</ele>
        <time>2019-06-16T12:03:59Z</time>
      </trkpt>
      <trkpt lat="43.320451" lon="-3.129879">
        <ele>29.878</ele>
        <time>2019-06-16T12:04:00Z</time>
      </trkpt>
      <trkpt lat="43.320529" lon="-3.129950">
        <ele>30.062</ele>
        <time>2019-06-16T12:04:01Z</time>
      </trkpt>
      <trkpt lat="43.320602" lon="-3.130024">
        <ele>30.683</ele>
        <time>2019-06-16T12:04:02Z</time>
      </trkpt>
      <trkpt lat="43.320675" lon="-3.130095">
        <ele>31.311</ele>
        <time>2019-06-16T12:04:03Z</time>
      </trkpt>
      <trkpt lat="43.320756" lon="-3.130173">
        <ele>31.908</ele>
        <time>2019-06-16T12:04:04Z</time>
      </trkpt>
      <trkpt lat="43.320840" lon="-3.130250">
        <ele>32.139</ele>
        <time>2019-06-16T12:04:05Z</time>
      </trkpt>
      <trkpt lat="43.320916" lon="-3.130323">
        <ele>32.743</ele>
        <time>2019-06-16T12:04:06Z</time>
      </trkpt>
      <trkpt lat="43.320968" lon="-3.130379">
        <ele>33.273</ele>
        <time>2019-06-16T12:04:07Z</time>
      </trkpt>
      <trkpt lat="43.321024" lon="-3.130430">
        <ele>33.557</ele>
        <time>2019-06-16T12:04:08Z</time>
      </trkpt>
      <trkpt lat="43.321055" lon="-3.130495">
        <ele>33.816</ele>
        <time>2019-06-16T12:04:10Z</time>
      </trkpt>
      <trkpt lat="43.321115" lon="-3.130549">
        <ele>34.036</ele>
        <time>2019-06-16T12:04:11Z</time>
      </trkpt>
      <trkpt lat="43.321156" lon="-3.130589">
        <ele>34.672</ele>
        <time>2019-06-16T12:04:12Z</time>
      </trkpt>
      <trkpt lat="43.321224" lon="-3.130480">
        <ele>35.011</ele>
        <time>2019-06-16T12:04:13Z</time>
      </trkpt>
      <trkpt lat="43.321277" lon="-3.130436">
        <ele>35.374</ele>
        <time>2019-06-16T12:04:14Z</time>
      </trkpt>
      <trkpt lat="43.321343" lon="-3.130368">
        <ele>35.456</ele>
        <time>2019-06-16T12:04:15Z</time>
      </trkpt>
      <trkpt lat="43.321401" lon="-3.130301">
        <ele>35.321</ele>
        <time>2019-06-16T12:04:16Z</time>
      </trkpt>
      <trkpt lat="43.321470" lon="-3.130217">
        <ele>35.708</ele>
        <time>2019-06-16T12:04:17Z</time>
      </trkpt>
      <trkpt lat="43.321553" lon="-3.130127">
        <ele>35.830</ele>
        <time>2019-06-16T12:04:18Z</time>
      </trkpt>
      <trkpt lat="43.321614" lon="-3.130033">
        <ele>35.344</ele>
        <time>2019-06-16T12:04:19Z</time>
      </trkpt>
      <trkpt lat="43.321696" lon="-3.129932">
        <ele>35.174</ele>
        <time>2019-06-16T12:04:20Z</time>
      </trkpt>
      <trkpt lat="43.321769" lon="-3.129826">
        <ele>35.068</ele>
        <time>2019-06-16T12:04:21Z</time>
      </trkpt>
      <trkpt lat="43.321858" lon="-3.129716">
        <ele>34.347</ele>
        <time>2019-06-16T12:04:22Z</time>
      </trkpt>
      <trkpt lat="43.321922" lon="-3.129612">
        <ele>34.057</ele>
        <time>2019-06-16T12:04:23Z</time>
      </trkpt>
      <trkpt lat="43.321960" lon="-3.129523">
        <ele>34.163</ele>
        <time>2019-06-16T12:04:24Z</time>
      </trkpt>
      <trkpt lat="43.322018" lon="-3.129442">
        <ele>34.092</ele>
        <time>2019-06-16T12:04:25Z</time>
      </trkpt>
      <trkpt lat="43.322068" lon="-3.129368">
        <ele>33.628</ele>
        <time>2019-06-16T12:04:26Z</time>
      </trkpt>
      <trkpt lat="43.322118" lon="-3.129303">
        <ele>33.289</ele>
        <time>2019-06-16T12:04:27Z</time>
      </trkpt>
      <trkpt lat="43.322160" lon="-3.129257">
        <ele>32.817</ele>
        <time>2019-06-16T12:04:28Z</time>
      </trkpt>
      <trkpt lat="43.322202" lon="-3.129198">
        <ele>32.308</ele>
        <time>2019-06-16T12:04:29Z</time>
      </trkpt>
      <trkpt lat="43.322244" lon="-3.129130">
        <ele>31.935</ele>
        <time>2019-06-16T12:04:30Z</time>
      </trkpt>
      <trkpt lat="43.322326" lon="-3.129075">
        <ele>31.619</ele>
        <time>2019-06-16T12:04:32Z</time>
      </trkpt>
      <trkpt lat="43.322368" lon="-3.129020">
        <ele>31.579</ele>
        <time>2019-06-16T12:04:33Z</time>
      </trkpt>
      <trkpt lat="43.322422" lon="-3.128996">
        <ele>31.373</ele>
        <time>2019-06-16T12:04:34Z</time>
      </trkpt>
      <trkpt lat="43.322512" lon="-3.128987">
        <ele>30.982</ele>
        <time>2019-06-16T12:04:35Z</time>
      </trkpt>
      <trkpt lat="43.322588" lon="-3.129029">
        <ele>30.422</ele>
        <time>2019-06-16T12:04:36Z</time>
      </trkpt>
      <trkpt lat="43.322634" lon="-3.129094">
        <ele>30.378</ele>
        <time>2019-06-16T12:04:37Z</time>
      </trkpt>
      <trkpt lat="43.322686" lon="-3.129178">
        <ele>30.457</ele>
        <time>2019-06-16T12:04:38Z</time>
      </trkpt>
      <trkpt lat="43.322743" lon="-3.129266">
        <ele>30.262</ele>
        <time>2019-06-16T12:04:39Z</time>
      </trkpt>
      <trkpt lat="43.322794" lon="-3.129329">
        <ele>29.983</ele>
        <time>2019-06-16T12:04:40Z</time>
      </trkpt>
      <trkpt lat="43.322852" lon="-3.129375">
        <ele>29.511</ele>
        <time>2019-06-16T12:04:41Z</time>
      </trkpt>
      <trkpt lat="43.322912" lon="-3.129398">
        <ele>29.008</ele>
        <time>2019-06-16T12:04:42Z</time>
      </trkpt>
      <trkpt lat="43.322985" lon="-3.129319">
        <ele>28.579</ele>
        <time>2019-06-16T12:04:44Z</time>
      </trkpt>
      <trkpt lat="43.323015" lon="-3.129246">
        <ele>28.343</ele>
        <time>2019-06-16T12:04:45Z</time>
      </trkpt>
      <trkpt lat="43.323011" lon="-3.129172">
        <ele>28.363</ele>
        <time>2019-06-16T12:04:46Z</time>
      </trkpt>
      <trkpt lat="43.322986" lon="-3.129101">
        <ele>28.237</ele>
        <time>2019-06-16T12:04:47Z</time>
      </trkpt>
      <trkpt lat="43.322953" lon="-3.129021">
        <ele>28.086</ele>
        <time>2019-06-16T12:04:48Z</time>
      </trkpt>
      <trkpt lat="43.322901" lon="-3.128943">
        <ele>27.966</ele>
        <time>2019-06-16T12:04:49Z</time>
      </trkpt>
      <trkpt lat="43.322830" lon="-3.128873">
        <ele>27.862</ele>
        <time>2019-06-16T12:04:50Z</time>
      </trkpt>
      <trkpt lat="43.322761" lon="-3.128792">
        <ele>27.821</ele>
        <time>2019-06-16T12:04:51Z</time>
      </trkpt>
      <trkpt lat="43.322703" lon="-3.128707">
        <ele>28.028</ele>
        <time>2019-06-16T12:04:52Z</time>
      </trkpt>
      <trkpt lat="43.322678" lon="-3.128616">
        <ele>27.789</ele>
        <time>2019-06-16T12:04:53Z</time>
      </trkpt>
      <trkpt lat="43.322655" lon="-3.128539">
        <ele>27.417</ele>
        <time>2019-06-16T12:04:54Z</time>
      </trkpt>
      <trkpt lat="43.322634" lon="-3.128457">
        <ele>26.908</ele>
        <time>2019-06-16T12:04:55Z</time>
      </trkpt>
      <trkpt lat="43.322649" lon="-3.128383">
        <ele>26.315</ele>
        <time>2019-06-16T12:04:56Z</time>
      </trkpt>
      <trkpt lat="43.322660" lon="-3.128309">
        <ele>25.969</ele>
        <time>2019-06-16T12:04:57Z</time>
      </trkpt>
      <trkpt lat="43.322696" lon="-3.128233">
        <ele>25.739</ele>
        <time>2019-06-16T12:04:58Z</time>
      </trkpt>
      <trkpt lat="43.322738" lon="-3.128172">
        <ele>25.773</ele>
        <time>2019-06-16T12:04:59Z</time>
      </trkpt>
      <trkpt lat="43.322781" lon="-3.128118">
        <ele>25.892</ele>
        <time>2019-06-16T12:05:00Z</time>
      </trkpt>
      <trkpt lat="43.322823" lon="-3.128022">
        <ele>26.832</ele>
        <time>2019-06-16T12:05:01Z</time>
      </trkpt>
      <trkpt lat="43.322845" lon="-3.127934">
        <ele>27.418</ele>
        <time>2019-06-16T12:05:02Z</time>
      </trkpt>
      <trkpt lat="43.322874" lon="-3.127843">
        <ele>28.267</ele>
        <time>2019-06-16T12:05:03Z</time>
      </trkpt>
      <trkpt lat="43.322857" lon="-3.127735">
        <ele>28.361</ele>
        <time>2019-06-16T12:05:04Z</time>
      </trkpt>
      <trkpt lat="43.322884" lon="-3.127625">
        <ele>29.121</ele>
        <time>2019-06-16T12:05:05Z</time>
      </trkpt>
      <trkpt lat="43.322895" lon="-3.127521">
        <ele>29.613</ele>
        <time>2019-06-16T12:05:06Z</time>
      </trkpt>
      <trkpt lat="43.322882" lon="-3.127413">
        <ele>29.908</ele>
        <time>2019-06-16T12:05:07Z</time>
      </trkpt>
      <trkpt lat="43.322853" lon="-3.127293">
        <ele>30.059</ele>
        <time>2019-06-16T12:05:08Z</time>
      </trkpt>
      <trkpt lat="43.322813" lon="-3.127172">
        <ele>30.133</ele>
        <time>2019-06-16T12:05:09Z</time>
      </trkpt>
      <trkpt lat="43.322794" lon="-3.127061">
        <ele>31.083</ele>
        <time>2019-06-16T12:05:10Z</time>
      </trkpt>
      <trkpt lat="43.322756" lon="-3.126954">
        <ele>31.587</ele>
        <time>2019-06-16T12:05:11Z</time>
      </trkpt>
      <trkpt lat="43.322711" lon="-3.126851">
        <ele>31.676</ele>
        <time>2019-06-16T12:05:12Z</time>
      </trkpt>
      <trkpt lat="43.322693" lon="-3.126772">
        <ele>32.016</ele>
        <time>2019-06-16T12:05:13Z</time>
      </trkpt>
      <trkpt lat="43.322673" lon="-3.126691">
        <ele>32.262</ele>
        <time>2019-06-16T12:05:14Z</time>
      </trkpt>
      <trkpt lat="43.322656" lon="-3.126600">
        <ele>32.051</ele>
        <time>2019-06-16T12:05:15Z</time>
      </trkpt>
      <trkpt lat="43.322657" lon="-3.126521">
        <ele>32.273</ele>
        <time>2019-06-16T12:05:16Z</time>
      </trkpt>
      <trkpt lat="43.322659" lon="-3.126455">
        <ele>32.385</ele>
        <time>2019-06-16T12:05:17Z</time>
      </trkpt>
      <trkpt lat="43.322687" lon="-3.126371">
        <ele>33.113</ele>
        <time>2019-06-16T12:05:19Z</time>
      </trkpt>
      <trkpt lat="43.322746" lon="-3.126323">
        <ele>34.408</ele>
        <time>2019-06-16T12:05:21Z</time>
      </trkpt>
      <trkpt lat="43.322810" lon="-3.126328">
        <ele>35.390</ele>
        <time>2019-06-16T12:05:22Z</time>
      </trkpt>
      <trkpt lat="43.322863" lon="-3.126367">
        <ele>35.694</ele>
        <time>2019-06-16T12:05:23Z</time>
      </trkpt>
      <trkpt lat="43.322910" lon="-3.126424">
        <ele>35.984</ele>
        <time>2019-06-16T12:05:24Z</time>
      </trkpt>
      <trkpt lat="43.322972" lon="-3.126492">
        <ele>36.138</ele>
        <time>2019-06-16T12:05:25Z</time>
      </trkpt>
      <trkpt lat="43.323031" lon="-3.126570">
        <ele>36.287</ele>
        <time>2019-06-16T12:05:26Z</time>
      </trkpt>
      <trkpt lat="43.323096" lon="-3.126672">
        <ele>36.037</ele>
        <time>2019-06-16T12:05:27Z</time>
      </trkpt>
      <trkpt lat="43.323172" lon="-3.126778">
        <ele>36.183</ele>
        <time>2019-06-16T12:05:28Z</time>
      </trkpt>
      <trkpt lat="43.323254" lon="-3.126874">
        <ele>36.932</ele>
        <time>2019-06-16T12:05:29Z</time>
      </trkpt>
      <trkpt lat="43.323327" lon="-3.126994">
        <ele>38.153</ele>
        <time>2019-06-16T12:05:30Z</time>
      </trkpt>
      <trkpt lat="43.323408" lon="-3.127138">
        <ele>38.304</ele>
        <time>2019-06-16T12:05:31Z</time>
      </trkpt>
      <trkpt lat="43.323448" lon="-3.127292">
        <ele>38.914</ele>
        <time>2019-06-16T12:05:32Z</time>
      </trkpt>
      <trkpt lat="43.323488" lon="-3.127446">
        <ele>39.808</ele>
        <time>2019-06-16T12:05:33Z</time>
      </trkpt>
      <trkpt lat="43.323529" lon="-3.127614">
        <ele>40.798</ele>
        <time>2019-06-16T12:05:34Z</time>
      </trkpt>
      <trkpt lat="43.323558" lon="-3.127769">
        <ele>41.442</ele>
        <time>2019-06-16T12:05:35Z</time>
      </trkpt>
      <trkpt lat="43.323606" lon="-3.127931">
        <ele>42.512</ele>
        <time>2019-06-16T12:05:36Z</time>
      </trkpt>
      <trkpt lat="43.323633" lon="-3.128103">
        <ele>42.916</ele>
        <time>2019-06-16T12:05:37Z</time>
      </trkpt>
      <trkpt lat="43.323668" lon="-3.128270">
        <ele>42.775</ele>
        <time>2019-06-16T12:05:38Z</time>
      </trkpt>
      <trkpt lat="43.323717" lon="-3.128438">
        <ele>43.195</ele>
        <time>2019-06-16T12:05:39Z</time>
      </trkpt>
      <trkpt lat="43.323788" lon="-3.128621">
        <ele>44.091</ele>
        <time>2019-06-16T12:05:40Z</time>
      </trkpt>
      <trkpt lat="43.323856" lon="-3.128787">
        <ele>43.320</ele>
        <time>2019-06-16T12:05:41Z</time>
      </trkpt>
      <trkpt lat="43.323948" lon="-3.128929">
        <ele>43.425</ele>
        <time>2019-06-16T12:05:42Z</time>
      </trkpt>
      <trkpt lat="43.324032" lon="-3.129082">
        <ele>43.226</ele>
        <time>2019-06-16T12:05:43Z</time>
      </trkpt>
      <trkpt lat="43.324123" lon="-3.129230">
        <ele>44.008</ele>
        <time>2019-06-16T12:05:44Z</time>
      </trkpt>
      <trkpt lat="43.324233" lon="-3.129378">
        <ele>43.808</ele>
        <time>2019-06-16T12:05:45Z</time>
      </trkpt>
      <trkpt lat="43.324326" lon="-3.129506">
        <ele>44.075</ele>
        <time>2019-06-16T12:05:46Z</time>
      </trkpt>
      <trkpt lat="43.324412" lon="-3.129613">
        <ele>45.589</ele>
        <time>2019-06-16T12:05:47Z</time>
      </trkpt>
      <trkpt lat="43.324518" lon="-3.129704">
        <ele>46.439</ele>
        <time>2019-06-16T12:05:48Z</time>
      </trkpt>
      <trkpt lat="43.324625" lon="-3.129785">
        <ele>45.953</ele>
        <time>2019-06-16T12:05:49Z</time>
      </trkpt>
      <trkpt lat="43.324769" lon="-3.129811">
        <ele>46.692</ele>
        <time>2019-06-16T12:05:50Z</time>
      </trkpt>
      <trkpt lat="43.324891" lon="-3.129847">
        <ele>47.392</ele>
        <time>2019-06-16T12:05:51Z</time>
      </trkpt>
      <trkpt lat="43.325022" lon="-3.129870">
        <ele>48.148</ele>
        <time>2019-06-16T12:05:52Z</time>
      </trkpt>
      <trkpt lat="43.325205" lon="-3.129907">
        <ele>49.217</ele>
        <time>2019-06-16T12:05:53Z</time>
      </trkpt>
      <trkpt lat="43.325309" lon="-3.129852">
        <ele>49.765</ele>
        <time>2019-06-16T12:05:54Z</time>
      </trkpt>
      <trkpt lat="43.325449" lon="-3.129809">
        <ele>50.568</ele>
        <time>2019-06-16T12:05:55Z</time>
      </trkpt>
      <trkpt lat="43.325623" lon="-3.129785">
        <ele>51.714</ele>
        <time>2019-06-16T12:05:56Z</time>
      </trkpt>
      <trkpt lat="43.325764" lon="-3.129779">
        <ele>52.708</ele>
        <time>2019-06-16T12:05:57Z</time>
      </trkpt>
      <trkpt lat="43.325912" lon="-3.129774">
        <ele>53.549</ele>
        <time>2019-06-16T12:05:58Z</time>
      </trkpt>
      <trkpt lat="43.326029" lon="-3.129791">
        <ele>54.133</ele>
        <time>2019-06-16T12:05:59Z</time>
      </trkpt>
      <trkpt lat="43.326153" lon="-3.129829">
        <ele>55.173</ele>
        <time>2019-06-16T12:06:00Z</time>
      </trkpt>
      <trkpt lat="43.326267" lon="-3.129899">
        <ele>56.247</ele>
        <time>2019-06-16T12:06:01Z</time>
      </trkpt>
      <trkpt lat="43.326372" lon="-3.130007">
        <ele>56.916</ele>
        <time>2019-06-16T12:06:02Z</time>
      </trkpt>
      <trkpt lat="43.326469" lon="-3.130123">
        <ele>57.656</ele>
        <time>2019-06-16T12:06:03Z</time>
      </trkpt>
      <trkpt lat="43.326534" lon="-3.130275">
        <ele>58.082</ele>
        <time>2019-06-16T12:06:04Z</time>
      </trkpt>
      <trkpt lat="43.326608" lon="-3.130436">
        <ele>58.731</ele>
        <time>2019-06-16T12:06:05Z</time>
      </trkpt>
      <trkpt lat="43.326696" lon="-3.130602">
        <ele>59.226</ele>
        <time>2019-06-16T12:06:06Z</time>
      </trkpt>
      <trkpt lat="43.326771" lon="-3.130756">
        <ele>59.847</ele>
        <time>2019-06-16T12:06:07Z</time>
      </trkpt>
      <trkpt lat="43.326876" lon="-3.130891">
        <ele>60.111</ele>
        <time>2019-06-16T12:06:08Z</time>
      </trkpt>
      <trkpt lat="43.327014" lon="-3.130983">
        <ele>60.708</ele>
        <time>2019-06-16T12:06:09Z</time>
      </trkpt>
      <trkpt lat="43.327141" lon="-3.131081">
        <ele>61.325</ele>
        <time>2019-06-16T12:06:10Z</time>
      </trkpt>
      <trkpt lat="43.327270" lon="-3.131188">
        <ele>61.829</ele>
        <time>2019-06-16T12:06:11Z</time>
      </trkpt>
      <trkpt lat="43.327412" lon="-3.131301">
        <ele>62.559</ele>
        <time>2019-06-16T12:06:12Z</time>
      </trkpt>
      <trkpt lat="43.327546" lon="-3.131417">
        <ele>63.263</ele>
        <time>2019-06-16T12:06:13Z</time>
      </trkpt>
      <trkpt lat="43.327674" lon="-3.131524">
        <ele>63.862</ele>
        <time>2019-06-16T12:06:14Z</time>
      </trkpt>
      <trkpt lat="43.327796" lon="-3.131643">
        <ele>64.392</ele>
        <time>2019-06-16T12:06:15Z</time>
      </trkpt>
      <trkpt lat="43.327926" lon="-3.131751">
        <ele>65.368</ele>
        <time>2019-06-16T12:06:16Z</time>
      </trkpt>
      <trkpt lat="43.328059" lon="-3.131859">
        <ele>66.387</ele>
        <time>2019-06-16T12:06:17Z</time>
      </trkpt>
      <trkpt lat="43.328201" lon="-3.131953">
        <ele>67.055</ele>
        <time>2019-06-16T12:06:18Z</time>
      </trkpt>
      <trkpt lat="43.328341" lon="-3.132032">
        <ele>67.707</ele>
        <time>2019-06-16T12:06:19Z</time>
      </trkpt>
      <trkpt lat="43.328496" lon="-3.132097">
        <ele>68.317</ele>
        <time>2019-06-16T12:06:20Z</time>
      </trkpt>
      <trkpt lat="43.328657" lon="-3.132155">
        <ele>68.908</ele>
        <time>2019-06-16T12:06:21Z</time>
      </trkpt>
      <trkpt lat="43.328815" lon="-3.132217">
        <ele>69.518</ele>
        <time>2019-06-16T12:06:22Z</time>
      </trkpt>
      <trkpt lat="43.328989" lon="-3.132294">
        <ele>70.822</ele>
        <time>2019-06-16T12:06:23Z</time>
      </trkpt>
      <trkpt lat="43.329163" lon="-3.132387">
        <ele>72.252</ele>
        <time>2019-06-16T12:06:24Z</time>
      </trkpt>
      <trkpt lat="43.329313" lon="-3.132500">
        <ele>72.656</ele>
        <time>2019-06-16T12:06:25Z</time>
      </trkpt>
      <trkpt lat="43.329460" lon="-3.132620">
        <ele>73.515</ele>
        <time>2019-06-16T12:06:26Z</time>
      </trkpt>
      <trkpt lat="43.329620" lon="-3.132733">
        <ele>75.775</ele>
        <time>2019-06-16T12:06:27Z</time>
      </trkpt>
      <trkpt lat="43.329756" lon="-3.132853">
        <ele>76.841</ele>
        <time>2019-06-16T12:06:28Z</time>
      </trkpt>
      <trkpt lat="43.329878" lon="-3.132979">
        <ele>78.010</ele>
        <time>2019-06-16T12:06:29Z</time>
      </trkpt>
      <trkpt lat="43.329989" lon="-3.133119">
        <ele>79.164</ele>
        <time>2019-06-16T12:06:30Z</time>
      </trkpt>
      <trkpt lat="43.330069" lon="-3.133296">
        <ele>78.806</ele>
        <time>2019-06-16T12:06:31Z</time>
      </trkpt>
      <trkpt lat="43.330098" lon="-3.133470">
        <ele>78.816</ele>
        <time>2019-06-16T12:06:32Z</time>
      </trkpt>
      <trkpt lat="43.330137" lon="-3.133667">
        <ele>79.208</ele>
        <time>2019-06-16T12:06:33Z</time>
      </trkpt>
      <trkpt lat="43.330182" lon="-3.133873">
        <ele>80.319</ele>
        <time>2019-06-16T12:06:34Z</time>
      </trkpt>
      <trkpt lat="43.330253" lon="-3.134066">
        <ele>80.843</ele>
        <time>2019-06-16T12:06:35Z</time>
      </trkpt>
      <trkpt lat="43.330327" lon="-3.134289">
        <ele>81.223</ele>
        <time>2019-06-16T12:06:36Z</time>
      </trkpt>
      <trkpt lat="43.330396" lon="-3.134503">
        <ele>81.597</ele>
        <time>2019-06-16T12:06:37Z</time>
      </trkpt>
      <trkpt lat="43.330468" lon="-3.134721">
        <ele>82.086</ele>
        <time>2019-06-16T12:06:38Z</time>
      </trkpt>
      <trkpt lat="43.330532" lon="-3.134953">
        <ele>82.076</ele>
        <time>2019-06-16T12:06:39Z</time>
      </trkpt>
      <trkpt lat="43.330613" lon="-3.135184">
        <ele>82.562</ele>
        <time>2019-06-16T12:06:40Z</time>
      </trkpt>
      <trkpt lat="43.330689" lon="-3.135411">
        <ele>82.591</ele>
        <time>2019-06-16T12:06:41Z</time>
      </trkpt>
      <trkpt lat="43.330762" lon="-3.135644">
        <ele>82.711</ele>
        <time>2019-06-16T12:06:42Z</time>
      </trkpt>
      <trkpt lat="43.330838" lon="-3.135863">
        <ele>83.121</ele>
        <time>2019-06-16T12:06:43Z</time>
      </trkpt>
      <trkpt lat="43.330909" lon="-3.136086">
        <ele>83.403</ele>
        <time>2019-06-16T12:06:44Z</time>
      </trkpt>
      <trkpt lat="43.330939" lon="-3.136299">
        <ele>83.708</ele>
        <time>2019-06-16T12:06:45Z</time>
      </trkpt>
      <trkpt lat="43.331004" lon="-3.136520">
        <ele>83.944</ele>
        <time>2019-06-16T12:06:46Z</time>
      </trkpt>
      <trkpt lat="43.331078" lon="-3.136743">
        <ele>84.868</ele>
        <time>2019-06-16T12:06:47Z</time>
      </trkpt>
      <trkpt lat="43.331152" lon="-3.136963">
        <ele>85.818</ele>
        <time>2019-06-16T12:06:48Z</time>
      </trkpt>
      <trkpt lat="43.331270" lon="-3.137185">
        <ele>85.752</ele>
        <time>2019-06-16T12:06:49Z</time>
      </trkpt>
      <trkpt lat="43.331378" lon="-3.137408">
        <ele>86.531</ele>
        <time>2019-06-16T12:06:50Z</time>
      </trkpt>
      <trkpt lat="43.331527" lon="-3.137611">
        <ele>86.421</ele>
        <time>2019-06-16T12:06:51Z</time>
      </trkpt>
      <trkpt lat="43.331679" lon="-3.137803">
        <ele>87.247</ele>
        <time>2019-06-16T12:06:52Z</time>
      </trkpt>
      <trkpt lat="43.331837" lon="-3.137981">
        <ele>88.176</ele>
        <time>2019-06-16T12:06:53Z</time>
      </trkpt>
      <trkpt lat="43.331996" lon="-3.138155">
        <ele>88.898</ele>
        <time>2019-06-16T12:06:54Z</time>
      </trkpt>
      <trkpt lat="43.332156" lon="-3.138316">
        <ele>89.415</ele>
        <time>2019-06-16T12:06:55Z</time>
      </trkpt>
      <trkpt lat="43.332302" lon="-3.138469">
        <ele>89.926</ele>
        <time>2019-06-16T12:06:56Z</time>
      </trkpt>
      <trkpt lat="43.332438" lon="-3.138619">
        <ele>90.808</ele>
        <time>2019-06-16T12:06:57Z</time>
      </trkpt>
      <trkpt lat="43.332557" lon="-3.138766">
        <ele>91.262</ele>
        <time>2019-06-16T12:06:58Z</time>
      </trkpt>
      <trkpt lat="43.332681" lon="-3.138917">
        <ele>91.236</ele>
        <time>2019-06-16T12:06:59Z</time>
      </trkpt>
      <trkpt lat="43.332779" lon="-3.139078">
        <ele>92.436</ele>
        <time>2019-06-16T12:07:00Z</time>
      </trkpt>
      <trkpt lat="43.332882" lon="-3.139237">
        <ele>92.460</ele>
        <time>2019-06-16T12:07:01Z</time>
      </trkpt>
      <trkpt lat="43.332978" lon="-3.139393">
        <ele>92.219</ele>
        <time>2019-06-16T12:07:02Z</time>
      </trkpt>
      <trkpt lat="43.333068" lon="-3.139542">
        <ele>92.249</ele>
        <time>2019-06-16T12:07:03Z</time>
      </trkpt>
      <trkpt lat="43.333166" lon="-3.139682">
        <ele>92.495</ele>
        <time>2019-06-16T12:07:04Z</time>
      </trkpt>
      <trkpt lat="43.333264" lon="-3.139823">
        <ele>93.424</ele>
        <time>2019-06-16T12:07:05Z</time>
      </trkpt>
      <trkpt lat="43.333361" lon="-3.139934">
        <ele>95.236</ele>
        <time>2019-06-16T12:07:06Z</time>
      </trkpt>
      <trkpt lat="43.333514" lon="-3.140050">
        <ele>96.517</ele>
        <time>2019-06-16T12:07:07Z</time>
      </trkpt>
      <trkpt lat="43.333658" lon="-3.140156">
        <ele>97.318</ele>
        <time>2019-06-16T12:07:08Z</time>
      </trkpt>
      <trkpt lat="43.333806" lon="-3.140267">
        <ele>99.508</ele>
        <time>2019-06-16T12:07:09Z</time>
      </trkpt>
      <trkpt lat="43.333948" lon="-3.140382">
        <ele>100.726</ele>
        <time>2019-06-16T12:07:10Z</time>
      </trkpt>
      <trkpt lat="43.334095" lon="-3.140512">
        <ele>101.070</ele>
        <time>2019-06-16T12:07:11Z</time>
      </trkpt>
      <trkpt lat="43.334231" lon="-3.140659">
        <ele>101.790</ele>
        <time>2019-06-16T12:07:12Z</time>
      </trkpt>
      <trkpt lat="43.334367" lon="-3.140825">
        <ele>102.044</ele>
        <time>2019-06-16T12:07:13Z</time>
      </trkpt>
      <trkpt lat="43.334499" lon="-3.141003">
        <ele>102.763</ele>
        <time>2019-06-16T12:07:14Z</time>
      </trkpt>
      <trkpt lat="43.334633" lon="-3.141177">
        <ele>103.183</ele>
        <time>2019-06-16T12:07:15Z</time>
      </trkpt>
      <trkpt lat="43.334762" lon="-3.141344">
        <ele>103.189</ele>
        <time>2019-06-16T12:07:16Z</time>
      </trkpt>
      <trkpt lat="43.334867" lon="-3.141515">
        <ele>104.338</ele>
        <time>2019-06-16T12:07:17Z</time>
      </trkpt>
      <trkpt lat="43.335003" lon="-3.141686">
        <ele>105.342</ele>
        <time>2019-06-16T12:07:18Z</time>
      </trkpt>
      <trkpt lat="43.335128" lon="-3.141832">
        <ele>106.322</ele>
        <time>2019-06-16T12:07:19Z</time>
      </trkpt>
      <trkpt lat="43.335242" lon="-3.141992">
        <ele>107.214</ele>
        <time>2019-06-16T12:07:20Z</time>
      </trkpt>
      <trkpt lat="43.335351" lon="-3.142150">
        <ele>108.608</ele>
        <time>2019-06-16T12:07:21Z</time>
      </trkpt>
      <trkpt lat="43.335450" lon="-3.142327">
        <ele>109.377</ele>
        <time>2019-06-16T12:07:22Z</time>
      </trkpt>
      <trkpt lat="43.335546" lon="-3.142521">
        <ele>109.331</ele>
        <time>2019-06-16T12:07:23Z</time>
      </trkpt>
      <trkpt lat="43.335642" lon="-3.142719">
        <ele>110.451</ele>
        <time>2019-06-16T12:07:24Z</time>
      </trkpt>
      <trkpt lat="43.335696" lon="-3.142965">
        <ele>111.245</ele>
        <time>2019-06-16T12:07:25Z</time>
      </trkpt>
      <trkpt lat="43.335776" lon="-3.143194">
        <ele>110.384</ele>
        <time>2019-06-16T12:07:26Z</time>
      </trkpt>
      <trkpt lat="43.335852" lon="-3.143437">
        <ele>108.894</ele>
        <time>2019-06-16T12:07:27Z</time>
      </trkpt>
      <trkpt lat="43.335926" lon="-3.143682">
        <ele>108.060</ele>
        <time>2019-06-16T12:07:28Z</time>
      </trkpt>
      <trkpt lat="43.336000" lon="-3.143925">
        <ele>107.819</ele>
        <time>2019-06-16T12:07:29Z</time>
      </trkpt>
      <trkpt lat="43.336071" lon="-3.144164">
        <ele>109.011</ele>
        <time>2019-06-16T12:07:30Z</time>
      </trkpt>
      <trkpt lat="43.336173" lon="-3.144411">
        <ele>108.921</ele>
        <time>2019-06-16T12:07:31Z</time>
      </trkpt>
      <trkpt lat="43.336255" lon="-3.144667">
        <ele>108.503</ele>
        <time>2019-06-16T12:07:32Z</time>
      </trkpt>
      <trkpt lat="43.336340" lon="-3.144922">
        <ele>109.208</ele>
        <time>2019-06-16T12:07:33Z</time>
      </trkpt>
      <trkpt lat="43.336426" lon="-3.145179">
        <ele>110.174</ele>
        <time>2019-06-16T12:07:34Z</time>
      </trkpt>
      <trkpt lat="43.336473" lon="-3.145436">
        <ele>110.648</ele>
        <time>2019-06-16T12:07:35Z</time>
      </trkpt>
      <trkpt lat="43.336564" lon="-3.145693">
        <ele>108.758</ele>
        <time>2019-06-16T12:07:36Z</time>
      </trkpt>
      <trkpt lat="43.336656" lon="-3.145949">
        <ele>108.412</ele>
        <time>2019-06-16T12:07:37Z</time>
      </trkpt>
      <trkpt lat="43.336739" lon="-3.146199">
        <ele>109.311</ele>
        <time>2019-06-16T12:07:38Z</time>
      </trkpt>
      <trkpt lat="43.336866" lon="-3.146443">
        <ele>110.061</ele>
        <time>2019-06-16T12:07:39Z</time>
      </trkpt>
      <trkpt lat="43.336990" lon="-3.146676">
        <ele>110.957</ele>
        <time>2019-06-16T12:07:40Z</time>
      </trkpt>
      <trkpt lat="43.337108" lon="-3.146905">
        <ele>111.616</ele>
        <time>2019-06-16T12:07:41Z</time>
      </trkpt>
      <trkpt lat="43.337232" lon="-3.147135">
        <ele>112.148</ele>
        <time>2019-06-16T12:07:42Z</time>
      </trkpt>
      <trkpt lat="43.337335" lon="-3.147338">
        <ele>111.561</ele>
        <time>2019-06-16T12:07:43Z</time>
      </trkpt>
      <trkpt lat="43.337447" lon="-3.147540">
        <ele>111.217</ele>
        <time>2019-06-16T12:07:44Z</time>
      </trkpt>
      <trkpt lat="43.337540" lon="-3.147752">
        <ele>111.508</ele>
        <time>2019-06-16T12:07:45Z</time>
      </trkpt>
      <trkpt lat="43.337627" lon="-3.147979">
        <ele>110.837</ele>
        <time>2019-06-16T12:07:46Z</time>
      </trkpt>
      <trkpt lat="43.337698" lon="-3.148224">
        <ele>111.471</ele>
        <time>2019-06-16T12:07:47Z</time>
      </trkpt>
      <trkpt lat="43.337753" lon="-3.148486">
        <ele>112.531</ele>
        <time>2019-06-16T12:07:48Z</time>
      </trkpt>
      <trkpt lat="43.337803" lon="-3.148750">
        <ele>113.035</ele>
        <time>2019-06-16T12:07:49Z</time>
      </trkpt>
      <trkpt lat="43.337876" lon="-3.149006">
        <ele>112.224</ele>
        <time>2019-06-16T12:07:50Z</time>
      </trkpt>
      <trkpt lat="43.337913" lon="-3.149259">
        <ele>112.344</ele>
        <time>2019-06-16T12:07:51Z</time>
      </trkpt>
      <trkpt lat="43.337993" lon="-3.149511">
        <ele>109.820</ele>
        <time>2019-06-16T12:07:52Z</time>
      </trkpt>
      <trkpt lat="43.338029" lon="-3.149698">
        <ele>109.729</ele>
        <time>2019-06-16T12:07:53Z</time>
      </trkpt>
      <trkpt lat="43.338075" lon="-3.149905">
        <ele>113.733</ele>
        <time>2019-06-16T12:07:54Z</time>
      </trkpt>
      <trkpt lat="43.338071" lon="-3.150037">
        <ele>116.423</ele>
        <time>2019-06-16T12:07:55Z</time>
      </trkpt>
      <trkpt lat="43.338130" lon="-3.150167">
        <ele>117.915</ele>
        <time>2019-06-16T12:07:56Z</time>
      </trkpt>
      <trkpt lat="43.338184" lon="-3.150284">
        <ele>119.008</ele>
        <time>2019-06-16T12:07:57Z</time>
      </trkpt>
      <trkpt lat="43.338233" lon="-3.150393">
        <ele>119.626</ele>
        <time>2019-06-16T12:07:58Z</time>
      </trkpt>
      <trkpt lat="43.338302" lon="-3.150486">
        <ele>119.890</ele>
        <time>2019-06-16T12:07:59Z</time>
      </trkpt>
      <trkpt lat="43.338390" lon="-3.150604">
        <ele>120.340</ele>
        <time>2019-06-16T12:08:00Z</time>
      </trkpt>
      <trkpt lat="43.338471" lon="-3.150733">
        <ele>121.134</ele>
        <time>2019-06-16T12:08:01Z</time>
      </trkpt>
      <trkpt lat="43.338560" lon="-3.150866">
        <ele>121.583</ele>
        <time>2019-06-16T12:08:02Z</time>
      </trkpt>
      <trkpt lat="43.338651" lon="-3.151028">
        <ele>120.273</ele>
        <time>2019-06-16T12:08:03Z</time>
      </trkpt>
      <trkpt lat="43.338734" lon="-3.151211">
        <ele>119.649</ele>
        <time>2019-06-16T12:08:04Z</time>
      </trkpt>
      <trkpt lat="43.338817" lon="-3.151403">
        <ele>120.628</ele>
        <time>2019-06-16T12:08:05Z</time>
      </trkpt>
      <trkpt lat="43.338898" lon="-3.151616">
        <ele>120.653</ele>
        <time>2019-06-16T12:08:06Z</time>
      </trkpt>
      <trkpt lat="43.338984" lon="-3.151817">
        <ele>120.004</ele>
        <time>2019-06-16T12:08:07Z</time>
      </trkpt>
      <trkpt lat="43.339087" lon="-3.152017">
        <ele>120.714</ele>
        <time>2019-06-16T12:08:08Z</time>
      </trkpt>
      <trkpt lat="43.339227" lon="-3.152185">
        <ele>119.508</ele>
        <time>2019-06-16T12:08:09Z</time>
      </trkpt>
      <trkpt lat="43.339338" lon="-3.152341">
        <ele>119.138</ele>
        <time>2019-06-16T12:08:10Z</time>
      </trkpt>
      <trkpt lat="43.339495" lon="-3.152490">
        <ele>119.132</ele>
        <time>2019-06-16T12:08:11Z</time>
      </trkpt>
      <trkpt lat="43.339642" lon="-3.152649">
        <ele>119.812</ele>
        <time>2019-06-16T12:08:12Z</time>
      </trkpt>
      <trkpt lat="43.339793" lon="-3.152796">
        <ele>121.296</ele>
        <time>2019-06-16T12:08:13Z</time>
      </trkpt>
      <trkpt lat="43.339931" lon="-3.152954">
        <ele>121.175</ele>
        <time>2019-06-16T12:08:14Z</time>
      </trkpt>
      <trkpt lat="43.340067" lon="-3.153107">
        <ele>120.665</ele>
        <time>2019-06-16T12:08:15Z</time>
      </trkpt>
      <trkpt lat="43.340207" lon="-3.153258">
        <ele>121.321</ele>
        <time>2019-06-16T12:08:16Z</time>
      </trkpt>
      <trkpt lat="43.340332" lon="-3.153419">
        <ele>122.390</ele>
        <time>2019-06-16T12:08:17Z</time>
      </trkpt>
      <trkpt lat="43.340461" lon="-3.153589">
        <ele>123.053</ele>
        <time>2019-06-16T12:08:18Z</time>
      </trkpt>
      <trkpt lat="43.340599" lon="-3.153772">
        <ele>123.004</ele>
        <time>2019-06-16T12:08:19Z</time>
      </trkpt>
      <trkpt lat="43.340726" lon="-3.153948">
        <ele>122.714</ele>
        <time>2019-06-16T12:08:20Z</time>
      </trkpt>
      <trkpt lat="43.340876" lon="-3.154122">
        <ele>121.708</ele>
        <time>2019-06-16T12:08:21Z</time>
      </trkpt>
      <trkpt lat="43.341008" lon="-3.154303">
        <ele>121.678</ele>
        <time>2019-06-16T12:08:22Z</time>
      </trkpt>
      <trkpt lat="43.341137" lon="-3.154491">
        <ele>121.822</ele>
        <time>2019-06-16T12:08:23Z</time>
      </trkpt>
      <trkpt lat="43.341279" lon="-3.154681">
        <ele>121.882</ele>
        <time>2019-06-16T12:08:24Z</time>
      </trkpt>
      <trkpt lat="43.341412" lon="-3.154872">
        <ele>121.966</ele>
        <time>2019-06-16T12:08:25Z</time>
      </trkpt>
      <trkpt lat="43.341562" lon="-3.155056">
        <ele>121.465</ele>
        <time>2019-06-16T12:08:26Z</time>
      </trkpt>
      <trkpt lat="43.341676" lon="-3.155238">
        <ele>121.025</ele>
        <time>2019-06-16T12:08:27Z</time>
      </trkpt>
      <trkpt lat="43.341798" lon="-3.155409">
        <ele>121.281</ele>
        <time>2019-06-16T12:08:28Z</time>
      </trkpt>
      <trkpt lat="43.341920" lon="-3.155581">
        <ele>121.180</ele>
        <time>2019-06-16T12:08:29Z</time>
      </trkpt>
      <trkpt lat="43.342018" lon="-3.155741">
        <ele>121.011</ele>
        <time>2019-06-16T12:08:30Z</time>
      </trkpt>
      <trkpt lat="43.342118" lon="-3.155899">
        <ele>121.121</ele>
        <time>2019-06-16T12:08:31Z</time>
      </trkpt>
      <trkpt lat="43.342208" lon="-3.156043">
        <ele>120.403</ele>
        <time>2019-06-16T12:08:32Z</time>
      </trkpt>
      <trkpt lat="43.342302" lon="-3.156173">
        <ele>119.908</ele>
        <time>2019-06-16T12:08:33Z</time>
      </trkpt>
      <trkpt lat="43.342377" lon="-3.156285">
        <ele>119.314</ele>
        <time>2019-06-16T12:08:34Z</time>
      </trkpt>
      <trkpt lat="43.342449" lon="-3.156372">
        <ele>118.588</ele>
        <time>2019-06-16T12:08:35Z</time>
      </trkpt>
      <trkpt lat="43.342517" lon="-3.156446">
        <ele>117.798</ele>
        <time>2019-06-16T12:08:36Z</time>
      </trkpt>
      <trkpt lat="43.342577" lon="-3.156491">
        <ele>117.212</ele>
        <time>2019-06-16T12:08:37Z</time>
      </trkpt>
      <trkpt lat="43.342656" lon="-3.156511">
        <ele>116.751</ele>
        <time>2019-06-16T12:08:38Z</time>
      </trkpt>
      <trkpt lat="43.342720" lon="-3.156549">
        <ele>116.311</ele>
        <time>2019-06-16T12:08:39Z</time>
      </trkpt>
      <trkpt lat="43.342780" lon="-3.156605">
        <ele>116.077</ele>
        <time>2019-06-16T12:08:40Z</time>
      </trkpt>
      <trkpt lat="43.342818" lon="-3.156679">
        <ele>115.156</ele>
        <time>2019-06-16T12:08:41Z</time>
      </trkpt>
      <trkpt lat="43.342853" lon="-3.156745">
        <ele>114.389</ele>
        <time>2019-06-16T12:08:42Z</time>
      </trkpt>
      <trkpt lat="43.342810" lon="-3.156811">
        <ele>115.006</ele>
        <time>2019-06-16T12:08:43Z</time>
      </trkpt>
      <trkpt lat="43.342783" lon="-3.156885">
        <ele>115.126</ele>
        <time>2019-06-16T12:08:44Z</time>
      </trkpt>
      <trkpt lat="43.342759" lon="-3.156969">
        <ele>115.208</ele>
        <time>2019-06-16T12:08:45Z</time>
      </trkpt>
      <trkpt lat="43.342771" lon="-3.157030">
        <ele>115.161</ele>
        <time>2019-06-16T12:08:46Z</time>
      </trkpt>
      <trkpt lat="43.342789" lon="-3.157118">
        <ele>114.975</ele>
        <time>2019-06-16T12:08:47Z</time>
      </trkpt>
      <trkpt lat="43.342890" lon="-3.157224">
        <ele>113.865</ele>
        <time>2019-06-16T12:08:48Z</time>
      </trkpt>
      <trkpt lat="43.342971" lon="-3.157338">
        <ele>113.349</ele>
        <time>2019-06-16T12:08:49Z</time>
      </trkpt>
      <trkpt lat="43.343057" lon="-3.157458">
        <ele>112.078</ele>
        <time>2019-06-16T12:08:50Z</time>
      </trkpt>
      <trkpt lat="43.343190" lon="-3.157593">
        <ele>110.788</ele>
        <time>2019-06-16T12:08:51Z</time>
      </trkpt>
      <trkpt lat="43.343287" lon="-3.157752">
        <ele>109.754</ele>
        <time>2019-06-16T12:08:52Z</time>
      </trkpt>
      <trkpt lat="43.343407" lon="-3.157921">
        <ele>108.183</ele>
        <time>2019-06-16T12:08:53Z</time>
      </trkpt>
      <trkpt lat="43.343532" lon="-3.158090">
        <ele>106.926</ele>
        <time>2019-06-16T12:08:54Z</time>
      </trkpt>
      <trkpt lat="43.343645" lon="-3.158279">
        <ele>104.947</ele>
        <time>2019-06-16T12:08:55Z</time>
      </trkpt>
      <trkpt lat="43.343779" lon="-3.158466">
        <ele>104.411</ele>
        <time>2019-06-16T12:08:56Z</time>
      </trkpt>
      <trkpt lat="43.343913" lon="-3.158652">
        <ele>102.908</ele>
        <time>2019-06-16T12:08:57Z</time>
      </trkpt>
      <trkpt lat="43.344045" lon="-3.158874">
        <ele>102.145</ele>
        <time>2019-06-16T12:08:58Z</time>
      </trkpt>
      <trkpt lat="43.344174" lon="-3.159097">
        <ele>100.719</ele>
        <time>2019-06-16T12:08:59Z</time>
      </trkpt>
      <trkpt lat="43.344328" lon="-3.159302">
        <ele>100.279</ele>
        <time>2019-06-16T12:09:00Z</time>
      </trkpt>
      <trkpt lat="43.344461" lon="-3.159512">
        <ele>98.773</ele>
        <time>2019-06-16T12:09:01Z</time>
      </trkpt>
      <trkpt lat="43.344606" lon="-3.159701">
        <ele>97.222</ele>
        <time>2019-06-16T12:09:02Z</time>
      </trkpt>
      <trkpt lat="43.344739" lon="-3.159897">
        <ele>95.862</ele>
        <time>2019-06-16T12:09:03Z</time>
      </trkpt>
      <trkpt lat="43.344891" lon="-3.160079">
        <ele>94.578</ele>
        <time>2019-06-16T12:09:04Z</time>
      </trkpt>
      <trkpt lat="43.345021" lon="-3.160263">
        <ele>92.747</ele>
        <time>2019-06-16T12:09:05Z</time>
      </trkpt>
      <trkpt lat="43.345141" lon="-3.160466">
        <ele>91.099</ele>
        <time>2019-06-16T12:09:06Z</time>
      </trkpt>
      <trkpt lat="43.345236" lon="-3.160698">
        <ele>89.107</ele>
        <time>2019-06-16T12:09:07Z</time>
      </trkpt>
      <trkpt lat="43.345369" lon="-3.160913">
        <ele>86.127</ele>
        <time>2019-06-16T12:09:08Z</time>
      </trkpt>
      <trkpt lat="43.345514" lon="-3.161151">
        <ele>83.908</ele>
        <time>2019-06-16T12:09:09Z</time>
      </trkpt>
      <trkpt lat="43.345631" lon="-3.161389">
        <ele>83.392</ele>
        <time>2019-06-16T12:09:10Z</time>
      </trkpt>
      <trkpt lat="43.345748" lon="-3.161640">
        <ele>81.566</ele>
        <time>2019-06-16T12:09:11Z</time>
      </trkpt>
      <trkpt lat="43.345864" lon="-3.161873">
        <ele>80.326</ele>
        <time>2019-06-16T12:09:12Z</time>
      </trkpt>
      <trkpt lat="43.345995" lon="-3.162092">
        <ele>78.990</ele>
        <time>2019-06-16T12:09:13Z</time>
      </trkpt>
      <trkpt lat="43.346148" lon="-3.162301">
        <ele>77.059</ele>
        <time>2019-06-16T12:09:14Z</time>
      </trkpt>
      <trkpt lat="43.346284" lon="-3.162508">
        <ele>75.549</ele>
        <time>2019-06-16T12:09:15Z</time>
      </trkpt>
      <trkpt lat="43.346417" lon="-3.162705">
        <ele>74.035</ele>
        <time>2019-06-16T12:09:16Z</time>
      </trkpt>
      <trkpt lat="43.346541" lon="-3.162890">
        <ele>72.684</ele>
        <time>2019-06-16T12:09:17Z</time>
      </trkpt>
      <trkpt lat="43.346659" lon="-3.163082">
        <ele>72.661</ele>
        <time>2019-06-16T12:09:18Z</time>
      </trkpt>
      <trkpt lat="43.346783" lon="-3.163265">
        <ele>71.121</ele>
        <time>2019-06-16T12:09:19Z</time>
      </trkpt>
      <trkpt lat="43.346918" lon="-3.163428">
        <ele>69.213</ele>
        <time>2019-06-16T12:09:20Z</time>
      </trkpt>
      <trkpt lat="43.347053" lon="-3.163615">
        <ele>67.608</ele>
        <time>2019-06-16T12:09:21Z</time>
      </trkpt>
      <trkpt lat="43.347184" lon="-3.163813">
        <ele>66.959</ele>
        <time>2019-06-16T12:09:22Z</time>
      </trkpt>
      <trkpt lat="43.347309" lon="-3.164029">
        <ele>65.423</ele>
        <time>2019-06-16T12:09:23Z</time>
      </trkpt>
      <trkpt lat="43.347428" lon="-3.164268">
        <ele>63.753</ele>
        <time>2019-06-16T12:09:24Z</time>
      </trkpt>
      <trkpt lat="43.347557" lon="-3.164516">
        <ele>61.917</ele>
        <time>2019-06-16T12:09:25Z</time>
      </trkpt>
      <trkpt lat="43.347698" lon="-3.164746">
        <ele>59.556</ele>
        <time>2019-06-16T12:09:26Z</time>
      </trkpt>
      <trkpt lat="43.347827" lon="-3.164989">
        <ele>58.476</ele>
        <time>2019-06-16T12:09:27Z</time>
      </trkpt>
      <trkpt lat="43.347945" lon="-3.165221">
        <ele>57.942</ele>
        <time>2019-06-16T12:09:28Z</time>
      </trkpt>
      <trkpt lat="43.348073" lon="-3.165449">
        <ele>56.431</ele>
        <time>2019-06-16T12:09:29Z</time>
      </trkpt>
      <trkpt lat="43.348199" lon="-3.165680">
        <ele>54.874</ele>
        <time>2019-06-16T12:09:30Z</time>
      </trkpt>
      <trkpt lat="43.348328" lon="-3.165909">
        <ele>52.356</ele>
        <time>2019-06-16T12:09:31Z</time>
      </trkpt>
      <trkpt lat="43.348448" lon="-3.166132">
        <ele>51.221</ele>
        <time>2019-06-16T12:09:32Z</time>
      </trkpt>
      <trkpt lat="43.348558" lon="-3.166355">
        <ele>50.608</ele>
        <time>2019-06-16T12:09:33Z</time>
      </trkpt>
      <trkpt lat="43.348673" lon="-3.166569">
        <ele>50.190</ele>
        <time>2019-06-16T12:09:34Z</time>
      </trkpt>
      <trkpt lat="43.348788" lon="-3.166772">
        <ele>49.474</ele>
        <time>2019-06-16T12:09:35Z</time>
      </trkpt>
      <trkpt lat="43.348890" lon="-3.166965">
        <ele>49.234</ele>
        <time>2019-06-16T12:09:36Z</time>
      </trkpt>
      <trkpt lat="43.349000" lon="-3.167165">
        <ele>48.488</ele>
        <time>2019-06-16T12:09:37Z</time>
      </trkpt>
      <trkpt lat="43.349125" lon="-3.167360">
        <ele>47.647</ele>
        <time>2019-06-16T12:09:38Z</time>
      </trkpt>
      <trkpt lat="43.349240" lon="-3.167555">
        <ele>46.157</ele>
        <time>2019-06-16T12:09:39Z</time>
      </trkpt>
      <trkpt lat="43.349379" lon="-3.167742">
        <ele>42.823</ele>
        <time>2019-06-16T12:09:40Z</time>
      </trkpt>
      <trkpt lat="43.349490" lon="-3.167948">
        <ele>41.212</ele>
        <time>2019-06-16T12:09:41Z</time>
      </trkpt>
      <trkpt lat="43.349597" lon="-3.168136">
        <ele>39.326</ele>
        <time>2019-06-16T12:09:42Z</time>
      </trkpt>
      <trkpt lat="43.349700" lon="-3.168320">
        <ele>38.647</ele>
        <time>2019-06-16T12:09:43Z</time>
      </trkpt>
      <trkpt lat="43.349826" lon="-3.168510">
        <ele>37.111</ele>
        <time>2019-06-16T12:09:44Z</time>
      </trkpt>
      <trkpt lat="43.349939" lon="-3.168676">
        <ele>36.108</ele>
        <time>2019-06-16T12:09:45Z</time>
      </trkpt>
      <trkpt lat="43.350052" lon="-3.168843">
        <ele>35.865</ele>
        <time>2019-06-16T12:09:46Z</time>
      </trkpt>
      <trkpt lat="43.350172" lon="-3.168994">
        <ele>34.379</ele>
        <time>2019-06-16T12:09:47Z</time>
      </trkpt>
      <trkpt lat="43.350285" lon="-3.169145">
        <ele>33.369</ele>
        <time>2019-06-16T12:09:48Z</time>
      </trkpt>
      <trkpt lat="43.350355" lon="-3.169290">
        <ele>34.763</ele>
        <time>2019-06-16T12:09:49Z</time>
      </trkpt>
      <trkpt lat="43.350427" lon="-3.169434">
        <ele>36.582</ele>
        <time>2019-06-16T12:09:50Z</time>
      </trkpt>
      <trkpt lat="43.350503" lon="-3.169564">
        <ele>36.052</ele>
        <time>2019-06-16T12:09:51Z</time>
      </trkpt>
      <trkpt lat="43.350574" lon="-3.169699">
        <ele>35.558</ele>
        <time>2019-06-16T12:09:52Z</time>
      </trkpt>
      <trkpt lat="43.350634" lon="-3.169855">
        <ele>34.497</ele>
        <time>2019-06-16T12:09:53Z</time>
      </trkpt>
      <trkpt lat="43.350670" lon="-3.170027">
        <ele>33.556</ele>
        <time>2019-06-16T12:09:54Z</time>
      </trkpt>
      <trkpt lat="43.350718" lon="-3.170195">
        <ele>31.159</ele>
        <time>2019-06-16T12:09:55Z</time>
      </trkpt>
      <trkpt lat="43.350650" lon="-3.170360">
        <ele>29.714</ele>
        <time>2019-06-16T12:09:56Z</time>
      </trkpt>
      <trkpt lat="43.350602" lon="-3.170546">
        <ele>28.008</ele>
        <time>2019-06-16T12:09:57Z</time>
      </trkpt>
      <trkpt lat="43.350558" lon="-3.170716">
        <ele>27.268</ele>
        <time>2019-06-16T12:09:58Z</time>
      </trkpt>
      <trkpt lat="43.350542" lon="-3.170905">
        <ele>26.372</ele>
        <time>2019-06-16T12:09:59Z</time>
      </trkpt>
      <trkpt lat="43.350506" lon="-3.171085">
        <ele>26.972</ele>
        <time>2019-06-16T12:10:00Z</time>
      </trkpt>
      <trkpt lat="43.350530" lon="-3.171270">
        <ele>25.516</ele>
        <time>2019-06-16T12:10:01Z</time>
      </trkpt>
      <trkpt lat="43.350535" lon="-3.171462">
        <ele>24.475</ele>
        <time>2019-06-16T12:10:02Z</time>
      </trkpt>
      <trkpt lat="43.350538" lon="-3.171649">
        <ele>23.855</ele>
        <time>2019-06-16T12:10:03Z</time>
      </trkpt>
      <trkpt lat="43.350520" lon="-3.171790">
        <ele>23.531</ele>
        <time>2019-06-16T12:10:04Z</time>
      </trkpt>
      <trkpt lat="43.350505" lon="-3.171941">
        <ele>22.840</ele>
        <time>2019-06-16T12:10:05Z</time>
      </trkpt>
      <trkpt lat="43.350494" lon="-3.172094">
        <ele>19.926</ele>
        <time>2019-06-16T12:10:06Z</time>
      </trkpt>
      <trkpt lat="43.350410" lon="-3.172229">
        <ele>19.647</ele>
        <time>2019-06-16T12:10:07Z</time>
      </trkpt>
      <trkpt lat="43.350295" lon="-3.172332">
        <ele>20.811</ele>
        <time>2019-06-16T12:10:08Z</time>
      </trkpt>
      <trkpt lat="43.350178" lon="-3.172406">
        <ele>21.708</ele>
        <time>2019-06-16T12:10:09Z</time>
      </trkpt>
      <trkpt lat="43.350077" lon="-3.172446">
        <ele>22.585</ele>
        <time>2019-06-16T12:10:10Z</time>
      </trkpt>
      <trkpt lat="43.349983" lon="-3.172497">
        <ele>22.249</ele>
        <time>2019-06-16T12:10:11Z</time>
      </trkpt>
      <trkpt lat="43.349896" lon="-3.172567">
        <ele>21.249</ele>
        <time>2019-06-16T12:10:12Z</time>
      </trkpt>
      <trkpt lat="43.349856" lon="-3.172651">
        <ele>20.193</ele>
        <time>2019-06-16T12:10:13Z</time>
      </trkpt>
      <trkpt lat="43.349824" lon="-3.172733">
        <ele>19.272</ele>
        <time>2019-06-16T12:10:14Z</time>
      </trkpt>
      <trkpt lat="43.349793" lon="-3.172821">
        <ele>21.322</ele>
        <time>2019-06-16T12:10:15Z</time>
      </trkpt>
      <trkpt lat="43.349910" lon="-3.172876">
        <ele>22.048</ele>
        <time>2019-06-16T12:10:16Z</time>
      </trkpt>
      <trkpt lat="43.349976" lon="-3.172937">
        <ele>23.467</ele>
        <time>2019-06-16T12:10:17Z</time>
      </trkpt>
      <trkpt lat="43.350037" lon="-3.172973">
        <ele>24.085</ele>
        <time>2019-06-16T12:10:18Z</time>
      </trkpt>
      <trkpt lat="43.350154" lon="-3.173021">
        <ele>24.489</ele>
        <time>2019-06-16T12:10:19Z</time>
      </trkpt>
      <trkpt lat="43.350266" lon="-3.173086">
        <ele>25.817</ele>
        <time>2019-06-16T12:10:20Z</time>
      </trkpt>
      <trkpt lat="43.350369" lon="-3.173157">
        <ele>27.508</ele>
        <time>2019-06-16T12:10:21Z</time>
      </trkpt>
      <trkpt lat="43.350495" lon="-3.173257">
        <ele>28.041</ele>
        <time>2019-06-16T12:10:22Z</time>
      </trkpt>
      <trkpt lat="43.350616" lon="-3.173351">
        <ele>27.945</ele>
        <time>2019-06-16T12:10:23Z</time>
      </trkpt>
      <trkpt lat="43.350771" lon="-3.173447">
        <ele>28.745</ele>
        <time>2019-06-16T12:10:24Z</time>
      </trkpt>
      <trkpt lat="43.350904" lon="-3.173527">
        <ele>29.149</ele>
        <time>2019-06-16T12:10:25Z</time>
      </trkpt>
      <trkpt lat="43.351080" lon="-3.173604">
        <ele>29.238</ele>
        <time>2019-06-16T12:10:26Z</time>
      </trkpt>
      <trkpt lat="43.351251" lon="-3.173675">
        <ele>31.148</ele>
        <time>2019-06-16T12:10:27Z</time>
      </trkpt>
      <trkpt lat="43.351400" lon="-3.173737">
        <ele>32.784</ele>
        <time>2019-06-16T12:10:28Z</time>
      </trkpt>
      <trkpt lat="43.351499" lon="-3.173792">
        <ele>33.483</ele>
        <time>2019-06-16T12:10:29Z</time>
      </trkpt>
      <trkpt lat="43.351602" lon="-3.173866">
        <ele>34.172</ele>
        <time>2019-06-16T12:10:30Z</time>
      </trkpt>
      <trkpt lat="43.351706" lon="-3.173944">
        <ele>34.213</ele>
        <time>2019-06-16T12:10:31Z</time>
      </trkpt>
      <trkpt lat="43.351773" lon="-3.174094">
        <ele>35.014</ele>
        <time>2019-06-16T12:10:32Z</time>
      </trkpt>
      <trkpt lat="43.351833" lon="-3.174246">
        <ele>35.608</ele>
        <time>2019-06-16T12:10:33Z</time>
      </trkpt>
      <trkpt lat="43.351878" lon="-3.174414">
        <ele>37.560</ele>
        <time>2019-06-16T12:10:34Z</time>
      </trkpt>
      <trkpt lat="43.351913" lon="-3.174591">
        <ele>39.724</ele>
        <time>2019-06-16T12:10:35Z</time>
      </trkpt>
      <trkpt lat="43.351963" lon="-3.174787">
        <ele>41.734</ele>
        <time>2019-06-16T12:10:36Z</time>
      </trkpt>
      <trkpt lat="43.352010" lon="-3.174982">
        <ele>42.928</ele>
        <time>2019-06-16T12:10:37Z</time>
      </trkpt>
      <trkpt lat="43.352028" lon="-3.175159">
        <ele>44.227</ele>
        <time>2019-06-16T12:10:38Z</time>
      </trkpt>
      <trkpt lat="43.352075" lon="-3.175302">
        <ele>44.457</ele>
        <time>2019-06-16T12:10:39Z</time>
      </trkpt>
      <trkpt lat="43.352152" lon="-3.175416">
        <ele>44.373</ele>
        <time>2019-06-16T12:10:40Z</time>
      </trkpt>
      <trkpt lat="43.352214" lon="-3.175534">
        <ele>44.822</ele>
        <time>2019-06-16T12:10:41Z</time>
      </trkpt>
      <trkpt lat="43.352284" lon="-3.175639">
        <ele>46.514</ele>
        <time>2019-06-16T12:10:42Z</time>
      </trkpt>
      <trkpt lat="43.352560" lon="-3.175632">
        <ele>48.854</ele>
        <time>2019-06-16T12:10:43Z</time>
      </trkpt>
      <trkpt lat="43.352674" lon="-3.175642">
        <ele>49.209</ele>
        <time>2019-06-16T12:10:44Z</time>
      </trkpt>
      <trkpt lat="43.352797" lon="-3.175643">
        <ele>49.808</ele>
        <time>2019-06-16T12:10:45Z</time>
      </trkpt>
      <trkpt lat="43.352905" lon="-3.175649">
        <ele>50.694</ele>
        <time>2019-06-16T12:10:46Z</time>
      </trkpt>
      <trkpt lat="43.352962" lon="-3.175656">
        <ele>51.078</ele>
        <time>2019-06-16T12:10:47Z</time>
      </trkpt>
      <trkpt lat="43.353080" lon="-3.175645">
        <ele>52.118</ele>
        <time>2019-06-16T12:10:48Z</time>
      </trkpt>
      <trkpt lat="43.353168" lon="-3.175581">
        <ele>53.262</ele>
        <time>2019-06-16T12:10:49Z</time>
      </trkpt>
      <trkpt lat="43.353247" lon="-3.175514">
        <ele>54.171</ele>
        <time>2019-06-16T12:10:50Z</time>
      </trkpt>
      <trkpt lat="43.353332" lon="-3.175449">
        <ele>55.281</ele>
        <time>2019-06-16T12:10:51Z</time>
      </trkpt>
      <trkpt lat="43.353410" lon="-3.175228">
        <ele>57.187</ele>
        <time>2019-06-16T12:10:52Z</time>
      </trkpt>
      <trkpt lat="43.353453" lon="-3.175099">
        <ele>58.146</ele>
        <time>2019-06-16T12:10:53Z</time>
      </trkpt>
      <trkpt lat="43.353491" lon="-3.175000">
        <ele>58.542</ele>
        <time>2019-06-16T12:10:54Z</time>
      </trkpt>
      <trkpt lat="43.353535" lon="-3.174933">
        <ele>59.522</ele>
        <time>2019-06-16T12:10:55Z</time>
      </trkpt>
      <trkpt lat="43.353590" lon="-3.174865">
        <ele>60.514</ele>
        <time>2019-06-16T12:10:56Z</time>
      </trkpt>
      <trkpt lat="43.353739" lon="-3.174858">
        <ele>64.208</ele>
        <time>2019-06-16T12:10:57Z</time>
      </trkpt>
      <trkpt lat="43.353844" lon="-3.174855">
        <ele>66.927</ele>
        <time>2019-06-16T12:10:58Z</time>
      </trkpt>
      <trkpt lat="43.353947" lon="-3.174851">
        <ele>67.411</ele>
        <time>2019-06-16T12:10:59Z</time>
      </trkpt>
      <trkpt lat="43.354027" lon="-3.174886">
        <ele>66.571</ele>
        <time>2019-06-16T12:11:00Z</time>
      </trkpt>
      <trkpt lat="43.354142" lon="-3.174908">
        <ele>65.395</ele>
        <time>2019-06-16T12:11:01Z</time>
      </trkpt>
      <trkpt lat="43.354221" lon="-3.174800">
        <ele>65.684</ele>
        <time>2019-06-16T12:11:02Z</time>
      </trkpt>
      <trkpt lat="43.354320" lon="-3.174743">
        <ele>66.714</ele>
        <time>2019-06-16T12:11:03Z</time>
      </trkpt>
      <trkpt lat="43.354406" lon="-3.174721">
        <ele>67.630</ele>
        <time>2019-06-16T12:11:04Z</time>
      </trkpt>
      <trkpt lat="43.354499" lon="-3.174691">
        <ele>69.899</ele>
        <time>2019-06-16T12:11:05Z</time>
      </trkpt>
      <trkpt lat="43.354580" lon="-3.174716">
        <ele>71.566</ele>
        <time>2019-06-16T12:11:06Z</time>
      </trkpt>
      <trkpt lat="43.354667" lon="-3.174756">
        <ele>73.429</ele>
        <time>2019-06-16T12:11:07Z</time>
      </trkpt>
      <trkpt lat="43.354718" lon="-3.174855">
        <ele>74.021</ele>
        <time>2019-06-16T12:11:08Z</time>
      </trkpt>
      <trkpt lat="43.354786" lon="-3.174953">
        <ele>74.908</ele>
        <time>2019-06-16T12:11:09Z</time>
      </trkpt>
      <trkpt lat="43.354836" lon="-3.175070">
        <ele>75.839</ele>
        <time>2019-06-16T12:11:10Z</time>
      </trkpt>
      <trkpt lat="43.354895" lon="-3.175201">
        <ele>76.773</ele>
        <time>2019-06-16T12:11:11Z</time>
      </trkpt>
      <trkpt lat="43.354939" lon="-3.175321">
        <ele>77.083</ele>
        <time>2019-06-16T12:11:12Z</time>
      </trkpt>
      <trkpt lat="43.354986" lon="-3.175447">
        <ele>77.277</ele>
        <time>2019-06-16T12:11:13Z</time>
      </trkpt>
      <trkpt lat="43.355030" lon="-3.175564">
        <ele>77.666</ele>
        <time>2019-06-16T12:11:14Z</time>
      </trkpt>
      <trkpt lat="43.355097" lon="-3.175678">
        <ele>78.976</ele>
        <time>2019-06-16T12:11:15Z</time>
      </trkpt>
      <trkpt lat="43.355151" lon="-3.175796">
        <ele>79.692</ele>
        <time>2019-06-16T12:11:16Z</time>
      </trkpt>
      <trkpt lat="43.355197" lon="-3.175897">
        <ele>80.261</ele>
        <time>2019-06-16T12:11:17Z</time>
      </trkpt>
      <trkpt lat="43.355235" lon="-3.175983">
        <ele>80.677</ele>
        <time>2019-06-16T12:11:18Z</time>
      </trkpt>
      <trkpt lat="43.355295" lon="-3.176067">
        <ele>81.061</ele>
        <time>2019-06-16T12:11:19Z</time>
      </trkpt>
      <trkpt lat="43.355340" lon="-3.176149">
        <ele>81.027</ele>
        <time>2019-06-16T12:11:20Z</time>
      </trkpt>
      <trkpt lat="43.355371" lon="-3.176244">
        <ele>80.808</ele>
        <time>2019-06-16T12:11:21Z</time>
      </trkpt>
      <trkpt lat="43.355378" lon="-3.176324">
        <ele>80.790</ele>
        <time>2019-06-16T12:11:22Z</time>
      </trkpt>
      <trkpt lat="43.355370" lon="-3.176420">
        <ele>80.754</ele>
        <time>2019-06-16T12:11:23Z</time>
      </trkpt>
      <trkpt lat="43.355329" lon="-3.176526">
        <ele>81.284</ele>
        <time>2019-06-16T12:11:24Z</time>
      </trkpt>
      <trkpt lat="43.355296" lon="-3.176638">
        <ele>81.848</ele>
        <time>2019-06-16T12:11:25Z</time>
      </trkpt>
      <trkpt lat="43.355256" lon="-3.176774">
        <ele>82.627</ele>
        <time>2019-06-16T12:11:26Z</time>
      </trkpt>
      <trkpt lat="43.355204" lon="-3.176917">
        <ele>83.527</ele>
        <time>2019-06-16T12:11:27Z</time>
      </trkpt>
      <trkpt lat="43.355145" lon="-3.177051">
        <ele>84.353</ele>
        <time>2019-06-16T12:11:28Z</time>
      </trkpt>
      <trkpt lat="43.355062" lon="-3.177209">
        <ele>85.772</ele>
        <time>2019-06-16T12:11:29Z</time>
      </trkpt>
      <trkpt lat="43.354961" lon="-3.177352">
        <ele>87.624</ele>
        <time>2019-06-16T12:11:30Z</time>
      </trkpt>
      <trkpt lat="43.354857" lon="-3.177500">
        <ele>89.004</ele>
        <time>2019-06-16T12:11:31Z</time>
      </trkpt>
      <trkpt lat="43.354745" lon="-3.177637">
        <ele>89.714</ele>
        <time>2019-06-16T12:11:32Z</time>
      </trkpt>
      <trkpt lat="43.354628" lon="-3.177775">
        <ele>90.608</ele>
        <time>2019-06-16T12:11:33Z</time>
      </trkpt>
      <trkpt lat="43.354505" lon="-3.177901">
        <ele>91.345</ele>
        <time>2019-06-16T12:11:34Z</time>
      </trkpt>
      <trkpt lat="43.354385" lon="-3.178022">
        <ele>91.319</ele>
        <time>2019-06-16T12:11:35Z</time>
      </trkpt>
      <trkpt lat="43.354283" lon="-3.178134">
        <ele>92.119</ele>
        <time>2019-06-16T12:11:36Z</time>
      </trkpt>
      <trkpt lat="43.354199" lon="-3.178233">
        <ele>93.463</ele>
        <time>2019-06-16T12:11:37Z</time>
      </trkpt>
      <trkpt lat="43.354124" lon="-3.178345">
        <ele>94.072</ele>
        <time>2019-06-16T12:11:38Z</time>
      </trkpt>
      <trkpt lat="43.354079" lon="-3.178463">
        <ele>93.752</ele>
        <time>2019-06-16T12:11:39Z</time>
      </trkpt>
      <trkpt lat="43.354032" lon="-3.178602">
        <ele>93.188</ele>
        <time>2019-06-16T12:11:40Z</time>
      </trkpt>
      <trkpt lat="43.354008" lon="-3.178747">
        <ele>93.387</ele>
        <time>2019-06-16T12:11:41Z</time>
      </trkpt>
      <trkpt lat="43.353990" lon="-3.178885">
        <ele>93.993</ele>
        <time>2019-06-16T12:11:42Z</time>
      </trkpt>
      <trkpt lat="43.354119" lon="-3.179047">
        <ele>97.665</ele>
        <time>2019-06-16T12:11:43Z</time>
      </trkpt>
      <trkpt lat="43.354186" lon="-3.179209">
        <ele>99.021</ele>
        <time>2019-06-16T12:11:44Z</time>
      </trkpt>
      <trkpt lat="43.354255" lon="-3.179369">
        <ele>99.108</ele>
        <time>2019-06-16T12:11:45Z</time>
      </trkpt>
      <trkpt lat="43.354319" lon="-3.179528">
        <ele>99.652</ele>
        <time>2019-06-16T12:11:46Z</time>
      </trkpt>
      <trkpt lat="43.354368" lon="-3.179686">
        <ele>100.246</ele>
        <time>2019-06-16T12:11:47Z</time>
      </trkpt>
      <trkpt lat="43.354420" lon="-3.179837">
        <ele>101.046</ele>
        <time>2019-06-16T12:11:48Z</time>
      </trkpt>
      <trkpt lat="43.354464" lon="-3.179997">
        <ele>101.830</ele>
        <time>2019-06-16T12:11:49Z</time>
      </trkpt>
      <trkpt lat="43.354431" lon="-3.180149">
        <ele>101.749</ele>
        <time>2019-06-16T12:11:50Z</time>
      </trkpt>
      <trkpt lat="43.354347" lon="-3.180322">
        <ele>99.989</ele>
        <time>2019-06-16T12:11:51Z</time>
      </trkpt>
      <trkpt lat="43.354285" lon="-3.180496">
        <ele>99.225</ele>
        <time>2019-06-16T12:11:52Z</time>
      </trkpt>
      <trkpt lat="43.354220" lon="-3.180686">
        <ele>101.134</ele>
        <time>2019-06-16T12:11:53Z</time>
      </trkpt>
      <trkpt lat="43.354159" lon="-3.180871">
        <ele>104.541</ele>
        <time>2019-06-16T12:11:54Z</time>
      </trkpt>
      <trkpt lat="43.354096" lon="-3.181058">
        <ele>108.281</ele>
        <time>2019-06-16T12:11:55Z</time>
      </trkpt>
      <trkpt lat="43.354044" lon="-3.181233">
        <ele>109.209</ele>
        <time>2019-06-16T12:11:56Z</time>
      </trkpt>
      <trkpt lat="43.353989" lon="-3.181413">
        <ele>108.708</ele>
        <time>2019-06-16T12:11:57Z</time>
      </trkpt>
      <trkpt lat="43.353928" lon="-3.181596">
        <ele>107.167</ele>
        <time>2019-06-16T12:11:58Z</time>
      </trkpt>
      <trkpt lat="43.353870" lon="-3.181781">
        <ele>107.521</ele>
        <time>2019-06-16T12:11:59Z</time>
      </trkpt>
      <trkpt lat="43.353835" lon="-3.181920">
        <ele>108.351</ele>
        <time>2019-06-16T12:12:00Z</time>
      </trkpt>
      <trkpt lat="43.353812" lon="-3.182079">
        <ele>108.935</ele>
        <time>2019-06-16T12:12:01Z</time>
      </trkpt>
      <trkpt lat="43.353787" lon="-3.182232">
        <ele>109.254</ele>
        <time>2019-06-16T12:12:02Z</time>
      </trkpt>
      <trkpt lat="43.353792" lon="-3.182408">
        <ele>110.054</ele>
        <time>2019-06-16T12:12:03Z</time>
      </trkpt>
      <trkpt lat="43.353806" lon="-3.182573">
        <ele>113.280</ele>
        <time>2019-06-16T12:12:04Z</time>
      </trkpt>
      <trkpt lat="43.353827" lon="-3.182695">
        <ele>118.069</ele>
        <time>2019-06-16T12:12:05Z</time>
      </trkpt>
      <trkpt lat="43.353839" lon="-3.182812">
        <ele>123.664</ele>
        <time>2019-06-16T12:12:06Z</time>
      </trkpt>
      <trkpt lat="43.354160" lon="-3.182826">
        <ele>121.706</ele>
        <time>2019-06-16T12:12:07Z</time>
      </trkpt>
      <trkpt lat="43.354332" lon="-3.182863">
        <ele>122.516</ele>
        <time>2019-06-16T12:12:08Z</time>
      </trkpt>
      <trkpt lat="43.354489" lon="-3.182898">
        <ele>123.608</ele>
        <time>2019-06-16T12:12:09Z</time>
      </trkpt>
      <trkpt lat="43.354636" lon="-3.182947">
        <ele>127.279</ele>
        <time>2019-06-16T12:12:10Z</time>
      </trkpt>
      <trkpt lat="43.354815" lon="-3.183008">
        <ele>130.243</ele>
        <time>2019-06-16T12:12:11Z</time>
      </trkpt>
      <trkpt lat="43.354968" lon="-3.183063">
        <ele>131.653</ele>
        <time>2019-06-16T12:12:12Z</time>
      </trkpt>
      <trkpt lat="43.355124" lon="-3.183102">
        <ele>132.377</ele>
        <time>2019-06-16T12:12:13Z</time>
      </trkpt>
      <trkpt lat="43.355292" lon="-3.183134">
        <ele>132.716</ele>
        <time>2019-06-16T12:12:14Z</time>
      </trkpt>
      <trkpt lat="43.355447" lon="-3.183166">
        <ele>133.916</ele>
        <time>2019-06-16T12:12:15Z</time>
      </trkpt>
      <trkpt lat="43.355607" lon="-3.183202">
        <ele>135.532</ele>
        <time>2019-06-16T12:12:16Z</time>
      </trkpt>
      <trkpt lat="43.355773" lon="-3.183241">
        <ele>137.581</ele>
        <time>2019-06-16T12:12:17Z</time>
      </trkpt>
      <trkpt lat="43.355935" lon="-3.183293">
        <ele>138.655</ele>
        <time>2019-06-16T12:12:18Z</time>
      </trkpt>
      <trkpt lat="43.356134" lon="-3.183358">
        <ele>139.007</ele>
        <time>2019-06-16T12:12:19Z</time>
      </trkpt>
      <trkpt lat="43.356258" lon="-3.183440">
        <ele>141.717</ele>
        <time>2019-06-16T12:12:20Z</time>
      </trkpt>
      <trkpt lat="43.356390" lon="-3.183533">
        <ele>143.408</ele>
        <time>2019-06-16T12:12:21Z</time>
      </trkpt>
      <trkpt lat="43.356524" lon="-3.183624">
        <ele>144.038</ele>
        <time>2019-06-16T12:12:22Z</time>
      </trkpt>
      <trkpt lat="43.356619" lon="-3.183733">
        <ele>145.612</ele>
        <time>2019-06-16T12:12:23Z</time>
      </trkpt>
      <trkpt lat="43.356736" lon="-3.183867">
        <ele>147.132</ele>
        <time>2019-06-16T12:12:24Z</time>
      </trkpt>
      <trkpt lat="43.356929" lon="-3.184039">
        <ele>148.116</ele>
        <time>2019-06-16T12:12:25Z</time>
      </trkpt>
      <trkpt lat="43.357100" lon="-3.184203">
        <ele>150.535</ele>
        <time>2019-06-16T12:12:26Z</time>
      </trkpt>
      <trkpt lat="43.357299" lon="-3.184355">
        <ele>152.695</ele>
        <time>2019-06-16T12:12:27Z</time>
      </trkpt>
      <trkpt lat="43.357497" lon="-3.184493">
        <ele>154.851</ele>
        <time>2019-06-16T12:12:28Z</time>
      </trkpt>
      <trkpt lat="43.357631" lon="-3.184605">
        <ele>157.090</ele>
        <time>2019-06-16T12:12:29Z</time>
      </trkpt>
      <trkpt lat="43.357781" lon="-3.184713">
        <ele>157.713</ele>
        <time>2019-06-16T12:12:30Z</time>
      </trkpt>
      <trkpt lat="43.357920" lon="-3.184803">
        <ele>160.043</ele>
        <time>2019-06-16T12:12:31Z</time>
      </trkpt>
      <trkpt lat="43.358100" lon="-3.184916">
        <ele>161.507</ele>
        <time>2019-06-16T12:12:32Z</time>
      </trkpt>
      <trkpt lat="43.358256" lon="-3.185036">
        <ele>165.008</ele>
        <time>2019-06-16T12:12:33Z</time>
      </trkpt>
      <trkpt lat="43.358414" lon="-3.185168">
        <ele>166.494</ele>
        <time>2019-06-16T12:12:34Z</time>
      </trkpt>
      <trkpt lat="43.358557" lon="-3.185296">
        <ele>168.838</ele>
        <time>2019-06-16T12:12:35Z</time>
      </trkpt>
      <trkpt lat="43.358724" lon="-3.185447">
        <ele>168.798</ele>
        <time>2019-06-16T12:12:36Z</time>
      </trkpt>
      <trkpt lat="43.358871" lon="-3.185588">
        <ele>170.562</ele>
        <time>2019-06-16T12:12:37Z</time>
      </trkpt>
      <trkpt lat="43.359004" lon="-3.185723">
        <ele>169.841</ele>
        <time>2019-06-16T12:12:38Z</time>
      </trkpt>
      <trkpt lat="43.359131" lon="-3.185869">
        <ele>171.891</ele>
        <time>2019-06-16T12:12:39Z</time>
      </trkpt>
      <trkpt lat="43.359262" lon="-3.186005">
        <ele>171.087</ele>
        <time>2019-06-16T12:12:40Z</time>
      </trkpt>
      <trkpt lat="43.359391" lon="-3.186138">
        <ele>171.586</ele>
        <time>2019-06-16T12:12:41Z</time>
      </trkpt>
      <trkpt lat="43.359514" lon="-3.186272">
        <ele>168.453</ele>
        <time>2019-06-16T12:12:42Z</time>
      </trkpt>
      <trkpt lat="43.359633" lon="-3.186401">
        <ele>167.904</ele>
        <time>2019-06-16T12:12:43Z</time>
      </trkpt>
      <trkpt lat="43.359741" lon="-3.186522">
        <ele>166.114</ele>
        <time>2019-06-16T12:12:44Z</time>
      </trkpt>
      <trkpt lat="43.359842" lon="-3.186673">
        <ele>164.308</ele>
        <time>2019-06-16T12:12:45Z</time>
      </trkpt>
      <trkpt lat="43.359940" lon="-3.186827">
        <ele>162.498</ele>
        <time>2019-06-16T12:12:46Z</time>
      </trkpt>
      <trkpt lat="43.360035" lon="-3.187007">
        <ele>160.552</ele>
        <time>2019-06-16T12:12:47Z</time>
      </trkpt>
      <trkpt lat="43.360066" lon="-3.187176">
        <ele>159.842</ele>
        <time>2019-06-16T12:12:48Z</time>
      </trkpt>
      <trkpt lat="43.360094" lon="-3.187360">
        <ele>158.246</ele>
        <time>2019-06-16T12:12:49Z</time>
      </trkpt>
      <trkpt lat="43.360113" lon="-3.187551">
        <ele>155.815</ele>
        <time>2019-06-16T12:12:50Z</time>
      </trkpt>
      <trkpt lat="43.360134" lon="-3.187740">
        <ele>153.165</ele>
        <time>2019-06-16T12:12:51Z</time>
      </trkpt>
      <trkpt lat="43.360112" lon="-3.187879">
        <ele>152.771</ele>
        <time>2019-06-16T12:12:52Z</time>
      </trkpt>
      <trkpt lat="43.360142" lon="-3.188011">
        <ele>151.210</ele>
        <time>2019-06-16T12:12:53Z</time>
      </trkpt>
      <trkpt lat="43.360166" lon="-3.188118">
        <ele>150.751</ele>
        <time>2019-06-16T12:12:54Z</time>
      </trkpt>
      <trkpt lat="43.360196" lon="-3.188233">
        <ele>150.701</ele>
        <time>2019-06-16T12:12:55Z</time>
      </trkpt>
      <trkpt lat="43.360258" lon="-3.188344">
        <ele>150.411</ele>
        <time>2019-06-16T12:12:56Z</time>
      </trkpt>
      <trkpt lat="43.360376" lon="-3.188399">
        <ele>148.608</ele>
        <time>2019-06-16T12:12:57Z</time>
      </trkpt>
      <trkpt lat="43.360472" lon="-3.188460">
        <ele>147.258</ele>
        <time>2019-06-16T12:12:58Z</time>
      </trkpt>
      <trkpt lat="43.360591" lon="-3.188522">
        <ele>145.232</ele>
        <time>2019-06-16T12:12:59Z</time>
      </trkpt>
      <trkpt lat="43.360699" lon="-3.188658">
        <ele>145.162</ele>
        <time>2019-06-16T12:13:00Z</time>
      </trkpt>
      <trkpt lat="43.360785" lon="-3.188780">
        <ele>143.726</ele>
        <time>2019-06-16T12:13:01Z</time>
      </trkpt>
      <trkpt lat="43.360860" lon="-3.188894">
        <ele>141.745</ele>
        <time>2019-06-16T12:13:02Z</time>
      </trkpt>
      <trkpt lat="43.360917" lon="-3.188985">
        <ele>144.075</ele>
        <time>2019-06-16T12:13:03Z</time>
      </trkpt>
      <trkpt lat="43.361005" lon="-3.189027">
        <ele>143.081</ele>
        <time>2019-06-16T12:13:04Z</time>
      </trkpt>
      <trkpt lat="43.361071" lon="-3.189048">
        <ele>141.710</ele>
        <time>2019-06-16T12:13:05Z</time>
      </trkpt>
      <trkpt lat="43.361164" lon="-3.189063">
        <ele>140.031</ele>
        <time>2019-06-16T12:13:06Z</time>
      </trkpt>
      <trkpt lat="43.361251" lon="-3.189057">
        <ele>138.661</ele>
        <time>2019-06-16T12:13:07Z</time>
      </trkpt>
      <trkpt lat="43.361293" lon="-3.188973">
        <ele>136.207</ele>
        <time>2019-06-16T12:13:08Z</time>
      </trkpt>
      <trkpt lat="43.361289" lon="-3.188832">
        <ele>133.808</ele>
        <time>2019-06-16T12:13:09Z</time>
      </trkpt>
      <trkpt lat="43.361244" lon="-3.188687">
        <ele>132.516</ele>
        <time>2019-06-16T12:13:10Z</time>
      </trkpt>
      <trkpt lat="43.361185" lon="-3.188568">
        <ele>131.680</ele>
        <time>2019-06-16T12:13:11Z</time>
      </trkpt>
      <trkpt lat="43.361105" lon="-3.188446">
        <ele>131.450</ele>
        <time>2019-06-16T12:13:12Z</time>
      </trkpt>
      <trkpt lat="43.361003" lon="-3.188389">
        <ele>132.954</ele>
        <time>2019-06-16T12:13:13Z</time>
      </trkpt>
      <trkpt lat="43.360939" lon="-3.188287">
        <ele>132.153</ele>
        <time>2019-06-16T12:13:14Z</time>
      </trkpt>
      <trkpt lat="43.360906" lon="-3.188171">
        <ele>130.183</ele>
        <time>2019-06-16T12:13:15Z</time>
      </trkpt>
      <trkpt lat="43.360900" lon="-3.188067">
        <ele>127.869</ele>
        <time>2019-06-16T12:13:16Z</time>
      </trkpt>
      <trkpt lat="43.360881" lon="-3.187966">
        <ele>127.228</ele>
        <time>2019-06-16T12:13:17Z</time>
      </trkpt>
      <trkpt lat="43.360849" lon="-3.187879">
        <ele>127.213</ele>
        <time>2019-06-16T12:13:18Z</time>
      </trkpt>
      <trkpt lat="43.360833" lon="-3.187777">
        <ele>127.043</ele>
        <time>2019-06-16T12:13:19Z</time>
      </trkpt>
      <trkpt lat="43.360988" lon="-3.187639">
        <ele>127.907</ele>
        <time>2019-06-16T12:13:20Z</time>
      </trkpt>
      <trkpt lat="43.361032" lon="-3.187518">
        <ele>130.608</ele>
        <time>2019-06-16T12:13:21Z</time>
      </trkpt>
      <trkpt lat="43.361145" lon="-3.187368">
        <ele>131.084</ele>
        <time>2019-06-16T12:13:22Z</time>
      </trkpt>
      <trkpt lat="43.361320" lon="-3.187161">
        <ele>125.898</ele>
        <time>2019-06-16T12:13:23Z</time>
      </trkpt>
      <trkpt lat="43.361468" lon="-3.187110">
        <ele>121.468</ele>
        <time>2019-06-16T12:13:24Z</time>
      </trkpt>
      <trkpt lat="43.361472" lon="-3.187036">
        <ele>122.812</ele>
        <time>2019-06-16T12:13:25Z</time>
      </trkpt>
      <trkpt lat="43.361548" lon="-3.186907">
        <ele>123.011</ele>
        <time>2019-06-16T12:13:26Z</time>
      </trkpt>
      <trkpt lat="43.361618" lon="-3.186799">
        <ele>122.611</ele>
        <time>2019-06-16T12:13:27Z</time>
      </trkpt>
      <trkpt lat="43.361702" lon="-3.186678">
        <ele>121.767</ele>
        <time>2019-06-16T12:13:28Z</time>
      </trkpt>
      <trkpt lat="43.361788" lon="-3.186578">
        <ele>119.846</ele>
        <time>2019-06-16T12:13:29Z</time>
      </trkpt>
      <trkpt lat="43.361882" lon="-3.186492">
        <ele>117.849</ele>
        <time>2019-06-16T12:13:30Z</time>
      </trkpt>
      <trkpt lat="43.361969" lon="-3.186438">
        <ele>116.102</ele>
        <time>2019-06-16T12:13:31Z</time>
      </trkpt>
      <trkpt lat="43.362035" lon="-3.186367">
        <ele>115.922</ele>
        <time>2019-06-16T12:13:32Z</time>
      </trkpt>
      <trkpt lat="43.362100" lon="-3.186281">
        <ele>115.508</ele>
        <time>2019-06-16T12:13:33Z</time>
      </trkpt>
      <trkpt lat="43.362168" lon="-3.186192">
        <ele>115.267</ele>
        <time>2019-06-16T12:13:34Z</time>
      </trkpt>
      <trkpt lat="43.362231" lon="-3.186135">
        <ele>114.861</ele>
        <time>2019-06-16T12:13:35Z</time>
      </trkpt>
      <trkpt lat="43.362286" lon="-3.186054">
        <ele>114.771</ele>
        <time>2019-06-16T12:13:36Z</time>
      </trkpt>
      <trkpt lat="43.362323" lon="-3.185970">
        <ele>114.855</ele>
        <time>2019-06-16T12:13:37Z</time>
      </trkpt>
      <trkpt lat="43.362396" lon="-3.185921">
        <ele>114.444</ele>
        <time>2019-06-16T12:13:38Z</time>
      </trkpt>
      <trkpt lat="43.362465" lon="-3.185903">
        <ele>114.054</ele>
        <time>2019-06-16T12:13:39Z</time>
      </trkpt>
      <trkpt lat="43.362531" lon="-3.185907">
        <ele>113.460</ele>
        <time>2019-06-16T12:13:40Z</time>
      </trkpt>
      <trkpt lat="43.362583" lon="-3.185969">
        <ele>112.899</ele>
        <time>2019-06-16T12:13:41Z</time>
      </trkpt>
      <trkpt lat="43.362624" lon="-3.186039">
        <ele>112.319</ele>
        <time>2019-06-16T12:13:42Z</time>
      </trkpt>
      <trkpt lat="43.362632" lon="-3.186112">
        <ele>112.009</ele>
        <time>2019-06-16T12:13:43Z</time>
      </trkpt>
      <trkpt lat="43.362628" lon="-3.186196">
        <ele>111.319</ele>
        <time>2019-06-16T12:13:44Z</time>
      </trkpt>
      <trkpt lat="43.362564" lon="-3.186279">
        <ele>110.908</ele>
        <time>2019-06-16T12:13:45Z</time>
      </trkpt>
      <trkpt lat="43.362491" lon="-3.186366">
        <ele>110.314</ele>
        <time>2019-06-16T12:13:46Z</time>
      </trkpt>
      <trkpt lat="43.362395" lon="-3.186446">
        <ele>110.878</ele>
        <time>2019-06-16T12:13:47Z</time>
      </trkpt>
      <trkpt lat="43.362318" lon="-3.186530">
        <ele>110.688</ele>
        <time>2019-06-16T12:13:48Z</time>
      </trkpt>
      <trkpt lat="43.362189" lon="-3.186716">
        <ele>109.362</ele>
        <time>2019-06-16T12:13:49Z</time>
      </trkpt>
      <trkpt lat="43.362089" lon="-3.186844">
        <ele>109.531</ele>
        <time>2019-06-16T12:13:50Z</time>
      </trkpt>
      <trkpt lat="43.362007" lon="-3.186969">
        <ele>108.561</ele>
        <time>2019-06-16T12:13:51Z</time>
      </trkpt>
      <trkpt lat="43.361933" lon="-3.187103">
        <ele>107.627</ele>
        <time>2019-06-16T12:13:52Z</time>
      </trkpt>
      <trkpt lat="43.361858" lon="-3.187235">
        <ele>107.726</ele>
        <time>2019-06-16T12:13:53Z</time>
      </trkpt>
      <trkpt lat="43.361788" lon="-3.187359">
        <ele>106.973</ele>
        <time>2019-06-16T12:13:54Z</time>
      </trkpt>
      <trkpt lat="43.361722" lon="-3.187481">
        <ele>105.685</ele>
        <time>2019-06-16T12:13:55Z</time>
      </trkpt>
      <trkpt lat="43.361661" lon="-3.187602">
        <ele>105.113</ele>
        <time>2019-06-16T12:13:56Z</time>
      </trkpt>
      <trkpt lat="43.361682" lon="-3.187702">
        <ele>103.408</ele>
        <time>2019-06-16T12:13:57Z</time>
      </trkpt>
      <trkpt lat="43.361685" lon="-3.187804">
        <ele>102.580</ele>
        <time>2019-06-16T12:13:58Z</time>
      </trkpt>
      <trkpt lat="43.361713" lon="-3.187940">
        <ele>102.694</ele>
        <time>2019-06-16T12:13:59Z</time>
      </trkpt>
      <trkpt lat="43.361778" lon="-3.188089">
        <ele>101.874</ele>
        <time>2019-06-16T12:14:00Z</time>
      </trkpt>
      <trkpt lat="43.361846" lon="-3.188244">
        <ele>101.378</ele>
        <time>2019-06-16T12:14:01Z</time>
      </trkpt>
      <trkpt lat="43.361926" lon="-3.188390">
        <ele>99.767</ele>
        <time>2019-06-16T12:14:02Z</time>
      </trkpt>
      <trkpt lat="43.361992" lon="-3.188551">
        <ele>99.117</ele>
        <time>2019-06-16T12:14:03Z</time>
      </trkpt>
      <trkpt lat="43.362090" lon="-3.188696">
        <ele>98.353</ele>
        <time>2019-06-16T12:14:04Z</time>
      </trkpt>
      <trkpt lat="43.362171" lon="-3.188817">
        <ele>97.852</ele>
        <time>2019-06-16T12:14:05Z</time>
      </trkpt>
      <trkpt lat="43.362253" lon="-3.188934">
        <ele>97.218</ele>
        <time>2019-06-16T12:14:06Z</time>
      </trkpt>
      <trkpt lat="43.362350" lon="-3.189054">
        <ele>97.098</ele>
        <time>2019-06-16T12:14:07Z</time>
      </trkpt>
      <trkpt lat="43.362476" lon="-3.189208">
        <ele>96.417</ele>
        <time>2019-06-16T12:14:08Z</time>
      </trkpt>
      <trkpt lat="43.362603" lon="-3.189360">
        <ele>95.708</ele>
        <time>2019-06-16T12:14:09Z</time>
      </trkpt>
      <trkpt lat="43.362742" lon="-3.189505">
        <ele>94.414</ele>
        <time>2019-06-16T12:14:10Z</time>
      </trkpt>
      <trkpt lat="43.362890" lon="-3.189649">
        <ele>92.018</ele>
        <time>2019-06-16T12:14:11Z</time>
      </trkpt>
      <trkpt lat="43.363031" lon="-3.189784">
        <ele>90.888</ele>
        <time>2019-06-16T12:14:12Z</time>
      </trkpt>
      <trkpt lat="43.363173" lon="-3.189924">
        <ele>88.232</ele>
        <time>2019-06-16T12:14:13Z</time>
      </trkpt>
      <trkpt lat="43.363305" lon="-3.190057">
        <ele>88.281</ele>
        <time>2019-06-16T12:14:14Z</time>
      </trkpt>
      <trkpt lat="43.363422" lon="-3.190167">
        <ele>87.261</ele>
        <time>2019-06-16T12:14:15Z</time>
      </trkpt>
      <trkpt lat="43.363524" lon="-3.190268">
        <ele>87.037</ele>
        <time>2019-06-16T12:14:16Z</time>
      </trkpt>
      <trkpt lat="43.363619" lon="-3.190356">
        <ele>84.686</ele>
        <time>2019-06-16T12:14:17Z</time>
      </trkpt>
      <trkpt lat="43.363669" lon="-3.190459">
        <ele>84.193</ele>
        <time>2019-06-16T12:14:18Z</time>
      </trkpt>
      <trkpt lat="43.363697" lon="-3.190568">
        <ele>84.265</ele>
        <time>2019-06-16T12:14:19Z</time>
      </trkpt>
      <trkpt lat="43.363668" lon="-3.190680">
        <ele>82.321</ele>
        <time>2019-06-16T12:14:20Z</time>
      </trkpt>
      <trkpt lat="43.363637" lon="-3.190795">
        <ele>80.808</ele>
        <time>2019-06-16T12:14:21Z</time>
      </trkpt>
      <trkpt lat="43.363564" lon="-3.190914">
        <ele>79.432</ele>
        <time>2019-06-16T12:14:22Z</time>
      </trkpt>
      <trkpt lat="43.363458" lon="-3.191040">
        <ele>78.586</ele>
        <time>2019-06-16T12:14:23Z</time>
      </trkpt>
      <trkpt lat="43.363346" lon="-3.191187">
        <ele>77.756</ele>
        <time>2019-06-16T12:14:24Z</time>
      </trkpt>
      <trkpt lat="43.363253" lon="-3.191350">
        <ele>75.980</ele>
        <time>2019-06-16T12:14:25Z</time>
      </trkpt>
      <trkpt lat="43.363149" lon="-3.191501">
        <ele>74.999</ele>
        <time>2019-06-16T12:14:26Z</time>
      </trkpt>
      <trkpt lat="43.363013" lon="-3.191622">
        <ele>76.139</ele>
        <time>2019-06-16T12:14:27Z</time>
      </trkpt>
      <trkpt lat="43.362884" lon="-3.191744">
        <ele>74.985</ele>
        <time>2019-06-16T12:14:28Z</time>
      </trkpt>
      <trkpt lat="43.362752" lon="-3.191873">
        <ele>73.274</ele>
        <time>2019-06-16T12:14:29Z</time>
      </trkpt>
      <trkpt lat="43.362595" lon="-3.191997">
        <ele>72.531</ele>
        <time>2019-06-16T12:14:30Z</time>
      </trkpt>
      <trkpt lat="43.362443" lon="-3.192127">
        <ele>72.261</ele>
        <time>2019-06-16T12:14:31Z</time>
      </trkpt>
      <trkpt lat="43.362291" lon="-3.192275">
        <ele>71.607</ele>
        <time>2019-06-16T12:14:32Z</time>
      </trkpt>
      <trkpt lat="43.362145" lon="-3.192412">
        <ele>72.208</ele>
        <time>2019-06-16T12:14:33Z</time>
      </trkpt>
      <trkpt lat="43.361991" lon="-3.192592">
        <ele>72.056</ele>
        <time>2019-06-16T12:14:34Z</time>
      </trkpt>
      <trkpt lat="43.361867" lon="-3.192797">
        <ele>70.560</ele>
        <time>2019-06-16T12:14:35Z</time>
      </trkpt>
      <trkpt lat="43.361742" lon="-3.193007">
        <ele>69.440</ele>
        <time>2019-06-16T12:14:36Z</time>
      </trkpt>
      <trkpt lat="43.361654" lon="-3.193192">
        <ele>68.124</ele>
        <time>2019-06-16T12:14:37Z</time>
      </trkpt>
      <trkpt lat="43.361549" lon="-3.193383">
        <ele>67.443</ele>
        <time>2019-06-16T12:14:38Z</time>
      </trkpt>
      <trkpt lat="43.361453" lon="-3.193575">
        <ele>66.493</ele>
        <time>2019-06-16T12:14:39Z</time>
      </trkpt>
      <trkpt lat="43.361363" lon="-3.193767">
        <ele>65.099</ele>
        <time>2019-06-16T12:14:40Z</time>
      </trkpt>
      <trkpt lat="43.361321" lon="-3.193966">
        <ele>61.938</ele>
        <time>2019-06-16T12:14:41Z</time>
      </trkpt>
      <trkpt lat="43.361264" lon="-3.194160">
        <ele>60.624</ele>
        <time>2019-06-16T12:14:42Z</time>
      </trkpt>
      <trkpt lat="43.361194" lon="-3.194354">
        <ele>59.204</ele>
        <time>2019-06-16T12:14:43Z</time>
      </trkpt>
      <trkpt lat="43.361081" lon="-3.194540">
        <ele>59.114</ele>
        <time>2019-06-16T12:14:44Z</time>
      </trkpt>
      <trkpt lat="43.360990" lon="-3.194728">
        <ele>56.308</ele>
        <time>2019-06-16T12:14:45Z</time>
      </trkpt>
      <trkpt lat="43.360845" lon="-3.194863">
        <ele>57.145</ele>
        <time>2019-06-16T12:14:46Z</time>
      </trkpt>
      <trkpt lat="43.360722" lon="-3.195039">
        <ele>55.479</ele>
        <time>2019-06-16T12:14:47Z</time>
      </trkpt>
      <trkpt lat="43.360553" lon="-3.195177">
        <ele>56.249</ele>
        <time>2019-06-16T12:14:48Z</time>
      </trkpt>
      <trkpt lat="43.360408" lon="-3.195347">
        <ele>55.043</ele>
        <time>2019-06-16T12:14:49Z</time>
      </trkpt>
      <trkpt lat="43.360252" lon="-3.195469">
        <ele>54.392</ele>
        <time>2019-06-16T12:14:50Z</time>
      </trkpt>
      <trkpt lat="43.360103" lon="-3.195607">
        <ele>51.662</ele>
        <time>2019-06-16T12:14:51Z</time>
      </trkpt>
      <trkpt lat="43.359953" lon="-3.195752">
        <ele>51.058</ele>
        <time>2019-06-16T12:14:52Z</time>
      </trkpt>
      <trkpt lat="43.359826" lon="-3.195901">
        <ele>50.827</ele>
        <time>2019-06-16T12:14:53Z</time>
      </trkpt>
      <trkpt lat="43.359703" lon="-3.196045">
        <ele>49.985</ele>
        <time>2019-06-16T12:14:54Z</time>
      </trkpt>
      <trkpt lat="43.359606" lon="-3.196153">
        <ele>49.689</ele>
        <time>2019-06-16T12:14:55Z</time>
      </trkpt>
      <trkpt lat="43.359513" lon="-3.196256">
        <ele>49.117</ele>
        <time>2019-06-16T12:14:56Z</time>
      </trkpt>
      <trkpt lat="43.359421" lon="-3.196330">
        <ele>48.908</ele>
        <time>2019-06-16T12:14:57Z</time>
      </trkpt>
      <trkpt lat="43.359361" lon="-3.196407">
        <ele>48.341</ele>
        <time>2019-06-16T12:14:58Z</time>
      </trkpt>
      <trkpt lat="43.359288" lon="-3.196484">
        <ele>48.625</ele>
        <time>2019-06-16T12:14:59Z</time>
      </trkpt>
      <trkpt lat="43.359236" lon="-3.196548">
        <ele>48.665</ele>
        <time>2019-06-16T12:15:00Z</time>
      </trkpt>
      <trkpt lat="43.359198" lon="-3.196660">
        <ele>47.649</ele>
        <time>2019-06-16T12:15:01Z</time>
      </trkpt>
      <trkpt lat="43.359308" lon="-3.196737">
        <ele>46.578</ele>
        <time>2019-06-16T12:15:02Z</time>
      </trkpt>
      <trkpt lat="43.359343" lon="-3.196823">
        <ele>46.628</ele>
        <time>2019-06-16T12:15:03Z</time>
      </trkpt>
      <trkpt lat="43.359396" lon="-3.196900">
        <ele>46.494</ele>
        <time>2019-06-16T12:15:04Z</time>
      </trkpt>
      <trkpt lat="43.359513" lon="-3.196945">
        <ele>45.363</ele>
        <time>2019-06-16T12:15:05Z</time>
      </trkpt>
      <trkpt lat="43.359640" lon="-3.196956">
        <ele>44.272</ele>
        <time>2019-06-16T12:15:06Z</time>
      </trkpt>
      <trkpt lat="43.359737" lon="-3.196990">
        <ele>43.913</ele>
        <time>2019-06-16T12:15:07Z</time>
      </trkpt>
      <trkpt lat="43.360009" lon="-3.197009">
        <ele>40.314</ele>
        <time>2019-06-16T12:15:08Z</time>
      </trkpt>
      <trkpt lat="43.360169" lon="-3.197082">
        <ele>39.908</ele>
        <time>2019-06-16T12:15:09Z</time>
      </trkpt>
      <trkpt lat="43.360305" lon="-3.197130">
        <ele>38.870</ele>
        <time>2019-06-16T12:15:10Z</time>
      </trkpt>
      <trkpt lat="43.360440" lon="-3.197170">
        <ele>38.344</ele>
        <time>2019-06-16T12:15:11Z</time>
      </trkpt>
      <trkpt lat="43.360538" lon="-3.197225">
        <ele>38.114</ele>
        <time>2019-06-16T12:15:12Z</time>
      </trkpt>
      <trkpt lat="43.360627" lon="-3.197310">
        <ele>37.198</ele>
        <time>2019-06-16T12:15:13Z</time>
      </trkpt>
      <trkpt lat="43.360692" lon="-3.197427">
        <ele>35.557</ele>
        <time>2019-06-16T12:15:14Z</time>
      </trkpt>
      <trkpt lat="43.360738" lon="-3.197556">
        <ele>32.997</ele>
        <time>2019-06-16T12:15:15Z</time>
      </trkpt>
      <trkpt lat="43.360809" lon="-3.197673">
        <ele>27.893</ele>
        <time>2019-06-16T12:15:16Z</time>
      </trkpt>
      <trkpt lat="43.360895" lon="-3.197824">
        <ele>21.082</ele>
        <time>2019-06-16T12:15:17Z</time>
      </trkpt>
      <trkpt lat="43.360929" lon="-3.197968">
        <ele>18.666</ele>
        <time>2019-06-16T12:15:18Z</time>
      </trkpt>
      <trkpt lat="43.360910" lon="-3.198174">
        <ele>18.829</ele>
        <time>2019-06-16T12:15:19Z</time>
      </trkpt>
      <trkpt lat="43.360830" lon="-3.198360">
        <ele>22.421</ele>
        <time>2019-06-16T12:15:20Z</time>
      </trkpt>
      <trkpt lat="43.360866" lon="-3.198530">
        <ele>21.608</ele>
        <time>2019-06-16T12:15:21Z</time>
      </trkpt>
      <trkpt lat="43.360922" lon="-3.198699">
        <ele>19.449</ele>
        <time>2019-06-16T12:15:22Z</time>
      </trkpt>
      <trkpt lat="43.360941" lon="-3.198868">
        <ele>19.343</ele>
        <time>2019-06-16T12:15:23Z</time>
      </trkpt>
      <trkpt lat="43.360941" lon="-3.199027">
        <ele>19.393</ele>
        <time>2019-06-16T12:15:24Z</time>
      </trkpt>
      <trkpt lat="43.360856" lon="-3.199188">
        <ele>23.517</ele>
        <time>2019-06-16T12:15:25Z</time>
      </trkpt>
      <trkpt lat="43.360808" lon="-3.199347">
        <ele>23.366</ele>
        <time>2019-06-16T12:15:26Z</time>
      </trkpt>
      <trkpt lat="43.360740" lon="-3.199481">
        <ele>22.786</ele>
        <time>2019-06-16T12:15:27Z</time>
      </trkpt>
      <trkpt lat="43.360588" lon="-3.199596">
        <ele>24.912</ele>
        <time>2019-06-16T12:15:28Z</time>
      </trkpt>
      <trkpt lat="43.360491" lon="-3.199724">
        <ele>24.961</ele>
        <time>2019-06-16T12:15:29Z</time>
      </trkpt>
      <trkpt lat="43.360375" lon="-3.199820">
        <ele>23.979</ele>
        <time>2019-06-16T12:15:30Z</time>
      </trkpt>
      <trkpt lat="43.360253" lon="-3.199868">
        <ele>24.405</ele>
        <time>2019-06-16T12:15:31Z</time>
      </trkpt>
      <trkpt lat="43.360128" lon="-3.199926">
        <ele>23.425</ele>
        <time>2019-06-16T12:15:32Z</time>
      </trkpt>
      <trkpt lat="43.359993" lon="-3.199963">
        <ele>23.008</ele>
        <time>2019-06-16T12:15:33Z</time>
      </trkpt>
      <trkpt lat="43.359867" lon="-3.199995">
        <ele>22.660</ele>
        <time>2019-06-16T12:15:34Z</time>
      </trkpt>
      <trkpt lat="43.359774" lon="-3.200054">
        <ele>21.754</ele>
        <time>2019-06-16T12:15:35Z</time>
      </trkpt>
      <trkpt lat="43.359689" lon="-3.200100">
        <ele>21.844</ele>
        <time>2019-06-16T12:15:36Z</time>
      </trkpt>
      <trkpt lat="43.359597" lon="-3.200176">
        <ele>21.738</ele>
        <time>2019-06-16T12:15:37Z</time>
      </trkpt>
      <trkpt lat="43.359500" lon="-3.200272">
        <ele>20.647</ele>
        <time>2019-06-16T12:15:38Z</time>
      </trkpt>
      <trkpt lat="43.359401" lon="-3.200362">
        <ele>20.327</ele>
        <time>2019-06-16T12:15:39Z</time>
      </trkpt>
      <trkpt lat="43.359309" lon="-3.200443">
        <ele>20.083</ele>
        <time>2019-06-16T12:15:40Z</time>
      </trkpt>
      <trkpt lat="43.359220" lon="-3.200519">
        <ele>18.812</ele>
        <time>2019-06-16T12:15:41Z</time>
      </trkpt>
      <trkpt lat="43.359141" lon="-3.200581">
        <ele>17.868</ele>
        <time>2019-06-16T12:15:42Z</time>
      </trkpt>
      <trkpt lat="43.359054" lon="-3.200641">
        <ele>17.342</ele>
        <time>2019-06-16T12:15:43Z</time>
      </trkpt>
      <trkpt lat="43.358967" lon="-3.200706">
        <ele>16.526</ele>
        <time>2019-06-16T12:15:44Z</time>
      </trkpt>
      <trkpt lat="43.358883" lon="-3.200769">
        <ele>15.408</ele>
        <time>2019-06-16T12:15:45Z</time>
      </trkpt>
      <trkpt lat="43.358827" lon="-3.200844">
        <ele>13.559</ele>
        <time>2019-06-16T12:15:46Z</time>
      </trkpt>
      <trkpt lat="43.358778" lon="-3.200928">
        <ele>12.993</ele>
        <time>2019-06-16T12:15:47Z</time>
      </trkpt>
      <trkpt lat="43.358801" lon="-3.201022">
        <ele>12.743</ele>
        <time>2019-06-16T12:15:48Z</time>
      </trkpt>
      <trkpt lat="43.358799" lon="-3.201147">
        <ele>12.447</ele>
        <time>2019-06-16T12:15:49Z</time>
      </trkpt>
      <trkpt lat="43.358817" lon="-3.201287">
        <ele>12.726</ele>
        <time>2019-06-16T12:15:50Z</time>
      </trkpt>
      <trkpt lat="43.358839" lon="-3.201422">
        <ele>13.016</ele>
        <time>2019-06-16T12:15:51Z</time>
      </trkpt>
      <trkpt lat="43.358896" lon="-3.201579">
        <ele>13.072</ele>
        <time>2019-06-16T12:15:52Z</time>
      </trkpt>
      <trkpt lat="43.358951" lon="-3.201728">
        <ele>13.291</ele>
        <time>2019-06-16T12:15:53Z</time>
      </trkpt>
      <trkpt lat="43.359000" lon="-3.201879">
        <ele>13.113</ele>
        <time>2019-06-16T12:15:54Z</time>
      </trkpt>
      <trkpt lat="43.359054" lon="-3.201998">
        <ele>13.143</ele>
        <time>2019-06-16T12:15:55Z</time>
      </trkpt>
      <trkpt lat="43.359117" lon="-3.202116">
        <ele>13.107</ele>
        <time>2019-06-16T12:15:56Z</time>
      </trkpt>
      <trkpt lat="43.359173" lon="-3.202232">
        <ele>13.108</ele>
        <time>2019-06-16T12:15:57Z</time>
      </trkpt>
      <trkpt lat="43.359248" lon="-3.202330">
        <ele>13.794</ele>
        <time>2019-06-16T12:15:58Z</time>
      </trkpt>
      <trkpt lat="43.359311" lon="-3.202422">
        <ele>14.148</ele>
        <time>2019-06-16T12:15:59Z</time>
      </trkpt>
      <trkpt lat="43.359401" lon="-3.202481">
        <ele>14.168</ele>
        <time>2019-06-16T12:16:00Z</time>
      </trkpt>
      <trkpt lat="43.359486" lon="-3.202532">
        <ele>14.132</ele>
        <time>2019-06-16T12:16:01Z</time>
      </trkpt>
      <trkpt lat="43.359613" lon="-3.202544">
        <ele>14.361</ele>
        <time>2019-06-16T12:16:02Z</time>
      </trkpt>
      <trkpt lat="43.359691" lon="-3.202554">
        <ele>14.471</ele>
        <time>2019-06-16T12:16:03Z</time>
      </trkpt>
      <trkpt lat="43.359779" lon="-3.202555">
        <ele>14.647</ele>
        <time>2019-06-16T12:16:04Z</time>
      </trkpt>
      <trkpt lat="43.359866" lon="-3.202562">
        <ele>14.876</ele>
        <time>2019-06-16T12:16:05Z</time>
      </trkpt>
      <trkpt lat="43.359953" lon="-3.202555">
        <ele>15.141</ele>
        <time>2019-06-16T12:16:06Z</time>
      </trkpt>
      <trkpt lat="43.360057" lon="-3.202563">
        <ele>15.481</ele>
        <time>2019-06-16T12:16:07Z</time>
      </trkpt>
      <trkpt lat="43.360144" lon="-3.202559">
        <ele>15.709</ele>
        <time>2019-06-16T12:16:08Z</time>
      </trkpt>
      <trkpt lat="43.360230" lon="-3.202553">
        <ele>16.008</ele>
        <time>2019-06-16T12:16:09Z</time>
      </trkpt>
      <trkpt lat="43.360285" lon="-3.202542">
        <ele>16.227</ele>
        <time>2019-06-16T12:16:10Z</time>
      </trkpt>
      <trkpt lat="43.360389" lon="-3.202552">
        <ele>17.061</ele>
        <time>2019-06-16T12:16:11Z</time>
      </trkpt>
      <trkpt lat="43.360488" lon="-3.202552">
        <ele>17.771</ele>
        <time>2019-06-16T12:16:12Z</time>
      </trkpt>
      <trkpt lat="43.360556" lon="-3.202528">
        <ele>18.195</ele>
        <time>2019-06-16T12:16:13Z</time>
      </trkpt>
      <trkpt lat="43.360689" lon="-3.202496">
        <ele>19.484</ele>
        <time>2019-06-16T12:16:14Z</time>
      </trkpt>
      <trkpt lat="43.360765" lon="-3.202464">
        <ele>20.144</ele>
        <time>2019-06-16T12:16:15Z</time>
      </trkpt>
      <trkpt lat="43.360845" lon="-3.202404">
        <ele>20.930</ele>
        <time>2019-06-16T12:16:16Z</time>
      </trkpt>
      <trkpt lat="43.360956" lon="-3.202295">
        <ele>22.539</ele>
        <time>2019-06-16T12:16:17Z</time>
      </trkpt>
      <trkpt lat="43.361027" lon="-3.202199">
        <ele>23.323</ele>
        <time>2019-06-16T12:16:18Z</time>
      </trkpt>
      <trkpt lat="43.361086" lon="-3.202073">
        <ele>23.583</ele>
        <time>2019-06-16T12:16:19Z</time>
      </trkpt>
      <trkpt lat="43.361153" lon="-3.201957">
        <ele>24.011</ele>
        <time>2019-06-16T12:16:20Z</time>
      </trkpt>
      <trkpt lat="43.361184" lon="-3.201833">
        <ele>24.008</ele>
        <time>2019-06-16T12:16:21Z</time>
      </trkpt>
      <trkpt lat="43.361219" lon="-3.201723">
        <ele>24.445</ele>
        <time>2019-06-16T12:16:22Z</time>
      </trkpt>
      <trkpt lat="43.361255" lon="-3.201619">
        <ele>25.029</ele>
        <time>2019-06-16T12:16:23Z</time>
      </trkpt>
      <trkpt lat="43.361296" lon="-3.201505">
        <ele>25.739</ele>
        <time>2019-06-16T12:16:24Z</time>
      </trkpt>
      <trkpt lat="43.361326" lon="-3.201388">
        <ele>26.293</ele>
        <time>2019-06-16T12:16:25Z</time>
      </trkpt>
      <trkpt lat="43.361347" lon="-3.201266">
        <ele>26.472</ele>
        <time>2019-06-16T12:16:26Z</time>
      </trkpt>
      <trkpt lat="43.361390" lon="-3.201139">
        <ele>27.162</ele>
        <time>2019-06-16T12:16:27Z</time>
      </trkpt>
      <trkpt lat="43.361420" lon="-3.200996">
        <ele>28.168</ele>
        <time>2019-06-16T12:16:28Z</time>
      </trkpt>
      <trkpt lat="43.361475" lon="-3.200831">
        <ele>29.897</ele>
        <time>2019-06-16T12:16:29Z</time>
      </trkpt>
      <trkpt lat="43.361500" lon="-3.200672">
        <ele>30.458</ele>
        <time>2019-06-16T12:16:30Z</time>
      </trkpt>
      <trkpt lat="43.361526" lon="-3.200496">
        <ele>30.552</ele>
        <time>2019-06-16T12:16:31Z</time>
      </trkpt>
      <trkpt lat="43.361572" lon="-3.200324">
        <ele>30.917</ele>
        <time>2019-06-16T12:16:32Z</time>
      </trkpt>
      <trkpt lat="43.361617" lon="-3.200156">
        <ele>31.708</ele>
        <time>2019-06-16T12:16:33Z</time>
      </trkpt>
      <trkpt lat="43.361655" lon="-3.200002">
        <ele>33.318</ele>
        <time>2019-06-16T12:16:34Z</time>
      </trkpt>
      <trkpt lat="43.361706" lon="-3.199850">
        <ele>34.442</ele>
        <time>2019-06-16T12:16:35Z</time>
      </trkpt>
      <trkpt lat="43.361747" lon="-3.199705">
        <ele>34.782</ele>
        <time>2019-06-16T12:16:36Z</time>
      </trkpt>
      <trkpt lat="43.361802" lon="-3.199553">
        <ele>35.016</ele>
        <time>2019-06-16T12:16:37Z</time>
      </trkpt>
      <trkpt lat="43.361864" lon="-3.199440">
        <ele>36.035</ele>
        <time>2019-06-16T12:16:38Z</time>
      </trkpt>
      <trkpt lat="43.361938" lon="-3.199342">
        <ele>36.955</ele>
        <time>2019-06-16T12:16:39Z</time>
      </trkpt>
      <trkpt lat="43.362012" lon="-3.199263">
        <ele>37.041</ele>
        <time>2019-06-16T12:16:40Z</time>
      </trkpt>
      <trkpt lat="43.362124" lon="-3.199225">
        <ele>38.260</ele>
        <time>2019-06-16T12:16:41Z</time>
      </trkpt>
      <trkpt lat="43.362228" lon="-3.199196">
        <ele>39.086</ele>
        <time>2019-06-16T12:16:42Z</time>
      </trkpt>
      <trkpt lat="43.362333" lon="-3.199205">
        <ele>40.560</ele>
        <time>2019-06-16T12:16:43Z</time>
      </trkpt>
      <trkpt lat="43.362451" lon="-3.199161">
        <ele>40.326</ele>
        <time>2019-06-16T12:16:44Z</time>
      </trkpt>
      <trkpt lat="43.362564" lon="-3.199095">
        <ele>41.008</ele>
        <time>2019-06-16T12:16:45Z</time>
      </trkpt>
      <trkpt lat="43.362670" lon="-3.199019">
        <ele>41.961</ele>
        <time>2019-06-16T12:16:46Z</time>
      </trkpt>
      <trkpt lat="43.362792" lon="-3.198939">
        <ele>42.915</ele>
        <time>2019-06-16T12:16:47Z</time>
      </trkpt>
      <trkpt lat="43.362937" lon="-3.198890">
        <ele>43.335</ele>
        <time>2019-06-16T12:16:48Z</time>
      </trkpt>
      <trkpt lat="43.363056" lon="-3.198849">
        <ele>43.479</ele>
        <time>2019-06-16T12:16:49Z</time>
      </trkpt>
      <trkpt lat="43.363190" lon="-3.198823">
        <ele>43.098</ele>
        <time>2019-06-16T12:16:50Z</time>
      </trkpt>
      <trkpt lat="43.363338" lon="-3.198846">
        <ele>44.578</ele>
        <time>2019-06-16T12:16:51Z</time>
      </trkpt>
      <trkpt lat="43.363493" lon="-3.198880">
        <ele>45.684</ele>
        <time>2019-06-16T12:16:52Z</time>
      </trkpt>
      <trkpt lat="43.363678" lon="-3.198935">
        <ele>47.753</ele>
        <time>2019-06-16T12:16:53Z</time>
      </trkpt>
      <trkpt lat="43.363843" lon="-3.198999">
        <ele>49.372</ele>
        <time>2019-06-16T12:16:54Z</time>
      </trkpt>
      <trkpt lat="43.364000" lon="-3.199064">
        <ele>49.813</ele>
        <time>2019-06-16T12:16:55Z</time>
      </trkpt>
      <trkpt lat="43.364174" lon="-3.199141">
        <ele>50.814</ele>
        <time>2019-06-16T12:16:56Z</time>
      </trkpt>
      <trkpt lat="43.364323" lon="-3.199216">
        <ele>52.308</ele>
        <time>2019-06-16T12:16:57Z</time>
      </trkpt>
      <trkpt lat="43.364491" lon="-3.199292">
        <ele>53.110</ele>
        <time>2019-06-16T12:16:58Z</time>
      </trkpt>
      <trkpt lat="43.364641" lon="-3.199367">
        <ele>54.024</ele>
        <time>2019-06-16T12:16:59Z</time>
      </trkpt>
      <trkpt lat="43.364800" lon="-3.199442">
        <ele>54.944</ele>
        <time>2019-06-16T12:17:00Z</time>
      </trkpt>
      <trkpt lat="43.364979" lon="-3.199499">
        <ele>57.258</ele>
        <time>2019-06-16T12:17:01Z</time>
      </trkpt>
      <trkpt lat="43.365137" lon="-3.199553">
        <ele>58.597</ele>
        <time>2019-06-16T12:17:02Z</time>
      </trkpt>
      <trkpt lat="43.365295" lon="-3.199604">
        <ele>59.087</ele>
        <time>2019-06-16T12:17:03Z</time>
      </trkpt>
      <trkpt lat="43.365467" lon="-3.199635">
        <ele>59.593</ele>
        <time>2019-06-16T12:17:04Z</time>
      </trkpt>
      <trkpt lat="43.365594" lon="-3.199662">
        <ele>60.082</ele>
        <time>2019-06-16T12:17:05Z</time>
      </trkpt>
      <trkpt lat="43.365730" lon="-3.199673">
        <ele>60.439</ele>
        <time>2019-06-16T12:17:06Z</time>
      </trkpt>
      <trkpt lat="43.365870" lon="-3.199703">
        <ele>60.901</ele>
        <time>2019-06-16T12:17:07Z</time>
      </trkpt>
      <trkpt lat="43.365991" lon="-3.199727">
        <ele>61.121</ele>
        <time>2019-06-16T12:17:08Z</time>
      </trkpt>
      <trkpt lat="43.366123" lon="-3.199753">
        <ele>61.508</ele>
        <time>2019-06-16T12:17:09Z</time>
      </trkpt>
      <trkpt lat="43.366216" lon="-3.199810">
        <ele>62.866</ele>
        <time>2019-06-16T12:17:10Z</time>
      </trkpt>
      <trkpt lat="43.366353" lon="-3.199889">
        <ele>63.480</ele>
        <time>2019-06-16T12:17:11Z</time>
      </trkpt>
      <trkpt lat="43.366498" lon="-3.199965">
        <ele>62.820</ele>
        <time>2019-06-16T12:17:12Z</time>
      </trkpt>
      <trkpt lat="43.366617" lon="-3.200061">
        <ele>62.354</ele>
        <time>2019-06-16T12:17:13Z</time>
      </trkpt>
      <trkpt lat="43.366726" lon="-3.200153">
        <ele>61.923</ele>
        <time>2019-06-16T12:17:14Z</time>
      </trkpt>
      <trkpt lat="43.366828" lon="-3.200229">
        <ele>61.123</ele>
        <time>2019-06-16T12:17:15Z</time>
      </trkpt>
      <trkpt lat="43.366918" lon="-3.200323">
        <ele>60.279</ele>
        <time>2019-06-16T12:17:16Z</time>
      </trkpt>
      <trkpt lat="43.367042" lon="-3.200428">
        <ele>59.828</ele>
        <time>2019-06-16T12:17:17Z</time>
      </trkpt>
      <trkpt lat="43.367158" lon="-3.200529">
        <ele>58.749</ele>
        <time>2019-06-16T12:17:18Z</time>
      </trkpt>
      <trkpt lat="43.367283" lon="-3.200628">
        <ele>57.902</ele>
        <time>2019-06-16T12:17:19Z</time>
      </trkpt>
      <trkpt lat="43.367394" lon="-3.200730">
        <ele>57.622</ele>
        <time>2019-06-16T12:17:20Z</time>
      </trkpt>
      <trkpt lat="43.367514" lon="-3.200834">
        <ele>57.008</ele>
        <time>2019-06-16T12:17:21Z</time>
      </trkpt>
      <trkpt lat="43.367628" lon="-3.200931">
        <ele>56.737</ele>
        <time>2019-06-16T12:17:22Z</time>
      </trkpt>
      <trkpt lat="43.367744" lon="-3.201022">
        <ele>55.861</ele>
        <time>2019-06-16T12:17:23Z</time>
      </trkpt>
      <trkpt lat="43.367833" lon="-3.201104">
        <ele>55.111</ele>
        <time>2019-06-16T12:17:24Z</time>
      </trkpt>
      <trkpt lat="43.367954" lon="-3.201200">
        <ele>54.825</ele>
        <time>2019-06-16T12:17:25Z</time>
      </trkpt>
      <trkpt lat="43.368067" lon="-3.201289">
        <ele>53.764</ele>
        <time>2019-06-16T12:17:26Z</time>
      </trkpt>
      <trkpt lat="43.368176" lon="-3.201381">
        <ele>52.624</ele>
        <time>2019-06-16T12:17:27Z</time>
      </trkpt>
      <trkpt lat="43.368290" lon="-3.201468">
        <ele>52.230</ele>
        <time>2019-06-16T12:17:28Z</time>
      </trkpt>
      <trkpt lat="43.368405" lon="-3.201558">
        <ele>51.639</ele>
        <time>2019-06-16T12:17:29Z</time>
      </trkpt>
      <trkpt lat="43.368490" lon="-3.201636">
        <ele>50.951</ele>
        <time>2019-06-16T12:17:30Z</time>
      </trkpt>
      <trkpt lat="43.368588" lon="-3.201717">
        <ele>50.401</ele>
        <time>2019-06-16T12:17:31Z</time>
      </trkpt>
      <trkpt lat="43.368695" lon="-3.201796">
        <ele>50.011</ele>
        <time>2019-06-16T12:17:32Z</time>
      </trkpt>
      <trkpt lat="43.368814" lon="-3.201884">
        <ele>49.108</ele>
        <time>2019-06-16T12:17:33Z</time>
      </trkpt>
      <trkpt lat="43.368933" lon="-3.201973">
        <ele>48.178</ele>
        <time>2019-06-16T12:17:34Z</time>
      </trkpt>
      <trkpt lat="43.369049" lon="-3.202058">
        <ele>47.912</ele>
        <time>2019-06-16T12:17:35Z</time>
      </trkpt>
      <trkpt lat="43.369148" lon="-3.202124">
        <ele>46.962</ele>
        <time>2019-06-16T12:17:36Z</time>
      </trkpt>
      <trkpt lat="43.369261" lon="-3.202217">
        <ele>45.716</ele>
        <time>2019-06-16T12:17:37Z</time>
      </trkpt>
      <trkpt lat="43.369368" lon="-3.202307">
        <ele>45.515</ele>
        <time>2019-06-16T12:17:38Z</time>
      </trkpt>
      <trkpt lat="43.369473" lon="-3.202392">
        <ele>44.995</ele>
        <time>2019-06-16T12:17:39Z</time>
      </trkpt>
      <trkpt lat="43.369561" lon="-3.202477">
        <ele>44.691</ele>
        <time>2019-06-16T12:17:40Z</time>
      </trkpt>
      <trkpt lat="43.369653" lon="-3.202575">
        <ele>44.080</ele>
        <time>2019-06-16T12:17:41Z</time>
      </trkpt>
      <trkpt lat="43.369728" lon="-3.202707">
        <ele>42.542</ele>
        <time>2019-06-16T12:17:42Z</time>
      </trkpt>
      <trkpt lat="43.369797" lon="-3.202836">
        <ele>41.822</ele>
        <time>2019-06-16T12:17:43Z</time>
      </trkpt>
      <trkpt lat="43.369815" lon="-3.202983">
        <ele>41.314</ele>
        <time>2019-06-16T12:17:44Z</time>
      </trkpt>
      <trkpt lat="43.369842" lon="-3.203134">
        <ele>40.308</ele>
        <time>2019-06-16T12:17:45Z</time>
      </trkpt>
      <trkpt lat="43.369861" lon="-3.203282">
        <ele>39.377</ele>
        <time>2019-06-16T12:17:46Z</time>
      </trkpt>
      <trkpt lat="43.369841" lon="-3.203430">
        <ele>38.221</ele>
        <time>2019-06-16T12:17:47Z</time>
      </trkpt>
      <trkpt lat="43.369795" lon="-3.203590">
        <ele>37.031</ele>
        <time>2019-06-16T12:17:48Z</time>
      </trkpt>
      <trkpt lat="43.369737" lon="-3.203750">
        <ele>36.345</ele>
        <time>2019-06-16T12:17:49Z</time>
      </trkpt>
      <trkpt lat="43.369684" lon="-3.203917">
        <ele>35.554</ele>
        <time>2019-06-16T12:17:50Z</time>
      </trkpt>
      <trkpt lat="43.369624" lon="-3.204075">
        <ele>34.924</ele>
        <time>2019-06-16T12:17:51Z</time>
      </trkpt>
      <trkpt lat="43.369550" lon="-3.204219">
        <ele>34.430</ele>
        <time>2019-06-16T12:17:52Z</time>
      </trkpt>
      <trkpt lat="43.369470" lon="-3.204373">
        <ele>33.699</ele>
        <time>2019-06-16T12:17:53Z</time>
      </trkpt>
      <trkpt lat="43.369407" lon="-3.204518">
        <ele>32.646</ele>
        <time>2019-06-16T12:17:54Z</time>
      </trkpt>
      <trkpt lat="43.369325" lon="-3.204650">
        <ele>32.188</ele>
        <time>2019-06-16T12:17:55Z</time>
      </trkpt>
      <trkpt lat="43.369251" lon="-3.204792">
        <ele>31.316</ele>
        <time>2019-06-16T12:17:56Z</time>
      </trkpt>
      <trkpt lat="43.369173" lon="-3.204926">
        <ele>30.708</ele>
        <time>2019-06-16T12:17:57Z</time>
      </trkpt>
      <trkpt lat="43.369104" lon="-3.205072">
        <ele>30.367</ele>
        <time>2019-06-16T12:17:58Z</time>
      </trkpt>
      <trkpt lat="43.369038" lon="-3.205213">
        <ele>29.691</ele>
        <time>2019-06-16T12:17:59Z</time>
      </trkpt>
      <trkpt lat="43.368971" lon="-3.205369">
        <ele>28.771</ele>
        <time>2019-06-16T12:18:00Z</time>
      </trkpt>
      <trkpt lat="43.368950" lon="-3.205528">
        <ele>27.615</ele>
        <time>2019-06-16T12:18:01Z</time>
      </trkpt>
      <trkpt lat="43.368958" lon="-3.205689">
        <ele>27.134</ele>
        <time>2019-06-16T12:18:02Z</time>
      </trkpt>
      <trkpt lat="43.368972" lon="-3.205860">
        <ele>26.864</ele>
        <time>2019-06-16T12:18:03Z</time>
      </trkpt>
      <trkpt lat="43.369006" lon="-3.206026">
        <ele>26.430</ele>
        <time>2019-06-16T12:18:04Z</time>
      </trkpt>
      <trkpt lat="43.369090" lon="-3.206204">
        <ele>25.089</ele>
        <time>2019-06-16T12:18:05Z</time>
      </trkpt>
      <trkpt lat="43.369148" lon="-3.206401">
        <ele>23.872</ele>
        <time>2019-06-16T12:18:06Z</time>
      </trkpt>
      <trkpt lat="43.369201" lon="-3.206608">
        <ele>23.913</ele>
        <time>2019-06-16T12:18:07Z</time>
      </trkpt>
      <trkpt lat="43.369270" lon="-3.206763">
        <ele>22.314</ele>
        <time>2019-06-16T12:18:08Z</time>
      </trkpt>
      <trkpt lat="43.369356" lon="-3.206930">
        <ele>20.308</ele>
        <time>2019-06-16T12:18:09Z</time>
      </trkpt>
      <trkpt lat="43.369382" lon="-3.207112">
        <ele>19.650</ele>
        <time>2019-06-16T12:18:10Z</time>
      </trkpt>
      <trkpt lat="43.369426" lon="-3.207294">
        <ele>18.594</ele>
        <time>2019-06-16T12:18:11Z</time>
      </trkpt>
      <trkpt lat="43.369461" lon="-3.207470">
        <ele>17.834</ele>
        <time>2019-06-16T12:18:12Z</time>
      </trkpt>
      <trkpt lat="43.369476" lon="-3.207644">
        <ele>17.528</ele>
        <time>2019-06-16T12:18:13Z</time>
      </trkpt>
      <trkpt lat="43.369502" lon="-3.207826">
        <ele>17.397</ele>
        <time>2019-06-16T12:18:14Z</time>
      </trkpt>
      <trkpt lat="43.369523" lon="-3.207994">
        <ele>17.277</ele>
        <time>2019-06-16T12:18:15Z</time>
      </trkpt>
      <trkpt lat="43.369558" lon="-3.208177">
        <ele>15.983</ele>
        <time>2019-06-16T12:18:16Z</time>
      </trkpt>
      <trkpt lat="43.369589" lon="-3.208342">
        <ele>14.472</ele>
        <time>2019-06-16T12:18:17Z</time>
      </trkpt>
      <trkpt lat="43.369574" lon="-3.208500">
        <ele>14.123</ele>
        <time>2019-06-16T12:18:18Z</time>
      </trkpt>
      <trkpt lat="43.369578" lon="-3.208642">
        <ele>13.583</ele>
        <time>2019-06-16T12:18:19Z</time>
      </trkpt>
      <trkpt lat="43.369588" lon="-3.208762">
        <ele>12.911</ele>
        <time>2019-06-16T12:18:20Z</time>
      </trkpt>
      <trkpt lat="43.369601" lon="-3.208886">
        <ele>12.308</ele>
        <time>2019-06-16T12:18:21Z</time>
      </trkpt>
      <trkpt lat="43.369610" lon="-3.209008">
        <ele>12.775</ele>
        <time>2019-06-16T12:18:22Z</time>
      </trkpt>
      <trkpt lat="43.369616" lon="-3.209123">
        <ele>13.299</ele>
        <time>2019-06-16T12:18:23Z</time>
      </trkpt>
      <trkpt lat="43.369618" lon="-3.209230">
        <ele>13.239</ele>
        <time>2019-06-16T12:18:24Z</time>
      </trkpt>
      <trkpt lat="43.369616" lon="-3.209388">
        <ele>12.963</ele>
        <time>2019-06-16T12:18:25Z</time>
      </trkpt>
      <trkpt lat="43.369595" lon="-3.209539">
        <ele>12.662</ele>
        <time>2019-06-16T12:18:26Z</time>
      </trkpt>
      <trkpt lat="43.369575" lon="-3.209690">
        <ele>12.252</ele>
        <time>2019-06-16T12:18:27Z</time>
      </trkpt>
      <trkpt lat="43.369554" lon="-3.209825">
        <ele>11.588</ele>
        <time>2019-06-16T12:18:28Z</time>
      </trkpt>
      <trkpt lat="43.369530" lon="-3.209949">
        <ele>10.817</ele>
        <time>2019-06-16T12:18:29Z</time>
      </trkpt>
      <trkpt lat="43.369504" lon="-3.210062">
        <ele>10.248</ele>
        <time>2019-06-16T12:18:30Z</time>
      </trkpt>
      <trkpt lat="43.369482" lon="-3.210173">
        <ele>9.661</ele>
        <time>2019-06-16T12:18:31Z</time>
      </trkpt>
      <trkpt lat="43.369434" lon="-3.210281">
        <ele>9.117</ele>
        <time>2019-06-16T12:18:32Z</time>
      </trkpt>
      <trkpt lat="43.369410" lon="-3.210384">
        <ele>9.008</ele>
        <time>2019-06-16T12:18:33Z</time>
      </trkpt>
      <trkpt lat="43.369381" lon="-3.210463">
        <ele>8.947</ele>
        <time>2019-06-16T12:18:34Z</time>
      </trkpt>
      <trkpt lat="43.369375" lon="-3.210562">
        <ele>8.481</ele>
        <time>2019-06-16T12:18:35Z</time>
      </trkpt>
      <trkpt lat="43.369363" lon="-3.210660">
        <ele>7.711</ele>
        <time>2019-06-16T12:18:36Z</time>
      </trkpt>
      <trkpt lat="43.369334" lon="-3.210761">
        <ele>7.065</ele>
        <time>2019-06-16T12:18:37Z</time>
      </trkpt>
      <trkpt lat="43.369321" lon="-3.210861">
        <ele>6.324</ele>
        <time>2019-06-16T12:18:38Z</time>
      </trkpt>
      <trkpt lat="43.369302" lon="-3.210974">
        <ele>6.074</ele>
        <time>2019-06-16T12:18:39Z</time>
      </trkpt>
      <trkpt lat="43.369272" lon="-3.211096">
        <ele>5.770</ele>
        <time>2019-06-16T12:18:40Z</time>
      </trkpt>
      <trkpt lat="43.369241" lon="-3.211191">
        <ele>5.529</ele>
        <time>2019-06-16T12:18:41Z</time>
      </trkpt>
      <trkpt lat="43.369220" lon="-3.211296">
        <ele>5.333</ele>
        <time>2019-06-16T12:18:42Z</time>
      </trkpt>
      <trkpt lat="43.369228" lon="-3.211374">
        <ele>5.023</ele>
        <time>2019-06-16T12:18:43Z</time>
      </trkpt>
      <trkpt lat="43.369283" lon="-3.211512">
        <ele>4.715</ele>
        <time>2019-06-16T12:18:45Z</time>
      </trkpt>
      <trkpt lat="43.369308" lon="-3.211598">
        <ele>4.608</ele>
        <time>2019-06-16T12:18:46Z</time>
      </trkpt>
      <trkpt lat="43.369327" lon="-3.211670">
        <ele>4.676</ele>
        <time>2019-06-16T12:18:47Z</time>
      </trkpt>
      <trkpt lat="43.369323" lon="-3.211735">
        <ele>4.660</ele>
        <time>2019-06-16T12:18:48Z</time>
      </trkpt>
      <trkpt lat="43.369315" lon="-3.211798">
        <ele>4.560</ele>
        <time>2019-06-16T12:18:49Z</time>
      </trkpt>
      <trkpt lat="43.369234" lon="-3.211863">
        <ele>4.234</ele>
        <time>2019-06-16T12:18:50Z</time>
      </trkpt>
      <trkpt lat="43.369189" lon="-3.211912">
        <ele>4.183</ele>
        <time>2019-06-16T12:18:51Z</time>
      </trkpt>
      <trkpt lat="43.369151" lon="-3.211974">
        <ele>4.183</ele>
        <time>2019-06-16T12:18:52Z</time>
      </trkpt>
      <trkpt lat="43.369114" lon="-3.212033">
        <ele>4.229</ele>
        <time>2019-06-16T12:18:53Z</time>
      </trkpt>
      <trkpt lat="43.369092" lon="-3.212091">
        <ele>4.318</ele>
        <time>2019-06-16T12:18:54Z</time>
      </trkpt>
      <trkpt lat="43.369073" lon="-3.212161">
        <ele>4.388</ele>
        <time>2019-06-16T12:18:55Z</time>
      </trkpt>
      <trkpt lat="43.369066" lon="-3.212236">
        <ele>4.324</ele>
        <time>2019-06-16T12:18:56Z</time>
      </trkpt>
      <trkpt lat="43.369062" lon="-3.212323">
        <ele>4.026</ele>
        <time>2019-06-16T12:18:57Z</time>
      </trkpt>
      <trkpt lat="43.369054" lon="-3.212427">
        <ele>3.708</ele>
        <time>2019-06-16T12:18:58Z</time>
      </trkpt>
      <trkpt lat="43.369046" lon="-3.212524">
        <ele>3.411</ele>
        <time>2019-06-16T12:18:59Z</time>
      </trkpt>
      <trkpt lat="43.369042" lon="-3.212658">
        <ele>3.495</ele>
        <time>2019-06-16T12:19:00Z</time>
      </trkpt>
      <trkpt lat="43.369050" lon="-3.212774">
        <ele>3.475</ele>
        <time>2019-06-16T12:19:01Z</time>
      </trkpt>
      <trkpt lat="43.369062" lon="-3.212901">
        <ele>3.499</ele>
        <time>2019-06-16T12:19:02Z</time>
      </trkpt>
      <trkpt lat="43.369083" lon="-3.213018">
        <ele>3.318</ele>
        <time>2019-06-16T12:19:03Z</time>
      </trkpt>
      <trkpt lat="43.369094" lon="-3.213146">
        <ele>3.318</ele>
        <time>2019-06-16T12:19:04Z</time>
      </trkpt>
      <trkpt lat="43.369113" lon="-3.213274">
        <ele>3.284</ele>
        <time>2019-06-16T12:19:05Z</time>
      </trkpt>
      <trkpt lat="43.369125" lon="-3.213400">
        <ele>3.163</ele>
        <time>2019-06-16T12:19:06Z</time>
      </trkpt>
      <trkpt lat="43.369143" lon="-3.213535">
        <ele>3.174</ele>
        <time>2019-06-16T12:19:07Z</time>
      </trkpt>
      <trkpt lat="43.369164" lon="-3.213648">
        <ele>3.056</ele>
        <time>2019-06-16T12:19:08Z</time>
      </trkpt>
      <trkpt lat="43.369196" lon="-3.213768">
        <ele>3.021</ele>
        <time>2019-06-16T12:19:09Z</time>
      </trkpt>
      <trkpt lat="43.369213" lon="-3.213885">
        <ele>3.008</ele>
        <time>2019-06-16T12:19:10Z</time>
      </trkpt>
      <trkpt lat="43.369223" lon="-3.213996">
        <ele>3.340</ele>
        <time>2019-06-16T12:19:11Z</time>
      </trkpt>
      <trkpt lat="43.369221" lon="-3.214110">
        <ele>3.674</ele>
        <time>2019-06-16T12:19:12Z</time>
      </trkpt>
      <trkpt lat="43.369219" lon="-3.214211">
        <ele>3.864</ele>
        <time>2019-06-16T12:19:13Z</time>
      </trkpt>
      <trkpt lat="43.369208" lon="-3.214312">
        <ele>3.958</ele>
        <time>2019-06-16T12:19:14Z</time>
      </trkpt>
      <trkpt lat="43.369193" lon="-3.214401">
        <ele>3.977</ele>
        <time>2019-06-16T12:19:15Z</time>
      </trkpt>
      <trkpt lat="43.369188" lon="-3.214484">
        <ele>3.917</ele>
        <time>2019-06-16T12:19:16Z</time>
      </trkpt>
      <trkpt lat="43.369214" lon="-3.214538">
        <ele>3.813</ele>
        <time>2019-06-16T12:19:17Z</time>
      </trkpt>
      <trkpt lat="43.369230" lon="-3.214599">
        <ele>3.822</ele>
        <time>2019-06-16T12:19:18Z</time>
      </trkpt>
      <trkpt lat="43.369242" lon="-3.214670">
        <ele>3.763</ele>
        <time>2019-06-16T12:19:20Z</time>
      </trkpt>
      <trkpt lat="43.369267" lon="-3.214729">
        <ele>3.644</ele>
        <time>2019-06-16T12:19:24Z</time>
      </trkpt>
      <trkpt lat="43.369274" lon="-3.214790">
        <ele>3.718</ele>
        <time>2019-06-16T12:19:26Z</time>
      </trkpt>
      <trkpt lat="43.369311" lon="-3.214880">
        <ele>3.808</ele>
        <time>2019-06-16T12:19:28Z</time>
      </trkpt>
      <trkpt lat="43.369381" lon="-3.214925">
        <ele>3.829</ele>
        <time>2019-06-16T12:19:30Z</time>
      </trkpt>
      <trkpt lat="43.369458" lon="-3.214942">
        <ele>3.853</ele>
        <time>2019-06-16T12:19:31Z</time>
      </trkpt>
      <trkpt lat="43.369530" lon="-3.214951">
        <ele>4.173</ele>
        <time>2019-06-16T12:19:32Z</time>
      </trkpt>
      <trkpt lat="43.369615" lon="-3.214945">
        <ele>4.427</ele>
        <time>2019-06-16T12:19:33Z</time>
      </trkpt>
      <trkpt lat="43.369693" lon="-3.214927">
        <ele>4.696</ele>
        <time>2019-06-16T12:19:34Z</time>
      </trkpt>
      <trkpt lat="43.369770" lon="-3.214912">
        <ele>4.736</ele>
        <time>2019-06-16T12:19:35Z</time>
      </trkpt>
      <trkpt lat="43.369854" lon="-3.214889">
        <ele>4.832</ele>
        <time>2019-06-16T12:19:36Z</time>
      </trkpt>
      <trkpt lat="43.369935" lon="-3.214876">
        <ele>4.921</ele>
        <time>2019-06-16T12:19:37Z</time>
      </trkpt>
      <trkpt lat="43.369994" lon="-3.214859">
        <ele>5.094</ele>
        <time>2019-06-16T12:19:38Z</time>
      </trkpt>
      <trkpt lat="43.370062" lon="-3.214838">
        <ele>5.457</ele>
        <time>2019-06-16T12:19:39Z</time>
      </trkpt>
      <trkpt lat="43.370093" lon="-3.214884">
        <ele>5.522</ele>
        <time>2019-06-16T12:19:42Z</time>
      </trkpt>
      <trkpt lat="43.370195" lon="-3.214843">
        <ele>6.108</ele>
        <time>2019-06-16T12:19:46Z</time>
      </trkpt>
      <trkpt lat="43.370247" lon="-3.214799">
        <ele>6.552</ele>
        <time>2019-06-16T12:19:47Z</time>
      </trkpt>
      <trkpt lat="43.370370" lon="-3.214735">
        <ele>7.636</ele>
        <time>2019-06-16T12:19:48Z</time>
      </trkpt>
      <trkpt lat="43.370466" lon="-3.214692">
        <ele>8.426</ele>
        <time>2019-06-16T12:19:49Z</time>
      </trkpt>
      <trkpt lat="43.370608" lon="-3.214676">
        <ele>9.590</ele>
        <time>2019-06-16T12:19:50Z</time>
      </trkpt>
      <trkpt lat="43.370720" lon="-3.214639">
        <ele>10.559</ele>
        <time>2019-06-16T12:19:51Z</time>
      </trkpt>
      <trkpt lat="43.370838" lon="-3.214601">
        <ele>11.499</ele>
        <time>2019-06-16T12:19:52Z</time>
      </trkpt>
      <trkpt lat="43.370951" lon="-3.214576">
        <ele>11.725</ele>
        <time>2019-06-16T12:19:53Z</time>
      </trkpt>
      <trkpt lat="43.371067" lon="-3.214546">
        <ele>11.934</ele>
        <time>2019-06-16T12:19:54Z</time>
      </trkpt>
      <trkpt lat="43.371174" lon="-3.214534">
        <ele>12.374</ele>
        <time>2019-06-16T12:19:55Z</time>
      </trkpt>
      <trkpt lat="43.371239" lon="-3.214500">
        <ele>12.656</ele>
        <time>2019-06-16T12:19:56Z</time>
      </trkpt>
      <trkpt lat="43.371342" lon="-3.214489">
        <ele>13.021</ele>
        <time>2019-06-16T12:19:57Z</time>
      </trkpt>
      <trkpt lat="43.371432" lon="-3.214472">
        <ele>13.308</ele>
        <time>2019-06-16T12:19:58Z</time>
      </trkpt>
      <trkpt lat="43.371515" lon="-3.214460">
        <ele>13.590</ele>
        <time>2019-06-16T12:19:59Z</time>
      </trkpt>
      <trkpt lat="43.371643" lon="-3.214448">
        <ele>13.984</ele>
        <time>2019-06-16T12:20:00Z</time>
      </trkpt>
      <trkpt lat="43.371730" lon="-3.214432">
        <ele>14.244</ele>
        <time>2019-06-16T12:20:01Z</time>
      </trkpt>
      <trkpt lat="43.371826" lon="-3.214391">
        <ele>14.348</ele>
        <time>2019-06-16T12:20:02Z</time>
      </trkpt>
      <trkpt lat="43.371934" lon="-3.214365">
        <ele>14.457</ele>
        <time>2019-06-16T12:20:03Z</time>
      </trkpt>
      <trkpt lat="43.372030" lon="-3.214340">
        <ele>13.937</ele>
        <time>2019-06-16T12:20:04Z</time>
      </trkpt>
      <trkpt lat="43.372111" lon="-3.214314">
        <ele>13.563</ele>
        <time>2019-06-16T12:20:05Z</time>
      </trkpt>
      <trkpt lat="43.372200" lon="-3.214299">
        <ele>13.072</ele>
        <time>2019-06-16T12:20:06Z</time>
      </trkpt>
      <trkpt lat="43.372286" lon="-3.214278">
        <ele>12.971</ele>
        <time>2019-06-16T12:20:07Z</time>
      </trkpt>
      <trkpt lat="43.372376" lon="-3.214280">
        <ele>13.041</ele>
        <time>2019-06-16T12:20:08Z</time>
      </trkpt>
      <trkpt lat="43.372463" lon="-3.214277">
        <ele>13.115</ele>
        <time>2019-06-16T12:20:09Z</time>
      </trkpt>
      <trkpt lat="43.372556" lon="-3.214293">
        <ele>13.508</ele>
        <time>2019-06-16T12:20:10Z</time>
      </trkpt>
      <trkpt lat="43.372639" lon="-3.214305">
        <ele>13.710</ele>
        <time>2019-06-16T12:20:11Z</time>
      </trkpt>
      <trkpt lat="43.372721" lon="-3.214335">
        <ele>14.174</ele>
        <time>2019-06-16T12:20:12Z</time>
      </trkpt>
      <trkpt lat="43.372804" lon="-3.214367">
        <ele>14.444</ele>
        <time>2019-06-16T12:20:13Z</time>
      </trkpt>
      <trkpt lat="43.372923" lon="-3.214406">
        <ele>14.318</ele>
        <time>2019-06-16T12:20:14Z</time>
      </trkpt>
      <trkpt lat="43.373044" lon="-3.214445">
        <ele>14.037</ele>
        <time>2019-06-16T12:20:15Z</time>
      </trkpt>
      <trkpt lat="43.373142" lon="-3.214478">
        <ele>13.917</ele>
        <time>2019-06-16T12:20:16Z</time>
      </trkpt>
      <trkpt lat="43.373242" lon="-3.214515">
        <ele>13.843</ele>
        <time>2019-06-16T12:20:17Z</time>
      </trkpt>
      <trkpt lat="43.373329" lon="-3.214542">
        <ele>13.782</ele>
        <time>2019-06-16T12:20:18Z</time>
      </trkpt>
      <trkpt lat="43.373444" lon="-3.214569">
        <ele>13.732</ele>
        <time>2019-06-16T12:20:19Z</time>
      </trkpt>
      <trkpt lat="43.373528" lon="-3.214612">
        <ele>13.892</ele>
        <time>2019-06-16T12:20:20Z</time>
      </trkpt>
      <trkpt lat="43.373625" lon="-3.214650">
        <ele>13.711</ele>
        <time>2019-06-16T12:20:21Z</time>
      </trkpt>
      <trkpt lat="43.373722" lon="-3.214693">
        <ele>13.508</ele>
        <time>2019-06-16T12:20:22Z</time>
      </trkpt>
      <trkpt lat="43.373805" lon="-3.214728">
        <ele>13.356</ele>
        <time>2019-06-16T12:20:23Z</time>
      </trkpt>
      <trkpt lat="43.373893" lon="-3.214755">
        <ele>13.260</ele>
        <time>2019-06-16T12:20:24Z</time>
      </trkpt>
      <trkpt lat="43.373975" lon="-3.214789">
        <ele>13.280</ele>
        <time>2019-06-16T12:20:25Z</time>
      </trkpt>
      <trkpt lat="43.374058" lon="-3.214823">
        <ele>13.154</ele>
        <time>2019-06-16T12:20:26Z</time>
      </trkpt>
      <trkpt lat="43.374121" lon="-3.214849">
        <ele>13.153</ele>
        <time>2019-06-16T12:20:27Z</time>
      </trkpt>
      <trkpt lat="43.374205" lon="-3.214879">
        <ele>13.033</ele>
        <time>2019-06-16T12:20:28Z</time>
      </trkpt>
      <trkpt lat="43.374277" lon="-3.214916">
        <ele>13.099</ele>
        <time>2019-06-16T12:20:29Z</time>
      </trkpt>
      <trkpt lat="43.374339" lon="-3.214946">
        <ele>13.018</ele>
        <time>2019-06-16T12:20:30Z</time>
      </trkpt>
      <trkpt lat="43.374388" lon="-3.214973">
        <ele>13.064</ele>
        <time>2019-06-16T12:20:31Z</time>
      </trkpt>
      <trkpt lat="43.374450" lon="-3.214993">
        <ele>12.906</ele>
        <time>2019-06-16T12:20:32Z</time>
      </trkpt>
      <trkpt lat="43.374515" lon="-3.215022">
        <ele>13.016</ele>
        <time>2019-06-16T12:20:33Z</time>
      </trkpt>
      <trkpt lat="43.374576" lon="-3.215062">
        <ele>13.208</ele>
        <time>2019-06-16T12:20:34Z</time>
      </trkpt>
      <trkpt lat="43.374637" lon="-3.215087">
        <ele>13.179</ele>
        <time>2019-06-16T12:20:35Z</time>
      </trkpt>
      <trkpt lat="43.374716" lon="-3.215117">
        <ele>12.933</ele>
        <time>2019-06-16T12:20:37Z</time>
      </trkpt>
      <trkpt lat="43.374770" lon="-3.215137">
        <ele>12.653</ele>
        <time>2019-06-16T12:20:38Z</time>
      </trkpt>
      <trkpt lat="43.374829" lon="-3.215156">
        <ele>12.457</ele>
        <time>2019-06-16T12:20:39Z</time>
      </trkpt>
      <trkpt lat="43.374898" lon="-3.215173">
        <ele>12.046</ele>
        <time>2019-06-16T12:20:40Z</time>
      </trkpt>
      <trkpt lat="43.374964" lon="-3.215188">
        <ele>11.696</ele>
        <time>2019-06-16T12:20:43Z</time>
      </trkpt>
      <trkpt lat="43.375040" lon="-3.215224">
        <ele>11.582</ele>
        <time>2019-06-16T12:20:46Z</time>
      </trkpt>
      <trkpt lat="43.375156" lon="-3.215271">
        <ele>11.461</ele>
        <time>2019-06-16T12:20:48Z</time>
      </trkpt>
      <trkpt lat="43.375217" lon="-3.215298">
        <ele>11.433</ele>
        <time>2019-06-16T12:20:49Z</time>
      </trkpt>
      <trkpt lat="43.375283" lon="-3.215325">
        <ele>11.523</ele>
        <time>2019-06-16T12:20:50Z</time>
      </trkpt>
      <trkpt lat="43.375345" lon="-3.215355">
        <ele>11.915</ele>
        <time>2019-06-16T12:20:51Z</time>
      </trkpt>
      <trkpt lat="43.375421" lon="-3.215387">
        <ele>12.308</ele>
        <time>2019-06-16T12:20:52Z</time>
      </trkpt>
      <trkpt lat="43.375511" lon="-3.215425">
        <ele>12.596</ele>
        <time>2019-06-16T12:20:53Z</time>
      </trkpt>
      <trkpt lat="43.375577" lon="-3.215453">
        <ele>12.680</ele>
        <time>2019-06-16T12:20:54Z</time>
      </trkpt>
      <trkpt lat="43.375648" lon="-3.215480">
        <ele>12.410</ele>
        <time>2019-06-16T12:20:55Z</time>
      </trkpt>
      <trkpt lat="43.375751" lon="-3.215522">
        <ele>12.254</ele>
        <time>2019-06-16T12:20:57Z</time>
      </trkpt>
      <trkpt lat="43.375821" lon="-3.215556">
        <ele>12.073</ele>
        <time>2019-06-16T12:20:58Z</time>
      </trkpt>
      <trkpt lat="43.375877" lon="-3.215581">
        <ele>11.973</ele>
        <time>2019-06-16T12:20:59Z</time>
      </trkpt>
      <trkpt lat="43.375936" lon="-3.215602">
        <ele>11.849</ele>
        <time>2019-06-16T12:21:00Z</time>
      </trkpt>
      <trkpt lat="43.376010" lon="-3.215640">
        <ele>11.778</ele>
        <time>2019-06-16T12:21:01Z</time>
      </trkpt>
      <trkpt lat="43.376088" lon="-3.215665">
        <ele>11.572</ele>
        <time>2019-06-16T12:21:02Z</time>
      </trkpt>
      <trkpt lat="43.376173" lon="-3.215690">
        <ele>11.413</ele>
        <time>2019-06-16T12:21:03Z</time>
      </trkpt>
      <trkpt lat="43.376250" lon="-3.215712">
        <ele>11.314</ele>
        <time>2019-06-16T12:21:04Z</time>
      </trkpt>
      <trkpt lat="43.376321" lon="-3.215738">
        <ele>11.208</ele>
        <time>2019-06-16T12:21:05Z</time>
      </trkpt>
      <trkpt lat="43.376367" lon="-3.215759">
        <ele>11.110</ele>
        <time>2019-06-16T12:21:06Z</time>
      </trkpt>
      <trkpt lat="43.376426" lon="-3.215781">
        <ele>11.054</ele>
        <time>2019-06-16T12:21:07Z</time>
      </trkpt>
      <trkpt lat="43.376476" lon="-3.215805">
        <ele>11.094</ele>
        <time>2019-06-16T12:21:08Z</time>
      </trkpt>
      <trkpt lat="43.376521" lon="-3.215826">
        <ele>11.048</ele>
        <time>2019-06-16T12:21:09Z</time>
      </trkpt>
      <trkpt lat="43.376582" lon="-3.215849">
        <ele>11.017</ele>
        <time>2019-06-16T12:21:10Z</time>
      </trkpt>
      <trkpt lat="43.376661" lon="-3.215886">
        <ele>11.017</ele>
        <time>2019-06-16T12:21:11Z</time>
      </trkpt>
      <trkpt lat="43.376769" lon="-3.215924">
        <ele>10.653</ele>
        <time>2019-06-16T12:21:13Z</time>
      </trkpt>
      <trkpt lat="43.376848" lon="-3.215960">
        <ele>10.392</ele>
        <time>2019-06-16T12:21:14Z</time>
      </trkpt>
      <trkpt lat="43.376909" lon="-3.215978">
        <ele>10.179</ele>
        <time>2019-06-16T12:21:15Z</time>
      </trkpt>
      <trkpt lat="43.376966" lon="-3.215994">
        <ele>10.005</ele>
        <time>2019-06-16T12:21:16Z</time>
      </trkpt>
      <trkpt lat="43.377038" lon="-3.216018">
        <ele>9.925</ele>
        <time>2019-06-16T12:21:17Z</time>
      </trkpt>
      <trkpt lat="43.377113" lon="-3.216049">
        <ele>9.908</ele>
        <time>2019-06-16T12:21:18Z</time>
      </trkpt>
      <trkpt lat="43.377198" lon="-3.216080">
        <ele>9.960</ele>
        <time>2019-06-16T12:21:19Z</time>
      </trkpt>
      <trkpt lat="43.377267" lon="-3.216107">
        <ele>9.894</ele>
        <time>2019-06-16T12:21:20Z</time>
      </trkpt>
      <trkpt lat="43.377335" lon="-3.216136">
        <ele>9.794</ele>
        <time>2019-06-16T12:21:21Z</time>
      </trkpt>
      <trkpt lat="43.377416" lon="-3.216165">
        <ele>9.548</ele>
        <time>2019-06-16T12:21:22Z</time>
      </trkpt>
      <trkpt lat="43.377467" lon="-3.216186">
        <ele>9.417</ele>
        <time>2019-06-16T12:21:23Z</time>
      </trkpt>
      <trkpt lat="43.377519" lon="-3.216213">
        <ele>9.377</ele>
        <time>2019-06-16T12:21:24Z</time>
      </trkpt>
      <trkpt lat="43.377564" lon="-3.216234">
        <ele>9.363</ele>
        <time>2019-06-16T12:21:25Z</time>
      </trkpt>
      <trkpt lat="43.377666" lon="-3.216281">
        <ele>9.282</ele>
        <time>2019-06-16T12:21:27Z</time>
      </trkpt>
      <trkpt lat="43.377743" lon="-3.216306">
        <ele>9.171</ele>
        <time>2019-06-16T12:21:28Z</time>
      </trkpt>
      <trkpt lat="43.377807" lon="-3.216336">
        <ele>9.041</ele>
        <time>2019-06-16T12:21:29Z</time>
      </trkpt>
      <trkpt lat="43.377893" lon="-3.216363">
        <ele>9.015</ele>
        <time>2019-06-16T12:21:30Z</time>
      </trkpt>
      <trkpt lat="43.377939" lon="-3.216376">
        <ele>9.008</ele>
        <time>2019-06-16T12:21:31Z</time>
      </trkpt>
      <trkpt lat="43.377995" lon="-3.216399">
        <ele>9.120</ele>
        <time>2019-06-16T12:21:32Z</time>
      </trkpt>
      <trkpt lat="43.378048" lon="-3.216422">
        <ele>9.454</ele>
        <time>2019-06-16T12:21:33Z</time>
      </trkpt>
      <trkpt lat="43.378115" lon="-3.216449">
        <ele>9.514</ele>
        <time>2019-06-16T12:21:34Z</time>
      </trkpt>
      <trkpt lat="43.378203" lon="-3.216484">
        <ele>9.558</ele>
        <time>2019-06-16T12:21:35Z</time>
      </trkpt>
      <trkpt lat="43.378269" lon="-3.216513">
        <ele>9.397</ele>
        <time>2019-06-16T12:21:36Z</time>
      </trkpt>
      <trkpt lat="43.378320" lon="-3.216532">
        <ele>9.177</ele>
        <time>2019-06-16T12:21:37Z</time>
      </trkpt>
      <trkpt lat="43.378397" lon="-3.216564">
        <ele>8.883</ele>
        <time>2019-06-16T12:21:38Z</time>
      </trkpt>
      <trkpt lat="43.378483" lon="-3.216594">
        <ele>8.562</ele>
        <time>2019-06-16T12:21:39Z</time>
      </trkpt>
      <trkpt lat="43.378557" lon="-3.216633">
        <ele>8.295</ele>
        <time>2019-06-16T12:21:41Z</time>
      </trkpt>
      <trkpt lat="43.378605" lon="-3.216659">
        <ele>8.049</ele>
        <time>2019-06-16T12:21:42Z</time>
      </trkpt>
      <trkpt lat="43.378665" lon="-3.216689">
        <ele>8.123</ele>
        <time>2019-06-16T12:21:43Z</time>
      </trkpt>
      <trkpt lat="43.378715" lon="-3.216709">
        <ele>8.108</ele>
        <time>2019-06-16T12:21:44Z</time>
      </trkpt>
      <trkpt lat="43.378765" lon="-3.216731">
        <ele>8.162</ele>
        <time>2019-06-16T12:21:45Z</time>
      </trkpt>
      <trkpt lat="43.378834" lon="-3.216753">
        <ele>8.176</ele>
        <time>2019-06-16T12:21:47Z</time>
      </trkpt>
      <trkpt lat="43.378913" lon="-3.216790">
        <ele>7.966</ele>
        <time>2019-06-16T12:21:49Z</time>
      </trkpt>
      <trkpt lat="43.378992" lon="-3.216822">
        <ele>7.690</ele>
        <time>2019-06-16T12:21:52Z</time>
      </trkpt>
      <trkpt lat="43.379065" lon="-3.216841">
        <ele>7.439</ele>
        <time>2019-06-16T12:21:54Z</time>
      </trkpt>
      <trkpt lat="43.379124" lon="-3.216863">
        <ele>7.219</ele>
        <time>2019-06-16T12:21:56Z</time>
      </trkpt>
      <trkpt lat="43.379180" lon="-3.216884">
        <ele>7.045</ele>
        <time>2019-06-16T12:21:58Z</time>
      </trkpt>
      <trkpt lat="43.379286" lon="-3.216916">
        <ele>7.054</ele>
        <time>2019-06-16T12:22:00Z</time>
      </trkpt>
      <trkpt lat="43.379355" lon="-3.216937">
        <ele>7.018</ele>
        <time>2019-06-16T12:22:01Z</time>
      </trkpt>
      <trkpt lat="43.379412" lon="-3.216961">
        <ele>7.098</ele>
        <time>2019-06-16T12:22:02Z</time>
      </trkpt>
      <trkpt lat="43.379488" lon="-3.216988">
        <ele>7.017</ele>
        <time>2019-06-16T12:22:03Z</time>
      </trkpt>
      <trkpt lat="43.379557" lon="-3.217026">
        <ele>7.008</ele>
        <time>2019-06-16T12:22:04Z</time>
      </trkpt>
      <trkpt lat="43.379621" lon="-3.217059">
        <ele>7.074</ele>
        <time>2019-06-16T12:22:05Z</time>
      </trkpt>
      <trkpt lat="43.379697" lon="-3.217091">
        <ele>7.058</ele>
        <time>2019-06-16T12:22:06Z</time>
      </trkpt>
      <trkpt lat="43.379790" lon="-3.217138">
        <ele>6.888</ele>
        <time>2019-06-16T12:22:07Z</time>
      </trkpt>
      <trkpt lat="43.379848" lon="-3.217169">
        <ele>6.572</ele>
        <time>2019-06-16T12:22:08Z</time>
      </trkpt>
      <trkpt lat="43.379927" lon="-3.217222">
        <ele>6.371</ele>
        <time>2019-06-16T12:22:10Z</time>
      </trkpt>
      <trkpt lat="43.379987" lon="-3.217261">
        <ele>6.281</ele>
        <time>2019-06-16T12:22:11Z</time>
      </trkpt>
      <trkpt lat="43.380039" lon="-3.217299">
        <ele>6.297</ele>
        <time>2019-06-16T12:22:12Z</time>
      </trkpt>
      <trkpt lat="43.380110" lon="-3.217366">
        <ele>6.346</ele>
        <time>2019-06-16T12:22:13Z</time>
      </trkpt>
      <trkpt lat="43.380162" lon="-3.217433">
        <ele>6.376</ele>
        <time>2019-06-16T12:22:14Z</time>
      </trkpt>
      <trkpt lat="43.380218" lon="-3.217514">
        <ele>6.390</ele>
        <time>2019-06-16T12:22:15Z</time>
      </trkpt>
      <trkpt lat="43.380252" lon="-3.217605">
        <ele>6.419</ele>
        <time>2019-06-16T12:22:16Z</time>
      </trkpt>
      <trkpt lat="43.380255" lon="-3.217682">
        <ele>6.708</ele>
        <time>2019-06-16T12:22:17Z</time>
      </trkpt>
      <trkpt lat="43.380247" lon="-3.217769">
        <ele>7.060</ele>
        <time>2019-06-16T12:22:18Z</time>
      </trkpt>
      <trkpt lat="43.380215" lon="-3.217847">
        <ele>7.174</ele>
        <time>2019-06-16T12:22:19Z</time>
      </trkpt>
      <trkpt lat="43.380166" lon="-3.217971">
        <ele>7.344</ele>
        <time>2019-06-16T12:22:20Z</time>
      </trkpt>
      <trkpt lat="43.380120" lon="-3.218086">
        <ele>7.638</ele>
        <time>2019-06-16T12:22:21Z</time>
      </trkpt>
      <trkpt lat="43.380093" lon="-3.218202">
        <ele>7.867</ele>
        <time>2019-06-16T12:22:22Z</time>
      </trkpt>
      <trkpt lat="43.380057" lon="-3.218312">
        <ele>8.047</ele>
        <time>2019-06-16T12:22:23Z</time>
      </trkpt>
      <trkpt lat="43.380006" lon="-3.218437">
        <ele>8.483</ele>
        <time>2019-06-16T12:22:24Z</time>
      </trkpt>
      <trkpt lat="43.379973" lon="-3.218572">
        <ele>8.952</ele>
        <time>2019-06-16T12:22:25Z</time>
      </trkpt>
      <trkpt lat="43.379978" lon="-3.218678">
        <ele>9.333</ele>
        <time>2019-06-16T12:22:27Z</time>
      </trkpt>
      <trkpt lat="43.379974" lon="-3.218767">
        <ele>9.723</ele>
        <time>2019-06-16T12:22:28Z</time>
      </trkpt>
      <trkpt lat="43.379970" lon="-3.218861">
        <ele>10.015</ele>
        <time>2019-06-16T12:22:29Z</time>
      </trkpt>
      <trkpt lat="43.379980" lon="-3.218955">
        <ele>10.108</ele>
        <time>2019-06-16T12:22:30Z</time>
      </trkpt>
      <trkpt lat="43.380008" lon="-3.219036">
        <ele>10.076</ele>
        <time>2019-06-16T12:22:31Z</time>
      </trkpt>
      <trkpt lat="43.380052" lon="-3.219086">
        <ele>9.960</ele>
        <time>2019-06-16T12:22:32Z</time>
      </trkpt>
      <trkpt lat="43.380105" lon="-3.219130">
        <ele>9.990</ele>
        <time>2019-06-16T12:22:33Z</time>
      </trkpt>
      <trkpt lat="43.380147" lon="-3.219169">
        <ele>10.044</ele>
        <time>2019-06-16T12:22:34Z</time>
      </trkpt>
      <trkpt lat="43.380237" lon="-3.219234">
        <ele>10.183</ele>
        <time>2019-06-16T12:22:35Z</time>
      </trkpt>
      <trkpt lat="43.380324" lon="-3.219293">
        <ele>9.973</ele>
        <time>2019-06-16T12:22:36Z</time>
      </trkpt>
      <trkpt lat="43.380374" lon="-3.219351">
        <ele>9.959</ele>
        <time>2019-06-16T12:22:37Z</time>
      </trkpt>
      <trkpt lat="43.380447" lon="-3.219410">
        <ele>9.958</ele>
        <time>2019-06-16T12:22:38Z</time>
      </trkpt>
      <trkpt lat="43.380532" lon="-3.219477">
        <ele>10.126</ele>
        <time>2019-06-16T12:22:39Z</time>
      </trkpt>
      <trkpt lat="43.380585" lon="-3.219536">
        <ele>10.247</ele>
        <time>2019-06-16T12:22:40Z</time>
      </trkpt>
      <trkpt lat="43.380649" lon="-3.219600">
        <ele>10.211</ele>
        <time>2019-06-16T12:22:41Z</time>
      </trkpt>
      <trkpt lat="43.380757" lon="-3.219672">
        <ele>10.108</ele>
        <time>2019-06-16T12:22:42Z</time>
      </trkpt>
      <trkpt lat="43.380824" lon="-3.219713">
        <ele>10.015</ele>
        <time>2019-06-16T12:22:43Z</time>
      </trkpt>
      <trkpt lat="43.380912" lon="-3.219774">
        <ele>9.969</ele>
        <time>2019-06-16T12:22:44Z</time>
      </trkpt>
      <trkpt lat="43.380950" lon="-3.219836">
        <ele>10.099</ele>
        <time>2019-06-16T12:22:45Z</time>
      </trkpt>
      <trkpt lat="43.381049" lon="-3.219905">
        <ele>9.993</ele>
        <time>2019-06-16T12:22:46Z</time>
      </trkpt>
      <trkpt lat="43.381112" lon="-3.219954">
        <ele>9.862</ele>
        <time>2019-06-16T12:22:47Z</time>
      </trkpt>
      <trkpt lat="43.381204" lon="-3.220034">
        <ele>10.182</ele>
        <time>2019-06-16T12:22:48Z</time>
      </trkpt>
      <trkpt lat="43.381309" lon="-3.220103">
        <ele>10.128</ele>
        <time>2019-06-16T12:22:49Z</time>
      </trkpt>
      <trkpt lat="43.381404" lon="-3.220172">
        <ele>10.097</ele>
        <time>2019-06-16T12:22:50Z</time>
      </trkpt>
      <trkpt lat="43.381500" lon="-3.220236">
        <ele>9.996</ele>
        <time>2019-06-16T12:22:51Z</time>
      </trkpt>
      <trkpt lat="43.381633" lon="-3.220340">
        <ele>10.431</ele>
        <time>2019-06-16T12:22:53Z</time>
      </trkpt>
      <trkpt lat="43.381699" lon="-3.220395">
        <ele>10.624</ele>
        <time>2019-06-16T12:22:54Z</time>
      </trkpt>
      <trkpt lat="43.381779" lon="-3.220472">
        <ele>10.408</ele>
        <time>2019-06-16T12:22:56Z</time>
      </trkpt>
      <trkpt lat="43.381825" lon="-3.220481">
        <ele>10.172</ele>
        <time>2019-06-16T12:22:57Z</time>
      </trkpt>
      <trkpt lat="43.381871" lon="-3.220524">
        <ele>9.726</ele>
        <time>2019-06-16T12:22:58Z</time>
      </trkpt>
      <trkpt lat="43.381924" lon="-3.220555">
        <ele>9.226</ele>
        <time>2019-06-16T12:22:59Z</time>
      </trkpt>
      <trkpt lat="43.382003" lon="-3.220578">
        <ele>9.180</ele>
        <time>2019-06-16T12:23:00Z</time>
      </trkpt>
      <trkpt lat="43.382087" lon="-3.220646">
        <ele>9.259</ele>
        <time>2019-06-16T12:23:02Z</time>
      </trkpt>
      <trkpt lat="43.382144" lon="-3.220692">
        <ele>9.149</ele>
        <time>2019-06-16T12:23:03Z</time>
      </trkpt>
      <trkpt lat="43.382224" lon="-3.220753">
        <ele>9.025</ele>
        <time>2019-06-16T12:23:04Z</time>
      </trkpt>
      <trkpt lat="43.382337" lon="-3.220800">
        <ele>8.654</ele>
        <time>2019-06-16T12:23:05Z</time>
      </trkpt>
      <trkpt lat="43.382409" lon="-3.220838">
        <ele>8.391</ele>
        <time>2019-06-16T12:23:06Z</time>
      </trkpt>
      <trkpt lat="43.382464" lon="-3.220885">
        <ele>8.381</ele>
        <time>2019-06-16T12:23:07Z</time>
      </trkpt>
      <trkpt lat="43.382542" lon="-3.220947">
        <ele>8.319</ele>
        <time>2019-06-16T12:23:08Z</time>
      </trkpt>
      <trkpt lat="43.382663" lon="-3.220981">
        <ele>7.908</ele>
        <time>2019-06-16T12:23:09Z</time>
      </trkpt>
      <trkpt lat="43.382762" lon="-3.220994">
        <ele>7.662</ele>
        <time>2019-06-16T12:23:10Z</time>
      </trkpt>
      <trkpt lat="43.382851" lon="-3.220988">
        <ele>7.496</ele>
        <time>2019-06-16T12:23:11Z</time>
      </trkpt>
      <trkpt lat="43.382953" lon="-3.220979">
        <ele>7.296</ele>
        <time>2019-06-16T12:23:12Z</time>
      </trkpt>
      <trkpt lat="43.383026" lon="-3.220982">
        <ele>7.140</ele>
        <time>2019-06-16T12:23:13Z</time>
      </trkpt>
      <trkpt lat="43.383103" lon="-3.220986">
        <ele>6.829</ele>
        <time>2019-06-16T12:23:14Z</time>
      </trkpt>
      <trkpt lat="43.383162" lon="-3.220987">
        <ele>6.629</ele>
        <time>2019-06-16T12:23:15Z</time>
      </trkpt>
      <trkpt lat="43.383239" lon="-3.220987">
        <ele>6.325</ele>
        <time>2019-06-16T12:23:17Z</time>
      </trkpt>
      <trkpt lat="43.383300" lon="-3.220965">
        <ele>6.124</ele>
        <time>2019-06-16T12:23:21Z</time>
      </trkpt>
      <trkpt lat="43.383357" lon="-3.220972">
        <ele>6.058</ele>
        <time>2019-06-16T12:23:29Z</time>
      </trkpt>
      <trkpt lat="43.383410" lon="-3.220963">
        <ele>6.052</ele>
        <time>2019-06-16T12:23:32Z</time>
      </trkpt>
      <trkpt lat="43.383463" lon="-3.220968">
        <ele>6.017</ele>
        <time>2019-06-16T12:23:33Z</time>
      </trkpt>
      <trkpt lat="43.383543" lon="-3.220943">
        <ele>6.008</ele>
        <time>2019-06-16T12:23:34Z</time>
      </trkpt>
      <trkpt lat="43.383608" lon="-3.220927">
        <ele>6.028</ele>
        <time>2019-06-16T12:23:36Z</time>
      </trkpt>
      <trkpt lat="43.383651" lon="-3.220872">
        <ele>5.922</ele>
        <time>2019-06-16T12:23:42Z</time>
      </trkpt>
      <trkpt lat="43.383651" lon="-3.220801">
        <ele>5.872</ele>
        <time>2019-06-16T12:23:46Z</time>
      </trkpt>
      <trkpt lat="43.383648" lon="-3.220737">
        <ele>5.656</ele>
        <time>2019-06-16T12:23:48Z</time>
      </trkpt>
      <trkpt lat="43.383619" lon="-3.220647">
        <ele>5.345</ele>
        <time>2019-06-16T12:23:50Z</time>
      </trkpt>
      <trkpt lat="43.383593" lon="-3.220567">
        <ele>5.165</ele>
        <time>2019-06-16T12:23:52Z</time>
      </trkpt>
      <trkpt lat="43.383575" lon="-3.220487">
        <ele>5.161</ele>
        <time>2019-06-16T12:23:54Z</time>
      </trkpt>
      <trkpt lat="43.383550" lon="-3.220403">
        <ele>5.270</ele>
        <time>2019-06-16T12:23:56Z</time>
      </trkpt>
      <trkpt lat="43.383525" lon="-3.220328">
        <ele>5.385</ele>
        <time>2019-06-16T12:23:58Z</time>
      </trkpt>
      <trkpt lat="43.383493" lon="-3.220226">
        <ele>5.289</ele>
        <time>2019-06-16T12:24:00Z</time>
      </trkpt>
      <trkpt lat="43.383457" lon="-3.220127">
        <ele>5.017</ele>
        <time>2019-06-16T12:24:02Z</time>
      </trkpt>
      <trkpt lat="43.383420" lon="-3.220031">
        <ele>4.808</ele>
        <time>2019-06-16T12:24:04Z</time>
      </trkpt>
      <trkpt lat="43.383393" lon="-3.219934">
        <ele>4.861</ele>
        <time>2019-06-16T12:24:06Z</time>
      </trkpt>
      <trkpt lat="43.383346" lon="-3.219847">
        <ele>5.085</ele>
        <time>2019-06-16T12:24:08Z</time>
      </trkpt>
      <trkpt lat="43.383314" lon="-3.219756">
        <ele>5.075</ele>
        <time>2019-06-16T12:24:10Z</time>
      </trkpt>
      <trkpt lat="43.383311" lon="-3.219660">
        <ele>5.099</ele>
        <time>2019-06-16T12:24:12Z</time>
      </trkpt>
      <trkpt lat="43.383291" lon="-3.219568">
        <ele>5.058</ele>
        <time>2019-06-16T12:24:14Z</time>
      </trkpt>
      <trkpt lat="43.383267" lon="-3.219462">
        <ele>5.098</ele>
        <time>2019-06-16T12:24:16Z</time>
      </trkpt>
      <trkpt lat="43.383270" lon="-3.219384">
        <ele>5.074</ele>
        <time>2019-06-16T12:24:17Z</time>
      </trkpt>
      <trkpt lat="43.383263" lon="-3.219267">
        <ele>5.023</ele>
        <time>2019-06-16T12:24:19Z</time>
      </trkpt>
      <trkpt lat="43.383251" lon="-3.219205">
        <ele>5.048</ele>
        <time>2019-06-16T12:24:20Z</time>
      </trkpt>
      <trkpt lat="43.383236" lon="-3.219092">
        <ele>5.061</ele>
        <time>2019-06-16T12:24:22Z</time>
      </trkpt>
      <trkpt lat="43.383215" lon="-3.218998">
        <ele>5.017</ele>
        <time>2019-06-16T12:24:24Z</time>
      </trkpt>
      <trkpt lat="43.383201" lon="-3.218927">
        <ele>5.008</ele>
        <time>2019-06-16T12:24:26Z</time>
      </trkpt>
      <trkpt lat="43.383191" lon="-3.218861">
        <ele>5.077</ele>
        <time>2019-06-16T12:24:31Z</time>
      </trkpt>
      <trkpt lat="43.383169" lon="-3.218782">
        <ele>5.031</ele>
        <time>2019-06-16T12:24:34Z</time>
      </trkpt>
      <trkpt lat="43.383157" lon="-3.218706">
        <ele>5.031</ele>
        <time>2019-06-16T12:24:36Z</time>
      </trkpt>
      <trkpt lat="43.383143" lon="-3.218636">
        <ele>5.085</ele>
        <time>2019-06-16T12:24:38Z</time>
      </trkpt>
      <trkpt lat="43.383126" lon="-3.218560">
        <ele>5.054</ele>
        <time>2019-06-16T12:24:40Z</time>
      </trkpt>
      <trkpt lat="43.383112" lon="-3.218489">
        <ele>5.114</ele>
        <time>2019-06-16T12:24:42Z</time>
      </trkpt>
      <trkpt lat="43.383068" lon="-3.218431">
        <ele>5.050</ele>
        <time>2019-06-16T12:24:45Z</time>
      </trkpt>
      <trkpt lat="43.383023" lon="-3.218411">
        <ele>5.169</ele>
        <time>2019-06-16T12:24:50Z</time>
      </trkpt>
      <trkpt lat="43.382988" lon="-3.218333">
        <ele>5.241</ele>
        <time>2019-06-16T12:24:53Z</time>
      </trkpt>
      <trkpt lat="43.382972" lon="-3.218270">
        <ele>5.281</ele>
        <time>2019-06-16T12:24:55Z</time>
      </trkpt>
      <trkpt lat="43.382929" lon="-3.218212">
        <ele>5.309</ele>
        <time>2019-06-16T12:24:58Z</time>
      </trkpt>
      <trkpt lat="43.382884" lon="-3.218181">
        <ele>5.308</ele>
        <time>2019-06-16T12:25:00Z</time>
      </trkpt>
      <trkpt lat="43.382838" lon="-3.218165">
        <ele>5.347</ele>
        <time>2019-06-16T12:25:02Z</time>
      </trkpt>
      <trkpt lat="43.382774" lon="-3.218162">
        <ele>5.441</ele>
        <time>2019-06-16T12:25:04Z</time>
      </trkpt>
      <trkpt lat="43.382700" lon="-3.218152">
        <ele>5.551</ele>
        <time>2019-06-16T12:25:06Z</time>
      </trkpt>
      <trkpt lat="43.382636" lon="-3.218134">
        <ele>5.695</ele>
        <time>2019-06-16T12:25:08Z</time>
      </trkpt>
      <trkpt lat="43.382574" lon="-3.218121">
        <ele>5.874</ele>
        <time>2019-06-16T12:25:10Z</time>
      </trkpt>
      <trkpt lat="43.382528" lon="-3.218125">
        <ele>5.984</ele>
        <time>2019-06-16T12:25:12Z</time>
      </trkpt>
      <trkpt lat="43.382482" lon="-3.218160">
        <ele>6.080</ele>
        <time>2019-06-16T12:25:14Z</time>
      </trkpt>
      <trkpt lat="43.382461" lon="-3.218244">
        <ele>6.039</ele>
        <time>2019-06-16T12:25:16Z</time>
      </trkpt>
      <trkpt lat="43.382509" lon="-3.218232">
        <ele>6.031</ele>
        <time>2019-06-16T12:25:32Z</time>
      </trkpt>
      <trkpt lat="43.382551" lon="-3.218272">
        <ele>6.061</ele>
        <time>2019-06-16T12:25:43Z</time>
      </trkpt>
      <trkpt lat="43.382597" lon="-3.218290">
        <ele>5.907</ele>
        <time>2019-06-16T12:25:47Z</time>
      </trkpt>
      <trkpt lat="43.382547" lon="-3.218282">
        <ele>6.008</ele>
        <time>2019-06-16T12:26:02Z</time>
      </trkpt>
      <trkpt lat="43.382502" lon="-3.218270">
        <ele>6.036</ele>
        <time>2019-06-16T13:54:48Z</time>
      </trkpt>
      <trkpt lat="43.382454" lon="-3.218245">
        <ele>6.080</ele>
        <time>2019-06-16T13:57:59Z</time>
      </trkpt>
      <trkpt lat="43.382509" lon="-3.218285">
        <ele>6.020</ele>
        <time>2019-06-16T14:01:36Z</time>
      </trkpt>
      <trkpt lat="43.382522" lon="-3.218360">
        <ele>6.024</ele>
        <time>2019-06-16T14:02:09Z</time>
      </trkpt>
      <trkpt lat="43.382512" lon="-3.218450">
        <ele>6.063</ele>
        <time>2019-06-16T14:02:10Z</time>
      </trkpt>
      <trkpt lat="43.382497" lon="-3.218525">
        <ele>6.053</ele>
        <time>2019-06-16T14:02:11Z</time>
      </trkpt>
      <trkpt lat="43.382484" lon="-3.218597">
        <ele>6.049</ele>
        <time>2019-06-16T14:02:12Z</time>
      </trkpt>
      <trkpt lat="43.382473" lon="-3.218668">
        <ele>6.078</ele>
        <time>2019-06-16T14:02:13Z</time>
      </trkpt>
      <trkpt lat="43.382448" lon="-3.218753">
        <ele>6.077</ele>
        <time>2019-06-16T14:02:14Z</time>
      </trkpt>
      <trkpt lat="43.382445" lon="-3.218815">
        <ele>6.061</ele>
        <time>2019-06-16T14:02:15Z</time>
      </trkpt>
      <trkpt lat="43.382433" lon="-3.218940">
        <ele>6.227</ele>
        <time>2019-06-16T14:02:17Z</time>
      </trkpt>
      <trkpt lat="43.382399" lon="-3.219035">
        <ele>6.508</ele>
        <time>2019-06-16T14:02:18Z</time>
      </trkpt>
      <trkpt lat="43.382358" lon="-3.219125">
        <ele>6.810</ele>
        <time>2019-06-16T14:02:19Z</time>
      </trkpt>
      <trkpt lat="43.382371" lon="-3.219212">
        <ele>7.054</ele>
        <time>2019-06-16T14:02:20Z</time>
      </trkpt>
      <trkpt lat="43.382366" lon="-3.219277">
        <ele>7.034</ele>
        <time>2019-06-16T14:02:21Z</time>
      </trkpt>
      <trkpt lat="43.382345" lon="-3.219401">
        <ele>7.058</ele>
        <time>2019-06-16T14:02:23Z</time>
      </trkpt>
      <trkpt lat="43.382308" lon="-3.219449">
        <ele>7.077</ele>
        <time>2019-06-16T14:02:24Z</time>
      </trkpt>
      <trkpt lat="43.382267" lon="-3.219557">
        <ele>7.067</ele>
        <time>2019-06-16T14:02:26Z</time>
      </trkpt>
      <trkpt lat="43.382239" lon="-3.219635">
        <ele>7.013</ele>
        <time>2019-06-16T14:02:28Z</time>
      </trkpt>
      <trkpt lat="43.382240" lon="-3.219697">
        <ele>7.052</ele>
        <time>2019-06-16T14:02:30Z</time>
      </trkpt>
      <trkpt lat="43.382221" lon="-3.219774">
        <ele>7.244</ele>
        <time>2019-06-16T14:02:32Z</time>
      </trkpt>
      <trkpt lat="43.382195" lon="-3.219837">
        <ele>7.505</ele>
        <time>2019-06-16T14:02:33Z</time>
      </trkpt>
      <trkpt lat="43.382173" lon="-3.219946">
        <ele>8.015</ele>
        <time>2019-06-16T14:02:35Z</time>
      </trkpt>
      <trkpt lat="43.382141" lon="-3.220049">
        <ele>8.308</ele>
        <time>2019-06-16T14:02:37Z</time>
      </trkpt>
      <trkpt lat="43.382112" lon="-3.220140">
        <ele>8.437</ele>
        <time>2019-06-16T14:02:39Z</time>
      </trkpt>
      <trkpt lat="43.382094" lon="-3.220222">
        <ele>8.521</ele>
        <time>2019-06-16T14:02:41Z</time>
      </trkpt>
      <trkpt lat="43.382071" lon="-3.220291">
        <ele>8.651</ele>
        <time>2019-06-16T14:02:43Z</time>
      </trkpt>
      <trkpt lat="43.382040" lon="-3.220354">
        <ele>8.815</ele>
        <time>2019-06-16T14:02:45Z</time>
      </trkpt>
      <trkpt lat="43.382010" lon="-3.220410">
        <ele>8.954</ele>
        <time>2019-06-16T14:02:47Z</time>
      </trkpt>
      <trkpt lat="43.382020" lon="-3.220490">
        <ele>8.994</ele>
        <time>2019-06-16T14:02:51Z</time>
      </trkpt>
      <trkpt lat="43.382049" lon="-3.220578">
        <ele>9.170</ele>
        <time>2019-06-16T14:02:53Z</time>
      </trkpt>
      <trkpt lat="43.382087" lon="-3.220661">
        <ele>9.279</ele>
        <time>2019-06-16T14:02:54Z</time>
      </trkpt>
      <trkpt lat="43.382125" lon="-3.220715">
        <ele>9.286</ele>
        <time>2019-06-16T14:02:55Z</time>
      </trkpt>
      <trkpt lat="43.382184" lon="-3.220758">
        <ele>9.160</ele>
        <time>2019-06-16T14:02:56Z</time>
      </trkpt>
      <trkpt lat="43.382253" lon="-3.220801">
        <ele>8.926</ele>
        <time>2019-06-16T14:02:57Z</time>
      </trkpt>
      <trkpt lat="43.382303" lon="-3.220851">
        <ele>8.708</ele>
        <time>2019-06-16T14:02:58Z</time>
      </trkpt>
      <trkpt lat="43.382349" lon="-3.220893">
        <ele>8.691</ele>
        <time>2019-06-16T14:02:59Z</time>
      </trkpt>
      <trkpt lat="43.382404" lon="-3.220883">
        <ele>8.535</ele>
        <time>2019-06-16T14:03:00Z</time>
      </trkpt>
      <trkpt lat="43.382445" lon="-3.220912">
        <ele>8.435</ele>
        <time>2019-06-16T14:03:01Z</time>
      </trkpt>
      <trkpt lat="43.382406" lon="-3.220879">
        <ele>8.429</ele>
        <time>2019-06-16T14:03:03Z</time>
      </trkpt>
      <trkpt lat="43.382453" lon="-3.220894">
        <ele>8.488</ele>
        <time>2019-06-16T14:03:07Z</time>
      </trkpt>
      <trkpt lat="43.382584" lon="-3.220995">
        <ele>8.388</ele>
        <time>2019-06-16T14:03:09Z</time>
      </trkpt>
      <trkpt lat="43.382685" lon="-3.221028">
        <ele>8.044</ele>
        <time>2019-06-16T14:03:11Z</time>
      </trkpt>
      <trkpt lat="43.382764" lon="-3.221031">
        <ele>7.853</ele>
        <time>2019-06-16T14:03:13Z</time>
      </trkpt>
      <trkpt lat="43.382824" lon="-3.221045">
        <ele>7.658</ele>
        <time>2019-06-16T14:03:15Z</time>
      </trkpt>
      <trkpt lat="43.382871" lon="-3.221039">
        <ele>7.552</ele>
        <time>2019-06-16T14:03:16Z</time>
      </trkpt>
      <trkpt lat="43.382966" lon="-3.221024">
        <ele>7.217</ele>
        <time>2019-06-16T14:03:18Z</time>
      </trkpt>
      <trkpt lat="43.383052" lon="-3.221003">
        <ele>7.008</ele>
        <time>2019-06-16T14:03:20Z</time>
      </trkpt>
      <trkpt lat="43.383100" lon="-3.220990">
        <ele>6.898</ele>
        <time>2019-06-16T14:03:21Z</time>
      </trkpt>
      <trkpt lat="43.383157" lon="-3.220980">
        <ele>6.652</ele>
        <time>2019-06-16T14:03:22Z</time>
      </trkpt>
      <trkpt lat="43.383218" lon="-3.220969">
        <ele>6.492</ele>
        <time>2019-06-16T14:03:23Z</time>
      </trkpt>
      <trkpt lat="43.383270" lon="-3.220961">
        <ele>6.276</ele>
        <time>2019-06-16T14:03:24Z</time>
      </trkpt>
      <trkpt lat="43.383314" lon="-3.220935">
        <ele>6.165</ele>
        <time>2019-06-16T14:03:27Z</time>
      </trkpt>
      <trkpt lat="43.383361" lon="-3.220934">
        <ele>6.095</ele>
        <time>2019-06-16T14:03:29Z</time>
      </trkpt>
      <trkpt lat="43.383438" lon="-3.220941">
        <ele>6.031</ele>
        <time>2019-06-16T14:03:31Z</time>
      </trkpt>
      <trkpt lat="43.383517" lon="-3.220964">
        <ele>6.080</ele>
        <time>2019-06-16T14:03:33Z</time>
      </trkpt>
      <trkpt lat="43.383588" lon="-3.220969">
        <ele>6.042</ele>
        <time>2019-06-16T14:03:35Z</time>
      </trkpt>
      <trkpt lat="43.383650" lon="-3.220960">
        <ele>5.922</ele>
        <time>2019-06-16T14:03:37Z</time>
      </trkpt>
      <trkpt lat="43.383738" lon="-3.220990">
        <ele>5.814</ele>
        <time>2019-06-16T14:03:39Z</time>
      </trkpt>
      <trkpt lat="43.383780" lon="-3.221030">
        <ele>5.808</ele>
        <time>2019-06-16T14:03:40Z</time>
      </trkpt>
      <trkpt lat="43.383814" lon="-3.221091">
        <ele>5.917</ele>
        <time>2019-06-16T14:03:42Z</time>
      </trkpt>
      <trkpt lat="43.383801" lon="-3.221262">
        <ele>6.261</ele>
        <time>2019-06-16T14:03:43Z</time>
      </trkpt>
      <trkpt lat="43.383804" lon="-3.221362">
        <ele>6.321</ele>
        <time>2019-06-16T14:03:44Z</time>
      </trkpt>
      <trkpt lat="43.383809" lon="-3.221470">
        <ele>6.345</ele>
        <time>2019-06-16T14:03:45Z</time>
      </trkpt>
      <trkpt lat="43.383812" lon="-3.221574">
        <ele>6.334</ele>
        <time>2019-06-16T14:03:46Z</time>
      </trkpt>
      <trkpt lat="43.383818" lon="-3.221662">
        <ele>6.364</ele>
        <time>2019-06-16T14:03:47Z</time>
      </trkpt>
      <trkpt lat="43.383820" lon="-3.221760">
        <ele>6.270</ele>
        <time>2019-06-16T14:03:48Z</time>
      </trkpt>
      <trkpt lat="43.383832" lon="-3.221847">
        <ele>6.259</ele>
        <time>2019-06-16T14:03:49Z</time>
      </trkpt>
      <trkpt lat="43.383860" lon="-3.221943">
        <ele>6.187</ele>
        <time>2019-06-16T14:03:50Z</time>
      </trkpt>
      <trkpt lat="43.383864" lon="-3.222043">
        <ele>6.442</ele>
        <time>2019-06-16T14:03:51Z</time>
      </trkpt>
      <trkpt lat="43.383881" lon="-3.222138">
        <ele>6.726</ele>
        <time>2019-06-16T14:03:52Z</time>
      </trkpt>
      <trkpt lat="43.383896" lon="-3.222263">
        <ele>7.008</ele>
        <time>2019-06-16T14:03:53Z</time>
      </trkpt>
      <trkpt lat="43.383902" lon="-3.222416">
        <ele>7.051</ele>
        <time>2019-06-16T14:03:54Z</time>
      </trkpt>
      <trkpt lat="43.383915" lon="-3.222579">
        <ele>7.015</ele>
        <time>2019-06-16T14:03:55Z</time>
      </trkpt>
      <trkpt lat="43.383935" lon="-3.222754">
        <ele>7.215</ele>
        <time>2019-06-16T14:03:56Z</time>
      </trkpt>
      <trkpt lat="43.383946" lon="-3.222921">
        <ele>7.249</ele>
        <time>2019-06-16T14:03:57Z</time>
      </trkpt>
      <trkpt lat="43.383964" lon="-3.223089">
        <ele>7.268</ele>
        <time>2019-06-16T14:03:58Z</time>
      </trkpt>
      <trkpt lat="43.383985" lon="-3.223250">
        <ele>7.198</ele>
        <time>2019-06-16T14:03:59Z</time>
      </trkpt>
      <trkpt lat="43.384003" lon="-3.223404">
        <ele>7.044</ele>
        <time>2019-06-16T14:04:00Z</time>
      </trkpt>
      <trkpt lat="43.384010" lon="-3.223542">
        <ele>7.053</ele>
        <time>2019-06-16T14:04:01Z</time>
      </trkpt>
      <trkpt lat="43.384023" lon="-3.223663">
        <ele>7.144</ele>
        <time>2019-06-16T14:04:02Z</time>
      </trkpt>
      <trkpt lat="43.384052" lon="-3.223765">
        <ele>7.205</ele>
        <time>2019-06-16T14:04:03Z</time>
      </trkpt>
      <trkpt lat="43.384072" lon="-3.223899">
        <ele>7.315</ele>
        <time>2019-06-16T14:04:04Z</time>
      </trkpt>
      <trkpt lat="43.384117" lon="-3.224034">
        <ele>7.208</ele>
        <time>2019-06-16T14:04:05Z</time>
      </trkpt>
      <trkpt lat="43.384154" lon="-3.224165">
        <ele>7.077</ele>
        <time>2019-06-16T14:04:06Z</time>
      </trkpt>
      <trkpt lat="43.384205" lon="-3.224254">
        <ele>7.361</ele>
        <time>2019-06-16T14:04:07Z</time>
      </trkpt>
      <trkpt lat="43.384274" lon="-3.224318">
        <ele>7.371</ele>
        <time>2019-06-16T14:04:08Z</time>
      </trkpt>
      <trkpt lat="43.384334" lon="-3.224406">
        <ele>7.365</ele>
        <time>2019-06-16T14:04:09Z</time>
      </trkpt>
      <trkpt lat="43.384416" lon="-3.224480">
        <ele>7.294</ele>
        <time>2019-06-16T14:04:10Z</time>
      </trkpt>
      <trkpt lat="43.384486" lon="-3.224559">
        <ele>7.444</ele>
        <time>2019-06-16T14:04:11Z</time>
      </trkpt>
      <trkpt lat="43.384542" lon="-3.224651">
        <ele>7.710</ele>
        <time>2019-06-16T14:04:12Z</time>
      </trkpt>
      <trkpt lat="43.384586" lon="-3.224741">
        <ele>8.169</ele>
        <time>2019-06-16T14:04:13Z</time>
      </trkpt>
      <trkpt lat="43.384671" lon="-3.224833">
        <ele>8.246</ele>
        <time>2019-06-16T14:04:14Z</time>
      </trkpt>
      <trkpt lat="43.384735" lon="-3.224921">
        <ele>8.088</ele>
        <time>2019-06-16T14:04:15Z</time>
      </trkpt>
      <trkpt lat="43.384805" lon="-3.225012">
        <ele>8.116</ele>
        <time>2019-06-16T14:04:16Z</time>
      </trkpt>
      <trkpt lat="43.384872" lon="-3.225108">
        <ele>8.508</ele>
        <time>2019-06-16T14:04:17Z</time>
      </trkpt>
      <trkpt lat="43.384940" lon="-3.225203">
        <ele>8.527</ele>
        <time>2019-06-16T14:04:18Z</time>
      </trkpt>
      <trkpt lat="43.385006" lon="-3.225292">
        <ele>8.061</ele>
        <time>2019-06-16T14:04:19Z</time>
      </trkpt>
      <trkpt lat="43.385063" lon="-3.225376">
        <ele>8.151</ele>
        <time>2019-06-16T14:04:20Z</time>
      </trkpt>
      <trkpt lat="43.385130" lon="-3.225445">
        <ele>8.145</ele>
        <time>2019-06-16T14:04:21Z</time>
      </trkpt>
      <trkpt lat="43.385198" lon="-3.225522">
        <ele>8.224</ele>
        <time>2019-06-16T14:04:22Z</time>
      </trkpt>
      <trkpt lat="43.385274" lon="-3.225599">
        <ele>8.034</ele>
        <time>2019-06-16T14:04:23Z</time>
      </trkpt>
      <trkpt lat="43.385351" lon="-3.225694">
        <ele>7.910</ele>
        <time>2019-06-16T14:04:24Z</time>
      </trkpt>
      <trkpt lat="43.385401" lon="-3.225777">
        <ele>7.939</ele>
        <time>2019-06-16T14:04:25Z</time>
      </trkpt>
      <trkpt lat="43.385468" lon="-3.225863">
        <ele>8.054</ele>
        <time>2019-06-16T14:04:26Z</time>
      </trkpt>
      <trkpt lat="43.385530" lon="-3.225946">
        <ele>8.056</ele>
        <time>2019-06-16T14:04:27Z</time>
      </trkpt>
      <trkpt lat="43.385593" lon="-3.226008">
        <ele>8.011</ele>
        <time>2019-06-16T14:04:28Z</time>
      </trkpt>
      <trkpt lat="43.385648" lon="-3.226060">
        <ele>7.908</ele>
        <time>2019-06-16T14:04:29Z</time>
      </trkpt>
      <trkpt lat="43.385705" lon="-3.226108">
        <ele>8.098</ele>
        <time>2019-06-16T14:04:30Z</time>
      </trkpt>
      <trkpt lat="43.385756" lon="-3.226166">
        <ele>8.062</ele>
        <time>2019-06-16T14:04:31Z</time>
      </trkpt>
      <trkpt lat="43.385796" lon="-3.226223">
        <ele>8.062</ele>
        <time>2019-06-16T14:04:32Z</time>
      </trkpt>
      <trkpt lat="43.385835" lon="-3.226264">
        <ele>8.076</ele>
        <time>2019-06-16T14:04:33Z</time>
      </trkpt>
      <trkpt lat="43.385869" lon="-3.226316">
        <ele>8.045</ele>
        <time>2019-06-16T14:04:34Z</time>
      </trkpt>
      <trkpt lat="43.385925" lon="-3.226387">
        <ele>8.025</ele>
        <time>2019-06-16T14:04:36Z</time>
      </trkpt>
      <trkpt lat="43.385978" lon="-3.226434">
        <ele>8.211</ele>
        <time>2019-06-16T14:04:38Z</time>
      </trkpt>
      <trkpt lat="43.386051" lon="-3.226503">
        <ele>8.480</ele>
        <time>2019-06-16T14:04:40Z</time>
      </trkpt>
      <trkpt lat="43.386097" lon="-3.226567">
        <ele>8.621</ele>
        <time>2019-06-16T14:04:41Z</time>
      </trkpt>
      <trkpt lat="43.386155" lon="-3.226657">
        <ele>8.841</ele>
        <time>2019-06-16T14:04:42Z</time>
      </trkpt>
      <trkpt lat="43.386222" lon="-3.226744">
        <ele>8.705</ele>
        <time>2019-06-16T14:04:43Z</time>
      </trkpt>
      <trkpt lat="43.386285" lon="-3.226829">
        <ele>8.708</ele>
        <time>2019-06-16T14:04:44Z</time>
      </trkpt>
      <trkpt lat="43.386367" lon="-3.226921">
        <ele>8.915</ele>
        <time>2019-06-16T14:04:45Z</time>
      </trkpt>
      <trkpt lat="43.386444" lon="-3.227016">
        <ele>9.159</ele>
        <time>2019-06-16T14:04:46Z</time>
      </trkpt>
      <trkpt lat="43.386522" lon="-3.227113">
        <ele>9.349</ele>
        <time>2019-06-16T14:04:47Z</time>
      </trkpt>
      <trkpt lat="43.386606" lon="-3.227194">
        <ele>9.753</ele>
        <time>2019-06-16T14:04:48Z</time>
      </trkpt>
      <trkpt lat="43.386688" lon="-3.227301">
        <ele>10.382</ele>
        <time>2019-06-16T14:04:49Z</time>
      </trkpt>
      <trkpt lat="43.386769" lon="-3.227362">
        <ele>10.562</ele>
        <time>2019-06-16T14:04:50Z</time>
      </trkpt>
      <trkpt lat="43.386846" lon="-3.227462">
        <ele>10.928</ele>
        <time>2019-06-16T14:04:51Z</time>
      </trkpt>
      <trkpt lat="43.386926" lon="-3.227568">
        <ele>11.267</ele>
        <time>2019-06-16T14:04:52Z</time>
      </trkpt>
      <trkpt lat="43.387025" lon="-3.227684">
        <ele>11.824</ele>
        <time>2019-06-16T14:04:53Z</time>
      </trkpt>
      <trkpt lat="43.387122" lon="-3.227793">
        <ele>12.604</ele>
        <time>2019-06-16T14:04:54Z</time>
      </trkpt>
      <trkpt lat="43.387222" lon="-3.227903">
        <ele>13.014</ele>
        <time>2019-06-16T14:04:55Z</time>
      </trkpt>
      <trkpt lat="43.387321" lon="-3.228014">
        <ele>13.108</ele>
        <time>2019-06-16T14:04:56Z</time>
      </trkpt>
      <trkpt lat="43.387407" lon="-3.228144">
        <ele>13.965</ele>
        <time>2019-06-16T14:04:57Z</time>
      </trkpt>
      <trkpt lat="43.387498" lon="-3.228265">
        <ele>14.029</ele>
        <time>2019-06-16T14:04:58Z</time>
      </trkpt>
      <trkpt lat="43.387593" lon="-3.228375">
        <ele>14.439</ele>
        <time>2019-06-16T14:04:59Z</time>
      </trkpt>
      <trkpt lat="43.387683" lon="-3.228488">
        <ele>14.813</ele>
        <time>2019-06-16T14:05:00Z</time>
      </trkpt>
      <trkpt lat="43.387779" lon="-3.228610">
        <ele>15.092</ele>
        <time>2019-06-16T14:05:01Z</time>
      </trkpt>
      <trkpt lat="43.387877" lon="-3.228729">
        <ele>15.952</ele>
        <time>2019-06-16T14:05:02Z</time>
      </trkpt>
      <trkpt lat="43.387962" lon="-3.228835">
        <ele>16.258</ele>
        <time>2019-06-16T14:05:03Z</time>
      </trkpt>
      <trkpt lat="43.388047" lon="-3.228934">
        <ele>16.467</ele>
        <time>2019-06-16T14:05:04Z</time>
      </trkpt>
      <trkpt lat="43.388120" lon="-3.229025">
        <ele>16.958</ele>
        <time>2019-06-16T14:05:05Z</time>
      </trkpt>
      <trkpt lat="43.388180" lon="-3.229116">
        <ele>17.352</ele>
        <time>2019-06-16T14:05:06Z</time>
      </trkpt>
      <trkpt lat="43.388242" lon="-3.229179">
        <ele>17.417</ele>
        <time>2019-06-16T14:05:07Z</time>
      </trkpt>
      <trkpt lat="43.388305" lon="-3.229251">
        <ele>17.708</ele>
        <time>2019-06-16T14:05:08Z</time>
      </trkpt>
      <trkpt lat="43.388366" lon="-3.229335">
        <ele>18.178</ele>
        <time>2019-06-16T14:05:09Z</time>
      </trkpt>
      <trkpt lat="43.388435" lon="-3.229429">
        <ele>18.552</ele>
        <time>2019-06-16T14:05:10Z</time>
      </trkpt>
      <trkpt lat="43.388517" lon="-3.229526">
        <ele>18.632</ele>
        <time>2019-06-16T14:05:11Z</time>
      </trkpt>
      <trkpt lat="43.388597" lon="-3.229625">
        <ele>18.716</ele>
        <time>2019-06-16T14:05:12Z</time>
      </trkpt>
      <trkpt lat="43.388678" lon="-3.229728">
        <ele>18.885</ele>
        <time>2019-06-16T14:05:13Z</time>
      </trkpt>
      <trkpt lat="43.388772" lon="-3.229805">
        <ele>18.995</ele>
        <time>2019-06-16T14:05:14Z</time>
      </trkpt>
      <trkpt lat="43.388853" lon="-3.229904">
        <ele>19.481</ele>
        <time>2019-06-16T14:05:15Z</time>
      </trkpt>
      <trkpt lat="43.388958" lon="-3.230000">
        <ele>19.820</ele>
        <time>2019-06-16T14:05:16Z</time>
      </trkpt>
      <trkpt lat="43.389085" lon="-3.230082">
        <ele>19.972</ele>
        <time>2019-06-16T14:05:17Z</time>
      </trkpt>
      <trkpt lat="43.389213" lon="-3.230178">
        <ele>20.113</ele>
        <time>2019-06-16T14:05:18Z</time>
      </trkpt>
      <trkpt lat="43.389339" lon="-3.230274">
        <ele>20.314</ele>
        <time>2019-06-16T14:05:19Z</time>
      </trkpt>
      <trkpt lat="43.389473" lon="-3.230362">
        <ele>21.108</ele>
        <time>2019-06-16T14:05:20Z</time>
      </trkpt>
      <trkpt lat="43.389602" lon="-3.230469">
        <ele>22.470</ele>
        <time>2019-06-16T14:05:21Z</time>
      </trkpt>
      <trkpt lat="43.389728" lon="-3.230571">
        <ele>24.244</ele>
        <time>2019-06-16T14:05:22Z</time>
      </trkpt>
      <trkpt lat="43.389859" lon="-3.230669">
        <ele>25.034</ele>
        <time>2019-06-16T14:05:23Z</time>
      </trkpt>
      <trkpt lat="43.389986" lon="-3.230762">
        <ele>25.548</ele>
        <time>2019-06-16T14:05:24Z</time>
      </trkpt>
      <trkpt lat="43.390106" lon="-3.230848">
        <ele>27.167</ele>
        <time>2019-06-16T14:05:25Z</time>
      </trkpt>
      <trkpt lat="43.390225" lon="-3.230934">
        <ele>28.147</ele>
        <time>2019-06-16T14:05:26Z</time>
      </trkpt>
      <trkpt lat="43.390348" lon="-3.231024">
        <ele>29.853</ele>
        <time>2019-06-16T14:05:27Z</time>
      </trkpt>
      <trkpt lat="43.390474" lon="-3.231118">
        <ele>30.822</ele>
        <time>2019-06-16T14:05:28Z</time>
      </trkpt>
      <trkpt lat="43.390600" lon="-3.231198">
        <ele>31.546</ele>
        <time>2019-06-16T14:05:29Z</time>
      </trkpt>
      <trkpt lat="43.390728" lon="-3.231279">
        <ele>32.088</ele>
        <time>2019-06-16T14:05:30Z</time>
      </trkpt>
      <trkpt lat="43.390852" lon="-3.231343">
        <ele>32.716</ele>
        <time>2019-06-16T14:05:31Z</time>
      </trkpt>
      <trkpt lat="43.390978" lon="-3.231403">
        <ele>33.008</ele>
        <time>2019-06-16T14:05:32Z</time>
      </trkpt>
      <trkpt lat="43.391102" lon="-3.231453">
        <ele>33.997</ele>
        <time>2019-06-16T14:05:33Z</time>
      </trkpt>
      <trkpt lat="43.391232" lon="-3.231478">
        <ele>34.951</ele>
        <time>2019-06-16T14:05:34Z</time>
      </trkpt>
      <trkpt lat="43.391358" lon="-3.231490">
        <ele>35.811</ele>
        <time>2019-06-16T14:05:35Z</time>
      </trkpt>
      <trkpt lat="43.391495" lon="-3.231494">
        <ele>36.825</ele>
        <time>2019-06-16T14:05:36Z</time>
      </trkpt>
      <trkpt lat="43.391639" lon="-3.231506">
        <ele>37.844</ele>
        <time>2019-06-16T14:05:37Z</time>
      </trkpt>
      <trkpt lat="43.391788" lon="-3.231506">
        <ele>39.234</ele>
        <time>2019-06-16T14:05:38Z</time>
      </trkpt>
      <trkpt lat="43.391938" lon="-3.231503">
        <ele>40.870</ele>
        <time>2019-06-16T14:05:39Z</time>
      </trkpt>
      <trkpt lat="43.392111" lon="-3.231498">
        <ele>41.129</ele>
        <time>2019-06-16T14:05:40Z</time>
      </trkpt>
      <trkpt lat="43.392266" lon="-3.231525">
        <ele>41.697</ele>
        <time>2019-06-16T14:05:41Z</time>
      </trkpt>
      <trkpt lat="43.392433" lon="-3.231547">
        <ele>42.323</ele>
        <time>2019-06-16T14:05:42Z</time>
      </trkpt>
      <trkpt lat="43.392585" lon="-3.231591">
        <ele>43.225</ele>
        <time>2019-06-16T14:05:43Z</time>
      </trkpt>
      <trkpt lat="43.392719" lon="-3.231678">
        <ele>43.808</ele>
        <time>2019-06-16T14:05:44Z</time>
      </trkpt>
      <trkpt lat="43.392851" lon="-3.231764">
        <ele>44.212</ele>
        <time>2019-06-16T14:05:45Z</time>
      </trkpt>
      <trkpt lat="43.392989" lon="-3.231858">
        <ele>44.896</ele>
        <time>2019-06-16T14:05:46Z</time>
      </trkpt>
      <trkpt lat="43.393112" lon="-3.231981">
        <ele>45.076</ele>
        <time>2019-06-16T14:05:47Z</time>
      </trkpt>
      <trkpt lat="43.393230" lon="-3.232098">
        <ele>45.260</ele>
        <time>2019-06-16T14:05:48Z</time>
      </trkpt>
      <trkpt lat="43.393345" lon="-3.232230">
        <ele>46.029</ele>
        <time>2019-06-16T14:05:49Z</time>
      </trkpt>
      <trkpt lat="43.393455" lon="-3.232362">
        <ele>46.469</ele>
        <time>2019-06-16T14:05:50Z</time>
      </trkpt>
      <trkpt lat="43.393560" lon="-3.232491">
        <ele>47.475</ele>
        <time>2019-06-16T14:05:51Z</time>
      </trkpt>
      <trkpt lat="43.393661" lon="-3.232619">
        <ele>47.824</ele>
        <time>2019-06-16T14:05:52Z</time>
      </trkpt>
      <trkpt lat="43.393760" lon="-3.232748">
        <ele>48.114</ele>
        <time>2019-06-16T14:05:53Z</time>
      </trkpt>
      <trkpt lat="43.393854" lon="-3.232875">
        <ele>48.854</ele>
        <time>2019-06-16T14:05:54Z</time>
      </trkpt>
      <trkpt lat="43.393944" lon="-3.233000">
        <ele>49.209</ele>
        <time>2019-06-16T14:05:55Z</time>
      </trkpt>
      <trkpt lat="43.394027" lon="-3.233111">
        <ele>49.508</ele>
        <time>2019-06-16T14:05:56Z</time>
      </trkpt>
      <trkpt lat="43.394104" lon="-3.233222">
        <ele>49.844</ele>
        <time>2019-06-16T14:05:57Z</time>
      </trkpt>
      <trkpt lat="43.394184" lon="-3.233348">
        <ele>49.978</ele>
        <time>2019-06-16T14:05:58Z</time>
      </trkpt>
      <trkpt lat="43.394268" lon="-3.233466">
        <ele>49.588</ele>
        <time>2019-06-16T14:05:59Z</time>
      </trkpt>
      <trkpt lat="43.394351" lon="-3.233593">
        <ele>49.632</ele>
        <time>2019-06-16T14:06:00Z</time>
      </trkpt>
      <trkpt lat="43.394446" lon="-3.233741">
        <ele>50.041</ele>
        <time>2019-06-16T14:06:01Z</time>
      </trkpt>
      <trkpt lat="43.394537" lon="-3.233898">
        <ele>49.791</ele>
        <time>2019-06-16T14:06:02Z</time>
      </trkpt>
      <trkpt lat="43.394635" lon="-3.234066">
        <ele>49.667</ele>
        <time>2019-06-16T14:06:03Z</time>
      </trkpt>
      <trkpt lat="43.394734" lon="-3.234259">
        <ele>49.926</ele>
        <time>2019-06-16T14:06:04Z</time>
      </trkpt>
      <trkpt lat="43.394827" lon="-3.234474">
        <ele>49.266</ele>
        <time>2019-06-16T14:06:05Z</time>
      </trkpt>
      <trkpt lat="43.394919" lon="-3.234696">
        <ele>48.729</ele>
        <time>2019-06-16T14:06:06Z</time>
      </trkpt>
      <trkpt lat="43.395014" lon="-3.234934">
        <ele>48.821</ele>
        <time>2019-06-16T14:06:07Z</time>
      </trkpt>
      <trkpt lat="43.395116" lon="-3.235171">
        <ele>47.308</ele>
        <time>2019-06-16T14:06:08Z</time>
      </trkpt>
      <trkpt lat="43.395223" lon="-3.235411">
        <ele>47.339</ele>
        <time>2019-06-16T14:06:09Z</time>
      </trkpt>
      <trkpt lat="43.395335" lon="-3.235655">
        <ele>47.073</ele>
        <time>2019-06-16T14:06:10Z</time>
      </trkpt>
      <trkpt lat="43.395436" lon="-3.235893">
        <ele>46.373</ele>
        <time>2019-06-16T14:06:11Z</time>
      </trkpt>
      <trkpt lat="43.395544" lon="-3.236123">
        <ele>46.097</ele>
        <time>2019-06-16T14:06:12Z</time>
      </trkpt>
      <trkpt lat="43.395650" lon="-3.236339">
        <ele>45.996</ele>
        <time>2019-06-16T14:06:13Z</time>
      </trkpt>
      <trkpt lat="43.395769" lon="-3.236537">
        <ele>45.476</ele>
        <time>2019-06-16T14:06:14Z</time>
      </trkpt>
      <trkpt lat="43.395912" lon="-3.236712">
        <ele>45.282</ele>
        <time>2019-06-16T14:06:15Z</time>
      </trkpt>
      <trkpt lat="43.396036" lon="-3.236912">
        <ele>45.161</ele>
        <time>2019-06-16T14:06:16Z</time>
      </trkpt>
      <trkpt lat="43.396148" lon="-3.237131">
        <ele>44.894</ele>
        <time>2019-06-16T14:06:17Z</time>
      </trkpt>
      <trkpt lat="43.396253" lon="-3.237376">
        <ele>44.257</ele>
        <time>2019-06-16T14:06:18Z</time>
      </trkpt>
      <trkpt lat="43.396363" lon="-3.237648">
        <ele>44.022</ele>
        <time>2019-06-16T14:06:19Z</time>
      </trkpt>
      <trkpt lat="43.396469" lon="-3.237922">
        <ele>43.808</ele>
        <time>2019-06-16T14:06:20Z</time>
      </trkpt>
      <trkpt lat="43.396556" lon="-3.238210">
        <ele>43.642</ele>
        <time>2019-06-16T14:06:21Z</time>
      </trkpt>
      <trkpt lat="43.396642" lon="-3.238508">
        <ele>43.256</ele>
        <time>2019-06-16T14:06:22Z</time>
      </trkpt>
      <trkpt lat="43.396733" lon="-3.238800">
        <ele>42.056</ele>
        <time>2019-06-16T14:06:23Z</time>
      </trkpt>
      <trkpt lat="43.396824" lon="-3.239098">
        <ele>41.730</ele>
        <time>2019-06-16T14:06:24Z</time>
      </trkpt>
      <trkpt lat="43.396916" lon="-3.239391">
        <ele>41.199</ele>
        <time>2019-06-16T14:06:25Z</time>
      </trkpt>
      <trkpt lat="43.396997" lon="-3.239693">
        <ele>40.789</ele>
        <time>2019-06-16T14:06:26Z</time>
      </trkpt>
      <trkpt lat="43.397080" lon="-3.239992">
        <ele>40.545</ele>
        <time>2019-06-16T14:06:27Z</time>
      </trkpt>
      <trkpt lat="43.397180" lon="-3.240292">
        <ele>39.814</ele>
        <time>2019-06-16T14:06:28Z</time>
      </trkpt>
      <trkpt lat="43.397265" lon="-3.240578">
        <ele>37.736</ele>
        <time>2019-06-16T14:06:29Z</time>
      </trkpt>
      <trkpt lat="43.397349" lon="-3.240866">
        <ele>33.817</ele>
        <time>2019-06-16T14:06:30Z</time>
      </trkpt>
      <trkpt lat="43.397428" lon="-3.241149">
        <ele>34.918</ele>
        <time>2019-06-16T14:06:31Z</time>
      </trkpt>
      <trkpt lat="43.397499" lon="-3.241433">
        <ele>37.208</ele>
        <time>2019-06-16T14:06:32Z</time>
      </trkpt>
      <trkpt lat="43.397566" lon="-3.241714">
        <ele>34.876</ele>
        <time>2019-06-16T14:06:33Z</time>
      </trkpt>
      <trkpt lat="43.397629" lon="-3.242003">
        <ele>36.640</ele>
        <time>2019-06-16T14:06:34Z</time>
      </trkpt>
      <trkpt lat="43.397694" lon="-3.242300">
        <ele>38.160</ele>
        <time>2019-06-16T14:06:35Z</time>
      </trkpt>
      <trkpt lat="43.397723" lon="-3.242611">
        <ele>39.224</ele>
        <time>2019-06-16T14:06:36Z</time>
      </trkpt>
      <trkpt lat="43.397751" lon="-3.242925">
        <ele>38.633</ele>
        <time>2019-06-16T14:06:37Z</time>
      </trkpt>
      <trkpt lat="43.397784" lon="-3.243253">
        <ele>38.443</ele>
        <time>2019-06-16T14:06:38Z</time>
      </trkpt>
      <trkpt lat="43.397803" lon="-3.243571">
        <ele>37.679</ele>
        <time>2019-06-16T14:06:39Z</time>
      </trkpt>
      <trkpt lat="43.397816" lon="-3.243893">
        <ele>37.568</ele>
        <time>2019-06-16T14:06:40Z</time>
      </trkpt>
      <trkpt lat="43.397832" lon="-3.244213">
        <ele>38.175</ele>
        <time>2019-06-16T14:06:41Z</time>
      </trkpt>
      <trkpt lat="43.397850" lon="-3.244529">
        <ele>37.628</ele>
        <time>2019-06-16T14:06:42Z</time>
      </trkpt>
      <trkpt lat="43.397865" lon="-3.244852">
        <ele>38.420</ele>
        <time>2019-06-16T14:06:43Z</time>
      </trkpt>
      <trkpt lat="43.397887" lon="-3.245158">
        <ele>38.408</ele>
        <time>2019-06-16T14:06:44Z</time>
      </trkpt>
      <trkpt lat="43.397908" lon="-3.245480">
        <ele>37.870</ele>
        <time>2019-06-16T14:06:45Z</time>
      </trkpt>
      <trkpt lat="43.397928" lon="-3.245799">
        <ele>37.364</ele>
        <time>2019-06-16T14:06:46Z</time>
      </trkpt>
      <trkpt lat="43.397955" lon="-3.246108">
        <ele>36.594</ele>
        <time>2019-06-16T14:06:47Z</time>
      </trkpt>
      <trkpt lat="43.398004" lon="-3.246439">
        <ele>32.488</ele>
        <time>2019-06-16T14:06:48Z</time>
      </trkpt>
      <trkpt lat="43.398039" lon="-3.246760">
        <ele>31.447</ele>
        <time>2019-06-16T14:06:49Z</time>
      </trkpt>
      <trkpt lat="43.398088" lon="-3.247083">
        <ele>35.987</ele>
        <time>2019-06-16T14:06:50Z</time>
      </trkpt>
      <trkpt lat="43.398144" lon="-3.247386">
        <ele>36.293</ele>
        <time>2019-06-16T14:06:51Z</time>
      </trkpt>
      <trkpt lat="43.398204" lon="-3.247704">
        <ele>37.752</ele>
        <time>2019-06-16T14:06:52Z</time>
      </trkpt>
      <trkpt lat="43.398250" lon="-3.248018">
        <ele>39.015</ele>
        <time>2019-06-16T14:06:53Z</time>
      </trkpt>
      <trkpt lat="43.398302" lon="-3.248336">
        <ele>39.665</ele>
        <time>2019-06-16T14:06:54Z</time>
      </trkpt>
      <trkpt lat="43.398360" lon="-3.248661">
        <ele>39.611</ele>
        <time>2019-06-16T14:06:55Z</time>
      </trkpt>
      <trkpt lat="43.398434" lon="-3.248981">
        <ele>42.408</ele>
        <time>2019-06-16T14:06:56Z</time>
      </trkpt>
      <trkpt lat="43.398499" lon="-3.249295">
        <ele>44.654</ele>
        <time>2019-06-16T14:06:57Z</time>
      </trkpt>
      <trkpt lat="43.398578" lon="-3.249595">
        <ele>45.728</ele>
        <time>2019-06-16T14:06:58Z</time>
      </trkpt>
      <trkpt lat="43.398660" lon="-3.249897">
        <ele>46.938</ele>
        <time>2019-06-16T14:06:59Z</time>
      </trkpt>
      <trkpt lat="43.398745" lon="-3.250190">
        <ele>49.062</ele>
        <time>2019-06-16T14:07:00Z</time>
      </trkpt>
      <trkpt lat="43.398857" lon="-3.250458">
        <ele>50.081</ele>
        <time>2019-06-16T14:07:01Z</time>
      </trkpt>
      <trkpt lat="43.398970" lon="-3.250729">
        <ele>50.441</ele>
        <time>2019-06-16T14:07:02Z</time>
      </trkpt>
      <trkpt lat="43.399076" lon="-3.251006">
        <ele>51.527</ele>
        <time>2019-06-16T14:07:03Z</time>
      </trkpt>
      <trkpt lat="43.399167" lon="-3.251274">
        <ele>52.026</ele>
        <time>2019-06-16T14:07:04Z</time>
      </trkpt>
      <trkpt lat="43.399291" lon="-3.251563">
        <ele>51.888</ele>
        <time>2019-06-16T14:07:05Z</time>
      </trkpt>
      <trkpt lat="43.399382" lon="-3.251842">
        <ele>52.524</ele>
        <time>2019-06-16T14:07:06Z</time>
      </trkpt>
      <trkpt lat="43.399464" lon="-3.252117">
        <ele>52.926</ele>
        <time>2019-06-16T14:07:07Z</time>
      </trkpt>
      <trkpt lat="43.399550" lon="-3.252411">
        <ele>52.908</ele>
        <time>2019-06-16T14:07:08Z</time>
      </trkpt>
      <trkpt lat="43.399627" lon="-3.252700">
        <ele>53.551</ele>
        <time>2019-06-16T14:07:09Z</time>
      </trkpt>
      <trkpt lat="43.399706" lon="-3.252980">
        <ele>53.975</ele>
        <time>2019-06-16T14:07:10Z</time>
      </trkpt>
      <trkpt lat="43.399782" lon="-3.253268">
        <ele>54.115</ele>
        <time>2019-06-16T14:07:11Z</time>
      </trkpt>
      <trkpt lat="43.399879" lon="-3.253561">
        <ele>54.269</ele>
        <time>2019-06-16T14:07:12Z</time>
      </trkpt>
      <trkpt lat="43.399946" lon="-3.253846">
        <ele>55.098</ele>
        <time>2019-06-16T14:07:13Z</time>
      </trkpt>
      <trkpt lat="43.400023" lon="-3.254135">
        <ele>54.728</ele>
        <time>2019-06-16T14:07:14Z</time>
      </trkpt>
      <trkpt lat="43.400067" lon="-3.254433">
        <ele>55.064</ele>
        <time>2019-06-16T14:07:15Z</time>
      </trkpt>
      <trkpt lat="43.400118" lon="-3.254731">
        <ele>54.763</ele>
        <time>2019-06-16T14:07:16Z</time>
      </trkpt>
      <trkpt lat="43.400166" lon="-3.255035">
        <ele>53.763</ele>
        <time>2019-06-16T14:07:17Z</time>
      </trkpt>
      <trkpt lat="43.400197" lon="-3.255354">
        <ele>52.744</ele>
        <time>2019-06-16T14:07:18Z</time>
      </trkpt>
      <trkpt lat="43.400205" lon="-3.255680">
        <ele>52.318</ele>
        <time>2019-06-16T14:07:19Z</time>
      </trkpt>
      <trkpt lat="43.400229" lon="-3.256001">
        <ele>51.508</ele>
        <time>2019-06-16T14:07:20Z</time>
      </trkpt>
      <trkpt lat="43.400260" lon="-3.256325">
        <ele>50.439</ele>
        <time>2019-06-16T14:07:21Z</time>
      </trkpt>
      <trkpt lat="43.400283" lon="-3.256669">
        <ele>48.923</ele>
        <time>2019-06-16T14:07:22Z</time>
      </trkpt>
      <trkpt lat="43.400305" lon="-3.257030">
        <ele>49.113</ele>
        <time>2019-06-16T14:07:23Z</time>
      </trkpt>
      <trkpt lat="43.400330" lon="-3.257378">
        <ele>48.427</ele>
        <time>2019-06-16T14:07:24Z</time>
      </trkpt>
      <trkpt lat="43.400354" lon="-3.257754">
        <ele>48.746</ele>
        <time>2019-06-16T14:07:25Z</time>
      </trkpt>
      <trkpt lat="43.400381" lon="-3.258120">
        <ele>48.936</ele>
        <time>2019-06-16T14:07:26Z</time>
      </trkpt>
      <trkpt lat="43.400403" lon="-3.258499">
        <ele>48.222</ele>
        <time>2019-06-16T14:07:27Z</time>
      </trkpt>
      <trkpt lat="43.400424" lon="-3.258879">
        <ele>47.681</ele>
        <time>2019-06-16T14:07:28Z</time>
      </trkpt>
      <trkpt lat="43.400442" lon="-3.259263">
        <ele>46.743</ele>
        <time>2019-06-16T14:07:29Z</time>
      </trkpt>
      <trkpt lat="43.400450" lon="-3.259655">
        <ele>47.164</ele>
        <time>2019-06-16T14:07:30Z</time>
      </trkpt>
      <trkpt lat="43.400473" lon="-3.260047">
        <ele>44.310</ele>
        <time>2019-06-16T14:07:31Z</time>
      </trkpt>
      <trkpt lat="43.400478" lon="-3.260430">
        <ele>43.508</ele>
        <time>2019-06-16T14:07:32Z</time>
      </trkpt>
      <trkpt lat="43.400503" lon="-3.260815">
        <ele>40.977</ele>
        <time>2019-06-16T14:07:33Z</time>
      </trkpt>
      <trkpt lat="43.400523" lon="-3.261202">
        <ele>37.891</ele>
        <time>2019-06-16T14:07:34Z</time>
      </trkpt>
      <trkpt lat="43.400552" lon="-3.261586">
        <ele>34.621</ele>
        <time>2019-06-16T14:07:35Z</time>
      </trkpt>
      <trkpt lat="43.400574" lon="-3.261980">
        <ele>32.955</ele>
        <time>2019-06-16T14:07:36Z</time>
      </trkpt>
      <trkpt lat="43.400606" lon="-3.262361">
        <ele>30.354</ele>
        <time>2019-06-16T14:07:37Z</time>
      </trkpt>
      <trkpt lat="43.400636" lon="-3.262757">
        <ele>27.394</ele>
        <time>2019-06-16T14:07:38Z</time>
      </trkpt>
      <trkpt lat="43.400664" lon="-3.263146">
        <ele>26.270</ele>
        <time>2019-06-16T14:07:39Z</time>
      </trkpt>
      <trkpt lat="43.400698" lon="-3.263493">
        <ele>27.189</ele>
        <time>2019-06-16T14:07:40Z</time>
      </trkpt>
      <trkpt lat="43.400719" lon="-3.263881">
        <ele>30.417</ele>
        <time>2019-06-16T14:07:41Z</time>
      </trkpt>
      <trkpt lat="43.400749" lon="-3.264242">
        <ele>31.487</ele>
        <time>2019-06-16T14:07:42Z</time>
      </trkpt>
      <trkpt lat="43.400781" lon="-3.264602">
        <ele>32.115</ele>
        <time>2019-06-16T14:07:43Z</time>
      </trkpt>
      <trkpt lat="43.400805" lon="-3.264953">
        <ele>32.908</ele>
        <time>2019-06-16T14:07:44Z</time>
      </trkpt>
      <trkpt lat="43.400824" lon="-3.265304">
        <ele>34.584</ele>
        <time>2019-06-16T14:07:45Z</time>
      </trkpt>
      <trkpt lat="43.400833" lon="-3.265659">
        <ele>36.018</ele>
        <time>2019-06-16T14:07:46Z</time>
      </trkpt>
      <trkpt lat="43.400822" lon="-3.265999">
        <ele>37.028</ele>
        <time>2019-06-16T14:07:47Z</time>
      </trkpt>
      <trkpt lat="43.400798" lon="-3.266337">
        <ele>38.582</ele>
        <time>2019-06-16T14:07:48Z</time>
      </trkpt>
      <trkpt lat="43.400750" lon="-3.266671">
        <ele>39.231</ele>
        <time>2019-06-16T14:07:49Z</time>
      </trkpt>
      <trkpt lat="43.400648" lon="-3.266980">
        <ele>38.681</ele>
        <time>2019-06-16T14:07:50Z</time>
      </trkpt>
      <trkpt lat="43.400494" lon="-3.267251">
        <ele>40.697</ele>
        <time>2019-06-16T14:07:51Z</time>
      </trkpt>
      <trkpt lat="43.400367" lon="-3.267539">
        <ele>40.956</ele>
        <time>2019-06-16T14:07:52Z</time>
      </trkpt>
      <trkpt lat="43.400244" lon="-3.267821">
        <ele>42.227</ele>
        <time>2019-06-16T14:07:53Z</time>
      </trkpt>
      <trkpt lat="43.400116" lon="-3.268098">
        <ele>43.868</ele>
        <time>2019-06-16T14:07:54Z</time>
      </trkpt>
      <trkpt lat="43.399982" lon="-3.268370">
        <ele>45.314</ele>
        <time>2019-06-16T14:07:55Z</time>
      </trkpt>
      <trkpt lat="43.399858" lon="-3.268643">
        <ele>46.308</ele>
        <time>2019-06-16T14:07:56Z</time>
      </trkpt>
      <trkpt lat="43.399726" lon="-3.268910">
        <ele>46.825</ele>
        <time>2019-06-16T14:07:57Z</time>
      </trkpt>
      <trkpt lat="43.399598" lon="-3.269180">
        <ele>47.659</ele>
        <time>2019-06-16T14:07:58Z</time>
      </trkpt>
      <trkpt lat="43.399477" lon="-3.269446">
        <ele>49.269</ele>
        <time>2019-06-16T14:07:59Z</time>
      </trkpt>
      <trkpt lat="43.399356" lon="-3.269699">
        <ele>50.363</ele>
        <time>2019-06-16T14:08:00Z</time>
      </trkpt>
      <trkpt lat="43.399238" lon="-3.269948">
        <ele>51.672</ele>
        <time>2019-06-16T14:08:01Z</time>
      </trkpt>
      <trkpt lat="43.399135" lon="-3.270177">
        <ele>53.512</ele>
        <time>2019-06-16T14:08:02Z</time>
      </trkpt>
      <trkpt lat="43.399021" lon="-3.270409">
        <ele>54.268</ele>
        <time>2019-06-16T14:08:03Z</time>
      </trkpt>
      <trkpt lat="43.398903" lon="-3.270631">
        <ele>55.427</ele>
        <time>2019-06-16T14:08:04Z</time>
      </trkpt>
      <trkpt lat="43.398805" lon="-3.270860">
        <ele>56.311</ele>
        <time>2019-06-16T14:08:05Z</time>
      </trkpt>
      <trkpt lat="43.398707" lon="-3.271127">
        <ele>56.921</ele>
        <time>2019-06-16T14:08:06Z</time>
      </trkpt>
      <trkpt lat="43.398613" lon="-3.271373">
        <ele>58.903</ele>
        <time>2019-06-16T14:08:07Z</time>
      </trkpt>
      <trkpt lat="43.398537" lon="-3.271684">
        <ele>58.208</ele>
        <time>2019-06-16T14:08:08Z</time>
      </trkpt>
      <trkpt lat="43.398484" lon="-3.271954">
        <ele>57.774</ele>
        <time>2019-06-16T14:08:09Z</time>
      </trkpt>
      <trkpt lat="43.398425" lon="-3.272249">
        <ele>58.678</ele>
        <time>2019-06-16T14:08:10Z</time>
      </trkpt>
      <trkpt lat="43.398376" lon="-3.272547">
        <ele>59.668</ele>
        <time>2019-06-16T14:08:11Z</time>
      </trkpt>
      <trkpt lat="43.398334" lon="-3.272865">
        <ele>60.762</ele>
        <time>2019-06-16T14:08:12Z</time>
      </trkpt>
      <trkpt lat="43.398304" lon="-3.273182">
        <ele>60.731</ele>
        <time>2019-06-16T14:08:13Z</time>
      </trkpt>
      <trkpt lat="43.398294" lon="-3.273485">
        <ele>60.511</ele>
        <time>2019-06-16T14:08:14Z</time>
      </trkpt>
      <trkpt lat="43.398283" lon="-3.273803">
        <ele>61.057</ele>
        <time>2019-06-16T14:08:15Z</time>
      </trkpt>
      <trkpt lat="43.398286" lon="-3.274141">
        <ele>61.036</ele>
        <time>2019-06-16T14:08:16Z</time>
      </trkpt>
      <trkpt lat="43.398282" lon="-3.274504">
        <ele>61.544</ele>
        <time>2019-06-16T14:08:17Z</time>
      </trkpt>
      <trkpt lat="43.398297" lon="-3.274823">
        <ele>62.105</ele>
        <time>2019-06-16T14:08:18Z</time>
      </trkpt>
      <trkpt lat="43.398317" lon="-3.275145">
        <ele>63.315</ele>
        <time>2019-06-16T14:08:19Z</time>
      </trkpt>
      <trkpt lat="43.398328" lon="-3.275474">
        <ele>64.108</ele>
        <time>2019-06-16T14:08:20Z</time>
      </trkpt>
      <trkpt lat="43.398350" lon="-3.275787">
        <ele>63.667</ele>
        <time>2019-06-16T14:08:21Z</time>
      </trkpt>
      <trkpt lat="43.398371" lon="-3.276096">
        <ele>63.931</ele>
        <time>2019-06-16T14:08:22Z</time>
      </trkpt>
      <trkpt lat="43.398404" lon="-3.276407">
        <ele>64.061</ele>
        <time>2019-06-16T14:08:23Z</time>
      </trkpt>
      <trkpt lat="43.398438" lon="-3.276716">
        <ele>65.195</ele>
        <time>2019-06-16T14:08:24Z</time>
      </trkpt>
      <trkpt lat="43.398505" lon="-3.277026">
        <ele>65.644</ele>
        <time>2019-06-16T14:08:25Z</time>
      </trkpt>
      <trkpt lat="43.398567" lon="-3.277323">
        <ele>66.014</ele>
        <time>2019-06-16T14:08:26Z</time>
      </trkpt>
      <trkpt lat="43.398648" lon="-3.277624">
        <ele>67.040</ele>
        <time>2019-06-16T14:08:27Z</time>
      </trkpt>
      <trkpt lat="43.398748" lon="-3.277893">
        <ele>69.899</ele>
        <time>2019-06-16T14:08:28Z</time>
      </trkpt>
      <trkpt lat="43.398847" lon="-3.278175">
        <ele>69.366</ele>
        <time>2019-06-16T14:08:29Z</time>
      </trkpt>
      <trkpt lat="43.398947" lon="-3.278453">
        <ele>67.329</ele>
        <time>2019-06-16T14:08:30Z</time>
      </trkpt>
      <trkpt lat="43.399084" lon="-3.278720">
        <ele>67.121</ele>
        <time>2019-06-16T14:08:31Z</time>
      </trkpt>
      <trkpt lat="43.399245" lon="-3.278971">
        <ele>67.208</ele>
        <time>2019-06-16T14:08:32Z</time>
      </trkpt>
      <trkpt lat="43.399402" lon="-3.279244">
        <ele>66.679</ele>
        <time>2019-06-16T14:08:33Z</time>
      </trkpt>
      <trkpt lat="43.399551" lon="-3.279485">
        <ele>66.223</ele>
        <time>2019-06-16T14:08:34Z</time>
      </trkpt>
      <trkpt lat="43.399700" lon="-3.279724">
        <ele>65.963</ele>
        <time>2019-06-16T14:08:35Z</time>
      </trkpt>
      <trkpt lat="43.399862" lon="-3.279975">
        <ele>66.127</ele>
        <time>2019-06-16T14:08:36Z</time>
      </trkpt>
      <trkpt lat="43.400010" lon="-3.280222">
        <ele>65.526</ele>
        <time>2019-06-16T14:08:37Z</time>
      </trkpt>
      <trkpt lat="43.400157" lon="-3.280485">
        <ele>66.956</ele>
        <time>2019-06-16T14:08:38Z</time>
      </trkpt>
      <trkpt lat="43.400300" lon="-3.280758">
        <ele>66.792</ele>
        <time>2019-06-16T14:08:39Z</time>
      </trkpt>
      <trkpt lat="43.400433" lon="-3.281046">
        <ele>67.631</ele>
        <time>2019-06-16T14:08:40Z</time>
      </trkpt>
      <trkpt lat="43.400558" lon="-3.281339">
        <ele>65.879</ele>
        <time>2019-06-16T14:08:41Z</time>
      </trkpt>
      <trkpt lat="43.400668" lon="-3.281630">
        <ele>65.905</ele>
        <time>2019-06-16T14:08:42Z</time>
      </trkpt>
      <trkpt lat="43.400784" lon="-3.281928">
        <ele>65.625</ele>
        <time>2019-06-16T14:08:43Z</time>
      </trkpt>
      <trkpt lat="43.400874" lon="-3.282246">
        <ele>64.208</ele>
        <time>2019-06-16T14:08:44Z</time>
      </trkpt>
      <trkpt lat="43.400973" lon="-3.282565">
        <ele>64.430</ele>
        <time>2019-06-16T14:08:45Z</time>
      </trkpt>
      <trkpt lat="43.401072" lon="-3.282880">
        <ele>64.334</ele>
        <time>2019-06-16T14:08:46Z</time>
      </trkpt>
      <trkpt lat="43.401162" lon="-3.283196">
        <ele>63.214</ele>
        <time>2019-06-16T14:08:47Z</time>
      </trkpt>
      <trkpt lat="43.401244" lon="-3.283512">
        <ele>62.648</ele>
        <time>2019-06-16T14:08:48Z</time>
      </trkpt>
      <trkpt lat="43.401323" lon="-3.283822">
        <ele>62.277</ele>
        <time>2019-06-16T14:08:49Z</time>
      </trkpt>
      <trkpt lat="43.401404" lon="-3.284136">
        <ele>61.057</ele>
        <time>2019-06-16T14:08:50Z</time>
      </trkpt>
      <trkpt lat="43.401481" lon="-3.284428">
        <ele>60.363</ele>
        <time>2019-06-16T14:08:51Z</time>
      </trkpt>
      <trkpt lat="43.401556" lon="-3.284734">
        <ele>59.892</ele>
        <time>2019-06-16T14:08:52Z</time>
      </trkpt>
      <trkpt lat="43.401652" lon="-3.285038">
        <ele>58.279</ele>
        <time>2019-06-16T14:08:53Z</time>
      </trkpt>
      <trkpt lat="43.401722" lon="-3.285363">
        <ele>57.305</ele>
        <time>2019-06-16T14:08:54Z</time>
      </trkpt>
      <trkpt lat="43.401808" lon="-3.285689">
        <ele>56.925</ele>
        <time>2019-06-16T14:08:55Z</time>
      </trkpt>
      <trkpt lat="43.401887" lon="-3.286021">
        <ele>57.008</ele>
        <time>2019-06-16T14:08:56Z</time>
      </trkpt>
      <trkpt lat="43.401971" lon="-3.286350">
        <ele>56.450</ele>
        <time>2019-06-16T14:08:57Z</time>
      </trkpt>
      <trkpt lat="43.402032" lon="-3.286686">
        <ele>56.194</ele>
        <time>2019-06-16T14:08:58Z</time>
      </trkpt>
      <trkpt lat="43.402111" lon="-3.287018">
        <ele>55.624</ele>
        <time>2019-06-16T14:08:59Z</time>
      </trkpt>
      <trkpt lat="43.402185" lon="-3.287339">
        <ele>57.178</ele>
        <time>2019-06-16T14:09:00Z</time>
      </trkpt>
      <trkpt lat="43.402241" lon="-3.287668">
        <ele>58.587</ele>
        <time>2019-06-16T14:09:01Z</time>
      </trkpt>
      <trkpt lat="43.402302" lon="-3.288002">
        <ele>58.967</ele>
        <time>2019-06-16T14:09:02Z</time>
      </trkpt>
      <trkpt lat="43.402360" lon="-3.288327">
        <ele>59.093</ele>
        <time>2019-06-16T14:09:03Z</time>
      </trkpt>
      <trkpt lat="43.402414" lon="-3.288664">
        <ele>59.742</ele>
        <time>2019-06-16T14:09:04Z</time>
      </trkpt>
      <trkpt lat="43.402489" lon="-3.289010">
        <ele>59.965</ele>
        <time>2019-06-16T14:09:05Z</time>
      </trkpt>
      <trkpt lat="43.402544" lon="-3.289360">
        <ele>59.068</ele>
        <time>2019-06-16T14:09:06Z</time>
      </trkpt>
      <trkpt lat="43.402589" lon="-3.289710">
        <ele>57.414</ele>
        <time>2019-06-16T14:09:07Z</time>
      </trkpt>
      <trkpt lat="43.402653" lon="-3.290062">
        <ele>57.308</ele>
        <time>2019-06-16T14:09:08Z</time>
      </trkpt>
      <trkpt lat="43.402693" lon="-3.290409">
        <ele>56.599</ele>
        <time>2019-06-16T14:09:09Z</time>
      </trkpt>
      <trkpt lat="43.402755" lon="-3.290735">
        <ele>55.423</ele>
        <time>2019-06-16T14:09:10Z</time>
      </trkpt>
      <trkpt lat="43.402799" lon="-3.291063">
        <ele>54.133</ele>
        <time>2019-06-16T14:09:11Z</time>
      </trkpt>
      <trkpt lat="43.402857" lon="-3.291378">
        <ele>52.817</ele>
        <time>2019-06-16T14:09:12Z</time>
      </trkpt>
      <trkpt lat="43.402911" lon="-3.291698">
        <ele>51.086</ele>
        <time>2019-06-16T14:09:13Z</time>
      </trkpt>
      <trkpt lat="43.402974" lon="-3.291968">
        <ele>50.346</ele>
        <time>2019-06-16T14:09:14Z</time>
      </trkpt>
      <trkpt lat="43.403018" lon="-3.292242">
        <ele>50.082</ele>
        <time>2019-06-16T14:09:15Z</time>
      </trkpt>
      <trkpt lat="43.403068" lon="-3.292520">
        <ele>50.041</ele>
        <time>2019-06-16T14:09:16Z</time>
      </trkpt>
      <trkpt lat="43.403123" lon="-3.292811">
        <ele>49.745</ele>
        <time>2019-06-16T14:09:17Z</time>
      </trkpt>
      <trkpt lat="43.403147" lon="-3.293114">
        <ele>49.547</ele>
        <time>2019-06-16T14:09:18Z</time>
      </trkpt>
      <trkpt lat="43.403207" lon="-3.293410">
        <ele>49.211</ele>
        <time>2019-06-16T14:09:19Z</time>
      </trkpt>
      <trkpt lat="43.403261" lon="-3.293646">
        <ele>48.408</ele>
        <time>2019-06-16T14:09:20Z</time>
      </trkpt>
      <trkpt lat="43.403332" lon="-3.293927">
        <ele>46.957</ele>
        <time>2019-06-16T14:09:21Z</time>
      </trkpt>
      <trkpt lat="43.403376" lon="-3.294200">
        <ele>45.731</ele>
        <time>2019-06-16T14:09:22Z</time>
      </trkpt>
      <trkpt lat="43.403396" lon="-3.294473">
        <ele>44.551</ele>
        <time>2019-06-16T14:09:23Z</time>
      </trkpt>
      <trkpt lat="43.403442" lon="-3.294746">
        <ele>43.825</ele>
        <time>2019-06-16T14:09:24Z</time>
      </trkpt>
      <trkpt lat="43.403489" lon="-3.295017">
        <ele>42.884</ele>
        <time>2019-06-16T14:09:25Z</time>
      </trkpt>
      <trkpt lat="43.403540" lon="-3.295281">
        <ele>41.854</ele>
        <time>2019-06-16T14:09:26Z</time>
      </trkpt>
      <trkpt lat="43.403572" lon="-3.295536">
        <ele>41.410</ele>
        <time>2019-06-16T14:09:27Z</time>
      </trkpt>
      <trkpt lat="43.403614" lon="-3.295793">
        <ele>41.039</ele>
        <time>2019-06-16T14:09:28Z</time>
      </trkpt>
      <trkpt lat="43.403655" lon="-3.296040">
        <ele>40.447</ele>
        <time>2019-06-16T14:09:29Z</time>
      </trkpt>
      <trkpt lat="43.403699" lon="-3.296283">
        <ele>39.729</ele>
        <time>2019-06-16T14:09:30Z</time>
      </trkpt>
      <trkpt lat="43.403735" lon="-3.296515">
        <ele>39.221</ele>
        <time>2019-06-16T14:09:31Z</time>
      </trkpt>
      <trkpt lat="43.403773" lon="-3.296740">
        <ele>38.708</ele>
        <time>2019-06-16T14:09:32Z</time>
      </trkpt>
      <trkpt lat="43.403809" lon="-3.296938">
        <ele>38.147</ele>
        <time>2019-06-16T14:09:33Z</time>
      </trkpt>
      <trkpt lat="43.403836" lon="-3.297140">
        <ele>37.841</ele>
        <time>2019-06-16T14:09:34Z</time>
      </trkpt>
      <trkpt lat="43.403866" lon="-3.297328">
        <ele>37.311</ele>
        <time>2019-06-16T14:09:35Z</time>
      </trkpt>
      <trkpt lat="43.403894" lon="-3.297479">
        <ele>36.965</ele>
        <time>2019-06-16T14:09:36Z</time>
      </trkpt>
      <trkpt lat="43.403912" lon="-3.297642">
        <ele>36.734</ele>
        <time>2019-06-16T14:09:37Z</time>
      </trkpt>
      <trkpt lat="43.403939" lon="-3.297799">
        <ele>36.354</ele>
        <time>2019-06-16T14:09:38Z</time>
      </trkpt>
      <trkpt lat="43.403968" lon="-3.297934">
        <ele>35.980</ele>
        <time>2019-06-16T14:09:39Z</time>
      </trkpt>
      <trkpt lat="43.404002" lon="-3.298082">
        <ele>35.399</ele>
        <time>2019-06-16T14:09:40Z</time>
      </trkpt>
      <trkpt lat="43.404024" lon="-3.298224">
        <ele>34.464</ele>
        <time>2019-06-16T14:09:41Z</time>
      </trkpt>
      <trkpt lat="43.404047" lon="-3.298363">
        <ele>33.906</ele>
        <time>2019-06-16T14:09:42Z</time>
      </trkpt>
      <trkpt lat="43.404070" lon="-3.298501">
        <ele>33.716</ele>
        <time>2019-06-16T14:09:43Z</time>
      </trkpt>
      <trkpt lat="43.404092" lon="-3.298642">
        <ele>33.508</ele>
        <time>2019-06-16T14:09:44Z</time>
      </trkpt>
      <trkpt lat="43.404122" lon="-3.298755">
        <ele>33.379</ele>
        <time>2019-06-16T14:09:45Z</time>
      </trkpt>
      <trkpt lat="43.404147" lon="-3.298891">
        <ele>33.153</ele>
        <time>2019-06-16T14:09:46Z</time>
      </trkpt>
      <trkpt lat="43.404187" lon="-3.299023">
        <ele>32.363</ele>
        <time>2019-06-16T14:09:47Z</time>
      </trkpt>
      <trkpt lat="43.404215" lon="-3.299162">
        <ele>31.757</ele>
        <time>2019-06-16T14:09:48Z</time>
      </trkpt>
      <trkpt lat="43.404230" lon="-3.299311">
        <ele>31.146</ele>
        <time>2019-06-16T14:09:49Z</time>
      </trkpt>
      <trkpt lat="43.404244" lon="-3.299456">
        <ele>30.716</ele>
        <time>2019-06-16T14:09:50Z</time>
      </trkpt>
      <trkpt lat="43.404241" lon="-3.299603">
        <ele>30.292</ele>
        <time>2019-06-16T14:09:51Z</time>
      </trkpt>
      <trkpt lat="43.404244" lon="-3.299722">
        <ele>29.781</ele>
        <time>2019-06-16T14:09:52Z</time>
      </trkpt>
      <trkpt lat="43.404243" lon="-3.299836">
        <ele>29.393</ele>
        <time>2019-06-16T14:09:53Z</time>
      </trkpt>
      <trkpt lat="43.404230" lon="-3.299963">
        <ele>28.965</ele>
        <time>2019-06-16T14:09:54Z</time>
      </trkpt>
      <trkpt lat="43.404210" lon="-3.300067">
        <ele>28.621</ele>
        <time>2019-06-16T14:09:55Z</time>
      </trkpt>
      <trkpt lat="43.404193" lon="-3.300176">
        <ele>28.308</ele>
        <time>2019-06-16T14:09:56Z</time>
      </trkpt>
      <trkpt lat="43.404148" lon="-3.300328">
        <ele>27.972</ele>
        <time>2019-06-16T14:09:57Z</time>
      </trkpt>
      <trkpt lat="43.404107" lon="-3.300472">
        <ele>27.576</ele>
        <time>2019-06-16T14:09:58Z</time>
      </trkpt>
      <trkpt lat="43.404077" lon="-3.300646">
        <ele>27.036</ele>
        <time>2019-06-16T14:09:59Z</time>
      </trkpt>
      <trkpt lat="43.404038" lon="-3.300813">
        <ele>26.560</ele>
        <time>2019-06-16T14:10:00Z</time>
      </trkpt>
      <trkpt lat="43.403951" lon="-3.301046">
        <ele>26.069</ele>
        <time>2019-06-16T14:10:01Z</time>
      </trkpt>
      <trkpt lat="43.403898" lon="-3.301238">
        <ele>25.599</ele>
        <time>2019-06-16T14:10:02Z</time>
      </trkpt>
      <trkpt lat="43.403905" lon="-3.301336">
        <ele>25.165</ele>
        <time>2019-06-16T14:10:03Z</time>
      </trkpt>
      <trkpt lat="43.403850" lon="-3.301562">
        <ele>25.264</ele>
        <time>2019-06-16T14:10:04Z</time>
      </trkpt>
      <trkpt lat="43.403766" lon="-3.301820">
        <ele>24.844</ele>
        <time>2019-06-16T14:10:05Z</time>
      </trkpt>
      <trkpt lat="43.403690" lon="-3.302075">
        <ele>24.705</ele>
        <time>2019-06-16T14:10:06Z</time>
      </trkpt>
      <trkpt lat="43.403615" lon="-3.302322">
        <ele>25.015</ele>
        <time>2019-06-16T14:10:07Z</time>
      </trkpt>
      <trkpt lat="43.403548" lon="-3.302585">
        <ele>25.408</ele>
        <time>2019-06-16T14:10:08Z</time>
      </trkpt>
      <trkpt lat="43.403480" lon="-3.302840">
        <ele>25.197</ele>
        <time>2019-06-16T14:10:09Z</time>
      </trkpt>
      <trkpt lat="43.403410" lon="-3.303124">
        <ele>24.741</ele>
        <time>2019-06-16T14:10:10Z</time>
      </trkpt>
      <trkpt lat="43.403343" lon="-3.303391">
        <ele>24.511</ele>
        <time>2019-06-16T14:10:11Z</time>
      </trkpt>
      <trkpt lat="43.403273" lon="-3.303654">
        <ele>23.555</ele>
        <time>2019-06-16T14:10:12Z</time>
      </trkpt>
      <trkpt lat="43.403202" lon="-3.303935">
        <ele>23.254</ele>
        <time>2019-06-16T14:10:13Z</time>
      </trkpt>
      <trkpt lat="43.403142" lon="-3.304210">
        <ele>22.654</ele>
        <time>2019-06-16T14:10:14Z</time>
      </trkpt>
      <trkpt lat="43.403097" lon="-3.304491">
        <ele>22.190</ele>
        <time>2019-06-16T14:10:15Z</time>
      </trkpt>
      <trkpt lat="43.403068" lon="-3.304770">
        <ele>21.679</ele>
        <time>2019-06-16T14:10:16Z</time>
      </trkpt>
      <trkpt lat="43.403058" lon="-3.305036">
        <ele>21.191</ele>
        <time>2019-06-16T14:10:17Z</time>
      </trkpt>
      <trkpt lat="43.403045" lon="-3.305321">
        <ele>22.681</ele>
        <time>2019-06-16T14:10:18Z</time>
      </trkpt>
      <trkpt lat="43.403036" lon="-3.305595">
        <ele>23.719</ele>
        <time>2019-06-16T14:10:19Z</time>
      </trkpt>
      <trkpt lat="43.403030" lon="-3.305859">
        <ele>23.308</ele>
        <time>2019-06-16T14:10:20Z</time>
      </trkpt>
      <trkpt lat="43.403021" lon="-3.306120">
        <ele>23.612</ele>
        <time>2019-06-16T14:10:21Z</time>
      </trkpt>
      <trkpt lat="43.403020" lon="-3.306374">
        <ele>23.536</ele>
        <time>2019-06-16T14:10:22Z</time>
      </trkpt>
      <trkpt lat="43.403017" lon="-3.306619">
        <ele>23.796</ele>
        <time>2019-06-16T14:10:23Z</time>
      </trkpt>
      <trkpt lat="43.403018" lon="-3.306843">
        <ele>23.690</ele>
        <time>2019-06-16T14:10:24Z</time>
      </trkpt>
      <trkpt lat="43.403022" lon="-3.307069">
        <ele>23.069</ele>
        <time>2019-06-16T14:10:25Z</time>
      </trkpt>
      <trkpt lat="43.403025" lon="-3.307293">
        <ele>21.989</ele>
        <time>2019-06-16T14:10:26Z</time>
      </trkpt>
      <trkpt lat="43.403023" lon="-3.307516">
        <ele>20.685</ele>
        <time>2019-06-16T14:10:27Z</time>
      </trkpt>
      <trkpt lat="43.403029" lon="-3.307733">
        <ele>20.334</ele>
        <time>2019-06-16T14:10:28Z</time>
      </trkpt>
      <trkpt lat="43.403027" lon="-3.307946">
        <ele>20.051</ele>
        <time>2019-06-16T14:10:29Z</time>
      </trkpt>
      <trkpt lat="43.403014" lon="-3.308173">
        <ele>20.301</ele>
        <time>2019-06-16T14:10:30Z</time>
      </trkpt>
      <trkpt lat="43.403011" lon="-3.308402">
        <ele>20.411</ele>
        <time>2019-06-16T14:10:31Z</time>
      </trkpt>
      <trkpt lat="43.402995" lon="-3.308609">
        <ele>21.108</ele>
        <time>2019-06-16T14:10:32Z</time>
      </trkpt>
      <trkpt lat="43.403002" lon="-3.308841">
        <ele>21.018</ele>
        <time>2019-06-16T14:10:33Z</time>
      </trkpt>
      <trkpt lat="43.403011" lon="-3.309076">
        <ele>21.612</ele>
        <time>2019-06-16T14:10:34Z</time>
      </trkpt>
      <trkpt lat="43.403029" lon="-3.309315">
        <ele>21.582</ele>
        <time>2019-06-16T14:10:35Z</time>
      </trkpt>
      <trkpt lat="43.403058" lon="-3.309536">
        <ele>20.226</ele>
        <time>2019-06-16T14:10:36Z</time>
      </trkpt>
      <trkpt lat="43.403083" lon="-3.309754">
        <ele>20.195</ele>
        <time>2019-06-16T14:10:37Z</time>
      </trkpt>
      <trkpt lat="43.403114" lon="-3.309960">
        <ele>20.265</ele>
        <time>2019-06-16T14:10:38Z</time>
      </trkpt>
      <trkpt lat="43.403133" lon="-3.310146">
        <ele>21.521</ele>
        <time>2019-06-16T14:10:39Z</time>
      </trkpt>
      <trkpt lat="43.403174" lon="-3.310339">
        <ele>21.760</ele>
        <time>2019-06-16T14:10:40Z</time>
      </trkpt>
      <trkpt lat="43.403218" lon="-3.310526">
        <ele>21.598</ele>
        <time>2019-06-16T14:10:41Z</time>
      </trkpt>
      <trkpt lat="43.403273" lon="-3.310732">
        <ele>21.115</ele>
        <time>2019-06-16T14:10:42Z</time>
      </trkpt>
      <trkpt lat="43.403309" lon="-3.310931">
        <ele>20.726</ele>
        <time>2019-06-16T14:10:43Z</time>
      </trkpt>
      <trkpt lat="43.403361" lon="-3.311156">
        <ele>19.408</ele>
        <time>2019-06-16T14:10:44Z</time>
      </trkpt>
      <trkpt lat="43.403394" lon="-3.311377">
        <ele>19.282</ele>
        <time>2019-06-16T14:10:45Z</time>
      </trkpt>
      <trkpt lat="43.403424" lon="-3.311603">
        <ele>19.296</ele>
        <time>2019-06-16T14:10:46Z</time>
      </trkpt>
      <trkpt lat="43.403418" lon="-3.311848">
        <ele>20.256</ele>
        <time>2019-06-16T14:10:47Z</time>
      </trkpt>
      <trkpt lat="43.403398" lon="-3.312082">
        <ele>19.750</ele>
        <time>2019-06-16T14:10:48Z</time>
      </trkpt>
      <trkpt lat="43.403390" lon="-3.312323">
        <ele>17.269</ele>
        <time>2019-06-16T14:10:49Z</time>
      </trkpt>
      <trkpt lat="43.403331" lon="-3.312534">
        <ele>17.759</ele>
        <time>2019-06-16T14:10:50Z</time>
      </trkpt>
      <trkpt lat="43.403270" lon="-3.312750">
        <ele>17.975</ele>
        <time>2019-06-16T14:10:51Z</time>
      </trkpt>
      <trkpt lat="43.403177" lon="-3.312944">
        <ele>17.774</ele>
        <time>2019-06-16T14:10:52Z</time>
      </trkpt>
      <trkpt lat="43.403082" lon="-3.313131">
        <ele>17.577</ele>
        <time>2019-06-16T14:10:53Z</time>
      </trkpt>
      <trkpt lat="43.402983" lon="-3.313317">
        <ele>18.061</ele>
        <time>2019-06-16T14:10:54Z</time>
      </trkpt>
      <trkpt lat="43.402862" lon="-3.313502">
        <ele>17.727</ele>
        <time>2019-06-16T14:10:55Z</time>
      </trkpt>
      <trkpt lat="43.402752" lon="-3.313699">
        <ele>17.708</ele>
        <time>2019-06-16T14:10:56Z</time>
      </trkpt>
      <trkpt lat="43.402645" lon="-3.313891">
        <ele>19.160</ele>
        <time>2019-06-16T14:10:57Z</time>
      </trkpt>
      <trkpt lat="43.402551" lon="-3.314120">
        <ele>18.914</ele>
        <time>2019-06-16T14:10:58Z</time>
      </trkpt>
      <trkpt lat="43.402473" lon="-3.314324">
        <ele>19.674</ele>
        <time>2019-06-16T14:10:59Z</time>
      </trkpt>
      <trkpt lat="43.402387" lon="-3.314557">
        <ele>21.118</ele>
        <time>2019-06-16T14:11:00Z</time>
      </trkpt>
      <trkpt lat="43.402307" lon="-3.314778">
        <ele>20.277</ele>
        <time>2019-06-16T14:11:01Z</time>
      </trkpt>
      <trkpt lat="43.402241" lon="-3.314985">
        <ele>16.617</ele>
        <time>2019-06-16T14:11:02Z</time>
      </trkpt>
      <trkpt lat="43.402169" lon="-3.315187">
        <ele>17.743</ele>
        <time>2019-06-16T14:11:03Z</time>
      </trkpt>
      <trkpt lat="43.402089" lon="-3.315377">
        <ele>17.692</ele>
        <time>2019-06-16T14:11:04Z</time>
      </trkpt>
      <trkpt lat="43.401973" lon="-3.315549">
        <ele>17.498</ele>
        <time>2019-06-16T14:11:05Z</time>
      </trkpt>
      <trkpt lat="43.401856" lon="-3.315685">
        <ele>16.715</ele>
        <time>2019-06-16T14:11:06Z</time>
      </trkpt>
      <trkpt lat="43.401721" lon="-3.315810">
        <ele>16.726</ele>
        <time>2019-06-16T14:11:07Z</time>
      </trkpt>
      <trkpt lat="43.401554" lon="-3.315934">
        <ele>16.908</ele>
        <time>2019-06-16T14:11:08Z</time>
      </trkpt>
      <trkpt lat="43.401374" lon="-3.316076">
        <ele>17.142</ele>
        <time>2019-06-16T14:11:09Z</time>
      </trkpt>
      <trkpt lat="43.401200" lon="-3.316175">
        <ele>17.356</ele>
        <time>2019-06-16T14:11:10Z</time>
      </trkpt>
      <trkpt lat="43.401011" lon="-3.316269">
        <ele>17.286</ele>
        <time>2019-06-16T14:11:11Z</time>
      </trkpt>
      <trkpt lat="43.400826" lon="-3.316352">
        <ele>15.890</ele>
        <time>2019-06-16T14:11:12Z</time>
      </trkpt>
      <trkpt lat="43.400645" lon="-3.316425">
        <ele>15.149</ele>
        <time>2019-06-16T14:11:13Z</time>
      </trkpt>
      <trkpt lat="43.400461" lon="-3.316502">
        <ele>14.039</ele>
        <time>2019-06-16T14:11:14Z</time>
      </trkpt>
      <trkpt lat="43.400270" lon="-3.316574">
        <ele>13.715</ele>
        <time>2019-06-16T14:11:15Z</time>
      </trkpt>
      <trkpt lat="43.400052" lon="-3.316571">
        <ele>13.874</ele>
        <time>2019-06-16T14:11:16Z</time>
      </trkpt>
      <trkpt lat="43.399843" lon="-3.316569">
        <ele>13.333</ele>
        <time>2019-06-16T14:11:17Z</time>
      </trkpt>
      <trkpt lat="43.399632" lon="-3.316564">
        <ele>12.523</ele>
        <time>2019-06-16T14:11:18Z</time>
      </trkpt>
      <trkpt lat="43.399423" lon="-3.316547">
        <ele>12.115</ele>
        <time>2019-06-16T14:11:19Z</time>
      </trkpt>
      <trkpt lat="43.399210" lon="-3.316516">
        <ele>12.208</ele>
        <time>2019-06-16T14:11:20Z</time>
      </trkpt>
      <trkpt lat="43.399004" lon="-3.316441">
        <ele>12.176</ele>
        <time>2019-06-16T14:11:21Z</time>
      </trkpt>
      <trkpt lat="43.398796" lon="-3.316328">
        <ele>12.940</ele>
        <time>2019-06-16T14:11:22Z</time>
      </trkpt>
      <trkpt lat="43.398590" lon="-3.316222">
        <ele>10.690</ele>
        <time>2019-06-16T14:11:23Z</time>
      </trkpt>
      <trkpt lat="43.398394" lon="-3.316096">
        <ele>11.084</ele>
        <time>2019-06-16T14:11:24Z</time>
      </trkpt>
      <trkpt lat="43.398190" lon="-3.315978">
        <ele>11.233</ele>
        <time>2019-06-16T14:11:25Z</time>
      </trkpt>
      <trkpt lat="43.397977" lon="-3.315870">
        <ele>9.893</ele>
        <time>2019-06-16T14:11:26Z</time>
      </trkpt>
      <trkpt lat="43.397767" lon="-3.315761">
        <ele>10.469</ele>
        <time>2019-06-16T14:11:27Z</time>
      </trkpt>
      <trkpt lat="43.397560" lon="-3.315655">
        <ele>9.658</ele>
        <time>2019-06-16T14:11:28Z</time>
      </trkpt>
      <trkpt lat="43.397340" lon="-3.315567">
        <ele>8.684</ele>
        <time>2019-06-16T14:11:29Z</time>
      </trkpt>
      <trkpt lat="43.397115" lon="-3.315486">
        <ele>8.807</ele>
        <time>2019-06-16T14:11:30Z</time>
      </trkpt>
      <trkpt lat="43.396897" lon="-3.315398">
        <ele>7.917</ele>
        <time>2019-06-16T14:11:31Z</time>
      </trkpt>
      <trkpt lat="43.396670" lon="-3.315315">
        <ele>7.208</ele>
        <time>2019-06-16T14:11:32Z</time>
      </trkpt>
      <trkpt lat="43.396441" lon="-3.315238">
        <ele>7.441</ele>
        <time>2019-06-16T14:11:33Z</time>
      </trkpt>
      <trkpt lat="43.396222" lon="-3.315145">
        <ele>7.095</ele>
        <time>2019-06-16T14:11:34Z</time>
      </trkpt>
      <trkpt lat="43.396007" lon="-3.315052">
        <ele>6.285</ele>
        <time>2019-06-16T14:11:35Z</time>
      </trkpt>
      <trkpt lat="43.395796" lon="-3.314959">
        <ele>5.979</ele>
        <time>2019-06-16T14:11:36Z</time>
      </trkpt>
      <trkpt lat="43.395593" lon="-3.314864">
        <ele>4.938</ele>
        <time>2019-06-16T14:11:37Z</time>
      </trkpt>
      <trkpt lat="43.395400" lon="-3.314764">
        <ele>5.188</ele>
        <time>2019-06-16T14:11:38Z</time>
      </trkpt>
      <trkpt lat="43.395230" lon="-3.314673">
        <ele>5.494</ele>
        <time>2019-06-16T14:11:39Z</time>
      </trkpt>
      <trkpt lat="43.395046" lon="-3.314582">
        <ele>5.313</ele>
        <time>2019-06-16T14:11:40Z</time>
      </trkpt>
      <trkpt lat="43.394866" lon="-3.314565">
        <ele>4.817</ele>
        <time>2019-06-16T14:11:41Z</time>
      </trkpt>
      <trkpt lat="43.394667" lon="-3.314522">
        <ele>4.987</ele>
        <time>2019-06-16T14:11:42Z</time>
      </trkpt>
      <trkpt lat="43.394463" lon="-3.314547">
        <ele>4.515</ele>
        <time>2019-06-16T14:11:43Z</time>
      </trkpt>
      <trkpt lat="43.394247" lon="-3.314571">
        <ele>4.808</ele>
        <time>2019-06-16T14:11:44Z</time>
      </trkpt>
      <trkpt lat="43.394028" lon="-3.314619">
        <ele>5.264</ele>
        <time>2019-06-16T14:11:45Z</time>
      </trkpt>
      <trkpt lat="43.393814" lon="-3.314668">
        <ele>5.538</ele>
        <time>2019-06-16T14:11:46Z</time>
      </trkpt>
      <trkpt lat="43.393602" lon="-3.314679">
        <ele>5.628</ele>
        <time>2019-06-16T14:11:47Z</time>
      </trkpt>
      <trkpt lat="43.393395" lon="-3.314683">
        <ele>5.642</ele>
        <time>2019-06-16T14:11:48Z</time>
      </trkpt>
      <trkpt lat="43.393190" lon="-3.314691">
        <ele>5.431</ele>
        <time>2019-06-16T14:11:49Z</time>
      </trkpt>
      <trkpt lat="43.392983" lon="-3.314695">
        <ele>5.341</ele>
        <time>2019-06-16T14:11:50Z</time>
      </trkpt>
      <trkpt lat="43.392776" lon="-3.314695">
        <ele>5.327</ele>
        <time>2019-06-16T14:11:51Z</time>
      </trkpt>
      <trkpt lat="43.392581" lon="-3.314605">
        <ele>6.366</ele>
        <time>2019-06-16T14:11:52Z</time>
      </trkpt>
      <trkpt lat="43.392404" lon="-3.314598">
        <ele>6.546</ele>
        <time>2019-06-16T14:11:53Z</time>
      </trkpt>
      <trkpt lat="43.392229" lon="-3.314579">
        <ele>7.088</ele>
        <time>2019-06-16T14:11:54Z</time>
      </trkpt>
      <trkpt lat="43.392082" lon="-3.314584">
        <ele>7.016</ele>
        <time>2019-06-16T14:11:55Z</time>
      </trkpt>
      <trkpt lat="43.391922" lon="-3.314576">
        <ele>7.108</ele>
        <time>2019-06-16T14:11:56Z</time>
      </trkpt>
      <trkpt lat="43.391764" lon="-3.314628">
        <ele>6.977</ele>
        <time>2019-06-16T14:11:57Z</time>
      </trkpt>
      <trkpt lat="43.391627" lon="-3.314673">
        <ele>6.421</ele>
        <time>2019-06-16T14:11:58Z</time>
      </trkpt>
      <trkpt lat="43.391483" lon="-3.314793">
        <ele>5.761</ele>
        <time>2019-06-16T14:11:59Z</time>
      </trkpt>
      <trkpt lat="43.391343" lon="-3.314934">
        <ele>6.485</ele>
        <time>2019-06-16T14:12:00Z</time>
      </trkpt>
      <trkpt lat="43.391209" lon="-3.315100">
        <ele>6.784</ele>
        <time>2019-06-16T14:12:01Z</time>
      </trkpt>
      <trkpt lat="43.391072" lon="-3.315253">
        <ele>7.264</ele>
        <time>2019-06-16T14:12:02Z</time>
      </trkpt>
      <trkpt lat="43.390934" lon="-3.315412">
        <ele>6.620</ele>
        <time>2019-06-16T14:12:03Z</time>
      </trkpt>
      <trkpt lat="43.390795" lon="-3.315572">
        <ele>7.159</ele>
        <time>2019-06-16T14:12:04Z</time>
      </trkpt>
      <trkpt lat="43.390680" lon="-3.315738">
        <ele>6.977</ele>
        <time>2019-06-16T14:12:05Z</time>
      </trkpt>
      <trkpt lat="43.390541" lon="-3.315870">
        <ele>8.061</ele>
        <time>2019-06-16T14:12:06Z</time>
      </trkpt>
      <trkpt lat="43.390404" lon="-3.315994">
        <ele>9.127</ele>
        <time>2019-06-16T14:12:07Z</time>
      </trkpt>
      <trkpt lat="43.390256" lon="-3.316111">
        <ele>8.308</ele>
        <time>2019-06-16T14:12:08Z</time>
      </trkpt>
      <trkpt lat="43.390094" lon="-3.316178">
        <ele>9.460</ele>
        <time>2019-06-16T14:12:09Z</time>
      </trkpt>
      <trkpt lat="43.389951" lon="-3.316249">
        <ele>9.684</ele>
        <time>2019-06-16T14:12:10Z</time>
      </trkpt>
      <trkpt lat="43.389809" lon="-3.316333">
        <ele>9.084</ele>
        <time>2019-06-16T14:12:11Z</time>
      </trkpt>
      <trkpt lat="43.389671" lon="-3.316411">
        <ele>7.838</ele>
        <time>2019-06-16T14:12:12Z</time>
      </trkpt>
      <trkpt lat="43.389571" lon="-3.316555">
        <ele>6.977</ele>
        <time>2019-06-16T14:12:13Z</time>
      </trkpt>
      <trkpt lat="43.389466" lon="-3.316705">
        <ele>6.747</ele>
        <time>2019-06-16T14:12:14Z</time>
      </trkpt>
      <trkpt lat="43.389367" lon="-3.316872">
        <ele>7.073</ele>
        <time>2019-06-16T14:12:15Z</time>
      </trkpt>
      <trkpt lat="43.389294" lon="-3.317095">
        <ele>7.732</ele>
        <time>2019-06-16T14:12:16Z</time>
      </trkpt>
      <trkpt lat="43.389223" lon="-3.317298">
        <ele>8.446</ele>
        <time>2019-06-16T14:12:17Z</time>
      </trkpt>
      <trkpt lat="43.389173" lon="-3.317492">
        <ele>7.988</ele>
        <time>2019-06-16T14:12:18Z</time>
      </trkpt>
      <trkpt lat="43.389112" lon="-3.317684">
        <ele>8.116</ele>
        <time>2019-06-16T14:12:19Z</time>
      </trkpt>
      <trkpt lat="43.389020" lon="-3.317861">
        <ele>8.608</ele>
        <time>2019-06-16T14:12:20Z</time>
      </trkpt>
      <trkpt lat="43.388902" lon="-3.318033">
        <ele>8.277</ele>
        <time>2019-06-16T14:12:21Z</time>
      </trkpt>
      <trkpt lat="43.388757" lon="-3.318186">
        <ele>8.811</ele>
        <time>2019-06-16T14:12:22Z</time>
      </trkpt>
      <trkpt lat="43.388615" lon="-3.318325">
        <ele>8.211</ele>
        <time>2019-06-16T14:12:23Z</time>
      </trkpt>
      <trkpt lat="43.388474" lon="-3.318443">
        <ele>8.935</ele>
        <time>2019-06-16T14:12:24Z</time>
      </trkpt>
      <trkpt lat="43.388321" lon="-3.318563">
        <ele>8.544</ele>
        <time>2019-06-16T14:12:25Z</time>
      </trkpt>
      <trkpt lat="43.388167" lon="-3.318647">
        <ele>8.074</ele>
        <time>2019-06-16T14:12:26Z</time>
      </trkpt>
      <trkpt lat="43.388015" lon="-3.318739">
        <ele>6.960</ele>
        <time>2019-06-16T14:12:27Z</time>
      </trkpt>
      <trkpt lat="43.387835" lon="-3.318772">
        <ele>6.669</ele>
        <time>2019-06-16T14:12:28Z</time>
      </trkpt>
      <trkpt lat="43.387679" lon="-3.318719">
        <ele>8.683</ele>
        <time>2019-06-16T14:12:29Z</time>
      </trkpt>
      <trkpt lat="43.387493" lon="-3.318742">
        <ele>8.225</ele>
        <time>2019-06-16T14:12:30Z</time>
      </trkpt>
      <trkpt lat="43.387322" lon="-3.318734">
        <ele>8.417</ele>
        <time>2019-06-16T14:12:31Z</time>
      </trkpt>
      <trkpt lat="43.387139" lon="-3.318650">
        <ele>9.708</ele>
        <time>2019-06-16T14:12:32Z</time>
      </trkpt>
      <trkpt lat="43.386947" lon="-3.318599">
        <ele>9.361</ele>
        <time>2019-06-16T14:12:33Z</time>
      </trkpt>
      <trkpt lat="43.386756" lon="-3.318548">
        <ele>8.275</ele>
        <time>2019-06-16T14:12:34Z</time>
      </trkpt>
      <trkpt lat="43.386558" lon="-3.318496">
        <ele>7.035</ele>
        <time>2019-06-16T14:12:35Z</time>
      </trkpt>
      <trkpt lat="43.386357" lon="-3.318435">
        <ele>7.019</ele>
        <time>2019-06-16T14:12:36Z</time>
      </trkpt>
      <trkpt lat="43.386164" lon="-3.318366">
        <ele>8.488</ele>
        <time>2019-06-16T14:12:37Z</time>
      </trkpt>
      <trkpt lat="43.385974" lon="-3.318296">
        <ele>8.878</ele>
        <time>2019-06-16T14:12:38Z</time>
      </trkpt>
      <trkpt lat="43.385767" lon="-3.318247">
        <ele>8.164</ele>
        <time>2019-06-16T14:12:39Z</time>
      </trkpt>
      <trkpt lat="43.385573" lon="-3.318214">
        <ele>7.373</ele>
        <time>2019-06-16T14:12:40Z</time>
      </trkpt>
      <trkpt lat="43.385380" lon="-3.318164">
        <ele>8.078</ele>
        <time>2019-06-16T14:12:41Z</time>
      </trkpt>
      <trkpt lat="43.385192" lon="-3.318148">
        <ele>8.233</ele>
        <time>2019-06-16T14:12:42Z</time>
      </trkpt>
      <trkpt lat="43.385007" lon="-3.318116">
        <ele>8.726</ele>
        <time>2019-06-16T14:12:43Z</time>
      </trkpt>
      <trkpt lat="43.384845" lon="-3.318118">
        <ele>8.708</ele>
        <time>2019-06-16T14:12:44Z</time>
      </trkpt>
      <trkpt lat="43.384677" lon="-3.318116">
        <ele>8.570</ele>
        <time>2019-06-16T14:12:45Z</time>
      </trkpt>
      <trkpt lat="43.384508" lon="-3.318106">
        <ele>8.174</ele>
        <time>2019-06-16T14:12:46Z</time>
      </trkpt>
      <trkpt lat="43.384329" lon="-3.318108">
        <ele>8.354</ele>
        <time>2019-06-16T14:12:47Z</time>
      </trkpt>
      <trkpt lat="43.384215" lon="-3.318190">
        <ele>6.928</ele>
        <time>2019-06-16T14:12:48Z</time>
      </trkpt>
      <trkpt lat="43.384061" lon="-3.318273">
        <ele>7.167</ele>
        <time>2019-06-16T14:12:49Z</time>
      </trkpt>
      <trkpt lat="43.383918" lon="-3.318371">
        <ele>7.847</ele>
        <time>2019-06-16T14:12:50Z</time>
      </trkpt>
      <trkpt lat="43.383761" lon="-3.318498">
        <ele>7.173</ele>
        <time>2019-06-16T14:12:51Z</time>
      </trkpt>
      <trkpt lat="43.383601" lon="-3.318620">
        <ele>8.012</ele>
        <time>2019-06-16T14:12:52Z</time>
      </trkpt>
      <trkpt lat="43.383424" lon="-3.318778">
        <ele>8.427</ele>
        <time>2019-06-16T14:12:53Z</time>
      </trkpt>
      <trkpt lat="43.383245" lon="-3.318921">
        <ele>8.768</ele>
        <time>2019-06-16T14:12:54Z</time>
      </trkpt>
      <trkpt lat="43.383067" lon="-3.319063">
        <ele>6.814</ele>
        <time>2019-06-16T14:12:55Z</time>
      </trkpt>
      <trkpt lat="43.382882" lon="-3.319157">
        <ele>7.108</ele>
        <time>2019-06-16T14:12:56Z</time>
      </trkpt>
      <trkpt lat="43.382711" lon="-3.319280">
        <ele>7.995</ele>
        <time>2019-06-16T14:12:57Z</time>
      </trkpt>
      <trkpt lat="43.382542" lon="-3.319347">
        <ele>9.059</ele>
        <time>2019-06-16T14:12:58Z</time>
      </trkpt>
      <trkpt lat="43.382374" lon="-3.319439">
        <ele>8.199</ele>
        <time>2019-06-16T14:12:59Z</time>
      </trkpt>
      <trkpt lat="43.382215" lon="-3.319514">
        <ele>7.873</ele>
        <time>2019-06-16T14:13:00Z</time>
      </trkpt>
      <trkpt lat="43.382077" lon="-3.319579">
        <ele>7.822</ele>
        <time>2019-06-16T14:13:01Z</time>
      </trkpt>
      <trkpt lat="43.381940" lon="-3.319646">
        <ele>7.672</ele>
        <time>2019-06-16T14:13:02Z</time>
      </trkpt>
      <trkpt lat="43.381799" lon="-3.319697">
        <ele>7.878</ele>
        <time>2019-06-16T14:13:03Z</time>
      </trkpt>
      <trkpt lat="43.381681" lon="-3.319758">
        <ele>7.877</ele>
        <time>2019-06-16T14:13:04Z</time>
      </trkpt>
      <trkpt lat="43.381556" lon="-3.319812">
        <ele>8.148</ele>
        <time>2019-06-16T14:13:05Z</time>
      </trkpt>
      <trkpt lat="43.381425" lon="-3.319862">
        <ele>8.461</ele>
        <time>2019-06-16T14:13:06Z</time>
      </trkpt>
      <trkpt lat="43.381294" lon="-3.319905">
        <ele>8.617</ele>
        <time>2019-06-16T14:13:07Z</time>
      </trkpt>
      <trkpt lat="43.381156" lon="-3.320011">
        <ele>8.008</ele>
        <time>2019-06-16T14:13:08Z</time>
      </trkpt>
      <trkpt lat="43.381023" lon="-3.320072">
        <ele>8.277</ele>
        <time>2019-06-16T14:13:09Z</time>
      </trkpt>
      <trkpt lat="43.380873" lon="-3.320152">
        <ele>8.481</ele>
        <time>2019-06-16T14:13:10Z</time>
      </trkpt>
      <trkpt lat="43.380724" lon="-3.320221">
        <ele>7.991</ele>
        <time>2019-06-16T14:13:11Z</time>
      </trkpt>
      <trkpt lat="43.380572" lon="-3.320305">
        <ele>7.065</ele>
        <time>2019-06-16T14:13:12Z</time>
      </trkpt>
      <trkpt lat="43.380423" lon="-3.320382">
        <ele>6.994</ele>
        <time>2019-06-16T14:13:13Z</time>
      </trkpt>
      <trkpt lat="43.380283" lon="-3.320442">
        <ele>6.884</ele>
        <time>2019-06-16T14:13:14Z</time>
      </trkpt>
      <trkpt lat="43.380147" lon="-3.320506">
        <ele>6.420</ele>
        <time>2019-06-16T14:13:15Z</time>
      </trkpt>
      <trkpt lat="43.380020" lon="-3.320576">
        <ele>5.899</ele>
        <time>2019-06-16T14:13:16Z</time>
      </trkpt>
      <trkpt lat="43.379900" lon="-3.320631">
        <ele>5.923</ele>
        <time>2019-06-16T14:13:17Z</time>
      </trkpt>
      <trkpt lat="43.379797" lon="-3.320669">
        <ele>6.283</ele>
        <time>2019-06-16T14:13:18Z</time>
      </trkpt>
      <trkpt lat="43.379686" lon="-3.320729">
        <ele>6.611</ele>
        <time>2019-06-16T14:13:19Z</time>
      </trkpt>
      <trkpt lat="43.379588" lon="-3.320793">
        <ele>6.808</ele>
        <time>2019-06-16T14:13:20Z</time>
      </trkpt>
      <trkpt lat="43.379507" lon="-3.320897">
        <ele>6.175</ele>
        <time>2019-06-16T14:13:21Z</time>
      </trkpt>
      <trkpt lat="43.379417" lon="-3.320998">
        <ele>5.339</ele>
        <time>2019-06-16T14:13:22Z</time>
      </trkpt>
      <trkpt lat="43.379338" lon="-3.321117">
        <ele>4.729</ele>
        <time>2019-06-16T14:13:23Z</time>
      </trkpt>
      <trkpt lat="43.379264" lon="-3.321242">
        <ele>4.753</ele>
        <time>2019-06-16T14:13:24Z</time>
      </trkpt>
      <trkpt lat="43.379212" lon="-3.321421">
        <ele>4.192</ele>
        <time>2019-06-16T14:13:25Z</time>
      </trkpt>
      <trkpt lat="43.379163" lon="-3.321573">
        <ele>2.372</ele>
        <time>2019-06-16T14:13:26Z</time>
      </trkpt>
      <trkpt lat="43.379121" lon="-3.321735">
        <ele>1.268</ele>
        <time>2019-06-16T14:13:27Z</time>
      </trkpt>
      <trkpt lat="43.379157" lon="-3.321886">
        <ele>2.597</ele>
        <time>2019-06-16T14:13:28Z</time>
      </trkpt>
      <trkpt lat="43.379171" lon="-3.322031">
        <ele>3.387</ele>
        <time>2019-06-16T14:13:29Z</time>
      </trkpt>
      <trkpt lat="43.379188" lon="-3.322193">
        <ele>3.742</ele>
        <time>2019-06-16T14:13:30Z</time>
      </trkpt>
      <trkpt lat="43.379224" lon="-3.322355">
        <ele>4.226</ele>
        <time>2019-06-16T14:13:31Z</time>
      </trkpt>
      <trkpt lat="43.379300" lon="-3.322511">
        <ele>5.008</ele>
        <time>2019-06-16T14:13:32Z</time>
      </trkpt>
      <trkpt lat="43.379385" lon="-3.322658">
        <ele>5.421</ele>
        <time>2019-06-16T14:13:33Z</time>
      </trkpt>
      <trkpt lat="43.379470" lon="-3.322805">
        <ele>6.015</ele>
        <time>2019-06-16T14:13:34Z</time>
      </trkpt>
      <trkpt lat="43.379586" lon="-3.322947">
        <ele>6.825</ele>
        <time>2019-06-16T14:13:35Z</time>
      </trkpt>
      <trkpt lat="43.379730" lon="-3.323009">
        <ele>8.279</ele>
        <time>2019-06-16T14:13:36Z</time>
      </trkpt>
      <trkpt lat="43.379880" lon="-3.323030">
        <ele>10.138</ele>
        <time>2019-06-16T14:13:37Z</time>
      </trkpt>
      <trkpt lat="43.380023" lon="-3.323051">
        <ele>12.128</ele>
        <time>2019-06-16T14:13:38Z</time>
      </trkpt>
      <trkpt lat="43.380167" lon="-3.323056">
        <ele>13.864</ele>
        <time>2019-06-16T14:13:39Z</time>
      </trkpt>
      <trkpt lat="43.380323" lon="-3.323045">
        <ele>14.643</ele>
        <time>2019-06-16T14:13:40Z</time>
      </trkpt>
      <trkpt lat="43.380483" lon="-3.323026">
        <ele>13.681</ele>
        <time>2019-06-16T14:13:41Z</time>
      </trkpt>
      <trkpt lat="43.380646" lon="-3.323020">
        <ele>14.361</ele>
        <time>2019-06-16T14:13:42Z</time>
      </trkpt>
      <trkpt lat="43.380805" lon="-3.323012">
        <ele>15.817</ele>
        <time>2019-06-16T14:13:43Z</time>
      </trkpt>
      <trkpt lat="43.380975" lon="-3.322987">
        <ele>16.708</ele>
        <time>2019-06-16T14:13:44Z</time>
      </trkpt>
      <trkpt lat="43.381158" lon="-3.322928">
        <ele>17.871</ele>
        <time>2019-06-16T14:13:45Z</time>
      </trkpt>
      <trkpt lat="43.381334" lon="-3.322885">
        <ele>20.515</ele>
        <time>2019-06-16T14:13:46Z</time>
      </trkpt>
      <trkpt lat="43.381506" lon="-3.322860">
        <ele>23.085</ele>
        <time>2019-06-16T14:13:47Z</time>
      </trkpt>
      <trkpt lat="43.381673" lon="-3.322834">
        <ele>24.759</ele>
        <time>2019-06-16T14:13:48Z</time>
      </trkpt>
      <trkpt lat="43.381833" lon="-3.322802">
        <ele>24.138</ele>
        <time>2019-06-16T14:13:49Z</time>
      </trkpt>
      <trkpt lat="43.381988" lon="-3.322774">
        <ele>24.698</ele>
        <time>2019-06-16T14:13:50Z</time>
      </trkpt>
      <trkpt lat="43.382137" lon="-3.322743">
        <ele>26.234</ele>
        <time>2019-06-16T14:13:51Z</time>
      </trkpt>
      <trkpt lat="43.382273" lon="-3.322713">
        <ele>27.593</ele>
        <time>2019-06-16T14:13:52Z</time>
      </trkpt>
      <trkpt lat="43.382384" lon="-3.322681">
        <ele>27.891</ele>
        <time>2019-06-16T14:13:53Z</time>
      </trkpt>
      <trkpt lat="43.382501" lon="-3.322647">
        <ele>27.881</ele>
        <time>2019-06-16T14:13:54Z</time>
      </trkpt>
      <trkpt lat="43.382618" lon="-3.322609">
        <ele>29.419</ele>
        <time>2019-06-16T14:13:55Z</time>
      </trkpt>
      <trkpt lat="43.382738" lon="-3.322581">
        <ele>31.108</ele>
        <time>2019-06-16T14:13:56Z</time>
      </trkpt>
      <trkpt lat="43.382880" lon="-3.322577">
        <ele>32.172</ele>
        <time>2019-06-16T14:13:57Z</time>
      </trkpt>
      <trkpt lat="43.383034" lon="-3.322607">
        <ele>33.586</ele>
        <time>2019-06-16T14:13:58Z</time>
      </trkpt>
      <trkpt lat="43.383174" lon="-3.322642">
        <ele>34.036</ele>
        <time>2019-06-16T14:13:59Z</time>
      </trkpt>
      <trkpt lat="43.383343" lon="-3.322692">
        <ele>34.580</ele>
        <time>2019-06-16T14:14:00Z</time>
      </trkpt>
      <trkpt lat="43.383492" lon="-3.322752">
        <ele>35.879</ele>
        <time>2019-06-16T14:14:01Z</time>
      </trkpt>
      <trkpt lat="43.383638" lon="-3.322809">
        <ele>36.789</ele>
        <time>2019-06-16T14:14:02Z</time>
      </trkpt>
      <trkpt lat="43.383786" lon="-3.322855">
        <ele>37.715</ele>
        <time>2019-06-16T14:14:03Z</time>
      </trkpt>
      <trkpt lat="43.383925" lon="-3.322901">
        <ele>38.934</ele>
        <time>2019-06-16T14:14:04Z</time>
      </trkpt>
      <trkpt lat="43.384054" lon="-3.322904">
        <ele>38.615</ele>
        <time>2019-06-16T14:14:05Z</time>
      </trkpt>
      <trkpt lat="43.384185" lon="-3.322942">
        <ele>38.765</ele>
        <time>2019-06-16T14:14:06Z</time>
      </trkpt>
      <trkpt lat="43.384283" lon="-3.323011">
        <ele>38.911</ele>
        <time>2019-06-16T14:14:07Z</time>
      </trkpt>
      <trkpt lat="43.384378" lon="-3.323095">
        <ele>39.008</ele>
        <time>2019-06-16T14:14:08Z</time>
      </trkpt>
      <trkpt lat="43.384473" lon="-3.323241">
        <ele>39.614</ele>
        <time>2019-06-16T14:14:09Z</time>
      </trkpt>
      <trkpt lat="43.384553" lon="-3.323378">
        <ele>43.488</ele>
        <time>2019-06-16T14:14:10Z</time>
      </trkpt>
      <trkpt lat="43.384618" lon="-3.323556">
        <ele>46.938</ele>
        <time>2019-06-16T14:14:11Z</time>
      </trkpt>
      <trkpt lat="43.384665" lon="-3.323725">
        <ele>48.282</ele>
        <time>2019-06-16T14:14:12Z</time>
      </trkpt>
      <trkpt lat="43.384697" lon="-3.323919">
        <ele>48.191</ele>
        <time>2019-06-16T14:14:13Z</time>
      </trkpt>
      <trkpt lat="43.384773" lon="-3.324084">
        <ele>48.421</ele>
        <time>2019-06-16T14:14:14Z</time>
      </trkpt>
      <trkpt lat="43.384755" lon="-3.324251">
        <ele>48.477</ele>
        <time>2019-06-16T14:14:15Z</time>
      </trkpt>
      <trkpt lat="43.384764" lon="-3.324421">
        <ele>48.516</ele>
        <time>2019-06-16T14:14:16Z</time>
      </trkpt>
      <trkpt lat="43.384724" lon="-3.324508">
        <ele>48.061</ele>
        <time>2019-06-16T14:14:17Z</time>
      </trkpt>
      <trkpt lat="43.384732" lon="-3.324640">
        <ele>48.121</ele>
        <time>2019-06-16T14:14:18Z</time>
      </trkpt>
      <trkpt lat="43.384814" lon="-3.324763">
        <ele>49.513</ele>
        <time>2019-06-16T14:14:19Z</time>
      </trkpt>
      <trkpt lat="43.384815" lon="-3.324899">
        <ele>50.208</ele>
        <time>2019-06-16T14:14:20Z</time>
      </trkpt>
      <trkpt lat="43.384873" lon="-3.325028">
        <ele>51.559</ele>
        <time>2019-06-16T14:14:21Z</time>
      </trkpt>
      <trkpt lat="43.384996" lon="-3.325137">
        <ele>53.093</ele>
        <time>2019-06-16T14:14:22Z</time>
      </trkpt>
      <trkpt lat="43.385070" lon="-3.325297">
        <ele>54.243</ele>
        <time>2019-06-16T14:14:23Z</time>
      </trkpt>
      <trkpt lat="43.385145" lon="-3.325468">
        <ele>55.377</ele>
        <time>2019-06-16T14:14:24Z</time>
      </trkpt>
      <trkpt lat="43.385210" lon="-3.325625">
        <ele>56.296</ele>
        <time>2019-06-16T14:14:25Z</time>
      </trkpt>
      <trkpt lat="43.385270" lon="-3.325812">
        <ele>57.036</ele>
        <time>2019-06-16T14:14:26Z</time>
      </trkpt>
      <trkpt lat="43.385338" lon="-3.325980">
        <ele>57.852</ele>
        <time>2019-06-16T14:14:27Z</time>
      </trkpt>
      <trkpt lat="43.385333" lon="-3.326183">
        <ele>59.941</ele>
        <time>2019-06-16T14:14:28Z</time>
      </trkpt>
      <trkpt lat="43.385380" lon="-3.326352">
        <ele>61.746</ele>
        <time>2019-06-16T14:14:29Z</time>
      </trkpt>
      <trkpt lat="43.385412" lon="-3.326523">
        <ele>61.688</ele>
        <time>2019-06-16T14:14:30Z</time>
      </trkpt>
      <trkpt lat="43.385388" lon="-3.326735">
        <ele>62.516</ele>
        <time>2019-06-16T14:14:31Z</time>
      </trkpt>
      <trkpt lat="43.385383" lon="-3.326915">
        <ele>64.208</ele>
        <time>2019-06-16T14:14:32Z</time>
      </trkpt>
      <trkpt lat="43.385376" lon="-3.327075">
        <ele>64.357</ele>
        <time>2019-06-16T14:14:33Z</time>
      </trkpt>
      <trkpt lat="43.385395" lon="-3.327224">
        <ele>63.531</ele>
        <time>2019-06-16T14:14:34Z</time>
      </trkpt>
      <trkpt lat="43.385399" lon="-3.327356">
        <ele>65.031</ele>
        <time>2019-06-16T14:14:35Z</time>
      </trkpt>
      <trkpt lat="43.385410" lon="-3.327474">
        <ele>66.365</ele>
        <time>2019-06-16T14:14:36Z</time>
      </trkpt>
      <trkpt lat="43.385454" lon="-3.327563">
        <ele>67.474</ele>
        <time>2019-06-16T14:14:37Z</time>
      </trkpt>
      <trkpt lat="43.385618" lon="-3.327554">
        <ele>66.954</ele>
        <time>2019-06-16T14:14:38Z</time>
      </trkpt>
      <trkpt lat="43.385707" lon="-3.327563">
        <ele>67.890</ele>
        <time>2019-06-16T14:14:39Z</time>
      </trkpt>
      <trkpt lat="43.385808" lon="-3.327556">
        <ele>68.499</ele>
        <time>2019-06-16T14:14:40Z</time>
      </trkpt>
      <trkpt lat="43.385911" lon="-3.327557">
        <ele>69.567</ele>
        <time>2019-06-16T14:14:41Z</time>
      </trkpt>
      <trkpt lat="43.386003" lon="-3.327576">
        <ele>71.081</ele>
        <time>2019-06-16T14:14:42Z</time>
      </trkpt>
      <trkpt lat="43.386101" lon="-3.327590">
        <ele>72.219</ele>
        <time>2019-06-16T14:14:43Z</time>
      </trkpt>
      <trkpt lat="43.386199" lon="-3.327644">
        <ele>72.008</ele>
        <time>2019-06-16T14:14:44Z</time>
      </trkpt>
      <trkpt lat="43.386267" lon="-3.327703">
        <ele>71.859</ele>
        <time>2019-06-16T14:14:45Z</time>
      </trkpt>
      <trkpt lat="43.386330" lon="-3.327769">
        <ele>71.733</ele>
        <time>2019-06-16T14:14:46Z</time>
      </trkpt>
      <trkpt lat="43.386262" lon="-3.327939">
        <ele>73.333</ele>
        <time>2019-06-16T14:14:47Z</time>
      </trkpt>
      <trkpt lat="43.386223" lon="-3.328059">
        <ele>74.947</ele>
        <time>2019-06-16T14:14:48Z</time>
      </trkpt>
      <trkpt lat="43.386198" lon="-3.328183">
        <ele>74.846</ele>
        <time>2019-06-16T14:14:49Z</time>
      </trkpt>
      <trkpt lat="43.386136" lon="-3.328370">
        <ele>75.886</ele>
        <time>2019-06-16T14:14:50Z</time>
      </trkpt>
      <trkpt lat="43.386092" lon="-3.328508">
        <ele>76.442</ele>
        <time>2019-06-16T14:14:51Z</time>
      </trkpt>
      <trkpt lat="43.386049" lon="-3.328646">
        <ele>77.851</ele>
        <time>2019-06-16T14:14:52Z</time>
      </trkpt>
      <trkpt lat="43.386044" lon="-3.328781">
        <ele>79.582</ele>
        <time>2019-06-16T14:14:53Z</time>
      </trkpt>
      <trkpt lat="43.386038" lon="-3.328913">
        <ele>81.443</ele>
        <time>2019-06-16T14:14:54Z</time>
      </trkpt>
      <trkpt lat="43.386140" lon="-3.329024">
        <ele>79.317</ele>
        <time>2019-06-16T14:14:55Z</time>
      </trkpt>
      <trkpt lat="43.386184" lon="-3.329095">
        <ele>80.508</ele>
        <time>2019-06-16T14:14:56Z</time>
      </trkpt>
      <trkpt lat="43.386238" lon="-3.329166">
        <ele>82.021</ele>
        <time>2019-06-16T14:14:57Z</time>
      </trkpt>
      <trkpt lat="43.386331" lon="-3.329190">
        <ele>82.675</ele>
        <time>2019-06-16T14:14:58Z</time>
      </trkpt>
      <trkpt lat="43.386400" lon="-3.329193">
        <ele>82.765</ele>
        <time>2019-06-16T14:14:59Z</time>
      </trkpt>
      <trkpt lat="43.386538" lon="-3.329213">
        <ele>83.659</ele>
        <time>2019-06-16T14:15:00Z</time>
      </trkpt>
      <trkpt lat="43.386721" lon="-3.329229">
        <ele>84.778</ele>
        <time>2019-06-16T14:15:01Z</time>
      </trkpt>
      <trkpt lat="43.386870" lon="-3.329249">
        <ele>86.098</ele>
        <time>2019-06-16T14:15:02Z</time>
      </trkpt>
      <trkpt lat="43.387003" lon="-3.329262">
        <ele>87.454</ele>
        <time>2019-06-16T14:15:03Z</time>
      </trkpt>
      <trkpt lat="43.387128" lon="-3.329267">
        <ele>88.863</ele>
        <time>2019-06-16T14:15:04Z</time>
      </trkpt>
      <trkpt lat="43.387292" lon="-3.329299">
        <ele>90.626</ele>
        <time>2019-06-16T14:15:05Z</time>
      </trkpt>
      <trkpt lat="43.387387" lon="-3.329356">
        <ele>91.647</ele>
        <time>2019-06-16T14:15:06Z</time>
      </trkpt>
      <trkpt lat="43.387480" lon="-3.329452">
        <ele>93.411</ele>
        <time>2019-06-16T14:15:07Z</time>
      </trkpt>
      <trkpt lat="43.387589" lon="-3.329548">
        <ele>94.308</ele>
        <time>2019-06-16T14:15:08Z</time>
      </trkpt>
      <trkpt lat="43.387661" lon="-3.329685">
        <ele>95.995</ele>
        <time>2019-06-16T14:15:09Z</time>
      </trkpt>
      <trkpt lat="43.387732" lon="-3.329749">
        <ele>95.289</ele>
        <time>2019-06-16T14:15:10Z</time>
      </trkpt>
      <trkpt lat="43.387830" lon="-3.329810">
        <ele>95.699</ele>
        <time>2019-06-16T14:15:11Z</time>
      </trkpt>
      <trkpt lat="43.387936" lon="-3.329848">
        <ele>97.553</ele>
        <time>2019-06-16T14:15:12Z</time>
      </trkpt>
      <trkpt lat="43.388047" lon="-3.329863">
        <ele>99.022</ele>
        <time>2019-06-16T14:15:13Z</time>
      </trkpt>
      <trkpt lat="43.388164" lon="-3.329799">
        <ele>97.992</ele>
        <time>2019-06-16T14:15:14Z</time>
      </trkpt>
      <trkpt lat="43.388277" lon="-3.329789">
        <ele>98.888</ele>
        <time>2019-06-16T14:15:15Z</time>
      </trkpt>
      <trkpt lat="43.388389" lon="-3.329821">
        <ele>100.357</ele>
        <time>2019-06-16T14:15:16Z</time>
      </trkpt>
      <trkpt lat="43.388519" lon="-3.329863">
        <ele>100.486</ele>
        <time>2019-06-16T14:15:17Z</time>
      </trkpt>
      <trkpt lat="43.388621" lon="-3.329941">
        <ele>100.260</ele>
        <time>2019-06-16T14:15:18Z</time>
      </trkpt>
      <trkpt lat="43.388707" lon="-3.330033">
        <ele>100.726</ele>
        <time>2019-06-16T14:15:19Z</time>
      </trkpt>
      <trkpt lat="43.388790" lon="-3.330172">
        <ele>102.208</ele>
        <time>2019-06-16T14:15:20Z</time>
      </trkpt>
      <trkpt lat="43.388863" lon="-3.330323">
        <ele>102.871</ele>
        <time>2019-06-16T14:15:21Z</time>
      </trkpt>
      <trkpt lat="43.388930" lon="-3.330535">
        <ele>102.535</ele>
        <time>2019-06-16T14:15:22Z</time>
      </trkpt>
      <trkpt lat="43.388986" lon="-3.330751">
        <ele>104.775</ele>
        <time>2019-06-16T14:15:23Z</time>
      </trkpt>
      <trkpt lat="43.389066" lon="-3.330928">
        <ele>106.189</ele>
        <time>2019-06-16T14:15:24Z</time>
      </trkpt>
      <trkpt lat="43.389147" lon="-3.331117">
        <ele>107.628</ele>
        <time>2019-06-16T14:15:25Z</time>
      </trkpt>
      <trkpt lat="43.389228" lon="-3.331313">
        <ele>107.568</ele>
        <time>2019-06-16T14:15:26Z</time>
      </trkpt>
      <trkpt lat="43.389324" lon="-3.331513">
        <ele>108.314</ele>
        <time>2019-06-16T14:15:27Z</time>
      </trkpt>
      <trkpt lat="43.389419" lon="-3.331714">
        <ele>109.473</ele>
        <time>2019-06-16T14:15:28Z</time>
      </trkpt>
      <trkpt lat="43.389502" lon="-3.331906">
        <ele>109.335</ele>
        <time>2019-06-16T14:15:29Z</time>
      </trkpt>
      <trkpt lat="43.389583" lon="-3.332091">
        <ele>110.486</ele>
        <time>2019-06-16T14:15:30Z</time>
      </trkpt>
      <trkpt lat="43.389680" lon="-3.332269">
        <ele>111.414</ele>
        <time>2019-06-16T14:15:31Z</time>
      </trkpt>
      <trkpt lat="43.389790" lon="-3.332446">
        <ele>112.108</ele>
        <time>2019-06-16T14:15:32Z</time>
      </trkpt>
      <trkpt lat="43.389922" lon="-3.332606">
        <ele>113.656</ele>
        <time>2019-06-16T14:15:33Z</time>
      </trkpt>
      <trkpt lat="43.390020" lon="-3.332773">
        <ele>116.140</ele>
        <time>2019-06-16T14:15:34Z</time>
      </trkpt>
      <trkpt lat="43.390136" lon="-3.332952">
        <ele>116.950</ele>
        <time>2019-06-16T14:15:35Z</time>
      </trkpt>
      <trkpt lat="43.390233" lon="-3.333128">
        <ele>118.524</ele>
        <time>2019-06-16T14:15:36Z</time>
      </trkpt>
      <trkpt lat="43.390339" lon="-3.333295">
        <ele>118.243</ele>
        <time>2019-06-16T14:15:37Z</time>
      </trkpt>
      <trkpt lat="43.390410" lon="-3.333462">
        <ele>118.123</ele>
        <time>2019-06-16T14:15:38Z</time>
      </trkpt>
      <trkpt lat="43.390495" lon="-3.333629">
        <ele>117.729</ele>
        <time>2019-06-16T14:15:39Z</time>
      </trkpt>
      <trkpt lat="43.390557" lon="-3.333841">
        <ele>118.348</ele>
        <time>2019-06-16T14:15:40Z</time>
      </trkpt>
      <trkpt lat="43.390605" lon="-3.334052">
        <ele>118.441</ele>
        <time>2019-06-16T14:15:41Z</time>
      </trkpt>
      <trkpt lat="43.390600" lon="-3.334284">
        <ele>121.381</ele>
        <time>2019-06-16T14:15:42Z</time>
      </trkpt>
      <trkpt lat="43.390629" lon="-3.334535">
        <ele>122.509</ele>
        <time>2019-06-16T14:15:43Z</time>
      </trkpt>
      <trkpt lat="43.390667" lon="-3.334785">
        <ele>122.308</ele>
        <time>2019-06-16T14:15:44Z</time>
      </trkpt>
      <trkpt lat="43.390698" lon="-3.335042">
        <ele>122.237</ele>
        <time>2019-06-16T14:15:45Z</time>
      </trkpt>
      <trkpt lat="43.390715" lon="-3.335309">
        <ele>123.651</ele>
        <time>2019-06-16T14:15:46Z</time>
      </trkpt>
      <trkpt lat="43.390744" lon="-3.335549">
        <ele>123.831</ele>
        <time>2019-06-16T14:15:47Z</time>
      </trkpt>
      <trkpt lat="43.390765" lon="-3.335793">
        <ele>124.625</ele>
        <time>2019-06-16T14:15:48Z</time>
      </trkpt>
      <trkpt lat="43.390788" lon="-3.336025">
        <ele>125.084</ele>
        <time>2019-06-16T14:15:49Z</time>
      </trkpt>
      <trkpt lat="43.390836" lon="-3.336261">
        <ele>124.524</ele>
        <time>2019-06-16T14:15:50Z</time>
      </trkpt>
      <trkpt lat="43.390891" lon="-3.336476">
        <ele>124.890</ele>
        <time>2019-06-16T14:15:51Z</time>
      </trkpt>
      <trkpt lat="43.390941" lon="-3.336694">
        <ele>124.639</ele>
        <time>2019-06-16T14:15:52Z</time>
      </trkpt>
      <trkpt lat="43.391013" lon="-3.336860">
        <ele>122.096</ele>
        <time>2019-06-16T14:15:53Z</time>
      </trkpt>
      <trkpt lat="43.391157" lon="-3.337035">
        <ele>122.731</ele>
        <time>2019-06-16T14:15:54Z</time>
      </trkpt>
      <trkpt lat="43.391255" lon="-3.337181">
        <ele>126.624</ele>
        <time>2019-06-16T14:15:55Z</time>
      </trkpt>
      <trkpt lat="43.391353" lon="-3.337344">
        <ele>130.108</ele>
        <time>2019-06-16T14:15:56Z</time>
      </trkpt>
      <trkpt lat="43.391419" lon="-3.337510">
        <ele>131.452</ele>
        <time>2019-06-16T14:15:57Z</time>
      </trkpt>
      <trkpt lat="43.391509" lon="-3.337696">
        <ele>132.496</ele>
        <time>2019-06-16T14:15:58Z</time>
      </trkpt>
      <trkpt lat="43.391556" lon="-3.337883">
        <ele>133.046</ele>
        <time>2019-06-16T14:15:59Z</time>
      </trkpt>
      <trkpt lat="43.391512" lon="-3.338095">
        <ele>133.340</ele>
        <time>2019-06-16T14:16:00Z</time>
      </trkpt>
      <trkpt lat="43.391487" lon="-3.338338">
        <ele>135.659</ele>
        <time>2019-06-16T14:16:01Z</time>
      </trkpt>
      <trkpt lat="43.391453" lon="-3.338554">
        <ele>136.619</ele>
        <time>2019-06-16T14:16:02Z</time>
      </trkpt>
      <trkpt lat="43.391363" lon="-3.338770">
        <ele>135.945</ele>
        <time>2019-06-16T14:16:03Z</time>
      </trkpt>
      <trkpt lat="43.391297" lon="-3.338998">
        <ele>137.564</ele>
        <time>2019-06-16T14:16:04Z</time>
      </trkpt>
      <trkpt lat="43.391222" lon="-3.339212">
        <ele>137.946</ele>
        <time>2019-06-16T14:16:05Z</time>
      </trkpt>
      <trkpt lat="43.391144" lon="-3.339437">
        <ele>136.988</ele>
        <time>2019-06-16T14:16:06Z</time>
      </trkpt>
      <trkpt lat="43.391076" lon="-3.339655">
        <ele>136.616</ele>
        <time>2019-06-16T14:16:07Z</time>
      </trkpt>
      <trkpt lat="43.391018" lon="-3.339898">
        <ele>137.908</ele>
        <time>2019-06-16T14:16:08Z</time>
      </trkpt>
      <trkpt lat="43.390980" lon="-3.340148">
        <ele>138.377</ele>
        <time>2019-06-16T14:16:09Z</time>
      </trkpt>
      <trkpt lat="43.390950" lon="-3.340371">
        <ele>137.331</ele>
        <time>2019-06-16T14:16:10Z</time>
      </trkpt>
      <trkpt lat="43.390937" lon="-3.340593">
        <ele>136.371</ele>
        <time>2019-06-16T14:16:11Z</time>
      </trkpt>
      <trkpt lat="43.390934" lon="-3.340808">
        <ele>133.745</ele>
        <time>2019-06-16T14:16:12Z</time>
      </trkpt>
      <trkpt lat="43.391021" lon="-3.341029">
        <ele>135.364</ele>
        <time>2019-06-16T14:16:13Z</time>
      </trkpt>
      <trkpt lat="43.391082" lon="-3.341255">
        <ele>134.954</ele>
        <time>2019-06-16T14:16:14Z</time>
      </trkpt>
      <trkpt lat="43.391147" lon="-3.341489">
        <ele>135.430</ele>
        <time>2019-06-16T14:16:15Z</time>
      </trkpt>
      <trkpt lat="43.391216" lon="-3.341722">
        <ele>136.029</ele>
        <time>2019-06-16T14:16:16Z</time>
      </trkpt>
      <trkpt lat="43.391306" lon="-3.341929">
        <ele>136.854</ele>
        <time>2019-06-16T14:16:17Z</time>
      </trkpt>
      <trkpt lat="43.391407" lon="-3.342137">
        <ele>137.356</ele>
        <time>2019-06-16T14:16:18Z</time>
      </trkpt>
      <trkpt lat="43.391507" lon="-3.342327">
        <ele>137.211</ele>
        <time>2019-06-16T14:16:19Z</time>
      </trkpt>
      <trkpt lat="43.391600" lon="-3.342526">
        <ele>134.008</ele>
        <time>2019-06-16T14:16:20Z</time>
      </trkpt>
      <trkpt lat="43.391742" lon="-3.342667">
        <ele>136.688</ele>
        <time>2019-06-16T14:16:21Z</time>
      </trkpt>
      <trkpt lat="43.391891" lon="-3.342840">
        <ele>135.742</ele>
        <time>2019-06-16T14:16:22Z</time>
      </trkpt>
      <trkpt lat="43.392051" lon="-3.342993">
        <ele>135.452</ele>
        <time>2019-06-16T14:16:23Z</time>
      </trkpt>
      <trkpt lat="43.392240" lon="-3.343092">
        <ele>135.876</ele>
        <time>2019-06-16T14:16:24Z</time>
      </trkpt>
      <trkpt lat="43.392413" lon="-3.343216">
        <ele>137.165</ele>
        <time>2019-06-16T14:16:25Z</time>
      </trkpt>
      <trkpt lat="43.392639" lon="-3.343332">
        <ele>137.155</ele>
        <time>2019-06-16T14:16:26Z</time>
      </trkpt>
      <trkpt lat="43.392823" lon="-3.343460">
        <ele>137.671</ele>
        <time>2019-06-16T14:16:27Z</time>
      </trkpt>
      <trkpt lat="43.392992" lon="-3.343602">
        <ele>137.930</ele>
        <time>2019-06-16T14:16:28Z</time>
      </trkpt>
      <trkpt lat="43.393155" lon="-3.343781">
        <ele>139.163</ele>
        <time>2019-06-16T14:16:29Z</time>
      </trkpt>
      <trkpt lat="43.393312" lon="-3.343893">
        <ele>140.444</ele>
        <time>2019-06-16T14:16:30Z</time>
      </trkpt>
      <trkpt lat="43.393463" lon="-3.344051">
        <ele>141.918</ele>
        <time>2019-06-16T14:16:31Z</time>
      </trkpt>
      <trkpt lat="43.393576" lon="-3.344202">
        <ele>140.508</ele>
        <time>2019-06-16T14:16:32Z</time>
      </trkpt>
      <trkpt lat="43.393660" lon="-3.344362">
        <ele>140.399</ele>
        <time>2019-06-16T14:16:33Z</time>
      </trkpt>
      <trkpt lat="43.393757" lon="-3.344528">
        <ele>140.963</ele>
        <time>2019-06-16T14:16:34Z</time>
      </trkpt>
      <trkpt lat="43.393801" lon="-3.344700">
        <ele>139.213</ele>
        <time>2019-06-16T14:16:35Z</time>
      </trkpt>
      <trkpt lat="43.393836" lon="-3.344880">
        <ele>138.267</ele>
        <time>2019-06-16T14:16:36Z</time>
      </trkpt>
      <trkpt lat="43.393861" lon="-3.345068">
        <ele>137.836</ele>
        <time>2019-06-16T14:16:37Z</time>
      </trkpt>
      <trkpt lat="43.393837" lon="-3.345252">
        <ele>138.136</ele>
        <time>2019-06-16T14:16:38Z</time>
      </trkpt>
      <trkpt lat="43.393834" lon="-3.345441">
        <ele>141.442</ele>
        <time>2019-06-16T14:16:39Z</time>
      </trkpt>
      <trkpt lat="43.393729" lon="-3.345736">
        <ele>144.461</ele>
        <time>2019-06-16T14:16:40Z</time>
      </trkpt>
      <trkpt lat="43.393636" lon="-3.345978">
        <ele>147.184</ele>
        <time>2019-06-16T14:16:41Z</time>
      </trkpt>
      <trkpt lat="43.393474" lon="-3.346176">
        <ele>145.207</ele>
        <time>2019-06-16T14:16:42Z</time>
      </trkpt>
      <trkpt lat="43.393352" lon="-3.346385">
        <ele>142.917</ele>
        <time>2019-06-16T14:16:43Z</time>
      </trkpt>
      <trkpt lat="43.393238" lon="-3.346635">
        <ele>143.408</ele>
        <time>2019-06-16T14:16:44Z</time>
      </trkpt>
      <trkpt lat="43.393143" lon="-3.346850">
        <ele>142.051</ele>
        <time>2019-06-16T14:16:45Z</time>
      </trkpt>
      <trkpt lat="43.393042" lon="-3.347118">
        <ele>142.315</ele>
        <time>2019-06-16T14:16:46Z</time>
      </trkpt>
      <trkpt lat="43.392922" lon="-3.347398">
        <ele>143.635</ele>
        <time>2019-06-16T14:16:47Z</time>
      </trkpt>
      <trkpt lat="43.392786" lon="-3.347681">
        <ele>142.669</ele>
        <time>2019-06-16T14:16:48Z</time>
      </trkpt>
      <trkpt lat="43.392655" lon="-3.347912">
        <ele>143.128</ele>
        <time>2019-06-16T14:16:49Z</time>
      </trkpt>
      <trkpt lat="43.392509" lon="-3.348160">
        <ele>141.818</ele>
        <time>2019-06-16T14:16:50Z</time>
      </trkpt>
      <trkpt lat="43.392326" lon="-3.348344">
        <ele>140.394</ele>
        <time>2019-06-16T14:16:51Z</time>
      </trkpt>
      <trkpt lat="43.392146" lon="-3.348553">
        <ele>140.623</ele>
        <time>2019-06-16T14:16:52Z</time>
      </trkpt>
      <trkpt lat="43.391999" lon="-3.348790">
        <ele>143.562</ele>
        <time>2019-06-16T14:16:53Z</time>
      </trkpt>
      <trkpt lat="43.391810" lon="-3.348981">
        <ele>142.383</ele>
        <time>2019-06-16T14:16:54Z</time>
      </trkpt>
      <trkpt lat="43.391658" lon="-3.349157">
        <ele>140.711</ele>
        <time>2019-06-16T14:16:55Z</time>
      </trkpt>
      <trkpt lat="43.391513" lon="-3.349332">
        <ele>143.108</ele>
        <time>2019-06-16T14:16:56Z</time>
      </trkpt>
      <trkpt lat="43.391392" lon="-3.349508">
        <ele>142.549</ele>
        <time>2019-06-16T14:16:57Z</time>
      </trkpt>
      <trkpt lat="43.391279" lon="-3.349694">
        <ele>143.343</ele>
        <time>2019-06-16T14:16:58Z</time>
      </trkpt>
      <trkpt lat="43.391163" lon="-3.349872">
        <ele>142.363</ele>
        <time>2019-06-16T14:16:59Z</time>
      </trkpt>
      <trkpt lat="43.391066" lon="-3.350060">
        <ele>141.747</ele>
        <time>2019-06-16T14:17:00Z</time>
      </trkpt>
      <trkpt lat="43.391002" lon="-3.350263">
        <ele>141.996</ele>
        <time>2019-06-16T14:17:01Z</time>
      </trkpt>
      <trkpt lat="43.390978" lon="-3.350524">
        <ele>142.116</ele>
        <time>2019-06-16T14:17:02Z</time>
      </trkpt>
      <trkpt lat="43.390973" lon="-3.350752">
        <ele>142.052</ele>
        <time>2019-06-16T14:17:03Z</time>
      </trkpt>
      <trkpt lat="43.390989" lon="-3.351020">
        <ele>141.651</ele>
        <time>2019-06-16T14:17:04Z</time>
      </trkpt>
      <trkpt lat="43.390995" lon="-3.351282">
        <ele>141.956</ele>
        <time>2019-06-16T14:17:05Z</time>
      </trkpt>
      <trkpt lat="43.390999" lon="-3.351535">
        <ele>141.959</ele>
        <time>2019-06-16T14:17:06Z</time>
      </trkpt>
      <trkpt lat="43.391007" lon="-3.351773">
        <ele>140.414</ele>
        <time>2019-06-16T14:17:07Z</time>
      </trkpt>
      <trkpt lat="43.391019" lon="-3.352001">
        <ele>138.608</ele>
        <time>2019-06-16T14:17:08Z</time>
      </trkpt>
      <trkpt lat="43.391034" lon="-3.352221">
        <ele>137.538</ele>
        <time>2019-06-16T14:17:09Z</time>
      </trkpt>
      <trkpt lat="43.391071" lon="-3.352443">
        <ele>137.652</ele>
        <time>2019-06-16T14:17:10Z</time>
      </trkpt>
      <trkpt lat="43.391127" lon="-3.352621">
        <ele>138.342</ele>
        <time>2019-06-16T14:17:11Z</time>
      </trkpt>
      <trkpt lat="43.391212" lon="-3.352800">
        <ele>138.146</ele>
        <time>2019-06-16T14:17:12Z</time>
      </trkpt>
      <trkpt lat="43.391309" lon="-3.352990">
        <ele>136.615</ele>
        <time>2019-06-16T14:17:13Z</time>
      </trkpt>
      <trkpt lat="43.391420" lon="-3.353176">
        <ele>136.685</ele>
        <time>2019-06-16T14:17:14Z</time>
      </trkpt>
      <trkpt lat="43.391570" lon="-3.353355">
        <ele>135.571</ele>
        <time>2019-06-16T14:17:15Z</time>
      </trkpt>
      <trkpt lat="43.391705" lon="-3.353529">
        <ele>134.110</ele>
        <time>2019-06-16T14:17:16Z</time>
      </trkpt>
      <trkpt lat="43.391844" lon="-3.353725">
        <ele>131.056</ele>
        <time>2019-06-16T14:17:17Z</time>
      </trkpt>
      <trkpt lat="43.391982" lon="-3.353908">
        <ele>129.159</ele>
        <time>2019-06-16T14:17:18Z</time>
      </trkpt>
      <trkpt lat="43.392124" lon="-3.354090">
        <ele>127.114</ele>
        <time>2019-06-16T14:17:19Z</time>
      </trkpt>
      <trkpt lat="43.392250" lon="-3.354266">
        <ele>126.108</ele>
        <time>2019-06-16T14:17:20Z</time>
      </trkpt>
      <trkpt lat="43.392387" lon="-3.354441">
        <ele>123.718</ele>
        <time>2019-06-16T14:17:21Z</time>
      </trkpt>
      <trkpt lat="43.392531" lon="-3.354615">
        <ele>123.162</ele>
        <time>2019-06-16T14:17:22Z</time>
      </trkpt>
      <trkpt lat="43.392678" lon="-3.354780">
        <ele>121.612</ele>
        <time>2019-06-16T14:17:23Z</time>
      </trkpt>
      <trkpt lat="43.392838" lon="-3.354877">
        <ele>121.426</ele>
        <time>2019-06-16T14:17:24Z</time>
      </trkpt>
      <trkpt lat="43.393006" lon="-3.354991">
        <ele>119.065</ele>
        <time>2019-06-16T14:17:25Z</time>
      </trkpt>
      <trkpt lat="43.393167" lon="-3.355115">
        <ele>117.795</ele>
        <time>2019-06-16T14:17:26Z</time>
      </trkpt>
      <trkpt lat="43.393340" lon="-3.355223">
        <ele>116.831</ele>
        <time>2019-06-16T14:17:27Z</time>
      </trkpt>
      <trkpt lat="43.393536" lon="-3.355259">
        <ele>115.890</ele>
        <time>2019-06-16T14:17:28Z</time>
      </trkpt>
      <trkpt lat="43.393732" lon="-3.355323">
        <ele>114.316</ele>
        <time>2019-06-16T14:17:29Z</time>
      </trkpt>
      <trkpt lat="43.393951" lon="-3.355346">
        <ele>112.976</ele>
        <time>2019-06-16T14:17:30Z</time>
      </trkpt>
      <trkpt lat="43.394146" lon="-3.355370">
        <ele>112.713</ele>
        <time>2019-06-16T14:17:31Z</time>
      </trkpt>
      <trkpt lat="43.394341" lon="-3.355417">
        <ele>111.508</ele>
        <time>2019-06-16T14:17:32Z</time>
      </trkpt>
      <trkpt lat="43.394517" lon="-3.355490">
        <ele>107.884</ele>
        <time>2019-06-16T14:17:33Z</time>
      </trkpt>
      <trkpt lat="43.394712" lon="-3.355554">
        <ele>103.218</ele>
        <time>2019-06-16T14:17:34Z</time>
      </trkpt>
      <trkpt lat="43.394920" lon="-3.355624">
        <ele>101.798</ele>
        <time>2019-06-16T14:17:35Z</time>
      </trkpt>
      <trkpt lat="43.395139" lon="-3.355721">
        <ele>100.792</ele>
        <time>2019-06-16T14:17:36Z</time>
      </trkpt>
      <trkpt lat="43.395349" lon="-3.355867">
        <ele>96.881</ele>
        <time>2019-06-16T14:17:37Z</time>
      </trkpt>
      <trkpt lat="43.395535" lon="-3.355965">
        <ele>96.441</ele>
        <time>2019-06-16T14:17:38Z</time>
      </trkpt>
      <trkpt lat="43.395751" lon="-3.356090">
        <ele>96.757</ele>
        <time>2019-06-16T14:17:39Z</time>
      </trkpt>
      <trkpt lat="43.395936" lon="-3.356253">
        <ele>95.976</ele>
        <time>2019-06-16T14:17:40Z</time>
      </trkpt>
      <trkpt lat="43.396120" lon="-3.356414">
        <ele>92.955</ele>
        <time>2019-06-16T14:17:41Z</time>
      </trkpt>
      <trkpt lat="43.396288" lon="-3.356564">
        <ele>93.507</ele>
        <time>2019-06-16T14:17:42Z</time>
      </trkpt>
      <trkpt lat="43.396408" lon="-3.356747">
        <ele>88.917</ele>
        <time>2019-06-16T14:17:43Z</time>
      </trkpt>
      <trkpt lat="43.396519" lon="-3.356887">
        <ele>88.208</ele>
        <time>2019-06-16T14:17:44Z</time>
      </trkpt>
      <trkpt lat="43.396641" lon="-3.357025">
        <ele>86.798</ele>
        <time>2019-06-16T14:17:45Z</time>
      </trkpt>
      <trkpt lat="43.396750" lon="-3.357132">
        <ele>86.972</ele>
        <time>2019-06-16T14:17:46Z</time>
      </trkpt>
      <trkpt lat="43.396830" lon="-3.357326">
        <ele>84.162</ele>
        <time>2019-06-16T14:17:47Z</time>
      </trkpt>
      <trkpt lat="43.396889" lon="-3.357540">
        <ele>81.826</ele>
        <time>2019-06-16T14:17:48Z</time>
      </trkpt>
      <trkpt lat="43.396921" lon="-3.357763">
        <ele>81.615</ele>
        <time>2019-06-16T14:17:49Z</time>
      </trkpt>
      <trkpt lat="43.396929" lon="-3.357967">
        <ele>80.465</ele>
        <time>2019-06-16T14:17:50Z</time>
      </trkpt>
      <trkpt lat="43.396898" lon="-3.358164">
        <ele>79.911</ele>
        <time>2019-06-16T14:17:51Z</time>
      </trkpt>
      <trkpt lat="43.396789" lon="-3.358364">
        <ele>79.710</ele>
        <time>2019-06-16T14:17:52Z</time>
      </trkpt>
      <trkpt lat="43.396604" lon="-3.358478">
        <ele>78.944</ele>
        <time>2019-06-16T14:17:53Z</time>
      </trkpt>
      <trkpt lat="43.396491" lon="-3.358640">
        <ele>79.205</ele>
        <time>2019-06-16T14:17:54Z</time>
      </trkpt>
      <trkpt lat="43.396344" lon="-3.358685">
        <ele>78.615</ele>
        <time>2019-06-16T14:17:55Z</time>
      </trkpt>
      <trkpt lat="43.396209" lon="-3.358762">
        <ele>79.108</ele>
        <time>2019-06-16T14:17:56Z</time>
      </trkpt>
      <trkpt lat="43.396044" lon="-3.358720">
        <ele>76.037</ele>
        <time>2019-06-16T14:17:57Z</time>
      </trkpt>
      <trkpt lat="43.395906" lon="-3.358700">
        <ele>74.171</ele>
        <time>2019-06-16T14:17:58Z</time>
      </trkpt>
      <trkpt lat="43.395751" lon="-3.358664">
        <ele>71.681</ele>
        <time>2019-06-16T14:17:59Z</time>
      </trkpt>
      <trkpt lat="43.395585" lon="-3.358545">
        <ele>69.575</ele>
        <time>2019-06-16T14:18:00Z</time>
      </trkpt>
      <trkpt lat="43.395442" lon="-3.358398">
        <ele>67.274</ele>
        <time>2019-06-16T14:18:01Z</time>
      </trkpt>
      <trkpt lat="43.395315" lon="-3.358188">
        <ele>65.194</ele>
        <time>2019-06-16T14:18:02Z</time>
      </trkpt>
      <trkpt lat="43.395171" lon="-3.358035">
        <ele>62.710</ele>
        <time>2019-06-16T14:18:03Z</time>
      </trkpt>
      <trkpt lat="43.395055" lon="-3.357904">
        <ele>61.649</ele>
        <time>2019-06-16T14:18:04Z</time>
      </trkpt>
      <trkpt lat="43.394918" lon="-3.357758">
        <ele>61.642</ele>
        <time>2019-06-16T14:18:05Z</time>
      </trkpt>
      <trkpt lat="43.394794" lon="-3.357610">
        <ele>60.922</ele>
        <time>2019-06-16T14:18:06Z</time>
      </trkpt>
      <trkpt lat="43.394638" lon="-3.357481">
        <ele>61.314</ele>
        <time>2019-06-16T14:18:07Z</time>
      </trkpt>
      <trkpt lat="43.394491" lon="-3.357346">
        <ele>62.908</ele>
        <time>2019-06-16T14:18:08Z</time>
      </trkpt>
      <trkpt lat="43.394343" lon="-3.357436">
        <ele>60.167</ele>
        <time>2019-06-16T14:18:09Z</time>
      </trkpt>
      <trkpt lat="43.394209" lon="-3.357394">
        <ele>60.981</ele>
        <time>2019-06-16T14:18:10Z</time>
      </trkpt>
      <trkpt lat="43.394067" lon="-3.357471">
        <ele>58.251</ele>
        <time>2019-06-16T14:18:11Z</time>
      </trkpt>
      <trkpt lat="43.393950" lon="-3.357542">
        <ele>56.525</ele>
        <time>2019-06-16T14:18:12Z</time>
      </trkpt>
      <trkpt lat="43.393826" lon="-3.357658">
        <ele>55.224</ele>
        <time>2019-06-16T14:18:13Z</time>
      </trkpt>
      <trkpt lat="43.393722" lon="-3.357804">
        <ele>53.374</ele>
        <time>2019-06-16T14:18:14Z</time>
      </trkpt>
      <trkpt lat="43.393627" lon="-3.357949">
        <ele>52.110</ele>
        <time>2019-06-16T14:18:15Z</time>
      </trkpt>
      <trkpt lat="43.393566" lon="-3.358137">
        <ele>50.389</ele>
        <time>2019-06-16T14:18:16Z</time>
      </trkpt>
      <trkpt lat="43.393602" lon="-3.358298">
        <ele>48.542</ele>
        <time>2019-06-16T14:18:17Z</time>
      </trkpt>
      <trkpt lat="43.393600" lon="-3.358519">
        <ele>47.522</ele>
        <time>2019-06-16T14:18:18Z</time>
      </trkpt>
      <trkpt lat="43.393614" lon="-3.358715">
        <ele>46.614</ele>
        <time>2019-06-16T14:18:19Z</time>
      </trkpt>
      <trkpt lat="43.393631" lon="-3.358927">
        <ele>46.008</ele>
        <time>2019-06-16T14:18:20Z</time>
      </trkpt>
      <trkpt lat="43.393688" lon="-3.359113">
        <ele>46.337</ele>
        <time>2019-06-16T14:18:21Z</time>
      </trkpt>
      <trkpt lat="43.393767" lon="-3.359272">
        <ele>45.791</ele>
        <time>2019-06-16T14:18:22Z</time>
      </trkpt>
      <trkpt lat="43.393888" lon="-3.359457">
        <ele>43.131</ele>
        <time>2019-06-16T14:18:23Z</time>
      </trkpt>
      <trkpt lat="43.394138" lon="-3.359637">
        <ele>40.015</ele>
        <time>2019-06-16T14:18:24Z</time>
      </trkpt>
      <trkpt lat="43.394361" lon="-3.359808">
        <ele>37.254</ele>
        <time>2019-06-16T14:18:25Z</time>
      </trkpt>
      <trkpt lat="43.394519" lon="-3.359970">
        <ele>36.244</ele>
        <time>2019-06-16T14:18:26Z</time>
      </trkpt>
      <trkpt lat="43.394677" lon="-3.360154">
        <ele>34.820</ele>
        <time>2019-06-16T14:18:27Z</time>
      </trkpt>
      <trkpt lat="43.394852" lon="-3.360323">
        <ele>33.979</ele>
        <time>2019-06-16T14:18:28Z</time>
      </trkpt>
      <trkpt lat="43.395064" lon="-3.360478">
        <ele>32.898</ele>
        <time>2019-06-16T14:18:29Z</time>
      </trkpt>
      <trkpt lat="43.395254" lon="-3.360617">
        <ele>31.015</ele>
        <time>2019-06-16T14:18:30Z</time>
      </trkpt>
      <trkpt lat="43.395443" lon="-3.360751">
        <ele>31.426</ele>
        <time>2019-06-16T14:18:31Z</time>
      </trkpt>
      <trkpt lat="43.395621" lon="-3.360884">
        <ele>29.008</ele>
        <time>2019-06-16T14:18:32Z</time>
      </trkpt>
      <trkpt lat="43.395795" lon="-3.361016">
        <ele>27.712</ele>
        <time>2019-06-16T14:18:33Z</time>
      </trkpt>
      <trkpt lat="43.395969" lon="-3.361156">
        <ele>24.886</ele>
        <time>2019-06-16T14:18:34Z</time>
      </trkpt>
      <trkpt lat="43.396126" lon="-3.361259">
        <ele>23.446</ele>
        <time>2019-06-16T14:18:35Z</time>
      </trkpt>
      <trkpt lat="43.396289" lon="-3.361378">
        <ele>21.040</ele>
        <time>2019-06-16T14:18:36Z</time>
      </trkpt>
      <trkpt lat="43.396424" lon="-3.361506">
        <ele>19.159</ele>
        <time>2019-06-16T14:18:37Z</time>
      </trkpt>
      <trkpt lat="43.396537" lon="-3.361611">
        <ele>17.989</ele>
        <time>2019-06-16T14:18:38Z</time>
      </trkpt>
      <trkpt lat="43.396644" lon="-3.361752">
        <ele>18.535</ele>
        <time>2019-06-16T14:18:39Z</time>
      </trkpt>
      <trkpt lat="43.396710" lon="-3.361864">
        <ele>19.424</ele>
        <time>2019-06-16T14:18:40Z</time>
      </trkpt>
      <trkpt lat="43.396831" lon="-3.361996">
        <ele>20.178</ele>
        <time>2019-06-16T14:18:41Z</time>
      </trkpt>
      <trkpt lat="43.396838" lon="-3.362093">
        <ele>20.333</ele>
        <time>2019-06-16T14:18:42Z</time>
      </trkpt>
      <trkpt lat="43.396894" lon="-3.362194">
        <ele>20.726</ele>
        <time>2019-06-16T14:18:43Z</time>
      </trkpt>
      <trkpt lat="43.396938" lon="-3.362292">
        <ele>21.008</ele>
        <time>2019-06-16T14:18:44Z</time>
      </trkpt>
      <trkpt lat="43.396989" lon="-3.362401">
        <ele>21.010</ele>
        <time>2019-06-16T14:18:45Z</time>
      </trkpt>
      <trkpt lat="43.397053" lon="-3.362528">
        <ele>21.084</ele>
        <time>2019-06-16T14:18:46Z</time>
      </trkpt>
      <trkpt lat="43.397115" lon="-3.362655">
        <ele>21.084</ele>
        <time>2019-06-16T14:18:47Z</time>
      </trkpt>
      <trkpt lat="43.397182" lon="-3.362775">
        <ele>21.068</ele>
        <time>2019-06-16T14:18:48Z</time>
      </trkpt>
      <trkpt lat="43.397253" lon="-3.362902">
        <ele>20.947</ele>
        <time>2019-06-16T14:18:49Z</time>
      </trkpt>
      <trkpt lat="43.397321" lon="-3.363025">
        <ele>21.037</ele>
        <time>2019-06-16T14:18:50Z</time>
      </trkpt>
      <trkpt lat="43.397389" lon="-3.363146">
        <ele>21.043</ele>
        <time>2019-06-16T14:18:51Z</time>
      </trkpt>
      <trkpt lat="43.397445" lon="-3.363265">
        <ele>21.052</ele>
        <time>2019-06-16T14:18:52Z</time>
      </trkpt>
      <trkpt lat="43.397506" lon="-3.363386">
        <ele>21.011</ele>
        <time>2019-06-16T14:18:53Z</time>
      </trkpt>
      <trkpt lat="43.397568" lon="-3.363519">
        <ele>20.921</ele>
        <time>2019-06-16T14:18:54Z</time>
      </trkpt>
      <trkpt lat="43.397635" lon="-3.363648">
        <ele>21.003</ele>
        <time>2019-06-16T14:18:55Z</time>
      </trkpt>
      <trkpt lat="43.397696" lon="-3.363781">
        <ele>21.008</ele>
        <time>2019-06-16T14:18:56Z</time>
      </trkpt>
      <trkpt lat="43.397769" lon="-3.363916">
        <ele>21.074</ele>
        <time>2019-06-16T14:18:57Z</time>
      </trkpt>
      <trkpt lat="43.397845" lon="-3.364058">
        <ele>20.938</ele>
        <time>2019-06-16T14:18:58Z</time>
      </trkpt>
      <trkpt lat="43.397921" lon="-3.364195">
        <ele>21.078</ele>
        <time>2019-06-16T14:18:59Z</time>
      </trkpt>
      <trkpt lat="43.397996" lon="-3.364340">
        <ele>21.072</ele>
        <time>2019-06-16T14:19:00Z</time>
      </trkpt>
      <trkpt lat="43.398070" lon="-3.364479">
        <ele>21.031</ele>
        <time>2019-06-16T14:19:01Z</time>
      </trkpt>
      <trkpt lat="43.398146" lon="-3.364604">
        <ele>21.081</ele>
        <time>2019-06-16T14:19:02Z</time>
      </trkpt>
      <trkpt lat="43.398215" lon="-3.364734">
        <ele>21.027</ele>
        <time>2019-06-16T14:19:03Z</time>
      </trkpt>
      <trkpt lat="43.398275" lon="-3.364847">
        <ele>21.026</ele>
        <time>2019-06-16T14:19:04Z</time>
      </trkpt>
      <trkpt lat="43.398348" lon="-3.364958">
        <ele>21.069</ele>
        <time>2019-06-16T14:19:05Z</time>
      </trkpt>
      <trkpt lat="43.398426" lon="-3.365095">
        <ele>21.004</ele>
        <time>2019-06-16T14:19:06Z</time>
      </trkpt>
      <trkpt lat="43.398507" lon="-3.365267">
        <ele>21.024</ele>
        <time>2019-06-16T14:19:07Z</time>
      </trkpt>
      <trkpt lat="43.398595" lon="-3.365447">
        <ele>21.008</ele>
        <time>2019-06-16T14:19:08Z</time>
      </trkpt>
      <trkpt lat="43.398687" lon="-3.365626">
        <ele>21.049</ele>
        <time>2019-06-16T14:19:09Z</time>
      </trkpt>
      <trkpt lat="43.398789" lon="-3.365821">
        <ele>21.093</ele>
        <time>2019-06-16T14:19:10Z</time>
      </trkpt>
      <trkpt lat="43.398887" lon="-3.365988">
        <ele>21.673</ele>
        <time>2019-06-16T14:19:11Z</time>
      </trkpt>
      <trkpt lat="43.398961" lon="-3.366138">
        <ele>21.757</ele>
        <time>2019-06-16T14:19:12Z</time>
      </trkpt>
      <trkpt lat="43.399048" lon="-3.366278">
        <ele>21.496</ele>
        <time>2019-06-16T14:19:13Z</time>
      </trkpt>
      <trkpt lat="43.399120" lon="-3.366410">
        <ele>21.216</ele>
        <time>2019-06-16T14:19:14Z</time>
      </trkpt>
      <trkpt lat="43.399186" lon="-3.366509">
        <ele>21.412</ele>
        <time>2019-06-16T14:19:15Z</time>
      </trkpt>
      <trkpt lat="43.399247" lon="-3.366614">
        <ele>21.611</ele>
        <time>2019-06-16T14:19:16Z</time>
      </trkpt>
      <trkpt lat="43.399309" lon="-3.366724">
        <ele>21.622</ele>
        <time>2019-06-16T14:19:17Z</time>
      </trkpt>
      <trkpt lat="43.399363" lon="-3.366862">
        <ele>21.862</ele>
        <time>2019-06-16T14:19:18Z</time>
      </trkpt>
      <trkpt lat="43.399418" lon="-3.367005">
        <ele>22.008</ele>
        <time>2019-06-16T14:19:19Z</time>
      </trkpt>
      <trkpt lat="43.399505" lon="-3.367181">
        <ele>22.008</ele>
        <time>2019-06-16T14:19:20Z</time>
      </trkpt>
      <trkpt lat="43.399578" lon="-3.367353">
        <ele>22.055</ele>
        <time>2019-06-16T14:19:21Z</time>
      </trkpt>
      <trkpt lat="43.399690" lon="-3.367558">
        <ele>22.099</ele>
        <time>2019-06-16T14:19:22Z</time>
      </trkpt>
      <trkpt lat="43.399786" lon="-3.367745">
        <ele>22.029</ele>
        <time>2019-06-16T14:19:23Z</time>
      </trkpt>
      <trkpt lat="43.399905" lon="-3.367943">
        <ele>22.673</ele>
        <time>2019-06-16T14:19:24Z</time>
      </trkpt>
      <trkpt lat="43.400032" lon="-3.368140">
        <ele>22.912</ele>
        <time>2019-06-16T14:19:25Z</time>
      </trkpt>
      <trkpt lat="43.400154" lon="-3.368337">
        <ele>22.552</ele>
        <time>2019-06-16T14:19:26Z</time>
      </trkpt>
      <trkpt lat="43.400261" lon="-3.368529">
        <ele>22.768</ele>
        <time>2019-06-16T14:19:27Z</time>
      </trkpt>
      <trkpt lat="43.400358" lon="-3.368714">
        <ele>23.067</ele>
        <time>2019-06-16T14:19:28Z</time>
      </trkpt>
      <trkpt lat="43.400460" lon="-3.368904">
        <ele>23.039</ele>
        <time>2019-06-16T14:19:29Z</time>
      </trkpt>
      <trkpt lat="43.400569" lon="-3.369077">
        <ele>23.701</ele>
        <time>2019-06-16T14:19:30Z</time>
      </trkpt>
      <trkpt lat="43.400668" lon="-3.369262">
        <ele>24.021</ele>
        <time>2019-06-16T14:19:31Z</time>
      </trkpt>
      <trkpt lat="43.400758" lon="-3.369428">
        <ele>24.008</ele>
        <time>2019-06-16T14:19:32Z</time>
      </trkpt>
      <trkpt lat="43.400846" lon="-3.369586">
        <ele>24.566</ele>
        <time>2019-06-16T14:19:33Z</time>
      </trkpt>
      <trkpt lat="43.400919" lon="-3.369694">
        <ele>24.960</ele>
        <time>2019-06-16T14:19:34Z</time>
      </trkpt>
      <trkpt lat="43.400992" lon="-3.369820">
        <ele>24.810</ele>
        <time>2019-06-16T14:19:35Z</time>
      </trkpt>
      <trkpt lat="43.401061" lon="-3.369906">
        <ele>24.984</ele>
        <time>2019-06-16T14:19:36Z</time>
      </trkpt>
      <trkpt lat="43.401124" lon="-3.370042">
        <ele>25.083</ele>
        <time>2019-06-16T14:19:37Z</time>
      </trkpt>
      <trkpt lat="43.401198" lon="-3.370188">
        <ele>25.013</ele>
        <time>2019-06-16T14:19:38Z</time>
      </trkpt>
      <trkpt lat="43.401277" lon="-3.370345">
        <ele>25.169</ele>
        <time>2019-06-16T14:19:39Z</time>
      </trkpt>
      <trkpt lat="43.401359" lon="-3.370526">
        <ele>25.848</ele>
        <time>2019-06-16T14:19:40Z</time>
      </trkpt>
      <trkpt lat="43.401452" lon="-3.370695">
        <ele>26.013</ele>
        <time>2019-06-16T14:19:41Z</time>
      </trkpt>
      <trkpt lat="43.401550" lon="-3.370869">
        <ele>26.143</ele>
        <time>2019-06-16T14:19:42Z</time>
      </trkpt>
      <trkpt lat="43.401634" lon="-3.371032">
        <ele>26.607</ele>
        <time>2019-06-16T14:19:43Z</time>
      </trkpt>
      <trkpt lat="43.401724" lon="-3.371204">
        <ele>27.108</ele>
        <time>2019-06-16T14:19:44Z</time>
      </trkpt>
      <trkpt lat="43.401815" lon="-3.371375">
        <ele>27.594</ele>
        <time>2019-06-16T14:19:45Z</time>
      </trkpt>
      <trkpt lat="43.401905" lon="-3.371527">
        <ele>27.978</ele>
        <time>2019-06-16T14:19:46Z</time>
      </trkpt>
      <trkpt lat="43.401989" lon="-3.371681">
        <ele>28.078</ele>
        <time>2019-06-16T14:19:47Z</time>
      </trkpt>
      <trkpt lat="43.402069" lon="-3.371819">
        <ele>28.282</ele>
        <time>2019-06-16T14:19:48Z</time>
      </trkpt>
      <trkpt lat="43.402142" lon="-3.371954">
        <ele>28.791</ele>
        <time>2019-06-16T14:19:49Z</time>
      </trkpt>
      <trkpt lat="43.402214" lon="-3.372071">
        <ele>29.041</ele>
        <time>2019-06-16T14:19:50Z</time>
      </trkpt>
      <trkpt lat="43.402280" lon="-3.372189">
        <ele>29.217</ele>
        <time>2019-06-16T14:19:51Z</time>
      </trkpt>
      <trkpt lat="43.402333" lon="-3.372298">
        <ele>29.496</ele>
        <time>2019-06-16T14:19:52Z</time>
      </trkpt>
      <trkpt lat="43.402416" lon="-3.372384">
        <ele>29.748</ele>
        <time>2019-06-16T14:19:53Z</time>
      </trkpt>
      <trkpt lat="43.402500" lon="-3.372530">
        <ele>30.161</ele>
        <time>2019-06-16T14:19:54Z</time>
      </trkpt>
      <trkpt lat="43.402584" lon="-3.372684">
        <ele>30.817</ele>
        <time>2019-06-16T14:19:55Z</time>
      </trkpt>
      <trkpt lat="43.402677" lon="-3.372849">
        <ele>31.208</ele>
        <time>2019-06-16T14:19:56Z</time>
      </trkpt>
      <trkpt lat="43.402768" lon="-3.373022">
        <ele>31.897</ele>
        <time>2019-06-16T14:19:57Z</time>
      </trkpt>
      <trkpt lat="43.402858" lon="-3.373189">
        <ele>32.821</ele>
        <time>2019-06-16T14:19:58Z</time>
      </trkpt>
      <trkpt lat="43.402941" lon="-3.373390">
        <ele>33.711</ele>
        <time>2019-06-16T14:19:59Z</time>
      </trkpt>
      <trkpt lat="43.403011" lon="-3.373590">
        <ele>34.655</ele>
        <time>2019-06-16T14:20:00Z</time>
      </trkpt>
      <trkpt lat="43.403038" lon="-3.373831">
        <ele>35.624</ele>
        <time>2019-06-16T14:20:01Z</time>
      </trkpt>
      <trkpt lat="43.403065" lon="-3.374068">
        <ele>36.654</ele>
        <time>2019-06-16T14:20:02Z</time>
      </trkpt>
      <trkpt lat="43.403015" lon="-3.374293">
        <ele>37.140</ele>
        <time>2019-06-16T14:20:03Z</time>
      </trkpt>
      <trkpt lat="43.402988" lon="-3.374514">
        <ele>38.159</ele>
        <time>2019-06-16T14:20:04Z</time>
      </trkpt>
      <trkpt lat="43.402949" lon="-3.374731">
        <ele>39.728</ele>
        <time>2019-06-16T14:20:05Z</time>
      </trkpt>
      <trkpt lat="43.402868" lon="-3.374969">
        <ele>41.789</ele>
        <time>2019-06-16T14:20:06Z</time>
      </trkpt>
      <trkpt lat="43.402781" lon="-3.375187">
        <ele>43.717</ele>
        <time>2019-06-16T14:20:07Z</time>
      </trkpt>
      <trkpt lat="43.402699" lon="-3.375429">
        <ele>46.008</ele>
        <time>2019-06-16T14:20:08Z</time>
      </trkpt>
      <trkpt lat="43.402614" lon="-3.375658">
        <ele>46.975</ele>
        <time>2019-06-16T14:20:09Z</time>
      </trkpt>
      <trkpt lat="43.402492" lon="-3.375912">
        <ele>46.269</ele>
        <time>2019-06-16T14:20:10Z</time>
      </trkpt>
      <trkpt lat="43.402408" lon="-3.376117">
        <ele>47.019</ele>
        <time>2019-06-16T14:20:11Z</time>
      </trkpt>
      <trkpt lat="43.402304" lon="-3.376349">
        <ele>48.723</ele>
        <time>2019-06-16T14:20:12Z</time>
      </trkpt>
      <trkpt lat="43.402196" lon="-3.376576">
        <ele>52.782</ele>
        <time>2019-06-16T14:20:13Z</time>
      </trkpt>
      <trkpt lat="43.402078" lon="-3.376816">
        <ele>54.512</ele>
        <time>2019-06-16T14:20:14Z</time>
      </trkpt>
      <trkpt lat="43.401980" lon="-3.377072">
        <ele>56.198</ele>
        <time>2019-06-16T14:20:15Z</time>
      </trkpt>
      <trkpt lat="43.401865" lon="-3.377289">
        <ele>57.387</ele>
        <time>2019-06-16T14:20:16Z</time>
      </trkpt>
      <trkpt lat="43.401749" lon="-3.377533">
        <ele>58.051</ele>
        <time>2019-06-16T14:20:17Z</time>
      </trkpt>
      <trkpt lat="43.401626" lon="-3.377793">
        <ele>60.401</ele>
        <time>2019-06-16T14:20:18Z</time>
      </trkpt>
      <trkpt lat="43.401500" lon="-3.378019">
        <ele>61.211</ele>
        <time>2019-06-16T14:20:19Z</time>
      </trkpt>
      <trkpt lat="43.401390" lon="-3.378256">
        <ele>61.908</ele>
        <time>2019-06-16T14:20:20Z</time>
      </trkpt>
      <trkpt lat="43.401275" lon="-3.378487">
        <ele>64.648</ele>
        <time>2019-06-16T14:20:21Z</time>
      </trkpt>
      <trkpt lat="43.401166" lon="-3.378720">
        <ele>66.932</ele>
        <time>2019-06-16T14:20:22Z</time>
      </trkpt>
      <trkpt lat="43.401056" lon="-3.378949">
        <ele>70.492</ele>
        <time>2019-06-16T14:20:23Z</time>
      </trkpt>
      <trkpt lat="43.400957" lon="-3.379204">
        <ele>72.146</ele>
        <time>2019-06-16T14:20:24Z</time>
      </trkpt>
      <trkpt lat="43.400869" lon="-3.379417">
        <ele>71.595</ele>
        <time>2019-06-16T14:20:25Z</time>
      </trkpt>
      <trkpt lat="43.400759" lon="-3.379624">
        <ele>72.035</ele>
        <time>2019-06-16T14:20:26Z</time>
      </trkpt>
      <trkpt lat="43.400645" lon="-3.379788">
        <ele>71.891</ele>
        <time>2019-06-16T14:20:27Z</time>
      </trkpt>
      <trkpt lat="43.400520" lon="-3.380005">
        <ele>71.780</ele>
        <time>2019-06-16T14:20:28Z</time>
      </trkpt>
      <trkpt lat="43.400355" lon="-3.380183">
        <ele>73.513</ele>
        <time>2019-06-16T14:20:29Z</time>
      </trkpt>
      <trkpt lat="43.400202" lon="-3.380352">
        <ele>75.443</ele>
        <time>2019-06-16T14:20:30Z</time>
      </trkpt>
      <trkpt lat="43.400027" lon="-3.380564">
        <ele>80.807</ele>
        <time>2019-06-16T14:20:31Z</time>
      </trkpt>
      <trkpt lat="43.399892" lon="-3.380700">
        <ele>86.308</ele>
        <time>2019-06-16T14:20:32Z</time>
      </trkpt>
      <trkpt lat="43.399736" lon="-3.380803">
        <ele>87.954</ele>
        <time>2019-06-16T14:20:33Z</time>
      </trkpt>
      <trkpt lat="43.399575" lon="-3.380903">
        <ele>86.648</ele>
        <time>2019-06-16T14:20:34Z</time>
      </trkpt>
      <trkpt lat="43.399448" lon="-3.381028">
        <ele>85.138</ele>
        <time>2019-06-16T14:20:35Z</time>
      </trkpt>
      <trkpt lat="43.399286" lon="-3.381049">
        <ele>81.532</ele>
        <time>2019-06-16T14:20:36Z</time>
      </trkpt>
      <trkpt lat="43.399151" lon="-3.381097">
        <ele>78.811</ele>
        <time>2019-06-16T14:20:37Z</time>
      </trkpt>
      <trkpt lat="43.399072" lon="-3.381299">
        <ele>80.651</ele>
        <time>2019-06-16T14:20:38Z</time>
      </trkpt>
      <trkpt lat="43.399003" lon="-3.381470">
        <ele>81.597</ele>
        <time>2019-06-16T14:20:39Z</time>
      </trkpt>
      <trkpt lat="43.398942" lon="-3.381669">
        <ele>82.276</ele>
        <time>2019-06-16T14:20:40Z</time>
      </trkpt>
      <trkpt lat="43.398886" lon="-3.381904">
        <ele>81.735</ele>
        <time>2019-06-16T14:20:41Z</time>
      </trkpt>
      <trkpt lat="43.398874" lon="-3.382134">
        <ele>81.986</ele>
        <time>2019-06-16T14:20:42Z</time>
      </trkpt>
      <trkpt lat="43.398950" lon="-3.382351">
        <ele>85.514</ele>
        <time>2019-06-16T14:20:43Z</time>
      </trkpt>
      <trkpt lat="43.399003" lon="-3.382651">
        <ele>87.808</ele>
        <time>2019-06-16T14:20:44Z</time>
      </trkpt>
      <trkpt lat="43.399022" lon="-3.382905">
        <ele>89.036</ele>
        <time>2019-06-16T14:20:45Z</time>
      </trkpt>
      <trkpt lat="43.399043" lon="-3.383163">
        <ele>91.820</ele>
        <time>2019-06-16T14:20:46Z</time>
      </trkpt>
      <trkpt lat="43.399057" lon="-3.383448">
        <ele>96.050</ele>
        <time>2019-06-16T14:20:47Z</time>
      </trkpt>
      <trkpt lat="43.399029" lon="-3.383726">
        <ele>96.444</ele>
        <time>2019-06-16T14:20:48Z</time>
      </trkpt>
      <trkpt lat="43.399017" lon="-3.383991">
        <ele>99.383</ele>
        <time>2019-06-16T14:20:49Z</time>
      </trkpt>
      <trkpt lat="43.399006" lon="-3.384266">
        <ele>103.833</ele>
        <time>2019-06-16T14:20:50Z</time>
      </trkpt>
      <trkpt lat="43.398959" lon="-3.384524">
        <ele>103.749</ele>
        <time>2019-06-16T14:20:51Z</time>
      </trkpt>
      <trkpt lat="43.398942" lon="-3.384813">
        <ele>104.778</ele>
        <time>2019-06-16T14:20:52Z</time>
      </trkpt>
      <trkpt lat="43.398915" lon="-3.385075">
        <ele>102.346</ele>
        <time>2019-06-16T14:20:53Z</time>
      </trkpt>
      <trkpt lat="43.398891" lon="-3.385385">
        <ele>99.788</ele>
        <time>2019-06-16T14:20:54Z</time>
      </trkpt>
      <trkpt lat="43.398827" lon="-3.385711">
        <ele>99.216</ele>
        <time>2019-06-16T14:20:55Z</time>
      </trkpt>
      <trkpt lat="43.398770" lon="-3.385915">
        <ele>100.108</ele>
        <time>2019-06-16T14:20:56Z</time>
      </trkpt>
      <trkpt lat="43.398706" lon="-3.386183">
        <ele>102.567</ele>
        <time>2019-06-16T14:20:57Z</time>
      </trkpt>
      <trkpt lat="43.398617" lon="-3.386422">
        <ele>104.651</ele>
        <time>2019-06-16T14:20:58Z</time>
      </trkpt>
      <trkpt lat="43.398548" lon="-3.386685">
        <ele>107.631</ele>
        <time>2019-06-16T14:20:59Z</time>
      </trkpt>
      <trkpt lat="43.398492" lon="-3.386947">
        <ele>109.995</ele>
        <time>2019-06-16T14:21:00Z</time>
      </trkpt>
      <trkpt lat="43.398431" lon="-3.387082">
        <ele>110.454</ele>
        <time>2019-06-16T14:21:01Z</time>
      </trkpt>
      <trkpt lat="43.398366" lon="-3.387257">
        <ele>110.594</ele>
        <time>2019-06-16T14:21:02Z</time>
      </trkpt>
      <trkpt lat="43.398309" lon="-3.387464">
        <ele>111.590</ele>
        <time>2019-06-16T14:21:03Z</time>
      </trkpt>
      <trkpt lat="43.398254" lon="-3.387659">
        <ele>112.879</ele>
        <time>2019-06-16T14:21:04Z</time>
      </trkpt>
      <trkpt lat="43.398231" lon="-3.387863">
        <ele>114.321</ele>
        <time>2019-06-16T14:21:05Z</time>
      </trkpt>
      <trkpt lat="43.398184" lon="-3.388095">
        <ele>115.441</ele>
        <time>2019-06-16T14:21:06Z</time>
      </trkpt>
      <trkpt lat="43.398145" lon="-3.388312">
        <ele>115.205</ele>
        <time>2019-06-16T14:21:07Z</time>
      </trkpt>
      <trkpt lat="43.398170" lon="-3.388561">
        <ele>116.108</ele>
        <time>2019-06-16T14:21:08Z</time>
      </trkpt>
      <trkpt lat="43.398264" lon="-3.388793">
        <ele>117.685</ele>
        <time>2019-06-16T14:21:09Z</time>
      </trkpt>
      <trkpt lat="43.398284" lon="-3.389039">
        <ele>117.329</ele>
        <time>2019-06-16T14:21:10Z</time>
      </trkpt>
      <trkpt lat="43.398290" lon="-3.389275">
        <ele>117.279</ele>
        <time>2019-06-16T14:21:11Z</time>
      </trkpt>
      <trkpt lat="43.398319" lon="-3.389519">
        <ele>119.233</ele>
        <time>2019-06-16T14:21:12Z</time>
      </trkpt>
      <trkpt lat="43.398278" lon="-3.389775">
        <ele>121.662</ele>
        <time>2019-06-16T14:21:13Z</time>
      </trkpt>
      <trkpt lat="43.398230" lon="-3.390024">
        <ele>124.642</ele>
        <time>2019-06-16T14:21:14Z</time>
      </trkpt>
      <trkpt lat="43.398165" lon="-3.390279">
        <ele>125.248</ele>
        <time>2019-06-16T14:21:15Z</time>
      </trkpt>
      <trkpt lat="43.398043" lon="-3.390475">
        <ele>123.997</ele>
        <time>2019-06-16T14:21:16Z</time>
      </trkpt>
      <trkpt lat="43.397904" lon="-3.390648">
        <ele>125.632</ele>
        <time>2019-06-16T14:21:17Z</time>
      </trkpt>
      <trkpt lat="43.397807" lon="-3.390847">
        <ele>128.092</ele>
        <time>2019-06-16T14:21:18Z</time>
      </trkpt>
      <trkpt lat="43.397696" lon="-3.391037">
        <ele>129.611</ele>
        <time>2019-06-16T14:21:19Z</time>
      </trkpt>
      <trkpt lat="43.397586" lon="-3.391256">
        <ele>130.208</ele>
        <time>2019-06-16T14:21:20Z</time>
      </trkpt>
      <trkpt lat="43.397477" lon="-3.391483">
        <ele>130.226</ele>
        <time>2019-06-16T14:21:21Z</time>
      </trkpt>
      <trkpt lat="43.397379" lon="-3.391726">
        <ele>132.080</ele>
        <time>2019-06-16T14:21:22Z</time>
      </trkpt>
      <trkpt lat="43.397295" lon="-3.391955">
        <ele>133.590</ele>
        <time>2019-06-16T14:21:23Z</time>
      </trkpt>
      <trkpt lat="43.397211" lon="-3.392171">
        <ele>133.994</ele>
        <time>2019-06-16T14:21:24Z</time>
      </trkpt>
      <trkpt lat="43.397140" lon="-3.392387">
        <ele>135.093</ele>
        <time>2019-06-16T14:21:25Z</time>
      </trkpt>
      <trkpt lat="43.397073" lon="-3.392613">
        <ele>135.923</ele>
        <time>2019-06-16T14:21:26Z</time>
      </trkpt>
      <trkpt lat="43.397002" lon="-3.392863">
        <ele>136.619</ele>
        <time>2019-06-16T14:21:27Z</time>
      </trkpt>
      <trkpt lat="43.396939" lon="-3.393103">
        <ele>137.488</ele>
        <time>2019-06-16T14:21:28Z</time>
      </trkpt>
      <trkpt lat="43.396894" lon="-3.393310">
        <ele>138.578</ele>
        <time>2019-06-16T14:21:29Z</time>
      </trkpt>
      <trkpt lat="43.396857" lon="-3.393513">
        <ele>139.933</ele>
        <time>2019-06-16T14:21:30Z</time>
      </trkpt>
      <trkpt lat="43.396854" lon="-3.393720">
        <ele>142.026</ele>
        <time>2019-06-16T14:21:31Z</time>
      </trkpt>
      <trkpt lat="43.396874" lon="-3.393933">
        <ele>143.808</ele>
        <time>2019-06-16T14:21:32Z</time>
      </trkpt>
      <trkpt lat="43.396890" lon="-3.394146">
        <ele>144.240</ele>
        <time>2019-06-16T14:21:33Z</time>
      </trkpt>
      <trkpt lat="43.396897" lon="-3.394370">
        <ele>144.474</ele>
        <time>2019-06-16T14:21:34Z</time>
      </trkpt>
      <trkpt lat="43.396915" lon="-3.394531">
        <ele>144.464</ele>
        <time>2019-06-16T14:21:35Z</time>
      </trkpt>
      <trkpt lat="43.397025" lon="-3.394706">
        <ele>145.568</ele>
        <time>2019-06-16T14:21:36Z</time>
      </trkpt>
      <trkpt lat="43.397069" lon="-3.394876">
        <ele>145.767</ele>
        <time>2019-06-16T14:21:37Z</time>
      </trkpt>
      <trkpt lat="43.397159" lon="-3.395068">
        <ele>146.027</ele>
        <time>2019-06-16T14:21:38Z</time>
      </trkpt>
      <trkpt lat="43.397282" lon="-3.395264">
        <ele>146.333</ele>
        <time>2019-06-16T14:21:39Z</time>
      </trkpt>
      <trkpt lat="43.397421" lon="-3.395367">
        <ele>145.532</ele>
        <time>2019-06-16T14:21:40Z</time>
      </trkpt>
      <trkpt lat="43.397528" lon="-3.395481">
        <ele>144.318</ele>
        <time>2019-06-16T14:21:41Z</time>
      </trkpt>
      <trkpt lat="43.397693" lon="-3.395500">
        <ele>145.798</ele>
        <time>2019-06-16T14:21:42Z</time>
      </trkpt>
      <trkpt lat="43.397888" lon="-3.395504">
        <ele>147.317</ele>
        <time>2019-06-16T14:21:43Z</time>
      </trkpt>
      <trkpt lat="43.398123" lon="-3.395546">
        <ele>148.308</ele>
        <time>2019-06-16T14:21:44Z</time>
      </trkpt>
      <trkpt lat="43.398305" lon="-3.395614">
        <ele>147.374</ele>
        <time>2019-06-16T14:21:45Z</time>
      </trkpt>
      <trkpt lat="43.398472" lon="-3.395691">
        <ele>147.368</ele>
        <time>2019-06-16T14:21:46Z</time>
      </trkpt>
      <trkpt lat="43.398631" lon="-3.395810">
        <ele>148.418</ele>
        <time>2019-06-16T14:21:47Z</time>
      </trkpt>
      <trkpt lat="43.398770" lon="-3.395959">
        <ele>149.132</ele>
        <time>2019-06-16T14:21:48Z</time>
      </trkpt>
      <trkpt lat="43.398878" lon="-3.396136">
        <ele>150.681</ele>
        <time>2019-06-16T14:21:49Z</time>
      </trkpt>
      <trkpt lat="43.398989" lon="-3.396311">
        <ele>150.811</ele>
        <time>2019-06-16T14:21:50Z</time>
      </trkpt>
      <trkpt lat="43.399109" lon="-3.396506">
        <ele>152.187</ele>
        <time>2019-06-16T14:21:51Z</time>
      </trkpt>
      <trkpt lat="43.399208" lon="-3.396705">
        <ele>153.926</ele>
        <time>2019-06-16T14:21:52Z</time>
      </trkpt>
      <trkpt lat="43.399251" lon="-3.396940">
        <ele>154.247</ele>
        <time>2019-06-16T14:21:53Z</time>
      </trkpt>
      <trkpt lat="43.399244" lon="-3.397158">
        <ele>153.329</ele>
        <time>2019-06-16T14:21:54Z</time>
      </trkpt>
      <trkpt lat="43.399199" lon="-3.397426">
        <ele>153.321</ele>
        <time>2019-06-16T14:21:55Z</time>
      </trkpt>
      <trkpt lat="43.399204" lon="-3.397667">
        <ele>153.708</ele>
        <time>2019-06-16T14:21:56Z</time>
      </trkpt>
      <trkpt lat="43.399224" lon="-3.397907">
        <ele>153.737</ele>
        <time>2019-06-16T14:21:57Z</time>
      </trkpt>
      <trkpt lat="43.399265" lon="-3.398109">
        <ele>153.961</ele>
        <time>2019-06-16T14:21:58Z</time>
      </trkpt>
      <trkpt lat="43.399309" lon="-3.398334">
        <ele>153.631</ele>
        <time>2019-06-16T14:21:59Z</time>
      </trkpt>
      <trkpt lat="43.399356" lon="-3.398550">
        <ele>152.875</ele>
        <time>2019-06-16T14:22:00Z</time>
      </trkpt>
      <trkpt lat="43.399448" lon="-3.398761">
        <ele>152.044</ele>
        <time>2019-06-16T14:22:01Z</time>
      </trkpt>
      <trkpt lat="43.399557" lon="-3.398978">
        <ele>152.984</ele>
        <time>2019-06-16T14:22:02Z</time>
      </trkpt>
      <trkpt lat="43.399661" lon="-3.399184">
        <ele>152.430</ele>
        <time>2019-06-16T14:22:03Z</time>
      </trkpt>
      <trkpt lat="43.399767" lon="-3.399401">
        <ele>151.039</ele>
        <time>2019-06-16T14:22:04Z</time>
      </trkpt>
      <trkpt lat="43.399866" lon="-3.399615">
        <ele>149.738</ele>
        <time>2019-06-16T14:22:05Z</time>
      </trkpt>
      <trkpt lat="43.399978" lon="-3.399836">
        <ele>148.170</ele>
        <time>2019-06-16T14:22:06Z</time>
      </trkpt>
      <trkpt lat="43.400130" lon="-3.400008">
        <ele>149.217</ele>
        <time>2019-06-16T14:22:07Z</time>
      </trkpt>
      <trkpt lat="43.400243" lon="-3.400234">
        <ele>148.108</ele>
        <time>2019-06-16T14:22:08Z</time>
      </trkpt>
      <trkpt lat="43.400351" lon="-3.400464">
        <ele>148.496</ele>
        <time>2019-06-16T14:22:09Z</time>
      </trkpt>
      <trkpt lat="43.400474" lon="-3.400707">
        <ele>147.550</ele>
        <time>2019-06-16T14:22:10Z</time>
      </trkpt>
      <trkpt lat="43.400595" lon="-3.400942">
        <ele>146.210</ele>
        <time>2019-06-16T14:22:11Z</time>
      </trkpt>
      <trkpt lat="43.400706" lon="-3.401189">
        <ele>144.484</ele>
        <time>2019-06-16T14:22:12Z</time>
      </trkpt>
      <trkpt lat="43.400831" lon="-3.401395">
        <ele>142.953</ele>
        <time>2019-06-16T14:22:13Z</time>
      </trkpt>
      <trkpt lat="43.400949" lon="-3.401642">
        <ele>142.043</ele>
        <time>2019-06-16T14:22:14Z</time>
      </trkpt>
      <trkpt lat="43.401050" lon="-3.401913">
        <ele>139.579</ele>
        <time>2019-06-16T14:22:15Z</time>
      </trkpt>
      <trkpt lat="43.401176" lon="-3.402181">
        <ele>138.378</ele>
        <time>2019-06-16T14:22:16Z</time>
      </trkpt>
      <trkpt lat="43.401304" lon="-3.402442">
        <ele>136.568</ele>
        <time>2019-06-16T14:22:17Z</time>
      </trkpt>
      <trkpt lat="43.401424" lon="-3.402716">
        <ele>135.242</ele>
        <time>2019-06-16T14:22:18Z</time>
      </trkpt>
      <trkpt lat="43.401567" lon="-3.402981">
        <ele>133.926</ele>
        <time>2019-06-16T14:22:19Z</time>
      </trkpt>
      <trkpt lat="43.401688" lon="-3.403249">
        <ele>132.008</ele>
        <time>2019-06-16T14:22:20Z</time>
      </trkpt>
      <trkpt lat="43.401817" lon="-3.403509">
        <ele>130.669</ele>
        <time>2019-06-16T14:22:21Z</time>
      </trkpt>
      <trkpt lat="43.401949" lon="-3.403752">
        <ele>128.623</ele>
        <time>2019-06-16T14:22:22Z</time>
      </trkpt>
      <trkpt lat="43.402082" lon="-3.403996">
        <ele>126.933</ele>
        <time>2019-06-16T14:22:23Z</time>
      </trkpt>
      <trkpt lat="43.402233" lon="-3.404211">
        <ele>125.747</ele>
        <time>2019-06-16T14:22:24Z</time>
      </trkpt>
      <trkpt lat="43.402354" lon="-3.404466">
        <ele>124.216</ele>
        <time>2019-06-16T14:22:25Z</time>
      </trkpt>
      <trkpt lat="43.402483" lon="-3.404706">
        <ele>123.036</ele>
        <time>2019-06-16T14:22:26Z</time>
      </trkpt>
      <trkpt lat="43.402600" lon="-3.404963">
        <ele>121.272</ele>
        <time>2019-06-16T14:22:27Z</time>
      </trkpt>
      <trkpt lat="43.402723" lon="-3.405219">
        <ele>120.071</ele>
        <time>2019-06-16T14:22:28Z</time>
      </trkpt>
      <trkpt lat="43.402834" lon="-3.405493">
        <ele>118.515</ele>
        <time>2019-06-16T14:22:29Z</time>
      </trkpt>
      <trkpt lat="43.402940" lon="-3.405772">
        <ele>116.465</ele>
        <time>2019-06-16T14:22:30Z</time>
      </trkpt>
      <trkpt lat="43.403041" lon="-3.406055">
        <ele>115.211</ele>
        <time>2019-06-16T14:22:31Z</time>
      </trkpt>
      <trkpt lat="43.403142" lon="-3.406326">
        <ele>113.708</ele>
        <time>2019-06-16T14:22:32Z</time>
      </trkpt>
      <trkpt lat="43.403243" lon="-3.406599">
        <ele>112.974</ele>
        <time>2019-06-16T14:22:33Z</time>
      </trkpt>
      <trkpt lat="43.403335" lon="-3.406882">
        <ele>111.498</ele>
        <time>2019-06-16T14:22:34Z</time>
      </trkpt>
      <trkpt lat="43.403415" lon="-3.407171">
        <ele>110.468</ele>
        <time>2019-06-16T14:22:35Z</time>
      </trkpt>
      <trkpt lat="43.403508" lon="-3.407459">
        <ele>109.562</ele>
        <time>2019-06-16T14:22:36Z</time>
      </trkpt>
      <trkpt lat="43.403599" lon="-3.407751">
        <ele>107.311</ele>
        <time>2019-06-16T14:22:37Z</time>
      </trkpt>
      <trkpt lat="43.403678" lon="-3.408030">
        <ele>106.931</ele>
        <time>2019-06-16T14:22:38Z</time>
      </trkpt>
      <trkpt lat="43.403748" lon="-3.408291">
        <ele>105.117</ele>
        <time>2019-06-16T14:22:39Z</time>
      </trkpt>
      <trkpt lat="43.403841" lon="-3.408555">
        <ele>102.796</ele>
        <time>2019-06-16T14:22:40Z</time>
      </trkpt>
      <trkpt lat="43.403933" lon="-3.408827">
        <ele>102.358</ele>
        <time>2019-06-16T14:22:41Z</time>
      </trkpt>
      <trkpt lat="43.404033" lon="-3.409093">
        <ele>101.552</ele>
        <time>2019-06-16T14:22:42Z</time>
      </trkpt>
      <trkpt lat="43.404135" lon="-3.409334">
        <ele>99.217</ele>
        <time>2019-06-16T14:22:43Z</time>
      </trkpt>
      <trkpt lat="43.404226" lon="-3.409576">
        <ele>98.708</ele>
        <time>2019-06-16T14:22:44Z</time>
      </trkpt>
      <trkpt lat="43.404330" lon="-3.409791">
        <ele>98.158</ele>
        <time>2019-06-16T14:22:45Z</time>
      </trkpt>
      <trkpt lat="43.404418" lon="-3.410018">
        <ele>95.982</ele>
        <time>2019-06-16T14:22:46Z</time>
      </trkpt>
      <trkpt lat="43.404482" lon="-3.410235">
        <ele>95.462</ele>
        <time>2019-06-16T14:22:47Z</time>
      </trkpt>
      <trkpt lat="43.404563" lon="-3.410485">
        <ele>94.796</ele>
        <time>2019-06-16T14:22:48Z</time>
      </trkpt>
      <trkpt lat="43.404631" lon="-3.410678">
        <ele>93.285</ele>
        <time>2019-06-16T14:22:49Z</time>
      </trkpt>
      <trkpt lat="43.404714" lon="-3.410873">
        <ele>91.835</ele>
        <time>2019-06-16T14:22:50Z</time>
      </trkpt>
      <trkpt lat="43.404787" lon="-3.411063">
        <ele>92.061</ele>
        <time>2019-06-16T14:22:51Z</time>
      </trkpt>
      <trkpt lat="43.404851" lon="-3.411242">
        <ele>91.440</ele>
        <time>2019-06-16T14:22:52Z</time>
      </trkpt>
      <trkpt lat="43.404918" lon="-3.411379">
        <ele>91.249</ele>
        <time>2019-06-16T14:22:53Z</time>
      </trkpt>
      <trkpt lat="43.404982" lon="-3.411497">
        <ele>91.402</ele>
        <time>2019-06-16T14:22:54Z</time>
      </trkpt>
      <trkpt lat="43.405041" lon="-3.411606">
        <ele>91.422</ele>
        <time>2019-06-16T14:22:55Z</time>
      </trkpt>
      <trkpt lat="43.405108" lon="-3.411707">
        <ele>90.908</ele>
        <time>2019-06-16T14:22:56Z</time>
      </trkpt>
      <trkpt lat="43.405174" lon="-3.411797">
        <ele>90.777</ele>
        <time>2019-06-16T14:22:57Z</time>
      </trkpt>
      <trkpt lat="43.405258" lon="-3.411865">
        <ele>90.351</ele>
        <time>2019-06-16T14:22:58Z</time>
      </trkpt>
      <trkpt lat="43.405346" lon="-3.411930">
        <ele>90.171</ele>
        <time>2019-06-16T14:22:59Z</time>
      </trkpt>
      <trkpt lat="43.405427" lon="-3.411998">
        <ele>89.745</ele>
        <time>2019-06-16T14:23:00Z</time>
      </trkpt>
      <trkpt lat="43.405518" lon="-3.412074">
        <ele>89.144</ele>
        <time>2019-06-16T14:23:01Z</time>
      </trkpt>
      <trkpt lat="43.405601" lon="-3.412162">
        <ele>88.474</ele>
        <time>2019-06-16T14:23:02Z</time>
      </trkpt>
      <trkpt lat="43.405696" lon="-3.412221">
        <ele>87.510</ele>
        <time>2019-06-16T14:23:03Z</time>
      </trkpt>
      <trkpt lat="43.405804" lon="-3.412267">
        <ele>86.049</ele>
        <time>2019-06-16T14:23:04Z</time>
      </trkpt>
      <trkpt lat="43.405914" lon="-3.412295">
        <ele>84.819</ele>
        <time>2019-06-16T14:23:05Z</time>
      </trkpt>
      <trkpt lat="43.406058" lon="-3.412308">
        <ele>83.809</ele>
        <time>2019-06-16T14:23:06Z</time>
      </trkpt>
      <trkpt lat="43.406199" lon="-3.412307">
        <ele>82.219</ele>
        <time>2019-06-16T14:23:07Z</time>
      </trkpt>
      <trkpt lat="43.406351" lon="-3.412264">
        <ele>81.208</ele>
        <time>2019-06-16T14:23:08Z</time>
      </trkpt>
      <trkpt lat="43.406523" lon="-3.412216">
        <ele>80.224</ele>
        <time>2019-06-16T14:23:09Z</time>
      </trkpt>
      <trkpt lat="43.406690" lon="-3.412171">
        <ele>79.298</ele>
        <time>2019-06-16T14:23:10Z</time>
      </trkpt>
      <trkpt lat="43.406855" lon="-3.412138">
        <ele>78.248</ele>
        <time>2019-06-16T14:23:11Z</time>
      </trkpt>
      <trkpt lat="43.407027" lon="-3.412105">
        <ele>76.672</ele>
        <time>2019-06-16T14:23:12Z</time>
      </trkpt>
      <trkpt lat="43.407204" lon="-3.412056">
        <ele>74.911</ele>
        <time>2019-06-16T14:23:13Z</time>
      </trkpt>
      <trkpt lat="43.407379" lon="-3.412017">
        <ele>72.921</ele>
        <time>2019-06-16T14:23:14Z</time>
      </trkpt>
      <trkpt lat="43.407547" lon="-3.411979">
        <ele>71.577</ele>
        <time>2019-06-16T14:23:15Z</time>
      </trkpt>
      <trkpt lat="43.407701" lon="-3.411944">
        <ele>70.836</ele>
        <time>2019-06-16T14:23:16Z</time>
      </trkpt>
      <trkpt lat="43.407855" lon="-3.411911">
        <ele>70.527</ele>
        <time>2019-06-16T14:23:17Z</time>
      </trkpt>
      <trkpt lat="43.407994" lon="-3.411892">
        <ele>69.868</ele>
        <time>2019-06-16T14:23:18Z</time>
      </trkpt>
      <trkpt lat="43.408128" lon="-3.411868">
        <ele>69.114</ele>
        <time>2019-06-16T14:23:19Z</time>
      </trkpt>
      <trkpt lat="43.408252" lon="-3.411844">
        <ele>68.208</ele>
        <time>2019-06-16T14:23:20Z</time>
      </trkpt>
      <trkpt lat="43.408351" lon="-3.411830">
        <ele>67.185</ele>
        <time>2019-06-16T14:23:21Z</time>
      </trkpt>
      <trkpt lat="43.408458" lon="-3.411813">
        <ele>65.459</ele>
        <time>2019-06-16T14:23:22Z</time>
      </trkpt>
      <trkpt lat="43.408549" lon="-3.411795">
        <ele>64.069</ele>
        <time>2019-06-16T14:23:23Z</time>
      </trkpt>
      <trkpt lat="43.408619" lon="-3.411777">
        <ele>63.013</ele>
        <time>2019-06-16T14:23:24Z</time>
      </trkpt>
      <trkpt lat="43.408692" lon="-3.411760">
        <ele>61.842</ele>
        <time>2019-06-16T14:23:25Z</time>
      </trkpt>
      <trkpt lat="43.408769" lon="-3.411760">
        <ele>60.052</ele>
        <time>2019-06-16T14:23:26Z</time>
      </trkpt>
      <trkpt lat="43.408844" lon="-3.411747">
        <ele>59.018</ele>
        <time>2019-06-16T14:23:27Z</time>
      </trkpt>
      <trkpt lat="43.408975" lon="-3.411644">
        <ele>59.157</ele>
        <time>2019-06-16T14:23:28Z</time>
      </trkpt>
      <trkpt lat="43.409096" lon="-3.411549">
        <ele>56.753</ele>
        <time>2019-06-16T14:23:29Z</time>
      </trkpt>
      <trkpt lat="43.409167" lon="-3.411453">
        <ele>58.004</ele>
        <time>2019-06-16T14:23:30Z</time>
      </trkpt>
      <trkpt lat="43.409226" lon="-3.411332">
        <ele>59.314</ele>
        <time>2019-06-16T14:23:31Z</time>
      </trkpt>
      <trkpt lat="43.409288" lon="-3.411196">
        <ele>58.608</ele>
        <time>2019-06-16T14:23:32Z</time>
      </trkpt>
      <trkpt lat="43.409345" lon="-3.411055">
        <ele>57.748</ele>
        <time>2019-06-16T14:23:33Z</time>
      </trkpt>
      <trkpt lat="43.409381" lon="-3.410896">
        <ele>56.652</ele>
        <time>2019-06-16T14:23:34Z</time>
      </trkpt>
      <trkpt lat="43.409401" lon="-3.410726">
        <ele>56.012</ele>
        <time>2019-06-16T14:23:35Z</time>
      </trkpt>
      <trkpt lat="43.409427" lon="-3.410567">
        <ele>54.956</ele>
        <time>2019-06-16T14:23:36Z</time>
      </trkpt>
      <trkpt lat="43.409472" lon="-3.410438">
        <ele>54.085</ele>
        <time>2019-06-16T14:23:37Z</time>
      </trkpt>
      <trkpt lat="43.409534" lon="-3.410315">
        <ele>53.335</ele>
        <time>2019-06-16T14:23:38Z</time>
      </trkpt>
      <trkpt lat="43.409608" lon="-3.410216">
        <ele>52.631</ele>
        <time>2019-06-16T14:23:39Z</time>
      </trkpt>
      <trkpt lat="43.409699" lon="-3.410148">
        <ele>51.490</ele>
        <time>2019-06-16T14:23:40Z</time>
      </trkpt>
      <trkpt lat="43.409780" lon="-3.410097">
        <ele>50.321</ele>
        <time>2019-06-16T14:23:41Z</time>
      </trkpt>
      <trkpt lat="43.409876" lon="-3.410028">
        <ele>49.241</ele>
        <time>2019-06-16T14:23:42Z</time>
      </trkpt>
      <trkpt lat="43.409959" lon="-3.409945">
        <ele>48.505</ele>
        <time>2019-06-16T14:23:43Z</time>
      </trkpt>
      <trkpt lat="43.410022" lon="-3.409847">
        <ele>48.008</ele>
        <time>2019-06-16T14:23:44Z</time>
      </trkpt>
      <trkpt lat="43.410095" lon="-3.409749">
        <ele>47.395</ele>
        <time>2019-06-16T14:23:45Z</time>
      </trkpt>
      <trkpt lat="43.410158" lon="-3.409654">
        <ele>46.329</ele>
        <time>2019-06-16T14:23:46Z</time>
      </trkpt>
      <trkpt lat="43.410231" lon="-3.409526">
        <ele>45.429</ele>
        <time>2019-06-16T14:23:47Z</time>
      </trkpt>
      <trkpt lat="43.410281" lon="-3.409407">
        <ele>45.053</ele>
        <time>2019-06-16T14:23:48Z</time>
      </trkpt>
      <trkpt lat="43.410329" lon="-3.409283">
        <ele>44.112</ele>
        <time>2019-06-16T14:23:49Z</time>
      </trkpt>
      <trkpt lat="43.410376" lon="-3.409162">
        <ele>43.592</ele>
        <time>2019-06-16T14:23:50Z</time>
      </trkpt>
      <trkpt lat="43.410415" lon="-3.409040">
        <ele>41.688</ele>
        <time>2019-06-16T14:23:51Z</time>
      </trkpt>
      <trkpt lat="43.410417" lon="-3.408920">
        <ele>40.767</ele>
        <time>2019-06-16T14:23:52Z</time>
      </trkpt>
      <trkpt lat="43.410413" lon="-3.408775">
        <ele>39.095</ele>
        <time>2019-06-16T14:23:53Z</time>
      </trkpt>
      <trkpt lat="43.410339" lon="-3.408599">
        <ele>38.949</ele>
        <time>2019-06-16T14:23:54Z</time>
      </trkpt>
      <trkpt lat="43.410281" lon="-3.408443">
        <ele>38.523</ele>
        <time>2019-06-16T14:23:55Z</time>
      </trkpt>
      <trkpt lat="43.410221" lon="-3.408284">
        <ele>38.508</ele>
        <time>2019-06-16T14:23:56Z</time>
      </trkpt>
      <trkpt lat="43.410169" lon="-3.408151">
        <ele>38.962</ele>
        <time>2019-06-16T14:23:57Z</time>
      </trkpt>
      <trkpt lat="43.410141" lon="-3.408029">
        <ele>38.616</ele>
        <time>2019-06-16T14:23:58Z</time>
      </trkpt>
      <trkpt lat="43.410133" lon="-3.407916">
        <ele>37.686</ele>
        <time>2019-06-16T14:23:59Z</time>
      </trkpt>
      <trkpt lat="43.410129" lon="-3.407827">
        <ele>36.740</ele>
        <time>2019-06-16T14:24:00Z</time>
      </trkpt>
      <trkpt lat="43.410133" lon="-3.407747">
        <ele>36.479</ele>
        <time>2019-06-16T14:24:01Z</time>
      </trkpt>
      <trkpt lat="43.410287" lon="-3.407721">
        <ele>34.719</ele>
        <time>2019-06-16T14:24:02Z</time>
      </trkpt>
      <trkpt lat="43.410335" lon="-3.407686">
        <ele>35.585</ele>
        <time>2019-06-16T14:24:03Z</time>
      </trkpt>
      <trkpt lat="43.410409" lon="-3.407674">
        <ele>36.544</ele>
        <time>2019-06-16T14:24:04Z</time>
      </trkpt>
      <trkpt lat="43.410517" lon="-3.407845">
        <ele>34.049</ele>
        <time>2019-06-16T14:24:05Z</time>
      </trkpt>
      <trkpt lat="43.410607" lon="-3.407943">
        <ele>33.102</ele>
        <time>2019-06-16T14:24:06Z</time>
      </trkpt>
      <trkpt lat="43.410684" lon="-3.408056">
        <ele>31.522</ele>
        <time>2019-06-16T14:24:07Z</time>
      </trkpt>
      <trkpt lat="43.410762" lon="-3.408157">
        <ele>30.408</ele>
        <time>2019-06-16T14:24:08Z</time>
      </trkpt>
      <trkpt lat="43.410850" lon="-3.408242">
        <ele>28.677</ele>
        <time>2019-06-16T14:24:09Z</time>
      </trkpt>
      <trkpt lat="43.410958" lon="-3.408281">
        <ele>27.561</ele>
        <time>2019-06-16T14:24:10Z</time>
      </trkpt>
      <trkpt lat="43.411058" lon="-3.408336">
        <ele>26.211</ele>
        <time>2019-06-16T14:24:11Z</time>
      </trkpt>
      <trkpt lat="43.411162" lon="-3.408356">
        <ele>25.255</ele>
        <time>2019-06-16T14:24:12Z</time>
      </trkpt>
      <trkpt lat="43.411295" lon="-3.408373">
        <ele>23.494</ele>
        <time>2019-06-16T14:24:13Z</time>
      </trkpt>
      <trkpt lat="43.411360" lon="-3.408377">
        <ele>22.614</ele>
        <time>2019-06-16T14:24:14Z</time>
      </trkpt>
      <trkpt lat="43.411466" lon="-3.408304">
        <ele>21.430</ele>
        <time>2019-06-16T14:24:15Z</time>
      </trkpt>
      <trkpt lat="43.411543" lon="-3.408197">
        <ele>21.279</ele>
        <time>2019-06-16T14:24:16Z</time>
      </trkpt>
      <trkpt lat="43.411645" lon="-3.408094">
        <ele>20.094</ele>
        <time>2019-06-16T14:24:17Z</time>
      </trkpt>
      <trkpt lat="43.411724" lon="-3.407999">
        <ele>19.257</ele>
        <time>2019-06-16T14:24:18Z</time>
      </trkpt>
      <trkpt lat="43.411725" lon="-3.407887">
        <ele>20.022</ele>
        <time>2019-06-16T14:24:19Z</time>
      </trkpt>
      <trkpt lat="43.411787" lon="-3.407796">
        <ele>19.308</ele>
        <time>2019-06-16T14:24:20Z</time>
      </trkpt>
      <trkpt lat="43.411841" lon="-3.407703">
        <ele>18.742</ele>
        <time>2019-06-16T14:24:21Z</time>
      </trkpt>
      <trkpt lat="43.411905" lon="-3.407620">
        <ele>17.946</ele>
        <time>2019-06-16T14:24:22Z</time>
      </trkpt>
      <trkpt lat="43.411968" lon="-3.407547">
        <ele>17.576</ele>
        <time>2019-06-16T14:24:23Z</time>
      </trkpt>
      <trkpt lat="43.412032" lon="-3.407551">
        <ele>17.150</ele>
        <time>2019-06-16T14:24:24Z</time>
      </trkpt>
      <trkpt lat="43.412121" lon="-3.407549">
        <ele>16.529</ele>
        <time>2019-06-16T14:24:25Z</time>
      </trkpt>
      <trkpt lat="43.412205" lon="-3.407604">
        <ele>15.719</ele>
        <time>2019-06-16T14:24:27Z</time>
      </trkpt>
      <trkpt lat="43.412258" lon="-3.407633">
        <ele>15.525</ele>
        <time>2019-06-16T14:24:28Z</time>
      </trkpt>
      <trkpt lat="43.412277" lon="-3.407839">
        <ele>14.954</ele>
        <time>2019-06-16T14:24:29Z</time>
      </trkpt>
      <trkpt lat="43.412305" lon="-3.407966">
        <ele>14.971</ele>
        <time>2019-06-16T14:24:30Z</time>
      </trkpt>
      <trkpt lat="43.412287" lon="-3.408117">
        <ele>14.741</ele>
        <time>2019-06-16T14:24:31Z</time>
      </trkpt>
      <trkpt lat="43.412308" lon="-3.408234">
        <ele>14.915</ele>
        <time>2019-06-16T14:24:32Z</time>
      </trkpt>
      <trkpt lat="43.412235" lon="-3.408464">
        <ele>14.208</ele>
        <time>2019-06-16T14:24:33Z</time>
      </trkpt>
      <trkpt lat="43.412177" lon="-3.408638">
        <ele>13.890</ele>
        <time>2019-06-16T14:24:34Z</time>
      </trkpt>
      <trkpt lat="43.412156" lon="-3.408778">
        <ele>13.814</ele>
        <time>2019-06-16T14:24:35Z</time>
      </trkpt>
      <trkpt lat="43.412137" lon="-3.408934">
        <ele>13.594</ele>
        <time>2019-06-16T14:24:36Z</time>
      </trkpt>
      <trkpt lat="43.412140" lon="-3.409068">
        <ele>13.168</ele>
        <time>2019-06-16T14:24:37Z</time>
      </trkpt>
      <trkpt lat="43.412148" lon="-3.409205">
        <ele>12.767</ele>
        <time>2019-06-16T14:24:38Z</time>
      </trkpt>
      <trkpt lat="43.412115" lon="-3.409334">
        <ele>12.437</ele>
        <time>2019-06-16T14:24:39Z</time>
      </trkpt>
      <trkpt lat="43.412085" lon="-3.409474">
        <ele>12.193</ele>
        <time>2019-06-16T14:24:40Z</time>
      </trkpt>
      <trkpt lat="43.412048" lon="-3.409611">
        <ele>11.812</ele>
        <time>2019-06-16T14:24:41Z</time>
      </trkpt>
      <trkpt lat="43.412017" lon="-3.409726">
        <ele>11.357</ele>
        <time>2019-06-16T14:24:42Z</time>
      </trkpt>
      <trkpt lat="43.412004" lon="-3.409835">
        <ele>10.800</ele>
        <time>2019-06-16T14:24:43Z</time>
      </trkpt>
      <trkpt lat="43.411988" lon="-3.409945">
        <ele>10.420</ele>
        <time>2019-06-16T14:24:44Z</time>
      </trkpt>
      <trkpt lat="43.411977" lon="-3.410044">
        <ele>10.108</ele>
        <time>2019-06-16T14:24:45Z</time>
      </trkpt>
      <trkpt lat="43.411961" lon="-3.410152">
        <ele>9.698</ele>
        <time>2019-06-16T14:24:46Z</time>
      </trkpt>
      <trkpt lat="43.411943" lon="-3.410260">
        <ele>9.132</ele>
        <time>2019-06-16T14:24:47Z</time>
      </trkpt>
      <trkpt lat="43.411914" lon="-3.410311">
        <ele>9.052</ele>
        <time>2019-06-16T14:24:48Z</time>
      </trkpt>
      <trkpt lat="43.411887" lon="-3.410381">
        <ele>8.966</ele>
        <time>2019-06-16T14:24:49Z</time>
      </trkpt>
      <trkpt lat="43.411852" lon="-3.410459">
        <ele>8.865</ele>
        <time>2019-06-16T14:24:50Z</time>
      </trkpt>
      <trkpt lat="43.411852" lon="-3.410533">
        <ele>8.745</ele>
        <time>2019-06-16T14:24:51Z</time>
      </trkpt>
      <trkpt lat="43.411826" lon="-3.410594">
        <ele>8.751</ele>
        <time>2019-06-16T14:24:52Z</time>
      </trkpt>
      <trkpt lat="43.411827" lon="-3.410659">
        <ele>8.890</ele>
        <time>2019-06-16T14:24:54Z</time>
      </trkpt>
      <trkpt lat="43.411790" lon="-3.410756">
        <ele>8.833</ele>
        <time>2019-06-16T14:24:57Z</time>
      </trkpt>
      <trkpt lat="43.411774" lon="-3.410818">
        <ele>8.823</ele>
        <time>2019-06-16T14:24:59Z</time>
      </trkpt>
      <trkpt lat="43.411723" lon="-3.410859">
        <ele>8.415</ele>
        <time>2019-06-16T14:25:02Z</time>
      </trkpt>
      <trkpt lat="43.411681" lon="-3.410892">
        <ele>7.908</ele>
        <time>2019-06-16T14:25:18Z</time>
      </trkpt>
      <trkpt lat="43.411643" lon="-3.410848">
        <ele>8.126</ele>
        <time>2019-06-16T14:25:26Z</time>
      </trkpt>
      <trkpt lat="43.411692" lon="-3.410757">
        <ele>8.210</ele>
        <time>2019-06-16T14:25:51Z</time>
      </trkpt>
      <trkpt lat="43.411681" lon="-3.410866">
        <ele>8.060</ele>
        <time>2019-06-16T14:25:54Z</time>
      </trkpt>
      <trkpt lat="43.411646" lon="-3.410999">
        <ele>7.514</ele>
        <time>2019-06-16T14:25:55Z</time>
      </trkpt>
      <trkpt lat="43.411614" lon="-3.411104">
        <ele>7.233</ele>
        <time>2019-06-16T14:25:56Z</time>
      </trkpt>
      <trkpt lat="43.411620" lon="-3.411176">
        <ele>7.373</ele>
        <time>2019-06-16T14:25:57Z</time>
      </trkpt>
      <trkpt lat="43.411603" lon="-3.411275">
        <ele>7.599</ele>
        <time>2019-06-16T14:25:58Z</time>
      </trkpt>
      <trkpt lat="43.411577" lon="-3.411383">
        <ele>7.718</ele>
        <time>2019-06-16T14:25:59Z</time>
      </trkpt>
      <trkpt lat="43.411573" lon="-3.411449">
        <ele>7.633</ele>
        <time>2019-06-16T14:26:00Z</time>
      </trkpt>
      <trkpt lat="43.411558" lon="-3.411509">
        <ele>7.423</ele>
        <time>2019-06-16T14:26:01Z</time>
      </trkpt>
      <trkpt lat="43.411543" lon="-3.411597">
        <ele>7.215</ele>
        <time>2019-06-16T14:26:02Z</time>
      </trkpt>
      <trkpt lat="43.411521" lon="-3.411691">
        <ele>7.008</ele>
        <time>2019-06-16T14:26:03Z</time>
      </trkpt>
      <trkpt lat="43.411500" lon="-3.411801">
        <ele>7.246</ele>
        <time>2019-06-16T14:26:04Z</time>
      </trkpt>
      <trkpt lat="43.411471" lon="-3.411876">
        <ele>7.050</ele>
        <time>2019-06-16T14:26:05Z</time>
      </trkpt>
      <trkpt lat="43.411426" lon="-3.411955">
        <ele>6.520</ele>
        <time>2019-06-16T14:26:06Z</time>
      </trkpt>
      <trkpt lat="43.411384" lon="-3.412021">
        <ele>6.084</ele>
        <time>2019-06-16T14:26:07Z</time>
      </trkpt>
      <trkpt lat="43.411337" lon="-3.412098">
        <ele>5.983</ele>
        <time>2019-06-16T14:26:08Z</time>
      </trkpt>
      <trkpt lat="43.411283" lon="-3.412204">
        <ele>5.693</ele>
        <time>2019-06-16T14:26:09Z</time>
      </trkpt>
      <trkpt lat="43.411228" lon="-3.412310">
        <ele>5.199</ele>
        <time>2019-06-16T14:26:10Z</time>
      </trkpt>
      <trkpt lat="43.411177" lon="-3.412401">
        <ele>4.628</ele>
        <time>2019-06-16T14:26:11Z</time>
      </trkpt>
      <trkpt lat="43.411101" lon="-3.412490">
        <ele>4.137</ele>
        <time>2019-06-16T14:26:12Z</time>
      </trkpt>
      <trkpt lat="43.411024" lon="-3.412561">
        <ele>4.249</ele>
        <time>2019-06-16T14:26:13Z</time>
      </trkpt>
      <trkpt lat="43.410959" lon="-3.412632">
        <ele>4.313</ele>
        <time>2019-06-16T14:26:14Z</time>
      </trkpt>
      <trkpt lat="43.410898" lon="-3.412705">
        <ele>4.208</ele>
        <time>2019-06-16T14:26:15Z</time>
      </trkpt>
      <trkpt lat="43.410861" lon="-3.412791">
        <ele>4.036</ele>
        <time>2019-06-16T14:26:16Z</time>
      </trkpt>
      <trkpt lat="43.410806" lon="-3.412805">
        <ele>4.140</ele>
        <time>2019-06-16T14:26:17Z</time>
      </trkpt>
      <trkpt lat="43.410755" lon="-3.412839">
        <ele>4.260</ele>
        <time>2019-06-16T14:26:18Z</time>
      </trkpt>
      <trkpt lat="43.410688" lon="-3.412847">
        <ele>4.474</ele>
        <time>2019-06-16T14:26:19Z</time>
      </trkpt>
      <trkpt lat="43.410609" lon="-3.412861">
        <ele>4.633</ele>
        <time>2019-06-16T14:26:20Z</time>
      </trkpt>
      <trkpt lat="43.410541" lon="-3.412869">
        <ele>4.753</ele>
        <time>2019-06-16T14:26:21Z</time>
      </trkpt>
      <trkpt lat="43.410454" lon="-3.412875">
        <ele>4.829</ele>
        <time>2019-06-16T14:26:22Z</time>
      </trkpt>
      <trkpt lat="43.410371" lon="-3.412894">
        <ele>4.998</ele>
        <time>2019-06-16T14:26:23Z</time>
      </trkpt>
      <trkpt lat="43.410288" lon="-3.412928">
        <ele>5.076</ele>
        <time>2019-06-16T14:26:24Z</time>
      </trkpt>
      <trkpt lat="43.410200" lon="-3.412976">
        <ele>5.090</ele>
        <time>2019-06-16T14:26:25Z</time>
      </trkpt>
      <trkpt lat="43.410122" lon="-3.413033">
        <ele>5.019</ele>
        <time>2019-06-16T14:26:26Z</time>
      </trkpt>
      <trkpt lat="43.410039" lon="-3.413105">
        <ele>4.808</ele>
        <time>2019-06-16T14:26:27Z</time>
      </trkpt>
      <trkpt lat="43.409947" lon="-3.413188">
        <ele>4.640</ele>
        <time>2019-06-16T14:26:28Z</time>
      </trkpt>
      <trkpt lat="43.409847" lon="-3.413279">
        <ele>4.684</ele>
        <time>2019-06-16T14:26:29Z</time>
      </trkpt>
      <trkpt lat="43.409748" lon="-3.413381">
        <ele>4.864</ele>
        <time>2019-06-16T14:26:30Z</time>
      </trkpt>
      <trkpt lat="43.409651" lon="-3.413471">
        <ele>4.588</ele>
        <time>2019-06-16T14:26:31Z</time>
      </trkpt>
      <trkpt lat="43.409547" lon="-3.413567">
        <ele>4.237</ele>
        <time>2019-06-16T14:26:32Z</time>
      </trkpt>
      <trkpt lat="43.409438" lon="-3.413665">
        <ele>4.077</ele>
        <time>2019-06-16T14:26:33Z</time>
      </trkpt>
      <trkpt lat="43.409335" lon="-3.413765">
        <ele>4.053</ele>
        <time>2019-06-16T14:26:34Z</time>
      </trkpt>
      <trkpt lat="43.409231" lon="-3.413862">
        <ele>4.052</ele>
        <time>2019-06-16T14:26:35Z</time>
      </trkpt>
      <trkpt lat="43.409125" lon="-3.413956">
        <ele>4.097</ele>
        <time>2019-06-16T14:26:36Z</time>
      </trkpt>
      <trkpt lat="43.409031" lon="-3.414050">
        <ele>4.023</ele>
        <time>2019-06-16T14:26:37Z</time>
      </trkpt>
      <trkpt lat="43.408959" lon="-3.414142">
        <ele>4.025</ele>
        <time>2019-06-16T14:26:38Z</time>
      </trkpt>
      <trkpt lat="43.408867" lon="-3.414230">
        <ele>4.008</ele>
        <time>2019-06-16T14:26:39Z</time>
      </trkpt>
      <trkpt lat="43.408773" lon="-3.414300">
        <ele>4.012</ele>
        <time>2019-06-16T14:26:40Z</time>
      </trkpt>
      <trkpt lat="43.408681" lon="-3.414374">
        <ele>4.086</ele>
        <time>2019-06-16T14:26:41Z</time>
      </trkpt>
      <trkpt lat="43.408611" lon="-3.414451">
        <ele>4.036</ele>
        <time>2019-06-16T14:26:42Z</time>
      </trkpt>
      <trkpt lat="43.408531" lon="-3.414534">
        <ele>4.020</ele>
        <time>2019-06-16T14:26:43Z</time>
      </trkpt>
      <trkpt lat="43.408471" lon="-3.414607">
        <ele>4.029</ele>
        <time>2019-06-16T14:26:44Z</time>
      </trkpt>
      <trkpt lat="43.408400" lon="-3.414696">
        <ele>4.039</ele>
        <time>2019-06-16T14:26:45Z</time>
      </trkpt>
      <trkpt lat="43.408370" lon="-3.414768">
        <ele>4.055</ele>
        <time>2019-06-16T14:26:46Z</time>
      </trkpt>
      <trkpt lat="43.408336" lon="-3.414859">
        <ele>4.024</ele>
        <time>2019-06-16T14:26:47Z</time>
      </trkpt>
      <trkpt lat="43.408327" lon="-3.414935">
        <ele>4.085</ele>
        <time>2019-06-16T14:26:48Z</time>
      </trkpt>
      <trkpt lat="43.408313" lon="-3.415012">
        <ele>4.089</ele>
        <time>2019-06-16T14:26:49Z</time>
      </trkpt>
      <trkpt lat="43.408287" lon="-3.415110">
        <ele>4.017</ele>
        <time>2019-06-16T14:26:50Z</time>
      </trkpt>
      <trkpt lat="43.408237" lon="-3.415154">
        <ele>4.008</ele>
        <time>2019-06-16T14:26:51Z</time>
      </trkpt>
      <trkpt lat="43.408164" lon="-3.415225">
        <ele>4.011</ele>
        <time>2019-06-16T14:26:52Z</time>
      </trkpt>
      <trkpt lat="43.408101" lon="-3.415244">
        <ele>4.075</ele>
        <time>2019-06-16T14:26:53Z</time>
      </trkpt>
      <trkpt lat="43.408034" lon="-3.415241">
        <ele>4.055</ele>
        <time>2019-06-16T14:26:54Z</time>
      </trkpt>
      <trkpt lat="43.407971" lon="-3.415182">
        <ele>4.049</ele>
        <time>2019-06-16T14:26:55Z</time>
      </trkpt>
      <trkpt lat="43.407901" lon="-3.415160">
        <ele>4.058</ele>
        <time>2019-06-16T14:26:56Z</time>
      </trkpt>
      <trkpt lat="43.407856" lon="-3.415189">
        <ele>4.048</ele>
        <time>2019-06-16T14:26:57Z</time>
      </trkpt>
      <trkpt lat="43.407795" lon="-3.415237">
        <ele>4.084</ele>
        <time>2019-06-16T14:26:58Z</time>
      </trkpt>
      <trkpt lat="43.407735" lon="-3.415271">
        <ele>4.083</ele>
        <time>2019-06-16T14:26:59Z</time>
      </trkpt>
      <trkpt lat="43.407666" lon="-3.415319">
        <ele>4.039</ele>
        <time>2019-06-16T14:27:00Z</time>
      </trkpt>
      <trkpt lat="43.407601" lon="-3.415372">
        <ele>4.001</ele>
        <time>2019-06-16T14:27:01Z</time>
      </trkpt>
      <trkpt lat="43.407536" lon="-3.415436">
        <ele>4.021</ele>
        <time>2019-06-16T14:27:02Z</time>
      </trkpt>
      <trkpt lat="43.407477" lon="-3.415501">
        <ele>4.008</ele>
        <time>2019-06-16T14:27:03Z</time>
      </trkpt>
      <trkpt lat="43.407406" lon="-3.415568">
        <ele>4.016</ele>
        <time>2019-06-16T14:27:04Z</time>
      </trkpt>
      <trkpt lat="43.407347" lon="-3.415635">
        <ele>4.070</ele>
        <time>2019-06-16T14:27:05Z</time>
      </trkpt>
      <trkpt lat="43.407288" lon="-3.415684">
        <ele>4.040</ele>
        <time>2019-06-16T14:27:06Z</time>
      </trkpt>
      <trkpt lat="43.407237" lon="-3.415730">
        <ele>4.064</ele>
        <time>2019-06-16T14:27:07Z</time>
      </trkpt>
      <trkpt lat="43.407201" lon="-3.415782">
        <ele>4.023</ele>
        <time>2019-06-16T14:27:08Z</time>
      </trkpt>
      <trkpt lat="43.407135" lon="-3.415828">
        <ele>4.033</ele>
        <time>2019-06-16T14:27:09Z</time>
      </trkpt>
      <trkpt lat="43.407071" lon="-3.415882">
        <ele>4.089</ele>
        <time>2019-06-16T14:27:10Z</time>
      </trkpt>
      <trkpt lat="43.407007" lon="-3.415940">
        <ele>4.098</ele>
        <time>2019-06-16T14:27:11Z</time>
      </trkpt>
      <trkpt lat="43.406945" lon="-3.415993">
        <ele>4.023</ele>
        <time>2019-06-16T14:27:12Z</time>
      </trkpt>
      <trkpt lat="43.406869" lon="-3.416060">
        <ele>4.083</ele>
        <time>2019-06-16T14:27:13Z</time>
      </trkpt>
      <trkpt lat="43.406807" lon="-3.416114">
        <ele>4.011</ele>
        <time>2019-06-16T14:27:14Z</time>
      </trkpt>
      <trkpt lat="43.406745" lon="-3.416174">
        <ele>3.908</ele>
        <time>2019-06-16T14:27:15Z</time>
      </trkpt>
      <trkpt lat="43.406671" lon="-3.416235">
        <ele>4.045</ele>
        <time>2019-06-16T14:27:16Z</time>
      </trkpt>
      <trkpt lat="43.406610" lon="-3.416302">
        <ele>4.019</ele>
        <time>2019-06-16T14:27:17Z</time>
      </trkpt>
      <trkpt lat="43.406531" lon="-3.416379">
        <ele>4.039</ele>
        <time>2019-06-16T14:27:18Z</time>
      </trkpt>
      <trkpt lat="43.406463" lon="-3.416445">
        <ele>4.063</ele>
        <time>2019-06-16T14:27:19Z</time>
      </trkpt>
      <trkpt lat="43.406400" lon="-3.416507">
        <ele>4.072</ele>
        <time>2019-06-16T14:27:20Z</time>
      </trkpt>
      <trkpt lat="43.406332" lon="-3.416561">
        <ele>4.092</ele>
        <time>2019-06-16T14:27:21Z</time>
      </trkpt>
      <trkpt lat="43.406269" lon="-3.416623">
        <ele>4.028</ele>
        <time>2019-06-16T14:27:22Z</time>
      </trkpt>
      <trkpt lat="43.406205" lon="-3.416687">
        <ele>4.087</ele>
        <time>2019-06-16T14:27:23Z</time>
      </trkpt>
      <trkpt lat="43.406138" lon="-3.416765">
        <ele>4.018</ele>
        <time>2019-06-16T14:27:24Z</time>
      </trkpt>
      <trkpt lat="43.406095" lon="-3.416823">
        <ele>4.098</ele>
        <time>2019-06-16T14:27:25Z</time>
      </trkpt>
      <trkpt lat="43.406046" lon="-3.416880">
        <ele>4.017</ele>
        <time>2019-06-16T14:27:26Z</time>
      </trkpt>
      <trkpt lat="43.406015" lon="-3.416932">
        <ele>4.008</ele>
        <time>2019-06-16T14:27:27Z</time>
      </trkpt>
      <trkpt lat="43.405959" lon="-3.416977">
        <ele>4.024</ele>
        <time>2019-06-16T14:27:28Z</time>
      </trkpt>
      <trkpt lat="43.405908" lon="-3.417023">
        <ele>4.068</ele>
        <time>2019-06-16T14:27:29Z</time>
      </trkpt>
      <trkpt lat="43.405863" lon="-3.417069">
        <ele>4.048</ele>
        <time>2019-06-16T14:27:30Z</time>
      </trkpt>
      <trkpt lat="43.405802" lon="-3.417150">
        <ele>4.072</ele>
        <time>2019-06-16T14:27:31Z</time>
      </trkpt>
      <trkpt lat="43.405759" lon="-3.417252">
        <ele>4.061</ele>
        <time>2019-06-16T14:27:32Z</time>
      </trkpt>
      <trkpt lat="43.405706" lon="-3.417333">
        <ele>4.011</ele>
        <time>2019-06-16T14:27:33Z</time>
      </trkpt>
      <trkpt lat="43.405634" lon="-3.417425">
        <ele>4.017</ele>
        <time>2019-06-16T14:27:34Z</time>
      </trkpt>
      <trkpt lat="43.405570" lon="-3.417529">
        <ele>4.046</ele>
        <time>2019-06-16T14:27:35Z</time>
      </trkpt>
      <trkpt lat="43.405503" lon="-3.417636">
        <ele>4.044</ele>
        <time>2019-06-16T14:27:36Z</time>
      </trkpt>
      <trkpt lat="43.405426" lon="-3.417747">
        <ele>4.005</ele>
        <time>2019-06-16T14:27:37Z</time>
      </trkpt>
      <trkpt lat="43.405359" lon="-3.417846">
        <ele>4.115</ele>
        <time>2019-06-16T14:27:38Z</time>
      </trkpt>
      <trkpt lat="43.405263" lon="-3.417974">
        <ele>4.008</ele>
        <time>2019-06-16T14:27:39Z</time>
      </trkpt>
      <trkpt lat="43.405194" lon="-3.418071">
        <ele>4.047</ele>
        <time>2019-06-16T14:27:40Z</time>
      </trkpt>
      <trkpt lat="43.405126" lon="-3.418177">
        <ele>3.811</ele>
        <time>2019-06-16T14:27:41Z</time>
      </trkpt>
      <trkpt lat="43.405060" lon="-3.418261">
        <ele>3.851</ele>
        <time>2019-06-16T14:27:42Z</time>
      </trkpt>
      <trkpt lat="43.404981" lon="-3.418369">
        <ele>4.155</ele>
        <time>2019-06-16T14:27:43Z</time>
      </trkpt>
      <trkpt lat="43.404910" lon="-3.418495">
        <ele>4.534</ele>
        <time>2019-06-16T14:27:44Z</time>
      </trkpt>
      <trkpt lat="43.404845" lon="-3.418630">
        <ele>4.554</ele>
        <time>2019-06-16T14:27:45Z</time>
      </trkpt>
      <trkpt lat="43.404780" lon="-3.418734">
        <ele>4.440</ele>
        <time>2019-06-16T14:27:46Z</time>
      </trkpt>
      <trkpt lat="43.404718" lon="-3.418859">
        <ele>4.419</ele>
        <time>2019-06-16T14:27:47Z</time>
      </trkpt>
      <trkpt lat="43.404665" lon="-3.418990">
        <ele>6.255</ele>
        <time>2019-06-16T14:27:48Z</time>
      </trkpt>
      <trkpt lat="43.404624" lon="-3.419116">
        <ele>5.607</ele>
        <time>2019-06-16T14:27:49Z</time>
      </trkpt>
      <trkpt lat="43.404578" lon="-3.419241">
        <ele>4.917</ele>
        <time>2019-06-16T14:27:50Z</time>
      </trkpt>
      <trkpt lat="43.404520" lon="-3.419391">
        <ele>4.908</ele>
        <time>2019-06-16T14:27:51Z</time>
      </trkpt>
      <trkpt lat="43.404465" lon="-3.419535">
        <ele>4.688</ele>
        <time>2019-06-16T14:27:52Z</time>
      </trkpt>
      <trkpt lat="43.404400" lon="-3.419680">
        <ele>4.672</ele>
        <time>2019-06-16T14:27:53Z</time>
      </trkpt>
      <trkpt lat="43.404332" lon="-3.419828">
        <ele>4.922</ele>
        <time>2019-06-16T14:27:54Z</time>
      </trkpt>
      <trkpt lat="43.404315" lon="-3.419964">
        <ele>4.616</ele>
        <time>2019-06-16T14:27:55Z</time>
      </trkpt>
      <trkpt lat="43.404264" lon="-3.420082">
        <ele>4.525</ele>
        <time>2019-06-16T14:27:56Z</time>
      </trkpt>
      <trkpt lat="43.404213" lon="-3.420245">
        <ele>4.125</ele>
        <time>2019-06-16T14:27:57Z</time>
      </trkpt>
      <trkpt lat="43.404160" lon="-3.420399">
        <ele>4.241</ele>
        <time>2019-06-16T14:27:58Z</time>
      </trkpt>
      <trkpt lat="43.404128" lon="-3.420547">
        <ele>4.740</ele>
        <time>2019-06-16T14:27:59Z</time>
      </trkpt>
      <trkpt lat="43.404103" lon="-3.420696">
        <ele>4.721</ele>
        <time>2019-06-16T14:28:00Z</time>
      </trkpt>
      <trkpt lat="43.404069" lon="-3.420817">
        <ele>4.441</ele>
        <time>2019-06-16T14:28:01Z</time>
      </trkpt>
      <trkpt lat="43.404035" lon="-3.420960">
        <ele>4.305</ele>
        <time>2019-06-16T14:28:02Z</time>
      </trkpt>
      <trkpt lat="43.403998" lon="-3.421118">
        <ele>4.008</ele>
        <time>2019-06-16T14:28:03Z</time>
      </trkpt>
      <trkpt lat="43.403949" lon="-3.421260">
        <ele>4.035</ele>
        <time>2019-06-16T14:28:04Z</time>
      </trkpt>
      <trkpt lat="43.403910" lon="-3.421411">
        <ele>4.029</ele>
        <time>2019-06-16T14:28:05Z</time>
      </trkpt>
      <trkpt lat="43.403866" lon="-3.421576">
        <ele>4.119</ele>
        <time>2019-06-16T14:28:06Z</time>
      </trkpt>
      <trkpt lat="43.403826" lon="-3.421724">
        <ele>4.233</ele>
        <time>2019-06-16T14:28:07Z</time>
      </trkpt>
      <trkpt lat="43.403788" lon="-3.421891">
        <ele>4.162</ele>
        <time>2019-06-16T14:28:08Z</time>
      </trkpt>
      <trkpt lat="43.403758" lon="-3.422053">
        <ele>4.012</ele>
        <time>2019-06-16T14:28:09Z</time>
      </trkpt>
      <trkpt lat="43.403727" lon="-3.422196">
        <ele>4.058</ele>
        <time>2019-06-16T14:28:10Z</time>
      </trkpt>
      <trkpt lat="43.403704" lon="-3.422352">
        <ele>4.347</ele>
        <time>2019-06-16T14:28:11Z</time>
      </trkpt>
      <trkpt lat="43.403689" lon="-3.422486">
        <ele>4.771</ele>
        <time>2019-06-16T14:28:12Z</time>
      </trkpt>
      <trkpt lat="43.403660" lon="-3.422650">
        <ele>4.841</ele>
        <time>2019-06-16T14:28:13Z</time>
      </trkpt>
      <trkpt lat="43.403647" lon="-3.422792">
        <ele>4.815</ele>
        <time>2019-06-16T14:28:14Z</time>
      </trkpt>
      <trkpt lat="43.403632" lon="-3.422936">
        <ele>4.408</ele>
        <time>2019-06-16T14:28:15Z</time>
      </trkpt>
      <trkpt lat="43.403613" lon="-3.423084">
        <ele>4.010</ele>
        <time>2019-06-16T14:28:16Z</time>
      </trkpt>
      <trkpt lat="43.403589" lon="-3.423248">
        <ele>4.184</ele>
        <time>2019-06-16T14:28:17Z</time>
      </trkpt>
      <trkpt lat="43.403561" lon="-3.423409">
        <ele>4.174</ele>
        <time>2019-06-16T14:28:18Z</time>
      </trkpt>
      <trkpt lat="43.403536" lon="-3.423568">
        <ele>4.088</ele>
        <time>2019-06-16T14:28:19Z</time>
      </trkpt>
      <trkpt lat="43.403524" lon="-3.423709">
        <ele>4.147</ele>
        <time>2019-06-16T14:28:20Z</time>
      </trkpt>
      <trkpt lat="43.403492" lon="-3.423917">
        <ele>4.547</ele>
        <time>2019-06-16T14:28:21Z</time>
      </trkpt>
      <trkpt lat="43.403452" lon="-3.424131">
        <ele>4.973</ele>
        <time>2019-06-16T14:28:22Z</time>
      </trkpt>
      <trkpt lat="43.403428" lon="-3.424356">
        <ele>5.062</ele>
        <time>2019-06-16T14:28:23Z</time>
      </trkpt>
      <trkpt lat="43.403401" lon="-3.424587">
        <ele>4.596</ele>
        <time>2019-06-16T14:28:24Z</time>
      </trkpt>
      <trkpt lat="43.403370" lon="-3.424820">
        <ele>4.031</ele>
        <time>2019-06-16T14:28:25Z</time>
      </trkpt>
      <trkpt lat="43.403323" lon="-3.425081">
        <ele>4.024</ele>
        <time>2019-06-16T14:28:26Z</time>
      </trkpt>
      <trkpt lat="43.403284" lon="-3.425336">
        <ele>4.208</ele>
        <time>2019-06-16T14:28:27Z</time>
      </trkpt>
      <trkpt lat="43.403248" lon="-3.425597">
        <ele>4.492</ele>
        <time>2019-06-16T14:28:28Z</time>
      </trkpt>
      <trkpt lat="43.403216" lon="-3.425854">
        <ele>5.026</ele>
        <time>2019-06-16T14:28:29Z</time>
      </trkpt>
      <trkpt lat="43.403202" lon="-3.426046">
        <ele>5.076</ele>
        <time>2019-06-16T14:28:30Z</time>
      </trkpt>
      <trkpt lat="43.403171" lon="-3.426266">
        <ele>5.060</ele>
        <time>2019-06-16T14:28:31Z</time>
      </trkpt>
      <trkpt lat="43.403141" lon="-3.426488">
        <ele>5.099</ele>
        <time>2019-06-16T14:28:32Z</time>
      </trkpt>
      <trkpt lat="43.403087" lon="-3.426720">
        <ele>5.089</ele>
        <time>2019-06-16T14:28:33Z</time>
      </trkpt>
      <trkpt lat="43.403067" lon="-3.426936">
        <ele>5.065</ele>
        <time>2019-06-16T14:28:34Z</time>
      </trkpt>
      <trkpt lat="43.403040" lon="-3.427151">
        <ele>5.024</ele>
        <time>2019-06-16T14:28:35Z</time>
      </trkpt>
      <trkpt lat="43.403005" lon="-3.427336">
        <ele>5.029</ele>
        <time>2019-06-16T14:28:36Z</time>
      </trkpt>
      <trkpt lat="43.403002" lon="-3.427493">
        <ele>5.000</ele>
        <time>2019-06-16T14:28:37Z</time>
      </trkpt>
      <trkpt lat="43.402990" lon="-3.427666">
        <ele>5.020</ele>
        <time>2019-06-16T14:28:38Z</time>
      </trkpt>
      <trkpt lat="43.403009" lon="-3.427741">
        <ele>5.008</ele>
        <time>2019-06-16T14:28:39Z</time>
      </trkpt>
      <trkpt lat="43.403010" lon="-3.427870">
        <ele>5.085</ele>
        <time>2019-06-16T14:28:40Z</time>
      </trkpt>
      <trkpt lat="43.402992" lon="-3.427993">
        <ele>5.039</ele>
        <time>2019-06-16T14:28:41Z</time>
      </trkpt>
      <trkpt lat="43.402991" lon="-3.428066">
        <ele>5.089</ele>
        <time>2019-06-16T14:28:42Z</time>
      </trkpt>
      <trkpt lat="43.402974" lon="-3.428147">
        <ele>5.083</ele>
        <time>2019-06-16T14:28:43Z</time>
      </trkpt>
      <trkpt lat="43.402984" lon="-3.428233">
        <ele>5.032</ele>
        <time>2019-06-16T14:28:45Z</time>
      </trkpt>
      <trkpt lat="43.403002" lon="-3.428341">
        <ele>5.022</ele>
        <time>2019-06-16T14:29:01Z</time>
      </trkpt>
      <trkpt lat="43.403000" lon="-3.428441">
        <ele>4.928</ele>
        <time>2019-06-16T14:29:02Z</time>
      </trkpt>
      <trkpt lat="43.403000" lon="-3.428561">
        <ele>4.897</ele>
        <time>2019-06-16T14:29:03Z</time>
      </trkpt>
      <trkpt lat="43.403000" lon="-3.428689">
        <ele>4.944</ele>
        <time>2019-06-16T14:29:04Z</time>
      </trkpt>
      <trkpt lat="43.403005" lon="-3.428833">
        <ele>5.005</ele>
        <time>2019-06-16T14:29:05Z</time>
      </trkpt>
      <trkpt lat="43.403003" lon="-3.428979">
        <ele>5.015</ele>
        <time>2019-06-16T14:29:06Z</time>
      </trkpt>
      <trkpt lat="43.403003" lon="-3.429158">
        <ele>5.008</ele>
        <time>2019-06-16T14:29:07Z</time>
      </trkpt>
      <trkpt lat="43.403000" lon="-3.429322">
        <ele>5.017</ele>
        <time>2019-06-16T14:29:08Z</time>
      </trkpt>
      <trkpt lat="43.402994" lon="-3.429519">
        <ele>5.111</ele>
        <time>2019-06-16T14:29:09Z</time>
      </trkpt>
      <trkpt lat="43.402991" lon="-3.429702">
        <ele>5.221</ele>
        <time>2019-06-16T14:29:10Z</time>
      </trkpt>
      <trkpt lat="43.402961" lon="-3.429894">
        <ele>5.185</ele>
        <time>2019-06-16T14:29:11Z</time>
      </trkpt>
      <trkpt lat="43.402949" lon="-3.430061">
        <ele>5.064</ele>
        <time>2019-06-16T14:29:12Z</time>
      </trkpt>
      <trkpt lat="43.402906" lon="-3.430256">
        <ele>5.084</ele>
        <time>2019-06-16T14:29:13Z</time>
      </trkpt>
      <trkpt lat="43.402868" lon="-3.430449">
        <ele>5.040</ele>
        <time>2019-06-16T14:29:14Z</time>
      </trkpt>
      <trkpt lat="43.402843" lon="-3.430638">
        <ele>5.099</ele>
        <time>2019-06-16T14:29:15Z</time>
      </trkpt>
      <trkpt lat="43.402801" lon="-3.430839">
        <ele>5.083</ele>
        <time>2019-06-16T14:29:16Z</time>
      </trkpt>
      <trkpt lat="43.402763" lon="-3.431036">
        <ele>5.125</ele>
        <time>2019-06-16T14:29:17Z</time>
      </trkpt>
      <trkpt lat="43.402719" lon="-3.431236">
        <ele>5.317</ele>
        <time>2019-06-16T14:29:18Z</time>
      </trkpt>
      <trkpt lat="43.402674" lon="-3.431441">
        <ele>5.408</ele>
        <time>2019-06-16T14:29:19Z</time>
      </trkpt>
      <trkpt lat="43.402630" lon="-3.431647">
        <ele>5.571</ele>
        <time>2019-06-16T14:29:20Z</time>
      </trkpt>
      <trkpt lat="43.402589" lon="-3.431866">
        <ele>5.295</ele>
        <time>2019-06-16T14:29:21Z</time>
      </trkpt>
      <trkpt lat="43.402542" lon="-3.432101">
        <ele>5.085</ele>
        <time>2019-06-16T14:29:22Z</time>
      </trkpt>
      <trkpt lat="43.402505" lon="-3.432321">
        <ele>5.049</ele>
        <time>2019-06-16T14:29:23Z</time>
      </trkpt>
      <trkpt lat="43.402505" lon="-3.432567">
        <ele>5.038</ele>
        <time>2019-06-16T14:29:24Z</time>
      </trkpt>
      <trkpt lat="43.402496" lon="-3.432835">
        <ele>5.058</ele>
        <time>2019-06-16T14:29:25Z</time>
      </trkpt>
      <trkpt lat="43.402482" lon="-3.433079">
        <ele>5.094</ele>
        <time>2019-06-16T14:29:26Z</time>
      </trkpt>
      <trkpt lat="43.402460" lon="-3.433336">
        <ele>5.023</ele>
        <time>2019-06-16T14:29:27Z</time>
      </trkpt>
      <trkpt lat="43.402439" lon="-3.433570">
        <ele>5.041</ele>
        <time>2019-06-16T14:29:28Z</time>
      </trkpt>
      <trkpt lat="43.402421" lon="-3.433801">
        <ele>5.081</ele>
        <time>2019-06-16T14:29:29Z</time>
      </trkpt>
      <trkpt lat="43.402395" lon="-3.434006">
        <ele>5.009</ele>
        <time>2019-06-16T14:29:30Z</time>
      </trkpt>
      <trkpt lat="43.402387" lon="-3.434186">
        <ele>5.008</ele>
        <time>2019-06-16T14:29:31Z</time>
      </trkpt>
      <trkpt lat="43.402373" lon="-3.434395">
        <ele>5.097</ele>
        <time>2019-06-16T14:29:32Z</time>
      </trkpt>
      <trkpt lat="43.402346" lon="-3.434601">
        <ele>5.081</ele>
        <time>2019-06-16T14:29:33Z</time>
      </trkpt>
      <trkpt lat="43.402325" lon="-3.434798">
        <ele>5.041</ele>
        <time>2019-06-16T14:29:34Z</time>
      </trkpt>
      <trkpt lat="43.402286" lon="-3.434968">
        <ele>5.075</ele>
        <time>2019-06-16T14:29:35Z</time>
      </trkpt>
      <trkpt lat="43.402253" lon="-3.435139">
        <ele>5.024</ele>
        <time>2019-06-16T14:29:36Z</time>
      </trkpt>
      <trkpt lat="43.402207" lon="-3.435297">
        <ele>5.044</ele>
        <time>2019-06-16T14:29:37Z</time>
      </trkpt>
      <trkpt lat="43.402141" lon="-3.435433">
        <ele>5.010</ele>
        <time>2019-06-16T14:29:38Z</time>
      </trkpt>
      <trkpt lat="43.402097" lon="-3.435463">
        <ele>5.099</ele>
        <time>2019-06-16T14:29:39Z</time>
      </trkpt>
      <trkpt lat="43.402046" lon="-3.435547">
        <ele>5.093</ele>
        <time>2019-06-16T14:29:40Z</time>
      </trkpt>
      <trkpt lat="43.402001" lon="-3.435602">
        <ele>5.065</ele>
        <time>2019-06-16T14:29:42Z</time>
      </trkpt>
      <trkpt lat="43.401955" lon="-3.435658">
        <ele>5.021</ele>
        <time>2019-06-16T14:29:43Z</time>
      </trkpt>
      <trkpt lat="43.401897" lon="-3.435711">
        <ele>5.008</ele>
        <time>2019-06-16T14:29:44Z</time>
      </trkpt>
      <trkpt lat="43.401834" lon="-3.435783">
        <ele>5.042</ele>
        <time>2019-06-16T14:29:45Z</time>
      </trkpt>
      <trkpt lat="43.401762" lon="-3.435857">
        <ele>5.046</ele>
        <time>2019-06-16T14:29:46Z</time>
      </trkpt>
      <trkpt lat="43.401694" lon="-3.435938">
        <ele>5.076</ele>
        <time>2019-06-16T14:29:47Z</time>
      </trkpt>
      <trkpt lat="43.401648" lon="-3.436063">
        <ele>5.090</ele>
        <time>2019-06-16T14:29:48Z</time>
      </trkpt>
      <trkpt lat="43.401582" lon="-3.436166">
        <ele>5.069</ele>
        <time>2019-06-16T14:29:49Z</time>
      </trkpt>
      <trkpt lat="43.401530" lon="-3.436281">
        <ele>5.099</ele>
        <time>2019-06-16T14:29:50Z</time>
      </trkpt>
      <trkpt lat="43.401483" lon="-3.436401">
        <ele>5.065</ele>
        <time>2019-06-16T14:29:51Z</time>
      </trkpt>
      <trkpt lat="43.401444" lon="-3.436522">
        <ele>5.024</ele>
        <time>2019-06-16T14:29:52Z</time>
      </trkpt>
      <trkpt lat="43.401408" lon="-3.436635">
        <ele>5.021</ele>
        <time>2019-06-16T14:29:53Z</time>
      </trkpt>
      <trkpt lat="43.401379" lon="-3.436736">
        <ele>5.041</ele>
        <time>2019-06-16T14:29:54Z</time>
      </trkpt>
      <trkpt lat="43.401370" lon="-3.436829">
        <ele>5.005</ele>
        <time>2019-06-16T14:29:55Z</time>
      </trkpt>
      <trkpt lat="43.401358" lon="-3.436919">
        <ele>5.008</ele>
        <time>2019-06-16T14:29:57Z</time>
      </trkpt>
      <trkpt lat="43.401346" lon="-3.436993">
        <ele>5.015</ele>
        <time>2019-06-16T14:29:59Z</time>
      </trkpt>
      <trkpt lat="43.401355" lon="-3.437113">
        <ele>5.099</ele>
        <time>2019-06-16T14:30:02Z</time>
      </trkpt>
      <trkpt lat="43.401358" lon="-3.437185">
        <ele>5.069</ele>
        <time>2019-06-16T14:30:03Z</time>
      </trkpt>
      <trkpt lat="43.401354" lon="-3.437259">
        <ele>5.013</ele>
        <time>2019-06-16T14:30:04Z</time>
      </trkpt>
      <trkpt lat="43.401352" lon="-3.437364">
        <ele>5.012</ele>
        <time>2019-06-16T14:30:05Z</time>
      </trkpt>
      <trkpt lat="43.401317" lon="-3.437475">
        <ele>5.012</ele>
        <time>2019-06-16T14:30:06Z</time>
      </trkpt>
      <trkpt lat="43.401281" lon="-3.437574">
        <ele>4.798</ele>
        <time>2019-06-16T14:30:07Z</time>
      </trkpt>
      <trkpt lat="43.401247" lon="-3.437667">
        <ele>4.497</ele>
        <time>2019-06-16T14:30:08Z</time>
      </trkpt>
      <trkpt lat="43.401209" lon="-3.437758">
        <ele>4.118</ele>
        <time>2019-06-16T14:30:09Z</time>
      </trkpt>
      <trkpt lat="43.401102" lon="-3.437710">
        <ele>4.398</ele>
        <time>2019-06-16T14:30:10Z</time>
      </trkpt>
      <trkpt lat="43.401027" lon="-3.437712">
        <ele>4.517</ele>
        <time>2019-06-16T14:30:11Z</time>
      </trkpt>
      <trkpt lat="43.400965" lon="-3.437701">
        <ele>4.708</ele>
        <time>2019-06-16T14:30:12Z</time>
      </trkpt>
      <trkpt lat="43.400916" lon="-3.437743">
        <ele>4.734</ele>
        <time>2019-06-16T14:30:13Z</time>
      </trkpt>
      <trkpt lat="43.400862" lon="-3.437787">
        <ele>4.958</ele>
        <time>2019-06-16T14:30:14Z</time>
      </trkpt>
      <trkpt lat="43.400794" lon="-3.437877">
        <ele>4.758</ele>
        <time>2019-06-16T14:30:15Z</time>
      </trkpt>
      <trkpt lat="43.400738" lon="-3.438010">
        <ele>4.592</ele>
        <time>2019-06-16T14:30:16Z</time>
      </trkpt>
      <trkpt lat="43.400682" lon="-3.438123">
        <ele>4.421</ele>
        <time>2019-06-16T14:30:17Z</time>
      </trkpt>
      <trkpt lat="43.400618" lon="-3.438234">
        <ele>4.341</ele>
        <time>2019-06-16T14:30:18Z</time>
      </trkpt>
      <trkpt lat="43.400548" lon="-3.438368">
        <ele>4.037</ele>
        <time>2019-06-16T14:30:19Z</time>
      </trkpt>
      <trkpt lat="43.400465" lon="-3.438543">
        <ele>4.076</ele>
        <time>2019-06-16T14:30:20Z</time>
      </trkpt>
      <trkpt lat="43.400376" lon="-3.438708">
        <ele>4.012</ele>
        <time>2019-06-16T14:30:21Z</time>
      </trkpt>
      <trkpt lat="43.400284" lon="-3.438878">
        <ele>4.032</ele>
        <time>2019-06-16T14:30:22Z</time>
      </trkpt>
      <trkpt lat="43.400209" lon="-3.439029">
        <ele>4.205</ele>
        <time>2019-06-16T14:30:23Z</time>
      </trkpt>
      <trkpt lat="43.400129" lon="-3.439179">
        <ele>4.508</ele>
        <time>2019-06-16T14:30:24Z</time>
      </trkpt>
      <trkpt lat="43.400049" lon="-3.439336">
        <ele>4.394</ele>
        <time>2019-06-16T14:30:25Z</time>
      </trkpt>
      <trkpt lat="43.399971" lon="-3.439507">
        <ele>4.198</ele>
        <time>2019-06-16T14:30:26Z</time>
      </trkpt>
      <trkpt lat="43.399889" lon="-3.439653">
        <ele>4.128</ele>
        <time>2019-06-16T14:30:27Z</time>
      </trkpt>
      <trkpt lat="43.399809" lon="-3.439806">
        <ele>4.082</ele>
        <time>2019-06-16T14:30:28Z</time>
      </trkpt>
      <trkpt lat="43.399730" lon="-3.439948">
        <ele>4.091</ele>
        <time>2019-06-16T14:30:29Z</time>
      </trkpt>
      <trkpt lat="43.399653" lon="-3.440102">
        <ele>4.051</ele>
        <time>2019-06-16T14:30:30Z</time>
      </trkpt>
      <trkpt lat="43.399588" lon="-3.440251">
        <ele>4.037</ele>
        <time>2019-06-16T14:30:31Z</time>
      </trkpt>
      <trkpt lat="43.399533" lon="-3.440384">
        <ele>4.046</ele>
        <time>2019-06-16T14:30:32Z</time>
      </trkpt>
      <trkpt lat="43.399461" lon="-3.440523">
        <ele>4.037</ele>
        <time>2019-06-16T14:30:33Z</time>
      </trkpt>
      <trkpt lat="43.399396" lon="-3.440669">
        <ele>4.049</ele>
        <time>2019-06-16T14:30:34Z</time>
      </trkpt>
      <trkpt lat="43.399336" lon="-3.440812">
        <ele>4.013</ele>
        <time>2019-06-16T14:30:35Z</time>
      </trkpt>
      <trkpt lat="43.399290" lon="-3.440949">
        <ele>4.008</ele>
        <time>2019-06-16T14:30:36Z</time>
      </trkpt>
      <trkpt lat="43.399232" lon="-3.441088">
        <ele>4.016</ele>
        <time>2019-06-16T14:30:37Z</time>
      </trkpt>
      <trkpt lat="43.399176" lon="-3.441237">
        <ele>4.030</ele>
        <time>2019-06-16T14:30:38Z</time>
      </trkpt>
      <trkpt lat="43.399119" lon="-3.441368">
        <ele>4.040</ele>
        <time>2019-06-16T14:30:39Z</time>
      </trkpt>
      <trkpt lat="43.399033" lon="-3.441489">
        <ele>4.094</ele>
        <time>2019-06-16T14:30:40Z</time>
      </trkpt>
      <trkpt lat="43.398967" lon="-3.441602">
        <ele>4.033</ele>
        <time>2019-06-16T14:30:41Z</time>
      </trkpt>
      <trkpt lat="43.398891" lon="-3.441749">
        <ele>4.093</ele>
        <time>2019-06-16T14:30:42Z</time>
      </trkpt>
      <trkpt lat="43.398824" lon="-3.441891">
        <ele>4.079</ele>
        <time>2019-06-16T14:30:43Z</time>
      </trkpt>
      <trkpt lat="43.398756" lon="-3.442038">
        <ele>4.058</ele>
        <time>2019-06-16T14:30:44Z</time>
      </trkpt>
      <trkpt lat="43.398716" lon="-3.442157">
        <ele>4.023</ele>
        <time>2019-06-16T14:30:45Z</time>
      </trkpt>
      <trkpt lat="43.398655" lon="-3.442292">
        <ele>4.083</ele>
        <time>2019-06-16T14:30:46Z</time>
      </trkpt>
      <trkpt lat="43.398581" lon="-3.442442">
        <ele>4.011</ele>
        <time>2019-06-16T14:30:47Z</time>
      </trkpt>
      <trkpt lat="43.398511" lon="-3.442594">
        <ele>4.008</ele>
        <time>2019-06-16T14:30:48Z</time>
      </trkpt>
      <trkpt lat="43.398445" lon="-3.442734">
        <ele>4.015</ele>
        <time>2019-06-16T14:30:49Z</time>
      </trkpt>
      <trkpt lat="43.398378" lon="-3.442841">
        <ele>4.049</ele>
        <time>2019-06-16T14:30:50Z</time>
      </trkpt>
      <trkpt lat="43.398316" lon="-3.442982">
        <ele>4.029</ele>
        <time>2019-06-16T14:30:51Z</time>
      </trkpt>
      <trkpt lat="43.398257" lon="-3.443132">
        <ele>4.043</ele>
        <time>2019-06-16T14:30:52Z</time>
      </trkpt>
      <trkpt lat="43.398197" lon="-3.443291">
        <ele>4.022</ele>
        <time>2019-06-16T14:30:53Z</time>
      </trkpt>
      <trkpt lat="43.398138" lon="-3.443436">
        <ele>3.952</ele>
        <time>2019-06-16T14:30:54Z</time>
      </trkpt>
      <trkpt lat="43.398065" lon="-3.443584">
        <ele>4.068</ele>
        <time>2019-06-16T14:30:55Z</time>
      </trkpt>
      <trkpt lat="43.398003" lon="-3.443733">
        <ele>3.667</ele>
        <time>2019-06-16T14:30:56Z</time>
      </trkpt>
      <trkpt lat="43.397927" lon="-3.443879">
        <ele>3.567</ele>
        <time>2019-06-16T14:30:57Z</time>
      </trkpt>
      <trkpt lat="43.397858" lon="-3.444030">
        <ele>3.481</ele>
        <time>2019-06-16T14:30:58Z</time>
      </trkpt>
      <trkpt lat="43.397780" lon="-3.444195">
        <ele>3.019</ele>
        <time>2019-06-16T14:30:59Z</time>
      </trkpt>
      <trkpt lat="43.397710" lon="-3.444348">
        <ele>3.208</ele>
        <time>2019-06-16T14:31:00Z</time>
      </trkpt>
      <trkpt lat="43.397654" lon="-3.444481">
        <ele>3.449</ele>
        <time>2019-06-16T14:31:01Z</time>
      </trkpt>
      <trkpt lat="43.397588" lon="-3.444624">
        <ele>3.213</ele>
        <time>2019-06-16T14:31:02Z</time>
      </trkpt>
      <trkpt lat="43.397521" lon="-3.444768">
        <ele>3.283</ele>
        <time>2019-06-16T14:31:03Z</time>
      </trkpt>
      <trkpt lat="43.397456" lon="-3.444913">
        <ele>3.727</ele>
        <time>2019-06-16T14:31:04Z</time>
      </trkpt>
      <trkpt lat="43.397397" lon="-3.445032">
        <ele>4.026</ele>
        <time>2019-06-16T14:31:05Z</time>
      </trkpt>
      <trkpt lat="43.397318" lon="-3.445171">
        <ele>3.626</ele>
        <time>2019-06-16T14:31:06Z</time>
      </trkpt>
      <trkpt lat="43.397279" lon="-3.445279">
        <ele>3.292</ele>
        <time>2019-06-16T14:31:07Z</time>
      </trkpt>
      <trkpt lat="43.397229" lon="-3.445377">
        <ele>3.051</ele>
        <time>2019-06-16T14:31:08Z</time>
      </trkpt>
      <trkpt lat="43.397161" lon="-3.445526">
        <ele>3.075</ele>
        <time>2019-06-16T14:31:09Z</time>
      </trkpt>
      <trkpt lat="43.397090" lon="-3.445664">
        <ele>3.028</ele>
        <time>2019-06-16T14:31:10Z</time>
      </trkpt>
      <trkpt lat="43.397032" lon="-3.445802">
        <ele>3.020</ele>
        <time>2019-06-16T14:31:11Z</time>
      </trkpt>
      <trkpt lat="43.396981" lon="-3.445923">
        <ele>3.008</ele>
        <time>2019-06-16T14:31:12Z</time>
      </trkpt>
      <trkpt lat="43.396926" lon="-3.446042">
        <ele>3.110</ele>
        <time>2019-06-16T14:31:13Z</time>
      </trkpt>
      <trkpt lat="43.396854" lon="-3.446184">
        <ele>3.354</ele>
        <time>2019-06-16T14:31:14Z</time>
      </trkpt>
      <trkpt lat="43.396799" lon="-3.446304">
        <ele>3.584</ele>
        <time>2019-06-16T14:31:15Z</time>
      </trkpt>
      <trkpt lat="43.396739" lon="-3.446435">
        <ele>3.818</ele>
        <time>2019-06-16T14:31:16Z</time>
      </trkpt>
      <trkpt lat="43.396692" lon="-3.446515">
        <ele>4.077</ele>
        <time>2019-06-16T14:31:17Z</time>
      </trkpt>
      <trkpt lat="43.396656" lon="-3.446575">
        <ele>4.077</ele>
        <time>2019-06-16T14:31:18Z</time>
      </trkpt>
      <trkpt lat="43.396615" lon="-3.446683">
        <ele>4.063</ele>
        <time>2019-06-16T14:31:19Z</time>
      </trkpt>
      <trkpt lat="43.396560" lon="-3.446812">
        <ele>4.062</ele>
        <time>2019-06-16T14:31:20Z</time>
      </trkpt>
      <trkpt lat="43.396509" lon="-3.446925">
        <ele>4.091</ele>
        <time>2019-06-16T14:31:21Z</time>
      </trkpt>
      <trkpt lat="43.396466" lon="-3.447020">
        <ele>4.081</ele>
        <time>2019-06-16T14:31:22Z</time>
      </trkpt>
      <trkpt lat="43.396439" lon="-3.447123">
        <ele>4.019</ele>
        <time>2019-06-16T14:31:23Z</time>
      </trkpt>
      <trkpt lat="43.396438" lon="-3.447231">
        <ele>4.008</ele>
        <time>2019-06-16T14:31:24Z</time>
      </trkpt>
      <trkpt lat="43.396397" lon="-3.447336">
        <ele>4.042</ele>
        <time>2019-06-16T14:31:25Z</time>
      </trkpt>
      <trkpt lat="43.396378" lon="-3.447440">
        <ele>4.086</ele>
        <time>2019-06-16T14:31:26Z</time>
      </trkpt>
      <trkpt lat="43.396317" lon="-3.447524">
        <ele>4.016</ele>
        <time>2019-06-16T14:31:27Z</time>
      </trkpt>
      <trkpt lat="43.396272" lon="-3.447610">
        <ele>4.070</ele>
        <time>2019-06-16T14:31:28Z</time>
      </trkpt>
      <trkpt lat="43.396227" lon="-3.447665">
        <ele>4.089</ele>
        <time>2019-06-16T14:31:29Z</time>
      </trkpt>
      <trkpt lat="43.396195" lon="-3.447723">
        <ele>4.069</ele>
        <time>2019-06-16T14:31:30Z</time>
      </trkpt>
      <trkpt lat="43.396152" lon="-3.447749">
        <ele>4.045</ele>
        <time>2019-06-16T14:31:35Z</time>
      </trkpt>
      <trkpt lat="43.396171" lon="-3.447813">
        <ele>4.094</ele>
        <time>2019-06-16T14:31:38Z</time>
      </trkpt>
      <trkpt lat="43.396147" lon="-3.447958">
        <ele>4.038</ele>
        <time>2019-06-16T14:31:45Z</time>
      </trkpt>
      <trkpt lat="43.396103" lon="-3.448013">
        <ele>4.070</ele>
        <time>2019-06-16T14:31:46Z</time>
      </trkpt>
      <trkpt lat="43.396036" lon="-3.448065">
        <ele>4.017</ele>
        <time>2019-06-16T14:31:47Z</time>
      </trkpt>
      <trkpt lat="43.395980" lon="-3.448164">
        <ele>4.008</ele>
        <time>2019-06-16T14:31:48Z</time>
      </trkpt>
      <trkpt lat="43.395906" lon="-3.448335">
        <ele>4.026</ele>
        <time>2019-06-16T14:31:49Z</time>
      </trkpt>
      <trkpt lat="43.395823" lon="-3.448486">
        <ele>4.020</ele>
        <time>2019-06-16T14:31:50Z</time>
      </trkpt>
      <trkpt lat="43.395756" lon="-3.448611">
        <ele>4.030</ele>
        <time>2019-06-16T14:31:51Z</time>
      </trkpt>
      <trkpt lat="43.395694" lon="-3.448741">
        <ele>4.064</ele>
        <time>2019-06-16T14:31:52Z</time>
      </trkpt>
      <trkpt lat="43.395619" lon="-3.448857">
        <ele>4.083</ele>
        <time>2019-06-16T14:31:53Z</time>
      </trkpt>
      <trkpt lat="43.395562" lon="-3.448977">
        <ele>4.093</ele>
        <time>2019-06-16T14:31:54Z</time>
      </trkpt>
      <trkpt lat="43.395502" lon="-3.449099">
        <ele>4.349</ele>
        <time>2019-06-16T14:31:55Z</time>
      </trkpt>
      <trkpt lat="43.395453" lon="-3.449225">
        <ele>4.328</ele>
        <time>2019-06-16T14:31:56Z</time>
      </trkpt>
      <trkpt lat="43.395418" lon="-3.449369">
        <ele>4.152</ele>
        <time>2019-06-16T14:31:57Z</time>
      </trkpt>
      <trkpt lat="43.395388" lon="-3.449534">
        <ele>4.053</ele>
        <time>2019-06-16T14:31:58Z</time>
      </trkpt>
      <trkpt lat="43.395363" lon="-3.449704">
        <ele>4.008</ele>
        <time>2019-06-16T14:31:59Z</time>
      </trkpt>
      <trkpt lat="43.395355" lon="-3.449880">
        <ele>4.008</ele>
        <time>2019-06-16T14:32:00Z</time>
      </trkpt>
      <trkpt lat="43.395340" lon="-3.450049">
        <ele>4.038</ele>
        <time>2019-06-16T14:32:01Z</time>
      </trkpt>
      <trkpt lat="43.395333" lon="-3.450231">
        <ele>4.032</ele>
        <time>2019-06-16T14:32:02Z</time>
      </trkpt>
      <trkpt lat="43.395316" lon="-3.450414">
        <ele>4.052</ele>
        <time>2019-06-16T14:32:03Z</time>
      </trkpt>
      <trkpt lat="43.395305" lon="-3.450588">
        <ele>4.036</ele>
        <time>2019-06-16T14:32:04Z</time>
      </trkpt>
      <trkpt lat="43.395295" lon="-3.450747">
        <ele>4.085</ele>
        <time>2019-06-16T14:32:05Z</time>
      </trkpt>
      <trkpt lat="43.395286" lon="-3.450927">
        <ele>4.095</ele>
        <time>2019-06-16T14:32:06Z</time>
      </trkpt>
      <trkpt lat="43.395268" lon="-3.451107">
        <ele>4.061</ele>
        <time>2019-06-16T14:32:07Z</time>
      </trkpt>
      <trkpt lat="43.395252" lon="-3.451254">
        <ele>4.030</ele>
        <time>2019-06-16T14:32:08Z</time>
      </trkpt>
      <trkpt lat="43.395224" lon="-3.451409">
        <ele>4.049</ele>
        <time>2019-06-16T14:32:09Z</time>
      </trkpt>
      <trkpt lat="43.395204" lon="-3.451573">
        <ele>4.002</ele>
        <time>2019-06-16T14:32:10Z</time>
      </trkpt>
      <trkpt lat="43.395173" lon="-3.451715">
        <ele>3.922</ele>
        <time>2019-06-16T14:32:11Z</time>
      </trkpt>
      <trkpt lat="43.395146" lon="-3.451856">
        <ele>3.608</ele>
        <time>2019-06-16T14:32:12Z</time>
      </trkpt>
      <trkpt lat="43.395111" lon="-3.451984">
        <ele>3.627</ele>
        <time>2019-06-16T14:32:13Z</time>
      </trkpt>
      <trkpt lat="43.395075" lon="-3.452070">
        <ele>3.771</ele>
        <time>2019-06-16T14:32:14Z</time>
      </trkpt>
      <trkpt lat="43.395060" lon="-3.452165">
        <ele>3.861</ele>
        <time>2019-06-16T14:32:15Z</time>
      </trkpt>
      <trkpt lat="43.395045" lon="-3.452245">
        <ele>3.815</ele>
        <time>2019-06-16T14:32:16Z</time>
      </trkpt>
      <trkpt lat="43.395025" lon="-3.452335">
        <ele>3.674</ele>
        <time>2019-06-16T14:32:17Z</time>
      </trkpt>
      <trkpt lat="43.395019" lon="-3.452451">
        <ele>3.254</ele>
        <time>2019-06-16T14:32:18Z</time>
      </trkpt>
      <trkpt lat="43.395006" lon="-3.452579">
        <ele>3.080</ele>
        <time>2019-06-16T14:32:19Z</time>
      </trkpt>
      <trkpt lat="43.394969" lon="-3.452725">
        <ele>3.029</ele>
        <time>2019-06-16T14:32:20Z</time>
      </trkpt>
      <trkpt lat="43.394928" lon="-3.452896">
        <ele>3.395</ele>
        <time>2019-06-16T14:32:21Z</time>
      </trkpt>
      <trkpt lat="43.394884" lon="-3.453076">
        <ele>3.549</ele>
        <time>2019-06-16T14:32:22Z</time>
      </trkpt>
      <trkpt lat="43.394831" lon="-3.453272">
        <ele>3.123</ele>
        <time>2019-06-16T14:32:23Z</time>
      </trkpt>
      <trkpt lat="43.394789" lon="-3.453456">
        <ele>3.008</ele>
        <time>2019-06-16T14:32:24Z</time>
      </trkpt>
      <trkpt lat="43.394735" lon="-3.453642">
        <ele>3.032</ele>
        <time>2019-06-16T14:32:25Z</time>
      </trkpt>
      <trkpt lat="43.394682" lon="-3.453816">
        <ele>3.076</ele>
        <time>2019-06-16T14:32:26Z</time>
      </trkpt>
      <trkpt lat="43.394616" lon="-3.454003">
        <ele>2.796</ele>
        <time>2019-06-16T14:32:27Z</time>
      </trkpt>
      <trkpt lat="43.394582" lon="-3.454187">
        <ele>2.580</ele>
        <time>2019-06-16T14:32:28Z</time>
      </trkpt>
      <trkpt lat="43.394521" lon="-3.454364">
        <ele>2.779</ele>
        <time>2019-06-16T14:32:29Z</time>
      </trkpt>
      <trkpt lat="43.394484" lon="-3.454531">
        <ele>2.999</ele>
        <time>2019-06-16T14:32:30Z</time>
      </trkpt>
      <trkpt lat="43.394471" lon="-3.454710">
        <ele>3.095</ele>
        <time>2019-06-16T14:32:31Z</time>
      </trkpt>
      <trkpt lat="43.394489" lon="-3.454839">
        <ele>3.134</ele>
        <time>2019-06-16T14:32:32Z</time>
      </trkpt>
      <trkpt lat="43.394486" lon="-3.455020">
        <ele>3.157</ele>
        <time>2019-06-16T14:32:33Z</time>
      </trkpt>
      <trkpt lat="43.394481" lon="-3.455234">
        <ele>3.100</ele>
        <time>2019-06-16T14:32:34Z</time>
      </trkpt>
      <trkpt lat="43.394488" lon="-3.455403">
        <ele>3.220</ele>
        <time>2019-06-16T14:32:35Z</time>
      </trkpt>
      <trkpt lat="43.394533" lon="-3.455552">
        <ele>3.308</ele>
        <time>2019-06-16T14:32:36Z</time>
      </trkpt>
      <trkpt lat="43.394536" lon="-3.455630">
        <ele>3.348</ele>
        <time>2019-06-16T14:32:37Z</time>
      </trkpt>
      <trkpt lat="43.394542" lon="-3.455718">
        <ele>3.432</ele>
        <time>2019-06-16T14:32:38Z</time>
      </trkpt>
      <trkpt lat="43.394575" lon="-3.455795">
        <ele>3.562</ele>
        <time>2019-06-16T14:32:39Z</time>
      </trkpt>
      <trkpt lat="43.394609" lon="-3.455841">
        <ele>3.676</ele>
        <time>2019-06-16T14:32:40Z</time>
      </trkpt>
      <trkpt lat="43.394641" lon="-3.455927">
        <ele>3.545</ele>
        <time>2019-06-16T14:32:42Z</time>
      </trkpt>
      <trkpt lat="43.394666" lon="-3.456016">
        <ele>3.365</ele>
        <time>2019-06-16T14:32:44Z</time>
      </trkpt>
      <trkpt lat="43.394692" lon="-3.456093">
        <ele>3.151</ele>
        <time>2019-06-16T14:32:45Z</time>
      </trkpt>
      <trkpt lat="43.394692" lon="-3.456173">
        <ele>3.070</ele>
        <time>2019-06-16T14:32:46Z</time>
      </trkpt>
      <trkpt lat="43.394712" lon="-3.456238">
        <ele>3.019</ele>
        <time>2019-06-16T14:32:47Z</time>
      </trkpt>
      <trkpt lat="43.394767" lon="-3.456429">
        <ele>3.009</ele>
        <time>2019-06-16T14:32:48Z</time>
      </trkpt>
      <trkpt lat="43.394809" lon="-3.456575">
        <ele>3.019</ele>
        <time>2019-06-16T14:32:49Z</time>
      </trkpt>
      <trkpt lat="43.394835" lon="-3.456713">
        <ele>3.008</ele>
        <time>2019-06-16T14:32:50Z</time>
      </trkpt>
      <trkpt lat="43.394847" lon="-3.456848">
        <ele>3.094</ele>
        <time>2019-06-16T14:32:51Z</time>
      </trkpt>
      <trkpt lat="43.394875" lon="-3.457021">
        <ele>3.228</ele>
        <time>2019-06-16T14:32:52Z</time>
      </trkpt>
      <trkpt lat="43.394863" lon="-3.457174">
        <ele>3.478</ele>
        <time>2019-06-16T14:32:53Z</time>
      </trkpt>
      <trkpt lat="43.394840" lon="-3.457329">
        <ele>3.332</ele>
        <time>2019-06-16T14:32:54Z</time>
      </trkpt>
      <trkpt lat="43.394815" lon="-3.457494">
        <ele>3.011</ele>
        <time>2019-06-16T14:32:55Z</time>
      </trkpt>
      <trkpt lat="43.394775" lon="-3.457679">
        <ele>3.081</ele>
        <time>2019-06-16T14:32:56Z</time>
      </trkpt>
      <trkpt lat="43.394734" lon="-3.457880">
        <ele>3.047</ele>
        <time>2019-06-16T14:32:57Z</time>
      </trkpt>
      <trkpt lat="43.394691" lon="-3.458085">
        <ele>3.166</ele>
        <time>2019-06-16T14:32:58Z</time>
      </trkpt>
      <trkpt lat="43.394647" lon="-3.458293">
        <ele>3.052</ele>
        <time>2019-06-16T14:32:59Z</time>
      </trkpt>
      <trkpt lat="43.394615" lon="-3.458496">
        <ele>3.053</ele>
        <time>2019-06-16T14:33:00Z</time>
      </trkpt>
      <trkpt lat="43.394570" lon="-3.458701">
        <ele>3.008</ele>
        <time>2019-06-16T14:33:01Z</time>
      </trkpt>
      <trkpt lat="43.394521" lon="-3.458900">
        <ele>3.008</ele>
        <time>2019-06-16T14:33:02Z</time>
      </trkpt>
      <trkpt lat="43.394484" lon="-3.459112">
        <ele>3.078</ele>
        <time>2019-06-16T14:33:03Z</time>
      </trkpt>
      <trkpt lat="43.394437" lon="-3.459331">
        <ele>3.062</ele>
        <time>2019-06-16T14:33:04Z</time>
      </trkpt>
      <trkpt lat="43.394390" lon="-3.459551">
        <ele>3.212</ele>
        <time>2019-06-16T14:33:05Z</time>
      </trkpt>
      <trkpt lat="43.394335" lon="-3.459748">
        <ele>3.466</ele>
        <time>2019-06-16T14:33:06Z</time>
      </trkpt>
      <trkpt lat="43.394294" lon="-3.459960">
        <ele>3.135</ele>
        <time>2019-06-16T14:33:07Z</time>
      </trkpt>
      <trkpt lat="43.394252" lon="-3.460163">
        <ele>3.095</ele>
        <time>2019-06-16T14:33:08Z</time>
      </trkpt>
      <trkpt lat="43.394199" lon="-3.460397">
        <ele>3.011</ele>
        <time>2019-06-16T14:33:09Z</time>
      </trkpt>
      <trkpt lat="43.394156" lon="-3.460622">
        <ele>3.060</ele>
        <time>2019-06-16T14:33:10Z</time>
      </trkpt>
      <trkpt lat="43.394111" lon="-3.460839">
        <ele>3.014</ele>
        <time>2019-06-16T14:33:11Z</time>
      </trkpt>
      <trkpt lat="43.394077" lon="-3.461031">
        <ele>2.854</ele>
        <time>2019-06-16T14:33:12Z</time>
      </trkpt>
      <trkpt lat="43.394035" lon="-3.461233">
        <ele>2.709</ele>
        <time>2019-06-16T14:33:13Z</time>
      </trkpt>
      <trkpt lat="43.394019" lon="-3.461451">
        <ele>3.008</ele>
        <time>2019-06-16T14:33:14Z</time>
      </trkpt>
      <trkpt lat="43.393979" lon="-3.461685">
        <ele>3.094</ele>
        <time>2019-06-16T14:33:15Z</time>
      </trkpt>
      <trkpt lat="43.393987" lon="-3.461854">
        <ele>2.838</ele>
        <time>2019-06-16T14:33:16Z</time>
      </trkpt>
      <trkpt lat="43.393949" lon="-3.462081">
        <ele>2.798</ele>
        <time>2019-06-16T14:33:17Z</time>
      </trkpt>
      <trkpt lat="43.393917" lon="-3.462323">
        <ele>2.852</ele>
        <time>2019-06-16T14:33:18Z</time>
      </trkpt>
      <trkpt lat="43.393879" lon="-3.462540">
        <ele>3.041</ele>
        <time>2019-06-16T14:33:19Z</time>
      </trkpt>
      <trkpt lat="43.393855" lon="-3.462739">
        <ele>2.961</ele>
        <time>2019-06-16T14:33:20Z</time>
      </trkpt>
      <trkpt lat="43.393816" lon="-3.462945">
        <ele>2.977</ele>
        <time>2019-06-16T14:33:21Z</time>
      </trkpt>
      <trkpt lat="43.393760" lon="-3.463132">
        <ele>3.026</ele>
        <time>2019-06-16T14:33:22Z</time>
      </trkpt>
      <trkpt lat="43.393715" lon="-3.463336">
        <ele>3.299</ele>
        <time>2019-06-16T14:33:23Z</time>
      </trkpt>
      <trkpt lat="43.393678" lon="-3.463523">
        <ele>3.207</ele>
        <time>2019-06-16T14:33:24Z</time>
      </trkpt>
      <trkpt lat="43.393623" lon="-3.463663">
        <ele>3.227</ele>
        <time>2019-06-16T14:33:25Z</time>
      </trkpt>
      <trkpt lat="43.393589" lon="-3.463830">
        <ele>3.508</ele>
        <time>2019-06-16T14:33:26Z</time>
      </trkpt>
      <trkpt lat="43.393557" lon="-3.463992">
        <ele>2.812</ele>
        <time>2019-06-16T14:33:27Z</time>
      </trkpt>
      <trkpt lat="43.393527" lon="-3.464159">
        <ele>2.016</ele>
        <time>2019-06-16T14:33:28Z</time>
      </trkpt>
      <trkpt lat="43.393498" lon="-3.464314">
        <ele>3.076</ele>
        <time>2019-06-16T14:33:29Z</time>
      </trkpt>
      <trkpt lat="43.393462" lon="-3.464471">
        <ele>4.170</ele>
        <time>2019-06-16T14:33:30Z</time>
      </trkpt>
      <trkpt lat="43.393429" lon="-3.464646">
        <ele>4.319</ele>
        <time>2019-06-16T14:33:31Z</time>
      </trkpt>
      <trkpt lat="43.393416" lon="-3.464772">
        <ele>4.329</ele>
        <time>2019-06-16T14:33:32Z</time>
      </trkpt>
      <trkpt lat="43.393370" lon="-3.464907">
        <ele>4.455</ele>
        <time>2019-06-16T14:33:33Z</time>
      </trkpt>
      <trkpt lat="43.393333" lon="-3.465078">
        <ele>4.714</ele>
        <time>2019-06-16T14:33:34Z</time>
      </trkpt>
      <trkpt lat="43.393301" lon="-3.465238">
        <ele>4.199</ele>
        <time>2019-06-16T14:33:35Z</time>
      </trkpt>
      <trkpt lat="43.393260" lon="-3.465412">
        <ele>4.107</ele>
        <time>2019-06-16T14:33:36Z</time>
      </trkpt>
      <trkpt lat="43.393245" lon="-3.465547">
        <ele>4.327</ele>
        <time>2019-06-16T14:33:37Z</time>
      </trkpt>
      <trkpt lat="43.393214" lon="-3.465688">
        <ele>4.408</ele>
        <time>2019-06-16T14:33:38Z</time>
      </trkpt>
      <trkpt lat="43.393176" lon="-3.465829">
        <ele>4.692</ele>
        <time>2019-06-16T14:33:39Z</time>
      </trkpt>
      <trkpt lat="43.393122" lon="-3.465964">
        <ele>4.886</ele>
        <time>2019-06-16T14:33:40Z</time>
      </trkpt>
      <trkpt lat="43.393118" lon="-3.466071">
        <ele>4.966</ele>
        <time>2019-06-16T14:33:41Z</time>
      </trkpt>
      <trkpt lat="43.393105" lon="-3.466203">
        <ele>5.340</ele>
        <time>2019-06-16T14:33:42Z</time>
      </trkpt>
      <trkpt lat="43.393095" lon="-3.466356">
        <ele>5.829</ele>
        <time>2019-06-16T14:33:43Z</time>
      </trkpt>
      <trkpt lat="43.393123" lon="-3.466482">
        <ele>5.899</ele>
        <time>2019-06-16T14:33:44Z</time>
      </trkpt>
      <trkpt lat="43.393170" lon="-3.466539">
        <ele>5.635</ele>
        <time>2019-06-16T14:33:45Z</time>
      </trkpt>
      <trkpt lat="43.393182" lon="-3.466645">
        <ele>5.584</ele>
        <time>2019-06-16T14:33:46Z</time>
      </trkpt>
      <trkpt lat="43.393167" lon="-3.466755">
        <ele>5.682</ele>
        <time>2019-06-16T14:33:47Z</time>
      </trkpt>
      <trkpt lat="43.393145" lon="-3.466873">
        <ele>5.743</ele>
        <time>2019-06-16T14:33:48Z</time>
      </trkpt>
      <trkpt lat="43.393110" lon="-3.466992">
        <ele>6.117</ele>
        <time>2019-06-16T14:33:49Z</time>
      </trkpt>
      <trkpt lat="43.393081" lon="-3.467128">
        <ele>7.108</ele>
        <time>2019-06-16T14:33:50Z</time>
      </trkpt>
      <trkpt lat="43.393051" lon="-3.467262">
        <ele>8.251</ele>
        <time>2019-06-16T14:33:51Z</time>
      </trkpt>
      <trkpt lat="43.393044" lon="-3.467413">
        <ele>8.895</ele>
        <time>2019-06-16T14:33:52Z</time>
      </trkpt>
      <trkpt lat="43.393066" lon="-3.467555">
        <ele>9.195</ele>
        <time>2019-06-16T14:33:53Z</time>
      </trkpt>
      <trkpt lat="43.393150" lon="-3.467785">
        <ele>9.739</ele>
        <time>2019-06-16T14:33:54Z</time>
      </trkpt>
      <trkpt lat="43.393174" lon="-3.467982">
        <ele>9.698</ele>
        <time>2019-06-16T14:33:55Z</time>
      </trkpt>
      <trkpt lat="43.393223" lon="-3.468180">
        <ele>8.978</ele>
        <time>2019-06-16T14:33:56Z</time>
      </trkpt>
      <trkpt lat="43.393286" lon="-3.468402">
        <ele>8.664</ele>
        <time>2019-06-16T14:33:57Z</time>
      </trkpt>
      <trkpt lat="43.393329" lon="-3.468624">
        <ele>8.213</ele>
        <time>2019-06-16T14:33:58Z</time>
      </trkpt>
      <trkpt lat="43.393369" lon="-3.468841">
        <ele>10.581</ele>
        <time>2019-06-16T14:33:59Z</time>
      </trkpt>
      <trkpt lat="43.393416" lon="-3.469065">
        <ele>11.961</ele>
        <time>2019-06-16T14:34:00Z</time>
      </trkpt>
      <trkpt lat="43.393460" lon="-3.469288">
        <ele>13.517</ele>
        <time>2019-06-16T14:34:01Z</time>
      </trkpt>
      <trkpt lat="43.393518" lon="-3.469509">
        <ele>14.708</ele>
        <time>2019-06-16T14:34:02Z</time>
      </trkpt>
      <trkpt lat="43.393568" lon="-3.469727">
        <ele>16.021</ele>
        <time>2019-06-16T14:34:03Z</time>
      </trkpt>
      <trkpt lat="43.393627" lon="-3.469914">
        <ele>17.595</ele>
        <time>2019-06-16T14:34:04Z</time>
      </trkpt>
      <trkpt lat="43.393655" lon="-3.470120">
        <ele>18.835</ele>
        <time>2019-06-16T14:34:05Z</time>
      </trkpt>
      <trkpt lat="43.393699" lon="-3.470316">
        <ele>20.039</ele>
        <time>2019-06-16T14:34:06Z</time>
      </trkpt>
      <trkpt lat="43.393739" lon="-3.470510">
        <ele>22.018</ele>
        <time>2019-06-16T14:34:07Z</time>
      </trkpt>
      <trkpt lat="43.393780" lon="-3.470680">
        <ele>22.818</ele>
        <time>2019-06-16T14:34:08Z</time>
      </trkpt>
      <trkpt lat="43.393812" lon="-3.470843">
        <ele>23.044</ele>
        <time>2019-06-16T14:34:09Z</time>
      </trkpt>
      <trkpt lat="43.393838" lon="-3.470995">
        <ele>23.013</ele>
        <time>2019-06-16T14:34:10Z</time>
      </trkpt>
      <trkpt lat="43.393850" lon="-3.471115">
        <ele>23.096</ele>
        <time>2019-06-16T14:34:11Z</time>
      </trkpt>
      <trkpt lat="43.393868" lon="-3.471247">
        <ele>23.031</ele>
        <time>2019-06-16T14:34:12Z</time>
      </trkpt>
      <trkpt lat="43.393889" lon="-3.471358">
        <ele>23.024</ele>
        <time>2019-06-16T14:34:13Z</time>
      </trkpt>
      <trkpt lat="43.393908" lon="-3.471446">
        <ele>22.908</ele>
        <time>2019-06-16T14:34:14Z</time>
      </trkpt>
      <trkpt lat="43.393924" lon="-3.471517">
        <ele>22.942</ele>
        <time>2019-06-16T14:34:15Z</time>
      </trkpt>
      <trkpt lat="43.393943" lon="-3.471591">
        <ele>22.966</ele>
        <time>2019-06-16T14:34:17Z</time>
      </trkpt>
      <trkpt lat="43.393957" lon="-3.471721">
        <ele>23.016</ele>
        <time>2019-06-16T14:34:29Z</time>
      </trkpt>
      <trkpt lat="43.393973" lon="-3.471834">
        <ele>23.050</ele>
        <time>2019-06-16T14:34:30Z</time>
      </trkpt>
      <trkpt lat="43.394006" lon="-3.471958">
        <ele>23.069</ele>
        <time>2019-06-16T14:34:31Z</time>
      </trkpt>
      <trkpt lat="43.394032" lon="-3.472086">
        <ele>23.089</ele>
        <time>2019-06-16T14:34:32Z</time>
      </trkpt>
      <trkpt lat="43.394062" lon="-3.472234">
        <ele>23.085</ele>
        <time>2019-06-16T14:34:33Z</time>
      </trkpt>
      <trkpt lat="43.394091" lon="-3.472382">
        <ele>23.274</ele>
        <time>2019-06-16T14:34:34Z</time>
      </trkpt>
      <trkpt lat="43.394118" lon="-3.472527">
        <ele>23.277</ele>
        <time>2019-06-16T14:34:35Z</time>
      </trkpt>
      <trkpt lat="43.394145" lon="-3.472628">
        <ele>23.161</ele>
        <time>2019-06-16T14:34:36Z</time>
      </trkpt>
      <trkpt lat="43.394168" lon="-3.472752">
        <ele>23.027</ele>
        <time>2019-06-16T14:34:37Z</time>
      </trkpt>
      <trkpt lat="43.394184" lon="-3.472852">
        <ele>23.008</ele>
        <time>2019-06-16T14:34:38Z</time>
      </trkpt>
      <trkpt lat="43.394205" lon="-3.472964">
        <ele>22.990</ele>
        <time>2019-06-16T14:34:39Z</time>
      </trkpt>
      <trkpt lat="43.394234" lon="-3.473033">
        <ele>22.854</ele>
        <time>2019-06-16T14:34:40Z</time>
      </trkpt>
      <trkpt lat="43.394266" lon="-3.473079">
        <ele>22.654</ele>
        <time>2019-06-16T14:34:41Z</time>
      </trkpt>
      <trkpt lat="43.394288" lon="-3.473184">
        <ele>22.638</ele>
        <time>2019-06-16T14:34:44Z</time>
      </trkpt>
      <trkpt lat="43.394324" lon="-3.473312">
        <ele>22.467</ele>
        <time>2019-06-16T14:34:46Z</time>
      </trkpt>
      <trkpt lat="43.394357" lon="-3.473453">
        <ele>22.347</ele>
        <time>2019-06-16T14:34:47Z</time>
      </trkpt>
      <trkpt lat="43.394440" lon="-3.473575">
        <ele>22.053</ele>
        <time>2019-06-16T14:34:48Z</time>
      </trkpt>
      <trkpt lat="43.394493" lon="-3.473713">
        <ele>22.312</ele>
        <time>2019-06-16T14:34:49Z</time>
      </trkpt>
      <trkpt lat="43.394549" lon="-3.473873">
        <ele>22.615</ele>
        <time>2019-06-16T14:34:50Z</time>
      </trkpt>
      <trkpt lat="43.394607" lon="-3.474024">
        <ele>23.265</ele>
        <time>2019-06-16T14:34:51Z</time>
      </trkpt>
      <trkpt lat="43.394680" lon="-3.474171">
        <ele>24.011</ele>
        <time>2019-06-16T14:34:52Z</time>
      </trkpt>
      <trkpt lat="43.394771" lon="-3.474291">
        <ele>24.708</ele>
        <time>2019-06-16T14:34:53Z</time>
      </trkpt>
      <trkpt lat="43.394958" lon="-3.474472">
        <ele>25.424</ele>
        <time>2019-06-16T14:34:54Z</time>
      </trkpt>
      <trkpt lat="43.395075" lon="-3.474603">
        <ele>26.498</ele>
        <time>2019-06-16T14:34:55Z</time>
      </trkpt>
      <trkpt lat="43.395281" lon="-3.474706">
        <ele>26.858</ele>
        <time>2019-06-16T14:34:56Z</time>
      </trkpt>
      <trkpt lat="43.395460" lon="-3.474710">
        <ele>27.662</ele>
        <time>2019-06-16T14:34:57Z</time>
      </trkpt>
      <trkpt lat="43.395626" lon="-3.474783">
        <ele>28.481</ele>
        <time>2019-06-16T14:34:58Z</time>
      </trkpt>
      <trkpt lat="43.395801" lon="-3.474818">
        <ele>28.711</ele>
        <time>2019-06-16T14:34:59Z</time>
      </trkpt>
      <trkpt lat="43.395991" lon="-3.474868">
        <ele>29.397</ele>
        <time>2019-06-16T14:35:00Z</time>
      </trkpt>
      <trkpt lat="43.396177" lon="-3.474890">
        <ele>29.666</ele>
        <time>2019-06-16T14:35:01Z</time>
      </trkpt>
      <trkpt lat="43.396358" lon="-3.474916">
        <ele>29.716</ele>
        <time>2019-06-16T14:35:02Z</time>
      </trkpt>
      <trkpt lat="43.396515" lon="-3.474961">
        <ele>29.976</ele>
        <time>2019-06-16T14:35:03Z</time>
      </trkpt>
      <trkpt lat="43.396690" lon="-3.475002">
        <ele>30.013</ele>
        <time>2019-06-16T14:35:04Z</time>
      </trkpt>
      <trkpt lat="43.396868" lon="-3.475037">
        <ele>30.208</ele>
        <time>2019-06-16T14:35:05Z</time>
      </trkpt>
      <trkpt lat="43.397038" lon="-3.475094">
        <ele>29.934</ele>
        <time>2019-06-16T14:35:06Z</time>
      </trkpt>
      <trkpt lat="43.397193" lon="-3.475192">
        <ele>29.228</ele>
        <time>2019-06-16T14:35:07Z</time>
      </trkpt>
      <trkpt lat="43.397368" lon="-3.475287">
        <ele>28.598</ele>
        <time>2019-06-16T14:35:08Z</time>
      </trkpt>
      <trkpt lat="43.397528" lon="-3.475408">
        <ele>27.832</ele>
        <time>2019-06-16T14:35:09Z</time>
      </trkpt>
      <trkpt lat="43.397704" lon="-3.475552">
        <ele>26.571</ele>
        <time>2019-06-16T14:35:10Z</time>
      </trkpt>
      <trkpt lat="43.397865" lon="-3.475717">
        <ele>26.091</ele>
        <time>2019-06-16T14:35:11Z</time>
      </trkpt>
      <trkpt lat="43.398031" lon="-3.475886">
        <ele>25.287</ele>
        <time>2019-06-16T14:35:12Z</time>
      </trkpt>
      <trkpt lat="43.398186" lon="-3.476109">
        <ele>23.656</ele>
        <time>2019-06-16T14:35:13Z</time>
      </trkpt>
      <trkpt lat="43.398343" lon="-3.476327">
        <ele>21.993</ele>
        <time>2019-06-16T14:35:14Z</time>
      </trkpt>
      <trkpt lat="43.398506" lon="-3.476557">
        <ele>20.465</ele>
        <time>2019-06-16T14:35:15Z</time>
      </trkpt>
      <trkpt lat="43.398658" lon="-3.476786">
        <ele>18.421</ele>
        <time>2019-06-16T14:35:16Z</time>
      </trkpt>
      <trkpt lat="43.398814" lon="-3.477023">
        <ele>17.008</ele>
        <time>2019-06-16T14:35:17Z</time>
      </trkpt>
      <trkpt lat="43.398978" lon="-3.477241">
        <ele>16.092</ele>
        <time>2019-06-16T14:35:18Z</time>
      </trkpt>
      <trkpt lat="43.399143" lon="-3.477439">
        <ele>14.926</ele>
        <time>2019-06-16T14:35:19Z</time>
      </trkpt>
      <trkpt lat="43.399313" lon="-3.477662">
        <ele>13.756</ele>
        <time>2019-06-16T14:35:20Z</time>
      </trkpt>
      <trkpt lat="43.399455" lon="-3.477862">
        <ele>13.170</ele>
        <time>2019-06-16T14:35:21Z</time>
      </trkpt>
      <trkpt lat="43.399609" lon="-3.478059">
        <ele>12.269</ele>
        <time>2019-06-16T14:35:22Z</time>
      </trkpt>
      <trkpt lat="43.399764" lon="-3.478264">
        <ele>11.499</ele>
        <time>2019-06-16T14:35:23Z</time>
      </trkpt>
      <trkpt lat="43.399906" lon="-3.478465">
        <ele>11.015</ele>
        <time>2019-06-16T14:35:24Z</time>
      </trkpt>
      <trkpt lat="43.400046" lon="-3.478650">
        <ele>9.554</ele>
        <time>2019-06-16T14:35:25Z</time>
      </trkpt>
      <trkpt lat="43.400187" lon="-3.478813">
        <ele>8.067</ele>
        <time>2019-06-16T14:35:26Z</time>
      </trkpt>
      <trkpt lat="43.400317" lon="-3.478975">
        <ele>6.481</ele>
        <time>2019-06-16T14:35:27Z</time>
      </trkpt>
      <trkpt lat="43.400442" lon="-3.479116">
        <ele>5.019</ele>
        <time>2019-06-16T14:35:28Z</time>
      </trkpt>
      <trkpt lat="43.400581" lon="-3.479252">
        <ele>4.208</ele>
        <time>2019-06-16T14:35:29Z</time>
      </trkpt>
      <trkpt lat="43.400708" lon="-3.479374">
        <ele>4.189</ele>
        <time>2019-06-16T14:35:30Z</time>
      </trkpt>
      <trkpt lat="43.400815" lon="-3.479472">
        <ele>4.263</ele>
        <time>2019-06-16T14:35:31Z</time>
      </trkpt>
      <trkpt lat="43.400942" lon="-3.479568">
        <ele>4.273</ele>
        <time>2019-06-16T14:35:32Z</time>
      </trkpt>
      <trkpt lat="43.401079" lon="-3.479638">
        <ele>4.467</ele>
        <time>2019-06-16T14:35:33Z</time>
      </trkpt>
      <trkpt lat="43.401197" lon="-3.479696">
        <ele>4.886</ele>
        <time>2019-06-16T14:35:34Z</time>
      </trkpt>
      <trkpt lat="43.401329" lon="-3.479733">
        <ele>5.046</ele>
        <time>2019-06-16T14:35:35Z</time>
      </trkpt>
      <trkpt lat="43.401480" lon="-3.479749">
        <ele>5.132</ele>
        <time>2019-06-16T14:35:36Z</time>
      </trkpt>
      <trkpt lat="43.401634" lon="-3.479772">
        <ele>5.261</ele>
        <time>2019-06-16T14:35:37Z</time>
      </trkpt>
      <trkpt lat="43.401804" lon="-3.479782">
        <ele>5.171</ele>
        <time>2019-06-16T14:35:38Z</time>
      </trkpt>
      <trkpt lat="43.401972" lon="-3.479767">
        <ele>5.041</ele>
        <time>2019-06-16T14:35:39Z</time>
      </trkpt>
      <trkpt lat="43.402158" lon="-3.479738">
        <ele>5.015</ele>
        <time>2019-06-16T14:35:40Z</time>
      </trkpt>
      <trkpt lat="43.402315" lon="-3.479686">
        <ele>4.708</ele>
        <time>2019-06-16T14:35:41Z</time>
      </trkpt>
      <trkpt lat="43.402511" lon="-3.479662">
        <ele>4.390</ele>
        <time>2019-06-16T14:35:42Z</time>
      </trkpt>
      <trkpt lat="43.402699" lon="-3.479632">
        <ele>4.024</ele>
        <time>2019-06-16T14:35:43Z</time>
      </trkpt>
      <trkpt lat="43.402891" lon="-3.479611">
        <ele>4.084</ele>
        <time>2019-06-16T14:35:44Z</time>
      </trkpt>
      <trkpt lat="43.403092" lon="-3.479594">
        <ele>4.248</ele>
        <time>2019-06-16T14:35:45Z</time>
      </trkpt>
      <trkpt lat="43.403286" lon="-3.479572">
        <ele>4.757</ele>
        <time>2019-06-16T14:35:46Z</time>
      </trkpt>
      <trkpt lat="43.403500" lon="-3.479607">
        <ele>5.577</ele>
        <time>2019-06-16T14:35:47Z</time>
      </trkpt>
      <trkpt lat="43.403718" lon="-3.479653">
        <ele>6.043</ele>
        <time>2019-06-16T14:35:48Z</time>
      </trkpt>
      <trkpt lat="43.403892" lon="-3.479702">
        <ele>5.842</ele>
        <time>2019-06-16T14:35:49Z</time>
      </trkpt>
      <trkpt lat="43.404096" lon="-3.479762">
        <ele>5.425</ele>
        <time>2019-06-16T14:35:50Z</time>
      </trkpt>
      <trkpt lat="43.404301" lon="-3.479851">
        <ele>4.526</ele>
        <time>2019-06-16T14:35:51Z</time>
      </trkpt>
      <trkpt lat="43.404497" lon="-3.479966">
        <ele>4.608</ele>
        <time>2019-06-16T14:35:52Z</time>
      </trkpt>
      <trkpt lat="43.404695" lon="-3.480094">
        <ele>4.108</ele>
        <time>2019-06-16T14:35:53Z</time>
      </trkpt>
      <trkpt lat="43.404893" lon="-3.480257">
        <ele>3.915</ele>
        <time>2019-06-16T14:35:54Z</time>
      </trkpt>
      <trkpt lat="43.405083" lon="-3.480447">
        <ele>4.059</ele>
        <time>2019-06-16T14:35:55Z</time>
      </trkpt>
      <trkpt lat="43.405259" lon="-3.480637">
        <ele>4.389</ele>
        <time>2019-06-16T14:35:56Z</time>
      </trkpt>
      <trkpt lat="43.405427" lon="-3.480847">
        <ele>5.093</ele>
        <time>2019-06-16T14:35:57Z</time>
      </trkpt>
      <trkpt lat="43.405619" lon="-3.481065">
        <ele>4.752</ele>
        <time>2019-06-16T14:35:58Z</time>
      </trkpt>
      <trkpt lat="43.405785" lon="-3.481298">
        <ele>4.322</ele>
        <time>2019-06-16T14:35:59Z</time>
      </trkpt>
      <trkpt lat="43.405928" lon="-3.481539">
        <ele>4.288</ele>
        <time>2019-06-16T14:36:00Z</time>
      </trkpt>
      <trkpt lat="43.406086" lon="-3.481776">
        <ele>4.197</ele>
        <time>2019-06-16T14:36:01Z</time>
      </trkpt>
      <trkpt lat="43.406247" lon="-3.481996">
        <ele>3.614</ele>
        <time>2019-06-16T14:36:02Z</time>
      </trkpt>
      <trkpt lat="43.406403" lon="-3.482225">
        <ele>2.954</ele>
        <time>2019-06-16T14:36:03Z</time>
      </trkpt>
      <trkpt lat="43.406592" lon="-3.482447">
        <ele>2.909</ele>
        <time>2019-06-16T14:36:04Z</time>
      </trkpt>
      <trkpt lat="43.406782" lon="-3.482653">
        <ele>2.908</ele>
        <time>2019-06-16T14:36:05Z</time>
      </trkpt>
      <trkpt lat="43.406974" lon="-3.482857">
        <ele>3.174</ele>
        <time>2019-06-16T14:36:06Z</time>
      </trkpt>
      <trkpt lat="43.407167" lon="-3.483051">
        <ele>3.228</ele>
        <time>2019-06-16T14:36:07Z</time>
      </trkpt>
      <trkpt lat="43.407375" lon="-3.483227">
        <ele>3.118</ele>
        <time>2019-06-16T14:36:08Z</time>
      </trkpt>
      <trkpt lat="43.407571" lon="-3.483398">
        <ele>3.452</ele>
        <time>2019-06-16T14:36:09Z</time>
      </trkpt>
      <trkpt lat="43.407761" lon="-3.483585">
        <ele>4.091</ele>
        <time>2019-06-16T14:36:10Z</time>
      </trkpt>
      <trkpt lat="43.407948" lon="-3.483762">
        <ele>3.181</ele>
        <time>2019-06-16T14:36:11Z</time>
      </trkpt>
      <trkpt lat="43.408115" lon="-3.483921">
        <ele>3.157</ele>
        <time>2019-06-16T14:36:12Z</time>
      </trkpt>
      <trkpt lat="43.408280" lon="-3.484072">
        <ele>3.776</ele>
        <time>2019-06-16T14:36:13Z</time>
      </trkpt>
      <trkpt lat="43.408433" lon="-3.484223">
        <ele>4.098</ele>
        <time>2019-06-16T14:36:14Z</time>
      </trkpt>
      <trkpt lat="43.408585" lon="-3.484370">
        <ele>4.015</ele>
        <time>2019-06-16T14:36:15Z</time>
      </trkpt>
      <trkpt lat="43.408734" lon="-3.484515">
        <ele>4.126</ele>
        <time>2019-06-16T14:36:16Z</time>
      </trkpt>
      <trkpt lat="43.408889" lon="-3.484657">
        <ele>4.008</ele>
        <time>2019-06-16T14:36:17Z</time>
      </trkpt>
      <trkpt lat="43.409044" lon="-3.484791">
        <ele>4.792</ele>
        <time>2019-06-16T14:36:18Z</time>
      </trkpt>
      <trkpt lat="43.409203" lon="-3.484926">
        <ele>5.026</ele>
        <time>2019-06-16T14:36:19Z</time>
      </trkpt>
      <trkpt lat="43.409347" lon="-3.485061">
        <ele>5.066</ele>
        <time>2019-06-16T14:36:20Z</time>
      </trkpt>
      <trkpt lat="43.409484" lon="-3.485199">
        <ele>5.090</ele>
        <time>2019-06-16T14:36:21Z</time>
      </trkpt>
      <trkpt lat="43.409624" lon="-3.485316">
        <ele>5.089</ele>
        <time>2019-06-16T14:36:22Z</time>
      </trkpt>
      <trkpt lat="43.409768" lon="-3.485451">
        <ele>5.029</ele>
        <time>2019-06-16T14:36:23Z</time>
      </trkpt>
      <trkpt lat="43.409909" lon="-3.485592">
        <ele>5.015</ele>
        <time>2019-06-16T14:36:24Z</time>
      </trkpt>
      <trkpt lat="43.410049" lon="-3.485716">
        <ele>5.224</ele>
        <time>2019-06-16T14:36:25Z</time>
      </trkpt>
      <trkpt lat="43.410177" lon="-3.485840">
        <ele>5.668</ele>
        <time>2019-06-16T14:36:26Z</time>
      </trkpt>
      <trkpt lat="43.410302" lon="-3.485962">
        <ele>6.042</ele>
        <time>2019-06-16T14:36:27Z</time>
      </trkpt>
      <trkpt lat="43.410423" lon="-3.486074">
        <ele>6.026</ele>
        <time>2019-06-16T14:36:28Z</time>
      </trkpt>
      <trkpt lat="43.410525" lon="-3.486185">
        <ele>6.008</ele>
        <time>2019-06-16T14:36:29Z</time>
      </trkpt>
      <trkpt lat="43.410640" lon="-3.486288">
        <ele>6.399</ele>
        <time>2019-06-16T14:36:30Z</time>
      </trkpt>
      <trkpt lat="43.410728" lon="-3.486376">
        <ele>6.693</ele>
        <time>2019-06-16T14:36:31Z</time>
      </trkpt>
      <trkpt lat="43.410815" lon="-3.486470">
        <ele>7.083</ele>
        <time>2019-06-16T14:36:32Z</time>
      </trkpt>
      <trkpt lat="43.410913" lon="-3.486538">
        <ele>7.127</ele>
        <time>2019-06-16T14:36:33Z</time>
      </trkpt>
      <trkpt lat="43.411010" lon="-3.486626">
        <ele>7.166</ele>
        <time>2019-06-16T14:36:34Z</time>
      </trkpt>
      <trkpt lat="43.411121" lon="-3.486683">
        <ele>7.046</ele>
        <time>2019-06-16T14:36:35Z</time>
      </trkpt>
      <trkpt lat="43.411205" lon="-3.486771">
        <ele>7.342</ele>
        <time>2019-06-16T14:36:36Z</time>
      </trkpt>
      <trkpt lat="43.411317" lon="-3.486872">
        <ele>7.781</ele>
        <time>2019-06-16T14:36:37Z</time>
      </trkpt>
      <trkpt lat="43.411421" lon="-3.486975">
        <ele>8.032</ele>
        <time>2019-06-16T14:36:38Z</time>
      </trkpt>
      <trkpt lat="43.411541" lon="-3.487080">
        <ele>8.092</ele>
        <time>2019-06-16T14:36:39Z</time>
      </trkpt>
      <trkpt lat="43.411651" lon="-3.487201">
        <ele>8.011</ele>
        <time>2019-06-16T14:36:40Z</time>
      </trkpt>
      <trkpt lat="43.411775" lon="-3.487335">
        <ele>8.208</ele>
        <time>2019-06-16T14:36:41Z</time>
      </trkpt>
      <trkpt lat="43.411897" lon="-3.487454">
        <ele>8.746</ele>
        <time>2019-06-16T14:36:42Z</time>
      </trkpt>
      <trkpt lat="43.412016" lon="-3.487571">
        <ele>9.090</ele>
        <time>2019-06-16T14:36:43Z</time>
      </trkpt>
      <trkpt lat="43.412131" lon="-3.487685">
        <ele>9.050</ele>
        <time>2019-06-16T14:36:44Z</time>
      </trkpt>
      <trkpt lat="43.412248" lon="-3.487794">
        <ele>9.044</ele>
        <time>2019-06-16T14:36:45Z</time>
      </trkpt>
      <trkpt lat="43.412366" lon="-3.487890">
        <ele>9.263</ele>
        <time>2019-06-16T14:36:46Z</time>
      </trkpt>
      <trkpt lat="43.412472" lon="-3.487982">
        <ele>9.763</ele>
        <time>2019-06-16T14:36:47Z</time>
      </trkpt>
      <trkpt lat="43.412573" lon="-3.488079">
        <ele>10.049</ele>
        <time>2019-06-16T14:36:48Z</time>
      </trkpt>
      <trkpt lat="43.412681" lon="-3.488173">
        <ele>10.098</ele>
        <time>2019-06-16T14:36:49Z</time>
      </trkpt>
      <trkpt lat="43.412781" lon="-3.488264">
        <ele>10.092</ele>
        <time>2019-06-16T14:36:50Z</time>
      </trkpt>
      <trkpt lat="43.412884" lon="-3.488362">
        <ele>10.073</ele>
        <time>2019-06-16T14:36:51Z</time>
      </trkpt>
      <trkpt lat="43.412988" lon="-3.488466">
        <ele>10.020</ele>
        <time>2019-06-16T14:36:52Z</time>
      </trkpt>
      <trkpt lat="43.413093" lon="-3.488572">
        <ele>10.108</ele>
        <time>2019-06-16T14:36:53Z</time>
      </trkpt>
      <trkpt lat="43.413202" lon="-3.488668">
        <ele>10.422</ele>
        <time>2019-06-16T14:36:54Z</time>
      </trkpt>
      <trkpt lat="43.413297" lon="-3.488774">
        <ele>10.476</ele>
        <time>2019-06-16T14:36:55Z</time>
      </trkpt>
      <trkpt lat="43.413393" lon="-3.488870">
        <ele>10.326</ele>
        <time>2019-06-16T14:36:56Z</time>
      </trkpt>
      <trkpt lat="43.413481" lon="-3.488959">
        <ele>10.540</ele>
        <time>2019-06-16T14:36:57Z</time>
      </trkpt>
      <trkpt lat="43.413578" lon="-3.489050">
        <ele>10.419</ele>
        <time>2019-06-16T14:36:58Z</time>
      </trkpt>
      <trkpt lat="43.413673" lon="-3.489137">
        <ele>10.559</ele>
        <time>2019-06-16T14:36:59Z</time>
      </trkpt>
      <trkpt lat="43.413772" lon="-3.489222">
        <ele>11.145</ele>
        <time>2019-06-16T14:37:00Z</time>
      </trkpt>
      <trkpt lat="43.413856" lon="-3.489310">
        <ele>11.454</ele>
        <time>2019-06-16T14:37:01Z</time>
      </trkpt>
      <trkpt lat="43.413943" lon="-3.489401">
        <ele>10.839</ele>
        <time>2019-06-16T14:37:02Z</time>
      </trkpt>
      <trkpt lat="43.414033" lon="-3.489507">
        <ele>10.201</ele>
        <time>2019-06-16T14:37:03Z</time>
      </trkpt>
      <trkpt lat="43.414135" lon="-3.489607">
        <ele>9.821</ele>
        <time>2019-06-16T14:37:04Z</time>
      </trkpt>
      <trkpt lat="43.414229" lon="-3.489707">
        <ele>9.508</ele>
        <time>2019-06-16T14:37:05Z</time>
      </trkpt>
      <trkpt lat="43.414329" lon="-3.489799">
        <ele>8.866</ele>
        <time>2019-06-16T14:37:06Z</time>
      </trkpt>
      <trkpt lat="43.414469" lon="-3.489882">
        <ele>7.950</ele>
        <time>2019-06-16T14:37:07Z</time>
      </trkpt>
      <trkpt lat="43.414591" lon="-3.489968">
        <ele>7.940</ele>
        <time>2019-06-16T14:37:08Z</time>
      </trkpt>
      <trkpt lat="43.414750" lon="-3.490013">
        <ele>8.034</ele>
        <time>2019-06-16T14:37:09Z</time>
      </trkpt>
      <trkpt lat="43.414897" lon="-3.490070">
        <ele>8.113</ele>
        <time>2019-06-16T14:37:10Z</time>
      </trkpt>
      <trkpt lat="43.415048" lon="-3.490116">
        <ele>8.473</ele>
        <time>2019-06-16T14:37:11Z</time>
      </trkpt>
      <trkpt lat="43.415199" lon="-3.490145">
        <ele>8.529</ele>
        <time>2019-06-16T14:37:12Z</time>
      </trkpt>
      <trkpt lat="43.415340" lon="-3.490201">
        <ele>8.498</ele>
        <time>2019-06-16T14:37:13Z</time>
      </trkpt>
      <trkpt lat="43.415446" lon="-3.490275">
        <ele>8.442</ele>
        <time>2019-06-16T14:37:14Z</time>
      </trkpt>
      <trkpt lat="43.415579" lon="-3.490326">
        <ele>8.022</ele>
        <time>2019-06-16T14:37:15Z</time>
      </trkpt>
      <trkpt lat="43.415725" lon="-3.490385">
        <ele>7.614</ele>
        <time>2019-06-16T14:37:16Z</time>
      </trkpt>
      <trkpt lat="43.415849" lon="-3.490457">
        <ele>7.908</ele>
        <time>2019-06-16T14:37:17Z</time>
      </trkpt>
      <trkpt lat="43.416003" lon="-3.490521">
        <ele>7.927</ele>
        <time>2019-06-16T14:37:18Z</time>
      </trkpt>
      <trkpt lat="43.416137" lon="-3.490595">
        <ele>8.381</ele>
        <time>2019-06-16T14:37:19Z</time>
      </trkpt>
      <trkpt lat="43.416277" lon="-3.490657">
        <ele>8.181</ele>
        <time>2019-06-16T14:37:20Z</time>
      </trkpt>
      <trkpt lat="43.416378" lon="-3.490717">
        <ele>8.445</ele>
        <time>2019-06-16T14:37:21Z</time>
      </trkpt>
      <trkpt lat="43.416506" lon="-3.490790">
        <ele>8.264</ele>
        <time>2019-06-16T14:37:22Z</time>
      </trkpt>
      <trkpt lat="43.416628" lon="-3.490856">
        <ele>7.984</ele>
        <time>2019-06-16T14:37:23Z</time>
      </trkpt>
      <trkpt lat="43.416748" lon="-3.490923">
        <ele>8.170</ele>
        <time>2019-06-16T14:37:24Z</time>
      </trkpt>
      <trkpt lat="43.416876" lon="-3.490992">
        <ele>8.239</ele>
        <time>2019-06-16T14:37:25Z</time>
      </trkpt>
      <trkpt lat="43.416983" lon="-3.491066">
        <ele>8.271</ele>
        <time>2019-06-16T14:37:26Z</time>
      </trkpt>
      <trkpt lat="43.417068" lon="-3.491130">
        <ele>8.441</ele>
        <time>2019-06-16T14:37:27Z</time>
      </trkpt>
      <trkpt lat="43.417160" lon="-3.491192">
        <ele>8.415</ele>
        <time>2019-06-16T14:37:28Z</time>
      </trkpt>
      <trkpt lat="43.417258" lon="-3.491242">
        <ele>8.308</ele>
        <time>2019-06-16T14:37:29Z</time>
      </trkpt>
      <trkpt lat="43.417338" lon="-3.491290">
        <ele>8.980</ele>
        <time>2019-06-16T14:37:30Z</time>
      </trkpt>
      <trkpt lat="43.417405" lon="-3.491334">
        <ele>9.764</ele>
        <time>2019-06-16T14:37:31Z</time>
      </trkpt>
      <trkpt lat="43.417489" lon="-3.491358">
        <ele>10.374</ele>
        <time>2019-06-16T14:37:32Z</time>
      </trkpt>
      <trkpt lat="43.417577" lon="-3.491351">
        <ele>9.758</ele>
        <time>2019-06-16T14:37:34Z</time>
      </trkpt>
      <trkpt lat="43.417674" lon="-3.491318">
        <ele>8.777</ele>
        <time>2019-06-16T14:37:35Z</time>
      </trkpt>
      <trkpt lat="43.417798" lon="-3.491280">
        <ele>7.737</ele>
        <time>2019-06-16T14:37:36Z</time>
      </trkpt>
      <trkpt lat="43.417932" lon="-3.491236">
        <ele>6.623</ele>
        <time>2019-06-16T14:37:37Z</time>
      </trkpt>
      <trkpt lat="43.418078" lon="-3.491222">
        <ele>5.922</ele>
        <time>2019-06-16T14:37:38Z</time>
      </trkpt>
      <trkpt lat="43.418231" lon="-3.491226">
        <ele>5.189</ele>
        <time>2019-06-16T14:37:39Z</time>
      </trkpt>
      <trkpt lat="43.418398" lon="-3.491248">
        <ele>4.306</ele>
        <time>2019-06-16T14:37:40Z</time>
      </trkpt>
      <trkpt lat="43.418574" lon="-3.491265">
        <ele>3.726</ele>
        <time>2019-06-16T14:37:41Z</time>
      </trkpt>
      <trkpt lat="43.418759" lon="-3.491295">
        <ele>3.308</ele>
        <time>2019-06-16T14:37:42Z</time>
      </trkpt>
      <trkpt lat="43.418953" lon="-3.491316">
        <ele>2.981</ele>
        <time>2019-06-16T14:37:43Z</time>
      </trkpt>
      <trkpt lat="43.419171" lon="-3.491334">
        <ele>2.835</ele>
        <time>2019-06-16T14:37:44Z</time>
      </trkpt>
      <trkpt lat="43.419380" lon="-3.491362">
        <ele>2.215</ele>
        <time>2019-06-16T14:37:45Z</time>
      </trkpt>
      <trkpt lat="43.419578" lon="-3.491381">
        <ele>2.539</ele>
        <time>2019-06-16T14:37:46Z</time>
      </trkpt>
      <trkpt lat="43.419766" lon="-3.491408">
        <ele>2.918</ele>
        <time>2019-06-16T14:37:47Z</time>
      </trkpt>
      <trkpt lat="43.419951" lon="-3.491424">
        <ele>2.738</ele>
        <time>2019-06-16T14:37:48Z</time>
      </trkpt>
      <trkpt lat="43.420140" lon="-3.491422">
        <ele>2.844</ele>
        <time>2019-06-16T14:37:49Z</time>
      </trkpt>
      <trkpt lat="43.420337" lon="-3.491437">
        <ele>2.733</ele>
        <time>2019-06-16T14:37:50Z</time>
      </trkpt>
      <trkpt lat="43.420513" lon="-3.491438">
        <ele>2.678</ele>
        <time>2019-06-16T14:37:51Z</time>
      </trkpt>
      <trkpt lat="43.420726" lon="-3.491469">
        <ele>2.433</ele>
        <time>2019-06-16T14:37:52Z</time>
      </trkpt>
      <trkpt lat="43.420956" lon="-3.491497">
        <ele>2.426</ele>
        <time>2019-06-16T14:37:53Z</time>
      </trkpt>
      <trkpt lat="43.421180" lon="-3.491529">
        <ele>2.508</ele>
        <time>2019-06-16T14:37:54Z</time>
      </trkpt>
      <trkpt lat="43.421404" lon="-3.491549">
        <ele>2.440</ele>
        <time>2019-06-16T14:37:55Z</time>
      </trkpt>
      <trkpt lat="43.421650" lon="-3.491589">
        <ele>2.364</ele>
        <time>2019-06-16T14:37:56Z</time>
      </trkpt>
      <trkpt lat="43.421874" lon="-3.491616">
        <ele>2.084</ele>
        <time>2019-06-16T14:37:57Z</time>
      </trkpt>
      <trkpt lat="43.422106" lon="-3.491631">
        <ele>2.038</ele>
        <time>2019-06-16T14:37:58Z</time>
      </trkpt>
      <trkpt lat="43.422352" lon="-3.491673">
        <ele>2.437</ele>
        <time>2019-06-16T14:37:59Z</time>
      </trkpt>
      <trkpt lat="43.422579" lon="-3.491696">
        <ele>2.887</ele>
        <time>2019-06-16T14:38:00Z</time>
      </trkpt>
      <trkpt lat="43.422801" lon="-3.491716">
        <ele>2.673</ele>
        <time>2019-06-16T14:38:01Z</time>
      </trkpt>
      <trkpt lat="43.422999" lon="-3.491736">
        <ele>2.512</ele>
        <time>2019-06-16T14:38:02Z</time>
      </trkpt>
      <trkpt lat="43.423186" lon="-3.491746">
        <ele>3.515</ele>
        <time>2019-06-16T14:38:03Z</time>
      </trkpt>
      <trkpt lat="43.423379" lon="-3.491775">
        <ele>4.765</ele>
        <time>2019-06-16T14:38:04Z</time>
      </trkpt>
      <trkpt lat="43.423573" lon="-3.491794">
        <ele>4.911</ele>
        <time>2019-06-16T14:38:05Z</time>
      </trkpt>
      <trkpt lat="43.423760" lon="-3.491812">
        <ele>4.708</ele>
        <time>2019-06-16T14:38:06Z</time>
      </trkpt>
      <trkpt lat="43.423947" lon="-3.491847">
        <ele>4.424</ele>
        <time>2019-06-16T14:38:07Z</time>
      </trkpt>
      <trkpt lat="43.424146" lon="-3.491852">
        <ele>4.328</ele>
        <time>2019-06-16T14:38:08Z</time>
      </trkpt>
      <trkpt lat="43.424335" lon="-3.491874">
        <ele>4.318</ele>
        <time>2019-06-16T14:38:09Z</time>
      </trkpt>
      <trkpt lat="43.424527" lon="-3.491889">
        <ele>4.112</ele>
        <time>2019-06-16T14:38:10Z</time>
      </trkpt>
      <trkpt lat="43.424710" lon="-3.491906">
        <ele>4.031</ele>
        <time>2019-06-16T14:38:11Z</time>
      </trkpt>
      <trkpt lat="43.424911" lon="-3.491932">
        <ele>3.311</ele>
        <time>2019-06-16T14:38:12Z</time>
      </trkpt>
      <trkpt lat="43.425109" lon="-3.491973">
        <ele>2.897</ele>
        <time>2019-06-16T14:38:13Z</time>
      </trkpt>
      <trkpt lat="43.425308" lon="-3.491998">
        <ele>2.646</ele>
        <time>2019-06-16T14:38:14Z</time>
      </trkpt>
      <trkpt lat="43.425507" lon="-3.492025">
        <ele>2.484</ele>
        <time>2019-06-16T14:38:15Z</time>
      </trkpt>
      <trkpt lat="43.425706" lon="-3.492070">
        <ele>2.307</ele>
        <time>2019-06-16T14:38:16Z</time>
      </trkpt>
      <trkpt lat="43.425919" lon="-3.492108">
        <ele>2.417</ele>
        <time>2019-06-16T14:38:17Z</time>
      </trkpt>
      <trkpt lat="43.426125" lon="-3.492152">
        <ele>2.308</ele>
        <time>2019-06-16T14:38:18Z</time>
      </trkpt>
      <trkpt lat="43.426327" lon="-3.492200">
        <ele>2.171</ele>
        <time>2019-06-16T14:38:19Z</time>
      </trkpt>
      <trkpt lat="43.426531" lon="-3.492245">
        <ele>2.435</ele>
        <time>2019-06-16T14:38:20Z</time>
      </trkpt>
      <trkpt lat="43.426687" lon="-3.492279">
        <ele>2.685</ele>
        <time>2019-06-16T14:38:21Z</time>
      </trkpt>
      <trkpt lat="43.426877" lon="-3.492310">
        <ele>2.499</ele>
        <time>2019-06-16T14:38:22Z</time>
      </trkpt>
      <trkpt lat="43.427074" lon="-3.492361">
        <ele>2.038</ele>
        <time>2019-06-16T14:38:23Z</time>
      </trkpt>
      <trkpt lat="43.427280" lon="-3.492410">
        <ele>1.888</ele>
        <time>2019-06-16T14:38:24Z</time>
      </trkpt>
      <trkpt lat="43.427481" lon="-3.492451">
        <ele>2.164</ele>
        <time>2019-06-16T14:38:25Z</time>
      </trkpt>
      <trkpt lat="43.427685" lon="-3.492490">
        <ele>2.013</ele>
        <time>2019-06-16T14:38:26Z</time>
      </trkpt>
      <trkpt lat="43.427887" lon="-3.492529">
        <ele>2.617</ele>
        <time>2019-06-16T14:38:27Z</time>
      </trkpt>
      <trkpt lat="43.428075" lon="-3.492571">
        <ele>3.287</ele>
        <time>2019-06-16T14:38:28Z</time>
      </trkpt>
      <trkpt lat="43.428265" lon="-3.492614">
        <ele>2.315</ele>
        <time>2019-06-16T14:38:29Z</time>
      </trkpt>
      <trkpt lat="43.428453" lon="-3.492652">
        <ele>2.108</ele>
        <time>2019-06-16T14:38:30Z</time>
      </trkpt>
      <trkpt lat="43.428633" lon="-3.492692">
        <ele>2.324</ele>
        <time>2019-06-16T14:38:31Z</time>
      </trkpt>
      <trkpt lat="43.428803" lon="-3.492717">
        <ele>2.448</ele>
        <time>2019-06-16T14:38:32Z</time>
      </trkpt>
      <trkpt lat="43.428971" lon="-3.492745">
        <ele>2.578</ele>
        <time>2019-06-16T14:38:33Z</time>
      </trkpt>
      <trkpt lat="43.429127" lon="-3.492763">
        <ele>2.952</ele>
        <time>2019-06-16T14:38:34Z</time>
      </trkpt>
      <trkpt lat="43.429280" lon="-3.492762">
        <ele>3.491</ele>
        <time>2019-06-16T14:38:35Z</time>
      </trkpt>
      <trkpt lat="43.429431" lon="-3.492749">
        <ele>4.041</ele>
        <time>2019-06-16T14:38:36Z</time>
      </trkpt>
      <trkpt lat="43.429584" lon="-3.492738">
        <ele>5.977</ele>
        <time>2019-06-16T14:38:37Z</time>
      </trkpt>
      <trkpt lat="43.429749" lon="-3.492660">
        <ele>7.736</ele>
        <time>2019-06-16T14:38:38Z</time>
      </trkpt>
      <trkpt lat="43.429881" lon="-3.492532">
        <ele>8.214</ele>
        <time>2019-06-16T14:38:39Z</time>
      </trkpt>
      <trkpt lat="43.430026" lon="-3.492417">
        <ele>8.054</ele>
        <time>2019-06-16T14:38:40Z</time>
      </trkpt>
      <trkpt lat="43.430144" lon="-3.492265">
        <ele>6.409</ele>
        <time>2019-06-16T14:38:41Z</time>
      </trkpt>
      <trkpt lat="43.430266" lon="-3.492084">
        <ele>6.008</ele>
        <time>2019-06-16T14:38:42Z</time>
      </trkpt>
      <trkpt lat="43.430394" lon="-3.491901">
        <ele>5.824</ele>
        <time>2019-06-16T14:38:43Z</time>
      </trkpt>
      <trkpt lat="43.430533" lon="-3.491713">
        <ele>5.258</ele>
        <time>2019-06-16T14:38:44Z</time>
      </trkpt>
      <trkpt lat="43.430677" lon="-3.491515">
        <ele>4.828</ele>
        <time>2019-06-16T14:38:45Z</time>
      </trkpt>
      <trkpt lat="43.430838" lon="-3.491311">
        <ele>4.082</ele>
        <time>2019-06-16T14:38:46Z</time>
      </trkpt>
      <trkpt lat="43.431008" lon="-3.491131">
        <ele>4.051</ele>
        <time>2019-06-16T14:38:47Z</time>
      </trkpt>
      <trkpt lat="43.431163" lon="-3.490934">
        <ele>4.081</ele>
        <time>2019-06-16T14:38:48Z</time>
      </trkpt>
      <trkpt lat="43.431328" lon="-3.490749">
        <ele>3.797</ele>
        <time>2019-06-16T14:38:49Z</time>
      </trkpt>
      <trkpt lat="43.431499" lon="-3.490559">
        <ele>3.026</ele>
        <time>2019-06-16T14:38:50Z</time>
      </trkpt>
      <trkpt lat="43.431669" lon="-3.490369">
        <ele>3.052</ele>
        <time>2019-06-16T14:38:51Z</time>
      </trkpt>
      <trkpt lat="43.431835" lon="-3.490185">
        <ele>3.153</ele>
        <time>2019-06-16T14:38:52Z</time>
      </trkpt>
      <trkpt lat="43.431987" lon="-3.489979">
        <ele>2.708</ele>
        <time>2019-06-16T14:38:53Z</time>
      </trkpt>
      <trkpt lat="43.432161" lon="-3.489794">
        <ele>2.508</ele>
        <time>2019-06-16T14:38:54Z</time>
      </trkpt>
      <trkpt lat="43.432325" lon="-3.489594">
        <ele>2.348</ele>
        <time>2019-06-16T14:38:55Z</time>
      </trkpt>
      <trkpt lat="43.432506" lon="-3.489395">
        <ele>2.092</ele>
        <time>2019-06-16T14:38:56Z</time>
      </trkpt>
      <trkpt lat="43.432680" lon="-3.489204">
        <ele>2.032</ele>
        <time>2019-06-16T14:38:57Z</time>
      </trkpt>
      <trkpt lat="43.432854" lon="-3.489013">
        <ele>1.976</ele>
        <time>2019-06-16T14:38:58Z</time>
      </trkpt>
      <trkpt lat="43.433019" lon="-3.488825">
        <ele>1.975</ele>
        <time>2019-06-16T14:38:59Z</time>
      </trkpt>
      <trkpt lat="43.433191" lon="-3.488633">
        <ele>2.085</ele>
        <time>2019-06-16T14:39:00Z</time>
      </trkpt>
      <trkpt lat="43.433359" lon="-3.488443">
        <ele>2.591</ele>
        <time>2019-06-16T14:39:01Z</time>
      </trkpt>
      <trkpt lat="43.433521" lon="-3.488255">
        <ele>2.210</ele>
        <time>2019-06-16T14:39:02Z</time>
      </trkpt>
      <trkpt lat="43.433689" lon="-3.488068">
        <ele>2.722</ele>
        <time>2019-06-16T14:39:03Z</time>
      </trkpt>
      <trkpt lat="43.433858" lon="-3.487878">
        <ele>2.562</ele>
        <time>2019-06-16T14:39:04Z</time>
      </trkpt>
      <trkpt lat="43.433997" lon="-3.487677">
        <ele>2.108</ele>
        <time>2019-06-16T14:39:05Z</time>
      </trkpt>
      <trkpt lat="43.434162" lon="-3.487492">
        <ele>2.008</ele>
        <time>2019-06-16T14:39:06Z</time>
      </trkpt>
      <trkpt lat="43.434322" lon="-3.487311">
        <ele>1.675</ele>
        <time>2019-06-16T14:39:07Z</time>
      </trkpt>
      <trkpt lat="43.434465" lon="-3.487111">
        <ele>2.469</ele>
        <time>2019-06-16T14:39:08Z</time>
      </trkpt>
      <trkpt lat="43.434632" lon="-3.486940">
        <ele>3.059</ele>
        <time>2019-06-16T14:39:09Z</time>
      </trkpt>
      <trkpt lat="43.434787" lon="-3.486778">
        <ele>3.513</ele>
        <time>2019-06-16T14:39:10Z</time>
      </trkpt>
      <trkpt lat="43.434927" lon="-3.486598">
        <ele>3.412</ele>
        <time>2019-06-16T14:39:11Z</time>
      </trkpt>
      <trkpt lat="43.435068" lon="-3.486421">
        <ele>4.132</ele>
        <time>2019-06-16T14:39:12Z</time>
      </trkpt>
      <trkpt lat="43.435213" lon="-3.486241">
        <ele>3.048</ele>
        <time>2019-06-16T14:39:13Z</time>
      </trkpt>
      <trkpt lat="43.435362" lon="-3.486063">
        <ele>3.287</ele>
        <time>2019-06-16T14:39:14Z</time>
      </trkpt>
      <trkpt lat="43.435511" lon="-3.485878">
        <ele>2.881</ele>
        <time>2019-06-16T14:39:15Z</time>
      </trkpt>
      <trkpt lat="43.435657" lon="-3.485689">
        <ele>2.861</ele>
        <time>2019-06-16T14:39:16Z</time>
      </trkpt>
      <trkpt lat="43.435807" lon="-3.485498">
        <ele>2.917</ele>
        <time>2019-06-16T14:39:17Z</time>
      </trkpt>
      <trkpt lat="43.435960" lon="-3.485312">
        <ele>2.408</ele>
        <time>2019-06-16T14:39:18Z</time>
      </trkpt>
      <trkpt lat="43.436092" lon="-3.485116">
        <ele>2.551</ele>
        <time>2019-06-16T14:39:19Z</time>
      </trkpt>
      <trkpt lat="43.436251" lon="-3.484925">
        <ele>2.165</ele>
        <time>2019-06-16T14:39:20Z</time>
      </trkpt>
      <trkpt lat="43.436402" lon="-3.484725">
        <ele>2.945</ele>
        <time>2019-06-16T14:39:21Z</time>
      </trkpt>
      <trkpt lat="43.436557" lon="-3.484544">
        <ele>2.319</ele>
        <time>2019-06-16T14:39:22Z</time>
      </trkpt>
      <trkpt lat="43.436705" lon="-3.484354">
        <ele>2.458</ele>
        <time>2019-06-16T14:39:23Z</time>
      </trkpt>
      <trkpt lat="43.436852" lon="-3.484169">
        <ele>2.078</ele>
        <time>2019-06-16T14:39:24Z</time>
      </trkpt>
      <trkpt lat="43.436970" lon="-3.483976">
        <ele>2.574</ele>
        <time>2019-06-16T14:39:25Z</time>
      </trkpt>
      <trkpt lat="43.437076" lon="-3.483771">
        <ele>2.273</ele>
        <time>2019-06-16T14:39:26Z</time>
      </trkpt>
      <trkpt lat="43.437191" lon="-3.483553">
        <ele>2.896</ele>
        <time>2019-06-16T14:39:27Z</time>
      </trkpt>
      <trkpt lat="43.437313" lon="-3.483357">
        <ele>2.631</ele>
        <time>2019-06-16T14:39:28Z</time>
      </trkpt>
      <trkpt lat="43.437430" lon="-3.483180">
        <ele>2.424</ele>
        <time>2019-06-16T14:39:29Z</time>
      </trkpt>
      <trkpt lat="43.437538" lon="-3.482963">
        <ele>2.608</ele>
        <time>2019-06-16T14:39:30Z</time>
      </trkpt>
      <trkpt lat="43.437642" lon="-3.482760">
        <ele>2.032</ele>
        <time>2019-06-16T14:39:31Z</time>
      </trkpt>
      <trkpt lat="43.437713" lon="-3.482523">
        <ele>2.716</ele>
        <time>2019-06-16T14:39:32Z</time>
      </trkpt>
      <trkpt lat="43.437786" lon="-3.482291">
        <ele>2.946</ele>
        <time>2019-06-16T14:39:33Z</time>
      </trkpt>
      <trkpt lat="43.437862" lon="-3.482052">
        <ele>2.310</ele>
        <time>2019-06-16T14:39:34Z</time>
      </trkpt>
      <trkpt lat="43.437917" lon="-3.481799">
        <ele>1.779</ele>
        <time>2019-06-16T14:39:35Z</time>
      </trkpt>
      <trkpt lat="43.437994" lon="-3.481559">
        <ele>2.099</ele>
        <time>2019-06-16T14:39:36Z</time>
      </trkpt>
      <trkpt lat="43.438062" lon="-3.481339">
        <ele>2.965</ele>
        <time>2019-06-16T14:39:37Z</time>
      </trkpt>
      <trkpt lat="43.438122" lon="-3.481115">
        <ele>2.534</ele>
        <time>2019-06-16T14:39:38Z</time>
      </trkpt>
      <trkpt lat="43.438189" lon="-3.480918">
        <ele>2.339</ele>
        <time>2019-06-16T14:39:39Z</time>
      </trkpt>
      <trkpt lat="43.438255" lon="-3.480715">
        <ele>2.501</ele>
        <time>2019-06-16T14:39:40Z</time>
      </trkpt>
      <trkpt lat="43.438333" lon="-3.480530">
        <ele>2.921</ele>
        <time>2019-06-16T14:39:41Z</time>
      </trkpt>
      <trkpt lat="43.438439" lon="-3.480335">
        <ele>2.008</ele>
        <time>2019-06-16T14:39:42Z</time>
      </trkpt>
      <trkpt lat="43.438536" lon="-3.480141">
        <ele>2.136</ele>
        <time>2019-06-16T14:39:43Z</time>
      </trkpt>
      <trkpt lat="43.438650" lon="-3.479960">
        <ele>2.480</ele>
        <time>2019-06-16T14:39:44Z</time>
      </trkpt>
      <trkpt lat="43.438782" lon="-3.479792">
        <ele>2.080</ele>
        <time>2019-06-16T14:39:45Z</time>
      </trkpt>
      <trkpt lat="43.438894" lon="-3.479612">
        <ele>3.094</ele>
        <time>2019-06-16T14:39:46Z</time>
      </trkpt>
      <trkpt lat="43.439014" lon="-3.479458">
        <ele>3.453</ele>
        <time>2019-06-16T14:39:47Z</time>
      </trkpt>
      <trkpt lat="43.439152" lon="-3.479307">
        <ele>2.923</ele>
        <time>2019-06-16T14:39:48Z</time>
      </trkpt>
      <trkpt lat="43.439284" lon="-3.479187">
        <ele>2.419</ele>
        <time>2019-06-16T14:39:49Z</time>
      </trkpt>
      <trkpt lat="43.439457" lon="-3.479076">
        <ele>2.338</ele>
        <time>2019-06-16T14:39:50Z</time>
      </trkpt>
      <trkpt lat="43.439625" lon="-3.478999">
        <ele>2.329</ele>
        <time>2019-06-16T14:39:51Z</time>
      </trkpt>
      <trkpt lat="43.439795" lon="-3.478966">
        <ele>2.600</ele>
        <time>2019-06-16T14:39:52Z</time>
      </trkpt>
      <trkpt lat="43.439970" lon="-3.478929">
        <ele>2.720</ele>
        <time>2019-06-16T14:39:53Z</time>
      </trkpt>
      <trkpt lat="43.440148" lon="-3.478886">
        <ele>3.008</ele>
        <time>2019-06-16T14:39:54Z</time>
      </trkpt>
      <trkpt lat="43.440320" lon="-3.478835">
        <ele>2.565</ele>
        <time>2019-06-16T14:39:55Z</time>
      </trkpt>
      <trkpt lat="43.440462" lon="-3.478759">
        <ele>2.329</ele>
        <time>2019-06-16T14:39:56Z</time>
      </trkpt>
      <trkpt lat="43.440614" lon="-3.478660">
        <ele>2.839</ele>
        <time>2019-06-16T14:39:57Z</time>
      </trkpt>
      <trkpt lat="43.440754" lon="-3.478535">
        <ele>2.853</ele>
        <time>2019-06-16T14:39:58Z</time>
      </trkpt>
      <trkpt lat="43.440882" lon="-3.478377">
        <ele>2.862</ele>
        <time>2019-06-16T14:39:59Z</time>
      </trkpt>
      <trkpt lat="43.441019" lon="-3.478206">
        <ele>2.352</ele>
        <time>2019-06-16T14:40:00Z</time>
      </trkpt>
      <trkpt lat="43.441161" lon="-3.478015">
        <ele>2.648</ele>
        <time>2019-06-16T14:40:01Z</time>
      </trkpt>
      <trkpt lat="43.441298" lon="-3.477838">
        <ele>2.587</ele>
        <time>2019-06-16T14:40:02Z</time>
      </trkpt>
      <trkpt lat="43.441435" lon="-3.477653">
        <ele>2.715</ele>
        <time>2019-06-16T14:40:03Z</time>
      </trkpt>
      <trkpt lat="43.441579" lon="-3.477467">
        <ele>2.365</ele>
        <time>2019-06-16T14:40:04Z</time>
      </trkpt>
      <trkpt lat="43.441715" lon="-3.477267">
        <ele>2.511</ele>
        <time>2019-06-16T14:40:05Z</time>
      </trkpt>
      <trkpt lat="43.441846" lon="-3.477058">
        <ele>2.408</ele>
        <time>2019-06-16T14:40:06Z</time>
      </trkpt>
      <trkpt lat="43.441991" lon="-3.476868">
        <ele>3.254</ele>
        <time>2019-06-16T14:40:07Z</time>
      </trkpt>
      <trkpt lat="43.442122" lon="-3.476674">
        <ele>3.068</ele>
        <time>2019-06-16T14:40:08Z</time>
      </trkpt>
      <trkpt lat="43.442269" lon="-3.476519">
        <ele>3.628</ele>
        <time>2019-06-16T14:40:09Z</time>
      </trkpt>
      <trkpt lat="43.442399" lon="-3.476337">
        <ele>3.212</ele>
        <time>2019-06-16T14:40:10Z</time>
      </trkpt>
      <trkpt lat="43.442526" lon="-3.476152">
        <ele>4.321</ele>
        <time>2019-06-16T14:40:11Z</time>
      </trkpt>
      <trkpt lat="43.442658" lon="-3.475958">
        <ele>3.471</ele>
        <time>2019-06-16T14:40:12Z</time>
      </trkpt>
      <trkpt lat="43.442775" lon="-3.475766">
        <ele>4.077</ele>
        <time>2019-06-16T14:40:13Z</time>
      </trkpt>
      <trkpt lat="43.442922" lon="-3.475633">
        <ele>3.596</ele>
        <time>2019-06-16T14:40:14Z</time>
      </trkpt>
      <trkpt lat="43.443042" lon="-3.475484">
        <ele>3.024</ele>
        <time>2019-06-16T14:40:15Z</time>
      </trkpt>
      <trkpt lat="43.443151" lon="-3.475314">
        <ele>2.704</ele>
        <time>2019-06-16T14:40:16Z</time>
      </trkpt>
      <trkpt lat="43.443250" lon="-3.475148">
        <ele>2.514</ele>
        <time>2019-06-16T14:40:17Z</time>
      </trkpt>
      <trkpt lat="43.443348" lon="-3.475013">
        <ele>3.008</ele>
        <time>2019-06-16T14:40:18Z</time>
      </trkpt>
      <trkpt lat="43.443439" lon="-3.474878">
        <ele>3.455</ele>
        <time>2019-06-16T14:40:19Z</time>
      </trkpt>
      <trkpt lat="43.443516" lon="-3.474731">
        <ele>3.799</ele>
        <time>2019-06-16T14:40:20Z</time>
      </trkpt>
      <trkpt lat="43.443591" lon="-3.474585">
        <ele>3.979</ele>
        <time>2019-06-16T14:40:21Z</time>
      </trkpt>
      <trkpt lat="43.443635" lon="-3.474397">
        <ele>3.883</ele>
        <time>2019-06-16T14:40:22Z</time>
      </trkpt>
      <trkpt lat="43.443677" lon="-3.474198">
        <ele>3.192</ele>
        <time>2019-06-16T14:40:23Z</time>
      </trkpt>
      <trkpt lat="43.443711" lon="-3.473989">
        <ele>2.622</ele>
        <time>2019-06-16T14:40:24Z</time>
      </trkpt>
      <trkpt lat="43.443734" lon="-3.473757">
        <ele>2.218</ele>
        <time>2019-06-16T14:40:25Z</time>
      </trkpt>
      <trkpt lat="43.443758" lon="-3.473533">
        <ele>2.047</ele>
        <time>2019-06-16T14:40:26Z</time>
      </trkpt>
      <trkpt lat="43.443788" lon="-3.473311">
        <ele>2.071</ele>
        <time>2019-06-16T14:40:27Z</time>
      </trkpt>
      <trkpt lat="43.443804" lon="-3.473069">
        <ele>1.741</ele>
        <time>2019-06-16T14:40:28Z</time>
      </trkpt>
      <trkpt lat="43.443834" lon="-3.472831">
        <ele>2.515</ele>
        <time>2019-06-16T14:40:29Z</time>
      </trkpt>
      <trkpt lat="43.443857" lon="-3.472585">
        <ele>2.808</ele>
        <time>2019-06-16T14:40:30Z</time>
      </trkpt>
      <trkpt lat="43.443877" lon="-3.472343">
        <ele>2.980</ele>
        <time>2019-06-16T14:40:31Z</time>
      </trkpt>
      <trkpt lat="43.443915" lon="-3.472117">
        <ele>2.484</ele>
        <time>2019-06-16T14:40:32Z</time>
      </trkpt>
      <trkpt lat="43.443967" lon="-3.471914">
        <ele>1.574</ele>
        <time>2019-06-16T14:40:33Z</time>
      </trkpt>
      <trkpt lat="43.443989" lon="-3.471672">
        <ele>2.328</ele>
        <time>2019-06-16T14:40:34Z</time>
      </trkpt>
      <trkpt lat="43.444004" lon="-3.471430">
        <ele>2.227</ele>
        <time>2019-06-16T14:40:35Z</time>
      </trkpt>
      <trkpt lat="43.444034" lon="-3.471204">
        <ele>1.637</ele>
        <time>2019-06-16T14:40:36Z</time>
      </trkpt>
      <trkpt lat="43.444060" lon="-3.470968">
        <ele>1.773</ele>
        <time>2019-06-16T14:40:37Z</time>
      </trkpt>
      <trkpt lat="43.444103" lon="-3.470746">
        <ele>2.252</ele>
        <time>2019-06-16T14:40:38Z</time>
      </trkpt>
      <trkpt lat="43.444125" lon="-3.470485">
        <ele>2.738</ele>
        <time>2019-06-16T14:40:39Z</time>
      </trkpt>
      <trkpt lat="43.444155" lon="-3.470268">
        <ele>2.970</ele>
        <time>2019-06-16T14:40:40Z</time>
      </trkpt>
      <trkpt lat="43.444199" lon="-3.470065">
        <ele>2.717</ele>
        <time>2019-06-16T14:40:41Z</time>
      </trkpt>
      <trkpt lat="43.444226" lon="-3.469842">
        <ele>2.008</ele>
        <time>2019-06-16T14:40:42Z</time>
      </trkpt>
      <trkpt lat="43.444256" lon="-3.469593">
        <ele>1.436</ele>
        <time>2019-06-16T14:40:43Z</time>
      </trkpt>
      <trkpt lat="43.444301" lon="-3.469475">
        <ele>1.040</ele>
        <time>2019-06-16T14:40:44Z</time>
      </trkpt>
      <trkpt lat="43.444319" lon="-3.469231">
        <ele>1.330</ele>
        <time>2019-06-16T14:40:45Z</time>
      </trkpt>
      <trkpt lat="43.444346" lon="-3.468997">
        <ele>1.734</ele>
        <time>2019-06-16T14:40:46Z</time>
      </trkpt>
      <trkpt lat="43.444363" lon="-3.468763">
        <ele>2.053</ele>
        <time>2019-06-16T14:40:47Z</time>
      </trkpt>
      <trkpt lat="43.444411" lon="-3.468635">
        <ele>2.073</ele>
        <time>2019-06-16T14:40:48Z</time>
      </trkpt>
      <trkpt lat="43.444425" lon="-3.468413">
        <ele>2.039</ele>
        <time>2019-06-16T14:40:49Z</time>
      </trkpt>
      <trkpt lat="43.444441" lon="-3.468192">
        <ele>2.558</ele>
        <time>2019-06-16T14:40:50Z</time>
      </trkpt>
      <trkpt lat="43.444458" lon="-3.467978">
        <ele>2.922</ele>
        <time>2019-06-16T14:40:51Z</time>
      </trkpt>
      <trkpt lat="43.444450" lon="-3.467822">
        <ele>2.962</ele>
        <time>2019-06-16T14:40:52Z</time>
      </trkpt>
      <trkpt lat="43.444463" lon="-3.467642">
        <ele>3.308</ele>
        <time>2019-06-16T14:40:53Z</time>
      </trkpt>
      <trkpt lat="43.444474" lon="-3.467483">
        <ele>3.608</ele>
        <time>2019-06-16T14:40:54Z</time>
      </trkpt>
      <trkpt lat="43.444478" lon="-3.467293">
        <ele>3.615</ele>
        <time>2019-06-16T14:40:55Z</time>
      </trkpt>
      <trkpt lat="43.444475" lon="-3.467133">
        <ele>3.779</ele>
        <time>2019-06-16T14:40:56Z</time>
      </trkpt>
      <trkpt lat="43.444488" lon="-3.466994">
        <ele>3.719</ele>
        <time>2019-06-16T14:40:57Z</time>
      </trkpt>
      <trkpt lat="43.444502" lon="-3.466855">
        <ele>3.333</ele>
        <time>2019-06-16T14:40:58Z</time>
      </trkpt>
      <trkpt lat="43.444517" lon="-3.466700">
        <ele>2.652</ele>
        <time>2019-06-16T14:40:59Z</time>
      </trkpt>
      <trkpt lat="43.444524" lon="-3.466544">
        <ele>2.472</ele>
        <time>2019-06-16T14:41:00Z</time>
      </trkpt>
      <trkpt lat="43.444548" lon="-3.466381">
        <ele>2.378</ele>
        <time>2019-06-16T14:41:01Z</time>
      </trkpt>
      <trkpt lat="43.444558" lon="-3.466203">
        <ele>2.237</ele>
        <time>2019-06-16T14:41:02Z</time>
      </trkpt>
      <trkpt lat="43.444580" lon="-3.466043">
        <ele>2.399</ele>
        <time>2019-06-16T14:41:03Z</time>
      </trkpt>
      <trkpt lat="43.444604" lon="-3.465857">
        <ele>2.907</ele>
        <time>2019-06-16T14:41:04Z</time>
      </trkpt>
      <trkpt lat="43.444617" lon="-3.465672">
        <ele>2.027</ele>
        <time>2019-06-16T14:41:05Z</time>
      </trkpt>
      <trkpt lat="43.444629" lon="-3.465499">
        <ele>1.508</ele>
        <time>2019-06-16T14:41:06Z</time>
      </trkpt>
      <trkpt lat="43.444651" lon="-3.465357">
        <ele>2.092</ele>
        <time>2019-06-16T14:41:07Z</time>
      </trkpt>
      <trkpt lat="43.444679" lon="-3.465190">
        <ele>2.546</ele>
        <time>2019-06-16T14:41:08Z</time>
      </trkpt>
      <trkpt lat="43.444686" lon="-3.465021">
        <ele>2.696</ele>
        <time>2019-06-16T14:41:09Z</time>
      </trkpt>
      <trkpt lat="43.444695" lon="-3.464839">
        <ele>3.230</ele>
        <time>2019-06-16T14:41:10Z</time>
      </trkpt>
      <trkpt lat="43.444712" lon="-3.464678">
        <ele>4.069</ele>
        <time>2019-06-16T14:41:11Z</time>
      </trkpt>
      <trkpt lat="43.444718" lon="-3.464493">
        <ele>4.819</ele>
        <time>2019-06-16T14:41:12Z</time>
      </trkpt>
      <trkpt lat="43.444725" lon="-3.464333">
        <ele>5.025</ele>
        <time>2019-06-16T14:41:13Z</time>
      </trkpt>
      <trkpt lat="43.444733" lon="-3.464149">
        <ele>4.784</ele>
        <time>2019-06-16T14:41:14Z</time>
      </trkpt>
      <trkpt lat="43.444736" lon="-3.463953">
        <ele>4.017</ele>
        <time>2019-06-16T14:41:15Z</time>
      </trkpt>
      <trkpt lat="43.444741" lon="-3.463765">
        <ele>3.887</ele>
        <time>2019-06-16T14:41:16Z</time>
      </trkpt>
      <trkpt lat="43.444752" lon="-3.463582">
        <ele>3.815</ele>
        <time>2019-06-16T14:41:17Z</time>
      </trkpt>
      <trkpt lat="43.444765" lon="-3.463401">
        <ele>3.708</ele>
        <time>2019-06-16T14:41:18Z</time>
      </trkpt>
      <trkpt lat="43.444782" lon="-3.463250">
        <ele>3.654</ele>
        <time>2019-06-16T14:41:19Z</time>
      </trkpt>
      <trkpt lat="43.444791" lon="-3.463086">
        <ele>3.538</ele>
        <time>2019-06-16T14:41:20Z</time>
      </trkpt>
      <trkpt lat="43.444790" lon="-3.462923">
        <ele>3.258</ele>
        <time>2019-06-16T14:41:21Z</time>
      </trkpt>
      <trkpt lat="43.444804" lon="-3.462774">
        <ele>2.722</ele>
        <time>2019-06-16T14:41:22Z</time>
      </trkpt>
      <trkpt lat="43.444821" lon="-3.462630">
        <ele>3.251</ele>
        <time>2019-06-16T14:41:23Z</time>
      </trkpt>
      <trkpt lat="43.444817" lon="-3.462486">
        <ele>3.681</ele>
        <time>2019-06-16T14:41:24Z</time>
      </trkpt>
      <trkpt lat="43.444821" lon="-3.462350">
        <ele>3.567</ele>
        <time>2019-06-16T14:41:25Z</time>
      </trkpt>
      <trkpt lat="43.444814" lon="-3.462248">
        <ele>3.496</ele>
        <time>2019-06-16T14:41:26Z</time>
      </trkpt>
      <trkpt lat="43.444814" lon="-3.462116">
        <ele>3.389</ele>
        <time>2019-06-16T14:41:27Z</time>
      </trkpt>
      <trkpt lat="43.444801" lon="-3.461966">
        <ele>3.306</ele>
        <time>2019-06-16T14:41:28Z</time>
      </trkpt>
      <trkpt lat="43.444790" lon="-3.461841">
        <ele>3.526</ele>
        <time>2019-06-16T14:41:29Z</time>
      </trkpt>
      <trkpt lat="43.444767" lon="-3.461695">
        <ele>3.908</ele>
        <time>2019-06-16T14:41:30Z</time>
      </trkpt>
      <trkpt lat="43.444738" lon="-3.461534">
        <ele>4.091</ele>
        <time>2019-06-16T14:41:31Z</time>
      </trkpt>
      <trkpt lat="43.444689" lon="-3.461394">
        <ele>3.985</ele>
        <time>2019-06-16T14:41:32Z</time>
      </trkpt>
      <trkpt lat="43.444655" lon="-3.461258">
        <ele>3.865</ele>
        <time>2019-06-16T14:41:33Z</time>
      </trkpt>
      <trkpt lat="43.444609" lon="-3.461156">
        <ele>3.679</ele>
        <time>2019-06-16T14:41:34Z</time>
      </trkpt>
      <trkpt lat="43.444550" lon="-3.461037">
        <ele>3.568</ele>
        <time>2019-06-16T14:41:35Z</time>
      </trkpt>
      <trkpt lat="43.444516" lon="-3.460913">
        <ele>3.898</ele>
        <time>2019-06-16T14:41:36Z</time>
      </trkpt>
      <trkpt lat="43.444471" lon="-3.460818">
        <ele>4.034</ele>
        <time>2019-06-16T14:41:37Z</time>
      </trkpt>
      <trkpt lat="43.444428" lon="-3.460728">
        <ele>3.953</ele>
        <time>2019-06-16T14:41:38Z</time>
      </trkpt>
      <trkpt lat="43.444390" lon="-3.460662">
        <ele>3.867</ele>
        <time>2019-06-16T14:41:39Z</time>
      </trkpt>
      <trkpt lat="43.444353" lon="-3.460601">
        <ele>3.781</ele>
        <time>2019-06-16T14:41:40Z</time>
      </trkpt>
      <trkpt lat="43.444306" lon="-3.460567">
        <ele>3.519</ele>
        <time>2019-06-16T14:41:41Z</time>
      </trkpt>
      <trkpt lat="43.444257" lon="-3.460519">
        <ele>3.408</ele>
        <time>2019-06-16T14:41:42Z</time>
      </trkpt>
      <trkpt lat="43.444209" lon="-3.460480">
        <ele>3.389</ele>
        <time>2019-06-16T14:41:43Z</time>
      </trkpt>
      <trkpt lat="43.444160" lon="-3.460419">
        <ele>3.513</ele>
        <time>2019-06-16T14:41:44Z</time>
      </trkpt>
      <trkpt lat="43.444133" lon="-3.460362">
        <ele>3.663</ele>
        <time>2019-06-16T14:41:45Z</time>
      </trkpt>
      <trkpt lat="43.444104" lon="-3.460300">
        <ele>3.757</ele>
        <time>2019-06-16T14:41:46Z</time>
      </trkpt>
      <trkpt lat="43.444075" lon="-3.460242">
        <ele>3.656</ele>
        <time>2019-06-16T14:41:47Z</time>
      </trkpt>
      <trkpt lat="43.444085" lon="-3.460165">
        <ele>3.486</ele>
        <time>2019-06-16T14:41:48Z</time>
      </trkpt>
      <trkpt lat="43.444096" lon="-3.460062">
        <ele>3.262</ele>
        <time>2019-06-16T14:41:49Z</time>
      </trkpt>
      <trkpt lat="43.444143" lon="-3.459986">
        <ele>3.071</ele>
        <time>2019-06-16T14:41:50Z</time>
      </trkpt>
      <trkpt lat="43.444164" lon="-3.459898">
        <ele>3.473</ele>
        <time>2019-06-16T14:41:51Z</time>
      </trkpt>
      <trkpt lat="43.444186" lon="-3.459765">
        <ele>3.985</ele>
        <time>2019-06-16T14:41:52Z</time>
      </trkpt>
      <trkpt lat="43.444197" lon="-3.459645">
        <ele>4.013</ele>
        <time>2019-06-16T14:41:53Z</time>
      </trkpt>
      <trkpt lat="43.444190" lon="-3.459535">
        <ele>4.008</ele>
        <time>2019-06-16T14:41:54Z</time>
      </trkpt>
      <trkpt lat="43.444197" lon="-3.459414">
        <ele>4.050</ele>
        <time>2019-06-16T14:41:55Z</time>
      </trkpt>
      <trkpt lat="43.444216" lon="-3.459308">
        <ele>4.084</ele>
        <time>2019-06-16T14:41:56Z</time>
      </trkpt>
      <trkpt lat="43.444257" lon="-3.459176">
        <ele>4.054</ele>
        <time>2019-06-16T14:41:57Z</time>
      </trkpt>
      <trkpt lat="43.444261" lon="-3.459054">
        <ele>4.018</ele>
        <time>2019-06-16T14:41:58Z</time>
      </trkpt>
      <trkpt lat="43.444234" lon="-3.458936">
        <ele>4.017</ele>
        <time>2019-06-16T14:41:59Z</time>
      </trkpt>
      <trkpt lat="43.444247" lon="-3.458826">
        <ele>4.117</ele>
        <time>2019-06-16T14:42:00Z</time>
      </trkpt>
      <trkpt lat="43.444290" lon="-3.458710">
        <ele>4.373</ele>
        <time>2019-06-16T14:42:01Z</time>
      </trkpt>
      <trkpt lat="43.444320" lon="-3.458604">
        <ele>4.522</ele>
        <time>2019-06-16T14:42:02Z</time>
      </trkpt>
      <trkpt lat="43.444338" lon="-3.458504">
        <ele>4.469</ele>
        <time>2019-06-16T14:42:03Z</time>
      </trkpt>
      <trkpt lat="43.444357" lon="-3.458407">
        <ele>4.204</ele>
        <time>2019-06-16T14:42:04Z</time>
      </trkpt>
      <trkpt lat="43.444357" lon="-3.458321">
        <ele>4.024</ele>
        <time>2019-06-16T14:42:05Z</time>
      </trkpt>
      <trkpt lat="43.444345" lon="-3.458240">
        <ele>4.008</ele>
        <time>2019-06-16T14:42:06Z</time>
      </trkpt>
      <trkpt lat="43.444333" lon="-3.458121">
        <ele>4.089</ele>
        <time>2019-06-16T14:42:07Z</time>
      </trkpt>
      <trkpt lat="43.444373" lon="-3.458020">
        <ele>4.083</ele>
        <time>2019-06-16T14:42:08Z</time>
      </trkpt>
      <trkpt lat="43.444407" lon="-3.457913">
        <ele>4.043</ele>
        <time>2019-06-16T14:42:09Z</time>
      </trkpt>
      <trkpt lat="43.444414" lon="-3.457823">
        <ele>4.097</ele>
        <time>2019-06-16T14:42:10Z</time>
      </trkpt>
      <trkpt lat="43.444447" lon="-3.457720">
        <ele>4.076</ele>
        <time>2019-06-16T14:42:11Z</time>
      </trkpt>
      <trkpt lat="43.444506" lon="-3.457655">
        <ele>4.086</ele>
        <time>2019-06-16T14:42:12Z</time>
      </trkpt>
      <trkpt lat="43.444469" lon="-3.457519">
        <ele>4.022</ele>
        <time>2019-06-16T14:42:13Z</time>
      </trkpt>
      <trkpt lat="43.444474" lon="-3.457404">
        <ele>4.311</ele>
        <time>2019-06-16T14:42:14Z</time>
      </trkpt>
      <trkpt lat="43.444488" lon="-3.457297">
        <ele>4.768</ele>
        <time>2019-06-16T14:42:15Z</time>
      </trkpt>
      <trkpt lat="43.444496" lon="-3.457189">
        <ele>5.042</ele>
        <time>2019-06-16T14:42:16Z</time>
      </trkpt>
      <trkpt lat="43.444498" lon="-3.457094">
        <ele>4.926</ele>
        <time>2019-06-16T14:42:17Z</time>
      </trkpt>
      <trkpt lat="43.444491" lon="-3.456992">
        <ele>4.908</ele>
        <time>2019-06-16T14:42:18Z</time>
      </trkpt>
      <trkpt lat="43.444515" lon="-3.456870">
        <ele>4.529</ele>
        <time>2019-06-16T14:42:19Z</time>
      </trkpt>
      <trkpt lat="43.444517" lon="-3.456765">
        <ele>4.313</ele>
        <time>2019-06-16T14:42:20Z</time>
      </trkpt>
      <trkpt lat="43.444515" lon="-3.456665">
        <ele>4.013</ele>
        <time>2019-06-16T14:42:21Z</time>
      </trkpt>
      <trkpt lat="43.444513" lon="-3.456575">
        <ele>4.077</ele>
        <time>2019-06-16T14:42:22Z</time>
      </trkpt>
      <trkpt lat="43.444513" lon="-3.456478">
        <ele>4.056</ele>
        <time>2019-06-16T14:42:23Z</time>
      </trkpt>
      <trkpt lat="43.444504" lon="-3.456371">
        <ele>4.096</ele>
        <time>2019-06-16T14:42:24Z</time>
      </trkpt>
      <trkpt lat="43.444501" lon="-3.456267">
        <ele>4.042</ele>
        <time>2019-06-16T14:42:25Z</time>
      </trkpt>
      <trkpt lat="43.444498" lon="-3.456185">
        <ele>4.041</ele>
        <time>2019-06-16T14:42:26Z</time>
      </trkpt>
      <trkpt lat="43.444489" lon="-3.456093">
        <ele>4.085</ele>
        <time>2019-06-16T14:42:27Z</time>
      </trkpt>
      <trkpt lat="43.444493" lon="-3.456026">
        <ele>4.089</ele>
        <time>2019-06-16T14:42:28Z</time>
      </trkpt>
      <trkpt lat="43.444468" lon="-3.455890">
        <ele>4.017</ele>
        <time>2019-06-16T14:42:30Z</time>
      </trkpt>
      <trkpt lat="43.444484" lon="-3.455818">
        <ele>4.008</ele>
        <time>2019-06-16T14:42:33Z</time>
      </trkpt>
      <trkpt lat="43.444425" lon="-3.455784">
        <ele>4.091</ele>
        <time>2019-06-16T14:42:35Z</time>
      </trkpt>
      <trkpt lat="43.444346" lon="-3.455758">
        <ele>4.095</ele>
        <time>2019-06-16T14:42:37Z</time>
      </trkpt>
      <trkpt lat="43.444269" lon="-3.455746">
        <ele>4.055</ele>
        <time>2019-06-16T14:42:39Z</time>
      </trkpt>
      <trkpt lat="43.444224" lon="-3.455743">
        <ele>4.029</ele>
        <time>2019-06-16T14:42:40Z</time>
      </trkpt>
      <trkpt lat="43.444174" lon="-3.455743">
        <ele>4.088</ele>
        <time>2019-06-16T14:42:41Z</time>
      </trkpt>
      <trkpt lat="43.444099" lon="-3.455741">
        <ele>4.088</ele>
        <time>2019-06-16T14:42:43Z</time>
      </trkpt>
      <trkpt lat="43.444038" lon="-3.455747">
        <ele>4.074</ele>
        <time>2019-06-16T14:42:45Z</time>
      </trkpt>
      <trkpt lat="43.443985" lon="-3.455723">
        <ele>4.013</ele>
        <time>2019-06-16T14:42:47Z</time>
      </trkpt>
      <trkpt lat="43.443960" lon="-3.455647">
        <ele>4.092</ele>
        <time>2019-06-16T14:42:49Z</time>
      </trkpt>
      <trkpt lat="43.443958" lon="-3.455542">
        <ele>4.073</ele>
        <time>2019-06-16T14:42:51Z</time>
      </trkpt>
      <trkpt lat="43.443939" lon="-3.455432">
        <ele>4.020</ele>
        <time>2019-06-16T14:42:53Z</time>
      </trkpt>
      <trkpt lat="43.443934" lon="-3.455314">
        <ele>4.008</ele>
        <time>2019-06-16T14:42:55Z</time>
      </trkpt>
      <trkpt lat="43.443926" lon="-3.455199">
        <ele>4.082</ele>
        <time>2019-06-16T14:42:57Z</time>
      </trkpt>
      <trkpt lat="43.443937" lon="-3.455139">
        <ele>4.036</ele>
        <time>2019-06-16T14:43:00Z</time>
      </trkpt>
      <trkpt lat="43.443957" lon="-3.455025">
        <ele>4.076</ele>
        <time>2019-06-16T14:43:02Z</time>
      </trkpt>
      <trkpt lat="43.443965" lon="-3.454956">
        <ele>4.040</ele>
        <time>2019-06-16T14:43:03Z</time>
      </trkpt>
      <trkpt lat="43.443983" lon="-3.454872">
        <ele>4.019</ele>
        <time>2019-06-16T14:43:04Z</time>
      </trkpt>
      <trkpt lat="43.444003" lon="-3.454800">
        <ele>4.069</ele>
        <time>2019-06-16T14:43:05Z</time>
      </trkpt>
      <trkpt lat="43.444025" lon="-3.454741">
        <ele>4.015</ele>
        <time>2019-06-16T14:43:06Z</time>
      </trkpt>
      <trkpt lat="43.443991" lon="-3.454669">
        <ele>4.094</ele>
        <time>2019-06-16T14:43:07Z</time>
      </trkpt>
      <trkpt lat="43.443972" lon="-3.454604">
        <ele>4.079</ele>
        <time>2019-06-16T14:43:08Z</time>
      </trkpt>
      <trkpt lat="43.443974" lon="-3.454528">
        <ele>4.005</ele>
        <time>2019-06-16T14:43:09Z</time>
      </trkpt>
      <trkpt lat="43.443978" lon="-3.454464">
        <ele>4.025</ele>
        <time>2019-06-16T14:43:10Z</time>
      </trkpt>
      <trkpt lat="43.443970" lon="-3.454343">
        <ele>4.008</ele>
        <time>2019-06-16T14:43:12Z</time>
      </trkpt>
      <trkpt lat="43.443980" lon="-3.454272">
        <ele>4.070</ele>
        <time>2019-06-16T14:43:13Z</time>
      </trkpt>
      <trkpt lat="43.443985" lon="-3.454202">
        <ele>4.024</ele>
        <time>2019-06-16T14:43:14Z</time>
      </trkpt>
      <trkpt lat="43.443986" lon="-3.454131">
        <ele>4.014</ele>
        <time>2019-06-16T14:43:15Z</time>
      </trkpt>
      <trkpt lat="43.443981" lon="-3.454048">
        <ele>4.098</ele>
        <time>2019-06-16T14:43:16Z</time>
      </trkpt>
      <trkpt lat="43.443978" lon="-3.453963">
        <ele>4.037</ele>
        <time>2019-06-16T14:43:17Z</time>
      </trkpt>
      <trkpt lat="43.443981" lon="-3.453874">
        <ele>4.047</ele>
        <time>2019-06-16T14:43:18Z</time>
      </trkpt>
      <trkpt lat="43.443981" lon="-3.453811">
        <ele>4.063</ele>
        <time>2019-06-16T14:43:19Z</time>
      </trkpt>
      <trkpt lat="43.443979" lon="-3.453700">
        <ele>4.042</ele>
        <time>2019-06-16T14:43:21Z</time>
      </trkpt>
      <trkpt lat="43.443971" lon="-3.453590">
        <ele>4.049</ele>
        <time>2019-06-16T14:43:23Z</time>
      </trkpt>
      <trkpt lat="43.443942" lon="-3.453472">
        <ele>4.002</ele>
        <time>2019-06-16T14:43:25Z</time>
      </trkpt>
      <trkpt lat="43.443893" lon="-3.453383">
        <ele>4.022</ele>
        <time>2019-06-16T14:43:27Z</time>
      </trkpt>
      <trkpt lat="43.443846" lon="-3.453344">
        <ele>4.008</ele>
        <time>2019-06-16T14:43:28Z</time>
      </trkpt>
      <trkpt lat="43.443791" lon="-3.453306">
        <ele>4.047</ele>
        <time>2019-06-16T14:43:29Z</time>
      </trkpt>
      <trkpt lat="43.443741" lon="-3.453274">
        <ele>4.091</ele>
        <time>2019-06-16T14:43:30Z</time>
      </trkpt>
      <trkpt lat="43.443694" lon="-3.453241">
        <ele>4.031</ele>
        <time>2019-06-16T14:43:31Z</time>
      </trkpt>
      <trkpt lat="43.443637" lon="-3.453203">
        <ele>4.075</ele>
        <time>2019-06-16T14:43:32Z</time>
      </trkpt>
      <trkpt lat="43.443585" lon="-3.453169">
        <ele>4.014</ele>
        <time>2019-06-16T14:43:33Z</time>
      </trkpt>
      <trkpt lat="43.443488" lon="-3.453144">
        <ele>4.074</ele>
        <time>2019-06-16T14:43:34Z</time>
      </trkpt>
      <trkpt lat="43.443415" lon="-3.453110">
        <ele>4.040</ele>
        <time>2019-06-16T14:43:35Z</time>
      </trkpt>
      <trkpt lat="43.443320" lon="-3.453008">
        <ele>4.099</ele>
        <time>2019-06-16T14:43:36Z</time>
      </trkpt>
      <trkpt lat="43.443243" lon="-3.452988">
        <ele>4.032</ele>
        <time>2019-06-16T14:43:37Z</time>
      </trkpt>
      <trkpt lat="43.443159" lon="-3.452920">
        <ele>4.092</ele>
        <time>2019-06-16T14:43:38Z</time>
      </trkpt>
      <trkpt lat="43.443055" lon="-3.452877">
        <ele>4.011</ele>
        <time>2019-06-16T14:43:39Z</time>
      </trkpt>
      <trkpt lat="43.442957" lon="-3.452826">
        <ele>3.908</ele>
        <time>2019-06-16T14:43:40Z</time>
      </trkpt>
      <trkpt lat="43.442864" lon="-3.452779">
        <ele>4.056</ele>
        <time>2019-06-16T14:43:41Z</time>
      </trkpt>
      <trkpt lat="43.442764" lon="-3.452726">
        <ele>4.080</ele>
        <time>2019-06-16T14:43:42Z</time>
      </trkpt>
      <trkpt lat="43.442675" lon="-3.452682">
        <ele>4.070</ele>
        <time>2019-06-16T14:43:43Z</time>
      </trkpt>
      <trkpt lat="43.442572" lon="-3.452629">
        <ele>4.064</ele>
        <time>2019-06-16T14:43:44Z</time>
      </trkpt>
      <trkpt lat="43.442469" lon="-3.452564">
        <ele>4.043</ele>
        <time>2019-06-16T14:43:45Z</time>
      </trkpt>
      <trkpt lat="43.442352" lon="-3.452530">
        <ele>4.023</ele>
        <time>2019-06-16T14:43:46Z</time>
      </trkpt>
      <trkpt lat="43.442268" lon="-3.452462">
        <ele>4.019</ele>
        <time>2019-06-16T14:43:47Z</time>
      </trkpt>
      <trkpt lat="43.442209" lon="-3.452401">
        <ele>4.058</ele>
        <time>2019-06-16T14:43:48Z</time>
      </trkpt>
      <trkpt lat="43.442117" lon="-3.452340">
        <ele>4.066</ele>
        <time>2019-06-16T14:43:49Z</time>
      </trkpt>
      <trkpt lat="43.442019" lon="-3.452287">
        <ele>4.029</ele>
        <time>2019-06-16T14:43:50Z</time>
      </trkpt>
      <trkpt lat="43.441923" lon="-3.452256">
        <ele>4.021</ele>
        <time>2019-06-16T14:43:51Z</time>
      </trkpt>
      <trkpt lat="43.441836" lon="-3.452211">
        <ele>4.008</ele>
        <time>2019-06-16T14:43:52Z</time>
      </trkpt>
      <trkpt lat="43.441751" lon="-3.452184">
        <ele>4.059</ele>
        <time>2019-06-16T14:43:53Z</time>
      </trkpt>
      <trkpt lat="43.441648" lon="-3.452164">
        <ele>4.073</ele>
        <time>2019-06-16T14:43:54Z</time>
      </trkpt>
      <trkpt lat="43.441541" lon="-3.452137">
        <ele>4.053</ele>
        <time>2019-06-16T14:43:55Z</time>
      </trkpt>
      <trkpt lat="43.441429" lon="-3.452116">
        <ele>4.097</ele>
        <time>2019-06-16T14:43:56Z</time>
      </trkpt>
      <trkpt lat="43.441314" lon="-3.452095">
        <ele>4.066</ele>
        <time>2019-06-16T14:43:57Z</time>
      </trkpt>
      <trkpt lat="43.441207" lon="-3.452084">
        <ele>4.086</ele>
        <time>2019-06-16T14:43:58Z</time>
      </trkpt>
      <trkpt lat="43.441106" lon="-3.452067">
        <ele>4.052</ele>
        <time>2019-06-16T14:43:59Z</time>
      </trkpt>
      <trkpt lat="43.441012" lon="-3.452054">
        <ele>4.021</ele>
        <time>2019-06-16T14:44:00Z</time>
      </trkpt>
      <trkpt lat="43.440926" lon="-3.452047">
        <ele>4.084</ele>
        <time>2019-06-16T14:44:01Z</time>
      </trkpt>
      <trkpt lat="43.440845" lon="-3.452047">
        <ele>4.007</ele>
        <time>2019-06-16T14:44:02Z</time>
      </trkpt>
      <trkpt lat="43.440778" lon="-3.452025">
        <ele>4.117</ele>
        <time>2019-06-16T14:44:03Z</time>
      </trkpt>
      <trkpt lat="43.440687" lon="-3.452015">
        <ele>4.108</ele>
        <time>2019-06-16T14:44:05Z</time>
      </trkpt>
      <trkpt lat="43.440674" lon="-3.451948">
        <ele>4.091</ele>
        <time>2019-06-16T14:44:06Z</time>
      </trkpt>
      <trkpt lat="43.440655" lon="-3.451883">
        <ele>4.045</ele>
        <time>2019-06-16T14:44:07Z</time>
      </trkpt>
      <trkpt lat="43.440681" lon="-3.451813">
        <ele>4.045</ele>
        <time>2019-06-16T14:44:08Z</time>
      </trkpt>
      <trkpt lat="43.440681" lon="-3.451713">
        <ele>4.029</ele>
        <time>2019-06-16T14:44:09Z</time>
      </trkpt>
      <trkpt lat="43.440683" lon="-3.451599">
        <ele>4.078</ele>
        <time>2019-06-16T14:44:10Z</time>
      </trkpt>
      <trkpt lat="43.440698" lon="-3.451487">
        <ele>4.068</ele>
        <time>2019-06-16T14:44:11Z</time>
      </trkpt>
      <trkpt lat="43.440698" lon="-3.451356">
        <ele>4.024</ele>
        <time>2019-06-16T14:44:12Z</time>
      </trkpt>
      <trkpt lat="43.440696" lon="-3.451229">
        <ele>4.073</ele>
        <time>2019-06-16T14:44:13Z</time>
      </trkpt>
      <trkpt lat="43.440685" lon="-3.451103">
        <ele>4.065</ele>
        <time>2019-06-16T14:44:14Z</time>
      </trkpt>
      <trkpt lat="43.440691" lon="-3.451004">
        <ele>4.068</ele>
        <time>2019-06-16T14:44:15Z</time>
      </trkpt>
      <trkpt lat="43.440687" lon="-3.450936">
        <ele>4.014</ele>
        <time>2019-06-16T14:44:16Z</time>
      </trkpt>
      <trkpt lat="43.440670" lon="-3.450841">
        <ele>4.008</ele>
        <time>2019-06-16T14:44:18Z</time>
      </trkpt>
      <trkpt lat="43.440650" lon="-3.450767">
        <ele>3.879</ele>
        <time>2019-06-16T14:44:20Z</time>
      </trkpt>
      <trkpt lat="43.440637" lon="-3.450624">
        <ele>3.243</ele>
        <time>2019-06-16T14:44:21Z</time>
      </trkpt>
      <trkpt lat="43.440621" lon="-3.450497">
        <ele>3.283</ele>
        <time>2019-06-16T14:44:22Z</time>
      </trkpt>
      <trkpt lat="43.440609" lon="-3.450369">
        <ele>3.567</ele>
        <time>2019-06-16T14:44:23Z</time>
      </trkpt>
      <trkpt lat="43.440593" lon="-3.450236">
        <ele>3.976</ele>
        <time>2019-06-16T14:44:24Z</time>
      </trkpt>
      <trkpt lat="43.440606" lon="-3.450074">
        <ele>4.066</ele>
        <time>2019-06-16T14:44:25Z</time>
      </trkpt>
      <trkpt lat="43.440596" lon="-3.449930">
        <ele>4.082</ele>
        <time>2019-06-16T14:44:26Z</time>
      </trkpt>
      <trkpt lat="43.440576" lon="-3.449776">
        <ele>4.041</ele>
        <time>2019-06-16T14:44:27Z</time>
      </trkpt>
      <trkpt lat="43.440560" lon="-3.449615">
        <ele>4.031</ele>
        <time>2019-06-16T14:44:28Z</time>
      </trkpt>
      <trkpt lat="43.440544" lon="-3.449459">
        <ele>4.061</ele>
        <time>2019-06-16T14:44:29Z</time>
      </trkpt>
      <trkpt lat="43.440539" lon="-3.449303">
        <ele>4.007</ele>
        <time>2019-06-16T14:44:30Z</time>
      </trkpt>
      <trkpt lat="43.440523" lon="-3.449158">
        <ele>3.908</ele>
        <time>2019-06-16T14:44:31Z</time>
      </trkpt>
      <trkpt lat="43.440511" lon="-3.449025">
        <ele>3.826</ele>
        <time>2019-06-16T14:44:32Z</time>
      </trkpt>
      <trkpt lat="43.440508" lon="-3.448895">
        <ele>3.820</ele>
        <time>2019-06-16T14:44:33Z</time>
      </trkpt>
      <trkpt lat="43.440497" lon="-3.448776">
        <ele>3.830</ele>
        <time>2019-06-16T14:44:34Z</time>
      </trkpt>
      <trkpt lat="43.440497" lon="-3.448667">
        <ele>3.814</ele>
        <time>2019-06-16T14:44:35Z</time>
      </trkpt>
      <trkpt lat="43.440509" lon="-3.448561">
        <ele>4.053</ele>
        <time>2019-06-16T14:44:36Z</time>
      </trkpt>
      <trkpt lat="43.440555" lon="-3.448496">
        <ele>4.483</ele>
        <time>2019-06-16T14:44:37Z</time>
      </trkpt>
      <trkpt lat="43.440590" lon="-3.448414">
        <ele>4.519</ele>
        <time>2019-06-16T14:44:38Z</time>
      </trkpt>
      <trkpt lat="43.440586" lon="-3.448316">
        <ele>5.038</ele>
        <time>2019-06-16T14:44:39Z</time>
      </trkpt>
      <trkpt lat="43.440585" lon="-3.448212">
        <ele>6.148</ele>
        <time>2019-06-16T14:44:40Z</time>
      </trkpt>
      <trkpt lat="43.440542" lon="-3.448054">
        <ele>7.961</ele>
        <time>2019-06-16T14:44:42Z</time>
      </trkpt>
      <trkpt lat="43.440510" lon="-3.447930">
        <ele>11.617</ele>
        <time>2019-06-16T14:44:43Z</time>
      </trkpt>
      <trkpt lat="43.440465" lon="-3.447797">
        <ele>14.208</ele>
        <time>2019-06-16T14:44:44Z</time>
      </trkpt>
      <trkpt lat="43.440417" lon="-3.447680">
        <ele>16.047</ele>
        <time>2019-06-16T14:44:45Z</time>
      </trkpt>
      <trkpt lat="43.440361" lon="-3.447585">
        <ele>16.621</ele>
        <time>2019-06-16T14:44:46Z</time>
      </trkpt>
      <trkpt lat="43.440319" lon="-3.447501">
        <ele>17.211</ele>
        <time>2019-06-16T14:44:47Z</time>
      </trkpt>
      <trkpt lat="43.440259" lon="-3.447422">
        <ele>18.645</ele>
        <time>2019-06-16T14:44:48Z</time>
      </trkpt>
      <trkpt lat="43.440167" lon="-3.447369">
        <ele>19.454</ele>
        <time>2019-06-16T14:44:49Z</time>
      </trkpt>
      <trkpt lat="43.440091" lon="-3.447314">
        <ele>20.374</ele>
        <time>2019-06-16T14:44:50Z</time>
      </trkpt>
      <trkpt lat="43.440023" lon="-3.447252">
        <ele>21.440</ele>
        <time>2019-06-16T14:44:51Z</time>
      </trkpt>
      <trkpt lat="43.439964" lon="-3.447230">
        <ele>21.869</ele>
        <time>2019-06-16T14:44:52Z</time>
      </trkpt>
      <trkpt lat="43.439884" lon="-3.447222">
        <ele>22.425</ele>
        <time>2019-06-16T14:44:53Z</time>
      </trkpt>
      <trkpt lat="43.439815" lon="-3.447217">
        <ele>22.826</ele>
        <time>2019-06-16T14:44:54Z</time>
      </trkpt>
      <trkpt lat="43.439735" lon="-3.447220">
        <ele>23.008</ele>
        <time>2019-06-16T14:44:55Z</time>
      </trkpt>
      <trkpt lat="43.439656" lon="-3.447226">
        <ele>22.408</ele>
        <time>2019-06-16T14:44:56Z</time>
      </trkpt>
      <trkpt lat="43.439608" lon="-3.447223">
        <ele>22.125</ele>
        <time>2019-06-16T14:44:57Z</time>
      </trkpt>
      <trkpt lat="43.439561" lon="-3.447178">
        <ele>22.879</ele>
        <time>2019-06-16T14:44:59Z</time>
      </trkpt>
      <trkpt lat="43.439575" lon="-3.447115">
        <ele>24.419</ele>
        <time>2019-06-16T14:45:04Z</time>
      </trkpt>
      <trkpt lat="43.439544" lon="-3.447030">
        <ele>25.723</ele>
        <time>2019-06-16T14:45:06Z</time>
      </trkpt>
      <trkpt lat="43.439517" lon="-3.446945">
        <ele>26.882</ele>
        <time>2019-06-16T14:45:07Z</time>
      </trkpt>
      <trkpt lat="43.439497" lon="-3.446853">
        <ele>27.552</ele>
        <time>2019-06-16T14:45:08Z</time>
      </trkpt>
      <trkpt lat="43.439469" lon="-3.446753">
        <ele>27.988</ele>
        <time>2019-06-16T14:45:09Z</time>
      </trkpt>
      <trkpt lat="43.439449" lon="-3.446629">
        <ele>28.237</ele>
        <time>2019-06-16T14:45:10Z</time>
      </trkpt>
      <trkpt lat="43.439424" lon="-3.446518">
        <ele>26.895</ele>
        <time>2019-06-16T14:45:11Z</time>
      </trkpt>
      <trkpt lat="43.439412" lon="-3.446390">
        <ele>26.249</ele>
        <time>2019-06-16T14:45:12Z</time>
      </trkpt>
      <trkpt lat="43.439423" lon="-3.446300">
        <ele>27.523</ele>
        <time>2019-06-16T14:45:13Z</time>
      </trkpt>
      <trkpt lat="43.439437" lon="-3.446179">
        <ele>29.108</ele>
        <time>2019-06-16T14:45:14Z</time>
      </trkpt>
      <trkpt lat="43.439432" lon="-3.446058">
        <ele>29.742</ele>
        <time>2019-06-16T14:45:15Z</time>
      </trkpt>
      <trkpt lat="43.439436" lon="-3.445921">
        <ele>30.916</ele>
        <time>2019-06-16T14:45:16Z</time>
      </trkpt>
      <trkpt lat="43.439422" lon="-3.445781">
        <ele>31.276</ele>
        <time>2019-06-16T14:45:17Z</time>
      </trkpt>
      <trkpt lat="43.439425" lon="-3.445651">
        <ele>32.340</ele>
        <time>2019-06-16T14:45:18Z</time>
      </trkpt>
      <trkpt lat="43.439428" lon="-3.445533">
        <ele>32.749</ele>
        <time>2019-06-16T14:45:19Z</time>
      </trkpt>
      <trkpt lat="43.439436" lon="-3.445429">
        <ele>31.419</ele>
        <time>2019-06-16T14:45:20Z</time>
      </trkpt>
      <trkpt lat="43.439442" lon="-3.445344">
        <ele>30.195</ele>
        <time>2019-06-16T14:45:21Z</time>
      </trkpt>
      <trkpt lat="43.439454" lon="-3.445264">
        <ele>29.794</ele>
        <time>2019-06-16T14:45:22Z</time>
      </trkpt>
      <trkpt lat="43.439456" lon="-3.445176">
        <ele>30.791</ele>
        <time>2019-06-16T14:45:23Z</time>
      </trkpt>
      <trkpt lat="43.439465" lon="-3.445092">
        <ele>32.081</ele>
        <time>2019-06-16T14:45:24Z</time>
      </trkpt>
      <trkpt lat="43.439454" lon="-3.445005">
        <ele>32.419</ele>
        <time>2019-06-16T14:45:25Z</time>
      </trkpt>
      <trkpt lat="43.439439" lon="-3.444939">
        <ele>32.208</ele>
        <time>2019-06-16T14:45:26Z</time>
      </trkpt>
      <trkpt lat="43.439407" lon="-3.444884">
        <ele>31.422</ele>
        <time>2019-06-16T14:45:27Z</time>
      </trkpt>
      <trkpt lat="43.439372" lon="-3.444827">
        <ele>30.276</ele>
        <time>2019-06-16T14:45:28Z</time>
      </trkpt>
      <trkpt lat="43.439333" lon="-3.444741">
        <ele>28.896</ele>
        <time>2019-06-16T14:45:29Z</time>
      </trkpt>
      <trkpt lat="43.439288" lon="-3.444636">
        <ele>27.890</ele>
        <time>2019-06-16T14:45:30Z</time>
      </trkpt>
      <trkpt lat="43.439240" lon="-3.444528">
        <ele>27.049</ele>
        <time>2019-06-16T14:45:31Z</time>
      </trkpt>
      <trkpt lat="43.439192" lon="-3.444426">
        <ele>26.239</ele>
        <time>2019-06-16T14:45:32Z</time>
      </trkpt>
      <trkpt lat="43.439136" lon="-3.444286">
        <ele>24.545</ele>
        <time>2019-06-16T14:45:33Z</time>
      </trkpt>
      <trkpt lat="43.439091" lon="-3.444187">
        <ele>22.864</ele>
        <time>2019-06-16T14:45:34Z</time>
      </trkpt>
      <trkpt lat="43.439047" lon="-3.444077">
        <ele>21.631</ele>
        <time>2019-06-16T14:45:35Z</time>
      </trkpt>
      <trkpt lat="43.439007" lon="-3.443963">
        <ele>21.261</ele>
        <time>2019-06-16T14:45:36Z</time>
      </trkpt>
      <trkpt lat="43.438954" lon="-3.443800">
        <ele>21.607</ele>
        <time>2019-06-16T14:45:37Z</time>
      </trkpt>
      <trkpt lat="43.438913" lon="-3.443655">
        <ele>22.208</ele>
        <time>2019-06-16T14:45:38Z</time>
      </trkpt>
      <trkpt lat="43.438881" lon="-3.443513">
        <ele>22.256</ele>
        <time>2019-06-16T14:45:39Z</time>
      </trkpt>
      <trkpt lat="43.438849" lon="-3.443383">
        <ele>21.360</ele>
        <time>2019-06-16T14:45:40Z</time>
      </trkpt>
      <trkpt lat="43.438822" lon="-3.443284">
        <ele>21.220</ele>
        <time>2019-06-16T14:45:41Z</time>
      </trkpt>
      <trkpt lat="43.438796" lon="-3.443205">
        <ele>21.924</ele>
        <time>2019-06-16T14:45:42Z</time>
      </trkpt>
      <trkpt lat="43.438759" lon="-3.443143">
        <ele>22.113</ele>
        <time>2019-06-16T14:45:43Z</time>
      </trkpt>
      <trkpt lat="43.438722" lon="-3.443061">
        <ele>23.673</ele>
        <time>2019-06-16T14:45:45Z</time>
      </trkpt>
      <trkpt lat="43.438653" lon="-3.442968">
        <ele>24.069</ele>
        <time>2019-06-16T14:45:47Z</time>
      </trkpt>
      <trkpt lat="43.438614" lon="-3.442905">
        <ele>23.878</ele>
        <time>2019-06-16T14:45:48Z</time>
      </trkpt>
      <trkpt lat="43.438581" lon="-3.442842">
        <ele>23.362</ele>
        <time>2019-06-16T14:45:49Z</time>
      </trkpt>
      <trkpt lat="43.438587" lon="-3.442759">
        <ele>25.383</ele>
        <time>2019-06-16T14:45:50Z</time>
      </trkpt>
      <trkpt lat="43.438592" lon="-3.442664">
        <ele>28.811</ele>
        <time>2019-06-16T14:45:51Z</time>
      </trkpt>
      <trkpt lat="43.438594" lon="-3.442572">
        <ele>32.108</ele>
        <time>2019-06-16T14:45:52Z</time>
      </trkpt>
      <trkpt lat="43.438582" lon="-3.442482">
        <ele>33.719</ele>
        <time>2019-06-16T14:45:53Z</time>
      </trkpt>
      <trkpt lat="43.438570" lon="-3.442361">
        <ele>34.123</ele>
        <time>2019-06-16T14:45:54Z</time>
      </trkpt>
      <trkpt lat="43.438550" lon="-3.442248">
        <ele>33.483</ele>
        <time>2019-06-16T14:45:55Z</time>
      </trkpt>
      <trkpt lat="43.438540" lon="-3.442134">
        <ele>34.097</ele>
        <time>2019-06-16T14:45:56Z</time>
      </trkpt>
      <trkpt lat="43.438536" lon="-3.442043">
        <ele>35.066</ele>
        <time>2019-06-16T14:45:57Z</time>
      </trkpt>
      <trkpt lat="43.438527" lon="-3.441935">
        <ele>36.266</ele>
        <time>2019-06-16T14:45:58Z</time>
      </trkpt>
      <trkpt lat="43.438481" lon="-3.441858">
        <ele>35.652</ele>
        <time>2019-06-16T14:45:59Z</time>
      </trkpt>
      <trkpt lat="43.438429" lon="-3.441750">
        <ele>36.351</ele>
        <time>2019-06-16T14:46:00Z</time>
      </trkpt>
      <trkpt lat="43.438368" lon="-3.441673">
        <ele>34.489</ele>
        <time>2019-06-16T14:46:01Z</time>
      </trkpt>
      <trkpt lat="43.438305" lon="-3.441619">
        <ele>33.606</ele>
        <time>2019-06-16T14:46:02Z</time>
      </trkpt>
      <trkpt lat="43.438246" lon="-3.441576">
        <ele>34.226</ele>
        <time>2019-06-16T14:46:03Z</time>
      </trkpt>
      <trkpt lat="43.438174" lon="-3.441531">
        <ele>34.008</ele>
        <time>2019-06-16T14:46:04Z</time>
      </trkpt>
      <trkpt lat="43.438101" lon="-3.441510">
        <ele>31.811</ele>
        <time>2019-06-16T14:46:05Z</time>
      </trkpt>
      <trkpt lat="43.438044" lon="-3.441482">
        <ele>31.015</ele>
        <time>2019-06-16T14:46:06Z</time>
      </trkpt>
      <trkpt lat="43.438000" lon="-3.441457">
        <ele>31.115</ele>
        <time>2019-06-16T14:46:07Z</time>
      </trkpt>
      <trkpt lat="43.437929" lon="-3.441436">
        <ele>29.799</ele>
        <time>2019-06-16T14:46:09Z</time>
      </trkpt>
      <trkpt lat="43.437887" lon="-3.441409">
        <ele>29.168</ele>
        <time>2019-06-16T14:46:12Z</time>
      </trkpt>
      <trkpt lat="43.437854" lon="-3.441291">
        <ele>29.238</ele>
        <time>2019-06-16T14:46:14Z</time>
      </trkpt>
      <trkpt lat="43.437848" lon="-3.441184">
        <ele>29.734</ele>
        <time>2019-06-16T14:46:15Z</time>
      </trkpt>
      <trkpt lat="43.437838" lon="-3.441073">
        <ele>29.573</ele>
        <time>2019-06-16T14:46:16Z</time>
      </trkpt>
      <trkpt lat="43.437840" lon="-3.440952">
        <ele>29.438</ele>
        <time>2019-06-16T14:46:17Z</time>
      </trkpt>
      <trkpt lat="43.437836" lon="-3.440846">
        <ele>28.870</ele>
        <time>2019-06-16T14:46:18Z</time>
      </trkpt>
      <trkpt lat="43.437837" lon="-3.440743">
        <ele>29.417</ele>
        <time>2019-06-16T14:46:19Z</time>
      </trkpt>
      <trkpt lat="43.437839" lon="-3.440652">
        <ele>30.008</ele>
        <time>2019-06-16T14:46:20Z</time>
      </trkpt>
      <trkpt lat="43.437821" lon="-3.440526">
        <ele>29.796</ele>
        <time>2019-06-16T14:46:22Z</time>
      </trkpt>
      <trkpt lat="43.437785" lon="-3.440486">
        <ele>27.680</ele>
        <time>2019-06-16T14:46:24Z</time>
      </trkpt>
      <trkpt lat="43.437843" lon="-3.440511">
        <ele>32.010</ele>
        <time>2019-06-16T14:46:29Z</time>
      </trkpt>
      <trkpt lat="43.437863" lon="-3.440585">
        <ele>32.594</ele>
        <time>2019-06-16T14:46:30Z</time>
      </trkpt>
      <trkpt lat="43.437864" lon="-3.440687">
        <ele>32.063</ele>
        <time>2019-06-16T14:46:31Z</time>
      </trkpt>
      <trkpt lat="43.437867" lon="-3.440798">
        <ele>31.613</ele>
        <time>2019-06-16T14:46:32Z</time>
      </trkpt>
      <trkpt lat="43.437858" lon="-3.440885">
        <ele>30.729</ele>
        <time>2019-06-16T14:46:33Z</time>
      </trkpt>
      <trkpt lat="43.437848" lon="-3.441011">
        <ele>30.138</ele>
        <time>2019-06-16T14:46:34Z</time>
      </trkpt>
      <trkpt lat="43.437856" lon="-3.441109">
        <ele>30.938</ele>
        <time>2019-06-16T14:46:35Z</time>
      </trkpt>
      <trkpt lat="43.437848" lon="-3.441194">
        <ele>29.670</ele>
        <time>2019-06-16T14:46:36Z</time>
      </trkpt>
      <trkpt lat="43.437853" lon="-3.441283">
        <ele>29.217</ele>
        <time>2019-06-16T14:46:37Z</time>
      </trkpt>
      <trkpt lat="43.437850" lon="-3.441349">
        <ele>28.508</ele>
        <time>2019-06-16T14:46:38Z</time>
      </trkpt>
      <trkpt lat="43.437858" lon="-3.441441">
        <ele>27.166</ele>
        <time>2019-06-16T14:46:40Z</time>
      </trkpt>
      <trkpt lat="43.437904" lon="-3.441454">
        <ele>28.360</ele>
        <time>2019-06-16T14:46:46Z</time>
      </trkpt>
      <trkpt lat="43.437954" lon="-3.441475">
        <ele>28.970</ele>
        <time>2019-06-16T14:47:06Z</time>
      </trkpt>
      <trkpt lat="43.437916" lon="-3.441522">
        <ele>26.234</ele>
        <time>2019-06-16T14:48:11Z</time>
      </trkpt>
      <trkpt lat="43.437875" lon="-3.441568">
        <ele>24.173</ele>
        <time>2019-06-16T14:48:16Z</time>
      </trkpt>
      <trkpt lat="43.437867" lon="-3.441646">
        <ele>21.993</ele>
        <time>2019-06-16T14:48:28Z</time>
      </trkpt>
      <trkpt lat="43.437860" lon="-3.441716">
        <ele>19.799</ele>
        <time>2019-06-16T14:48:49Z</time>
      </trkpt>
      <trkpt lat="43.437895" lon="-3.441673">
        <ele>20.928</ele>
        <time>2019-06-16T14:49:40Z</time>
      </trkpt>
      <trkpt lat="43.437870" lon="-3.441611">
        <ele>22.989</ele>
        <time>2019-06-16T14:50:06Z</time>
      </trkpt>
      <trkpt lat="43.437901" lon="-3.441555">
        <ele>24.806</ele>
        <time>2019-06-16T14:50:14Z</time>
      </trkpt>
      <trkpt lat="43.437904" lon="-3.441472">
        <ele>27.726</ele>
        <time>2019-06-16T14:50:31Z</time>
      </trkpt>
      <trkpt lat="43.437956" lon="-3.441524">
        <ele>26.908</ele>
        <time>2019-06-16T14:55:17Z</time>
      </trkpt>
      <trkpt lat="43.438029" lon="-3.441550">
        <ele>26.881</ele>
        <time>2019-06-16T14:55:19Z</time>
      </trkpt>
      <trkpt lat="43.438072" lon="-3.441577">
        <ele>26.255</ele>
        <time>2019-06-16T14:55:20Z</time>
      </trkpt>
      <trkpt lat="43.438117" lon="-3.441609">
        <ele>26.255</ele>
        <time>2019-06-16T14:55:21Z</time>
      </trkpt>
      <trkpt lat="43.438161" lon="-3.441645">
        <ele>25.629</ele>
        <time>2019-06-16T14:55:22Z</time>
      </trkpt>
      <trkpt lat="43.438206" lon="-3.441686">
        <ele>25.188</ele>
        <time>2019-06-16T14:55:23Z</time>
      </trkpt>
      <trkpt lat="43.438258" lon="-3.441735">
        <ele>24.498</ele>
        <time>2019-06-16T14:55:24Z</time>
      </trkpt>
      <trkpt lat="43.438312" lon="-3.441796">
        <ele>22.664</ele>
        <time>2019-06-16T14:55:25Z</time>
      </trkpt>
      <trkpt lat="43.438359" lon="-3.441866">
        <ele>21.683</ele>
        <time>2019-06-16T14:55:26Z</time>
      </trkpt>
      <trkpt lat="43.438374" lon="-3.441987">
        <ele>18.012</ele>
        <time>2019-06-16T14:55:27Z</time>
      </trkpt>
      <trkpt lat="43.438379" lon="-3.442067">
        <ele>17.632</ele>
        <time>2019-06-16T14:55:28Z</time>
      </trkpt>
      <trkpt lat="43.438414" lon="-3.442134">
        <ele>20.605</ele>
        <time>2019-06-16T14:55:29Z</time>
      </trkpt>
      <trkpt lat="43.438434" lon="-3.442215">
        <ele>21.608</ele>
        <time>2019-06-16T14:55:30Z</time>
      </trkpt>
      <trkpt lat="43.438435" lon="-3.442297">
        <ele>21.454</ele>
        <time>2019-06-16T14:55:31Z</time>
      </trkpt>
      <trkpt lat="43.438453" lon="-3.442415">
        <ele>22.748</ele>
        <time>2019-06-16T14:55:33Z</time>
      </trkpt>
      <trkpt lat="43.438451" lon="-3.442534">
        <ele>21.618</ele>
        <time>2019-06-16T14:55:35Z</time>
      </trkpt>
      <trkpt lat="43.438458" lon="-3.442605">
        <ele>20.942</ele>
        <time>2019-06-16T14:55:36Z</time>
      </trkpt>
      <trkpt lat="43.438475" lon="-3.442668">
        <ele>20.951</ele>
        <time>2019-06-16T14:55:37Z</time>
      </trkpt>
      <trkpt lat="43.438490" lon="-3.442739">
        <ele>20.371</ele>
        <time>2019-06-16T14:55:38Z</time>
      </trkpt>
      <trkpt lat="43.438503" lon="-3.442808">
        <ele>19.727</ele>
        <time>2019-06-16T14:55:39Z</time>
      </trkpt>
      <trkpt lat="43.438514" lon="-3.442876">
        <ele>19.266</ele>
        <time>2019-06-16T14:55:40Z</time>
      </trkpt>
      <trkpt lat="43.438547" lon="-3.442984">
        <ele>19.287</ele>
        <time>2019-06-16T14:55:42Z</time>
      </trkpt>
      <trkpt lat="43.438577" lon="-3.443038">
        <ele>19.742</ele>
        <time>2019-06-16T14:55:43Z</time>
      </trkpt>
      <trkpt lat="43.438638" lon="-3.443108">
        <ele>19.426</ele>
        <time>2019-06-16T14:55:45Z</time>
      </trkpt>
      <trkpt lat="43.438695" lon="-3.443185">
        <ele>18.308</ele>
        <time>2019-06-16T14:55:47Z</time>
      </trkpt>
      <trkpt lat="43.438723" lon="-3.443239">
        <ele>17.611</ele>
        <time>2019-06-16T14:55:48Z</time>
      </trkpt>
      <trkpt lat="43.438743" lon="-3.443325">
        <ele>15.995</ele>
        <time>2019-06-16T14:55:49Z</time>
      </trkpt>
      <trkpt lat="43.438775" lon="-3.443421">
        <ele>16.625</ele>
        <time>2019-06-16T14:55:50Z</time>
      </trkpt>
      <trkpt lat="43.438812" lon="-3.443530">
        <ele>17.879</ele>
        <time>2019-06-16T14:55:51Z</time>
      </trkpt>
      <trkpt lat="43.438838" lon="-3.443647">
        <ele>18.348</ele>
        <time>2019-06-16T14:55:52Z</time>
      </trkpt>
      <trkpt lat="43.438871" lon="-3.443765">
        <ele>18.778</ele>
        <time>2019-06-16T14:55:53Z</time>
      </trkpt>
      <trkpt lat="43.438907" lon="-3.443886">
        <ele>18.724</ele>
        <time>2019-06-16T14:55:54Z</time>
      </trkpt>
      <trkpt lat="43.438940" lon="-3.444015">
        <ele>17.553</ele>
        <time>2019-06-16T14:55:55Z</time>
      </trkpt>
      <trkpt lat="43.438976" lon="-3.444142">
        <ele>17.129</ele>
        <time>2019-06-16T14:55:56Z</time>
      </trkpt>
      <trkpt lat="43.439018" lon="-3.444260">
        <ele>18.500</ele>
        <time>2019-06-16T14:55:57Z</time>
      </trkpt>
      <trkpt lat="43.439059" lon="-3.444371">
        <ele>20.020</ele>
        <time>2019-06-16T14:55:58Z</time>
      </trkpt>
      <trkpt lat="43.439119" lon="-3.444446">
        <ele>22.608</ele>
        <time>2019-06-16T14:55:59Z</time>
      </trkpt>
      <trkpt lat="43.439201" lon="-3.444501">
        <ele>25.715</ele>
        <time>2019-06-16T14:56:00Z</time>
      </trkpt>
      <trkpt lat="43.439247" lon="-3.444592">
        <ele>26.599</ele>
        <time>2019-06-16T14:56:01Z</time>
      </trkpt>
      <trkpt lat="43.439292" lon="-3.444683">
        <ele>27.499</ele>
        <time>2019-06-16T14:56:02Z</time>
      </trkpt>
      <trkpt lat="43.439330" lon="-3.444772">
        <ele>28.683</ele>
        <time>2019-06-16T14:56:03Z</time>
      </trkpt>
      <trkpt lat="43.439356" lon="-3.444848">
        <ele>29.512</ele>
        <time>2019-06-16T14:56:04Z</time>
      </trkpt>
      <trkpt lat="43.439367" lon="-3.444909">
        <ele>29.822</ele>
        <time>2019-06-16T14:56:05Z</time>
      </trkpt>
      <trkpt lat="43.439392" lon="-3.444973">
        <ele>30.478</ele>
        <time>2019-06-16T14:56:06Z</time>
      </trkpt>
      <trkpt lat="43.439399" lon="-3.445054">
        <ele>30.087</ele>
        <time>2019-06-16T14:56:07Z</time>
      </trkpt>
      <trkpt lat="43.439402" lon="-3.445126">
        <ele>29.496</ele>
        <time>2019-06-16T14:56:08Z</time>
      </trkpt>
      <trkpt lat="43.439398" lon="-3.445206">
        <ele>28.531</ele>
        <time>2019-06-16T14:56:09Z</time>
      </trkpt>
      <trkpt lat="43.439389" lon="-3.445285">
        <ele>27.724</ele>
        <time>2019-06-16T14:56:10Z</time>
      </trkpt>
      <trkpt lat="43.439372" lon="-3.445385">
        <ele>28.308</ele>
        <time>2019-06-16T14:56:11Z</time>
      </trkpt>
      <trkpt lat="43.439364" lon="-3.445485">
        <ele>29.022</ele>
        <time>2019-06-16T14:56:12Z</time>
      </trkpt>
      <trkpt lat="43.439360" lon="-3.445589">
        <ele>29.286</ele>
        <time>2019-06-16T14:56:13Z</time>
      </trkpt>
      <trkpt lat="43.439358" lon="-3.445718">
        <ele>28.266</ele>
        <time>2019-06-16T14:56:14Z</time>
      </trkpt>
      <trkpt lat="43.439370" lon="-3.445826">
        <ele>28.070</ele>
        <time>2019-06-16T14:56:15Z</time>
      </trkpt>
      <trkpt lat="43.439377" lon="-3.445931">
        <ele>27.729</ele>
        <time>2019-06-16T14:56:16Z</time>
      </trkpt>
      <trkpt lat="43.439382" lon="-3.446049">
        <ele>27.179</ele>
        <time>2019-06-16T14:56:17Z</time>
      </trkpt>
      <trkpt lat="43.439393" lon="-3.446162">
        <ele>26.995</ele>
        <time>2019-06-16T14:56:18Z</time>
      </trkpt>
      <trkpt lat="43.439393" lon="-3.446274">
        <ele>26.094</ele>
        <time>2019-06-16T14:56:19Z</time>
      </trkpt>
      <trkpt lat="43.439396" lon="-3.446386">
        <ele>25.457</ele>
        <time>2019-06-16T14:56:20Z</time>
      </trkpt>
      <trkpt lat="43.439403" lon="-3.446473">
        <ele>25.700</ele>
        <time>2019-06-16T14:56:21Z</time>
      </trkpt>
      <trkpt lat="43.439407" lon="-3.446569">
        <ele>25.820</ele>
        <time>2019-06-16T14:56:22Z</time>
      </trkpt>
      <trkpt lat="43.439434" lon="-3.446659">
        <ele>27.408</ele>
        <time>2019-06-16T14:56:23Z</time>
      </trkpt>
      <trkpt lat="43.439455" lon="-3.446767">
        <ele>27.328</ele>
        <time>2019-06-16T14:56:24Z</time>
      </trkpt>
      <trkpt lat="43.439481" lon="-3.446856">
        <ele>27.092</ele>
        <time>2019-06-16T14:56:25Z</time>
      </trkpt>
      <trkpt lat="43.439499" lon="-3.446943">
        <ele>26.462</ele>
        <time>2019-06-16T14:56:26Z</time>
      </trkpt>
      <trkpt lat="43.439518" lon="-3.447032">
        <ele>25.266</ele>
        <time>2019-06-16T14:56:27Z</time>
      </trkpt>
      <trkpt lat="43.439543" lon="-3.447098">
        <ele>24.365</ele>
        <time>2019-06-16T14:56:28Z</time>
      </trkpt>
      <trkpt lat="43.439592" lon="-3.447176">
        <ele>23.275</ele>
        <time>2019-06-16T14:56:30Z</time>
      </trkpt>
      <trkpt lat="43.439636" lon="-3.447204">
        <ele>22.991</ele>
        <time>2019-06-16T14:56:31Z</time>
      </trkpt>
      <trkpt lat="43.439696" lon="-3.447212">
        <ele>23.120</ele>
        <time>2019-06-16T14:56:32Z</time>
      </trkpt>
      <trkpt lat="43.439760" lon="-3.447220">
        <ele>22.931</ele>
        <time>2019-06-16T14:56:33Z</time>
      </trkpt>
      <trkpt lat="43.439835" lon="-3.447226">
        <ele>22.461</ele>
        <time>2019-06-16T14:56:34Z</time>
      </trkpt>
      <trkpt lat="43.439909" lon="-3.447237">
        <ele>21.707</ele>
        <time>2019-06-16T14:56:35Z</time>
      </trkpt>
      <trkpt lat="43.439970" lon="-3.447286">
        <ele>19.608</ele>
        <time>2019-06-16T14:56:36Z</time>
      </trkpt>
      <trkpt lat="43.440037" lon="-3.447330">
        <ele>18.596</ele>
        <time>2019-06-16T14:56:37Z</time>
      </trkpt>
      <trkpt lat="43.440104" lon="-3.447378">
        <ele>17.850</ele>
        <time>2019-06-16T14:56:38Z</time>
      </trkpt>
      <trkpt lat="43.440183" lon="-3.447439">
        <ele>16.540</ele>
        <time>2019-06-16T14:56:39Z</time>
      </trkpt>
      <trkpt lat="43.440240" lon="-3.447507">
        <ele>14.284</ele>
        <time>2019-06-16T14:56:40Z</time>
      </trkpt>
      <trkpt lat="43.440303" lon="-3.447572">
        <ele>14.093</ele>
        <time>2019-06-16T14:56:41Z</time>
      </trkpt>
      <trkpt lat="43.440328" lon="-3.447635">
        <ele>13.273</ele>
        <time>2019-06-16T14:56:42Z</time>
      </trkpt>
      <trkpt lat="43.440376" lon="-3.447694">
        <ele>13.579</ele>
        <time>2019-06-16T14:56:43Z</time>
      </trkpt>
      <trkpt lat="43.440403" lon="-3.447771">
        <ele>12.158</ele>
        <time>2019-06-16T14:56:44Z</time>
      </trkpt>
      <trkpt lat="43.440448" lon="-3.447836">
        <ele>12.437</ele>
        <time>2019-06-16T14:56:45Z</time>
      </trkpt>
      <trkpt lat="43.440481" lon="-3.447899">
        <ele>11.849</ele>
        <time>2019-06-16T14:56:46Z</time>
      </trkpt>
      <trkpt lat="43.440526" lon="-3.447974">
        <ele>10.513</ele>
        <time>2019-06-16T14:56:47Z</time>
      </trkpt>
      <trkpt lat="43.440563" lon="-3.448054">
        <ele>8.008</ele>
        <time>2019-06-16T14:56:48Z</time>
      </trkpt>
      <trkpt lat="43.440589" lon="-3.448121">
        <ele>7.026</ele>
        <time>2019-06-16T14:56:49Z</time>
      </trkpt>
      <trkpt lat="43.440609" lon="-3.448197">
        <ele>6.060</ele>
        <time>2019-06-16T14:56:50Z</time>
      </trkpt>
      <trkpt lat="43.440628" lon="-3.448296">
        <ele>4.830</ele>
        <time>2019-06-16T14:56:51Z</time>
      </trkpt>
      <trkpt lat="43.440618" lon="-3.448379">
        <ele>4.544</ele>
        <time>2019-06-16T14:56:52Z</time>
      </trkpt>
      <trkpt lat="43.440558" lon="-3.448443">
        <ele>4.683</ele>
        <time>2019-06-16T14:56:53Z</time>
      </trkpt>
      <trkpt lat="43.440535" lon="-3.448520">
        <ele>4.233</ele>
        <time>2019-06-16T14:56:54Z</time>
      </trkpt>
      <trkpt lat="43.440508" lon="-3.448579">
        <ele>3.919</ele>
        <time>2019-06-16T14:56:55Z</time>
      </trkpt>
      <trkpt lat="43.440483" lon="-3.448668">
        <ele>3.788</ele>
        <time>2019-06-16T14:56:56Z</time>
      </trkpt>
      <trkpt lat="43.440465" lon="-3.448728">
        <ele>3.734</ele>
        <time>2019-06-16T14:56:57Z</time>
      </trkpt>
      <trkpt lat="43.440438" lon="-3.448832">
        <ele>3.655</ele>
        <time>2019-06-16T14:56:59Z</time>
      </trkpt>
      <trkpt lat="43.440439" lon="-3.448898">
        <ele>3.610</ele>
        <time>2019-06-16T14:57:00Z</time>
      </trkpt>
      <trkpt lat="43.440440" lon="-3.448968">
        <ele>3.608</ele>
        <time>2019-06-16T14:57:01Z</time>
      </trkpt>
      <trkpt lat="43.440435" lon="-3.449040">
        <ele>3.616</ele>
        <time>2019-06-16T14:57:02Z</time>
      </trkpt>
      <trkpt lat="43.440485" lon="-3.449099">
        <ele>3.740</ele>
        <time>2019-06-16T14:57:04Z</time>
      </trkpt>
      <trkpt lat="43.440494" lon="-3.449164">
        <ele>3.860</ele>
        <time>2019-06-16T14:57:05Z</time>
      </trkpt>
      <trkpt lat="43.440501" lon="-3.449245">
        <ele>3.944</ele>
        <time>2019-06-16T14:57:06Z</time>
      </trkpt>
      <trkpt lat="43.440506" lon="-3.449335">
        <ele>3.973</ele>
        <time>2019-06-16T14:57:07Z</time>
      </trkpt>
      <trkpt lat="43.440508" lon="-3.449430">
        <ele>4.013</ele>
        <time>2019-06-16T14:57:08Z</time>
      </trkpt>
      <trkpt lat="43.440509" lon="-3.449531">
        <ele>3.929</ele>
        <time>2019-06-16T14:57:09Z</time>
      </trkpt>
      <trkpt lat="43.440534" lon="-3.449667">
        <ele>3.918</ele>
        <time>2019-06-16T14:57:11Z</time>
      </trkpt>
      <trkpt lat="43.440543" lon="-3.449775">
        <ele>4.072</ele>
        <time>2019-06-16T14:57:12Z</time>
      </trkpt>
      <trkpt lat="43.440552" lon="-3.449868">
        <ele>4.013</ele>
        <time>2019-06-16T14:57:13Z</time>
      </trkpt>
      <trkpt lat="43.440580" lon="-3.449943">
        <ele>4.014</ele>
        <time>2019-06-16T14:57:14Z</time>
      </trkpt>
      <trkpt lat="43.440607" lon="-3.450065">
        <ele>4.008</ele>
        <time>2019-06-16T14:57:15Z</time>
      </trkpt>
      <trkpt lat="43.440600" lon="-3.450171">
        <ele>3.960</ele>
        <time>2019-06-16T14:57:16Z</time>
      </trkpt>
      <trkpt lat="43.440608" lon="-3.450272">
        <ele>3.844</ele>
        <time>2019-06-16T14:57:17Z</time>
      </trkpt>
      <trkpt lat="43.440625" lon="-3.450361">
        <ele>3.554</ele>
        <time>2019-06-16T14:57:18Z</time>
      </trkpt>
      <trkpt lat="43.440636" lon="-3.450453">
        <ele>3.318</ele>
        <time>2019-06-16T14:57:19Z</time>
      </trkpt>
      <trkpt lat="43.440644" lon="-3.450541">
        <ele>3.087</ele>
        <time>2019-06-16T14:57:20Z</time>
      </trkpt>
      <trkpt lat="43.440652" lon="-3.450624">
        <ele>3.227</ele>
        <time>2019-06-16T14:57:21Z</time>
      </trkpt>
      <trkpt lat="43.440660" lon="-3.450690">
        <ele>3.513</ele>
        <time>2019-06-16T14:57:22Z</time>
      </trkpt>
      <trkpt lat="43.440652" lon="-3.450754">
        <ele>3.782</ele>
        <time>2019-06-16T14:57:23Z</time>
      </trkpt>
      <trkpt lat="43.440588" lon="-3.450830">
        <ele>4.034</ele>
        <time>2019-06-16T14:57:26Z</time>
      </trkpt>
      <trkpt lat="43.440533" lon="-3.450850">
        <ele>4.055</ele>
        <time>2019-06-16T14:57:27Z</time>
      </trkpt>
      <trkpt lat="43.440476" lon="-3.450854">
        <ele>4.010</ele>
        <time>2019-06-16T14:57:28Z</time>
      </trkpt>
      <trkpt lat="43.440412" lon="-3.450854">
        <ele>4.008</ele>
        <time>2019-06-16T14:57:29Z</time>
      </trkpt>
      <trkpt lat="43.440355" lon="-3.450853">
        <ele>4.076</ele>
        <time>2019-06-16T14:57:30Z</time>
      </trkpt>
      <trkpt lat="43.440301" lon="-3.450867">
        <ele>4.010</ele>
        <time>2019-06-16T14:57:31Z</time>
      </trkpt>
      <trkpt lat="43.440245" lon="-3.450871">
        <ele>4.060</ele>
        <time>2019-06-16T14:57:32Z</time>
      </trkpt>
      <trkpt lat="43.440159" lon="-3.450888">
        <ele>4.064</ele>
        <time>2019-06-16T14:57:34Z</time>
      </trkpt>
      <trkpt lat="43.440121" lon="-3.450928">
        <ele>4.013</ele>
        <time>2019-06-16T14:57:36Z</time>
      </trkpt>
      <trkpt lat="43.440115" lon="-3.451038">
        <ele>4.083</ele>
        <time>2019-06-16T14:57:38Z</time>
      </trkpt>
      <trkpt lat="43.440115" lon="-3.451109">
        <ele>4.039</ele>
        <time>2019-06-16T14:57:39Z</time>
      </trkpt>
      <trkpt lat="43.440119" lon="-3.451200">
        <ele>4.048</ele>
        <time>2019-06-16T14:57:40Z</time>
      </trkpt>
      <trkpt lat="43.440128" lon="-3.451296">
        <ele>4.074</ele>
        <time>2019-06-16T14:57:41Z</time>
      </trkpt>
      <trkpt lat="43.440131" lon="-3.451418">
        <ele>4.056</ele>
        <time>2019-06-16T14:57:42Z</time>
      </trkpt>
      <trkpt lat="43.440135" lon="-3.451534">
        <ele>4.021</ele>
        <time>2019-06-16T14:57:43Z</time>
      </trkpt>
      <trkpt lat="43.440141" lon="-3.451645">
        <ele>4.008</ele>
        <time>2019-06-16T14:57:44Z</time>
      </trkpt>
      <trkpt lat="43.440135" lon="-3.451756">
        <ele>4.010</ele>
        <time>2019-06-16T14:57:45Z</time>
      </trkpt>
      <trkpt lat="43.440147" lon="-3.451874">
        <ele>4.044</ele>
        <time>2019-06-16T14:57:46Z</time>
      </trkpt>
      <trkpt lat="43.440128" lon="-3.451980">
        <ele>4.044</ele>
        <time>2019-06-16T14:57:47Z</time>
      </trkpt>
      <trkpt lat="43.440124" lon="-3.452085">
        <ele>4.048</ele>
        <time>2019-06-16T14:57:48Z</time>
      </trkpt>
      <trkpt lat="43.440109" lon="-3.452209">
        <ele>4.017</ele>
        <time>2019-06-16T14:57:49Z</time>
      </trkpt>
      <trkpt lat="43.440113" lon="-3.452302">
        <ele>4.097</ele>
        <time>2019-06-16T14:57:50Z</time>
      </trkpt>
      <trkpt lat="43.440109" lon="-3.452410">
        <ele>4.053</ele>
        <time>2019-06-16T14:57:51Z</time>
      </trkpt>
      <trkpt lat="43.440107" lon="-3.452516">
        <ele>4.012</ele>
        <time>2019-06-16T14:57:52Z</time>
      </trkpt>
      <trkpt lat="43.440108" lon="-3.452631">
        <ele>4.239</ele>
        <time>2019-06-16T14:57:53Z</time>
      </trkpt>
      <trkpt lat="43.440110" lon="-3.452747">
        <ele>4.401</ele>
        <time>2019-06-16T14:57:54Z</time>
      </trkpt>
      <trkpt lat="43.440099" lon="-3.452885">
        <ele>4.421</ele>
        <time>2019-06-16T14:57:55Z</time>
      </trkpt>
      <trkpt lat="43.440101" lon="-3.453012">
        <ele>4.408</ele>
        <time>2019-06-16T14:57:56Z</time>
      </trkpt>
      <trkpt lat="43.440099" lon="-3.453167">
        <ele>4.426</ele>
        <time>2019-06-16T14:57:57Z</time>
      </trkpt>
      <trkpt lat="43.440102" lon="-3.453300">
        <ele>4.480</ele>
        <time>2019-06-16T14:57:58Z</time>
      </trkpt>
      <trkpt lat="43.440097" lon="-3.453441">
        <ele>4.250</ele>
        <time>2019-06-16T14:57:59Z</time>
      </trkpt>
      <trkpt lat="43.440084" lon="-3.453588">
        <ele>4.054</ele>
        <time>2019-06-16T14:58:00Z</time>
      </trkpt>
      <trkpt lat="43.440093" lon="-3.453716">
        <ele>4.183</ele>
        <time>2019-06-16T14:58:01Z</time>
      </trkpt>
      <trkpt lat="43.440097" lon="-3.453833">
        <ele>4.373</ele>
        <time>2019-06-16T14:58:02Z</time>
      </trkpt>
      <trkpt lat="43.440103" lon="-3.453953">
        <ele>4.389</ele>
        <time>2019-06-16T14:58:03Z</time>
      </trkpt>
      <trkpt lat="43.440104" lon="-3.454076">
        <ele>4.138</ele>
        <time>2019-06-16T14:58:04Z</time>
      </trkpt>
      <trkpt lat="43.440093" lon="-3.454194">
        <ele>4.014</ele>
        <time>2019-06-16T14:58:05Z</time>
      </trkpt>
      <trkpt lat="43.440079" lon="-3.454310">
        <ele>4.054</ele>
        <time>2019-06-16T14:58:06Z</time>
      </trkpt>
      <trkpt lat="43.440069" lon="-3.454442">
        <ele>4.009</ele>
        <time>2019-06-16T14:58:07Z</time>
      </trkpt>
      <trkpt lat="43.440062" lon="-3.454573">
        <ele>4.008</ele>
        <time>2019-06-16T14:58:08Z</time>
      </trkpt>
      <trkpt lat="43.440064" lon="-3.454713">
        <ele>4.074</ele>
        <time>2019-06-16T14:58:09Z</time>
      </trkpt>
      <trkpt lat="43.440079" lon="-3.454843">
        <ele>4.038</ele>
        <time>2019-06-16T14:58:10Z</time>
      </trkpt>
      <trkpt lat="43.440085" lon="-3.454983">
        <ele>4.068</ele>
        <time>2019-06-16T14:58:11Z</time>
      </trkpt>
      <trkpt lat="43.440082" lon="-3.455117">
        <ele>4.052</ele>
        <time>2019-06-16T14:58:12Z</time>
      </trkpt>
      <trkpt lat="43.440082" lon="-3.455249">
        <ele>4.041</ele>
        <time>2019-06-16T14:58:13Z</time>
      </trkpt>
      <trkpt lat="43.440084" lon="-3.455365">
        <ele>4.051</ele>
        <time>2019-06-16T14:58:14Z</time>
      </trkpt>
      <trkpt lat="43.440081" lon="-3.455468">
        <ele>4.047</ele>
        <time>2019-06-16T14:58:15Z</time>
      </trkpt>
      <trkpt lat="43.440076" lon="-3.455581">
        <ele>4.076</ele>
        <time>2019-06-16T14:58:16Z</time>
      </trkpt>
      <trkpt lat="43.440068" lon="-3.455704">
        <ele>4.089</ele>
        <time>2019-06-16T14:58:17Z</time>
      </trkpt>
      <trkpt lat="43.440070" lon="-3.455825">
        <ele>4.006</ele>
        <time>2019-06-16T14:58:18Z</time>
      </trkpt>
      <trkpt lat="43.440068" lon="-3.455950">
        <ele>4.026</ele>
        <time>2019-06-16T14:58:19Z</time>
      </trkpt>
      <trkpt lat="43.440077" lon="-3.456075">
        <ele>4.008</ele>
        <time>2019-06-16T14:58:20Z</time>
      </trkpt>
      <trkpt lat="43.440077" lon="-3.456197">
        <ele>4.081</ele>
        <time>2019-06-16T14:58:21Z</time>
      </trkpt>
      <trkpt lat="43.440083" lon="-3.456320">
        <ele>4.085</ele>
        <time>2019-06-16T14:58:22Z</time>
      </trkpt>
      <trkpt lat="43.440084" lon="-3.456426">
        <ele>4.085</ele>
        <time>2019-06-16T14:58:23Z</time>
      </trkpt>
      <trkpt lat="43.440092" lon="-3.456525">
        <ele>4.039</ele>
        <time>2019-06-16T14:58:24Z</time>
      </trkpt>
      <trkpt lat="43.440080" lon="-3.456634">
        <ele>4.048</ele>
        <time>2019-06-16T14:58:25Z</time>
      </trkpt>
      <trkpt lat="43.440073" lon="-3.456740">
        <ele>4.078</ele>
        <time>2019-06-16T14:58:26Z</time>
      </trkpt>
      <trkpt lat="43.440070" lon="-3.456857">
        <ele>4.054</ele>
        <time>2019-06-16T14:58:27Z</time>
      </trkpt>
      <trkpt lat="43.440063" lon="-3.456979">
        <ele>4.033</ele>
        <time>2019-06-16T14:58:28Z</time>
      </trkpt>
      <trkpt lat="43.440061" lon="-3.457096">
        <ele>4.086</ele>
        <time>2019-06-16T14:58:29Z</time>
      </trkpt>
      <trkpt lat="43.440060" lon="-3.457212">
        <ele>4.060</ele>
        <time>2019-06-16T14:58:30Z</time>
      </trkpt>
      <trkpt lat="43.440061" lon="-3.457312">
        <ele>4.026</ele>
        <time>2019-06-16T14:58:31Z</time>
      </trkpt>
      <trkpt lat="43.440042" lon="-3.457409">
        <ele>4.008</ele>
        <time>2019-06-16T14:58:32Z</time>
      </trkpt>
      <trkpt lat="43.440040" lon="-3.457515">
        <ele>4.011</ele>
        <time>2019-06-16T14:58:33Z</time>
      </trkpt>
      <trkpt lat="43.440038" lon="-3.457604">
        <ele>3.745</ele>
        <time>2019-06-16T14:58:34Z</time>
      </trkpt>
      <trkpt lat="43.440040" lon="-3.457696">
        <ele>3.485</ele>
        <time>2019-06-16T14:58:35Z</time>
      </trkpt>
      <trkpt lat="43.440017" lon="-3.457834">
        <ele>3.029</ele>
        <time>2019-06-16T14:58:36Z</time>
      </trkpt>
      <trkpt lat="43.440015" lon="-3.457946">
        <ele>3.088</ele>
        <time>2019-06-16T14:58:37Z</time>
      </trkpt>
      <trkpt lat="43.440012" lon="-3.458062">
        <ele>3.098</ele>
        <time>2019-06-16T14:58:38Z</time>
      </trkpt>
      <trkpt lat="43.440016" lon="-3.458201">
        <ele>3.084</ele>
        <time>2019-06-16T14:58:39Z</time>
      </trkpt>
      <trkpt lat="43.440003" lon="-3.458340">
        <ele>3.013</ele>
        <time>2019-06-16T14:58:40Z</time>
      </trkpt>
      <trkpt lat="43.440004" lon="-3.458459">
        <ele>3.041</ele>
        <time>2019-06-16T14:58:41Z</time>
      </trkpt>
      <trkpt lat="43.439990" lon="-3.458577">
        <ele>3.081</ele>
        <time>2019-06-16T14:58:42Z</time>
      </trkpt>
      <trkpt lat="43.439988" lon="-3.458684">
        <ele>3.009</ele>
        <time>2019-06-16T14:58:43Z</time>
      </trkpt>
      <trkpt lat="43.439991" lon="-3.458791">
        <ele>3.008</ele>
        <time>2019-06-16T14:58:44Z</time>
      </trkpt>
      <trkpt lat="43.439999" lon="-3.458883">
        <ele>3.077</ele>
        <time>2019-06-16T14:58:45Z</time>
      </trkpt>
      <trkpt lat="43.439998" lon="-3.458981">
        <ele>3.051</ele>
        <time>2019-06-16T14:58:46Z</time>
      </trkpt>
      <trkpt lat="43.440022" lon="-3.459097">
        <ele>3.031</ele>
        <time>2019-06-16T14:58:47Z</time>
      </trkpt>
      <trkpt lat="43.440017" lon="-3.459214">
        <ele>3.025</ele>
        <time>2019-06-16T14:58:48Z</time>
      </trkpt>
      <trkpt lat="43.440019" lon="-3.459303">
        <ele>3.094</ele>
        <time>2019-06-16T14:58:49Z</time>
      </trkpt>
      <trkpt lat="43.440018" lon="-3.459379">
        <ele>3.094</ele>
        <time>2019-06-16T14:58:50Z</time>
      </trkpt>
      <trkpt lat="43.440019" lon="-3.459454">
        <ele>3.040</ele>
        <time>2019-06-16T14:58:51Z</time>
      </trkpt>
      <trkpt lat="43.440023" lon="-3.459530">
        <ele>3.039</ele>
        <time>2019-06-16T14:58:52Z</time>
      </trkpt>
      <trkpt lat="43.440033" lon="-3.459610">
        <ele>3.029</ele>
        <time>2019-06-16T14:58:53Z</time>
      </trkpt>
      <trkpt lat="43.440046" lon="-3.459702">
        <ele>3.000</ele>
        <time>2019-06-16T14:58:54Z</time>
      </trkpt>
      <trkpt lat="43.440042" lon="-3.459806">
        <ele>3.020</ele>
        <time>2019-06-16T14:58:55Z</time>
      </trkpt>
      <trkpt lat="43.440023" lon="-3.459919">
        <ele>3.008</ele>
        <time>2019-06-16T14:58:56Z</time>
      </trkpt>
      <trkpt lat="43.440009" lon="-3.460039">
        <ele>3.085</ele>
        <time>2019-06-16T14:58:57Z</time>
      </trkpt>
      <trkpt lat="43.440006" lon="-3.460148">
        <ele>3.039</ele>
        <time>2019-06-16T14:58:58Z</time>
      </trkpt>
      <trkpt lat="43.440000" lon="-3.460254">
        <ele>3.099</ele>
        <time>2019-06-16T14:58:59Z</time>
      </trkpt>
      <trkpt lat="43.440003" lon="-3.460343">
        <ele>3.093</ele>
        <time>2019-06-16T14:59:00Z</time>
      </trkpt>
      <trkpt lat="43.440013" lon="-3.460420">
        <ele>3.052</ele>
        <time>2019-06-16T14:59:01Z</time>
      </trkpt>
      <trkpt lat="43.440034" lon="-3.460526">
        <ele>3.092</ele>
        <time>2019-06-16T14:59:03Z</time>
      </trkpt>
      <trkpt lat="43.440055" lon="-3.460613">
        <ele>2.928</ele>
        <time>2019-06-16T14:59:05Z</time>
      </trkpt>
      <trkpt lat="43.440015" lon="-3.460677">
        <ele>3.057</ele>
        <time>2019-06-16T14:59:08Z</time>
      </trkpt>
      <trkpt lat="43.439933" lon="-3.460664">
        <ele>3.196</ele>
        <time>2019-06-16T14:59:10Z</time>
      </trkpt>
      <trkpt lat="43.439948" lon="-3.460605">
        <ele>3.031</ele>
        <time>2019-06-16T14:59:13Z</time>
      </trkpt>
      <trkpt lat="43.439975" lon="-3.460544">
        <ele>3.024</ele>
        <time>2019-06-16T14:59:22Z</time>
      </trkpt>
      <trkpt lat="43.440078" lon="-3.460581">
        <ele>2.908</ele>
        <time>2019-06-16T14:59:24Z</time>
      </trkpt>
      <trkpt lat="43.440129" lon="-3.460612">
        <ele>2.812</ele>
        <time>2019-06-16T14:59:25Z</time>
      </trkpt>
      <trkpt lat="43.440182" lon="-3.460649">
        <ele>2.686</ele>
        <time>2019-06-16T14:59:26Z</time>
      </trkpt>
      <trkpt lat="43.440253" lon="-3.460699">
        <ele>2.126</ele>
        <time>2019-06-16T14:59:27Z</time>
      </trkpt>
      <trkpt lat="43.440332" lon="-3.460748">
        <ele>1.980</ele>
        <time>2019-06-16T14:59:28Z</time>
      </trkpt>
      <trkpt lat="43.440410" lon="-3.460786">
        <ele>2.119</ele>
        <time>2019-06-16T14:59:29Z</time>
      </trkpt>
      <trkpt lat="43.440505" lon="-3.460822">
        <ele>2.779</ele>
        <time>2019-06-16T14:59:30Z</time>
      </trkpt>
      <trkpt lat="43.440593" lon="-3.460862">
        <ele>2.895</ele>
        <time>2019-06-16T14:59:31Z</time>
      </trkpt>
      <trkpt lat="43.440681" lon="-3.460908">
        <ele>2.764</ele>
        <time>2019-06-16T14:59:32Z</time>
      </trkpt>
      <trkpt lat="43.440752" lon="-3.460938">
        <ele>2.857</ele>
        <time>2019-06-16T14:59:33Z</time>
      </trkpt>
      <trkpt lat="43.440837" lon="-3.460976">
        <ele>3.000</ele>
        <time>2019-06-16T14:59:34Z</time>
      </trkpt>
      <trkpt lat="43.440922" lon="-3.461010">
        <ele>3.020</ele>
        <time>2019-06-16T14:59:35Z</time>
      </trkpt>
      <trkpt lat="43.441003" lon="-3.461050">
        <ele>3.008</ele>
        <time>2019-06-16T14:59:36Z</time>
      </trkpt>
      <trkpt lat="43.441097" lon="-3.461093">
        <ele>3.028</ele>
        <time>2019-06-16T14:59:37Z</time>
      </trkpt>
      <trkpt lat="43.441202" lon="-3.461129">
        <ele>3.012</ele>
        <time>2019-06-16T14:59:38Z</time>
      </trkpt>
      <trkpt lat="43.441293" lon="-3.461165">
        <ele>2.962</ele>
        <time>2019-06-16T14:59:39Z</time>
      </trkpt>
      <trkpt lat="43.441352" lon="-3.461198">
        <ele>3.066</ele>
        <time>2019-06-16T14:59:40Z</time>
      </trkpt>
      <trkpt lat="43.441438" lon="-3.461237">
        <ele>3.045</ele>
        <time>2019-06-16T14:59:41Z</time>
      </trkpt>
      <trkpt lat="43.441494" lon="-3.461264">
        <ele>3.015</ele>
        <time>2019-06-16T14:59:42Z</time>
      </trkpt>
      <trkpt lat="43.441559" lon="-3.461295">
        <ele>3.091</ele>
        <time>2019-06-16T14:59:43Z</time>
      </trkpt>
      <trkpt lat="43.441625" lon="-3.461318">
        <ele>3.090</ele>
        <time>2019-06-16T14:59:44Z</time>
      </trkpt>
      <trkpt lat="43.441672" lon="-3.461346">
        <ele>3.087</ele>
        <time>2019-06-16T14:59:45Z</time>
      </trkpt>
      <trkpt lat="43.441734" lon="-3.461378">
        <ele>3.042</ele>
        <time>2019-06-16T14:59:46Z</time>
      </trkpt>
      <trkpt lat="43.441791" lon="-3.461395">
        <ele>3.026</ele>
        <time>2019-06-16T14:59:47Z</time>
      </trkpt>
      <trkpt lat="43.441870" lon="-3.461405">
        <ele>3.008</ele>
        <time>2019-06-16T14:59:51Z</time>
      </trkpt>
      <trkpt lat="43.441929" lon="-3.461373">
        <ele>3.091</ele>
        <time>2019-06-16T14:59:52Z</time>
      </trkpt>
      <trkpt lat="43.441970" lon="-3.461261">
        <ele>3.045</ele>
        <time>2019-06-16T14:59:54Z</time>
      </trkpt>
      <trkpt lat="43.441995" lon="-3.461199">
        <ele>3.085</ele>
        <time>2019-06-16T14:59:55Z</time>
      </trkpt>
      <trkpt lat="43.442009" lon="-3.461121">
        <ele>3.069</ele>
        <time>2019-06-16T14:59:56Z</time>
      </trkpt>
      <trkpt lat="43.442038" lon="-3.461004">
        <ele>3.398</ele>
        <time>2019-06-16T14:59:57Z</time>
      </trkpt>
      <trkpt lat="43.442068" lon="-3.460906">
        <ele>3.448</ele>
        <time>2019-06-16T14:59:58Z</time>
      </trkpt>
      <trkpt lat="43.442094" lon="-3.460806">
        <ele>3.434</ele>
        <time>2019-06-16T14:59:59Z</time>
      </trkpt>
      <trkpt lat="43.442096" lon="-3.460691">
        <ele>3.233</ele>
        <time>2019-06-16T15:00:00Z</time>
      </trkpt>
      <trkpt lat="43.442111" lon="-3.460582">
        <ele>3.036</ele>
        <time>2019-06-16T15:00:01Z</time>
      </trkpt>
      <trkpt lat="43.442125" lon="-3.460514">
        <ele>3.017</ele>
        <time>2019-06-16T15:00:02Z</time>
      </trkpt>
      <trkpt lat="43.442134" lon="-3.460433">
        <ele>3.018</ele>
        <time>2019-06-16T15:00:03Z</time>
      </trkpt>
      <trkpt lat="43.442164" lon="-3.460361">
        <ele>3.008</ele>
        <time>2019-06-16T15:00:04Z</time>
      </trkpt>
      <trkpt lat="43.442174" lon="-3.460286">
        <ele>3.066</ele>
        <time>2019-06-16T15:00:05Z</time>
      </trkpt>
      <trkpt lat="43.442210" lon="-3.460236">
        <ele>3.050</ele>
        <time>2019-06-16T15:00:06Z</time>
      </trkpt>
      <trkpt lat="43.442217" lon="-3.460155">
        <ele>3.040</ele>
        <time>2019-06-16T15:00:08Z</time>
      </trkpt>
      <trkpt lat="43.442223" lon="-3.460073">
        <ele>3.044</ele>
        <time>2019-06-16T15:00:09Z</time>
      </trkpt>
      <trkpt lat="43.442228" lon="-3.460002">
        <ele>3.023</ele>
        <time>2019-06-16T15:00:10Z</time>
      </trkpt>
      <trkpt lat="43.442291" lon="-3.460010">
        <ele>3.073</ele>
        <time>2019-06-16T15:00:11Z</time>
      </trkpt>
      <trkpt lat="43.442450" lon="-3.460073">
        <ele>3.059</ele>
        <time>2019-06-16T15:00:14Z</time>
      </trkpt>
      <trkpt lat="43.442518" lon="-3.460058">
        <ele>3.028</ele>
        <time>2019-06-16T15:00:15Z</time>
      </trkpt>
      <trkpt lat="43.442600" lon="-3.460057">
        <ele>3.022</ele>
        <time>2019-06-16T15:00:16Z</time>
      </trkpt>
      <trkpt lat="43.442659" lon="-3.460095">
        <ele>3.062</ele>
        <time>2019-06-16T15:00:17Z</time>
      </trkpt>
      <trkpt lat="43.442776" lon="-3.460130">
        <ele>3.008</ele>
        <time>2019-06-16T15:00:18Z</time>
      </trkpt>
      <trkpt lat="43.442877" lon="-3.460142">
        <ele>3.008</ele>
        <time>2019-06-16T15:00:19Z</time>
      </trkpt>
      <trkpt lat="43.442961" lon="-3.460153">
        <ele>3.065</ele>
        <time>2019-06-16T15:00:20Z</time>
      </trkpt>
      <trkpt lat="43.443083" lon="-3.460169">
        <ele>3.099</ele>
        <time>2019-06-16T15:00:21Z</time>
      </trkpt>
      <trkpt lat="43.443192" lon="-3.460186">
        <ele>3.099</ele>
        <time>2019-06-16T15:00:22Z</time>
      </trkpt>
      <trkpt lat="43.443306" lon="-3.460196">
        <ele>3.033</ele>
        <time>2019-06-16T15:00:23Z</time>
      </trkpt>
      <trkpt lat="43.443402" lon="-3.460226">
        <ele>3.022</ele>
        <time>2019-06-16T15:00:24Z</time>
      </trkpt>
      <trkpt lat="43.443537" lon="-3.460256">
        <ele>3.092</ele>
        <time>2019-06-16T15:00:25Z</time>
      </trkpt>
      <trkpt lat="43.443657" lon="-3.460277">
        <ele>3.068</ele>
        <time>2019-06-16T15:00:26Z</time>
      </trkpt>
      <trkpt lat="43.443728" lon="-3.460309">
        <ele>3.047</ele>
        <time>2019-06-16T15:00:27Z</time>
      </trkpt>
      <trkpt lat="43.443819" lon="-3.460320">
        <ele>3.029</ele>
        <time>2019-06-16T15:00:28Z</time>
      </trkpt>
      <trkpt lat="43.443883" lon="-3.460345">
        <ele>3.000</ele>
        <time>2019-06-16T15:00:29Z</time>
      </trkpt>
      <trkpt lat="43.443946" lon="-3.460345">
        <ele>3.220</ele>
        <time>2019-06-16T15:00:30Z</time>
      </trkpt>
      <trkpt lat="43.444011" lon="-3.460353">
        <ele>3.308</ele>
        <time>2019-06-16T15:00:31Z</time>
      </trkpt>
      <trkpt lat="43.444070" lon="-3.460352">
        <ele>3.525</ele>
        <time>2019-06-16T15:00:32Z</time>
      </trkpt>
      <trkpt lat="43.444137" lon="-3.460251">
        <ele>3.819</ele>
        <time>2019-06-16T15:00:33Z</time>
      </trkpt>
      <trkpt lat="43.444184" lon="-3.460241">
        <ele>3.899</ele>
        <time>2019-06-16T15:00:34Z</time>
      </trkpt>
      <trkpt lat="43.444251" lon="-3.460223">
        <ele>3.613</ele>
        <time>2019-06-16T15:00:35Z</time>
      </trkpt>
      <trkpt lat="43.444307" lon="-3.460226">
        <ele>3.542</ele>
        <time>2019-06-16T15:00:36Z</time>
      </trkpt>
      <trkpt lat="43.444357" lon="-3.460241">
        <ele>3.462</ele>
        <time>2019-06-16T15:00:37Z</time>
      </trkpt>
      <trkpt lat="43.444419" lon="-3.460336">
        <ele>3.368</ele>
        <time>2019-06-16T15:00:38Z</time>
      </trkpt>
      <trkpt lat="43.444486" lon="-3.460386">
        <ele>3.327</ele>
        <time>2019-06-16T15:00:39Z</time>
      </trkpt>
      <trkpt lat="43.444594" lon="-3.460416">
        <ele>3.278</ele>
        <time>2019-06-16T15:00:40Z</time>
      </trkpt>
      <trkpt lat="43.444709" lon="-3.460439">
        <ele>3.033</ele>
        <time>2019-06-16T15:00:41Z</time>
      </trkpt>
      <trkpt lat="43.444833" lon="-3.460460">
        <ele>3.026</ele>
        <time>2019-06-16T15:00:42Z</time>
      </trkpt>
      <trkpt lat="43.444955" lon="-3.460478">
        <ele>3.008</ele>
        <time>2019-06-16T15:00:43Z</time>
      </trkpt>
      <trkpt lat="43.445078" lon="-3.460510">
        <ele>3.050</ele>
        <time>2019-06-16T15:00:44Z</time>
      </trkpt>
      <trkpt lat="43.445200" lon="-3.460533">
        <ele>3.054</ele>
        <time>2019-06-16T15:00:45Z</time>
      </trkpt>
      <trkpt lat="43.445284" lon="-3.460556">
        <ele>3.024</ele>
        <time>2019-06-16T15:00:46Z</time>
      </trkpt>
      <trkpt lat="43.445374" lon="-3.460561">
        <ele>3.088</ele>
        <time>2019-06-16T15:00:47Z</time>
      </trkpt>
      <trkpt lat="43.445484" lon="-3.460576">
        <ele>3.067</ele>
        <time>2019-06-16T15:00:48Z</time>
      </trkpt>
      <trkpt lat="43.445593" lon="-3.460583">
        <ele>3.047</ele>
        <time>2019-06-16T15:00:49Z</time>
      </trkpt>
      <trkpt lat="43.445648" lon="-3.460584">
        <ele>3.053</ele>
        <time>2019-06-16T15:00:50Z</time>
      </trkpt>
      <trkpt lat="43.445734" lon="-3.460585">
        <ele>3.092</ele>
        <time>2019-06-16T15:00:52Z</time>
      </trkpt>
      <trkpt lat="43.445834" lon="-3.460593">
        <ele>3.024</ele>
        <time>2019-06-16T15:00:54Z</time>
      </trkpt>
      <trkpt lat="43.445918" lon="-3.460595">
        <ele>3.004</ele>
        <time>2019-06-16T15:00:55Z</time>
      </trkpt>
      <trkpt lat="43.446022" lon="-3.460607">
        <ele>3.014</ele>
        <time>2019-06-16T15:00:56Z</time>
      </trkpt>
      <trkpt lat="43.446122" lon="-3.460617">
        <ele>3.008</ele>
        <time>2019-06-16T15:00:57Z</time>
      </trkpt>
      <trkpt lat="43.446212" lon="-3.460621">
        <ele>3.075</ele>
        <time>2019-06-16T15:00:58Z</time>
      </trkpt>
      <trkpt lat="43.446300" lon="-3.460622">
        <ele>3.049</ele>
        <time>2019-06-16T15:00:59Z</time>
      </trkpt>
      <trkpt lat="43.446394" lon="-3.460627">
        <ele>3.049</ele>
        <time>2019-06-16T15:01:00Z</time>
      </trkpt>
      <trkpt lat="43.446512" lon="-3.460638">
        <ele>3.013</ele>
        <time>2019-06-16T15:01:01Z</time>
      </trkpt>
      <trkpt lat="43.446623" lon="-3.460647">
        <ele>3.062</ele>
        <time>2019-06-16T15:01:02Z</time>
      </trkpt>
      <trkpt lat="43.446741" lon="-3.460638">
        <ele>3.042</ele>
        <time>2019-06-16T15:01:03Z</time>
      </trkpt>
      <trkpt lat="43.446859" lon="-3.460639">
        <ele>3.078</ele>
        <time>2019-06-16T15:01:04Z</time>
      </trkpt>
      <trkpt lat="43.446960" lon="-3.460633">
        <ele>3.017</ele>
        <time>2019-06-16T15:01:05Z</time>
      </trkpt>
      <trkpt lat="43.447069" lon="-3.460634">
        <ele>3.079</ele>
        <time>2019-06-16T15:01:06Z</time>
      </trkpt>
      <trkpt lat="43.447171" lon="-3.460633">
        <ele>3.005</ele>
        <time>2019-06-16T15:01:07Z</time>
      </trkpt>
      <trkpt lat="43.447275" lon="-3.460645">
        <ele>3.025</ele>
        <time>2019-06-16T15:01:08Z</time>
      </trkpt>
      <trkpt lat="43.447393" lon="-3.460650">
        <ele>3.008</ele>
        <time>2019-06-16T15:01:09Z</time>
      </trkpt>
      <trkpt lat="43.447530" lon="-3.460656">
        <ele>3.050</ele>
        <time>2019-06-16T15:01:10Z</time>
      </trkpt>
      <trkpt lat="43.447660" lon="-3.460667">
        <ele>3.054</ele>
        <time>2019-06-16T15:01:11Z</time>
      </trkpt>
      <trkpt lat="43.447794" lon="-3.460674">
        <ele>3.084</ele>
        <time>2019-06-16T15:01:12Z</time>
      </trkpt>
      <trkpt lat="43.447920" lon="-3.460688">
        <ele>3.038</ele>
        <time>2019-06-16T15:01:13Z</time>
      </trkpt>
      <trkpt lat="43.448007" lon="-3.460678">
        <ele>3.057</ele>
        <time>2019-06-16T15:01:14Z</time>
      </trkpt>
      <trkpt lat="43.448132" lon="-3.460681">
        <ele>3.067</ele>
        <time>2019-06-16T15:01:15Z</time>
      </trkpt>
      <trkpt lat="43.448259" lon="-3.460678">
        <ele>3.093</ele>
        <time>2019-06-16T15:01:16Z</time>
      </trkpt>
      <trkpt lat="43.448379" lon="-3.460672">
        <ele>3.072</ele>
        <time>2019-06-16T15:01:17Z</time>
      </trkpt>
      <trkpt lat="43.448504" lon="-3.460665">
        <ele>3.062</ele>
        <time>2019-06-16T15:01:18Z</time>
      </trkpt>
      <trkpt lat="43.448647" lon="-3.460669">
        <ele>3.083</ele>
        <time>2019-06-16T15:01:19Z</time>
      </trkpt>
      <trkpt lat="43.448785" lon="-3.460676">
        <ele>3.011</ele>
        <time>2019-06-16T15:01:20Z</time>
      </trkpt>
      <trkpt lat="43.448922" lon="-3.460679">
        <ele>3.008</ele>
        <time>2019-06-16T15:01:21Z</time>
      </trkpt>
      <trkpt lat="43.449068" lon="-3.460678">
        <ele>3.089</ele>
        <time>2019-06-16T15:01:22Z</time>
      </trkpt>
      <trkpt lat="43.449222" lon="-3.460688">
        <ele>3.033</ele>
        <time>2019-06-16T15:01:23Z</time>
      </trkpt>
      <trkpt lat="43.449373" lon="-3.460696">
        <ele>3.093</ele>
        <time>2019-06-16T15:01:24Z</time>
      </trkpt>
      <trkpt lat="43.449516" lon="-3.460716">
        <ele>3.027</ele>
        <time>2019-06-16T15:01:25Z</time>
      </trkpt>
      <trkpt lat="43.449647" lon="-3.460728">
        <ele>3.046</ele>
        <time>2019-06-16T15:01:26Z</time>
      </trkpt>
      <trkpt lat="43.449785" lon="-3.460728">
        <ele>3.046</ele>
        <time>2019-06-16T15:01:27Z</time>
      </trkpt>
      <trkpt lat="43.449923" lon="-3.460726">
        <ele>3.012</ele>
        <time>2019-06-16T15:01:28Z</time>
      </trkpt>
      <trkpt lat="43.450058" lon="-3.460718">
        <ele>3.081</ele>
        <time>2019-06-16T15:01:29Z</time>
      </trkpt>
      <trkpt lat="43.450194" lon="-3.460704">
        <ele>3.062</ele>
        <time>2019-06-16T15:01:30Z</time>
      </trkpt>
      <trkpt lat="43.450338" lon="-3.460664">
        <ele>3.083</ele>
        <time>2019-06-16T15:01:31Z</time>
      </trkpt>
      <trkpt lat="43.450461" lon="-3.460630">
        <ele>3.011</ele>
        <time>2019-06-16T15:01:32Z</time>
      </trkpt>
      <trkpt lat="43.450575" lon="-3.460556">
        <ele>3.008</ele>
        <time>2019-06-16T15:01:33Z</time>
      </trkpt>
      <trkpt lat="43.450691" lon="-3.460490">
        <ele>3.039</ele>
        <time>2019-06-16T15:01:34Z</time>
      </trkpt>
      <trkpt lat="43.450791" lon="-3.460400">
        <ele>3.033</ele>
        <time>2019-06-16T15:01:35Z</time>
      </trkpt>
      <trkpt lat="43.450899" lon="-3.460290">
        <ele>3.083</ele>
        <time>2019-06-16T15:01:36Z</time>
      </trkpt>
      <trkpt lat="43.450989" lon="-3.460139">
        <ele>3.067</ele>
        <time>2019-06-16T15:01:37Z</time>
      </trkpt>
      <trkpt lat="43.451085" lon="-3.459981">
        <ele>3.046</ele>
        <time>2019-06-16T15:01:38Z</time>
      </trkpt>
      <trkpt lat="43.451200" lon="-3.459793">
        <ele>2.776</ele>
        <time>2019-06-16T15:01:39Z</time>
      </trkpt>
      <trkpt lat="43.451258" lon="-3.459619">
        <ele>2.382</ele>
        <time>2019-06-16T15:01:40Z</time>
      </trkpt>
      <trkpt lat="43.451227" lon="-3.459433">
        <ele>2.211</ele>
        <time>2019-06-16T15:01:41Z</time>
      </trkpt>
      <trkpt lat="43.451204" lon="-3.459269">
        <ele>2.598</ele>
        <time>2019-06-16T15:01:42Z</time>
      </trkpt>
      <trkpt lat="43.451180" lon="-3.459105">
        <ele>2.815</ele>
        <time>2019-06-16T15:01:43Z</time>
      </trkpt>
      <trkpt lat="43.451202" lon="-3.458965">
        <ele>2.726</ele>
        <time>2019-06-16T15:01:44Z</time>
      </trkpt>
      <trkpt lat="43.451245" lon="-3.458843">
        <ele>2.608</ele>
        <time>2019-06-16T15:01:45Z</time>
      </trkpt>
      <trkpt lat="43.451260" lon="-3.458751">
        <ele>2.712</ele>
        <time>2019-06-16T15:01:46Z</time>
      </trkpt>
      <trkpt lat="43.451280" lon="-3.458679">
        <ele>2.986</ele>
        <time>2019-06-16T15:01:47Z</time>
      </trkpt>
      <trkpt lat="43.451300" lon="-3.458593">
        <ele>3.016</ele>
        <time>2019-06-16T15:01:48Z</time>
      </trkpt>
      <trkpt lat="43.451330" lon="-3.458530">
        <ele>3.080</ele>
        <time>2019-06-16T15:01:49Z</time>
      </trkpt>
      <trkpt lat="43.451374" lon="-3.458487">
        <ele>3.079</ele>
        <time>2019-06-16T15:01:50Z</time>
      </trkpt>
      <trkpt lat="43.451471" lon="-3.458508">
        <ele>2.979</ele>
        <time>2019-06-16T15:01:52Z</time>
      </trkpt>
      <trkpt lat="43.451542" lon="-3.458555">
        <ele>2.975</ele>
        <time>2019-06-16T15:01:53Z</time>
      </trkpt>
      <trkpt lat="43.451624" lon="-3.458638">
        <ele>2.854</ele>
        <time>2019-06-16T15:01:54Z</time>
      </trkpt>
      <trkpt lat="43.451715" lon="-3.458747">
        <ele>2.154</ele>
        <time>2019-06-16T15:01:55Z</time>
      </trkpt>
      <trkpt lat="43.451826" lon="-3.458844">
        <ele>2.256</ele>
        <time>2019-06-16T15:01:56Z</time>
      </trkpt>
      <trkpt lat="43.451944" lon="-3.458943">
        <ele>2.611</ele>
        <time>2019-06-16T15:01:57Z</time>
      </trkpt>
      <trkpt lat="43.452065" lon="-3.459051">
        <ele>2.308</ele>
        <time>2019-06-16T15:01:58Z</time>
      </trkpt>
      <trkpt lat="43.452189" lon="-3.459158">
        <ele>2.838</ele>
        <time>2019-06-16T15:01:59Z</time>
      </trkpt>
      <trkpt lat="43.452327" lon="-3.459275">
        <ele>2.142</ele>
        <time>2019-06-16T15:02:00Z</time>
      </trkpt>
      <trkpt lat="43.452471" lon="-3.459378">
        <ele>1.912</ele>
        <time>2019-06-16T15:02:01Z</time>
      </trkpt>
      <trkpt lat="43.452595" lon="-3.459489">
        <ele>1.966</ele>
        <time>2019-06-16T15:02:02Z</time>
      </trkpt>
      <trkpt lat="43.452719" lon="-3.459599">
        <ele>1.925</ele>
        <time>2019-06-16T15:02:03Z</time>
      </trkpt>
      <trkpt lat="43.452852" lon="-3.459699">
        <ele>2.265</ele>
        <time>2019-06-16T15:02:04Z</time>
      </trkpt>
      <trkpt lat="43.452985" lon="-3.459809">
        <ele>2.451</ele>
        <time>2019-06-16T15:02:05Z</time>
      </trkpt>
      <trkpt lat="43.453110" lon="-3.459907">
        <ele>2.330</ele>
        <time>2019-06-16T15:02:06Z</time>
      </trkpt>
      <trkpt lat="43.453219" lon="-3.459998">
        <ele>2.637</ele>
        <time>2019-06-16T15:02:07Z</time>
      </trkpt>
      <trkpt lat="43.453329" lon="-3.460081">
        <ele>2.749</ele>
        <time>2019-06-16T15:02:08Z</time>
      </trkpt>
      <trkpt lat="43.453440" lon="-3.460164">
        <ele>2.713</ele>
        <time>2019-06-16T15:02:09Z</time>
      </trkpt>
      <trkpt lat="43.453542" lon="-3.460234">
        <ele>3.308</ele>
        <time>2019-06-16T15:02:10Z</time>
      </trkpt>
      <trkpt lat="43.453640" lon="-3.460293">
        <ele>3.876</ele>
        <time>2019-06-16T15:02:11Z</time>
      </trkpt>
      <trkpt lat="43.453711" lon="-3.460312">
        <ele>3.540</ele>
        <time>2019-06-16T15:02:12Z</time>
      </trkpt>
      <trkpt lat="43.453777" lon="-3.460299">
        <ele>3.480</ele>
        <time>2019-06-16T15:02:13Z</time>
      </trkpt>
      <trkpt lat="43.453841" lon="-3.460286">
        <ele>3.274</ele>
        <time>2019-06-16T15:02:14Z</time>
      </trkpt>
      <trkpt lat="43.453891" lon="-3.460253">
        <ele>2.963</ele>
        <time>2019-06-16T15:02:15Z</time>
      </trkpt>
      <trkpt lat="43.453952" lon="-3.460241">
        <ele>3.193</ele>
        <time>2019-06-16T15:02:16Z</time>
      </trkpt>
      <trkpt lat="43.454009" lon="-3.460265">
        <ele>3.419</ele>
        <time>2019-06-16T15:02:17Z</time>
      </trkpt>
      <trkpt lat="43.454061" lon="-3.460313">
        <ele>3.798</ele>
        <time>2019-06-16T15:02:18Z</time>
      </trkpt>
      <trkpt lat="43.454106" lon="-3.460376">
        <ele>3.933</ele>
        <time>2019-06-16T15:02:19Z</time>
      </trkpt>
      <trkpt lat="43.454131" lon="-3.460466">
        <ele>4.023</ele>
        <time>2019-06-16T15:02:20Z</time>
      </trkpt>
      <trkpt lat="43.454147" lon="-3.460566">
        <ele>4.015</ele>
        <time>2019-06-16T15:02:21Z</time>
      </trkpt>
      <trkpt lat="43.454175" lon="-3.460689">
        <ele>3.908</ele>
        <time>2019-06-16T15:02:22Z</time>
      </trkpt>
      <trkpt lat="43.454205" lon="-3.460811">
        <ele>3.796</ele>
        <time>2019-06-16T15:02:23Z</time>
      </trkpt>
      <trkpt lat="43.454286" lon="-3.460949">
        <ele>2.840</ele>
        <time>2019-06-16T15:02:24Z</time>
      </trkpt>
      <trkpt lat="43.454418" lon="-3.461044">
        <ele>2.760</ele>
        <time>2019-06-16T15:02:25Z</time>
      </trkpt>
      <trkpt lat="43.454521" lon="-3.461166">
        <ele>2.554</ele>
        <time>2019-06-16T15:02:26Z</time>
      </trkpt>
      <trkpt lat="43.454643" lon="-3.461277">
        <ele>2.413</ele>
        <time>2019-06-16T15:02:27Z</time>
      </trkpt>
      <trkpt lat="43.454790" lon="-3.461394">
        <ele>2.723</ele>
        <time>2019-06-16T15:02:28Z</time>
      </trkpt>
      <trkpt lat="43.454923" lon="-3.461539">
        <ele>2.559</ele>
        <time>2019-06-16T15:02:29Z</time>
      </trkpt>
      <trkpt lat="43.455063" lon="-3.461684">
        <ele>2.788</ele>
        <time>2019-06-16T15:02:30Z</time>
      </trkpt>
      <trkpt lat="43.455203" lon="-3.461839">
        <ele>2.414</ele>
        <time>2019-06-16T15:02:31Z</time>
      </trkpt>
      <trkpt lat="43.455371" lon="-3.461987">
        <ele>2.954</ele>
        <time>2019-06-16T15:02:32Z</time>
      </trkpt>
      <trkpt lat="43.455519" lon="-3.462146">
        <ele>2.909</ele>
        <time>2019-06-16T15:02:33Z</time>
      </trkpt>
      <trkpt lat="43.455665" lon="-3.462316">
        <ele>2.708</ele>
        <time>2019-06-16T15:02:34Z</time>
      </trkpt>
      <trkpt lat="43.455815" lon="-3.462486">
        <ele>3.814</ele>
        <time>2019-06-16T15:02:35Z</time>
      </trkpt>
      <trkpt lat="43.455971" lon="-3.462667">
        <ele>2.878</ele>
        <time>2019-06-16T15:02:36Z</time>
      </trkpt>
      <trkpt lat="43.456139" lon="-3.462850">
        <ele>3.378</ele>
        <time>2019-06-16T15:02:37Z</time>
      </trkpt>
      <trkpt lat="43.456301" lon="-3.463028">
        <ele>2.612</ele>
        <time>2019-06-16T15:02:38Z</time>
      </trkpt>
      <trkpt lat="43.456464" lon="-3.463218">
        <ele>2.741</ele>
        <time>2019-06-16T15:02:39Z</time>
      </trkpt>
      <trkpt lat="43.456642" lon="-3.463409">
        <ele>3.531</ele>
        <time>2019-06-16T15:02:40Z</time>
      </trkpt>
      <trkpt lat="43.456805" lon="-3.463612">
        <ele>3.087</ele>
        <time>2019-06-16T15:02:41Z</time>
      </trkpt>
      <trkpt lat="43.456983" lon="-3.463811">
        <ele>2.836</ele>
        <time>2019-06-16T15:02:42Z</time>
      </trkpt>
      <trkpt lat="43.457139" lon="-3.464022">
        <ele>2.313</ele>
        <time>2019-06-16T15:02:43Z</time>
      </trkpt>
      <trkpt lat="43.457299" lon="-3.464233">
        <ele>2.943</ele>
        <time>2019-06-16T15:02:44Z</time>
      </trkpt>
      <trkpt lat="43.457453" lon="-3.464448">
        <ele>3.707</ele>
        <time>2019-06-16T15:02:45Z</time>
      </trkpt>
      <trkpt lat="43.457618" lon="-3.464666">
        <ele>3.508</ele>
        <time>2019-06-16T15:02:46Z</time>
      </trkpt>
      <trkpt lat="43.457770" lon="-3.464879">
        <ele>4.094</ele>
        <time>2019-06-16T15:02:47Z</time>
      </trkpt>
      <trkpt lat="43.457941" lon="-3.465109">
        <ele>4.068</ele>
        <time>2019-06-16T15:02:48Z</time>
      </trkpt>
      <trkpt lat="43.458130" lon="-3.465333">
        <ele>3.428</ele>
        <time>2019-06-16T15:02:49Z</time>
      </trkpt>
      <trkpt lat="43.458297" lon="-3.465566">
        <ele>3.882</ele>
        <time>2019-06-16T15:02:50Z</time>
      </trkpt>
      <trkpt lat="43.458452" lon="-3.465814">
        <ele>3.061</ele>
        <time>2019-06-16T15:02:51Z</time>
      </trkpt>
      <trkpt lat="43.458615" lon="-3.466073">
        <ele>3.881</ele>
        <time>2019-06-16T15:02:52Z</time>
      </trkpt>
      <trkpt lat="43.458760" lon="-3.466319">
        <ele>3.087</ele>
        <time>2019-06-16T15:02:53Z</time>
      </trkpt>
      <trkpt lat="43.458904" lon="-3.466582">
        <ele>3.086</ele>
        <time>2019-06-16T15:02:54Z</time>
      </trkpt>
      <trkpt lat="43.459065" lon="-3.466848">
        <ele>3.217</ele>
        <time>2019-06-16T15:02:55Z</time>
      </trkpt>
      <trkpt lat="43.459210" lon="-3.467118">
        <ele>3.287</ele>
        <time>2019-06-16T15:02:56Z</time>
      </trkpt>
      <trkpt lat="43.459366" lon="-3.467390">
        <ele>3.315</ele>
        <time>2019-06-16T15:02:57Z</time>
      </trkpt>
      <trkpt lat="43.459512" lon="-3.467666">
        <ele>3.208</ele>
        <time>2019-06-16T15:02:58Z</time>
      </trkpt>
      <trkpt lat="43.459654" lon="-3.467939">
        <ele>3.274</ele>
        <time>2019-06-16T15:02:59Z</time>
      </trkpt>
      <trkpt lat="43.459758" lon="-3.468201">
        <ele>3.448</ele>
        <time>2019-06-16T15:03:00Z</time>
      </trkpt>
      <trkpt lat="43.459927" lon="-3.468467">
        <ele>2.928</ele>
        <time>2019-06-16T15:03:01Z</time>
      </trkpt>
      <trkpt lat="43.460093" lon="-3.468735">
        <ele>3.012</ele>
        <time>2019-06-16T15:03:02Z</time>
      </trkpt>
      <trkpt lat="43.460239" lon="-3.469022">
        <ele>2.941</ele>
        <time>2019-06-16T15:03:03Z</time>
      </trkpt>
      <trkpt lat="43.460349" lon="-3.469321">
        <ele>3.011</ele>
        <time>2019-06-16T15:03:04Z</time>
      </trkpt>
      <trkpt lat="43.460469" lon="-3.469621">
        <ele>2.877</ele>
        <time>2019-06-16T15:03:05Z</time>
      </trkpt>
      <trkpt lat="43.460582" lon="-3.469906">
        <ele>3.696</ele>
        <time>2019-06-16T15:03:06Z</time>
      </trkpt>
      <trkpt lat="43.460691" lon="-3.470207">
        <ele>3.178</ele>
        <time>2019-06-16T15:03:07Z</time>
      </trkpt>
      <trkpt lat="43.460800" lon="-3.470515">
        <ele>3.833</ele>
        <time>2019-06-16T15:03:08Z</time>
      </trkpt>
      <trkpt lat="43.460891" lon="-3.470832">
        <ele>3.026</ele>
        <time>2019-06-16T15:03:09Z</time>
      </trkpt>
      <trkpt lat="43.460972" lon="-3.471158">
        <ele>2.908</ele>
        <time>2019-06-16T15:03:10Z</time>
      </trkpt>
      <trkpt lat="43.461045" lon="-3.471484">
        <ele>2.830</ele>
        <time>2019-06-16T15:03:11Z</time>
      </trkpt>
      <trkpt lat="43.461109" lon="-3.471800">
        <ele>3.584</ele>
        <time>2019-06-16T15:03:12Z</time>
      </trkpt>
      <trkpt lat="43.461167" lon="-3.472125">
        <ele>3.784</ele>
        <time>2019-06-16T15:03:13Z</time>
      </trkpt>
      <trkpt lat="43.461220" lon="-3.472468">
        <ele>3.478</ele>
        <time>2019-06-16T15:03:14Z</time>
      </trkpt>
      <trkpt lat="43.461270" lon="-3.472801">
        <ele>3.047</ele>
        <time>2019-06-16T15:03:15Z</time>
      </trkpt>
      <trkpt lat="43.461313" lon="-3.473132">
        <ele>3.847</ele>
        <time>2019-06-16T15:03:16Z</time>
      </trkpt>
      <trkpt lat="43.461341" lon="-3.473484">
        <ele>4.293</ele>
        <time>2019-06-16T15:03:17Z</time>
      </trkpt>
      <trkpt lat="43.461365" lon="-3.473837">
        <ele>5.152</ele>
        <time>2019-06-16T15:03:18Z</time>
      </trkpt>
      <trkpt lat="43.461388" lon="-3.474200">
        <ele>5.069</ele>
        <time>2019-06-16T15:03:19Z</time>
      </trkpt>
      <trkpt lat="43.461407" lon="-3.474560">
        <ele>4.904</ele>
        <time>2019-06-16T15:03:20Z</time>
      </trkpt>
      <trkpt lat="43.461414" lon="-3.474901">
        <ele>5.624</ele>
        <time>2019-06-16T15:03:21Z</time>
      </trkpt>
      <trkpt lat="43.461420" lon="-3.475244">
        <ele>5.908</ele>
        <time>2019-06-16T15:03:22Z</time>
      </trkpt>
      <trkpt lat="43.461393" lon="-3.475625">
        <ele>5.089</ele>
        <time>2019-06-16T15:03:23Z</time>
      </trkpt>
      <trkpt lat="43.461381" lon="-3.475970">
        <ele>4.673</ele>
        <time>2019-06-16T15:03:24Z</time>
      </trkpt>
      <trkpt lat="43.461356" lon="-3.476316">
        <ele>3.473</ele>
        <time>2019-06-16T15:03:25Z</time>
      </trkpt>
      <trkpt lat="43.461315" lon="-3.476658">
        <ele>2.827</ele>
        <time>2019-06-16T15:03:26Z</time>
      </trkpt>
      <trkpt lat="43.461266" lon="-3.476991">
        <ele>2.626</ele>
        <time>2019-06-16T15:03:27Z</time>
      </trkpt>
      <trkpt lat="43.461204" lon="-3.477324">
        <ele>2.576</ele>
        <time>2019-06-16T15:03:28Z</time>
      </trkpt>
      <trkpt lat="43.461170" lon="-3.477631">
        <ele>2.822</ele>
        <time>2019-06-16T15:03:29Z</time>
      </trkpt>
      <trkpt lat="43.461114" lon="-3.477938">
        <ele>3.031</ele>
        <time>2019-06-16T15:03:30Z</time>
      </trkpt>
      <trkpt lat="43.461055" lon="-3.478224">
        <ele>2.629</ele>
        <time>2019-06-16T15:03:31Z</time>
      </trkpt>
      <trkpt lat="43.460991" lon="-3.478490">
        <ele>2.400</ele>
        <time>2019-06-16T15:03:32Z</time>
      </trkpt>
      <trkpt lat="43.460924" lon="-3.478745">
        <ele>2.720</ele>
        <time>2019-06-16T15:03:33Z</time>
      </trkpt>
      <trkpt lat="43.460855" lon="-3.478992">
        <ele>3.308</ele>
        <time>2019-06-16T15:03:34Z</time>
      </trkpt>
      <trkpt lat="43.460821" lon="-3.479194">
        <ele>3.995</ele>
        <time>2019-06-16T15:03:35Z</time>
      </trkpt>
      <trkpt lat="43.460808" lon="-3.479282">
        <ele>3.919</ele>
        <time>2019-06-16T15:03:36Z</time>
      </trkpt>
      <trkpt lat="43.460781" lon="-3.479418">
        <ele>4.019</ele>
        <time>2019-06-16T15:03:37Z</time>
      </trkpt>
      <trkpt lat="43.460785" lon="-3.479533">
        <ele>4.363</ele>
        <time>2019-06-16T15:03:38Z</time>
      </trkpt>
      <trkpt lat="43.460800" lon="-3.479637">
        <ele>4.652</ele>
        <time>2019-06-16T15:03:39Z</time>
      </trkpt>
      <trkpt lat="43.460803" lon="-3.479747">
        <ele>4.912</ele>
        <time>2019-06-16T15:03:40Z</time>
      </trkpt>
      <trkpt lat="43.460795" lon="-3.479846">
        <ele>4.998</ele>
        <time>2019-06-16T15:03:41Z</time>
      </trkpt>
      <trkpt lat="43.460768" lon="-3.479933">
        <ele>4.837</ele>
        <time>2019-06-16T15:03:42Z</time>
      </trkpt>
      <trkpt lat="43.460744" lon="-3.480015">
        <ele>4.968</ele>
        <time>2019-06-16T15:03:43Z</time>
      </trkpt>
      <trkpt lat="43.460683" lon="-3.480068">
        <ele>5.242</ele>
        <time>2019-06-16T15:03:44Z</time>
      </trkpt>
      <trkpt lat="43.460593" lon="-3.480055">
        <ele>4.426</ele>
        <time>2019-06-16T15:03:45Z</time>
      </trkpt>
      <trkpt lat="43.460514" lon="-3.480059">
        <ele>4.108</ele>
        <time>2019-06-16T15:03:46Z</time>
      </trkpt>
      <trkpt lat="43.460443" lon="-3.479962">
        <ele>3.699</ele>
        <time>2019-06-16T15:03:47Z</time>
      </trkpt>
      <trkpt lat="43.460354" lon="-3.479894">
        <ele>3.363</ele>
        <time>2019-06-16T15:03:48Z</time>
      </trkpt>
      <trkpt lat="43.460253" lon="-3.479851">
        <ele>3.073</ele>
        <time>2019-06-16T15:03:49Z</time>
      </trkpt>
      <trkpt lat="43.460155" lon="-3.479814">
        <ele>3.077</ele>
        <time>2019-06-16T15:03:50Z</time>
      </trkpt>
      <trkpt lat="43.460036" lon="-3.479876">
        <ele>3.086</ele>
        <time>2019-06-16T15:03:51Z</time>
      </trkpt>
      <trkpt lat="43.459924" lon="-3.479924">
        <ele>2.966</ele>
        <time>2019-06-16T15:03:52Z</time>
      </trkpt>
      <trkpt lat="43.459814" lon="-3.480007">
        <ele>3.012</ele>
        <time>2019-06-16T15:03:53Z</time>
      </trkpt>
      <trkpt lat="43.459725" lon="-3.480153">
        <ele>3.081</ele>
        <time>2019-06-16T15:03:54Z</time>
      </trkpt>
      <trkpt lat="43.459630" lon="-3.480314">
        <ele>2.877</ele>
        <time>2019-06-16T15:03:55Z</time>
      </trkpt>
      <trkpt lat="43.459536" lon="-3.480477">
        <ele>3.061</ele>
        <time>2019-06-16T15:03:56Z</time>
      </trkpt>
      <trkpt lat="43.459462" lon="-3.480670">
        <ele>3.127</ele>
        <time>2019-06-16T15:03:57Z</time>
      </trkpt>
      <trkpt lat="43.459411" lon="-3.480897">
        <ele>2.908</ele>
        <time>2019-06-16T15:03:58Z</time>
      </trkpt>
      <trkpt lat="43.459355" lon="-3.481125">
        <ele>2.770</ele>
        <time>2019-06-16T15:03:59Z</time>
      </trkpt>
      <trkpt lat="43.459320" lon="-3.481358">
        <ele>2.684</ele>
        <time>2019-06-16T15:04:00Z</time>
      </trkpt>
      <trkpt lat="43.459290" lon="-3.481585">
        <ele>2.414</ele>
        <time>2019-06-16T15:04:01Z</time>
      </trkpt>
      <trkpt lat="43.459266" lon="-3.481811">
        <ele>2.468</ele>
        <time>2019-06-16T15:04:02Z</time>
      </trkpt>
      <trkpt lat="43.459228" lon="-3.482022">
        <ele>2.577</ele>
        <time>2019-06-16T15:04:03Z</time>
      </trkpt>
      <trkpt lat="43.459185" lon="-3.482228">
        <ele>3.187</ele>
        <time>2019-06-16T15:04:04Z</time>
      </trkpt>
      <trkpt lat="43.459141" lon="-3.482412">
        <ele>2.843</ele>
        <time>2019-06-16T15:04:05Z</time>
      </trkpt>
      <trkpt lat="43.459092" lon="-3.482598">
        <ele>2.832</ele>
        <time>2019-06-16T15:04:06Z</time>
      </trkpt>
      <trkpt lat="43.459028" lon="-3.482752">
        <ele>2.983</ele>
        <time>2019-06-16T15:04:07Z</time>
      </trkpt>
      <trkpt lat="43.458981" lon="-3.482869">
        <ele>2.925</ele>
        <time>2019-06-16T15:04:08Z</time>
      </trkpt>
      <trkpt lat="43.458955" lon="-3.482966">
        <ele>3.017</ele>
        <time>2019-06-16T15:04:09Z</time>
      </trkpt>
      <trkpt lat="43.458887" lon="-3.483064">
        <ele>3.008</ele>
        <time>2019-06-16T15:04:10Z</time>
      </trkpt>
      <trkpt lat="43.458822" lon="-3.483159">
        <ele>2.871</ele>
        <time>2019-06-16T15:04:11Z</time>
      </trkpt>
      <trkpt lat="43.458773" lon="-3.483229">
        <ele>2.865</ele>
        <time>2019-06-16T15:04:12Z</time>
      </trkpt>
      <trkpt lat="43.458729" lon="-3.483304">
        <ele>2.915</ele>
        <time>2019-06-16T15:04:13Z</time>
      </trkpt>
      <trkpt lat="43.458699" lon="-3.483378">
        <ele>3.139</ele>
        <time>2019-06-16T15:04:14Z</time>
      </trkpt>
      <trkpt lat="43.458658" lon="-3.483446">
        <ele>3.128</ele>
        <time>2019-06-16T15:04:15Z</time>
      </trkpt>
      <trkpt lat="43.458613" lon="-3.483524">
        <ele>3.088</ele>
        <time>2019-06-16T15:04:16Z</time>
      </trkpt>
      <trkpt lat="43.458566" lon="-3.483592">
        <ele>2.824</ele>
        <time>2019-06-16T15:04:17Z</time>
      </trkpt>
      <trkpt lat="43.458521" lon="-3.483668">
        <ele>2.943</ele>
        <time>2019-06-16T15:04:18Z</time>
      </trkpt>
      <trkpt lat="43.458470" lon="-3.483745">
        <ele>3.052</ele>
        <time>2019-06-16T15:04:19Z</time>
      </trkpt>
      <trkpt lat="43.458425" lon="-3.483839">
        <ele>3.153</ele>
        <time>2019-06-16T15:04:20Z</time>
      </trkpt>
      <trkpt lat="43.458338" lon="-3.483965">
        <ele>3.008</ele>
        <time>2019-06-16T15:04:21Z</time>
      </trkpt>
      <trkpt lat="43.458289" lon="-3.484056">
        <ele>2.908</ele>
        <time>2019-06-16T15:04:22Z</time>
      </trkpt>
      <trkpt lat="43.458205" lon="-3.484186">
        <ele>3.038</ele>
        <time>2019-06-16T15:04:23Z</time>
      </trkpt>
      <trkpt lat="43.458131" lon="-3.484314">
        <ele>3.112</ele>
        <time>2019-06-16T15:04:24Z</time>
      </trkpt>
      <trkpt lat="43.458049" lon="-3.484428">
        <ele>3.042</ele>
        <time>2019-06-16T15:04:25Z</time>
      </trkpt>
      <trkpt lat="43.457969" lon="-3.484556">
        <ele>3.396</ele>
        <time>2019-06-16T15:04:26Z</time>
      </trkpt>
      <trkpt lat="43.457880" lon="-3.484689">
        <ele>3.395</ele>
        <time>2019-06-16T15:04:27Z</time>
      </trkpt>
      <trkpt lat="43.457799" lon="-3.484817">
        <ele>3.155</ele>
        <time>2019-06-16T15:04:28Z</time>
      </trkpt>
      <trkpt lat="43.457721" lon="-3.484934">
        <ele>3.091</ele>
        <time>2019-06-16T15:04:29Z</time>
      </trkpt>
      <trkpt lat="43.457647" lon="-3.485048">
        <ele>3.180</ele>
        <time>2019-06-16T15:04:30Z</time>
      </trkpt>
      <trkpt lat="43.457585" lon="-3.485150">
        <ele>3.288</ele>
        <time>2019-06-16T15:04:31Z</time>
      </trkpt>
      <trkpt lat="43.457519" lon="-3.485258">
        <ele>3.124</ele>
        <time>2019-06-16T15:04:32Z</time>
      </trkpt>
      <trkpt lat="43.457457" lon="-3.485356">
        <ele>3.226</ele>
        <time>2019-06-16T15:04:33Z</time>
      </trkpt>
      <trkpt lat="43.457398" lon="-3.485458">
        <ele>3.408</ele>
        <time>2019-06-16T15:04:34Z</time>
      </trkpt>
      <trkpt lat="43.457347" lon="-3.485560">
        <ele>3.531</ele>
        <time>2019-06-16T15:04:35Z</time>
      </trkpt>
      <trkpt lat="43.457302" lon="-3.485648">
        <ele>3.525</ele>
        <time>2019-06-16T15:04:36Z</time>
      </trkpt>
      <trkpt lat="43.457262" lon="-3.485745">
        <ele>3.715</ele>
        <time>2019-06-16T15:04:37Z</time>
      </trkpt>
      <trkpt lat="43.457227" lon="-3.485866">
        <ele>3.999</ele>
        <time>2019-06-16T15:04:38Z</time>
      </trkpt>
      <trkpt lat="43.457210" lon="-3.485990">
        <ele>3.578</ele>
        <time>2019-06-16T15:04:39Z</time>
      </trkpt>
      <trkpt lat="43.457203" lon="-3.486133">
        <ele>3.148</ele>
        <time>2019-06-16T15:04:40Z</time>
      </trkpt>
      <trkpt lat="43.457209" lon="-3.486283">
        <ele>3.014</ele>
        <time>2019-06-16T15:04:41Z</time>
      </trkpt>
      <trkpt lat="43.457251" lon="-3.486427">
        <ele>3.153</ele>
        <time>2019-06-16T15:04:42Z</time>
      </trkpt>
      <trkpt lat="43.457289" lon="-3.486609">
        <ele>3.293</ele>
        <time>2019-06-16T15:04:43Z</time>
      </trkpt>
      <trkpt lat="43.457332" lon="-3.486798">
        <ele>3.265</ele>
        <time>2019-06-16T15:04:44Z</time>
      </trkpt>
      <trkpt lat="43.457382" lon="-3.486972">
        <ele>3.021</ele>
        <time>2019-06-16T15:04:45Z</time>
      </trkpt>
      <trkpt lat="43.457423" lon="-3.487170">
        <ele>3.008</ele>
        <time>2019-06-16T15:04:46Z</time>
      </trkpt>
      <trkpt lat="43.457464" lon="-3.487360">
        <ele>3.542</ele>
        <time>2019-06-16T15:04:47Z</time>
      </trkpt>
      <trkpt lat="43.457491" lon="-3.487547">
        <ele>4.076</ele>
        <time>2019-06-16T15:04:48Z</time>
      </trkpt>
      <trkpt lat="43.457510" lon="-3.487729">
        <ele>4.086</ele>
        <time>2019-06-16T15:04:49Z</time>
      </trkpt>
      <trkpt lat="43.457520" lon="-3.487910">
        <ele>4.070</ele>
        <time>2019-06-16T15:04:50Z</time>
      </trkpt>
      <trkpt lat="43.457529" lon="-3.488092">
        <ele>4.099</ele>
        <time>2019-06-16T15:04:51Z</time>
      </trkpt>
      <trkpt lat="43.457536" lon="-3.488272">
        <ele>4.059</ele>
        <time>2019-06-16T15:04:52Z</time>
      </trkpt>
      <trkpt lat="43.457503" lon="-3.488485">
        <ele>4.085</ele>
        <time>2019-06-16T15:04:53Z</time>
      </trkpt>
      <trkpt lat="43.457466" lon="-3.488696">
        <ele>4.324</ele>
        <time>2019-06-16T15:04:54Z</time>
      </trkpt>
      <trkpt lat="43.457411" lon="-3.488882">
        <ele>5.059</ele>
        <time>2019-06-16T15:04:55Z</time>
      </trkpt>
      <trkpt lat="43.457355" lon="-3.489104">
        <ele>5.003</ele>
        <time>2019-06-16T15:04:56Z</time>
      </trkpt>
      <trkpt lat="43.457318" lon="-3.489325">
        <ele>5.023</ele>
        <time>2019-06-16T15:04:57Z</time>
      </trkpt>
      <trkpt lat="43.457283" lon="-3.489557">
        <ele>5.408</ele>
        <time>2019-06-16T15:04:58Z</time>
      </trkpt>
      <trkpt lat="43.457249" lon="-3.489781">
        <ele>6.098</ele>
        <time>2019-06-16T15:04:59Z</time>
      </trkpt>
      <trkpt lat="43.457199" lon="-3.490009">
        <ele>6.172</ele>
        <time>2019-06-16T15:05:00Z</time>
      </trkpt>
      <trkpt lat="43.457153" lon="-3.490219">
        <ele>6.882</ele>
        <time>2019-06-16T15:05:01Z</time>
      </trkpt>
      <trkpt lat="43.457094" lon="-3.490430">
        <ele>7.026</ele>
        <time>2019-06-16T15:05:02Z</time>
      </trkpt>
      <trkpt lat="43.457038" lon="-3.490623">
        <ele>7.095</ele>
        <time>2019-06-16T15:05:03Z</time>
      </trkpt>
      <trkpt lat="43.456987" lon="-3.490812">
        <ele>7.055</ele>
        <time>2019-06-16T15:05:04Z</time>
      </trkpt>
      <trkpt lat="43.456926" lon="-3.490999">
        <ele>7.781</ele>
        <time>2019-06-16T15:05:05Z</time>
      </trkpt>
      <trkpt lat="43.456885" lon="-3.491170">
        <ele>8.340</ele>
        <time>2019-06-16T15:05:06Z</time>
      </trkpt>
      <trkpt lat="43.456839" lon="-3.491356">
        <ele>8.741</ele>
        <time>2019-06-16T15:05:07Z</time>
      </trkpt>
      <trkpt lat="43.456792" lon="-3.491558">
        <ele>9.081</ele>
        <time>2019-06-16T15:05:08Z</time>
      </trkpt>
      <trkpt lat="43.456760" lon="-3.491754">
        <ele>9.209</ele>
        <time>2019-06-16T15:05:09Z</time>
      </trkpt>
      <trkpt lat="43.456749" lon="-3.491957">
        <ele>9.708</ele>
        <time>2019-06-16T15:05:10Z</time>
      </trkpt>
      <trkpt lat="43.456745" lon="-3.492167">
        <ele>10.587</ele>
        <time>2019-06-16T15:05:11Z</time>
      </trkpt>
      <trkpt lat="43.456749" lon="-3.492365">
        <ele>10.781</ele>
        <time>2019-06-16T15:05:12Z</time>
      </trkpt>
      <trkpt lat="43.456753" lon="-3.492557">
        <ele>10.931</ele>
        <time>2019-06-16T15:05:13Z</time>
      </trkpt>
      <trkpt lat="43.456778" lon="-3.492725">
        <ele>11.455</ele>
        <time>2019-06-16T15:05:14Z</time>
      </trkpt>
      <trkpt lat="43.456774" lon="-3.492916">
        <ele>11.814</ele>
        <time>2019-06-16T15:05:15Z</time>
      </trkpt>
      <trkpt lat="43.456758" lon="-3.493094">
        <ele>12.144</ele>
        <time>2019-06-16T15:05:16Z</time>
      </trkpt>
      <trkpt lat="43.456734" lon="-3.493273">
        <ele>12.810</ele>
        <time>2019-06-16T15:05:17Z</time>
      </trkpt>
      <trkpt lat="43.456730" lon="-3.493441">
        <ele>13.029</ele>
        <time>2019-06-16T15:05:18Z</time>
      </trkpt>
      <trkpt lat="43.456714" lon="-3.493619">
        <ele>13.064</ele>
        <time>2019-06-16T15:05:19Z</time>
      </trkpt>
      <trkpt lat="43.456751" lon="-3.493732">
        <ele>13.406</ele>
        <time>2019-06-16T15:05:20Z</time>
      </trkpt>
      <trkpt lat="43.456788" lon="-3.493898">
        <ele>14.016</ele>
        <time>2019-06-16T15:05:21Z</time>
      </trkpt>
      <trkpt lat="43.456840" lon="-3.494048">
        <ele>14.008</ele>
        <time>2019-06-16T15:05:22Z</time>
      </trkpt>
      <trkpt lat="43.456896" lon="-3.494195">
        <ele>14.119</ele>
        <time>2019-06-16T15:05:23Z</time>
      </trkpt>
      <trkpt lat="43.456963" lon="-3.494372">
        <ele>14.723</ele>
        <time>2019-06-16T15:05:24Z</time>
      </trkpt>
      <trkpt lat="43.457021" lon="-3.494533">
        <ele>15.013</ele>
        <time>2019-06-16T15:05:25Z</time>
      </trkpt>
      <trkpt lat="43.457068" lon="-3.494686">
        <ele>15.027</ele>
        <time>2019-06-16T15:05:26Z</time>
      </trkpt>
      <trkpt lat="43.457062" lon="-3.494836">
        <ele>15.286</ele>
        <time>2019-06-16T15:05:27Z</time>
      </trkpt>
      <trkpt lat="43.457064" lon="-3.494995">
        <ele>15.626</ele>
        <time>2019-06-16T15:05:28Z</time>
      </trkpt>
      <trkpt lat="43.457030" lon="-3.495156">
        <ele>15.722</ele>
        <time>2019-06-16T15:05:29Z</time>
      </trkpt>
      <trkpt lat="43.456986" lon="-3.495345">
        <ele>15.921</ele>
        <time>2019-06-16T15:05:30Z</time>
      </trkpt>
      <trkpt lat="43.456935" lon="-3.495523">
        <ele>16.027</ele>
        <time>2019-06-16T15:05:31Z</time>
      </trkpt>
      <trkpt lat="43.456898" lon="-3.495727">
        <ele>16.768</ele>
        <time>2019-06-16T15:05:32Z</time>
      </trkpt>
      <trkpt lat="43.456854" lon="-3.495939">
        <ele>17.114</ele>
        <time>2019-06-16T15:05:33Z</time>
      </trkpt>
      <trkpt lat="43.456830" lon="-3.496153">
        <ele>17.508</ele>
        <time>2019-06-16T15:05:34Z</time>
      </trkpt>
      <trkpt lat="43.456814" lon="-3.496380">
        <ele>18.085</ele>
        <time>2019-06-16T15:05:35Z</time>
      </trkpt>
      <trkpt lat="43.456808" lon="-3.496605">
        <ele>18.449</ele>
        <time>2019-06-16T15:05:36Z</time>
      </trkpt>
      <trkpt lat="43.456801" lon="-3.496824">
        <ele>18.869</ele>
        <time>2019-06-16T15:05:37Z</time>
      </trkpt>
      <trkpt lat="43.456799" lon="-3.497040">
        <ele>19.333</ele>
        <time>2019-06-16T15:05:38Z</time>
      </trkpt>
      <trkpt lat="43.456799" lon="-3.497250">
        <ele>20.142</ele>
        <time>2019-06-16T15:05:39Z</time>
      </trkpt>
      <trkpt lat="43.456817" lon="-3.497455">
        <ele>20.882</ele>
        <time>2019-06-16T15:05:40Z</time>
      </trkpt>
      <trkpt lat="43.456841" lon="-3.497636">
        <ele>21.078</ele>
        <time>2019-06-16T15:05:41Z</time>
      </trkpt>
      <trkpt lat="43.456869" lon="-3.497821">
        <ele>21.037</ele>
        <time>2019-06-16T15:05:42Z</time>
      </trkpt>
      <trkpt lat="43.456900" lon="-3.498008">
        <ele>21.081</ele>
        <time>2019-06-16T15:05:43Z</time>
      </trkpt>
      <trkpt lat="43.456911" lon="-3.498212">
        <ele>21.661</ele>
        <time>2019-06-16T15:05:44Z</time>
      </trkpt>
      <trkpt lat="43.456917" lon="-3.498412">
        <ele>22.317</ele>
        <time>2019-06-16T15:05:45Z</time>
      </trkpt>
      <trkpt lat="43.456931" lon="-3.498618">
        <ele>23.008</ele>
        <time>2019-06-16T15:05:46Z</time>
      </trkpt>
      <trkpt lat="43.456941" lon="-3.498823">
        <ele>23.061</ele>
        <time>2019-06-16T15:05:47Z</time>
      </trkpt>
      <trkpt lat="43.456981" lon="-3.499024">
        <ele>23.165</ele>
        <time>2019-06-16T15:05:48Z</time>
      </trkpt>
      <trkpt lat="43.457048" lon="-3.499224">
        <ele>23.585</ele>
        <time>2019-06-16T15:05:49Z</time>
      </trkpt>
      <trkpt lat="43.457100" lon="-3.499461">
        <ele>24.049</ele>
        <time>2019-06-16T15:05:50Z</time>
      </trkpt>
      <trkpt lat="43.457140" lon="-3.499717">
        <ele>24.068</ele>
        <time>2019-06-16T15:05:51Z</time>
      </trkpt>
      <trkpt lat="43.457183" lon="-3.499981">
        <ele>24.038</ele>
        <time>2019-06-16T15:05:52Z</time>
      </trkpt>
      <trkpt lat="43.457226" lon="-3.500250">
        <ele>24.984</ele>
        <time>2019-06-16T15:05:53Z</time>
      </trkpt>
      <trkpt lat="43.457285" lon="-3.500519">
        <ele>25.763</ele>
        <time>2019-06-16T15:05:54Z</time>
      </trkpt>
      <trkpt lat="43.457337" lon="-3.500795">
        <ele>25.965</ele>
        <time>2019-06-16T15:05:55Z</time>
      </trkpt>
      <trkpt lat="43.457389" lon="-3.501069">
        <ele>26.368</ele>
        <time>2019-06-16T15:05:56Z</time>
      </trkpt>
      <trkpt lat="43.457457" lon="-3.501324">
        <ele>26.214</ele>
        <time>2019-06-16T15:05:57Z</time>
      </trkpt>
      <trkpt lat="43.457508" lon="-3.501603">
        <ele>26.808</ele>
        <time>2019-06-16T15:05:58Z</time>
      </trkpt>
      <trkpt lat="43.457554" lon="-3.501878">
        <ele>27.889</ele>
        <time>2019-06-16T15:05:59Z</time>
      </trkpt>
      <trkpt lat="43.457602" lon="-3.502155">
        <ele>28.093</ele>
        <time>2019-06-16T15:06:00Z</time>
      </trkpt>
      <trkpt lat="43.457647" lon="-3.502426">
        <ele>28.323</ele>
        <time>2019-06-16T15:06:01Z</time>
      </trkpt>
      <trkpt lat="43.457681" lon="-3.502688">
        <ele>28.617</ele>
        <time>2019-06-16T15:06:02Z</time>
      </trkpt>
      <trkpt lat="43.457726" lon="-3.502930">
        <ele>28.876</ele>
        <time>2019-06-16T15:06:03Z</time>
      </trkpt>
      <trkpt lat="43.457766" lon="-3.503172">
        <ele>29.136</ele>
        <time>2019-06-16T15:06:04Z</time>
      </trkpt>
      <trkpt lat="43.457799" lon="-3.503402">
        <ele>29.332</ele>
        <time>2019-06-16T15:06:05Z</time>
      </trkpt>
      <trkpt lat="43.457831" lon="-3.503629">
        <ele>30.171</ele>
        <time>2019-06-16T15:06:06Z</time>
      </trkpt>
      <trkpt lat="43.457866" lon="-3.503850">
        <ele>30.617</ele>
        <time>2019-06-16T15:06:07Z</time>
      </trkpt>
      <trkpt lat="43.457909" lon="-3.504061">
        <ele>30.987</ele>
        <time>2019-06-16T15:06:08Z</time>
      </trkpt>
      <trkpt lat="43.457943" lon="-3.504271">
        <ele>31.015</ele>
        <time>2019-06-16T15:06:09Z</time>
      </trkpt>
      <trkpt lat="43.457975" lon="-3.504462">
        <ele>31.308</ele>
        <time>2019-06-16T15:06:10Z</time>
      </trkpt>
      <trkpt lat="43.457998" lon="-3.504644">
        <ele>31.424</ele>
        <time>2019-06-16T15:06:11Z</time>
      </trkpt>
      <trkpt lat="43.458033" lon="-3.504818">
        <ele>31.268</ele>
        <time>2019-06-16T15:06:12Z</time>
      </trkpt>
      <trkpt lat="43.458068" lon="-3.504986">
        <ele>31.038</ele>
        <time>2019-06-16T15:06:13Z</time>
      </trkpt>
      <trkpt lat="43.458112" lon="-3.505136">
        <ele>31.432</ele>
        <time>2019-06-16T15:06:14Z</time>
      </trkpt>
      <trkpt lat="43.458164" lon="-3.505195">
        <ele>31.461</ele>
        <time>2019-06-16T15:06:15Z</time>
      </trkpt>
      <trkpt lat="43.458214" lon="-3.505291">
        <ele>31.441</ele>
        <time>2019-06-16T15:06:16Z</time>
      </trkpt>
      <trkpt lat="43.458232" lon="-3.505389">
        <ele>31.417</ele>
        <time>2019-06-16T15:06:17Z</time>
      </trkpt>
      <trkpt lat="43.458262" lon="-3.505510">
        <ele>31.396</ele>
        <time>2019-06-16T15:06:18Z</time>
      </trkpt>
      <trkpt lat="43.458265" lon="-3.505617">
        <ele>31.289</ele>
        <time>2019-06-16T15:06:19Z</time>
      </trkpt>
      <trkpt lat="43.458270" lon="-3.505740">
        <ele>31.206</ele>
        <time>2019-06-16T15:06:20Z</time>
      </trkpt>
      <trkpt lat="43.458285" lon="-3.505876">
        <ele>31.226</ele>
        <time>2019-06-16T15:06:21Z</time>
      </trkpt>
      <trkpt lat="43.458327" lon="-3.506019">
        <ele>31.008</ele>
        <time>2019-06-16T15:06:22Z</time>
      </trkpt>
      <trkpt lat="43.458376" lon="-3.506194">
        <ele>31.051</ele>
        <time>2019-06-16T15:06:23Z</time>
      </trkpt>
      <trkpt lat="43.458439" lon="-3.506359">
        <ele>30.765</ele>
        <time>2019-06-16T15:06:24Z</time>
      </trkpt>
      <trkpt lat="43.458483" lon="-3.506554">
        <ele>30.285</ele>
        <time>2019-06-16T15:06:25Z</time>
      </trkpt>
      <trkpt lat="43.458534" lon="-3.506752">
        <ele>30.189</ele>
        <time>2019-06-16T15:06:26Z</time>
      </trkpt>
      <trkpt lat="43.458589" lon="-3.506949">
        <ele>30.158</ele>
        <time>2019-06-16T15:06:27Z</time>
      </trkpt>
      <trkpt lat="43.458648" lon="-3.507148">
        <ele>30.078</ele>
        <time>2019-06-16T15:06:28Z</time>
      </trkpt>
      <trkpt lat="43.458714" lon="-3.507334">
        <ele>30.014</ele>
        <time>2019-06-16T15:06:29Z</time>
      </trkpt>
      <trkpt lat="43.458761" lon="-3.507542">
        <ele>30.013</ele>
        <time>2019-06-16T15:06:30Z</time>
      </trkpt>
      <trkpt lat="43.458810" lon="-3.507756">
        <ele>30.065</ele>
        <time>2019-06-16T15:06:31Z</time>
      </trkpt>
      <trkpt lat="43.458863" lon="-3.507964">
        <ele>29.468</ele>
        <time>2019-06-16T15:06:32Z</time>
      </trkpt>
      <trkpt lat="43.458917" lon="-3.508167">
        <ele>29.014</ele>
        <time>2019-06-16T15:06:33Z</time>
      </trkpt>
      <trkpt lat="43.458971" lon="-3.508361">
        <ele>29.108</ele>
        <time>2019-06-16T15:06:34Z</time>
      </trkpt>
      <trkpt lat="43.459021" lon="-3.508556">
        <ele>29.499</ele>
        <time>2019-06-16T15:06:35Z</time>
      </trkpt>
      <trkpt lat="43.459075" lon="-3.508756">
        <ele>29.373</ele>
        <time>2019-06-16T15:06:36Z</time>
      </trkpt>
      <trkpt lat="43.459133" lon="-3.508948">
        <ele>29.183</ele>
        <time>2019-06-16T15:06:37Z</time>
      </trkpt>
      <trkpt lat="43.459183" lon="-3.509150">
        <ele>28.967</ele>
        <time>2019-06-16T15:06:38Z</time>
      </trkpt>
      <trkpt lat="43.459230" lon="-3.509362">
        <ele>28.866</ele>
        <time>2019-06-16T15:06:39Z</time>
      </trkpt>
      <trkpt lat="43.459278" lon="-3.509580">
        <ele>28.616</ele>
        <time>2019-06-16T15:06:40Z</time>
      </trkpt>
      <trkpt lat="43.459321" lon="-3.509798">
        <ele>28.672</ele>
        <time>2019-06-16T15:06:41Z</time>
      </trkpt>
      <trkpt lat="43.459370" lon="-3.510027">
        <ele>28.521</ele>
        <time>2019-06-16T15:06:42Z</time>
      </trkpt>
      <trkpt lat="43.459389" lon="-3.510234">
        <ele>28.115</ele>
        <time>2019-06-16T15:06:43Z</time>
      </trkpt>
      <trkpt lat="43.459414" lon="-3.510435">
        <ele>27.565</ele>
        <time>2019-06-16T15:06:44Z</time>
      </trkpt>
      <trkpt lat="43.459440" lon="-3.510634">
        <ele>27.111</ele>
        <time>2019-06-16T15:06:45Z</time>
      </trkpt>
      <trkpt lat="43.459472" lon="-3.510835">
        <ele>26.808</ele>
        <time>2019-06-16T15:06:46Z</time>
      </trkpt>
      <trkpt lat="43.459504" lon="-3.511040">
        <ele>26.624</ele>
        <time>2019-06-16T15:06:47Z</time>
      </trkpt>
      <trkpt lat="43.459533" lon="-3.511265">
        <ele>25.698</ele>
        <time>2019-06-16T15:06:48Z</time>
      </trkpt>
      <trkpt lat="43.459564" lon="-3.511509">
        <ele>25.088</ele>
        <time>2019-06-16T15:06:49Z</time>
      </trkpt>
      <trkpt lat="43.459594" lon="-3.511764">
        <ele>25.052</ele>
        <time>2019-06-16T15:06:50Z</time>
      </trkpt>
      <trkpt lat="43.459635" lon="-3.512035">
        <ele>25.011</ele>
        <time>2019-06-16T15:06:51Z</time>
      </trkpt>
      <trkpt lat="43.459672" lon="-3.512307">
        <ele>25.091</ele>
        <time>2019-06-16T15:06:52Z</time>
      </trkpt>
      <trkpt lat="43.459708" lon="-3.512587">
        <ele>24.797</ele>
        <time>2019-06-16T15:06:53Z</time>
      </trkpt>
      <trkpt lat="43.459746" lon="-3.512876">
        <ele>24.076</ele>
        <time>2019-06-16T15:06:54Z</time>
      </trkpt>
      <trkpt lat="43.459791" lon="-3.513168">
        <ele>23.466</ele>
        <time>2019-06-16T15:06:55Z</time>
      </trkpt>
      <trkpt lat="43.459834" lon="-3.513468">
        <ele>22.829</ele>
        <time>2019-06-16T15:06:56Z</time>
      </trkpt>
      <trkpt lat="43.459880" lon="-3.513774">
        <ele>22.121</ele>
        <time>2019-06-16T15:06:57Z</time>
      </trkpt>
      <trkpt lat="43.459928" lon="-3.514092">
        <ele>20.808</ele>
        <time>2019-06-16T15:06:58Z</time>
      </trkpt>
      <trkpt lat="43.459973" lon="-3.514409">
        <ele>21.129</ele>
        <time>2019-06-16T15:06:59Z</time>
      </trkpt>
      <trkpt lat="43.460033" lon="-3.514722">
        <ele>20.843</ele>
        <time>2019-06-16T15:07:00Z</time>
      </trkpt>
      <trkpt lat="43.460102" lon="-3.515012">
        <ele>20.553</ele>
        <time>2019-06-16T15:07:01Z</time>
      </trkpt>
      <trkpt lat="43.460168" lon="-3.515316">
        <ele>19.157</ele>
        <time>2019-06-16T15:07:02Z</time>
      </trkpt>
      <trkpt lat="43.460234" lon="-3.515611">
        <ele>18.456</ele>
        <time>2019-06-16T15:07:03Z</time>
      </trkpt>
      <trkpt lat="43.460305" lon="-3.515901">
        <ele>17.666</ele>
        <time>2019-06-16T15:07:04Z</time>
      </trkpt>
      <trkpt lat="43.460378" lon="-3.516212">
        <ele>16.612</ele>
        <time>2019-06-16T15:07:05Z</time>
      </trkpt>
      <trkpt lat="43.460440" lon="-3.516519">
        <ele>16.491</ele>
        <time>2019-06-16T15:07:06Z</time>
      </trkpt>
      <trkpt lat="43.460512" lon="-3.516812">
        <ele>16.297</ele>
        <time>2019-06-16T15:07:07Z</time>
      </trkpt>
      <trkpt lat="43.460581" lon="-3.517108">
        <ele>16.023</ele>
        <time>2019-06-16T15:07:08Z</time>
      </trkpt>
      <trkpt lat="43.460649" lon="-3.517414">
        <ele>15.325</ele>
        <time>2019-06-16T15:07:09Z</time>
      </trkpt>
      <trkpt lat="43.460722" lon="-3.517724">
        <ele>14.508</ele>
        <time>2019-06-16T15:07:10Z</time>
      </trkpt>
      <trkpt lat="43.460799" lon="-3.518042">
        <ele>14.182</ele>
        <time>2019-06-16T15:07:11Z</time>
      </trkpt>
      <trkpt lat="43.460879" lon="-3.518354">
        <ele>12.876</ele>
        <time>2019-06-16T15:07:12Z</time>
      </trkpt>
      <trkpt lat="43.460958" lon="-3.518677">
        <ele>12.966</ele>
        <time>2019-06-16T15:07:13Z</time>
      </trkpt>
      <trkpt lat="43.461028" lon="-3.519006">
        <ele>12.410</ele>
        <time>2019-06-16T15:07:14Z</time>
      </trkpt>
      <trkpt lat="43.461104" lon="-3.519335">
        <ele>12.119</ele>
        <time>2019-06-16T15:07:15Z</time>
      </trkpt>
      <trkpt lat="43.461193" lon="-3.519662">
        <ele>11.419</ele>
        <time>2019-06-16T15:07:16Z</time>
      </trkpt>
      <trkpt lat="43.461280" lon="-3.519981">
        <ele>11.185</ele>
        <time>2019-06-16T15:07:17Z</time>
      </trkpt>
      <trkpt lat="43.461369" lon="-3.520316">
        <ele>10.214</ele>
        <time>2019-06-16T15:07:18Z</time>
      </trkpt>
      <trkpt lat="43.461458" lon="-3.520655">
        <ele>9.864</ele>
        <time>2019-06-16T15:07:19Z</time>
      </trkpt>
      <trkpt lat="43.461544" lon="-3.521003">
        <ele>9.406</ele>
        <time>2019-06-16T15:07:20Z</time>
      </trkpt>
      <trkpt lat="43.461627" lon="-3.521354">
        <ele>9.116</ele>
        <time>2019-06-16T15:07:21Z</time>
      </trkpt>
      <trkpt lat="43.461705" lon="-3.521707">
        <ele>8.908</ele>
        <time>2019-06-16T15:07:22Z</time>
      </trkpt>
      <trkpt lat="43.461790" lon="-3.522060">
        <ele>8.669</ele>
        <time>2019-06-16T15:07:23Z</time>
      </trkpt>
      <trkpt lat="43.461880" lon="-3.522417">
        <ele>8.263</ele>
        <time>2019-06-16T15:07:24Z</time>
      </trkpt>
      <trkpt lat="43.461980" lon="-3.522774">
        <ele>7.913</ele>
        <time>2019-06-16T15:07:25Z</time>
      </trkpt>
      <trkpt lat="43.462071" lon="-3.523126">
        <ele>7.597</ele>
        <time>2019-06-16T15:07:26Z</time>
      </trkpt>
      <trkpt lat="43.462167" lon="-3.523489">
        <ele>7.216</ele>
        <time>2019-06-16T15:07:27Z</time>
      </trkpt>
      <trkpt lat="43.462257" lon="-3.523829">
        <ele>7.046</ele>
        <time>2019-06-16T15:07:28Z</time>
      </trkpt>
      <trkpt lat="43.462352" lon="-3.524179">
        <ele>7.432</ele>
        <time>2019-06-16T15:07:29Z</time>
      </trkpt>
      <trkpt lat="43.462443" lon="-3.524536">
        <ele>6.931</ele>
        <time>2019-06-16T15:07:30Z</time>
      </trkpt>
      <trkpt lat="43.462536" lon="-3.524890">
        <ele>6.682</ele>
        <time>2019-06-16T15:07:31Z</time>
      </trkpt>
      <trkpt lat="43.462628" lon="-3.525238">
        <ele>6.943</ele>
        <time>2019-06-16T15:07:32Z</time>
      </trkpt>
      <trkpt lat="43.462717" lon="-3.525591">
        <ele>6.117</ele>
        <time>2019-06-16T15:07:33Z</time>
      </trkpt>
      <trkpt lat="43.462815" lon="-3.525928">
        <ele>6.208</ele>
        <time>2019-06-16T15:07:34Z</time>
      </trkpt>
      <trkpt lat="43.462910" lon="-3.526226">
        <ele>6.011</ele>
        <time>2019-06-16T15:07:35Z</time>
      </trkpt>
      <trkpt lat="43.462988" lon="-3.526535">
        <ele>5.955</ele>
        <time>2019-06-16T15:07:36Z</time>
      </trkpt>
      <trkpt lat="43.463059" lon="-3.526827">
        <ele>6.075</ele>
        <time>2019-06-16T15:07:37Z</time>
      </trkpt>
      <trkpt lat="43.463128" lon="-3.527114">
        <ele>5.749</ele>
        <time>2019-06-16T15:07:38Z</time>
      </trkpt>
      <trkpt lat="43.463191" lon="-3.527407">
        <ele>6.238</ele>
        <time>2019-06-16T15:07:39Z</time>
      </trkpt>
      <trkpt lat="43.463275" lon="-3.527704">
        <ele>6.238</ele>
        <time>2019-06-16T15:07:40Z</time>
      </trkpt>
      <trkpt lat="43.463342" lon="-3.527999">
        <ele>6.094</ele>
        <time>2019-06-16T15:07:41Z</time>
      </trkpt>
      <trkpt lat="43.463416" lon="-3.528286">
        <ele>6.073</ele>
        <time>2019-06-16T15:07:42Z</time>
      </trkpt>
      <trkpt lat="43.463492" lon="-3.528582">
        <ele>5.524</ele>
        <time>2019-06-16T15:07:43Z</time>
      </trkpt>
      <trkpt lat="43.463566" lon="-3.528842">
        <ele>5.904</ele>
        <time>2019-06-16T15:07:44Z</time>
      </trkpt>
      <trkpt lat="43.463633" lon="-3.529101">
        <ele>6.014</ele>
        <time>2019-06-16T15:07:45Z</time>
      </trkpt>
      <trkpt lat="43.463703" lon="-3.529334">
        <ele>6.408</ele>
        <time>2019-06-16T15:07:46Z</time>
      </trkpt>
      <trkpt lat="43.463757" lon="-3.529585">
        <ele>6.515</ele>
        <time>2019-06-16T15:07:47Z</time>
      </trkpt>
      <trkpt lat="43.463815" lon="-3.529819">
        <ele>6.479</ele>
        <time>2019-06-16T15:07:48Z</time>
      </trkpt>
      <trkpt lat="43.463879" lon="-3.530070">
        <ele>6.349</ele>
        <time>2019-06-16T15:07:49Z</time>
      </trkpt>
      <trkpt lat="43.463938" lon="-3.530301">
        <ele>6.853</ele>
        <time>2019-06-16T15:07:50Z</time>
      </trkpt>
      <trkpt lat="43.464006" lon="-3.530555">
        <ele>7.082</ele>
        <time>2019-06-16T15:07:51Z</time>
      </trkpt>
      <trkpt lat="43.464074" lon="-3.530791">
        <ele>6.772</ele>
        <time>2019-06-16T15:07:52Z</time>
      </trkpt>
      <trkpt lat="43.464134" lon="-3.531028">
        <ele>6.948</ele>
        <time>2019-06-16T15:07:53Z</time>
      </trkpt>
      <trkpt lat="43.464196" lon="-3.531260">
        <ele>7.117</ele>
        <time>2019-06-16T15:07:54Z</time>
      </trkpt>
      <trkpt lat="43.464254" lon="-3.531482">
        <ele>7.345</ele>
        <time>2019-06-16T15:07:55Z</time>
      </trkpt>
      <trkpt lat="43.464295" lon="-3.531698">
        <ele>7.547</ele>
        <time>2019-06-16T15:07:56Z</time>
      </trkpt>
      <trkpt lat="43.464348" lon="-3.531926">
        <ele>7.711</ele>
        <time>2019-06-16T15:07:57Z</time>
      </trkpt>
      <trkpt lat="43.464409" lon="-3.532146">
        <ele>7.908</ele>
        <time>2019-06-16T15:07:58Z</time>
      </trkpt>
      <trkpt lat="43.464473" lon="-3.532352">
        <ele>8.067</ele>
        <time>2019-06-16T15:07:59Z</time>
      </trkpt>
      <trkpt lat="43.464535" lon="-3.532550">
        <ele>7.991</ele>
        <time>2019-06-16T15:08:00Z</time>
      </trkpt>
      <trkpt lat="43.464587" lon="-3.532709">
        <ele>8.051</ele>
        <time>2019-06-16T15:08:01Z</time>
      </trkpt>
      <trkpt lat="43.464636" lon="-3.532894">
        <ele>8.555</ele>
        <time>2019-06-16T15:08:02Z</time>
      </trkpt>
      <trkpt lat="43.464680" lon="-3.533066">
        <ele>8.824</ele>
        <time>2019-06-16T15:08:03Z</time>
      </trkpt>
      <trkpt lat="43.464724" lon="-3.533227">
        <ele>9.094</ele>
        <time>2019-06-16T15:08:04Z</time>
      </trkpt>
      <trkpt lat="43.464768" lon="-3.533365">
        <ele>9.010</ele>
        <time>2019-06-16T15:08:05Z</time>
      </trkpt>
      <trkpt lat="43.464817" lon="-3.533501">
        <ele>9.059</ele>
        <time>2019-06-16T15:08:06Z</time>
      </trkpt>
      <trkpt lat="43.464860" lon="-3.533624">
        <ele>9.036</ele>
        <time>2019-06-16T15:08:07Z</time>
      </trkpt>
      <trkpt lat="43.464904" lon="-3.533745">
        <ele>9.317</ele>
        <time>2019-06-16T15:08:08Z</time>
      </trkpt>
      <trkpt lat="43.464942" lon="-3.533794">
        <ele>9.518</ele>
        <time>2019-06-16T15:08:09Z</time>
      </trkpt>
      <trkpt lat="43.464965" lon="-3.533855">
        <ele>9.808</ele>
        <time>2019-06-16T15:08:10Z</time>
      </trkpt>
      <trkpt lat="43.465050" lon="-3.533918">
        <ele>10.146</ele>
        <time>2019-06-16T15:08:12Z</time>
      </trkpt>
      <trkpt lat="43.465098" lon="-3.533983">
        <ele>10.290</ele>
        <time>2019-06-16T15:08:13Z</time>
      </trkpt>
      <trkpt lat="43.465151" lon="-3.534057">
        <ele>10.370</ele>
        <time>2019-06-16T15:08:14Z</time>
      </trkpt>
      <trkpt lat="43.465184" lon="-3.534138">
        <ele>10.384</ele>
        <time>2019-06-16T15:08:15Z</time>
      </trkpt>
      <trkpt lat="43.465220" lon="-3.534243">
        <ele>10.453</ele>
        <time>2019-06-16T15:08:16Z</time>
      </trkpt>
      <trkpt lat="43.465209" lon="-3.534390">
        <ele>10.993</ele>
        <time>2019-06-16T15:08:17Z</time>
      </trkpt>
      <trkpt lat="43.465195" lon="-3.534522">
        <ele>11.029</ele>
        <time>2019-06-16T15:08:18Z</time>
      </trkpt>
      <trkpt lat="43.465179" lon="-3.534677">
        <ele>11.068</ele>
        <time>2019-06-16T15:08:19Z</time>
      </trkpt>
      <trkpt lat="43.465186" lon="-3.534852">
        <ele>11.347</ele>
        <time>2019-06-16T15:08:20Z</time>
      </trkpt>
      <trkpt lat="43.465210" lon="-3.535044">
        <ele>11.929</ele>
        <time>2019-06-16T15:08:21Z</time>
      </trkpt>
      <trkpt lat="43.465250" lon="-3.535230">
        <ele>12.721</ele>
        <time>2019-06-16T15:08:22Z</time>
      </trkpt>
      <trkpt lat="43.465288" lon="-3.535410">
        <ele>13.008</ele>
        <time>2019-06-16T15:08:23Z</time>
      </trkpt>
      <trkpt lat="43.465329" lon="-3.535614">
        <ele>13.467</ele>
        <time>2019-06-16T15:08:24Z</time>
      </trkpt>
      <trkpt lat="43.465379" lon="-3.535819">
        <ele>14.091</ele>
        <time>2019-06-16T15:08:25Z</time>
      </trkpt>
      <trkpt lat="43.465427" lon="-3.536028">
        <ele>14.791</ele>
        <time>2019-06-16T15:08:26Z</time>
      </trkpt>
      <trkpt lat="43.465484" lon="-3.536231">
        <ele>15.365</ele>
        <time>2019-06-16T15:08:27Z</time>
      </trkpt>
      <trkpt lat="43.465529" lon="-3.536439">
        <ele>15.994</ele>
        <time>2019-06-16T15:08:28Z</time>
      </trkpt>
      <trkpt lat="43.465594" lon="-3.536629">
        <ele>16.194</ele>
        <time>2019-06-16T15:08:29Z</time>
      </trkpt>
      <trkpt lat="43.465642" lon="-3.536833">
        <ele>16.740</ele>
        <time>2019-06-16T15:08:30Z</time>
      </trkpt>
      <trkpt lat="43.465690" lon="-3.537044">
        <ele>17.259</ele>
        <time>2019-06-16T15:08:31Z</time>
      </trkpt>
      <trkpt lat="43.465746" lon="-3.537248">
        <ele>17.483</ele>
        <time>2019-06-16T15:08:32Z</time>
      </trkpt>
      <trkpt lat="43.465800" lon="-3.537455">
        <ele>17.925</ele>
        <time>2019-06-16T15:08:33Z</time>
      </trkpt>
      <trkpt lat="43.465849" lon="-3.537655">
        <ele>18.117</ele>
        <time>2019-06-16T15:08:34Z</time>
      </trkpt>
      <trkpt lat="43.465904" lon="-3.537868">
        <ele>18.208</ele>
        <time>2019-06-16T15:08:35Z</time>
      </trkpt>
      <trkpt lat="43.465951" lon="-3.538096">
        <ele>18.191</ele>
        <time>2019-06-16T15:08:36Z</time>
      </trkpt>
      <trkpt lat="43.466006" lon="-3.538327">
        <ele>19.015</ele>
        <time>2019-06-16T15:08:37Z</time>
      </trkpt>
      <trkpt lat="43.466057" lon="-3.538560">
        <ele>19.015</ele>
        <time>2019-06-16T15:08:38Z</time>
      </trkpt>
      <trkpt lat="43.466112" lon="-3.538783">
        <ele>19.629</ele>
        <time>2019-06-16T15:08:39Z</time>
      </trkpt>
      <trkpt lat="43.466166" lon="-3.539004">
        <ele>20.158</ele>
        <time>2019-06-16T15:08:40Z</time>
      </trkpt>
      <trkpt lat="43.466212" lon="-3.539215">
        <ele>20.528</ele>
        <time>2019-06-16T15:08:41Z</time>
      </trkpt>
      <trkpt lat="43.466261" lon="-3.539427">
        <ele>21.014</ele>
        <time>2019-06-16T15:08:42Z</time>
      </trkpt>
      <trkpt lat="43.466317" lon="-3.539632">
        <ele>21.233</ele>
        <time>2019-06-16T15:08:43Z</time>
      </trkpt>
      <trkpt lat="43.466368" lon="-3.539834">
        <ele>21.414</ele>
        <time>2019-06-16T15:08:44Z</time>
      </trkpt>
      <trkpt lat="43.466421" lon="-3.540040">
        <ele>21.954</ele>
        <time>2019-06-16T15:08:45Z</time>
      </trkpt>
      <trkpt lat="43.466473" lon="-3.540250">
        <ele>21.709</ele>
        <time>2019-06-16T15:08:46Z</time>
      </trkpt>
      <trkpt lat="43.466531" lon="-3.540461">
        <ele>21.808</ele>
        <time>2019-06-16T15:08:47Z</time>
      </trkpt>
      <trkpt lat="43.466585" lon="-3.540685">
        <ele>22.024</ele>
        <time>2019-06-16T15:08:48Z</time>
      </trkpt>
      <trkpt lat="43.466641" lon="-3.540915">
        <ele>22.088</ele>
        <time>2019-06-16T15:08:49Z</time>
      </trkpt>
      <trkpt lat="43.466697" lon="-3.541150">
        <ele>22.118</ele>
        <time>2019-06-16T15:08:50Z</time>
      </trkpt>
      <trkpt lat="43.466748" lon="-3.541372">
        <ele>22.772</ele>
        <time>2019-06-16T15:08:51Z</time>
      </trkpt>
      <trkpt lat="43.466800" lon="-3.541599">
        <ele>23.251</ele>
        <time>2019-06-16T15:08:52Z</time>
      </trkpt>
      <trkpt lat="43.466855" lon="-3.541806">
        <ele>23.771</ele>
        <time>2019-06-16T15:08:53Z</time>
      </trkpt>
      <trkpt lat="43.466910" lon="-3.542016">
        <ele>24.197</ele>
        <time>2019-06-16T15:08:54Z</time>
      </trkpt>
      <trkpt lat="43.466969" lon="-3.542249">
        <ele>25.166</ele>
        <time>2019-06-16T15:08:55Z</time>
      </trkpt>
      <trkpt lat="43.467029" lon="-3.542501">
        <ele>26.049</ele>
        <time>2019-06-16T15:08:56Z</time>
      </trkpt>
      <trkpt lat="43.467089" lon="-3.542749">
        <ele>26.002</ele>
        <time>2019-06-16T15:08:57Z</time>
      </trkpt>
      <trkpt lat="43.467147" lon="-3.542988">
        <ele>26.622</ele>
        <time>2019-06-16T15:08:58Z</time>
      </trkpt>
      <trkpt lat="43.467210" lon="-3.543210">
        <ele>27.508</ele>
        <time>2019-06-16T15:08:59Z</time>
      </trkpt>
      <trkpt lat="43.467263" lon="-3.543448">
        <ele>28.137</ele>
        <time>2019-06-16T15:09:00Z</time>
      </trkpt>
      <trkpt lat="43.467320" lon="-3.543680">
        <ele>28.441</ele>
        <time>2019-06-16T15:09:01Z</time>
      </trkpt>
      <trkpt lat="43.467381" lon="-3.543928">
        <ele>29.211</ele>
        <time>2019-06-16T15:09:02Z</time>
      </trkpt>
      <trkpt lat="43.467445" lon="-3.544183">
        <ele>29.925</ele>
        <time>2019-06-16T15:09:03Z</time>
      </trkpt>
      <trkpt lat="43.467505" lon="-3.544430">
        <ele>30.914</ele>
        <time>2019-06-16T15:09:04Z</time>
      </trkpt>
      <trkpt lat="43.467563" lon="-3.544667">
        <ele>31.834</ele>
        <time>2019-06-16T15:09:05Z</time>
      </trkpt>
      <trkpt lat="43.467631" lon="-3.544905">
        <ele>32.310</ele>
        <time>2019-06-16T15:09:06Z</time>
      </trkpt>
      <trkpt lat="43.467684" lon="-3.545141">
        <ele>33.379</ele>
        <time>2019-06-16T15:09:07Z</time>
      </trkpt>
      <trkpt lat="43.467739" lon="-3.545360">
        <ele>34.099</ele>
        <time>2019-06-16T15:09:08Z</time>
      </trkpt>
      <trkpt lat="43.467802" lon="-3.545598">
        <ele>33.907</ele>
        <time>2019-06-16T15:09:09Z</time>
      </trkpt>
      <trkpt lat="43.467871" lon="-3.545821">
        <ele>33.727</ele>
        <time>2019-06-16T15:09:10Z</time>
      </trkpt>
      <trkpt lat="43.467933" lon="-3.546082">
        <ele>34.308</ele>
        <time>2019-06-16T15:09:11Z</time>
      </trkpt>
      <trkpt lat="43.467999" lon="-3.546341">
        <ele>34.222</ele>
        <time>2019-06-16T15:09:12Z</time>
      </trkpt>
      <trkpt lat="43.468058" lon="-3.546592">
        <ele>34.726</ele>
        <time>2019-06-16T15:09:13Z</time>
      </trkpt>
      <trkpt lat="43.468121" lon="-3.546852">
        <ele>34.376</ele>
        <time>2019-06-16T15:09:14Z</time>
      </trkpt>
      <trkpt lat="43.468182" lon="-3.547126">
        <ele>34.280</ele>
        <time>2019-06-16T15:09:15Z</time>
      </trkpt>
      <trkpt lat="43.468239" lon="-3.547398">
        <ele>34.869</ele>
        <time>2019-06-16T15:09:16Z</time>
      </trkpt>
      <trkpt lat="43.468289" lon="-3.547672">
        <ele>35.539</ele>
        <time>2019-06-16T15:09:17Z</time>
      </trkpt>
      <trkpt lat="43.468314" lon="-3.547966">
        <ele>36.735</ele>
        <time>2019-06-16T15:09:18Z</time>
      </trkpt>
      <trkpt lat="43.468335" lon="-3.548271">
        <ele>37.044</ele>
        <time>2019-06-16T15:09:19Z</time>
      </trkpt>
      <trkpt lat="43.468348" lon="-3.548562">
        <ele>37.834</ele>
        <time>2019-06-16T15:09:20Z</time>
      </trkpt>
      <trkpt lat="43.468368" lon="-3.548858">
        <ele>38.155</ele>
        <time>2019-06-16T15:09:21Z</time>
      </trkpt>
      <trkpt lat="43.468406" lon="-3.549154">
        <ele>39.510</ele>
        <time>2019-06-16T15:09:22Z</time>
      </trkpt>
      <trkpt lat="43.468437" lon="-3.549448">
        <ele>40.008</ele>
        <time>2019-06-16T15:09:23Z</time>
      </trkpt>
      <trkpt lat="43.468497" lon="-3.549747">
        <ele>40.416</ele>
        <time>2019-06-16T15:09:24Z</time>
      </trkpt>
      <trkpt lat="43.468552" lon="-3.550037">
        <ele>40.560</ele>
        <time>2019-06-16T15:09:25Z</time>
      </trkpt>
      <trkpt lat="43.468613" lon="-3.550317">
        <ele>40.070</ele>
        <time>2019-06-16T15:09:26Z</time>
      </trkpt>
      <trkpt lat="43.468675" lon="-3.550605">
        <ele>40.164</ele>
        <time>2019-06-16T15:09:27Z</time>
      </trkpt>
      <trkpt lat="43.468719" lon="-3.550905">
        <ele>40.673</ele>
        <time>2019-06-16T15:09:28Z</time>
      </trkpt>
      <trkpt lat="43.468777" lon="-3.551191">
        <ele>40.663</ele>
        <time>2019-06-16T15:09:29Z</time>
      </trkpt>
      <trkpt lat="43.468811" lon="-3.551520">
        <ele>41.119</ele>
        <time>2019-06-16T15:09:30Z</time>
      </trkpt>
      <trkpt lat="43.468861" lon="-3.551825">
        <ele>41.748</ele>
        <time>2019-06-16T15:09:31Z</time>
      </trkpt>
      <trkpt lat="43.468918" lon="-3.552130">
        <ele>42.014</ele>
        <time>2019-06-16T15:09:32Z</time>
      </trkpt>
      <trkpt lat="43.468992" lon="-3.552410">
        <ele>41.754</ele>
        <time>2019-06-16T15:09:33Z</time>
      </trkpt>
      <trkpt lat="43.469048" lon="-3.552700">
        <ele>41.709</ele>
        <time>2019-06-16T15:09:34Z</time>
      </trkpt>
      <trkpt lat="43.469110" lon="-3.552995">
        <ele>42.808</ele>
        <time>2019-06-16T15:09:35Z</time>
      </trkpt>
      <trkpt lat="43.469172" lon="-3.553285">
        <ele>43.094</ele>
        <time>2019-06-16T15:09:36Z</time>
      </trkpt>
      <trkpt lat="43.469229" lon="-3.553561">
        <ele>43.018</ele>
        <time>2019-06-16T15:09:37Z</time>
      </trkpt>
      <trkpt lat="43.469283" lon="-3.553836">
        <ele>43.388</ele>
        <time>2019-06-16T15:09:38Z</time>
      </trkpt>
      <trkpt lat="43.469326" lon="-3.554127">
        <ele>43.992</ele>
        <time>2019-06-16T15:09:39Z</time>
      </trkpt>
      <trkpt lat="43.469370" lon="-3.554405">
        <ele>44.951</ele>
        <time>2019-06-16T15:09:40Z</time>
      </trkpt>
      <trkpt lat="43.469423" lon="-3.554685">
        <ele>46.761</ele>
        <time>2019-06-16T15:09:41Z</time>
      </trkpt>
      <trkpt lat="43.469478" lon="-3.554959">
        <ele>47.327</ele>
        <time>2019-06-16T15:09:42Z</time>
      </trkpt>
      <trkpt lat="43.469521" lon="-3.555227">
        <ele>49.016</ele>
        <time>2019-06-16T15:09:43Z</time>
      </trkpt>
      <trkpt lat="43.469567" lon="-3.555500">
        <ele>50.754</ele>
        <time>2019-06-16T15:09:44Z</time>
      </trkpt>
      <trkpt lat="43.469588" lon="-3.555801">
        <ele>51.956</ele>
        <time>2019-06-16T15:09:45Z</time>
      </trkpt>
      <trkpt lat="43.469603" lon="-3.556063">
        <ele>52.311</ele>
        <time>2019-06-16T15:09:46Z</time>
      </trkpt>
      <trkpt lat="43.469604" lon="-3.556327">
        <ele>53.208</ele>
        <time>2019-06-16T15:09:47Z</time>
      </trkpt>
      <trkpt lat="43.469604" lon="-3.556585">
        <ele>54.148</ele>
        <time>2019-06-16T15:09:48Z</time>
      </trkpt>
      <trkpt lat="43.469586" lon="-3.556839">
        <ele>54.852</ele>
        <time>2019-06-16T15:09:49Z</time>
      </trkpt>
      <trkpt lat="43.469572" lon="-3.557083">
        <ele>55.262</ele>
        <time>2019-06-16T15:09:50Z</time>
      </trkpt>
      <trkpt lat="43.469562" lon="-3.557331">
        <ele>55.466</ele>
        <time>2019-06-16T15:09:51Z</time>
      </trkpt>
      <trkpt lat="43.469550" lon="-3.557575">
        <ele>55.565</ele>
        <time>2019-06-16T15:09:52Z</time>
      </trkpt>
      <trkpt lat="43.469552" lon="-3.557818">
        <ele>55.995</ele>
        <time>2019-06-16T15:09:53Z</time>
      </trkpt>
      <trkpt lat="43.469538" lon="-3.558063">
        <ele>56.741</ele>
        <time>2019-06-16T15:09:54Z</time>
      </trkpt>
      <trkpt lat="43.469528" lon="-3.558302">
        <ele>57.520</ele>
        <time>2019-06-16T15:09:55Z</time>
      </trkpt>
      <trkpt lat="43.469519" lon="-3.558541">
        <ele>58.111</ele>
        <time>2019-06-16T15:09:56Z</time>
      </trkpt>
      <trkpt lat="43.469503" lon="-3.558776">
        <ele>58.221</ele>
        <time>2019-06-16T15:09:57Z</time>
      </trkpt>
      <trkpt lat="43.469480" lon="-3.559015">
        <ele>58.503</ele>
        <time>2019-06-16T15:09:58Z</time>
      </trkpt>
      <trkpt lat="43.469468" lon="-3.559234">
        <ele>58.908</ele>
        <time>2019-06-16T15:09:59Z</time>
      </trkpt>
      <trkpt lat="43.469468" lon="-3.559439">
        <ele>58.924</ele>
        <time>2019-06-16T15:10:00Z</time>
      </trkpt>
      <trkpt lat="43.469461" lon="-3.559624">
        <ele>58.968</ele>
        <time>2019-06-16T15:10:01Z</time>
      </trkpt>
      <trkpt lat="43.469457" lon="-3.559802">
        <ele>59.078</ele>
        <time>2019-06-16T15:10:02Z</time>
      </trkpt>
      <trkpt lat="43.469454" lon="-3.559969">
        <ele>59.022</ele>
        <time>2019-06-16T15:10:03Z</time>
      </trkpt>
      <trkpt lat="43.469446" lon="-3.560134">
        <ele>59.091</ele>
        <time>2019-06-16T15:10:04Z</time>
      </trkpt>
      <trkpt lat="43.469447" lon="-3.560318">
        <ele>59.071</ele>
        <time>2019-06-16T15:10:05Z</time>
      </trkpt>
      <trkpt lat="43.469464" lon="-3.560500">
        <ele>58.927</ele>
        <time>2019-06-16T15:10:06Z</time>
      </trkpt>
      <trkpt lat="43.469474" lon="-3.560709">
        <ele>58.356</ele>
        <time>2019-06-16T15:10:07Z</time>
      </trkpt>
      <trkpt lat="43.469483" lon="-3.560929">
        <ele>57.952</ele>
        <time>2019-06-16T15:10:08Z</time>
      </trkpt>
      <trkpt lat="43.469486" lon="-3.561113">
        <ele>57.953</ele>
        <time>2019-06-16T15:10:09Z</time>
      </trkpt>
      <trkpt lat="43.469502" lon="-3.561320">
        <ele>57.808</ele>
        <time>2019-06-16T15:10:10Z</time>
      </trkpt>
      <trkpt lat="43.469509" lon="-3.561518">
        <ele>57.308</ele>
        <time>2019-06-16T15:10:11Z</time>
      </trkpt>
      <trkpt lat="43.469522" lon="-3.561716">
        <ele>56.728</ele>
        <time>2019-06-16T15:10:12Z</time>
      </trkpt>
      <trkpt lat="43.469549" lon="-3.561912">
        <ele>56.642</ele>
        <time>2019-06-16T15:10:13Z</time>
      </trkpt>
      <trkpt lat="43.469563" lon="-3.562113">
        <ele>56.282</ele>
        <time>2019-06-16T15:10:14Z</time>
      </trkpt>
      <trkpt lat="43.469572" lon="-3.562316">
        <ele>56.046</ele>
        <time>2019-06-16T15:10:15Z</time>
      </trkpt>
      <trkpt lat="43.469592" lon="-3.562521">
        <ele>55.975</ele>
        <time>2019-06-16T15:10:16Z</time>
      </trkpt>
      <trkpt lat="43.469609" lon="-3.562729">
        <ele>55.275</ele>
        <time>2019-06-16T15:10:17Z</time>
      </trkpt>
      <trkpt lat="43.469632" lon="-3.562939">
        <ele>55.041</ele>
        <time>2019-06-16T15:10:18Z</time>
      </trkpt>
      <trkpt lat="43.469641" lon="-3.563165">
        <ele>54.730</ele>
        <time>2019-06-16T15:10:19Z</time>
      </trkpt>
      <trkpt lat="43.469653" lon="-3.563392">
        <ele>54.238</ele>
        <time>2019-06-16T15:10:20Z</time>
      </trkpt>
      <trkpt lat="43.469662" lon="-3.563622">
        <ele>54.070</ele>
        <time>2019-06-16T15:10:21Z</time>
      </trkpt>
      <trkpt lat="43.469672" lon="-3.563870">
        <ele>54.017</ele>
        <time>2019-06-16T15:10:22Z</time>
      </trkpt>
      <trkpt lat="43.469691" lon="-3.564132">
        <ele>53.108</ele>
        <time>2019-06-16T15:10:23Z</time>
      </trkpt>
      <trkpt lat="43.469711" lon="-3.564404">
        <ele>53.076</ele>
        <time>2019-06-16T15:10:24Z</time>
      </trkpt>
      <trkpt lat="43.469728" lon="-3.564675">
        <ele>53.090</ele>
        <time>2019-06-16T15:10:25Z</time>
      </trkpt>
      <trkpt lat="43.469762" lon="-3.564940">
        <ele>52.980</ele>
        <time>2019-06-16T15:10:26Z</time>
      </trkpt>
      <trkpt lat="43.469784" lon="-3.565218">
        <ele>52.634</ele>
        <time>2019-06-16T15:10:27Z</time>
      </trkpt>
      <trkpt lat="43.469804" lon="-3.565509">
        <ele>51.883</ele>
        <time>2019-06-16T15:10:28Z</time>
      </trkpt>
      <trkpt lat="43.469833" lon="-3.565793">
        <ele>50.783</ele>
        <time>2019-06-16T15:10:29Z</time>
      </trkpt>
      <trkpt lat="43.469855" lon="-3.566081">
        <ele>50.149</ele>
        <time>2019-06-16T15:10:30Z</time>
      </trkpt>
      <trkpt lat="43.469867" lon="-3.566387">
        <ele>48.558</ele>
        <time>2019-06-16T15:10:31Z</time>
      </trkpt>
      <trkpt lat="43.469879" lon="-3.566702">
        <ele>46.969</ele>
        <time>2019-06-16T15:10:32Z</time>
      </trkpt>
      <trkpt lat="43.469906" lon="-3.567000">
        <ele>46.504</ele>
        <time>2019-06-16T15:10:33Z</time>
      </trkpt>
      <trkpt lat="43.469922" lon="-3.567304">
        <ele>45.524</ele>
        <time>2019-06-16T15:10:34Z</time>
      </trkpt>
      <trkpt lat="43.469945" lon="-3.567607">
        <ele>44.608</ele>
        <time>2019-06-16T15:10:35Z</time>
      </trkpt>
      <trkpt lat="43.469960" lon="-3.567899">
        <ele>43.689</ele>
        <time>2019-06-16T15:10:36Z</time>
      </trkpt>
      <trkpt lat="43.469977" lon="-3.568187">
        <ele>42.593</ele>
        <time>2019-06-16T15:10:37Z</time>
      </trkpt>
      <trkpt lat="43.469996" lon="-3.568445">
        <ele>41.663</ele>
        <time>2019-06-16T15:10:38Z</time>
      </trkpt>
      <trkpt lat="43.469976" lon="-3.568735">
        <ele>41.237</ele>
        <time>2019-06-16T15:10:39Z</time>
      </trkpt>
      <trkpt lat="43.469953" lon="-3.569006">
        <ele>41.046</ele>
        <time>2019-06-16T15:10:40Z</time>
      </trkpt>
      <trkpt lat="43.469919" lon="-3.569263">
        <ele>40.816</ele>
        <time>2019-06-16T15:10:41Z</time>
      </trkpt>
      <trkpt lat="43.469883" lon="-3.569529">
        <ele>40.732</ele>
        <time>2019-06-16T15:10:42Z</time>
      </trkpt>
      <trkpt lat="43.469852" lon="-3.569779">
        <ele>40.281</ele>
        <time>2019-06-16T15:10:43Z</time>
      </trkpt>
      <trkpt lat="43.469818" lon="-3.570027">
        <ele>39.279</ele>
        <time>2019-06-16T15:10:44Z</time>
      </trkpt>
      <trkpt lat="43.469831" lon="-3.570275">
        <ele>38.205</ele>
        <time>2019-06-16T15:10:45Z</time>
      </trkpt>
      <trkpt lat="43.469853" lon="-3.570522">
        <ele>38.125</ele>
        <time>2019-06-16T15:10:46Z</time>
      </trkpt>
      <trkpt lat="43.469879" lon="-3.570783">
        <ele>37.908</ele>
        <time>2019-06-16T15:10:47Z</time>
      </trkpt>
      <trkpt lat="43.469921" lon="-3.571074">
        <ele>36.950</ele>
        <time>2019-06-16T15:10:48Z</time>
      </trkpt>
      <trkpt lat="43.469943" lon="-3.571362">
        <ele>36.494</ele>
        <time>2019-06-16T15:10:49Z</time>
      </trkpt>
      <trkpt lat="43.469994" lon="-3.571657">
        <ele>36.014</ele>
        <time>2019-06-16T15:10:50Z</time>
      </trkpt>
      <trkpt lat="43.470053" lon="-3.571957">
        <ele>34.898</ele>
        <time>2019-06-16T15:10:51Z</time>
      </trkpt>
      <trkpt lat="43.470109" lon="-3.572260">
        <ele>33.127</ele>
        <time>2019-06-16T15:10:52Z</time>
      </trkpt>
      <trkpt lat="43.470153" lon="-3.572556">
        <ele>32.317</ele>
        <time>2019-06-16T15:10:53Z</time>
      </trkpt>
      <trkpt lat="43.470212" lon="-3.572866">
        <ele>31.513</ele>
        <time>2019-06-16T15:10:54Z</time>
      </trkpt>
      <trkpt lat="43.470259" lon="-3.573187">
        <ele>31.132</ele>
        <time>2019-06-16T15:10:55Z</time>
      </trkpt>
      <trkpt lat="43.470316" lon="-3.573498">
        <ele>30.147</ele>
        <time>2019-06-16T15:10:56Z</time>
      </trkpt>
      <trkpt lat="43.470370" lon="-3.573813">
        <ele>29.329</ele>
        <time>2019-06-16T15:10:57Z</time>
      </trkpt>
      <trkpt lat="43.470423" lon="-3.574132">
        <ele>29.021</ele>
        <time>2019-06-16T15:10:58Z</time>
      </trkpt>
      <trkpt lat="43.470491" lon="-3.574470">
        <ele>28.408</ele>
        <time>2019-06-16T15:10:59Z</time>
      </trkpt>
      <trkpt lat="43.470549" lon="-3.574798">
        <ele>27.197</ele>
        <time>2019-06-16T15:11:00Z</time>
      </trkpt>
      <trkpt lat="43.470597" lon="-3.575135">
        <ele>26.481</ele>
        <time>2019-06-16T15:11:01Z</time>
      </trkpt>
      <trkpt lat="43.470651" lon="-3.575485">
        <ele>25.441</ele>
        <time>2019-06-16T15:11:02Z</time>
      </trkpt>
      <trkpt lat="43.470706" lon="-3.575826">
        <ele>24.485</ele>
        <time>2019-06-16T15:11:03Z</time>
      </trkpt>
      <trkpt lat="43.470758" lon="-3.576160">
        <ele>23.174</ele>
        <time>2019-06-16T15:11:04Z</time>
      </trkpt>
      <trkpt lat="43.470822" lon="-3.576499">
        <ele>22.164</ele>
        <time>2019-06-16T15:11:05Z</time>
      </trkpt>
      <trkpt lat="43.470866" lon="-3.576830">
        <ele>21.090</ele>
        <time>2019-06-16T15:11:06Z</time>
      </trkpt>
      <trkpt lat="43.470916" lon="-3.577167">
        <ele>20.329</ele>
        <time>2019-06-16T15:11:07Z</time>
      </trkpt>
      <trkpt lat="43.470981" lon="-3.577489">
        <ele>20.463</ele>
        <time>2019-06-16T15:11:08Z</time>
      </trkpt>
      <trkpt lat="43.471026" lon="-3.577824">
        <ele>20.844</ele>
        <time>2019-06-16T15:11:09Z</time>
      </trkpt>
      <trkpt lat="43.471077" lon="-3.578143">
        <ele>21.318</ele>
        <time>2019-06-16T15:11:10Z</time>
      </trkpt>
      <trkpt lat="43.471120" lon="-3.578459">
        <ele>21.408</ele>
        <time>2019-06-16T15:11:11Z</time>
      </trkpt>
      <trkpt lat="43.471179" lon="-3.578766">
        <ele>21.389</ele>
        <time>2019-06-16T15:11:12Z</time>
      </trkpt>
      <trkpt lat="43.471265" lon="-3.579053">
        <ele>20.393</ele>
        <time>2019-06-16T15:11:13Z</time>
      </trkpt>
      <trkpt lat="43.471309" lon="-3.579341">
        <ele>19.933</ele>
        <time>2019-06-16T15:11:14Z</time>
      </trkpt>
      <trkpt lat="43.471355" lon="-3.579609">
        <ele>18.927</ele>
        <time>2019-06-16T15:11:15Z</time>
      </trkpt>
      <trkpt lat="43.471392" lon="-3.579870">
        <ele>18.536</ele>
        <time>2019-06-16T15:11:16Z</time>
      </trkpt>
      <trkpt lat="43.471434" lon="-3.580133">
        <ele>17.926</ele>
        <time>2019-06-16T15:11:17Z</time>
      </trkpt>
      <trkpt lat="43.471463" lon="-3.580392">
        <ele>17.412</ele>
        <time>2019-06-16T15:11:18Z</time>
      </trkpt>
      <trkpt lat="43.471481" lon="-3.580648">
        <ele>16.931</ele>
        <time>2019-06-16T15:11:19Z</time>
      </trkpt>
      <trkpt lat="43.471484" lon="-3.580935">
        <ele>16.556</ele>
        <time>2019-06-16T15:11:20Z</time>
      </trkpt>
      <trkpt lat="43.471478" lon="-3.581230">
        <ele>16.359</ele>
        <time>2019-06-16T15:11:21Z</time>
      </trkpt>
      <trkpt lat="43.471450" lon="-3.581503">
        <ele>16.614</ele>
        <time>2019-06-16T15:11:22Z</time>
      </trkpt>
      <trkpt lat="43.471425" lon="-3.581792">
        <ele>16.408</ele>
        <time>2019-06-16T15:11:23Z</time>
      </trkpt>
      <trkpt lat="43.471407" lon="-3.582094">
        <ele>15.998</ele>
        <time>2019-06-16T15:11:24Z</time>
      </trkpt>
      <trkpt lat="43.471393" lon="-3.582398">
        <ele>14.612</ele>
        <time>2019-06-16T15:11:25Z</time>
      </trkpt>
      <trkpt lat="43.471390" lon="-3.582713">
        <ele>14.012</ele>
        <time>2019-06-16T15:11:26Z</time>
      </trkpt>
      <trkpt lat="43.471414" lon="-3.583047">
        <ele>14.276</ele>
        <time>2019-06-16T15:11:27Z</time>
      </trkpt>
      <trkpt lat="43.471447" lon="-3.583370">
        <ele>13.355</ele>
        <time>2019-06-16T15:11:28Z</time>
      </trkpt>
      <trkpt lat="43.471481" lon="-3.583698">
        <ele>11.965</ele>
        <time>2019-06-16T15:11:29Z</time>
      </trkpt>
      <trkpt lat="43.471508" lon="-3.584038">
        <ele>11.211</ele>
        <time>2019-06-16T15:11:30Z</time>
      </trkpt>
      <trkpt lat="43.471541" lon="-3.584387">
        <ele>10.850</ele>
        <time>2019-06-16T15:11:31Z</time>
      </trkpt>
      <trkpt lat="43.471573" lon="-3.584740">
        <ele>10.364</ele>
        <time>2019-06-16T15:11:32Z</time>
      </trkpt>
      <trkpt lat="43.471594" lon="-3.585106">
        <ele>9.706</ele>
        <time>2019-06-16T15:11:33Z</time>
      </trkpt>
      <trkpt lat="43.471606" lon="-3.585468">
        <ele>8.316</ele>
        <time>2019-06-16T15:11:34Z</time>
      </trkpt>
      <trkpt lat="43.471608" lon="-3.585824">
        <ele>6.908</ele>
        <time>2019-06-16T15:11:35Z</time>
      </trkpt>
      <trkpt lat="43.471615" lon="-3.586166">
        <ele>6.139</ele>
        <time>2019-06-16T15:11:36Z</time>
      </trkpt>
      <trkpt lat="43.471616" lon="-3.586499">
        <ele>4.243</ele>
        <time>2019-06-16T15:11:37Z</time>
      </trkpt>
      <trkpt lat="43.471616" lon="-3.586809">
        <ele>2.773</ele>
        <time>2019-06-16T15:11:38Z</time>
      </trkpt>
      <trkpt lat="43.471637" lon="-3.587098">
        <ele>3.427</ele>
        <time>2019-06-16T15:11:39Z</time>
      </trkpt>
      <trkpt lat="43.471652" lon="-3.587392">
        <ele>4.536</ele>
        <time>2019-06-16T15:11:40Z</time>
      </trkpt>
      <trkpt lat="43.471683" lon="-3.587684">
        <ele>4.926</ele>
        <time>2019-06-16T15:11:41Z</time>
      </trkpt>
      <trkpt lat="43.471715" lon="-3.587986">
        <ele>4.762</ele>
        <time>2019-06-16T15:11:42Z</time>
      </trkpt>
      <trkpt lat="43.471762" lon="-3.588284">
        <ele>5.131</ele>
        <time>2019-06-16T15:11:43Z</time>
      </trkpt>
      <trkpt lat="43.471815" lon="-3.588579">
        <ele>5.996</ele>
        <time>2019-06-16T15:11:44Z</time>
      </trkpt>
      <trkpt lat="43.471909" lon="-3.588878">
        <ele>7.131</ele>
        <time>2019-06-16T15:11:45Z</time>
      </trkpt>
      <trkpt lat="43.471987" lon="-3.589160">
        <ele>7.824</ele>
        <time>2019-06-16T15:11:46Z</time>
      </trkpt>
      <trkpt lat="43.472071" lon="-3.589455">
        <ele>8.608</ele>
        <time>2019-06-16T15:11:47Z</time>
      </trkpt>
      <trkpt lat="43.472147" lon="-3.589766">
        <ele>9.652</ele>
        <time>2019-06-16T15:11:48Z</time>
      </trkpt>
      <trkpt lat="43.472245" lon="-3.590025">
        <ele>11.026</ele>
        <time>2019-06-16T15:11:49Z</time>
      </trkpt>
      <trkpt lat="43.472337" lon="-3.590305">
        <ele>12.146</ele>
        <time>2019-06-16T15:11:50Z</time>
      </trkpt>
      <trkpt lat="43.472421" lon="-3.590581">
        <ele>12.850</ele>
        <time>2019-06-16T15:11:51Z</time>
      </trkpt>
      <trkpt lat="43.472496" lon="-3.590843">
        <ele>14.179</ele>
        <time>2019-06-16T15:11:52Z</time>
      </trkpt>
      <trkpt lat="43.472577" lon="-3.591101">
        <ele>14.759</ele>
        <time>2019-06-16T15:11:53Z</time>
      </trkpt>
      <trkpt lat="43.472656" lon="-3.591339">
        <ele>15.715</ele>
        <time>2019-06-16T15:11:54Z</time>
      </trkpt>
      <trkpt lat="43.472719" lon="-3.591581">
        <ele>17.284</ele>
        <time>2019-06-16T15:11:55Z</time>
      </trkpt>
      <trkpt lat="43.472772" lon="-3.591803">
        <ele>18.563</ele>
        <time>2019-06-16T15:11:56Z</time>
      </trkpt>
      <trkpt lat="43.472837" lon="-3.592034">
        <ele>19.644</ele>
        <time>2019-06-16T15:11:57Z</time>
      </trkpt>
      <trkpt lat="43.472902" lon="-3.592262">
        <ele>21.118</ele>
        <time>2019-06-16T15:11:58Z</time>
      </trkpt>
      <trkpt lat="43.472971" lon="-3.592481">
        <ele>21.908</ele>
        <time>2019-06-16T15:11:59Z</time>
      </trkpt>
      <trkpt lat="43.473043" lon="-3.592723">
        <ele>23.659</ele>
        <time>2019-06-16T15:12:00Z</time>
      </trkpt>
      <trkpt lat="43.473120" lon="-3.592969">
        <ele>25.063</ele>
        <time>2019-06-16T15:12:01Z</time>
      </trkpt>
      <trkpt lat="43.473193" lon="-3.593209">
        <ele>26.473</ele>
        <time>2019-06-16T15:12:02Z</time>
      </trkpt>
      <trkpt lat="43.473266" lon="-3.593427">
        <ele>27.717</ele>
        <time>2019-06-16T15:12:03Z</time>
      </trkpt>
      <trkpt lat="43.473330" lon="-3.593647">
        <ele>28.326</ele>
        <time>2019-06-16T15:12:04Z</time>
      </trkpt>
      <trkpt lat="43.473402" lon="-3.593858">
        <ele>29.656</ele>
        <time>2019-06-16T15:12:05Z</time>
      </trkpt>
      <trkpt lat="43.473462" lon="-3.594071">
        <ele>30.592</ele>
        <time>2019-06-16T15:12:06Z</time>
      </trkpt>
      <trkpt lat="43.473526" lon="-3.594289">
        <ele>31.591</ele>
        <time>2019-06-16T15:12:07Z</time>
      </trkpt>
      <trkpt lat="43.473590" lon="-3.594516">
        <ele>32.266</ele>
        <time>2019-06-16T15:12:08Z</time>
      </trkpt>
      <trkpt lat="43.473646" lon="-3.594746">
        <ele>31.829</ele>
        <time>2019-06-16T15:12:09Z</time>
      </trkpt>
      <trkpt lat="43.473706" lon="-3.594941">
        <ele>32.121</ele>
        <time>2019-06-16T15:12:10Z</time>
      </trkpt>
      <trkpt lat="43.473769" lon="-3.595176">
        <ele>31.908</ele>
        <time>2019-06-16T15:12:11Z</time>
      </trkpt>
      <trkpt lat="43.473825" lon="-3.595415">
        <ele>31.689</ele>
        <time>2019-06-16T15:12:12Z</time>
      </trkpt>
      <trkpt lat="43.473884" lon="-3.595662">
        <ele>31.133</ele>
        <time>2019-06-16T15:12:13Z</time>
      </trkpt>
      <trkpt lat="43.473946" lon="-3.595913">
        <ele>30.483</ele>
        <time>2019-06-16T15:12:14Z</time>
      </trkpt>
      <trkpt lat="43.474007" lon="-3.596164">
        <ele>29.657</ele>
        <time>2019-06-16T15:12:15Z</time>
      </trkpt>
      <trkpt lat="43.474060" lon="-3.596414">
        <ele>28.756</ele>
        <time>2019-06-16T15:12:16Z</time>
      </trkpt>
      <trkpt lat="43.474108" lon="-3.596667">
        <ele>27.636</ele>
        <time>2019-06-16T15:12:17Z</time>
      </trkpt>
      <trkpt lat="43.474159" lon="-3.596916">
        <ele>27.112</ele>
        <time>2019-06-16T15:12:18Z</time>
      </trkpt>
      <trkpt lat="43.474196" lon="-3.597158">
        <ele>26.771</ele>
        <time>2019-06-16T15:12:19Z</time>
      </trkpt>
      <trkpt lat="43.474234" lon="-3.597412">
        <ele>25.876</ele>
        <time>2019-06-16T15:12:20Z</time>
      </trkpt>
      <trkpt lat="43.474256" lon="-3.597640">
        <ele>25.290</ele>
        <time>2019-06-16T15:12:21Z</time>
      </trkpt>
      <trkpt lat="43.474284" lon="-3.597874">
        <ele>24.519</ele>
        <time>2019-06-16T15:12:22Z</time>
      </trkpt>
      <trkpt lat="43.474326" lon="-3.598125">
        <ele>23.608</ele>
        <time>2019-06-16T15:12:23Z</time>
      </trkpt>
      <trkpt lat="43.474359" lon="-3.598359">
        <ele>22.990</ele>
        <time>2019-06-16T15:12:24Z</time>
      </trkpt>
      <trkpt lat="43.474381" lon="-3.598589">
        <ele>22.194</ele>
        <time>2019-06-16T15:12:25Z</time>
      </trkpt>
      <trkpt lat="43.474410" lon="-3.598833">
        <ele>21.964</ele>
        <time>2019-06-16T15:12:26Z</time>
      </trkpt>
      <trkpt lat="43.474440" lon="-3.599076">
        <ele>22.058</ele>
        <time>2019-06-16T15:12:27Z</time>
      </trkpt>
      <trkpt lat="43.474479" lon="-3.599318">
        <ele>22.147</ele>
        <time>2019-06-16T15:12:28Z</time>
      </trkpt>
      <trkpt lat="43.474507" lon="-3.599588">
        <ele>22.237</ele>
        <time>2019-06-16T15:12:29Z</time>
      </trkpt>
      <trkpt lat="43.474508" lon="-3.599867">
        <ele>22.453</ele>
        <time>2019-06-16T15:12:30Z</time>
      </trkpt>
      <trkpt lat="43.474530" lon="-3.600158">
        <ele>23.022</ele>
        <time>2019-06-16T15:12:31Z</time>
      </trkpt>
      <trkpt lat="43.474552" lon="-3.600448">
        <ele>23.843</ele>
        <time>2019-06-16T15:12:32Z</time>
      </trkpt>
      <trkpt lat="43.474594" lon="-3.600770">
        <ele>25.164</ele>
        <time>2019-06-16T15:12:33Z</time>
      </trkpt>
      <trkpt lat="43.474639" lon="-3.601087">
        <ele>25.210</ele>
        <time>2019-06-16T15:12:34Z</time>
      </trkpt>
      <trkpt lat="43.474685" lon="-3.601421">
        <ele>25.608</ele>
        <time>2019-06-16T15:12:35Z</time>
      </trkpt>
      <trkpt lat="43.474717" lon="-3.601736">
        <ele>25.337</ele>
        <time>2019-06-16T15:12:36Z</time>
      </trkpt>
      <trkpt lat="43.474746" lon="-3.602067">
        <ele>26.291</ele>
        <time>2019-06-16T15:12:37Z</time>
      </trkpt>
      <trkpt lat="43.474782" lon="-3.602388">
        <ele>26.631</ele>
        <time>2019-06-16T15:12:38Z</time>
      </trkpt>
      <trkpt lat="43.474828" lon="-3.602704">
        <ele>27.415</ele>
        <time>2019-06-16T15:12:39Z</time>
      </trkpt>
      <trkpt lat="43.474865" lon="-3.603032">
        <ele>28.034</ele>
        <time>2019-06-16T15:12:40Z</time>
      </trkpt>
      <trkpt lat="43.474895" lon="-3.603349">
        <ele>29.744</ele>
        <time>2019-06-16T15:12:41Z</time>
      </trkpt>
      <trkpt lat="43.474934" lon="-3.603664">
        <ele>30.920</ele>
        <time>2019-06-16T15:12:42Z</time>
      </trkpt>
      <trkpt lat="43.474968" lon="-3.603968">
        <ele>33.189</ele>
        <time>2019-06-16T15:12:43Z</time>
      </trkpt>
      <trkpt lat="43.475004" lon="-3.604282">
        <ele>34.866</ele>
        <time>2019-06-16T15:12:44Z</time>
      </trkpt>
      <trkpt lat="43.475013" lon="-3.604611">
        <ele>36.629</ele>
        <time>2019-06-16T15:12:45Z</time>
      </trkpt>
      <trkpt lat="43.475005" lon="-3.604918">
        <ele>38.421</ele>
        <time>2019-06-16T15:12:46Z</time>
      </trkpt>
      <trkpt lat="43.474989" lon="-3.605233">
        <ele>40.708</ele>
        <time>2019-06-16T15:12:47Z</time>
      </trkpt>
      <trkpt lat="43.474963" lon="-3.605528">
        <ele>42.279</ele>
        <time>2019-06-16T15:12:48Z</time>
      </trkpt>
      <trkpt lat="43.474923" lon="-3.605810">
        <ele>44.143</ele>
        <time>2019-06-16T15:12:49Z</time>
      </trkpt>
      <trkpt lat="43.474869" lon="-3.606099">
        <ele>46.443</ele>
        <time>2019-06-16T15:12:50Z</time>
      </trkpt>
      <trkpt lat="43.474803" lon="-3.606382">
        <ele>47.797</ele>
        <time>2019-06-16T15:12:51Z</time>
      </trkpt>
      <trkpt lat="43.474735" lon="-3.606658">
        <ele>48.986</ele>
        <time>2019-06-16T15:12:52Z</time>
      </trkpt>
      <trkpt lat="43.474673" lon="-3.606935">
        <ele>50.146</ele>
        <time>2019-06-16T15:12:53Z</time>
      </trkpt>
      <trkpt lat="43.474604" lon="-3.607224">
        <ele>50.452</ele>
        <time>2019-06-16T15:12:54Z</time>
      </trkpt>
      <trkpt lat="43.474525" lon="-3.607499">
        <ele>50.761</ele>
        <time>2019-06-16T15:12:55Z</time>
      </trkpt>
      <trkpt lat="43.474447" lon="-3.607797">
        <ele>51.066</ele>
        <time>2019-06-16T15:12:56Z</time>
      </trkpt>
      <trkpt lat="43.474363" lon="-3.608096">
        <ele>51.029</ele>
        <time>2019-06-16T15:12:57Z</time>
      </trkpt>
      <trkpt lat="43.474277" lon="-3.608403">
        <ele>51.521</ele>
        <time>2019-06-16T15:12:58Z</time>
      </trkpt>
      <trkpt lat="43.474188" lon="-3.608704">
        <ele>51.808</ele>
        <time>2019-06-16T15:12:59Z</time>
      </trkpt>
      <trkpt lat="43.474103" lon="-3.609012">
        <ele>51.719</ele>
        <time>2019-06-16T15:13:00Z</time>
      </trkpt>
      <trkpt lat="43.474022" lon="-3.609329">
        <ele>51.523</ele>
        <time>2019-06-16T15:13:01Z</time>
      </trkpt>
      <trkpt lat="43.473937" lon="-3.609643">
        <ele>51.793</ele>
        <time>2019-06-16T15:13:02Z</time>
      </trkpt>
      <trkpt lat="43.473858" lon="-3.609951">
        <ele>52.137</ele>
        <time>2019-06-16T15:13:03Z</time>
      </trkpt>
      <trkpt lat="43.473777" lon="-3.610264">
        <ele>52.496</ele>
        <time>2019-06-16T15:13:04Z</time>
      </trkpt>
      <trkpt lat="43.473699" lon="-3.610571">
        <ele>52.776</ele>
        <time>2019-06-16T15:13:05Z</time>
      </trkpt>
      <trkpt lat="43.473607" lon="-3.610875">
        <ele>53.032</ele>
        <time>2019-06-16T15:13:06Z</time>
      </trkpt>
      <trkpt lat="43.473501" lon="-3.611171">
        <ele>53.531</ele>
        <time>2019-06-16T15:13:07Z</time>
      </trkpt>
      <trkpt lat="43.473416" lon="-3.611447">
        <ele>54.489</ele>
        <time>2019-06-16T15:13:08Z</time>
      </trkpt>
      <trkpt lat="43.473340" lon="-3.611727">
        <ele>55.006</ele>
        <time>2019-06-16T15:13:09Z</time>
      </trkpt>
      <trkpt lat="43.473272" lon="-3.612007">
        <ele>55.426</ele>
        <time>2019-06-16T15:13:10Z</time>
      </trkpt>
      <trkpt lat="43.473213" lon="-3.612303">
        <ele>55.408</ele>
        <time>2019-06-16T15:13:11Z</time>
      </trkpt>
      <trkpt lat="43.473184" lon="-3.612583">
        <ele>55.981</ele>
        <time>2019-06-16T15:13:12Z</time>
      </trkpt>
      <trkpt lat="43.473180" lon="-3.612852">
        <ele>57.175</ele>
        <time>2019-06-16T15:13:13Z</time>
      </trkpt>
      <trkpt lat="43.473191" lon="-3.613136">
        <ele>59.155</ele>
        <time>2019-06-16T15:13:14Z</time>
      </trkpt>
      <trkpt lat="43.473215" lon="-3.613415">
        <ele>61.919</ele>
        <time>2019-06-16T15:13:15Z</time>
      </trkpt>
      <trkpt lat="43.473285" lon="-3.613672">
        <ele>63.238</ele>
        <time>2019-06-16T15:13:16Z</time>
      </trkpt>
      <trkpt lat="43.473356" lon="-3.613926">
        <ele>65.298</ele>
        <time>2019-06-16T15:13:17Z</time>
      </trkpt>
      <trkpt lat="43.473425" lon="-3.614169">
        <ele>67.444</ele>
        <time>2019-06-16T15:13:18Z</time>
      </trkpt>
      <trkpt lat="43.473469" lon="-3.614414">
        <ele>69.393</ele>
        <time>2019-06-16T15:13:19Z</time>
      </trkpt>
      <trkpt lat="43.473503" lon="-3.614672">
        <ele>70.694</ele>
        <time>2019-06-16T15:13:20Z</time>
      </trkpt>
      <trkpt lat="43.473492" lon="-3.614974">
        <ele>73.057</ele>
        <time>2019-06-16T15:13:21Z</time>
      </trkpt>
      <trkpt lat="43.473476" lon="-3.615245">
        <ele>73.922</ele>
        <time>2019-06-16T15:13:22Z</time>
      </trkpt>
      <trkpt lat="43.473429" lon="-3.615506">
        <ele>74.908</ele>
        <time>2019-06-16T15:13:23Z</time>
      </trkpt>
      <trkpt lat="43.473366" lon="-3.615774">
        <ele>76.232</ele>
        <time>2019-06-16T15:13:24Z</time>
      </trkpt>
      <trkpt lat="43.473297" lon="-3.616023">
        <ele>77.366</ele>
        <time>2019-06-16T15:13:25Z</time>
      </trkpt>
      <trkpt lat="43.473155" lon="-3.616239">
        <ele>79.426</ele>
        <time>2019-06-16T15:13:26Z</time>
      </trkpt>
      <trkpt lat="43.473041" lon="-3.616461">
        <ele>81.270</ele>
        <time>2019-06-16T15:13:27Z</time>
      </trkpt>
      <trkpt lat="43.472900" lon="-3.616681">
        <ele>83.219</ele>
        <time>2019-06-16T15:13:28Z</time>
      </trkpt>
      <trkpt lat="43.472776" lon="-3.616912">
        <ele>84.329</ele>
        <time>2019-06-16T15:13:29Z</time>
      </trkpt>
      <trkpt lat="43.472656" lon="-3.617145">
        <ele>85.535</ele>
        <time>2019-06-16T15:13:30Z</time>
      </trkpt>
      <trkpt lat="43.472563" lon="-3.617387">
        <ele>86.934</ele>
        <time>2019-06-16T15:13:31Z</time>
      </trkpt>
      <trkpt lat="43.472490" lon="-3.617647">
        <ele>89.514</ele>
        <time>2019-06-16T15:13:32Z</time>
      </trkpt>
      <trkpt lat="43.472414" lon="-3.617891">
        <ele>91.254</ele>
        <time>2019-06-16T15:13:33Z</time>
      </trkpt>
      <trkpt lat="43.472331" lon="-3.618126">
        <ele>94.509</ele>
        <time>2019-06-16T15:13:34Z</time>
      </trkpt>
      <trkpt lat="43.472299" lon="-3.618379">
        <ele>96.808</ele>
        <time>2019-06-16T15:13:35Z</time>
      </trkpt>
      <trkpt lat="43.472332" lon="-3.618634">
        <ele>97.124</ele>
        <time>2019-06-16T15:13:36Z</time>
      </trkpt>
      <trkpt lat="43.472389" lon="-3.618784">
        <ele>96.668</ele>
        <time>2019-06-16T15:13:37Z</time>
      </trkpt>
      <trkpt lat="43.472388" lon="-3.619056">
        <ele>98.588</ele>
        <time>2019-06-16T15:13:38Z</time>
      </trkpt>
      <trkpt lat="43.472385" lon="-3.619317">
        <ele>100.212</ele>
        <time>2019-06-16T15:13:39Z</time>
      </trkpt>
      <trkpt lat="43.472419" lon="-3.619600">
        <ele>102.441</ele>
        <time>2019-06-16T15:13:40Z</time>
      </trkpt>
      <trkpt lat="43.472454" lon="-3.619901">
        <ele>105.461</ele>
        <time>2019-06-16T15:13:41Z</time>
      </trkpt>
      <trkpt lat="43.472532" lon="-3.620160">
        <ele>106.247</ele>
        <time>2019-06-16T15:13:42Z</time>
      </trkpt>
      <trkpt lat="43.472614" lon="-3.620420">
        <ele>108.416</ele>
        <time>2019-06-16T15:13:43Z</time>
      </trkpt>
      <trkpt lat="43.472701" lon="-3.620676">
        <ele>110.615</ele>
        <time>2019-06-16T15:13:44Z</time>
      </trkpt>
      <trkpt lat="43.472787" lon="-3.620947">
        <ele>112.565</ele>
        <time>2019-06-16T15:13:45Z</time>
      </trkpt>
      <trkpt lat="43.472878" lon="-3.621207">
        <ele>114.911</ele>
        <time>2019-06-16T15:13:46Z</time>
      </trkpt>
      <trkpt lat="43.472951" lon="-3.621479">
        <ele>116.908</ele>
        <time>2019-06-16T15:13:47Z</time>
      </trkpt>
      <trkpt lat="43.472999" lon="-3.621755">
        <ele>118.014</ele>
        <time>2019-06-16T15:13:48Z</time>
      </trkpt>
      <trkpt lat="43.473046" lon="-3.622037">
        <ele>118.818</ele>
        <time>2019-06-16T15:13:49Z</time>
      </trkpt>
      <trkpt lat="43.473075" lon="-3.622351">
        <ele>120.898</ele>
        <time>2019-06-16T15:13:50Z</time>
      </trkpt>
      <trkpt lat="43.473093" lon="-3.622651">
        <ele>122.582</ele>
        <time>2019-06-16T15:13:51Z</time>
      </trkpt>
      <trkpt lat="43.473100" lon="-3.622943">
        <ele>124.251</ele>
        <time>2019-06-16T15:13:52Z</time>
      </trkpt>
      <trkpt lat="43.473107" lon="-3.623229">
        <ele>125.831</ele>
        <time>2019-06-16T15:13:53Z</time>
      </trkpt>
      <trkpt lat="43.473122" lon="-3.623505">
        <ele>127.257</ele>
        <time>2019-06-16T15:13:54Z</time>
      </trkpt>
      <trkpt lat="43.473125" lon="-3.623782">
        <ele>128.866</ele>
        <time>2019-06-16T15:13:55Z</time>
      </trkpt>
      <trkpt lat="43.473089" lon="-3.624064">
        <ele>131.054</ele>
        <time>2019-06-16T15:13:56Z</time>
      </trkpt>
      <trkpt lat="43.473074" lon="-3.624346">
        <ele>132.356</ele>
        <time>2019-06-16T15:13:57Z</time>
      </trkpt>
      <trkpt lat="43.473034" lon="-3.624637">
        <ele>134.411</ele>
        <time>2019-06-16T15:13:58Z</time>
      </trkpt>
      <trkpt lat="43.472979" lon="-3.624908">
        <ele>137.108</ele>
        <time>2019-06-16T15:13:59Z</time>
      </trkpt>
      <trkpt lat="43.472920" lon="-3.625174">
        <ele>138.528</ele>
        <time>2019-06-16T15:14:00Z</time>
      </trkpt>
      <trkpt lat="43.472844" lon="-3.625427">
        <ele>139.352</ele>
        <time>2019-06-16T15:14:01Z</time>
      </trkpt>
      <trkpt lat="43.472776" lon="-3.625682">
        <ele>140.512</ele>
        <time>2019-06-16T15:14:02Z</time>
      </trkpt>
      <trkpt lat="43.472738" lon="-3.625961">
        <ele>143.416</ele>
        <time>2019-06-16T15:14:03Z</time>
      </trkpt>
      <trkpt lat="43.472698" lon="-3.626217">
        <ele>146.035</ele>
        <time>2019-06-16T15:14:04Z</time>
      </trkpt>
      <trkpt lat="43.472730" lon="-3.626468">
        <ele>145.775</ele>
        <time>2019-06-16T15:14:05Z</time>
      </trkpt>
      <trkpt lat="43.472774" lon="-3.626734">
        <ele>146.661</ele>
        <time>2019-06-16T15:14:06Z</time>
      </trkpt>
      <trkpt lat="43.472829" lon="-3.626988">
        <ele>147.480</ele>
        <time>2019-06-16T15:14:07Z</time>
      </trkpt>
      <trkpt lat="43.472877" lon="-3.627243">
        <ele>149.138</ele>
        <time>2019-06-16T15:14:08Z</time>
      </trkpt>
      <trkpt lat="43.472880" lon="-3.627507">
        <ele>151.670</ele>
        <time>2019-06-16T15:14:09Z</time>
      </trkpt>
      <trkpt lat="43.472914" lon="-3.627755">
        <ele>153.817</ele>
        <time>2019-06-16T15:14:10Z</time>
      </trkpt>
      <trkpt lat="43.472860" lon="-3.628037">
        <ele>155.108</ele>
        <time>2019-06-16T15:14:11Z</time>
      </trkpt>
      <trkpt lat="43.472811" lon="-3.628271">
        <ele>156.186</ele>
        <time>2019-06-16T15:14:12Z</time>
      </trkpt>
      <trkpt lat="43.472751" lon="-3.628495">
        <ele>158.430</ele>
        <time>2019-06-16T15:14:13Z</time>
      </trkpt>
      <trkpt lat="43.472637" lon="-3.628748">
        <ele>161.070</ele>
        <time>2019-06-16T15:14:14Z</time>
      </trkpt>
      <trkpt lat="43.472552" lon="-3.628984">
        <ele>161.834</ele>
        <time>2019-06-16T15:14:15Z</time>
      </trkpt>
      <trkpt lat="43.472473" lon="-3.629244">
        <ele>162.923</ele>
        <time>2019-06-16T15:14:16Z</time>
      </trkpt>
      <trkpt lat="43.472422" lon="-3.629510">
        <ele>165.083</ele>
        <time>2019-06-16T15:14:17Z</time>
      </trkpt>
      <trkpt lat="43.472395" lon="-3.629772">
        <ele>167.289</ele>
        <time>2019-06-16T15:14:18Z</time>
      </trkpt>
      <trkpt lat="43.472365" lon="-3.630033">
        <ele>171.078</ele>
        <time>2019-06-16T15:14:19Z</time>
      </trkpt>
      <trkpt lat="43.472459" lon="-3.630334">
        <ele>169.354</ele>
        <time>2019-06-16T15:14:20Z</time>
      </trkpt>
      <trkpt lat="43.472486" lon="-3.630622">
        <ele>168.556</ele>
        <time>2019-06-16T15:14:21Z</time>
      </trkpt>
      <trkpt lat="43.472495" lon="-3.630915">
        <ele>168.511</ele>
        <time>2019-06-16T15:14:22Z</time>
      </trkpt>
      <trkpt lat="43.472519" lon="-3.631190">
        <ele>168.908</ele>
        <time>2019-06-16T15:14:23Z</time>
      </trkpt>
      <trkpt lat="43.472541" lon="-3.631475">
        <ele>168.818</ele>
        <time>2019-06-16T15:14:24Z</time>
      </trkpt>
      <trkpt lat="43.472540" lon="-3.631758">
        <ele>168.482</ele>
        <time>2019-06-16T15:14:25Z</time>
      </trkpt>
      <trkpt lat="43.472524" lon="-3.632026">
        <ele>167.642</ele>
        <time>2019-06-16T15:14:26Z</time>
      </trkpt>
      <trkpt lat="43.472507" lon="-3.632339">
        <ele>166.676</ele>
        <time>2019-06-16T15:14:27Z</time>
      </trkpt>
      <trkpt lat="43.472466" lon="-3.632655">
        <ele>165.995</ele>
        <time>2019-06-16T15:14:28Z</time>
      </trkpt>
      <trkpt lat="43.472385" lon="-3.632973">
        <ele>164.315</ele>
        <time>2019-06-16T15:14:29Z</time>
      </trkpt>
      <trkpt lat="43.472297" lon="-3.633261">
        <ele>162.831</ele>
        <time>2019-06-16T15:14:30Z</time>
      </trkpt>
      <trkpt lat="43.472206" lon="-3.633536">
        <ele>161.430</ele>
        <time>2019-06-16T15:14:31Z</time>
      </trkpt>
      <trkpt lat="43.472040" lon="-3.633847">
        <ele>158.827</ele>
        <time>2019-06-16T15:14:32Z</time>
      </trkpt>
      <trkpt lat="43.471927" lon="-3.634077">
        <ele>159.668</ele>
        <time>2019-06-16T15:14:33Z</time>
      </trkpt>
      <trkpt lat="43.471791" lon="-3.634352">
        <ele>156.814</ele>
        <time>2019-06-16T15:14:34Z</time>
      </trkpt>
      <trkpt lat="43.471679" lon="-3.634605">
        <ele>157.308</ele>
        <time>2019-06-16T15:14:35Z</time>
      </trkpt>
      <trkpt lat="43.471549" lon="-3.634881">
        <ele>155.615</ele>
        <time>2019-06-16T15:14:36Z</time>
      </trkpt>
      <trkpt lat="43.471401" lon="-3.635165">
        <ele>157.279</ele>
        <time>2019-06-16T15:14:37Z</time>
      </trkpt>
      <trkpt lat="43.471264" lon="-3.635442">
        <ele>157.079</ele>
        <time>2019-06-16T15:14:38Z</time>
      </trkpt>
      <trkpt lat="43.471124" lon="-3.635712">
        <ele>157.283</ele>
        <time>2019-06-16T15:14:39Z</time>
      </trkpt>
      <trkpt lat="43.471005" lon="-3.635967">
        <ele>155.172</ele>
        <time>2019-06-16T15:14:40Z</time>
      </trkpt>
      <trkpt lat="43.470883" lon="-3.636221">
        <ele>156.612</ele>
        <time>2019-06-16T15:14:41Z</time>
      </trkpt>
      <trkpt lat="43.470780" lon="-3.636469">
        <ele>159.458</ele>
        <time>2019-06-16T15:14:42Z</time>
      </trkpt>
      <trkpt lat="43.470654" lon="-3.636707">
        <ele>159.017</ele>
        <time>2019-06-16T15:14:43Z</time>
      </trkpt>
      <trkpt lat="43.470519" lon="-3.636963">
        <ele>157.689</ele>
        <time>2019-06-16T15:14:44Z</time>
      </trkpt>
      <trkpt lat="43.470401" lon="-3.637198">
        <ele>158.006</ele>
        <time>2019-06-16T15:14:45Z</time>
      </trkpt>
      <trkpt lat="43.470298" lon="-3.637420">
        <ele>156.526</ele>
        <time>2019-06-16T15:14:46Z</time>
      </trkpt>
      <trkpt lat="43.470199" lon="-3.637650">
        <ele>155.808</ele>
        <time>2019-06-16T15:14:47Z</time>
      </trkpt>
      <trkpt lat="43.470133" lon="-3.637912">
        <ele>154.541</ele>
        <time>2019-06-16T15:14:48Z</time>
      </trkpt>
      <trkpt lat="43.470075" lon="-3.638166">
        <ele>152.715</ele>
        <time>2019-06-16T15:14:49Z</time>
      </trkpt>
      <trkpt lat="43.469980" lon="-3.638439">
        <ele>151.475</ele>
        <time>2019-06-16T15:14:50Z</time>
      </trkpt>
      <trkpt lat="43.469943" lon="-3.638685">
        <ele>150.129</ele>
        <time>2019-06-16T15:14:51Z</time>
      </trkpt>
      <trkpt lat="43.469888" lon="-3.638940">
        <ele>149.738</ele>
        <time>2019-06-16T15:14:52Z</time>
      </trkpt>
      <trkpt lat="43.469970" lon="-3.639239">
        <ele>148.758</ele>
        <time>2019-06-16T15:14:53Z</time>
      </trkpt>
      <trkpt lat="43.469995" lon="-3.639552">
        <ele>147.634</ele>
        <time>2019-06-16T15:14:54Z</time>
      </trkpt>
      <trkpt lat="43.470052" lon="-3.639896">
        <ele>146.233</ele>
        <time>2019-06-16T15:14:55Z</time>
      </trkpt>
      <trkpt lat="43.470073" lon="-3.640228">
        <ele>144.455</ele>
        <time>2019-06-16T15:14:56Z</time>
      </trkpt>
      <trkpt lat="43.470126" lon="-3.640526">
        <ele>143.007</ele>
        <time>2019-06-16T15:14:57Z</time>
      </trkpt>
      <trkpt lat="43.470173" lon="-3.640802">
        <ele>141.717</ele>
        <time>2019-06-16T15:14:58Z</time>
      </trkpt>
      <trkpt lat="43.470218" lon="-3.641081">
        <ele>140.208</ele>
        <time>2019-06-16T15:14:59Z</time>
      </trkpt>
      <trkpt lat="43.470251" lon="-3.641413">
        <ele>138.348</ele>
        <time>2019-06-16T15:15:00Z</time>
      </trkpt>
      <trkpt lat="43.470271" lon="-3.641712">
        <ele>136.692</ele>
        <time>2019-06-16T15:15:01Z</time>
      </trkpt>
      <trkpt lat="43.470298" lon="-3.642052">
        <ele>134.762</ele>
        <time>2019-06-16T15:15:02Z</time>
      </trkpt>
      <trkpt lat="43.470311" lon="-3.642350">
        <ele>132.876</ele>
        <time>2019-06-16T15:15:03Z</time>
      </trkpt>
      <trkpt lat="43.470331" lon="-3.642658">
        <ele>131.685</ele>
        <time>2019-06-16T15:15:04Z</time>
      </trkpt>
      <trkpt lat="43.470354" lon="-3.642982">
        <ele>130.645</ele>
        <time>2019-06-16T15:15:05Z</time>
      </trkpt>
      <trkpt lat="43.470370" lon="-3.643295">
        <ele>129.571</ele>
        <time>2019-06-16T15:15:06Z</time>
      </trkpt>
      <trkpt lat="43.470381" lon="-3.643612">
        <ele>128.260</ele>
        <time>2019-06-16T15:15:07Z</time>
      </trkpt>
      <trkpt lat="43.470369" lon="-3.643925">
        <ele>126.434</ele>
        <time>2019-06-16T15:15:08Z</time>
      </trkpt>
      <trkpt lat="43.470358" lon="-3.644199">
        <ele>124.155</ele>
        <time>2019-06-16T15:15:09Z</time>
      </trkpt>
      <trkpt lat="43.470351" lon="-3.644490">
        <ele>121.410</ele>
        <time>2019-06-16T15:15:10Z</time>
      </trkpt>
      <trkpt lat="43.470333" lon="-3.644774">
        <ele>119.108</ele>
        <time>2019-06-16T15:15:11Z</time>
      </trkpt>
      <trkpt lat="43.470318" lon="-3.645061">
        <ele>116.716</ele>
        <time>2019-06-16T15:15:12Z</time>
      </trkpt>
      <trkpt lat="43.470309" lon="-3.645347">
        <ele>114.950</ele>
        <time>2019-06-16T15:15:13Z</time>
      </trkpt>
      <trkpt lat="43.470365" lon="-3.645551">
        <ele>112.530</ele>
        <time>2019-06-16T15:15:14Z</time>
      </trkpt>
      <trkpt lat="43.470373" lon="-3.645807">
        <ele>111.114</ele>
        <time>2019-06-16T15:15:15Z</time>
      </trkpt>
      <trkpt lat="43.470544" lon="-3.646005">
        <ele>110.943</ele>
        <time>2019-06-16T15:15:16Z</time>
      </trkpt>
      <trkpt lat="43.470638" lon="-3.646207">
        <ele>109.113</ele>
        <time>2019-06-16T15:15:17Z</time>
      </trkpt>
      <trkpt lat="43.470775" lon="-3.646356">
        <ele>108.669</ele>
        <time>2019-06-16T15:15:18Z</time>
      </trkpt>
      <trkpt lat="43.470914" lon="-3.646492">
        <ele>107.168</ele>
        <time>2019-06-16T15:15:19Z</time>
      </trkpt>
      <trkpt lat="43.471056" lon="-3.646631">
        <ele>105.924</ele>
        <time>2019-06-16T15:15:20Z</time>
      </trkpt>
      <trkpt lat="43.471240" lon="-3.646652">
        <ele>105.204</ele>
        <time>2019-06-16T15:15:21Z</time>
      </trkpt>
      <trkpt lat="43.471400" lon="-3.646691">
        <ele>104.014</ele>
        <time>2019-06-16T15:15:22Z</time>
      </trkpt>
      <trkpt lat="43.471575" lon="-3.646727">
        <ele>103.308</ele>
        <time>2019-06-16T15:15:23Z</time>
      </trkpt>
      <trkpt lat="43.471764" lon="-3.646675">
        <ele>101.135</ele>
        <time>2019-06-16T15:15:24Z</time>
      </trkpt>
      <trkpt lat="43.471954" lon="-3.646644">
        <ele>99.499</ele>
        <time>2019-06-16T15:15:25Z</time>
      </trkpt>
      <trkpt lat="43.472128" lon="-3.646631">
        <ele>98.379</ele>
        <time>2019-06-16T15:15:26Z</time>
      </trkpt>
      <trkpt lat="43.472301" lon="-3.646629">
        <ele>96.753</ele>
        <time>2019-06-16T15:15:27Z</time>
      </trkpt>
      <trkpt lat="43.472458" lon="-3.646658">
        <ele>94.622</ele>
        <time>2019-06-16T15:15:28Z</time>
      </trkpt>
      <trkpt lat="43.472617" lon="-3.646727">
        <ele>93.162</ele>
        <time>2019-06-16T15:15:29Z</time>
      </trkpt>
      <trkpt lat="43.472776" lon="-3.646825">
        <ele>91.918</ele>
        <time>2019-06-16T15:15:30Z</time>
      </trkpt>
      <trkpt lat="43.472925" lon="-3.646960">
        <ele>89.257</ele>
        <time>2019-06-16T15:15:31Z</time>
      </trkpt>
      <trkpt lat="43.473072" lon="-3.647108">
        <ele>87.988</ele>
        <time>2019-06-16T15:15:32Z</time>
      </trkpt>
      <trkpt lat="43.473202" lon="-3.647292">
        <ele>87.124</ele>
        <time>2019-06-16T15:15:33Z</time>
      </trkpt>
      <trkpt lat="43.473283" lon="-3.647538">
        <ele>86.326</ele>
        <time>2019-06-16T15:15:34Z</time>
      </trkpt>
      <trkpt lat="43.473336" lon="-3.647772">
        <ele>85.108</ele>
        <time>2019-06-16T15:15:35Z</time>
      </trkpt>
      <trkpt lat="43.473420" lon="-3.647969">
        <ele>86.881</ele>
        <time>2019-06-16T15:15:36Z</time>
      </trkpt>
      <trkpt lat="43.473338" lon="-3.648235">
        <ele>85.115</ele>
        <time>2019-06-16T15:15:37Z</time>
      </trkpt>
      <trkpt lat="43.473283" lon="-3.648478">
        <ele>85.175</ele>
        <time>2019-06-16T15:15:38Z</time>
      </trkpt>
      <trkpt lat="43.473227" lon="-3.648718">
        <ele>84.969</ele>
        <time>2019-06-16T15:15:39Z</time>
      </trkpt>
      <trkpt lat="43.473131" lon="-3.648934">
        <ele>82.478</ele>
        <time>2019-06-16T15:15:40Z</time>
      </trkpt>
      <trkpt lat="43.473043" lon="-3.649160">
        <ele>80.818</ele>
        <time>2019-06-16T15:15:41Z</time>
      </trkpt>
      <trkpt lat="43.472878" lon="-3.649350">
        <ele>78.794</ele>
        <time>2019-06-16T15:15:42Z</time>
      </trkpt>
      <trkpt lat="43.472768" lon="-3.649558">
        <ele>76.743</ele>
        <time>2019-06-16T15:15:43Z</time>
      </trkpt>
      <trkpt lat="43.472670" lon="-3.649764">
        <ele>76.337</ele>
        <time>2019-06-16T15:15:44Z</time>
      </trkpt>
      <trkpt lat="43.472564" lon="-3.649979">
        <ele>74.149</ele>
        <time>2019-06-16T15:15:45Z</time>
      </trkpt>
      <trkpt lat="43.472566" lon="-3.650234">
        <ele>73.513</ele>
        <time>2019-06-16T15:15:46Z</time>
      </trkpt>
      <trkpt lat="43.472538" lon="-3.650440">
        <ele>71.608</ele>
        <time>2019-06-16T15:15:47Z</time>
      </trkpt>
      <trkpt lat="43.472544" lon="-3.650783">
        <ele>69.156</ele>
        <time>2019-06-16T15:15:48Z</time>
      </trkpt>
      <trkpt lat="43.472527" lon="-3.651071">
        <ele>67.420</ele>
        <time>2019-06-16T15:15:49Z</time>
      </trkpt>
      <trkpt lat="43.472506" lon="-3.651354">
        <ele>66.140</ele>
        <time>2019-06-16T15:15:50Z</time>
      </trkpt>
      <trkpt lat="43.472467" lon="-3.651608">
        <ele>65.644</ele>
        <time>2019-06-16T15:15:51Z</time>
      </trkpt>
      <trkpt lat="43.472427" lon="-3.651879">
        <ele>67.563</ele>
        <time>2019-06-16T15:15:52Z</time>
      </trkpt>
      <trkpt lat="43.472348" lon="-3.652112">
        <ele>67.053</ele>
        <time>2019-06-16T15:15:53Z</time>
      </trkpt>
      <trkpt lat="43.472207" lon="-3.652352">
        <ele>65.169</ele>
        <time>2019-06-16T15:15:54Z</time>
      </trkpt>
      <trkpt lat="43.471998" lon="-3.652619">
        <ele>61.668</ele>
        <time>2019-06-16T15:15:55Z</time>
      </trkpt>
      <trkpt lat="43.471873" lon="-3.652814">
        <ele>60.529</ele>
        <time>2019-06-16T15:15:56Z</time>
      </trkpt>
      <trkpt lat="43.471758" lon="-3.652980">
        <ele>59.500</ele>
        <time>2019-06-16T15:15:57Z</time>
      </trkpt>
      <trkpt lat="43.471636" lon="-3.653174">
        <ele>57.720</ele>
        <time>2019-06-16T15:15:58Z</time>
      </trkpt>
      <trkpt lat="43.471471" lon="-3.653423">
        <ele>56.208</ele>
        <time>2019-06-16T15:15:59Z</time>
      </trkpt>
      <trkpt lat="43.471343" lon="-3.653640">
        <ele>54.415</ele>
        <time>2019-06-16T15:16:00Z</time>
      </trkpt>
      <trkpt lat="43.471196" lon="-3.653864">
        <ele>52.799</ele>
        <time>2019-06-16T15:16:01Z</time>
      </trkpt>
      <trkpt lat="43.471138" lon="-3.654042">
        <ele>52.129</ele>
        <time>2019-06-16T15:16:02Z</time>
      </trkpt>
      <trkpt lat="43.471025" lon="-3.654263">
        <ele>51.053</ele>
        <time>2019-06-16T15:16:03Z</time>
      </trkpt>
      <trkpt lat="43.470904" lon="-3.654508">
        <ele>49.012</ele>
        <time>2019-06-16T15:16:04Z</time>
      </trkpt>
      <trkpt lat="43.470853" lon="-3.654727">
        <ele>48.262</ele>
        <time>2019-06-16T15:16:05Z</time>
      </trkpt>
      <trkpt lat="43.470737" lon="-3.655006">
        <ele>45.628</ele>
        <time>2019-06-16T15:16:06Z</time>
      </trkpt>
      <trkpt lat="43.470620" lon="-3.655289">
        <ele>44.467</ele>
        <time>2019-06-16T15:16:07Z</time>
      </trkpt>
      <trkpt lat="43.470494" lon="-3.655580">
        <ele>42.589</ele>
        <time>2019-06-16T15:16:08Z</time>
      </trkpt>
      <trkpt lat="43.470392" lon="-3.655863">
        <ele>40.806</ele>
        <time>2019-06-16T15:16:09Z</time>
      </trkpt>
      <trkpt lat="43.470284" lon="-3.656155">
        <ele>39.926</ele>
        <time>2019-06-16T15:16:10Z</time>
      </trkpt>
      <trkpt lat="43.470150" lon="-3.656453">
        <ele>38.308</ele>
        <time>2019-06-16T15:16:11Z</time>
      </trkpt>
      <trkpt lat="43.470052" lon="-3.656736">
        <ele>36.911</ele>
        <time>2019-06-16T15:16:12Z</time>
      </trkpt>
      <trkpt lat="43.469950" lon="-3.657030">
        <ele>35.545</ele>
        <time>2019-06-16T15:16:13Z</time>
      </trkpt>
      <trkpt lat="43.469842" lon="-3.657335">
        <ele>33.915</ele>
        <time>2019-06-16T15:16:14Z</time>
      </trkpt>
      <trkpt lat="43.469742" lon="-3.657633">
        <ele>32.049</ele>
        <time>2019-06-16T15:16:15Z</time>
      </trkpt>
      <trkpt lat="43.469638" lon="-3.657931">
        <ele>30.158</ele>
        <time>2019-06-16T15:16:16Z</time>
      </trkpt>
      <trkpt lat="43.469525" lon="-3.658238">
        <ele>28.448</ele>
        <time>2019-06-16T15:16:17Z</time>
      </trkpt>
      <trkpt lat="43.469422" lon="-3.658538">
        <ele>26.674</ele>
        <time>2019-06-16T15:16:18Z</time>
      </trkpt>
      <trkpt lat="43.469318" lon="-3.658840">
        <ele>25.223</ele>
        <time>2019-06-16T15:16:19Z</time>
      </trkpt>
      <trkpt lat="43.469209" lon="-3.659145">
        <ele>23.971</ele>
        <time>2019-06-16T15:16:20Z</time>
      </trkpt>
      <trkpt lat="43.469102" lon="-3.659446">
        <ele>22.241</ele>
        <time>2019-06-16T15:16:21Z</time>
      </trkpt>
      <trkpt lat="43.468973" lon="-3.659750">
        <ele>21.515</ele>
        <time>2019-06-16T15:16:22Z</time>
      </trkpt>
      <trkpt lat="43.468865" lon="-3.660057">
        <ele>19.808</ele>
        <time>2019-06-16T15:16:23Z</time>
      </trkpt>
      <trkpt lat="43.468757" lon="-3.660377">
        <ele>18.520</ele>
        <time>2019-06-16T15:16:24Z</time>
      </trkpt>
      <trkpt lat="43.468653" lon="-3.660665">
        <ele>16.474</ele>
        <time>2019-06-16T15:16:25Z</time>
      </trkpt>
      <trkpt lat="43.468545" lon="-3.660959">
        <ele>14.254</ele>
        <time>2019-06-16T15:16:26Z</time>
      </trkpt>
      <trkpt lat="43.468433" lon="-3.661247">
        <ele>14.348</ele>
        <time>2019-06-16T15:16:27Z</time>
      </trkpt>
      <trkpt lat="43.468323" lon="-3.661548">
        <ele>15.027</ele>
        <time>2019-06-16T15:16:28Z</time>
      </trkpt>
      <trkpt lat="43.468217" lon="-3.661837">
        <ele>15.477</ele>
        <time>2019-06-16T15:16:29Z</time>
      </trkpt>
      <trkpt lat="43.468117" lon="-3.662120">
        <ele>16.753</ele>
        <time>2019-06-16T15:16:30Z</time>
      </trkpt>
      <trkpt lat="43.468014" lon="-3.662420">
        <ele>18.672</ele>
        <time>2019-06-16T15:16:31Z</time>
      </trkpt>
      <trkpt lat="43.467923" lon="-3.662716">
        <ele>19.093</ele>
        <time>2019-06-16T15:16:32Z</time>
      </trkpt>
      <trkpt lat="43.467833" lon="-3.663027">
        <ele>18.465</ele>
        <time>2019-06-16T15:16:33Z</time>
      </trkpt>
      <trkpt lat="43.467752" lon="-3.663330">
        <ele>18.121</ele>
        <time>2019-06-16T15:16:34Z</time>
      </trkpt>
      <trkpt lat="43.467685" lon="-3.663655">
        <ele>16.708</ele>
        <time>2019-06-16T15:16:35Z</time>
      </trkpt>
      <trkpt lat="43.467618" lon="-3.663977">
        <ele>14.912</ele>
        <time>2019-06-16T15:16:36Z</time>
      </trkpt>
      <trkpt lat="43.467542" lon="-3.664320">
        <ele>13.886</ele>
        <time>2019-06-16T15:16:37Z</time>
      </trkpt>
      <trkpt lat="43.467489" lon="-3.664648">
        <ele>13.346</ele>
        <time>2019-06-16T15:16:38Z</time>
      </trkpt>
      <trkpt lat="43.467428" lon="-3.664990">
        <ele>12.060</ele>
        <time>2019-06-16T15:16:39Z</time>
      </trkpt>
      <trkpt lat="43.467388" lon="-3.665309">
        <ele>11.939</ele>
        <time>2019-06-16T15:16:40Z</time>
      </trkpt>
      <trkpt lat="43.467332" lon="-3.665644">
        <ele>11.379</ele>
        <time>2019-06-16T15:16:41Z</time>
      </trkpt>
      <trkpt lat="43.467230" lon="-3.665973">
        <ele>11.045</ele>
        <time>2019-06-16T15:16:42Z</time>
      </trkpt>
      <trkpt lat="43.467155" lon="-3.666304">
        <ele>9.864</ele>
        <time>2019-06-16T15:16:43Z</time>
      </trkpt>
      <trkpt lat="43.467081" lon="-3.666648">
        <ele>9.072</ele>
        <time>2019-06-16T15:16:44Z</time>
      </trkpt>
      <trkpt lat="43.467003" lon="-3.666986">
        <ele>9.613</ele>
        <time>2019-06-16T15:16:45Z</time>
      </trkpt>
      <trkpt lat="43.466923" lon="-3.667310">
        <ele>10.014</ele>
        <time>2019-06-16T15:16:46Z</time>
      </trkpt>
      <trkpt lat="43.466845" lon="-3.667614">
        <ele>10.408</ele>
        <time>2019-06-16T15:16:47Z</time>
      </trkpt>
      <trkpt lat="43.466773" lon="-3.667893">
        <ele>10.610</ele>
        <time>2019-06-16T15:16:48Z</time>
      </trkpt>
      <trkpt lat="43.466707" lon="-3.668142">
        <ele>10.874</ele>
        <time>2019-06-16T15:16:49Z</time>
      </trkpt>
      <trkpt lat="43.466629" lon="-3.668410">
        <ele>11.384</ele>
        <time>2019-06-16T15:16:50Z</time>
      </trkpt>
      <trkpt lat="43.466560" lon="-3.668673">
        <ele>11.788</ele>
        <time>2019-06-16T15:16:51Z</time>
      </trkpt>
      <trkpt lat="43.466489" lon="-3.668952">
        <ele>11.877</ele>
        <time>2019-06-16T15:16:52Z</time>
      </trkpt>
      <trkpt lat="43.466417" lon="-3.669222">
        <ele>12.837</ele>
        <time>2019-06-16T15:16:53Z</time>
      </trkpt>
      <trkpt lat="43.466355" lon="-3.669497">
        <ele>13.263</ele>
        <time>2019-06-16T15:16:54Z</time>
      </trkpt>
      <trkpt lat="43.466304" lon="-3.669741">
        <ele>13.782</ele>
        <time>2019-06-16T15:16:55Z</time>
      </trkpt>
      <trkpt lat="43.466252" lon="-3.669976">
        <ele>14.478</ele>
        <time>2019-06-16T15:16:56Z</time>
      </trkpt>
      <trkpt lat="43.466195" lon="-3.670215">
        <ele>14.933</ele>
        <time>2019-06-16T15:16:57Z</time>
      </trkpt>
      <trkpt lat="43.466157" lon="-3.670396">
        <ele>15.426</ele>
        <time>2019-06-16T15:16:58Z</time>
      </trkpt>
      <trkpt lat="43.466111" lon="-3.670578">
        <ele>16.008</ele>
        <time>2019-06-16T15:16:59Z</time>
      </trkpt>
      <trkpt lat="43.466075" lon="-3.670758">
        <ele>16.190</ele>
        <time>2019-06-16T15:17:00Z</time>
      </trkpt>
      <trkpt lat="43.466034" lon="-3.670920">
        <ele>16.354</ele>
        <time>2019-06-16T15:17:01Z</time>
      </trkpt>
      <trkpt lat="43.466001" lon="-3.671061">
        <ele>16.494</ele>
        <time>2019-06-16T15:17:02Z</time>
      </trkpt>
      <trkpt lat="43.465985" lon="-3.671200">
        <ele>16.668</ele>
        <time>2019-06-16T15:17:03Z</time>
      </trkpt>
      <trkpt lat="43.465979" lon="-3.671321">
        <ele>16.937</ele>
        <time>2019-06-16T15:17:04Z</time>
      </trkpt>
      <trkpt lat="43.465982" lon="-3.671445">
        <ele>17.197</ele>
        <time>2019-06-16T15:17:05Z</time>
      </trkpt>
      <trkpt lat="43.466004" lon="-3.671562">
        <ele>17.223</ele>
        <time>2019-06-16T15:17:06Z</time>
      </trkpt>
      <trkpt lat="43.466023" lon="-3.671670">
        <ele>17.342</ele>
        <time>2019-06-16T15:17:07Z</time>
      </trkpt>
      <trkpt lat="43.466010" lon="-3.671756">
        <ele>17.288</ele>
        <time>2019-06-16T15:17:08Z</time>
      </trkpt>
      <trkpt lat="43.466003" lon="-3.671860">
        <ele>17.124</ele>
        <time>2019-06-16T15:17:09Z</time>
      </trkpt>
      <trkpt lat="43.465983" lon="-3.671955">
        <ele>17.026</ele>
        <time>2019-06-16T15:17:10Z</time>
      </trkpt>
      <trkpt lat="43.465928" lon="-3.672010">
        <ele>17.008</ele>
        <time>2019-06-16T15:17:11Z</time>
      </trkpt>
      <trkpt lat="43.465874" lon="-3.672074">
        <ele>17.041</ele>
        <time>2019-06-16T15:17:12Z</time>
      </trkpt>
      <trkpt lat="43.465818" lon="-3.672144">
        <ele>17.035</ele>
        <time>2019-06-16T15:17:13Z</time>
      </trkpt>
      <trkpt lat="43.465766" lon="-3.672238">
        <ele>17.045</ele>
        <time>2019-06-16T15:17:14Z</time>
      </trkpt>
      <trkpt lat="43.465715" lon="-3.672357">
        <ele>17.089</ele>
        <time>2019-06-16T15:17:15Z</time>
      </trkpt>
      <trkpt lat="43.465670" lon="-3.672512">
        <ele>17.068</ele>
        <time>2019-06-16T15:17:16Z</time>
      </trkpt>
      <trkpt lat="43.465630" lon="-3.672684">
        <ele>17.018</ele>
        <time>2019-06-16T15:17:17Z</time>
      </trkpt>
      <trkpt lat="43.465587" lon="-3.672870">
        <ele>17.024</ele>
        <time>2019-06-16T15:17:18Z</time>
      </trkpt>
      <trkpt lat="43.465538" lon="-3.673063">
        <ele>17.043</ele>
        <time>2019-06-16T15:17:19Z</time>
      </trkpt>
      <trkpt lat="43.465471" lon="-3.673289">
        <ele>17.095</ele>
        <time>2019-06-16T15:17:20Z</time>
      </trkpt>
      <trkpt lat="43.465419" lon="-3.673517">
        <ele>16.349</ele>
        <time>2019-06-16T15:17:21Z</time>
      </trkpt>
      <trkpt lat="43.465365" lon="-3.673762">
        <ele>16.423</ele>
        <time>2019-06-16T15:17:22Z</time>
      </trkpt>
      <trkpt lat="43.465310" lon="-3.674011">
        <ele>16.908</ele>
        <time>2019-06-16T15:17:23Z</time>
      </trkpt>
      <trkpt lat="43.465252" lon="-3.674273">
        <ele>16.942</ele>
        <time>2019-06-16T15:17:24Z</time>
      </trkpt>
      <trkpt lat="43.465182" lon="-3.674548">
        <ele>16.476</ele>
        <time>2019-06-16T15:17:25Z</time>
      </trkpt>
      <trkpt lat="43.465124" lon="-3.674814">
        <ele>16.266</ele>
        <time>2019-06-16T15:17:26Z</time>
      </trkpt>
      <trkpt lat="43.465063" lon="-3.675078">
        <ele>16.830</ele>
        <time>2019-06-16T15:17:27Z</time>
      </trkpt>
      <trkpt lat="43.464996" lon="-3.675359">
        <ele>17.099</ele>
        <time>2019-06-16T15:17:28Z</time>
      </trkpt>
      <trkpt lat="43.464936" lon="-3.675640">
        <ele>17.289</ele>
        <time>2019-06-16T15:17:29Z</time>
      </trkpt>
      <trkpt lat="43.464874" lon="-3.675930">
        <ele>17.045</ele>
        <time>2019-06-16T15:17:30Z</time>
      </trkpt>
      <trkpt lat="43.464813" lon="-3.676221">
        <ele>16.984</ele>
        <time>2019-06-16T15:17:31Z</time>
      </trkpt>
      <trkpt lat="43.464737" lon="-3.676534">
        <ele>16.998</ele>
        <time>2019-06-16T15:17:32Z</time>
      </trkpt>
      <trkpt lat="43.464673" lon="-3.676840">
        <ele>16.515</ele>
        <time>2019-06-16T15:17:33Z</time>
      </trkpt>
      <trkpt lat="43.464605" lon="-3.677143">
        <ele>15.726</ele>
        <time>2019-06-16T15:17:34Z</time>
      </trkpt>
      <trkpt lat="43.464522" lon="-3.677457">
        <ele>15.708</ele>
        <time>2019-06-16T15:17:35Z</time>
      </trkpt>
      <trkpt lat="43.464439" lon="-3.677786">
        <ele>16.042</ele>
        <time>2019-06-16T15:17:36Z</time>
      </trkpt>
      <trkpt lat="43.464355" lon="-3.678118">
        <ele>15.116</ele>
        <time>2019-06-16T15:17:37Z</time>
      </trkpt>
      <trkpt lat="43.464278" lon="-3.678450">
        <ele>15.616</ele>
        <time>2019-06-16T15:17:38Z</time>
      </trkpt>
      <trkpt lat="43.464201" lon="-3.678757">
        <ele>15.970</ele>
        <time>2019-06-16T15:17:39Z</time>
      </trkpt>
      <trkpt lat="43.464124" lon="-3.679060">
        <ele>16.189</ele>
        <time>2019-06-16T15:17:40Z</time>
      </trkpt>
      <trkpt lat="43.464054" lon="-3.679363">
        <ele>16.469</ele>
        <time>2019-06-16T15:17:41Z</time>
      </trkpt>
      <trkpt lat="43.463979" lon="-3.679661">
        <ele>16.175</ele>
        <time>2019-06-16T15:17:42Z</time>
      </trkpt>
      <trkpt lat="43.463896" lon="-3.679973">
        <ele>16.074</ele>
        <time>2019-06-16T15:17:43Z</time>
      </trkpt>
      <trkpt lat="43.463825" lon="-3.680272">
        <ele>16.277</ele>
        <time>2019-06-16T15:17:44Z</time>
      </trkpt>
      <trkpt lat="43.463744" lon="-3.680595">
        <ele>15.561</ele>
        <time>2019-06-16T15:17:45Z</time>
      </trkpt>
      <trkpt lat="43.463672" lon="-3.680904">
        <ele>15.527</ele>
        <time>2019-06-16T15:17:46Z</time>
      </trkpt>
      <trkpt lat="43.463596" lon="-3.681211">
        <ele>15.008</ele>
        <time>2019-06-16T15:17:47Z</time>
      </trkpt>
      <trkpt lat="43.463521" lon="-3.681522">
        <ele>15.080</ele>
        <time>2019-06-16T15:17:48Z</time>
      </trkpt>
      <trkpt lat="43.463449" lon="-3.681818">
        <ele>15.094</ele>
        <time>2019-06-16T15:17:49Z</time>
      </trkpt>
      <trkpt lat="43.463370" lon="-3.682120">
        <ele>14.914</ele>
        <time>2019-06-16T15:17:50Z</time>
      </trkpt>
      <trkpt lat="43.463294" lon="-3.682410">
        <ele>15.018</ele>
        <time>2019-06-16T15:17:51Z</time>
      </trkpt>
      <trkpt lat="43.463225" lon="-3.682703">
        <ele>14.717</ele>
        <time>2019-06-16T15:17:52Z</time>
      </trkpt>
      <trkpt lat="43.463155" lon="-3.682994">
        <ele>14.947</ele>
        <time>2019-06-16T15:17:53Z</time>
      </trkpt>
      <trkpt lat="43.463081" lon="-3.683274">
        <ele>15.053</ele>
        <time>2019-06-16T15:17:54Z</time>
      </trkpt>
      <trkpt lat="43.463016" lon="-3.683559">
        <ele>14.912</ele>
        <time>2019-06-16T15:17:55Z</time>
      </trkpt>
      <trkpt lat="43.462952" lon="-3.683843">
        <ele>14.622</ele>
        <time>2019-06-16T15:17:56Z</time>
      </trkpt>
      <trkpt lat="43.462879" lon="-3.684114">
        <ele>14.962</ele>
        <time>2019-06-16T15:17:57Z</time>
      </trkpt>
      <trkpt lat="43.462809" lon="-3.684382">
        <ele>15.008</ele>
        <time>2019-06-16T15:17:58Z</time>
      </trkpt>
      <trkpt lat="43.462748" lon="-3.684644">
        <ele>14.308</ele>
        <time>2019-06-16T15:17:59Z</time>
      </trkpt>
      <trkpt lat="43.462684" lon="-3.684925">
        <ele>14.085</ele>
        <time>2019-06-16T15:18:00Z</time>
      </trkpt>
      <trkpt lat="43.462619" lon="-3.685207">
        <ele>14.479</ele>
        <time>2019-06-16T15:18:01Z</time>
      </trkpt>
      <trkpt lat="43.462542" lon="-3.685514">
        <ele>14.819</ele>
        <time>2019-06-16T15:18:02Z</time>
      </trkpt>
      <trkpt lat="43.462454" lon="-3.685831">
        <ele>15.073</ele>
        <time>2019-06-16T15:18:03Z</time>
      </trkpt>
      <trkpt lat="43.462373" lon="-3.686158">
        <ele>14.992</ele>
        <time>2019-06-16T15:18:04Z</time>
      </trkpt>
      <trkpt lat="43.462289" lon="-3.686479">
        <ele>14.862</ele>
        <time>2019-06-16T15:18:05Z</time>
      </trkpt>
      <trkpt lat="43.462215" lon="-3.686820">
        <ele>15.058</ele>
        <time>2019-06-16T15:18:06Z</time>
      </trkpt>
      <trkpt lat="43.462136" lon="-3.687184">
        <ele>15.017</ele>
        <time>2019-06-16T15:18:07Z</time>
      </trkpt>
      <trkpt lat="43.462054" lon="-3.687550">
        <ele>15.137</ele>
        <time>2019-06-16T15:18:08Z</time>
      </trkpt>
      <trkpt lat="43.461970" lon="-3.687906">
        <ele>15.949</ele>
        <time>2019-06-16T15:18:09Z</time>
      </trkpt>
      <trkpt lat="43.461876" lon="-3.688276">
        <ele>16.213</ele>
        <time>2019-06-16T15:18:10Z</time>
      </trkpt>
      <trkpt lat="43.461788" lon="-3.688640">
        <ele>15.608</ele>
        <time>2019-06-16T15:18:11Z</time>
      </trkpt>
      <trkpt lat="43.461703" lon="-3.689005">
        <ele>16.276</ele>
        <time>2019-06-16T15:18:12Z</time>
      </trkpt>
      <trkpt lat="43.461617" lon="-3.689375">
        <ele>17.240</ele>
        <time>2019-06-16T15:18:13Z</time>
      </trkpt>
      <trkpt lat="43.461526" lon="-3.689746">
        <ele>16.670</ele>
        <time>2019-06-16T15:18:14Z</time>
      </trkpt>
      <trkpt lat="43.461448" lon="-3.690114">
        <ele>17.634</ele>
        <time>2019-06-16T15:18:15Z</time>
      </trkpt>
      <trkpt lat="43.461352" lon="-3.690484">
        <ele>18.053</ele>
        <time>2019-06-16T15:18:16Z</time>
      </trkpt>
      <trkpt lat="43.461260" lon="-3.690849">
        <ele>17.593</ele>
        <time>2019-06-16T15:18:17Z</time>
      </trkpt>
      <trkpt lat="43.461173" lon="-3.691223">
        <ele>17.989</ele>
        <time>2019-06-16T15:18:18Z</time>
      </trkpt>
      <trkpt lat="43.461082" lon="-3.691592">
        <ele>18.838</ele>
        <time>2019-06-16T15:18:19Z</time>
      </trkpt>
      <trkpt lat="43.460987" lon="-3.691958">
        <ele>18.574</ele>
        <time>2019-06-16T15:18:20Z</time>
      </trkpt>
      <trkpt lat="43.460900" lon="-3.692327">
        <ele>19.556</ele>
        <time>2019-06-16T15:18:21Z</time>
      </trkpt>
      <trkpt lat="43.460814" lon="-3.692683">
        <ele>20.021</ele>
        <time>2019-06-16T15:18:22Z</time>
      </trkpt>
      <trkpt lat="43.460724" lon="-3.693056">
        <ele>20.008</ele>
        <time>2019-06-16T15:18:23Z</time>
      </trkpt>
      <trkpt lat="43.460641" lon="-3.693412">
        <ele>20.710</ele>
        <time>2019-06-16T15:18:24Z</time>
      </trkpt>
      <trkpt lat="43.460555" lon="-3.693768">
        <ele>21.614</ele>
        <time>2019-06-16T15:18:25Z</time>
      </trkpt>
      <trkpt lat="43.460469" lon="-3.694118">
        <ele>21.444</ele>
        <time>2019-06-16T15:18:26Z</time>
      </trkpt>
      <trkpt lat="43.460386" lon="-3.694472">
        <ele>22.158</ele>
        <time>2019-06-16T15:18:27Z</time>
      </trkpt>
      <trkpt lat="43.460307" lon="-3.694805">
        <ele>22.917</ele>
        <time>2019-06-16T15:18:28Z</time>
      </trkpt>
      <trkpt lat="43.460232" lon="-3.695125">
        <ele>23.227</ele>
        <time>2019-06-16T15:18:29Z</time>
      </trkpt>
      <trkpt lat="43.460155" lon="-3.695438">
        <ele>23.883</ele>
        <time>2019-06-16T15:18:30Z</time>
      </trkpt>
      <trkpt lat="43.460074" lon="-3.695757">
        <ele>24.572</ele>
        <time>2019-06-16T15:18:31Z</time>
      </trkpt>
      <trkpt lat="43.459996" lon="-3.696075">
        <ele>25.088</ele>
        <time>2019-06-16T15:18:32Z</time>
      </trkpt>
      <trkpt lat="43.459906" lon="-3.696391">
        <ele>25.324</ele>
        <time>2019-06-16T15:18:33Z</time>
      </trkpt>
      <trkpt lat="43.459835" lon="-3.696702">
        <ele>25.526</ele>
        <time>2019-06-16T15:18:34Z</time>
      </trkpt>
      <trkpt lat="43.459761" lon="-3.697011">
        <ele>25.708</ele>
        <time>2019-06-16T15:18:35Z</time>
      </trkpt>
      <trkpt lat="43.459689" lon="-3.697320">
        <ele>26.231</ele>
        <time>2019-06-16T15:18:36Z</time>
      </trkpt>
      <trkpt lat="43.459611" lon="-3.697645">
        <ele>26.885</ele>
        <time>2019-06-16T15:18:37Z</time>
      </trkpt>
      <trkpt lat="43.459533" lon="-3.697966">
        <ele>26.985</ele>
        <time>2019-06-16T15:18:38Z</time>
      </trkpt>
      <trkpt lat="43.459456" lon="-3.698286">
        <ele>27.739</ele>
        <time>2019-06-16T15:18:39Z</time>
      </trkpt>
      <trkpt lat="43.459378" lon="-3.698609">
        <ele>28.268</ele>
        <time>2019-06-16T15:18:40Z</time>
      </trkpt>
      <trkpt lat="43.459298" lon="-3.698937">
        <ele>28.068</ele>
        <time>2019-06-16T15:18:41Z</time>
      </trkpt>
      <trkpt lat="43.459215" lon="-3.699268">
        <ele>27.844</ele>
        <time>2019-06-16T15:18:42Z</time>
      </trkpt>
      <trkpt lat="43.459137" lon="-3.699591">
        <ele>28.133</ele>
        <time>2019-06-16T15:18:43Z</time>
      </trkpt>
      <trkpt lat="43.459057" lon="-3.699934">
        <ele>28.412</ele>
        <time>2019-06-16T15:18:44Z</time>
      </trkpt>
      <trkpt lat="43.458971" lon="-3.700252">
        <ele>27.832</ele>
        <time>2019-06-16T15:18:45Z</time>
      </trkpt>
      <trkpt lat="43.458893" lon="-3.700582">
        <ele>28.005</ele>
        <time>2019-06-16T15:18:46Z</time>
      </trkpt>
      <trkpt lat="43.458810" lon="-3.700919">
        <ele>28.208</ele>
        <time>2019-06-16T15:18:47Z</time>
      </trkpt>
      <trkpt lat="43.458724" lon="-3.701249">
        <ele>27.784</ele>
        <time>2019-06-16T15:18:48Z</time>
      </trkpt>
      <trkpt lat="43.458639" lon="-3.701587">
        <ele>27.218</ele>
        <time>2019-06-16T15:18:49Z</time>
      </trkpt>
      <trkpt lat="43.458550" lon="-3.701925">
        <ele>26.838</ele>
        <time>2019-06-16T15:18:50Z</time>
      </trkpt>
      <trkpt lat="43.458464" lon="-3.702260">
        <ele>26.492</ele>
        <time>2019-06-16T15:18:51Z</time>
      </trkpt>
      <trkpt lat="43.458377" lon="-3.702594">
        <ele>25.761</ele>
        <time>2019-06-16T15:18:52Z</time>
      </trkpt>
      <trkpt lat="43.458294" lon="-3.702929">
        <ele>24.481</ele>
        <time>2019-06-16T15:18:53Z</time>
      </trkpt>
      <trkpt lat="43.458209" lon="-3.703263">
        <ele>23.777</ele>
        <time>2019-06-16T15:18:54Z</time>
      </trkpt>
      <trkpt lat="43.458127" lon="-3.703604">
        <ele>23.046</ele>
        <time>2019-06-16T15:18:55Z</time>
      </trkpt>
      <trkpt lat="43.458045" lon="-3.703945">
        <ele>22.064</ele>
        <time>2019-06-16T15:18:56Z</time>
      </trkpt>
      <trkpt lat="43.457960" lon="-3.704279">
        <ele>21.706</ele>
        <time>2019-06-16T15:18:57Z</time>
      </trkpt>
      <trkpt lat="43.457882" lon="-3.704617">
        <ele>21.416</ele>
        <time>2019-06-16T15:18:58Z</time>
      </trkpt>
      <trkpt lat="43.457796" lon="-3.704958">
        <ele>20.208</ele>
        <time>2019-06-16T15:18:59Z</time>
      </trkpt>
      <trkpt lat="43.457714" lon="-3.705302">
        <ele>19.539</ele>
        <time>2019-06-16T15:19:00Z</time>
      </trkpt>
      <trkpt lat="43.457623" lon="-3.705648">
        <ele>18.643</ele>
        <time>2019-06-16T15:19:01Z</time>
      </trkpt>
      <trkpt lat="43.457528" lon="-3.705993">
        <ele>18.463</ele>
        <time>2019-06-16T15:19:02Z</time>
      </trkpt>
      <trkpt lat="43.457425" lon="-3.706349">
        <ele>17.117</ele>
        <time>2019-06-16T15:19:03Z</time>
      </trkpt>
      <trkpt lat="43.457331" lon="-3.706697">
        <ele>16.416</ele>
        <time>2019-06-16T15:19:04Z</time>
      </trkpt>
      <trkpt lat="43.457234" lon="-3.707011">
        <ele>16.056</ele>
        <time>2019-06-16T15:19:05Z</time>
      </trkpt>
      <trkpt lat="43.457148" lon="-3.707345">
        <ele>15.392</ele>
        <time>2019-06-16T15:19:06Z</time>
      </trkpt>
      <trkpt lat="43.457053" lon="-3.707693">
        <ele>14.461</ele>
        <time>2019-06-16T15:19:07Z</time>
      </trkpt>
      <trkpt lat="43.456951" lon="-3.708024">
        <ele>14.046</ele>
        <time>2019-06-16T15:19:08Z</time>
      </trkpt>
      <trkpt lat="43.456856" lon="-3.708357">
        <ele>12.788</ele>
        <time>2019-06-16T15:19:09Z</time>
      </trkpt>
      <trkpt lat="43.456769" lon="-3.708677">
        <ele>12.416</ele>
        <time>2019-06-16T15:19:10Z</time>
      </trkpt>
      <trkpt lat="43.456683" lon="-3.709005">
        <ele>12.008</ele>
        <time>2019-06-16T15:19:11Z</time>
      </trkpt>
      <trkpt lat="43.456593" lon="-3.709335">
        <ele>11.827</ele>
        <time>2019-06-16T15:19:12Z</time>
      </trkpt>
      <trkpt lat="43.456532" lon="-3.709634">
        <ele>11.541</ele>
        <time>2019-06-16T15:19:13Z</time>
      </trkpt>
      <trkpt lat="43.456433" lon="-3.709974">
        <ele>11.061</ele>
        <time>2019-06-16T15:19:14Z</time>
      </trkpt>
      <trkpt lat="43.456357" lon="-3.710270">
        <ele>10.975</ele>
        <time>2019-06-16T15:19:15Z</time>
      </trkpt>
      <trkpt lat="43.456294" lon="-3.710533">
        <ele>10.784</ele>
        <time>2019-06-16T15:19:16Z</time>
      </trkpt>
      <trkpt lat="43.456224" lon="-3.710798">
        <ele>10.984</ele>
        <time>2019-06-16T15:19:17Z</time>
      </trkpt>
      <trkpt lat="43.456156" lon="-3.711053">
        <ele>11.060</ele>
        <time>2019-06-16T15:19:18Z</time>
      </trkpt>
      <trkpt lat="43.456101" lon="-3.711287">
        <ele>11.079</ele>
        <time>2019-06-16T15:19:19Z</time>
      </trkpt>
      <trkpt lat="43.456047" lon="-3.711507">
        <ele>11.096</ele>
        <time>2019-06-16T15:19:20Z</time>
      </trkpt>
      <trkpt lat="43.455992" lon="-3.711718">
        <ele>11.031</ele>
        <time>2019-06-16T15:19:21Z</time>
      </trkpt>
      <trkpt lat="43.455941" lon="-3.711926">
        <ele>11.224</ele>
        <time>2019-06-16T15:19:22Z</time>
      </trkpt>
      <trkpt lat="43.455887" lon="-3.712127">
        <ele>11.608</ele>
        <time>2019-06-16T15:19:23Z</time>
      </trkpt>
      <trkpt lat="43.455832" lon="-3.712317">
        <ele>12.052</ele>
        <time>2019-06-16T15:19:24Z</time>
      </trkpt>
      <trkpt lat="43.455778" lon="-3.712514">
        <ele>12.636</ele>
        <time>2019-06-16T15:19:25Z</time>
      </trkpt>
      <trkpt lat="43.455727" lon="-3.712718">
        <ele>13.646</ele>
        <time>2019-06-16T15:19:26Z</time>
      </trkpt>
      <trkpt lat="43.455685" lon="-3.712910">
        <ele>13.840</ele>
        <time>2019-06-16T15:19:27Z</time>
      </trkpt>
      <trkpt lat="43.455628" lon="-3.713135">
        <ele>13.649</ele>
        <time>2019-06-16T15:19:28Z</time>
      </trkpt>
      <trkpt lat="43.455567" lon="-3.713349">
        <ele>13.029</ele>
        <time>2019-06-16T15:19:29Z</time>
      </trkpt>
      <trkpt lat="43.455511" lon="-3.713571">
        <ele>13.575</ele>
        <time>2019-06-16T15:19:30Z</time>
      </trkpt>
      <trkpt lat="43.455457" lon="-3.713795">
        <ele>14.324</ele>
        <time>2019-06-16T15:19:31Z</time>
      </trkpt>
      <trkpt lat="43.455396" lon="-3.714016">
        <ele>14.368</ele>
        <time>2019-06-16T15:19:32Z</time>
      </trkpt>
      <trkpt lat="43.455335" lon="-3.714247">
        <ele>14.042</ele>
        <time>2019-06-16T15:19:33Z</time>
      </trkpt>
      <trkpt lat="43.455253" lon="-3.714512">
        <ele>13.926</ele>
        <time>2019-06-16T15:19:34Z</time>
      </trkpt>
      <trkpt lat="43.455173" lon="-3.714770">
        <ele>13.708</ele>
        <time>2019-06-16T15:19:35Z</time>
      </trkpt>
      <trkpt lat="43.455112" lon="-3.715006">
        <ele>13.669</ele>
        <time>2019-06-16T15:19:36Z</time>
      </trkpt>
      <trkpt lat="43.455051" lon="-3.715290">
        <ele>12.823</ele>
        <time>2019-06-16T15:19:37Z</time>
      </trkpt>
      <trkpt lat="43.454987" lon="-3.715579">
        <ele>13.073</ele>
        <time>2019-06-16T15:19:38Z</time>
      </trkpt>
      <trkpt lat="43.454917" lon="-3.715876">
        <ele>12.287</ele>
        <time>2019-06-16T15:19:39Z</time>
      </trkpt>
      <trkpt lat="43.454840" lon="-3.716179">
        <ele>11.946</ele>
        <time>2019-06-16T15:19:40Z</time>
      </trkpt>
      <trkpt lat="43.454772" lon="-3.716472">
        <ele>12.346</ele>
        <time>2019-06-16T15:19:41Z</time>
      </trkpt>
      <trkpt lat="43.454697" lon="-3.716770">
        <ele>12.632</ele>
        <time>2019-06-16T15:19:42Z</time>
      </trkpt>
      <trkpt lat="43.454620" lon="-3.717067">
        <ele>11.931</ele>
        <time>2019-06-16T15:19:43Z</time>
      </trkpt>
      <trkpt lat="43.454555" lon="-3.717353">
        <ele>12.045</ele>
        <time>2019-06-16T15:19:44Z</time>
      </trkpt>
      <trkpt lat="43.454485" lon="-3.717637">
        <ele>12.947</ele>
        <time>2019-06-16T15:19:45Z</time>
      </trkpt>
      <trkpt lat="43.454410" lon="-3.717917">
        <ele>13.511</ele>
        <time>2019-06-16T15:19:46Z</time>
      </trkpt>
      <trkpt lat="43.454346" lon="-3.718157">
        <ele>13.508</ele>
        <time>2019-06-16T15:19:47Z</time>
      </trkpt>
      <trkpt lat="43.454276" lon="-3.718396">
        <ele>14.327</ele>
        <time>2019-06-16T15:19:48Z</time>
      </trkpt>
      <trkpt lat="43.454226" lon="-3.718584">
        <ele>14.891</ele>
        <time>2019-06-16T15:19:49Z</time>
      </trkpt>
      <trkpt lat="43.454178" lon="-3.718779">
        <ele>15.661</ele>
        <time>2019-06-16T15:19:50Z</time>
      </trkpt>
      <trkpt lat="43.454143" lon="-3.718968">
        <ele>16.755</ele>
        <time>2019-06-16T15:19:51Z</time>
      </trkpt>
      <trkpt lat="43.454127" lon="-3.719130">
        <ele>17.854</ele>
        <time>2019-06-16T15:19:52Z</time>
      </trkpt>
      <trkpt lat="43.454130" lon="-3.719283">
        <ele>18.154</ele>
        <time>2019-06-16T15:19:53Z</time>
      </trkpt>
      <trkpt lat="43.454133" lon="-3.719427">
        <ele>18.170</ele>
        <time>2019-06-16T15:19:54Z</time>
      </trkpt>
      <trkpt lat="43.454123" lon="-3.719552">
        <ele>18.559</ele>
        <time>2019-06-16T15:19:55Z</time>
      </trkpt>
      <trkpt lat="43.454111" lon="-3.719669">
        <ele>19.073</ele>
        <time>2019-06-16T15:19:56Z</time>
      </trkpt>
      <trkpt lat="43.454074" lon="-3.719782">
        <ele>19.385</ele>
        <time>2019-06-16T15:19:57Z</time>
      </trkpt>
      <trkpt lat="43.454017" lon="-3.719867">
        <ele>19.513</ele>
        <time>2019-06-16T15:19:58Z</time>
      </trkpt>
      <trkpt lat="43.453931" lon="-3.719966">
        <ele>19.808</ele>
        <time>2019-06-16T15:19:59Z</time>
      </trkpt>
      <trkpt lat="43.453853" lon="-3.720081">
        <ele>20.290</ele>
        <time>2019-06-16T15:20:00Z</time>
      </trkpt>
      <trkpt lat="43.453784" lon="-3.720224">
        <ele>20.764</ele>
        <time>2019-06-16T15:20:01Z</time>
      </trkpt>
      <trkpt lat="43.453730" lon="-3.720420">
        <ele>21.174</ele>
        <time>2019-06-16T15:20:02Z</time>
      </trkpt>
      <trkpt lat="43.453672" lon="-3.720623">
        <ele>21.668</ele>
        <time>2019-06-16T15:20:03Z</time>
      </trkpt>
      <trkpt lat="43.453617" lon="-3.720839">
        <ele>22.017</ele>
        <time>2019-06-16T15:20:04Z</time>
      </trkpt>
      <trkpt lat="43.453565" lon="-3.721057">
        <ele>22.297</ele>
        <time>2019-06-16T15:20:05Z</time>
      </trkpt>
      <trkpt lat="43.453503" lon="-3.721298">
        <ele>22.423</ele>
        <time>2019-06-16T15:20:06Z</time>
      </trkpt>
      <trkpt lat="43.453434" lon="-3.721546">
        <ele>22.672</ele>
        <time>2019-06-16T15:20:07Z</time>
      </trkpt>
      <trkpt lat="43.453366" lon="-3.721801">
        <ele>22.862</ele>
        <time>2019-06-16T15:20:08Z</time>
      </trkpt>
      <trkpt lat="43.453296" lon="-3.722065">
        <ele>23.083</ele>
        <time>2019-06-16T15:20:09Z</time>
      </trkpt>
      <trkpt lat="43.453228" lon="-3.722335">
        <ele>23.211</ele>
        <time>2019-06-16T15:20:10Z</time>
      </trkpt>
      <trkpt lat="43.453156" lon="-3.722593">
        <ele>24.008</ele>
        <time>2019-06-16T15:20:11Z</time>
      </trkpt>
      <trkpt lat="43.453087" lon="-3.722864">
        <ele>24.919</ele>
        <time>2019-06-16T15:20:12Z</time>
      </trkpt>
      <trkpt lat="43.453013" lon="-3.723133">
        <ele>25.283</ele>
        <time>2019-06-16T15:20:13Z</time>
      </trkpt>
      <trkpt lat="43.452939" lon="-3.723417">
        <ele>25.743</ele>
        <time>2019-06-16T15:20:14Z</time>
      </trkpt>
      <trkpt lat="43.452868" lon="-3.723694">
        <ele>26.137</ele>
        <time>2019-06-16T15:20:15Z</time>
      </trkpt>
      <trkpt lat="43.452799" lon="-3.723963">
        <ele>26.356</ele>
        <time>2019-06-16T15:20:16Z</time>
      </trkpt>
      <trkpt lat="43.452730" lon="-3.724218">
        <ele>27.066</ele>
        <time>2019-06-16T15:20:17Z</time>
      </trkpt>
      <trkpt lat="43.452668" lon="-3.724468">
        <ele>27.732</ele>
        <time>2019-06-16T15:20:18Z</time>
      </trkpt>
      <trkpt lat="43.452599" lon="-3.724713">
        <ele>28.341</ele>
        <time>2019-06-16T15:20:19Z</time>
      </trkpt>
      <trkpt lat="43.452538" lon="-3.724944">
        <ele>28.293</ele>
        <time>2019-06-16T15:20:20Z</time>
      </trkpt>
      <trkpt lat="43.452486" lon="-3.725171">
        <ele>28.565</ele>
        <time>2019-06-16T15:20:21Z</time>
      </trkpt>
      <trkpt lat="43.452417" lon="-3.725412">
        <ele>28.921</ele>
        <time>2019-06-16T15:20:22Z</time>
      </trkpt>
      <trkpt lat="43.452353" lon="-3.725660">
        <ele>28.908</ele>
        <time>2019-06-16T15:20:23Z</time>
      </trkpt>
      <trkpt lat="43.452291" lon="-3.725896">
        <ele>28.742</ele>
        <time>2019-06-16T15:20:24Z</time>
      </trkpt>
      <trkpt lat="43.452242" lon="-3.726134">
        <ele>29.276</ele>
        <time>2019-06-16T15:20:25Z</time>
      </trkpt>
      <trkpt lat="43.452173" lon="-3.726380">
        <ele>29.886</ele>
        <time>2019-06-16T15:20:26Z</time>
      </trkpt>
      <trkpt lat="43.452107" lon="-3.726640">
        <ele>29.640</ele>
        <time>2019-06-16T15:20:27Z</time>
      </trkpt>
      <trkpt lat="43.452040" lon="-3.726867">
        <ele>29.359</ele>
        <time>2019-06-16T15:20:28Z</time>
      </trkpt>
      <trkpt lat="43.451978" lon="-3.727070">
        <ele>29.119</ele>
        <time>2019-06-16T15:20:29Z</time>
      </trkpt>
      <trkpt lat="43.451927" lon="-3.727265">
        <ele>28.945</ele>
        <time>2019-06-16T15:20:30Z</time>
      </trkpt>
      <trkpt lat="43.451865" lon="-3.727484">
        <ele>28.474</ele>
        <time>2019-06-16T15:20:31Z</time>
      </trkpt>
      <trkpt lat="43.451811" lon="-3.727692">
        <ele>28.072</ele>
        <time>2019-06-16T15:20:32Z</time>
      </trkpt>
      <trkpt lat="43.451762" lon="-3.727921">
        <ele>28.213</ele>
        <time>2019-06-16T15:20:33Z</time>
      </trkpt>
      <trkpt lat="43.451712" lon="-3.728140">
        <ele>28.614</ele>
        <time>2019-06-16T15:20:34Z</time>
      </trkpt>
      <trkpt lat="43.451659" lon="-3.728366">
        <ele>29.108</ele>
        <time>2019-06-16T15:20:35Z</time>
      </trkpt>
      <trkpt lat="43.451619" lon="-3.728571">
        <ele>29.570</ele>
        <time>2019-06-16T15:20:36Z</time>
      </trkpt>
      <trkpt lat="43.451563" lon="-3.728788">
        <ele>29.344</ele>
        <time>2019-06-16T15:20:37Z</time>
      </trkpt>
      <trkpt lat="43.451518" lon="-3.728982">
        <ele>29.134</ele>
        <time>2019-06-16T15:20:38Z</time>
      </trkpt>
      <trkpt lat="43.451459" lon="-3.729175">
        <ele>29.378</ele>
        <time>2019-06-16T15:20:39Z</time>
      </trkpt>
      <trkpt lat="43.451432" lon="-3.729331">
        <ele>29.767</ele>
        <time>2019-06-16T15:20:40Z</time>
      </trkpt>
      <trkpt lat="43.451388" lon="-3.729502">
        <ele>30.047</ele>
        <time>2019-06-16T15:20:41Z</time>
      </trkpt>
      <trkpt lat="43.451342" lon="-3.729667">
        <ele>29.633</ele>
        <time>2019-06-16T15:20:42Z</time>
      </trkpt>
      <trkpt lat="43.451309" lon="-3.729804">
        <ele>29.522</ele>
        <time>2019-06-16T15:20:43Z</time>
      </trkpt>
      <trkpt lat="43.451270" lon="-3.729950">
        <ele>29.515</ele>
        <time>2019-06-16T15:20:44Z</time>
      </trkpt>
      <trkpt lat="43.451237" lon="-3.730093">
        <ele>29.665</ele>
        <time>2019-06-16T15:20:45Z</time>
      </trkpt>
      <trkpt lat="43.451189" lon="-3.730253">
        <ele>29.511</ele>
        <time>2019-06-16T15:20:46Z</time>
      </trkpt>
      <trkpt lat="43.451149" lon="-3.730403">
        <ele>29.708</ele>
        <time>2019-06-16T15:20:47Z</time>
      </trkpt>
      <trkpt lat="43.451113" lon="-3.730541">
        <ele>30.044</ele>
        <time>2019-06-16T15:20:48Z</time>
      </trkpt>
      <trkpt lat="43.451087" lon="-3.730680">
        <ele>29.918</ele>
        <time>2019-06-16T15:20:49Z</time>
      </trkpt>
      <trkpt lat="43.451085" lon="-3.730808">
        <ele>30.088</ele>
        <time>2019-06-16T15:20:50Z</time>
      </trkpt>
      <trkpt lat="43.451100" lon="-3.730938">
        <ele>30.492</ele>
        <time>2019-06-16T15:20:51Z</time>
      </trkpt>
      <trkpt lat="43.451101" lon="-3.731074">
        <ele>30.931</ele>
        <time>2019-06-16T15:20:52Z</time>
      </trkpt>
      <trkpt lat="43.451092" lon="-3.731177">
        <ele>30.841</ele>
        <time>2019-06-16T15:20:53Z</time>
      </trkpt>
      <trkpt lat="43.451070" lon="-3.731283">
        <ele>30.427</ele>
        <time>2019-06-16T15:20:54Z</time>
      </trkpt>
      <trkpt lat="43.451032" lon="-3.731404">
        <ele>30.026</ele>
        <time>2019-06-16T15:20:55Z</time>
      </trkpt>
      <trkpt lat="43.450993" lon="-3.731508">
        <ele>30.289</ele>
        <time>2019-06-16T15:20:56Z</time>
      </trkpt>
      <trkpt lat="43.450897" lon="-3.731604">
        <ele>30.206</ele>
        <time>2019-06-16T15:20:57Z</time>
      </trkpt>
      <trkpt lat="43.450832" lon="-3.731704">
        <ele>30.026</ele>
        <time>2019-06-16T15:20:58Z</time>
      </trkpt>
      <trkpt lat="43.450771" lon="-3.731886">
        <ele>29.508</ele>
        <time>2019-06-16T15:20:59Z</time>
      </trkpt>
      <trkpt lat="43.450765" lon="-3.732042">
        <ele>29.821</ele>
        <time>2019-06-16T15:21:00Z</time>
      </trkpt>
      <trkpt lat="43.450760" lon="-3.732227">
        <ele>30.245</ele>
        <time>2019-06-16T15:21:01Z</time>
      </trkpt>
      <trkpt lat="43.450754" lon="-3.732428">
        <ele>29.675</ele>
        <time>2019-06-16T15:21:02Z</time>
      </trkpt>
      <trkpt lat="43.450749" lon="-3.732626">
        <ele>29.329</ele>
        <time>2019-06-16T15:21:03Z</time>
      </trkpt>
      <trkpt lat="43.450793" lon="-3.732880">
        <ele>29.618</ele>
        <time>2019-06-16T15:21:04Z</time>
      </trkpt>
      <trkpt lat="43.450811" lon="-3.733115">
        <ele>29.748</ele>
        <time>2019-06-16T15:21:05Z</time>
      </trkpt>
      <trkpt lat="43.450834" lon="-3.733354">
        <ele>29.974</ele>
        <time>2019-06-16T15:21:06Z</time>
      </trkpt>
      <trkpt lat="43.450882" lon="-3.733590">
        <ele>29.453</ele>
        <time>2019-06-16T15:21:07Z</time>
      </trkpt>
      <trkpt lat="43.450912" lon="-3.733832">
        <ele>29.644</ele>
        <time>2019-06-16T15:21:08Z</time>
      </trkpt>
      <trkpt lat="43.450964" lon="-3.734063">
        <ele>29.605</ele>
        <time>2019-06-16T15:21:09Z</time>
      </trkpt>
      <trkpt lat="43.450998" lon="-3.734299">
        <ele>29.415</ele>
        <time>2019-06-16T15:21:10Z</time>
      </trkpt>
      <trkpt lat="43.451049" lon="-3.734542">
        <ele>29.508</ele>
        <time>2019-06-16T15:21:11Z</time>
      </trkpt>
      <trkpt lat="43.451094" lon="-3.734803">
        <ele>29.897</ele>
        <time>2019-06-16T15:21:12Z</time>
      </trkpt>
      <trkpt lat="43.451128" lon="-3.735050">
        <ele>29.981</ele>
        <time>2019-06-16T15:21:13Z</time>
      </trkpt>
      <trkpt lat="43.451190" lon="-3.735289">
        <ele>29.531</ele>
        <time>2019-06-16T15:21:14Z</time>
      </trkpt>
      <trkpt lat="43.451210" lon="-3.735555">
        <ele>28.735</ele>
        <time>2019-06-16T15:21:15Z</time>
      </trkpt>
      <trkpt lat="43.451252" lon="-3.735773">
        <ele>28.644</ele>
        <time>2019-06-16T15:21:16Z</time>
      </trkpt>
      <trkpt lat="43.451267" lon="-3.736016">
        <ele>28.914</ele>
        <time>2019-06-16T15:21:17Z</time>
      </trkpt>
      <trkpt lat="43.451297" lon="-3.736220">
        <ele>29.570</ele>
        <time>2019-06-16T15:21:18Z</time>
      </trkpt>
      <trkpt lat="43.451343" lon="-3.736420">
        <ele>29.949</ele>
        <time>2019-06-16T15:21:19Z</time>
      </trkpt>
      <trkpt lat="43.451382" lon="-3.736624">
        <ele>30.097</ele>
        <time>2019-06-16T15:21:20Z</time>
      </trkpt>
      <trkpt lat="43.451405" lon="-3.736837">
        <ele>30.623</ele>
        <time>2019-06-16T15:21:21Z</time>
      </trkpt>
      <trkpt lat="43.451438" lon="-3.737028">
        <ele>30.925</ele>
        <time>2019-06-16T15:21:22Z</time>
      </trkpt>
      <trkpt lat="43.451464" lon="-3.737221">
        <ele>31.008</ele>
        <time>2019-06-16T15:21:23Z</time>
      </trkpt>
      <trkpt lat="43.451488" lon="-3.737412">
        <ele>31.762</ele>
        <time>2019-06-16T15:21:24Z</time>
      </trkpt>
      <trkpt lat="43.451528" lon="-3.737586">
        <ele>32.016</ele>
        <time>2019-06-16T15:21:25Z</time>
      </trkpt>
      <trkpt lat="43.451565" lon="-3.737760">
        <ele>32.066</ele>
        <time>2019-06-16T15:21:26Z</time>
      </trkpt>
      <trkpt lat="43.451655" lon="-3.737941">
        <ele>32.680</ele>
        <time>2019-06-16T15:21:27Z</time>
      </trkpt>
      <trkpt lat="43.451742" lon="-3.738106">
        <ele>32.939</ele>
        <time>2019-06-16T15:21:28Z</time>
      </trkpt>
      <trkpt lat="43.451812" lon="-3.738270">
        <ele>33.239</ele>
        <time>2019-06-16T15:21:29Z</time>
      </trkpt>
      <trkpt lat="43.451886" lon="-3.738429">
        <ele>32.985</ele>
        <time>2019-06-16T15:21:30Z</time>
      </trkpt>
      <trkpt lat="43.451944" lon="-3.738579">
        <ele>32.164</ele>
        <time>2019-06-16T15:21:31Z</time>
      </trkpt>
      <trkpt lat="43.452053" lon="-3.738677">
        <ele>31.934</ele>
        <time>2019-06-16T15:21:32Z</time>
      </trkpt>
      <trkpt lat="43.452125" lon="-3.738822">
        <ele>31.555</ele>
        <time>2019-06-16T15:21:33Z</time>
      </trkpt>
      <trkpt lat="43.452204" lon="-3.738956">
        <ele>30.810</ele>
        <time>2019-06-16T15:21:34Z</time>
      </trkpt>
      <trkpt lat="43.452286" lon="-3.739087">
        <ele>30.308</ele>
        <time>2019-06-16T15:21:35Z</time>
      </trkpt>
      <trkpt lat="43.452377" lon="-3.739213">
        <ele>29.776</ele>
        <time>2019-06-16T15:21:36Z</time>
      </trkpt>
      <trkpt lat="43.452472" lon="-3.739348">
        <ele>28.710</ele>
        <time>2019-06-16T15:21:37Z</time>
      </trkpt>
      <trkpt lat="43.452571" lon="-3.739480">
        <ele>27.450</ele>
        <time>2019-06-16T15:21:38Z</time>
      </trkpt>
      <trkpt lat="43.452667" lon="-3.739619">
        <ele>25.914</ele>
        <time>2019-06-16T15:21:39Z</time>
      </trkpt>
      <trkpt lat="43.452765" lon="-3.739760">
        <ele>24.743</ele>
        <time>2019-06-16T15:21:40Z</time>
      </trkpt>
      <trkpt lat="43.452858" lon="-3.739897">
        <ele>24.323</ele>
        <time>2019-06-16T15:21:41Z</time>
      </trkpt>
      <trkpt lat="43.452953" lon="-3.740054">
        <ele>23.829</ele>
        <time>2019-06-16T15:21:42Z</time>
      </trkpt>
      <trkpt lat="43.453032" lon="-3.740207">
        <ele>22.738</ele>
        <time>2019-06-16T15:21:43Z</time>
      </trkpt>
      <trkpt lat="43.453110" lon="-3.740351">
        <ele>21.651</ele>
        <time>2019-06-16T15:21:44Z</time>
      </trkpt>
      <trkpt lat="43.453149" lon="-3.740498">
        <ele>20.501</ele>
        <time>2019-06-16T15:21:45Z</time>
      </trkpt>
      <trkpt lat="43.453197" lon="-3.740622">
        <ele>19.511</ele>
        <time>2019-06-16T15:21:46Z</time>
      </trkpt>
      <trkpt lat="43.453251" lon="-3.740737">
        <ele>18.708</ele>
        <time>2019-06-16T15:21:47Z</time>
      </trkpt>
      <trkpt lat="43.453308" lon="-3.740841">
        <ele>17.928</ele>
        <time>2019-06-16T15:21:48Z</time>
      </trkpt>
      <trkpt lat="43.453375" lon="-3.740943">
        <ele>16.482</ele>
        <time>2019-06-16T15:21:49Z</time>
      </trkpt>
      <trkpt lat="43.453441" lon="-3.741047">
        <ele>14.122</ele>
        <time>2019-06-16T15:21:50Z</time>
      </trkpt>
      <trkpt lat="43.453530" lon="-3.741170">
        <ele>11.446</ele>
        <time>2019-06-16T15:21:51Z</time>
      </trkpt>
      <trkpt lat="43.453599" lon="-3.741306">
        <ele>10.275</ele>
        <time>2019-06-16T15:21:52Z</time>
      </trkpt>
      <trkpt lat="43.453659" lon="-3.741392">
        <ele>9.665</ele>
        <time>2019-06-16T15:21:53Z</time>
      </trkpt>
      <trkpt lat="43.453716" lon="-3.741539">
        <ele>8.441</ele>
        <time>2019-06-16T15:21:54Z</time>
      </trkpt>
      <trkpt lat="43.453789" lon="-3.741695">
        <ele>7.390</ele>
        <time>2019-06-16T15:21:55Z</time>
      </trkpt>
      <trkpt lat="43.453853" lon="-3.741857">
        <ele>7.052</ele>
        <time>2019-06-16T15:21:56Z</time>
      </trkpt>
      <trkpt lat="43.453913" lon="-3.742012">
        <ele>6.853</ele>
        <time>2019-06-16T15:21:57Z</time>
      </trkpt>
      <trkpt lat="43.453956" lon="-3.742154">
        <ele>6.208</ele>
        <time>2019-06-16T15:21:58Z</time>
      </trkpt>
      <trkpt lat="43.453990" lon="-3.742282">
        <ele>5.908</ele>
        <time>2019-06-16T15:21:59Z</time>
      </trkpt>
      <trkpt lat="43.454015" lon="-3.742406">
        <ele>5.768</ele>
        <time>2019-06-16T15:22:00Z</time>
      </trkpt>
      <trkpt lat="43.454006" lon="-3.742516">
        <ele>5.622</ele>
        <time>2019-06-16T15:22:01Z</time>
      </trkpt>
      <trkpt lat="43.453990" lon="-3.742629">
        <ele>5.662</ele>
        <time>2019-06-16T15:22:02Z</time>
      </trkpt>
      <trkpt lat="43.453970" lon="-3.742718">
        <ele>5.716</ele>
        <time>2019-06-16T15:22:03Z</time>
      </trkpt>
      <trkpt lat="43.453954" lon="-3.742808">
        <ele>5.735</ele>
        <time>2019-06-16T15:22:04Z</time>
      </trkpt>
      <trkpt lat="43.453834" lon="-3.742888">
        <ele>5.625</ele>
        <time>2019-06-16T15:22:05Z</time>
      </trkpt>
      <trkpt lat="43.453768" lon="-3.742961">
        <ele>5.321</ele>
        <time>2019-06-16T15:22:06Z</time>
      </trkpt>
      <trkpt lat="43.453715" lon="-3.743029">
        <ele>5.140</ele>
        <time>2019-06-16T15:22:07Z</time>
      </trkpt>
      <trkpt lat="43.453680" lon="-3.743114">
        <ele>5.073</ele>
        <time>2019-06-16T15:22:09Z</time>
      </trkpt>
      <trkpt lat="43.453668" lon="-3.743217">
        <ele>5.085</ele>
        <time>2019-06-16T15:22:11Z</time>
      </trkpt>
      <trkpt lat="43.453700" lon="-3.743265">
        <ele>5.013</ele>
        <time>2019-06-16T15:22:12Z</time>
      </trkpt>
      <trkpt lat="43.453739" lon="-3.743316">
        <ele>5.008</ele>
        <time>2019-06-16T15:22:13Z</time>
      </trkpt>
      <trkpt lat="43.453780" lon="-3.743358">
        <ele>5.020</ele>
        <time>2019-06-16T15:22:14Z</time>
      </trkpt>
      <trkpt lat="43.453842" lon="-3.743391">
        <ele>5.034</ele>
        <time>2019-06-16T15:22:15Z</time>
      </trkpt>
      <trkpt lat="43.453923" lon="-3.743421">
        <ele>5.054</ele>
        <time>2019-06-16T15:22:16Z</time>
      </trkpt>
      <trkpt lat="43.454000" lon="-3.743446">
        <ele>5.018</ele>
        <time>2019-06-16T15:22:17Z</time>
      </trkpt>
      <trkpt lat="43.454069" lon="-3.743467">
        <ele>5.047</ele>
        <time>2019-06-16T15:22:18Z</time>
      </trkpt>
      <trkpt lat="43.454159" lon="-3.743493">
        <ele>5.057</ele>
        <time>2019-06-16T15:22:19Z</time>
      </trkpt>
      <trkpt lat="43.454234" lon="-3.743539">
        <ele>4.843</ele>
        <time>2019-06-16T15:22:20Z</time>
      </trkpt>
      <trkpt lat="43.454308" lon="-3.743570">
        <ele>4.632</ele>
        <time>2019-06-16T15:22:21Z</time>
      </trkpt>
      <trkpt lat="43.454386" lon="-3.743591">
        <ele>4.362</ele>
        <time>2019-06-16T15:22:22Z</time>
      </trkpt>
      <trkpt lat="43.454454" lon="-3.743594">
        <ele>4.183</ele>
        <time>2019-06-16T15:22:23Z</time>
      </trkpt>
      <trkpt lat="43.454509" lon="-3.743615">
        <ele>4.011</ele>
        <time>2019-06-16T15:22:24Z</time>
      </trkpt>
      <trkpt lat="43.454580" lon="-3.743623">
        <ele>4.008</ele>
        <time>2019-06-16T15:22:25Z</time>
      </trkpt>
      <trkpt lat="43.454666" lon="-3.743634">
        <ele>4.039</ele>
        <time>2019-06-16T15:22:26Z</time>
      </trkpt>
      <trkpt lat="43.454742" lon="-3.743655">
        <ele>4.113</ele>
        <time>2019-06-16T15:22:27Z</time>
      </trkpt>
      <trkpt lat="43.454805" lon="-3.743709">
        <ele>4.253</ele>
        <time>2019-06-16T15:22:28Z</time>
      </trkpt>
      <trkpt lat="43.454882" lon="-3.743732">
        <ele>4.397</ele>
        <time>2019-06-16T15:22:29Z</time>
      </trkpt>
      <trkpt lat="43.454952" lon="-3.743758">
        <ele>4.486</ele>
        <time>2019-06-16T15:22:30Z</time>
      </trkpt>
      <trkpt lat="43.455022" lon="-3.743766">
        <ele>4.496</ele>
        <time>2019-06-16T15:22:31Z</time>
      </trkpt>
      <trkpt lat="43.455082" lon="-3.743790">
        <ele>4.442</ele>
        <time>2019-06-16T15:22:32Z</time>
      </trkpt>
      <trkpt lat="43.455124" lon="-3.743822">
        <ele>4.261</ele>
        <time>2019-06-16T15:22:33Z</time>
      </trkpt>
      <trkpt lat="43.455179" lon="-3.743849">
        <ele>4.133</ele>
        <time>2019-06-16T15:22:34Z</time>
      </trkpt>
      <trkpt lat="43.455225" lon="-3.743867">
        <ele>4.123</ele>
        <time>2019-06-16T15:22:35Z</time>
      </trkpt>
      <trkpt lat="43.455297" lon="-3.743892">
        <ele>4.115</ele>
        <time>2019-06-16T15:22:37Z</time>
      </trkpt>
      <trkpt lat="43.455355" lon="-3.743925">
        <ele>4.408</ele>
        <time>2019-06-16T15:22:39Z</time>
      </trkpt>
      <trkpt lat="43.455406" lon="-3.743924">
        <ele>4.656</ele>
        <time>2019-06-16T15:22:40Z</time>
      </trkpt>
      <trkpt lat="43.455469" lon="-3.743971">
        <ele>5.080</ele>
        <time>2019-06-16T15:22:42Z</time>
      </trkpt>
      <trkpt lat="43.455529" lon="-3.743994">
        <ele>5.320</ele>
        <time>2019-06-16T15:22:43Z</time>
      </trkpt>
      <trkpt lat="43.455634" lon="-3.744036">
        <ele>5.444</ele>
        <time>2019-06-16T15:22:45Z</time>
      </trkpt>
      <trkpt lat="43.455681" lon="-3.744057">
        <ele>5.353</ele>
        <time>2019-06-16T15:22:46Z</time>
      </trkpt>
      <trkpt lat="43.455729" lon="-3.744072">
        <ele>5.243</ele>
        <time>2019-06-16T15:22:47Z</time>
      </trkpt>
      <trkpt lat="43.455783" lon="-3.744072">
        <ele>5.169</ele>
        <time>2019-06-16T15:22:48Z</time>
      </trkpt>
      <trkpt lat="43.455849" lon="-3.744088">
        <ele>5.068</ele>
        <time>2019-06-16T15:22:50Z</time>
      </trkpt>
      <trkpt lat="43.455911" lon="-3.744088">
        <ele>5.093</ele>
        <time>2019-06-16T15:22:52Z</time>
      </trkpt>
      <trkpt lat="43.455978" lon="-3.744095">
        <ele>5.065</ele>
        <time>2019-06-16T15:22:54Z</time>
      </trkpt>
      <trkpt lat="43.456023" lon="-3.744116">
        <ele>5.021</ele>
        <time>2019-06-16T15:22:55Z</time>
      </trkpt>
      <trkpt lat="43.456071" lon="-3.744154">
        <ele>5.008</ele>
        <time>2019-06-16T15:22:57Z</time>
      </trkpt>
      <trkpt lat="43.456119" lon="-3.744172">
        <ele>5.062</ele>
        <time>2019-06-16T15:22:59Z</time>
      </trkpt>
      <trkpt lat="43.456139" lon="-3.744239">
        <ele>5.046</ele>
        <time>2019-06-16T15:23:02Z</time>
      </trkpt>
      <trkpt lat="43.456176" lon="-3.744303">
        <ele>5.176</ele>
        <time>2019-06-16T15:23:09Z</time>
      </trkpt>
      <trkpt lat="43.456169" lon="-3.744402">
        <ele>5.230</ele>
        <time>2019-06-16T15:23:12Z</time>
      </trkpt>
      <trkpt lat="43.456160" lon="-3.744472">
        <ele>5.229</ele>
        <time>2019-06-16T15:23:14Z</time>
      </trkpt>
      <trkpt lat="43.456113" lon="-3.744523">
        <ele>5.019</ele>
        <time>2019-06-16T15:23:16Z</time>
      </trkpt>
      <trkpt lat="43.456047" lon="-3.744511">
        <ele>5.045</ele>
        <time>2019-06-16T15:23:18Z</time>
      </trkpt>
      <trkpt lat="43.456010" lon="-3.744431">
        <ele>5.064</ele>
        <time>2019-06-16T15:23:20Z</time>
      </trkpt>
      <trkpt lat="43.456025" lon="-3.744325">
        <ele>5.081</ele>
        <time>2019-06-16T15:23:22Z</time>
      </trkpt>
      <trkpt lat="43.456047" lon="-3.744243">
        <ele>5.061</ele>
        <time>2019-06-16T15:23:24Z</time>
      </trkpt>
      <trkpt lat="43.456076" lon="-3.744182">
        <ele>5.017</ele>
        <time>2019-06-16T15:23:26Z</time>
      </trkpt>
      <trkpt lat="43.456130" lon="-3.744146">
        <ele>5.008</ele>
        <time>2019-06-16T15:23:28Z</time>
      </trkpt>
      <trkpt lat="43.456178" lon="-3.744143">
        <ele>5.071</ele>
        <time>2019-06-16T15:23:30Z</time>
      </trkpt>
      <trkpt lat="43.456185" lon="-3.744227">
        <ele>5.125</ele>
        <time>2019-06-16T15:23:35Z</time>
      </trkpt>
      <trkpt lat="43.456193" lon="-3.744291">
        <ele>5.155</ele>
        <time>2019-06-16T15:23:37Z</time>
      </trkpt>
      <trkpt lat="43.456238" lon="-3.744325">
        <ele>5.339</ele>
        <time>2019-06-16T15:23:42Z</time>
      </trkpt>
      <trkpt lat="43.456271" lon="-3.744370">
        <ele>5.488</ele>
        <time>2019-06-16T15:24:17Z</time>
      </trkpt>
      <trkpt lat="43.456315" lon="-3.744345">
        <ele>5.578</ele>
        <time>2019-06-16T15:25:39Z</time>
      </trkpt>
      <trkpt lat="43.456340" lon="-3.744397">
        <ele>5.784</ele>
        <time>2019-06-16T15:26:03Z</time>
      </trkpt>
      <trkpt lat="43.456362" lon="-3.744456">
        <ele>5.923</ele>
        <time>2019-06-16T15:27:13Z</time>
      </trkpt>
      <trkpt lat="43.456341" lon="-3.744400">
        <ele>5.744</ele>
        <time>2019-06-16T15:29:02Z</time>
      </trkpt>
      <trkpt lat="43.456299" lon="-3.744370">
        <ele>5.505</ele>
        <time>2019-06-16T15:29:09Z</time>
      </trkpt>
      <trkpt lat="43.456251" lon="-3.744368">
        <ele>5.415</ele>
        <time>2019-06-16T15:29:18Z</time>
      </trkpt>
      <trkpt lat="43.456296" lon="-3.744354">
        <ele>5.408</ele>
        <time>2019-06-16T15:30:08Z</time>
      </trkpt>
      <trkpt lat="43.456330" lon="-3.744395">
        <ele>5.697</ele>
        <time>2019-06-16T15:30:16Z</time>
      </trkpt>
      <trkpt lat="43.456305" lon="-3.744341">
        <ele>5.431</ele>
        <time>2019-06-16T15:30:37Z</time>
      </trkpt>
      <trkpt lat="43.456257" lon="-3.744320">
        <ele>5.371</ele>
        <time>2019-06-16T15:30:44Z</time>
      </trkpt>
      <trkpt lat="43.456298" lon="-3.744354">
        <ele>5.565</ele>
        <time>2019-06-16T15:43:22Z</time>
      </trkpt>
      <trkpt lat="43.456253" lon="-3.744327">
        <ele>5.344</ele>
        <time>2019-06-16T15:44:35Z</time>
      </trkpt>
      <trkpt lat="43.456225" lon="-3.744383">
        <ele>5.354</ele>
        <time>2019-06-16T15:44:42Z</time>
      </trkpt>
      <trkpt lat="43.456193" lon="-3.744490">
        <ele>5.220</ele>
        <time>2019-06-16T15:44:44Z</time>
      </trkpt>
      <trkpt lat="43.456133" lon="-3.744551">
        <ele>5.049</ele>
        <time>2019-06-16T15:44:46Z</time>
      </trkpt>
      <trkpt lat="43.456035" lon="-3.744563">
        <ele>5.078</ele>
        <time>2019-06-16T15:44:48Z</time>
      </trkpt>
      <trkpt lat="43.455958" lon="-3.744617">
        <ele>5.033</ele>
        <time>2019-06-16T15:44:50Z</time>
      </trkpt>
      <trkpt lat="43.455896" lon="-3.744669">
        <ele>5.026</ele>
        <time>2019-06-16T15:44:52Z</time>
      </trkpt>
      <trkpt lat="43.455830" lon="-3.744739">
        <ele>5.008</ele>
        <time>2019-06-16T15:44:54Z</time>
      </trkpt>
      <trkpt lat="43.455770" lon="-3.744787">
        <ele>5.020</ele>
        <time>2019-06-16T15:44:56Z</time>
      </trkpt>
      <trkpt lat="43.455697" lon="-3.744863">
        <ele>5.064</ele>
        <time>2019-06-16T15:44:58Z</time>
      </trkpt>
      <trkpt lat="43.455654" lon="-3.744904">
        <ele>5.024</ele>
        <time>2019-06-16T15:44:59Z</time>
      </trkpt>
      <trkpt lat="43.455605" lon="-3.744952">
        <ele>5.058</ele>
        <time>2019-06-16T15:45:00Z</time>
      </trkpt>
      <trkpt lat="43.455561" lon="-3.744998">
        <ele>5.057</ele>
        <time>2019-06-16T15:45:01Z</time>
      </trkpt>
      <trkpt lat="43.455527" lon="-3.745046">
        <ele>5.127</ele>
        <time>2019-06-16T15:45:02Z</time>
      </trkpt>
      <trkpt lat="43.455481" lon="-3.745097">
        <ele>5.153</ele>
        <time>2019-06-16T15:45:03Z</time>
      </trkpt>
      <trkpt lat="43.455396" lon="-3.745161">
        <ele>5.062</ele>
        <time>2019-06-16T15:45:05Z</time>
      </trkpt>
      <trkpt lat="43.455344" lon="-3.745170">
        <ele>4.822</ele>
        <time>2019-06-16T15:45:06Z</time>
      </trkpt>
      <trkpt lat="43.455290" lon="-3.745164">
        <ele>4.662</ele>
        <time>2019-06-16T15:45:07Z</time>
      </trkpt>
      <trkpt lat="43.455237" lon="-3.745147">
        <ele>4.508</ele>
        <time>2019-06-16T15:45:08Z</time>
      </trkpt>
      <trkpt lat="43.455175" lon="-3.745148">
        <ele>4.308</ele>
        <time>2019-06-16T15:45:09Z</time>
      </trkpt>
      <trkpt lat="43.455112" lon="-3.745121">
        <ele>4.215</ele>
        <time>2019-06-16T15:45:10Z</time>
      </trkpt>
      <trkpt lat="43.455044" lon="-3.745096">
        <ele>4.179</ele>
        <time>2019-06-16T15:45:11Z</time>
      </trkpt>
      <trkpt lat="43.454963" lon="-3.745074">
        <ele>4.029</ele>
        <time>2019-06-16T15:45:12Z</time>
      </trkpt>
      <trkpt lat="43.454883" lon="-3.745063">
        <ele>4.133</ele>
        <time>2019-06-16T15:45:13Z</time>
      </trkpt>
      <trkpt lat="43.454807" lon="-3.745042">
        <ele>4.152</ele>
        <time>2019-06-16T15:45:14Z</time>
      </trkpt>
      <trkpt lat="43.454733" lon="-3.745016">
        <ele>4.182</ele>
        <time>2019-06-16T15:45:15Z</time>
      </trkpt>
      <trkpt lat="43.454667" lon="-3.744991">
        <ele>4.048</ele>
        <time>2019-06-16T15:45:16Z</time>
      </trkpt>
      <trkpt lat="43.454609" lon="-3.744964">
        <ele>4.057</ele>
        <time>2019-06-16T15:45:17Z</time>
      </trkpt>
      <trkpt lat="43.454553" lon="-3.744946">
        <ele>4.025</ele>
        <time>2019-06-16T15:45:18Z</time>
      </trkpt>
      <trkpt lat="43.454506" lon="-3.744942">
        <ele>4.026</ele>
        <time>2019-06-16T15:45:19Z</time>
      </trkpt>
      <trkpt lat="43.454441" lon="-3.744937">
        <ele>4.008</ele>
        <time>2019-06-16T15:45:21Z</time>
      </trkpt>
      <trkpt lat="43.454349" lon="-3.744897">
        <ele>4.208</ele>
        <time>2019-06-16T15:45:23Z</time>
      </trkpt>
      <trkpt lat="43.454295" lon="-3.744865">
        <ele>4.395</ele>
        <time>2019-06-16T15:45:24Z</time>
      </trkpt>
      <trkpt lat="43.454220" lon="-3.744842">
        <ele>4.319</ele>
        <time>2019-06-16T15:45:25Z</time>
      </trkpt>
      <trkpt lat="43.454135" lon="-3.744812">
        <ele>4.329</ele>
        <time>2019-06-16T15:45:26Z</time>
      </trkpt>
      <trkpt lat="43.454050" lon="-3.744778">
        <ele>4.123</ele>
        <time>2019-06-16T15:45:27Z</time>
      </trkpt>
      <trkpt lat="43.453957" lon="-3.744745">
        <ele>4.082</ele>
        <time>2019-06-16T15:45:28Z</time>
      </trkpt>
      <trkpt lat="43.453870" lon="-3.744715">
        <ele>4.092</ele>
        <time>2019-06-16T15:45:29Z</time>
      </trkpt>
      <trkpt lat="43.453818" lon="-3.744673">
        <ele>4.188</ele>
        <time>2019-06-16T15:45:30Z</time>
      </trkpt>
      <trkpt lat="43.453741" lon="-3.744639">
        <ele>4.157</ele>
        <time>2019-06-16T15:45:31Z</time>
      </trkpt>
      <trkpt lat="43.453685" lon="-3.744605">
        <ele>4.188</ele>
        <time>2019-06-16T15:45:32Z</time>
      </trkpt>
      <trkpt lat="43.453604" lon="-3.744582">
        <ele>4.024</ele>
        <time>2019-06-16T15:45:33Z</time>
      </trkpt>
      <trkpt lat="43.453530" lon="-3.744561">
        <ele>4.026</ele>
        <time>2019-06-16T15:45:34Z</time>
      </trkpt>
      <trkpt lat="43.453477" lon="-3.744550">
        <ele>4.008</ele>
        <time>2019-06-16T15:45:35Z</time>
      </trkpt>
      <trkpt lat="43.453428" lon="-3.744535">
        <ele>4.041</ele>
        <time>2019-06-16T15:45:36Z</time>
      </trkpt>
      <trkpt lat="43.453383" lon="-3.744522">
        <ele>4.035</ele>
        <time>2019-06-16T15:45:37Z</time>
      </trkpt>
      <trkpt lat="43.453320" lon="-3.744536">
        <ele>4.065</ele>
        <time>2019-06-16T15:45:39Z</time>
      </trkpt>
      <trkpt lat="43.453263" lon="-3.744590">
        <ele>4.099</ele>
        <time>2019-06-16T15:45:41Z</time>
      </trkpt>
      <trkpt lat="43.453234" lon="-3.744659">
        <ele>4.048</ele>
        <time>2019-06-16T15:45:42Z</time>
      </trkpt>
      <trkpt lat="43.453224" lon="-3.744751">
        <ele>4.128</ele>
        <time>2019-06-16T15:45:43Z</time>
      </trkpt>
      <trkpt lat="43.453203" lon="-3.744864">
        <ele>4.314</ele>
        <time>2019-06-16T15:45:44Z</time>
      </trkpt>
      <trkpt lat="43.453167" lon="-3.744994">
        <ele>4.463</ele>
        <time>2019-06-16T15:45:45Z</time>
      </trkpt>
      <trkpt lat="43.453137" lon="-3.745095">
        <ele>4.343</ele>
        <time>2019-06-16T15:45:46Z</time>
      </trkpt>
      <trkpt lat="43.453103" lon="-3.745208">
        <ele>4.264</ele>
        <time>2019-06-16T15:45:47Z</time>
      </trkpt>
      <trkpt lat="43.453067" lon="-3.745327">
        <ele>4.010</ele>
        <time>2019-06-16T15:45:48Z</time>
      </trkpt>
      <trkpt lat="43.453035" lon="-3.745432">
        <ele>4.008</ele>
        <time>2019-06-16T15:45:49Z</time>
      </trkpt>
      <trkpt lat="43.452991" lon="-3.745548">
        <ele>4.227</ele>
        <time>2019-06-16T15:45:50Z</time>
      </trkpt>
      <trkpt lat="43.452960" lon="-3.745666">
        <ele>4.381</ele>
        <time>2019-06-16T15:45:51Z</time>
      </trkpt>
      <trkpt lat="43.452936" lon="-3.745787">
        <ele>4.461</ele>
        <time>2019-06-16T15:45:52Z</time>
      </trkpt>
      <trkpt lat="43.452907" lon="-3.745903">
        <ele>4.735</ele>
        <time>2019-06-16T15:45:53Z</time>
      </trkpt>
      <trkpt lat="43.452881" lon="-3.746015">
        <ele>4.994</ele>
        <time>2019-06-16T15:45:54Z</time>
      </trkpt>
      <trkpt lat="43.452869" lon="-3.746108">
        <ele>5.084</ele>
        <time>2019-06-16T15:45:55Z</time>
      </trkpt>
      <trkpt lat="43.452854" lon="-3.746204">
        <ele>5.080</ele>
        <time>2019-06-16T15:45:56Z</time>
      </trkpt>
      <trkpt lat="43.452850" lon="-3.746300">
        <ele>5.039</ele>
        <time>2019-06-16T15:45:57Z</time>
      </trkpt>
      <trkpt lat="43.452790" lon="-3.746361">
        <ele>5.089</ele>
        <time>2019-06-16T15:45:59Z</time>
      </trkpt>
      <trkpt lat="43.452710" lon="-3.746394">
        <ele>5.006</ele>
        <time>2019-06-16T15:46:01Z</time>
      </trkpt>
      <trkpt lat="43.452652" lon="-3.746375">
        <ele>5.026</ele>
        <time>2019-06-16T15:46:02Z</time>
      </trkpt>
      <trkpt lat="43.452589" lon="-3.746335">
        <ele>5.008</ele>
        <time>2019-06-16T15:46:03Z</time>
      </trkpt>
      <trkpt lat="43.452517" lon="-3.746294">
        <ele>5.021</ele>
        <time>2019-06-16T15:46:04Z</time>
      </trkpt>
      <trkpt lat="43.452442" lon="-3.746231">
        <ele>4.935</ele>
        <time>2019-06-16T15:46:05Z</time>
      </trkpt>
      <trkpt lat="43.452370" lon="-3.746181">
        <ele>4.995</ele>
        <time>2019-06-16T15:46:06Z</time>
      </trkpt>
      <trkpt lat="43.452302" lon="-3.746136">
        <ele>4.919</ele>
        <time>2019-06-16T15:46:07Z</time>
      </trkpt>
      <trkpt lat="43.452237" lon="-3.746091">
        <ele>5.068</ele>
        <time>2019-06-16T15:46:08Z</time>
      </trkpt>
      <trkpt lat="43.452173" lon="-3.746051">
        <ele>4.838</ele>
        <time>2019-06-16T15:46:09Z</time>
      </trkpt>
      <trkpt lat="43.452114" lon="-3.746009">
        <ele>4.664</ele>
        <time>2019-06-16T15:46:10Z</time>
      </trkpt>
      <trkpt lat="43.452067" lon="-3.745965">
        <ele>4.413</ele>
        <time>2019-06-16T15:46:11Z</time>
      </trkpt>
      <trkpt lat="43.452005" lon="-3.745944">
        <ele>4.249</ele>
        <time>2019-06-16T15:46:12Z</time>
      </trkpt>
      <trkpt lat="43.451949" lon="-3.745918">
        <ele>4.002</ele>
        <time>2019-06-16T15:46:13Z</time>
      </trkpt>
      <trkpt lat="43.451887" lon="-3.745917">
        <ele>3.922</ele>
        <time>2019-06-16T15:46:14Z</time>
      </trkpt>
      <trkpt lat="43.451816" lon="-3.745921">
        <ele>3.708</ele>
        <time>2019-06-16T15:46:15Z</time>
      </trkpt>
      <trkpt lat="43.451749" lon="-3.745929">
        <ele>3.547</ele>
        <time>2019-06-16T15:46:16Z</time>
      </trkpt>
      <trkpt lat="43.451681" lon="-3.745929">
        <ele>3.351</ele>
        <time>2019-06-16T15:46:17Z</time>
      </trkpt>
      <trkpt lat="43.451612" lon="-3.745912">
        <ele>3.341</ele>
        <time>2019-06-16T15:46:18Z</time>
      </trkpt>
      <trkpt lat="43.451542" lon="-3.745877">
        <ele>3.515</ele>
        <time>2019-06-16T15:46:19Z</time>
      </trkpt>
      <trkpt lat="43.451488" lon="-3.745852">
        <ele>3.844</ele>
        <time>2019-06-16T15:46:20Z</time>
      </trkpt>
      <trkpt lat="43.451428" lon="-3.745813">
        <ele>4.064</ele>
        <time>2019-06-16T15:46:21Z</time>
      </trkpt>
      <trkpt lat="43.451383" lon="-3.745772">
        <ele>4.030</ele>
        <time>2019-06-16T15:46:22Z</time>
      </trkpt>
      <trkpt lat="43.451337" lon="-3.745754">
        <ele>3.869</ele>
        <time>2019-06-16T15:46:23Z</time>
      </trkpt>
      <trkpt lat="43.451290" lon="-3.745758">
        <ele>3.562</ele>
        <time>2019-06-16T15:46:25Z</time>
      </trkpt>
      <trkpt lat="43.451228" lon="-3.745811">
        <ele>3.483</ele>
        <time>2019-06-16T15:46:30Z</time>
      </trkpt>
      <trkpt lat="43.451210" lon="-3.745874">
        <ele>3.111</ele>
        <time>2019-06-16T15:46:31Z</time>
      </trkpt>
      <trkpt lat="43.451198" lon="-3.745957">
        <ele>2.508</ele>
        <time>2019-06-16T15:46:32Z</time>
      </trkpt>
      <trkpt lat="43.451149" lon="-3.746093">
        <ele>1.849</ele>
        <time>2019-06-16T15:46:33Z</time>
      </trkpt>
      <trkpt lat="43.451090" lon="-3.746235">
        <ele>1.943</ele>
        <time>2019-06-16T15:46:34Z</time>
      </trkpt>
      <trkpt lat="43.451031" lon="-3.746388">
        <ele>1.793</ele>
        <time>2019-06-16T15:46:35Z</time>
      </trkpt>
      <trkpt lat="43.450983" lon="-3.746533">
        <ele>1.237</ele>
        <time>2019-06-16T15:46:36Z</time>
      </trkpt>
      <trkpt lat="43.450928" lon="-3.746690">
        <ele>1.396</ele>
        <time>2019-06-16T15:46:37Z</time>
      </trkpt>
      <trkpt lat="43.450870" lon="-3.746861">
        <ele>1.756</ele>
        <time>2019-06-16T15:46:38Z</time>
      </trkpt>
      <trkpt lat="43.450801" lon="-3.747055">
        <ele>1.912</ele>
        <time>2019-06-16T15:46:39Z</time>
      </trkpt>
      <trkpt lat="43.450735" lon="-3.747241">
        <ele>1.611</ele>
        <time>2019-06-16T15:46:40Z</time>
      </trkpt>
      <trkpt lat="43.450671" lon="-3.747430">
        <ele>1.254</ele>
        <time>2019-06-16T15:46:41Z</time>
      </trkpt>
      <trkpt lat="43.450611" lon="-3.747630">
        <ele>1.656</ele>
        <time>2019-06-16T15:46:42Z</time>
      </trkpt>
      <trkpt lat="43.450535" lon="-3.747841">
        <ele>1.711</ele>
        <time>2019-06-16T15:46:43Z</time>
      </trkpt>
      <trkpt lat="43.450461" lon="-3.748054">
        <ele>1.308</ele>
        <time>2019-06-16T15:46:44Z</time>
      </trkpt>
      <trkpt lat="43.450386" lon="-3.748274">
        <ele>1.868</ele>
        <time>2019-06-16T15:46:45Z</time>
      </trkpt>
      <trkpt lat="43.450315" lon="-3.748494">
        <ele>2.182</ele>
        <time>2019-06-16T15:46:46Z</time>
      </trkpt>
      <trkpt lat="43.450236" lon="-3.748738">
        <ele>1.412</ele>
        <time>2019-06-16T15:46:47Z</time>
      </trkpt>
      <trkpt lat="43.450150" lon="-3.749000">
        <ele>1.236</ele>
        <time>2019-06-16T15:46:48Z</time>
      </trkpt>
      <trkpt lat="43.450064" lon="-3.749254">
        <ele>1.545</ele>
        <time>2019-06-16T15:46:49Z</time>
      </trkpt>
      <trkpt lat="43.449975" lon="-3.749518">
        <ele>1.765</ele>
        <time>2019-06-16T15:46:50Z</time>
      </trkpt>
      <trkpt lat="43.449885" lon="-3.749778">
        <ele>1.491</ele>
        <time>2019-06-16T15:46:51Z</time>
      </trkpt>
      <trkpt lat="43.449793" lon="-3.750041">
        <ele>2.190</ele>
        <time>2019-06-16T15:46:52Z</time>
      </trkpt>
      <trkpt lat="43.449707" lon="-3.750307">
        <ele>1.815</ele>
        <time>2019-06-16T15:46:53Z</time>
      </trkpt>
      <trkpt lat="43.449619" lon="-3.750572">
        <ele>1.065</ele>
        <time>2019-06-16T15:46:54Z</time>
      </trkpt>
      <trkpt lat="43.449533" lon="-3.750846">
        <ele>2.011</ele>
        <time>2019-06-16T15:46:55Z</time>
      </trkpt>
      <trkpt lat="43.449439" lon="-3.751121">
        <ele>2.908</ele>
        <time>2019-06-16T15:46:56Z</time>
      </trkpt>
      <trkpt lat="43.449355" lon="-3.751403">
        <ele>2.794</ele>
        <time>2019-06-16T15:46:57Z</time>
      </trkpt>
      <trkpt lat="43.449266" lon="-3.751689">
        <ele>3.618</ele>
        <time>2019-06-16T15:46:58Z</time>
      </trkpt>
      <trkpt lat="43.449179" lon="-3.751970">
        <ele>5.538</ele>
        <time>2019-06-16T15:46:59Z</time>
      </trkpt>
      <trkpt lat="43.449100" lon="-3.752238">
        <ele>2.982</ele>
        <time>2019-06-16T15:47:00Z</time>
      </trkpt>
      <trkpt lat="43.449022" lon="-3.752514">
        <ele>1.031</ele>
        <time>2019-06-16T15:47:01Z</time>
      </trkpt>
      <trkpt lat="43.448945" lon="-3.752793">
        <ele>0.821</ele>
        <time>2019-06-16T15:47:02Z</time>
      </trkpt>
      <trkpt lat="43.448870" lon="-3.753059">
        <ele>0.087</ele>
        <time>2019-06-16T15:47:03Z</time>
      </trkpt>
      <trkpt lat="43.448797" lon="-3.753327">
        <ele>0.086</ele>
        <time>2019-06-16T15:47:04Z</time>
      </trkpt>
      <trkpt lat="43.448726" lon="-3.753603">
        <ele>0.031</ele>
        <time>2019-06-16T15:47:05Z</time>
      </trkpt>
      <trkpt lat="43.448665" lon="-3.753877">
        <ele>0.061</ele>
        <time>2019-06-16T15:47:06Z</time>
      </trkpt>
      <trkpt lat="43.448590" lon="-3.754156">
        <ele>0.007</ele>
        <time>2019-06-16T15:47:07Z</time>
      </trkpt>
      <trkpt lat="43.448515" lon="-3.754424">
        <ele>0.008</ele>
        <time>2019-06-16T15:47:08Z</time>
      </trkpt>
      <trkpt lat="43.448430" lon="-3.754702">
        <ele>0.026</ele>
        <time>2019-06-16T15:47:09Z</time>
      </trkpt>
      <trkpt lat="43.448361" lon="-3.754977">
        <ele>0.060</ele>
        <time>2019-06-16T15:47:10Z</time>
      </trkpt>
      <trkpt lat="43.448310" lon="-3.755238">
        <ele>0.030</ele>
        <time>2019-06-16T15:47:11Z</time>
      </trkpt>
      <trkpt lat="43.448239" lon="-3.755511">
        <ele>0.064</ele>
        <time>2019-06-16T15:47:12Z</time>
      </trkpt>
      <trkpt lat="43.448175" lon="-3.755769">
        <ele>1.363</ele>
        <time>2019-06-16T15:47:13Z</time>
      </trkpt>
      <trkpt lat="43.448111" lon="-3.756031">
        <ele>2.433</ele>
        <time>2019-06-16T15:47:14Z</time>
      </trkpt>
      <trkpt lat="43.448045" lon="-3.756294">
        <ele>2.429</ele>
        <time>2019-06-16T15:47:15Z</time>
      </trkpt>
      <trkpt lat="43.447995" lon="-3.756542">
        <ele>2.428</ele>
        <time>2019-06-16T15:47:16Z</time>
      </trkpt>
      <trkpt lat="43.447945" lon="-3.756798">
        <ele>2.586</ele>
        <time>2019-06-16T15:47:17Z</time>
      </trkpt>
      <trkpt lat="43.447917" lon="-3.757033">
        <ele>2.760</ele>
        <time>2019-06-16T15:47:18Z</time>
      </trkpt>
      <trkpt lat="43.447898" lon="-3.757304">
        <ele>3.626</ele>
        <time>2019-06-16T15:47:19Z</time>
      </trkpt>
      <trkpt lat="43.447883" lon="-3.757589">
        <ele>4.708</ele>
        <time>2019-06-16T15:47:20Z</time>
      </trkpt>
      <trkpt lat="43.447937" lon="-3.757810">
        <ele>4.331</ele>
        <time>2019-06-16T15:47:21Z</time>
      </trkpt>
      <trkpt lat="43.447996" lon="-3.758058">
        <ele>3.945</ele>
        <time>2019-06-16T15:47:22Z</time>
      </trkpt>
      <trkpt lat="43.448040" lon="-3.758329">
        <ele>3.865</ele>
        <time>2019-06-16T15:47:23Z</time>
      </trkpt>
      <trkpt lat="43.448095" lon="-3.758590">
        <ele>3.489</ele>
        <time>2019-06-16T15:47:24Z</time>
      </trkpt>
      <trkpt lat="43.448115" lon="-3.758843">
        <ele>3.158</ele>
        <time>2019-06-16T15:47:25Z</time>
      </trkpt>
      <trkpt lat="43.448173" lon="-3.759091">
        <ele>2.628</ele>
        <time>2019-06-16T15:47:26Z</time>
      </trkpt>
      <trkpt lat="43.448224" lon="-3.759338">
        <ele>1.914</ele>
        <time>2019-06-16T15:47:27Z</time>
      </trkpt>
      <trkpt lat="43.448243" lon="-3.759579">
        <ele>1.633</ele>
        <time>2019-06-16T15:47:28Z</time>
      </trkpt>
      <trkpt lat="43.448228" lon="-3.759862">
        <ele>1.868</ele>
        <time>2019-06-16T15:47:29Z</time>
      </trkpt>
      <trkpt lat="43.448199" lon="-3.760130">
        <ele>1.742</ele>
        <time>2019-06-16T15:47:30Z</time>
      </trkpt>
      <trkpt lat="43.448163" lon="-3.760375">
        <ele>1.826</ele>
        <time>2019-06-16T15:47:31Z</time>
      </trkpt>
      <trkpt lat="43.448120" lon="-3.760618">
        <ele>2.108</ele>
        <time>2019-06-16T15:47:32Z</time>
      </trkpt>
      <trkpt lat="43.448015" lon="-3.760855">
        <ele>2.069</ele>
        <time>2019-06-16T15:47:33Z</time>
      </trkpt>
      <trkpt lat="43.447902" lon="-3.761124">
        <ele>1.643</ele>
        <time>2019-06-16T15:47:34Z</time>
      </trkpt>
      <trkpt lat="43.447800" lon="-3.761374">
        <ele>1.913</ele>
        <time>2019-06-16T15:47:35Z</time>
      </trkpt>
      <trkpt lat="43.447696" lon="-3.761616">
        <ele>1.757</ele>
        <time>2019-06-16T15:47:36Z</time>
      </trkpt>
      <trkpt lat="43.447597" lon="-3.761851">
        <ele>2.136</ele>
        <time>2019-06-16T15:47:37Z</time>
      </trkpt>
      <trkpt lat="43.447494" lon="-3.762092">
        <ele>2.026</ele>
        <time>2019-06-16T15:47:38Z</time>
      </trkpt>
      <trkpt lat="43.447395" lon="-3.762323">
        <ele>1.542</ele>
        <time>2019-06-16T15:47:39Z</time>
      </trkpt>
      <trkpt lat="43.447301" lon="-3.762543">
        <ele>2.071</ele>
        <time>2019-06-16T15:47:40Z</time>
      </trkpt>
      <trkpt lat="43.447210" lon="-3.762771">
        <ele>2.124</ele>
        <time>2019-06-16T15:47:41Z</time>
      </trkpt>
      <trkpt lat="43.447115" lon="-3.762992">
        <ele>1.404</ele>
        <time>2019-06-16T15:47:42Z</time>
      </trkpt>
      <trkpt lat="43.447024" lon="-3.763206">
        <ele>2.114</ele>
        <time>2019-06-16T15:47:43Z</time>
      </trkpt>
      <trkpt lat="43.446940" lon="-3.763408">
        <ele>2.508</ele>
        <time>2019-06-16T15:47:44Z</time>
      </trkpt>
      <trkpt lat="43.446848" lon="-3.763613">
        <ele>1.715</ele>
        <time>2019-06-16T15:47:45Z</time>
      </trkpt>
      <trkpt lat="43.446764" lon="-3.763809">
        <ele>2.529</ele>
        <time>2019-06-16T15:47:46Z</time>
      </trkpt>
      <trkpt lat="43.446683" lon="-3.763995">
        <ele>2.999</ele>
        <time>2019-06-16T15:47:47Z</time>
      </trkpt>
      <trkpt lat="43.446612" lon="-3.764168">
        <ele>3.093</ele>
        <time>2019-06-16T15:47:48Z</time>
      </trkpt>
      <trkpt lat="43.446541" lon="-3.764343">
        <ele>2.672</ele>
        <time>2019-06-16T15:47:49Z</time>
      </trkpt>
      <trkpt lat="43.446447" lon="-3.764557">
        <ele>3.052</ele>
        <time>2019-06-16T15:47:50Z</time>
      </trkpt>
      <trkpt lat="43.446375" lon="-3.764716">
        <ele>3.198</ele>
        <time>2019-06-16T15:47:51Z</time>
      </trkpt>
      <trkpt lat="43.446303" lon="-3.764880">
        <ele>2.997</ele>
        <time>2019-06-16T15:47:52Z</time>
      </trkpt>
      <trkpt lat="43.446224" lon="-3.765044">
        <ele>3.197</ele>
        <time>2019-06-16T15:47:53Z</time>
      </trkpt>
      <trkpt lat="43.446178" lon="-3.765201">
        <ele>3.323</ele>
        <time>2019-06-16T15:47:54Z</time>
      </trkpt>
      <trkpt lat="43.446141" lon="-3.765370">
        <ele>3.725</ele>
        <time>2019-06-16T15:47:55Z</time>
      </trkpt>
      <trkpt lat="43.446122" lon="-3.765543">
        <ele>3.908</ele>
        <time>2019-06-16T15:47:56Z</time>
      </trkpt>
      <trkpt lat="43.446121" lon="-3.765686">
        <ele>3.952</ele>
        <time>2019-06-16T15:47:57Z</time>
      </trkpt>
      <trkpt lat="43.446131" lon="-3.765847">
        <ele>3.986</ele>
        <time>2019-06-16T15:47:58Z</time>
      </trkpt>
      <trkpt lat="43.446231" lon="-3.765933">
        <ele>3.496</ele>
        <time>2019-06-16T15:47:59Z</time>
      </trkpt>
      <trkpt lat="43.446277" lon="-3.766077">
        <ele>3.990</ele>
        <time>2019-06-16T15:48:00Z</time>
      </trkpt>
      <trkpt lat="43.446358" lon="-3.766220">
        <ele>4.049</ele>
        <time>2019-06-16T15:48:01Z</time>
      </trkpt>
      <trkpt lat="43.446460" lon="-3.766325">
        <ele>3.669</ele>
        <time>2019-06-16T15:48:02Z</time>
      </trkpt>
      <trkpt lat="43.446560" lon="-3.766444">
        <ele>3.515</ele>
        <time>2019-06-16T15:48:03Z</time>
      </trkpt>
      <trkpt lat="43.446722" lon="-3.766578">
        <ele>3.474</ele>
        <time>2019-06-16T15:48:04Z</time>
      </trkpt>
      <trkpt lat="43.446879" lon="-3.766701">
        <ele>3.442</ele>
        <time>2019-06-16T15:48:05Z</time>
      </trkpt>
      <trkpt lat="43.447027" lon="-3.766846">
        <ele>3.522</ele>
        <time>2019-06-16T15:48:06Z</time>
      </trkpt>
      <trkpt lat="43.447162" lon="-3.766971">
        <ele>4.314</ele>
        <time>2019-06-16T15:48:07Z</time>
      </trkpt>
      <trkpt lat="43.447288" lon="-3.767115">
        <ele>4.808</ele>
        <time>2019-06-16T15:48:08Z</time>
      </trkpt>
      <trkpt lat="43.447417" lon="-3.767255">
        <ele>5.057</ele>
        <time>2019-06-16T15:48:09Z</time>
      </trkpt>
      <trkpt lat="43.447539" lon="-3.767445">
        <ele>4.451</ele>
        <time>2019-06-16T15:48:10Z</time>
      </trkpt>
      <trkpt lat="43.447612" lon="-3.767613">
        <ele>4.421</ele>
        <time>2019-06-16T15:48:11Z</time>
      </trkpt>
      <trkpt lat="43.447723" lon="-3.767776">
        <ele>3.845</ele>
        <time>2019-06-16T15:48:12Z</time>
      </trkpt>
      <trkpt lat="43.447845" lon="-3.767972">
        <ele>3.084</ele>
        <time>2019-06-16T15:48:13Z</time>
      </trkpt>
      <trkpt lat="43.447934" lon="-3.768154">
        <ele>3.214</ele>
        <time>2019-06-16T15:48:14Z</time>
      </trkpt>
      <trkpt lat="43.448045" lon="-3.768354">
        <ele>3.340</ele>
        <time>2019-06-16T15:48:15Z</time>
      </trkpt>
      <trkpt lat="43.448166" lon="-3.768530">
        <ele>3.299</ele>
        <time>2019-06-16T15:48:16Z</time>
      </trkpt>
      <trkpt lat="43.448252" lon="-3.768678">
        <ele>3.456</ele>
        <time>2019-06-16T15:48:17Z</time>
      </trkpt>
      <trkpt lat="43.448333" lon="-3.768833">
        <ele>3.659</ele>
        <time>2019-06-16T15:48:18Z</time>
      </trkpt>
      <trkpt lat="43.448405" lon="-3.768951">
        <ele>3.414</ele>
        <time>2019-06-16T15:48:19Z</time>
      </trkpt>
      <trkpt lat="43.448476" lon="-3.769101">
        <ele>3.908</ele>
        <time>2019-06-16T15:48:20Z</time>
      </trkpt>
      <trkpt lat="43.448539" lon="-3.769216">
        <ele>4.528</ele>
        <time>2019-06-16T15:48:21Z</time>
      </trkpt>
      <trkpt lat="43.448554" lon="-3.769361">
        <ele>5.262</ele>
        <time>2019-06-16T15:48:22Z</time>
      </trkpt>
      <trkpt lat="43.448566" lon="-3.769512">
        <ele>5.862</ele>
        <time>2019-06-16T15:48:23Z</time>
      </trkpt>
      <trkpt lat="43.448546" lon="-3.769676">
        <ele>6.926</ele>
        <time>2019-06-16T15:48:24Z</time>
      </trkpt>
      <trkpt lat="43.448518" lon="-3.769828">
        <ele>7.475</ele>
        <time>2019-06-16T15:48:25Z</time>
      </trkpt>
      <trkpt lat="43.448430" lon="-3.769964">
        <ele>8.115</ele>
        <time>2019-06-16T15:48:26Z</time>
      </trkpt>
      <trkpt lat="43.448337" lon="-3.770073">
        <ele>8.751</ele>
        <time>2019-06-16T15:48:27Z</time>
      </trkpt>
      <trkpt lat="43.448234" lon="-3.770149">
        <ele>9.870</ele>
        <time>2019-06-16T15:48:28Z</time>
      </trkpt>
      <trkpt lat="43.448115" lon="-3.770196">
        <ele>10.544</ele>
        <time>2019-06-16T15:48:29Z</time>
      </trkpt>
      <trkpt lat="43.447977" lon="-3.770231">
        <ele>10.605</ele>
        <time>2019-06-16T15:48:30Z</time>
      </trkpt>
      <trkpt lat="43.447841" lon="-3.770228">
        <ele>11.415</ele>
        <time>2019-06-16T15:48:31Z</time>
      </trkpt>
      <trkpt lat="43.447710" lon="-3.770183">
        <ele>11.608</ele>
        <time>2019-06-16T15:48:32Z</time>
      </trkpt>
      <trkpt lat="43.447577" lon="-3.770120">
        <ele>11.147</ele>
        <time>2019-06-16T15:48:33Z</time>
      </trkpt>
      <trkpt lat="43.447446" lon="-3.770039">
        <ele>10.931</ele>
        <time>2019-06-16T15:48:34Z</time>
      </trkpt>
      <trkpt lat="43.447339" lon="-3.769905">
        <ele>11.761</ele>
        <time>2019-06-16T15:48:35Z</time>
      </trkpt>
      <trkpt lat="43.447214" lon="-3.769803">
        <ele>12.555</ele>
        <time>2019-06-16T15:48:36Z</time>
      </trkpt>
      <trkpt lat="43.447071" lon="-3.769747">
        <ele>13.674</ele>
        <time>2019-06-16T15:48:37Z</time>
      </trkpt>
      <trkpt lat="43.446924" lon="-3.769717">
        <ele>14.264</ele>
        <time>2019-06-16T15:48:38Z</time>
      </trkpt>
      <trkpt lat="43.446786" lon="-3.769705">
        <ele>14.920</ele>
        <time>2019-06-16T15:48:39Z</time>
      </trkpt>
      <trkpt lat="43.446646" lon="-3.769692">
        <ele>15.669</ele>
        <time>2019-06-16T15:48:40Z</time>
      </trkpt>
      <trkpt lat="43.446505" lon="-3.769669">
        <ele>15.871</ele>
        <time>2019-06-16T15:48:41Z</time>
      </trkpt>
      <trkpt lat="43.446359" lon="-3.769626">
        <ele>15.641</ele>
        <time>2019-06-16T15:48:42Z</time>
      </trkpt>
      <trkpt lat="43.446231" lon="-3.769560">
        <ele>14.815</ele>
        <time>2019-06-16T15:48:43Z</time>
      </trkpt>
      <trkpt lat="43.446092" lon="-3.769464">
        <ele>14.708</ele>
        <time>2019-06-16T15:48:44Z</time>
      </trkpt>
      <trkpt lat="43.445946" lon="-3.769385">
        <ele>15.790</ele>
        <time>2019-06-16T15:48:45Z</time>
      </trkpt>
      <trkpt lat="43.445803" lon="-3.769312">
        <ele>16.554</ele>
        <time>2019-06-16T15:48:46Z</time>
      </trkpt>
      <trkpt lat="43.445669" lon="-3.769230">
        <ele>17.694</ele>
        <time>2019-06-16T15:48:47Z</time>
      </trkpt>
      <trkpt lat="43.445533" lon="-3.769143">
        <ele>18.238</ele>
        <time>2019-06-16T15:48:48Z</time>
      </trkpt>
      <trkpt lat="43.445400" lon="-3.769063">
        <ele>18.797</ele>
        <time>2019-06-16T15:48:49Z</time>
      </trkpt>
      <trkpt lat="43.445264" lon="-3.768975">
        <ele>19.057</ele>
        <time>2019-06-16T15:48:50Z</time>
      </trkpt>
      <trkpt lat="43.445136" lon="-3.768893">
        <ele>19.063</ele>
        <time>2019-06-16T15:48:51Z</time>
      </trkpt>
      <trkpt lat="43.445012" lon="-3.768819">
        <ele>19.322</ele>
        <time>2019-06-16T15:48:52Z</time>
      </trkpt>
      <trkpt lat="43.444891" lon="-3.768741">
        <ele>19.347</ele>
        <time>2019-06-16T15:48:53Z</time>
      </trkpt>
      <trkpt lat="43.444773" lon="-3.768672">
        <ele>19.629</ele>
        <time>2019-06-16T15:48:54Z</time>
      </trkpt>
      <trkpt lat="43.444662" lon="-3.768606">
        <ele>19.621</ele>
        <time>2019-06-16T15:48:55Z</time>
      </trkpt>
      <trkpt lat="43.444547" lon="-3.768532">
        <ele>19.308</ele>
        <time>2019-06-16T15:48:56Z</time>
      </trkpt>
      <trkpt lat="43.444439" lon="-3.768457">
        <ele>19.177</ele>
        <time>2019-06-16T15:48:57Z</time>
      </trkpt>
      <trkpt lat="43.444343" lon="-3.768366">
        <ele>19.771</ele>
        <time>2019-06-16T15:48:58Z</time>
      </trkpt>
      <trkpt lat="43.444244" lon="-3.768291">
        <ele>20.351</ele>
        <time>2019-06-16T15:48:59Z</time>
      </trkpt>
      <trkpt lat="43.444141" lon="-3.768238">
        <ele>20.755</ele>
        <time>2019-06-16T15:49:00Z</time>
      </trkpt>
      <trkpt lat="43.444060" lon="-3.768188">
        <ele>21.234</ele>
        <time>2019-06-16T15:49:01Z</time>
      </trkpt>
      <trkpt lat="43.443949" lon="-3.768162">
        <ele>21.564</ele>
        <time>2019-06-16T15:49:02Z</time>
      </trkpt>
      <trkpt lat="43.443843" lon="-3.768146">
        <ele>21.920</ele>
        <time>2019-06-16T15:49:03Z</time>
      </trkpt>
      <trkpt lat="43.443749" lon="-3.768152">
        <ele>22.549</ele>
        <time>2019-06-16T15:49:04Z</time>
      </trkpt>
      <trkpt lat="43.443630" lon="-3.768177">
        <ele>23.323</ele>
        <time>2019-06-16T15:49:05Z</time>
      </trkpt>
      <trkpt lat="43.443508" lon="-3.768211">
        <ele>23.583</ele>
        <time>2019-06-16T15:49:06Z</time>
      </trkpt>
      <trkpt lat="43.443387" lon="-3.768247">
        <ele>23.411</ele>
        <time>2019-06-16T15:49:07Z</time>
      </trkpt>
      <trkpt lat="43.443249" lon="-3.768278">
        <ele>23.208</ele>
        <time>2019-06-16T15:49:08Z</time>
      </trkpt>
      <trkpt lat="43.443096" lon="-3.768327">
        <ele>23.045</ele>
        <time>2019-06-16T15:49:09Z</time>
      </trkpt>
      <trkpt lat="43.442965" lon="-3.768366">
        <ele>22.849</ele>
        <time>2019-06-16T15:49:10Z</time>
      </trkpt>
      <trkpt lat="43.442835" lon="-3.768408">
        <ele>22.539</ele>
        <time>2019-06-16T15:49:11Z</time>
      </trkpt>
      <trkpt lat="43.442738" lon="-3.768434">
        <ele>22.343</ele>
        <time>2019-06-16T15:49:12Z</time>
      </trkpt>
      <trkpt lat="43.442613" lon="-3.768482">
        <ele>22.292</ele>
        <time>2019-06-16T15:49:13Z</time>
      </trkpt>
      <trkpt lat="43.442492" lon="-3.768513">
        <ele>22.422</ele>
        <time>2019-06-16T15:49:14Z</time>
      </trkpt>
      <trkpt lat="43.442377" lon="-3.768550">
        <ele>22.638</ele>
        <time>2019-06-16T15:49:15Z</time>
      </trkpt>
      <trkpt lat="43.442258" lon="-3.768587">
        <ele>22.937</ele>
        <time>2019-06-16T15:49:16Z</time>
      </trkpt>
      <trkpt lat="43.442131" lon="-3.768623">
        <ele>23.325</ele>
        <time>2019-06-16T15:49:17Z</time>
      </trkpt>
      <trkpt lat="43.442000" lon="-3.768666">
        <ele>23.626</ele>
        <time>2019-06-16T15:49:18Z</time>
      </trkpt>
      <trkpt lat="43.441877" lon="-3.768707">
        <ele>23.608</ele>
        <time>2019-06-16T15:49:19Z</time>
      </trkpt>
      <trkpt lat="43.441735" lon="-3.768737">
        <ele>23.208</ele>
        <time>2019-06-16T15:49:20Z</time>
      </trkpt>
      <trkpt lat="43.441598" lon="-3.768785">
        <ele>22.785</ele>
        <time>2019-06-16T15:49:21Z</time>
      </trkpt>
      <trkpt lat="43.441446" lon="-3.768835">
        <ele>22.449</ele>
        <time>2019-06-16T15:49:22Z</time>
      </trkpt>
      <trkpt lat="43.441299" lon="-3.768875">
        <ele>22.769</ele>
        <time>2019-06-16T15:49:23Z</time>
      </trkpt>
      <trkpt lat="43.441150" lon="-3.768907">
        <ele>23.633</ele>
        <time>2019-06-16T15:49:24Z</time>
      </trkpt>
      <trkpt lat="43.440996" lon="-3.768951">
        <ele>24.562</ele>
        <time>2019-06-16T15:49:25Z</time>
      </trkpt>
      <trkpt lat="43.440845" lon="-3.768997">
        <ele>25.242</ele>
        <time>2019-06-16T15:49:26Z</time>
      </trkpt>
      <trkpt lat="43.440694" lon="-3.769054">
        <ele>25.958</ele>
        <time>2019-06-16T15:49:27Z</time>
      </trkpt>
      <trkpt lat="43.440552" lon="-3.769099">
        <ele>27.047</ele>
        <time>2019-06-16T15:49:28Z</time>
      </trkpt>
      <trkpt lat="43.440411" lon="-3.769144">
        <ele>28.029</ele>
        <time>2019-06-16T15:49:29Z</time>
      </trkpt>
      <trkpt lat="43.440278" lon="-3.769182">
        <ele>29.100</ele>
        <time>2019-06-16T15:49:30Z</time>
      </trkpt>
      <trkpt lat="43.440154" lon="-3.769208">
        <ele>29.520</ele>
        <time>2019-06-16T15:49:31Z</time>
      </trkpt>
      <trkpt lat="43.440033" lon="-3.769251">
        <ele>29.908</ele>
        <time>2019-06-16T15:49:32Z</time>
      </trkpt>
      <trkpt lat="43.439921" lon="-3.769274">
        <ele>30.095</ele>
        <time>2019-06-16T15:49:33Z</time>
      </trkpt>
      <trkpt lat="43.439807" lon="-3.769303">
        <ele>30.069</ele>
        <time>2019-06-16T15:49:34Z</time>
      </trkpt>
      <trkpt lat="43.439691" lon="-3.769332">
        <ele>29.969</ele>
        <time>2019-06-16T15:49:35Z</time>
      </trkpt>
      <trkpt lat="43.439556" lon="-3.769366">
        <ele>29.133</ele>
        <time>2019-06-16T15:49:36Z</time>
      </trkpt>
      <trkpt lat="43.439429" lon="-3.769382">
        <ele>28.452</ele>
        <time>2019-06-16T15:49:37Z</time>
      </trkpt>
      <trkpt lat="43.439298" lon="-3.769421">
        <ele>28.142</ele>
        <time>2019-06-16T15:49:38Z</time>
      </trkpt>
      <trkpt lat="43.439156" lon="-3.769444">
        <ele>28.038</ele>
        <time>2019-06-16T15:49:39Z</time>
      </trkpt>
      <trkpt lat="43.439020" lon="-3.769465">
        <ele>27.467</ele>
        <time>2019-06-16T15:49:40Z</time>
      </trkpt>
      <trkpt lat="43.438891" lon="-3.769482">
        <ele>26.994</ele>
        <time>2019-06-16T15:49:41Z</time>
      </trkpt>
      <trkpt lat="43.438757" lon="-3.769499">
        <ele>26.757</ele>
        <time>2019-06-16T15:49:42Z</time>
      </trkpt>
      <trkpt lat="43.438625" lon="-3.769515">
        <ele>26.522</ele>
        <time>2019-06-16T15:49:43Z</time>
      </trkpt>
      <trkpt lat="43.438486" lon="-3.769532">
        <ele>25.908</ele>
        <time>2019-06-16T15:49:44Z</time>
      </trkpt>
      <trkpt lat="43.438334" lon="-3.769541">
        <ele>25.372</ele>
        <time>2019-06-16T15:49:45Z</time>
      </trkpt>
      <trkpt lat="43.438206" lon="-3.769565">
        <ele>24.976</ele>
        <time>2019-06-16T15:49:46Z</time>
      </trkpt>
      <trkpt lat="43.438068" lon="-3.769586">
        <ele>24.516</ele>
        <time>2019-06-16T15:49:47Z</time>
      </trkpt>
      <trkpt lat="43.437929" lon="-3.769600">
        <ele>24.240</ele>
        <time>2019-06-16T15:49:48Z</time>
      </trkpt>
      <trkpt lat="43.437799" lon="-3.769628">
        <ele>23.769</ele>
        <time>2019-06-16T15:49:49Z</time>
      </trkpt>
      <trkpt lat="43.437660" lon="-3.769660">
        <ele>23.599</ele>
        <time>2019-06-16T15:49:50Z</time>
      </trkpt>
      <trkpt lat="43.437516" lon="-3.769684">
        <ele>23.445</ele>
        <time>2019-06-16T15:49:51Z</time>
      </trkpt>
      <trkpt lat="43.437361" lon="-3.769743">
        <ele>23.484</ele>
        <time>2019-06-16T15:49:52Z</time>
      </trkpt>
      <trkpt lat="43.437217" lon="-3.769814">
        <ele>23.712</ele>
        <time>2019-06-16T15:49:53Z</time>
      </trkpt>
      <trkpt lat="43.437079" lon="-3.769883">
        <ele>23.632</ele>
        <time>2019-06-16T15:49:54Z</time>
      </trkpt>
      <trkpt lat="43.436940" lon="-3.769951">
        <ele>23.405</ele>
        <time>2019-06-16T15:49:55Z</time>
      </trkpt>
      <trkpt lat="43.436847" lon="-3.770089">
        <ele>22.908</ele>
        <time>2019-06-16T15:49:56Z</time>
      </trkpt>
      <trkpt lat="43.436747" lon="-3.770206">
        <ele>22.434</ele>
        <time>2019-06-16T15:49:57Z</time>
      </trkpt>
      <trkpt lat="43.436631" lon="-3.770308">
        <ele>22.138</ele>
        <time>2019-06-16T15:49:58Z</time>
      </trkpt>
      <trkpt lat="43.436537" lon="-3.770410">
        <ele>22.268</ele>
        <time>2019-06-16T15:49:59Z</time>
      </trkpt>
      <trkpt lat="43.436434" lon="-3.770513">
        <ele>22.152</ele>
        <time>2019-06-16T15:50:00Z</time>
      </trkpt>
      <trkpt lat="43.436310" lon="-3.770585">
        <ele>21.611</ele>
        <time>2019-06-16T15:50:01Z</time>
      </trkpt>
      <trkpt lat="43.436167" lon="-3.770673">
        <ele>20.891</ele>
        <time>2019-06-16T15:50:02Z</time>
      </trkpt>
      <trkpt lat="43.436036" lon="-3.770732">
        <ele>20.437</ele>
        <time>2019-06-16T15:50:03Z</time>
      </trkpt>
      <trkpt lat="43.435905" lon="-3.770784">
        <ele>20.246</ele>
        <time>2019-06-16T15:50:04Z</time>
      </trkpt>
      <trkpt lat="43.435767" lon="-3.770821">
        <ele>20.013</ele>
        <time>2019-06-16T15:50:05Z</time>
      </trkpt>
      <trkpt lat="43.435635" lon="-3.770848">
        <ele>20.043</ele>
        <time>2019-06-16T15:50:06Z</time>
      </trkpt>
      <trkpt lat="43.435484" lon="-3.770872">
        <ele>19.607</ele>
        <time>2019-06-16T15:50:07Z</time>
      </trkpt>
      <trkpt lat="43.435375" lon="-3.770846">
        <ele>19.308</ele>
        <time>2019-06-16T15:50:08Z</time>
      </trkpt>
      <trkpt lat="43.435252" lon="-3.770856">
        <ele>19.134</ele>
        <time>2019-06-16T15:50:09Z</time>
      </trkpt>
      <trkpt lat="43.435140" lon="-3.770873">
        <ele>19.498</ele>
        <time>2019-06-16T15:50:10Z</time>
      </trkpt>
      <trkpt lat="43.435025" lon="-3.770882">
        <ele>19.828</ele>
        <time>2019-06-16T15:50:11Z</time>
      </trkpt>
      <trkpt lat="43.434906" lon="-3.770889">
        <ele>19.572</ele>
        <time>2019-06-16T15:50:12Z</time>
      </trkpt>
      <trkpt lat="43.434777" lon="-3.770909">
        <ele>19.161</ele>
        <time>2019-06-16T15:50:13Z</time>
      </trkpt>
      <trkpt lat="43.434655" lon="-3.770947">
        <ele>18.821</ele>
        <time>2019-06-16T15:50:14Z</time>
      </trkpt>
      <trkpt lat="43.434544" lon="-3.771010">
        <ele>18.427</ele>
        <time>2019-06-16T15:50:15Z</time>
      </trkpt>
      <trkpt lat="43.434426" lon="-3.771085">
        <ele>17.996</ele>
        <time>2019-06-16T15:50:16Z</time>
      </trkpt>
      <trkpt lat="43.434311" lon="-3.771162">
        <ele>16.978</ele>
        <time>2019-06-16T15:50:17Z</time>
      </trkpt>
      <trkpt lat="43.434201" lon="-3.771234">
        <ele>16.233</ele>
        <time>2019-06-16T15:50:18Z</time>
      </trkpt>
      <trkpt lat="43.434084" lon="-3.771306">
        <ele>15.426</ele>
        <time>2019-06-16T15:50:19Z</time>
      </trkpt>
      <trkpt lat="43.433976" lon="-3.771388">
        <ele>14.608</ele>
        <time>2019-06-16T15:50:20Z</time>
      </trkpt>
      <trkpt lat="43.433864" lon="-3.771482">
        <ele>14.190</ele>
        <time>2019-06-16T15:50:21Z</time>
      </trkpt>
      <trkpt lat="43.433745" lon="-3.771612">
        <ele>13.454</ele>
        <time>2019-06-16T15:50:22Z</time>
      </trkpt>
      <trkpt lat="43.433630" lon="-3.771763">
        <ele>12.814</ele>
        <time>2019-06-16T15:50:23Z</time>
      </trkpt>
      <trkpt lat="43.433530" lon="-3.771924">
        <ele>12.718</ele>
        <time>2019-06-16T15:50:24Z</time>
      </trkpt>
      <trkpt lat="43.433429" lon="-3.772078">
        <ele>11.937</ele>
        <time>2019-06-16T15:50:25Z</time>
      </trkpt>
      <trkpt lat="43.433336" lon="-3.772219">
        <ele>11.077</ele>
        <time>2019-06-16T15:50:26Z</time>
      </trkpt>
      <trkpt lat="43.433235" lon="-3.772364">
        <ele>10.823</ele>
        <time>2019-06-16T15:50:27Z</time>
      </trkpt>
      <trkpt lat="43.433126" lon="-3.772520">
        <ele>10.612</ele>
        <time>2019-06-16T15:50:28Z</time>
      </trkpt>
      <trkpt lat="43.433017" lon="-3.772663">
        <ele>10.484</ele>
        <time>2019-06-16T15:50:29Z</time>
      </trkpt>
      <trkpt lat="43.432899" lon="-3.772787">
        <ele>10.507</ele>
        <time>2019-06-16T15:50:30Z</time>
      </trkpt>
      <trkpt lat="43.432765" lon="-3.772889">
        <ele>10.417</ele>
        <time>2019-06-16T15:50:31Z</time>
      </trkpt>
      <trkpt lat="43.432615" lon="-3.772960">
        <ele>10.108</ele>
        <time>2019-06-16T15:50:32Z</time>
      </trkpt>
      <trkpt lat="43.432459" lon="-3.773009">
        <ele>9.811</ele>
        <time>2019-06-16T15:50:33Z</time>
      </trkpt>
      <trkpt lat="43.432292" lon="-3.773042">
        <ele>10.035</ele>
        <time>2019-06-16T15:50:34Z</time>
      </trkpt>
      <trkpt lat="43.432123" lon="-3.773079">
        <ele>10.175</ele>
        <time>2019-06-16T15:50:35Z</time>
      </trkpt>
      <trkpt lat="43.431950" lon="-3.773106">
        <ele>10.259</ele>
        <time>2019-06-16T15:50:36Z</time>
      </trkpt>
      <trkpt lat="43.431765" lon="-3.773116">
        <ele>10.978</ele>
        <time>2019-06-16T15:50:37Z</time>
      </trkpt>
      <trkpt lat="43.431578" lon="-3.773098">
        <ele>11.468</ele>
        <time>2019-06-16T15:50:38Z</time>
      </trkpt>
      <trkpt lat="43.431394" lon="-3.773059">
        <ele>12.094</ele>
        <time>2019-06-16T15:50:39Z</time>
      </trkpt>
      <trkpt lat="43.431214" lon="-3.773000">
        <ele>11.973</ele>
        <time>2019-06-16T15:50:40Z</time>
      </trkpt>
      <trkpt lat="43.431036" lon="-3.772943">
        <ele>12.382</ele>
        <time>2019-06-16T15:50:41Z</time>
      </trkpt>
      <trkpt lat="43.430860" lon="-3.772891">
        <ele>12.943</ele>
        <time>2019-06-16T15:50:42Z</time>
      </trkpt>
      <trkpt lat="43.430696" lon="-3.772838">
        <ele>13.517</ele>
        <time>2019-06-16T15:50:43Z</time>
      </trkpt>
      <trkpt lat="43.430528" lon="-3.772784">
        <ele>14.108</ele>
        <time>2019-06-16T15:50:44Z</time>
      </trkpt>
      <trkpt lat="43.430363" lon="-3.772744">
        <ele>14.671</ele>
        <time>2019-06-16T15:50:45Z</time>
      </trkpt>
      <trkpt lat="43.430200" lon="-3.772701">
        <ele>15.065</ele>
        <time>2019-06-16T15:50:46Z</time>
      </trkpt>
      <trkpt lat="43.430049" lon="-3.772645">
        <ele>15.385</ele>
        <time>2019-06-16T15:50:47Z</time>
      </trkpt>
      <trkpt lat="43.429897" lon="-3.772598">
        <ele>15.729</ele>
        <time>2019-06-16T15:50:48Z</time>
      </trkpt>
      <trkpt lat="43.429752" lon="-3.772547">
        <ele>16.138</ele>
        <time>2019-06-16T15:50:49Z</time>
      </trkpt>
      <trkpt lat="43.429610" lon="-3.772502">
        <ele>16.488</ele>
        <time>2019-06-16T15:50:50Z</time>
      </trkpt>
      <trkpt lat="43.429482" lon="-3.772457">
        <ele>16.784</ele>
        <time>2019-06-16T15:50:51Z</time>
      </trkpt>
      <trkpt lat="43.429336" lon="-3.772419">
        <ele>17.193</ele>
        <time>2019-06-16T15:50:52Z</time>
      </trkpt>
      <trkpt lat="43.429192" lon="-3.772377">
        <ele>17.542</ele>
        <time>2019-06-16T15:50:53Z</time>
      </trkpt>
      <trkpt lat="43.429044" lon="-3.772317">
        <ele>17.622</ele>
        <time>2019-06-16T15:50:54Z</time>
      </trkpt>
      <trkpt lat="43.428908" lon="-3.772241">
        <ele>17.914</ele>
        <time>2019-06-16T15:50:55Z</time>
      </trkpt>
      <trkpt lat="43.428777" lon="-3.772146">
        <ele>17.708</ele>
        <time>2019-06-16T15:50:56Z</time>
      </trkpt>
      <trkpt lat="43.428647" lon="-3.772043">
        <ele>17.857</ele>
        <time>2019-06-16T15:50:57Z</time>
      </trkpt>
      <trkpt lat="43.428514" lon="-3.771922">
        <ele>18.281</ele>
        <time>2019-06-16T15:50:58Z</time>
      </trkpt>
      <trkpt lat="43.428381" lon="-3.771801">
        <ele>18.241</ele>
        <time>2019-06-16T15:50:59Z</time>
      </trkpt>
      <trkpt lat="43.428236" lon="-3.771663">
        <ele>18.315</ele>
        <time>2019-06-16T15:51:00Z</time>
      </trkpt>
      <trkpt lat="43.428099" lon="-3.771537">
        <ele>18.364</ele>
        <time>2019-06-16T15:51:01Z</time>
      </trkpt>
      <trkpt lat="43.427961" lon="-3.771410">
        <ele>18.594</ele>
        <time>2019-06-16T15:51:02Z</time>
      </trkpt>
      <trkpt lat="43.427827" lon="-3.771291">
        <ele>18.130</ele>
        <time>2019-06-16T15:51:03Z</time>
      </trkpt>
      <trkpt lat="43.427688" lon="-3.771163">
        <ele>18.029</ele>
        <time>2019-06-16T15:51:04Z</time>
      </trkpt>
      <trkpt lat="43.427551" lon="-3.771036">
        <ele>17.936</ele>
        <time>2019-06-16T15:51:05Z</time>
      </trkpt>
      <trkpt lat="43.427411" lon="-3.770910">
        <ele>17.417</ele>
        <time>2019-06-16T15:51:06Z</time>
      </trkpt>
      <trkpt lat="43.427268" lon="-3.770806">
        <ele>17.518</ele>
        <time>2019-06-16T15:51:07Z</time>
      </trkpt>
      <trkpt lat="43.427124" lon="-3.770697">
        <ele>17.408</ele>
        <time>2019-06-16T15:51:08Z</time>
      </trkpt>
      <trkpt lat="43.426975" lon="-3.770584">
        <ele>17.146</ele>
        <time>2019-06-16T15:51:09Z</time>
      </trkpt>
      <trkpt lat="43.426821" lon="-3.770481">
        <ele>16.810</ele>
        <time>2019-06-16T15:51:10Z</time>
      </trkpt>
      <trkpt lat="43.426670" lon="-3.770372">
        <ele>16.720</ele>
        <time>2019-06-16T15:51:11Z</time>
      </trkpt>
      <trkpt lat="43.426519" lon="-3.770252">
        <ele>16.374</ele>
        <time>2019-06-16T15:51:12Z</time>
      </trkpt>
      <trkpt lat="43.426369" lon="-3.770131">
        <ele>15.413</ele>
        <time>2019-06-16T15:51:13Z</time>
      </trkpt>
      <trkpt lat="43.426210" lon="-3.770008">
        <ele>14.143</ele>
        <time>2019-06-16T15:51:14Z</time>
      </trkpt>
      <trkpt lat="43.426064" lon="-3.769898">
        <ele>13.719</ele>
        <time>2019-06-16T15:51:15Z</time>
      </trkpt>
      <trkpt lat="43.425918" lon="-3.769770">
        <ele>13.768</ele>
        <time>2019-06-16T15:51:16Z</time>
      </trkpt>
      <trkpt lat="43.425776" lon="-3.769661">
        <ele>14.068</ele>
        <time>2019-06-16T15:51:17Z</time>
      </trkpt>
      <trkpt lat="43.425639" lon="-3.769532">
        <ele>14.042</ele>
        <time>2019-06-16T15:51:18Z</time>
      </trkpt>
      <trkpt lat="43.425504" lon="-3.769394">
        <ele>14.226</ele>
        <time>2019-06-16T15:51:19Z</time>
      </trkpt>
      <trkpt lat="43.425371" lon="-3.769253">
        <ele>14.208</ele>
        <time>2019-06-16T15:51:20Z</time>
      </trkpt>
      <trkpt lat="43.425232" lon="-3.769111">
        <ele>14.169</ele>
        <time>2019-06-16T15:51:21Z</time>
      </trkpt>
      <trkpt lat="43.425102" lon="-3.768967">
        <ele>14.523</ele>
        <time>2019-06-16T15:51:22Z</time>
      </trkpt>
      <trkpt lat="43.424975" lon="-3.768808">
        <ele>14.953</ele>
        <time>2019-06-16T15:51:23Z</time>
      </trkpt>
      <trkpt lat="43.424854" lon="-3.768658">
        <ele>15.267</ele>
        <time>2019-06-16T15:51:24Z</time>
      </trkpt>
      <trkpt lat="43.424735" lon="-3.768493">
        <ele>15.546</ele>
        <time>2019-06-16T15:51:25Z</time>
      </trkpt>
      <trkpt lat="43.424657" lon="-3.768304">
        <ele>15.686</ele>
        <time>2019-06-16T15:51:26Z</time>
      </trkpt>
      <trkpt lat="43.424571" lon="-3.768108">
        <ele>15.832</ele>
        <time>2019-06-16T15:51:27Z</time>
      </trkpt>
      <trkpt lat="43.424500" lon="-3.767897">
        <ele>15.821</ele>
        <time>2019-06-16T15:51:28Z</time>
      </trkpt>
      <trkpt lat="43.424437" lon="-3.767714">
        <ele>16.182</ele>
        <time>2019-06-16T15:51:29Z</time>
      </trkpt>
      <trkpt lat="43.424392" lon="-3.767503">
        <ele>16.943</ele>
        <time>2019-06-16T15:51:30Z</time>
      </trkpt>
      <trkpt lat="43.424366" lon="-3.767263">
        <ele>17.417</ele>
        <time>2019-06-16T15:51:31Z</time>
      </trkpt>
      <trkpt lat="43.424329" lon="-3.767008">
        <ele>17.608</ele>
        <time>2019-06-16T15:51:32Z</time>
      </trkpt>
      <trkpt lat="43.424282" lon="-3.766750">
        <ele>17.181</ele>
        <time>2019-06-16T15:51:33Z</time>
      </trkpt>
      <trkpt lat="43.424234" lon="-3.766484">
        <ele>16.295</ele>
        <time>2019-06-16T15:51:34Z</time>
      </trkpt>
      <trkpt lat="43.424180" lon="-3.766227">
        <ele>15.635</ele>
        <time>2019-06-16T15:51:35Z</time>
      </trkpt>
      <trkpt lat="43.424122" lon="-3.765982">
        <ele>15.369</ele>
        <time>2019-06-16T15:51:36Z</time>
      </trkpt>
      <trkpt lat="43.424066" lon="-3.765740">
        <ele>15.428</ele>
        <time>2019-06-16T15:51:37Z</time>
      </trkpt>
      <trkpt lat="43.424007" lon="-3.765518">
        <ele>15.288</ele>
        <time>2019-06-16T15:51:38Z</time>
      </trkpt>
      <trkpt lat="43.423948" lon="-3.765294">
        <ele>15.234</ele>
        <time>2019-06-16T15:51:39Z</time>
      </trkpt>
      <trkpt lat="43.423885" lon="-3.765087">
        <ele>15.433</ele>
        <time>2019-06-16T15:51:40Z</time>
      </trkpt>
      <trkpt lat="43.423817" lon="-3.764874">
        <ele>16.754</ele>
        <time>2019-06-16T15:51:41Z</time>
      </trkpt>
      <trkpt lat="43.423758" lon="-3.764652">
        <ele>17.456</ele>
        <time>2019-06-16T15:51:42Z</time>
      </trkpt>
      <trkpt lat="43.423707" lon="-3.764437">
        <ele>17.911</ele>
        <time>2019-06-16T15:51:43Z</time>
      </trkpt>
      <trkpt lat="43.423653" lon="-3.764223">
        <ele>17.808</ele>
        <time>2019-06-16T15:51:44Z</time>
      </trkpt>
      <trkpt lat="43.423597" lon="-3.764009">
        <ele>18.318</ele>
        <time>2019-06-16T15:51:45Z</time>
      </trkpt>
      <trkpt lat="43.423550" lon="-3.763760">
        <ele>18.912</ele>
        <time>2019-06-16T15:51:46Z</time>
      </trkpt>
      <trkpt lat="43.423509" lon="-3.763540">
        <ele>18.752</ele>
        <time>2019-06-16T15:51:47Z</time>
      </trkpt>
      <trkpt lat="43.423485" lon="-3.763316">
        <ele>17.876</ele>
        <time>2019-06-16T15:51:48Z</time>
      </trkpt>
      <trkpt lat="43.423457" lon="-3.763097">
        <ele>18.245</ele>
        <time>2019-06-16T15:51:49Z</time>
      </trkpt>
      <trkpt lat="43.423426" lon="-3.762864">
        <ele>18.495</ele>
        <time>2019-06-16T15:51:50Z</time>
      </trkpt>
      <trkpt lat="43.423398" lon="-3.762655">
        <ele>18.411</ele>
        <time>2019-06-16T15:51:51Z</time>
      </trkpt>
      <trkpt lat="43.423370" lon="-3.762433">
        <ele>18.550</ele>
        <time>2019-06-16T15:51:52Z</time>
      </trkpt>
      <trkpt lat="43.423350" lon="-3.762206">
        <ele>19.673</ele>
        <time>2019-06-16T15:51:53Z</time>
      </trkpt>
      <trkpt lat="43.423337" lon="-3.761986">
        <ele>19.985</ele>
        <time>2019-06-16T15:51:54Z</time>
      </trkpt>
      <trkpt lat="43.423313" lon="-3.761758">
        <ele>20.513</ele>
        <time>2019-06-16T15:51:55Z</time>
      </trkpt>
      <trkpt lat="43.423289" lon="-3.761536">
        <ele>21.008</ele>
        <time>2019-06-16T15:51:56Z</time>
      </trkpt>
      <trkpt lat="43.423263" lon="-3.761301">
        <ele>20.950</ele>
        <time>2019-06-16T15:51:57Z</time>
      </trkpt>
      <trkpt lat="43.423232" lon="-3.761060">
        <ele>20.674</ele>
        <time>2019-06-16T15:51:58Z</time>
      </trkpt>
      <trkpt lat="43.423202" lon="-3.760817">
        <ele>20.354</ele>
        <time>2019-06-16T15:51:59Z</time>
      </trkpt>
      <trkpt lat="43.423156" lon="-3.760566">
        <ele>19.628</ele>
        <time>2019-06-16T15:52:00Z</time>
      </trkpt>
      <trkpt lat="43.423118" lon="-3.760310">
        <ele>19.267</ele>
        <time>2019-06-16T15:52:01Z</time>
      </trkpt>
      <trkpt lat="43.423073" lon="-3.760041">
        <ele>18.157</ele>
        <time>2019-06-16T15:52:02Z</time>
      </trkpt>
      <trkpt lat="43.423041" lon="-3.759786">
        <ele>17.573</ele>
        <time>2019-06-16T15:52:03Z</time>
      </trkpt>
      <trkpt lat="43.422999" lon="-3.759538">
        <ele>16.472</ele>
        <time>2019-06-16T15:52:04Z</time>
      </trkpt>
      <trkpt lat="43.422952" lon="-3.759278">
        <ele>15.128</ele>
        <time>2019-06-16T15:52:05Z</time>
      </trkpt>
      <trkpt lat="43.422918" lon="-3.759030">
        <ele>14.289</ele>
        <time>2019-06-16T15:52:06Z</time>
      </trkpt>
      <trkpt lat="43.422871" lon="-3.758821">
        <ele>14.317</ele>
        <time>2019-06-16T15:52:07Z</time>
      </trkpt>
      <trkpt lat="43.422843" lon="-3.758590">
        <ele>14.508</ele>
        <time>2019-06-16T15:52:08Z</time>
      </trkpt>
      <trkpt lat="43.422807" lon="-3.758343">
        <ele>14.775</ele>
        <time>2019-06-16T15:52:09Z</time>
      </trkpt>
      <trkpt lat="43.422774" lon="-3.758086">
        <ele>15.059</ele>
        <time>2019-06-16T15:52:10Z</time>
      </trkpt>
      <trkpt lat="43.422739" lon="-3.757835">
        <ele>15.359</ele>
        <time>2019-06-16T15:52:11Z</time>
      </trkpt>
      <trkpt lat="43.422692" lon="-3.757607">
        <ele>16.263</ele>
        <time>2019-06-16T15:52:12Z</time>
      </trkpt>
      <trkpt lat="43.422661" lon="-3.757370">
        <ele>17.372</ele>
        <time>2019-06-16T15:52:13Z</time>
      </trkpt>
      <trkpt lat="43.422634" lon="-3.757129">
        <ele>18.482</ele>
        <time>2019-06-16T15:52:14Z</time>
      </trkpt>
      <trkpt lat="43.422601" lon="-3.756898">
        <ele>19.348</ele>
        <time>2019-06-16T15:52:15Z</time>
      </trkpt>
      <trkpt lat="43.422569" lon="-3.756682">
        <ele>19.787</ele>
        <time>2019-06-16T15:52:16Z</time>
      </trkpt>
      <trkpt lat="43.422538" lon="-3.756489">
        <ele>20.675</ele>
        <time>2019-06-16T15:52:17Z</time>
      </trkpt>
      <trkpt lat="43.422511" lon="-3.756310">
        <ele>21.328</ele>
        <time>2019-06-16T15:52:18Z</time>
      </trkpt>
      <trkpt lat="43.422475" lon="-3.756142">
        <ele>21.920</ele>
        <time>2019-06-16T15:52:19Z</time>
      </trkpt>
      <trkpt lat="43.422446" lon="-3.755986">
        <ele>23.008</ele>
        <time>2019-06-16T15:52:20Z</time>
      </trkpt>
      <trkpt lat="43.422416" lon="-3.755838">
        <ele>24.370</ele>
        <time>2019-06-16T15:52:21Z</time>
      </trkpt>
      <trkpt lat="43.422373" lon="-3.755712">
        <ele>24.984</ele>
        <time>2019-06-16T15:52:22Z</time>
      </trkpt>
      <trkpt lat="43.422326" lon="-3.755614">
        <ele>25.484</ele>
        <time>2019-06-16T15:52:23Z</time>
      </trkpt>
      <trkpt lat="43.422268" lon="-3.755535">
        <ele>26.078</ele>
        <time>2019-06-16T15:52:24Z</time>
      </trkpt>
      <trkpt lat="43.422208" lon="-3.755487">
        <ele>26.587</ele>
        <time>2019-06-16T15:52:25Z</time>
      </trkpt>
      <trkpt lat="43.422138" lon="-3.755435">
        <ele>27.287</ele>
        <time>2019-06-16T15:52:26Z</time>
      </trkpt>
      <trkpt lat="43.422058" lon="-3.755416">
        <ele>27.683</ele>
        <time>2019-06-16T15:52:27Z</time>
      </trkpt>
      <trkpt lat="43.421970" lon="-3.755403">
        <ele>28.012</ele>
        <time>2019-06-16T15:52:28Z</time>
      </trkpt>
      <trkpt lat="43.421877" lon="-3.755374">
        <ele>28.649</ele>
        <time>2019-06-16T15:52:29Z</time>
      </trkpt>
      <trkpt lat="43.421775" lon="-3.755365">
        <ele>29.002</ele>
        <time>2019-06-16T15:52:30Z</time>
      </trkpt>
      <trkpt lat="43.421673" lon="-3.755388">
        <ele>29.222</ele>
        <time>2019-06-16T15:52:31Z</time>
      </trkpt>
      <trkpt lat="43.421552" lon="-3.755459">
        <ele>29.008</ele>
        <time>2019-06-16T15:52:32Z</time>
      </trkpt>
      <trkpt lat="43.421436" lon="-3.755559">
        <ele>28.817</ele>
        <time>2019-06-16T15:52:33Z</time>
      </trkpt>
      <trkpt lat="43.421316" lon="-3.755666">
        <ele>28.011</ele>
        <time>2019-06-16T15:52:34Z</time>
      </trkpt>
      <trkpt lat="43.421192" lon="-3.755773">
        <ele>27.871</ele>
        <time>2019-06-16T15:52:35Z</time>
      </trkpt>
      <trkpt lat="43.421061" lon="-3.755870">
        <ele>27.955</ele>
        <time>2019-06-16T15:52:36Z</time>
      </trkpt>
      <trkpt lat="43.420933" lon="-3.755979">
        <ele>27.974</ele>
        <time>2019-06-16T15:52:37Z</time>
      </trkpt>
      <trkpt lat="43.420819" lon="-3.756061">
        <ele>28.354</ele>
        <time>2019-06-16T15:52:38Z</time>
      </trkpt>
      <trkpt lat="43.420709" lon="-3.756147">
        <ele>29.330</ele>
        <time>2019-06-16T15:52:39Z</time>
      </trkpt>
      <trkpt lat="43.420595" lon="-3.756225">
        <ele>30.619</ele>
        <time>2019-06-16T15:52:40Z</time>
      </trkpt>
      <trkpt lat="43.420474" lon="-3.756297">
        <ele>31.824</ele>
        <time>2019-06-16T15:52:41Z</time>
      </trkpt>
      <trkpt lat="43.420335" lon="-3.756370">
        <ele>33.304</ele>
        <time>2019-06-16T15:52:42Z</time>
      </trkpt>
      <trkpt lat="43.420205" lon="-3.756407">
        <ele>34.914</ele>
        <time>2019-06-16T15:52:43Z</time>
      </trkpt>
      <trkpt lat="43.420067" lon="-3.756436">
        <ele>36.408</ele>
        <time>2019-06-16T15:52:44Z</time>
      </trkpt>
      <trkpt lat="43.419928" lon="-3.756464">
        <ele>37.535</ele>
        <time>2019-06-16T15:52:45Z</time>
      </trkpt>
      <trkpt lat="43.419786" lon="-3.756490">
        <ele>37.949</ele>
        <time>2019-06-16T15:52:46Z</time>
      </trkpt>
      <trkpt lat="43.419639" lon="-3.756522">
        <ele>38.219</ele>
        <time>2019-06-16T15:52:47Z</time>
      </trkpt>
      <trkpt lat="43.419495" lon="-3.756538">
        <ele>38.483</ele>
        <time>2019-06-16T15:52:48Z</time>
      </trkpt>
      <trkpt lat="43.419357" lon="-3.756557">
        <ele>38.232</ele>
        <time>2019-06-16T15:52:49Z</time>
      </trkpt>
      <trkpt lat="43.419234" lon="-3.756577">
        <ele>37.842</ele>
        <time>2019-06-16T15:52:50Z</time>
      </trkpt>
      <trkpt lat="43.419103" lon="-3.756587">
        <ele>37.128</ele>
        <time>2019-06-16T15:52:51Z</time>
      </trkpt>
      <trkpt lat="43.418968" lon="-3.756596">
        <ele>36.147</ele>
        <time>2019-06-16T15:52:52Z</time>
      </trkpt>
      <trkpt lat="43.418836" lon="-3.756616">
        <ele>35.147</ele>
        <time>2019-06-16T15:52:53Z</time>
      </trkpt>
      <trkpt lat="43.418706" lon="-3.756670">
        <ele>34.329</ele>
        <time>2019-06-16T15:52:54Z</time>
      </trkpt>
      <trkpt lat="43.418589" lon="-3.756747">
        <ele>33.421</ele>
        <time>2019-06-16T15:52:55Z</time>
      </trkpt>
      <trkpt lat="43.418469" lon="-3.756885">
        <ele>32.808</ele>
        <time>2019-06-16T15:52:56Z</time>
      </trkpt>
      <trkpt lat="43.418349" lon="-3.757043">
        <ele>32.687</ele>
        <time>2019-06-16T15:52:57Z</time>
      </trkpt>
      <trkpt lat="43.418232" lon="-3.757275">
        <ele>32.721</ele>
        <time>2019-06-16T15:52:58Z</time>
      </trkpt>
      <trkpt lat="43.418110" lon="-3.757474">
        <ele>32.621</ele>
        <time>2019-06-16T15:52:59Z</time>
      </trkpt>
      <trkpt lat="43.417981" lon="-3.757669">
        <ele>32.685</ele>
        <time>2019-06-16T15:53:00Z</time>
      </trkpt>
      <trkpt lat="43.417833" lon="-3.757844">
        <ele>32.984</ele>
        <time>2019-06-16T15:53:01Z</time>
      </trkpt>
      <trkpt lat="43.417683" lon="-3.758009">
        <ele>33.434</ele>
        <time>2019-06-16T15:53:02Z</time>
      </trkpt>
      <trkpt lat="43.417530" lon="-3.758177">
        <ele>33.430</ele>
        <time>2019-06-16T15:53:03Z</time>
      </trkpt>
      <trkpt lat="43.417374" lon="-3.758362">
        <ele>33.119</ele>
        <time>2019-06-16T15:53:04Z</time>
      </trkpt>
      <trkpt lat="43.417228" lon="-3.758554">
        <ele>33.355</ele>
        <time>2019-06-16T15:53:05Z</time>
      </trkpt>
      <trkpt lat="43.417095" lon="-3.758765">
        <ele>34.007</ele>
        <time>2019-06-16T15:53:06Z</time>
      </trkpt>
      <trkpt lat="43.416974" lon="-3.758978">
        <ele>35.117</ele>
        <time>2019-06-16T15:53:07Z</time>
      </trkpt>
      <trkpt lat="43.416863" lon="-3.759203">
        <ele>36.008</ele>
        <time>2019-06-16T15:53:08Z</time>
      </trkpt>
      <trkpt lat="43.416762" lon="-3.759431">
        <ele>36.318</ele>
        <time>2019-06-16T15:53:09Z</time>
      </trkpt>
      <trkpt lat="43.416648" lon="-3.759645">
        <ele>38.252</ele>
        <time>2019-06-16T15:53:10Z</time>
      </trkpt>
      <trkpt lat="43.416548" lon="-3.759852">
        <ele>38.852</ele>
        <time>2019-06-16T15:53:11Z</time>
      </trkpt>
      <trkpt lat="43.416433" lon="-3.760051">
        <ele>39.266</ele>
        <time>2019-06-16T15:53:12Z</time>
      </trkpt>
      <trkpt lat="43.416296" lon="-3.760198">
        <ele>39.035</ele>
        <time>2019-06-16T15:53:13Z</time>
      </trkpt>
      <trkpt lat="43.416147" lon="-3.760349">
        <ele>38.465</ele>
        <time>2019-06-16T15:53:14Z</time>
      </trkpt>
      <trkpt lat="43.415980" lon="-3.760465">
        <ele>37.371</ele>
        <time>2019-06-16T15:53:15Z</time>
      </trkpt>
      <trkpt lat="43.415810" lon="-3.760557">
        <ele>35.980</ele>
        <time>2019-06-16T15:53:16Z</time>
      </trkpt>
      <trkpt lat="43.415626" lon="-3.760654">
        <ele>35.046</ele>
        <time>2019-06-16T15:53:17Z</time>
      </trkpt>
      <trkpt lat="43.415444" lon="-3.760747">
        <ele>34.288</ele>
        <time>2019-06-16T15:53:18Z</time>
      </trkpt>
      <trkpt lat="43.415279" lon="-3.760818">
        <ele>33.216</ele>
        <time>2019-06-16T15:53:19Z</time>
      </trkpt>
      <trkpt lat="43.415104" lon="-3.760914">
        <ele>31.908</ele>
        <time>2019-06-16T15:53:20Z</time>
      </trkpt>
      <trkpt lat="43.414933" lon="-3.761062">
        <ele>30.197</ele>
        <time>2019-06-16T15:53:21Z</time>
      </trkpt>
      <trkpt lat="43.414778" lon="-3.761205">
        <ele>29.391</ele>
        <time>2019-06-16T15:53:22Z</time>
      </trkpt>
      <trkpt lat="43.414621" lon="-3.761348">
        <ele>28.271</ele>
        <time>2019-06-16T15:53:23Z</time>
      </trkpt>
      <trkpt lat="43.414495" lon="-3.761532">
        <ele>27.935</ele>
        <time>2019-06-16T15:53:24Z</time>
      </trkpt>
      <trkpt lat="43.414381" lon="-3.761730">
        <ele>27.974</ele>
        <time>2019-06-16T15:53:25Z</time>
      </trkpt>
      <trkpt lat="43.414266" lon="-3.761957">
        <ele>28.594</ele>
        <time>2019-06-16T15:53:26Z</time>
      </trkpt>
      <trkpt lat="43.414156" lon="-3.762196">
        <ele>27.830</ele>
        <time>2019-06-16T15:53:27Z</time>
      </trkpt>
      <trkpt lat="43.414067" lon="-3.762467">
        <ele>27.619</ele>
        <time>2019-06-16T15:53:28Z</time>
      </trkpt>
      <trkpt lat="43.413975" lon="-3.762740">
        <ele>26.794</ele>
        <time>2019-06-16T15:53:29Z</time>
      </trkpt>
      <trkpt lat="43.413886" lon="-3.763004">
        <ele>26.057</ele>
        <time>2019-06-16T15:53:30Z</time>
      </trkpt>
      <trkpt lat="43.413804" lon="-3.763264">
        <ele>26.122</ele>
        <time>2019-06-16T15:53:31Z</time>
      </trkpt>
      <trkpt lat="43.413721" lon="-3.763518">
        <ele>25.008</ele>
        <time>2019-06-16T15:53:32Z</time>
      </trkpt>
      <trkpt lat="43.413645" lon="-3.763756">
        <ele>23.742</ele>
        <time>2019-06-16T15:53:33Z</time>
      </trkpt>
      <trkpt lat="43.413571" lon="-3.763994">
        <ele>22.716</ele>
        <time>2019-06-16T15:53:34Z</time>
      </trkpt>
      <trkpt lat="43.413503" lon="-3.764226">
        <ele>22.186</ele>
        <time>2019-06-16T15:53:35Z</time>
      </trkpt>
      <trkpt lat="43.413430" lon="-3.764450">
        <ele>21.330</ele>
        <time>2019-06-16T15:53:36Z</time>
      </trkpt>
      <trkpt lat="43.413359" lon="-3.764670">
        <ele>20.339</ele>
        <time>2019-06-16T15:53:37Z</time>
      </trkpt>
      <trkpt lat="43.413294" lon="-3.764881">
        <ele>20.599</ele>
        <time>2019-06-16T15:53:38Z</time>
      </trkpt>
      <trkpt lat="43.413225" lon="-3.765089">
        <ele>20.495</ele>
        <time>2019-06-16T15:53:39Z</time>
      </trkpt>
      <trkpt lat="43.413162" lon="-3.765287">
        <ele>20.034</ele>
        <time>2019-06-16T15:53:40Z</time>
      </trkpt>
      <trkpt lat="43.413102" lon="-3.765484">
        <ele>20.615</ele>
        <time>2019-06-16T15:53:41Z</time>
      </trkpt>
      <trkpt lat="43.413037" lon="-3.765679">
        <ele>21.065</ele>
        <time>2019-06-16T15:53:42Z</time>
      </trkpt>
      <trkpt lat="43.412980" lon="-3.765865">
        <ele>20.911</ele>
        <time>2019-06-16T15:53:43Z</time>
      </trkpt>
      <trkpt lat="43.412926" lon="-3.766039">
        <ele>20.608</ele>
        <time>2019-06-16T15:53:44Z</time>
      </trkpt>
      <trkpt lat="43.412873" lon="-3.766206">
        <ele>20.584</ele>
        <time>2019-06-16T15:53:45Z</time>
      </trkpt>
      <trkpt lat="43.412808" lon="-3.766367">
        <ele>20.878</ele>
        <time>2019-06-16T15:53:46Z</time>
      </trkpt>
      <trkpt lat="43.412760" lon="-3.766506">
        <ele>20.798</ele>
        <time>2019-06-16T15:53:47Z</time>
      </trkpt>
      <trkpt lat="43.412719" lon="-3.766643">
        <ele>20.562</ele>
        <time>2019-06-16T15:53:48Z</time>
      </trkpt>
      <trkpt lat="43.412682" lon="-3.766766">
        <ele>20.791</ele>
        <time>2019-06-16T15:53:49Z</time>
      </trkpt>
      <trkpt lat="43.412654" lon="-3.766895">
        <ele>20.981</ele>
        <time>2019-06-16T15:53:50Z</time>
      </trkpt>
      <trkpt lat="43.412629" lon="-3.767007">
        <ele>21.297</ele>
        <time>2019-06-16T15:53:51Z</time>
      </trkpt>
      <trkpt lat="43.412619" lon="-3.767127">
        <ele>21.566</ele>
        <time>2019-06-16T15:53:52Z</time>
      </trkpt>
      <trkpt lat="43.412599" lon="-3.767253">
        <ele>21.938</ele>
        <time>2019-06-16T15:53:53Z</time>
      </trkpt>
      <trkpt lat="43.412554" lon="-3.767401">
        <ele>21.970</ele>
        <time>2019-06-16T15:53:54Z</time>
      </trkpt>
      <trkpt lat="43.412506" lon="-3.767566">
        <ele>22.017</ele>
        <time>2019-06-16T15:53:55Z</time>
      </trkpt>
      <trkpt lat="43.412473" lon="-3.767729">
        <ele>22.408</ele>
        <time>2019-06-16T15:53:56Z</time>
      </trkpt>
      <trkpt lat="43.412455" lon="-3.767909">
        <ele>22.236</ele>
        <time>2019-06-16T15:53:57Z</time>
      </trkpt>
      <trkpt lat="43.412458" lon="-3.768120">
        <ele>21.490</ele>
        <time>2019-06-16T15:53:58Z</time>
      </trkpt>
      <trkpt lat="43.412476" lon="-3.768334">
        <ele>20.390</ele>
        <time>2019-06-16T15:53:59Z</time>
      </trkpt>
      <trkpt lat="43.412508" lon="-3.768586">
        <ele>19.034</ele>
        <time>2019-06-16T15:54:00Z</time>
      </trkpt>
      <trkpt lat="43.412547" lon="-3.768844">
        <ele>17.853</ele>
        <time>2019-06-16T15:54:01Z</time>
      </trkpt>
      <trkpt lat="43.412593" lon="-3.769102">
        <ele>16.833</ele>
        <time>2019-06-16T15:54:02Z</time>
      </trkpt>
      <trkpt lat="43.412641" lon="-3.769366">
        <ele>16.519</ele>
        <time>2019-06-16T15:54:03Z</time>
      </trkpt>
      <trkpt lat="43.412708" lon="-3.769632">
        <ele>16.328</ele>
        <time>2019-06-16T15:54:04Z</time>
      </trkpt>
      <trkpt lat="43.412751" lon="-3.769885">
        <ele>16.078</ele>
        <time>2019-06-16T15:54:05Z</time>
      </trkpt>
      <trkpt lat="43.412801" lon="-3.770095">
        <ele>15.733</ele>
        <time>2019-06-16T15:54:06Z</time>
      </trkpt>
      <trkpt lat="43.412811" lon="-3.770381">
        <ele>15.126</ele>
        <time>2019-06-16T15:54:07Z</time>
      </trkpt>
      <trkpt lat="43.412812" lon="-3.770648">
        <ele>14.808</ele>
        <time>2019-06-16T15:54:08Z</time>
      </trkpt>
      <trkpt lat="43.412810" lon="-3.770888">
        <ele>14.120</ele>
        <time>2019-06-16T15:54:09Z</time>
      </trkpt>
      <trkpt lat="43.412802" lon="-3.771139">
        <ele>13.894</ele>
        <time>2019-06-16T15:54:10Z</time>
      </trkpt>
      <trkpt lat="43.412717" lon="-3.771371">
        <ele>13.364</ele>
        <time>2019-06-16T15:54:11Z</time>
      </trkpt>
      <trkpt lat="43.412659" lon="-3.771619">
        <ele>13.118</ele>
        <time>2019-06-16T15:54:12Z</time>
      </trkpt>
      <trkpt lat="43.412598" lon="-3.771863">
        <ele>12.837</ele>
        <time>2019-06-16T15:54:13Z</time>
      </trkpt>
      <trkpt lat="43.412551" lon="-3.772105">
        <ele>12.217</ele>
        <time>2019-06-16T15:54:14Z</time>
      </trkpt>
      <trkpt lat="43.412497" lon="-3.772343">
        <ele>12.053</ele>
        <time>2019-06-16T15:54:15Z</time>
      </trkpt>
      <trkpt lat="43.412441" lon="-3.772578">
        <ele>11.882</ele>
        <time>2019-06-16T15:54:16Z</time>
      </trkpt>
      <trkpt lat="43.412388" lon="-3.772805">
        <ele>11.412</ele>
        <time>2019-06-16T15:54:17Z</time>
      </trkpt>
      <trkpt lat="43.412344" lon="-3.773025">
        <ele>11.632</ele>
        <time>2019-06-16T15:54:18Z</time>
      </trkpt>
      <trkpt lat="43.412305" lon="-3.773271">
        <ele>10.905</ele>
        <time>2019-06-16T15:54:19Z</time>
      </trkpt>
      <trkpt lat="43.412262" lon="-3.773489">
        <ele>11.308</ele>
        <time>2019-06-16T15:54:20Z</time>
      </trkpt>
      <trkpt lat="43.412237" lon="-3.773716">
        <ele>11.514</ele>
        <time>2019-06-16T15:54:21Z</time>
      </trkpt>
      <trkpt lat="43.412241" lon="-3.773934">
        <ele>10.958</ele>
        <time>2019-06-16T15:54:22Z</time>
      </trkpt>
      <trkpt lat="43.412240" lon="-3.774173">
        <ele>10.938</ele>
        <time>2019-06-16T15:54:23Z</time>
      </trkpt>
      <trkpt lat="43.412244" lon="-3.774419">
        <ele>10.972</ele>
        <time>2019-06-16T15:54:24Z</time>
      </trkpt>
      <trkpt lat="43.412270" lon="-3.774681">
        <ele>10.791</ele>
        <time>2019-06-16T15:54:25Z</time>
      </trkpt>
      <trkpt lat="43.412275" lon="-3.774938">
        <ele>10.611</ele>
        <time>2019-06-16T15:54:26Z</time>
      </trkpt>
      <trkpt lat="43.412287" lon="-3.775199">
        <ele>10.577</ele>
        <time>2019-06-16T15:54:27Z</time>
      </trkpt>
      <trkpt lat="43.412319" lon="-3.775446">
        <ele>10.336</ele>
        <time>2019-06-16T15:54:28Z</time>
      </trkpt>
      <trkpt lat="43.412335" lon="-3.775700">
        <ele>10.231</ele>
        <time>2019-06-16T15:54:29Z</time>
      </trkpt>
      <trkpt lat="43.412341" lon="-3.775996">
        <ele>10.161</ele>
        <time>2019-06-16T15:54:30Z</time>
      </trkpt>
      <trkpt lat="43.412357" lon="-3.776264">
        <ele>10.307</ele>
        <time>2019-06-16T15:54:31Z</time>
      </trkpt>
      <trkpt lat="43.412378" lon="-3.776506">
        <ele>10.408</ele>
        <time>2019-06-16T15:54:32Z</time>
      </trkpt>
      <trkpt lat="43.412392" lon="-3.776766">
        <ele>10.216</ele>
        <time>2019-06-16T15:54:33Z</time>
      </trkpt>
      <trkpt lat="43.412404" lon="-3.777032">
        <ele>10.180</ele>
        <time>2019-06-16T15:54:34Z</time>
      </trkpt>
      <trkpt lat="43.412429" lon="-3.777291">
        <ele>10.350</ele>
        <time>2019-06-16T15:54:35Z</time>
      </trkpt>
      <trkpt lat="43.412446" lon="-3.777553">
        <ele>10.254</ele>
        <time>2019-06-16T15:54:36Z</time>
      </trkpt>
      <trkpt lat="43.412455" lon="-3.777816">
        <ele>10.253</ele>
        <time>2019-06-16T15:54:37Z</time>
      </trkpt>
      <trkpt lat="43.412442" lon="-3.778130">
        <ele>10.273</ele>
        <time>2019-06-16T15:54:38Z</time>
      </trkpt>
      <trkpt lat="43.412440" lon="-3.778367">
        <ele>10.219</ele>
        <time>2019-06-16T15:54:39Z</time>
      </trkpt>
      <trkpt lat="43.412441" lon="-3.778618">
        <ele>10.288</ele>
        <time>2019-06-16T15:54:40Z</time>
      </trkpt>
      <trkpt lat="43.412414" lon="-3.778885">
        <ele>10.372</ele>
        <time>2019-06-16T15:54:41Z</time>
      </trkpt>
      <trkpt lat="43.412433" lon="-3.779100">
        <ele>10.113</ele>
        <time>2019-06-16T15:54:42Z</time>
      </trkpt>
      <trkpt lat="43.412430" lon="-3.779334">
        <ele>10.014</ele>
        <time>2019-06-16T15:54:43Z</time>
      </trkpt>
      <trkpt lat="43.412435" lon="-3.779557">
        <ele>10.008</ele>
        <time>2019-06-16T15:54:44Z</time>
      </trkpt>
      <trkpt lat="43.412410" lon="-3.779774">
        <ele>10.190</ele>
        <time>2019-06-16T15:54:45Z</time>
      </trkpt>
      <trkpt lat="43.412398" lon="-3.779990">
        <ele>10.474</ele>
        <time>2019-06-16T15:54:46Z</time>
      </trkpt>
      <trkpt lat="43.412351" lon="-3.780218">
        <ele>9.854</ele>
        <time>2019-06-16T15:54:47Z</time>
      </trkpt>
      <trkpt lat="43.412312" lon="-3.780433">
        <ele>9.788</ele>
        <time>2019-06-16T15:54:48Z</time>
      </trkpt>
      <trkpt lat="43.412255" lon="-3.780660">
        <ele>9.837</ele>
        <time>2019-06-16T15:54:49Z</time>
      </trkpt>
      <trkpt lat="43.412202" lon="-3.780907">
        <ele>10.057</ele>
        <time>2019-06-16T15:54:50Z</time>
      </trkpt>
      <trkpt lat="43.412173" lon="-3.781136">
        <ele>9.913</ele>
        <time>2019-06-16T15:54:51Z</time>
      </trkpt>
      <trkpt lat="43.412143" lon="-3.781373">
        <ele>8.752</ele>
        <time>2019-06-16T15:54:52Z</time>
      </trkpt>
      <trkpt lat="43.412152" lon="-3.781607">
        <ele>8.997</ele>
        <time>2019-06-16T15:54:53Z</time>
      </trkpt>
      <trkpt lat="43.412147" lon="-3.781847">
        <ele>8.823</ele>
        <time>2019-06-16T15:54:54Z</time>
      </trkpt>
      <trkpt lat="43.412152" lon="-3.782073">
        <ele>8.425</ele>
        <time>2019-06-16T15:54:55Z</time>
      </trkpt>
      <trkpt lat="43.412151" lon="-3.782302">
        <ele>8.008</ele>
        <time>2019-06-16T15:54:56Z</time>
      </trkpt>
      <trkpt lat="43.412099" lon="-3.782575">
        <ele>8.092</ele>
        <time>2019-06-16T15:54:57Z</time>
      </trkpt>
      <trkpt lat="43.412065" lon="-3.782788">
        <ele>8.086</ele>
        <time>2019-06-16T15:54:58Z</time>
      </trkpt>
      <trkpt lat="43.412024" lon="-3.783021">
        <ele>8.066</ele>
        <time>2019-06-16T15:54:59Z</time>
      </trkpt>
      <trkpt lat="43.411981" lon="-3.783244">
        <ele>8.080</ele>
        <time>2019-06-16T15:55:00Z</time>
      </trkpt>
      <trkpt lat="43.411927" lon="-3.783465">
        <ele>8.189</ele>
        <time>2019-06-16T15:55:01Z</time>
      </trkpt>
      <trkpt lat="43.411884" lon="-3.783683">
        <ele>8.279</ele>
        <time>2019-06-16T15:55:02Z</time>
      </trkpt>
      <trkpt lat="43.411835" lon="-3.783905">
        <ele>8.415</ele>
        <time>2019-06-16T15:55:03Z</time>
      </trkpt>
      <trkpt lat="43.411785" lon="-3.784130">
        <ele>8.424</ele>
        <time>2019-06-16T15:55:04Z</time>
      </trkpt>
      <trkpt lat="43.411734" lon="-3.784380">
        <ele>8.217</ele>
        <time>2019-06-16T15:55:05Z</time>
      </trkpt>
      <trkpt lat="43.411671" lon="-3.784636">
        <ele>8.787</ele>
        <time>2019-06-16T15:55:06Z</time>
      </trkpt>
      <trkpt lat="43.411595" lon="-3.784923">
        <ele>9.015</ele>
        <time>2019-06-16T15:55:07Z</time>
      </trkpt>
      <trkpt lat="43.411528" lon="-3.785190">
        <ele>9.008</ele>
        <time>2019-06-16T15:55:08Z</time>
      </trkpt>
      <trkpt lat="43.411456" lon="-3.785480">
        <ele>9.094</ele>
        <time>2019-06-16T15:55:09Z</time>
      </trkpt>
      <trkpt lat="43.411379" lon="-3.785782">
        <ele>9.028</ele>
        <time>2019-06-16T15:55:10Z</time>
      </trkpt>
      <trkpt lat="43.411329" lon="-3.786079">
        <ele>8.878</ele>
        <time>2019-06-16T15:55:11Z</time>
      </trkpt>
      <trkpt lat="43.411261" lon="-3.786412">
        <ele>9.022</ele>
        <time>2019-06-16T15:55:12Z</time>
      </trkpt>
      <trkpt lat="43.411199" lon="-3.786720">
        <ele>8.761</ele>
        <time>2019-06-16T15:55:13Z</time>
      </trkpt>
      <trkpt lat="43.411135" lon="-3.787017">
        <ele>8.951</ele>
        <time>2019-06-16T15:55:14Z</time>
      </trkpt>
      <trkpt lat="43.411097" lon="-3.787315">
        <ele>9.157</ele>
        <time>2019-06-16T15:55:15Z</time>
      </trkpt>
      <trkpt lat="43.411024" lon="-3.787609">
        <ele>9.326</ele>
        <time>2019-06-16T15:55:16Z</time>
      </trkpt>
      <trkpt lat="43.410959" lon="-3.787912">
        <ele>9.143</ele>
        <time>2019-06-16T15:55:17Z</time>
      </trkpt>
      <trkpt lat="43.410895" lon="-3.788190">
        <ele>8.864</ele>
        <time>2019-06-16T15:55:18Z</time>
      </trkpt>
      <trkpt lat="43.410826" lon="-3.788476">
        <ele>8.510</ele>
        <time>2019-06-16T15:55:19Z</time>
      </trkpt>
      <trkpt lat="43.410756" lon="-3.788752">
        <ele>8.308</ele>
        <time>2019-06-16T15:55:20Z</time>
      </trkpt>
      <trkpt lat="43.410693" lon="-3.789032">
        <ele>8.257</ele>
        <time>2019-06-16T15:55:21Z</time>
      </trkpt>
      <trkpt lat="43.410630" lon="-3.789295">
        <ele>8.021</ele>
        <time>2019-06-16T15:55:22Z</time>
      </trkpt>
      <trkpt lat="43.410577" lon="-3.789556">
        <ele>8.091</ele>
        <time>2019-06-16T15:55:23Z</time>
      </trkpt>
      <trkpt lat="43.410518" lon="-3.789828">
        <ele>7.695</ele>
        <time>2019-06-16T15:55:24Z</time>
      </trkpt>
      <trkpt lat="43.410468" lon="-3.790136">
        <ele>7.064</ele>
        <time>2019-06-16T15:55:25Z</time>
      </trkpt>
      <trkpt lat="43.410437" lon="-3.790422">
        <ele>6.884</ele>
        <time>2019-06-16T15:55:26Z</time>
      </trkpt>
      <trkpt lat="43.410436" lon="-3.790717">
        <ele>6.690</ele>
        <time>2019-06-16T15:55:27Z</time>
      </trkpt>
      <trkpt lat="43.410440" lon="-3.791016">
        <ele>6.679</ele>
        <time>2019-06-16T15:55:28Z</time>
      </trkpt>
      <trkpt lat="43.410436" lon="-3.791320">
        <ele>6.142</ele>
        <time>2019-06-16T15:55:29Z</time>
      </trkpt>
      <trkpt lat="43.410452" lon="-3.791639">
        <ele>6.322</ele>
        <time>2019-06-16T15:55:30Z</time>
      </trkpt>
      <trkpt lat="43.410462" lon="-3.791970">
        <ele>6.014</ele>
        <time>2019-06-16T15:55:31Z</time>
      </trkpt>
      <trkpt lat="43.410471" lon="-3.792273">
        <ele>6.308</ele>
        <time>2019-06-16T15:55:32Z</time>
      </trkpt>
      <trkpt lat="43.410454" lon="-3.792617">
        <ele>6.847</ele>
        <time>2019-06-16T15:55:33Z</time>
      </trkpt>
      <trkpt lat="43.410457" lon="-3.792923">
        <ele>7.451</ele>
        <time>2019-06-16T15:55:34Z</time>
      </trkpt>
      <trkpt lat="43.410437" lon="-3.793259">
        <ele>7.421</ele>
        <time>2019-06-16T15:55:35Z</time>
      </trkpt>
      <trkpt lat="43.410390" lon="-3.793583">
        <ele>8.525</ele>
        <time>2019-06-16T15:55:36Z</time>
      </trkpt>
      <trkpt lat="43.410335" lon="-3.793873">
        <ele>8.834</ele>
        <time>2019-06-16T15:55:37Z</time>
      </trkpt>
      <trkpt lat="43.410271" lon="-3.794178">
        <ele>10.024</ele>
        <time>2019-06-16T15:55:38Z</time>
      </trkpt>
      <trkpt lat="43.410188" lon="-3.794469">
        <ele>10.710</ele>
        <time>2019-06-16T15:55:39Z</time>
      </trkpt>
      <trkpt lat="43.410105" lon="-3.794746">
        <ele>11.719</ele>
        <time>2019-06-16T15:55:40Z</time>
      </trkpt>
      <trkpt lat="43.410003" lon="-3.795027">
        <ele>13.191</ele>
        <time>2019-06-16T15:55:41Z</time>
      </trkpt>
      <trkpt lat="43.409909" lon="-3.795307">
        <ele>14.081</ele>
        <time>2019-06-16T15:55:42Z</time>
      </trkpt>
      <trkpt lat="43.409825" lon="-3.795563">
        <ele>14.619</ele>
        <time>2019-06-16T15:55:43Z</time>
      </trkpt>
      <trkpt lat="43.409738" lon="-3.795816">
        <ele>15.808</ele>
        <time>2019-06-16T15:55:44Z</time>
      </trkpt>
      <trkpt lat="43.409658" lon="-3.796039">
        <ele>16.412</ele>
        <time>2019-06-16T15:55:45Z</time>
      </trkpt>
      <trkpt lat="43.409587" lon="-3.796274">
        <ele>17.046</ele>
        <time>2019-06-16T15:55:46Z</time>
      </trkpt>
      <trkpt lat="43.409505" lon="-3.796474">
        <ele>17.696</ele>
        <time>2019-06-16T15:55:47Z</time>
      </trkpt>
      <trkpt lat="43.409436" lon="-3.796681">
        <ele>18.040</ele>
        <time>2019-06-16T15:55:48Z</time>
      </trkpt>
      <trkpt lat="43.409370" lon="-3.796876">
        <ele>17.859</ele>
        <time>2019-06-16T15:55:49Z</time>
      </trkpt>
      <trkpt lat="43.409322" lon="-3.797051">
        <ele>17.579</ele>
        <time>2019-06-16T15:55:50Z</time>
      </trkpt>
      <trkpt lat="43.409253" lon="-3.797231">
        <ele>17.465</ele>
        <time>2019-06-16T15:55:51Z</time>
      </trkpt>
      <trkpt lat="43.409196" lon="-3.797397">
        <ele>17.834</ele>
        <time>2019-06-16T15:55:52Z</time>
      </trkpt>
      <trkpt lat="43.409140" lon="-3.797554">
        <ele>18.122</ele>
        <time>2019-06-16T15:55:53Z</time>
      </trkpt>
      <trkpt lat="43.409088" lon="-3.797687">
        <ele>18.362</ele>
        <time>2019-06-16T15:55:54Z</time>
      </trkpt>
      <trkpt lat="43.409042" lon="-3.797834">
        <ele>18.708</ele>
        <time>2019-06-16T15:55:55Z</time>
      </trkpt>
      <trkpt lat="43.408990" lon="-3.797976">
        <ele>19.408</ele>
        <time>2019-06-16T15:55:56Z</time>
      </trkpt>
      <trkpt lat="43.408942" lon="-3.798145">
        <ele>20.135</ele>
        <time>2019-06-16T15:55:57Z</time>
      </trkpt>
      <trkpt lat="43.408910" lon="-3.798287">
        <ele>20.719</ele>
        <time>2019-06-16T15:55:58Z</time>
      </trkpt>
      <trkpt lat="43.408854" lon="-3.798461">
        <ele>21.019</ele>
        <time>2019-06-16T15:55:59Z</time>
      </trkpt>
      <trkpt lat="43.408805" lon="-3.798647">
        <ele>21.063</ele>
        <time>2019-06-16T15:56:00Z</time>
      </trkpt>
      <trkpt lat="43.408733" lon="-3.798824">
        <ele>20.682</ele>
        <time>2019-06-16T15:56:01Z</time>
      </trkpt>
      <trkpt lat="43.408667" lon="-3.798991">
        <ele>20.132</ele>
        <time>2019-06-16T15:56:02Z</time>
      </trkpt>
      <trkpt lat="43.408594" lon="-3.799156">
        <ele>20.078</ele>
        <time>2019-06-16T15:56:03Z</time>
      </trkpt>
      <trkpt lat="43.408525" lon="-3.799312">
        <ele>20.017</ele>
        <time>2019-06-16T15:56:04Z</time>
      </trkpt>
      <trkpt lat="43.408458" lon="-3.799460">
        <ele>19.949</ele>
        <time>2019-06-16T15:56:05Z</time>
      </trkpt>
      <trkpt lat="43.408393" lon="-3.799609">
        <ele>19.402</ele>
        <time>2019-06-16T15:56:06Z</time>
      </trkpt>
      <trkpt lat="43.408322" lon="-3.799759">
        <ele>19.022</ele>
        <time>2019-06-16T15:56:07Z</time>
      </trkpt>
      <trkpt lat="43.408276" lon="-3.799916">
        <ele>19.108</ele>
        <time>2019-06-16T15:56:08Z</time>
      </trkpt>
      <trkpt lat="43.408225" lon="-3.800062">
        <ele>18.997</ele>
        <time>2019-06-16T15:56:09Z</time>
      </trkpt>
      <trkpt lat="43.408200" lon="-3.800228">
        <ele>18.671</ele>
        <time>2019-06-16T15:56:10Z</time>
      </trkpt>
      <trkpt lat="43.408152" lon="-3.800393">
        <ele>18.271</ele>
        <time>2019-06-16T15:56:11Z</time>
      </trkpt>
      <trkpt lat="43.408127" lon="-3.800604">
        <ele>17.665</ele>
        <time>2019-06-16T15:56:12Z</time>
      </trkpt>
      <trkpt lat="43.408078" lon="-3.800807">
        <ele>17.064</ele>
        <time>2019-06-16T15:56:13Z</time>
      </trkpt>
      <trkpt lat="43.408051" lon="-3.801007">
        <ele>16.444</ele>
        <time>2019-06-16T15:56:14Z</time>
      </trkpt>
      <trkpt lat="43.408044" lon="-3.801224">
        <ele>16.120</ele>
        <time>2019-06-16T15:56:15Z</time>
      </trkpt>
      <trkpt lat="43.408034" lon="-3.801433">
        <ele>16.149</ele>
        <time>2019-06-16T15:56:16Z</time>
      </trkpt>
      <trkpt lat="43.408012" lon="-3.801647">
        <ele>15.719</ele>
        <time>2019-06-16T15:56:17Z</time>
      </trkpt>
      <trkpt lat="43.407979" lon="-3.801850">
        <ele>15.709</ele>
        <time>2019-06-16T15:56:18Z</time>
      </trkpt>
      <trkpt lat="43.407915" lon="-3.802031">
        <ele>16.019</ele>
        <time>2019-06-16T15:56:19Z</time>
      </trkpt>
      <trkpt lat="43.407889" lon="-3.802208">
        <ele>16.208</ele>
        <time>2019-06-16T15:56:20Z</time>
      </trkpt>
      <trkpt lat="43.407867" lon="-3.802394">
        <ele>15.774</ele>
        <time>2019-06-16T15:56:21Z</time>
      </trkpt>
      <trkpt lat="43.407843" lon="-3.802593">
        <ele>15.398</ele>
        <time>2019-06-16T15:56:22Z</time>
      </trkpt>
      <trkpt lat="43.407836" lon="-3.802782">
        <ele>14.818</ele>
        <time>2019-06-16T15:56:23Z</time>
      </trkpt>
      <trkpt lat="43.407854" lon="-3.802983">
        <ele>14.592</ele>
        <time>2019-06-16T15:56:24Z</time>
      </trkpt>
      <trkpt lat="43.407854" lon="-3.803186">
        <ele>14.991</ele>
        <time>2019-06-16T15:56:25Z</time>
      </trkpt>
      <trkpt lat="43.407860" lon="-3.803389">
        <ele>15.561</ele>
        <time>2019-06-16T15:56:26Z</time>
      </trkpt>
      <trkpt lat="43.407880" lon="-3.803578">
        <ele>15.877</ele>
        <time>2019-06-16T15:56:27Z</time>
      </trkpt>
      <trkpt lat="43.407882" lon="-3.803792">
        <ele>16.176</ele>
        <time>2019-06-16T15:56:28Z</time>
      </trkpt>
      <trkpt lat="43.407870" lon="-3.804040">
        <ele>16.331</ele>
        <time>2019-06-16T15:56:29Z</time>
      </trkpt>
      <trkpt lat="43.407870" lon="-3.804241">
        <ele>16.461</ele>
        <time>2019-06-16T15:56:30Z</time>
      </trkpt>
      <trkpt lat="43.407871" lon="-3.804438">
        <ele>16.707</ele>
        <time>2019-06-16T15:56:31Z</time>
      </trkpt>
      <trkpt lat="43.407854" lon="-3.804640">
        <ele>16.708</ele>
        <time>2019-06-16T15:56:32Z</time>
      </trkpt>
      <trkpt lat="43.407842" lon="-3.804800">
        <ele>17.056</ele>
        <time>2019-06-16T15:56:33Z</time>
      </trkpt>
      <trkpt lat="43.407822" lon="-3.804990">
        <ele>17.850</ele>
        <time>2019-06-16T15:56:34Z</time>
      </trkpt>
      <trkpt lat="43.407775" lon="-3.805178">
        <ele>17.470</ele>
        <time>2019-06-16T15:56:35Z</time>
      </trkpt>
      <trkpt lat="43.407746" lon="-3.805311">
        <ele>17.434</ele>
        <time>2019-06-16T15:56:36Z</time>
      </trkpt>
      <trkpt lat="43.407707" lon="-3.805493">
        <ele>17.833</ele>
        <time>2019-06-16T15:56:37Z</time>
      </trkpt>
      <trkpt lat="43.407665" lon="-3.805687">
        <ele>17.653</ele>
        <time>2019-06-16T15:56:38Z</time>
      </trkpt>
      <trkpt lat="43.407640" lon="-3.805848">
        <ele>16.939</ele>
        <time>2019-06-16T15:56:39Z</time>
      </trkpt>
      <trkpt lat="43.407606" lon="-3.806017">
        <ele>16.448</ele>
        <time>2019-06-16T15:56:40Z</time>
      </trkpt>
      <trkpt lat="43.407567" lon="-3.806181">
        <ele>15.984</ele>
        <time>2019-06-16T15:56:41Z</time>
      </trkpt>
      <trkpt lat="43.407534" lon="-3.806364">
        <ele>15.907</ele>
        <time>2019-06-16T15:56:42Z</time>
      </trkpt>
      <trkpt lat="43.407487" lon="-3.806539">
        <ele>15.617</ele>
        <time>2019-06-16T15:56:43Z</time>
      </trkpt>
      <trkpt lat="43.407448" lon="-3.806720">
        <ele>16.108</ele>
        <time>2019-06-16T15:56:44Z</time>
      </trkpt>
      <trkpt lat="43.407396" lon="-3.806896">
        <ele>17.181</ele>
        <time>2019-06-16T15:56:45Z</time>
      </trkpt>
      <trkpt lat="43.407341" lon="-3.807052">
        <ele>17.615</ele>
        <time>2019-06-16T15:56:46Z</time>
      </trkpt>
      <trkpt lat="43.407286" lon="-3.807220">
        <ele>18.175</ele>
        <time>2019-06-16T15:56:47Z</time>
      </trkpt>
      <trkpt lat="43.407232" lon="-3.807377">
        <ele>18.399</ele>
        <time>2019-06-16T15:56:48Z</time>
      </trkpt>
      <trkpt lat="43.407169" lon="-3.807519">
        <ele>18.968</ele>
        <time>2019-06-16T15:56:49Z</time>
      </trkpt>
      <trkpt lat="43.407099" lon="-3.807673">
        <ele>19.038</ele>
        <time>2019-06-16T15:56:50Z</time>
      </trkpt>
      <trkpt lat="43.407029" lon="-3.807830">
        <ele>18.914</ele>
        <time>2019-06-16T15:56:51Z</time>
      </trkpt>
      <trkpt lat="43.406964" lon="-3.807991">
        <ele>19.053</ele>
        <time>2019-06-16T15:56:52Z</time>
      </trkpt>
      <trkpt lat="43.406902" lon="-3.808162">
        <ele>18.855</ele>
        <time>2019-06-16T15:56:53Z</time>
      </trkpt>
      <trkpt lat="43.406834" lon="-3.808330">
        <ele>18.207</ele>
        <time>2019-06-16T15:56:54Z</time>
      </trkpt>
      <trkpt lat="43.406765" lon="-3.808486">
        <ele>17.817</ele>
        <time>2019-06-16T15:56:55Z</time>
      </trkpt>
      <trkpt lat="43.406687" lon="-3.808650">
        <ele>17.608</ele>
        <time>2019-06-16T15:56:56Z</time>
      </trkpt>
      <trkpt lat="43.406618" lon="-3.808806">
        <ele>17.888</ele>
        <time>2019-06-16T15:56:57Z</time>
      </trkpt>
      <trkpt lat="43.406540" lon="-3.808953">
        <ele>17.362</ele>
        <time>2019-06-16T15:56:58Z</time>
      </trkpt>
      <trkpt lat="43.406458" lon="-3.809094">
        <ele>16.512</ele>
        <time>2019-06-16T15:56:59Z</time>
      </trkpt>
      <trkpt lat="43.406371" lon="-3.809230">
        <ele>15.856</ele>
        <time>2019-06-16T15:57:00Z</time>
      </trkpt>
      <trkpt lat="43.406272" lon="-3.809359">
        <ele>15.745</ele>
        <time>2019-06-16T15:57:01Z</time>
      </trkpt>
      <trkpt lat="43.406184" lon="-3.809487">
        <ele>15.175</ele>
        <time>2019-06-16T15:57:02Z</time>
      </trkpt>
      <trkpt lat="43.406097" lon="-3.809615">
        <ele>14.921</ele>
        <time>2019-06-16T15:57:03Z</time>
      </trkpt>
      <trkpt lat="43.406021" lon="-3.809734">
        <ele>14.950</ele>
        <time>2019-06-16T15:57:04Z</time>
      </trkpt>
      <trkpt lat="43.405958" lon="-3.809842">
        <ele>14.846</ele>
        <time>2019-06-16T15:57:05Z</time>
      </trkpt>
      <trkpt lat="43.405925" lon="-3.809911">
        <ele>14.788</ele>
        <time>2019-06-16T15:57:06Z</time>
      </trkpt>
      <trkpt lat="43.405884" lon="-3.810025">
        <ele>14.416</ele>
        <time>2019-06-16T15:57:08Z</time>
      </trkpt>
      <trkpt lat="43.405849" lon="-3.810114">
        <ele>14.808</ele>
        <time>2019-06-16T15:57:09Z</time>
      </trkpt>
      <trkpt lat="43.405815" lon="-3.810223">
        <ele>15.277</ele>
        <time>2019-06-16T15:57:10Z</time>
      </trkpt>
      <trkpt lat="43.405778" lon="-3.810329">
        <ele>15.281</ele>
        <time>2019-06-16T15:57:11Z</time>
      </trkpt>
      <trkpt lat="43.405733" lon="-3.810447">
        <ele>14.941</ele>
        <time>2019-06-16T15:57:12Z</time>
      </trkpt>
      <trkpt lat="43.405678" lon="-3.810587">
        <ele>14.575</ele>
        <time>2019-06-16T15:57:13Z</time>
      </trkpt>
      <trkpt lat="43.405617" lon="-3.810733">
        <ele>14.464</ele>
        <time>2019-06-16T15:57:14Z</time>
      </trkpt>
      <trkpt lat="43.405531" lon="-3.810903">
        <ele>14.244</ele>
        <time>2019-06-16T15:57:15Z</time>
      </trkpt>
      <trkpt lat="43.405444" lon="-3.811055">
        <ele>13.370</ele>
        <time>2019-06-16T15:57:16Z</time>
      </trkpt>
      <trkpt lat="43.405355" lon="-3.811212">
        <ele>13.119</ele>
        <time>2019-06-16T15:57:17Z</time>
      </trkpt>
      <trkpt lat="43.405264" lon="-3.811362">
        <ele>13.441</ele>
        <time>2019-06-16T15:57:18Z</time>
      </trkpt>
      <trkpt lat="43.405172" lon="-3.811512">
        <ele>13.081</ele>
        <time>2019-06-16T15:57:19Z</time>
      </trkpt>
      <trkpt lat="43.405079" lon="-3.811670">
        <ele>12.109</ele>
        <time>2019-06-16T15:57:20Z</time>
      </trkpt>
      <trkpt lat="43.404985" lon="-3.811832">
        <ele>11.408</ele>
        <time>2019-06-16T15:57:21Z</time>
      </trkpt>
      <trkpt lat="43.404883" lon="-3.811994">
        <ele>10.867</ele>
        <time>2019-06-16T15:57:22Z</time>
      </trkpt>
      <trkpt lat="43.404795" lon="-3.812128">
        <ele>10.741</ele>
        <time>2019-06-16T15:57:23Z</time>
      </trkpt>
      <trkpt lat="43.404701" lon="-3.812273">
        <ele>10.731</ele>
        <time>2019-06-16T15:57:24Z</time>
      </trkpt>
      <trkpt lat="43.404606" lon="-3.812410">
        <ele>10.545</ele>
        <time>2019-06-16T15:57:25Z</time>
      </trkpt>
      <trkpt lat="43.404509" lon="-3.812543">
        <ele>10.224</ele>
        <time>2019-06-16T15:57:26Z</time>
      </trkpt>
      <trkpt lat="43.404408" lon="-3.812669">
        <ele>10.054</ele>
        <time>2019-06-16T15:57:27Z</time>
      </trkpt>
      <trkpt lat="43.404313" lon="-3.812784">
        <ele>9.420</ele>
        <time>2019-06-16T15:57:28Z</time>
      </trkpt>
      <trkpt lat="43.404209" lon="-3.812907">
        <ele>9.239</ele>
        <time>2019-06-16T15:57:29Z</time>
      </trkpt>
      <trkpt lat="43.404109" lon="-3.813029">
        <ele>8.359</ele>
        <time>2019-06-16T15:57:30Z</time>
      </trkpt>
      <trkpt lat="43.404005" lon="-3.813143">
        <ele>6.803</ele>
        <time>2019-06-16T15:57:31Z</time>
      </trkpt>
      <trkpt lat="43.403882" lon="-3.813253">
        <ele>5.923</ele>
        <time>2019-06-16T15:57:32Z</time>
      </trkpt>
      <trkpt lat="43.403753" lon="-3.813343">
        <ele>4.808</ele>
        <time>2019-06-16T15:57:33Z</time>
      </trkpt>
      <trkpt lat="43.403616" lon="-3.813416">
        <ele>3.538</ele>
        <time>2019-06-16T15:57:34Z</time>
      </trkpt>
      <trkpt lat="43.403471" lon="-3.813458">
        <ele>2.782</ele>
        <time>2019-06-16T15:57:35Z</time>
      </trkpt>
      <trkpt lat="43.403317" lon="-3.813479">
        <ele>2.442</ele>
        <time>2019-06-16T15:57:36Z</time>
      </trkpt>
      <trkpt lat="43.403160" lon="-3.813475">
        <ele>2.226</ele>
        <time>2019-06-16T15:57:37Z</time>
      </trkpt>
      <trkpt lat="43.403009" lon="-3.813450">
        <ele>2.295</ele>
        <time>2019-06-16T15:57:38Z</time>
      </trkpt>
      <trkpt lat="43.402850" lon="-3.813385">
        <ele>2.755</ele>
        <time>2019-06-16T15:57:39Z</time>
      </trkpt>
      <trkpt lat="43.402694" lon="-3.813307">
        <ele>2.381</ele>
        <time>2019-06-16T15:57:40Z</time>
      </trkpt>
      <trkpt lat="43.402530" lon="-3.813184">
        <ele>2.310</ele>
        <time>2019-06-16T15:57:41Z</time>
      </trkpt>
      <trkpt lat="43.402366" lon="-3.813064">
        <ele>2.596</ele>
        <time>2019-06-16T15:57:42Z</time>
      </trkpt>
      <trkpt lat="43.402200" lon="-3.812937">
        <ele>2.231</ele>
        <time>2019-06-16T15:57:43Z</time>
      </trkpt>
      <trkpt lat="43.402029" lon="-3.812813">
        <ele>2.324</ele>
        <time>2019-06-16T15:57:44Z</time>
      </trkpt>
      <trkpt lat="43.401855" lon="-3.812680">
        <ele>2.208</ele>
        <time>2019-06-16T15:57:45Z</time>
      </trkpt>
      <trkpt lat="43.401686" lon="-3.812559">
        <ele>2.432</ele>
        <time>2019-06-16T15:57:46Z</time>
      </trkpt>
      <trkpt lat="43.401526" lon="-3.812431">
        <ele>2.036</ele>
        <time>2019-06-16T15:57:47Z</time>
      </trkpt>
      <trkpt lat="43.401368" lon="-3.812310">
        <ele>1.946</ele>
        <time>2019-06-16T15:57:48Z</time>
      </trkpt>
      <trkpt lat="43.401218" lon="-3.812203">
        <ele>1.970</ele>
        <time>2019-06-16T15:57:49Z</time>
      </trkpt>
      <trkpt lat="43.401072" lon="-3.812114">
        <ele>2.049</ele>
        <time>2019-06-16T15:57:50Z</time>
      </trkpt>
      <trkpt lat="43.400941" lon="-3.812014">
        <ele>2.289</ele>
        <time>2019-06-16T15:57:51Z</time>
      </trkpt>
      <trkpt lat="43.400819" lon="-3.811932">
        <ele>2.045</ele>
        <time>2019-06-16T15:57:52Z</time>
      </trkpt>
      <trkpt lat="43.400708" lon="-3.811857">
        <ele>2.234</ele>
        <time>2019-06-16T15:57:53Z</time>
      </trkpt>
      <trkpt lat="43.400571" lon="-3.811800">
        <ele>2.636</ele>
        <time>2019-06-16T15:57:54Z</time>
      </trkpt>
      <trkpt lat="43.400435" lon="-3.811769">
        <ele>3.217</ele>
        <time>2019-06-16T15:57:55Z</time>
      </trkpt>
      <trkpt lat="43.400299" lon="-3.811774">
        <ele>3.118</ele>
        <time>2019-06-16T15:57:56Z</time>
      </trkpt>
      <trkpt lat="43.400126" lon="-3.811808">
        <ele>1.708</ele>
        <time>2019-06-16T15:57:57Z</time>
      </trkpt>
      <trkpt lat="43.399996" lon="-3.811894">
        <ele>1.056</ele>
        <time>2019-06-16T15:57:58Z</time>
      </trkpt>
      <trkpt lat="43.399864" lon="-3.811982">
        <ele>0.490</ele>
        <time>2019-06-16T15:57:59Z</time>
      </trkpt>
      <trkpt lat="43.399740" lon="-3.812109">
        <ele>0.060</ele>
        <time>2019-06-16T15:58:00Z</time>
      </trkpt>
      <trkpt lat="43.399648" lon="-3.812289">
        <ele>0.044</ele>
        <time>2019-06-16T15:58:01Z</time>
      </trkpt>
      <trkpt lat="43.399574" lon="-3.812481">
        <ele>0.093</ele>
        <time>2019-06-16T15:58:02Z</time>
      </trkpt>
      <trkpt lat="43.399509" lon="-3.812683">
        <ele>0.093</ele>
        <time>2019-06-16T15:58:03Z</time>
      </trkpt>
      <trkpt lat="43.399450" lon="-3.812886">
        <ele>0.019</ele>
        <time>2019-06-16T15:58:04Z</time>
      </trkpt>
      <trkpt lat="43.399390" lon="-3.813084">
        <ele>0.128</ele>
        <time>2019-06-16T15:58:05Z</time>
      </trkpt>
      <trkpt lat="43.399327" lon="-3.813272">
        <ele>0.549</ele>
        <time>2019-06-16T15:58:06Z</time>
      </trkpt>
      <trkpt lat="43.399267" lon="-3.813459">
        <ele>0.702</ele>
        <time>2019-06-16T15:58:07Z</time>
      </trkpt>
      <trkpt lat="43.399223" lon="-3.813645">
        <ele>1.122</ele>
        <time>2019-06-16T15:58:08Z</time>
      </trkpt>
      <trkpt lat="43.399171" lon="-3.813825">
        <ele>3.808</ele>
        <time>2019-06-16T15:58:09Z</time>
      </trkpt>
      <trkpt lat="43.399113" lon="-3.814010">
        <ele>4.557</ele>
        <time>2019-06-16T15:58:10Z</time>
      </trkpt>
      <trkpt lat="43.399071" lon="-3.814161">
        <ele>4.751</ele>
        <time>2019-06-16T15:58:11Z</time>
      </trkpt>
      <trkpt lat="43.399036" lon="-3.814302">
        <ele>4.931</ele>
        <time>2019-06-16T15:58:12Z</time>
      </trkpt>
      <trkpt lat="43.399007" lon="-3.814406">
        <ele>5.485</ele>
        <time>2019-06-16T15:58:13Z</time>
      </trkpt>
      <trkpt lat="43.398989" lon="-3.814508">
        <ele>5.824</ele>
        <time>2019-06-16T15:58:14Z</time>
      </trkpt>
      <trkpt lat="43.398972" lon="-3.814598">
        <ele>6.044</ele>
        <time>2019-06-16T15:58:15Z</time>
      </trkpt>
      <trkpt lat="43.398964" lon="-3.814703">
        <ele>6.010</ele>
        <time>2019-06-16T15:58:16Z</time>
      </trkpt>
      <trkpt lat="43.398932" lon="-3.814786">
        <ele>6.159</ele>
        <time>2019-06-16T15:58:17Z</time>
      </trkpt>
      <trkpt lat="43.398887" lon="-3.814848">
        <ele>6.171</ele>
        <time>2019-06-16T15:58:18Z</time>
      </trkpt>
      <trkpt lat="43.398832" lon="-3.814894">
        <ele>5.641</ele>
        <time>2019-06-16T15:58:19Z</time>
      </trkpt>
      <trkpt lat="43.398781" lon="-3.814902">
        <ele>5.315</ele>
        <time>2019-06-16T15:58:20Z</time>
      </trkpt>
      <trkpt lat="43.398735" lon="-3.814886">
        <ele>5.308</ele>
        <time>2019-06-16T15:58:21Z</time>
      </trkpt>
      <trkpt lat="43.398694" lon="-3.814846">
        <ele>5.460</ele>
        <time>2019-06-16T15:58:22Z</time>
      </trkpt>
      <trkpt lat="43.398656" lon="-3.814799">
        <ele>5.664</ele>
        <time>2019-06-16T15:58:23Z</time>
      </trkpt>
      <trkpt lat="43.398631" lon="-3.814743">
        <ele>5.934</ele>
        <time>2019-06-16T15:58:24Z</time>
      </trkpt>
      <trkpt lat="43.398615" lon="-3.814678">
        <ele>6.298</ele>
        <time>2019-06-16T15:58:25Z</time>
      </trkpt>
      <trkpt lat="43.398612" lon="-3.814596">
        <ele>6.577</ele>
        <time>2019-06-16T15:58:26Z</time>
      </trkpt>
      <trkpt lat="43.398619" lon="-3.814500">
        <ele>6.827</ele>
        <time>2019-06-16T15:58:27Z</time>
      </trkpt>
      <trkpt lat="43.398645" lon="-3.814442">
        <ele>7.193</ele>
        <time>2019-06-16T15:58:28Z</time>
      </trkpt>
      <trkpt lat="43.398683" lon="-3.814395">
        <ele>6.922</ele>
        <time>2019-06-16T15:58:29Z</time>
      </trkpt>
      <trkpt lat="43.398736" lon="-3.814357">
        <ele>6.819</ele>
        <time>2019-06-16T15:58:30Z</time>
      </trkpt>
      <trkpt lat="43.398804" lon="-3.814352">
        <ele>7.009</ele>
        <time>2019-06-16T15:58:31Z</time>
      </trkpt>
      <trkpt lat="43.398862" lon="-3.814360">
        <ele>7.319</ele>
        <time>2019-06-16T15:58:32Z</time>
      </trkpt>
      <trkpt lat="43.398916" lon="-3.814448">
        <ele>7.408</ele>
        <time>2019-06-16T15:58:34Z</time>
      </trkpt>
      <trkpt lat="43.398935" lon="-3.814513">
        <ele>6.814</ele>
        <time>2019-06-16T15:58:35Z</time>
      </trkpt>
      <trkpt lat="43.398950" lon="-3.814582">
        <ele>6.468</ele>
        <time>2019-06-16T15:58:36Z</time>
      </trkpt>
      <trkpt lat="43.398939" lon="-3.814661">
        <ele>6.488</ele>
        <time>2019-06-16T15:58:37Z</time>
      </trkpt>
      <trkpt lat="43.398924" lon="-3.814725">
        <ele>6.552</ele>
        <time>2019-06-16T15:58:38Z</time>
      </trkpt>
      <trkpt lat="43.398857" lon="-3.814808">
        <ele>6.351</ele>
        <time>2019-06-16T15:58:40Z</time>
      </trkpt>
      <trkpt lat="43.398807" lon="-3.814821">
        <ele>6.031</ele>
        <time>2019-06-16T15:58:41Z</time>
      </trkpt>
      <trkpt lat="43.398750" lon="-3.814810">
        <ele>5.937</ele>
        <time>2019-06-16T15:58:42Z</time>
      </trkpt>
      <trkpt lat="43.398697" lon="-3.814773">
        <ele>5.986</ele>
        <time>2019-06-16T15:58:43Z</time>
      </trkpt>
      <trkpt lat="43.398638" lon="-3.814715">
        <ele>6.175</ele>
        <time>2019-06-16T15:58:44Z</time>
      </trkpt>
      <trkpt lat="43.398572" lon="-3.814660">
        <ele>6.028</ele>
        <time>2019-06-16T15:58:45Z</time>
      </trkpt>
      <trkpt lat="43.398498" lon="-3.814614">
        <ele>5.720</ele>
        <time>2019-06-16T15:58:46Z</time>
      </trkpt>
      <trkpt lat="43.398419" lon="-3.814598">
        <ele>5.408</ele>
        <time>2019-06-16T15:58:47Z</time>
      </trkpt>
      <trkpt lat="43.398318" lon="-3.814573">
        <ele>5.060</ele>
        <time>2019-06-16T15:58:48Z</time>
      </trkpt>
      <trkpt lat="43.398206" lon="-3.814546">
        <ele>4.714</ele>
        <time>2019-06-16T15:58:49Z</time>
      </trkpt>
      <trkpt lat="43.398095" lon="-3.814510">
        <ele>4.274</ele>
        <time>2019-06-16T15:58:50Z</time>
      </trkpt>
      <trkpt lat="43.397976" lon="-3.814440">
        <ele>4.028</ele>
        <time>2019-06-16T15:58:51Z</time>
      </trkpt>
      <trkpt lat="43.397855" lon="-3.814370">
        <ele>4.177</ele>
        <time>2019-06-16T15:58:52Z</time>
      </trkpt>
      <trkpt lat="43.397732" lon="-3.814312">
        <ele>4.147</ele>
        <time>2019-06-16T15:58:53Z</time>
      </trkpt>
      <trkpt lat="43.397599" lon="-3.814266">
        <ele>4.493</ele>
        <time>2019-06-16T15:58:54Z</time>
      </trkpt>
      <trkpt lat="43.397469" lon="-3.814243">
        <ele>4.952</ele>
        <time>2019-06-16T15:58:55Z</time>
      </trkpt>
      <trkpt lat="43.397340" lon="-3.814241">
        <ele>5.483</ele>
        <time>2019-06-16T15:58:56Z</time>
      </trkpt>
      <trkpt lat="43.397201" lon="-3.814256">
        <ele>5.625</ele>
        <time>2019-06-16T15:58:57Z</time>
      </trkpt>
      <trkpt lat="43.397052" lon="-3.814304">
        <ele>4.117</ele>
        <time>2019-06-16T15:58:58Z</time>
      </trkpt>
      <trkpt lat="43.396904" lon="-3.814354">
        <ele>3.408</ele>
        <time>2019-06-16T15:58:59Z</time>
      </trkpt>
      <trkpt lat="43.396748" lon="-3.814423">
        <ele>3.741</ele>
        <time>2019-06-16T15:59:00Z</time>
      </trkpt>
      <trkpt lat="43.396591" lon="-3.814486">
        <ele>4.435</ele>
        <time>2019-06-16T15:59:01Z</time>
      </trkpt>
      <trkpt lat="43.396433" lon="-3.814542">
        <ele>5.255</ele>
        <time>2019-06-16T15:59:02Z</time>
      </trkpt>
      <trkpt lat="43.396269" lon="-3.814604">
        <ele>6.329</ele>
        <time>2019-06-16T15:59:03Z</time>
      </trkpt>
      <trkpt lat="43.396104" lon="-3.814652">
        <ele>7.538</ele>
        <time>2019-06-16T15:59:04Z</time>
      </trkpt>
      <trkpt lat="43.395944" lon="-3.814710">
        <ele>7.988</ele>
        <time>2019-06-16T15:59:05Z</time>
      </trkpt>
      <trkpt lat="43.395783" lon="-3.814773">
        <ele>7.514</ele>
        <time>2019-06-16T15:59:06Z</time>
      </trkpt>
      <trkpt lat="43.395636" lon="-3.814827">
        <ele>6.523</ele>
        <time>2019-06-16T15:59:07Z</time>
      </trkpt>
      <trkpt lat="43.395486" lon="-3.814883">
        <ele>5.661</ele>
        <time>2019-06-16T15:59:08Z</time>
      </trkpt>
      <trkpt lat="43.395344" lon="-3.814938">
        <ele>5.121</ele>
        <time>2019-06-16T15:59:09Z</time>
      </trkpt>
      <trkpt lat="43.395216" lon="-3.814976">
        <ele>5.213</ele>
        <time>2019-06-16T15:59:10Z</time>
      </trkpt>
      <trkpt lat="43.395079" lon="-3.815033">
        <ele>5.508</ele>
        <time>2019-06-16T15:59:11Z</time>
      </trkpt>
      <trkpt lat="43.394962" lon="-3.815097">
        <ele>5.359</ele>
        <time>2019-06-16T15:59:12Z</time>
      </trkpt>
      <trkpt lat="43.394849" lon="-3.815154">
        <ele>5.083</ele>
        <time>2019-06-16T15:59:13Z</time>
      </trkpt>
      <trkpt lat="43.394733" lon="-3.815215">
        <ele>5.043</ele>
        <time>2019-06-16T15:59:14Z</time>
      </trkpt>
      <trkpt lat="43.394637" lon="-3.815294">
        <ele>5.047</ele>
        <time>2019-06-16T15:59:15Z</time>
      </trkpt>
      <trkpt lat="43.394575" lon="-3.815332">
        <ele>5.066</ele>
        <time>2019-06-16T15:59:16Z</time>
      </trkpt>
      <trkpt lat="43.394506" lon="-3.815409">
        <ele>5.026</ele>
        <time>2019-06-16T15:59:17Z</time>
      </trkpt>
      <trkpt lat="43.394449" lon="-3.815504">
        <ele>5.012</ele>
        <time>2019-06-16T15:59:18Z</time>
      </trkpt>
      <trkpt lat="43.394416" lon="-3.815612">
        <ele>4.811</ele>
        <time>2019-06-16T15:59:19Z</time>
      </trkpt>
      <trkpt lat="43.394364" lon="-3.815695">
        <ele>4.527</ele>
        <time>2019-06-16T15:59:20Z</time>
      </trkpt>
      <trkpt lat="43.394290" lon="-3.815736">
        <ele>4.368</ele>
        <time>2019-06-16T15:59:21Z</time>
      </trkpt>
      <trkpt lat="43.394207" lon="-3.815777">
        <ele>4.214</ele>
        <time>2019-06-16T15:59:22Z</time>
      </trkpt>
      <trkpt lat="43.394140" lon="-3.815764">
        <ele>4.208</ele>
        <time>2019-06-16T15:59:23Z</time>
      </trkpt>
      <trkpt lat="43.394063" lon="-3.815742">
        <ele>4.335</ele>
        <time>2019-06-16T15:59:24Z</time>
      </trkpt>
      <trkpt lat="43.394012" lon="-3.815670">
        <ele>4.649</ele>
        <time>2019-06-16T15:59:25Z</time>
      </trkpt>
      <trkpt lat="43.393940" lon="-3.815600">
        <ele>4.889</ele>
        <time>2019-06-16T15:59:26Z</time>
      </trkpt>
      <trkpt lat="43.393868" lon="-3.815564">
        <ele>4.913</ele>
        <time>2019-06-16T15:59:27Z</time>
      </trkpt>
      <trkpt lat="43.393790" lon="-3.815546">
        <ele>4.652</ele>
        <time>2019-06-16T15:59:28Z</time>
      </trkpt>
      <trkpt lat="43.393696" lon="-3.815523">
        <ele>4.332</ele>
        <time>2019-06-16T15:59:29Z</time>
      </trkpt>
      <trkpt lat="43.393600" lon="-3.815498">
        <ele>4.048</ele>
        <time>2019-06-16T15:59:30Z</time>
      </trkpt>
      <trkpt lat="43.393493" lon="-3.815467">
        <ele>4.057</ele>
        <time>2019-06-16T15:59:31Z</time>
      </trkpt>
      <trkpt lat="43.393387" lon="-3.815433">
        <ele>4.046</ele>
        <time>2019-06-16T15:59:32Z</time>
      </trkpt>
      <trkpt lat="43.393280" lon="-3.815389">
        <ele>4.188</ele>
        <time>2019-06-16T15:59:33Z</time>
      </trkpt>
      <trkpt lat="43.393154" lon="-3.815349">
        <ele>4.516</ele>
        <time>2019-06-16T15:59:34Z</time>
      </trkpt>
      <trkpt lat="43.393030" lon="-3.815295">
        <ele>4.708</ele>
        <time>2019-06-16T15:59:35Z</time>
      </trkpt>
      <trkpt lat="43.392899" lon="-3.815238">
        <ele>3.687</ele>
        <time>2019-06-16T15:59:36Z</time>
      </trkpt>
      <trkpt lat="43.392767" lon="-3.815183">
        <ele>2.971</ele>
        <time>2019-06-16T15:59:37Z</time>
      </trkpt>
      <trkpt lat="43.392631" lon="-3.815140">
        <ele>2.291</ele>
        <time>2019-06-16T15:59:38Z</time>
      </trkpt>
      <trkpt lat="43.392496" lon="-3.815081">
        <ele>1.475</ele>
        <time>2019-06-16T15:59:39Z</time>
      </trkpt>
      <trkpt lat="43.392359" lon="-3.815026">
        <ele>1.834</ele>
        <time>2019-06-16T15:59:40Z</time>
      </trkpt>
      <trkpt lat="43.392221" lon="-3.814973">
        <ele>2.094</ele>
        <time>2019-06-16T15:59:41Z</time>
      </trkpt>
      <trkpt lat="43.392092" lon="-3.814917">
        <ele>2.480</ele>
        <time>2019-06-16T15:59:42Z</time>
      </trkpt>
      <trkpt lat="43.391971" lon="-3.814861">
        <ele>3.459</ele>
        <time>2019-06-16T15:59:43Z</time>
      </trkpt>
      <trkpt lat="43.391842" lon="-3.814826">
        <ele>4.288</ele>
        <time>2019-06-16T15:59:44Z</time>
      </trkpt>
      <trkpt lat="43.391723" lon="-3.814797">
        <ele>5.024</ele>
        <time>2019-06-16T15:59:45Z</time>
      </trkpt>
      <trkpt lat="43.391612" lon="-3.814756">
        <ele>5.526</ele>
        <time>2019-06-16T15:59:46Z</time>
      </trkpt>
      <trkpt lat="43.391498" lon="-3.814717">
        <ele>5.408</ele>
        <time>2019-06-16T15:59:47Z</time>
      </trkpt>
      <trkpt lat="43.391399" lon="-3.814694">
        <ele>5.231</ele>
        <time>2019-06-16T15:59:48Z</time>
      </trkpt>
      <trkpt lat="43.391288" lon="-3.814643">
        <ele>5.815</ele>
        <time>2019-06-16T15:59:49Z</time>
      </trkpt>
      <trkpt lat="43.391209" lon="-3.814632">
        <ele>6.195</ele>
        <time>2019-06-16T15:59:50Z</time>
      </trkpt>
      <trkpt lat="43.391138" lon="-3.814625">
        <ele>6.339</ele>
        <time>2019-06-16T15:59:51Z</time>
      </trkpt>
      <trkpt lat="43.391064" lon="-3.814623">
        <ele>6.668</ele>
        <time>2019-06-16T15:59:52Z</time>
      </trkpt>
      <trkpt lat="43.390992" lon="-3.814623">
        <ele>6.998</ele>
        <time>2019-06-16T15:59:53Z</time>
      </trkpt>
      <trkpt lat="43.390927" lon="-3.814602">
        <ele>7.224</ele>
        <time>2019-06-16T15:59:54Z</time>
      </trkpt>
      <trkpt lat="43.390875" lon="-3.814560">
        <ele>7.353</ele>
        <time>2019-06-16T15:59:55Z</time>
      </trkpt>
      <trkpt lat="43.390837" lon="-3.814498">
        <ele>7.269</ele>
        <time>2019-06-16T15:59:56Z</time>
      </trkpt>
      <trkpt lat="43.390830" lon="-3.814415">
        <ele>7.304</ele>
        <time>2019-06-16T15:59:57Z</time>
      </trkpt>
      <trkpt lat="43.390821" lon="-3.814329">
        <ele>8.324</ele>
        <time>2019-06-16T15:59:58Z</time>
      </trkpt>
      <trkpt lat="43.390860" lon="-3.814258">
        <ele>8.208</ele>
        <time>2019-06-16T15:59:59Z</time>
      </trkpt>
      <trkpt lat="43.390904" lon="-3.814206">
        <ele>8.319</ele>
        <time>2019-06-16T16:00:00Z</time>
      </trkpt>
      <trkpt lat="43.390972" lon="-3.814191">
        <ele>7.993</ele>
        <time>2019-06-16T16:00:01Z</time>
      </trkpt>
      <trkpt lat="43.391038" lon="-3.814179">
        <ele>7.553</ele>
        <time>2019-06-16T16:00:02Z</time>
      </trkpt>
      <trkpt lat="43.391074" lon="-3.814252">
        <ele>7.217</ele>
        <time>2019-06-16T16:00:03Z</time>
      </trkpt>
      <trkpt lat="43.391117" lon="-3.814313">
        <ele>7.016</ele>
        <time>2019-06-16T16:00:04Z</time>
      </trkpt>
      <trkpt lat="43.391148" lon="-3.814379">
        <ele>7.076</ele>
        <time>2019-06-16T16:00:05Z</time>
      </trkpt>
      <trkpt lat="43.391199" lon="-3.814452">
        <ele>7.022</ele>
        <time>2019-06-16T16:00:06Z</time>
      </trkpt>
      <trkpt lat="43.391237" lon="-3.814533">
        <ele>6.511</ele>
        <time>2019-06-16T16:00:07Z</time>
      </trkpt>
      <trkpt lat="43.391294" lon="-3.814630">
        <ele>5.942</ele>
        <time>2019-06-16T16:00:08Z</time>
      </trkpt>
      <trkpt lat="43.391383" lon="-3.814607">
        <ele>5.822</ele>
        <time>2019-06-16T16:00:09Z</time>
      </trkpt>
      <trkpt lat="43.391500" lon="-3.814672">
        <ele>5.514</ele>
        <time>2019-06-16T16:00:10Z</time>
      </trkpt>
      <trkpt lat="43.391597" lon="-3.814715">
        <ele>5.708</ele>
        <time>2019-06-16T16:00:11Z</time>
      </trkpt>
      <trkpt lat="43.391752" lon="-3.814779">
        <ele>5.197</ele>
        <time>2019-06-16T16:00:12Z</time>
      </trkpt>
      <trkpt lat="43.391883" lon="-3.814830">
        <ele>4.111</ele>
        <time>2019-06-16T16:00:13Z</time>
      </trkpt>
      <trkpt lat="43.392007" lon="-3.814897">
        <ele>2.981</ele>
        <time>2019-06-16T16:00:14Z</time>
      </trkpt>
      <trkpt lat="43.392140" lon="-3.814944">
        <ele>2.255</ele>
        <time>2019-06-16T16:00:15Z</time>
      </trkpt>
      <trkpt lat="43.392276" lon="-3.815004">
        <ele>2.014</ele>
        <time>2019-06-16T16:00:16Z</time>
      </trkpt>
      <trkpt lat="43.392394" lon="-3.815046">
        <ele>1.714</ele>
        <time>2019-06-16T16:00:17Z</time>
      </trkpt>
      <trkpt lat="43.392530" lon="-3.815087">
        <ele>1.780</ele>
        <time>2019-06-16T16:00:18Z</time>
      </trkpt>
      <trkpt lat="43.392666" lon="-3.815131">
        <ele>2.689</ele>
        <time>2019-06-16T16:00:19Z</time>
      </trkpt>
      <trkpt lat="43.392800" lon="-3.815167">
        <ele>3.346</ele>
        <time>2019-06-16T16:00:20Z</time>
      </trkpt>
      <trkpt lat="43.392934" lon="-3.815199">
        <ele>4.188</ele>
        <time>2019-06-16T16:00:21Z</time>
      </trkpt>
      <trkpt lat="43.393056" lon="-3.815231">
        <ele>5.016</ele>
        <time>2019-06-16T16:00:22Z</time>
      </trkpt>
      <trkpt lat="43.393169" lon="-3.815257">
        <ele>4.608</ele>
        <time>2019-06-16T16:00:23Z</time>
      </trkpt>
      <trkpt lat="43.393291" lon="-3.815285">
        <ele>4.187</ele>
        <time>2019-06-16T16:00:24Z</time>
      </trkpt>
      <trkpt lat="43.393409" lon="-3.815303">
        <ele>4.021</ele>
        <time>2019-06-16T16:00:25Z</time>
      </trkpt>
      <trkpt lat="43.393524" lon="-3.815321">
        <ele>4.041</ele>
        <time>2019-06-16T16:00:26Z</time>
      </trkpt>
      <trkpt lat="43.393635" lon="-3.815334">
        <ele>4.165</ele>
        <time>2019-06-16T16:00:27Z</time>
      </trkpt>
      <trkpt lat="43.393738" lon="-3.815354">
        <ele>4.534</ele>
        <time>2019-06-16T16:00:28Z</time>
      </trkpt>
      <trkpt lat="43.393829" lon="-3.815372">
        <ele>4.874</ele>
        <time>2019-06-16T16:00:29Z</time>
      </trkpt>
      <trkpt lat="43.393922" lon="-3.815354">
        <ele>5.140</ele>
        <time>2019-06-16T16:00:30Z</time>
      </trkpt>
      <trkpt lat="43.394012" lon="-3.815328">
        <ele>5.469</ele>
        <time>2019-06-16T16:00:31Z</time>
      </trkpt>
      <trkpt lat="43.394088" lon="-3.815289">
        <ele>5.771</ele>
        <time>2019-06-16T16:00:32Z</time>
      </trkpt>
      <trkpt lat="43.394158" lon="-3.815254">
        <ele>5.941</ele>
        <time>2019-06-16T16:00:33Z</time>
      </trkpt>
      <trkpt lat="43.394237" lon="-3.815230">
        <ele>5.615</ele>
        <time>2019-06-16T16:00:34Z</time>
      </trkpt>
      <trkpt lat="43.394304" lon="-3.815235">
        <ele>5.408</ele>
        <time>2019-06-16T16:00:35Z</time>
      </trkpt>
      <trkpt lat="43.394364" lon="-3.815266">
        <ele>5.370</ele>
        <time>2019-06-16T16:00:36Z</time>
      </trkpt>
      <trkpt lat="43.394419" lon="-3.815311">
        <ele>5.114</ele>
        <time>2019-06-16T16:00:37Z</time>
      </trkpt>
      <trkpt lat="43.394441" lon="-3.815414">
        <ele>5.074</ele>
        <time>2019-06-16T16:00:38Z</time>
      </trkpt>
      <trkpt lat="43.394489" lon="-3.815482">
        <ele>5.048</ele>
        <time>2019-06-16T16:00:39Z</time>
      </trkpt>
      <trkpt lat="43.394530" lon="-3.815581">
        <ele>4.997</ele>
        <time>2019-06-16T16:00:40Z</time>
      </trkpt>
      <trkpt lat="43.394597" lon="-3.815652">
        <ele>4.767</ele>
        <time>2019-06-16T16:00:41Z</time>
      </trkpt>
      <trkpt lat="43.394672" lon="-3.815743">
        <ele>4.313</ele>
        <time>2019-06-16T16:00:42Z</time>
      </trkpt>
      <trkpt lat="43.394750" lon="-3.815786">
        <ele>4.232</ele>
        <time>2019-06-16T16:00:43Z</time>
      </trkpt>
      <trkpt lat="43.394829" lon="-3.815882">
        <ele>3.931</ele>
        <time>2019-06-16T16:00:44Z</time>
      </trkpt>
      <trkpt lat="43.394934" lon="-3.815972">
        <ele>3.961</ele>
        <time>2019-06-16T16:00:45Z</time>
      </trkpt>
      <trkpt lat="43.395028" lon="-3.816067">
        <ele>4.107</ele>
        <time>2019-06-16T16:00:46Z</time>
      </trkpt>
      <trkpt lat="43.395087" lon="-3.816179">
        <ele>4.108</ele>
        <time>2019-06-16T16:00:47Z</time>
      </trkpt>
      <trkpt lat="43.395146" lon="-3.816302">
        <ele>3.876</ele>
        <time>2019-06-16T16:00:48Z</time>
      </trkpt>
      <trkpt lat="43.395205" lon="-3.816405">
        <ele>3.720</ele>
        <time>2019-06-16T16:00:49Z</time>
      </trkpt>
      <trkpt lat="43.395273" lon="-3.816519">
        <ele>4.030</ele>
        <time>2019-06-16T16:00:50Z</time>
      </trkpt>
      <trkpt lat="43.395337" lon="-3.816632">
        <ele>4.224</ele>
        <time>2019-06-16T16:00:51Z</time>
      </trkpt>
      <trkpt lat="43.395415" lon="-3.816735">
        <ele>4.563</ele>
        <time>2019-06-16T16:00:52Z</time>
      </trkpt>
      <trkpt lat="43.395483" lon="-3.816851">
        <ele>4.763</ele>
        <time>2019-06-16T16:00:53Z</time>
      </trkpt>
      <trkpt lat="43.395544" lon="-3.816970">
        <ele>5.079</ele>
        <time>2019-06-16T16:00:54Z</time>
      </trkpt>
      <trkpt lat="43.395605" lon="-3.817078">
        <ele>5.268</ele>
        <time>2019-06-16T16:00:55Z</time>
      </trkpt>
      <trkpt lat="43.395672" lon="-3.817182">
        <ele>5.435</ele>
        <time>2019-06-16T16:00:56Z</time>
      </trkpt>
      <trkpt lat="43.395742" lon="-3.817276">
        <ele>5.786</ele>
        <time>2019-06-16T16:00:57Z</time>
      </trkpt>
      <trkpt lat="43.395790" lon="-3.817363">
        <ele>5.914</ele>
        <time>2019-06-16T16:00:58Z</time>
      </trkpt>
      <trkpt lat="43.395837" lon="-3.817461">
        <ele>6.008</ele>
        <time>2019-06-16T16:00:59Z</time>
      </trkpt>
      <trkpt lat="43.395898" lon="-3.817539">
        <ele>6.686</ele>
        <time>2019-06-16T16:01:00Z</time>
      </trkpt>
      <trkpt lat="43.395951" lon="-3.817629">
        <ele>7.140</ele>
        <time>2019-06-16T16:01:01Z</time>
      </trkpt>
      <trkpt lat="43.395994" lon="-3.817713">
        <ele>7.570</ele>
        <time>2019-06-16T16:01:02Z</time>
      </trkpt>
      <trkpt lat="43.396036" lon="-3.817789">
        <ele>7.714</ele>
        <time>2019-06-16T16:01:03Z</time>
      </trkpt>
      <trkpt lat="43.396072" lon="-3.817861">
        <ele>7.943</ele>
        <time>2019-06-16T16:01:04Z</time>
      </trkpt>
      <trkpt lat="43.396122" lon="-3.817930">
        <ele>8.063</ele>
        <time>2019-06-16T16:01:05Z</time>
      </trkpt>
      <trkpt lat="43.396151" lon="-3.817997">
        <ele>8.129</ele>
        <time>2019-06-16T16:01:06Z</time>
      </trkpt>
      <trkpt lat="43.396185" lon="-3.818053">
        <ele>8.328</ele>
        <time>2019-06-16T16:01:07Z</time>
      </trkpt>
      <trkpt lat="43.396219" lon="-3.818105">
        <ele>8.473</ele>
        <time>2019-06-16T16:01:08Z</time>
      </trkpt>
      <trkpt lat="43.396253" lon="-3.818154">
        <ele>8.585</ele>
        <time>2019-06-16T16:01:09Z</time>
      </trkpt>
      <trkpt lat="43.396283" lon="-3.818205">
        <ele>8.613</ele>
        <time>2019-06-16T16:01:10Z</time>
      </trkpt>
      <trkpt lat="43.396316" lon="-3.818260">
        <ele>8.708</ele>
        <time>2019-06-16T16:01:11Z</time>
      </trkpt>
      <trkpt lat="43.396345" lon="-3.818320">
        <ele>8.810</ele>
        <time>2019-06-16T16:01:12Z</time>
      </trkpt>
      <trkpt lat="43.396394" lon="-3.818369">
        <ele>9.094</ele>
        <time>2019-06-16T16:01:13Z</time>
      </trkpt>
      <trkpt lat="43.396435" lon="-3.818436">
        <ele>9.014</ele>
        <time>2019-06-16T16:01:14Z</time>
      </trkpt>
      <trkpt lat="43.396480" lon="-3.818520">
        <ele>9.018</ele>
        <time>2019-06-16T16:01:15Z</time>
      </trkpt>
      <trkpt lat="43.396522" lon="-3.818602">
        <ele>9.047</ele>
        <time>2019-06-16T16:01:16Z</time>
      </trkpt>
      <trkpt lat="43.396571" lon="-3.818686">
        <ele>9.257</ele>
        <time>2019-06-16T16:01:17Z</time>
      </trkpt>
      <trkpt lat="43.396623" lon="-3.818776">
        <ele>9.563</ele>
        <time>2019-06-16T16:01:18Z</time>
      </trkpt>
      <trkpt lat="43.396681" lon="-3.818877">
        <ele>10.092</ele>
        <time>2019-06-16T16:01:19Z</time>
      </trkpt>
      <trkpt lat="43.396741" lon="-3.818972">
        <ele>9.737</ele>
        <time>2019-06-16T16:01:20Z</time>
      </trkpt>
      <trkpt lat="43.396791" lon="-3.819055">
        <ele>9.449</ele>
        <time>2019-06-16T16:01:21Z</time>
      </trkpt>
      <trkpt lat="43.396834" lon="-3.819132">
        <ele>9.113</ele>
        <time>2019-06-16T16:01:22Z</time>
      </trkpt>
      <trkpt lat="43.396874" lon="-3.819211">
        <ele>9.008</ele>
        <time>2019-06-16T16:01:23Z</time>
      </trkpt>
      <trkpt lat="43.396914" lon="-3.819280">
        <ele>9.036</ele>
        <time>2019-06-16T16:01:24Z</time>
      </trkpt>
      <trkpt lat="43.396948" lon="-3.819356">
        <ele>9.050</ele>
        <time>2019-06-16T16:01:25Z</time>
      </trkpt>
      <trkpt lat="43.396986" lon="-3.819433">
        <ele>9.010</ele>
        <time>2019-06-16T16:01:26Z</time>
      </trkpt>
      <trkpt lat="43.397031" lon="-3.819481">
        <ele>8.794</ele>
        <time>2019-06-16T16:01:27Z</time>
      </trkpt>
      <trkpt lat="43.397069" lon="-3.819567">
        <ele>8.163</ele>
        <time>2019-06-16T16:01:28Z</time>
      </trkpt>
      <trkpt lat="43.397122" lon="-3.819608">
        <ele>8.083</ele>
        <time>2019-06-16T16:01:29Z</time>
      </trkpt>
      <trkpt lat="43.397176" lon="-3.819670">
        <ele>7.959</ele>
        <time>2019-06-16T16:01:30Z</time>
      </trkpt>
      <trkpt lat="43.397223" lon="-3.819724">
        <ele>8.018</ele>
        <time>2019-06-16T16:01:31Z</time>
      </trkpt>
      <trkpt lat="43.397264" lon="-3.819789">
        <ele>8.286</ele>
        <time>2019-06-16T16:01:32Z</time>
      </trkpt>
      <trkpt lat="43.397286" lon="-3.819868">
        <ele>8.260</ele>
        <time>2019-06-16T16:01:33Z</time>
      </trkpt>
      <trkpt lat="43.397325" lon="-3.819956">
        <ele>8.426</ele>
        <time>2019-06-16T16:01:34Z</time>
      </trkpt>
      <trkpt lat="43.397368" lon="-3.820045">
        <ele>8.508</ele>
        <time>2019-06-16T16:01:35Z</time>
      </trkpt>
      <trkpt lat="43.397408" lon="-3.820137">
        <ele>8.711</ele>
        <time>2019-06-16T16:01:36Z</time>
      </trkpt>
      <trkpt lat="43.397460" lon="-3.820231">
        <ele>8.995</ele>
        <time>2019-06-16T16:01:37Z</time>
      </trkpt>
      <trkpt lat="43.397510" lon="-3.820323">
        <ele>9.335</ele>
        <time>2019-06-16T16:01:38Z</time>
      </trkpt>
      <trkpt lat="43.397568" lon="-3.820402">
        <ele>10.099</ele>
        <time>2019-06-16T16:01:39Z</time>
      </trkpt>
      <trkpt lat="43.397624" lon="-3.820499">
        <ele>10.428</ele>
        <time>2019-06-16T16:01:40Z</time>
      </trkpt>
      <trkpt lat="43.397677" lon="-3.820588">
        <ele>10.688</ele>
        <time>2019-06-16T16:01:41Z</time>
      </trkpt>
      <trkpt lat="43.397725" lon="-3.820678">
        <ele>10.854</ele>
        <time>2019-06-16T16:01:42Z</time>
      </trkpt>
      <trkpt lat="43.397777" lon="-3.820768">
        <ele>11.013</ele>
        <time>2019-06-16T16:01:43Z</time>
      </trkpt>
      <trkpt lat="43.397826" lon="-3.820857">
        <ele>11.357</ele>
        <time>2019-06-16T16:01:44Z</time>
      </trkpt>
      <trkpt lat="43.397872" lon="-3.820940">
        <ele>11.700</ele>
        <time>2019-06-16T16:01:45Z</time>
      </trkpt>
      <trkpt lat="43.397929" lon="-3.821015">
        <ele>12.120</ele>
        <time>2019-06-16T16:01:46Z</time>
      </trkpt>
      <trkpt lat="43.397988" lon="-3.821087">
        <ele>12.508</ele>
        <time>2019-06-16T16:01:47Z</time>
      </trkpt>
      <trkpt lat="43.398043" lon="-3.821154">
        <ele>12.888</ele>
        <time>2019-06-16T16:01:48Z</time>
      </trkpt>
      <trkpt lat="43.398094" lon="-3.821223">
        <ele>13.092</ele>
        <time>2019-06-16T16:01:49Z</time>
      </trkpt>
      <trkpt lat="43.398147" lon="-3.821278">
        <ele>13.212</ele>
        <time>2019-06-16T16:01:50Z</time>
      </trkpt>
      <trkpt lat="43.398200" lon="-3.821333">
        <ele>13.366</ele>
        <time>2019-06-16T16:01:51Z</time>
      </trkpt>
      <trkpt lat="43.398243" lon="-3.821385">
        <ele>13.455</ele>
        <time>2019-06-16T16:01:52Z</time>
      </trkpt>
      <trkpt lat="43.398291" lon="-3.821432">
        <ele>13.775</ele>
        <time>2019-06-16T16:01:53Z</time>
      </trkpt>
      <trkpt lat="43.398323" lon="-3.821511">
        <ele>13.981</ele>
        <time>2019-06-16T16:01:54Z</time>
      </trkpt>
      <trkpt lat="43.398374" lon="-3.821617">
        <ele>14.220</ele>
        <time>2019-06-16T16:01:55Z</time>
      </trkpt>
      <trkpt lat="43.398426" lon="-3.821732">
        <ele>14.183</ele>
        <time>2019-06-16T16:01:56Z</time>
      </trkpt>
      <trkpt lat="43.398494" lon="-3.821840">
        <ele>14.425</ele>
        <time>2019-06-16T16:01:57Z</time>
      </trkpt>
      <trkpt lat="43.398580" lon="-3.821975">
        <ele>15.617</ele>
        <time>2019-06-16T16:01:58Z</time>
      </trkpt>
      <trkpt lat="43.398682" lon="-3.822089">
        <ele>16.408</ele>
        <time>2019-06-16T16:01:59Z</time>
      </trkpt>
      <trkpt lat="43.398775" lon="-3.822218">
        <ele>17.241</ele>
        <time>2019-06-16T16:02:00Z</time>
      </trkpt>
      <trkpt lat="43.398877" lon="-3.822351">
        <ele>18.345</ele>
        <time>2019-06-16T16:02:01Z</time>
      </trkpt>
      <trkpt lat="43.398980" lon="-3.822474">
        <ele>19.035</ele>
        <time>2019-06-16T16:02:02Z</time>
      </trkpt>
      <trkpt lat="43.399093" lon="-3.822539">
        <ele>19.189</ele>
        <time>2019-06-16T16:02:03Z</time>
      </trkpt>
      <trkpt lat="43.399197" lon="-3.822635">
        <ele>19.818</ele>
        <time>2019-06-16T16:02:04Z</time>
      </trkpt>
      <trkpt lat="43.399298" lon="-3.822726">
        <ele>20.638</ele>
        <time>2019-06-16T16:02:05Z</time>
      </trkpt>
      <trkpt lat="43.399382" lon="-3.822804">
        <ele>20.774</ele>
        <time>2019-06-16T16:02:06Z</time>
      </trkpt>
      <trkpt lat="43.399472" lon="-3.822877">
        <ele>20.723</ele>
        <time>2019-06-16T16:02:07Z</time>
      </trkpt>
      <trkpt lat="43.399531" lon="-3.822949">
        <ele>20.676</ele>
        <time>2019-06-16T16:02:08Z</time>
      </trkpt>
      <trkpt lat="43.399584" lon="-3.822991">
        <ele>20.690</ele>
        <time>2019-06-16T16:02:09Z</time>
      </trkpt>
      <trkpt lat="43.399640" lon="-3.823110">
        <ele>20.519</ele>
        <time>2019-06-16T16:02:10Z</time>
      </trkpt>
      <trkpt lat="43.399690" lon="-3.823255">
        <ele>20.208</ele>
        <time>2019-06-16T16:02:11Z</time>
      </trkpt>
      <trkpt lat="43.399739" lon="-3.823383">
        <ele>19.910</ele>
        <time>2019-06-16T16:02:12Z</time>
      </trkpt>
      <trkpt lat="43.399796" lon="-3.823485">
        <ele>19.794</ele>
        <time>2019-06-16T16:02:13Z</time>
      </trkpt>
      <trkpt lat="43.399844" lon="-3.823591">
        <ele>19.564</ele>
        <time>2019-06-16T16:02:14Z</time>
      </trkpt>
      <trkpt lat="43.399898" lon="-3.823691">
        <ele>19.438</ele>
        <time>2019-06-16T16:02:15Z</time>
      </trkpt>
      <trkpt lat="43.399955" lon="-3.823806">
        <ele>19.677</ele>
        <time>2019-06-16T16:02:16Z</time>
      </trkpt>
      <trkpt lat="43.400007" lon="-3.823906">
        <ele>19.927</ele>
        <time>2019-06-16T16:02:17Z</time>
      </trkpt>
      <trkpt lat="43.400072" lon="-3.824000">
        <ele>19.713</ele>
        <time>2019-06-16T16:02:18Z</time>
      </trkpt>
      <trkpt lat="43.400136" lon="-3.824122">
        <ele>19.692</ele>
        <time>2019-06-16T16:02:19Z</time>
      </trkpt>
      <trkpt lat="43.400200" lon="-3.824246">
        <ele>19.892</ele>
        <time>2019-06-16T16:02:20Z</time>
      </trkpt>
      <trkpt lat="43.400270" lon="-3.824377">
        <ele>20.773</ele>
        <time>2019-06-16T16:02:21Z</time>
      </trkpt>
      <trkpt lat="43.400327" lon="-3.824501">
        <ele>20.820</ele>
        <time>2019-06-16T16:02:22Z</time>
      </trkpt>
      <trkpt lat="43.400387" lon="-3.824613">
        <ele>20.408</ele>
        <time>2019-06-16T16:02:23Z</time>
      </trkpt>
      <trkpt lat="43.400425" lon="-3.824708">
        <ele>20.182</ele>
        <time>2019-06-16T16:02:24Z</time>
      </trkpt>
      <trkpt lat="43.400436" lon="-3.824789">
        <ele>20.066</ele>
        <time>2019-06-16T16:02:25Z</time>
      </trkpt>
      <trkpt lat="43.400515" lon="-3.824732">
        <ele>20.056</ele>
        <time>2019-06-16T16:02:35Z</time>
      </trkpt>
      <trkpt lat="43.400580" lon="-3.824801">
        <ele>20.090</ele>
        <time>2019-06-16T16:02:50Z</time>
      </trkpt>
      <trkpt lat="43.400620" lon="-3.824899">
        <ele>19.929</ele>
        <time>2019-06-16T16:02:51Z</time>
      </trkpt>
      <trkpt lat="43.400669" lon="-3.824964">
        <ele>19.739</ele>
        <time>2019-06-16T16:02:52Z</time>
      </trkpt>
      <trkpt lat="43.400709" lon="-3.825033">
        <ele>19.335</ele>
        <time>2019-06-16T16:02:53Z</time>
      </trkpt>
      <trkpt lat="43.400751" lon="-3.825099">
        <ele>18.954</ele>
        <time>2019-06-16T16:02:54Z</time>
      </trkpt>
      <trkpt lat="43.400797" lon="-3.825165">
        <ele>18.585</ele>
        <time>2019-06-16T16:02:55Z</time>
      </trkpt>
      <trkpt lat="43.400818" lon="-3.825283">
        <ele>18.189</ele>
        <time>2019-06-16T16:02:56Z</time>
      </trkpt>
      <trkpt lat="43.400853" lon="-3.825375">
        <ele>17.917</ele>
        <time>2019-06-16T16:02:57Z</time>
      </trkpt>
      <trkpt lat="43.400851" lon="-3.825463">
        <ele>17.908</ele>
        <time>2019-06-16T16:02:58Z</time>
      </trkpt>
      <trkpt lat="43.400861" lon="-3.825546">
        <ele>17.811</ele>
        <time>2019-06-16T16:02:59Z</time>
      </trkpt>
      <trkpt lat="43.400874" lon="-3.825625">
        <ele>17.575</ele>
        <time>2019-06-16T16:03:00Z</time>
      </trkpt>
      <trkpt lat="43.400874" lon="-3.825712">
        <ele>17.185</ele>
        <time>2019-06-16T16:03:01Z</time>
      </trkpt>
      <trkpt lat="43.400890" lon="-3.825794">
        <ele>16.719</ele>
        <time>2019-06-16T16:03:02Z</time>
      </trkpt>
      <trkpt lat="43.400931" lon="-3.825888">
        <ele>16.358</ele>
        <time>2019-06-16T16:03:03Z</time>
      </trkpt>
      <trkpt lat="43.400964" lon="-3.825994">
        <ele>16.198</ele>
        <time>2019-06-16T16:03:04Z</time>
      </trkpt>
      <trkpt lat="43.401000" lon="-3.826103">
        <ele>15.874</ele>
        <time>2019-06-16T16:03:05Z</time>
      </trkpt>
      <trkpt lat="43.401035" lon="-3.826211">
        <ele>15.933</ele>
        <time>2019-06-16T16:03:06Z</time>
      </trkpt>
      <trkpt lat="43.401074" lon="-3.826317">
        <ele>16.057</ele>
        <time>2019-06-16T16:03:07Z</time>
      </trkpt>
      <trkpt lat="43.401118" lon="-3.826432">
        <ele>16.100</ele>
        <time>2019-06-16T16:03:08Z</time>
      </trkpt>
      <trkpt lat="43.401173" lon="-3.826560">
        <ele>15.920</ele>
        <time>2019-06-16T16:03:09Z</time>
      </trkpt>
      <trkpt lat="43.401233" lon="-3.826682">
        <ele>15.808</ele>
        <time>2019-06-16T16:03:10Z</time>
      </trkpt>
      <trkpt lat="43.401303" lon="-3.826806">
        <ele>15.998</ele>
        <time>2019-06-16T16:03:11Z</time>
      </trkpt>
      <trkpt lat="43.401382" lon="-3.826928">
        <ele>16.022</ele>
        <time>2019-06-16T16:03:12Z</time>
      </trkpt>
      <trkpt lat="43.401455" lon="-3.827039">
        <ele>16.342</ele>
        <time>2019-06-16T16:03:13Z</time>
      </trkpt>
      <trkpt lat="43.401529" lon="-3.827150">
        <ele>16.776</ele>
        <time>2019-06-16T16:03:14Z</time>
      </trkpt>
      <trkpt lat="43.401594" lon="-3.827241">
        <ele>17.095</ele>
        <time>2019-06-16T16:03:15Z</time>
      </trkpt>
      <trkpt lat="43.401654" lon="-3.827333">
        <ele>17.345</ele>
        <time>2019-06-16T16:03:16Z</time>
      </trkpt>
      <trkpt lat="43.401710" lon="-3.827421">
        <ele>17.821</ele>
        <time>2019-06-16T16:03:17Z</time>
      </trkpt>
      <trkpt lat="43.401759" lon="-3.827502">
        <ele>18.490</ele>
        <time>2019-06-16T16:03:18Z</time>
      </trkpt>
      <trkpt lat="43.401816" lon="-3.827578">
        <ele>18.948</ele>
        <time>2019-06-16T16:03:19Z</time>
      </trkpt>
      <trkpt lat="43.401869" lon="-3.827657">
        <ele>19.461</ele>
        <time>2019-06-16T16:03:20Z</time>
      </trkpt>
      <trkpt lat="43.401934" lon="-3.827739">
        <ele>19.717</ele>
        <time>2019-06-16T16:03:21Z</time>
      </trkpt>
      <trkpt lat="43.401998" lon="-3.827836">
        <ele>19.908</ele>
        <time>2019-06-16T16:03:22Z</time>
      </trkpt>
      <trkpt lat="43.402063" lon="-3.827939">
        <ele>20.097</ele>
        <time>2019-06-16T16:03:23Z</time>
      </trkpt>
      <trkpt lat="43.402133" lon="-3.828044">
        <ele>20.391</ele>
        <time>2019-06-16T16:03:24Z</time>
      </trkpt>
      <trkpt lat="43.402203" lon="-3.828142">
        <ele>20.491</ele>
        <time>2019-06-16T16:03:25Z</time>
      </trkpt>
      <trkpt lat="43.402264" lon="-3.828239">
        <ele>20.545</ele>
        <time>2019-06-16T16:03:26Z</time>
      </trkpt>
      <trkpt lat="43.402324" lon="-3.828344">
        <ele>20.724</ele>
        <time>2019-06-16T16:03:27Z</time>
      </trkpt>
      <trkpt lat="43.402385" lon="-3.828449">
        <ele>20.584</ele>
        <time>2019-06-16T16:03:28Z</time>
      </trkpt>
      <trkpt lat="43.402435" lon="-3.828563">
        <ele>20.080</ele>
        <time>2019-06-16T16:03:29Z</time>
      </trkpt>
      <trkpt lat="43.402488" lon="-3.828682">
        <ele>19.429</ele>
        <time>2019-06-16T16:03:30Z</time>
      </trkpt>
      <trkpt lat="43.402543" lon="-3.828800">
        <ele>19.516</ele>
        <time>2019-06-16T16:03:31Z</time>
      </trkpt>
      <trkpt lat="43.402581" lon="-3.828911">
        <ele>19.576</ele>
        <time>2019-06-16T16:03:32Z</time>
      </trkpt>
      <trkpt lat="43.402652" lon="-3.829029">
        <ele>19.413</ele>
        <time>2019-06-16T16:03:33Z</time>
      </trkpt>
      <trkpt lat="43.402716" lon="-3.829162">
        <ele>18.908</ele>
        <time>2019-06-16T16:03:34Z</time>
      </trkpt>
      <trkpt lat="43.402788" lon="-3.829300">
        <ele>17.984</ele>
        <time>2019-06-16T16:03:35Z</time>
      </trkpt>
      <trkpt lat="43.402861" lon="-3.829432">
        <ele>17.428</ele>
        <time>2019-06-16T16:03:36Z</time>
      </trkpt>
      <trkpt lat="43.402927" lon="-3.829577">
        <ele>17.668</ele>
        <time>2019-06-16T16:03:37Z</time>
      </trkpt>
      <trkpt lat="43.402997" lon="-3.829729">
        <ele>17.652</ele>
        <time>2019-06-16T16:03:38Z</time>
      </trkpt>
      <trkpt lat="43.403056" lon="-3.829890">
        <ele>16.491</ele>
        <time>2019-06-16T16:03:39Z</time>
      </trkpt>
      <trkpt lat="43.403098" lon="-3.830082">
        <ele>15.891</ele>
        <time>2019-06-16T16:03:40Z</time>
      </trkpt>
      <trkpt lat="43.403132" lon="-3.830271">
        <ele>15.237</ele>
        <time>2019-06-16T16:03:41Z</time>
      </trkpt>
      <trkpt lat="43.403164" lon="-3.830460">
        <ele>14.036</ele>
        <time>2019-06-16T16:03:42Z</time>
      </trkpt>
      <trkpt lat="43.403215" lon="-3.830643">
        <ele>13.776</ele>
        <time>2019-06-16T16:03:43Z</time>
      </trkpt>
      <trkpt lat="43.403266" lon="-3.830825">
        <ele>14.290</ele>
        <time>2019-06-16T16:03:44Z</time>
      </trkpt>
      <trkpt lat="43.403334" lon="-3.830962">
        <ele>14.519</ele>
        <time>2019-06-16T16:03:45Z</time>
      </trkpt>
      <trkpt lat="43.403421" lon="-3.831085">
        <ele>14.508</ele>
        <time>2019-06-16T16:03:46Z</time>
      </trkpt>
      <trkpt lat="43.403514" lon="-3.831228">
        <ele>15.180</ele>
        <time>2019-06-16T16:03:47Z</time>
      </trkpt>
      <trkpt lat="43.403625" lon="-3.831350">
        <ele>14.824</ele>
        <time>2019-06-16T16:03:48Z</time>
      </trkpt>
      <trkpt lat="43.403733" lon="-3.831490">
        <ele>15.714</ele>
        <time>2019-06-16T16:03:49Z</time>
      </trkpt>
      <trkpt lat="43.403838" lon="-3.831621">
        <ele>16.228</ele>
        <time>2019-06-16T16:03:50Z</time>
      </trkpt>
      <trkpt lat="43.403937" lon="-3.831743">
        <ele>16.477</ele>
        <time>2019-06-16T16:03:51Z</time>
      </trkpt>
      <trkpt lat="43.404011" lon="-3.831866">
        <ele>16.677</ele>
        <time>2019-06-16T16:03:52Z</time>
      </trkpt>
      <trkpt lat="43.404099" lon="-3.832010">
        <ele>16.353</ele>
        <time>2019-06-16T16:03:53Z</time>
      </trkpt>
      <trkpt lat="43.404168" lon="-3.832158">
        <ele>15.862</ele>
        <time>2019-06-16T16:03:54Z</time>
      </trkpt>
      <trkpt lat="43.404228" lon="-3.832313">
        <ele>16.354</ele>
        <time>2019-06-16T16:03:55Z</time>
      </trkpt>
      <trkpt lat="43.404249" lon="-3.832508">
        <ele>17.156</ele>
        <time>2019-06-16T16:03:56Z</time>
      </trkpt>
      <trkpt lat="43.404280" lon="-3.832708">
        <ele>16.911</ele>
        <time>2019-06-16T16:03:57Z</time>
      </trkpt>
      <trkpt lat="43.404309" lon="-3.832896">
        <ele>16.208</ele>
        <time>2019-06-16T16:03:58Z</time>
      </trkpt>
      <trkpt lat="43.404336" lon="-3.833055">
        <ele>15.368</ele>
        <time>2019-06-16T16:03:59Z</time>
      </trkpt>
      <trkpt lat="43.404367" lon="-3.833228">
        <ele>14.762</ele>
        <time>2019-06-16T16:04:00Z</time>
      </trkpt>
      <trkpt lat="43.404396" lon="-3.833401">
        <ele>14.092</ele>
        <time>2019-06-16T16:04:01Z</time>
      </trkpt>
      <trkpt lat="43.404428" lon="-3.833555">
        <ele>13.346</ele>
        <time>2019-06-16T16:04:02Z</time>
      </trkpt>
      <trkpt lat="43.404464" lon="-3.833702">
        <ele>12.555</ele>
        <time>2019-06-16T16:04:03Z</time>
      </trkpt>
      <trkpt lat="43.404486" lon="-3.833859">
        <ele>11.855</ele>
        <time>2019-06-16T16:04:04Z</time>
      </trkpt>
      <trkpt lat="43.404505" lon="-3.834010">
        <ele>11.181</ele>
        <time>2019-06-16T16:04:05Z</time>
      </trkpt>
      <trkpt lat="43.404523" lon="-3.834156">
        <ele>10.520</ele>
        <time>2019-06-16T16:04:06Z</time>
      </trkpt>
      <trkpt lat="43.404547" lon="-3.834291">
        <ele>9.459</ele>
        <time>2019-06-16T16:04:07Z</time>
      </trkpt>
      <trkpt lat="43.404574" lon="-3.834422">
        <ele>8.203</ele>
        <time>2019-06-16T16:04:08Z</time>
      </trkpt>
      <trkpt lat="43.404593" lon="-3.834564">
        <ele>8.423</ele>
        <time>2019-06-16T16:04:09Z</time>
      </trkpt>
      <trkpt lat="43.404618" lon="-3.834695">
        <ele>8.708</ele>
        <time>2019-06-16T16:04:10Z</time>
      </trkpt>
      <trkpt lat="43.404645" lon="-3.834847">
        <ele>8.738</ele>
        <time>2019-06-16T16:04:11Z</time>
      </trkpt>
      <trkpt lat="43.404674" lon="-3.835002">
        <ele>8.522</ele>
        <time>2019-06-16T16:04:12Z</time>
      </trkpt>
      <trkpt lat="43.404695" lon="-3.835162">
        <ele>8.272</ele>
        <time>2019-06-16T16:04:13Z</time>
      </trkpt>
      <trkpt lat="43.404723" lon="-3.835323">
        <ele>7.816</ele>
        <time>2019-06-16T16:04:14Z</time>
      </trkpt>
      <trkpt lat="43.404747" lon="-3.835484">
        <ele>7.165</ele>
        <time>2019-06-16T16:04:15Z</time>
      </trkpt>
      <trkpt lat="43.404770" lon="-3.835644">
        <ele>6.795</ele>
        <time>2019-06-16T16:04:16Z</time>
      </trkpt>
      <trkpt lat="43.404793" lon="-3.835784">
        <ele>6.751</ele>
        <time>2019-06-16T16:04:17Z</time>
      </trkpt>
      <trkpt lat="43.404812" lon="-3.835913">
        <ele>6.650</ele>
        <time>2019-06-16T16:04:18Z</time>
      </trkpt>
      <trkpt lat="43.404834" lon="-3.836046">
        <ele>6.353</ele>
        <time>2019-06-16T16:04:19Z</time>
      </trkpt>
      <trkpt lat="43.404850" lon="-3.836180">
        <ele>6.204</ele>
        <time>2019-06-16T16:04:20Z</time>
      </trkpt>
      <trkpt lat="43.404871" lon="-3.836307">
        <ele>6.314</ele>
        <time>2019-06-16T16:04:21Z</time>
      </trkpt>
      <trkpt lat="43.404889" lon="-3.836428">
        <ele>6.408</ele>
        <time>2019-06-16T16:04:22Z</time>
      </trkpt>
      <trkpt lat="43.404919" lon="-3.836536">
        <ele>6.318</ele>
        <time>2019-06-16T16:04:23Z</time>
      </trkpt>
      <trkpt lat="43.404946" lon="-3.836643">
        <ele>6.212</ele>
        <time>2019-06-16T16:04:24Z</time>
      </trkpt>
      <trkpt lat="43.404973" lon="-3.836731">
        <ele>5.962</ele>
        <time>2019-06-16T16:04:25Z</time>
      </trkpt>
      <trkpt lat="43.405001" lon="-3.836800">
        <ele>5.526</ele>
        <time>2019-06-16T16:04:26Z</time>
      </trkpt>
      <trkpt lat="43.405024" lon="-3.836857">
        <ele>5.345</ele>
        <time>2019-06-16T16:04:27Z</time>
      </trkpt>
      <trkpt lat="43.405056" lon="-3.836920">
        <ele>5.155</ele>
        <time>2019-06-16T16:04:29Z</time>
      </trkpt>
      <trkpt lat="43.405139" lon="-3.836992">
        <ele>5.121</ele>
        <time>2019-06-16T16:04:31Z</time>
      </trkpt>
      <trkpt lat="43.405190" lon="-3.837030">
        <ele>5.110</ele>
        <time>2019-06-16T16:04:32Z</time>
      </trkpt>
      <trkpt lat="43.405249" lon="-3.837078">
        <ele>5.011</ele>
        <time>2019-06-16T16:04:33Z</time>
      </trkpt>
      <trkpt lat="43.405297" lon="-3.837169">
        <ele>4.921</ele>
        <time>2019-06-16T16:04:34Z</time>
      </trkpt>
      <trkpt lat="43.405312" lon="-3.837244">
        <ele>4.903</ele>
        <time>2019-06-16T16:04:35Z</time>
      </trkpt>
      <trkpt lat="43.405330" lon="-3.837329">
        <ele>4.708</ele>
        <time>2019-06-16T16:04:36Z</time>
      </trkpt>
      <trkpt lat="43.405321" lon="-3.837428">
        <ele>4.764</ele>
        <time>2019-06-16T16:04:37Z</time>
      </trkpt>
      <trkpt lat="43.405290" lon="-3.837553">
        <ele>4.948</ele>
        <time>2019-06-16T16:04:38Z</time>
      </trkpt>
      <trkpt lat="43.405273" lon="-3.837659">
        <ele>5.068</ele>
        <time>2019-06-16T16:04:39Z</time>
      </trkpt>
      <trkpt lat="43.405292" lon="-3.837771">
        <ele>4.952</ele>
        <time>2019-06-16T16:04:40Z</time>
      </trkpt>
      <trkpt lat="43.405320" lon="-3.837888">
        <ele>5.231</ele>
        <time>2019-06-16T16:04:41Z</time>
      </trkpt>
      <trkpt lat="43.405376" lon="-3.838009">
        <ele>5.271</ele>
        <time>2019-06-16T16:04:42Z</time>
      </trkpt>
      <trkpt lat="43.405448" lon="-3.838146">
        <ele>5.127</ele>
        <time>2019-06-16T16:04:43Z</time>
      </trkpt>
      <trkpt lat="43.405511" lon="-3.838289">
        <ele>5.226</ele>
        <time>2019-06-16T16:04:44Z</time>
      </trkpt>
      <trkpt lat="43.405568" lon="-3.838449">
        <ele>5.093</ele>
        <time>2019-06-16T16:04:45Z</time>
      </trkpt>
      <trkpt lat="43.405632" lon="-3.838610">
        <ele>5.065</ele>
        <time>2019-06-16T16:04:46Z</time>
      </trkpt>
      <trkpt lat="43.405680" lon="-3.838799">
        <ele>5.421</ele>
        <time>2019-06-16T16:04:47Z</time>
      </trkpt>
      <trkpt lat="43.405718" lon="-3.838982">
        <ele>5.408</ele>
        <time>2019-06-16T16:04:48Z</time>
      </trkpt>
      <trkpt lat="43.405760" lon="-3.839152">
        <ele>5.382</ele>
        <time>2019-06-16T16:04:49Z</time>
      </trkpt>
      <trkpt lat="43.405800" lon="-3.839327">
        <ele>6.196</ele>
        <time>2019-06-16T16:04:50Z</time>
      </trkpt>
      <trkpt lat="43.405841" lon="-3.839500">
        <ele>6.926</ele>
        <time>2019-06-16T16:04:51Z</time>
      </trkpt>
      <trkpt lat="43.405883" lon="-3.839671">
        <ele>6.660</ele>
        <time>2019-06-16T16:04:52Z</time>
      </trkpt>
      <trkpt lat="43.405939" lon="-3.839812">
        <ele>6.649</ele>
        <time>2019-06-16T16:04:53Z</time>
      </trkpt>
      <trkpt lat="43.405997" lon="-3.839966">
        <ele>7.479</ele>
        <time>2019-06-16T16:04:54Z</time>
      </trkpt>
      <trkpt lat="43.406062" lon="-3.840104">
        <ele>8.415</ele>
        <time>2019-06-16T16:04:55Z</time>
      </trkpt>
      <trkpt lat="43.406140" lon="-3.840253">
        <ele>9.614</ele>
        <time>2019-06-16T16:04:56Z</time>
      </trkpt>
      <trkpt lat="43.406203" lon="-3.840418">
        <ele>10.097</ele>
        <time>2019-06-16T16:04:57Z</time>
      </trkpt>
      <trkpt lat="43.406287" lon="-3.840552">
        <ele>11.223</ele>
        <time>2019-06-16T16:04:58Z</time>
      </trkpt>
      <trkpt lat="43.406366" lon="-3.840693">
        <ele>12.325</ele>
        <time>2019-06-16T16:04:59Z</time>
      </trkpt>
      <trkpt lat="43.406451" lon="-3.840817">
        <ele>12.708</ele>
        <time>2019-06-16T16:05:00Z</time>
      </trkpt>
      <trkpt lat="43.406532" lon="-3.840948">
        <ele>12.732</ele>
        <time>2019-06-16T16:05:01Z</time>
      </trkpt>
      <trkpt lat="43.406607" lon="-3.841078">
        <ele>13.466</ele>
        <time>2019-06-16T16:05:02Z</time>
      </trkpt>
      <trkpt lat="43.406688" lon="-3.841197">
        <ele>14.276</ele>
        <time>2019-06-16T16:05:03Z</time>
      </trkpt>
      <trkpt lat="43.406766" lon="-3.841318">
        <ele>14.560</ele>
        <time>2019-06-16T16:05:04Z</time>
      </trkpt>
      <trkpt lat="43.406850" lon="-3.841429">
        <ele>14.739</ele>
        <time>2019-06-16T16:05:05Z</time>
      </trkpt>
      <trkpt lat="43.406934" lon="-3.841532">
        <ele>13.919</ele>
        <time>2019-06-16T16:05:06Z</time>
      </trkpt>
      <trkpt lat="43.407008" lon="-3.841656">
        <ele>12.845</ele>
        <time>2019-06-16T16:05:07Z</time>
      </trkpt>
      <trkpt lat="43.407078" lon="-3.841772">
        <ele>14.044</ele>
        <time>2019-06-16T16:05:08Z</time>
      </trkpt>
      <trkpt lat="43.407178" lon="-3.841865">
        <ele>16.063</ele>
        <time>2019-06-16T16:05:09Z</time>
      </trkpt>
      <trkpt lat="43.407257" lon="-3.841990">
        <ele>17.944</ele>
        <time>2019-06-16T16:05:10Z</time>
      </trkpt>
      <trkpt lat="43.407339" lon="-3.842111">
        <ele>17.818</ele>
        <time>2019-06-16T16:05:11Z</time>
      </trkpt>
      <trkpt lat="43.407440" lon="-3.842219">
        <ele>18.008</ele>
        <time>2019-06-16T16:05:12Z</time>
      </trkpt>
      <trkpt lat="43.407545" lon="-3.842301">
        <ele>18.869</ele>
        <time>2019-06-16T16:05:13Z</time>
      </trkpt>
      <trkpt lat="43.407652" lon="-3.842374">
        <ele>19.323</ele>
        <time>2019-06-16T16:05:14Z</time>
      </trkpt>
      <trkpt lat="43.407777" lon="-3.842419">
        <ele>19.423</ele>
        <time>2019-06-16T16:05:15Z</time>
      </trkpt>
      <trkpt lat="43.407904" lon="-3.842451">
        <ele>19.317</ele>
        <time>2019-06-16T16:05:16Z</time>
      </trkpt>
      <trkpt lat="43.408039" lon="-3.842490">
        <ele>19.016</ele>
        <time>2019-06-16T16:05:17Z</time>
      </trkpt>
      <trkpt lat="43.408166" lon="-3.842505">
        <ele>18.896</ele>
        <time>2019-06-16T16:05:18Z</time>
      </trkpt>
      <trkpt lat="43.408307" lon="-3.842498">
        <ele>18.172</ele>
        <time>2019-06-16T16:05:19Z</time>
      </trkpt>
      <trkpt lat="43.408454" lon="-3.842479">
        <ele>18.341</ele>
        <time>2019-06-16T16:05:20Z</time>
      </trkpt>
      <trkpt lat="43.408600" lon="-3.842440">
        <ele>18.392</ele>
        <time>2019-06-16T16:05:21Z</time>
      </trkpt>
      <trkpt lat="43.408747" lon="-3.842401">
        <ele>18.173</ele>
        <time>2019-06-16T16:05:22Z</time>
      </trkpt>
      <trkpt lat="43.408852" lon="-3.842409">
        <ele>18.320</ele>
        <time>2019-06-16T16:05:23Z</time>
      </trkpt>
      <trkpt lat="43.409022" lon="-3.842361">
        <ele>17.508</ele>
        <time>2019-06-16T16:05:24Z</time>
      </trkpt>
      <trkpt lat="43.409183" lon="-3.842296">
        <ele>16.392</ele>
        <time>2019-06-16T16:05:25Z</time>
      </trkpt>
      <trkpt lat="43.409349" lon="-3.842229">
        <ele>14.526</ele>
        <time>2019-06-16T16:05:26Z</time>
      </trkpt>
      <trkpt lat="43.409510" lon="-3.842206">
        <ele>13.916</ele>
        <time>2019-06-16T16:05:27Z</time>
      </trkpt>
      <trkpt lat="43.409660" lon="-3.842187">
        <ele>13.940</ele>
        <time>2019-06-16T16:05:28Z</time>
      </trkpt>
      <trkpt lat="43.409813" lon="-3.842166">
        <ele>13.479</ele>
        <time>2019-06-16T16:05:29Z</time>
      </trkpt>
      <trkpt lat="43.409937" lon="-3.842176">
        <ele>12.969</ele>
        <time>2019-06-16T16:05:30Z</time>
      </trkpt>
      <trkpt lat="43.410129" lon="-3.842167">
        <ele>12.125</ele>
        <time>2019-06-16T16:05:31Z</time>
      </trkpt>
      <trkpt lat="43.410274" lon="-3.842178">
        <ele>11.754</ele>
        <time>2019-06-16T16:05:32Z</time>
      </trkpt>
      <trkpt lat="43.410362" lon="-3.842199">
        <ele>11.836</ele>
        <time>2019-06-16T16:05:33Z</time>
      </trkpt>
      <trkpt lat="43.410437" lon="-3.842233">
        <ele>12.217</ele>
        <time>2019-06-16T16:05:34Z</time>
      </trkpt>
      <trkpt lat="43.410517" lon="-3.842276">
        <ele>12.618</ele>
        <time>2019-06-16T16:05:35Z</time>
      </trkpt>
      <trkpt lat="43.410595" lon="-3.842311">
        <ele>12.708</ele>
        <time>2019-06-16T16:05:36Z</time>
      </trkpt>
      <trkpt lat="43.410671" lon="-3.842330">
        <ele>12.436</ele>
        <time>2019-06-16T16:05:37Z</time>
      </trkpt>
      <trkpt lat="43.410734" lon="-3.842363">
        <ele>12.240</ele>
        <time>2019-06-16T16:05:38Z</time>
      </trkpt>
      <trkpt lat="43.410783" lon="-3.842399">
        <ele>12.060</ele>
        <time>2019-06-16T16:05:39Z</time>
      </trkpt>
      <trkpt lat="43.410831" lon="-3.842447">
        <ele>11.814</ele>
        <time>2019-06-16T16:05:40Z</time>
      </trkpt>
      <trkpt lat="43.410898" lon="-3.842484">
        <ele>11.543</ele>
        <time>2019-06-16T16:05:41Z</time>
      </trkpt>
      <trkpt lat="43.410948" lon="-3.842539">
        <ele>11.823</ele>
        <time>2019-06-16T16:05:42Z</time>
      </trkpt>
      <trkpt lat="43.411018" lon="-3.842586">
        <ele>11.849</ele>
        <time>2019-06-16T16:05:43Z</time>
      </trkpt>
      <trkpt lat="43.411105" lon="-3.842634">
        <ele>11.578</ele>
        <time>2019-06-16T16:05:44Z</time>
      </trkpt>
      <trkpt lat="43.411196" lon="-3.842694">
        <ele>11.125</ele>
        <time>2019-06-16T16:05:45Z</time>
      </trkpt>
      <trkpt lat="43.411283" lon="-3.842775">
        <ele>10.526</ele>
        <time>2019-06-16T16:05:46Z</time>
      </trkpt>
      <trkpt lat="43.411383" lon="-3.842857">
        <ele>10.008</ele>
        <time>2019-06-16T16:05:47Z</time>
      </trkpt>
      <trkpt lat="43.411475" lon="-3.842941">
        <ele>9.908</ele>
        <time>2019-06-16T16:05:48Z</time>
      </trkpt>
      <trkpt lat="43.411564" lon="-3.843016">
        <ele>9.345</ele>
        <time>2019-06-16T16:05:49Z</time>
      </trkpt>
      <trkpt lat="43.411647" lon="-3.843087">
        <ele>8.449</ele>
        <time>2019-06-16T16:05:50Z</time>
      </trkpt>
      <trkpt lat="43.411733" lon="-3.843148">
        <ele>8.159</ele>
        <time>2019-06-16T16:05:51Z</time>
      </trkpt>
      <trkpt lat="43.411819" lon="-3.843198">
        <ele>8.053</ele>
        <time>2019-06-16T16:05:52Z</time>
      </trkpt>
      <trkpt lat="43.411898" lon="-3.843233">
        <ele>7.852</ele>
        <time>2019-06-16T16:05:53Z</time>
      </trkpt>
      <trkpt lat="43.411983" lon="-3.843268">
        <ele>7.652</ele>
        <time>2019-06-16T16:05:54Z</time>
      </trkpt>
      <trkpt lat="43.412044" lon="-3.843300">
        <ele>7.528</ele>
        <time>2019-06-16T16:05:55Z</time>
      </trkpt>
      <trkpt lat="43.412078" lon="-3.843351">
        <ele>7.517</ele>
        <time>2019-06-16T16:05:56Z</time>
      </trkpt>
      <trkpt lat="43.412096" lon="-3.843424">
        <ele>7.164</ele>
        <time>2019-06-16T16:05:57Z</time>
      </trkpt>
      <trkpt lat="43.412073" lon="-3.843512">
        <ele>6.906</ele>
        <time>2019-06-16T16:05:58Z</time>
      </trkpt>
      <trkpt lat="43.412050" lon="-3.843590">
        <ele>6.716</ele>
        <time>2019-06-16T16:05:59Z</time>
      </trkpt>
      <trkpt lat="43.412007" lon="-3.843665">
        <ele>6.708</ele>
        <time>2019-06-16T16:06:00Z</time>
      </trkpt>
      <trkpt lat="43.411962" lon="-3.843745">
        <ele>6.919</ele>
        <time>2019-06-16T16:06:01Z</time>
      </trkpt>
      <trkpt lat="43.411923" lon="-3.843837">
        <ele>7.273</ele>
        <time>2019-06-16T16:06:02Z</time>
      </trkpt>
      <trkpt lat="43.411898" lon="-3.843955">
        <ele>7.573</ele>
        <time>2019-06-16T16:06:03Z</time>
      </trkpt>
      <trkpt lat="43.411879" lon="-3.844100">
        <ele>7.557</ele>
        <time>2019-06-16T16:06:04Z</time>
      </trkpt>
      <trkpt lat="43.411869" lon="-3.844248">
        <ele>7.646</ele>
        <time>2019-06-16T16:06:05Z</time>
      </trkpt>
      <trkpt lat="43.411897" lon="-3.844406">
        <ele>7.516</ele>
        <time>2019-06-16T16:06:06Z</time>
      </trkpt>
      <trkpt lat="43.411932" lon="-3.844619">
        <ele>7.212</ele>
        <time>2019-06-16T16:06:07Z</time>
      </trkpt>
      <trkpt lat="43.411969" lon="-3.844824">
        <ele>6.761</ele>
        <time>2019-06-16T16:06:08Z</time>
      </trkpt>
      <trkpt lat="43.412022" lon="-3.845012">
        <ele>6.389</ele>
        <time>2019-06-16T16:06:09Z</time>
      </trkpt>
      <trkpt lat="43.412075" lon="-3.845243">
        <ele>7.806</ele>
        <time>2019-06-16T16:06:10Z</time>
      </trkpt>
      <trkpt lat="43.412131" lon="-3.845475">
        <ele>6.626</ele>
        <time>2019-06-16T16:06:11Z</time>
      </trkpt>
      <trkpt lat="43.412192" lon="-3.845715">
        <ele>6.008</ele>
        <time>2019-06-16T16:06:12Z</time>
      </trkpt>
      <trkpt lat="43.412250" lon="-3.845956">
        <ele>6.021</ele>
        <time>2019-06-16T16:06:13Z</time>
      </trkpt>
      <trkpt lat="43.412299" lon="-3.846190">
        <ele>6.055</ele>
        <time>2019-06-16T16:06:14Z</time>
      </trkpt>
      <trkpt lat="43.412356" lon="-3.846422">
        <ele>6.115</ele>
        <time>2019-06-16T16:06:15Z</time>
      </trkpt>
      <trkpt lat="43.412406" lon="-3.846668">
        <ele>6.739</ele>
        <time>2019-06-16T16:06:16Z</time>
      </trkpt>
      <trkpt lat="43.412453" lon="-3.846913">
        <ele>6.838</ele>
        <time>2019-06-16T16:06:17Z</time>
      </trkpt>
      <trkpt lat="43.412492" lon="-3.847150">
        <ele>7.088</ele>
        <time>2019-06-16T16:06:18Z</time>
      </trkpt>
      <trkpt lat="43.412506" lon="-3.847395">
        <ele>7.624</ele>
        <time>2019-06-16T16:06:19Z</time>
      </trkpt>
      <trkpt lat="43.412508" lon="-3.847653">
        <ele>8.053</ele>
        <time>2019-06-16T16:06:20Z</time>
      </trkpt>
      <trkpt lat="43.412494" lon="-3.847901">
        <ele>8.078</ele>
        <time>2019-06-16T16:06:21Z</time>
      </trkpt>
      <trkpt lat="43.412497" lon="-3.848130">
        <ele>8.333</ele>
        <time>2019-06-16T16:06:22Z</time>
      </trkpt>
      <trkpt lat="43.412507" lon="-3.848350">
        <ele>9.126</ele>
        <time>2019-06-16T16:06:23Z</time>
      </trkpt>
      <trkpt lat="43.412509" lon="-3.848587">
        <ele>9.908</ele>
        <time>2019-06-16T16:06:24Z</time>
      </trkpt>
      <trkpt lat="43.412481" lon="-3.848802">
        <ele>10.010</ele>
        <time>2019-06-16T16:06:25Z</time>
      </trkpt>
      <trkpt lat="43.412443" lon="-3.849053">
        <ele>10.384</ele>
        <time>2019-06-16T16:06:26Z</time>
      </trkpt>
      <trkpt lat="43.412391" lon="-3.849290">
        <ele>11.394</ele>
        <time>2019-06-16T16:06:27Z</time>
      </trkpt>
      <trkpt lat="43.412340" lon="-3.849524">
        <ele>12.228</ele>
        <time>2019-06-16T16:06:28Z</time>
      </trkpt>
      <trkpt lat="43.412295" lon="-3.849773">
        <ele>11.087</ele>
        <time>2019-06-16T16:06:29Z</time>
      </trkpt>
      <trkpt lat="43.412221" lon="-3.850018">
        <ele>10.987</ele>
        <time>2019-06-16T16:06:30Z</time>
      </trkpt>
      <trkpt lat="43.412147" lon="-3.850242">
        <ele>11.283</ele>
        <time>2019-06-16T16:06:31Z</time>
      </trkpt>
      <trkpt lat="43.412057" lon="-3.850465">
        <ele>11.512</ele>
        <time>2019-06-16T16:06:32Z</time>
      </trkpt>
      <trkpt lat="43.411986" lon="-3.850654">
        <ele>11.667</ele>
        <time>2019-06-16T16:06:33Z</time>
      </trkpt>
      <trkpt lat="43.411903" lon="-3.850868">
        <ele>11.681</ele>
        <time>2019-06-16T16:06:34Z</time>
      </trkpt>
      <trkpt lat="43.411827" lon="-3.851075">
        <ele>11.119</ele>
        <time>2019-06-16T16:06:35Z</time>
      </trkpt>
      <trkpt lat="43.411753" lon="-3.851259">
        <ele>10.808</ele>
        <time>2019-06-16T16:06:36Z</time>
      </trkpt>
      <trkpt lat="43.411672" lon="-3.851438">
        <ele>10.649</ele>
        <time>2019-06-16T16:06:37Z</time>
      </trkpt>
      <trkpt lat="43.411599" lon="-3.851610">
        <ele>10.143</ele>
        <time>2019-06-16T16:06:38Z</time>
      </trkpt>
      <trkpt lat="43.411525" lon="-3.851778">
        <ele>9.913</ele>
        <time>2019-06-16T16:06:39Z</time>
      </trkpt>
      <trkpt lat="43.411448" lon="-3.851942">
        <ele>10.267</ele>
        <time>2019-06-16T16:06:40Z</time>
      </trkpt>
      <trkpt lat="43.411363" lon="-3.852082">
        <ele>10.226</ele>
        <time>2019-06-16T16:06:41Z</time>
      </trkpt>
      <trkpt lat="43.411273" lon="-3.852223">
        <ele>9.856</ele>
        <time>2019-06-16T16:06:42Z</time>
      </trkpt>
      <trkpt lat="43.411179" lon="-3.852383">
        <ele>8.842</ele>
        <time>2019-06-16T16:06:43Z</time>
      </trkpt>
      <trkpt lat="43.411077" lon="-3.852529">
        <ele>8.061</ele>
        <time>2019-06-16T16:06:44Z</time>
      </trkpt>
      <trkpt lat="43.410969" lon="-3.852672">
        <ele>7.599</ele>
        <time>2019-06-16T16:06:45Z</time>
      </trkpt>
      <trkpt lat="43.410868" lon="-3.852819">
        <ele>6.607</ele>
        <time>2019-06-16T16:06:46Z</time>
      </trkpt>
      <trkpt lat="43.410774" lon="-3.852959">
        <ele>6.027</ele>
        <time>2019-06-16T16:06:47Z</time>
      </trkpt>
      <trkpt lat="43.410667" lon="-3.853100">
        <ele>5.408</ele>
        <time>2019-06-16T16:06:48Z</time>
      </trkpt>
      <trkpt lat="43.410563" lon="-3.853244">
        <ele>5.362</ele>
        <time>2019-06-16T16:06:49Z</time>
      </trkpt>
      <trkpt lat="43.410457" lon="-3.853392">
        <ele>4.796</ele>
        <time>2019-06-16T16:06:50Z</time>
      </trkpt>
      <trkpt lat="43.410360" lon="-3.853543">
        <ele>4.096</ele>
        <time>2019-06-16T16:06:51Z</time>
      </trkpt>
      <trkpt lat="43.410266" lon="-3.853694">
        <ele>4.080</ele>
        <time>2019-06-16T16:06:52Z</time>
      </trkpt>
      <trkpt lat="43.410177" lon="-3.853852">
        <ele>4.079</ele>
        <time>2019-06-16T16:06:53Z</time>
      </trkpt>
      <trkpt lat="43.410108" lon="-3.854015">
        <ele>3.829</ele>
        <time>2019-06-16T16:06:54Z</time>
      </trkpt>
      <trkpt lat="43.410049" lon="-3.854192">
        <ele>3.815</ele>
        <time>2019-06-16T16:06:55Z</time>
      </trkpt>
      <trkpt lat="43.410006" lon="-3.854384">
        <ele>4.024</ele>
        <time>2019-06-16T16:06:56Z</time>
      </trkpt>
      <trkpt lat="43.409967" lon="-3.854572">
        <ele>4.031</ele>
        <time>2019-06-16T16:06:57Z</time>
      </trkpt>
      <trkpt lat="43.409953" lon="-3.854789">
        <ele>4.061</ele>
        <time>2019-06-16T16:06:58Z</time>
      </trkpt>
      <trkpt lat="43.409907" lon="-3.855039">
        <ele>3.707</ele>
        <time>2019-06-16T16:06:59Z</time>
      </trkpt>
      <trkpt lat="43.409859" lon="-3.855285">
        <ele>3.508</ele>
        <time>2019-06-16T16:07:00Z</time>
      </trkpt>
      <trkpt lat="43.409818" lon="-3.855514">
        <ele>3.316</ele>
        <time>2019-06-16T16:07:01Z</time>
      </trkpt>
      <trkpt lat="43.409785" lon="-3.855737">
        <ele>3.240</ele>
        <time>2019-06-16T16:07:02Z</time>
      </trkpt>
      <trkpt lat="43.409760" lon="-3.855960">
        <ele>3.170</ele>
        <time>2019-06-16T16:07:03Z</time>
      </trkpt>
      <trkpt lat="43.409727" lon="-3.856186">
        <ele>3.074</ele>
        <time>2019-06-16T16:07:04Z</time>
      </trkpt>
      <trkpt lat="43.409679" lon="-3.856414">
        <ele>3.033</ele>
        <time>2019-06-16T16:07:05Z</time>
      </trkpt>
      <trkpt lat="43.409635" lon="-3.856638">
        <ele>3.023</ele>
        <time>2019-06-16T16:07:06Z</time>
      </trkpt>
      <trkpt lat="43.409579" lon="-3.856856">
        <ele>3.379</ele>
        <time>2019-06-16T16:07:07Z</time>
      </trkpt>
      <trkpt lat="43.409512" lon="-3.857076">
        <ele>3.228</ele>
        <time>2019-06-16T16:07:08Z</time>
      </trkpt>
      <trkpt lat="43.409441" lon="-3.857280">
        <ele>3.283</ele>
        <time>2019-06-16T16:07:09Z</time>
      </trkpt>
      <trkpt lat="43.409358" lon="-3.857470">
        <ele>3.625</ele>
        <time>2019-06-16T16:07:10Z</time>
      </trkpt>
      <trkpt lat="43.409283" lon="-3.857655">
        <ele>3.717</ele>
        <time>2019-06-16T16:07:11Z</time>
      </trkpt>
      <trkpt lat="43.409198" lon="-3.857837">
        <ele>3.408</ele>
        <time>2019-06-16T16:07:12Z</time>
      </trkpt>
      <trkpt lat="43.409116" lon="-3.857998">
        <ele>3.851</ele>
        <time>2019-06-16T16:07:13Z</time>
      </trkpt>
      <trkpt lat="43.409035" lon="-3.858139">
        <ele>4.375</ele>
        <time>2019-06-16T16:07:14Z</time>
      </trkpt>
      <trkpt lat="43.408946" lon="-3.858262">
        <ele>4.775</ele>
        <time>2019-06-16T16:07:15Z</time>
      </trkpt>
      <trkpt lat="43.408846" lon="-3.858359">
        <ele>5.069</ele>
        <time>2019-06-16T16:07:16Z</time>
      </trkpt>
      <trkpt lat="43.408759" lon="-3.858445">
        <ele>5.298</ele>
        <time>2019-06-16T16:07:17Z</time>
      </trkpt>
      <trkpt lat="43.408676" lon="-3.858531">
        <ele>5.598</ele>
        <time>2019-06-16T16:07:18Z</time>
      </trkpt>
      <trkpt lat="43.408604" lon="-3.858619">
        <ele>6.054</ele>
        <time>2019-06-16T16:07:19Z</time>
      </trkpt>
      <trkpt lat="43.408550" lon="-3.858709">
        <ele>6.063</ele>
        <time>2019-06-16T16:07:20Z</time>
      </trkpt>
      <trkpt lat="43.408505" lon="-3.858801">
        <ele>6.085</ele>
        <time>2019-06-16T16:07:21Z</time>
      </trkpt>
      <trkpt lat="43.408484" lon="-3.858896">
        <ele>6.089</ele>
        <time>2019-06-16T16:07:22Z</time>
      </trkpt>
      <trkpt lat="43.408480" lon="-3.858989">
        <ele>6.417</ele>
        <time>2019-06-16T16:07:23Z</time>
      </trkpt>
      <trkpt lat="43.408490" lon="-3.859093">
        <ele>6.708</ele>
        <time>2019-06-16T16:07:24Z</time>
      </trkpt>
      <trkpt lat="43.408512" lon="-3.859176">
        <ele>7.021</ele>
        <time>2019-06-16T16:07:25Z</time>
      </trkpt>
      <trkpt lat="43.408533" lon="-3.859248">
        <ele>7.065</ele>
        <time>2019-06-16T16:07:26Z</time>
      </trkpt>
      <trkpt lat="43.408540" lon="-3.859343">
        <ele>7.025</ele>
        <time>2019-06-16T16:07:27Z</time>
      </trkpt>
      <trkpt lat="43.408500" lon="-3.859476">
        <ele>7.129</ele>
        <time>2019-06-16T16:07:28Z</time>
      </trkpt>
      <trkpt lat="43.408475" lon="-3.859591">
        <ele>7.328</ele>
        <time>2019-06-16T16:07:29Z</time>
      </trkpt>
      <trkpt lat="43.408421" lon="-3.859733">
        <ele>7.398</ele>
        <time>2019-06-16T16:07:30Z</time>
      </trkpt>
      <trkpt lat="43.408342" lon="-3.859925">
        <ele>6.394</ele>
        <time>2019-06-16T16:07:31Z</time>
      </trkpt>
      <trkpt lat="43.408270" lon="-3.860090">
        <ele>6.433</ele>
        <time>2019-06-16T16:07:32Z</time>
      </trkpt>
      <trkpt lat="43.408190" lon="-3.860270">
        <ele>6.575</ele>
        <time>2019-06-16T16:07:33Z</time>
      </trkpt>
      <trkpt lat="43.408104" lon="-3.860451">
        <ele>6.228</ele>
        <time>2019-06-16T16:07:34Z</time>
      </trkpt>
      <trkpt lat="43.408023" lon="-3.860636">
        <ele>6.420</ele>
        <time>2019-06-16T16:07:35Z</time>
      </trkpt>
      <trkpt lat="43.407947" lon="-3.860821">
        <ele>7.008</ele>
        <time>2019-06-16T16:07:36Z</time>
      </trkpt>
      <trkpt lat="43.407858" lon="-3.861001">
        <ele>7.050</ele>
        <time>2019-06-16T16:07:37Z</time>
      </trkpt>
      <trkpt lat="43.407773" lon="-3.861189">
        <ele>7.044</ele>
        <time>2019-06-16T16:07:38Z</time>
      </trkpt>
      <trkpt lat="43.407681" lon="-3.861372">
        <ele>7.014</ele>
        <time>2019-06-16T16:07:39Z</time>
      </trkpt>
      <trkpt lat="43.407593" lon="-3.861559">
        <ele>7.058</ele>
        <time>2019-06-16T16:07:40Z</time>
      </trkpt>
      <trkpt lat="43.407506" lon="-3.861746">
        <ele>7.047</ele>
        <time>2019-06-16T16:07:41Z</time>
      </trkpt>
      <trkpt lat="43.407427" lon="-3.861938">
        <ele>7.097</ele>
        <time>2019-06-16T16:07:42Z</time>
      </trkpt>
      <trkpt lat="43.407338" lon="-3.862126">
        <ele>7.013</ele>
        <time>2019-06-16T16:07:43Z</time>
      </trkpt>
      <trkpt lat="43.407251" lon="-3.862313">
        <ele>7.032</ele>
        <time>2019-06-16T16:07:44Z</time>
      </trkpt>
      <trkpt lat="43.407171" lon="-3.862506">
        <ele>7.016</ele>
        <time>2019-06-16T16:07:45Z</time>
      </trkpt>
      <trkpt lat="43.407102" lon="-3.862718">
        <ele>7.076</ele>
        <time>2019-06-16T16:07:46Z</time>
      </trkpt>
      <trkpt lat="43.407043" lon="-3.862928">
        <ele>7.313</ele>
        <time>2019-06-16T16:07:47Z</time>
      </trkpt>
      <trkpt lat="43.406992" lon="-3.863144">
        <ele>7.908</ele>
        <time>2019-06-16T16:07:48Z</time>
      </trkpt>
      <trkpt lat="43.406947" lon="-3.863367">
        <ele>8.074</ele>
        <time>2019-06-16T16:07:49Z</time>
      </trkpt>
      <trkpt lat="43.406891" lon="-3.863599">
        <ele>7.868</ele>
        <time>2019-06-16T16:07:50Z</time>
      </trkpt>
      <trkpt lat="43.406833" lon="-3.863826">
        <ele>7.698</ele>
        <time>2019-06-16T16:07:51Z</time>
      </trkpt>
      <trkpt lat="43.406773" lon="-3.864055">
        <ele>7.852</ele>
        <time>2019-06-16T16:07:52Z</time>
      </trkpt>
      <trkpt lat="43.406712" lon="-3.864270">
        <ele>8.121</ele>
        <time>2019-06-16T16:07:53Z</time>
      </trkpt>
      <trkpt lat="43.406655" lon="-3.864488">
        <ele>8.071</ele>
        <time>2019-06-16T16:07:54Z</time>
      </trkpt>
      <trkpt lat="43.406597" lon="-3.864712">
        <ele>8.057</ele>
        <time>2019-06-16T16:07:55Z</time>
      </trkpt>
      <trkpt lat="43.406543" lon="-3.864934">
        <ele>8.446</ele>
        <time>2019-06-16T16:07:56Z</time>
      </trkpt>
      <trkpt lat="43.406499" lon="-3.865121">
        <ele>8.468</ele>
        <time>2019-06-16T16:07:57Z</time>
      </trkpt>
      <trkpt lat="43.406453" lon="-3.865320">
        <ele>8.242</ele>
        <time>2019-06-16T16:07:58Z</time>
      </trkpt>
      <trkpt lat="43.406408" lon="-3.865512">
        <ele>8.126</ele>
        <time>2019-06-16T16:07:59Z</time>
      </trkpt>
      <trkpt lat="43.406360" lon="-3.865703">
        <ele>8.508</ele>
        <time>2019-06-16T16:08:00Z</time>
      </trkpt>
      <trkpt lat="43.406311" lon="-3.865876">
        <ele>9.019</ele>
        <time>2019-06-16T16:08:01Z</time>
      </trkpt>
      <trkpt lat="43.406264" lon="-3.866047">
        <ele>9.083</ele>
        <time>2019-06-16T16:08:02Z</time>
      </trkpt>
      <trkpt lat="43.406219" lon="-3.866225">
        <ele>9.083</ele>
        <time>2019-06-16T16:08:03Z</time>
      </trkpt>
      <trkpt lat="43.406179" lon="-3.866408">
        <ele>9.087</ele>
        <time>2019-06-16T16:08:04Z</time>
      </trkpt>
      <trkpt lat="43.406141" lon="-3.866579">
        <ele>9.146</ele>
        <time>2019-06-16T16:08:05Z</time>
      </trkpt>
      <trkpt lat="43.406090" lon="-3.866768">
        <ele>9.056</ele>
        <time>2019-06-16T16:08:06Z</time>
      </trkpt>
      <trkpt lat="43.406037" lon="-3.866953">
        <ele>9.022</ele>
        <time>2019-06-16T16:08:07Z</time>
      </trkpt>
      <trkpt lat="43.405984" lon="-3.867139">
        <ele>9.021</ele>
        <time>2019-06-16T16:08:08Z</time>
      </trkpt>
      <trkpt lat="43.405923" lon="-3.867325">
        <ele>9.154</ele>
        <time>2019-06-16T16:08:09Z</time>
      </trkpt>
      <trkpt lat="43.405871" lon="-3.867509">
        <ele>9.156</ele>
        <time>2019-06-16T16:08:10Z</time>
      </trkpt>
      <trkpt lat="43.405814" lon="-3.867694">
        <ele>9.011</ele>
        <time>2019-06-16T16:08:11Z</time>
      </trkpt>
      <trkpt lat="43.405694" lon="-3.867842">
        <ele>9.008</ele>
        <time>2019-06-16T16:08:12Z</time>
      </trkpt>
      <trkpt lat="43.405607" lon="-3.868009">
        <ele>9.028</ele>
        <time>2019-06-16T16:08:13Z</time>
      </trkpt>
      <trkpt lat="43.405520" lon="-3.868165">
        <ele>9.112</ele>
        <time>2019-06-16T16:08:14Z</time>
      </trkpt>
      <trkpt lat="43.405434" lon="-3.868316">
        <ele>9.432</ele>
        <time>2019-06-16T16:08:15Z</time>
      </trkpt>
      <trkpt lat="43.405357" lon="-3.868452">
        <ele>9.416</ele>
        <time>2019-06-16T16:08:16Z</time>
      </trkpt>
      <trkpt lat="43.405281" lon="-3.868603">
        <ele>9.065</ele>
        <time>2019-06-16T16:08:17Z</time>
      </trkpt>
      <trkpt lat="43.405208" lon="-3.868745">
        <ele>9.585</ele>
        <time>2019-06-16T16:08:18Z</time>
      </trkpt>
      <trkpt lat="43.405151" lon="-3.868881">
        <ele>9.541</ele>
        <time>2019-06-16T16:08:19Z</time>
      </trkpt>
      <trkpt lat="43.405079" lon="-3.869004">
        <ele>9.210</ele>
        <time>2019-06-16T16:08:20Z</time>
      </trkpt>
      <trkpt lat="43.405007" lon="-3.869137">
        <ele>9.057</ele>
        <time>2019-06-16T16:08:21Z</time>
      </trkpt>
      <trkpt lat="43.404938" lon="-3.869253">
        <ele>9.200</ele>
        <time>2019-06-16T16:08:22Z</time>
      </trkpt>
      <trkpt lat="43.404872" lon="-3.869372">
        <ele>9.420</ele>
        <time>2019-06-16T16:08:23Z</time>
      </trkpt>
      <trkpt lat="43.404812" lon="-3.869492">
        <ele>9.408</ele>
        <time>2019-06-16T16:08:24Z</time>
      </trkpt>
      <trkpt lat="43.404755" lon="-3.869600">
        <ele>9.668</ele>
        <time>2019-06-16T16:08:25Z</time>
      </trkpt>
      <trkpt lat="43.404696" lon="-3.869707">
        <ele>9.982</ele>
        <time>2019-06-16T16:08:26Z</time>
      </trkpt>
      <trkpt lat="43.404655" lon="-3.869786">
        <ele>10.032</ele>
        <time>2019-06-16T16:08:27Z</time>
      </trkpt>
      <trkpt lat="43.404604" lon="-3.869859">
        <ele>10.046</ele>
        <time>2019-06-16T16:08:28Z</time>
      </trkpt>
      <trkpt lat="43.404572" lon="-3.869949">
        <ele>10.095</ele>
        <time>2019-06-16T16:08:29Z</time>
      </trkpt>
      <trkpt lat="43.404548" lon="-3.870042">
        <ele>10.445</ele>
        <time>2019-06-16T16:08:30Z</time>
      </trkpt>
      <trkpt lat="43.404577" lon="-3.870102">
        <ele>10.931</ele>
        <time>2019-06-16T16:08:31Z</time>
      </trkpt>
      <trkpt lat="43.404602" lon="-3.870199">
        <ele>11.860</ele>
        <time>2019-06-16T16:08:32Z</time>
      </trkpt>
      <trkpt lat="43.404628" lon="-3.870290">
        <ele>12.626</ele>
        <time>2019-06-16T16:08:33Z</time>
      </trkpt>
      <trkpt lat="43.404651" lon="-3.870387">
        <ele>12.647</ele>
        <time>2019-06-16T16:08:34Z</time>
      </trkpt>
      <trkpt lat="43.404638" lon="-3.870581">
        <ele>12.311</ele>
        <time>2019-06-16T16:08:36Z</time>
      </trkpt>
      <trkpt lat="43.404517" lon="-3.870717">
        <ele>11.208</ele>
        <time>2019-06-16T16:08:37Z</time>
      </trkpt>
      <trkpt lat="43.404405" lon="-3.870754">
        <ele>11.075</ele>
        <time>2019-06-16T16:08:38Z</time>
      </trkpt>
      <trkpt lat="43.404321" lon="-3.870821">
        <ele>11.089</ele>
        <time>2019-06-16T16:08:39Z</time>
      </trkpt>
      <trkpt lat="43.404198" lon="-3.870894">
        <ele>11.019</ele>
        <time>2019-06-16T16:08:40Z</time>
      </trkpt>
      <trkpt lat="43.404123" lon="-3.870977">
        <ele>10.823</ele>
        <time>2019-06-16T16:08:41Z</time>
      </trkpt>
      <trkpt lat="43.404021" lon="-3.871111">
        <ele>10.532</ele>
        <time>2019-06-16T16:08:42Z</time>
      </trkpt>
      <trkpt lat="43.403931" lon="-3.871265">
        <ele>10.762</ele>
        <time>2019-06-16T16:08:43Z</time>
      </trkpt>
      <trkpt lat="43.403849" lon="-3.871421">
        <ele>11.168</ele>
        <time>2019-06-16T16:08:44Z</time>
      </trkpt>
      <trkpt lat="43.403784" lon="-3.871576">
        <ele>11.477</ele>
        <time>2019-06-16T16:08:45Z</time>
      </trkpt>
      <trkpt lat="43.403722" lon="-3.871736">
        <ele>11.968</ele>
        <time>2019-06-16T16:08:46Z</time>
      </trkpt>
      <trkpt lat="43.403653" lon="-3.871905">
        <ele>12.942</ele>
        <time>2019-06-16T16:08:47Z</time>
      </trkpt>
      <trkpt lat="43.403587" lon="-3.872062">
        <ele>13.326</ele>
        <time>2019-06-16T16:08:48Z</time>
      </trkpt>
      <trkpt lat="43.403516" lon="-3.872241">
        <ele>13.408</ele>
        <time>2019-06-16T16:08:49Z</time>
      </trkpt>
      <trkpt lat="43.403442" lon="-3.872420">
        <ele>13.839</ele>
        <time>2019-06-16T16:08:50Z</time>
      </trkpt>
      <trkpt lat="43.403371" lon="-3.872581">
        <ele>14.063</ele>
        <time>2019-06-16T16:08:51Z</time>
      </trkpt>
      <trkpt lat="43.403300" lon="-3.872762">
        <ele>14.763</ele>
        <time>2019-06-16T16:08:52Z</time>
      </trkpt>
      <trkpt lat="43.403267" lon="-3.872923">
        <ele>15.217</ele>
        <time>2019-06-16T16:08:53Z</time>
      </trkpt>
      <trkpt lat="43.403220" lon="-3.873109">
        <ele>15.656</ele>
        <time>2019-06-16T16:08:54Z</time>
      </trkpt>
      <trkpt lat="43.403182" lon="-3.873305">
        <ele>15.586</ele>
        <time>2019-06-16T16:08:55Z</time>
      </trkpt>
      <trkpt lat="43.403160" lon="-3.873510">
        <ele>15.052</ele>
        <time>2019-06-16T16:08:56Z</time>
      </trkpt>
      <trkpt lat="43.403141" lon="-3.873725">
        <ele>14.541</ele>
        <time>2019-06-16T16:08:57Z</time>
      </trkpt>
      <trkpt lat="43.403123" lon="-3.873939">
        <ele>14.247</ele>
        <time>2019-06-16T16:08:58Z</time>
      </trkpt>
      <trkpt lat="43.403107" lon="-3.874166">
        <ele>14.029</ele>
        <time>2019-06-16T16:08:59Z</time>
      </trkpt>
      <trkpt lat="43.403070" lon="-3.874402">
        <ele>13.221</ele>
        <time>2019-06-16T16:09:00Z</time>
      </trkpt>
      <trkpt lat="43.403043" lon="-3.874623">
        <ele>13.608</ele>
        <time>2019-06-16T16:09:01Z</time>
      </trkpt>
      <trkpt lat="43.403017" lon="-3.874795">
        <ele>13.587</ele>
        <time>2019-06-16T16:09:02Z</time>
      </trkpt>
      <trkpt lat="43.402985" lon="-3.874970">
        <ele>12.891</ele>
        <time>2019-06-16T16:09:03Z</time>
      </trkpt>
      <trkpt lat="43.402953" lon="-3.875164">
        <ele>12.621</ele>
        <time>2019-06-16T16:09:04Z</time>
      </trkpt>
      <trkpt lat="43.402911" lon="-3.875358">
        <ele>12.875</ele>
        <time>2019-06-16T16:09:05Z</time>
      </trkpt>
      <trkpt lat="43.402874" lon="-3.875560">
        <ele>13.784</ele>
        <time>2019-06-16T16:09:06Z</time>
      </trkpt>
      <trkpt lat="43.402837" lon="-3.875762">
        <ele>13.934</ele>
        <time>2019-06-16T16:09:07Z</time>
      </trkpt>
      <trkpt lat="43.402802" lon="-3.875972">
        <ele>14.070</ele>
        <time>2019-06-16T16:09:08Z</time>
      </trkpt>
      <trkpt lat="43.402772" lon="-3.876198">
        <ele>14.099</ele>
        <time>2019-06-16T16:09:09Z</time>
      </trkpt>
      <trkpt lat="43.402742" lon="-3.876411">
        <ele>14.177</ele>
        <time>2019-06-16T16:09:10Z</time>
      </trkpt>
      <trkpt lat="43.402722" lon="-3.876626">
        <ele>14.261</ele>
        <time>2019-06-16T16:09:11Z</time>
      </trkpt>
      <trkpt lat="43.402699" lon="-3.876836">
        <ele>14.527</ele>
        <time>2019-06-16T16:09:12Z</time>
      </trkpt>
      <trkpt lat="43.402680" lon="-3.877071">
        <ele>14.608</ele>
        <time>2019-06-16T16:09:13Z</time>
      </trkpt>
      <trkpt lat="43.402671" lon="-3.877310">
        <ele>14.630</ele>
        <time>2019-06-16T16:09:14Z</time>
      </trkpt>
      <trkpt lat="43.402659" lon="-3.877543">
        <ele>14.694</ele>
        <time>2019-06-16T16:09:15Z</time>
      </trkpt>
      <trkpt lat="43.402650" lon="-3.877789">
        <ele>14.674</ele>
        <time>2019-06-16T16:09:16Z</time>
      </trkpt>
      <trkpt lat="43.402645" lon="-3.878028">
        <ele>15.038</ele>
        <time>2019-06-16T16:09:17Z</time>
      </trkpt>
      <trkpt lat="43.402630" lon="-3.878279">
        <ele>14.627</ele>
        <time>2019-06-16T16:09:18Z</time>
      </trkpt>
      <trkpt lat="43.402628" lon="-3.878517">
        <ele>14.557</ele>
        <time>2019-06-16T16:09:19Z</time>
      </trkpt>
      <trkpt lat="43.402622" lon="-3.878756">
        <ele>14.773</ele>
        <time>2019-06-16T16:09:20Z</time>
      </trkpt>
      <trkpt lat="43.402613" lon="-3.878994">
        <ele>15.272</ele>
        <time>2019-06-16T16:09:21Z</time>
      </trkpt>
      <trkpt lat="43.402595" lon="-3.879236">
        <ele>15.798</ele>
        <time>2019-06-16T16:09:22Z</time>
      </trkpt>
      <trkpt lat="43.402587" lon="-3.879478">
        <ele>15.715</ele>
        <time>2019-06-16T16:09:23Z</time>
      </trkpt>
      <trkpt lat="43.402576" lon="-3.879730">
        <ele>16.026</ele>
        <time>2019-06-16T16:09:24Z</time>
      </trkpt>
      <trkpt lat="43.402566" lon="-3.879984">
        <ele>16.708</ele>
        <time>2019-06-16T16:09:25Z</time>
      </trkpt>
      <trkpt lat="43.402554" lon="-3.880258">
        <ele>17.042</ele>
        <time>2019-06-16T16:09:26Z</time>
      </trkpt>
      <trkpt lat="43.402544" lon="-3.880526">
        <ele>16.996</ele>
        <time>2019-06-16T16:09:27Z</time>
      </trkpt>
      <trkpt lat="43.402531" lon="-3.880803">
        <ele>17.016</ele>
        <time>2019-06-16T16:09:28Z</time>
      </trkpt>
      <trkpt lat="43.402511" lon="-3.881082">
        <ele>17.070</ele>
        <time>2019-06-16T16:09:29Z</time>
      </trkpt>
      <trkpt lat="43.402482" lon="-3.881362">
        <ele>16.939</ele>
        <time>2019-06-16T16:09:30Z</time>
      </trkpt>
      <trkpt lat="43.402445" lon="-3.881634">
        <ele>17.559</ele>
        <time>2019-06-16T16:09:31Z</time>
      </trkpt>
      <trkpt lat="43.402396" lon="-3.881915">
        <ele>17.935</ele>
        <time>2019-06-16T16:09:32Z</time>
      </trkpt>
      <trkpt lat="43.402343" lon="-3.882187">
        <ele>17.584</ele>
        <time>2019-06-16T16:09:33Z</time>
      </trkpt>
      <trkpt lat="43.402301" lon="-3.882444">
        <ele>17.952</ele>
        <time>2019-06-16T16:09:34Z</time>
      </trkpt>
      <trkpt lat="43.402250" lon="-3.882700">
        <ele>18.053</ele>
        <time>2019-06-16T16:09:35Z</time>
      </trkpt>
      <trkpt lat="43.402208" lon="-3.882945">
        <ele>18.008</ele>
        <time>2019-06-16T16:09:36Z</time>
      </trkpt>
      <trkpt lat="43.402168" lon="-3.883187">
        <ele>18.608</ele>
        <time>2019-06-16T16:09:37Z</time>
      </trkpt>
      <trkpt lat="43.402128" lon="-3.883428">
        <ele>19.538</ele>
        <time>2019-06-16T16:09:38Z</time>
      </trkpt>
      <trkpt lat="43.402089" lon="-3.883660">
        <ele>20.022</ele>
        <time>2019-06-16T16:09:39Z</time>
      </trkpt>
      <trkpt lat="43.402054" lon="-3.883886">
        <ele>20.822</ele>
        <time>2019-06-16T16:09:40Z</time>
      </trkpt>
      <trkpt lat="43.402026" lon="-3.884098">
        <ele>22.536</ele>
        <time>2019-06-16T16:09:41Z</time>
      </trkpt>
      <trkpt lat="43.402004" lon="-3.884312">
        <ele>24.015</ele>
        <time>2019-06-16T16:09:42Z</time>
      </trkpt>
      <trkpt lat="43.401994" lon="-3.884517">
        <ele>25.565</ele>
        <time>2019-06-16T16:09:43Z</time>
      </trkpt>
      <trkpt lat="43.402010" lon="-3.884745">
        <ele>26.991</ele>
        <time>2019-06-16T16:09:44Z</time>
      </trkpt>
      <trkpt lat="43.402052" lon="-3.884963">
        <ele>28.040</ele>
        <time>2019-06-16T16:09:45Z</time>
      </trkpt>
      <trkpt lat="43.402092" lon="-3.885173">
        <ele>29.896</ele>
        <time>2019-06-16T16:09:46Z</time>
      </trkpt>
      <trkpt lat="43.402130" lon="-3.885377">
        <ele>31.131</ele>
        <time>2019-06-16T16:09:47Z</time>
      </trkpt>
      <trkpt lat="43.402193" lon="-3.885582">
        <ele>31.624</ele>
        <time>2019-06-16T16:09:48Z</time>
      </trkpt>
      <trkpt lat="43.402235" lon="-3.885785">
        <ele>33.408</ele>
        <time>2019-06-16T16:09:49Z</time>
      </trkpt>
      <trkpt lat="43.402249" lon="-3.885960">
        <ele>34.232</ele>
        <time>2019-06-16T16:09:50Z</time>
      </trkpt>
      <trkpt lat="43.402215" lon="-3.886105">
        <ele>35.046</ele>
        <time>2019-06-16T16:09:51Z</time>
      </trkpt>
      <trkpt lat="43.402161" lon="-3.886223">
        <ele>35.556</ele>
        <time>2019-06-16T16:09:52Z</time>
      </trkpt>
      <trkpt lat="43.402079" lon="-3.886327">
        <ele>36.460</ele>
        <time>2019-06-16T16:09:53Z</time>
      </trkpt>
      <trkpt lat="43.401991" lon="-3.886433">
        <ele>37.519</ele>
        <time>2019-06-16T16:09:54Z</time>
      </trkpt>
      <trkpt lat="43.401907" lon="-3.886535">
        <ele>38.489</ele>
        <time>2019-06-16T16:09:55Z</time>
      </trkpt>
      <trkpt lat="43.401830" lon="-3.886649">
        <ele>39.285</ele>
        <time>2019-06-16T16:09:56Z</time>
      </trkpt>
      <trkpt lat="43.401756" lon="-3.886772">
        <ele>39.864</ele>
        <time>2019-06-16T16:09:57Z</time>
      </trkpt>
      <trkpt lat="43.401678" lon="-3.886918">
        <ele>40.027</ele>
        <time>2019-06-16T16:09:58Z</time>
      </trkpt>
      <trkpt lat="43.401591" lon="-3.887068">
        <ele>40.268</ele>
        <time>2019-06-16T16:09:59Z</time>
      </trkpt>
      <trkpt lat="43.401500" lon="-3.887204">
        <ele>40.814</ele>
        <time>2019-06-16T16:10:00Z</time>
      </trkpt>
      <trkpt lat="43.401384" lon="-3.887328">
        <ele>41.308</ele>
        <time>2019-06-16T16:10:01Z</time>
      </trkpt>
      <trkpt lat="43.401264" lon="-3.887443">
        <ele>41.135</ele>
        <time>2019-06-16T16:10:02Z</time>
      </trkpt>
      <trkpt lat="43.401142" lon="-3.887559">
        <ele>41.379</ele>
        <time>2019-06-16T16:10:03Z</time>
      </trkpt>
      <trkpt lat="43.401017" lon="-3.887664">
        <ele>41.489</ele>
        <time>2019-06-16T16:10:04Z</time>
      </trkpt>
      <trkpt lat="43.400894" lon="-3.887763">
        <ele>42.343</ele>
        <time>2019-06-16T16:10:05Z</time>
      </trkpt>
      <trkpt lat="43.400777" lon="-3.887862">
        <ele>42.192</ele>
        <time>2019-06-16T16:10:06Z</time>
      </trkpt>
      <trkpt lat="43.400653" lon="-3.887965">
        <ele>42.192</ele>
        <time>2019-06-16T16:10:07Z</time>
      </trkpt>
      <trkpt lat="43.400531" lon="-3.888067">
        <ele>42.878</ele>
        <time>2019-06-16T16:10:08Z</time>
      </trkpt>
      <trkpt lat="43.400408" lon="-3.888168">
        <ele>41.937</ele>
        <time>2019-06-16T16:10:09Z</time>
      </trkpt>
      <trkpt lat="43.400289" lon="-3.888265">
        <ele>41.987</ele>
        <time>2019-06-16T16:10:10Z</time>
      </trkpt>
      <trkpt lat="43.400180" lon="-3.888366">
        <ele>41.742</ele>
        <time>2019-06-16T16:10:11Z</time>
      </trkpt>
      <trkpt lat="43.400089" lon="-3.888487">
        <ele>41.126</ele>
        <time>2019-06-16T16:10:12Z</time>
      </trkpt>
      <trkpt lat="43.400005" lon="-3.888631">
        <ele>41.008</ele>
        <time>2019-06-16T16:10:13Z</time>
      </trkpt>
      <trkpt lat="43.399968" lon="-3.888815">
        <ele>41.031</ele>
        <time>2019-06-16T16:10:14Z</time>
      </trkpt>
      <trkpt lat="43.399938" lon="-3.888995">
        <ele>41.675</ele>
        <time>2019-06-16T16:10:15Z</time>
      </trkpt>
      <trkpt lat="43.399914" lon="-3.889194">
        <ele>42.695</ele>
        <time>2019-06-16T16:10:16Z</time>
      </trkpt>
      <trkpt lat="43.399875" lon="-3.889398">
        <ele>43.849</ele>
        <time>2019-06-16T16:10:17Z</time>
      </trkpt>
      <trkpt lat="43.399823" lon="-3.889601">
        <ele>45.838</ele>
        <time>2019-06-16T16:10:18Z</time>
      </trkpt>
      <trkpt lat="43.399770" lon="-3.889796">
        <ele>47.748</ele>
        <time>2019-06-16T16:10:19Z</time>
      </trkpt>
      <trkpt lat="43.399681" lon="-3.889980">
        <ele>48.674</ele>
        <time>2019-06-16T16:10:20Z</time>
      </trkpt>
      <trkpt lat="43.399573" lon="-3.890140">
        <ele>51.733</ele>
        <time>2019-06-16T16:10:21Z</time>
      </trkpt>
      <trkpt lat="43.399463" lon="-3.890278">
        <ele>52.734</ele>
        <time>2019-06-16T16:10:22Z</time>
      </trkpt>
      <trkpt lat="43.399345" lon="-3.890409">
        <ele>56.155</ele>
        <time>2019-06-16T16:10:23Z</time>
      </trkpt>
      <trkpt lat="43.399226" lon="-3.890534">
        <ele>55.110</ele>
        <time>2019-06-16T16:10:24Z</time>
      </trkpt>
      <trkpt lat="43.399109" lon="-3.890642">
        <ele>53.708</ele>
        <time>2019-06-16T16:10:25Z</time>
      </trkpt>
      <trkpt lat="43.398999" lon="-3.890775">
        <ele>54.886</ele>
        <time>2019-06-16T16:10:26Z</time>
      </trkpt>
      <trkpt lat="43.398877" lon="-3.890931">
        <ele>54.940</ele>
        <time>2019-06-16T16:10:27Z</time>
      </trkpt>
      <trkpt lat="43.398764" lon="-3.891060">
        <ele>56.110</ele>
        <time>2019-06-16T16:10:28Z</time>
      </trkpt>
      <trkpt lat="43.398657" lon="-3.891199">
        <ele>56.914</ele>
        <time>2019-06-16T16:10:29Z</time>
      </trkpt>
      <trkpt lat="43.398560" lon="-3.891365">
        <ele>57.193</ele>
        <time>2019-06-16T16:10:30Z</time>
      </trkpt>
      <trkpt lat="43.398445" lon="-3.891529">
        <ele>58.553</ele>
        <time>2019-06-16T16:10:31Z</time>
      </trkpt>
      <trkpt lat="43.398342" lon="-3.891676">
        <ele>58.479</ele>
        <time>2019-06-16T16:10:32Z</time>
      </trkpt>
      <trkpt lat="43.398251" lon="-3.891823">
        <ele>59.928</ele>
        <time>2019-06-16T16:10:33Z</time>
      </trkpt>
      <trkpt lat="43.398188" lon="-3.891982">
        <ele>61.475</ele>
        <time>2019-06-16T16:10:34Z</time>
      </trkpt>
      <trkpt lat="43.398117" lon="-3.892138">
        <ele>61.328</ele>
        <time>2019-06-16T16:10:35Z</time>
      </trkpt>
      <trkpt lat="43.398052" lon="-3.892300">
        <ele>60.820</ele>
        <time>2019-06-16T16:10:36Z</time>
      </trkpt>
      <trkpt lat="43.398014" lon="-3.892472">
        <ele>61.808</ele>
        <time>2019-06-16T16:10:37Z</time>
      </trkpt>
      <trkpt lat="43.398045" lon="-3.892669">
        <ele>62.850</ele>
        <time>2019-06-16T16:10:38Z</time>
      </trkpt>
      <trkpt lat="43.398041" lon="-3.892874">
        <ele>62.884</ele>
        <time>2019-06-16T16:10:39Z</time>
      </trkpt>
      <trkpt lat="43.398042" lon="-3.893083">
        <ele>62.834</ele>
        <time>2019-06-16T16:10:40Z</time>
      </trkpt>
      <trkpt lat="43.398063" lon="-3.893253">
        <ele>63.258</ele>
        <time>2019-06-16T16:10:41Z</time>
      </trkpt>
      <trkpt lat="43.398071" lon="-3.893428">
        <ele>63.437</ele>
        <time>2019-06-16T16:10:42Z</time>
      </trkpt>
      <trkpt lat="43.398075" lon="-3.893604">
        <ele>63.627</ele>
        <time>2019-06-16T16:10:43Z</time>
      </trkpt>
      <trkpt lat="43.398083" lon="-3.893775">
        <ele>62.983</ele>
        <time>2019-06-16T16:10:44Z</time>
      </trkpt>
      <trkpt lat="43.398087" lon="-3.893964">
        <ele>62.022</ele>
        <time>2019-06-16T16:10:45Z</time>
      </trkpt>
      <trkpt lat="43.398096" lon="-3.894163">
        <ele>61.054</ele>
        <time>2019-06-16T16:10:46Z</time>
      </trkpt>
      <trkpt lat="43.398109" lon="-3.894376">
        <ele>60.156</ele>
        <time>2019-06-16T16:10:47Z</time>
      </trkpt>
      <trkpt lat="43.398120" lon="-3.894592">
        <ele>59.211</ele>
        <time>2019-06-16T16:10:48Z</time>
      </trkpt>
      <trkpt lat="43.398126" lon="-3.894806">
        <ele>58.508</ele>
        <time>2019-06-16T16:10:49Z</time>
      </trkpt>
      <trkpt lat="43.398132" lon="-3.894976">
        <ele>58.058</ele>
        <time>2019-06-16T16:10:50Z</time>
      </trkpt>
      <trkpt lat="43.398102" lon="-3.895189">
        <ele>56.292</ele>
        <time>2019-06-16T16:10:51Z</time>
      </trkpt>
      <trkpt lat="43.398040" lon="-3.895408">
        <ele>54.912</ele>
        <time>2019-06-16T16:10:52Z</time>
      </trkpt>
      <trkpt lat="43.397972" lon="-3.895610">
        <ele>54.066</ele>
        <time>2019-06-16T16:10:53Z</time>
      </trkpt>
      <trkpt lat="43.397901" lon="-3.895808">
        <ele>53.075</ele>
        <time>2019-06-16T16:10:54Z</time>
      </trkpt>
      <trkpt lat="43.397856" lon="-3.896009">
        <ele>51.715</ele>
        <time>2019-06-16T16:10:55Z</time>
      </trkpt>
      <trkpt lat="43.397813" lon="-3.896208">
        <ele>51.191</ele>
        <time>2019-06-16T16:10:56Z</time>
      </trkpt>
      <trkpt lat="43.397780" lon="-3.896407">
        <ele>50.960</ele>
        <time>2019-06-16T16:10:57Z</time>
      </trkpt>
      <trkpt lat="43.397779" lon="-3.896617">
        <ele>50.298</ele>
        <time>2019-06-16T16:10:58Z</time>
      </trkpt>
      <trkpt lat="43.397893" lon="-3.896844">
        <ele>49.715</ele>
        <time>2019-06-16T16:10:59Z</time>
      </trkpt>
      <trkpt lat="43.397979" lon="-3.897058">
        <ele>50.426</ele>
        <time>2019-06-16T16:11:00Z</time>
      </trkpt>
      <trkpt lat="43.398051" lon="-3.897273">
        <ele>51.208</ele>
        <time>2019-06-16T16:11:01Z</time>
      </trkpt>
      <trkpt lat="43.398130" lon="-3.897493">
        <ele>51.762</ele>
        <time>2019-06-16T16:11:02Z</time>
      </trkpt>
      <trkpt lat="43.398205" lon="-3.897711">
        <ele>51.916</ele>
        <time>2019-06-16T16:11:03Z</time>
      </trkpt>
      <trkpt lat="43.398271" lon="-3.897925">
        <ele>52.126</ele>
        <time>2019-06-16T16:11:04Z</time>
      </trkpt>
      <trkpt lat="43.398345" lon="-3.898133">
        <ele>52.350</ele>
        <time>2019-06-16T16:11:05Z</time>
      </trkpt>
      <trkpt lat="43.398414" lon="-3.898340">
        <ele>53.039</ele>
        <time>2019-06-16T16:11:06Z</time>
      </trkpt>
      <trkpt lat="43.398483" lon="-3.898533">
        <ele>53.359</ele>
        <time>2019-06-16T16:11:07Z</time>
      </trkpt>
      <trkpt lat="43.398552" lon="-3.898726">
        <ele>53.385</ele>
        <time>2019-06-16T16:11:08Z</time>
      </trkpt>
      <trkpt lat="43.398602" lon="-3.898871">
        <ele>53.144</ele>
        <time>2019-06-16T16:11:09Z</time>
      </trkpt>
      <trkpt lat="43.398701" lon="-3.898983">
        <ele>52.972</ele>
        <time>2019-06-16T16:11:10Z</time>
      </trkpt>
      <trkpt lat="43.398776" lon="-3.899110">
        <ele>52.713</ele>
        <time>2019-06-16T16:11:11Z</time>
      </trkpt>
      <trkpt lat="43.398851" lon="-3.899253">
        <ele>53.014</ele>
        <time>2019-06-16T16:11:12Z</time>
      </trkpt>
      <trkpt lat="43.398932" lon="-3.899418">
        <ele>53.408</ele>
        <time>2019-06-16T16:11:13Z</time>
      </trkpt>
      <trkpt lat="43.399027" lon="-3.899568">
        <ele>53.660</ele>
        <time>2019-06-16T16:11:14Z</time>
      </trkpt>
      <trkpt lat="43.399140" lon="-3.899771">
        <ele>53.614</ele>
        <time>2019-06-16T16:11:15Z</time>
      </trkpt>
      <trkpt lat="43.399250" lon="-3.899953">
        <ele>53.214</ele>
        <time>2019-06-16T16:11:16Z</time>
      </trkpt>
      <trkpt lat="43.399359" lon="-3.900137">
        <ele>52.128</ele>
        <time>2019-06-16T16:11:17Z</time>
      </trkpt>
      <trkpt lat="43.399473" lon="-3.900316">
        <ele>51.127</ele>
        <time>2019-06-16T16:11:18Z</time>
      </trkpt>
      <trkpt lat="43.399575" lon="-3.900524">
        <ele>51.147</ele>
        <time>2019-06-16T16:11:19Z</time>
      </trkpt>
      <trkpt lat="43.399672" lon="-3.900741">
        <ele>51.073</ele>
        <time>2019-06-16T16:11:20Z</time>
      </trkpt>
      <trkpt lat="43.399748" lon="-3.900970">
        <ele>51.012</ele>
        <time>2019-06-16T16:11:21Z</time>
      </trkpt>
      <trkpt lat="43.399822" lon="-3.901204">
        <ele>51.018</ele>
        <time>2019-06-16T16:11:22Z</time>
      </trkpt>
      <trkpt lat="43.399890" lon="-3.901431">
        <ele>51.498</ele>
        <time>2019-06-16T16:11:23Z</time>
      </trkpt>
      <trkpt lat="43.399957" lon="-3.901661">
        <ele>51.217</ele>
        <time>2019-06-16T16:11:24Z</time>
      </trkpt>
      <trkpt lat="43.400016" lon="-3.901890">
        <ele>50.908</ele>
        <time>2019-06-16T16:11:25Z</time>
      </trkpt>
      <trkpt lat="43.400080" lon="-3.902096">
        <ele>50.974</ele>
        <time>2019-06-16T16:11:26Z</time>
      </trkpt>
      <trkpt lat="43.400138" lon="-3.902275">
        <ele>51.068</ele>
        <time>2019-06-16T16:11:27Z</time>
      </trkpt>
      <trkpt lat="43.400183" lon="-3.902459">
        <ele>51.068</ele>
        <time>2019-06-16T16:11:28Z</time>
      </trkpt>
      <trkpt lat="43.400234" lon="-3.902595">
        <ele>51.162</ele>
        <time>2019-06-16T16:11:29Z</time>
      </trkpt>
      <trkpt lat="43.400280" lon="-3.902725">
        <ele>51.041</ele>
        <time>2019-06-16T16:11:30Z</time>
      </trkpt>
      <trkpt lat="43.400323" lon="-3.902853">
        <ele>51.131</ele>
        <time>2019-06-16T16:11:31Z</time>
      </trkpt>
      <trkpt lat="43.400364" lon="-3.902971">
        <ele>51.447</ele>
        <time>2019-06-16T16:11:32Z</time>
      </trkpt>
      <trkpt lat="43.400410" lon="-3.903091">
        <ele>51.526</ele>
        <time>2019-06-16T16:11:33Z</time>
      </trkpt>
      <trkpt lat="43.400448" lon="-3.903220">
        <ele>51.484</ele>
        <time>2019-06-16T16:11:34Z</time>
      </trkpt>
      <trkpt lat="43.400495" lon="-3.903365">
        <ele>51.207</ele>
        <time>2019-06-16T16:11:35Z</time>
      </trkpt>
      <trkpt lat="43.400544" lon="-3.903515">
        <ele>51.017</ele>
        <time>2019-06-16T16:11:36Z</time>
      </trkpt>
      <trkpt lat="43.400598" lon="-3.903688">
        <ele>51.108</ele>
        <time>2019-06-16T16:11:37Z</time>
      </trkpt>
      <trkpt lat="43.400646" lon="-3.903872">
        <ele>51.391</ele>
        <time>2019-06-16T16:11:38Z</time>
      </trkpt>
      <trkpt lat="43.400699" lon="-3.904072">
        <ele>51.345</ele>
        <time>2019-06-16T16:11:39Z</time>
      </trkpt>
      <trkpt lat="43.400751" lon="-3.904258">
        <ele>51.345</ele>
        <time>2019-06-16T16:11:40Z</time>
      </trkpt>
      <trkpt lat="43.400798" lon="-3.904462">
        <ele>51.189</ele>
        <time>2019-06-16T16:11:41Z</time>
      </trkpt>
      <trkpt lat="43.400839" lon="-3.904663">
        <ele>51.068</ele>
        <time>2019-06-16T16:11:42Z</time>
      </trkpt>
      <trkpt lat="43.400872" lon="-3.904851">
        <ele>50.948</ele>
        <time>2019-06-16T16:11:43Z</time>
      </trkpt>
      <trkpt lat="43.400899" lon="-3.905035">
        <ele>50.854</ele>
        <time>2019-06-16T16:11:44Z</time>
      </trkpt>
      <trkpt lat="43.400942" lon="-3.905232">
        <ele>50.653</ele>
        <time>2019-06-16T16:11:45Z</time>
      </trkpt>
      <trkpt lat="43.400989" lon="-3.905449">
        <ele>50.444</ele>
        <time>2019-06-16T16:11:46Z</time>
      </trkpt>
      <trkpt lat="43.401034" lon="-3.905674">
        <ele>50.805</ele>
        <time>2019-06-16T16:11:47Z</time>
      </trkpt>
      <trkpt lat="43.401078" lon="-3.905901">
        <ele>51.215</ele>
        <time>2019-06-16T16:11:48Z</time>
      </trkpt>
      <trkpt lat="43.401125" lon="-3.906159">
        <ele>51.008</ele>
        <time>2019-06-16T16:11:49Z</time>
      </trkpt>
      <trkpt lat="43.401175" lon="-3.906422">
        <ele>50.857</ele>
        <time>2019-06-16T16:11:50Z</time>
      </trkpt>
      <trkpt lat="43.401225" lon="-3.906689">
        <ele>51.021</ele>
        <time>2019-06-16T16:11:51Z</time>
      </trkpt>
      <trkpt lat="43.401275" lon="-3.906949">
        <ele>51.061</ele>
        <time>2019-06-16T16:11:52Z</time>
      </trkpt>
      <trkpt lat="43.401322" lon="-3.907207">
        <ele>51.285</ele>
        <time>2019-06-16T16:11:53Z</time>
      </trkpt>
      <trkpt lat="43.401366" lon="-3.907458">
        <ele>51.954</ele>
        <time>2019-06-16T16:11:54Z</time>
      </trkpt>
      <trkpt lat="43.401391" lon="-3.907687">
        <ele>52.724</ele>
        <time>2019-06-16T16:11:55Z</time>
      </trkpt>
      <trkpt lat="43.401412" lon="-3.907901">
        <ele>53.650</ele>
        <time>2019-06-16T16:11:56Z</time>
      </trkpt>
      <trkpt lat="43.401427" lon="-3.908102">
        <ele>54.669</ele>
        <time>2019-06-16T16:11:57Z</time>
      </trkpt>
      <trkpt lat="43.401430" lon="-3.908315">
        <ele>55.367</ele>
        <time>2019-06-16T16:11:58Z</time>
      </trkpt>
      <trkpt lat="43.401453" lon="-3.908493">
        <ele>55.281</ele>
        <time>2019-06-16T16:11:59Z</time>
      </trkpt>
      <trkpt lat="43.401440" lon="-3.908710">
        <ele>55.519</ele>
        <time>2019-06-16T16:12:00Z</time>
      </trkpt>
      <trkpt lat="43.401438" lon="-3.908925">
        <ele>55.708</ele>
        <time>2019-06-16T16:12:01Z</time>
      </trkpt>
      <trkpt lat="43.401438" lon="-3.909142">
        <ele>55.859</ele>
        <time>2019-06-16T16:12:02Z</time>
      </trkpt>
      <trkpt lat="43.401434" lon="-3.909380">
        <ele>55.713</ele>
        <time>2019-06-16T16:12:03Z</time>
      </trkpt>
      <trkpt lat="43.401428" lon="-3.909627">
        <ele>55.123</ele>
        <time>2019-06-16T16:12:04Z</time>
      </trkpt>
      <trkpt lat="43.401421" lon="-3.909888">
        <ele>54.767</ele>
        <time>2019-06-16T16:12:05Z</time>
      </trkpt>
      <trkpt lat="43.401414" lon="-3.910154">
        <ele>54.266</ele>
        <time>2019-06-16T16:12:06Z</time>
      </trkpt>
      <trkpt lat="43.401415" lon="-3.910435">
        <ele>53.836</ele>
        <time>2019-06-16T16:12:07Z</time>
      </trkpt>
      <trkpt lat="43.401413" lon="-3.910703">
        <ele>54.332</ele>
        <time>2019-06-16T16:12:08Z</time>
      </trkpt>
      <trkpt lat="43.401412" lon="-3.910961">
        <ele>55.291</ele>
        <time>2019-06-16T16:12:09Z</time>
      </trkpt>
      <trkpt lat="43.401409" lon="-3.911215">
        <ele>55.728</ele>
        <time>2019-06-16T16:12:10Z</time>
      </trkpt>
      <trkpt lat="43.401422" lon="-3.911445">
        <ele>55.989</ele>
        <time>2019-06-16T16:12:11Z</time>
      </trkpt>
      <trkpt lat="43.401430" lon="-3.911670">
        <ele>56.717</ele>
        <time>2019-06-16T16:12:12Z</time>
      </trkpt>
      <trkpt lat="43.401454" lon="-3.911870">
        <ele>58.908</ele>
        <time>2019-06-16T16:12:13Z</time>
      </trkpt>
      <trkpt lat="43.401487" lon="-3.912066">
        <ele>60.715</ele>
        <time>2019-06-16T16:12:14Z</time>
      </trkpt>
      <trkpt lat="43.401565" lon="-3.912206">
        <ele>61.839</ele>
        <time>2019-06-16T16:12:15Z</time>
      </trkpt>
      <trkpt lat="43.401725" lon="-3.912305">
        <ele>64.989</ele>
        <time>2019-06-16T16:12:16Z</time>
      </trkpt>
      <trkpt lat="43.401850" lon="-3.912436">
        <ele>67.983</ele>
        <time>2019-06-16T16:12:17Z</time>
      </trkpt>
      <trkpt lat="43.401978" lon="-3.912550">
        <ele>69.762</ele>
        <time>2019-06-16T16:12:18Z</time>
      </trkpt>
      <trkpt lat="43.402099" lon="-3.912672">
        <ele>71.692</ele>
        <time>2019-06-16T16:12:19Z</time>
      </trkpt>
      <trkpt lat="43.402230" lon="-3.912801">
        <ele>71.728</ele>
        <time>2019-06-16T16:12:20Z</time>
      </trkpt>
      <trkpt lat="43.402357" lon="-3.912947">
        <ele>72.867</ele>
        <time>2019-06-16T16:12:21Z</time>
      </trkpt>
      <trkpt lat="43.402470" lon="-3.913116">
        <ele>73.538</ele>
        <time>2019-06-16T16:12:22Z</time>
      </trkpt>
      <trkpt lat="43.402579" lon="-3.913301">
        <ele>75.870</ele>
        <time>2019-06-16T16:12:23Z</time>
      </trkpt>
      <trkpt lat="43.402693" lon="-3.913463">
        <ele>75.217</ele>
        <time>2019-06-16T16:12:24Z</time>
      </trkpt>
      <trkpt lat="43.402794" lon="-3.913635">
        <ele>75.108</ele>
        <time>2019-06-16T16:12:25Z</time>
      </trkpt>
      <trkpt lat="43.402898" lon="-3.913816">
        <ele>76.696</ele>
        <time>2019-06-16T16:12:26Z</time>
      </trkpt>
      <trkpt lat="43.402982" lon="-3.914024">
        <ele>77.380</ele>
        <time>2019-06-16T16:12:27Z</time>
      </trkpt>
      <trkpt lat="43.403055" lon="-3.914213">
        <ele>76.320</ele>
        <time>2019-06-16T16:12:28Z</time>
      </trkpt>
      <trkpt lat="43.403079" lon="-3.914483">
        <ele>77.884</ele>
        <time>2019-06-16T16:12:29Z</time>
      </trkpt>
      <trkpt lat="43.403126" lon="-3.914710">
        <ele>77.963</ele>
        <time>2019-06-16T16:12:30Z</time>
      </trkpt>
      <trkpt lat="43.403165" lon="-3.915011">
        <ele>78.943</ele>
        <time>2019-06-16T16:12:31Z</time>
      </trkpt>
      <trkpt lat="43.403194" lon="-3.915254">
        <ele>79.469</ele>
        <time>2019-06-16T16:12:32Z</time>
      </trkpt>
      <trkpt lat="43.403228" lon="-3.915496">
        <ele>81.168</ele>
        <time>2019-06-16T16:12:33Z</time>
      </trkpt>
      <trkpt lat="43.403252" lon="-3.915736">
        <ele>82.432</ele>
        <time>2019-06-16T16:12:34Z</time>
      </trkpt>
      <trkpt lat="43.403246" lon="-3.915985">
        <ele>84.392</ele>
        <time>2019-06-16T16:12:35Z</time>
      </trkpt>
      <trkpt lat="43.403252" lon="-3.916222">
        <ele>85.211</ele>
        <time>2019-06-16T16:12:36Z</time>
      </trkpt>
      <trkpt lat="43.403205" lon="-3.916455">
        <ele>87.508</ele>
        <time>2019-06-16T16:12:37Z</time>
      </trkpt>
      <trkpt lat="43.403156" lon="-3.916673">
        <ele>88.246</ele>
        <time>2019-06-16T16:12:38Z</time>
      </trkpt>
      <trkpt lat="43.403073" lon="-3.916899">
        <ele>88.160</ele>
        <time>2019-06-16T16:12:39Z</time>
      </trkpt>
      <trkpt lat="43.402974" lon="-3.917122">
        <ele>87.740</ele>
        <time>2019-06-16T16:12:40Z</time>
      </trkpt>
      <trkpt lat="43.402873" lon="-3.917348">
        <ele>86.834</ele>
        <time>2019-06-16T16:12:41Z</time>
      </trkpt>
      <trkpt lat="43.402749" lon="-3.917582">
        <ele>87.493</ele>
        <time>2019-06-16T16:12:42Z</time>
      </trkpt>
      <trkpt lat="43.402652" lon="-3.917823">
        <ele>88.913</ele>
        <time>2019-06-16T16:12:43Z</time>
      </trkpt>
      <trkpt lat="43.402570" lon="-3.918067">
        <ele>90.269</ele>
        <time>2019-06-16T16:12:44Z</time>
      </trkpt>
      <trkpt lat="43.402496" lon="-3.918316">
        <ele>90.318</ele>
        <time>2019-06-16T16:12:45Z</time>
      </trkpt>
      <trkpt lat="43.402425" lon="-3.918559">
        <ele>92.824</ele>
        <time>2019-06-16T16:12:46Z</time>
      </trkpt>
      <trkpt lat="43.402403" lon="-3.918843">
        <ele>93.504</ele>
        <time>2019-06-16T16:12:47Z</time>
      </trkpt>
      <trkpt lat="43.402391" lon="-3.919107">
        <ele>94.114</ele>
        <time>2019-06-16T16:12:48Z</time>
      </trkpt>
      <trkpt lat="43.402407" lon="-3.919360">
        <ele>94.608</ele>
        <time>2019-06-16T16:12:49Z</time>
      </trkpt>
      <trkpt lat="43.402444" lon="-3.919651">
        <ele>94.535</ele>
        <time>2019-06-16T16:12:50Z</time>
      </trkpt>
      <trkpt lat="43.402478" lon="-3.919922">
        <ele>94.429</ele>
        <time>2019-06-16T16:12:51Z</time>
      </trkpt>
      <trkpt lat="43.402560" lon="-3.920146">
        <ele>95.179</ele>
        <time>2019-06-16T16:12:52Z</time>
      </trkpt>
      <trkpt lat="43.402618" lon="-3.920388">
        <ele>95.963</ele>
        <time>2019-06-16T16:12:53Z</time>
      </trkpt>
      <trkpt lat="43.402658" lon="-3.920637">
        <ele>94.822</ele>
        <time>2019-06-16T16:12:54Z</time>
      </trkpt>
      <trkpt lat="43.402694" lon="-3.920882">
        <ele>92.692</ele>
        <time>2019-06-16T16:12:55Z</time>
      </trkpt>
      <trkpt lat="43.402720" lon="-3.921145">
        <ele>90.648</ele>
        <time>2019-06-16T16:12:56Z</time>
      </trkpt>
      <trkpt lat="43.402731" lon="-3.921379">
        <ele>88.687</ele>
        <time>2019-06-16T16:12:57Z</time>
      </trkpt>
      <trkpt lat="43.402742" lon="-3.921618">
        <ele>86.689</ele>
        <time>2019-06-16T16:12:58Z</time>
      </trkpt>
      <trkpt lat="43.402703" lon="-3.921842">
        <ele>87.206</ele>
        <time>2019-06-16T16:12:59Z</time>
      </trkpt>
      <trkpt lat="43.402696" lon="-3.922047">
        <ele>85.926</ele>
        <time>2019-06-16T16:13:00Z</time>
      </trkpt>
      <trkpt lat="43.402645" lon="-3.922226">
        <ele>85.208</ele>
        <time>2019-06-16T16:13:01Z</time>
      </trkpt>
      <trkpt lat="43.402583" lon="-3.922369">
        <ele>83.441</ele>
        <time>2019-06-16T16:13:02Z</time>
      </trkpt>
      <trkpt lat="43.402491" lon="-3.922519">
        <ele>81.735</ele>
        <time>2019-06-16T16:13:03Z</time>
      </trkpt>
      <trkpt lat="43.402385" lon="-3.922613">
        <ele>80.715</ele>
        <time>2019-06-16T16:13:04Z</time>
      </trkpt>
      <trkpt lat="43.402252" lon="-3.922671">
        <ele>80.029</ele>
        <time>2019-06-16T16:13:05Z</time>
      </trkpt>
      <trkpt lat="43.402113" lon="-3.922736">
        <ele>77.898</ele>
        <time>2019-06-16T16:13:06Z</time>
      </trkpt>
      <trkpt lat="43.402018" lon="-3.922782">
        <ele>76.218</ele>
        <time>2019-06-16T16:13:07Z</time>
      </trkpt>
      <trkpt lat="43.401903" lon="-3.922842">
        <ele>75.234</ele>
        <time>2019-06-16T16:13:08Z</time>
      </trkpt>
      <trkpt lat="43.401805" lon="-3.922945">
        <ele>74.533</ele>
        <time>2019-06-16T16:13:09Z</time>
      </trkpt>
      <trkpt lat="43.401754" lon="-3.923074">
        <ele>74.147</ele>
        <time>2019-06-16T16:13:10Z</time>
      </trkpt>
      <trkpt lat="43.401707" lon="-3.923222">
        <ele>75.529</ele>
        <time>2019-06-16T16:13:11Z</time>
      </trkpt>
      <trkpt lat="43.401677" lon="-3.923407">
        <ele>77.121</ele>
        <time>2019-06-16T16:13:12Z</time>
      </trkpt>
      <trkpt lat="43.401658" lon="-3.923579">
        <ele>78.208</ele>
        <time>2019-06-16T16:13:13Z</time>
      </trkpt>
      <trkpt lat="43.401630" lon="-3.923744">
        <ele>79.517</ele>
        <time>2019-06-16T16:13:14Z</time>
      </trkpt>
      <trkpt lat="43.401871" lon="-3.923897">
        <ele>73.121</ele>
        <time>2019-06-16T16:13:15Z</time>
      </trkpt>
      <trkpt lat="43.401985" lon="-3.924067">
        <ele>71.161</ele>
        <time>2019-06-16T16:13:16Z</time>
      </trkpt>
      <trkpt lat="43.402105" lon="-3.924223">
        <ele>69.255</ele>
        <time>2019-06-16T16:13:17Z</time>
      </trkpt>
      <trkpt lat="43.402207" lon="-3.924384">
        <ele>67.324</ele>
        <time>2019-06-16T16:13:18Z</time>
      </trkpt>
      <trkpt lat="43.402312" lon="-3.924548">
        <ele>66.524</ele>
        <time>2019-06-16T16:13:19Z</time>
      </trkpt>
      <trkpt lat="43.402411" lon="-3.924719">
        <ele>65.210</ele>
        <time>2019-06-16T16:13:20Z</time>
      </trkpt>
      <trkpt lat="43.402504" lon="-3.924868">
        <ele>64.469</ele>
        <time>2019-06-16T16:13:21Z</time>
      </trkpt>
      <trkpt lat="43.402580" lon="-3.925054">
        <ele>63.395</ele>
        <time>2019-06-16T16:13:22Z</time>
      </trkpt>
      <trkpt lat="43.402630" lon="-3.925228">
        <ele>62.549</ele>
        <time>2019-06-16T16:13:23Z</time>
      </trkpt>
      <trkpt lat="43.402684" lon="-3.925415">
        <ele>60.723</ele>
        <time>2019-06-16T16:13:24Z</time>
      </trkpt>
      <trkpt lat="43.402725" lon="-3.925613">
        <ele>59.008</ele>
        <time>2019-06-16T16:13:25Z</time>
      </trkpt>
      <trkpt lat="43.402744" lon="-3.925819">
        <ele>56.522</ele>
        <time>2019-06-16T16:13:26Z</time>
      </trkpt>
      <trkpt lat="43.402746" lon="-3.925990">
        <ele>55.896</ele>
        <time>2019-06-16T16:13:27Z</time>
      </trkpt>
      <trkpt lat="43.402762" lon="-3.926171">
        <ele>54.796</ele>
        <time>2019-06-16T16:13:28Z</time>
      </trkpt>
      <trkpt lat="43.402773" lon="-3.926326">
        <ele>53.550</ele>
        <time>2019-06-16T16:13:29Z</time>
      </trkpt>
      <trkpt lat="43.402805" lon="-3.926467">
        <ele>52.169</ele>
        <time>2019-06-16T16:13:30Z</time>
      </trkpt>
      <trkpt lat="43.402839" lon="-3.926594">
        <ele>51.139</ele>
        <time>2019-06-16T16:13:31Z</time>
      </trkpt>
      <trkpt lat="43.402869" lon="-3.926716">
        <ele>50.465</ele>
        <time>2019-06-16T16:13:32Z</time>
      </trkpt>
      <trkpt lat="43.402888" lon="-3.926806">
        <ele>50.064</ele>
        <time>2019-06-16T16:13:33Z</time>
      </trkpt>
      <trkpt lat="43.402917" lon="-3.926880">
        <ele>49.724</ele>
        <time>2019-06-16T16:13:34Z</time>
      </trkpt>
      <trkpt lat="43.402939" lon="-3.926952">
        <ele>49.504</ele>
        <time>2019-06-16T16:13:35Z</time>
      </trkpt>
      <trkpt lat="43.402983" lon="-3.927043">
        <ele>49.214</ele>
        <time>2019-06-16T16:13:36Z</time>
      </trkpt>
      <trkpt lat="43.403015" lon="-3.927144">
        <ele>48.908</ele>
        <time>2019-06-16T16:13:37Z</time>
      </trkpt>
      <trkpt lat="43.403062" lon="-3.927262">
        <ele>48.665</ele>
        <time>2019-06-16T16:13:38Z</time>
      </trkpt>
      <trkpt lat="43.403113" lon="-3.927395">
        <ele>47.539</ele>
        <time>2019-06-16T16:13:39Z</time>
      </trkpt>
      <trkpt lat="43.403170" lon="-3.927545">
        <ele>46.829</ele>
        <time>2019-06-16T16:13:40Z</time>
      </trkpt>
      <trkpt lat="43.403233" lon="-3.927712">
        <ele>46.143</ele>
        <time>2019-06-16T16:13:41Z</time>
      </trkpt>
      <trkpt lat="43.403292" lon="-3.927884">
        <ele>45.622</ele>
        <time>2019-06-16T16:13:42Z</time>
      </trkpt>
      <trkpt lat="43.403353" lon="-3.928051">
        <ele>45.212</ele>
        <time>2019-06-16T16:13:43Z</time>
      </trkpt>
      <trkpt lat="43.403413" lon="-3.928247">
        <ele>43.878</ele>
        <time>2019-06-16T16:13:44Z</time>
      </trkpt>
      <trkpt lat="43.403472" lon="-3.928427">
        <ele>42.847</ele>
        <time>2019-06-16T16:13:45Z</time>
      </trkpt>
      <trkpt lat="43.403534" lon="-3.928628">
        <ele>42.138</ele>
        <time>2019-06-16T16:13:46Z</time>
      </trkpt>
      <trkpt lat="43.403600" lon="-3.928831">
        <ele>41.370</ele>
        <time>2019-06-16T16:13:47Z</time>
      </trkpt>
      <trkpt lat="43.403670" lon="-3.929034">
        <ele>40.617</ele>
        <time>2019-06-16T16:13:48Z</time>
      </trkpt>
      <trkpt lat="43.403741" lon="-3.929235">
        <ele>39.408</ele>
        <time>2019-06-16T16:13:49Z</time>
      </trkpt>
      <trkpt lat="43.403820" lon="-3.929455">
        <ele>38.456</ele>
        <time>2019-06-16T16:13:50Z</time>
      </trkpt>
      <trkpt lat="43.403884" lon="-3.929661">
        <ele>36.610</ele>
        <time>2019-06-16T16:13:51Z</time>
      </trkpt>
      <trkpt lat="43.403969" lon="-3.929860">
        <ele>35.640</ele>
        <time>2019-06-16T16:13:52Z</time>
      </trkpt>
      <trkpt lat="43.404047" lon="-3.930077">
        <ele>34.024</ele>
        <time>2019-06-16T16:13:53Z</time>
      </trkpt>
      <trkpt lat="43.404128" lon="-3.930299">
        <ele>32.783</ele>
        <time>2019-06-16T16:13:54Z</time>
      </trkpt>
      <trkpt lat="43.404205" lon="-3.930523">
        <ele>31.583</ele>
        <time>2019-06-16T16:13:55Z</time>
      </trkpt>
      <trkpt lat="43.404300" lon="-3.930723">
        <ele>31.789</ele>
        <time>2019-06-16T16:13:56Z</time>
      </trkpt>
      <trkpt lat="43.404383" lon="-3.930949">
        <ele>30.868</ele>
        <time>2019-06-16T16:13:57Z</time>
      </trkpt>
      <trkpt lat="43.404471" lon="-3.931118">
        <ele>30.112</ele>
        <time>2019-06-16T16:13:58Z</time>
      </trkpt>
      <trkpt lat="43.404548" lon="-3.931327">
        <ele>29.232</ele>
        <time>2019-06-16T16:13:59Z</time>
      </trkpt>
      <trkpt lat="43.404631" lon="-3.931515">
        <ele>28.705</ele>
        <time>2019-06-16T16:14:00Z</time>
      </trkpt>
      <trkpt lat="43.404706" lon="-3.931726">
        <ele>27.808</ele>
        <time>2019-06-16T16:14:01Z</time>
      </trkpt>
      <trkpt lat="43.404785" lon="-3.931926">
        <ele>27.514</ele>
        <time>2019-06-16T16:14:02Z</time>
      </trkpt>
      <trkpt lat="43.404862" lon="-3.932135">
        <ele>27.348</ele>
        <time>2019-06-16T16:14:03Z</time>
      </trkpt>
      <trkpt lat="43.404943" lon="-3.932346">
        <ele>26.258</ele>
        <time>2019-06-16T16:14:04Z</time>
      </trkpt>
      <trkpt lat="43.405025" lon="-3.932557">
        <ele>24.722</ele>
        <time>2019-06-16T16:14:05Z</time>
      </trkpt>
      <trkpt lat="43.405087" lon="-3.932761">
        <ele>23.451</ele>
        <time>2019-06-16T16:14:06Z</time>
      </trkpt>
      <trkpt lat="43.405164" lon="-3.932961">
        <ele>22.581</ele>
        <time>2019-06-16T16:14:07Z</time>
      </trkpt>
      <trkpt lat="43.405242" lon="-3.933167">
        <ele>21.867</ele>
        <time>2019-06-16T16:14:08Z</time>
      </trkpt>
      <trkpt lat="43.405323" lon="-3.933370">
        <ele>21.486</ele>
        <time>2019-06-16T16:14:09Z</time>
      </trkpt>
      <trkpt lat="43.405418" lon="-3.933562">
        <ele>21.694</ele>
        <time>2019-06-16T16:14:10Z</time>
      </trkpt>
      <trkpt lat="43.405512" lon="-3.933762">
        <ele>20.757</ele>
        <time>2019-06-16T16:14:11Z</time>
      </trkpt>
      <trkpt lat="43.405609" lon="-3.933964">
        <ele>19.722</ele>
        <time>2019-06-16T16:14:12Z</time>
      </trkpt>
      <trkpt lat="43.405689" lon="-3.934186">
        <ele>18.408</ele>
        <time>2019-06-16T16:14:13Z</time>
      </trkpt>
      <trkpt lat="43.405803" lon="-3.934410">
        <ele>16.522</ele>
        <time>2019-06-16T16:14:14Z</time>
      </trkpt>
      <trkpt lat="43.405910" lon="-3.934621">
        <ele>15.126</ele>
        <time>2019-06-16T16:14:15Z</time>
      </trkpt>
      <trkpt lat="43.405955" lon="-3.934813">
        <ele>14.496</ele>
        <time>2019-06-16T16:14:16Z</time>
      </trkpt>
      <trkpt lat="43.406051" lon="-3.935002">
        <ele>14.030</ele>
        <time>2019-06-16T16:14:17Z</time>
      </trkpt>
      <trkpt lat="43.406135" lon="-3.935198">
        <ele>14.379</ele>
        <time>2019-06-16T16:14:18Z</time>
      </trkpt>
      <trkpt lat="43.406154" lon="-3.935391">
        <ele>14.639</ele>
        <time>2019-06-16T16:14:19Z</time>
      </trkpt>
      <trkpt lat="43.406158" lon="-3.935593">
        <ele>14.495</ele>
        <time>2019-06-16T16:14:20Z</time>
      </trkpt>
      <trkpt lat="43.406186" lon="-3.935796">
        <ele>14.154</ele>
        <time>2019-06-16T16:14:21Z</time>
      </trkpt>
      <trkpt lat="43.406202" lon="-3.936005">
        <ele>13.484</ele>
        <time>2019-06-16T16:14:22Z</time>
      </trkpt>
      <trkpt lat="43.406214" lon="-3.936212">
        <ele>13.207</ele>
        <time>2019-06-16T16:14:23Z</time>
      </trkpt>
      <trkpt lat="43.406242" lon="-3.936400">
        <ele>13.617</ele>
        <time>2019-06-16T16:14:24Z</time>
      </trkpt>
      <trkpt lat="43.406281" lon="-3.936592">
        <ele>13.708</ele>
        <time>2019-06-16T16:14:25Z</time>
      </trkpt>
      <trkpt lat="43.406326" lon="-3.936773">
        <ele>13.671</ele>
        <time>2019-06-16T16:14:26Z</time>
      </trkpt>
      <trkpt lat="43.406372" lon="-3.936953">
        <ele>13.325</ele>
        <time>2019-06-16T16:14:27Z</time>
      </trkpt>
      <trkpt lat="43.406507" lon="-3.937035">
        <ele>12.775</ele>
        <time>2019-06-16T16:14:28Z</time>
      </trkpt>
      <trkpt lat="43.406615" lon="-3.937186">
        <ele>12.419</ele>
        <time>2019-06-16T16:14:29Z</time>
      </trkpt>
      <trkpt lat="43.406761" lon="-3.937291">
        <ele>11.648</ele>
        <time>2019-06-16T16:14:30Z</time>
      </trkpt>
      <trkpt lat="43.406920" lon="-3.937390">
        <ele>10.848</ele>
        <time>2019-06-16T16:14:31Z</time>
      </trkpt>
      <trkpt lat="43.407080" lon="-3.937527">
        <ele>10.844</ele>
        <time>2019-06-16T16:14:32Z</time>
      </trkpt>
      <trkpt lat="43.407243" lon="-3.937651">
        <ele>10.953</ele>
        <time>2019-06-16T16:14:33Z</time>
      </trkpt>
      <trkpt lat="43.407400" lon="-3.937782">
        <ele>10.863</ele>
        <time>2019-06-16T16:14:34Z</time>
      </trkpt>
      <trkpt lat="43.407558" lon="-3.937911">
        <ele>11.444</ele>
        <time>2019-06-16T16:14:35Z</time>
      </trkpt>
      <trkpt lat="43.407756" lon="-3.938038">
        <ele>10.218</ele>
        <time>2019-06-16T16:14:36Z</time>
      </trkpt>
      <trkpt lat="43.407911" lon="-3.938153">
        <ele>9.408</ele>
        <time>2019-06-16T16:14:37Z</time>
      </trkpt>
      <trkpt lat="43.408071" lon="-3.938274">
        <ele>8.729</ele>
        <time>2019-06-16T16:14:38Z</time>
      </trkpt>
      <trkpt lat="43.408243" lon="-3.938383">
        <ele>8.753</ele>
        <time>2019-06-16T16:14:39Z</time>
      </trkpt>
      <trkpt lat="43.408394" lon="-3.938508">
        <ele>9.043</ele>
        <time>2019-06-16T16:14:40Z</time>
      </trkpt>
      <trkpt lat="43.408548" lon="-3.938631">
        <ele>8.767</ele>
        <time>2019-06-16T16:14:41Z</time>
      </trkpt>
      <trkpt lat="43.408691" lon="-3.938752">
        <ele>9.176</ele>
        <time>2019-06-16T16:14:42Z</time>
      </trkpt>
      <trkpt lat="43.408837" lon="-3.938877">
        <ele>9.346</ele>
        <time>2019-06-16T16:14:43Z</time>
      </trkpt>
      <trkpt lat="43.408985" lon="-3.938997">
        <ele>9.192</ele>
        <time>2019-06-16T16:14:44Z</time>
      </trkpt>
      <trkpt lat="43.409124" lon="-3.939138">
        <ele>9.121</ele>
        <time>2019-06-16T16:14:45Z</time>
      </trkpt>
      <trkpt lat="43.409253" lon="-3.939287">
        <ele>8.736</ele>
        <time>2019-06-16T16:14:46Z</time>
      </trkpt>
      <trkpt lat="43.409384" lon="-3.939432">
        <ele>8.217</ele>
        <time>2019-06-16T16:14:47Z</time>
      </trkpt>
      <trkpt lat="43.409430" lon="-3.939599">
        <ele>8.118</ele>
        <time>2019-06-16T16:14:48Z</time>
      </trkpt>
      <trkpt lat="43.409489" lon="-3.939767">
        <ele>8.008</ele>
        <time>2019-06-16T16:14:49Z</time>
      </trkpt>
      <trkpt lat="43.409567" lon="-3.939933">
        <ele>8.096</ele>
        <time>2019-06-16T16:14:50Z</time>
      </trkpt>
      <trkpt lat="43.409615" lon="-3.940079">
        <ele>7.870</ele>
        <time>2019-06-16T16:14:51Z</time>
      </trkpt>
      <trkpt lat="43.409674" lon="-3.940226">
        <ele>7.320</ele>
        <time>2019-06-16T16:14:52Z</time>
      </trkpt>
      <trkpt lat="43.409727" lon="-3.940353">
        <ele>6.774</ele>
        <time>2019-06-16T16:14:53Z</time>
      </trkpt>
      <trkpt lat="43.409780" lon="-3.940460">
        <ele>6.163</ele>
        <time>2019-06-16T16:14:54Z</time>
      </trkpt>
      <trkpt lat="43.409833" lon="-3.940540">
        <ele>5.683</ele>
        <time>2019-06-16T16:14:55Z</time>
      </trkpt>
      <trkpt lat="43.409884" lon="-3.940606">
        <ele>5.549</ele>
        <time>2019-06-16T16:14:56Z</time>
      </trkpt>
      <trkpt lat="43.409936" lon="-3.940621">
        <ele>5.438</ele>
        <time>2019-06-16T16:14:57Z</time>
      </trkpt>
      <trkpt lat="43.409993" lon="-3.940649">
        <ele>5.445</ele>
        <time>2019-06-16T16:14:59Z</time>
      </trkpt>
      <trkpt lat="43.410065" lon="-3.940627">
        <ele>5.147</ele>
        <time>2019-06-16T16:15:01Z</time>
      </trkpt>
      <trkpt lat="43.410105" lon="-3.940596">
        <ele>5.011</ele>
        <time>2019-06-16T16:15:02Z</time>
      </trkpt>
      <trkpt lat="43.410179" lon="-3.940519">
        <ele>5.108</ele>
        <time>2019-06-16T16:15:04Z</time>
      </trkpt>
      <trkpt lat="43.410227" lon="-3.940457">
        <ele>5.377</ele>
        <time>2019-06-16T16:15:05Z</time>
      </trkpt>
      <trkpt lat="43.410271" lon="-3.940395">
        <ele>5.641</ele>
        <time>2019-06-16T16:15:06Z</time>
      </trkpt>
      <trkpt lat="43.410312" lon="-3.940333">
        <ele>5.791</ele>
        <time>2019-06-16T16:15:07Z</time>
      </trkpt>
      <trkpt lat="43.410341" lon="-3.940272">
        <ele>5.865</ele>
        <time>2019-06-16T16:15:08Z</time>
      </trkpt>
      <trkpt lat="43.410376" lon="-3.940187">
        <ele>6.174</ele>
        <time>2019-06-16T16:15:10Z</time>
      </trkpt>
      <trkpt lat="43.410408" lon="-3.940250">
        <ele>5.784</ele>
        <time>2019-06-16T16:15:58Z</time>
      </trkpt>
      <trkpt lat="43.410381" lon="-3.940312">
        <ele>5.540</ele>
        <time>2019-06-16T16:15:59Z</time>
      </trkpt>
      <trkpt lat="43.410326" lon="-3.940395">
        <ele>5.499</ele>
        <time>2019-06-16T16:16:00Z</time>
      </trkpt>
      <trkpt lat="43.410264" lon="-3.940489">
        <ele>5.235</ele>
        <time>2019-06-16T16:16:01Z</time>
      </trkpt>
      <trkpt lat="43.410195" lon="-3.940597">
        <ele>4.986</ele>
        <time>2019-06-16T16:16:02Z</time>
      </trkpt>
      <trkpt lat="43.410131" lon="-3.940705">
        <ele>5.014</ele>
        <time>2019-06-16T16:16:03Z</time>
      </trkpt>
      <trkpt lat="43.410067" lon="-3.940814">
        <ele>5.508</ele>
        <time>2019-06-16T16:16:04Z</time>
      </trkpt>
      <trkpt lat="43.410001" lon="-3.940934">
        <ele>5.676</ele>
        <time>2019-06-16T16:16:05Z</time>
      </trkpt>
      <trkpt lat="43.409932" lon="-3.941070">
        <ele>5.490</ele>
        <time>2019-06-16T16:16:06Z</time>
      </trkpt>
      <trkpt lat="43.409871" lon="-3.941231">
        <ele>5.550</ele>
        <time>2019-06-16T16:16:07Z</time>
      </trkpt>
      <trkpt lat="43.409819" lon="-3.941400">
        <ele>5.774</ele>
        <time>2019-06-16T16:16:08Z</time>
      </trkpt>
      <trkpt lat="43.409772" lon="-3.941571">
        <ele>5.883</ele>
        <time>2019-06-16T16:16:09Z</time>
      </trkpt>
      <trkpt lat="43.409735" lon="-3.941746">
        <ele>6.263</ele>
        <time>2019-06-16T16:16:10Z</time>
      </trkpt>
      <trkpt lat="43.409698" lon="-3.941922">
        <ele>7.119</ele>
        <time>2019-06-16T16:16:11Z</time>
      </trkpt>
      <trkpt lat="43.409686" lon="-3.942104">
        <ele>6.848</ele>
        <time>2019-06-16T16:16:12Z</time>
      </trkpt>
      <trkpt lat="43.409674" lon="-3.942304">
        <ele>6.831</ele>
        <time>2019-06-16T16:16:13Z</time>
      </trkpt>
      <trkpt lat="43.409670" lon="-3.942512">
        <ele>7.661</ele>
        <time>2019-06-16T16:16:14Z</time>
      </trkpt>
      <trkpt lat="43.409673" lon="-3.942720">
        <ele>8.207</ele>
        <time>2019-06-16T16:16:15Z</time>
      </trkpt>
      <trkpt lat="43.409691" lon="-3.942900">
        <ele>8.708</ele>
        <time>2019-06-16T16:16:16Z</time>
      </trkpt>
      <trkpt lat="43.409709" lon="-3.943111">
        <ele>9.326</ele>
        <time>2019-06-16T16:16:17Z</time>
      </trkpt>
      <trkpt lat="43.409760" lon="-3.943334">
        <ele>9.780</ele>
        <time>2019-06-16T16:16:18Z</time>
      </trkpt>
      <trkpt lat="43.409801" lon="-3.943537">
        <ele>10.290</ele>
        <time>2019-06-16T16:16:19Z</time>
      </trkpt>
      <trkpt lat="43.409832" lon="-3.943743">
        <ele>11.084</ele>
        <time>2019-06-16T16:16:20Z</time>
      </trkpt>
      <trkpt lat="43.409843" lon="-3.943942">
        <ele>11.833</ele>
        <time>2019-06-16T16:16:21Z</time>
      </trkpt>
      <trkpt lat="43.409829" lon="-3.944140">
        <ele>12.243</ele>
        <time>2019-06-16T16:16:22Z</time>
      </trkpt>
      <trkpt lat="43.409792" lon="-3.944351">
        <ele>12.599</ele>
        <time>2019-06-16T16:16:23Z</time>
      </trkpt>
      <trkpt lat="43.409735" lon="-3.944546">
        <ele>12.988</ele>
        <time>2019-06-16T16:16:24Z</time>
      </trkpt>
      <trkpt lat="43.409657" lon="-3.944739">
        <ele>12.989</ele>
        <time>2019-06-16T16:16:25Z</time>
      </trkpt>
      <trkpt lat="43.409580" lon="-3.944923">
        <ele>11.606</ele>
        <time>2019-06-16T16:16:26Z</time>
      </trkpt>
      <trkpt lat="43.409473" lon="-3.945107">
        <ele>11.026</ele>
        <time>2019-06-16T16:16:27Z</time>
      </trkpt>
      <trkpt lat="43.409353" lon="-3.945283">
        <ele>10.608</ele>
        <time>2019-06-16T16:16:28Z</time>
      </trkpt>
      <trkpt lat="43.409198" lon="-3.945451">
        <ele>8.871</ele>
        <time>2019-06-16T16:16:29Z</time>
      </trkpt>
      <trkpt lat="43.409033" lon="-3.945601">
        <ele>8.085</ele>
        <time>2019-06-16T16:16:30Z</time>
      </trkpt>
      <trkpt lat="43.408870" lon="-3.945737">
        <ele>7.195</ele>
        <time>2019-06-16T16:16:31Z</time>
      </trkpt>
      <trkpt lat="43.408694" lon="-3.945921">
        <ele>6.039</ele>
        <time>2019-06-16T16:16:32Z</time>
      </trkpt>
      <trkpt lat="43.408499" lon="-3.946056">
        <ele>5.758</ele>
        <time>2019-06-16T16:16:33Z</time>
      </trkpt>
      <trkpt lat="43.408311" lon="-3.946213">
        <ele>5.778</ele>
        <time>2019-06-16T16:16:34Z</time>
      </trkpt>
      <trkpt lat="43.408115" lon="-3.946371">
        <ele>5.814</ele>
        <time>2019-06-16T16:16:35Z</time>
      </trkpt>
      <trkpt lat="43.407928" lon="-3.946542">
        <ele>6.323</ele>
        <time>2019-06-16T16:16:36Z</time>
      </trkpt>
      <trkpt lat="43.407740" lon="-3.946689">
        <ele>6.227</ele>
        <time>2019-06-16T16:16:37Z</time>
      </trkpt>
      <trkpt lat="43.407548" lon="-3.946859">
        <ele>6.468</ele>
        <time>2019-06-16T16:16:38Z</time>
      </trkpt>
      <trkpt lat="43.407356" lon="-3.947022">
        <ele>7.014</ele>
        <time>2019-06-16T16:16:39Z</time>
      </trkpt>
      <trkpt lat="43.407174" lon="-3.947167">
        <ele>6.808</ele>
        <time>2019-06-16T16:16:40Z</time>
      </trkpt>
      <trkpt lat="43.406984" lon="-3.947323">
        <ele>6.515</ele>
        <time>2019-06-16T16:16:41Z</time>
      </trkpt>
      <trkpt lat="43.406801" lon="-3.947472">
        <ele>6.739</ele>
        <time>2019-06-16T16:16:42Z</time>
      </trkpt>
      <trkpt lat="43.406615" lon="-3.947640">
        <ele>7.259</ele>
        <time>2019-06-16T16:16:43Z</time>
      </trkpt>
      <trkpt lat="43.406423" lon="-3.947792">
        <ele>6.973</ele>
        <time>2019-06-16T16:16:44Z</time>
      </trkpt>
      <trkpt lat="43.406238" lon="-3.947934">
        <ele>7.062</ele>
        <time>2019-06-16T16:16:45Z</time>
      </trkpt>
      <trkpt lat="43.406046" lon="-3.948100">
        <ele>6.852</ele>
        <time>2019-06-16T16:16:46Z</time>
      </trkpt>
      <trkpt lat="43.405850" lon="-3.948253">
        <ele>6.988</ele>
        <time>2019-06-16T16:16:47Z</time>
      </trkpt>
      <trkpt lat="43.405659" lon="-3.948421">
        <ele>7.397</ele>
        <time>2019-06-16T16:16:48Z</time>
      </trkpt>
      <trkpt lat="43.405468" lon="-3.948574">
        <ele>7.466</ele>
        <time>2019-06-16T16:16:49Z</time>
      </trkpt>
      <trkpt lat="43.405287" lon="-3.948740">
        <ele>8.029</ele>
        <time>2019-06-16T16:16:50Z</time>
      </trkpt>
      <trkpt lat="43.405109" lon="-3.948906">
        <ele>8.021</ele>
        <time>2019-06-16T16:16:51Z</time>
      </trkpt>
      <trkpt lat="43.404937" lon="-3.949065">
        <ele>8.008</ele>
        <time>2019-06-16T16:16:52Z</time>
      </trkpt>
      <trkpt lat="43.404776" lon="-3.949218">
        <ele>8.089</ele>
        <time>2019-06-16T16:16:53Z</time>
      </trkpt>
      <trkpt lat="43.404630" lon="-3.949351">
        <ele>7.953</ele>
        <time>2019-06-16T16:16:54Z</time>
      </trkpt>
      <trkpt lat="43.404492" lon="-3.949478">
        <ele>7.963</ele>
        <time>2019-06-16T16:16:55Z</time>
      </trkpt>
      <trkpt lat="43.404349" lon="-3.949620">
        <ele>6.667</ele>
        <time>2019-06-16T16:16:56Z</time>
      </trkpt>
      <trkpt lat="43.404204" lon="-3.949763">
        <ele>5.056</ele>
        <time>2019-06-16T16:16:57Z</time>
      </trkpt>
      <trkpt lat="43.404062" lon="-3.949911">
        <ele>2.346</ele>
        <time>2019-06-16T16:16:58Z</time>
      </trkpt>
      <trkpt lat="43.403911" lon="-3.950056">
        <ele>0.492</ele>
        <time>2019-06-16T16:16:59Z</time>
      </trkpt>
      <trkpt lat="43.403767" lon="-3.950200">
        <ele>1.251</ele>
        <time>2019-06-16T16:17:00Z</time>
      </trkpt>
      <trkpt lat="43.403633" lon="-3.950327">
        <ele>2.237</ele>
        <time>2019-06-16T16:17:01Z</time>
      </trkpt>
      <trkpt lat="43.403495" lon="-3.950461">
        <ele>4.449</ele>
        <time>2019-06-16T16:17:02Z</time>
      </trkpt>
      <trkpt lat="43.403360" lon="-3.950595">
        <ele>6.513</ele>
        <time>2019-06-16T16:17:03Z</time>
      </trkpt>
      <trkpt lat="43.403227" lon="-3.950723">
        <ele>5.708</ele>
        <time>2019-06-16T16:17:04Z</time>
      </trkpt>
      <trkpt lat="43.403115" lon="-3.950859">
        <ele>5.746</ele>
        <time>2019-06-16T16:17:05Z</time>
      </trkpt>
      <trkpt lat="43.403011" lon="-3.951024">
        <ele>5.380</ele>
        <time>2019-06-16T16:17:06Z</time>
      </trkpt>
      <trkpt lat="43.402904" lon="-3.951224">
        <ele>5.790</ele>
        <time>2019-06-16T16:17:07Z</time>
      </trkpt>
      <trkpt lat="43.402816" lon="-3.951439">
        <ele>6.054</ele>
        <time>2019-06-16T16:17:08Z</time>
      </trkpt>
      <trkpt lat="43.402746" lon="-3.951662">
        <ele>5.863</ele>
        <time>2019-06-16T16:17:09Z</time>
      </trkpt>
      <trkpt lat="43.402704" lon="-3.951892">
        <ele>6.133</ele>
        <time>2019-06-16T16:17:10Z</time>
      </trkpt>
      <trkpt lat="43.402675" lon="-3.952131">
        <ele>6.679</ele>
        <time>2019-06-16T16:17:11Z</time>
      </trkpt>
      <trkpt lat="43.402691" lon="-3.952388">
        <ele>6.928</ele>
        <time>2019-06-16T16:17:12Z</time>
      </trkpt>
      <trkpt lat="43.402707" lon="-3.952658">
        <ele>6.657</ele>
        <time>2019-06-16T16:17:13Z</time>
      </trkpt>
      <trkpt lat="43.402732" lon="-3.952933">
        <ele>6.700</ele>
        <time>2019-06-16T16:17:14Z</time>
      </trkpt>
      <trkpt lat="43.402758" lon="-3.953220">
        <ele>6.920</ele>
        <time>2019-06-16T16:17:15Z</time>
      </trkpt>
      <trkpt lat="43.402781" lon="-3.953509">
        <ele>7.108</ele>
        <time>2019-06-16T16:17:16Z</time>
      </trkpt>
      <trkpt lat="43.402804" lon="-3.953799">
        <ele>7.568</ele>
        <time>2019-06-16T16:17:17Z</time>
      </trkpt>
      <trkpt lat="43.402837" lon="-3.954097">
        <ele>8.862</ele>
        <time>2019-06-16T16:17:18Z</time>
      </trkpt>
      <trkpt lat="43.402861" lon="-3.954385">
        <ele>9.722</ele>
        <time>2019-06-16T16:17:19Z</time>
      </trkpt>
      <trkpt lat="43.402887" lon="-3.954680">
        <ele>11.216</ele>
        <time>2019-06-16T16:17:20Z</time>
      </trkpt>
      <trkpt lat="43.402914" lon="-3.954962">
        <ele>11.925</ele>
        <time>2019-06-16T16:17:21Z</time>
      </trkpt>
      <trkpt lat="43.402936" lon="-3.955241">
        <ele>12.875</ele>
        <time>2019-06-16T16:17:22Z</time>
      </trkpt>
      <trkpt lat="43.402955" lon="-3.955497">
        <ele>13.731</ele>
        <time>2019-06-16T16:17:23Z</time>
      </trkpt>
      <trkpt lat="43.402981" lon="-3.955745">
        <ele>14.620</ele>
        <time>2019-06-16T16:17:24Z</time>
      </trkpt>
      <trkpt lat="43.402996" lon="-3.955970">
        <ele>15.025</ele>
        <time>2019-06-16T16:17:25Z</time>
      </trkpt>
      <trkpt lat="43.403027" lon="-3.956176">
        <ele>15.826</ele>
        <time>2019-06-16T16:17:26Z</time>
      </trkpt>
      <trkpt lat="43.403077" lon="-3.956370">
        <ele>17.308</ele>
        <time>2019-06-16T16:17:27Z</time>
      </trkpt>
      <trkpt lat="43.403146" lon="-3.956563">
        <ele>18.408</ele>
        <time>2019-06-16T16:17:28Z</time>
      </trkpt>
      <trkpt lat="43.403237" lon="-3.956757">
        <ele>19.585</ele>
        <time>2019-06-16T16:17:29Z</time>
      </trkpt>
      <trkpt lat="43.403334" lon="-3.956955">
        <ele>20.969</ele>
        <time>2019-06-16T16:17:30Z</time>
      </trkpt>
      <trkpt lat="43.403427" lon="-3.957184">
        <ele>21.399</ele>
        <time>2019-06-16T16:17:31Z</time>
      </trkpt>
      <trkpt lat="43.403538" lon="-3.957412">
        <ele>22.963</ele>
        <time>2019-06-16T16:17:32Z</time>
      </trkpt>
      <trkpt lat="43.403644" lon="-3.957633">
        <ele>24.172</ele>
        <time>2019-06-16T16:17:33Z</time>
      </trkpt>
      <trkpt lat="43.403748" lon="-3.957861">
        <ele>24.962</ele>
        <time>2019-06-16T16:17:34Z</time>
      </trkpt>
      <trkpt lat="43.403861" lon="-3.958079">
        <ele>26.268</ele>
        <time>2019-06-16T16:17:35Z</time>
      </trkpt>
      <trkpt lat="43.403963" lon="-3.958318">
        <ele>27.497</ele>
        <time>2019-06-16T16:17:36Z</time>
      </trkpt>
      <trkpt lat="43.404047" lon="-3.958575">
        <ele>27.643</ele>
        <time>2019-06-16T16:17:37Z</time>
      </trkpt>
      <trkpt lat="43.404112" lon="-3.958836">
        <ele>28.564</ele>
        <time>2019-06-16T16:17:38Z</time>
      </trkpt>
      <trkpt lat="43.404164" lon="-3.959119">
        <ele>29.110</ele>
        <time>2019-06-16T16:17:39Z</time>
      </trkpt>
      <trkpt lat="43.404223" lon="-3.959398">
        <ele>30.308</ele>
        <time>2019-06-16T16:17:40Z</time>
      </trkpt>
      <trkpt lat="43.404291" lon="-3.959677">
        <ele>30.827</ele>
        <time>2019-06-16T16:17:41Z</time>
      </trkpt>
      <trkpt lat="43.404357" lon="-3.959946">
        <ele>30.951</ele>
        <time>2019-06-16T16:17:42Z</time>
      </trkpt>
      <trkpt lat="43.404418" lon="-3.960196">
        <ele>31.531</ele>
        <time>2019-06-16T16:17:43Z</time>
      </trkpt>
      <trkpt lat="43.404482" lon="-3.960436">
        <ele>32.875</ele>
        <time>2019-06-16T16:17:44Z</time>
      </trkpt>
      <trkpt lat="43.404536" lon="-3.960649">
        <ele>33.684</ele>
        <time>2019-06-16T16:17:45Z</time>
      </trkpt>
      <trkpt lat="43.404590" lon="-3.960863">
        <ele>34.224</ele>
        <time>2019-06-16T16:17:46Z</time>
      </trkpt>
      <trkpt lat="43.404667" lon="-3.961065">
        <ele>36.310</ele>
        <time>2019-06-16T16:17:47Z</time>
      </trkpt>
      <trkpt lat="43.404745" lon="-3.961266">
        <ele>37.599</ele>
        <time>2019-06-16T16:17:48Z</time>
      </trkpt>
      <trkpt lat="43.404837" lon="-3.961446">
        <ele>38.657</ele>
        <time>2019-06-16T16:17:49Z</time>
      </trkpt>
      <trkpt lat="43.404971" lon="-3.961637">
        <ele>41.300</ele>
        <time>2019-06-16T16:17:50Z</time>
      </trkpt>
      <trkpt lat="43.405079" lon="-3.961802">
        <ele>42.720</ele>
        <time>2019-06-16T16:17:51Z</time>
      </trkpt>
      <trkpt lat="43.405198" lon="-3.961981">
        <ele>43.908</ele>
        <time>2019-06-16T16:17:52Z</time>
      </trkpt>
      <trkpt lat="43.405303" lon="-3.962148">
        <ele>45.218</ele>
        <time>2019-06-16T16:17:53Z</time>
      </trkpt>
      <trkpt lat="43.405389" lon="-3.962348">
        <ele>45.622</ele>
        <time>2019-06-16T16:17:54Z</time>
      </trkpt>
      <trkpt lat="43.405467" lon="-3.962567">
        <ele>46.542</ele>
        <time>2019-06-16T16:17:55Z</time>
      </trkpt>
      <trkpt lat="43.405520" lon="-3.962787">
        <ele>48.016</ele>
        <time>2019-06-16T16:17:56Z</time>
      </trkpt>
      <trkpt lat="43.405575" lon="-3.963029">
        <ele>49.595</ele>
        <time>2019-06-16T16:17:57Z</time>
      </trkpt>
      <trkpt lat="43.405631" lon="-3.963280">
        <ele>50.715</ele>
        <time>2019-06-16T16:17:58Z</time>
      </trkpt>
      <trkpt lat="43.405685" lon="-3.963541">
        <ele>50.631</ele>
        <time>2019-06-16T16:17:59Z</time>
      </trkpt>
      <trkpt lat="43.405725" lon="-3.963801">
        <ele>51.460</ele>
        <time>2019-06-16T16:18:00Z</time>
      </trkpt>
      <trkpt lat="43.405754" lon="-3.964069">
        <ele>53.159</ele>
        <time>2019-06-16T16:18:01Z</time>
      </trkpt>
      <trkpt lat="43.405777" lon="-3.964329">
        <ele>55.803</ele>
        <time>2019-06-16T16:18:02Z</time>
      </trkpt>
      <trkpt lat="43.405808" lon="-3.964565">
        <ele>58.223</ele>
        <time>2019-06-16T16:18:03Z</time>
      </trkpt>
      <trkpt lat="43.405826" lon="-3.964840">
        <ele>58.808</ele>
        <time>2019-06-16T16:18:04Z</time>
      </trkpt>
      <trkpt lat="43.405847" lon="-3.965108">
        <ele>59.018</ele>
        <time>2019-06-16T16:18:05Z</time>
      </trkpt>
      <trkpt lat="43.405874" lon="-3.965398">
        <ele>59.572</ele>
        <time>2019-06-16T16:18:06Z</time>
      </trkpt>
      <trkpt lat="43.405898" lon="-3.965691">
        <ele>61.572</ele>
        <time>2019-06-16T16:18:07Z</time>
      </trkpt>
      <trkpt lat="43.405917" lon="-3.965959">
        <ele>62.586</ele>
        <time>2019-06-16T16:18:08Z</time>
      </trkpt>
      <trkpt lat="43.405941" lon="-3.966233">
        <ele>62.615</ele>
        <time>2019-06-16T16:18:09Z</time>
      </trkpt>
      <trkpt lat="43.405967" lon="-3.966517">
        <ele>63.685</ele>
        <time>2019-06-16T16:18:10Z</time>
      </trkpt>
      <trkpt lat="43.405978" lon="-3.966786">
        <ele>64.661</ele>
        <time>2019-06-16T16:18:11Z</time>
      </trkpt>
      <trkpt lat="43.406003" lon="-3.967033">
        <ele>66.030</ele>
        <time>2019-06-16T16:18:12Z</time>
      </trkpt>
      <trkpt lat="43.406039" lon="-3.967274">
        <ele>67.632</ele>
        <time>2019-06-16T16:18:13Z</time>
      </trkpt>
      <trkpt lat="43.406069" lon="-3.967523">
        <ele>69.292</ele>
        <time>2019-06-16T16:18:14Z</time>
      </trkpt>
      <trkpt lat="43.406097" lon="-3.967772">
        <ele>70.711</ele>
        <time>2019-06-16T16:18:15Z</time>
      </trkpt>
      <trkpt lat="43.406125" lon="-3.968023">
        <ele>71.008</ele>
        <time>2019-06-16T16:18:16Z</time>
      </trkpt>
      <trkpt lat="43.406147" lon="-3.968277">
        <ele>71.036</ele>
        <time>2019-06-16T16:18:17Z</time>
      </trkpt>
      <trkpt lat="43.406149" lon="-3.968552">
        <ele>70.960</ele>
        <time>2019-06-16T16:18:18Z</time>
      </trkpt>
      <trkpt lat="43.406156" lon="-3.968831">
        <ele>70.730</ele>
        <time>2019-06-16T16:18:19Z</time>
      </trkpt>
      <trkpt lat="43.406171" lon="-3.969123">
        <ele>71.464</ele>
        <time>2019-06-16T16:18:20Z</time>
      </trkpt>
      <trkpt lat="43.406172" lon="-3.969414">
        <ele>72.373</ele>
        <time>2019-06-16T16:18:21Z</time>
      </trkpt>
      <trkpt lat="43.406167" lon="-3.969733">
        <ele>72.633</ele>
        <time>2019-06-16T16:18:22Z</time>
      </trkpt>
      <trkpt lat="43.406139" lon="-3.970055">
        <ele>73.069</ele>
        <time>2019-06-16T16:18:23Z</time>
      </trkpt>
      <trkpt lat="43.406113" lon="-3.970354">
        <ele>74.088</ele>
        <time>2019-06-16T16:18:24Z</time>
      </trkpt>
      <trkpt lat="43.406078" lon="-3.970656">
        <ele>74.026</ele>
        <time>2019-06-16T16:18:25Z</time>
      </trkpt>
      <trkpt lat="43.406029" lon="-3.970965">
        <ele>75.547</ele>
        <time>2019-06-16T16:18:26Z</time>
      </trkpt>
      <trkpt lat="43.405976" lon="-3.971264">
        <ele>77.111</ele>
        <time>2019-06-16T16:18:27Z</time>
      </trkpt>
      <trkpt lat="43.405907" lon="-3.971561">
        <ele>78.808</ele>
        <time>2019-06-16T16:18:28Z</time>
      </trkpt>
      <trkpt lat="43.405843" lon="-3.971839">
        <ele>80.445</ele>
        <time>2019-06-16T16:18:29Z</time>
      </trkpt>
      <trkpt lat="43.405772" lon="-3.972124">
        <ele>82.299</ele>
        <time>2019-06-16T16:18:30Z</time>
      </trkpt>
      <trkpt lat="43.405714" lon="-3.972401">
        <ele>83.799</ele>
        <time>2019-06-16T16:18:31Z</time>
      </trkpt>
      <trkpt lat="43.405651" lon="-3.972669">
        <ele>83.963</ele>
        <time>2019-06-16T16:18:32Z</time>
      </trkpt>
      <trkpt lat="43.405588" lon="-3.972927">
        <ele>82.872</ele>
        <time>2019-06-16T16:18:33Z</time>
      </trkpt>
      <trkpt lat="43.405528" lon="-3.973179">
        <ele>82.752</ele>
        <time>2019-06-16T16:18:34Z</time>
      </trkpt>
      <trkpt lat="43.405459" lon="-3.973430">
        <ele>83.498</ele>
        <time>2019-06-16T16:18:35Z</time>
      </trkpt>
      <trkpt lat="43.405393" lon="-3.973687">
        <ele>83.997</ele>
        <time>2019-06-16T16:18:36Z</time>
      </trkpt>
      <trkpt lat="43.405319" lon="-3.973919">
        <ele>83.368</ele>
        <time>2019-06-16T16:18:37Z</time>
      </trkpt>
      <trkpt lat="43.405247" lon="-3.974133">
        <ele>84.342</ele>
        <time>2019-06-16T16:18:38Z</time>
      </trkpt>
      <trkpt lat="43.405171" lon="-3.974336">
        <ele>84.826</ele>
        <time>2019-06-16T16:18:39Z</time>
      </trkpt>
      <trkpt lat="43.405099" lon="-3.974527">
        <ele>84.808</ele>
        <time>2019-06-16T16:18:40Z</time>
      </trkpt>
      <trkpt lat="43.405013" lon="-3.974702">
        <ele>83.359</ele>
        <time>2019-06-16T16:18:41Z</time>
      </trkpt>
      <trkpt lat="43.404925" lon="-3.974884">
        <ele>83.363</ele>
        <time>2019-06-16T16:18:42Z</time>
      </trkpt>
      <trkpt lat="43.404826" lon="-3.975090">
        <ele>85.383</ele>
        <time>2019-06-16T16:18:43Z</time>
      </trkpt>
      <trkpt lat="43.404731" lon="-3.975268">
        <ele>85.297</ele>
        <time>2019-06-16T16:18:44Z</time>
      </trkpt>
      <trkpt lat="43.404619" lon="-3.975466">
        <ele>86.256</ele>
        <time>2019-06-16T16:18:45Z</time>
      </trkpt>
      <trkpt lat="43.404500" lon="-3.975665">
        <ele>86.346</ele>
        <time>2019-06-16T16:18:46Z</time>
      </trkpt>
      <trkpt lat="43.404379" lon="-3.975870">
        <ele>86.812</ele>
        <time>2019-06-16T16:18:47Z</time>
      </trkpt>
      <trkpt lat="43.404245" lon="-3.976084">
        <ele>87.681</ele>
        <time>2019-06-16T16:18:48Z</time>
      </trkpt>
      <trkpt lat="43.404115" lon="-3.976304">
        <ele>86.974</ele>
        <time>2019-06-16T16:18:49Z</time>
      </trkpt>
      <trkpt lat="43.403977" lon="-3.976533">
        <ele>87.056</ele>
        <time>2019-06-16T16:18:50Z</time>
      </trkpt>
      <trkpt lat="43.403832" lon="-3.976772">
        <ele>85.821</ele>
        <time>2019-06-16T16:18:51Z</time>
      </trkpt>
      <trkpt lat="43.403672" lon="-3.977011">
        <ele>86.408</ele>
        <time>2019-06-16T16:18:52Z</time>
      </trkpt>
      <trkpt lat="43.403520" lon="-3.977251">
        <ele>86.770</ele>
        <time>2019-06-16T16:18:53Z</time>
      </trkpt>
      <trkpt lat="43.403372" lon="-3.977492">
        <ele>87.424</ele>
        <time>2019-06-16T16:18:54Z</time>
      </trkpt>
      <trkpt lat="43.403231" lon="-3.977735">
        <ele>87.084</ele>
        <time>2019-06-16T16:18:55Z</time>
      </trkpt>
      <trkpt lat="43.403076" lon="-3.977988">
        <ele>87.618</ele>
        <time>2019-06-16T16:18:56Z</time>
      </trkpt>
      <trkpt lat="43.402924" lon="-3.978233">
        <ele>88.517</ele>
        <time>2019-06-16T16:18:57Z</time>
      </trkpt>
      <trkpt lat="43.402771" lon="-3.978475">
        <ele>89.987</ele>
        <time>2019-06-16T16:18:58Z</time>
      </trkpt>
      <trkpt lat="43.402617" lon="-3.978715">
        <ele>90.793</ele>
        <time>2019-06-16T16:18:59Z</time>
      </trkpt>
      <trkpt lat="43.402470" lon="-3.978951">
        <ele>90.252</ele>
        <time>2019-06-16T16:19:00Z</time>
      </trkpt>
      <trkpt lat="43.402315" lon="-3.979189">
        <ele>90.092</ele>
        <time>2019-06-16T16:19:01Z</time>
      </trkpt>
      <trkpt lat="43.402167" lon="-3.979423">
        <ele>89.373</ele>
        <time>2019-06-16T16:19:02Z</time>
      </trkpt>
      <trkpt lat="43.402035" lon="-3.979642">
        <ele>90.120</ele>
        <time>2019-06-16T16:19:03Z</time>
      </trkpt>
      <trkpt lat="43.401908" lon="-3.979851">
        <ele>90.908</ele>
        <time>2019-06-16T16:19:04Z</time>
      </trkpt>
      <trkpt lat="43.401782" lon="-3.980069">
        <ele>91.942</ele>
        <time>2019-06-16T16:19:05Z</time>
      </trkpt>
      <trkpt lat="43.401661" lon="-3.980296">
        <ele>92.256</ele>
        <time>2019-06-16T16:19:06Z</time>
      </trkpt>
      <trkpt lat="43.401541" lon="-3.980532">
        <ele>93.586</ele>
        <time>2019-06-16T16:19:07Z</time>
      </trkpt>
      <trkpt lat="43.401439" lon="-3.980784">
        <ele>93.030</ele>
        <time>2019-06-16T16:19:08Z</time>
      </trkpt>
      <trkpt lat="43.401342" lon="-3.981041">
        <ele>93.559</ele>
        <time>2019-06-16T16:19:09Z</time>
      </trkpt>
      <trkpt lat="43.401246" lon="-3.981311">
        <ele>93.859</ele>
        <time>2019-06-16T16:19:10Z</time>
      </trkpt>
      <trkpt lat="43.401151" lon="-3.981574">
        <ele>93.575</ele>
        <time>2019-06-16T16:19:11Z</time>
      </trkpt>
      <trkpt lat="43.401053" lon="-3.981856">
        <ele>93.394</ele>
        <time>2019-06-16T16:19:12Z</time>
      </trkpt>
      <trkpt lat="43.400963" lon="-3.982126">
        <ele>93.328</ele>
        <time>2019-06-16T16:19:13Z</time>
      </trkpt>
      <trkpt lat="43.400868" lon="-3.982398">
        <ele>92.589</ele>
        <time>2019-06-16T16:19:14Z</time>
      </trkpt>
      <trkpt lat="43.400776" lon="-3.982641">
        <ele>91.317</ele>
        <time>2019-06-16T16:19:15Z</time>
      </trkpt>
      <trkpt lat="43.400675" lon="-3.982898">
        <ele>90.708</ele>
        <time>2019-06-16T16:19:16Z</time>
      </trkpt>
      <trkpt lat="43.400574" lon="-3.983149">
        <ele>91.055</ele>
        <time>2019-06-16T16:19:17Z</time>
      </trkpt>
      <trkpt lat="43.400474" lon="-3.983363">
        <ele>90.639</ele>
        <time>2019-06-16T16:19:18Z</time>
      </trkpt>
      <trkpt lat="43.400376" lon="-3.983580">
        <ele>90.829</ele>
        <time>2019-06-16T16:19:19Z</time>
      </trkpt>
      <trkpt lat="43.400279" lon="-3.983793">
        <ele>90.363</ele>
        <time>2019-06-16T16:19:20Z</time>
      </trkpt>
      <trkpt lat="43.400192" lon="-3.983995">
        <ele>90.752</ele>
        <time>2019-06-16T16:19:21Z</time>
      </trkpt>
      <trkpt lat="43.400110" lon="-3.984211">
        <ele>91.282</ele>
        <time>2019-06-16T16:19:22Z</time>
      </trkpt>
      <trkpt lat="43.400032" lon="-3.984423">
        <ele>90.928</ele>
        <time>2019-06-16T16:19:23Z</time>
      </trkpt>
      <trkpt lat="43.399998" lon="-3.984675">
        <ele>90.837</ele>
        <time>2019-06-16T16:19:24Z</time>
      </trkpt>
      <trkpt lat="43.399943" lon="-3.984932">
        <ele>90.856</ele>
        <time>2019-06-16T16:19:25Z</time>
      </trkpt>
      <trkpt lat="43.399892" lon="-3.985179">
        <ele>91.759</ele>
        <time>2019-06-16T16:19:26Z</time>
      </trkpt>
      <trkpt lat="43.399864" lon="-3.985414">
        <ele>92.314</ele>
        <time>2019-06-16T16:19:27Z</time>
      </trkpt>
      <trkpt lat="43.399841" lon="-3.985636">
        <ele>92.208</ele>
        <time>2019-06-16T16:19:28Z</time>
      </trkpt>
      <trkpt lat="43.399805" lon="-3.985841">
        <ele>91.898</ele>
        <time>2019-06-16T16:19:29Z</time>
      </trkpt>
      <trkpt lat="43.399763" lon="-3.986034">
        <ele>90.832</ele>
        <time>2019-06-16T16:19:30Z</time>
      </trkpt>
      <trkpt lat="43.399724" lon="-3.986214">
        <ele>90.482</ele>
        <time>2019-06-16T16:19:31Z</time>
      </trkpt>
      <trkpt lat="43.399696" lon="-3.986391">
        <ele>90.536</ele>
        <time>2019-06-16T16:19:32Z</time>
      </trkpt>
      <trkpt lat="43.399652" lon="-3.986583">
        <ele>89.995</ele>
        <time>2019-06-16T16:19:33Z</time>
      </trkpt>
      <trkpt lat="43.399590" lon="-3.986778">
        <ele>89.595</ele>
        <time>2019-06-16T16:19:34Z</time>
      </trkpt>
      <trkpt lat="43.399515" lon="-3.986965">
        <ele>89.661</ele>
        <time>2019-06-16T16:19:35Z</time>
      </trkpt>
      <trkpt lat="43.399440" lon="-3.987150">
        <ele>89.780</ele>
        <time>2019-06-16T16:19:36Z</time>
      </trkpt>
      <trkpt lat="43.399356" lon="-3.987315">
        <ele>90.079</ele>
        <time>2019-06-16T16:19:37Z</time>
      </trkpt>
      <trkpt lat="43.399273" lon="-3.987476">
        <ele>90.305</ele>
        <time>2019-06-16T16:19:38Z</time>
      </trkpt>
      <trkpt lat="43.399193" lon="-3.987634">
        <ele>89.625</ele>
        <time>2019-06-16T16:19:39Z</time>
      </trkpt>
      <trkpt lat="43.399106" lon="-3.987774">
        <ele>89.208</ele>
        <time>2019-06-16T16:19:40Z</time>
      </trkpt>
      <trkpt lat="43.399026" lon="-3.987927">
        <ele>89.010</ele>
        <time>2019-06-16T16:19:41Z</time>
      </trkpt>
      <trkpt lat="43.398965" lon="-3.988061">
        <ele>88.264</ele>
        <time>2019-06-16T16:19:42Z</time>
      </trkpt>
      <trkpt lat="43.398899" lon="-3.988233">
        <ele>86.864</ele>
        <time>2019-06-16T16:19:43Z</time>
      </trkpt>
      <trkpt lat="43.398829" lon="-3.988392">
        <ele>85.968</ele>
        <time>2019-06-16T16:19:44Z</time>
      </trkpt>
      <trkpt lat="43.398759" lon="-3.988565">
        <ele>84.537</ele>
        <time>2019-06-16T16:19:45Z</time>
      </trkpt>
      <trkpt lat="43.398672" lon="-3.988689">
        <ele>83.637</ele>
        <time>2019-06-16T16:19:46Z</time>
      </trkpt>
      <trkpt lat="43.398579" lon="-3.988807">
        <ele>83.243</ele>
        <time>2019-06-16T16:19:47Z</time>
      </trkpt>
      <trkpt lat="43.398481" lon="-3.988890">
        <ele>82.142</ele>
        <time>2019-06-16T16:19:48Z</time>
      </trkpt>
      <trkpt lat="43.398372" lon="-3.988984">
        <ele>80.869</ele>
        <time>2019-06-16T16:19:49Z</time>
      </trkpt>
      <trkpt lat="43.398261" lon="-3.989079">
        <ele>79.804</ele>
        <time>2019-06-16T16:19:50Z</time>
      </trkpt>
      <trkpt lat="43.398153" lon="-3.989172">
        <ele>78.024</ele>
        <time>2019-06-16T16:19:51Z</time>
      </trkpt>
      <trkpt lat="43.398050" lon="-3.989284">
        <ele>76.508</ele>
        <time>2019-06-16T16:19:52Z</time>
      </trkpt>
      <trkpt lat="43.397946" lon="-3.989384">
        <ele>75.299</ele>
        <time>2019-06-16T16:19:53Z</time>
      </trkpt>
      <trkpt lat="43.397870" lon="-3.989471">
        <ele>73.843</ele>
        <time>2019-06-16T16:19:54Z</time>
      </trkpt>
      <trkpt lat="43.397779" lon="-3.989604">
        <ele>71.953</ele>
        <time>2019-06-16T16:19:55Z</time>
      </trkpt>
      <trkpt lat="43.397724" lon="-3.989739">
        <ele>69.717</ele>
        <time>2019-06-16T16:19:56Z</time>
      </trkpt>
      <trkpt lat="43.397695" lon="-3.989904">
        <ele>67.216</ele>
        <time>2019-06-16T16:19:57Z</time>
      </trkpt>
      <trkpt lat="43.397671" lon="-3.990080">
        <ele>64.886</ele>
        <time>2019-06-16T16:19:58Z</time>
      </trkpt>
      <trkpt lat="43.397667" lon="-3.990307">
        <ele>62.472</ele>
        <time>2019-06-16T16:19:59Z</time>
      </trkpt>
      <trkpt lat="43.397664" lon="-3.990518">
        <ele>61.221</ele>
        <time>2019-06-16T16:20:00Z</time>
      </trkpt>
      <trkpt lat="43.397651" lon="-3.990736">
        <ele>59.429</ele>
        <time>2019-06-16T16:20:01Z</time>
      </trkpt>
      <trkpt lat="43.397648" lon="-3.990953">
        <ele>57.800</ele>
        <time>2019-06-16T16:20:02Z</time>
      </trkpt>
      <trkpt lat="43.397637" lon="-3.991171">
        <ele>56.220</ele>
        <time>2019-06-16T16:20:03Z</time>
      </trkpt>
      <trkpt lat="43.397625" lon="-3.991385">
        <ele>54.808</ele>
        <time>2019-06-16T16:20:04Z</time>
      </trkpt>
      <trkpt lat="43.397623" lon="-3.991605">
        <ele>54.175</ele>
        <time>2019-06-16T16:20:05Z</time>
      </trkpt>
      <trkpt lat="43.397606" lon="-3.991832">
        <ele>52.649</ele>
        <time>2019-06-16T16:20:06Z</time>
      </trkpt>
      <trkpt lat="43.397586" lon="-3.992057">
        <ele>50.779</ele>
        <time>2019-06-16T16:20:07Z</time>
      </trkpt>
      <trkpt lat="43.397531" lon="-3.992267">
        <ele>49.043</ele>
        <time>2019-06-16T16:20:08Z</time>
      </trkpt>
      <trkpt lat="43.397483" lon="-3.992443">
        <ele>48.062</ele>
        <time>2019-06-16T16:20:09Z</time>
      </trkpt>
      <trkpt lat="43.397425" lon="-3.992692">
        <ele>46.562</ele>
        <time>2019-06-16T16:20:10Z</time>
      </trkpt>
      <trkpt lat="43.397363" lon="-3.992932">
        <ele>45.878</ele>
        <time>2019-06-16T16:20:11Z</time>
      </trkpt>
      <trkpt lat="43.397293" lon="-3.993178">
        <ele>45.717</ele>
        <time>2019-06-16T16:20:12Z</time>
      </trkpt>
      <trkpt lat="43.397222" lon="-3.993400">
        <ele>46.287</ele>
        <time>2019-06-16T16:20:13Z</time>
      </trkpt>
      <trkpt lat="43.397149" lon="-3.993626">
        <ele>46.542</ele>
        <time>2019-06-16T16:20:14Z</time>
      </trkpt>
      <trkpt lat="43.397082" lon="-3.993832">
        <ele>46.826</ele>
        <time>2019-06-16T16:20:15Z</time>
      </trkpt>
      <trkpt lat="43.396995" lon="-3.994034">
        <ele>46.708</ele>
        <time>2019-06-16T16:20:16Z</time>
      </trkpt>
      <trkpt lat="43.396901" lon="-3.994212">
        <ele>45.411</ele>
        <time>2019-06-16T16:20:17Z</time>
      </trkpt>
      <trkpt lat="43.396794" lon="-3.994377">
        <ele>43.815</ele>
        <time>2019-06-16T16:20:18Z</time>
      </trkpt>
      <trkpt lat="43.396697" lon="-3.994547">
        <ele>42.125</ele>
        <time>2019-06-16T16:20:19Z</time>
      </trkpt>
      <trkpt lat="43.396582" lon="-3.994742">
        <ele>39.789</ele>
        <time>2019-06-16T16:20:20Z</time>
      </trkpt>
      <trkpt lat="43.396476" lon="-3.994960">
        <ele>37.488</ele>
        <time>2019-06-16T16:20:21Z</time>
      </trkpt>
      <trkpt lat="43.396371" lon="-3.995187">
        <ele>35.198</ele>
        <time>2019-06-16T16:20:22Z</time>
      </trkpt>
      <trkpt lat="43.396284" lon="-3.995443">
        <ele>33.164</ele>
        <time>2019-06-16T16:20:23Z</time>
      </trkpt>
      <trkpt lat="43.396186" lon="-3.995710">
        <ele>31.323</ele>
        <time>2019-06-16T16:20:24Z</time>
      </trkpt>
      <trkpt lat="43.396093" lon="-3.995976">
        <ele>29.818</ele>
        <time>2019-06-16T16:20:25Z</time>
      </trkpt>
      <trkpt lat="43.396018" lon="-3.996248">
        <ele>28.798</ele>
        <time>2019-06-16T16:20:26Z</time>
      </trkpt>
      <trkpt lat="43.395920" lon="-3.996540">
        <ele>27.617</ele>
        <time>2019-06-16T16:20:27Z</time>
      </trkpt>
      <trkpt lat="43.395828" lon="-3.996818">
        <ele>26.408</ele>
        <time>2019-06-16T16:20:28Z</time>
      </trkpt>
      <trkpt lat="43.395751" lon="-3.997086">
        <ele>25.454</ele>
        <time>2019-06-16T16:20:29Z</time>
      </trkpt>
      <trkpt lat="43.395653" lon="-3.997370">
        <ele>24.518</ele>
        <time>2019-06-16T16:20:30Z</time>
      </trkpt>
      <trkpt lat="43.395545" lon="-3.997653">
        <ele>23.478</ele>
        <time>2019-06-16T16:20:31Z</time>
      </trkpt>
      <trkpt lat="43.395457" lon="-3.997943">
        <ele>22.372</ele>
        <time>2019-06-16T16:20:32Z</time>
      </trkpt>
      <trkpt lat="43.395364" lon="-3.998223">
        <ele>21.091</ele>
        <time>2019-06-16T16:20:33Z</time>
      </trkpt>
      <trkpt lat="43.395270" lon="-3.998501">
        <ele>18.861</ele>
        <time>2019-06-16T16:20:34Z</time>
      </trkpt>
      <trkpt lat="43.395180" lon="-3.998773">
        <ele>17.637</ele>
        <time>2019-06-16T16:20:35Z</time>
      </trkpt>
      <trkpt lat="43.395085" lon="-3.999051">
        <ele>15.896</ele>
        <time>2019-06-16T16:20:36Z</time>
      </trkpt>
      <trkpt lat="43.394999" lon="-3.999319">
        <ele>14.573</ele>
        <time>2019-06-16T16:20:37Z</time>
      </trkpt>
      <trkpt lat="43.394898" lon="-3.999605">
        <ele>13.485</ele>
        <time>2019-06-16T16:20:38Z</time>
      </trkpt>
      <trkpt lat="43.394812" lon="-3.999872">
        <ele>13.213</ele>
        <time>2019-06-16T16:20:39Z</time>
      </trkpt>
      <trkpt lat="43.394723" lon="-4.000138">
        <ele>13.008</ele>
        <time>2019-06-16T16:20:40Z</time>
      </trkpt>
      <trkpt lat="43.394637" lon="-4.000384">
        <ele>13.030</ele>
        <time>2019-06-16T16:20:41Z</time>
      </trkpt>
      <trkpt lat="43.394570" lon="-4.000610">
        <ele>12.944</ele>
        <time>2019-06-16T16:20:42Z</time>
      </trkpt>
      <trkpt lat="43.394502" lon="-4.000820">
        <ele>12.894</ele>
        <time>2019-06-16T16:20:43Z</time>
      </trkpt>
      <trkpt lat="43.394439" lon="-4.001049">
        <ele>13.158</ele>
        <time>2019-06-16T16:20:44Z</time>
      </trkpt>
      <trkpt lat="43.394481" lon="-4.001295">
        <ele>14.117</ele>
        <time>2019-06-16T16:20:45Z</time>
      </trkpt>
      <trkpt lat="43.394491" lon="-4.001543">
        <ele>15.647</ele>
        <time>2019-06-16T16:20:46Z</time>
      </trkpt>
      <trkpt lat="43.394457" lon="-4.001782">
        <ele>17.313</ele>
        <time>2019-06-16T16:20:47Z</time>
      </trkpt>
      <trkpt lat="43.394484" lon="-4.001925">
        <ele>17.582</ele>
        <time>2019-06-16T16:20:48Z</time>
      </trkpt>
      <trkpt lat="43.394493" lon="-4.002109">
        <ele>18.278</ele>
        <time>2019-06-16T16:20:49Z</time>
      </trkpt>
      <trkpt lat="43.394636" lon="-4.002272">
        <ele>18.333</ele>
        <time>2019-06-16T16:20:50Z</time>
      </trkpt>
      <trkpt lat="43.394709" lon="-4.002345">
        <ele>18.826</ele>
        <time>2019-06-16T16:20:51Z</time>
      </trkpt>
      <trkpt lat="43.394783" lon="-4.002412">
        <ele>19.608</ele>
        <time>2019-06-16T16:20:52Z</time>
      </trkpt>
      <trkpt lat="43.394886" lon="-4.002444">
        <ele>20.010</ele>
        <time>2019-06-16T16:20:53Z</time>
      </trkpt>
      <trkpt lat="43.394990" lon="-4.002480">
        <ele>20.614</ele>
        <time>2019-06-16T16:20:54Z</time>
      </trkpt>
      <trkpt lat="43.395111" lon="-4.002519">
        <ele>21.094</ele>
        <time>2019-06-16T16:20:55Z</time>
      </trkpt>
      <trkpt lat="43.395235" lon="-4.002566">
        <ele>21.288</ele>
        <time>2019-06-16T16:20:56Z</time>
      </trkpt>
      <trkpt lat="43.395343" lon="-4.002640">
        <ele>21.017</ele>
        <time>2019-06-16T16:20:57Z</time>
      </trkpt>
      <trkpt lat="43.395429" lon="-4.002746">
        <ele>21.387</ele>
        <time>2019-06-16T16:20:58Z</time>
      </trkpt>
      <trkpt lat="43.395465" lon="-4.002912">
        <ele>22.313</ele>
        <time>2019-06-16T16:20:59Z</time>
      </trkpt>
      <trkpt lat="43.395508" lon="-4.003086">
        <ele>22.452</ele>
        <time>2019-06-16T16:21:00Z</time>
      </trkpt>
      <trkpt lat="43.395560" lon="-4.003276">
        <ele>22.545</ele>
        <time>2019-06-16T16:21:01Z</time>
      </trkpt>
      <trkpt lat="43.395607" lon="-4.003465">
        <ele>22.647</ele>
        <time>2019-06-16T16:21:02Z</time>
      </trkpt>
      <trkpt lat="43.395661" lon="-4.003643">
        <ele>22.711</ele>
        <time>2019-06-16T16:21:03Z</time>
      </trkpt>
      <trkpt lat="43.395720" lon="-4.003812">
        <ele>23.108</ele>
        <time>2019-06-16T16:21:04Z</time>
      </trkpt>
      <trkpt lat="43.395807" lon="-4.003931">
        <ele>22.927</ele>
        <time>2019-06-16T16:21:05Z</time>
      </trkpt>
      <trkpt lat="43.395943" lon="-4.004056">
        <ele>22.881</ele>
        <time>2019-06-16T16:21:06Z</time>
      </trkpt>
      <trkpt lat="43.396064" lon="-4.004184">
        <ele>22.891</ele>
        <time>2019-06-16T16:21:07Z</time>
      </trkpt>
      <trkpt lat="43.396205" lon="-4.004315">
        <ele>23.015</ele>
        <time>2019-06-16T16:21:08Z</time>
      </trkpt>
      <trkpt lat="43.396321" lon="-4.004435">
        <ele>23.644</ele>
        <time>2019-06-16T16:21:09Z</time>
      </trkpt>
      <trkpt lat="43.396409" lon="-4.004542">
        <ele>24.434</ele>
        <time>2019-06-16T16:21:10Z</time>
      </trkpt>
      <trkpt lat="43.396501" lon="-4.004644">
        <ele>24.650</ele>
        <time>2019-06-16T16:21:11Z</time>
      </trkpt>
      <trkpt lat="43.396587" lon="-4.004744">
        <ele>24.759</ele>
        <time>2019-06-16T16:21:12Z</time>
      </trkpt>
      <trkpt lat="43.396569" lon="-4.004870">
        <ele>26.462</ele>
        <time>2019-06-16T16:21:13Z</time>
      </trkpt>
      <trkpt lat="43.396596" lon="-4.005013">
        <ele>27.383</ele>
        <time>2019-06-16T16:21:14Z</time>
      </trkpt>
      <trkpt lat="43.396606" lon="-4.005178">
        <ele>27.911</ele>
        <time>2019-06-16T16:21:15Z</time>
      </trkpt>
      <trkpt lat="43.396590" lon="-4.005357">
        <ele>28.708</ele>
        <time>2019-06-16T16:21:16Z</time>
      </trkpt>
      <trkpt lat="43.396577" lon="-4.005532">
        <ele>28.939</ele>
        <time>2019-06-16T16:21:17Z</time>
      </trkpt>
      <trkpt lat="43.396540" lon="-4.005727">
        <ele>29.193</ele>
        <time>2019-06-16T16:21:18Z</time>
      </trkpt>
      <trkpt lat="43.396485" lon="-4.005911">
        <ele>29.323</ele>
        <time>2019-06-16T16:21:19Z</time>
      </trkpt>
      <trkpt lat="43.396397" lon="-4.006091">
        <ele>29.947</ele>
        <time>2019-06-16T16:21:20Z</time>
      </trkpt>
      <trkpt lat="43.396316" lon="-4.006258">
        <ele>30.126</ele>
        <time>2019-06-16T16:21:21Z</time>
      </trkpt>
      <trkpt lat="43.396219" lon="-4.006440">
        <ele>30.976</ele>
        <time>2019-06-16T16:21:22Z</time>
      </trkpt>
      <trkpt lat="43.396108" lon="-4.006611">
        <ele>32.592</ele>
        <time>2019-06-16T16:21:23Z</time>
      </trkpt>
      <trkpt lat="43.395983" lon="-4.006760">
        <ele>33.141</ele>
        <time>2019-06-16T16:21:24Z</time>
      </trkpt>
      <trkpt lat="43.395863" lon="-4.006888">
        <ele>33.481</ele>
        <time>2019-06-16T16:21:25Z</time>
      </trkpt>
      <trkpt lat="43.395731" lon="-4.007022">
        <ele>34.661</ele>
        <time>2019-06-16T16:21:26Z</time>
      </trkpt>
      <trkpt lat="43.395607" lon="-4.007139">
        <ele>35.517</ele>
        <time>2019-06-16T16:21:27Z</time>
      </trkpt>
      <trkpt lat="43.395482" lon="-4.007245">
        <ele>35.608</ele>
        <time>2019-06-16T16:21:28Z</time>
      </trkpt>
      <trkpt lat="43.395363" lon="-4.007342">
        <ele>35.911</ele>
        <time>2019-06-16T16:21:29Z</time>
      </trkpt>
      <trkpt lat="43.395263" lon="-4.007450">
        <ele>35.755</ele>
        <time>2019-06-16T16:21:30Z</time>
      </trkpt>
      <trkpt lat="43.395188" lon="-4.007585">
        <ele>35.965</ele>
        <time>2019-06-16T16:21:31Z</time>
      </trkpt>
      <trkpt lat="43.395125" lon="-4.007731">
        <ele>36.749</ele>
        <time>2019-06-16T16:21:32Z</time>
      </trkpt>
      <trkpt lat="43.395091" lon="-4.007917">
        <ele>37.448</ele>
        <time>2019-06-16T16:21:33Z</time>
      </trkpt>
      <trkpt lat="43.395067" lon="-4.008117">
        <ele>37.668</ele>
        <time>2019-06-16T16:21:34Z</time>
      </trkpt>
      <trkpt lat="43.395042" lon="-4.008321">
        <ele>37.424</ele>
        <time>2019-06-16T16:21:35Z</time>
      </trkpt>
      <trkpt lat="43.395007" lon="-4.008547">
        <ele>37.123</ele>
        <time>2019-06-16T16:21:36Z</time>
      </trkpt>
      <trkpt lat="43.394968" lon="-4.008776">
        <ele>37.936</ele>
        <time>2019-06-16T16:21:37Z</time>
      </trkpt>
      <trkpt lat="43.394929" lon="-4.008982">
        <ele>39.017</ele>
        <time>2019-06-16T16:21:38Z</time>
      </trkpt>
      <trkpt lat="43.394891" lon="-4.009189">
        <ele>40.118</ele>
        <time>2019-06-16T16:21:39Z</time>
      </trkpt>
      <trkpt lat="43.394846" lon="-4.009392">
        <ele>40.508</ele>
        <time>2019-06-16T16:21:40Z</time>
      </trkpt>
      <trkpt lat="43.394799" lon="-4.009593">
        <ele>39.766</ele>
        <time>2019-06-16T16:21:41Z</time>
      </trkpt>
      <trkpt lat="43.394742" lon="-4.009799">
        <ele>39.080</ele>
        <time>2019-06-16T16:21:42Z</time>
      </trkpt>
      <trkpt lat="43.394684" lon="-4.010000">
        <ele>38.750</ele>
        <time>2019-06-16T16:21:43Z</time>
      </trkpt>
      <trkpt lat="43.394622" lon="-4.010213">
        <ele>37.724</ele>
        <time>2019-06-16T16:21:44Z</time>
      </trkpt>
      <trkpt lat="43.394558" lon="-4.010416">
        <ele>36.733</ele>
        <time>2019-06-16T16:21:45Z</time>
      </trkpt>
      <trkpt lat="43.394488" lon="-4.010618">
        <ele>35.363</ele>
        <time>2019-06-16T16:21:46Z</time>
      </trkpt>
      <trkpt lat="43.394409" lon="-4.010821">
        <ele>34.659</ele>
        <time>2019-06-16T16:21:47Z</time>
      </trkpt>
      <trkpt lat="43.394325" lon="-4.011017">
        <ele>34.518</ele>
        <time>2019-06-16T16:21:48Z</time>
      </trkpt>
      <trkpt lat="43.394250" lon="-4.011202">
        <ele>33.595</ele>
        <time>2019-06-16T16:21:49Z</time>
      </trkpt>
      <trkpt lat="43.394166" lon="-4.011384">
        <ele>32.149</ele>
        <time>2019-06-16T16:21:50Z</time>
      </trkpt>
      <trkpt lat="43.394076" lon="-4.011561">
        <ele>32.023</ele>
        <time>2019-06-16T16:21:51Z</time>
      </trkpt>
      <trkpt lat="43.393982" lon="-4.011700">
        <ele>30.808</ele>
        <time>2019-06-16T16:21:52Z</time>
      </trkpt>
      <trkpt lat="43.393871" lon="-4.011827">
        <ele>30.092</ele>
        <time>2019-06-16T16:21:53Z</time>
      </trkpt>
      <trkpt lat="43.393755" lon="-4.011940">
        <ele>29.186</ele>
        <time>2019-06-16T16:21:54Z</time>
      </trkpt>
      <trkpt lat="43.393638" lon="-4.012072">
        <ele>27.846</ele>
        <time>2019-06-16T16:21:55Z</time>
      </trkpt>
      <trkpt lat="43.393521" lon="-4.012196">
        <ele>27.420</ele>
        <time>2019-06-16T16:21:56Z</time>
      </trkpt>
      <trkpt lat="43.393433" lon="-4.012303">
        <ele>27.189</ele>
        <time>2019-06-16T16:21:57Z</time>
      </trkpt>
      <trkpt lat="43.393348" lon="-4.012460">
        <ele>24.849</ele>
        <time>2019-06-16T16:21:58Z</time>
      </trkpt>
      <trkpt lat="43.393283" lon="-4.012632">
        <ele>25.035</ele>
        <time>2019-06-16T16:21:59Z</time>
      </trkpt>
      <trkpt lat="43.393240" lon="-4.012828">
        <ele>24.894</ele>
        <time>2019-06-16T16:22:00Z</time>
      </trkpt>
      <trkpt lat="43.393217" lon="-4.013022">
        <ele>24.322</ele>
        <time>2019-06-16T16:22:01Z</time>
      </trkpt>
      <trkpt lat="43.393205" lon="-4.013225">
        <ele>23.462</ele>
        <time>2019-06-16T16:22:02Z</time>
      </trkpt>
      <trkpt lat="43.393218" lon="-4.013422">
        <ele>21.608</ele>
        <time>2019-06-16T16:22:03Z</time>
      </trkpt>
      <trkpt lat="43.393250" lon="-4.013609">
        <ele>18.908</ele>
        <time>2019-06-16T16:22:04Z</time>
      </trkpt>
      <trkpt lat="43.393300" lon="-4.013791">
        <ele>17.075</ele>
        <time>2019-06-16T16:22:05Z</time>
      </trkpt>
      <trkpt lat="43.393362" lon="-4.013968">
        <ele>17.069</ele>
        <time>2019-06-16T16:22:06Z</time>
      </trkpt>
      <trkpt lat="43.393435" lon="-4.014122">
        <ele>18.659</ele>
        <time>2019-06-16T16:22:07Z</time>
      </trkpt>
      <trkpt lat="43.393558" lon="-4.014289">
        <ele>18.863</ele>
        <time>2019-06-16T16:22:08Z</time>
      </trkpt>
      <trkpt lat="43.393655" lon="-4.014454">
        <ele>16.522</ele>
        <time>2019-06-16T16:22:09Z</time>
      </trkpt>
      <trkpt lat="43.393756" lon="-4.014631">
        <ele>13.732</ele>
        <time>2019-06-16T16:22:10Z</time>
      </trkpt>
      <trkpt lat="43.393857" lon="-4.014770">
        <ele>11.498</ele>
        <time>2019-06-16T16:22:11Z</time>
      </trkpt>
      <trkpt lat="43.393962" lon="-4.014898">
        <ele>10.917</ele>
        <time>2019-06-16T16:22:12Z</time>
      </trkpt>
      <trkpt lat="43.394048" lon="-4.015012">
        <ele>10.418</ele>
        <time>2019-06-16T16:22:13Z</time>
      </trkpt>
      <trkpt lat="43.394113" lon="-4.015118">
        <ele>9.798</ele>
        <time>2019-06-16T16:22:14Z</time>
      </trkpt>
      <trkpt lat="43.394158" lon="-4.015246">
        <ele>9.117</ele>
        <time>2019-06-16T16:22:15Z</time>
      </trkpt>
      <trkpt lat="43.394187" lon="-4.015354">
        <ele>8.508</ele>
        <time>2019-06-16T16:22:16Z</time>
      </trkpt>
      <trkpt lat="43.394187" lon="-4.015468">
        <ele>7.764</ele>
        <time>2019-06-16T16:22:17Z</time>
      </trkpt>
      <trkpt lat="43.394171" lon="-4.015585">
        <ele>6.898</ele>
        <time>2019-06-16T16:22:18Z</time>
      </trkpt>
      <trkpt lat="43.394122" lon="-4.015708">
        <ele>5.988</ele>
        <time>2019-06-16T16:22:19Z</time>
      </trkpt>
      <trkpt lat="43.394051" lon="-4.015854">
        <ele>4.952</ele>
        <time>2019-06-16T16:22:20Z</time>
      </trkpt>
      <trkpt lat="43.393973" lon="-4.016012">
        <ele>4.471</ele>
        <time>2019-06-16T16:22:21Z</time>
      </trkpt>
      <trkpt lat="43.393896" lon="-4.016180">
        <ele>4.091</ele>
        <time>2019-06-16T16:22:22Z</time>
      </trkpt>
      <trkpt lat="43.393818" lon="-4.016365">
        <ele>4.397</ele>
        <time>2019-06-16T16:22:23Z</time>
      </trkpt>
      <trkpt lat="43.393743" lon="-4.016552">
        <ele>4.836</ele>
        <time>2019-06-16T16:22:24Z</time>
      </trkpt>
      <trkpt lat="43.393679" lon="-4.016759">
        <ele>5.369</ele>
        <time>2019-06-16T16:22:25Z</time>
      </trkpt>
      <trkpt lat="43.393617" lon="-4.016973">
        <ele>5.004</ele>
        <time>2019-06-16T16:22:26Z</time>
      </trkpt>
      <trkpt lat="43.393558" lon="-4.017185">
        <ele>6.024</ele>
        <time>2019-06-16T16:22:27Z</time>
      </trkpt>
      <trkpt lat="43.393476" lon="-4.017384">
        <ele>7.408</ele>
        <time>2019-06-16T16:22:28Z</time>
      </trkpt>
      <trkpt lat="43.393389" lon="-4.017593">
        <ele>7.969</ele>
        <time>2019-06-16T16:22:29Z</time>
      </trkpt>
      <trkpt lat="43.393295" lon="-4.017783">
        <ele>7.543</ele>
        <time>2019-06-16T16:22:30Z</time>
      </trkpt>
      <trkpt lat="43.393180" lon="-4.017988">
        <ele>7.623</ele>
        <time>2019-06-16T16:22:31Z</time>
      </trkpt>
      <trkpt lat="43.393065" lon="-4.018170">
        <ele>7.197</ele>
        <time>2019-06-16T16:22:32Z</time>
      </trkpt>
      <trkpt lat="43.392948" lon="-4.018355">
        <ele>7.186</ele>
        <time>2019-06-16T16:22:33Z</time>
      </trkpt>
      <trkpt lat="43.392834" lon="-4.018538">
        <ele>7.846</ele>
        <time>2019-06-16T16:22:34Z</time>
      </trkpt>
      <trkpt lat="43.392729" lon="-4.018719">
        <ele>8.362</ele>
        <time>2019-06-16T16:22:35Z</time>
      </trkpt>
      <trkpt lat="43.392620" lon="-4.018898">
        <ele>9.281</ele>
        <time>2019-06-16T16:22:36Z</time>
      </trkpt>
      <trkpt lat="43.392529" lon="-4.019069">
        <ele>9.973</ele>
        <time>2019-06-16T16:22:37Z</time>
      </trkpt>
      <trkpt lat="43.392449" lon="-4.019243">
        <ele>10.485</ele>
        <time>2019-06-16T16:22:38Z</time>
      </trkpt>
      <trkpt lat="43.392345" lon="-4.019398">
        <ele>10.913</ele>
        <time>2019-06-16T16:22:39Z</time>
      </trkpt>
      <trkpt lat="43.392247" lon="-4.019553">
        <ele>11.708</ele>
        <time>2019-06-16T16:22:40Z</time>
      </trkpt>
      <trkpt lat="43.392138" lon="-4.019714">
        <ele>12.690</ele>
        <time>2019-06-16T16:22:41Z</time>
      </trkpt>
      <trkpt lat="43.392042" lon="-4.019880">
        <ele>12.934</ele>
        <time>2019-06-16T16:22:42Z</time>
      </trkpt>
      <trkpt lat="43.391936" lon="-4.020055">
        <ele>13.194</ele>
        <time>2019-06-16T16:22:43Z</time>
      </trkpt>
      <trkpt lat="43.391840" lon="-4.020226">
        <ele>13.828</ele>
        <time>2019-06-16T16:22:44Z</time>
      </trkpt>
      <trkpt lat="43.391755" lon="-4.020409">
        <ele>13.977</ele>
        <time>2019-06-16T16:22:45Z</time>
      </trkpt>
      <trkpt lat="43.391684" lon="-4.020587">
        <ele>13.867</ele>
        <time>2019-06-16T16:22:46Z</time>
      </trkpt>
      <trkpt lat="43.391624" lon="-4.020771">
        <ele>13.733</ele>
        <time>2019-06-16T16:22:47Z</time>
      </trkpt>
      <trkpt lat="43.391570" lon="-4.020952">
        <ele>13.912</ele>
        <time>2019-06-16T16:22:48Z</time>
      </trkpt>
      <trkpt lat="43.391540" lon="-4.021112">
        <ele>13.946</ele>
        <time>2019-06-16T16:22:49Z</time>
      </trkpt>
      <trkpt lat="43.391509" lon="-4.021269">
        <ele>13.888</ele>
        <time>2019-06-16T16:22:50Z</time>
      </trkpt>
      <trkpt lat="43.391471" lon="-4.021400">
        <ele>13.716</ele>
        <time>2019-06-16T16:22:51Z</time>
      </trkpt>
      <trkpt lat="43.391440" lon="-4.021480">
        <ele>13.508</ele>
        <time>2019-06-16T16:22:52Z</time>
      </trkpt>
      <trkpt lat="43.391414" lon="-4.021553">
        <ele>13.457</ele>
        <time>2019-06-16T16:22:53Z</time>
      </trkpt>
      <trkpt lat="43.391399" lon="-4.021623">
        <ele>13.281</ele>
        <time>2019-06-16T16:23:00Z</time>
      </trkpt>
      <trkpt lat="43.391384" lon="-4.021716">
        <ele>13.091</ele>
        <time>2019-06-16T16:23:02Z</time>
      </trkpt>
      <trkpt lat="43.391372" lon="-4.021775">
        <ele>13.065</ele>
        <time>2019-06-16T16:23:03Z</time>
      </trkpt>
      <trkpt lat="43.391367" lon="-4.021857">
        <ele>13.024</ele>
        <time>2019-06-16T16:23:04Z</time>
      </trkpt>
      <trkpt lat="43.391356" lon="-4.021958">
        <ele>13.074</ele>
        <time>2019-06-16T16:23:05Z</time>
      </trkpt>
      <trkpt lat="43.391330" lon="-4.022070">
        <ele>12.570</ele>
        <time>2019-06-16T16:23:06Z</time>
      </trkpt>
      <trkpt lat="43.391304" lon="-4.022192">
        <ele>12.119</ele>
        <time>2019-06-16T16:23:07Z</time>
      </trkpt>
      <trkpt lat="43.391273" lon="-4.022323">
        <ele>11.861</ele>
        <time>2019-06-16T16:23:08Z</time>
      </trkpt>
      <trkpt lat="43.391248" lon="-4.022468">
        <ele>11.621</ele>
        <time>2019-06-16T16:23:09Z</time>
      </trkpt>
      <trkpt lat="43.391226" lon="-4.022614">
        <ele>11.413</ele>
        <time>2019-06-16T16:23:10Z</time>
      </trkpt>
      <trkpt lat="43.391206" lon="-4.022763">
        <ele>11.308</ele>
        <time>2019-06-16T16:23:11Z</time>
      </trkpt>
      <trkpt lat="43.391188" lon="-4.022916">
        <ele>11.119</ele>
        <time>2019-06-16T16:23:12Z</time>
      </trkpt>
      <trkpt lat="43.391164" lon="-4.023066">
        <ele>10.873</ele>
        <time>2019-06-16T16:23:13Z</time>
      </trkpt>
      <trkpt lat="43.391136" lon="-4.023222">
        <ele>11.083</ele>
        <time>2019-06-16T16:23:14Z</time>
      </trkpt>
      <trkpt lat="43.391104" lon="-4.023375">
        <ele>11.277</ele>
        <time>2019-06-16T16:23:15Z</time>
      </trkpt>
      <trkpt lat="43.391076" lon="-4.023534">
        <ele>12.046</ele>
        <time>2019-06-16T16:23:16Z</time>
      </trkpt>
      <trkpt lat="43.391048" lon="-4.023682">
        <ele>12.396</ele>
        <time>2019-06-16T16:23:17Z</time>
      </trkpt>
      <trkpt lat="43.391019" lon="-4.023843">
        <ele>12.122</ele>
        <time>2019-06-16T16:23:18Z</time>
      </trkpt>
      <trkpt lat="43.390988" lon="-4.023997">
        <ele>11.871</ele>
        <time>2019-06-16T16:23:19Z</time>
      </trkpt>
      <trkpt lat="43.390959" lon="-4.024147">
        <ele>11.295</ele>
        <time>2019-06-16T16:23:20Z</time>
      </trkpt>
      <trkpt lat="43.390930" lon="-4.024298">
        <ele>10.749</ele>
        <time>2019-06-16T16:23:21Z</time>
      </trkpt>
      <trkpt lat="43.390905" lon="-4.024461">
        <ele>9.923</ele>
        <time>2019-06-16T16:23:22Z</time>
      </trkpt>
      <trkpt lat="43.390878" lon="-4.024613">
        <ele>9.008</ele>
        <time>2019-06-16T16:23:23Z</time>
      </trkpt>
      <trkpt lat="43.390851" lon="-4.024791">
        <ele>7.912</ele>
        <time>2019-06-16T16:23:24Z</time>
      </trkpt>
      <trkpt lat="43.390823" lon="-4.024971">
        <ele>7.256</ele>
        <time>2019-06-16T16:23:25Z</time>
      </trkpt>
      <trkpt lat="43.390785" lon="-4.025146">
        <ele>6.816</ele>
        <time>2019-06-16T16:23:26Z</time>
      </trkpt>
      <trkpt lat="43.390755" lon="-4.025336">
        <ele>6.510</ele>
        <time>2019-06-16T16:23:27Z</time>
      </trkpt>
      <trkpt lat="43.390715" lon="-4.025528">
        <ele>6.549</ele>
        <time>2019-06-16T16:23:28Z</time>
      </trkpt>
      <trkpt lat="43.390676" lon="-4.025717">
        <ele>6.229</ele>
        <time>2019-06-16T16:23:29Z</time>
      </trkpt>
      <trkpt lat="43.390624" lon="-4.025903">
        <ele>5.945</ele>
        <time>2019-06-16T16:23:30Z</time>
      </trkpt>
      <trkpt lat="43.390568" lon="-4.026074">
        <ele>6.054</ele>
        <time>2019-06-16T16:23:31Z</time>
      </trkpt>
      <trkpt lat="43.390512" lon="-4.026209">
        <ele>6.746</ele>
        <time>2019-06-16T16:23:32Z</time>
      </trkpt>
      <trkpt lat="43.390437" lon="-4.026356">
        <ele>7.488</ele>
        <time>2019-06-16T16:23:33Z</time>
      </trkpt>
      <trkpt lat="43.390366" lon="-4.026479">
        <ele>8.216</ele>
        <time>2019-06-16T16:23:34Z</time>
      </trkpt>
      <trkpt lat="43.390292" lon="-4.026609">
        <ele>8.808</ele>
        <time>2019-06-16T16:23:35Z</time>
      </trkpt>
      <trkpt lat="43.390221" lon="-4.026723">
        <ele>9.737</ele>
        <time>2019-06-16T16:23:36Z</time>
      </trkpt>
      <trkpt lat="43.390158" lon="-4.026847">
        <ele>10.641</ele>
        <time>2019-06-16T16:23:37Z</time>
      </trkpt>
      <trkpt lat="43.390091" lon="-4.026963">
        <ele>11.011</ele>
        <time>2019-06-16T16:23:38Z</time>
      </trkpt>
      <trkpt lat="43.390031" lon="-4.027069">
        <ele>11.195</ele>
        <time>2019-06-16T16:23:39Z</time>
      </trkpt>
      <trkpt lat="43.389974" lon="-4.027172">
        <ele>11.394</ele>
        <time>2019-06-16T16:23:40Z</time>
      </trkpt>
      <trkpt lat="43.389920" lon="-4.027283">
        <ele>12.054</ele>
        <time>2019-06-16T16:23:41Z</time>
      </trkpt>
      <trkpt lat="43.389860" lon="-4.027394">
        <ele>12.590</ele>
        <time>2019-06-16T16:23:42Z</time>
      </trkpt>
      <trkpt lat="43.389788" lon="-4.027535">
        <ele>12.769</ele>
        <time>2019-06-16T16:23:43Z</time>
      </trkpt>
      <trkpt lat="43.389710" lon="-4.027654">
        <ele>13.119</ele>
        <time>2019-06-16T16:23:44Z</time>
      </trkpt>
      <trkpt lat="43.389641" lon="-4.027769">
        <ele>13.609</ele>
        <time>2019-06-16T16:23:45Z</time>
      </trkpt>
      <trkpt lat="43.389561" lon="-4.027878">
        <ele>14.019</ele>
        <time>2019-06-16T16:23:46Z</time>
      </trkpt>
      <trkpt lat="43.389475" lon="-4.027998">
        <ele>14.108</ele>
        <time>2019-06-16T16:23:47Z</time>
      </trkpt>
      <trkpt lat="43.389389" lon="-4.028106">
        <ele>14.594</ele>
        <time>2019-06-16T16:23:48Z</time>
      </trkpt>
      <trkpt lat="43.389290" lon="-4.028196">
        <ele>15.188</ele>
        <time>2019-06-16T16:23:49Z</time>
      </trkpt>
      <trkpt lat="43.389189" lon="-4.028287">
        <ele>15.148</ele>
        <time>2019-06-16T16:23:50Z</time>
      </trkpt>
      <trkpt lat="43.389085" lon="-4.028366">
        <ele>15.252</ele>
        <time>2019-06-16T16:23:51Z</time>
      </trkpt>
      <trkpt lat="43.388973" lon="-4.028451">
        <ele>15.641</ele>
        <time>2019-06-16T16:23:52Z</time>
      </trkpt>
      <trkpt lat="43.388858" lon="-4.028540">
        <ele>16.161</ele>
        <time>2019-06-16T16:23:53Z</time>
      </trkpt>
      <trkpt lat="43.388742" lon="-4.028637">
        <ele>16.447</ele>
        <time>2019-06-16T16:23:54Z</time>
      </trkpt>
      <trkpt lat="43.388633" lon="-4.028731">
        <ele>16.966</ele>
        <time>2019-06-16T16:23:55Z</time>
      </trkpt>
      <trkpt lat="43.388525" lon="-4.028814">
        <ele>17.663</ele>
        <time>2019-06-16T16:23:56Z</time>
      </trkpt>
      <trkpt lat="43.388420" lon="-4.028907">
        <ele>18.344</ele>
        <time>2019-06-16T16:23:57Z</time>
      </trkpt>
      <trkpt lat="43.388308" lon="-4.028992">
        <ele>18.818</ele>
        <time>2019-06-16T16:23:58Z</time>
      </trkpt>
      <trkpt lat="43.388202" lon="-4.029090">
        <ele>19.108</ele>
        <time>2019-06-16T16:23:59Z</time>
      </trkpt>
      <trkpt lat="43.388114" lon="-4.029153">
        <ele>19.689</ele>
        <time>2019-06-16T16:24:00Z</time>
      </trkpt>
      <trkpt lat="43.388022" lon="-4.029221">
        <ele>19.943</ele>
        <time>2019-06-16T16:24:01Z</time>
      </trkpt>
      <trkpt lat="43.387929" lon="-4.029312">
        <ele>20.243</ele>
        <time>2019-06-16T16:24:02Z</time>
      </trkpt>
      <trkpt lat="43.387839" lon="-4.029407">
        <ele>20.697</ele>
        <time>2019-06-16T16:24:03Z</time>
      </trkpt>
      <trkpt lat="43.387766" lon="-4.029550">
        <ele>20.636</ele>
        <time>2019-06-16T16:24:04Z</time>
      </trkpt>
      <trkpt lat="43.387703" lon="-4.029703">
        <ele>20.326</ele>
        <time>2019-06-16T16:24:05Z</time>
      </trkpt>
      <trkpt lat="43.387647" lon="-4.029860">
        <ele>20.222</ele>
        <time>2019-06-16T16:24:06Z</time>
      </trkpt>
      <trkpt lat="43.387598" lon="-4.030010">
        <ele>20.311</ele>
        <time>2019-06-16T16:24:07Z</time>
      </trkpt>
      <trkpt lat="43.387535" lon="-4.030151">
        <ele>20.723</ele>
        <time>2019-06-16T16:24:08Z</time>
      </trkpt>
      <trkpt lat="43.387477" lon="-4.030304">
        <ele>21.083</ele>
        <time>2019-06-16T16:24:09Z</time>
      </trkpt>
      <trkpt lat="43.387418" lon="-4.030453">
        <ele>20.711</ele>
        <time>2019-06-16T16:24:10Z</time>
      </trkpt>
      <trkpt lat="43.387363" lon="-4.030602">
        <ele>20.408</ele>
        <time>2019-06-16T16:24:11Z</time>
      </trkpt>
      <trkpt lat="43.387300" lon="-4.030764">
        <ele>20.575</ele>
        <time>2019-06-16T16:24:12Z</time>
      </trkpt>
      <trkpt lat="43.387243" lon="-4.030931">
        <ele>20.859</ele>
        <time>2019-06-16T16:24:13Z</time>
      </trkpt>
      <trkpt lat="43.387185" lon="-4.031102">
        <ele>21.089</ele>
        <time>2019-06-16T16:24:14Z</time>
      </trkpt>
      <trkpt lat="43.387124" lon="-4.031274">
        <ele>20.653</ele>
        <time>2019-06-16T16:24:15Z</time>
      </trkpt>
      <trkpt lat="43.387057" lon="-4.031442">
        <ele>20.512</ele>
        <time>2019-06-16T16:24:16Z</time>
      </trkpt>
      <trkpt lat="43.386998" lon="-4.031597">
        <ele>20.782</ele>
        <time>2019-06-16T16:24:17Z</time>
      </trkpt>
      <trkpt lat="43.386940" lon="-4.031755">
        <ele>21.058</ele>
        <time>2019-06-16T16:24:18Z</time>
      </trkpt>
      <trkpt lat="43.386875" lon="-4.031905">
        <ele>21.257</ele>
        <time>2019-06-16T16:24:19Z</time>
      </trkpt>
      <trkpt lat="43.386800" lon="-4.032057">
        <ele>20.949</ele>
        <time>2019-06-16T16:24:20Z</time>
      </trkpt>
      <trkpt lat="43.386704" lon="-4.032204">
        <ele>20.802</ele>
        <time>2019-06-16T16:24:21Z</time>
      </trkpt>
      <trkpt lat="43.386610" lon="-4.032340">
        <ele>21.122</ele>
        <time>2019-06-16T16:24:22Z</time>
      </trkpt>
      <trkpt lat="43.386507" lon="-4.032451">
        <ele>21.108</ele>
        <time>2019-06-16T16:24:23Z</time>
      </trkpt>
      <trkpt lat="43.386398" lon="-4.032557">
        <ele>20.817</ele>
        <time>2019-06-16T16:24:24Z</time>
      </trkpt>
      <trkpt lat="43.386295" lon="-4.032639">
        <ele>20.841</ele>
        <time>2019-06-16T16:24:25Z</time>
      </trkpt>
      <trkpt lat="43.386167" lon="-4.032719">
        <ele>21.011</ele>
        <time>2019-06-16T16:24:26Z</time>
      </trkpt>
      <trkpt lat="43.386042" lon="-4.032770">
        <ele>21.075</ele>
        <time>2019-06-16T16:24:27Z</time>
      </trkpt>
      <trkpt lat="43.385913" lon="-4.032796">
        <ele>20.924</ele>
        <time>2019-06-16T16:24:28Z</time>
      </trkpt>
      <trkpt lat="43.385785" lon="-4.032812">
        <ele>21.154</ele>
        <time>2019-06-16T16:24:29Z</time>
      </trkpt>
      <trkpt lat="43.385657" lon="-4.032826">
        <ele>21.540</ele>
        <time>2019-06-16T16:24:30Z</time>
      </trkpt>
      <trkpt lat="43.385525" lon="-4.032834">
        <ele>21.789</ele>
        <time>2019-06-16T16:24:31Z</time>
      </trkpt>
      <trkpt lat="43.385386" lon="-4.032837">
        <ele>21.421</ele>
        <time>2019-06-16T16:24:32Z</time>
      </trkpt>
      <trkpt lat="43.385248" lon="-4.032847">
        <ele>21.241</ele>
        <time>2019-06-16T16:24:33Z</time>
      </trkpt>
      <trkpt lat="43.385111" lon="-4.032854">
        <ele>21.105</ele>
        <time>2019-06-16T16:24:34Z</time>
      </trkpt>
      <trkpt lat="43.384990" lon="-4.032858">
        <ele>21.008</ele>
        <time>2019-06-16T16:24:35Z</time>
      </trkpt>
      <trkpt lat="43.384861" lon="-4.032861">
        <ele>20.535</ele>
        <time>2019-06-16T16:24:36Z</time>
      </trkpt>
      <trkpt lat="43.384734" lon="-4.032874">
        <ele>20.049</ele>
        <time>2019-06-16T16:24:37Z</time>
      </trkpt>
      <trkpt lat="43.384599" lon="-4.032865">
        <ele>19.369</ele>
        <time>2019-06-16T16:24:38Z</time>
      </trkpt>
      <trkpt lat="43.384463" lon="-4.032878">
        <ele>18.553</ele>
        <time>2019-06-16T16:24:39Z</time>
      </trkpt>
      <trkpt lat="43.384341" lon="-4.032912">
        <ele>17.782</ele>
        <time>2019-06-16T16:24:40Z</time>
      </trkpt>
      <trkpt lat="43.384218" lon="-4.032988">
        <ele>17.142</ele>
        <time>2019-06-16T16:24:41Z</time>
      </trkpt>
      <trkpt lat="43.384096" lon="-4.033060">
        <ele>16.588</ele>
        <time>2019-06-16T16:24:42Z</time>
      </trkpt>
      <trkpt lat="43.383987" lon="-4.033201">
        <ele>15.757</ele>
        <time>2019-06-16T16:24:43Z</time>
      </trkpt>
      <trkpt lat="43.383863" lon="-4.033327">
        <ele>15.077</ele>
        <time>2019-06-16T16:24:44Z</time>
      </trkpt>
      <trkpt lat="43.383739" lon="-4.033446">
        <ele>15.061</ele>
        <time>2019-06-16T16:24:45Z</time>
      </trkpt>
      <trkpt lat="43.383625" lon="-4.033570">
        <ele>15.027</ele>
        <time>2019-06-16T16:24:46Z</time>
      </trkpt>
      <trkpt lat="43.383515" lon="-4.033700">
        <ele>14.708</ele>
        <time>2019-06-16T16:24:47Z</time>
      </trkpt>
      <trkpt lat="43.383408" lon="-4.033825">
        <ele>14.240</ele>
        <time>2019-06-16T16:24:48Z</time>
      </trkpt>
      <trkpt lat="43.383299" lon="-4.033931">
        <ele>13.974</ele>
        <time>2019-06-16T16:24:49Z</time>
      </trkpt>
      <trkpt lat="43.383186" lon="-4.034065">
        <ele>13.884</ele>
        <time>2019-06-16T16:24:50Z</time>
      </trkpt>
      <trkpt lat="43.383069" lon="-4.034194">
        <ele>13.898</ele>
        <time>2019-06-16T16:24:51Z</time>
      </trkpt>
      <trkpt lat="43.382960" lon="-4.034317">
        <ele>14.177</ele>
        <time>2019-06-16T16:24:52Z</time>
      </trkpt>
      <trkpt lat="43.382859" lon="-4.034441">
        <ele>13.757</ele>
        <time>2019-06-16T16:24:53Z</time>
      </trkpt>
      <trkpt lat="43.382750" lon="-4.034560">
        <ele>13.413</ele>
        <time>2019-06-16T16:24:54Z</time>
      </trkpt>
      <trkpt lat="43.382649" lon="-4.034675">
        <ele>13.312</ele>
        <time>2019-06-16T16:24:55Z</time>
      </trkpt>
      <trkpt lat="43.382545" lon="-4.034793">
        <ele>13.012</ele>
        <time>2019-06-16T16:24:56Z</time>
      </trkpt>
      <trkpt lat="43.382442" lon="-4.034911">
        <ele>12.032</ele>
        <time>2019-06-16T16:24:57Z</time>
      </trkpt>
      <trkpt lat="43.382348" lon="-4.035020">
        <ele>10.805</ele>
        <time>2019-06-16T16:24:58Z</time>
      </trkpt>
      <trkpt lat="43.382257" lon="-4.035122">
        <ele>10.408</ele>
        <time>2019-06-16T16:24:59Z</time>
      </trkpt>
      <trkpt lat="43.382163" lon="-4.035235">
        <ele>10.324</ele>
        <time>2019-06-16T16:25:00Z</time>
      </trkpt>
      <trkpt lat="43.382060" lon="-4.035359">
        <ele>10.028</ele>
        <time>2019-06-16T16:25:01Z</time>
      </trkpt>
      <trkpt lat="43.381963" lon="-4.035484">
        <ele>10.178</ele>
        <time>2019-06-16T16:25:02Z</time>
      </trkpt>
      <trkpt lat="43.381873" lon="-4.035614">
        <ele>9.792</ele>
        <time>2019-06-16T16:25:03Z</time>
      </trkpt>
      <trkpt lat="43.381781" lon="-4.035752">
        <ele>8.931</ele>
        <time>2019-06-16T16:25:04Z</time>
      </trkpt>
      <trkpt lat="43.381695" lon="-4.035870">
        <ele>8.511</ele>
        <time>2019-06-16T16:25:05Z</time>
      </trkpt>
      <trkpt lat="43.381615" lon="-4.035996">
        <ele>8.177</ele>
        <time>2019-06-16T16:25:06Z</time>
      </trkpt>
      <trkpt lat="43.381528" lon="-4.036127">
        <ele>7.476</ele>
        <time>2019-06-16T16:25:07Z</time>
      </trkpt>
      <trkpt lat="43.381450" lon="-4.036261">
        <ele>7.541</ele>
        <time>2019-06-16T16:25:08Z</time>
      </trkpt>
      <trkpt lat="43.381371" lon="-4.036392">
        <ele>7.981</ele>
        <time>2019-06-16T16:25:09Z</time>
      </trkpt>
      <trkpt lat="43.381293" lon="-4.036521">
        <ele>6.409</ele>
        <time>2019-06-16T16:25:10Z</time>
      </trkpt>
      <trkpt lat="43.381222" lon="-4.036648">
        <ele>5.208</ele>
        <time>2019-06-16T16:25:11Z</time>
      </trkpt>
      <trkpt lat="43.381146" lon="-4.036774">
        <ele>5.337</ele>
        <time>2019-06-16T16:25:12Z</time>
      </trkpt>
      <trkpt lat="43.381089" lon="-4.036868">
        <ele>5.781</ele>
        <time>2019-06-16T16:25:13Z</time>
      </trkpt>
      <trkpt lat="43.381026" lon="-4.036979">
        <ele>5.921</ele>
        <time>2019-06-16T16:25:14Z</time>
      </trkpt>
      <trkpt lat="43.380966" lon="-4.037089">
        <ele>5.855</ele>
        <time>2019-06-16T16:25:15Z</time>
      </trkpt>
      <trkpt lat="43.380920" lon="-4.037179">
        <ele>5.754</ele>
        <time>2019-06-16T16:25:16Z</time>
      </trkpt>
      <trkpt lat="43.380873" lon="-4.037281">
        <ele>5.944</ele>
        <time>2019-06-16T16:25:17Z</time>
      </trkpt>
      <trkpt lat="43.380837" lon="-4.037369">
        <ele>6.090</ele>
        <time>2019-06-16T16:25:18Z</time>
      </trkpt>
      <trkpt lat="43.380808" lon="-4.037448">
        <ele>6.089</ele>
        <time>2019-06-16T16:25:19Z</time>
      </trkpt>
      <trkpt lat="43.380793" lon="-4.037520">
        <ele>6.093</ele>
        <time>2019-06-16T16:25:20Z</time>
      </trkpt>
      <trkpt lat="43.380770" lon="-4.037596">
        <ele>6.065</ele>
        <time>2019-06-16T16:25:21Z</time>
      </trkpt>
      <trkpt lat="43.380733" lon="-4.037672">
        <ele>6.021</ele>
        <time>2019-06-16T16:25:22Z</time>
      </trkpt>
      <trkpt lat="43.380694" lon="-4.037741">
        <ele>6.008</ele>
        <time>2019-06-16T16:25:23Z</time>
      </trkpt>
      <trkpt lat="43.380637" lon="-4.037786">
        <ele>6.092</ele>
        <time>2019-06-16T16:25:24Z</time>
      </trkpt>
      <trkpt lat="43.380572" lon="-4.037806">
        <ele>5.956</ele>
        <time>2019-06-16T16:25:25Z</time>
      </trkpt>
      <trkpt lat="43.380501" lon="-4.037833">
        <ele>5.686</ele>
        <time>2019-06-16T16:25:26Z</time>
      </trkpt>
      <trkpt lat="43.380419" lon="-4.037902">
        <ele>5.330</ele>
        <time>2019-06-16T16:25:27Z</time>
      </trkpt>
      <trkpt lat="43.380327" lon="-4.037957">
        <ele>5.149</ele>
        <time>2019-06-16T16:25:28Z</time>
      </trkpt>
      <trkpt lat="43.380230" lon="-4.038029">
        <ele>5.019</ele>
        <time>2019-06-16T16:25:29Z</time>
      </trkpt>
      <trkpt lat="43.380133" lon="-4.038094">
        <ele>5.055</ele>
        <time>2019-06-16T16:25:30Z</time>
      </trkpt>
      <trkpt lat="43.380025" lon="-4.038159">
        <ele>5.014</ele>
        <time>2019-06-16T16:25:31Z</time>
      </trkpt>
      <trkpt lat="43.379910" lon="-4.038220">
        <ele>5.057</ele>
        <time>2019-06-16T16:25:32Z</time>
      </trkpt>
      <trkpt lat="43.379787" lon="-4.038279">
        <ele>5.000</ele>
        <time>2019-06-16T16:25:33Z</time>
      </trkpt>
      <trkpt lat="43.379666" lon="-4.038331">
        <ele>5.020</ele>
        <time>2019-06-16T16:25:34Z</time>
      </trkpt>
      <trkpt lat="43.379543" lon="-4.038392">
        <ele>5.008</ele>
        <time>2019-06-16T16:25:35Z</time>
      </trkpt>
      <trkpt lat="43.379417" lon="-4.038447">
        <ele>5.058</ele>
        <time>2019-06-16T16:25:36Z</time>
      </trkpt>
      <trkpt lat="43.379296" lon="-4.038498">
        <ele>5.032</ele>
        <time>2019-06-16T16:25:37Z</time>
      </trkpt>
      <trkpt lat="43.379186" lon="-4.038546">
        <ele>5.062</ele>
        <time>2019-06-16T16:25:38Z</time>
      </trkpt>
      <trkpt lat="43.379053" lon="-4.038598">
        <ele>5.096</ele>
        <time>2019-06-16T16:25:39Z</time>
      </trkpt>
      <trkpt lat="43.378936" lon="-4.038628">
        <ele>5.035</ele>
        <time>2019-06-16T16:25:40Z</time>
      </trkpt>
      <trkpt lat="43.378817" lon="-4.038681">
        <ele>5.045</ele>
        <time>2019-06-16T16:25:41Z</time>
      </trkpt>
      <trkpt lat="43.378693" lon="-4.038713">
        <ele>5.061</ele>
        <time>2019-06-16T16:25:42Z</time>
      </trkpt>
      <trkpt lat="43.378565" lon="-4.038772">
        <ele>5.290</ele>
        <time>2019-06-16T16:25:43Z</time>
      </trkpt>
      <trkpt lat="43.378430" lon="-4.038843">
        <ele>5.736</ele>
        <time>2019-06-16T16:25:44Z</time>
      </trkpt>
      <trkpt lat="43.378304" lon="-4.038907">
        <ele>5.817</ele>
        <time>2019-06-16T16:25:45Z</time>
      </trkpt>
      <trkpt lat="43.378184" lon="-4.038967">
        <ele>5.518</ele>
        <time>2019-06-16T16:25:46Z</time>
      </trkpt>
      <trkpt lat="43.378053" lon="-4.039028">
        <ele>5.508</ele>
        <time>2019-06-16T16:25:47Z</time>
      </trkpt>
      <trkpt lat="43.377916" lon="-4.039086">
        <ele>5.996</ele>
        <time>2019-06-16T16:25:48Z</time>
      </trkpt>
      <trkpt lat="43.377773" lon="-4.039152">
        <ele>6.040</ele>
        <time>2019-06-16T16:25:49Z</time>
      </trkpt>
      <trkpt lat="43.377650" lon="-4.039205">
        <ele>6.080</ele>
        <time>2019-06-16T16:25:50Z</time>
      </trkpt>
      <trkpt lat="43.377517" lon="-4.039263">
        <ele>6.024</ele>
        <time>2019-06-16T16:25:51Z</time>
      </trkpt>
      <trkpt lat="43.377385" lon="-4.039319">
        <ele>6.083</ele>
        <time>2019-06-16T16:25:52Z</time>
      </trkpt>
      <trkpt lat="43.377262" lon="-4.039404">
        <ele>6.093</ele>
        <time>2019-06-16T16:25:53Z</time>
      </trkpt>
      <trkpt lat="43.377128" lon="-4.039462">
        <ele>6.039</ele>
        <time>2019-06-16T16:25:54Z</time>
      </trkpt>
      <trkpt lat="43.376997" lon="-4.039519">
        <ele>6.068</ele>
        <time>2019-06-16T16:25:55Z</time>
      </trkpt>
      <trkpt lat="43.376875" lon="-4.039563">
        <ele>6.065</ele>
        <time>2019-06-16T16:25:56Z</time>
      </trkpt>
      <trkpt lat="43.376744" lon="-4.039619">
        <ele>6.068</ele>
        <time>2019-06-16T16:25:57Z</time>
      </trkpt>
      <trkpt lat="43.376616" lon="-4.039664">
        <ele>6.014</ele>
        <time>2019-06-16T16:25:58Z</time>
      </trkpt>
      <trkpt lat="43.376484" lon="-4.039719">
        <ele>6.008</ele>
        <time>2019-06-16T16:25:59Z</time>
      </trkpt>
      <trkpt lat="43.376335" lon="-4.039777">
        <ele>6.249</ele>
        <time>2019-06-16T16:26:00Z</time>
      </trkpt>
      <trkpt lat="43.376191" lon="-4.039841">
        <ele>6.123</ele>
        <time>2019-06-16T16:26:01Z</time>
      </trkpt>
      <trkpt lat="43.376047" lon="-4.039902">
        <ele>6.153</ele>
        <time>2019-06-16T16:26:02Z</time>
      </trkpt>
      <trkpt lat="43.375907" lon="-4.039963">
        <ele>6.687</ele>
        <time>2019-06-16T16:26:03Z</time>
      </trkpt>
      <trkpt lat="43.375765" lon="-4.040024">
        <ele>7.046</ele>
        <time>2019-06-16T16:26:04Z</time>
      </trkpt>
      <trkpt lat="43.375622" lon="-4.040090">
        <ele>7.056</ele>
        <time>2019-06-16T16:26:05Z</time>
      </trkpt>
      <trkpt lat="43.375490" lon="-4.040155">
        <ele>7.032</ele>
        <time>2019-06-16T16:26:06Z</time>
      </trkpt>
      <trkpt lat="43.375358" lon="-4.040192">
        <ele>7.021</ele>
        <time>2019-06-16T16:26:07Z</time>
      </trkpt>
      <trkpt lat="43.375226" lon="-4.040229">
        <ele>7.019</ele>
        <time>2019-06-16T16:26:08Z</time>
      </trkpt>
      <trkpt lat="43.375097" lon="-4.040281">
        <ele>7.009</ele>
        <time>2019-06-16T16:26:09Z</time>
      </trkpt>
      <trkpt lat="43.374972" lon="-4.040332">
        <ele>7.019</ele>
        <time>2019-06-16T16:26:10Z</time>
      </trkpt>
      <trkpt lat="43.374845" lon="-4.040387">
        <ele>7.008</ele>
        <time>2019-06-16T16:26:11Z</time>
      </trkpt>
      <trkpt lat="43.374722" lon="-4.040437">
        <ele>7.024</ele>
        <time>2019-06-16T16:26:12Z</time>
      </trkpt>
      <trkpt lat="43.374614" lon="-4.040500">
        <ele>7.028</ele>
        <time>2019-06-16T16:26:13Z</time>
      </trkpt>
      <trkpt lat="43.374495" lon="-4.040552">
        <ele>7.068</ele>
        <time>2019-06-16T16:26:14Z</time>
      </trkpt>
      <trkpt lat="43.374379" lon="-4.040599">
        <ele>7.012</ele>
        <time>2019-06-16T16:26:15Z</time>
      </trkpt>
      <trkpt lat="43.374253" lon="-4.040657">
        <ele>7.011</ele>
        <time>2019-06-16T16:26:16Z</time>
      </trkpt>
      <trkpt lat="43.374143" lon="-4.040686">
        <ele>7.041</ele>
        <time>2019-06-16T16:26:17Z</time>
      </trkpt>
      <trkpt lat="43.374025" lon="-4.040731">
        <ele>7.067</ele>
        <time>2019-06-16T16:26:18Z</time>
      </trkpt>
      <trkpt lat="43.373913" lon="-4.040778">
        <ele>7.036</ele>
        <time>2019-06-16T16:26:19Z</time>
      </trkpt>
      <trkpt lat="43.373808" lon="-4.040830">
        <ele>7.339</ele>
        <time>2019-06-16T16:26:20Z</time>
      </trkpt>
      <trkpt lat="43.373706" lon="-4.040876">
        <ele>7.601</ele>
        <time>2019-06-16T16:26:21Z</time>
      </trkpt>
      <trkpt lat="43.373629" lon="-4.040905">
        <ele>7.721</ele>
        <time>2019-06-16T16:26:22Z</time>
      </trkpt>
      <trkpt lat="43.373550" lon="-4.040950">
        <ele>7.708</ele>
        <time>2019-06-16T16:26:23Z</time>
      </trkpt>
      <trkpt lat="43.373480" lon="-4.040992">
        <ele>7.736</ele>
        <time>2019-06-16T16:26:24Z</time>
      </trkpt>
      <trkpt lat="43.373425" lon="-4.041036">
        <ele>7.870</ele>
        <time>2019-06-16T16:26:25Z</time>
      </trkpt>
      <trkpt lat="43.373367" lon="-4.041083">
        <ele>7.910</ele>
        <time>2019-06-16T16:26:26Z</time>
      </trkpt>
      <trkpt lat="43.373335" lon="-4.041139">
        <ele>8.074</ele>
        <time>2019-06-16T16:26:27Z</time>
      </trkpt>
      <trkpt lat="43.373304" lon="-4.041199">
        <ele>8.013</ele>
        <time>2019-06-16T16:26:28Z</time>
      </trkpt>
      <trkpt lat="43.373273" lon="-4.041278">
        <ele>8.173</ele>
        <time>2019-06-16T16:26:29Z</time>
      </trkpt>
      <trkpt lat="43.373250" lon="-4.041382">
        <ele>8.379</ele>
        <time>2019-06-16T16:26:30Z</time>
      </trkpt>
      <trkpt lat="43.373244" lon="-4.041497">
        <ele>8.518</ele>
        <time>2019-06-16T16:26:31Z</time>
      </trkpt>
      <trkpt lat="43.373262" lon="-4.041631">
        <ele>8.767</ele>
        <time>2019-06-16T16:26:32Z</time>
      </trkpt>
      <trkpt lat="43.373296" lon="-4.041756">
        <ele>9.481</ele>
        <time>2019-06-16T16:26:33Z</time>
      </trkpt>
      <trkpt lat="43.373329" lon="-4.041896">
        <ele>10.619</ele>
        <time>2019-06-16T16:26:34Z</time>
      </trkpt>
      <trkpt lat="43.373369" lon="-4.042023">
        <ele>10.308</ele>
        <time>2019-06-16T16:26:35Z</time>
      </trkpt>
      <trkpt lat="43.373404" lon="-4.042158">
        <ele>9.619</ele>
        <time>2019-06-16T16:26:36Z</time>
      </trkpt>
      <trkpt lat="43.373443" lon="-4.042287">
        <ele>8.943</ele>
        <time>2019-06-16T16:26:37Z</time>
      </trkpt>
      <trkpt lat="43.373475" lon="-4.042412">
        <ele>8.373</ele>
        <time>2019-06-16T16:26:38Z</time>
      </trkpt>
      <trkpt lat="43.373504" lon="-4.042533">
        <ele>8.447</ele>
        <time>2019-06-16T16:26:39Z</time>
      </trkpt>
      <trkpt lat="43.373542" lon="-4.042652">
        <ele>9.356</ele>
        <time>2019-06-16T16:26:40Z</time>
      </trkpt>
      <trkpt lat="43.373578" lon="-4.042771">
        <ele>10.586</ele>
        <time>2019-06-16T16:26:41Z</time>
      </trkpt>
      <trkpt lat="43.373620" lon="-4.042888">
        <ele>10.262</ele>
        <time>2019-06-16T16:26:42Z</time>
      </trkpt>
      <trkpt lat="43.373676" lon="-4.042975">
        <ele>9.861</ele>
        <time>2019-06-16T16:26:43Z</time>
      </trkpt>
      <trkpt lat="43.373767" lon="-4.043027">
        <ele>10.118</ele>
        <time>2019-06-16T16:26:44Z</time>
      </trkpt>
      <trkpt lat="43.373838" lon="-4.043087">
        <ele>10.398</ele>
        <time>2019-06-16T16:26:45Z</time>
      </trkpt>
      <trkpt lat="43.373924" lon="-4.043135">
        <ele>10.117</ele>
        <time>2019-06-16T16:26:46Z</time>
      </trkpt>
      <trkpt lat="43.374008" lon="-4.043170">
        <ele>9.708</ele>
        <time>2019-06-16T16:26:47Z</time>
      </trkpt>
      <trkpt lat="43.374084" lon="-4.043199">
        <ele>9.584</ele>
        <time>2019-06-16T16:26:48Z</time>
      </trkpt>
      <trkpt lat="43.374161" lon="-4.043228">
        <ele>9.448</ele>
        <time>2019-06-16T16:26:49Z</time>
      </trkpt>
      <trkpt lat="43.374232" lon="-4.043238">
        <ele>9.398</ele>
        <time>2019-06-16T16:26:50Z</time>
      </trkpt>
      <trkpt lat="43.374292" lon="-4.043252">
        <ele>9.242</ele>
        <time>2019-06-16T16:26:51Z</time>
      </trkpt>
      <trkpt lat="43.374336" lon="-4.043271">
        <ele>9.141</ele>
        <time>2019-06-16T16:26:52Z</time>
      </trkpt>
      <trkpt lat="43.374384" lon="-4.043280">
        <ele>9.091</ele>
        <time>2019-06-16T16:26:54Z</time>
      </trkpt>
      <trkpt lat="43.374454" lon="-4.043288">
        <ele>9.077</ele>
        <time>2019-06-16T16:26:57Z</time>
      </trkpt>
      <trkpt lat="43.374552" lon="-4.043291">
        <ele>9.096</ele>
        <time>2019-06-16T16:26:58Z</time>
      </trkpt>
      <trkpt lat="43.374644" lon="-4.043309">
        <ele>9.031</ele>
        <time>2019-06-16T16:26:59Z</time>
      </trkpt>
      <trkpt lat="43.374758" lon="-4.043324">
        <ele>8.961</ele>
        <time>2019-06-16T16:27:00Z</time>
      </trkpt>
      <trkpt lat="43.374884" lon="-4.043353">
        <ele>8.407</ele>
        <time>2019-06-16T16:27:01Z</time>
      </trkpt>
      <trkpt lat="43.375007" lon="-4.043383">
        <ele>8.008</ele>
        <time>2019-06-16T16:27:02Z</time>
      </trkpt>
      <trkpt lat="43.375127" lon="-4.043419">
        <ele>8.096</ele>
        <time>2019-06-16T16:27:03Z</time>
      </trkpt>
      <trkpt lat="43.375263" lon="-4.043469">
        <ele>8.010</ele>
        <time>2019-06-16T16:27:04Z</time>
      </trkpt>
      <trkpt lat="43.375393" lon="-4.043530">
        <ele>8.230</ele>
        <time>2019-06-16T16:27:05Z</time>
      </trkpt>
      <trkpt lat="43.375512" lon="-4.043637">
        <ele>8.894</ele>
        <time>2019-06-16T16:27:06Z</time>
      </trkpt>
      <trkpt lat="43.375630" lon="-4.043753">
        <ele>8.053</ele>
        <time>2019-06-16T16:27:07Z</time>
      </trkpt>
      <trkpt lat="43.375734" lon="-4.043904">
        <ele>7.433</ele>
        <time>2019-06-16T16:27:08Z</time>
      </trkpt>
      <trkpt lat="43.375806" lon="-4.044090">
        <ele>7.769</ele>
        <time>2019-06-16T16:27:09Z</time>
      </trkpt>
      <trkpt lat="43.375898" lon="-4.044276">
        <ele>7.478</ele>
        <time>2019-06-16T16:27:10Z</time>
      </trkpt>
      <trkpt lat="43.375993" lon="-4.044471">
        <ele>7.679</ele>
        <time>2019-06-16T16:27:11Z</time>
      </trkpt>
      <trkpt lat="43.376089" lon="-4.044675">
        <ele>8.605</ele>
        <time>2019-06-16T16:27:12Z</time>
      </trkpt>
      <trkpt lat="43.376193" lon="-4.044882">
        <ele>7.625</ele>
        <time>2019-06-16T16:27:13Z</time>
      </trkpt>
      <trkpt lat="43.376292" lon="-4.045080">
        <ele>7.408</ele>
        <time>2019-06-16T16:27:14Z</time>
      </trkpt>
      <trkpt lat="43.376386" lon="-4.045271">
        <ele>7.090</ele>
        <time>2019-06-16T16:27:15Z</time>
      </trkpt>
      <trkpt lat="43.376475" lon="-4.045450">
        <ele>7.444</ele>
        <time>2019-06-16T16:27:16Z</time>
      </trkpt>
      <trkpt lat="43.376559" lon="-4.045618">
        <ele>8.554</ele>
        <time>2019-06-16T16:27:17Z</time>
      </trkpt>
      <trkpt lat="43.376634" lon="-4.045783">
        <ele>10.298</ele>
        <time>2019-06-16T16:27:18Z</time>
      </trkpt>
      <trkpt lat="43.376714" lon="-4.045944">
        <ele>10.137</ele>
        <time>2019-06-16T16:27:19Z</time>
      </trkpt>
      <trkpt lat="43.376794" lon="-4.046107">
        <ele>9.547</ele>
        <time>2019-06-16T16:27:20Z</time>
      </trkpt>
      <trkpt lat="43.376882" lon="-4.046269">
        <ele>7.123</ele>
        <time>2019-06-16T16:27:21Z</time>
      </trkpt>
      <trkpt lat="43.376966" lon="-4.046436">
        <ele>4.472</ele>
        <time>2019-06-16T16:27:22Z</time>
      </trkpt>
      <trkpt lat="43.377052" lon="-4.046603">
        <ele>2.628</ele>
        <time>2019-06-16T16:27:23Z</time>
      </trkpt>
      <trkpt lat="43.377140" lon="-4.046779">
        <ele>2.589</ele>
        <time>2019-06-16T16:27:24Z</time>
      </trkpt>
      <trkpt lat="43.377220" lon="-4.046944">
        <ele>3.017</ele>
        <time>2019-06-16T16:27:25Z</time>
      </trkpt>
      <trkpt lat="43.377305" lon="-4.047114">
        <ele>5.308</ele>
        <time>2019-06-16T16:27:26Z</time>
      </trkpt>
      <trkpt lat="43.377392" lon="-4.047289">
        <ele>7.995</ele>
        <time>2019-06-16T16:27:27Z</time>
      </trkpt>
      <trkpt lat="43.377475" lon="-4.047457">
        <ele>10.449</ele>
        <time>2019-06-16T16:27:28Z</time>
      </trkpt>
      <trkpt lat="43.377560" lon="-4.047613">
        <ele>11.089</ele>
        <time>2019-06-16T16:27:29Z</time>
      </trkpt>
      <trkpt lat="43.377636" lon="-4.047765">
        <ele>11.473</ele>
        <time>2019-06-16T16:27:30Z</time>
      </trkpt>
      <trkpt lat="43.377708" lon="-4.047890">
        <ele>12.432</ele>
        <time>2019-06-16T16:27:31Z</time>
      </trkpt>
      <trkpt lat="43.377767" lon="-4.048001">
        <ele>13.542</ele>
        <time>2019-06-16T16:27:32Z</time>
      </trkpt>
      <trkpt lat="43.377808" lon="-4.048079">
        <ele>13.828</ele>
        <time>2019-06-16T16:27:33Z</time>
      </trkpt>
      <trkpt lat="43.377842" lon="-4.048139">
        <ele>13.757</ele>
        <time>2019-06-16T16:27:34Z</time>
      </trkpt>
      <trkpt lat="43.377903" lon="-4.048189">
        <ele>13.733</ele>
        <time>2019-06-16T16:27:35Z</time>
      </trkpt>
      <trkpt lat="43.377967" lon="-4.048247">
        <ele>14.023</ele>
        <time>2019-06-16T16:27:36Z</time>
      </trkpt>
      <trkpt lat="43.378032" lon="-4.048313">
        <ele>14.715</ele>
        <time>2019-06-16T16:27:37Z</time>
      </trkpt>
      <trkpt lat="43.378104" lon="-4.048377">
        <ele>15.208</ele>
        <time>2019-06-16T16:27:38Z</time>
      </trkpt>
      <trkpt lat="43.378189" lon="-4.048430">
        <ele>15.336</ele>
        <time>2019-06-16T16:27:39Z</time>
      </trkpt>
      <trkpt lat="43.378291" lon="-4.048455">
        <ele>15.450</ele>
        <time>2019-06-16T16:27:40Z</time>
      </trkpt>
      <trkpt lat="43.378379" lon="-4.048476">
        <ele>15.830</ele>
        <time>2019-06-16T16:27:41Z</time>
      </trkpt>
      <trkpt lat="43.378461" lon="-4.048479">
        <ele>16.424</ele>
        <time>2019-06-16T16:27:42Z</time>
      </trkpt>
      <trkpt lat="43.378541" lon="-4.048451">
        <ele>16.923</ele>
        <time>2019-06-16T16:27:43Z</time>
      </trkpt>
      <trkpt lat="43.378623" lon="-4.048406">
        <ele>17.323</ele>
        <time>2019-06-16T16:27:44Z</time>
      </trkpt>
      <trkpt lat="43.378731" lon="-4.048321">
        <ele>17.769</ele>
        <time>2019-06-16T16:27:45Z</time>
      </trkpt>
      <trkpt lat="43.378836" lon="-4.048247">
        <ele>17.728</ele>
        <time>2019-06-16T16:27:46Z</time>
      </trkpt>
      <trkpt lat="43.378955" lon="-4.048177">
        <ele>18.534</ele>
        <time>2019-06-16T16:27:47Z</time>
      </trkpt>
      <trkpt lat="43.379087" lon="-4.048112">
        <ele>20.255</ele>
        <time>2019-06-16T16:27:48Z</time>
      </trkpt>
      <trkpt lat="43.379235" lon="-4.048057">
        <ele>21.510</ele>
        <time>2019-06-16T16:27:49Z</time>
      </trkpt>
      <trkpt lat="43.379378" lon="-4.048040">
        <ele>22.108</ele>
        <time>2019-06-16T16:27:50Z</time>
      </trkpt>
      <trkpt lat="43.379527" lon="-4.048056">
        <ele>23.646</ele>
        <time>2019-06-16T16:27:51Z</time>
      </trkpt>
      <trkpt lat="43.379681" lon="-4.048095">
        <ele>25.220</ele>
        <time>2019-06-16T16:27:52Z</time>
      </trkpt>
      <trkpt lat="43.379830" lon="-4.048170">
        <ele>25.680</ele>
        <time>2019-06-16T16:27:53Z</time>
      </trkpt>
      <trkpt lat="43.379978" lon="-4.048255">
        <ele>26.064</ele>
        <time>2019-06-16T16:27:54Z</time>
      </trkpt>
      <trkpt lat="43.380131" lon="-4.048343">
        <ele>26.623</ele>
        <time>2019-06-16T16:27:55Z</time>
      </trkpt>
      <trkpt lat="43.380281" lon="-4.048431">
        <ele>26.723</ele>
        <time>2019-06-16T16:27:56Z</time>
      </trkpt>
      <trkpt lat="43.380432" lon="-4.048525">
        <ele>26.389</ele>
        <time>2019-06-16T16:27:57Z</time>
      </trkpt>
      <trkpt lat="43.380589" lon="-4.048624">
        <ele>25.818</ele>
        <time>2019-06-16T16:27:58Z</time>
      </trkpt>
      <trkpt lat="43.380738" lon="-4.048722">
        <ele>25.223</ele>
        <time>2019-06-16T16:27:59Z</time>
      </trkpt>
      <trkpt lat="43.380889" lon="-4.048818">
        <ele>24.483</ele>
        <time>2019-06-16T16:28:00Z</time>
      </trkpt>
      <trkpt lat="43.381037" lon="-4.048904">
        <ele>23.611</ele>
        <time>2019-06-16T16:28:01Z</time>
      </trkpt>
      <trkpt lat="43.381179" lon="-4.048984">
        <ele>23.308</ele>
        <time>2019-06-16T16:28:02Z</time>
      </trkpt>
      <trkpt lat="43.381315" lon="-4.049055">
        <ele>23.615</ele>
        <time>2019-06-16T16:28:03Z</time>
      </trkpt>
      <trkpt lat="43.381450" lon="-4.049118">
        <ele>23.369</ele>
        <time>2019-06-16T16:28:04Z</time>
      </trkpt>
      <trkpt lat="43.381575" lon="-4.049174">
        <ele>22.789</ele>
        <time>2019-06-16T16:28:05Z</time>
      </trkpt>
      <trkpt lat="43.381713" lon="-4.049199">
        <ele>22.263</ele>
        <time>2019-06-16T16:28:06Z</time>
      </trkpt>
      <trkpt lat="43.381872" lon="-4.049179">
        <ele>22.172</ele>
        <time>2019-06-16T16:28:07Z</time>
      </trkpt>
      <trkpt lat="43.382028" lon="-4.049140">
        <ele>22.412</ele>
        <time>2019-06-16T16:28:08Z</time>
      </trkpt>
      <trkpt lat="43.382189" lon="-4.049071">
        <ele>23.388</ele>
        <time>2019-06-16T16:28:09Z</time>
      </trkpt>
      <trkpt lat="43.382353" lon="-4.048965">
        <ele>24.867</ele>
        <time>2019-06-16T16:28:10Z</time>
      </trkpt>
      <trkpt lat="43.382511" lon="-4.048853">
        <ele>26.112</ele>
        <time>2019-06-16T16:28:11Z</time>
      </trkpt>
      <trkpt lat="43.382668" lon="-4.048745">
        <ele>27.232</ele>
        <time>2019-06-16T16:28:12Z</time>
      </trkpt>
      <trkpt lat="43.382823" lon="-4.048633">
        <ele>27.305</ele>
        <time>2019-06-16T16:28:13Z</time>
      </trkpt>
      <trkpt lat="43.382982" lon="-4.048514">
        <ele>27.008</ele>
        <time>2019-06-16T16:28:14Z</time>
      </trkpt>
      <trkpt lat="43.383136" lon="-4.048397">
        <ele>26.734</ele>
        <time>2019-06-16T16:28:15Z</time>
      </trkpt>
      <trkpt lat="43.383306" lon="-4.048271">
        <ele>26.578</ele>
        <time>2019-06-16T16:28:16Z</time>
      </trkpt>
      <trkpt lat="43.383467" lon="-4.048142">
        <ele>25.888</ele>
        <time>2019-06-16T16:28:17Z</time>
      </trkpt>
      <trkpt lat="43.383636" lon="-4.048010">
        <ele>24.932</ele>
        <time>2019-06-16T16:28:18Z</time>
      </trkpt>
      <trkpt lat="43.383795" lon="-4.047890">
        <ele>25.551</ele>
        <time>2019-06-16T16:28:19Z</time>
      </trkpt>
      <trkpt lat="43.383957" lon="-4.047767">
        <ele>26.271</ele>
        <time>2019-06-16T16:28:20Z</time>
      </trkpt>
      <trkpt lat="43.384105" lon="-4.047657">
        <ele>26.447</ele>
        <time>2019-06-16T16:28:21Z</time>
      </trkpt>
      <trkpt lat="43.384262" lon="-4.047539">
        <ele>26.286</ele>
        <time>2019-06-16T16:28:22Z</time>
      </trkpt>
      <trkpt lat="43.384405" lon="-4.047433">
        <ele>26.019</ele>
        <time>2019-06-16T16:28:23Z</time>
      </trkpt>
      <trkpt lat="43.384562" lon="-4.047326">
        <ele>26.309</ele>
        <time>2019-06-16T16:28:24Z</time>
      </trkpt>
      <trkpt lat="43.384719" lon="-4.047210">
        <ele>26.019</ele>
        <time>2019-06-16T16:28:25Z</time>
      </trkpt>
      <trkpt lat="43.384883" lon="-4.047100">
        <ele>26.008</ele>
        <time>2019-06-16T16:28:26Z</time>
      </trkpt>
      <trkpt lat="43.385058" lon="-4.046988">
        <ele>25.834</ele>
        <time>2019-06-16T16:28:27Z</time>
      </trkpt>
      <trkpt lat="43.385240" lon="-4.046887">
        <ele>25.138</ele>
        <time>2019-06-16T16:28:28Z</time>
      </trkpt>
      <trkpt lat="43.385430" lon="-4.046805">
        <ele>25.078</ele>
        <time>2019-06-16T16:28:29Z</time>
      </trkpt>
      <trkpt lat="43.385619" lon="-4.046738">
        <ele>25.072</ele>
        <time>2019-06-16T16:28:30Z</time>
      </trkpt>
      <trkpt lat="43.385814" lon="-4.046686">
        <ele>25.041</ele>
        <time>2019-06-16T16:28:31Z</time>
      </trkpt>
      <trkpt lat="43.386006" lon="-4.046629">
        <ele>24.851</ele>
        <time>2019-06-16T16:28:32Z</time>
      </trkpt>
      <trkpt lat="43.386195" lon="-4.046576">
        <ele>24.857</ele>
        <time>2019-06-16T16:28:33Z</time>
      </trkpt>
      <trkpt lat="43.386378" lon="-4.046521">
        <ele>25.016</ele>
        <time>2019-06-16T16:28:34Z</time>
      </trkpt>
      <trkpt lat="43.386541" lon="-4.046473">
        <ele>25.061</ele>
        <time>2019-06-16T16:28:35Z</time>
      </trkpt>
      <trkpt lat="43.386726" lon="-4.046402">
        <ele>25.021</ele>
        <time>2019-06-16T16:28:36Z</time>
      </trkpt>
      <trkpt lat="43.386901" lon="-4.046355">
        <ele>24.913</ele>
        <time>2019-06-16T16:28:37Z</time>
      </trkpt>
      <trkpt lat="43.387067" lon="-4.046311">
        <ele>24.708</ele>
        <time>2019-06-16T16:28:38Z</time>
      </trkpt>
      <trkpt lat="43.387239" lon="-4.046269">
        <ele>24.689</ele>
        <time>2019-06-16T16:28:39Z</time>
      </trkpt>
      <trkpt lat="43.387409" lon="-4.046225">
        <ele>24.473</ele>
        <time>2019-06-16T16:28:40Z</time>
      </trkpt>
      <trkpt lat="43.387572" lon="-4.046181">
        <ele>24.323</ele>
        <time>2019-06-16T16:28:41Z</time>
      </trkpt>
      <trkpt lat="43.387723" lon="-4.046149">
        <ele>24.137</ele>
        <time>2019-06-16T16:28:42Z</time>
      </trkpt>
      <trkpt lat="43.387898" lon="-4.046112">
        <ele>24.016</ele>
        <time>2019-06-16T16:28:43Z</time>
      </trkpt>
      <trkpt lat="43.388067" lon="-4.046059">
        <ele>24.096</ele>
        <time>2019-06-16T16:28:44Z</time>
      </trkpt>
      <trkpt lat="43.388231" lon="-4.046000">
        <ele>24.062</ele>
        <time>2019-06-16T16:28:45Z</time>
      </trkpt>
      <trkpt lat="43.388388" lon="-4.045962">
        <ele>24.061</ele>
        <time>2019-06-16T16:28:46Z</time>
      </trkpt>
      <trkpt lat="43.388545" lon="-4.045940">
        <ele>24.021</ele>
        <time>2019-06-16T16:28:47Z</time>
      </trkpt>
      <trkpt lat="43.388706" lon="-4.045933">
        <ele>23.841</ele>
        <time>2019-06-16T16:28:48Z</time>
      </trkpt>
      <trkpt lat="43.388855" lon="-4.045955">
        <ele>23.505</ele>
        <time>2019-06-16T16:28:49Z</time>
      </trkpt>
      <trkpt lat="43.388998" lon="-4.046007">
        <ele>22.708</ele>
        <time>2019-06-16T16:28:50Z</time>
      </trkpt>
      <trkpt lat="43.389147" lon="-4.046081">
        <ele>21.315</ele>
        <time>2019-06-16T16:28:51Z</time>
      </trkpt>
      <trkpt lat="43.389297" lon="-4.046176">
        <ele>20.129</ele>
        <time>2019-06-16T16:28:52Z</time>
      </trkpt>
      <trkpt lat="43.389449" lon="-4.046304">
        <ele>18.619</ele>
        <time>2019-06-16T16:28:53Z</time>
      </trkpt>
      <trkpt lat="43.389601" lon="-4.046450">
        <ele>17.273</ele>
        <time>2019-06-16T16:28:54Z</time>
      </trkpt>
      <trkpt lat="43.389743" lon="-4.046591">
        <ele>16.212</ele>
        <time>2019-06-16T16:28:55Z</time>
      </trkpt>
      <trkpt lat="43.389868" lon="-4.046738">
        <ele>15.572</ele>
        <time>2019-06-16T16:28:56Z</time>
      </trkpt>
      <trkpt lat="43.390021" lon="-4.046878">
        <ele>14.478</ele>
        <time>2019-06-16T16:28:57Z</time>
      </trkpt>
      <trkpt lat="43.390141" lon="-4.047016">
        <ele>14.477</ele>
        <time>2019-06-16T16:28:58Z</time>
      </trkpt>
      <trkpt lat="43.390267" lon="-4.047143">
        <ele>13.255</ele>
        <time>2019-06-16T16:28:59Z</time>
      </trkpt>
      <trkpt lat="43.390391" lon="-4.047280">
        <ele>12.307</ele>
        <time>2019-06-16T16:29:00Z</time>
      </trkpt>
      <trkpt lat="43.390509" lon="-4.047419">
        <ele>11.517</ele>
        <time>2019-06-16T16:29:01Z</time>
      </trkpt>
      <trkpt lat="43.390632" lon="-4.047560">
        <ele>9.808</ele>
        <time>2019-06-16T16:29:02Z</time>
      </trkpt>
      <trkpt lat="43.390762" lon="-4.047710">
        <ele>8.428</ele>
        <time>2019-06-16T16:29:03Z</time>
      </trkpt>
      <trkpt lat="43.390864" lon="-4.047874">
        <ele>7.562</ele>
        <time>2019-06-16T16:29:04Z</time>
      </trkpt>
      <trkpt lat="43.390943" lon="-4.048043">
        <ele>7.472</ele>
        <time>2019-06-16T16:29:05Z</time>
      </trkpt>
      <trkpt lat="43.391033" lon="-4.048218">
        <ele>8.026</ele>
        <time>2019-06-16T16:29:06Z</time>
      </trkpt>
      <trkpt lat="43.391122" lon="-4.048405">
        <ele>8.535</ele>
        <time>2019-06-16T16:29:07Z</time>
      </trkpt>
      <trkpt lat="43.391211" lon="-4.048597">
        <ele>7.865</ele>
        <time>2019-06-16T16:29:08Z</time>
      </trkpt>
      <trkpt lat="43.391283" lon="-4.048792">
        <ele>8.651</ele>
        <time>2019-06-16T16:29:09Z</time>
      </trkpt>
      <trkpt lat="43.391358" lon="-4.048981">
        <ele>10.140</ele>
        <time>2019-06-16T16:29:10Z</time>
      </trkpt>
      <trkpt lat="43.391443" lon="-4.049163">
        <ele>12.024</ele>
        <time>2019-06-16T16:29:11Z</time>
      </trkpt>
      <trkpt lat="43.391558" lon="-4.049334">
        <ele>13.204</ele>
        <time>2019-06-16T16:29:12Z</time>
      </trkpt>
      <trkpt lat="43.391687" lon="-4.049483">
        <ele>13.314</ele>
        <time>2019-06-16T16:29:13Z</time>
      </trkpt>
      <trkpt lat="43.391860" lon="-4.049609">
        <ele>14.808</ele>
        <time>2019-06-16T16:29:14Z</time>
      </trkpt>
      <trkpt lat="43.391999" lon="-4.049699">
        <ele>14.745</ele>
        <time>2019-06-16T16:29:15Z</time>
      </trkpt>
      <trkpt lat="43.392148" lon="-4.049748">
        <ele>15.259</ele>
        <time>2019-06-16T16:29:16Z</time>
      </trkpt>
      <trkpt lat="43.392294" lon="-4.049768">
        <ele>15.539</ele>
        <time>2019-06-16T16:29:17Z</time>
      </trkpt>
      <trkpt lat="43.392443" lon="-4.049760">
        <ele>15.713</ele>
        <time>2019-06-16T16:29:18Z</time>
      </trkpt>
      <trkpt lat="43.392586" lon="-4.049732">
        <ele>15.912</ele>
        <time>2019-06-16T16:29:19Z</time>
      </trkpt>
      <trkpt lat="43.392724" lon="-4.049696">
        <ele>16.392</ele>
        <time>2019-06-16T16:29:20Z</time>
      </trkpt>
      <trkpt lat="43.392853" lon="-4.049657">
        <ele>16.318</ele>
        <time>2019-06-16T16:29:21Z</time>
      </trkpt>
      <trkpt lat="43.392990" lon="-4.049614">
        <ele>15.847</ele>
        <time>2019-06-16T16:29:22Z</time>
      </trkpt>
      <trkpt lat="43.393123" lon="-4.049560">
        <ele>15.653</ele>
        <time>2019-06-16T16:29:23Z</time>
      </trkpt>
      <trkpt lat="43.393264" lon="-4.049515">
        <ele>15.704</ele>
        <time>2019-06-16T16:29:24Z</time>
      </trkpt>
      <trkpt lat="43.393403" lon="-4.049443">
        <ele>16.314</ele>
        <time>2019-06-16T16:29:25Z</time>
      </trkpt>
      <trkpt lat="43.393548" lon="-4.049384">
        <ele>16.808</ele>
        <time>2019-06-16T16:29:26Z</time>
      </trkpt>
      <trkpt lat="43.393697" lon="-4.049331">
        <ele>17.368</ele>
        <time>2019-06-16T16:29:27Z</time>
      </trkpt>
      <trkpt lat="43.393854" lon="-4.049256">
        <ele>17.972</ele>
        <time>2019-06-16T16:29:28Z</time>
      </trkpt>
      <trkpt lat="43.394010" lon="-4.049196">
        <ele>18.992</ele>
        <time>2019-06-16T16:29:29Z</time>
      </trkpt>
      <trkpt lat="43.394165" lon="-4.049137">
        <ele>19.996</ele>
        <time>2019-06-16T16:29:30Z</time>
      </trkpt>
      <trkpt lat="43.394315" lon="-4.049080">
        <ele>20.455</ele>
        <time>2019-06-16T16:29:31Z</time>
      </trkpt>
      <trkpt lat="43.394464" lon="-4.049018">
        <ele>21.145</ele>
        <time>2019-06-16T16:29:32Z</time>
      </trkpt>
      <trkpt lat="43.394618" lon="-4.048956">
        <ele>21.821</ele>
        <time>2019-06-16T16:29:33Z</time>
      </trkpt>
      <trkpt lat="43.394765" lon="-4.048902">
        <ele>22.210</ele>
        <time>2019-06-16T16:29:34Z</time>
      </trkpt>
      <trkpt lat="43.394916" lon="-4.048867">
        <ele>22.516</ele>
        <time>2019-06-16T16:29:35Z</time>
      </trkpt>
      <trkpt lat="43.395085" lon="-4.048848">
        <ele>23.176</ele>
        <time>2019-06-16T16:29:36Z</time>
      </trkpt>
      <trkpt lat="43.395242" lon="-4.048867">
        <ele>23.813</ele>
        <time>2019-06-16T16:29:37Z</time>
      </trkpt>
      <trkpt lat="43.395397" lon="-4.048907">
        <ele>24.908</ele>
        <time>2019-06-16T16:29:38Z</time>
      </trkpt>
      <trkpt lat="43.395554" lon="-4.048962">
        <ele>26.314</ele>
        <time>2019-06-16T16:29:39Z</time>
      </trkpt>
      <trkpt lat="43.395703" lon="-4.049036">
        <ele>27.378</ele>
        <time>2019-06-16T16:29:40Z</time>
      </trkpt>
      <trkpt lat="43.395831" lon="-4.049123">
        <ele>28.758</ele>
        <time>2019-06-16T16:29:41Z</time>
      </trkpt>
      <trkpt lat="43.395967" lon="-4.049206">
        <ele>30.142</ele>
        <time>2019-06-16T16:29:42Z</time>
      </trkpt>
      <trkpt lat="43.396076" lon="-4.049260">
        <ele>31.191</ele>
        <time>2019-06-16T16:29:43Z</time>
      </trkpt>
      <trkpt lat="43.396193" lon="-4.049315">
        <ele>32.051</ele>
        <time>2019-06-16T16:29:44Z</time>
      </trkpt>
      <trkpt lat="43.396311" lon="-4.049383">
        <ele>32.757</ele>
        <time>2019-06-16T16:29:45Z</time>
      </trkpt>
      <trkpt lat="43.396422" lon="-4.049435">
        <ele>33.126</ele>
        <time>2019-06-16T16:29:46Z</time>
      </trkpt>
      <trkpt lat="43.396536" lon="-4.049475">
        <ele>33.517</ele>
        <time>2019-06-16T16:29:47Z</time>
      </trkpt>
      <trkpt lat="43.396646" lon="-4.049525">
        <ele>33.987</ele>
        <time>2019-06-16T16:29:48Z</time>
      </trkpt>
      <trkpt lat="43.396766" lon="-4.049554">
        <ele>34.015</ele>
        <time>2019-06-16T16:29:49Z</time>
      </trkpt>
      <trkpt lat="43.396882" lon="-4.049569">
        <ele>34.008</ele>
        <time>2019-06-16T16:29:50Z</time>
      </trkpt>
      <trkpt lat="43.396991" lon="-4.049575">
        <ele>34.074</ele>
        <time>2019-06-16T16:29:51Z</time>
      </trkpt>
      <trkpt lat="43.397151" lon="-4.049537">
        <ele>34.068</ele>
        <time>2019-06-16T16:29:52Z</time>
      </trkpt>
      <trkpt lat="43.397266" lon="-4.049506">
        <ele>34.028</ele>
        <time>2019-06-16T16:29:53Z</time>
      </trkpt>
      <trkpt lat="43.397392" lon="-4.049452">
        <ele>34.062</ele>
        <time>2019-06-16T16:29:54Z</time>
      </trkpt>
      <trkpt lat="43.397508" lon="-4.049387">
        <ele>34.291</ele>
        <time>2019-06-16T16:29:55Z</time>
      </trkpt>
      <trkpt lat="43.397652" lon="-4.049319">
        <ele>34.821</ele>
        <time>2019-06-16T16:29:56Z</time>
      </trkpt>
      <trkpt lat="43.397803" lon="-4.049250">
        <ele>35.137</ele>
        <time>2019-06-16T16:29:57Z</time>
      </trkpt>
      <trkpt lat="43.397958" lon="-4.049177">
        <ele>35.696</ele>
        <time>2019-06-16T16:29:58Z</time>
      </trkpt>
      <trkpt lat="43.398112" lon="-4.049094">
        <ele>36.382</ele>
        <time>2019-06-16T16:29:59Z</time>
      </trkpt>
      <trkpt lat="43.398266" lon="-4.049003">
        <ele>36.643</ele>
        <time>2019-06-16T16:30:00Z</time>
      </trkpt>
      <trkpt lat="43.398430" lon="-4.048913">
        <ele>37.317</ele>
        <time>2019-06-16T16:30:01Z</time>
      </trkpt>
      <trkpt lat="43.398588" lon="-4.048819">
        <ele>38.208</ele>
        <time>2019-06-16T16:30:02Z</time>
      </trkpt>
      <trkpt lat="43.398748" lon="-4.048726">
        <ele>39.161</ele>
        <time>2019-06-16T16:30:03Z</time>
      </trkpt>
      <trkpt lat="43.398909" lon="-4.048646">
        <ele>40.045</ele>
        <time>2019-06-16T16:30:04Z</time>
      </trkpt>
      <trkpt lat="43.399068" lon="-4.048564">
        <ele>41.465</ele>
        <time>2019-06-16T16:30:05Z</time>
      </trkpt>
      <trkpt lat="43.399227" lon="-4.048481">
        <ele>42.289</ele>
        <time>2019-06-16T16:30:06Z</time>
      </trkpt>
      <trkpt lat="43.399386" lon="-4.048407">
        <ele>42.848</ele>
        <time>2019-06-16T16:30:07Z</time>
      </trkpt>
      <trkpt lat="43.399552" lon="-4.048338">
        <ele>43.868</ele>
        <time>2019-06-16T16:30:08Z</time>
      </trkpt>
      <trkpt lat="43.399718" lon="-4.048274">
        <ele>45.024</ele>
        <time>2019-06-16T16:30:09Z</time>
      </trkpt>
      <trkpt lat="43.399898" lon="-4.048249">
        <ele>45.663</ele>
        <time>2019-06-16T16:30:10Z</time>
      </trkpt>
      <trkpt lat="43.400076" lon="-4.048223">
        <ele>46.394</ele>
        <time>2019-06-16T16:30:11Z</time>
      </trkpt>
      <trkpt lat="43.400254" lon="-4.048197">
        <ele>46.957</ele>
        <time>2019-06-16T16:30:12Z</time>
      </trkpt>
      <trkpt lat="43.400432" lon="-4.048173">
        <ele>48.122</ele>
        <time>2019-06-16T16:30:13Z</time>
      </trkpt>
      <trkpt lat="43.400593" lon="-4.048159">
        <ele>49.108</ele>
        <time>2019-06-16T16:30:14Z</time>
      </trkpt>
      <trkpt lat="43.400763" lon="-4.048145">
        <ele>49.752</ele>
        <time>2019-06-16T16:30:15Z</time>
      </trkpt>
      <trkpt lat="43.400926" lon="-4.048131">
        <ele>50.656</ele>
        <time>2019-06-16T16:30:16Z</time>
      </trkpt>
      <trkpt lat="43.401085" lon="-4.048112">
        <ele>51.686</ele>
        <time>2019-06-16T16:30:17Z</time>
      </trkpt>
      <trkpt lat="43.401240" lon="-4.048096">
        <ele>52.710</ele>
        <time>2019-06-16T16:30:18Z</time>
      </trkpt>
      <trkpt lat="43.401400" lon="-4.048083">
        <ele>53.859</ele>
        <time>2019-06-16T16:30:19Z</time>
      </trkpt>
      <trkpt lat="43.401550" lon="-4.048075">
        <ele>54.529</ele>
        <time>2019-06-16T16:30:20Z</time>
      </trkpt>
      <trkpt lat="43.401696" lon="-4.048066">
        <ele>55.245</ele>
        <time>2019-06-16T16:30:21Z</time>
      </trkpt>
      <trkpt lat="43.401842" lon="-4.048047">
        <ele>56.354</ele>
        <time>2019-06-16T16:30:22Z</time>
      </trkpt>
      <trkpt lat="43.401981" lon="-4.048032">
        <ele>57.229</ele>
        <time>2019-06-16T16:30:23Z</time>
      </trkpt>
      <trkpt lat="43.402117" lon="-4.048018">
        <ele>57.800</ele>
        <time>2019-06-16T16:30:24Z</time>
      </trkpt>
      <trkpt lat="43.402255" lon="-4.048011">
        <ele>58.420</ele>
        <time>2019-06-16T16:30:25Z</time>
      </trkpt>
      <trkpt lat="43.402382" lon="-4.048000">
        <ele>58.908</ele>
        <time>2019-06-16T16:30:26Z</time>
      </trkpt>
      <trkpt lat="43.402506" lon="-4.047985">
        <ele>59.355</ele>
        <time>2019-06-16T16:30:27Z</time>
      </trkpt>
      <trkpt lat="43.402628" lon="-4.047976">
        <ele>60.299</ele>
        <time>2019-06-16T16:30:28Z</time>
      </trkpt>
      <trkpt lat="43.402736" lon="-4.047963">
        <ele>61.039</ele>
        <time>2019-06-16T16:30:29Z</time>
      </trkpt>
      <trkpt lat="43.402859" lon="-4.047941">
        <ele>61.713</ele>
        <time>2019-06-16T16:30:30Z</time>
      </trkpt>
      <trkpt lat="43.402997" lon="-4.047928">
        <ele>62.252</ele>
        <time>2019-06-16T16:30:31Z</time>
      </trkpt>
      <trkpt lat="43.403131" lon="-4.047916">
        <ele>63.062</ele>
        <time>2019-06-16T16:30:32Z</time>
      </trkpt>
      <trkpt lat="43.403270" lon="-4.047902">
        <ele>64.138</ele>
        <time>2019-06-16T16:30:33Z</time>
      </trkpt>
      <trkpt lat="43.403410" lon="-4.047880">
        <ele>65.267</ele>
        <time>2019-06-16T16:30:34Z</time>
      </trkpt>
      <trkpt lat="43.403549" lon="-4.047858">
        <ele>66.391</ele>
        <time>2019-06-16T16:30:35Z</time>
      </trkpt>
      <trkpt lat="43.403694" lon="-4.047829">
        <ele>67.181</ele>
        <time>2019-06-16T16:30:36Z</time>
      </trkpt>
      <trkpt lat="43.403835" lon="-4.047789">
        <ele>67.819</ele>
        <time>2019-06-16T16:30:37Z</time>
      </trkpt>
      <trkpt lat="43.403967" lon="-4.047727">
        <ele>68.508</ele>
        <time>2019-06-16T16:30:38Z</time>
      </trkpt>
      <trkpt lat="43.404091" lon="-4.047649">
        <ele>69.262</ele>
        <time>2019-06-16T16:30:39Z</time>
      </trkpt>
      <trkpt lat="43.404213" lon="-4.047564">
        <ele>69.716</ele>
        <time>2019-06-16T16:30:40Z</time>
      </trkpt>
      <trkpt lat="43.404336" lon="-4.047459">
        <ele>70.396</ele>
        <time>2019-06-16T16:30:41Z</time>
      </trkpt>
      <trkpt lat="43.404424" lon="-4.047285">
        <ele>71.580</ele>
        <time>2019-06-16T16:30:42Z</time>
      </trkpt>
      <trkpt lat="43.404529" lon="-4.047130">
        <ele>71.619</ele>
        <time>2019-06-16T16:30:43Z</time>
      </trkpt>
      <trkpt lat="43.404622" lon="-4.046989">
        <ele>72.079</ele>
        <time>2019-06-16T16:30:44Z</time>
      </trkpt>
      <trkpt lat="43.404724" lon="-4.046839">
        <ele>72.475</ele>
        <time>2019-06-16T16:30:45Z</time>
      </trkpt>
      <trkpt lat="43.404817" lon="-4.046693">
        <ele>72.454</ele>
        <time>2019-06-16T16:30:46Z</time>
      </trkpt>
      <trkpt lat="43.404911" lon="-4.046548">
        <ele>72.766</ele>
        <time>2019-06-16T16:30:47Z</time>
      </trkpt>
      <trkpt lat="43.405004" lon="-4.046400">
        <ele>71.929</ele>
        <time>2019-06-16T16:30:48Z</time>
      </trkpt>
      <trkpt lat="43.405100" lon="-4.046249">
        <ele>71.421</ele>
        <time>2019-06-16T16:30:49Z</time>
      </trkpt>
      <trkpt lat="43.405186" lon="-4.046087">
        <ele>70.908</ele>
        <time>2019-06-16T16:30:50Z</time>
      </trkpt>
      <trkpt lat="43.405277" lon="-4.045911">
        <ele>70.599</ele>
        <time>2019-06-16T16:30:51Z</time>
      </trkpt>
      <trkpt lat="43.405359" lon="-4.045729">
        <ele>69.723</ele>
        <time>2019-06-16T16:30:52Z</time>
      </trkpt>
      <trkpt lat="43.405442" lon="-4.045554">
        <ele>68.923</ele>
        <time>2019-06-16T16:30:53Z</time>
      </trkpt>
      <trkpt lat="43.405525" lon="-4.045358">
        <ele>68.377</ele>
        <time>2019-06-16T16:30:54Z</time>
      </trkpt>
      <trkpt lat="43.405605" lon="-4.045160">
        <ele>68.036</ele>
        <time>2019-06-16T16:30:55Z</time>
      </trkpt>
      <trkpt lat="43.405681" lon="-4.044963">
        <ele>68.136</ele>
        <time>2019-06-16T16:30:56Z</time>
      </trkpt>
      <trkpt lat="43.405746" lon="-4.044778">
        <ele>68.482</ele>
        <time>2019-06-16T16:30:57Z</time>
      </trkpt>
      <trkpt lat="43.405815" lon="-4.044589">
        <ele>68.361</ele>
        <time>2019-06-16T16:30:58Z</time>
      </trkpt>
      <trkpt lat="43.405878" lon="-4.044412">
        <ele>68.279</ele>
        <time>2019-06-16T16:30:59Z</time>
      </trkpt>
      <trkpt lat="43.405944" lon="-4.044219">
        <ele>67.305</ele>
        <time>2019-06-16T16:31:00Z</time>
      </trkpt>
      <trkpt lat="43.406013" lon="-4.044036">
        <ele>66.725</ele>
        <time>2019-06-16T16:31:01Z</time>
      </trkpt>
      <trkpt lat="43.406084" lon="-4.043848">
        <ele>65.908</ele>
        <time>2019-06-16T16:31:02Z</time>
      </trkpt>
      <trkpt lat="43.406162" lon="-4.043676">
        <ele>65.960</ele>
        <time>2019-06-16T16:31:03Z</time>
      </trkpt>
      <trkpt lat="43.406256" lon="-4.043498">
        <ele>64.994</ele>
        <time>2019-06-16T16:31:04Z</time>
      </trkpt>
      <trkpt lat="43.406361" lon="-4.043318">
        <ele>62.794</ele>
        <time>2019-06-16T16:31:05Z</time>
      </trkpt>
      <trkpt lat="43.406472" lon="-4.043179">
        <ele>61.728</ele>
        <time>2019-06-16T16:31:06Z</time>
      </trkpt>
      <trkpt lat="43.406608" lon="-4.043049">
        <ele>60.637</ele>
        <time>2019-06-16T16:31:07Z</time>
      </trkpt>
      <trkpt lat="43.406741" lon="-4.042942">
        <ele>59.457</ele>
        <time>2019-06-16T16:31:08Z</time>
      </trkpt>
      <trkpt lat="43.406884" lon="-4.042850">
        <ele>58.873</ele>
        <time>2019-06-16T16:31:09Z</time>
      </trkpt>
      <trkpt lat="43.407033" lon="-4.042771">
        <ele>58.792</ele>
        <time>2019-06-16T16:31:10Z</time>
      </trkpt>
      <trkpt lat="43.407188" lon="-4.042715">
        <ele>58.125</ele>
        <time>2019-06-16T16:31:11Z</time>
      </trkpt>
      <trkpt lat="43.407348" lon="-4.042666">
        <ele>58.226</ele>
        <time>2019-06-16T16:31:12Z</time>
      </trkpt>
      <trkpt lat="43.407502" lon="-4.042630">
        <ele>58.508</ele>
        <time>2019-06-16T16:31:13Z</time>
      </trkpt>
      <trkpt lat="43.407647" lon="-4.042598">
        <ele>59.208</ele>
        <time>2019-06-16T16:31:14Z</time>
      </trkpt>
      <trkpt lat="43.407794" lon="-4.042571">
        <ele>59.825</ele>
        <time>2019-06-16T16:31:15Z</time>
      </trkpt>
      <trkpt lat="43.407936" lon="-4.042545">
        <ele>60.399</ele>
        <time>2019-06-16T16:31:16Z</time>
      </trkpt>
      <trkpt lat="43.408080" lon="-4.042517">
        <ele>60.979</ele>
        <time>2019-06-16T16:31:17Z</time>
      </trkpt>
      <trkpt lat="43.408225" lon="-4.042484">
        <ele>61.123</ele>
        <time>2019-06-16T16:31:18Z</time>
      </trkpt>
      <trkpt lat="43.408379" lon="-4.042460">
        <ele>61.352</ele>
        <time>2019-06-16T16:31:19Z</time>
      </trkpt>
      <trkpt lat="43.408524" lon="-4.042416">
        <ele>62.222</ele>
        <time>2019-06-16T16:31:20Z</time>
      </trkpt>
      <trkpt lat="43.408656" lon="-4.042366">
        <ele>63.358</ele>
        <time>2019-06-16T16:31:21Z</time>
      </trkpt>
      <trkpt lat="43.408806" lon="-4.042298">
        <ele>64.587</ele>
        <time>2019-06-16T16:31:22Z</time>
      </trkpt>
      <trkpt lat="43.408957" lon="-4.042219">
        <ele>65.085</ele>
        <time>2019-06-16T16:31:23Z</time>
      </trkpt>
      <trkpt lat="43.409098" lon="-4.042143">
        <ele>65.589</ele>
        <time>2019-06-16T16:31:24Z</time>
      </trkpt>
      <trkpt lat="43.409237" lon="-4.042070">
        <ele>66.217</ele>
        <time>2019-06-16T16:31:25Z</time>
      </trkpt>
      <trkpt lat="43.409377" lon="-4.041999">
        <ele>66.808</ele>
        <time>2019-06-16T16:31:26Z</time>
      </trkpt>
      <trkpt lat="43.409510" lon="-4.041926">
        <ele>67.191</ele>
        <time>2019-06-16T16:31:27Z</time>
      </trkpt>
      <trkpt lat="43.409649" lon="-4.041867">
        <ele>67.685</ele>
        <time>2019-06-16T16:31:28Z</time>
      </trkpt>
      <trkpt lat="43.409789" lon="-4.041820">
        <ele>68.135</ele>
        <time>2019-06-16T16:31:29Z</time>
      </trkpt>
      <trkpt lat="43.409931" lon="-4.041782">
        <ele>68.969</ele>
        <time>2019-06-16T16:31:30Z</time>
      </trkpt>
      <trkpt lat="43.410070" lon="-4.041752">
        <ele>69.668</ele>
        <time>2019-06-16T16:31:31Z</time>
      </trkpt>
      <trkpt lat="43.410211" lon="-4.041717">
        <ele>70.438</ele>
        <time>2019-06-16T16:31:32Z</time>
      </trkpt>
      <trkpt lat="43.410354" lon="-4.041678">
        <ele>70.934</ele>
        <time>2019-06-16T16:31:33Z</time>
      </trkpt>
      <trkpt lat="43.410496" lon="-4.041629">
        <ele>71.393</ele>
        <time>2019-06-16T16:31:34Z</time>
      </trkpt>
      <trkpt lat="43.410625" lon="-4.041574">
        <ele>72.042</ele>
        <time>2019-06-16T16:31:35Z</time>
      </trkpt>
      <trkpt lat="43.410761" lon="-4.041510">
        <ele>72.722</ele>
        <time>2019-06-16T16:31:36Z</time>
      </trkpt>
      <trkpt lat="43.410888" lon="-4.041423">
        <ele>73.414</ele>
        <time>2019-06-16T16:31:37Z</time>
      </trkpt>
      <trkpt lat="43.411000" lon="-4.041316">
        <ele>74.208</ele>
        <time>2019-06-16T16:31:38Z</time>
      </trkpt>
      <trkpt lat="43.411108" lon="-4.041194">
        <ele>75.157</ele>
        <time>2019-06-16T16:31:39Z</time>
      </trkpt>
      <trkpt lat="43.411215" lon="-4.041062">
        <ele>75.421</ele>
        <time>2019-06-16T16:31:40Z</time>
      </trkpt>
      <trkpt lat="43.411311" lon="-4.040939">
        <ele>76.411</ele>
        <time>2019-06-16T16:31:41Z</time>
      </trkpt>
      <trkpt lat="43.411406" lon="-4.040811">
        <ele>78.095</ele>
        <time>2019-06-16T16:31:42Z</time>
      </trkpt>
      <trkpt lat="43.411486" lon="-4.040700">
        <ele>78.474</ele>
        <time>2019-06-16T16:31:43Z</time>
      </trkpt>
      <trkpt lat="43.411567" lon="-4.040599">
        <ele>79.414</ele>
        <time>2019-06-16T16:31:44Z</time>
      </trkpt>
      <trkpt lat="43.411657" lon="-4.040494">
        <ele>80.410</ele>
        <time>2019-06-16T16:31:45Z</time>
      </trkpt>
      <trkpt lat="43.411756" lon="-4.040395">
        <ele>81.399</ele>
        <time>2019-06-16T16:31:46Z</time>
      </trkpt>
      <trkpt lat="43.411853" lon="-4.040303">
        <ele>82.499</ele>
        <time>2019-06-16T16:31:47Z</time>
      </trkpt>
      <trkpt lat="43.411952" lon="-4.040227">
        <ele>83.207</ele>
        <time>2019-06-16T16:31:48Z</time>
      </trkpt>
      <trkpt lat="43.412058" lon="-4.040154">
        <ele>84.127</ele>
        <time>2019-06-16T16:31:49Z</time>
      </trkpt>
      <trkpt lat="43.412170" lon="-4.040100">
        <ele>84.708</ele>
        <time>2019-06-16T16:31:50Z</time>
      </trkpt>
      <trkpt lat="43.412287" lon="-4.040049">
        <ele>85.042</ele>
        <time>2019-06-16T16:31:51Z</time>
      </trkpt>
      <trkpt lat="43.412413" lon="-4.039992">
        <ele>85.076</ele>
        <time>2019-06-16T16:31:52Z</time>
      </trkpt>
      <trkpt lat="43.412523" lon="-4.039950">
        <ele>84.726</ele>
        <time>2019-06-16T16:31:53Z</time>
      </trkpt>
      <trkpt lat="43.412640" lon="-4.039918">
        <ele>84.940</ele>
        <time>2019-06-16T16:31:54Z</time>
      </trkpt>
      <trkpt lat="43.412749" lon="-4.039876">
        <ele>85.059</ele>
        <time>2019-06-16T16:31:55Z</time>
      </trkpt>
      <trkpt lat="43.412867" lon="-4.039868">
        <ele>85.499</ele>
        <time>2019-06-16T16:31:56Z</time>
      </trkpt>
      <trkpt lat="43.413004" lon="-4.039837">
        <ele>85.655</ele>
        <time>2019-06-16T16:31:57Z</time>
      </trkpt>
      <trkpt lat="43.413151" lon="-4.039814">
        <ele>86.134</ele>
        <time>2019-06-16T16:31:58Z</time>
      </trkpt>
      <trkpt lat="43.413291" lon="-4.039798">
        <ele>86.621</ele>
        <time>2019-06-16T16:31:59Z</time>
      </trkpt>
      <trkpt lat="43.413433" lon="-4.039795">
        <ele>86.541</ele>
        <time>2019-06-16T16:32:00Z</time>
      </trkpt>
      <trkpt lat="43.413584" lon="-4.039794">
        <ele>86.105</ele>
        <time>2019-06-16T16:32:01Z</time>
      </trkpt>
      <trkpt lat="43.413726" lon="-4.039816">
        <ele>85.808</ele>
        <time>2019-06-16T16:32:02Z</time>
      </trkpt>
      <trkpt lat="43.413877" lon="-4.039836">
        <ele>85.395</ele>
        <time>2019-06-16T16:32:03Z</time>
      </trkpt>
      <trkpt lat="43.414028" lon="-4.039837">
        <ele>84.949</ele>
        <time>2019-06-16T16:32:04Z</time>
      </trkpt>
      <trkpt lat="43.414205" lon="-4.039834">
        <ele>85.199</ele>
        <time>2019-06-16T16:32:05Z</time>
      </trkpt>
      <trkpt lat="43.414343" lon="-4.039818">
        <ele>86.513</ele>
        <time>2019-06-16T16:32:06Z</time>
      </trkpt>
      <trkpt lat="43.414518" lon="-4.039770">
        <ele>88.072</ele>
        <time>2019-06-16T16:32:07Z</time>
      </trkpt>
      <trkpt lat="43.414684" lon="-4.039706">
        <ele>88.612</ele>
        <time>2019-06-16T16:32:08Z</time>
      </trkpt>
      <trkpt lat="43.414806" lon="-4.039622">
        <ele>90.188</ele>
        <time>2019-06-16T16:32:09Z</time>
      </trkpt>
      <trkpt lat="43.414933" lon="-4.039520">
        <ele>91.217</ele>
        <time>2019-06-16T16:32:10Z</time>
      </trkpt>
      <trkpt lat="43.415049" lon="-4.039402">
        <ele>91.639</ele>
        <time>2019-06-16T16:32:11Z</time>
      </trkpt>
      <trkpt lat="43.415155" lon="-4.039281">
        <ele>92.201</ele>
        <time>2019-06-16T16:32:12Z</time>
      </trkpt>
      <trkpt lat="43.415258" lon="-4.039171">
        <ele>91.921</ele>
        <time>2019-06-16T16:32:13Z</time>
      </trkpt>
      <trkpt lat="43.415356" lon="-4.039076">
        <ele>92.908</ele>
        <time>2019-06-16T16:32:14Z</time>
      </trkpt>
      <trkpt lat="43.415455" lon="-4.038992">
        <ele>93.836</ele>
        <time>2019-06-16T16:32:15Z</time>
      </trkpt>
      <trkpt lat="43.415561" lon="-4.038911">
        <ele>94.390</ele>
        <time>2019-06-16T16:32:16Z</time>
      </trkpt>
      <trkpt lat="43.415673" lon="-4.038859">
        <ele>94.520</ele>
        <time>2019-06-16T16:32:17Z</time>
      </trkpt>
      <trkpt lat="43.415795" lon="-4.038800">
        <ele>94.854</ele>
        <time>2019-06-16T16:32:18Z</time>
      </trkpt>
      <trkpt lat="43.415917" lon="-4.038733">
        <ele>95.253</ele>
        <time>2019-06-16T16:32:19Z</time>
      </trkpt>
      <trkpt lat="43.416026" lon="-4.038678">
        <ele>95.883</ele>
        <time>2019-06-16T16:32:20Z</time>
      </trkpt>
      <trkpt lat="43.416120" lon="-4.038647">
        <ele>96.519</ele>
        <time>2019-06-16T16:32:21Z</time>
      </trkpt>
      <trkpt lat="43.416235" lon="-4.038603">
        <ele>96.818</ele>
        <time>2019-06-16T16:32:22Z</time>
      </trkpt>
      <trkpt lat="43.416357" lon="-4.038560">
        <ele>97.295</ele>
        <time>2019-06-16T16:32:23Z</time>
      </trkpt>
      <trkpt lat="43.416485" lon="-4.038513">
        <ele>98.049</ele>
        <time>2019-06-16T16:32:24Z</time>
      </trkpt>
      <trkpt lat="43.416599" lon="-4.038473">
        <ele>98.823</ele>
        <time>2019-06-16T16:32:25Z</time>
      </trkpt>
      <trkpt lat="43.416717" lon="-4.038433">
        <ele>99.608</ele>
        <time>2019-06-16T16:32:26Z</time>
      </trkpt>
      <trkpt lat="43.416821" lon="-4.038401">
        <ele>100.412</ele>
        <time>2019-06-16T16:32:27Z</time>
      </trkpt>
      <trkpt lat="43.416940" lon="-4.038369">
        <ele>101.366</ele>
        <time>2019-06-16T16:32:28Z</time>
      </trkpt>
      <trkpt lat="43.417055" lon="-4.038332">
        <ele>101.886</ele>
        <time>2019-06-16T16:32:29Z</time>
      </trkpt>
      <trkpt lat="43.417171" lon="-4.038307">
        <ele>102.360</ele>
        <time>2019-06-16T16:32:30Z</time>
      </trkpt>
      <trkpt lat="43.417294" lon="-4.038284">
        <ele>102.829</ele>
        <time>2019-06-16T16:32:31Z</time>
      </trkpt>
      <trkpt lat="43.417419" lon="-4.038254">
        <ele>103.169</ele>
        <time>2019-06-16T16:32:32Z</time>
      </trkpt>
      <trkpt lat="43.417529" lon="-4.038232">
        <ele>103.335</ele>
        <time>2019-06-16T16:32:33Z</time>
      </trkpt>
      <trkpt lat="43.417642" lon="-4.038208">
        <ele>103.144</ele>
        <time>2019-06-16T16:32:34Z</time>
      </trkpt>
      <trkpt lat="43.417747" lon="-4.038191">
        <ele>103.033</ele>
        <time>2019-06-16T16:32:35Z</time>
      </trkpt>
      <trkpt lat="43.417849" lon="-4.038173">
        <ele>103.123</ele>
        <time>2019-06-16T16:32:36Z</time>
      </trkpt>
      <trkpt lat="43.417944" lon="-4.038156">
        <ele>103.315</ele>
        <time>2019-06-16T16:32:37Z</time>
      </trkpt>
      <trkpt lat="43.418036" lon="-4.038136">
        <ele>103.508</ele>
        <time>2019-06-16T16:32:38Z</time>
      </trkpt>
      <trkpt lat="43.418122" lon="-4.038123">
        <ele>103.796</ele>
        <time>2019-06-16T16:32:39Z</time>
      </trkpt>
      <trkpt lat="43.418204" lon="-4.038106">
        <ele>103.830</ele>
        <time>2019-06-16T16:32:40Z</time>
      </trkpt>
      <trkpt lat="43.418281" lon="-4.038101">
        <ele>104.080</ele>
        <time>2019-06-16T16:32:41Z</time>
      </trkpt>
      <trkpt lat="43.418385" lon="-4.038122">
        <ele>104.214</ele>
        <time>2019-06-16T16:32:42Z</time>
      </trkpt>
      <trkpt lat="43.418492" lon="-4.038148">
        <ele>104.373</ele>
        <time>2019-06-16T16:32:43Z</time>
      </trkpt>
      <trkpt lat="43.418612" lon="-4.038178">
        <ele>104.483</ele>
        <time>2019-06-16T16:32:44Z</time>
      </trkpt>
      <trkpt lat="43.418731" lon="-4.038218">
        <ele>104.289</ele>
        <time>2019-06-16T16:32:45Z</time>
      </trkpt>
      <trkpt lat="43.418861" lon="-4.038267">
        <ele>103.978</ele>
        <time>2019-06-16T16:32:46Z</time>
      </trkpt>
      <trkpt lat="43.418988" lon="-4.038317">
        <ele>103.285</ele>
        <time>2019-06-16T16:32:47Z</time>
      </trkpt>
      <trkpt lat="43.419126" lon="-4.038376">
        <ele>102.189</ele>
        <time>2019-06-16T16:32:48Z</time>
      </trkpt>
      <trkpt lat="43.419262" lon="-4.038435">
        <ele>100.617</ele>
        <time>2019-06-16T16:32:49Z</time>
      </trkpt>
      <trkpt lat="43.419396" lon="-4.038492">
        <ele>99.508</ele>
        <time>2019-06-16T16:32:50Z</time>
      </trkpt>
      <trkpt lat="43.419533" lon="-4.038545">
        <ele>98.641</ele>
        <time>2019-06-16T16:32:51Z</time>
      </trkpt>
      <trkpt lat="43.419669" lon="-4.038597">
        <ele>97.565</ele>
        <time>2019-06-16T16:32:52Z</time>
      </trkpt>
      <trkpt lat="43.419799" lon="-4.038648">
        <ele>96.425</ele>
        <time>2019-06-16T16:32:53Z</time>
      </trkpt>
      <trkpt lat="43.419931" lon="-4.038694">
        <ele>95.559</ele>
        <time>2019-06-16T16:32:54Z</time>
      </trkpt>
      <trkpt lat="43.420065" lon="-4.038733">
        <ele>94.888</ele>
        <time>2019-06-16T16:32:55Z</time>
      </trkpt>
      <trkpt lat="43.420191" lon="-4.038774">
        <ele>94.338</ele>
        <time>2019-06-16T16:32:56Z</time>
      </trkpt>
      <trkpt lat="43.420302" lon="-4.038809">
        <ele>93.914</ele>
        <time>2019-06-16T16:32:57Z</time>
      </trkpt>
      <trkpt lat="43.420406" lon="-4.038843">
        <ele>93.593</ele>
        <time>2019-06-16T16:32:58Z</time>
      </trkpt>
      <trkpt lat="43.420521" lon="-4.038870">
        <ele>93.118</ele>
        <time>2019-06-16T16:32:59Z</time>
      </trkpt>
      <trkpt lat="43.420646" lon="-4.038907">
        <ele>93.098</ele>
        <time>2019-06-16T16:33:00Z</time>
      </trkpt>
      <trkpt lat="43.420788" lon="-4.038938">
        <ele>93.017</ele>
        <time>2019-06-16T16:33:01Z</time>
      </trkpt>
      <trkpt lat="43.420937" lon="-4.038972">
        <ele>93.008</ele>
        <time>2019-06-16T16:33:02Z</time>
      </trkpt>
      <trkpt lat="43.421093" lon="-4.039026">
        <ele>93.094</ele>
        <time>2019-06-16T16:33:03Z</time>
      </trkpt>
      <trkpt lat="43.421260" lon="-4.039089">
        <ele>93.568</ele>
        <time>2019-06-16T16:33:04Z</time>
      </trkpt>
      <trkpt lat="43.421425" lon="-4.039161">
        <ele>94.428</ele>
        <time>2019-06-16T16:33:05Z</time>
      </trkpt>
      <trkpt lat="43.421590" lon="-4.039241">
        <ele>96.252</ele>
        <time>2019-06-16T16:33:06Z</time>
      </trkpt>
      <trkpt lat="43.421746" lon="-4.039318">
        <ele>97.711</ele>
        <time>2019-06-16T16:33:07Z</time>
      </trkpt>
      <trkpt lat="43.421905" lon="-4.039393">
        <ele>98.931</ele>
        <time>2019-06-16T16:33:08Z</time>
      </trkpt>
      <trkpt lat="43.422058" lon="-4.039466">
        <ele>99.537</ele>
        <time>2019-06-16T16:33:09Z</time>
      </trkpt>
      <trkpt lat="43.422175" lon="-4.039537">
        <ele>100.296</ele>
        <time>2019-06-16T16:33:10Z</time>
      </trkpt>
      <trkpt lat="43.422305" lon="-4.039598">
        <ele>100.725</ele>
        <time>2019-06-16T16:33:11Z</time>
      </trkpt>
      <trkpt lat="43.422423" lon="-4.039664">
        <ele>100.926</ele>
        <time>2019-06-16T16:33:12Z</time>
      </trkpt>
      <trkpt lat="43.422544" lon="-4.039719">
        <ele>101.008</ele>
        <time>2019-06-16T16:33:13Z</time>
      </trkpt>
      <trkpt lat="43.422653" lon="-4.039770">
        <ele>100.808</ele>
        <time>2019-06-16T16:33:14Z</time>
      </trkpt>
      <trkpt lat="43.422766" lon="-4.039806">
        <ele>100.795</ele>
        <time>2019-06-16T16:33:15Z</time>
      </trkpt>
      <trkpt lat="43.422877" lon="-4.039848">
        <ele>99.679</ele>
        <time>2019-06-16T16:33:16Z</time>
      </trkpt>
      <trkpt lat="43.423005" lon="-4.039886">
        <ele>98.479</ele>
        <time>2019-06-16T16:33:17Z</time>
      </trkpt>
      <trkpt lat="43.423129" lon="-4.039925">
        <ele>97.483</ele>
        <time>2019-06-16T16:33:18Z</time>
      </trkpt>
      <trkpt lat="43.423258" lon="-4.039955">
        <ele>96.492</ele>
        <time>2019-06-16T16:33:19Z</time>
      </trkpt>
      <trkpt lat="43.423384" lon="-4.039975">
        <ele>95.572</ele>
        <time>2019-06-16T16:33:20Z</time>
      </trkpt>
      <trkpt lat="43.423506" lon="-4.040005">
        <ele>94.828</ele>
        <time>2019-06-16T16:33:21Z</time>
      </trkpt>
      <trkpt lat="43.423630" lon="-4.040040">
        <ele>93.957</ele>
        <time>2019-06-16T16:33:22Z</time>
      </trkpt>
      <trkpt lat="43.423737" lon="-4.040078">
        <ele>93.549</ele>
        <time>2019-06-16T16:33:23Z</time>
      </trkpt>
      <trkpt lat="43.423852" lon="-4.040109">
        <ele>93.102</ele>
        <time>2019-06-16T16:33:24Z</time>
      </trkpt>
      <trkpt lat="43.423987" lon="-4.040128">
        <ele>92.822</ele>
        <time>2019-06-16T16:33:25Z</time>
      </trkpt>
      <trkpt lat="43.424081" lon="-4.040158">
        <ele>92.608</ele>
        <time>2019-06-16T16:33:26Z</time>
      </trkpt>
      <trkpt lat="43.424178" lon="-4.040176">
        <ele>92.467</ele>
        <time>2019-06-16T16:33:27Z</time>
      </trkpt>
      <trkpt lat="43.424271" lon="-4.040203">
        <ele>92.311</ele>
        <time>2019-06-16T16:33:28Z</time>
      </trkpt>
      <trkpt lat="43.424362" lon="-4.040230">
        <ele>92.241</ele>
        <time>2019-06-16T16:33:29Z</time>
      </trkpt>
      <trkpt lat="43.424447" lon="-4.040258">
        <ele>92.115</ele>
        <time>2019-06-16T16:33:30Z</time>
      </trkpt>
      <trkpt lat="43.424541" lon="-4.040280">
        <ele>92.084</ele>
        <time>2019-06-16T16:33:31Z</time>
      </trkpt>
      <trkpt lat="43.424639" lon="-4.040301">
        <ele>91.974</ele>
        <time>2019-06-16T16:33:32Z</time>
      </trkpt>
      <trkpt lat="43.424728" lon="-4.040318">
        <ele>91.980</ele>
        <time>2019-06-16T16:33:33Z</time>
      </trkpt>
      <trkpt lat="43.424817" lon="-4.040334">
        <ele>91.969</ele>
        <time>2019-06-16T16:33:34Z</time>
      </trkpt>
      <trkpt lat="43.424894" lon="-4.040357">
        <ele>91.987</ele>
        <time>2019-06-16T16:33:35Z</time>
      </trkpt>
      <trkpt lat="43.424978" lon="-4.040377">
        <ele>92.042</ele>
        <time>2019-06-16T16:33:36Z</time>
      </trkpt>
      <trkpt lat="43.425048" lon="-4.040391">
        <ele>92.026</ele>
        <time>2019-06-16T16:33:37Z</time>
      </trkpt>
      <trkpt lat="43.425105" lon="-4.040408">
        <ele>92.008</ele>
        <time>2019-06-16T16:33:38Z</time>
      </trkpt>
      <trkpt lat="43.425162" lon="-4.040423">
        <ele>92.061</ele>
        <time>2019-06-16T16:33:39Z</time>
      </trkpt>
      <trkpt lat="43.425234" lon="-4.040442">
        <ele>92.045</ele>
        <time>2019-06-16T16:33:40Z</time>
      </trkpt>
      <trkpt lat="43.425302" lon="-4.040469">
        <ele>92.095</ele>
        <time>2019-06-16T16:33:41Z</time>
      </trkpt>
      <trkpt lat="43.425378" lon="-4.040508">
        <ele>91.959</ele>
        <time>2019-06-16T16:33:42Z</time>
      </trkpt>
      <trkpt lat="43.425396" lon="-4.040569">
        <ele>92.018</ele>
        <time>2019-06-16T16:33:43Z</time>
      </trkpt>
      <trkpt lat="43.425445" lon="-4.040637">
        <ele>92.028</ele>
        <time>2019-06-16T16:33:44Z</time>
      </trkpt>
      <trkpt lat="43.425518" lon="-4.040701">
        <ele>92.024</ele>
        <time>2019-06-16T16:33:45Z</time>
      </trkpt>
      <trkpt lat="43.425547" lon="-4.040771">
        <ele>92.043</ele>
        <time>2019-06-16T16:33:46Z</time>
      </trkpt>
      <trkpt lat="43.425600" lon="-4.040846">
        <ele>92.234</ele>
        <time>2019-06-16T16:33:47Z</time>
      </trkpt>
      <trkpt lat="43.425646" lon="-4.040933">
        <ele>92.655</ele>
        <time>2019-06-16T16:33:48Z</time>
      </trkpt>
      <trkpt lat="43.425692" lon="-4.041027">
        <ele>92.810</ele>
        <time>2019-06-16T16:33:49Z</time>
      </trkpt>
      <trkpt lat="43.425762" lon="-4.041086">
        <ele>93.008</ele>
        <time>2019-06-16T16:33:50Z</time>
      </trkpt>
      <trkpt lat="43.425825" lon="-4.041143">
        <ele>93.086</ele>
        <time>2019-06-16T16:33:51Z</time>
      </trkpt>
      <trkpt lat="43.425877" lon="-4.041191">
        <ele>93.040</ele>
        <time>2019-06-16T16:33:52Z</time>
      </trkpt>
      <trkpt lat="43.425914" lon="-4.041272">
        <ele>93.040</ele>
        <time>2019-06-16T16:33:53Z</time>
      </trkpt>
      <trkpt lat="43.425972" lon="-4.041333">
        <ele>93.054</ele>
        <time>2019-06-16T16:33:54Z</time>
      </trkpt>
      <trkpt lat="43.426024" lon="-4.041395">
        <ele>93.083</ele>
        <time>2019-06-16T16:33:55Z</time>
      </trkpt>
      <trkpt lat="43.426076" lon="-4.041461">
        <ele>93.083</ele>
        <time>2019-06-16T16:33:56Z</time>
      </trkpt>
      <trkpt lat="43.426132" lon="-4.041525">
        <ele>93.059</ele>
        <time>2019-06-16T16:33:57Z</time>
      </trkpt>
      <trkpt lat="43.426191" lon="-4.041582">
        <ele>93.038</ele>
        <time>2019-06-16T16:33:58Z</time>
      </trkpt>
      <trkpt lat="43.426252" lon="-4.041636">
        <ele>93.017</ele>
        <time>2019-06-16T16:33:59Z</time>
      </trkpt>
      <trkpt lat="43.426309" lon="-4.041693">
        <ele>93.087</ele>
        <time>2019-06-16T16:34:00Z</time>
      </trkpt>
      <trkpt lat="43.426378" lon="-4.041739">
        <ele>93.015</ele>
        <time>2019-06-16T16:34:01Z</time>
      </trkpt>
      <trkpt lat="43.426439" lon="-4.041792">
        <ele>92.908</ele>
        <time>2019-06-16T16:34:02Z</time>
      </trkpt>
      <trkpt lat="43.426497" lon="-4.041846">
        <ele>92.794</ele>
        <time>2019-06-16T16:34:03Z</time>
      </trkpt>
      <trkpt lat="43.426551" lon="-4.041901">
        <ele>92.528</ele>
        <time>2019-06-16T16:34:04Z</time>
      </trkpt>
      <trkpt lat="43.426613" lon="-4.041934">
        <ele>92.288</ele>
        <time>2019-06-16T16:34:05Z</time>
      </trkpt>
      <trkpt lat="43.426660" lon="-4.041992">
        <ele>92.222</ele>
        <time>2019-06-16T16:34:06Z</time>
      </trkpt>
      <trkpt lat="43.426719" lon="-4.042038">
        <ele>92.031</ele>
        <time>2019-06-16T16:34:07Z</time>
      </trkpt>
      <trkpt lat="43.426786" lon="-4.042057">
        <ele>91.781</ele>
        <time>2019-06-16T16:34:08Z</time>
      </trkpt>
      <trkpt lat="43.426877" lon="-4.042061">
        <ele>91.267</ele>
        <time>2019-06-16T16:34:09Z</time>
      </trkpt>
      <trkpt lat="43.426951" lon="-4.042074">
        <ele>90.986</ele>
        <time>2019-06-16T16:34:10Z</time>
      </trkpt>
      <trkpt lat="43.427022" lon="-4.042100">
        <ele>90.324</ele>
        <time>2019-06-16T16:34:11Z</time>
      </trkpt>
      <trkpt lat="43.427077" lon="-4.042131">
        <ele>89.904</ele>
        <time>2019-06-16T16:34:12Z</time>
      </trkpt>
      <trkpt lat="43.427134" lon="-4.042163">
        <ele>89.514</ele>
        <time>2019-06-16T16:34:13Z</time>
      </trkpt>
      <trkpt lat="43.427178" lon="-4.042239">
        <ele>89.608</ele>
        <time>2019-06-16T16:34:14Z</time>
      </trkpt>
      <trkpt lat="43.427232" lon="-4.042309">
        <ele>89.415</ele>
        <time>2019-06-16T16:34:15Z</time>
      </trkpt>
      <trkpt lat="43.427290" lon="-4.042381">
        <ele>88.829</ele>
        <time>2019-06-16T16:34:16Z</time>
      </trkpt>
      <trkpt lat="43.427345" lon="-4.042450">
        <ele>88.139</ele>
        <time>2019-06-16T16:34:17Z</time>
      </trkpt>
      <trkpt lat="43.427389" lon="-4.042530">
        <ele>87.763</ele>
        <time>2019-06-16T16:34:18Z</time>
      </trkpt>
      <trkpt lat="43.427453" lon="-4.042579">
        <ele>86.622</ele>
        <time>2019-06-16T16:34:19Z</time>
      </trkpt>
      <trkpt lat="43.427503" lon="-4.042656">
        <ele>86.062</ele>
        <time>2019-06-16T16:34:20Z</time>
      </trkpt>
      <trkpt lat="43.427556" lon="-4.042735">
        <ele>85.168</ele>
        <time>2019-06-16T16:34:21Z</time>
      </trkpt>
      <trkpt lat="43.427609" lon="-4.042813">
        <ele>84.337</ele>
        <time>2019-06-16T16:34:22Z</time>
      </trkpt>
      <trkpt lat="43.427660" lon="-4.042900">
        <ele>83.917</ele>
        <time>2019-06-16T16:34:23Z</time>
      </trkpt>
      <trkpt lat="43.427738" lon="-4.042975">
        <ele>82.487</ele>
        <time>2019-06-16T16:34:24Z</time>
      </trkpt>
      <trkpt lat="43.427816" lon="-4.043046">
        <ele>80.915</ele>
        <time>2019-06-16T16:34:25Z</time>
      </trkpt>
      <trkpt lat="43.427881" lon="-4.043149">
        <ele>80.708</ele>
        <time>2019-06-16T16:34:26Z</time>
      </trkpt>
      <trkpt lat="43.427956" lon="-4.043240">
        <ele>79.684</ele>
        <time>2019-06-16T16:34:27Z</time>
      </trkpt>
      <trkpt lat="43.428030" lon="-4.043332">
        <ele>77.958</ele>
        <time>2019-06-16T16:34:28Z</time>
      </trkpt>
      <trkpt lat="43.428100" lon="-4.043428">
        <ele>77.318</ele>
        <time>2019-06-16T16:34:29Z</time>
      </trkpt>
      <trkpt lat="43.428154" lon="-4.043515">
        <ele>77.062</ele>
        <time>2019-06-16T16:34:30Z</time>
      </trkpt>
      <trkpt lat="43.428220" lon="-4.043598">
        <ele>75.921</ele>
        <time>2019-06-16T16:34:31Z</time>
      </trkpt>
      <trkpt lat="43.428283" lon="-4.043685">
        <ele>74.851</ele>
        <time>2019-06-16T16:34:32Z</time>
      </trkpt>
      <trkpt lat="43.428350" lon="-4.043769">
        <ele>73.937</ele>
        <time>2019-06-16T16:34:33Z</time>
      </trkpt>
      <trkpt lat="43.428420" lon="-4.043842">
        <ele>73.266</ele>
        <time>2019-06-16T16:34:34Z</time>
      </trkpt>
      <trkpt lat="43.428500" lon="-4.043912">
        <ele>72.058</ele>
        <time>2019-06-16T16:34:35Z</time>
      </trkpt>
      <trkpt lat="43.428580" lon="-4.043985">
        <ele>70.652</ele>
        <time>2019-06-16T16:34:36Z</time>
      </trkpt>
      <trkpt lat="43.428664" lon="-4.044052">
        <ele>69.517</ele>
        <time>2019-06-16T16:34:37Z</time>
      </trkpt>
      <trkpt lat="43.428747" lon="-4.044119">
        <ele>69.108</ele>
        <time>2019-06-16T16:34:38Z</time>
      </trkpt>
      <trkpt lat="43.428834" lon="-4.044185">
        <ele>68.738</ele>
        <time>2019-06-16T16:34:39Z</time>
      </trkpt>
      <trkpt lat="43.428919" lon="-4.044254">
        <ele>68.382</ele>
        <time>2019-06-16T16:34:40Z</time>
      </trkpt>
      <trkpt lat="43.429004" lon="-4.044322">
        <ele>67.822</ele>
        <time>2019-06-16T16:34:41Z</time>
      </trkpt>
      <trkpt lat="43.429089" lon="-4.044390">
        <ele>67.086</ele>
        <time>2019-06-16T16:34:42Z</time>
      </trkpt>
      <trkpt lat="43.429174" lon="-4.044462">
        <ele>66.075</ele>
        <time>2019-06-16T16:34:43Z</time>
      </trkpt>
      <trkpt lat="43.429263" lon="-4.044539">
        <ele>65.815</ele>
        <time>2019-06-16T16:34:44Z</time>
      </trkpt>
      <trkpt lat="43.429361" lon="-4.044618">
        <ele>65.191</ele>
        <time>2019-06-16T16:34:45Z</time>
      </trkpt>
      <trkpt lat="43.429460" lon="-4.044688">
        <ele>64.070</ele>
        <time>2019-06-16T16:34:46Z</time>
      </trkpt>
      <trkpt lat="43.429552" lon="-4.044756">
        <ele>63.042</ele>
        <time>2019-06-16T16:34:47Z</time>
      </trkpt>
      <trkpt lat="43.429633" lon="-4.044790">
        <ele>62.222</ele>
        <time>2019-06-16T16:34:48Z</time>
      </trkpt>
      <trkpt lat="43.429708" lon="-4.044823">
        <ele>61.514</ele>
        <time>2019-06-16T16:34:49Z</time>
      </trkpt>
      <trkpt lat="43.429794" lon="-4.044812">
        <ele>60.608</ele>
        <time>2019-06-16T16:34:50Z</time>
      </trkpt>
      <trkpt lat="43.429855" lon="-4.044760">
        <ele>59.827</ele>
        <time>2019-06-16T16:34:51Z</time>
      </trkpt>
      <trkpt lat="43.429900" lon="-4.044705">
        <ele>59.061</ele>
        <time>2019-06-16T16:34:52Z</time>
      </trkpt>
      <trkpt lat="43.429942" lon="-4.044652">
        <ele>58.321</ele>
        <time>2019-06-16T16:34:53Z</time>
      </trkpt>
      <trkpt lat="43.429955" lon="-4.044546">
        <ele>57.615</ele>
        <time>2019-06-16T16:34:54Z</time>
      </trkpt>
      <trkpt lat="43.429986" lon="-4.044382">
        <ele>56.134</ele>
        <time>2019-06-16T16:34:55Z</time>
      </trkpt>
      <trkpt lat="43.430019" lon="-4.044253">
        <ele>55.144</ele>
        <time>2019-06-16T16:34:56Z</time>
      </trkpt>
      <trkpt lat="43.430049" lon="-4.044122">
        <ele>54.060</ele>
        <time>2019-06-16T16:34:57Z</time>
      </trkpt>
      <trkpt lat="43.430073" lon="-4.043999">
        <ele>52.959</ele>
        <time>2019-06-16T16:34:58Z</time>
      </trkpt>
      <trkpt lat="43.430099" lon="-4.043875">
        <ele>51.896</ele>
        <time>2019-06-16T16:34:59Z</time>
      </trkpt>
      <trkpt lat="43.430104" lon="-4.043745">
        <ele>50.531</ele>
        <time>2019-06-16T16:35:00Z</time>
      </trkpt>
      <trkpt lat="43.430107" lon="-4.043624">
        <ele>49.424</ele>
        <time>2019-06-16T16:35:01Z</time>
      </trkpt>
      <trkpt lat="43.430103" lon="-4.043503">
        <ele>48.508</ele>
        <time>2019-06-16T16:35:02Z</time>
      </trkpt>
      <trkpt lat="43.430111" lon="-4.043404">
        <ele>47.792</ele>
        <time>2019-06-16T16:35:03Z</time>
      </trkpt>
      <trkpt lat="43.430129" lon="-4.043308">
        <ele>47.036</ele>
        <time>2019-06-16T16:35:04Z</time>
      </trkpt>
      <trkpt lat="43.430175" lon="-4.043228">
        <ele>46.566</ele>
        <time>2019-06-16T16:35:05Z</time>
      </trkpt>
      <trkpt lat="43.430248" lon="-4.043183">
        <ele>46.140</ele>
        <time>2019-06-16T16:35:06Z</time>
      </trkpt>
      <trkpt lat="43.430316" lon="-4.043159">
        <ele>45.759</ele>
        <time>2019-06-16T16:35:07Z</time>
      </trkpt>
      <trkpt lat="43.430385" lon="-4.043133">
        <ele>45.259</ele>
        <time>2019-06-16T16:35:08Z</time>
      </trkpt>
      <trkpt lat="43.430450" lon="-4.043127">
        <ele>44.885</ele>
        <time>2019-06-16T16:35:09Z</time>
      </trkpt>
      <trkpt lat="43.430507" lon="-4.043109">
        <ele>44.484</ele>
        <time>2019-06-16T16:35:10Z</time>
      </trkpt>
      <trkpt lat="43.430572" lon="-4.043072">
        <ele>43.899</ele>
        <time>2019-06-16T16:35:11Z</time>
      </trkpt>
      <trkpt lat="43.430671" lon="-4.042987">
        <ele>42.507</ele>
        <time>2019-06-16T16:35:12Z</time>
      </trkpt>
      <trkpt lat="43.430694" lon="-4.042808">
        <ele>42.527</ele>
        <time>2019-06-16T16:35:13Z</time>
      </trkpt>
      <trkpt lat="43.430754" lon="-4.042669">
        <ele>41.108</ele>
        <time>2019-06-16T16:35:14Z</time>
      </trkpt>
      <trkpt lat="43.430796" lon="-4.042528">
        <ele>39.992</ele>
        <time>2019-06-16T16:35:15Z</time>
      </trkpt>
      <trkpt lat="43.430854" lon="-4.042400">
        <ele>38.496</ele>
        <time>2019-06-16T16:35:16Z</time>
      </trkpt>
      <trkpt lat="43.430904" lon="-4.042262">
        <ele>37.696</ele>
        <time>2019-06-16T16:35:17Z</time>
      </trkpt>
      <trkpt lat="43.430945" lon="-4.042145">
        <ele>36.920</ele>
        <time>2019-06-16T16:35:18Z</time>
      </trkpt>
      <trkpt lat="43.430995" lon="-4.042016">
        <ele>36.129</ele>
        <time>2019-06-16T16:35:19Z</time>
      </trkpt>
      <trkpt lat="43.431045" lon="-4.041906">
        <ele>35.399</ele>
        <time>2019-06-16T16:35:20Z</time>
      </trkpt>
      <trkpt lat="43.431159" lon="-4.041830">
        <ele>34.555</ele>
        <time>2019-06-16T16:35:21Z</time>
      </trkpt>
      <trkpt lat="43.431254" lon="-4.041767">
        <ele>34.254</ele>
        <time>2019-06-16T16:35:22Z</time>
      </trkpt>
      <trkpt lat="43.431333" lon="-4.041728">
        <ele>34.053</ele>
        <time>2019-06-16T16:35:23Z</time>
      </trkpt>
      <trkpt lat="43.431427" lon="-4.041694">
        <ele>33.804</ele>
        <time>2019-06-16T16:35:24Z</time>
      </trkpt>
      <trkpt lat="43.431527" lon="-4.041648">
        <ele>33.514</ele>
        <time>2019-06-16T16:35:25Z</time>
      </trkpt>
      <trkpt lat="43.431617" lon="-4.041590">
        <ele>33.208</ele>
        <time>2019-06-16T16:35:26Z</time>
      </trkpt>
      <trkpt lat="43.431699" lon="-4.041529">
        <ele>32.718</ele>
        <time>2019-06-16T16:35:27Z</time>
      </trkpt>
      <trkpt lat="43.431762" lon="-4.041437">
        <ele>32.022</ele>
        <time>2019-06-16T16:35:28Z</time>
      </trkpt>
      <trkpt lat="43.431798" lon="-4.041273">
        <ele>31.412</ele>
        <time>2019-06-16T16:35:29Z</time>
      </trkpt>
      <trkpt lat="43.431834" lon="-4.041162">
        <ele>30.976</ele>
        <time>2019-06-16T16:35:30Z</time>
      </trkpt>
      <trkpt lat="43.431889" lon="-4.041032">
        <ele>30.145</ele>
        <time>2019-06-16T16:35:31Z</time>
      </trkpt>
      <trkpt lat="43.431951" lon="-4.040909">
        <ele>29.275</ele>
        <time>2019-06-16T16:35:32Z</time>
      </trkpt>
      <trkpt lat="43.432000" lon="-4.040773">
        <ele>28.741</ele>
        <time>2019-06-16T16:35:33Z</time>
      </trkpt>
      <trkpt lat="43.432057" lon="-4.040638">
        <ele>28.510</ele>
        <time>2019-06-16T16:35:34Z</time>
      </trkpt>
      <trkpt lat="43.432113" lon="-4.040503">
        <ele>28.615</ele>
        <time>2019-06-16T16:35:35Z</time>
      </trkpt>
      <trkpt lat="43.432177" lon="-4.040380">
        <ele>29.365</ele>
        <time>2019-06-16T16:35:36Z</time>
      </trkpt>
      <trkpt lat="43.432238" lon="-4.040273">
        <ele>29.911</ele>
        <time>2019-06-16T16:35:37Z</time>
      </trkpt>
      <trkpt lat="43.432310" lon="-4.040167">
        <ele>29.608</ele>
        <time>2019-06-16T16:35:38Z</time>
      </trkpt>
      <trkpt lat="43.432381" lon="-4.040082">
        <ele>29.764</ele>
        <time>2019-06-16T16:35:39Z</time>
      </trkpt>
      <trkpt lat="43.432441" lon="-4.040004">
        <ele>30.048</ele>
        <time>2019-06-16T16:35:40Z</time>
      </trkpt>
      <trkpt lat="43.432498" lon="-4.039923">
        <ele>30.078</ele>
        <time>2019-06-16T16:35:41Z</time>
      </trkpt>
      <trkpt lat="43.432560" lon="-4.039838">
        <ele>29.772</ele>
        <time>2019-06-16T16:35:42Z</time>
      </trkpt>
      <trkpt lat="43.432604" lon="-4.039783">
        <ele>29.551</ele>
        <time>2019-06-16T16:35:43Z</time>
      </trkpt>
      <trkpt lat="43.432672" lon="-4.039717">
        <ele>29.431</ele>
        <time>2019-06-16T16:35:44Z</time>
      </trkpt>
      <trkpt lat="43.432746" lon="-4.039664">
        <ele>29.147</ele>
        <time>2019-06-16T16:35:45Z</time>
      </trkpt>
      <trkpt lat="43.432820" lon="-4.039627">
        <ele>28.556</ele>
        <time>2019-06-16T16:35:46Z</time>
      </trkpt>
      <trkpt lat="43.432892" lon="-4.039603">
        <ele>27.857</ele>
        <time>2019-06-16T16:35:47Z</time>
      </trkpt>
      <trkpt lat="43.432975" lon="-4.039610">
        <ele>26.900</ele>
        <time>2019-06-16T16:35:48Z</time>
      </trkpt>
      <trkpt lat="43.433051" lon="-4.039640">
        <ele>26.020</ele>
        <time>2019-06-16T16:35:49Z</time>
      </trkpt>
      <trkpt lat="43.433117" lon="-4.039708">
        <ele>24.908</ele>
        <time>2019-06-16T16:35:50Z</time>
      </trkpt>
      <trkpt lat="43.433143" lon="-4.039817">
        <ele>24.028</ele>
        <time>2019-06-16T16:35:51Z</time>
      </trkpt>
      <trkpt lat="43.433166" lon="-4.039929">
        <ele>23.082</ele>
        <time>2019-06-16T16:35:52Z</time>
      </trkpt>
      <trkpt lat="43.433201" lon="-4.040040">
        <ele>21.932</ele>
        <time>2019-06-16T16:35:53Z</time>
      </trkpt>
      <trkpt lat="43.433218" lon="-4.040165">
        <ele>21.556</ele>
        <time>2019-06-16T16:35:54Z</time>
      </trkpt>
      <trkpt lat="43.433207" lon="-4.040296">
        <ele>21.655</ele>
        <time>2019-06-16T16:35:55Z</time>
      </trkpt>
      <trkpt lat="43.433192" lon="-4.040420">
        <ele>21.345</ele>
        <time>2019-06-16T16:35:56Z</time>
      </trkpt>
      <trkpt lat="43.433192" lon="-4.040530">
        <ele>20.781</ele>
        <time>2019-06-16T16:35:57Z</time>
      </trkpt>
      <trkpt lat="43.433193" lon="-4.040650">
        <ele>20.020</ele>
        <time>2019-06-16T16:35:58Z</time>
      </trkpt>
      <trkpt lat="43.433185" lon="-4.040769">
        <ele>19.557</ele>
        <time>2019-06-16T16:35:59Z</time>
      </trkpt>
      <trkpt lat="43.433186" lon="-4.040861">
        <ele>18.900</ele>
        <time>2019-06-16T16:36:00Z</time>
      </trkpt>
      <trkpt lat="43.433172" lon="-4.040950">
        <ele>18.320</ele>
        <time>2019-06-16T16:36:01Z</time>
      </trkpt>
      <trkpt lat="43.433159" lon="-4.041010">
        <ele>18.008</ele>
        <time>2019-06-16T16:36:02Z</time>
      </trkpt>
      <trkpt lat="43.433136" lon="-4.041108">
        <ele>17.668</ele>
        <time>2019-06-16T16:36:04Z</time>
      </trkpt>
      <trkpt lat="43.433109" lon="-4.041159">
        <ele>17.372</ele>
        <time>2019-06-16T16:36:05Z</time>
      </trkpt>
      <trkpt lat="43.433084" lon="-4.041220">
        <ele>16.942</ele>
        <time>2019-06-16T16:36:06Z</time>
      </trkpt>
      <trkpt lat="43.433056" lon="-4.041275">
        <ele>16.626</ele>
        <time>2019-06-16T16:36:07Z</time>
      </trkpt>
      <trkpt lat="43.433014" lon="-4.041342">
        <ele>16.535</ele>
        <time>2019-06-16T16:36:08Z</time>
      </trkpt>
      <trkpt lat="43.432978" lon="-4.041418">
        <ele>16.275</ele>
        <time>2019-06-16T16:36:09Z</time>
      </trkpt>
      <trkpt lat="43.432945" lon="-4.041516">
        <ele>15.261</ele>
        <time>2019-06-16T16:36:10Z</time>
      </trkpt>
      <trkpt lat="43.432922" lon="-4.041618">
        <ele>13.840</ele>
        <time>2019-06-16T16:36:11Z</time>
      </trkpt>
      <trkpt lat="43.432924" lon="-4.041732">
        <ele>12.111</ele>
        <time>2019-06-16T16:36:12Z</time>
      </trkpt>
      <trkpt lat="43.432918" lon="-4.041853">
        <ele>10.621</ele>
        <time>2019-06-16T16:36:13Z</time>
      </trkpt>
      <trkpt lat="43.432925" lon="-4.041977">
        <ele>9.203</ele>
        <time>2019-06-16T16:36:14Z</time>
      </trkpt>
      <trkpt lat="43.432934" lon="-4.042102">
        <ele>8.208</ele>
        <time>2019-06-16T16:36:15Z</time>
      </trkpt>
      <trkpt lat="43.432938" lon="-4.042230">
        <ele>7.444</ele>
        <time>2019-06-16T16:36:16Z</time>
      </trkpt>
      <trkpt lat="43.432941" lon="-4.042349">
        <ele>7.298</ele>
        <time>2019-06-16T16:36:17Z</time>
      </trkpt>
      <trkpt lat="43.432951" lon="-4.042469">
        <ele>7.018</ele>
        <time>2019-06-16T16:36:18Z</time>
      </trkpt>
      <trkpt lat="43.432965" lon="-4.042575">
        <ele>6.772</ele>
        <time>2019-06-16T16:36:19Z</time>
      </trkpt>
      <trkpt lat="43.432980" lon="-4.042676">
        <ele>6.431</ele>
        <time>2019-06-16T16:36:20Z</time>
      </trkpt>
      <trkpt lat="43.433001" lon="-4.042776">
        <ele>6.091</ele>
        <time>2019-06-16T16:36:21Z</time>
      </trkpt>
      <trkpt lat="43.433015" lon="-4.042887">
        <ele>5.767</ele>
        <time>2019-06-16T16:36:22Z</time>
      </trkpt>
      <trkpt lat="43.433034" lon="-4.043008">
        <ele>5.256</ele>
        <time>2019-06-16T16:36:23Z</time>
      </trkpt>
      <trkpt lat="43.433052" lon="-4.043123">
        <ele>5.084</ele>
        <time>2019-06-16T16:36:24Z</time>
      </trkpt>
      <trkpt lat="43.433073" lon="-4.043242">
        <ele>5.007</ele>
        <time>2019-06-16T16:36:25Z</time>
      </trkpt>
      <trkpt lat="43.433090" lon="-4.043352">
        <ele>5.017</ele>
        <time>2019-06-16T16:36:26Z</time>
      </trkpt>
      <trkpt lat="43.433117" lon="-4.043445">
        <ele>5.008</ele>
        <time>2019-06-16T16:36:27Z</time>
      </trkpt>
      <trkpt lat="43.433136" lon="-4.043553">
        <ele>5.071</ele>
        <time>2019-06-16T16:36:28Z</time>
      </trkpt>
      <trkpt lat="43.433159" lon="-4.043660">
        <ele>5.015</ele>
        <time>2019-06-16T16:36:29Z</time>
      </trkpt>
      <trkpt lat="43.433177" lon="-4.043771">
        <ele>5.095</ele>
        <time>2019-06-16T16:36:30Z</time>
      </trkpt>
      <trkpt lat="43.433198" lon="-4.043880">
        <ele>5.049</ele>
        <time>2019-06-16T16:36:31Z</time>
      </trkpt>
      <trkpt lat="43.433219" lon="-4.043989">
        <ele>5.088</ele>
        <time>2019-06-16T16:36:32Z</time>
      </trkpt>
      <trkpt lat="43.433243" lon="-4.044097">
        <ele>5.028</ele>
        <time>2019-06-16T16:36:33Z</time>
      </trkpt>
      <trkpt lat="43.433267" lon="-4.044207">
        <ele>5.084</ele>
        <time>2019-06-16T16:36:34Z</time>
      </trkpt>
      <trkpt lat="43.433286" lon="-4.044317">
        <ele>5.013</ele>
        <time>2019-06-16T16:36:35Z</time>
      </trkpt>
      <trkpt lat="43.433306" lon="-4.044424">
        <ele>5.036</ele>
        <time>2019-06-16T16:36:36Z</time>
      </trkpt>
      <trkpt lat="43.433329" lon="-4.044530">
        <ele>5.317</ele>
        <time>2019-06-16T16:36:37Z</time>
      </trkpt>
      <trkpt lat="43.433355" lon="-4.044651">
        <ele>5.918</ele>
        <time>2019-06-16T16:36:38Z</time>
      </trkpt>
      <trkpt lat="43.433375" lon="-4.044775">
        <ele>6.308</ele>
        <time>2019-06-16T16:36:39Z</time>
      </trkpt>
      <trkpt lat="43.433404" lon="-4.044898">
        <ele>6.786</ele>
        <time>2019-06-16T16:36:40Z</time>
      </trkpt>
      <trkpt lat="43.433437" lon="-4.045022">
        <ele>7.210</ele>
        <time>2019-06-16T16:36:41Z</time>
      </trkpt>
      <trkpt lat="43.433468" lon="-4.045141">
        <ele>8.030</ele>
        <time>2019-06-16T16:36:42Z</time>
      </trkpt>
      <trkpt lat="43.433499" lon="-4.045259">
        <ele>8.734</ele>
        <time>2019-06-16T16:36:43Z</time>
      </trkpt>
      <trkpt lat="43.433528" lon="-4.045378">
        <ele>9.683</ele>
        <time>2019-06-16T16:36:44Z</time>
      </trkpt>
      <trkpt lat="43.433557" lon="-4.045487">
        <ele>10.343</ele>
        <time>2019-06-16T16:36:45Z</time>
      </trkpt>
      <trkpt lat="43.433582" lon="-4.045597">
        <ele>11.189</ele>
        <time>2019-06-16T16:36:46Z</time>
      </trkpt>
      <trkpt lat="43.433611" lon="-4.045718">
        <ele>12.258</ele>
        <time>2019-06-16T16:36:47Z</time>
      </trkpt>
      <trkpt lat="43.433649" lon="-4.045843">
        <ele>13.263</ele>
        <time>2019-06-16T16:36:48Z</time>
      </trkpt>
      <trkpt lat="43.433695" lon="-4.045970">
        <ele>14.644</ele>
        <time>2019-06-16T16:36:49Z</time>
      </trkpt>
      <trkpt lat="43.433751" lon="-4.046078">
        <ele>15.718</ele>
        <time>2019-06-16T16:36:50Z</time>
      </trkpt>
      <trkpt lat="43.433811" lon="-4.046196">
        <ele>16.508</ele>
        <time>2019-06-16T16:36:51Z</time>
      </trkpt>
      <trkpt lat="43.433877" lon="-4.046301">
        <ele>17.329</ele>
        <time>2019-06-16T16:36:52Z</time>
      </trkpt>
      <trkpt lat="43.433958" lon="-4.046367">
        <ele>18.443</ele>
        <time>2019-06-16T16:36:53Z</time>
      </trkpt>
      <trkpt lat="43.434089" lon="-4.046323">
        <ele>19.113</ele>
        <time>2019-06-16T16:36:54Z</time>
      </trkpt>
      <trkpt lat="43.434165" lon="-4.046306">
        <ele>19.717</ele>
        <time>2019-06-16T16:36:55Z</time>
      </trkpt>
      <trkpt lat="43.434244" lon="-4.046215">
        <ele>20.076</ele>
        <time>2019-06-16T16:36:56Z</time>
      </trkpt>
      <trkpt lat="43.434328" lon="-4.046149">
        <ele>20.446</ele>
        <time>2019-06-16T16:36:57Z</time>
      </trkpt>
      <trkpt lat="43.434411" lon="-4.046096">
        <ele>20.842</ele>
        <time>2019-06-16T16:36:58Z</time>
      </trkpt>
      <trkpt lat="43.434496" lon="-4.046035">
        <ele>21.691</ele>
        <time>2019-06-16T16:36:59Z</time>
      </trkpt>
      <trkpt lat="43.434567" lon="-4.045982">
        <ele>22.429</ele>
        <time>2019-06-16T16:37:00Z</time>
      </trkpt>
      <trkpt lat="43.434645" lon="-4.045936">
        <ele>23.000</ele>
        <time>2019-06-16T16:37:01Z</time>
      </trkpt>
      <trkpt lat="43.434715" lon="-4.045884">
        <ele>23.320</ele>
        <time>2019-06-16T16:37:02Z</time>
      </trkpt>
      <trkpt lat="43.434788" lon="-4.045824">
        <ele>23.608</ele>
        <time>2019-06-16T16:37:03Z</time>
      </trkpt>
      <trkpt lat="43.434882" lon="-4.045765">
        <ele>23.725</ele>
        <time>2019-06-16T16:37:04Z</time>
      </trkpt>
      <trkpt lat="43.434963" lon="-4.045726">
        <ele>23.849</ele>
        <time>2019-06-16T16:37:05Z</time>
      </trkpt>
      <trkpt lat="43.435071" lon="-4.045709">
        <ele>24.339</ele>
        <time>2019-06-16T16:37:06Z</time>
      </trkpt>
      <trkpt lat="43.435176" lon="-4.045692">
        <ele>24.713</ele>
        <time>2019-06-16T16:37:07Z</time>
      </trkpt>
      <trkpt lat="43.435273" lon="-4.045701">
        <ele>25.632</ele>
        <time>2019-06-16T16:37:08Z</time>
      </trkpt>
      <trkpt lat="43.435358" lon="-4.045721">
        <ele>26.132</ele>
        <time>2019-06-16T16:37:09Z</time>
      </trkpt>
      <trkpt lat="43.435444" lon="-4.045783">
        <ele>27.418</ele>
        <time>2019-06-16T16:37:10Z</time>
      </trkpt>
      <trkpt lat="43.435488" lon="-4.045858">
        <ele>28.697</ele>
        <time>2019-06-16T16:37:11Z</time>
      </trkpt>
      <trkpt lat="43.435554" lon="-4.045942">
        <ele>29.624</ele>
        <time>2019-06-16T16:37:12Z</time>
      </trkpt>
      <trkpt lat="43.435590" lon="-4.046030">
        <ele>30.604</ele>
        <time>2019-06-16T16:37:13Z</time>
      </trkpt>
      <trkpt lat="43.435628" lon="-4.046123">
        <ele>31.714</ele>
        <time>2019-06-16T16:37:14Z</time>
      </trkpt>
      <trkpt lat="43.435679" lon="-4.046202">
        <ele>32.708</ele>
        <time>2019-06-16T16:37:15Z</time>
      </trkpt>
      <trkpt lat="43.435787" lon="-4.046192">
        <ele>31.845</ele>
        <time>2019-06-16T16:37:16Z</time>
      </trkpt>
      <trkpt lat="43.435855" lon="-4.046189">
        <ele>31.829</ele>
        <time>2019-06-16T16:37:17Z</time>
      </trkpt>
      <trkpt lat="43.435917" lon="-4.046164">
        <ele>32.779</ele>
        <time>2019-06-16T16:37:18Z</time>
      </trkpt>
      <trkpt lat="43.435972" lon="-4.046102">
        <ele>32.953</ele>
        <time>2019-06-16T16:37:19Z</time>
      </trkpt>
      <trkpt lat="43.436047" lon="-4.046040">
        <ele>33.632</ele>
        <time>2019-06-16T16:37:20Z</time>
      </trkpt>
      <trkpt lat="43.436127" lon="-4.045983">
        <ele>34.342</ele>
        <time>2019-06-16T16:37:21Z</time>
      </trkpt>
      <trkpt lat="43.436201" lon="-4.045978">
        <ele>35.138</ele>
        <time>2019-06-16T16:37:22Z</time>
      </trkpt>
      <trkpt lat="43.436288" lon="-4.045948">
        <ele>35.377</ele>
        <time>2019-06-16T16:37:23Z</time>
      </trkpt>
      <trkpt lat="43.436368" lon="-4.045936">
        <ele>35.886</ele>
        <time>2019-06-16T16:37:24Z</time>
      </trkpt>
      <trkpt lat="43.436427" lon="-4.045927">
        <ele>36.260</ele>
        <time>2019-06-16T16:37:25Z</time>
      </trkpt>
      <trkpt lat="43.436499" lon="-4.045899">
        <ele>36.326</ele>
        <time>2019-06-16T16:37:26Z</time>
      </trkpt>
      <trkpt lat="43.436576" lon="-4.045897">
        <ele>37.208</ele>
        <time>2019-06-16T16:37:27Z</time>
      </trkpt>
      <trkpt lat="43.436652" lon="-4.045895">
        <ele>38.141</ele>
        <time>2019-06-16T16:37:28Z</time>
      </trkpt>
      <trkpt lat="43.436725" lon="-4.045896">
        <ele>38.485</ele>
        <time>2019-06-16T16:37:29Z</time>
      </trkpt>
      <trkpt lat="43.436809" lon="-4.045891">
        <ele>38.225</ele>
        <time>2019-06-16T16:37:30Z</time>
      </trkpt>
      <trkpt lat="43.436883" lon="-4.045896">
        <ele>38.429</ele>
        <time>2019-06-16T16:37:31Z</time>
      </trkpt>
      <trkpt lat="43.436956" lon="-4.045902">
        <ele>38.598</ele>
        <time>2019-06-16T16:37:32Z</time>
      </trkpt>
      <trkpt lat="43.437022" lon="-4.045898">
        <ele>38.348</ele>
        <time>2019-06-16T16:37:33Z</time>
      </trkpt>
      <trkpt lat="43.437092" lon="-4.045895">
        <ele>38.214</ele>
        <time>2019-06-16T16:37:34Z</time>
      </trkpt>
      <trkpt lat="43.437160" lon="-4.045889">
        <ele>38.053</ele>
        <time>2019-06-16T16:37:35Z</time>
      </trkpt>
      <trkpt lat="43.437222" lon="-4.045872">
        <ele>37.741</ele>
        <time>2019-06-16T16:37:36Z</time>
      </trkpt>
      <trkpt lat="43.437276" lon="-4.045869">
        <ele>37.681</ele>
        <time>2019-06-16T16:37:37Z</time>
      </trkpt>
      <trkpt lat="43.437333" lon="-4.045861">
        <ele>37.409</ele>
        <time>2019-06-16T16:37:38Z</time>
      </trkpt>
      <trkpt lat="43.437387" lon="-4.045859">
        <ele>37.408</ele>
        <time>2019-06-16T16:37:39Z</time>
      </trkpt>
      <trkpt lat="43.437449" lon="-4.045844">
        <ele>37.167</ele>
        <time>2019-06-16T16:37:40Z</time>
      </trkpt>
      <trkpt lat="43.437508" lon="-4.045832">
        <ele>37.091</ele>
        <time>2019-06-16T16:37:41Z</time>
      </trkpt>
      <trkpt lat="43.437575" lon="-4.045825">
        <ele>36.841</ele>
        <time>2019-06-16T16:37:42Z</time>
      </trkpt>
      <trkpt lat="43.437649" lon="-4.045804">
        <ele>36.595</ele>
        <time>2019-06-16T16:37:43Z</time>
      </trkpt>
      <trkpt lat="43.437719" lon="-4.045789">
        <ele>36.354</ele>
        <time>2019-06-16T16:37:44Z</time>
      </trkpt>
      <trkpt lat="43.437784" lon="-4.045757">
        <ele>35.974</ele>
        <time>2019-06-16T16:37:45Z</time>
      </trkpt>
      <trkpt lat="43.437851" lon="-4.045739">
        <ele>36.030</ele>
        <time>2019-06-16T16:37:46Z</time>
      </trkpt>
      <trkpt lat="43.437927" lon="-4.045704">
        <ele>35.979</ele>
        <time>2019-06-16T16:37:47Z</time>
      </trkpt>
      <trkpt lat="43.438005" lon="-4.045654">
        <ele>35.851</ele>
        <time>2019-06-16T16:37:48Z</time>
      </trkpt>
      <trkpt lat="43.438074" lon="-4.045599">
        <ele>35.601</ele>
        <time>2019-06-16T16:37:49Z</time>
      </trkpt>
      <trkpt lat="43.438152" lon="-4.045539">
        <ele>35.611</ele>
        <time>2019-06-16T16:37:50Z</time>
      </trkpt>
      <trkpt lat="43.438224" lon="-4.045484">
        <ele>35.708</ele>
        <time>2019-06-16T16:37:51Z</time>
      </trkpt>
      <trkpt lat="43.438284" lon="-4.045447">
        <ele>35.928</ele>
        <time>2019-06-16T16:37:52Z</time>
      </trkpt>
      <trkpt lat="43.438357" lon="-4.045411">
        <ele>36.162</ele>
        <time>2019-06-16T16:37:53Z</time>
      </trkpt>
      <trkpt lat="43.438441" lon="-4.045362">
        <ele>36.332</ele>
        <time>2019-06-16T16:37:54Z</time>
      </trkpt>
      <trkpt lat="43.438518" lon="-4.045335">
        <ele>36.696</ele>
        <time>2019-06-16T16:37:55Z</time>
      </trkpt>
      <trkpt lat="43.438600" lon="-4.045293">
        <ele>37.095</ele>
        <time>2019-06-16T16:37:56Z</time>
      </trkpt>
      <trkpt lat="43.438675" lon="-4.045267">
        <ele>37.215</ele>
        <time>2019-06-16T16:37:57Z</time>
      </trkpt>
      <trkpt lat="43.438736" lon="-4.045237">
        <ele>37.251</ele>
        <time>2019-06-16T16:37:58Z</time>
      </trkpt>
      <trkpt lat="43.438797" lon="-4.045213">
        <ele>37.220</ele>
        <time>2019-06-16T16:37:59Z</time>
      </trkpt>
      <trkpt lat="43.438868" lon="-4.045185">
        <ele>37.372</ele>
        <time>2019-06-16T16:38:00Z</time>
      </trkpt>
      <trkpt lat="43.438931" lon="-4.045162">
        <ele>37.313</ele>
        <time>2019-06-16T16:38:01Z</time>
      </trkpt>
      <trkpt lat="43.439001" lon="-4.045135">
        <ele>37.414</ele>
        <time>2019-06-16T16:38:02Z</time>
      </trkpt>
      <trkpt lat="43.439068" lon="-4.045119">
        <ele>37.508</ele>
        <time>2019-06-16T16:38:03Z</time>
      </trkpt>
      <trkpt lat="43.439137" lon="-4.045090">
        <ele>37.560</ele>
        <time>2019-06-16T16:38:04Z</time>
      </trkpt>
      <trkpt lat="43.439202" lon="-4.045067">
        <ele>37.544</ele>
        <time>2019-06-16T16:38:05Z</time>
      </trkpt>
      <trkpt lat="43.439264" lon="-4.045040">
        <ele>37.264</ele>
        <time>2019-06-16T16:38:06Z</time>
      </trkpt>
      <trkpt lat="43.439332" lon="-4.045014">
        <ele>37.148</ele>
        <time>2019-06-16T16:38:07Z</time>
      </trkpt>
      <trkpt lat="43.439395" lon="-4.044981">
        <ele>36.957</ele>
        <time>2019-06-16T16:38:08Z</time>
      </trkpt>
      <trkpt lat="43.439459" lon="-4.044943">
        <ele>36.577</ele>
        <time>2019-06-16T16:38:09Z</time>
      </trkpt>
      <trkpt lat="43.439523" lon="-4.044912">
        <ele>36.123</ele>
        <time>2019-06-16T16:38:10Z</time>
      </trkpt>
      <trkpt lat="43.439597" lon="-4.044878">
        <ele>35.622</ele>
        <time>2019-06-16T16:38:11Z</time>
      </trkpt>
      <trkpt lat="43.439666" lon="-4.044840">
        <ele>35.022</ele>
        <time>2019-06-16T16:38:12Z</time>
      </trkpt>
      <trkpt lat="43.439746" lon="-4.044797">
        <ele>34.662</ele>
        <time>2019-06-16T16:38:13Z</time>
      </trkpt>
      <trkpt lat="43.439818" lon="-4.044751">
        <ele>34.608</ele>
        <time>2019-06-16T16:38:14Z</time>
      </trkpt>
      <trkpt lat="43.439885" lon="-4.044707">
        <ele>34.508</ele>
        <time>2019-06-16T16:38:15Z</time>
      </trkpt>
      <trkpt lat="43.439949" lon="-4.044674">
        <ele>34.415</ele>
        <time>2019-06-16T16:38:16Z</time>
      </trkpt>
      <trkpt lat="43.440012" lon="-4.044633">
        <ele>34.339</ele>
        <time>2019-06-16T16:38:17Z</time>
      </trkpt>
      <trkpt lat="43.440074" lon="-4.044594">
        <ele>34.169</ele>
        <time>2019-06-16T16:38:18Z</time>
      </trkpt>
      <trkpt lat="43.440132" lon="-4.044563">
        <ele>33.943</ele>
        <time>2019-06-16T16:38:19Z</time>
      </trkpt>
      <trkpt lat="43.440186" lon="-4.044529">
        <ele>33.912</ele>
        <time>2019-06-16T16:38:20Z</time>
      </trkpt>
      <trkpt lat="43.440239" lon="-4.044496">
        <ele>33.942</ele>
        <time>2019-06-16T16:38:21Z</time>
      </trkpt>
      <trkpt lat="43.440298" lon="-4.044471">
        <ele>34.028</ele>
        <time>2019-06-16T16:38:22Z</time>
      </trkpt>
      <trkpt lat="43.440369" lon="-4.044428">
        <ele>33.987</ele>
        <time>2019-06-16T16:38:23Z</time>
      </trkpt>
      <trkpt lat="43.440456" lon="-4.044373">
        <ele>33.558</ele>
        <time>2019-06-16T16:38:24Z</time>
      </trkpt>
      <trkpt lat="43.440547" lon="-4.044310">
        <ele>33.052</ele>
        <time>2019-06-16T16:38:25Z</time>
      </trkpt>
      <trkpt lat="43.440634" lon="-4.044228">
        <ele>32.317</ele>
        <time>2019-06-16T16:38:26Z</time>
      </trkpt>
      <trkpt lat="43.440725" lon="-4.044159">
        <ele>32.008</ele>
        <time>2019-06-16T16:38:27Z</time>
      </trkpt>
      <trkpt lat="43.440809" lon="-4.044096">
        <ele>31.718</ele>
        <time>2019-06-16T16:38:28Z</time>
      </trkpt>
      <trkpt lat="43.440908" lon="-4.044029">
        <ele>31.472</ele>
        <time>2019-06-16T16:38:29Z</time>
      </trkpt>
      <trkpt lat="43.440992" lon="-4.043965">
        <ele>31.492</ele>
        <time>2019-06-16T16:38:30Z</time>
      </trkpt>
      <trkpt lat="43.441070" lon="-4.043908">
        <ele>31.796</ele>
        <time>2019-06-16T16:38:31Z</time>
      </trkpt>
      <trkpt lat="43.441141" lon="-4.043849">
        <ele>32.095</ele>
        <time>2019-06-16T16:38:32Z</time>
      </trkpt>
      <trkpt lat="43.441204" lon="-4.043797">
        <ele>32.155</ele>
        <time>2019-06-16T16:38:33Z</time>
      </trkpt>
      <trkpt lat="43.441264" lon="-4.043744">
        <ele>32.341</ele>
        <time>2019-06-16T16:38:34Z</time>
      </trkpt>
      <trkpt lat="43.441301" lon="-4.043693">
        <ele>32.510</ele>
        <time>2019-06-16T16:38:35Z</time>
      </trkpt>
      <trkpt lat="43.441333" lon="-4.043643">
        <ele>32.698</ele>
        <time>2019-06-16T16:38:36Z</time>
      </trkpt>
      <trkpt lat="43.441366" lon="-4.043601">
        <ele>32.815</ele>
        <time>2019-06-16T16:38:37Z</time>
      </trkpt>
      <trkpt lat="43.441422" lon="-4.043540">
        <ele>32.626</ele>
        <time>2019-06-16T16:38:39Z</time>
      </trkpt>
      <trkpt lat="43.441450" lon="-4.043486">
        <ele>32.208</ele>
        <time>2019-06-16T16:38:43Z</time>
      </trkpt>
      <trkpt lat="43.441507" lon="-4.043485">
        <ele>31.952</ele>
        <time>2019-06-16T16:38:47Z</time>
      </trkpt>
      <trkpt lat="43.441560" lon="-4.043494">
        <ele>31.766</ele>
        <time>2019-06-16T16:38:48Z</time>
      </trkpt>
      <trkpt lat="43.441654" lon="-4.043501">
        <ele>31.366</ele>
        <time>2019-06-16T16:38:50Z</time>
      </trkpt>
      <trkpt lat="43.441736" lon="-4.043479">
        <ele>30.410</ele>
        <time>2019-06-16T16:38:52Z</time>
      </trkpt>
      <trkpt lat="43.441804" lon="-4.043523">
        <ele>29.989</ele>
        <time>2019-06-16T16:38:54Z</time>
      </trkpt>
      <trkpt lat="43.441847" lon="-4.043576">
        <ele>29.469</ele>
        <time>2019-06-16T16:38:56Z</time>
      </trkpt>
      <trkpt lat="43.441890" lon="-4.043597">
        <ele>28.845</ele>
        <time>2019-06-16T16:41:28Z</time>
      </trkpt>
      <trkpt lat="43.441846" lon="-4.043572">
        <ele>29.494</ele>
        <time>2019-06-16T16:43:06Z</time>
      </trkpt>
      <trkpt lat="43.441804" lon="-4.043531">
        <ele>29.942</ele>
        <time>2019-06-16T16:43:15Z</time>
      </trkpt>
      <trkpt lat="43.441720" lon="-4.043475">
        <ele>30.522</ele>
        <time>2019-06-16T16:43:17Z</time>
      </trkpt>
      <trkpt lat="43.441667" lon="-4.043457">
        <ele>30.914</ele>
        <time>2019-06-16T16:43:18Z</time>
      </trkpt>
      <trkpt lat="43.441612" lon="-4.043449">
        <ele>31.108</ele>
        <time>2019-06-16T16:43:19Z</time>
      </trkpt>
      <trkpt lat="43.441558" lon="-4.043449">
        <ele>31.547</ele>
        <time>2019-06-16T16:43:20Z</time>
      </trkpt>
      <trkpt lat="43.441486" lon="-4.043461">
        <ele>31.951</ele>
        <time>2019-06-16T16:43:22Z</time>
      </trkpt>
      <trkpt lat="43.441436" lon="-4.043479">
        <ele>32.341</ele>
        <time>2019-06-16T16:43:25Z</time>
      </trkpt>
      <trkpt lat="43.441391" lon="-4.043487">
        <ele>32.585</ele>
        <time>2019-06-16T16:43:27Z</time>
      </trkpt>
      <trkpt lat="43.441352" lon="-4.043540">
        <ele>32.454</ele>
        <time>2019-06-16T16:43:42Z</time>
      </trkpt>
      <trkpt lat="43.441346" lon="-4.043626">
        <ele>32.714</ele>
        <time>2019-06-16T16:43:44Z</time>
      </trkpt>
      <trkpt lat="43.441322" lon="-4.043732">
        <ele>32.670</ele>
        <time>2019-06-16T16:43:46Z</time>
      </trkpt>
      <trkpt lat="43.441294" lon="-4.043781">
        <ele>32.569</ele>
        <time>2019-06-16T16:43:47Z</time>
      </trkpt>
      <trkpt lat="43.441257" lon="-4.043823">
        <ele>32.476</ele>
        <time>2019-06-16T16:43:48Z</time>
      </trkpt>
      <trkpt lat="43.441217" lon="-4.043853">
        <ele>32.390</ele>
        <time>2019-06-16T16:43:49Z</time>
      </trkpt>
      <trkpt lat="43.441142" lon="-4.043895">
        <ele>32.119</ele>
        <time>2019-06-16T16:43:51Z</time>
      </trkpt>
      <trkpt lat="43.441072" lon="-4.043933">
        <ele>31.608</ele>
        <time>2019-06-16T16:43:53Z</time>
      </trkpt>
      <trkpt lat="43.441008" lon="-4.043979">
        <ele>31.380</ele>
        <time>2019-06-16T16:43:55Z</time>
      </trkpt>
      <trkpt lat="43.440953" lon="-4.044021">
        <ele>31.354</ele>
        <time>2019-06-16T16:43:57Z</time>
      </trkpt>
      <trkpt lat="43.440898" lon="-4.044047">
        <ele>31.484</ele>
        <time>2019-06-16T16:44:00Z</time>
      </trkpt>
      <trkpt lat="43.440838" lon="-4.044085">
        <ele>31.778</ele>
        <time>2019-06-16T16:44:09Z</time>
      </trkpt>
      <trkpt lat="43.440792" lon="-4.044101">
        <ele>31.777</ele>
        <time>2019-06-16T16:44:11Z</time>
      </trkpt>
      <trkpt lat="43.440740" lon="-4.044074">
        <ele>31.667</ele>
        <time>2019-06-16T16:44:21Z</time>
      </trkpt>
      <trkpt lat="43.440704" lon="-4.044134">
        <ele>31.883</ele>
        <time>2019-06-16T16:47:52Z</time>
      </trkpt>
      <trkpt lat="43.440664" lon="-4.044171">
        <ele>32.092</ele>
        <time>2019-06-16T16:47:53Z</time>
      </trkpt>
      <trkpt lat="43.440613" lon="-4.044219">
        <ele>32.331</ele>
        <time>2019-06-16T16:47:54Z</time>
      </trkpt>
      <trkpt lat="43.440555" lon="-4.044271">
        <ele>32.861</ele>
        <time>2019-06-16T16:47:55Z</time>
      </trkpt>
      <trkpt lat="43.440496" lon="-4.044320">
        <ele>33.107</ele>
        <time>2019-06-16T16:47:56Z</time>
      </trkpt>
      <trkpt lat="43.440427" lon="-4.044363">
        <ele>33.408</ele>
        <time>2019-06-16T16:47:57Z</time>
      </trkpt>
      <trkpt lat="43.440376" lon="-4.044409">
        <ele>33.776</ele>
        <time>2019-06-16T16:47:58Z</time>
      </trkpt>
      <trkpt lat="43.440321" lon="-4.044438">
        <ele>34.060</ele>
        <time>2019-06-16T16:47:59Z</time>
      </trkpt>
      <trkpt lat="43.440273" lon="-4.044476">
        <ele>34.020</ele>
        <time>2019-06-16T16:48:00Z</time>
      </trkpt>
      <trkpt lat="43.440225" lon="-4.044518">
        <ele>33.954</ele>
        <time>2019-06-16T16:48:01Z</time>
      </trkpt>
      <trkpt lat="43.440176" lon="-4.044560">
        <ele>33.913</ele>
        <time>2019-06-16T16:48:02Z</time>
      </trkpt>
      <trkpt lat="43.440115" lon="-4.044598">
        <ele>34.143</ele>
        <time>2019-06-16T16:48:03Z</time>
      </trkpt>
      <trkpt lat="43.440048" lon="-4.044644">
        <ele>34.489</ele>
        <time>2019-06-16T16:48:04Z</time>
      </trkpt>
      <trkpt lat="43.439990" lon="-4.044667">
        <ele>34.618</ele>
        <time>2019-06-16T16:48:05Z</time>
      </trkpt>
      <trkpt lat="43.439937" lon="-4.044705">
        <ele>34.617</ele>
        <time>2019-06-16T16:48:06Z</time>
      </trkpt>
      <trkpt lat="43.439885" lon="-4.044733">
        <ele>34.787</ele>
        <time>2019-06-16T16:48:07Z</time>
      </trkpt>
      <trkpt lat="43.439840" lon="-4.044777">
        <ele>34.815</ele>
        <time>2019-06-16T16:48:08Z</time>
      </trkpt>
      <trkpt lat="43.439788" lon="-4.044811">
        <ele>34.908</ele>
        <time>2019-06-16T16:48:09Z</time>
      </trkpt>
      <trkpt lat="43.439733" lon="-4.044855">
        <ele>35.064</ele>
        <time>2019-06-16T16:48:10Z</time>
      </trkpt>
      <trkpt lat="43.439680" lon="-4.044891">
        <ele>35.488</ele>
        <time>2019-06-16T16:48:11Z</time>
      </trkpt>
      <trkpt lat="43.439627" lon="-4.044929">
        <ele>35.868</ele>
        <time>2019-06-16T16:48:12Z</time>
      </trkpt>
      <trkpt lat="43.439568" lon="-4.044966">
        <ele>36.322</ele>
        <time>2019-06-16T16:48:13Z</time>
      </trkpt>
      <trkpt lat="43.439527" lon="-4.045008">
        <ele>36.781</ele>
        <time>2019-06-16T16:48:15Z</time>
      </trkpt>
      <trkpt lat="43.439501" lon="-4.045068">
        <ele>36.941</ele>
        <time>2019-06-16T16:48:59Z</time>
      </trkpt>
      <trkpt lat="43.439474" lon="-4.045129">
        <ele>37.387</ele>
        <time>2019-06-16T16:49:14Z</time>
      </trkpt>
      <trkpt lat="43.439461" lon="-4.045200">
        <ele>37.626</ele>
        <time>2019-06-16T16:49:19Z</time>
      </trkpt>
      <trkpt lat="43.439458" lon="-4.045265">
        <ele>37.883</ele>
        <time>2019-06-16T16:49:24Z</time>
      </trkpt>
      <trkpt lat="43.439454" lon="-4.045338">
        <ele>36.425</ele>
        <time>2019-06-16T16:49:29Z</time>
      </trkpt>
      <trkpt lat="43.439450" lon="-4.045401">
        <ele>34.917</ele>
        <time>2019-06-16T16:49:33Z</time>
      </trkpt>
      <trkpt lat="43.439431" lon="-4.045463">
        <ele>33.308</ele>
        <time>2019-06-16T16:49:38Z</time>
      </trkpt>
      <trkpt lat="43.439391" lon="-4.045431">
        <ele>34.041</ele>
        <time>2019-06-16T16:50:23Z</time>
      </trkpt>
      <trkpt lat="43.439434" lon="-4.045396">
        <ele>35.045</ele>
        <time>2019-06-16T16:53:12Z</time>
      </trkpt>
      <trkpt lat="43.439436" lon="-4.045332">
        <ele>36.665</ele>
        <time>2019-06-16T16:53:16Z</time>
      </trkpt>
      <trkpt lat="43.439435" lon="-4.045261">
        <ele>38.049</ele>
        <time>2019-06-16T16:53:21Z</time>
      </trkpt>
      <trkpt lat="43.439431" lon="-4.045198">
        <ele>37.738</ele>
        <time>2019-06-16T16:53:25Z</time>
      </trkpt>
      <trkpt lat="43.439438" lon="-4.045137">
        <ele>37.588</ele>
        <time>2019-06-16T16:53:31Z</time>
      </trkpt>
      <trkpt lat="43.439463" lon="-4.045079">
        <ele>37.284</ele>
        <time>2019-06-16T16:53:40Z</time>
      </trkpt>
      <trkpt lat="43.439511" lon="-4.045063">
        <ele>36.913</ele>
        <time>2019-06-16T16:53:45Z</time>
      </trkpt>
      <trkpt lat="43.439531" lon="-4.044997">
        <ele>36.753</ele>
        <time>2019-06-16T16:55:17Z</time>
      </trkpt>
      <trkpt lat="43.439547" lon="-4.045064">
        <ele>36.704</ele>
        <time>2019-06-16T16:55:35Z</time>
      </trkpt>
      <trkpt lat="43.439524" lon="-4.045003">
        <ele>36.714</ele>
        <time>2019-06-16T16:56:01Z</time>
      </trkpt>
      <trkpt lat="43.439539" lon="-4.044940">
        <ele>36.208</ele>
        <time>2019-06-16T16:56:07Z</time>
      </trkpt>
      <trkpt lat="43.439533" lon="-4.045015">
        <ele>36.768</ele>
        <time>2019-06-16T16:59:37Z</time>
      </trkpt>
      <trkpt lat="43.439537" lon="-4.044948">
        <ele>36.332</ele>
        <time>2019-06-16T16:59:45Z</time>
      </trkpt>
      <trkpt lat="43.439510" lon="-4.044898">
        <ele>36.052</ele>
        <time>2019-06-16T17:02:38Z</time>
      </trkpt>
      <trkpt lat="43.439476" lon="-4.044988">
        <ele>36.866</ele>
        <time>2019-06-16T17:04:43Z</time>
      </trkpt>
      <trkpt lat="43.439422" lon="-4.045029">
        <ele>37.175</ele>
        <time>2019-06-16T17:04:44Z</time>
      </trkpt>
      <trkpt lat="43.439355" lon="-4.045060">
        <ele>37.395</ele>
        <time>2019-06-16T17:04:45Z</time>
      </trkpt>
      <trkpt lat="43.439283" lon="-4.045083">
        <ele>37.561</ele>
        <time>2019-06-16T17:04:46Z</time>
      </trkpt>
      <trkpt lat="43.439206" lon="-4.045097">
        <ele>37.670</ele>
        <time>2019-06-16T17:04:47Z</time>
      </trkpt>
      <trkpt lat="43.439134" lon="-4.045099">
        <ele>37.645</ele>
        <time>2019-06-16T17:04:48Z</time>
      </trkpt>
      <trkpt lat="43.439049" lon="-4.045134">
        <ele>37.547</ele>
        <time>2019-06-16T17:04:49Z</time>
      </trkpt>
      <trkpt lat="43.438981" lon="-4.045169">
        <ele>37.511</ele>
        <time>2019-06-16T17:04:50Z</time>
      </trkpt>
      <trkpt lat="43.438923" lon="-4.045196">
        <ele>37.508</ele>
        <time>2019-06-16T17:04:51Z</time>
      </trkpt>
      <trkpt lat="43.438855" lon="-4.045210">
        <ele>37.477</ele>
        <time>2019-06-16T17:04:52Z</time>
      </trkpt>
      <trkpt lat="43.438792" lon="-4.045227">
        <ele>37.341</ele>
        <time>2019-06-16T17:04:53Z</time>
      </trkpt>
      <trkpt lat="43.438724" lon="-4.045248">
        <ele>37.271</ele>
        <time>2019-06-16T17:04:54Z</time>
      </trkpt>
      <trkpt lat="43.438658" lon="-4.045268">
        <ele>37.185</ele>
        <time>2019-06-16T17:04:55Z</time>
      </trkpt>
      <trkpt lat="43.438589" lon="-4.045295">
        <ele>36.984</ele>
        <time>2019-06-16T17:04:56Z</time>
      </trkpt>
      <trkpt lat="43.438519" lon="-4.045330">
        <ele>36.654</ele>
        <time>2019-06-16T17:04:57Z</time>
      </trkpt>
      <trkpt lat="43.438451" lon="-4.045363">
        <ele>36.310</ele>
        <time>2019-06-16T17:04:58Z</time>
      </trkpt>
      <trkpt lat="43.438380" lon="-4.045408">
        <ele>36.299</ele>
        <time>2019-06-16T17:04:59Z</time>
      </trkpt>
      <trkpt lat="43.438309" lon="-4.045465">
        <ele>36.214</ele>
        <time>2019-06-16T17:05:00Z</time>
      </trkpt>
      <trkpt lat="43.438244" lon="-4.045524">
        <ele>36.154</ele>
        <time>2019-06-16T17:05:01Z</time>
      </trkpt>
      <trkpt lat="43.438169" lon="-4.045559">
        <ele>35.809</ele>
        <time>2019-06-16T17:05:02Z</time>
      </trkpt>
      <trkpt lat="43.438089" lon="-4.045615">
        <ele>35.808</ele>
        <time>2019-06-16T17:05:03Z</time>
      </trkpt>
      <trkpt lat="43.438004" lon="-4.045662">
        <ele>35.934</ele>
        <time>2019-06-16T17:05:04Z</time>
      </trkpt>
      <trkpt lat="43.437919" lon="-4.045713">
        <ele>36.038</ele>
        <time>2019-06-16T17:05:05Z</time>
      </trkpt>
      <trkpt lat="43.437829" lon="-4.045751">
        <ele>36.158</ele>
        <time>2019-06-16T17:05:06Z</time>
      </trkpt>
      <trkpt lat="43.437742" lon="-4.045777">
        <ele>36.192</ele>
        <time>2019-06-16T17:05:07Z</time>
      </trkpt>
      <trkpt lat="43.437646" lon="-4.045809">
        <ele>36.671</ele>
        <time>2019-06-16T17:05:08Z</time>
      </trkpt>
      <trkpt lat="43.437564" lon="-4.045833">
        <ele>37.061</ele>
        <time>2019-06-16T17:05:09Z</time>
      </trkpt>
      <trkpt lat="43.437490" lon="-4.045843">
        <ele>37.157</ele>
        <time>2019-06-16T17:05:10Z</time>
      </trkpt>
      <trkpt lat="43.437413" lon="-4.045870">
        <ele>37.596</ele>
        <time>2019-06-16T17:05:11Z</time>
      </trkpt>
      <trkpt lat="43.437335" lon="-4.045883">
        <ele>37.734</ele>
        <time>2019-06-16T17:05:12Z</time>
      </trkpt>
      <trkpt lat="43.437254" lon="-4.045899">
        <ele>38.155</ele>
        <time>2019-06-16T17:05:13Z</time>
      </trkpt>
      <trkpt lat="43.437170" lon="-4.045903">
        <ele>38.310</ele>
        <time>2019-06-16T17:05:14Z</time>
      </trkpt>
      <trkpt lat="43.437087" lon="-4.045922">
        <ele>38.808</ele>
        <time>2019-06-16T17:05:15Z</time>
      </trkpt>
      <trkpt lat="43.437002" lon="-4.045931">
        <ele>39.076</ele>
        <time>2019-06-16T17:05:16Z</time>
      </trkpt>
      <trkpt lat="43.436910" lon="-4.045944">
        <ele>39.470</ele>
        <time>2019-06-16T17:05:17Z</time>
      </trkpt>
      <trkpt lat="43.436822" lon="-4.045930">
        <ele>39.120</ele>
        <time>2019-06-16T17:05:18Z</time>
      </trkpt>
      <trkpt lat="43.436741" lon="-4.045925">
        <ele>39.044</ele>
        <time>2019-06-16T17:05:19Z</time>
      </trkpt>
      <trkpt lat="43.436660" lon="-4.045928">
        <ele>39.023</ele>
        <time>2019-06-16T17:05:20Z</time>
      </trkpt>
      <trkpt lat="43.436580" lon="-4.045932">
        <ele>38.133</ele>
        <time>2019-06-16T17:05:21Z</time>
      </trkpt>
      <trkpt lat="43.436504" lon="-4.045938">
        <ele>37.439</ele>
        <time>2019-06-16T17:05:22Z</time>
      </trkpt>
      <trkpt lat="43.436423" lon="-4.045948">
        <ele>36.778</ele>
        <time>2019-06-16T17:05:23Z</time>
      </trkpt>
      <trkpt lat="43.436342" lon="-4.045954">
        <ele>36.055</ele>
        <time>2019-06-16T17:05:24Z</time>
      </trkpt>
      <trkpt lat="43.436263" lon="-4.045960">
        <ele>35.407</ele>
        <time>2019-06-16T17:05:25Z</time>
      </trkpt>
      <trkpt lat="43.436191" lon="-4.045977">
        <ele>35.017</ele>
        <time>2019-06-16T17:05:26Z</time>
      </trkpt>
      <trkpt lat="43.436120" lon="-4.046018">
        <ele>34.808</ele>
        <time>2019-06-16T17:05:27Z</time>
      </trkpt>
      <trkpt lat="43.436049" lon="-4.046067">
        <ele>34.178</ele>
        <time>2019-06-16T17:05:28Z</time>
      </trkpt>
      <trkpt lat="43.435986" lon="-4.046139">
        <ele>33.722</ele>
        <time>2019-06-16T17:05:29Z</time>
      </trkpt>
      <trkpt lat="43.435917" lon="-4.046196">
        <ele>33.282</ele>
        <time>2019-06-16T17:05:30Z</time>
      </trkpt>
      <trkpt lat="43.435845" lon="-4.046234">
        <ele>32.496</ele>
        <time>2019-06-16T17:05:31Z</time>
      </trkpt>
      <trkpt lat="43.435768" lon="-4.046250">
        <ele>33.065</ele>
        <time>2019-06-16T17:05:32Z</time>
      </trkpt>
      <trkpt lat="43.435714" lon="-4.046242">
        <ele>33.215</ele>
        <time>2019-06-16T17:05:33Z</time>
      </trkpt>
      <trkpt lat="43.435652" lon="-4.046188">
        <ele>32.711</ele>
        <time>2019-06-16T17:05:34Z</time>
      </trkpt>
      <trkpt lat="43.435591" lon="-4.046116">
        <ele>31.890</ele>
        <time>2019-06-16T17:05:35Z</time>
      </trkpt>
      <trkpt lat="43.435547" lon="-4.046024">
        <ele>30.886</ele>
        <time>2019-06-16T17:05:36Z</time>
      </trkpt>
      <trkpt lat="43.435494" lon="-4.045933">
        <ele>29.660</ele>
        <time>2019-06-16T17:05:37Z</time>
      </trkpt>
      <trkpt lat="43.435439" lon="-4.045853">
        <ele>28.726</ele>
        <time>2019-06-16T17:05:38Z</time>
      </trkpt>
      <trkpt lat="43.435367" lon="-4.045794">
        <ele>27.808</ele>
        <time>2019-06-16T17:05:39Z</time>
      </trkpt>
      <trkpt lat="43.435290" lon="-4.045762">
        <ele>27.271</ele>
        <time>2019-06-16T17:05:40Z</time>
      </trkpt>
      <trkpt lat="43.435205" lon="-4.045748">
        <ele>26.245</ele>
        <time>2019-06-16T17:05:41Z</time>
      </trkpt>
      <trkpt lat="43.435121" lon="-4.045743">
        <ele>25.415</ele>
        <time>2019-06-16T17:05:42Z</time>
      </trkpt>
      <trkpt lat="43.435038" lon="-4.045751">
        <ele>24.839</ele>
        <time>2019-06-16T17:05:43Z</time>
      </trkpt>
      <trkpt lat="43.434962" lon="-4.045774">
        <ele>24.658</ele>
        <time>2019-06-16T17:05:44Z</time>
      </trkpt>
      <trkpt lat="43.434881" lon="-4.045828">
        <ele>24.628</ele>
        <time>2019-06-16T17:05:45Z</time>
      </trkpt>
      <trkpt lat="43.434818" lon="-4.045879">
        <ele>24.424</ele>
        <time>2019-06-16T17:05:46Z</time>
      </trkpt>
      <trkpt lat="43.434766" lon="-4.045942">
        <ele>24.363</ele>
        <time>2019-06-16T17:05:47Z</time>
      </trkpt>
      <trkpt lat="43.434717" lon="-4.046024">
        <ele>24.356</ele>
        <time>2019-06-16T17:05:48Z</time>
      </trkpt>
      <trkpt lat="43.434694" lon="-4.046118">
        <ele>24.659</ele>
        <time>2019-06-16T17:05:49Z</time>
      </trkpt>
      <trkpt lat="43.434675" lon="-4.046219">
        <ele>25.114</ele>
        <time>2019-06-16T17:05:50Z</time>
      </trkpt>
      <trkpt lat="43.434669" lon="-4.046334">
        <ele>25.808</ele>
        <time>2019-06-16T17:05:51Z</time>
      </trkpt>
      <trkpt lat="43.434660" lon="-4.046477">
        <ele>26.418</ele>
        <time>2019-06-16T17:05:52Z</time>
      </trkpt>
      <trkpt lat="43.434663" lon="-4.046624">
        <ele>27.062</ele>
        <time>2019-06-16T17:05:53Z</time>
      </trkpt>
      <trkpt lat="43.434669" lon="-4.046775">
        <ele>28.122</ele>
        <time>2019-06-16T17:05:54Z</time>
      </trkpt>
      <trkpt lat="43.434657" lon="-4.046930">
        <ele>29.246</ele>
        <time>2019-06-16T17:05:55Z</time>
      </trkpt>
      <trkpt lat="43.434642" lon="-4.047090">
        <ele>29.755</ele>
        <time>2019-06-16T17:05:56Z</time>
      </trkpt>
      <trkpt lat="43.434622" lon="-4.047248">
        <ele>30.165</ele>
        <time>2019-06-16T17:05:57Z</time>
      </trkpt>
      <trkpt lat="43.434584" lon="-4.047417">
        <ele>30.911</ele>
        <time>2019-06-16T17:05:58Z</time>
      </trkpt>
      <trkpt lat="43.434557" lon="-4.047578">
        <ele>31.930</ele>
        <time>2019-06-16T17:05:59Z</time>
      </trkpt>
      <trkpt lat="43.434529" lon="-4.047736">
        <ele>32.959</ele>
        <time>2019-06-16T17:06:00Z</time>
      </trkpt>
      <trkpt lat="43.434513" lon="-4.047896">
        <ele>33.103</ele>
        <time>2019-06-16T17:06:01Z</time>
      </trkpt>
      <trkpt lat="43.434505" lon="-4.048055">
        <ele>33.123</ele>
        <time>2019-06-16T17:06:02Z</time>
      </trkpt>
      <trkpt lat="43.434551" lon="-4.048238">
        <ele>35.208</ele>
        <time>2019-06-16T17:06:03Z</time>
      </trkpt>
      <trkpt lat="43.434547" lon="-4.048397">
        <ele>36.358</ele>
        <time>2019-06-16T17:06:04Z</time>
      </trkpt>
      <trkpt lat="43.434555" lon="-4.048565">
        <ele>37.712</ele>
        <time>2019-06-16T17:06:05Z</time>
      </trkpt>
      <trkpt lat="43.434536" lon="-4.048689">
        <ele>38.032</ele>
        <time>2019-06-16T17:06:06Z</time>
      </trkpt>
      <trkpt lat="43.434526" lon="-4.048819">
        <ele>38.426</ele>
        <time>2019-06-16T17:06:07Z</time>
      </trkpt>
      <trkpt lat="43.434516" lon="-4.048978">
        <ele>38.965</ele>
        <time>2019-06-16T17:06:08Z</time>
      </trkpt>
      <trkpt lat="43.434513" lon="-4.049149">
        <ele>39.415</ele>
        <time>2019-06-16T17:06:09Z</time>
      </trkpt>
      <trkpt lat="43.434502" lon="-4.049330">
        <ele>40.081</ele>
        <time>2019-06-16T17:06:10Z</time>
      </trkpt>
      <trkpt lat="43.434489" lon="-4.049523">
        <ele>40.320</ele>
        <time>2019-06-16T17:06:11Z</time>
      </trkpt>
      <trkpt lat="43.434480" lon="-4.049723">
        <ele>40.699</ele>
        <time>2019-06-16T17:06:12Z</time>
      </trkpt>
      <trkpt lat="43.434477" lon="-4.049920">
        <ele>41.407</ele>
        <time>2019-06-16T17:06:13Z</time>
      </trkpt>
      <trkpt lat="43.434483" lon="-4.050120">
        <ele>42.727</ele>
        <time>2019-06-16T17:06:14Z</time>
      </trkpt>
      <trkpt lat="43.434488" lon="-4.050317">
        <ele>43.908</ele>
        <time>2019-06-16T17:06:15Z</time>
      </trkpt>
      <trkpt lat="43.434497" lon="-4.050526">
        <ele>44.042</ele>
        <time>2019-06-16T17:06:16Z</time>
      </trkpt>
      <trkpt lat="43.434503" lon="-4.050726">
        <ele>44.716</ele>
        <time>2019-06-16T17:06:17Z</time>
      </trkpt>
      <trkpt lat="43.434492" lon="-4.050902">
        <ele>45.146</ele>
        <time>2019-06-16T17:06:18Z</time>
      </trkpt>
      <trkpt lat="43.434477" lon="-4.051078">
        <ele>45.520</ele>
        <time>2019-06-16T17:06:19Z</time>
      </trkpt>
      <trkpt lat="43.434424" lon="-4.051253">
        <ele>45.159</ele>
        <time>2019-06-16T17:06:20Z</time>
      </trkpt>
      <trkpt lat="43.434357" lon="-4.051419">
        <ele>44.599</ele>
        <time>2019-06-16T17:06:21Z</time>
      </trkpt>
      <trkpt lat="43.434289" lon="-4.051582">
        <ele>43.995</ele>
        <time>2019-06-16T17:06:22Z</time>
      </trkpt>
      <trkpt lat="43.434215" lon="-4.051745">
        <ele>42.924</ele>
        <time>2019-06-16T17:06:23Z</time>
      </trkpt>
      <trkpt lat="43.434142" lon="-4.051918">
        <ele>41.638</ele>
        <time>2019-06-16T17:06:24Z</time>
      </trkpt>
      <trkpt lat="43.434060" lon="-4.052095">
        <ele>41.070</ele>
        <time>2019-06-16T17:06:25Z</time>
      </trkpt>
      <trkpt lat="43.433983" lon="-4.052272">
        <ele>40.517</ele>
        <time>2019-06-16T17:06:26Z</time>
      </trkpt>
      <trkpt lat="43.433912" lon="-4.052449">
        <ele>40.108</ele>
        <time>2019-06-16T17:06:27Z</time>
      </trkpt>
      <trkpt lat="43.433848" lon="-4.052623">
        <ele>39.936</ele>
        <time>2019-06-16T17:06:28Z</time>
      </trkpt>
      <trkpt lat="43.433781" lon="-4.052785">
        <ele>39.670</ele>
        <time>2019-06-16T17:06:29Z</time>
      </trkpt>
      <trkpt lat="43.433709" lon="-4.052941">
        <ele>39.420</ele>
        <time>2019-06-16T17:06:30Z</time>
      </trkpt>
      <trkpt lat="43.433628" lon="-4.053058">
        <ele>39.184</ele>
        <time>2019-06-16T17:06:31Z</time>
      </trkpt>
      <trkpt lat="43.433530" lon="-4.053168">
        <ele>38.223</ele>
        <time>2019-06-16T17:06:32Z</time>
      </trkpt>
      <trkpt lat="43.433444" lon="-4.053283">
        <ele>38.083</ele>
        <time>2019-06-16T17:06:33Z</time>
      </trkpt>
      <trkpt lat="43.433365" lon="-4.053418">
        <ele>37.729</ele>
        <time>2019-06-16T17:06:34Z</time>
      </trkpt>
      <trkpt lat="43.433309" lon="-4.053566">
        <ele>37.178</ele>
        <time>2019-06-16T17:06:35Z</time>
      </trkpt>
      <trkpt lat="43.433278" lon="-4.053719">
        <ele>36.846</ele>
        <time>2019-06-16T17:06:36Z</time>
      </trkpt>
      <trkpt lat="43.433247" lon="-4.053866">
        <ele>36.788</ele>
        <time>2019-06-16T17:06:37Z</time>
      </trkpt>
      <trkpt lat="43.433204" lon="-4.054014">
        <ele>36.716</ele>
        <time>2019-06-16T17:06:38Z</time>
      </trkpt>
      <trkpt lat="43.433173" lon="-4.054149">
        <ele>37.008</ele>
        <time>2019-06-16T17:06:39Z</time>
      </trkpt>
      <trkpt lat="43.433139" lon="-4.054296">
        <ele>36.937</ele>
        <time>2019-06-16T17:06:40Z</time>
      </trkpt>
      <trkpt lat="43.433114" lon="-4.054455">
        <ele>36.831</ele>
        <time>2019-06-16T17:06:41Z</time>
      </trkpt>
      <trkpt lat="43.433106" lon="-4.054616">
        <ele>37.221</ele>
        <time>2019-06-16T17:06:42Z</time>
      </trkpt>
      <trkpt lat="43.433114" lon="-4.054808">
        <ele>37.445</ele>
        <time>2019-06-16T17:06:43Z</time>
      </trkpt>
      <trkpt lat="43.433132" lon="-4.054997">
        <ele>37.134</ele>
        <time>2019-06-16T17:06:44Z</time>
      </trkpt>
      <trkpt lat="43.433143" lon="-4.055168">
        <ele>36.914</ele>
        <time>2019-06-16T17:06:45Z</time>
      </trkpt>
      <trkpt lat="43.433134" lon="-4.055354">
        <ele>37.190</ele>
        <time>2019-06-16T17:06:46Z</time>
      </trkpt>
      <trkpt lat="43.433107" lon="-4.055522">
        <ele>38.339</ele>
        <time>2019-06-16T17:06:47Z</time>
      </trkpt>
      <trkpt lat="43.433073" lon="-4.055713">
        <ele>40.492</ele>
        <time>2019-06-16T17:06:48Z</time>
      </trkpt>
      <trkpt lat="43.433023" lon="-4.055885">
        <ele>41.673</ele>
        <time>2019-06-16T17:06:49Z</time>
      </trkpt>
      <trkpt lat="43.432970" lon="-4.056077">
        <ele>40.820</ele>
        <time>2019-06-16T17:06:50Z</time>
      </trkpt>
      <trkpt lat="43.432912" lon="-4.056250">
        <ele>40.608</ele>
        <time>2019-06-16T17:06:51Z</time>
      </trkpt>
      <trkpt lat="43.432854" lon="-4.056410">
        <ele>41.942</ele>
        <time>2019-06-16T17:06:52Z</time>
      </trkpt>
      <trkpt lat="43.432791" lon="-4.056558">
        <ele>44.496</ele>
        <time>2019-06-16T17:06:53Z</time>
      </trkpt>
      <trkpt lat="43.432732" lon="-4.056686">
        <ele>45.346</ele>
        <time>2019-06-16T17:06:54Z</time>
      </trkpt>
      <trkpt lat="43.432670" lon="-4.056808">
        <ele>45.840</ele>
        <time>2019-06-16T17:06:55Z</time>
      </trkpt>
      <trkpt lat="43.432609" lon="-4.056916">
        <ele>46.259</ele>
        <time>2019-06-16T17:06:56Z</time>
      </trkpt>
      <trkpt lat="43.432548" lon="-4.057024">
        <ele>46.969</ele>
        <time>2019-06-16T17:06:57Z</time>
      </trkpt>
      <trkpt lat="43.432480" lon="-4.057126">
        <ele>47.895</ele>
        <time>2019-06-16T17:06:58Z</time>
      </trkpt>
      <trkpt lat="43.432410" lon="-4.057234">
        <ele>48.674</ele>
        <time>2019-06-16T17:06:59Z</time>
      </trkpt>
      <trkpt lat="43.432333" lon="-4.057339">
        <ele>48.858</ele>
        <time>2019-06-16T17:07:00Z</time>
      </trkpt>
      <trkpt lat="43.432260" lon="-4.057447">
        <ele>48.952</ele>
        <time>2019-06-16T17:07:01Z</time>
      </trkpt>
      <trkpt lat="43.432175" lon="-4.057544">
        <ele>49.017</ele>
        <time>2019-06-16T17:07:02Z</time>
      </trkpt>
      <trkpt lat="43.432084" lon="-4.057653">
        <ele>48.908</ele>
        <time>2019-06-16T17:07:03Z</time>
      </trkpt>
      <trkpt lat="43.431987" lon="-4.057759">
        <ele>48.928</ele>
        <time>2019-06-16T17:07:04Z</time>
      </trkpt>
      <trkpt lat="43.431896" lon="-4.057853">
        <ele>49.332</ele>
        <time>2019-06-16T17:07:05Z</time>
      </trkpt>
      <trkpt lat="43.431800" lon="-4.057928">
        <ele>50.062</ele>
        <time>2019-06-16T17:07:06Z</time>
      </trkpt>
      <trkpt lat="43.431707" lon="-4.058006">
        <ele>50.726</ele>
        <time>2019-06-16T17:07:07Z</time>
      </trkpt>
      <trkpt lat="43.431618" lon="-4.058073">
        <ele>51.125</ele>
        <time>2019-06-16T17:07:08Z</time>
      </trkpt>
      <trkpt lat="43.431531" lon="-4.058148">
        <ele>51.065</ele>
        <time>2019-06-16T17:07:09Z</time>
      </trkpt>
      <trkpt lat="43.431439" lon="-4.058203">
        <ele>51.281</ele>
        <time>2019-06-16T17:07:10Z</time>
      </trkpt>
      <trkpt lat="43.431351" lon="-4.058258">
        <ele>51.450</ele>
        <time>2019-06-16T17:07:11Z</time>
      </trkpt>
      <trkpt lat="43.431267" lon="-4.058299">
        <ele>51.542</ele>
        <time>2019-06-16T17:07:12Z</time>
      </trkpt>
      <trkpt lat="43.431188" lon="-4.058352">
        <ele>51.622</ele>
        <time>2019-06-16T17:07:13Z</time>
      </trkpt>
      <trkpt lat="43.431112" lon="-4.058412">
        <ele>51.414</ele>
        <time>2019-06-16T17:07:14Z</time>
      </trkpt>
      <trkpt lat="43.431032" lon="-4.058492">
        <ele>51.208</ele>
        <time>2019-06-16T17:07:15Z</time>
      </trkpt>
      <trkpt lat="43.430963" lon="-4.058580">
        <ele>51.237</ele>
        <time>2019-06-16T17:07:16Z</time>
      </trkpt>
      <trkpt lat="43.430890" lon="-4.058690">
        <ele>51.541</ele>
        <time>2019-06-16T17:07:17Z</time>
      </trkpt>
      <trkpt lat="43.430825" lon="-4.058808">
        <ele>52.051</ele>
        <time>2019-06-16T17:07:18Z</time>
      </trkpt>
      <trkpt lat="43.430756" lon="-4.058930">
        <ele>52.025</ele>
        <time>2019-06-16T17:07:19Z</time>
      </trkpt>
      <trkpt lat="43.430697" lon="-4.059053">
        <ele>52.054</ele>
        <time>2019-06-16T17:07:20Z</time>
      </trkpt>
      <trkpt lat="43.430629" lon="-4.059186">
        <ele>52.024</ele>
        <time>2019-06-16T17:07:21Z</time>
      </trkpt>
      <trkpt lat="43.430551" lon="-4.059316">
        <ele>52.070</ele>
        <time>2019-06-16T17:07:22Z</time>
      </trkpt>
      <trkpt lat="43.430468" lon="-4.059433">
        <ele>52.329</ele>
        <time>2019-06-16T17:07:23Z</time>
      </trkpt>
      <trkpt lat="43.430382" lon="-4.059531">
        <ele>51.922</ele>
        <time>2019-06-16T17:07:24Z</time>
      </trkpt>
      <trkpt lat="43.430298" lon="-4.059618">
        <ele>51.662</ele>
        <time>2019-06-16T17:07:25Z</time>
      </trkpt>
      <trkpt lat="43.430203" lon="-4.059693">
        <ele>51.508</ele>
        <time>2019-06-16T17:07:26Z</time>
      </trkpt>
      <trkpt lat="43.430115" lon="-4.059769">
        <ele>51.408</ele>
        <time>2019-06-16T17:07:27Z</time>
      </trkpt>
      <trkpt lat="43.430038" lon="-4.059840">
        <ele>51.425</ele>
        <time>2019-06-16T17:07:28Z</time>
      </trkpt>
      <trkpt lat="43.429972" lon="-4.059906">
        <ele>51.539</ele>
        <time>2019-06-16T17:07:29Z</time>
      </trkpt>
      <trkpt lat="43.429912" lon="-4.060010">
        <ele>51.349</ele>
        <time>2019-06-16T17:07:30Z</time>
      </trkpt>
      <trkpt lat="43.429868" lon="-4.060136">
        <ele>51.063</ele>
        <time>2019-06-16T17:07:31Z</time>
      </trkpt>
      <trkpt lat="43.429850" lon="-4.060280">
        <ele>50.562</ele>
        <time>2019-06-16T17:07:32Z</time>
      </trkpt>
      <trkpt lat="43.429848" lon="-4.060432">
        <ele>50.262</ele>
        <time>2019-06-16T17:07:33Z</time>
      </trkpt>
      <trkpt lat="43.429854" lon="-4.060615">
        <ele>49.798</ele>
        <time>2019-06-16T17:07:34Z</time>
      </trkpt>
      <trkpt lat="43.429865" lon="-4.060811">
        <ele>48.617</ele>
        <time>2019-06-16T17:07:35Z</time>
      </trkpt>
      <trkpt lat="43.429876" lon="-4.061015">
        <ele>48.319</ele>
        <time>2019-06-16T17:07:36Z</time>
      </trkpt>
      <trkpt lat="43.429887" lon="-4.061215">
        <ele>48.309</ele>
        <time>2019-06-16T17:07:37Z</time>
      </trkpt>
      <trkpt lat="43.429906" lon="-4.061398">
        <ele>48.719</ele>
        <time>2019-06-16T17:07:38Z</time>
      </trkpt>
      <trkpt lat="43.429925" lon="-4.061585">
        <ele>48.908</ele>
        <time>2019-06-16T17:07:39Z</time>
      </trkpt>
      <trkpt lat="43.429933" lon="-4.061764">
        <ele>49.324</ele>
        <time>2019-06-16T17:07:40Z</time>
      </trkpt>
      <trkpt lat="43.429953" lon="-4.061962">
        <ele>49.848</ele>
        <time>2019-06-16T17:07:41Z</time>
      </trkpt>
      <trkpt lat="43.429975" lon="-4.062147">
        <ele>49.838</ele>
        <time>2019-06-16T17:07:42Z</time>
      </trkpt>
      <trkpt lat="43.429996" lon="-4.062349">
        <ele>50.052</ele>
        <time>2019-06-16T17:07:43Z</time>
      </trkpt>
      <trkpt lat="43.430012" lon="-4.062554">
        <ele>50.221</ele>
        <time>2019-06-16T17:07:44Z</time>
      </trkpt>
      <trkpt lat="43.430019" lon="-4.062758">
        <ele>50.961</ele>
        <time>2019-06-16T17:07:45Z</time>
      </trkpt>
      <trkpt lat="43.430009" lon="-4.062947">
        <ele>51.637</ele>
        <time>2019-06-16T17:07:46Z</time>
      </trkpt>
      <trkpt lat="43.429987" lon="-4.063149">
        <ele>52.326</ele>
        <time>2019-06-16T17:07:47Z</time>
      </trkpt>
      <trkpt lat="43.429946" lon="-4.063332">
        <ele>53.079</ele>
        <time>2019-06-16T17:07:48Z</time>
      </trkpt>
      <trkpt lat="43.429882" lon="-4.063501">
        <ele>53.305</ele>
        <time>2019-06-16T17:07:49Z</time>
      </trkpt>
      <trkpt lat="43.429789" lon="-4.063660">
        <ele>53.925</ele>
        <time>2019-06-16T17:07:50Z</time>
      </trkpt>
      <trkpt lat="43.429709" lon="-4.063826">
        <ele>54.808</ele>
        <time>2019-06-16T17:07:51Z</time>
      </trkpt>
      <trkpt lat="43.429595" lon="-4.063982">
        <ele>55.970</ele>
        <time>2019-06-16T17:07:52Z</time>
      </trkpt>
      <trkpt lat="43.429479" lon="-4.064144">
        <ele>57.624</ele>
        <time>2019-06-16T17:07:53Z</time>
      </trkpt>
      <trkpt lat="43.429349" lon="-4.064291">
        <ele>58.884</ele>
        <time>2019-06-16T17:07:54Z</time>
      </trkpt>
      <trkpt lat="43.429215" lon="-4.064415">
        <ele>60.468</ele>
        <time>2019-06-16T17:07:55Z</time>
      </trkpt>
      <trkpt lat="43.429078" lon="-4.064529">
        <ele>61.477</ele>
        <time>2019-06-16T17:07:56Z</time>
      </trkpt>
      <trkpt lat="43.428951" lon="-4.064649">
        <ele>62.327</ele>
        <time>2019-06-16T17:07:57Z</time>
      </trkpt>
      <trkpt lat="43.428834" lon="-4.064747">
        <ele>63.113</ele>
        <time>2019-06-16T17:07:58Z</time>
      </trkpt>
      <trkpt lat="43.428720" lon="-4.064835">
        <ele>63.712</ele>
        <time>2019-06-16T17:07:59Z</time>
      </trkpt>
      <trkpt lat="43.428602" lon="-4.064938">
        <ele>64.557</ele>
        <time>2019-06-16T17:08:00Z</time>
      </trkpt>
      <trkpt lat="43.428474" lon="-4.065041">
        <ele>65.300</ele>
        <time>2019-06-16T17:08:01Z</time>
      </trkpt>
      <trkpt lat="43.428356" lon="-4.065161">
        <ele>66.220</ele>
        <time>2019-06-16T17:08:02Z</time>
      </trkpt>
      <trkpt lat="43.428216" lon="-4.065270">
        <ele>66.908</ele>
        <time>2019-06-16T17:08:03Z</time>
      </trkpt>
      <trkpt lat="43.428076" lon="-4.065381">
        <ele>67.798</ele>
        <time>2019-06-16T17:08:04Z</time>
      </trkpt>
      <trkpt lat="43.427949" lon="-4.065473">
        <ele>68.772</ele>
        <time>2019-06-16T17:08:05Z</time>
      </trkpt>
      <trkpt lat="43.427832" lon="-4.065595">
        <ele>69.962</ele>
        <time>2019-06-16T17:08:06Z</time>
      </trkpt>
      <trkpt lat="43.427736" lon="-4.065716">
        <ele>70.466</ele>
        <time>2019-06-16T17:08:07Z</time>
      </trkpt>
      <trkpt lat="43.427649" lon="-4.065867">
        <ele>70.775</ele>
        <time>2019-06-16T17:08:08Z</time>
      </trkpt>
      <trkpt lat="43.427572" lon="-4.066050">
        <ele>71.055</ele>
        <time>2019-06-16T17:08:09Z</time>
      </trkpt>
      <trkpt lat="43.427510" lon="-4.066252">
        <ele>72.011</ele>
        <time>2019-06-16T17:08:10Z</time>
      </trkpt>
      <trkpt lat="43.427450" lon="-4.066458">
        <ele>73.030</ele>
        <time>2019-06-16T17:08:11Z</time>
      </trkpt>
      <trkpt lat="43.427377" lon="-4.066661">
        <ele>73.494</ele>
        <time>2019-06-16T17:08:12Z</time>
      </trkpt>
      <trkpt lat="43.427317" lon="-4.066874">
        <ele>74.457</ele>
        <time>2019-06-16T17:08:13Z</time>
      </trkpt>
      <trkpt lat="43.427269" lon="-4.067104">
        <ele>75.322</ele>
        <time>2019-06-16T17:08:14Z</time>
      </trkpt>
      <trkpt lat="43.427227" lon="-4.067341">
        <ele>76.008</ele>
        <time>2019-06-16T17:08:15Z</time>
      </trkpt>
      <trkpt lat="43.427207" lon="-4.067598">
        <ele>75.932</ele>
        <time>2019-06-16T17:08:16Z</time>
      </trkpt>
      <trkpt lat="43.427189" lon="-4.067853">
        <ele>75.696</ele>
        <time>2019-06-16T17:08:17Z</time>
      </trkpt>
      <trkpt lat="43.427173" lon="-4.068105">
        <ele>74.846</ele>
        <time>2019-06-16T17:08:18Z</time>
      </trkpt>
      <trkpt lat="43.427167" lon="-4.068358">
        <ele>74.390</ele>
        <time>2019-06-16T17:08:19Z</time>
      </trkpt>
      <trkpt lat="43.427160" lon="-4.068604">
        <ele>72.759</ele>
        <time>2019-06-16T17:08:20Z</time>
      </trkpt>
      <trkpt lat="43.427149" lon="-4.068854">
        <ele>72.259</ele>
        <time>2019-06-16T17:08:21Z</time>
      </trkpt>
      <trkpt lat="43.427122" lon="-4.069096">
        <ele>72.265</ele>
        <time>2019-06-16T17:08:22Z</time>
      </trkpt>
      <trkpt lat="43.427071" lon="-4.069329">
        <ele>71.694</ele>
        <time>2019-06-16T17:08:23Z</time>
      </trkpt>
      <trkpt lat="43.427007" lon="-4.069554">
        <ele>71.425</ele>
        <time>2019-06-16T17:08:24Z</time>
      </trkpt>
      <trkpt lat="43.426927" lon="-4.069770">
        <ele>71.826</ele>
        <time>2019-06-16T17:08:25Z</time>
      </trkpt>
      <trkpt lat="43.426849" lon="-4.069977">
        <ele>71.308</ele>
        <time>2019-06-16T17:08:26Z</time>
      </trkpt>
      <trkpt lat="43.426774" lon="-4.070167">
        <ele>71.908</ele>
        <time>2019-06-16T17:08:27Z</time>
      </trkpt>
      <trkpt lat="43.426708" lon="-4.070334">
        <ele>72.935</ele>
        <time>2019-06-16T17:08:28Z</time>
      </trkpt>
      <trkpt lat="43.426646" lon="-4.070482">
        <ele>73.019</ele>
        <time>2019-06-16T17:08:29Z</time>
      </trkpt>
      <trkpt lat="43.426604" lon="-4.070609">
        <ele>73.249</ele>
        <time>2019-06-16T17:08:30Z</time>
      </trkpt>
      <trkpt lat="43.426557" lon="-4.070707">
        <ele>73.513</ele>
        <time>2019-06-16T17:08:31Z</time>
      </trkpt>
      <trkpt lat="43.426515" lon="-4.070807">
        <ele>73.952</ele>
        <time>2019-06-16T17:08:32Z</time>
      </trkpt>
      <trkpt lat="43.426468" lon="-4.070917">
        <ele>74.562</ele>
        <time>2019-06-16T17:08:33Z</time>
      </trkpt>
      <trkpt lat="43.426412" lon="-4.071039">
        <ele>75.478</ele>
        <time>2019-06-16T17:08:34Z</time>
      </trkpt>
      <trkpt lat="43.426333" lon="-4.071151">
        <ele>76.247</ele>
        <time>2019-06-16T17:08:35Z</time>
      </trkpt>
      <trkpt lat="43.426246" lon="-4.071266">
        <ele>77.164</ele>
        <time>2019-06-16T17:08:36Z</time>
      </trkpt>
      <trkpt lat="43.426153" lon="-4.071386">
        <ele>78.706</ele>
        <time>2019-06-16T17:08:37Z</time>
      </trkpt>
      <trkpt lat="43.426054" lon="-4.071504">
        <ele>79.616</ele>
        <time>2019-06-16T17:08:38Z</time>
      </trkpt>
      <trkpt lat="43.425954" lon="-4.071616">
        <ele>80.408</ele>
        <time>2019-06-16T17:08:39Z</time>
      </trkpt>
      <trkpt lat="43.425850" lon="-4.071735">
        <ele>81.439</ele>
        <time>2019-06-16T17:08:40Z</time>
      </trkpt>
      <trkpt lat="43.425745" lon="-4.071851">
        <ele>82.043</ele>
        <time>2019-06-16T17:08:41Z</time>
      </trkpt>
      <trkpt lat="43.425636" lon="-4.071969">
        <ele>83.283</ele>
        <time>2019-06-16T17:08:42Z</time>
      </trkpt>
      <trkpt lat="43.425535" lon="-4.072090">
        <ele>84.077</ele>
        <time>2019-06-16T17:08:43Z</time>
      </trkpt>
      <trkpt lat="43.425447" lon="-4.072197">
        <ele>85.176</ele>
        <time>2019-06-16T17:08:44Z</time>
      </trkpt>
      <trkpt lat="43.425361" lon="-4.072301">
        <ele>86.426</ele>
        <time>2019-06-16T17:08:45Z</time>
      </trkpt>
      <trkpt lat="43.425312" lon="-4.072394">
        <ele>87.242</ele>
        <time>2019-06-16T17:08:46Z</time>
      </trkpt>
      <trkpt lat="43.425262" lon="-4.072502">
        <ele>88.181</ele>
        <time>2019-06-16T17:08:47Z</time>
      </trkpt>
      <trkpt lat="43.425237" lon="-4.072633">
        <ele>89.017</ele>
        <time>2019-06-16T17:08:48Z</time>
      </trkpt>
      <trkpt lat="43.425219" lon="-4.072780">
        <ele>89.887</ele>
        <time>2019-06-16T17:08:49Z</time>
      </trkpt>
      <trkpt lat="43.425216" lon="-4.072941">
        <ele>89.915</ele>
        <time>2019-06-16T17:08:50Z</time>
      </trkpt>
      <trkpt lat="43.425208" lon="-4.073109">
        <ele>90.008</ele>
        <time>2019-06-16T17:08:51Z</time>
      </trkpt>
      <trkpt lat="43.425192" lon="-4.073274">
        <ele>89.884</ele>
        <time>2019-06-16T17:08:52Z</time>
      </trkpt>
      <trkpt lat="43.425172" lon="-4.073429">
        <ele>89.628</ele>
        <time>2019-06-16T17:08:53Z</time>
      </trkpt>
      <trkpt lat="43.425143" lon="-4.073586">
        <ele>89.578</ele>
        <time>2019-06-16T17:08:54Z</time>
      </trkpt>
      <trkpt lat="43.425107" lon="-4.073745">
        <ele>89.462</ele>
        <time>2019-06-16T17:08:55Z</time>
      </trkpt>
      <trkpt lat="43.425077" lon="-4.073908">
        <ele>89.261</ele>
        <time>2019-06-16T17:08:56Z</time>
      </trkpt>
      <trkpt lat="43.425056" lon="-4.074058">
        <ele>88.691</ele>
        <time>2019-06-16T17:08:57Z</time>
      </trkpt>
      <trkpt lat="43.425037" lon="-4.074192">
        <ele>87.977</ele>
        <time>2019-06-16T17:08:58Z</time>
      </trkpt>
      <trkpt lat="43.425016" lon="-4.074333">
        <ele>86.496</ele>
        <time>2019-06-16T17:08:59Z</time>
      </trkpt>
      <trkpt lat="43.425023" lon="-4.074428">
        <ele>85.517</ele>
        <time>2019-06-16T17:09:00Z</time>
      </trkpt>
      <trkpt lat="43.425013" lon="-4.074558">
        <ele>85.287</ele>
        <time>2019-06-16T17:09:01Z</time>
      </trkpt>
      <trkpt lat="43.425013" lon="-4.074709">
        <ele>85.115</ele>
        <time>2019-06-16T17:09:02Z</time>
      </trkpt>
      <trkpt lat="43.425009" lon="-4.074873">
        <ele>85.108</ele>
        <time>2019-06-16T17:09:03Z</time>
      </trkpt>
      <trkpt lat="43.425006" lon="-4.075034">
        <ele>85.014</ele>
        <time>2019-06-16T17:09:04Z</time>
      </trkpt>
      <trkpt lat="43.424980" lon="-4.075206">
        <ele>84.998</ele>
        <time>2019-06-16T17:09:05Z</time>
      </trkpt>
      <trkpt lat="43.424957" lon="-4.075358">
        <ele>84.388</ele>
        <time>2019-06-16T17:09:06Z</time>
      </trkpt>
      <trkpt lat="43.424942" lon="-4.075519">
        <ele>83.212</ele>
        <time>2019-06-16T17:09:07Z</time>
      </trkpt>
      <trkpt lat="43.424921" lon="-4.075668">
        <ele>82.381</ele>
        <time>2019-06-16T17:09:08Z</time>
      </trkpt>
      <trkpt lat="43.424870" lon="-4.075815">
        <ele>81.661</ele>
        <time>2019-06-16T17:09:09Z</time>
      </trkpt>
      <trkpt lat="43.424823" lon="-4.075968">
        <ele>81.267</ele>
        <time>2019-06-16T17:09:10Z</time>
      </trkpt>
      <trkpt lat="43.424753" lon="-4.076110">
        <ele>80.926</ele>
        <time>2019-06-16T17:09:11Z</time>
      </trkpt>
      <trkpt lat="43.424671" lon="-4.076218">
        <ele>80.484</ele>
        <time>2019-06-16T17:09:12Z</time>
      </trkpt>
      <trkpt lat="43.424595" lon="-4.076327">
        <ele>79.807</ele>
        <time>2019-06-16T17:09:13Z</time>
      </trkpt>
      <trkpt lat="43.424511" lon="-4.076466">
        <ele>79.317</ele>
        <time>2019-06-16T17:09:14Z</time>
      </trkpt>
      <trkpt lat="43.424464" lon="-4.076599">
        <ele>79.708</ele>
        <time>2019-06-16T17:09:15Z</time>
      </trkpt>
      <trkpt lat="43.424420" lon="-4.076725">
        <ele>80.071</ele>
        <time>2019-06-16T17:09:16Z</time>
      </trkpt>
      <trkpt lat="43.424395" lon="-4.076847">
        <ele>80.195</ele>
        <time>2019-06-16T17:09:17Z</time>
      </trkpt>
      <trkpt lat="43.424354" lon="-4.076938">
        <ele>80.345</ele>
        <time>2019-06-16T17:09:18Z</time>
      </trkpt>
      <trkpt lat="43.424314" lon="-4.077060">
        <ele>80.169</ele>
        <time>2019-06-16T17:09:19Z</time>
      </trkpt>
      <trkpt lat="43.424274" lon="-4.077179">
        <ele>79.838</ele>
        <time>2019-06-16T17:09:20Z</time>
      </trkpt>
      <trkpt lat="43.424211" lon="-4.077324">
        <ele>79.848</ele>
        <time>2019-06-16T17:09:21Z</time>
      </trkpt>
      <trkpt lat="43.424153" lon="-4.077470">
        <ele>80.014</ele>
        <time>2019-06-16T17:09:22Z</time>
      </trkpt>
      <trkpt lat="43.424097" lon="-4.077616">
        <ele>79.613</ele>
        <time>2019-06-16T17:09:23Z</time>
      </trkpt>
      <trkpt lat="43.424053" lon="-4.077762">
        <ele>79.155</ele>
        <time>2019-06-16T17:09:24Z</time>
      </trkpt>
      <trkpt lat="43.424004" lon="-4.077908">
        <ele>77.807</ele>
        <time>2019-06-16T17:09:25Z</time>
      </trkpt>
      <trkpt lat="43.423947" lon="-4.078044">
        <ele>76.317</ele>
        <time>2019-06-16T17:09:26Z</time>
      </trkpt>
      <trkpt lat="43.423887" lon="-4.078171">
        <ele>75.208</ele>
        <time>2019-06-16T17:09:27Z</time>
      </trkpt>
      <trkpt lat="43.423812" lon="-4.078300">
        <ele>74.048</ele>
        <time>2019-06-16T17:09:28Z</time>
      </trkpt>
      <trkpt lat="43.423731" lon="-4.078369">
        <ele>73.192</ele>
        <time>2019-06-16T17:09:29Z</time>
      </trkpt>
      <trkpt lat="43.423644" lon="-4.078411">
        <ele>72.582</ele>
        <time>2019-06-16T17:09:30Z</time>
      </trkpt>
      <trkpt lat="43.423534" lon="-4.078450">
        <ele>71.456</ele>
        <time>2019-06-16T17:09:31Z</time>
      </trkpt>
      <trkpt lat="43.423408" lon="-4.078447">
        <ele>70.395</ele>
        <time>2019-06-16T17:09:32Z</time>
      </trkpt>
      <trkpt lat="43.423269" lon="-4.078436">
        <ele>69.225</ele>
        <time>2019-06-16T17:09:33Z</time>
      </trkpt>
      <trkpt lat="43.423131" lon="-4.078440">
        <ele>68.291</ele>
        <time>2019-06-16T17:09:34Z</time>
      </trkpt>
      <trkpt lat="43.422991" lon="-4.078445">
        <ele>67.360</ele>
        <time>2019-06-16T17:09:35Z</time>
      </trkpt>
      <trkpt lat="43.422871" lon="-4.078441">
        <ele>66.733</ele>
        <time>2019-06-16T17:09:36Z</time>
      </trkpt>
      <trkpt lat="43.422742" lon="-4.078451">
        <ele>66.023</ele>
        <time>2019-06-16T17:09:37Z</time>
      </trkpt>
      <trkpt lat="43.422624" lon="-4.078456">
        <ele>65.615</ele>
        <time>2019-06-16T17:09:38Z</time>
      </trkpt>
      <trkpt lat="43.422532" lon="-4.078457">
        <ele>65.208</ele>
        <time>2019-06-16T17:09:39Z</time>
      </trkpt>
      <trkpt lat="43.422449" lon="-4.078478">
        <ele>65.026</ele>
        <time>2019-06-16T17:09:40Z</time>
      </trkpt>
      <trkpt lat="43.422368" lon="-4.078482">
        <ele>65.070</ele>
        <time>2019-06-16T17:09:41Z</time>
      </trkpt>
      <trkpt lat="43.422284" lon="-4.078484">
        <ele>65.070</ele>
        <time>2019-06-16T17:09:42Z</time>
      </trkpt>
      <trkpt lat="43.422179" lon="-4.078481">
        <ele>65.114</ele>
        <time>2019-06-16T17:09:43Z</time>
      </trkpt>
      <trkpt lat="43.422074" lon="-4.078478">
        <ele>65.353</ele>
        <time>2019-06-16T17:09:44Z</time>
      </trkpt>
      <trkpt lat="43.421962" lon="-4.078487">
        <ele>65.583</ele>
        <time>2019-06-16T17:09:45Z</time>
      </trkpt>
      <trkpt lat="43.421852" lon="-4.078500">
        <ele>65.939</ele>
        <time>2019-06-16T17:09:46Z</time>
      </trkpt>
      <trkpt lat="43.421750" lon="-4.078494">
        <ele>66.318</ele>
        <time>2019-06-16T17:09:47Z</time>
      </trkpt>
      <trkpt lat="43.421648" lon="-4.078495">
        <ele>66.699</ele>
        <time>2019-06-16T17:09:48Z</time>
      </trkpt>
      <trkpt lat="43.421552" lon="-4.078483">
        <ele>66.707</ele>
        <time>2019-06-16T17:09:49Z</time>
      </trkpt>
      <trkpt lat="43.421461" lon="-4.078474">
        <ele>66.927</ele>
        <time>2019-06-16T17:09:50Z</time>
      </trkpt>
      <trkpt lat="43.421378" lon="-4.078481">
        <ele>67.008</ele>
        <time>2019-06-16T17:09:51Z</time>
      </trkpt>
      <trkpt lat="43.421312" lon="-4.078483">
        <ele>67.312</ele>
        <time>2019-06-16T17:09:52Z</time>
      </trkpt>
      <trkpt lat="43.421259" lon="-4.078494">
        <ele>67.546</ele>
        <time>2019-06-16T17:09:53Z</time>
      </trkpt>
      <trkpt lat="43.421193" lon="-4.078550">
        <ele>67.726</ele>
        <time>2019-06-16T17:09:55Z</time>
      </trkpt>
      <trkpt lat="43.421154" lon="-4.078619">
        <ele>67.870</ele>
        <time>2019-06-16T17:09:56Z</time>
      </trkpt>
      <trkpt lat="43.421124" lon="-4.078722">
        <ele>67.699</ele>
        <time>2019-06-16T17:09:57Z</time>
      </trkpt>
      <trkpt lat="43.421105" lon="-4.078846">
        <ele>67.279</ele>
        <time>2019-06-16T17:09:58Z</time>
      </trkpt>
      <trkpt lat="43.421101" lon="-4.078984">
        <ele>67.145</ele>
        <time>2019-06-16T17:09:59Z</time>
      </trkpt>
      <trkpt lat="43.421097" lon="-4.079141">
        <ele>67.124</ele>
        <time>2019-06-16T17:10:00Z</time>
      </trkpt>
      <trkpt lat="43.421092" lon="-4.079317">
        <ele>67.116</ele>
        <time>2019-06-16T17:10:01Z</time>
      </trkpt>
      <trkpt lat="43.421084" lon="-4.079512">
        <ele>67.276</ele>
        <time>2019-06-16T17:10:02Z</time>
      </trkpt>
      <trkpt lat="43.421074" lon="-4.079707">
        <ele>67.313</ele>
        <time>2019-06-16T17:10:03Z</time>
      </trkpt>
      <trkpt lat="43.421041" lon="-4.079915">
        <ele>67.308</ele>
        <time>2019-06-16T17:10:04Z</time>
      </trkpt>
      <trkpt lat="43.420991" lon="-4.080144">
        <ele>66.624</ele>
        <time>2019-06-16T17:10:05Z</time>
      </trkpt>
      <trkpt lat="43.420925" lon="-4.080371">
        <ele>65.998</ele>
        <time>2019-06-16T17:10:06Z</time>
      </trkpt>
      <trkpt lat="43.420852" lon="-4.080610">
        <ele>65.428</ele>
        <time>2019-06-16T17:10:07Z</time>
      </trkpt>
      <trkpt lat="43.420775" lon="-4.080862">
        <ele>64.012</ele>
        <time>2019-06-16T17:10:08Z</time>
      </trkpt>
      <trkpt lat="43.420707" lon="-4.081110">
        <ele>62.951</ele>
        <time>2019-06-16T17:10:09Z</time>
      </trkpt>
      <trkpt lat="43.420628" lon="-4.081369">
        <ele>61.671</ele>
        <time>2019-06-16T17:10:10Z</time>
      </trkpt>
      <trkpt lat="43.420547" lon="-4.081634">
        <ele>63.127</ele>
        <time>2019-06-16T17:10:11Z</time>
      </trkpt>
      <trkpt lat="43.420469" lon="-4.081894">
        <ele>63.966</ele>
        <time>2019-06-16T17:10:12Z</time>
      </trkpt>
      <trkpt lat="43.420383" lon="-4.082154">
        <ele>63.675</ele>
        <time>2019-06-16T17:10:13Z</time>
      </trkpt>
      <trkpt lat="43.420305" lon="-4.082426">
        <ele>62.428</ele>
        <time>2019-06-16T17:10:14Z</time>
      </trkpt>
      <trkpt lat="43.420221" lon="-4.082703">
        <ele>61.220</ele>
        <time>2019-06-16T17:10:15Z</time>
      </trkpt>
      <trkpt lat="43.420149" lon="-4.082973">
        <ele>61.708</ele>
        <time>2019-06-16T17:10:16Z</time>
      </trkpt>
      <trkpt lat="43.420073" lon="-4.083240">
        <ele>63.070</ele>
        <time>2019-06-16T17:10:17Z</time>
      </trkpt>
      <trkpt lat="43.419998" lon="-4.083517">
        <ele>64.034</ele>
        <time>2019-06-16T17:10:18Z</time>
      </trkpt>
      <trkpt lat="43.419916" lon="-4.083765">
        <ele>64.624</ele>
        <time>2019-06-16T17:10:19Z</time>
      </trkpt>
      <trkpt lat="43.419832" lon="-4.084010">
        <ele>65.428</ele>
        <time>2019-06-16T17:10:20Z</time>
      </trkpt>
      <trkpt lat="43.419749" lon="-4.084261">
        <ele>65.637</ele>
        <time>2019-06-16T17:10:21Z</time>
      </trkpt>
      <trkpt lat="43.419644" lon="-4.084511">
        <ele>65.547</ele>
        <time>2019-06-16T17:10:22Z</time>
      </trkpt>
      <trkpt lat="43.419543" lon="-4.084758">
        <ele>65.973</ele>
        <time>2019-06-16T17:10:23Z</time>
      </trkpt>
      <trkpt lat="43.419439" lon="-4.084994">
        <ele>65.062</ele>
        <time>2019-06-16T17:10:24Z</time>
      </trkpt>
      <trkpt lat="43.419319" lon="-4.085224">
        <ele>65.137</ele>
        <time>2019-06-16T17:10:25Z</time>
      </trkpt>
      <trkpt lat="43.419214" lon="-4.085481">
        <ele>63.749</ele>
        <time>2019-06-16T17:10:26Z</time>
      </trkpt>
      <trkpt lat="43.419107" lon="-4.085737">
        <ele>60.913</ele>
        <time>2019-06-16T17:10:27Z</time>
      </trkpt>
      <trkpt lat="43.418991" lon="-4.086003">
        <ele>59.508</ele>
        <time>2019-06-16T17:10:28Z</time>
      </trkpt>
      <trkpt lat="43.418874" lon="-4.086278">
        <ele>58.826</ele>
        <time>2019-06-16T17:10:29Z</time>
      </trkpt>
      <trkpt lat="43.418759" lon="-4.086529">
        <ele>56.720</ele>
        <time>2019-06-16T17:10:30Z</time>
      </trkpt>
      <trkpt lat="43.418653" lon="-4.086779">
        <ele>56.050</ele>
        <time>2019-06-16T17:10:31Z</time>
      </trkpt>
      <trkpt lat="43.418553" lon="-4.087011">
        <ele>55.484</ele>
        <time>2019-06-16T17:10:32Z</time>
      </trkpt>
      <trkpt lat="43.418444" lon="-4.087247">
        <ele>54.593</ele>
        <time>2019-06-16T17:10:33Z</time>
      </trkpt>
      <trkpt lat="43.418336" lon="-4.087465">
        <ele>54.273</ele>
        <time>2019-06-16T17:10:34Z</time>
      </trkpt>
      <trkpt lat="43.418245" lon="-4.087691">
        <ele>54.229</ele>
        <time>2019-06-16T17:10:35Z</time>
      </trkpt>
      <trkpt lat="43.418153" lon="-4.087908">
        <ele>54.348</ele>
        <time>2019-06-16T17:10:36Z</time>
      </trkpt>
      <trkpt lat="43.418077" lon="-4.088116">
        <ele>53.895</ele>
        <time>2019-06-16T17:10:37Z</time>
      </trkpt>
      <trkpt lat="43.418001" lon="-4.088289">
        <ele>53.249</ele>
        <time>2019-06-16T17:10:38Z</time>
      </trkpt>
      <trkpt lat="43.417960" lon="-4.088460">
        <ele>52.723</ele>
        <time>2019-06-16T17:10:39Z</time>
      </trkpt>
      <trkpt lat="43.417943" lon="-4.088643">
        <ele>51.808</ele>
        <time>2019-06-16T17:10:40Z</time>
      </trkpt>
      <trkpt lat="43.417952" lon="-4.088820">
        <ele>51.382</ele>
        <time>2019-06-16T17:10:41Z</time>
      </trkpt>
      <trkpt lat="43.418000" lon="-4.088960">
        <ele>50.786</ele>
        <time>2019-06-16T17:10:42Z</time>
      </trkpt>
      <trkpt lat="43.418077" lon="-4.089147">
        <ele>50.576</ele>
        <time>2019-06-16T17:10:43Z</time>
      </trkpt>
      <trkpt lat="43.418149" lon="-4.089341">
        <ele>49.560</ele>
        <time>2019-06-16T17:10:44Z</time>
      </trkpt>
      <trkpt lat="43.418232" lon="-4.089558">
        <ele>48.249</ele>
        <time>2019-06-16T17:10:45Z</time>
      </trkpt>
      <trkpt lat="43.418317" lon="-4.089782">
        <ele>46.149</ele>
        <time>2019-06-16T17:10:46Z</time>
      </trkpt>
      <trkpt lat="43.418388" lon="-4.089991">
        <ele>44.285</ele>
        <time>2019-06-16T17:10:47Z</time>
      </trkpt>
      <trkpt lat="43.418458" lon="-4.090195">
        <ele>43.134</ele>
        <time>2019-06-16T17:10:48Z</time>
      </trkpt>
      <trkpt lat="43.418530" lon="-4.090390">
        <ele>43.478</ele>
        <time>2019-06-16T17:10:49Z</time>
      </trkpt>
      <trkpt lat="43.418605" lon="-4.090586">
        <ele>44.033</ele>
        <time>2019-06-16T17:10:50Z</time>
      </trkpt>
      <trkpt lat="43.418678" lon="-4.090772">
        <ele>43.526</ele>
        <time>2019-06-16T17:10:51Z</time>
      </trkpt>
      <trkpt lat="43.418751" lon="-4.090948">
        <ele>43.608</ele>
        <time>2019-06-16T17:10:52Z</time>
      </trkpt>
      <trkpt lat="43.418834" lon="-4.091093">
        <ele>42.980</ele>
        <time>2019-06-16T17:10:53Z</time>
      </trkpt>
      <trkpt lat="43.418930" lon="-4.091210">
        <ele>42.084</ele>
        <time>2019-06-16T17:10:54Z</time>
      </trkpt>
      <trkpt lat="43.419057" lon="-4.091286">
        <ele>40.614</ele>
        <time>2019-06-16T17:10:55Z</time>
      </trkpt>
      <trkpt lat="43.419197" lon="-4.091365">
        <ele>39.528</ele>
        <time>2019-06-16T17:10:56Z</time>
      </trkpt>
      <trkpt lat="43.419358" lon="-4.091416">
        <ele>38.727</ele>
        <time>2019-06-16T17:10:57Z</time>
      </trkpt>
      <trkpt lat="43.419515" lon="-4.091467">
        <ele>37.397</ele>
        <time>2019-06-16T17:10:58Z</time>
      </trkpt>
      <trkpt lat="43.419668" lon="-4.091523">
        <ele>36.063</ele>
        <time>2019-06-16T17:10:59Z</time>
      </trkpt>
      <trkpt lat="43.419818" lon="-4.091580">
        <ele>35.212</ele>
        <time>2019-06-16T17:11:00Z</time>
      </trkpt>
      <trkpt lat="43.419955" lon="-4.091655">
        <ele>35.166</ele>
        <time>2019-06-16T17:11:01Z</time>
      </trkpt>
      <trkpt lat="43.420075" lon="-4.091737">
        <ele>34.729</ele>
        <time>2019-06-16T17:11:02Z</time>
      </trkpt>
      <trkpt lat="43.420189" lon="-4.091848">
        <ele>33.921</ele>
        <time>2019-06-16T17:11:03Z</time>
      </trkpt>
      <trkpt lat="43.420272" lon="-4.091991">
        <ele>33.008</ele>
        <time>2019-06-16T17:11:04Z</time>
      </trkpt>
      <trkpt lat="43.420343" lon="-4.092158">
        <ele>32.779</ele>
        <time>2019-06-16T17:11:05Z</time>
      </trkpt>
      <trkpt lat="43.420404" lon="-4.092369">
        <ele>31.673</ele>
        <time>2019-06-16T17:11:06Z</time>
      </trkpt>
      <trkpt lat="43.420453" lon="-4.092605">
        <ele>30.583</ele>
        <time>2019-06-16T17:11:07Z</time>
      </trkpt>
      <trkpt lat="43.420507" lon="-4.092853">
        <ele>29.557</ele>
        <time>2019-06-16T17:11:08Z</time>
      </trkpt>
      <trkpt lat="43.420569" lon="-4.093106">
        <ele>27.936</ele>
        <time>2019-06-16T17:11:09Z</time>
      </trkpt>
      <trkpt lat="43.420631" lon="-4.093367">
        <ele>27.566</ele>
        <time>2019-06-16T17:11:10Z</time>
      </trkpt>
      <trkpt lat="43.420690" lon="-4.093620">
        <ele>27.182</ele>
        <time>2019-06-16T17:11:11Z</time>
      </trkpt>
      <trkpt lat="43.420757" lon="-4.093867">
        <ele>27.131</ele>
        <time>2019-06-16T17:11:12Z</time>
      </trkpt>
      <trkpt lat="43.420825" lon="-4.094093">
        <ele>25.344</ele>
        <time>2019-06-16T17:11:13Z</time>
      </trkpt>
      <trkpt lat="43.420891" lon="-4.094316">
        <ele>25.105</ele>
        <time>2019-06-16T17:11:14Z</time>
      </trkpt>
      <trkpt lat="43.420947" lon="-4.094543">
        <ele>24.915</ele>
        <time>2019-06-16T17:11:15Z</time>
      </trkpt>
      <trkpt lat="43.420984" lon="-4.094763">
        <ele>24.008</ele>
        <time>2019-06-16T17:11:16Z</time>
      </trkpt>
      <trkpt lat="43.421004" lon="-4.094974">
        <ele>22.087</ele>
        <time>2019-06-16T17:11:17Z</time>
      </trkpt>
      <trkpt lat="43.420993" lon="-4.095158">
        <ele>21.011</ele>
        <time>2019-06-16T17:11:18Z</time>
      </trkpt>
      <trkpt lat="43.420968" lon="-4.095309">
        <ele>20.711</ele>
        <time>2019-06-16T17:11:19Z</time>
      </trkpt>
      <trkpt lat="43.420918" lon="-4.095422">
        <ele>21.695</ele>
        <time>2019-06-16T17:11:20Z</time>
      </trkpt>
      <trkpt lat="43.420856" lon="-4.095493">
        <ele>22.494</ele>
        <time>2019-06-16T17:11:21Z</time>
      </trkpt>
      <trkpt lat="43.420772" lon="-4.095528">
        <ele>23.414</ele>
        <time>2019-06-16T17:11:22Z</time>
      </trkpt>
      <trkpt lat="43.420670" lon="-4.095534">
        <ele>24.550</ele>
        <time>2019-06-16T17:11:23Z</time>
      </trkpt>
      <trkpt lat="43.420554" lon="-4.095514">
        <ele>25.449</ele>
        <time>2019-06-16T17:11:24Z</time>
      </trkpt>
      <trkpt lat="43.420421" lon="-4.095485">
        <ele>26.184</ele>
        <time>2019-06-16T17:11:25Z</time>
      </trkpt>
      <trkpt lat="43.420286" lon="-4.095464">
        <ele>26.907</ele>
        <time>2019-06-16T17:11:26Z</time>
      </trkpt>
      <trkpt lat="43.420141" lon="-4.095434">
        <ele>27.917</ele>
        <time>2019-06-16T17:11:27Z</time>
      </trkpt>
      <trkpt lat="43.419999" lon="-4.095383">
        <ele>28.808</ele>
        <time>2019-06-16T17:11:28Z</time>
      </trkpt>
      <trkpt lat="43.419856" lon="-4.095333">
        <ele>30.051</ele>
        <time>2019-06-16T17:11:29Z</time>
      </trkpt>
      <trkpt lat="43.419709" lon="-4.095277">
        <ele>31.225</ele>
        <time>2019-06-16T17:11:30Z</time>
      </trkpt>
      <trkpt lat="43.419576" lon="-4.095235">
        <ele>32.715</ele>
        <time>2019-06-16T17:11:31Z</time>
      </trkpt>
      <trkpt lat="43.419470" lon="-4.095225">
        <ele>34.259</ele>
        <time>2019-06-16T17:11:32Z</time>
      </trkpt>
      <trkpt lat="43.419376" lon="-4.095246">
        <ele>35.858</ele>
        <time>2019-06-16T17:11:33Z</time>
      </trkpt>
      <trkpt lat="43.419300" lon="-4.095304">
        <ele>37.238</ele>
        <time>2019-06-16T17:11:34Z</time>
      </trkpt>
      <trkpt lat="43.419247" lon="-4.095401">
        <ele>38.384</ele>
        <time>2019-06-16T17:11:35Z</time>
      </trkpt>
      <trkpt lat="43.419213" lon="-4.095523">
        <ele>39.283</ele>
        <time>2019-06-16T17:11:36Z</time>
      </trkpt>
      <trkpt lat="43.419209" lon="-4.095661">
        <ele>40.348</ele>
        <time>2019-06-16T17:11:37Z</time>
      </trkpt>
      <trkpt lat="43.419213" lon="-4.095810">
        <ele>41.561</ele>
        <time>2019-06-16T17:11:38Z</time>
      </trkpt>
      <trkpt lat="43.419213" lon="-4.095970">
        <ele>43.117</ele>
        <time>2019-06-16T17:11:39Z</time>
      </trkpt>
      <trkpt lat="43.419203" lon="-4.096133">
        <ele>44.808</ele>
        <time>2019-06-16T17:11:40Z</time>
      </trkpt>
      <trkpt lat="43.419184" lon="-4.096308">
        <ele>46.947</ele>
        <time>2019-06-16T17:11:41Z</time>
      </trkpt>
      <trkpt lat="43.419152" lon="-4.096478">
        <ele>48.541</ele>
        <time>2019-06-16T17:11:42Z</time>
      </trkpt>
      <trkpt lat="43.419106" lon="-4.096633">
        <ele>50.151</ele>
        <time>2019-06-16T17:11:43Z</time>
      </trkpt>
      <trkpt lat="43.419054" lon="-4.096781">
        <ele>51.425</ele>
        <time>2019-06-16T17:11:44Z</time>
      </trkpt>
      <trkpt lat="43.419012" lon="-4.096912">
        <ele>52.344</ele>
        <time>2019-06-16T17:11:45Z</time>
      </trkpt>
      <trkpt lat="43.418989" lon="-4.097050">
        <ele>54.164</ele>
        <time>2019-06-16T17:11:46Z</time>
      </trkpt>
      <trkpt lat="43.419002" lon="-4.097181">
        <ele>55.510</ele>
        <time>2019-06-16T17:11:47Z</time>
      </trkpt>
      <trkpt lat="43.419039" lon="-4.097297">
        <ele>56.479</ele>
        <time>2019-06-16T17:11:48Z</time>
      </trkpt>
      <trkpt lat="43.419082" lon="-4.097402">
        <ele>57.454</ele>
        <time>2019-06-16T17:11:49Z</time>
      </trkpt>
      <trkpt lat="43.419124" lon="-4.097512">
        <ele>58.556</ele>
        <time>2019-06-16T17:11:50Z</time>
      </trkpt>
      <trkpt lat="43.419145" lon="-4.097625">
        <ele>59.111</ele>
        <time>2019-06-16T17:11:51Z</time>
      </trkpt>
      <trkpt lat="43.419164" lon="-4.097738">
        <ele>59.708</ele>
        <time>2019-06-16T17:11:52Z</time>
      </trkpt>
      <trkpt lat="43.419172" lon="-4.097861">
        <ele>60.968</ele>
        <time>2019-06-16T17:11:53Z</time>
      </trkpt>
      <trkpt lat="43.419173" lon="-4.097987">
        <ele>62.232</ele>
        <time>2019-06-16T17:11:54Z</time>
      </trkpt>
      <trkpt lat="43.419167" lon="-4.098112">
        <ele>63.472</ele>
        <time>2019-06-16T17:11:55Z</time>
      </trkpt>
      <trkpt lat="43.419165" lon="-4.098235">
        <ele>64.316</ele>
        <time>2019-06-16T17:11:56Z</time>
      </trkpt>
      <trkpt lat="43.419168" lon="-4.098350">
        <ele>65.165</ele>
        <time>2019-06-16T17:11:57Z</time>
      </trkpt>
      <trkpt lat="43.419171" lon="-4.098467">
        <ele>65.545</ele>
        <time>2019-06-16T17:11:58Z</time>
      </trkpt>
      <trkpt lat="43.419169" lon="-4.098576">
        <ele>65.921</ele>
        <time>2019-06-16T17:11:59Z</time>
      </trkpt>
      <trkpt lat="43.419176" lon="-4.098695">
        <ele>66.370</ele>
        <time>2019-06-16T17:12:00Z</time>
      </trkpt>
      <trkpt lat="43.419180" lon="-4.098814">
        <ele>66.731</ele>
        <time>2019-06-16T17:12:01Z</time>
      </trkpt>
      <trkpt lat="43.419169" lon="-4.098937">
        <ele>67.261</ele>
        <time>2019-06-16T17:12:02Z</time>
      </trkpt>
      <trkpt lat="43.419155" lon="-4.099035">
        <ele>67.607</ele>
        <time>2019-06-16T17:12:03Z</time>
      </trkpt>
      <trkpt lat="43.419123" lon="-4.099125">
        <ele>68.108</ele>
        <time>2019-06-16T17:12:04Z</time>
      </trkpt>
      <trkpt lat="43.419050" lon="-4.099179">
        <ele>68.476</ele>
        <time>2019-06-16T17:12:05Z</time>
      </trkpt>
      <trkpt lat="43.418976" lon="-4.099247">
        <ele>68.740</ele>
        <time>2019-06-16T17:12:06Z</time>
      </trkpt>
      <trkpt lat="43.418902" lon="-4.099302">
        <ele>69.050</ele>
        <time>2019-06-16T17:12:07Z</time>
      </trkpt>
      <trkpt lat="43.418819" lon="-4.099369">
        <ele>69.454</ele>
        <time>2019-06-16T17:12:08Z</time>
      </trkpt>
      <trkpt lat="43.418725" lon="-4.099434">
        <ele>69.663</ele>
        <time>2019-06-16T17:12:09Z</time>
      </trkpt>
      <trkpt lat="43.418648" lon="-4.099489">
        <ele>70.063</ele>
        <time>2019-06-16T17:12:10Z</time>
      </trkpt>
      <trkpt lat="43.418569" lon="-4.099527">
        <ele>70.489</ele>
        <time>2019-06-16T17:12:11Z</time>
      </trkpt>
      <trkpt lat="43.418488" lon="-4.099579">
        <ele>70.598</ele>
        <time>2019-06-16T17:12:12Z</time>
      </trkpt>
      <trkpt lat="43.418414" lon="-4.099608">
        <ele>70.584</ele>
        <time>2019-06-16T17:12:13Z</time>
      </trkpt>
      <trkpt lat="43.418337" lon="-4.099648">
        <ele>70.307</ele>
        <time>2019-06-16T17:12:14Z</time>
      </trkpt>
      <trkpt lat="43.418250" lon="-4.099666">
        <ele>69.417</ele>
        <time>2019-06-16T17:12:15Z</time>
      </trkpt>
      <trkpt lat="43.418164" lon="-4.099685">
        <ele>68.408</ele>
        <time>2019-06-16T17:12:16Z</time>
      </trkpt>
      <trkpt lat="43.418079" lon="-4.099711">
        <ele>67.351</ele>
        <time>2019-06-16T17:12:17Z</time>
      </trkpt>
      <trkpt lat="43.417990" lon="-4.099743">
        <ele>66.525</ele>
        <time>2019-06-16T17:12:18Z</time>
      </trkpt>
      <trkpt lat="43.417892" lon="-4.099777">
        <ele>65.885</ele>
        <time>2019-06-16T17:12:19Z</time>
      </trkpt>
      <trkpt lat="43.417788" lon="-4.099821">
        <ele>65.199</ele>
        <time>2019-06-16T17:12:20Z</time>
      </trkpt>
      <trkpt lat="43.417697" lon="-4.099861">
        <ele>64.728</ele>
        <time>2019-06-16T17:12:21Z</time>
      </trkpt>
      <trkpt lat="43.417608" lon="-4.099917">
        <ele>64.458</ele>
        <time>2019-06-16T17:12:22Z</time>
      </trkpt>
      <trkpt lat="43.417522" lon="-4.099966">
        <ele>64.174</ele>
        <time>2019-06-16T17:12:23Z</time>
      </trkpt>
      <trkpt lat="43.417436" lon="-4.100022">
        <ele>64.063</ele>
        <time>2019-06-16T17:12:24Z</time>
      </trkpt>
      <trkpt lat="43.417350" lon="-4.100090">
        <ele>64.082</ele>
        <time>2019-06-16T17:12:25Z</time>
      </trkpt>
      <trkpt lat="43.417257" lon="-4.100152">
        <ele>64.443</ele>
        <time>2019-06-16T17:12:26Z</time>
      </trkpt>
      <trkpt lat="43.417159" lon="-4.100182">
        <ele>65.017</ele>
        <time>2019-06-16T17:12:27Z</time>
      </trkpt>
      <trkpt lat="43.417057" lon="-4.100171">
        <ele>65.608</ele>
        <time>2019-06-16T17:12:28Z</time>
      </trkpt>
      <trkpt lat="43.416946" lon="-4.100146">
        <ele>66.081</ele>
        <time>2019-06-16T17:12:29Z</time>
      </trkpt>
      <trkpt lat="43.416835" lon="-4.100106">
        <ele>67.265</ele>
        <time>2019-06-16T17:12:30Z</time>
      </trkpt>
      <trkpt lat="43.416726" lon="-4.100062">
        <ele>68.295</ele>
        <time>2019-06-16T17:12:31Z</time>
      </trkpt>
      <trkpt lat="43.416618" lon="-4.100023">
        <ele>68.949</ele>
        <time>2019-06-16T17:12:32Z</time>
      </trkpt>
      <trkpt lat="43.416509" lon="-4.099992">
        <ele>69.658</ele>
        <time>2019-06-16T17:12:33Z</time>
      </trkpt>
      <trkpt lat="43.416402" lon="-4.099958">
        <ele>70.398</ele>
        <time>2019-06-16T17:12:34Z</time>
      </trkpt>
      <trkpt lat="43.416296" lon="-4.099934">
        <ele>71.094</ele>
        <time>2019-06-16T17:12:35Z</time>
      </trkpt>
      <trkpt lat="43.416190" lon="-4.099923">
        <ele>71.823</ele>
        <time>2019-06-16T17:12:36Z</time>
      </trkpt>
      <trkpt lat="43.416086" lon="-4.099914">
        <ele>72.574</ele>
        <time>2019-06-16T17:12:37Z</time>
      </trkpt>
      <trkpt lat="43.415981" lon="-4.099906">
        <ele>72.856</ele>
        <time>2019-06-16T17:12:38Z</time>
      </trkpt>
      <trkpt lat="43.415874" lon="-4.099908">
        <ele>73.221</ele>
        <time>2019-06-16T17:12:39Z</time>
      </trkpt>
      <trkpt lat="43.415765" lon="-4.099910">
        <ele>73.208</ele>
        <time>2019-06-16T17:12:40Z</time>
      </trkpt>
      <trkpt lat="43.415661" lon="-4.099913">
        <ele>73.050</ele>
        <time>2019-06-16T17:12:41Z</time>
      </trkpt>
      <trkpt lat="43.415557" lon="-4.099917">
        <ele>72.894</ele>
        <time>2019-06-16T17:12:42Z</time>
      </trkpt>
      <trkpt lat="43.415458" lon="-4.099918">
        <ele>72.224</ele>
        <time>2019-06-16T17:12:43Z</time>
      </trkpt>
      <trkpt lat="43.415361" lon="-4.099931">
        <ele>71.868</ele>
        <time>2019-06-16T17:12:44Z</time>
      </trkpt>
      <trkpt lat="43.415263" lon="-4.099938">
        <ele>71.137</ele>
        <time>2019-06-16T17:12:45Z</time>
      </trkpt>
      <trkpt lat="43.415165" lon="-4.099982">
        <ele>70.227</ele>
        <time>2019-06-16T17:12:46Z</time>
      </trkpt>
      <trkpt lat="43.415063" lon="-4.100040">
        <ele>69.373</ele>
        <time>2019-06-16T17:12:47Z</time>
      </trkpt>
      <trkpt lat="43.414969" lon="-4.100112">
        <ele>68.812</ele>
        <time>2019-06-16T17:12:48Z</time>
      </trkpt>
      <trkpt lat="43.414872" lon="-4.100182">
        <ele>68.174</ele>
        <time>2019-06-16T17:12:49Z</time>
      </trkpt>
      <trkpt lat="43.414782" lon="-4.100243">
        <ele>67.556</ele>
        <time>2019-06-16T17:12:50Z</time>
      </trkpt>
      <trkpt lat="43.414690" lon="-4.100316">
        <ele>66.721</ele>
        <time>2019-06-16T17:12:51Z</time>
      </trkpt>
      <trkpt lat="43.414604" lon="-4.100394">
        <ele>65.708</ele>
        <time>2019-06-16T17:12:52Z</time>
      </trkpt>
      <trkpt lat="43.414531" lon="-4.100488">
        <ele>65.010</ele>
        <time>2019-06-16T17:12:53Z</time>
      </trkpt>
      <trkpt lat="43.414457" lon="-4.100606">
        <ele>64.274</ele>
        <time>2019-06-16T17:12:54Z</time>
      </trkpt>
      <trkpt lat="43.414397" lon="-4.100741">
        <ele>63.724</ele>
        <time>2019-06-16T17:12:55Z</time>
      </trkpt>
      <trkpt lat="43.414346" lon="-4.100885">
        <ele>63.678</ele>
        <time>2019-06-16T17:12:56Z</time>
      </trkpt>
      <trkpt lat="43.414294" lon="-4.101026">
        <ele>63.567</ele>
        <time>2019-06-16T17:12:57Z</time>
      </trkpt>
      <trkpt lat="43.414239" lon="-4.101170">
        <ele>63.457</ele>
        <time>2019-06-16T17:12:58Z</time>
      </trkpt>
      <trkpt lat="43.414187" lon="-4.101317">
        <ele>63.823</ele>
        <time>2019-06-16T17:12:59Z</time>
      </trkpt>
      <trkpt lat="43.414130" lon="-4.101461">
        <ele>63.922</ele>
        <time>2019-06-16T17:13:00Z</time>
      </trkpt>
      <trkpt lat="43.414076" lon="-4.101605">
        <ele>63.918</ele>
        <time>2019-06-16T17:13:01Z</time>
      </trkpt>
      <trkpt lat="43.414024" lon="-4.101751">
        <ele>64.098</ele>
        <time>2019-06-16T17:13:02Z</time>
      </trkpt>
      <trkpt lat="43.413961" lon="-4.101893">
        <ele>64.017</ele>
        <time>2019-06-16T17:13:03Z</time>
      </trkpt>
      <trkpt lat="43.413891" lon="-4.102021">
        <ele>64.308</ele>
        <time>2019-06-16T17:13:04Z</time>
      </trkpt>
      <trkpt lat="43.413817" lon="-4.102129">
        <ele>64.824</ele>
        <time>2019-06-16T17:13:05Z</time>
      </trkpt>
      <trkpt lat="43.413743" lon="-4.102213">
        <ele>65.078</ele>
        <time>2019-06-16T17:13:06Z</time>
      </trkpt>
      <trkpt lat="43.413659" lon="-4.102282">
        <ele>65.228</ele>
        <time>2019-06-16T17:13:07Z</time>
      </trkpt>
      <trkpt lat="43.413551" lon="-4.102317">
        <ele>65.352</ele>
        <time>2019-06-16T17:13:08Z</time>
      </trkpt>
      <trkpt lat="43.413437" lon="-4.102333">
        <ele>65.121</ele>
        <time>2019-06-16T17:13:09Z</time>
      </trkpt>
      <trkpt lat="43.413301" lon="-4.102374">
        <ele>64.811</ele>
        <time>2019-06-16T17:13:10Z</time>
      </trkpt>
      <trkpt lat="43.413154" lon="-4.102412">
        <ele>63.917</ele>
        <time>2019-06-16T17:13:11Z</time>
      </trkpt>
      <trkpt lat="43.412995" lon="-4.102466">
        <ele>62.996</ele>
        <time>2019-06-16T17:13:12Z</time>
      </trkpt>
      <trkpt lat="43.412842" lon="-4.102514">
        <ele>62.281</ele>
        <time>2019-06-16T17:13:13Z</time>
      </trkpt>
      <trkpt lat="43.412686" lon="-4.102571">
        <ele>61.261</ele>
        <time>2019-06-16T17:13:14Z</time>
      </trkpt>
      <trkpt lat="43.412539" lon="-4.102614">
        <ele>60.117</ele>
        <time>2019-06-16T17:13:15Z</time>
      </trkpt>
      <trkpt lat="43.412412" lon="-4.102649">
        <ele>59.808</ele>
        <time>2019-06-16T17:13:16Z</time>
      </trkpt>
      <trkpt lat="43.412308" lon="-4.102644">
        <ele>59.361</ele>
        <time>2019-06-16T17:13:17Z</time>
      </trkpt>
      <trkpt lat="43.412207" lon="-4.102612">
        <ele>58.825</ele>
        <time>2019-06-16T17:13:18Z</time>
      </trkpt>
      <trkpt lat="43.412102" lon="-4.102564">
        <ele>58.525</ele>
        <time>2019-06-16T17:13:19Z</time>
      </trkpt>
      <trkpt lat="43.412003" lon="-4.102472">
        <ele>57.979</ele>
        <time>2019-06-16T17:13:20Z</time>
      </trkpt>
      <trkpt lat="43.411908" lon="-4.102291">
        <ele>57.458</ele>
        <time>2019-06-16T17:13:21Z</time>
      </trkpt>
      <trkpt lat="43.411814" lon="-4.102107">
        <ele>56.818</ele>
        <time>2019-06-16T17:13:22Z</time>
      </trkpt>
      <trkpt lat="43.411712" lon="-4.101932">
        <ele>56.754</ele>
        <time>2019-06-16T17:13:23Z</time>
      </trkpt>
      <trkpt lat="43.411612" lon="-4.101728">
        <ele>58.183</ele>
        <time>2019-06-16T17:13:24Z</time>
      </trkpt>
      <trkpt lat="43.411507" lon="-4.101527">
        <ele>60.796</ele>
        <time>2019-06-16T17:13:25Z</time>
      </trkpt>
      <trkpt lat="43.411399" lon="-4.101323">
        <ele>63.531</ele>
        <time>2019-06-16T17:13:26Z</time>
      </trkpt>
      <trkpt lat="43.411332" lon="-4.101134">
        <ele>64.824</ele>
        <time>2019-06-16T17:13:27Z</time>
      </trkpt>
      <trkpt lat="43.411264" lon="-4.100940">
        <ele>65.708</ele>
        <time>2019-06-16T17:13:28Z</time>
      </trkpt>
      <trkpt lat="43.411201" lon="-4.100744">
        <ele>66.332</ele>
        <time>2019-06-16T17:13:29Z</time>
      </trkpt>
      <trkpt lat="43.411140" lon="-4.100578">
        <ele>67.316</ele>
        <time>2019-06-16T17:13:30Z</time>
      </trkpt>
      <trkpt lat="43.411077" lon="-4.100443">
        <ele>68.346</ele>
        <time>2019-06-16T17:13:31Z</time>
      </trkpt>
      <trkpt lat="43.411001" lon="-4.100323">
        <ele>69.330</ele>
        <time>2019-06-16T17:13:32Z</time>
      </trkpt>
      <trkpt lat="43.410921" lon="-4.100207">
        <ele>70.099</ele>
        <time>2019-06-16T17:13:33Z</time>
      </trkpt>
      <trkpt lat="43.410805" lon="-4.100137">
        <ele>72.779</ele>
        <time>2019-06-16T17:13:34Z</time>
      </trkpt>
      <trkpt lat="43.410739" lon="-4.100021">
        <ele>74.075</ele>
        <time>2019-06-16T17:13:35Z</time>
      </trkpt>
      <trkpt lat="43.410689" lon="-4.099880">
        <ele>75.514</ele>
        <time>2019-06-16T17:13:36Z</time>
      </trkpt>
      <trkpt lat="43.410664" lon="-4.099705">
        <ele>76.022</ele>
        <time>2019-06-16T17:13:37Z</time>
      </trkpt>
      <trkpt lat="43.410633" lon="-4.099553">
        <ele>76.362</ele>
        <time>2019-06-16T17:13:38Z</time>
      </trkpt>
      <trkpt lat="43.410585" lon="-4.099432">
        <ele>77.108</ele>
        <time>2019-06-16T17:13:39Z</time>
      </trkpt>
      <trkpt lat="43.410531" lon="-4.099312">
        <ele>77.808</ele>
        <time>2019-06-16T17:13:40Z</time>
      </trkpt>
      <trkpt lat="43.410438" lon="-4.099213">
        <ele>79.225</ele>
        <time>2019-06-16T17:13:41Z</time>
      </trkpt>
      <trkpt lat="43.410346" lon="-4.099154">
        <ele>80.489</ele>
        <time>2019-06-16T17:13:42Z</time>
      </trkpt>
      <trkpt lat="43.410259" lon="-4.099141">
        <ele>82.289</ele>
        <time>2019-06-16T17:13:43Z</time>
      </trkpt>
      <trkpt lat="43.410171" lon="-4.099189">
        <ele>84.213</ele>
        <time>2019-06-16T17:13:44Z</time>
      </trkpt>
      <trkpt lat="43.410079" lon="-4.099245">
        <ele>86.192</ele>
        <time>2019-06-16T17:13:45Z</time>
      </trkpt>
      <trkpt lat="43.409982" lon="-4.099338">
        <ele>87.682</ele>
        <time>2019-06-16T17:13:46Z</time>
      </trkpt>
      <trkpt lat="43.409901" lon="-4.099434">
        <ele>90.218</ele>
        <time>2019-06-16T17:13:47Z</time>
      </trkpt>
      <trkpt lat="43.409817" lon="-4.099523">
        <ele>93.257</ele>
        <time>2019-06-16T17:13:48Z</time>
      </trkpt>
      <trkpt lat="43.409871" lon="-4.099737">
        <ele>93.052</ele>
        <time>2019-06-16T17:13:49Z</time>
      </trkpt>
      <trkpt lat="43.410044" lon="-4.099890">
        <ele>92.053</ele>
        <time>2019-06-16T17:13:50Z</time>
      </trkpt>
      <trkpt lat="43.410107" lon="-4.100039">
        <ele>93.008</ele>
        <time>2019-06-16T17:13:51Z</time>
      </trkpt>
      <trkpt lat="43.410160" lon="-4.100187">
        <ele>94.008</ele>
        <time>2019-06-16T17:13:52Z</time>
      </trkpt>
      <trkpt lat="43.410218" lon="-4.100343">
        <ele>95.198</ele>
        <time>2019-06-16T17:13:53Z</time>
      </trkpt>
      <trkpt lat="43.410251" lon="-4.100521">
        <ele>97.112</ele>
        <time>2019-06-16T17:13:54Z</time>
      </trkpt>
      <trkpt lat="43.410256" lon="-4.100721">
        <ele>98.292</ele>
        <time>2019-06-16T17:13:55Z</time>
      </trkpt>
      <trkpt lat="43.410246" lon="-4.100929">
        <ele>99.176</ele>
        <time>2019-06-16T17:13:56Z</time>
      </trkpt>
      <trkpt lat="43.410242" lon="-4.101138">
        <ele>99.425</ele>
        <time>2019-06-16T17:13:57Z</time>
      </trkpt>
      <trkpt lat="43.410242" lon="-4.101374">
        <ele>99.735</ele>
        <time>2019-06-16T17:13:58Z</time>
      </trkpt>
      <trkpt lat="43.410245" lon="-4.101607">
        <ele>101.821</ele>
        <time>2019-06-16T17:13:59Z</time>
      </trkpt>
      <trkpt lat="43.410259" lon="-4.101853">
        <ele>103.150</ele>
        <time>2019-06-16T17:14:00Z</time>
      </trkpt>
      <trkpt lat="43.410253" lon="-4.102107">
        <ele>104.638</ele>
        <time>2019-06-16T17:14:01Z</time>
      </trkpt>
      <trkpt lat="43.410254" lon="-4.102368">
        <ele>105.070</ele>
        <time>2019-06-16T17:14:02Z</time>
      </trkpt>
      <trkpt lat="43.410258" lon="-4.102626">
        <ele>105.417</ele>
        <time>2019-06-16T17:14:03Z</time>
      </trkpt>
      <trkpt lat="43.410271" lon="-4.102884">
        <ele>106.508</ele>
        <time>2019-06-16T17:14:04Z</time>
      </trkpt>
      <trkpt lat="43.410267" lon="-4.103150">
        <ele>109.586</ele>
        <time>2019-06-16T17:14:05Z</time>
      </trkpt>
      <trkpt lat="43.410271" lon="-4.103416">
        <ele>112.280</ele>
        <time>2019-06-16T17:14:06Z</time>
      </trkpt>
      <trkpt lat="43.410274" lon="-4.103645">
        <ele>114.430</ele>
        <time>2019-06-16T17:14:07Z</time>
      </trkpt>
      <trkpt lat="43.410283" lon="-4.103874">
        <ele>115.624</ele>
        <time>2019-06-16T17:14:08Z</time>
      </trkpt>
      <trkpt lat="43.410298" lon="-4.104106">
        <ele>116.683</ele>
        <time>2019-06-16T17:14:09Z</time>
      </trkpt>
      <trkpt lat="43.410294" lon="-4.104319">
        <ele>117.993</ele>
        <time>2019-06-16T17:14:10Z</time>
      </trkpt>
      <trkpt lat="43.410272" lon="-4.104524">
        <ele>119.319</ele>
        <time>2019-06-16T17:14:11Z</time>
      </trkpt>
      <trkpt lat="43.410245" lon="-4.104730">
        <ele>120.278</ele>
        <time>2019-06-16T17:14:12Z</time>
      </trkpt>
      <trkpt lat="43.410189" lon="-4.104910">
        <ele>122.267</ele>
        <time>2019-06-16T17:14:13Z</time>
      </trkpt>
      <trkpt lat="43.410131" lon="-4.105079">
        <ele>123.481</ele>
        <time>2019-06-16T17:14:14Z</time>
      </trkpt>
      <trkpt lat="43.410070" lon="-4.105230">
        <ele>124.019</ele>
        <time>2019-06-16T17:14:15Z</time>
      </trkpt>
      <trkpt lat="43.410034" lon="-4.105376">
        <ele>124.108</ele>
        <time>2019-06-16T17:14:16Z</time>
      </trkpt>
      <trkpt lat="43.410003" lon="-4.105513">
        <ele>124.219</ele>
        <time>2019-06-16T17:14:17Z</time>
      </trkpt>
      <trkpt lat="43.410019" lon="-4.105658">
        <ele>123.413</ele>
        <time>2019-06-16T17:14:18Z</time>
      </trkpt>
      <trkpt lat="43.410067" lon="-4.105825">
        <ele>122.153</ele>
        <time>2019-06-16T17:14:19Z</time>
      </trkpt>
      <trkpt lat="43.410147" lon="-4.105955">
        <ele>122.097</ele>
        <time>2019-06-16T17:14:20Z</time>
      </trkpt>
      <trkpt lat="43.410249" lon="-4.106101">
        <ele>122.426</ele>
        <time>2019-06-16T17:14:21Z</time>
      </trkpt>
      <trkpt lat="43.410363" lon="-4.106226">
        <ele>124.026</ele>
        <time>2019-06-16T17:14:22Z</time>
      </trkpt>
      <trkpt lat="43.410480" lon="-4.106342">
        <ele>125.112</ele>
        <time>2019-06-16T17:14:23Z</time>
      </trkpt>
      <trkpt lat="43.410582" lon="-4.106481">
        <ele>126.731</ele>
        <time>2019-06-16T17:14:24Z</time>
      </trkpt>
      <trkpt lat="43.410680" lon="-4.106647">
        <ele>128.437</ele>
        <time>2019-06-16T17:14:25Z</time>
      </trkpt>
      <trkpt lat="43.410744" lon="-4.106838">
        <ele>130.149</ele>
        <time>2019-06-16T17:14:26Z</time>
      </trkpt>
      <trkpt lat="43.410801" lon="-4.107043">
        <ele>130.813</ele>
        <time>2019-06-16T17:14:27Z</time>
      </trkpt>
      <trkpt lat="43.410844" lon="-4.107259">
        <ele>130.708</ele>
        <time>2019-06-16T17:14:28Z</time>
      </trkpt>
      <trkpt lat="43.410885" lon="-4.107465">
        <ele>129.736</ele>
        <time>2019-06-16T17:14:29Z</time>
      </trkpt>
      <trkpt lat="43.410933" lon="-4.107648">
        <ele>130.110</ele>
        <time>2019-06-16T17:14:30Z</time>
      </trkpt>
      <trkpt lat="43.410965" lon="-4.107797">
        <ele>131.670</ele>
        <time>2019-06-16T17:14:31Z</time>
      </trkpt>
      <trkpt lat="43.410988" lon="-4.107948">
        <ele>134.854</ele>
        <time>2019-06-16T17:14:32Z</time>
      </trkpt>
      <trkpt lat="43.410978" lon="-4.108077">
        <ele>137.913</ele>
        <time>2019-06-16T17:14:33Z</time>
      </trkpt>
      <trkpt lat="43.410965" lon="-4.108200">
        <ele>140.633</ele>
        <time>2019-06-16T17:14:34Z</time>
      </trkpt>
      <trkpt lat="43.410920" lon="-4.108300">
        <ele>142.459</ele>
        <time>2019-06-16T17:14:35Z</time>
      </trkpt>
      <trkpt lat="43.410860" lon="-4.108406">
        <ele>146.288</ele>
        <time>2019-06-16T17:14:36Z</time>
      </trkpt>
      <trkpt lat="43.410791" lon="-4.108444">
        <ele>149.252</ele>
        <time>2019-06-16T17:14:37Z</time>
      </trkpt>
      <trkpt lat="43.410667" lon="-4.108434">
        <ele>152.353</ele>
        <time>2019-06-16T17:14:38Z</time>
      </trkpt>
      <trkpt lat="43.410585" lon="-4.108442">
        <ele>155.108</ele>
        <time>2019-06-16T17:14:39Z</time>
      </trkpt>
      <trkpt lat="43.410615" lon="-4.108368">
        <ele>151.208</ele>
        <time>2019-06-16T17:14:40Z</time>
      </trkpt>
      <trkpt lat="43.410544" lon="-4.108028">
        <ele>146.258</ele>
        <time>2019-06-16T17:14:41Z</time>
      </trkpt>
      <trkpt lat="43.410488" lon="-4.107828">
        <ele>146.282</ele>
        <time>2019-06-16T17:14:42Z</time>
      </trkpt>
      <trkpt lat="43.410426" lon="-4.107642">
        <ele>147.432</ele>
        <time>2019-06-16T17:14:43Z</time>
      </trkpt>
      <trkpt lat="43.410379" lon="-4.107501">
        <ele>148.046</ele>
        <time>2019-06-16T17:14:44Z</time>
      </trkpt>
      <trkpt lat="43.410341" lon="-4.107353">
        <ele>148.285</ele>
        <time>2019-06-16T17:14:45Z</time>
      </trkpt>
      <trkpt lat="43.410291" lon="-4.107231">
        <ele>148.715</ele>
        <time>2019-06-16T17:14:46Z</time>
      </trkpt>
      <trkpt lat="43.410215" lon="-4.107104">
        <ele>149.861</ele>
        <time>2019-06-16T17:14:47Z</time>
      </trkpt>
      <trkpt lat="43.410123" lon="-4.106987">
        <ele>150.780</ele>
        <time>2019-06-16T17:14:48Z</time>
      </trkpt>
      <trkpt lat="43.410020" lon="-4.106905">
        <ele>151.488</ele>
        <time>2019-06-16T17:14:49Z</time>
      </trkpt>
      <trkpt lat="43.409899" lon="-4.106847">
        <ele>152.024</ele>
        <time>2019-06-16T17:14:50Z</time>
      </trkpt>
      <trkpt lat="43.409761" lon="-4.106821">
        <ele>153.726</ele>
        <time>2019-06-16T17:14:51Z</time>
      </trkpt>
      <trkpt lat="43.409620" lon="-4.106800">
        <ele>155.308</ele>
        <time>2019-06-16T17:14:52Z</time>
      </trkpt>
      <trkpt lat="43.409467" lon="-4.106775">
        <ele>156.631</ele>
        <time>2019-06-16T17:14:53Z</time>
      </trkpt>
      <trkpt lat="43.409323" lon="-4.106758">
        <ele>157.545</ele>
        <time>2019-06-16T17:14:54Z</time>
      </trkpt>
      <trkpt lat="43.409184" lon="-4.106727">
        <ele>158.155</ele>
        <time>2019-06-16T17:14:55Z</time>
      </trkpt>
      <trkpt lat="43.409053" lon="-4.106714">
        <ele>159.579</ele>
        <time>2019-06-16T17:14:56Z</time>
      </trkpt>
      <trkpt lat="43.408932" lon="-4.106705">
        <ele>160.758</ele>
        <time>2019-06-16T17:14:57Z</time>
      </trkpt>
      <trkpt lat="43.408817" lon="-4.106730">
        <ele>161.978</ele>
        <time>2019-06-16T17:14:58Z</time>
      </trkpt>
      <trkpt lat="43.408690" lon="-4.106778">
        <ele>163.294</ele>
        <time>2019-06-16T17:14:59Z</time>
      </trkpt>
      <trkpt lat="43.408548" lon="-4.106827">
        <ele>164.223</ele>
        <time>2019-06-16T17:15:00Z</time>
      </trkpt>
      <trkpt lat="43.408400" lon="-4.106874">
        <ele>164.485</ele>
        <time>2019-06-16T17:15:01Z</time>
      </trkpt>
      <trkpt lat="43.408251" lon="-4.106925">
        <ele>164.889</ele>
        <time>2019-06-16T17:15:02Z</time>
      </trkpt>
      <trkpt lat="43.408104" lon="-4.106963">
        <ele>165.017</ele>
        <time>2019-06-16T17:15:03Z</time>
      </trkpt>
      <trkpt lat="43.407956" lon="-4.107004">
        <ele>165.908</ele>
        <time>2019-06-16T17:15:04Z</time>
      </trkpt>
      <trkpt lat="43.407824" lon="-4.107038">
        <ele>166.851</ele>
        <time>2019-06-16T17:15:05Z</time>
      </trkpt>
      <trkpt lat="43.407700" lon="-4.107048">
        <ele>167.635</ele>
        <time>2019-06-16T17:15:06Z</time>
      </trkpt>
      <trkpt lat="43.407579" lon="-4.107056">
        <ele>168.775</ele>
        <time>2019-06-16T17:15:07Z</time>
      </trkpt>
      <trkpt lat="43.407473" lon="-4.106994">
        <ele>168.179</ele>
        <time>2019-06-16T17:15:08Z</time>
      </trkpt>
      <trkpt lat="43.407369" lon="-4.106899">
        <ele>169.088</ele>
        <time>2019-06-16T17:15:09Z</time>
      </trkpt>
      <trkpt lat="43.407271" lon="-4.106789">
        <ele>169.988</ele>
        <time>2019-06-16T17:15:10Z</time>
      </trkpt>
      <trkpt lat="43.407173" lon="-4.106695">
        <ele>170.334</ele>
        <time>2019-06-16T17:15:11Z</time>
      </trkpt>
      <trkpt lat="43.407076" lon="-4.106603">
        <ele>171.473</ele>
        <time>2019-06-16T17:15:12Z</time>
      </trkpt>
      <trkpt lat="43.406979" lon="-4.106550">
        <ele>172.318</ele>
        <time>2019-06-16T17:15:13Z</time>
      </trkpt>
      <trkpt lat="43.406892" lon="-4.106528">
        <ele>172.498</ele>
        <time>2019-06-16T17:15:14Z</time>
      </trkpt>
      <trkpt lat="43.406798" lon="-4.106535">
        <ele>172.317</ele>
        <time>2019-06-16T17:15:15Z</time>
      </trkpt>
      <trkpt lat="43.406688" lon="-4.106572">
        <ele>172.408</ele>
        <time>2019-06-16T17:15:16Z</time>
      </trkpt>
      <trkpt lat="43.406563" lon="-4.106635">
        <ele>172.034</ele>
        <time>2019-06-16T17:15:17Z</time>
      </trkpt>
      <trkpt lat="43.406424" lon="-4.106706">
        <ele>172.068</ele>
        <time>2019-06-16T17:15:18Z</time>
      </trkpt>
      <trkpt lat="43.406267" lon="-4.106773">
        <ele>172.178</ele>
        <time>2019-06-16T17:15:19Z</time>
      </trkpt>
      <trkpt lat="43.406110" lon="-4.106853">
        <ele>172.072</ele>
        <time>2019-06-16T17:15:20Z</time>
      </trkpt>
      <trkpt lat="43.405947" lon="-4.106933">
        <ele>171.231</ele>
        <time>2019-06-16T17:15:21Z</time>
      </trkpt>
      <trkpt lat="43.405782" lon="-4.107021">
        <ele>170.521</ele>
        <time>2019-06-16T17:15:22Z</time>
      </trkpt>
      <trkpt lat="43.405611" lon="-4.107098">
        <ele>169.847</ele>
        <time>2019-06-16T17:15:23Z</time>
      </trkpt>
      <trkpt lat="43.405443" lon="-4.107170">
        <ele>170.296</ele>
        <time>2019-06-16T17:15:24Z</time>
      </trkpt>
      <trkpt lat="43.405285" lon="-4.107236">
        <ele>171.391</ele>
        <time>2019-06-16T17:15:25Z</time>
      </trkpt>
      <trkpt lat="43.405145" lon="-4.107296">
        <ele>172.781</ele>
        <time>2019-06-16T17:15:26Z</time>
      </trkpt>
      <trkpt lat="43.405028" lon="-4.107372">
        <ele>173.719</ele>
        <time>2019-06-16T17:15:27Z</time>
      </trkpt>
      <trkpt lat="43.404918" lon="-4.107477">
        <ele>173.008</ele>
        <time>2019-06-16T17:15:28Z</time>
      </trkpt>
      <trkpt lat="43.404830" lon="-4.107589">
        <ele>173.122</ele>
        <time>2019-06-16T17:15:29Z</time>
      </trkpt>
      <trkpt lat="43.404741" lon="-4.107721">
        <ele>174.126</ele>
        <time>2019-06-16T17:15:30Z</time>
      </trkpt>
      <trkpt lat="43.404642" lon="-4.107877">
        <ele>175.186</ele>
        <time>2019-06-16T17:15:31Z</time>
      </trkpt>
      <trkpt lat="43.404558" lon="-4.108044">
        <ele>175.720</ele>
        <time>2019-06-16T17:15:32Z</time>
      </trkpt>
      <trkpt lat="43.404472" lon="-4.108223">
        <ele>175.429</ele>
        <time>2019-06-16T17:15:33Z</time>
      </trkpt>
      <trkpt lat="43.404395" lon="-4.108399">
        <ele>175.659</ele>
        <time>2019-06-16T17:15:34Z</time>
      </trkpt>
      <trkpt lat="43.404312" lon="-4.108573">
        <ele>176.925</ele>
        <time>2019-06-16T17:15:35Z</time>
      </trkpt>
      <trkpt lat="43.404235" lon="-4.108745">
        <ele>178.034</ele>
        <time>2019-06-16T17:15:36Z</time>
      </trkpt>
      <trkpt lat="43.404161" lon="-4.108909">
        <ele>178.284</ele>
        <time>2019-06-16T17:15:37Z</time>
      </trkpt>
      <trkpt lat="43.404085" lon="-4.109051">
        <ele>179.607</ele>
        <time>2019-06-16T17:15:38Z</time>
      </trkpt>
      <trkpt lat="43.404006" lon="-4.109151">
        <ele>180.617</ele>
        <time>2019-06-16T17:15:39Z</time>
      </trkpt>
      <trkpt lat="43.403914" lon="-4.109238">
        <ele>181.408</ele>
        <time>2019-06-16T17:15:40Z</time>
      </trkpt>
      <trkpt lat="43.403813" lon="-4.109282">
        <ele>182.141</ele>
        <time>2019-06-16T17:15:41Z</time>
      </trkpt>
      <trkpt lat="43.403722" lon="-4.109299">
        <ele>182.665</ele>
        <time>2019-06-16T17:15:42Z</time>
      </trkpt>
      <trkpt lat="43.403616" lon="-4.109285">
        <ele>182.435</ele>
        <time>2019-06-16T17:15:43Z</time>
      </trkpt>
      <trkpt lat="43.403523" lon="-4.109241">
        <ele>183.169</ele>
        <time>2019-06-16T17:15:44Z</time>
      </trkpt>
      <trkpt lat="43.403446" lon="-4.109166">
        <ele>183.268</ele>
        <time>2019-06-16T17:15:45Z</time>
      </trkpt>
      <trkpt lat="43.403397" lon="-4.109078">
        <ele>183.828</ele>
        <time>2019-06-16T17:15:46Z</time>
      </trkpt>
      <trkpt lat="43.403374" lon="-4.108936">
        <ele>183.744</ele>
        <time>2019-06-16T17:15:47Z</time>
      </trkpt>
      <trkpt lat="43.403357" lon="-4.108770">
        <ele>183.633</ele>
        <time>2019-06-16T17:15:48Z</time>
      </trkpt>
      <trkpt lat="43.403338" lon="-4.108590">
        <ele>183.873</ele>
        <time>2019-06-16T17:15:49Z</time>
      </trkpt>
      <trkpt lat="43.403311" lon="-4.108408">
        <ele>184.385</ele>
        <time>2019-06-16T17:15:50Z</time>
      </trkpt>
      <trkpt lat="43.403261" lon="-4.108235">
        <ele>184.913</ele>
        <time>2019-06-16T17:15:51Z</time>
      </trkpt>
      <trkpt lat="43.403198" lon="-4.108078">
        <ele>185.908</ele>
        <time>2019-06-16T17:15:52Z</time>
      </trkpt>
      <trkpt lat="43.403139" lon="-4.107918">
        <ele>186.510</ele>
        <time>2019-06-16T17:15:53Z</time>
      </trkpt>
      <trkpt lat="43.403082" lon="-4.107778">
        <ele>188.084</ele>
        <time>2019-06-16T17:15:54Z</time>
      </trkpt>
      <trkpt lat="43.403023" lon="-4.107678">
        <ele>189.134</ele>
        <time>2019-06-16T17:15:55Z</time>
      </trkpt>
      <trkpt lat="43.402960" lon="-4.107585">
        <ele>189.448</ele>
        <time>2019-06-16T17:15:56Z</time>
      </trkpt>
      <trkpt lat="43.402898" lon="-4.107532">
        <ele>189.947</ele>
        <time>2019-06-16T17:15:57Z</time>
      </trkpt>
      <trkpt lat="43.402831" lon="-4.107503">
        <ele>190.457</ele>
        <time>2019-06-16T17:15:58Z</time>
      </trkpt>
      <trkpt lat="43.402748" lon="-4.107492">
        <ele>191.063</ele>
        <time>2019-06-16T17:15:59Z</time>
      </trkpt>
      <trkpt lat="43.402678" lon="-4.107511">
        <ele>191.112</ele>
        <time>2019-06-16T17:16:00Z</time>
      </trkpt>
      <trkpt lat="43.402585" lon="-4.107541">
        <ele>191.128</ele>
        <time>2019-06-16T17:16:01Z</time>
      </trkpt>
      <trkpt lat="43.402491" lon="-4.107603">
        <ele>191.089</ele>
        <time>2019-06-16T17:16:02Z</time>
      </trkpt>
      <trkpt lat="43.402397" lon="-4.107716">
        <ele>190.717</ele>
        <time>2019-06-16T17:16:03Z</time>
      </trkpt>
      <trkpt lat="43.402287" lon="-4.107854">
        <ele>190.208</ele>
        <time>2019-06-16T17:16:04Z</time>
      </trkpt>
      <trkpt lat="43.402180" lon="-4.108006">
        <ele>188.985</ele>
        <time>2019-06-16T17:16:05Z</time>
      </trkpt>
      <trkpt lat="43.402063" lon="-4.108166">
        <ele>187.929</ele>
        <time>2019-06-16T17:16:06Z</time>
      </trkpt>
      <trkpt lat="43.401939" lon="-4.108330">
        <ele>186.949</ele>
        <time>2019-06-16T17:16:07Z</time>
      </trkpt>
      <trkpt lat="43.401811" lon="-4.108491">
        <ele>185.553</ele>
        <time>2019-06-16T17:16:08Z</time>
      </trkpt>
      <trkpt lat="43.401678" lon="-4.108658">
        <ele>185.672</ele>
        <time>2019-06-16T17:16:09Z</time>
      </trkpt>
      <trkpt lat="43.401551" lon="-4.108824">
        <ele>183.852</ele>
        <time>2019-06-16T17:16:10Z</time>
      </trkpt>
      <trkpt lat="43.401431" lon="-4.108983">
        <ele>182.998</ele>
        <time>2019-06-16T17:16:11Z</time>
      </trkpt>
      <trkpt lat="43.401315" lon="-4.109132">
        <ele>182.427</ele>
        <time>2019-06-16T17:16:12Z</time>
      </trkpt>
      <trkpt lat="43.401198" lon="-4.109280">
        <ele>181.129</ele>
        <time>2019-06-16T17:16:13Z</time>
      </trkpt>
      <trkpt lat="43.401077" lon="-4.109437">
        <ele>181.700</ele>
        <time>2019-06-16T17:16:14Z</time>
      </trkpt>
      <trkpt lat="43.400948" lon="-4.109599">
        <ele>179.920</ele>
        <time>2019-06-16T17:16:15Z</time>
      </trkpt>
      <trkpt lat="43.400813" lon="-4.109772">
        <ele>179.808</ele>
        <time>2019-06-16T17:16:16Z</time>
      </trkpt>
      <trkpt lat="43.400677" lon="-4.109949">
        <ele>179.235</ele>
        <time>2019-06-16T17:16:17Z</time>
      </trkpt>
      <trkpt lat="43.400535" lon="-4.110124">
        <ele>178.659</ele>
        <time>2019-06-16T17:16:18Z</time>
      </trkpt>
      <trkpt lat="43.400395" lon="-4.110317">
        <ele>177.919</ele>
        <time>2019-06-16T17:16:19Z</time>
      </trkpt>
      <trkpt lat="43.400246" lon="-4.110504">
        <ele>176.583</ele>
        <time>2019-06-16T17:16:20Z</time>
      </trkpt>
      <trkpt lat="43.400103" lon="-4.110704">
        <ele>175.172</ele>
        <time>2019-06-16T17:16:21Z</time>
      </trkpt>
      <trkpt lat="43.399960" lon="-4.110893">
        <ele>172.642</ele>
        <time>2019-06-16T17:16:22Z</time>
      </trkpt>
      <trkpt lat="43.399810" lon="-4.111082">
        <ele>171.748</ele>
        <time>2019-06-16T17:16:23Z</time>
      </trkpt>
      <trkpt lat="43.399681" lon="-4.111265">
        <ele>170.147</ele>
        <time>2019-06-16T17:16:24Z</time>
      </trkpt>
      <trkpt lat="43.399539" lon="-4.111449">
        <ele>168.729</ele>
        <time>2019-06-16T17:16:25Z</time>
      </trkpt>
      <trkpt lat="43.399396" lon="-4.111626">
        <ele>168.000</ele>
        <time>2019-06-16T17:16:26Z</time>
      </trkpt>
      <trkpt lat="43.399257" lon="-4.111802">
        <ele>167.220</ele>
        <time>2019-06-16T17:16:27Z</time>
      </trkpt>
      <trkpt lat="43.399130" lon="-4.111969">
        <ele>166.108</ele>
        <time>2019-06-16T17:16:28Z</time>
      </trkpt>
      <trkpt lat="43.399004" lon="-4.112126">
        <ele>165.075</ele>
        <time>2019-06-16T17:16:29Z</time>
      </trkpt>
      <trkpt lat="43.398873" lon="-4.112296">
        <ele>163.689</ele>
        <time>2019-06-16T17:16:30Z</time>
      </trkpt>
      <trkpt lat="43.398743" lon="-4.112460">
        <ele>163.039</ele>
        <time>2019-06-16T17:16:31Z</time>
      </trkpt>
      <trkpt lat="43.398605" lon="-4.112623">
        <ele>161.783</ele>
        <time>2019-06-16T17:16:32Z</time>
      </trkpt>
      <trkpt lat="43.398467" lon="-4.112785">
        <ele>159.992</ele>
        <time>2019-06-16T17:16:33Z</time>
      </trkpt>
      <trkpt lat="43.398325" lon="-4.112946">
        <ele>158.852</ele>
        <time>2019-06-16T17:16:34Z</time>
      </trkpt>
      <trkpt lat="43.398172" lon="-4.113101">
        <ele>157.718</ele>
        <time>2019-06-16T17:16:35Z</time>
      </trkpt>
      <trkpt lat="43.398000" lon="-4.113250">
        <ele>156.567</ele>
        <time>2019-06-16T17:16:36Z</time>
      </trkpt>
      <trkpt lat="43.397833" lon="-4.113394">
        <ele>154.867</ele>
        <time>2019-06-16T17:16:37Z</time>
      </trkpt>
      <trkpt lat="43.397662" lon="-4.113537">
        <ele>153.281</ele>
        <time>2019-06-16T17:16:38Z</time>
      </trkpt>
      <trkpt lat="43.397487" lon="-4.113662">
        <ele>151.419</ele>
        <time>2019-06-16T17:16:39Z</time>
      </trkpt>
      <trkpt lat="43.397311" lon="-4.113777">
        <ele>149.908</ele>
        <time>2019-06-16T17:16:40Z</time>
      </trkpt>
      <trkpt lat="43.397142" lon="-4.113880">
        <ele>149.069</ele>
        <time>2019-06-16T17:16:41Z</time>
      </trkpt>
      <trkpt lat="43.396985" lon="-4.113971">
        <ele>148.423</ele>
        <time>2019-06-16T17:16:42Z</time>
      </trkpt>
      <trkpt lat="43.396835" lon="-4.114065">
        <ele>147.463</ele>
        <time>2019-06-16T17:16:43Z</time>
      </trkpt>
      <trkpt lat="43.396704" lon="-4.114150">
        <ele>147.087</ele>
        <time>2019-06-16T17:16:44Z</time>
      </trkpt>
      <trkpt lat="43.396582" lon="-4.114220">
        <ele>146.466</ele>
        <time>2019-06-16T17:16:45Z</time>
      </trkpt>
      <trkpt lat="43.396476" lon="-4.114281">
        <ele>146.156</ele>
        <time>2019-06-16T17:16:46Z</time>
      </trkpt>
      <trkpt lat="43.396385" lon="-4.114334">
        <ele>146.092</ele>
        <time>2019-06-16T17:16:47Z</time>
      </trkpt>
      <trkpt lat="43.396319" lon="-4.114373">
        <ele>145.761</ele>
        <time>2019-06-16T17:16:48Z</time>
      </trkpt>
      <trkpt lat="43.396261" lon="-4.114394">
        <ele>145.562</ele>
        <time>2019-06-16T17:16:49Z</time>
      </trkpt>
      <trkpt lat="43.396203" lon="-4.114389">
        <ele>145.383</ele>
        <time>2019-06-16T17:16:50Z</time>
      </trkpt>
      <trkpt lat="43.396152" lon="-4.114351">
        <ele>145.111</ele>
        <time>2019-06-16T17:16:51Z</time>
      </trkpt>
      <trkpt lat="43.396096" lon="-4.114292">
        <ele>144.908</ele>
        <time>2019-06-16T17:16:52Z</time>
      </trkpt>
      <trkpt lat="43.396038" lon="-4.114237">
        <ele>144.629</ele>
        <time>2019-06-16T17:16:53Z</time>
      </trkpt>
      <trkpt lat="43.395978" lon="-4.114182">
        <ele>144.173</ele>
        <time>2019-06-16T17:16:54Z</time>
      </trkpt>
      <trkpt lat="43.395914" lon="-4.114121">
        <ele>143.543</ele>
        <time>2019-06-16T17:16:55Z</time>
      </trkpt>
      <trkpt lat="43.395846" lon="-4.114051">
        <ele>142.737</ele>
        <time>2019-06-16T17:16:56Z</time>
      </trkpt>
      <trkpt lat="43.395772" lon="-4.113988">
        <ele>142.066</ele>
        <time>2019-06-16T17:16:57Z</time>
      </trkpt>
      <trkpt lat="43.395689" lon="-4.113915">
        <ele>141.136</ele>
        <time>2019-06-16T17:16:58Z</time>
      </trkpt>
      <trkpt lat="43.395608" lon="-4.113847">
        <ele>140.262</ele>
        <time>2019-06-16T17:16:59Z</time>
      </trkpt>
      <trkpt lat="43.395526" lon="-4.113782">
        <ele>139.531</ele>
        <time>2019-06-16T17:17:00Z</time>
      </trkpt>
      <trkpt lat="43.395445" lon="-4.113720">
        <ele>138.933</ele>
        <time>2019-06-16T17:17:01Z</time>
      </trkpt>
      <trkpt lat="43.395362" lon="-4.113671">
        <ele>138.123</ele>
        <time>2019-06-16T17:17:02Z</time>
      </trkpt>
      <trkpt lat="43.395278" lon="-4.113625">
        <ele>137.215</ele>
        <time>2019-06-16T17:17:03Z</time>
      </trkpt>
      <trkpt lat="43.395193" lon="-4.113580">
        <ele>136.408</ele>
        <time>2019-06-16T17:17:04Z</time>
      </trkpt>
      <trkpt lat="43.395103" lon="-4.113530">
        <ele>135.626</ele>
        <time>2019-06-16T17:17:05Z</time>
      </trkpt>
      <trkpt lat="43.395011" lon="-4.113474">
        <ele>134.610</ele>
        <time>2019-06-16T17:17:06Z</time>
      </trkpt>
      <trkpt lat="43.394910" lon="-4.113425">
        <ele>133.390</ele>
        <time>2019-06-16T17:17:07Z</time>
      </trkpt>
      <trkpt lat="43.394815" lon="-4.113413">
        <ele>132.514</ele>
        <time>2019-06-16T17:17:08Z</time>
      </trkpt>
      <trkpt lat="43.394720" lon="-4.113385">
        <ele>131.653</ele>
        <time>2019-06-16T17:17:09Z</time>
      </trkpt>
      <trkpt lat="43.394626" lon="-4.113372">
        <ele>131.173</ele>
        <time>2019-06-16T17:17:10Z</time>
      </trkpt>
      <trkpt lat="43.394536" lon="-4.113354">
        <ele>130.649</ele>
        <time>2019-06-16T17:17:11Z</time>
      </trkpt>
      <trkpt lat="43.394439" lon="-4.113314">
        <ele>129.768</ele>
        <time>2019-06-16T17:17:12Z</time>
      </trkpt>
      <trkpt lat="43.394344" lon="-4.113263">
        <ele>129.412</ele>
        <time>2019-06-16T17:17:13Z</time>
      </trkpt>
      <trkpt lat="43.394253" lon="-4.113208">
        <ele>129.232</ele>
        <time>2019-06-16T17:17:14Z</time>
      </trkpt>
      <trkpt lat="43.394176" lon="-4.113159">
        <ele>129.105</ele>
        <time>2019-06-16T17:17:15Z</time>
      </trkpt>
      <trkpt lat="43.394112" lon="-4.113085">
        <ele>128.508</ele>
        <time>2019-06-16T17:17:16Z</time>
      </trkpt>
      <trkpt lat="43.394035" lon="-4.113021">
        <ele>128.234</ele>
        <time>2019-06-16T17:17:17Z</time>
      </trkpt>
      <trkpt lat="43.393970" lon="-4.112953">
        <ele>127.998</ele>
        <time>2019-06-16T17:17:18Z</time>
      </trkpt>
      <trkpt lat="43.393910" lon="-4.112872">
        <ele>127.628</ele>
        <time>2019-06-16T17:17:19Z</time>
      </trkpt>
      <trkpt lat="43.393853" lon="-4.112810">
        <ele>127.282</ele>
        <time>2019-06-16T17:17:20Z</time>
      </trkpt>
      <trkpt lat="43.393793" lon="-4.112750">
        <ele>126.891</ele>
        <time>2019-06-16T17:17:21Z</time>
      </trkpt>
      <trkpt lat="43.393741" lon="-4.112702">
        <ele>126.681</ele>
        <time>2019-06-16T17:17:22Z</time>
      </trkpt>
      <trkpt lat="43.393703" lon="-4.112644">
        <ele>126.557</ele>
        <time>2019-06-16T17:17:23Z</time>
      </trkpt>
      <trkpt lat="43.393673" lon="-4.112563">
        <ele>126.516</ele>
        <time>2019-06-16T17:17:24Z</time>
      </trkpt>
      <trkpt lat="43.393661" lon="-4.112476">
        <ele>126.357</ele>
        <time>2019-06-16T17:17:25Z</time>
      </trkpt>
      <trkpt lat="43.393635" lon="-4.112366">
        <ele>126.200</ele>
        <time>2019-06-16T17:17:26Z</time>
      </trkpt>
      <trkpt lat="43.393617" lon="-4.112252">
        <ele>126.020</ele>
        <time>2019-06-16T17:17:27Z</time>
      </trkpt>
      <trkpt lat="43.393606" lon="-4.112130">
        <ele>125.308</ele>
        <time>2019-06-16T17:17:28Z</time>
      </trkpt>
      <trkpt lat="43.393572" lon="-4.112001">
        <ele>124.528</ele>
        <time>2019-06-16T17:17:29Z</time>
      </trkpt>
      <trkpt lat="43.393550" lon="-4.111875">
        <ele>123.842</ele>
        <time>2019-06-16T17:17:30Z</time>
      </trkpt>
      <trkpt lat="43.393541" lon="-4.111765">
        <ele>123.172</ele>
        <time>2019-06-16T17:17:31Z</time>
      </trkpt>
      <trkpt lat="43.393514" lon="-4.111652">
        <ele>122.516</ele>
        <time>2019-06-16T17:17:32Z</time>
      </trkpt>
      <trkpt lat="43.393490" lon="-4.111555">
        <ele>121.745</ele>
        <time>2019-06-16T17:17:33Z</time>
      </trkpt>
      <trkpt lat="43.393467" lon="-4.111473">
        <ele>120.995</ele>
        <time>2019-06-16T17:17:34Z</time>
      </trkpt>
      <trkpt lat="43.393435" lon="-4.111381">
        <ele>120.291</ele>
        <time>2019-06-16T17:17:35Z</time>
      </trkpt>
      <trkpt lat="43.393398" lon="-4.111298">
        <ele>119.810</ele>
        <time>2019-06-16T17:17:36Z</time>
      </trkpt>
      <trkpt lat="43.393366" lon="-4.111213">
        <ele>119.498</ele>
        <time>2019-06-16T17:17:37Z</time>
      </trkpt>
      <trkpt lat="43.393334" lon="-4.111124">
        <ele>119.115</ele>
        <time>2019-06-16T17:17:38Z</time>
      </trkpt>
      <trkpt lat="43.393286" lon="-4.111052">
        <ele>117.826</ele>
        <time>2019-06-16T17:17:39Z</time>
      </trkpt>
      <trkpt lat="43.393243" lon="-4.110991">
        <ele>116.808</ele>
        <time>2019-06-16T17:17:40Z</time>
      </trkpt>
      <trkpt lat="43.393202" lon="-4.110951">
        <ele>116.492</ele>
        <time>2019-06-16T17:17:41Z</time>
      </trkpt>
      <trkpt lat="43.393147" lon="-4.110894">
        <ele>115.946</ele>
        <time>2019-06-16T17:17:43Z</time>
      </trkpt>
      <trkpt lat="43.393112" lon="-4.110823">
        <ele>115.256</ele>
        <time>2019-06-16T17:17:45Z</time>
      </trkpt>
      <trkpt lat="43.393066" lon="-4.110752">
        <ele>114.740</ele>
        <time>2019-06-16T17:17:47Z</time>
      </trkpt>
      <trkpt lat="43.393018" lon="-4.110715">
        <ele>114.519</ele>
        <time>2019-06-16T17:18:22Z</time>
      </trkpt>
      <trkpt lat="43.392968" lon="-4.110649">
        <ele>114.189</ele>
        <time>2019-06-16T17:19:19Z</time>
      </trkpt>
      <trkpt lat="43.392919" lon="-4.110596">
        <ele>113.915</ele>
        <time>2019-06-16T17:19:20Z</time>
      </trkpt>
      <trkpt lat="43.392876" lon="-4.110552">
        <ele>113.934</ele>
        <time>2019-06-16T17:19:21Z</time>
      </trkpt>
      <trkpt lat="43.392823" lon="-4.110492">
        <ele>113.658</ele>
        <time>2019-06-16T17:19:22Z</time>
      </trkpt>
      <trkpt lat="43.392772" lon="-4.110425">
        <ele>113.152</ele>
        <time>2019-06-16T17:19:23Z</time>
      </trkpt>
      <trkpt lat="43.392731" lon="-4.110364">
        <ele>112.117</ele>
        <time>2019-06-16T17:19:24Z</time>
      </trkpt>
      <trkpt lat="43.392686" lon="-4.110293">
        <ele>111.208</ele>
        <time>2019-06-16T17:19:25Z</time>
      </trkpt>
      <trkpt lat="43.392639" lon="-4.110239">
        <ele>110.698</ele>
        <time>2019-06-16T17:19:26Z</time>
      </trkpt>
      <trkpt lat="43.392590" lon="-4.110191">
        <ele>110.282</ele>
        <time>2019-06-16T17:19:27Z</time>
      </trkpt>
      <trkpt lat="43.392557" lon="-4.110136">
        <ele>109.842</ele>
        <time>2019-06-16T17:19:28Z</time>
      </trkpt>
      <trkpt lat="43.392513" lon="-4.110087">
        <ele>109.636</ele>
        <time>2019-06-16T17:19:30Z</time>
      </trkpt>
      <trkpt lat="43.392461" lon="-4.110012">
        <ele>108.995</ele>
        <time>2019-06-16T17:19:32Z</time>
      </trkpt>
      <trkpt lat="43.392409" lon="-4.109923">
        <ele>107.725</ele>
        <time>2019-06-16T17:19:34Z</time>
      </trkpt>
      <trkpt lat="43.392341" lon="-4.109844">
        <ele>106.541</ele>
        <time>2019-06-16T17:19:36Z</time>
      </trkpt>
      <trkpt lat="43.392305" lon="-4.109802">
        <ele>105.980</ele>
        <time>2019-06-16T17:19:37Z</time>
      </trkpt>
      <trkpt lat="43.392247" lon="-4.109705">
        <ele>104.843</ele>
        <time>2019-06-16T17:19:39Z</time>
      </trkpt>
      <trkpt lat="43.392214" lon="-4.109652">
        <ele>104.264</ele>
        <time>2019-06-16T17:19:40Z</time>
      </trkpt>
      <trkpt lat="43.392193" lon="-4.109586">
        <ele>103.410</ele>
        <time>2019-06-16T17:19:41Z</time>
      </trkpt>
      <trkpt lat="43.392131" lon="-4.109510">
        <ele>102.308</ele>
        <time>2019-06-16T17:19:43Z</time>
      </trkpt>
      <trkpt lat="43.392088" lon="-4.109420">
        <ele>101.447</ele>
        <time>2019-06-16T17:19:45Z</time>
      </trkpt>
      <trkpt lat="43.392031" lon="-4.109341">
        <ele>101.181</ele>
        <time>2019-06-16T17:19:47Z</time>
      </trkpt>
      <trkpt lat="43.391998" lon="-4.109297">
        <ele>101.011</ele>
        <time>2019-06-16T17:19:48Z</time>
      </trkpt>
      <trkpt lat="43.391942" lon="-4.109198">
        <ele>101.055</ele>
        <time>2019-06-16T17:19:50Z</time>
      </trkpt>
      <trkpt lat="43.391873" lon="-4.109136">
        <ele>100.074</ele>
        <time>2019-06-16T17:19:52Z</time>
      </trkpt>
      <trkpt lat="43.391810" lon="-4.109063">
        <ele>99.024</ele>
        <time>2019-06-16T17:19:54Z</time>
      </trkpt>
      <trkpt lat="43.391746" lon="-4.108985">
        <ele>98.050</ele>
        <time>2019-06-16T17:19:56Z</time>
      </trkpt>
      <trkpt lat="43.391684" lon="-4.108899">
        <ele>97.239</ele>
        <time>2019-06-16T17:19:58Z</time>
      </trkpt>
      <trkpt lat="43.391644" lon="-4.108866">
        <ele>96.855</ele>
        <time>2019-06-16T17:19:59Z</time>
      </trkpt>
      <trkpt lat="43.391604" lon="-4.108833">
        <ele>96.507</ele>
        <time>2019-06-16T17:20:00Z</time>
      </trkpt>
      <trkpt lat="43.391564" lon="-4.108797">
        <ele>96.217</ele>
        <time>2019-06-16T17:20:01Z</time>
      </trkpt>
      <trkpt lat="43.391492" lon="-4.108739">
        <ele>95.508</ele>
        <time>2019-06-16T17:20:03Z</time>
      </trkpt>
      <trkpt lat="43.391415" lon="-4.108670">
        <ele>94.638</ele>
        <time>2019-06-16T17:20:05Z</time>
      </trkpt>
      <trkpt lat="43.391358" lon="-4.108632">
        <ele>93.962</ele>
        <time>2019-06-16T17:20:07Z</time>
      </trkpt>
      <trkpt lat="43.391300" lon="-4.108625">
        <ele>93.422</ele>
        <time>2019-06-16T17:20:44Z</time>
      </trkpt>
      <trkpt lat="43.391250" lon="-4.108579">
        <ele>92.786</ele>
        <time>2019-06-16T17:20:46Z</time>
      </trkpt>
      <trkpt lat="43.391184" lon="-4.108524">
        <ele>91.715</ele>
        <time>2019-06-16T17:20:48Z</time>
      </trkpt>
      <trkpt lat="43.391121" lon="-4.108485">
        <ele>91.145</ele>
        <time>2019-06-16T17:20:50Z</time>
      </trkpt>
      <trkpt lat="43.391056" lon="-4.108449">
        <ele>90.661</ele>
        <time>2019-06-16T17:20:52Z</time>
      </trkpt>
      <trkpt lat="43.391006" lon="-4.108424">
        <ele>90.360</ele>
        <time>2019-06-16T17:20:54Z</time>
      </trkpt>
      <trkpt lat="43.390964" lon="-4.108397">
        <ele>89.981</ele>
        <time>2019-06-16T17:20:56Z</time>
      </trkpt>
      <trkpt lat="43.390918" lon="-4.108369">
        <ele>89.661</ele>
        <time>2019-06-16T17:20:58Z</time>
      </trkpt>
      <trkpt lat="43.390869" lon="-4.108367">
        <ele>89.417</ele>
        <time>2019-06-16T17:21:00Z</time>
      </trkpt>
      <trkpt lat="43.390809" lon="-4.108329">
        <ele>89.008</ele>
        <time>2019-06-16T17:21:03Z</time>
      </trkpt>
      <trkpt lat="43.390771" lon="-4.108275">
        <ele>88.691</ele>
        <time>2019-06-16T17:21:05Z</time>
      </trkpt>
      <trkpt lat="43.390736" lon="-4.108215">
        <ele>88.375</ele>
        <time>2019-06-16T17:21:08Z</time>
      </trkpt>
      <trkpt lat="43.390699" lon="-4.108164">
        <ele>88.165</ele>
        <time>2019-06-16T17:22:55Z</time>
      </trkpt>
      <trkpt lat="43.390652" lon="-4.108167">
        <ele>88.279</ele>
        <time>2019-06-16T17:22:57Z</time>
      </trkpt>
      <trkpt lat="43.390586" lon="-4.108184">
        <ele>88.478</ele>
        <time>2019-06-16T17:22:59Z</time>
      </trkpt>
      <trkpt lat="43.390525" lon="-4.108205">
        <ele>88.598</ele>
        <time>2019-06-16T17:23:01Z</time>
      </trkpt>
      <trkpt lat="43.390475" lon="-4.108236">
        <ele>88.654</ele>
        <time>2019-06-16T17:23:03Z</time>
      </trkpt>
      <trkpt lat="43.390437" lon="-4.108271">
        <ele>88.563</ele>
        <time>2019-06-16T17:23:05Z</time>
      </trkpt>
      <trkpt lat="43.390391" lon="-4.108308">
        <ele>88.448</ele>
        <time>2019-06-16T17:23:07Z</time>
      </trkpt>
      <trkpt lat="43.390345" lon="-4.108345">
        <ele>88.361</ele>
        <time>2019-06-16T17:23:09Z</time>
      </trkpt>
      <trkpt lat="43.390295" lon="-4.108377">
        <ele>88.217</ele>
        <time>2019-06-16T17:23:11Z</time>
      </trkpt>
      <trkpt lat="43.390241" lon="-4.108402">
        <ele>88.108</ele>
        <time>2019-06-16T17:23:13Z</time>
      </trkpt>
      <trkpt lat="43.390193" lon="-4.108424">
        <ele>87.987</ele>
        <time>2019-06-16T17:23:15Z</time>
      </trkpt>
      <trkpt lat="43.390143" lon="-4.108444">
        <ele>87.791</ele>
        <time>2019-06-16T17:23:17Z</time>
      </trkpt>
      <trkpt lat="43.390090" lon="-4.108474">
        <ele>87.581</ele>
        <time>2019-06-16T17:23:19Z</time>
      </trkpt>
      <trkpt lat="43.390046" lon="-4.108514">
        <ele>87.315</ele>
        <time>2019-06-16T17:23:21Z</time>
      </trkpt>
      <trkpt lat="43.389999" lon="-4.108576">
        <ele>87.014</ele>
        <time>2019-06-16T17:23:24Z</time>
      </trkpt>
      <trkpt lat="43.389979" lon="-4.108642">
        <ele>87.054</ele>
        <time>2019-06-16T17:23:26Z</time>
      </trkpt>
      <trkpt lat="43.389954" lon="-4.108701">
        <ele>87.010</ele>
        <time>2019-06-16T17:23:28Z</time>
      </trkpt>
      <trkpt lat="43.389905" lon="-4.108734">
        <ele>86.839</ele>
        <time>2019-06-16T17:23:30Z</time>
      </trkpt>
      <trkpt lat="43.389840" lon="-4.108754">
        <ele>86.423</ele>
        <time>2019-06-16T17:23:32Z</time>
      </trkpt>
      <trkpt lat="43.389780" lon="-4.108767">
        <ele>86.083</ele>
        <time>2019-06-16T17:23:34Z</time>
      </trkpt>
      <trkpt lat="43.389716" lon="-4.108787">
        <ele>85.611</ele>
        <time>2019-06-16T17:23:36Z</time>
      </trkpt>
      <trkpt lat="43.389650" lon="-4.108799">
        <ele>85.208</ele>
        <time>2019-06-16T17:23:38Z</time>
      </trkpt>
      <trkpt lat="43.389595" lon="-4.108804">
        <ele>84.955</ele>
        <time>2019-06-16T17:23:40Z</time>
      </trkpt>
      <trkpt lat="43.389541" lon="-4.108834">
        <ele>84.689</ele>
        <time>2019-06-16T17:23:43Z</time>
      </trkpt>
      <trkpt lat="43.389537" lon="-4.108749">
        <ele>84.519</ele>
        <time>2019-06-16T17:23:51Z</time>
      </trkpt>
      <trkpt lat="43.389554" lon="-4.108691">
        <ele>84.523</ele>
        <time>2019-06-16T17:23:52Z</time>
      </trkpt>
      <trkpt lat="43.389574" lon="-4.108627">
        <ele>84.532</ele>
        <time>2019-06-16T17:23:53Z</time>
      </trkpt>
      <trkpt lat="43.389613" lon="-4.108532">
        <ele>84.612</ele>
        <time>2019-06-16T17:23:55Z</time>
      </trkpt>
      <trkpt lat="43.389656" lon="-4.108457">
        <ele>84.848</ele>
        <time>2019-06-16T17:23:57Z</time>
      </trkpt>
      <trkpt lat="43.389691" lon="-4.108398">
        <ele>84.987</ele>
        <time>2019-06-16T17:23:59Z</time>
      </trkpt>
      <trkpt lat="43.389705" lon="-4.108338">
        <ele>84.974</ele>
        <time>2019-06-16T17:24:01Z</time>
      </trkpt>
      <trkpt lat="43.389677" lon="-4.108258">
        <ele>84.656</ele>
        <time>2019-06-16T17:24:03Z</time>
      </trkpt>
      <trkpt lat="43.389628" lon="-4.108191">
        <ele>84.121</ele>
        <time>2019-06-16T17:24:05Z</time>
      </trkpt>
      <trkpt lat="43.389578" lon="-4.108132">
        <ele>83.808</ele>
        <time>2019-06-16T17:24:07Z</time>
      </trkpt>
      <trkpt lat="43.389531" lon="-4.108081">
        <ele>83.470</ele>
        <time>2019-06-16T17:24:09Z</time>
      </trkpt>
      <trkpt lat="43.389491" lon="-4.108028">
        <ele>83.254</ele>
        <time>2019-06-16T17:24:11Z</time>
      </trkpt>
      <trkpt lat="43.389448" lon="-4.107971">
        <ele>83.014</ele>
        <time>2019-06-16T17:24:13Z</time>
      </trkpt>
      <trkpt lat="43.389405" lon="-4.107923">
        <ele>83.048</ele>
        <time>2019-06-16T17:24:15Z</time>
      </trkpt>
      <trkpt lat="43.389358" lon="-4.107866">
        <ele>82.927</ele>
        <time>2019-06-16T17:24:17Z</time>
      </trkpt>
      <trkpt lat="43.389314" lon="-4.107818">
        <ele>82.727</ele>
        <time>2019-06-16T17:24:19Z</time>
      </trkpt>
      <trkpt lat="43.389260" lon="-4.107790">
        <ele>82.433</ele>
        <time>2019-06-16T17:24:21Z</time>
      </trkpt>
      <trkpt lat="43.389200" lon="-4.107784">
        <ele>82.222</ele>
        <time>2019-06-16T17:24:23Z</time>
      </trkpt>
      <trkpt lat="43.389138" lon="-4.107792">
        <ele>82.297</ele>
        <time>2019-06-16T17:24:25Z</time>
      </trkpt>
      <trkpt lat="43.389073" lon="-4.107819">
        <ele>82.523</ele>
        <time>2019-06-16T17:24:27Z</time>
      </trkpt>
      <trkpt lat="43.389010" lon="-4.107853">
        <ele>82.825</ele>
        <time>2019-06-16T17:24:29Z</time>
      </trkpt>
      <trkpt lat="43.388939" lon="-4.107896">
        <ele>83.008</ele>
        <time>2019-06-16T17:24:31Z</time>
      </trkpt>
      <trkpt lat="43.388864" lon="-4.107952">
        <ele>83.192</ele>
        <time>2019-06-16T17:24:33Z</time>
      </trkpt>
      <trkpt lat="43.388825" lon="-4.107983">
        <ele>83.116</ele>
        <time>2019-06-16T17:24:34Z</time>
      </trkpt>
      <trkpt lat="43.388756" lon="-4.108038">
        <ele>83.186</ele>
        <time>2019-06-16T17:24:36Z</time>
      </trkpt>
      <trkpt lat="43.388722" lon="-4.108101">
        <ele>82.890</ele>
        <time>2019-06-16T17:24:53Z</time>
      </trkpt>
      <trkpt lat="43.388730" lon="-4.108224">
        <ele>82.359</ele>
        <time>2019-06-16T17:24:55Z</time>
      </trkpt>
      <trkpt lat="43.388748" lon="-4.108290">
        <ele>82.159</ele>
        <time>2019-06-16T17:24:56Z</time>
      </trkpt>
      <trkpt lat="43.388770" lon="-4.108354">
        <ele>82.175</ele>
        <time>2019-06-16T17:24:57Z</time>
      </trkpt>
      <trkpt lat="43.388811" lon="-4.108428">
        <ele>82.414</ele>
        <time>2019-06-16T17:24:58Z</time>
      </trkpt>
      <trkpt lat="43.388829" lon="-4.108496">
        <ele>82.678</ele>
        <time>2019-06-16T17:24:59Z</time>
      </trkpt>
      <trkpt lat="43.388844" lon="-4.108565">
        <ele>82.733</ele>
        <time>2019-06-16T17:25:00Z</time>
      </trkpt>
      <trkpt lat="43.388859" lon="-4.108636">
        <ele>82.726</ele>
        <time>2019-06-16T17:25:01Z</time>
      </trkpt>
      <trkpt lat="43.388873" lon="-4.108698">
        <ele>82.608</ele>
        <time>2019-06-16T17:25:02Z</time>
      </trkpt>
      <trkpt lat="43.388891" lon="-4.108811">
        <ele>82.360</ele>
        <time>2019-06-16T17:25:04Z</time>
      </trkpt>
      <trkpt lat="43.388915" lon="-4.108913">
        <ele>82.054</ele>
        <time>2019-06-16T17:25:06Z</time>
      </trkpt>
      <trkpt lat="43.388936" lon="-4.109002">
        <ele>81.814</ele>
        <time>2019-06-16T17:25:08Z</time>
      </trkpt>
      <trkpt lat="43.388962" lon="-4.109095">
        <ele>81.778</ele>
        <time>2019-06-16T17:25:10Z</time>
      </trkpt>
      <trkpt lat="43.389008" lon="-4.109187">
        <ele>81.987</ele>
        <time>2019-06-16T17:25:12Z</time>
      </trkpt>
      <trkpt lat="43.389044" lon="-4.109269">
        <ele>82.157</ele>
        <time>2019-06-16T17:25:13Z</time>
      </trkpt>
      <trkpt lat="43.389072" lon="-4.109344">
        <ele>82.393</ele>
        <time>2019-06-16T17:25:14Z</time>
      </trkpt>
      <trkpt lat="43.389113" lon="-4.109428">
        <ele>82.692</ele>
        <time>2019-06-16T17:25:15Z</time>
      </trkpt>
      <trkpt lat="43.389149" lon="-4.109509">
        <ele>82.767</ele>
        <time>2019-06-16T17:25:16Z</time>
      </trkpt>
      <trkpt lat="43.389194" lon="-4.109598">
        <ele>82.581</ele>
        <time>2019-06-16T17:25:17Z</time>
      </trkpt>
      <trkpt lat="43.389247" lon="-4.109679">
        <ele>82.419</ele>
        <time>2019-06-16T17:25:18Z</time>
      </trkpt>
      <trkpt lat="43.389302" lon="-4.109732">
        <ele>82.408</ele>
        <time>2019-06-16T17:25:19Z</time>
      </trkpt>
      <trkpt lat="43.389358" lon="-4.109805">
        <ele>82.269</ele>
        <time>2019-06-16T17:25:20Z</time>
      </trkpt>
      <trkpt lat="43.389417" lon="-4.109873">
        <ele>82.323</ele>
        <time>2019-06-16T17:25:21Z</time>
      </trkpt>
      <trkpt lat="43.389494" lon="-4.109942">
        <ele>82.793</ele>
        <time>2019-06-16T17:25:22Z</time>
      </trkpt>
      <trkpt lat="43.389571" lon="-4.110013">
        <ele>83.367</ele>
        <time>2019-06-16T17:25:23Z</time>
      </trkpt>
      <trkpt lat="43.389652" lon="-4.110084">
        <ele>83.976</ele>
        <time>2019-06-16T17:25:24Z</time>
      </trkpt>
      <trkpt lat="43.389727" lon="-4.110139">
        <ele>84.696</ele>
        <time>2019-06-16T17:25:25Z</time>
      </trkpt>
      <trkpt lat="43.389806" lon="-4.110202">
        <ele>85.482</ele>
        <time>2019-06-16T17:25:26Z</time>
      </trkpt>
      <trkpt lat="43.389888" lon="-4.110261">
        <ele>86.451</ele>
        <time>2019-06-16T17:25:27Z</time>
      </trkpt>
      <trkpt lat="43.389960" lon="-4.110339">
        <ele>87.214</ele>
        <time>2019-06-16T17:25:28Z</time>
      </trkpt>
      <trkpt lat="43.390027" lon="-4.110444">
        <ele>87.854</ele>
        <time>2019-06-16T17:25:29Z</time>
      </trkpt>
      <trkpt lat="43.390083" lon="-4.110544">
        <ele>88.209</ele>
        <time>2019-06-16T17:25:30Z</time>
      </trkpt>
      <trkpt lat="43.390133" lon="-4.110652">
        <ele>88.908</ele>
        <time>2019-06-16T17:25:31Z</time>
      </trkpt>
      <trkpt lat="43.390182" lon="-4.110775">
        <ele>89.974</ele>
        <time>2019-06-16T17:25:32Z</time>
      </trkpt>
      <trkpt lat="43.390229" lon="-4.110886">
        <ele>91.058</ele>
        <time>2019-06-16T17:25:33Z</time>
      </trkpt>
      <trkpt lat="43.390294" lon="-4.111001">
        <ele>92.268</ele>
        <time>2019-06-16T17:25:34Z</time>
      </trkpt>
      <trkpt lat="43.390356" lon="-4.111110">
        <ele>93.172</ele>
        <time>2019-06-16T17:25:35Z</time>
      </trkpt>
      <trkpt lat="43.390420" lon="-4.111210">
        <ele>93.931</ele>
        <time>2019-06-16T17:25:36Z</time>
      </trkpt>
      <trkpt lat="43.390474" lon="-4.111303">
        <ele>94.651</ele>
        <time>2019-06-16T17:25:37Z</time>
      </trkpt>
      <trkpt lat="43.390549" lon="-4.111380">
        <ele>95.937</ele>
        <time>2019-06-16T17:25:38Z</time>
      </trkpt>
      <trkpt lat="43.390633" lon="-4.111454">
        <ele>96.216</ele>
        <time>2019-06-16T17:25:39Z</time>
      </trkpt>
      <trkpt lat="43.390711" lon="-4.111520">
        <ele>96.535</ele>
        <time>2019-06-16T17:25:40Z</time>
      </trkpt>
      <trkpt lat="43.390792" lon="-4.111606">
        <ele>96.986</ele>
        <time>2019-06-16T17:25:41Z</time>
      </trkpt>
      <trkpt lat="43.390879" lon="-4.111687">
        <ele>97.514</ele>
        <time>2019-06-16T17:25:42Z</time>
      </trkpt>
      <trkpt lat="43.390967" lon="-4.111766">
        <ele>98.408</ele>
        <time>2019-06-16T17:25:43Z</time>
      </trkpt>
      <trkpt lat="43.391047" lon="-4.111846">
        <ele>99.336</ele>
        <time>2019-06-16T17:25:44Z</time>
      </trkpt>
      <trkpt lat="43.391143" lon="-4.111925">
        <ele>100.520</ele>
        <time>2019-06-16T17:25:45Z</time>
      </trkpt>
      <trkpt lat="43.391231" lon="-4.112013">
        <ele>100.860</ele>
        <time>2019-06-16T17:25:46Z</time>
      </trkpt>
      <trkpt lat="43.391314" lon="-4.112096">
        <ele>101.124</ele>
        <time>2019-06-16T17:25:47Z</time>
      </trkpt>
      <trkpt lat="43.391412" lon="-4.112187">
        <ele>101.743</ele>
        <time>2019-06-16T17:25:48Z</time>
      </trkpt>
      <trkpt lat="43.391501" lon="-4.112265">
        <ele>102.233</ele>
        <time>2019-06-16T17:25:49Z</time>
      </trkpt>
      <trkpt lat="43.391591" lon="-4.112358">
        <ele>102.889</ele>
        <time>2019-06-16T17:25:50Z</time>
      </trkpt>
      <trkpt lat="43.391695" lon="-4.112437">
        <ele>103.818</ele>
        <time>2019-06-16T17:25:51Z</time>
      </trkpt>
      <trkpt lat="43.391780" lon="-4.112497">
        <ele>104.638</ele>
        <time>2019-06-16T17:25:52Z</time>
      </trkpt>
      <trkpt lat="43.391867" lon="-4.112579">
        <ele>105.370</ele>
        <time>2019-06-16T17:25:53Z</time>
      </trkpt>
      <trkpt lat="43.391955" lon="-4.112653">
        <ele>106.017</ele>
        <time>2019-06-16T17:25:54Z</time>
      </trkpt>
      <trkpt lat="43.392041" lon="-4.112728">
        <ele>106.708</ele>
        <time>2019-06-16T17:25:55Z</time>
      </trkpt>
      <trkpt lat="43.392106" lon="-4.112789">
        <ele>107.326</ele>
        <time>2019-06-16T17:25:56Z</time>
      </trkpt>
      <trkpt lat="43.392177" lon="-4.112853">
        <ele>108.180</ele>
        <time>2019-06-16T17:25:57Z</time>
      </trkpt>
      <trkpt lat="43.392254" lon="-4.112928">
        <ele>109.050</ele>
        <time>2019-06-16T17:25:58Z</time>
      </trkpt>
      <trkpt lat="43.392339" lon="-4.112992">
        <ele>110.064</ele>
        <time>2019-06-16T17:25:59Z</time>
      </trkpt>
      <trkpt lat="43.392405" lon="-4.113066">
        <ele>110.623</ele>
        <time>2019-06-16T17:26:00Z</time>
      </trkpt>
      <trkpt lat="43.392472" lon="-4.113144">
        <ele>111.653</ele>
        <time>2019-06-16T17:26:01Z</time>
      </trkpt>
      <trkpt lat="43.392536" lon="-4.113228">
        <ele>112.619</ele>
        <time>2019-06-16T17:26:02Z</time>
      </trkpt>
      <trkpt lat="43.392599" lon="-4.113311">
        <ele>113.548</ele>
        <time>2019-06-16T17:26:03Z</time>
      </trkpt>
      <trkpt lat="43.392657" lon="-4.113413">
        <ele>114.159</ele>
        <time>2019-06-16T17:26:04Z</time>
      </trkpt>
      <trkpt lat="43.392709" lon="-4.113519">
        <ele>114.803</ele>
        <time>2019-06-16T17:26:05Z</time>
      </trkpt>
      <trkpt lat="43.392771" lon="-4.113633">
        <ele>115.923</ele>
        <time>2019-06-16T17:26:06Z</time>
      </trkpt>
      <trkpt lat="43.392812" lon="-4.113730">
        <ele>116.508</ele>
        <time>2019-06-16T17:26:07Z</time>
      </trkpt>
      <trkpt lat="43.392857" lon="-4.113840">
        <ele>117.168</ele>
        <time>2019-06-16T17:26:08Z</time>
      </trkpt>
      <trkpt lat="43.392904" lon="-4.113942">
        <ele>117.732</ele>
        <time>2019-06-16T17:26:09Z</time>
      </trkpt>
      <trkpt lat="43.392949" lon="-4.114025">
        <ele>118.372</ele>
        <time>2019-06-16T17:26:10Z</time>
      </trkpt>
      <trkpt lat="43.392979" lon="-4.114097">
        <ele>118.716</ele>
        <time>2019-06-16T17:26:11Z</time>
      </trkpt>
      <trkpt lat="43.393016" lon="-4.114203">
        <ele>119.325</ele>
        <time>2019-06-16T17:26:13Z</time>
      </trkpt>
      <trkpt lat="43.393055" lon="-4.114337">
        <ele>120.025</ele>
        <time>2019-06-16T17:26:15Z</time>
      </trkpt>
      <trkpt lat="43.393074" lon="-4.114445">
        <ele>120.221</ele>
        <time>2019-06-16T17:26:16Z</time>
      </trkpt>
      <trkpt lat="43.393099" lon="-4.114556">
        <ele>120.580</ele>
        <time>2019-06-16T17:26:17Z</time>
      </trkpt>
      <trkpt lat="43.393126" lon="-4.114673">
        <ele>121.015</ele>
        <time>2019-06-16T17:26:18Z</time>
      </trkpt>
      <trkpt lat="43.393159" lon="-4.114801">
        <ele>121.765</ele>
        <time>2019-06-16T17:26:19Z</time>
      </trkpt>
      <trkpt lat="43.393194" lon="-4.114936">
        <ele>122.811</ele>
        <time>2019-06-16T17:26:20Z</time>
      </trkpt>
      <trkpt lat="43.393227" lon="-4.115085">
        <ele>123.908</ele>
        <time>2019-06-16T17:26:21Z</time>
      </trkpt>
      <trkpt lat="43.393262" lon="-4.115236">
        <ele>125.114</ele>
        <time>2019-06-16T17:26:22Z</time>
      </trkpt>
      <trkpt lat="43.393296" lon="-4.115387">
        <ele>126.248</ele>
        <time>2019-06-16T17:26:23Z</time>
      </trkpt>
      <trkpt lat="43.393325" lon="-4.115527">
        <ele>126.938</ele>
        <time>2019-06-16T17:26:24Z</time>
      </trkpt>
      <trkpt lat="43.393357" lon="-4.115669">
        <ele>127.542</ele>
        <time>2019-06-16T17:26:25Z</time>
      </trkpt>
      <trkpt lat="43.393388" lon="-4.115813">
        <ele>128.251</ele>
        <time>2019-06-16T17:26:26Z</time>
      </trkpt>
      <trkpt lat="43.393406" lon="-4.115950">
        <ele>128.541</ele>
        <time>2019-06-16T17:26:27Z</time>
      </trkpt>
      <trkpt lat="43.393418" lon="-4.116091">
        <ele>128.557</ele>
        <time>2019-06-16T17:26:28Z</time>
      </trkpt>
      <trkpt lat="43.393410" lon="-4.116215">
        <ele>129.846</ele>
        <time>2019-06-16T17:26:29Z</time>
      </trkpt>
      <trkpt lat="43.393395" lon="-4.116338">
        <ele>131.217</ele>
        <time>2019-06-16T17:26:30Z</time>
      </trkpt>
      <trkpt lat="43.393357" lon="-4.116450">
        <ele>132.087</ele>
        <time>2019-06-16T17:26:31Z</time>
      </trkpt>
      <trkpt lat="43.393314" lon="-4.116557">
        <ele>132.415</ele>
        <time>2019-06-16T17:26:32Z</time>
      </trkpt>
      <trkpt lat="43.393270" lon="-4.116625">
        <ele>132.008</ele>
        <time>2019-06-16T17:26:33Z</time>
      </trkpt>
      <trkpt lat="43.393256" lon="-4.116719">
        <ele>132.534</ele>
        <time>2019-06-16T17:26:34Z</time>
      </trkpt>
      <trkpt lat="43.393236" lon="-4.116814">
        <ele>132.838</ele>
        <time>2019-06-16T17:26:35Z</time>
      </trkpt>
      <trkpt lat="43.393240" lon="-4.116901">
        <ele>133.658</ele>
        <time>2019-06-16T17:26:36Z</time>
      </trkpt>
      <trkpt lat="43.393271" lon="-4.116972">
        <ele>134.812</ele>
        <time>2019-06-16T17:26:37Z</time>
      </trkpt>
      <trkpt lat="43.393320" lon="-4.117036">
        <ele>136.111</ele>
        <time>2019-06-16T17:26:38Z</time>
      </trkpt>
      <trkpt lat="43.393377" lon="-4.117098">
        <ele>136.721</ele>
        <time>2019-06-16T17:26:39Z</time>
      </trkpt>
      <trkpt lat="43.393441" lon="-4.117155">
        <ele>137.147</ele>
        <time>2019-06-16T17:26:40Z</time>
      </trkpt>
      <trkpt lat="43.393495" lon="-4.117219">
        <ele>137.676</ele>
        <time>2019-06-16T17:26:41Z</time>
      </trkpt>
      <trkpt lat="43.393539" lon="-4.117297">
        <ele>137.816</ele>
        <time>2019-06-16T17:26:42Z</time>
      </trkpt>
      <trkpt lat="43.393558" lon="-4.117396">
        <ele>137.976</ele>
        <time>2019-06-16T17:26:43Z</time>
      </trkpt>
      <trkpt lat="43.393559" lon="-4.117502">
        <ele>138.013</ele>
        <time>2019-06-16T17:26:44Z</time>
      </trkpt>
      <trkpt lat="43.393534" lon="-4.117595">
        <ele>138.408</ele>
        <time>2019-06-16T17:26:45Z</time>
      </trkpt>
      <trkpt lat="43.393482" lon="-4.117661">
        <ele>138.474</ele>
        <time>2019-06-16T17:26:46Z</time>
      </trkpt>
      <trkpt lat="43.393434" lon="-4.117713">
        <ele>138.198</ele>
        <time>2019-06-16T17:26:47Z</time>
      </trkpt>
      <trkpt lat="43.393373" lon="-4.117740">
        <ele>137.588</ele>
        <time>2019-06-16T17:26:48Z</time>
      </trkpt>
      <trkpt lat="43.393308" lon="-4.117740">
        <ele>137.112</ele>
        <time>2019-06-16T17:26:49Z</time>
      </trkpt>
      <trkpt lat="43.393249" lon="-4.117707">
        <ele>137.021</ele>
        <time>2019-06-16T17:26:50Z</time>
      </trkpt>
      <trkpt lat="43.393195" lon="-4.117650">
        <ele>136.891</ele>
        <time>2019-06-16T17:26:51Z</time>
      </trkpt>
      <trkpt lat="43.393161" lon="-4.117562">
        <ele>136.317</ele>
        <time>2019-06-16T17:26:52Z</time>
      </trkpt>
      <trkpt lat="43.393144" lon="-4.117457">
        <ele>135.816</ele>
        <time>2019-06-16T17:26:53Z</time>
      </trkpt>
      <trkpt lat="43.393143" lon="-4.117342">
        <ele>135.479</ele>
        <time>2019-06-16T17:26:54Z</time>
      </trkpt>
      <trkpt lat="43.393157" lon="-4.117223">
        <ele>135.105</ele>
        <time>2019-06-16T17:26:55Z</time>
      </trkpt>
      <trkpt lat="43.393184" lon="-4.117084">
        <ele>134.125</ele>
        <time>2019-06-16T17:26:56Z</time>
      </trkpt>
      <trkpt lat="43.393194" lon="-4.116950">
        <ele>133.008</ele>
        <time>2019-06-16T17:26:57Z</time>
      </trkpt>
      <trkpt lat="43.393212" lon="-4.116805">
        <ele>132.270</ele>
        <time>2019-06-16T17:26:58Z</time>
      </trkpt>
      <trkpt lat="43.393228" lon="-4.116684">
        <ele>131.514</ele>
        <time>2019-06-16T17:26:59Z</time>
      </trkpt>
      <trkpt lat="43.393263" lon="-4.116550">
        <ele>131.194</ele>
        <time>2019-06-16T17:27:00Z</time>
      </trkpt>
      <trkpt lat="43.393295" lon="-4.116413">
        <ele>130.458</ele>
        <time>2019-06-16T17:27:01Z</time>
      </trkpt>
      <trkpt lat="43.393325" lon="-4.116274">
        <ele>129.237</ele>
        <time>2019-06-16T17:27:02Z</time>
      </trkpt>
      <trkpt lat="43.393348" lon="-4.116132">
        <ele>127.667</ele>
        <time>2019-06-16T17:27:03Z</time>
      </trkpt>
      <trkpt lat="43.393355" lon="-4.115999">
        <ele>127.483</ele>
        <time>2019-06-16T17:27:04Z</time>
      </trkpt>
      <trkpt lat="43.393350" lon="-4.115855">
        <ele>127.462</ele>
        <time>2019-06-16T17:27:05Z</time>
      </trkpt>
      <trkpt lat="43.393332" lon="-4.115716">
        <ele>127.092</ele>
        <time>2019-06-16T17:27:06Z</time>
      </trkpt>
      <trkpt lat="43.393315" lon="-4.115585">
        <ele>126.773</ele>
        <time>2019-06-16T17:27:07Z</time>
      </trkpt>
      <trkpt lat="43.393285" lon="-4.115447">
        <ele>126.120</ele>
        <time>2019-06-16T17:27:08Z</time>
      </trkpt>
      <trkpt lat="43.393247" lon="-4.115318">
        <ele>125.008</ele>
        <time>2019-06-16T17:27:09Z</time>
      </trkpt>
      <trkpt lat="43.393203" lon="-4.115187">
        <ele>123.562</ele>
        <time>2019-06-16T17:27:10Z</time>
      </trkpt>
      <trkpt lat="43.393167" lon="-4.115044">
        <ele>122.516</ele>
        <time>2019-06-16T17:27:11Z</time>
      </trkpt>
      <trkpt lat="43.393142" lon="-4.114912">
        <ele>121.756</ele>
        <time>2019-06-16T17:27:12Z</time>
      </trkpt>
      <trkpt lat="43.393108" lon="-4.114780">
        <ele>120.820</ele>
        <time>2019-06-16T17:27:13Z</time>
      </trkpt>
      <trkpt lat="43.393076" lon="-4.114643">
        <ele>120.399</ele>
        <time>2019-06-16T17:27:14Z</time>
      </trkpt>
      <trkpt lat="43.393041" lon="-4.114513">
        <ele>119.839</ele>
        <time>2019-06-16T17:27:15Z</time>
      </trkpt>
      <trkpt lat="43.393006" lon="-4.114384">
        <ele>119.255</ele>
        <time>2019-06-16T17:27:16Z</time>
      </trkpt>
      <trkpt lat="43.392969" lon="-4.114267">
        <ele>118.634</ele>
        <time>2019-06-16T17:27:17Z</time>
      </trkpt>
      <trkpt lat="43.392929" lon="-4.114148">
        <ele>117.824</ele>
        <time>2019-06-16T17:27:18Z</time>
      </trkpt>
      <trkpt lat="43.392885" lon="-4.114044">
        <ele>117.204</ele>
        <time>2019-06-16T17:27:19Z</time>
      </trkpt>
      <trkpt lat="43.392842" lon="-4.113948">
        <ele>116.814</ele>
        <time>2019-06-16T17:27:20Z</time>
      </trkpt>
      <trkpt lat="43.392802" lon="-4.113866">
        <ele>116.308</ele>
        <time>2019-06-16T17:27:21Z</time>
      </trkpt>
      <trkpt lat="43.392761" lon="-4.113796">
        <ele>115.725</ele>
        <time>2019-06-16T17:27:22Z</time>
      </trkpt>
      <trkpt lat="43.392723" lon="-4.113730">
        <ele>115.119</ele>
        <time>2019-06-16T17:27:23Z</time>
      </trkpt>
      <trkpt lat="43.392662" lon="-4.113641">
        <ele>114.099</ele>
        <time>2019-06-16T17:27:25Z</time>
      </trkpt>
      <trkpt lat="43.392630" lon="-4.113571">
        <ele>113.453</ele>
        <time>2019-06-16T17:27:27Z</time>
      </trkpt>
      <trkpt lat="43.392605" lon="-4.113509">
        <ele>113.152</ele>
        <time>2019-06-16T17:27:34Z</time>
      </trkpt>
      <trkpt lat="43.392585" lon="-4.113421">
        <ele>113.062</ele>
        <time>2019-06-16T17:28:49Z</time>
      </trkpt>
      <trkpt lat="43.392564" lon="-4.113367">
        <ele>112.828</ele>
        <time>2019-06-16T17:28:50Z</time>
      </trkpt>
      <trkpt lat="43.392524" lon="-4.113300">
        <ele>112.477</ele>
        <time>2019-06-16T17:28:51Z</time>
      </trkpt>
      <trkpt lat="43.392462" lon="-4.113222">
        <ele>111.443</ele>
        <time>2019-06-16T17:28:52Z</time>
      </trkpt>
      <trkpt lat="43.392397" lon="-4.113150">
        <ele>110.464</ele>
        <time>2019-06-16T17:28:53Z</time>
      </trkpt>
      <trkpt lat="43.392319" lon="-4.113090">
        <ele>109.310</ele>
        <time>2019-06-16T17:28:54Z</time>
      </trkpt>
      <trkpt lat="43.392250" lon="-4.113028">
        <ele>108.508</ele>
        <time>2019-06-16T17:28:55Z</time>
      </trkpt>
      <trkpt lat="43.392151" lon="-4.112955">
        <ele>107.337</ele>
        <time>2019-06-16T17:28:56Z</time>
      </trkpt>
      <trkpt lat="43.392098" lon="-4.112879">
        <ele>106.841</ele>
        <time>2019-06-16T17:28:57Z</time>
      </trkpt>
      <trkpt lat="43.392013" lon="-4.112815">
        <ele>105.931</ele>
        <time>2019-06-16T17:28:58Z</time>
      </trkpt>
      <trkpt lat="43.391938" lon="-4.112751">
        <ele>105.195</ele>
        <time>2019-06-16T17:28:59Z</time>
      </trkpt>
      <trkpt lat="43.391852" lon="-4.112677">
        <ele>104.484</ele>
        <time>2019-06-16T17:29:00Z</time>
      </trkpt>
      <trkpt lat="43.391770" lon="-4.112601">
        <ele>103.864</ele>
        <time>2019-06-16T17:29:01Z</time>
      </trkpt>
      <trkpt lat="43.391688" lon="-4.112532">
        <ele>103.160</ele>
        <time>2019-06-16T17:29:02Z</time>
      </trkpt>
      <trkpt lat="43.391602" lon="-4.112475">
        <ele>102.029</ele>
        <time>2019-06-16T17:29:03Z</time>
      </trkpt>
      <trkpt lat="43.391523" lon="-4.112412">
        <ele>101.254</ele>
        <time>2019-06-16T17:29:04Z</time>
      </trkpt>
      <trkpt lat="43.391456" lon="-4.112289">
        <ele>101.356</ele>
        <time>2019-06-16T17:29:05Z</time>
      </trkpt>
      <trkpt lat="43.391386" lon="-4.112226">
        <ele>100.911</ele>
        <time>2019-06-16T17:29:06Z</time>
      </trkpt>
      <trkpt lat="43.391308" lon="-4.112160">
        <ele>100.308</ele>
        <time>2019-06-16T17:29:07Z</time>
      </trkpt>
      <trkpt lat="43.391227" lon="-4.112088">
        <ele>99.828</ele>
        <time>2019-06-16T17:29:08Z</time>
      </trkpt>
      <trkpt lat="43.391145" lon="-4.112006">
        <ele>99.612</ele>
        <time>2019-06-16T17:29:09Z</time>
      </trkpt>
      <trkpt lat="43.391088" lon="-4.111925">
        <ele>99.722</ele>
        <time>2019-06-16T17:29:10Z</time>
      </trkpt>
      <trkpt lat="43.391008" lon="-4.111852">
        <ele>98.686</ele>
        <time>2019-06-16T17:29:11Z</time>
      </trkpt>
      <trkpt lat="43.390921" lon="-4.111789">
        <ele>97.595</ele>
        <time>2019-06-16T17:29:12Z</time>
      </trkpt>
      <trkpt lat="43.390833" lon="-4.111745">
        <ele>96.425</ele>
        <time>2019-06-16T17:29:13Z</time>
      </trkpt>
      <trkpt lat="43.390759" lon="-4.111680">
        <ele>95.881</ele>
        <time>2019-06-16T17:29:14Z</time>
      </trkpt>
      <trkpt lat="43.390686" lon="-4.111603">
        <ele>95.520</ele>
        <time>2019-06-16T17:29:15Z</time>
      </trkpt>
      <trkpt lat="43.390620" lon="-4.111532">
        <ele>95.323</ele>
        <time>2019-06-16T17:29:16Z</time>
      </trkpt>
      <trkpt lat="43.390544" lon="-4.111455">
        <ele>95.183</ele>
        <time>2019-06-16T17:29:17Z</time>
      </trkpt>
      <trkpt lat="43.390477" lon="-4.111366">
        <ele>94.611</ele>
        <time>2019-06-16T17:29:18Z</time>
      </trkpt>
      <trkpt lat="43.390412" lon="-4.111277">
        <ele>93.608</ele>
        <time>2019-06-16T17:29:19Z</time>
      </trkpt>
      <trkpt lat="43.390350" lon="-4.111186">
        <ele>92.875</ele>
        <time>2019-06-16T17:29:20Z</time>
      </trkpt>
      <trkpt lat="43.390300" lon="-4.111095">
        <ele>92.329</ele>
        <time>2019-06-16T17:29:21Z</time>
      </trkpt>
      <trkpt lat="43.390252" lon="-4.110991">
        <ele>91.549</ele>
        <time>2019-06-16T17:29:22Z</time>
      </trkpt>
      <trkpt lat="43.390203" lon="-4.110897">
        <ele>90.493</ele>
        <time>2019-06-16T17:29:23Z</time>
      </trkpt>
      <trkpt lat="43.390146" lon="-4.110805">
        <ele>89.112</ele>
        <time>2019-06-16T17:29:24Z</time>
      </trkpt>
      <trkpt lat="43.390100" lon="-4.110707">
        <ele>88.382</ele>
        <time>2019-06-16T17:29:25Z</time>
      </trkpt>
      <trkpt lat="43.390047" lon="-4.110614">
        <ele>87.568</ele>
        <time>2019-06-16T17:29:26Z</time>
      </trkpt>
      <trkpt lat="43.389989" lon="-4.110522">
        <ele>87.087</ele>
        <time>2019-06-16T17:29:27Z</time>
      </trkpt>
      <trkpt lat="43.389925" lon="-4.110434">
        <ele>86.458</ele>
        <time>2019-06-16T17:29:28Z</time>
      </trkpt>
      <trkpt lat="43.389867" lon="-4.110354">
        <ele>85.852</ele>
        <time>2019-06-16T17:29:29Z</time>
      </trkpt>
      <trkpt lat="43.389789" lon="-4.110285">
        <ele>84.917</ele>
        <time>2019-06-16T17:29:30Z</time>
      </trkpt>
      <trkpt lat="43.389705" lon="-4.110209">
        <ele>84.008</ele>
        <time>2019-06-16T17:29:31Z</time>
      </trkpt>
      <trkpt lat="43.389628" lon="-4.110143">
        <ele>83.358</ele>
        <time>2019-06-16T17:29:32Z</time>
      </trkpt>
      <trkpt lat="43.389552" lon="-4.110089">
        <ele>82.612</ele>
        <time>2019-06-16T17:29:33Z</time>
      </trkpt>
      <trkpt lat="43.389481" lon="-4.110025">
        <ele>82.282</ele>
        <time>2019-06-16T17:29:34Z</time>
      </trkpt>
      <trkpt lat="43.389404" lon="-4.109956">
        <ele>81.826</ele>
        <time>2019-06-16T17:29:35Z</time>
      </trkpt>
      <trkpt lat="43.389331" lon="-4.109898">
        <ele>81.475</ele>
        <time>2019-06-16T17:29:36Z</time>
      </trkpt>
      <trkpt lat="43.389280" lon="-4.109846">
        <ele>81.465</ele>
        <time>2019-06-16T17:29:37Z</time>
      </trkpt>
      <trkpt lat="43.389228" lon="-4.109774">
        <ele>81.721</ele>
        <time>2019-06-16T17:29:38Z</time>
      </trkpt>
      <trkpt lat="43.389175" lon="-4.109706">
        <ele>82.120</ele>
        <time>2019-06-16T17:29:39Z</time>
      </trkpt>
      <trkpt lat="43.389130" lon="-4.109622">
        <ele>82.278</ele>
        <time>2019-06-16T17:29:40Z</time>
      </trkpt>
      <trkpt lat="43.389116" lon="-4.109530">
        <ele>82.433</ele>
        <time>2019-06-16T17:29:41Z</time>
      </trkpt>
      <trkpt lat="43.389095" lon="-4.109441">
        <ele>82.526</ele>
        <time>2019-06-16T17:29:42Z</time>
      </trkpt>
      <trkpt lat="43.389052" lon="-4.109357">
        <ele>82.208</ele>
        <time>2019-06-16T17:29:43Z</time>
      </trkpt>
      <trkpt lat="43.389017" lon="-4.109273">
        <ele>81.970</ele>
        <time>2019-06-16T17:29:44Z</time>
      </trkpt>
      <trkpt lat="43.388958" lon="-4.109210">
        <ele>81.584</ele>
        <time>2019-06-16T17:29:45Z</time>
      </trkpt>
      <trkpt lat="43.388927" lon="-4.109093">
        <ele>81.574</ele>
        <time>2019-06-16T17:29:46Z</time>
      </trkpt>
      <trkpt lat="43.388902" lon="-4.108992">
        <ele>81.768</ele>
        <time>2019-06-16T17:29:47Z</time>
      </trkpt>
      <trkpt lat="43.388868" lon="-4.108888">
        <ele>81.947</ele>
        <time>2019-06-16T17:29:48Z</time>
      </trkpt>
      <trkpt lat="43.388840" lon="-4.108782">
        <ele>82.097</ele>
        <time>2019-06-16T17:29:49Z</time>
      </trkpt>
      <trkpt lat="43.388839" lon="-4.108664">
        <ele>82.573</ele>
        <time>2019-06-16T17:29:50Z</time>
      </trkpt>
      <trkpt lat="43.388806" lon="-4.108565">
        <ele>82.422</ele>
        <time>2019-06-16T17:29:51Z</time>
      </trkpt>
      <trkpt lat="43.388774" lon="-4.108458">
        <ele>82.232</ele>
        <time>2019-06-16T17:29:52Z</time>
      </trkpt>
      <trkpt lat="43.388752" lon="-4.108376">
        <ele>82.092</ele>
        <time>2019-06-16T17:29:53Z</time>
      </trkpt>
      <trkpt lat="43.388730" lon="-4.108307">
        <ele>82.011</ele>
        <time>2019-06-16T17:29:54Z</time>
      </trkpt>
      <trkpt lat="43.388716" lon="-4.108245">
        <ele>82.208</ele>
        <time>2019-06-16T17:29:55Z</time>
      </trkpt>
      <trkpt lat="43.388684" lon="-4.108152">
        <ele>82.516</ele>
        <time>2019-06-16T17:29:57Z</time>
      </trkpt>
      <trkpt lat="43.388671" lon="-4.108073">
        <ele>82.990</ele>
        <time>2019-06-16T17:30:00Z</time>
      </trkpt>
      <trkpt lat="43.388714" lon="-4.108009">
        <ele>83.230</ele>
        <time>2019-06-16T17:30:02Z</time>
      </trkpt>
      <trkpt lat="43.388778" lon="-4.107973">
        <ele>83.264</ele>
        <time>2019-06-16T17:30:04Z</time>
      </trkpt>
      <trkpt lat="43.388841" lon="-4.107929">
        <ele>83.243</ele>
        <time>2019-06-16T17:30:06Z</time>
      </trkpt>
      <trkpt lat="43.388905" lon="-4.107888">
        <ele>83.093</ele>
        <time>2019-06-16T17:30:08Z</time>
      </trkpt>
      <trkpt lat="43.388952" lon="-4.107857">
        <ele>82.929</ele>
        <time>2019-06-16T17:30:10Z</time>
      </trkpt>
      <trkpt lat="43.388997" lon="-4.107824">
        <ele>82.778</ele>
        <time>2019-06-16T17:30:12Z</time>
      </trkpt>
      <trkpt lat="43.389017" lon="-4.107759">
        <ele>82.512</ele>
        <time>2019-06-16T17:30:18Z</time>
      </trkpt>
      <trkpt lat="43.389002" lon="-4.107697">
        <ele>82.532</ele>
        <time>2019-06-16T17:30:20Z</time>
      </trkpt>
      <trkpt lat="43.388985" lon="-4.107635">
        <ele>82.605</ele>
        <time>2019-06-16T17:30:22Z</time>
      </trkpt>
      <trkpt lat="43.388964" lon="-4.107577">
        <ele>82.908</ele>
        <time>2019-06-16T17:30:24Z</time>
      </trkpt>
      <trkpt lat="43.388936" lon="-4.107525">
        <ele>83.354</ele>
        <time>2019-06-16T17:30:26Z</time>
      </trkpt>
      <trkpt lat="43.388908" lon="-4.107464">
        <ele>83.298</ele>
        <time>2019-06-16T17:30:29Z</time>
      </trkpt>
      <trkpt lat="43.388899" lon="-4.107380">
        <ele>82.258</ele>
        <time>2019-06-16T17:30:32Z</time>
      </trkpt>
      <trkpt lat="43.388904" lon="-4.107316">
        <ele>81.292</ele>
        <time>2019-06-16T17:30:34Z</time>
      </trkpt>
      <trkpt lat="43.388919" lon="-4.107257">
        <ele>80.471</ele>
        <time>2019-06-16T17:30:36Z</time>
      </trkpt>
      <trkpt lat="43.388920" lon="-4.107193">
        <ele>79.751</ele>
        <time>2019-06-16T17:30:42Z</time>
      </trkpt>
      <trkpt lat="43.388906" lon="-4.107094">
        <ele>79.087</ele>
        <time>2019-06-16T17:30:51Z</time>
      </trkpt>
      <trkpt lat="43.388920" lon="-4.106999">
        <ele>78.486</ele>
        <time>2019-06-16T17:30:53Z</time>
      </trkpt>
      <trkpt lat="43.388949" lon="-4.106949">
        <ele>78.052</ele>
        <time>2019-06-16T17:30:55Z</time>
      </trkpt>
      <trkpt lat="43.388994" lon="-4.106963">
        <ele>78.153</ele>
        <time>2019-06-16T17:30:57Z</time>
      </trkpt>
      <trkpt lat="43.389026" lon="-4.107052">
        <ele>78.608</ele>
        <time>2019-06-16T17:30:59Z</time>
      </trkpt>
      <trkpt lat="43.389017" lon="-4.107170">
        <ele>79.208</ele>
        <time>2019-06-16T17:31:01Z</time>
      </trkpt>
      <trkpt lat="43.388971" lon="-4.107248">
        <ele>80.038</ele>
        <time>2019-06-16T17:31:03Z</time>
      </trkpt>
      <trkpt lat="43.388926" lon="-4.107268">
        <ele>80.532</ele>
        <time>2019-06-16T17:31:05Z</time>
      </trkpt>
      <trkpt lat="43.388892" lon="-4.107309">
        <ele>81.242</ele>
        <time>2019-06-16T17:31:15Z</time>
      </trkpt>
      <trkpt lat="43.388936" lon="-4.107333">
        <ele>81.286</ele>
        <time>2019-06-16T17:34:26Z</time>
      </trkpt>
      <trkpt lat="43.388967" lon="-4.107381">
        <ele>81.515</ele>
        <time>2019-06-16T17:34:30Z</time>
      </trkpt>
      <trkpt lat="43.388966" lon="-4.107447">
        <ele>82.345</ele>
        <time>2019-06-16T17:34:34Z</time>
      </trkpt>
      <trkpt lat="43.388956" lon="-4.107523">
        <ele>83.081</ele>
        <time>2019-06-16T17:34:39Z</time>
      </trkpt>
      <trkpt lat="43.388967" lon="-4.107584">
        <ele>82.880</ele>
        <time>2019-06-16T17:34:44Z</time>
      </trkpt>
      <trkpt lat="43.388991" lon="-4.107639">
        <ele>82.628</ele>
        <time>2019-06-16T17:34:48Z</time>
      </trkpt>
      <trkpt lat="43.389016" lon="-4.107705">
        <ele>82.489</ele>
        <time>2019-06-16T17:34:53Z</time>
      </trkpt>
      <trkpt lat="43.389037" lon="-4.107760">
        <ele>82.417</ele>
        <time>2019-06-16T17:34:57Z</time>
      </trkpt>
      <trkpt lat="43.389072" lon="-4.107808">
        <ele>82.508</ele>
        <time>2019-06-16T17:35:02Z</time>
      </trkpt>
      <trkpt lat="43.389122" lon="-4.107807">
        <ele>82.365</ele>
        <time>2019-06-16T17:35:10Z</time>
      </trkpt>
      <trkpt lat="43.389166" lon="-4.107788">
        <ele>82.189</ele>
        <time>2019-06-16T17:35:13Z</time>
      </trkpt>
      <trkpt lat="43.389207" lon="-4.107761">
        <ele>82.079</ele>
        <time>2019-06-16T17:35:18Z</time>
      </trkpt>
      <trkpt lat="43.389259" lon="-4.107758">
        <ele>82.213</ele>
        <time>2019-06-16T17:35:23Z</time>
      </trkpt>
      <trkpt lat="43.389303" lon="-4.107779">
        <ele>82.582</ele>
        <time>2019-06-16T17:35:31Z</time>
      </trkpt>
      <trkpt lat="43.389338" lon="-4.107832">
        <ele>82.892</ele>
        <time>2019-06-16T17:35:46Z</time>
      </trkpt>
      <trkpt lat="43.389378" lon="-4.107877">
        <ele>82.928</ele>
        <time>2019-06-16T17:36:36Z</time>
      </trkpt>
      <trkpt lat="43.389413" lon="-4.107948">
        <ele>83.077</ele>
        <time>2019-06-16T17:36:42Z</time>
      </trkpt>
      <trkpt lat="43.389442" lon="-4.107996">
        <ele>83.098</ele>
        <time>2019-06-16T17:36:45Z</time>
      </trkpt>
      <trkpt lat="43.389482" lon="-4.108046">
        <ele>83.115</ele>
        <time>2019-06-16T17:36:49Z</time>
      </trkpt>
      <trkpt lat="43.389523" lon="-4.108080">
        <ele>83.426</ele>
        <time>2019-06-16T17:36:54Z</time>
      </trkpt>
      <trkpt lat="43.389557" lon="-4.108127">
        <ele>83.708</ele>
        <time>2019-06-16T17:36:58Z</time>
      </trkpt>
      <trkpt lat="43.389598" lon="-4.108170">
        <ele>84.012</ele>
        <time>2019-06-16T17:37:02Z</time>
      </trkpt>
      <trkpt lat="43.389638" lon="-4.108201">
        <ele>84.216</ele>
        <time>2019-06-16T17:37:05Z</time>
      </trkpt>
      <trkpt lat="43.389677" lon="-4.108234">
        <ele>84.596</ele>
        <time>2019-06-16T17:37:08Z</time>
      </trkpt>
      <trkpt lat="43.389715" lon="-4.108283">
        <ele>84.890</ele>
        <time>2019-06-16T17:37:12Z</time>
      </trkpt>
      <trkpt lat="43.389748" lon="-4.108334">
        <ele>85.219</ele>
        <time>2019-06-16T17:37:17Z</time>
      </trkpt>
      <trkpt lat="43.389794" lon="-4.108346">
        <ele>85.599</ele>
        <time>2019-06-16T17:37:37Z</time>
      </trkpt>
      <trkpt lat="43.392884" lon="-4.113767">
        <ele>117.555</ele>
        <time>2019-06-16T18:12:41Z</time>
      </trkpt>
      <trkpt lat="43.392917" lon="-4.113865">
        <ele>118.024</ele>
        <time>2019-06-16T18:13:05Z</time>
      </trkpt>
      <trkpt lat="43.392950" lon="-4.113962">
        <ele>118.483</ele>
        <time>2019-06-16T18:13:06Z</time>
      </trkpt>
      <trkpt lat="43.392988" lon="-4.114078">
        <ele>118.925</ele>
        <time>2019-06-16T18:13:07Z</time>
      </trkpt>
      <trkpt lat="43.393028" lon="-4.114208">
        <ele>119.517</ele>
        <time>2019-06-16T18:13:08Z</time>
      </trkpt>
      <trkpt lat="43.393068" lon="-4.114351">
        <ele>120.108</ele>
        <time>2019-06-16T18:13:09Z</time>
      </trkpt>
      <trkpt lat="43.393111" lon="-4.114508">
        <ele>120.661</ele>
        <time>2019-06-16T18:13:10Z</time>
      </trkpt>
      <trkpt lat="43.393152" lon="-4.114665">
        <ele>121.395</ele>
        <time>2019-06-16T18:13:11Z</time>
      </trkpt>
      <trkpt lat="43.393189" lon="-4.114873">
        <ele>122.435</ele>
        <time>2019-06-16T18:13:12Z</time>
      </trkpt>
      <trkpt lat="43.393255" lon="-4.115069">
        <ele>124.519</ele>
        <time>2019-06-16T18:13:13Z</time>
      </trkpt>
      <trkpt lat="43.393308" lon="-4.115260">
        <ele>126.348</ele>
        <time>2019-06-16T18:13:14Z</time>
      </trkpt>
      <trkpt lat="43.393351" lon="-4.115441">
        <ele>127.358</ele>
        <time>2019-06-16T18:13:15Z</time>
      </trkpt>
      <trkpt lat="43.393387" lon="-4.115614">
        <ele>128.074</ele>
        <time>2019-06-16T18:13:16Z</time>
      </trkpt>
      <trkpt lat="43.393413" lon="-4.115763">
        <ele>128.693</ele>
        <time>2019-06-16T18:13:17Z</time>
      </trkpt>
      <trkpt lat="43.393437" lon="-4.115916">
        <ele>129.125</ele>
        <time>2019-06-16T18:13:18Z</time>
      </trkpt>
      <trkpt lat="43.393446" lon="-4.116069">
        <ele>129.126</ele>
        <time>2019-06-16T18:13:19Z</time>
      </trkpt>
      <trkpt lat="43.393438" lon="-4.116213">
        <ele>130.208</ele>
        <time>2019-06-16T18:13:20Z</time>
      </trkpt>
      <trkpt lat="43.393415" lon="-4.116340">
        <ele>131.508</ele>
        <time>2019-06-16T18:13:21Z</time>
      </trkpt>
      <trkpt lat="43.393386" lon="-4.116470">
        <ele>132.515</ele>
        <time>2019-06-16T18:13:22Z</time>
      </trkpt>
      <trkpt lat="43.393348" lon="-4.116589">
        <ele>133.349</ele>
        <time>2019-06-16T18:13:23Z</time>
      </trkpt>
      <trkpt lat="43.393313" lon="-4.116695">
        <ele>133.749</ele>
        <time>2019-06-16T18:13:24Z</time>
      </trkpt>
      <trkpt lat="43.393292" lon="-4.116789">
        <ele>133.973</ele>
        <time>2019-06-16T18:13:25Z</time>
      </trkpt>
      <trkpt lat="43.393290" lon="-4.116869">
        <ele>134.582</ele>
        <time>2019-06-16T18:13:26Z</time>
      </trkpt>
      <trkpt lat="43.393306" lon="-4.116961">
        <ele>135.512</ele>
        <time>2019-06-16T18:13:27Z</time>
      </trkpt>
      <trkpt lat="43.393335" lon="-4.117039">
        <ele>136.388</ele>
        <time>2019-06-16T18:13:28Z</time>
      </trkpt>
      <trkpt lat="43.393393" lon="-4.117108">
        <ele>136.847</ele>
        <time>2019-06-16T18:13:29Z</time>
      </trkpt>
      <trkpt lat="43.393461" lon="-4.117166">
        <ele>137.398</ele>
        <time>2019-06-16T18:13:30Z</time>
      </trkpt>
      <trkpt lat="43.393514" lon="-4.117229">
        <ele>137.715</ele>
        <time>2019-06-16T18:13:31Z</time>
      </trkpt>
      <trkpt lat="43.393561" lon="-4.117309">
        <ele>137.926</ele>
        <time>2019-06-16T18:13:32Z</time>
      </trkpt>
      <trkpt lat="43.393584" lon="-4.117406">
        <ele>138.008</ele>
        <time>2019-06-16T18:13:33Z</time>
      </trkpt>
      <trkpt lat="43.393593" lon="-4.117510">
        <ele>138.172</ele>
        <time>2019-06-16T18:13:34Z</time>
      </trkpt>
      <trkpt lat="43.393579" lon="-4.117618">
        <ele>138.736</ele>
        <time>2019-06-16T18:13:35Z</time>
      </trkpt>
      <trkpt lat="43.393531" lon="-4.117732">
        <ele>138.946</ele>
        <time>2019-06-16T18:13:36Z</time>
      </trkpt>
      <trkpt lat="43.393487" lon="-4.117848">
        <ele>138.980</ele>
        <time>2019-06-16T18:13:37Z</time>
      </trkpt>
      <trkpt lat="43.393439" lon="-4.117977">
        <ele>138.939</ele>
        <time>2019-06-16T18:13:38Z</time>
      </trkpt>
      <trkpt lat="43.393413" lon="-4.118124">
        <ele>139.129</ele>
        <time>2019-06-16T18:13:39Z</time>
      </trkpt>
      <trkpt lat="43.393412" lon="-4.118269">
        <ele>139.645</ele>
        <time>2019-06-16T18:13:40Z</time>
      </trkpt>
      <trkpt lat="43.393429" lon="-4.118419">
        <ele>140.444</ele>
        <time>2019-06-16T18:13:41Z</time>
      </trkpt>
      <trkpt lat="43.393476" lon="-4.118564">
        <ele>140.919</ele>
        <time>2019-06-16T18:13:42Z</time>
      </trkpt>
      <trkpt lat="43.393522" lon="-4.118708">
        <ele>140.709</ele>
        <time>2019-06-16T18:13:43Z</time>
      </trkpt>
      <trkpt lat="43.393568" lon="-4.118875">
        <ele>139.919</ele>
        <time>2019-06-16T18:13:44Z</time>
      </trkpt>
      <trkpt lat="43.393601" lon="-4.119036">
        <ele>139.308</ele>
        <time>2019-06-16T18:13:45Z</time>
      </trkpt>
      <trkpt lat="43.393635" lon="-4.119217">
        <ele>139.764</ele>
        <time>2019-06-16T18:13:46Z</time>
      </trkpt>
      <trkpt lat="43.393658" lon="-4.119402">
        <ele>139.928</ele>
        <time>2019-06-16T18:13:47Z</time>
      </trkpt>
      <trkpt lat="43.393669" lon="-4.119595">
        <ele>139.938</ele>
        <time>2019-06-16T18:13:48Z</time>
      </trkpt>
      <trkpt lat="43.393669" lon="-4.119788">
        <ele>139.332</ele>
        <time>2019-06-16T18:13:49Z</time>
      </trkpt>
      <trkpt lat="43.393649" lon="-4.119984">
        <ele>138.011</ele>
        <time>2019-06-16T18:13:50Z</time>
      </trkpt>
      <trkpt lat="43.393612" lon="-4.120175">
        <ele>136.711</ele>
        <time>2019-06-16T18:13:51Z</time>
      </trkpt>
      <trkpt lat="43.393579" lon="-4.120368">
        <ele>136.827</ele>
        <time>2019-06-16T18:13:52Z</time>
      </trkpt>
      <trkpt lat="43.393517" lon="-4.120557">
        <ele>137.086</ele>
        <time>2019-06-16T18:13:53Z</time>
      </trkpt>
      <trkpt lat="43.393441" lon="-4.120745">
        <ele>135.617</ele>
        <time>2019-06-16T18:13:54Z</time>
      </trkpt>
      <trkpt lat="43.393356" lon="-4.120937">
        <ele>133.787</ele>
        <time>2019-06-16T18:13:55Z</time>
      </trkpt>
      <trkpt lat="43.393269" lon="-4.121135">
        <ele>133.515</ele>
        <time>2019-06-16T18:13:56Z</time>
      </trkpt>
      <trkpt lat="43.393183" lon="-4.121332">
        <ele>132.208</ele>
        <time>2019-06-16T18:13:57Z</time>
      </trkpt>
      <trkpt lat="43.393088" lon="-4.121520">
        <ele>130.394</ele>
        <time>2019-06-16T18:13:58Z</time>
      </trkpt>
      <trkpt lat="43.393023" lon="-4.121718">
        <ele>128.938</ele>
        <time>2019-06-16T18:13:59Z</time>
      </trkpt>
      <trkpt lat="43.392959" lon="-4.121934">
        <ele>128.898</ele>
        <time>2019-06-16T18:14:00Z</time>
      </trkpt>
      <trkpt lat="43.392908" lon="-4.122150">
        <ele>126.022</ele>
        <time>2019-06-16T18:14:01Z</time>
      </trkpt>
      <trkpt lat="43.392874" lon="-4.122376">
        <ele>123.921</ele>
        <time>2019-06-16T18:14:02Z</time>
      </trkpt>
      <trkpt lat="43.392845" lon="-4.122607">
        <ele>122.241</ele>
        <time>2019-06-16T18:14:03Z</time>
      </trkpt>
      <trkpt lat="43.392836" lon="-4.122815">
        <ele>120.417</ele>
        <time>2019-06-16T18:14:04Z</time>
      </trkpt>
      <trkpt lat="43.392814" lon="-4.123015">
        <ele>118.856</ele>
        <time>2019-06-16T18:14:05Z</time>
      </trkpt>
      <trkpt lat="43.392793" lon="-4.123205">
        <ele>117.281</ele>
        <time>2019-06-16T18:14:06Z</time>
      </trkpt>
      <trkpt lat="43.392749" lon="-4.123395">
        <ele>116.261</ele>
        <time>2019-06-16T18:14:07Z</time>
      </trkpt>
      <trkpt lat="43.392705" lon="-4.123597">
        <ele>115.617</ele>
        <time>2019-06-16T18:14:08Z</time>
      </trkpt>
      <trkpt lat="43.392628" lon="-4.123754">
        <ele>114.508</ele>
        <time>2019-06-16T18:14:09Z</time>
      </trkpt>
      <trkpt lat="43.392561" lon="-4.123924">
        <ele>113.141</ele>
        <time>2019-06-16T18:14:10Z</time>
      </trkpt>
      <trkpt lat="43.392475" lon="-4.124096">
        <ele>111.465</ele>
        <time>2019-06-16T18:14:11Z</time>
      </trkpt>
      <trkpt lat="43.392397" lon="-4.124270">
        <ele>111.185</ele>
        <time>2019-06-16T18:14:12Z</time>
      </trkpt>
      <trkpt lat="43.392326" lon="-4.124454">
        <ele>110.289</ele>
        <time>2019-06-16T18:14:13Z</time>
      </trkpt>
      <trkpt lat="43.392260" lon="-4.124644">
        <ele>109.098</ele>
        <time>2019-06-16T18:14:14Z</time>
      </trkpt>
      <trkpt lat="43.392228" lon="-4.124852">
        <ele>107.118</ele>
        <time>2019-06-16T18:14:15Z</time>
      </trkpt>
      <trkpt lat="43.392216" lon="-4.125046">
        <ele>105.764</ele>
        <time>2019-06-16T18:14:16Z</time>
      </trkpt>
      <trkpt lat="43.392215" lon="-4.125242">
        <ele>104.363</ele>
        <time>2019-06-16T18:14:17Z</time>
      </trkpt>
      <trkpt lat="43.392224" lon="-4.125449">
        <ele>102.199</ele>
        <time>2019-06-16T18:14:18Z</time>
      </trkpt>
      <trkpt lat="43.392276" lon="-4.125645">
        <ele>99.807</ele>
        <time>2019-06-16T18:14:19Z</time>
      </trkpt>
      <trkpt lat="43.392338" lon="-4.125847">
        <ele>96.927</ele>
        <time>2019-06-16T18:14:20Z</time>
      </trkpt>
      <trkpt lat="43.392420" lon="-4.126054">
        <ele>95.008</ele>
        <time>2019-06-16T18:14:21Z</time>
      </trkpt>
      <trkpt lat="43.392500" lon="-4.126258">
        <ele>94.012</ele>
        <time>2019-06-16T18:14:22Z</time>
      </trkpt>
      <trkpt lat="43.392598" lon="-4.126438">
        <ele>93.976</ele>
        <time>2019-06-16T18:14:23Z</time>
      </trkpt>
      <trkpt lat="43.392681" lon="-4.126645">
        <ele>93.166</ele>
        <time>2019-06-16T18:14:24Z</time>
      </trkpt>
      <trkpt lat="43.392767" lon="-4.126862">
        <ele>91.780</ele>
        <time>2019-06-16T18:14:25Z</time>
      </trkpt>
      <trkpt lat="43.392843" lon="-4.127077">
        <ele>91.059</ele>
        <time>2019-06-16T18:14:26Z</time>
      </trkpt>
      <trkpt lat="43.392906" lon="-4.127301">
        <ele>90.599</ele>
        <time>2019-06-16T18:14:27Z</time>
      </trkpt>
      <trkpt lat="43.392964" lon="-4.127532">
        <ele>91.175</ele>
        <time>2019-06-16T18:14:28Z</time>
      </trkpt>
      <trkpt lat="43.393022" lon="-4.127756">
        <ele>90.684</ele>
        <time>2019-06-16T18:14:29Z</time>
      </trkpt>
      <trkpt lat="43.393077" lon="-4.127981">
        <ele>89.722</ele>
        <time>2019-06-16T18:14:30Z</time>
      </trkpt>
      <trkpt lat="43.393090" lon="-4.128191">
        <ele>87.562</ele>
        <time>2019-06-16T18:14:31Z</time>
      </trkpt>
      <trkpt lat="43.393127" lon="-4.128424">
        <ele>85.608</ele>
        <time>2019-06-16T18:14:32Z</time>
      </trkpt>
      <trkpt lat="43.393142" lon="-4.128649">
        <ele>83.308</ele>
        <time>2019-06-16T18:14:33Z</time>
      </trkpt>
      <trkpt lat="43.393147" lon="-4.128882">
        <ele>82.365</ele>
        <time>2019-06-16T18:14:34Z</time>
      </trkpt>
      <trkpt lat="43.393151" lon="-4.129114">
        <ele>81.689</ele>
        <time>2019-06-16T18:14:35Z</time>
      </trkpt>
      <trkpt lat="43.393156" lon="-4.129343">
        <ele>80.349</ele>
        <time>2019-06-16T18:14:36Z</time>
      </trkpt>
      <trkpt lat="43.393148" lon="-4.129559">
        <ele>78.623</ele>
        <time>2019-06-16T18:14:37Z</time>
      </trkpt>
      <trkpt lat="43.393132" lon="-4.129769">
        <ele>76.982</ele>
        <time>2019-06-16T18:14:38Z</time>
      </trkpt>
      <trkpt lat="43.393133" lon="-4.129981">
        <ele>76.172</ele>
        <time>2019-06-16T18:14:39Z</time>
      </trkpt>
      <trkpt lat="43.393119" lon="-4.130181">
        <ele>74.948</ele>
        <time>2019-06-16T18:14:40Z</time>
      </trkpt>
      <trkpt lat="43.393105" lon="-4.130373">
        <ele>73.997</ele>
        <time>2019-06-16T18:14:41Z</time>
      </trkpt>
      <trkpt lat="43.393091" lon="-4.130556">
        <ele>73.374</ele>
        <time>2019-06-16T18:14:42Z</time>
      </trkpt>
      <trkpt lat="43.393069" lon="-4.130743">
        <ele>72.356</ele>
        <time>2019-06-16T18:14:43Z</time>
      </trkpt>
      <trkpt lat="43.393058" lon="-4.130922">
        <ele>71.721</ele>
        <time>2019-06-16T18:14:44Z</time>
      </trkpt>
      <trkpt lat="43.393046" lon="-4.131098">
        <ele>70.908</ele>
        <time>2019-06-16T18:14:45Z</time>
      </trkpt>
      <trkpt lat="43.393047" lon="-4.131269">
        <ele>70.380</ele>
        <time>2019-06-16T18:14:46Z</time>
      </trkpt>
      <trkpt lat="43.393057" lon="-4.131439">
        <ele>69.554</ele>
        <time>2019-06-16T18:14:47Z</time>
      </trkpt>
      <trkpt lat="43.393084" lon="-4.131591">
        <ele>68.734</ele>
        <time>2019-06-16T18:14:48Z</time>
      </trkpt>
      <trkpt lat="43.393116" lon="-4.131739">
        <ele>68.518</ele>
        <time>2019-06-16T18:14:49Z</time>
      </trkpt>
      <trkpt lat="43.393151" lon="-4.131900">
        <ele>68.427</ele>
        <time>2019-06-16T18:14:50Z</time>
      </trkpt>
      <trkpt lat="43.393199" lon="-4.132046">
        <ele>68.277</ele>
        <time>2019-06-16T18:14:51Z</time>
      </trkpt>
      <trkpt lat="43.393244" lon="-4.132210">
        <ele>67.573</ele>
        <time>2019-06-16T18:14:52Z</time>
      </trkpt>
      <trkpt lat="43.393295" lon="-4.132377">
        <ele>66.312</ele>
        <time>2019-06-16T18:14:53Z</time>
      </trkpt>
      <trkpt lat="43.393343" lon="-4.132546">
        <ele>64.874</ele>
        <time>2019-06-16T18:14:54Z</time>
      </trkpt>
      <trkpt lat="43.393404" lon="-4.132719">
        <ele>64.556</ele>
        <time>2019-06-16T18:14:55Z</time>
      </trkpt>
      <trkpt lat="43.393458" lon="-4.132879">
        <ele>63.821</ele>
        <time>2019-06-16T18:14:56Z</time>
      </trkpt>
      <trkpt lat="43.393511" lon="-4.133048">
        <ele>62.108</ele>
        <time>2019-06-16T18:14:57Z</time>
      </trkpt>
      <trkpt lat="43.393558" lon="-4.133211">
        <ele>61.070</ele>
        <time>2019-06-16T18:14:58Z</time>
      </trkpt>
      <trkpt lat="43.393604" lon="-4.133377">
        <ele>60.074</ele>
        <time>2019-06-16T18:14:59Z</time>
      </trkpt>
      <trkpt lat="43.393649" lon="-4.133528">
        <ele>59.944</ele>
        <time>2019-06-16T18:15:00Z</time>
      </trkpt>
      <trkpt lat="43.393696" lon="-4.133683">
        <ele>59.548</ele>
        <time>2019-06-16T18:15:01Z</time>
      </trkpt>
      <trkpt lat="43.393742" lon="-4.133836">
        <ele>59.117</ele>
        <time>2019-06-16T18:15:02Z</time>
      </trkpt>
      <trkpt lat="43.393795" lon="-4.133983">
        <ele>58.817</ele>
        <time>2019-06-16T18:15:03Z</time>
      </trkpt>
      <trkpt lat="43.393843" lon="-4.134131">
        <ele>58.343</ele>
        <time>2019-06-16T18:15:04Z</time>
      </trkpt>
      <trkpt lat="43.393903" lon="-4.134283">
        <ele>58.012</ele>
        <time>2019-06-16T18:15:05Z</time>
      </trkpt>
      <trkpt lat="43.393964" lon="-4.134442">
        <ele>57.785</ele>
        <time>2019-06-16T18:15:06Z</time>
      </trkpt>
      <trkpt lat="43.394014" lon="-4.134597">
        <ele>57.589</ele>
        <time>2019-06-16T18:15:07Z</time>
      </trkpt>
      <trkpt lat="43.394059" lon="-4.134752">
        <ele>57.317</ele>
        <time>2019-06-16T18:15:08Z</time>
      </trkpt>
      <trkpt lat="43.394108" lon="-4.134917">
        <ele>57.108</ele>
        <time>2019-06-16T18:15:09Z</time>
      </trkpt>
      <trkpt lat="43.394155" lon="-4.135075">
        <ele>57.311</ele>
        <time>2019-06-16T18:15:10Z</time>
      </trkpt>
      <trkpt lat="43.394207" lon="-4.135229">
        <ele>57.775</ele>
        <time>2019-06-16T18:15:11Z</time>
      </trkpt>
      <trkpt lat="43.394249" lon="-4.135387">
        <ele>58.165</ele>
        <time>2019-06-16T18:15:12Z</time>
      </trkpt>
      <trkpt lat="43.394298" lon="-4.135544">
        <ele>58.529</ele>
        <time>2019-06-16T18:15:13Z</time>
      </trkpt>
      <trkpt lat="43.394353" lon="-4.135733">
        <ele>58.538</ele>
        <time>2019-06-16T18:15:14Z</time>
      </trkpt>
      <trkpt lat="43.394406" lon="-4.135904">
        <ele>58.518</ele>
        <time>2019-06-16T18:15:15Z</time>
      </trkpt>
      <trkpt lat="43.394460" lon="-4.136077">
        <ele>58.884</ele>
        <time>2019-06-16T18:15:16Z</time>
      </trkpt>
      <trkpt lat="43.394513" lon="-4.136244">
        <ele>59.083</ele>
        <time>2019-06-16T18:15:17Z</time>
      </trkpt>
      <trkpt lat="43.394565" lon="-4.136400">
        <ele>59.261</ele>
        <time>2019-06-16T18:15:18Z</time>
      </trkpt>
      <trkpt lat="43.394610" lon="-4.136575">
        <ele>59.521</ele>
        <time>2019-06-16T18:15:19Z</time>
      </trkpt>
      <trkpt lat="43.394669" lon="-4.136750">
        <ele>59.713</ele>
        <time>2019-06-16T18:15:20Z</time>
      </trkpt>
      <trkpt lat="43.394722" lon="-4.136922">
        <ele>59.908</ele>
        <time>2019-06-16T18:15:21Z</time>
      </trkpt>
      <trkpt lat="43.394796" lon="-4.137101">
        <ele>59.939</ele>
        <time>2019-06-16T18:15:22Z</time>
      </trkpt>
      <trkpt lat="43.394852" lon="-4.137273">
        <ele>59.863</ele>
        <time>2019-06-16T18:15:23Z</time>
      </trkpt>
      <trkpt lat="43.394897" lon="-4.137443">
        <ele>59.913</ele>
        <time>2019-06-16T18:15:24Z</time>
      </trkpt>
      <trkpt lat="43.394949" lon="-4.137624">
        <ele>60.117</ele>
        <time>2019-06-16T18:15:25Z</time>
      </trkpt>
      <trkpt lat="43.395006" lon="-4.137793">
        <ele>60.196</ele>
        <time>2019-06-16T18:15:26Z</time>
      </trkpt>
      <trkpt lat="43.395082" lon="-4.137974">
        <ele>60.426</ele>
        <time>2019-06-16T18:15:27Z</time>
      </trkpt>
      <trkpt lat="43.395149" lon="-4.138179">
        <ele>60.522</ele>
        <time>2019-06-16T18:15:28Z</time>
      </trkpt>
      <trkpt lat="43.395236" lon="-4.138367">
        <ele>59.961</ele>
        <time>2019-06-16T18:15:29Z</time>
      </trkpt>
      <trkpt lat="43.395304" lon="-4.138556">
        <ele>59.533</ele>
        <time>2019-06-16T18:15:30Z</time>
      </trkpt>
      <trkpt lat="43.395379" lon="-4.138753">
        <ele>59.423</ele>
        <time>2019-06-16T18:15:31Z</time>
      </trkpt>
      <trkpt lat="43.395445" lon="-4.138957">
        <ele>59.815</ele>
        <time>2019-06-16T18:15:32Z</time>
      </trkpt>
      <trkpt lat="43.395528" lon="-4.139181">
        <ele>59.808</ele>
        <time>2019-06-16T18:15:33Z</time>
      </trkpt>
      <trkpt lat="43.395594" lon="-4.139406">
        <ele>59.576</ele>
        <time>2019-06-16T18:15:34Z</time>
      </trkpt>
      <trkpt lat="43.395673" lon="-4.139635">
        <ele>60.350</ele>
        <time>2019-06-16T18:15:35Z</time>
      </trkpt>
      <trkpt lat="43.395757" lon="-4.139895">
        <ele>60.290</ele>
        <time>2019-06-16T18:15:36Z</time>
      </trkpt>
      <trkpt lat="43.395804" lon="-4.140159">
        <ele>59.584</ele>
        <time>2019-06-16T18:15:37Z</time>
      </trkpt>
      <trkpt lat="43.395855" lon="-4.140435">
        <ele>58.563</ele>
        <time>2019-06-16T18:15:38Z</time>
      </trkpt>
      <trkpt lat="43.395879" lon="-4.140708">
        <ele>58.923</ele>
        <time>2019-06-16T18:15:39Z</time>
      </trkpt>
      <trkpt lat="43.395909" lon="-4.140975">
        <ele>59.499</ele>
        <time>2019-06-16T18:15:40Z</time>
      </trkpt>
      <trkpt lat="43.395960" lon="-4.141262">
        <ele>60.138</ele>
        <time>2019-06-16T18:15:41Z</time>
      </trkpt>
      <trkpt lat="43.396005" lon="-4.141533">
        <ele>60.725</ele>
        <time>2019-06-16T18:15:42Z</time>
      </trkpt>
      <trkpt lat="43.396049" lon="-4.141804">
        <ele>61.126</ele>
        <time>2019-06-16T18:15:43Z</time>
      </trkpt>
      <trkpt lat="43.396086" lon="-4.142067">
        <ele>61.608</ele>
        <time>2019-06-16T18:15:44Z</time>
      </trkpt>
      <trkpt lat="43.396115" lon="-4.142321">
        <ele>62.708</ele>
        <time>2019-06-16T18:15:45Z</time>
      </trkpt>
      <trkpt lat="43.396143" lon="-4.142574">
        <ele>64.225</ele>
        <time>2019-06-16T18:15:46Z</time>
      </trkpt>
      <trkpt lat="43.396174" lon="-4.142808">
        <ele>64.829</ele>
        <time>2019-06-16T18:15:47Z</time>
      </trkpt>
      <trkpt lat="43.396213" lon="-4.143041">
        <ele>64.649</ele>
        <time>2019-06-16T18:15:48Z</time>
      </trkpt>
      <trkpt lat="43.396245" lon="-4.143299">
        <ele>65.433</ele>
        <time>2019-06-16T18:15:49Z</time>
      </trkpt>
      <trkpt lat="43.396280" lon="-4.143547">
        <ele>67.422</ele>
        <time>2019-06-16T18:15:50Z</time>
      </trkpt>
      <trkpt lat="43.396314" lon="-4.143816">
        <ele>70.162</ele>
        <time>2019-06-16T18:15:51Z</time>
      </trkpt>
      <trkpt lat="43.396349" lon="-4.144064">
        <ele>70.838</ele>
        <time>2019-06-16T18:15:52Z</time>
      </trkpt>
      <trkpt lat="43.396342" lon="-4.144281">
        <ele>72.397</ele>
        <time>2019-06-16T18:15:53Z</time>
      </trkpt>
      <trkpt lat="43.396367" lon="-4.144532">
        <ele>71.234</ele>
        <time>2019-06-16T18:15:54Z</time>
      </trkpt>
      <trkpt lat="43.396394" lon="-4.144786">
        <ele>71.455</ele>
        <time>2019-06-16T18:15:55Z</time>
      </trkpt>
      <trkpt lat="43.396371" lon="-4.145022">
        <ele>73.110</ele>
        <time>2019-06-16T18:15:56Z</time>
      </trkpt>
      <trkpt lat="43.396377" lon="-4.145283">
        <ele>74.008</ele>
        <time>2019-06-16T18:15:57Z</time>
      </trkpt>
      <trkpt lat="43.396350" lon="-4.145517">
        <ele>75.796</ele>
        <time>2019-06-16T18:15:58Z</time>
      </trkpt>
      <trkpt lat="43.396323" lon="-4.145768">
        <ele>77.540</ele>
        <time>2019-06-16T18:15:59Z</time>
      </trkpt>
      <trkpt lat="43.396284" lon="-4.146012">
        <ele>78.420</ele>
        <time>2019-06-16T18:16:01Z</time>
      </trkpt>
      <trkpt lat="43.396251" lon="-4.146251">
        <ele>78.514</ele>
        <time>2019-06-16T18:16:02Z</time>
      </trkpt>
      <trkpt lat="43.396214" lon="-4.146482">
        <ele>78.683</ele>
        <time>2019-06-16T18:16:03Z</time>
      </trkpt>
      <trkpt lat="43.396196" lon="-4.146722">
        <ele>79.033</ele>
        <time>2019-06-16T18:16:04Z</time>
      </trkpt>
      <trkpt lat="43.396191" lon="-4.146954">
        <ele>79.039</ele>
        <time>2019-06-16T18:16:05Z</time>
      </trkpt>
      <trkpt lat="43.396197" lon="-4.147180">
        <ele>78.498</ele>
        <time>2019-06-16T18:16:06Z</time>
      </trkpt>
      <trkpt lat="43.396206" lon="-4.147397">
        <ele>78.382</ele>
        <time>2019-06-16T18:16:07Z</time>
      </trkpt>
      <trkpt lat="43.396217" lon="-4.147610">
        <ele>78.043</ele>
        <time>2019-06-16T18:16:08Z</time>
      </trkpt>
      <trkpt lat="43.396239" lon="-4.147813">
        <ele>77.317</ele>
        <time>2019-06-16T18:16:09Z</time>
      </trkpt>
      <trkpt lat="43.396257" lon="-4.148019">
        <ele>76.708</ele>
        <time>2019-06-16T18:16:10Z</time>
      </trkpt>
      <trkpt lat="43.396273" lon="-4.148219">
        <ele>76.091</ele>
        <time>2019-06-16T18:16:11Z</time>
      </trkpt>
      <trkpt lat="43.396292" lon="-4.148415">
        <ele>75.755</ele>
        <time>2019-06-16T18:16:12Z</time>
      </trkpt>
      <trkpt lat="43.396311" lon="-4.148604">
        <ele>75.725</ele>
        <time>2019-06-16T18:16:13Z</time>
      </trkpt>
      <trkpt lat="43.396336" lon="-4.148782">
        <ele>75.249</ele>
        <time>2019-06-16T18:16:14Z</time>
      </trkpt>
      <trkpt lat="43.396354" lon="-4.148973">
        <ele>74.618</ele>
        <time>2019-06-16T18:16:15Z</time>
      </trkpt>
      <trkpt lat="43.396373" lon="-4.149157">
        <ele>74.058</ele>
        <time>2019-06-16T18:16:16Z</time>
      </trkpt>
      <trkpt lat="43.396393" lon="-4.149327">
        <ele>73.414</ele>
        <time>2019-06-16T18:16:17Z</time>
      </trkpt>
      <trkpt lat="43.396411" lon="-4.149499">
        <ele>72.723</ele>
        <time>2019-06-16T18:16:18Z</time>
      </trkpt>
      <trkpt lat="43.396430" lon="-4.149678">
        <ele>71.639</ele>
        <time>2019-06-16T18:16:19Z</time>
      </trkpt>
      <trkpt lat="43.396450" lon="-4.149866">
        <ele>70.801</ele>
        <time>2019-06-16T18:16:20Z</time>
      </trkpt>
      <trkpt lat="43.396473" lon="-4.150056">
        <ele>70.021</ele>
        <time>2019-06-16T18:16:21Z</time>
      </trkpt>
      <trkpt lat="43.396489" lon="-4.150254">
        <ele>69.108</ele>
        <time>2019-06-16T18:16:22Z</time>
      </trkpt>
      <trkpt lat="43.396506" lon="-4.150456">
        <ele>67.356</ele>
        <time>2019-06-16T18:16:23Z</time>
      </trkpt>
      <trkpt lat="43.396521" lon="-4.150667">
        <ele>66.160</ele>
        <time>2019-06-16T18:16:24Z</time>
      </trkpt>
      <trkpt lat="43.396538" lon="-4.150884">
        <ele>65.240</ele>
        <time>2019-06-16T18:16:25Z</time>
      </trkpt>
      <trkpt lat="43.396548" lon="-4.151107">
        <ele>63.664</ele>
        <time>2019-06-16T18:16:26Z</time>
      </trkpt>
      <trkpt lat="43.396555" lon="-4.151337">
        <ele>62.873</ele>
        <time>2019-06-16T18:16:27Z</time>
      </trkpt>
      <trkpt lat="43.396557" lon="-4.151577">
        <ele>61.013</ele>
        <time>2019-06-16T18:16:28Z</time>
      </trkpt>
      <trkpt lat="43.396549" lon="-4.151819">
        <ele>59.319</ele>
        <time>2019-06-16T18:16:29Z</time>
      </trkpt>
      <trkpt lat="43.396539" lon="-4.152067">
        <ele>57.728</ele>
        <time>2019-06-16T18:16:30Z</time>
      </trkpt>
      <trkpt lat="43.396522" lon="-4.152321">
        <ele>55.616</ele>
        <time>2019-06-16T18:16:31Z</time>
      </trkpt>
      <trkpt lat="43.396498" lon="-4.152582">
        <ele>53.576</ele>
        <time>2019-06-16T18:16:32Z</time>
      </trkpt>
      <trkpt lat="43.396480" lon="-4.152852">
        <ele>52.013</ele>
        <time>2019-06-16T18:16:33Z</time>
      </trkpt>
      <trkpt lat="43.396448" lon="-4.153104">
        <ele>51.008</ele>
        <time>2019-06-16T18:16:34Z</time>
      </trkpt>
      <trkpt lat="43.396413" lon="-4.153370">
        <ele>49.794</ele>
        <time>2019-06-16T18:16:35Z</time>
      </trkpt>
      <trkpt lat="43.396377" lon="-4.153648">
        <ele>48.938</ele>
        <time>2019-06-16T18:16:36Z</time>
      </trkpt>
      <trkpt lat="43.396338" lon="-4.153920">
        <ele>47.968</ele>
        <time>2019-06-16T18:16:37Z</time>
      </trkpt>
      <trkpt lat="43.396307" lon="-4.154187">
        <ele>46.922</ele>
        <time>2019-06-16T18:16:38Z</time>
      </trkpt>
      <trkpt lat="43.396271" lon="-4.154457">
        <ele>45.441</ele>
        <time>2019-06-16T18:16:39Z</time>
      </trkpt>
      <trkpt lat="43.396235" lon="-4.154720">
        <ele>45.051</ele>
        <time>2019-06-16T18:16:40Z</time>
      </trkpt>
      <trkpt lat="43.396201" lon="-4.154983">
        <ele>44.747</ele>
        <time>2019-06-16T18:16:41Z</time>
      </trkpt>
      <trkpt lat="43.396165" lon="-4.155257">
        <ele>44.856</ele>
        <time>2019-06-16T18:16:42Z</time>
      </trkpt>
      <trkpt lat="43.396135" lon="-4.155527">
        <ele>45.067</ele>
        <time>2019-06-16T18:16:43Z</time>
      </trkpt>
      <trkpt lat="43.396108" lon="-4.155792">
        <ele>45.981</ele>
        <time>2019-06-16T18:16:44Z</time>
      </trkpt>
      <trkpt lat="43.396072" lon="-4.156036">
        <ele>48.019</ele>
        <time>2019-06-16T18:16:45Z</time>
      </trkpt>
      <trkpt lat="43.396041" lon="-4.156271">
        <ele>49.308</ele>
        <time>2019-06-16T18:16:46Z</time>
      </trkpt>
      <trkpt lat="43.396003" lon="-4.156504">
        <ele>50.399</ele>
        <time>2019-06-16T18:16:47Z</time>
      </trkpt>
      <trkpt lat="43.395970" lon="-4.156742">
        <ele>50.433</ele>
        <time>2019-06-16T18:16:48Z</time>
      </trkpt>
      <trkpt lat="43.395945" lon="-4.156978">
        <ele>50.183</ele>
        <time>2019-06-16T18:16:49Z</time>
      </trkpt>
      <trkpt lat="43.395926" lon="-4.157210">
        <ele>50.697</ele>
        <time>2019-06-16T18:16:50Z</time>
      </trkpt>
      <trkpt lat="43.395896" lon="-4.157440">
        <ele>51.026</ele>
        <time>2019-06-16T18:16:51Z</time>
      </trkpt>
      <trkpt lat="43.395871" lon="-4.157686">
        <ele>51.036</ele>
        <time>2019-06-16T18:16:52Z</time>
      </trkpt>
      <trkpt lat="43.395854" lon="-4.157934">
        <ele>50.562</ele>
        <time>2019-06-16T18:16:53Z</time>
      </trkpt>
      <trkpt lat="43.395843" lon="-4.158181">
        <ele>50.011</ele>
        <time>2019-06-16T18:16:54Z</time>
      </trkpt>
      <trkpt lat="43.395839" lon="-4.158436">
        <ele>50.062</ele>
        <time>2019-06-16T18:16:55Z</time>
      </trkpt>
      <trkpt lat="43.395841" lon="-4.158692">
        <ele>49.783</ele>
        <time>2019-06-16T18:16:56Z</time>
      </trkpt>
      <trkpt lat="43.395851" lon="-4.158950">
        <ele>48.911</ele>
        <time>2019-06-16T18:16:57Z</time>
      </trkpt>
      <trkpt lat="43.395888" lon="-4.159174">
        <ele>48.608</ele>
        <time>2019-06-16T18:16:58Z</time>
      </trkpt>
      <trkpt lat="43.395911" lon="-4.159423">
        <ele>47.559</ele>
        <time>2019-06-16T18:16:59Z</time>
      </trkpt>
      <trkpt lat="43.395941" lon="-4.159658">
        <ele>47.293</ele>
        <time>2019-06-16T18:17:00Z</time>
      </trkpt>
      <trkpt lat="43.395996" lon="-4.159888">
        <ele>46.523</ele>
        <time>2019-06-16T18:17:01Z</time>
      </trkpt>
      <trkpt lat="43.396047" lon="-4.160123">
        <ele>46.027</ele>
        <time>2019-06-16T18:17:02Z</time>
      </trkpt>
      <trkpt lat="43.396102" lon="-4.160373">
        <ele>46.186</ele>
        <time>2019-06-16T18:17:03Z</time>
      </trkpt>
      <trkpt lat="43.396168" lon="-4.160613">
        <ele>45.636</ele>
        <time>2019-06-16T18:17:04Z</time>
      </trkpt>
      <trkpt lat="43.396249" lon="-4.160853">
        <ele>46.122</ele>
        <time>2019-06-16T18:17:05Z</time>
      </trkpt>
      <trkpt lat="43.396351" lon="-4.161108">
        <ele>47.051</ele>
        <time>2019-06-16T18:17:06Z</time>
      </trkpt>
      <trkpt lat="43.396431" lon="-4.161352">
        <ele>48.135</ele>
        <time>2019-06-16T18:17:07Z</time>
      </trkpt>
      <trkpt lat="43.396520" lon="-4.161594">
        <ele>48.286</ele>
        <time>2019-06-16T18:17:08Z</time>
      </trkpt>
      <trkpt lat="43.396604" lon="-4.161812">
        <ele>49.714</ele>
        <time>2019-06-16T18:17:09Z</time>
      </trkpt>
      <trkpt lat="43.396692" lon="-4.162047">
        <ele>52.308</ele>
        <time>2019-06-16T18:17:10Z</time>
      </trkpt>
      <trkpt lat="43.396758" lon="-4.162281">
        <ele>52.736</ele>
        <time>2019-06-16T18:17:11Z</time>
      </trkpt>
      <trkpt lat="43.396837" lon="-4.162497">
        <ele>53.270</ele>
        <time>2019-06-16T18:17:12Z</time>
      </trkpt>
      <trkpt lat="43.396917" lon="-4.162712">
        <ele>56.470</ele>
        <time>2019-06-16T18:17:13Z</time>
      </trkpt>
      <trkpt lat="43.396984" lon="-4.162924">
        <ele>57.094</ele>
        <time>2019-06-16T18:17:14Z</time>
      </trkpt>
      <trkpt lat="43.397061" lon="-4.163142">
        <ele>57.183</ele>
        <time>2019-06-16T18:17:15Z</time>
      </trkpt>
      <trkpt lat="43.397160" lon="-4.163363">
        <ele>60.033</ele>
        <time>2019-06-16T18:17:16Z</time>
      </trkpt>
      <trkpt lat="43.397233" lon="-4.163571">
        <ele>62.669</ele>
        <time>2019-06-16T18:17:17Z</time>
      </trkpt>
      <trkpt lat="43.397329" lon="-4.163780">
        <ele>63.688</ele>
        <time>2019-06-16T18:17:18Z</time>
      </trkpt>
      <trkpt lat="43.397410" lon="-4.163990">
        <ele>66.747</ele>
        <time>2019-06-16T18:17:19Z</time>
      </trkpt>
      <trkpt lat="43.397487" lon="-4.164210">
        <ele>70.229</ele>
        <time>2019-06-16T18:17:20Z</time>
      </trkpt>
      <trkpt lat="43.397568" lon="-4.164425">
        <ele>73.621</ele>
        <time>2019-06-16T18:17:21Z</time>
      </trkpt>
      <trkpt lat="43.397648" lon="-4.164620">
        <ele>75.408</ele>
        <time>2019-06-16T18:17:22Z</time>
      </trkpt>
      <trkpt lat="43.397740" lon="-4.164856">
        <ele>75.497</ele>
        <time>2019-06-16T18:17:23Z</time>
      </trkpt>
      <trkpt lat="43.397815" lon="-4.165095">
        <ele>77.181</ele>
        <time>2019-06-16T18:17:24Z</time>
      </trkpt>
      <trkpt lat="43.397876" lon="-4.165334">
        <ele>80.261</ele>
        <time>2019-06-16T18:17:25Z</time>
      </trkpt>
      <trkpt lat="43.397941" lon="-4.165581">
        <ele>81.335</ele>
        <time>2019-06-16T18:17:26Z</time>
      </trkpt>
      <trkpt lat="43.397992" lon="-4.165821">
        <ele>80.414</ele>
        <time>2019-06-16T18:17:27Z</time>
      </trkpt>
      <trkpt lat="43.398032" lon="-4.166066">
        <ele>78.964</ele>
        <time>2019-06-16T18:17:28Z</time>
      </trkpt>
      <trkpt lat="43.398061" lon="-4.166313">
        <ele>78.090</ele>
        <time>2019-06-16T18:17:29Z</time>
      </trkpt>
      <trkpt lat="43.398080" lon="-4.166572">
        <ele>77.299</ele>
        <time>2019-06-16T18:17:30Z</time>
      </trkpt>
      <trkpt lat="43.398113" lon="-4.166841">
        <ele>76.093</ele>
        <time>2019-06-16T18:17:31Z</time>
      </trkpt>
      <trkpt lat="43.398132" lon="-4.167117">
        <ele>74.765</ele>
        <time>2019-06-16T18:17:32Z</time>
      </trkpt>
      <trkpt lat="43.398156" lon="-4.167402">
        <ele>72.621</ele>
        <time>2019-06-16T18:17:33Z</time>
      </trkpt>
      <trkpt lat="43.398150" lon="-4.167683">
        <ele>71.308</ele>
        <time>2019-06-16T18:17:34Z</time>
      </trkpt>
      <trkpt lat="43.398138" lon="-4.167969">
        <ele>69.792</ele>
        <time>2019-06-16T18:17:35Z</time>
      </trkpt>
      <trkpt lat="43.398106" lon="-4.168237">
        <ele>68.166</ele>
        <time>2019-06-16T18:17:36Z</time>
      </trkpt>
      <trkpt lat="43.398084" lon="-4.168512">
        <ele>66.486</ele>
        <time>2019-06-16T18:17:37Z</time>
      </trkpt>
      <trkpt lat="43.398054" lon="-4.168795">
        <ele>65.490</ele>
        <time>2019-06-16T18:17:38Z</time>
      </trkpt>
      <trkpt lat="43.398024" lon="-4.169073">
        <ele>63.979</ele>
        <time>2019-06-16T18:17:39Z</time>
      </trkpt>
      <trkpt lat="43.397990" lon="-4.169355">
        <ele>62.619</ele>
        <time>2019-06-16T18:17:40Z</time>
      </trkpt>
      <trkpt lat="43.397960" lon="-4.169647">
        <ele>62.145</ele>
        <time>2019-06-16T18:17:41Z</time>
      </trkpt>
      <trkpt lat="43.397937" lon="-4.169952">
        <ele>61.274</ele>
        <time>2019-06-16T18:17:42Z</time>
      </trkpt>
      <trkpt lat="43.397910" lon="-4.170242">
        <ele>61.084</ele>
        <time>2019-06-16T18:17:43Z</time>
      </trkpt>
      <trkpt lat="43.397880" lon="-4.170533">
        <ele>60.807</ele>
        <time>2019-06-16T18:17:44Z</time>
      </trkpt>
      <trkpt lat="43.397854" lon="-4.170815">
        <ele>61.117</ele>
        <time>2019-06-16T18:17:45Z</time>
      </trkpt>
      <trkpt lat="43.397826" lon="-4.171105">
        <ele>60.708</ele>
        <time>2019-06-16T18:17:46Z</time>
      </trkpt>
      <trkpt lat="43.397795" lon="-4.171394">
        <ele>61.341</ele>
        <time>2019-06-16T18:17:47Z</time>
      </trkpt>
      <trkpt lat="43.397770" lon="-4.171675">
        <ele>62.975</ele>
        <time>2019-06-16T18:17:48Z</time>
      </trkpt>
      <trkpt lat="43.397742" lon="-4.171960">
        <ele>63.545</ele>
        <time>2019-06-16T18:17:49Z</time>
      </trkpt>
      <trkpt lat="43.397717" lon="-4.172249">
        <ele>64.829</ele>
        <time>2019-06-16T18:17:50Z</time>
      </trkpt>
      <trkpt lat="43.397685" lon="-4.172540">
        <ele>65.258</ele>
        <time>2019-06-16T18:17:51Z</time>
      </trkpt>
      <trkpt lat="43.397652" lon="-4.172824">
        <ele>66.288</ele>
        <time>2019-06-16T18:17:52Z</time>
      </trkpt>
      <trkpt lat="43.397618" lon="-4.173089">
        <ele>67.274</ele>
        <time>2019-06-16T18:17:53Z</time>
      </trkpt>
      <trkpt lat="43.397577" lon="-4.173349">
        <ele>68.113</ele>
        <time>2019-06-16T18:17:54Z</time>
      </trkpt>
      <trkpt lat="43.397549" lon="-4.173595">
        <ele>69.695</ele>
        <time>2019-06-16T18:17:55Z</time>
      </trkpt>
      <trkpt lat="43.397483" lon="-4.173844">
        <ele>69.649</ele>
        <time>2019-06-16T18:17:56Z</time>
      </trkpt>
      <trkpt lat="43.397405" lon="-4.174087">
        <ele>70.823</ele>
        <time>2019-06-16T18:17:57Z</time>
      </trkpt>
      <trkpt lat="43.397327" lon="-4.174318">
        <ele>71.408</ele>
        <time>2019-06-16T18:17:58Z</time>
      </trkpt>
      <trkpt lat="43.397242" lon="-4.174538">
        <ele>71.582</ele>
        <time>2019-06-16T18:17:59Z</time>
      </trkpt>
      <trkpt lat="43.397163" lon="-4.174752">
        <ele>71.836</ele>
        <time>2019-06-16T18:18:00Z</time>
      </trkpt>
      <trkpt lat="43.397085" lon="-4.174965">
        <ele>71.996</ele>
        <time>2019-06-16T18:18:01Z</time>
      </trkpt>
      <trkpt lat="43.397005" lon="-4.175177">
        <ele>72.140</ele>
        <time>2019-06-16T18:18:02Z</time>
      </trkpt>
      <trkpt lat="43.396922" lon="-4.175401">
        <ele>71.889</ele>
        <time>2019-06-16T18:18:03Z</time>
      </trkpt>
      <trkpt lat="43.396855" lon="-4.175620">
        <ele>71.689</ele>
        <time>2019-06-16T18:18:04Z</time>
      </trkpt>
      <trkpt lat="43.396797" lon="-4.175836">
        <ele>72.035</ele>
        <time>2019-06-16T18:18:05Z</time>
      </trkpt>
      <trkpt lat="43.396741" lon="-4.176063">
        <ele>72.644</ele>
        <time>2019-06-16T18:18:06Z</time>
      </trkpt>
      <trkpt lat="43.396699" lon="-4.176303">
        <ele>73.743</ele>
        <time>2019-06-16T18:18:07Z</time>
      </trkpt>
      <trkpt lat="43.396668" lon="-4.176548">
        <ele>74.064</ele>
        <time>2019-06-16T18:18:08Z</time>
      </trkpt>
      <trkpt lat="43.396650" lon="-4.176803">
        <ele>74.410</ele>
        <time>2019-06-16T18:18:09Z</time>
      </trkpt>
      <trkpt lat="43.396646" lon="-4.177060">
        <ele>75.208</ele>
        <time>2019-06-16T18:18:10Z</time>
      </trkpt>
      <trkpt lat="43.396650" lon="-4.177288">
        <ele>76.287</ele>
        <time>2019-06-16T18:18:11Z</time>
      </trkpt>
      <trkpt lat="43.396666" lon="-4.177493">
        <ele>77.911</ele>
        <time>2019-06-16T18:18:12Z</time>
      </trkpt>
      <trkpt lat="43.396685" lon="-4.177695">
        <ele>78.881</ele>
        <time>2019-06-16T18:18:13Z</time>
      </trkpt>
      <trkpt lat="43.396718" lon="-4.177898">
        <ele>80.155</ele>
        <time>2019-06-16T18:18:14Z</time>
      </trkpt>
      <trkpt lat="43.396749" lon="-4.178092">
        <ele>80.924</ele>
        <time>2019-06-16T18:18:15Z</time>
      </trkpt>
      <trkpt lat="43.396803" lon="-4.178298">
        <ele>82.134</ele>
        <time>2019-06-16T18:18:16Z</time>
      </trkpt>
      <trkpt lat="43.396852" lon="-4.178519">
        <ele>81.710</ele>
        <time>2019-06-16T18:18:17Z</time>
      </trkpt>
      <trkpt lat="43.396904" lon="-4.178723">
        <ele>80.889</ele>
        <time>2019-06-16T18:18:18Z</time>
      </trkpt>
      <trkpt lat="43.397005" lon="-4.178920">
        <ele>80.896</ele>
        <time>2019-06-16T18:18:19Z</time>
      </trkpt>
      <trkpt lat="43.397096" lon="-4.179127">
        <ele>80.831</ele>
        <time>2019-06-16T18:18:20Z</time>
      </trkpt>
      <trkpt lat="43.397199" lon="-4.179342">
        <ele>79.824</ele>
        <time>2019-06-16T18:18:21Z</time>
      </trkpt>
      <trkpt lat="43.397308" lon="-4.179567">
        <ele>78.708</ele>
        <time>2019-06-16T18:18:22Z</time>
      </trkpt>
      <trkpt lat="43.397420" lon="-4.179798">
        <ele>77.762</ele>
        <time>2019-06-16T18:18:23Z</time>
      </trkpt>
      <trkpt lat="43.397531" lon="-4.180034">
        <ele>76.086</ele>
        <time>2019-06-16T18:18:24Z</time>
      </trkpt>
      <trkpt lat="43.397630" lon="-4.180282">
        <ele>75.016</ele>
        <time>2019-06-16T18:18:25Z</time>
      </trkpt>
      <trkpt lat="43.397718" lon="-4.180544">
        <ele>73.330</ele>
        <time>2019-06-16T18:18:26Z</time>
      </trkpt>
      <trkpt lat="43.397780" lon="-4.180812">
        <ele>71.119</ele>
        <time>2019-06-16T18:18:27Z</time>
      </trkpt>
      <trkpt lat="43.397822" lon="-4.181088">
        <ele>68.519</ele>
        <time>2019-06-16T18:18:28Z</time>
      </trkpt>
      <trkpt lat="43.397845" lon="-4.181367">
        <ele>66.975</ele>
        <time>2019-06-16T18:18:29Z</time>
      </trkpt>
      <trkpt lat="43.397849" lon="-4.181649">
        <ele>66.094</ele>
        <time>2019-06-16T18:18:30Z</time>
      </trkpt>
      <trkpt lat="43.397838" lon="-4.181931">
        <ele>64.649</ele>
        <time>2019-06-16T18:18:31Z</time>
      </trkpt>
      <trkpt lat="43.397813" lon="-4.182213">
        <ele>65.102</ele>
        <time>2019-06-16T18:18:32Z</time>
      </trkpt>
      <trkpt lat="43.397765" lon="-4.182478">
        <ele>64.722</ele>
        <time>2019-06-16T18:18:33Z</time>
      </trkpt>
      <trkpt lat="43.397691" lon="-4.182731">
        <ele>63.608</ele>
        <time>2019-06-16T18:18:34Z</time>
      </trkpt>
      <trkpt lat="43.397616" lon="-4.182984">
        <ele>63.197</ele>
        <time>2019-06-16T18:18:35Z</time>
      </trkpt>
      <trkpt lat="43.397528" lon="-4.183228">
        <ele>62.391</ele>
        <time>2019-06-16T18:18:36Z</time>
      </trkpt>
      <trkpt lat="43.397427" lon="-4.183464">
        <ele>61.231</ele>
        <time>2019-06-16T18:18:37Z</time>
      </trkpt>
      <trkpt lat="43.397331" lon="-4.183692">
        <ele>61.075</ele>
        <time>2019-06-16T18:18:38Z</time>
      </trkpt>
      <trkpt lat="43.397229" lon="-4.183914">
        <ele>61.054</ele>
        <time>2019-06-16T18:18:39Z</time>
      </trkpt>
      <trkpt lat="43.397128" lon="-4.184138">
        <ele>59.964</ele>
        <time>2019-06-16T18:18:40Z</time>
      </trkpt>
      <trkpt lat="43.397024" lon="-4.184365">
        <ele>59.670</ele>
        <time>2019-06-16T18:18:41Z</time>
      </trkpt>
      <trkpt lat="43.396925" lon="-4.184589">
        <ele>58.849</ele>
        <time>2019-06-16T18:18:42Z</time>
      </trkpt>
      <trkpt lat="43.396831" lon="-4.184818">
        <ele>57.854</ele>
        <time>2019-06-16T18:18:43Z</time>
      </trkpt>
      <trkpt lat="43.396748" lon="-4.185056">
        <ele>57.156</ele>
        <time>2019-06-16T18:18:44Z</time>
      </trkpt>
      <trkpt lat="43.396673" lon="-4.185303">
        <ele>57.111</ele>
        <time>2019-06-16T18:18:45Z</time>
      </trkpt>
      <trkpt lat="43.396628" lon="-4.185557">
        <ele>56.208</ele>
        <time>2019-06-16T18:18:46Z</time>
      </trkpt>
      <trkpt lat="43.396591" lon="-4.185809">
        <ele>55.068</ele>
        <time>2019-06-16T18:18:47Z</time>
      </trkpt>
      <trkpt lat="43.396568" lon="-4.186065">
        <ele>53.712</ele>
        <time>2019-06-16T18:18:48Z</time>
      </trkpt>
      <trkpt lat="43.396548" lon="-4.186312">
        <ele>52.242</ele>
        <time>2019-06-16T18:18:49Z</time>
      </trkpt>
      <trkpt lat="43.396539" lon="-4.186554">
        <ele>50.756</ele>
        <time>2019-06-16T18:18:50Z</time>
      </trkpt>
      <trkpt lat="43.396529" lon="-4.186790">
        <ele>50.565</ele>
        <time>2019-06-16T18:18:51Z</time>
      </trkpt>
      <trkpt lat="43.396517" lon="-4.187019">
        <ele>50.755</ele>
        <time>2019-06-16T18:18:52Z</time>
      </trkpt>
      <trkpt lat="43.396503" lon="-4.187248">
        <ele>50.271</ele>
        <time>2019-06-16T18:18:53Z</time>
      </trkpt>
      <trkpt lat="43.396480" lon="-4.187475">
        <ele>50.060</ele>
        <time>2019-06-16T18:18:54Z</time>
      </trkpt>
      <trkpt lat="43.396443" lon="-4.187705">
        <ele>49.453</ele>
        <time>2019-06-16T18:18:55Z</time>
      </trkpt>
      <trkpt lat="43.396389" lon="-4.187939">
        <ele>48.404</ele>
        <time>2019-06-16T18:18:56Z</time>
      </trkpt>
      <trkpt lat="43.396327" lon="-4.188173">
        <ele>47.414</ele>
        <time>2019-06-16T18:18:57Z</time>
      </trkpt>
      <trkpt lat="43.396265" lon="-4.188397">
        <ele>46.808</ele>
        <time>2019-06-16T18:18:58Z</time>
      </trkpt>
      <trkpt lat="43.396206" lon="-4.188614">
        <ele>46.038</ele>
        <time>2019-06-16T18:18:59Z</time>
      </trkpt>
      <trkpt lat="43.396149" lon="-4.188827">
        <ele>45.262</ele>
        <time>2019-06-16T18:19:00Z</time>
      </trkpt>
      <trkpt lat="43.396097" lon="-4.189037">
        <ele>44.562</ele>
        <time>2019-06-16T18:19:01Z</time>
      </trkpt>
      <trkpt lat="43.396050" lon="-4.189247">
        <ele>43.676</ele>
        <time>2019-06-16T18:19:02Z</time>
      </trkpt>
      <trkpt lat="43.396002" lon="-4.189463">
        <ele>42.595</ele>
        <time>2019-06-16T18:19:03Z</time>
      </trkpt>
      <trkpt lat="43.395956" lon="-4.189677">
        <ele>41.625</ele>
        <time>2019-06-16T18:19:04Z</time>
      </trkpt>
      <trkpt lat="43.395915" lon="-4.189890">
        <ele>40.121</ele>
        <time>2019-06-16T18:19:05Z</time>
      </trkpt>
      <trkpt lat="43.395880" lon="-4.190101">
        <ele>38.910</ele>
        <time>2019-06-16T18:19:06Z</time>
      </trkpt>
      <trkpt lat="43.395849" lon="-4.190306">
        <ele>38.184</ele>
        <time>2019-06-16T18:19:07Z</time>
      </trkpt>
      <trkpt lat="43.395817" lon="-4.190510">
        <ele>37.807</ele>
        <time>2019-06-16T18:19:08Z</time>
      </trkpt>
      <trkpt lat="43.395785" lon="-4.190713">
        <ele>36.717</ele>
        <time>2019-06-16T18:19:09Z</time>
      </trkpt>
      <trkpt lat="43.395755" lon="-4.190914">
        <ele>35.508</ele>
        <time>2019-06-16T18:19:10Z</time>
      </trkpt>
      <trkpt lat="43.395722" lon="-4.191113">
        <ele>34.081</ele>
        <time>2019-06-16T18:19:11Z</time>
      </trkpt>
      <trkpt lat="43.395692" lon="-4.191312">
        <ele>33.595</ele>
        <time>2019-06-16T18:19:12Z</time>
      </trkpt>
      <trkpt lat="43.395656" lon="-4.191508">
        <ele>32.845</ele>
        <time>2019-06-16T18:19:13Z</time>
      </trkpt>
      <trkpt lat="43.395623" lon="-4.191697">
        <ele>32.299</ele>
        <time>2019-06-16T18:19:14Z</time>
      </trkpt>
      <trkpt lat="43.395567" lon="-4.191888">
        <ele>31.158</ele>
        <time>2019-06-16T18:19:15Z</time>
      </trkpt>
      <trkpt lat="43.395506" lon="-4.192059">
        <ele>29.758</ele>
        <time>2019-06-16T18:19:16Z</time>
      </trkpt>
      <trkpt lat="43.395436" lon="-4.192233">
        <ele>28.754</ele>
        <time>2019-06-16T18:19:17Z</time>
      </trkpt>
      <trkpt lat="43.395349" lon="-4.192394">
        <ele>28.233</ele>
        <time>2019-06-16T18:19:18Z</time>
      </trkpt>
      <trkpt lat="43.395249" lon="-4.192551">
        <ele>27.287</ele>
        <time>2019-06-16T18:19:19Z</time>
      </trkpt>
      <trkpt lat="43.395137" lon="-4.192694">
        <ele>25.842</ele>
        <time>2019-06-16T18:19:20Z</time>
      </trkpt>
      <trkpt lat="43.395014" lon="-4.192822">
        <ele>25.426</ele>
        <time>2019-06-16T18:19:21Z</time>
      </trkpt>
      <trkpt lat="43.394887" lon="-4.192919">
        <ele>24.208</ele>
        <time>2019-06-16T18:19:22Z</time>
      </trkpt>
      <trkpt lat="43.394759" lon="-4.192997">
        <ele>24.591</ele>
        <time>2019-06-16T18:19:23Z</time>
      </trkpt>
      <trkpt lat="43.394622" lon="-4.193074">
        <ele>24.825</ele>
        <time>2019-06-16T18:19:24Z</time>
      </trkpt>
      <trkpt lat="43.394478" lon="-4.193127">
        <ele>24.725</ele>
        <time>2019-06-16T18:19:25Z</time>
      </trkpt>
      <trkpt lat="43.394330" lon="-4.193169">
        <ele>24.639</ele>
        <time>2019-06-16T18:19:26Z</time>
      </trkpt>
      <trkpt lat="43.394186" lon="-4.193186">
        <ele>24.598</ele>
        <time>2019-06-16T18:19:27Z</time>
      </trkpt>
      <trkpt lat="43.394037" lon="-4.193197">
        <ele>24.558</ele>
        <time>2019-06-16T18:19:28Z</time>
      </trkpt>
      <trkpt lat="43.393878" lon="-4.193207">
        <ele>24.544</ele>
        <time>2019-06-16T18:19:29Z</time>
      </trkpt>
      <trkpt lat="43.393720" lon="-4.193229">
        <ele>25.233</ele>
        <time>2019-06-16T18:19:30Z</time>
      </trkpt>
      <trkpt lat="43.393563" lon="-4.193258">
        <ele>25.952</ele>
        <time>2019-06-16T18:19:31Z</time>
      </trkpt>
      <trkpt lat="43.393403" lon="-4.193274">
        <ele>26.953</ele>
        <time>2019-06-16T18:19:32Z</time>
      </trkpt>
      <trkpt lat="43.393251" lon="-4.193315">
        <ele>27.808</ele>
        <time>2019-06-16T18:19:33Z</time>
      </trkpt>
      <trkpt lat="43.393099" lon="-4.193367">
        <ele>28.208</ele>
        <time>2019-06-16T18:19:34Z</time>
      </trkpt>
      <trkpt lat="43.392953" lon="-4.193426">
        <ele>28.958</ele>
        <time>2019-06-16T18:19:35Z</time>
      </trkpt>
      <trkpt lat="43.392837" lon="-4.193539">
        <ele>29.072</ele>
        <time>2019-06-16T18:19:36Z</time>
      </trkpt>
      <trkpt lat="43.392709" lon="-4.193653">
        <ele>29.392</ele>
        <time>2019-06-16T18:19:37Z</time>
      </trkpt>
      <trkpt lat="43.392582" lon="-4.193788">
        <ele>30.086</ele>
        <time>2019-06-16T18:19:38Z</time>
      </trkpt>
      <trkpt lat="43.392468" lon="-4.193924">
        <ele>31.235</ele>
        <time>2019-06-16T18:19:39Z</time>
      </trkpt>
      <trkpt lat="43.392366" lon="-4.194078">
        <ele>31.735</ele>
        <time>2019-06-16T18:19:40Z</time>
      </trkpt>
      <trkpt lat="43.392265" lon="-4.194237">
        <ele>32.351</ele>
        <time>2019-06-16T18:19:41Z</time>
      </trkpt>
      <trkpt lat="43.392164" lon="-4.194381">
        <ele>32.710</ele>
        <time>2019-06-16T18:19:42Z</time>
      </trkpt>
      <trkpt lat="43.392049" lon="-4.194551">
        <ele>32.642</ele>
        <time>2019-06-16T18:19:43Z</time>
      </trkpt>
      <trkpt lat="43.391944" lon="-4.194715">
        <ele>34.122</ele>
        <time>2019-06-16T18:19:44Z</time>
      </trkpt>
      <trkpt lat="43.391835" lon="-4.194896">
        <ele>34.014</ele>
        <time>2019-06-16T18:19:45Z</time>
      </trkpt>
      <trkpt lat="43.391722" lon="-4.195086">
        <ele>34.508</ele>
        <time>2019-06-16T18:19:46Z</time>
      </trkpt>
      <trkpt lat="43.391608" lon="-4.195274">
        <ele>35.197</ele>
        <time>2019-06-16T18:19:47Z</time>
      </trkpt>
      <trkpt lat="43.391489" lon="-4.195465">
        <ele>35.421</ele>
        <time>2019-06-16T18:19:48Z</time>
      </trkpt>
      <trkpt lat="43.391360" lon="-4.195654">
        <ele>36.511</ele>
        <time>2019-06-16T18:19:49Z</time>
      </trkpt>
      <trkpt lat="43.391218" lon="-4.195842">
        <ele>36.855</ele>
        <time>2019-06-16T18:19:50Z</time>
      </trkpt>
      <trkpt lat="43.391071" lon="-4.196021">
        <ele>37.494</ele>
        <time>2019-06-16T18:19:51Z</time>
      </trkpt>
      <trkpt lat="43.390944" lon="-4.196178">
        <ele>38.124</ele>
        <time>2019-06-16T18:19:52Z</time>
      </trkpt>
      <trkpt lat="43.390796" lon="-4.196360">
        <ele>39.850</ele>
        <time>2019-06-16T18:19:53Z</time>
      </trkpt>
      <trkpt lat="43.390657" lon="-4.196540">
        <ele>40.849</ele>
        <time>2019-06-16T18:19:54Z</time>
      </trkpt>
      <trkpt lat="43.390517" lon="-4.196736">
        <ele>43.558</ele>
        <time>2019-06-16T18:19:55Z</time>
      </trkpt>
      <trkpt lat="43.390383" lon="-4.196935">
        <ele>44.952</ele>
        <time>2019-06-16T18:19:56Z</time>
      </trkpt>
      <trkpt lat="43.390260" lon="-4.197142">
        <ele>47.217</ele>
        <time>2019-06-16T18:19:57Z</time>
      </trkpt>
      <trkpt lat="43.390147" lon="-4.197364">
        <ele>49.608</ele>
        <time>2019-06-16T18:19:58Z</time>
      </trkpt>
      <trkpt lat="43.390064" lon="-4.197591">
        <ele>50.418</ele>
        <time>2019-06-16T18:19:59Z</time>
      </trkpt>
      <trkpt lat="43.389985" lon="-4.197821">
        <ele>51.452</ele>
        <time>2019-06-16T18:20:00Z</time>
      </trkpt>
      <trkpt lat="43.389912" lon="-4.198047">
        <ele>53.022</ele>
        <time>2019-06-16T18:20:01Z</time>
      </trkpt>
      <trkpt lat="43.389841" lon="-4.198291">
        <ele>52.946</ele>
        <time>2019-06-16T18:20:02Z</time>
      </trkpt>
      <trkpt lat="43.389785" lon="-4.198533">
        <ele>53.475</ele>
        <time>2019-06-16T18:20:03Z</time>
      </trkpt>
      <trkpt lat="43.389722" lon="-4.198789">
        <ele>54.385</ele>
        <time>2019-06-16T18:20:04Z</time>
      </trkpt>
      <trkpt lat="43.389650" lon="-4.199048">
        <ele>54.981</ele>
        <time>2019-06-16T18:20:05Z</time>
      </trkpt>
      <trkpt lat="43.389579" lon="-4.199305">
        <ele>55.040</ele>
        <time>2019-06-16T18:20:06Z</time>
      </trkpt>
      <trkpt lat="43.389501" lon="-4.199556">
        <ele>54.633</ele>
        <time>2019-06-16T18:20:07Z</time>
      </trkpt>
      <trkpt lat="43.389421" lon="-4.199801">
        <ele>53.723</ele>
        <time>2019-06-16T18:20:08Z</time>
      </trkpt>
      <trkpt lat="43.389328" lon="-4.200041">
        <ele>52.915</ele>
        <time>2019-06-16T18:20:09Z</time>
      </trkpt>
      <trkpt lat="43.389251" lon="-4.200251">
        <ele>51.708</ele>
        <time>2019-06-16T18:20:10Z</time>
      </trkpt>
      <trkpt lat="43.389156" lon="-4.200474">
        <ele>50.046</ele>
        <time>2019-06-16T18:20:11Z</time>
      </trkpt>
      <trkpt lat="43.389060" lon="-4.200689">
        <ele>48.660</ele>
        <time>2019-06-16T18:20:12Z</time>
      </trkpt>
      <trkpt lat="43.388965" lon="-4.200912">
        <ele>48.130</ele>
        <time>2019-06-16T18:20:13Z</time>
      </trkpt>
      <trkpt lat="43.388873" lon="-4.201127">
        <ele>47.844</ele>
        <time>2019-06-16T18:20:14Z</time>
      </trkpt>
      <trkpt lat="43.388781" lon="-4.201344">
        <ele>46.673</ele>
        <time>2019-06-16T18:20:15Z</time>
      </trkpt>
      <trkpt lat="43.388692" lon="-4.201552">
        <ele>46.783</ele>
        <time>2019-06-16T18:20:16Z</time>
      </trkpt>
      <trkpt lat="43.388586" lon="-4.201762">
        <ele>46.689</ele>
        <time>2019-06-16T18:20:17Z</time>
      </trkpt>
      <trkpt lat="43.388496" lon="-4.201973">
        <ele>46.028</ele>
        <time>2019-06-16T18:20:18Z</time>
      </trkpt>
      <trkpt lat="43.388403" lon="-4.202179">
        <ele>46.426</ele>
        <time>2019-06-16T18:20:19Z</time>
      </trkpt>
      <trkpt lat="43.388305" lon="-4.202382">
        <ele>47.547</ele>
        <time>2019-06-16T18:20:20Z</time>
      </trkpt>
      <trkpt lat="43.388219" lon="-4.202575">
        <ele>48.111</ele>
        <time>2019-06-16T18:20:21Z</time>
      </trkpt>
      <trkpt lat="43.388141" lon="-4.202747">
        <ele>48.608</ele>
        <time>2019-06-16T18:20:22Z</time>
      </trkpt>
      <trkpt lat="43.388080" lon="-4.202896">
        <ele>48.945</ele>
        <time>2019-06-16T18:20:23Z</time>
      </trkpt>
      <trkpt lat="43.388026" lon="-4.203038">
        <ele>48.999</ele>
        <time>2019-06-16T18:20:24Z</time>
      </trkpt>
      <trkpt lat="43.387969" lon="-4.203169">
        <ele>48.789</ele>
        <time>2019-06-16T18:20:25Z</time>
      </trkpt>
      <trkpt lat="43.387908" lon="-4.203294">
        <ele>49.043</ele>
        <time>2019-06-16T18:20:26Z</time>
      </trkpt>
      <trkpt lat="43.387854" lon="-4.203406">
        <ele>49.652</ele>
        <time>2019-06-16T18:20:27Z</time>
      </trkpt>
      <trkpt lat="43.387814" lon="-4.203502">
        <ele>50.312</ele>
        <time>2019-06-16T18:20:28Z</time>
      </trkpt>
      <trkpt lat="43.387769" lon="-4.203596">
        <ele>50.948</ele>
        <time>2019-06-16T18:20:29Z</time>
      </trkpt>
      <trkpt lat="43.387732" lon="-4.203681">
        <ele>50.987</ele>
        <time>2019-06-16T18:20:30Z</time>
      </trkpt>
      <trkpt lat="43.387685" lon="-4.203783">
        <ele>50.929</ele>
        <time>2019-06-16T18:20:31Z</time>
      </trkpt>
      <trkpt lat="43.387637" lon="-4.203887">
        <ele>51.000</ele>
        <time>2019-06-16T18:20:32Z</time>
      </trkpt>
      <trkpt lat="43.387589" lon="-4.203997">
        <ele>51.320</ele>
        <time>2019-06-16T18:20:33Z</time>
      </trkpt>
      <trkpt lat="43.387549" lon="-4.204107">
        <ele>51.608</ele>
        <time>2019-06-16T18:20:34Z</time>
      </trkpt>
      <trkpt lat="43.387498" lon="-4.204226">
        <ele>52.225</ele>
        <time>2019-06-16T18:20:35Z</time>
      </trkpt>
      <trkpt lat="43.387449" lon="-4.204350">
        <ele>52.029</ele>
        <time>2019-06-16T18:20:36Z</time>
      </trkpt>
      <trkpt lat="43.387395" lon="-4.204485">
        <ele>51.519</ele>
        <time>2019-06-16T18:20:37Z</time>
      </trkpt>
      <trkpt lat="43.387345" lon="-4.204631">
        <ele>50.863</ele>
        <time>2019-06-16T18:20:38Z</time>
      </trkpt>
      <trkpt lat="43.387289" lon="-4.204797">
        <ele>50.672</ele>
        <time>2019-06-16T18:20:39Z</time>
      </trkpt>
      <trkpt lat="43.387236" lon="-4.204965">
        <ele>50.912</ele>
        <time>2019-06-16T18:20:40Z</time>
      </trkpt>
      <trkpt lat="43.387190" lon="-4.205128">
        <ele>50.258</ele>
        <time>2019-06-16T18:20:41Z</time>
      </trkpt>
      <trkpt lat="43.387141" lon="-4.205294">
        <ele>49.327</ele>
        <time>2019-06-16T18:20:42Z</time>
      </trkpt>
      <trkpt lat="43.387099" lon="-4.205456">
        <ele>48.237</ele>
        <time>2019-06-16T18:20:43Z</time>
      </trkpt>
      <trkpt lat="43.387062" lon="-4.205611">
        <ele>47.249</ele>
        <time>2019-06-16T18:20:44Z</time>
      </trkpt>
      <trkpt lat="43.387028" lon="-4.205770">
        <ele>46.713</ele>
        <time>2019-06-16T18:20:45Z</time>
      </trkpt>
      <trkpt lat="43.386997" lon="-4.205928">
        <ele>46.308</ele>
        <time>2019-06-16T18:20:46Z</time>
      </trkpt>
      <trkpt lat="43.386964" lon="-4.206090">
        <ele>46.116</ele>
        <time>2019-06-16T18:20:47Z</time>
      </trkpt>
      <trkpt lat="43.386947" lon="-4.206248">
        <ele>46.020</ele>
        <time>2019-06-16T18:20:48Z</time>
      </trkpt>
      <trkpt lat="43.386929" lon="-4.206417">
        <ele>45.790</ele>
        <time>2019-06-16T18:20:49Z</time>
      </trkpt>
      <trkpt lat="43.386915" lon="-4.206580">
        <ele>44.944</ele>
        <time>2019-06-16T18:20:50Z</time>
      </trkpt>
      <trkpt lat="43.386898" lon="-4.206757">
        <ele>44.183</ele>
        <time>2019-06-16T18:20:51Z</time>
      </trkpt>
      <trkpt lat="43.386884" lon="-4.206930">
        <ele>43.433</ele>
        <time>2019-06-16T18:20:52Z</time>
      </trkpt>
      <trkpt lat="43.386879" lon="-4.207090">
        <ele>43.429</ele>
        <time>2019-06-16T18:20:53Z</time>
      </trkpt>
      <trkpt lat="43.386866" lon="-4.207253">
        <ele>43.518</ele>
        <time>2019-06-16T18:20:54Z</time>
      </trkpt>
      <trkpt lat="43.386861" lon="-4.207415">
        <ele>43.819</ele>
        <time>2019-06-16T18:20:55Z</time>
      </trkpt>
      <trkpt lat="43.386851" lon="-4.207579">
        <ele>44.209</ele>
        <time>2019-06-16T18:20:56Z</time>
      </trkpt>
      <trkpt lat="43.386845" lon="-4.207746">
        <ele>44.619</ele>
        <time>2019-06-16T18:20:57Z</time>
      </trkpt>
      <trkpt lat="43.386838" lon="-4.207901">
        <ele>45.108</ele>
        <time>2019-06-16T18:20:58Z</time>
      </trkpt>
      <trkpt lat="43.386842" lon="-4.208067">
        <ele>45.784</ele>
        <time>2019-06-16T18:20:59Z</time>
      </trkpt>
      <trkpt lat="43.386841" lon="-4.208239">
        <ele>46.538</ele>
        <time>2019-06-16T18:21:00Z</time>
      </trkpt>
      <trkpt lat="43.386848" lon="-4.208414">
        <ele>47.548</ele>
        <time>2019-06-16T18:21:01Z</time>
      </trkpt>
      <trkpt lat="43.386848" lon="-4.208590">
        <ele>48.612</ele>
        <time>2019-06-16T18:21:02Z</time>
      </trkpt>
      <trkpt lat="43.386847" lon="-4.208779">
        <ele>49.341</ele>
        <time>2019-06-16T18:21:03Z</time>
      </trkpt>
      <trkpt lat="43.386853" lon="-4.208965">
        <ele>49.881</ele>
        <time>2019-06-16T18:21:04Z</time>
      </trkpt>
      <trkpt lat="43.386860" lon="-4.209147">
        <ele>50.237</ele>
        <time>2019-06-16T18:21:05Z</time>
      </trkpt>
      <trkpt lat="43.386860" lon="-4.209342">
        <ele>50.786</ele>
        <time>2019-06-16T18:21:06Z</time>
      </trkpt>
      <trkpt lat="43.386868" lon="-4.209528">
        <ele>51.111</ele>
        <time>2019-06-16T18:21:07Z</time>
      </trkpt>
      <trkpt lat="43.386881" lon="-4.209705">
        <ele>51.621</ele>
        <time>2019-06-16T18:21:08Z</time>
      </trkpt>
      <trkpt lat="43.386896" lon="-4.209875">
        <ele>52.603</ele>
        <time>2019-06-16T18:21:09Z</time>
      </trkpt>
      <trkpt lat="43.386910" lon="-4.210055">
        <ele>53.608</ele>
        <time>2019-06-16T18:21:10Z</time>
      </trkpt>
      <trkpt lat="43.386937" lon="-4.210207">
        <ele>53.864</ele>
        <time>2019-06-16T18:21:11Z</time>
      </trkpt>
      <trkpt lat="43.386961" lon="-4.210362">
        <ele>54.468</ele>
        <time>2019-06-16T18:21:12Z</time>
      </trkpt>
      <trkpt lat="43.386986" lon="-4.210506">
        <ele>54.968</ele>
        <time>2019-06-16T18:21:13Z</time>
      </trkpt>
      <trkpt lat="43.387006" lon="-4.210652">
        <ele>54.982</ele>
        <time>2019-06-16T18:21:14Z</time>
      </trkpt>
      <trkpt lat="43.387036" lon="-4.210814">
        <ele>54.721</ele>
        <time>2019-06-16T18:21:15Z</time>
      </trkpt>
      <trkpt lat="43.387072" lon="-4.210968">
        <ele>54.621</ele>
        <time>2019-06-16T18:21:16Z</time>
      </trkpt>
      <trkpt lat="43.387076" lon="-4.211108">
        <ele>54.667</ele>
        <time>2019-06-16T18:21:17Z</time>
      </trkpt>
      <trkpt lat="43.387117" lon="-4.211268">
        <ele>54.776</ele>
        <time>2019-06-16T18:21:18Z</time>
      </trkpt>
      <trkpt lat="43.387156" lon="-4.211440">
        <ele>54.773</ele>
        <time>2019-06-16T18:21:19Z</time>
      </trkpt>
      <trkpt lat="43.387192" lon="-4.211593">
        <ele>54.285</ele>
        <time>2019-06-16T18:21:20Z</time>
      </trkpt>
      <trkpt lat="43.387229" lon="-4.211732">
        <ele>54.013</ele>
        <time>2019-06-16T18:21:21Z</time>
      </trkpt>
      <trkpt lat="43.387257" lon="-4.211861">
        <ele>54.108</ele>
        <time>2019-06-16T18:21:22Z</time>
      </trkpt>
      <trkpt lat="43.387289" lon="-4.211979">
        <ele>54.320</ele>
        <time>2019-06-16T18:21:23Z</time>
      </trkpt>
      <trkpt lat="43.387325" lon="-4.212096">
        <ele>54.774</ele>
        <time>2019-06-16T18:21:24Z</time>
      </trkpt>
      <trkpt lat="43.387358" lon="-4.212197">
        <ele>55.024</ele>
        <time>2019-06-16T18:21:25Z</time>
      </trkpt>
      <trkpt lat="43.387388" lon="-4.212293">
        <ele>55.368</ele>
        <time>2019-06-16T18:21:26Z</time>
      </trkpt>
      <trkpt lat="43.387422" lon="-4.212390">
        <ele>55.617</ele>
        <time>2019-06-16T18:21:27Z</time>
      </trkpt>
      <trkpt lat="43.387448" lon="-4.212497">
        <ele>56.027</ele>
        <time>2019-06-16T18:21:28Z</time>
      </trkpt>
      <trkpt lat="43.387481" lon="-4.212625">
        <ele>56.093</ele>
        <time>2019-06-16T18:21:29Z</time>
      </trkpt>
      <trkpt lat="43.387513" lon="-4.212752">
        <ele>56.082</ele>
        <time>2019-06-16T18:21:30Z</time>
      </trkpt>
      <trkpt lat="43.387550" lon="-4.212888">
        <ele>56.369</ele>
        <time>2019-06-16T18:21:31Z</time>
      </trkpt>
      <trkpt lat="43.387590" lon="-4.213032">
        <ele>56.604</ele>
        <time>2019-06-16T18:21:32Z</time>
      </trkpt>
      <trkpt lat="43.387620" lon="-4.213178">
        <ele>56.724</ele>
        <time>2019-06-16T18:21:33Z</time>
      </trkpt>
      <trkpt lat="43.387648" lon="-4.213340">
        <ele>56.508</ele>
        <time>2019-06-16T18:21:34Z</time>
      </trkpt>
      <trkpt lat="43.387670" lon="-4.213502">
        <ele>56.519</ele>
        <time>2019-06-16T18:21:35Z</time>
      </trkpt>
      <trkpt lat="43.387690" lon="-4.213655">
        <ele>56.333</ele>
        <time>2019-06-16T18:21:36Z</time>
      </trkpt>
      <trkpt lat="43.387698" lon="-4.213806">
        <ele>56.343</ele>
        <time>2019-06-16T18:21:37Z</time>
      </trkpt>
      <trkpt lat="43.387693" lon="-4.213958">
        <ele>56.317</ele>
        <time>2019-06-16T18:21:38Z</time>
      </trkpt>
      <trkpt lat="43.387691" lon="-4.214098">
        <ele>56.316</ele>
        <time>2019-06-16T18:21:39Z</time>
      </trkpt>
      <trkpt lat="43.387671" lon="-4.214241">
        <ele>56.326</ele>
        <time>2019-06-16T18:21:40Z</time>
      </trkpt>
      <trkpt lat="43.387654" lon="-4.214394">
        <ele>56.182</ele>
        <time>2019-06-16T18:21:41Z</time>
      </trkpt>
      <trkpt lat="43.387625" lon="-4.214549">
        <ele>55.621</ele>
        <time>2019-06-16T18:21:42Z</time>
      </trkpt>
      <trkpt lat="43.387589" lon="-4.214707">
        <ele>55.116</ele>
        <time>2019-06-16T18:21:43Z</time>
      </trkpt>
      <trkpt lat="43.387539" lon="-4.214865">
        <ele>54.976</ele>
        <time>2019-06-16T18:21:44Z</time>
      </trkpt>
      <trkpt lat="43.387481" lon="-4.215035">
        <ele>55.113</ele>
        <time>2019-06-16T18:21:45Z</time>
      </trkpt>
      <trkpt lat="43.387430" lon="-4.215194">
        <ele>55.308</ele>
        <time>2019-06-16T18:21:46Z</time>
      </trkpt>
      <trkpt lat="43.387372" lon="-4.215349">
        <ele>55.564</ele>
        <time>2019-06-16T18:21:47Z</time>
      </trkpt>
      <trkpt lat="43.387309" lon="-4.215481">
        <ele>55.798</ele>
        <time>2019-06-16T18:21:48Z</time>
      </trkpt>
      <trkpt lat="43.387258" lon="-4.215651">
        <ele>56.238</ele>
        <time>2019-06-16T18:21:49Z</time>
      </trkpt>
      <trkpt lat="43.387209" lon="-4.215794">
        <ele>57.092</ele>
        <time>2019-06-16T18:21:50Z</time>
      </trkpt>
      <trkpt lat="43.387159" lon="-4.215949">
        <ele>57.791</ele>
        <time>2019-06-16T18:21:51Z</time>
      </trkpt>
      <trkpt lat="43.387121" lon="-4.216121">
        <ele>58.131</ele>
        <time>2019-06-16T18:21:52Z</time>
      </trkpt>
      <trkpt lat="43.387094" lon="-4.216309">
        <ele>58.477</ele>
        <time>2019-06-16T18:21:53Z</time>
      </trkpt>
      <trkpt lat="43.387083" lon="-4.216515">
        <ele>58.336</ele>
        <time>2019-06-16T18:21:54Z</time>
      </trkpt>
      <trkpt lat="43.387075" lon="-4.216718">
        <ele>58.068</ele>
        <time>2019-06-16T18:21:55Z</time>
      </trkpt>
      <trkpt lat="43.387069" lon="-4.216918">
        <ele>57.842</ele>
        <time>2019-06-16T18:21:56Z</time>
      </trkpt>
      <trkpt lat="43.387048" lon="-4.217099">
        <ele>57.526</ele>
        <time>2019-06-16T18:21:57Z</time>
      </trkpt>
      <trkpt lat="43.387019" lon="-4.217289">
        <ele>57.808</ele>
        <time>2019-06-16T18:21:58Z</time>
      </trkpt>
      <trkpt lat="43.386986" lon="-4.217469">
        <ele>58.379</ele>
        <time>2019-06-16T18:21:59Z</time>
      </trkpt>
      <trkpt lat="43.386907" lon="-4.217614">
        <ele>59.093</ele>
        <time>2019-06-16T18:22:00Z</time>
      </trkpt>
      <trkpt lat="43.386820" lon="-4.217750">
        <ele>58.793</ele>
        <time>2019-06-16T18:22:01Z</time>
      </trkpt>
      <trkpt lat="43.386734" lon="-4.217889">
        <ele>57.867</ele>
        <time>2019-06-16T18:22:02Z</time>
      </trkpt>
      <trkpt lat="43.386614" lon="-4.217962">
        <ele>57.546</ele>
        <time>2019-06-16T18:22:03Z</time>
      </trkpt>
      <trkpt lat="43.386481" lon="-4.218038">
        <ele>57.086</ele>
        <time>2019-06-16T18:22:04Z</time>
      </trkpt>
      <trkpt lat="43.386353" lon="-4.218140">
        <ele>56.172</ele>
        <time>2019-06-16T18:22:05Z</time>
      </trkpt>
      <trkpt lat="43.386236" lon="-4.218250">
        <ele>54.711</ele>
        <time>2019-06-16T18:22:06Z</time>
      </trkpt>
      <trkpt lat="43.386127" lon="-4.218383">
        <ele>52.347</ele>
        <time>2019-06-16T18:22:07Z</time>
      </trkpt>
      <trkpt lat="43.386036" lon="-4.218536">
        <ele>52.229</ele>
        <time>2019-06-16T18:22:08Z</time>
      </trkpt>
      <trkpt lat="43.385966" lon="-4.218704">
        <ele>51.821</ele>
        <time>2019-06-16T18:22:09Z</time>
      </trkpt>
      <trkpt lat="43.385945" lon="-4.218893">
        <ele>49.808</ele>
        <time>2019-06-16T18:22:10Z</time>
      </trkpt>
      <trkpt lat="43.385914" lon="-4.219088">
        <ele>49.527</ele>
        <time>2019-06-16T18:22:11Z</time>
      </trkpt>
      <trkpt lat="43.385950" lon="-4.219286">
        <ele>48.281</ele>
        <time>2019-06-16T18:22:12Z</time>
      </trkpt>
      <trkpt lat="43.385985" lon="-4.219469">
        <ele>47.891</ele>
        <time>2019-06-16T18:22:13Z</time>
      </trkpt>
      <trkpt lat="43.386078" lon="-4.219649">
        <ele>46.025</ele>
        <time>2019-06-16T18:22:14Z</time>
      </trkpt>
      <trkpt lat="43.386155" lon="-4.219817">
        <ele>45.844</ele>
        <time>2019-06-16T18:22:15Z</time>
      </trkpt>
      <trkpt lat="43.386285" lon="-4.219964">
        <ele>44.624</ele>
        <time>2019-06-16T18:22:16Z</time>
      </trkpt>
      <trkpt lat="43.386422" lon="-4.220077">
        <ele>42.940</ele>
        <time>2019-06-16T18:22:17Z</time>
      </trkpt>
      <trkpt lat="43.386548" lon="-4.220191">
        <ele>42.189</ele>
        <time>2019-06-16T18:22:18Z</time>
      </trkpt>
      <trkpt lat="43.386683" lon="-4.220308">
        <ele>40.424</ele>
        <time>2019-06-16T18:22:19Z</time>
      </trkpt>
      <trkpt lat="43.386820" lon="-4.220420">
        <ele>39.504</ele>
        <time>2019-06-16T18:22:20Z</time>
      </trkpt>
      <trkpt lat="43.386955" lon="-4.220535">
        <ele>36.814</ele>
        <time>2019-06-16T18:22:21Z</time>
      </trkpt>
      <trkpt lat="43.387068" lon="-4.220655">
        <ele>36.708</ele>
        <time>2019-06-16T18:22:22Z</time>
      </trkpt>
      <trkpt lat="43.387178" lon="-4.220788">
        <ele>35.815</ele>
        <time>2019-06-16T18:22:23Z</time>
      </trkpt>
      <trkpt lat="43.387270" lon="-4.220920">
        <ele>34.999</ele>
        <time>2019-06-16T18:22:24Z</time>
      </trkpt>
      <trkpt lat="43.387342" lon="-4.221084">
        <ele>34.759</ele>
        <time>2019-06-16T18:22:25Z</time>
      </trkpt>
      <trkpt lat="43.387409" lon="-4.221253">
        <ele>33.573</ele>
        <time>2019-06-16T18:22:26Z</time>
      </trkpt>
      <trkpt lat="43.387429" lon="-4.221452">
        <ele>32.872</ele>
        <time>2019-06-16T18:22:27Z</time>
      </trkpt>
      <trkpt lat="43.387462" lon="-4.221644">
        <ele>31.162</ele>
        <time>2019-06-16T18:22:28Z</time>
      </trkpt>
      <trkpt lat="43.387402" lon="-4.221862">
        <ele>30.648</ele>
        <time>2019-06-16T18:22:29Z</time>
      </trkpt>
      <trkpt lat="43.387342" lon="-4.222058">
        <ele>29.277</ele>
        <time>2019-06-16T18:22:30Z</time>
      </trkpt>
      <trkpt lat="43.387256" lon="-4.222262">
        <ele>27.339</ele>
        <time>2019-06-16T18:22:31Z</time>
      </trkpt>
      <trkpt lat="43.387165" lon="-4.222458">
        <ele>27.701</ele>
        <time>2019-06-16T18:22:32Z</time>
      </trkpt>
      <trkpt lat="43.387081" lon="-4.222650">
        <ele>26.321</ele>
        <time>2019-06-16T18:22:33Z</time>
      </trkpt>
      <trkpt lat="43.387018" lon="-4.222826">
        <ele>24.008</ele>
        <time>2019-06-16T18:22:34Z</time>
      </trkpt>
      <trkpt lat="43.386911" lon="-4.223003">
        <ele>22.856</ele>
        <time>2019-06-16T18:22:35Z</time>
      </trkpt>
      <trkpt lat="43.386785" lon="-4.223150">
        <ele>22.110</ele>
        <time>2019-06-16T18:22:36Z</time>
      </trkpt>
      <trkpt lat="43.386663" lon="-4.223257">
        <ele>22.360</ele>
        <time>2019-06-16T18:22:37Z</time>
      </trkpt>
      <trkpt lat="43.386534" lon="-4.223359">
        <ele>21.774</ele>
        <time>2019-06-16T18:22:38Z</time>
      </trkpt>
      <trkpt lat="43.386382" lon="-4.223428">
        <ele>21.483</ele>
        <time>2019-06-16T18:22:39Z</time>
      </trkpt>
      <trkpt lat="43.386224" lon="-4.223510">
        <ele>22.583</ele>
        <time>2019-06-16T18:22:40Z</time>
      </trkpt>
      <trkpt lat="43.386092" lon="-4.223585">
        <ele>23.399</ele>
        <time>2019-06-16T18:22:41Z</time>
      </trkpt>
      <trkpt lat="43.385955" lon="-4.223649">
        <ele>23.258</ele>
        <time>2019-06-16T18:22:42Z</time>
      </trkpt>
      <trkpt lat="43.385822" lon="-4.223704">
        <ele>23.053</ele>
        <time>2019-06-16T18:22:43Z</time>
      </trkpt>
      <trkpt lat="43.385678" lon="-4.223771">
        <ele>23.004</ele>
        <time>2019-06-16T18:22:44Z</time>
      </trkpt>
      <trkpt lat="43.385540" lon="-4.223839">
        <ele>23.914</ele>
        <time>2019-06-16T18:22:45Z</time>
      </trkpt>
      <trkpt lat="43.385414" lon="-4.223923">
        <ele>24.908</ele>
        <time>2019-06-16T18:22:46Z</time>
      </trkpt>
      <trkpt lat="43.385290" lon="-4.224030">
        <ele>25.778</ele>
        <time>2019-06-16T18:22:47Z</time>
      </trkpt>
      <trkpt lat="43.385183" lon="-4.224118">
        <ele>26.162</ele>
        <time>2019-06-16T18:22:48Z</time>
      </trkpt>
      <trkpt lat="43.385108" lon="-4.224310">
        <ele>26.292</ele>
        <time>2019-06-16T18:22:49Z</time>
      </trkpt>
      <trkpt lat="43.385050" lon="-4.224495">
        <ele>27.286</ele>
        <time>2019-06-16T18:22:50Z</time>
      </trkpt>
      <trkpt lat="43.385008" lon="-4.224702">
        <ele>28.795</ele>
        <time>2019-06-16T18:22:51Z</time>
      </trkpt>
      <trkpt lat="43.385000" lon="-4.224910">
        <ele>29.745</ele>
        <time>2019-06-16T18:22:52Z</time>
      </trkpt>
      <trkpt lat="43.385015" lon="-4.225133">
        <ele>31.131</ele>
        <time>2019-06-16T18:22:53Z</time>
      </trkpt>
      <trkpt lat="43.385043" lon="-4.225349">
        <ele>33.340</ele>
        <time>2019-06-16T18:22:54Z</time>
      </trkpt>
      <trkpt lat="43.385114" lon="-4.225568">
        <ele>35.263</ele>
        <time>2019-06-16T18:22:55Z</time>
      </trkpt>
      <trkpt lat="43.385177" lon="-4.225773">
        <ele>37.044</ele>
        <time>2019-06-16T18:22:56Z</time>
      </trkpt>
      <trkpt lat="43.385245" lon="-4.225987">
        <ele>38.118</ele>
        <time>2019-06-16T18:22:57Z</time>
      </trkpt>
      <trkpt lat="43.385316" lon="-4.226193">
        <ele>39.308</ele>
        <time>2019-06-16T18:22:58Z</time>
      </trkpt>
      <trkpt lat="43.385381" lon="-4.226383">
        <ele>42.389</ele>
        <time>2019-06-16T18:22:59Z</time>
      </trkpt>
      <trkpt lat="43.385484" lon="-4.226574">
        <ele>42.073</ele>
        <time>2019-06-16T18:23:00Z</time>
      </trkpt>
      <trkpt lat="43.385572" lon="-4.226736">
        <ele>41.443</ele>
        <time>2019-06-16T18:23:01Z</time>
      </trkpt>
      <trkpt lat="43.385638" lon="-4.226871">
        <ele>42.227</ele>
        <time>2019-06-16T18:23:02Z</time>
      </trkpt>
      <trkpt lat="43.385749" lon="-4.227030">
        <ele>43.036</ele>
        <time>2019-06-16T18:23:03Z</time>
      </trkpt>
      <trkpt lat="43.385858" lon="-4.227191">
        <ele>44.096</ele>
        <time>2019-06-16T18:23:04Z</time>
      </trkpt>
      <trkpt lat="43.385975" lon="-4.227357">
        <ele>45.572</ele>
        <time>2019-06-16T18:23:05Z</time>
      </trkpt>
      <trkpt lat="43.386083" lon="-4.227521">
        <ele>45.931</ele>
        <time>2019-06-16T18:23:06Z</time>
      </trkpt>
      <trkpt lat="43.386174" lon="-4.227690">
        <ele>47.097</ele>
        <time>2019-06-16T18:23:07Z</time>
      </trkpt>
      <trkpt lat="43.386270" lon="-4.227863">
        <ele>48.123</ele>
        <time>2019-06-16T18:23:08Z</time>
      </trkpt>
      <trkpt lat="43.386352" lon="-4.228056">
        <ele>48.625</ele>
        <time>2019-06-16T18:23:09Z</time>
      </trkpt>
      <trkpt lat="43.386445" lon="-4.228264">
        <ele>49.608</ele>
        <time>2019-06-16T18:23:10Z</time>
      </trkpt>
      <trkpt lat="43.386535" lon="-4.228475">
        <ele>50.622</ele>
        <time>2019-06-16T18:23:11Z</time>
      </trkpt>
      <trkpt lat="43.386635" lon="-4.228712">
        <ele>51.296</ele>
        <time>2019-06-16T18:23:12Z</time>
      </trkpt>
      <trkpt lat="43.386740" lon="-4.228968">
        <ele>52.586</ele>
        <time>2019-06-16T18:23:13Z</time>
      </trkpt>
      <trkpt lat="43.386834" lon="-4.229208">
        <ele>54.160</ele>
        <time>2019-06-16T18:23:14Z</time>
      </trkpt>
      <trkpt lat="43.386940" lon="-4.229465">
        <ele>56.069</ele>
        <time>2019-06-16T18:23:15Z</time>
      </trkpt>
      <trkpt lat="43.387049" lon="-4.229712">
        <ele>56.329</ele>
        <time>2019-06-16T18:23:16Z</time>
      </trkpt>
      <trkpt lat="43.387139" lon="-4.229945">
        <ele>58.975</ele>
        <time>2019-06-16T18:23:17Z</time>
      </trkpt>
      <trkpt lat="43.387229" lon="-4.230176">
        <ele>61.244</ele>
        <time>2019-06-16T18:23:18Z</time>
      </trkpt>
      <trkpt lat="43.387324" lon="-4.230422">
        <ele>62.437</ele>
        <time>2019-06-16T18:23:19Z</time>
      </trkpt>
      <trkpt lat="43.387419" lon="-4.230672">
        <ele>65.149</ele>
        <time>2019-06-16T18:23:20Z</time>
      </trkpt>
      <trkpt lat="43.387493" lon="-4.230921">
        <ele>67.313</ele>
        <time>2019-06-16T18:23:21Z</time>
      </trkpt>
      <trkpt lat="43.387551" lon="-4.231155">
        <ele>68.708</ele>
        <time>2019-06-16T18:23:22Z</time>
      </trkpt>
      <trkpt lat="43.387592" lon="-4.231400">
        <ele>70.496</ele>
        <time>2019-06-16T18:23:23Z</time>
      </trkpt>
      <trkpt lat="43.387600" lon="-4.231630">
        <ele>72.050</ele>
        <time>2019-06-16T18:23:24Z</time>
      </trkpt>
      <trkpt lat="43.387604" lon="-4.231880">
        <ele>73.290</ele>
        <time>2019-06-16T18:23:25Z</time>
      </trkpt>
      <trkpt lat="43.387595" lon="-4.232113">
        <ele>74.634</ele>
        <time>2019-06-16T18:23:26Z</time>
      </trkpt>
      <trkpt lat="43.387562" lon="-4.232340">
        <ele>76.733</ele>
        <time>2019-06-16T18:23:27Z</time>
      </trkpt>
      <trkpt lat="43.387513" lon="-4.232551">
        <ele>79.083</ele>
        <time>2019-06-16T18:23:28Z</time>
      </trkpt>
      <trkpt lat="43.387459" lon="-4.232752">
        <ele>80.219</ele>
        <time>2019-06-16T18:23:29Z</time>
      </trkpt>
      <trkpt lat="43.387371" lon="-4.232942">
        <ele>81.558</ele>
        <time>2019-06-16T18:23:30Z</time>
      </trkpt>
      <trkpt lat="43.387277" lon="-4.233124">
        <ele>83.011</ele>
        <time>2019-06-16T18:23:31Z</time>
      </trkpt>
      <trkpt lat="43.387177" lon="-4.233312">
        <ele>83.821</ele>
        <time>2019-06-16T18:23:32Z</time>
      </trkpt>
      <trkpt lat="43.387074" lon="-4.233508">
        <ele>83.803</ele>
        <time>2019-06-16T18:23:33Z</time>
      </trkpt>
      <trkpt lat="43.386975" lon="-4.233697">
        <ele>83.208</ele>
        <time>2019-06-16T18:23:34Z</time>
      </trkpt>
      <trkpt lat="43.386878" lon="-4.233888">
        <ele>82.344</ele>
        <time>2019-06-16T18:23:35Z</time>
      </trkpt>
      <trkpt lat="43.386789" lon="-4.234088">
        <ele>81.698</ele>
        <time>2019-06-16T18:23:36Z</time>
      </trkpt>
      <trkpt lat="43.386713" lon="-4.234297">
        <ele>80.478</ele>
        <time>2019-06-16T18:23:37Z</time>
      </trkpt>
      <trkpt lat="43.386654" lon="-4.234524">
        <ele>78.852</ele>
        <time>2019-06-16T18:23:38Z</time>
      </trkpt>
      <trkpt lat="43.386608" lon="-4.234761">
        <ele>77.631</ele>
        <time>2019-06-16T18:23:39Z</time>
      </trkpt>
      <trkpt lat="43.386573" lon="-4.235004">
        <ele>76.341</ele>
        <time>2019-06-16T18:23:40Z</time>
      </trkpt>
      <trkpt lat="43.386546" lon="-4.235251">
        <ele>74.427</ele>
        <time>2019-06-16T18:23:41Z</time>
      </trkpt>
      <trkpt lat="43.386526" lon="-4.235491">
        <ele>72.816</ele>
        <time>2019-06-16T18:23:42Z</time>
      </trkpt>
      <trkpt lat="43.386521" lon="-4.235734">
        <ele>72.865</ele>
        <time>2019-06-16T18:23:43Z</time>
      </trkpt>
      <trkpt lat="43.386534" lon="-4.235975">
        <ele>72.068</ele>
        <time>2019-06-16T18:23:44Z</time>
      </trkpt>
      <trkpt lat="43.386570" lon="-4.236223">
        <ele>71.114</ele>
        <time>2019-06-16T18:23:45Z</time>
      </trkpt>
      <trkpt lat="43.386627" lon="-4.236482">
        <ele>70.608</ele>
        <time>2019-06-16T18:23:46Z</time>
      </trkpt>
      <trkpt lat="43.386695" lon="-4.236745">
        <ele>70.239</ele>
        <time>2019-06-16T18:23:47Z</time>
      </trkpt>
      <trkpt lat="43.386765" lon="-4.237018">
        <ele>69.713</ele>
        <time>2019-06-16T18:23:48Z</time>
      </trkpt>
      <trkpt lat="43.386839" lon="-4.237301">
        <ele>68.593</ele>
        <time>2019-06-16T18:23:49Z</time>
      </trkpt>
      <trkpt lat="43.386918" lon="-4.237590">
        <ele>67.487</ele>
        <time>2019-06-16T18:23:50Z</time>
      </trkpt>
      <trkpt lat="43.387000" lon="-4.237874">
        <ele>66.826</ele>
        <time>2019-06-16T18:23:51Z</time>
      </trkpt>
      <trkpt lat="43.387091" lon="-4.238158">
        <ele>65.966</ele>
        <time>2019-06-16T18:23:52Z</time>
      </trkpt>
      <trkpt lat="43.387178" lon="-4.238444">
        <ele>64.322</ele>
        <time>2019-06-16T18:23:53Z</time>
      </trkpt>
      <trkpt lat="43.387266" lon="-4.238728">
        <ele>64.271</ele>
        <time>2019-06-16T18:23:54Z</time>
      </trkpt>
      <trkpt lat="43.387350" lon="-4.239007">
        <ele>63.952</ele>
        <time>2019-06-16T18:23:55Z</time>
      </trkpt>
      <trkpt lat="43.387435" lon="-4.239279">
        <ele>63.753</ele>
        <time>2019-06-16T18:23:56Z</time>
      </trkpt>
      <trkpt lat="43.387518" lon="-4.239547">
        <ele>63.408</ele>
        <time>2019-06-16T18:23:57Z</time>
      </trkpt>
      <trkpt lat="43.387602" lon="-4.239810">
        <ele>63.408</ele>
        <time>2019-06-16T18:23:58Z</time>
      </trkpt>
      <trkpt lat="43.387679" lon="-4.240058">
        <ele>62.878</ele>
        <time>2019-06-16T18:23:59Z</time>
      </trkpt>
      <trkpt lat="43.387749" lon="-4.240289">
        <ele>61.342</ele>
        <time>2019-06-16T18:24:00Z</time>
      </trkpt>
      <trkpt lat="43.387818" lon="-4.240497">
        <ele>61.242</ele>
        <time>2019-06-16T18:24:01Z</time>
      </trkpt>
      <trkpt lat="43.387878" lon="-4.240681">
        <ele>61.026</ele>
        <time>2019-06-16T18:24:02Z</time>
      </trkpt>
      <trkpt lat="43.387937" lon="-4.240845">
        <ele>60.985</ele>
        <time>2019-06-16T18:24:03Z</time>
      </trkpt>
      <trkpt lat="43.387981" lon="-4.240985">
        <ele>60.735</ele>
        <time>2019-06-16T18:24:04Z</time>
      </trkpt>
      <trkpt lat="43.388017" lon="-4.241097">
        <ele>60.931</ele>
        <time>2019-06-16T18:24:05Z</time>
      </trkpt>
      <trkpt lat="43.388037" lon="-4.241182">
        <ele>61.180</ele>
        <time>2019-06-16T18:24:06Z</time>
      </trkpt>
      <trkpt lat="43.388059" lon="-4.241245">
        <ele>61.583</ele>
        <time>2019-06-16T18:24:07Z</time>
      </trkpt>
      <trkpt lat="43.388092" lon="-4.241314">
        <ele>61.625</ele>
        <time>2019-06-16T18:24:09Z</time>
      </trkpt>
      <trkpt lat="43.388101" lon="-4.241387">
        <ele>61.317</ele>
        <time>2019-06-16T18:24:10Z</time>
      </trkpt>
      <trkpt lat="43.388126" lon="-4.241479">
        <ele>61.208</ele>
        <time>2019-06-16T18:24:11Z</time>
      </trkpt>
      <trkpt lat="43.388174" lon="-4.241588">
        <ele>61.191</ele>
        <time>2019-06-16T18:24:12Z</time>
      </trkpt>
      <trkpt lat="43.388214" lon="-4.241705">
        <ele>61.035</ele>
        <time>2019-06-16T18:24:13Z</time>
      </trkpt>
      <trkpt lat="43.388264" lon="-4.241832">
        <ele>60.945</ele>
        <time>2019-06-16T18:24:14Z</time>
      </trkpt>
      <trkpt lat="43.388325" lon="-4.241964">
        <ele>60.949</ele>
        <time>2019-06-16T18:24:15Z</time>
      </trkpt>
      <trkpt lat="43.388393" lon="-4.242120">
        <ele>61.458</ele>
        <time>2019-06-16T18:24:16Z</time>
      </trkpt>
      <trkpt lat="43.388453" lon="-4.242268">
        <ele>61.768</ele>
        <time>2019-06-16T18:24:17Z</time>
      </trkpt>
      <trkpt lat="43.388513" lon="-4.242422">
        <ele>61.664</ele>
        <time>2019-06-16T18:24:18Z</time>
      </trkpt>
      <trkpt lat="43.388577" lon="-4.242599">
        <ele>61.133</ele>
        <time>2019-06-16T18:24:19Z</time>
      </trkpt>
      <trkpt lat="43.388637" lon="-4.242780">
        <ele>60.356</ele>
        <time>2019-06-16T18:24:20Z</time>
      </trkpt>
      <trkpt lat="43.388701" lon="-4.243004">
        <ele>59.659</ele>
        <time>2019-06-16T18:24:21Z</time>
      </trkpt>
      <trkpt lat="43.388758" lon="-4.243216">
        <ele>59.214</ele>
        <time>2019-06-16T18:24:22Z</time>
      </trkpt>
      <trkpt lat="43.388820" lon="-4.243433">
        <ele>58.608</ele>
        <time>2019-06-16T18:24:23Z</time>
      </trkpt>
      <trkpt lat="43.388884" lon="-4.243663">
        <ele>57.818</ele>
        <time>2019-06-16T18:24:24Z</time>
      </trkpt>
      <trkpt lat="43.388944" lon="-4.243898">
        <ele>57.242</ele>
        <time>2019-06-16T18:24:25Z</time>
      </trkpt>
      <trkpt lat="43.389014" lon="-4.244146">
        <ele>57.062</ele>
        <time>2019-06-16T18:24:26Z</time>
      </trkpt>
      <trkpt lat="43.389076" lon="-4.244396">
        <ele>56.726</ele>
        <time>2019-06-16T18:24:27Z</time>
      </trkpt>
      <trkpt lat="43.389139" lon="-4.244651">
        <ele>56.235</ele>
        <time>2019-06-16T18:24:28Z</time>
      </trkpt>
      <trkpt lat="43.389205" lon="-4.244909">
        <ele>55.545</ele>
        <time>2019-06-16T18:24:29Z</time>
      </trkpt>
      <trkpt lat="43.389267" lon="-4.245174">
        <ele>54.791</ele>
        <time>2019-06-16T18:24:30Z</time>
      </trkpt>
      <trkpt lat="43.389332" lon="-4.245448">
        <ele>54.320</ele>
        <time>2019-06-16T18:24:31Z</time>
      </trkpt>
      <trkpt lat="43.389401" lon="-4.245700">
        <ele>54.281</ele>
        <time>2019-06-16T18:24:32Z</time>
      </trkpt>
      <trkpt lat="43.389467" lon="-4.245959">
        <ele>53.661</ele>
        <time>2019-06-16T18:24:33Z</time>
      </trkpt>
      <trkpt lat="43.389536" lon="-4.246216">
        <ele>53.317</ele>
        <time>2019-06-16T18:24:34Z</time>
      </trkpt>
      <trkpt lat="43.389597" lon="-4.246474">
        <ele>53.208</ele>
        <time>2019-06-16T18:24:35Z</time>
      </trkpt>
      <trkpt lat="43.389655" lon="-4.246732">
        <ele>52.651</ele>
        <time>2019-06-16T18:24:36Z</time>
      </trkpt>
      <trkpt lat="43.389717" lon="-4.246989">
        <ele>51.855</ele>
        <time>2019-06-16T18:24:37Z</time>
      </trkpt>
      <trkpt lat="43.389749" lon="-4.247227">
        <ele>50.935</ele>
        <time>2019-06-16T18:24:38Z</time>
      </trkpt>
      <trkpt lat="43.389807" lon="-4.247472">
        <ele>49.879</ele>
        <time>2019-06-16T18:24:39Z</time>
      </trkpt>
      <trkpt lat="43.389841" lon="-4.247721">
        <ele>48.868</ele>
        <time>2019-06-16T18:24:40Z</time>
      </trkpt>
      <trkpt lat="43.389865" lon="-4.247977">
        <ele>48.178</ele>
        <time>2019-06-16T18:24:41Z</time>
      </trkpt>
      <trkpt lat="43.389872" lon="-4.248244">
        <ele>47.724</ele>
        <time>2019-06-16T18:24:42Z</time>
      </trkpt>
      <trkpt lat="43.389874" lon="-4.248506">
        <ele>46.973</ele>
        <time>2019-06-16T18:24:43Z</time>
      </trkpt>
      <trkpt lat="43.389835" lon="-4.248801">
        <ele>46.113</ele>
        <time>2019-06-16T18:24:44Z</time>
      </trkpt>
      <trkpt lat="43.389800" lon="-4.249090">
        <ele>45.343</ele>
        <time>2019-06-16T18:24:45Z</time>
      </trkpt>
      <trkpt lat="43.389771" lon="-4.249400">
        <ele>44.307</ele>
        <time>2019-06-16T18:24:46Z</time>
      </trkpt>
      <trkpt lat="43.389727" lon="-4.249691">
        <ele>43.108</ele>
        <time>2019-06-16T18:24:47Z</time>
      </trkpt>
      <trkpt lat="43.389673" lon="-4.249980">
        <ele>41.834</ele>
        <time>2019-06-16T18:24:48Z</time>
      </trkpt>
      <trkpt lat="43.389628" lon="-4.250281">
        <ele>39.778</ele>
        <time>2019-06-16T18:24:49Z</time>
      </trkpt>
      <trkpt lat="43.389585" lon="-4.250578">
        <ele>37.958</ele>
        <time>2019-06-16T18:24:50Z</time>
      </trkpt>
      <trkpt lat="43.389556" lon="-4.250889">
        <ele>36.862</ele>
        <time>2019-06-16T18:24:51Z</time>
      </trkpt>
      <trkpt lat="43.389533" lon="-4.251193">
        <ele>34.641</ele>
        <time>2019-06-16T18:24:52Z</time>
      </trkpt>
      <trkpt lat="43.389527" lon="-4.251502">
        <ele>33.211</ele>
        <time>2019-06-16T18:24:53Z</time>
      </trkpt>
      <trkpt lat="43.389535" lon="-4.251810">
        <ele>33.517</ele>
        <time>2019-06-16T18:24:54Z</time>
      </trkpt>
      <trkpt lat="43.389552" lon="-4.252114">
        <ele>34.596</ele>
        <time>2019-06-16T18:24:55Z</time>
      </trkpt>
      <trkpt lat="43.389584" lon="-4.252431">
        <ele>35.465</ele>
        <time>2019-06-16T18:24:56Z</time>
      </trkpt>
      <trkpt lat="43.389629" lon="-4.252749">
        <ele>36.368</ele>
        <time>2019-06-16T18:24:57Z</time>
      </trkpt>
      <trkpt lat="43.389680" lon="-4.253053">
        <ele>37.914</ele>
        <time>2019-06-16T18:24:58Z</time>
      </trkpt>
      <trkpt lat="43.389733" lon="-4.253347">
        <ele>38.108</ele>
        <time>2019-06-16T18:24:59Z</time>
      </trkpt>
      <trkpt lat="43.389787" lon="-4.253627">
        <ele>38.169</ele>
        <time>2019-06-16T18:25:00Z</time>
      </trkpt>
      <trkpt lat="43.389836" lon="-4.253908">
        <ele>37.493</ele>
        <time>2019-06-16T18:25:01Z</time>
      </trkpt>
      <trkpt lat="43.389882" lon="-4.254166">
        <ele>37.653</ele>
        <time>2019-06-16T18:25:02Z</time>
      </trkpt>
      <trkpt lat="43.389918" lon="-4.254429">
        <ele>38.177</ele>
        <time>2019-06-16T18:25:03Z</time>
      </trkpt>
      <trkpt lat="43.389953" lon="-4.254692">
        <ele>39.366</ele>
        <time>2019-06-16T18:25:04Z</time>
      </trkpt>
      <trkpt lat="43.389977" lon="-4.254959">
        <ele>40.336</ele>
        <time>2019-06-16T18:25:05Z</time>
      </trkpt>
      <trkpt lat="43.389993" lon="-4.255226">
        <ele>40.852</ele>
        <time>2019-06-16T18:25:06Z</time>
      </trkpt>
      <trkpt lat="43.390006" lon="-4.255486">
        <ele>41.021</ele>
        <time>2019-06-16T18:25:07Z</time>
      </trkpt>
      <trkpt lat="43.390010" lon="-4.255734">
        <ele>40.589</ele>
        <time>2019-06-16T18:25:08Z</time>
      </trkpt>
      <trkpt lat="43.390014" lon="-4.255985">
        <ele>40.106</ele>
        <time>2019-06-16T18:25:09Z</time>
      </trkpt>
      <trkpt lat="43.390025" lon="-4.256235">
        <ele>40.226</ele>
        <time>2019-06-16T18:25:10Z</time>
      </trkpt>
      <trkpt lat="43.390037" lon="-4.256491">
        <ele>39.808</ele>
        <time>2019-06-16T18:25:11Z</time>
      </trkpt>
      <trkpt lat="43.390049" lon="-4.256753">
        <ele>38.551</ele>
        <time>2019-06-16T18:25:12Z</time>
      </trkpt>
      <trkpt lat="43.390062" lon="-4.257018">
        <ele>37.425</ele>
        <time>2019-06-16T18:25:13Z</time>
      </trkpt>
      <trkpt lat="43.390073" lon="-4.257288">
        <ele>35.895</ele>
        <time>2019-06-16T18:25:14Z</time>
      </trkpt>
      <trkpt lat="43.390088" lon="-4.257562">
        <ele>34.469</ele>
        <time>2019-06-16T18:25:15Z</time>
      </trkpt>
      <trkpt lat="43.390105" lon="-4.257841">
        <ele>34.068</ele>
        <time>2019-06-16T18:25:16Z</time>
      </trkpt>
      <trkpt lat="43.390114" lon="-4.258122">
        <ele>33.228</ele>
        <time>2019-06-16T18:25:17Z</time>
      </trkpt>
      <trkpt lat="43.390125" lon="-4.258404">
        <ele>32.254</ele>
        <time>2019-06-16T18:25:18Z</time>
      </trkpt>
      <trkpt lat="43.390129" lon="-4.258689">
        <ele>32.033</ele>
        <time>2019-06-16T18:25:19Z</time>
      </trkpt>
      <trkpt lat="43.390126" lon="-4.258975">
        <ele>32.615</ele>
        <time>2019-06-16T18:25:20Z</time>
      </trkpt>
      <trkpt lat="43.390097" lon="-4.259252">
        <ele>32.965</ele>
        <time>2019-06-16T18:25:21Z</time>
      </trkpt>
      <trkpt lat="43.390064" lon="-4.259522">
        <ele>32.611</ele>
        <time>2019-06-16T18:25:22Z</time>
      </trkpt>
      <trkpt lat="43.390038" lon="-4.259799">
        <ele>33.108</ele>
        <time>2019-06-16T18:25:23Z</time>
      </trkpt>
      <trkpt lat="43.390001" lon="-4.260063">
        <ele>32.364</ele>
        <time>2019-06-16T18:25:24Z</time>
      </trkpt>
      <trkpt lat="43.389959" lon="-4.260334">
        <ele>31.858</ele>
        <time>2019-06-16T18:25:25Z</time>
      </trkpt>
      <trkpt lat="43.389910" lon="-4.260577">
        <ele>30.218</ele>
        <time>2019-06-16T18:25:26Z</time>
      </trkpt>
      <trkpt lat="43.389872" lon="-4.260838">
        <ele>30.332</ele>
        <time>2019-06-16T18:25:27Z</time>
      </trkpt>
      <trkpt lat="43.389837" lon="-4.261094">
        <ele>30.251</ele>
        <time>2019-06-16T18:25:28Z</time>
      </trkpt>
      <trkpt lat="43.389797" lon="-4.261348">
        <ele>29.461</ele>
        <time>2019-06-16T18:25:29Z</time>
      </trkpt>
      <trkpt lat="43.389765" lon="-4.261608">
        <ele>28.997</ele>
        <time>2019-06-16T18:25:30Z</time>
      </trkpt>
      <trkpt lat="43.389721" lon="-4.261865">
        <ele>28.026</ele>
        <time>2019-06-16T18:25:31Z</time>
      </trkpt>
      <trkpt lat="43.389682" lon="-4.262116">
        <ele>26.222</ele>
        <time>2019-06-16T18:25:32Z</time>
      </trkpt>
      <trkpt lat="43.389637" lon="-4.262378">
        <ele>24.562</ele>
        <time>2019-06-16T18:25:33Z</time>
      </trkpt>
      <trkpt lat="43.389590" lon="-4.262643">
        <ele>23.208</ele>
        <time>2019-06-16T18:25:34Z</time>
      </trkpt>
      <trkpt lat="43.389535" lon="-4.262919">
        <ele>22.108</ele>
        <time>2019-06-16T18:25:35Z</time>
      </trkpt>
      <trkpt lat="43.389477" lon="-4.263203">
        <ele>21.365</ele>
        <time>2019-06-16T18:25:36Z</time>
      </trkpt>
      <trkpt lat="43.389406" lon="-4.263501">
        <ele>19.149</ele>
        <time>2019-06-16T18:25:37Z</time>
      </trkpt>
      <trkpt lat="43.389333" lon="-4.263806">
        <ele>16.479</ele>
        <time>2019-06-16T18:25:38Z</time>
      </trkpt>
      <trkpt lat="43.389250" lon="-4.264118">
        <ele>14.143</ele>
        <time>2019-06-16T18:25:39Z</time>
      </trkpt>
      <trkpt lat="43.389168" lon="-4.264426">
        <ele>14.992</ele>
        <time>2019-06-16T18:25:40Z</time>
      </trkpt>
      <trkpt lat="43.389092" lon="-4.264722">
        <ele>15.722</ele>
        <time>2019-06-16T18:25:41Z</time>
      </trkpt>
      <trkpt lat="43.389013" lon="-4.265010">
        <ele>18.958</ele>
        <time>2019-06-16T18:25:42Z</time>
      </trkpt>
      <trkpt lat="43.388944" lon="-4.265279">
        <ele>19.637</ele>
        <time>2019-06-16T18:25:43Z</time>
      </trkpt>
      <trkpt lat="43.388889" lon="-4.265532">
        <ele>19.899</ele>
        <time>2019-06-16T18:25:44Z</time>
      </trkpt>
      <trkpt lat="43.388827" lon="-4.265775">
        <ele>22.007</ele>
        <time>2019-06-16T18:25:45Z</time>
      </trkpt>
      <trkpt lat="43.388774" lon="-4.265998">
        <ele>23.127</ele>
        <time>2019-06-16T18:25:46Z</time>
      </trkpt>
      <trkpt lat="43.388718" lon="-4.266201">
        <ele>23.608</ele>
        <time>2019-06-16T18:25:47Z</time>
      </trkpt>
      <trkpt lat="43.388666" lon="-4.266396">
        <ele>23.812</ele>
        <time>2019-06-16T18:25:48Z</time>
      </trkpt>
      <trkpt lat="43.388616" lon="-4.266573">
        <ele>24.496</ele>
        <time>2019-06-16T18:25:49Z</time>
      </trkpt>
      <trkpt lat="43.388572" lon="-4.266743">
        <ele>25.356</ele>
        <time>2019-06-16T18:25:50Z</time>
      </trkpt>
      <trkpt lat="43.388538" lon="-4.266900">
        <ele>26.240</ele>
        <time>2019-06-16T18:25:51Z</time>
      </trkpt>
      <trkpt lat="43.388497" lon="-4.267053">
        <ele>26.689</ele>
        <time>2019-06-16T18:25:52Z</time>
      </trkpt>
      <trkpt lat="43.388458" lon="-4.267209">
        <ele>26.919</ele>
        <time>2019-06-16T18:25:53Z</time>
      </trkpt>
      <trkpt lat="43.388415" lon="-4.267369">
        <ele>27.365</ele>
        <time>2019-06-16T18:25:54Z</time>
      </trkpt>
      <trkpt lat="43.388369" lon="-4.267524">
        <ele>27.614</ele>
        <time>2019-06-16T18:25:55Z</time>
      </trkpt>
      <trkpt lat="43.388323" lon="-4.267703">
        <ele>28.378</ele>
        <time>2019-06-16T18:25:56Z</time>
      </trkpt>
      <trkpt lat="43.388284" lon="-4.267890">
        <ele>28.433</ele>
        <time>2019-06-16T18:25:57Z</time>
      </trkpt>
      <trkpt lat="43.388249" lon="-4.268087">
        <ele>28.026</ele>
        <time>2019-06-16T18:25:58Z</time>
      </trkpt>
      <trkpt lat="43.388220" lon="-4.268289">
        <ele>27.308</ele>
        <time>2019-06-16T18:25:59Z</time>
      </trkpt>
      <trkpt lat="43.388202" lon="-4.268509">
        <ele>25.840</ele>
        <time>2019-06-16T18:26:00Z</time>
      </trkpt>
      <trkpt lat="43.388192" lon="-4.268739">
        <ele>24.584</ele>
        <time>2019-06-16T18:26:01Z</time>
      </trkpt>
      <trkpt lat="43.388190" lon="-4.268974">
        <ele>23.754</ele>
        <time>2019-06-16T18:26:02Z</time>
      </trkpt>
      <trkpt lat="43.388192" lon="-4.269213">
        <ele>22.828</ele>
        <time>2019-06-16T18:26:03Z</time>
      </trkpt>
      <trkpt lat="43.388195" lon="-4.269461">
        <ele>22.057</ele>
        <time>2019-06-16T18:26:04Z</time>
      </trkpt>
      <trkpt lat="43.388199" lon="-4.269707">
        <ele>22.077</ele>
        <time>2019-06-16T18:26:05Z</time>
      </trkpt>
      <trkpt lat="43.388203" lon="-4.269947">
        <ele>21.623</ele>
        <time>2019-06-16T18:26:06Z</time>
      </trkpt>
      <trkpt lat="43.388208" lon="-4.270186">
        <ele>21.262</ele>
        <time>2019-06-16T18:26:07Z</time>
      </trkpt>
      <trkpt lat="43.388210" lon="-4.270425">
        <ele>20.874</ele>
        <time>2019-06-16T18:26:08Z</time>
      </trkpt>
      <trkpt lat="43.388214" lon="-4.270671">
        <ele>20.356</ele>
        <time>2019-06-16T18:26:09Z</time>
      </trkpt>
      <trkpt lat="43.388216" lon="-4.270929">
        <ele>19.921</ele>
        <time>2019-06-16T18:26:10Z</time>
      </trkpt>
      <trkpt lat="43.388226" lon="-4.271192">
        <ele>19.408</ele>
        <time>2019-06-16T18:26:11Z</time>
      </trkpt>
      <trkpt lat="43.388240" lon="-4.271453">
        <ele>19.070</ele>
        <time>2019-06-16T18:26:12Z</time>
      </trkpt>
      <trkpt lat="43.388249" lon="-4.271720">
        <ele>18.934</ele>
        <time>2019-06-16T18:26:13Z</time>
      </trkpt>
      <trkpt lat="43.388258" lon="-4.271975">
        <ele>18.224</ele>
        <time>2019-06-16T18:26:14Z</time>
      </trkpt>
      <trkpt lat="43.388263" lon="-4.272232">
        <ele>17.718</ele>
        <time>2019-06-16T18:26:15Z</time>
      </trkpt>
      <trkpt lat="43.388273" lon="-4.272491">
        <ele>17.887</ele>
        <time>2019-06-16T18:26:16Z</time>
      </trkpt>
      <trkpt lat="43.388277" lon="-4.272766">
        <ele>17.067</ele>
        <time>2019-06-16T18:26:17Z</time>
      </trkpt>
      <trkpt lat="43.388285" lon="-4.273029">
        <ele>17.063</ele>
        <time>2019-06-16T18:26:18Z</time>
      </trkpt>
      <trkpt lat="43.388294" lon="-4.273296">
        <ele>16.362</ele>
        <time>2019-06-16T18:26:19Z</time>
      </trkpt>
      <trkpt lat="43.388297" lon="-4.273565">
        <ele>15.435</ele>
        <time>2019-06-16T18:26:20Z</time>
      </trkpt>
      <trkpt lat="43.388300" lon="-4.273840">
        <ele>15.286</ele>
        <time>2019-06-16T18:26:21Z</time>
      </trkpt>
      <trkpt lat="43.388306" lon="-4.274116">
        <ele>15.214</ele>
        <time>2019-06-16T18:26:22Z</time>
      </trkpt>
      <trkpt lat="43.388316" lon="-4.274387">
        <ele>15.108</ele>
        <time>2019-06-16T18:26:23Z</time>
      </trkpt>
      <trkpt lat="43.388324" lon="-4.274667">
        <ele>15.886</ele>
        <time>2019-06-16T18:26:24Z</time>
      </trkpt>
      <trkpt lat="43.388335" lon="-4.274917">
        <ele>16.770</ele>
        <time>2019-06-16T18:26:25Z</time>
      </trkpt>
      <trkpt lat="43.388349" lon="-4.275171">
        <ele>18.140</ele>
        <time>2019-06-16T18:26:26Z</time>
      </trkpt>
      <trkpt lat="43.388351" lon="-4.275414">
        <ele>19.014</ele>
        <time>2019-06-16T18:26:27Z</time>
      </trkpt>
      <trkpt lat="43.388352" lon="-4.275637">
        <ele>19.543</ele>
        <time>2019-06-16T18:26:28Z</time>
      </trkpt>
      <trkpt lat="43.388355" lon="-4.275848">
        <ele>19.563</ele>
        <time>2019-06-16T18:26:29Z</time>
      </trkpt>
      <trkpt lat="43.388362" lon="-4.276044">
        <ele>19.679</ele>
        <time>2019-06-16T18:26:30Z</time>
      </trkpt>
      <trkpt lat="43.388365" lon="-4.276231">
        <ele>19.698</ele>
        <time>2019-06-16T18:26:31Z</time>
      </trkpt>
      <trkpt lat="43.388369" lon="-4.276414">
        <ele>19.767</ele>
        <time>2019-06-16T18:26:32Z</time>
      </trkpt>
      <trkpt lat="43.388374" lon="-4.276575">
        <ele>19.981</ele>
        <time>2019-06-16T18:26:33Z</time>
      </trkpt>
      <trkpt lat="43.388377" lon="-4.276734">
        <ele>20.119</ele>
        <time>2019-06-16T18:26:34Z</time>
      </trkpt>
      <trkpt lat="43.388384" lon="-4.276900">
        <ele>20.408</ele>
        <time>2019-06-16T18:26:35Z</time>
      </trkpt>
      <trkpt lat="43.388389" lon="-4.277053">
        <ele>20.139</ele>
        <time>2019-06-16T18:26:36Z</time>
      </trkpt>
      <trkpt lat="43.388398" lon="-4.277200">
        <ele>19.533</ele>
        <time>2019-06-16T18:26:37Z</time>
      </trkpt>
      <trkpt lat="43.388408" lon="-4.277348">
        <ele>18.733</ele>
        <time>2019-06-16T18:26:38Z</time>
      </trkpt>
      <trkpt lat="43.388416" lon="-4.277493">
        <ele>17.897</ele>
        <time>2019-06-16T18:26:39Z</time>
      </trkpt>
      <trkpt lat="43.388414" lon="-4.277634">
        <ele>17.366</ele>
        <time>2019-06-16T18:26:40Z</time>
      </trkpt>
      <trkpt lat="43.388409" lon="-4.277770">
        <ele>16.766</ele>
        <time>2019-06-16T18:26:41Z</time>
      </trkpt>
      <trkpt lat="43.388391" lon="-4.277908">
        <ele>15.742</ele>
        <time>2019-06-16T18:26:42Z</time>
      </trkpt>
      <trkpt lat="43.388375" lon="-4.278048">
        <ele>14.841</ele>
        <time>2019-06-16T18:26:43Z</time>
      </trkpt>
      <trkpt lat="43.388349" lon="-4.278189">
        <ele>13.222</ele>
        <time>2019-06-16T18:26:44Z</time>
      </trkpt>
      <trkpt lat="43.388316" lon="-4.278339">
        <ele>12.462</ele>
        <time>2019-06-16T18:26:45Z</time>
      </trkpt>
      <trkpt lat="43.388269" lon="-4.278485">
        <ele>12.708</ele>
        <time>2019-06-16T18:26:46Z</time>
      </trkpt>
      <trkpt lat="43.388220" lon="-4.278624">
        <ele>12.508</ele>
        <time>2019-06-16T18:26:47Z</time>
      </trkpt>
      <trkpt lat="43.388163" lon="-4.278764">
        <ele>11.565</ele>
        <time>2019-06-16T18:26:48Z</time>
      </trkpt>
      <trkpt lat="43.388100" lon="-4.278895">
        <ele>10.459</ele>
        <time>2019-06-16T18:26:49Z</time>
      </trkpt>
      <trkpt lat="43.388041" lon="-4.279015">
        <ele>9.869</ele>
        <time>2019-06-16T18:26:50Z</time>
      </trkpt>
      <trkpt lat="43.387983" lon="-4.279125">
        <ele>9.483</ele>
        <time>2019-06-16T18:26:51Z</time>
      </trkpt>
      <trkpt lat="43.387935" lon="-4.279227">
        <ele>9.482</ele>
        <time>2019-06-16T18:26:52Z</time>
      </trkpt>
      <trkpt lat="43.387889" lon="-4.279322">
        <ele>9.622</ele>
        <time>2019-06-16T18:26:53Z</time>
      </trkpt>
      <trkpt lat="43.387844" lon="-4.279405">
        <ele>10.058</ele>
        <time>2019-06-16T18:26:54Z</time>
      </trkpt>
      <trkpt lat="43.387795" lon="-4.279493">
        <ele>10.287</ele>
        <time>2019-06-16T18:26:55Z</time>
      </trkpt>
      <trkpt lat="43.387749" lon="-4.279585">
        <ele>10.459</ele>
        <time>2019-06-16T18:26:56Z</time>
      </trkpt>
      <trkpt lat="43.387706" lon="-4.279694">
        <ele>10.803</ele>
        <time>2019-06-16T18:26:57Z</time>
      </trkpt>
      <trkpt lat="43.387662" lon="-4.279803">
        <ele>11.123</ele>
        <time>2019-06-16T18:26:58Z</time>
      </trkpt>
      <trkpt lat="43.387622" lon="-4.279917">
        <ele>11.208</ele>
        <time>2019-06-16T18:26:59Z</time>
      </trkpt>
      <trkpt lat="43.387581" lon="-4.280037">
        <ele>11.548</ele>
        <time>2019-06-16T18:27:00Z</time>
      </trkpt>
      <trkpt lat="43.387553" lon="-4.280158">
        <ele>11.862</ele>
        <time>2019-06-16T18:27:01Z</time>
      </trkpt>
      <trkpt lat="43.387506" lon="-4.280253">
        <ele>12.982</ele>
        <time>2019-06-16T18:27:02Z</time>
      </trkpt>
      <trkpt lat="43.387446" lon="-4.280337">
        <ele>12.736</ele>
        <time>2019-06-16T18:27:03Z</time>
      </trkpt>
      <trkpt lat="43.387381" lon="-4.280397">
        <ele>12.675</ele>
        <time>2019-06-16T18:27:04Z</time>
      </trkpt>
      <trkpt lat="43.387311" lon="-4.280452">
        <ele>12.785</ele>
        <time>2019-06-16T18:27:05Z</time>
      </trkpt>
      <trkpt lat="43.387251" lon="-4.280501">
        <ele>12.531</ele>
        <time>2019-06-16T18:27:06Z</time>
      </trkpt>
      <trkpt lat="43.387193" lon="-4.280558">
        <ele>11.540</ele>
        <time>2019-06-16T18:27:07Z</time>
      </trkpt>
      <trkpt lat="43.387137" lon="-4.280635">
        <ele>10.349</ele>
        <time>2019-06-16T18:27:08Z</time>
      </trkpt>
      <trkpt lat="43.387098" lon="-4.280737">
        <ele>8.302</ele>
        <time>2019-06-16T18:27:09Z</time>
      </trkpt>
      <trkpt lat="43.387072" lon="-4.280845">
        <ele>6.322</ele>
        <time>2019-06-16T18:27:10Z</time>
      </trkpt>
      <trkpt lat="43.387059" lon="-4.280964">
        <ele>6.708</ele>
        <time>2019-06-16T18:27:11Z</time>
      </trkpt>
      <trkpt lat="43.387054" lon="-4.281085">
        <ele>7.027</ele>
        <time>2019-06-16T18:27:12Z</time>
      </trkpt>
      <trkpt lat="43.387050" lon="-4.281213">
        <ele>10.321</ele>
        <time>2019-06-16T18:27:13Z</time>
      </trkpt>
      <trkpt lat="43.387053" lon="-4.281338">
        <ele>14.211</ele>
        <time>2019-06-16T18:27:14Z</time>
      </trkpt>
      <trkpt lat="43.387077" lon="-4.281452">
        <ele>16.695</ele>
        <time>2019-06-16T18:27:15Z</time>
      </trkpt>
      <trkpt lat="43.387107" lon="-4.281557">
        <ele>17.744</ele>
        <time>2019-06-16T18:27:16Z</time>
      </trkpt>
      <trkpt lat="43.387147" lon="-4.281649">
        <ele>18.034</ele>
        <time>2019-06-16T18:27:17Z</time>
      </trkpt>
      <trkpt lat="43.387185" lon="-4.281734">
        <ele>17.410</ele>
        <time>2019-06-16T18:27:18Z</time>
      </trkpt>
      <trkpt lat="43.387219" lon="-4.281824">
        <ele>16.769</ele>
        <time>2019-06-16T18:27:19Z</time>
      </trkpt>
      <trkpt lat="43.387256" lon="-4.281901">
        <ele>16.292</ele>
        <time>2019-06-16T18:27:20Z</time>
      </trkpt>
      <trkpt lat="43.387288" lon="-4.281962">
        <ele>16.073</ele>
        <time>2019-06-16T18:27:21Z</time>
      </trkpt>
      <trkpt lat="43.387317" lon="-4.282022">
        <ele>15.920</ele>
        <time>2019-06-16T18:27:24Z</time>
      </trkpt>
      <trkpt lat="43.387342" lon="-4.282095">
        <ele>16.208</ele>
        <time>2019-06-16T18:27:33Z</time>
      </trkpt>
      <trkpt lat="43.387355" lon="-4.282160">
        <ele>16.522</ele>
        <time>2019-06-16T18:27:34Z</time>
      </trkpt>
      <trkpt lat="43.387356" lon="-4.282230">
        <ele>17.116</ele>
        <time>2019-06-16T18:27:35Z</time>
      </trkpt>
      <trkpt lat="43.387347" lon="-4.282301">
        <ele>17.286</ele>
        <time>2019-06-16T18:27:36Z</time>
      </trkpt>
      <trkpt lat="43.387331" lon="-4.282379">
        <ele>17.650</ele>
        <time>2019-06-16T18:27:37Z</time>
      </trkpt>
      <trkpt lat="43.387291" lon="-4.282473">
        <ele>18.579</ele>
        <time>2019-06-16T18:27:38Z</time>
      </trkpt>
      <trkpt lat="43.387267" lon="-4.282565">
        <ele>19.089</ele>
        <time>2019-06-16T18:27:39Z</time>
      </trkpt>
      <trkpt lat="43.387249" lon="-4.282677">
        <ele>19.345</ele>
        <time>2019-06-16T18:27:40Z</time>
      </trkpt>
      <trkpt lat="43.387239" lon="-4.282806">
        <ele>19.494</ele>
        <time>2019-06-16T18:27:41Z</time>
      </trkpt>
      <trkpt lat="43.387225" lon="-4.282936">
        <ele>19.483</ele>
        <time>2019-06-16T18:27:42Z</time>
      </trkpt>
      <trkpt lat="43.387217" lon="-4.283062">
        <ele>19.325</ele>
        <time>2019-06-16T18:27:43Z</time>
      </trkpt>
      <trkpt lat="43.387209" lon="-4.283195">
        <ele>19.717</ele>
        <time>2019-06-16T18:27:44Z</time>
      </trkpt>
      <trkpt lat="43.387199" lon="-4.283320">
        <ele>20.208</ele>
        <time>2019-06-16T18:27:45Z</time>
      </trkpt>
      <trkpt lat="43.387194" lon="-4.283458">
        <ele>20.431</ele>
        <time>2019-06-16T18:27:46Z</time>
      </trkpt>
      <trkpt lat="43.387188" lon="-4.283576">
        <ele>20.645</ele>
        <time>2019-06-16T18:27:47Z</time>
      </trkpt>
      <trkpt lat="43.387192" lon="-4.283700">
        <ele>20.455</ele>
        <time>2019-06-16T18:27:48Z</time>
      </trkpt>
      <trkpt lat="43.387187" lon="-4.283824">
        <ele>20.619</ele>
        <time>2019-06-16T18:27:49Z</time>
      </trkpt>
      <trkpt lat="43.387181" lon="-4.283948">
        <ele>21.128</ele>
        <time>2019-06-16T18:27:50Z</time>
      </trkpt>
      <trkpt lat="43.387163" lon="-4.284081">
        <ele>22.368</ele>
        <time>2019-06-16T18:27:51Z</time>
      </trkpt>
      <trkpt lat="43.387166" lon="-4.284211">
        <ele>22.584</ele>
        <time>2019-06-16T18:27:52Z</time>
      </trkpt>
      <trkpt lat="43.387170" lon="-4.284341">
        <ele>22.463</ele>
        <time>2019-06-16T18:27:53Z</time>
      </trkpt>
      <trkpt lat="43.387168" lon="-4.284472">
        <ele>22.761</ele>
        <time>2019-06-16T18:27:54Z</time>
      </trkpt>
      <trkpt lat="43.387167" lon="-4.284603">
        <ele>23.321</ele>
        <time>2019-06-16T18:27:55Z</time>
      </trkpt>
      <trkpt lat="43.387167" lon="-4.284735">
        <ele>23.813</ele>
        <time>2019-06-16T18:27:56Z</time>
      </trkpt>
      <trkpt lat="43.387174" lon="-4.284884">
        <ele>24.208</ele>
        <time>2019-06-16T18:27:57Z</time>
      </trkpt>
      <trkpt lat="43.387184" lon="-4.285015">
        <ele>24.339</ele>
        <time>2019-06-16T18:27:58Z</time>
      </trkpt>
      <trkpt lat="43.387188" lon="-4.285145">
        <ele>24.573</ele>
        <time>2019-06-16T18:27:59Z</time>
      </trkpt>
      <trkpt lat="43.387189" lon="-4.285295">
        <ele>24.943</ele>
        <time>2019-06-16T18:28:00Z</time>
      </trkpt>
      <trkpt lat="43.387216" lon="-4.285422">
        <ele>23.497</ele>
        <time>2019-06-16T18:28:01Z</time>
      </trkpt>
      <trkpt lat="43.387208" lon="-4.285552">
        <ele>23.956</ele>
        <time>2019-06-16T18:28:02Z</time>
      </trkpt>
      <trkpt lat="43.387204" lon="-4.285686">
        <ele>24.146</ele>
        <time>2019-06-16T18:28:03Z</time>
      </trkpt>
      <trkpt lat="43.387170" lon="-4.285833">
        <ele>26.032</ele>
        <time>2019-06-16T18:28:04Z</time>
      </trkpt>
      <trkpt lat="43.387159" lon="-4.285959">
        <ele>26.461</ele>
        <time>2019-06-16T18:28:05Z</time>
      </trkpt>
      <trkpt lat="43.387144" lon="-4.286096">
        <ele>27.026</ele>
        <time>2019-06-16T18:28:06Z</time>
      </trkpt>
      <trkpt lat="43.387117" lon="-4.286234">
        <ele>28.147</ele>
        <time>2019-06-16T18:28:07Z</time>
      </trkpt>
      <trkpt lat="43.387105" lon="-4.286369">
        <ele>28.511</ele>
        <time>2019-06-16T18:28:08Z</time>
      </trkpt>
      <trkpt lat="43.387089" lon="-4.286497">
        <ele>28.908</ele>
        <time>2019-06-16T18:28:09Z</time>
      </trkpt>
      <trkpt lat="43.387069" lon="-4.286623">
        <ele>29.285</ele>
        <time>2019-06-16T18:28:10Z</time>
      </trkpt>
      <trkpt lat="43.387050" lon="-4.286725">
        <ele>29.849</ele>
        <time>2019-06-16T18:28:11Z</time>
      </trkpt>
      <trkpt lat="43.387044" lon="-4.286847">
        <ele>29.919</ele>
        <time>2019-06-16T18:28:12Z</time>
      </trkpt>
      <trkpt lat="43.387027" lon="-4.286957">
        <ele>30.393</ele>
        <time>2019-06-16T18:28:13Z</time>
      </trkpt>
      <trkpt lat="43.387012" lon="-4.287065">
        <ele>30.662</ele>
        <time>2019-06-16T18:28:14Z</time>
      </trkpt>
      <trkpt lat="43.386992" lon="-4.287161">
        <ele>30.932</ele>
        <time>2019-06-16T18:28:15Z</time>
      </trkpt>
      <trkpt lat="43.386985" lon="-4.287260">
        <ele>31.038</ele>
        <time>2019-06-16T18:28:16Z</time>
      </trkpt>
      <trkpt lat="43.386996" lon="-4.287331">
        <ele>30.857</ele>
        <time>2019-06-16T18:28:17Z</time>
      </trkpt>
      <trkpt lat="43.387016" lon="-4.287398">
        <ele>30.449</ele>
        <time>2019-06-16T18:28:18Z</time>
      </trkpt>
      <trkpt lat="43.387006" lon="-4.287478">
        <ele>30.702</ele>
        <time>2019-06-16T18:28:19Z</time>
      </trkpt>
      <trkpt lat="43.386978" lon="-4.287568">
        <ele>31.322</ele>
        <time>2019-06-16T18:28:20Z</time>
      </trkpt>
      <trkpt lat="43.386965" lon="-4.287646">
        <ele>31.608</ele>
        <time>2019-06-16T18:28:21Z</time>
      </trkpt>
      <trkpt lat="43.386952" lon="-4.287720">
        <ele>31.917</ele>
        <time>2019-06-16T18:28:22Z</time>
      </trkpt>
      <trkpt lat="43.386939" lon="-4.287823">
        <ele>32.711</ele>
        <time>2019-06-16T18:28:23Z</time>
      </trkpt>
      <trkpt lat="43.386939" lon="-4.287917">
        <ele>33.741</ele>
        <time>2019-06-16T18:28:24Z</time>
      </trkpt>
      <trkpt lat="43.386929" lon="-4.288023">
        <ele>35.275</ele>
        <time>2019-06-16T18:28:25Z</time>
      </trkpt>
      <trkpt lat="43.386921" lon="-4.288093">
        <ele>35.874</ele>
        <time>2019-06-16T18:28:26Z</time>
      </trkpt>
      <trkpt lat="43.386912" lon="-4.288172">
        <ele>36.064</ele>
        <time>2019-06-16T18:28:27Z</time>
      </trkpt>
      <trkpt lat="43.386898" lon="-4.288242">
        <ele>36.270</ele>
        <time>2019-06-16T18:28:28Z</time>
      </trkpt>
      <trkpt lat="43.386884" lon="-4.288344">
        <ele>36.349</ele>
        <time>2019-06-16T18:28:30Z</time>
      </trkpt>
      <trkpt lat="43.386861" lon="-4.288408">
        <ele>36.931</ele>
        <time>2019-06-16T18:28:36Z</time>
      </trkpt>
      <trkpt lat="43.386843" lon="-4.288471">
        <ele>37.161</ele>
        <time>2019-06-16T18:28:40Z</time>
      </trkpt>
      <trkpt lat="43.386836" lon="-4.288549">
        <ele>37.107</ele>
        <time>2019-06-16T18:28:43Z</time>
      </trkpt>
      <trkpt lat="43.386769" lon="-4.288580">
        <ele>37.208</ele>
        <time>2019-06-16T18:28:47Z</time>
      </trkpt>
      <trkpt lat="43.386726" lon="-4.288553">
        <ele>37.666</ele>
        <time>2019-06-16T18:28:48Z</time>
      </trkpt>
      <trkpt lat="43.386688" lon="-4.288519">
        <ele>38.240</ele>
        <time>2019-06-16T18:28:49Z</time>
      </trkpt>
      <trkpt lat="43.386652" lon="-4.288480">
        <ele>38.860</ele>
        <time>2019-06-16T18:28:50Z</time>
      </trkpt>
      <trkpt lat="43.386575" lon="-4.288495">
        <ele>38.154</ele>
        <time>2019-06-16T18:28:51Z</time>
      </trkpt>
      <trkpt lat="43.386512" lon="-4.288488">
        <ele>37.913</ele>
        <time>2019-06-16T18:28:52Z</time>
      </trkpt>
      <trkpt lat="43.386492" lon="-4.288365">
        <ele>39.873</ele>
        <time>2019-06-16T18:28:54Z</time>
      </trkpt>
      <trkpt lat="43.386450" lon="-4.288334">
        <ele>40.269</ele>
        <time>2019-06-16T18:28:55Z</time>
      </trkpt>
      <trkpt lat="43.386397" lon="-4.288302">
        <ele>40.538</ele>
        <time>2019-06-16T18:28:56Z</time>
      </trkpt>
      <trkpt lat="43.386343" lon="-4.288298">
        <ele>41.676</ele>
        <time>2019-06-16T18:28:57Z</time>
      </trkpt>
      <trkpt lat="43.386286" lon="-4.288314">
        <ele>42.890</ele>
        <time>2019-06-16T18:28:58Z</time>
      </trkpt>
      <trkpt lat="43.386232" lon="-4.288362">
        <ele>43.619</ele>
        <time>2019-06-16T18:28:59Z</time>
      </trkpt>
      <trkpt lat="43.386183" lon="-4.288415">
        <ele>44.208</ele>
        <time>2019-06-16T18:29:00Z</time>
      </trkpt>
      <trkpt lat="43.386138" lon="-4.288490">
        <ele>44.520</ele>
        <time>2019-06-16T18:29:01Z</time>
      </trkpt>
      <trkpt lat="43.386102" lon="-4.288565">
        <ele>44.764</ele>
        <time>2019-06-16T18:29:02Z</time>
      </trkpt>
      <trkpt lat="43.386070" lon="-4.288624">
        <ele>44.694</ele>
        <time>2019-06-16T18:29:03Z</time>
      </trkpt>
      <trkpt lat="43.386038" lon="-4.288667">
        <ele>44.648</ele>
        <time>2019-06-16T18:29:04Z</time>
      </trkpt>
      <trkpt lat="43.386008" lon="-4.288724">
        <ele>44.577</ele>
        <time>2019-06-16T18:29:05Z</time>
      </trkpt>
      <trkpt lat="43.385938" lon="-4.288785">
        <ele>45.497</ele>
        <time>2019-06-16T18:29:07Z</time>
      </trkpt>
      <trkpt lat="43.385869" lon="-4.288786">
        <ele>46.983</ele>
        <time>2019-06-16T18:29:09Z</time>
      </trkpt>
      <trkpt lat="43.385813" lon="-4.288795">
        <ele>47.922</ele>
        <time>2019-06-16T18:29:10Z</time>
      </trkpt>
      <trkpt lat="43.385731" lon="-4.288844">
        <ele>48.435</ele>
        <time>2019-06-16T18:29:12Z</time>
      </trkpt>
      <trkpt lat="43.385661" lon="-4.288898">
        <ele>48.886</ele>
        <time>2019-06-16T18:29:14Z</time>
      </trkpt>
      <trkpt lat="43.385634" lon="-4.288965">
        <ele>48.414</ele>
        <time>2019-06-16T18:29:16Z</time>
      </trkpt>
      <trkpt lat="43.385608" lon="-4.289036">
        <ele>47.908</ele>
        <time>2019-06-16T18:29:18Z</time>
      </trkpt>
      <trkpt lat="43.385583" lon="-4.289114">
        <ele>47.466</ele>
        <time>2019-06-16T18:29:19Z</time>
      </trkpt>
      <trkpt lat="43.385541" lon="-4.289178">
        <ele>46.620</ele>
        <time>2019-06-16T18:29:21Z</time>
      </trkpt>
      <trkpt lat="43.385484" lon="-4.289333">
        <ele>44.190</ele>
        <time>2019-06-16T18:29:23Z</time>
      </trkpt>
      <trkpt lat="43.385449" lon="-4.289444">
        <ele>42.524</ele>
        <time>2019-06-16T18:29:24Z</time>
      </trkpt>
      <trkpt lat="43.385414" lon="-4.289519">
        <ele>41.773</ele>
        <time>2019-06-16T18:29:25Z</time>
      </trkpt>
      <trkpt lat="43.385425" lon="-4.289635">
        <ele>41.443</ele>
        <time>2019-06-16T18:29:26Z</time>
      </trkpt>
      <trkpt lat="43.385377" lon="-4.289731">
        <ele>40.379</ele>
        <time>2019-06-16T18:29:28Z</time>
      </trkpt>
      <trkpt lat="43.385337" lon="-4.289804">
        <ele>39.148</ele>
        <time>2019-06-16T18:29:30Z</time>
      </trkpt>
      <trkpt lat="43.385313" lon="-4.289874">
        <ele>38.286</ele>
        <time>2019-06-16T18:29:32Z</time>
      </trkpt>
      <trkpt lat="43.385268" lon="-4.289906">
        <ele>37.560</ele>
        <time>2019-06-16T18:29:34Z</time>
      </trkpt>
      <trkpt lat="43.385202" lon="-4.289885">
        <ele>36.426</ele>
        <time>2019-06-16T18:29:36Z</time>
      </trkpt>
      <trkpt lat="43.385153" lon="-4.289874">
        <ele>35.508</ele>
        <time>2019-06-16T18:29:39Z</time>
      </trkpt>
      <trkpt lat="43.385096" lon="-4.289839">
        <ele>34.521</ele>
        <time>2019-06-16T18:29:42Z</time>
      </trkpt>
      <trkpt lat="43.385053" lon="-4.289760">
        <ele>34.035</ele>
        <time>2019-06-16T18:29:44Z</time>
      </trkpt>
      <trkpt lat="43.385019" lon="-4.289649">
        <ele>33.755</ele>
        <time>2019-06-16T18:29:46Z</time>
      </trkpt>
      <trkpt lat="43.384977" lon="-4.289553">
        <ele>33.459</ele>
        <time>2019-06-16T18:29:48Z</time>
      </trkpt>
      <trkpt lat="43.384896" lon="-4.289506">
        <ele>33.058</ele>
        <time>2019-06-16T18:29:50Z</time>
      </trkpt>
      <trkpt lat="43.384830" lon="-4.289531">
        <ele>32.568</ele>
        <time>2019-06-16T18:29:52Z</time>
      </trkpt>
      <trkpt lat="43.384790" lon="-4.289628">
        <ele>31.814</ele>
        <time>2019-06-16T18:29:54Z</time>
      </trkpt>
      <trkpt lat="43.384762" lon="-4.289745">
        <ele>31.173</ele>
        <time>2019-06-16T18:29:56Z</time>
      </trkpt>
      <trkpt lat="43.384738" lon="-4.289866">
        <ele>30.119</ele>
        <time>2019-06-16T18:29:57Z</time>
      </trkpt>
      <trkpt lat="43.384718" lon="-4.289931">
        <ele>29.509</ele>
        <time>2019-06-16T18:29:58Z</time>
      </trkpt>
      <trkpt lat="43.384712" lon="-4.289995">
        <ele>29.119</ele>
        <time>2019-06-16T18:29:59Z</time>
      </trkpt>
      <trkpt lat="43.384698" lon="-4.290056">
        <ele>28.908</ele>
        <time>2019-06-16T18:30:00Z</time>
      </trkpt>
      <trkpt lat="43.384668" lon="-4.290183">
        <ele>28.764</ele>
        <time>2019-06-16T18:30:02Z</time>
      </trkpt>
      <trkpt lat="43.384657" lon="-4.290247">
        <ele>28.628</ele>
        <time>2019-06-16T18:30:03Z</time>
      </trkpt>
      <trkpt lat="43.384629" lon="-4.290356">
        <ele>28.468</ele>
        <time>2019-06-16T18:30:05Z</time>
      </trkpt>
      <trkpt lat="43.384615" lon="-4.290462">
        <ele>27.692</ele>
        <time>2019-06-16T18:30:07Z</time>
      </trkpt>
      <trkpt lat="43.384585" lon="-4.290567">
        <ele>26.971</ele>
        <time>2019-06-16T18:30:09Z</time>
      </trkpt>
      <trkpt lat="43.384584" lon="-4.290636">
        <ele>26.141</ele>
        <time>2019-06-16T18:30:11Z</time>
      </trkpt>
      <trkpt lat="43.384630" lon="-4.290690">
        <ele>25.467</ele>
        <time>2019-06-16T18:30:13Z</time>
      </trkpt>
      <trkpt lat="43.384692" lon="-4.290738">
        <ele>24.886</ele>
        <time>2019-06-16T18:30:15Z</time>
      </trkpt>
      <trkpt lat="43.384722" lon="-4.290812">
        <ele>24.256</ele>
        <time>2019-06-16T18:30:17Z</time>
      </trkpt>
      <trkpt lat="43.384686" lon="-4.290949">
        <ele>22.859</ele>
        <time>2019-06-16T18:30:19Z</time>
      </trkpt>
      <trkpt lat="43.384683" lon="-4.291011">
        <ele>22.114</ele>
        <time>2019-06-16T18:30:20Z</time>
      </trkpt>
      <trkpt lat="43.384683" lon="-4.291085">
        <ele>21.308</ele>
        <time>2019-06-16T18:30:21Z</time>
      </trkpt>
      <trkpt lat="43.384686" lon="-4.291211">
        <ele>20.348</ele>
        <time>2019-06-16T18:30:23Z</time>
      </trkpt>
      <trkpt lat="43.384688" lon="-4.291275">
        <ele>19.822</ele>
        <time>2019-06-16T18:30:24Z</time>
      </trkpt>
      <trkpt lat="43.384694" lon="-4.291388">
        <ele>19.072</ele>
        <time>2019-06-16T18:30:26Z</time>
      </trkpt>
      <trkpt lat="43.384730" lon="-4.291461">
        <ele>19.086</ele>
        <time>2019-06-16T18:30:33Z</time>
      </trkpt>
      <trkpt lat="43.384817" lon="-4.291555">
        <ele>19.145</ele>
        <time>2019-06-16T18:30:35Z</time>
      </trkpt>
      <trkpt lat="43.384864" lon="-4.291589">
        <ele>19.135</ele>
        <time>2019-06-16T18:30:36Z</time>
      </trkpt>
      <trkpt lat="43.384925" lon="-4.291625">
        <ele>19.131</ele>
        <time>2019-06-16T18:30:37Z</time>
      </trkpt>
      <trkpt lat="43.384989" lon="-4.291657">
        <ele>19.090</ele>
        <time>2019-06-16T18:30:38Z</time>
      </trkpt>
      <trkpt lat="43.385040" lon="-4.291688">
        <ele>18.912</ele>
        <time>2019-06-16T18:30:39Z</time>
      </trkpt>
      <trkpt lat="43.385086" lon="-4.291715">
        <ele>18.932</ele>
        <time>2019-06-16T18:30:40Z</time>
      </trkpt>
      <trkpt lat="43.385129" lon="-4.291741">
        <ele>18.905</ele>
        <time>2019-06-16T18:30:41Z</time>
      </trkpt>
      <trkpt lat="43.385191" lon="-4.291778">
        <ele>18.908</ele>
        <time>2019-06-16T18:30:43Z</time>
      </trkpt>
      <trkpt lat="43.385236" lon="-4.291796">
        <ele>18.954</ele>
        <time>2019-06-16T18:30:45Z</time>
      </trkpt>
      <trkpt lat="43.385234" lon="-4.291861">
        <ele>18.918</ele>
        <time>2019-06-16T18:31:14Z</time>
      </trkpt>
      <trkpt lat="43.385280" lon="-4.291879">
        <ele>19.078</ele>
        <time>2019-06-16T18:31:33Z</time>
      </trkpt>
      <trkpt lat="43.385331" lon="-4.291853">
        <ele>18.982</ele>
        <time>2019-06-16T18:31:53Z</time>
      </trkpt>
      <trkpt lat="43.385367" lon="-4.291907">
        <ele>18.731</ele>
        <time>2019-06-16T18:32:01Z</time>
      </trkpt>
      <trkpt lat="43.385424" lon="-4.291932">
        <ele>18.591</ele>
        <time>2019-06-16T18:32:03Z</time>
      </trkpt>
      <trkpt lat="43.385473" lon="-4.291961">
        <ele>18.317</ele>
        <time>2019-06-16T18:32:05Z</time>
      </trkpt>
      <trkpt lat="43.385519" lon="-4.291998">
        <ele>18.126</ele>
        <time>2019-06-16T18:32:08Z</time>
      </trkpt>
      <trkpt lat="43.385572" lon="-4.291977">
        <ele>18.125</ele>
        <time>2019-06-16T18:32:11Z</time>
      </trkpt>
      <trkpt lat="43.385596" lon="-4.291910">
        <ele>18.426</ele>
        <time>2019-06-16T18:32:13Z</time>
      </trkpt>
      <trkpt lat="43.385606" lon="-4.291829">
        <ele>18.708</ele>
        <time>2019-06-16T18:32:15Z</time>
      </trkpt>
      <trkpt lat="43.385607" lon="-4.291765">
        <ele>18.908</ele>
        <time>2019-06-16T18:32:17Z</time>
      </trkpt>
      <trkpt lat="43.385594" lon="-4.291703">
        <ele>19.065</ele>
        <time>2019-06-16T18:32:19Z</time>
      </trkpt>
      <trkpt lat="43.385558" lon="-4.291662">
        <ele>19.039</ele>
        <time>2019-06-16T18:32:21Z</time>
      </trkpt>
      <trkpt lat="43.385509" lon="-4.291616">
        <ele>19.389</ele>
        <time>2019-06-16T18:32:23Z</time>
      </trkpt>
      <trkpt lat="43.385463" lon="-4.291572">
        <ele>19.643</ele>
        <time>2019-06-16T18:32:26Z</time>
      </trkpt>
      <trkpt lat="43.385400" lon="-4.291544">
        <ele>19.612</ele>
        <time>2019-06-16T18:32:29Z</time>
      </trkpt>
      <trkpt lat="43.385349" lon="-4.291507">
        <ele>19.732</ele>
        <time>2019-06-16T18:32:35Z</time>
      </trkpt>
      <trkpt lat="43.385382" lon="-4.291454">
        <ele>20.128</ele>
        <time>2019-06-16T18:32:41Z</time>
      </trkpt>
      <trkpt lat="43.385402" lon="-4.291394">
        <ele>20.477</ele>
        <time>2019-06-16T18:32:54Z</time>
      </trkpt>
      <trkpt lat="43.385364" lon="-4.291429">
        <ele>20.168</ele>
        <time>2019-06-16T18:35:08Z</time>
      </trkpt>
      <trkpt lat="43.385317" lon="-4.291444">
        <ele>19.942</ele>
        <time>2019-06-16T18:37:44Z</time>
      </trkpt>
      <trkpt lat="43.385374" lon="-4.291395">
        <ele>20.326</ele>
        <time>2019-06-16T19:17:58Z</time>
      </trkpt>
      <trkpt lat="43.385372" lon="-4.291484">
        <ele>19.908</ele>
        <time>2019-06-16T19:25:28Z</time>
      </trkpt>
      <trkpt lat="43.385342" lon="-4.291566">
        <ele>19.439</ele>
        <time>2019-06-16T19:25:30Z</time>
      </trkpt>
      <trkpt lat="43.385313" lon="-4.291650">
        <ele>19.153</ele>
        <time>2019-06-16T19:25:32Z</time>
      </trkpt>
      <trkpt lat="43.385285" lon="-4.291739">
        <ele>19.093</ele>
        <time>2019-06-16T19:25:34Z</time>
      </trkpt>
      <trkpt lat="43.385268" lon="-4.291797">
        <ele>19.017</ele>
        <time>2019-06-16T19:25:36Z</time>
      </trkpt>
      <trkpt lat="43.385296" lon="-4.291873">
        <ele>19.086</ele>
        <time>2019-06-16T19:25:39Z</time>
      </trkpt>
      <trkpt lat="43.385344" lon="-4.291905">
        <ele>18.876</ele>
        <time>2019-06-16T19:25:41Z</time>
      </trkpt>
      <trkpt lat="43.385395" lon="-4.291937">
        <ele>18.632</ele>
        <time>2019-06-16T19:25:43Z</time>
      </trkpt>
      <trkpt lat="43.385442" lon="-4.291971">
        <ele>18.411</ele>
        <time>2019-06-16T19:25:45Z</time>
      </trkpt>
      <trkpt lat="43.385493" lon="-4.292013">
        <ele>18.261</ele>
        <time>2019-06-16T19:25:47Z</time>
      </trkpt>
      <trkpt lat="43.385551" lon="-4.292058">
        <ele>18.021</ele>
        <time>2019-06-16T19:25:49Z</time>
      </trkpt>
      <trkpt lat="43.385636" lon="-4.292104">
        <ele>18.413</ele>
        <time>2019-06-16T19:25:51Z</time>
      </trkpt>
      <trkpt lat="43.385677" lon="-4.292146">
        <ele>18.608</ele>
        <time>2019-06-16T19:25:52Z</time>
      </trkpt>
      <trkpt lat="43.385711" lon="-4.292199">
        <ele>18.629</ele>
        <time>2019-06-16T19:25:53Z</time>
      </trkpt>
      <trkpt lat="43.385756" lon="-4.292229">
        <ele>18.743</ele>
        <time>2019-06-16T19:25:54Z</time>
      </trkpt>
      <trkpt lat="43.385796" lon="-4.292263">
        <ele>18.843</ele>
        <time>2019-06-16T19:25:55Z</time>
      </trkpt>
      <trkpt lat="43.385848" lon="-4.292305">
        <ele>19.187</ele>
        <time>2019-06-16T19:25:56Z</time>
      </trkpt>
      <trkpt lat="43.385890" lon="-4.292347">
        <ele>19.536</ele>
        <time>2019-06-16T19:25:57Z</time>
      </trkpt>
      <trkpt lat="43.385934" lon="-4.292399">
        <ele>20.046</ele>
        <time>2019-06-16T19:25:58Z</time>
      </trkpt>
      <trkpt lat="43.385974" lon="-4.292446">
        <ele>20.482</ele>
        <time>2019-06-16T19:25:59Z</time>
      </trkpt>
      <trkpt lat="43.386008" lon="-4.292496">
        <ele>20.951</ele>
        <time>2019-06-16T19:26:00Z</time>
      </trkpt>
      <trkpt lat="43.386051" lon="-4.292535">
        <ele>20.964</ele>
        <time>2019-06-16T19:26:01Z</time>
      </trkpt>
      <trkpt lat="43.386102" lon="-4.292584">
        <ele>20.706</ele>
        <time>2019-06-16T19:26:02Z</time>
      </trkpt>
      <trkpt lat="43.386157" lon="-4.292635">
        <ele>20.516</ele>
        <time>2019-06-16T19:26:03Z</time>
      </trkpt>
      <trkpt lat="43.386210" lon="-4.292675">
        <ele>20.208</ele>
        <time>2019-06-16T19:26:04Z</time>
      </trkpt>
      <trkpt lat="43.386273" lon="-4.292722">
        <ele>19.799</ele>
        <time>2019-06-16T19:26:05Z</time>
      </trkpt>
      <trkpt lat="43.386342" lon="-4.292750">
        <ele>19.523</ele>
        <time>2019-06-16T19:26:06Z</time>
      </trkpt>
      <trkpt lat="43.386405" lon="-4.292770">
        <ele>19.173</ele>
        <time>2019-06-16T19:26:07Z</time>
      </trkpt>
      <trkpt lat="43.386468" lon="-4.292776">
        <ele>18.817</ele>
        <time>2019-06-16T19:26:08Z</time>
      </trkpt>
      <trkpt lat="43.386527" lon="-4.292789">
        <ele>18.456</ele>
        <time>2019-06-16T19:26:09Z</time>
      </trkpt>
      <trkpt lat="43.386581" lon="-4.292781">
        <ele>18.386</ele>
        <time>2019-06-16T19:26:10Z</time>
      </trkpt>
      <trkpt lat="43.386671" lon="-4.292789">
        <ele>18.042</ele>
        <time>2019-06-16T19:26:12Z</time>
      </trkpt>
      <trkpt lat="43.386722" lon="-4.292787">
        <ele>17.631</ele>
        <time>2019-06-16T19:26:13Z</time>
      </trkpt>
      <trkpt lat="43.386775" lon="-4.292775">
        <ele>17.348</ele>
        <time>2019-06-16T19:26:14Z</time>
      </trkpt>
      <trkpt lat="43.386832" lon="-4.292762">
        <ele>17.261</ele>
        <time>2019-06-16T19:26:15Z</time>
      </trkpt>
      <trkpt lat="43.386884" lon="-4.292753">
        <ele>16.917</ele>
        <time>2019-06-16T19:26:16Z</time>
      </trkpt>
      <trkpt lat="43.386938" lon="-4.292743">
        <ele>16.608</ele>
        <time>2019-06-16T19:26:17Z</time>
      </trkpt>
      <trkpt lat="43.386996" lon="-4.292734">
        <ele>16.547</ele>
        <time>2019-06-16T19:26:18Z</time>
      </trkpt>
      <trkpt lat="43.387050" lon="-4.292726">
        <ele>16.511</ele>
        <time>2019-06-16T19:26:19Z</time>
      </trkpt>
      <trkpt lat="43.387129" lon="-4.292701">
        <ele>16.431</ele>
        <time>2019-06-16T19:26:21Z</time>
      </trkpt>
      <trkpt lat="43.387186" lon="-4.292689">
        <ele>16.255</ele>
        <time>2019-06-16T19:26:28Z</time>
      </trkpt>
      <trkpt lat="43.387241" lon="-4.292676">
        <ele>16.034</ele>
        <time>2019-06-16T19:26:32Z</time>
      </trkpt>
      <trkpt lat="43.387286" lon="-4.292664">
        <ele>16.014</ele>
        <time>2019-06-16T19:27:06Z</time>
      </trkpt>
      <trkpt lat="43.387337" lon="-4.292662">
        <ele>15.960</ele>
        <time>2019-06-16T19:27:07Z</time>
      </trkpt>
      <trkpt lat="43.387396" lon="-4.292659">
        <ele>15.919</ele>
        <time>2019-06-16T19:27:08Z</time>
      </trkpt>
      <trkpt lat="43.387465" lon="-4.292653">
        <ele>15.931</ele>
        <time>2019-06-16T19:27:09Z</time>
      </trkpt>
      <trkpt lat="43.387546" lon="-4.292651">
        <ele>16.161</ele>
        <time>2019-06-16T19:27:10Z</time>
      </trkpt>
      <trkpt lat="43.387629" lon="-4.292655">
        <ele>16.207</ele>
        <time>2019-06-16T19:27:11Z</time>
      </trkpt>
      <trkpt lat="43.387709" lon="-4.292668">
        <ele>16.208</ele>
        <time>2019-06-16T19:27:12Z</time>
      </trkpt>
      <trkpt lat="43.387790" lon="-4.292704">
        <ele>15.686</ele>
        <time>2019-06-16T19:27:13Z</time>
      </trkpt>
      <trkpt lat="43.387886" lon="-4.292726">
        <ele>14.920</ele>
        <time>2019-06-16T19:27:14Z</time>
      </trkpt>
      <trkpt lat="43.387985" lon="-4.292742">
        <ele>14.570</ele>
        <time>2019-06-16T19:27:15Z</time>
      </trkpt>
      <trkpt lat="43.388071" lon="-4.292768">
        <ele>14.144</ele>
        <time>2019-06-16T19:27:16Z</time>
      </trkpt>
      <trkpt lat="43.388160" lon="-4.292795">
        <ele>13.763</ele>
        <time>2019-06-16T19:27:17Z</time>
      </trkpt>
      <trkpt lat="43.388242" lon="-4.292821">
        <ele>13.533</ele>
        <time>2019-06-16T19:27:18Z</time>
      </trkpt>
      <trkpt lat="43.388308" lon="-4.292839">
        <ele>13.389</ele>
        <time>2019-06-16T19:27:19Z</time>
      </trkpt>
      <trkpt lat="43.388377" lon="-4.292857">
        <ele>13.168</ele>
        <time>2019-06-16T19:27:20Z</time>
      </trkpt>
      <trkpt lat="43.388447" lon="-4.292868">
        <ele>12.947</ele>
        <time>2019-06-16T19:27:21Z</time>
      </trkpt>
      <trkpt lat="43.388524" lon="-4.292887">
        <ele>12.729</ele>
        <time>2019-06-16T19:27:22Z</time>
      </trkpt>
      <trkpt lat="43.388589" lon="-4.292907">
        <ele>12.521</ele>
        <time>2019-06-16T19:27:23Z</time>
      </trkpt>
      <trkpt lat="43.388659" lon="-4.292927">
        <ele>12.408</ele>
        <time>2019-06-16T19:27:24Z</time>
      </trkpt>
      <trkpt lat="43.388747" lon="-4.292954">
        <ele>12.357</ele>
        <time>2019-06-16T19:27:25Z</time>
      </trkpt>
      <trkpt lat="43.388825" lon="-4.292978">
        <ele>12.261</ele>
        <time>2019-06-16T19:27:26Z</time>
      </trkpt>
      <trkpt lat="43.388913" lon="-4.292991">
        <ele>12.071</ele>
        <time>2019-06-16T19:27:27Z</time>
      </trkpt>
      <trkpt lat="43.388988" lon="-4.293019">
        <ele>12.155</ele>
        <time>2019-06-16T19:27:28Z</time>
      </trkpt>
      <trkpt lat="43.389072" lon="-4.293030">
        <ele>12.174</ele>
        <time>2019-06-16T19:27:29Z</time>
      </trkpt>
      <trkpt lat="43.389143" lon="-4.293040">
        <ele>12.164</ele>
        <time>2019-06-16T19:27:30Z</time>
      </trkpt>
      <trkpt lat="43.389215" lon="-4.293042">
        <ele>12.130</ele>
        <time>2019-06-16T19:27:31Z</time>
      </trkpt>
      <trkpt lat="43.389291" lon="-4.293015">
        <ele>12.219</ele>
        <time>2019-06-16T19:27:32Z</time>
      </trkpt>
      <trkpt lat="43.389372" lon="-4.292986">
        <ele>12.317</ele>
        <time>2019-06-16T19:27:33Z</time>
      </trkpt>
      <trkpt lat="43.389455" lon="-4.292945">
        <ele>12.487</ele>
        <time>2019-06-16T19:27:34Z</time>
      </trkpt>
      <trkpt lat="43.389541" lon="-4.292894">
        <ele>12.215</ele>
        <time>2019-06-16T19:27:35Z</time>
      </trkpt>
      <trkpt lat="43.389631" lon="-4.292844">
        <ele>11.708</ele>
        <time>2019-06-16T19:27:36Z</time>
      </trkpt>
      <trkpt lat="43.389715" lon="-4.292791">
        <ele>11.154</ele>
        <time>2019-06-16T19:27:37Z</time>
      </trkpt>
      <trkpt lat="43.389799" lon="-4.292734">
        <ele>11.188</ele>
        <time>2019-06-16T19:27:38Z</time>
      </trkpt>
      <trkpt lat="43.389879" lon="-4.292684">
        <ele>11.168</ele>
        <time>2019-06-16T19:27:39Z</time>
      </trkpt>
      <trkpt lat="43.389952" lon="-4.292635">
        <ele>11.112</ele>
        <time>2019-06-16T19:27:40Z</time>
      </trkpt>
      <trkpt lat="43.390032" lon="-4.292582">
        <ele>11.141</ele>
        <time>2019-06-16T19:27:41Z</time>
      </trkpt>
      <trkpt lat="43.390104" lon="-4.292539">
        <ele>11.261</ele>
        <time>2019-06-16T19:27:42Z</time>
      </trkpt>
      <trkpt lat="43.390176" lon="-4.292492">
        <ele>11.167</ele>
        <time>2019-06-16T19:27:43Z</time>
      </trkpt>
      <trkpt lat="43.390242" lon="-4.292447">
        <ele>11.446</ele>
        <time>2019-06-16T19:27:44Z</time>
      </trkpt>
      <trkpt lat="43.390321" lon="-4.292387">
        <ele>12.087</ele>
        <time>2019-06-16T19:27:45Z</time>
      </trkpt>
      <trkpt lat="43.390394" lon="-4.292322">
        <ele>13.042</ele>
        <time>2019-06-16T19:27:46Z</time>
      </trkpt>
      <trkpt lat="43.390470" lon="-4.292261">
        <ele>14.026</ele>
        <time>2019-06-16T19:27:47Z</time>
      </trkpt>
      <trkpt lat="43.390542" lon="-4.292204">
        <ele>14.808</ele>
        <time>2019-06-16T19:27:48Z</time>
      </trkpt>
      <trkpt lat="43.390610" lon="-4.292135">
        <ele>15.471</ele>
        <time>2019-06-16T19:27:49Z</time>
      </trkpt>
      <trkpt lat="43.390676" lon="-4.292071">
        <ele>16.045</ele>
        <time>2019-06-16T19:27:50Z</time>
      </trkpt>
      <trkpt lat="43.390665" lon="-4.291938">
        <ele>15.125</ele>
        <time>2019-06-16T19:27:51Z</time>
      </trkpt>
      <trkpt lat="43.390660" lon="-4.291825">
        <ele>13.569</ele>
        <time>2019-06-16T19:27:52Z</time>
      </trkpt>
      <trkpt lat="43.390662" lon="-4.291704">
        <ele>11.868</ele>
        <time>2019-06-16T19:27:53Z</time>
      </trkpt>
      <trkpt lat="43.390635" lon="-4.291578">
        <ele>10.188</ele>
        <time>2019-06-16T19:27:54Z</time>
      </trkpt>
      <trkpt lat="43.390621" lon="-4.291453">
        <ele>8.934</ele>
        <time>2019-06-16T19:27:55Z</time>
      </trkpt>
      <trkpt lat="43.390614" lon="-4.291341">
        <ele>8.343</ele>
        <time>2019-06-16T19:27:56Z</time>
      </trkpt>
      <trkpt lat="43.390598" lon="-4.291222">
        <ele>8.077</ele>
        <time>2019-06-16T19:27:57Z</time>
      </trkpt>
      <trkpt lat="43.390583" lon="-4.291123">
        <ele>7.761</ele>
        <time>2019-06-16T19:27:58Z</time>
      </trkpt>
      <trkpt lat="43.390575" lon="-4.291036">
        <ele>7.527</ele>
        <time>2019-06-16T19:27:59Z</time>
      </trkpt>
      <trkpt lat="43.390577" lon="-4.290947">
        <ele>7.508</ele>
        <time>2019-06-16T19:28:00Z</time>
      </trkpt>
      <trkpt lat="43.390592" lon="-4.290862">
        <ele>7.830</ele>
        <time>2019-06-16T19:28:01Z</time>
      </trkpt>
      <trkpt lat="43.390623" lon="-4.290773">
        <ele>8.134</ele>
        <time>2019-06-16T19:28:02Z</time>
      </trkpt>
      <trkpt lat="43.390660" lon="-4.290680">
        <ele>8.354</ele>
        <time>2019-06-16T19:28:03Z</time>
      </trkpt>
      <trkpt lat="43.390704" lon="-4.290576">
        <ele>8.318</ele>
        <time>2019-06-16T19:28:04Z</time>
      </trkpt>
      <trkpt lat="43.390760" lon="-4.290466">
        <ele>8.667</ele>
        <time>2019-06-16T19:28:05Z</time>
      </trkpt>
      <trkpt lat="43.390804" lon="-4.290368">
        <ele>8.917</ele>
        <time>2019-06-16T19:28:06Z</time>
      </trkpt>
      <trkpt lat="43.390851" lon="-4.290285">
        <ele>9.263</ele>
        <time>2019-06-16T19:28:07Z</time>
      </trkpt>
      <trkpt lat="43.390904" lon="-4.290222">
        <ele>9.032</ele>
        <time>2019-06-16T19:28:08Z</time>
      </trkpt>
      <trkpt lat="43.390962" lon="-4.290170">
        <ele>9.144</ele>
        <time>2019-06-16T19:28:09Z</time>
      </trkpt>
      <trkpt lat="43.391008" lon="-4.290116">
        <ele>9.205</ele>
        <time>2019-06-16T19:28:10Z</time>
      </trkpt>
      <trkpt lat="43.391090" lon="-4.290084">
        <ele>10.015</ele>
        <time>2019-06-16T19:28:12Z</time>
      </trkpt>
      <trkpt lat="43.391136" lon="-4.290096">
        <ele>10.408</ele>
        <time>2019-06-16T19:28:14Z</time>
      </trkpt>
      <trkpt lat="43.391193" lon="-4.290148">
        <ele>10.997</ele>
        <time>2019-06-16T19:28:16Z</time>
      </trkpt>
      <trkpt lat="43.391239" lon="-4.290173">
        <ele>11.361</ele>
        <time>2019-06-16T19:28:18Z</time>
      </trkpt>
      <trkpt lat="43.391293" lon="-4.290171">
        <ele>11.681</ele>
        <time>2019-06-16T19:28:23Z</time>
      </trkpt>
      <trkpt lat="43.391348" lon="-4.290145">
        <ele>11.455</ele>
        <time>2019-06-16T19:28:26Z</time>
      </trkpt>
      <trkpt lat="43.391402" lon="-4.290141">
        <ele>11.494</ele>
        <time>2019-06-16T19:28:28Z</time>
      </trkpt>
      <trkpt lat="43.391457" lon="-4.290117">
        <ele>10.384</ele>
        <time>2019-06-16T19:28:31Z</time>
      </trkpt>
      <trkpt lat="43.391421" lon="-4.290186">
        <ele>12.050</ele>
        <time>2019-06-16T19:28:35Z</time>
      </trkpt>
      <trkpt lat="43.391376" lon="-4.290192">
        <ele>12.479</ele>
        <time>2019-06-16T19:28:36Z</time>
      </trkpt>
      <trkpt lat="43.391278" lon="-4.290232">
        <ele>12.212</ele>
        <time>2019-06-16T19:28:38Z</time>
      </trkpt>
      <trkpt lat="43.391234" lon="-4.290282">
        <ele>12.432</ele>
        <time>2019-06-16T19:28:39Z</time>
      </trkpt>
      <trkpt lat="43.391184" lon="-4.290341">
        <ele>12.605</ele>
        <time>2019-06-16T19:28:40Z</time>
      </trkpt>
      <trkpt lat="43.391142" lon="-4.290421">
        <ele>13.308</ele>
        <time>2019-06-16T19:28:41Z</time>
      </trkpt>
      <trkpt lat="43.391110" lon="-4.290520">
        <ele>14.574</ele>
        <time>2019-06-16T19:28:42Z</time>
      </trkpt>
      <trkpt lat="43.391089" lon="-4.290634">
        <ele>14.978</ele>
        <time>2019-06-16T19:28:43Z</time>
      </trkpt>
      <trkpt lat="43.391082" lon="-4.290757">
        <ele>15.428</ele>
        <time>2019-06-16T19:28:44Z</time>
      </trkpt>
      <trkpt lat="43.391074" lon="-4.290880">
        <ele>15.912</ele>
        <time>2019-06-16T19:28:45Z</time>
      </trkpt>
      <trkpt lat="43.391058" lon="-4.291006">
        <ele>16.671</ele>
        <time>2019-06-16T19:28:46Z</time>
      </trkpt>
      <trkpt lat="43.391049" lon="-4.291128">
        <ele>17.181</ele>
        <time>2019-06-16T19:28:47Z</time>
      </trkpt>
      <trkpt lat="43.391040" lon="-4.291246">
        <ele>17.257</ele>
        <time>2019-06-16T19:28:48Z</time>
      </trkpt>
      <trkpt lat="43.391038" lon="-4.291347">
        <ele>17.366</ele>
        <time>2019-06-16T19:28:49Z</time>
      </trkpt>
      <trkpt lat="43.391028" lon="-4.291452">
        <ele>17.588</ele>
        <time>2019-06-16T19:28:50Z</time>
      </trkpt>
      <trkpt lat="43.391019" lon="-4.291548">
        <ele>17.824</ele>
        <time>2019-06-16T19:28:51Z</time>
      </trkpt>
      <trkpt lat="43.391010" lon="-4.291645">
        <ele>18.126</ele>
        <time>2019-06-16T19:28:52Z</time>
      </trkpt>
      <trkpt lat="43.391005" lon="-4.291733">
        <ele>18.308</ele>
        <time>2019-06-16T19:28:53Z</time>
      </trkpt>
      <trkpt lat="43.390992" lon="-4.291826">
        <ele>18.331</ele>
        <time>2019-06-16T19:28:54Z</time>
      </trkpt>
      <trkpt lat="43.390981" lon="-4.291929">
        <ele>18.515</ele>
        <time>2019-06-16T19:28:55Z</time>
      </trkpt>
      <trkpt lat="43.390994" lon="-4.292021">
        <ele>19.145</ele>
        <time>2019-06-16T19:28:56Z</time>
      </trkpt>
      <trkpt lat="43.391020" lon="-4.292109">
        <ele>19.899</ele>
        <time>2019-06-16T19:28:57Z</time>
      </trkpt>
      <trkpt lat="43.391054" lon="-4.292193">
        <ele>20.578</ele>
        <time>2019-06-16T19:28:58Z</time>
      </trkpt>
      <trkpt lat="43.391100" lon="-4.292270">
        <ele>20.888</ele>
        <time>2019-06-16T19:28:59Z</time>
      </trkpt>
      <trkpt lat="43.391144" lon="-4.292340">
        <ele>21.064</ele>
        <time>2019-06-16T19:29:00Z</time>
      </trkpt>
      <trkpt lat="43.391180" lon="-4.292416">
        <ele>21.213</ele>
        <time>2019-06-16T19:29:01Z</time>
      </trkpt>
      <trkpt lat="43.391204" lon="-4.292500">
        <ele>21.358</ele>
        <time>2019-06-16T19:29:02Z</time>
      </trkpt>
      <trkpt lat="43.391210" lon="-4.292590">
        <ele>21.752</ele>
        <time>2019-06-16T19:29:03Z</time>
      </trkpt>
      <trkpt lat="43.391197" lon="-4.292670">
        <ele>21.817</ele>
        <time>2019-06-16T19:29:04Z</time>
      </trkpt>
      <trkpt lat="43.391165" lon="-4.292742">
        <ele>21.608</ele>
        <time>2019-06-16T19:29:05Z</time>
      </trkpt>
      <trkpt lat="43.391119" lon="-4.292801">
        <ele>21.348</ele>
        <time>2019-06-16T19:29:06Z</time>
      </trkpt>
      <trkpt lat="43.391073" lon="-4.292868">
        <ele>21.672</ele>
        <time>2019-06-16T19:29:07Z</time>
      </trkpt>
      <trkpt lat="43.391037" lon="-4.292943">
        <ele>22.042</ele>
        <time>2019-06-16T19:29:08Z</time>
      </trkpt>
      <trkpt lat="43.391016" lon="-4.293017">
        <ele>22.466</ele>
        <time>2019-06-16T19:29:09Z</time>
      </trkpt>
      <trkpt lat="43.391011" lon="-4.293087">
        <ele>22.735</ele>
        <time>2019-06-16T19:29:10Z</time>
      </trkpt>
      <trkpt lat="43.390993" lon="-4.293190">
        <ele>22.875</ele>
        <time>2019-06-16T19:29:12Z</time>
      </trkpt>
      <trkpt lat="43.390975" lon="-4.293247">
        <ele>22.881</ele>
        <time>2019-06-16T19:29:19Z</time>
      </trkpt>
      <trkpt lat="43.391011" lon="-4.293286">
        <ele>22.960</ele>
        <time>2019-06-16T19:29:49Z</time>
      </trkpt>
      <trkpt lat="43.390954" lon="-4.293325">
        <ele>23.043</ele>
        <time>2019-06-16T19:30:59Z</time>
      </trkpt>
      <trkpt lat="43.390902" lon="-4.293377">
        <ele>22.964</ele>
        <time>2019-06-16T19:31:00Z</time>
      </trkpt>
      <trkpt lat="43.390862" lon="-4.293432">
        <ele>23.110</ele>
        <time>2019-06-16T19:31:01Z</time>
      </trkpt>
      <trkpt lat="43.390822" lon="-4.293485">
        <ele>23.508</ele>
        <time>2019-06-16T19:31:02Z</time>
      </trkpt>
      <trkpt lat="43.390788" lon="-4.293543">
        <ele>23.767</ele>
        <time>2019-06-16T19:31:03Z</time>
      </trkpt>
      <trkpt lat="43.390749" lon="-4.293616">
        <ele>24.021</ele>
        <time>2019-06-16T19:31:04Z</time>
      </trkpt>
      <trkpt lat="43.390716" lon="-4.293679">
        <ele>24.221</ele>
        <time>2019-06-16T19:31:05Z</time>
      </trkpt>
      <trkpt lat="43.390680" lon="-4.293766">
        <ele>24.675</ele>
        <time>2019-06-16T19:31:06Z</time>
      </trkpt>
      <trkpt lat="43.390641" lon="-4.293850">
        <ele>25.234</ele>
        <time>2019-06-16T19:31:07Z</time>
      </trkpt>
      <trkpt lat="43.390588" lon="-4.293947">
        <ele>25.454</ele>
        <time>2019-06-16T19:31:08Z</time>
      </trkpt>
      <trkpt lat="43.390535" lon="-4.294041">
        <ele>25.760</ele>
        <time>2019-06-16T19:31:09Z</time>
      </trkpt>
      <trkpt lat="43.390483" lon="-4.294135">
        <ele>26.199</ele>
        <time>2019-06-16T19:31:10Z</time>
      </trkpt>
      <trkpt lat="43.390419" lon="-4.294211">
        <ele>25.779</ele>
        <time>2019-06-16T19:31:11Z</time>
      </trkpt>
      <trkpt lat="43.390347" lon="-4.294297">
        <ele>25.905</ele>
        <time>2019-06-16T19:31:12Z</time>
      </trkpt>
      <trkpt lat="43.390274" lon="-4.294361">
        <ele>28.325</ele>
        <time>2019-06-16T19:31:13Z</time>
      </trkpt>
      <trkpt lat="43.390205" lon="-4.294430">
        <ele>28.608</ele>
        <time>2019-06-16T19:31:14Z</time>
      </trkpt>
      <trkpt lat="43.390132" lon="-4.294481">
        <ele>28.980</ele>
        <time>2019-06-16T19:31:15Z</time>
      </trkpt>
      <trkpt lat="43.390059" lon="-4.294532">
        <ele>29.684</ele>
        <time>2019-06-16T19:31:16Z</time>
      </trkpt>
      <trkpt lat="43.389982" lon="-4.294573">
        <ele>30.514</ele>
        <time>2019-06-16T19:31:17Z</time>
      </trkpt>
      <trkpt lat="43.389896" lon="-4.294607">
        <ele>30.958</ele>
        <time>2019-06-16T19:31:18Z</time>
      </trkpt>
      <trkpt lat="43.389816" lon="-4.294610">
        <ele>31.157</ele>
        <time>2019-06-16T19:31:19Z</time>
      </trkpt>
      <trkpt lat="43.389724" lon="-4.294622">
        <ele>31.497</ele>
        <time>2019-06-16T19:31:20Z</time>
      </trkpt>
      <trkpt lat="43.389644" lon="-4.294619">
        <ele>31.193</ele>
        <time>2019-06-16T19:31:21Z</time>
      </trkpt>
      <trkpt lat="43.389546" lon="-4.294619">
        <ele>30.772</ele>
        <time>2019-06-16T19:31:22Z</time>
      </trkpt>
      <trkpt lat="43.389458" lon="-4.294607">
        <ele>30.544</ele>
        <time>2019-06-16T19:31:23Z</time>
      </trkpt>
      <trkpt lat="43.389379" lon="-4.294587">
        <ele>30.505</ele>
        <time>2019-06-16T19:31:24Z</time>
      </trkpt>
      <trkpt lat="43.389311" lon="-4.294560">
        <ele>30.515</ele>
        <time>2019-06-16T19:31:25Z</time>
      </trkpt>
      <trkpt lat="43.389266" lon="-4.294531">
        <ele>30.408</ele>
        <time>2019-06-16T19:31:26Z</time>
      </trkpt>
      <trkpt lat="43.389212" lon="-4.294512">
        <ele>30.337</ele>
        <time>2019-06-16T19:31:27Z</time>
      </trkpt>
      <trkpt lat="43.389147" lon="-4.294456">
        <ele>30.181</ele>
        <time>2019-06-16T19:31:29Z</time>
      </trkpt>
      <trkpt lat="43.389101" lon="-4.294417">
        <ele>29.861</ele>
        <time>2019-06-16T19:31:32Z</time>
      </trkpt>
      <trkpt lat="43.389050" lon="-4.294397">
        <ele>29.745</ele>
        <time>2019-06-16T19:31:34Z</time>
      </trkpt>
      <trkpt lat="43.388988" lon="-4.294359">
        <ele>29.464</ele>
        <time>2019-06-16T19:31:36Z</time>
      </trkpt>
      <trkpt lat="43.388944" lon="-4.294342">
        <ele>29.394</ele>
        <time>2019-06-16T19:32:34Z</time>
      </trkpt>
      <trkpt lat="43.388892" lon="-4.294345">
        <ele>29.660</ele>
        <time>2019-06-16T19:32:35Z</time>
      </trkpt>
      <trkpt lat="43.388830" lon="-4.294335">
        <ele>29.899</ele>
        <time>2019-06-16T19:32:36Z</time>
      </trkpt>
      <trkpt lat="43.388762" lon="-4.294321">
        <ele>30.111</ele>
        <time>2019-06-16T19:32:37Z</time>
      </trkpt>
      <trkpt lat="43.388692" lon="-4.294303">
        <ele>30.421</ele>
        <time>2019-06-16T19:32:38Z</time>
      </trkpt>
      <trkpt lat="43.388617" lon="-4.294267">
        <ele>30.703</ele>
        <time>2019-06-16T19:32:39Z</time>
      </trkpt>
      <trkpt lat="43.388549" lon="-4.294243">
        <ele>31.108</ele>
        <time>2019-06-16T19:32:40Z</time>
      </trkpt>
      <trkpt lat="43.388488" lon="-4.294215">
        <ele>31.324</ele>
        <time>2019-06-16T19:32:41Z</time>
      </trkpt>
      <trkpt lat="43.388423" lon="-4.294164">
        <ele>31.358</ele>
        <time>2019-06-16T19:32:42Z</time>
      </trkpt>
      <trkpt lat="43.388360" lon="-4.294146">
        <ele>31.838</ele>
        <time>2019-06-16T19:32:43Z</time>
      </trkpt>
      <trkpt lat="43.388296" lon="-4.294118">
        <ele>32.372</ele>
        <time>2019-06-16T19:32:44Z</time>
      </trkpt>
      <trkpt lat="43.388233" lon="-4.294091">
        <ele>32.791</ele>
        <time>2019-06-16T19:32:45Z</time>
      </trkpt>
      <trkpt lat="43.388165" lon="-4.294071">
        <ele>33.051</ele>
        <time>2019-06-16T19:32:46Z</time>
      </trkpt>
      <trkpt lat="43.388103" lon="-4.294054">
        <ele>33.127</ele>
        <time>2019-06-16T19:32:47Z</time>
      </trkpt>
      <trkpt lat="43.388039" lon="-4.294046">
        <ele>33.216</ele>
        <time>2019-06-16T19:32:48Z</time>
      </trkpt>
      <trkpt lat="43.387971" lon="-4.294036">
        <ele>33.038</ele>
        <time>2019-06-16T19:32:49Z</time>
      </trkpt>
      <trkpt lat="43.387908" lon="-4.294044">
        <ele>33.070</ele>
        <time>2019-06-16T19:32:50Z</time>
      </trkpt>
      <trkpt lat="43.387829" lon="-4.294049">
        <ele>33.017</ele>
        <time>2019-06-16T19:32:51Z</time>
      </trkpt>
      <trkpt lat="43.387745" lon="-4.294057">
        <ele>32.908</ele>
        <time>2019-06-16T19:32:52Z</time>
      </trkpt>
      <trkpt lat="43.387657" lon="-4.294080">
        <ele>32.896</ele>
        <time>2019-06-16T19:32:53Z</time>
      </trkpt>
      <trkpt lat="43.387553" lon="-4.294119">
        <ele>32.860</ele>
        <time>2019-06-16T19:32:54Z</time>
      </trkpt>
      <trkpt lat="43.387455" lon="-4.294174">
        <ele>33.210</ele>
        <time>2019-06-16T19:32:55Z</time>
      </trkpt>
      <trkpt lat="43.387349" lon="-4.294238">
        <ele>34.124</ele>
        <time>2019-06-16T19:32:56Z</time>
      </trkpt>
      <trkpt lat="43.387244" lon="-4.294308">
        <ele>34.223</ele>
        <time>2019-06-16T19:32:57Z</time>
      </trkpt>
      <trkpt lat="43.387143" lon="-4.294381">
        <ele>33.383</ele>
        <time>2019-06-16T19:32:58Z</time>
      </trkpt>
      <trkpt lat="43.387047" lon="-4.294450">
        <ele>32.699</ele>
        <time>2019-06-16T19:32:59Z</time>
      </trkpt>
      <trkpt lat="43.386948" lon="-4.294524">
        <ele>32.288</ele>
        <time>2019-06-16T19:33:00Z</time>
      </trkpt>
      <trkpt lat="43.386851" lon="-4.294599">
        <ele>31.997</ele>
        <time>2019-06-16T19:33:01Z</time>
      </trkpt>
      <trkpt lat="43.386748" lon="-4.294676">
        <ele>32.023</ele>
        <time>2019-06-16T19:33:02Z</time>
      </trkpt>
      <trkpt lat="43.386645" lon="-4.294745">
        <ele>32.125</ele>
        <time>2019-06-16T19:33:03Z</time>
      </trkpt>
      <trkpt lat="43.386554" lon="-4.294814">
        <ele>32.008</ele>
        <time>2019-06-16T19:33:04Z</time>
      </trkpt>
      <trkpt lat="43.386479" lon="-4.294916">
        <ele>32.392</ele>
        <time>2019-06-16T19:33:05Z</time>
      </trkpt>
      <trkpt lat="43.386397" lon="-4.295002">
        <ele>32.196</ele>
        <time>2019-06-16T19:33:06Z</time>
      </trkpt>
      <trkpt lat="43.386319" lon="-4.295097">
        <ele>32.576</ele>
        <time>2019-06-16T19:33:07Z</time>
      </trkpt>
      <trkpt lat="43.386244" lon="-4.295194">
        <ele>32.770</ele>
        <time>2019-06-16T19:33:08Z</time>
      </trkpt>
      <trkpt lat="43.386163" lon="-4.295294">
        <ele>32.719</ele>
        <time>2019-06-16T19:33:09Z</time>
      </trkpt>
      <trkpt lat="43.386080" lon="-4.295387">
        <ele>32.529</ele>
        <time>2019-06-16T19:33:10Z</time>
      </trkpt>
      <trkpt lat="43.385996" lon="-4.295482">
        <ele>32.355</ele>
        <time>2019-06-16T19:33:11Z</time>
      </trkpt>
      <trkpt lat="43.385913" lon="-4.295586">
        <ele>32.184</ele>
        <time>2019-06-16T19:33:12Z</time>
      </trkpt>
      <trkpt lat="43.385838" lon="-4.295692">
        <ele>32.096</ele>
        <time>2019-06-16T19:33:13Z</time>
      </trkpt>
      <trkpt lat="43.385770" lon="-4.295793">
        <ele>32.031</ele>
        <time>2019-06-16T19:33:14Z</time>
      </trkpt>
      <trkpt lat="43.385691" lon="-4.295889">
        <ele>31.924</ele>
        <time>2019-06-16T19:33:15Z</time>
      </trkpt>
      <trkpt lat="43.385613" lon="-4.295972">
        <ele>31.608</ele>
        <time>2019-06-16T19:33:16Z</time>
      </trkpt>
      <trkpt lat="43.385539" lon="-4.296065">
        <ele>31.452</ele>
        <time>2019-06-16T19:33:17Z</time>
      </trkpt>
      <trkpt lat="43.385466" lon="-4.296148">
        <ele>31.096</ele>
        <time>2019-06-16T19:33:18Z</time>
      </trkpt>
      <trkpt lat="43.385391" lon="-4.296236">
        <ele>30.546</ele>
        <time>2019-06-16T19:33:19Z</time>
      </trkpt>
      <trkpt lat="43.385315" lon="-4.296322">
        <ele>30.140</ele>
        <time>2019-06-16T19:33:20Z</time>
      </trkpt>
      <trkpt lat="43.385245" lon="-4.296395">
        <ele>29.689</ele>
        <time>2019-06-16T19:33:21Z</time>
      </trkpt>
      <trkpt lat="43.385177" lon="-4.296464">
        <ele>29.029</ele>
        <time>2019-06-16T19:33:22Z</time>
      </trkpt>
      <trkpt lat="43.385103" lon="-4.296543">
        <ele>28.725</ele>
        <time>2019-06-16T19:33:23Z</time>
      </trkpt>
      <trkpt lat="43.385042" lon="-4.296613">
        <ele>28.884</ele>
        <time>2019-06-16T19:33:24Z</time>
      </trkpt>
      <trkpt lat="43.384984" lon="-4.296674">
        <ele>28.975</ele>
        <time>2019-06-16T19:33:25Z</time>
      </trkpt>
      <trkpt lat="43.384927" lon="-4.296738">
        <ele>28.528</ele>
        <time>2019-06-16T19:33:26Z</time>
      </trkpt>
      <trkpt lat="43.384877" lon="-4.296822">
        <ele>28.420</ele>
        <time>2019-06-16T19:33:27Z</time>
      </trkpt>
      <trkpt lat="43.384832" lon="-4.296920">
        <ele>28.308</ele>
        <time>2019-06-16T19:33:28Z</time>
      </trkpt>
      <trkpt lat="43.384797" lon="-4.297021">
        <ele>28.320</ele>
        <time>2019-06-16T19:33:29Z</time>
      </trkpt>
      <trkpt lat="43.384741" lon="-4.297126">
        <ele>28.124</ele>
        <time>2019-06-16T19:33:30Z</time>
      </trkpt>
      <trkpt lat="43.384680" lon="-4.297213">
        <ele>28.054</ele>
        <time>2019-06-16T19:33:31Z</time>
      </trkpt>
      <trkpt lat="43.384612" lon="-4.297288">
        <ele>28.158</ele>
        <time>2019-06-16T19:33:32Z</time>
      </trkpt>
      <trkpt lat="43.384540" lon="-4.297362">
        <ele>28.277</ele>
        <time>2019-06-16T19:33:33Z</time>
      </trkpt>
      <trkpt lat="43.384485" lon="-4.297437">
        <ele>28.177</ele>
        <time>2019-06-16T19:33:34Z</time>
      </trkpt>
      <trkpt lat="43.384434" lon="-4.297509">
        <ele>28.073</ele>
        <time>2019-06-16T19:33:35Z</time>
      </trkpt>
      <trkpt lat="43.384386" lon="-4.297586">
        <ele>28.342</ele>
        <time>2019-06-16T19:33:36Z</time>
      </trkpt>
      <trkpt lat="43.384354" lon="-4.297686">
        <ele>28.734</ele>
        <time>2019-06-16T19:33:37Z</time>
      </trkpt>
      <trkpt lat="43.384323" lon="-4.297817">
        <ele>29.155</ele>
        <time>2019-06-16T19:33:38Z</time>
      </trkpt>
      <trkpt lat="43.384289" lon="-4.297952">
        <ele>29.610</ele>
        <time>2019-06-16T19:33:39Z</time>
      </trkpt>
      <trkpt lat="43.384258" lon="-4.298098">
        <ele>30.208</ele>
        <time>2019-06-16T19:33:40Z</time>
      </trkpt>
      <trkpt lat="43.384224" lon="-4.298232">
        <ele>30.646</ele>
        <time>2019-06-16T19:33:41Z</time>
      </trkpt>
      <trkpt lat="43.384191" lon="-4.298401">
        <ele>31.320</ele>
        <time>2019-06-16T19:33:42Z</time>
      </trkpt>
      <trkpt lat="43.384152" lon="-4.298581">
        <ele>32.040</ele>
        <time>2019-06-16T19:33:43Z</time>
      </trkpt>
      <trkpt lat="43.384113" lon="-4.298755">
        <ele>32.754</ele>
        <time>2019-06-16T19:33:44Z</time>
      </trkpt>
      <trkpt lat="43.384079" lon="-4.298938">
        <ele>33.243</ele>
        <time>2019-06-16T19:33:45Z</time>
      </trkpt>
      <trkpt lat="43.384043" lon="-4.299121">
        <ele>34.223</ele>
        <time>2019-06-16T19:33:46Z</time>
      </trkpt>
      <trkpt lat="43.384006" lon="-4.299307">
        <ele>35.549</ele>
        <time>2019-06-16T19:33:47Z</time>
      </trkpt>
      <trkpt lat="43.383977" lon="-4.299475">
        <ele>36.658</ele>
        <time>2019-06-16T19:33:48Z</time>
      </trkpt>
      <trkpt lat="43.383951" lon="-4.299647">
        <ele>38.021</ele>
        <time>2019-06-16T19:33:49Z</time>
      </trkpt>
      <trkpt lat="43.383921" lon="-4.299803">
        <ele>39.041</ele>
        <time>2019-06-16T19:33:50Z</time>
      </trkpt>
      <trkpt lat="43.383888" lon="-4.299941">
        <ele>39.605</ele>
        <time>2019-06-16T19:33:51Z</time>
      </trkpt>
      <trkpt lat="43.383864" lon="-4.300062">
        <ele>40.308</ele>
        <time>2019-06-16T19:33:52Z</time>
      </trkpt>
      <trkpt lat="43.383841" lon="-4.300198">
        <ele>41.025</ele>
        <time>2019-06-16T19:33:53Z</time>
      </trkpt>
      <trkpt lat="43.383824" lon="-4.300323">
        <ele>41.559</ele>
        <time>2019-06-16T19:33:54Z</time>
      </trkpt>
      <trkpt lat="43.383799" lon="-4.300446">
        <ele>41.619</ele>
        <time>2019-06-16T19:33:55Z</time>
      </trkpt>
      <trkpt lat="43.383779" lon="-4.300565">
        <ele>41.953</ele>
        <time>2019-06-16T19:33:56Z</time>
      </trkpt>
      <trkpt lat="43.383756" lon="-4.300684">
        <ele>42.822</ele>
        <time>2019-06-16T19:33:57Z</time>
      </trkpt>
      <trkpt lat="43.383727" lon="-4.300824">
        <ele>43.472</ele>
        <time>2019-06-16T19:33:58Z</time>
      </trkpt>
      <trkpt lat="43.383701" lon="-4.300962">
        <ele>43.488</ele>
        <time>2019-06-16T19:33:59Z</time>
      </trkpt>
      <trkpt lat="43.383673" lon="-4.301121">
        <ele>43.057</ele>
        <time>2019-06-16T19:34:00Z</time>
      </trkpt>
      <trkpt lat="43.383649" lon="-4.301282">
        <ele>42.944</ele>
        <time>2019-06-16T19:34:01Z</time>
      </trkpt>
      <trkpt lat="43.383611" lon="-4.301447">
        <ele>42.205</ele>
        <time>2019-06-16T19:34:02Z</time>
      </trkpt>
      <trkpt lat="43.383570" lon="-4.301604">
        <ele>42.415</ele>
        <time>2019-06-16T19:34:03Z</time>
      </trkpt>
      <trkpt lat="43.383538" lon="-4.301756">
        <ele>42.708</ele>
        <time>2019-06-16T19:34:04Z</time>
      </trkpt>
      <trkpt lat="43.383502" lon="-4.301906">
        <ele>42.967</ele>
        <time>2019-06-16T19:34:05Z</time>
      </trkpt>
      <trkpt lat="43.383459" lon="-4.302040">
        <ele>42.241</ele>
        <time>2019-06-16T19:34:06Z</time>
      </trkpt>
      <trkpt lat="43.383425" lon="-4.302170">
        <ele>41.481</ele>
        <time>2019-06-16T19:34:07Z</time>
      </trkpt>
      <trkpt lat="43.383382" lon="-4.302305">
        <ele>40.725</ele>
        <time>2019-06-16T19:34:08Z</time>
      </trkpt>
      <trkpt lat="43.383339" lon="-4.302447">
        <ele>40.014</ele>
        <time>2019-06-16T19:34:09Z</time>
      </trkpt>
      <trkpt lat="43.383294" lon="-4.302597">
        <ele>40.814</ele>
        <time>2019-06-16T19:34:10Z</time>
      </trkpt>
      <trkpt lat="43.383249" lon="-4.302735">
        <ele>41.570</ele>
        <time>2019-06-16T19:34:11Z</time>
      </trkpt>
      <trkpt lat="43.383190" lon="-4.302862">
        <ele>41.549</ele>
        <time>2019-06-16T19:34:12Z</time>
      </trkpt>
      <trkpt lat="43.383134" lon="-4.302993">
        <ele>40.792</ele>
        <time>2019-06-16T19:34:13Z</time>
      </trkpt>
      <trkpt lat="43.383107" lon="-4.303138">
        <ele>40.473</ele>
        <time>2019-06-16T19:34:14Z</time>
      </trkpt>
      <trkpt lat="43.383083" lon="-4.303276">
        <ele>40.120</ele>
        <time>2019-06-16T19:34:15Z</time>
      </trkpt>
      <trkpt lat="43.383043" lon="-4.303437">
        <ele>39.308</ele>
        <time>2019-06-16T19:34:16Z</time>
      </trkpt>
      <trkpt lat="43.383017" lon="-4.303581">
        <ele>39.692</ele>
        <time>2019-06-16T19:34:17Z</time>
      </trkpt>
      <trkpt lat="43.382988" lon="-4.303733">
        <ele>39.676</ele>
        <time>2019-06-16T19:34:18Z</time>
      </trkpt>
      <trkpt lat="43.382963" lon="-4.303877">
        <ele>39.376</ele>
        <time>2019-06-16T19:34:19Z</time>
      </trkpt>
      <trkpt lat="43.382934" lon="-4.304008">
        <ele>38.230</ele>
        <time>2019-06-16T19:34:20Z</time>
      </trkpt>
      <trkpt lat="43.382904" lon="-4.304160">
        <ele>36.819</ele>
        <time>2019-06-16T19:34:21Z</time>
      </trkpt>
      <trkpt lat="43.382866" lon="-4.304320">
        <ele>35.669</ele>
        <time>2019-06-16T19:34:22Z</time>
      </trkpt>
      <trkpt lat="43.382831" lon="-4.304482">
        <ele>34.645</ele>
        <time>2019-06-16T19:34:23Z</time>
      </trkpt>
      <trkpt lat="43.382812" lon="-4.304640">
        <ele>33.644</ele>
        <time>2019-06-16T19:34:24Z</time>
      </trkpt>
      <trkpt lat="43.382747" lon="-4.304831">
        <ele>32.612</ele>
        <time>2019-06-16T19:34:25Z</time>
      </trkpt>
      <trkpt lat="43.382665" lon="-4.305006">
        <ele>32.032</ele>
        <time>2019-06-16T19:34:26Z</time>
      </trkpt>
      <trkpt lat="43.382590" lon="-4.305179">
        <ele>31.605</ele>
        <time>2019-06-16T19:34:27Z</time>
      </trkpt>
      <trkpt lat="43.382516" lon="-4.305366">
        <ele>30.708</ele>
        <time>2019-06-16T19:34:28Z</time>
      </trkpt>
      <trkpt lat="43.382446" lon="-4.305542">
        <ele>29.944</ele>
        <time>2019-06-16T19:34:29Z</time>
      </trkpt>
      <trkpt lat="43.382358" lon="-4.305708">
        <ele>29.268</ele>
        <time>2019-06-16T19:34:30Z</time>
      </trkpt>
      <trkpt lat="43.382280" lon="-4.305926">
        <ele>28.748</ele>
        <time>2019-06-16T19:34:31Z</time>
      </trkpt>
      <trkpt lat="43.382210" lon="-4.306105">
        <ele>28.072</ele>
        <time>2019-06-16T19:34:32Z</time>
      </trkpt>
      <trkpt lat="43.382140" lon="-4.306290">
        <ele>26.971</ele>
        <time>2019-06-16T19:34:33Z</time>
      </trkpt>
      <trkpt lat="43.382064" lon="-4.306467">
        <ele>26.491</ele>
        <time>2019-06-16T19:34:34Z</time>
      </trkpt>
      <trkpt lat="43.381988" lon="-4.306659">
        <ele>26.037</ele>
        <time>2019-06-16T19:34:35Z</time>
      </trkpt>
      <trkpt lat="43.381908" lon="-4.306856">
        <ele>25.386</ele>
        <time>2019-06-16T19:34:36Z</time>
      </trkpt>
      <trkpt lat="43.381831" lon="-4.307051">
        <ele>24.856</ele>
        <time>2019-06-16T19:34:37Z</time>
      </trkpt>
      <trkpt lat="43.381743" lon="-4.307266">
        <ele>24.159</ele>
        <time>2019-06-16T19:34:38Z</time>
      </trkpt>
      <trkpt lat="43.381669" lon="-4.307466">
        <ele>23.114</ele>
        <time>2019-06-16T19:34:39Z</time>
      </trkpt>
      <trkpt lat="43.381593" lon="-4.307662">
        <ele>22.608</ele>
        <time>2019-06-16T19:34:40Z</time>
      </trkpt>
      <trkpt lat="43.381509" lon="-4.307871">
        <ele>22.498</ele>
        <time>2019-06-16T19:34:41Z</time>
      </trkpt>
      <trkpt lat="43.381431" lon="-4.308050">
        <ele>21.982</ele>
        <time>2019-06-16T19:34:42Z</time>
      </trkpt>
      <trkpt lat="43.381348" lon="-4.308262">
        <ele>22.152</ele>
        <time>2019-06-16T19:34:43Z</time>
      </trkpt>
      <trkpt lat="43.381262" lon="-4.308459">
        <ele>22.426</ele>
        <time>2019-06-16T19:34:44Z</time>
      </trkpt>
      <trkpt lat="43.381186" lon="-4.308653">
        <ele>21.845</ele>
        <time>2019-06-16T19:34:45Z</time>
      </trkpt>
      <trkpt lat="43.381121" lon="-4.308842">
        <ele>21.835</ele>
        <time>2019-06-16T19:34:46Z</time>
      </trkpt>
      <trkpt lat="43.381045" lon="-4.309030">
        <ele>21.851</ele>
        <time>2019-06-16T19:34:47Z</time>
      </trkpt>
      <trkpt lat="43.380977" lon="-4.309208">
        <ele>21.760</ele>
        <time>2019-06-16T19:34:48Z</time>
      </trkpt>
      <trkpt lat="43.380902" lon="-4.309389">
        <ele>21.588</ele>
        <time>2019-06-16T19:34:49Z</time>
      </trkpt>
      <trkpt lat="43.380827" lon="-4.309571">
        <ele>21.824</ele>
        <time>2019-06-16T19:34:50Z</time>
      </trkpt>
      <trkpt lat="43.380754" lon="-4.309756">
        <ele>21.926</ele>
        <time>2019-06-16T19:34:51Z</time>
      </trkpt>
      <trkpt lat="43.380671" lon="-4.309951">
        <ele>22.108</ele>
        <time>2019-06-16T19:34:52Z</time>
      </trkpt>
      <trkpt lat="43.380595" lon="-4.310122">
        <ele>21.351</ele>
        <time>2019-06-16T19:34:53Z</time>
      </trkpt>
      <trkpt lat="43.380501" lon="-4.310320">
        <ele>20.355</ele>
        <time>2019-06-16T19:34:54Z</time>
      </trkpt>
      <trkpt lat="43.380431" lon="-4.310514">
        <ele>20.185</ele>
        <time>2019-06-16T19:34:55Z</time>
      </trkpt>
      <trkpt lat="43.380349" lon="-4.310718">
        <ele>19.479</ele>
        <time>2019-06-16T19:34:56Z</time>
      </trkpt>
      <trkpt lat="43.380277" lon="-4.310924">
        <ele>18.388</ele>
        <time>2019-06-16T19:34:57Z</time>
      </trkpt>
      <trkpt lat="43.380194" lon="-4.311123">
        <ele>17.698</ele>
        <time>2019-06-16T19:34:58Z</time>
      </trkpt>
      <trkpt lat="43.380129" lon="-4.311298">
        <ele>17.374</ele>
        <time>2019-06-16T19:34:59Z</time>
      </trkpt>
      <trkpt lat="43.380056" lon="-4.311484">
        <ele>16.243</ele>
        <time>2019-06-16T19:35:00Z</time>
      </trkpt>
      <trkpt lat="43.379984" lon="-4.311694">
        <ele>14.935</ele>
        <time>2019-06-16T19:35:01Z</time>
      </trkpt>
      <trkpt lat="43.379903" lon="-4.311890">
        <ele>14.486</ele>
        <time>2019-06-16T19:35:02Z</time>
      </trkpt>
      <trkpt lat="43.379828" lon="-4.312086">
        <ele>14.514</ele>
        <time>2019-06-16T19:35:03Z</time>
      </trkpt>
      <trkpt lat="43.379763" lon="-4.312268">
        <ele>15.008</ele>
        <time>2019-06-16T19:35:04Z</time>
      </trkpt>
      <trkpt lat="43.379690" lon="-4.312467">
        <ele>15.316</ele>
        <time>2019-06-16T19:35:05Z</time>
      </trkpt>
      <trkpt lat="43.379612" lon="-4.312649">
        <ele>15.650</ele>
        <time>2019-06-16T19:35:06Z</time>
      </trkpt>
      <trkpt lat="43.379540" lon="-4.312830">
        <ele>15.510</ele>
        <time>2019-06-16T19:35:07Z</time>
      </trkpt>
      <trkpt lat="43.379467" lon="-4.313012">
        <ele>15.224</ele>
        <time>2019-06-16T19:35:08Z</time>
      </trkpt>
      <trkpt lat="43.379402" lon="-4.313175">
        <ele>15.033</ele>
        <time>2019-06-16T19:35:09Z</time>
      </trkpt>
      <trkpt lat="43.379320" lon="-4.313346">
        <ele>14.443</ele>
        <time>2019-06-16T19:35:10Z</time>
      </trkpt>
      <trkpt lat="43.379260" lon="-4.313537">
        <ele>14.549</ele>
        <time>2019-06-16T19:35:11Z</time>
      </trkpt>
      <trkpt lat="43.379212" lon="-4.313713">
        <ele>14.448</ele>
        <time>2019-06-16T19:35:12Z</time>
      </trkpt>
      <trkpt lat="43.379154" lon="-4.313876">
        <ele>13.892</ele>
        <time>2019-06-16T19:35:13Z</time>
      </trkpt>
      <trkpt lat="43.379101" lon="-4.314043">
        <ele>13.673</ele>
        <time>2019-06-16T19:35:14Z</time>
      </trkpt>
      <trkpt lat="43.379059" lon="-4.314223">
        <ele>13.520</ele>
        <time>2019-06-16T19:35:15Z</time>
      </trkpt>
      <trkpt lat="43.379013" lon="-4.314391">
        <ele>13.208</ele>
        <time>2019-06-16T19:35:16Z</time>
      </trkpt>
      <trkpt lat="43.378969" lon="-4.314586">
        <ele>13.022</ele>
        <time>2019-06-16T19:35:17Z</time>
      </trkpt>
      <trkpt lat="43.378941" lon="-4.314780">
        <ele>12.896</ele>
        <time>2019-06-16T19:35:18Z</time>
      </trkpt>
      <trkpt lat="43.378919" lon="-4.314981">
        <ele>12.516</ele>
        <time>2019-06-16T19:35:19Z</time>
      </trkpt>
      <trkpt lat="43.378902" lon="-4.315200">
        <ele>12.250</ele>
        <time>2019-06-16T19:35:20Z</time>
      </trkpt>
      <trkpt lat="43.378898" lon="-4.315401">
        <ele>12.189</ele>
        <time>2019-06-16T19:35:21Z</time>
      </trkpt>
      <trkpt lat="43.378909" lon="-4.315613">
        <ele>12.039</ele>
        <time>2019-06-16T19:35:22Z</time>
      </trkpt>
      <trkpt lat="43.378934" lon="-4.315821">
        <ele>11.585</ele>
        <time>2019-06-16T19:35:23Z</time>
      </trkpt>
      <trkpt lat="43.378971" lon="-4.316021">
        <ele>11.064</ele>
        <time>2019-06-16T19:35:24Z</time>
      </trkpt>
      <trkpt lat="43.379021" lon="-4.316232">
        <ele>10.181</ele>
        <time>2019-06-16T19:35:25Z</time>
      </trkpt>
      <trkpt lat="43.379078" lon="-4.316453">
        <ele>8.861</ele>
        <time>2019-06-16T19:35:26Z</time>
      </trkpt>
      <trkpt lat="43.379190" lon="-4.316583">
        <ele>8.817</ele>
        <time>2019-06-16T19:35:27Z</time>
      </trkpt>
      <trkpt lat="43.379293" lon="-4.316743">
        <ele>8.108</ele>
        <time>2019-06-16T19:35:28Z</time>
      </trkpt>
      <trkpt lat="43.379399" lon="-4.316896">
        <ele>7.291</ele>
        <time>2019-06-16T19:35:29Z</time>
      </trkpt>
      <trkpt lat="43.379504" lon="-4.317033">
        <ele>6.435</ele>
        <time>2019-06-16T19:35:30Z</time>
      </trkpt>
      <trkpt lat="43.379592" lon="-4.317151">
        <ele>5.965</ele>
        <time>2019-06-16T19:35:31Z</time>
      </trkpt>
      <trkpt lat="43.379704" lon="-4.317272">
        <ele>5.469</ele>
        <time>2019-06-16T19:35:32Z</time>
      </trkpt>
      <trkpt lat="43.379815" lon="-4.317401">
        <ele>3.748</ele>
        <time>2019-06-16T19:35:33Z</time>
      </trkpt>
      <trkpt lat="43.379939" lon="-4.317501">
        <ele>3.048</ele>
        <time>2019-06-16T19:35:34Z</time>
      </trkpt>
      <trkpt lat="43.380066" lon="-4.317587">
        <ele>2.134</ele>
        <time>2019-06-16T19:35:35Z</time>
      </trkpt>
      <trkpt lat="43.380200" lon="-4.317684">
        <ele>1.743</ele>
        <time>2019-06-16T19:35:36Z</time>
      </trkpt>
      <trkpt lat="43.380343" lon="-4.317776">
        <ele>2.547</ele>
        <time>2019-06-16T19:35:37Z</time>
      </trkpt>
      <trkpt lat="43.380495" lon="-4.317874">
        <ele>2.929</ele>
        <time>2019-06-16T19:35:38Z</time>
      </trkpt>
      <trkpt lat="43.380647" lon="-4.317969">
        <ele>2.721</ele>
        <time>2019-06-16T19:35:39Z</time>
      </trkpt>
      <trkpt lat="43.380795" lon="-4.318047">
        <ele>3.608</ele>
        <time>2019-06-16T19:35:40Z</time>
      </trkpt>
      <trkpt lat="43.380951" lon="-4.318104">
        <ele>4.397</ele>
        <time>2019-06-16T19:35:41Z</time>
      </trkpt>
      <trkpt lat="43.381109" lon="-4.318155">
        <ele>5.441</ele>
        <time>2019-06-16T19:35:42Z</time>
      </trkpt>
      <trkpt lat="43.381250" lon="-4.318221">
        <ele>6.021</ele>
        <time>2019-06-16T19:35:43Z</time>
      </trkpt>
      <trkpt lat="43.381388" lon="-4.318300">
        <ele>7.325</ele>
        <time>2019-06-16T19:35:44Z</time>
      </trkpt>
      <trkpt lat="43.381514" lon="-4.318403">
        <ele>7.674</ele>
        <time>2019-06-16T19:35:45Z</time>
      </trkpt>
      <trkpt lat="43.381628" lon="-4.318526">
        <ele>8.674</ele>
        <time>2019-06-16T19:35:46Z</time>
      </trkpt>
      <trkpt lat="43.381741" lon="-4.318619">
        <ele>10.120</ele>
        <time>2019-06-16T19:35:47Z</time>
      </trkpt>
      <trkpt lat="43.381834" lon="-4.318740">
        <ele>10.879</ele>
        <time>2019-06-16T19:35:48Z</time>
      </trkpt>
      <trkpt lat="43.381909" lon="-4.318880">
        <ele>11.235</ele>
        <time>2019-06-16T19:35:49Z</time>
      </trkpt>
      <trkpt lat="43.381979" lon="-4.319016">
        <ele>11.586</ele>
        <time>2019-06-16T19:35:50Z</time>
      </trkpt>
      <trkpt lat="43.382032" lon="-4.319174">
        <ele>12.014</ele>
        <time>2019-06-16T19:35:51Z</time>
      </trkpt>
      <trkpt lat="43.382047" lon="-4.319368">
        <ele>11.708</ele>
        <time>2019-06-16T19:35:52Z</time>
      </trkpt>
      <trkpt lat="43.382043" lon="-4.319585">
        <ele>11.036</ele>
        <time>2019-06-16T19:35:53Z</time>
      </trkpt>
      <trkpt lat="43.382030" lon="-4.319793">
        <ele>10.150</ele>
        <time>2019-06-16T19:35:54Z</time>
      </trkpt>
      <trkpt lat="43.382016" lon="-4.320006">
        <ele>9.260</ele>
        <time>2019-06-16T19:35:55Z</time>
      </trkpt>
      <trkpt lat="43.382001" lon="-4.320216">
        <ele>9.824</ele>
        <time>2019-06-16T19:35:56Z</time>
      </trkpt>
      <trkpt lat="43.381991" lon="-4.320422">
        <ele>9.763</ele>
        <time>2019-06-16T19:35:57Z</time>
      </trkpt>
      <trkpt lat="43.381983" lon="-4.320610">
        <ele>9.433</ele>
        <time>2019-06-16T19:35:58Z</time>
      </trkpt>
      <trkpt lat="43.381987" lon="-4.320801">
        <ele>9.469</ele>
        <time>2019-06-16T19:35:59Z</time>
      </trkpt>
      <trkpt lat="43.382009" lon="-4.320979">
        <ele>8.568</ele>
        <time>2019-06-16T19:36:00Z</time>
      </trkpt>
      <trkpt lat="43.382040" lon="-4.321163">
        <ele>8.037</ele>
        <time>2019-06-16T19:36:01Z</time>
      </trkpt>
      <trkpt lat="43.382103" lon="-4.321265">
        <ele>7.849</ele>
        <time>2019-06-16T19:36:02Z</time>
      </trkpt>
      <trkpt lat="43.382176" lon="-4.321401">
        <ele>7.713</ele>
        <time>2019-06-16T19:36:03Z</time>
      </trkpt>
      <trkpt lat="43.382258" lon="-4.321474">
        <ele>7.208</ele>
        <time>2019-06-16T19:36:04Z</time>
      </trkpt>
      <trkpt lat="43.382395" lon="-4.321518">
        <ele>6.866</ele>
        <time>2019-06-16T19:36:05Z</time>
      </trkpt>
      <trkpt lat="43.382568" lon="-4.321498">
        <ele>6.820</ele>
        <time>2019-06-16T19:36:06Z</time>
      </trkpt>
      <trkpt lat="43.382698" lon="-4.321476">
        <ele>7.580</ele>
        <time>2019-06-16T19:36:07Z</time>
      </trkpt>
      <trkpt lat="43.382838" lon="-4.321416">
        <ele>8.764</ele>
        <time>2019-06-16T19:36:08Z</time>
      </trkpt>
      <trkpt lat="43.382987" lon="-4.321336">
        <ele>9.513</ele>
        <time>2019-06-16T19:36:09Z</time>
      </trkpt>
      <trkpt lat="43.383127" lon="-4.321254">
        <ele>10.143</ele>
        <time>2019-06-16T19:36:10Z</time>
      </trkpt>
      <trkpt lat="43.383265" lon="-4.321183">
        <ele>11.199</ele>
        <time>2019-06-16T19:36:11Z</time>
      </trkpt>
      <trkpt lat="43.383391" lon="-4.321126">
        <ele>11.288</ele>
        <time>2019-06-16T19:36:12Z</time>
      </trkpt>
      <trkpt lat="43.383548" lon="-4.321096">
        <ele>10.633</ele>
        <time>2019-06-16T19:36:13Z</time>
      </trkpt>
      <trkpt lat="43.383684" lon="-4.321110">
        <ele>10.423</ele>
        <time>2019-06-16T19:36:14Z</time>
      </trkpt>
      <trkpt lat="43.383838" lon="-4.321132">
        <ele>9.915</ele>
        <time>2019-06-16T19:36:15Z</time>
      </trkpt>
      <trkpt lat="43.383972" lon="-4.321177">
        <ele>10.808</ele>
        <time>2019-06-16T19:36:16Z</time>
      </trkpt>
      <trkpt lat="43.384116" lon="-4.321212">
        <ele>11.336</ele>
        <time>2019-06-16T19:36:17Z</time>
      </trkpt>
      <trkpt lat="43.384237" lon="-4.321259">
        <ele>11.930</ele>
        <time>2019-06-16T19:36:18Z</time>
      </trkpt>
      <trkpt lat="43.384353" lon="-4.321323">
        <ele>12.250</ele>
        <time>2019-06-16T19:36:19Z</time>
      </trkpt>
      <trkpt lat="43.384442" lon="-4.321419">
        <ele>12.424</ele>
        <time>2019-06-16T19:36:20Z</time>
      </trkpt>
      <trkpt lat="43.384519" lon="-4.321540">
        <ele>12.713</ele>
        <time>2019-06-16T19:36:21Z</time>
      </trkpt>
      <trkpt lat="43.384593" lon="-4.321658">
        <ele>12.363</ele>
        <time>2019-06-16T19:36:22Z</time>
      </trkpt>
      <trkpt lat="43.384623" lon="-4.321824">
        <ele>11.349</ele>
        <time>2019-06-16T19:36:23Z</time>
      </trkpt>
      <trkpt lat="43.384640" lon="-4.322026">
        <ele>9.928</ele>
        <time>2019-06-16T19:36:24Z</time>
      </trkpt>
      <trkpt lat="43.384654" lon="-4.322217">
        <ele>8.591</ele>
        <time>2019-06-16T19:36:25Z</time>
      </trkpt>
      <trkpt lat="43.384623" lon="-4.322456">
        <ele>9.281</ele>
        <time>2019-06-16T19:36:26Z</time>
      </trkpt>
      <trkpt lat="43.384601" lon="-4.322693">
        <ele>9.419</ele>
        <time>2019-06-16T19:36:27Z</time>
      </trkpt>
      <trkpt lat="43.384574" lon="-4.322934">
        <ele>9.608</ele>
        <time>2019-06-16T19:36:28Z</time>
      </trkpt>
      <trkpt lat="43.384547" lon="-4.323205">
        <ele>9.562</ele>
        <time>2019-06-16T19:36:29Z</time>
      </trkpt>
      <trkpt lat="43.384522" lon="-4.323484">
        <ele>8.686</ele>
        <time>2019-06-16T19:36:30Z</time>
      </trkpt>
      <trkpt lat="43.384493" lon="-4.323761">
        <ele>7.776</ele>
        <time>2019-06-16T19:36:31Z</time>
      </trkpt>
      <trkpt lat="43.384469" lon="-4.324025">
        <ele>7.160</ele>
        <time>2019-06-16T19:36:32Z</time>
      </trkpt>
      <trkpt lat="43.384448" lon="-4.324314">
        <ele>6.449</ele>
        <time>2019-06-16T19:36:33Z</time>
      </trkpt>
      <trkpt lat="43.384424" lon="-4.324582">
        <ele>6.619</ele>
        <time>2019-06-16T19:36:34Z</time>
      </trkpt>
      <trkpt lat="43.384403" lon="-4.324856">
        <ele>6.935</ele>
        <time>2019-06-16T19:36:35Z</time>
      </trkpt>
      <trkpt lat="43.384382" lon="-4.325141">
        <ele>7.144</ele>
        <time>2019-06-16T19:36:36Z</time>
      </trkpt>
      <trkpt lat="43.384358" lon="-4.325408">
        <ele>7.222</ele>
        <time>2019-06-16T19:36:37Z</time>
      </trkpt>
      <trkpt lat="43.384334" lon="-4.325667">
        <ele>7.262</ele>
        <time>2019-06-16T19:36:38Z</time>
      </trkpt>
      <trkpt lat="43.384305" lon="-4.325921">
        <ele>7.408</ele>
        <time>2019-06-16T19:36:39Z</time>
      </trkpt>
      <trkpt lat="43.384281" lon="-4.326167">
        <ele>7.208</ele>
        <time>2019-06-16T19:36:40Z</time>
      </trkpt>
      <trkpt lat="43.384248" lon="-4.326397">
        <ele>6.875</ele>
        <time>2019-06-16T19:36:41Z</time>
      </trkpt>
      <trkpt lat="43.384224" lon="-4.326645">
        <ele>7.289</ele>
        <time>2019-06-16T19:36:42Z</time>
      </trkpt>
      <trkpt lat="43.384200" lon="-4.326887">
        <ele>6.899</ele>
        <time>2019-06-16T19:36:43Z</time>
      </trkpt>
      <trkpt lat="43.384183" lon="-4.327120">
        <ele>6.863</ele>
        <time>2019-06-16T19:36:44Z</time>
      </trkpt>
      <trkpt lat="43.384166" lon="-4.327349">
        <ele>7.022</ele>
        <time>2019-06-16T19:36:45Z</time>
      </trkpt>
      <trkpt lat="43.384148" lon="-4.327559">
        <ele>7.332</ele>
        <time>2019-06-16T19:36:46Z</time>
      </trkpt>
      <trkpt lat="43.384134" lon="-4.327766">
        <ele>7.268</ele>
        <time>2019-06-16T19:36:47Z</time>
      </trkpt>
      <trkpt lat="43.384124" lon="-4.327960">
        <ele>7.487</ele>
        <time>2019-06-16T19:36:48Z</time>
      </trkpt>
      <trkpt lat="43.384108" lon="-4.328158">
        <ele>7.611</ele>
        <time>2019-06-16T19:36:49Z</time>
      </trkpt>
      <trkpt lat="43.384096" lon="-4.328350">
        <ele>6.921</ele>
        <time>2019-06-16T19:36:50Z</time>
      </trkpt>
      <trkpt lat="43.384092" lon="-4.328524">
        <ele>5.603</ele>
        <time>2019-06-16T19:36:51Z</time>
      </trkpt>
      <trkpt lat="43.384097" lon="-4.328699">
        <ele>4.408</ele>
        <time>2019-06-16T19:36:52Z</time>
      </trkpt>
      <trkpt lat="43.384114" lon="-4.328860">
        <ele>3.914</ele>
        <time>2019-06-16T19:36:53Z</time>
      </trkpt>
      <trkpt lat="43.384154" lon="-4.329011">
        <ele>2.778</ele>
        <time>2019-06-16T19:36:54Z</time>
      </trkpt>
      <trkpt lat="43.384207" lon="-4.329159">
        <ele>1.188</ele>
        <time>2019-06-16T19:36:55Z</time>
      </trkpt>
      <trkpt lat="43.384285" lon="-4.329283">
        <ele>1.022</ele>
        <time>2019-06-16T19:36:56Z</time>
      </trkpt>
      <trkpt lat="43.384355" lon="-4.329456">
        <ele>1.091</ele>
        <time>2019-06-16T19:36:57Z</time>
      </trkpt>
      <trkpt lat="43.384429" lon="-4.329615">
        <ele>1.081</ele>
        <time>2019-06-16T19:36:58Z</time>
      </trkpt>
      <trkpt lat="43.384492" lon="-4.329760">
        <ele>1.337</ele>
        <time>2019-06-16T19:36:59Z</time>
      </trkpt>
      <trkpt lat="43.384556" lon="-4.329901">
        <ele>2.326</ele>
        <time>2019-06-16T19:37:00Z</time>
      </trkpt>
      <trkpt lat="43.384617" lon="-4.330027">
        <ele>3.326</ele>
        <time>2019-06-16T19:37:01Z</time>
      </trkpt>
      <trkpt lat="43.384673" lon="-4.330111">
        <ele>4.647</ele>
        <time>2019-06-16T19:37:02Z</time>
      </trkpt>
      <trkpt lat="43.384730" lon="-4.330161">
        <ele>6.011</ele>
        <time>2019-06-16T19:37:03Z</time>
      </trkpt>
      <trkpt lat="43.384798" lon="-4.330170">
        <ele>6.708</ele>
        <time>2019-06-16T19:37:04Z</time>
      </trkpt>
      <trkpt lat="43.384864" lon="-4.330161">
        <ele>7.185</ele>
        <time>2019-06-16T19:37:05Z</time>
      </trkpt>
      <trkpt lat="43.384957" lon="-4.330122">
        <ele>7.439</ele>
        <time>2019-06-16T19:37:06Z</time>
      </trkpt>
      <trkpt lat="43.385072" lon="-4.330071">
        <ele>7.759</ele>
        <time>2019-06-16T19:37:07Z</time>
      </trkpt>
      <trkpt lat="43.385186" lon="-4.330032">
        <ele>8.373</ele>
        <time>2019-06-16T19:37:08Z</time>
      </trkpt>
      <trkpt lat="43.385311" lon="-4.330014">
        <ele>9.452</ele>
        <time>2019-06-16T19:37:09Z</time>
      </trkpt>
      <trkpt lat="43.385450" lon="-4.329987">
        <ele>10.132</ele>
        <time>2019-06-16T19:37:10Z</time>
      </trkpt>
      <trkpt lat="43.385581" lon="-4.329975">
        <ele>10.788</ele>
        <time>2019-06-16T19:37:11Z</time>
      </trkpt>
      <trkpt lat="43.385706" lon="-4.329982">
        <ele>11.417</ele>
        <time>2019-06-16T19:37:12Z</time>
      </trkpt>
      <trkpt lat="43.385835" lon="-4.330004">
        <ele>12.069</ele>
        <time>2019-06-16T19:37:13Z</time>
      </trkpt>
      <trkpt lat="43.385965" lon="-4.330032">
        <ele>11.804</ele>
        <time>2019-06-16T19:37:14Z</time>
      </trkpt>
      <trkpt lat="43.386122" lon="-4.330085">
        <ele>11.224</ele>
        <time>2019-06-16T19:37:15Z</time>
      </trkpt>
      <trkpt lat="43.386242" lon="-4.330135">
        <ele>10.508</ele>
        <time>2019-06-16T19:37:16Z</time>
      </trkpt>
      <trkpt lat="43.386357" lon="-4.330174">
        <ele>9.949</ele>
        <time>2019-06-16T19:37:17Z</time>
      </trkpt>
      <trkpt lat="43.386466" lon="-4.330217">
        <ele>9.233</ele>
        <time>2019-06-16T19:37:18Z</time>
      </trkpt>
      <trkpt lat="43.386584" lon="-4.330239">
        <ele>8.413</ele>
        <time>2019-06-16T19:37:19Z</time>
      </trkpt>
      <trkpt lat="43.386696" lon="-4.330253">
        <ele>7.827</ele>
        <time>2019-06-16T19:37:20Z</time>
      </trkpt>
      <trkpt lat="43.386795" lon="-4.330220">
        <ele>7.716</ele>
        <time>2019-06-16T19:37:21Z</time>
      </trkpt>
      <trkpt lat="43.386904" lon="-4.330168">
        <ele>7.546</ele>
        <time>2019-06-16T19:37:22Z</time>
      </trkpt>
      <trkpt lat="43.387009" lon="-4.330077">
        <ele>7.782</ele>
        <time>2019-06-16T19:37:23Z</time>
      </trkpt>
      <trkpt lat="43.387108" lon="-4.329961">
        <ele>8.071</ele>
        <time>2019-06-16T19:37:24Z</time>
      </trkpt>
      <trkpt lat="43.387182" lon="-4.329837">
        <ele>8.172</ele>
        <time>2019-06-16T19:37:25Z</time>
      </trkpt>
      <trkpt lat="43.387260" lon="-4.329698">
        <ele>8.313</ele>
        <time>2019-06-16T19:37:26Z</time>
      </trkpt>
      <trkpt lat="43.387313" lon="-4.329549">
        <ele>8.414</ele>
        <time>2019-06-16T19:37:27Z</time>
      </trkpt>
      <trkpt lat="43.387341" lon="-4.329397">
        <ele>8.408</ele>
        <time>2019-06-16T19:37:28Z</time>
      </trkpt>
      <trkpt lat="43.387375" lon="-4.329228">
        <ele>8.670</ele>
        <time>2019-06-16T19:37:29Z</time>
      </trkpt>
      <trkpt lat="43.387397" lon="-4.329076">
        <ele>8.434</ele>
        <time>2019-06-16T19:37:30Z</time>
      </trkpt>
      <trkpt lat="43.387417" lon="-4.328934">
        <ele>8.134</ele>
        <time>2019-06-16T19:37:31Z</time>
      </trkpt>
      <trkpt lat="43.387453" lon="-4.328794">
        <ele>7.858</ele>
        <time>2019-06-16T19:37:32Z</time>
      </trkpt>
      <trkpt lat="43.387486" lon="-4.328661">
        <ele>7.357</ele>
        <time>2019-06-16T19:37:33Z</time>
      </trkpt>
      <trkpt lat="43.387529" lon="-4.328547">
        <ele>6.747</ele>
        <time>2019-06-16T19:37:34Z</time>
      </trkpt>
      <trkpt lat="43.387592" lon="-4.328427">
        <ele>6.243</ele>
        <time>2019-06-16T19:37:35Z</time>
      </trkpt>
      <trkpt lat="43.387668" lon="-4.328311">
        <ele>5.962</ele>
        <time>2019-06-16T19:37:36Z</time>
      </trkpt>
      <trkpt lat="43.387752" lon="-4.328200">
        <ele>5.949</ele>
        <time>2019-06-16T19:37:37Z</time>
      </trkpt>
      <trkpt lat="43.387845" lon="-4.328115">
        <ele>5.902</ele>
        <time>2019-06-16T19:37:38Z</time>
      </trkpt>
      <trkpt lat="43.387939" lon="-4.328057">
        <ele>6.022</ele>
        <time>2019-06-16T19:37:39Z</time>
      </trkpt>
      <trkpt lat="43.388036" lon="-4.328026">
        <ele>6.008</ele>
        <time>2019-06-16T19:37:40Z</time>
      </trkpt>
      <trkpt lat="43.388139" lon="-4.328030">
        <ele>5.737</ele>
        <time>2019-06-16T19:37:41Z</time>
      </trkpt>
      <trkpt lat="43.388234" lon="-4.328069">
        <ele>5.321</ele>
        <time>2019-06-16T19:37:42Z</time>
      </trkpt>
      <trkpt lat="43.388323" lon="-4.328142">
        <ele>5.071</ele>
        <time>2019-06-16T19:37:43Z</time>
      </trkpt>
      <trkpt lat="43.388404" lon="-4.328236">
        <ele>5.075</ele>
        <time>2019-06-16T19:37:44Z</time>
      </trkpt>
      <trkpt lat="43.388477" lon="-4.328354">
        <ele>5.064</ele>
        <time>2019-06-16T19:37:45Z</time>
      </trkpt>
      <trkpt lat="43.388538" lon="-4.328473">
        <ele>5.134</ele>
        <time>2019-06-16T19:37:46Z</time>
      </trkpt>
      <trkpt lat="43.388596" lon="-4.328583">
        <ele>5.090</ele>
        <time>2019-06-16T19:37:47Z</time>
      </trkpt>
      <trkpt lat="43.388648" lon="-4.328694">
        <ele>5.379</ele>
        <time>2019-06-16T19:37:48Z</time>
      </trkpt>
      <trkpt lat="43.388697" lon="-4.328809">
        <ele>5.538</ele>
        <time>2019-06-16T19:37:49Z</time>
      </trkpt>
      <trkpt lat="43.388738" lon="-4.328929">
        <ele>5.570</ele>
        <time>2019-06-16T19:37:50Z</time>
      </trkpt>
      <trkpt lat="43.388779" lon="-4.329053">
        <ele>5.417</ele>
        <time>2019-06-16T19:37:51Z</time>
      </trkpt>
      <trkpt lat="43.388815" lon="-4.329187">
        <ele>5.308</ele>
        <time>2019-06-16T19:37:52Z</time>
      </trkpt>
      <trkpt lat="43.388841" lon="-4.329334">
        <ele>5.356</ele>
        <time>2019-06-16T19:37:53Z</time>
      </trkpt>
      <trkpt lat="43.388865" lon="-4.329488">
        <ele>5.440</ele>
        <time>2019-06-16T19:37:54Z</time>
      </trkpt>
      <trkpt lat="43.388895" lon="-4.329638">
        <ele>5.750</ele>
        <time>2019-06-16T19:37:55Z</time>
      </trkpt>
      <trkpt lat="43.388923" lon="-4.329794">
        <ele>5.984</ele>
        <time>2019-06-16T19:37:56Z</time>
      </trkpt>
      <trkpt lat="43.388953" lon="-4.329943">
        <ele>5.863</ele>
        <time>2019-06-16T19:37:57Z</time>
      </trkpt>
      <trkpt lat="43.388991" lon="-4.330093">
        <ele>5.453</ele>
        <time>2019-06-16T19:37:58Z</time>
      </trkpt>
      <trkpt lat="43.389043" lon="-4.330234">
        <ele>5.199</ele>
        <time>2019-06-16T19:37:59Z</time>
      </trkpt>
      <trkpt lat="43.389103" lon="-4.330372">
        <ele>5.038</ele>
        <time>2019-06-16T19:38:00Z</time>
      </trkpt>
      <trkpt lat="43.389163" lon="-4.330511">
        <ele>5.018</ele>
        <time>2019-06-16T19:38:01Z</time>
      </trkpt>
      <trkpt lat="43.389236" lon="-4.330641">
        <ele>4.998</ele>
        <time>2019-06-16T19:38:02Z</time>
      </trkpt>
      <trkpt lat="43.389308" lon="-4.330778">
        <ele>5.317</ele>
        <time>2019-06-16T19:38:03Z</time>
      </trkpt>
      <trkpt lat="43.389388" lon="-4.330907">
        <ele>5.708</ele>
        <time>2019-06-16T19:38:04Z</time>
      </trkpt>
      <trkpt lat="43.389468" lon="-4.331056">
        <ele>5.974</ele>
        <time>2019-06-16T19:38:05Z</time>
      </trkpt>
      <trkpt lat="43.389550" lon="-4.331219">
        <ele>5.528</ele>
        <time>2019-06-16T19:38:06Z</time>
      </trkpt>
      <trkpt lat="43.389631" lon="-4.331389">
        <ele>5.768</ele>
        <time>2019-06-16T19:38:07Z</time>
      </trkpt>
      <trkpt lat="43.389709" lon="-4.331568">
        <ele>7.232</ele>
        <time>2019-06-16T19:38:08Z</time>
      </trkpt>
      <trkpt lat="43.389789" lon="-4.331750">
        <ele>8.481</ele>
        <time>2019-06-16T19:38:09Z</time>
      </trkpt>
      <trkpt lat="43.389867" lon="-4.331941">
        <ele>9.591</ele>
        <time>2019-06-16T19:38:10Z</time>
      </trkpt>
      <trkpt lat="43.389937" lon="-4.332146">
        <ele>11.127</ele>
        <time>2019-06-16T19:38:11Z</time>
      </trkpt>
      <trkpt lat="43.390014" lon="-4.332343">
        <ele>12.596</ele>
        <time>2019-06-16T19:38:12Z</time>
      </trkpt>
      <trkpt lat="43.390092" lon="-4.332540">
        <ele>13.555</ele>
        <time>2019-06-16T19:38:13Z</time>
      </trkpt>
      <trkpt lat="43.390166" lon="-4.332736">
        <ele>14.407</ele>
        <time>2019-06-16T19:38:14Z</time>
      </trkpt>
      <trkpt lat="43.390246" lon="-4.332913">
        <ele>15.417</ele>
        <time>2019-06-16T19:38:15Z</time>
      </trkpt>
      <trkpt lat="43.390319" lon="-4.333112">
        <ele>16.408</ele>
        <time>2019-06-16T19:38:16Z</time>
      </trkpt>
      <trkpt lat="43.390391" lon="-4.333312">
        <ele>17.338</ele>
        <time>2019-06-16T19:38:17Z</time>
      </trkpt>
      <trkpt lat="43.390468" lon="-4.333515">
        <ele>18.342</ele>
        <time>2019-06-16T19:38:18Z</time>
      </trkpt>
      <trkpt lat="43.390539" lon="-4.333724">
        <ele>19.322</ele>
        <time>2019-06-16T19:38:19Z</time>
      </trkpt>
      <trkpt lat="43.390620" lon="-4.333922">
        <ele>20.426</ele>
        <time>2019-06-16T19:38:20Z</time>
      </trkpt>
      <trkpt lat="43.390695" lon="-4.334135">
        <ele>21.855</ele>
        <time>2019-06-16T19:38:21Z</time>
      </trkpt>
      <trkpt lat="43.390764" lon="-4.334350">
        <ele>23.235</ele>
        <time>2019-06-16T19:38:22Z</time>
      </trkpt>
      <trkpt lat="43.390839" lon="-4.334571">
        <ele>24.571</ele>
        <time>2019-06-16T19:38:23Z</time>
      </trkpt>
      <trkpt lat="43.390917" lon="-4.334796">
        <ele>25.620</ele>
        <time>2019-06-16T19:38:24Z</time>
      </trkpt>
      <trkpt lat="43.391001" lon="-4.335013">
        <ele>26.271</ele>
        <time>2019-06-16T19:38:25Z</time>
      </trkpt>
      <trkpt lat="43.391091" lon="-4.335234">
        <ele>26.941</ele>
        <time>2019-06-16T19:38:26Z</time>
      </trkpt>
      <trkpt lat="43.391189" lon="-4.335448">
        <ele>27.315</ele>
        <time>2019-06-16T19:38:27Z</time>
      </trkpt>
      <trkpt lat="43.391284" lon="-4.335669">
        <ele>27.608</ele>
        <time>2019-06-16T19:38:28Z</time>
      </trkpt>
      <trkpt lat="43.391378" lon="-4.335894">
        <ele>28.220</ele>
        <time>2019-06-16T19:38:29Z</time>
      </trkpt>
      <trkpt lat="43.391467" lon="-4.336113">
        <ele>28.434</ele>
        <time>2019-06-16T19:38:30Z</time>
      </trkpt>
      <trkpt lat="43.391559" lon="-4.336335">
        <ele>28.644</ele>
        <time>2019-06-16T19:38:31Z</time>
      </trkpt>
      <trkpt lat="43.391639" lon="-4.336534">
        <ele>28.738</ele>
        <time>2019-06-16T19:38:32Z</time>
      </trkpt>
      <trkpt lat="43.391727" lon="-4.336740">
        <ele>28.387</ele>
        <time>2019-06-16T19:38:33Z</time>
      </trkpt>
      <trkpt lat="43.391818" lon="-4.336953">
        <ele>28.447</ele>
        <time>2019-06-16T19:38:34Z</time>
      </trkpt>
      <trkpt lat="43.391914" lon="-4.337179">
        <ele>29.613</ele>
        <time>2019-06-16T19:38:35Z</time>
      </trkpt>
      <trkpt lat="43.392014" lon="-4.337408">
        <ele>30.342</ele>
        <time>2019-06-16T19:38:36Z</time>
      </trkpt>
      <trkpt lat="43.392106" lon="-4.337637">
        <ele>31.561</ele>
        <time>2019-06-16T19:38:37Z</time>
      </trkpt>
      <trkpt lat="43.392198" lon="-4.337854">
        <ele>33.221</ele>
        <time>2019-06-16T19:38:38Z</time>
      </trkpt>
      <trkpt lat="43.392281" lon="-4.338060">
        <ele>34.013</ele>
        <time>2019-06-16T19:38:39Z</time>
      </trkpt>
      <trkpt lat="43.392362" lon="-4.338266">
        <ele>35.108</ele>
        <time>2019-06-16T19:38:40Z</time>
      </trkpt>
      <trkpt lat="43.392453" lon="-4.338468">
        <ele>36.679</ele>
        <time>2019-06-16T19:38:41Z</time>
      </trkpt>
      <trkpt lat="43.392546" lon="-4.338676">
        <ele>37.943</ele>
        <time>2019-06-16T19:38:42Z</time>
      </trkpt>
      <trkpt lat="43.392625" lon="-4.338887">
        <ele>38.073</ele>
        <time>2019-06-16T19:38:43Z</time>
      </trkpt>
      <trkpt lat="43.392688" lon="-4.339105">
        <ele>39.147</ele>
        <time>2019-06-16T19:38:44Z</time>
      </trkpt>
      <trkpt lat="43.392742" lon="-4.339324">
        <ele>39.796</ele>
        <time>2019-06-16T19:38:45Z</time>
      </trkpt>
      <trkpt lat="43.392792" lon="-4.339539">
        <ele>40.576</ele>
        <time>2019-06-16T19:38:46Z</time>
      </trkpt>
      <trkpt lat="43.392836" lon="-4.339737">
        <ele>41.212</ele>
        <time>2019-06-16T19:38:47Z</time>
      </trkpt>
      <trkpt lat="43.392890" lon="-4.339926">
        <ele>41.761</ele>
        <time>2019-06-16T19:38:48Z</time>
      </trkpt>
      <trkpt lat="43.392949" lon="-4.340120">
        <ele>43.098</ele>
        <time>2019-06-16T19:38:49Z</time>
      </trkpt>
      <trkpt lat="43.393022" lon="-4.340312">
        <ele>45.015</ele>
        <time>2019-06-16T19:38:50Z</time>
      </trkpt>
      <trkpt lat="43.393100" lon="-4.340500">
        <ele>45.226</ele>
        <time>2019-06-16T19:38:51Z</time>
      </trkpt>
      <trkpt lat="43.393179" lon="-4.340694">
        <ele>45.608</ele>
        <time>2019-06-16T19:38:52Z</time>
      </trkpt>
      <trkpt lat="43.393260" lon="-4.340864">
        <ele>47.222</ele>
        <time>2019-06-16T19:38:53Z</time>
      </trkpt>
      <trkpt lat="43.393340" lon="-4.341024">
        <ele>48.236</ele>
        <time>2019-06-16T19:38:54Z</time>
      </trkpt>
      <trkpt lat="43.393411" lon="-4.341191">
        <ele>48.116</ele>
        <time>2019-06-16T19:38:55Z</time>
      </trkpt>
      <trkpt lat="43.393469" lon="-4.341315">
        <ele>48.650</ele>
        <time>2019-06-16T19:38:56Z</time>
      </trkpt>
      <trkpt lat="43.393539" lon="-4.341441">
        <ele>49.729</ele>
        <time>2019-06-16T19:38:57Z</time>
      </trkpt>
      <trkpt lat="43.393625" lon="-4.341565">
        <ele>51.719</ele>
        <time>2019-06-16T19:38:58Z</time>
      </trkpt>
      <trkpt lat="43.393740" lon="-4.341652">
        <ele>52.825</ele>
        <time>2019-06-16T19:38:59Z</time>
      </trkpt>
      <trkpt lat="43.393864" lon="-4.341704">
        <ele>53.044</ele>
        <time>2019-06-16T19:39:00Z</time>
      </trkpt>
      <trkpt lat="43.393993" lon="-4.341739">
        <ele>54.673</ele>
        <time>2019-06-16T19:39:01Z</time>
      </trkpt>
      <trkpt lat="43.394115" lon="-4.341759">
        <ele>56.285</ele>
        <time>2019-06-16T19:39:02Z</time>
      </trkpt>
      <trkpt lat="43.394234" lon="-4.341772">
        <ele>57.113</ele>
        <time>2019-06-16T19:39:03Z</time>
      </trkpt>
      <trkpt lat="43.394359" lon="-4.341811">
        <ele>58.308</ele>
        <time>2019-06-16T19:39:04Z</time>
      </trkpt>
      <trkpt lat="43.394474" lon="-4.341869">
        <ele>59.520</ele>
        <time>2019-06-16T19:39:05Z</time>
      </trkpt>
      <trkpt lat="43.394588" lon="-4.341939">
        <ele>59.984</ele>
        <time>2019-06-16T19:39:06Z</time>
      </trkpt>
      <trkpt lat="43.394677" lon="-4.342053">
        <ele>60.654</ele>
        <time>2019-06-16T19:39:07Z</time>
      </trkpt>
      <trkpt lat="43.394751" lon="-4.342188">
        <ele>61.298</ele>
        <time>2019-06-16T19:39:08Z</time>
      </trkpt>
      <trkpt lat="43.394804" lon="-4.342332">
        <ele>61.867</ele>
        <time>2019-06-16T19:39:09Z</time>
      </trkpt>
      <trkpt lat="43.394834" lon="-4.342494">
        <ele>62.537</ele>
        <time>2019-06-16T19:39:10Z</time>
      </trkpt>
      <trkpt lat="43.394841" lon="-4.342690">
        <ele>63.553</ele>
        <time>2019-06-16T19:39:11Z</time>
      </trkpt>
      <trkpt lat="43.394836" lon="-4.342883">
        <ele>64.772</ele>
        <time>2019-06-16T19:39:12Z</time>
      </trkpt>
      <trkpt lat="43.394827" lon="-4.343090">
        <ele>66.211</ele>
        <time>2019-06-16T19:39:13Z</time>
      </trkpt>
      <trkpt lat="43.394819" lon="-4.343332">
        <ele>67.621</ele>
        <time>2019-06-16T19:39:14Z</time>
      </trkpt>
      <trkpt lat="43.394812" lon="-4.343564">
        <ele>68.603</ele>
        <time>2019-06-16T19:39:15Z</time>
      </trkpt>
      <trkpt lat="43.394801" lon="-4.343781">
        <ele>70.208</ele>
        <time>2019-06-16T19:39:16Z</time>
      </trkpt>
      <trkpt lat="43.394792" lon="-4.344027">
        <ele>72.264</ele>
        <time>2019-06-16T19:39:17Z</time>
      </trkpt>
      <trkpt lat="43.394784" lon="-4.344264">
        <ele>74.448</ele>
        <time>2019-06-16T19:39:18Z</time>
      </trkpt>
      <trkpt lat="43.394778" lon="-4.344483">
        <ele>76.618</ele>
        <time>2019-06-16T19:39:19Z</time>
      </trkpt>
      <trkpt lat="43.394775" lon="-4.344716">
        <ele>77.662</ele>
        <time>2019-06-16T19:39:20Z</time>
      </trkpt>
      <trkpt lat="43.394770" lon="-4.344941">
        <ele>78.351</ele>
        <time>2019-06-16T19:39:21Z</time>
      </trkpt>
      <trkpt lat="43.394769" lon="-4.345173">
        <ele>79.161</ele>
        <time>2019-06-16T19:39:22Z</time>
      </trkpt>
      <trkpt lat="43.394766" lon="-4.345423">
        <ele>80.877</ele>
        <time>2019-06-16T19:39:23Z</time>
      </trkpt>
      <trkpt lat="43.394766" lon="-4.345676">
        <ele>81.996</ele>
        <time>2019-06-16T19:39:24Z</time>
      </trkpt>
      <trkpt lat="43.394771" lon="-4.345930">
        <ele>82.226</ele>
        <time>2019-06-16T19:39:25Z</time>
      </trkpt>
      <trkpt lat="43.394778" lon="-4.346187">
        <ele>83.047</ele>
        <time>2019-06-16T19:39:26Z</time>
      </trkpt>
      <trkpt lat="43.394786" lon="-4.346430">
        <ele>83.511</ele>
        <time>2019-06-16T19:39:27Z</time>
      </trkpt>
      <trkpt lat="43.394793" lon="-4.346673">
        <ele>84.208</ele>
        <time>2019-06-16T19:39:28Z</time>
      </trkpt>
      <trkpt lat="43.394798" lon="-4.346914">
        <ele>85.085</ele>
        <time>2019-06-16T19:39:29Z</time>
      </trkpt>
      <trkpt lat="43.394799" lon="-4.347158">
        <ele>85.829</ele>
        <time>2019-06-16T19:39:30Z</time>
      </trkpt>
      <trkpt lat="43.394793" lon="-4.347400">
        <ele>87.049</ele>
        <time>2019-06-16T19:39:31Z</time>
      </trkpt>
      <trkpt lat="43.394789" lon="-4.347637">
        <ele>88.123</ele>
        <time>2019-06-16T19:39:32Z</time>
      </trkpt>
      <trkpt lat="43.394795" lon="-4.347868">
        <ele>88.612</ele>
        <time>2019-06-16T19:39:33Z</time>
      </trkpt>
      <trkpt lat="43.394806" lon="-4.348101">
        <ele>88.792</ele>
        <time>2019-06-16T19:39:34Z</time>
      </trkpt>
      <trkpt lat="43.394823" lon="-4.348340">
        <ele>88.878</ele>
        <time>2019-06-16T19:39:35Z</time>
      </trkpt>
      <trkpt lat="43.394853" lon="-4.348593">
        <ele>89.177</ele>
        <time>2019-06-16T19:39:36Z</time>
      </trkpt>
      <trkpt lat="43.394887" lon="-4.348815">
        <ele>89.444</ele>
        <time>2019-06-16T19:39:37Z</time>
      </trkpt>
      <trkpt lat="43.394918" lon="-4.349031">
        <ele>89.905</ele>
        <time>2019-06-16T19:39:38Z</time>
      </trkpt>
      <trkpt lat="43.394956" lon="-4.349215">
        <ele>90.415</ele>
        <time>2019-06-16T19:39:39Z</time>
      </trkpt>
      <trkpt lat="43.394979" lon="-4.349417">
        <ele>90.908</ele>
        <time>2019-06-16T19:39:40Z</time>
      </trkpt>
      <trkpt lat="43.395008" lon="-4.349602">
        <ele>90.917</ele>
        <time>2019-06-16T19:39:41Z</time>
      </trkpt>
      <trkpt lat="43.395040" lon="-4.349783">
        <ele>90.481</ele>
        <time>2019-06-16T19:39:42Z</time>
      </trkpt>
      <trkpt lat="43.395089" lon="-4.349979">
        <ele>89.721</ele>
        <time>2019-06-16T19:39:43Z</time>
      </trkpt>
      <trkpt lat="43.395130" lon="-4.350125">
        <ele>89.565</ele>
        <time>2019-06-16T19:39:44Z</time>
      </trkpt>
      <trkpt lat="43.395167" lon="-4.350259">
        <ele>89.644</ele>
        <time>2019-06-16T19:39:45Z</time>
      </trkpt>
      <trkpt lat="43.395199" lon="-4.350380">
        <ele>89.594</ele>
        <time>2019-06-16T19:39:46Z</time>
      </trkpt>
      <trkpt lat="43.395232" lon="-4.350495">
        <ele>89.670</ele>
        <time>2019-06-16T19:39:47Z</time>
      </trkpt>
      <trkpt lat="43.395248" lon="-4.350609">
        <ele>89.589</ele>
        <time>2019-06-16T19:39:48Z</time>
      </trkpt>
      <trkpt lat="43.395258" lon="-4.350713">
        <ele>89.241</ele>
        <time>2019-06-16T19:39:49Z</time>
      </trkpt>
      <trkpt lat="43.395266" lon="-4.350808">
        <ele>88.981</ele>
        <time>2019-06-16T19:39:50Z</time>
      </trkpt>
      <trkpt lat="43.395279" lon="-4.350913">
        <ele>88.709</ele>
        <time>2019-06-16T19:39:51Z</time>
      </trkpt>
      <trkpt lat="43.395277" lon="-4.351006">
        <ele>88.408</ele>
        <time>2019-06-16T19:39:52Z</time>
      </trkpt>
      <trkpt lat="43.395282" lon="-4.351110">
        <ele>88.067</ele>
        <time>2019-06-16T19:39:53Z</time>
      </trkpt>
      <trkpt lat="43.395287" lon="-4.351212">
        <ele>87.051</ele>
        <time>2019-06-16T19:39:54Z</time>
      </trkpt>
      <trkpt lat="43.395304" lon="-4.351315">
        <ele>86.141</ele>
        <time>2019-06-16T19:39:55Z</time>
      </trkpt>
      <trkpt lat="43.395313" lon="-4.351414">
        <ele>85.335</ele>
        <time>2019-06-16T19:39:56Z</time>
      </trkpt>
      <trkpt lat="43.395337" lon="-4.351477">
        <ele>85.244</ele>
        <time>2019-06-16T19:39:57Z</time>
      </trkpt>
      <trkpt lat="43.395347" lon="-4.351547">
        <ele>84.914</ele>
        <time>2019-06-16T19:39:58Z</time>
      </trkpt>
      <trkpt lat="43.395358" lon="-4.351660">
        <ele>84.270</ele>
        <time>2019-06-16T19:40:00Z</time>
      </trkpt>
      <trkpt lat="43.395360" lon="-4.351726">
        <ele>83.799</ele>
        <time>2019-06-16T19:40:01Z</time>
      </trkpt>
      <trkpt lat="43.395357" lon="-4.351836">
        <ele>82.747</ele>
        <time>2019-06-16T19:40:03Z</time>
      </trkpt>
      <trkpt lat="43.395366" lon="-4.351900">
        <ele>82.329</ele>
        <time>2019-06-16T19:40:05Z</time>
      </trkpt>
      <trkpt lat="43.395328" lon="-4.351938">
        <ele>81.121</ele>
        <time>2019-06-16T19:40:21Z</time>
      </trkpt>
      <trkpt lat="43.395318" lon="-4.352031">
        <ele>80.208</ele>
        <time>2019-06-16T19:42:40Z</time>
      </trkpt>
      <trkpt lat="43.395301" lon="-4.352118">
        <ele>79.167</ele>
        <time>2019-06-16T19:42:41Z</time>
      </trkpt>
      <trkpt lat="43.395288" lon="-4.352224">
        <ele>78.171</ele>
        <time>2019-06-16T19:42:42Z</time>
      </trkpt>
      <trkpt lat="43.395272" lon="-4.352350">
        <ele>77.091</ele>
        <time>2019-06-16T19:42:43Z</time>
      </trkpt>
      <trkpt lat="43.395250" lon="-4.352488">
        <ele>75.925</ele>
        <time>2019-06-16T19:42:44Z</time>
      </trkpt>
      <trkpt lat="43.395227" lon="-4.352617">
        <ele>74.924</ele>
        <time>2019-06-16T19:42:45Z</time>
      </trkpt>
      <trkpt lat="43.395196" lon="-4.352746">
        <ele>73.974</ele>
        <time>2019-06-16T19:42:46Z</time>
      </trkpt>
      <trkpt lat="43.395156" lon="-4.352867">
        <ele>73.240</ele>
        <time>2019-06-16T19:42:47Z</time>
      </trkpt>
      <trkpt lat="43.395117" lon="-4.352993">
        <ele>72.869</ele>
        <time>2019-06-16T19:42:48Z</time>
      </trkpt>
      <trkpt lat="43.395065" lon="-4.353117">
        <ele>72.884</ele>
        <time>2019-06-16T19:42:49Z</time>
      </trkpt>
      <trkpt lat="43.395015" lon="-4.353248">
        <ele>72.907</ele>
        <time>2019-06-16T19:42:50Z</time>
      </trkpt>
      <trkpt lat="43.394954" lon="-4.353377">
        <ele>72.317</ele>
        <time>2019-06-16T19:42:51Z</time>
      </trkpt>
      <trkpt lat="43.394899" lon="-4.353496">
        <ele>71.508</ele>
        <time>2019-06-16T19:42:52Z</time>
      </trkpt>
      <trkpt lat="43.394845" lon="-4.353620">
        <ele>70.831</ele>
        <time>2019-06-16T19:42:53Z</time>
      </trkpt>
      <trkpt lat="43.394782" lon="-4.353742">
        <ele>70.255</ele>
        <time>2019-06-16T19:42:54Z</time>
      </trkpt>
      <trkpt lat="43.394726" lon="-4.353877">
        <ele>70.025</ele>
        <time>2019-06-16T19:42:55Z</time>
      </trkpt>
      <trkpt lat="43.394665" lon="-4.354018">
        <ele>69.239</ele>
        <time>2019-06-16T19:42:56Z</time>
      </trkpt>
      <trkpt lat="43.394604" lon="-4.354154">
        <ele>68.328</ele>
        <time>2019-06-16T19:42:57Z</time>
      </trkpt>
      <trkpt lat="43.394545" lon="-4.354287">
        <ele>67.788</ele>
        <time>2019-06-16T19:42:58Z</time>
      </trkpt>
      <trkpt lat="43.394481" lon="-4.354433">
        <ele>67.474</ele>
        <time>2019-06-16T19:42:59Z</time>
      </trkpt>
      <trkpt lat="43.394416" lon="-4.354567">
        <ele>66.693</ele>
        <time>2019-06-16T19:43:00Z</time>
      </trkpt>
      <trkpt lat="43.394357" lon="-4.354700">
        <ele>66.084</ele>
        <time>2019-06-16T19:43:01Z</time>
      </trkpt>
      <trkpt lat="43.394293" lon="-4.354830">
        <ele>65.507</ele>
        <time>2019-06-16T19:43:02Z</time>
      </trkpt>
      <trkpt lat="43.394235" lon="-4.354956">
        <ele>64.917</ele>
        <time>2019-06-16T19:43:03Z</time>
      </trkpt>
      <trkpt lat="43.394166" lon="-4.355088">
        <ele>64.008</ele>
        <time>2019-06-16T19:43:04Z</time>
      </trkpt>
      <trkpt lat="43.394087" lon="-4.355218">
        <ele>63.171</ele>
        <time>2019-06-16T19:43:05Z</time>
      </trkpt>
      <trkpt lat="43.394013" lon="-4.355339">
        <ele>62.675</ele>
        <time>2019-06-16T19:43:06Z</time>
      </trkpt>
      <trkpt lat="43.393930" lon="-4.355449">
        <ele>62.155</ele>
        <time>2019-06-16T19:43:07Z</time>
      </trkpt>
      <trkpt lat="43.393832" lon="-4.355550">
        <ele>61.289</ele>
        <time>2019-06-16T19:43:08Z</time>
      </trkpt>
      <trkpt lat="43.393731" lon="-4.355641">
        <ele>60.228</ele>
        <time>2019-06-16T19:43:09Z</time>
      </trkpt>
      <trkpt lat="43.393643" lon="-4.355734">
        <ele>59.728</ele>
        <time>2019-06-16T19:43:10Z</time>
      </trkpt>
      <trkpt lat="43.393550" lon="-4.355822">
        <ele>59.224</ele>
        <time>2019-06-16T19:43:11Z</time>
      </trkpt>
      <trkpt lat="43.393457" lon="-4.355915">
        <ele>58.573</ele>
        <time>2019-06-16T19:43:12Z</time>
      </trkpt>
      <trkpt lat="43.393366" lon="-4.356017">
        <ele>57.939</ele>
        <time>2019-06-16T19:43:13Z</time>
      </trkpt>
      <trkpt lat="43.393292" lon="-4.356124">
        <ele>57.401</ele>
        <time>2019-06-16T19:43:14Z</time>
      </trkpt>
      <trkpt lat="43.393222" lon="-4.356228">
        <ele>56.921</ele>
        <time>2019-06-16T19:43:15Z</time>
      </trkpt>
      <trkpt lat="43.393158" lon="-4.356321">
        <ele>56.908</ele>
        <time>2019-06-16T19:43:16Z</time>
      </trkpt>
      <trkpt lat="43.393102" lon="-4.356425">
        <ele>57.256</ele>
        <time>2019-06-16T19:43:17Z</time>
      </trkpt>
      <trkpt lat="43.393041" lon="-4.356519">
        <ele>57.490</ele>
        <time>2019-06-16T19:43:18Z</time>
      </trkpt>
      <trkpt lat="43.392984" lon="-4.356619">
        <ele>57.330</ele>
        <time>2019-06-16T19:43:19Z</time>
      </trkpt>
      <trkpt lat="43.392941" lon="-4.356724">
        <ele>57.374</ele>
        <time>2019-06-16T19:43:20Z</time>
      </trkpt>
      <trkpt lat="43.392914" lon="-4.356837">
        <ele>57.663</ele>
        <time>2019-06-16T19:43:21Z</time>
      </trkpt>
      <trkpt lat="43.392898" lon="-4.356961">
        <ele>58.083</ele>
        <time>2019-06-16T19:43:22Z</time>
      </trkpt>
      <trkpt lat="43.392903" lon="-4.357075">
        <ele>58.319</ele>
        <time>2019-06-16T19:43:23Z</time>
      </trkpt>
      <trkpt lat="43.392902" lon="-4.357221">
        <ele>58.598</ele>
        <time>2019-06-16T19:43:24Z</time>
      </trkpt>
      <trkpt lat="43.392891" lon="-4.357354">
        <ele>58.927</ele>
        <time>2019-06-16T19:43:25Z</time>
      </trkpt>
      <trkpt lat="43.392889" lon="-4.357485">
        <ele>59.268</ele>
        <time>2019-06-16T19:43:26Z</time>
      </trkpt>
      <trkpt lat="43.392889" lon="-4.357601">
        <ele>59.114</ele>
        <time>2019-06-16T19:43:27Z</time>
      </trkpt>
      <trkpt lat="43.392888" lon="-4.357715">
        <ele>58.908</ele>
        <time>2019-06-16T19:43:28Z</time>
      </trkpt>
      <trkpt lat="43.392883" lon="-4.357837">
        <ele>58.815</ele>
        <time>2019-06-16T19:43:29Z</time>
      </trkpt>
      <trkpt lat="43.392891" lon="-4.357973">
        <ele>58.599</ele>
        <time>2019-06-16T19:43:30Z</time>
      </trkpt>
      <trkpt lat="43.392913" lon="-4.358091">
        <ele>58.019</ele>
        <time>2019-06-16T19:43:31Z</time>
      </trkpt>
      <trkpt lat="43.392938" lon="-4.358213">
        <ele>57.523</ele>
        <time>2019-06-16T19:43:32Z</time>
      </trkpt>
      <trkpt lat="43.392967" lon="-4.358337">
        <ele>56.992</ele>
        <time>2019-06-16T19:43:33Z</time>
      </trkpt>
      <trkpt lat="43.392994" lon="-4.358468">
        <ele>55.732</ele>
        <time>2019-06-16T19:43:34Z</time>
      </trkpt>
      <trkpt lat="43.393025" lon="-4.358593">
        <ele>54.558</ele>
        <time>2019-06-16T19:43:35Z</time>
      </trkpt>
      <trkpt lat="43.393058" lon="-4.358726">
        <ele>53.177</ele>
        <time>2019-06-16T19:43:36Z</time>
      </trkpt>
      <trkpt lat="43.393097" lon="-4.358850">
        <ele>51.682</ele>
        <time>2019-06-16T19:43:37Z</time>
      </trkpt>
      <trkpt lat="43.393145" lon="-4.358977">
        <ele>50.243</ele>
        <time>2019-06-16T19:43:38Z</time>
      </trkpt>
      <trkpt lat="43.393197" lon="-4.359106">
        <ele>49.117</ele>
        <time>2019-06-16T19:43:39Z</time>
      </trkpt>
      <trkpt lat="43.393256" lon="-4.359227">
        <ele>48.008</ele>
        <time>2019-06-16T19:43:40Z</time>
      </trkpt>
      <trkpt lat="43.393315" lon="-4.359344">
        <ele>47.241</ele>
        <time>2019-06-16T19:43:41Z</time>
      </trkpt>
      <trkpt lat="43.393372" lon="-4.359466">
        <ele>46.295</ele>
        <time>2019-06-16T19:43:42Z</time>
      </trkpt>
      <trkpt lat="43.393429" lon="-4.359596">
        <ele>45.175</ele>
        <time>2019-06-16T19:43:43Z</time>
      </trkpt>
      <trkpt lat="43.393481" lon="-4.359728">
        <ele>44.469</ele>
        <time>2019-06-16T19:43:44Z</time>
      </trkpt>
      <trkpt lat="43.393534" lon="-4.359866">
        <ele>43.528</ele>
        <time>2019-06-16T19:43:45Z</time>
      </trkpt>
      <trkpt lat="43.393579" lon="-4.360011">
        <ele>43.088</ele>
        <time>2019-06-16T19:43:46Z</time>
      </trkpt>
      <trkpt lat="43.393615" lon="-4.360172">
        <ele>41.774</ele>
        <time>2019-06-16T19:43:47Z</time>
      </trkpt>
      <trkpt lat="43.393644" lon="-4.360342">
        <ele>40.853</ele>
        <time>2019-06-16T19:43:48Z</time>
      </trkpt>
      <trkpt lat="43.393663" lon="-4.360510">
        <ele>40.543</ele>
        <time>2019-06-16T19:43:49Z</time>
      </trkpt>
      <trkpt lat="43.393675" lon="-4.360668">
        <ele>39.564</ele>
        <time>2019-06-16T19:43:50Z</time>
      </trkpt>
      <trkpt lat="43.393679" lon="-4.360819">
        <ele>38.410</ele>
        <time>2019-06-16T19:43:51Z</time>
      </trkpt>
      <trkpt lat="43.393687" lon="-4.360971">
        <ele>37.708</ele>
        <time>2019-06-16T19:43:52Z</time>
      </trkpt>
      <trkpt lat="43.393700" lon="-4.361126">
        <ele>37.077</ele>
        <time>2019-06-16T19:43:53Z</time>
      </trkpt>
      <trkpt lat="43.393712" lon="-4.361277">
        <ele>35.961</ele>
        <time>2019-06-16T19:43:54Z</time>
      </trkpt>
      <trkpt lat="43.393720" lon="-4.361422">
        <ele>35.111</ele>
        <time>2019-06-16T19:43:55Z</time>
      </trkpt>
      <trkpt lat="43.393721" lon="-4.361566">
        <ele>34.675</ele>
        <time>2019-06-16T19:43:56Z</time>
      </trkpt>
      <trkpt lat="43.393725" lon="-4.361710">
        <ele>33.914</ele>
        <time>2019-06-16T19:43:57Z</time>
      </trkpt>
      <trkpt lat="43.393704" lon="-4.361846">
        <ele>33.344</ele>
        <time>2019-06-16T19:43:58Z</time>
      </trkpt>
      <trkpt lat="43.393685" lon="-4.361981">
        <ele>32.660</ele>
        <time>2019-06-16T19:43:59Z</time>
      </trkpt>
      <trkpt lat="43.393669" lon="-4.362116">
        <ele>32.259</ele>
        <time>2019-06-16T19:44:00Z</time>
      </trkpt>
      <trkpt lat="43.393661" lon="-4.362238">
        <ele>31.778</ele>
        <time>2019-06-16T19:44:01Z</time>
      </trkpt>
      <trkpt lat="43.393640" lon="-4.362370">
        <ele>30.833</ele>
        <time>2019-06-16T19:44:02Z</time>
      </trkpt>
      <trkpt lat="43.393619" lon="-4.362499">
        <ele>30.026</ele>
        <time>2019-06-16T19:44:03Z</time>
      </trkpt>
      <trkpt lat="43.393600" lon="-4.362636">
        <ele>29.608</ele>
        <time>2019-06-16T19:44:04Z</time>
      </trkpt>
      <trkpt lat="43.393580" lon="-4.362777">
        <ele>29.170</ele>
        <time>2019-06-16T19:44:05Z</time>
      </trkpt>
      <trkpt lat="43.393562" lon="-4.362914">
        <ele>28.264</ele>
        <time>2019-06-16T19:44:06Z</time>
      </trkpt>
      <trkpt lat="43.393541" lon="-4.363053">
        <ele>27.354</ele>
        <time>2019-06-16T19:44:07Z</time>
      </trkpt>
      <trkpt lat="43.393523" lon="-4.363183">
        <ele>26.948</ele>
        <time>2019-06-16T19:44:08Z</time>
      </trkpt>
      <trkpt lat="43.393504" lon="-4.363314">
        <ele>26.587</ele>
        <time>2019-06-16T19:44:09Z</time>
      </trkpt>
      <trkpt lat="43.393486" lon="-4.363457">
        <ele>25.837</ele>
        <time>2019-06-16T19:44:10Z</time>
      </trkpt>
      <trkpt lat="43.393472" lon="-4.363593">
        <ele>25.123</ele>
        <time>2019-06-16T19:44:11Z</time>
      </trkpt>
      <trkpt lat="43.393449" lon="-4.363734">
        <ele>24.562</ele>
        <time>2019-06-16T19:44:12Z</time>
      </trkpt>
      <trkpt lat="43.393431" lon="-4.363866">
        <ele>23.854</ele>
        <time>2019-06-16T19:44:13Z</time>
      </trkpt>
      <trkpt lat="43.393413" lon="-4.363988">
        <ele>23.356</ele>
        <time>2019-06-16T19:44:14Z</time>
      </trkpt>
      <trkpt lat="43.393385" lon="-4.364134">
        <ele>22.811</ele>
        <time>2019-06-16T19:44:15Z</time>
      </trkpt>
      <trkpt lat="43.393365" lon="-4.364273">
        <ele>22.308</ele>
        <time>2019-06-16T19:44:16Z</time>
      </trkpt>
      <trkpt lat="43.393336" lon="-4.364415">
        <ele>22.158</ele>
        <time>2019-06-16T19:44:17Z</time>
      </trkpt>
      <trkpt lat="43.393305" lon="-4.364556">
        <ele>21.322</ele>
        <time>2019-06-16T19:44:18Z</time>
      </trkpt>
      <trkpt lat="43.393285" lon="-4.364699">
        <ele>20.562</ele>
        <time>2019-06-16T19:44:19Z</time>
      </trkpt>
      <trkpt lat="43.393252" lon="-4.364832">
        <ele>20.226</ele>
        <time>2019-06-16T19:44:20Z</time>
      </trkpt>
      <trkpt lat="43.393230" lon="-4.364972">
        <ele>19.845</ele>
        <time>2019-06-16T19:44:21Z</time>
      </trkpt>
      <trkpt lat="43.393203" lon="-4.365116">
        <ele>19.345</ele>
        <time>2019-06-16T19:44:22Z</time>
      </trkpt>
      <trkpt lat="43.393169" lon="-4.365252">
        <ele>18.971</ele>
        <time>2019-06-16T19:44:23Z</time>
      </trkpt>
      <trkpt lat="43.393126" lon="-4.365379">
        <ele>18.850</ele>
        <time>2019-06-16T19:44:24Z</time>
      </trkpt>
      <trkpt lat="43.393087" lon="-4.365505">
        <ele>18.823</ele>
        <time>2019-06-16T19:44:25Z</time>
      </trkpt>
      <trkpt lat="43.393062" lon="-4.365628">
        <ele>18.483</ele>
        <time>2019-06-16T19:44:26Z</time>
      </trkpt>
      <trkpt lat="43.393030" lon="-4.365749">
        <ele>17.611</ele>
        <time>2019-06-16T19:44:27Z</time>
      </trkpt>
      <trkpt lat="43.393003" lon="-4.365858">
        <ele>17.008</ele>
        <time>2019-06-16T19:44:28Z</time>
      </trkpt>
      <trkpt lat="43.392976" lon="-4.365957">
        <ele>16.245</ele>
        <time>2019-06-16T19:44:29Z</time>
      </trkpt>
      <trkpt lat="43.392950" lon="-4.366046">
        <ele>15.759</ele>
        <time>2019-06-16T19:44:30Z</time>
      </trkpt>
      <trkpt lat="43.392913" lon="-4.366119">
        <ele>15.469</ele>
        <time>2019-06-16T19:44:31Z</time>
      </trkpt>
      <trkpt lat="43.392892" lon="-4.366179">
        <ele>14.853</ele>
        <time>2019-06-16T19:44:32Z</time>
      </trkpt>
      <trkpt lat="43.392857" lon="-4.366239">
        <ele>14.532</ele>
        <time>2019-06-16T19:44:33Z</time>
      </trkpt>
      <trkpt lat="43.392822" lon="-4.366300">
        <ele>14.342</ele>
        <time>2019-06-16T19:44:34Z</time>
      </trkpt>
      <trkpt lat="43.392774" lon="-4.366359">
        <ele>14.328</ele>
        <time>2019-06-16T19:44:35Z</time>
      </trkpt>
      <trkpt lat="43.392721" lon="-4.366422">
        <ele>12.947</ele>
        <time>2019-06-16T19:44:36Z</time>
      </trkpt>
      <trkpt lat="43.392666" lon="-4.366480">
        <ele>11.521</ele>
        <time>2019-06-16T19:44:37Z</time>
      </trkpt>
      <trkpt lat="43.392580" lon="-4.366541">
        <ele>10.141</ele>
        <time>2019-06-16T19:44:38Z</time>
      </trkpt>
      <trkpt lat="43.392498" lon="-4.366585">
        <ele>9.205</ele>
        <time>2019-06-16T19:44:39Z</time>
      </trkpt>
      <trkpt lat="43.392407" lon="-4.366619">
        <ele>8.208</ele>
        <time>2019-06-16T19:44:40Z</time>
      </trkpt>
      <trkpt lat="43.392325" lon="-4.366627">
        <ele>7.745</ele>
        <time>2019-06-16T19:44:41Z</time>
      </trkpt>
      <trkpt lat="43.392220" lon="-4.366665">
        <ele>7.059</ele>
        <time>2019-06-16T19:44:42Z</time>
      </trkpt>
      <trkpt lat="43.392117" lon="-4.366718">
        <ele>6.929</ele>
        <time>2019-06-16T19:44:43Z</time>
      </trkpt>
      <trkpt lat="43.392018" lon="-4.366779">
        <ele>6.953</ele>
        <time>2019-06-16T19:44:44Z</time>
      </trkpt>
      <trkpt lat="43.391920" lon="-4.366832">
        <ele>7.172</ele>
        <time>2019-06-16T19:44:45Z</time>
      </trkpt>
      <trkpt lat="43.391828" lon="-4.366878">
        <ele>7.322</ele>
        <time>2019-06-16T19:44:46Z</time>
      </trkpt>
      <trkpt lat="43.391736" lon="-4.366938">
        <ele>7.768</ele>
        <time>2019-06-16T19:44:47Z</time>
      </trkpt>
      <trkpt lat="43.391659" lon="-4.367013">
        <ele>8.377</ele>
        <time>2019-06-16T19:44:48Z</time>
      </trkpt>
      <trkpt lat="43.391595" lon="-4.367105">
        <ele>9.266</ele>
        <time>2019-06-16T19:44:49Z</time>
      </trkpt>
      <trkpt lat="43.391551" lon="-4.367219">
        <ele>10.229</ele>
        <time>2019-06-16T19:44:50Z</time>
      </trkpt>
      <trkpt lat="43.391523" lon="-4.367334">
        <ele>11.621</ele>
        <time>2019-06-16T19:44:51Z</time>
      </trkpt>
      <trkpt lat="43.391550" lon="-4.367494">
        <ele>12.608</ele>
        <time>2019-06-16T19:44:52Z</time>
      </trkpt>
      <trkpt lat="43.391578" lon="-4.367641">
        <ele>13.669</ele>
        <time>2019-06-16T19:44:53Z</time>
      </trkpt>
      <trkpt lat="43.391616" lon="-4.367782">
        <ele>14.243</ele>
        <time>2019-06-16T19:44:54Z</time>
      </trkpt>
      <trkpt lat="43.391645" lon="-4.367912">
        <ele>15.463</ele>
        <time>2019-06-16T19:44:55Z</time>
      </trkpt>
      <trkpt lat="43.391675" lon="-4.368034">
        <ele>16.667</ele>
        <time>2019-06-16T19:44:56Z</time>
      </trkpt>
      <trkpt lat="43.391699" lon="-4.368170">
        <ele>17.986</ele>
        <time>2019-06-16T19:44:57Z</time>
      </trkpt>
      <trkpt lat="43.391716" lon="-4.368304">
        <ele>19.166</ele>
        <time>2019-06-16T19:44:58Z</time>
      </trkpt>
      <trkpt lat="43.391707" lon="-4.368441">
        <ele>20.252</ele>
        <time>2019-06-16T19:44:59Z</time>
      </trkpt>
      <trkpt lat="43.391690" lon="-4.368576">
        <ele>21.371</ele>
        <time>2019-06-16T19:45:00Z</time>
      </trkpt>
      <trkpt lat="43.391640" lon="-4.368700">
        <ele>22.599</ele>
        <time>2019-06-16T19:45:01Z</time>
      </trkpt>
      <trkpt lat="43.391576" lon="-4.368817">
        <ele>23.607</ele>
        <time>2019-06-16T19:45:02Z</time>
      </trkpt>
      <trkpt lat="43.391499" lon="-4.368917">
        <ele>24.927</ele>
        <time>2019-06-16T19:45:03Z</time>
      </trkpt>
      <trkpt lat="43.391422" lon="-4.369012">
        <ele>25.908</ele>
        <time>2019-06-16T19:45:04Z</time>
      </trkpt>
      <trkpt lat="43.391347" lon="-4.369109">
        <ele>26.842</ele>
        <time>2019-06-16T19:45:05Z</time>
      </trkpt>
      <trkpt lat="43.391278" lon="-4.369208">
        <ele>27.436</ele>
        <time>2019-06-16T19:45:06Z</time>
      </trkpt>
      <trkpt lat="43.391208" lon="-4.369295">
        <ele>28.166</ele>
        <time>2019-06-16T19:45:07Z</time>
      </trkpt>
      <trkpt lat="43.391139" lon="-4.369376">
        <ele>28.830</ele>
        <time>2019-06-16T19:45:08Z</time>
      </trkpt>
      <trkpt lat="43.391062" lon="-4.369453">
        <ele>29.719</ele>
        <time>2019-06-16T19:45:09Z</time>
      </trkpt>
      <trkpt lat="43.390973" lon="-4.369515">
        <ele>31.019</ele>
        <time>2019-06-16T19:45:10Z</time>
      </trkpt>
      <trkpt lat="43.390876" lon="-4.369572">
        <ele>32.415</ele>
        <time>2019-06-16T19:45:11Z</time>
      </trkpt>
      <trkpt lat="43.390786" lon="-4.369557">
        <ele>32.514</ele>
        <time>2019-06-16T19:45:12Z</time>
      </trkpt>
      <trkpt lat="43.390692" lon="-4.369537">
        <ele>31.676</ele>
        <time>2019-06-16T19:45:13Z</time>
      </trkpt>
      <trkpt lat="43.390612" lon="-4.369484">
        <ele>31.290</ele>
        <time>2019-06-16T19:45:14Z</time>
      </trkpt>
      <trkpt lat="43.390530" lon="-4.369444">
        <ele>30.719</ele>
        <time>2019-06-16T19:45:15Z</time>
      </trkpt>
      <trkpt lat="43.390449" lon="-4.369410">
        <ele>30.408</ele>
        <time>2019-06-16T19:45:16Z</time>
      </trkpt>
      <trkpt lat="43.390369" lon="-4.369372">
        <ele>30.280</ele>
        <time>2019-06-16T19:45:17Z</time>
      </trkpt>
      <trkpt lat="43.390288" lon="-4.369362">
        <ele>29.644</ele>
        <time>2019-06-16T19:45:18Z</time>
      </trkpt>
      <trkpt lat="43.390196" lon="-4.369400">
        <ele>29.314</ele>
        <time>2019-06-16T19:45:19Z</time>
      </trkpt>
      <trkpt lat="43.390136" lon="-4.369448">
        <ele>29.058</ele>
        <time>2019-06-16T19:45:20Z</time>
      </trkpt>
      <trkpt lat="43.390079" lon="-4.369517">
        <ele>28.627</ele>
        <time>2019-06-16T19:45:21Z</time>
      </trkpt>
      <trkpt lat="43.390034" lon="-4.369610">
        <ele>27.947</ele>
        <time>2019-06-16T19:45:22Z</time>
      </trkpt>
      <trkpt lat="43.389999" lon="-4.369703">
        <ele>27.283</ele>
        <time>2019-06-16T19:45:23Z</time>
      </trkpt>
      <trkpt lat="43.389988" lon="-4.369813">
        <ele>26.362</ele>
        <time>2019-06-16T19:45:24Z</time>
      </trkpt>
      <trkpt lat="43.389964" lon="-4.369920">
        <ele>25.669</ele>
        <time>2019-06-16T19:45:25Z</time>
      </trkpt>
      <trkpt lat="43.389946" lon="-4.370000">
        <ele>25.204</ele>
        <time>2019-06-16T19:45:26Z</time>
      </trkpt>
      <trkpt lat="43.389926" lon="-4.370144">
        <ele>23.524</ele>
        <time>2019-06-16T19:45:27Z</time>
      </trkpt>
      <trkpt lat="43.389899" lon="-4.370291">
        <ele>22.008</ele>
        <time>2019-06-16T19:45:28Z</time>
      </trkpt>
      <trkpt lat="43.389851" lon="-4.370420">
        <ele>21.189</ele>
        <time>2019-06-16T19:45:29Z</time>
      </trkpt>
      <trkpt lat="43.389801" lon="-4.370543">
        <ele>20.133</ele>
        <time>2019-06-16T19:45:30Z</time>
      </trkpt>
      <trkpt lat="43.389729" lon="-4.370637">
        <ele>19.243</ele>
        <time>2019-06-16T19:45:31Z</time>
      </trkpt>
      <trkpt lat="43.389661" lon="-4.370731">
        <ele>17.457</ele>
        <time>2019-06-16T19:45:32Z</time>
      </trkpt>
      <trkpt lat="43.389572" lon="-4.370811">
        <ele>16.016</ele>
        <time>2019-06-16T19:45:33Z</time>
      </trkpt>
      <trkpt lat="43.389487" lon="-4.370901">
        <ele>14.936</ele>
        <time>2019-06-16T19:45:34Z</time>
      </trkpt>
      <trkpt lat="43.389400" lon="-4.370964">
        <ele>14.062</ele>
        <time>2019-06-16T19:45:35Z</time>
      </trkpt>
      <trkpt lat="43.389317" lon="-4.371040">
        <ele>12.621</ele>
        <time>2019-06-16T19:45:36Z</time>
      </trkpt>
      <trkpt lat="43.389239" lon="-4.371104">
        <ele>11.411</ele>
        <time>2019-06-16T19:45:37Z</time>
      </trkpt>
      <trkpt lat="43.389179" lon="-4.371171">
        <ele>10.221</ele>
        <time>2019-06-16T19:45:38Z</time>
      </trkpt>
      <trkpt lat="43.389109" lon="-4.371212">
        <ele>10.003</ele>
        <time>2019-06-16T19:45:40Z</time>
      </trkpt>
      <trkpt lat="43.389036" lon="-4.371251">
        <ele>9.908</ele>
        <time>2019-06-16T19:45:42Z</time>
      </trkpt>
      <trkpt lat="43.388995" lon="-4.371287">
        <ele>9.764</ele>
        <time>2019-06-16T19:45:43Z</time>
      </trkpt>
      <trkpt lat="43.388991" lon="-4.371364">
        <ele>8.668</ele>
        <time>2019-06-16T19:45:46Z</time>
      </trkpt>
      <trkpt lat="43.388969" lon="-4.371443">
        <ele>7.998</ele>
        <time>2019-06-16T19:46:47Z</time>
      </trkpt>
      <trkpt lat="43.388963" lon="-4.371521">
        <ele>7.222</ele>
        <time>2019-06-16T19:46:49Z</time>
      </trkpt>
      <trkpt lat="43.388959" lon="-4.371609">
        <ele>6.371</ele>
        <time>2019-06-16T19:46:50Z</time>
      </trkpt>
      <trkpt lat="43.388958" lon="-4.371718">
        <ele>5.661</ele>
        <time>2019-06-16T19:46:51Z</time>
      </trkpt>
      <trkpt lat="43.388947" lon="-4.371839">
        <ele>5.317</ele>
        <time>2019-06-16T19:46:52Z</time>
      </trkpt>
      <trkpt lat="43.388934" lon="-4.371970">
        <ele>5.036</ele>
        <time>2019-06-16T19:46:53Z</time>
      </trkpt>
      <trkpt lat="43.388929" lon="-4.372115">
        <ele>5.014</ele>
        <time>2019-06-16T19:46:54Z</time>
      </trkpt>
      <trkpt lat="43.388927" lon="-4.372255">
        <ele>5.054</ele>
        <time>2019-06-16T19:46:55Z</time>
      </trkpt>
      <trkpt lat="43.388937" lon="-4.372387">
        <ele>5.009</ele>
        <time>2019-06-16T19:46:56Z</time>
      </trkpt>
      <trkpt lat="43.388940" lon="-4.372502">
        <ele>5.008</ele>
        <time>2019-06-16T19:46:57Z</time>
      </trkpt>
      <trkpt lat="43.388969" lon="-4.372616">
        <ele>5.074</ele>
        <time>2019-06-16T19:46:58Z</time>
      </trkpt>
      <trkpt lat="43.389011" lon="-4.372700">
        <ele>5.048</ele>
        <time>2019-06-16T19:46:59Z</time>
      </trkpt>
      <trkpt lat="43.389072" lon="-4.372775">
        <ele>5.098</ele>
        <time>2019-06-16T19:47:00Z</time>
      </trkpt>
      <trkpt lat="43.389144" lon="-4.372846">
        <ele>5.012</ele>
        <time>2019-06-16T19:47:01Z</time>
      </trkpt>
      <trkpt lat="43.389228" lon="-4.372897">
        <ele>5.011</ele>
        <time>2019-06-16T19:47:02Z</time>
      </trkpt>
      <trkpt lat="43.389322" lon="-4.372965">
        <ele>5.021</ele>
        <time>2019-06-16T19:47:03Z</time>
      </trkpt>
      <trkpt lat="43.389414" lon="-4.373039">
        <ele>5.027</ele>
        <time>2019-06-16T19:47:04Z</time>
      </trkpt>
      <trkpt lat="43.389507" lon="-4.373124">
        <ele>4.896</ele>
        <time>2019-06-16T19:47:05Z</time>
      </trkpt>
      <trkpt lat="43.389599" lon="-4.373232">
        <ele>4.753</ele>
        <time>2019-06-16T19:47:06Z</time>
      </trkpt>
      <trkpt lat="43.389674" lon="-4.373353">
        <ele>4.904</ele>
        <time>2019-06-16T19:47:07Z</time>
      </trkpt>
      <trkpt lat="43.389738" lon="-4.373509">
        <ele>5.614</ele>
        <time>2019-06-16T19:47:08Z</time>
      </trkpt>
      <trkpt lat="43.389799" lon="-4.373683">
        <ele>5.908</ele>
        <time>2019-06-16T19:47:09Z</time>
      </trkpt>
      <trkpt lat="43.389858" lon="-4.373864">
        <ele>6.438</ele>
        <time>2019-06-16T19:47:10Z</time>
      </trkpt>
      <trkpt lat="43.389914" lon="-4.374052">
        <ele>7.532</ele>
        <time>2019-06-16T19:47:11Z</time>
      </trkpt>
      <trkpt lat="43.389976" lon="-4.374237">
        <ele>9.082</ele>
        <time>2019-06-16T19:47:12Z</time>
      </trkpt>
      <trkpt lat="43.390026" lon="-4.374418">
        <ele>9.576</ele>
        <time>2019-06-16T19:47:13Z</time>
      </trkpt>
      <trkpt lat="43.390082" lon="-4.374590">
        <ele>10.065</ele>
        <time>2019-06-16T19:47:14Z</time>
      </trkpt>
      <trkpt lat="43.390133" lon="-4.374757">
        <ele>10.985</ele>
        <time>2019-06-16T19:47:15Z</time>
      </trkpt>
      <trkpt lat="43.390176" lon="-4.374928">
        <ele>12.531</ele>
        <time>2019-06-16T19:47:16Z</time>
      </trkpt>
      <trkpt lat="43.390210" lon="-4.375106">
        <ele>14.230</ele>
        <time>2019-06-16T19:47:17Z</time>
      </trkpt>
      <trkpt lat="43.390235" lon="-4.375282">
        <ele>15.941</ele>
        <time>2019-06-16T19:47:18Z</time>
      </trkpt>
      <trkpt lat="43.390244" lon="-4.375452">
        <ele>17.181</ele>
        <time>2019-06-16T19:47:19Z</time>
      </trkpt>
      <trkpt lat="43.390245" lon="-4.375645">
        <ele>18.109</ele>
        <time>2019-06-16T19:47:20Z</time>
      </trkpt>
      <trkpt lat="43.390227" lon="-4.375834">
        <ele>18.608</ele>
        <time>2019-06-16T19:47:21Z</time>
      </trkpt>
      <trkpt lat="43.390184" lon="-4.376020">
        <ele>18.847</ele>
        <time>2019-06-16T19:47:22Z</time>
      </trkpt>
      <trkpt lat="43.390138" lon="-4.376203">
        <ele>19.371</ele>
        <time>2019-06-16T19:47:23Z</time>
      </trkpt>
      <trkpt lat="43.390082" lon="-4.376392">
        <ele>20.411</ele>
        <time>2019-06-16T19:47:24Z</time>
      </trkpt>
      <trkpt lat="43.390012" lon="-4.376574">
        <ele>21.685</ele>
        <time>2019-06-16T19:47:25Z</time>
      </trkpt>
      <trkpt lat="43.389945" lon="-4.376772">
        <ele>22.134</ele>
        <time>2019-06-16T19:47:26Z</time>
      </trkpt>
      <trkpt lat="43.389881" lon="-4.376969">
        <ele>22.494</ele>
        <time>2019-06-16T19:47:27Z</time>
      </trkpt>
      <trkpt lat="43.389807" lon="-4.377162">
        <ele>22.860</ele>
        <time>2019-06-16T19:47:28Z</time>
      </trkpt>
      <trkpt lat="43.389740" lon="-4.377355">
        <ele>23.629</ele>
        <time>2019-06-16T19:47:29Z</time>
      </trkpt>
      <trkpt lat="43.389669" lon="-4.377550">
        <ele>24.659</ele>
        <time>2019-06-16T19:47:30Z</time>
      </trkpt>
      <trkpt lat="43.389594" lon="-4.377740">
        <ele>25.803</ele>
        <time>2019-06-16T19:47:31Z</time>
      </trkpt>
      <trkpt lat="43.389522" lon="-4.377965">
        <ele>27.623</ele>
        <time>2019-06-16T19:47:32Z</time>
      </trkpt>
      <trkpt lat="43.389447" lon="-4.378152">
        <ele>29.608</ele>
        <time>2019-06-16T19:47:33Z</time>
      </trkpt>
      <trkpt lat="43.389376" lon="-4.378339">
        <ele>31.048</ele>
        <time>2019-06-16T19:47:34Z</time>
      </trkpt>
      <trkpt lat="43.389311" lon="-4.378526">
        <ele>32.432</ele>
        <time>2019-06-16T19:47:35Z</time>
      </trkpt>
      <trkpt lat="43.389271" lon="-4.378682">
        <ele>33.232</ele>
        <time>2019-06-16T19:47:36Z</time>
      </trkpt>
      <trkpt lat="43.389215" lon="-4.378831">
        <ele>33.796</ele>
        <time>2019-06-16T19:47:37Z</time>
      </trkpt>
      <trkpt lat="43.389172" lon="-4.378963">
        <ele>34.585</ele>
        <time>2019-06-16T19:47:38Z</time>
      </trkpt>
      <trkpt lat="43.389109" lon="-4.379112">
        <ele>34.815</ele>
        <time>2019-06-16T19:47:39Z</time>
      </trkpt>
      <trkpt lat="43.389037" lon="-4.379269">
        <ele>34.681</ele>
        <time>2019-06-16T19:47:40Z</time>
      </trkpt>
      <trkpt lat="43.388934" lon="-4.379415">
        <ele>34.990</ele>
        <time>2019-06-16T19:47:41Z</time>
      </trkpt>
      <trkpt lat="43.388812" lon="-4.379559">
        <ele>35.549</ele>
        <time>2019-06-16T19:47:42Z</time>
      </trkpt>
      <trkpt lat="43.388675" lon="-4.379668">
        <ele>35.802</ele>
        <time>2019-06-16T19:47:43Z</time>
      </trkpt>
      <trkpt lat="43.388526" lon="-4.379773">
        <ele>36.422</ele>
        <time>2019-06-16T19:47:44Z</time>
      </trkpt>
      <trkpt lat="43.388387" lon="-4.379879">
        <ele>37.308</ele>
        <time>2019-06-16T19:47:45Z</time>
      </trkpt>
      <trkpt lat="43.388248" lon="-4.379993">
        <ele>38.637</ele>
        <time>2019-06-16T19:47:46Z</time>
      </trkpt>
      <trkpt lat="43.388105" lon="-4.380102">
        <ele>40.361</ele>
        <time>2019-06-16T19:47:47Z</time>
      </trkpt>
      <trkpt lat="43.387958" lon="-4.380207">
        <ele>41.851</ele>
        <time>2019-06-16T19:47:48Z</time>
      </trkpt>
      <trkpt lat="43.387808" lon="-4.380316">
        <ele>43.165</ele>
        <time>2019-06-16T19:47:49Z</time>
      </trkpt>
      <trkpt lat="43.387655" lon="-4.380405">
        <ele>44.624</ele>
        <time>2019-06-16T19:47:50Z</time>
      </trkpt>
      <trkpt lat="43.387492" lon="-4.380488">
        <ele>46.334</ele>
        <time>2019-06-16T19:47:51Z</time>
      </trkpt>
      <trkpt lat="43.387326" lon="-4.380552">
        <ele>47.010</ele>
        <time>2019-06-16T19:47:52Z</time>
      </trkpt>
      <trkpt lat="43.387158" lon="-4.380601">
        <ele>47.619</ele>
        <time>2019-06-16T19:47:53Z</time>
      </trkpt>
      <trkpt lat="43.386997" lon="-4.380642">
        <ele>48.927</ele>
        <time>2019-06-16T19:47:54Z</time>
      </trkpt>
      <trkpt lat="43.386833" lon="-4.380666">
        <ele>50.068</ele>
        <time>2019-06-16T19:47:55Z</time>
      </trkpt>
      <trkpt lat="43.386687" lon="-4.380669">
        <ele>50.914</ele>
        <time>2019-06-16T19:47:56Z</time>
      </trkpt>
      <trkpt lat="43.386551" lon="-4.380630">
        <ele>52.208</ele>
        <time>2019-06-16T19:47:57Z</time>
      </trkpt>
      <trkpt lat="43.386415" lon="-4.380596">
        <ele>53.795</ele>
        <time>2019-06-16T19:47:58Z</time>
      </trkpt>
      <trkpt lat="43.386290" lon="-4.380573">
        <ele>55.049</ele>
        <time>2019-06-16T19:47:59Z</time>
      </trkpt>
      <trkpt lat="43.386177" lon="-4.380569">
        <ele>56.229</ele>
        <time>2019-06-16T19:48:00Z</time>
      </trkpt>
      <trkpt lat="43.386076" lon="-4.380594">
        <ele>57.053</ele>
        <time>2019-06-16T19:48:01Z</time>
      </trkpt>
      <trkpt lat="43.385983" lon="-4.380658">
        <ele>57.562</ele>
        <time>2019-06-16T19:48:02Z</time>
      </trkpt>
      <trkpt lat="43.385895" lon="-4.380751">
        <ele>58.232</ele>
        <time>2019-06-16T19:48:03Z</time>
      </trkpt>
      <trkpt lat="43.385832" lon="-4.380866">
        <ele>58.988</ele>
        <time>2019-06-16T19:48:04Z</time>
      </trkpt>
      <trkpt lat="43.385787" lon="-4.380993">
        <ele>58.827</ele>
        <time>2019-06-16T19:48:05Z</time>
      </trkpt>
      <trkpt lat="43.385774" lon="-4.381130">
        <ele>58.695</ele>
        <time>2019-06-16T19:48:06Z</time>
      </trkpt>
      <trkpt lat="43.385752" lon="-4.381247">
        <ele>58.449</ele>
        <time>2019-06-16T19:48:07Z</time>
      </trkpt>
      <trkpt lat="43.385714" lon="-4.381366">
        <ele>58.423</ele>
        <time>2019-06-16T19:48:08Z</time>
      </trkpt>
      <trkpt lat="43.385660" lon="-4.381486">
        <ele>57.808</ele>
        <time>2019-06-16T19:48:09Z</time>
      </trkpt>
      <trkpt lat="43.385593" lon="-4.381608">
        <ele>57.272</ele>
        <time>2019-06-16T19:48:10Z</time>
      </trkpt>
      <trkpt lat="43.385526" lon="-4.381743">
        <ele>56.876</ele>
        <time>2019-06-16T19:48:11Z</time>
      </trkpt>
      <trkpt lat="43.385461" lon="-4.381883">
        <ele>56.736</ele>
        <time>2019-06-16T19:48:12Z</time>
      </trkpt>
      <trkpt lat="43.385385" lon="-4.382020">
        <ele>56.630</ele>
        <time>2019-06-16T19:48:13Z</time>
      </trkpt>
      <trkpt lat="43.385320" lon="-4.382163">
        <ele>56.099</ele>
        <time>2019-06-16T19:48:14Z</time>
      </trkpt>
      <trkpt lat="43.385264" lon="-4.382302">
        <ele>55.329</ele>
        <time>2019-06-16T19:48:15Z</time>
      </trkpt>
      <trkpt lat="43.385203" lon="-4.382444">
        <ele>54.465</ele>
        <time>2019-06-16T19:48:16Z</time>
      </trkpt>
      <trkpt lat="43.385156" lon="-4.382593">
        <ele>53.344</ele>
        <time>2019-06-16T19:48:17Z</time>
      </trkpt>
      <trkpt lat="43.385120" lon="-4.382739">
        <ele>52.131</ele>
        <time>2019-06-16T19:48:18Z</time>
      </trkpt>
      <trkpt lat="43.385078" lon="-4.382875">
        <ele>51.861</ele>
        <time>2019-06-16T19:48:19Z</time>
      </trkpt>
      <trkpt lat="43.385034" lon="-4.383015">
        <ele>51.807</ele>
        <time>2019-06-16T19:48:20Z</time>
      </trkpt>
      <trkpt lat="43.384986" lon="-4.383131">
        <ele>51.108</ele>
        <time>2019-06-16T19:48:21Z</time>
      </trkpt>
      <trkpt lat="43.384937" lon="-4.383240">
        <ele>49.976</ele>
        <time>2019-06-16T19:48:22Z</time>
      </trkpt>
      <trkpt lat="43.384900" lon="-4.383356">
        <ele>48.830</ele>
        <time>2019-06-16T19:48:23Z</time>
      </trkpt>
      <trkpt lat="43.384884" lon="-4.383493">
        <ele>47.940</ele>
        <time>2019-06-16T19:48:24Z</time>
      </trkpt>
      <trkpt lat="43.384879" lon="-4.383634">
        <ele>46.874</ele>
        <time>2019-06-16T19:48:25Z</time>
      </trkpt>
      <trkpt lat="43.384896" lon="-4.383786">
        <ele>45.573</ele>
        <time>2019-06-16T19:48:26Z</time>
      </trkpt>
      <trkpt lat="43.384923" lon="-4.383943">
        <ele>44.533</ele>
        <time>2019-06-16T19:48:27Z</time>
      </trkpt>
      <trkpt lat="43.384949" lon="-4.384111">
        <ele>43.979</ele>
        <time>2019-06-16T19:48:28Z</time>
      </trkpt>
      <trkpt lat="43.384971" lon="-4.384267">
        <ele>43.148</ele>
        <time>2019-06-16T19:48:29Z</time>
      </trkpt>
      <trkpt lat="43.384988" lon="-4.384420">
        <ele>42.183</ele>
        <time>2019-06-16T19:48:30Z</time>
      </trkpt>
      <trkpt lat="43.384991" lon="-4.384602">
        <ele>40.925</ele>
        <time>2019-06-16T19:48:31Z</time>
      </trkpt>
      <trkpt lat="43.384975" lon="-4.384765">
        <ele>39.817</ele>
        <time>2019-06-16T19:48:32Z</time>
      </trkpt>
      <trkpt lat="43.384934" lon="-4.384908">
        <ele>39.308</ele>
        <time>2019-06-16T19:48:33Z</time>
      </trkpt>
      <trkpt lat="43.384900" lon="-4.385072">
        <ele>38.811</ele>
        <time>2019-06-16T19:48:34Z</time>
      </trkpt>
      <trkpt lat="43.384854" lon="-4.385214">
        <ele>38.625</ele>
        <time>2019-06-16T19:48:35Z</time>
      </trkpt>
      <trkpt lat="43.384824" lon="-4.385366">
        <ele>38.815</ele>
        <time>2019-06-16T19:48:36Z</time>
      </trkpt>
      <trkpt lat="43.384804" lon="-4.385510">
        <ele>39.389</ele>
        <time>2019-06-16T19:48:37Z</time>
      </trkpt>
      <trkpt lat="43.384790" lon="-4.385637">
        <ele>39.468</ele>
        <time>2019-06-16T19:48:38Z</time>
      </trkpt>
      <trkpt lat="43.384768" lon="-4.385775">
        <ele>39.518</ele>
        <time>2019-06-16T19:48:39Z</time>
      </trkpt>
      <trkpt lat="43.384734" lon="-4.385914">
        <ele>39.364</ele>
        <time>2019-06-16T19:48:40Z</time>
      </trkpt>
      <trkpt lat="43.384678" lon="-4.386044">
        <ele>38.483</ele>
        <time>2019-06-16T19:48:41Z</time>
      </trkpt>
      <trkpt lat="43.384608" lon="-4.386159">
        <ele>37.683</ele>
        <time>2019-06-16T19:48:42Z</time>
      </trkpt>
      <trkpt lat="43.384537" lon="-4.386281">
        <ele>36.625</ele>
        <time>2019-06-16T19:48:43Z</time>
      </trkpt>
      <trkpt lat="43.384456" lon="-4.386400">
        <ele>35.817</ele>
        <time>2019-06-16T19:48:44Z</time>
      </trkpt>
      <trkpt lat="43.384374" lon="-4.386528">
        <ele>34.408</ele>
        <time>2019-06-16T19:48:45Z</time>
      </trkpt>
      <trkpt lat="43.384308" lon="-4.386673">
        <ele>33.491</ele>
        <time>2019-06-16T19:48:46Z</time>
      </trkpt>
      <trkpt lat="43.384271" lon="-4.386781">
        <ele>32.845</ele>
        <time>2019-06-16T19:48:47Z</time>
      </trkpt>
      <trkpt lat="43.384213" lon="-4.386940">
        <ele>31.935</ele>
        <time>2019-06-16T19:48:48Z</time>
      </trkpt>
      <trkpt lat="43.384163" lon="-4.387093">
        <ele>30.939</ele>
        <time>2019-06-16T19:48:49Z</time>
      </trkpt>
      <trkpt lat="43.384133" lon="-4.387248">
        <ele>29.958</ele>
        <time>2019-06-16T19:48:50Z</time>
      </trkpt>
      <trkpt lat="43.384097" lon="-4.387398">
        <ele>29.158</ele>
        <time>2019-06-16T19:48:51Z</time>
      </trkpt>
      <trkpt lat="43.384063" lon="-4.387545">
        <ele>28.544</ele>
        <time>2019-06-16T19:48:52Z</time>
      </trkpt>
      <trkpt lat="43.384028" lon="-4.387705">
        <ele>27.943</ele>
        <time>2019-06-16T19:48:53Z</time>
      </trkpt>
      <trkpt lat="43.383996" lon="-4.387839">
        <ele>27.576</ele>
        <time>2019-06-16T19:48:54Z</time>
      </trkpt>
      <trkpt lat="43.383959" lon="-4.387962">
        <ele>27.190</ele>
        <time>2019-06-16T19:48:55Z</time>
      </trkpt>
      <trkpt lat="43.383923" lon="-4.388075">
        <ele>26.519</ele>
        <time>2019-06-16T19:48:56Z</time>
      </trkpt>
      <trkpt lat="43.383880" lon="-4.388170">
        <ele>25.308</ele>
        <time>2019-06-16T19:48:57Z</time>
      </trkpt>
      <trkpt lat="43.383798" lon="-4.388235">
        <ele>23.430</ele>
        <time>2019-06-16T19:48:58Z</time>
      </trkpt>
      <trkpt lat="43.383706" lon="-4.388291">
        <ele>21.654</ele>
        <time>2019-06-16T19:48:59Z</time>
      </trkpt>
      <trkpt lat="43.383606" lon="-4.388360">
        <ele>19.344</ele>
        <time>2019-06-16T19:49:00Z</time>
      </trkpt>
      <trkpt lat="43.383510" lon="-4.388410">
        <ele>17.748</ele>
        <time>2019-06-16T19:49:01Z</time>
      </trkpt>
      <trkpt lat="43.383416" lon="-4.388477">
        <ele>16.467</ele>
        <time>2019-06-16T19:49:02Z</time>
      </trkpt>
      <trkpt lat="43.383336" lon="-4.388552">
        <ele>15.647</ele>
        <time>2019-06-16T19:49:03Z</time>
      </trkpt>
      <trkpt lat="43.383243" lon="-4.388635">
        <ele>13.273</ele>
        <time>2019-06-16T19:49:04Z</time>
      </trkpt>
      <trkpt lat="43.383160" lon="-4.388731">
        <ele>10.792</ele>
        <time>2019-06-16T19:49:05Z</time>
      </trkpt>
      <trkpt lat="43.383072" lon="-4.388827">
        <ele>9.471</ele>
        <time>2019-06-16T19:49:06Z</time>
      </trkpt>
      <trkpt lat="43.383002" lon="-4.388920">
        <ele>8.341</ele>
        <time>2019-06-16T19:49:07Z</time>
      </trkpt>
      <trkpt lat="43.382934" lon="-4.389004">
        <ele>7.415</ele>
        <time>2019-06-16T19:49:08Z</time>
      </trkpt>
      <trkpt lat="43.382876" lon="-4.389085">
        <ele>7.008</ele>
        <time>2019-06-16T19:49:09Z</time>
      </trkpt>
      <trkpt lat="43.382842" lon="-4.389166">
        <ele>6.830</ele>
        <time>2019-06-16T19:49:10Z</time>
      </trkpt>
      <trkpt lat="43.382840" lon="-4.389240">
        <ele>6.594</ele>
        <time>2019-06-16T19:49:11Z</time>
      </trkpt>
      <trkpt lat="43.382835" lon="-4.389323">
        <ele>6.234</ele>
        <time>2019-06-16T19:49:12Z</time>
      </trkpt>
      <trkpt lat="43.382877" lon="-4.389386">
        <ele>5.918</ele>
        <time>2019-06-16T19:49:14Z</time>
      </trkpt>
      <trkpt lat="43.382901" lon="-4.389440">
        <ele>5.687</ele>
        <time>2019-06-16T19:49:15Z</time>
      </trkpt>
      <trkpt lat="43.382891" lon="-4.389582">
        <ele>4.747</ele>
        <time>2019-06-16T19:49:17Z</time>
      </trkpt>
      <trkpt lat="43.382864" lon="-4.389670">
        <ele>4.433</ele>
        <time>2019-06-16T19:49:18Z</time>
      </trkpt>
      <trkpt lat="43.382823" lon="-4.389760">
        <ele>4.342</ele>
        <time>2019-06-16T19:49:19Z</time>
      </trkpt>
      <trkpt lat="43.382767" lon="-4.389839">
        <ele>4.279</ele>
        <time>2019-06-16T19:49:20Z</time>
      </trkpt>
      <trkpt lat="43.382701" lon="-4.389908">
        <ele>4.105</ele>
        <time>2019-06-16T19:49:21Z</time>
      </trkpt>
      <trkpt lat="43.382614" lon="-4.389973">
        <ele>4.325</ele>
        <time>2019-06-16T19:49:22Z</time>
      </trkpt>
      <trkpt lat="43.382531" lon="-4.390028">
        <ele>4.608</ele>
        <time>2019-06-16T19:49:23Z</time>
      </trkpt>
      <trkpt lat="43.382452" lon="-4.390084">
        <ele>4.050</ele>
        <time>2019-06-16T19:49:24Z</time>
      </trkpt>
      <trkpt lat="43.382383" lon="-4.390165">
        <ele>3.344</ele>
        <time>2019-06-16T19:49:25Z</time>
      </trkpt>
      <trkpt lat="43.382317" lon="-4.390283">
        <ele>3.014</ele>
        <time>2019-06-16T19:49:26Z</time>
      </trkpt>
      <trkpt lat="43.382262" lon="-4.390430">
        <ele>3.288</ele>
        <time>2019-06-16T19:49:27Z</time>
      </trkpt>
      <trkpt lat="43.382210" lon="-4.390593">
        <ele>3.897</ele>
        <time>2019-06-16T19:49:28Z</time>
      </trkpt>
      <trkpt lat="43.382160" lon="-4.390760">
        <ele>3.357</ele>
        <time>2019-06-16T19:49:29Z</time>
      </trkpt>
      <trkpt lat="43.382121" lon="-4.390966">
        <ele>2.523</ele>
        <time>2019-06-16T19:49:30Z</time>
      </trkpt>
      <trkpt lat="43.382086" lon="-4.391162">
        <ele>1.992</ele>
        <time>2019-06-16T19:49:31Z</time>
      </trkpt>
      <trkpt lat="43.382053" lon="-4.391352">
        <ele>1.757</ele>
        <time>2019-06-16T19:49:32Z</time>
      </trkpt>
      <trkpt lat="43.382019" lon="-4.391542">
        <ele>1.600</ele>
        <time>2019-06-16T19:49:33Z</time>
      </trkpt>
      <trkpt lat="43.381989" lon="-4.391746">
        <ele>1.720</ele>
        <time>2019-06-16T19:49:34Z</time>
      </trkpt>
      <trkpt lat="43.381961" lon="-4.391950">
        <ele>1.908</ele>
        <time>2019-06-16T19:49:35Z</time>
      </trkpt>
      <trkpt lat="43.381939" lon="-4.392160">
        <ele>2.018</ele>
        <time>2019-06-16T19:49:36Z</time>
      </trkpt>
      <trkpt lat="43.381901" lon="-4.392344">
        <ele>1.792</ele>
        <time>2019-06-16T19:49:37Z</time>
      </trkpt>
      <trkpt lat="43.381867" lon="-4.392542">
        <ele>1.552</ele>
        <time>2019-06-16T19:49:38Z</time>
      </trkpt>
      <trkpt lat="43.381834" lon="-4.392739">
        <ele>1.546</ele>
        <time>2019-06-16T19:49:39Z</time>
      </trkpt>
      <trkpt lat="43.381809" lon="-4.392951">
        <ele>1.265</ele>
        <time>2019-06-16T19:49:40Z</time>
      </trkpt>
      <trkpt lat="43.381779" lon="-4.393168">
        <ele>1.075</ele>
        <time>2019-06-16T19:49:41Z</time>
      </trkpt>
      <trkpt lat="43.381748" lon="-4.393386">
        <ele>1.281</ele>
        <time>2019-06-16T19:49:42Z</time>
      </trkpt>
      <trkpt lat="43.381728" lon="-4.393589">
        <ele>1.960</ele>
        <time>2019-06-16T19:49:43Z</time>
      </trkpt>
      <trkpt lat="43.381703" lon="-4.393804">
        <ele>1.928</ele>
        <time>2019-06-16T19:49:44Z</time>
      </trkpt>
      <trkpt lat="43.381677" lon="-4.393976">
        <ele>2.389</ele>
        <time>2019-06-16T19:49:45Z</time>
      </trkpt>
      <trkpt lat="43.381656" lon="-4.394160">
        <ele>2.917</ele>
        <time>2019-06-16T19:49:46Z</time>
      </trkpt>
      <trkpt lat="43.381627" lon="-4.394337">
        <ele>2.208</ele>
        <time>2019-06-16T19:49:47Z</time>
      </trkpt>
      <trkpt lat="43.381601" lon="-4.394508">
        <ele>1.855</ele>
        <time>2019-06-16T19:49:48Z</time>
      </trkpt>
      <trkpt lat="43.381580" lon="-4.394674">
        <ele>1.769</ele>
        <time>2019-06-16T19:49:49Z</time>
      </trkpt>
      <trkpt lat="43.381558" lon="-4.394840">
        <ele>1.499</ele>
        <time>2019-06-16T19:49:50Z</time>
      </trkpt>
      <trkpt lat="43.381542" lon="-4.394998">
        <ele>1.183</ele>
        <time>2019-06-16T19:49:51Z</time>
      </trkpt>
      <trkpt lat="43.381528" lon="-4.395157">
        <ele>1.632</ele>
        <time>2019-06-16T19:49:52Z</time>
      </trkpt>
      <trkpt lat="43.381505" lon="-4.395303">
        <ele>1.812</ele>
        <time>2019-06-16T19:49:53Z</time>
      </trkpt>
      <trkpt lat="43.381492" lon="-4.395445">
        <ele>1.348</ele>
        <time>2019-06-16T19:49:54Z</time>
      </trkpt>
      <trkpt lat="43.381484" lon="-4.395571">
        <ele>1.197</ele>
        <time>2019-06-16T19:49:55Z</time>
      </trkpt>
      <trkpt lat="43.381466" lon="-4.395702">
        <ele>1.697</ele>
        <time>2019-06-16T19:49:56Z</time>
      </trkpt>
      <trkpt lat="43.381455" lon="-4.395826">
        <ele>2.323</ele>
        <time>2019-06-16T19:49:57Z</time>
      </trkpt>
      <trkpt lat="43.381444" lon="-4.395965">
        <ele>2.025</ele>
        <time>2019-06-16T19:49:58Z</time>
      </trkpt>
      <trkpt lat="43.381434" lon="-4.396081">
        <ele>1.808</ele>
        <time>2019-06-16T19:49:59Z</time>
      </trkpt>
      <trkpt lat="43.381415" lon="-4.396184">
        <ele>1.822</ele>
        <time>2019-06-16T19:50:00Z</time>
      </trkpt>
      <trkpt lat="43.381408" lon="-4.396305">
        <ele>1.966</ele>
        <time>2019-06-16T19:50:01Z</time>
      </trkpt>
      <trkpt lat="43.381400" lon="-4.396417">
        <ele>1.976</ele>
        <time>2019-06-16T19:50:02Z</time>
      </trkpt>
      <trkpt lat="43.381385" lon="-4.396488">
        <ele>2.070</ele>
        <time>2019-06-16T19:50:03Z</time>
      </trkpt>
      <trkpt lat="43.381375" lon="-4.396575">
        <ele>1.979</ele>
        <time>2019-06-16T19:50:04Z</time>
      </trkpt>
      <trkpt lat="43.381375" lon="-4.396661">
        <ele>1.939</ele>
        <time>2019-06-16T19:50:05Z</time>
      </trkpt>
      <trkpt lat="43.381391" lon="-4.396802">
        <ele>3.585</ele>
        <time>2019-06-16T19:50:07Z</time>
      </trkpt>
      <trkpt lat="43.381407" lon="-4.396891">
        <ele>4.414</ele>
        <time>2019-06-16T19:50:08Z</time>
      </trkpt>
      <trkpt lat="43.381448" lon="-4.396977">
        <ele>4.896</ele>
        <time>2019-06-16T19:50:09Z</time>
      </trkpt>
      <trkpt lat="43.381497" lon="-4.397052">
        <ele>4.631</ele>
        <time>2019-06-16T19:50:10Z</time>
      </trkpt>
      <trkpt lat="43.381568" lon="-4.397134">
        <ele>4.424</ele>
        <time>2019-06-16T19:50:11Z</time>
      </trkpt>
      <trkpt lat="43.381656" lon="-4.397217">
        <ele>4.008</ele>
        <time>2019-06-16T19:50:12Z</time>
      </trkpt>
      <trkpt lat="43.381757" lon="-4.397279">
        <ele>4.092</ele>
        <time>2019-06-16T19:50:13Z</time>
      </trkpt>
      <trkpt lat="43.381852" lon="-4.397365">
        <ele>4.036</ele>
        <time>2019-06-16T19:50:14Z</time>
      </trkpt>
      <trkpt lat="43.381953" lon="-4.397442">
        <ele>4.086</ele>
        <time>2019-06-16T19:50:15Z</time>
      </trkpt>
      <trkpt lat="43.382042" lon="-4.397530">
        <ele>3.970</ele>
        <time>2019-06-16T19:50:16Z</time>
      </trkpt>
      <trkpt lat="43.382144" lon="-4.397624">
        <ele>3.639</ele>
        <time>2019-06-16T19:50:17Z</time>
      </trkpt>
      <trkpt lat="43.382240" lon="-4.397718">
        <ele>3.339</ele>
        <time>2019-06-16T19:50:18Z</time>
      </trkpt>
      <trkpt lat="43.382341" lon="-4.397807">
        <ele>3.465</ele>
        <time>2019-06-16T19:50:19Z</time>
      </trkpt>
      <trkpt lat="43.382445" lon="-4.397888">
        <ele>3.524</ele>
        <time>2019-06-16T19:50:20Z</time>
      </trkpt>
      <trkpt lat="43.382544" lon="-4.397974">
        <ele>3.211</ele>
        <time>2019-06-16T19:50:21Z</time>
      </trkpt>
      <trkpt lat="43.382643" lon="-4.398057">
        <ele>3.021</ele>
        <time>2019-06-16T19:50:22Z</time>
      </trkpt>
      <trkpt lat="43.382741" lon="-4.398135">
        <ele>3.003</ele>
        <time>2019-06-16T19:50:23Z</time>
      </trkpt>
      <trkpt lat="43.382838" lon="-4.398211">
        <ele>3.008</ele>
        <time>2019-06-16T19:50:24Z</time>
      </trkpt>
      <trkpt lat="43.382932" lon="-4.398289">
        <ele>3.044</ele>
        <time>2019-06-16T19:50:25Z</time>
      </trkpt>
      <trkpt lat="43.383020" lon="-4.398369">
        <ele>3.088</ele>
        <time>2019-06-16T19:50:26Z</time>
      </trkpt>
      <trkpt lat="43.383108" lon="-4.398440">
        <ele>3.048</ele>
        <time>2019-06-16T19:50:27Z</time>
      </trkpt>
      <trkpt lat="43.383196" lon="-4.398519">
        <ele>3.082</ele>
        <time>2019-06-16T19:50:28Z</time>
      </trkpt>
      <trkpt lat="43.383286" lon="-4.398595">
        <ele>3.041</ele>
        <time>2019-06-16T19:50:29Z</time>
      </trkpt>
      <trkpt lat="43.383373" lon="-4.398676">
        <ele>3.041</ele>
        <time>2019-06-16T19:50:30Z</time>
      </trkpt>
      <trkpt lat="43.383462" lon="-4.398752">
        <ele>3.017</ele>
        <time>2019-06-16T19:50:31Z</time>
      </trkpt>
      <trkpt lat="43.383563" lon="-4.398825">
        <ele>3.066</ele>
        <time>2019-06-16T19:50:32Z</time>
      </trkpt>
      <trkpt lat="43.383661" lon="-4.398896">
        <ele>3.034</ele>
        <time>2019-06-16T19:50:33Z</time>
      </trkpt>
      <trkpt lat="43.383749" lon="-4.398968">
        <ele>3.055</ele>
        <time>2019-06-16T19:50:34Z</time>
      </trkpt>
      <trkpt lat="43.383835" lon="-4.399028">
        <ele>3.010</ele>
        <time>2019-06-16T19:50:35Z</time>
      </trkpt>
      <trkpt lat="43.383914" lon="-4.399095">
        <ele>3.008</ele>
        <time>2019-06-16T19:50:36Z</time>
      </trkpt>
      <trkpt lat="43.383992" lon="-4.399159">
        <ele>3.016</ele>
        <time>2019-06-16T19:50:37Z</time>
      </trkpt>
      <trkpt lat="43.384064" lon="-4.399223">
        <ele>3.020</ele>
        <time>2019-06-16T19:50:38Z</time>
      </trkpt>
      <trkpt lat="43.384136" lon="-4.399286">
        <ele>3.080</ele>
        <time>2019-06-16T19:50:39Z</time>
      </trkpt>
      <trkpt lat="43.384209" lon="-4.399345">
        <ele>3.084</ele>
        <time>2019-06-16T19:50:40Z</time>
      </trkpt>
      <trkpt lat="43.384281" lon="-4.399406">
        <ele>3.023</ele>
        <time>2019-06-16T19:50:41Z</time>
      </trkpt>
      <trkpt lat="43.384361" lon="-4.399452">
        <ele>3.013</ele>
        <time>2019-06-16T19:50:42Z</time>
      </trkpt>
      <trkpt lat="43.384433" lon="-4.399477">
        <ele>3.059</ele>
        <time>2019-06-16T19:50:43Z</time>
      </trkpt>
      <trkpt lat="43.384501" lon="-4.399478">
        <ele>3.198</ele>
        <time>2019-06-16T19:50:44Z</time>
      </trkpt>
      <trkpt lat="43.384573" lon="-4.399451">
        <ele>3.096</ele>
        <time>2019-06-16T19:50:45Z</time>
      </trkpt>
      <trkpt lat="43.384644" lon="-4.399414">
        <ele>3.031</ele>
        <time>2019-06-16T19:50:46Z</time>
      </trkpt>
      <trkpt lat="43.384705" lon="-4.399317">
        <ele>3.024</ele>
        <time>2019-06-16T19:50:47Z</time>
      </trkpt>
      <trkpt lat="43.384780" lon="-4.399231">
        <ele>3.408</ele>
        <time>2019-06-16T19:50:48Z</time>
      </trkpt>
      <trkpt lat="43.384852" lon="-4.399142">
        <ele>3.462</ele>
        <time>2019-06-16T19:50:49Z</time>
      </trkpt>
      <trkpt lat="43.384923" lon="-4.399037">
        <ele>3.416</ele>
        <time>2019-06-16T19:50:50Z</time>
      </trkpt>
      <trkpt lat="43.384998" lon="-4.398927">
        <ele>3.146</ele>
        <time>2019-06-16T19:50:51Z</time>
      </trkpt>
      <trkpt lat="43.385062" lon="-4.398809">
        <ele>3.250</ele>
        <time>2019-06-16T19:50:52Z</time>
      </trkpt>
      <trkpt lat="43.385129" lon="-4.398703">
        <ele>3.249</ele>
        <time>2019-06-16T19:50:53Z</time>
      </trkpt>
      <trkpt lat="43.385190" lon="-4.398599">
        <ele>3.029</ele>
        <time>2019-06-16T19:50:54Z</time>
      </trkpt>
      <trkpt lat="43.385264" lon="-4.398497">
        <ele>3.035</ele>
        <time>2019-06-16T19:50:55Z</time>
      </trkpt>
      <trkpt lat="43.385324" lon="-4.398399">
        <ele>3.214</ele>
        <time>2019-06-16T19:50:56Z</time>
      </trkpt>
      <trkpt lat="43.385390" lon="-4.398302">
        <ele>3.435</ele>
        <time>2019-06-16T19:50:57Z</time>
      </trkpt>
      <trkpt lat="43.385464" lon="-4.398212">
        <ele>3.786</ele>
        <time>2019-06-16T19:50:58Z</time>
      </trkpt>
      <trkpt lat="43.385520" lon="-4.398122">
        <ele>3.914</ele>
        <time>2019-06-16T19:50:59Z</time>
      </trkpt>
      <trkpt lat="43.385576" lon="-4.398061">
        <ele>4.108</ele>
        <time>2019-06-16T19:51:00Z</time>
      </trkpt>
      <trkpt lat="43.385647" lon="-4.398002">
        <ele>3.886</ele>
        <time>2019-06-16T19:51:01Z</time>
      </trkpt>
      <trkpt lat="43.385722" lon="-4.397979">
        <ele>3.820</ele>
        <time>2019-06-16T19:51:02Z</time>
      </trkpt>
      <trkpt lat="43.385800" lon="-4.397984">
        <ele>4.110</ele>
        <time>2019-06-16T19:51:03Z</time>
      </trkpt>
      <trkpt lat="43.385890" lon="-4.398008">
        <ele>3.954</ele>
        <time>2019-06-16T19:51:04Z</time>
      </trkpt>
      <trkpt lat="43.385977" lon="-4.398053">
        <ele>3.493</ele>
        <time>2019-06-16T19:51:05Z</time>
      </trkpt>
      <trkpt lat="43.386057" lon="-4.398105">
        <ele>2.513</ele>
        <time>2019-06-16T19:51:06Z</time>
      </trkpt>
      <trkpt lat="43.386135" lon="-4.398155">
        <ele>1.569</ele>
        <time>2019-06-16T19:51:07Z</time>
      </trkpt>
      <trkpt lat="43.386209" lon="-4.398198">
        <ele>1.088</ele>
        <time>2019-06-16T19:51:08Z</time>
      </trkpt>
      <trkpt lat="43.386282" lon="-4.398242">
        <ele>0.544</ele>
        <time>2019-06-16T19:51:09Z</time>
      </trkpt>
      <trkpt lat="43.386360" lon="-4.398282">
        <ele>0.105</ele>
        <time>2019-06-16T19:51:10Z</time>
      </trkpt>
      <trkpt lat="43.386443" lon="-4.398327">
        <ele>0.015</ele>
        <time>2019-06-16T19:51:11Z</time>
      </trkpt>
      <trkpt lat="43.386523" lon="-4.398373">
        <ele>0.008</ele>
        <time>2019-06-16T19:51:12Z</time>
      </trkpt>
      <trkpt lat="43.386602" lon="-4.398416">
        <ele>0.027</ele>
        <time>2019-06-16T19:51:13Z</time>
      </trkpt>
      <trkpt lat="43.386677" lon="-4.398455">
        <ele>0.181</ele>
        <time>2019-06-16T19:51:14Z</time>
      </trkpt>
      <trkpt lat="43.386728" lon="-4.398496">
        <ele>0.531</ele>
        <time>2019-06-16T19:51:15Z</time>
      </trkpt>
      <trkpt lat="43.386793" lon="-4.398534">
        <ele>1.165</ele>
        <time>2019-06-16T19:51:16Z</time>
      </trkpt>
      <trkpt lat="43.386855" lon="-4.398568">
        <ele>1.814</ele>
        <time>2019-06-16T19:51:17Z</time>
      </trkpt>
      <trkpt lat="43.386918" lon="-4.398605">
        <ele>2.714</ele>
        <time>2019-06-16T19:51:18Z</time>
      </trkpt>
      <trkpt lat="43.386977" lon="-4.398642">
        <ele>3.540</ele>
        <time>2019-06-16T19:51:19Z</time>
      </trkpt>
      <trkpt lat="43.387037" lon="-4.398686">
        <ele>4.479</ele>
        <time>2019-06-16T19:51:20Z</time>
      </trkpt>
      <trkpt lat="43.387098" lon="-4.398729">
        <ele>5.383</ele>
        <time>2019-06-16T19:51:21Z</time>
      </trkpt>
      <trkpt lat="43.387150" lon="-4.398768">
        <ele>6.125</ele>
        <time>2019-06-16T19:51:22Z</time>
      </trkpt>
      <trkpt lat="43.387191" lon="-4.398806">
        <ele>6.717</ele>
        <time>2019-06-16T19:51:23Z</time>
      </trkpt>
      <trkpt lat="43.387225" lon="-4.398846">
        <ele>7.208</ele>
        <time>2019-06-16T19:51:24Z</time>
      </trkpt>
      <trkpt lat="43.387265" lon="-4.398909">
        <ele>7.111</ele>
        <time>2019-06-16T19:51:26Z</time>
      </trkpt>
      <trkpt lat="43.387302" lon="-4.398951">
        <ele>7.245</ele>
        <time>2019-06-16T19:51:28Z</time>
      </trkpt>
      <trkpt lat="43.387349" lon="-4.398992">
        <ele>7.415</ele>
        <time>2019-06-16T19:51:31Z</time>
      </trkpt>
      <trkpt lat="43.387410" lon="-4.398988">
        <ele>7.819</ele>
        <time>2019-06-16T19:51:38Z</time>
      </trkpt>
      <trkpt lat="43.387471" lon="-4.398982">
        <ele>8.288</ele>
        <time>2019-06-16T19:51:40Z</time>
      </trkpt>
      <trkpt lat="43.387543" lon="-4.398989">
        <ele>8.998</ele>
        <time>2019-06-16T19:51:42Z</time>
      </trkpt>
      <trkpt lat="43.387587" lon="-4.399035">
        <ele>9.694</ele>
        <time>2019-06-16T19:51:43Z</time>
      </trkpt>
      <trkpt lat="43.387618" lon="-4.399089">
        <ele>10.393</ele>
        <time>2019-06-16T19:51:44Z</time>
      </trkpt>
      <trkpt lat="43.387634" lon="-4.399148">
        <ele>10.866</ele>
        <time>2019-06-16T19:51:45Z</time>
      </trkpt>
      <trkpt lat="43.387652" lon="-4.399211">
        <ele>11.529</ele>
        <time>2019-06-16T19:51:46Z</time>
      </trkpt>
      <trkpt lat="43.387674" lon="-4.399321">
        <ele>12.821</ele>
        <time>2019-06-16T19:51:48Z</time>
      </trkpt>
      <trkpt lat="43.387687" lon="-4.399381">
        <ele>13.508</ele>
        <time>2019-06-16T19:51:49Z</time>
      </trkpt>
      <trkpt lat="43.387705" lon="-4.399442">
        <ele>14.439</ele>
        <time>2019-06-16T19:51:50Z</time>
      </trkpt>
      <trkpt lat="43.387718" lon="-4.399516">
        <ele>15.293</ele>
        <time>2019-06-16T19:51:51Z</time>
      </trkpt>
      <trkpt lat="43.387734" lon="-4.399646">
        <ele>16.573</ele>
        <time>2019-06-16T19:51:53Z</time>
      </trkpt>
      <trkpt lat="43.387761" lon="-4.399713">
        <ele>17.657</ele>
        <time>2019-06-16T19:51:54Z</time>
      </trkpt>
      <trkpt lat="43.387780" lon="-4.399795">
        <ele>18.626</ele>
        <time>2019-06-16T19:51:55Z</time>
      </trkpt>
      <trkpt lat="43.387798" lon="-4.399866">
        <ele>19.476</ele>
        <time>2019-06-16T19:51:56Z</time>
      </trkpt>
      <trkpt lat="43.387849" lon="-4.399908">
        <ele>20.462</ele>
        <time>2019-06-16T19:51:57Z</time>
      </trkpt>
      <trkpt lat="43.387889" lon="-4.399939">
        <ele>21.291</ele>
        <time>2019-06-16T19:51:58Z</time>
      </trkpt>
      <trkpt lat="43.387909" lon="-4.400016">
        <ele>22.023</ele>
        <time>2019-06-16T19:52:00Z</time>
      </trkpt>
      <trkpt lat="43.387860" lon="-4.400000">
        <ele>21.283</ele>
        <time>2019-06-16T19:52:04Z</time>
      </trkpt>
      <trkpt lat="43.387829" lon="-4.399946">
        <ele>20.411</ele>
        <time>2019-06-16T19:52:05Z</time>
      </trkpt>
      <trkpt lat="43.387783" lon="-4.399842">
        <ele>18.908</ele>
        <time>2019-06-16T19:52:07Z</time>
      </trkpt>
      <trkpt lat="43.387747" lon="-4.399740">
        <ele>17.555</ele>
        <time>2019-06-16T19:52:09Z</time>
      </trkpt>
      <trkpt lat="43.387731" lon="-4.399625">
        <ele>16.349</ele>
        <time>2019-06-16T19:52:11Z</time>
      </trkpt>
      <trkpt lat="43.387712" lon="-4.399565">
        <ele>15.439</ele>
        <time>2019-06-16T19:52:12Z</time>
      </trkpt>
      <trkpt lat="43.387692" lon="-4.399501">
        <ele>14.673</ele>
        <time>2019-06-16T19:52:13Z</time>
      </trkpt>
      <trkpt lat="43.387662" lon="-4.399402">
        <ele>13.272</ele>
        <time>2019-06-16T19:52:15Z</time>
      </trkpt>
      <trkpt lat="43.387650" lon="-4.399340">
        <ele>12.522</ele>
        <time>2019-06-16T19:52:17Z</time>
      </trkpt>
      <trkpt lat="43.387625" lon="-4.399280">
        <ele>11.658</ele>
        <time>2019-06-16T19:52:20Z</time>
      </trkpt>
      <trkpt lat="43.387584" lon="-4.399309">
        <ele>11.027</ele>
        <time>2019-06-16T19:52:24Z</time>
      </trkpt>
      <trkpt lat="43.387623" lon="-4.399274">
        <ele>11.558</ele>
        <time>2019-06-16T19:53:38Z</time>
      </trkpt>
      <trkpt lat="43.387664" lon="-4.399247">
        <ele>12.052</ele>
        <time>2019-06-16T19:53:54Z</time>
      </trkpt>
      <trkpt lat="43.387668" lon="-4.399172">
        <ele>11.517</ele>
        <time>2019-06-16T19:54:05Z</time>
      </trkpt>
      <trkpt lat="43.387646" lon="-4.399105">
        <ele>10.808</ele>
        <time>2019-06-16T19:54:07Z</time>
      </trkpt>
      <trkpt lat="43.387611" lon="-4.399061">
        <ele>10.118</ele>
        <time>2019-06-16T19:54:09Z</time>
      </trkpt>
      <trkpt lat="43.387563" lon="-4.399046">
        <ele>9.432</ele>
        <time>2019-06-16T19:54:13Z</time>
      </trkpt>
      <trkpt lat="43.387506" lon="-4.398999">
        <ele>8.552</ele>
        <time>2019-06-16T19:54:16Z</time>
      </trkpt>
      <trkpt lat="43.387535" lon="-4.398930">
        <ele>8.576</ele>
        <time>2019-06-16T19:54:19Z</time>
      </trkpt>
      <trkpt lat="43.387603" lon="-4.398995">
        <ele>9.655</ele>
        <time>2019-06-16T19:54:21Z</time>
      </trkpt>
      <trkpt lat="43.387614" lon="-4.399100">
        <ele>10.315</ele>
        <time>2019-06-16T19:54:22Z</time>
      </trkpt>
      <trkpt lat="43.387628" lon="-4.399203">
        <ele>11.121</ele>
        <time>2019-06-16T19:54:24Z</time>
      </trkpt>
      <trkpt lat="43.387614" lon="-4.399265">
        <ele>11.330</ele>
        <time>2019-06-16T19:54:27Z</time>
      </trkpt>
      <trkpt lat="43.387574" lon="-4.399300">
        <ele>10.873</ele>
        <time>2019-06-16T19:54:51Z</time>
      </trkpt>
      <trkpt lat="43.387610" lon="-4.399345">
        <ele>11.785</ele>
        <time>2019-06-16T19:55:04Z</time>
      </trkpt>
      <trkpt lat="43.387565" lon="-4.399348">
        <ele>10.913</ele>
        <time>2019-06-16T19:56:01Z</time>
      </trkpt>
      <trkpt lat="43.387587" lon="-4.399285">
        <ele>10.908</ele>
        <time>2019-06-16T19:56:35Z</time>
      </trkpt>
      <trkpt lat="43.410862" lon="-6.265172">
        <ele>257.916</ele>
        <time>2019-06-19T11:21:03Z</time>
      </trkpt>
      <trkpt lat="43.411193" lon="-6.265394">
        <ele>258.776</ele>
        <time>2019-06-19T11:21:07Z</time>
      </trkpt>
      <trkpt lat="43.410438" lon="-6.264963">
        <ele>262.713</ele>
        <time>2019-06-19T11:22:05Z</time>
      </trkpt>
      <trkpt lat="43.410459" lon="-6.265025">
        <ele>263.208</ele>
        <time>2019-06-19T11:22:11Z</time>
      </trkpt>
      <trkpt lat="43.410488" lon="-6.265096">
        <ele>263.644</ele>
        <time>2019-06-19T11:22:46Z</time>
      </trkpt>
      <trkpt lat="43.410497" lon="-6.265160">
        <ele>263.988</ele>
        <time>2019-06-19T11:22:55Z</time>
      </trkpt>
      <trkpt lat="43.410523" lon="-6.265216">
        <ele>264.119</ele>
        <time>2019-06-19T11:23:55Z</time>
      </trkpt>
      <trkpt lat="43.410556" lon="-6.265258">
        <ele>263.972</ele>
        <time>2019-06-19T11:24:19Z</time>
      </trkpt>
      <trkpt lat="43.410503" lon="-6.265258">
        <ele>264.532</ele>
        <time>2019-06-19T11:26:27Z</time>
      </trkpt>
      <trkpt lat="43.410492" lon="-6.265187">
        <ele>264.138</ele>
        <time>2019-06-19T11:26:31Z</time>
      </trkpt>
      <trkpt lat="43.410551" lon="-6.265159">
        <ele>263.686</ele>
        <time>2019-06-19T11:26:33Z</time>
      </trkpt>
      <trkpt lat="43.410606" lon="-6.265155">
        <ele>262.646</ele>
        <time>2019-06-19T11:26:35Z</time>
      </trkpt>
      <trkpt lat="43.410664" lon="-6.265208">
        <ele>261.775</ele>
        <time>2019-06-19T11:26:37Z</time>
      </trkpt>
      <trkpt lat="43.410702" lon="-6.265277">
        <ele>261.428</ele>
        <time>2019-06-19T11:26:39Z</time>
      </trkpt>
      <trkpt lat="43.410742" lon="-6.265315">
        <ele>261.120</ele>
        <time>2019-06-19T11:26:41Z</time>
      </trkpt>
      <trkpt lat="43.410777" lon="-6.265271">
        <ele>260.008</ele>
        <time>2019-06-19T11:26:44Z</time>
      </trkpt>
      <trkpt lat="43.410757" lon="-6.265172">
        <ele>259.740</ele>
        <time>2019-06-19T11:26:46Z</time>
      </trkpt>
      <trkpt lat="43.410725" lon="-6.265072">
        <ele>259.834</ele>
        <time>2019-06-19T11:26:48Z</time>
      </trkpt>
      <trkpt lat="43.410690" lon="-6.264978">
        <ele>259.955</ele>
        <time>2019-06-19T11:26:50Z</time>
      </trkpt>
      <trkpt lat="43.410652" lon="-6.264881">
        <ele>259.928</ele>
        <time>2019-06-19T11:26:51Z</time>
      </trkpt>
      <trkpt lat="43.410632" lon="-6.264791">
        <ele>259.568</ele>
        <time>2019-06-19T11:26:52Z</time>
      </trkpt>
      <trkpt lat="43.410608" lon="-6.264689">
        <ele>258.934</ele>
        <time>2019-06-19T11:26:53Z</time>
      </trkpt>
      <trkpt lat="43.410580" lon="-6.264579">
        <ele>258.192</ele>
        <time>2019-06-19T11:26:54Z</time>
      </trkpt>
      <trkpt lat="43.410556" lon="-6.264466">
        <ele>257.212</ele>
        <time>2019-06-19T11:26:55Z</time>
      </trkpt>
      <trkpt lat="43.410526" lon="-6.264351">
        <ele>255.869</ele>
        <time>2019-06-19T11:26:56Z</time>
      </trkpt>
      <trkpt lat="43.410496" lon="-6.264230">
        <ele>254.404</ele>
        <time>2019-06-19T11:26:57Z</time>
      </trkpt>
      <trkpt lat="43.410467" lon="-6.264109">
        <ele>253.524</ele>
        <time>2019-06-19T11:26:58Z</time>
      </trkpt>
      <trkpt lat="43.410443" lon="-6.263986">
        <ele>252.908</ele>
        <time>2019-06-19T11:26:59Z</time>
      </trkpt>
      <trkpt lat="43.410413" lon="-6.263867">
        <ele>252.619</ele>
        <time>2019-06-19T11:27:00Z</time>
      </trkpt>
      <trkpt lat="43.410383" lon="-6.263756">
        <ele>253.263</ele>
        <time>2019-06-19T11:27:01Z</time>
      </trkpt>
      <trkpt lat="43.410353" lon="-6.263649">
        <ele>253.834</ele>
        <time>2019-06-19T11:27:02Z</time>
      </trkpt>
      <trkpt lat="43.410329" lon="-6.263559">
        <ele>254.197</ele>
        <time>2019-06-19T11:27:03Z</time>
      </trkpt>
      <trkpt lat="43.410306" lon="-6.263478">
        <ele>254.287</ele>
        <time>2019-06-19T11:27:04Z</time>
      </trkpt>
      <trkpt lat="43.410283" lon="-6.263400">
        <ele>254.253</ele>
        <time>2019-06-19T11:27:05Z</time>
      </trkpt>
      <trkpt lat="43.410256" lon="-6.263330">
        <ele>254.371</ele>
        <time>2019-06-19T11:27:06Z</time>
      </trkpt>
      <trkpt lat="43.410217" lon="-6.263262">
        <ele>254.621</ele>
        <time>2019-06-19T11:27:07Z</time>
      </trkpt>
      <trkpt lat="43.410165" lon="-6.263202">
        <ele>255.018</ele>
        <time>2019-06-19T11:27:08Z</time>
      </trkpt>
      <trkpt lat="43.410108" lon="-6.263145">
        <ele>255.498</ele>
        <time>2019-06-19T11:27:09Z</time>
      </trkpt>
      <trkpt lat="43.410037" lon="-6.263086">
        <ele>255.817</ele>
        <time>2019-06-19T11:27:10Z</time>
      </trkpt>
      <trkpt lat="43.409981" lon="-6.263032">
        <ele>255.808</ele>
        <time>2019-06-19T11:27:11Z</time>
      </trkpt>
      <trkpt lat="43.409937" lon="-6.262959">
        <ele>255.264</ele>
        <time>2019-06-19T11:27:12Z</time>
      </trkpt>
      <trkpt lat="43.409876" lon="-6.262874">
        <ele>254.598</ele>
        <time>2019-06-19T11:27:13Z</time>
      </trkpt>
      <trkpt lat="43.409832" lon="-6.262789">
        <ele>253.769</ele>
        <time>2019-06-19T11:27:14Z</time>
      </trkpt>
      <trkpt lat="43.409796" lon="-6.262712">
        <ele>252.612</ele>
        <time>2019-06-19T11:27:15Z</time>
      </trkpt>
      <trkpt lat="43.409753" lon="-6.262633">
        <ele>251.352</ele>
        <time>2019-06-19T11:27:16Z</time>
      </trkpt>
      <trkpt lat="43.409696" lon="-6.262539">
        <ele>249.938</ele>
        <time>2019-06-19T11:27:17Z</time>
      </trkpt>
      <trkpt lat="43.409646" lon="-6.262455">
        <ele>248.966</ele>
        <time>2019-06-19T11:27:18Z</time>
      </trkpt>
      <trkpt lat="43.409586" lon="-6.262395">
        <ele>248.766</ele>
        <time>2019-06-19T11:27:19Z</time>
      </trkpt>
      <trkpt lat="43.409532" lon="-6.262321">
        <ele>248.214</ele>
        <time>2019-06-19T11:27:20Z</time>
      </trkpt>
      <trkpt lat="43.409492" lon="-6.262246">
        <ele>247.854</ele>
        <time>2019-06-19T11:27:21Z</time>
      </trkpt>
      <trkpt lat="43.409459" lon="-6.262174">
        <ele>247.509</ele>
        <time>2019-06-19T11:27:22Z</time>
      </trkpt>
      <trkpt lat="43.409426" lon="-6.262106">
        <ele>247.408</ele>
        <time>2019-06-19T11:27:23Z</time>
      </trkpt>
      <trkpt lat="43.409387" lon="-6.262035">
        <ele>247.464</ele>
        <time>2019-06-19T11:27:24Z</time>
      </trkpt>
      <trkpt lat="43.409359" lon="-6.261973">
        <ele>247.468</ele>
        <time>2019-06-19T11:27:25Z</time>
      </trkpt>
      <trkpt lat="43.409317" lon="-6.261860">
        <ele>247.589</ele>
        <time>2019-06-19T11:27:27Z</time>
      </trkpt>
      <trkpt lat="43.409298" lon="-6.261803">
        <ele>247.612</ele>
        <time>2019-06-19T11:27:28Z</time>
      </trkpt>
      <trkpt lat="43.409283" lon="-6.261739">
        <ele>247.642</ele>
        <time>2019-06-19T11:27:29Z</time>
      </trkpt>
      <trkpt lat="43.409271" lon="-6.261677">
        <ele>247.598</ele>
        <time>2019-06-19T11:27:30Z</time>
      </trkpt>
      <trkpt lat="43.409251" lon="-6.261600">
        <ele>247.436</ele>
        <time>2019-06-19T11:27:31Z</time>
      </trkpt>
      <trkpt lat="43.409232" lon="-6.261532">
        <ele>247.286</ele>
        <time>2019-06-19T11:27:32Z</time>
      </trkpt>
      <trkpt lat="43.409181" lon="-6.261479">
        <ele>247.597</ele>
        <time>2019-06-19T11:27:33Z</time>
      </trkpt>
      <trkpt lat="43.409161" lon="-6.261416">
        <ele>247.223</ele>
        <time>2019-06-19T11:27:34Z</time>
      </trkpt>
      <trkpt lat="43.409140" lon="-6.261359">
        <ele>246.925</ele>
        <time>2019-06-19T11:27:35Z</time>
      </trkpt>
      <trkpt lat="43.409115" lon="-6.261297">
        <ele>246.508</ele>
        <time>2019-06-19T11:27:36Z</time>
      </trkpt>
      <trkpt lat="43.409097" lon="-6.261234">
        <ele>246.132</ele>
        <time>2019-06-19T11:27:37Z</time>
      </trkpt>
      <trkpt lat="43.409053" lon="-6.261133">
        <ele>245.646</ele>
        <time>2019-06-19T11:27:39Z</time>
      </trkpt>
      <trkpt lat="43.409002" lon="-6.261063">
        <ele>245.337</ele>
        <time>2019-06-19T11:27:41Z</time>
      </trkpt>
      <trkpt lat="43.408926" lon="-6.261088">
        <ele>245.810</ele>
        <time>2019-06-19T11:27:43Z</time>
      </trkpt>
      <trkpt lat="43.408844" lon="-6.261106">
        <ele>246.170</ele>
        <time>2019-06-19T11:27:45Z</time>
      </trkpt>
      <trkpt lat="43.408762" lon="-6.261065">
        <ele>246.426</ele>
        <time>2019-06-19T11:27:47Z</time>
      </trkpt>
      <trkpt lat="43.408723" lon="-6.261031">
        <ele>246.594</ele>
        <time>2019-06-19T11:27:48Z</time>
      </trkpt>
      <trkpt lat="43.408685" lon="-6.260993">
        <ele>246.644</ele>
        <time>2019-06-19T11:27:49Z</time>
      </trkpt>
      <trkpt lat="43.408650" lon="-6.260941">
        <ele>246.851</ele>
        <time>2019-06-19T11:27:50Z</time>
      </trkpt>
      <trkpt lat="43.408612" lon="-6.260896">
        <ele>247.001</ele>
        <time>2019-06-19T11:27:51Z</time>
      </trkpt>
      <trkpt lat="43.408562" lon="-6.260824">
        <ele>247.211</ele>
        <time>2019-06-19T11:27:52Z</time>
      </trkpt>
      <trkpt lat="43.408515" lon="-6.260766">
        <ele>247.308</ele>
        <time>2019-06-19T11:27:53Z</time>
      </trkpt>
      <trkpt lat="43.408483" lon="-6.260694">
        <ele>247.538</ele>
        <time>2019-06-19T11:27:55Z</time>
      </trkpt>
      <trkpt lat="43.408411" lon="-6.260598">
        <ele>247.752</ele>
        <time>2019-06-19T11:27:57Z</time>
      </trkpt>
      <trkpt lat="43.408374" lon="-6.260512">
        <ele>247.783</ele>
        <time>2019-06-19T11:27:58Z</time>
      </trkpt>
      <trkpt lat="43.408308" lon="-6.260399">
        <ele>247.366</ele>
        <time>2019-06-19T11:27:59Z</time>
      </trkpt>
      <trkpt lat="43.408260" lon="-6.260309">
        <ele>246.896</ele>
        <time>2019-06-19T11:28:00Z</time>
      </trkpt>
      <trkpt lat="43.408241" lon="-6.260213">
        <ele>246.712</ele>
        <time>2019-06-19T11:28:01Z</time>
      </trkpt>
      <trkpt lat="43.408211" lon="-6.260092">
        <ele>246.620</ele>
        <time>2019-06-19T11:28:02Z</time>
      </trkpt>
      <trkpt lat="43.408182" lon="-6.259978">
        <ele>246.460</ele>
        <time>2019-06-19T11:28:03Z</time>
      </trkpt>
      <trkpt lat="43.408149" lon="-6.259874">
        <ele>246.071</ele>
        <time>2019-06-19T11:28:04Z</time>
      </trkpt>
      <trkpt lat="43.408145" lon="-6.259786">
        <ele>245.841</ele>
        <time>2019-06-19T11:28:05Z</time>
      </trkpt>
      <trkpt lat="43.408136" lon="-6.259702">
        <ele>245.515</ele>
        <time>2019-06-19T11:28:06Z</time>
      </trkpt>
      <trkpt lat="43.408117" lon="-6.259630">
        <ele>244.608</ele>
        <time>2019-06-19T11:28:07Z</time>
      </trkpt>
      <trkpt lat="43.408095" lon="-6.259559">
        <ele>243.760</ele>
        <time>2019-06-19T11:28:08Z</time>
      </trkpt>
      <trkpt lat="43.408081" lon="-6.259482">
        <ele>242.674</ele>
        <time>2019-06-19T11:28:09Z</time>
      </trkpt>
      <trkpt lat="43.408043" lon="-6.259418">
        <ele>241.815</ele>
        <time>2019-06-19T11:28:10Z</time>
      </trkpt>
      <trkpt lat="43.408035" lon="-6.259350">
        <ele>241.398</ele>
        <time>2019-06-19T11:28:11Z</time>
      </trkpt>
      <trkpt lat="43.408066" lon="-6.259274">
        <ele>240.878</ele>
        <time>2019-06-19T11:28:13Z</time>
      </trkpt>
      <trkpt lat="43.408144" lon="-6.259177">
        <ele>240.454</ele>
        <time>2019-06-19T11:28:15Z</time>
      </trkpt>
      <trkpt lat="43.408214" lon="-6.259115">
        <ele>240.532</ele>
        <time>2019-06-19T11:28:17Z</time>
      </trkpt>
      <trkpt lat="43.408269" lon="-6.259080">
        <ele>240.652</ele>
        <time>2019-06-19T11:28:19Z</time>
      </trkpt>
      <trkpt lat="43.408311" lon="-6.259056">
        <ele>240.664</ele>
        <time>2019-06-19T11:28:21Z</time>
      </trkpt>
      <trkpt lat="43.408362" lon="-6.259022">
        <ele>240.506</ele>
        <time>2019-06-19T11:28:23Z</time>
      </trkpt>
      <trkpt lat="43.408412" lon="-6.258974">
        <ele>240.416</ele>
        <time>2019-06-19T11:28:25Z</time>
      </trkpt>
      <trkpt lat="43.408462" lon="-6.258963">
        <ele>240.408</ele>
        <time>2019-06-19T11:28:35Z</time>
      </trkpt>
      <trkpt lat="43.408516" lon="-6.258997">
        <ele>240.679</ele>
        <time>2019-06-19T11:28:43Z</time>
      </trkpt>
      <trkpt lat="43.408562" lon="-6.259056">
        <ele>241.193</ele>
        <time>2019-06-19T11:28:45Z</time>
      </trkpt>
      <trkpt lat="43.408614" lon="-6.259075">
        <ele>241.364</ele>
        <time>2019-06-19T11:28:48Z</time>
      </trkpt>
      <trkpt lat="43.408587" lon="-6.259022">
        <ele>240.987</ele>
        <time>2019-06-19T11:29:00Z</time>
      </trkpt>
      <trkpt lat="43.408607" lon="-6.258962">
        <ele>240.517</ele>
        <time>2019-06-19T11:29:17Z</time>
      </trkpt>
      <trkpt lat="43.408649" lon="-6.258983">
        <ele>240.783</ele>
        <time>2019-06-19T11:32:52Z</time>
      </trkpt>
      <trkpt lat="43.408599" lon="-6.258964">
        <ele>240.521</ele>
        <time>2019-06-19T11:33:54Z</time>
      </trkpt>
      <trkpt lat="43.408543" lon="-6.258904">
        <ele>240.181</ele>
        <time>2019-06-19T11:33:56Z</time>
      </trkpt>
      <trkpt lat="43.408506" lon="-6.258846">
        <ele>239.767</ele>
        <time>2019-06-19T11:33:57Z</time>
      </trkpt>
      <trkpt lat="43.408460" lon="-6.258749">
        <ele>239.081</ele>
        <time>2019-06-19T11:33:58Z</time>
      </trkpt>
      <trkpt lat="43.408418" lon="-6.258544">
        <ele>237.919</ele>
        <time>2019-06-19T11:33:59Z</time>
      </trkpt>
      <trkpt lat="43.408357" lon="-6.258431">
        <ele>237.508</ele>
        <time>2019-06-19T11:34:00Z</time>
      </trkpt>
      <trkpt lat="43.408308" lon="-6.258301">
        <ele>236.989</ele>
        <time>2019-06-19T11:34:01Z</time>
      </trkpt>
      <trkpt lat="43.408274" lon="-6.258178">
        <ele>236.273</ele>
        <time>2019-06-19T11:34:02Z</time>
      </trkpt>
      <trkpt lat="43.408231" lon="-6.258025">
        <ele>235.524</ele>
        <time>2019-06-19T11:34:03Z</time>
      </trkpt>
      <trkpt lat="43.408194" lon="-6.257887">
        <ele>234.887</ele>
        <time>2019-06-19T11:34:04Z</time>
      </trkpt>
      <trkpt lat="43.408152" lon="-6.257742">
        <ele>233.997</ele>
        <time>2019-06-19T11:34:05Z</time>
      </trkpt>
      <trkpt lat="43.408114" lon="-6.257592">
        <ele>232.613</ele>
        <time>2019-06-19T11:34:06Z</time>
      </trkpt>
      <trkpt lat="43.408061" lon="-6.257449">
        <ele>231.481</ele>
        <time>2019-06-19T11:34:07Z</time>
      </trkpt>
      <trkpt lat="43.408024" lon="-6.257302">
        <ele>229.931</ele>
        <time>2019-06-19T11:34:08Z</time>
      </trkpt>
      <trkpt lat="43.407980" lon="-6.257138">
        <ele>228.884</ele>
        <time>2019-06-19T11:34:09Z</time>
      </trkpt>
      <trkpt lat="43.407931" lon="-6.257002">
        <ele>228.607</ele>
        <time>2019-06-19T11:34:10Z</time>
      </trkpt>
      <trkpt lat="43.407885" lon="-6.256862">
        <ele>228.617</ele>
        <time>2019-06-19T11:34:11Z</time>
      </trkpt>
      <trkpt lat="43.407842" lon="-6.256734">
        <ele>228.808</ele>
        <time>2019-06-19T11:34:12Z</time>
      </trkpt>
      <trkpt lat="43.407792" lon="-6.256599">
        <ele>228.961</ele>
        <time>2019-06-19T11:34:13Z</time>
      </trkpt>
      <trkpt lat="43.407750" lon="-6.256484">
        <ele>229.175</ele>
        <time>2019-06-19T11:34:14Z</time>
      </trkpt>
      <trkpt lat="43.407716" lon="-6.256357">
        <ele>229.036</ele>
        <time>2019-06-19T11:34:15Z</time>
      </trkpt>
      <trkpt lat="43.407683" lon="-6.256231">
        <ele>228.699</ele>
        <time>2019-06-19T11:34:16Z</time>
      </trkpt>
      <trkpt lat="43.407647" lon="-6.256115">
        <ele>228.489</ele>
        <time>2019-06-19T11:34:17Z</time>
      </trkpt>
      <trkpt lat="43.407612" lon="-6.256008">
        <ele>228.625</ele>
        <time>2019-06-19T11:34:18Z</time>
      </trkpt>
      <trkpt lat="43.407588" lon="-6.255923">
        <ele>228.873</ele>
        <time>2019-06-19T11:34:19Z</time>
      </trkpt>
      <trkpt lat="43.407557" lon="-6.255819">
        <ele>229.293</ele>
        <time>2019-06-19T11:34:20Z</time>
      </trkpt>
      <trkpt lat="43.407531" lon="-6.255717">
        <ele>229.613</ele>
        <time>2019-06-19T11:34:21Z</time>
      </trkpt>
      <trkpt lat="43.407506" lon="-6.255625">
        <ele>229.943</ele>
        <time>2019-06-19T11:34:22Z</time>
      </trkpt>
      <trkpt lat="43.407474" lon="-6.255493">
        <ele>229.907</ele>
        <time>2019-06-19T11:34:24Z</time>
      </trkpt>
      <trkpt lat="43.407447" lon="-6.255388">
        <ele>229.608</ele>
        <time>2019-06-19T11:34:25Z</time>
      </trkpt>
      <trkpt lat="43.407407" lon="-6.255279">
        <ele>229.364</ele>
        <time>2019-06-19T11:34:26Z</time>
      </trkpt>
      <trkpt lat="43.407390" lon="-6.255181">
        <ele>228.268</ele>
        <time>2019-06-19T11:34:27Z</time>
      </trkpt>
      <trkpt lat="43.407365" lon="-6.255077">
        <ele>227.029</ele>
        <time>2019-06-19T11:34:28Z</time>
      </trkpt>
      <trkpt lat="43.407332" lon="-6.254974">
        <ele>225.722</ele>
        <time>2019-06-19T11:34:29Z</time>
      </trkpt>
      <trkpt lat="43.407300" lon="-6.254867">
        <ele>224.472</ele>
        <time>2019-06-19T11:34:30Z</time>
      </trkpt>
      <trkpt lat="43.407263" lon="-6.254768">
        <ele>223.478</ele>
        <time>2019-06-19T11:34:31Z</time>
      </trkpt>
      <trkpt lat="43.407230" lon="-6.254679">
        <ele>222.756</ele>
        <time>2019-06-19T11:34:32Z</time>
      </trkpt>
      <trkpt lat="43.407193" lon="-6.254586">
        <ele>222.066</ele>
        <time>2019-06-19T11:34:33Z</time>
      </trkpt>
      <trkpt lat="43.407169" lon="-6.254498">
        <ele>221.443</ele>
        <time>2019-06-19T11:34:34Z</time>
      </trkpt>
      <trkpt lat="43.407143" lon="-6.254411">
        <ele>220.864</ele>
        <time>2019-06-19T11:34:35Z</time>
      </trkpt>
      <trkpt lat="43.407120" lon="-6.254323">
        <ele>220.310</ele>
        <time>2019-06-19T11:34:36Z</time>
      </trkpt>
      <trkpt lat="43.407091" lon="-6.254247">
        <ele>219.908</ele>
        <time>2019-06-19T11:34:37Z</time>
      </trkpt>
      <trkpt lat="43.407063" lon="-6.254170">
        <ele>219.637</ele>
        <time>2019-06-19T11:34:38Z</time>
      </trkpt>
      <trkpt lat="43.407030" lon="-6.254085">
        <ele>219.461</ele>
        <time>2019-06-19T11:34:39Z</time>
      </trkpt>
      <trkpt lat="43.406991" lon="-6.254019">
        <ele>219.332</ele>
        <time>2019-06-19T11:34:40Z</time>
      </trkpt>
      <trkpt lat="43.406958" lon="-6.253963">
        <ele>219.275</ele>
        <time>2019-06-19T11:34:41Z</time>
      </trkpt>
      <trkpt lat="43.406897" lon="-6.253929">
        <ele>219.155</ele>
        <time>2019-06-19T11:34:47Z</time>
      </trkpt>
      <trkpt lat="43.406847" lon="-6.253857">
        <ele>218.821</ele>
        <time>2019-06-19T11:35:47Z</time>
      </trkpt>
      <trkpt lat="43.406801" lon="-6.253798">
        <ele>218.549</ele>
        <time>2019-06-19T11:35:48Z</time>
      </trkpt>
      <trkpt lat="43.406754" lon="-6.253707">
        <ele>217.939</ele>
        <time>2019-06-19T11:35:49Z</time>
      </trkpt>
      <trkpt lat="43.406724" lon="-6.253600">
        <ele>217.197</ele>
        <time>2019-06-19T11:35:50Z</time>
      </trkpt>
      <trkpt lat="43.406711" lon="-6.253471">
        <ele>216.223</ele>
        <time>2019-06-19T11:35:51Z</time>
      </trkpt>
      <trkpt lat="43.406710" lon="-6.253332">
        <ele>215.225</ele>
        <time>2019-06-19T11:35:52Z</time>
      </trkpt>
      <trkpt lat="43.406713" lon="-6.253219">
        <ele>214.808</ele>
        <time>2019-06-19T11:35:53Z</time>
      </trkpt>
      <trkpt lat="43.406697" lon="-6.253078">
        <ele>214.212</ele>
        <time>2019-06-19T11:35:54Z</time>
      </trkpt>
      <trkpt lat="43.406675" lon="-6.252923">
        <ele>214.096</ele>
        <time>2019-06-19T11:35:55Z</time>
      </trkpt>
      <trkpt lat="43.406631" lon="-6.252751">
        <ele>214.297</ele>
        <time>2019-06-19T11:35:56Z</time>
      </trkpt>
      <trkpt lat="43.406573" lon="-6.252566">
        <ele>213.980</ele>
        <time>2019-06-19T11:35:57Z</time>
      </trkpt>
      <trkpt lat="43.406520" lon="-6.252384">
        <ele>214.390</ele>
        <time>2019-06-19T11:35:58Z</time>
      </trkpt>
      <trkpt lat="43.406464" lon="-6.252194">
        <ele>214.766</ele>
        <time>2019-06-19T11:35:59Z</time>
      </trkpt>
      <trkpt lat="43.406410" lon="-6.252010">
        <ele>214.984</ele>
        <time>2019-06-19T11:36:00Z</time>
      </trkpt>
      <trkpt lat="43.406353" lon="-6.251824">
        <ele>214.644</ele>
        <time>2019-06-19T11:36:01Z</time>
      </trkpt>
      <trkpt lat="43.406289" lon="-6.251633">
        <ele>214.214</ele>
        <time>2019-06-19T11:36:02Z</time>
      </trkpt>
      <trkpt lat="43.406228" lon="-6.251430">
        <ele>213.754</ele>
        <time>2019-06-19T11:36:03Z</time>
      </trkpt>
      <trkpt lat="43.406164" lon="-6.251230">
        <ele>213.309</ele>
        <time>2019-06-19T11:36:04Z</time>
      </trkpt>
      <trkpt lat="43.406107" lon="-6.251030">
        <ele>212.408</ele>
        <time>2019-06-19T11:36:05Z</time>
      </trkpt>
      <trkpt lat="43.406047" lon="-6.250823">
        <ele>211.494</ele>
        <time>2019-06-19T11:36:06Z</time>
      </trkpt>
      <trkpt lat="43.405983" lon="-6.250618">
        <ele>210.888</ele>
        <time>2019-06-19T11:36:07Z</time>
      </trkpt>
      <trkpt lat="43.405922" lon="-6.250410">
        <ele>209.829</ele>
        <time>2019-06-19T11:36:08Z</time>
      </trkpt>
      <trkpt lat="43.405859" lon="-6.250197">
        <ele>208.772</ele>
        <time>2019-06-19T11:36:09Z</time>
      </trkpt>
      <trkpt lat="43.405797" lon="-6.249985">
        <ele>207.842</ele>
        <time>2019-06-19T11:36:10Z</time>
      </trkpt>
      <trkpt lat="43.405735" lon="-6.249773">
        <ele>206.868</ele>
        <time>2019-06-19T11:36:11Z</time>
      </trkpt>
      <trkpt lat="43.405674" lon="-6.249553">
        <ele>205.866</ele>
        <time>2019-06-19T11:36:12Z</time>
      </trkpt>
      <trkpt lat="43.405610" lon="-6.249342">
        <ele>204.836</ele>
        <time>2019-06-19T11:36:13Z</time>
      </trkpt>
      <trkpt lat="43.405549" lon="-6.249139">
        <ele>203.982</ele>
        <time>2019-06-19T11:36:14Z</time>
      </trkpt>
      <trkpt lat="43.405467" lon="-6.248949">
        <ele>203.243</ele>
        <time>2019-06-19T11:36:15Z</time>
      </trkpt>
      <trkpt lat="43.405407" lon="-6.248754">
        <ele>202.517</ele>
        <time>2019-06-19T11:36:16Z</time>
      </trkpt>
      <trkpt lat="43.405333" lon="-6.248556">
        <ele>201.808</ele>
        <time>2019-06-19T11:36:17Z</time>
      </trkpt>
      <trkpt lat="43.405271" lon="-6.248358">
        <ele>201.141</ele>
        <time>2019-06-19T11:36:18Z</time>
      </trkpt>
      <trkpt lat="43.405207" lon="-6.248149">
        <ele>200.655</ele>
        <time>2019-06-19T11:36:19Z</time>
      </trkpt>
      <trkpt lat="43.405133" lon="-6.247965">
        <ele>200.096</ele>
        <time>2019-06-19T11:36:20Z</time>
      </trkpt>
      <trkpt lat="43.405064" lon="-6.247773">
        <ele>199.539</ele>
        <time>2019-06-19T11:36:21Z</time>
      </trkpt>
      <trkpt lat="43.405002" lon="-6.247565">
        <ele>199.039</ele>
        <time>2019-06-19T11:36:22Z</time>
      </trkpt>
      <trkpt lat="43.404953" lon="-6.247374">
        <ele>197.725</ele>
        <time>2019-06-19T11:36:23Z</time>
      </trkpt>
      <trkpt lat="43.404888" lon="-6.247178">
        <ele>196.143</ele>
        <time>2019-06-19T11:36:24Z</time>
      </trkpt>
      <trkpt lat="43.404824" lon="-6.247007">
        <ele>195.453</ele>
        <time>2019-06-19T11:36:25Z</time>
      </trkpt>
      <trkpt lat="43.404766" lon="-6.246810">
        <ele>195.186</ele>
        <time>2019-06-19T11:36:26Z</time>
      </trkpt>
      <trkpt lat="43.404711" lon="-6.246612">
        <ele>195.060</ele>
        <time>2019-06-19T11:36:27Z</time>
      </trkpt>
      <trkpt lat="43.404637" lon="-6.246408">
        <ele>195.326</ele>
        <time>2019-06-19T11:36:28Z</time>
      </trkpt>
      <trkpt lat="43.404583" lon="-6.246228">
        <ele>195.808</ele>
        <time>2019-06-19T11:36:29Z</time>
      </trkpt>
      <trkpt lat="43.404533" lon="-6.246057">
        <ele>195.991</ele>
        <time>2019-06-19T11:36:30Z</time>
      </trkpt>
      <trkpt lat="43.404451" lon="-6.245874">
        <ele>195.245</ele>
        <time>2019-06-19T11:36:31Z</time>
      </trkpt>
      <trkpt lat="43.404404" lon="-6.245705">
        <ele>194.166</ele>
        <time>2019-06-19T11:36:32Z</time>
      </trkpt>
      <trkpt lat="43.404362" lon="-6.245557">
        <ele>193.139</ele>
        <time>2019-06-19T11:36:33Z</time>
      </trkpt>
      <trkpt lat="43.404306" lon="-6.245393">
        <ele>191.639</ele>
        <time>2019-06-19T11:36:34Z</time>
      </trkpt>
      <trkpt lat="43.404272" lon="-6.245236">
        <ele>190.755</ele>
        <time>2019-06-19T11:36:35Z</time>
      </trkpt>
      <trkpt lat="43.404227" lon="-6.245088">
        <ele>190.393</ele>
        <time>2019-06-19T11:36:36Z</time>
      </trkpt>
      <trkpt lat="43.404190" lon="-6.244958">
        <ele>190.193</ele>
        <time>2019-06-19T11:36:37Z</time>
      </trkpt>
      <trkpt lat="43.404149" lon="-6.244826">
        <ele>190.091</ele>
        <time>2019-06-19T11:36:38Z</time>
      </trkpt>
      <trkpt lat="43.404112" lon="-6.244692">
        <ele>190.181</ele>
        <time>2019-06-19T11:36:39Z</time>
      </trkpt>
      <trkpt lat="43.404080" lon="-6.244564">
        <ele>190.219</ele>
        <time>2019-06-19T11:36:40Z</time>
      </trkpt>
      <trkpt lat="43.404045" lon="-6.244432">
        <ele>190.108</ele>
        <time>2019-06-19T11:36:41Z</time>
      </trkpt>
      <trkpt lat="43.404000" lon="-6.244299">
        <ele>189.592</ele>
        <time>2019-06-19T11:36:42Z</time>
      </trkpt>
      <trkpt lat="43.403964" lon="-6.244155">
        <ele>188.856</ele>
        <time>2019-06-19T11:36:43Z</time>
      </trkpt>
      <trkpt lat="43.403919" lon="-6.243996">
        <ele>188.427</ele>
        <time>2019-06-19T11:36:44Z</time>
      </trkpt>
      <trkpt lat="43.403862" lon="-6.243808">
        <ele>188.130</ele>
        <time>2019-06-19T11:36:45Z</time>
      </trkpt>
      <trkpt lat="43.403801" lon="-6.243606">
        <ele>188.160</ele>
        <time>2019-06-19T11:36:46Z</time>
      </trkpt>
      <trkpt lat="43.403735" lon="-6.243383">
        <ele>187.856</ele>
        <time>2019-06-19T11:36:47Z</time>
      </trkpt>
      <trkpt lat="43.403678" lon="-6.243168">
        <ele>187.694</ele>
        <time>2019-06-19T11:36:48Z</time>
      </trkpt>
      <trkpt lat="43.403608" lon="-6.242936">
        <ele>187.094</ele>
        <time>2019-06-19T11:36:49Z</time>
      </trkpt>
      <trkpt lat="43.403542" lon="-6.242704">
        <ele>186.094</ele>
        <time>2019-06-19T11:36:50Z</time>
      </trkpt>
      <trkpt lat="43.403456" lon="-6.242460">
        <ele>184.457</ele>
        <time>2019-06-19T11:36:51Z</time>
      </trkpt>
      <trkpt lat="43.403384" lon="-6.242235">
        <ele>183.722</ele>
        <time>2019-06-19T11:36:52Z</time>
      </trkpt>
      <trkpt lat="43.403315" lon="-6.242015">
        <ele>182.708</ele>
        <time>2019-06-19T11:36:53Z</time>
      </trkpt>
      <trkpt lat="43.403239" lon="-6.241795">
        <ele>181.762</ele>
        <time>2019-06-19T11:36:54Z</time>
      </trkpt>
      <trkpt lat="43.403173" lon="-6.241583">
        <ele>180.896</ele>
        <time>2019-06-19T11:36:55Z</time>
      </trkpt>
      <trkpt lat="43.403125" lon="-6.241391">
        <ele>180.017</ele>
        <time>2019-06-19T11:36:56Z</time>
      </trkpt>
      <trkpt lat="43.403061" lon="-6.241190">
        <ele>179.650</ele>
        <time>2019-06-19T11:36:57Z</time>
      </trkpt>
      <trkpt lat="43.403007" lon="-6.240999">
        <ele>178.810</ele>
        <time>2019-06-19T11:36:58Z</time>
      </trkpt>
      <trkpt lat="43.402925" lon="-6.240760">
        <ele>178.296</ele>
        <time>2019-06-19T11:36:59Z</time>
      </trkpt>
      <trkpt lat="43.402868" lon="-6.240544">
        <ele>178.324</ele>
        <time>2019-06-19T11:37:00Z</time>
      </trkpt>
      <trkpt lat="43.402839" lon="-6.240335">
        <ele>178.474</ele>
        <time>2019-06-19T11:37:01Z</time>
      </trkpt>
      <trkpt lat="43.402746" lon="-6.240081">
        <ele>177.997</ele>
        <time>2019-06-19T11:37:02Z</time>
      </trkpt>
      <trkpt lat="43.402732" lon="-6.239880">
        <ele>177.823</ele>
        <time>2019-06-19T11:37:03Z</time>
      </trkpt>
      <trkpt lat="43.402679" lon="-6.239671">
        <ele>177.925</ele>
        <time>2019-06-19T11:37:04Z</time>
      </trkpt>
      <trkpt lat="43.402590" lon="-6.239469">
        <ele>177.908</ele>
        <time>2019-06-19T11:37:05Z</time>
      </trkpt>
      <trkpt lat="43.402525" lon="-6.239261">
        <ele>176.712</ele>
        <time>2019-06-19T11:37:06Z</time>
      </trkpt>
      <trkpt lat="43.402468" lon="-6.239116">
        <ele>175.686</ele>
        <time>2019-06-19T11:37:07Z</time>
      </trkpt>
      <trkpt lat="43.402389" lon="-6.238949">
        <ele>174.557</ele>
        <time>2019-06-19T11:37:08Z</time>
      </trkpt>
      <trkpt lat="43.402330" lon="-6.238751">
        <ele>174.040</ele>
        <time>2019-06-19T11:37:09Z</time>
      </trkpt>
      <trkpt lat="43.402265" lon="-6.238536">
        <ele>174.240</ele>
        <time>2019-06-19T11:37:10Z</time>
      </trkpt>
      <trkpt lat="43.402202" lon="-6.238337">
        <ele>174.666</ele>
        <time>2019-06-19T11:37:11Z</time>
      </trkpt>
      <trkpt lat="43.402154" lon="-6.238170">
        <ele>173.974</ele>
        <time>2019-06-19T11:37:12Z</time>
      </trkpt>
      <trkpt lat="43.402097" lon="-6.237984">
        <ele>173.224</ele>
        <time>2019-06-19T11:37:13Z</time>
      </trkpt>
      <trkpt lat="43.402024" lon="-6.237789">
        <ele>172.123</ele>
        <time>2019-06-19T11:37:14Z</time>
      </trkpt>
      <trkpt lat="43.401981" lon="-6.237650">
        <ele>172.083</ele>
        <time>2019-06-19T11:37:15Z</time>
      </trkpt>
      <trkpt lat="43.401923" lon="-6.237482">
        <ele>171.811</ele>
        <time>2019-06-19T11:37:16Z</time>
      </trkpt>
      <trkpt lat="43.401881" lon="-6.237340">
        <ele>171.808</ele>
        <time>2019-06-19T11:37:17Z</time>
      </trkpt>
      <trkpt lat="43.401852" lon="-6.237254">
        <ele>171.655</ele>
        <time>2019-06-19T11:37:18Z</time>
      </trkpt>
      <trkpt lat="43.401799" lon="-6.237163">
        <ele>170.689</ele>
        <time>2019-06-19T11:37:19Z</time>
      </trkpt>
      <trkpt lat="43.401739" lon="-6.237099">
        <ele>169.550</ele>
        <time>2019-06-19T11:37:20Z</time>
      </trkpt>
      <trkpt lat="43.401676" lon="-6.237052">
        <ele>168.513</ele>
        <time>2019-06-19T11:37:21Z</time>
      </trkpt>
      <trkpt lat="43.401573" lon="-6.237047">
        <ele>167.993</ele>
        <time>2019-06-19T11:37:23Z</time>
      </trkpt>
      <trkpt lat="43.401517" lon="-6.237077">
        <ele>167.799</ele>
        <time>2019-06-19T11:37:24Z</time>
      </trkpt>
      <trkpt lat="43.401476" lon="-6.237144">
        <ele>167.567</ele>
        <time>2019-06-19T11:37:25Z</time>
      </trkpt>
      <trkpt lat="43.401419" lon="-6.237241">
        <ele>167.297</ele>
        <time>2019-06-19T11:37:26Z</time>
      </trkpt>
      <trkpt lat="43.401365" lon="-6.237364">
        <ele>166.585</ele>
        <time>2019-06-19T11:37:27Z</time>
      </trkpt>
      <trkpt lat="43.401314" lon="-6.237508">
        <ele>166.389</ele>
        <time>2019-06-19T11:37:28Z</time>
      </trkpt>
      <trkpt lat="43.401267" lon="-6.237664">
        <ele>166.417</ele>
        <time>2019-06-19T11:37:29Z</time>
      </trkpt>
      <trkpt lat="43.401225" lon="-6.237835">
        <ele>166.808</ele>
        <time>2019-06-19T11:37:30Z</time>
      </trkpt>
      <trkpt lat="43.401185" lon="-6.238020">
        <ele>167.641</ele>
        <time>2019-06-19T11:37:31Z</time>
      </trkpt>
      <trkpt lat="43.401143" lon="-6.238225">
        <ele>169.025</ele>
        <time>2019-06-19T11:37:32Z</time>
      </trkpt>
      <trkpt lat="43.401106" lon="-6.238441">
        <ele>170.486</ele>
        <time>2019-06-19T11:37:33Z</time>
      </trkpt>
      <trkpt lat="43.401074" lon="-6.238662">
        <ele>171.039</ele>
        <time>2019-06-19T11:37:34Z</time>
      </trkpt>
      <trkpt lat="43.401030" lon="-6.238891">
        <ele>171.349</ele>
        <time>2019-06-19T11:37:35Z</time>
      </trkpt>
      <trkpt lat="43.400988" lon="-6.239126">
        <ele>171.415</ele>
        <time>2019-06-19T11:37:36Z</time>
      </trkpt>
      <trkpt lat="43.400938" lon="-6.239348">
        <ele>172.313</ele>
        <time>2019-06-19T11:37:37Z</time>
      </trkpt>
      <trkpt lat="43.400887" lon="-6.239588">
        <ele>173.773</ele>
        <time>2019-06-19T11:37:38Z</time>
      </trkpt>
      <trkpt lat="43.400844" lon="-6.239841">
        <ele>174.974</ele>
        <time>2019-06-19T11:37:39Z</time>
      </trkpt>
      <trkpt lat="43.400793" lon="-6.240116">
        <ele>175.856</ele>
        <time>2019-06-19T11:37:40Z</time>
      </trkpt>
      <trkpt lat="43.400742" lon="-6.240376">
        <ele>177.021</ele>
        <time>2019-06-19T11:37:41Z</time>
      </trkpt>
      <trkpt lat="43.400687" lon="-6.240627">
        <ele>178.408</ele>
        <time>2019-06-19T11:37:42Z</time>
      </trkpt>
      <trkpt lat="43.400640" lon="-6.240877">
        <ele>180.220</ele>
        <time>2019-06-19T11:37:43Z</time>
      </trkpt>
      <trkpt lat="43.400591" lon="-6.241118">
        <ele>180.954</ele>
        <time>2019-06-19T11:37:44Z</time>
      </trkpt>
      <trkpt lat="43.400530" lon="-6.241367">
        <ele>181.245</ele>
        <time>2019-06-19T11:37:45Z</time>
      </trkpt>
      <trkpt lat="43.400479" lon="-6.241619">
        <ele>182.238</ele>
        <time>2019-06-19T11:37:46Z</time>
      </trkpt>
      <trkpt lat="43.400436" lon="-6.241884">
        <ele>183.898</ele>
        <time>2019-06-19T11:37:47Z</time>
      </trkpt>
      <trkpt lat="43.400386" lon="-6.242146">
        <ele>184.944</ele>
        <time>2019-06-19T11:37:48Z</time>
      </trkpt>
      <trkpt lat="43.400323" lon="-6.242408">
        <ele>185.912</ele>
        <time>2019-06-19T11:37:49Z</time>
      </trkpt>
      <trkpt lat="43.400272" lon="-6.242689">
        <ele>187.372</ele>
        <time>2019-06-19T11:37:50Z</time>
      </trkpt>
      <trkpt lat="43.400220" lon="-6.242964">
        <ele>188.681</ele>
        <time>2019-06-19T11:37:51Z</time>
      </trkpt>
      <trkpt lat="43.400178" lon="-6.243239">
        <ele>190.161</ele>
        <time>2019-06-19T11:37:52Z</time>
      </trkpt>
      <trkpt lat="43.400116" lon="-6.243534">
        <ele>190.717</ele>
        <time>2019-06-19T11:37:53Z</time>
      </trkpt>
      <trkpt lat="43.400070" lon="-6.243820">
        <ele>192.408</ele>
        <time>2019-06-19T11:37:54Z</time>
      </trkpt>
      <trkpt lat="43.400027" lon="-6.244102">
        <ele>194.571</ele>
        <time>2019-06-19T11:37:55Z</time>
      </trkpt>
      <trkpt lat="43.399979" lon="-6.244395">
        <ele>196.695</ele>
        <time>2019-06-19T11:37:56Z</time>
      </trkpt>
      <trkpt lat="43.399923" lon="-6.244672">
        <ele>198.946</ele>
        <time>2019-06-19T11:37:57Z</time>
      </trkpt>
      <trkpt lat="43.399856" lon="-6.244965">
        <ele>200.429</ele>
        <time>2019-06-19T11:37:58Z</time>
      </trkpt>
      <trkpt lat="43.399794" lon="-6.245253">
        <ele>201.099</ele>
        <time>2019-06-19T11:37:59Z</time>
      </trkpt>
      <trkpt lat="43.399731" lon="-6.245540">
        <ele>201.985</ele>
        <time>2019-06-19T11:38:00Z</time>
      </trkpt>
      <trkpt lat="43.399672" lon="-6.245833">
        <ele>202.763</ele>
        <time>2019-06-19T11:38:01Z</time>
      </trkpt>
      <trkpt lat="43.399621" lon="-6.246107">
        <ele>204.293</ele>
        <time>2019-06-19T11:38:02Z</time>
      </trkpt>
      <trkpt lat="43.399558" lon="-6.246405">
        <ele>206.169</ele>
        <time>2019-06-19T11:38:03Z</time>
      </trkpt>
      <trkpt lat="43.399501" lon="-6.246690">
        <ele>207.404</ele>
        <time>2019-06-19T11:38:04Z</time>
      </trkpt>
      <trkpt lat="43.399445" lon="-6.246972">
        <ele>207.024</ele>
        <time>2019-06-19T11:38:05Z</time>
      </trkpt>
      <trkpt lat="43.399388" lon="-6.247244">
        <ele>208.108</ele>
        <time>2019-06-19T11:38:06Z</time>
      </trkpt>
      <trkpt lat="43.399334" lon="-6.247510">
        <ele>209.299</ele>
        <time>2019-06-19T11:38:07Z</time>
      </trkpt>
      <trkpt lat="43.399282" lon="-6.247767">
        <ele>210.663</ele>
        <time>2019-06-19T11:38:08Z</time>
      </trkpt>
      <trkpt lat="43.399230" lon="-6.248040">
        <ele>212.424</ele>
        <time>2019-06-19T11:38:09Z</time>
      </trkpt>
      <trkpt lat="43.399182" lon="-6.248304">
        <ele>213.757</ele>
        <time>2019-06-19T11:38:10Z</time>
      </trkpt>
      <trkpt lat="43.399129" lon="-6.248556">
        <ele>214.887</ele>
        <time>2019-06-19T11:38:11Z</time>
      </trkpt>
      <trkpt lat="43.399080" lon="-6.248816">
        <ele>214.373</ele>
        <time>2019-06-19T11:38:12Z</time>
      </trkpt>
      <trkpt lat="43.399048" lon="-6.249081">
        <ele>213.661</ele>
        <time>2019-06-19T11:38:13Z</time>
      </trkpt>
      <trkpt lat="43.399025" lon="-6.249349">
        <ele>213.871</ele>
        <time>2019-06-19T11:38:14Z</time>
      </trkpt>
      <trkpt lat="43.399035" lon="-6.249606">
        <ele>215.226</ele>
        <time>2019-06-19T11:38:15Z</time>
      </trkpt>
      <trkpt lat="43.399067" lon="-6.249876">
        <ele>218.447</ele>
        <time>2019-06-19T11:38:16Z</time>
      </trkpt>
      <trkpt lat="43.399113" lon="-6.250156">
        <ele>223.311</ele>
        <time>2019-06-19T11:38:17Z</time>
      </trkpt>
      <trkpt lat="43.399184" lon="-6.250406">
        <ele>225.908</ele>
        <time>2019-06-19T11:38:18Z</time>
      </trkpt>
      <trkpt lat="43.399269" lon="-6.250652">
        <ele>226.585</ele>
        <time>2019-06-19T11:38:19Z</time>
      </trkpt>
      <trkpt lat="43.399356" lon="-6.250897">
        <ele>228.649</ele>
        <time>2019-06-19T11:38:20Z</time>
      </trkpt>
      <trkpt lat="43.399510" lon="-6.251128">
        <ele>230.330</ele>
        <time>2019-06-19T11:38:21Z</time>
      </trkpt>
      <trkpt lat="43.399640" lon="-6.251328">
        <ele>233.063</ele>
        <time>2019-06-19T11:38:22Z</time>
      </trkpt>
      <trkpt lat="43.399805" lon="-6.251492">
        <ele>235.263</ele>
        <time>2019-06-19T11:38:23Z</time>
      </trkpt>
      <trkpt lat="43.399953" lon="-6.251657">
        <ele>238.629</ele>
        <time>2019-06-19T11:38:24Z</time>
      </trkpt>
      <trkpt lat="43.400189" lon="-6.251752">
        <ele>241.087</ele>
        <time>2019-06-19T11:38:25Z</time>
      </trkpt>
      <trkpt lat="43.400385" lon="-6.251859">
        <ele>243.867</ele>
        <time>2019-06-19T11:38:26Z</time>
      </trkpt>
      <trkpt lat="43.400589" lon="-6.251948">
        <ele>245.653</ele>
        <time>2019-06-19T11:38:27Z</time>
      </trkpt>
      <trkpt lat="43.400796" lon="-6.252026">
        <ele>244.304</ele>
        <time>2019-06-19T11:38:28Z</time>
      </trkpt>
      <trkpt lat="43.401004" lon="-6.252120">
        <ele>245.114</ele>
        <time>2019-06-19T11:38:29Z</time>
      </trkpt>
      <trkpt lat="43.401190" lon="-6.252214">
        <ele>244.708</ele>
        <time>2019-06-19T11:38:30Z</time>
      </trkpt>
      <trkpt lat="43.401372" lon="-6.252323">
        <ele>244.618</ele>
        <time>2019-06-19T11:38:31Z</time>
      </trkpt>
      <trkpt lat="43.401583" lon="-6.252436">
        <ele>244.312</ele>
        <time>2019-06-19T11:38:32Z</time>
      </trkpt>
      <trkpt lat="43.401788" lon="-6.252576">
        <ele>246.093</ele>
        <time>2019-06-19T11:38:33Z</time>
      </trkpt>
      <trkpt lat="43.401965" lon="-6.252742">
        <ele>247.336</ele>
        <time>2019-06-19T11:38:34Z</time>
      </trkpt>
      <trkpt lat="43.402124" lon="-6.252927">
        <ele>248.986</ele>
        <time>2019-06-19T11:38:35Z</time>
      </trkpt>
      <trkpt lat="43.402245" lon="-6.253159">
        <ele>251.852</ele>
        <time>2019-06-19T11:38:36Z</time>
      </trkpt>
      <trkpt lat="43.402358" lon="-6.253390">
        <ele>255.120</ele>
        <time>2019-06-19T11:38:37Z</time>
      </trkpt>
      <trkpt lat="43.402477" lon="-6.253635">
        <ele>257.340</ele>
        <time>2019-06-19T11:38:38Z</time>
      </trkpt>
      <trkpt lat="43.402587" lon="-6.253883">
        <ele>259.986</ele>
        <time>2019-06-19T11:38:39Z</time>
      </trkpt>
      <trkpt lat="43.402627" lon="-6.254194">
        <ele>262.160</ele>
        <time>2019-06-19T11:38:40Z</time>
      </trkpt>
      <trkpt lat="43.402706" lon="-6.254475">
        <ele>262.526</ele>
        <time>2019-06-19T11:38:41Z</time>
      </trkpt>
      <trkpt lat="43.402706" lon="-6.254814">
        <ele>262.008</ele>
        <time>2019-06-19T11:38:42Z</time>
      </trkpt>
      <trkpt lat="43.402696" lon="-6.255101">
        <ele>261.081</ele>
        <time>2019-06-19T11:38:43Z</time>
      </trkpt>
      <trkpt lat="43.402723" lon="-6.255398">
        <ele>258.335</ele>
        <time>2019-06-19T11:38:44Z</time>
      </trkpt>
      <trkpt lat="43.402726" lon="-6.255695">
        <ele>257.486</ele>
        <time>2019-06-19T11:38:45Z</time>
      </trkpt>
      <trkpt lat="43.402739" lon="-6.255986">
        <ele>257.789</ele>
        <time>2019-06-19T11:38:46Z</time>
      </trkpt>
      <trkpt lat="43.402822" lon="-6.256234">
        <ele>256.999</ele>
        <time>2019-06-19T11:38:47Z</time>
      </trkpt>
      <trkpt lat="43.402904" lon="-6.256500">
        <ele>257.875</ele>
        <time>2019-06-19T11:38:48Z</time>
      </trkpt>
      <trkpt lat="43.403016" lon="-6.256771">
        <ele>260.493</ele>
        <time>2019-06-19T11:38:49Z</time>
      </trkpt>
      <trkpt lat="43.403171" lon="-6.257013">
        <ele>262.543</ele>
        <time>2019-06-19T11:38:50Z</time>
      </trkpt>
      <trkpt lat="43.403312" lon="-6.257256">
        <ele>262.453</ele>
        <time>2019-06-19T11:38:51Z</time>
      </trkpt>
      <trkpt lat="43.403458" lon="-6.257475">
        <ele>259.304</ele>
        <time>2019-06-19T11:38:52Z</time>
      </trkpt>
      <trkpt lat="43.403634" lon="-6.257712">
        <ele>255.614</ele>
        <time>2019-06-19T11:38:53Z</time>
      </trkpt>
      <trkpt lat="43.403773" lon="-6.257958">
        <ele>254.608</ele>
        <time>2019-06-19T11:38:54Z</time>
      </trkpt>
      <trkpt lat="43.403918" lon="-6.258202">
        <ele>257.838</ele>
        <time>2019-06-19T11:38:55Z</time>
      </trkpt>
      <trkpt lat="43.404064" lon="-6.258450">
        <ele>261.982</ele>
        <time>2019-06-19T11:38:56Z</time>
      </trkpt>
      <trkpt lat="43.404200" lon="-6.258702">
        <ele>264.853</ele>
        <time>2019-06-19T11:38:57Z</time>
      </trkpt>
      <trkpt lat="43.404318" lon="-6.258979">
        <ele>263.656</ele>
        <time>2019-06-19T11:38:58Z</time>
      </trkpt>
      <trkpt lat="43.404438" lon="-6.259273">
        <ele>261.096</ele>
        <time>2019-06-19T11:38:59Z</time>
      </trkpt>
      <trkpt lat="43.404551" lon="-6.259573">
        <ele>261.722</ele>
        <time>2019-06-19T11:39:00Z</time>
      </trkpt>
      <trkpt lat="43.404662" lon="-6.259873">
        <ele>264.140</ele>
        <time>2019-06-19T11:39:01Z</time>
      </trkpt>
      <trkpt lat="43.404766" lon="-6.260177">
        <ele>266.590</ele>
        <time>2019-06-19T11:39:02Z</time>
      </trkpt>
      <trkpt lat="43.404870" lon="-6.260471">
        <ele>268.497</ele>
        <time>2019-06-19T11:39:03Z</time>
      </trkpt>
      <trkpt lat="43.404967" lon="-6.260756">
        <ele>269.723</ele>
        <time>2019-06-19T11:39:04Z</time>
      </trkpt>
      <trkpt lat="43.405066" lon="-6.261038">
        <ele>271.025</ele>
        <time>2019-06-19T11:39:05Z</time>
      </trkpt>
      <trkpt lat="43.405151" lon="-6.261313">
        <ele>273.808</ele>
        <time>2019-06-19T11:39:06Z</time>
      </trkpt>
      <trkpt lat="43.405224" lon="-6.261595">
        <ele>279.182</ele>
        <time>2019-06-19T11:39:07Z</time>
      </trkpt>
      <trkpt lat="43.405277" lon="-6.261888">
        <ele>283.266</ele>
        <time>2019-06-19T11:39:08Z</time>
      </trkpt>
      <trkpt lat="43.405323" lon="-6.262182">
        <ele>281.627</ele>
        <time>2019-06-19T11:39:09Z</time>
      </trkpt>
      <trkpt lat="43.405329" lon="-6.262482">
        <ele>284.010</ele>
        <time>2019-06-19T11:39:10Z</time>
      </trkpt>
      <trkpt lat="43.405343" lon="-6.262777">
        <ele>285.410</ele>
        <time>2019-06-19T11:39:11Z</time>
      </trkpt>
      <trkpt lat="43.405359" lon="-6.263066">
        <ele>287.686</ele>
        <time>2019-06-19T11:39:12Z</time>
      </trkpt>
      <trkpt lat="43.405373" lon="-6.263330">
        <ele>288.924</ele>
        <time>2019-06-19T11:39:13Z</time>
      </trkpt>
      <trkpt lat="43.405399" lon="-6.263600">
        <ele>290.044</ele>
        <time>2019-06-19T11:39:14Z</time>
      </trkpt>
      <trkpt lat="43.405431" lon="-6.263871">
        <ele>289.586</ele>
        <time>2019-06-19T11:39:15Z</time>
      </trkpt>
      <trkpt lat="43.405474" lon="-6.264120">
        <ele>289.460</ele>
        <time>2019-06-19T11:39:16Z</time>
      </trkpt>
      <trkpt lat="43.405514" lon="-6.264373">
        <ele>291.426</ele>
        <time>2019-06-19T11:39:17Z</time>
      </trkpt>
      <trkpt lat="43.405674" lon="-6.264612">
        <ele>295.308</ele>
        <time>2019-06-19T11:39:18Z</time>
      </trkpt>
      <trkpt lat="43.405767" lon="-6.264848">
        <ele>299.421</ele>
        <time>2019-06-19T11:39:19Z</time>
      </trkpt>
      <trkpt lat="43.405904" lon="-6.265052">
        <ele>302.655</ele>
        <time>2019-06-19T11:39:20Z</time>
      </trkpt>
      <trkpt lat="43.406030" lon="-6.265232">
        <ele>306.316</ele>
        <time>2019-06-19T11:39:21Z</time>
      </trkpt>
      <trkpt lat="43.406170" lon="-6.265431">
        <ele>310.999</ele>
        <time>2019-06-19T11:39:22Z</time>
      </trkpt>
      <trkpt lat="43.406319" lon="-6.265632">
        <ele>315.339</ele>
        <time>2019-06-19T11:39:23Z</time>
      </trkpt>
      <trkpt lat="43.406477" lon="-6.265836">
        <ele>318.015</ele>
        <time>2019-06-19T11:39:24Z</time>
      </trkpt>
      <trkpt lat="43.406627" lon="-6.266034">
        <ele>318.963</ele>
        <time>2019-06-19T11:39:25Z</time>
      </trkpt>
      <trkpt lat="43.406745" lon="-6.266226">
        <ele>319.013</ele>
        <time>2019-06-19T11:39:26Z</time>
      </trkpt>
      <trkpt lat="43.406881" lon="-6.266406">
        <ele>318.284</ele>
        <time>2019-06-19T11:39:27Z</time>
      </trkpt>
      <trkpt lat="43.407025" lon="-6.266584">
        <ele>319.107</ele>
        <time>2019-06-19T11:39:28Z</time>
      </trkpt>
      <trkpt lat="43.407189" lon="-6.266779">
        <ele>321.417</ele>
        <time>2019-06-19T11:39:29Z</time>
      </trkpt>
      <trkpt lat="43.407310" lon="-6.266967">
        <ele>324.108</ele>
        <time>2019-06-19T11:39:30Z</time>
      </trkpt>
      <trkpt lat="43.407464" lon="-6.267165">
        <ele>326.561</ele>
        <time>2019-06-19T11:39:31Z</time>
      </trkpt>
      <trkpt lat="43.407616" lon="-6.267363">
        <ele>327.775</ele>
        <time>2019-06-19T11:39:32Z</time>
      </trkpt>
      <trkpt lat="43.407762" lon="-6.267552">
        <ele>328.646</ele>
        <time>2019-06-19T11:39:33Z</time>
      </trkpt>
      <trkpt lat="43.407933" lon="-6.267731">
        <ele>329.679</ele>
        <time>2019-06-19T11:39:34Z</time>
      </trkpt>
      <trkpt lat="43.408099" lon="-6.267894">
        <ele>330.099</ele>
        <time>2019-06-19T11:39:35Z</time>
      </trkpt>
      <trkpt lat="43.408279" lon="-6.268027">
        <ele>330.815</ele>
        <time>2019-06-19T11:39:36Z</time>
      </trkpt>
      <trkpt lat="43.408450" lon="-6.268140">
        <ele>332.913</ele>
        <time>2019-06-19T11:39:37Z</time>
      </trkpt>
      <trkpt lat="43.408645" lon="-6.268204">
        <ele>333.893</ele>
        <time>2019-06-19T11:39:38Z</time>
      </trkpt>
      <trkpt lat="43.408838" lon="-6.268278">
        <ele>335.276</ele>
        <time>2019-06-19T11:39:39Z</time>
      </trkpt>
      <trkpt lat="43.409034" lon="-6.268363">
        <ele>336.590</ele>
        <time>2019-06-19T11:39:40Z</time>
      </trkpt>
      <trkpt lat="43.409223" lon="-6.268477">
        <ele>338.319</ele>
        <time>2019-06-19T11:39:41Z</time>
      </trkpt>
      <trkpt lat="43.409393" lon="-6.268596">
        <ele>337.908</ele>
        <time>2019-06-19T11:39:42Z</time>
      </trkpt>
      <trkpt lat="43.409559" lon="-6.268722">
        <ele>341.720</ele>
        <time>2019-06-19T11:39:43Z</time>
      </trkpt>
      <trkpt lat="43.409656" lon="-6.268855">
        <ele>349.874</ele>
        <time>2019-06-19T11:39:44Z</time>
      </trkpt>
      <trkpt lat="43.409771" lon="-6.268987">
        <ele>358.615</ele>
        <time>2019-06-19T11:39:45Z</time>
      </trkpt>
      <trkpt lat="43.409902" lon="-6.269061">
        <ele>358.618</ele>
        <time>2019-06-19T11:39:46Z</time>
      </trkpt>
      <trkpt lat="43.410031" lon="-6.269110">
        <ele>357.048</ele>
        <time>2019-06-19T11:39:47Z</time>
      </trkpt>
      <trkpt lat="43.410182" lon="-6.269114">
        <ele>354.344</ele>
        <time>2019-06-19T11:39:48Z</time>
      </trkpt>
      <trkpt lat="43.410337" lon="-6.269115">
        <ele>352.522</ele>
        <time>2019-06-19T11:39:49Z</time>
      </trkpt>
      <trkpt lat="43.410485" lon="-6.269113">
        <ele>352.282</ele>
        <time>2019-06-19T11:39:50Z</time>
      </trkpt>
      <trkpt lat="43.410612" lon="-6.269108">
        <ele>351.582</ele>
        <time>2019-06-19T11:39:51Z</time>
      </trkpt>
      <trkpt lat="43.410714" lon="-6.269144">
        <ele>352.143</ele>
        <time>2019-06-19T11:39:52Z</time>
      </trkpt>
      <trkpt lat="43.410850" lon="-6.269196">
        <ele>353.117</ele>
        <time>2019-06-19T11:39:53Z</time>
      </trkpt>
      <trkpt lat="43.410981" lon="-6.269259">
        <ele>355.308</ele>
        <time>2019-06-19T11:39:54Z</time>
      </trkpt>
      <trkpt lat="43.411109" lon="-6.269329">
        <ele>358.991</ele>
        <time>2019-06-19T11:39:55Z</time>
      </trkpt>
      <trkpt lat="43.411229" lon="-6.269386">
        <ele>362.435</ele>
        <time>2019-06-19T11:39:56Z</time>
      </trkpt>
      <trkpt lat="43.411344" lon="-6.269433">
        <ele>366.076</ele>
        <time>2019-06-19T11:39:57Z</time>
      </trkpt>
      <trkpt lat="43.411444" lon="-6.269488">
        <ele>365.569</ele>
        <time>2019-06-19T11:39:58Z</time>
      </trkpt>
      <trkpt lat="43.411546" lon="-6.269549">
        <ele>362.379</ele>
        <time>2019-06-19T11:39:59Z</time>
      </trkpt>
      <trkpt lat="43.411644" lon="-6.269618">
        <ele>360.085</ele>
        <time>2019-06-19T11:40:00Z</time>
      </trkpt>
      <trkpt lat="43.411729" lon="-6.269693">
        <ele>358.913</ele>
        <time>2019-06-19T11:40:01Z</time>
      </trkpt>
      <trkpt lat="43.411744" lon="-6.269888">
        <ele>361.543</ele>
        <time>2019-06-19T11:40:02Z</time>
      </trkpt>
      <trkpt lat="43.411779" lon="-6.270045">
        <ele>361.999</ele>
        <time>2019-06-19T11:40:03Z</time>
      </trkpt>
      <trkpt lat="43.411784" lon="-6.270210">
        <ele>363.007</ele>
        <time>2019-06-19T11:40:04Z</time>
      </trkpt>
      <trkpt lat="43.411763" lon="-6.270405">
        <ele>363.927</ele>
        <time>2019-06-19T11:40:05Z</time>
      </trkpt>
      <trkpt lat="43.411731" lon="-6.270596">
        <ele>364.108</ele>
        <time>2019-06-19T11:40:06Z</time>
      </trkpt>
      <trkpt lat="43.411659" lon="-6.270806">
        <ele>363.922</ele>
        <time>2019-06-19T11:40:07Z</time>
      </trkpt>
      <trkpt lat="43.411597" lon="-6.271025">
        <ele>365.076</ele>
        <time>2019-06-19T11:40:08Z</time>
      </trkpt>
      <trkpt lat="43.411534" lon="-6.271242">
        <ele>368.157</ele>
        <time>2019-06-19T11:40:09Z</time>
      </trkpt>
      <trkpt lat="43.411467" lon="-6.271417">
        <ele>372.350</ele>
        <time>2019-06-19T11:40:10Z</time>
      </trkpt>
      <trkpt lat="43.411395" lon="-6.271628">
        <ele>375.960</ele>
        <time>2019-06-19T11:40:11Z</time>
      </trkpt>
      <trkpt lat="43.411312" lon="-6.271821">
        <ele>378.346</ele>
        <time>2019-06-19T11:40:12Z</time>
      </trkpt>
      <trkpt lat="43.411251" lon="-6.272037">
        <ele>379.144</ele>
        <time>2019-06-19T11:40:13Z</time>
      </trkpt>
      <trkpt lat="43.411164" lon="-6.272239">
        <ele>380.164</ele>
        <time>2019-06-19T11:40:14Z</time>
      </trkpt>
      <trkpt lat="43.411118" lon="-6.272342">
        <ele>379.728</ele>
        <time>2019-06-19T11:40:15Z</time>
      </trkpt>
      <trkpt lat="43.411056" lon="-6.272479">
        <ele>379.389</ele>
        <time>2019-06-19T11:40:16Z</time>
      </trkpt>
      <trkpt lat="43.410981" lon="-6.272610">
        <ele>381.417</ele>
        <time>2019-06-19T11:40:17Z</time>
      </trkpt>
      <trkpt lat="43.410888" lon="-6.272684">
        <ele>382.808</ele>
        <time>2019-06-19T11:40:18Z</time>
      </trkpt>
      <trkpt lat="43.410827" lon="-6.272792">
        <ele>382.495</ele>
        <time>2019-06-19T11:40:19Z</time>
      </trkpt>
      <trkpt lat="43.410751" lon="-6.272897">
        <ele>385.879</ele>
        <time>2019-06-19T11:40:20Z</time>
      </trkpt>
      <trkpt lat="43.410685" lon="-6.273021">
        <ele>387.820</ele>
        <time>2019-06-19T11:40:21Z</time>
      </trkpt>
      <trkpt lat="43.410644" lon="-6.273150">
        <ele>388.973</ele>
        <time>2019-06-19T11:40:22Z</time>
      </trkpt>
      <trkpt lat="43.410574" lon="-6.273274">
        <ele>391.263</ele>
        <time>2019-06-19T11:40:23Z</time>
      </trkpt>
      <trkpt lat="43.410548" lon="-6.273386">
        <ele>392.459</ele>
        <time>2019-06-19T11:40:24Z</time>
      </trkpt>
      <trkpt lat="43.410564" lon="-6.273484">
        <ele>392.477</ele>
        <time>2019-06-19T11:40:25Z</time>
      </trkpt>
      <trkpt lat="43.410527" lon="-6.273602">
        <ele>393.687</ele>
        <time>2019-06-19T11:40:26Z</time>
      </trkpt>
      <trkpt lat="43.410530" lon="-6.273684">
        <ele>393.311</ele>
        <time>2019-06-19T11:40:27Z</time>
      </trkpt>
      <trkpt lat="43.410560" lon="-6.273775">
        <ele>392.421</ele>
        <time>2019-06-19T11:40:28Z</time>
      </trkpt>
      <trkpt lat="43.410608" lon="-6.273796">
        <ele>392.003</ele>
        <time>2019-06-19T11:40:30Z</time>
      </trkpt>
      <trkpt lat="43.410732" lon="-6.273775">
        <ele>391.008</ele>
        <time>2019-06-19T11:40:31Z</time>
      </trkpt>
      <trkpt lat="43.410779" lon="-6.273698">
        <ele>390.234</ele>
        <time>2019-06-19T11:40:32Z</time>
      </trkpt>
      <trkpt lat="43.411006" lon="-6.273500">
        <ele>390.898</ele>
        <time>2019-06-19T11:40:33Z</time>
      </trkpt>
      <trkpt lat="43.411114" lon="-6.273447">
        <ele>392.799</ele>
        <time>2019-06-19T11:40:34Z</time>
      </trkpt>
      <trkpt lat="43.411250" lon="-6.273406">
        <ele>394.342</ele>
        <time>2019-06-19T11:40:35Z</time>
      </trkpt>
      <trkpt lat="43.411388" lon="-6.273360">
        <ele>395.612</ele>
        <time>2019-06-19T11:40:36Z</time>
      </trkpt>
      <trkpt lat="43.411539" lon="-6.273339">
        <ele>394.658</ele>
        <time>2019-06-19T11:40:37Z</time>
      </trkpt>
      <trkpt lat="43.411659" lon="-6.273349">
        <ele>394.486</ele>
        <time>2019-06-19T11:40:38Z</time>
      </trkpt>
      <trkpt lat="43.411784" lon="-6.273356">
        <ele>393.836</ele>
        <time>2019-06-19T11:40:39Z</time>
      </trkpt>
      <trkpt lat="43.411904" lon="-6.273394">
        <ele>394.062</ele>
        <time>2019-06-19T11:40:40Z</time>
      </trkpt>
      <trkpt lat="43.412013" lon="-6.273439">
        <ele>394.983</ele>
        <time>2019-06-19T11:40:41Z</time>
      </trkpt>
      <trkpt lat="43.412133" lon="-6.273473">
        <ele>395.711</ele>
        <time>2019-06-19T11:40:42Z</time>
      </trkpt>
      <trkpt lat="43.412239" lon="-6.273494">
        <ele>396.108</ele>
        <time>2019-06-19T11:40:43Z</time>
      </trkpt>
      <trkpt lat="43.412352" lon="-6.273495">
        <ele>395.549</ele>
        <time>2019-06-19T11:40:44Z</time>
      </trkpt>
      <trkpt lat="43.412466" lon="-6.273475">
        <ele>394.393</ele>
        <time>2019-06-19T11:40:45Z</time>
      </trkpt>
      <trkpt lat="43.412587" lon="-6.273375">
        <ele>392.034</ele>
        <time>2019-06-19T11:40:46Z</time>
      </trkpt>
      <trkpt lat="43.412692" lon="-6.273291">
        <ele>390.517</ele>
        <time>2019-06-19T11:40:47Z</time>
      </trkpt>
      <trkpt lat="43.412778" lon="-6.273176">
        <ele>389.257</ele>
        <time>2019-06-19T11:40:48Z</time>
      </trkpt>
      <trkpt lat="43.412870" lon="-6.273073">
        <ele>388.653</ele>
        <time>2019-06-19T11:40:49Z</time>
      </trkpt>
      <trkpt lat="43.412958" lon="-6.272984">
        <ele>389.831</ele>
        <time>2019-06-19T11:40:50Z</time>
      </trkpt>
      <trkpt lat="43.413052" lon="-6.272901">
        <ele>391.071</ele>
        <time>2019-06-19T11:40:51Z</time>
      </trkpt>
      <trkpt lat="43.413145" lon="-6.272850">
        <ele>391.496</ele>
        <time>2019-06-19T11:40:52Z</time>
      </trkpt>
      <trkpt lat="43.413252" lon="-6.272821">
        <ele>391.831</ele>
        <time>2019-06-19T11:40:53Z</time>
      </trkpt>
      <trkpt lat="43.413376" lon="-6.272848">
        <ele>392.324</ele>
        <time>2019-06-19T11:40:54Z</time>
      </trkpt>
      <trkpt lat="43.413478" lon="-6.272978">
        <ele>393.108</ele>
        <time>2019-06-19T11:40:55Z</time>
      </trkpt>
      <trkpt lat="43.413574" lon="-6.273047">
        <ele>393.832</ele>
        <time>2019-06-19T11:40:56Z</time>
      </trkpt>
      <trkpt lat="43.413712" lon="-6.273134">
        <ele>396.516</ele>
        <time>2019-06-19T11:40:57Z</time>
      </trkpt>
      <trkpt lat="43.413834" lon="-6.273216">
        <ele>400.157</ele>
        <time>2019-06-19T11:40:58Z</time>
      </trkpt>
      <trkpt lat="43.413942" lon="-6.273298">
        <ele>402.730</ele>
        <time>2019-06-19T11:40:59Z</time>
      </trkpt>
      <trkpt lat="43.414055" lon="-6.273437">
        <ele>404.290</ele>
        <time>2019-06-19T11:41:00Z</time>
      </trkpt>
      <trkpt lat="43.414177" lon="-6.273554">
        <ele>405.766</ele>
        <time>2019-06-19T11:41:01Z</time>
      </trkpt>
      <trkpt lat="43.414250" lon="-6.273686">
        <ele>404.914</ele>
        <time>2019-06-19T11:41:02Z</time>
      </trkpt>
      <trkpt lat="43.414333" lon="-6.273819">
        <ele>404.414</ele>
        <time>2019-06-19T11:41:03Z</time>
      </trkpt>
      <trkpt lat="43.414456" lon="-6.273916">
        <ele>406.428</ele>
        <time>2019-06-19T11:41:04Z</time>
      </trkpt>
      <trkpt lat="43.414576" lon="-6.273997">
        <ele>407.889</ele>
        <time>2019-06-19T11:41:05Z</time>
      </trkpt>
      <trkpt lat="43.414695" lon="-6.274064">
        <ele>410.417</ele>
        <time>2019-06-19T11:41:06Z</time>
      </trkpt>
      <trkpt lat="43.414815" lon="-6.274107">
        <ele>411.208</ele>
        <time>2019-06-19T11:41:07Z</time>
      </trkpt>
      <trkpt lat="43.414954" lon="-6.274157">
        <ele>411.325</ele>
        <time>2019-06-19T11:41:08Z</time>
      </trkpt>
      <trkpt lat="43.415087" lon="-6.274173">
        <ele>410.099</ele>
        <time>2019-06-19T11:41:09Z</time>
      </trkpt>
      <trkpt lat="43.415190" lon="-6.274189">
        <ele>409.040</ele>
        <time>2019-06-19T11:41:10Z</time>
      </trkpt>
      <trkpt lat="43.415298" lon="-6.274218">
        <ele>408.423</ele>
        <time>2019-06-19T11:41:11Z</time>
      </trkpt>
      <trkpt lat="43.415401" lon="-6.274267">
        <ele>408.393</ele>
        <time>2019-06-19T11:41:12Z</time>
      </trkpt>
      <trkpt lat="43.415478" lon="-6.274350">
        <ele>408.969</ele>
        <time>2019-06-19T11:41:13Z</time>
      </trkpt>
      <trkpt lat="43.415565" lon="-6.274431">
        <ele>408.477</ele>
        <time>2019-06-19T11:41:14Z</time>
      </trkpt>
      <trkpt lat="43.415632" lon="-6.274539">
        <ele>408.147</ele>
        <time>2019-06-19T11:41:15Z</time>
      </trkpt>
      <trkpt lat="43.415699" lon="-6.274660">
        <ele>408.417</ele>
        <time>2019-06-19T11:41:16Z</time>
      </trkpt>
      <trkpt lat="43.415743" lon="-6.274807">
        <ele>409.287</ele>
        <time>2019-06-19T11:41:17Z</time>
      </trkpt>
      <trkpt lat="43.415738" lon="-6.274995">
        <ele>411.415</ele>
        <time>2019-06-19T11:41:18Z</time>
      </trkpt>
      <trkpt lat="43.415772" lon="-6.275158">
        <ele>409.908</ele>
        <time>2019-06-19T11:41:19Z</time>
      </trkpt>
      <trkpt lat="43.415804" lon="-6.275324">
        <ele>408.674</ele>
        <time>2019-06-19T11:41:20Z</time>
      </trkpt>
      <trkpt lat="43.415832" lon="-6.275486">
        <ele>407.888</ele>
        <time>2019-06-19T11:41:21Z</time>
      </trkpt>
      <trkpt lat="43.415890" lon="-6.275627">
        <ele>406.599</ele>
        <time>2019-06-19T11:41:22Z</time>
      </trkpt>
      <trkpt lat="43.415943" lon="-6.275760">
        <ele>405.672</ele>
        <time>2019-06-19T11:41:23Z</time>
      </trkpt>
      <trkpt lat="43.415991" lon="-6.275895">
        <ele>404.922</ele>
        <time>2019-06-19T11:41:24Z</time>
      </trkpt>
      <trkpt lat="43.416005" lon="-6.276034">
        <ele>405.878</ele>
        <time>2019-06-19T11:41:25Z</time>
      </trkpt>
      <trkpt lat="43.416010" lon="-6.276184">
        <ele>406.246</ele>
        <time>2019-06-19T11:41:26Z</time>
      </trkpt>
      <trkpt lat="43.415995" lon="-6.276336">
        <ele>406.886</ele>
        <time>2019-06-19T11:41:27Z</time>
      </trkpt>
      <trkpt lat="43.415974" lon="-6.276506">
        <ele>407.946</ele>
        <time>2019-06-19T11:41:28Z</time>
      </trkpt>
      <trkpt lat="43.415899" lon="-6.276663">
        <ele>412.288</ele>
        <time>2019-06-19T11:41:29Z</time>
      </trkpt>
      <trkpt lat="43.415852" lon="-6.276848">
        <ele>414.916</ele>
        <time>2019-06-19T11:41:30Z</time>
      </trkpt>
      <trkpt lat="43.415789" lon="-6.277027">
        <ele>417.508</ele>
        <time>2019-06-19T11:41:31Z</time>
      </trkpt>
      <trkpt lat="43.415693" lon="-6.277236">
        <ele>420.457</ele>
        <time>2019-06-19T11:41:32Z</time>
      </trkpt>
      <trkpt lat="43.415622" lon="-6.277440">
        <ele>421.261</ele>
        <time>2019-06-19T11:41:33Z</time>
      </trkpt>
      <trkpt lat="43.415544" lon="-6.277662">
        <ele>422.872</ele>
        <time>2019-06-19T11:41:34Z</time>
      </trkpt>
      <trkpt lat="43.415484" lon="-6.277868">
        <ele>423.395</ele>
        <time>2019-06-19T11:41:35Z</time>
      </trkpt>
      <trkpt lat="43.415433" lon="-6.278098">
        <ele>423.035</ele>
        <time>2019-06-19T11:41:36Z</time>
      </trkpt>
      <trkpt lat="43.415380" lon="-6.278296">
        <ele>423.911</ele>
        <time>2019-06-19T11:41:37Z</time>
      </trkpt>
      <trkpt lat="43.415337" lon="-6.278489">
        <ele>426.619</ele>
        <time>2019-06-19T11:41:38Z</time>
      </trkpt>
      <trkpt lat="43.415311" lon="-6.278673">
        <ele>429.059</ele>
        <time>2019-06-19T11:41:39Z</time>
      </trkpt>
      <trkpt lat="43.415320" lon="-6.278889">
        <ele>428.254</ele>
        <time>2019-06-19T11:41:40Z</time>
      </trkpt>
      <trkpt lat="43.415347" lon="-6.279090">
        <ele>429.756</ele>
        <time>2019-06-19T11:41:41Z</time>
      </trkpt>
      <trkpt lat="43.415379" lon="-6.279309">
        <ele>430.011</ele>
        <time>2019-06-19T11:41:42Z</time>
      </trkpt>
      <trkpt lat="43.415440" lon="-6.279549">
        <ele>428.408</ele>
        <time>2019-06-19T11:41:43Z</time>
      </trkpt>
      <trkpt lat="43.415455" lon="-6.279778">
        <ele>428.818</ele>
        <time>2019-06-19T11:41:44Z</time>
      </trkpt>
      <trkpt lat="43.415439" lon="-6.280003">
        <ele>429.542</ele>
        <time>2019-06-19T11:41:45Z</time>
      </trkpt>
      <trkpt lat="43.415442" lon="-6.280217">
        <ele>429.353</ele>
        <time>2019-06-19T11:41:46Z</time>
      </trkpt>
      <trkpt lat="43.415482" lon="-6.280425">
        <ele>429.256</ele>
        <time>2019-06-19T11:41:47Z</time>
      </trkpt>
      <trkpt lat="43.415474" lon="-6.280631">
        <ele>432.746</ele>
        <time>2019-06-19T11:41:48Z</time>
      </trkpt>
      <trkpt lat="43.415461" lon="-6.280835">
        <ele>437.832</ele>
        <time>2019-06-19T11:41:49Z</time>
      </trkpt>
      <trkpt lat="43.415482" lon="-6.281029">
        <ele>440.440</ele>
        <time>2019-06-19T11:41:50Z</time>
      </trkpt>
      <trkpt lat="43.415507" lon="-6.281222">
        <ele>441.740</ele>
        <time>2019-06-19T11:41:51Z</time>
      </trkpt>
      <trkpt lat="43.415542" lon="-6.281415">
        <ele>441.925</ele>
        <time>2019-06-19T11:41:52Z</time>
      </trkpt>
      <trkpt lat="43.415576" lon="-6.281625">
        <ele>443.626</ele>
        <time>2019-06-19T11:41:53Z</time>
      </trkpt>
      <trkpt lat="43.415667" lon="-6.281758">
        <ele>443.908</ele>
        <time>2019-06-19T11:41:54Z</time>
      </trkpt>
      <trkpt lat="43.415821" lon="-6.281874">
        <ele>440.808</ele>
        <time>2019-06-19T11:41:55Z</time>
      </trkpt>
      <trkpt lat="43.415937" lon="-6.282017">
        <ele>440.375</ele>
        <time>2019-06-19T11:41:56Z</time>
      </trkpt>
      <trkpt lat="43.416027" lon="-6.282131">
        <ele>439.989</ele>
        <time>2019-06-19T11:41:57Z</time>
      </trkpt>
      <trkpt lat="43.416089" lon="-6.282244">
        <ele>440.690</ele>
        <time>2019-06-19T11:41:58Z</time>
      </trkpt>
      <trkpt lat="43.416057" lon="-6.282386">
        <ele>446.133</ele>
        <time>2019-06-19T11:41:59Z</time>
      </trkpt>
      <trkpt lat="43.416054" lon="-6.282543">
        <ele>449.823</ele>
        <time>2019-06-19T11:42:00Z</time>
      </trkpt>
      <trkpt lat="43.416036" lon="-6.282700">
        <ele>450.979</ele>
        <time>2019-06-19T11:42:01Z</time>
      </trkpt>
      <trkpt lat="43.416019" lon="-6.282881">
        <ele>452.667</ele>
        <time>2019-06-19T11:42:02Z</time>
      </trkpt>
      <trkpt lat="43.415993" lon="-6.283065">
        <ele>454.447</ele>
        <time>2019-06-19T11:42:03Z</time>
      </trkpt>
      <trkpt lat="43.415992" lon="-6.283251">
        <ele>453.525</ele>
        <time>2019-06-19T11:42:04Z</time>
      </trkpt>
      <trkpt lat="43.415981" lon="-6.283422">
        <ele>453.726</ele>
        <time>2019-06-19T11:42:05Z</time>
      </trkpt>
      <trkpt lat="43.415964" lon="-6.283596">
        <ele>454.208</ele>
        <time>2019-06-19T11:42:06Z</time>
      </trkpt>
      <trkpt lat="43.415936" lon="-6.283722">
        <ele>453.508</ele>
        <time>2019-06-19T11:42:07Z</time>
      </trkpt>
      <trkpt lat="43.415915" lon="-6.283915">
        <ele>451.975</ele>
        <time>2019-06-19T11:42:08Z</time>
      </trkpt>
      <trkpt lat="43.415955" lon="-6.284089">
        <ele>447.679</ele>
        <time>2019-06-19T11:42:09Z</time>
      </trkpt>
      <trkpt lat="43.415816" lon="-6.284241">
        <ele>454.270</ele>
        <time>2019-06-19T11:42:10Z</time>
      </trkpt>
      <trkpt lat="43.415743" lon="-6.284395">
        <ele>455.263</ele>
        <time>2019-06-19T11:42:11Z</time>
      </trkpt>
      <trkpt lat="43.415697" lon="-6.284541">
        <ele>455.853</ele>
        <time>2019-06-19T11:42:12Z</time>
      </trkpt>
      <trkpt lat="43.415634" lon="-6.284694">
        <ele>456.759</ele>
        <time>2019-06-19T11:42:13Z</time>
      </trkpt>
      <trkpt lat="43.415618" lon="-6.284880">
        <ele>457.137</ele>
        <time>2019-06-19T11:42:14Z</time>
      </trkpt>
      <trkpt lat="43.415605" lon="-6.285050">
        <ele>457.957</ele>
        <time>2019-06-19T11:42:15Z</time>
      </trkpt>
      <trkpt lat="43.415610" lon="-6.285200">
        <ele>458.695</ele>
        <time>2019-06-19T11:42:16Z</time>
      </trkpt>
      <trkpt lat="43.415646" lon="-6.285370">
        <ele>459.149</ele>
        <time>2019-06-19T11:42:17Z</time>
      </trkpt>
      <trkpt lat="43.415712" lon="-6.285551">
        <ele>459.323</ele>
        <time>2019-06-19T11:42:18Z</time>
      </trkpt>
      <trkpt lat="43.415744" lon="-6.285749">
        <ele>461.408</ele>
        <time>2019-06-19T11:42:19Z</time>
      </trkpt>
      <trkpt lat="43.415792" lon="-6.285954">
        <ele>463.782</ele>
        <time>2019-06-19T11:42:20Z</time>
      </trkpt>
      <trkpt lat="43.415874" lon="-6.286152">
        <ele>464.156</ele>
        <time>2019-06-19T11:42:21Z</time>
      </trkpt>
      <trkpt lat="43.415959" lon="-6.286355">
        <ele>461.457</ele>
        <time>2019-06-19T11:42:22Z</time>
      </trkpt>
      <trkpt lat="43.416009" lon="-6.286500">
        <ele>459.750</ele>
        <time>2019-06-19T11:42:23Z</time>
      </trkpt>
      <trkpt lat="43.416054" lon="-6.286713">
        <ele>458.440</ele>
        <time>2019-06-19T11:42:24Z</time>
      </trkpt>
      <trkpt lat="43.416074" lon="-6.286903">
        <ele>458.746</ele>
        <time>2019-06-19T11:42:25Z</time>
      </trkpt>
      <trkpt lat="43.416089" lon="-6.287153">
        <ele>460.974</ele>
        <time>2019-06-19T11:42:26Z</time>
      </trkpt>
      <trkpt lat="43.416080" lon="-6.287354">
        <ele>463.084</ele>
        <time>2019-06-19T11:42:27Z</time>
      </trkpt>
      <trkpt lat="43.416066" lon="-6.287574">
        <ele>464.729</ele>
        <time>2019-06-19T11:42:28Z</time>
      </trkpt>
      <trkpt lat="43.416087" lon="-6.287790">
        <ele>465.000</ele>
        <time>2019-06-19T11:42:29Z</time>
      </trkpt>
      <trkpt lat="43.416127" lon="-6.288010">
        <ele>465.920</ele>
        <time>2019-06-19T11:42:30Z</time>
      </trkpt>
      <trkpt lat="43.416125" lon="-6.288228">
        <ele>468.308</ele>
        <time>2019-06-19T11:42:31Z</time>
      </trkpt>
      <trkpt lat="43.416138" lon="-6.288447">
        <ele>469.785</ele>
        <time>2019-06-19T11:42:32Z</time>
      </trkpt>
      <trkpt lat="43.416144" lon="-6.288646">
        <ele>470.719</ele>
        <time>2019-06-19T11:42:33Z</time>
      </trkpt>
      <trkpt lat="43.416172" lon="-6.288853">
        <ele>470.430</ele>
        <time>2019-06-19T11:42:34Z</time>
      </trkpt>
      <trkpt lat="43.416198" lon="-6.289053">
        <ele>470.923</ele>
        <time>2019-06-19T11:42:35Z</time>
      </trkpt>
      <trkpt lat="43.416221" lon="-6.289232">
        <ele>472.183</ele>
        <time>2019-06-19T11:42:36Z</time>
      </trkpt>
      <trkpt lat="43.416248" lon="-6.289395">
        <ele>473.849</ele>
        <time>2019-06-19T11:42:37Z</time>
      </trkpt>
      <trkpt lat="43.416268" lon="-6.289556">
        <ele>475.437</ele>
        <time>2019-06-19T11:42:38Z</time>
      </trkpt>
      <trkpt lat="43.416286" lon="-6.289710">
        <ele>477.117</ele>
        <time>2019-06-19T11:42:39Z</time>
      </trkpt>
      <trkpt lat="43.416301" lon="-6.289868">
        <ele>476.095</ele>
        <time>2019-06-19T11:42:40Z</time>
      </trkpt>
      <trkpt lat="43.416276" lon="-6.290003">
        <ele>476.049</ele>
        <time>2019-06-19T11:42:41Z</time>
      </trkpt>
      <trkpt lat="43.416223" lon="-6.290131">
        <ele>475.623</ele>
        <time>2019-06-19T11:42:42Z</time>
      </trkpt>
      <trkpt lat="43.416162" lon="-6.290237">
        <ele>475.908</ele>
        <time>2019-06-19T11:42:43Z</time>
      </trkpt>
      <trkpt lat="43.416085" lon="-6.290329">
        <ele>476.852</ele>
        <time>2019-06-19T11:42:44Z</time>
      </trkpt>
      <trkpt lat="43.415996" lon="-6.290413">
        <ele>476.876</ele>
        <time>2019-06-19T11:42:45Z</time>
      </trkpt>
      <trkpt lat="43.415915" lon="-6.290507">
        <ele>476.267</ele>
        <time>2019-06-19T11:42:46Z</time>
      </trkpt>
      <trkpt lat="43.415846" lon="-6.290626">
        <ele>475.470</ele>
        <time>2019-06-19T11:42:47Z</time>
      </trkpt>
      <trkpt lat="43.415797" lon="-6.290764">
        <ele>474.660</ele>
        <time>2019-06-19T11:42:48Z</time>
      </trkpt>
      <trkpt lat="43.415774" lon="-6.290921">
        <ele>474.056</ele>
        <time>2019-06-19T11:42:49Z</time>
      </trkpt>
      <trkpt lat="43.415761" lon="-6.291091">
        <ele>473.864</ele>
        <time>2019-06-19T11:42:50Z</time>
      </trkpt>
      <trkpt lat="43.415746" lon="-6.291263">
        <ele>473.624</ele>
        <time>2019-06-19T11:42:51Z</time>
      </trkpt>
      <trkpt lat="43.415718" lon="-6.291431">
        <ele>473.669</ele>
        <time>2019-06-19T11:42:52Z</time>
      </trkpt>
      <trkpt lat="43.415692" lon="-6.291602">
        <ele>473.704</ele>
        <time>2019-06-19T11:42:53Z</time>
      </trkpt>
      <trkpt lat="43.415669" lon="-6.291739">
        <ele>474.224</ele>
        <time>2019-06-19T11:42:54Z</time>
      </trkpt>
      <trkpt lat="43.415645" lon="-6.291889">
        <ele>475.208</ele>
        <time>2019-06-19T11:42:55Z</time>
      </trkpt>
      <trkpt lat="43.415625" lon="-6.292032">
        <ele>475.839</ele>
        <time>2019-06-19T11:42:56Z</time>
      </trkpt>
      <trkpt lat="43.415600" lon="-6.292152">
        <ele>476.583</ele>
        <time>2019-06-19T11:42:57Z</time>
      </trkpt>
      <trkpt lat="43.415586" lon="-6.292296">
        <ele>477.114</ele>
        <time>2019-06-19T11:42:58Z</time>
      </trkpt>
      <trkpt lat="43.415559" lon="-6.292448">
        <ele>477.917</ele>
        <time>2019-06-19T11:42:59Z</time>
      </trkpt>
      <trkpt lat="43.415534" lon="-6.292606">
        <ele>479.247</ele>
        <time>2019-06-19T11:43:00Z</time>
      </trkpt>
      <trkpt lat="43.415510" lon="-6.292772">
        <ele>480.933</ele>
        <time>2019-06-19T11:43:01Z</time>
      </trkpt>
      <trkpt lat="43.415471" lon="-6.292968">
        <ele>483.141</ele>
        <time>2019-06-19T11:43:02Z</time>
      </trkpt>
      <trkpt lat="43.415434" lon="-6.293154">
        <ele>484.081</ele>
        <time>2019-06-19T11:43:03Z</time>
      </trkpt>
      <trkpt lat="43.415398" lon="-6.293360">
        <ele>484.248</ele>
        <time>2019-06-19T11:43:04Z</time>
      </trkpt>
      <trkpt lat="43.415348" lon="-6.293554">
        <ele>483.861</ele>
        <time>2019-06-19T11:43:05Z</time>
      </trkpt>
      <trkpt lat="43.415303" lon="-6.293754">
        <ele>483.817</ele>
        <time>2019-06-19T11:43:06Z</time>
      </trkpt>
      <trkpt lat="43.415250" lon="-6.293964">
        <ele>484.408</ele>
        <time>2019-06-19T11:43:07Z</time>
      </trkpt>
      <trkpt lat="43.415198" lon="-6.294164">
        <ele>485.087</ele>
        <time>2019-06-19T11:43:08Z</time>
      </trkpt>
      <trkpt lat="43.415147" lon="-6.294357">
        <ele>482.881</ele>
        <time>2019-06-19T11:43:09Z</time>
      </trkpt>
      <trkpt lat="43.415085" lon="-6.294549">
        <ele>481.422</ele>
        <time>2019-06-19T11:43:10Z</time>
      </trkpt>
      <trkpt lat="43.415024" lon="-6.294741">
        <ele>480.775</ele>
        <time>2019-06-19T11:43:11Z</time>
      </trkpt>
      <trkpt lat="43.414954" lon="-6.294924">
        <ele>481.945</ele>
        <time>2019-06-19T11:43:12Z</time>
      </trkpt>
      <trkpt lat="43.414878" lon="-6.295101">
        <ele>485.691</ele>
        <time>2019-06-19T11:43:13Z</time>
      </trkpt>
      <trkpt lat="43.414807" lon="-6.295281">
        <ele>489.199</ele>
        <time>2019-06-19T11:43:14Z</time>
      </trkpt>
      <trkpt lat="43.414766" lon="-6.295466">
        <ele>490.399</ele>
        <time>2019-06-19T11:43:15Z</time>
      </trkpt>
      <trkpt lat="43.414703" lon="-6.295650">
        <ele>491.573</ele>
        <time>2019-06-19T11:43:16Z</time>
      </trkpt>
      <trkpt lat="43.414636" lon="-6.295834">
        <ele>489.685</ele>
        <time>2019-06-19T11:43:17Z</time>
      </trkpt>
      <trkpt lat="43.414564" lon="-6.296009">
        <ele>489.013</ele>
        <time>2019-06-19T11:43:18Z</time>
      </trkpt>
      <trkpt lat="43.414493" lon="-6.296176">
        <ele>488.808</ele>
        <time>2019-06-19T11:43:19Z</time>
      </trkpt>
      <trkpt lat="43.414415" lon="-6.296336">
        <ele>489.640</ele>
        <time>2019-06-19T11:43:20Z</time>
      </trkpt>
      <trkpt lat="43.414326" lon="-6.296489">
        <ele>489.314</ele>
        <time>2019-06-19T11:43:21Z</time>
      </trkpt>
      <trkpt lat="43.414229" lon="-6.296635">
        <ele>489.745</ele>
        <time>2019-06-19T11:43:22Z</time>
      </trkpt>
      <trkpt lat="43.414099" lon="-6.296755">
        <ele>491.148</ele>
        <time>2019-06-19T11:43:23Z</time>
      </trkpt>
      <trkpt lat="43.413986" lon="-6.296884">
        <ele>491.338</ele>
        <time>2019-06-19T11:43:24Z</time>
      </trkpt>
      <trkpt lat="43.413876" lon="-6.297011">
        <ele>491.424</ele>
        <time>2019-06-19T11:43:25Z</time>
      </trkpt>
      <trkpt lat="43.413762" lon="-6.297141">
        <ele>492.012</ele>
        <time>2019-06-19T11:43:26Z</time>
      </trkpt>
      <trkpt lat="43.413668" lon="-6.297256">
        <ele>491.652</ele>
        <time>2019-06-19T11:43:27Z</time>
      </trkpt>
      <trkpt lat="43.413578" lon="-6.297383">
        <ele>492.364</ele>
        <time>2019-06-19T11:43:28Z</time>
      </trkpt>
      <trkpt lat="43.413487" lon="-6.297493">
        <ele>493.206</ele>
        <time>2019-06-19T11:43:29Z</time>
      </trkpt>
      <trkpt lat="43.413413" lon="-6.297590">
        <ele>494.916</ele>
        <time>2019-06-19T11:43:30Z</time>
      </trkpt>
      <trkpt lat="43.413356" lon="-6.297694">
        <ele>495.908</ele>
        <time>2019-06-19T11:43:31Z</time>
      </trkpt>
      <trkpt lat="43.413370" lon="-6.297800">
        <ele>496.019</ele>
        <time>2019-06-19T11:43:32Z</time>
      </trkpt>
      <trkpt lat="43.413370" lon="-6.297909">
        <ele>498.473</ele>
        <time>2019-06-19T11:43:33Z</time>
      </trkpt>
      <trkpt lat="43.413375" lon="-6.298015">
        <ele>500.714</ele>
        <time>2019-06-19T11:43:34Z</time>
      </trkpt>
      <trkpt lat="43.413417" lon="-6.298099">
        <ele>502.157</ele>
        <time>2019-06-19T11:43:35Z</time>
      </trkpt>
      <trkpt lat="43.413510" lon="-6.298148">
        <ele>502.997</ele>
        <time>2019-06-19T11:43:36Z</time>
      </trkpt>
      <trkpt lat="43.413586" lon="-6.298174">
        <ele>503.733</ele>
        <time>2019-06-19T11:43:37Z</time>
      </trkpt>
      <trkpt lat="43.413690" lon="-6.298160">
        <ele>503.081</ele>
        <time>2019-06-19T11:43:38Z</time>
      </trkpt>
      <trkpt lat="43.413833" lon="-6.298130">
        <ele>501.211</ele>
        <time>2019-06-19T11:43:39Z</time>
      </trkpt>
      <trkpt lat="43.413947" lon="-6.298112">
        <ele>500.013</ele>
        <time>2019-06-19T11:43:40Z</time>
      </trkpt>
      <trkpt lat="43.414057" lon="-6.298094">
        <ele>499.043</ele>
        <time>2019-06-19T11:43:41Z</time>
      </trkpt>
      <trkpt lat="43.414142" lon="-6.298055">
        <ele>497.007</ele>
        <time>2019-06-19T11:43:42Z</time>
      </trkpt>
      <trkpt lat="43.414246" lon="-6.298021">
        <ele>495.508</ele>
        <time>2019-06-19T11:43:43Z</time>
      </trkpt>
      <trkpt lat="43.414349" lon="-6.298008">
        <ele>494.984</ele>
        <time>2019-06-19T11:43:44Z</time>
      </trkpt>
      <trkpt lat="43.414410" lon="-6.298033">
        <ele>495.578</ele>
        <time>2019-06-19T11:43:45Z</time>
      </trkpt>
      <trkpt lat="43.414477" lon="-6.298077">
        <ele>496.149</ele>
        <time>2019-06-19T11:43:46Z</time>
      </trkpt>
      <trkpt lat="43.414578" lon="-6.298139">
        <ele>495.472</ele>
        <time>2019-06-19T11:43:47Z</time>
      </trkpt>
      <trkpt lat="43.414662" lon="-6.298227">
        <ele>494.462</ele>
        <time>2019-06-19T11:43:48Z</time>
      </trkpt>
      <trkpt lat="43.414709" lon="-6.298348">
        <ele>494.018</ele>
        <time>2019-06-19T11:43:49Z</time>
      </trkpt>
      <trkpt lat="43.414740" lon="-6.298509">
        <ele>497.136</ele>
        <time>2019-06-19T11:43:50Z</time>
      </trkpt>
      <trkpt lat="43.414773" lon="-6.298654">
        <ele>499.726</ele>
        <time>2019-06-19T11:43:51Z</time>
      </trkpt>
      <trkpt lat="43.414795" lon="-6.298800">
        <ele>502.691</ele>
        <time>2019-06-19T11:43:52Z</time>
      </trkpt>
      <trkpt lat="43.414845" lon="-6.298949">
        <ele>504.781</ele>
        <time>2019-06-19T11:43:53Z</time>
      </trkpt>
      <trkpt lat="43.414886" lon="-6.299087">
        <ele>505.819</ele>
        <time>2019-06-19T11:43:54Z</time>
      </trkpt>
      <trkpt lat="43.414852" lon="-6.299227">
        <ele>508.708</ele>
        <time>2019-06-19T11:43:55Z</time>
      </trkpt>
      <trkpt lat="43.414890" lon="-6.299351">
        <ele>509.852</ele>
        <time>2019-06-19T11:43:56Z</time>
      </trkpt>
      <trkpt lat="43.414954" lon="-6.299444">
        <ele>510.056</ele>
        <time>2019-06-19T11:43:57Z</time>
      </trkpt>
      <trkpt lat="43.414989" lon="-6.299512">
        <ele>510.057</ele>
        <time>2019-06-19T11:43:58Z</time>
      </trkpt>
      <trkpt lat="43.415082" lon="-6.299562">
        <ele>509.180</ele>
        <time>2019-06-19T11:43:59Z</time>
      </trkpt>
      <trkpt lat="43.415186" lon="-6.299564">
        <ele>507.710</ele>
        <time>2019-06-19T11:44:00Z</time>
      </trkpt>
      <trkpt lat="43.415269" lon="-6.299562">
        <ele>506.536</ele>
        <time>2019-06-19T11:44:01Z</time>
      </trkpt>
      <trkpt lat="43.415353" lon="-6.299532">
        <ele>507.934</ele>
        <time>2019-06-19T11:44:02Z</time>
      </trkpt>
      <trkpt lat="43.415440" lon="-6.299467">
        <ele>509.564</ele>
        <time>2019-06-19T11:44:03Z</time>
      </trkpt>
      <trkpt lat="43.415508" lon="-6.299353">
        <ele>510.538</ele>
        <time>2019-06-19T11:44:04Z</time>
      </trkpt>
      <trkpt lat="43.415579" lon="-6.299246">
        <ele>512.370</ele>
        <time>2019-06-19T11:44:05Z</time>
      </trkpt>
      <trkpt lat="43.415651" lon="-6.299126">
        <ele>515.017</ele>
        <time>2019-06-19T11:44:06Z</time>
      </trkpt>
      <trkpt lat="43.415716" lon="-6.298985">
        <ele>517.708</ele>
        <time>2019-06-19T11:44:07Z</time>
      </trkpt>
      <trkpt lat="43.415813" lon="-6.298813">
        <ele>521.556</ele>
        <time>2019-06-19T11:44:08Z</time>
      </trkpt>
      <trkpt lat="43.415880" lon="-6.298634">
        <ele>522.780</ele>
        <time>2019-06-19T11:44:09Z</time>
      </trkpt>
      <trkpt lat="43.415840" lon="-6.298437">
        <ele>520.641</ele>
        <time>2019-06-19T11:44:10Z</time>
      </trkpt>
      <trkpt lat="43.415880" lon="-6.298244">
        <ele>520.894</ele>
        <time>2019-06-19T11:44:11Z</time>
      </trkpt>
      <trkpt lat="43.415950" lon="-6.298052">
        <ele>521.674</ele>
        <time>2019-06-19T11:44:12Z</time>
      </trkpt>
      <trkpt lat="43.415969" lon="-6.297862">
        <ele>520.660</ele>
        <time>2019-06-19T11:44:13Z</time>
      </trkpt>
      <trkpt lat="43.415998" lon="-6.297688">
        <ele>519.568</ele>
        <time>2019-06-19T11:44:14Z</time>
      </trkpt>
      <trkpt lat="43.416029" lon="-6.297503">
        <ele>517.828</ele>
        <time>2019-06-19T11:44:15Z</time>
      </trkpt>
      <trkpt lat="43.416083" lon="-6.297326">
        <ele>517.865</ele>
        <time>2019-06-19T11:44:16Z</time>
      </trkpt>
      <trkpt lat="43.416136" lon="-6.297151">
        <ele>518.068</ele>
        <time>2019-06-19T11:44:17Z</time>
      </trkpt>
      <trkpt lat="43.416208" lon="-6.296980">
        <ele>519.114</ele>
        <time>2019-06-19T11:44:18Z</time>
      </trkpt>
      <trkpt lat="43.416291" lon="-6.296815">
        <ele>521.408</ele>
        <time>2019-06-19T11:44:19Z</time>
      </trkpt>
      <trkpt lat="43.416307" lon="-6.296642">
        <ele>519.739</ele>
        <time>2019-06-19T11:44:20Z</time>
      </trkpt>
      <trkpt lat="43.416368" lon="-6.296458">
        <ele>522.093</ele>
        <time>2019-06-19T11:44:21Z</time>
      </trkpt>
      <trkpt lat="43.416474" lon="-6.296337">
        <ele>524.954</ele>
        <time>2019-06-19T11:44:22Z</time>
      </trkpt>
      <trkpt lat="43.416605" lon="-6.296216">
        <ele>528.727</ele>
        <time>2019-06-19T11:44:23Z</time>
      </trkpt>
      <trkpt lat="43.416708" lon="-6.296115">
        <ele>531.557</ele>
        <time>2019-06-19T11:44:24Z</time>
      </trkpt>
      <trkpt lat="43.416785" lon="-6.295991">
        <ele>528.913</ele>
        <time>2019-06-19T11:44:25Z</time>
      </trkpt>
      <trkpt lat="43.416876" lon="-6.295915">
        <ele>528.551</ele>
        <time>2019-06-19T11:44:26Z</time>
      </trkpt>
      <trkpt lat="43.416951" lon="-6.295830">
        <ele>528.031</ele>
        <time>2019-06-19T11:44:27Z</time>
      </trkpt>
      <trkpt lat="43.417096" lon="-6.295786">
        <ele>529.622</ele>
        <time>2019-06-19T11:44:28Z</time>
      </trkpt>
      <trkpt lat="43.417194" lon="-6.295737">
        <ele>530.362</ele>
        <time>2019-06-19T11:44:29Z</time>
      </trkpt>
      <trkpt lat="43.417236" lon="-6.295706">
        <ele>530.408</ele>
        <time>2019-06-19T11:44:30Z</time>
      </trkpt>
      <trkpt lat="43.417391" lon="-6.295781">
        <ele>534.308</ele>
        <time>2019-06-19T11:44:31Z</time>
      </trkpt>
      <trkpt lat="43.417499" lon="-6.295840">
        <ele>537.195</ele>
        <time>2019-06-19T11:44:32Z</time>
      </trkpt>
      <trkpt lat="43.417620" lon="-6.295907">
        <ele>535.799</ele>
        <time>2019-06-19T11:44:33Z</time>
      </trkpt>
      <trkpt lat="43.417732" lon="-6.296031">
        <ele>534.560</ele>
        <time>2019-06-19T11:44:34Z</time>
      </trkpt>
      <trkpt lat="43.417820" lon="-6.296147">
        <ele>534.233</ele>
        <time>2019-06-19T11:44:35Z</time>
      </trkpt>
      <trkpt lat="43.417936" lon="-6.296292">
        <ele>534.813</ele>
        <time>2019-06-19T11:44:36Z</time>
      </trkpt>
      <trkpt lat="43.418037" lon="-6.296450">
        <ele>534.459</ele>
        <time>2019-06-19T11:44:37Z</time>
      </trkpt>
      <trkpt lat="43.418172" lon="-6.296624">
        <ele>533.457</ele>
        <time>2019-06-19T11:44:38Z</time>
      </trkpt>
      <trkpt lat="43.418263" lon="-6.296803">
        <ele>533.187</ele>
        <time>2019-06-19T11:44:39Z</time>
      </trkpt>
      <trkpt lat="43.418330" lon="-6.297007">
        <ele>533.364</ele>
        <time>2019-06-19T11:44:40Z</time>
      </trkpt>
      <trkpt lat="43.418277" lon="-6.297219">
        <ele>535.206</ele>
        <time>2019-06-19T11:44:41Z</time>
      </trkpt>
      <trkpt lat="43.418234" lon="-6.297424">
        <ele>536.416</ele>
        <time>2019-06-19T11:44:42Z</time>
      </trkpt>
      <trkpt lat="43.418248" lon="-6.297632">
        <ele>537.608</ele>
        <time>2019-06-19T11:44:43Z</time>
      </trkpt>
      <trkpt lat="43.418248" lon="-6.297843">
        <ele>539.839</ele>
        <time>2019-06-19T11:44:44Z</time>
      </trkpt>
      <trkpt lat="43.418269" lon="-6.298062">
        <ele>541.563</ele>
        <time>2019-06-19T11:44:45Z</time>
      </trkpt>
      <trkpt lat="43.418292" lon="-6.298291">
        <ele>543.434</ele>
        <time>2019-06-19T11:44:46Z</time>
      </trkpt>
      <trkpt lat="43.418325" lon="-6.298511">
        <ele>545.767</ele>
        <time>2019-06-19T11:44:47Z</time>
      </trkpt>
      <trkpt lat="43.418341" lon="-6.298736">
        <ele>547.747</ele>
        <time>2019-06-19T11:44:48Z</time>
      </trkpt>
      <trkpt lat="43.418368" lon="-6.298944">
        <ele>548.233</ele>
        <time>2019-06-19T11:44:49Z</time>
      </trkpt>
      <trkpt lat="43.418385" lon="-6.299163">
        <ele>548.171</ele>
        <time>2019-06-19T11:44:50Z</time>
      </trkpt>
      <trkpt lat="43.418413" lon="-6.299386">
        <ele>548.491</ele>
        <time>2019-06-19T11:44:51Z</time>
      </trkpt>
      <trkpt lat="43.418422" lon="-6.299611">
        <ele>548.615</ele>
        <time>2019-06-19T11:44:52Z</time>
      </trkpt>
      <trkpt lat="43.418431" lon="-6.299837">
        <ele>548.565</ele>
        <time>2019-06-19T11:44:53Z</time>
      </trkpt>
      <trkpt lat="43.418416" lon="-6.300077">
        <ele>548.111</ele>
        <time>2019-06-19T11:44:54Z</time>
      </trkpt>
      <trkpt lat="43.418393" lon="-6.300314">
        <ele>547.308</ele>
        <time>2019-06-19T11:44:55Z</time>
      </trkpt>
      <trkpt lat="43.418386" lon="-6.300557">
        <ele>548.034</ele>
        <time>2019-06-19T11:44:56Z</time>
      </trkpt>
      <trkpt lat="43.418393" lon="-6.300793">
        <ele>548.798</ele>
        <time>2019-06-19T11:44:57Z</time>
      </trkpt>
      <trkpt lat="43.418414" lon="-6.301028">
        <ele>549.269</ele>
        <time>2019-06-19T11:44:58Z</time>
      </trkpt>
      <trkpt lat="43.418448" lon="-6.301259">
        <ele>549.712</ele>
        <time>2019-06-19T11:44:59Z</time>
      </trkpt>
      <trkpt lat="43.418475" lon="-6.301499">
        <ele>550.662</ele>
        <time>2019-06-19T11:45:00Z</time>
      </trkpt>
      <trkpt lat="43.418494" lon="-6.301744">
        <ele>551.718</ele>
        <time>2019-06-19T11:45:01Z</time>
      </trkpt>
      <trkpt lat="43.418482" lon="-6.301990">
        <ele>553.016</ele>
        <time>2019-06-19T11:45:02Z</time>
      </trkpt>
      <trkpt lat="43.418455" lon="-6.302236">
        <ele>555.416</ele>
        <time>2019-06-19T11:45:03Z</time>
      </trkpt>
      <trkpt lat="43.418419" lon="-6.302492">
        <ele>556.952</ele>
        <time>2019-06-19T11:45:04Z</time>
      </trkpt>
      <trkpt lat="43.418381" lon="-6.302752">
        <ele>558.553</ele>
        <time>2019-06-19T11:45:05Z</time>
      </trkpt>
      <trkpt lat="43.418348" lon="-6.302990">
        <ele>560.508</ele>
        <time>2019-06-19T11:45:06Z</time>
      </trkpt>
      <trkpt lat="43.418312" lon="-6.303202">
        <ele>562.308</ele>
        <time>2019-06-19T11:45:07Z</time>
      </trkpt>
      <trkpt lat="43.418277" lon="-6.303414">
        <ele>563.298</ele>
        <time>2019-06-19T11:45:08Z</time>
      </trkpt>
      <trkpt lat="43.418267" lon="-6.303616">
        <ele>563.392</ele>
        <time>2019-06-19T11:45:09Z</time>
      </trkpt>
      <trkpt lat="43.418270" lon="-6.303821">
        <ele>564.773</ele>
        <time>2019-06-19T11:45:10Z</time>
      </trkpt>
      <trkpt lat="43.418284" lon="-6.304031">
        <ele>564.766</ele>
        <time>2019-06-19T11:45:11Z</time>
      </trkpt>
      <trkpt lat="43.418306" lon="-6.304238">
        <ele>564.046</ele>
        <time>2019-06-19T11:45:12Z</time>
      </trkpt>
      <trkpt lat="43.418332" lon="-6.304444">
        <ele>563.072</ele>
        <time>2019-06-19T11:45:13Z</time>
      </trkpt>
      <trkpt lat="43.418397" lon="-6.304623">
        <ele>565.650</ele>
        <time>2019-06-19T11:45:14Z</time>
      </trkpt>
      <trkpt lat="43.418447" lon="-6.304810">
        <ele>566.890</ele>
        <time>2019-06-19T11:45:15Z</time>
      </trkpt>
      <trkpt lat="43.418500" lon="-6.305008">
        <ele>567.364</ele>
        <time>2019-06-19T11:45:16Z</time>
      </trkpt>
      <trkpt lat="43.418592" lon="-6.305220">
        <ele>568.006</ele>
        <time>2019-06-19T11:45:17Z</time>
      </trkpt>
      <trkpt lat="43.418686" lon="-6.305405">
        <ele>569.016</ele>
        <time>2019-06-19T11:45:18Z</time>
      </trkpt>
      <trkpt lat="43.418778" lon="-6.305587">
        <ele>570.308</ele>
        <time>2019-06-19T11:45:19Z</time>
      </trkpt>
      <trkpt lat="43.418861" lon="-6.305758">
        <ele>572.469</ele>
        <time>2019-06-19T11:45:20Z</time>
      </trkpt>
      <trkpt lat="43.418935" lon="-6.305925">
        <ele>574.373</ele>
        <time>2019-06-19T11:45:21Z</time>
      </trkpt>
      <trkpt lat="43.419020" lon="-6.306097">
        <ele>576.864</ele>
        <time>2019-06-19T11:45:22Z</time>
      </trkpt>
      <trkpt lat="43.419116" lon="-6.306257">
        <ele>579.647</ele>
        <time>2019-06-19T11:45:23Z</time>
      </trkpt>
      <trkpt lat="43.419193" lon="-6.306414">
        <ele>581.697</ele>
        <time>2019-06-19T11:45:24Z</time>
      </trkpt>
      <trkpt lat="43.419226" lon="-6.306555">
        <ele>581.883</ele>
        <time>2019-06-19T11:45:25Z</time>
      </trkpt>
      <trkpt lat="43.419295" lon="-6.306695">
        <ele>582.761</ele>
        <time>2019-06-19T11:45:26Z</time>
      </trkpt>
      <trkpt lat="43.419349" lon="-6.306822">
        <ele>583.261</ele>
        <time>2019-06-19T11:45:27Z</time>
      </trkpt>
      <trkpt lat="43.419398" lon="-6.306948">
        <ele>583.315</ele>
        <time>2019-06-19T11:45:28Z</time>
      </trkpt>
      <trkpt lat="43.419421" lon="-6.307093">
        <ele>583.765</ele>
        <time>2019-06-19T11:45:29Z</time>
      </trkpt>
      <trkpt lat="43.419464" lon="-6.307276">
        <ele>585.211</ele>
        <time>2019-06-19T11:45:30Z</time>
      </trkpt>
      <trkpt lat="43.419470" lon="-6.307406">
        <ele>586.308</ele>
        <time>2019-06-19T11:45:31Z</time>
      </trkpt>
      <trkpt lat="43.419402" lon="-6.307560">
        <ele>586.594</ele>
        <time>2019-06-19T11:45:32Z</time>
      </trkpt>
      <trkpt lat="43.419350" lon="-6.307644">
        <ele>587.248</ele>
        <time>2019-06-19T11:45:33Z</time>
      </trkpt>
      <trkpt lat="43.419273" lon="-6.307686">
        <ele>587.469</ele>
        <time>2019-06-19T11:45:34Z</time>
      </trkpt>
      <trkpt lat="43.419177" lon="-6.307745">
        <ele>587.772</ele>
        <time>2019-06-19T11:45:36Z</time>
      </trkpt>
      <trkpt lat="43.419087" lon="-6.307698">
        <ele>589.132</ele>
        <time>2019-06-19T11:45:37Z</time>
      </trkpt>
      <trkpt lat="43.418899" lon="-6.307473">
        <ele>590.378</ele>
        <time>2019-06-19T11:45:39Z</time>
      </trkpt>
      <trkpt lat="43.418645" lon="-6.307289">
        <ele>596.266</ele>
        <time>2019-06-19T11:45:40Z</time>
      </trkpt>
      <trkpt lat="43.418335" lon="-6.307124">
        <ele>603.596</ele>
        <time>2019-06-19T11:45:41Z</time>
      </trkpt>
      <trkpt lat="43.418204" lon="-6.307024">
        <ele>603.932</ele>
        <time>2019-06-19T11:45:42Z</time>
      </trkpt>
      <trkpt lat="43.418062" lon="-6.306922">
        <ele>605.092</ele>
        <time>2019-06-19T11:45:43Z</time>
      </trkpt>
      <trkpt lat="43.417913" lon="-6.306845">
        <ele>602.911</ele>
        <time>2019-06-19T11:45:44Z</time>
      </trkpt>
      <trkpt lat="43.417810" lon="-6.306759">
        <ele>600.208</ele>
        <time>2019-06-19T11:45:45Z</time>
      </trkpt>
      <trkpt lat="43.417715" lon="-6.306671">
        <ele>597.146</ele>
        <time>2019-06-19T11:45:46Z</time>
      </trkpt>
      <trkpt lat="43.417625" lon="-6.306618">
        <ele>595.380</ele>
        <time>2019-06-19T11:45:47Z</time>
      </trkpt>
      <trkpt lat="43.417532" lon="-6.306581">
        <ele>594.631</ele>
        <time>2019-06-19T11:45:48Z</time>
      </trkpt>
      <trkpt lat="43.417445" lon="-6.306658">
        <ele>596.284</ele>
        <time>2019-06-19T11:45:49Z</time>
      </trkpt>
      <trkpt lat="43.417340" lon="-6.306734">
        <ele>596.514</ele>
        <time>2019-06-19T11:45:50Z</time>
      </trkpt>
      <trkpt lat="43.417228" lon="-6.306813">
        <ele>596.260</ele>
        <time>2019-06-19T11:45:51Z</time>
      </trkpt>
      <trkpt lat="43.417128" lon="-6.306937">
        <ele>595.558</ele>
        <time>2019-06-19T11:45:52Z</time>
      </trkpt>
      <trkpt lat="43.417038" lon="-6.307072">
        <ele>594.758</ele>
        <time>2019-06-19T11:45:53Z</time>
      </trkpt>
      <trkpt lat="43.416943" lon="-6.307180">
        <ele>593.579</ele>
        <time>2019-06-19T11:45:54Z</time>
      </trkpt>
      <trkpt lat="43.416838" lon="-6.307269">
        <ele>593.505</ele>
        <time>2019-06-19T11:45:55Z</time>
      </trkpt>
      <trkpt lat="43.416738" lon="-6.307354">
        <ele>594.725</ele>
        <time>2019-06-19T11:45:56Z</time>
      </trkpt>
      <trkpt lat="43.416615" lon="-6.307415">
        <ele>596.408</ele>
        <time>2019-06-19T11:45:57Z</time>
      </trkpt>
      <trkpt lat="43.416489" lon="-6.307454">
        <ele>598.030</ele>
        <time>2019-06-19T11:45:58Z</time>
      </trkpt>
      <trkpt lat="43.416376" lon="-6.307499">
        <ele>599.824</ele>
        <time>2019-06-19T11:45:59Z</time>
      </trkpt>
      <trkpt lat="43.416259" lon="-6.307544">
        <ele>599.265</ele>
        <time>2019-06-19T11:46:00Z</time>
      </trkpt>
      <trkpt lat="43.416136" lon="-6.307598">
        <ele>599.198</ele>
        <time>2019-06-19T11:46:01Z</time>
      </trkpt>
      <trkpt lat="43.416027" lon="-6.307709">
        <ele>599.578</ele>
        <time>2019-06-19T11:46:02Z</time>
      </trkpt>
      <trkpt lat="43.415926" lon="-6.307892">
        <ele>603.634</ele>
        <time>2019-06-19T11:46:03Z</time>
      </trkpt>
      <trkpt lat="43.415819" lon="-6.308058">
        <ele>609.742</ele>
        <time>2019-06-19T11:46:04Z</time>
      </trkpt>
      <trkpt lat="43.415690" lon="-6.308206">
        <ele>610.232</ele>
        <time>2019-06-19T11:46:05Z</time>
      </trkpt>
      <trkpt lat="43.415550" lon="-6.308340">
        <ele>609.984</ele>
        <time>2019-06-19T11:46:06Z</time>
      </trkpt>
      <trkpt lat="43.415429" lon="-6.308489">
        <ele>607.807</ele>
        <time>2019-06-19T11:46:07Z</time>
      </trkpt>
      <trkpt lat="43.415293" lon="-6.308637">
        <ele>605.817</ele>
        <time>2019-06-19T11:46:08Z</time>
      </trkpt>
      <trkpt lat="43.415176" lon="-6.308801">
        <ele>605.608</ele>
        <time>2019-06-19T11:46:09Z</time>
      </trkpt>
      <trkpt lat="43.415057" lon="-6.308957">
        <ele>606.461</ele>
        <time>2019-06-19T11:46:10Z</time>
      </trkpt>
      <trkpt lat="43.414942" lon="-6.309110">
        <ele>608.195</ele>
        <time>2019-06-19T11:46:11Z</time>
      </trkpt>
      <trkpt lat="43.414817" lon="-6.309258">
        <ele>609.736</ele>
        <time>2019-06-19T11:46:12Z</time>
      </trkpt>
      <trkpt lat="43.414703" lon="-6.309410">
        <ele>611.079</ele>
        <time>2019-06-19T11:46:13Z</time>
      </trkpt>
      <trkpt lat="43.414583" lon="-6.309561">
        <ele>611.139</ele>
        <time>2019-06-19T11:46:14Z</time>
      </trkpt>
      <trkpt lat="43.414480" lon="-6.309706">
        <ele>611.565</ele>
        <time>2019-06-19T11:46:15Z</time>
      </trkpt>
      <trkpt lat="43.414372" lon="-6.309840">
        <ele>611.133</ele>
        <time>2019-06-19T11:46:16Z</time>
      </trkpt>
      <trkpt lat="43.414286" lon="-6.309978">
        <ele>611.423</ele>
        <time>2019-06-19T11:46:17Z</time>
      </trkpt>
      <trkpt lat="43.414204" lon="-6.310106">
        <ele>611.064</ele>
        <time>2019-06-19T11:46:18Z</time>
      </trkpt>
      <trkpt lat="43.414127" lon="-6.310237">
        <ele>609.906</ele>
        <time>2019-06-19T11:46:19Z</time>
      </trkpt>
      <trkpt lat="43.414132" lon="-6.310411">
        <ele>609.616</ele>
        <time>2019-06-19T11:46:20Z</time>
      </trkpt>
      <trkpt lat="43.414103" lon="-6.310560">
        <ele>608.108</ele>
        <time>2019-06-19T11:46:21Z</time>
      </trkpt>
      <trkpt lat="43.414155" lon="-6.310722">
        <ele>609.119</ele>
        <time>2019-06-19T11:46:22Z</time>
      </trkpt>
      <trkpt lat="43.414172" lon="-6.310885">
        <ele>609.233</ele>
        <time>2019-06-19T11:46:23Z</time>
      </trkpt>
      <trkpt lat="43.414194" lon="-6.311074">
        <ele>609.984</ele>
        <time>2019-06-19T11:46:24Z</time>
      </trkpt>
      <trkpt lat="43.414225" lon="-6.311244">
        <ele>610.817</ele>
        <time>2019-06-19T11:46:25Z</time>
      </trkpt>
      <trkpt lat="43.414258" lon="-6.311415">
        <ele>611.697</ele>
        <time>2019-06-19T11:46:26Z</time>
      </trkpt>
      <trkpt lat="43.414374" lon="-6.311535">
        <ele>614.613</ele>
        <time>2019-06-19T11:46:27Z</time>
      </trkpt>
      <trkpt lat="43.414455" lon="-6.311677">
        <ele>616.281</ele>
        <time>2019-06-19T11:46:28Z</time>
      </trkpt>
      <trkpt lat="43.414569" lon="-6.311749">
        <ele>617.851</ele>
        <time>2019-06-19T11:46:29Z</time>
      </trkpt>
      <trkpt lat="43.414671" lon="-6.311848">
        <ele>618.988</ele>
        <time>2019-06-19T11:46:30Z</time>
      </trkpt>
      <trkpt lat="43.414836" lon="-6.311900">
        <ele>620.124</ele>
        <time>2019-06-19T11:46:31Z</time>
      </trkpt>
      <trkpt lat="43.414968" lon="-6.311943">
        <ele>620.826</ele>
        <time>2019-06-19T11:46:32Z</time>
      </trkpt>
      <trkpt lat="43.415101" lon="-6.311986">
        <ele>621.408</ele>
        <time>2019-06-19T11:46:33Z</time>
      </trkpt>
      <trkpt lat="43.415226" lon="-6.312022">
        <ele>621.831</ele>
        <time>2019-06-19T11:46:34Z</time>
      </trkpt>
      <trkpt lat="43.415356" lon="-6.312063">
        <ele>622.895</ele>
        <time>2019-06-19T11:46:35Z</time>
      </trkpt>
      <trkpt lat="43.415483" lon="-6.312128">
        <ele>624.046</ele>
        <time>2019-06-19T11:46:36Z</time>
      </trkpt>
      <trkpt lat="43.415610" lon="-6.312195">
        <ele>625.039</ele>
        <time>2019-06-19T11:46:37Z</time>
      </trkpt>
      <trkpt lat="43.415732" lon="-6.312292">
        <ele>626.389</ele>
        <time>2019-06-19T11:46:38Z</time>
      </trkpt>
      <trkpt lat="43.415843" lon="-6.312385">
        <ele>627.695</ele>
        <time>2019-06-19T11:46:39Z</time>
      </trkpt>
      <trkpt lat="43.415941" lon="-6.312480">
        <ele>629.323</ele>
        <time>2019-06-19T11:46:40Z</time>
      </trkpt>
      <trkpt lat="43.415970" lon="-6.312613">
        <ele>629.893</ele>
        <time>2019-06-19T11:46:41Z</time>
      </trkpt>
      <trkpt lat="43.415999" lon="-6.312735">
        <ele>629.979</ele>
        <time>2019-06-19T11:46:42Z</time>
      </trkpt>
      <trkpt lat="43.416017" lon="-6.312854">
        <ele>630.005</ele>
        <time>2019-06-19T11:46:43Z</time>
      </trkpt>
      <trkpt lat="43.415954" lon="-6.312983">
        <ele>629.825</ele>
        <time>2019-06-19T11:46:44Z</time>
      </trkpt>
      <trkpt lat="43.415911" lon="-6.313094">
        <ele>630.208</ele>
        <time>2019-06-19T11:46:45Z</time>
      </trkpt>
      <trkpt lat="43.415858" lon="-6.313182">
        <ele>630.940</ele>
        <time>2019-06-19T11:46:46Z</time>
      </trkpt>
      <trkpt lat="43.415787" lon="-6.313227">
        <ele>631.244</ele>
        <time>2019-06-19T11:46:47Z</time>
      </trkpt>
      <trkpt lat="43.415723" lon="-6.313286">
        <ele>631.725</ele>
        <time>2019-06-19T11:46:48Z</time>
      </trkpt>
      <trkpt lat="43.415640" lon="-6.313286">
        <ele>631.738</ele>
        <time>2019-06-19T11:46:49Z</time>
      </trkpt>
      <trkpt lat="43.415519" lon="-6.313248">
        <ele>631.338</ele>
        <time>2019-06-19T11:46:50Z</time>
      </trkpt>
      <trkpt lat="43.415410" lon="-6.313249">
        <ele>630.974</ele>
        <time>2019-06-19T11:46:51Z</time>
      </trkpt>
      <trkpt lat="43.415317" lon="-6.313339">
        <ele>631.212</ele>
        <time>2019-06-19T11:46:52Z</time>
      </trkpt>
      <trkpt lat="43.415194" lon="-6.313432">
        <ele>630.992</ele>
        <time>2019-06-19T11:46:53Z</time>
      </trkpt>
      <trkpt lat="43.415096" lon="-6.313558">
        <ele>631.069</ele>
        <time>2019-06-19T11:46:54Z</time>
      </trkpt>
      <trkpt lat="43.414991" lon="-6.313673">
        <ele>631.404</ele>
        <time>2019-06-19T11:46:55Z</time>
      </trkpt>
      <trkpt lat="43.414910" lon="-6.313804">
        <ele>632.424</ele>
        <time>2019-06-19T11:46:56Z</time>
      </trkpt>
      <trkpt lat="43.414807" lon="-6.313931">
        <ele>633.508</ele>
        <time>2019-06-19T11:46:57Z</time>
      </trkpt>
      <trkpt lat="43.414729" lon="-6.314059">
        <ele>634.919</ele>
        <time>2019-06-19T11:46:58Z</time>
      </trkpt>
      <trkpt lat="43.414646" lon="-6.314185">
        <ele>636.293</ele>
        <time>2019-06-19T11:46:59Z</time>
      </trkpt>
      <trkpt lat="43.414566" lon="-6.314311">
        <ele>637.834</ele>
        <time>2019-06-19T11:47:00Z</time>
      </trkpt>
      <trkpt lat="43.414478" lon="-6.314442">
        <ele>639.147</ele>
        <time>2019-06-19T11:47:01Z</time>
      </trkpt>
      <trkpt lat="43.414395" lon="-6.314569">
        <ele>640.847</ele>
        <time>2019-06-19T11:47:02Z</time>
      </trkpt>
      <trkpt lat="43.414322" lon="-6.314699">
        <ele>641.943</ele>
        <time>2019-06-19T11:47:03Z</time>
      </trkpt>
      <trkpt lat="43.414238" lon="-6.314819">
        <ele>642.351</ele>
        <time>2019-06-19T11:47:04Z</time>
      </trkpt>
      <trkpt lat="43.414127" lon="-6.314896">
        <ele>642.831</ele>
        <time>2019-06-19T11:47:05Z</time>
      </trkpt>
      <trkpt lat="43.414026" lon="-6.314973">
        <ele>645.099</ele>
        <time>2019-06-19T11:47:06Z</time>
      </trkpt>
      <trkpt lat="43.413889" lon="-6.315010">
        <ele>647.207</ele>
        <time>2019-06-19T11:47:07Z</time>
      </trkpt>
      <trkpt lat="43.413785" lon="-6.314980">
        <ele>649.227</ele>
        <time>2019-06-19T11:47:08Z</time>
      </trkpt>
      <trkpt lat="43.413680" lon="-6.314926">
        <ele>650.708</ele>
        <time>2019-06-19T11:47:09Z</time>
      </trkpt>
      <trkpt lat="43.413581" lon="-6.314876">
        <ele>651.672</ele>
        <time>2019-06-19T11:47:10Z</time>
      </trkpt>
      <trkpt lat="43.413490" lon="-6.314821">
        <ele>651.356</ele>
        <time>2019-06-19T11:47:11Z</time>
      </trkpt>
      <trkpt lat="43.413419" lon="-6.314712">
        <ele>649.877</ele>
        <time>2019-06-19T11:47:12Z</time>
      </trkpt>
      <trkpt lat="43.413319" lon="-6.314644">
        <ele>649.110</ele>
        <time>2019-06-19T11:47:13Z</time>
      </trkpt>
      <trkpt lat="43.413210" lon="-6.314621">
        <ele>647.230</ele>
        <time>2019-06-19T11:47:14Z</time>
      </trkpt>
      <trkpt lat="43.413091" lon="-6.314559">
        <ele>644.556</ele>
        <time>2019-06-19T11:47:15Z</time>
      </trkpt>
      <trkpt lat="43.413002" lon="-6.314582">
        <ele>643.924</ele>
        <time>2019-06-19T11:47:16Z</time>
      </trkpt>
      <trkpt lat="43.412890" lon="-6.314624">
        <ele>643.624</ele>
        <time>2019-06-19T11:47:17Z</time>
      </trkpt>
      <trkpt lat="43.412875" lon="-6.314716">
        <ele>645.637</ele>
        <time>2019-06-19T11:47:18Z</time>
      </trkpt>
      <trkpt lat="43.412736" lon="-6.314720">
        <ele>645.449</ele>
        <time>2019-06-19T11:47:19Z</time>
      </trkpt>
      <trkpt lat="43.412638" lon="-6.314684">
        <ele>645.813</ele>
        <time>2019-06-19T11:47:20Z</time>
      </trkpt>
      <trkpt lat="43.412543" lon="-6.314641">
        <ele>646.508</ele>
        <time>2019-06-19T11:47:21Z</time>
      </trkpt>
      <trkpt lat="43.412460" lon="-6.314556">
        <ele>646.596</ele>
        <time>2019-06-19T11:47:22Z</time>
      </trkpt>
      <trkpt lat="43.412376" lon="-6.314498">
        <ele>646.370</ele>
        <time>2019-06-19T11:47:23Z</time>
      </trkpt>
      <trkpt lat="43.412294" lon="-6.314447">
        <ele>645.831</ele>
        <time>2019-06-19T11:47:24Z</time>
      </trkpt>
      <trkpt lat="43.412217" lon="-6.314402">
        <ele>645.524</ele>
        <time>2019-06-19T11:47:25Z</time>
      </trkpt>
      <trkpt lat="43.412128" lon="-6.314376">
        <ele>644.294</ele>
        <time>2019-06-19T11:47:26Z</time>
      </trkpt>
      <trkpt lat="43.412036" lon="-6.314448">
        <ele>644.130</ele>
        <time>2019-06-19T11:47:27Z</time>
      </trkpt>
      <trkpt lat="43.411939" lon="-6.314521">
        <ele>644.618</ele>
        <time>2019-06-19T11:47:28Z</time>
      </trkpt>
      <trkpt lat="43.411853" lon="-6.314620">
        <ele>646.668</ele>
        <time>2019-06-19T11:47:29Z</time>
      </trkpt>
      <trkpt lat="43.411760" lon="-6.314675">
        <ele>647.452</ele>
        <time>2019-06-19T11:47:30Z</time>
      </trkpt>
      <trkpt lat="43.411678" lon="-6.314771">
        <ele>649.153</ele>
        <time>2019-06-19T11:47:31Z</time>
      </trkpt>
      <trkpt lat="43.411598" lon="-6.314825">
        <ele>650.608</ele>
        <time>2019-06-19T11:47:32Z</time>
      </trkpt>
      <trkpt lat="43.411524" lon="-6.314885">
        <ele>651.908</ele>
        <time>2019-06-19T11:47:33Z</time>
      </trkpt>
      <trkpt lat="43.411447" lon="-6.314950">
        <ele>652.738</ele>
        <time>2019-06-19T11:47:34Z</time>
      </trkpt>
      <trkpt lat="43.411345" lon="-6.314861">
        <ele>652.562</ele>
        <time>2019-06-19T11:47:35Z</time>
      </trkpt>
      <trkpt lat="43.411261" lon="-6.314804">
        <ele>653.223</ele>
        <time>2019-06-19T11:47:36Z</time>
      </trkpt>
      <trkpt lat="43.411179" lon="-6.314708">
        <ele>654.056</ele>
        <time>2019-06-19T11:47:37Z</time>
      </trkpt>
      <trkpt lat="43.411103" lon="-6.314608">
        <ele>654.636</ele>
        <time>2019-06-19T11:47:38Z</time>
      </trkpt>
      <trkpt lat="43.411049" lon="-6.314493">
        <ele>654.452</ele>
        <time>2019-06-19T11:47:39Z</time>
      </trkpt>
      <trkpt lat="43.410985" lon="-6.314377">
        <ele>654.160</ele>
        <time>2019-06-19T11:47:40Z</time>
      </trkpt>
      <trkpt lat="43.410902" lon="-6.314296">
        <ele>653.890</ele>
        <time>2019-06-19T11:47:41Z</time>
      </trkpt>
      <trkpt lat="43.410773" lon="-6.314220">
        <ele>654.078</ele>
        <time>2019-06-19T11:47:42Z</time>
      </trkpt>
      <trkpt lat="43.410684" lon="-6.314179">
        <ele>654.733</ele>
        <time>2019-06-19T11:47:43Z</time>
      </trkpt>
      <trkpt lat="43.410552" lon="-6.314151">
        <ele>655.926</ele>
        <time>2019-06-19T11:47:44Z</time>
      </trkpt>
      <trkpt lat="43.410431" lon="-6.314145">
        <ele>657.208</ele>
        <time>2019-06-19T11:47:45Z</time>
      </trkpt>
      <trkpt lat="43.410344" lon="-6.314182">
        <ele>658.470</ele>
        <time>2019-06-19T11:47:46Z</time>
      </trkpt>
      <trkpt lat="43.410211" lon="-6.314227">
        <ele>658.494</ele>
        <time>2019-06-19T11:47:47Z</time>
      </trkpt>
      <trkpt lat="43.410089" lon="-6.314285">
        <ele>657.685</ele>
        <time>2019-06-19T11:47:48Z</time>
      </trkpt>
      <trkpt lat="43.409972" lon="-6.314364">
        <ele>657.178</ele>
        <time>2019-06-19T11:47:49Z</time>
      </trkpt>
      <trkpt lat="43.409833" lon="-6.314431">
        <ele>654.698</ele>
        <time>2019-06-19T11:47:50Z</time>
      </trkpt>
      <trkpt lat="43.409707" lon="-6.314515">
        <ele>652.924</ele>
        <time>2019-06-19T11:47:51Z</time>
      </trkpt>
      <trkpt lat="43.409575" lon="-6.314600">
        <ele>652.622</ele>
        <time>2019-06-19T11:47:52Z</time>
      </trkpt>
      <trkpt lat="43.409448" lon="-6.314697">
        <ele>652.722</ele>
        <time>2019-06-19T11:47:53Z</time>
      </trkpt>
      <trkpt lat="43.409319" lon="-6.314758">
        <ele>654.023</ele>
        <time>2019-06-19T11:47:54Z</time>
      </trkpt>
      <trkpt lat="43.409177" lon="-6.314834">
        <ele>655.283</ele>
        <time>2019-06-19T11:47:55Z</time>
      </trkpt>
      <trkpt lat="43.409034" lon="-6.314922">
        <ele>655.911</ele>
        <time>2019-06-19T11:47:56Z</time>
      </trkpt>
      <trkpt lat="43.408887" lon="-6.315013">
        <ele>656.008</ele>
        <time>2019-06-19T11:47:57Z</time>
      </trkpt>
      <trkpt lat="43.408757" lon="-6.315102">
        <ele>656.215</ele>
        <time>2019-06-19T11:47:58Z</time>
      </trkpt>
      <trkpt lat="43.408618" lon="-6.315189">
        <ele>656.089</ele>
        <time>2019-06-19T11:47:59Z</time>
      </trkpt>
      <trkpt lat="43.408476" lon="-6.315274">
        <ele>656.080</ele>
        <time>2019-06-19T11:48:00Z</time>
      </trkpt>
      <trkpt lat="43.408336" lon="-6.315353">
        <ele>656.083</ele>
        <time>2019-06-19T11:48:01Z</time>
      </trkpt>
      <trkpt lat="43.408206" lon="-6.315413">
        <ele>656.063</ele>
        <time>2019-06-19T11:48:02Z</time>
      </trkpt>
      <trkpt lat="43.408056" lon="-6.315501">
        <ele>656.079</ele>
        <time>2019-06-19T11:48:03Z</time>
      </trkpt>
      <trkpt lat="43.407908" lon="-6.315597">
        <ele>655.377</ele>
        <time>2019-06-19T11:48:04Z</time>
      </trkpt>
      <trkpt lat="43.407751" lon="-6.315684">
        <ele>654.517</ele>
        <time>2019-06-19T11:48:05Z</time>
      </trkpt>
      <trkpt lat="43.407595" lon="-6.315778">
        <ele>654.251</ele>
        <time>2019-06-19T11:48:06Z</time>
      </trkpt>
      <trkpt lat="43.407451" lon="-6.315861">
        <ele>654.201</ele>
        <time>2019-06-19T11:48:07Z</time>
      </trkpt>
      <trkpt lat="43.407293" lon="-6.315951">
        <ele>654.411</ele>
        <time>2019-06-19T11:48:08Z</time>
      </trkpt>
      <trkpt lat="43.407139" lon="-6.316022">
        <ele>654.008</ele>
        <time>2019-06-19T11:48:09Z</time>
      </trkpt>
      <trkpt lat="43.406973" lon="-6.316115">
        <ele>653.178</ele>
        <time>2019-06-19T11:48:10Z</time>
      </trkpt>
      <trkpt lat="43.406830" lon="-6.316200">
        <ele>651.542</ele>
        <time>2019-06-19T11:48:11Z</time>
      </trkpt>
      <trkpt lat="43.406672" lon="-6.316284">
        <ele>649.833</ele>
        <time>2019-06-19T11:48:12Z</time>
      </trkpt>
      <trkpt lat="43.406518" lon="-6.316383">
        <ele>648.526</ele>
        <time>2019-06-19T11:48:13Z</time>
      </trkpt>
      <trkpt lat="43.406352" lon="-6.316462">
        <ele>647.536</ele>
        <time>2019-06-19T11:48:14Z</time>
      </trkpt>
      <trkpt lat="43.406187" lon="-6.316555">
        <ele>646.822</ele>
        <time>2019-06-19T11:48:15Z</time>
      </trkpt>
      <trkpt lat="43.406028" lon="-6.316648">
        <ele>646.170</ele>
        <time>2019-06-19T11:48:16Z</time>
      </trkpt>
      <trkpt lat="43.405867" lon="-6.316730">
        <ele>645.870</ele>
        <time>2019-06-19T11:48:17Z</time>
      </trkpt>
      <trkpt lat="43.405727" lon="-6.316806">
        <ele>645.983</ele>
        <time>2019-06-19T11:48:18Z</time>
      </trkpt>
      <trkpt lat="43.405583" lon="-6.316882">
        <ele>646.125</ele>
        <time>2019-06-19T11:48:19Z</time>
      </trkpt>
      <trkpt lat="43.405449" lon="-6.316958">
        <ele>645.917</ele>
        <time>2019-06-19T11:48:20Z</time>
      </trkpt>
      <trkpt lat="43.405318" lon="-6.317033">
        <ele>645.408</ele>
        <time>2019-06-19T11:48:21Z</time>
      </trkpt>
      <trkpt lat="43.405192" lon="-6.317102">
        <ele>644.691</ele>
        <time>2019-06-19T11:48:22Z</time>
      </trkpt>
      <trkpt lat="43.405061" lon="-6.317168">
        <ele>643.675</ele>
        <time>2019-06-19T11:48:23Z</time>
      </trkpt>
      <trkpt lat="43.404936" lon="-6.317238">
        <ele>643.436</ele>
        <time>2019-06-19T11:48:24Z</time>
      </trkpt>
      <trkpt lat="43.404819" lon="-6.317309">
        <ele>644.069</ele>
        <time>2019-06-19T11:48:25Z</time>
      </trkpt>
      <trkpt lat="43.404687" lon="-6.317367">
        <ele>644.669</ele>
        <time>2019-06-19T11:48:26Z</time>
      </trkpt>
      <trkpt lat="43.404556" lon="-6.317434">
        <ele>644.875</ele>
        <time>2019-06-19T11:48:27Z</time>
      </trkpt>
      <trkpt lat="43.404429" lon="-6.317505">
        <ele>644.913</ele>
        <time>2019-06-19T11:48:28Z</time>
      </trkpt>
      <trkpt lat="43.404306" lon="-6.317574">
        <ele>644.013</ele>
        <time>2019-06-19T11:48:29Z</time>
      </trkpt>
      <trkpt lat="43.404190" lon="-6.317666">
        <ele>642.976</ele>
        <time>2019-06-19T11:48:30Z</time>
      </trkpt>
      <trkpt lat="43.404071" lon="-6.317767">
        <ele>641.790</ele>
        <time>2019-06-19T11:48:31Z</time>
      </trkpt>
      <trkpt lat="43.403975" lon="-6.317888">
        <ele>640.119</ele>
        <time>2019-06-19T11:48:32Z</time>
      </trkpt>
      <trkpt lat="43.403882" lon="-6.318019">
        <ele>638.408</ele>
        <time>2019-06-19T11:48:33Z</time>
      </trkpt>
      <trkpt lat="43.403793" lon="-6.318161">
        <ele>637.820</ele>
        <time>2019-06-19T11:48:34Z</time>
      </trkpt>
      <trkpt lat="43.403708" lon="-6.318303">
        <ele>636.954</ele>
        <time>2019-06-19T11:48:35Z</time>
      </trkpt>
      <trkpt lat="43.403631" lon="-6.318440">
        <ele>636.275</ele>
        <time>2019-06-19T11:48:36Z</time>
      </trkpt>
      <trkpt lat="43.403554" lon="-6.318571">
        <ele>635.728</ele>
        <time>2019-06-19T11:48:37Z</time>
      </trkpt>
      <trkpt lat="43.403485" lon="-6.318691">
        <ele>635.918</ele>
        <time>2019-06-19T11:48:38Z</time>
      </trkpt>
      <trkpt lat="43.403414" lon="-6.318812">
        <ele>636.424</ele>
        <time>2019-06-19T11:48:39Z</time>
      </trkpt>
      <trkpt lat="43.403352" lon="-6.318922">
        <ele>636.982</ele>
        <time>2019-06-19T11:48:40Z</time>
      </trkpt>
      <trkpt lat="43.403292" lon="-6.319023">
        <ele>637.242</ele>
        <time>2019-06-19T11:48:41Z</time>
      </trkpt>
      <trkpt lat="43.403222" lon="-6.319120">
        <ele>637.591</ele>
        <time>2019-06-19T11:48:42Z</time>
      </trkpt>
      <trkpt lat="43.403179" lon="-6.319215">
        <ele>637.481</ele>
        <time>2019-06-19T11:48:43Z</time>
      </trkpt>
      <trkpt lat="43.403158" lon="-6.319323">
        <ele>637.119</ele>
        <time>2019-06-19T11:48:44Z</time>
      </trkpt>
      <trkpt lat="43.403165" lon="-6.319412">
        <ele>636.708</ele>
        <time>2019-06-19T11:48:45Z</time>
      </trkpt>
      <trkpt lat="43.403165" lon="-6.319499">
        <ele>636.442</ele>
        <time>2019-06-19T11:48:46Z</time>
      </trkpt>
      <trkpt lat="43.403172" lon="-6.319590">
        <ele>636.126</ele>
        <time>2019-06-19T11:48:47Z</time>
      </trkpt>
      <trkpt lat="43.403154" lon="-6.319683">
        <ele>635.897</ele>
        <time>2019-06-19T11:48:48Z</time>
      </trkpt>
      <trkpt lat="43.403129" lon="-6.319762">
        <ele>635.570</ele>
        <time>2019-06-19T11:48:49Z</time>
      </trkpt>
      <trkpt lat="43.403087" lon="-6.319838">
        <ele>635.180</ele>
        <time>2019-06-19T11:48:50Z</time>
      </trkpt>
      <trkpt lat="43.403033" lon="-6.319901">
        <ele>634.876</ele>
        <time>2019-06-19T11:48:51Z</time>
      </trkpt>
      <trkpt lat="43.402974" lon="-6.319932">
        <ele>634.884</ele>
        <time>2019-06-19T11:48:52Z</time>
      </trkpt>
      <trkpt lat="43.402930" lon="-6.319951">
        <ele>634.814</ele>
        <time>2019-06-19T11:48:53Z</time>
      </trkpt>
      <trkpt lat="43.402865" lon="-6.319959">
        <ele>635.051</ele>
        <time>2019-06-19T11:48:55Z</time>
      </trkpt>
      <trkpt lat="43.402814" lon="-6.319958">
        <ele>635.201</ele>
        <time>2019-06-19T11:50:00Z</time>
      </trkpt>
      <trkpt lat="43.402722" lon="-6.319998">
        <ele>635.211</ele>
        <time>2019-06-19T11:50:02Z</time>
      </trkpt>
      <trkpt lat="43.402655" lon="-6.320055">
        <ele>635.008</ele>
        <time>2019-06-19T11:50:03Z</time>
      </trkpt>
      <trkpt lat="43.402592" lon="-6.320143">
        <ele>634.648</ele>
        <time>2019-06-19T11:50:04Z</time>
      </trkpt>
      <trkpt lat="43.402523" lon="-6.320251">
        <ele>634.192</ele>
        <time>2019-06-19T11:50:05Z</time>
      </trkpt>
      <trkpt lat="43.402450" lon="-6.320376">
        <ele>633.233</ele>
        <time>2019-06-19T11:50:06Z</time>
      </trkpt>
      <trkpt lat="43.402375" lon="-6.320509">
        <ele>632.356</ele>
        <time>2019-06-19T11:50:07Z</time>
      </trkpt>
      <trkpt lat="43.402288" lon="-6.320651">
        <ele>631.746</ele>
        <time>2019-06-19T11:50:08Z</time>
      </trkpt>
      <trkpt lat="43.402206" lon="-6.320798">
        <ele>631.272</ele>
        <time>2019-06-19T11:50:09Z</time>
      </trkpt>
      <trkpt lat="43.402117" lon="-6.320947">
        <ele>631.190</ele>
        <time>2019-06-19T11:50:10Z</time>
      </trkpt>
      <trkpt lat="43.402025" lon="-6.321105">
        <ele>630.320</ele>
        <time>2019-06-19T11:50:11Z</time>
      </trkpt>
      <trkpt lat="43.401928" lon="-6.321270">
        <ele>629.578</ele>
        <time>2019-06-19T11:50:12Z</time>
      </trkpt>
      <trkpt lat="43.401818" lon="-6.321443">
        <ele>629.333</ele>
        <time>2019-06-19T11:50:13Z</time>
      </trkpt>
      <trkpt lat="43.401706" lon="-6.321621">
        <ele>629.726</ele>
        <time>2019-06-19T11:50:14Z</time>
      </trkpt>
      <trkpt lat="43.401607" lon="-6.321813">
        <ele>630.208</ele>
        <time>2019-06-19T11:50:15Z</time>
      </trkpt>
      <trkpt lat="43.401493" lon="-6.321994">
        <ele>630.670</ele>
        <time>2019-06-19T11:50:16Z</time>
      </trkpt>
      <trkpt lat="43.401374" lon="-6.322195">
        <ele>630.914</ele>
        <time>2019-06-19T11:50:17Z</time>
      </trkpt>
      <trkpt lat="43.401246" lon="-6.322390">
        <ele>630.865</ele>
        <time>2019-06-19T11:50:18Z</time>
      </trkpt>
      <trkpt lat="43.401127" lon="-6.322583">
        <ele>631.618</ele>
        <time>2019-06-19T11:50:19Z</time>
      </trkpt>
      <trkpt lat="43.401009" lon="-6.322765">
        <ele>632.968</ele>
        <time>2019-06-19T11:50:20Z</time>
      </trkpt>
      <trkpt lat="43.400897" lon="-6.322945">
        <ele>633.684</ele>
        <time>2019-06-19T11:50:21Z</time>
      </trkpt>
      <trkpt lat="43.400792" lon="-6.323119">
        <ele>634.312</ele>
        <time>2019-06-19T11:50:22Z</time>
      </trkpt>
      <trkpt lat="43.400683" lon="-6.323298">
        <ele>634.942</ele>
        <time>2019-06-19T11:50:23Z</time>
      </trkpt>
      <trkpt lat="43.400574" lon="-6.323480">
        <ele>635.518</ele>
        <time>2019-06-19T11:50:24Z</time>
      </trkpt>
      <trkpt lat="43.400467" lon="-6.323665">
        <ele>637.198</ele>
        <time>2019-06-19T11:50:25Z</time>
      </trkpt>
      <trkpt lat="43.400364" lon="-6.323874">
        <ele>638.417</ele>
        <time>2019-06-19T11:50:26Z</time>
      </trkpt>
      <trkpt lat="43.400262" lon="-6.324099">
        <ele>639.008</ele>
        <time>2019-06-19T11:50:27Z</time>
      </trkpt>
      <trkpt lat="43.400147" lon="-6.324322">
        <ele>639.654</ele>
        <time>2019-06-19T11:50:28Z</time>
      </trkpt>
      <trkpt lat="43.400041" lon="-6.324555">
        <ele>640.188</ele>
        <time>2019-06-19T11:50:29Z</time>
      </trkpt>
      <trkpt lat="43.399940" lon="-6.324798">
        <ele>640.339</ele>
        <time>2019-06-19T11:50:30Z</time>
      </trkpt>
      <trkpt lat="43.399828" lon="-6.325040">
        <ele>641.072</ele>
        <time>2019-06-19T11:50:31Z</time>
      </trkpt>
      <trkpt lat="43.399714" lon="-6.325287">
        <ele>642.092</ele>
        <time>2019-06-19T11:50:32Z</time>
      </trkpt>
      <trkpt lat="43.399599" lon="-6.325530">
        <ele>642.538</ele>
        <time>2019-06-19T11:50:33Z</time>
      </trkpt>
      <trkpt lat="43.399491" lon="-6.325769">
        <ele>642.346</ele>
        <time>2019-06-19T11:50:34Z</time>
      </trkpt>
      <trkpt lat="43.399372" lon="-6.326017">
        <ele>642.476</ele>
        <time>2019-06-19T11:50:35Z</time>
      </trkpt>
      <trkpt lat="43.399277" lon="-6.326269">
        <ele>643.361</ele>
        <time>2019-06-19T11:50:36Z</time>
      </trkpt>
      <trkpt lat="43.399163" lon="-6.326521">
        <ele>644.521</ele>
        <time>2019-06-19T11:50:37Z</time>
      </trkpt>
      <trkpt lat="43.399039" lon="-6.326764">
        <ele>645.613</ele>
        <time>2019-06-19T11:50:38Z</time>
      </trkpt>
      <trkpt lat="43.398934" lon="-6.327016">
        <ele>646.508</ele>
        <time>2019-06-19T11:50:39Z</time>
      </trkpt>
      <trkpt lat="43.398841" lon="-6.327277">
        <ele>647.859</ele>
        <time>2019-06-19T11:50:40Z</time>
      </trkpt>
      <trkpt lat="43.398725" lon="-6.327527">
        <ele>647.243</ele>
        <time>2019-06-19T11:50:41Z</time>
      </trkpt>
      <trkpt lat="43.398602" lon="-6.327773">
        <ele>645.084</ele>
        <time>2019-06-19T11:50:42Z</time>
      </trkpt>
      <trkpt lat="43.398490" lon="-6.328027">
        <ele>645.957</ele>
        <time>2019-06-19T11:50:43Z</time>
      </trkpt>
      <trkpt lat="43.398365" lon="-6.328280">
        <ele>646.887</ele>
        <time>2019-06-19T11:50:44Z</time>
      </trkpt>
      <trkpt lat="43.398246" lon="-6.328514">
        <ele>647.653</ele>
        <time>2019-06-19T11:50:45Z</time>
      </trkpt>
      <trkpt lat="43.398129" lon="-6.328770">
        <ele>649.061</ele>
        <time>2019-06-19T11:50:46Z</time>
      </trkpt>
      <trkpt lat="43.398014" lon="-6.329036">
        <ele>650.751</ele>
        <time>2019-06-19T11:50:47Z</time>
      </trkpt>
      <trkpt lat="43.397892" lon="-6.329303">
        <ele>652.591</ele>
        <time>2019-06-19T11:50:48Z</time>
      </trkpt>
      <trkpt lat="43.397763" lon="-6.329544">
        <ele>653.081</ele>
        <time>2019-06-19T11:50:49Z</time>
      </trkpt>
      <trkpt lat="43.397641" lon="-6.329809">
        <ele>653.619</ele>
        <time>2019-06-19T11:50:50Z</time>
      </trkpt>
      <trkpt lat="43.397528" lon="-6.330092">
        <ele>655.708</ele>
        <time>2019-06-19T11:50:51Z</time>
      </trkpt>
      <trkpt lat="43.397423" lon="-6.330369">
        <ele>657.092</ele>
        <time>2019-06-19T11:50:52Z</time>
      </trkpt>
      <trkpt lat="43.397297" lon="-6.330641">
        <ele>656.686</ele>
        <time>2019-06-19T11:50:53Z</time>
      </trkpt>
      <trkpt lat="43.397175" lon="-6.330906">
        <ele>656.387</ele>
        <time>2019-06-19T11:50:54Z</time>
      </trkpt>
      <trkpt lat="43.397052" lon="-6.331162">
        <ele>657.290</ele>
        <time>2019-06-19T11:50:55Z</time>
      </trkpt>
      <trkpt lat="43.396932" lon="-6.331407">
        <ele>658.070</ele>
        <time>2019-06-19T11:50:56Z</time>
      </trkpt>
      <trkpt lat="43.396821" lon="-6.331656">
        <ele>658.636</ele>
        <time>2019-06-19T11:50:57Z</time>
      </trkpt>
      <trkpt lat="43.396712" lon="-6.331901">
        <ele>659.294</ele>
        <time>2019-06-19T11:50:58Z</time>
      </trkpt>
      <trkpt lat="43.396607" lon="-6.332110">
        <ele>659.654</ele>
        <time>2019-06-19T11:50:59Z</time>
      </trkpt>
      <trkpt lat="43.396508" lon="-6.332333">
        <ele>659.931</ele>
        <time>2019-06-19T11:51:00Z</time>
      </trkpt>
      <trkpt lat="43.396405" lon="-6.332514">
        <ele>659.361</ele>
        <time>2019-06-19T11:51:01Z</time>
      </trkpt>
      <trkpt lat="43.396315" lon="-6.332700">
        <ele>659.207</ele>
        <time>2019-06-19T11:51:02Z</time>
      </trkpt>
      <trkpt lat="43.396230" lon="-6.332865">
        <ele>658.908</ele>
        <time>2019-06-19T11:51:03Z</time>
      </trkpt>
      <trkpt lat="43.396155" lon="-6.333047">
        <ele>658.376</ele>
        <time>2019-06-19T11:51:04Z</time>
      </trkpt>
      <trkpt lat="43.396083" lon="-6.333206">
        <ele>658.440</ele>
        <time>2019-06-19T11:51:05Z</time>
      </trkpt>
      <trkpt lat="43.395998" lon="-6.333354">
        <ele>658.831</ele>
        <time>2019-06-19T11:51:06Z</time>
      </trkpt>
      <trkpt lat="43.395922" lon="-6.333505">
        <ele>660.084</ele>
        <time>2019-06-19T11:51:07Z</time>
      </trkpt>
      <trkpt lat="43.395882" lon="-6.333617">
        <ele>661.064</ele>
        <time>2019-06-19T11:51:08Z</time>
      </trkpt>
      <trkpt lat="43.395817" lon="-6.333764">
        <ele>662.060</ele>
        <time>2019-06-19T11:51:09Z</time>
      </trkpt>
      <trkpt lat="43.395754" lon="-6.333928">
        <ele>662.778</ele>
        <time>2019-06-19T11:51:10Z</time>
      </trkpt>
      <trkpt lat="43.395677" lon="-6.334078">
        <ele>662.118</ele>
        <time>2019-06-19T11:51:11Z</time>
      </trkpt>
      <trkpt lat="43.395619" lon="-6.334217">
        <ele>661.446</ele>
        <time>2019-06-19T11:51:12Z</time>
      </trkpt>
      <trkpt lat="43.395543" lon="-6.334354">
        <ele>660.888</ele>
        <time>2019-06-19T11:51:13Z</time>
      </trkpt>
      <trkpt lat="43.395481" lon="-6.334486">
        <ele>659.616</ele>
        <time>2019-06-19T11:51:14Z</time>
      </trkpt>
      <trkpt lat="43.395421" lon="-6.334621">
        <ele>657.808</ele>
        <time>2019-06-19T11:51:15Z</time>
      </trkpt>
      <trkpt lat="43.395357" lon="-6.334748">
        <ele>656.637</ele>
        <time>2019-06-19T11:51:16Z</time>
      </trkpt>
      <trkpt lat="43.395301" lon="-6.334872">
        <ele>656.671</ele>
        <time>2019-06-19T11:51:17Z</time>
      </trkpt>
      <trkpt lat="43.395248" lon="-6.335012">
        <ele>656.992</ele>
        <time>2019-06-19T11:51:18Z</time>
      </trkpt>
      <trkpt lat="43.395182" lon="-6.335133">
        <ele>657.145</ele>
        <time>2019-06-19T11:51:19Z</time>
      </trkpt>
      <trkpt lat="43.395126" lon="-6.335254">
        <ele>657.495</ele>
        <time>2019-06-19T11:51:20Z</time>
      </trkpt>
      <trkpt lat="43.395087" lon="-6.335409">
        <ele>657.651</ele>
        <time>2019-06-19T11:51:21Z</time>
      </trkpt>
      <trkpt lat="43.395034" lon="-6.335534">
        <ele>657.989</ele>
        <time>2019-06-19T11:51:22Z</time>
      </trkpt>
      <trkpt lat="43.394988" lon="-6.335666">
        <ele>658.079</ele>
        <time>2019-06-19T11:51:23Z</time>
      </trkpt>
      <trkpt lat="43.394935" lon="-6.335810">
        <ele>657.883</ele>
        <time>2019-06-19T11:51:24Z</time>
      </trkpt>
      <trkpt lat="43.394893" lon="-6.335962">
        <ele>657.325</ele>
        <time>2019-06-19T11:51:25Z</time>
      </trkpt>
      <trkpt lat="43.394891" lon="-6.336130">
        <ele>657.017</ele>
        <time>2019-06-19T11:51:26Z</time>
      </trkpt>
      <trkpt lat="43.394869" lon="-6.336293">
        <ele>656.708</ele>
        <time>2019-06-19T11:51:27Z</time>
      </trkpt>
      <trkpt lat="43.394907" lon="-6.336456">
        <ele>656.381</ele>
        <time>2019-06-19T11:51:28Z</time>
      </trkpt>
      <trkpt lat="43.394922" lon="-6.336595">
        <ele>656.365</ele>
        <time>2019-06-19T11:51:29Z</time>
      </trkpt>
      <trkpt lat="43.394943" lon="-6.336762">
        <ele>655.496</ele>
        <time>2019-06-19T11:51:30Z</time>
      </trkpt>
      <trkpt lat="43.394983" lon="-6.336917">
        <ele>654.219</ele>
        <time>2019-06-19T11:51:31Z</time>
      </trkpt>
      <trkpt lat="43.395023" lon="-6.337080">
        <ele>653.019</ele>
        <time>2019-06-19T11:51:32Z</time>
      </trkpt>
      <trkpt lat="43.395072" lon="-6.337241">
        <ele>651.815</ele>
        <time>2019-06-19T11:51:33Z</time>
      </trkpt>
      <trkpt lat="43.395131" lon="-6.337414">
        <ele>650.353</ele>
        <time>2019-06-19T11:51:34Z</time>
      </trkpt>
      <trkpt lat="43.395240" lon="-6.337542">
        <ele>649.453</ele>
        <time>2019-06-19T11:51:35Z</time>
      </trkpt>
      <trkpt lat="43.395316" lon="-6.337675">
        <ele>648.113</ele>
        <time>2019-06-19T11:51:36Z</time>
      </trkpt>
      <trkpt lat="43.395417" lon="-6.337788">
        <ele>646.943</ele>
        <time>2019-06-19T11:51:37Z</time>
      </trkpt>
      <trkpt lat="43.395534" lon="-6.337882">
        <ele>646.207</ele>
        <time>2019-06-19T11:51:38Z</time>
      </trkpt>
      <trkpt lat="43.395701" lon="-6.337945">
        <ele>644.908</ele>
        <time>2019-06-19T11:51:39Z</time>
      </trkpt>
      <trkpt lat="43.395820" lon="-6.338028">
        <ele>642.664</ele>
        <time>2019-06-19T11:51:40Z</time>
      </trkpt>
      <trkpt lat="43.395992" lon="-6.337946">
        <ele>642.328</ele>
        <time>2019-06-19T11:51:41Z</time>
      </trkpt>
      <trkpt lat="43.396127" lon="-6.337929">
        <ele>641.269</ele>
        <time>2019-06-19T11:51:42Z</time>
      </trkpt>
      <trkpt lat="43.396289" lon="-6.337930">
        <ele>640.652</ele>
        <time>2019-06-19T11:51:43Z</time>
      </trkpt>
      <trkpt lat="43.396447" lon="-6.337806">
        <ele>642.522</ele>
        <time>2019-06-19T11:51:44Z</time>
      </trkpt>
      <trkpt lat="43.396609" lon="-6.337687">
        <ele>643.978</ele>
        <time>2019-06-19T11:51:45Z</time>
      </trkpt>
      <trkpt lat="43.396754" lon="-6.337563">
        <ele>643.096</ele>
        <time>2019-06-19T11:51:46Z</time>
      </trkpt>
      <trkpt lat="43.396925" lon="-6.337444">
        <ele>641.046</ele>
        <time>2019-06-19T11:51:47Z</time>
      </trkpt>
      <trkpt lat="43.397078" lon="-6.337331">
        <ele>639.648</ele>
        <time>2019-06-19T11:51:48Z</time>
      </trkpt>
      <trkpt lat="43.397226" lon="-6.337214">
        <ele>638.161</ele>
        <time>2019-06-19T11:51:49Z</time>
      </trkpt>
      <trkpt lat="43.397371" lon="-6.337120">
        <ele>637.717</ele>
        <time>2019-06-19T11:51:50Z</time>
      </trkpt>
      <trkpt lat="43.397538" lon="-6.337062">
        <ele>636.608</ele>
        <time>2019-06-19T11:51:51Z</time>
      </trkpt>
      <trkpt lat="43.397686" lon="-6.337021">
        <ele>636.537</ele>
        <time>2019-06-19T11:51:52Z</time>
      </trkpt>
      <trkpt lat="43.397845" lon="-6.337022">
        <ele>635.381</ele>
        <time>2019-06-19T11:51:53Z</time>
      </trkpt>
      <trkpt lat="43.398010" lon="-6.337039">
        <ele>632.962</ele>
        <time>2019-06-19T11:51:54Z</time>
      </trkpt>
      <trkpt lat="43.398156" lon="-6.337109">
        <ele>631.285</ele>
        <time>2019-06-19T11:51:55Z</time>
      </trkpt>
      <trkpt lat="43.398309" lon="-6.337210">
        <ele>629.375</ele>
        <time>2019-06-19T11:51:56Z</time>
      </trkpt>
      <trkpt lat="43.398467" lon="-6.337317">
        <ele>628.741</ele>
        <time>2019-06-19T11:51:57Z</time>
      </trkpt>
      <trkpt lat="43.398617" lon="-6.337408">
        <ele>628.739</ele>
        <time>2019-06-19T11:51:58Z</time>
      </trkpt>
      <trkpt lat="43.398756" lon="-6.337493">
        <ele>628.739</ele>
        <time>2019-06-19T11:51:59Z</time>
      </trkpt>
      <trkpt lat="43.398891" lon="-6.337565">
        <ele>628.615</ele>
        <time>2019-06-19T11:52:00Z</time>
      </trkpt>
      <trkpt lat="43.399031" lon="-6.337575">
        <ele>628.065</ele>
        <time>2019-06-19T11:52:01Z</time>
      </trkpt>
      <trkpt lat="43.399180" lon="-6.337578">
        <ele>627.211</ele>
        <time>2019-06-19T11:52:02Z</time>
      </trkpt>
      <trkpt lat="43.399327" lon="-6.337583">
        <ele>624.608</ele>
        <time>2019-06-19T11:52:03Z</time>
      </trkpt>
      <trkpt lat="43.399468" lon="-6.337538">
        <ele>623.414</ele>
        <time>2019-06-19T11:52:04Z</time>
      </trkpt>
      <trkpt lat="43.399617" lon="-6.337405">
        <ele>623.078</ele>
        <time>2019-06-19T11:52:05Z</time>
      </trkpt>
      <trkpt lat="43.399756" lon="-6.337319">
        <ele>621.919</ele>
        <time>2019-06-19T11:52:06Z</time>
      </trkpt>
      <trkpt lat="43.399890" lon="-6.337233">
        <ele>622.092</ele>
        <time>2019-06-19T11:52:07Z</time>
      </trkpt>
      <trkpt lat="43.400041" lon="-6.337118">
        <ele>621.462</ele>
        <time>2019-06-19T11:52:08Z</time>
      </trkpt>
      <trkpt lat="43.400169" lon="-6.336971">
        <ele>621.568</ele>
        <time>2019-06-19T11:52:09Z</time>
      </trkpt>
      <trkpt lat="43.400267" lon="-6.336823">
        <ele>622.096</ele>
        <time>2019-06-19T11:52:10Z</time>
      </trkpt>
      <trkpt lat="43.400372" lon="-6.336661">
        <ele>621.386</ele>
        <time>2019-06-19T11:52:11Z</time>
      </trkpt>
      <trkpt lat="43.400448" lon="-6.336456">
        <ele>620.436</ele>
        <time>2019-06-19T11:52:12Z</time>
      </trkpt>
      <trkpt lat="43.400539" lon="-6.336279">
        <ele>620.117</ele>
        <time>2019-06-19T11:52:13Z</time>
      </trkpt>
      <trkpt lat="43.400631" lon="-6.336116">
        <ele>618.518</ele>
        <time>2019-06-19T11:52:14Z</time>
      </trkpt>
      <trkpt lat="43.400740" lon="-6.335987">
        <ele>617.108</ele>
        <time>2019-06-19T11:52:15Z</time>
      </trkpt>
      <trkpt lat="43.400812" lon="-6.335874">
        <ele>616.966</ele>
        <time>2019-06-19T11:52:16Z</time>
      </trkpt>
      <trkpt lat="43.400856" lon="-6.335763">
        <ele>618.590</ele>
        <time>2019-06-19T11:52:17Z</time>
      </trkpt>
      <trkpt lat="43.401009" lon="-6.335689">
        <ele>618.441</ele>
        <time>2019-06-19T11:52:18Z</time>
      </trkpt>
      <trkpt lat="43.401080" lon="-6.335650">
        <ele>618.754</ele>
        <time>2019-06-19T11:52:19Z</time>
      </trkpt>
      <trkpt lat="43.401157" lon="-6.335683">
        <ele>618.294</ele>
        <time>2019-06-19T11:52:20Z</time>
      </trkpt>
      <trkpt lat="43.401270" lon="-6.335862">
        <ele>616.020</ele>
        <time>2019-06-19T11:52:22Z</time>
      </trkpt>
      <trkpt lat="43.401412" lon="-6.336137">
        <ele>614.018</ele>
        <time>2019-06-19T11:52:23Z</time>
      </trkpt>
      <trkpt lat="43.401535" lon="-6.336311">
        <ele>613.648</ele>
        <time>2019-06-19T11:52:24Z</time>
      </trkpt>
      <trkpt lat="43.401667" lon="-6.336487">
        <ele>612.226</ele>
        <time>2019-06-19T11:52:25Z</time>
      </trkpt>
      <trkpt lat="43.401842" lon="-6.336599">
        <ele>612.947</ele>
        <time>2019-06-19T11:52:26Z</time>
      </trkpt>
      <trkpt lat="43.401995" lon="-6.336742">
        <ele>611.311</ele>
        <time>2019-06-19T11:52:27Z</time>
      </trkpt>
      <trkpt lat="43.402146" lon="-6.336888">
        <ele>608.208</ele>
        <time>2019-06-19T11:52:28Z</time>
      </trkpt>
      <trkpt lat="43.402265" lon="-6.337022">
        <ele>605.695</ele>
        <time>2019-06-19T11:52:29Z</time>
      </trkpt>
      <trkpt lat="43.402406" lon="-6.337134">
        <ele>604.769</ele>
        <time>2019-06-19T11:52:30Z</time>
      </trkpt>
      <trkpt lat="43.402542" lon="-6.337261">
        <ele>603.770</ele>
        <time>2019-06-19T11:52:31Z</time>
      </trkpt>
      <trkpt lat="43.402670" lon="-6.337382">
        <ele>603.223</ele>
        <time>2019-06-19T11:52:32Z</time>
      </trkpt>
      <trkpt lat="43.402795" lon="-6.337496">
        <ele>603.333</ele>
        <time>2019-06-19T11:52:33Z</time>
      </trkpt>
      <trkpt lat="43.402934" lon="-6.337596">
        <ele>602.359</ele>
        <time>2019-06-19T11:52:34Z</time>
      </trkpt>
      <trkpt lat="43.403072" lon="-6.337674">
        <ele>601.557</ele>
        <time>2019-06-19T11:52:35Z</time>
      </trkpt>
      <trkpt lat="43.403210" lon="-6.337759">
        <ele>598.957</ele>
        <time>2019-06-19T11:52:36Z</time>
      </trkpt>
      <trkpt lat="43.403368" lon="-6.337707">
        <ele>599.381</ele>
        <time>2019-06-19T11:52:37Z</time>
      </trkpt>
      <trkpt lat="43.403544" lon="-6.337695">
        <ele>598.561</ele>
        <time>2019-06-19T11:52:38Z</time>
      </trkpt>
      <trkpt lat="43.403705" lon="-6.337673">
        <ele>598.217</ele>
        <time>2019-06-19T11:52:39Z</time>
      </trkpt>
      <trkpt lat="43.403868" lon="-6.337653">
        <ele>598.108</ele>
        <time>2019-06-19T11:52:40Z</time>
      </trkpt>
      <trkpt lat="43.404033" lon="-6.337648">
        <ele>598.721</ele>
        <time>2019-06-19T11:52:41Z</time>
      </trkpt>
      <trkpt lat="43.404183" lon="-6.337673">
        <ele>598.685</ele>
        <time>2019-06-19T11:52:42Z</time>
      </trkpt>
      <trkpt lat="43.404339" lon="-6.337720">
        <ele>598.436</ele>
        <time>2019-06-19T11:52:43Z</time>
      </trkpt>
      <trkpt lat="43.404495" lon="-6.337780">
        <ele>596.969</ele>
        <time>2019-06-19T11:52:44Z</time>
      </trkpt>
      <trkpt lat="43.404634" lon="-6.337856">
        <ele>594.559</ele>
        <time>2019-06-19T11:52:45Z</time>
      </trkpt>
      <trkpt lat="43.404787" lon="-6.337926">
        <ele>592.775</ele>
        <time>2019-06-19T11:52:46Z</time>
      </trkpt>
      <trkpt lat="43.404942" lon="-6.337983">
        <ele>592.743</ele>
        <time>2019-06-19T11:52:47Z</time>
      </trkpt>
      <trkpt lat="43.405081" lon="-6.338029">
        <ele>593.793</ele>
        <time>2019-06-19T11:52:48Z</time>
      </trkpt>
      <trkpt lat="43.405193" lon="-6.338070">
        <ele>594.411</ele>
        <time>2019-06-19T11:52:49Z</time>
      </trkpt>
      <trkpt lat="43.405327" lon="-6.338123">
        <ele>593.621</ele>
        <time>2019-06-19T11:52:50Z</time>
      </trkpt>
      <trkpt lat="43.405500" lon="-6.338140">
        <ele>591.203</ele>
        <time>2019-06-19T11:52:51Z</time>
      </trkpt>
      <trkpt lat="43.405558" lon="-6.338143">
        <ele>590.508</ele>
        <time>2019-06-19T11:52:52Z</time>
      </trkpt>
      <trkpt lat="43.405687" lon="-6.338136">
        <ele>587.564</ele>
        <time>2019-06-19T11:52:53Z</time>
      </trkpt>
      <trkpt lat="43.405850" lon="-6.338090">
        <ele>585.418</ele>
        <time>2019-06-19T11:52:54Z</time>
      </trkpt>
      <trkpt lat="43.405982" lon="-6.338036">
        <ele>585.769</ele>
        <time>2019-06-19T11:52:55Z</time>
      </trkpt>
      <trkpt lat="43.406115" lon="-6.337967">
        <ele>586.542</ele>
        <time>2019-06-19T11:52:56Z</time>
      </trkpt>
      <trkpt lat="43.406233" lon="-6.337922">
        <ele>586.382</ele>
        <time>2019-06-19T11:52:57Z</time>
      </trkpt>
      <trkpt lat="43.406348" lon="-6.337880">
        <ele>585.878</ele>
        <time>2019-06-19T11:52:58Z</time>
      </trkpt>
      <trkpt lat="43.406455" lon="-6.337848">
        <ele>586.856</ele>
        <time>2019-06-19T11:52:59Z</time>
      </trkpt>
      <trkpt lat="43.406538" lon="-6.337822">
        <ele>588.466</ele>
        <time>2019-06-19T11:53:00Z</time>
      </trkpt>
      <trkpt lat="43.406621" lon="-6.337870">
        <ele>588.154</ele>
        <time>2019-06-19T11:53:01Z</time>
      </trkpt>
      <trkpt lat="43.406706" lon="-6.337940">
        <ele>587.956</ele>
        <time>2019-06-19T11:53:02Z</time>
      </trkpt>
      <trkpt lat="43.406776" lon="-6.338040">
        <ele>587.511</ele>
        <time>2019-06-19T11:53:03Z</time>
      </trkpt>
      <trkpt lat="43.406836" lon="-6.338162">
        <ele>586.808</ele>
        <time>2019-06-19T11:53:04Z</time>
      </trkpt>
      <trkpt lat="43.406842" lon="-6.338318">
        <ele>584.058</ele>
        <time>2019-06-19T11:53:05Z</time>
      </trkpt>
      <trkpt lat="43.406864" lon="-6.338502">
        <ele>582.452</ele>
        <time>2019-06-19T11:53:06Z</time>
      </trkpt>
      <trkpt lat="43.406867" lon="-6.338688">
        <ele>580.923</ele>
        <time>2019-06-19T11:53:07Z</time>
      </trkpt>
      <trkpt lat="43.406871" lon="-6.338878">
        <ele>580.116</ele>
        <time>2019-06-19T11:53:08Z</time>
      </trkpt>
      <trkpt lat="43.406886" lon="-6.339076">
        <ele>580.016</ele>
        <time>2019-06-19T11:53:09Z</time>
      </trkpt>
      <trkpt lat="43.406908" lon="-6.339278">
        <ele>579.062</ele>
        <time>2019-06-19T11:53:10Z</time>
      </trkpt>
      <trkpt lat="43.406927" lon="-6.339464">
        <ele>577.020</ele>
        <time>2019-06-19T11:53:11Z</time>
      </trkpt>
      <trkpt lat="43.406946" lon="-6.339650">
        <ele>574.360</ele>
        <time>2019-06-19T11:53:12Z</time>
      </trkpt>
      <trkpt lat="43.406964" lon="-6.339803">
        <ele>572.545</ele>
        <time>2019-06-19T11:53:13Z</time>
      </trkpt>
      <trkpt lat="43.407014" lon="-6.339981">
        <ele>571.747</ele>
        <time>2019-06-19T11:53:14Z</time>
      </trkpt>
      <trkpt lat="43.407081" lon="-6.340142">
        <ele>571.911</ele>
        <time>2019-06-19T11:53:15Z</time>
      </trkpt>
      <trkpt lat="43.407194" lon="-6.340214">
        <ele>574.508</ele>
        <time>2019-06-19T11:53:16Z</time>
      </trkpt>
      <trkpt lat="43.407285" lon="-6.340291">
        <ele>573.657</ele>
        <time>2019-06-19T11:53:17Z</time>
      </trkpt>
      <trkpt lat="43.407361" lon="-6.340349">
        <ele>571.021</ele>
        <time>2019-06-19T11:53:18Z</time>
      </trkpt>
      <trkpt lat="43.407459" lon="-6.340391">
        <ele>568.362</ele>
        <time>2019-06-19T11:53:19Z</time>
      </trkpt>
      <trkpt lat="43.407537" lon="-6.340380">
        <ele>567.075</ele>
        <time>2019-06-19T11:53:20Z</time>
      </trkpt>
      <trkpt lat="43.407647" lon="-6.340310">
        <ele>566.275</ele>
        <time>2019-06-19T11:53:21Z</time>
      </trkpt>
      <trkpt lat="43.407755" lon="-6.340230">
        <ele>565.731</ele>
        <time>2019-06-19T11:53:22Z</time>
      </trkpt>
      <trkpt lat="43.407880" lon="-6.340077">
        <ele>567.739</ele>
        <time>2019-06-19T11:53:23Z</time>
      </trkpt>
      <trkpt lat="43.408029" lon="-6.339985">
        <ele>567.729</ele>
        <time>2019-06-19T11:53:24Z</time>
      </trkpt>
      <trkpt lat="43.408256" lon="-6.339902">
        <ele>569.234</ele>
        <time>2019-06-19T11:53:25Z</time>
      </trkpt>
      <trkpt lat="43.408429" lon="-6.339884">
        <ele>568.155</ele>
        <time>2019-06-19T11:53:26Z</time>
      </trkpt>
      <trkpt lat="43.408585" lon="-6.339875">
        <ele>566.110</ele>
        <time>2019-06-19T11:53:27Z</time>
      </trkpt>
      <trkpt lat="43.408748" lon="-6.339874">
        <ele>563.308</ele>
        <time>2019-06-19T11:53:28Z</time>
      </trkpt>
      <trkpt lat="43.408917" lon="-6.339887">
        <ele>560.676</ele>
        <time>2019-06-19T11:53:29Z</time>
      </trkpt>
      <trkpt lat="43.409091" lon="-6.339898">
        <ele>560.320</ele>
        <time>2019-06-19T11:53:30Z</time>
      </trkpt>
      <trkpt lat="43.409251" lon="-6.339899">
        <ele>560.481</ele>
        <time>2019-06-19T11:53:31Z</time>
      </trkpt>
      <trkpt lat="43.409402" lon="-6.339913">
        <ele>560.474</ele>
        <time>2019-06-19T11:53:32Z</time>
      </trkpt>
      <trkpt lat="43.409557" lon="-6.339926">
        <ele>559.874</ele>
        <time>2019-06-19T11:53:33Z</time>
      </trkpt>
      <trkpt lat="43.409702" lon="-6.339932">
        <ele>559.390</ele>
        <time>2019-06-19T11:53:34Z</time>
      </trkpt>
      <trkpt lat="43.409846" lon="-6.339948">
        <ele>558.268</ele>
        <time>2019-06-19T11:53:35Z</time>
      </trkpt>
      <trkpt lat="43.410020" lon="-6.339942">
        <ele>558.268</ele>
        <time>2019-06-19T11:53:36Z</time>
      </trkpt>
      <trkpt lat="43.410137" lon="-6.339943">
        <ele>559.756</ele>
        <time>2019-06-19T11:53:37Z</time>
      </trkpt>
      <trkpt lat="43.410264" lon="-6.339958">
        <ele>560.859</ele>
        <time>2019-06-19T11:53:38Z</time>
      </trkpt>
      <trkpt lat="43.410379" lon="-6.339970">
        <ele>563.514</ele>
        <time>2019-06-19T11:53:39Z</time>
      </trkpt>
      <trkpt lat="43.410492" lon="-6.339984">
        <ele>566.508</ele>
        <time>2019-06-19T11:53:40Z</time>
      </trkpt>
      <trkpt lat="43.410589" lon="-6.340036">
        <ele>567.498</ele>
        <time>2019-06-19T11:53:41Z</time>
      </trkpt>
      <trkpt lat="43.410686" lon="-6.340118">
        <ele>567.142</ele>
        <time>2019-06-19T11:53:42Z</time>
      </trkpt>
      <trkpt lat="43.410735" lon="-6.340222">
        <ele>565.713</ele>
        <time>2019-06-19T11:53:43Z</time>
      </trkpt>
      <trkpt lat="43.410802" lon="-6.340352">
        <ele>564.086</ele>
        <time>2019-06-19T11:53:44Z</time>
      </trkpt>
      <trkpt lat="43.410869" lon="-6.340478">
        <ele>562.256</ele>
        <time>2019-06-19T11:53:45Z</time>
      </trkpt>
      <trkpt lat="43.410954" lon="-6.340628">
        <ele>560.912</ele>
        <time>2019-06-19T11:53:46Z</time>
      </trkpt>
      <trkpt lat="43.410969" lon="-6.340783">
        <ele>556.940</ele>
        <time>2019-06-19T11:53:47Z</time>
      </trkpt>
      <trkpt lat="43.411041" lon="-6.340925">
        <ele>557.010</ele>
        <time>2019-06-19T11:53:48Z</time>
      </trkpt>
      <trkpt lat="43.411056" lon="-6.341117">
        <ele>552.356</ele>
        <time>2019-06-19T11:53:49Z</time>
      </trkpt>
      <trkpt lat="43.411111" lon="-6.341309">
        <ele>551.059</ele>
        <time>2019-06-19T11:53:50Z</time>
      </trkpt>
      <trkpt lat="43.411136" lon="-6.341490">
        <ele>547.514</ele>
        <time>2019-06-19T11:53:51Z</time>
      </trkpt>
      <trkpt lat="43.411152" lon="-6.341656">
        <ele>543.908</ele>
        <time>2019-06-19T11:53:52Z</time>
      </trkpt>
      <trkpt lat="43.411206" lon="-6.341806">
        <ele>542.758</ele>
        <time>2019-06-19T11:53:53Z</time>
      </trkpt>
      <trkpt lat="43.411306" lon="-6.341924">
        <ele>544.212</ele>
        <time>2019-06-19T11:53:54Z</time>
      </trkpt>
      <trkpt lat="43.411363" lon="-6.342033">
        <ele>544.173</ele>
        <time>2019-06-19T11:53:55Z</time>
      </trkpt>
      <trkpt lat="43.411463" lon="-6.342131">
        <ele>544.856</ele>
        <time>2019-06-19T11:53:56Z</time>
      </trkpt>
      <trkpt lat="43.411551" lon="-6.342206">
        <ele>545.436</ele>
        <time>2019-06-19T11:53:57Z</time>
      </trkpt>
      <trkpt lat="43.411630" lon="-6.342283">
        <ele>545.252</ele>
        <time>2019-06-19T11:53:58Z</time>
      </trkpt>
      <trkpt lat="43.411707" lon="-6.342273">
        <ele>546.560</ele>
        <time>2019-06-19T11:53:59Z</time>
      </trkpt>
      <trkpt lat="43.411761" lon="-6.342266">
        <ele>546.980</ele>
        <time>2019-06-19T11:54:00Z</time>
      </trkpt>
      <trkpt lat="43.411842" lon="-6.342208">
        <ele>548.914</ele>
        <time>2019-06-19T11:54:01Z</time>
      </trkpt>
      <trkpt lat="43.411923" lon="-6.342087">
        <ele>551.854</ele>
        <time>2019-06-19T11:54:02Z</time>
      </trkpt>
      <trkpt lat="43.412005" lon="-6.341962">
        <ele>553.709</ele>
        <time>2019-06-19T11:54:03Z</time>
      </trkpt>
      <trkpt lat="43.412115" lon="-6.341809">
        <ele>555.508</ele>
        <time>2019-06-19T11:54:04Z</time>
      </trkpt>
      <trkpt lat="43.412370" lon="-6.341731">
        <ele>551.844</ele>
        <time>2019-06-19T11:54:05Z</time>
      </trkpt>
      <trkpt lat="43.412474" lon="-6.341629">
        <ele>551.788</ele>
        <time>2019-06-19T11:54:06Z</time>
      </trkpt>
      <trkpt lat="43.412604" lon="-6.341538">
        <ele>551.199</ele>
        <time>2019-06-19T11:54:07Z</time>
      </trkpt>
      <trkpt lat="43.412747" lon="-6.341460">
        <ele>550.242</ele>
        <time>2019-06-19T11:54:08Z</time>
      </trkpt>
      <trkpt lat="43.412842" lon="-6.341400">
        <ele>551.132</ele>
        <time>2019-06-19T11:54:09Z</time>
      </trkpt>
      <trkpt lat="43.413096" lon="-6.341381">
        <ele>549.378</ele>
        <time>2019-06-19T11:54:10Z</time>
      </trkpt>
      <trkpt lat="43.413188" lon="-6.341334">
        <ele>548.686</ele>
        <time>2019-06-19T11:54:11Z</time>
      </trkpt>
      <trkpt lat="43.413313" lon="-6.341355">
        <ele>545.346</ele>
        <time>2019-06-19T11:54:12Z</time>
      </trkpt>
      <trkpt lat="43.413423" lon="-6.341353">
        <ele>543.483</ele>
        <time>2019-06-19T11:54:13Z</time>
      </trkpt>
      <trkpt lat="43.413555" lon="-6.341372">
        <ele>540.525</ele>
        <time>2019-06-19T11:54:14Z</time>
      </trkpt>
      <trkpt lat="43.413641" lon="-6.341464">
        <ele>536.617</ele>
        <time>2019-06-19T11:54:15Z</time>
      </trkpt>
      <trkpt lat="43.413723" lon="-6.341500">
        <ele>535.408</ele>
        <time>2019-06-19T11:54:16Z</time>
      </trkpt>
      <trkpt lat="43.413852" lon="-6.341563">
        <ele>533.491</ele>
        <time>2019-06-19T11:54:17Z</time>
      </trkpt>
      <trkpt lat="43.413976" lon="-6.341663">
        <ele>531.785</ele>
        <time>2019-06-19T11:54:18Z</time>
      </trkpt>
      <trkpt lat="43.414053" lon="-6.341778">
        <ele>530.496</ele>
        <time>2019-06-19T11:54:19Z</time>
      </trkpt>
      <trkpt lat="43.414154" lon="-6.341919">
        <ele>529.319</ele>
        <time>2019-06-19T11:54:20Z</time>
      </trkpt>
      <trkpt lat="43.414220" lon="-6.342085">
        <ele>529.169</ele>
        <time>2019-06-19T11:54:21Z</time>
      </trkpt>
      <trkpt lat="43.414283" lon="-6.342276">
        <ele>529.045</ele>
        <time>2019-06-19T11:54:22Z</time>
      </trkpt>
      <trkpt lat="43.414327" lon="-6.342478">
        <ele>528.713</ele>
        <time>2019-06-19T11:54:23Z</time>
      </trkpt>
      <trkpt lat="43.414361" lon="-6.342691">
        <ele>527.833</ele>
        <time>2019-06-19T11:54:24Z</time>
      </trkpt>
      <trkpt lat="43.414400" lon="-6.342901">
        <ele>527.855</ele>
        <time>2019-06-19T11:54:25Z</time>
      </trkpt>
      <trkpt lat="43.414399" lon="-6.343138">
        <ele>525.707</ele>
        <time>2019-06-19T11:54:26Z</time>
      </trkpt>
      <trkpt lat="43.414422" lon="-6.343328">
        <ele>524.817</ele>
        <time>2019-06-19T11:54:27Z</time>
      </trkpt>
      <trkpt lat="43.414446" lon="-6.343530">
        <ele>523.208</ele>
        <time>2019-06-19T11:54:28Z</time>
      </trkpt>
      <trkpt lat="43.414466" lon="-6.343739">
        <ele>520.668</ele>
        <time>2019-06-19T11:54:29Z</time>
      </trkpt>
      <trkpt lat="43.414497" lon="-6.343910">
        <ele>518.892</ele>
        <time>2019-06-19T11:54:30Z</time>
      </trkpt>
      <trkpt lat="43.414565" lon="-6.344068">
        <ele>518.013</ele>
        <time>2019-06-19T11:54:31Z</time>
      </trkpt>
      <trkpt lat="43.414589" lon="-6.344266">
        <ele>514.356</ele>
        <time>2019-06-19T11:54:32Z</time>
      </trkpt>
      <trkpt lat="43.414677" lon="-6.344398">
        <ele>515.136</ele>
        <time>2019-06-19T11:54:33Z</time>
      </trkpt>
      <trkpt lat="43.414765" lon="-6.344573">
        <ele>513.442</ele>
        <time>2019-06-19T11:54:34Z</time>
      </trkpt>
      <trkpt lat="43.414866" lon="-6.344725">
        <ele>511.640</ele>
        <time>2019-06-19T11:54:35Z</time>
      </trkpt>
      <trkpt lat="43.414939" lon="-6.344865">
        <ele>509.990</ele>
        <time>2019-06-19T11:54:36Z</time>
      </trkpt>
      <trkpt lat="43.415031" lon="-6.344892">
        <ele>512.052</ele>
        <time>2019-06-19T11:54:37Z</time>
      </trkpt>
      <trkpt lat="43.415139" lon="-6.344924">
        <ele>514.353</ele>
        <time>2019-06-19T11:54:38Z</time>
      </trkpt>
      <trkpt lat="43.415249" lon="-6.344933">
        <ele>517.308</ele>
        <time>2019-06-19T11:54:39Z</time>
      </trkpt>
      <trkpt lat="43.415345" lon="-6.344915">
        <ele>518.708</ele>
        <time>2019-06-19T11:54:40Z</time>
      </trkpt>
      <trkpt lat="43.415441" lon="-6.344894">
        <ele>519.148</ele>
        <time>2019-06-19T11:54:41Z</time>
      </trkpt>
      <trkpt lat="43.415566" lon="-6.344836">
        <ele>519.342</ele>
        <time>2019-06-19T11:54:42Z</time>
      </trkpt>
      <trkpt lat="43.415660" lon="-6.344762">
        <ele>514.953</ele>
        <time>2019-06-19T11:54:43Z</time>
      </trkpt>
      <trkpt lat="43.415711" lon="-6.344473">
        <ele>517.546</ele>
        <time>2019-06-19T11:54:44Z</time>
      </trkpt>
      <trkpt lat="43.415796" lon="-6.344307">
        <ele>514.166</ele>
        <time>2019-06-19T11:54:45Z</time>
      </trkpt>
      <trkpt lat="43.415809" lon="-6.344137">
        <ele>514.442</ele>
        <time>2019-06-19T11:54:46Z</time>
      </trkpt>
      <trkpt lat="43.415863" lon="-6.343962">
        <ele>511.970</ele>
        <time>2019-06-19T11:54:47Z</time>
      </trkpt>
      <trkpt lat="43.415967" lon="-6.343812">
        <ele>509.950</ele>
        <time>2019-06-19T11:54:48Z</time>
      </trkpt>
      <trkpt lat="43.416044" lon="-6.343635">
        <ele>510.197</ele>
        <time>2019-06-19T11:54:49Z</time>
      </trkpt>
      <trkpt lat="43.416111" lon="-6.343465">
        <ele>510.623</ele>
        <time>2019-06-19T11:54:50Z</time>
      </trkpt>
      <trkpt lat="43.416159" lon="-6.343282">
        <ele>510.725</ele>
        <time>2019-06-19T11:54:51Z</time>
      </trkpt>
      <trkpt lat="43.416163" lon="-6.343074">
        <ele>511.708</ele>
        <time>2019-06-19T11:54:52Z</time>
      </trkpt>
      <trkpt lat="43.416174" lon="-6.342854">
        <ele>512.772</ele>
        <time>2019-06-19T11:54:53Z</time>
      </trkpt>
      <trkpt lat="43.416200" lon="-6.342623">
        <ele>511.576</ele>
        <time>2019-06-19T11:54:54Z</time>
      </trkpt>
      <trkpt lat="43.416188" lon="-6.342397">
        <ele>514.087</ele>
        <time>2019-06-19T11:54:55Z</time>
      </trkpt>
      <trkpt lat="43.416184" lon="-6.342168">
        <ele>516.310</ele>
        <time>2019-06-19T11:54:56Z</time>
      </trkpt>
      <trkpt lat="43.416185" lon="-6.341952">
        <ele>516.780</ele>
        <time>2019-06-19T11:54:57Z</time>
      </trkpt>
      <trkpt lat="43.416182" lon="-6.341737">
        <ele>518.216</ele>
        <time>2019-06-19T11:54:58Z</time>
      </trkpt>
      <trkpt lat="43.416185" lon="-6.341542">
        <ele>519.364</ele>
        <time>2019-06-19T11:54:59Z</time>
      </trkpt>
      <trkpt lat="43.416205" lon="-6.341366">
        <ele>519.084</ele>
        <time>2019-06-19T11:55:00Z</time>
      </trkpt>
      <trkpt lat="43.416151" lon="-6.341199">
        <ele>523.082</ele>
        <time>2019-06-19T11:55:01Z</time>
      </trkpt>
      <trkpt lat="43.416118" lon="-6.341041">
        <ele>525.543</ele>
        <time>2019-06-19T11:55:02Z</time>
      </trkpt>
      <trkpt lat="43.416158" lon="-6.340904">
        <ele>522.817</ele>
        <time>2019-06-19T11:55:03Z</time>
      </trkpt>
      <trkpt lat="43.416128" lon="-6.340837">
        <ele>524.808</ele>
        <time>2019-06-19T11:55:04Z</time>
      </trkpt>
      <trkpt lat="43.416208" lon="-6.340753">
        <ele>519.721</ele>
        <time>2019-06-19T11:55:05Z</time>
      </trkpt>
      <trkpt lat="43.416337" lon="-6.340688">
        <ele>511.155</ele>
        <time>2019-06-19T11:55:06Z</time>
      </trkpt>
      <trkpt lat="43.416473" lon="-6.340670">
        <ele>505.776</ele>
        <time>2019-06-19T11:55:07Z</time>
      </trkpt>
      <trkpt lat="43.416569" lon="-6.340699">
        <ele>503.289</ele>
        <time>2019-06-19T11:55:08Z</time>
      </trkpt>
      <trkpt lat="43.416663" lon="-6.340761">
        <ele>500.149</ele>
        <time>2019-06-19T11:55:09Z</time>
      </trkpt>
      <trkpt lat="43.416759" lon="-6.340847">
        <ele>501.285</ele>
        <time>2019-06-19T11:55:10Z</time>
      </trkpt>
      <trkpt lat="43.416879" lon="-6.340954">
        <ele>502.253</ele>
        <time>2019-06-19T11:55:11Z</time>
      </trkpt>
      <trkpt lat="43.416946" lon="-6.341098">
        <ele>500.493</ele>
        <time>2019-06-19T11:55:12Z</time>
      </trkpt>
      <trkpt lat="43.417020" lon="-6.341255">
        <ele>500.163</ele>
        <time>2019-06-19T11:55:13Z</time>
      </trkpt>
      <trkpt lat="43.417110" lon="-6.341468">
        <ele>498.244</ele>
        <time>2019-06-19T11:55:14Z</time>
      </trkpt>
      <trkpt lat="43.417198" lon="-6.341662">
        <ele>496.418</ele>
        <time>2019-06-19T11:55:15Z</time>
      </trkpt>
      <trkpt lat="43.417293" lon="-6.341855">
        <ele>497.608</ele>
        <time>2019-06-19T11:55:16Z</time>
      </trkpt>
      <trkpt lat="43.417379" lon="-6.342036">
        <ele>497.829</ele>
        <time>2019-06-19T11:55:17Z</time>
      </trkpt>
      <trkpt lat="43.417480" lon="-6.342216">
        <ele>497.533</ele>
        <time>2019-06-19T11:55:18Z</time>
      </trkpt>
      <trkpt lat="43.417555" lon="-6.342396">
        <ele>495.914</ele>
        <time>2019-06-19T11:55:19Z</time>
      </trkpt>
      <trkpt lat="43.417620" lon="-6.342574">
        <ele>494.747</ele>
        <time>2019-06-19T11:55:20Z</time>
      </trkpt>
      <trkpt lat="43.417670" lon="-6.342773">
        <ele>493.027</ele>
        <time>2019-06-19T11:55:21Z</time>
      </trkpt>
      <trkpt lat="43.417713" lon="-6.342959">
        <ele>490.683</ele>
        <time>2019-06-19T11:55:22Z</time>
      </trkpt>
      <trkpt lat="43.417756" lon="-6.343144">
        <ele>487.611</ele>
        <time>2019-06-19T11:55:23Z</time>
      </trkpt>
      <trkpt lat="43.417800" lon="-6.343339">
        <ele>482.921</ele>
        <time>2019-06-19T11:55:24Z</time>
      </trkpt>
      <trkpt lat="43.417847" lon="-6.343528">
        <ele>481.027</ele>
        <time>2019-06-19T11:55:25Z</time>
      </trkpt>
      <trkpt lat="43.417907" lon="-6.343701">
        <ele>481.268</ele>
        <time>2019-06-19T11:55:26Z</time>
      </trkpt>
      <trkpt lat="43.417996" lon="-6.343866">
        <ele>484.214</ele>
        <time>2019-06-19T11:55:27Z</time>
      </trkpt>
      <trkpt lat="43.418114" lon="-6.344028">
        <ele>488.308</ele>
        <time>2019-06-19T11:55:28Z</time>
      </trkpt>
      <trkpt lat="43.418214" lon="-6.344181">
        <ele>491.225</ele>
        <time>2019-06-19T11:55:29Z</time>
      </trkpt>
      <trkpt lat="43.418297" lon="-6.344347">
        <ele>494.039</ele>
        <time>2019-06-19T11:55:30Z</time>
      </trkpt>
      <trkpt lat="43.418361" lon="-6.344515">
        <ele>496.310</ele>
        <time>2019-06-19T11:55:31Z</time>
      </trkpt>
      <trkpt lat="43.418405" lon="-6.344700">
        <ele>498.373</ele>
        <time>2019-06-19T11:55:32Z</time>
      </trkpt>
      <trkpt lat="43.418437" lon="-6.344926">
        <ele>499.933</ele>
        <time>2019-06-19T11:55:33Z</time>
      </trkpt>
      <trkpt lat="43.418460" lon="-6.345132">
        <ele>499.359</ele>
        <time>2019-06-19T11:55:34Z</time>
      </trkpt>
      <trkpt lat="43.418475" lon="-6.345341">
        <ele>495.747</ele>
        <time>2019-06-19T11:55:35Z</time>
      </trkpt>
      <trkpt lat="43.418490" lon="-6.345583">
        <ele>487.857</ele>
        <time>2019-06-19T11:55:36Z</time>
      </trkpt>
      <trkpt lat="43.418508" lon="-6.345813">
        <ele>480.851</ele>
        <time>2019-06-19T11:55:37Z</time>
      </trkpt>
      <trkpt lat="43.418530" lon="-6.346020">
        <ele>478.401</ele>
        <time>2019-06-19T11:55:38Z</time>
      </trkpt>
      <trkpt lat="43.418545" lon="-6.346246">
        <ele>477.211</ele>
        <time>2019-06-19T11:55:39Z</time>
      </trkpt>
      <trkpt lat="43.418547" lon="-6.346465">
        <ele>476.208</ele>
        <time>2019-06-19T11:55:40Z</time>
      </trkpt>
      <trkpt lat="43.418543" lon="-6.346690">
        <ele>474.148</ele>
        <time>2019-06-19T11:55:41Z</time>
      </trkpt>
      <trkpt lat="43.418515" lon="-6.346913">
        <ele>470.732</ele>
        <time>2019-06-19T11:55:42Z</time>
      </trkpt>
      <trkpt lat="43.418484" lon="-6.347123">
        <ele>467.933</ele>
        <time>2019-06-19T11:55:43Z</time>
      </trkpt>
      <trkpt lat="43.418467" lon="-6.347297">
        <ele>466.826</ele>
        <time>2019-06-19T11:55:44Z</time>
      </trkpt>
      <trkpt lat="43.418460" lon="-6.347495">
        <ele>466.576</ele>
        <time>2019-06-19T11:55:45Z</time>
      </trkpt>
      <trkpt lat="43.418466" lon="-6.347681">
        <ele>465.482</ele>
        <time>2019-06-19T11:55:46Z</time>
      </trkpt>
      <trkpt lat="43.418479" lon="-6.347903">
        <ele>464.210</ele>
        <time>2019-06-19T11:55:47Z</time>
      </trkpt>
      <trkpt lat="43.418512" lon="-6.348120">
        <ele>463.540</ele>
        <time>2019-06-19T11:55:48Z</time>
      </trkpt>
      <trkpt lat="43.418575" lon="-6.348343">
        <ele>464.394</ele>
        <time>2019-06-19T11:55:49Z</time>
      </trkpt>
      <trkpt lat="43.418657" lon="-6.348595">
        <ele>465.257</ele>
        <time>2019-06-19T11:55:50Z</time>
      </trkpt>
      <trkpt lat="43.418697" lon="-6.348851">
        <ele>462.722</ele>
        <time>2019-06-19T11:55:51Z</time>
      </trkpt>
      <trkpt lat="43.418733" lon="-6.349097">
        <ele>459.808</ele>
        <time>2019-06-19T11:55:52Z</time>
      </trkpt>
      <trkpt lat="43.418785" lon="-6.349292">
        <ele>460.052</ele>
        <time>2019-06-19T11:55:53Z</time>
      </trkpt>
      <trkpt lat="43.418834" lon="-6.349477">
        <ele>460.296</ele>
        <time>2019-06-19T11:55:54Z</time>
      </trkpt>
      <trkpt lat="43.418873" lon="-6.349667">
        <ele>459.087</ele>
        <time>2019-06-19T11:55:55Z</time>
      </trkpt>
      <trkpt lat="43.418936" lon="-6.349798">
        <ele>458.920</ele>
        <time>2019-06-19T11:55:56Z</time>
      </trkpt>
      <trkpt lat="43.419032" lon="-6.349934">
        <ele>458.540</ele>
        <time>2019-06-19T11:55:57Z</time>
      </trkpt>
      <trkpt lat="43.419153" lon="-6.350059">
        <ele>458.436</ele>
        <time>2019-06-19T11:55:58Z</time>
      </trkpt>
      <trkpt lat="43.419262" lon="-6.350183">
        <ele>457.344</ele>
        <time>2019-06-19T11:55:59Z</time>
      </trkpt>
      <trkpt lat="43.419398" lon="-6.350281">
        <ele>457.544</ele>
        <time>2019-06-19T11:56:00Z</time>
      </trkpt>
      <trkpt lat="43.419528" lon="-6.350362">
        <ele>454.417</ele>
        <time>2019-06-19T11:56:01Z</time>
      </trkpt>
      <trkpt lat="43.419667" lon="-6.350464">
        <ele>448.487</ele>
        <time>2019-06-19T11:56:02Z</time>
      </trkpt>
      <trkpt lat="43.419824" lon="-6.350528">
        <ele>444.415</ele>
        <time>2019-06-19T11:56:03Z</time>
      </trkpt>
      <trkpt lat="43.419977" lon="-6.350436">
        <ele>448.308</ele>
        <time>2019-06-19T11:56:04Z</time>
      </trkpt>
      <trkpt lat="43.420113" lon="-6.350439">
        <ele>449.054</ele>
        <time>2019-06-19T11:56:05Z</time>
      </trkpt>
      <trkpt lat="43.420254" lon="-6.350442">
        <ele>450.128</ele>
        <time>2019-06-19T11:56:06Z</time>
      </trkpt>
      <trkpt lat="43.420398" lon="-6.350349">
        <ele>451.989</ele>
        <time>2019-06-19T11:56:07Z</time>
      </trkpt>
      <trkpt lat="43.420569" lon="-6.350310">
        <ele>451.262</ele>
        <time>2019-06-19T11:56:08Z</time>
      </trkpt>
      <trkpt lat="43.420725" lon="-6.350293">
        <ele>449.812</ele>
        <time>2019-06-19T11:56:09Z</time>
      </trkpt>
      <trkpt lat="43.420873" lon="-6.350257">
        <ele>448.848</ele>
        <time>2019-06-19T11:56:10Z</time>
      </trkpt>
      <trkpt lat="43.421017" lon="-6.350205">
        <ele>447.856</ele>
        <time>2019-06-19T11:56:11Z</time>
      </trkpt>
      <trkpt lat="43.421165" lon="-6.350133">
        <ele>447.246</ele>
        <time>2019-06-19T11:56:12Z</time>
      </trkpt>
      <trkpt lat="43.421302" lon="-6.350041">
        <ele>446.859</ele>
        <time>2019-06-19T11:56:13Z</time>
      </trkpt>
      <trkpt lat="43.421414" lon="-6.349927">
        <ele>447.303</ele>
        <time>2019-06-19T11:56:14Z</time>
      </trkpt>
      <trkpt lat="43.421544" lon="-6.349784">
        <ele>448.123</ele>
        <time>2019-06-19T11:56:15Z</time>
      </trkpt>
      <trkpt lat="43.421644" lon="-6.349622">
        <ele>449.608</ele>
        <time>2019-06-19T11:56:16Z</time>
      </trkpt>
      <trkpt lat="43.421757" lon="-6.349453">
        <ele>448.358</ele>
        <time>2019-06-19T11:56:17Z</time>
      </trkpt>
      <trkpt lat="43.421862" lon="-6.349262">
        <ele>446.412</ele>
        <time>2019-06-19T11:56:18Z</time>
      </trkpt>
      <trkpt lat="43.421972" lon="-6.349076">
        <ele>443.743</ele>
        <time>2019-06-19T11:56:19Z</time>
      </trkpt>
      <trkpt lat="43.422026" lon="-6.348878">
        <ele>443.376</ele>
        <time>2019-06-19T11:56:20Z</time>
      </trkpt>
      <trkpt lat="43.422113" lon="-6.348685">
        <ele>439.636</ele>
        <time>2019-06-19T11:56:21Z</time>
      </trkpt>
      <trkpt lat="43.422135" lon="-6.348487">
        <ele>439.822</ele>
        <time>2019-06-19T11:56:22Z</time>
      </trkpt>
      <trkpt lat="43.422202" lon="-6.348325">
        <ele>437.260</ele>
        <time>2019-06-19T11:56:23Z</time>
      </trkpt>
      <trkpt lat="43.422139" lon="-6.348188">
        <ele>443.130</ele>
        <time>2019-06-19T11:56:24Z</time>
      </trkpt>
      <trkpt lat="43.422018" lon="-6.348029">
        <ele>452.491</ele>
        <time>2019-06-19T11:56:25Z</time>
      </trkpt>
      <trkpt lat="43.422016" lon="-6.347895">
        <ele>454.681</ele>
        <time>2019-06-19T11:56:26Z</time>
      </trkpt>
      <trkpt lat="43.422206" lon="-6.347807">
        <ele>446.319</ele>
        <time>2019-06-19T11:56:27Z</time>
      </trkpt>
      <trkpt lat="43.422224" lon="-6.347740">
        <ele>446.808</ele>
        <time>2019-06-19T11:56:28Z</time>
      </trkpt>
      <trkpt lat="43.422277" lon="-6.347678">
        <ele>446.832</ele>
        <time>2019-06-19T11:56:29Z</time>
      </trkpt>
      <trkpt lat="43.422355" lon="-6.347610">
        <ele>446.636</ele>
        <time>2019-06-19T11:56:30Z</time>
      </trkpt>
      <trkpt lat="43.422496" lon="-6.347635">
        <ele>442.797</ele>
        <time>2019-06-19T11:56:31Z</time>
      </trkpt>
      <trkpt lat="43.422603" lon="-6.347635">
        <ele>442.050</ele>
        <time>2019-06-19T11:56:32Z</time>
      </trkpt>
      <trkpt lat="43.422692" lon="-6.347631">
        <ele>441.790</ele>
        <time>2019-06-19T11:56:33Z</time>
      </trkpt>
      <trkpt lat="43.422792" lon="-6.347633">
        <ele>441.036</ele>
        <time>2019-06-19T11:56:34Z</time>
      </trkpt>
      <trkpt lat="43.422912" lon="-6.347614">
        <ele>440.194</ele>
        <time>2019-06-19T11:56:35Z</time>
      </trkpt>
      <trkpt lat="43.423073" lon="-6.347573">
        <ele>439.424</ele>
        <time>2019-06-19T11:56:36Z</time>
      </trkpt>
      <trkpt lat="43.423216" lon="-6.347439">
        <ele>440.854</ele>
        <time>2019-06-19T11:56:37Z</time>
      </trkpt>
      <trkpt lat="43.423313" lon="-6.347393">
        <ele>440.156</ele>
        <time>2019-06-19T11:56:38Z</time>
      </trkpt>
      <trkpt lat="43.423432" lon="-6.347329">
        <ele>441.911</ele>
        <time>2019-06-19T11:56:39Z</time>
      </trkpt>
      <trkpt lat="43.423546" lon="-6.347269">
        <ele>443.308</ele>
        <time>2019-06-19T11:56:40Z</time>
      </trkpt>
      <trkpt lat="43.423633" lon="-6.347206">
        <ele>444.528</ele>
        <time>2019-06-19T11:56:41Z</time>
      </trkpt>
      <trkpt lat="43.423763" lon="-6.347156">
        <ele>446.912</ele>
        <time>2019-06-19T11:56:42Z</time>
      </trkpt>
      <trkpt lat="43.423780" lon="-6.347262">
        <ele>446.293</ele>
        <time>2019-06-19T11:56:44Z</time>
      </trkpt>
      <trkpt lat="43.423793" lon="-6.347345">
        <ele>445.946</ele>
        <time>2019-06-19T11:56:45Z</time>
      </trkpt>
      <trkpt lat="43.423798" lon="-6.347453">
        <ele>445.376</ele>
        <time>2019-06-19T11:56:46Z</time>
      </trkpt>
      <trkpt lat="43.423773" lon="-6.347601">
        <ele>444.092</ele>
        <time>2019-06-19T11:56:47Z</time>
      </trkpt>
      <trkpt lat="43.423750" lon="-6.347773">
        <ele>442.590</ele>
        <time>2019-06-19T11:56:48Z</time>
      </trkpt>
      <trkpt lat="43.423699" lon="-6.347902">
        <ele>440.080</ele>
        <time>2019-06-19T11:56:49Z</time>
      </trkpt>
      <trkpt lat="43.423648" lon="-6.348009">
        <ele>437.032</ele>
        <time>2019-06-19T11:56:50Z</time>
      </trkpt>
      <trkpt lat="43.423639" lon="-6.348143">
        <ele>435.292</ele>
        <time>2019-06-19T11:56:51Z</time>
      </trkpt>
      <trkpt lat="43.423635" lon="-6.348319">
        <ele>433.211</ele>
        <time>2019-06-19T11:56:52Z</time>
      </trkpt>
      <trkpt lat="43.423639" lon="-6.348494">
        <ele>430.408</ele>
        <time>2019-06-19T11:56:53Z</time>
      </trkpt>
      <trkpt lat="43.423648" lon="-6.348694">
        <ele>427.556</ele>
        <time>2019-06-19T11:56:54Z</time>
      </trkpt>
      <trkpt lat="43.423644" lon="-6.348860">
        <ele>425.030</ele>
        <time>2019-06-19T11:56:55Z</time>
      </trkpt>
      <trkpt lat="43.423687" lon="-6.349082">
        <ele>424.041</ele>
        <time>2019-06-19T11:56:56Z</time>
      </trkpt>
      <trkpt lat="43.423724" lon="-6.349282">
        <ele>422.474</ele>
        <time>2019-06-19T11:56:57Z</time>
      </trkpt>
      <trkpt lat="43.423799" lon="-6.349466">
        <ele>422.494</ele>
        <time>2019-06-19T11:56:58Z</time>
      </trkpt>
      <trkpt lat="43.423823" lon="-6.349622">
        <ele>420.870</ele>
        <time>2019-06-19T11:56:59Z</time>
      </trkpt>
      <trkpt lat="43.423827" lon="-6.349785">
        <ele>417.598</ele>
        <time>2019-06-19T11:57:00Z</time>
      </trkpt>
      <trkpt lat="43.423833" lon="-6.349939">
        <ele>413.688</ele>
        <time>2019-06-19T11:57:01Z</time>
      </trkpt>
      <trkpt lat="43.423815" lon="-6.350106">
        <ele>407.841</ele>
        <time>2019-06-19T11:57:02Z</time>
      </trkpt>
      <trkpt lat="43.423808" lon="-6.350280">
        <ele>402.681</ele>
        <time>2019-06-19T11:57:03Z</time>
      </trkpt>
      <trkpt lat="43.423812" lon="-6.350390">
        <ele>400.809</ele>
        <time>2019-06-19T11:57:04Z</time>
      </trkpt>
      <trkpt lat="43.423843" lon="-6.350602">
        <ele>398.508</ele>
        <time>2019-06-19T11:57:05Z</time>
      </trkpt>
      <trkpt lat="43.423848" lon="-6.350756">
        <ele>397.117</ele>
        <time>2019-06-19T11:57:06Z</time>
      </trkpt>
      <trkpt lat="43.423874" lon="-6.350892">
        <ele>396.591</ele>
        <time>2019-06-19T11:57:07Z</time>
      </trkpt>
      <trkpt lat="43.423931" lon="-6.351046">
        <ele>396.132</ele>
        <time>2019-06-19T11:57:08Z</time>
      </trkpt>
      <trkpt lat="43.423984" lon="-6.351108">
        <ele>396.445</ele>
        <time>2019-06-19T11:57:09Z</time>
      </trkpt>
      <trkpt lat="43.424072" lon="-6.351114">
        <ele>398.565</ele>
        <time>2019-06-19T11:57:10Z</time>
      </trkpt>
      <trkpt lat="43.424166" lon="-6.351179">
        <ele>398.891</ele>
        <time>2019-06-19T11:57:11Z</time>
      </trkpt>
      <trkpt lat="43.424325" lon="-6.351123">
        <ele>403.589</ele>
        <time>2019-06-19T11:57:12Z</time>
      </trkpt>
      <trkpt lat="43.424458" lon="-6.351103">
        <ele>406.859</ele>
        <time>2019-06-19T11:57:13Z</time>
      </trkpt>
      <trkpt lat="43.424602" lon="-6.351105">
        <ele>411.911</ele>
        <time>2019-06-19T11:57:14Z</time>
      </trkpt>
      <trkpt lat="43.424722" lon="-6.351141">
        <ele>414.821</ele>
        <time>2019-06-19T11:57:15Z</time>
      </trkpt>
      <trkpt lat="43.424858" lon="-6.351194">
        <ele>414.003</ele>
        <time>2019-06-19T11:57:16Z</time>
      </trkpt>
      <trkpt lat="43.424974" lon="-6.351277">
        <ele>412.308</ele>
        <time>2019-06-19T11:57:17Z</time>
      </trkpt>
      <trkpt lat="43.425098" lon="-6.351386">
        <ele>410.924</ele>
        <time>2019-06-19T11:57:18Z</time>
      </trkpt>
      <trkpt lat="43.425153" lon="-6.351548">
        <ele>408.478</ele>
        <time>2019-06-19T11:57:19Z</time>
      </trkpt>
      <trkpt lat="43.425210" lon="-6.351651">
        <ele>407.669</ele>
        <time>2019-06-19T11:57:20Z</time>
      </trkpt>
      <trkpt lat="43.425223" lon="-6.351842">
        <ele>405.512</ele>
        <time>2019-06-19T11:57:21Z</time>
      </trkpt>
      <trkpt lat="43.425244" lon="-6.352019">
        <ele>404.542</ele>
        <time>2019-06-19T11:57:22Z</time>
      </trkpt>
      <trkpt lat="43.425246" lon="-6.352204">
        <ele>403.718</ele>
        <time>2019-06-19T11:57:23Z</time>
      </trkpt>
      <trkpt lat="43.425227" lon="-6.352401">
        <ele>403.986</ele>
        <time>2019-06-19T11:57:24Z</time>
      </trkpt>
      <trkpt lat="43.425199" lon="-6.352597">
        <ele>404.266</ele>
        <time>2019-06-19T11:57:25Z</time>
      </trkpt>
      <trkpt lat="43.425175" lon="-6.352803">
        <ele>405.579</ele>
        <time>2019-06-19T11:57:26Z</time>
      </trkpt>
      <trkpt lat="43.425150" lon="-6.353005">
        <ele>407.005</ele>
        <time>2019-06-19T11:57:27Z</time>
      </trkpt>
      <trkpt lat="43.425127" lon="-6.353202">
        <ele>405.725</ele>
        <time>2019-06-19T11:57:28Z</time>
      </trkpt>
      <trkpt lat="43.425105" lon="-6.353415">
        <ele>403.108</ele>
        <time>2019-06-19T11:57:29Z</time>
      </trkpt>
      <trkpt lat="43.425072" lon="-6.353590">
        <ele>399.880</ele>
        <time>2019-06-19T11:57:30Z</time>
      </trkpt>
      <trkpt lat="43.425071" lon="-6.353745">
        <ele>398.074</ele>
        <time>2019-06-19T11:57:31Z</time>
      </trkpt>
      <trkpt lat="43.425057" lon="-6.353903">
        <ele>395.325</ele>
        <time>2019-06-19T11:57:32Z</time>
      </trkpt>
      <trkpt lat="43.425031" lon="-6.354054">
        <ele>390.468</ele>
        <time>2019-06-19T11:57:33Z</time>
      </trkpt>
      <trkpt lat="43.425088" lon="-6.354231">
        <ele>388.618</ele>
        <time>2019-06-19T11:57:34Z</time>
      </trkpt>
      <trkpt lat="43.425221" lon="-6.354350">
        <ele>390.984</ele>
        <time>2019-06-19T11:57:35Z</time>
      </trkpt>
      <trkpt lat="43.425362" lon="-6.354470">
        <ele>392.832</ele>
        <time>2019-06-19T11:57:36Z</time>
      </trkpt>
      <trkpt lat="43.425517" lon="-6.354581">
        <ele>395.522</ele>
        <time>2019-06-19T11:57:37Z</time>
      </trkpt>
      <trkpt lat="43.425656" lon="-6.354708">
        <ele>395.788</ele>
        <time>2019-06-19T11:57:38Z</time>
      </trkpt>
      <trkpt lat="43.425775" lon="-6.354846">
        <ele>394.724</ele>
        <time>2019-06-19T11:57:39Z</time>
      </trkpt>
      <trkpt lat="43.425900" lon="-6.354988">
        <ele>392.426</ele>
        <time>2019-06-19T11:57:40Z</time>
      </trkpt>
      <trkpt lat="43.426008" lon="-6.355132">
        <ele>389.708</ele>
        <time>2019-06-19T11:57:41Z</time>
      </trkpt>
      <trkpt lat="43.426124" lon="-6.355285">
        <ele>387.021</ele>
        <time>2019-06-19T11:57:42Z</time>
      </trkpt>
      <trkpt lat="43.426206" lon="-6.355422">
        <ele>385.335</ele>
        <time>2019-06-19T11:57:43Z</time>
      </trkpt>
      <trkpt lat="43.426279" lon="-6.355586">
        <ele>383.736</ele>
        <time>2019-06-19T11:57:44Z</time>
      </trkpt>
      <trkpt lat="43.426360" lon="-6.355751">
        <ele>383.399</ele>
        <time>2019-06-19T11:57:45Z</time>
      </trkpt>
      <trkpt lat="43.426427" lon="-6.355910">
        <ele>382.689</ele>
        <time>2019-06-19T11:57:46Z</time>
      </trkpt>
      <trkpt lat="43.426498" lon="-6.356051">
        <ele>381.635</ele>
        <time>2019-06-19T11:57:47Z</time>
      </trkpt>
      <trkpt lat="43.426568" lon="-6.356182">
        <ele>380.473</ele>
        <time>2019-06-19T11:57:48Z</time>
      </trkpt>
      <trkpt lat="43.426646" lon="-6.356285">
        <ele>379.833</ele>
        <time>2019-06-19T11:57:49Z</time>
      </trkpt>
      <trkpt lat="43.426734" lon="-6.356367">
        <ele>379.036</ele>
        <time>2019-06-19T11:57:50Z</time>
      </trkpt>
      <trkpt lat="43.426796" lon="-6.356424">
        <ele>378.217</ele>
        <time>2019-06-19T11:57:51Z</time>
      </trkpt>
      <trkpt lat="43.426875" lon="-6.356487">
        <ele>377.318</ele>
        <time>2019-06-19T11:57:52Z</time>
      </trkpt>
      <trkpt lat="43.426955" lon="-6.356535">
        <ele>376.208</ele>
        <time>2019-06-19T11:57:53Z</time>
      </trkpt>
      <trkpt lat="43.427058" lon="-6.356352">
        <ele>379.956</ele>
        <time>2019-06-19T11:57:54Z</time>
      </trkpt>
      <trkpt lat="43.427151" lon="-6.356294">
        <ele>380.850</ele>
        <time>2019-06-19T11:57:55Z</time>
      </trkpt>
      <trkpt lat="43.427259" lon="-6.356206">
        <ele>382.171</ele>
        <time>2019-06-19T11:57:56Z</time>
      </trkpt>
      <trkpt lat="43.427357" lon="-6.356110">
        <ele>383.174</ele>
        <time>2019-06-19T11:57:57Z</time>
      </trkpt>
      <trkpt lat="43.427457" lon="-6.356023">
        <ele>382.694</ele>
        <time>2019-06-19T11:57:58Z</time>
      </trkpt>
      <trkpt lat="43.427564" lon="-6.355868">
        <ele>382.690</ele>
        <time>2019-06-19T11:57:59Z</time>
      </trkpt>
      <trkpt lat="43.427649" lon="-6.355732">
        <ele>382.698</ele>
        <time>2019-06-19T11:58:00Z</time>
      </trkpt>
      <trkpt lat="43.427743" lon="-6.355595">
        <ele>382.958</ele>
        <time>2019-06-19T11:58:01Z</time>
      </trkpt>
      <trkpt lat="43.427811" lon="-6.355394">
        <ele>385.155</ele>
        <time>2019-06-19T11:58:02Z</time>
      </trkpt>
      <trkpt lat="43.427891" lon="-6.355203">
        <ele>385.507</ele>
        <time>2019-06-19T11:58:03Z</time>
      </trkpt>
      <trkpt lat="43.427965" lon="-6.354999">
        <ele>384.917</ele>
        <time>2019-06-19T11:58:04Z</time>
      </trkpt>
      <trkpt lat="43.428036" lon="-6.354804">
        <ele>383.308</ele>
        <time>2019-06-19T11:58:05Z</time>
      </trkpt>
      <trkpt lat="43.428025" lon="-6.354596">
        <ele>385.328</ele>
        <time>2019-06-19T11:58:06Z</time>
      </trkpt>
      <trkpt lat="43.428075" lon="-6.354405">
        <ele>384.152</ele>
        <time>2019-06-19T11:58:07Z</time>
      </trkpt>
      <trkpt lat="43.428177" lon="-6.354219">
        <ele>379.063</ele>
        <time>2019-06-19T11:58:08Z</time>
      </trkpt>
      <trkpt lat="43.428243" lon="-6.354020">
        <ele>375.986</ele>
        <time>2019-06-19T11:58:09Z</time>
      </trkpt>
      <trkpt lat="43.428368" lon="-6.353827">
        <ele>369.656</ele>
        <time>2019-06-19T11:58:10Z</time>
      </trkpt>
      <trkpt lat="43.428452" lon="-6.353669">
        <ele>368.692</ele>
        <time>2019-06-19T11:58:11Z</time>
      </trkpt>
      <trkpt lat="43.428452" lon="-6.353491">
        <ele>371.840</ele>
        <time>2019-06-19T11:58:12Z</time>
      </trkpt>
      <trkpt lat="43.428476" lon="-6.353326">
        <ele>374.080</ele>
        <time>2019-06-19T11:58:13Z</time>
      </trkpt>
      <trkpt lat="43.428516" lon="-6.353182">
        <ele>375.461</ele>
        <time>2019-06-19T11:58:14Z</time>
      </trkpt>
      <trkpt lat="43.428600" lon="-6.353085">
        <ele>373.821</ele>
        <time>2019-06-19T11:58:15Z</time>
      </trkpt>
      <trkpt lat="43.428636" lon="-6.352968">
        <ele>375.313</ele>
        <time>2019-06-19T11:58:16Z</time>
      </trkpt>
      <trkpt lat="43.428607" lon="-6.352857">
        <ele>376.408</ele>
        <time>2019-06-19T11:58:17Z</time>
      </trkpt>
      <trkpt lat="43.428664" lon="-6.352779">
        <ele>378.359</ele>
        <time>2019-06-19T11:58:18Z</time>
      </trkpt>
      <trkpt lat="43.428760" lon="-6.352752">
        <ele>381.553</ele>
        <time>2019-06-19T11:58:19Z</time>
      </trkpt>
      <trkpt lat="43.428839" lon="-6.352878">
        <ele>380.534</ele>
        <time>2019-06-19T11:58:20Z</time>
      </trkpt>
      <trkpt lat="43.428943" lon="-6.352960">
        <ele>381.267</ele>
        <time>2019-06-19T11:58:22Z</time>
      </trkpt>
      <trkpt lat="43.428985" lon="-6.353063">
        <ele>380.797</ele>
        <time>2019-06-19T11:58:24Z</time>
      </trkpt>
      <trkpt lat="43.429001" lon="-6.353200">
        <ele>379.773</ele>
        <time>2019-06-19T11:58:25Z</time>
      </trkpt>
      <trkpt lat="43.428999" lon="-6.353335">
        <ele>377.941</ele>
        <time>2019-06-19T11:58:26Z</time>
      </trkpt>
      <trkpt lat="43.428996" lon="-6.353684">
        <ele>372.041</ele>
        <time>2019-06-19T11:58:27Z</time>
      </trkpt>
      <trkpt lat="43.429068" lon="-6.353955">
        <ele>370.872</ele>
        <time>2019-06-19T11:58:28Z</time>
      </trkpt>
      <trkpt lat="43.429151" lon="-6.354232">
        <ele>372.113</ele>
        <time>2019-06-19T11:58:29Z</time>
      </trkpt>
      <trkpt lat="43.429279" lon="-6.354461">
        <ele>375.414</ele>
        <time>2019-06-19T11:58:30Z</time>
      </trkpt>
      <trkpt lat="43.429271" lon="-6.354741">
        <ele>367.208</ele>
        <time>2019-06-19T11:58:32Z</time>
      </trkpt>
      <trkpt lat="43.429316" lon="-6.354950">
        <ele>364.740</ele>
        <time>2019-06-19T11:58:33Z</time>
      </trkpt>
      <trkpt lat="43.429342" lon="-6.355230">
        <ele>361.834</ele>
        <time>2019-06-19T11:58:34Z</time>
      </trkpt>
      <trkpt lat="43.429338" lon="-6.355496">
        <ele>357.855</ele>
        <time>2019-06-19T11:58:35Z</time>
      </trkpt>
      <trkpt lat="43.429376" lon="-6.355690">
        <ele>356.268</ele>
        <time>2019-06-19T11:58:36Z</time>
      </trkpt>
      <trkpt lat="43.429446" lon="-6.355915">
        <ele>355.438</ele>
        <time>2019-06-19T11:58:37Z</time>
      </trkpt>
      <trkpt lat="43.429494" lon="-6.356136">
        <ele>351.424</ele>
        <time>2019-06-19T11:58:38Z</time>
      </trkpt>
      <trkpt lat="43.429526" lon="-6.356366">
        <ele>346.142</ele>
        <time>2019-06-19T11:58:39Z</time>
      </trkpt>
      <trkpt lat="43.429550" lon="-6.356534">
        <ele>343.712</ele>
        <time>2019-06-19T11:58:40Z</time>
      </trkpt>
      <trkpt lat="43.429584" lon="-6.356722">
        <ele>341.494</ele>
        <time>2019-06-19T11:58:41Z</time>
      </trkpt>
      <trkpt lat="43.429611" lon="-6.356891">
        <ele>339.457</ele>
        <time>2019-06-19T11:58:42Z</time>
      </trkpt>
      <trkpt lat="43.429622" lon="-6.357077">
        <ele>334.522</ele>
        <time>2019-06-19T11:58:43Z</time>
      </trkpt>
      <trkpt lat="43.429654" lon="-6.357188">
        <ele>332.208</ele>
        <time>2019-06-19T11:58:44Z</time>
      </trkpt>
      <trkpt lat="43.429684" lon="-6.357304">
        <ele>329.592</ele>
        <time>2019-06-19T11:58:45Z</time>
      </trkpt>
      <trkpt lat="43.429724" lon="-6.357439">
        <ele>326.356</ele>
        <time>2019-06-19T11:58:46Z</time>
      </trkpt>
      <trkpt lat="43.429753" lon="-6.357509">
        <ele>324.987</ele>
        <time>2019-06-19T11:58:47Z</time>
      </trkpt>
      <trkpt lat="43.429810" lon="-6.357594">
        <ele>325.240</ele>
        <time>2019-06-19T11:58:48Z</time>
      </trkpt>
      <trkpt lat="43.429887" lon="-6.357634">
        <ele>326.680</ele>
        <time>2019-06-19T11:58:49Z</time>
      </trkpt>
      <trkpt lat="43.429978" lon="-6.357649">
        <ele>328.746</ele>
        <time>2019-06-19T11:58:50Z</time>
      </trkpt>
      <trkpt lat="43.430027" lon="-6.357702">
        <ele>328.124</ele>
        <time>2019-06-19T11:58:51Z</time>
      </trkpt>
      <trkpt lat="43.430073" lon="-6.357687">
        <ele>328.854</ele>
        <time>2019-06-19T11:58:52Z</time>
      </trkpt>
      <trkpt lat="43.430131" lon="-6.357532">
        <ele>333.128</ele>
        <time>2019-06-19T11:58:53Z</time>
      </trkpt>
      <trkpt lat="43.430228" lon="-6.357360">
        <ele>340.289</ele>
        <time>2019-06-19T11:58:54Z</time>
      </trkpt>
      <trkpt lat="43.430304" lon="-6.357258">
        <ele>345.117</ele>
        <time>2019-06-19T11:58:55Z</time>
      </trkpt>
      <trkpt lat="43.430366" lon="-6.357184">
        <ele>349.908</ele>
        <time>2019-06-19T11:58:56Z</time>
      </trkpt>
      <trkpt lat="43.430447" lon="-6.357120">
        <ele>355.095</ele>
        <time>2019-06-19T11:58:57Z</time>
      </trkpt>
      <trkpt lat="43.430556" lon="-6.357074">
        <ele>359.599</ele>
        <time>2019-06-19T11:58:58Z</time>
      </trkpt>
      <trkpt lat="43.430695" lon="-6.357067">
        <ele>362.260</ele>
        <time>2019-06-19T11:59:00Z</time>
      </trkpt>
      <trkpt lat="43.430787" lon="-6.357149">
        <ele>360.653</ele>
        <time>2019-06-19T11:59:01Z</time>
      </trkpt>
      <trkpt lat="43.430860" lon="-6.357223">
        <ele>360.083</ele>
        <time>2019-06-19T11:59:02Z</time>
      </trkpt>
      <trkpt lat="43.430914" lon="-6.357327">
        <ele>359.029</ele>
        <time>2019-06-19T11:59:03Z</time>
      </trkpt>
      <trkpt lat="43.430902" lon="-6.357569">
        <ele>352.347</ele>
        <time>2019-06-19T11:59:04Z</time>
      </trkpt>
      <trkpt lat="43.430811" lon="-6.357727">
        <ele>346.737</ele>
        <time>2019-06-19T11:59:05Z</time>
      </trkpt>
      <trkpt lat="43.430798" lon="-6.357925">
        <ele>344.552</ele>
        <time>2019-06-19T11:59:06Z</time>
      </trkpt>
      <trkpt lat="43.430775" lon="-6.358108">
        <ele>341.553</ele>
        <time>2019-06-19T11:59:07Z</time>
      </trkpt>
      <trkpt lat="43.430825" lon="-6.358354">
        <ele>337.208</ele>
        <time>2019-06-19T11:59:08Z</time>
      </trkpt>
      <trkpt lat="43.430850" lon="-6.358527">
        <ele>333.008</ele>
        <time>2019-06-19T11:59:09Z</time>
      </trkpt>
      <trkpt lat="43.430877" lon="-6.358679">
        <ele>329.668</ele>
        <time>2019-06-19T11:59:10Z</time>
      </trkpt>
      <trkpt lat="43.430890" lon="-6.358791">
        <ele>326.962</ele>
        <time>2019-06-19T11:59:11Z</time>
      </trkpt>
      <trkpt lat="43.430964" lon="-6.358884">
        <ele>326.093</ele>
        <time>2019-06-19T11:59:12Z</time>
      </trkpt>
      <trkpt lat="43.431076" lon="-6.358951">
        <ele>326.136</ele>
        <time>2019-06-19T11:59:13Z</time>
      </trkpt>
      <trkpt lat="43.431189" lon="-6.359031">
        <ele>325.126</ele>
        <time>2019-06-19T11:59:14Z</time>
      </trkpt>
      <trkpt lat="43.431283" lon="-6.359101">
        <ele>323.372</ele>
        <time>2019-06-19T11:59:15Z</time>
      </trkpt>
      <trkpt lat="43.431409" lon="-6.359054">
        <ele>327.750</ele>
        <time>2019-06-19T11:59:16Z</time>
      </trkpt>
      <trkpt lat="43.431454" lon="-6.359017">
        <ele>331.230</ele>
        <time>2019-06-19T11:59:17Z</time>
      </trkpt>
      <trkpt lat="43.431582" lon="-6.358946">
        <ele>338.841</ele>
        <time>2019-06-19T11:59:18Z</time>
      </trkpt>
      <trkpt lat="43.431689" lon="-6.358919">
        <ele>343.381</ele>
        <time>2019-06-19T11:59:19Z</time>
      </trkpt>
      <trkpt lat="43.431798" lon="-6.358928">
        <ele>346.709</ele>
        <time>2019-06-19T11:59:20Z</time>
      </trkpt>
      <trkpt lat="43.431883" lon="-6.358971">
        <ele>348.108</ele>
        <time>2019-06-19T11:59:21Z</time>
      </trkpt>
      <trkpt lat="43.431959" lon="-6.359050">
        <ele>348.247</ele>
        <time>2019-06-19T11:59:22Z</time>
      </trkpt>
      <trkpt lat="43.432029" lon="-6.359161">
        <ele>346.611</ele>
        <time>2019-06-19T11:59:23Z</time>
      </trkpt>
      <trkpt lat="43.432096" lon="-6.359279">
        <ele>343.122</ele>
        <time>2019-06-19T11:59:24Z</time>
      </trkpt>
      <trkpt lat="43.432122" lon="-6.359391">
        <ele>338.845</ele>
        <time>2019-06-19T11:59:25Z</time>
      </trkpt>
      <trkpt lat="43.432167" lon="-6.359541">
        <ele>332.975</ele>
        <time>2019-06-19T11:59:26Z</time>
      </trkpt>
      <trkpt lat="43.432184" lon="-6.359703">
        <ele>324.941</ele>
        <time>2019-06-19T11:59:27Z</time>
      </trkpt>
      <trkpt lat="43.432219" lon="-6.359910">
        <ele>316.829</ele>
        <time>2019-06-19T11:59:28Z</time>
      </trkpt>
      <trkpt lat="43.432241" lon="-6.360076">
        <ele>312.839</ele>
        <time>2019-06-19T11:59:29Z</time>
      </trkpt>
      <trkpt lat="43.432299" lon="-6.360221">
        <ele>313.271</ele>
        <time>2019-06-19T11:59:30Z</time>
      </trkpt>
      <trkpt lat="43.432394" lon="-6.360349">
        <ele>315.441</ele>
        <time>2019-06-19T11:59:31Z</time>
      </trkpt>
      <trkpt lat="43.432413" lon="-6.360505">
        <ele>313.515</ele>
        <time>2019-06-19T11:59:32Z</time>
      </trkpt>
      <trkpt lat="43.432515" lon="-6.360654">
        <ele>314.308</ele>
        <time>2019-06-19T11:59:33Z</time>
      </trkpt>
      <trkpt lat="43.432631" lon="-6.360796">
        <ele>315.910</ele>
        <time>2019-06-19T11:59:34Z</time>
      </trkpt>
      <trkpt lat="43.432747" lon="-6.360924">
        <ele>316.744</ele>
        <time>2019-06-19T11:59:35Z</time>
      </trkpt>
      <trkpt lat="43.432873" lon="-6.361063">
        <ele>319.265</ele>
        <time>2019-06-19T11:59:36Z</time>
      </trkpt>
      <trkpt lat="43.432988" lon="-6.361197">
        <ele>320.538</ele>
        <time>2019-06-19T11:59:37Z</time>
      </trkpt>
      <trkpt lat="43.433096" lon="-6.361326">
        <ele>320.868</ele>
        <time>2019-06-19T11:59:38Z</time>
      </trkpt>
      <trkpt lat="43.433205" lon="-6.361466">
        <ele>319.384</ele>
        <time>2019-06-19T11:59:39Z</time>
      </trkpt>
      <trkpt lat="43.433318" lon="-6.361596">
        <ele>317.412</ele>
        <time>2019-06-19T11:59:40Z</time>
      </trkpt>
      <trkpt lat="43.433392" lon="-6.361728">
        <ele>313.952</ele>
        <time>2019-06-19T11:59:41Z</time>
      </trkpt>
      <trkpt lat="43.433480" lon="-6.361873">
        <ele>311.432</ele>
        <time>2019-06-19T11:59:42Z</time>
      </trkpt>
      <trkpt lat="43.433563" lon="-6.362022">
        <ele>308.992</ele>
        <time>2019-06-19T11:59:43Z</time>
      </trkpt>
      <trkpt lat="43.433640" lon="-6.362154">
        <ele>306.811</ele>
        <time>2019-06-19T11:59:44Z</time>
      </trkpt>
      <trkpt lat="43.433712" lon="-6.362278">
        <ele>305.608</ele>
        <time>2019-06-19T11:59:45Z</time>
      </trkpt>
      <trkpt lat="43.433825" lon="-6.362349">
        <ele>308.716</ele>
        <time>2019-06-19T11:59:46Z</time>
      </trkpt>
      <trkpt lat="43.433948" lon="-6.362459">
        <ele>309.550</ele>
        <time>2019-06-19T11:59:47Z</time>
      </trkpt>
      <trkpt lat="43.434094" lon="-6.362547">
        <ele>311.861</ele>
        <time>2019-06-19T11:59:48Z</time>
      </trkpt>
      <trkpt lat="43.434232" lon="-6.362633">
        <ele>312.114</ele>
        <time>2019-06-19T11:59:49Z</time>
      </trkpt>
      <trkpt lat="43.434371" lon="-6.362720">
        <ele>311.014</ele>
        <time>2019-06-19T11:59:50Z</time>
      </trkpt>
      <trkpt lat="43.434511" lon="-6.362799">
        <ele>311.240</ele>
        <time>2019-06-19T11:59:51Z</time>
      </trkpt>
      <trkpt lat="43.434663" lon="-6.362895">
        <ele>312.428</ele>
        <time>2019-06-19T11:59:52Z</time>
      </trkpt>
      <trkpt lat="43.434813" lon="-6.363025">
        <ele>312.458</ele>
        <time>2019-06-19T11:59:53Z</time>
      </trkpt>
      <trkpt lat="43.434914" lon="-6.363136">
        <ele>310.391</ele>
        <time>2019-06-19T11:59:54Z</time>
      </trkpt>
      <trkpt lat="43.435054" lon="-6.363252">
        <ele>308.581</ele>
        <time>2019-06-19T11:59:55Z</time>
      </trkpt>
      <trkpt lat="43.435178" lon="-6.363350">
        <ele>308.019</ele>
        <time>2019-06-19T11:59:56Z</time>
      </trkpt>
      <trkpt lat="43.435299" lon="-6.363451">
        <ele>307.008</ele>
        <time>2019-06-19T11:59:57Z</time>
      </trkpt>
      <trkpt lat="43.435420" lon="-6.363541">
        <ele>306.162</ele>
        <time>2019-06-19T11:59:58Z</time>
      </trkpt>
      <trkpt lat="43.435530" lon="-6.363626">
        <ele>305.676</ele>
        <time>2019-06-19T11:59:59Z</time>
      </trkpt>
      <trkpt lat="43.435629" lon="-6.363702">
        <ele>303.257</ele>
        <time>2019-06-19T12:00:00Z</time>
      </trkpt>
      <trkpt lat="43.435743" lon="-6.363759">
        <ele>301.320</ele>
        <time>2019-06-19T12:00:01Z</time>
      </trkpt>
      <trkpt lat="43.435859" lon="-6.363788">
        <ele>300.280</ele>
        <time>2019-06-19T12:00:02Z</time>
      </trkpt>
      <trkpt lat="43.435983" lon="-6.363783">
        <ele>298.526</ele>
        <time>2019-06-19T12:00:03Z</time>
      </trkpt>
      <trkpt lat="43.436148" lon="-6.363817">
        <ele>294.454</ele>
        <time>2019-06-19T12:00:04Z</time>
      </trkpt>
      <trkpt lat="43.436293" lon="-6.363800">
        <ele>291.524</ele>
        <time>2019-06-19T12:00:05Z</time>
      </trkpt>
      <trkpt lat="43.436452" lon="-6.363755">
        <ele>290.593</ele>
        <time>2019-06-19T12:00:06Z</time>
      </trkpt>
      <trkpt lat="43.436611" lon="-6.363637">
        <ele>294.265</ele>
        <time>2019-06-19T12:00:07Z</time>
      </trkpt>
      <trkpt lat="43.436753" lon="-6.363578">
        <ele>296.121</ele>
        <time>2019-06-19T12:00:08Z</time>
      </trkpt>
      <trkpt lat="43.436897" lon="-6.363567">
        <ele>296.108</ele>
        <time>2019-06-19T12:00:09Z</time>
      </trkpt>
      <trkpt lat="43.436988" lon="-6.363565">
        <ele>296.142</ele>
        <time>2019-06-19T12:00:10Z</time>
      </trkpt>
      <trkpt lat="43.437165" lon="-6.363561">
        <ele>297.026</ele>
        <time>2019-06-19T12:00:11Z</time>
      </trkpt>
      <trkpt lat="43.437254" lon="-6.363604">
        <ele>295.237</ele>
        <time>2019-06-19T12:00:12Z</time>
      </trkpt>
      <trkpt lat="43.437378" lon="-6.363584">
        <ele>295.720</ele>
        <time>2019-06-19T12:00:13Z</time>
      </trkpt>
      <trkpt lat="43.437500" lon="-6.363614">
        <ele>293.990</ele>
        <time>2019-06-19T12:00:14Z</time>
      </trkpt>
      <trkpt lat="43.437638" lon="-6.363595">
        <ele>294.796</ele>
        <time>2019-06-19T12:00:15Z</time>
      </trkpt>
      <trkpt lat="43.437748" lon="-6.363567">
        <ele>295.814</ele>
        <time>2019-06-19T12:00:16Z</time>
      </trkpt>
      <trkpt lat="43.437905" lon="-6.363550">
        <ele>293.394</ele>
        <time>2019-06-19T12:00:17Z</time>
      </trkpt>
      <trkpt lat="43.438037" lon="-6.363496">
        <ele>292.458</ele>
        <time>2019-06-19T12:00:18Z</time>
      </trkpt>
      <trkpt lat="43.438201" lon="-6.363418">
        <ele>289.652</ele>
        <time>2019-06-19T12:00:19Z</time>
      </trkpt>
      <trkpt lat="43.438289" lon="-6.363279">
        <ele>292.117</ele>
        <time>2019-06-19T12:00:20Z</time>
      </trkpt>
      <trkpt lat="43.438388" lon="-6.363167">
        <ele>293.108</ele>
        <time>2019-06-19T12:00:21Z</time>
      </trkpt>
      <trkpt lat="43.438522" lon="-6.363064">
        <ele>292.858</ele>
        <time>2019-06-19T12:00:22Z</time>
      </trkpt>
      <trkpt lat="43.438674" lon="-6.362981">
        <ele>291.052</ele>
        <time>2019-06-19T12:00:23Z</time>
      </trkpt>
      <trkpt lat="43.438833" lon="-6.362909">
        <ele>289.523</ele>
        <time>2019-06-19T12:00:24Z</time>
      </trkpt>
      <trkpt lat="43.439092" lon="-6.362893">
        <ele>283.996</ele>
        <time>2019-06-19T12:00:25Z</time>
      </trkpt>
      <trkpt lat="43.439312" lon="-6.362878">
        <ele>280.796</ele>
        <time>2019-06-19T12:00:26Z</time>
      </trkpt>
      <trkpt lat="43.439409" lon="-6.362855">
        <ele>280.232</ele>
        <time>2019-06-19T12:00:27Z</time>
      </trkpt>
      <trkpt lat="43.439374" lon="-6.362795">
        <ele>283.590</ele>
        <time>2019-06-19T12:00:28Z</time>
      </trkpt>
      <trkpt lat="43.439528" lon="-6.362797">
        <ele>282.280</ele>
        <time>2019-06-19T12:00:29Z</time>
      </trkpt>
      <trkpt lat="43.439687" lon="-6.362815">
        <ele>281.458</ele>
        <time>2019-06-19T12:00:30Z</time>
      </trkpt>
      <trkpt lat="43.439846" lon="-6.362827">
        <ele>282.752</ele>
        <time>2019-06-19T12:00:31Z</time>
      </trkpt>
      <trkpt lat="43.439921" lon="-6.362854">
        <ele>282.617</ele>
        <time>2019-06-19T12:00:32Z</time>
      </trkpt>
      <trkpt lat="43.440029" lon="-6.362857">
        <ele>283.708</ele>
        <time>2019-06-19T12:00:33Z</time>
      </trkpt>
      <trkpt lat="43.440157" lon="-6.363000">
        <ele>278.458</ele>
        <time>2019-06-19T12:00:34Z</time>
      </trkpt>
      <trkpt lat="43.440284" lon="-6.363099">
        <ele>275.082</ele>
        <time>2019-06-19T12:00:35Z</time>
      </trkpt>
      <trkpt lat="43.440435" lon="-6.363179">
        <ele>272.553</ele>
        <time>2019-06-19T12:00:36Z</time>
      </trkpt>
      <trkpt lat="43.440577" lon="-6.363242">
        <ele>271.466</ele>
        <time>2019-06-19T12:00:37Z</time>
      </trkpt>
      <trkpt lat="43.440707" lon="-6.363275">
        <ele>271.466</ele>
        <time>2019-06-19T12:00:38Z</time>
      </trkpt>
      <trkpt lat="43.440830" lon="-6.363322">
        <ele>271.362</ele>
        <time>2019-06-19T12:00:39Z</time>
      </trkpt>
      <trkpt lat="43.440937" lon="-6.363390">
        <ele>268.980</ele>
        <time>2019-06-19T12:00:40Z</time>
      </trkpt>
      <trkpt lat="43.441057" lon="-6.363434">
        <ele>267.270</ele>
        <time>2019-06-19T12:00:41Z</time>
      </trkpt>
      <trkpt lat="43.441159" lon="-6.363479">
        <ele>265.559</ele>
        <time>2019-06-19T12:00:42Z</time>
      </trkpt>
      <trkpt lat="43.441286" lon="-6.363496">
        <ele>264.203</ele>
        <time>2019-06-19T12:00:43Z</time>
      </trkpt>
      <trkpt lat="43.441385" lon="-6.363498">
        <ele>263.523</ele>
        <time>2019-06-19T12:00:44Z</time>
      </trkpt>
      <trkpt lat="43.441474" lon="-6.363468">
        <ele>262.708</ele>
        <time>2019-06-19T12:00:45Z</time>
      </trkpt>
      <trkpt lat="43.441532" lon="-6.363403">
        <ele>262.368</ele>
        <time>2019-06-19T12:00:46Z</time>
      </trkpt>
      <trkpt lat="43.441607" lon="-6.363345">
        <ele>260.742</ele>
        <time>2019-06-19T12:00:47Z</time>
      </trkpt>
      <trkpt lat="43.441678" lon="-6.363239">
        <ele>258.453</ele>
        <time>2019-06-19T12:00:48Z</time>
      </trkpt>
      <trkpt lat="43.441726" lon="-6.363113">
        <ele>256.816</ele>
        <time>2019-06-19T12:00:49Z</time>
      </trkpt>
      <trkpt lat="43.441765" lon="-6.362986">
        <ele>254.356</ele>
        <time>2019-06-19T12:00:50Z</time>
      </trkpt>
      <trkpt lat="43.441710" lon="-6.362883">
        <ele>254.192</ele>
        <time>2019-06-19T12:00:51Z</time>
      </trkpt>
      <trkpt lat="43.441487" lon="-6.362801">
        <ele>261.340</ele>
        <time>2019-06-19T12:00:52Z</time>
      </trkpt>
      <trkpt lat="43.441399" lon="-6.362690">
        <ele>262.710</ele>
        <time>2019-06-19T12:00:53Z</time>
      </trkpt>
      <trkpt lat="43.441247" lon="-6.362561">
        <ele>265.221</ele>
        <time>2019-06-19T12:00:54Z</time>
      </trkpt>
      <trkpt lat="43.441168" lon="-6.362411">
        <ele>265.741</ele>
        <time>2019-06-19T12:00:55Z</time>
      </trkpt>
      <trkpt lat="43.441051" lon="-6.362261">
        <ele>269.205</ele>
        <time>2019-06-19T12:00:56Z</time>
      </trkpt>
      <trkpt lat="43.440971" lon="-6.362103">
        <ele>270.008</ele>
        <time>2019-06-19T12:00:57Z</time>
      </trkpt>
      <trkpt lat="43.440862" lon="-6.361941">
        <ele>273.165</ele>
        <time>2019-06-19T12:00:58Z</time>
      </trkpt>
      <trkpt lat="43.440805" lon="-6.361782">
        <ele>272.439</ele>
        <time>2019-06-19T12:00:59Z</time>
      </trkpt>
      <trkpt lat="43.440921" lon="-6.361580">
        <ele>259.430</ele>
        <time>2019-06-19T12:01:00Z</time>
      </trkpt>
      <trkpt lat="43.440905" lon="-6.361407">
        <ele>256.013</ele>
        <time>2019-06-19T12:01:01Z</time>
      </trkpt>
      <trkpt lat="43.440886" lon="-6.361242">
        <ele>253.743</ele>
        <time>2019-06-19T12:01:02Z</time>
      </trkpt>
      <trkpt lat="43.440865" lon="-6.361077">
        <ele>251.529</ele>
        <time>2019-06-19T12:01:03Z</time>
      </trkpt>
      <trkpt lat="43.440850" lon="-6.360934">
        <ele>248.687</ele>
        <time>2019-06-19T12:01:04Z</time>
      </trkpt>
      <trkpt lat="43.440818" lon="-6.360788">
        <ele>246.817</ele>
        <time>2019-06-19T12:01:05Z</time>
      </trkpt>
      <trkpt lat="43.440741" lon="-6.360668">
        <ele>248.787</ele>
        <time>2019-06-19T12:01:06Z</time>
      </trkpt>
      <trkpt lat="43.440581" lon="-6.360616">
        <ele>257.742</ele>
        <time>2019-06-19T12:01:07Z</time>
      </trkpt>
      <trkpt lat="43.440512" lon="-6.360512">
        <ele>259.926</ele>
        <time>2019-06-19T12:01:08Z</time>
      </trkpt>
      <trkpt lat="43.440401" lon="-6.360394">
        <ele>264.208</ele>
        <time>2019-06-19T12:01:09Z</time>
      </trkpt>
      <trkpt lat="43.440316" lon="-6.360300">
        <ele>267.181</ele>
        <time>2019-06-19T12:01:10Z</time>
      </trkpt>
      <trkpt lat="43.440204" lon="-6.360209">
        <ele>271.195</ele>
        <time>2019-06-19T12:01:11Z</time>
      </trkpt>
      <trkpt lat="43.440135" lon="-6.360098">
        <ele>272.396</ele>
        <time>2019-06-19T12:01:12Z</time>
      </trkpt>
      <trkpt lat="43.440053" lon="-6.359992">
        <ele>274.819</ele>
        <time>2019-06-19T12:01:13Z</time>
      </trkpt>
      <trkpt lat="43.440027" lon="-6.359876">
        <ele>273.859</ele>
        <time>2019-06-19T12:01:14Z</time>
      </trkpt>
      <trkpt lat="43.439967" lon="-6.359763">
        <ele>275.665</ele>
        <time>2019-06-19T12:01:15Z</time>
      </trkpt>
      <trkpt lat="43.439933" lon="-6.359620">
        <ele>277.043</ele>
        <time>2019-06-19T12:01:16Z</time>
      </trkpt>
      <trkpt lat="43.439972" lon="-6.359437">
        <ele>272.373</ele>
        <time>2019-06-19T12:01:17Z</time>
      </trkpt>
      <trkpt lat="43.440009" lon="-6.359256">
        <ele>269.595</ele>
        <time>2019-06-19T12:01:18Z</time>
      </trkpt>
      <trkpt lat="43.440064" lon="-6.359094">
        <ele>267.949</ele>
        <time>2019-06-19T12:01:19Z</time>
      </trkpt>
      <trkpt lat="43.440074" lon="-6.358931">
        <ele>270.223</ele>
        <time>2019-06-19T12:01:20Z</time>
      </trkpt>
      <trkpt lat="43.440084" lon="-6.358775">
        <ele>272.108</ele>
        <time>2019-06-19T12:01:21Z</time>
      </trkpt>
      <trkpt lat="43.440036" lon="-6.358622">
        <ele>276.952</ele>
        <time>2019-06-19T12:01:22Z</time>
      </trkpt>
      <trkpt lat="43.440041" lon="-6.358478">
        <ele>278.426</ele>
        <time>2019-06-19T12:01:23Z</time>
      </trkpt>
      <trkpt lat="43.440040" lon="-6.358374">
        <ele>279.637</ele>
        <time>2019-06-19T12:01:24Z</time>
      </trkpt>
      <trkpt lat="43.440034" lon="-6.358291">
        <ele>280.580</ele>
        <time>2019-06-19T12:01:25Z</time>
      </trkpt>
      <trkpt lat="43.440221" lon="-6.358224">
        <ele>271.120</ele>
        <time>2019-06-19T12:01:26Z</time>
      </trkpt>
      <trkpt lat="43.440251" lon="-6.358117">
        <ele>268.946</ele>
        <time>2019-06-19T12:01:27Z</time>
      </trkpt>
      <trkpt lat="43.440314" lon="-6.357993">
        <ele>263.884</ele>
        <time>2019-06-19T12:01:28Z</time>
      </trkpt>
      <trkpt lat="43.440314" lon="-6.357839">
        <ele>261.134</ele>
        <time>2019-06-19T12:01:29Z</time>
      </trkpt>
      <trkpt lat="43.440298" lon="-6.357706">
        <ele>259.655</ele>
        <time>2019-06-19T12:01:30Z</time>
      </trkpt>
      <trkpt lat="43.440345" lon="-6.357594">
        <ele>255.207</ele>
        <time>2019-06-19T12:01:31Z</time>
      </trkpt>
      <trkpt lat="43.440306" lon="-6.357467">
        <ele>254.917</ele>
        <time>2019-06-19T12:01:32Z</time>
      </trkpt>
      <trkpt lat="43.440212" lon="-6.357396">
        <ele>258.908</ele>
        <time>2019-06-19T12:01:33Z</time>
      </trkpt>
      <trkpt lat="43.440186" lon="-6.357292">
        <ele>258.278</ele>
        <time>2019-06-19T12:01:34Z</time>
      </trkpt>
      <trkpt lat="43.440144" lon="-6.357209">
        <ele>258.852</ele>
        <time>2019-06-19T12:01:35Z</time>
      </trkpt>
      <trkpt lat="43.440107" lon="-6.357124">
        <ele>258.683</ele>
        <time>2019-06-19T12:01:36Z</time>
      </trkpt>
      <trkpt lat="43.440065" lon="-6.357025">
        <ele>258.626</ele>
        <time>2019-06-19T12:01:37Z</time>
      </trkpt>
      <trkpt lat="43.440021" lon="-6.356933">
        <ele>259.256</ele>
        <time>2019-06-19T12:01:38Z</time>
      </trkpt>
      <trkpt lat="43.439952" lon="-6.356817">
        <ele>261.522</ele>
        <time>2019-06-19T12:01:39Z</time>
      </trkpt>
      <trkpt lat="43.439913" lon="-6.356694">
        <ele>261.830</ele>
        <time>2019-06-19T12:01:40Z</time>
      </trkpt>
      <trkpt lat="43.439883" lon="-6.356577">
        <ele>263.250</ele>
        <time>2019-06-19T12:01:41Z</time>
      </trkpt>
      <trkpt lat="43.439848" lon="-6.356463">
        <ele>265.442</ele>
        <time>2019-06-19T12:01:42Z</time>
      </trkpt>
      <trkpt lat="43.439805" lon="-6.356347">
        <ele>268.722</ele>
        <time>2019-06-19T12:01:43Z</time>
      </trkpt>
      <trkpt lat="43.439831" lon="-6.356204">
        <ele>266.914</ele>
        <time>2019-06-19T12:01:44Z</time>
      </trkpt>
      <trkpt lat="43.439842" lon="-6.356062">
        <ele>266.308</ele>
        <time>2019-06-19T12:01:45Z</time>
      </trkpt>
      <trkpt lat="43.439997" lon="-6.355922">
        <ele>252.957</ele>
        <time>2019-06-19T12:01:46Z</time>
      </trkpt>
      <trkpt lat="43.439990" lon="-6.355808">
        <ele>253.831</ele>
        <time>2019-06-19T12:01:47Z</time>
      </trkpt>
      <trkpt lat="43.440067" lon="-6.355667">
        <ele>247.432</ele>
        <time>2019-06-19T12:01:48Z</time>
      </trkpt>
      <trkpt lat="43.440168" lon="-6.355471">
        <ele>240.515</ele>
        <time>2019-06-19T12:01:49Z</time>
      </trkpt>
      <trkpt lat="43.440148" lon="-6.355299">
        <ele>242.835</ele>
        <time>2019-06-19T12:01:50Z</time>
      </trkpt>
      <trkpt lat="43.440143" lon="-6.355124">
        <ele>244.191</ele>
        <time>2019-06-19T12:01:51Z</time>
      </trkpt>
      <trkpt lat="43.440165" lon="-6.354942">
        <ele>243.669</ele>
        <time>2019-06-19T12:01:52Z</time>
      </trkpt>
      <trkpt lat="43.440202" lon="-6.354749">
        <ele>242.059</ele>
        <time>2019-06-19T12:01:53Z</time>
      </trkpt>
      <trkpt lat="43.440170" lon="-6.354567">
        <ele>241.981</ele>
        <time>2019-06-19T12:01:54Z</time>
      </trkpt>
      <trkpt lat="43.440191" lon="-6.354384">
        <ele>239.361</ele>
        <time>2019-06-19T12:01:55Z</time>
      </trkpt>
      <trkpt lat="43.440169" lon="-6.354194">
        <ele>239.717</ele>
        <time>2019-06-19T12:01:56Z</time>
      </trkpt>
      <trkpt lat="43.440158" lon="-6.354022">
        <ele>238.808</ele>
        <time>2019-06-19T12:01:57Z</time>
      </trkpt>
      <trkpt lat="43.440074" lon="-6.353861">
        <ele>238.321</ele>
        <time>2019-06-19T12:01:58Z</time>
      </trkpt>
      <trkpt lat="43.439988" lon="-6.353711">
        <ele>238.095</ele>
        <time>2019-06-19T12:01:59Z</time>
      </trkpt>
      <trkpt lat="43.440009" lon="-6.353553">
        <ele>236.696</ele>
        <time>2019-06-19T12:02:00Z</time>
      </trkpt>
      <trkpt lat="43.439876" lon="-6.353494">
        <ele>238.529</ele>
        <time>2019-06-19T12:02:01Z</time>
      </trkpt>
      <trkpt lat="43.439862" lon="-6.353396">
        <ele>237.729</ele>
        <time>2019-06-19T12:02:02Z</time>
      </trkpt>
      <trkpt lat="43.439860" lon="-6.353308">
        <ele>236.815</ele>
        <time>2019-06-19T12:02:03Z</time>
      </trkpt>
      <trkpt lat="43.439874" lon="-6.353182">
        <ele>235.773</ele>
        <time>2019-06-19T12:02:05Z</time>
      </trkpt>
      <trkpt lat="43.440005" lon="-6.353166">
        <ele>233.953</ele>
        <time>2019-06-19T12:02:07Z</time>
      </trkpt>
      <trkpt lat="43.440141" lon="-6.353186">
        <ele>236.351</ele>
        <time>2019-06-19T12:02:08Z</time>
      </trkpt>
      <trkpt lat="43.440238" lon="-6.353261">
        <ele>237.701</ele>
        <time>2019-06-19T12:02:09Z</time>
      </trkpt>
      <trkpt lat="43.440266" lon="-6.353314">
        <ele>237.911</ele>
        <time>2019-06-19T12:02:10Z</time>
      </trkpt>
      <trkpt lat="43.440348" lon="-6.353468">
        <ele>240.308</ele>
        <time>2019-06-19T12:02:11Z</time>
      </trkpt>
      <trkpt lat="43.440390" lon="-6.353660">
        <ele>241.528</ele>
        <time>2019-06-19T12:02:12Z</time>
      </trkpt>
      <trkpt lat="43.440407" lon="-6.353831">
        <ele>241.462</ele>
        <time>2019-06-19T12:02:13Z</time>
      </trkpt>
      <trkpt lat="43.440423" lon="-6.354021">
        <ele>240.953</ele>
        <time>2019-06-19T12:02:14Z</time>
      </trkpt>
      <trkpt lat="43.440461" lon="-6.354218">
        <ele>240.166</ele>
        <time>2019-06-19T12:02:15Z</time>
      </trkpt>
      <trkpt lat="43.440518" lon="-6.354343">
        <ele>239.636</ele>
        <time>2019-06-19T12:02:16Z</time>
      </trkpt>
      <trkpt lat="43.440540" lon="-6.354582">
        <ele>236.522</ele>
        <time>2019-06-19T12:02:17Z</time>
      </trkpt>
      <trkpt lat="43.440602" lon="-6.354817">
        <ele>235.540</ele>
        <time>2019-06-19T12:02:18Z</time>
      </trkpt>
      <trkpt lat="43.440675" lon="-6.355058">
        <ele>237.590</ele>
        <time>2019-06-19T12:02:19Z</time>
      </trkpt>
      <trkpt lat="43.440677" lon="-6.355207">
        <ele>236.461</ele>
        <time>2019-06-19T12:02:20Z</time>
      </trkpt>
      <trkpt lat="43.440716" lon="-6.355377">
        <ele>235.621</ele>
        <time>2019-06-19T12:02:21Z</time>
      </trkpt>
      <trkpt lat="43.440770" lon="-6.355445">
        <ele>236.113</ele>
        <time>2019-06-19T12:02:22Z</time>
      </trkpt>
      <trkpt lat="43.440677" lon="-6.355625">
        <ele>230.308</ele>
        <time>2019-06-19T12:02:23Z</time>
      </trkpt>
      <trkpt lat="43.440687" lon="-6.355820">
        <ele>227.189</ele>
        <time>2019-06-19T12:02:24Z</time>
      </trkpt>
      <trkpt lat="43.440692" lon="-6.356056">
        <ele>224.243</ele>
        <time>2019-06-19T12:02:25Z</time>
      </trkpt>
      <trkpt lat="43.440682" lon="-6.356230">
        <ele>221.974</ele>
        <time>2019-06-19T12:02:26Z</time>
      </trkpt>
      <trkpt lat="43.440685" lon="-6.356396">
        <ele>220.177</ele>
        <time>2019-06-19T12:02:27Z</time>
      </trkpt>
      <trkpt lat="43.440670" lon="-6.356558">
        <ele>221.437</ele>
        <time>2019-06-19T12:02:28Z</time>
      </trkpt>
      <trkpt lat="43.440689" lon="-6.356631">
        <ele>221.853</ele>
        <time>2019-06-19T12:02:29Z</time>
      </trkpt>
      <trkpt lat="43.440723" lon="-6.356724">
        <ele>222.931</ele>
        <time>2019-06-19T12:02:30Z</time>
      </trkpt>
      <trkpt lat="43.440824" lon="-6.356762">
        <ele>222.251</ele>
        <time>2019-06-19T12:02:34Z</time>
      </trkpt>
      <trkpt lat="43.440958" lon="-6.356768">
        <ele>223.063</ele>
        <time>2019-06-19T12:02:35Z</time>
      </trkpt>
      <trkpt lat="43.441050" lon="-6.356774">
        <ele>223.544</ele>
        <time>2019-06-19T12:02:36Z</time>
      </trkpt>
      <trkpt lat="43.441178" lon="-6.356832">
        <ele>224.218</ele>
        <time>2019-06-19T12:02:37Z</time>
      </trkpt>
      <trkpt lat="43.441297" lon="-6.356878">
        <ele>225.208</ele>
        <time>2019-06-19T12:02:38Z</time>
      </trkpt>
      <trkpt lat="43.441401" lon="-6.356961">
        <ele>224.879</ele>
        <time>2019-06-19T12:02:39Z</time>
      </trkpt>
      <trkpt lat="43.441478" lon="-6.357053">
        <ele>223.513</ele>
        <time>2019-06-19T12:02:40Z</time>
      </trkpt>
      <trkpt lat="43.441562" lon="-6.357123">
        <ele>222.114</ele>
        <time>2019-06-19T12:02:41Z</time>
      </trkpt>
      <trkpt lat="43.441686" lon="-6.357202">
        <ele>220.347</ele>
        <time>2019-06-19T12:02:42Z</time>
      </trkpt>
      <trkpt lat="43.441709" lon="-6.357304">
        <ele>219.277</ele>
        <time>2019-06-19T12:02:43Z</time>
      </trkpt>
      <trkpt lat="43.441719" lon="-6.357417">
        <ele>218.033</ele>
        <time>2019-06-19T12:02:44Z</time>
      </trkpt>
      <trkpt lat="43.441776" lon="-6.357527">
        <ele>219.121</ele>
        <time>2019-06-19T12:02:45Z</time>
      </trkpt>
      <trkpt lat="43.441819" lon="-6.357704">
        <ele>222.191</ele>
        <time>2019-06-19T12:02:46Z</time>
      </trkpt>
      <trkpt lat="43.441745" lon="-6.357891">
        <ele>220.129</ele>
        <time>2019-06-19T12:02:47Z</time>
      </trkpt>
      <trkpt lat="43.441706" lon="-6.358059">
        <ele>219.500</ele>
        <time>2019-06-19T12:02:48Z</time>
      </trkpt>
      <trkpt lat="43.441671" lon="-6.358288">
        <ele>221.420</ele>
        <time>2019-06-19T12:02:49Z</time>
      </trkpt>
      <trkpt lat="43.441634" lon="-6.358557">
        <ele>220.808</ele>
        <time>2019-06-19T12:02:50Z</time>
      </trkpt>
      <trkpt lat="43.441602" lon="-6.358852">
        <ele>218.895</ele>
        <time>2019-06-19T12:02:52Z</time>
      </trkpt>
      <trkpt lat="43.441441" lon="-6.358863">
        <ele>213.099</ele>
        <time>2019-06-19T12:02:53Z</time>
      </trkpt>
      <trkpt lat="43.441400" lon="-6.358990">
        <ele>210.340</ele>
        <time>2019-06-19T12:02:54Z</time>
      </trkpt>
      <trkpt lat="43.441336" lon="-6.359104">
        <ele>208.643</ele>
        <time>2019-06-19T12:02:56Z</time>
      </trkpt>
      <trkpt lat="43.441289" lon="-6.359231">
        <ele>207.383</ele>
        <time>2019-06-19T12:02:57Z</time>
      </trkpt>
      <trkpt lat="43.441297" lon="-6.359383">
        <ele>205.789</ele>
        <time>2019-06-19T12:02:58Z</time>
      </trkpt>
      <trkpt lat="43.441297" lon="-6.359532">
        <ele>204.357</ele>
        <time>2019-06-19T12:02:59Z</time>
      </trkpt>
      <trkpt lat="43.441385" lon="-6.359596">
        <ele>203.497</ele>
        <time>2019-06-19T12:03:00Z</time>
      </trkpt>
      <trkpt lat="43.441479" lon="-6.359688">
        <ele>203.776</ele>
        <time>2019-06-19T12:03:01Z</time>
      </trkpt>
      <trkpt lat="43.441591" lon="-6.359767">
        <ele>204.390</ele>
        <time>2019-06-19T12:03:02Z</time>
      </trkpt>
      <trkpt lat="43.441701" lon="-6.359860">
        <ele>205.519</ele>
        <time>2019-06-19T12:03:03Z</time>
      </trkpt>
      <trkpt lat="43.441808" lon="-6.359956">
        <ele>208.008</ele>
        <time>2019-06-19T12:03:04Z</time>
      </trkpt>
      <trkpt lat="43.441898" lon="-6.360057">
        <ele>208.710</ele>
        <time>2019-06-19T12:03:05Z</time>
      </trkpt>
      <trkpt lat="43.441981" lon="-6.360160">
        <ele>208.854</ele>
        <time>2019-06-19T12:03:06Z</time>
      </trkpt>
      <trkpt lat="43.442044" lon="-6.360284">
        <ele>207.945</ele>
        <time>2019-06-19T12:03:07Z</time>
      </trkpt>
      <trkpt lat="43.442083" lon="-6.360422">
        <ele>205.858</ele>
        <time>2019-06-19T12:03:08Z</time>
      </trkpt>
      <trkpt lat="43.442098" lon="-6.360561">
        <ele>202.378</ele>
        <time>2019-06-19T12:03:09Z</time>
      </trkpt>
      <trkpt lat="43.442107" lon="-6.360732">
        <ele>198.414</ele>
        <time>2019-06-19T12:03:10Z</time>
      </trkpt>
      <trkpt lat="43.442103" lon="-6.360885">
        <ele>195.882</ele>
        <time>2019-06-19T12:03:11Z</time>
      </trkpt>
      <trkpt lat="43.442118" lon="-6.361052">
        <ele>195.752</ele>
        <time>2019-06-19T12:03:12Z</time>
      </trkpt>
      <trkpt lat="43.442146" lon="-6.361193">
        <ele>195.783</ele>
        <time>2019-06-19T12:03:13Z</time>
      </trkpt>
      <trkpt lat="43.442176" lon="-6.361308">
        <ele>195.525</ele>
        <time>2019-06-19T12:03:14Z</time>
      </trkpt>
      <trkpt lat="43.442256" lon="-6.361413">
        <ele>195.517</ele>
        <time>2019-06-19T12:03:15Z</time>
      </trkpt>
      <trkpt lat="43.442312" lon="-6.361494">
        <ele>196.108</ele>
        <time>2019-06-19T12:03:16Z</time>
      </trkpt>
      <trkpt lat="43.442479" lon="-6.361551">
        <ele>195.261</ele>
        <time>2019-06-19T12:03:17Z</time>
      </trkpt>
      <trkpt lat="43.442618" lon="-6.361615">
        <ele>196.985</ele>
        <time>2019-06-19T12:03:18Z</time>
      </trkpt>
      <trkpt lat="43.442733" lon="-6.361694">
        <ele>198.696</ele>
        <time>2019-06-19T12:03:19Z</time>
      </trkpt>
      <trkpt lat="43.442853" lon="-6.361792">
        <ele>200.289</ele>
        <time>2019-06-19T12:03:20Z</time>
      </trkpt>
      <trkpt lat="43.442947" lon="-6.361904">
        <ele>200.969</ele>
        <time>2019-06-19T12:03:21Z</time>
      </trkpt>
      <trkpt lat="43.443033" lon="-6.362029">
        <ele>201.175</ele>
        <time>2019-06-19T12:03:22Z</time>
      </trkpt>
      <trkpt lat="43.443108" lon="-6.362155">
        <ele>200.183</ele>
        <time>2019-06-19T12:03:23Z</time>
      </trkpt>
      <trkpt lat="43.443193" lon="-6.362289">
        <ele>199.073</ele>
        <time>2019-06-19T12:03:24Z</time>
      </trkpt>
      <trkpt lat="43.443268" lon="-6.362427">
        <ele>197.344</ele>
        <time>2019-06-19T12:03:25Z</time>
      </trkpt>
      <trkpt lat="43.443312" lon="-6.362571">
        <ele>195.105</ele>
        <time>2019-06-19T12:03:26Z</time>
      </trkpt>
      <trkpt lat="43.443365" lon="-6.362714">
        <ele>192.715</ele>
        <time>2019-06-19T12:03:27Z</time>
      </trkpt>
      <trkpt lat="43.443417" lon="-6.362840">
        <ele>191.508</ele>
        <time>2019-06-19T12:03:28Z</time>
      </trkpt>
      <trkpt lat="43.443474" lon="-6.362948">
        <ele>191.027</ele>
        <time>2019-06-19T12:03:29Z</time>
      </trkpt>
      <trkpt lat="43.443562" lon="-6.363042">
        <ele>189.731</ele>
        <time>2019-06-19T12:03:30Z</time>
      </trkpt>
      <trkpt lat="43.443647" lon="-6.363122">
        <ele>189.132</ele>
        <time>2019-06-19T12:03:31Z</time>
      </trkpt>
      <trkpt lat="43.443738" lon="-6.363176">
        <ele>188.885</ele>
        <time>2019-06-19T12:03:32Z</time>
      </trkpt>
      <trkpt lat="43.443804" lon="-6.363251">
        <ele>188.525</ele>
        <time>2019-06-19T12:03:33Z</time>
      </trkpt>
      <trkpt lat="43.443863" lon="-6.363352">
        <ele>188.341</ele>
        <time>2019-06-19T12:03:34Z</time>
      </trkpt>
      <trkpt lat="43.443915" lon="-6.363486">
        <ele>188.829</ele>
        <time>2019-06-19T12:03:35Z</time>
      </trkpt>
      <trkpt lat="43.443961" lon="-6.363625">
        <ele>190.239</ele>
        <time>2019-06-19T12:03:36Z</time>
      </trkpt>
      <trkpt lat="43.444018" lon="-6.363762">
        <ele>192.528</ele>
        <time>2019-06-19T12:03:37Z</time>
      </trkpt>
      <trkpt lat="43.444059" lon="-6.363900">
        <ele>194.389</ele>
        <time>2019-06-19T12:03:38Z</time>
      </trkpt>
      <trkpt lat="43.444125" lon="-6.364035">
        <ele>194.917</ele>
        <time>2019-06-19T12:03:39Z</time>
      </trkpt>
      <trkpt lat="43.444271" lon="-6.364159">
        <ele>194.308</ele>
        <time>2019-06-19T12:03:40Z</time>
      </trkpt>
      <trkpt lat="43.444370" lon="-6.364297">
        <ele>193.255</ele>
        <time>2019-06-19T12:03:41Z</time>
      </trkpt>
      <trkpt lat="43.444472" lon="-6.364431">
        <ele>191.969</ele>
        <time>2019-06-19T12:03:42Z</time>
      </trkpt>
      <trkpt lat="43.444564" lon="-6.364573">
        <ele>190.810</ele>
        <time>2019-06-19T12:03:43Z</time>
      </trkpt>
      <trkpt lat="43.444655" lon="-6.364700">
        <ele>188.613</ele>
        <time>2019-06-19T12:03:44Z</time>
      </trkpt>
      <trkpt lat="43.444761" lon="-6.364815">
        <ele>188.193</ele>
        <time>2019-06-19T12:03:45Z</time>
      </trkpt>
      <trkpt lat="43.444858" lon="-6.364919">
        <ele>189.129</ele>
        <time>2019-06-19T12:03:46Z</time>
      </trkpt>
      <trkpt lat="43.444972" lon="-6.364988">
        <ele>189.137</ele>
        <time>2019-06-19T12:03:47Z</time>
      </trkpt>
      <trkpt lat="43.445104" lon="-6.365052">
        <ele>191.027</ele>
        <time>2019-06-19T12:03:48Z</time>
      </trkpt>
      <trkpt lat="43.445241" lon="-6.365103">
        <ele>192.488</ele>
        <time>2019-06-19T12:03:49Z</time>
      </trkpt>
      <trkpt lat="43.445380" lon="-6.365147">
        <ele>193.724</ele>
        <time>2019-06-19T12:03:50Z</time>
      </trkpt>
      <trkpt lat="43.445497" lon="-6.365229">
        <ele>194.226</ele>
        <time>2019-06-19T12:03:51Z</time>
      </trkpt>
      <trkpt lat="43.445610" lon="-6.365332">
        <ele>193.408</ele>
        <time>2019-06-19T12:03:52Z</time>
      </trkpt>
      <trkpt lat="43.445705" lon="-6.365435">
        <ele>191.951</ele>
        <time>2019-06-19T12:03:53Z</time>
      </trkpt>
      <trkpt lat="43.445848" lon="-6.365540">
        <ele>190.675</ele>
        <time>2019-06-19T12:03:54Z</time>
      </trkpt>
      <trkpt lat="43.445991" lon="-6.365725">
        <ele>188.756</ele>
        <time>2019-06-19T12:03:55Z</time>
      </trkpt>
      <trkpt lat="43.446115" lon="-6.365854">
        <ele>186.069</ele>
        <time>2019-06-19T12:03:56Z</time>
      </trkpt>
      <trkpt lat="43.446236" lon="-6.365996">
        <ele>186.359</ele>
        <time>2019-06-19T12:03:57Z</time>
      </trkpt>
      <trkpt lat="43.446352" lon="-6.366128">
        <ele>184.275</ele>
        <time>2019-06-19T12:03:58Z</time>
      </trkpt>
      <trkpt lat="43.446456" lon="-6.366264">
        <ele>184.383</ele>
        <time>2019-06-19T12:03:59Z</time>
      </trkpt>
      <trkpt lat="43.446561" lon="-6.366367">
        <ele>184.183</ele>
        <time>2019-06-19T12:04:00Z</time>
      </trkpt>
      <trkpt lat="43.446664" lon="-6.366487">
        <ele>184.735</ele>
        <time>2019-06-19T12:04:01Z</time>
      </trkpt>
      <trkpt lat="43.446760" lon="-6.366608">
        <ele>187.586</ele>
        <time>2019-06-19T12:04:02Z</time>
      </trkpt>
      <trkpt lat="43.446832" lon="-6.366722">
        <ele>189.014</ele>
        <time>2019-06-19T12:04:03Z</time>
      </trkpt>
      <trkpt lat="43.446895" lon="-6.366851">
        <ele>190.108</ele>
        <time>2019-06-19T12:04:04Z</time>
      </trkpt>
      <trkpt lat="43.446949" lon="-6.366979">
        <ele>190.926</ele>
        <time>2019-06-19T12:04:05Z</time>
      </trkpt>
      <trkpt lat="43.447002" lon="-6.367094">
        <ele>192.320</ele>
        <time>2019-06-19T12:04:06Z</time>
      </trkpt>
      <trkpt lat="43.447082" lon="-6.367223">
        <ele>194.451</ele>
        <time>2019-06-19T12:04:07Z</time>
      </trkpt>
      <trkpt lat="43.447112" lon="-6.367372">
        <ele>193.674</ele>
        <time>2019-06-19T12:04:08Z</time>
      </trkpt>
      <trkpt lat="43.447116" lon="-6.367514">
        <ele>191.654</ele>
        <time>2019-06-19T12:04:09Z</time>
      </trkpt>
      <trkpt lat="43.447051" lon="-6.367656">
        <ele>187.050</ele>
        <time>2019-06-19T12:04:10Z</time>
      </trkpt>
      <trkpt lat="43.447018" lon="-6.367826">
        <ele>183.698</ele>
        <time>2019-06-19T12:04:11Z</time>
      </trkpt>
      <trkpt lat="43.447007" lon="-6.367890">
        <ele>182.888</ele>
        <time>2019-06-19T12:04:12Z</time>
      </trkpt>
      <trkpt lat="43.447079" lon="-6.368044">
        <ele>184.051</ele>
        <time>2019-06-19T12:04:13Z</time>
      </trkpt>
      <trkpt lat="43.447277" lon="-6.368026">
        <ele>191.501</ele>
        <time>2019-06-19T12:04:14Z</time>
      </trkpt>
      <trkpt lat="43.447353" lon="-6.368120">
        <ele>195.311</ele>
        <time>2019-06-19T12:04:15Z</time>
      </trkpt>
      <trkpt lat="43.447415" lon="-6.368241">
        <ele>198.208</ele>
        <time>2019-06-19T12:04:16Z</time>
      </trkpt>
      <trkpt lat="43.447464" lon="-6.368381">
        <ele>199.878</ele>
        <time>2019-06-19T12:04:17Z</time>
      </trkpt>
      <trkpt lat="43.447515" lon="-6.368505">
        <ele>200.992</ele>
        <time>2019-06-19T12:04:18Z</time>
      </trkpt>
      <trkpt lat="43.447564" lon="-6.368662">
        <ele>201.023</ele>
        <time>2019-06-19T12:04:19Z</time>
      </trkpt>
      <trkpt lat="43.447535" lon="-6.368828">
        <ele>197.826</ele>
        <time>2019-06-19T12:04:20Z</time>
      </trkpt>
      <trkpt lat="43.447629" lon="-6.368879">
        <ele>199.986</ele>
        <time>2019-06-19T12:04:21Z</time>
      </trkpt>
      <trkpt lat="43.447690" lon="-6.369024">
        <ele>199.582</ele>
        <time>2019-06-19T12:04:22Z</time>
      </trkpt>
      <trkpt lat="43.447745" lon="-6.369125">
        <ele>199.170</ele>
        <time>2019-06-19T12:04:23Z</time>
      </trkpt>
      <trkpt lat="43.447829" lon="-6.369189">
        <ele>201.710</ele>
        <time>2019-06-19T12:04:24Z</time>
      </trkpt>
      <trkpt lat="43.447859" lon="-6.369302">
        <ele>200.854</ele>
        <time>2019-06-19T12:04:25Z</time>
      </trkpt>
      <trkpt lat="43.447897" lon="-6.369377">
        <ele>200.956</ele>
        <time>2019-06-19T12:04:26Z</time>
      </trkpt>
      <trkpt lat="43.447928" lon="-6.369475">
        <ele>199.511</ele>
        <time>2019-06-19T12:04:27Z</time>
      </trkpt>
      <trkpt lat="43.447884" lon="-6.369498">
        <ele>197.108</ele>
        <time>2019-06-19T12:04:29Z</time>
      </trkpt>
      <trkpt lat="43.447830" lon="-6.369499">
        <ele>195.028</ele>
        <time>2019-06-19T12:04:35Z</time>
      </trkpt>
      <trkpt lat="43.447776" lon="-6.369515">
        <ele>192.852</ele>
        <time>2019-06-19T12:04:36Z</time>
      </trkpt>
      <trkpt lat="43.447715" lon="-6.369506">
        <ele>193.713</ele>
        <time>2019-06-19T12:05:00Z</time>
      </trkpt>
      <trkpt lat="43.447759" lon="-6.369541">
        <ele>192.646</ele>
        <time>2019-06-19T12:05:07Z</time>
      </trkpt>
      <trkpt lat="43.447803" lon="-6.369529">
        <ele>193.416</ele>
        <time>2019-06-19T12:05:12Z</time>
      </trkpt>
      <trkpt lat="43.447764" lon="-6.369568">
        <ele>192.162</ele>
        <time>2019-06-19T12:05:31Z</time>
      </trkpt>
      <trkpt lat="43.447713" lon="-6.369545">
        <ele>193.380</ele>
        <time>2019-06-19T12:05:34Z</time>
      </trkpt>
      <trkpt lat="43.447764" lon="-6.369491">
        <ele>193.390</ele>
        <time>2019-06-19T12:05:47Z</time>
      </trkpt>
      <trkpt lat="43.447721" lon="-6.369566">
        <ele>192.939</ele>
        <time>2019-06-19T12:05:56Z</time>
      </trkpt>
      <trkpt lat="43.447781" lon="-6.369587">
        <ele>191.501</ele>
        <time>2019-06-19T12:06:07Z</time>
      </trkpt>
      <trkpt lat="43.447739" lon="-6.369549">
        <ele>192.821</ele>
        <time>2019-06-19T12:06:11Z</time>
      </trkpt>
      <trkpt lat="43.447794" lon="-6.369556">
        <ele>192.508</ele>
        <time>2019-06-19T12:06:19Z</time>
      </trkpt>
      <trkpt lat="43.447845" lon="-6.369549">
        <ele>194.426</ele>
        <time>2019-06-19T12:06:24Z</time>
      </trkpt>
      <trkpt lat="43.447891" lon="-6.369611">
        <ele>194.250</ele>
        <time>2019-06-19T12:06:31Z</time>
      </trkpt>
      <trkpt lat="43.447914" lon="-6.369672">
        <ele>193.031</ele>
        <time>2019-06-19T12:06:32Z</time>
      </trkpt>
      <trkpt lat="43.447962" lon="-6.369879">
        <ele>189.774</ele>
        <time>2019-06-19T12:06:33Z</time>
      </trkpt>
      <trkpt lat="43.448041" lon="-6.370057">
        <ele>187.674</ele>
        <time>2019-06-19T12:06:34Z</time>
      </trkpt>
      <trkpt lat="43.448071" lon="-6.370257">
        <ele>186.770</ele>
        <time>2019-06-19T12:06:35Z</time>
      </trkpt>
      <trkpt lat="43.448100" lon="-6.370483">
        <ele>187.978</ele>
        <time>2019-06-19T12:06:36Z</time>
      </trkpt>
      <trkpt lat="43.448205" lon="-6.370649">
        <ele>190.778</ele>
        <time>2019-06-19T12:06:37Z</time>
      </trkpt>
      <trkpt lat="43.448244" lon="-6.370881">
        <ele>192.297</ele>
        <time>2019-06-19T12:06:38Z</time>
      </trkpt>
      <trkpt lat="43.448213" lon="-6.371090">
        <ele>193.623</ele>
        <time>2019-06-19T12:06:39Z</time>
      </trkpt>
      <trkpt lat="43.448366" lon="-6.371229">
        <ele>190.525</ele>
        <time>2019-06-19T12:06:40Z</time>
      </trkpt>
      <trkpt lat="43.448491" lon="-6.371409">
        <ele>188.008</ele>
        <time>2019-06-19T12:06:41Z</time>
      </trkpt>
      <trkpt lat="43.448479" lon="-6.371629">
        <ele>188.422</ele>
        <time>2019-06-19T12:06:42Z</time>
      </trkpt>
      <trkpt lat="43.448559" lon="-6.371832">
        <ele>189.946</ele>
        <time>2019-06-19T12:06:43Z</time>
      </trkpt>
      <trkpt lat="43.448616" lon="-6.372015">
        <ele>190.337</ele>
        <time>2019-06-19T12:06:44Z</time>
      </trkpt>
      <trkpt lat="43.448610" lon="-6.372228">
        <ele>188.020</ele>
        <time>2019-06-19T12:06:45Z</time>
      </trkpt>
      <trkpt lat="43.448694" lon="-6.372443">
        <ele>187.640</ele>
        <time>2019-06-19T12:06:46Z</time>
      </trkpt>
      <trkpt lat="43.448804" lon="-6.372629">
        <ele>186.936</ele>
        <time>2019-06-19T12:06:47Z</time>
      </trkpt>
      <trkpt lat="43.448897" lon="-6.372820">
        <ele>185.934</ele>
        <time>2019-06-19T12:06:48Z</time>
      </trkpt>
      <trkpt lat="43.449001" lon="-6.373038">
        <ele>188.794</ele>
        <time>2019-06-19T12:06:49Z</time>
      </trkpt>
      <trkpt lat="43.449092" lon="-6.373236">
        <ele>187.516</ele>
        <time>2019-06-19T12:06:50Z</time>
      </trkpt>
      <trkpt lat="43.449169" lon="-6.373431">
        <ele>184.976</ele>
        <time>2019-06-19T12:06:51Z</time>
      </trkpt>
      <trkpt lat="43.449250" lon="-6.373593">
        <ele>182.913</ele>
        <time>2019-06-19T12:06:52Z</time>
      </trkpt>
      <trkpt lat="43.449321" lon="-6.373788">
        <ele>182.908</ele>
        <time>2019-06-19T12:06:53Z</time>
      </trkpt>
      <trkpt lat="43.449409" lon="-6.373991">
        <ele>181.634</ele>
        <time>2019-06-19T12:06:54Z</time>
      </trkpt>
      <trkpt lat="43.449525" lon="-6.374207">
        <ele>181.748</ele>
        <time>2019-06-19T12:06:55Z</time>
      </trkpt>
      <trkpt lat="43.449589" lon="-6.374401">
        <ele>183.499</ele>
        <time>2019-06-19T12:06:56Z</time>
      </trkpt>
      <trkpt lat="43.449683" lon="-6.374587">
        <ele>183.662</ele>
        <time>2019-06-19T12:06:57Z</time>
      </trkpt>
      <trkpt lat="43.449741" lon="-6.374762">
        <ele>183.492</ele>
        <time>2019-06-19T12:06:58Z</time>
      </trkpt>
      <trkpt lat="43.449789" lon="-6.374953">
        <ele>182.918</ele>
        <time>2019-06-19T12:06:59Z</time>
      </trkpt>
      <trkpt lat="43.449855" lon="-6.375128">
        <ele>182.046</ele>
        <time>2019-06-19T12:07:00Z</time>
      </trkpt>
      <trkpt lat="43.449899" lon="-6.375317">
        <ele>179.846</ele>
        <time>2019-06-19T12:07:01Z</time>
      </trkpt>
      <trkpt lat="43.449938" lon="-6.375532">
        <ele>176.593</ele>
        <time>2019-06-19T12:07:02Z</time>
      </trkpt>
      <trkpt lat="43.449941" lon="-6.375737">
        <ele>173.265</ele>
        <time>2019-06-19T12:07:03Z</time>
      </trkpt>
      <trkpt lat="43.449981" lon="-6.375894">
        <ele>171.021</ele>
        <time>2019-06-19T12:07:04Z</time>
      </trkpt>
      <trkpt lat="43.449949" lon="-6.376042">
        <ele>169.008</ele>
        <time>2019-06-19T12:07:05Z</time>
      </trkpt>
      <trkpt lat="43.449964" lon="-6.376213">
        <ele>169.042</ele>
        <time>2019-06-19T12:07:06Z</time>
      </trkpt>
      <trkpt lat="43.449951" lon="-6.376383">
        <ele>170.766</ele>
        <time>2019-06-19T12:07:07Z</time>
      </trkpt>
      <trkpt lat="43.449962" lon="-6.376551">
        <ele>171.127</ele>
        <time>2019-06-19T12:07:08Z</time>
      </trkpt>
      <trkpt lat="43.450030" lon="-6.376701">
        <ele>169.970</ele>
        <time>2019-06-19T12:07:09Z</time>
      </trkpt>
      <trkpt lat="43.450196" lon="-6.376754">
        <ele>167.440</ele>
        <time>2019-06-19T12:07:10Z</time>
      </trkpt>
      <trkpt lat="43.450265" lon="-6.376896">
        <ele>164.946</ele>
        <time>2019-06-19T12:07:11Z</time>
      </trkpt>
      <trkpt lat="43.450368" lon="-6.377009">
        <ele>165.574</ele>
        <time>2019-06-19T12:07:12Z</time>
      </trkpt>
      <trkpt lat="43.450506" lon="-6.377087">
        <ele>167.284</ele>
        <time>2019-06-19T12:07:13Z</time>
      </trkpt>
      <trkpt lat="43.450659" lon="-6.377137">
        <ele>171.493</ele>
        <time>2019-06-19T12:07:14Z</time>
      </trkpt>
      <trkpt lat="43.450775" lon="-6.377227">
        <ele>174.365</ele>
        <time>2019-06-19T12:07:15Z</time>
      </trkpt>
      <trkpt lat="43.450894" lon="-6.377336">
        <ele>176.521</ele>
        <time>2019-06-19T12:07:16Z</time>
      </trkpt>
      <trkpt lat="43.451013" lon="-6.377461">
        <ele>176.208</ele>
        <time>2019-06-19T12:07:17Z</time>
      </trkpt>
      <trkpt lat="43.451123" lon="-6.377587">
        <ele>175.622</ele>
        <time>2019-06-19T12:07:18Z</time>
      </trkpt>
      <trkpt lat="43.451183" lon="-6.377693">
        <ele>175.516</ele>
        <time>2019-06-19T12:07:19Z</time>
      </trkpt>
      <trkpt lat="43.451269" lon="-6.377790">
        <ele>175.627</ele>
        <time>2019-06-19T12:07:20Z</time>
      </trkpt>
      <trkpt lat="43.451369" lon="-6.377872">
        <ele>175.810</ele>
        <time>2019-06-19T12:07:21Z</time>
      </trkpt>
      <trkpt lat="43.451460" lon="-6.377956">
        <ele>174.770</ele>
        <time>2019-06-19T12:07:22Z</time>
      </trkpt>
      <trkpt lat="43.451602" lon="-6.377941">
        <ele>174.276</ele>
        <time>2019-06-19T12:07:23Z</time>
      </trkpt>
      <trkpt lat="43.451764" lon="-6.377943">
        <ele>174.134</ele>
        <time>2019-06-19T12:07:24Z</time>
      </trkpt>
      <trkpt lat="43.451870" lon="-6.377944">
        <ele>174.494</ele>
        <time>2019-06-19T12:07:25Z</time>
      </trkpt>
      <trkpt lat="43.452035" lon="-6.377942">
        <ele>176.526</ele>
        <time>2019-06-19T12:07:26Z</time>
      </trkpt>
      <trkpt lat="43.452173" lon="-6.377962">
        <ele>179.347</ele>
        <time>2019-06-19T12:07:27Z</time>
      </trkpt>
      <trkpt lat="43.452348" lon="-6.377999">
        <ele>180.411</ele>
        <time>2019-06-19T12:07:28Z</time>
      </trkpt>
      <trkpt lat="43.452501" lon="-6.377993">
        <ele>180.708</ele>
        <time>2019-06-19T12:07:29Z</time>
      </trkpt>
      <trkpt lat="43.452654" lon="-6.377984">
        <ele>178.675</ele>
        <time>2019-06-19T12:07:30Z</time>
      </trkpt>
      <trkpt lat="43.452827" lon="-6.377966">
        <ele>178.239</ele>
        <time>2019-06-19T12:07:31Z</time>
      </trkpt>
      <trkpt lat="43.452957" lon="-6.377924">
        <ele>181.810</ele>
        <time>2019-06-19T12:07:32Z</time>
      </trkpt>
      <trkpt lat="43.453057" lon="-6.377914">
        <ele>184.123</ele>
        <time>2019-06-19T12:07:33Z</time>
      </trkpt>
      <trkpt lat="43.453134" lon="-6.377913">
        <ele>185.543</ele>
        <time>2019-06-19T12:07:34Z</time>
      </trkpt>
      <trkpt lat="43.453193" lon="-6.377971">
        <ele>184.759</ele>
        <time>2019-06-19T12:07:35Z</time>
      </trkpt>
      <trkpt lat="43.453309" lon="-6.378002">
        <ele>185.537</ele>
        <time>2019-06-19T12:07:36Z</time>
      </trkpt>
      <trkpt lat="43.453458" lon="-6.378123">
        <ele>186.397</ele>
        <time>2019-06-19T12:07:37Z</time>
      </trkpt>
      <trkpt lat="43.453533" lon="-6.378214">
        <ele>185.844</ele>
        <time>2019-06-19T12:07:38Z</time>
      </trkpt>
      <trkpt lat="43.453552" lon="-6.378340">
        <ele>182.605</ele>
        <time>2019-06-19T12:07:39Z</time>
      </trkpt>
      <trkpt lat="43.453583" lon="-6.378525">
        <ele>178.615</ele>
        <time>2019-06-19T12:07:40Z</time>
      </trkpt>
      <trkpt lat="43.453629" lon="-6.378723">
        <ele>176.108</ele>
        <time>2019-06-19T12:07:41Z</time>
      </trkpt>
      <trkpt lat="43.453605" lon="-6.378939">
        <ele>172.427</ele>
        <time>2019-06-19T12:07:42Z</time>
      </trkpt>
      <trkpt lat="43.453632" lon="-6.379170">
        <ele>170.831</ele>
        <time>2019-06-19T12:07:43Z</time>
      </trkpt>
      <trkpt lat="43.453716" lon="-6.379302">
        <ele>173.332</ele>
        <time>2019-06-19T12:07:44Z</time>
      </trkpt>
      <trkpt lat="43.453819" lon="-6.379508">
        <ele>175.235</ele>
        <time>2019-06-19T12:07:45Z</time>
      </trkpt>
      <trkpt lat="43.453863" lon="-6.379743">
        <ele>174.045</ele>
        <time>2019-06-19T12:07:46Z</time>
      </trkpt>
      <trkpt lat="43.453884" lon="-6.379971">
        <ele>170.471</ele>
        <time>2019-06-19T12:07:47Z</time>
      </trkpt>
      <trkpt lat="43.453981" lon="-6.380141">
        <ele>171.869</ele>
        <time>2019-06-19T12:07:48Z</time>
      </trkpt>
      <trkpt lat="43.453923" lon="-6.380412">
        <ele>167.099</ele>
        <time>2019-06-19T12:07:49Z</time>
      </trkpt>
      <trkpt lat="43.453981" lon="-6.380624">
        <ele>167.485</ele>
        <time>2019-06-19T12:07:50Z</time>
      </trkpt>
      <trkpt lat="43.454058" lon="-6.380813">
        <ele>167.589</ele>
        <time>2019-06-19T12:07:51Z</time>
      </trkpt>
      <trkpt lat="43.454167" lon="-6.380967">
        <ele>166.017</ele>
        <time>2019-06-19T12:07:52Z</time>
      </trkpt>
      <trkpt lat="43.454233" lon="-6.381147">
        <ele>166.408</ele>
        <time>2019-06-19T12:07:53Z</time>
      </trkpt>
      <trkpt lat="43.454275" lon="-6.381320">
        <ele>166.191</ele>
        <time>2019-06-19T12:07:54Z</time>
      </trkpt>
      <trkpt lat="43.454332" lon="-6.381482">
        <ele>166.325</ele>
        <time>2019-06-19T12:07:55Z</time>
      </trkpt>
      <trkpt lat="43.454424" lon="-6.381630">
        <ele>166.246</ele>
        <time>2019-06-19T12:07:56Z</time>
      </trkpt>
      <trkpt lat="43.454480" lon="-6.381773">
        <ele>165.589</ele>
        <time>2019-06-19T12:07:57Z</time>
      </trkpt>
      <trkpt lat="43.454586" lon="-6.381891">
        <ele>164.489</ele>
        <time>2019-06-19T12:07:58Z</time>
      </trkpt>
      <trkpt lat="43.454693" lon="-6.382011">
        <ele>164.295</ele>
        <time>2019-06-19T12:07:59Z</time>
      </trkpt>
      <trkpt lat="43.454777" lon="-6.382129">
        <ele>165.443</ele>
        <time>2019-06-19T12:08:00Z</time>
      </trkpt>
      <trkpt lat="43.454891" lon="-6.382157">
        <ele>165.183</ele>
        <time>2019-06-19T12:08:01Z</time>
      </trkpt>
      <trkpt lat="43.454970" lon="-6.382180">
        <ele>164.911</ele>
        <time>2019-06-19T12:08:02Z</time>
      </trkpt>
      <trkpt lat="43.455058" lon="-6.382229">
        <ele>165.521</ele>
        <time>2019-06-19T12:08:03Z</time>
      </trkpt>
      <trkpt lat="43.455213" lon="-6.382190">
        <ele>166.503</ele>
        <time>2019-06-19T12:08:04Z</time>
      </trkpt>
      <trkpt lat="43.455307" lon="-6.382134">
        <ele>166.808</ele>
        <time>2019-06-19T12:08:05Z</time>
      </trkpt>
      <trkpt lat="43.455364" lon="-6.382039">
        <ele>166.294</ele>
        <time>2019-06-19T12:08:06Z</time>
      </trkpt>
      <trkpt lat="43.455443" lon="-6.381887">
        <ele>165.518</ele>
        <time>2019-06-19T12:08:07Z</time>
      </trkpt>
      <trkpt lat="43.455649" lon="-6.381760">
        <ele>163.499</ele>
        <time>2019-06-19T12:08:08Z</time>
      </trkpt>
      <trkpt lat="43.455743" lon="-6.381638">
        <ele>162.512</ele>
        <time>2019-06-19T12:08:09Z</time>
      </trkpt>
      <trkpt lat="43.455818" lon="-6.381564">
        <ele>162.042</ele>
        <time>2019-06-19T12:08:10Z</time>
      </trkpt>
      <trkpt lat="43.455900" lon="-6.381473">
        <ele>161.958</ele>
        <time>2019-06-19T12:08:11Z</time>
      </trkpt>
      <trkpt lat="43.455995" lon="-6.381412">
        <ele>161.716</ele>
        <time>2019-06-19T12:08:12Z</time>
      </trkpt>
      <trkpt lat="43.456090" lon="-6.381344">
        <ele>161.996</ele>
        <time>2019-06-19T12:08:13Z</time>
      </trkpt>
      <trkpt lat="43.456210" lon="-6.381316">
        <ele>161.217</ele>
        <time>2019-06-19T12:08:14Z</time>
      </trkpt>
      <trkpt lat="43.456327" lon="-6.381309">
        <ele>160.187</ele>
        <time>2019-06-19T12:08:15Z</time>
      </trkpt>
      <trkpt lat="43.456448" lon="-6.381324">
        <ele>159.915</ele>
        <time>2019-06-19T12:08:16Z</time>
      </trkpt>
      <trkpt lat="43.456573" lon="-6.381344">
        <ele>160.908</ele>
        <time>2019-06-19T12:08:17Z</time>
      </trkpt>
      <trkpt lat="43.456685" lon="-6.381398">
        <ele>161.514</ele>
        <time>2019-06-19T12:08:18Z</time>
      </trkpt>
      <trkpt lat="43.456728" lon="-6.381515">
        <ele>161.178</ele>
        <time>2019-06-19T12:08:19Z</time>
      </trkpt>
      <trkpt lat="43.456764" lon="-6.381628">
        <ele>160.479</ele>
        <time>2019-06-19T12:08:20Z</time>
      </trkpt>
      <trkpt lat="43.456840" lon="-6.381766">
        <ele>160.912</ele>
        <time>2019-06-19T12:08:21Z</time>
      </trkpt>
      <trkpt lat="43.456918" lon="-6.381876">
        <ele>162.022</ele>
        <time>2019-06-19T12:08:22Z</time>
      </trkpt>
      <trkpt lat="43.456959" lon="-6.381989">
        <ele>162.988</ele>
        <time>2019-06-19T12:08:23Z</time>
      </trkpt>
      <trkpt lat="43.456990" lon="-6.382118">
        <ele>165.036</ele>
        <time>2019-06-19T12:08:24Z</time>
      </trkpt>
      <trkpt lat="43.457019" lon="-6.382267">
        <ele>167.536</ele>
        <time>2019-06-19T12:08:25Z</time>
      </trkpt>
      <trkpt lat="43.457020" lon="-6.382448">
        <ele>169.518</ele>
        <time>2019-06-19T12:08:26Z</time>
      </trkpt>
      <trkpt lat="43.457011" lon="-6.382602">
        <ele>170.798</ele>
        <time>2019-06-19T12:08:27Z</time>
      </trkpt>
      <trkpt lat="43.456983" lon="-6.382823">
        <ele>171.317</ele>
        <time>2019-06-19T12:08:28Z</time>
      </trkpt>
      <trkpt lat="43.456961" lon="-6.383014">
        <ele>170.908</ele>
        <time>2019-06-19T12:08:29Z</time>
      </trkpt>
      <trkpt lat="43.456944" lon="-6.383202">
        <ele>171.664</ele>
        <time>2019-06-19T12:08:30Z</time>
      </trkpt>
      <trkpt lat="43.456947" lon="-6.383393">
        <ele>173.888</ele>
        <time>2019-06-19T12:08:31Z</time>
      </trkpt>
      <trkpt lat="43.456911" lon="-6.383592">
        <ele>174.229</ele>
        <time>2019-06-19T12:08:32Z</time>
      </trkpt>
      <trkpt lat="43.456838" lon="-6.383786">
        <ele>172.192</ele>
        <time>2019-06-19T12:08:33Z</time>
      </trkpt>
      <trkpt lat="43.456796" lon="-6.383992">
        <ele>172.442</ele>
        <time>2019-06-19T12:08:34Z</time>
      </trkpt>
      <trkpt lat="43.456738" lon="-6.384161">
        <ele>172.098</ele>
        <time>2019-06-19T12:08:35Z</time>
      </trkpt>
      <trkpt lat="43.456670" lon="-6.384293">
        <ele>170.526</ele>
        <time>2019-06-19T12:08:36Z</time>
      </trkpt>
      <trkpt lat="43.456645" lon="-6.384513">
        <ele>171.896</ele>
        <time>2019-06-19T12:08:37Z</time>
      </trkpt>
      <trkpt lat="43.456593" lon="-6.384667">
        <ele>171.341</ele>
        <time>2019-06-19T12:08:38Z</time>
      </trkpt>
      <trkpt lat="43.456593" lon="-6.384781">
        <ele>171.281</ele>
        <time>2019-06-19T12:08:39Z</time>
      </trkpt>
      <trkpt lat="43.456557" lon="-6.384924">
        <ele>169.309</ele>
        <time>2019-06-19T12:08:40Z</time>
      </trkpt>
      <trkpt lat="43.456541" lon="-6.385046">
        <ele>168.108</ele>
        <time>2019-06-19T12:08:41Z</time>
      </trkpt>
      <trkpt lat="43.456504" lon="-6.385166">
        <ele>166.527</ele>
        <time>2019-06-19T12:08:42Z</time>
      </trkpt>
      <trkpt lat="43.456493" lon="-6.385331">
        <ele>165.381</ele>
        <time>2019-06-19T12:08:43Z</time>
      </trkpt>
      <trkpt lat="43.456517" lon="-6.385420">
        <ele>165.032</ele>
        <time>2019-06-19T12:08:44Z</time>
      </trkpt>
      <trkpt lat="43.456568" lon="-6.385488">
        <ele>165.185</ele>
        <time>2019-06-19T12:08:45Z</time>
      </trkpt>
      <trkpt lat="43.456625" lon="-6.385558">
        <ele>164.775</ele>
        <time>2019-06-19T12:08:46Z</time>
      </trkpt>
      <trkpt lat="43.456687" lon="-6.385581">
        <ele>164.411</ele>
        <time>2019-06-19T12:08:47Z</time>
      </trkpt>
      <trkpt lat="43.456810" lon="-6.385487">
        <ele>166.149</ele>
        <time>2019-06-19T12:08:48Z</time>
      </trkpt>
      <trkpt lat="43.456924" lon="-6.385447">
        <ele>167.149</ele>
        <time>2019-06-19T12:08:49Z</time>
      </trkpt>
      <trkpt lat="43.457029" lon="-6.385391">
        <ele>169.262</ele>
        <time>2019-06-19T12:08:50Z</time>
      </trkpt>
      <trkpt lat="43.457118" lon="-6.385304">
        <ele>172.483</ele>
        <time>2019-06-19T12:08:51Z</time>
      </trkpt>
      <trkpt lat="43.457201" lon="-6.385149">
        <ele>178.011</ele>
        <time>2019-06-19T12:08:52Z</time>
      </trkpt>
      <trkpt lat="43.457359" lon="-6.385070">
        <ele>181.508</ele>
        <time>2019-06-19T12:08:53Z</time>
      </trkpt>
      <trkpt lat="43.457469" lon="-6.384971">
        <ele>186.939</ele>
        <time>2019-06-19T12:08:54Z</time>
      </trkpt>
      <trkpt lat="43.457582" lon="-6.384887">
        <ele>188.133</ele>
        <time>2019-06-19T12:08:55Z</time>
      </trkpt>
      <trkpt lat="43.457690" lon="-6.384800">
        <ele>189.154</ele>
        <time>2019-06-19T12:08:56Z</time>
      </trkpt>
      <trkpt lat="43.457836" lon="-6.384791">
        <ele>186.227</ele>
        <time>2019-06-19T12:08:57Z</time>
      </trkpt>
      <trkpt lat="43.457954" lon="-6.384772">
        <ele>185.687</ele>
        <time>2019-06-19T12:08:58Z</time>
      </trkpt>
      <trkpt lat="43.458121" lon="-6.384736">
        <ele>186.973</ele>
        <time>2019-06-19T12:08:59Z</time>
      </trkpt>
      <trkpt lat="43.458231" lon="-6.384757">
        <ele>186.841</ele>
        <time>2019-06-19T12:09:00Z</time>
      </trkpt>
      <trkpt lat="43.458386" lon="-6.384861">
        <ele>183.131</ele>
        <time>2019-06-19T12:09:01Z</time>
      </trkpt>
      <trkpt lat="43.458559" lon="-6.384922">
        <ele>184.964</ele>
        <time>2019-06-19T12:09:02Z</time>
      </trkpt>
      <trkpt lat="43.458673" lon="-6.384988">
        <ele>184.006</ele>
        <time>2019-06-19T12:09:03Z</time>
      </trkpt>
      <trkpt lat="43.458802" lon="-6.385082">
        <ele>181.516</ele>
        <time>2019-06-19T12:09:04Z</time>
      </trkpt>
      <trkpt lat="43.458908" lon="-6.385209">
        <ele>176.108</ele>
        <time>2019-06-19T12:09:05Z</time>
      </trkpt>
      <trkpt lat="43.459028" lon="-6.385285">
        <ele>172.249</ele>
        <time>2019-06-19T12:09:06Z</time>
      </trkpt>
      <trkpt lat="43.459128" lon="-6.385360">
        <ele>169.543</ele>
        <time>2019-06-19T12:09:07Z</time>
      </trkpt>
      <trkpt lat="43.459229" lon="-6.385413">
        <ele>168.034</ele>
        <time>2019-06-19T12:09:08Z</time>
      </trkpt>
      <trkpt lat="43.459337" lon="-6.385462">
        <ele>166.387</ele>
        <time>2019-06-19T12:09:09Z</time>
      </trkpt>
      <trkpt lat="43.459442" lon="-6.385450">
        <ele>167.357</ele>
        <time>2019-06-19T12:09:10Z</time>
      </trkpt>
      <trkpt lat="43.459543" lon="-6.385468">
        <ele>171.093</ele>
        <time>2019-06-19T12:09:11Z</time>
      </trkpt>
      <trkpt lat="43.459638" lon="-6.385526">
        <ele>173.041</ele>
        <time>2019-06-19T12:09:12Z</time>
      </trkpt>
      <trkpt lat="43.459734" lon="-6.385602">
        <ele>175.381</ele>
        <time>2019-06-19T12:09:13Z</time>
      </trkpt>
      <trkpt lat="43.459796" lon="-6.385721">
        <ele>175.261</ele>
        <time>2019-06-19T12:09:14Z</time>
      </trkpt>
      <trkpt lat="43.459870" lon="-6.385862">
        <ele>175.621</ele>
        <time>2019-06-19T12:09:15Z</time>
      </trkpt>
      <trkpt lat="43.459930" lon="-6.386035">
        <ele>176.413</ele>
        <time>2019-06-19T12:09:16Z</time>
      </trkpt>
      <trkpt lat="43.459966" lon="-6.386211">
        <ele>175.808</ele>
        <time>2019-06-19T12:09:17Z</time>
      </trkpt>
      <trkpt lat="43.460017" lon="-6.386375">
        <ele>176.589</ele>
        <time>2019-06-19T12:09:18Z</time>
      </trkpt>
      <trkpt lat="43.460043" lon="-6.386539">
        <ele>179.233</ele>
        <time>2019-06-19T12:09:19Z</time>
      </trkpt>
      <trkpt lat="43.460058" lon="-6.386714">
        <ele>181.234</ele>
        <time>2019-06-19T12:09:20Z</time>
      </trkpt>
      <trkpt lat="43.460057" lon="-6.386896">
        <ele>181.447</ele>
        <time>2019-06-19T12:09:21Z</time>
      </trkpt>
      <trkpt lat="43.460047" lon="-6.387079">
        <ele>182.637</ele>
        <time>2019-06-19T12:09:22Z</time>
      </trkpt>
      <trkpt lat="43.459971" lon="-6.387233">
        <ele>179.013</ele>
        <time>2019-06-19T12:09:23Z</time>
      </trkpt>
      <trkpt lat="43.459921" lon="-6.387400">
        <ele>180.251</ele>
        <time>2019-06-19T12:09:24Z</time>
      </trkpt>
      <trkpt lat="43.459858" lon="-6.387568">
        <ele>182.291</ele>
        <time>2019-06-19T12:09:25Z</time>
      </trkpt>
      <trkpt lat="43.459793" lon="-6.387748">
        <ele>186.289</ele>
        <time>2019-06-19T12:09:26Z</time>
      </trkpt>
      <trkpt lat="43.459711" lon="-6.387893">
        <ele>185.506</ele>
        <time>2019-06-19T12:09:27Z</time>
      </trkpt>
      <trkpt lat="43.459602" lon="-6.387964">
        <ele>182.226</ele>
        <time>2019-06-19T12:09:28Z</time>
      </trkpt>
      <trkpt lat="43.459473" lon="-6.388028">
        <ele>177.608</ele>
        <time>2019-06-19T12:09:29Z</time>
      </trkpt>
      <trkpt lat="43.459367" lon="-6.388063">
        <ele>174.061</ele>
        <time>2019-06-19T12:09:30Z</time>
      </trkpt>
      <trkpt lat="43.459228" lon="-6.388121">
        <ele>169.345</ele>
        <time>2019-06-19T12:09:31Z</time>
      </trkpt>
      <trkpt lat="43.459129" lon="-6.388203">
        <ele>166.466</ele>
        <time>2019-06-19T12:09:32Z</time>
      </trkpt>
      <trkpt lat="43.459058" lon="-6.388294">
        <ele>163.829</ele>
        <time>2019-06-19T12:09:33Z</time>
      </trkpt>
      <trkpt lat="43.459055" lon="-6.388356">
        <ele>163.779</ele>
        <time>2019-06-19T12:09:34Z</time>
      </trkpt>
      <trkpt lat="43.459086" lon="-6.388520">
        <ele>163.415</ele>
        <time>2019-06-19T12:09:35Z</time>
      </trkpt>
      <trkpt lat="43.459177" lon="-6.388676">
        <ele>166.283</ele>
        <time>2019-06-19T12:09:36Z</time>
      </trkpt>
      <trkpt lat="43.459245" lon="-6.388880">
        <ele>166.563</ele>
        <time>2019-06-19T12:09:37Z</time>
      </trkpt>
      <trkpt lat="43.459264" lon="-6.389033">
        <ele>166.668</ele>
        <time>2019-06-19T12:09:38Z</time>
      </trkpt>
      <trkpt lat="43.459293" lon="-6.389202">
        <ele>167.842</ele>
        <time>2019-06-19T12:09:39Z</time>
      </trkpt>
      <trkpt lat="43.459320" lon="-6.389350">
        <ele>169.726</ele>
        <time>2019-06-19T12:09:40Z</time>
      </trkpt>
      <trkpt lat="43.459329" lon="-6.389509">
        <ele>171.108</ele>
        <time>2019-06-19T12:09:41Z</time>
      </trkpt>
      <trkpt lat="43.459334" lon="-6.389675">
        <ele>173.579</ele>
        <time>2019-06-19T12:09:42Z</time>
      </trkpt>
      <trkpt lat="43.459354" lon="-6.389830">
        <ele>176.133</ele>
        <time>2019-06-19T12:09:43Z</time>
      </trkpt>
      <trkpt lat="43.459338" lon="-6.389920">
        <ele>175.284</ele>
        <time>2019-06-19T12:09:44Z</time>
      </trkpt>
      <trkpt lat="43.459245" lon="-6.389985">
        <ele>169.697</ele>
        <time>2019-06-19T12:09:45Z</time>
      </trkpt>
      <trkpt lat="43.459093" lon="-6.390039">
        <ele>162.477</ele>
        <time>2019-06-19T12:09:46Z</time>
      </trkpt>
      <trkpt lat="43.459000" lon="-6.390111">
        <ele>159.733</ele>
        <time>2019-06-19T12:09:47Z</time>
      </trkpt>
      <trkpt lat="43.458920" lon="-6.390179">
        <ele>158.081</ele>
        <time>2019-06-19T12:09:48Z</time>
      </trkpt>
      <trkpt lat="43.458853" lon="-6.390265">
        <ele>157.231</ele>
        <time>2019-06-19T12:09:49Z</time>
      </trkpt>
      <trkpt lat="43.458786" lon="-6.390376">
        <ele>154.357</ele>
        <time>2019-06-19T12:09:50Z</time>
      </trkpt>
      <trkpt lat="43.458762" lon="-6.390444">
        <ele>153.200</ele>
        <time>2019-06-19T12:09:51Z</time>
      </trkpt>
      <trkpt lat="43.458823" lon="-6.390548">
        <ele>155.420</ele>
        <time>2019-06-19T12:09:52Z</time>
      </trkpt>
      <trkpt lat="43.458860" lon="-6.390657">
        <ele>155.108</ele>
        <time>2019-06-19T12:09:53Z</time>
      </trkpt>
      <trkpt lat="43.459035" lon="-6.390727">
        <ele>159.728</ele>
        <time>2019-06-19T12:09:54Z</time>
      </trkpt>
      <trkpt lat="43.459163" lon="-6.390830">
        <ele>161.042</ele>
        <time>2019-06-19T12:09:55Z</time>
      </trkpt>
      <trkpt lat="43.459276" lon="-6.390952">
        <ele>159.283</ele>
        <time>2019-06-19T12:09:56Z</time>
      </trkpt>
      <trkpt lat="43.459392" lon="-6.391053">
        <ele>158.746</ele>
        <time>2019-06-19T12:09:57Z</time>
      </trkpt>
      <trkpt lat="43.459497" lon="-6.391162">
        <ele>157.986</ele>
        <time>2019-06-19T12:09:58Z</time>
      </trkpt>
      <trkpt lat="43.459591" lon="-6.391294">
        <ele>156.462</ele>
        <time>2019-06-19T12:09:59Z</time>
      </trkpt>
      <trkpt lat="43.459693" lon="-6.391404">
        <ele>156.590</ele>
        <time>2019-06-19T12:10:00Z</time>
      </trkpt>
      <trkpt lat="43.459762" lon="-6.391550">
        <ele>157.230</ele>
        <time>2019-06-19T12:10:01Z</time>
      </trkpt>
      <trkpt lat="43.459813" lon="-6.391694">
        <ele>157.171</ele>
        <time>2019-06-19T12:10:02Z</time>
      </trkpt>
      <trkpt lat="43.459888" lon="-6.391857">
        <ele>158.741</ele>
        <time>2019-06-19T12:10:03Z</time>
      </trkpt>
      <trkpt lat="43.459951" lon="-6.392002">
        <ele>160.815</ele>
        <time>2019-06-19T12:10:04Z</time>
      </trkpt>
      <trkpt lat="43.459965" lon="-6.392081">
        <ele>161.508</ele>
        <time>2019-06-19T12:10:05Z</time>
      </trkpt>
      <trkpt lat="43.459973" lon="-6.392242">
        <ele>162.110</ele>
        <time>2019-06-19T12:10:06Z</time>
      </trkpt>
      <trkpt lat="43.459968" lon="-6.392378">
        <ele>163.584</ele>
        <time>2019-06-19T12:10:07Z</time>
      </trkpt>
      <trkpt lat="43.459928" lon="-6.392608">
        <ele>163.595</ele>
        <time>2019-06-19T12:10:08Z</time>
      </trkpt>
      <trkpt lat="43.459853" lon="-6.392674">
        <ele>157.948</ele>
        <time>2019-06-19T12:10:09Z</time>
      </trkpt>
      <trkpt lat="43.459727" lon="-6.392845">
        <ele>150.928</ele>
        <time>2019-06-19T12:10:10Z</time>
      </trkpt>
      <trkpt lat="43.459658" lon="-6.393003">
        <ele>152.544</ele>
        <time>2019-06-19T12:10:11Z</time>
      </trkpt>
      <trkpt lat="43.459581" lon="-6.393142">
        <ele>152.412</ele>
        <time>2019-06-19T12:10:12Z</time>
      </trkpt>
      <trkpt lat="43.459506" lon="-6.393260">
        <ele>151.832</ele>
        <time>2019-06-19T12:10:13Z</time>
      </trkpt>
      <trkpt lat="43.459424" lon="-6.393382">
        <ele>151.288</ele>
        <time>2019-06-19T12:10:14Z</time>
      </trkpt>
      <trkpt lat="43.459364" lon="-6.393476">
        <ele>150.724</ele>
        <time>2019-06-19T12:10:15Z</time>
      </trkpt>
      <trkpt lat="43.459317" lon="-6.393581">
        <ele>150.926</ele>
        <time>2019-06-19T12:10:16Z</time>
      </trkpt>
      <trkpt lat="43.459329" lon="-6.393699">
        <ele>152.508</ele>
        <time>2019-06-19T12:10:17Z</time>
      </trkpt>
      <trkpt lat="43.459399" lon="-6.393814">
        <ele>155.981</ele>
        <time>2019-06-19T12:10:18Z</time>
      </trkpt>
      <trkpt lat="43.459442" lon="-6.393917">
        <ele>157.165</ele>
        <time>2019-06-19T12:10:19Z</time>
      </trkpt>
      <trkpt lat="43.459490" lon="-6.394012">
        <ele>156.766</ele>
        <time>2019-06-19T12:10:20Z</time>
      </trkpt>
      <trkpt lat="43.459579" lon="-6.394138">
        <ele>158.849</ele>
        <time>2019-06-19T12:10:21Z</time>
      </trkpt>
      <trkpt lat="43.459641" lon="-6.394260">
        <ele>158.299</ele>
        <time>2019-06-19T12:10:22Z</time>
      </trkpt>
      <trkpt lat="43.459693" lon="-6.394407">
        <ele>155.645</ele>
        <time>2019-06-19T12:10:23Z</time>
      </trkpt>
      <trkpt lat="43.459766" lon="-6.394558">
        <ele>154.683</ele>
        <time>2019-06-19T12:10:24Z</time>
      </trkpt>
      <trkpt lat="43.459800" lon="-6.394737">
        <ele>150.443</ele>
        <time>2019-06-19T12:10:25Z</time>
      </trkpt>
      <trkpt lat="43.459859" lon="-6.394904">
        <ele>149.878</ele>
        <time>2019-06-19T12:10:26Z</time>
      </trkpt>
      <trkpt lat="43.459912" lon="-6.395081">
        <ele>148.133</ele>
        <time>2019-06-19T12:10:27Z</time>
      </trkpt>
      <trkpt lat="43.459972" lon="-6.395247">
        <ele>147.226</ele>
        <time>2019-06-19T12:10:28Z</time>
      </trkpt>
      <trkpt lat="43.460048" lon="-6.395384">
        <ele>147.808</ele>
        <time>2019-06-19T12:10:29Z</time>
      </trkpt>
      <trkpt lat="43.460130" lon="-6.395523">
        <ele>148.060</ele>
        <time>2019-06-19T12:10:30Z</time>
      </trkpt>
      <trkpt lat="43.460205" lon="-6.395642">
        <ele>148.084</ele>
        <time>2019-06-19T12:10:31Z</time>
      </trkpt>
      <trkpt lat="43.460290" lon="-6.395760">
        <ele>147.855</ele>
        <time>2019-06-19T12:10:32Z</time>
      </trkpt>
      <trkpt lat="43.460366" lon="-6.395856">
        <ele>147.298</ele>
        <time>2019-06-19T12:10:33Z</time>
      </trkpt>
      <trkpt lat="43.460467" lon="-6.395926">
        <ele>148.018</ele>
        <time>2019-06-19T12:10:34Z</time>
      </trkpt>
      <trkpt lat="43.460594" lon="-6.395976">
        <ele>149.244</ele>
        <time>2019-06-19T12:10:35Z</time>
      </trkpt>
      <trkpt lat="43.460687" lon="-6.396016">
        <ele>148.832</ele>
        <time>2019-06-19T12:10:36Z</time>
      </trkpt>
      <trkpt lat="43.460813" lon="-6.396040">
        <ele>149.622</ele>
        <time>2019-06-19T12:10:37Z</time>
      </trkpt>
      <trkpt lat="43.460925" lon="-6.396088">
        <ele>149.675</ele>
        <time>2019-06-19T12:10:38Z</time>
      </trkpt>
      <trkpt lat="43.461001" lon="-6.396138">
        <ele>149.228</ele>
        <time>2019-06-19T12:10:39Z</time>
      </trkpt>
      <trkpt lat="43.461089" lon="-6.396181">
        <ele>149.020</ele>
        <time>2019-06-19T12:10:40Z</time>
      </trkpt>
      <trkpt lat="43.461192" lon="-6.396233">
        <ele>148.408</ele>
        <time>2019-06-19T12:10:41Z</time>
      </trkpt>
      <trkpt lat="43.461297" lon="-6.396316">
        <ele>146.440</ele>
        <time>2019-06-19T12:10:42Z</time>
      </trkpt>
      <trkpt lat="43.461361" lon="-6.396421">
        <ele>143.624</ele>
        <time>2019-06-19T12:10:43Z</time>
      </trkpt>
      <trkpt lat="43.461404" lon="-6.396555">
        <ele>142.935</ele>
        <time>2019-06-19T12:10:44Z</time>
      </trkpt>
      <trkpt lat="43.461420" lon="-6.396702">
        <ele>143.268</ele>
        <time>2019-06-19T12:10:45Z</time>
      </trkpt>
      <trkpt lat="43.461385" lon="-6.396855">
        <ele>144.368</ele>
        <time>2019-06-19T12:10:46Z</time>
      </trkpt>
      <trkpt lat="43.461358" lon="-6.396984">
        <ele>145.954</ele>
        <time>2019-06-19T12:10:47Z</time>
      </trkpt>
      <trkpt lat="43.461331" lon="-6.397091">
        <ele>146.872</ele>
        <time>2019-06-19T12:10:48Z</time>
      </trkpt>
      <trkpt lat="43.461304" lon="-6.397175">
        <ele>147.252</ele>
        <time>2019-06-19T12:10:49Z</time>
      </trkpt>
      <trkpt lat="43.461293" lon="-6.397269">
        <ele>148.023</ele>
        <time>2019-06-19T12:10:50Z</time>
      </trkpt>
      <trkpt lat="43.461282" lon="-6.397351">
        <ele>148.583</ele>
        <time>2019-06-19T12:10:51Z</time>
      </trkpt>
      <trkpt lat="43.461275" lon="-6.397465">
        <ele>149.411</ele>
        <time>2019-06-19T12:10:52Z</time>
      </trkpt>
      <trkpt lat="43.461259" lon="-6.397550">
        <ele>149.608</ele>
        <time>2019-06-19T12:10:53Z</time>
      </trkpt>
      <trkpt lat="43.461230" lon="-6.397657">
        <ele>149.575</ele>
        <time>2019-06-19T12:10:54Z</time>
      </trkpt>
      <trkpt lat="43.461201" lon="-6.397776">
        <ele>149.219</ele>
        <time>2019-06-19T12:10:55Z</time>
      </trkpt>
      <trkpt lat="43.461167" lon="-6.397936">
        <ele>149.580</ele>
        <time>2019-06-19T12:10:56Z</time>
      </trkpt>
      <trkpt lat="43.461109" lon="-6.398059">
        <ele>149.093</ele>
        <time>2019-06-19T12:10:57Z</time>
      </trkpt>
      <trkpt lat="43.461030" lon="-6.398196">
        <ele>149.853</ele>
        <time>2019-06-19T12:10:58Z</time>
      </trkpt>
      <trkpt lat="43.460932" lon="-6.398288">
        <ele>149.079</ele>
        <time>2019-06-19T12:10:59Z</time>
      </trkpt>
      <trkpt lat="43.460839" lon="-6.398404">
        <ele>149.547</ele>
        <time>2019-06-19T12:11:00Z</time>
      </trkpt>
      <trkpt lat="43.460701" lon="-6.398515">
        <ele>146.667</ele>
        <time>2019-06-19T12:11:01Z</time>
      </trkpt>
      <trkpt lat="43.460581" lon="-6.398619">
        <ele>142.684</ele>
        <time>2019-06-19T12:11:02Z</time>
      </trkpt>
      <trkpt lat="43.460431" lon="-6.398630">
        <ele>137.507</ele>
        <time>2019-06-19T12:11:03Z</time>
      </trkpt>
      <trkpt lat="43.460299" lon="-6.398690">
        <ele>134.217</ele>
        <time>2019-06-19T12:11:04Z</time>
      </trkpt>
      <trkpt lat="43.460178" lon="-6.398752">
        <ele>131.708</ele>
        <time>2019-06-19T12:11:05Z</time>
      </trkpt>
      <trkpt lat="43.460084" lon="-6.398823">
        <ele>130.221</ele>
        <time>2019-06-19T12:11:06Z</time>
      </trkpt>
      <trkpt lat="43.460005" lon="-6.398928">
        <ele>129.615</ele>
        <time>2019-06-19T12:11:07Z</time>
      </trkpt>
      <trkpt lat="43.459943" lon="-6.399063">
        <ele>128.826</ele>
        <time>2019-06-19T12:11:08Z</time>
      </trkpt>
      <trkpt lat="43.459866" lon="-6.399187">
        <ele>126.979</ele>
        <time>2019-06-19T12:11:09Z</time>
      </trkpt>
      <trkpt lat="43.459789" lon="-6.399293">
        <ele>124.429</ele>
        <time>2019-06-19T12:11:10Z</time>
      </trkpt>
      <trkpt lat="43.459752" lon="-6.399464">
        <ele>123.385</ele>
        <time>2019-06-19T12:11:11Z</time>
      </trkpt>
      <trkpt lat="43.459785" lon="-6.399629">
        <ele>123.573</ele>
        <time>2019-06-19T12:11:12Z</time>
      </trkpt>
      <trkpt lat="43.459802" lon="-6.399764">
        <ele>122.233</ele>
        <time>2019-06-19T12:11:13Z</time>
      </trkpt>
      <trkpt lat="43.459830" lon="-6.399912">
        <ele>118.524</ele>
        <time>2019-06-19T12:11:14Z</time>
      </trkpt>
      <trkpt lat="43.459937" lon="-6.399962">
        <ele>119.904</ele>
        <time>2019-06-19T12:11:15Z</time>
      </trkpt>
      <trkpt lat="43.459996" lon="-6.400056">
        <ele>117.114</ele>
        <time>2019-06-19T12:11:16Z</time>
      </trkpt>
      <trkpt lat="43.460122" lon="-6.400144">
        <ele>116.708</ele>
        <time>2019-06-19T12:11:17Z</time>
      </trkpt>
      <trkpt lat="43.460261" lon="-6.400227">
        <ele>115.865</ele>
        <time>2019-06-19T12:11:18Z</time>
      </trkpt>
      <trkpt lat="43.460384" lon="-6.400306">
        <ele>114.849</ele>
        <time>2019-06-19T12:11:19Z</time>
      </trkpt>
      <trkpt lat="43.460542" lon="-6.400387">
        <ele>116.960</ele>
        <time>2019-06-19T12:11:20Z</time>
      </trkpt>
      <trkpt lat="43.460691" lon="-6.400477">
        <ele>122.363</ele>
        <time>2019-06-19T12:11:21Z</time>
      </trkpt>
      <trkpt lat="43.460854" lon="-6.400554">
        <ele>125.253</ele>
        <time>2019-06-19T12:11:22Z</time>
      </trkpt>
      <trkpt lat="43.460992" lon="-6.400668">
        <ele>125.189</ele>
        <time>2019-06-19T12:11:23Z</time>
      </trkpt>
      <trkpt lat="43.461149" lon="-6.400771">
        <ele>124.737</ele>
        <time>2019-06-19T12:11:24Z</time>
      </trkpt>
      <trkpt lat="43.461295" lon="-6.400885">
        <ele>125.257</ele>
        <time>2019-06-19T12:11:25Z</time>
      </trkpt>
      <trkpt lat="43.461455" lon="-6.400996">
        <ele>128.996</ele>
        <time>2019-06-19T12:11:26Z</time>
      </trkpt>
      <trkpt lat="43.461605" lon="-6.401121">
        <ele>132.231</ele>
        <time>2019-06-19T12:11:27Z</time>
      </trkpt>
      <trkpt lat="43.461761" lon="-6.401248">
        <ele>135.624</ele>
        <time>2019-06-19T12:11:28Z</time>
      </trkpt>
      <trkpt lat="43.461929" lon="-6.401328">
        <ele>143.608</ele>
        <time>2019-06-19T12:11:29Z</time>
      </trkpt>
      <trkpt lat="43.462028" lon="-6.401467">
        <ele>140.182</ele>
        <time>2019-06-19T12:11:30Z</time>
      </trkpt>
      <trkpt lat="43.462165" lon="-6.401582">
        <ele>144.826</ele>
        <time>2019-06-19T12:11:31Z</time>
      </trkpt>
      <trkpt lat="43.462214" lon="-6.401768">
        <ele>138.637</ele>
        <time>2019-06-19T12:11:32Z</time>
      </trkpt>
      <trkpt lat="43.462297" lon="-6.401931">
        <ele>137.230</ele>
        <time>2019-06-19T12:11:33Z</time>
      </trkpt>
      <trkpt lat="43.462412" lon="-6.402030">
        <ele>144.470</ele>
        <time>2019-06-19T12:11:34Z</time>
      </trkpt>
      <trkpt lat="43.462475" lon="-6.402173">
        <ele>143.236</ele>
        <time>2019-06-19T12:11:35Z</time>
      </trkpt>
      <trkpt lat="43.462538" lon="-6.402313">
        <ele>141.284</ele>
        <time>2019-06-19T12:11:36Z</time>
      </trkpt>
      <trkpt lat="43.462584" lon="-6.402426">
        <ele>139.564</ele>
        <time>2019-06-19T12:11:37Z</time>
      </trkpt>
      <trkpt lat="43.462570" lon="-6.402651">
        <ele>131.451</ele>
        <time>2019-06-19T12:11:38Z</time>
      </trkpt>
      <trkpt lat="43.462563" lon="-6.402831">
        <ele>127.201</ele>
        <time>2019-06-19T12:11:39Z</time>
      </trkpt>
      <trkpt lat="43.462552" lon="-6.402984">
        <ele>125.011</ele>
        <time>2019-06-19T12:11:40Z</time>
      </trkpt>
      <trkpt lat="43.462514" lon="-6.403123">
        <ele>121.908</ele>
        <time>2019-06-19T12:11:41Z</time>
      </trkpt>
      <trkpt lat="43.462470" lon="-6.403248">
        <ele>119.778</ele>
        <time>2019-06-19T12:11:42Z</time>
      </trkpt>
      <trkpt lat="43.462437" lon="-6.403344">
        <ele>118.292</ele>
        <time>2019-06-19T12:11:43Z</time>
      </trkpt>
      <trkpt lat="43.462398" lon="-6.403433">
        <ele>116.163</ele>
        <time>2019-06-19T12:11:44Z</time>
      </trkpt>
      <trkpt lat="43.462387" lon="-6.403555">
        <ele>115.236</ele>
        <time>2019-06-19T12:11:45Z</time>
      </trkpt>
      <trkpt lat="43.462402" lon="-6.403641">
        <ele>115.166</ele>
        <time>2019-06-19T12:11:46Z</time>
      </trkpt>
      <trkpt lat="43.462404" lon="-6.403750">
        <ele>113.912</ele>
        <time>2019-06-19T12:11:47Z</time>
      </trkpt>
      <trkpt lat="43.462506" lon="-6.403860">
        <ele>115.740</ele>
        <time>2019-06-19T12:11:48Z</time>
      </trkpt>
      <trkpt lat="43.462625" lon="-6.403935">
        <ele>119.470</ele>
        <time>2019-06-19T12:11:49Z</time>
      </trkpt>
      <trkpt lat="43.462763" lon="-6.403993">
        <ele>123.866</ele>
        <time>2019-06-19T12:11:50Z</time>
      </trkpt>
      <trkpt lat="43.462861" lon="-6.404110">
        <ele>125.029</ele>
        <time>2019-06-19T12:11:51Z</time>
      </trkpt>
      <trkpt lat="43.462961" lon="-6.404231">
        <ele>126.821</ele>
        <time>2019-06-19T12:11:52Z</time>
      </trkpt>
      <trkpt lat="43.463000" lon="-6.404417">
        <ele>125.108</ele>
        <time>2019-06-19T12:11:53Z</time>
      </trkpt>
      <trkpt lat="43.463042" lon="-6.404573">
        <ele>125.019</ele>
        <time>2019-06-19T12:11:54Z</time>
      </trkpt>
      <trkpt lat="43.463090" lon="-6.404709">
        <ele>126.223</ele>
        <time>2019-06-19T12:11:55Z</time>
      </trkpt>
      <trkpt lat="43.463104" lon="-6.404861">
        <ele>125.794</ele>
        <time>2019-06-19T12:11:56Z</time>
      </trkpt>
      <trkpt lat="43.463104" lon="-6.405042">
        <ele>125.427</ele>
        <time>2019-06-19T12:11:57Z</time>
      </trkpt>
      <trkpt lat="43.463062" lon="-6.405224">
        <ele>126.397</ele>
        <time>2019-06-19T12:11:58Z</time>
      </trkpt>
      <trkpt lat="43.463027" lon="-6.405370">
        <ele>132.733</ele>
        <time>2019-06-19T12:11:59Z</time>
      </trkpt>
      <trkpt lat="43.462949" lon="-6.405408">
        <ele>130.961</ele>
        <time>2019-06-19T12:12:00Z</time>
      </trkpt>
      <trkpt lat="43.462811" lon="-6.405577">
        <ele>130.831</ele>
        <time>2019-06-19T12:12:01Z</time>
      </trkpt>
      <trkpt lat="43.462703" lon="-6.405756">
        <ele>131.848</ele>
        <time>2019-06-19T12:12:02Z</time>
      </trkpt>
      <trkpt lat="43.462628" lon="-6.405885">
        <ele>132.061</ele>
        <time>2019-06-19T12:12:03Z</time>
      </trkpt>
      <trkpt lat="43.462525" lon="-6.406031">
        <ele>133.317</ele>
        <time>2019-06-19T12:12:04Z</time>
      </trkpt>
      <trkpt lat="43.462428" lon="-6.406158">
        <ele>137.408</ele>
        <time>2019-06-19T12:12:05Z</time>
      </trkpt>
      <trkpt lat="43.462322" lon="-6.406286">
        <ele>139.927</ele>
        <time>2019-06-19T12:12:06Z</time>
      </trkpt>
      <trkpt lat="43.462195" lon="-6.406395">
        <ele>138.941</ele>
        <time>2019-06-19T12:12:07Z</time>
      </trkpt>
      <trkpt lat="43.462040" lon="-6.406487">
        <ele>134.592</ele>
        <time>2019-06-19T12:12:08Z</time>
      </trkpt>
      <trkpt lat="43.461900" lon="-6.406576">
        <ele>130.245</ele>
        <time>2019-06-19T12:12:09Z</time>
      </trkpt>
      <trkpt lat="43.461770" lon="-6.406657">
        <ele>125.695</ele>
        <time>2019-06-19T12:12:10Z</time>
      </trkpt>
      <trkpt lat="43.461636" lon="-6.406744">
        <ele>122.591</ele>
        <time>2019-06-19T12:12:11Z</time>
      </trkpt>
      <trkpt lat="43.461523" lon="-6.406836">
        <ele>122.149</ele>
        <time>2019-06-19T12:12:12Z</time>
      </trkpt>
      <trkpt lat="43.461408" lon="-6.406932">
        <ele>121.369</ele>
        <time>2019-06-19T12:12:13Z</time>
      </trkpt>
      <trkpt lat="43.461285" lon="-6.407048">
        <ele>119.866</ele>
        <time>2019-06-19T12:12:14Z</time>
      </trkpt>
      <trkpt lat="43.461189" lon="-6.407197">
        <ele>117.229</ele>
        <time>2019-06-19T12:12:15Z</time>
      </trkpt>
      <trkpt lat="43.461093" lon="-6.407354">
        <ele>117.021</ele>
        <time>2019-06-19T12:12:16Z</time>
      </trkpt>
      <trkpt lat="43.460971" lon="-6.407506">
        <ele>118.108</ele>
        <time>2019-06-19T12:12:17Z</time>
      </trkpt>
      <trkpt lat="43.460897" lon="-6.407730">
        <ele>121.529</ele>
        <time>2019-06-19T12:12:18Z</time>
      </trkpt>
      <trkpt lat="43.460830" lon="-6.407935">
        <ele>122.153</ele>
        <time>2019-06-19T12:12:19Z</time>
      </trkpt>
      <trkpt lat="43.460750" lon="-6.408118">
        <ele>120.634</ele>
        <time>2019-06-19T12:12:20Z</time>
      </trkpt>
      <trkpt lat="43.460670" lon="-6.408301">
        <ele>118.457</ele>
        <time>2019-06-19T12:12:21Z</time>
      </trkpt>
      <trkpt lat="43.460591" lon="-6.408485">
        <ele>116.867</ele>
        <time>2019-06-19T12:12:22Z</time>
      </trkpt>
      <trkpt lat="43.460504" lon="-6.408650">
        <ele>115.773</ele>
        <time>2019-06-19T12:12:23Z</time>
      </trkpt>
      <trkpt lat="43.460423" lon="-6.408805">
        <ele>114.611</ele>
        <time>2019-06-19T12:12:24Z</time>
      </trkpt>
      <trkpt lat="43.460348" lon="-6.408941">
        <ele>112.251</ele>
        <time>2019-06-19T12:12:25Z</time>
      </trkpt>
      <trkpt lat="43.460275" lon="-6.409059">
        <ele>109.181</ele>
        <time>2019-06-19T12:12:26Z</time>
      </trkpt>
      <trkpt lat="43.460191" lon="-6.409169">
        <ele>107.261</ele>
        <time>2019-06-19T12:12:27Z</time>
      </trkpt>
      <trkpt lat="43.460120" lon="-6.409284">
        <ele>104.017</ele>
        <time>2019-06-19T12:12:28Z</time>
      </trkpt>
      <trkpt lat="43.460108" lon="-6.409417">
        <ele>102.508</ele>
        <time>2019-06-19T12:12:29Z</time>
      </trkpt>
      <trkpt lat="43.460094" lon="-6.409541">
        <ele>100.961</ele>
        <time>2019-06-19T12:12:30Z</time>
      </trkpt>
      <trkpt lat="43.460085" lon="-6.409664">
        <ele>99.565</ele>
        <time>2019-06-19T12:12:31Z</time>
      </trkpt>
      <trkpt lat="43.460097" lon="-6.409802">
        <ele>98.656</ele>
        <time>2019-06-19T12:12:32Z</time>
      </trkpt>
      <trkpt lat="43.460131" lon="-6.409930">
        <ele>98.229</ele>
        <time>2019-06-19T12:12:33Z</time>
      </trkpt>
      <trkpt lat="43.460190" lon="-6.410055">
        <ele>98.399</ele>
        <time>2019-06-19T12:12:34Z</time>
      </trkpt>
      <trkpt lat="43.460279" lon="-6.410193">
        <ele>97.935</ele>
        <time>2019-06-19T12:12:35Z</time>
      </trkpt>
      <trkpt lat="43.460475" lon="-6.410342">
        <ele>100.233</ele>
        <time>2019-06-19T12:12:36Z</time>
      </trkpt>
      <trkpt lat="43.460631" lon="-6.410468">
        <ele>101.263</ele>
        <time>2019-06-19T12:12:37Z</time>
      </trkpt>
      <trkpt lat="43.460793" lon="-6.410546">
        <ele>104.151</ele>
        <time>2019-06-19T12:12:38Z</time>
      </trkpt>
      <trkpt lat="43.460945" lon="-6.410625">
        <ele>107.901</ele>
        <time>2019-06-19T12:12:39Z</time>
      </trkpt>
      <trkpt lat="43.461081" lon="-6.410725">
        <ele>109.911</ele>
        <time>2019-06-19T12:12:40Z</time>
      </trkpt>
      <trkpt lat="43.461210" lon="-6.410811">
        <ele>112.408</ele>
        <time>2019-06-19T12:12:41Z</time>
      </trkpt>
      <trkpt lat="43.461323" lon="-6.410925">
        <ele>114.528</ele>
        <time>2019-06-19T12:12:42Z</time>
      </trkpt>
      <trkpt lat="43.461438" lon="-6.411018">
        <ele>117.882</ele>
        <time>2019-06-19T12:12:43Z</time>
      </trkpt>
      <trkpt lat="43.461517" lon="-6.411146">
        <ele>120.143</ele>
        <time>2019-06-19T12:12:44Z</time>
      </trkpt>
      <trkpt lat="43.461608" lon="-6.411256">
        <ele>124.036</ele>
        <time>2019-06-19T12:12:45Z</time>
      </trkpt>
      <trkpt lat="43.461705" lon="-6.411358">
        <ele>127.756</ele>
        <time>2019-06-19T12:12:46Z</time>
      </trkpt>
      <trkpt lat="43.461723" lon="-6.411563">
        <ele>125.542</ele>
        <time>2019-06-19T12:12:47Z</time>
      </trkpt>
      <trkpt lat="43.461734" lon="-6.411790">
        <ele>123.790</ele>
        <time>2019-06-19T12:12:48Z</time>
      </trkpt>
      <trkpt lat="43.461722" lon="-6.412032">
        <ele>122.590</ele>
        <time>2019-06-19T12:12:49Z</time>
      </trkpt>
      <trkpt lat="43.461592" lon="-6.412183">
        <ele>115.145</ele>
        <time>2019-06-19T12:12:50Z</time>
      </trkpt>
      <trkpt lat="43.461553" lon="-6.412352">
        <ele>114.047</ele>
        <time>2019-06-19T12:12:51Z</time>
      </trkpt>
      <trkpt lat="43.461493" lon="-6.412517">
        <ele>111.611</ele>
        <time>2019-06-19T12:12:52Z</time>
      </trkpt>
      <trkpt lat="43.461416" lon="-6.412722">
        <ele>109.108</ele>
        <time>2019-06-19T12:12:53Z</time>
      </trkpt>
      <trkpt lat="43.461280" lon="-6.412891">
        <ele>105.827</ele>
        <time>2019-06-19T12:12:54Z</time>
      </trkpt>
      <trkpt lat="43.461171" lon="-6.413044">
        <ele>103.681</ele>
        <time>2019-06-19T12:12:55Z</time>
      </trkpt>
      <trkpt lat="43.461088" lon="-6.413191">
        <ele>102.852</ele>
        <time>2019-06-19T12:12:56Z</time>
      </trkpt>
      <trkpt lat="43.460983" lon="-6.413321">
        <ele>102.125</ele>
        <time>2019-06-19T12:12:57Z</time>
      </trkpt>
      <trkpt lat="43.460870" lon="-6.413438">
        <ele>99.835</ele>
        <time>2019-06-19T12:12:58Z</time>
      </trkpt>
      <trkpt lat="43.460817" lon="-6.413515">
        <ele>98.891</ele>
        <time>2019-06-19T12:12:59Z</time>
      </trkpt>
      <trkpt lat="43.460748" lon="-6.413616">
        <ele>97.249</ele>
        <time>2019-06-19T12:13:00Z</time>
      </trkpt>
      <trkpt lat="43.460703" lon="-6.413733">
        <ele>95.359</ele>
        <time>2019-06-19T12:13:01Z</time>
      </trkpt>
      <trkpt lat="43.460673" lon="-6.413862">
        <ele>93.989</ele>
        <time>2019-06-19T12:13:02Z</time>
      </trkpt>
      <trkpt lat="43.460640" lon="-6.413970">
        <ele>91.506</ele>
        <time>2019-06-19T12:13:03Z</time>
      </trkpt>
      <trkpt lat="43.460716" lon="-6.414122">
        <ele>90.726</ele>
        <time>2019-06-19T12:13:04Z</time>
      </trkpt>
      <trkpt lat="43.460771" lon="-6.414239">
        <ele>89.708</ele>
        <time>2019-06-19T12:13:05Z</time>
      </trkpt>
      <trkpt lat="43.460872" lon="-6.414393">
        <ele>89.181</ele>
        <time>2019-06-19T12:13:06Z</time>
      </trkpt>
      <trkpt lat="43.460973" lon="-6.414534">
        <ele>88.495</ele>
        <time>2019-06-19T12:13:07Z</time>
      </trkpt>
      <trkpt lat="43.461162" lon="-6.414684">
        <ele>88.616</ele>
        <time>2019-06-19T12:13:08Z</time>
      </trkpt>
      <trkpt lat="43.461270" lon="-6.414839">
        <ele>91.579</ele>
        <time>2019-06-19T12:13:09Z</time>
      </trkpt>
      <trkpt lat="43.461399" lon="-6.414993">
        <ele>92.639</ele>
        <time>2019-06-19T12:13:10Z</time>
      </trkpt>
      <trkpt lat="43.461501" lon="-6.415148">
        <ele>91.565</ele>
        <time>2019-06-19T12:13:11Z</time>
      </trkpt>
      <trkpt lat="43.461617" lon="-6.415302">
        <ele>90.353</ele>
        <time>2019-06-19T12:13:12Z</time>
      </trkpt>
      <trkpt lat="43.461730" lon="-6.415442">
        <ele>91.273</ele>
        <time>2019-06-19T12:13:13Z</time>
      </trkpt>
      <trkpt lat="43.461827" lon="-6.415563">
        <ele>92.237</ele>
        <time>2019-06-19T12:13:14Z</time>
      </trkpt>
      <trkpt lat="43.461945" lon="-6.415687">
        <ele>93.249</ele>
        <time>2019-06-19T12:13:15Z</time>
      </trkpt>
      <trkpt lat="43.462072" lon="-6.415784">
        <ele>91.813</ele>
        <time>2019-06-19T12:13:16Z</time>
      </trkpt>
      <trkpt lat="43.462207" lon="-6.415858">
        <ele>90.208</ele>
        <time>2019-06-19T12:13:17Z</time>
      </trkpt>
      <trkpt lat="43.462356" lon="-6.415908">
        <ele>91.626</ele>
        <time>2019-06-19T12:13:18Z</time>
      </trkpt>
      <trkpt lat="43.462477" lon="-6.415980">
        <ele>91.810</ele>
        <time>2019-06-19T12:13:19Z</time>
      </trkpt>
      <trkpt lat="43.462596" lon="-6.416050">
        <ele>94.071</ele>
        <time>2019-06-19T12:13:20Z</time>
      </trkpt>
      <trkpt lat="43.462711" lon="-6.416136">
        <ele>96.674</ele>
        <time>2019-06-19T12:13:21Z</time>
      </trkpt>
      <trkpt lat="43.462818" lon="-6.416235">
        <ele>99.124</ele>
        <time>2019-06-19T12:13:22Z</time>
      </trkpt>
      <trkpt lat="43.462914" lon="-6.416335">
        <ele>101.490</ele>
        <time>2019-06-19T12:13:23Z</time>
      </trkpt>
      <trkpt lat="43.462960" lon="-6.416442">
        <ele>101.298</ele>
        <time>2019-06-19T12:13:24Z</time>
      </trkpt>
      <trkpt lat="43.463016" lon="-6.416578">
        <ele>100.068</ele>
        <time>2019-06-19T12:13:25Z</time>
      </trkpt>
      <trkpt lat="43.463027" lon="-6.416785">
        <ele>95.958</ele>
        <time>2019-06-19T12:13:26Z</time>
      </trkpt>
      <trkpt lat="43.463029" lon="-6.417016">
        <ele>92.652</ele>
        <time>2019-06-19T12:13:27Z</time>
      </trkpt>
      <trkpt lat="43.462989" lon="-6.417267">
        <ele>89.517</ele>
        <time>2019-06-19T12:13:28Z</time>
      </trkpt>
      <trkpt lat="43.463014" lon="-6.417423">
        <ele>90.308</ele>
        <time>2019-06-19T12:13:29Z</time>
      </trkpt>
      <trkpt lat="43.463012" lon="-6.417604">
        <ele>89.478</ele>
        <time>2019-06-19T12:13:30Z</time>
      </trkpt>
      <trkpt lat="43.463054" lon="-6.417768">
        <ele>90.072</ele>
        <time>2019-06-19T12:13:31Z</time>
      </trkpt>
      <trkpt lat="43.463091" lon="-6.418005">
        <ele>89.053</ele>
        <time>2019-06-19T12:13:32Z</time>
      </trkpt>
      <trkpt lat="43.463140" lon="-6.418214">
        <ele>87.926</ele>
        <time>2019-06-19T12:13:33Z</time>
      </trkpt>
      <trkpt lat="43.463178" lon="-6.418440">
        <ele>86.826</ele>
        <time>2019-06-19T12:13:34Z</time>
      </trkpt>
      <trkpt lat="43.463208" lon="-6.418653">
        <ele>87.082</ele>
        <time>2019-06-19T12:13:35Z</time>
      </trkpt>
      <trkpt lat="43.463296" lon="-6.418792">
        <ele>88.530</ele>
        <time>2019-06-19T12:13:36Z</time>
      </trkpt>
      <trkpt lat="43.463368" lon="-6.418955">
        <ele>89.180</ele>
        <time>2019-06-19T12:13:37Z</time>
      </trkpt>
      <trkpt lat="43.463452" lon="-6.419133">
        <ele>88.776</ele>
        <time>2019-06-19T12:13:38Z</time>
      </trkpt>
      <trkpt lat="43.463608" lon="-6.419238">
        <ele>88.590</ele>
        <time>2019-06-19T12:13:39Z</time>
      </trkpt>
      <trkpt lat="43.463700" lon="-6.419373">
        <ele>88.619</ele>
        <time>2019-06-19T12:13:40Z</time>
      </trkpt>
      <trkpt lat="43.463807" lon="-6.419512">
        <ele>88.808</ele>
        <time>2019-06-19T12:13:41Z</time>
      </trkpt>
      <trkpt lat="43.463899" lon="-6.419614">
        <ele>88.930</ele>
        <time>2019-06-19T12:13:42Z</time>
      </trkpt>
      <trkpt lat="43.463997" lon="-6.419735">
        <ele>89.084</ele>
        <time>2019-06-19T12:13:43Z</time>
      </trkpt>
      <trkpt lat="43.464102" lon="-6.419840">
        <ele>89.495</ele>
        <time>2019-06-19T12:13:44Z</time>
      </trkpt>
      <trkpt lat="43.464144" lon="-6.419944">
        <ele>89.128</ele>
        <time>2019-06-19T12:13:45Z</time>
      </trkpt>
      <trkpt lat="43.464142" lon="-6.420134">
        <ele>86.328</ele>
        <time>2019-06-19T12:13:46Z</time>
      </trkpt>
      <trkpt lat="43.464150" lon="-6.420280">
        <ele>83.864</ele>
        <time>2019-06-19T12:13:47Z</time>
      </trkpt>
      <trkpt lat="43.464171" lon="-6.420444">
        <ele>80.532</ele>
        <time>2019-06-19T12:13:48Z</time>
      </trkpt>
      <trkpt lat="43.464263" lon="-6.420557">
        <ele>80.882</ele>
        <time>2019-06-19T12:13:49Z</time>
      </trkpt>
      <trkpt lat="43.464313" lon="-6.420724">
        <ele>80.423</ele>
        <time>2019-06-19T12:13:50Z</time>
      </trkpt>
      <trkpt lat="43.464285" lon="-6.420995">
        <ele>78.283</ele>
        <time>2019-06-19T12:13:51Z</time>
      </trkpt>
      <trkpt lat="43.464293" lon="-6.421196">
        <ele>79.411</ele>
        <time>2019-06-19T12:13:52Z</time>
      </trkpt>
      <trkpt lat="43.464290" lon="-6.421439">
        <ele>82.008</ele>
        <time>2019-06-19T12:13:53Z</time>
      </trkpt>
      <trkpt lat="43.464290" lon="-6.421661">
        <ele>84.885</ele>
        <time>2019-06-19T12:13:54Z</time>
      </trkpt>
      <trkpt lat="43.464263" lon="-6.421845">
        <ele>84.539</ele>
        <time>2019-06-19T12:13:55Z</time>
      </trkpt>
      <trkpt lat="43.464254" lon="-6.421995">
        <ele>83.610</ele>
        <time>2019-06-19T12:13:56Z</time>
      </trkpt>
      <trkpt lat="43.464255" lon="-6.422147">
        <ele>81.173</ele>
        <time>2019-06-19T12:13:57Z</time>
      </trkpt>
      <trkpt lat="43.464239" lon="-6.422335">
        <ele>76.393</ele>
        <time>2019-06-19T12:13:58Z</time>
      </trkpt>
      <trkpt lat="43.464236" lon="-6.422490">
        <ele>72.059</ele>
        <time>2019-06-19T12:13:59Z</time>
      </trkpt>
      <trkpt lat="43.464299" lon="-6.422648">
        <ele>71.817</ele>
        <time>2019-06-19T12:14:00Z</time>
      </trkpt>
      <trkpt lat="43.464412" lon="-6.422800">
        <ele>71.647</ele>
        <time>2019-06-19T12:14:01Z</time>
      </trkpt>
      <trkpt lat="43.464500" lon="-6.422981">
        <ele>71.896</ele>
        <time>2019-06-19T12:14:02Z</time>
      </trkpt>
      <trkpt lat="43.464675" lon="-6.423172">
        <ele>71.131</ele>
        <time>2019-06-19T12:14:03Z</time>
      </trkpt>
      <trkpt lat="43.464774" lon="-6.423353">
        <ele>69.624</ele>
        <time>2019-06-19T12:14:04Z</time>
      </trkpt>
      <trkpt lat="43.464868" lon="-6.423527">
        <ele>69.008</ele>
        <time>2019-06-19T12:14:05Z</time>
      </trkpt>
      <trkpt lat="43.464965" lon="-6.423714">
        <ele>68.432</ele>
        <time>2019-06-19T12:14:06Z</time>
      </trkpt>
      <trkpt lat="43.465065" lon="-6.423882">
        <ele>68.776</ele>
        <time>2019-06-19T12:14:07Z</time>
      </trkpt>
      <trkpt lat="43.465159" lon="-6.424047">
        <ele>69.147</ele>
        <time>2019-06-19T12:14:08Z</time>
      </trkpt>
      <trkpt lat="43.465266" lon="-6.424213">
        <ele>69.050</ele>
        <time>2019-06-19T12:14:09Z</time>
      </trkpt>
      <trkpt lat="43.465389" lon="-6.424374">
        <ele>69.530</ele>
        <time>2019-06-19T12:14:10Z</time>
      </trkpt>
      <trkpt lat="43.465529" lon="-6.424514">
        <ele>69.796</ele>
        <time>2019-06-19T12:14:11Z</time>
      </trkpt>
      <trkpt lat="43.465673" lon="-6.424648">
        <ele>70.274</ele>
        <time>2019-06-19T12:14:12Z</time>
      </trkpt>
      <trkpt lat="43.465796" lon="-6.424780">
        <ele>70.334</ele>
        <time>2019-06-19T12:14:13Z</time>
      </trkpt>
      <trkpt lat="43.465930" lon="-6.424908">
        <ele>70.515</ele>
        <time>2019-06-19T12:14:14Z</time>
      </trkpt>
      <trkpt lat="43.466068" lon="-6.425026">
        <ele>70.565</ele>
        <time>2019-06-19T12:14:15Z</time>
      </trkpt>
      <trkpt lat="43.466206" lon="-6.425113">
        <ele>70.611</ele>
        <time>2019-06-19T12:14:16Z</time>
      </trkpt>
      <trkpt lat="43.466372" lon="-6.425171">
        <ele>70.508</ele>
        <time>2019-06-19T12:14:17Z</time>
      </trkpt>
      <trkpt lat="43.466544" lon="-6.425247">
        <ele>69.534</ele>
        <time>2019-06-19T12:14:18Z</time>
      </trkpt>
      <trkpt lat="43.466737" lon="-6.425331">
        <ele>68.478</ele>
        <time>2019-06-19T12:14:19Z</time>
      </trkpt>
      <trkpt lat="43.466919" lon="-6.425411">
        <ele>67.129</ele>
        <time>2019-06-19T12:14:20Z</time>
      </trkpt>
      <trkpt lat="43.467093" lon="-6.425492">
        <ele>66.552</ele>
        <time>2019-06-19T12:14:21Z</time>
      </trkpt>
      <trkpt lat="43.467262" lon="-6.425573">
        <ele>66.152</ele>
        <time>2019-06-19T12:14:22Z</time>
      </trkpt>
      <trkpt lat="43.467451" lon="-6.425642">
        <ele>66.598</ele>
        <time>2019-06-19T12:14:23Z</time>
      </trkpt>
      <trkpt lat="43.467645" lon="-6.425721">
        <ele>65.626</ele>
        <time>2019-06-19T12:14:24Z</time>
      </trkpt>
      <trkpt lat="43.467819" lon="-6.425812">
        <ele>64.026</ele>
        <time>2019-06-19T12:14:25Z</time>
      </trkpt>
      <trkpt lat="43.467997" lon="-6.425900">
        <ele>63.429</ele>
        <time>2019-06-19T12:14:26Z</time>
      </trkpt>
      <trkpt lat="43.468169" lon="-6.425984">
        <ele>64.500</ele>
        <time>2019-06-19T12:14:27Z</time>
      </trkpt>
      <trkpt lat="43.468337" lon="-6.426062">
        <ele>66.020</ele>
        <time>2019-06-19T12:14:28Z</time>
      </trkpt>
      <trkpt lat="43.468489" lon="-6.426134">
        <ele>67.808</ele>
        <time>2019-06-19T12:14:29Z</time>
      </trkpt>
      <trkpt lat="43.468660" lon="-6.426208">
        <ele>69.125</ele>
        <time>2019-06-19T12:14:30Z</time>
      </trkpt>
      <trkpt lat="43.468811" lon="-6.426285">
        <ele>69.349</ele>
        <time>2019-06-19T12:14:31Z</time>
      </trkpt>
      <trkpt lat="43.468973" lon="-6.426346">
        <ele>69.920</ele>
        <time>2019-06-19T12:14:32Z</time>
      </trkpt>
      <trkpt lat="43.469125" lon="-6.426407">
        <ele>70.653</ele>
        <time>2019-06-19T12:14:33Z</time>
      </trkpt>
      <trkpt lat="43.469268" lon="-6.426469">
        <ele>72.563</ele>
        <time>2019-06-19T12:14:34Z</time>
      </trkpt>
      <trkpt lat="43.469394" lon="-6.426559">
        <ele>73.379</ele>
        <time>2019-06-19T12:14:35Z</time>
      </trkpt>
      <trkpt lat="43.469535" lon="-6.426634">
        <ele>73.677</ele>
        <time>2019-06-19T12:14:36Z</time>
      </trkpt>
      <trkpt lat="43.469693" lon="-6.426681">
        <ele>74.467</ele>
        <time>2019-06-19T12:14:37Z</time>
      </trkpt>
      <trkpt lat="43.469760" lon="-6.426747">
        <ele>73.657</ele>
        <time>2019-06-19T12:14:38Z</time>
      </trkpt>
      <trkpt lat="43.469845" lon="-6.426833">
        <ele>72.500</ele>
        <time>2019-06-19T12:14:39Z</time>
      </trkpt>
      <trkpt lat="43.469838" lon="-6.426969">
        <ele>69.420</ele>
        <time>2019-06-19T12:14:40Z</time>
      </trkpt>
      <trkpt lat="43.469864" lon="-6.427080">
        <ele>67.608</ele>
        <time>2019-06-19T12:14:41Z</time>
      </trkpt>
      <trkpt lat="43.469912" lon="-6.427136">
        <ele>66.798</ele>
        <time>2019-06-19T12:14:42Z</time>
      </trkpt>
      <trkpt lat="43.469962" lon="-6.427210">
        <ele>65.362</ele>
        <time>2019-06-19T12:14:43Z</time>
      </trkpt>
      <trkpt lat="43.470050" lon="-6.427256">
        <ele>65.083</ele>
        <time>2019-06-19T12:14:44Z</time>
      </trkpt>
      <trkpt lat="43.470150" lon="-6.427269">
        <ele>65.376</ele>
        <time>2019-06-19T12:14:45Z</time>
      </trkpt>
      <trkpt lat="43.470312" lon="-6.427192">
        <ele>66.986</ele>
        <time>2019-06-19T12:14:46Z</time>
      </trkpt>
      <trkpt lat="43.470453" lon="-6.427160">
        <ele>68.252</ele>
        <time>2019-06-19T12:14:47Z</time>
      </trkpt>
      <trkpt lat="43.470588" lon="-6.427141">
        <ele>68.850</ele>
        <time>2019-06-19T12:14:48Z</time>
      </trkpt>
      <trkpt lat="43.470711" lon="-6.427122">
        <ele>68.710</ele>
        <time>2019-06-19T12:14:49Z</time>
      </trkpt>
      <trkpt lat="43.470865" lon="-6.427123">
        <ele>68.678</ele>
        <time>2019-06-19T12:14:50Z</time>
      </trkpt>
      <trkpt lat="43.471002" lon="-6.427098">
        <ele>69.933</ele>
        <time>2019-06-19T12:14:51Z</time>
      </trkpt>
      <trkpt lat="43.471126" lon="-6.427098">
        <ele>70.826</ele>
        <time>2019-06-19T12:14:52Z</time>
      </trkpt>
      <trkpt lat="43.471243" lon="-6.427148">
        <ele>70.208</ele>
        <time>2019-06-19T12:14:53Z</time>
      </trkpt>
      <trkpt lat="43.471366" lon="-6.427134">
        <ele>71.150</ele>
        <time>2019-06-19T12:14:54Z</time>
      </trkpt>
      <trkpt lat="43.471462" lon="-6.427208">
        <ele>71.574</ele>
        <time>2019-06-19T12:14:55Z</time>
      </trkpt>
      <trkpt lat="43.471572" lon="-6.427286">
        <ele>73.025</ele>
        <time>2019-06-19T12:14:56Z</time>
      </trkpt>
      <trkpt lat="43.471704" lon="-6.427367">
        <ele>74.988</ele>
        <time>2019-06-19T12:14:57Z</time>
      </trkpt>
      <trkpt lat="43.471794" lon="-6.427560">
        <ele>74.638</ele>
        <time>2019-06-19T12:14:58Z</time>
      </trkpt>
      <trkpt lat="43.471904" lon="-6.427681">
        <ele>77.254</ele>
        <time>2019-06-19T12:14:59Z</time>
      </trkpt>
      <trkpt lat="43.472012" lon="-6.427853">
        <ele>79.762</ele>
        <time>2019-06-19T12:15:00Z</time>
      </trkpt>
      <trkpt lat="43.472096" lon="-6.428047">
        <ele>81.112</ele>
        <time>2019-06-19T12:15:01Z</time>
      </trkpt>
      <trkpt lat="43.472213" lon="-6.428236">
        <ele>83.743</ele>
        <time>2019-06-19T12:15:02Z</time>
      </trkpt>
      <trkpt lat="43.472280" lon="-6.428384">
        <ele>84.864</ele>
        <time>2019-06-19T12:15:03Z</time>
      </trkpt>
      <trkpt lat="43.472355" lon="-6.428560">
        <ele>86.210</ele>
        <time>2019-06-19T12:15:04Z</time>
      </trkpt>
      <trkpt lat="43.472386" lon="-6.428730">
        <ele>86.008</ele>
        <time>2019-06-19T12:15:05Z</time>
      </trkpt>
      <trkpt lat="43.472367" lon="-6.428963">
        <ele>83.757</ele>
        <time>2019-06-19T12:15:06Z</time>
      </trkpt>
      <trkpt lat="43.472344" lon="-6.429258">
        <ele>79.931</ele>
        <time>2019-06-19T12:15:07Z</time>
      </trkpt>
      <trkpt lat="43.472341" lon="-6.429479">
        <ele>78.952</ele>
        <time>2019-06-19T12:15:08Z</time>
      </trkpt>
      <trkpt lat="43.472341" lon="-6.429701">
        <ele>78.565</ele>
        <time>2019-06-19T12:15:09Z</time>
      </trkpt>
      <trkpt lat="43.472339" lon="-6.429906">
        <ele>78.395</ele>
        <time>2019-06-19T12:15:10Z</time>
      </trkpt>
      <trkpt lat="43.472364" lon="-6.430091">
        <ele>79.331</ele>
        <time>2019-06-19T12:15:11Z</time>
      </trkpt>
      <trkpt lat="43.472366" lon="-6.430273">
        <ele>78.789</ele>
        <time>2019-06-19T12:15:12Z</time>
      </trkpt>
      <trkpt lat="43.472395" lon="-6.430416">
        <ele>77.999</ele>
        <time>2019-06-19T12:15:13Z</time>
      </trkpt>
      <trkpt lat="43.472375" lon="-6.430615">
        <ele>74.614</ele>
        <time>2019-06-19T12:15:14Z</time>
      </trkpt>
      <trkpt lat="43.472426" lon="-6.430787">
        <ele>72.654</ele>
        <time>2019-06-19T12:15:15Z</time>
      </trkpt>
      <trkpt lat="43.472480" lon="-6.430960">
        <ele>69.309</ele>
        <time>2019-06-19T12:15:16Z</time>
      </trkpt>
      <trkpt lat="43.472532" lon="-6.431111">
        <ele>66.308</ele>
        <time>2019-06-19T12:15:17Z</time>
      </trkpt>
      <trkpt lat="43.472556" lon="-6.431300">
        <ele>64.314</ele>
        <time>2019-06-19T12:15:18Z</time>
      </trkpt>
      <trkpt lat="43.472625" lon="-6.431399">
        <ele>63.638</ele>
        <time>2019-06-19T12:15:19Z</time>
      </trkpt>
      <trkpt lat="43.472740" lon="-6.431422">
        <ele>64.229</ele>
        <time>2019-06-19T12:15:20Z</time>
      </trkpt>
      <trkpt lat="43.472843" lon="-6.431514">
        <ele>65.422</ele>
        <time>2019-06-19T12:15:21Z</time>
      </trkpt>
      <trkpt lat="43.472988" lon="-6.431556">
        <ele>65.722</ele>
        <time>2019-06-19T12:15:22Z</time>
      </trkpt>
      <trkpt lat="43.473131" lon="-6.431477">
        <ele>65.218</ele>
        <time>2019-06-19T12:15:23Z</time>
      </trkpt>
      <trkpt lat="43.473309" lon="-6.431406">
        <ele>65.746</ele>
        <time>2019-06-19T12:15:24Z</time>
      </trkpt>
      <trkpt lat="43.473469" lon="-6.431377">
        <ele>69.986</ele>
        <time>2019-06-19T12:15:25Z</time>
      </trkpt>
      <trkpt lat="43.473616" lon="-6.431361">
        <ele>74.419</ele>
        <time>2019-06-19T12:15:26Z</time>
      </trkpt>
      <trkpt lat="43.473777" lon="-6.431316">
        <ele>76.409</ele>
        <time>2019-06-19T12:15:27Z</time>
      </trkpt>
      <trkpt lat="43.473926" lon="-6.431298">
        <ele>76.519</ele>
        <time>2019-06-19T12:15:28Z</time>
      </trkpt>
      <trkpt lat="43.474050" lon="-6.431291">
        <ele>75.608</ele>
        <time>2019-06-19T12:15:29Z</time>
      </trkpt>
      <trkpt lat="43.474158" lon="-6.431291">
        <ele>74.494</ele>
        <time>2019-06-19T12:15:30Z</time>
      </trkpt>
      <trkpt lat="43.474292" lon="-6.431277">
        <ele>79.458</ele>
        <time>2019-06-19T12:15:31Z</time>
      </trkpt>
      <trkpt lat="43.474359" lon="-6.431253">
        <ele>83.119</ele>
        <time>2019-06-19T12:15:32Z</time>
      </trkpt>
      <trkpt lat="43.474469" lon="-6.431271">
        <ele>85.832</ele>
        <time>2019-06-19T12:15:33Z</time>
      </trkpt>
      <trkpt lat="43.474582" lon="-6.431303">
        <ele>88.632</ele>
        <time>2019-06-19T12:15:34Z</time>
      </trkpt>
      <trkpt lat="43.474654" lon="-6.431351">
        <ele>89.538</ele>
        <time>2019-06-19T12:15:35Z</time>
      </trkpt>
      <trkpt lat="43.474767" lon="-6.431387">
        <ele>94.996</ele>
        <time>2019-06-19T12:15:36Z</time>
      </trkpt>
      <trkpt lat="43.474852" lon="-6.431437">
        <ele>100.326</ele>
        <time>2019-06-19T12:15:37Z</time>
      </trkpt>
      <trkpt lat="43.474985" lon="-6.431432">
        <ele>111.727</ele>
        <time>2019-06-19T12:15:38Z</time>
      </trkpt>
      <trkpt lat="43.475039" lon="-6.431522">
        <ele>111.268</ele>
        <time>2019-06-19T12:15:39Z</time>
      </trkpt>
      <trkpt lat="43.475035" lon="-6.431631">
        <ele>105.914</ele>
        <time>2019-06-19T12:15:40Z</time>
      </trkpt>
      <trkpt lat="43.474996" lon="-6.431870">
        <ele>90.108</ele>
        <time>2019-06-19T12:15:41Z</time>
      </trkpt>
      <trkpt lat="43.475035" lon="-6.432048">
        <ele>84.335</ele>
        <time>2019-06-19T12:15:42Z</time>
      </trkpt>
      <trkpt lat="43.475068" lon="-6.432230">
        <ele>78.969</ele>
        <time>2019-06-19T12:15:43Z</time>
      </trkpt>
      <trkpt lat="43.475126" lon="-6.432390">
        <ele>77.420</ele>
        <time>2019-06-19T12:15:44Z</time>
      </trkpt>
      <trkpt lat="43.475193" lon="-6.432553">
        <ele>76.123</ele>
        <time>2019-06-19T12:15:45Z</time>
      </trkpt>
      <trkpt lat="43.475233" lon="-6.432742">
        <ele>74.173</ele>
        <time>2019-06-19T12:15:46Z</time>
      </trkpt>
      <trkpt lat="43.475343" lon="-6.432952">
        <ele>73.729</ele>
        <time>2019-06-19T12:15:47Z</time>
      </trkpt>
      <trkpt lat="43.475405" lon="-6.433164">
        <ele>71.567</ele>
        <time>2019-06-19T12:15:48Z</time>
      </trkpt>
      <trkpt lat="43.475496" lon="-6.433342">
        <ele>70.347</ele>
        <time>2019-06-19T12:15:49Z</time>
      </trkpt>
      <trkpt lat="43.475586" lon="-6.433521">
        <ele>69.045</ele>
        <time>2019-06-19T12:15:50Z</time>
      </trkpt>
      <trkpt lat="43.475686" lon="-6.433650">
        <ele>68.947</ele>
        <time>2019-06-19T12:15:51Z</time>
      </trkpt>
      <trkpt lat="43.475763" lon="-6.433818">
        <ele>66.211</ele>
        <time>2019-06-19T12:15:52Z</time>
      </trkpt>
      <trkpt lat="43.475875" lon="-6.433938">
        <ele>65.808</ele>
        <time>2019-06-19T12:15:53Z</time>
      </trkpt>
      <trkpt lat="43.475993" lon="-6.434044">
        <ele>67.167</ele>
        <time>2019-06-19T12:15:54Z</time>
      </trkpt>
      <trkpt lat="43.476129" lon="-6.434139">
        <ele>67.561</ele>
        <time>2019-06-19T12:15:55Z</time>
      </trkpt>
      <trkpt lat="43.476255" lon="-6.434216">
        <ele>70.952</ele>
        <time>2019-06-19T12:15:56Z</time>
      </trkpt>
      <trkpt lat="43.476436" lon="-6.434248">
        <ele>74.655</ele>
        <time>2019-06-19T12:15:57Z</time>
      </trkpt>
      <trkpt lat="43.476524" lon="-6.434320">
        <ele>72.355</ele>
        <time>2019-06-19T12:15:58Z</time>
      </trkpt>
      <trkpt lat="43.476678" lon="-6.434304">
        <ele>72.461</ele>
        <time>2019-06-19T12:15:59Z</time>
      </trkpt>
      <trkpt lat="43.476833" lon="-6.434269">
        <ele>72.339</ele>
        <time>2019-06-19T12:16:00Z</time>
      </trkpt>
      <trkpt lat="43.476968" lon="-6.434248">
        <ele>72.029</ele>
        <time>2019-06-19T12:16:01Z</time>
      </trkpt>
      <trkpt lat="43.477109" lon="-6.434214">
        <ele>72.981</ele>
        <time>2019-06-19T12:16:02Z</time>
      </trkpt>
      <trkpt lat="43.477202" lon="-6.434165">
        <ele>74.161</ele>
        <time>2019-06-19T12:16:03Z</time>
      </trkpt>
      <trkpt lat="43.477328" lon="-6.434108">
        <ele>73.417</ele>
        <time>2019-06-19T12:16:04Z</time>
      </trkpt>
      <trkpt lat="43.477413" lon="-6.434002">
        <ele>73.808</ele>
        <time>2019-06-19T12:16:05Z</time>
      </trkpt>
      <trkpt lat="43.477495" lon="-6.433909">
        <ele>72.891</ele>
        <time>2019-06-19T12:16:06Z</time>
      </trkpt>
      <trkpt lat="43.477587" lon="-6.433811">
        <ele>71.255</ele>
        <time>2019-06-19T12:16:07Z</time>
      </trkpt>
      <trkpt lat="43.477646" lon="-6.433670">
        <ele>71.096</ele>
        <time>2019-06-19T12:16:08Z</time>
      </trkpt>
      <trkpt lat="43.477681" lon="-6.433539">
        <ele>71.679</ele>
        <time>2019-06-19T12:16:09Z</time>
      </trkpt>
      <trkpt lat="43.477742" lon="-6.433417">
        <ele>70.729</ele>
        <time>2019-06-19T12:16:10Z</time>
      </trkpt>
      <trkpt lat="43.477651" lon="-6.433185">
        <ele>80.465</ele>
        <time>2019-06-19T12:16:11Z</time>
      </trkpt>
      <trkpt lat="43.477590" lon="-6.432987">
        <ele>88.943</ele>
        <time>2019-06-19T12:16:12Z</time>
      </trkpt>
      <trkpt lat="43.477651" lon="-6.432841">
        <ele>89.773</ele>
        <time>2019-06-19T12:16:13Z</time>
      </trkpt>
      <trkpt lat="43.477704" lon="-6.432714">
        <ele>90.864</ele>
        <time>2019-06-19T12:16:14Z</time>
      </trkpt>
      <trkpt lat="43.477883" lon="-6.432587">
        <ele>88.306</ele>
        <time>2019-06-19T12:16:15Z</time>
      </trkpt>
      <trkpt lat="43.477958" lon="-6.432512">
        <ele>89.016</ele>
        <time>2019-06-19T12:16:16Z</time>
      </trkpt>
      <trkpt lat="43.478030" lon="-6.432448">
        <ele>90.208</ele>
        <time>2019-06-19T12:16:17Z</time>
      </trkpt>
      <trkpt lat="43.478149" lon="-6.432408">
        <ele>90.749</ele>
        <time>2019-06-19T12:16:18Z</time>
      </trkpt>
      <trkpt lat="43.478261" lon="-6.432427">
        <ele>88.833</ele>
        <time>2019-06-19T12:16:19Z</time>
      </trkpt>
      <trkpt lat="43.478403" lon="-6.432481">
        <ele>85.854</ele>
        <time>2019-06-19T12:16:20Z</time>
      </trkpt>
      <trkpt lat="43.478549" lon="-6.432575">
        <ele>82.537</ele>
        <time>2019-06-19T12:16:21Z</time>
      </trkpt>
      <trkpt lat="43.478637" lon="-6.432694">
        <ele>78.997</ele>
        <time>2019-06-19T12:16:22Z</time>
      </trkpt>
      <trkpt lat="43.478692" lon="-6.432935">
        <ele>71.913</ele>
        <time>2019-06-19T12:16:23Z</time>
      </trkpt>
      <trkpt lat="43.478763" lon="-6.433095">
        <ele>67.721</ele>
        <time>2019-06-19T12:16:24Z</time>
      </trkpt>
      <trkpt lat="43.478809" lon="-6.433218">
        <ele>65.091</ele>
        <time>2019-06-19T12:16:25Z</time>
      </trkpt>
      <trkpt lat="43.478827" lon="-6.433334">
        <ele>62.213</ele>
        <time>2019-06-19T12:16:26Z</time>
      </trkpt>
      <trkpt lat="43.478843" lon="-6.433444">
        <ele>61.743</ele>
        <time>2019-06-19T12:16:27Z</time>
      </trkpt>
      <trkpt lat="43.478875" lon="-6.433529">
        <ele>61.307</ele>
        <time>2019-06-19T12:16:28Z</time>
      </trkpt>
      <trkpt lat="43.479013" lon="-6.433478">
        <ele>62.208</ele>
        <time>2019-06-19T12:16:29Z</time>
      </trkpt>
      <trkpt lat="43.479102" lon="-6.433434">
        <ele>62.514</ele>
        <time>2019-06-19T12:16:30Z</time>
      </trkpt>
      <trkpt lat="43.479181" lon="-6.433369">
        <ele>62.638</ele>
        <time>2019-06-19T12:16:31Z</time>
      </trkpt>
      <trkpt lat="43.479243" lon="-6.433306">
        <ele>63.859</ele>
        <time>2019-06-19T12:16:32Z</time>
      </trkpt>
      <trkpt lat="43.479339" lon="-6.433164">
        <ele>65.192</ele>
        <time>2019-06-19T12:16:33Z</time>
      </trkpt>
      <trkpt lat="43.479423" lon="-6.432994">
        <ele>65.472</ele>
        <time>2019-06-19T12:16:34Z</time>
      </trkpt>
      <trkpt lat="43.479443" lon="-6.432763">
        <ele>69.588</ele>
        <time>2019-06-19T12:16:35Z</time>
      </trkpt>
      <trkpt lat="43.479466" lon="-6.432559">
        <ele>74.066</ele>
        <time>2019-06-19T12:16:36Z</time>
      </trkpt>
      <trkpt lat="43.479579" lon="-6.432406">
        <ele>70.036</ele>
        <time>2019-06-19T12:16:37Z</time>
      </trkpt>
      <trkpt lat="43.479672" lon="-6.432249">
        <ele>66.488</ele>
        <time>2019-06-19T12:16:38Z</time>
      </trkpt>
      <trkpt lat="43.479751" lon="-6.432119">
        <ele>64.524</ele>
        <time>2019-06-19T12:16:39Z</time>
      </trkpt>
      <trkpt lat="43.479856" lon="-6.431985">
        <ele>63.226</ele>
        <time>2019-06-19T12:16:40Z</time>
      </trkpt>
      <trkpt lat="43.479930" lon="-6.431832">
        <ele>63.408</ele>
        <time>2019-06-19T12:16:41Z</time>
      </trkpt>
      <trkpt lat="43.479964" lon="-6.431611">
        <ele>66.911</ele>
        <time>2019-06-19T12:16:42Z</time>
      </trkpt>
      <trkpt lat="43.480021" lon="-6.431440">
        <ele>71.445</ele>
        <time>2019-06-19T12:16:43Z</time>
      </trkpt>
      <trkpt lat="43.480077" lon="-6.431275">
        <ele>80.116</ele>
        <time>2019-06-19T12:16:44Z</time>
      </trkpt>
      <trkpt lat="43.480178" lon="-6.431124">
        <ele>81.949</ele>
        <time>2019-06-19T12:16:45Z</time>
      </trkpt>
      <trkpt lat="43.480258" lon="-6.430986">
        <ele>83.089</ele>
        <time>2019-06-19T12:16:46Z</time>
      </trkpt>
      <trkpt lat="43.480373" lon="-6.430904">
        <ele>80.165</ele>
        <time>2019-06-19T12:16:47Z</time>
      </trkpt>
      <trkpt lat="43.480494" lon="-6.430826">
        <ele>74.813</ele>
        <time>2019-06-19T12:16:48Z</time>
      </trkpt>
      <trkpt lat="43.480591" lon="-6.430770">
        <ele>73.363</ele>
        <time>2019-06-19T12:16:49Z</time>
      </trkpt>
      <trkpt lat="43.480700" lon="-6.430707">
        <ele>76.961</ele>
        <time>2019-06-19T12:16:50Z</time>
      </trkpt>
      <trkpt lat="43.480823" lon="-6.430646">
        <ele>79.621</ele>
        <time>2019-06-19T12:16:51Z</time>
      </trkpt>
      <trkpt lat="43.480926" lon="-6.430644">
        <ele>79.813</ele>
        <time>2019-06-19T12:16:52Z</time>
      </trkpt>
      <trkpt lat="43.481024" lon="-6.430661">
        <ele>79.008</ele>
        <time>2019-06-19T12:16:53Z</time>
      </trkpt>
      <trkpt lat="43.481135" lon="-6.430717">
        <ele>75.979</ele>
        <time>2019-06-19T12:16:54Z</time>
      </trkpt>
      <trkpt lat="43.481247" lon="-6.430777">
        <ele>74.063</ele>
        <time>2019-06-19T12:16:55Z</time>
      </trkpt>
      <trkpt lat="43.481350" lon="-6.430890">
        <ele>69.194</ele>
        <time>2019-06-19T12:16:56Z</time>
      </trkpt>
      <trkpt lat="43.481437" lon="-6.431097">
        <ele>58.057</ele>
        <time>2019-06-19T12:16:57Z</time>
      </trkpt>
      <trkpt lat="43.481527" lon="-6.431191">
        <ele>54.697</ele>
        <time>2019-06-19T12:16:58Z</time>
      </trkpt>
      <trkpt lat="43.481660" lon="-6.431255">
        <ele>52.363</ele>
        <time>2019-06-19T12:16:59Z</time>
      </trkpt>
      <trkpt lat="43.481802" lon="-6.431302">
        <ele>50.051</ele>
        <time>2019-06-19T12:17:00Z</time>
      </trkpt>
      <trkpt lat="43.481950" lon="-6.431340">
        <ele>48.491</ele>
        <time>2019-06-19T12:17:01Z</time>
      </trkpt>
      <trkpt lat="43.482097" lon="-6.431359">
        <ele>46.549</ele>
        <time>2019-06-19T12:17:02Z</time>
      </trkpt>
      <trkpt lat="43.482232" lon="-6.431302">
        <ele>46.102</ele>
        <time>2019-06-19T12:17:03Z</time>
      </trkpt>
      <trkpt lat="43.482376" lon="-6.431188">
        <ele>45.722</ele>
        <time>2019-06-19T12:17:04Z</time>
      </trkpt>
      <trkpt lat="43.482514" lon="-6.431109">
        <ele>45.008</ele>
        <time>2019-06-19T12:17:05Z</time>
      </trkpt>
      <trkpt lat="43.482648" lon="-6.431063">
        <ele>45.987</ele>
        <time>2019-06-19T12:17:06Z</time>
      </trkpt>
      <trkpt lat="43.482787" lon="-6.431043">
        <ele>46.061</ele>
        <time>2019-06-19T12:17:07Z</time>
      </trkpt>
      <trkpt lat="43.482924" lon="-6.431054">
        <ele>46.812</ele>
        <time>2019-06-19T12:17:08Z</time>
      </trkpt>
      <trkpt lat="43.483071" lon="-6.431069">
        <ele>47.525</ele>
        <time>2019-06-19T12:17:09Z</time>
      </trkpt>
      <trkpt lat="43.483227" lon="-6.431080">
        <ele>48.885</ele>
        <time>2019-06-19T12:17:10Z</time>
      </trkpt>
      <trkpt lat="43.483414" lon="-6.431066">
        <ele>50.131</ele>
        <time>2019-06-19T12:17:11Z</time>
      </trkpt>
      <trkpt lat="43.483584" lon="-6.431063">
        <ele>49.819</ele>
        <time>2019-06-19T12:17:12Z</time>
      </trkpt>
      <trkpt lat="43.483749" lon="-6.431056">
        <ele>51.219</ele>
        <time>2019-06-19T12:17:13Z</time>
      </trkpt>
      <trkpt lat="43.483925" lon="-6.431053">
        <ele>52.635</ele>
        <time>2019-06-19T12:17:14Z</time>
      </trkpt>
      <trkpt lat="43.484089" lon="-6.431052">
        <ele>53.086</ele>
        <time>2019-06-19T12:17:15Z</time>
      </trkpt>
      <trkpt lat="43.484252" lon="-6.431052">
        <ele>51.614</ele>
        <time>2019-06-19T12:17:16Z</time>
      </trkpt>
      <trkpt lat="43.484394" lon="-6.431061">
        <ele>48.908</ele>
        <time>2019-06-19T12:17:17Z</time>
      </trkpt>
      <trkpt lat="43.484487" lon="-6.431021">
        <ele>48.156</ele>
        <time>2019-06-19T12:17:18Z</time>
      </trkpt>
      <trkpt lat="43.484594" lon="-6.430982">
        <ele>46.690</ele>
        <time>2019-06-19T12:17:19Z</time>
      </trkpt>
      <trkpt lat="43.484681" lon="-6.430887">
        <ele>45.751</ele>
        <time>2019-06-19T12:17:20Z</time>
      </trkpt>
      <trkpt lat="43.484764" lon="-6.430705">
        <ele>45.364</ele>
        <time>2019-06-19T12:17:21Z</time>
      </trkpt>
      <trkpt lat="43.484838" lon="-6.430562">
        <ele>45.314</ele>
        <time>2019-06-19T12:17:22Z</time>
      </trkpt>
      <trkpt lat="43.484926" lon="-6.430478">
        <ele>45.430</ele>
        <time>2019-06-19T12:17:23Z</time>
      </trkpt>
      <trkpt lat="43.485030" lon="-6.430375">
        <ele>45.258</ele>
        <time>2019-06-19T12:17:24Z</time>
      </trkpt>
      <trkpt lat="43.485153" lon="-6.430305">
        <ele>44.478</ele>
        <time>2019-06-19T12:17:25Z</time>
      </trkpt>
      <trkpt lat="43.485285" lon="-6.430250">
        <ele>43.397</ele>
        <time>2019-06-19T12:17:26Z</time>
      </trkpt>
      <trkpt lat="43.485435" lon="-6.430200">
        <ele>43.423</ele>
        <time>2019-06-19T12:17:27Z</time>
      </trkpt>
      <trkpt lat="43.485590" lon="-6.430152">
        <ele>43.125</ele>
        <time>2019-06-19T12:17:28Z</time>
      </trkpt>
      <trkpt lat="43.485734" lon="-6.430097">
        <ele>43.408</ele>
        <time>2019-06-19T12:17:29Z</time>
      </trkpt>
      <trkpt lat="43.485884" lon="-6.430056">
        <ele>44.022</ele>
        <time>2019-06-19T12:17:30Z</time>
      </trkpt>
      <trkpt lat="43.486024" lon="-6.430008">
        <ele>44.756</ele>
        <time>2019-06-19T12:17:31Z</time>
      </trkpt>
      <trkpt lat="43.486155" lon="-6.429946">
        <ele>44.957</ele>
        <time>2019-06-19T12:17:32Z</time>
      </trkpt>
      <trkpt lat="43.486278" lon="-6.429880">
        <ele>44.530</ele>
        <time>2019-06-19T12:17:33Z</time>
      </trkpt>
      <trkpt lat="43.486405" lon="-6.429820">
        <ele>43.910</ele>
        <time>2019-06-19T12:17:34Z</time>
      </trkpt>
      <trkpt lat="43.486554" lon="-6.429765">
        <ele>41.176</ele>
        <time>2019-06-19T12:17:35Z</time>
      </trkpt>
      <trkpt lat="43.486706" lon="-6.429691">
        <ele>39.374</ele>
        <time>2019-06-19T12:17:36Z</time>
      </trkpt>
      <trkpt lat="43.486837" lon="-6.429555">
        <ele>40.444</ele>
        <time>2019-06-19T12:17:37Z</time>
      </trkpt>
      <trkpt lat="43.486958" lon="-6.429397">
        <ele>41.549</ele>
        <time>2019-06-19T12:17:38Z</time>
      </trkpt>
      <trkpt lat="43.487091" lon="-6.429282">
        <ele>42.202</ele>
        <time>2019-06-19T12:17:39Z</time>
      </trkpt>
      <trkpt lat="43.487205" lon="-6.429185">
        <ele>42.922</ele>
        <time>2019-06-19T12:17:40Z</time>
      </trkpt>
      <trkpt lat="43.487358" lon="-6.429101">
        <ele>42.708</ele>
        <time>2019-06-19T12:17:41Z</time>
      </trkpt>
      <trkpt lat="43.487458" lon="-6.428946">
        <ele>44.487</ele>
        <time>2019-06-19T12:17:42Z</time>
      </trkpt>
      <trkpt lat="43.487569" lon="-6.428778">
        <ele>45.661</ele>
        <time>2019-06-19T12:17:43Z</time>
      </trkpt>
      <trkpt lat="43.487681" lon="-6.428598">
        <ele>45.692</ele>
        <time>2019-06-19T12:17:44Z</time>
      </trkpt>
      <trkpt lat="43.487828" lon="-6.428420">
        <ele>44.455</ele>
        <time>2019-06-19T12:17:45Z</time>
      </trkpt>
      <trkpt lat="43.487938" lon="-6.428227">
        <ele>44.075</ele>
        <time>2019-06-19T12:17:46Z</time>
      </trkpt>
      <trkpt lat="43.488059" lon="-6.428039">
        <ele>41.981</ele>
        <time>2019-06-19T12:17:47Z</time>
      </trkpt>
      <trkpt lat="43.488195" lon="-6.427847">
        <ele>40.229</ele>
        <time>2019-06-19T12:17:48Z</time>
      </trkpt>
      <trkpt lat="43.488323" lon="-6.427659">
        <ele>38.729</ele>
        <time>2019-06-19T12:17:49Z</time>
      </trkpt>
      <trkpt lat="43.488437" lon="-6.427467">
        <ele>38.381</ele>
        <time>2019-06-19T12:17:50Z</time>
      </trkpt>
      <trkpt lat="43.488572" lon="-6.427276">
        <ele>39.061</ele>
        <time>2019-06-19T12:17:51Z</time>
      </trkpt>
      <trkpt lat="43.488690" lon="-6.427087">
        <ele>39.517</ele>
        <time>2019-06-19T12:17:52Z</time>
      </trkpt>
      <trkpt lat="43.488812" lon="-6.426907">
        <ele>40.008</ele>
        <time>2019-06-19T12:17:53Z</time>
      </trkpt>
      <trkpt lat="43.488929" lon="-6.426728">
        <ele>39.631</ele>
        <time>2019-06-19T12:17:54Z</time>
      </trkpt>
      <trkpt lat="43.489030" lon="-6.426559">
        <ele>38.725</ele>
        <time>2019-06-19T12:17:55Z</time>
      </trkpt>
      <trkpt lat="43.489123" lon="-6.426401">
        <ele>37.636</ele>
        <time>2019-06-19T12:17:56Z</time>
      </trkpt>
      <trkpt lat="43.489216" lon="-6.426254">
        <ele>37.949</ele>
        <time>2019-06-19T12:17:57Z</time>
      </trkpt>
      <trkpt lat="43.489296" lon="-6.426137">
        <ele>38.489</ele>
        <time>2019-06-19T12:17:58Z</time>
      </trkpt>
      <trkpt lat="43.489362" lon="-6.426030">
        <ele>38.655</ele>
        <time>2019-06-19T12:17:59Z</time>
      </trkpt>
      <trkpt lat="43.489433" lon="-6.426007">
        <ele>38.493</ele>
        <time>2019-06-19T12:18:00Z</time>
      </trkpt>
      <trkpt lat="43.489509" lon="-6.425982">
        <ele>39.353</ele>
        <time>2019-06-19T12:18:01Z</time>
      </trkpt>
      <trkpt lat="43.489581" lon="-6.425970">
        <ele>40.253</ele>
        <time>2019-06-19T12:18:02Z</time>
      </trkpt>
      <trkpt lat="43.489677" lon="-6.425977">
        <ele>41.404</ele>
        <time>2019-06-19T12:18:03Z</time>
      </trkpt>
      <trkpt lat="43.489782" lon="-6.426010">
        <ele>43.914</ele>
        <time>2019-06-19T12:18:04Z</time>
      </trkpt>
      <trkpt lat="43.489893" lon="-6.426065">
        <ele>47.108</ele>
        <time>2019-06-19T12:18:05Z</time>
      </trkpt>
      <trkpt lat="43.489969" lon="-6.426171">
        <ele>48.378</ele>
        <time>2019-06-19T12:18:06Z</time>
      </trkpt>
      <trkpt lat="43.490067" lon="-6.426235">
        <ele>51.032</ele>
        <time>2019-06-19T12:18:07Z</time>
      </trkpt>
      <trkpt lat="43.490141" lon="-6.426512">
        <ele>48.283</ele>
        <time>2019-06-19T12:18:08Z</time>
      </trkpt>
      <trkpt lat="43.490262" lon="-6.426631">
        <ele>47.856</ele>
        <time>2019-06-19T12:18:09Z</time>
      </trkpt>
      <trkpt lat="43.490352" lon="-6.426745">
        <ele>48.316</ele>
        <time>2019-06-19T12:18:10Z</time>
      </trkpt>
      <trkpt lat="43.490502" lon="-6.426863">
        <ele>50.932</ele>
        <time>2019-06-19T12:18:11Z</time>
      </trkpt>
      <trkpt lat="43.490610" lon="-6.426969">
        <ele>50.510</ele>
        <time>2019-06-19T12:18:12Z</time>
      </trkpt>
      <trkpt lat="43.490725" lon="-6.427080">
        <ele>48.120</ele>
        <time>2019-06-19T12:18:13Z</time>
      </trkpt>
      <trkpt lat="43.490847" lon="-6.427205">
        <ele>44.291</ele>
        <time>2019-06-19T12:18:14Z</time>
      </trkpt>
      <trkpt lat="43.491010" lon="-6.427263">
        <ele>44.681</ele>
        <time>2019-06-19T12:18:15Z</time>
      </trkpt>
      <trkpt lat="43.491161" lon="-6.427326">
        <ele>45.019</ele>
        <time>2019-06-19T12:18:16Z</time>
      </trkpt>
      <trkpt lat="43.491348" lon="-6.427385">
        <ele>48.308</ele>
        <time>2019-06-19T12:18:17Z</time>
      </trkpt>
      <trkpt lat="43.491491" lon="-6.427448">
        <ele>48.142</ele>
        <time>2019-06-19T12:18:18Z</time>
      </trkpt>
      <trkpt lat="43.491661" lon="-6.427505">
        <ele>47.846</ele>
        <time>2019-06-19T12:18:19Z</time>
      </trkpt>
      <trkpt lat="43.491832" lon="-6.427546">
        <ele>48.597</ele>
        <time>2019-06-19T12:18:20Z</time>
      </trkpt>
      <trkpt lat="43.491994" lon="-6.427597">
        <ele>48.330</ele>
        <time>2019-06-19T12:18:21Z</time>
      </trkpt>
      <trkpt lat="43.492145" lon="-6.427639">
        <ele>47.460</ele>
        <time>2019-06-19T12:18:22Z</time>
      </trkpt>
      <trkpt lat="43.492290" lon="-6.427675">
        <ele>46.976</ele>
        <time>2019-06-19T12:18:23Z</time>
      </trkpt>
      <trkpt lat="43.492441" lon="-6.427719">
        <ele>46.934</ele>
        <time>2019-06-19T12:18:24Z</time>
      </trkpt>
      <trkpt lat="43.492578" lon="-6.427787">
        <ele>47.444</ele>
        <time>2019-06-19T12:18:25Z</time>
      </trkpt>
      <trkpt lat="43.492712" lon="-6.427860">
        <ele>47.829</ele>
        <time>2019-06-19T12:18:26Z</time>
      </trkpt>
      <trkpt lat="43.492864" lon="-6.427944">
        <ele>47.400</ele>
        <time>2019-06-19T12:18:27Z</time>
      </trkpt>
      <trkpt lat="43.492995" lon="-6.428042">
        <ele>45.720</ele>
        <time>2019-06-19T12:18:28Z</time>
      </trkpt>
      <trkpt lat="43.493116" lon="-6.428163">
        <ele>45.908</ele>
        <time>2019-06-19T12:18:29Z</time>
      </trkpt>
      <trkpt lat="43.493240" lon="-6.428270">
        <ele>47.765</ele>
        <time>2019-06-19T12:18:30Z</time>
      </trkpt>
      <trkpt lat="43.493361" lon="-6.428370">
        <ele>49.959</ele>
        <time>2019-06-19T12:18:31Z</time>
      </trkpt>
      <trkpt lat="43.493515" lon="-6.428448">
        <ele>58.430</ele>
        <time>2019-06-19T12:18:32Z</time>
      </trkpt>
      <trkpt lat="43.493652" lon="-6.428548">
        <ele>65.683</ele>
        <time>2019-06-19T12:18:33Z</time>
      </trkpt>
      <trkpt lat="43.493650" lon="-6.428766">
        <ele>60.033</ele>
        <time>2019-06-19T12:18:34Z</time>
      </trkpt>
      <trkpt lat="43.493704" lon="-6.428961">
        <ele>59.839</ele>
        <time>2019-06-19T12:18:35Z</time>
      </trkpt>
      <trkpt lat="43.493741" lon="-6.429134">
        <ele>59.957</ele>
        <time>2019-06-19T12:18:36Z</time>
      </trkpt>
      <trkpt lat="43.493714" lon="-6.429417">
        <ele>55.137</ele>
        <time>2019-06-19T12:18:37Z</time>
      </trkpt>
      <trkpt lat="43.493630" lon="-6.429676">
        <ele>51.855</ele>
        <time>2019-06-19T12:18:38Z</time>
      </trkpt>
      <trkpt lat="43.493568" lon="-6.429830">
        <ele>50.507</ele>
        <time>2019-06-19T12:18:39Z</time>
      </trkpt>
      <trkpt lat="43.493520" lon="-6.430021">
        <ele>50.317</ele>
        <time>2019-06-19T12:18:40Z</time>
      </trkpt>
      <trkpt lat="43.493490" lon="-6.430194">
        <ele>50.608</ele>
        <time>2019-06-19T12:18:41Z</time>
      </trkpt>
      <trkpt lat="43.493422" lon="-6.430371">
        <ele>48.438</ele>
        <time>2019-06-19T12:18:42Z</time>
      </trkpt>
      <trkpt lat="43.493386" lon="-6.430551">
        <ele>47.362</ele>
        <time>2019-06-19T12:18:43Z</time>
      </trkpt>
      <trkpt lat="43.493378" lon="-6.430732">
        <ele>47.463</ele>
        <time>2019-06-19T12:18:44Z</time>
      </trkpt>
      <trkpt lat="43.493417" lon="-6.430933">
        <ele>48.996</ele>
        <time>2019-06-19T12:18:45Z</time>
      </trkpt>
      <trkpt lat="43.493468" lon="-6.431125">
        <ele>49.886</ele>
        <time>2019-06-19T12:18:46Z</time>
      </trkpt>
      <trkpt lat="43.493540" lon="-6.431293">
        <ele>49.332</ele>
        <time>2019-06-19T12:18:47Z</time>
      </trkpt>
      <trkpt lat="43.493631" lon="-6.431445">
        <ele>48.630</ele>
        <time>2019-06-19T12:18:48Z</time>
      </trkpt>
      <trkpt lat="43.493734" lon="-6.431566">
        <ele>48.760</ele>
        <time>2019-06-19T12:18:49Z</time>
      </trkpt>
      <trkpt lat="43.493862" lon="-6.431671">
        <ele>48.545</ele>
        <time>2019-06-19T12:18:50Z</time>
      </trkpt>
      <trkpt lat="43.493967" lon="-6.431786">
        <ele>47.447</ele>
        <time>2019-06-19T12:18:51Z</time>
      </trkpt>
      <trkpt lat="43.494043" lon="-6.431921">
        <ele>45.211</ele>
        <time>2019-06-19T12:18:52Z</time>
      </trkpt>
      <trkpt lat="43.494124" lon="-6.432026">
        <ele>43.908</ele>
        <time>2019-06-19T12:18:53Z</time>
      </trkpt>
      <trkpt lat="43.494191" lon="-6.432140">
        <ele>41.997</ele>
        <time>2019-06-19T12:18:54Z</time>
      </trkpt>
      <trkpt lat="43.494267" lon="-6.432249">
        <ele>39.661</ele>
        <time>2019-06-19T12:18:55Z</time>
      </trkpt>
      <trkpt lat="43.494334" lon="-6.432330">
        <ele>38.132</ele>
        <time>2019-06-19T12:18:56Z</time>
      </trkpt>
      <trkpt lat="43.494401" lon="-6.432415">
        <ele>36.245</ele>
        <time>2019-06-19T12:18:57Z</time>
      </trkpt>
      <trkpt lat="43.494497" lon="-6.432393">
        <ele>36.075</ele>
        <time>2019-06-19T12:18:58Z</time>
      </trkpt>
      <trkpt lat="43.494578" lon="-6.432346">
        <ele>36.661</ele>
        <time>2019-06-19T12:18:59Z</time>
      </trkpt>
      <trkpt lat="43.494662" lon="-6.432307">
        <ele>36.819</ele>
        <time>2019-06-19T12:19:00Z</time>
      </trkpt>
      <trkpt lat="43.494744" lon="-6.432206">
        <ele>38.439</ele>
        <time>2019-06-19T12:19:01Z</time>
      </trkpt>
      <trkpt lat="43.494830" lon="-6.432086">
        <ele>40.686</ele>
        <time>2019-06-19T12:19:02Z</time>
      </trkpt>
      <trkpt lat="43.494893" lon="-6.431922">
        <ele>41.860</ele>
        <time>2019-06-19T12:19:03Z</time>
      </trkpt>
      <trkpt lat="43.494892" lon="-6.431708">
        <ele>42.726</ele>
        <time>2019-06-19T12:19:04Z</time>
      </trkpt>
      <trkpt lat="43.494949" lon="-6.431511">
        <ele>40.708</ele>
        <time>2019-06-19T12:19:05Z</time>
      </trkpt>
      <trkpt lat="43.494957" lon="-6.431294">
        <ele>41.731</ele>
        <time>2019-06-19T12:19:06Z</time>
      </trkpt>
      <trkpt lat="43.494972" lon="-6.431066">
        <ele>43.185</ele>
        <time>2019-06-19T12:19:07Z</time>
      </trkpt>
      <trkpt lat="43.494956" lon="-6.430868">
        <ele>49.486</ele>
        <time>2019-06-19T12:19:08Z</time>
      </trkpt>
      <trkpt lat="43.494952" lon="-6.430671">
        <ele>53.689</ele>
        <time>2019-06-19T12:19:09Z</time>
      </trkpt>
      <trkpt lat="43.494931" lon="-6.430474">
        <ele>58.259</ele>
        <time>2019-06-19T12:19:10Z</time>
      </trkpt>
      <trkpt lat="43.494902" lon="-6.430285">
        <ele>63.065</ele>
        <time>2019-06-19T12:19:11Z</time>
      </trkpt>
      <trkpt lat="43.494918" lon="-6.430100">
        <ele>62.423</ele>
        <time>2019-06-19T12:19:12Z</time>
      </trkpt>
      <trkpt lat="43.494940" lon="-6.429904">
        <ele>61.723</ele>
        <time>2019-06-19T12:19:13Z</time>
      </trkpt>
      <trkpt lat="43.494950" lon="-6.429710">
        <ele>62.458</ele>
        <time>2019-06-19T12:19:14Z</time>
      </trkpt>
      <trkpt lat="43.494963" lon="-6.429534">
        <ele>64.452</ele>
        <time>2019-06-19T12:19:15Z</time>
      </trkpt>
      <trkpt lat="43.494966" lon="-6.429373">
        <ele>65.717</ele>
        <time>2019-06-19T12:19:16Z</time>
      </trkpt>
      <trkpt lat="43.494964" lon="-6.429208">
        <ele>65.708</ele>
        <time>2019-06-19T12:19:17Z</time>
      </trkpt>
      <trkpt lat="43.495026" lon="-6.429002">
        <ele>63.218</ele>
        <time>2019-06-19T12:19:18Z</time>
      </trkpt>
      <trkpt lat="43.495090" lon="-6.428799">
        <ele>61.752</ele>
        <time>2019-06-19T12:19:19Z</time>
      </trkpt>
      <trkpt lat="43.495200" lon="-6.428612">
        <ele>58.523</ele>
        <time>2019-06-19T12:19:20Z</time>
      </trkpt>
      <trkpt lat="43.495289" lon="-6.428468">
        <ele>58.246</ele>
        <time>2019-06-19T12:19:21Z</time>
      </trkpt>
      <trkpt lat="43.495374" lon="-6.428317">
        <ele>60.976</ele>
        <time>2019-06-19T12:19:22Z</time>
      </trkpt>
      <trkpt lat="43.495584" lon="-6.428263">
        <ele>57.332</ele>
        <time>2019-06-19T12:19:23Z</time>
      </trkpt>
      <trkpt lat="43.495732" lon="-6.428159">
        <ele>57.240</ele>
        <time>2019-06-19T12:19:24Z</time>
      </trkpt>
      <trkpt lat="43.495869" lon="-6.428059">
        <ele>57.980</ele>
        <time>2019-06-19T12:19:25Z</time>
      </trkpt>
      <trkpt lat="43.496002" lon="-6.428019">
        <ele>56.369</ele>
        <time>2019-06-19T12:19:26Z</time>
      </trkpt>
      <trkpt lat="43.496185" lon="-6.428001">
        <ele>56.604</ele>
        <time>2019-06-19T12:19:27Z</time>
      </trkpt>
      <trkpt lat="43.496301" lon="-6.427958">
        <ele>61.824</ele>
        <time>2019-06-19T12:19:28Z</time>
      </trkpt>
      <trkpt lat="43.496395" lon="-6.427958">
        <ele>64.408</ele>
        <time>2019-06-19T12:19:29Z</time>
      </trkpt>
      <trkpt lat="43.496491" lon="-6.427998">
        <ele>65.649</ele>
        <time>2019-06-19T12:19:30Z</time>
      </trkpt>
      <trkpt lat="43.496575" lon="-6.428053">
        <ele>66.143</ele>
        <time>2019-06-19T12:19:31Z</time>
      </trkpt>
      <trkpt lat="43.496664" lon="-6.428172">
        <ele>62.244</ele>
        <time>2019-06-19T12:19:32Z</time>
      </trkpt>
      <trkpt lat="43.496724" lon="-6.428318">
        <ele>56.147</ele>
        <time>2019-06-19T12:19:33Z</time>
      </trkpt>
      <trkpt lat="43.496809" lon="-6.428461">
        <ele>52.957</ele>
        <time>2019-06-19T12:19:34Z</time>
      </trkpt>
      <trkpt lat="43.496877" lon="-6.428646">
        <ele>47.663</ele>
        <time>2019-06-19T12:19:35Z</time>
      </trkpt>
      <trkpt lat="43.496951" lon="-6.428810">
        <ele>45.631</ele>
        <time>2019-06-19T12:19:36Z</time>
      </trkpt>
      <trkpt lat="43.497022" lon="-6.428972">
        <ele>44.991</ele>
        <time>2019-06-19T12:19:37Z</time>
      </trkpt>
      <trkpt lat="43.497094" lon="-6.429120">
        <ele>44.647</ele>
        <time>2019-06-19T12:19:38Z</time>
      </trkpt>
      <trkpt lat="43.497143" lon="-6.429289">
        <ele>43.629</ele>
        <time>2019-06-19T12:19:39Z</time>
      </trkpt>
      <trkpt lat="43.497191" lon="-6.429442">
        <ele>42.921</ele>
        <time>2019-06-19T12:19:40Z</time>
      </trkpt>
      <trkpt lat="43.497222" lon="-6.429621">
        <ele>42.708</ele>
        <time>2019-06-19T12:19:41Z</time>
      </trkpt>
      <trkpt lat="43.497239" lon="-6.429805">
        <ele>41.077</ele>
        <time>2019-06-19T12:19:42Z</time>
      </trkpt>
      <trkpt lat="43.497264" lon="-6.429966">
        <ele>38.441</ele>
        <time>2019-06-19T12:19:43Z</time>
      </trkpt>
      <trkpt lat="43.497301" lon="-6.430130">
        <ele>36.632</ele>
        <time>2019-06-19T12:19:44Z</time>
      </trkpt>
      <trkpt lat="43.497351" lon="-6.430306">
        <ele>35.425</ele>
        <time>2019-06-19T12:19:45Z</time>
      </trkpt>
      <trkpt lat="43.497413" lon="-6.430483">
        <ele>35.935</ele>
        <time>2019-06-19T12:19:46Z</time>
      </trkpt>
      <trkpt lat="43.497502" lon="-6.430603">
        <ele>37.611</ele>
        <time>2019-06-19T12:19:47Z</time>
      </trkpt>
      <trkpt lat="43.497603" lon="-6.430736">
        <ele>38.899</ele>
        <time>2019-06-19T12:19:48Z</time>
      </trkpt>
      <trkpt lat="43.497710" lon="-6.430850">
        <ele>38.539</ele>
        <time>2019-06-19T12:19:49Z</time>
      </trkpt>
      <trkpt lat="43.497808" lon="-6.430985">
        <ele>36.861</ele>
        <time>2019-06-19T12:19:50Z</time>
      </trkpt>
      <trkpt lat="43.497910" lon="-6.431106">
        <ele>34.121</ele>
        <time>2019-06-19T12:19:51Z</time>
      </trkpt>
      <trkpt lat="43.498082" lon="-6.431176">
        <ele>32.513</ele>
        <time>2019-06-19T12:19:52Z</time>
      </trkpt>
      <trkpt lat="43.498217" lon="-6.431243">
        <ele>31.108</ele>
        <time>2019-06-19T12:19:53Z</time>
      </trkpt>
      <trkpt lat="43.498350" lon="-6.431331">
        <ele>30.189</ele>
        <time>2019-06-19T12:19:54Z</time>
      </trkpt>
      <trkpt lat="43.498465" lon="-6.431423">
        <ele>30.963</ele>
        <time>2019-06-19T12:19:55Z</time>
      </trkpt>
      <trkpt lat="43.498590" lon="-6.431514">
        <ele>31.924</ele>
        <time>2019-06-19T12:19:56Z</time>
      </trkpt>
      <trkpt lat="43.498707" lon="-6.431607">
        <ele>32.967</ele>
        <time>2019-06-19T12:19:57Z</time>
      </trkpt>
      <trkpt lat="43.498816" lon="-6.431701">
        <ele>34.167</ele>
        <time>2019-06-19T12:19:58Z</time>
      </trkpt>
      <trkpt lat="43.498934" lon="-6.431792">
        <ele>35.653</ele>
        <time>2019-06-19T12:19:59Z</time>
      </trkpt>
      <trkpt lat="43.499067" lon="-6.431869">
        <ele>37.471</ele>
        <time>2019-06-19T12:20:00Z</time>
      </trkpt>
      <trkpt lat="43.499197" lon="-6.431912">
        <ele>38.751</ele>
        <time>2019-06-19T12:20:01Z</time>
      </trkpt>
      <trkpt lat="43.499334" lon="-6.431927">
        <ele>39.146</ele>
        <time>2019-06-19T12:20:02Z</time>
      </trkpt>
      <trkpt lat="43.499508" lon="-6.431938">
        <ele>38.888</ele>
        <time>2019-06-19T12:20:03Z</time>
      </trkpt>
      <trkpt lat="43.499662" lon="-6.431958">
        <ele>37.116</ele>
        <time>2019-06-19T12:20:04Z</time>
      </trkpt>
      <trkpt lat="43.499808" lon="-6.431994">
        <ele>35.208</ele>
        <time>2019-06-19T12:20:05Z</time>
      </trkpt>
      <trkpt lat="43.499958" lon="-6.432034">
        <ele>33.387</ele>
        <time>2019-06-19T12:20:06Z</time>
      </trkpt>
      <trkpt lat="43.500100" lon="-6.432086">
        <ele>32.761</ele>
        <time>2019-06-19T12:20:07Z</time>
      </trkpt>
      <trkpt lat="43.500237" lon="-6.432163">
        <ele>32.322</ele>
        <time>2019-06-19T12:20:08Z</time>
      </trkpt>
      <trkpt lat="43.500380" lon="-6.432257">
        <ele>33.385</ele>
        <time>2019-06-19T12:20:09Z</time>
      </trkpt>
      <trkpt lat="43.500503" lon="-6.432360">
        <ele>34.075</ele>
        <time>2019-06-19T12:20:10Z</time>
      </trkpt>
      <trkpt lat="43.500634" lon="-6.432467">
        <ele>34.181</ele>
        <time>2019-06-19T12:20:11Z</time>
      </trkpt>
      <trkpt lat="43.500744" lon="-6.432569">
        <ele>33.589</ele>
        <time>2019-06-19T12:20:12Z</time>
      </trkpt>
      <trkpt lat="43.500883" lon="-6.432662">
        <ele>32.989</ele>
        <time>2019-06-19T12:20:13Z</time>
      </trkpt>
      <trkpt lat="43.501024" lon="-6.432750">
        <ele>32.222</ele>
        <time>2019-06-19T12:20:14Z</time>
      </trkpt>
      <trkpt lat="43.501155" lon="-6.432834">
        <ele>31.762</ele>
        <time>2019-06-19T12:20:15Z</time>
      </trkpt>
      <trkpt lat="43.501287" lon="-6.432918">
        <ele>32.108</ele>
        <time>2019-06-19T12:20:16Z</time>
      </trkpt>
      <trkpt lat="43.501393" lon="-6.433039">
        <ele>32.208</ele>
        <time>2019-06-19T12:20:17Z</time>
      </trkpt>
      <trkpt lat="43.501490" lon="-6.433150">
        <ele>32.455</ele>
        <time>2019-06-19T12:20:18Z</time>
      </trkpt>
      <trkpt lat="43.501568" lon="-6.433269">
        <ele>32.479</ele>
        <time>2019-06-19T12:20:19Z</time>
      </trkpt>
      <trkpt lat="43.501652" lon="-6.433430">
        <ele>32.220</ele>
        <time>2019-06-19T12:20:20Z</time>
      </trkpt>
      <trkpt lat="43.501724" lon="-6.433591">
        <ele>32.483</ele>
        <time>2019-06-19T12:20:21Z</time>
      </trkpt>
      <trkpt lat="43.501778" lon="-6.433752">
        <ele>32.963</ele>
        <time>2019-06-19T12:20:22Z</time>
      </trkpt>
      <trkpt lat="43.501801" lon="-6.433950">
        <ele>33.059</ele>
        <time>2019-06-19T12:20:23Z</time>
      </trkpt>
      <trkpt lat="43.501825" lon="-6.434144">
        <ele>34.167</ele>
        <time>2019-06-19T12:20:24Z</time>
      </trkpt>
      <trkpt lat="43.501858" lon="-6.434357">
        <ele>35.937</ele>
        <time>2019-06-19T12:20:25Z</time>
      </trkpt>
      <trkpt lat="43.501865" lon="-6.434563">
        <ele>36.664</ele>
        <time>2019-06-19T12:20:26Z</time>
      </trkpt>
      <trkpt lat="43.501857" lon="-6.434761">
        <ele>36.406</ele>
        <time>2019-06-19T12:20:27Z</time>
      </trkpt>
      <trkpt lat="43.501858" lon="-6.434969">
        <ele>35.416</ele>
        <time>2019-06-19T12:20:28Z</time>
      </trkpt>
      <trkpt lat="43.501882" lon="-6.435181">
        <ele>34.608</ele>
        <time>2019-06-19T12:20:29Z</time>
      </trkpt>
      <trkpt lat="43.501852" lon="-6.435374">
        <ele>32.159</ele>
        <time>2019-06-19T12:20:30Z</time>
      </trkpt>
      <trkpt lat="43.501864" lon="-6.435570">
        <ele>31.213</ele>
        <time>2019-06-19T12:20:31Z</time>
      </trkpt>
      <trkpt lat="43.501880" lon="-6.435729">
        <ele>30.014</ele>
        <time>2019-06-19T12:20:32Z</time>
      </trkpt>
      <trkpt lat="43.501958" lon="-6.435845">
        <ele>30.367</ele>
        <time>2019-06-19T12:20:33Z</time>
      </trkpt>
      <trkpt lat="43.501997" lon="-6.435991">
        <ele>29.577</ele>
        <time>2019-06-19T12:20:34Z</time>
      </trkpt>
      <trkpt lat="43.502065" lon="-6.436105">
        <ele>29.383</ele>
        <time>2019-06-19T12:20:35Z</time>
      </trkpt>
      <trkpt lat="43.502111" lon="-6.436235">
        <ele>28.241</ele>
        <time>2019-06-19T12:20:36Z</time>
      </trkpt>
      <trkpt lat="43.502163" lon="-6.436305">
        <ele>28.161</ele>
        <time>2019-06-19T12:20:37Z</time>
      </trkpt>
      <trkpt lat="43.502242" lon="-6.436367">
        <ele>28.651</ele>
        <time>2019-06-19T12:20:40Z</time>
      </trkpt>
      <trkpt lat="43.502295" lon="-6.436386">
        <ele>29.101</ele>
        <time>2019-06-19T12:20:41Z</time>
      </trkpt>
      <trkpt lat="43.502342" lon="-6.436420">
        <ele>29.211</ele>
        <time>2019-06-19T12:20:42Z</time>
      </trkpt>
      <trkpt lat="43.502405" lon="-6.436470">
        <ele>29.408</ele>
        <time>2019-06-19T12:20:43Z</time>
      </trkpt>
      <trkpt lat="43.502489" lon="-6.436514">
        <ele>30.018</ele>
        <time>2019-06-19T12:20:44Z</time>
      </trkpt>
      <trkpt lat="43.502569" lon="-6.436556">
        <ele>30.462</ele>
        <time>2019-06-19T12:20:45Z</time>
      </trkpt>
      <trkpt lat="43.502643" lon="-6.436606">
        <ele>30.513</ele>
        <time>2019-06-19T12:20:46Z</time>
      </trkpt>
      <trkpt lat="43.502733" lon="-6.436640">
        <ele>31.056</ele>
        <time>2019-06-19T12:20:47Z</time>
      </trkpt>
      <trkpt lat="43.502833" lon="-6.436632">
        <ele>32.246</ele>
        <time>2019-06-19T12:20:48Z</time>
      </trkpt>
      <trkpt lat="43.502939" lon="-6.436651">
        <ele>33.152</ele>
        <time>2019-06-19T12:20:49Z</time>
      </trkpt>
      <trkpt lat="43.503046" lon="-6.436673">
        <ele>33.890</ele>
        <time>2019-06-19T12:20:50Z</time>
      </trkpt>
      <trkpt lat="43.503162" lon="-6.436681">
        <ele>33.420</ele>
        <time>2019-06-19T12:20:51Z</time>
      </trkpt>
      <trkpt lat="43.503277" lon="-6.436676">
        <ele>33.061</ele>
        <time>2019-06-19T12:20:52Z</time>
      </trkpt>
      <trkpt lat="43.503374" lon="-6.436666">
        <ele>32.421</ele>
        <time>2019-06-19T12:20:53Z</time>
      </trkpt>
      <trkpt lat="43.503483" lon="-6.436657">
        <ele>31.013</ele>
        <time>2019-06-19T12:20:54Z</time>
      </trkpt>
      <trkpt lat="43.503616" lon="-6.436632">
        <ele>29.908</ele>
        <time>2019-06-19T12:20:55Z</time>
      </trkpt>
      <trkpt lat="43.503710" lon="-6.436594">
        <ele>30.689</ele>
        <time>2019-06-19T12:20:56Z</time>
      </trkpt>
      <trkpt lat="43.503860" lon="-6.436495">
        <ele>32.263</ele>
        <time>2019-06-19T12:20:57Z</time>
      </trkpt>
      <trkpt lat="43.503970" lon="-6.436456">
        <ele>32.094</ele>
        <time>2019-06-19T12:20:58Z</time>
      </trkpt>
      <trkpt lat="43.504106" lon="-6.436374">
        <ele>32.187</ele>
        <time>2019-06-19T12:20:59Z</time>
      </trkpt>
      <trkpt lat="43.504237" lon="-6.436300">
        <ele>33.037</ele>
        <time>2019-06-19T12:21:00Z</time>
      </trkpt>
      <trkpt lat="43.504372" lon="-6.436209">
        <ele>33.733</ele>
        <time>2019-06-19T12:21:01Z</time>
      </trkpt>
      <trkpt lat="43.504523" lon="-6.436123">
        <ele>33.351</ele>
        <time>2019-06-19T12:21:02Z</time>
      </trkpt>
      <trkpt lat="43.504655" lon="-6.436061">
        <ele>33.151</ele>
        <time>2019-06-19T12:21:03Z</time>
      </trkpt>
      <trkpt lat="43.504797" lon="-6.435983">
        <ele>33.642</ele>
        <time>2019-06-19T12:21:04Z</time>
      </trkpt>
      <trkpt lat="43.504877" lon="-6.435904">
        <ele>35.022</ele>
        <time>2019-06-19T12:21:05Z</time>
      </trkpt>
      <trkpt lat="43.505000" lon="-6.435830">
        <ele>35.114</ele>
        <time>2019-06-19T12:21:06Z</time>
      </trkpt>
      <trkpt lat="43.505136" lon="-6.435747">
        <ele>34.108</ele>
        <time>2019-06-19T12:21:07Z</time>
      </trkpt>
      <trkpt lat="43.505278" lon="-6.435661">
        <ele>32.767</ele>
        <time>2019-06-19T12:21:08Z</time>
      </trkpt>
      <trkpt lat="43.505409" lon="-6.435597">
        <ele>31.511</ele>
        <time>2019-06-19T12:21:09Z</time>
      </trkpt>
      <trkpt lat="43.505541" lon="-6.435528">
        <ele>30.082</ele>
        <time>2019-06-19T12:21:10Z</time>
      </trkpt>
      <trkpt lat="43.505697" lon="-6.435455">
        <ele>30.075</ele>
        <time>2019-06-19T12:21:11Z</time>
      </trkpt>
      <trkpt lat="43.505845" lon="-6.435387">
        <ele>30.235</ele>
        <time>2019-06-19T12:21:12Z</time>
      </trkpt>
      <trkpt lat="43.506009" lon="-6.435309">
        <ele>31.531</ele>
        <time>2019-06-19T12:21:13Z</time>
      </trkpt>
      <trkpt lat="43.506155" lon="-6.435228">
        <ele>33.349</ele>
        <time>2019-06-19T12:21:14Z</time>
      </trkpt>
      <trkpt lat="43.506311" lon="-6.435132">
        <ele>34.959</ele>
        <time>2019-06-19T12:21:15Z</time>
      </trkpt>
      <trkpt lat="43.506469" lon="-6.435039">
        <ele>35.168</ele>
        <time>2019-06-19T12:21:16Z</time>
      </trkpt>
      <trkpt lat="43.506622" lon="-6.434940">
        <ele>33.542</ele>
        <time>2019-06-19T12:21:17Z</time>
      </trkpt>
      <trkpt lat="43.506785" lon="-6.434822">
        <ele>31.626</ele>
        <time>2019-06-19T12:21:18Z</time>
      </trkpt>
      <trkpt lat="43.506939" lon="-6.434713">
        <ele>29.408</ele>
        <time>2019-06-19T12:21:19Z</time>
      </trkpt>
      <trkpt lat="43.507092" lon="-6.434608">
        <ele>29.539</ele>
        <time>2019-06-19T12:21:20Z</time>
      </trkpt>
      <trkpt lat="43.507253" lon="-6.434506">
        <ele>29.263</ele>
        <time>2019-06-19T12:21:21Z</time>
      </trkpt>
      <trkpt lat="43.507412" lon="-6.434413">
        <ele>28.324</ele>
        <time>2019-06-19T12:21:22Z</time>
      </trkpt>
      <trkpt lat="43.507568" lon="-6.434337">
        <ele>27.537</ele>
        <time>2019-06-19T12:21:23Z</time>
      </trkpt>
      <trkpt lat="43.507735" lon="-6.434278">
        <ele>26.427</ele>
        <time>2019-06-19T12:21:24Z</time>
      </trkpt>
      <trkpt lat="43.507926" lon="-6.434260">
        <ele>26.783</ele>
        <time>2019-06-19T12:21:25Z</time>
      </trkpt>
      <trkpt lat="43.508106" lon="-6.434241">
        <ele>27.521</ele>
        <time>2019-06-19T12:21:26Z</time>
      </trkpt>
      <trkpt lat="43.508280" lon="-6.434194">
        <ele>27.871</ele>
        <time>2019-06-19T12:21:27Z</time>
      </trkpt>
      <trkpt lat="43.508448" lon="-6.434132">
        <ele>27.044</ele>
        <time>2019-06-19T12:21:28Z</time>
      </trkpt>
      <trkpt lat="43.508621" lon="-6.434032">
        <ele>26.305</ele>
        <time>2019-06-19T12:21:29Z</time>
      </trkpt>
      <trkpt lat="43.508789" lon="-6.433906">
        <ele>25.615</ele>
        <time>2019-06-19T12:21:30Z</time>
      </trkpt>
      <trkpt lat="43.508964" lon="-6.433795">
        <ele>23.808</ele>
        <time>2019-06-19T12:21:31Z</time>
      </trkpt>
      <trkpt lat="43.509124" lon="-6.433671">
        <ele>22.457</ele>
        <time>2019-06-19T12:21:32Z</time>
      </trkpt>
      <trkpt lat="43.509296" lon="-6.433569">
        <ele>21.431</ele>
        <time>2019-06-19T12:21:33Z</time>
      </trkpt>
      <trkpt lat="43.509448" lon="-6.433461">
        <ele>21.662</ele>
        <time>2019-06-19T12:21:34Z</time>
      </trkpt>
      <trkpt lat="43.509603" lon="-6.433356">
        <ele>22.255</ele>
        <time>2019-06-19T12:21:35Z</time>
      </trkpt>
      <trkpt lat="43.509755" lon="-6.433248">
        <ele>22.415</ele>
        <time>2019-06-19T12:21:36Z</time>
      </trkpt>
      <trkpt lat="43.509925" lon="-6.433152">
        <ele>23.491</ele>
        <time>2019-06-19T12:21:37Z</time>
      </trkpt>
      <trkpt lat="43.510086" lon="-6.433051">
        <ele>24.399</ele>
        <time>2019-06-19T12:21:38Z</time>
      </trkpt>
      <trkpt lat="43.510239" lon="-6.432973">
        <ele>24.979</ele>
        <time>2019-06-19T12:21:39Z</time>
      </trkpt>
      <trkpt lat="43.510402" lon="-6.432904">
        <ele>25.412</ele>
        <time>2019-06-19T12:21:40Z</time>
      </trkpt>
      <trkpt lat="43.510579" lon="-6.432861">
        <ele>25.932</ele>
        <time>2019-06-19T12:21:41Z</time>
      </trkpt>
      <trkpt lat="43.510754" lon="-6.432844">
        <ele>25.105</ele>
        <time>2019-06-19T12:21:42Z</time>
      </trkpt>
      <trkpt lat="43.510941" lon="-6.432849">
        <ele>24.008</ele>
        <time>2019-06-19T12:21:43Z</time>
      </trkpt>
      <trkpt lat="43.511143" lon="-6.432880">
        <ele>22.444</ele>
        <time>2019-06-19T12:21:44Z</time>
      </trkpt>
      <trkpt lat="43.511337" lon="-6.432898">
        <ele>20.918</ele>
        <time>2019-06-19T12:21:45Z</time>
      </trkpt>
      <trkpt lat="43.511536" lon="-6.432919">
        <ele>20.049</ele>
        <time>2019-06-19T12:21:46Z</time>
      </trkpt>
      <trkpt lat="43.511759" lon="-6.432951">
        <ele>19.452</ele>
        <time>2019-06-19T12:21:47Z</time>
      </trkpt>
      <trkpt lat="43.511974" lon="-6.432975">
        <ele>19.522</ele>
        <time>2019-06-19T12:21:48Z</time>
      </trkpt>
      <trkpt lat="43.512189" lon="-6.432999">
        <ele>20.888</ele>
        <time>2019-06-19T12:21:49Z</time>
      </trkpt>
      <trkpt lat="43.512400" lon="-6.433043">
        <ele>21.646</ele>
        <time>2019-06-19T12:21:50Z</time>
      </trkpt>
      <trkpt lat="43.512606" lon="-6.433076">
        <ele>22.796</ele>
        <time>2019-06-19T12:21:51Z</time>
      </trkpt>
      <trkpt lat="43.512803" lon="-6.433105">
        <ele>24.227</ele>
        <time>2019-06-19T12:21:52Z</time>
      </trkpt>
      <trkpt lat="43.513005" lon="-6.433135">
        <ele>26.568</ele>
        <time>2019-06-19T12:21:53Z</time>
      </trkpt>
      <trkpt lat="43.513212" lon="-6.433175">
        <ele>27.614</ele>
        <time>2019-06-19T12:21:54Z</time>
      </trkpt>
      <trkpt lat="43.513414" lon="-6.433206">
        <ele>27.808</ele>
        <time>2019-06-19T12:21:55Z</time>
      </trkpt>
      <trkpt lat="43.513626" lon="-6.433234">
        <ele>27.255</ele>
        <time>2019-06-19T12:21:56Z</time>
      </trkpt>
      <trkpt lat="43.513842" lon="-6.433258">
        <ele>27.779</ele>
        <time>2019-06-19T12:21:57Z</time>
      </trkpt>
      <trkpt lat="43.514047" lon="-6.433289">
        <ele>29.590</ele>
        <time>2019-06-19T12:21:58Z</time>
      </trkpt>
      <trkpt lat="43.514269" lon="-6.433316">
        <ele>30.843</ele>
        <time>2019-06-19T12:21:59Z</time>
      </trkpt>
      <trkpt lat="43.514481" lon="-6.433340">
        <ele>30.863</ele>
        <time>2019-06-19T12:22:00Z</time>
      </trkpt>
      <trkpt lat="43.514680" lon="-6.433373">
        <ele>30.139</ele>
        <time>2019-06-19T12:22:01Z</time>
      </trkpt>
      <trkpt lat="43.514874" lon="-6.433404">
        <ele>31.587</ele>
        <time>2019-06-19T12:22:02Z</time>
      </trkpt>
      <trkpt lat="43.515060" lon="-6.433434">
        <ele>32.917</ele>
        <time>2019-06-19T12:22:03Z</time>
      </trkpt>
      <trkpt lat="43.515250" lon="-6.433463">
        <ele>33.597</ele>
        <time>2019-06-19T12:22:04Z</time>
      </trkpt>
      <trkpt lat="43.515457" lon="-6.433501">
        <ele>32.523</ele>
        <time>2019-06-19T12:22:05Z</time>
      </trkpt>
      <trkpt lat="43.515657" lon="-6.433543">
        <ele>33.325</ele>
        <time>2019-06-19T12:22:06Z</time>
      </trkpt>
      <trkpt lat="43.515855" lon="-6.433614">
        <ele>35.708</ele>
        <time>2019-06-19T12:22:07Z</time>
      </trkpt>
      <trkpt lat="43.516040" lon="-6.433722">
        <ele>37.392</ele>
        <time>2019-06-19T12:22:08Z</time>
      </trkpt>
      <trkpt lat="43.516230" lon="-6.433840">
        <ele>37.766</ele>
        <time>2019-06-19T12:22:09Z</time>
      </trkpt>
      <trkpt lat="43.516411" lon="-6.433968">
        <ele>38.467</ele>
        <time>2019-06-19T12:22:10Z</time>
      </trkpt>
      <trkpt lat="43.516600" lon="-6.434104">
        <ele>36.350</ele>
        <time>2019-06-19T12:22:11Z</time>
      </trkpt>
      <trkpt lat="43.516769" lon="-6.434254">
        <ele>35.980</ele>
        <time>2019-06-19T12:22:12Z</time>
      </trkpt>
      <trkpt lat="43.516958" lon="-6.434401">
        <ele>37.036</ele>
        <time>2019-06-19T12:22:13Z</time>
      </trkpt>
      <trkpt lat="43.517153" lon="-6.434544">
        <ele>38.754</ele>
        <time>2019-06-19T12:22:14Z</time>
      </trkpt>
      <trkpt lat="43.517323" lon="-6.434661">
        <ele>39.494</ele>
        <time>2019-06-19T12:22:15Z</time>
      </trkpt>
      <trkpt lat="43.517472" lon="-6.434775">
        <ele>38.447</ele>
        <time>2019-06-19T12:22:16Z</time>
      </trkpt>
      <trkpt lat="43.517643" lon="-6.434922">
        <ele>35.829</ele>
        <time>2019-06-19T12:22:17Z</time>
      </trkpt>
      <trkpt lat="43.517800" lon="-6.435070">
        <ele>32.521</ele>
        <time>2019-06-19T12:22:18Z</time>
      </trkpt>
      <trkpt lat="43.517973" lon="-6.435199">
        <ele>29.808</ele>
        <time>2019-06-19T12:22:19Z</time>
      </trkpt>
      <trkpt lat="43.518139" lon="-6.435315">
        <ele>28.887</ele>
        <time>2019-06-19T12:22:20Z</time>
      </trkpt>
      <trkpt lat="43.518315" lon="-6.435441">
        <ele>28.431</ele>
        <time>2019-06-19T12:22:21Z</time>
      </trkpt>
      <trkpt lat="43.518492" lon="-6.435532">
        <ele>28.132</ele>
        <time>2019-06-19T12:22:22Z</time>
      </trkpt>
      <trkpt lat="43.518695" lon="-6.435589">
        <ele>30.625</ele>
        <time>2019-06-19T12:22:23Z</time>
      </trkpt>
      <trkpt lat="43.518899" lon="-6.435647">
        <ele>32.065</ele>
        <time>2019-06-19T12:22:24Z</time>
      </trkpt>
      <trkpt lat="43.519084" lon="-6.435695">
        <ele>29.661</ele>
        <time>2019-06-19T12:22:25Z</time>
      </trkpt>
      <trkpt lat="43.519278" lon="-6.435689">
        <ele>27.919</ele>
        <time>2019-06-19T12:22:26Z</time>
      </trkpt>
      <trkpt lat="43.519469" lon="-6.435643">
        <ele>26.289</ele>
        <time>2019-06-19T12:22:27Z</time>
      </trkpt>
      <trkpt lat="43.519657" lon="-6.435595">
        <ele>25.254</ele>
        <time>2019-06-19T12:22:28Z</time>
      </trkpt>
      <trkpt lat="43.519826" lon="-6.435520">
        <ele>25.556</ele>
        <time>2019-06-19T12:22:29Z</time>
      </trkpt>
      <trkpt lat="43.520057" lon="-6.435417">
        <ele>26.011</ele>
        <time>2019-06-19T12:22:30Z</time>
      </trkpt>
      <trkpt lat="43.520265" lon="-6.435276">
        <ele>27.108</ele>
        <time>2019-06-19T12:22:31Z</time>
      </trkpt>
      <trkpt lat="43.520471" lon="-6.435171">
        <ele>27.848</ele>
        <time>2019-06-19T12:22:32Z</time>
      </trkpt>
      <trkpt lat="43.520638" lon="-6.434986">
        <ele>29.532</ele>
        <time>2019-06-19T12:22:33Z</time>
      </trkpt>
      <trkpt lat="43.520817" lon="-6.434815">
        <ele>26.953</ele>
        <time>2019-06-19T12:22:34Z</time>
      </trkpt>
      <trkpt lat="43.520996" lon="-6.434622">
        <ele>27.116</ele>
        <time>2019-06-19T12:22:35Z</time>
      </trkpt>
      <trkpt lat="43.521176" lon="-6.434463">
        <ele>26.326</ele>
        <time>2019-06-19T12:22:36Z</time>
      </trkpt>
      <trkpt lat="43.521387" lon="-6.434320">
        <ele>22.252</ele>
        <time>2019-06-19T12:22:37Z</time>
      </trkpt>
      <trkpt lat="43.521589" lon="-6.434181">
        <ele>21.410</ele>
        <time>2019-06-19T12:22:38Z</time>
      </trkpt>
      <trkpt lat="43.521792" lon="-6.434042">
        <ele>21.420</ele>
        <time>2019-06-19T12:22:39Z</time>
      </trkpt>
      <trkpt lat="43.521971" lon="-6.433886">
        <ele>21.777</ele>
        <time>2019-06-19T12:22:40Z</time>
      </trkpt>
      <trkpt lat="43.522174" lon="-6.433745">
        <ele>21.961</ele>
        <time>2019-06-19T12:22:41Z</time>
      </trkpt>
      <trkpt lat="43.522362" lon="-6.433612">
        <ele>22.027</ele>
        <time>2019-06-19T12:22:42Z</time>
      </trkpt>
      <trkpt lat="43.522570" lon="-6.433501">
        <ele>20.608</ele>
        <time>2019-06-19T12:22:43Z</time>
      </trkpt>
      <trkpt lat="43.522757" lon="-6.433367">
        <ele>19.090</ele>
        <time>2019-06-19T12:22:44Z</time>
      </trkpt>
      <trkpt lat="43.522942" lon="-6.433243">
        <ele>21.064</ele>
        <time>2019-06-19T12:22:45Z</time>
      </trkpt>
      <trkpt lat="43.523137" lon="-6.433195">
        <ele>22.925</ele>
        <time>2019-06-19T12:22:46Z</time>
      </trkpt>
      <trkpt lat="43.523333" lon="-6.433147">
        <ele>26.778</ele>
        <time>2019-06-19T12:22:47Z</time>
      </trkpt>
      <trkpt lat="43.523536" lon="-6.433100">
        <ele>28.478</ele>
        <time>2019-06-19T12:22:48Z</time>
      </trkpt>
      <trkpt lat="43.523733" lon="-6.433069">
        <ele>29.114</ele>
        <time>2019-06-19T12:22:49Z</time>
      </trkpt>
      <trkpt lat="43.523852" lon="-6.433135">
        <ele>26.532</ele>
        <time>2019-06-19T12:22:50Z</time>
      </trkpt>
      <trkpt lat="43.524016" lon="-6.433208">
        <ele>26.642</ele>
        <time>2019-06-19T12:22:51Z</time>
      </trkpt>
      <trkpt lat="43.524210" lon="-6.433303">
        <ele>28.996</ele>
        <time>2019-06-19T12:22:52Z</time>
      </trkpt>
      <trkpt lat="43.524396" lon="-6.433438">
        <ele>30.731</ele>
        <time>2019-06-19T12:22:53Z</time>
      </trkpt>
      <trkpt lat="43.524570" lon="-6.433589">
        <ele>30.824</ele>
        <time>2019-06-19T12:22:54Z</time>
      </trkpt>
      <trkpt lat="43.524742" lon="-6.433772">
        <ele>30.508</ele>
        <time>2019-06-19T12:22:55Z</time>
      </trkpt>
      <trkpt lat="43.524886" lon="-6.433944">
        <ele>30.782</ele>
        <time>2019-06-19T12:22:56Z</time>
      </trkpt>
      <trkpt lat="43.525041" lon="-6.434176">
        <ele>31.066</ele>
        <time>2019-06-19T12:22:57Z</time>
      </trkpt>
      <trkpt lat="43.525241" lon="-6.434381">
        <ele>32.447</ele>
        <time>2019-06-19T12:22:58Z</time>
      </trkpt>
      <trkpt lat="43.525407" lon="-6.434574">
        <ele>36.990</ele>
        <time>2019-06-19T12:22:59Z</time>
      </trkpt>
      <trkpt lat="43.525522" lon="-6.434790">
        <ele>39.770</ele>
        <time>2019-06-19T12:23:00Z</time>
      </trkpt>
      <trkpt lat="43.525621" lon="-6.435011">
        <ele>43.696</ele>
        <time>2019-06-19T12:23:01Z</time>
      </trkpt>
      <trkpt lat="43.525681" lon="-6.435276">
        <ele>39.474</ele>
        <time>2019-06-19T12:23:02Z</time>
      </trkpt>
      <trkpt lat="43.525676" lon="-6.435640">
        <ele>32.244</ele>
        <time>2019-06-19T12:23:03Z</time>
      </trkpt>
      <trkpt lat="43.525728" lon="-6.435925">
        <ele>30.156</ele>
        <time>2019-06-19T12:23:04Z</time>
      </trkpt>
      <trkpt lat="43.525798" lon="-6.436210">
        <ele>29.259</ele>
        <time>2019-06-19T12:23:05Z</time>
      </trkpt>
      <trkpt lat="43.525931" lon="-6.436414">
        <ele>29.114</ele>
        <time>2019-06-19T12:23:06Z</time>
      </trkpt>
      <trkpt lat="43.526059" lon="-6.436639">
        <ele>25.008</ele>
        <time>2019-06-19T12:23:07Z</time>
      </trkpt>
      <trkpt lat="43.526194" lon="-6.436860">
        <ele>21.028</ele>
        <time>2019-06-19T12:23:08Z</time>
      </trkpt>
      <trkpt lat="43.526352" lon="-6.436950">
        <ele>21.232</ele>
        <time>2019-06-19T12:23:09Z</time>
      </trkpt>
      <trkpt lat="43.526523" lon="-6.437099">
        <ele>21.663</ele>
        <time>2019-06-19T12:23:10Z</time>
      </trkpt>
      <trkpt lat="43.526767" lon="-6.437237">
        <ele>22.136</ele>
        <time>2019-06-19T12:23:11Z</time>
      </trkpt>
      <trkpt lat="43.526957" lon="-6.437389">
        <ele>19.746</ele>
        <time>2019-06-19T12:23:12Z</time>
      </trkpt>
      <trkpt lat="43.527158" lon="-6.437540">
        <ele>17.182</ele>
        <time>2019-06-19T12:23:13Z</time>
      </trkpt>
      <trkpt lat="43.527352" lon="-6.437718">
        <ele>16.260</ele>
        <time>2019-06-19T12:23:14Z</time>
      </trkpt>
      <trkpt lat="43.527557" lon="-6.437877">
        <ele>15.520</ele>
        <time>2019-06-19T12:23:15Z</time>
      </trkpt>
      <trkpt lat="43.527753" lon="-6.438033">
        <ele>14.364</ele>
        <time>2019-06-19T12:23:16Z</time>
      </trkpt>
      <trkpt lat="43.527954" lon="-6.438168">
        <ele>14.106</ele>
        <time>2019-06-19T12:23:17Z</time>
      </trkpt>
      <trkpt lat="43.528140" lon="-6.438306">
        <ele>16.016</ele>
        <time>2019-06-19T12:23:18Z</time>
      </trkpt>
      <trkpt lat="43.528318" lon="-6.438444">
        <ele>19.308</ele>
        <time>2019-06-19T12:23:19Z</time>
      </trkpt>
      <trkpt lat="43.528465" lon="-6.438574">
        <ele>23.339</ele>
        <time>2019-06-19T12:23:20Z</time>
      </trkpt>
      <trkpt lat="43.528627" lon="-6.438700">
        <ele>25.163</ele>
        <time>2019-06-19T12:23:21Z</time>
      </trkpt>
      <trkpt lat="43.528760" lon="-6.438780">
        <ele>25.554</ele>
        <time>2019-06-19T12:23:22Z</time>
      </trkpt>
      <trkpt lat="43.528918" lon="-6.438880">
        <ele>25.017</ele>
        <time>2019-06-19T12:23:23Z</time>
      </trkpt>
      <trkpt lat="43.529093" lon="-6.438988">
        <ele>25.547</ele>
        <time>2019-06-19T12:23:24Z</time>
      </trkpt>
      <trkpt lat="43.529275" lon="-6.439083">
        <ele>25.133</ele>
        <time>2019-06-19T12:23:25Z</time>
      </trkpt>
      <trkpt lat="43.529466" lon="-6.439155">
        <ele>24.551</ele>
        <time>2019-06-19T12:23:26Z</time>
      </trkpt>
      <trkpt lat="43.529651" lon="-6.439192">
        <ele>23.491</ele>
        <time>2019-06-19T12:23:27Z</time>
      </trkpt>
      <trkpt lat="43.529849" lon="-6.439199">
        <ele>22.755</ele>
        <time>2019-06-19T12:23:28Z</time>
      </trkpt>
      <trkpt lat="43.530003" lon="-6.439192">
        <ele>22.407</ele>
        <time>2019-06-19T12:23:29Z</time>
      </trkpt>
      <trkpt lat="43.530218" lon="-6.439204">
        <ele>21.217</ele>
        <time>2019-06-19T12:23:30Z</time>
      </trkpt>
      <trkpt lat="43.530416" lon="-6.439226">
        <ele>18.208</ele>
        <time>2019-06-19T12:23:31Z</time>
      </trkpt>
      <trkpt lat="43.530595" lon="-6.439245">
        <ele>15.788</ele>
        <time>2019-06-19T12:23:32Z</time>
      </trkpt>
      <trkpt lat="43.530768" lon="-6.439275">
        <ele>14.532</ele>
        <time>2019-06-19T12:23:33Z</time>
      </trkpt>
      <trkpt lat="43.530941" lon="-6.439378">
        <ele>15.353</ele>
        <time>2019-06-19T12:23:34Z</time>
      </trkpt>
      <trkpt lat="43.531104" lon="-6.439456">
        <ele>17.866</ele>
        <time>2019-06-19T12:23:35Z</time>
      </trkpt>
      <trkpt lat="43.531225" lon="-6.439620">
        <ele>20.696</ele>
        <time>2019-06-19T12:23:36Z</time>
      </trkpt>
      <trkpt lat="43.531349" lon="-6.439774">
        <ele>23.242</ele>
        <time>2019-06-19T12:23:37Z</time>
      </trkpt>
      <trkpt lat="43.531495" lon="-6.439916">
        <ele>23.540</ele>
        <time>2019-06-19T12:23:38Z</time>
      </trkpt>
      <trkpt lat="43.531661" lon="-6.440092">
        <ele>22.020</ele>
        <time>2019-06-19T12:23:39Z</time>
      </trkpt>
      <trkpt lat="43.531803" lon="-6.440251">
        <ele>20.159</ele>
        <time>2019-06-19T12:23:40Z</time>
      </trkpt>
      <trkpt lat="43.531973" lon="-6.440338">
        <ele>20.403</ele>
        <time>2019-06-19T12:23:41Z</time>
      </trkpt>
      <trkpt lat="43.532137" lon="-6.440441">
        <ele>20.723</ele>
        <time>2019-06-19T12:23:42Z</time>
      </trkpt>
      <trkpt lat="43.532288" lon="-6.440553">
        <ele>20.008</ele>
        <time>2019-06-19T12:23:43Z</time>
      </trkpt>
      <trkpt lat="43.532414" lon="-6.440598">
        <ele>19.638</ele>
        <time>2019-06-19T12:23:44Z</time>
      </trkpt>
      <trkpt lat="43.532582" lon="-6.440661">
        <ele>19.062</ele>
        <time>2019-06-19T12:23:45Z</time>
      </trkpt>
      <trkpt lat="43.532867" lon="-6.440610">
        <ele>20.513</ele>
        <time>2019-06-19T12:23:46Z</time>
      </trkpt>
      <trkpt lat="43.533083" lon="-6.440619">
        <ele>20.746</ele>
        <time>2019-06-19T12:23:47Z</time>
      </trkpt>
      <trkpt lat="43.533301" lon="-6.440640">
        <ele>19.086</ele>
        <time>2019-06-19T12:23:48Z</time>
      </trkpt>
      <trkpt lat="43.533521" lon="-6.440651">
        <ele>18.422</ele>
        <time>2019-06-19T12:23:49Z</time>
      </trkpt>
      <trkpt lat="43.533754" lon="-6.440666">
        <ele>19.670</ele>
        <time>2019-06-19T12:23:50Z</time>
      </trkpt>
      <trkpt lat="43.533973" lon="-6.440679">
        <ele>21.320</ele>
        <time>2019-06-19T12:23:51Z</time>
      </trkpt>
      <trkpt lat="43.534197" lon="-6.440700">
        <ele>21.859</ele>
        <time>2019-06-19T12:23:52Z</time>
      </trkpt>
      <trkpt lat="43.534414" lon="-6.440710">
        <ele>21.703</ele>
        <time>2019-06-19T12:23:53Z</time>
      </trkpt>
      <trkpt lat="43.534633" lon="-6.440720">
        <ele>20.523</ele>
        <time>2019-06-19T12:23:54Z</time>
      </trkpt>
      <trkpt lat="43.534861" lon="-6.440732">
        <ele>18.508</ele>
        <time>2019-06-19T12:23:55Z</time>
      </trkpt>
      <trkpt lat="43.535057" lon="-6.440739">
        <ele>16.718</ele>
        <time>2019-06-19T12:23:56Z</time>
      </trkpt>
      <trkpt lat="43.535268" lon="-6.440751">
        <ele>15.432</ele>
        <time>2019-06-19T12:23:57Z</time>
      </trkpt>
      <trkpt lat="43.535487" lon="-6.440771">
        <ele>12.633</ele>
        <time>2019-06-19T12:23:58Z</time>
      </trkpt>
      <trkpt lat="43.535698" lon="-6.440783">
        <ele>10.786</ele>
        <time>2019-06-19T12:23:59Z</time>
      </trkpt>
      <trkpt lat="43.535900" lon="-6.440796">
        <ele>10.056</ele>
        <time>2019-06-19T12:24:00Z</time>
      </trkpt>
      <trkpt lat="43.536104" lon="-6.440813">
        <ele>10.942</ele>
        <time>2019-06-19T12:24:01Z</time>
      </trkpt>
      <trkpt lat="43.536307" lon="-6.440840">
        <ele>12.450</ele>
        <time>2019-06-19T12:24:02Z</time>
      </trkpt>
      <trkpt lat="43.536503" lon="-6.440860">
        <ele>12.910</ele>
        <time>2019-06-19T12:24:03Z</time>
      </trkpt>
      <trkpt lat="43.536685" lon="-6.440867">
        <ele>12.774</ele>
        <time>2019-06-19T12:24:04Z</time>
      </trkpt>
      <trkpt lat="43.536883" lon="-6.440890">
        <ele>11.156</ele>
        <time>2019-06-19T12:24:05Z</time>
      </trkpt>
      <trkpt lat="43.537070" lon="-6.440927">
        <ele>9.421</ele>
        <time>2019-06-19T12:24:06Z</time>
      </trkpt>
      <trkpt lat="43.537268" lon="-6.440986">
        <ele>8.008</ele>
        <time>2019-06-19T12:24:07Z</time>
      </trkpt>
      <trkpt lat="43.537455" lon="-6.441073">
        <ele>7.470</ele>
        <time>2019-06-19T12:24:08Z</time>
      </trkpt>
      <trkpt lat="43.537656" lon="-6.441174">
        <ele>8.354</ele>
        <time>2019-06-19T12:24:09Z</time>
      </trkpt>
      <trkpt lat="43.537817" lon="-6.441290">
        <ele>9.735</ele>
        <time>2019-06-19T12:24:10Z</time>
      </trkpt>
      <trkpt lat="43.537957" lon="-6.441435">
        <ele>12.388</ele>
        <time>2019-06-19T12:24:11Z</time>
      </trkpt>
      <trkpt lat="43.538115" lon="-6.441613">
        <ele>15.558</ele>
        <time>2019-06-19T12:24:12Z</time>
      </trkpt>
      <trkpt lat="43.538222" lon="-6.441859">
        <ele>18.994</ele>
        <time>2019-06-19T12:24:13Z</time>
      </trkpt>
      <trkpt lat="43.538349" lon="-6.442076">
        <ele>22.012</ele>
        <time>2019-06-19T12:24:14Z</time>
      </trkpt>
      <trkpt lat="43.538495" lon="-6.442294">
        <ele>25.412</ele>
        <time>2019-06-19T12:24:15Z</time>
      </trkpt>
      <trkpt lat="43.538597" lon="-6.442563">
        <ele>27.638</ele>
        <time>2019-06-19T12:24:16Z</time>
      </trkpt>
      <trkpt lat="43.538677" lon="-6.442799">
        <ele>30.370</ele>
        <time>2019-06-19T12:24:17Z</time>
      </trkpt>
      <trkpt lat="43.538729" lon="-6.443080">
        <ele>31.717</ele>
        <time>2019-06-19T12:24:18Z</time>
      </trkpt>
      <trkpt lat="43.538767" lon="-6.443390">
        <ele>33.708</ele>
        <time>2019-06-19T12:24:19Z</time>
      </trkpt>
      <trkpt lat="43.538816" lon="-6.443681">
        <ele>36.176</ele>
        <time>2019-06-19T12:24:20Z</time>
      </trkpt>
      <trkpt lat="43.538853" lon="-6.443966">
        <ele>38.740</ele>
        <time>2019-06-19T12:24:21Z</time>
      </trkpt>
      <trkpt lat="43.538845" lon="-6.444248">
        <ele>39.111</ele>
        <time>2019-06-19T12:24:22Z</time>
      </trkpt>
      <trkpt lat="43.538816" lon="-6.444506">
        <ele>39.494</ele>
        <time>2019-06-19T12:24:23Z</time>
      </trkpt>
      <trkpt lat="43.538694" lon="-6.444692">
        <ele>36.814</ele>
        <time>2019-06-19T12:24:24Z</time>
      </trkpt>
      <trkpt lat="43.538576" lon="-6.444946">
        <ele>35.220</ele>
        <time>2019-06-19T12:24:25Z</time>
      </trkpt>
      <trkpt lat="43.538497" lon="-6.445188">
        <ele>33.478</ele>
        <time>2019-06-19T12:24:26Z</time>
      </trkpt>
      <trkpt lat="43.538391" lon="-6.445381">
        <ele>30.718</ele>
        <time>2019-06-19T12:24:27Z</time>
      </trkpt>
      <trkpt lat="43.538287" lon="-6.445593">
        <ele>27.875</ele>
        <time>2019-06-19T12:24:28Z</time>
      </trkpt>
      <trkpt lat="43.538165" lon="-6.445797">
        <ele>24.828</ele>
        <time>2019-06-19T12:24:29Z</time>
      </trkpt>
      <trkpt lat="43.538084" lon="-6.446024">
        <ele>22.720</ele>
        <time>2019-06-19T12:24:30Z</time>
      </trkpt>
      <trkpt lat="43.537953" lon="-6.446249">
        <ele>20.108</ele>
        <time>2019-06-19T12:24:31Z</time>
      </trkpt>
      <trkpt lat="43.537847" lon="-6.446445">
        <ele>17.910</ele>
        <time>2019-06-19T12:24:32Z</time>
      </trkpt>
      <trkpt lat="43.537738" lon="-6.446631">
        <ele>16.034</ele>
        <time>2019-06-19T12:24:33Z</time>
      </trkpt>
      <trkpt lat="43.537693" lon="-6.446801">
        <ele>15.525</ele>
        <time>2019-06-19T12:24:34Z</time>
      </trkpt>
      <trkpt lat="43.537642" lon="-6.446989">
        <ele>14.858</ele>
        <time>2019-06-19T12:24:35Z</time>
      </trkpt>
      <trkpt lat="43.537593" lon="-6.447167">
        <ele>14.718</ele>
        <time>2019-06-19T12:24:36Z</time>
      </trkpt>
      <trkpt lat="43.537607" lon="-6.447322">
        <ele>15.284</ele>
        <time>2019-06-19T12:24:37Z</time>
      </trkpt>
      <trkpt lat="43.537664" lon="-6.447579">
        <ele>16.452</ele>
        <time>2019-06-19T12:24:38Z</time>
      </trkpt>
      <trkpt lat="43.537678" lon="-6.447792">
        <ele>17.962</ele>
        <time>2019-06-19T12:24:39Z</time>
      </trkpt>
      <trkpt lat="43.537725" lon="-6.448009">
        <ele>20.556</ele>
        <time>2019-06-19T12:24:40Z</time>
      </trkpt>
      <trkpt lat="43.537718" lon="-6.448241">
        <ele>21.559</ele>
        <time>2019-06-19T12:24:41Z</time>
      </trkpt>
      <trkpt lat="43.537715" lon="-6.448445">
        <ele>21.914</ele>
        <time>2019-06-19T12:24:42Z</time>
      </trkpt>
      <trkpt lat="43.537729" lon="-6.448645">
        <ele>21.908</ele>
        <time>2019-06-19T12:24:43Z</time>
      </trkpt>
      <trkpt lat="43.537745" lon="-6.448775">
        <ele>21.238</ele>
        <time>2019-06-19T12:24:44Z</time>
      </trkpt>
      <trkpt lat="43.537766" lon="-6.448950">
        <ele>20.182</ele>
        <time>2019-06-19T12:24:45Z</time>
      </trkpt>
      <trkpt lat="43.537821" lon="-6.449126">
        <ele>19.193</ele>
        <time>2019-06-19T12:24:46Z</time>
      </trkpt>
      <trkpt lat="43.537859" lon="-6.449302">
        <ele>17.696</ele>
        <time>2019-06-19T12:24:47Z</time>
      </trkpt>
      <trkpt lat="43.537978" lon="-6.449449">
        <ele>17.156</ele>
        <time>2019-06-19T12:24:48Z</time>
      </trkpt>
      <trkpt lat="43.538082" lon="-6.449614">
        <ele>15.812</ele>
        <time>2019-06-19T12:24:49Z</time>
      </trkpt>
      <trkpt lat="43.538160" lon="-6.449774">
        <ele>14.220</ele>
        <time>2019-06-19T12:24:50Z</time>
      </trkpt>
      <trkpt lat="43.538245" lon="-6.449933">
        <ele>13.120</ele>
        <time>2019-06-19T12:24:51Z</time>
      </trkpt>
      <trkpt lat="43.538349" lon="-6.450081">
        <ele>13.079</ele>
        <time>2019-06-19T12:24:52Z</time>
      </trkpt>
      <trkpt lat="43.538467" lon="-6.450234">
        <ele>13.805</ele>
        <time>2019-06-19T12:24:53Z</time>
      </trkpt>
      <trkpt lat="43.538597" lon="-6.450356">
        <ele>14.325</ele>
        <time>2019-06-19T12:24:54Z</time>
      </trkpt>
      <trkpt lat="43.538710" lon="-6.450478">
        <ele>15.108</ele>
        <time>2019-06-19T12:24:55Z</time>
      </trkpt>
      <trkpt lat="43.538815" lon="-6.450575">
        <ele>15.760</ele>
        <time>2019-06-19T12:24:56Z</time>
      </trkpt>
      <trkpt lat="43.538937" lon="-6.450648">
        <ele>16.334</ele>
        <time>2019-06-19T12:24:57Z</time>
      </trkpt>
      <trkpt lat="43.539098" lon="-6.450699">
        <ele>17.025</ele>
        <time>2019-06-19T12:24:58Z</time>
      </trkpt>
      <trkpt lat="43.539245" lon="-6.450749">
        <ele>17.238</ele>
        <time>2019-06-19T12:24:59Z</time>
      </trkpt>
      <trkpt lat="43.539383" lon="-6.450797">
        <ele>16.668</ele>
        <time>2019-06-19T12:25:00Z</time>
      </trkpt>
      <trkpt lat="43.539502" lon="-6.450814">
        <ele>16.074</ele>
        <time>2019-06-19T12:25:01Z</time>
      </trkpt>
      <trkpt lat="43.539643" lon="-6.450814">
        <ele>15.422</ele>
        <time>2019-06-19T12:25:02Z</time>
      </trkpt>
      <trkpt lat="43.539766" lon="-6.450804">
        <ele>15.272</ele>
        <time>2019-06-19T12:25:03Z</time>
      </trkpt>
      <trkpt lat="43.539909" lon="-6.450797">
        <ele>15.297</ele>
        <time>2019-06-19T12:25:04Z</time>
      </trkpt>
      <trkpt lat="43.540033" lon="-6.450837">
        <ele>15.123</ele>
        <time>2019-06-19T12:25:05Z</time>
      </trkpt>
      <trkpt lat="43.540137" lon="-6.450882">
        <ele>15.525</ele>
        <time>2019-06-19T12:25:06Z</time>
      </trkpt>
      <trkpt lat="43.540243" lon="-6.450966">
        <ele>16.608</ele>
        <time>2019-06-19T12:25:07Z</time>
      </trkpt>
      <trkpt lat="43.540320" lon="-6.451018">
        <ele>18.572</ele>
        <time>2019-06-19T12:25:08Z</time>
      </trkpt>
      <trkpt lat="43.540406" lon="-6.451182">
        <ele>22.956</ele>
        <time>2019-06-19T12:25:09Z</time>
      </trkpt>
      <trkpt lat="43.540433" lon="-6.451316">
        <ele>25.367</ele>
        <time>2019-06-19T12:25:10Z</time>
      </trkpt>
      <trkpt lat="43.540463" lon="-6.451514">
        <ele>27.610</ele>
        <time>2019-06-19T12:25:11Z</time>
      </trkpt>
      <trkpt lat="43.540455" lon="-6.451721">
        <ele>27.550</ele>
        <time>2019-06-19T12:25:12Z</time>
      </trkpt>
      <trkpt lat="43.540434" lon="-6.451895">
        <ele>26.356</ele>
        <time>2019-06-19T12:25:13Z</time>
      </trkpt>
      <trkpt lat="43.540436" lon="-6.452063">
        <ele>25.044</ele>
        <time>2019-06-19T12:25:14Z</time>
      </trkpt>
      <trkpt lat="43.540432" lon="-6.452280">
        <ele>22.294</ele>
        <time>2019-06-19T12:25:15Z</time>
      </trkpt>
      <trkpt lat="43.540456" lon="-6.452482">
        <ele>19.795</ele>
        <time>2019-06-19T12:25:16Z</time>
      </trkpt>
      <trkpt lat="43.540480" lon="-6.452700">
        <ele>18.249</ele>
        <time>2019-06-19T12:25:17Z</time>
      </trkpt>
      <trkpt lat="43.540512" lon="-6.452911">
        <ele>17.523</ele>
        <time>2019-06-19T12:25:18Z</time>
      </trkpt>
      <trkpt lat="43.540539" lon="-6.453110">
        <ele>17.008</ele>
        <time>2019-06-19T12:25:19Z</time>
      </trkpt>
      <trkpt lat="43.540572" lon="-6.453294">
        <ele>16.172</ele>
        <time>2019-06-19T12:25:20Z</time>
      </trkpt>
      <trkpt lat="43.540620" lon="-6.453495">
        <ele>16.166</ele>
        <time>2019-06-19T12:25:21Z</time>
      </trkpt>
      <trkpt lat="43.540661" lon="-6.453683">
        <ele>15.927</ele>
        <time>2019-06-19T12:25:22Z</time>
      </trkpt>
      <trkpt lat="43.540756" lon="-6.453838">
        <ele>16.940</ele>
        <time>2019-06-19T12:25:23Z</time>
      </trkpt>
      <trkpt lat="43.540834" lon="-6.454018">
        <ele>15.250</ele>
        <time>2019-06-19T12:25:24Z</time>
      </trkpt>
      <trkpt lat="43.540940" lon="-6.454181">
        <ele>12.966</ele>
        <time>2019-06-19T12:25:25Z</time>
      </trkpt>
      <trkpt lat="43.541087" lon="-6.454360">
        <ele>10.734</ele>
        <time>2019-06-19T12:25:26Z</time>
      </trkpt>
      <trkpt lat="43.541234" lon="-6.454530">
        <ele>9.164</ele>
        <time>2019-06-19T12:25:27Z</time>
      </trkpt>
      <trkpt lat="43.541360" lon="-6.454697">
        <ele>8.912</ele>
        <time>2019-06-19T12:25:28Z</time>
      </trkpt>
      <trkpt lat="43.541487" lon="-6.454868">
        <ele>8.732</ele>
        <time>2019-06-19T12:25:29Z</time>
      </trkpt>
      <trkpt lat="43.541604" lon="-6.455030">
        <ele>8.405</ele>
        <time>2019-06-19T12:25:30Z</time>
      </trkpt>
      <trkpt lat="43.541727" lon="-6.455177">
        <ele>8.108</ele>
        <time>2019-06-19T12:25:31Z</time>
      </trkpt>
      <trkpt lat="43.541839" lon="-6.455335">
        <ele>7.684</ele>
        <time>2019-06-19T12:25:32Z</time>
      </trkpt>
      <trkpt lat="43.541931" lon="-6.455483">
        <ele>8.068</ele>
        <time>2019-06-19T12:25:33Z</time>
      </trkpt>
      <trkpt lat="43.542032" lon="-6.455636">
        <ele>8.979</ele>
        <time>2019-06-19T12:25:34Z</time>
      </trkpt>
      <trkpt lat="43.542122" lon="-6.455795">
        <ele>10.122</ele>
        <time>2019-06-19T12:25:35Z</time>
      </trkpt>
      <trkpt lat="43.542165" lon="-6.456010">
        <ele>12.192</ele>
        <time>2019-06-19T12:25:36Z</time>
      </trkpt>
      <trkpt lat="43.542210" lon="-6.456206">
        <ele>14.438</ele>
        <time>2019-06-19T12:25:37Z</time>
      </trkpt>
      <trkpt lat="43.542242" lon="-6.456407">
        <ele>16.976</ele>
        <time>2019-06-19T12:25:38Z</time>
      </trkpt>
      <trkpt lat="43.542232" lon="-6.456620">
        <ele>19.666</ele>
        <time>2019-06-19T12:25:39Z</time>
      </trkpt>
      <trkpt lat="43.542195" lon="-6.456854">
        <ele>21.978</ele>
        <time>2019-06-19T12:25:40Z</time>
      </trkpt>
      <trkpt lat="43.542129" lon="-6.457054">
        <ele>23.033</ele>
        <time>2019-06-19T12:25:41Z</time>
      </trkpt>
      <trkpt lat="43.542059" lon="-6.457263">
        <ele>24.226</ele>
        <time>2019-06-19T12:25:42Z</time>
      </trkpt>
      <trkpt lat="43.541945" lon="-6.457392">
        <ele>22.208</ele>
        <time>2019-06-19T12:25:43Z</time>
      </trkpt>
      <trkpt lat="43.541858" lon="-6.457545">
        <ele>21.180</ele>
        <time>2019-06-19T12:25:44Z</time>
      </trkpt>
      <trkpt lat="43.541782" lon="-6.457701">
        <ele>19.934</ele>
        <time>2019-06-19T12:25:45Z</time>
      </trkpt>
      <trkpt lat="43.541721" lon="-6.457849">
        <ele>19.395</ele>
        <time>2019-06-19T12:25:46Z</time>
      </trkpt>
      <trkpt lat="43.541690" lon="-6.458007">
        <ele>20.158</ele>
        <time>2019-06-19T12:25:47Z</time>
      </trkpt>
      <trkpt lat="43.541663" lon="-6.458153">
        <ele>19.268</ele>
        <time>2019-06-19T12:25:48Z</time>
      </trkpt>
      <trkpt lat="43.541706" lon="-6.458375">
        <ele>18.284</ele>
        <time>2019-06-19T12:25:49Z</time>
      </trkpt>
      <trkpt lat="43.541728" lon="-6.458550">
        <ele>15.522</ele>
        <time>2019-06-19T12:25:50Z</time>
      </trkpt>
      <trkpt lat="43.541748" lon="-6.458720">
        <ele>12.642</ele>
        <time>2019-06-19T12:25:51Z</time>
      </trkpt>
      <trkpt lat="43.541807" lon="-6.458874">
        <ele>10.396</ele>
        <time>2019-06-19T12:25:52Z</time>
      </trkpt>
      <trkpt lat="43.541920" lon="-6.459031">
        <ele>9.531</ele>
        <time>2019-06-19T12:25:53Z</time>
      </trkpt>
      <trkpt lat="43.542050" lon="-6.459160">
        <ele>9.624</ele>
        <time>2019-06-19T12:25:54Z</time>
      </trkpt>
      <trkpt lat="43.542247" lon="-6.459183">
        <ele>12.008</ele>
        <time>2019-06-19T12:25:55Z</time>
      </trkpt>
      <trkpt lat="43.542388" lon="-6.459273">
        <ele>11.822</ele>
        <time>2019-06-19T12:25:56Z</time>
      </trkpt>
      <trkpt lat="43.542512" lon="-6.459357">
        <ele>11.416</ele>
        <time>2019-06-19T12:25:57Z</time>
      </trkpt>
      <trkpt lat="43.542626" lon="-6.459462">
        <ele>11.247</ele>
        <time>2019-06-19T12:25:58Z</time>
      </trkpt>
      <trkpt lat="43.542727" lon="-6.459574">
        <ele>10.840</ele>
        <time>2019-06-19T12:25:59Z</time>
      </trkpt>
      <trkpt lat="43.542796" lon="-6.459696">
        <ele>9.750</ele>
        <time>2019-06-19T12:26:00Z</time>
      </trkpt>
      <trkpt lat="43.542866" lon="-6.459823">
        <ele>9.346</ele>
        <time>2019-06-19T12:26:01Z</time>
      </trkpt>
      <trkpt lat="43.542926" lon="-6.459938">
        <ele>8.874</ele>
        <time>2019-06-19T12:26:02Z</time>
      </trkpt>
      <trkpt lat="43.542986" lon="-6.460041">
        <ele>8.464</ele>
        <time>2019-06-19T12:26:03Z</time>
      </trkpt>
      <trkpt lat="43.543039" lon="-6.460138">
        <ele>8.495</ele>
        <time>2019-06-19T12:26:04Z</time>
      </trkpt>
      <trkpt lat="43.543064" lon="-6.460238">
        <ele>8.149</ele>
        <time>2019-06-19T12:26:05Z</time>
      </trkpt>
      <trkpt lat="43.543065" lon="-6.460341">
        <ele>8.223</ele>
        <time>2019-06-19T12:26:06Z</time>
      </trkpt>
      <trkpt lat="43.543042" lon="-6.460461">
        <ele>8.708</ele>
        <time>2019-06-19T12:26:07Z</time>
      </trkpt>
      <trkpt lat="43.543014" lon="-6.460593">
        <ele>9.062</ele>
        <time>2019-06-19T12:26:08Z</time>
      </trkpt>
      <trkpt lat="43.542984" lon="-6.460767">
        <ele>8.866</ele>
        <time>2019-06-19T12:26:09Z</time>
      </trkpt>
      <trkpt lat="43.542947" lon="-6.460951">
        <ele>8.487</ele>
        <time>2019-06-19T12:26:10Z</time>
      </trkpt>
      <trkpt lat="43.542904" lon="-6.461123">
        <ele>7.990</ele>
        <time>2019-06-19T12:26:11Z</time>
      </trkpt>
      <trkpt lat="43.542862" lon="-6.461297">
        <ele>8.130</ele>
        <time>2019-06-19T12:26:12Z</time>
      </trkpt>
      <trkpt lat="43.542807" lon="-6.461491">
        <ele>8.826</ele>
        <time>2019-06-19T12:26:13Z</time>
      </trkpt>
      <trkpt lat="43.542769" lon="-6.461666">
        <ele>9.124</ele>
        <time>2019-06-19T12:26:14Z</time>
      </trkpt>
      <trkpt lat="43.542734" lon="-6.461803">
        <ele>10.364</ele>
        <time>2019-06-19T12:26:15Z</time>
      </trkpt>
      <trkpt lat="43.542698" lon="-6.461952">
        <ele>11.314</ele>
        <time>2019-06-19T12:26:16Z</time>
      </trkpt>
      <trkpt lat="43.542674" lon="-6.462059">
        <ele>11.954</ele>
        <time>2019-06-19T12:26:17Z</time>
      </trkpt>
      <trkpt lat="43.542659" lon="-6.462223">
        <ele>12.609</ele>
        <time>2019-06-19T12:26:18Z</time>
      </trkpt>
      <trkpt lat="43.542647" lon="-6.462385">
        <ele>14.308</ele>
        <time>2019-06-19T12:26:19Z</time>
      </trkpt>
      <trkpt lat="43.542706" lon="-6.462386">
        <ele>14.884</ele>
        <time>2019-06-19T12:26:20Z</time>
      </trkpt>
      <trkpt lat="43.542776" lon="-6.462365">
        <ele>15.078</ele>
        <time>2019-06-19T12:26:21Z</time>
      </trkpt>
      <trkpt lat="43.542875" lon="-6.462410">
        <ele>16.559</ele>
        <time>2019-06-19T12:26:22Z</time>
      </trkpt>
      <trkpt lat="43.543016" lon="-6.462395">
        <ele>17.472</ele>
        <time>2019-06-19T12:26:23Z</time>
      </trkpt>
      <trkpt lat="43.543246" lon="-6.462413">
        <ele>16.872</ele>
        <time>2019-06-19T12:26:24Z</time>
      </trkpt>
      <trkpt lat="43.543369" lon="-6.462443">
        <ele>16.158</ele>
        <time>2019-06-19T12:26:25Z</time>
      </trkpt>
      <trkpt lat="43.543456" lon="-6.462504">
        <ele>15.986</ele>
        <time>2019-06-19T12:26:26Z</time>
      </trkpt>
      <trkpt lat="43.543562" lon="-6.462561">
        <ele>15.196</ele>
        <time>2019-06-19T12:26:27Z</time>
      </trkpt>
      <trkpt lat="43.543666" lon="-6.462664">
        <ele>14.545</ele>
        <time>2019-06-19T12:26:28Z</time>
      </trkpt>
      <trkpt lat="43.543818" lon="-6.462788">
        <ele>13.047</ele>
        <time>2019-06-19T12:26:29Z</time>
      </trkpt>
      <trkpt lat="43.543931" lon="-6.462969">
        <ele>12.811</ele>
        <time>2019-06-19T12:26:30Z</time>
      </trkpt>
      <trkpt lat="43.544076" lon="-6.463133">
        <ele>11.208</ele>
        <time>2019-06-19T12:26:31Z</time>
      </trkpt>
      <trkpt lat="43.544222" lon="-6.463303">
        <ele>7.757</ele>
        <time>2019-06-19T12:26:32Z</time>
      </trkpt>
      <trkpt lat="43.544359" lon="-6.463484">
        <ele>6.181</ele>
        <time>2019-06-19T12:26:33Z</time>
      </trkpt>
      <trkpt lat="43.544506" lon="-6.463644">
        <ele>4.262</ele>
        <time>2019-06-19T12:26:34Z</time>
      </trkpt>
      <trkpt lat="43.544656" lon="-6.463809">
        <ele>4.545</ele>
        <time>2019-06-19T12:26:35Z</time>
      </trkpt>
      <trkpt lat="43.544787" lon="-6.463977">
        <ele>4.815</ele>
        <time>2019-06-19T12:26:36Z</time>
      </trkpt>
      <trkpt lat="43.544928" lon="-6.464153">
        <ele>4.941</ele>
        <time>2019-06-19T12:26:37Z</time>
      </trkpt>
      <trkpt lat="43.545069" lon="-6.464336">
        <ele>6.069</ele>
        <time>2019-06-19T12:26:38Z</time>
      </trkpt>
      <trkpt lat="43.545205" lon="-6.464499">
        <ele>7.399</ele>
        <time>2019-06-19T12:26:39Z</time>
      </trkpt>
      <trkpt lat="43.545340" lon="-6.464664">
        <ele>8.444</ele>
        <time>2019-06-19T12:26:40Z</time>
      </trkpt>
      <trkpt lat="43.545490" lon="-6.464828">
        <ele>8.805</ele>
        <time>2019-06-19T12:26:41Z</time>
      </trkpt>
      <trkpt lat="43.545623" lon="-6.464990">
        <ele>9.615</ele>
        <time>2019-06-19T12:26:42Z</time>
      </trkpt>
      <trkpt lat="43.545706" lon="-6.465126">
        <ele>11.008</ele>
        <time>2019-06-19T12:26:43Z</time>
      </trkpt>
      <trkpt lat="43.545818" lon="-6.465273">
        <ele>12.297</ele>
        <time>2019-06-19T12:26:44Z</time>
      </trkpt>
      <trkpt lat="43.545919" lon="-6.465418">
        <ele>14.091</ele>
        <time>2019-06-19T12:26:45Z</time>
      </trkpt>
      <trkpt lat="43.545995" lon="-6.465580">
        <ele>15.982</ele>
        <time>2019-06-19T12:26:46Z</time>
      </trkpt>
      <trkpt lat="43.546054" lon="-6.465740">
        <ele>16.285</ele>
        <time>2019-06-19T12:26:47Z</time>
      </trkpt>
      <trkpt lat="43.546078" lon="-6.465885">
        <ele>16.795</ele>
        <time>2019-06-19T12:26:48Z</time>
      </trkpt>
      <trkpt lat="43.546122" lon="-6.466028">
        <ele>16.111</ele>
        <time>2019-06-19T12:26:49Z</time>
      </trkpt>
      <trkpt lat="43.546139" lon="-6.466178">
        <ele>16.319</ele>
        <time>2019-06-19T12:26:50Z</time>
      </trkpt>
      <trkpt lat="43.546159" lon="-6.466299">
        <ele>15.749</ele>
        <time>2019-06-19T12:26:51Z</time>
      </trkpt>
      <trkpt lat="43.546171" lon="-6.466435">
        <ele>15.011</ele>
        <time>2019-06-19T12:26:52Z</time>
      </trkpt>
      <trkpt lat="43.546093" lon="-6.466508">
        <ele>16.721</ele>
        <time>2019-06-19T12:26:53Z</time>
      </trkpt>
      <trkpt lat="43.546023" lon="-6.466595">
        <ele>18.103</ele>
        <time>2019-06-19T12:26:54Z</time>
      </trkpt>
      <trkpt lat="43.545945" lon="-6.466688">
        <ele>19.508</ele>
        <time>2019-06-19T12:26:55Z</time>
      </trkpt>
      <trkpt lat="43.545787" lon="-6.466788">
        <ele>22.514</ele>
        <time>2019-06-19T12:26:56Z</time>
      </trkpt>
      <trkpt lat="43.545674" lon="-6.466884">
        <ele>24.078</ele>
        <time>2019-06-19T12:26:57Z</time>
      </trkpt>
      <trkpt lat="43.545564" lon="-6.466957">
        <ele>25.759</ele>
        <time>2019-06-19T12:26:58Z</time>
      </trkpt>
      <trkpt lat="43.545420" lon="-6.467031">
        <ele>28.082</ele>
        <time>2019-06-19T12:26:59Z</time>
      </trkpt>
      <trkpt lat="43.545269" lon="-6.467122">
        <ele>29.392</ele>
        <time>2019-06-19T12:27:00Z</time>
      </trkpt>
      <trkpt lat="43.545110" lon="-6.467217">
        <ele>30.728</ele>
        <time>2019-06-19T12:27:01Z</time>
      </trkpt>
      <trkpt lat="43.544984" lon="-6.467354">
        <ele>28.996</ele>
        <time>2019-06-19T12:27:02Z</time>
      </trkpt>
      <trkpt lat="43.544848" lon="-6.467515">
        <ele>30.846</ele>
        <time>2019-06-19T12:27:03Z</time>
      </trkpt>
      <trkpt lat="43.544724" lon="-6.467666">
        <ele>32.051</ele>
        <time>2019-06-19T12:27:04Z</time>
      </trkpt>
      <trkpt lat="43.544642" lon="-6.467839">
        <ele>30.801</ele>
        <time>2019-06-19T12:27:05Z</time>
      </trkpt>
      <trkpt lat="43.544534" lon="-6.467992">
        <ele>31.411</ele>
        <time>2019-06-19T12:27:06Z</time>
      </trkpt>
      <trkpt lat="43.544429" lon="-6.468157">
        <ele>32.108</ele>
        <time>2019-06-19T12:27:07Z</time>
      </trkpt>
      <trkpt lat="43.544322" lon="-6.468290">
        <ele>33.188</ele>
        <time>2019-06-19T12:27:08Z</time>
      </trkpt>
      <trkpt lat="43.544219" lon="-6.468403">
        <ele>33.182</ele>
        <time>2019-06-19T12:27:09Z</time>
      </trkpt>
      <trkpt lat="43.544114" lon="-6.468518">
        <ele>32.043</ele>
        <time>2019-06-19T12:27:10Z</time>
      </trkpt>
      <trkpt lat="43.543974" lon="-6.468635">
        <ele>30.726</ele>
        <time>2019-06-19T12:27:11Z</time>
      </trkpt>
      <trkpt lat="43.543803" lon="-6.468754">
        <ele>31.376</ele>
        <time>2019-06-19T12:27:12Z</time>
      </trkpt>
      <trkpt lat="43.543653" lon="-6.468854">
        <ele>32.032</ele>
        <time>2019-06-19T12:27:13Z</time>
      </trkpt>
      <trkpt lat="43.543486" lon="-6.468971">
        <ele>35.880</ele>
        <time>2019-06-19T12:27:14Z</time>
      </trkpt>
      <trkpt lat="43.543316" lon="-6.469070">
        <ele>39.950</ele>
        <time>2019-06-19T12:27:15Z</time>
      </trkpt>
      <trkpt lat="43.543170" lon="-6.469208">
        <ele>43.137</ele>
        <time>2019-06-19T12:27:16Z</time>
      </trkpt>
      <trkpt lat="43.543011" lon="-6.469334">
        <ele>44.949</ele>
        <time>2019-06-19T12:27:17Z</time>
      </trkpt>
      <trkpt lat="43.542846" lon="-6.469485">
        <ele>46.013</ele>
        <time>2019-06-19T12:27:18Z</time>
      </trkpt>
      <trkpt lat="43.542736" lon="-6.469692">
        <ele>45.308</ele>
        <time>2019-06-19T12:27:19Z</time>
      </trkpt>
      <trkpt lat="43.542582" lon="-6.469845">
        <ele>49.136</ele>
        <time>2019-06-19T12:27:20Z</time>
      </trkpt>
      <trkpt lat="43.542442" lon="-6.470001">
        <ele>50.920</ele>
        <time>2019-06-19T12:27:21Z</time>
      </trkpt>
      <trkpt lat="43.542309" lon="-6.470176">
        <ele>49.861</ele>
        <time>2019-06-19T12:27:22Z</time>
      </trkpt>
      <trkpt lat="43.542168" lon="-6.470351">
        <ele>47.344</ele>
        <time>2019-06-19T12:27:23Z</time>
      </trkpt>
      <trkpt lat="43.542031" lon="-6.470507">
        <ele>46.854</ele>
        <time>2019-06-19T12:27:24Z</time>
      </trkpt>
      <trkpt lat="43.541897" lon="-6.470705">
        <ele>46.110</ele>
        <time>2019-06-19T12:27:25Z</time>
      </trkpt>
      <trkpt lat="43.541753" lon="-6.470860">
        <ele>47.068</ele>
        <time>2019-06-19T12:27:26Z</time>
      </trkpt>
      <trkpt lat="43.541603" lon="-6.471007">
        <ele>46.738</ele>
        <time>2019-06-19T12:27:27Z</time>
      </trkpt>
      <trkpt lat="43.541454" lon="-6.471137">
        <ele>46.321</ele>
        <time>2019-06-19T12:27:28Z</time>
      </trkpt>
      <trkpt lat="43.541316" lon="-6.471241">
        <ele>47.741</ele>
        <time>2019-06-19T12:27:29Z</time>
      </trkpt>
      <trkpt lat="43.541186" lon="-6.471356">
        <ele>49.905</ele>
        <time>2019-06-19T12:27:30Z</time>
      </trkpt>
      <trkpt lat="43.541038" lon="-6.471432">
        <ele>52.808</ele>
        <time>2019-06-19T12:27:31Z</time>
      </trkpt>
      <trkpt lat="43.540892" lon="-6.471501">
        <ele>54.465</ele>
        <time>2019-06-19T12:27:32Z</time>
      </trkpt>
      <trkpt lat="43.540773" lon="-6.471568">
        <ele>54.129</ele>
        <time>2019-06-19T12:27:33Z</time>
      </trkpt>
      <trkpt lat="43.540652" lon="-6.471633">
        <ele>52.370</ele>
        <time>2019-06-19T12:27:34Z</time>
      </trkpt>
      <trkpt lat="43.540567" lon="-6.471714">
        <ele>50.933</ele>
        <time>2019-06-19T12:27:35Z</time>
      </trkpt>
      <trkpt lat="43.540471" lon="-6.471786">
        <ele>50.273</ele>
        <time>2019-06-19T12:27:36Z</time>
      </trkpt>
      <trkpt lat="43.540463" lon="-6.471956">
        <ele>49.019</ele>
        <time>2019-06-19T12:27:37Z</time>
      </trkpt>
      <trkpt lat="43.540486" lon="-6.472142">
        <ele>48.587</ele>
        <time>2019-06-19T12:27:38Z</time>
      </trkpt>
      <trkpt lat="43.540465" lon="-6.472287">
        <ele>47.927</ele>
        <time>2019-06-19T12:27:39Z</time>
      </trkpt>
      <trkpt lat="43.540590" lon="-6.472441">
        <ele>48.834</ele>
        <time>2019-06-19T12:27:40Z</time>
      </trkpt>
      <trkpt lat="43.540639" lon="-6.472618">
        <ele>47.355</ele>
        <time>2019-06-19T12:27:41Z</time>
      </trkpt>
      <trkpt lat="43.540716" lon="-6.472740">
        <ele>46.910</ele>
        <time>2019-06-19T12:27:42Z</time>
      </trkpt>
      <trkpt lat="43.540770" lon="-6.472877">
        <ele>49.508</ele>
        <time>2019-06-19T12:27:43Z</time>
      </trkpt>
      <trkpt lat="43.540866" lon="-6.472891">
        <ele>50.546</ele>
        <time>2019-06-19T12:27:44Z</time>
      </trkpt>
      <trkpt lat="43.540981" lon="-6.472937">
        <ele>52.160</ele>
        <time>2019-06-19T12:27:45Z</time>
      </trkpt>
      <trkpt lat="43.541102" lon="-6.472967">
        <ele>53.821</ele>
        <time>2019-06-19T12:27:46Z</time>
      </trkpt>
      <trkpt lat="43.541250" lon="-6.472915">
        <ele>53.464</ele>
        <time>2019-06-19T12:27:47Z</time>
      </trkpt>
      <trkpt lat="43.541395" lon="-6.472919">
        <ele>55.374</ele>
        <time>2019-06-19T12:27:48Z</time>
      </trkpt>
      <trkpt lat="43.541530" lon="-6.472860">
        <ele>57.530</ele>
        <time>2019-06-19T12:27:49Z</time>
      </trkpt>
      <trkpt lat="43.541658" lon="-6.472771">
        <ele>58.588</ele>
        <time>2019-06-19T12:27:50Z</time>
      </trkpt>
      <trkpt lat="43.541796" lon="-6.472680">
        <ele>60.828</ele>
        <time>2019-06-19T12:27:51Z</time>
      </trkpt>
      <trkpt lat="43.541932" lon="-6.472577">
        <ele>61.766</ele>
        <time>2019-06-19T12:27:52Z</time>
      </trkpt>
      <trkpt lat="43.542066" lon="-6.472444">
        <ele>59.929</ele>
        <time>2019-06-19T12:27:53Z</time>
      </trkpt>
      <trkpt lat="43.542195" lon="-6.472298">
        <ele>56.121</ele>
        <time>2019-06-19T12:27:54Z</time>
      </trkpt>
      <trkpt lat="43.542346" lon="-6.472153">
        <ele>55.308</ele>
        <time>2019-06-19T12:27:55Z</time>
      </trkpt>
      <trkpt lat="43.542469" lon="-6.472003">
        <ele>52.349</ele>
        <time>2019-06-19T12:27:56Z</time>
      </trkpt>
      <trkpt lat="43.542638" lon="-6.471820">
        <ele>53.983</ele>
        <time>2019-06-19T12:27:57Z</time>
      </trkpt>
      <trkpt lat="43.542786" lon="-6.471649">
        <ele>54.114</ele>
        <time>2019-06-19T12:27:58Z</time>
      </trkpt>
      <trkpt lat="43.542931" lon="-6.471469">
        <ele>56.057</ele>
        <time>2019-06-19T12:27:59Z</time>
      </trkpt>
      <trkpt lat="43.543099" lon="-6.471280">
        <ele>56.577</ele>
        <time>2019-06-19T12:28:00Z</time>
      </trkpt>
      <trkpt lat="43.543236" lon="-6.471104">
        <ele>55.673</ele>
        <time>2019-06-19T12:28:01Z</time>
      </trkpt>
      <trkpt lat="43.543369" lon="-6.470945">
        <ele>55.611</ele>
        <time>2019-06-19T12:28:02Z</time>
      </trkpt>
      <trkpt lat="43.543511" lon="-6.470785">
        <ele>57.741</ele>
        <time>2019-06-19T12:28:03Z</time>
      </trkpt>
      <trkpt lat="43.543653" lon="-6.470643">
        <ele>58.281</ele>
        <time>2019-06-19T12:28:04Z</time>
      </trkpt>
      <trkpt lat="43.543820" lon="-6.470520">
        <ele>59.161</ele>
        <time>2019-06-19T12:28:05Z</time>
      </trkpt>
      <trkpt lat="43.543992" lon="-6.470407">
        <ele>59.017</ele>
        <time>2019-06-19T12:28:06Z</time>
      </trkpt>
      <trkpt lat="43.544162" lon="-6.470294">
        <ele>58.508</ele>
        <time>2019-06-19T12:28:07Z</time>
      </trkpt>
      <trkpt lat="43.544386" lon="-6.470205">
        <ele>60.911</ele>
        <time>2019-06-19T12:28:08Z</time>
      </trkpt>
      <trkpt lat="43.544568" lon="-6.470092">
        <ele>61.515</ele>
        <time>2019-06-19T12:28:09Z</time>
      </trkpt>
      <trkpt lat="43.544749" lon="-6.469973">
        <ele>62.386</ele>
        <time>2019-06-19T12:28:10Z</time>
      </trkpt>
      <trkpt lat="43.544924" lon="-6.469858">
        <ele>62.469</ele>
        <time>2019-06-19T12:28:11Z</time>
      </trkpt>
      <trkpt lat="43.545126" lon="-6.469765">
        <ele>64.819</ele>
        <time>2019-06-19T12:28:12Z</time>
      </trkpt>
      <trkpt lat="43.545359" lon="-6.469659">
        <ele>68.345</ele>
        <time>2019-06-19T12:28:13Z</time>
      </trkpt>
      <trkpt lat="43.545512" lon="-6.469523">
        <ele>70.973</ele>
        <time>2019-06-19T12:28:14Z</time>
      </trkpt>
      <trkpt lat="43.545625" lon="-6.469322">
        <ele>69.323</ele>
        <time>2019-06-19T12:28:15Z</time>
      </trkpt>
      <trkpt lat="43.545802" lon="-6.469184">
        <ele>71.341</ele>
        <time>2019-06-19T12:28:16Z</time>
      </trkpt>
      <trkpt lat="43.545898" lon="-6.469092">
        <ele>71.881</ele>
        <time>2019-06-19T12:28:17Z</time>
      </trkpt>
      <trkpt lat="43.546042" lon="-6.469011">
        <ele>73.609</ele>
        <time>2019-06-19T12:28:18Z</time>
      </trkpt>
      <trkpt lat="43.546193" lon="-6.468964">
        <ele>74.808</ele>
        <time>2019-06-19T12:28:19Z</time>
      </trkpt>
      <trkpt lat="43.546356" lon="-6.468994">
        <ele>77.487</ele>
        <time>2019-06-19T12:28:20Z</time>
      </trkpt>
      <trkpt lat="43.546490" lon="-6.468903">
        <ele>76.041</ele>
        <time>2019-06-19T12:28:21Z</time>
      </trkpt>
      <trkpt lat="43.546620" lon="-6.468791">
        <ele>74.422</ele>
        <time>2019-06-19T12:28:22Z</time>
      </trkpt>
      <trkpt lat="43.546752" lon="-6.468682">
        <ele>74.175</ele>
        <time>2019-06-19T12:28:23Z</time>
      </trkpt>
      <trkpt lat="43.546870" lon="-6.468565">
        <ele>74.265</ele>
        <time>2019-06-19T12:28:24Z</time>
      </trkpt>
      <trkpt lat="43.546972" lon="-6.468473">
        <ele>73.251</ele>
        <time>2019-06-19T12:28:25Z</time>
      </trkpt>
      <trkpt lat="43.547074" lon="-6.468379">
        <ele>69.039</ele>
        <time>2019-06-19T12:28:26Z</time>
      </trkpt>
      <trkpt lat="43.547195" lon="-6.468326">
        <ele>65.249</ele>
        <time>2019-06-19T12:28:27Z</time>
      </trkpt>
      <trkpt lat="43.547297" lon="-6.468288">
        <ele>61.121</ele>
        <time>2019-06-19T12:28:28Z</time>
      </trkpt>
      <trkpt lat="43.547374" lon="-6.468291">
        <ele>58.741</ele>
        <time>2019-06-19T12:28:29Z</time>
      </trkpt>
      <trkpt lat="43.547451" lon="-6.468325">
        <ele>57.305</ele>
        <time>2019-06-19T12:28:30Z</time>
      </trkpt>
      <trkpt lat="43.547489" lon="-6.468457">
        <ele>60.408</ele>
        <time>2019-06-19T12:28:31Z</time>
      </trkpt>
      <trkpt lat="43.547502" lon="-6.468561">
        <ele>63.335</ele>
        <time>2019-06-19T12:28:32Z</time>
      </trkpt>
      <trkpt lat="43.547541" lon="-6.468692">
        <ele>63.269</ele>
        <time>2019-06-19T12:28:33Z</time>
      </trkpt>
      <trkpt lat="43.547431" lon="-6.469033">
        <ele>65.840</ele>
        <time>2019-06-19T12:28:34Z</time>
      </trkpt>
      <trkpt lat="43.547344" lon="-6.469287">
        <ele>65.633</ele>
        <time>2019-06-19T12:28:35Z</time>
      </trkpt>
      <trkpt lat="43.547300" lon="-6.469494">
        <ele>64.413</ele>
        <time>2019-06-19T12:28:36Z</time>
      </trkpt>
      <trkpt lat="43.547196" lon="-6.469720">
        <ele>64.219</ele>
        <time>2019-06-19T12:28:37Z</time>
      </trkpt>
      <trkpt lat="43.547128" lon="-6.469942">
        <ele>63.657</ele>
        <time>2019-06-19T12:28:38Z</time>
      </trkpt>
      <trkpt lat="43.547070" lon="-6.470135">
        <ele>64.147</ele>
        <time>2019-06-19T12:28:39Z</time>
      </trkpt>
      <trkpt lat="43.547007" lon="-6.470329">
        <ele>65.229</ele>
        <time>2019-06-19T12:28:40Z</time>
      </trkpt>
      <trkpt lat="43.546951" lon="-6.470506">
        <ele>66.100</ele>
        <time>2019-06-19T12:28:41Z</time>
      </trkpt>
      <trkpt lat="43.546892" lon="-6.470700">
        <ele>68.820</ele>
        <time>2019-06-19T12:28:42Z</time>
      </trkpt>
      <trkpt lat="43.546838" lon="-6.470882">
        <ele>70.608</ele>
        <time>2019-06-19T12:28:43Z</time>
      </trkpt>
      <trkpt lat="43.546809" lon="-6.471005">
        <ele>71.175</ele>
        <time>2019-06-19T12:28:44Z</time>
      </trkpt>
      <trkpt lat="43.546793" lon="-6.471085">
        <ele>71.489</ele>
        <time>2019-06-19T12:28:45Z</time>
      </trkpt>
      <trkpt lat="43.546785" lon="-6.471163">
        <ele>71.340</ele>
        <time>2019-06-19T12:28:47Z</time>
      </trkpt>
      <trkpt lat="43.546781" lon="-6.471228">
        <ele>71.083</ele>
        <time>2019-06-19T12:29:56Z</time>
      </trkpt>
      <trkpt lat="43.546759" lon="-6.471285">
        <ele>71.333</ele>
        <time>2019-06-19T12:31:12Z</time>
      </trkpt>
      <trkpt lat="43.546732" lon="-6.471376">
        <ele>71.489</ele>
        <time>2019-06-19T12:31:13Z</time>
      </trkpt>
      <trkpt lat="43.546702" lon="-6.471457">
        <ele>71.277</ele>
        <time>2019-06-19T12:31:14Z</time>
      </trkpt>
      <trkpt lat="43.546664" lon="-6.471554">
        <ele>70.737</ele>
        <time>2019-06-19T12:31:15Z</time>
      </trkpt>
      <trkpt lat="43.546615" lon="-6.471670">
        <ele>71.037</ele>
        <time>2019-06-19T12:31:16Z</time>
      </trkpt>
      <trkpt lat="43.546572" lon="-6.471809">
        <ele>72.449</ele>
        <time>2019-06-19T12:31:17Z</time>
      </trkpt>
      <trkpt lat="43.546505" lon="-6.471959">
        <ele>74.113</ele>
        <time>2019-06-19T12:31:18Z</time>
      </trkpt>
      <trkpt lat="43.546425" lon="-6.472104">
        <ele>75.108</ele>
        <time>2019-06-19T12:31:19Z</time>
      </trkpt>
      <trkpt lat="43.546341" lon="-6.472261">
        <ele>75.416</ele>
        <time>2019-06-19T12:31:20Z</time>
      </trkpt>
      <trkpt lat="43.546240" lon="-6.472415">
        <ele>75.810</ele>
        <time>2019-06-19T12:31:21Z</time>
      </trkpt>
      <trkpt lat="43.546128" lon="-6.472563">
        <ele>76.371</ele>
        <time>2019-06-19T12:31:22Z</time>
      </trkpt>
      <trkpt lat="43.546019" lon="-6.472712">
        <ele>77.124</ele>
        <time>2019-06-19T12:31:23Z</time>
      </trkpt>
      <trkpt lat="43.545901" lon="-6.472858">
        <ele>78.234</ele>
        <time>2019-06-19T12:31:24Z</time>
      </trkpt>
      <trkpt lat="43.545781" lon="-6.473008">
        <ele>79.440</ele>
        <time>2019-06-19T12:31:25Z</time>
      </trkpt>
      <trkpt lat="43.545657" lon="-6.473165">
        <ele>80.148</ele>
        <time>2019-06-19T12:31:26Z</time>
      </trkpt>
      <trkpt lat="43.545547" lon="-6.473354">
        <ele>80.028</ele>
        <time>2019-06-19T12:31:27Z</time>
      </trkpt>
      <trkpt lat="43.545435" lon="-6.473552">
        <ele>80.143</ele>
        <time>2019-06-19T12:31:28Z</time>
      </trkpt>
      <trkpt lat="43.545328" lon="-6.473772">
        <ele>80.764</ele>
        <time>2019-06-19T12:31:29Z</time>
      </trkpt>
      <trkpt lat="43.545210" lon="-6.474001">
        <ele>81.110</ele>
        <time>2019-06-19T12:31:30Z</time>
      </trkpt>
      <trkpt lat="43.545097" lon="-6.474223">
        <ele>81.008</ele>
        <time>2019-06-19T12:31:31Z</time>
      </trkpt>
      <trkpt lat="43.544985" lon="-6.474440">
        <ele>82.127</ele>
        <time>2019-06-19T12:31:32Z</time>
      </trkpt>
      <trkpt lat="43.544898" lon="-6.474673">
        <ele>83.171</ele>
        <time>2019-06-19T12:31:33Z</time>
      </trkpt>
      <trkpt lat="43.544792" lon="-6.474868">
        <ele>83.722</ele>
        <time>2019-06-19T12:31:34Z</time>
      </trkpt>
      <trkpt lat="43.544705" lon="-6.475019">
        <ele>84.335</ele>
        <time>2019-06-19T12:31:35Z</time>
      </trkpt>
      <trkpt lat="43.544623" lon="-6.475197">
        <ele>85.495</ele>
        <time>2019-06-19T12:31:36Z</time>
      </trkpt>
      <trkpt lat="43.544527" lon="-6.475335">
        <ele>86.511</ele>
        <time>2019-06-19T12:31:37Z</time>
      </trkpt>
      <trkpt lat="43.544411" lon="-6.475468">
        <ele>86.719</ele>
        <time>2019-06-19T12:31:38Z</time>
      </trkpt>
      <trkpt lat="43.544293" lon="-6.475593">
        <ele>86.829</ele>
        <time>2019-06-19T12:31:39Z</time>
      </trkpt>
      <trkpt lat="43.544145" lon="-6.475707">
        <ele>88.167</ele>
        <time>2019-06-19T12:31:40Z</time>
      </trkpt>
      <trkpt lat="43.543993" lon="-6.475795">
        <ele>88.581</ele>
        <time>2019-06-19T12:31:41Z</time>
      </trkpt>
      <trkpt lat="43.543839" lon="-6.475871">
        <ele>88.619</ele>
        <time>2019-06-19T12:31:42Z</time>
      </trkpt>
      <trkpt lat="43.543689" lon="-6.475922">
        <ele>88.008</ele>
        <time>2019-06-19T12:31:43Z</time>
      </trkpt>
      <trkpt lat="43.543531" lon="-6.475964">
        <ele>88.199</ele>
        <time>2019-06-19T12:31:44Z</time>
      </trkpt>
      <trkpt lat="43.543396" lon="-6.476026">
        <ele>88.843</ele>
        <time>2019-06-19T12:31:45Z</time>
      </trkpt>
      <trkpt lat="43.543261" lon="-6.476097">
        <ele>90.894</ele>
        <time>2019-06-19T12:31:46Z</time>
      </trkpt>
      <trkpt lat="43.543200" lon="-6.476325">
        <ele>93.117</ele>
        <time>2019-06-19T12:31:47Z</time>
      </trkpt>
      <trkpt lat="43.543097" lon="-6.476477">
        <ele>96.357</ele>
        <time>2019-06-19T12:31:48Z</time>
      </trkpt>
      <trkpt lat="43.543022" lon="-6.476663">
        <ele>98.723</ele>
        <time>2019-06-19T12:31:49Z</time>
      </trkpt>
      <trkpt lat="43.542965" lon="-6.476853">
        <ele>101.831</ele>
        <time>2019-06-19T12:31:50Z</time>
      </trkpt>
      <trkpt lat="43.542910" lon="-6.477056">
        <ele>103.281</ele>
        <time>2019-06-19T12:31:51Z</time>
      </trkpt>
      <trkpt lat="43.542937" lon="-6.477291">
        <ele>102.091</ele>
        <time>2019-06-19T12:31:52Z</time>
      </trkpt>
      <trkpt lat="43.542999" lon="-6.477484">
        <ele>100.181</ele>
        <time>2019-06-19T12:31:53Z</time>
      </trkpt>
      <trkpt lat="43.543024" lon="-6.477708">
        <ele>100.319</ele>
        <time>2019-06-19T12:31:54Z</time>
      </trkpt>
      <trkpt lat="43.543044" lon="-6.477931">
        <ele>101.308</ele>
        <time>2019-06-19T12:31:55Z</time>
      </trkpt>
      <trkpt lat="43.543065" lon="-6.478145">
        <ele>102.622</ele>
        <time>2019-06-19T12:31:56Z</time>
      </trkpt>
      <trkpt lat="43.543094" lon="-6.478358">
        <ele>104.066</ele>
        <time>2019-06-19T12:31:57Z</time>
      </trkpt>
      <trkpt lat="43.543182" lon="-6.478490">
        <ele>104.177</ele>
        <time>2019-06-19T12:31:58Z</time>
      </trkpt>
      <trkpt lat="43.543171" lon="-6.478701">
        <ele>104.520</ele>
        <time>2019-06-19T12:31:59Z</time>
      </trkpt>
      <trkpt lat="43.543151" lon="-6.478933">
        <ele>104.290</ele>
        <time>2019-06-19T12:32:00Z</time>
      </trkpt>
      <trkpt lat="43.543094" lon="-6.479138">
        <ele>103.886</ele>
        <time>2019-06-19T12:32:01Z</time>
      </trkpt>
      <trkpt lat="43.543032" lon="-6.479333">
        <ele>104.314</ele>
        <time>2019-06-19T12:32:02Z</time>
      </trkpt>
      <trkpt lat="43.542959" lon="-6.479541">
        <ele>104.974</ele>
        <time>2019-06-19T12:32:03Z</time>
      </trkpt>
      <trkpt lat="43.542813" lon="-6.479687">
        <ele>104.487</ele>
        <time>2019-06-19T12:32:04Z</time>
      </trkpt>
      <trkpt lat="43.542673" lon="-6.479870">
        <ele>104.842</ele>
        <time>2019-06-19T12:32:05Z</time>
      </trkpt>
      <trkpt lat="43.542518" lon="-6.480050">
        <ele>106.626</ele>
        <time>2019-06-19T12:32:06Z</time>
      </trkpt>
      <trkpt lat="43.542364" lon="-6.480224">
        <ele>106.908</ele>
        <time>2019-06-19T12:32:07Z</time>
      </trkpt>
      <trkpt lat="43.542210" lon="-6.480407">
        <ele>105.771</ele>
        <time>2019-06-19T12:32:08Z</time>
      </trkpt>
      <trkpt lat="43.542060" lon="-6.480584">
        <ele>105.775</ele>
        <time>2019-06-19T12:32:09Z</time>
      </trkpt>
      <trkpt lat="43.541913" lon="-6.480768">
        <ele>107.366</ele>
        <time>2019-06-19T12:32:10Z</time>
      </trkpt>
      <trkpt lat="43.541759" lon="-6.480935">
        <ele>109.799</ele>
        <time>2019-06-19T12:32:11Z</time>
      </trkpt>
      <trkpt lat="43.541614" lon="-6.481103">
        <ele>112.069</ele>
        <time>2019-06-19T12:32:12Z</time>
      </trkpt>
      <trkpt lat="43.541474" lon="-6.481266">
        <ele>111.455</ele>
        <time>2019-06-19T12:32:13Z</time>
      </trkpt>
      <trkpt lat="43.541340" lon="-6.481401">
        <ele>111.353</ele>
        <time>2019-06-19T12:32:14Z</time>
      </trkpt>
      <trkpt lat="43.541197" lon="-6.481501">
        <ele>112.333</ele>
        <time>2019-06-19T12:32:15Z</time>
      </trkpt>
      <trkpt lat="43.541059" lon="-6.481577">
        <ele>113.262</ele>
        <time>2019-06-19T12:32:16Z</time>
      </trkpt>
      <trkpt lat="43.540926" lon="-6.481619">
        <ele>113.883</ele>
        <time>2019-06-19T12:32:17Z</time>
      </trkpt>
      <trkpt lat="43.540812" lon="-6.481640">
        <ele>114.211</ele>
        <time>2019-06-19T12:32:18Z</time>
      </trkpt>
      <trkpt lat="43.540699" lon="-6.481665">
        <ele>114.508</ele>
        <time>2019-06-19T12:32:19Z</time>
      </trkpt>
      <trkpt lat="43.540598" lon="-6.481678">
        <ele>114.879</ele>
        <time>2019-06-19T12:32:20Z</time>
      </trkpt>
      <trkpt lat="43.540553" lon="-6.481674">
        <ele>115.083</ele>
        <time>2019-06-19T12:32:21Z</time>
      </trkpt>
      <trkpt lat="43.540463" lon="-6.481688">
        <ele>115.254</ele>
        <time>2019-06-19T12:32:23Z</time>
      </trkpt>
      <trkpt lat="43.540414" lon="-6.481695">
        <ele>115.387</ele>
        <time>2019-06-19T12:32:24Z</time>
      </trkpt>
      <trkpt lat="43.540349" lon="-6.481726">
        <ele>115.277</ele>
        <time>2019-06-19T12:32:25Z</time>
      </trkpt>
      <trkpt lat="43.540274" lon="-6.481743">
        <ele>115.283</ele>
        <time>2019-06-19T12:32:26Z</time>
      </trkpt>
      <trkpt lat="43.540178" lon="-6.481788">
        <ele>115.031</ele>
        <time>2019-06-19T12:32:27Z</time>
      </trkpt>
      <trkpt lat="43.540066" lon="-6.481872">
        <ele>114.921</ele>
        <time>2019-06-19T12:32:28Z</time>
      </trkpt>
      <trkpt lat="43.539963" lon="-6.481967">
        <ele>115.298</ele>
        <time>2019-06-19T12:32:29Z</time>
      </trkpt>
      <trkpt lat="43.539853" lon="-6.482075">
        <ele>115.815</ele>
        <time>2019-06-19T12:32:30Z</time>
      </trkpt>
      <trkpt lat="43.539739" lon="-6.482187">
        <ele>117.726</ele>
        <time>2019-06-19T12:32:31Z</time>
      </trkpt>
      <trkpt lat="43.539620" lon="-6.482332">
        <ele>117.808</ele>
        <time>2019-06-19T12:32:32Z</time>
      </trkpt>
      <trkpt lat="43.539494" lon="-6.482505">
        <ele>118.142</ele>
        <time>2019-06-19T12:32:33Z</time>
      </trkpt>
      <trkpt lat="43.539369" lon="-6.482664">
        <ele>117.746</ele>
        <time>2019-06-19T12:32:34Z</time>
      </trkpt>
      <trkpt lat="43.539224" lon="-6.482845">
        <ele>117.277</ele>
        <time>2019-06-19T12:32:35Z</time>
      </trkpt>
      <trkpt lat="43.539083" lon="-6.483014">
        <ele>117.890</ele>
        <time>2019-06-19T12:32:36Z</time>
      </trkpt>
      <trkpt lat="43.538949" lon="-6.483190">
        <ele>119.970</ele>
        <time>2019-06-19T12:32:37Z</time>
      </trkpt>
      <trkpt lat="43.538814" lon="-6.483360">
        <ele>121.526</ele>
        <time>2019-06-19T12:32:38Z</time>
      </trkpt>
      <trkpt lat="43.538684" lon="-6.483519">
        <ele>121.254</ele>
        <time>2019-06-19T12:32:39Z</time>
      </trkpt>
      <trkpt lat="43.538563" lon="-6.483647">
        <ele>121.154</ele>
        <time>2019-06-19T12:32:40Z</time>
      </trkpt>
      <trkpt lat="43.538437" lon="-6.483776">
        <ele>121.121</ele>
        <time>2019-06-19T12:32:41Z</time>
      </trkpt>
      <trkpt lat="43.538312" lon="-6.483897">
        <ele>121.041</ele>
        <time>2019-06-19T12:32:42Z</time>
      </trkpt>
      <trkpt lat="43.538128" lon="-6.483902">
        <ele>122.305</ele>
        <time>2019-06-19T12:32:43Z</time>
      </trkpt>
      <trkpt lat="43.537971" lon="-6.483961">
        <ele>122.008</ele>
        <time>2019-06-19T12:32:44Z</time>
      </trkpt>
      <trkpt lat="43.537816" lon="-6.483896">
        <ele>122.955</ele>
        <time>2019-06-19T12:32:45Z</time>
      </trkpt>
      <trkpt lat="43.537642" lon="-6.483845">
        <ele>123.569</ele>
        <time>2019-06-19T12:32:46Z</time>
      </trkpt>
      <trkpt lat="43.537476" lon="-6.483812">
        <ele>124.140</ele>
        <time>2019-06-19T12:32:47Z</time>
      </trkpt>
      <trkpt lat="43.537328" lon="-6.483763">
        <ele>124.813</ele>
        <time>2019-06-19T12:32:48Z</time>
      </trkpt>
      <trkpt lat="43.537170" lon="-6.483742">
        <ele>125.133</ele>
        <time>2019-06-19T12:32:49Z</time>
      </trkpt>
      <trkpt lat="43.537033" lon="-6.483742">
        <ele>125.169</ele>
        <time>2019-06-19T12:32:50Z</time>
      </trkpt>
      <trkpt lat="43.536891" lon="-6.483727">
        <ele>125.587</ele>
        <time>2019-06-19T12:32:51Z</time>
      </trkpt>
      <trkpt lat="43.536767" lon="-6.483830">
        <ele>126.147</ele>
        <time>2019-06-19T12:32:52Z</time>
      </trkpt>
      <trkpt lat="43.536617" lon="-6.483902">
        <ele>127.373</ele>
        <time>2019-06-19T12:32:53Z</time>
      </trkpt>
      <trkpt lat="43.536445" lon="-6.484043">
        <ele>127.985</ele>
        <time>2019-06-19T12:32:54Z</time>
      </trkpt>
      <trkpt lat="43.536284" lon="-6.484171">
        <ele>128.413</ele>
        <time>2019-06-19T12:32:55Z</time>
      </trkpt>
      <trkpt lat="43.536180" lon="-6.484409">
        <ele>128.808</ele>
        <time>2019-06-19T12:32:56Z</time>
      </trkpt>
      <trkpt lat="43.536062" lon="-6.484589">
        <ele>130.140</ele>
        <time>2019-06-19T12:32:57Z</time>
      </trkpt>
      <trkpt lat="43.535932" lon="-6.484750">
        <ele>131.824</ele>
        <time>2019-06-19T12:32:58Z</time>
      </trkpt>
      <trkpt lat="43.535809" lon="-6.484912">
        <ele>132.665</ele>
        <time>2019-06-19T12:32:59Z</time>
      </trkpt>
      <trkpt lat="43.535681" lon="-6.485072">
        <ele>132.928</ele>
        <time>2019-06-19T12:33:00Z</time>
      </trkpt>
      <trkpt lat="43.535565" lon="-6.485241">
        <ele>132.338</ele>
        <time>2019-06-19T12:33:01Z</time>
      </trkpt>
      <trkpt lat="43.535439" lon="-6.485392">
        <ele>130.894</ele>
        <time>2019-06-19T12:33:02Z</time>
      </trkpt>
      <trkpt lat="43.535323" lon="-6.485534">
        <ele>129.122</ele>
        <time>2019-06-19T12:33:03Z</time>
      </trkpt>
      <trkpt lat="43.535209" lon="-6.485702">
        <ele>126.342</ele>
        <time>2019-06-19T12:33:04Z</time>
      </trkpt>
      <trkpt lat="43.535136" lon="-6.485895">
        <ele>123.617</ele>
        <time>2019-06-19T12:33:05Z</time>
      </trkpt>
      <trkpt lat="43.535065" lon="-6.486087">
        <ele>122.087</ele>
        <time>2019-06-19T12:33:06Z</time>
      </trkpt>
      <trkpt lat="43.535026" lon="-6.486266">
        <ele>120.215</ele>
        <time>2019-06-19T12:33:07Z</time>
      </trkpt>
      <trkpt lat="43.534966" lon="-6.486465">
        <ele>119.308</ele>
        <time>2019-06-19T12:33:08Z</time>
      </trkpt>
      <trkpt lat="43.534926" lon="-6.486685">
        <ele>118.924</ele>
        <time>2019-06-19T12:33:09Z</time>
      </trkpt>
      <trkpt lat="43.534868" lon="-6.486877">
        <ele>120.438</ele>
        <time>2019-06-19T12:33:10Z</time>
      </trkpt>
      <trkpt lat="43.534829" lon="-6.487067">
        <ele>121.379</ele>
        <time>2019-06-19T12:33:11Z</time>
      </trkpt>
      <trkpt lat="43.534831" lon="-6.487265">
        <ele>121.952</ele>
        <time>2019-06-19T12:33:12Z</time>
      </trkpt>
      <trkpt lat="43.534886" lon="-6.487480">
        <ele>123.392</ele>
        <time>2019-06-19T12:33:13Z</time>
      </trkpt>
      <trkpt lat="43.535002" lon="-6.487681">
        <ele>125.658</ele>
        <time>2019-06-19T12:33:14Z</time>
      </trkpt>
      <trkpt lat="43.535211" lon="-6.487737">
        <ele>127.846</ele>
        <time>2019-06-19T12:33:15Z</time>
      </trkpt>
      <trkpt lat="43.535337" lon="-6.487845">
        <ele>130.756</ele>
        <time>2019-06-19T12:33:16Z</time>
      </trkpt>
      <trkpt lat="43.535491" lon="-6.487911">
        <ele>132.621</ele>
        <time>2019-06-19T12:33:17Z</time>
      </trkpt>
      <trkpt lat="43.535666" lon="-6.487974">
        <ele>133.041</ele>
        <time>2019-06-19T12:33:18Z</time>
      </trkpt>
      <trkpt lat="43.535877" lon="-6.487988">
        <ele>132.605</ele>
        <time>2019-06-19T12:33:19Z</time>
      </trkpt>
      <trkpt lat="43.536024" lon="-6.488019">
        <ele>133.308</ele>
        <time>2019-06-19T12:33:20Z</time>
      </trkpt>
      <trkpt lat="43.536192" lon="-6.488067">
        <ele>133.585</ele>
        <time>2019-06-19T12:33:21Z</time>
      </trkpt>
      <trkpt lat="43.536349" lon="-6.488128">
        <ele>133.069</ele>
        <time>2019-06-19T12:33:22Z</time>
      </trkpt>
      <trkpt lat="43.536515" lon="-6.488196">
        <ele>132.470</ele>
        <time>2019-06-19T12:33:23Z</time>
      </trkpt>
      <trkpt lat="43.536655" lon="-6.488319">
        <ele>132.953</ele>
        <time>2019-06-19T12:33:24Z</time>
      </trkpt>
      <trkpt lat="43.536811" lon="-6.488461">
        <ele>132.133</ele>
        <time>2019-06-19T12:33:25Z</time>
      </trkpt>
      <trkpt lat="43.536952" lon="-6.488578">
        <ele>130.759</ele>
        <time>2019-06-19T12:33:26Z</time>
      </trkpt>
      <trkpt lat="43.537063" lon="-6.488704">
        <ele>129.867</ele>
        <time>2019-06-19T12:33:27Z</time>
      </trkpt>
      <trkpt lat="43.537143" lon="-6.488900">
        <ele>129.517</ele>
        <time>2019-06-19T12:33:28Z</time>
      </trkpt>
      <trkpt lat="43.537212" lon="-6.489130">
        <ele>129.989</ele>
        <time>2019-06-19T12:33:29Z</time>
      </trkpt>
      <trkpt lat="43.537286" lon="-6.489336">
        <ele>129.806</ele>
        <time>2019-06-19T12:33:30Z</time>
      </trkpt>
      <trkpt lat="43.537343" lon="-6.489581">
        <ele>129.326</ele>
        <time>2019-06-19T12:33:31Z</time>
      </trkpt>
      <trkpt lat="43.537421" lon="-6.489835">
        <ele>128.008</ele>
        <time>2019-06-19T12:33:32Z</time>
      </trkpt>
      <trkpt lat="43.537426" lon="-6.490090">
        <ele>129.191</ele>
        <time>2019-06-19T12:33:33Z</time>
      </trkpt>
      <trkpt lat="43.537471" lon="-6.490357">
        <ele>130.245</ele>
        <time>2019-06-19T12:33:34Z</time>
      </trkpt>
      <trkpt lat="43.537503" lon="-6.490646">
        <ele>131.336</ele>
        <time>2019-06-19T12:33:35Z</time>
      </trkpt>
      <trkpt lat="43.537527" lon="-6.490905">
        <ele>131.289</ele>
        <time>2019-06-19T12:33:36Z</time>
      </trkpt>
      <trkpt lat="43.537464" lon="-6.491161">
        <ele>131.649</ele>
        <time>2019-06-19T12:33:37Z</time>
      </trkpt>
      <trkpt lat="43.537413" lon="-6.491479">
        <ele>131.215</ele>
        <time>2019-06-19T12:33:38Z</time>
      </trkpt>
      <trkpt lat="43.537374" lon="-6.491771">
        <ele>130.033</ele>
        <time>2019-06-19T12:33:39Z</time>
      </trkpt>
      <trkpt lat="43.537326" lon="-6.492064">
        <ele>129.863</ele>
        <time>2019-06-19T12:33:40Z</time>
      </trkpt>
      <trkpt lat="43.537289" lon="-6.492354">
        <ele>130.398</ele>
        <time>2019-06-19T12:33:41Z</time>
      </trkpt>
      <trkpt lat="43.537263" lon="-6.492632">
        <ele>130.415</ele>
        <time>2019-06-19T12:33:42Z</time>
      </trkpt>
      <trkpt lat="43.537240" lon="-6.492898">
        <ele>129.926</ele>
        <time>2019-06-19T12:33:43Z</time>
      </trkpt>
      <trkpt lat="43.537207" lon="-6.493177">
        <ele>128.908</ele>
        <time>2019-06-19T12:33:44Z</time>
      </trkpt>
      <trkpt lat="43.537178" lon="-6.493463">
        <ele>129.072</ele>
        <time>2019-06-19T12:33:45Z</time>
      </trkpt>
      <trkpt lat="43.537149" lon="-6.493742">
        <ele>130.086</ele>
        <time>2019-06-19T12:33:46Z</time>
      </trkpt>
      <trkpt lat="43.537121" lon="-6.494026">
        <ele>130.517</ele>
        <time>2019-06-19T12:33:47Z</time>
      </trkpt>
      <trkpt lat="43.537091" lon="-6.494312">
        <ele>130.260</ele>
        <time>2019-06-19T12:33:48Z</time>
      </trkpt>
      <trkpt lat="43.537060" lon="-6.494602">
        <ele>129.470</ele>
        <time>2019-06-19T12:33:49Z</time>
      </trkpt>
      <trkpt lat="43.537037" lon="-6.494903">
        <ele>128.116</ele>
        <time>2019-06-19T12:33:50Z</time>
      </trkpt>
      <trkpt lat="43.536991" lon="-6.495203">
        <ele>127.074</ele>
        <time>2019-06-19T12:33:51Z</time>
      </trkpt>
      <trkpt lat="43.536954" lon="-6.495490">
        <ele>126.154</ele>
        <time>2019-06-19T12:33:52Z</time>
      </trkpt>
      <trkpt lat="43.536935" lon="-6.495777">
        <ele>125.386</ele>
        <time>2019-06-19T12:33:53Z</time>
      </trkpt>
      <trkpt lat="43.536916" lon="-6.496064">
        <ele>123.560</ele>
        <time>2019-06-19T12:33:54Z</time>
      </trkpt>
      <trkpt lat="43.536894" lon="-6.496365">
        <ele>120.426</ele>
        <time>2019-06-19T12:33:55Z</time>
      </trkpt>
      <trkpt lat="43.536862" lon="-6.496669">
        <ele>118.608</ele>
        <time>2019-06-19T12:33:56Z</time>
      </trkpt>
      <trkpt lat="43.536834" lon="-6.496974">
        <ele>119.311</ele>
        <time>2019-06-19T12:33:57Z</time>
      </trkpt>
      <trkpt lat="43.536810" lon="-6.497281">
        <ele>118.725</ele>
        <time>2019-06-19T12:33:58Z</time>
      </trkpt>
      <trkpt lat="43.536783" lon="-6.497577">
        <ele>117.336</ele>
        <time>2019-06-19T12:33:59Z</time>
      </trkpt>
      <trkpt lat="43.536749" lon="-6.497869">
        <ele>116.479</ele>
        <time>2019-06-19T12:34:00Z</time>
      </trkpt>
      <trkpt lat="43.536728" lon="-6.498148">
        <ele>115.419</ele>
        <time>2019-06-19T12:34:01Z</time>
      </trkpt>
      <trkpt lat="43.536699" lon="-6.498418">
        <ele>114.675</ele>
        <time>2019-06-19T12:34:02Z</time>
      </trkpt>
      <trkpt lat="43.536673" lon="-6.498682">
        <ele>113.723</ele>
        <time>2019-06-19T12:34:03Z</time>
      </trkpt>
      <trkpt lat="43.536649" lon="-6.498952">
        <ele>112.863</ele>
        <time>2019-06-19T12:34:04Z</time>
      </trkpt>
      <trkpt lat="43.536622" lon="-6.499229">
        <ele>111.813</ele>
        <time>2019-06-19T12:34:05Z</time>
      </trkpt>
      <trkpt lat="43.536599" lon="-6.499504">
        <ele>111.043</ele>
        <time>2019-06-19T12:34:06Z</time>
      </trkpt>
      <trkpt lat="43.536572" lon="-6.499773">
        <ele>111.007</ele>
        <time>2019-06-19T12:34:07Z</time>
      </trkpt>
      <trkpt lat="43.536547" lon="-6.500036">
        <ele>110.908</ele>
        <time>2019-06-19T12:34:08Z</time>
      </trkpt>
      <trkpt lat="43.536527" lon="-6.500294">
        <ele>109.974</ele>
        <time>2019-06-19T12:34:09Z</time>
      </trkpt>
      <trkpt lat="43.536510" lon="-6.500546">
        <ele>109.088</ele>
        <time>2019-06-19T12:34:10Z</time>
      </trkpt>
      <trkpt lat="43.536483" lon="-6.500792">
        <ele>108.799</ele>
        <time>2019-06-19T12:34:11Z</time>
      </trkpt>
      <trkpt lat="43.536462" lon="-6.501015">
        <ele>107.982</ele>
        <time>2019-06-19T12:34:12Z</time>
      </trkpt>
      <trkpt lat="43.536439" lon="-6.501228">
        <ele>106.872</ele>
        <time>2019-06-19T12:34:13Z</time>
      </trkpt>
      <trkpt lat="43.536420" lon="-6.501445">
        <ele>105.438</ele>
        <time>2019-06-19T12:34:14Z</time>
      </trkpt>
      <trkpt lat="43.536413" lon="-6.501628">
        <ele>104.296</ele>
        <time>2019-06-19T12:34:15Z</time>
      </trkpt>
      <trkpt lat="43.536394" lon="-6.501828">
        <ele>104.616</ele>
        <time>2019-06-19T12:34:16Z</time>
      </trkpt>
      <trkpt lat="43.536387" lon="-6.502006">
        <ele>104.896</ele>
        <time>2019-06-19T12:34:17Z</time>
      </trkpt>
      <trkpt lat="43.536373" lon="-6.502183">
        <ele>104.231</ele>
        <time>2019-06-19T12:34:18Z</time>
      </trkpt>
      <trkpt lat="43.536400" lon="-6.502347">
        <ele>103.524</ele>
        <time>2019-06-19T12:34:19Z</time>
      </trkpt>
      <trkpt lat="43.536432" lon="-6.502483">
        <ele>102.808</ele>
        <time>2019-06-19T12:34:20Z</time>
      </trkpt>
      <trkpt lat="43.536451" lon="-6.502624">
        <ele>102.162</ele>
        <time>2019-06-19T12:34:21Z</time>
      </trkpt>
      <trkpt lat="43.536443" lon="-6.502762">
        <ele>101.766</ele>
        <time>2019-06-19T12:34:22Z</time>
      </trkpt>
      <trkpt lat="43.536418" lon="-6.502892">
        <ele>101.817</ele>
        <time>2019-06-19T12:34:23Z</time>
      </trkpt>
      <trkpt lat="43.536381" lon="-6.503036">
        <ele>102.050</ele>
        <time>2019-06-19T12:34:24Z</time>
      </trkpt>
      <trkpt lat="43.536326" lon="-6.503186">
        <ele>101.680</ele>
        <time>2019-06-19T12:34:25Z</time>
      </trkpt>
      <trkpt lat="43.536302" lon="-6.503406">
        <ele>101.166</ele>
        <time>2019-06-19T12:34:26Z</time>
      </trkpt>
      <trkpt lat="43.536281" lon="-6.503627">
        <ele>100.314</ele>
        <time>2019-06-19T12:34:27Z</time>
      </trkpt>
      <trkpt lat="43.536261" lon="-6.503868">
        <ele>99.164</ele>
        <time>2019-06-19T12:34:28Z</time>
      </trkpt>
      <trkpt lat="43.536242" lon="-6.504125">
        <ele>97.797</ele>
        <time>2019-06-19T12:34:29Z</time>
      </trkpt>
      <trkpt lat="43.536221" lon="-6.504391">
        <ele>97.423</ele>
        <time>2019-06-19T12:34:30Z</time>
      </trkpt>
      <trkpt lat="43.536194" lon="-6.504662">
        <ele>98.125</ele>
        <time>2019-06-19T12:34:31Z</time>
      </trkpt>
      <trkpt lat="43.536174" lon="-6.504931">
        <ele>98.808</ele>
        <time>2019-06-19T12:34:32Z</time>
      </trkpt>
      <trkpt lat="43.536150" lon="-6.505212">
        <ele>99.012</ele>
        <time>2019-06-19T12:34:33Z</time>
      </trkpt>
      <trkpt lat="43.536122" lon="-6.505483">
        <ele>99.036</ele>
        <time>2019-06-19T12:34:34Z</time>
      </trkpt>
      <trkpt lat="43.536089" lon="-6.505752">
        <ele>99.057</ele>
        <time>2019-06-19T12:34:35Z</time>
      </trkpt>
      <trkpt lat="43.536065" lon="-6.506023">
        <ele>98.940</ele>
        <time>2019-06-19T12:34:36Z</time>
      </trkpt>
      <trkpt lat="43.536041" lon="-6.506301">
        <ele>98.240</ele>
        <time>2019-06-19T12:34:37Z</time>
      </trkpt>
      <trkpt lat="43.536016" lon="-6.506576">
        <ele>97.666</ele>
        <time>2019-06-19T12:34:38Z</time>
      </trkpt>
      <trkpt lat="43.535989" lon="-6.506851">
        <ele>97.144</ele>
        <time>2019-06-19T12:34:39Z</time>
      </trkpt>
      <trkpt lat="43.535962" lon="-6.507130">
        <ele>97.464</ele>
        <time>2019-06-19T12:34:40Z</time>
      </trkpt>
      <trkpt lat="43.535937" lon="-6.507424">
        <ele>97.928</ele>
        <time>2019-06-19T12:34:41Z</time>
      </trkpt>
      <trkpt lat="43.535912" lon="-6.507724">
        <ele>97.389</ele>
        <time>2019-06-19T12:34:42Z</time>
      </trkpt>
      <trkpt lat="43.535881" lon="-6.508018">
        <ele>95.917</ele>
        <time>2019-06-19T12:34:43Z</time>
      </trkpt>
      <trkpt lat="43.535855" lon="-6.508309">
        <ele>94.108</ele>
        <time>2019-06-19T12:34:44Z</time>
      </trkpt>
      <trkpt lat="43.535831" lon="-6.508591">
        <ele>94.085</ele>
        <time>2019-06-19T12:34:45Z</time>
      </trkpt>
      <trkpt lat="43.535809" lon="-6.508860">
        <ele>93.979</ele>
        <time>2019-06-19T12:34:46Z</time>
      </trkpt>
      <trkpt lat="43.535792" lon="-6.509143">
        <ele>92.940</ele>
        <time>2019-06-19T12:34:47Z</time>
      </trkpt>
      <trkpt lat="43.535765" lon="-6.509423">
        <ele>92.143</ele>
        <time>2019-06-19T12:34:48Z</time>
      </trkpt>
      <trkpt lat="43.535747" lon="-6.509701">
        <ele>92.043</ele>
        <time>2019-06-19T12:34:49Z</time>
      </trkpt>
      <trkpt lat="43.535731" lon="-6.509984">
        <ele>92.319</ele>
        <time>2019-06-19T12:34:50Z</time>
      </trkpt>
      <trkpt lat="43.535706" lon="-6.510262">
        <ele>92.527</ele>
        <time>2019-06-19T12:34:51Z</time>
      </trkpt>
      <trkpt lat="43.535682" lon="-6.510539">
        <ele>93.157</ele>
        <time>2019-06-19T12:34:52Z</time>
      </trkpt>
      <trkpt lat="43.535663" lon="-6.510812">
        <ele>93.675</ele>
        <time>2019-06-19T12:34:53Z</time>
      </trkpt>
      <trkpt lat="43.535640" lon="-6.511083">
        <ele>94.328</ele>
        <time>2019-06-19T12:34:54Z</time>
      </trkpt>
      <trkpt lat="43.535610" lon="-6.511359">
        <ele>94.820</ele>
        <time>2019-06-19T12:34:55Z</time>
      </trkpt>
      <trkpt lat="43.535576" lon="-6.511640">
        <ele>94.008</ele>
        <time>2019-06-19T12:34:56Z</time>
      </trkpt>
      <trkpt lat="43.535547" lon="-6.511918">
        <ele>94.060</ele>
        <time>2019-06-19T12:34:57Z</time>
      </trkpt>
      <trkpt lat="43.535525" lon="-6.512201">
        <ele>93.184</ele>
        <time>2019-06-19T12:34:58Z</time>
      </trkpt>
      <trkpt lat="43.535499" lon="-6.512482">
        <ele>93.055</ele>
        <time>2019-06-19T12:34:59Z</time>
      </trkpt>
      <trkpt lat="43.535469" lon="-6.512756">
        <ele>93.318</ele>
        <time>2019-06-19T12:35:00Z</time>
      </trkpt>
      <trkpt lat="43.535440" lon="-6.513029">
        <ele>93.478</ele>
        <time>2019-06-19T12:35:01Z</time>
      </trkpt>
      <trkpt lat="43.535414" lon="-6.513302">
        <ele>93.184</ele>
        <time>2019-06-19T12:35:02Z</time>
      </trkpt>
      <trkpt lat="43.535395" lon="-6.513582">
        <ele>92.662</ele>
        <time>2019-06-19T12:35:03Z</time>
      </trkpt>
      <trkpt lat="43.535372" lon="-6.513848">
        <ele>92.432</ele>
        <time>2019-06-19T12:35:04Z</time>
      </trkpt>
      <trkpt lat="43.535355" lon="-6.514119">
        <ele>93.045</ele>
        <time>2019-06-19T12:35:05Z</time>
      </trkpt>
      <trkpt lat="43.535332" lon="-6.514388">
        <ele>92.947</ele>
        <time>2019-06-19T12:35:06Z</time>
      </trkpt>
      <trkpt lat="43.535308" lon="-6.514642">
        <ele>93.611</ele>
        <time>2019-06-19T12:35:07Z</time>
      </trkpt>
      <trkpt lat="43.535287" lon="-6.514902">
        <ele>93.908</ele>
        <time>2019-06-19T12:35:08Z</time>
      </trkpt>
      <trkpt lat="43.535255" lon="-6.515137">
        <ele>93.687</ele>
        <time>2019-06-19T12:35:09Z</time>
      </trkpt>
      <trkpt lat="43.535231" lon="-6.515373">
        <ele>93.241</ele>
        <time>2019-06-19T12:35:10Z</time>
      </trkpt>
      <trkpt lat="43.535215" lon="-6.515621">
        <ele>93.212</ele>
        <time>2019-06-19T12:35:11Z</time>
      </trkpt>
      <trkpt lat="43.535200" lon="-6.515877">
        <ele>92.865</ele>
        <time>2019-06-19T12:35:12Z</time>
      </trkpt>
      <trkpt lat="43.535183" lon="-6.516124">
        <ele>91.925</ele>
        <time>2019-06-19T12:35:13Z</time>
      </trkpt>
      <trkpt lat="43.535161" lon="-6.516362">
        <ele>90.251</ele>
        <time>2019-06-19T12:35:14Z</time>
      </trkpt>
      <trkpt lat="43.535140" lon="-6.516582">
        <ele>88.689</ele>
        <time>2019-06-19T12:35:15Z</time>
      </trkpt>
      <trkpt lat="43.535120" lon="-6.516808">
        <ele>87.659</ele>
        <time>2019-06-19T12:35:16Z</time>
      </trkpt>
      <trkpt lat="43.535098" lon="-6.517016">
        <ele>87.528</ele>
        <time>2019-06-19T12:35:17Z</time>
      </trkpt>
      <trkpt lat="43.535080" lon="-6.517216">
        <ele>88.189</ele>
        <time>2019-06-19T12:35:18Z</time>
      </trkpt>
      <trkpt lat="43.535066" lon="-6.517426">
        <ele>88.617</ele>
        <time>2019-06-19T12:35:19Z</time>
      </trkpt>
      <trkpt lat="43.535043" lon="-6.517647">
        <ele>89.508</ele>
        <time>2019-06-19T12:35:20Z</time>
      </trkpt>
      <trkpt lat="43.535025" lon="-6.517857">
        <ele>90.345</ele>
        <time>2019-06-19T12:35:21Z</time>
      </trkpt>
      <trkpt lat="43.535010" lon="-6.518077">
        <ele>91.099</ele>
        <time>2019-06-19T12:35:22Z</time>
      </trkpt>
      <trkpt lat="43.534992" lon="-6.518289">
        <ele>91.090</ele>
        <time>2019-06-19T12:35:23Z</time>
      </trkpt>
      <trkpt lat="43.534975" lon="-6.518501">
        <ele>90.593</ele>
        <time>2019-06-19T12:35:24Z</time>
      </trkpt>
      <trkpt lat="43.534956" lon="-6.518701">
        <ele>89.893</ele>
        <time>2019-06-19T12:35:25Z</time>
      </trkpt>
      <trkpt lat="43.534936" lon="-6.518897">
        <ele>89.239</ele>
        <time>2019-06-19T12:35:26Z</time>
      </trkpt>
      <trkpt lat="43.534908" lon="-6.519078">
        <ele>89.387</ele>
        <time>2019-06-19T12:35:27Z</time>
      </trkpt>
      <trkpt lat="43.534894" lon="-6.519253">
        <ele>89.517</ele>
        <time>2019-06-19T12:35:28Z</time>
      </trkpt>
      <trkpt lat="43.534880" lon="-6.519428">
        <ele>89.876</ele>
        <time>2019-06-19T12:35:29Z</time>
      </trkpt>
      <trkpt lat="43.534858" lon="-6.519599">
        <ele>90.090</ele>
        <time>2019-06-19T12:35:30Z</time>
      </trkpt>
      <trkpt lat="43.534849" lon="-6.519761">
        <ele>89.919</ele>
        <time>2019-06-19T12:35:31Z</time>
      </trkpt>
      <trkpt lat="43.534835" lon="-6.519925">
        <ele>89.508</ele>
        <time>2019-06-19T12:35:32Z</time>
      </trkpt>
      <trkpt lat="43.534820" lon="-6.520091">
        <ele>89.070</ele>
        <time>2019-06-19T12:35:33Z</time>
      </trkpt>
      <trkpt lat="43.534806" lon="-6.520275">
        <ele>88.444</ele>
        <time>2019-06-19T12:35:34Z</time>
      </trkpt>
      <trkpt lat="43.534790" lon="-6.520476">
        <ele>88.015</ele>
        <time>2019-06-19T12:35:35Z</time>
      </trkpt>
      <trkpt lat="43.534775" lon="-6.520689">
        <ele>87.918</ele>
        <time>2019-06-19T12:35:36Z</time>
      </trkpt>
      <trkpt lat="43.534752" lon="-6.520899">
        <ele>88.028</ele>
        <time>2019-06-19T12:35:37Z</time>
      </trkpt>
      <trkpt lat="43.534732" lon="-6.521119">
        <ele>88.014</ele>
        <time>2019-06-19T12:35:38Z</time>
      </trkpt>
      <trkpt lat="43.534718" lon="-6.521341">
        <ele>88.022</ele>
        <time>2019-06-19T12:35:39Z</time>
      </trkpt>
      <trkpt lat="43.534694" lon="-6.521554">
        <ele>88.292</ele>
        <time>2019-06-19T12:35:40Z</time>
      </trkpt>
      <trkpt lat="43.534684" lon="-6.521770">
        <ele>88.655</ele>
        <time>2019-06-19T12:35:41Z</time>
      </trkpt>
      <trkpt lat="43.534662" lon="-6.521982">
        <ele>89.207</ele>
        <time>2019-06-19T12:35:42Z</time>
      </trkpt>
      <trkpt lat="43.534637" lon="-6.522199">
        <ele>89.317</ele>
        <time>2019-06-19T12:35:43Z</time>
      </trkpt>
      <trkpt lat="43.534611" lon="-6.522412">
        <ele>89.008</ele>
        <time>2019-06-19T12:35:44Z</time>
      </trkpt>
      <trkpt lat="43.534588" lon="-6.522620">
        <ele>89.078</ele>
        <time>2019-06-19T12:35:45Z</time>
      </trkpt>
      <trkpt lat="43.534567" lon="-6.522833">
        <ele>89.022</ele>
        <time>2019-06-19T12:35:46Z</time>
      </trkpt>
      <trkpt lat="43.534546" lon="-6.523040">
        <ele>89.033</ele>
        <time>2019-06-19T12:35:47Z</time>
      </trkpt>
      <trkpt lat="43.534531" lon="-6.523229">
        <ele>89.026</ele>
        <time>2019-06-19T12:35:48Z</time>
      </trkpt>
      <trkpt lat="43.534514" lon="-6.523415">
        <ele>89.136</ele>
        <time>2019-06-19T12:35:49Z</time>
      </trkpt>
      <trkpt lat="43.534497" lon="-6.523607">
        <ele>89.692</ele>
        <time>2019-06-19T12:35:50Z</time>
      </trkpt>
      <trkpt lat="43.534478" lon="-6.523787">
        <ele>89.880</ele>
        <time>2019-06-19T12:35:51Z</time>
      </trkpt>
      <trkpt lat="43.534471" lon="-6.523977">
        <ele>89.530</ele>
        <time>2019-06-19T12:35:52Z</time>
      </trkpt>
      <trkpt lat="43.534452" lon="-6.524172">
        <ele>88.997</ele>
        <time>2019-06-19T12:35:53Z</time>
      </trkpt>
      <trkpt lat="43.534421" lon="-6.524358">
        <ele>88.523</ele>
        <time>2019-06-19T12:35:54Z</time>
      </trkpt>
      <trkpt lat="43.534385" lon="-6.524536">
        <ele>88.625</ele>
        <time>2019-06-19T12:35:55Z</time>
      </trkpt>
      <trkpt lat="43.534348" lon="-6.524706">
        <ele>88.708</ele>
        <time>2019-06-19T12:35:56Z</time>
      </trkpt>
      <trkpt lat="43.534294" lon="-6.524865">
        <ele>89.362</ele>
        <time>2019-06-19T12:35:57Z</time>
      </trkpt>
      <trkpt lat="43.534238" lon="-6.525029">
        <ele>89.716</ele>
        <time>2019-06-19T12:35:58Z</time>
      </trkpt>
      <trkpt lat="43.534177" lon="-6.525180">
        <ele>90.027</ele>
        <time>2019-06-19T12:35:59Z</time>
      </trkpt>
      <trkpt lat="43.534118" lon="-6.525350">
        <ele>89.740</ele>
        <time>2019-06-19T12:36:00Z</time>
      </trkpt>
      <trkpt lat="43.534060" lon="-6.525513">
        <ele>89.220</ele>
        <time>2019-06-19T12:36:01Z</time>
      </trkpt>
      <trkpt lat="43.534018" lon="-6.525670">
        <ele>89.036</ele>
        <time>2019-06-19T12:36:02Z</time>
      </trkpt>
      <trkpt lat="43.533954" lon="-6.525830">
        <ele>89.014</ele>
        <time>2019-06-19T12:36:03Z</time>
      </trkpt>
      <trkpt lat="43.533890" lon="-6.525984">
        <ele>89.554</ele>
        <time>2019-06-19T12:36:04Z</time>
      </trkpt>
      <trkpt lat="43.533832" lon="-6.526151">
        <ele>90.297</ele>
        <time>2019-06-19T12:36:05Z</time>
      </trkpt>
      <trkpt lat="43.533767" lon="-6.526322">
        <ele>90.423</ele>
        <time>2019-06-19T12:36:06Z</time>
      </trkpt>
      <trkpt lat="43.533704" lon="-6.526494">
        <ele>90.325</ele>
        <time>2019-06-19T12:36:07Z</time>
      </trkpt>
      <trkpt lat="43.533638" lon="-6.526662">
        <ele>89.908</ele>
        <time>2019-06-19T12:36:08Z</time>
      </trkpt>
      <trkpt lat="43.533582" lon="-6.526835">
        <ele>89.492</ele>
        <time>2019-06-19T12:36:09Z</time>
      </trkpt>
      <trkpt lat="43.533529" lon="-6.526980">
        <ele>89.026</ele>
        <time>2019-06-19T12:36:10Z</time>
      </trkpt>
      <trkpt lat="43.533472" lon="-6.527116">
        <ele>89.047</ele>
        <time>2019-06-19T12:36:11Z</time>
      </trkpt>
      <trkpt lat="43.533419" lon="-6.527257">
        <ele>89.050</ele>
        <time>2019-06-19T12:36:12Z</time>
      </trkpt>
      <trkpt lat="43.533375" lon="-6.527332">
        <ele>89.070</ele>
        <time>2019-06-19T12:36:13Z</time>
      </trkpt>
      <trkpt lat="43.533312" lon="-6.527489">
        <ele>89.116</ele>
        <time>2019-06-19T12:36:14Z</time>
      </trkpt>
      <trkpt lat="43.533269" lon="-6.527631">
        <ele>89.564</ele>
        <time>2019-06-19T12:36:15Z</time>
      </trkpt>
      <trkpt lat="43.533203" lon="-6.527802">
        <ele>89.564</ele>
        <time>2019-06-19T12:36:16Z</time>
      </trkpt>
      <trkpt lat="43.533133" lon="-6.527968">
        <ele>89.381</ele>
        <time>2019-06-19T12:36:17Z</time>
      </trkpt>
      <trkpt lat="43.533065" lon="-6.528109">
        <ele>88.761</ele>
        <time>2019-06-19T12:36:18Z</time>
      </trkpt>
      <trkpt lat="43.533006" lon="-6.528276">
        <ele>86.517</ele>
        <time>2019-06-19T12:36:19Z</time>
      </trkpt>
      <trkpt lat="43.532944" lon="-6.528427">
        <ele>84.708</ele>
        <time>2019-06-19T12:36:20Z</time>
      </trkpt>
      <trkpt lat="43.532879" lon="-6.528596">
        <ele>82.981</ele>
        <time>2019-06-19T12:36:21Z</time>
      </trkpt>
      <trkpt lat="43.532819" lon="-6.528763">
        <ele>82.335</ele>
        <time>2019-06-19T12:36:22Z</time>
      </trkpt>
      <trkpt lat="43.532767" lon="-6.528911">
        <ele>82.036</ele>
        <time>2019-06-19T12:36:23Z</time>
      </trkpt>
      <trkpt lat="43.532701" lon="-6.529090">
        <ele>81.929</ele>
        <time>2019-06-19T12:36:24Z</time>
      </trkpt>
      <trkpt lat="43.532639" lon="-6.529273">
        <ele>81.079</ele>
        <time>2019-06-19T12:36:25Z</time>
      </trkpt>
      <trkpt lat="43.532582" lon="-6.529439">
        <ele>79.895</ele>
        <time>2019-06-19T12:36:26Z</time>
      </trkpt>
      <trkpt lat="43.532521" lon="-6.529618">
        <ele>77.933</ele>
        <time>2019-06-19T12:36:27Z</time>
      </trkpt>
      <trkpt lat="43.532458" lon="-6.529786">
        <ele>75.983</ele>
        <time>2019-06-19T12:36:28Z</time>
      </trkpt>
      <trkpt lat="43.532383" lon="-6.529957">
        <ele>73.639</ele>
        <time>2019-06-19T12:36:29Z</time>
      </trkpt>
      <trkpt lat="43.532372" lon="-6.530038">
        <ele>73.001</ele>
        <time>2019-06-19T12:36:30Z</time>
      </trkpt>
      <trkpt lat="43.532327" lon="-6.530178">
        <ele>71.421</ele>
        <time>2019-06-19T12:36:31Z</time>
      </trkpt>
      <trkpt lat="43.532329" lon="-6.530292">
        <ele>70.808</ele>
        <time>2019-06-19T12:36:32Z</time>
      </trkpt>
      <trkpt lat="43.532325" lon="-6.530435">
        <ele>69.726</ele>
        <time>2019-06-19T12:36:33Z</time>
      </trkpt>
      <trkpt lat="43.532331" lon="-6.530547">
        <ele>69.070</ele>
        <time>2019-06-19T12:36:34Z</time>
      </trkpt>
      <trkpt lat="43.532374" lon="-6.530670">
        <ele>67.291</ele>
        <time>2019-06-19T12:36:35Z</time>
      </trkpt>
      <trkpt lat="43.532532" lon="-6.530710">
        <ele>68.564</ele>
        <time>2019-06-19T12:36:36Z</time>
      </trkpt>
      <trkpt lat="43.532619" lon="-6.530777">
        <ele>68.094</ele>
        <time>2019-06-19T12:36:37Z</time>
      </trkpt>
      <trkpt lat="43.532720" lon="-6.530820">
        <ele>68.560</ele>
        <time>2019-06-19T12:36:38Z</time>
      </trkpt>
      <trkpt lat="43.532816" lon="-6.530835">
        <ele>68.748</ele>
        <time>2019-06-19T12:36:39Z</time>
      </trkpt>
      <trkpt lat="43.532931" lon="-6.530850">
        <ele>67.368</ele>
        <time>2019-06-19T12:36:40Z</time>
      </trkpt>
      <trkpt lat="43.533052" lon="-6.530788">
        <ele>68.283</ele>
        <time>2019-06-19T12:36:41Z</time>
      </trkpt>
      <trkpt lat="43.533171" lon="-6.530760">
        <ele>67.125</ele>
        <time>2019-06-19T12:36:42Z</time>
      </trkpt>
      <trkpt lat="43.533313" lon="-6.530608">
        <ele>68.217</ele>
        <time>2019-06-19T12:36:43Z</time>
      </trkpt>
      <trkpt lat="43.533442" lon="-6.530529">
        <ele>67.208</ele>
        <time>2019-06-19T12:36:44Z</time>
      </trkpt>
      <trkpt lat="43.533517" lon="-6.530340">
        <ele>69.931</ele>
        <time>2019-06-19T12:36:45Z</time>
      </trkpt>
      <trkpt lat="43.533628" lon="-6.530206">
        <ele>71.155</ele>
        <time>2019-06-19T12:36:46Z</time>
      </trkpt>
      <trkpt lat="43.533741" lon="-6.530099">
        <ele>70.426</ele>
        <time>2019-06-19T12:36:47Z</time>
      </trkpt>
      <trkpt lat="43.533868" lon="-6.529980">
        <ele>69.919</ele>
        <time>2019-06-19T12:36:48Z</time>
      </trkpt>
      <trkpt lat="43.533968" lon="-6.529880">
        <ele>68.479</ele>
        <time>2019-06-19T12:36:49Z</time>
      </trkpt>
      <trkpt lat="43.533995" lon="-6.529765">
        <ele>69.735</ele>
        <time>2019-06-19T12:36:50Z</time>
      </trkpt>
      <trkpt lat="43.534092" lon="-6.529666">
        <ele>68.453</ele>
        <time>2019-06-19T12:36:51Z</time>
      </trkpt>
      <trkpt lat="43.534217" lon="-6.529651">
        <ele>66.123</ele>
        <time>2019-06-19T12:36:52Z</time>
      </trkpt>
      <trkpt lat="43.534290" lon="-6.529695">
        <ele>65.096</ele>
        <time>2019-06-19T12:36:53Z</time>
      </trkpt>
      <trkpt lat="43.534387" lon="-6.529736">
        <ele>64.031</ele>
        <time>2019-06-19T12:36:54Z</time>
      </trkpt>
      <trkpt lat="43.534479" lon="-6.529785">
        <ele>64.024</ele>
        <time>2019-06-19T12:36:55Z</time>
      </trkpt>
      <trkpt lat="43.534474" lon="-6.529937">
        <ele>61.708</ele>
        <time>2019-06-19T12:36:56Z</time>
      </trkpt>
      <trkpt lat="43.534500" lon="-6.530055">
        <ele>61.022</ele>
        <time>2019-06-19T12:36:57Z</time>
      </trkpt>
      <trkpt lat="43.534467" lon="-6.530237">
        <ele>58.816</ele>
        <time>2019-06-19T12:36:58Z</time>
      </trkpt>
      <trkpt lat="43.534484" lon="-6.530401">
        <ele>57.167</ele>
        <time>2019-06-19T12:36:59Z</time>
      </trkpt>
      <trkpt lat="43.534534" lon="-6.530545">
        <ele>56.460</ele>
        <time>2019-06-19T12:37:00Z</time>
      </trkpt>
      <trkpt lat="43.534588" lon="-6.530646">
        <ele>55.770</ele>
        <time>2019-06-19T12:37:01Z</time>
      </trkpt>
      <trkpt lat="43.534643" lon="-6.530762">
        <ele>54.216</ele>
        <time>2019-06-19T12:37:02Z</time>
      </trkpt>
      <trkpt lat="43.534714" lon="-6.530884">
        <ele>52.084</ele>
        <time>2019-06-19T12:37:03Z</time>
      </trkpt>
      <trkpt lat="43.534810" lon="-6.530931">
        <ele>51.394</ele>
        <time>2019-06-19T12:37:04Z</time>
      </trkpt>
      <trkpt lat="43.534947" lon="-6.530975">
        <ele>50.925</ele>
        <time>2019-06-19T12:37:05Z</time>
      </trkpt>
      <trkpt lat="43.535117" lon="-6.530991">
        <ele>49.526</ele>
        <time>2019-06-19T12:37:06Z</time>
      </trkpt>
      <trkpt lat="43.535324" lon="-6.530981">
        <ele>48.208</ele>
        <time>2019-06-19T12:37:07Z</time>
      </trkpt>
      <trkpt lat="43.535513" lon="-6.531031">
        <ele>46.408</ele>
        <time>2019-06-19T12:37:08Z</time>
      </trkpt>
      <trkpt lat="43.535663" lon="-6.531109">
        <ele>45.495</ele>
        <time>2019-06-19T12:37:09Z</time>
      </trkpt>
      <trkpt lat="43.535846" lon="-6.531190">
        <ele>45.539</ele>
        <time>2019-06-19T12:37:10Z</time>
      </trkpt>
      <trkpt lat="43.536003" lon="-6.531309">
        <ele>42.220</ele>
        <time>2019-06-19T12:37:11Z</time>
      </trkpt>
      <trkpt lat="43.536144" lon="-6.531435">
        <ele>39.143</ele>
        <time>2019-06-19T12:37:12Z</time>
      </trkpt>
      <trkpt lat="43.536288" lon="-6.531538">
        <ele>39.243</ele>
        <time>2019-06-19T12:37:13Z</time>
      </trkpt>
      <trkpt lat="43.536433" lon="-6.531644">
        <ele>39.689</ele>
        <time>2019-06-19T12:37:14Z</time>
      </trkpt>
      <trkpt lat="43.536573" lon="-6.531751">
        <ele>40.897</ele>
        <time>2019-06-19T12:37:15Z</time>
      </trkpt>
      <trkpt lat="43.536705" lon="-6.531840">
        <ele>41.827</ele>
        <time>2019-06-19T12:37:16Z</time>
      </trkpt>
      <trkpt lat="43.536840" lon="-6.531928">
        <ele>42.394</ele>
        <time>2019-06-19T12:37:17Z</time>
      </trkpt>
      <trkpt lat="43.536974" lon="-6.532014">
        <ele>43.157</ele>
        <time>2019-06-19T12:37:18Z</time>
      </trkpt>
      <trkpt lat="43.537116" lon="-6.532080">
        <ele>44.322</ele>
        <time>2019-06-19T12:37:19Z</time>
      </trkpt>
      <trkpt lat="43.537247" lon="-6.532155">
        <ele>44.208</ele>
        <time>2019-06-19T12:37:20Z</time>
      </trkpt>
      <trkpt lat="43.537371" lon="-6.532214">
        <ele>43.562</ele>
        <time>2019-06-19T12:37:21Z</time>
      </trkpt>
      <trkpt lat="43.537500" lon="-6.532297">
        <ele>42.016</ele>
        <time>2019-06-19T12:37:22Z</time>
      </trkpt>
      <trkpt lat="43.537625" lon="-6.532355">
        <ele>43.327</ele>
        <time>2019-06-19T12:37:23Z</time>
      </trkpt>
      <trkpt lat="43.537759" lon="-6.532437">
        <ele>44.040</ele>
        <time>2019-06-19T12:37:24Z</time>
      </trkpt>
      <trkpt lat="43.537896" lon="-6.532514">
        <ele>44.480</ele>
        <time>2019-06-19T12:37:25Z</time>
      </trkpt>
      <trkpt lat="43.538023" lon="-6.532601">
        <ele>44.276</ele>
        <time>2019-06-19T12:37:26Z</time>
      </trkpt>
      <trkpt lat="43.538140" lon="-6.532672">
        <ele>45.274</ele>
        <time>2019-06-19T12:37:27Z</time>
      </trkpt>
      <trkpt lat="43.538262" lon="-6.532750">
        <ele>46.594</ele>
        <time>2019-06-19T12:37:28Z</time>
      </trkpt>
      <trkpt lat="43.538390" lon="-6.532855">
        <ele>47.114</ele>
        <time>2019-06-19T12:37:29Z</time>
      </trkpt>
      <trkpt lat="43.538505" lon="-6.532978">
        <ele>46.054</ele>
        <time>2019-06-19T12:37:30Z</time>
      </trkpt>
      <trkpt lat="43.538617" lon="-6.533077">
        <ele>45.109</ele>
        <time>2019-06-19T12:37:31Z</time>
      </trkpt>
      <trkpt lat="43.538724" lon="-6.533189">
        <ele>43.508</ele>
        <time>2019-06-19T12:37:32Z</time>
      </trkpt>
      <trkpt lat="43.538834" lon="-6.533370">
        <ele>38.874</ele>
        <time>2019-06-19T12:37:33Z</time>
      </trkpt>
      <trkpt lat="43.538915" lon="-6.533534">
        <ele>33.378</ele>
        <time>2019-06-19T12:37:34Z</time>
      </trkpt>
      <trkpt lat="43.538996" lon="-6.533695">
        <ele>29.769</ele>
        <time>2019-06-19T12:37:35Z</time>
      </trkpt>
      <trkpt lat="43.539110" lon="-6.533742">
        <ele>32.642</ele>
        <time>2019-06-19T12:37:36Z</time>
      </trkpt>
      <trkpt lat="43.539220" lon="-6.533813">
        <ele>34.562</ele>
        <time>2019-06-19T12:37:37Z</time>
      </trkpt>
      <trkpt lat="43.539313" lon="-6.533913">
        <ele>34.488</ele>
        <time>2019-06-19T12:37:38Z</time>
      </trkpt>
      <trkpt lat="43.539422" lon="-6.533990">
        <ele>36.156</ele>
        <time>2019-06-19T12:37:39Z</time>
      </trkpt>
      <trkpt lat="43.539513" lon="-6.534041">
        <ele>38.186</ele>
        <time>2019-06-19T12:37:40Z</time>
      </trkpt>
      <trkpt lat="43.539598" lon="-6.534131">
        <ele>38.518</ele>
        <time>2019-06-19T12:37:41Z</time>
      </trkpt>
      <trkpt lat="43.539614" lon="-6.534246">
        <ele>35.098</ele>
        <time>2019-06-19T12:37:42Z</time>
      </trkpt>
      <trkpt lat="43.539641" lon="-6.534369">
        <ele>31.317</ele>
        <time>2019-06-19T12:37:43Z</time>
      </trkpt>
      <trkpt lat="43.539653" lon="-6.534496">
        <ele>27.308</ele>
        <time>2019-06-19T12:37:44Z</time>
      </trkpt>
      <trkpt lat="43.539659" lon="-6.534650">
        <ele>23.114</ele>
        <time>2019-06-19T12:37:45Z</time>
      </trkpt>
      <trkpt lat="43.539689" lon="-6.534785">
        <ele>20.268</ele>
        <time>2019-06-19T12:37:46Z</time>
      </trkpt>
      <trkpt lat="43.539730" lon="-6.534928">
        <ele>17.769</ele>
        <time>2019-06-19T12:37:47Z</time>
      </trkpt>
      <trkpt lat="43.539817" lon="-6.535025">
        <ele>17.132</ele>
        <time>2019-06-19T12:37:48Z</time>
      </trkpt>
      <trkpt lat="43.539922" lon="-6.535035">
        <ele>18.362</ele>
        <time>2019-06-19T12:37:49Z</time>
      </trkpt>
      <trkpt lat="43.540039" lon="-6.535053">
        <ele>19.138</ele>
        <time>2019-06-19T12:37:50Z</time>
      </trkpt>
      <trkpt lat="43.540175" lon="-6.535084">
        <ele>19.176</ele>
        <time>2019-06-19T12:37:51Z</time>
      </trkpt>
      <trkpt lat="43.540274" lon="-6.535121">
        <ele>18.526</ele>
        <time>2019-06-19T12:37:52Z</time>
      </trkpt>
      <trkpt lat="43.540394" lon="-6.535151">
        <ele>17.764</ele>
        <time>2019-06-19T12:37:53Z</time>
      </trkpt>
      <trkpt lat="43.540515" lon="-6.535149">
        <ele>17.806</ele>
        <time>2019-06-19T12:37:54Z</time>
      </trkpt>
      <trkpt lat="43.540617" lon="-6.535102">
        <ele>18.316</ele>
        <time>2019-06-19T12:37:55Z</time>
      </trkpt>
      <trkpt lat="43.540750" lon="-6.534982">
        <ele>19.308</ele>
        <time>2019-06-19T12:37:56Z</time>
      </trkpt>
      <trkpt lat="43.540872" lon="-6.534920">
        <ele>18.539</ele>
        <time>2019-06-19T12:37:57Z</time>
      </trkpt>
      <trkpt lat="43.540984" lon="-6.534829">
        <ele>17.323</ele>
        <time>2019-06-19T12:37:58Z</time>
      </trkpt>
      <trkpt lat="43.541093" lon="-6.534751">
        <ele>15.354</ele>
        <time>2019-06-19T12:37:59Z</time>
      </trkpt>
      <trkpt lat="43.541079" lon="-6.534666">
        <ele>16.327</ele>
        <time>2019-06-19T12:38:00Z</time>
      </trkpt>
      <trkpt lat="43.541055" lon="-6.534575">
        <ele>18.047</ele>
        <time>2019-06-19T12:38:01Z</time>
      </trkpt>
      <trkpt lat="43.541106" lon="-6.534511">
        <ele>16.733</ele>
        <time>2019-06-19T12:38:02Z</time>
      </trkpt>
      <trkpt lat="43.541074" lon="-6.534575">
        <ele>17.371</ele>
        <time>2019-06-19T12:38:03Z</time>
      </trkpt>
      <trkpt lat="43.541124" lon="-6.534462">
        <ele>16.721</ele>
        <time>2019-06-19T12:38:06Z</time>
      </trkpt>
      <trkpt lat="43.541162" lon="-6.534345">
        <ele>18.939</ele>
        <time>2019-06-19T12:38:07Z</time>
      </trkpt>
      <trkpt lat="43.541207" lon="-6.534250">
        <ele>20.301</ele>
        <time>2019-06-19T12:38:08Z</time>
      </trkpt>
      <trkpt lat="43.541252" lon="-6.534159">
        <ele>21.321</ele>
        <time>2019-06-19T12:38:09Z</time>
      </trkpt>
      <trkpt lat="43.541345" lon="-6.534048">
        <ele>24.208</ele>
        <time>2019-06-19T12:38:10Z</time>
      </trkpt>
      <trkpt lat="43.541436" lon="-6.533960">
        <ele>26.546</ele>
        <time>2019-06-19T12:38:11Z</time>
      </trkpt>
      <trkpt lat="43.541511" lon="-6.533878">
        <ele>28.510</ele>
        <time>2019-06-19T12:38:12Z</time>
      </trkpt>
      <trkpt lat="43.541621" lon="-6.533786">
        <ele>30.171</ele>
        <time>2019-06-19T12:38:13Z</time>
      </trkpt>
      <trkpt lat="43.541686" lon="-6.533692">
        <ele>32.314</ele>
        <time>2019-06-19T12:38:14Z</time>
      </trkpt>
      <trkpt lat="43.541842" lon="-6.533610">
        <ele>28.294</ele>
        <time>2019-06-19T12:38:15Z</time>
      </trkpt>
      <trkpt lat="43.541931" lon="-6.533559">
        <ele>26.110</ele>
        <time>2019-06-19T12:38:16Z</time>
      </trkpt>
      <trkpt lat="43.542032" lon="-6.533504">
        <ele>24.258</ele>
        <time>2019-06-19T12:38:17Z</time>
      </trkpt>
      <trkpt lat="43.542165" lon="-6.533461">
        <ele>20.078</ele>
        <time>2019-06-19T12:38:18Z</time>
      </trkpt>
      <trkpt lat="43.542276" lon="-6.533444">
        <ele>17.427</ele>
        <time>2019-06-19T12:38:19Z</time>
      </trkpt>
      <trkpt lat="43.542341" lon="-6.533542">
        <ele>13.468</ele>
        <time>2019-06-19T12:38:20Z</time>
      </trkpt>
      <trkpt lat="43.542391" lon="-6.533731">
        <ele>10.214</ele>
        <time>2019-06-19T12:38:21Z</time>
      </trkpt>
      <trkpt lat="43.542449" lon="-6.533830">
        <ele>9.408</ele>
        <time>2019-06-19T12:38:22Z</time>
      </trkpt>
      <trkpt lat="43.542515" lon="-6.533923">
        <ele>9.115</ele>
        <time>2019-06-19T12:38:23Z</time>
      </trkpt>
      <trkpt lat="43.542580" lon="-6.534008">
        <ele>9.379</ele>
        <time>2019-06-19T12:38:24Z</time>
      </trkpt>
      <trkpt lat="43.542639" lon="-6.534089">
        <ele>9.490</ele>
        <time>2019-06-19T12:38:25Z</time>
      </trkpt>
      <trkpt lat="43.542684" lon="-6.534173">
        <ele>9.483</ele>
        <time>2019-06-19T12:38:26Z</time>
      </trkpt>
      <trkpt lat="43.542740" lon="-6.534228">
        <ele>9.483</ele>
        <time>2019-06-19T12:38:27Z</time>
      </trkpt>
      <trkpt lat="43.542785" lon="-6.534286">
        <ele>9.489</ele>
        <time>2019-06-19T12:38:28Z</time>
      </trkpt>
      <trkpt lat="43.542839" lon="-6.534341">
        <ele>9.397</ele>
        <time>2019-06-19T12:38:30Z</time>
      </trkpt>
      <trkpt lat="43.542935" lon="-6.534445">
        <ele>9.457</ele>
        <time>2019-06-19T12:38:50Z</time>
      </trkpt>
      <trkpt lat="43.542993" lon="-6.534526">
        <ele>9.983</ele>
        <time>2019-06-19T12:38:51Z</time>
      </trkpt>
      <trkpt lat="43.543032" lon="-6.534598">
        <ele>10.225</ele>
        <time>2019-06-19T12:38:52Z</time>
      </trkpt>
      <trkpt lat="43.543062" lon="-6.534721">
        <ele>11.017</ele>
        <time>2019-06-19T12:38:54Z</time>
      </trkpt>
      <trkpt lat="43.543056" lon="-6.534800">
        <ele>11.808</ele>
        <time>2019-06-19T12:38:55Z</time>
      </trkpt>
      <trkpt lat="43.543028" lon="-6.534872">
        <ele>12.721</ele>
        <time>2019-06-19T12:38:56Z</time>
      </trkpt>
      <trkpt lat="43.543002" lon="-6.534928">
        <ele>13.265</ele>
        <time>2019-06-19T12:38:57Z</time>
      </trkpt>
      <trkpt lat="43.542951" lon="-6.534998">
        <ele>13.666</ele>
        <time>2019-06-19T12:38:58Z</time>
      </trkpt>
      <trkpt lat="43.542899" lon="-6.535082">
        <ele>14.279</ele>
        <time>2019-06-19T12:38:59Z</time>
      </trkpt>
      <trkpt lat="43.542841" lon="-6.535160">
        <ele>14.549</ele>
        <time>2019-06-19T12:39:00Z</time>
      </trkpt>
      <trkpt lat="43.542749" lon="-6.535198">
        <ele>14.355</ele>
        <time>2019-06-19T12:39:01Z</time>
      </trkpt>
      <trkpt lat="43.542676" lon="-6.535274">
        <ele>14.293</ele>
        <time>2019-06-19T12:39:02Z</time>
      </trkpt>
      <trkpt lat="43.542612" lon="-6.535328">
        <ele>14.373</ele>
        <time>2019-06-19T12:39:03Z</time>
      </trkpt>
      <trkpt lat="43.542566" lon="-6.535406">
        <ele>14.466</ele>
        <time>2019-06-19T12:39:04Z</time>
      </trkpt>
      <trkpt lat="43.542498" lon="-6.535456">
        <ele>13.629</ele>
        <time>2019-06-19T12:39:05Z</time>
      </trkpt>
      <trkpt lat="43.542447" lon="-6.535505">
        <ele>13.321</ele>
        <time>2019-06-19T12:39:06Z</time>
      </trkpt>
      <trkpt lat="43.542404" lon="-6.535581">
        <ele>13.408</ele>
        <time>2019-06-19T12:39:07Z</time>
      </trkpt>
      <trkpt lat="43.542333" lon="-6.535607">
        <ele>12.959</ele>
        <time>2019-06-19T12:39:08Z</time>
      </trkpt>
      <trkpt lat="43.542296" lon="-6.535659">
        <ele>13.013</ele>
        <time>2019-06-19T12:39:09Z</time>
      </trkpt>
      <trkpt lat="43.542258" lon="-6.535704">
        <ele>12.884</ele>
        <time>2019-06-19T12:39:10Z</time>
      </trkpt>
      <trkpt lat="43.542219" lon="-6.535737">
        <ele>12.327</ele>
        <time>2019-06-19T12:39:11Z</time>
      </trkpt>
      <trkpt lat="43.542166" lon="-6.535786">
        <ele>12.117</ele>
        <time>2019-06-19T12:39:13Z</time>
      </trkpt>
      <trkpt lat="43.542115" lon="-6.535821">
        <ele>11.893</ele>
        <time>2019-06-19T12:39:18Z</time>
      </trkpt>
      <trkpt lat="43.542059" lon="-6.535888">
        <ele>11.851</ele>
        <time>2019-06-19T12:39:20Z</time>
      </trkpt>
      <trkpt lat="43.542008" lon="-6.535941">
        <ele>11.551</ele>
        <time>2019-06-19T12:39:22Z</time>
      </trkpt>
      <trkpt lat="43.541962" lon="-6.535981">
        <ele>10.933</ele>
        <time>2019-06-19T12:39:24Z</time>
      </trkpt>
      <trkpt lat="43.541916" lon="-6.536010">
        <ele>10.423</ele>
        <time>2019-06-19T12:39:28Z</time>
      </trkpt>
      <trkpt lat="43.541889" lon="-6.536068">
        <ele>10.315</ele>
        <time>2019-06-19T12:39:32Z</time>
      </trkpt>
      <trkpt lat="43.541889" lon="-6.536195">
        <ele>10.908</ele>
        <time>2019-06-19T12:39:34Z</time>
      </trkpt>
      <trkpt lat="43.541888" lon="-6.536269">
        <ele>11.466</ele>
        <time>2019-06-19T12:39:35Z</time>
      </trkpt>
      <trkpt lat="43.541911" lon="-6.536401">
        <ele>12.620</ele>
        <time>2019-06-19T12:39:36Z</time>
      </trkpt>
      <trkpt lat="43.541905" lon="-6.536478">
        <ele>13.161</ele>
        <time>2019-06-19T12:39:37Z</time>
      </trkpt>
      <trkpt lat="43.541872" lon="-6.536561">
        <ele>13.234</ele>
        <time>2019-06-19T12:39:38Z</time>
      </trkpt>
      <trkpt lat="43.541872" lon="-6.536631">
        <ele>13.764</ele>
        <time>2019-06-19T12:39:39Z</time>
      </trkpt>
      <trkpt lat="43.541850" lon="-6.536710">
        <ele>14.060</ele>
        <time>2019-06-19T12:39:40Z</time>
      </trkpt>
      <trkpt lat="43.541829" lon="-6.536800">
        <ele>14.338</ele>
        <time>2019-06-19T12:39:41Z</time>
      </trkpt>
      <trkpt lat="43.541828" lon="-6.536895">
        <ele>15.078</ele>
        <time>2019-06-19T12:39:42Z</time>
      </trkpt>
      <trkpt lat="43.541824" lon="-6.536985">
        <ele>15.697</ele>
        <time>2019-06-19T12:39:43Z</time>
      </trkpt>
      <trkpt lat="43.541814" lon="-6.537078">
        <ele>16.123</ele>
        <time>2019-06-19T12:39:44Z</time>
      </trkpt>
      <trkpt lat="43.541801" lon="-6.537177">
        <ele>16.625</ele>
        <time>2019-06-19T12:39:45Z</time>
      </trkpt>
      <trkpt lat="43.541793" lon="-6.537262">
        <ele>17.108</ele>
        <time>2019-06-19T12:39:46Z</time>
      </trkpt>
      <trkpt lat="43.541778" lon="-6.537361">
        <ele>17.942</ele>
        <time>2019-06-19T12:39:47Z</time>
      </trkpt>
      <trkpt lat="43.541754" lon="-6.537466">
        <ele>18.436</ele>
        <time>2019-06-19T12:39:48Z</time>
      </trkpt>
      <trkpt lat="43.541758" lon="-6.537530">
        <ele>19.287</ele>
        <time>2019-06-19T12:39:49Z</time>
      </trkpt>
      <trkpt lat="43.541746" lon="-6.537617">
        <ele>19.670</ele>
        <time>2019-06-19T12:39:51Z</time>
      </trkpt>
      <trkpt lat="43.541743" lon="-6.537706">
        <ele>20.230</ele>
        <time>2019-06-19T12:39:54Z</time>
      </trkpt>
      <trkpt lat="43.541721" lon="-6.537778">
        <ele>19.756</ele>
        <time>2019-06-19T12:39:56Z</time>
      </trkpt>
      <trkpt lat="43.541691" lon="-6.537882">
        <ele>20.244</ele>
        <time>2019-06-19T12:39:58Z</time>
      </trkpt>
      <trkpt lat="43.541678" lon="-6.537941">
        <ele>20.684</ele>
        <time>2019-06-19T12:39:59Z</time>
      </trkpt>
      <trkpt lat="43.541670" lon="-6.538038">
        <ele>21.978</ele>
        <time>2019-06-19T12:40:00Z</time>
      </trkpt>
      <trkpt lat="43.541657" lon="-6.538122">
        <ele>22.733</ele>
        <time>2019-06-19T12:40:01Z</time>
      </trkpt>
      <trkpt lat="43.541671" lon="-6.538199">
        <ele>24.426</ele>
        <time>2019-06-19T12:40:02Z</time>
      </trkpt>
      <trkpt lat="43.541657" lon="-6.538274">
        <ele>24.808</ele>
        <time>2019-06-19T12:40:03Z</time>
      </trkpt>
      <trkpt lat="43.541586" lon="-6.538341">
        <ele>23.670</ele>
        <time>2019-06-19T12:40:04Z</time>
      </trkpt>
      <trkpt lat="43.541490" lon="-6.538407">
        <ele>21.734</ele>
        <time>2019-06-19T12:40:05Z</time>
      </trkpt>
      <trkpt lat="43.541450" lon="-6.538471">
        <ele>21.495</ele>
        <time>2019-06-19T12:40:06Z</time>
      </trkpt>
      <trkpt lat="43.541399" lon="-6.538545">
        <ele>20.518</ele>
        <time>2019-06-19T12:40:07Z</time>
      </trkpt>
      <trkpt lat="43.541335" lon="-6.538617">
        <ele>20.998</ele>
        <time>2019-06-19T12:40:08Z</time>
      </trkpt>
      <trkpt lat="43.541257" lon="-6.538708">
        <ele>21.654</ele>
        <time>2019-06-19T12:40:09Z</time>
      </trkpt>
      <trkpt lat="43.541171" lon="-6.538741">
        <ele>21.172</ele>
        <time>2019-06-19T12:40:10Z</time>
      </trkpt>
      <trkpt lat="43.541099" lon="-6.538778">
        <ele>20.412</ele>
        <time>2019-06-19T12:40:11Z</time>
      </trkpt>
      <trkpt lat="43.541052" lon="-6.538848">
        <ele>19.965</ele>
        <time>2019-06-19T12:40:12Z</time>
      </trkpt>
      <trkpt lat="43.541004" lon="-6.538928">
        <ele>19.568</ele>
        <time>2019-06-19T12:40:13Z</time>
      </trkpt>
      <trkpt lat="43.540962" lon="-6.539010">
        <ele>19.414</ele>
        <time>2019-06-19T12:40:14Z</time>
      </trkpt>
      <trkpt lat="43.540911" lon="-6.539055">
        <ele>18.508</ele>
        <time>2019-06-19T12:40:15Z</time>
      </trkpt>
      <trkpt lat="43.540826" lon="-6.539128">
        <ele>16.899</ele>
        <time>2019-06-19T12:40:16Z</time>
      </trkpt>
      <trkpt lat="43.540747" lon="-6.539194">
        <ele>16.553</ele>
        <time>2019-06-19T12:40:17Z</time>
      </trkpt>
      <trkpt lat="43.540678" lon="-6.539272">
        <ele>17.244</ele>
        <time>2019-06-19T12:40:18Z</time>
      </trkpt>
      <trkpt lat="43.540608" lon="-6.539360">
        <ele>17.657</ele>
        <time>2019-06-19T12:40:19Z</time>
      </trkpt>
      <trkpt lat="43.540550" lon="-6.539453">
        <ele>18.317</ele>
        <time>2019-06-19T12:40:20Z</time>
      </trkpt>
      <trkpt lat="43.540493" lon="-6.539547">
        <ele>20.843</ele>
        <time>2019-06-19T12:40:21Z</time>
      </trkpt>
      <trkpt lat="43.540484" lon="-6.539643">
        <ele>24.161</ele>
        <time>2019-06-19T12:40:22Z</time>
      </trkpt>
      <trkpt lat="43.540475" lon="-6.539783">
        <ele>28.821</ele>
        <time>2019-06-19T12:40:23Z</time>
      </trkpt>
      <trkpt lat="43.540459" lon="-6.539899">
        <ele>32.194</ele>
        <time>2019-06-19T12:40:24Z</time>
      </trkpt>
      <trkpt lat="43.540439" lon="-6.540016">
        <ele>35.057</ele>
        <time>2019-06-19T12:40:25Z</time>
      </trkpt>
      <trkpt lat="43.540416" lon="-6.540149">
        <ele>39.922</ele>
        <time>2019-06-19T12:40:26Z</time>
      </trkpt>
      <trkpt lat="43.540364" lon="-6.540223">
        <ele>40.408</ele>
        <time>2019-06-19T12:40:27Z</time>
      </trkpt>
      <trkpt lat="43.540255" lon="-6.540310">
        <ele>38.742</ele>
        <time>2019-06-19T12:40:28Z</time>
      </trkpt>
      <trkpt lat="43.540136" lon="-6.540381">
        <ele>36.136</ele>
        <time>2019-06-19T12:40:29Z</time>
      </trkpt>
      <trkpt lat="43.540013" lon="-6.540418">
        <ele>30.867</ele>
        <time>2019-06-19T12:40:30Z</time>
      </trkpt>
      <trkpt lat="43.539894" lon="-6.540441">
        <ele>28.540</ele>
        <time>2019-06-19T12:40:31Z</time>
      </trkpt>
      <trkpt lat="43.539772" lon="-6.540513">
        <ele>27.590</ele>
        <time>2019-06-19T12:40:32Z</time>
      </trkpt>
      <trkpt lat="43.539670" lon="-6.540592">
        <ele>28.266</ele>
        <time>2019-06-19T12:40:33Z</time>
      </trkpt>
      <trkpt lat="43.539571" lon="-6.540643">
        <ele>29.324</ele>
        <time>2019-06-19T12:40:34Z</time>
      </trkpt>
      <trkpt lat="43.539500" lon="-6.540750">
        <ele>32.764</ele>
        <time>2019-06-19T12:40:35Z</time>
      </trkpt>
      <trkpt lat="43.539427" lon="-6.540801">
        <ele>33.548</ele>
        <time>2019-06-19T12:40:36Z</time>
      </trkpt>
      <trkpt lat="43.539373" lon="-6.540921">
        <ele>37.661</ele>
        <time>2019-06-19T12:40:37Z</time>
      </trkpt>
      <trkpt lat="43.539357" lon="-6.541055">
        <ele>43.017</ele>
        <time>2019-06-19T12:40:38Z</time>
      </trkpt>
      <trkpt lat="43.539303" lon="-6.541160">
        <ele>46.108</ele>
        <time>2019-06-19T12:40:39Z</time>
      </trkpt>
      <trkpt lat="43.539253" lon="-6.541270">
        <ele>50.067</ele>
        <time>2019-06-19T12:40:40Z</time>
      </trkpt>
      <trkpt lat="43.539180" lon="-6.541326">
        <ele>51.171</ele>
        <time>2019-06-19T12:40:41Z</time>
      </trkpt>
      <trkpt lat="43.539092" lon="-6.541392">
        <ele>52.872</ele>
        <time>2019-06-19T12:40:42Z</time>
      </trkpt>
      <trkpt lat="43.538991" lon="-6.541404">
        <ele>51.445</ele>
        <time>2019-06-19T12:40:43Z</time>
      </trkpt>
      <trkpt lat="43.538843" lon="-6.541361">
        <ele>47.845</ele>
        <time>2019-06-19T12:40:44Z</time>
      </trkpt>
      <trkpt lat="43.538659" lon="-6.541277">
        <ele>44.291</ele>
        <time>2019-06-19T12:40:45Z</time>
      </trkpt>
      <trkpt lat="43.538525" lon="-6.541260">
        <ele>44.539</ele>
        <time>2019-06-19T12:40:46Z</time>
      </trkpt>
      <trkpt lat="43.538391" lon="-6.541240">
        <ele>44.839</ele>
        <time>2019-06-19T12:40:47Z</time>
      </trkpt>
      <trkpt lat="43.538252" lon="-6.541235">
        <ele>45.277</ele>
        <time>2019-06-19T12:40:48Z</time>
      </trkpt>
      <trkpt lat="43.538112" lon="-6.541222">
        <ele>44.561</ele>
        <time>2019-06-19T12:40:49Z</time>
      </trkpt>
      <trkpt lat="43.537961" lon="-6.541221">
        <ele>42.627</ele>
        <time>2019-06-19T12:40:50Z</time>
      </trkpt>
      <trkpt lat="43.537813" lon="-6.541216">
        <ele>39.508</ele>
        <time>2019-06-19T12:40:51Z</time>
      </trkpt>
      <trkpt lat="43.537663" lon="-6.541207">
        <ele>37.160</ele>
        <time>2019-06-19T12:40:52Z</time>
      </trkpt>
      <trkpt lat="43.537511" lon="-6.541206">
        <ele>35.274</ele>
        <time>2019-06-19T12:40:53Z</time>
      </trkpt>
      <trkpt lat="43.537345" lon="-6.541234">
        <ele>34.555</ele>
        <time>2019-06-19T12:40:54Z</time>
      </trkpt>
      <trkpt lat="43.537181" lon="-6.541276">
        <ele>35.598</ele>
        <time>2019-06-19T12:40:55Z</time>
      </trkpt>
      <trkpt lat="43.537022" lon="-6.541322">
        <ele>39.798</ele>
        <time>2019-06-19T12:40:56Z</time>
      </trkpt>
      <trkpt lat="43.536873" lon="-6.541400">
        <ele>43.164</ele>
        <time>2019-06-19T12:40:57Z</time>
      </trkpt>
      <trkpt lat="43.536711" lon="-6.541492">
        <ele>44.942</ele>
        <time>2019-06-19T12:40:58Z</time>
      </trkpt>
      <trkpt lat="43.536548" lon="-6.541622">
        <ele>45.542</ele>
        <time>2019-06-19T12:40:59Z</time>
      </trkpt>
      <trkpt lat="43.536385" lon="-6.541743">
        <ele>45.148</ele>
        <time>2019-06-19T12:41:00Z</time>
      </trkpt>
      <trkpt lat="43.536210" lon="-6.541860">
        <ele>44.261</ele>
        <time>2019-06-19T12:41:01Z</time>
      </trkpt>
      <trkpt lat="43.536034" lon="-6.541988">
        <ele>44.417</ele>
        <time>2019-06-19T12:41:02Z</time>
      </trkpt>
      <trkpt lat="43.535869" lon="-6.542106">
        <ele>46.808</ele>
        <time>2019-06-19T12:41:03Z</time>
      </trkpt>
      <trkpt lat="43.535710" lon="-6.542215">
        <ele>46.767</ele>
        <time>2019-06-19T12:41:04Z</time>
      </trkpt>
      <trkpt lat="43.535550" lon="-6.542329">
        <ele>45.851</ele>
        <time>2019-06-19T12:41:05Z</time>
      </trkpt>
      <trkpt lat="43.535389" lon="-6.542447">
        <ele>42.592</ele>
        <time>2019-06-19T12:41:06Z</time>
      </trkpt>
      <trkpt lat="43.535225" lon="-6.542567">
        <ele>41.475</ele>
        <time>2019-06-19T12:41:07Z</time>
      </trkpt>
      <trkpt lat="43.535060" lon="-6.542672">
        <ele>43.545</ele>
        <time>2019-06-19T12:41:08Z</time>
      </trkpt>
      <trkpt lat="43.534904" lon="-6.542777">
        <ele>44.011</ele>
        <time>2019-06-19T12:41:09Z</time>
      </trkpt>
      <trkpt lat="43.534742" lon="-6.542898">
        <ele>43.769</ele>
        <time>2019-06-19T12:41:10Z</time>
      </trkpt>
      <trkpt lat="43.534590" lon="-6.543021">
        <ele>43.449</ele>
        <time>2019-06-19T12:41:11Z</time>
      </trkpt>
      <trkpt lat="43.534431" lon="-6.543162">
        <ele>43.974</ele>
        <time>2019-06-19T12:41:12Z</time>
      </trkpt>
      <trkpt lat="43.534319" lon="-6.543378">
        <ele>46.556</ele>
        <time>2019-06-19T12:41:13Z</time>
      </trkpt>
      <trkpt lat="43.534194" lon="-6.543582">
        <ele>47.321</ele>
        <time>2019-06-19T12:41:14Z</time>
      </trkpt>
      <trkpt lat="43.534084" lon="-6.543791">
        <ele>52.208</ele>
        <time>2019-06-19T12:41:15Z</time>
      </trkpt>
      <trkpt lat="43.533963" lon="-6.544003">
        <ele>55.950</ele>
        <time>2019-06-19T12:41:16Z</time>
      </trkpt>
      <trkpt lat="43.533851" lon="-6.544202">
        <ele>57.754</ele>
        <time>2019-06-19T12:41:17Z</time>
      </trkpt>
      <trkpt lat="43.533743" lon="-6.544408">
        <ele>59.945</ele>
        <time>2019-06-19T12:41:18Z</time>
      </trkpt>
      <trkpt lat="43.533621" lon="-6.544561">
        <ele>60.378</ele>
        <time>2019-06-19T12:41:19Z</time>
      </trkpt>
      <trkpt lat="43.533510" lon="-6.544718">
        <ele>61.888</ele>
        <time>2019-06-19T12:41:20Z</time>
      </trkpt>
      <trkpt lat="43.533381" lon="-6.544866">
        <ele>64.174</ele>
        <time>2019-06-19T12:41:21Z</time>
      </trkpt>
      <trkpt lat="43.533240" lon="-6.545000">
        <ele>65.732</ele>
        <time>2019-06-19T12:41:22Z</time>
      </trkpt>
      <trkpt lat="43.533103" lon="-6.545130">
        <ele>68.262</ele>
        <time>2019-06-19T12:41:23Z</time>
      </trkpt>
      <trkpt lat="43.532952" lon="-6.545247">
        <ele>69.446</ele>
        <time>2019-06-19T12:41:24Z</time>
      </trkpt>
      <trkpt lat="43.532775" lon="-6.545336">
        <ele>68.188</ele>
        <time>2019-06-19T12:41:25Z</time>
      </trkpt>
      <trkpt lat="43.532590" lon="-6.545402">
        <ele>68.416</ele>
        <time>2019-06-19T12:41:26Z</time>
      </trkpt>
      <trkpt lat="43.532404" lon="-6.545453">
        <ele>67.608</ele>
        <time>2019-06-19T12:41:27Z</time>
      </trkpt>
      <trkpt lat="43.532223" lon="-6.545507">
        <ele>66.327</ele>
        <time>2019-06-19T12:41:28Z</time>
      </trkpt>
      <trkpt lat="43.532043" lon="-6.545550">
        <ele>66.551</ele>
        <time>2019-06-19T12:41:29Z</time>
      </trkpt>
      <trkpt lat="43.531864" lon="-6.545608">
        <ele>68.862</ele>
        <time>2019-06-19T12:41:30Z</time>
      </trkpt>
      <trkpt lat="43.531696" lon="-6.545664">
        <ele>72.335</ele>
        <time>2019-06-19T12:41:31Z</time>
      </trkpt>
      <trkpt lat="43.531530" lon="-6.545711">
        <ele>74.075</ele>
        <time>2019-06-19T12:41:32Z</time>
      </trkpt>
      <trkpt lat="43.531369" lon="-6.545770">
        <ele>75.621</ele>
        <time>2019-06-19T12:41:33Z</time>
      </trkpt>
      <trkpt lat="43.531202" lon="-6.545837">
        <ele>74.749</ele>
        <time>2019-06-19T12:41:34Z</time>
      </trkpt>
      <trkpt lat="43.531044" lon="-6.545911">
        <ele>72.959</ele>
        <time>2019-06-19T12:41:35Z</time>
      </trkpt>
      <trkpt lat="43.530900" lon="-6.545996">
        <ele>71.935</ele>
        <time>2019-06-19T12:41:36Z</time>
      </trkpt>
      <trkpt lat="43.530749" lon="-6.546092">
        <ele>72.086</ele>
        <time>2019-06-19T12:41:37Z</time>
      </trkpt>
      <trkpt lat="43.530612" lon="-6.546215">
        <ele>71.614</ele>
        <time>2019-06-19T12:41:38Z</time>
      </trkpt>
      <trkpt lat="43.530510" lon="-6.546411">
        <ele>72.508</ele>
        <time>2019-06-19T12:41:39Z</time>
      </trkpt>
      <trkpt lat="43.530400" lon="-6.546576">
        <ele>71.796</ele>
        <time>2019-06-19T12:41:40Z</time>
      </trkpt>
      <trkpt lat="43.530295" lon="-6.546724">
        <ele>71.180</ele>
        <time>2019-06-19T12:41:41Z</time>
      </trkpt>
      <trkpt lat="43.530190" lon="-6.546881">
        <ele>71.841</ele>
        <time>2019-06-19T12:41:42Z</time>
      </trkpt>
      <trkpt lat="43.530106" lon="-6.547051">
        <ele>73.784</ele>
        <time>2019-06-19T12:41:43Z</time>
      </trkpt>
      <trkpt lat="43.530010" lon="-6.547189">
        <ele>75.454</ele>
        <time>2019-06-19T12:41:44Z</time>
      </trkpt>
      <trkpt lat="43.529911" lon="-6.547311">
        <ele>76.780</ele>
        <time>2019-06-19T12:41:45Z</time>
      </trkpt>
      <trkpt lat="43.529807" lon="-6.547429">
        <ele>78.248</ele>
        <time>2019-06-19T12:41:46Z</time>
      </trkpt>
      <trkpt lat="43.529713" lon="-6.547552">
        <ele>79.668</ele>
        <time>2019-06-19T12:41:47Z</time>
      </trkpt>
      <trkpt lat="43.529605" lon="-6.547672">
        <ele>79.813</ele>
        <time>2019-06-19T12:41:48Z</time>
      </trkpt>
      <trkpt lat="43.529481" lon="-6.547782">
        <ele>79.643</ele>
        <time>2019-06-19T12:41:49Z</time>
      </trkpt>
      <trkpt lat="43.529363" lon="-6.547909">
        <ele>78.207</ele>
        <time>2019-06-19T12:41:50Z</time>
      </trkpt>
      <trkpt lat="43.529259" lon="-6.548057">
        <ele>77.008</ele>
        <time>2019-06-19T12:41:51Z</time>
      </trkpt>
      <trkpt lat="43.529160" lon="-6.548205">
        <ele>76.524</ele>
        <time>2019-06-19T12:41:52Z</time>
      </trkpt>
      <trkpt lat="43.529059" lon="-6.548372">
        <ele>75.868</ele>
        <time>2019-06-19T12:41:53Z</time>
      </trkpt>
      <trkpt lat="43.528978" lon="-6.548538">
        <ele>76.599</ele>
        <time>2019-06-19T12:41:54Z</time>
      </trkpt>
      <trkpt lat="43.528900" lon="-6.548704">
        <ele>76.912</ele>
        <time>2019-06-19T12:41:55Z</time>
      </trkpt>
      <trkpt lat="43.528827" lon="-6.548856">
        <ele>76.542</ele>
        <time>2019-06-19T12:41:56Z</time>
      </trkpt>
      <trkpt lat="43.528759" lon="-6.549010">
        <ele>75.998</ele>
        <time>2019-06-19T12:41:57Z</time>
      </trkpt>
      <trkpt lat="43.528709" lon="-6.549176">
        <ele>75.336</ele>
        <time>2019-06-19T12:41:58Z</time>
      </trkpt>
      <trkpt lat="43.528684" lon="-6.549320">
        <ele>77.046</ele>
        <time>2019-06-19T12:41:59Z</time>
      </trkpt>
      <trkpt lat="43.528665" lon="-6.549469">
        <ele>78.938</ele>
        <time>2019-06-19T12:42:00Z</time>
      </trkpt>
      <trkpt lat="43.528646" lon="-6.549600">
        <ele>80.570</ele>
        <time>2019-06-19T12:42:01Z</time>
      </trkpt>
      <trkpt lat="43.528634" lon="-6.549705">
        <ele>82.017</ele>
        <time>2019-06-19T12:42:02Z</time>
      </trkpt>
      <trkpt lat="43.528631" lon="-6.549799">
        <ele>82.308</ele>
        <time>2019-06-19T12:42:03Z</time>
      </trkpt>
      <trkpt lat="43.528620" lon="-6.549890">
        <ele>82.166</ele>
        <time>2019-06-19T12:42:04Z</time>
      </trkpt>
      <trkpt lat="43.528632" lon="-6.549997">
        <ele>82.240</ele>
        <time>2019-06-19T12:42:05Z</time>
      </trkpt>
      <trkpt lat="43.528654" lon="-6.550087">
        <ele>82.471</ele>
        <time>2019-06-19T12:42:06Z</time>
      </trkpt>
      <trkpt lat="43.528663" lon="-6.550166">
        <ele>82.374</ele>
        <time>2019-06-19T12:42:07Z</time>
      </trkpt>
      <trkpt lat="43.528665" lon="-6.550245">
        <ele>82.224</ele>
        <time>2019-06-19T12:42:08Z</time>
      </trkpt>
      <trkpt lat="43.528649" lon="-6.550340">
        <ele>81.920</ele>
        <time>2019-06-19T12:42:09Z</time>
      </trkpt>
      <trkpt lat="43.528630" lon="-6.550430">
        <ele>81.548</ele>
        <time>2019-06-19T12:42:10Z</time>
      </trkpt>
      <trkpt lat="43.528609" lon="-6.550526">
        <ele>81.128</ele>
        <time>2019-06-19T12:42:11Z</time>
      </trkpt>
      <trkpt lat="43.528619" lon="-6.550631">
        <ele>80.743</ele>
        <time>2019-06-19T12:42:12Z</time>
      </trkpt>
      <trkpt lat="43.528630" lon="-6.550760">
        <ele>80.264</ele>
        <time>2019-06-19T12:42:13Z</time>
      </trkpt>
      <trkpt lat="43.528653" lon="-6.550872">
        <ele>79.810</ele>
        <time>2019-06-19T12:42:14Z</time>
      </trkpt>
      <trkpt lat="43.528676" lon="-6.550959">
        <ele>79.808</ele>
        <time>2019-06-19T12:42:15Z</time>
      </trkpt>
      <trkpt lat="43.528702" lon="-6.551054">
        <ele>79.737</ele>
        <time>2019-06-19T12:42:16Z</time>
      </trkpt>
      <trkpt lat="43.528740" lon="-6.551141">
        <ele>79.451</ele>
        <time>2019-06-19T12:42:17Z</time>
      </trkpt>
      <trkpt lat="43.528784" lon="-6.551220">
        <ele>79.152</ele>
        <time>2019-06-19T12:42:18Z</time>
      </trkpt>
      <trkpt lat="43.528837" lon="-6.551293">
        <ele>78.925</ele>
        <time>2019-06-19T12:42:19Z</time>
      </trkpt>
      <trkpt lat="43.528886" lon="-6.551376">
        <ele>79.095</ele>
        <time>2019-06-19T12:42:20Z</time>
      </trkpt>
      <trkpt lat="43.528909" lon="-6.551475">
        <ele>78.011</ele>
        <time>2019-06-19T12:42:21Z</time>
      </trkpt>
      <trkpt lat="43.528921" lon="-6.551578">
        <ele>77.059</ele>
        <time>2019-06-19T12:42:22Z</time>
      </trkpt>
      <trkpt lat="43.528925" lon="-6.551708">
        <ele>76.159</ele>
        <time>2019-06-19T12:42:23Z</time>
      </trkpt>
      <trkpt lat="43.528951" lon="-6.551855">
        <ele>75.919</ele>
        <time>2019-06-19T12:42:24Z</time>
      </trkpt>
      <trkpt lat="43.528976" lon="-6.552005">
        <ele>75.809</ele>
        <time>2019-06-19T12:42:25Z</time>
      </trkpt>
      <trkpt lat="43.529008" lon="-6.552169">
        <ele>75.919</ele>
        <time>2019-06-19T12:42:26Z</time>
      </trkpt>
      <trkpt lat="43.529055" lon="-6.552357">
        <ele>75.708</ele>
        <time>2019-06-19T12:42:27Z</time>
      </trkpt>
      <trkpt lat="43.529104" lon="-6.552548">
        <ele>75.324</ele>
        <time>2019-06-19T12:42:28Z</time>
      </trkpt>
      <trkpt lat="43.529154" lon="-6.552735">
        <ele>75.828</ele>
        <time>2019-06-19T12:42:29Z</time>
      </trkpt>
      <trkpt lat="43.529195" lon="-6.552927">
        <ele>76.029</ele>
        <time>2019-06-19T12:42:30Z</time>
      </trkpt>
      <trkpt lat="43.529245" lon="-6.553121">
        <ele>76.062</ele>
        <time>2019-06-19T12:42:31Z</time>
      </trkpt>
      <trkpt lat="43.529303" lon="-6.553308">
        <ele>76.072</ele>
        <time>2019-06-19T12:42:32Z</time>
      </trkpt>
      <trkpt lat="43.529362" lon="-6.553488">
        <ele>76.298</ele>
        <time>2019-06-19T12:42:33Z</time>
      </trkpt>
      <trkpt lat="43.529415" lon="-6.553685">
        <ele>76.316</ele>
        <time>2019-06-19T12:42:34Z</time>
      </trkpt>
      <trkpt lat="43.529467" lon="-6.553899">
        <ele>77.036</ele>
        <time>2019-06-19T12:42:35Z</time>
      </trkpt>
      <trkpt lat="43.529528" lon="-6.554123">
        <ele>77.318</ele>
        <time>2019-06-19T12:42:36Z</time>
      </trkpt>
      <trkpt lat="43.529589" lon="-6.554353">
        <ele>78.298</ele>
        <time>2019-06-19T12:42:37Z</time>
      </trkpt>
      <trkpt lat="43.529656" lon="-6.554584">
        <ele>78.917</ele>
        <time>2019-06-19T12:42:38Z</time>
      </trkpt>
      <trkpt lat="43.529727" lon="-6.554835">
        <ele>78.608</ele>
        <time>2019-06-19T12:42:39Z</time>
      </trkpt>
      <trkpt lat="43.529799" lon="-6.555097">
        <ele>78.034</ele>
        <time>2019-06-19T12:42:40Z</time>
      </trkpt>
      <trkpt lat="43.529860" lon="-6.555350">
        <ele>78.348</ele>
        <time>2019-06-19T12:42:41Z</time>
      </trkpt>
      <trkpt lat="43.529927" lon="-6.555598">
        <ele>79.279</ele>
        <time>2019-06-19T12:42:42Z</time>
      </trkpt>
      <trkpt lat="43.529992" lon="-6.555844">
        <ele>80.082</ele>
        <time>2019-06-19T12:42:43Z</time>
      </trkpt>
      <trkpt lat="43.530056" lon="-6.556079">
        <ele>81.172</ele>
        <time>2019-06-19T12:42:44Z</time>
      </trkpt>
      <trkpt lat="43.530120" lon="-6.556279">
        <ele>81.438</ele>
        <time>2019-06-19T12:42:45Z</time>
      </trkpt>
      <trkpt lat="43.530179" lon="-6.556463">
        <ele>81.736</ele>
        <time>2019-06-19T12:42:46Z</time>
      </trkpt>
      <trkpt lat="43.530237" lon="-6.556644">
        <ele>82.056</ele>
        <time>2019-06-19T12:42:47Z</time>
      </trkpt>
      <trkpt lat="43.530290" lon="-6.556831">
        <ele>82.099</ele>
        <time>2019-06-19T12:42:48Z</time>
      </trkpt>
      <trkpt lat="43.530342" lon="-6.557033">
        <ele>82.107</ele>
        <time>2019-06-19T12:42:49Z</time>
      </trkpt>
      <trkpt lat="43.530391" lon="-6.557242">
        <ele>82.727</ele>
        <time>2019-06-19T12:42:50Z</time>
      </trkpt>
      <trkpt lat="43.530454" lon="-6.557457">
        <ele>83.208</ele>
        <time>2019-06-19T12:42:51Z</time>
      </trkpt>
      <trkpt lat="43.530517" lon="-6.557680">
        <ele>83.882</ele>
        <time>2019-06-19T12:42:52Z</time>
      </trkpt>
      <trkpt lat="43.530584" lon="-6.557918">
        <ele>84.956</ele>
        <time>2019-06-19T12:42:53Z</time>
      </trkpt>
      <trkpt lat="43.530648" lon="-6.558163">
        <ele>85.827</ele>
        <time>2019-06-19T12:42:54Z</time>
      </trkpt>
      <trkpt lat="43.530722" lon="-6.558424">
        <ele>86.820</ele>
        <time>2019-06-19T12:42:55Z</time>
      </trkpt>
      <trkpt lat="43.530784" lon="-6.558679">
        <ele>87.750</ele>
        <time>2019-06-19T12:42:56Z</time>
      </trkpt>
      <trkpt lat="43.530859" lon="-6.558953">
        <ele>87.196</ele>
        <time>2019-06-19T12:42:57Z</time>
      </trkpt>
      <trkpt lat="43.530938" lon="-6.559226">
        <ele>87.954</ele>
        <time>2019-06-19T12:42:58Z</time>
      </trkpt>
      <trkpt lat="43.531012" lon="-6.559513">
        <ele>89.214</ele>
        <time>2019-06-19T12:42:59Z</time>
      </trkpt>
      <trkpt lat="43.531088" lon="-6.559797">
        <ele>90.318</ele>
        <time>2019-06-19T12:43:00Z</time>
      </trkpt>
      <trkpt lat="43.531166" lon="-6.560082">
        <ele>91.098</ele>
        <time>2019-06-19T12:43:01Z</time>
      </trkpt>
      <trkpt lat="43.531251" lon="-6.560384">
        <ele>91.617</ele>
        <time>2019-06-19T12:43:02Z</time>
      </trkpt>
      <trkpt lat="43.531332" lon="-6.560680">
        <ele>92.708</ele>
        <time>2019-06-19T12:43:03Z</time>
      </trkpt>
      <trkpt lat="43.531411" lon="-6.560982">
        <ele>93.494</ele>
        <time>2019-06-19T12:43:04Z</time>
      </trkpt>
      <trkpt lat="43.531494" lon="-6.561286">
        <ele>93.238</ele>
        <time>2019-06-19T12:43:05Z</time>
      </trkpt>
      <trkpt lat="43.531578" lon="-6.561599">
        <ele>93.269</ele>
        <time>2019-06-19T12:43:06Z</time>
      </trkpt>
      <trkpt lat="43.531666" lon="-6.561911">
        <ele>93.912</ele>
        <time>2019-06-19T12:43:07Z</time>
      </trkpt>
      <trkpt lat="43.531752" lon="-6.562224">
        <ele>93.752</ele>
        <time>2019-06-19T12:43:08Z</time>
      </trkpt>
      <trkpt lat="43.531837" lon="-6.562539">
        <ele>94.398</ele>
        <time>2019-06-19T12:43:09Z</time>
      </trkpt>
      <trkpt lat="43.531916" lon="-6.562858">
        <ele>96.356</ele>
        <time>2019-06-19T12:43:10Z</time>
      </trkpt>
      <trkpt lat="43.531999" lon="-6.563174">
        <ele>98.086</ele>
        <time>2019-06-19T12:43:11Z</time>
      </trkpt>
      <trkpt lat="43.532075" lon="-6.563472">
        <ele>99.258</ele>
        <time>2019-06-19T12:43:12Z</time>
      </trkpt>
      <trkpt lat="43.532158" lon="-6.563752">
        <ele>99.852</ele>
        <time>2019-06-19T12:43:13Z</time>
      </trkpt>
      <trkpt lat="43.532233" lon="-6.564012">
        <ele>99.517</ele>
        <time>2019-06-19T12:43:14Z</time>
      </trkpt>
      <trkpt lat="43.532300" lon="-6.564262">
        <ele>99.208</ele>
        <time>2019-06-19T12:43:15Z</time>
      </trkpt>
      <trkpt lat="43.532363" lon="-6.564509">
        <ele>99.778</ele>
        <time>2019-06-19T12:43:16Z</time>
      </trkpt>
      <trkpt lat="43.532427" lon="-6.564759">
        <ele>100.912</ele>
        <time>2019-06-19T12:43:17Z</time>
      </trkpt>
      <trkpt lat="43.532489" lon="-6.565013">
        <ele>102.033</ele>
        <time>2019-06-19T12:43:18Z</time>
      </trkpt>
      <trkpt lat="43.532557" lon="-6.565279">
        <ele>103.016</ele>
        <time>2019-06-19T12:43:19Z</time>
      </trkpt>
      <trkpt lat="43.532631" lon="-6.565542">
        <ele>103.456</ele>
        <time>2019-06-19T12:43:20Z</time>
      </trkpt>
      <trkpt lat="43.532698" lon="-6.565819">
        <ele>104.092</ele>
        <time>2019-06-19T12:43:21Z</time>
      </trkpt>
      <trkpt lat="43.532778" lon="-6.566100">
        <ele>104.050</ele>
        <time>2019-06-19T12:43:22Z</time>
      </trkpt>
      <trkpt lat="43.532861" lon="-6.566380">
        <ele>103.410</ele>
        <time>2019-06-19T12:43:23Z</time>
      </trkpt>
      <trkpt lat="43.532941" lon="-6.566665">
        <ele>103.829</ele>
        <time>2019-06-19T12:43:24Z</time>
      </trkpt>
      <trkpt lat="43.533022" lon="-6.566962">
        <ele>104.400</ele>
        <time>2019-06-19T12:43:25Z</time>
      </trkpt>
      <trkpt lat="43.533099" lon="-6.567262">
        <ele>106.220</ele>
        <time>2019-06-19T12:43:26Z</time>
      </trkpt>
      <trkpt lat="43.533181" lon="-6.567566">
        <ele>107.508</ele>
        <time>2019-06-19T12:43:27Z</time>
      </trkpt>
      <trkpt lat="43.533257" lon="-6.567877">
        <ele>107.795</ele>
        <time>2019-06-19T12:43:28Z</time>
      </trkpt>
      <trkpt lat="43.533344" lon="-6.568194">
        <ele>108.579</ele>
        <time>2019-06-19T12:43:29Z</time>
      </trkpt>
      <trkpt lat="43.533435" lon="-6.568513">
        <ele>109.350</ele>
        <time>2019-06-19T12:43:30Z</time>
      </trkpt>
      <trkpt lat="43.533515" lon="-6.568827">
        <ele>109.943</ele>
        <time>2019-06-19T12:43:31Z</time>
      </trkpt>
      <trkpt lat="43.533590" lon="-6.569132">
        <ele>110.073</ele>
        <time>2019-06-19T12:43:32Z</time>
      </trkpt>
      <trkpt lat="43.533686" lon="-6.569449">
        <ele>111.789</ele>
        <time>2019-06-19T12:43:33Z</time>
      </trkpt>
      <trkpt lat="43.533773" lon="-6.569763">
        <ele>112.517</ele>
        <time>2019-06-19T12:43:34Z</time>
      </trkpt>
      <trkpt lat="43.533857" lon="-6.570079">
        <ele>112.777</ele>
        <time>2019-06-19T12:43:35Z</time>
      </trkpt>
      <trkpt lat="43.533949" lon="-6.570400">
        <ele>111.967</ele>
        <time>2019-06-19T12:43:36Z</time>
      </trkpt>
      <trkpt lat="43.534031" lon="-6.570719">
        <ele>111.881</ele>
        <time>2019-06-19T12:43:37Z</time>
      </trkpt>
      <trkpt lat="43.534118" lon="-6.571039">
        <ele>112.319</ele>
        <time>2019-06-19T12:43:38Z</time>
      </trkpt>
      <trkpt lat="43.534212" lon="-6.571357">
        <ele>112.308</ele>
        <time>2019-06-19T12:43:39Z</time>
      </trkpt>
      <trkpt lat="43.534305" lon="-6.571681">
        <ele>110.599</ele>
        <time>2019-06-19T12:43:40Z</time>
      </trkpt>
      <trkpt lat="43.534393" lon="-6.572009">
        <ele>109.183</ele>
        <time>2019-06-19T12:43:41Z</time>
      </trkpt>
      <trkpt lat="43.534481" lon="-6.572346">
        <ele>108.144</ele>
        <time>2019-06-19T12:43:42Z</time>
      </trkpt>
      <trkpt lat="43.534575" lon="-6.572683">
        <ele>108.537</ele>
        <time>2019-06-19T12:43:43Z</time>
      </trkpt>
      <trkpt lat="43.534657" lon="-6.573015">
        <ele>108.197</ele>
        <time>2019-06-19T12:43:44Z</time>
      </trkpt>
      <trkpt lat="43.534750" lon="-6.573358">
        <ele>107.883</ele>
        <time>2019-06-19T12:43:45Z</time>
      </trkpt>
      <trkpt lat="43.534843" lon="-6.573701">
        <ele>107.121</ele>
        <time>2019-06-19T12:43:46Z</time>
      </trkpt>
      <trkpt lat="43.534936" lon="-6.574050">
        <ele>106.991</ele>
        <time>2019-06-19T12:43:47Z</time>
      </trkpt>
      <trkpt lat="43.535032" lon="-6.574387">
        <ele>106.821</ele>
        <time>2019-06-19T12:43:48Z</time>
      </trkpt>
      <trkpt lat="43.535133" lon="-6.574726">
        <ele>107.041</ele>
        <time>2019-06-19T12:43:49Z</time>
      </trkpt>
      <trkpt lat="43.535231" lon="-6.575081">
        <ele>106.105</ele>
        <time>2019-06-19T12:43:50Z</time>
      </trkpt>
      <trkpt lat="43.535329" lon="-6.575438">
        <ele>104.708</ele>
        <time>2019-06-19T12:43:51Z</time>
      </trkpt>
      <trkpt lat="43.535430" lon="-6.575783">
        <ele>103.165</ele>
        <time>2019-06-19T12:43:52Z</time>
      </trkpt>
      <trkpt lat="43.535535" lon="-6.576142">
        <ele>102.039</ele>
        <time>2019-06-19T12:43:53Z</time>
      </trkpt>
      <trkpt lat="43.535636" lon="-6.576507">
        <ele>101.140</ele>
        <time>2019-06-19T12:43:54Z</time>
      </trkpt>
      <trkpt lat="43.535740" lon="-6.576866">
        <ele>99.843</ele>
        <time>2019-06-19T12:43:55Z</time>
      </trkpt>
      <trkpt lat="43.535843" lon="-6.577234">
        <ele>99.033</ele>
        <time>2019-06-19T12:43:56Z</time>
      </trkpt>
      <trkpt lat="43.535945" lon="-6.577598">
        <ele>99.259</ele>
        <time>2019-06-19T12:43:57Z</time>
      </trkpt>
      <trkpt lat="43.536042" lon="-6.577966">
        <ele>98.587</ele>
        <time>2019-06-19T12:43:58Z</time>
      </trkpt>
      <trkpt lat="43.536136" lon="-6.578323">
        <ele>97.847</ele>
        <time>2019-06-19T12:43:59Z</time>
      </trkpt>
      <trkpt lat="43.536230" lon="-6.578673">
        <ele>97.224</ele>
        <time>2019-06-19T12:44:00Z</time>
      </trkpt>
      <trkpt lat="43.536309" lon="-6.578999">
        <ele>97.404</ele>
        <time>2019-06-19T12:44:01Z</time>
      </trkpt>
      <trkpt lat="43.536404" lon="-6.579345">
        <ele>97.614</ele>
        <time>2019-06-19T12:44:02Z</time>
      </trkpt>
      <trkpt lat="43.536500" lon="-6.579685">
        <ele>98.208</ele>
        <time>2019-06-19T12:44:03Z</time>
      </trkpt>
      <trkpt lat="43.536594" lon="-6.580028">
        <ele>97.855</ele>
        <time>2019-06-19T12:44:04Z</time>
      </trkpt>
      <trkpt lat="43.536687" lon="-6.580361">
        <ele>97.299</ele>
        <time>2019-06-19T12:44:05Z</time>
      </trkpt>
      <trkpt lat="43.536779" lon="-6.580700">
        <ele>97.460</ele>
        <time>2019-06-19T12:44:06Z</time>
      </trkpt>
      <trkpt lat="43.536873" lon="-6.581031">
        <ele>97.823</ele>
        <time>2019-06-19T12:44:07Z</time>
      </trkpt>
      <trkpt lat="43.536962" lon="-6.581367">
        <ele>97.133</ele>
        <time>2019-06-19T12:44:08Z</time>
      </trkpt>
      <trkpt lat="43.537045" lon="-6.581698">
        <ele>97.169</ele>
        <time>2019-06-19T12:44:09Z</time>
      </trkpt>
      <trkpt lat="43.537129" lon="-6.582026">
        <ele>98.587</ele>
        <time>2019-06-19T12:44:10Z</time>
      </trkpt>
      <trkpt lat="43.537215" lon="-6.582352">
        <ele>99.527</ele>
        <time>2019-06-19T12:44:11Z</time>
      </trkpt>
      <trkpt lat="43.537300" lon="-6.582676">
        <ele>98.963</ele>
        <time>2019-06-19T12:44:12Z</time>
      </trkpt>
      <trkpt lat="43.537384" lon="-6.583010">
        <ele>98.144</ele>
        <time>2019-06-19T12:44:13Z</time>
      </trkpt>
      <trkpt lat="43.537471" lon="-6.583342">
        <ele>97.118</ele>
        <time>2019-06-19T12:44:14Z</time>
      </trkpt>
      <trkpt lat="43.537546" lon="-6.583661">
        <ele>96.708</ele>
        <time>2019-06-19T12:44:15Z</time>
      </trkpt>
      <trkpt lat="43.537641" lon="-6.583991">
        <ele>95.729</ele>
        <time>2019-06-19T12:44:16Z</time>
      </trkpt>
      <trkpt lat="43.537727" lon="-6.584326">
        <ele>94.813</ele>
        <time>2019-06-19T12:44:17Z</time>
      </trkpt>
      <trkpt lat="43.537815" lon="-6.584659">
        <ele>93.814</ele>
        <time>2019-06-19T12:44:18Z</time>
      </trkpt>
      <trkpt lat="43.537912" lon="-6.584979">
        <ele>93.597</ele>
        <time>2019-06-19T12:44:19Z</time>
      </trkpt>
      <trkpt lat="43.538003" lon="-6.585303">
        <ele>93.597</ele>
        <time>2019-06-19T12:44:20Z</time>
      </trkpt>
      <trkpt lat="43.538095" lon="-6.585632">
        <ele>94.423</ele>
        <time>2019-06-19T12:44:21Z</time>
      </trkpt>
      <trkpt lat="43.538187" lon="-6.585951">
        <ele>96.011</ele>
        <time>2019-06-19T12:44:22Z</time>
      </trkpt>
      <trkpt lat="43.538278" lon="-6.586273">
        <ele>96.191</ele>
        <time>2019-06-19T12:44:23Z</time>
      </trkpt>
      <trkpt lat="43.538365" lon="-6.586590">
        <ele>95.797</ele>
        <time>2019-06-19T12:44:24Z</time>
      </trkpt>
      <trkpt lat="43.538453" lon="-6.586908">
        <ele>96.023</ele>
        <time>2019-06-19T12:44:25Z</time>
      </trkpt>
      <trkpt lat="43.538540" lon="-6.587230">
        <ele>97.025</ele>
        <time>2019-06-19T12:44:26Z</time>
      </trkpt>
      <trkpt lat="43.538623" lon="-6.587554">
        <ele>96.908</ele>
        <time>2019-06-19T12:44:27Z</time>
      </trkpt>
      <trkpt lat="43.538704" lon="-6.587879">
        <ele>96.022</ele>
        <time>2019-06-19T12:44:28Z</time>
      </trkpt>
      <trkpt lat="43.538802" lon="-6.588190">
        <ele>94.596</ele>
        <time>2019-06-19T12:44:29Z</time>
      </trkpt>
      <trkpt lat="43.538887" lon="-6.588513">
        <ele>94.647</ele>
        <time>2019-06-19T12:44:30Z</time>
      </trkpt>
      <trkpt lat="43.538973" lon="-6.588834">
        <ele>95.740</ele>
        <time>2019-06-19T12:44:31Z</time>
      </trkpt>
      <trkpt lat="43.539044" lon="-6.589143">
        <ele>96.530</ele>
        <time>2019-06-19T12:44:32Z</time>
      </trkpt>
      <trkpt lat="43.539128" lon="-6.589467">
        <ele>98.926</ele>
        <time>2019-06-19T12:44:33Z</time>
      </trkpt>
      <trkpt lat="43.539218" lon="-6.589797">
        <ele>100.034</ele>
        <time>2019-06-19T12:44:34Z</time>
      </trkpt>
      <trkpt lat="43.539311" lon="-6.590123">
        <ele>99.314</ele>
        <time>2019-06-19T12:44:35Z</time>
      </trkpt>
      <trkpt lat="43.539398" lon="-6.590453">
        <ele>97.983</ele>
        <time>2019-06-19T12:44:36Z</time>
      </trkpt>
      <trkpt lat="43.539485" lon="-6.590781">
        <ele>96.925</ele>
        <time>2019-06-19T12:44:37Z</time>
      </trkpt>
      <trkpt lat="43.539573" lon="-6.591118">
        <ele>96.017</ele>
        <time>2019-06-19T12:44:38Z</time>
      </trkpt>
      <trkpt lat="43.539664" lon="-6.591451">
        <ele>94.808</ele>
        <time>2019-06-19T12:44:39Z</time>
      </trkpt>
      <trkpt lat="43.539755" lon="-6.591790">
        <ele>93.671</ele>
        <time>2019-06-19T12:44:40Z</time>
      </trkpt>
      <trkpt lat="43.539845" lon="-6.592129">
        <ele>91.615</ele>
        <time>2019-06-19T12:44:41Z</time>
      </trkpt>
      <trkpt lat="43.539935" lon="-6.592465">
        <ele>89.586</ele>
        <time>2019-06-19T12:44:42Z</time>
      </trkpt>
      <trkpt lat="43.540023" lon="-6.592804">
        <ele>89.889</ele>
        <time>2019-06-19T12:44:43Z</time>
      </trkpt>
      <trkpt lat="43.540114" lon="-6.593147">
        <ele>89.279</ele>
        <time>2019-06-19T12:44:44Z</time>
      </trkpt>
      <trkpt lat="43.540205" lon="-6.593485">
        <ele>88.565</ele>
        <time>2019-06-19T12:44:45Z</time>
      </trkpt>
      <trkpt lat="43.540295" lon="-6.593816">
        <ele>87.983</ele>
        <time>2019-06-19T12:44:46Z</time>
      </trkpt>
      <trkpt lat="43.540383" lon="-6.594145">
        <ele>88.273</ele>
        <time>2019-06-19T12:44:47Z</time>
      </trkpt>
      <trkpt lat="43.540466" lon="-6.594479">
        <ele>88.685</ele>
        <time>2019-06-19T12:44:48Z</time>
      </trkpt>
      <trkpt lat="43.540565" lon="-6.594823">
        <ele>88.089</ele>
        <time>2019-06-19T12:44:49Z</time>
      </trkpt>
      <trkpt lat="43.540643" lon="-6.595155">
        <ele>87.917</ele>
        <time>2019-06-19T12:44:50Z</time>
      </trkpt>
      <trkpt lat="43.540726" lon="-6.595493">
        <ele>88.308</ele>
        <time>2019-06-19T12:44:51Z</time>
      </trkpt>
      <trkpt lat="43.540810" lon="-6.595825">
        <ele>89.091</ele>
        <time>2019-06-19T12:44:52Z</time>
      </trkpt>
      <trkpt lat="43.540894" lon="-6.596162">
        <ele>88.825</ele>
        <time>2019-06-19T12:44:53Z</time>
      </trkpt>
      <trkpt lat="43.540984" lon="-6.596492">
        <ele>89.056</ele>
        <time>2019-06-19T12:44:54Z</time>
      </trkpt>
      <trkpt lat="43.541076" lon="-6.596824">
        <ele>88.559</ele>
        <time>2019-06-19T12:44:55Z</time>
      </trkpt>
      <trkpt lat="43.541167" lon="-6.597170">
        <ele>87.869</ele>
        <time>2019-06-19T12:44:56Z</time>
      </trkpt>
      <trkpt lat="43.541253" lon="-6.597508">
        <ele>87.515</ele>
        <time>2019-06-19T12:44:57Z</time>
      </trkpt>
      <trkpt lat="43.541329" lon="-6.597846">
        <ele>87.693</ele>
        <time>2019-06-19T12:44:58Z</time>
      </trkpt>
      <trkpt lat="43.541410" lon="-6.598186">
        <ele>87.013</ele>
        <time>2019-06-19T12:44:59Z</time>
      </trkpt>
      <trkpt lat="43.541493" lon="-6.598515">
        <ele>87.878</ele>
        <time>2019-06-19T12:45:00Z</time>
      </trkpt>
      <trkpt lat="43.541576" lon="-6.598850">
        <ele>88.933</ele>
        <time>2019-06-19T12:45:01Z</time>
      </trkpt>
      <trkpt lat="43.541667" lon="-6.599174">
        <ele>89.026</ele>
        <time>2019-06-19T12:45:02Z</time>
      </trkpt>
      <trkpt lat="43.541757" lon="-6.599499">
        <ele>90.608</ele>
        <time>2019-06-19T12:45:03Z</time>
      </trkpt>
      <trkpt lat="43.541833" lon="-6.599803">
        <ele>92.560</ele>
        <time>2019-06-19T12:45:04Z</time>
      </trkpt>
      <trkpt lat="43.541907" lon="-6.600096">
        <ele>94.174</ele>
        <time>2019-06-19T12:45:05Z</time>
      </trkpt>
      <trkpt lat="43.541983" lon="-6.600382">
        <ele>95.365</ele>
        <time>2019-06-19T12:45:06Z</time>
      </trkpt>
      <trkpt lat="43.542061" lon="-6.600670">
        <ele>96.288</ele>
        <time>2019-06-19T12:45:07Z</time>
      </trkpt>
      <trkpt lat="43.542136" lon="-6.600955">
        <ele>97.498</ele>
        <time>2019-06-19T12:45:08Z</time>
      </trkpt>
      <trkpt lat="43.542205" lon="-6.601229">
        <ele>98.584</ele>
        <time>2019-06-19T12:45:09Z</time>
      </trkpt>
      <trkpt lat="43.542280" lon="-6.601489">
        <ele>99.052</ele>
        <time>2019-06-19T12:45:10Z</time>
      </trkpt>
      <trkpt lat="43.542349" lon="-6.601743">
        <ele>99.132</ele>
        <time>2019-06-19T12:45:11Z</time>
      </trkpt>
      <trkpt lat="43.542412" lon="-6.601987">
        <ele>99.597</ele>
        <time>2019-06-19T12:45:12Z</time>
      </trkpt>
      <trkpt lat="43.542473" lon="-6.602202">
        <ele>100.023</ele>
        <time>2019-06-19T12:45:13Z</time>
      </trkpt>
      <trkpt lat="43.542537" lon="-6.602392">
        <ele>99.925</ele>
        <time>2019-06-19T12:45:14Z</time>
      </trkpt>
      <trkpt lat="43.542594" lon="-6.602589">
        <ele>99.808</ele>
        <time>2019-06-19T12:45:15Z</time>
      </trkpt>
      <trkpt lat="43.542648" lon="-6.602786">
        <ele>100.042</ele>
        <time>2019-06-19T12:45:16Z</time>
      </trkpt>
      <trkpt lat="43.542697" lon="-6.602973">
        <ele>100.796</ele>
        <time>2019-06-19T12:45:17Z</time>
      </trkpt>
      <trkpt lat="43.542741" lon="-6.603143">
        <ele>101.097</ele>
        <time>2019-06-19T12:45:18Z</time>
      </trkpt>
      <trkpt lat="43.542785" lon="-6.603305">
        <ele>101.030</ele>
        <time>2019-06-19T12:45:19Z</time>
      </trkpt>
      <trkpt lat="43.542830" lon="-6.603449">
        <ele>101.220</ele>
        <time>2019-06-19T12:45:20Z</time>
      </trkpt>
      <trkpt lat="43.542866" lon="-6.603595">
        <ele>101.666</ele>
        <time>2019-06-19T12:45:21Z</time>
      </trkpt>
      <trkpt lat="43.542896" lon="-6.603748">
        <ele>101.924</ele>
        <time>2019-06-19T12:45:22Z</time>
      </trkpt>
      <trkpt lat="43.542945" lon="-6.603927">
        <ele>101.854</ele>
        <time>2019-06-19T12:45:23Z</time>
      </trkpt>
      <trkpt lat="43.542995" lon="-6.604126">
        <ele>101.416</ele>
        <time>2019-06-19T12:45:24Z</time>
      </trkpt>
      <trkpt lat="43.543048" lon="-6.604344">
        <ele>100.476</ele>
        <time>2019-06-19T12:45:25Z</time>
      </trkpt>
      <trkpt lat="43.543123" lon="-6.604564">
        <ele>100.213</ele>
        <time>2019-06-19T12:45:26Z</time>
      </trkpt>
      <trkpt lat="43.543181" lon="-6.604810">
        <ele>100.508</ele>
        <time>2019-06-19T12:45:27Z</time>
      </trkpt>
      <trkpt lat="43.543248" lon="-6.605055">
        <ele>100.334</ele>
        <time>2019-06-19T12:45:28Z</time>
      </trkpt>
      <trkpt lat="43.543322" lon="-6.605307">
        <ele>100.248</ele>
        <time>2019-06-19T12:45:29Z</time>
      </trkpt>
      <trkpt lat="43.543400" lon="-6.605572">
        <ele>101.179</ele>
        <time>2019-06-19T12:45:30Z</time>
      </trkpt>
      <trkpt lat="43.543472" lon="-6.605849">
        <ele>102.752</ele>
        <time>2019-06-19T12:45:31Z</time>
      </trkpt>
      <trkpt lat="43.543548" lon="-6.606130">
        <ele>105.332</ele>
        <time>2019-06-19T12:45:32Z</time>
      </trkpt>
      <trkpt lat="43.543617" lon="-6.606389">
        <ele>106.988</ele>
        <time>2019-06-19T12:45:33Z</time>
      </trkpt>
      <trkpt lat="43.543688" lon="-6.606648">
        <ele>105.526</ele>
        <time>2019-06-19T12:45:34Z</time>
      </trkpt>
      <trkpt lat="43.543759" lon="-6.606920">
        <ele>104.516</ele>
        <time>2019-06-19T12:45:35Z</time>
      </trkpt>
      <trkpt lat="43.543838" lon="-6.607174">
        <ele>103.516</ele>
        <time>2019-06-19T12:45:36Z</time>
      </trkpt>
      <trkpt lat="43.543910" lon="-6.607435">
        <ele>103.776</ele>
        <time>2019-06-19T12:45:37Z</time>
      </trkpt>
      <trkpt lat="43.543982" lon="-6.607667">
        <ele>104.313</ele>
        <time>2019-06-19T12:45:38Z</time>
      </trkpt>
      <trkpt lat="43.544053" lon="-6.607897">
        <ele>104.808</ele>
        <time>2019-06-19T12:45:39Z</time>
      </trkpt>
      <trkpt lat="43.544122" lon="-6.608127">
        <ele>105.434</ele>
        <time>2019-06-19T12:45:40Z</time>
      </trkpt>
      <trkpt lat="43.544195" lon="-6.608349">
        <ele>106.198</ele>
        <time>2019-06-19T12:45:41Z</time>
      </trkpt>
      <trkpt lat="43.544281" lon="-6.608548">
        <ele>106.539</ele>
        <time>2019-06-19T12:45:42Z</time>
      </trkpt>
      <trkpt lat="43.544440" lon="-6.608750">
        <ele>107.092</ele>
        <time>2019-06-19T12:45:43Z</time>
      </trkpt>
      <trkpt lat="43.544575" lon="-6.608945">
        <ele>107.922</ele>
        <time>2019-06-19T12:45:44Z</time>
      </trkpt>
      <trkpt lat="43.544728" lon="-6.609118">
        <ele>108.678</ele>
        <time>2019-06-19T12:45:45Z</time>
      </trkpt>
      <trkpt lat="43.544874" lon="-6.609282">
        <ele>108.086</ele>
        <time>2019-06-19T12:45:46Z</time>
      </trkpt>
      <trkpt lat="43.545022" lon="-6.609409">
        <ele>107.756</ele>
        <time>2019-06-19T12:45:47Z</time>
      </trkpt>
      <trkpt lat="43.545279" lon="-6.609494">
        <ele>107.767</ele>
        <time>2019-06-19T12:45:48Z</time>
      </trkpt>
      <trkpt lat="43.545476" lon="-6.609569">
        <ele>107.881</ele>
        <time>2019-06-19T12:45:49Z</time>
      </trkpt>
      <trkpt lat="43.545684" lon="-6.609635">
        <ele>107.719</ele>
        <time>2019-06-19T12:45:50Z</time>
      </trkpt>
      <trkpt lat="43.545886" lon="-6.609694">
        <ele>107.808</ele>
        <time>2019-06-19T12:45:51Z</time>
      </trkpt>
      <trkpt lat="43.546137" lon="-6.609650">
        <ele>107.159</ele>
        <time>2019-06-19T12:45:52Z</time>
      </trkpt>
      <trkpt lat="43.546359" lon="-6.609654">
        <ele>105.763</ele>
        <time>2019-06-19T12:45:53Z</time>
      </trkpt>
      <trkpt lat="43.546596" lon="-6.609644">
        <ele>106.064</ele>
        <time>2019-06-19T12:45:54Z</time>
      </trkpt>
      <trkpt lat="43.546825" lon="-6.609641">
        <ele>106.737</ele>
        <time>2019-06-19T12:45:55Z</time>
      </trkpt>
      <trkpt lat="43.547067" lon="-6.609638">
        <ele>108.047</ele>
        <time>2019-06-19T12:45:56Z</time>
      </trkpt>
      <trkpt lat="43.547312" lon="-6.609626">
        <ele>108.843</ele>
        <time>2019-06-19T12:45:57Z</time>
      </trkpt>
      <trkpt lat="43.547553" lon="-6.609609">
        <ele>108.641</ele>
        <time>2019-06-19T12:45:58Z</time>
      </trkpt>
      <trkpt lat="43.547797" lon="-6.609599">
        <ele>109.351</ele>
        <time>2019-06-19T12:45:59Z</time>
      </trkpt>
      <trkpt lat="43.548055" lon="-6.609582">
        <ele>108.071</ele>
        <time>2019-06-19T12:46:00Z</time>
      </trkpt>
      <trkpt lat="43.548289" lon="-6.609576">
        <ele>105.341</ele>
        <time>2019-06-19T12:46:01Z</time>
      </trkpt>
      <trkpt lat="43.548525" lon="-6.609570">
        <ele>104.715</ele>
        <time>2019-06-19T12:46:02Z</time>
      </trkpt>
      <trkpt lat="43.548763" lon="-6.609563">
        <ele>105.508</ele>
        <time>2019-06-19T12:46:03Z</time>
      </trkpt>
      <trkpt lat="43.548995" lon="-6.609550">
        <ele>106.120</ele>
        <time>2019-06-19T12:46:04Z</time>
      </trkpt>
      <trkpt lat="43.549228" lon="-6.609542">
        <ele>106.284</ele>
        <time>2019-06-19T12:46:05Z</time>
      </trkpt>
      <trkpt lat="43.549454" lon="-6.609531">
        <ele>106.695</ele>
        <time>2019-06-19T12:46:06Z</time>
      </trkpt>
      <trkpt lat="43.549653" lon="-6.609531">
        <ele>108.098</ele>
        <time>2019-06-19T12:46:07Z</time>
      </trkpt>
      <trkpt lat="43.549855" lon="-6.609524">
        <ele>108.678</ele>
        <time>2019-06-19T12:46:08Z</time>
      </trkpt>
      <trkpt lat="43.550057" lon="-6.609550">
        <ele>109.834</ele>
        <time>2019-06-19T12:46:09Z</time>
      </trkpt>
      <trkpt lat="43.550254" lon="-6.609609">
        <ele>111.882</ele>
        <time>2019-06-19T12:46:10Z</time>
      </trkpt>
      <trkpt lat="43.550456" lon="-6.609653">
        <ele>112.562</ele>
        <time>2019-06-19T12:46:11Z</time>
      </trkpt>
      <trkpt lat="43.550663" lon="-6.609792">
        <ele>114.271</ele>
        <time>2019-06-19T12:46:12Z</time>
      </trkpt>
      <trkpt lat="43.550831" lon="-6.609917">
        <ele>113.841</ele>
        <time>2019-06-19T12:46:13Z</time>
      </trkpt>
      <trkpt lat="43.550995" lon="-6.610060">
        <ele>112.015</ele>
        <time>2019-06-19T12:46:14Z</time>
      </trkpt>
      <trkpt lat="43.551118" lon="-6.610289">
        <ele>111.008</ele>
        <time>2019-06-19T12:46:15Z</time>
      </trkpt>
      <trkpt lat="43.551252" lon="-6.610488">
        <ele>110.490</ele>
        <time>2019-06-19T12:46:16Z</time>
      </trkpt>
      <trkpt lat="43.551362" lon="-6.610738">
        <ele>110.514</ele>
        <time>2019-06-19T12:46:17Z</time>
      </trkpt>
      <trkpt lat="43.551472" lon="-6.610978">
        <ele>110.035</ele>
        <time>2019-06-19T12:46:18Z</time>
      </trkpt>
      <trkpt lat="43.551529" lon="-6.611246">
        <ele>110.778</ele>
        <time>2019-06-19T12:46:19Z</time>
      </trkpt>
      <trkpt lat="43.551571" lon="-6.611528">
        <ele>110.498</ele>
        <time>2019-06-19T12:46:20Z</time>
      </trkpt>
      <trkpt lat="43.551605" lon="-6.611827">
        <ele>109.634</ele>
        <time>2019-06-19T12:46:21Z</time>
      </trkpt>
      <trkpt lat="43.551605" lon="-6.612131">
        <ele>110.942</ele>
        <time>2019-06-19T12:46:22Z</time>
      </trkpt>
      <trkpt lat="43.551612" lon="-6.612455">
        <ele>112.232</ele>
        <time>2019-06-19T12:46:23Z</time>
      </trkpt>
      <trkpt lat="43.551639" lon="-6.612773">
        <ele>112.451</ele>
        <time>2019-06-19T12:46:24Z</time>
      </trkpt>
      <trkpt lat="43.551647" lon="-6.613108">
        <ele>109.101</ele>
        <time>2019-06-19T12:46:25Z</time>
      </trkpt>
      <trkpt lat="43.551663" lon="-6.613429">
        <ele>106.411</ele>
        <time>2019-06-19T12:46:26Z</time>
      </trkpt>
      <trkpt lat="43.551685" lon="-6.613764">
        <ele>104.508</ele>
        <time>2019-06-19T12:46:27Z</time>
      </trkpt>
      <trkpt lat="43.551695" lon="-6.614092">
        <ele>105.028</ele>
        <time>2019-06-19T12:46:28Z</time>
      </trkpt>
      <trkpt lat="43.551709" lon="-6.614396">
        <ele>104.412</ele>
        <time>2019-06-19T12:46:29Z</time>
      </trkpt>
      <trkpt lat="43.551717" lon="-6.614719">
        <ele>103.923</ele>
        <time>2019-06-19T12:46:30Z</time>
      </trkpt>
      <trkpt lat="43.551727" lon="-6.615051">
        <ele>102.196</ele>
        <time>2019-06-19T12:46:31Z</time>
      </trkpt>
      <trkpt lat="43.551714" lon="-6.615352">
        <ele>101.926</ele>
        <time>2019-06-19T12:46:32Z</time>
      </trkpt>
      <trkpt lat="43.551686" lon="-6.615609">
        <ele>101.582</ele>
        <time>2019-06-19T12:46:33Z</time>
      </trkpt>
      <trkpt lat="43.551649" lon="-6.615901">
        <ele>101.170</ele>
        <time>2019-06-19T12:46:34Z</time>
      </trkpt>
      <trkpt lat="43.551565" lon="-6.616155">
        <ele>101.040</ele>
        <time>2019-06-19T12:46:35Z</time>
      </trkpt>
      <trkpt lat="43.551485" lon="-6.616439">
        <ele>98.855</ele>
        <time>2019-06-19T12:46:36Z</time>
      </trkpt>
      <trkpt lat="43.551374" lon="-6.616694">
        <ele>97.107</ele>
        <time>2019-06-19T12:46:37Z</time>
      </trkpt>
      <trkpt lat="43.551260" lon="-6.616949">
        <ele>96.917</ele>
        <time>2019-06-19T12:46:38Z</time>
      </trkpt>
      <trkpt lat="43.551133" lon="-6.617205">
        <ele>96.008</ele>
        <time>2019-06-19T12:46:39Z</time>
      </trkpt>
      <trkpt lat="43.550992" lon="-6.617446">
        <ele>95.798</ele>
        <time>2019-06-19T12:46:40Z</time>
      </trkpt>
      <trkpt lat="43.550851" lon="-6.617661">
        <ele>95.752</ele>
        <time>2019-06-19T12:46:41Z</time>
      </trkpt>
      <trkpt lat="43.550701" lon="-6.617907">
        <ele>95.583</ele>
        <time>2019-06-19T12:46:42Z</time>
      </trkpt>
      <trkpt lat="43.550549" lon="-6.618154">
        <ele>95.786</ele>
        <time>2019-06-19T12:46:43Z</time>
      </trkpt>
      <trkpt lat="43.550390" lon="-6.618401">
        <ele>95.856</ele>
        <time>2019-06-19T12:46:44Z</time>
      </trkpt>
      <trkpt lat="43.550236" lon="-6.618637">
        <ele>97.272</ele>
        <time>2019-06-19T12:46:45Z</time>
      </trkpt>
      <trkpt lat="43.550072" lon="-6.618907">
        <ele>97.470</ele>
        <time>2019-06-19T12:46:46Z</time>
      </trkpt>
      <trkpt lat="43.549906" lon="-6.619158">
        <ele>97.710</ele>
        <time>2019-06-19T12:46:47Z</time>
      </trkpt>
      <trkpt lat="43.549746" lon="-6.619414">
        <ele>97.199</ele>
        <time>2019-06-19T12:46:48Z</time>
      </trkpt>
      <trkpt lat="43.549569" lon="-6.619674">
        <ele>95.407</ele>
        <time>2019-06-19T12:46:49Z</time>
      </trkpt>
      <trkpt lat="43.549363" lon="-6.619903">
        <ele>94.527</ele>
        <time>2019-06-19T12:46:50Z</time>
      </trkpt>
      <trkpt lat="43.549182" lon="-6.620153">
        <ele>95.308</ele>
        <time>2019-06-19T12:46:51Z</time>
      </trkpt>
      <trkpt lat="43.548996" lon="-6.620411">
        <ele>96.552</ele>
        <time>2019-06-19T12:46:52Z</time>
      </trkpt>
      <trkpt lat="43.548818" lon="-6.620621">
        <ele>96.886</ele>
        <time>2019-06-19T12:46:53Z</time>
      </trkpt>
      <trkpt lat="43.548630" lon="-6.620862">
        <ele>95.737</ele>
        <time>2019-06-19T12:46:54Z</time>
      </trkpt>
      <trkpt lat="43.548441" lon="-6.621072">
        <ele>96.020</ele>
        <time>2019-06-19T12:46:55Z</time>
      </trkpt>
      <trkpt lat="43.548252" lon="-6.621313">
        <ele>96.290</ele>
        <time>2019-06-19T12:46:56Z</time>
      </trkpt>
      <trkpt lat="43.548064" lon="-6.621552">
        <ele>97.166</ele>
        <time>2019-06-19T12:46:57Z</time>
      </trkpt>
      <trkpt lat="43.547883" lon="-6.621764">
        <ele>97.264</ele>
        <time>2019-06-19T12:46:58Z</time>
      </trkpt>
      <trkpt lat="43.547714" lon="-6.622013">
        <ele>96.484</ele>
        <time>2019-06-19T12:46:59Z</time>
      </trkpt>
      <trkpt lat="43.547557" lon="-6.622227">
        <ele>97.212</ele>
        <time>2019-06-19T12:47:00Z</time>
      </trkpt>
      <trkpt lat="43.547401" lon="-6.622420">
        <ele>99.132</ele>
        <time>2019-06-19T12:47:01Z</time>
      </trkpt>
      <trkpt lat="43.547242" lon="-6.622621">
        <ele>100.005</ele>
        <time>2019-06-19T12:47:02Z</time>
      </trkpt>
      <trkpt lat="43.547091" lon="-6.622788">
        <ele>99.308</ele>
        <time>2019-06-19T12:47:03Z</time>
      </trkpt>
      <trkpt lat="43.546929" lon="-6.622955">
        <ele>98.794</ele>
        <time>2019-06-19T12:47:04Z</time>
      </trkpt>
      <trkpt lat="43.546765" lon="-6.623115">
        <ele>98.858</ele>
        <time>2019-06-19T12:47:05Z</time>
      </trkpt>
      <trkpt lat="43.546562" lon="-6.623224">
        <ele>100.049</ele>
        <time>2019-06-19T12:47:06Z</time>
      </trkpt>
      <trkpt lat="43.546382" lon="-6.623317">
        <ele>100.482</ele>
        <time>2019-06-19T12:47:07Z</time>
      </trkpt>
      <trkpt lat="43.546184" lon="-6.623429">
        <ele>97.892</ele>
        <time>2019-06-19T12:47:08Z</time>
      </trkpt>
      <trkpt lat="43.545979" lon="-6.623511">
        <ele>96.258</ele>
        <time>2019-06-19T12:47:09Z</time>
      </trkpt>
      <trkpt lat="43.545774" lon="-6.623605">
        <ele>94.786</ele>
        <time>2019-06-19T12:47:10Z</time>
      </trkpt>
      <trkpt lat="43.545577" lon="-6.623691">
        <ele>96.326</ele>
        <time>2019-06-19T12:47:11Z</time>
      </trkpt>
      <trkpt lat="43.545385" lon="-6.623812">
        <ele>97.066</ele>
        <time>2019-06-19T12:47:12Z</time>
      </trkpt>
      <trkpt lat="43.545208" lon="-6.623949">
        <ele>96.229</ele>
        <time>2019-06-19T12:47:13Z</time>
      </trkpt>
      <trkpt lat="43.545038" lon="-6.624091">
        <ele>94.321</ele>
        <time>2019-06-19T12:47:14Z</time>
      </trkpt>
      <trkpt lat="43.544897" lon="-6.624330">
        <ele>90.008</ele>
        <time>2019-06-19T12:47:15Z</time>
      </trkpt>
      <trkpt lat="43.544752" lon="-6.624553">
        <ele>90.179</ele>
        <time>2019-06-19T12:47:16Z</time>
      </trkpt>
      <trkpt lat="43.544631" lon="-6.624797">
        <ele>90.833</ele>
        <time>2019-06-19T12:47:17Z</time>
      </trkpt>
      <trkpt lat="43.544517" lon="-6.625045">
        <ele>89.874</ele>
        <time>2019-06-19T12:47:18Z</time>
      </trkpt>
      <trkpt lat="43.544451" lon="-6.625295">
        <ele>86.217</ele>
        <time>2019-06-19T12:47:19Z</time>
      </trkpt>
      <trkpt lat="43.544363" lon="-6.625543">
        <ele>82.637</ele>
        <time>2019-06-19T12:47:20Z</time>
      </trkpt>
      <trkpt lat="43.544272" lon="-6.625725">
        <ele>81.693</ele>
        <time>2019-06-19T12:47:21Z</time>
      </trkpt>
      <trkpt lat="43.544193" lon="-6.625962">
        <ele>79.351</ele>
        <time>2019-06-19T12:47:22Z</time>
      </trkpt>
      <trkpt lat="43.544146" lon="-6.626115">
        <ele>77.641</ele>
        <time>2019-06-19T12:47:23Z</time>
      </trkpt>
      <trkpt lat="43.544052" lon="-6.626298">
        <ele>77.711</ele>
        <time>2019-06-19T12:47:24Z</time>
      </trkpt>
      <trkpt lat="43.543949" lon="-6.626468">
        <ele>77.921</ele>
        <time>2019-06-19T12:47:25Z</time>
      </trkpt>
      <trkpt lat="43.543810" lon="-6.626625">
        <ele>78.203</ele>
        <time>2019-06-19T12:47:26Z</time>
      </trkpt>
      <trkpt lat="43.543672" lon="-6.626771">
        <ele>78.408</ele>
        <time>2019-06-19T12:47:27Z</time>
      </trkpt>
      <trkpt lat="43.543534" lon="-6.626902">
        <ele>79.374</ele>
        <time>2019-06-19T12:47:28Z</time>
      </trkpt>
      <trkpt lat="43.543373" lon="-6.627017">
        <ele>80.758</ele>
        <time>2019-06-19T12:47:29Z</time>
      </trkpt>
      <trkpt lat="43.543224" lon="-6.627093">
        <ele>81.269</ele>
        <time>2019-06-19T12:47:30Z</time>
      </trkpt>
      <trkpt lat="43.543058" lon="-6.627187">
        <ele>80.962</ele>
        <time>2019-06-19T12:47:31Z</time>
      </trkpt>
      <trkpt lat="43.542902" lon="-6.627276">
        <ele>79.822</ele>
        <time>2019-06-19T12:47:32Z</time>
      </trkpt>
      <trkpt lat="43.542747" lon="-6.627360">
        <ele>78.928</ele>
        <time>2019-06-19T12:47:33Z</time>
      </trkpt>
      <trkpt lat="43.542603" lon="-6.627475">
        <ele>78.066</ele>
        <time>2019-06-19T12:47:34Z</time>
      </trkpt>
      <trkpt lat="43.542493" lon="-6.627582">
        <ele>77.426</ele>
        <time>2019-06-19T12:47:35Z</time>
      </trkpt>
      <trkpt lat="43.542377" lon="-6.627749">
        <ele>77.151</ele>
        <time>2019-06-19T12:47:36Z</time>
      </trkpt>
      <trkpt lat="43.542317" lon="-6.628029">
        <ele>73.501</ele>
        <time>2019-06-19T12:47:37Z</time>
      </trkpt>
      <trkpt lat="43.542221" lon="-6.628222">
        <ele>72.011</ele>
        <time>2019-06-19T12:47:38Z</time>
      </trkpt>
      <trkpt lat="43.542125" lon="-6.628391">
        <ele>71.308</ele>
        <time>2019-06-19T12:47:39Z</time>
      </trkpt>
      <trkpt lat="43.542012" lon="-6.628556">
        <ele>70.138</ele>
        <time>2019-06-19T12:47:40Z</time>
      </trkpt>
      <trkpt lat="43.541885" lon="-6.628698">
        <ele>69.362</ele>
        <time>2019-06-19T12:47:41Z</time>
      </trkpt>
      <trkpt lat="43.541747" lon="-6.628799">
        <ele>69.783</ele>
        <time>2019-06-19T12:47:42Z</time>
      </trkpt>
      <trkpt lat="43.541601" lon="-6.628906">
        <ele>69.616</ele>
        <time>2019-06-19T12:47:43Z</time>
      </trkpt>
      <trkpt lat="43.541460" lon="-6.629004">
        <ele>69.256</ele>
        <time>2019-06-19T12:47:44Z</time>
      </trkpt>
      <trkpt lat="43.541298" lon="-6.629108">
        <ele>68.412</ele>
        <time>2019-06-19T12:47:45Z</time>
      </trkpt>
      <trkpt lat="43.541149" lon="-6.629212">
        <ele>67.820</ele>
        <time>2019-06-19T12:47:46Z</time>
      </trkpt>
      <trkpt lat="43.541054" lon="-6.629316">
        <ele>66.720</ele>
        <time>2019-06-19T12:47:47Z</time>
      </trkpt>
      <trkpt lat="43.540943" lon="-6.629443">
        <ele>65.252</ele>
        <time>2019-06-19T12:47:48Z</time>
      </trkpt>
      <trkpt lat="43.540866" lon="-6.629637">
        <ele>63.853</ele>
        <time>2019-06-19T12:47:49Z</time>
      </trkpt>
      <trkpt lat="43.540804" lon="-6.629836">
        <ele>62.908</ele>
        <time>2019-06-19T12:47:50Z</time>
      </trkpt>
      <trkpt lat="43.540826" lon="-6.630089">
        <ele>63.308</ele>
        <time>2019-06-19T12:47:51Z</time>
      </trkpt>
      <trkpt lat="43.540841" lon="-6.630345">
        <ele>64.768</ele>
        <time>2019-06-19T12:47:52Z</time>
      </trkpt>
      <trkpt lat="43.540838" lon="-6.630572">
        <ele>67.222</ele>
        <time>2019-06-19T12:47:53Z</time>
      </trkpt>
      <trkpt lat="43.540872" lon="-6.630777">
        <ele>69.843</ele>
        <time>2019-06-19T12:47:54Z</time>
      </trkpt>
      <trkpt lat="43.540937" lon="-6.630979">
        <ele>71.356</ele>
        <time>2019-06-19T12:47:55Z</time>
      </trkpt>
      <trkpt lat="43.540995" lon="-6.631157">
        <ele>72.396</ele>
        <time>2019-06-19T12:47:56Z</time>
      </trkpt>
      <trkpt lat="43.541076" lon="-6.631313">
        <ele>73.462</ele>
        <time>2019-06-19T12:47:57Z</time>
      </trkpt>
      <trkpt lat="43.541139" lon="-6.631471">
        <ele>75.430</ele>
        <time>2019-06-19T12:47:58Z</time>
      </trkpt>
      <trkpt lat="43.541295" lon="-6.631539">
        <ele>74.910</ele>
        <time>2019-06-19T12:47:59Z</time>
      </trkpt>
      <trkpt lat="43.541456" lon="-6.631588">
        <ele>74.458</ele>
        <time>2019-06-19T12:48:00Z</time>
      </trkpt>
      <trkpt lat="43.541569" lon="-6.631655">
        <ele>75.252</ele>
        <time>2019-06-19T12:48:01Z</time>
      </trkpt>
      <trkpt lat="43.541793" lon="-6.631640">
        <ele>76.817</ele>
        <time>2019-06-19T12:48:02Z</time>
      </trkpt>
      <trkpt lat="43.542014" lon="-6.631625">
        <ele>80.008</ele>
        <time>2019-06-19T12:48:03Z</time>
      </trkpt>
      <trkpt lat="43.542173" lon="-6.631644">
        <ele>82.148</ele>
        <time>2019-06-19T12:48:04Z</time>
      </trkpt>
      <trkpt lat="43.542358" lon="-6.631249">
        <ele>79.912</ele>
        <time>2019-06-19T12:48:05Z</time>
      </trkpt>
      <trkpt lat="43.542513" lon="-6.631160">
        <ele>82.623</ele>
        <time>2019-06-19T12:48:06Z</time>
      </trkpt>
      <trkpt lat="43.542611" lon="-6.630749">
        <ele>80.356</ele>
        <time>2019-06-19T12:48:07Z</time>
      </trkpt>
      <trkpt lat="43.542730" lon="-6.630518">
        <ele>80.426</ele>
        <time>2019-06-19T12:48:08Z</time>
      </trkpt>
      <trkpt lat="43.542844" lon="-6.630339">
        <ele>81.882</ele>
        <time>2019-06-19T12:48:09Z</time>
      </trkpt>
      <trkpt lat="43.542945" lon="-6.630193">
        <ele>83.360</ele>
        <time>2019-06-19T12:48:10Z</time>
      </trkpt>
      <trkpt lat="43.543046" lon="-6.630050">
        <ele>84.450</ele>
        <time>2019-06-19T12:48:11Z</time>
      </trkpt>
      <trkpt lat="43.543150" lon="-6.629878">
        <ele>83.574</ele>
        <time>2019-06-19T12:48:12Z</time>
      </trkpt>
      <trkpt lat="43.543279" lon="-6.629713">
        <ele>82.956</ele>
        <time>2019-06-19T12:48:13Z</time>
      </trkpt>
      <trkpt lat="43.543385" lon="-6.629569">
        <ele>82.721</ele>
        <time>2019-06-19T12:48:14Z</time>
      </trkpt>
      <trkpt lat="43.543496" lon="-6.629437">
        <ele>82.808</ele>
        <time>2019-06-19T12:48:15Z</time>
      </trkpt>
      <trkpt lat="43.543660" lon="-6.629381">
        <ele>84.530</ele>
        <time>2019-06-19T12:48:16Z</time>
      </trkpt>
      <trkpt lat="43.543781" lon="-6.629311">
        <ele>84.664</ele>
        <time>2019-06-19T12:48:17Z</time>
      </trkpt>
      <trkpt lat="43.543911" lon="-6.629249">
        <ele>85.225</ele>
        <time>2019-06-19T12:48:18Z</time>
      </trkpt>
      <trkpt lat="43.544069" lon="-6.629371">
        <ele>88.398</ele>
        <time>2019-06-19T12:48:19Z</time>
      </trkpt>
      <trkpt lat="43.544221" lon="-6.629429">
        <ele>90.378</ele>
        <time>2019-06-19T12:48:20Z</time>
      </trkpt>
      <trkpt lat="43.544379" lon="-6.629516">
        <ele>92.794</ele>
        <time>2019-06-19T12:48:21Z</time>
      </trkpt>
      <trkpt lat="43.544529" lon="-6.629613">
        <ele>93.982</ele>
        <time>2019-06-19T12:48:22Z</time>
      </trkpt>
      <trkpt lat="43.544716" lon="-6.629731">
        <ele>92.172</ele>
        <time>2019-06-19T12:48:23Z</time>
      </trkpt>
      <trkpt lat="43.544866" lon="-6.629892">
        <ele>92.927</ele>
        <time>2019-06-19T12:48:24Z</time>
      </trkpt>
      <trkpt lat="43.545005" lon="-6.630076">
        <ele>92.568</ele>
        <time>2019-06-19T12:48:25Z</time>
      </trkpt>
      <trkpt lat="43.545070" lon="-6.630421">
        <ele>92.314</ele>
        <time>2019-06-19T12:48:26Z</time>
      </trkpt>
      <trkpt lat="43.545187" lon="-6.630655">
        <ele>92.908</ele>
        <time>2019-06-19T12:48:27Z</time>
      </trkpt>
      <trkpt lat="43.545295" lon="-6.630884">
        <ele>93.495</ele>
        <time>2019-06-19T12:48:28Z</time>
      </trkpt>
      <trkpt lat="43.545402" lon="-6.631127">
        <ele>94.629</ele>
        <time>2019-06-19T12:48:29Z</time>
      </trkpt>
      <trkpt lat="43.545502" lon="-6.631345">
        <ele>94.540</ele>
        <time>2019-06-19T12:48:30Z</time>
      </trkpt>
      <trkpt lat="43.545584" lon="-6.631631">
        <ele>93.133</ele>
        <time>2019-06-19T12:48:31Z</time>
      </trkpt>
      <trkpt lat="43.545646" lon="-6.631933">
        <ele>93.663</ele>
        <time>2019-06-19T12:48:32Z</time>
      </trkpt>
      <trkpt lat="43.545720" lon="-6.632188">
        <ele>94.689</ele>
        <time>2019-06-19T12:48:33Z</time>
      </trkpt>
      <trkpt lat="43.545794" lon="-6.632448">
        <ele>95.847</ele>
        <time>2019-06-19T12:48:34Z</time>
      </trkpt>
      <trkpt lat="43.545784" lon="-6.632874">
        <ele>94.527</ele>
        <time>2019-06-19T12:48:35Z</time>
      </trkpt>
      <trkpt lat="43.545815" lon="-6.633165">
        <ele>92.681</ele>
        <time>2019-06-19T12:48:36Z</time>
      </trkpt>
      <trkpt lat="43.545846" lon="-6.633476">
        <ele>91.061</ele>
        <time>2019-06-19T12:48:37Z</time>
      </trkpt>
      <trkpt lat="43.545858" lon="-6.633791">
        <ele>90.417</ele>
        <time>2019-06-19T12:48:38Z</time>
      </trkpt>
      <trkpt lat="43.545841" lon="-6.634105">
        <ele>89.208</ele>
        <time>2019-06-19T12:48:39Z</time>
      </trkpt>
      <trkpt lat="43.545849" lon="-6.634430">
        <ele>88.121</ele>
        <time>2019-06-19T12:48:40Z</time>
      </trkpt>
      <trkpt lat="43.545818" lon="-6.634846">
        <ele>86.895</ele>
        <time>2019-06-19T12:48:41Z</time>
      </trkpt>
      <trkpt lat="43.545819" lon="-6.635199">
        <ele>85.586</ele>
        <time>2019-06-19T12:48:42Z</time>
      </trkpt>
      <trkpt lat="43.545815" lon="-6.635559">
        <ele>84.289</ele>
        <time>2019-06-19T12:48:43Z</time>
      </trkpt>
      <trkpt lat="43.545804" lon="-6.635909">
        <ele>81.589</ele>
        <time>2019-06-19T12:48:44Z</time>
      </trkpt>
      <trkpt lat="43.545802" lon="-6.636278">
        <ele>78.645</ele>
        <time>2019-06-19T12:48:45Z</time>
      </trkpt>
      <trkpt lat="43.545799" lon="-6.636641">
        <ele>76.893</ele>
        <time>2019-06-19T12:48:46Z</time>
      </trkpt>
      <trkpt lat="43.545797" lon="-6.637005">
        <ele>74.433</ele>
        <time>2019-06-19T12:48:47Z</time>
      </trkpt>
      <trkpt lat="43.545792" lon="-6.637367">
        <ele>72.953</ele>
        <time>2019-06-19T12:48:48Z</time>
      </trkpt>
      <trkpt lat="43.545791" lon="-6.637724">
        <ele>72.304</ele>
        <time>2019-06-19T12:48:49Z</time>
      </trkpt>
      <trkpt lat="43.545804" lon="-6.638092">
        <ele>71.114</ele>
        <time>2019-06-19T12:48:50Z</time>
      </trkpt>
      <trkpt lat="43.545804" lon="-6.638449">
        <ele>70.708</ele>
        <time>2019-06-19T12:48:51Z</time>
      </trkpt>
      <trkpt lat="43.545801" lon="-6.638797">
        <ele>70.288</ele>
        <time>2019-06-19T12:48:52Z</time>
      </trkpt>
      <trkpt lat="43.545800" lon="-6.639139">
        <ele>70.142</ele>
        <time>2019-06-19T12:48:53Z</time>
      </trkpt>
      <trkpt lat="43.545795" lon="-6.639463">
        <ele>71.143</ele>
        <time>2019-06-19T12:48:54Z</time>
      </trkpt>
      <trkpt lat="43.545786" lon="-6.639774">
        <ele>71.846</ele>
        <time>2019-06-19T12:48:55Z</time>
      </trkpt>
      <trkpt lat="43.545785" lon="-6.640074">
        <ele>71.876</ele>
        <time>2019-06-19T12:48:56Z</time>
      </trkpt>
      <trkpt lat="43.545794" lon="-6.640366">
        <ele>71.942</ele>
        <time>2019-06-19T12:48:57Z</time>
      </trkpt>
      <trkpt lat="43.545803" lon="-6.640659">
        <ele>71.950</ele>
        <time>2019-06-19T12:48:58Z</time>
      </trkpt>
      <trkpt lat="43.545807" lon="-6.640948">
        <ele>72.090</ele>
        <time>2019-06-19T12:48:59Z</time>
      </trkpt>
      <trkpt lat="43.545803" lon="-6.641235">
        <ele>72.057</ele>
        <time>2019-06-19T12:49:00Z</time>
      </trkpt>
      <trkpt lat="43.545804" lon="-6.641528">
        <ele>72.100</ele>
        <time>2019-06-19T12:49:01Z</time>
      </trkpt>
      <trkpt lat="43.545797" lon="-6.641818">
        <ele>71.620</ele>
        <time>2019-06-19T12:49:02Z</time>
      </trkpt>
      <trkpt lat="43.545797" lon="-6.642114">
        <ele>71.108</ele>
        <time>2019-06-19T12:49:03Z</time>
      </trkpt>
      <trkpt lat="43.545798" lon="-6.642416">
        <ele>71.078</ele>
        <time>2019-06-19T12:49:04Z</time>
      </trkpt>
      <trkpt lat="43.545798" lon="-6.642722">
        <ele>71.032</ele>
        <time>2019-06-19T12:49:05Z</time>
      </trkpt>
      <trkpt lat="43.545798" lon="-6.643015">
        <ele>70.393</ele>
        <time>2019-06-19T12:49:06Z</time>
      </trkpt>
      <trkpt lat="43.545801" lon="-6.643320">
        <ele>70.296</ele>
        <time>2019-06-19T12:49:07Z</time>
      </trkpt>
      <trkpt lat="43.545791" lon="-6.643609">
        <ele>70.386</ele>
        <time>2019-06-19T12:49:08Z</time>
      </trkpt>
      <trkpt lat="43.545796" lon="-6.643897">
        <ele>70.212</ele>
        <time>2019-06-19T12:49:09Z</time>
      </trkpt>
      <trkpt lat="43.545799" lon="-6.644184">
        <ele>71.210</ele>
        <time>2019-06-19T12:49:10Z</time>
      </trkpt>
      <trkpt lat="43.545791" lon="-6.644474">
        <ele>72.920</ele>
        <time>2019-06-19T12:49:11Z</time>
      </trkpt>
      <trkpt lat="43.545792" lon="-6.644763">
        <ele>73.175</ele>
        <time>2019-06-19T12:49:12Z</time>
      </trkpt>
      <trkpt lat="43.545792" lon="-6.645057">
        <ele>74.228</ele>
        <time>2019-06-19T12:49:13Z</time>
      </trkpt>
      <trkpt lat="43.545789" lon="-6.645353">
        <ele>74.720</ele>
        <time>2019-06-19T12:49:14Z</time>
      </trkpt>
      <trkpt lat="43.545790" lon="-6.645638">
        <ele>73.708</ele>
        <time>2019-06-19T12:49:15Z</time>
      </trkpt>
      <trkpt lat="43.545784" lon="-6.645921">
        <ele>73.640</ele>
        <time>2019-06-19T12:49:16Z</time>
      </trkpt>
      <trkpt lat="43.545786" lon="-6.646212">
        <ele>75.044</ele>
        <time>2019-06-19T12:49:17Z</time>
      </trkpt>
      <trkpt lat="43.545787" lon="-6.646496">
        <ele>75.385</ele>
        <time>2019-06-19T12:49:18Z</time>
      </trkpt>
      <trkpt lat="43.545772" lon="-6.646778">
        <ele>75.538</ele>
        <time>2019-06-19T12:49:19Z</time>
      </trkpt>
      <trkpt lat="43.545755" lon="-6.647055">
        <ele>75.748</ele>
        <time>2019-06-19T12:49:20Z</time>
      </trkpt>
      <trkpt lat="43.545731" lon="-6.647345">
        <ele>75.764</ele>
        <time>2019-06-19T12:49:21Z</time>
      </trkpt>
      <trkpt lat="43.545700" lon="-6.647629">
        <ele>75.772</ele>
        <time>2019-06-19T12:49:22Z</time>
      </trkpt>
      <trkpt lat="43.545666" lon="-6.647916">
        <ele>75.162</ele>
        <time>2019-06-19T12:49:23Z</time>
      </trkpt>
      <trkpt lat="43.545616" lon="-6.648205">
        <ele>74.474</ele>
        <time>2019-06-19T12:49:24Z</time>
      </trkpt>
      <trkpt lat="43.545582" lon="-6.648505">
        <ele>73.456</ele>
        <time>2019-06-19T12:49:25Z</time>
      </trkpt>
      <trkpt lat="43.545537" lon="-6.648794">
        <ele>73.121</ele>
        <time>2019-06-19T12:49:26Z</time>
      </trkpt>
      <trkpt lat="43.545492" lon="-6.649094">
        <ele>72.708</ele>
        <time>2019-06-19T12:49:27Z</time>
      </trkpt>
      <trkpt lat="43.545443" lon="-6.649399">
        <ele>71.590</ele>
        <time>2019-06-19T12:49:28Z</time>
      </trkpt>
      <trkpt lat="43.545393" lon="-6.649685">
        <ele>71.294</ele>
        <time>2019-06-19T12:49:29Z</time>
      </trkpt>
      <trkpt lat="43.545339" lon="-6.649958">
        <ele>70.735</ele>
        <time>2019-06-19T12:49:30Z</time>
      </trkpt>
      <trkpt lat="43.545285" lon="-6.650254">
        <ele>70.068</ele>
        <time>2019-06-19T12:49:31Z</time>
      </trkpt>
      <trkpt lat="43.545237" lon="-6.650557">
        <ele>69.488</ele>
        <time>2019-06-19T12:49:32Z</time>
      </trkpt>
      <trkpt lat="43.545185" lon="-6.650858">
        <ele>70.024</ele>
        <time>2019-06-19T12:49:33Z</time>
      </trkpt>
      <trkpt lat="43.545134" lon="-6.651169">
        <ele>70.062</ele>
        <time>2019-06-19T12:49:34Z</time>
      </trkpt>
      <trkpt lat="43.545086" lon="-6.651481">
        <ele>69.912</ele>
        <time>2019-06-19T12:49:35Z</time>
      </trkpt>
      <trkpt lat="43.545036" lon="-6.651782">
        <ele>69.197</ele>
        <time>2019-06-19T12:49:36Z</time>
      </trkpt>
      <trkpt lat="43.544989" lon="-6.652092">
        <ele>67.523</ele>
        <time>2019-06-19T12:49:37Z</time>
      </trkpt>
      <trkpt lat="43.544940" lon="-6.652408">
        <ele>67.225</ele>
        <time>2019-06-19T12:49:38Z</time>
      </trkpt>
      <trkpt lat="43.544893" lon="-6.652721">
        <ele>67.908</ele>
        <time>2019-06-19T12:49:39Z</time>
      </trkpt>
      <trkpt lat="43.544840" lon="-6.653037">
        <ele>68.022</ele>
        <time>2019-06-19T12:49:40Z</time>
      </trkpt>
      <trkpt lat="43.544786" lon="-6.653346">
        <ele>68.086</ele>
        <time>2019-06-19T12:49:41Z</time>
      </trkpt>
      <trkpt lat="43.544739" lon="-6.653642">
        <ele>69.097</ele>
        <time>2019-06-19T12:49:42Z</time>
      </trkpt>
      <trkpt lat="43.544686" lon="-6.653928">
        <ele>69.980</ele>
        <time>2019-06-19T12:49:43Z</time>
      </trkpt>
      <trkpt lat="43.544611" lon="-6.654200">
        <ele>70.560</ele>
        <time>2019-06-19T12:49:44Z</time>
      </trkpt>
      <trkpt lat="43.544534" lon="-6.654430">
        <ele>71.686</ele>
        <time>2019-06-19T12:49:45Z</time>
      </trkpt>
      <trkpt lat="43.544457" lon="-6.654675">
        <ele>72.014</ele>
        <time>2019-06-19T12:49:46Z</time>
      </trkpt>
      <trkpt lat="43.544371" lon="-6.654829">
        <ele>72.054</ele>
        <time>2019-06-19T12:49:47Z</time>
      </trkpt>
      <trkpt lat="43.544306" lon="-6.655015">
        <ele>72.019</ele>
        <time>2019-06-19T12:49:48Z</time>
      </trkpt>
      <trkpt lat="43.544280" lon="-6.655156">
        <ele>72.009</ele>
        <time>2019-06-19T12:49:49Z</time>
      </trkpt>
      <trkpt lat="43.544251" lon="-6.655291">
        <ele>72.019</ele>
        <time>2019-06-19T12:49:50Z</time>
      </trkpt>
      <trkpt lat="43.544291" lon="-6.655374">
        <ele>72.008</ele>
        <time>2019-06-19T12:49:51Z</time>
      </trkpt>
      <trkpt lat="43.544319" lon="-6.655481">
        <ele>72.034</ele>
        <time>2019-06-19T12:49:52Z</time>
      </trkpt>
      <trkpt lat="43.544347" lon="-6.655579">
        <ele>71.978</ele>
        <time>2019-06-19T12:49:53Z</time>
      </trkpt>
      <trkpt lat="43.544411" lon="-6.655691">
        <ele>71.679</ele>
        <time>2019-06-19T12:49:54Z</time>
      </trkpt>
      <trkpt lat="43.544443" lon="-6.655812">
        <ele>71.172</ele>
        <time>2019-06-19T12:49:55Z</time>
      </trkpt>
      <trkpt lat="43.544452" lon="-6.655908">
        <ele>71.062</ele>
        <time>2019-06-19T12:49:56Z</time>
      </trkpt>
      <trkpt lat="43.544418" lon="-6.656022">
        <ele>71.078</ele>
        <time>2019-06-19T12:49:57Z</time>
      </trkpt>
      <trkpt lat="43.544378" lon="-6.656105">
        <ele>71.056</ele>
        <time>2019-06-19T12:49:58Z</time>
      </trkpt>
      <trkpt lat="43.544318" lon="-6.656202">
        <ele>70.876</ele>
        <time>2019-06-19T12:49:59Z</time>
      </trkpt>
      <trkpt lat="43.544246" lon="-6.656282">
        <ele>70.813</ele>
        <time>2019-06-19T12:50:00Z</time>
      </trkpt>
      <trkpt lat="43.544163" lon="-6.656351">
        <ele>71.043</ele>
        <time>2019-06-19T12:50:01Z</time>
      </trkpt>
      <trkpt lat="43.544115" lon="-6.656414">
        <ele>70.707</ele>
        <time>2019-06-19T12:50:02Z</time>
      </trkpt>
      <trkpt lat="43.544063" lon="-6.656495">
        <ele>70.408</ele>
        <time>2019-06-19T12:50:03Z</time>
      </trkpt>
      <trkpt lat="43.544031" lon="-6.656582">
        <ele>70.214</ele>
        <time>2019-06-19T12:50:04Z</time>
      </trkpt>
      <trkpt lat="43.543994" lon="-6.656783">
        <ele>70.028</ele>
        <time>2019-06-19T12:50:05Z</time>
      </trkpt>
      <trkpt lat="43.544012" lon="-6.656965">
        <ele>70.089</ele>
        <time>2019-06-19T12:50:06Z</time>
      </trkpt>
      <trkpt lat="43.544021" lon="-6.657150">
        <ele>70.052</ele>
        <time>2019-06-19T12:50:07Z</time>
      </trkpt>
      <trkpt lat="43.544024" lon="-6.657344">
        <ele>70.212</ele>
        <time>2019-06-19T12:50:08Z</time>
      </trkpt>
      <trkpt lat="43.544008" lon="-6.657569">
        <ele>70.658</ele>
        <time>2019-06-19T12:50:09Z</time>
      </trkpt>
      <trkpt lat="43.544005" lon="-6.657792">
        <ele>71.056</ele>
        <time>2019-06-19T12:50:10Z</time>
      </trkpt>
      <trkpt lat="43.543989" lon="-6.658016">
        <ele>71.326</ele>
        <time>2019-06-19T12:50:11Z</time>
      </trkpt>
      <trkpt lat="43.543947" lon="-6.658281">
        <ele>71.218</ele>
        <time>2019-06-19T12:50:12Z</time>
      </trkpt>
      <trkpt lat="43.543905" lon="-6.658552">
        <ele>71.198</ele>
        <time>2019-06-19T12:50:13Z</time>
      </trkpt>
      <trkpt lat="43.543850" lon="-6.658837">
        <ele>71.117</ele>
        <time>2019-06-19T12:50:14Z</time>
      </trkpt>
      <trkpt lat="43.543809" lon="-6.659120">
        <ele>71.008</ele>
        <time>2019-06-19T12:50:15Z</time>
      </trkpt>
      <trkpt lat="43.543759" lon="-6.659407">
        <ele>70.554</ele>
        <time>2019-06-19T12:50:16Z</time>
      </trkpt>
      <trkpt lat="43.543714" lon="-6.659705">
        <ele>69.738</ele>
        <time>2019-06-19T12:50:17Z</time>
      </trkpt>
      <trkpt lat="43.543670" lon="-6.660004">
        <ele>69.289</ele>
        <time>2019-06-19T12:50:18Z</time>
      </trkpt>
      <trkpt lat="43.543642" lon="-6.660303">
        <ele>68.192</ele>
        <time>2019-06-19T12:50:19Z</time>
      </trkpt>
      <trkpt lat="43.543585" lon="-6.660612">
        <ele>66.882</ele>
        <time>2019-06-19T12:50:20Z</time>
      </trkpt>
      <trkpt lat="43.543535" lon="-6.660917">
        <ele>65.998</ele>
        <time>2019-06-19T12:50:21Z</time>
      </trkpt>
      <trkpt lat="43.543480" lon="-6.661216">
        <ele>65.086</ele>
        <time>2019-06-19T12:50:22Z</time>
      </trkpt>
      <trkpt lat="43.543431" lon="-6.661514">
        <ele>63.396</ele>
        <time>2019-06-19T12:50:23Z</time>
      </trkpt>
      <trkpt lat="43.543378" lon="-6.661820">
        <ele>61.641</ele>
        <time>2019-06-19T12:50:24Z</time>
      </trkpt>
      <trkpt lat="43.543334" lon="-6.662114">
        <ele>59.881</ele>
        <time>2019-06-19T12:50:25Z</time>
      </trkpt>
      <trkpt lat="43.543311" lon="-6.662401">
        <ele>58.909</ele>
        <time>2019-06-19T12:50:26Z</time>
      </trkpt>
      <trkpt lat="43.543273" lon="-6.662675">
        <ele>58.908</ele>
        <time>2019-06-19T12:50:27Z</time>
      </trkpt>
      <trkpt lat="43.543232" lon="-6.662959">
        <ele>59.217</ele>
        <time>2019-06-19T12:50:28Z</time>
      </trkpt>
      <trkpt lat="43.543217" lon="-6.663253">
        <ele>59.341</ele>
        <time>2019-06-19T12:50:29Z</time>
      </trkpt>
      <trkpt lat="43.543200" lon="-6.663554">
        <ele>59.842</ele>
        <time>2019-06-19T12:50:30Z</time>
      </trkpt>
      <trkpt lat="43.543195" lon="-6.663851">
        <ele>58.715</ele>
        <time>2019-06-19T12:50:31Z</time>
      </trkpt>
      <trkpt lat="43.543225" lon="-6.664136">
        <ele>57.925</ele>
        <time>2019-06-19T12:50:32Z</time>
      </trkpt>
      <trkpt lat="43.543404" lon="-6.664343">
        <ele>56.041</ele>
        <time>2019-06-19T12:50:33Z</time>
      </trkpt>
      <trkpt lat="43.543486" lon="-6.664615">
        <ele>56.099</ele>
        <time>2019-06-19T12:50:34Z</time>
      </trkpt>
      <trkpt lat="43.543599" lon="-6.664834">
        <ele>56.069</ele>
        <time>2019-06-19T12:50:35Z</time>
      </trkpt>
      <trkpt lat="43.543715" lon="-6.665066">
        <ele>56.846</ele>
        <time>2019-06-19T12:50:36Z</time>
      </trkpt>
      <trkpt lat="43.543840" lon="-6.665282">
        <ele>59.588</ele>
        <time>2019-06-19T12:50:37Z</time>
      </trkpt>
      <trkpt lat="43.543950" lon="-6.665440">
        <ele>61.916</ele>
        <time>2019-06-19T12:50:38Z</time>
      </trkpt>
      <trkpt lat="43.544069" lon="-6.665610">
        <ele>63.908</ele>
        <time>2019-06-19T12:50:39Z</time>
      </trkpt>
      <trkpt lat="43.544341" lon="-6.665669">
        <ele>62.457</ele>
        <time>2019-06-19T12:50:40Z</time>
      </trkpt>
      <trkpt lat="43.544509" lon="-6.665793">
        <ele>61.681</ele>
        <time>2019-06-19T12:50:41Z</time>
      </trkpt>
      <trkpt lat="43.544753" lon="-6.665831">
        <ele>58.992</ele>
        <time>2019-06-19T12:50:42Z</time>
      </trkpt>
      <trkpt lat="43.544946" lon="-6.665917">
        <ele>58.955</ele>
        <time>2019-06-19T12:50:43Z</time>
      </trkpt>
      <trkpt lat="43.545132" lon="-6.665991">
        <ele>59.675</ele>
        <time>2019-06-19T12:50:44Z</time>
      </trkpt>
      <trkpt lat="43.545311" lon="-6.666077">
        <ele>60.941</ele>
        <time>2019-06-19T12:50:45Z</time>
      </trkpt>
      <trkpt lat="43.545472" lon="-6.666187">
        <ele>62.119</ele>
        <time>2019-06-19T12:50:46Z</time>
      </trkpt>
      <trkpt lat="43.545650" lon="-6.666326">
        <ele>62.979</ele>
        <time>2019-06-19T12:50:47Z</time>
      </trkpt>
      <trkpt lat="43.545822" lon="-6.666476">
        <ele>63.345</ele>
        <time>2019-06-19T12:50:48Z</time>
      </trkpt>
      <trkpt lat="43.545940" lon="-6.666667">
        <ele>63.647</ele>
        <time>2019-06-19T12:50:49Z</time>
      </trkpt>
      <trkpt lat="43.546072" lon="-6.666875">
        <ele>64.011</ele>
        <time>2019-06-19T12:50:50Z</time>
      </trkpt>
      <trkpt lat="43.546198" lon="-6.667091">
        <ele>63.108</ele>
        <time>2019-06-19T12:50:51Z</time>
      </trkpt>
      <trkpt lat="43.546257" lon="-6.667359">
        <ele>62.667</ele>
        <time>2019-06-19T12:50:52Z</time>
      </trkpt>
      <trkpt lat="43.546340" lon="-6.667628">
        <ele>62.271</ele>
        <time>2019-06-19T12:50:53Z</time>
      </trkpt>
      <trkpt lat="43.546391" lon="-6.667910">
        <ele>62.052</ele>
        <time>2019-06-19T12:50:54Z</time>
      </trkpt>
      <trkpt lat="43.546424" lon="-6.668202">
        <ele>60.585</ele>
        <time>2019-06-19T12:50:55Z</time>
      </trkpt>
      <trkpt lat="43.546445" lon="-6.668485">
        <ele>59.375</ele>
        <time>2019-06-19T12:50:56Z</time>
      </trkpt>
      <trkpt lat="43.546451" lon="-6.668804">
        <ele>59.871</ele>
        <time>2019-06-19T12:50:57Z</time>
      </trkpt>
      <trkpt lat="43.546462" lon="-6.669099">
        <ele>59.229</ele>
        <time>2019-06-19T12:50:58Z</time>
      </trkpt>
      <trkpt lat="43.546476" lon="-6.669391">
        <ele>59.039</ele>
        <time>2019-06-19T12:50:59Z</time>
      </trkpt>
      <trkpt lat="43.546480" lon="-6.669680">
        <ele>58.256</ele>
        <time>2019-06-19T12:51:00Z</time>
      </trkpt>
      <trkpt lat="43.546485" lon="-6.669967">
        <ele>58.059</ele>
        <time>2019-06-19T12:51:01Z</time>
      </trkpt>
      <trkpt lat="43.546488" lon="-6.670245">
        <ele>59.414</ele>
        <time>2019-06-19T12:51:02Z</time>
      </trkpt>
      <trkpt lat="43.546493" lon="-6.670528">
        <ele>60.708</ele>
        <time>2019-06-19T12:51:03Z</time>
      </trkpt>
      <trkpt lat="43.546450" lon="-6.670806">
        <ele>61.178</ele>
        <time>2019-06-19T12:51:04Z</time>
      </trkpt>
      <trkpt lat="43.546403" lon="-6.671075">
        <ele>60.192</ele>
        <time>2019-06-19T12:51:05Z</time>
      </trkpt>
      <trkpt lat="43.546333" lon="-6.671355">
        <ele>59.573</ele>
        <time>2019-06-19T12:51:06Z</time>
      </trkpt>
      <trkpt lat="43.546240" lon="-6.671610">
        <ele>60.436</ele>
        <time>2019-06-19T12:51:07Z</time>
      </trkpt>
      <trkpt lat="43.546127" lon="-6.671861">
        <ele>61.046</ele>
        <time>2019-06-19T12:51:08Z</time>
      </trkpt>
      <trkpt lat="43.545993" lon="-6.672098">
        <ele>60.132</ele>
        <time>2019-06-19T12:51:09Z</time>
      </trkpt>
      <trkpt lat="43.545847" lon="-6.672335">
        <ele>59.550</ele>
        <time>2019-06-19T12:51:10Z</time>
      </trkpt>
      <trkpt lat="43.545694" lon="-6.672568">
        <ele>60.460</ele>
        <time>2019-06-19T12:51:11Z</time>
      </trkpt>
      <trkpt lat="43.545539" lon="-6.672811">
        <ele>61.995</ele>
        <time>2019-06-19T12:51:12Z</time>
      </trkpt>
      <trkpt lat="43.545384" lon="-6.673042">
        <ele>61.949</ele>
        <time>2019-06-19T12:51:13Z</time>
      </trkpt>
      <trkpt lat="43.545228" lon="-6.673277">
        <ele>61.923</ele>
        <time>2019-06-19T12:51:14Z</time>
      </trkpt>
      <trkpt lat="43.545073" lon="-6.673511">
        <ele>62.608</ele>
        <time>2019-06-19T12:51:15Z</time>
      </trkpt>
      <trkpt lat="43.544914" lon="-6.673753">
        <ele>61.552</ele>
        <time>2019-06-19T12:51:16Z</time>
      </trkpt>
      <trkpt lat="43.544757" lon="-6.673990">
        <ele>59.116</ele>
        <time>2019-06-19T12:51:17Z</time>
      </trkpt>
      <trkpt lat="43.544612" lon="-6.674205">
        <ele>58.727</ele>
        <time>2019-06-19T12:51:18Z</time>
      </trkpt>
      <trkpt lat="43.544469" lon="-6.674398">
        <ele>58.960</ele>
        <time>2019-06-19T12:51:19Z</time>
      </trkpt>
      <trkpt lat="43.544324" lon="-6.674607">
        <ele>58.440</ele>
        <time>2019-06-19T12:51:20Z</time>
      </trkpt>
      <trkpt lat="43.544161" lon="-6.674808">
        <ele>58.226</ele>
        <time>2019-06-19T12:51:21Z</time>
      </trkpt>
      <trkpt lat="43.544004" lon="-6.674979">
        <ele>58.624</ele>
        <time>2019-06-19T12:51:22Z</time>
      </trkpt>
      <trkpt lat="43.543818" lon="-6.675141">
        <ele>60.844</ele>
        <time>2019-06-19T12:51:23Z</time>
      </trkpt>
      <trkpt lat="43.543623" lon="-6.675228">
        <ele>62.391</ele>
        <time>2019-06-19T12:51:24Z</time>
      </trkpt>
      <trkpt lat="43.543430" lon="-6.675348">
        <ele>62.981</ele>
        <time>2019-06-19T12:51:25Z</time>
      </trkpt>
      <trkpt lat="43.543222" lon="-6.675464">
        <ele>62.119</ele>
        <time>2019-06-19T12:51:26Z</time>
      </trkpt>
      <trkpt lat="43.543003" lon="-6.675503">
        <ele>60.608</ele>
        <time>2019-06-19T12:51:27Z</time>
      </trkpt>
      <trkpt lat="43.542807" lon="-6.675547">
        <ele>59.282</ele>
        <time>2019-06-19T12:51:28Z</time>
      </trkpt>
      <trkpt lat="43.542609" lon="-6.675607">
        <ele>58.966</ele>
        <time>2019-06-19T12:51:29Z</time>
      </trkpt>
      <trkpt lat="43.542406" lon="-6.675667">
        <ele>58.947</ele>
        <time>2019-06-19T12:51:30Z</time>
      </trkpt>
      <trkpt lat="43.542210" lon="-6.675793">
        <ele>57.790</ele>
        <time>2019-06-19T12:51:31Z</time>
      </trkpt>
      <trkpt lat="43.542014" lon="-6.675928">
        <ele>56.010</ele>
        <time>2019-06-19T12:51:32Z</time>
      </trkpt>
      <trkpt lat="43.541827" lon="-6.676067">
        <ele>54.926</ele>
        <time>2019-06-19T12:51:33Z</time>
      </trkpt>
      <trkpt lat="43.541645" lon="-6.676233">
        <ele>54.534</ele>
        <time>2019-06-19T12:51:34Z</time>
      </trkpt>
      <trkpt lat="43.541464" lon="-6.676398">
        <ele>55.164</ele>
        <time>2019-06-19T12:51:35Z</time>
      </trkpt>
      <trkpt lat="43.541279" lon="-6.676567">
        <ele>54.625</ele>
        <time>2019-06-19T12:51:36Z</time>
      </trkpt>
      <trkpt lat="43.541094" lon="-6.676729">
        <ele>52.826</ele>
        <time>2019-06-19T12:51:37Z</time>
      </trkpt>
      <trkpt lat="43.540884" lon="-6.676823">
        <ele>54.108</ele>
        <time>2019-06-19T12:51:38Z</time>
      </trkpt>
      <trkpt lat="43.540663" lon="-6.676928">
        <ele>53.008</ele>
        <time>2019-06-19T12:51:39Z</time>
      </trkpt>
      <trkpt lat="43.540441" lon="-6.677005">
        <ele>53.375</ele>
        <time>2019-06-19T12:51:40Z</time>
      </trkpt>
      <trkpt lat="43.540220" lon="-6.677084">
        <ele>53.239</ele>
        <time>2019-06-19T12:51:41Z</time>
      </trkpt>
      <trkpt lat="43.540000" lon="-6.677146">
        <ele>53.180</ele>
        <time>2019-06-19T12:51:42Z</time>
      </trkpt>
      <trkpt lat="43.539775" lon="-6.677197">
        <ele>53.913</ele>
        <time>2019-06-19T12:51:43Z</time>
      </trkpt>
      <trkpt lat="43.539555" lon="-6.677272">
        <ele>54.613</ele>
        <time>2019-06-19T12:51:44Z</time>
      </trkpt>
      <trkpt lat="43.539347" lon="-6.677400">
        <ele>54.819</ele>
        <time>2019-06-19T12:51:45Z</time>
      </trkpt>
      <trkpt lat="43.539148" lon="-6.677545">
        <ele>55.337</ele>
        <time>2019-06-19T12:51:46Z</time>
      </trkpt>
      <trkpt lat="43.538965" lon="-6.677714">
        <ele>56.837</ele>
        <time>2019-06-19T12:51:47Z</time>
      </trkpt>
      <trkpt lat="43.538786" lon="-6.677898">
        <ele>58.217</ele>
        <time>2019-06-19T12:51:48Z</time>
      </trkpt>
      <trkpt lat="43.538611" lon="-6.678085">
        <ele>59.087</ele>
        <time>2019-06-19T12:51:49Z</time>
      </trkpt>
      <trkpt lat="43.538467" lon="-6.678312">
        <ele>59.115</ele>
        <time>2019-06-19T12:51:50Z</time>
      </trkpt>
      <trkpt lat="43.538323" lon="-6.678530">
        <ele>59.008</ele>
        <time>2019-06-19T12:51:51Z</time>
      </trkpt>
      <trkpt lat="43.538186" lon="-6.678771">
        <ele>59.644</ele>
        <time>2019-06-19T12:51:52Z</time>
      </trkpt>
      <trkpt lat="43.538071" lon="-6.679014">
        <ele>61.318</ele>
        <time>2019-06-19T12:51:53Z</time>
      </trkpt>
      <trkpt lat="43.537981" lon="-6.679284">
        <ele>64.849</ele>
        <time>2019-06-19T12:51:54Z</time>
      </trkpt>
      <trkpt lat="43.537877" lon="-6.679564">
        <ele>66.812</ele>
        <time>2019-06-19T12:51:55Z</time>
      </trkpt>
      <trkpt lat="43.537786" lon="-6.679832">
        <ele>67.042</ele>
        <time>2019-06-19T12:51:56Z</time>
      </trkpt>
      <trkpt lat="43.537685" lon="-6.680100">
        <ele>66.818</ele>
        <time>2019-06-19T12:51:57Z</time>
      </trkpt>
      <trkpt lat="43.537567" lon="-6.680383">
        <ele>66.336</ele>
        <time>2019-06-19T12:51:58Z</time>
      </trkpt>
      <trkpt lat="43.537471" lon="-6.680655">
        <ele>67.576</ele>
        <time>2019-06-19T12:51:59Z</time>
      </trkpt>
      <trkpt lat="43.537374" lon="-6.680928">
        <ele>68.885</ele>
        <time>2019-06-19T12:52:00Z</time>
      </trkpt>
      <trkpt lat="43.537275" lon="-6.681187">
        <ele>69.589</ele>
        <time>2019-06-19T12:52:01Z</time>
      </trkpt>
      <trkpt lat="43.537177" lon="-6.681452">
        <ele>70.217</ele>
        <time>2019-06-19T12:52:02Z</time>
      </trkpt>
      <trkpt lat="43.537072" lon="-6.681749">
        <ele>70.608</ele>
        <time>2019-06-19T12:52:03Z</time>
      </trkpt>
      <trkpt lat="43.536977" lon="-6.682016">
        <ele>70.541</ele>
        <time>2019-06-19T12:52:04Z</time>
      </trkpt>
      <trkpt lat="43.536879" lon="-6.682291">
        <ele>71.095</ele>
        <time>2019-06-19T12:52:05Z</time>
      </trkpt>
      <trkpt lat="43.536781" lon="-6.682563">
        <ele>71.686</ele>
        <time>2019-06-19T12:52:06Z</time>
      </trkpt>
      <trkpt lat="43.536683" lon="-6.682835">
        <ele>72.319</ele>
        <time>2019-06-19T12:52:07Z</time>
      </trkpt>
      <trkpt lat="43.536587" lon="-6.683110">
        <ele>72.949</ele>
        <time>2019-06-19T12:52:08Z</time>
      </trkpt>
      <trkpt lat="43.536497" lon="-6.683366">
        <ele>72.865</ele>
        <time>2019-06-19T12:52:09Z</time>
      </trkpt>
      <trkpt lat="43.536401" lon="-6.683631">
        <ele>73.023</ele>
        <time>2019-06-19T12:52:10Z</time>
      </trkpt>
      <trkpt lat="43.536285" lon="-6.683926">
        <ele>72.683</ele>
        <time>2019-06-19T12:52:11Z</time>
      </trkpt>
      <trkpt lat="43.536175" lon="-6.684230">
        <ele>72.473</ele>
        <time>2019-06-19T12:52:12Z</time>
      </trkpt>
      <trkpt lat="43.536076" lon="-6.684545">
        <ele>72.185</ele>
        <time>2019-06-19T12:52:13Z</time>
      </trkpt>
      <trkpt lat="43.535971" lon="-6.684852">
        <ele>72.713</ele>
        <time>2019-06-19T12:52:14Z</time>
      </trkpt>
      <trkpt lat="43.535873" lon="-6.685164">
        <ele>73.008</ele>
        <time>2019-06-19T12:52:15Z</time>
      </trkpt>
      <trkpt lat="43.535791" lon="-6.685484">
        <ele>73.160</ele>
        <time>2019-06-19T12:52:16Z</time>
      </trkpt>
      <trkpt lat="43.535716" lon="-6.685805">
        <ele>73.414</ele>
        <time>2019-06-19T12:52:17Z</time>
      </trkpt>
      <trkpt lat="43.535654" lon="-6.686108">
        <ele>73.625</ele>
        <time>2019-06-19T12:52:18Z</time>
      </trkpt>
      <trkpt lat="43.535592" lon="-6.686433">
        <ele>75.038</ele>
        <time>2019-06-19T12:52:19Z</time>
      </trkpt>
      <trkpt lat="43.535531" lon="-6.686774">
        <ele>76.588</ele>
        <time>2019-06-19T12:52:20Z</time>
      </trkpt>
      <trkpt lat="43.535483" lon="-6.687117">
        <ele>77.454</ele>
        <time>2019-06-19T12:52:21Z</time>
      </trkpt>
      <trkpt lat="43.535431" lon="-6.687460">
        <ele>78.452</ele>
        <time>2019-06-19T12:52:22Z</time>
      </trkpt>
      <trkpt lat="43.535379" lon="-6.687864">
        <ele>78.092</ele>
        <time>2019-06-19T12:52:23Z</time>
      </trkpt>
      <trkpt lat="43.535337" lon="-6.688222">
        <ele>77.192</ele>
        <time>2019-06-19T12:52:24Z</time>
      </trkpt>
      <trkpt lat="43.535286" lon="-6.688578">
        <ele>76.173</ele>
        <time>2019-06-19T12:52:25Z</time>
      </trkpt>
      <trkpt lat="43.535250" lon="-6.688916">
        <ele>77.120</ele>
        <time>2019-06-19T12:52:26Z</time>
      </trkpt>
      <trkpt lat="43.535202" lon="-6.689242">
        <ele>78.108</ele>
        <time>2019-06-19T12:52:27Z</time>
      </trkpt>
      <trkpt lat="43.535161" lon="-6.689568">
        <ele>79.722</ele>
        <time>2019-06-19T12:52:28Z</time>
      </trkpt>
      <trkpt lat="43.535121" lon="-6.689899">
        <ele>81.136</ele>
        <time>2019-06-19T12:52:29Z</time>
      </trkpt>
      <trkpt lat="43.535077" lon="-6.690225">
        <ele>81.367</ele>
        <time>2019-06-19T12:52:30Z</time>
      </trkpt>
      <trkpt lat="43.535042" lon="-6.690541">
        <ele>81.280</ele>
        <time>2019-06-19T12:52:31Z</time>
      </trkpt>
      <trkpt lat="43.535008" lon="-6.690835">
        <ele>80.060</ele>
        <time>2019-06-19T12:52:32Z</time>
      </trkpt>
      <trkpt lat="43.534986" lon="-6.691106">
        <ele>80.016</ele>
        <time>2019-06-19T12:52:33Z</time>
      </trkpt>
      <trkpt lat="43.534964" lon="-6.691361">
        <ele>80.214</ele>
        <time>2019-06-19T12:52:34Z</time>
      </trkpt>
      <trkpt lat="43.534945" lon="-6.691602">
        <ele>81.044</ele>
        <time>2019-06-19T12:52:35Z</time>
      </trkpt>
      <trkpt lat="43.534932" lon="-6.691772">
        <ele>81.275</ele>
        <time>2019-06-19T12:52:36Z</time>
      </trkpt>
      <trkpt lat="43.534915" lon="-6.691937">
        <ele>81.328</ele>
        <time>2019-06-19T12:52:37Z</time>
      </trkpt>
      <trkpt lat="43.534906" lon="-6.692101">
        <ele>81.120</ele>
        <time>2019-06-19T12:52:38Z</time>
      </trkpt>
      <trkpt lat="43.534896" lon="-6.692252">
        <ele>80.908</ele>
        <time>2019-06-19T12:52:39Z</time>
      </trkpt>
      <trkpt lat="43.534923" lon="-6.692382">
        <ele>80.470</ele>
        <time>2019-06-19T12:52:40Z</time>
      </trkpt>
      <trkpt lat="43.534938" lon="-6.692483">
        <ele>80.124</ele>
        <time>2019-06-19T12:52:41Z</time>
      </trkpt>
      <trkpt lat="43.534971" lon="-6.692614">
        <ele>79.655</ele>
        <time>2019-06-19T12:52:42Z</time>
      </trkpt>
      <trkpt lat="43.534994" lon="-6.692754">
        <ele>79.168</ele>
        <time>2019-06-19T12:52:43Z</time>
      </trkpt>
      <trkpt lat="43.535000" lon="-6.692892">
        <ele>79.098</ele>
        <time>2019-06-19T12:52:44Z</time>
      </trkpt>
      <trkpt lat="43.534993" lon="-6.693014">
        <ele>79.054</ele>
        <time>2019-06-19T12:52:45Z</time>
      </trkpt>
      <trkpt lat="43.534963" lon="-6.693145">
        <ele>79.442</ele>
        <time>2019-06-19T12:52:46Z</time>
      </trkpt>
      <trkpt lat="43.534906" lon="-6.693262">
        <ele>79.812</ele>
        <time>2019-06-19T12:52:47Z</time>
      </trkpt>
      <trkpt lat="43.534843" lon="-6.693364">
        <ele>80.083</ele>
        <time>2019-06-19T12:52:48Z</time>
      </trkpt>
      <trkpt lat="43.534788" lon="-6.693482">
        <ele>80.125</ele>
        <time>2019-06-19T12:52:49Z</time>
      </trkpt>
      <trkpt lat="43.534741" lon="-6.693618">
        <ele>80.117</ele>
        <time>2019-06-19T12:52:50Z</time>
      </trkpt>
      <trkpt lat="43.534690" lon="-6.693799">
        <ele>80.708</ele>
        <time>2019-06-19T12:52:51Z</time>
      </trkpt>
      <trkpt lat="43.534645" lon="-6.693986">
        <ele>81.051</ele>
        <time>2019-06-19T12:52:52Z</time>
      </trkpt>
      <trkpt lat="43.534597" lon="-6.694180">
        <ele>81.065</ele>
        <time>2019-06-19T12:52:53Z</time>
      </trkpt>
      <trkpt lat="43.534547" lon="-6.694379">
        <ele>81.066</ele>
        <time>2019-06-19T12:52:54Z</time>
      </trkpt>
      <trkpt lat="43.534497" lon="-6.694579">
        <ele>81.099</ele>
        <time>2019-06-19T12:52:55Z</time>
      </trkpt>
      <trkpt lat="43.534462" lon="-6.694865">
        <ele>81.599</ele>
        <time>2019-06-19T12:52:56Z</time>
      </trkpt>
      <trkpt lat="43.534426" lon="-6.695134">
        <ele>81.975</ele>
        <time>2019-06-19T12:52:57Z</time>
      </trkpt>
      <trkpt lat="43.534388" lon="-6.695402">
        <ele>82.013</ele>
        <time>2019-06-19T12:52:58Z</time>
      </trkpt>
      <trkpt lat="43.534352" lon="-6.695675">
        <ele>82.873</ele>
        <time>2019-06-19T12:52:59Z</time>
      </trkpt>
      <trkpt lat="43.534310" lon="-6.695949">
        <ele>83.015</ele>
        <time>2019-06-19T12:53:00Z</time>
      </trkpt>
      <trkpt lat="43.534272" lon="-6.696244">
        <ele>83.165</ele>
        <time>2019-06-19T12:53:01Z</time>
      </trkpt>
      <trkpt lat="43.534226" lon="-6.696533">
        <ele>83.611</ele>
        <time>2019-06-19T12:53:02Z</time>
      </trkpt>
      <trkpt lat="43.534184" lon="-6.696822">
        <ele>84.008</ele>
        <time>2019-06-19T12:53:03Z</time>
      </trkpt>
      <trkpt lat="43.534156" lon="-6.697112">
        <ele>83.344</ele>
        <time>2019-06-19T12:53:04Z</time>
      </trkpt>
      <trkpt lat="43.534115" lon="-6.697390">
        <ele>82.058</ele>
        <time>2019-06-19T12:53:05Z</time>
      </trkpt>
      <trkpt lat="43.534074" lon="-6.697667">
        <ele>80.979</ele>
        <time>2019-06-19T12:53:06Z</time>
      </trkpt>
      <trkpt lat="43.534038" lon="-6.697950">
        <ele>80.292</ele>
        <time>2019-06-19T12:53:07Z</time>
      </trkpt>
      <trkpt lat="43.534004" lon="-6.698235">
        <ele>80.212</ele>
        <time>2019-06-19T12:53:08Z</time>
      </trkpt>
      <trkpt lat="43.533966" lon="-6.698512">
        <ele>80.388</ele>
        <time>2019-06-19T12:53:09Z</time>
      </trkpt>
      <trkpt lat="43.533924" lon="-6.698775">
        <ele>80.626</ele>
        <time>2019-06-19T12:53:10Z</time>
      </trkpt>
      <trkpt lat="43.533891" lon="-6.699043">
        <ele>81.066</ele>
        <time>2019-06-19T12:53:11Z</time>
      </trkpt>
      <trkpt lat="43.533858" lon="-6.699297">
        <ele>81.458</ele>
        <time>2019-06-19T12:53:12Z</time>
      </trkpt>
      <trkpt lat="43.533821" lon="-6.699549">
        <ele>81.752</ele>
        <time>2019-06-19T12:53:13Z</time>
      </trkpt>
      <trkpt lat="43.533787" lon="-6.699787">
        <ele>81.317</ele>
        <time>2019-06-19T12:53:14Z</time>
      </trkpt>
      <trkpt lat="43.533749" lon="-6.700019">
        <ele>81.008</ele>
        <time>2019-06-19T12:53:15Z</time>
      </trkpt>
      <trkpt lat="43.533718" lon="-6.700232">
        <ele>80.848</ele>
        <time>2019-06-19T12:53:16Z</time>
      </trkpt>
      <trkpt lat="43.533697" lon="-6.700424">
        <ele>81.052</ele>
        <time>2019-06-19T12:53:17Z</time>
      </trkpt>
      <trkpt lat="43.533681" lon="-6.700589">
        <ele>81.373</ele>
        <time>2019-06-19T12:53:18Z</time>
      </trkpt>
      <trkpt lat="43.533666" lon="-6.700757">
        <ele>81.246</ele>
        <time>2019-06-19T12:53:19Z</time>
      </trkpt>
      <trkpt lat="43.533679" lon="-6.700859">
        <ele>81.376</ele>
        <time>2019-06-19T12:53:20Z</time>
      </trkpt>
      <trkpt lat="43.533689" lon="-6.700990">
        <ele>81.882</ele>
        <time>2019-06-19T12:53:21Z</time>
      </trkpt>
      <trkpt lat="43.533697" lon="-6.701125">
        <ele>82.320</ele>
        <time>2019-06-19T12:53:22Z</time>
      </trkpt>
      <trkpt lat="43.533667" lon="-6.701239">
        <ele>82.210</ele>
        <time>2019-06-19T12:53:23Z</time>
      </trkpt>
      <trkpt lat="43.533622" lon="-6.701358">
        <ele>82.096</ele>
        <time>2019-06-19T12:53:24Z</time>
      </trkpt>
      <trkpt lat="43.533569" lon="-6.701490">
        <ele>81.431</ele>
        <time>2019-06-19T12:53:25Z</time>
      </trkpt>
      <trkpt lat="43.533518" lon="-6.701647">
        <ele>80.724</ele>
        <time>2019-06-19T12:53:26Z</time>
      </trkpt>
      <trkpt lat="43.533482" lon="-6.701838">
        <ele>80.808</ele>
        <time>2019-06-19T12:53:27Z</time>
      </trkpt>
      <trkpt lat="43.533453" lon="-6.702071">
        <ele>81.072</ele>
        <time>2019-06-19T12:53:28Z</time>
      </trkpt>
      <trkpt lat="43.533423" lon="-6.702288">
        <ele>80.846</ele>
        <time>2019-06-19T12:53:29Z</time>
      </trkpt>
      <trkpt lat="43.533389" lon="-6.702533">
        <ele>80.077</ele>
        <time>2019-06-19T12:53:30Z</time>
      </trkpt>
      <trkpt lat="43.533353" lon="-6.702790">
        <ele>78.230</ele>
        <time>2019-06-19T12:53:31Z</time>
      </trkpt>
      <trkpt lat="43.533325" lon="-6.703030">
        <ele>77.920</ele>
        <time>2019-06-19T12:53:32Z</time>
      </trkpt>
      <trkpt lat="43.533286" lon="-6.703279">
        <ele>77.626</ele>
        <time>2019-06-19T12:53:33Z</time>
      </trkpt>
      <trkpt lat="43.533252" lon="-6.703524">
        <ele>77.924</ele>
        <time>2019-06-19T12:53:34Z</time>
      </trkpt>
      <trkpt lat="43.533217" lon="-6.703771">
        <ele>78.014</ele>
        <time>2019-06-19T12:53:35Z</time>
      </trkpt>
      <trkpt lat="43.533187" lon="-6.704040">
        <ele>78.251</ele>
        <time>2019-06-19T12:53:36Z</time>
      </trkpt>
      <trkpt lat="43.533152" lon="-6.704291">
        <ele>78.101</ele>
        <time>2019-06-19T12:53:37Z</time>
      </trkpt>
      <trkpt lat="43.533108" lon="-6.704567">
        <ele>77.311</ele>
        <time>2019-06-19T12:53:38Z</time>
      </trkpt>
      <trkpt lat="43.533072" lon="-6.704834">
        <ele>77.108</ele>
        <time>2019-06-19T12:53:39Z</time>
      </trkpt>
      <trkpt lat="43.533035" lon="-6.705106">
        <ele>76.818</ele>
        <time>2019-06-19T12:53:40Z</time>
      </trkpt>
      <trkpt lat="43.533000" lon="-6.705370">
        <ele>76.762</ele>
        <time>2019-06-19T12:53:41Z</time>
      </trkpt>
      <trkpt lat="43.532965" lon="-6.705628">
        <ele>76.913</ele>
        <time>2019-06-19T12:53:42Z</time>
      </trkpt>
      <trkpt lat="43.532939" lon="-6.705902">
        <ele>76.946</ele>
        <time>2019-06-19T12:53:43Z</time>
      </trkpt>
      <trkpt lat="43.532907" lon="-6.706174">
        <ele>76.326</ele>
        <time>2019-06-19T12:53:44Z</time>
      </trkpt>
      <trkpt lat="43.532897" lon="-6.706457">
        <ele>76.132</ele>
        <time>2019-06-19T12:53:45Z</time>
      </trkpt>
      <trkpt lat="43.532899" lon="-6.706729">
        <ele>76.210</ele>
        <time>2019-06-19T12:53:46Z</time>
      </trkpt>
      <trkpt lat="43.532922" lon="-6.707022">
        <ele>76.710</ele>
        <time>2019-06-19T12:53:47Z</time>
      </trkpt>
      <trkpt lat="43.532952" lon="-6.707300">
        <ele>77.328</ele>
        <time>2019-06-19T12:53:48Z</time>
      </trkpt>
      <trkpt lat="43.533002" lon="-6.707545">
        <ele>77.289</ele>
        <time>2019-06-19T12:53:49Z</time>
      </trkpt>
      <trkpt lat="43.533072" lon="-6.707786">
        <ele>76.017</ele>
        <time>2019-06-19T12:53:50Z</time>
      </trkpt>
      <trkpt lat="43.533144" lon="-6.708024">
        <ele>74.508</ele>
        <time>2019-06-19T12:53:51Z</time>
      </trkpt>
      <trkpt lat="43.533214" lon="-6.708273">
        <ele>72.745</ele>
        <time>2019-06-19T12:53:52Z</time>
      </trkpt>
      <trkpt lat="43.533286" lon="-6.708507">
        <ele>70.669</ele>
        <time>2019-06-19T12:53:53Z</time>
      </trkpt>
      <trkpt lat="43.533357" lon="-6.708747">
        <ele>69.390</ele>
        <time>2019-06-19T12:53:54Z</time>
      </trkpt>
      <trkpt lat="43.533427" lon="-6.708983">
        <ele>69.213</ele>
        <time>2019-06-19T12:53:55Z</time>
      </trkpt>
      <trkpt lat="43.533466" lon="-6.709253">
        <ele>71.283</ele>
        <time>2019-06-19T12:53:56Z</time>
      </trkpt>
      <trkpt lat="43.533485" lon="-6.709526">
        <ele>73.649</ele>
        <time>2019-06-19T12:53:57Z</time>
      </trkpt>
      <trkpt lat="43.533487" lon="-6.709803">
        <ele>74.427</ele>
        <time>2019-06-19T12:53:58Z</time>
      </trkpt>
      <trkpt lat="43.533461" lon="-6.710066">
        <ele>73.657</ele>
        <time>2019-06-19T12:53:59Z</time>
      </trkpt>
      <trkpt lat="43.533420" lon="-6.710341">
        <ele>72.126</ele>
        <time>2019-06-19T12:54:00Z</time>
      </trkpt>
      <trkpt lat="43.533347" lon="-6.710596">
        <ele>70.447</ele>
        <time>2019-06-19T12:54:01Z</time>
      </trkpt>
      <trkpt lat="43.533272" lon="-6.710844">
        <ele>69.811</ele>
        <time>2019-06-19T12:54:02Z</time>
      </trkpt>
      <trkpt lat="43.533191" lon="-6.711098">
        <ele>70.308</ele>
        <time>2019-06-19T12:54:03Z</time>
      </trkpt>
      <trkpt lat="43.533013" lon="-6.711269">
        <ele>68.545</ele>
        <time>2019-06-19T12:54:04Z</time>
      </trkpt>
      <trkpt lat="43.532876" lon="-6.711478">
        <ele>69.329</ele>
        <time>2019-06-19T12:54:05Z</time>
      </trkpt>
      <trkpt lat="43.532692" lon="-6.711658">
        <ele>69.080</ele>
        <time>2019-06-19T12:54:06Z</time>
      </trkpt>
      <trkpt lat="43.532517" lon="-6.711815">
        <ele>68.073</ele>
        <time>2019-06-19T12:54:07Z</time>
      </trkpt>
      <trkpt lat="43.532360" lon="-6.711978">
        <ele>66.423</ele>
        <time>2019-06-19T12:54:08Z</time>
      </trkpt>
      <trkpt lat="43.532214" lon="-6.712143">
        <ele>63.949</ele>
        <time>2019-06-19T12:54:09Z</time>
      </trkpt>
      <trkpt lat="43.532062" lon="-6.712319">
        <ele>62.087</ele>
        <time>2019-06-19T12:54:10Z</time>
      </trkpt>
      <trkpt lat="43.531913" lon="-6.712497">
        <ele>60.297</ele>
        <time>2019-06-19T12:54:11Z</time>
      </trkpt>
      <trkpt lat="43.531783" lon="-6.712674">
        <ele>58.599</ele>
        <time>2019-06-19T12:54:12Z</time>
      </trkpt>
      <trkpt lat="43.531712" lon="-6.712845">
        <ele>58.507</ele>
        <time>2019-06-19T12:54:13Z</time>
      </trkpt>
      <trkpt lat="43.531631" lon="-6.713054">
        <ele>58.127</ele>
        <time>2019-06-19T12:54:14Z</time>
      </trkpt>
      <trkpt lat="43.531600" lon="-6.713297">
        <ele>58.208</ele>
        <time>2019-06-19T12:54:15Z</time>
      </trkpt>
      <trkpt lat="43.531612" lon="-6.713563">
        <ele>58.272</ele>
        <time>2019-06-19T12:54:16Z</time>
      </trkpt>
      <trkpt lat="43.531644" lon="-6.713810">
        <ele>58.426</ele>
        <time>2019-06-19T12:54:17Z</time>
      </trkpt>
      <trkpt lat="43.531675" lon="-6.714065">
        <ele>57.527</ele>
        <time>2019-06-19T12:54:18Z</time>
      </trkpt>
      <trkpt lat="43.531701" lon="-6.714320">
        <ele>55.510</ele>
        <time>2019-06-19T12:54:19Z</time>
      </trkpt>
      <trkpt lat="43.531714" lon="-6.714584">
        <ele>53.770</ele>
        <time>2019-06-19T12:54:20Z</time>
      </trkpt>
      <trkpt lat="43.531699" lon="-6.714843">
        <ele>52.716</ele>
        <time>2019-06-19T12:54:21Z</time>
      </trkpt>
      <trkpt lat="43.531657" lon="-6.715098">
        <ele>51.684</ele>
        <time>2019-06-19T12:54:22Z</time>
      </trkpt>
      <trkpt lat="43.531611" lon="-6.715364">
        <ele>50.664</ele>
        <time>2019-06-19T12:54:23Z</time>
      </trkpt>
      <trkpt lat="43.531551" lon="-6.715625">
        <ele>50.252</ele>
        <time>2019-06-19T12:54:24Z</time>
      </trkpt>
      <trkpt lat="43.531471" lon="-6.715842">
        <ele>49.453</ele>
        <time>2019-06-19T12:54:25Z</time>
      </trkpt>
      <trkpt lat="43.531401" lon="-6.716110">
        <ele>47.408</ele>
        <time>2019-06-19T12:54:26Z</time>
      </trkpt>
      <trkpt lat="43.531346" lon="-6.716362">
        <ele>46.108</ele>
        <time>2019-06-19T12:54:27Z</time>
      </trkpt>
      <trkpt lat="43.531293" lon="-6.716625">
        <ele>44.118</ele>
        <time>2019-06-19T12:54:28Z</time>
      </trkpt>
      <trkpt lat="43.531265" lon="-6.716889">
        <ele>42.682</ele>
        <time>2019-06-19T12:54:29Z</time>
      </trkpt>
      <trkpt lat="43.531227" lon="-6.717152">
        <ele>40.923</ele>
        <time>2019-06-19T12:54:30Z</time>
      </trkpt>
      <trkpt lat="43.531311" lon="-6.717420">
        <ele>43.756</ele>
        <time>2019-06-19T12:54:31Z</time>
      </trkpt>
      <trkpt lat="43.531319" lon="-6.717645">
        <ele>44.846</ele>
        <time>2019-06-19T12:54:32Z</time>
      </trkpt>
      <trkpt lat="43.531327" lon="-6.717888">
        <ele>45.722</ele>
        <time>2019-06-19T12:54:33Z</time>
      </trkpt>
      <trkpt lat="43.531306" lon="-6.718120">
        <ele>44.730</ele>
        <time>2019-06-19T12:54:34Z</time>
      </trkpt>
      <trkpt lat="43.531281" lon="-6.718352">
        <ele>43.830</ele>
        <time>2019-06-19T12:54:35Z</time>
      </trkpt>
      <trkpt lat="43.531212" lon="-6.718645">
        <ele>41.644</ele>
        <time>2019-06-19T12:54:36Z</time>
      </trkpt>
      <trkpt lat="43.531094" lon="-6.718844">
        <ele>38.005</ele>
        <time>2019-06-19T12:54:37Z</time>
      </trkpt>
      <trkpt lat="43.531000" lon="-6.719077">
        <ele>35.815</ele>
        <time>2019-06-19T12:54:38Z</time>
      </trkpt>
      <trkpt lat="43.530878" lon="-6.719219">
        <ele>33.108</ele>
        <time>2019-06-19T12:54:39Z</time>
      </trkpt>
      <trkpt lat="43.530762" lon="-6.719414">
        <ele>31.697</ele>
        <time>2019-06-19T12:54:40Z</time>
      </trkpt>
      <trkpt lat="43.530666" lon="-6.719614">
        <ele>31.141</ele>
        <time>2019-06-19T12:54:41Z</time>
      </trkpt>
      <trkpt lat="43.530585" lon="-6.719814">
        <ele>30.152</ele>
        <time>2019-06-19T12:54:42Z</time>
      </trkpt>
      <trkpt lat="43.530509" lon="-6.720033">
        <ele>29.235</ele>
        <time>2019-06-19T12:54:43Z</time>
      </trkpt>
      <trkpt lat="43.530464" lon="-6.720218">
        <ele>27.625</ele>
        <time>2019-06-19T12:54:44Z</time>
      </trkpt>
      <trkpt lat="43.530552" lon="-6.720533">
        <ele>29.091</ele>
        <time>2019-06-19T12:54:45Z</time>
      </trkpt>
      <trkpt lat="43.530581" lon="-6.720784">
        <ele>24.859</ele>
        <time>2019-06-19T12:54:46Z</time>
      </trkpt>
      <trkpt lat="43.530619" lon="-6.721014">
        <ele>21.859</ele>
        <time>2019-06-19T12:54:47Z</time>
      </trkpt>
      <trkpt lat="43.530663" lon="-6.721274">
        <ele>18.895</ele>
        <time>2019-06-19T12:54:48Z</time>
      </trkpt>
      <trkpt lat="43.530736" lon="-6.721492">
        <ele>17.749</ele>
        <time>2019-06-19T12:54:49Z</time>
      </trkpt>
      <trkpt lat="43.530887" lon="-6.721806">
        <ele>17.023</ele>
        <time>2019-06-19T12:54:50Z</time>
      </trkpt>
      <trkpt lat="43.531060" lon="-6.721947">
        <ele>19.708</ele>
        <time>2019-06-19T12:54:51Z</time>
      </trkpt>
      <trkpt lat="43.531191" lon="-6.722171">
        <ele>19.452</ele>
        <time>2019-06-19T12:54:52Z</time>
      </trkpt>
      <trkpt lat="43.531310" lon="-6.722380">
        <ele>19.056</ele>
        <time>2019-06-19T12:54:53Z</time>
      </trkpt>
      <trkpt lat="43.531431" lon="-6.722577">
        <ele>17.937</ele>
        <time>2019-06-19T12:54:54Z</time>
      </trkpt>
      <trkpt lat="43.531567" lon="-6.722760">
        <ele>15.910</ele>
        <time>2019-06-19T12:54:55Z</time>
      </trkpt>
      <trkpt lat="43.531708" lon="-6.722937">
        <ele>13.890</ele>
        <time>2019-06-19T12:54:56Z</time>
      </trkpt>
      <trkpt lat="43.531853" lon="-6.723088">
        <ele>13.446</ele>
        <time>2019-06-19T12:54:57Z</time>
      </trkpt>
      <trkpt lat="43.532027" lon="-6.723194">
        <ele>13.984</ele>
        <time>2019-06-19T12:54:58Z</time>
      </trkpt>
      <trkpt lat="43.532195" lon="-6.723278">
        <ele>13.964</ele>
        <time>2019-06-19T12:54:59Z</time>
      </trkpt>
      <trkpt lat="43.532304" lon="-6.723316">
        <ele>13.471</ele>
        <time>2019-06-19T12:55:00Z</time>
      </trkpt>
      <trkpt lat="43.532488" lon="-6.723365">
        <ele>12.441</ele>
        <time>2019-06-19T12:55:01Z</time>
      </trkpt>
      <trkpt lat="43.532666" lon="-6.723391">
        <ele>10.915</ele>
        <time>2019-06-19T12:55:02Z</time>
      </trkpt>
      <trkpt lat="43.532830" lon="-6.723392">
        <ele>9.708</ele>
        <time>2019-06-19T12:55:03Z</time>
      </trkpt>
      <trkpt lat="43.532983" lon="-6.723436">
        <ele>7.830</ele>
        <time>2019-06-19T12:55:04Z</time>
      </trkpt>
      <trkpt lat="43.533129" lon="-6.723445">
        <ele>7.094</ele>
        <time>2019-06-19T12:55:05Z</time>
      </trkpt>
      <trkpt lat="43.533283" lon="-6.723489">
        <ele>6.265</ele>
        <time>2019-06-19T12:55:06Z</time>
      </trkpt>
      <trkpt lat="43.533443" lon="-6.723534">
        <ele>4.858</ele>
        <time>2019-06-19T12:55:07Z</time>
      </trkpt>
      <trkpt lat="43.533575" lon="-6.723550">
        <ele>3.818</ele>
        <time>2019-06-19T12:55:08Z</time>
      </trkpt>
      <trkpt lat="43.533728" lon="-6.723588">
        <ele>2.814</ele>
        <time>2019-06-19T12:55:09Z</time>
      </trkpt>
      <trkpt lat="43.533874" lon="-6.723621">
        <ele>2.172</ele>
        <time>2019-06-19T12:55:10Z</time>
      </trkpt>
      <trkpt lat="43.534016" lon="-6.723659">
        <ele>1.622</ele>
        <time>2019-06-19T12:55:11Z</time>
      </trkpt>
      <trkpt lat="43.534184" lon="-6.723709">
        <ele>1.595</ele>
        <time>2019-06-19T12:55:12Z</time>
      </trkpt>
      <trkpt lat="43.534324" lon="-6.723753">
        <ele>2.449</ele>
        <time>2019-06-19T12:55:13Z</time>
      </trkpt>
      <trkpt lat="43.534467" lon="-6.723785">
        <ele>3.023</ele>
        <time>2019-06-19T12:55:14Z</time>
      </trkpt>
      <trkpt lat="43.534621" lon="-6.723821">
        <ele>3.208</ele>
        <time>2019-06-19T12:55:15Z</time>
      </trkpt>
      <trkpt lat="43.534768" lon="-6.723855">
        <ele>3.052</ele>
        <time>2019-06-19T12:55:16Z</time>
      </trkpt>
      <trkpt lat="43.534925" lon="-6.723905">
        <ele>2.216</ele>
        <time>2019-06-19T12:55:17Z</time>
      </trkpt>
      <trkpt lat="43.535069" lon="-6.723933">
        <ele>1.837</ele>
        <time>2019-06-19T12:55:18Z</time>
      </trkpt>
      <trkpt lat="43.535215" lon="-6.723960">
        <ele>1.730</ele>
        <time>2019-06-19T12:55:19Z</time>
      </trkpt>
      <trkpt lat="43.535354" lon="-6.723988">
        <ele>2.080</ele>
        <time>2019-06-19T12:55:20Z</time>
      </trkpt>
      <trkpt lat="43.535463" lon="-6.724043">
        <ele>2.566</ele>
        <time>2019-06-19T12:55:21Z</time>
      </trkpt>
      <trkpt lat="43.535592" lon="-6.724080">
        <ele>3.024</ele>
        <time>2019-06-19T12:55:22Z</time>
      </trkpt>
      <trkpt lat="43.535746" lon="-6.724111">
        <ele>2.664</ele>
        <time>2019-06-19T12:55:23Z</time>
      </trkpt>
      <trkpt lat="43.535863" lon="-6.724147">
        <ele>2.274</ele>
        <time>2019-06-19T12:55:24Z</time>
      </trkpt>
      <trkpt lat="43.535972" lon="-6.724182">
        <ele>2.456</ele>
        <time>2019-06-19T12:55:25Z</time>
      </trkpt>
      <trkpt lat="43.536083" lon="-6.724215">
        <ele>2.621</ele>
        <time>2019-06-19T12:55:26Z</time>
      </trkpt>
      <trkpt lat="43.536185" lon="-6.724243">
        <ele>2.508</ele>
        <time>2019-06-19T12:55:27Z</time>
      </trkpt>
      <trkpt lat="43.536286" lon="-6.724261">
        <ele>2.540</ele>
        <time>2019-06-19T12:55:28Z</time>
      </trkpt>
      <trkpt lat="43.536373" lon="-6.724306">
        <ele>2.544</ele>
        <time>2019-06-19T12:55:29Z</time>
      </trkpt>
      <trkpt lat="43.536453" lon="-6.724330">
        <ele>2.625</ele>
        <time>2019-06-19T12:55:30Z</time>
      </trkpt>
      <trkpt lat="43.536535" lon="-6.724353">
        <ele>2.948</ele>
        <time>2019-06-19T12:55:31Z</time>
      </trkpt>
      <trkpt lat="43.536597" lon="-6.724380">
        <ele>3.018</ele>
        <time>2019-06-19T12:55:32Z</time>
      </trkpt>
      <trkpt lat="43.536675" lon="-6.724379">
        <ele>3.354</ele>
        <time>2019-06-19T12:55:33Z</time>
      </trkpt>
      <trkpt lat="43.536735" lon="-6.724413">
        <ele>3.332</ele>
        <time>2019-06-19T12:55:34Z</time>
      </trkpt>
      <trkpt lat="43.536813" lon="-6.724427">
        <ele>3.652</ele>
        <time>2019-06-19T12:55:35Z</time>
      </trkpt>
      <trkpt lat="43.536878" lon="-6.724445">
        <ele>3.869</ele>
        <time>2019-06-19T12:55:36Z</time>
      </trkpt>
      <trkpt lat="43.536946" lon="-6.724468">
        <ele>3.904</ele>
        <time>2019-06-19T12:55:37Z</time>
      </trkpt>
      <trkpt lat="43.537014" lon="-6.724495">
        <ele>3.624</ele>
        <time>2019-06-19T12:55:38Z</time>
      </trkpt>
      <trkpt lat="43.537075" lon="-6.724523">
        <ele>3.208</ele>
        <time>2019-06-19T12:55:39Z</time>
      </trkpt>
      <trkpt lat="43.537128" lon="-6.724562">
        <ele>2.999</ele>
        <time>2019-06-19T12:55:40Z</time>
      </trkpt>
      <trkpt lat="43.537224" lon="-6.724589">
        <ele>2.543</ele>
        <time>2019-06-19T12:55:42Z</time>
      </trkpt>
      <trkpt lat="43.537288" lon="-6.724618">
        <ele>2.074</ele>
        <time>2019-06-19T12:55:43Z</time>
      </trkpt>
      <trkpt lat="43.537346" lon="-6.724632">
        <ele>1.777</ele>
        <time>2019-06-19T12:55:44Z</time>
      </trkpt>
      <trkpt lat="43.537422" lon="-6.724613">
        <ele>1.487</ele>
        <time>2019-06-19T12:55:45Z</time>
      </trkpt>
      <trkpt lat="43.537486" lon="-6.724638">
        <ele>1.173</ele>
        <time>2019-06-19T12:55:46Z</time>
      </trkpt>
      <trkpt lat="43.537541" lon="-6.724623">
        <ele>0.971</ele>
        <time>2019-06-19T12:55:47Z</time>
      </trkpt>
      <trkpt lat="43.537610" lon="-6.724637">
        <ele>0.771</ele>
        <time>2019-06-19T12:55:48Z</time>
      </trkpt>
      <trkpt lat="43.537672" lon="-6.724646">
        <ele>0.621</ele>
        <time>2019-06-19T12:55:49Z</time>
      </trkpt>
      <trkpt lat="43.537738" lon="-6.724663">
        <ele>0.341</ele>
        <time>2019-06-19T12:55:50Z</time>
      </trkpt>
      <trkpt lat="43.537821" lon="-6.724636">
        <ele>0.605</ele>
        <time>2019-06-19T12:55:51Z</time>
      </trkpt>
      <trkpt lat="43.537894" lon="-6.724624">
        <ele>1.208</ele>
        <time>2019-06-19T12:55:52Z</time>
      </trkpt>
      <trkpt lat="43.537968" lon="-6.724699">
        <ele>1.555</ele>
        <time>2019-06-19T12:55:53Z</time>
      </trkpt>
      <trkpt lat="43.538036" lon="-6.724696">
        <ele>2.069</ele>
        <time>2019-06-19T12:55:54Z</time>
      </trkpt>
      <trkpt lat="43.538093" lon="-6.724697">
        <ele>2.680</ele>
        <time>2019-06-19T12:55:55Z</time>
      </trkpt>
      <trkpt lat="43.538164" lon="-6.724705">
        <ele>3.623</ele>
        <time>2019-06-19T12:55:56Z</time>
      </trkpt>
      <trkpt lat="43.538241" lon="-6.724711">
        <ele>4.773</ele>
        <time>2019-06-19T12:55:57Z</time>
      </trkpt>
      <trkpt lat="43.538310" lon="-6.724730">
        <ele>5.699</ele>
        <time>2019-06-19T12:55:58Z</time>
      </trkpt>
      <trkpt lat="43.538364" lon="-6.724761">
        <ele>5.997</ele>
        <time>2019-06-19T12:55:59Z</time>
      </trkpt>
      <trkpt lat="43.538412" lon="-6.724782">
        <ele>6.167</ele>
        <time>2019-06-19T12:56:00Z</time>
      </trkpt>
      <trkpt lat="43.538464" lon="-6.724799">
        <ele>6.321</ele>
        <time>2019-06-19T12:56:01Z</time>
      </trkpt>
      <trkpt lat="43.538510" lon="-6.724802">
        <ele>6.541</ele>
        <time>2019-06-19T12:56:02Z</time>
      </trkpt>
      <trkpt lat="43.538604" lon="-6.724797">
        <ele>7.105</ele>
        <time>2019-06-19T12:56:03Z</time>
      </trkpt>
      <trkpt lat="43.538679" lon="-6.724829">
        <ele>6.708</ele>
        <time>2019-06-19T12:56:04Z</time>
      </trkpt>
      <trkpt lat="43.538777" lon="-6.724847">
        <ele>6.145</ele>
        <time>2019-06-19T12:56:05Z</time>
      </trkpt>
      <trkpt lat="43.538862" lon="-6.724850">
        <ele>5.849</ele>
        <time>2019-06-19T12:56:06Z</time>
      </trkpt>
      <trkpt lat="43.538935" lon="-6.724835">
        <ele>5.960</ele>
        <time>2019-06-19T12:56:07Z</time>
      </trkpt>
      <trkpt lat="43.539006" lon="-6.724834">
        <ele>5.783</ele>
        <time>2019-06-19T12:56:08Z</time>
      </trkpt>
      <trkpt lat="43.539055" lon="-6.724828">
        <ele>5.713</ele>
        <time>2019-06-19T12:56:09Z</time>
      </trkpt>
      <trkpt lat="43.539125" lon="-6.724784">
        <ele>6.259</ele>
        <time>2019-06-19T12:56:10Z</time>
      </trkpt>
      <trkpt lat="43.539203" lon="-6.724782">
        <ele>6.337</ele>
        <time>2019-06-19T12:56:12Z</time>
      </trkpt>
      <trkpt lat="43.539281" lon="-6.724748">
        <ele>7.027</ele>
        <time>2019-06-19T12:56:13Z</time>
      </trkpt>
      <trkpt lat="43.539344" lon="-6.724748">
        <ele>7.348</ele>
        <time>2019-06-19T12:56:14Z</time>
      </trkpt>
      <trkpt lat="43.539417" lon="-6.724710">
        <ele>8.261</ele>
        <time>2019-06-19T12:56:16Z</time>
      </trkpt>
      <trkpt lat="43.539497" lon="-6.724713">
        <ele>8.017</ele>
        <time>2019-06-19T12:56:18Z</time>
      </trkpt>
      <trkpt lat="43.539569" lon="-6.724661">
        <ele>8.508</ele>
        <time>2019-06-19T12:56:20Z</time>
      </trkpt>
      <trkpt lat="43.539620" lon="-6.724565">
        <ele>9.317</ele>
        <time>2019-06-19T12:56:22Z</time>
      </trkpt>
      <trkpt lat="43.539652" lon="-6.724512">
        <ele>9.531</ele>
        <time>2019-06-19T12:56:23Z</time>
      </trkpt>
      <trkpt lat="43.539688" lon="-6.724472">
        <ele>9.482</ele>
        <time>2019-06-19T12:56:24Z</time>
      </trkpt>
      <trkpt lat="43.539747" lon="-6.724455">
        <ele>8.775</ele>
        <time>2019-06-19T12:56:25Z</time>
      </trkpt>
      <trkpt lat="43.539798" lon="-6.724477">
        <ele>8.015</ele>
        <time>2019-06-19T12:56:26Z</time>
      </trkpt>
      <trkpt lat="43.539887" lon="-6.724541">
        <ele>6.721</ele>
        <time>2019-06-19T12:56:28Z</time>
      </trkpt>
      <trkpt lat="43.539943" lon="-6.724565">
        <ele>6.179</ele>
        <time>2019-06-19T12:56:29Z</time>
      </trkpt>
      <trkpt lat="43.540030" lon="-6.724584">
        <ele>5.439</ele>
        <time>2019-06-19T12:56:30Z</time>
      </trkpt>
      <trkpt lat="43.540093" lon="-6.724586">
        <ele>5.283</ele>
        <time>2019-06-19T12:56:31Z</time>
      </trkpt>
      <trkpt lat="43.540144" lon="-6.724585">
        <ele>5.025</ele>
        <time>2019-06-19T12:56:32Z</time>
      </trkpt>
      <trkpt lat="43.540214" lon="-6.724585">
        <ele>4.717</ele>
        <time>2019-06-19T12:56:33Z</time>
      </trkpt>
      <trkpt lat="43.540304" lon="-6.724560">
        <ele>4.608</ele>
        <time>2019-06-19T12:56:35Z</time>
      </trkpt>
      <trkpt lat="43.540357" lon="-6.724540">
        <ele>4.851</ele>
        <time>2019-06-19T12:56:36Z</time>
      </trkpt>
      <trkpt lat="43.540412" lon="-6.724526">
        <ele>4.855</ele>
        <time>2019-06-19T12:56:37Z</time>
      </trkpt>
      <trkpt lat="43.540493" lon="-6.724530">
        <ele>4.926</ele>
        <time>2019-06-19T12:56:38Z</time>
      </trkpt>
      <trkpt lat="43.540564" lon="-6.724513">
        <ele>5.049</ele>
        <time>2019-06-19T12:56:39Z</time>
      </trkpt>
      <trkpt lat="43.540637" lon="-6.724489">
        <ele>5.089</ele>
        <time>2019-06-19T12:56:40Z</time>
      </trkpt>
      <trkpt lat="43.540713" lon="-6.724472">
        <ele>4.925</ele>
        <time>2019-06-19T12:56:41Z</time>
      </trkpt>
      <trkpt lat="43.540787" lon="-6.724453">
        <ele>5.073</ele>
        <time>2019-06-19T12:56:42Z</time>
      </trkpt>
      <trkpt lat="43.540899" lon="-6.724467">
        <ele>4.443</ele>
        <time>2019-06-19T12:56:43Z</time>
      </trkpt>
      <trkpt lat="43.540988" lon="-6.724454">
        <ele>3.962</ele>
        <time>2019-06-19T12:56:44Z</time>
      </trkpt>
      <trkpt lat="43.541083" lon="-6.724440">
        <ele>3.283</ele>
        <time>2019-06-19T12:56:45Z</time>
      </trkpt>
      <trkpt lat="43.541167" lon="-6.724472">
        <ele>2.711</ele>
        <time>2019-06-19T12:56:46Z</time>
      </trkpt>
      <trkpt lat="43.541228" lon="-6.724543">
        <ele>2.208</ele>
        <time>2019-06-19T12:56:47Z</time>
      </trkpt>
      <trkpt lat="43.541283" lon="-6.724619">
        <ele>1.899</ele>
        <time>2019-06-19T12:56:48Z</time>
      </trkpt>
      <trkpt lat="43.541342" lon="-6.724702">
        <ele>1.283</ele>
        <time>2019-06-19T12:56:49Z</time>
      </trkpt>
      <trkpt lat="43.541385" lon="-6.724799">
        <ele>1.054</ele>
        <time>2019-06-19T12:56:50Z</time>
      </trkpt>
      <trkpt lat="43.541425" lon="-6.724925">
        <ele>1.067</ele>
        <time>2019-06-19T12:56:51Z</time>
      </trkpt>
      <trkpt lat="43.541468" lon="-6.725064">
        <ele>0.827</ele>
        <time>2019-06-19T12:56:52Z</time>
      </trkpt>
      <trkpt lat="43.541521" lon="-6.725204">
        <ele>0.373</ele>
        <time>2019-06-19T12:56:53Z</time>
      </trkpt>
      <trkpt lat="43.541565" lon="-6.725344">
        <ele>0.091</ele>
        <time>2019-06-19T12:56:54Z</time>
      </trkpt>
      <trkpt lat="43.541605" lon="-6.725503">
        <ele>0.061</ele>
        <time>2019-06-19T12:56:55Z</time>
      </trkpt>
      <trkpt lat="43.541660" lon="-6.725648">
        <ele>0.043</ele>
        <time>2019-06-19T12:56:56Z</time>
      </trkpt>
      <trkpt lat="43.541713" lon="-6.725812">
        <ele>0.064</ele>
        <time>2019-06-19T12:56:57Z</time>
      </trkpt>
      <trkpt lat="43.541774" lon="-6.725983">
        <ele>0.010</ele>
        <time>2019-06-19T12:56:58Z</time>
      </trkpt>
      <trkpt lat="43.541831" lon="-6.726133">
        <ele>0.008</ele>
        <time>2019-06-19T12:56:59Z</time>
      </trkpt>
      <trkpt lat="43.541887" lon="-6.726306">
        <ele>0.047</ele>
        <time>2019-06-19T12:57:00Z</time>
      </trkpt>
      <trkpt lat="43.541949" lon="-6.726476">
        <ele>1.311</ele>
        <time>2019-06-19T12:57:01Z</time>
      </trkpt>
      <trkpt lat="43.542002" lon="-6.726662">
        <ele>4.122</ele>
        <time>2019-06-19T12:57:02Z</time>
      </trkpt>
      <trkpt lat="43.542060" lon="-6.726841">
        <ele>5.765</ele>
        <time>2019-06-19T12:57:03Z</time>
      </trkpt>
      <trkpt lat="43.542118" lon="-6.727013">
        <ele>6.835</ele>
        <time>2019-06-19T12:57:04Z</time>
      </trkpt>
      <trkpt lat="43.542175" lon="-6.727185">
        <ele>7.111</ele>
        <time>2019-06-19T12:57:05Z</time>
      </trkpt>
      <trkpt lat="43.542235" lon="-6.727355">
        <ele>6.579</ele>
        <time>2019-06-19T12:57:06Z</time>
      </trkpt>
      <trkpt lat="43.542305" lon="-6.727528">
        <ele>6.099</ele>
        <time>2019-06-19T12:57:07Z</time>
      </trkpt>
      <trkpt lat="43.542371" lon="-6.727702">
        <ele>6.476</ele>
        <time>2019-06-19T12:57:08Z</time>
      </trkpt>
      <trkpt lat="43.542447" lon="-6.727857">
        <ele>7.190</ele>
        <time>2019-06-19T12:57:09Z</time>
      </trkpt>
      <trkpt lat="43.542523" lon="-6.728004">
        <ele>8.019</ele>
        <time>2019-06-19T12:57:10Z</time>
      </trkpt>
      <trkpt lat="43.542617" lon="-6.728145">
        <ele>9.508</ele>
        <time>2019-06-19T12:57:11Z</time>
      </trkpt>
      <trkpt lat="43.542694" lon="-6.728273">
        <ele>11.050</ele>
        <time>2019-06-19T12:57:12Z</time>
      </trkpt>
      <trkpt lat="43.542785" lon="-6.728358">
        <ele>12.284</ele>
        <time>2019-06-19T12:57:13Z</time>
      </trkpt>
      <trkpt lat="43.542874" lon="-6.728439">
        <ele>13.545</ele>
        <time>2019-06-19T12:57:14Z</time>
      </trkpt>
      <trkpt lat="43.542986" lon="-6.728468">
        <ele>14.558</ele>
        <time>2019-06-19T12:57:15Z</time>
      </trkpt>
      <trkpt lat="43.543070" lon="-6.728456">
        <ele>14.878</ele>
        <time>2019-06-19T12:57:16Z</time>
      </trkpt>
      <trkpt lat="43.543173" lon="-6.728497">
        <ele>14.364</ele>
        <time>2019-06-19T12:57:17Z</time>
      </trkpt>
      <trkpt lat="43.543262" lon="-6.728494">
        <ele>13.742</ele>
        <time>2019-06-19T12:57:18Z</time>
      </trkpt>
      <trkpt lat="43.543371" lon="-6.728514">
        <ele>13.142</ele>
        <time>2019-06-19T12:57:19Z</time>
      </trkpt>
      <trkpt lat="43.543474" lon="-6.728544">
        <ele>12.844</ele>
        <time>2019-06-19T12:57:20Z</time>
      </trkpt>
      <trkpt lat="43.543587" lon="-6.728597">
        <ele>12.905</ele>
        <time>2019-06-19T12:57:21Z</time>
      </trkpt>
      <trkpt lat="43.543690" lon="-6.728660">
        <ele>13.515</ele>
        <time>2019-06-19T12:57:22Z</time>
      </trkpt>
      <trkpt lat="43.543800" lon="-6.728705">
        <ele>14.008</ele>
        <time>2019-06-19T12:57:23Z</time>
      </trkpt>
      <trkpt lat="43.543913" lon="-6.728752">
        <ele>14.567</ele>
        <time>2019-06-19T12:57:24Z</time>
      </trkpt>
      <trkpt lat="43.544023" lon="-6.728794">
        <ele>14.871</ele>
        <time>2019-06-19T12:57:25Z</time>
      </trkpt>
      <trkpt lat="43.544144" lon="-6.728837">
        <ele>15.322</ele>
        <time>2019-06-19T12:57:26Z</time>
      </trkpt>
      <trkpt lat="43.544261" lon="-6.728881">
        <ele>15.955</ele>
        <time>2019-06-19T12:57:27Z</time>
      </trkpt>
      <trkpt lat="43.544414" lon="-6.728972">
        <ele>17.525</ele>
        <time>2019-06-19T12:57:28Z</time>
      </trkpt>
      <trkpt lat="43.544545" lon="-6.729060">
        <ele>18.991</ele>
        <time>2019-06-19T12:57:29Z</time>
      </trkpt>
      <trkpt lat="43.544674" lon="-6.729154">
        <ele>20.779</ele>
        <time>2019-06-19T12:57:30Z</time>
      </trkpt>
      <trkpt lat="43.544817" lon="-6.729310">
        <ele>23.249</ele>
        <time>2019-06-19T12:57:31Z</time>
      </trkpt>
      <trkpt lat="43.544930" lon="-6.729476">
        <ele>24.975</ele>
        <time>2019-06-19T12:57:32Z</time>
      </trkpt>
      <trkpt lat="43.545043" lon="-6.729647">
        <ele>26.028</ele>
        <time>2019-06-19T12:57:33Z</time>
      </trkpt>
      <trkpt lat="43.545144" lon="-6.729832">
        <ele>27.320</ele>
        <time>2019-06-19T12:57:34Z</time>
      </trkpt>
      <trkpt lat="43.545210" lon="-6.730056">
        <ele>28.208</ele>
        <time>2019-06-19T12:57:35Z</time>
      </trkpt>
      <trkpt lat="43.545257" lon="-6.730287">
        <ele>27.380</ele>
        <time>2019-06-19T12:57:36Z</time>
      </trkpt>
      <trkpt lat="43.545294" lon="-6.730531">
        <ele>25.674</ele>
        <time>2019-06-19T12:57:37Z</time>
      </trkpt>
      <trkpt lat="43.545277" lon="-6.730798">
        <ele>27.835</ele>
        <time>2019-06-19T12:57:38Z</time>
      </trkpt>
      <trkpt lat="43.545274" lon="-6.731064">
        <ele>28.148</ele>
        <time>2019-06-19T12:57:39Z</time>
      </trkpt>
      <trkpt lat="43.545228" lon="-6.731327">
        <ele>28.658</ele>
        <time>2019-06-19T12:57:40Z</time>
      </trkpt>
      <trkpt lat="43.545178" lon="-6.731611">
        <ele>28.074</ele>
        <time>2019-06-19T12:57:41Z</time>
      </trkpt>
      <trkpt lat="43.545117" lon="-6.731882">
        <ele>28.792</ele>
        <time>2019-06-19T12:57:42Z</time>
      </trkpt>
      <trkpt lat="43.545029" lon="-6.732102">
        <ele>30.692</ele>
        <time>2019-06-19T12:57:43Z</time>
      </trkpt>
      <trkpt lat="43.544953" lon="-6.732375">
        <ele>31.266</ele>
        <time>2019-06-19T12:57:44Z</time>
      </trkpt>
      <trkpt lat="43.544868" lon="-6.732644">
        <ele>33.029</ele>
        <time>2019-06-19T12:57:45Z</time>
      </trkpt>
      <trkpt lat="43.544787" lon="-6.732921">
        <ele>34.221</ele>
        <time>2019-06-19T12:57:46Z</time>
      </trkpt>
      <trkpt lat="43.544700" lon="-6.733183">
        <ele>35.708</ele>
        <time>2019-06-19T12:57:47Z</time>
      </trkpt>
      <trkpt lat="43.544614" lon="-6.733455">
        <ele>38.829</ele>
        <time>2019-06-19T12:57:48Z</time>
      </trkpt>
      <trkpt lat="43.544535" lon="-6.733781">
        <ele>41.743</ele>
        <time>2019-06-19T12:57:49Z</time>
      </trkpt>
      <trkpt lat="43.544456" lon="-6.734077">
        <ele>43.534</ele>
        <time>2019-06-19T12:57:50Z</time>
      </trkpt>
      <trkpt lat="43.544390" lon="-6.734410">
        <ele>47.937</ele>
        <time>2019-06-19T12:57:51Z</time>
      </trkpt>
      <trkpt lat="43.544305" lon="-6.734718">
        <ele>51.587</ele>
        <time>2019-06-19T12:57:52Z</time>
      </trkpt>
      <trkpt lat="43.544243" lon="-6.735041">
        <ele>50.533</ele>
        <time>2019-06-19T12:57:53Z</time>
      </trkpt>
      <trkpt lat="43.544220" lon="-6.735373">
        <ele>48.551</ele>
        <time>2019-06-19T12:57:54Z</time>
      </trkpt>
      <trkpt lat="43.544162" lon="-6.735692">
        <ele>49.271</ele>
        <time>2019-06-19T12:57:55Z</time>
      </trkpt>
      <trkpt lat="43.544110" lon="-6.736003">
        <ele>49.639</ele>
        <time>2019-06-19T12:57:56Z</time>
      </trkpt>
      <trkpt lat="43.544047" lon="-6.736306">
        <ele>49.201</ele>
        <time>2019-06-19T12:57:57Z</time>
      </trkpt>
      <trkpt lat="43.543975" lon="-6.736594">
        <ele>47.621</ele>
        <time>2019-06-19T12:57:58Z</time>
      </trkpt>
      <trkpt lat="43.543834" lon="-6.736824">
        <ele>48.508</ele>
        <time>2019-06-19T12:57:59Z</time>
      </trkpt>
      <trkpt lat="43.543698" lon="-6.737081">
        <ele>47.436</ele>
        <time>2019-06-19T12:58:00Z</time>
      </trkpt>
      <trkpt lat="43.543598" lon="-6.737301">
        <ele>45.390</ele>
        <time>2019-06-19T12:58:01Z</time>
      </trkpt>
      <trkpt lat="43.543474" lon="-6.737537">
        <ele>43.811</ele>
        <time>2019-06-19T12:58:02Z</time>
      </trkpt>
      <trkpt lat="43.543241" lon="-6.737773">
        <ele>44.454</ele>
        <time>2019-06-19T12:58:03Z</time>
      </trkpt>
      <trkpt lat="43.543091" lon="-6.738001">
        <ele>45.114</ele>
        <time>2019-06-19T12:58:04Z</time>
      </trkpt>
      <trkpt lat="43.542956" lon="-6.738216">
        <ele>46.240</ele>
        <time>2019-06-19T12:58:05Z</time>
      </trkpt>
      <trkpt lat="43.542817" lon="-6.738451">
        <ele>47.048</ele>
        <time>2019-06-19T12:58:06Z</time>
      </trkpt>
      <trkpt lat="43.542715" lon="-6.738732">
        <ele>47.778</ele>
        <time>2019-06-19T12:58:07Z</time>
      </trkpt>
      <trkpt lat="43.542612" lon="-6.739010">
        <ele>48.257</ele>
        <time>2019-06-19T12:58:08Z</time>
      </trkpt>
      <trkpt lat="43.542535" lon="-6.739269">
        <ele>48.900</ele>
        <time>2019-06-19T12:58:09Z</time>
      </trkpt>
      <trkpt lat="43.542473" lon="-6.739514">
        <ele>50.320</ele>
        <time>2019-06-19T12:58:10Z</time>
      </trkpt>
      <trkpt lat="43.542419" lon="-6.739745">
        <ele>51.108</ele>
        <time>2019-06-19T12:58:11Z</time>
      </trkpt>
      <trkpt lat="43.542390" lon="-6.739938">
        <ele>51.538</ele>
        <time>2019-06-19T12:58:12Z</time>
      </trkpt>
      <trkpt lat="43.542368" lon="-6.740115">
        <ele>51.952</ele>
        <time>2019-06-19T12:58:13Z</time>
      </trkpt>
      <trkpt lat="43.542340" lon="-6.740300">
        <ele>52.563</ele>
        <time>2019-06-19T12:58:14Z</time>
      </trkpt>
      <trkpt lat="43.542328" lon="-6.740416">
        <ele>52.946</ele>
        <time>2019-06-19T12:58:15Z</time>
      </trkpt>
      <trkpt lat="43.542309" lon="-6.740527">
        <ele>53.226</ele>
        <time>2019-06-19T12:58:16Z</time>
      </trkpt>
      <trkpt lat="43.542276" lon="-6.740639">
        <ele>53.292</ele>
        <time>2019-06-19T12:58:18Z</time>
      </trkpt>
      <trkpt lat="43.542265" lon="-6.740728">
        <ele>53.290</ele>
        <time>2019-06-19T12:58:19Z</time>
      </trkpt>
      <trkpt lat="43.542270" lon="-6.740799">
        <ele>53.280</ele>
        <time>2019-06-19T12:58:20Z</time>
      </trkpt>
      <trkpt lat="43.542260" lon="-6.740869">
        <ele>53.067</ele>
        <time>2019-06-19T12:58:21Z</time>
      </trkpt>
      <trkpt lat="43.542265" lon="-6.740994">
        <ele>52.781</ele>
        <time>2019-06-19T12:58:23Z</time>
      </trkpt>
      <trkpt lat="43.542280" lon="-6.741061">
        <ele>52.619</ele>
        <time>2019-06-19T12:58:24Z</time>
      </trkpt>
      <trkpt lat="43.542304" lon="-6.741191">
        <ele>52.908</ele>
        <time>2019-06-19T12:58:26Z</time>
      </trkpt>
      <trkpt lat="43.542306" lon="-6.741308">
        <ele>53.389</ele>
        <time>2019-06-19T12:58:28Z</time>
      </trkpt>
      <trkpt lat="43.542326" lon="-6.741428">
        <ele>53.933</ele>
        <time>2019-06-19T12:58:30Z</time>
      </trkpt>
      <trkpt lat="43.542337" lon="-6.741560">
        <ele>54.794</ele>
        <time>2019-06-19T12:58:32Z</time>
      </trkpt>
      <trkpt lat="43.542358" lon="-6.741638">
        <ele>55.357</ele>
        <time>2019-06-19T12:58:33Z</time>
      </trkpt>
      <trkpt lat="43.542378" lon="-6.741707">
        <ele>55.777</ele>
        <time>2019-06-19T12:58:34Z</time>
      </trkpt>
      <trkpt lat="43.542409" lon="-6.741778">
        <ele>56.183</ele>
        <time>2019-06-19T12:58:35Z</time>
      </trkpt>
      <trkpt lat="43.542446" lon="-6.741864">
        <ele>56.661</ele>
        <time>2019-06-19T12:58:36Z</time>
      </trkpt>
      <trkpt lat="43.542476" lon="-6.741963">
        <ele>56.961</ele>
        <time>2019-06-19T12:58:37Z</time>
      </trkpt>
      <trkpt lat="43.542509" lon="-6.742077">
        <ele>57.562</ele>
        <time>2019-06-19T12:58:38Z</time>
      </trkpt>
      <trkpt lat="43.542550" lon="-6.742198">
        <ele>58.183</ele>
        <time>2019-06-19T12:58:39Z</time>
      </trkpt>
      <trkpt lat="43.542590" lon="-6.742306">
        <ele>58.211</ele>
        <time>2019-06-19T12:58:40Z</time>
      </trkpt>
      <trkpt lat="43.542632" lon="-6.742436">
        <ele>58.408</ele>
        <time>2019-06-19T12:58:41Z</time>
      </trkpt>
      <trkpt lat="43.542681" lon="-6.742553">
        <ele>58.829</ele>
        <time>2019-06-19T12:58:42Z</time>
      </trkpt>
      <trkpt lat="43.542727" lon="-6.742669">
        <ele>59.023</ele>
        <time>2019-06-19T12:58:43Z</time>
      </trkpt>
      <trkpt lat="43.542774" lon="-6.742798">
        <ele>59.034</ele>
        <time>2019-06-19T12:58:44Z</time>
      </trkpt>
      <trkpt lat="43.542812" lon="-6.742927">
        <ele>59.267</ele>
        <time>2019-06-19T12:58:45Z</time>
      </trkpt>
      <trkpt lat="43.542837" lon="-6.743053">
        <ele>59.467</ele>
        <time>2019-06-19T12:58:46Z</time>
      </trkpt>
      <trkpt lat="43.542857" lon="-6.743175">
        <ele>59.753</ele>
        <time>2019-06-19T12:58:47Z</time>
      </trkpt>
      <trkpt lat="43.542866" lon="-6.743297">
        <ele>59.921</ele>
        <time>2019-06-19T12:58:48Z</time>
      </trkpt>
      <trkpt lat="43.542874" lon="-6.743430">
        <ele>60.731</ele>
        <time>2019-06-19T12:58:49Z</time>
      </trkpt>
      <trkpt lat="43.542884" lon="-6.743563">
        <ele>61.869</ele>
        <time>2019-06-19T12:58:50Z</time>
      </trkpt>
      <trkpt lat="43.542881" lon="-6.743701">
        <ele>62.604</ele>
        <time>2019-06-19T12:58:51Z</time>
      </trkpt>
      <trkpt lat="43.542857" lon="-6.743822">
        <ele>63.224</ele>
        <time>2019-06-19T12:58:52Z</time>
      </trkpt>
      <trkpt lat="43.542833" lon="-6.743961">
        <ele>63.908</ele>
        <time>2019-06-19T12:58:53Z</time>
      </trkpt>
      <trkpt lat="43.542806" lon="-6.744106">
        <ele>64.879</ele>
        <time>2019-06-19T12:58:54Z</time>
      </trkpt>
      <trkpt lat="43.542773" lon="-6.744246">
        <ele>65.583</ele>
        <time>2019-06-19T12:58:55Z</time>
      </trkpt>
      <trkpt lat="43.542727" lon="-6.744371">
        <ele>66.144</ele>
        <time>2019-06-19T12:58:56Z</time>
      </trkpt>
      <trkpt lat="43.542680" lon="-6.744492">
        <ele>66.517</ele>
        <time>2019-06-19T12:58:57Z</time>
      </trkpt>
      <trkpt lat="43.542640" lon="-6.744600">
        <ele>66.837</ele>
        <time>2019-06-19T12:58:58Z</time>
      </trkpt>
      <trkpt lat="43.542583" lon="-6.744702">
        <ele>67.233</ele>
        <time>2019-06-19T12:58:59Z</time>
      </trkpt>
      <trkpt lat="43.542527" lon="-6.744804">
        <ele>67.441</ele>
        <time>2019-06-19T12:59:00Z</time>
      </trkpt>
      <trkpt lat="43.542466" lon="-6.744893">
        <ele>67.481</ele>
        <time>2019-06-19T12:59:01Z</time>
      </trkpt>
      <trkpt lat="43.542391" lon="-6.744972">
        <ele>67.111</ele>
        <time>2019-06-19T12:59:02Z</time>
      </trkpt>
      <trkpt lat="43.542325" lon="-6.745056">
        <ele>67.221</ele>
        <time>2019-06-19T12:59:03Z</time>
      </trkpt>
      <trkpt lat="43.542260" lon="-6.745130">
        <ele>67.303</ele>
        <time>2019-06-19T12:59:04Z</time>
      </trkpt>
      <trkpt lat="43.542204" lon="-6.745190">
        <ele>67.308</ele>
        <time>2019-06-19T12:59:05Z</time>
      </trkpt>
      <trkpt lat="43.542148" lon="-6.745244">
        <ele>67.324</ele>
        <time>2019-06-19T12:59:06Z</time>
      </trkpt>
      <trkpt lat="43.542103" lon="-6.745291">
        <ele>67.238</ele>
        <time>2019-06-19T12:59:07Z</time>
      </trkpt>
      <trkpt lat="43.542058" lon="-6.745337">
        <ele>67.239</ele>
        <time>2019-06-19T12:59:08Z</time>
      </trkpt>
      <trkpt lat="43.542016" lon="-6.745380">
        <ele>67.312</ele>
        <time>2019-06-19T12:59:09Z</time>
      </trkpt>
      <trkpt lat="43.541972" lon="-6.745418">
        <ele>67.222</ele>
        <time>2019-06-19T12:59:10Z</time>
      </trkpt>
      <trkpt lat="43.541931" lon="-6.745449">
        <ele>67.278</ele>
        <time>2019-06-19T12:59:11Z</time>
      </trkpt>
      <trkpt lat="43.541864" lon="-6.745501">
        <ele>67.546</ele>
        <time>2019-06-19T12:59:13Z</time>
      </trkpt>
      <trkpt lat="43.541795" lon="-6.745557">
        <ele>68.096</ele>
        <time>2019-06-19T12:59:15Z</time>
      </trkpt>
      <trkpt lat="43.541716" lon="-6.745622">
        <ele>68.526</ele>
        <time>2019-06-19T12:59:17Z</time>
      </trkpt>
      <trkpt lat="43.541652" lon="-6.745692">
        <ele>68.947</ele>
        <time>2019-06-19T12:59:19Z</time>
      </trkpt>
      <trkpt lat="43.541610" lon="-6.745723">
        <ele>68.911</ele>
        <time>2019-06-19T12:59:20Z</time>
      </trkpt>
      <trkpt lat="43.541573" lon="-6.745759">
        <ele>68.908</ele>
        <time>2019-06-19T12:59:21Z</time>
      </trkpt>
      <trkpt lat="43.541517" lon="-6.745795">
        <ele>68.715</ele>
        <time>2019-06-19T12:59:23Z</time>
      </trkpt>
      <trkpt lat="43.541453" lon="-6.745864">
        <ele>68.699</ele>
        <time>2019-06-19T12:59:25Z</time>
      </trkpt>
      <trkpt lat="43.541388" lon="-6.745933">
        <ele>68.430</ele>
        <time>2019-06-19T12:59:27Z</time>
      </trkpt>
      <trkpt lat="43.541351" lon="-6.745969">
        <ele>68.433</ele>
        <time>2019-06-19T12:59:28Z</time>
      </trkpt>
      <trkpt lat="43.541297" lon="-6.746048">
        <ele>68.313</ele>
        <time>2019-06-19T12:59:30Z</time>
      </trkpt>
      <trkpt lat="43.541229" lon="-6.746114">
        <ele>67.989</ele>
        <time>2019-06-19T12:59:32Z</time>
      </trkpt>
      <trkpt lat="43.541191" lon="-6.746155">
        <ele>67.767</ele>
        <time>2019-06-19T12:59:33Z</time>
      </trkpt>
      <trkpt lat="43.541146" lon="-6.746206">
        <ele>67.547</ele>
        <time>2019-06-19T12:59:34Z</time>
      </trkpt>
      <trkpt lat="43.541103" lon="-6.746253">
        <ele>67.598</ele>
        <time>2019-06-19T12:59:35Z</time>
      </trkpt>
      <trkpt lat="43.541056" lon="-6.746326">
        <ele>67.415</ele>
        <time>2019-06-19T12:59:36Z</time>
      </trkpt>
      <trkpt lat="43.540992" lon="-6.746421">
        <ele>67.326</ele>
        <time>2019-06-19T12:59:37Z</time>
      </trkpt>
      <trkpt lat="43.540931" lon="-6.746534">
        <ele>67.608</ele>
        <time>2019-06-19T12:59:38Z</time>
      </trkpt>
      <trkpt lat="43.540867" lon="-6.746645">
        <ele>68.082</ele>
        <time>2019-06-19T12:59:39Z</time>
      </trkpt>
      <trkpt lat="43.540792" lon="-6.746772">
        <ele>69.096</ele>
        <time>2019-06-19T12:59:40Z</time>
      </trkpt>
      <trkpt lat="43.540711" lon="-6.746909">
        <ele>70.267</ele>
        <time>2019-06-19T12:59:41Z</time>
      </trkpt>
      <trkpt lat="43.540632" lon="-6.747064">
        <ele>71.460</ele>
        <time>2019-06-19T12:59:42Z</time>
      </trkpt>
      <trkpt lat="43.540554" lon="-6.747213">
        <ele>72.980</ele>
        <time>2019-06-19T12:59:43Z</time>
      </trkpt>
      <trkpt lat="43.540467" lon="-6.747379">
        <ele>73.596</ele>
        <time>2019-06-19T12:59:44Z</time>
      </trkpt>
      <trkpt lat="43.540387" lon="-6.747567">
        <ele>74.044</ele>
        <time>2019-06-19T12:59:45Z</time>
      </trkpt>
      <trkpt lat="43.540305" lon="-6.747755">
        <ele>74.114</ele>
        <time>2019-06-19T12:59:46Z</time>
      </trkpt>
      <trkpt lat="43.540215" lon="-6.747946">
        <ele>74.326</ele>
        <time>2019-06-19T12:59:47Z</time>
      </trkpt>
      <trkpt lat="43.540135" lon="-6.748136">
        <ele>75.147</ele>
        <time>2019-06-19T12:59:48Z</time>
      </trkpt>
      <trkpt lat="43.540073" lon="-6.748331">
        <ele>76.211</ele>
        <time>2019-06-19T12:59:49Z</time>
      </trkpt>
      <trkpt lat="43.539995" lon="-6.748549">
        <ele>79.108</ele>
        <time>2019-06-19T12:59:50Z</time>
      </trkpt>
      <trkpt lat="43.539944" lon="-6.748756">
        <ele>80.815</ele>
        <time>2019-06-19T12:59:51Z</time>
      </trkpt>
      <trkpt lat="43.539886" lon="-6.749017">
        <ele>81.859</ele>
        <time>2019-06-19T12:59:52Z</time>
      </trkpt>
      <trkpt lat="43.539842" lon="-6.749268">
        <ele>82.470</ele>
        <time>2019-06-19T12:59:53Z</time>
      </trkpt>
      <trkpt lat="43.539799" lon="-6.749516">
        <ele>83.053</ele>
        <time>2019-06-19T12:59:54Z</time>
      </trkpt>
      <trkpt lat="43.539745" lon="-6.749795">
        <ele>83.083</ele>
        <time>2019-06-19T12:59:55Z</time>
      </trkpt>
      <trkpt lat="43.539698" lon="-6.750058">
        <ele>83.459</ele>
        <time>2019-06-19T12:59:56Z</time>
      </trkpt>
      <trkpt lat="43.539650" lon="-6.750317">
        <ele>85.097</ele>
        <time>2019-06-19T12:59:57Z</time>
      </trkpt>
      <trkpt lat="43.539613" lon="-6.750575">
        <ele>86.827</ele>
        <time>2019-06-19T12:59:58Z</time>
      </trkpt>
      <trkpt lat="43.539589" lon="-6.750816">
        <ele>87.084</ele>
        <time>2019-06-19T12:59:59Z</time>
      </trkpt>
      <trkpt lat="43.539575" lon="-6.751038">
        <ele>86.707</ele>
        <time>2019-06-19T13:00:00Z</time>
      </trkpt>
      <trkpt lat="43.539574" lon="-6.751275">
        <ele>86.217</ele>
        <time>2019-06-19T13:00:01Z</time>
      </trkpt>
      <trkpt lat="43.539566" lon="-6.751512">
        <ele>86.208</ele>
        <time>2019-06-19T13:00:02Z</time>
      </trkpt>
      <trkpt lat="43.539583" lon="-6.751727">
        <ele>86.751</ele>
        <time>2019-06-19T13:00:03Z</time>
      </trkpt>
      <trkpt lat="43.539617" lon="-6.751955">
        <ele>87.475</ele>
        <time>2019-06-19T13:00:04Z</time>
      </trkpt>
      <trkpt lat="43.539635" lon="-6.752147">
        <ele>87.546</ele>
        <time>2019-06-19T13:00:05Z</time>
      </trkpt>
      <trkpt lat="43.539664" lon="-6.752366">
        <ele>86.999</ele>
        <time>2019-06-19T13:00:06Z</time>
      </trkpt>
      <trkpt lat="43.539701" lon="-6.752597">
        <ele>86.219</ele>
        <time>2019-06-19T13:00:07Z</time>
      </trkpt>
      <trkpt lat="43.539729" lon="-6.752831">
        <ele>86.075</ele>
        <time>2019-06-19T13:00:08Z</time>
      </trkpt>
      <trkpt lat="43.539775" lon="-6.753089">
        <ele>85.643</ele>
        <time>2019-06-19T13:00:09Z</time>
      </trkpt>
      <trkpt lat="43.539816" lon="-6.753353">
        <ele>85.763</ele>
        <time>2019-06-19T13:00:10Z</time>
      </trkpt>
      <trkpt lat="43.539861" lon="-6.753612">
        <ele>85.533</ele>
        <time>2019-06-19T13:00:11Z</time>
      </trkpt>
      <trkpt lat="43.539899" lon="-6.753899">
        <ele>86.423</ele>
        <time>2019-06-19T13:00:12Z</time>
      </trkpt>
      <trkpt lat="43.539936" lon="-6.754179">
        <ele>87.315</ele>
        <time>2019-06-19T13:00:13Z</time>
      </trkpt>
      <trkpt lat="43.539977" lon="-6.754474">
        <ele>88.108</ele>
        <time>2019-06-19T13:00:14Z</time>
      </trkpt>
      <trkpt lat="43.540021" lon="-6.754780">
        <ele>86.876</ele>
        <time>2019-06-19T13:00:15Z</time>
      </trkpt>
      <trkpt lat="43.540066" lon="-6.755083">
        <ele>85.860</ele>
        <time>2019-06-19T13:00:16Z</time>
      </trkpt>
      <trkpt lat="43.540111" lon="-6.755401">
        <ele>84.571</ele>
        <time>2019-06-19T13:00:17Z</time>
      </trkpt>
      <trkpt lat="43.540158" lon="-6.755726">
        <ele>83.554</ele>
        <time>2019-06-19T13:00:18Z</time>
      </trkpt>
      <trkpt lat="43.540210" lon="-6.756049">
        <ele>82.724</ele>
        <time>2019-06-19T13:00:19Z</time>
      </trkpt>
      <trkpt lat="43.540262" lon="-6.756387">
        <ele>82.180</ele>
        <time>2019-06-19T13:00:20Z</time>
      </trkpt>
      <trkpt lat="43.540310" lon="-6.756729">
        <ele>81.958</ele>
        <time>2019-06-19T13:00:21Z</time>
      </trkpt>
      <trkpt lat="43.540355" lon="-6.757060">
        <ele>81.678</ele>
        <time>2019-06-19T13:00:22Z</time>
      </trkpt>
      <trkpt lat="43.540400" lon="-6.757384">
        <ele>81.436</ele>
        <time>2019-06-19T13:00:23Z</time>
      </trkpt>
      <trkpt lat="43.540446" lon="-6.757712">
        <ele>81.217</ele>
        <time>2019-06-19T13:00:24Z</time>
      </trkpt>
      <trkpt lat="43.540490" lon="-6.758034">
        <ele>81.418</ele>
        <time>2019-06-19T13:00:25Z</time>
      </trkpt>
      <trkpt lat="43.540535" lon="-6.758358">
        <ele>81.308</ele>
        <time>2019-06-19T13:00:26Z</time>
      </trkpt>
      <trkpt lat="43.540590" lon="-6.758687">
        <ele>81.536</ele>
        <time>2019-06-19T13:00:27Z</time>
      </trkpt>
      <trkpt lat="43.540640" lon="-6.759021">
        <ele>81.350</ele>
        <time>2019-06-19T13:00:28Z</time>
      </trkpt>
      <trkpt lat="43.540690" lon="-6.759360">
        <ele>81.961</ele>
        <time>2019-06-19T13:00:29Z</time>
      </trkpt>
      <trkpt lat="43.540740" lon="-6.759703">
        <ele>82.314</ele>
        <time>2019-06-19T13:00:30Z</time>
      </trkpt>
      <trkpt lat="43.540793" lon="-6.760045">
        <ele>82.344</ele>
        <time>2019-06-19T13:00:31Z</time>
      </trkpt>
      <trkpt lat="43.540840" lon="-6.760380">
        <ele>82.670</ele>
        <time>2019-06-19T13:00:32Z</time>
      </trkpt>
      <trkpt lat="43.540888" lon="-6.760718">
        <ele>81.918</ele>
        <time>2019-06-19T13:00:33Z</time>
      </trkpt>
      <trkpt lat="43.540939" lon="-6.761051">
        <ele>81.338</ele>
        <time>2019-06-19T13:00:34Z</time>
      </trkpt>
      <trkpt lat="43.540986" lon="-6.761384">
        <ele>81.388</ele>
        <time>2019-06-19T13:00:35Z</time>
      </trkpt>
      <trkpt lat="43.541033" lon="-6.761714">
        <ele>81.524</ele>
        <time>2019-06-19T13:00:36Z</time>
      </trkpt>
      <trkpt lat="43.541079" lon="-6.762028">
        <ele>81.126</ele>
        <time>2019-06-19T13:00:37Z</time>
      </trkpt>
      <trkpt lat="43.541129" lon="-6.762328">
        <ele>80.608</ele>
        <time>2019-06-19T13:00:38Z</time>
      </trkpt>
      <trkpt lat="43.541177" lon="-6.762622">
        <ele>79.941</ele>
        <time>2019-06-19T13:00:39Z</time>
      </trkpt>
      <trkpt lat="43.541225" lon="-6.762889">
        <ele>79.425</ele>
        <time>2019-06-19T13:00:40Z</time>
      </trkpt>
      <trkpt lat="43.541280" lon="-6.763143">
        <ele>79.046</ele>
        <time>2019-06-19T13:00:41Z</time>
      </trkpt>
      <trkpt lat="43.541324" lon="-6.763387">
        <ele>79.249</ele>
        <time>2019-06-19T13:00:42Z</time>
      </trkpt>
      <trkpt lat="43.541361" lon="-6.763618">
        <ele>80.079</ele>
        <time>2019-06-19T13:00:43Z</time>
      </trkpt>
      <trkpt lat="43.541399" lon="-6.763833">
        <ele>80.835</ele>
        <time>2019-06-19T13:00:44Z</time>
      </trkpt>
      <trkpt lat="43.541432" lon="-6.764032">
        <ele>82.073</ele>
        <time>2019-06-19T13:00:45Z</time>
      </trkpt>
      <trkpt lat="43.541460" lon="-6.764223">
        <ele>83.123</ele>
        <time>2019-06-19T13:00:46Z</time>
      </trkpt>
      <trkpt lat="43.541489" lon="-6.764402">
        <ele>83.391</ele>
        <time>2019-06-19T13:00:47Z</time>
      </trkpt>
      <trkpt lat="43.541515" lon="-6.764561">
        <ele>83.581</ele>
        <time>2019-06-19T13:00:48Z</time>
      </trkpt>
      <trkpt lat="43.541537" lon="-6.764708">
        <ele>83.519</ele>
        <time>2019-06-19T13:00:49Z</time>
      </trkpt>
      <trkpt lat="43.541568" lon="-6.764825">
        <ele>83.408</ele>
        <time>2019-06-19T13:00:50Z</time>
      </trkpt>
      <trkpt lat="43.541614" lon="-6.764915">
        <ele>83.292</ele>
        <time>2019-06-19T13:00:51Z</time>
      </trkpt>
      <trkpt lat="43.541655" lon="-6.764998">
        <ele>83.016</ele>
        <time>2019-06-19T13:00:52Z</time>
      </trkpt>
      <trkpt lat="43.541704" lon="-6.765076">
        <ele>83.497</ele>
        <time>2019-06-19T13:00:53Z</time>
      </trkpt>
      <trkpt lat="43.541758" lon="-6.765136">
        <ele>83.840</ele>
        <time>2019-06-19T13:00:54Z</time>
      </trkpt>
      <trkpt lat="43.541813" lon="-6.765205">
        <ele>84.380</ele>
        <time>2019-06-19T13:00:55Z</time>
      </trkpt>
      <trkpt lat="43.541862" lon="-6.765275">
        <ele>84.756</ele>
        <time>2019-06-19T13:00:56Z</time>
      </trkpt>
      <trkpt lat="43.541901" lon="-6.765365">
        <ele>84.934</ele>
        <time>2019-06-19T13:00:57Z</time>
      </trkpt>
      <trkpt lat="43.541926" lon="-6.765459">
        <ele>85.014</ele>
        <time>2019-06-19T13:00:58Z</time>
      </trkpt>
      <trkpt lat="43.541937" lon="-6.765558">
        <ele>85.055</ele>
        <time>2019-06-19T13:00:59Z</time>
      </trkpt>
      <trkpt lat="43.541933" lon="-6.765646">
        <ele>85.307</ele>
        <time>2019-06-19T13:01:00Z</time>
      </trkpt>
      <trkpt lat="43.541910" lon="-6.765727">
        <ele>85.617</ele>
        <time>2019-06-19T13:01:01Z</time>
      </trkpt>
      <trkpt lat="43.541879" lon="-6.765812">
        <ele>85.908</ele>
        <time>2019-06-19T13:01:02Z</time>
      </trkpt>
      <trkpt lat="43.541843" lon="-6.765887">
        <ele>86.398</ele>
        <time>2019-06-19T13:01:03Z</time>
      </trkpt>
      <trkpt lat="43.541806" lon="-6.765967">
        <ele>86.772</ele>
        <time>2019-06-19T13:01:04Z</time>
      </trkpt>
      <trkpt lat="43.541778" lon="-6.766062">
        <ele>87.343</ele>
        <time>2019-06-19T13:01:05Z</time>
      </trkpt>
      <trkpt lat="43.541767" lon="-6.766168">
        <ele>87.856</ele>
        <time>2019-06-19T13:01:06Z</time>
      </trkpt>
      <trkpt lat="43.541771" lon="-6.766281">
        <ele>88.296</ele>
        <time>2019-06-19T13:01:07Z</time>
      </trkpt>
      <trkpt lat="43.541785" lon="-6.766395">
        <ele>88.642</ele>
        <time>2019-06-19T13:01:08Z</time>
      </trkpt>
      <trkpt lat="43.541808" lon="-6.766515">
        <ele>88.950</ele>
        <time>2019-06-19T13:01:09Z</time>
      </trkpt>
      <trkpt lat="43.541825" lon="-6.766634">
        <ele>89.340</ele>
        <time>2019-06-19T13:01:10Z</time>
      </trkpt>
      <trkpt lat="43.541845" lon="-6.766757">
        <ele>89.995</ele>
        <time>2019-06-19T13:01:11Z</time>
      </trkpt>
      <trkpt lat="43.541867" lon="-6.766883">
        <ele>90.649</ele>
        <time>2019-06-19T13:01:12Z</time>
      </trkpt>
      <trkpt lat="43.541889" lon="-6.767013">
        <ele>91.223</ele>
        <time>2019-06-19T13:01:13Z</time>
      </trkpt>
      <trkpt lat="43.541904" lon="-6.767149">
        <ele>91.608</ele>
        <time>2019-06-19T13:01:14Z</time>
      </trkpt>
      <trkpt lat="43.541913" lon="-6.767289">
        <ele>92.192</ele>
        <time>2019-06-19T13:01:15Z</time>
      </trkpt>
      <trkpt lat="43.541926" lon="-6.767448">
        <ele>92.716</ele>
        <time>2019-06-19T13:01:16Z</time>
      </trkpt>
      <trkpt lat="43.541953" lon="-6.767618">
        <ele>93.527</ele>
        <time>2019-06-19T13:01:17Z</time>
      </trkpt>
      <trkpt lat="43.541965" lon="-6.767806">
        <ele>94.560</ele>
        <time>2019-06-19T13:01:18Z</time>
      </trkpt>
      <trkpt lat="43.541985" lon="-6.767991">
        <ele>95.990</ele>
        <time>2019-06-19T13:01:19Z</time>
      </trkpt>
      <trkpt lat="43.542010" lon="-6.768208">
        <ele>96.546</ele>
        <time>2019-06-19T13:01:20Z</time>
      </trkpt>
      <trkpt lat="43.542040" lon="-6.768424">
        <ele>96.684</ele>
        <time>2019-06-19T13:01:21Z</time>
      </trkpt>
      <trkpt lat="43.542075" lon="-6.768646">
        <ele>96.514</ele>
        <time>2019-06-19T13:01:22Z</time>
      </trkpt>
      <trkpt lat="43.542123" lon="-6.768866">
        <ele>97.087</ele>
        <time>2019-06-19T13:01:23Z</time>
      </trkpt>
      <trkpt lat="43.542158" lon="-6.769098">
        <ele>96.442</ele>
        <time>2019-06-19T13:01:24Z</time>
      </trkpt>
      <trkpt lat="43.542178" lon="-6.769331">
        <ele>96.826</ele>
        <time>2019-06-19T13:01:25Z</time>
      </trkpt>
      <trkpt lat="43.542228" lon="-6.769579">
        <ele>97.408</ele>
        <time>2019-06-19T13:01:26Z</time>
      </trkpt>
      <trkpt lat="43.542254" lon="-6.769829">
        <ele>98.041</ele>
        <time>2019-06-19T13:01:27Z</time>
      </trkpt>
      <trkpt lat="43.542296" lon="-6.770088">
        <ele>98.375</ele>
        <time>2019-06-19T13:01:28Z</time>
      </trkpt>
      <trkpt lat="43.542324" lon="-6.770353">
        <ele>98.416</ele>
        <time>2019-06-19T13:01:29Z</time>
      </trkpt>
      <trkpt lat="43.542363" lon="-6.770629">
        <ele>98.839</ele>
        <time>2019-06-19T13:01:30Z</time>
      </trkpt>
      <trkpt lat="43.542394" lon="-6.770899">
        <ele>99.699</ele>
        <time>2019-06-19T13:01:31Z</time>
      </trkpt>
      <trkpt lat="43.542428" lon="-6.771155">
        <ele>100.455</ele>
        <time>2019-06-19T13:01:32Z</time>
      </trkpt>
      <trkpt lat="43.542466" lon="-6.771417">
        <ele>101.233</ele>
        <time>2019-06-19T13:01:33Z</time>
      </trkpt>
      <trkpt lat="43.542506" lon="-6.771683">
        <ele>102.093</ele>
        <time>2019-06-19T13:01:34Z</time>
      </trkpt>
      <trkpt lat="43.542546" lon="-6.771946">
        <ele>101.817</ele>
        <time>2019-06-19T13:01:35Z</time>
      </trkpt>
      <trkpt lat="43.542586" lon="-6.772221">
        <ele>101.787</ele>
        <time>2019-06-19T13:01:36Z</time>
      </trkpt>
      <trkpt lat="43.542625" lon="-6.772494">
        <ele>100.115</ele>
        <time>2019-06-19T13:01:37Z</time>
      </trkpt>
      <trkpt lat="43.542664" lon="-6.772764">
        <ele>97.908</ele>
        <time>2019-06-19T13:01:38Z</time>
      </trkpt>
      <trkpt lat="43.542705" lon="-6.773034">
        <ele>97.334</ele>
        <time>2019-06-19T13:01:39Z</time>
      </trkpt>
      <trkpt lat="43.542748" lon="-6.773299">
        <ele>96.278</ele>
        <time>2019-06-19T13:01:40Z</time>
      </trkpt>
      <trkpt lat="43.542785" lon="-6.773561">
        <ele>95.249</ele>
        <time>2019-06-19T13:01:41Z</time>
      </trkpt>
      <trkpt lat="43.542825" lon="-6.773837">
        <ele>93.292</ele>
        <time>2019-06-19T13:01:42Z</time>
      </trkpt>
      <trkpt lat="43.542868" lon="-6.774115">
        <ele>91.972</ele>
        <time>2019-06-19T13:01:43Z</time>
      </trkpt>
      <trkpt lat="43.542912" lon="-6.774393">
        <ele>91.518</ele>
        <time>2019-06-19T13:01:44Z</time>
      </trkpt>
      <trkpt lat="43.542953" lon="-6.774678">
        <ele>91.456</ele>
        <time>2019-06-19T13:01:45Z</time>
      </trkpt>
      <trkpt lat="43.542996" lon="-6.774971">
        <ele>91.236</ele>
        <time>2019-06-19T13:01:46Z</time>
      </trkpt>
      <trkpt lat="43.543039" lon="-6.775274">
        <ele>91.113</ele>
        <time>2019-06-19T13:01:47Z</time>
      </trkpt>
      <trkpt lat="43.543081" lon="-6.775583">
        <ele>90.843</ele>
        <time>2019-06-19T13:01:48Z</time>
      </trkpt>
      <trkpt lat="43.543124" lon="-6.775904">
        <ele>90.507</ele>
        <time>2019-06-19T13:01:49Z</time>
      </trkpt>
      <trkpt lat="43.543169" lon="-6.776224">
        <ele>90.408</ele>
        <time>2019-06-19T13:01:50Z</time>
      </trkpt>
      <trkpt lat="43.543211" lon="-6.776549">
        <ele>91.224</ele>
        <time>2019-06-19T13:01:51Z</time>
      </trkpt>
      <trkpt lat="43.543260" lon="-6.776875">
        <ele>92.538</ele>
        <time>2019-06-19T13:01:52Z</time>
      </trkpt>
      <trkpt lat="43.543301" lon="-6.777191">
        <ele>92.599</ele>
        <time>2019-06-19T13:01:53Z</time>
      </trkpt>
      <trkpt lat="43.543353" lon="-6.777514">
        <ele>92.932</ele>
        <time>2019-06-19T13:01:54Z</time>
      </trkpt>
      <trkpt lat="43.543401" lon="-6.777840">
        <ele>92.952</ele>
        <time>2019-06-19T13:01:55Z</time>
      </trkpt>
      <trkpt lat="43.543459" lon="-6.778170">
        <ele>94.528</ele>
        <time>2019-06-19T13:01:56Z</time>
      </trkpt>
      <trkpt lat="43.543515" lon="-6.778497">
        <ele>98.216</ele>
        <time>2019-06-19T13:01:57Z</time>
      </trkpt>
      <trkpt lat="43.543565" lon="-6.778829">
        <ele>101.526</ele>
        <time>2019-06-19T13:01:58Z</time>
      </trkpt>
      <trkpt lat="43.543610" lon="-6.779152">
        <ele>102.915</ele>
        <time>2019-06-19T13:01:59Z</time>
      </trkpt>
      <trkpt lat="43.543657" lon="-6.779484">
        <ele>101.765</ele>
        <time>2019-06-19T13:02:00Z</time>
      </trkpt>
      <trkpt lat="43.543709" lon="-6.779807">
        <ele>101.311</ele>
        <time>2019-06-19T13:02:01Z</time>
      </trkpt>
      <trkpt lat="43.543763" lon="-6.780123">
        <ele>102.408</ele>
        <time>2019-06-19T13:02:02Z</time>
      </trkpt>
      <trkpt lat="43.543808" lon="-6.780431">
        <ele>103.514</ele>
        <time>2019-06-19T13:02:03Z</time>
      </trkpt>
      <trkpt lat="43.543859" lon="-6.780723">
        <ele>105.958</ele>
        <time>2019-06-19T13:02:04Z</time>
      </trkpt>
      <trkpt lat="43.543902" lon="-6.781007">
        <ele>108.289</ele>
        <time>2019-06-19T13:02:05Z</time>
      </trkpt>
      <trkpt lat="43.543947" lon="-6.781297">
        <ele>109.372</ele>
        <time>2019-06-19T13:02:06Z</time>
      </trkpt>
      <trkpt lat="43.543987" lon="-6.781587">
        <ele>109.022</ele>
        <time>2019-06-19T13:02:07Z</time>
      </trkpt>
      <trkpt lat="43.544022" lon="-6.781874">
        <ele>108.278</ele>
        <time>2019-06-19T13:02:08Z</time>
      </trkpt>
      <trkpt lat="43.544063" lon="-6.782162">
        <ele>108.266</ele>
        <time>2019-06-19T13:02:09Z</time>
      </trkpt>
      <trkpt lat="43.544106" lon="-6.782456">
        <ele>108.276</ele>
        <time>2019-06-19T13:02:10Z</time>
      </trkpt>
      <trkpt lat="43.544154" lon="-6.782748">
        <ele>108.021</ele>
        <time>2019-06-19T13:02:11Z</time>
      </trkpt>
      <trkpt lat="43.544201" lon="-6.783052">
        <ele>107.941</ele>
        <time>2019-06-19T13:02:12Z</time>
      </trkpt>
      <trkpt lat="43.544237" lon="-6.783358">
        <ele>108.505</ele>
        <time>2019-06-19T13:02:13Z</time>
      </trkpt>
      <trkpt lat="43.544278" lon="-6.783664">
        <ele>108.008</ele>
        <time>2019-06-19T13:02:14Z</time>
      </trkpt>
      <trkpt lat="43.544320" lon="-6.783976">
        <ele>106.645</ele>
        <time>2019-06-19T13:02:15Z</time>
      </trkpt>
      <trkpt lat="43.544367" lon="-6.784287">
        <ele>105.929</ele>
        <time>2019-06-19T13:02:16Z</time>
      </trkpt>
      <trkpt lat="43.544410" lon="-6.784594">
        <ele>106.230</ele>
        <time>2019-06-19T13:02:17Z</time>
      </trkpt>
      <trkpt lat="43.544457" lon="-6.784896">
        <ele>106.563</ele>
        <time>2019-06-19T13:02:18Z</time>
      </trkpt>
      <trkpt lat="43.544504" lon="-6.785189">
        <ele>106.583</ele>
        <time>2019-06-19T13:02:19Z</time>
      </trkpt>
      <trkpt lat="43.544553" lon="-6.785476">
        <ele>106.279</ele>
        <time>2019-06-19T13:02:20Z</time>
      </trkpt>
      <trkpt lat="43.544595" lon="-6.785762">
        <ele>105.687</ele>
        <time>2019-06-19T13:02:21Z</time>
      </trkpt>
      <trkpt lat="43.544637" lon="-6.786046">
        <ele>105.397</ele>
        <time>2019-06-19T13:02:22Z</time>
      </trkpt>
      <trkpt lat="43.544680" lon="-6.786338">
        <ele>104.293</ele>
        <time>2019-06-19T13:02:23Z</time>
      </trkpt>
      <trkpt lat="43.544721" lon="-6.786624">
        <ele>102.365</ele>
        <time>2019-06-19T13:02:24Z</time>
      </trkpt>
      <trkpt lat="43.544771" lon="-6.786913">
        <ele>101.121</ele>
        <time>2019-06-19T13:02:25Z</time>
      </trkpt>
      <trkpt lat="43.544816" lon="-6.787211">
        <ele>101.308</ele>
        <time>2019-06-19T13:02:26Z</time>
      </trkpt>
      <trkpt lat="43.544864" lon="-6.787506">
        <ele>101.582</ele>
        <time>2019-06-19T13:02:27Z</time>
      </trkpt>
      <trkpt lat="43.544909" lon="-6.787795">
        <ele>100.246</ele>
        <time>2019-06-19T13:02:28Z</time>
      </trkpt>
      <trkpt lat="43.544955" lon="-6.788087">
        <ele>97.887</ele>
        <time>2019-06-19T13:02:29Z</time>
      </trkpt>
      <trkpt lat="43.544999" lon="-6.788378">
        <ele>94.720</ele>
        <time>2019-06-19T13:02:30Z</time>
      </trkpt>
      <trkpt lat="43.545038" lon="-6.788660">
        <ele>92.890</ele>
        <time>2019-06-19T13:02:31Z</time>
      </trkpt>
      <trkpt lat="43.545066" lon="-6.788916">
        <ele>92.026</ele>
        <time>2019-06-19T13:02:32Z</time>
      </trkpt>
      <trkpt lat="43.545096" lon="-6.789178">
        <ele>92.024</ele>
        <time>2019-06-19T13:02:33Z</time>
      </trkpt>
      <trkpt lat="43.545119" lon="-6.789437">
        <ele>93.074</ele>
        <time>2019-06-19T13:02:34Z</time>
      </trkpt>
      <trkpt lat="43.545128" lon="-6.789698">
        <ele>92.556</ele>
        <time>2019-06-19T13:02:35Z</time>
      </trkpt>
      <trkpt lat="43.545128" lon="-6.789975">
        <ele>92.059</ele>
        <time>2019-06-19T13:02:36Z</time>
      </trkpt>
      <trkpt lat="43.545106" lon="-6.790264">
        <ele>90.514</ele>
        <time>2019-06-19T13:02:37Z</time>
      </trkpt>
      <trkpt lat="43.545075" lon="-6.790564">
        <ele>88.008</ele>
        <time>2019-06-19T13:02:38Z</time>
      </trkpt>
      <trkpt lat="43.545042" lon="-6.790850">
        <ele>87.198</ele>
        <time>2019-06-19T13:02:39Z</time>
      </trkpt>
      <trkpt lat="43.544999" lon="-6.791128">
        <ele>85.922</ele>
        <time>2019-06-19T13:02:40Z</time>
      </trkpt>
      <trkpt lat="43.544951" lon="-6.791402">
        <ele>84.993</ele>
        <time>2019-06-19T13:02:41Z</time>
      </trkpt>
      <trkpt lat="43.544906" lon="-6.791672">
        <ele>83.636</ele>
        <time>2019-06-19T13:02:42Z</time>
      </trkpt>
      <trkpt lat="43.544860" lon="-6.791936">
        <ele>82.546</ele>
        <time>2019-06-19T13:02:43Z</time>
      </trkpt>
      <trkpt lat="43.544815" lon="-6.792203">
        <ele>80.552</ele>
        <time>2019-06-19T13:02:44Z</time>
      </trkpt>
      <trkpt lat="43.544771" lon="-6.792482">
        <ele>78.570</ele>
        <time>2019-06-19T13:02:45Z</time>
      </trkpt>
      <trkpt lat="43.544736" lon="-6.792763">
        <ele>76.390</ele>
        <time>2019-06-19T13:02:46Z</time>
      </trkpt>
      <trkpt lat="43.544707" lon="-6.793056">
        <ele>74.981</ele>
        <time>2019-06-19T13:02:47Z</time>
      </trkpt>
      <trkpt lat="43.544694" lon="-6.793345">
        <ele>73.161</ele>
        <time>2019-06-19T13:02:48Z</time>
      </trkpt>
      <trkpt lat="43.544684" lon="-6.793658">
        <ele>73.117</ele>
        <time>2019-06-19T13:02:49Z</time>
      </trkpt>
      <trkpt lat="43.544722" lon="-6.793905">
        <ele>71.908</ele>
        <time>2019-06-19T13:02:50Z</time>
      </trkpt>
      <trkpt lat="43.544762" lon="-6.794167">
        <ele>71.151</ele>
        <time>2019-06-19T13:02:51Z</time>
      </trkpt>
      <trkpt lat="43.544811" lon="-6.794432">
        <ele>71.055</ele>
        <time>2019-06-19T13:02:52Z</time>
      </trkpt>
      <trkpt lat="43.544870" lon="-6.794713">
        <ele>69.176</ele>
        <time>2019-06-19T13:02:53Z</time>
      </trkpt>
      <trkpt lat="43.544964" lon="-6.794990">
        <ele>67.279</ele>
        <time>2019-06-19T13:02:54Z</time>
      </trkpt>
      <trkpt lat="43.545081" lon="-6.795250">
        <ele>67.389</ele>
        <time>2019-06-19T13:02:55Z</time>
      </trkpt>
      <trkpt lat="43.545209" lon="-6.795480">
        <ele>69.215</ele>
        <time>2019-06-19T13:02:56Z</time>
      </trkpt>
      <trkpt lat="43.545335" lon="-6.795698">
        <ele>69.863</ele>
        <time>2019-06-19T13:02:57Z</time>
      </trkpt>
      <trkpt lat="43.545487" lon="-6.795919">
        <ele>69.313</ele>
        <time>2019-06-19T13:02:58Z</time>
      </trkpt>
      <trkpt lat="43.545628" lon="-6.796145">
        <ele>68.666</ele>
        <time>2019-06-19T13:02:59Z</time>
      </trkpt>
      <trkpt lat="43.545768" lon="-6.796369">
        <ele>67.729</ele>
        <time>2019-06-19T13:03:00Z</time>
      </trkpt>
      <trkpt lat="43.545885" lon="-6.796632">
        <ele>67.821</ele>
        <time>2019-06-19T13:03:01Z</time>
      </trkpt>
      <trkpt lat="43.545989" lon="-6.796892">
        <ele>70.808</ele>
        <time>2019-06-19T13:03:02Z</time>
      </trkpt>
      <trkpt lat="43.546089" lon="-6.797148">
        <ele>71.969</ele>
        <time>2019-06-19T13:03:03Z</time>
      </trkpt>
      <trkpt lat="43.546174" lon="-6.797415">
        <ele>71.473</ele>
        <time>2019-06-19T13:03:04Z</time>
      </trkpt>
      <trkpt lat="43.546242" lon="-6.797709">
        <ele>70.684</ele>
        <time>2019-06-19T13:03:05Z</time>
      </trkpt>
      <trkpt lat="43.546296" lon="-6.798016">
        <ele>70.387</ele>
        <time>2019-06-19T13:03:06Z</time>
      </trkpt>
      <trkpt lat="43.546345" lon="-6.798328">
        <ele>67.757</ele>
        <time>2019-06-19T13:03:07Z</time>
      </trkpt>
      <trkpt lat="43.546391" lon="-6.798652">
        <ele>64.553</ele>
        <time>2019-06-19T13:03:08Z</time>
      </trkpt>
      <trkpt lat="43.546444" lon="-6.798989">
        <ele>61.041</ele>
        <time>2019-06-19T13:03:09Z</time>
      </trkpt>
      <trkpt lat="43.546495" lon="-6.799313">
        <ele>58.711</ele>
        <time>2019-06-19T13:03:10Z</time>
      </trkpt>
      <trkpt lat="43.546537" lon="-6.799656">
        <ele>59.067</ele>
        <time>2019-06-19T13:03:11Z</time>
      </trkpt>
      <trkpt lat="43.546589" lon="-6.799995">
        <ele>59.981</ele>
        <time>2019-06-19T13:03:12Z</time>
      </trkpt>
      <trkpt lat="43.546632" lon="-6.800336">
        <ele>59.619</ele>
        <time>2019-06-19T13:03:13Z</time>
      </trkpt>
      <trkpt lat="43.546676" lon="-6.800649">
        <ele>60.008</ele>
        <time>2019-06-19T13:03:14Z</time>
      </trkpt>
      <trkpt lat="43.546726" lon="-6.800996">
        <ele>60.519</ele>
        <time>2019-06-19T13:03:15Z</time>
      </trkpt>
      <trkpt lat="43.546772" lon="-6.801327">
        <ele>61.443</ele>
        <time>2019-06-19T13:03:16Z</time>
      </trkpt>
      <trkpt lat="43.546819" lon="-6.801652">
        <ele>62.524</ele>
        <time>2019-06-19T13:03:17Z</time>
      </trkpt>
      <trkpt lat="43.546859" lon="-6.801978">
        <ele>64.517</ele>
        <time>2019-06-19T13:03:18Z</time>
      </trkpt>
      <trkpt lat="43.546910" lon="-6.802292">
        <ele>65.857</ele>
        <time>2019-06-19T13:03:19Z</time>
      </trkpt>
      <trkpt lat="43.546946" lon="-6.802620">
        <ele>66.463</ele>
        <time>2019-06-19T13:03:20Z</time>
      </trkpt>
      <trkpt lat="43.546989" lon="-6.802937">
        <ele>67.261</ele>
        <time>2019-06-19T13:03:21Z</time>
      </trkpt>
      <trkpt lat="43.547034" lon="-6.803246">
        <ele>68.051</ele>
        <time>2019-06-19T13:03:22Z</time>
      </trkpt>
      <trkpt lat="43.547079" lon="-6.803558">
        <ele>69.368</ele>
        <time>2019-06-19T13:03:23Z</time>
      </trkpt>
      <trkpt lat="43.547125" lon="-6.803870">
        <ele>70.942</ele>
        <time>2019-06-19T13:03:24Z</time>
      </trkpt>
      <trkpt lat="43.547156" lon="-6.804173">
        <ele>71.326</ele>
        <time>2019-06-19T13:03:25Z</time>
      </trkpt>
      <trkpt lat="43.547201" lon="-6.804492">
        <ele>72.008</ele>
        <time>2019-06-19T13:03:26Z</time>
      </trkpt>
      <trkpt lat="43.547250" lon="-6.804801">
        <ele>72.079</ele>
        <time>2019-06-19T13:03:27Z</time>
      </trkpt>
      <trkpt lat="43.547298" lon="-6.805123">
        <ele>72.063</ele>
        <time>2019-06-19T13:03:28Z</time>
      </trkpt>
      <trkpt lat="43.547343" lon="-6.805452">
        <ele>72.444</ele>
        <time>2019-06-19T13:03:29Z</time>
      </trkpt>
      <trkpt lat="43.547383" lon="-6.805776">
        <ele>72.887</ele>
        <time>2019-06-19T13:03:30Z</time>
      </trkpt>
      <trkpt lat="43.547434" lon="-6.806108">
        <ele>72.217</ele>
        <time>2019-06-19T13:03:31Z</time>
      </trkpt>
      <trkpt lat="43.547470" lon="-6.806429">
        <ele>71.153</ele>
        <time>2019-06-19T13:03:32Z</time>
      </trkpt>
      <trkpt lat="43.547521" lon="-6.806767">
        <ele>71.731</ele>
        <time>2019-06-19T13:03:33Z</time>
      </trkpt>
      <trkpt lat="43.547575" lon="-6.807112">
        <ele>72.731</ele>
        <time>2019-06-19T13:03:34Z</time>
      </trkpt>
      <trkpt lat="43.547628" lon="-6.807459">
        <ele>73.033</ele>
        <time>2019-06-19T13:03:35Z</time>
      </trkpt>
      <trkpt lat="43.547677" lon="-6.807819">
        <ele>71.823</ele>
        <time>2019-06-19T13:03:36Z</time>
      </trkpt>
      <trkpt lat="43.547723" lon="-6.808177">
        <ele>69.515</ele>
        <time>2019-06-19T13:03:37Z</time>
      </trkpt>
      <trkpt lat="43.547773" lon="-6.808537">
        <ele>68.308</ele>
        <time>2019-06-19T13:03:38Z</time>
      </trkpt>
      <trkpt lat="43.547822" lon="-6.808900">
        <ele>65.456</ele>
        <time>2019-06-19T13:03:39Z</time>
      </trkpt>
      <trkpt lat="43.547867" lon="-6.809269">
        <ele>61.760</ele>
        <time>2019-06-19T13:03:40Z</time>
      </trkpt>
      <trkpt lat="43.547922" lon="-6.809635">
        <ele>60.131</ele>
        <time>2019-06-19T13:03:41Z</time>
      </trkpt>
      <trkpt lat="43.547973" lon="-6.810002">
        <ele>59.664</ele>
        <time>2019-06-19T13:03:42Z</time>
      </trkpt>
      <trkpt lat="43.548028" lon="-6.810364">
        <ele>60.474</ele>
        <time>2019-06-19T13:03:43Z</time>
      </trkpt>
      <trkpt lat="43.548078" lon="-6.810731">
        <ele>62.340</ele>
        <time>2019-06-19T13:03:44Z</time>
      </trkpt>
      <trkpt lat="43.548115" lon="-6.811038">
        <ele>64.738</ele>
        <time>2019-06-19T13:03:45Z</time>
      </trkpt>
      <trkpt lat="43.548163" lon="-6.811364">
        <ele>67.298</ele>
        <time>2019-06-19T13:03:46Z</time>
      </trkpt>
      <trkpt lat="43.548200" lon="-6.811678">
        <ele>69.182</ele>
        <time>2019-06-19T13:03:47Z</time>
      </trkpt>
      <trkpt lat="43.548247" lon="-6.811996">
        <ele>70.443</ele>
        <time>2019-06-19T13:03:48Z</time>
      </trkpt>
      <trkpt lat="43.548288" lon="-6.812307">
        <ele>71.017</ele>
        <time>2019-06-19T13:03:49Z</time>
      </trkpt>
      <trkpt lat="43.548335" lon="-6.812620">
        <ele>71.008</ele>
        <time>2019-06-19T13:03:50Z</time>
      </trkpt>
      <trkpt lat="43.548381" lon="-6.812937">
        <ele>70.361</ele>
        <time>2019-06-19T13:03:51Z</time>
      </trkpt>
      <trkpt lat="43.548428" lon="-6.813249">
        <ele>69.045</ele>
        <time>2019-06-19T13:03:52Z</time>
      </trkpt>
      <trkpt lat="43.548475" lon="-6.813574">
        <ele>67.696</ele>
        <time>2019-06-19T13:03:53Z</time>
      </trkpt>
      <trkpt lat="43.548517" lon="-6.813891">
        <ele>67.069</ele>
        <time>2019-06-19T13:03:54Z</time>
      </trkpt>
      <trkpt lat="43.548569" lon="-6.814220">
        <ele>66.899</ele>
        <time>2019-06-19T13:03:55Z</time>
      </trkpt>
      <trkpt lat="43.548618" lon="-6.814553">
        <ele>65.645</ele>
        <time>2019-06-19T13:03:56Z</time>
      </trkpt>
      <trkpt lat="43.548668" lon="-6.814890">
        <ele>64.653</ele>
        <time>2019-06-19T13:03:57Z</time>
      </trkpt>
      <trkpt lat="43.548719" lon="-6.815227">
        <ele>63.613</ele>
        <time>2019-06-19T13:03:58Z</time>
      </trkpt>
      <trkpt lat="43.548770" lon="-6.815562">
        <ele>63.026</ele>
        <time>2019-06-19T13:03:59Z</time>
      </trkpt>
      <trkpt lat="43.548822" lon="-6.815902">
        <ele>62.947</ele>
        <time>2019-06-19T13:04:00Z</time>
      </trkpt>
      <trkpt lat="43.548866" lon="-6.816228">
        <ele>62.511</ele>
        <time>2019-06-19T13:04:01Z</time>
      </trkpt>
      <trkpt lat="43.548908" lon="-6.816548">
        <ele>61.908</ele>
        <time>2019-06-19T13:04:02Z</time>
      </trkpt>
      <trkpt lat="43.548950" lon="-6.816853">
        <ele>60.955</ele>
        <time>2019-06-19T13:04:03Z</time>
      </trkpt>
      <trkpt lat="43.548989" lon="-6.817148">
        <ele>59.899</ele>
        <time>2019-06-19T13:04:04Z</time>
      </trkpt>
      <trkpt lat="43.549027" lon="-6.817429">
        <ele>60.270</ele>
        <time>2019-06-19T13:04:05Z</time>
      </trkpt>
      <trkpt lat="43.549067" lon="-6.817697">
        <ele>61.193</ele>
        <time>2019-06-19T13:04:06Z</time>
      </trkpt>
      <trkpt lat="43.549102" lon="-6.817958">
        <ele>62.083</ele>
        <time>2019-06-19T13:04:07Z</time>
      </trkpt>
      <trkpt lat="43.549140" lon="-6.818223">
        <ele>62.299</ele>
        <time>2019-06-19T13:04:08Z</time>
      </trkpt>
      <trkpt lat="43.549179" lon="-6.818486">
        <ele>61.977</ele>
        <time>2019-06-19T13:04:09Z</time>
      </trkpt>
      <trkpt lat="43.549213" lon="-6.818735">
        <ele>61.247</ele>
        <time>2019-06-19T13:04:10Z</time>
      </trkpt>
      <trkpt lat="43.549248" lon="-6.818977">
        <ele>60.864</ele>
        <time>2019-06-19T13:04:11Z</time>
      </trkpt>
      <trkpt lat="43.549282" lon="-6.819211">
        <ele>61.006</ele>
        <time>2019-06-19T13:04:12Z</time>
      </trkpt>
      <trkpt lat="43.549308" lon="-6.819431">
        <ele>61.016</ele>
        <time>2019-06-19T13:04:13Z</time>
      </trkpt>
      <trkpt lat="43.549321" lon="-6.819637">
        <ele>60.608</ele>
        <time>2019-06-19T13:04:14Z</time>
      </trkpt>
      <trkpt lat="43.549320" lon="-6.819840">
        <ele>60.419</ele>
        <time>2019-06-19T13:04:15Z</time>
      </trkpt>
      <trkpt lat="43.549302" lon="-6.820011">
        <ele>60.663</ele>
        <time>2019-06-19T13:04:16Z</time>
      </trkpt>
      <trkpt lat="43.549282" lon="-6.820168">
        <ele>61.224</ele>
        <time>2019-06-19T13:04:17Z</time>
      </trkpt>
      <trkpt lat="43.549266" lon="-6.820291">
        <ele>61.787</ele>
        <time>2019-06-19T13:04:18Z</time>
      </trkpt>
      <trkpt lat="43.549259" lon="-6.820395">
        <ele>61.867</ele>
        <time>2019-06-19T13:04:19Z</time>
      </trkpt>
      <trkpt lat="43.549254" lon="-6.820475">
        <ele>61.983</ele>
        <time>2019-06-19T13:04:20Z</time>
      </trkpt>
      <trkpt lat="43.549273" lon="-6.820537">
        <ele>62.081</ele>
        <time>2019-06-19T13:04:21Z</time>
      </trkpt>
      <trkpt lat="43.549283" lon="-6.820606">
        <ele>62.091</ele>
        <time>2019-06-19T13:04:22Z</time>
      </trkpt>
      <trkpt lat="43.549294" lon="-6.820670">
        <ele>62.085</ele>
        <time>2019-06-19T13:04:23Z</time>
      </trkpt>
      <trkpt lat="43.549301" lon="-6.820735">
        <ele>62.089</ele>
        <time>2019-06-19T13:04:24Z</time>
      </trkpt>
      <trkpt lat="43.549299" lon="-6.820809">
        <ele>62.017</ele>
        <time>2019-06-19T13:04:25Z</time>
      </trkpt>
      <trkpt lat="43.549283" lon="-6.820898">
        <ele>61.908</ele>
        <time>2019-06-19T13:04:26Z</time>
      </trkpt>
      <trkpt lat="43.549257" lon="-6.820996">
        <ele>61.651</ele>
        <time>2019-06-19T13:04:27Z</time>
      </trkpt>
      <trkpt lat="43.549243" lon="-6.821107">
        <ele>61.365</ele>
        <time>2019-06-19T13:04:28Z</time>
      </trkpt>
      <trkpt lat="43.549249" lon="-6.821223">
        <ele>61.616</ele>
        <time>2019-06-19T13:04:29Z</time>
      </trkpt>
      <trkpt lat="43.549258" lon="-6.821348">
        <ele>61.959</ele>
        <time>2019-06-19T13:04:30Z</time>
      </trkpt>
      <trkpt lat="43.549291" lon="-6.821518">
        <ele>62.579</ele>
        <time>2019-06-19T13:04:31Z</time>
      </trkpt>
      <trkpt lat="43.549305" lon="-6.821691">
        <ele>63.055</ele>
        <time>2019-06-19T13:04:32Z</time>
      </trkpt>
      <trkpt lat="43.549297" lon="-6.821877">
        <ele>63.423</ele>
        <time>2019-06-19T13:04:33Z</time>
      </trkpt>
      <trkpt lat="43.549277" lon="-6.822084">
        <ele>64.183</ele>
        <time>2019-06-19T13:04:34Z</time>
      </trkpt>
      <trkpt lat="43.549247" lon="-6.822285">
        <ele>65.161</ele>
        <time>2019-06-19T13:04:35Z</time>
      </trkpt>
      <trkpt lat="43.549213" lon="-6.822494">
        <ele>66.621</ele>
        <time>2019-06-19T13:04:36Z</time>
      </trkpt>
      <trkpt lat="43.549173" lon="-6.822705">
        <ele>67.013</ele>
        <time>2019-06-19T13:04:37Z</time>
      </trkpt>
      <trkpt lat="43.549126" lon="-6.822940">
        <ele>67.008</ele>
        <time>2019-06-19T13:04:38Z</time>
      </trkpt>
      <trkpt lat="43.549074" lon="-6.823173">
        <ele>66.469</ele>
        <time>2019-06-19T13:04:39Z</time>
      </trkpt>
      <trkpt lat="43.549018" lon="-6.823400">
        <ele>65.733</ele>
        <time>2019-06-19T13:04:40Z</time>
      </trkpt>
      <trkpt lat="43.548959" lon="-6.823615">
        <ele>64.754</ele>
        <time>2019-06-19T13:04:41Z</time>
      </trkpt>
      <trkpt lat="43.548901" lon="-6.823813">
        <ele>63.547</ele>
        <time>2019-06-19T13:04:42Z</time>
      </trkpt>
      <trkpt lat="43.548843" lon="-6.824010">
        <ele>61.897</ele>
        <time>2019-06-19T13:04:43Z</time>
      </trkpt>
      <trkpt lat="43.548775" lon="-6.824214">
        <ele>59.623</ele>
        <time>2019-06-19T13:04:44Z</time>
      </trkpt>
      <trkpt lat="43.548707" lon="-6.824433">
        <ele>57.841</ele>
        <time>2019-06-19T13:04:45Z</time>
      </trkpt>
      <trkpt lat="43.548634" lon="-6.824665">
        <ele>57.961</ele>
        <time>2019-06-19T13:04:46Z</time>
      </trkpt>
      <trkpt lat="43.548567" lon="-6.824901">
        <ele>59.069</ele>
        <time>2019-06-19T13:04:47Z</time>
      </trkpt>
      <trkpt lat="43.548482" lon="-6.825155">
        <ele>60.804</ele>
        <time>2019-06-19T13:04:48Z</time>
      </trkpt>
      <trkpt lat="43.548405" lon="-6.825407">
        <ele>62.224</ele>
        <time>2019-06-19T13:04:49Z</time>
      </trkpt>
      <trkpt lat="43.548319" lon="-6.825667">
        <ele>63.508</ele>
        <time>2019-06-19T13:04:50Z</time>
      </trkpt>
      <trkpt lat="43.548227" lon="-6.825929">
        <ele>65.019</ele>
        <time>2019-06-19T13:04:51Z</time>
      </trkpt>
      <trkpt lat="43.548145" lon="-6.826217">
        <ele>65.413</ele>
        <time>2019-06-19T13:04:52Z</time>
      </trkpt>
      <trkpt lat="43.548060" lon="-6.826507">
        <ele>65.044</ele>
        <time>2019-06-19T13:04:53Z</time>
      </trkpt>
      <trkpt lat="43.547968" lon="-6.826792">
        <ele>65.677</ele>
        <time>2019-06-19T13:04:54Z</time>
      </trkpt>
      <trkpt lat="43.547877" lon="-6.827074">
        <ele>66.587</ele>
        <time>2019-06-19T13:04:55Z</time>
      </trkpt>
      <trkpt lat="43.547787" lon="-6.827272">
        <ele>67.053</ele>
        <time>2019-06-19T13:04:56Z</time>
      </trkpt>
      <trkpt lat="43.547701" lon="-6.827550">
        <ele>67.161</ele>
        <time>2019-06-19T13:04:57Z</time>
      </trkpt>
      <trkpt lat="43.547617" lon="-6.827824">
        <ele>66.441</ele>
        <time>2019-06-19T13:04:58Z</time>
      </trkpt>
      <trkpt lat="43.547530" lon="-6.828092">
        <ele>65.168</ele>
        <time>2019-06-19T13:04:59Z</time>
      </trkpt>
      <trkpt lat="43.547436" lon="-6.828364">
        <ele>65.242</ele>
        <time>2019-06-19T13:05:00Z</time>
      </trkpt>
      <trkpt lat="43.547355" lon="-6.828639">
        <ele>65.026</ele>
        <time>2019-06-19T13:05:01Z</time>
      </trkpt>
      <trkpt lat="43.547279" lon="-6.828919">
        <ele>65.008</ele>
        <time>2019-06-19T13:05:02Z</time>
      </trkpt>
      <trkpt lat="43.547202" lon="-6.829202">
        <ele>65.349</ele>
        <time>2019-06-19T13:05:03Z</time>
      </trkpt>
      <trkpt lat="43.547124" lon="-6.829482">
        <ele>66.473</ele>
        <time>2019-06-19T13:05:04Z</time>
      </trkpt>
      <trkpt lat="43.547059" lon="-6.829778">
        <ele>66.574</ele>
        <time>2019-06-19T13:05:05Z</time>
      </trkpt>
      <trkpt lat="43.546997" lon="-6.830093">
        <ele>66.087</ele>
        <time>2019-06-19T13:05:06Z</time>
      </trkpt>
      <trkpt lat="43.546946" lon="-6.830386">
        <ele>66.097</ele>
        <time>2019-06-19T13:05:07Z</time>
      </trkpt>
      <trkpt lat="43.546895" lon="-6.830702">
        <ele>66.083</ele>
        <time>2019-06-19T13:05:08Z</time>
      </trkpt>
      <trkpt lat="43.546847" lon="-6.831034">
        <ele>66.331</ele>
        <time>2019-06-19T13:05:09Z</time>
      </trkpt>
      <trkpt lat="43.546811" lon="-6.831347">
        <ele>66.131</ele>
        <time>2019-06-19T13:05:10Z</time>
      </trkpt>
      <trkpt lat="43.546786" lon="-6.831674">
        <ele>65.692</ele>
        <time>2019-06-19T13:05:11Z</time>
      </trkpt>
      <trkpt lat="43.546763" lon="-6.832002">
        <ele>64.973</ele>
        <time>2019-06-19T13:05:12Z</time>
      </trkpt>
      <trkpt lat="43.546751" lon="-6.832301">
        <ele>63.920</ele>
        <time>2019-06-19T13:05:13Z</time>
      </trkpt>
      <trkpt lat="43.546759" lon="-6.832657">
        <ele>59.708</ele>
        <time>2019-06-19T13:05:14Z</time>
      </trkpt>
      <trkpt lat="43.546825" lon="-6.832999">
        <ele>54.852</ele>
        <time>2019-06-19T13:05:15Z</time>
      </trkpt>
      <trkpt lat="43.546887" lon="-6.833331">
        <ele>52.236</ele>
        <time>2019-06-19T13:05:16Z</time>
      </trkpt>
      <trkpt lat="43.546932" lon="-6.833653">
        <ele>50.797</ele>
        <time>2019-06-19T13:05:17Z</time>
      </trkpt>
      <trkpt lat="43.547010" lon="-6.833972">
        <ele>49.950</ele>
        <time>2019-06-19T13:05:18Z</time>
      </trkpt>
      <trkpt lat="43.547084" lon="-6.834283">
        <ele>48.970</ele>
        <time>2019-06-19T13:05:19Z</time>
      </trkpt>
      <trkpt lat="43.547170" lon="-6.834590">
        <ele>47.666</ele>
        <time>2019-06-19T13:05:20Z</time>
      </trkpt>
      <trkpt lat="43.547271" lon="-6.834892">
        <ele>47.214</ele>
        <time>2019-06-19T13:05:21Z</time>
      </trkpt>
      <trkpt lat="43.547376" lon="-6.835198">
        <ele>49.714</ele>
        <time>2019-06-19T13:05:22Z</time>
      </trkpt>
      <trkpt lat="43.547491" lon="-6.835486">
        <ele>54.049</ele>
        <time>2019-06-19T13:05:23Z</time>
      </trkpt>
      <trkpt lat="43.547620" lon="-6.835767">
        <ele>56.102</ele>
        <time>2019-06-19T13:05:24Z</time>
      </trkpt>
      <trkpt lat="43.547758" lon="-6.836039">
        <ele>57.122</ele>
        <time>2019-06-19T13:05:25Z</time>
      </trkpt>
      <trkpt lat="43.547909" lon="-6.836293">
        <ele>57.108</ele>
        <time>2019-06-19T13:05:26Z</time>
      </trkpt>
      <trkpt lat="43.548070" lon="-6.836538">
        <ele>55.597</ele>
        <time>2019-06-19T13:05:27Z</time>
      </trkpt>
      <trkpt lat="43.548238" lon="-6.836778">
        <ele>56.621</ele>
        <time>2019-06-19T13:05:28Z</time>
      </trkpt>
      <trkpt lat="43.548410" lon="-6.837018">
        <ele>57.852</ele>
        <time>2019-06-19T13:05:29Z</time>
      </trkpt>
      <trkpt lat="43.548593" lon="-6.837251">
        <ele>60.845</ele>
        <time>2019-06-19T13:05:30Z</time>
      </trkpt>
      <trkpt lat="43.548773" lon="-6.837476">
        <ele>64.725</ele>
        <time>2019-06-19T13:05:31Z</time>
      </trkpt>
      <trkpt lat="43.548959" lon="-6.837685">
        <ele>64.471</ele>
        <time>2019-06-19T13:05:32Z</time>
      </trkpt>
      <trkpt lat="43.549149" lon="-6.837893">
        <ele>63.299</ele>
        <time>2019-06-19T13:05:33Z</time>
      </trkpt>
      <trkpt lat="43.549385" lon="-6.838050">
        <ele>59.939</ele>
        <time>2019-06-19T13:05:34Z</time>
      </trkpt>
      <trkpt lat="43.549592" lon="-6.838230">
        <ele>59.122</ele>
        <time>2019-06-19T13:05:35Z</time>
      </trkpt>
      <trkpt lat="43.549803" lon="-6.838409">
        <ele>57.162</ele>
        <time>2019-06-19T13:05:36Z</time>
      </trkpt>
      <trkpt lat="43.550015" lon="-6.838583">
        <ele>54.908</ele>
        <time>2019-06-19T13:05:37Z</time>
      </trkpt>
      <trkpt lat="43.550248" lon="-6.838763">
        <ele>53.108</ele>
        <time>2019-06-19T13:05:38Z</time>
      </trkpt>
      <trkpt lat="43.550494" lon="-6.838922">
        <ele>54.985</ele>
        <time>2019-06-19T13:05:39Z</time>
      </trkpt>
      <trkpt lat="43.550707" lon="-6.839098">
        <ele>57.849</ele>
        <time>2019-06-19T13:05:40Z</time>
      </trkpt>
      <trkpt lat="43.550936" lon="-6.839284">
        <ele>60.190</ele>
        <time>2019-06-19T13:05:41Z</time>
      </trkpt>
      <trkpt lat="43.551170" lon="-6.839466">
        <ele>61.353</ele>
        <time>2019-06-19T13:05:42Z</time>
      </trkpt>
      <trkpt lat="43.551373" lon="-6.839649">
        <ele>62.073</ele>
        <time>2019-06-19T13:05:43Z</time>
      </trkpt>
      <trkpt lat="43.551595" lon="-6.839833">
        <ele>62.759</ele>
        <time>2019-06-19T13:05:44Z</time>
      </trkpt>
      <trkpt lat="43.551816" lon="-6.840015">
        <ele>62.567</ele>
        <time>2019-06-19T13:05:45Z</time>
      </trkpt>
      <trkpt lat="43.552037" lon="-6.840200">
        <ele>61.177</ele>
        <time>2019-06-19T13:05:46Z</time>
      </trkpt>
      <trkpt lat="43.552257" lon="-6.840371">
        <ele>58.812</ele>
        <time>2019-06-19T13:05:47Z</time>
      </trkpt>
      <trkpt lat="43.552472" lon="-6.840539">
        <ele>57.332</ele>
        <time>2019-06-19T13:05:48Z</time>
      </trkpt>
      <trkpt lat="43.552678" lon="-6.840706">
        <ele>56.705</ele>
        <time>2019-06-19T13:05:49Z</time>
      </trkpt>
      <trkpt lat="43.552863" lon="-6.840874">
        <ele>56.408</ele>
        <time>2019-06-19T13:05:50Z</time>
      </trkpt>
      <trkpt lat="43.553046" lon="-6.841034">
        <ele>57.024</ele>
        <time>2019-06-19T13:05:51Z</time>
      </trkpt>
      <trkpt lat="43.553224" lon="-6.841195">
        <ele>57.148</ele>
        <time>2019-06-19T13:05:52Z</time>
      </trkpt>
      <trkpt lat="43.553387" lon="-6.841354">
        <ele>56.789</ele>
        <time>2019-06-19T13:05:53Z</time>
      </trkpt>
      <trkpt lat="43.553541" lon="-6.841526">
        <ele>55.162</ele>
        <time>2019-06-19T13:05:54Z</time>
      </trkpt>
      <trkpt lat="43.553692" lon="-6.841712">
        <ele>54.182</ele>
        <time>2019-06-19T13:05:55Z</time>
      </trkpt>
      <trkpt lat="43.553836" lon="-6.841911">
        <ele>54.278</ele>
        <time>2019-06-19T13:05:56Z</time>
      </trkpt>
      <trkpt lat="43.553982" lon="-6.842128">
        <ele>54.726</ele>
        <time>2019-06-19T13:05:57Z</time>
      </trkpt>
      <trkpt lat="43.554116" lon="-6.842364">
        <ele>54.976</ele>
        <time>2019-06-19T13:05:58Z</time>
      </trkpt>
      <trkpt lat="43.554245" lon="-6.842611">
        <ele>54.485</ele>
        <time>2019-06-19T13:05:59Z</time>
      </trkpt>
      <trkpt lat="43.554368" lon="-6.842875">
        <ele>54.089</ele>
        <time>2019-06-19T13:06:00Z</time>
      </trkpt>
      <trkpt lat="43.554479" lon="-6.843158">
        <ele>54.117</ele>
        <time>2019-06-19T13:06:01Z</time>
      </trkpt>
      <trkpt lat="43.554579" lon="-6.843452">
        <ele>54.708</ele>
        <time>2019-06-19T13:06:02Z</time>
      </trkpt>
      <trkpt lat="43.554676" lon="-6.843753">
        <ele>55.751</ele>
        <time>2019-06-19T13:06:03Z</time>
      </trkpt>
      <trkpt lat="43.554763" lon="-6.844063">
        <ele>55.445</ele>
        <time>2019-06-19T13:06:04Z</time>
      </trkpt>
      <trkpt lat="43.554837" lon="-6.844379">
        <ele>55.036</ele>
        <time>2019-06-19T13:06:05Z</time>
      </trkpt>
      <trkpt lat="43.554913" lon="-6.844701">
        <ele>54.799</ele>
        <time>2019-06-19T13:06:06Z</time>
      </trkpt>
      <trkpt lat="43.554989" lon="-6.845023">
        <ele>53.969</ele>
        <time>2019-06-19T13:06:07Z</time>
      </trkpt>
      <trkpt lat="43.555058" lon="-6.845339">
        <ele>52.665</ele>
        <time>2019-06-19T13:06:08Z</time>
      </trkpt>
      <trkpt lat="43.555125" lon="-6.845649">
        <ele>51.273</ele>
        <time>2019-06-19T13:06:09Z</time>
      </trkpt>
      <trkpt lat="43.555191" lon="-6.845949">
        <ele>49.943</ele>
        <time>2019-06-19T13:06:10Z</time>
      </trkpt>
      <trkpt lat="43.555256" lon="-6.846272">
        <ele>49.026</ele>
        <time>2019-06-19T13:06:11Z</time>
      </trkpt>
      <trkpt lat="43.555322" lon="-6.846591">
        <ele>48.447</ele>
        <time>2019-06-19T13:06:12Z</time>
      </trkpt>
      <trkpt lat="43.555389" lon="-6.846901">
        <ele>47.611</ele>
        <time>2019-06-19T13:06:13Z</time>
      </trkpt>
      <trkpt lat="43.555451" lon="-6.847210">
        <ele>47.608</ele>
        <time>2019-06-19T13:06:14Z</time>
      </trkpt>
      <trkpt lat="43.555516" lon="-6.847509">
        <ele>46.895</ele>
        <time>2019-06-19T13:06:15Z</time>
      </trkpt>
      <trkpt lat="43.555579" lon="-6.847802">
        <ele>45.939</ele>
        <time>2019-06-19T13:06:16Z</time>
      </trkpt>
      <trkpt lat="43.555644" lon="-6.848083">
        <ele>45.340</ele>
        <time>2019-06-19T13:06:17Z</time>
      </trkpt>
      <trkpt lat="43.555702" lon="-6.848361">
        <ele>43.983</ele>
        <time>2019-06-19T13:06:18Z</time>
      </trkpt>
      <trkpt lat="43.555761" lon="-6.848631">
        <ele>43.513</ele>
        <time>2019-06-19T13:06:19Z</time>
      </trkpt>
      <trkpt lat="43.555819" lon="-6.848896">
        <ele>42.329</ele>
        <time>2019-06-19T13:06:20Z</time>
      </trkpt>
      <trkpt lat="43.555875" lon="-6.849161">
        <ele>43.717</ele>
        <time>2019-06-19T13:06:21Z</time>
      </trkpt>
      <trkpt lat="43.555931" lon="-6.849429">
        <ele>45.577</ele>
        <time>2019-06-19T13:06:22Z</time>
      </trkpt>
      <trkpt lat="43.555985" lon="-6.849693">
        <ele>46.859</ele>
        <time>2019-06-19T13:06:23Z</time>
      </trkpt>
      <trkpt lat="43.556036" lon="-6.849948">
        <ele>47.003</ele>
        <time>2019-06-19T13:06:24Z</time>
      </trkpt>
      <trkpt lat="43.556089" lon="-6.850197">
        <ele>47.723</ele>
        <time>2019-06-19T13:06:25Z</time>
      </trkpt>
      <trkpt lat="43.556138" lon="-6.850428">
        <ele>47.408</ele>
        <time>2019-06-19T13:06:26Z</time>
      </trkpt>
      <trkpt lat="43.556186" lon="-6.850649">
        <ele>46.198</ele>
        <time>2019-06-19T13:06:27Z</time>
      </trkpt>
      <trkpt lat="43.556237" lon="-6.850870">
        <ele>44.922</ele>
        <time>2019-06-19T13:06:28Z</time>
      </trkpt>
      <trkpt lat="43.556288" lon="-6.851086">
        <ele>44.123</ele>
        <time>2019-06-19T13:06:29Z</time>
      </trkpt>
      <trkpt lat="43.556333" lon="-6.851305">
        <ele>44.626</ele>
        <time>2019-06-19T13:06:30Z</time>
      </trkpt>
      <trkpt lat="43.556381" lon="-6.851521">
        <ele>45.536</ele>
        <time>2019-06-19T13:06:31Z</time>
      </trkpt>
      <trkpt lat="43.556429" lon="-6.851745">
        <ele>46.482</ele>
        <time>2019-06-19T13:06:32Z</time>
      </trkpt>
      <trkpt lat="43.556478" lon="-6.851971">
        <ele>47.350</ele>
        <time>2019-06-19T13:06:33Z</time>
      </trkpt>
      <trkpt lat="43.556524" lon="-6.852204">
        <ele>47.550</ele>
        <time>2019-06-19T13:06:34Z</time>
      </trkpt>
      <trkpt lat="43.556569" lon="-6.852416">
        <ele>47.457</ele>
        <time>2019-06-19T13:06:35Z</time>
      </trkpt>
      <trkpt lat="43.556611" lon="-6.852623">
        <ele>48.000</ele>
        <time>2019-06-19T13:06:36Z</time>
      </trkpt>
      <trkpt lat="43.556653" lon="-6.852823">
        <ele>49.020</ele>
        <time>2019-06-19T13:06:37Z</time>
      </trkpt>
      <trkpt lat="43.556698" lon="-6.853029">
        <ele>49.008</ele>
        <time>2019-06-19T13:06:38Z</time>
      </trkpt>
      <trkpt lat="43.556743" lon="-6.853239">
        <ele>49.548</ele>
        <time>2019-06-19T13:06:39Z</time>
      </trkpt>
      <trkpt lat="43.556793" lon="-6.853451">
        <ele>49.372</ele>
        <time>2019-06-19T13:06:40Z</time>
      </trkpt>
      <trkpt lat="43.556841" lon="-6.853656">
        <ele>49.093</ele>
        <time>2019-06-19T13:06:41Z</time>
      </trkpt>
      <trkpt lat="43.556886" lon="-6.853874">
        <ele>49.076</ele>
        <time>2019-06-19T13:06:42Z</time>
      </trkpt>
      <trkpt lat="43.556932" lon="-6.854085">
        <ele>49.016</ele>
        <time>2019-06-19T13:06:43Z</time>
      </trkpt>
      <trkpt lat="43.556976" lon="-6.854301">
        <ele>48.982</ele>
        <time>2019-06-19T13:06:44Z</time>
      </trkpt>
      <trkpt lat="43.557019" lon="-6.854514">
        <ele>48.720</ele>
        <time>2019-06-19T13:06:45Z</time>
      </trkpt>
      <trkpt lat="43.557066" lon="-6.854721">
        <ele>48.650</ele>
        <time>2019-06-19T13:06:46Z</time>
      </trkpt>
      <trkpt lat="43.557117" lon="-6.854937">
        <ele>47.968</ele>
        <time>2019-06-19T13:06:47Z</time>
      </trkpt>
      <trkpt lat="43.557165" lon="-6.855157">
        <ele>46.442</ele>
        <time>2019-06-19T13:06:48Z</time>
      </trkpt>
      <trkpt lat="43.557208" lon="-6.855370">
        <ele>44.826</ele>
        <time>2019-06-19T13:06:49Z</time>
      </trkpt>
      <trkpt lat="43.557235" lon="-6.855610">
        <ele>43.508</ele>
        <time>2019-06-19T13:06:50Z</time>
      </trkpt>
      <trkpt lat="43.557289" lon="-6.855811">
        <ele>41.999</ele>
        <time>2019-06-19T13:06:51Z</time>
      </trkpt>
      <trkpt lat="43.557340" lon="-6.856036">
        <ele>41.633</ele>
        <time>2019-06-19T13:06:52Z</time>
      </trkpt>
      <trkpt lat="43.557388" lon="-6.856249">
        <ele>41.754</ele>
        <time>2019-06-19T13:06:53Z</time>
      </trkpt>
      <trkpt lat="43.557437" lon="-6.856466">
        <ele>42.327</ele>
        <time>2019-06-19T13:06:54Z</time>
      </trkpt>
      <trkpt lat="43.557486" lon="-6.856674">
        <ele>43.087</ele>
        <time>2019-06-19T13:06:55Z</time>
      </trkpt>
      <trkpt lat="43.557529" lon="-6.856877">
        <ele>43.743</ele>
        <time>2019-06-19T13:06:56Z</time>
      </trkpt>
      <trkpt lat="43.557571" lon="-6.857077">
        <ele>44.231</ele>
        <time>2019-06-19T13:06:57Z</time>
      </trkpt>
      <trkpt lat="43.557614" lon="-6.857280">
        <ele>44.771</ele>
        <time>2019-06-19T13:06:58Z</time>
      </trkpt>
      <trkpt lat="43.557659" lon="-6.857486">
        <ele>45.016</ele>
        <time>2019-06-19T13:06:59Z</time>
      </trkpt>
      <trkpt lat="43.557702" lon="-6.857692">
        <ele>45.076</ele>
        <time>2019-06-19T13:07:00Z</time>
      </trkpt>
      <trkpt lat="43.557750" lon="-6.857903">
        <ele>45.013</ele>
        <time>2019-06-19T13:07:01Z</time>
      </trkpt>
      <trkpt lat="43.557798" lon="-6.858124">
        <ele>44.708</ele>
        <time>2019-06-19T13:07:02Z</time>
      </trkpt>
      <trkpt lat="43.557845" lon="-6.858345">
        <ele>44.074</ele>
        <time>2019-06-19T13:07:03Z</time>
      </trkpt>
      <trkpt lat="43.557890" lon="-6.858560">
        <ele>43.568</ele>
        <time>2019-06-19T13:07:04Z</time>
      </trkpt>
      <trkpt lat="43.557936" lon="-6.858776">
        <ele>43.689</ele>
        <time>2019-06-19T13:07:05Z</time>
      </trkpt>
      <trkpt lat="43.557978" lon="-6.858988">
        <ele>43.792</ele>
        <time>2019-06-19T13:07:06Z</time>
      </trkpt>
      <trkpt lat="43.558025" lon="-6.859205">
        <ele>43.912</ele>
        <time>2019-06-19T13:07:07Z</time>
      </trkpt>
      <trkpt lat="43.558075" lon="-6.859418">
        <ele>44.018</ele>
        <time>2019-06-19T13:07:08Z</time>
      </trkpt>
      <trkpt lat="43.558125" lon="-6.859615">
        <ele>43.446</ele>
        <time>2019-06-19T13:07:09Z</time>
      </trkpt>
      <trkpt lat="43.558169" lon="-6.859815">
        <ele>42.816</ele>
        <time>2019-06-19T13:07:10Z</time>
      </trkpt>
      <trkpt lat="43.558214" lon="-6.860024">
        <ele>42.698</ele>
        <time>2019-06-19T13:07:11Z</time>
      </trkpt>
      <trkpt lat="43.558254" lon="-6.860227">
        <ele>42.915</ele>
        <time>2019-06-19T13:07:12Z</time>
      </trkpt>
      <trkpt lat="43.558306" lon="-6.860427">
        <ele>43.526</ele>
        <time>2019-06-19T13:07:13Z</time>
      </trkpt>
      <trkpt lat="43.558352" lon="-6.860624">
        <ele>43.908</ele>
        <time>2019-06-19T13:07:14Z</time>
      </trkpt>
      <trkpt lat="43.558399" lon="-6.860846">
        <ele>43.782</ele>
        <time>2019-06-19T13:07:15Z</time>
      </trkpt>
      <trkpt lat="43.558451" lon="-6.861059">
        <ele>42.666</ele>
        <time>2019-06-19T13:07:16Z</time>
      </trkpt>
      <trkpt lat="43.558502" lon="-6.861283">
        <ele>42.037</ele>
        <time>2019-06-19T13:07:17Z</time>
      </trkpt>
      <trkpt lat="43.558547" lon="-6.861502">
        <ele>41.550</ele>
        <time>2019-06-19T13:07:18Z</time>
      </trkpt>
      <trkpt lat="43.558596" lon="-6.861726">
        <ele>41.060</ele>
        <time>2019-06-19T13:07:19Z</time>
      </trkpt>
      <trkpt lat="43.558649" lon="-6.861955">
        <ele>41.026</ele>
        <time>2019-06-19T13:07:20Z</time>
      </trkpt>
      <trkpt lat="43.558693" lon="-6.862179">
        <ele>40.264</ele>
        <time>2019-06-19T13:07:21Z</time>
      </trkpt>
      <trkpt lat="43.558738" lon="-6.862411">
        <ele>40.054</ele>
        <time>2019-06-19T13:07:22Z</time>
      </trkpt>
      <trkpt lat="43.558785" lon="-6.862644">
        <ele>40.535</ele>
        <time>2019-06-19T13:07:23Z</time>
      </trkpt>
      <trkpt lat="43.558830" lon="-6.862872">
        <ele>40.786</ele>
        <time>2019-06-19T13:07:24Z</time>
      </trkpt>
      <trkpt lat="43.558879" lon="-6.863090">
        <ele>40.314</ele>
        <time>2019-06-19T13:07:25Z</time>
      </trkpt>
      <trkpt lat="43.558928" lon="-6.863310">
        <ele>42.008</ele>
        <time>2019-06-19T13:07:26Z</time>
      </trkpt>
      <trkpt lat="43.558978" lon="-6.863522">
        <ele>43.256</ele>
        <time>2019-06-19T13:07:27Z</time>
      </trkpt>
      <trkpt lat="43.559027" lon="-6.863729">
        <ele>44.290</ele>
        <time>2019-06-19T13:07:28Z</time>
      </trkpt>
      <trkpt lat="43.559077" lon="-6.863950">
        <ele>45.021</ele>
        <time>2019-06-19T13:07:29Z</time>
      </trkpt>
      <trkpt lat="43.559129" lon="-6.864172">
        <ele>45.614</ele>
        <time>2019-06-19T13:07:30Z</time>
      </trkpt>
      <trkpt lat="43.559177" lon="-6.864396">
        <ele>46.874</ele>
        <time>2019-06-19T13:07:31Z</time>
      </trkpt>
      <trkpt lat="43.559227" lon="-6.864632">
        <ele>46.570</ele>
        <time>2019-06-19T13:07:32Z</time>
      </trkpt>
      <trkpt lat="43.559269" lon="-6.864872">
        <ele>45.828</ele>
        <time>2019-06-19T13:07:33Z</time>
      </trkpt>
      <trkpt lat="43.559318" lon="-6.865103">
        <ele>45.528</ele>
        <time>2019-06-19T13:07:34Z</time>
      </trkpt>
      <trkpt lat="43.559362" lon="-6.865328">
        <ele>45.896</ele>
        <time>2019-06-19T13:07:35Z</time>
      </trkpt>
      <trkpt lat="43.559413" lon="-6.865536">
        <ele>46.731</ele>
        <time>2019-06-19T13:07:36Z</time>
      </trkpt>
      <trkpt lat="43.559463" lon="-6.865754">
        <ele>47.024</ele>
        <time>2019-06-19T13:07:37Z</time>
      </trkpt>
      <trkpt lat="43.559514" lon="-6.865981">
        <ele>47.108</ele>
        <time>2019-06-19T13:07:38Z</time>
      </trkpt>
      <trkpt lat="43.559557" lon="-6.866217">
        <ele>47.342</ele>
        <time>2019-06-19T13:07:39Z</time>
      </trkpt>
      <trkpt lat="43.559609" lon="-6.866451">
        <ele>47.016</ele>
        <time>2019-06-19T13:07:40Z</time>
      </trkpt>
      <trkpt lat="43.559659" lon="-6.866692">
        <ele>47.017</ele>
        <time>2019-06-19T13:07:41Z</time>
      </trkpt>
      <trkpt lat="43.559710" lon="-6.866930">
        <ele>47.070</ele>
        <time>2019-06-19T13:07:42Z</time>
      </trkpt>
      <trkpt lat="43.559759" lon="-6.867169">
        <ele>46.970</ele>
        <time>2019-06-19T13:07:43Z</time>
      </trkpt>
      <trkpt lat="43.559804" lon="-6.867402">
        <ele>47.426</ele>
        <time>2019-06-19T13:07:44Z</time>
      </trkpt>
      <trkpt lat="43.559842" lon="-6.867626">
        <ele>47.674</ele>
        <time>2019-06-19T13:07:45Z</time>
      </trkpt>
      <trkpt lat="43.559892" lon="-6.867849">
        <ele>47.434</ele>
        <time>2019-06-19T13:07:46Z</time>
      </trkpt>
      <trkpt lat="43.559941" lon="-6.868066">
        <ele>47.232</ele>
        <time>2019-06-19T13:07:47Z</time>
      </trkpt>
      <trkpt lat="43.559991" lon="-6.868283">
        <ele>47.892</ele>
        <time>2019-06-19T13:07:48Z</time>
      </trkpt>
      <trkpt lat="43.560041" lon="-6.868522">
        <ele>47.911</ele>
        <time>2019-06-19T13:07:49Z</time>
      </trkpt>
      <trkpt lat="43.560092" lon="-6.868738">
        <ele>47.708</ele>
        <time>2019-06-19T13:07:50Z</time>
      </trkpt>
      <trkpt lat="43.560143" lon="-6.868964">
        <ele>47.536</ele>
        <time>2019-06-19T13:07:51Z</time>
      </trkpt>
      <trkpt lat="43.560190" lon="-6.869191">
        <ele>47.330</ele>
        <time>2019-06-19T13:07:52Z</time>
      </trkpt>
      <trkpt lat="43.560237" lon="-6.869415">
        <ele>47.161</ele>
        <time>2019-06-19T13:07:53Z</time>
      </trkpt>
      <trkpt lat="43.560282" lon="-6.869644">
        <ele>47.784</ele>
        <time>2019-06-19T13:07:54Z</time>
      </trkpt>
      <trkpt lat="43.560326" lon="-6.869861">
        <ele>47.744</ele>
        <time>2019-06-19T13:07:55Z</time>
      </trkpt>
      <trkpt lat="43.560356" lon="-6.870074">
        <ele>47.740</ele>
        <time>2019-06-19T13:07:56Z</time>
      </trkpt>
      <trkpt lat="43.560388" lon="-6.870295">
        <ele>47.698</ele>
        <time>2019-06-19T13:07:57Z</time>
      </trkpt>
      <trkpt lat="43.560418" lon="-6.870533">
        <ele>47.548</ele>
        <time>2019-06-19T13:07:58Z</time>
      </trkpt>
      <trkpt lat="43.560441" lon="-6.870782">
        <ele>46.616</ele>
        <time>2019-06-19T13:07:59Z</time>
      </trkpt>
      <trkpt lat="43.560455" lon="-6.871041">
        <ele>46.476</ele>
        <time>2019-06-19T13:08:00Z</time>
      </trkpt>
      <trkpt lat="43.560454" lon="-6.871313">
        <ele>47.113</ele>
        <time>2019-06-19T13:08:01Z</time>
      </trkpt>
      <trkpt lat="43.560445" lon="-6.871583">
        <ele>49.108</ele>
        <time>2019-06-19T13:08:02Z</time>
      </trkpt>
      <trkpt lat="43.560416" lon="-6.871859">
        <ele>50.734</ele>
        <time>2019-06-19T13:08:03Z</time>
      </trkpt>
      <trkpt lat="43.560369" lon="-6.872146">
        <ele>50.948</ele>
        <time>2019-06-19T13:08:04Z</time>
      </trkpt>
      <trkpt lat="43.560309" lon="-6.872426">
        <ele>48.869</ele>
        <time>2019-06-19T13:08:05Z</time>
      </trkpt>
      <trkpt lat="43.560241" lon="-6.872707">
        <ele>47.462</ele>
        <time>2019-06-19T13:08:06Z</time>
      </trkpt>
      <trkpt lat="43.560165" lon="-6.872984">
        <ele>46.732</ele>
        <time>2019-06-19T13:08:07Z</time>
      </trkpt>
      <trkpt lat="43.560075" lon="-6.873239">
        <ele>46.618</ele>
        <time>2019-06-19T13:08:08Z</time>
      </trkpt>
      <trkpt lat="43.559964" lon="-6.873487">
        <ele>46.276</ele>
        <time>2019-06-19T13:08:09Z</time>
      </trkpt>
      <trkpt lat="43.559840" lon="-6.873731">
        <ele>45.976</ele>
        <time>2019-06-19T13:08:10Z</time>
      </trkpt>
      <trkpt lat="43.559708" lon="-6.873965">
        <ele>45.599</ele>
        <time>2019-06-19T13:08:11Z</time>
      </trkpt>
      <trkpt lat="43.559569" lon="-6.874192">
        <ele>43.907</ele>
        <time>2019-06-19T13:08:12Z</time>
      </trkpt>
      <trkpt lat="43.559420" lon="-6.874422">
        <ele>43.327</ele>
        <time>2019-06-19T13:08:13Z</time>
      </trkpt>
      <trkpt lat="43.559238" lon="-6.874602">
        <ele>45.008</ele>
        <time>2019-06-19T13:08:14Z</time>
      </trkpt>
      <trkpt lat="43.559061" lon="-6.874791">
        <ele>45.262</ele>
        <time>2019-06-19T13:08:15Z</time>
      </trkpt>
      <trkpt lat="43.558887" lon="-6.874961">
        <ele>44.486</ele>
        <time>2019-06-19T13:08:16Z</time>
      </trkpt>
      <trkpt lat="43.558703" lon="-6.875115">
        <ele>43.087</ele>
        <time>2019-06-19T13:08:17Z</time>
      </trkpt>
      <trkpt lat="43.558513" lon="-6.875257">
        <ele>41.410</ele>
        <time>2019-06-19T13:08:18Z</time>
      </trkpt>
      <trkpt lat="43.558323" lon="-6.875425">
        <ele>39.550</ele>
        <time>2019-06-19T13:08:19Z</time>
      </trkpt>
      <trkpt lat="43.558140" lon="-6.875563">
        <ele>38.226</ele>
        <time>2019-06-19T13:08:20Z</time>
      </trkpt>
      <trkpt lat="43.557959" lon="-6.875721">
        <ele>36.414</ele>
        <time>2019-06-19T13:08:21Z</time>
      </trkpt>
      <trkpt lat="43.557789" lon="-6.875893">
        <ele>34.114</ele>
        <time>2019-06-19T13:08:22Z</time>
      </trkpt>
      <trkpt lat="43.557616" lon="-6.876083">
        <ele>32.653</ele>
        <time>2019-06-19T13:08:23Z</time>
      </trkpt>
      <trkpt lat="43.557450" lon="-6.876304">
        <ele>32.004</ele>
        <time>2019-06-19T13:08:24Z</time>
      </trkpt>
      <trkpt lat="43.557289" lon="-6.876547">
        <ele>32.714</ele>
        <time>2019-06-19T13:08:25Z</time>
      </trkpt>
      <trkpt lat="43.557136" lon="-6.876781">
        <ele>33.608</ele>
        <time>2019-06-19T13:08:26Z</time>
      </trkpt>
      <trkpt lat="43.556992" lon="-6.877014">
        <ele>34.358</ele>
        <time>2019-06-19T13:08:27Z</time>
      </trkpt>
      <trkpt lat="43.556839" lon="-6.877275">
        <ele>32.942</ele>
        <time>2019-06-19T13:08:28Z</time>
      </trkpt>
      <trkpt lat="43.556682" lon="-6.877544">
        <ele>28.213</ele>
        <time>2019-06-19T13:08:29Z</time>
      </trkpt>
      <trkpt lat="43.556519" lon="-6.877798">
        <ele>24.786</ele>
        <time>2019-06-19T13:08:30Z</time>
      </trkpt>
      <trkpt lat="43.556356" lon="-6.878072">
        <ele>18.456</ele>
        <time>2019-06-19T13:08:31Z</time>
      </trkpt>
      <trkpt lat="43.556192" lon="-6.878324">
        <ele>12.522</ele>
        <time>2019-06-19T13:08:32Z</time>
      </trkpt>
      <trkpt lat="43.556033" lon="-6.878601">
        <ele>9.890</ele>
        <time>2019-06-19T13:08:33Z</time>
      </trkpt>
      <trkpt lat="43.555867" lon="-6.878898">
        <ele>9.930</ele>
        <time>2019-06-19T13:08:34Z</time>
      </trkpt>
      <trkpt lat="43.555703" lon="-6.879160">
        <ele>11.951</ele>
        <time>2019-06-19T13:08:35Z</time>
      </trkpt>
      <trkpt lat="43.555538" lon="-6.879438">
        <ele>14.201</ele>
        <time>2019-06-19T13:08:36Z</time>
      </trkpt>
      <trkpt lat="43.555383" lon="-6.879713">
        <ele>15.511</ele>
        <time>2019-06-19T13:08:37Z</time>
      </trkpt>
      <trkpt lat="43.555227" lon="-6.879981">
        <ele>14.708</ele>
        <time>2019-06-19T13:08:38Z</time>
      </trkpt>
      <trkpt lat="43.555075" lon="-6.880270">
        <ele>13.078</ele>
        <time>2019-06-19T13:08:39Z</time>
      </trkpt>
      <trkpt lat="43.554935" lon="-6.880552">
        <ele>12.712</ele>
        <time>2019-06-19T13:08:40Z</time>
      </trkpt>
      <trkpt lat="43.554810" lon="-6.880838">
        <ele>15.173</ele>
        <time>2019-06-19T13:08:41Z</time>
      </trkpt>
      <trkpt lat="43.554697" lon="-6.881136">
        <ele>19.796</ele>
        <time>2019-06-19T13:08:42Z</time>
      </trkpt>
      <trkpt lat="43.554593" lon="-6.881434">
        <ele>24.016</ele>
        <time>2019-06-19T13:08:43Z</time>
      </trkpt>
      <trkpt lat="43.554503" lon="-6.881751">
        <ele>28.622</ele>
        <time>2019-06-19T13:08:44Z</time>
      </trkpt>
      <trkpt lat="43.554452" lon="-6.882032">
        <ele>31.770</ele>
        <time>2019-06-19T13:08:45Z</time>
      </trkpt>
      <trkpt lat="43.554399" lon="-6.882348">
        <ele>31.660</ele>
        <time>2019-06-19T13:08:46Z</time>
      </trkpt>
      <trkpt lat="43.554346" lon="-6.882693">
        <ele>32.227</ele>
        <time>2019-06-19T13:08:47Z</time>
      </trkpt>
      <trkpt lat="43.554304" lon="-6.883016">
        <ele>34.068</ele>
        <time>2019-06-19T13:08:48Z</time>
      </trkpt>
      <trkpt lat="43.554335" lon="-6.883339">
        <ele>32.914</ele>
        <time>2019-06-19T13:08:49Z</time>
      </trkpt>
      <trkpt lat="43.554388" lon="-6.883594">
        <ele>30.708</ele>
        <time>2019-06-19T13:08:50Z</time>
      </trkpt>
      <trkpt lat="43.554480" lon="-6.883879">
        <ele>30.165</ele>
        <time>2019-06-19T13:08:51Z</time>
      </trkpt>
      <trkpt lat="43.554566" lon="-6.884201">
        <ele>31.329</ele>
        <time>2019-06-19T13:08:52Z</time>
      </trkpt>
      <trkpt lat="43.554679" lon="-6.884486">
        <ele>28.570</ele>
        <time>2019-06-19T13:08:53Z</time>
      </trkpt>
      <trkpt lat="43.554734" lon="-6.884834">
        <ele>25.243</ele>
        <time>2019-06-19T13:08:54Z</time>
      </trkpt>
      <trkpt lat="43.554927" lon="-6.885030">
        <ele>24.043</ele>
        <time>2019-06-19T13:08:55Z</time>
      </trkpt>
      <trkpt lat="43.555083" lon="-6.885250">
        <ele>25.149</ele>
        <time>2019-06-19T13:08:56Z</time>
      </trkpt>
      <trkpt lat="43.555247" lon="-6.885464">
        <ele>28.717</ele>
        <time>2019-06-19T13:08:57Z</time>
      </trkpt>
      <trkpt lat="43.555423" lon="-6.885650">
        <ele>33.397</ele>
        <time>2019-06-19T13:08:58Z</time>
      </trkpt>
      <trkpt lat="43.555594" lon="-6.885797">
        <ele>37.034</ele>
        <time>2019-06-19T13:08:59Z</time>
      </trkpt>
      <trkpt lat="43.555759" lon="-6.885946">
        <ele>38.455</ele>
        <time>2019-06-19T13:09:00Z</time>
      </trkpt>
      <trkpt lat="43.555895" lon="-6.886074">
        <ele>38.110</ele>
        <time>2019-06-19T13:09:01Z</time>
      </trkpt>
      <trkpt lat="43.556099" lon="-6.886197">
        <ele>37.408</ele>
        <time>2019-06-19T13:09:02Z</time>
      </trkpt>
      <trkpt lat="43.556307" lon="-6.886298">
        <ele>36.486</ele>
        <time>2019-06-19T13:09:03Z</time>
      </trkpt>
      <trkpt lat="43.556520" lon="-6.886372">
        <ele>36.510</ele>
        <time>2019-06-19T13:09:04Z</time>
      </trkpt>
      <trkpt lat="43.556712" lon="-6.886508">
        <ele>37.861</ele>
        <time>2019-06-19T13:09:05Z</time>
      </trkpt>
      <trkpt lat="43.556888" lon="-6.886664">
        <ele>39.694</ele>
        <time>2019-06-19T13:09:06Z</time>
      </trkpt>
      <trkpt lat="43.557052" lon="-6.886827">
        <ele>42.854</ele>
        <time>2019-06-19T13:09:07Z</time>
      </trkpt>
      <trkpt lat="43.557190" lon="-6.886998">
        <ele>44.210</ele>
        <time>2019-06-19T13:09:08Z</time>
      </trkpt>
      <trkpt lat="43.557299" lon="-6.887187">
        <ele>45.238</ele>
        <time>2019-06-19T13:09:09Z</time>
      </trkpt>
      <trkpt lat="43.557406" lon="-6.887396">
        <ele>46.138</ele>
        <time>2019-06-19T13:09:10Z</time>
      </trkpt>
      <trkpt lat="43.557495" lon="-6.887629">
        <ele>47.447</ele>
        <time>2019-06-19T13:09:11Z</time>
      </trkpt>
      <trkpt lat="43.557572" lon="-6.887901">
        <ele>49.029</ele>
        <time>2019-06-19T13:09:12Z</time>
      </trkpt>
      <trkpt lat="43.557641" lon="-6.888168">
        <ele>50.221</ele>
        <time>2019-06-19T13:09:13Z</time>
      </trkpt>
      <trkpt lat="43.557702" lon="-6.888430">
        <ele>50.408</ele>
        <time>2019-06-19T13:09:14Z</time>
      </trkpt>
      <trkpt lat="43.557756" lon="-6.888697">
        <ele>51.237</ele>
        <time>2019-06-19T13:09:15Z</time>
      </trkpt>
      <trkpt lat="43.557809" lon="-6.888965">
        <ele>51.961</ele>
        <time>2019-06-19T13:09:16Z</time>
      </trkpt>
      <trkpt lat="43.557857" lon="-6.889230">
        <ele>52.062</ele>
        <time>2019-06-19T13:09:17Z</time>
      </trkpt>
      <trkpt lat="43.557904" lon="-6.889508">
        <ele>52.125</ele>
        <time>2019-06-19T13:09:18Z</time>
      </trkpt>
      <trkpt lat="43.557949" lon="-6.889784">
        <ele>52.595</ele>
        <time>2019-06-19T13:09:19Z</time>
      </trkpt>
      <trkpt lat="43.557991" lon="-6.890068">
        <ele>53.061</ele>
        <time>2019-06-19T13:09:20Z</time>
      </trkpt>
      <trkpt lat="43.558028" lon="-6.890348">
        <ele>53.359</ele>
        <time>2019-06-19T13:09:21Z</time>
      </trkpt>
      <trkpt lat="43.558061" lon="-6.890632">
        <ele>54.079</ele>
        <time>2019-06-19T13:09:22Z</time>
      </trkpt>
      <trkpt lat="43.558098" lon="-6.890916">
        <ele>53.871</ele>
        <time>2019-06-19T13:09:23Z</time>
      </trkpt>
      <trkpt lat="43.558126" lon="-6.891194">
        <ele>53.341</ele>
        <time>2019-06-19T13:09:24Z</time>
      </trkpt>
      <trkpt lat="43.558153" lon="-6.891482">
        <ele>52.315</ele>
        <time>2019-06-19T13:09:25Z</time>
      </trkpt>
      <trkpt lat="43.558181" lon="-6.891773">
        <ele>51.408</ele>
        <time>2019-06-19T13:09:26Z</time>
      </trkpt>
      <trkpt lat="43.558198" lon="-6.892062">
        <ele>51.030</ele>
        <time>2019-06-19T13:09:27Z</time>
      </trkpt>
      <trkpt lat="43.558203" lon="-6.892359">
        <ele>51.274</ele>
        <time>2019-06-19T13:09:28Z</time>
      </trkpt>
      <trkpt lat="43.558213" lon="-6.892643">
        <ele>51.175</ele>
        <time>2019-06-19T13:09:29Z</time>
      </trkpt>
      <trkpt lat="43.558216" lon="-6.892934">
        <ele>50.828</ele>
        <time>2019-06-19T13:09:30Z</time>
      </trkpt>
      <trkpt lat="43.558229" lon="-6.893214">
        <ele>50.578</ele>
        <time>2019-06-19T13:09:31Z</time>
      </trkpt>
      <trkpt lat="43.558242" lon="-6.893500">
        <ele>50.184</ele>
        <time>2019-06-19T13:09:32Z</time>
      </trkpt>
      <trkpt lat="43.558259" lon="-6.893779">
        <ele>50.652</ele>
        <time>2019-06-19T13:09:33Z</time>
      </trkpt>
      <trkpt lat="43.558265" lon="-6.894076">
        <ele>52.392</ele>
        <time>2019-06-19T13:09:34Z</time>
      </trkpt>
      <trkpt lat="43.558265" lon="-6.894379">
        <ele>53.863</ele>
        <time>2019-06-19T13:09:35Z</time>
      </trkpt>
      <trkpt lat="43.558271" lon="-6.894681">
        <ele>54.744</ele>
        <time>2019-06-19T13:09:36Z</time>
      </trkpt>
      <trkpt lat="43.558284" lon="-6.894974">
        <ele>54.118</ele>
        <time>2019-06-19T13:09:37Z</time>
      </trkpt>
      <trkpt lat="43.558282" lon="-6.895275">
        <ele>53.008</ele>
        <time>2019-06-19T13:09:38Z</time>
      </trkpt>
      <trkpt lat="43.558277" lon="-6.895602">
        <ele>53.229</ele>
        <time>2019-06-19T13:09:39Z</time>
      </trkpt>
      <trkpt lat="43.558283" lon="-6.895915">
        <ele>54.243</ele>
        <time>2019-06-19T13:09:40Z</time>
      </trkpt>
      <trkpt lat="43.558290" lon="-6.896233">
        <ele>54.884</ele>
        <time>2019-06-19T13:09:41Z</time>
      </trkpt>
      <trkpt lat="43.558296" lon="-6.896562">
        <ele>54.917</ele>
        <time>2019-06-19T13:09:42Z</time>
      </trkpt>
      <trkpt lat="43.558319" lon="-6.896901">
        <ele>54.957</ele>
        <time>2019-06-19T13:09:43Z</time>
      </trkpt>
      <trkpt lat="43.558333" lon="-6.897249">
        <ele>55.023</ele>
        <time>2019-06-19T13:09:44Z</time>
      </trkpt>
      <trkpt lat="43.558354" lon="-6.897603">
        <ele>55.031</ele>
        <time>2019-06-19T13:09:45Z</time>
      </trkpt>
      <trkpt lat="43.558379" lon="-6.897966">
        <ele>55.311</ele>
        <time>2019-06-19T13:09:46Z</time>
      </trkpt>
      <trkpt lat="43.558391" lon="-6.898310">
        <ele>55.441</ele>
        <time>2019-06-19T13:09:47Z</time>
      </trkpt>
      <trkpt lat="43.558403" lon="-6.898651">
        <ele>55.081</ele>
        <time>2019-06-19T13:09:48Z</time>
      </trkpt>
      <trkpt lat="43.558416" lon="-6.898983">
        <ele>54.409</ele>
        <time>2019-06-19T13:09:49Z</time>
      </trkpt>
      <trkpt lat="43.558418" lon="-6.899320">
        <ele>53.308</ele>
        <time>2019-06-19T13:09:50Z</time>
      </trkpt>
      <trkpt lat="43.558425" lon="-6.899646">
        <ele>52.887</ele>
        <time>2019-06-19T13:09:51Z</time>
      </trkpt>
      <trkpt lat="43.558444" lon="-6.899989">
        <ele>53.021</ele>
        <time>2019-06-19T13:09:52Z</time>
      </trkpt>
      <trkpt lat="43.558454" lon="-6.900329">
        <ele>53.512</ele>
        <time>2019-06-19T13:09:53Z</time>
      </trkpt>
      <trkpt lat="43.558458" lon="-6.900675">
        <ele>54.295</ele>
        <time>2019-06-19T13:09:54Z</time>
      </trkpt>
      <trkpt lat="43.558455" lon="-6.901018">
        <ele>55.115</ele>
        <time>2019-06-19T13:09:55Z</time>
      </trkpt>
      <trkpt lat="43.558471" lon="-6.901361">
        <ele>55.971</ele>
        <time>2019-06-19T13:09:56Z</time>
      </trkpt>
      <trkpt lat="43.558482" lon="-6.901723">
        <ele>55.839</ele>
        <time>2019-06-19T13:09:57Z</time>
      </trkpt>
      <trkpt lat="43.558479" lon="-6.902071">
        <ele>54.879</ele>
        <time>2019-06-19T13:09:58Z</time>
      </trkpt>
      <trkpt lat="43.558488" lon="-6.902417">
        <ele>54.883</ele>
        <time>2019-06-19T13:09:59Z</time>
      </trkpt>
      <trkpt lat="43.558506" lon="-6.902778">
        <ele>54.625</ele>
        <time>2019-06-19T13:10:00Z</time>
      </trkpt>
      <trkpt lat="43.558532" lon="-6.903141">
        <ele>55.117</ele>
        <time>2019-06-19T13:10:01Z</time>
      </trkpt>
      <trkpt lat="43.558549" lon="-6.903478">
        <ele>55.208</ele>
        <time>2019-06-19T13:10:02Z</time>
      </trkpt>
      <trkpt lat="43.558570" lon="-6.903826">
        <ele>55.191</ele>
        <time>2019-06-19T13:10:03Z</time>
      </trkpt>
      <trkpt lat="43.558594" lon="-6.904172">
        <ele>55.085</ele>
        <time>2019-06-19T13:10:04Z</time>
      </trkpt>
      <trkpt lat="43.558639" lon="-6.904519">
        <ele>54.246</ele>
        <time>2019-06-19T13:10:05Z</time>
      </trkpt>
      <trkpt lat="43.558681" lon="-6.904868">
        <ele>54.979</ele>
        <time>2019-06-19T13:10:06Z</time>
      </trkpt>
      <trkpt lat="43.558727" lon="-6.905221">
        <ele>55.119</ele>
        <time>2019-06-19T13:10:07Z</time>
      </trkpt>
      <trkpt lat="43.558780" lon="-6.905578">
        <ele>54.745</ele>
        <time>2019-06-19T13:10:08Z</time>
      </trkpt>
      <trkpt lat="43.558828" lon="-6.905927">
        <ele>53.773</ele>
        <time>2019-06-19T13:10:09Z</time>
      </trkpt>
      <trkpt lat="43.558878" lon="-6.906261">
        <ele>54.623</ele>
        <time>2019-06-19T13:10:10Z</time>
      </trkpt>
      <trkpt lat="43.558932" lon="-6.906599">
        <ele>54.815</ele>
        <time>2019-06-19T13:10:11Z</time>
      </trkpt>
      <trkpt lat="43.558991" lon="-6.906937">
        <ele>54.965</ele>
        <time>2019-06-19T13:10:12Z</time>
      </trkpt>
      <trkpt lat="43.559050" lon="-6.907260">
        <ele>53.911</ele>
        <time>2019-06-19T13:10:13Z</time>
      </trkpt>
      <trkpt lat="43.559121" lon="-6.907592">
        <ele>53.908</ele>
        <time>2019-06-19T13:10:14Z</time>
      </trkpt>
      <trkpt lat="43.559192" lon="-6.907923">
        <ele>54.734</ele>
        <time>2019-06-19T13:10:15Z</time>
      </trkpt>
      <trkpt lat="43.559274" lon="-6.908245">
        <ele>55.418</ele>
        <time>2019-06-19T13:10:16Z</time>
      </trkpt>
      <trkpt lat="43.559356" lon="-6.908564">
        <ele>55.739</ele>
        <time>2019-06-19T13:10:17Z</time>
      </trkpt>
      <trkpt lat="43.559434" lon="-6.908895">
        <ele>55.992</ele>
        <time>2019-06-19T13:10:18Z</time>
      </trkpt>
      <trkpt lat="43.559516" lon="-6.909202">
        <ele>55.952</ele>
        <time>2019-06-19T13:10:19Z</time>
      </trkpt>
      <trkpt lat="43.559598" lon="-6.909526">
        <ele>55.698</ele>
        <time>2019-06-19T13:10:20Z</time>
      </trkpt>
      <trkpt lat="43.559684" lon="-6.909858">
        <ele>55.036</ele>
        <time>2019-06-19T13:10:21Z</time>
      </trkpt>
      <trkpt lat="43.559770" lon="-6.910198">
        <ele>53.316</ele>
        <time>2019-06-19T13:10:22Z</time>
      </trkpt>
      <trkpt lat="43.559854" lon="-6.910542">
        <ele>51.541</ele>
        <time>2019-06-19T13:10:23Z</time>
      </trkpt>
      <trkpt lat="43.559937" lon="-6.910885">
        <ele>51.981</ele>
        <time>2019-06-19T13:10:24Z</time>
      </trkpt>
      <trkpt lat="43.560028" lon="-6.911232">
        <ele>52.809</ele>
        <time>2019-06-19T13:10:25Z</time>
      </trkpt>
      <trkpt lat="43.560120" lon="-6.911587">
        <ele>52.608</ele>
        <time>2019-06-19T13:10:26Z</time>
      </trkpt>
      <trkpt lat="43.560215" lon="-6.911934">
        <ele>51.827</ele>
        <time>2019-06-19T13:10:27Z</time>
      </trkpt>
      <trkpt lat="43.560313" lon="-6.912289">
        <ele>49.641</ele>
        <time>2019-06-19T13:10:28Z</time>
      </trkpt>
      <trkpt lat="43.560408" lon="-6.912646">
        <ele>48.232</ele>
        <time>2019-06-19T13:10:29Z</time>
      </trkpt>
      <trkpt lat="43.560498" lon="-6.913002">
        <ele>47.925</ele>
        <time>2019-06-19T13:10:30Z</time>
      </trkpt>
      <trkpt lat="43.560585" lon="-6.913354">
        <ele>46.985</ele>
        <time>2019-06-19T13:10:31Z</time>
      </trkpt>
      <trkpt lat="43.560675" lon="-6.913697">
        <ele>45.941</ele>
        <time>2019-06-19T13:10:32Z</time>
      </trkpt>
      <trkpt lat="43.560767" lon="-6.914044">
        <ele>45.499</ele>
        <time>2019-06-19T13:10:33Z</time>
      </trkpt>
      <trkpt lat="43.560854" lon="-6.914390">
        <ele>45.729</ele>
        <time>2019-06-19T13:10:34Z</time>
      </trkpt>
      <trkpt lat="43.560937" lon="-6.914727">
        <ele>46.051</ele>
        <time>2019-06-19T13:10:35Z</time>
      </trkpt>
      <trkpt lat="43.561021" lon="-6.915072">
        <ele>47.301</ele>
        <time>2019-06-19T13:10:36Z</time>
      </trkpt>
      <trkpt lat="43.561104" lon="-6.915413">
        <ele>48.511</ele>
        <time>2019-06-19T13:10:37Z</time>
      </trkpt>
      <trkpt lat="43.561189" lon="-6.915739">
        <ele>48.708</ele>
        <time>2019-06-19T13:10:38Z</time>
      </trkpt>
      <trkpt lat="43.561267" lon="-6.916062">
        <ele>49.378</ele>
        <time>2019-06-19T13:10:39Z</time>
      </trkpt>
      <trkpt lat="43.561332" lon="-6.916357">
        <ele>49.222</ele>
        <time>2019-06-19T13:10:40Z</time>
      </trkpt>
      <trkpt lat="43.561396" lon="-6.916643">
        <ele>48.953</ele>
        <time>2019-06-19T13:10:41Z</time>
      </trkpt>
      <trkpt lat="43.561461" lon="-6.916929">
        <ele>48.526</ele>
        <time>2019-06-19T13:10:42Z</time>
      </trkpt>
      <trkpt lat="43.561525" lon="-6.917227">
        <ele>48.516</ele>
        <time>2019-06-19T13:10:43Z</time>
      </trkpt>
      <trkpt lat="43.561592" lon="-6.917529">
        <ele>48.672</ele>
        <time>2019-06-19T13:10:44Z</time>
      </trkpt>
      <trkpt lat="43.561659" lon="-6.917831">
        <ele>49.010</ele>
        <time>2019-06-19T13:10:45Z</time>
      </trkpt>
      <trkpt lat="43.561728" lon="-6.918138">
        <ele>47.830</ele>
        <time>2019-06-19T13:10:46Z</time>
      </trkpt>
      <trkpt lat="43.561801" lon="-6.918450">
        <ele>45.225</ele>
        <time>2019-06-19T13:10:47Z</time>
      </trkpt>
      <trkpt lat="43.561868" lon="-6.918774">
        <ele>43.426</ele>
        <time>2019-06-19T13:10:48Z</time>
      </trkpt>
      <trkpt lat="43.561924" lon="-6.919097">
        <ele>42.308</ele>
        <time>2019-06-19T13:10:49Z</time>
      </trkpt>
      <trkpt lat="43.561996" lon="-6.919428">
        <ele>41.708</ele>
        <time>2019-06-19T13:10:50Z</time>
      </trkpt>
      <trkpt lat="43.562058" lon="-6.919762">
        <ele>39.485</ele>
        <time>2019-06-19T13:10:51Z</time>
      </trkpt>
      <trkpt lat="43.562130" lon="-6.920089">
        <ele>37.669</ele>
        <time>2019-06-19T13:10:52Z</time>
      </trkpt>
      <trkpt lat="43.562195" lon="-6.920403">
        <ele>36.690</ele>
        <time>2019-06-19T13:10:53Z</time>
      </trkpt>
      <trkpt lat="43.562256" lon="-6.920699">
        <ele>36.123</ele>
        <time>2019-06-19T13:10:54Z</time>
      </trkpt>
      <trkpt lat="43.562313" lon="-6.920982">
        <ele>36.063</ele>
        <time>2019-06-19T13:10:55Z</time>
      </trkpt>
      <trkpt lat="43.562367" lon="-6.921253">
        <ele>35.589</ele>
        <time>2019-06-19T13:10:56Z</time>
      </trkpt>
      <trkpt lat="43.562421" lon="-6.921493">
        <ele>34.857</ele>
        <time>2019-06-19T13:10:57Z</time>
      </trkpt>
      <trkpt lat="43.562482" lon="-6.921728">
        <ele>34.137</ele>
        <time>2019-06-19T13:10:58Z</time>
      </trkpt>
      <trkpt lat="43.562549" lon="-6.921949">
        <ele>34.034</ele>
        <time>2019-06-19T13:10:59Z</time>
      </trkpt>
      <trkpt lat="43.562625" lon="-6.922152">
        <ele>34.055</ele>
        <time>2019-06-19T13:11:00Z</time>
      </trkpt>
      <trkpt lat="43.562705" lon="-6.922338">
        <ele>34.710</ele>
        <time>2019-06-19T13:11:01Z</time>
      </trkpt>
      <trkpt lat="43.562778" lon="-6.922514">
        <ele>36.008</ele>
        <time>2019-06-19T13:11:02Z</time>
      </trkpt>
      <trkpt lat="43.562848" lon="-6.922661">
        <ele>36.146</ele>
        <time>2019-06-19T13:11:03Z</time>
      </trkpt>
      <trkpt lat="43.562918" lon="-6.922800">
        <ele>36.590</ele>
        <time>2019-06-19T13:11:04Z</time>
      </trkpt>
      <trkpt lat="43.562996" lon="-6.922925">
        <ele>36.411</ele>
        <time>2019-06-19T13:11:05Z</time>
      </trkpt>
      <trkpt lat="43.563077" lon="-6.923023">
        <ele>36.034</ele>
        <time>2019-06-19T13:11:06Z</time>
      </trkpt>
      <trkpt lat="43.563157" lon="-6.923096">
        <ele>35.544</ele>
        <time>2019-06-19T13:11:07Z</time>
      </trkpt>
      <trkpt lat="43.563210" lon="-6.923191">
        <ele>35.260</ele>
        <time>2019-06-19T13:11:08Z</time>
      </trkpt>
      <trkpt lat="43.563265" lon="-6.923282">
        <ele>35.058</ele>
        <time>2019-06-19T13:11:09Z</time>
      </trkpt>
      <trkpt lat="43.563290" lon="-6.923405">
        <ele>35.048</ele>
        <time>2019-06-19T13:11:10Z</time>
      </trkpt>
      <trkpt lat="43.563292" lon="-6.923527">
        <ele>35.062</ele>
        <time>2019-06-19T13:11:11Z</time>
      </trkpt>
      <trkpt lat="43.563286" lon="-6.923645">
        <ele>35.183</ele>
        <time>2019-06-19T13:11:12Z</time>
      </trkpt>
      <trkpt lat="43.563224" lon="-6.923783">
        <ele>35.111</ele>
        <time>2019-06-19T13:11:13Z</time>
      </trkpt>
      <trkpt lat="43.563160" lon="-6.923908">
        <ele>34.708</ele>
        <time>2019-06-19T13:11:14Z</time>
      </trkpt>
      <trkpt lat="43.563111" lon="-6.924040">
        <ele>34.369</ele>
        <time>2019-06-19T13:11:15Z</time>
      </trkpt>
      <trkpt lat="43.563085" lon="-6.924191">
        <ele>34.063</ele>
        <time>2019-06-19T13:11:16Z</time>
      </trkpt>
      <trkpt lat="43.563071" lon="-6.924364">
        <ele>33.324</ele>
        <time>2019-06-19T13:11:17Z</time>
      </trkpt>
      <trkpt lat="43.563064" lon="-6.924538">
        <ele>33.347</ele>
        <time>2019-06-19T13:11:18Z</time>
      </trkpt>
      <trkpt lat="43.563080" lon="-6.924729">
        <ele>34.017</ele>
        <time>2019-06-19T13:11:19Z</time>
      </trkpt>
      <trkpt lat="43.563142" lon="-6.924940">
        <ele>34.013</ele>
        <time>2019-06-19T13:11:20Z</time>
      </trkpt>
      <trkpt lat="43.563192" lon="-6.925155">
        <ele>33.781</ele>
        <time>2019-06-19T13:11:21Z</time>
      </trkpt>
      <trkpt lat="43.563250" lon="-6.925373">
        <ele>33.451</ele>
        <time>2019-06-19T13:11:22Z</time>
      </trkpt>
      <trkpt lat="43.563301" lon="-6.925604">
        <ele>33.294</ele>
        <time>2019-06-19T13:11:23Z</time>
      </trkpt>
      <trkpt lat="43.563360" lon="-6.925858">
        <ele>32.957</ele>
        <time>2019-06-19T13:11:24Z</time>
      </trkpt>
      <trkpt lat="43.563419" lon="-6.926124">
        <ele>32.722</ele>
        <time>2019-06-19T13:11:25Z</time>
      </trkpt>
      <trkpt lat="43.563479" lon="-6.926402">
        <ele>33.508</ele>
        <time>2019-06-19T13:11:26Z</time>
      </trkpt>
      <trkpt lat="43.563538" lon="-6.926679">
        <ele>34.052</ele>
        <time>2019-06-19T13:11:27Z</time>
      </trkpt>
      <trkpt lat="43.563595" lon="-6.926962">
        <ele>33.946</ele>
        <time>2019-06-19T13:11:28Z</time>
      </trkpt>
      <trkpt lat="43.563652" lon="-6.927254">
        <ele>32.997</ele>
        <time>2019-06-19T13:11:29Z</time>
      </trkpt>
      <trkpt lat="43.563704" lon="-6.927521">
        <ele>32.340</ele>
        <time>2019-06-19T13:11:30Z</time>
      </trkpt>
      <trkpt lat="43.563769" lon="-6.927820">
        <ele>31.680</ele>
        <time>2019-06-19T13:11:31Z</time>
      </trkpt>
      <trkpt lat="43.563830" lon="-6.928126">
        <ele>31.856</ele>
        <time>2019-06-19T13:11:32Z</time>
      </trkpt>
      <trkpt lat="43.563884" lon="-6.928434">
        <ele>32.014</ele>
        <time>2019-06-19T13:11:33Z</time>
      </trkpt>
      <trkpt lat="43.563925" lon="-6.928733">
        <ele>32.044</ele>
        <time>2019-06-19T13:11:34Z</time>
      </trkpt>
      <trkpt lat="43.563978" lon="-6.929049">
        <ele>31.491</ele>
        <time>2019-06-19T13:11:35Z</time>
      </trkpt>
      <trkpt lat="43.564015" lon="-6.929369">
        <ele>31.081</ele>
        <time>2019-06-19T13:11:36Z</time>
      </trkpt>
      <trkpt lat="43.564043" lon="-6.929692">
        <ele>30.619</ele>
        <time>2019-06-19T13:11:37Z</time>
      </trkpt>
      <trkpt lat="43.564066" lon="-6.930016">
        <ele>31.108</ele>
        <time>2019-06-19T13:11:38Z</time>
      </trkpt>
      <trkpt lat="43.564074" lon="-6.930337">
        <ele>32.232</ele>
        <time>2019-06-19T13:11:39Z</time>
      </trkpt>
      <trkpt lat="43.564074" lon="-6.930664">
        <ele>33.476</ele>
        <time>2019-06-19T13:11:40Z</time>
      </trkpt>
      <trkpt lat="43.564052" lon="-6.930989">
        <ele>34.027</ele>
        <time>2019-06-19T13:11:41Z</time>
      </trkpt>
      <trkpt lat="43.564032" lon="-6.931313">
        <ele>33.640</ele>
        <time>2019-06-19T13:11:42Z</time>
      </trkpt>
      <trkpt lat="43.564006" lon="-6.931635">
        <ele>32.560</ele>
        <time>2019-06-19T13:11:43Z</time>
      </trkpt>
      <trkpt lat="43.563970" lon="-6.931953">
        <ele>32.756</ele>
        <time>2019-06-19T13:11:44Z</time>
      </trkpt>
      <trkpt lat="43.563926" lon="-6.932262">
        <ele>34.124</ele>
        <time>2019-06-19T13:11:45Z</time>
      </trkpt>
      <trkpt lat="43.563874" lon="-6.932576">
        <ele>36.344</ele>
        <time>2019-06-19T13:11:46Z</time>
      </trkpt>
      <trkpt lat="43.563813" lon="-6.932877">
        <ele>36.498</ele>
        <time>2019-06-19T13:11:47Z</time>
      </trkpt>
      <trkpt lat="43.563746" lon="-6.933178">
        <ele>35.515</ele>
        <time>2019-06-19T13:11:48Z</time>
      </trkpt>
      <trkpt lat="43.563669" lon="-6.933481">
        <ele>35.726</ele>
        <time>2019-06-19T13:11:49Z</time>
      </trkpt>
      <trkpt lat="43.563586" lon="-6.933777">
        <ele>35.908</ele>
        <time>2019-06-19T13:11:50Z</time>
      </trkpt>
      <trkpt lat="43.563490" lon="-6.934070">
        <ele>35.922</ele>
        <time>2019-06-19T13:11:51Z</time>
      </trkpt>
      <trkpt lat="43.563390" lon="-6.934364">
        <ele>36.536</ele>
        <time>2019-06-19T13:11:52Z</time>
      </trkpt>
      <trkpt lat="43.563285" lon="-6.934659">
        <ele>37.087</ele>
        <time>2019-06-19T13:11:53Z</time>
      </trkpt>
      <trkpt lat="43.563180" lon="-6.934960">
        <ele>35.350</ele>
        <time>2019-06-19T13:11:54Z</time>
      </trkpt>
      <trkpt lat="43.563073" lon="-6.935261">
        <ele>33.260</ele>
        <time>2019-06-19T13:11:55Z</time>
      </trkpt>
      <trkpt lat="43.562965" lon="-6.935560">
        <ele>32.316</ele>
        <time>2019-06-19T13:11:56Z</time>
      </trkpt>
      <trkpt lat="43.562856" lon="-6.935870">
        <ele>31.784</ele>
        <time>2019-06-19T13:11:57Z</time>
      </trkpt>
      <trkpt lat="43.562749" lon="-6.936184">
        <ele>31.894</ele>
        <time>2019-06-19T13:11:58Z</time>
      </trkpt>
      <trkpt lat="43.562640" lon="-6.936485">
        <ele>31.228</ele>
        <time>2019-06-19T13:11:59Z</time>
      </trkpt>
      <trkpt lat="43.562528" lon="-6.936788">
        <ele>30.789</ele>
        <time>2019-06-19T13:12:00Z</time>
      </trkpt>
      <trkpt lat="43.562417" lon="-6.937090">
        <ele>30.417</ele>
        <time>2019-06-19T13:12:01Z</time>
      </trkpt>
      <trkpt lat="43.562306" lon="-6.937390">
        <ele>29.608</ele>
        <time>2019-06-19T13:12:02Z</time>
      </trkpt>
      <trkpt lat="43.562196" lon="-6.937698">
        <ele>28.965</ele>
        <time>2019-06-19T13:12:03Z</time>
      </trkpt>
      <trkpt lat="43.562091" lon="-6.938012">
        <ele>28.589</ele>
        <time>2019-06-19T13:12:04Z</time>
      </trkpt>
      <trkpt lat="43.561979" lon="-6.938322">
        <ele>28.090</ele>
        <time>2019-06-19T13:12:05Z</time>
      </trkpt>
      <trkpt lat="43.561867" lon="-6.938646">
        <ele>28.183</ele>
        <time>2019-06-19T13:12:06Z</time>
      </trkpt>
      <trkpt lat="43.561753" lon="-6.938975">
        <ele>26.693</ele>
        <time>2019-06-19T13:12:07Z</time>
      </trkpt>
      <trkpt lat="43.561646" lon="-6.939312">
        <ele>25.049</ele>
        <time>2019-06-19T13:12:08Z</time>
      </trkpt>
      <trkpt lat="43.561542" lon="-6.939656">
        <ele>25.067</ele>
        <time>2019-06-19T13:12:09Z</time>
      </trkpt>
      <trkpt lat="43.561436" lon="-6.940000">
        <ele>23.237</ele>
        <time>2019-06-19T13:12:10Z</time>
      </trkpt>
      <trkpt lat="43.561338" lon="-6.940312">
        <ele>19.145</ele>
        <time>2019-06-19T13:12:11Z</time>
      </trkpt>
      <trkpt lat="43.561251" lon="-6.940639">
        <ele>13.847</ele>
        <time>2019-06-19T13:12:12Z</time>
      </trkpt>
      <trkpt lat="43.561165" lon="-6.940977">
        <ele>10.711</ele>
        <time>2019-06-19T13:12:13Z</time>
      </trkpt>
      <trkpt lat="43.561073" lon="-6.941319">
        <ele>9.108</ele>
        <time>2019-06-19T13:12:14Z</time>
      </trkpt>
      <trkpt lat="43.560993" lon="-6.941604">
        <ele>8.237</ele>
        <time>2019-06-19T13:12:15Z</time>
      </trkpt>
      <trkpt lat="43.560900" lon="-6.941948">
        <ele>7.221</ele>
        <time>2019-06-19T13:12:16Z</time>
      </trkpt>
      <trkpt lat="43.560821" lon="-6.942273">
        <ele>7.042</ele>
        <time>2019-06-19T13:12:17Z</time>
      </trkpt>
      <trkpt lat="43.560742" lon="-6.942594">
        <ele>7.555</ele>
        <time>2019-06-19T13:12:18Z</time>
      </trkpt>
      <trkpt lat="43.560665" lon="-6.942867">
        <ele>9.115</ele>
        <time>2019-06-19T13:12:19Z</time>
      </trkpt>
      <trkpt lat="43.560583" lon="-6.943173">
        <ele>11.651</ele>
        <time>2019-06-19T13:12:20Z</time>
      </trkpt>
      <trkpt lat="43.560480" lon="-6.943445">
        <ele>14.219</ele>
        <time>2019-06-19T13:12:21Z</time>
      </trkpt>
      <trkpt lat="43.560367" lon="-6.943711">
        <ele>15.429</ele>
        <time>2019-06-19T13:12:22Z</time>
      </trkpt>
      <trkpt lat="43.560218" lon="-6.943976">
        <ele>16.429</ele>
        <time>2019-06-19T13:12:23Z</time>
      </trkpt>
      <trkpt lat="43.560067" lon="-6.944227">
        <ele>16.400</ele>
        <time>2019-06-19T13:12:24Z</time>
      </trkpt>
      <trkpt lat="43.559891" lon="-6.944451">
        <ele>13.320</ele>
        <time>2019-06-19T13:12:25Z</time>
      </trkpt>
      <trkpt lat="43.559722" lon="-6.944688">
        <ele>11.408</ele>
        <time>2019-06-19T13:12:26Z</time>
      </trkpt>
      <trkpt lat="43.559541" lon="-6.944900">
        <ele>12.335</ele>
        <time>2019-06-19T13:12:27Z</time>
      </trkpt>
      <trkpt lat="43.559340" lon="-6.945069">
        <ele>13.729</ele>
        <time>2019-06-19T13:12:28Z</time>
      </trkpt>
      <trkpt lat="43.559119" lon="-6.945263">
        <ele>15.840</ele>
        <time>2019-06-19T13:12:29Z</time>
      </trkpt>
      <trkpt lat="43.558914" lon="-6.945405">
        <ele>17.823</ele>
        <time>2019-06-19T13:12:30Z</time>
      </trkpt>
      <trkpt lat="43.558718" lon="-6.945595">
        <ele>19.823</ele>
        <time>2019-06-19T13:12:31Z</time>
      </trkpt>
      <trkpt lat="43.558521" lon="-6.945774">
        <ele>20.899</ele>
        <time>2019-06-19T13:12:32Z</time>
      </trkpt>
      <trkpt lat="43.558316" lon="-6.945973">
        <ele>21.117</ele>
        <time>2019-06-19T13:12:33Z</time>
      </trkpt>
      <trkpt lat="43.558123" lon="-6.946155">
        <ele>23.097</ele>
        <time>2019-06-19T13:12:34Z</time>
      </trkpt>
      <trkpt lat="43.557936" lon="-6.946355">
        <ele>24.375</ele>
        <time>2019-06-19T13:12:35Z</time>
      </trkpt>
      <trkpt lat="43.557728" lon="-6.946547">
        <ele>25.828</ele>
        <time>2019-06-19T13:12:36Z</time>
      </trkpt>
      <trkpt lat="43.557554" lon="-6.946761">
        <ele>28.020</ele>
        <time>2019-06-19T13:12:37Z</time>
      </trkpt>
      <trkpt lat="43.557341" lon="-6.946910">
        <ele>28.808</ele>
        <time>2019-06-19T13:12:38Z</time>
      </trkpt>
      <trkpt lat="43.557143" lon="-6.947034">
        <ele>28.960</ele>
        <time>2019-06-19T13:12:39Z</time>
      </trkpt>
      <trkpt lat="43.556937" lon="-6.947217">
        <ele>29.924</ele>
        <time>2019-06-19T13:12:40Z</time>
      </trkpt>
      <trkpt lat="43.556735" lon="-6.947385">
        <ele>30.395</ele>
        <time>2019-06-19T13:12:41Z</time>
      </trkpt>
      <trkpt lat="43.556522" lon="-6.947524">
        <ele>31.648</ele>
        <time>2019-06-19T13:12:42Z</time>
      </trkpt>
      <trkpt lat="43.556304" lon="-6.947696">
        <ele>32.268</ele>
        <time>2019-06-19T13:12:43Z</time>
      </trkpt>
      <trkpt lat="43.556085" lon="-6.947830">
        <ele>33.244</ele>
        <time>2019-06-19T13:12:44Z</time>
      </trkpt>
      <trkpt lat="43.555871" lon="-6.947993">
        <ele>34.422</ele>
        <time>2019-06-19T13:12:45Z</time>
      </trkpt>
      <trkpt lat="43.555649" lon="-6.948141">
        <ele>34.922</ele>
        <time>2019-06-19T13:12:46Z</time>
      </trkpt>
      <trkpt lat="43.555416" lon="-6.948279">
        <ele>34.588</ele>
        <time>2019-06-19T13:12:47Z</time>
      </trkpt>
      <trkpt lat="43.555194" lon="-6.948434">
        <ele>33.624</ele>
        <time>2019-06-19T13:12:48Z</time>
      </trkpt>
      <trkpt lat="43.554979" lon="-6.948576">
        <ele>33.226</ele>
        <time>2019-06-19T13:12:49Z</time>
      </trkpt>
      <trkpt lat="43.554759" lon="-6.948742">
        <ele>33.908</ele>
        <time>2019-06-19T13:12:50Z</time>
      </trkpt>
      <trkpt lat="43.554547" lon="-6.948926">
        <ele>35.981</ele>
        <time>2019-06-19T13:12:51Z</time>
      </trkpt>
      <trkpt lat="43.554341" lon="-6.949116">
        <ele>36.975</ele>
        <time>2019-06-19T13:12:52Z</time>
      </trkpt>
      <trkpt lat="43.554172" lon="-6.949299">
        <ele>38.066</ele>
        <time>2019-06-19T13:12:53Z</time>
      </trkpt>
      <trkpt lat="43.554006" lon="-6.949505">
        <ele>38.889</ele>
        <time>2019-06-19T13:12:54Z</time>
      </trkpt>
      <trkpt lat="43.553838" lon="-6.949706">
        <ele>39.589</ele>
        <time>2019-06-19T13:12:55Z</time>
      </trkpt>
      <trkpt lat="43.553698" lon="-6.949911">
        <ele>40.695</ele>
        <time>2019-06-19T13:12:56Z</time>
      </trkpt>
      <trkpt lat="43.553550" lon="-6.950123">
        <ele>40.853</ele>
        <time>2019-06-19T13:12:57Z</time>
      </trkpt>
      <trkpt lat="43.553442" lon="-6.950354">
        <ele>40.173</ele>
        <time>2019-06-19T13:12:58Z</time>
      </trkpt>
      <trkpt lat="43.553315" lon="-6.950582">
        <ele>39.192</ele>
        <time>2019-06-19T13:12:59Z</time>
      </trkpt>
      <trkpt lat="43.553212" lon="-6.950819">
        <ele>39.473</ele>
        <time>2019-06-19T13:13:00Z</time>
      </trkpt>
      <trkpt lat="43.553111" lon="-6.951070">
        <ele>39.820</ele>
        <time>2019-06-19T13:13:01Z</time>
      </trkpt>
      <trkpt lat="43.552998" lon="-6.951332">
        <ele>40.008</ele>
        <time>2019-06-19T13:13:02Z</time>
      </trkpt>
      <trkpt lat="43.552911" lon="-6.951601">
        <ele>39.242</ele>
        <time>2019-06-19T13:13:03Z</time>
      </trkpt>
      <trkpt lat="43.552816" lon="-6.951889">
        <ele>38.996</ele>
        <time>2019-06-19T13:13:04Z</time>
      </trkpt>
      <trkpt lat="43.552721" lon="-6.952190">
        <ele>39.087</ele>
        <time>2019-06-19T13:13:05Z</time>
      </trkpt>
      <trkpt lat="43.552628" lon="-6.952483">
        <ele>39.050</ele>
        <time>2019-06-19T13:13:06Z</time>
      </trkpt>
      <trkpt lat="43.552529" lon="-6.952788">
        <ele>38.040</ele>
        <time>2019-06-19T13:13:07Z</time>
      </trkpt>
      <trkpt lat="43.552428" lon="-6.953099">
        <ele>38.146</ele>
        <time>2019-06-19T13:13:08Z</time>
      </trkpt>
      <trkpt lat="43.552330" lon="-6.953413">
        <ele>37.244</ele>
        <time>2019-06-19T13:13:09Z</time>
      </trkpt>
      <trkpt lat="43.552222" lon="-6.953737">
        <ele>36.134</ele>
        <time>2019-06-19T13:13:10Z</time>
      </trkpt>
      <trkpt lat="43.552120" lon="-6.954048">
        <ele>34.879</ele>
        <time>2019-06-19T13:13:11Z</time>
      </trkpt>
      <trkpt lat="43.552021" lon="-6.954368">
        <ele>34.705</ele>
        <time>2019-06-19T13:13:12Z</time>
      </trkpt>
      <trkpt lat="43.551927" lon="-6.954712">
        <ele>34.025</ele>
        <time>2019-06-19T13:13:13Z</time>
      </trkpt>
      <trkpt lat="43.551820" lon="-6.955046">
        <ele>32.008</ele>
        <time>2019-06-19T13:13:14Z</time>
      </trkpt>
      <trkpt lat="43.551708" lon="-6.955382">
        <ele>31.160</ele>
        <time>2019-06-19T13:13:15Z</time>
      </trkpt>
      <trkpt lat="43.551596" lon="-6.955716">
        <ele>31.324</ele>
        <time>2019-06-19T13:13:16Z</time>
      </trkpt>
      <trkpt lat="43.551487" lon="-6.956061">
        <ele>30.885</ele>
        <time>2019-06-19T13:13:17Z</time>
      </trkpt>
      <trkpt lat="43.551381" lon="-6.956393">
        <ele>30.028</ele>
        <time>2019-06-19T13:13:18Z</time>
      </trkpt>
      <trkpt lat="43.551280" lon="-6.956731">
        <ele>29.378</ele>
        <time>2019-06-19T13:13:19Z</time>
      </trkpt>
      <trkpt lat="43.551170" lon="-6.957071">
        <ele>29.294</ele>
        <time>2019-06-19T13:13:20Z</time>
      </trkpt>
      <trkpt lat="43.551067" lon="-6.957395">
        <ele>29.342</ele>
        <time>2019-06-19T13:13:21Z</time>
      </trkpt>
      <trkpt lat="43.550963" lon="-6.957741">
        <ele>29.642</ele>
        <time>2019-06-19T13:13:22Z</time>
      </trkpt>
      <trkpt lat="43.550848" lon="-6.958051">
        <ele>30.976</ele>
        <time>2019-06-19T13:13:23Z</time>
      </trkpt>
      <trkpt lat="43.550730" lon="-6.958381">
        <ele>31.190</ele>
        <time>2019-06-19T13:13:24Z</time>
      </trkpt>
      <trkpt lat="43.550615" lon="-6.958706">
        <ele>31.319</ele>
        <time>2019-06-19T13:13:25Z</time>
      </trkpt>
      <trkpt lat="43.550499" lon="-6.959033">
        <ele>31.308</ele>
        <time>2019-06-19T13:13:26Z</time>
      </trkpt>
      <trkpt lat="43.550380" lon="-6.959370">
        <ele>31.850</ele>
        <time>2019-06-19T13:13:27Z</time>
      </trkpt>
      <trkpt lat="43.550259" lon="-6.959701">
        <ele>32.974</ele>
        <time>2019-06-19T13:13:28Z</time>
      </trkpt>
      <trkpt lat="43.550141" lon="-6.960038">
        <ele>32.985</ele>
        <time>2019-06-19T13:13:29Z</time>
      </trkpt>
      <trkpt lat="43.550030" lon="-6.960360">
        <ele>32.978</ele>
        <time>2019-06-19T13:13:30Z</time>
      </trkpt>
      <trkpt lat="43.549921" lon="-6.960688">
        <ele>33.678</ele>
        <time>2019-06-19T13:13:31Z</time>
      </trkpt>
      <trkpt lat="43.549804" lon="-6.961013">
        <ele>34.544</ele>
        <time>2019-06-19T13:13:32Z</time>
      </trkpt>
      <trkpt lat="43.549694" lon="-6.961333">
        <ele>34.232</ele>
        <time>2019-06-19T13:13:33Z</time>
      </trkpt>
      <trkpt lat="43.549587" lon="-6.961650">
        <ele>33.572</ele>
        <time>2019-06-19T13:13:34Z</time>
      </trkpt>
      <trkpt lat="43.549476" lon="-6.961932">
        <ele>33.096</ele>
        <time>2019-06-19T13:13:35Z</time>
      </trkpt>
      <trkpt lat="43.549362" lon="-6.962235">
        <ele>32.731</ele>
        <time>2019-06-19T13:13:36Z</time>
      </trkpt>
      <trkpt lat="43.549255" lon="-6.962543">
        <ele>32.524</ele>
        <time>2019-06-19T13:13:37Z</time>
      </trkpt>
      <trkpt lat="43.549150" lon="-6.962841">
        <ele>33.008</ele>
        <time>2019-06-19T13:13:38Z</time>
      </trkpt>
      <trkpt lat="43.549049" lon="-6.963116">
        <ele>33.562</ele>
        <time>2019-06-19T13:13:39Z</time>
      </trkpt>
      <trkpt lat="43.548954" lon="-6.963413">
        <ele>34.326</ele>
        <time>2019-06-19T13:13:40Z</time>
      </trkpt>
      <trkpt lat="43.548857" lon="-6.963714">
        <ele>35.477</ele>
        <time>2019-06-19T13:13:41Z</time>
      </trkpt>
      <trkpt lat="43.548758" lon="-6.964018">
        <ele>36.090</ele>
        <time>2019-06-19T13:13:42Z</time>
      </trkpt>
      <trkpt lat="43.548666" lon="-6.964315">
        <ele>36.050</ele>
        <time>2019-06-19T13:13:43Z</time>
      </trkpt>
      <trkpt lat="43.548578" lon="-6.964608">
        <ele>35.576</ele>
        <time>2019-06-19T13:13:44Z</time>
      </trkpt>
      <trkpt lat="43.548503" lon="-6.964881">
        <ele>35.034</ele>
        <time>2019-06-19T13:13:45Z</time>
      </trkpt>
      <trkpt lat="43.548425" lon="-6.965141">
        <ele>35.054</ele>
        <time>2019-06-19T13:13:46Z</time>
      </trkpt>
      <trkpt lat="43.548357" lon="-6.965407">
        <ele>34.998</ele>
        <time>2019-06-19T13:13:47Z</time>
      </trkpt>
      <trkpt lat="43.548284" lon="-6.965659">
        <ele>35.415</ele>
        <time>2019-06-19T13:13:48Z</time>
      </trkpt>
      <trkpt lat="43.548211" lon="-6.965930">
        <ele>36.026</ele>
        <time>2019-06-19T13:13:49Z</time>
      </trkpt>
      <trkpt lat="43.548148" lon="-6.966199">
        <ele>35.908</ele>
        <time>2019-06-19T13:13:50Z</time>
      </trkpt>
      <trkpt lat="43.548078" lon="-6.966466">
        <ele>35.792</ele>
        <time>2019-06-19T13:13:51Z</time>
      </trkpt>
      <trkpt lat="43.548009" lon="-6.966726">
        <ele>34.686</ele>
        <time>2019-06-19T13:13:52Z</time>
      </trkpt>
      <trkpt lat="43.547937" lon="-6.966931">
        <ele>33.157</ele>
        <time>2019-06-19T13:13:53Z</time>
      </trkpt>
      <trkpt lat="43.547846" lon="-6.967178">
        <ele>32.270</ele>
        <time>2019-06-19T13:13:54Z</time>
      </trkpt>
      <trkpt lat="43.547740" lon="-6.967438">
        <ele>31.290</ele>
        <time>2019-06-19T13:13:55Z</time>
      </trkpt>
      <trkpt lat="43.547616" lon="-6.967680">
        <ele>30.186</ele>
        <time>2019-06-19T13:13:56Z</time>
      </trkpt>
      <trkpt lat="43.547488" lon="-6.967944">
        <ele>28.844</ele>
        <time>2019-06-19T13:13:57Z</time>
      </trkpt>
      <trkpt lat="43.547346" lon="-6.968171">
        <ele>27.974</ele>
        <time>2019-06-19T13:13:58Z</time>
      </trkpt>
      <trkpt lat="43.547160" lon="-6.968378">
        <ele>25.924</ele>
        <time>2019-06-19T13:13:59Z</time>
      </trkpt>
      <trkpt lat="43.546984" lon="-6.968589">
        <ele>22.504</ele>
        <time>2019-06-19T13:14:00Z</time>
      </trkpt>
      <trkpt lat="43.546815" lon="-6.968785">
        <ele>20.714</ele>
        <time>2019-06-19T13:14:01Z</time>
      </trkpt>
      <trkpt lat="43.546647" lon="-6.968979">
        <ele>19.608</ele>
        <time>2019-06-19T13:14:02Z</time>
      </trkpt>
      <trkpt lat="43.546482" lon="-6.969189">
        <ele>18.945</ele>
        <time>2019-06-19T13:14:03Z</time>
      </trkpt>
      <trkpt lat="43.546335" lon="-6.969389">
        <ele>18.219</ele>
        <time>2019-06-19T13:14:04Z</time>
      </trkpt>
      <trkpt lat="43.546201" lon="-6.969622">
        <ele>18.080</ele>
        <time>2019-06-19T13:14:05Z</time>
      </trkpt>
      <trkpt lat="43.546103" lon="-6.969867">
        <ele>18.683</ele>
        <time>2019-06-19T13:14:06Z</time>
      </trkpt>
      <trkpt lat="43.546026" lon="-6.970125">
        <ele>19.663</ele>
        <time>2019-06-19T13:14:07Z</time>
      </trkpt>
      <trkpt lat="43.545962" lon="-6.970417">
        <ele>21.649</ele>
        <time>2019-06-19T13:14:08Z</time>
      </trkpt>
      <trkpt lat="43.545941" lon="-6.970706">
        <ele>23.697</ele>
        <time>2019-06-19T13:14:09Z</time>
      </trkpt>
      <trkpt lat="43.545938" lon="-6.971006">
        <ele>24.467</ele>
        <time>2019-06-19T13:14:10Z</time>
      </trkpt>
      <trkpt lat="43.545949" lon="-6.971286">
        <ele>25.963</ele>
        <time>2019-06-19T13:14:11Z</time>
      </trkpt>
      <trkpt lat="43.545966" lon="-6.971574">
        <ele>27.944</ele>
        <time>2019-06-19T13:14:12Z</time>
      </trkpt>
      <trkpt lat="43.545995" lon="-6.971868">
        <ele>29.418</ele>
        <time>2019-06-19T13:14:13Z</time>
      </trkpt>
      <trkpt lat="43.546017" lon="-6.972152">
        <ele>29.708</ele>
        <time>2019-06-19T13:14:14Z</time>
      </trkpt>
      <trkpt lat="43.546035" lon="-6.972436">
        <ele>29.329</ele>
        <time>2019-06-19T13:14:15Z</time>
      </trkpt>
      <trkpt lat="43.546060" lon="-6.972714">
        <ele>30.033</ele>
        <time>2019-06-19T13:14:16Z</time>
      </trkpt>
      <trkpt lat="43.546089" lon="-6.972976">
        <ele>32.294</ele>
        <time>2019-06-19T13:14:17Z</time>
      </trkpt>
      <trkpt lat="43.546114" lon="-6.973244">
        <ele>34.497</ele>
        <time>2019-06-19T13:14:18Z</time>
      </trkpt>
      <trkpt lat="43.546124" lon="-6.973512">
        <ele>35.667</ele>
        <time>2019-06-19T13:14:19Z</time>
      </trkpt>
      <trkpt lat="43.546127" lon="-6.973777">
        <ele>35.973</ele>
        <time>2019-06-19T13:14:20Z</time>
      </trkpt>
      <trkpt lat="43.546116" lon="-6.974039">
        <ele>36.071</ele>
        <time>2019-06-19T13:14:21Z</time>
      </trkpt>
      <trkpt lat="43.546083" lon="-6.974300">
        <ele>35.941</ele>
        <time>2019-06-19T13:14:22Z</time>
      </trkpt>
      <trkpt lat="43.546041" lon="-6.974557">
        <ele>35.743</ele>
        <time>2019-06-19T13:14:23Z</time>
      </trkpt>
      <trkpt lat="43.545995" lon="-6.974795">
        <ele>35.364</ele>
        <time>2019-06-19T13:14:24Z</time>
      </trkpt>
      <trkpt lat="43.545938" lon="-6.975058">
        <ele>34.410</ele>
        <time>2019-06-19T13:14:25Z</time>
      </trkpt>
      <trkpt lat="43.545817" lon="-6.975311">
        <ele>34.008</ele>
        <time>2019-06-19T13:14:26Z</time>
      </trkpt>
      <trkpt lat="43.545653" lon="-6.975548">
        <ele>33.437</ele>
        <time>2019-06-19T13:14:27Z</time>
      </trkpt>
      <trkpt lat="43.545496" lon="-6.975744">
        <ele>31.951</ele>
        <time>2019-06-19T13:14:28Z</time>
      </trkpt>
      <trkpt lat="43.545343" lon="-6.975941">
        <ele>31.132</ele>
        <time>2019-06-19T13:14:29Z</time>
      </trkpt>
      <trkpt lat="43.545164" lon="-6.976116">
        <ele>30.085</ele>
        <time>2019-06-19T13:14:30Z</time>
      </trkpt>
      <trkpt lat="43.544988" lon="-6.976283">
        <ele>28.775</ele>
        <time>2019-06-19T13:14:31Z</time>
      </trkpt>
      <trkpt lat="43.544797" lon="-6.976454">
        <ele>26.111</ele>
        <time>2019-06-19T13:14:32Z</time>
      </trkpt>
      <trkpt lat="43.544621" lon="-6.976615">
        <ele>23.989</ele>
        <time>2019-06-19T13:14:33Z</time>
      </trkpt>
      <trkpt lat="43.544444" lon="-6.976770">
        <ele>22.689</ele>
        <time>2019-06-19T13:14:34Z</time>
      </trkpt>
      <trkpt lat="43.544266" lon="-6.976950">
        <ele>22.647</ele>
        <time>2019-06-19T13:14:35Z</time>
      </trkpt>
      <trkpt lat="43.544104" lon="-6.977198">
        <ele>22.129</ele>
        <time>2019-06-19T13:14:36Z</time>
      </trkpt>
      <trkpt lat="43.543940" lon="-6.977440">
        <ele>21.121</ele>
        <time>2019-06-19T13:14:37Z</time>
      </trkpt>
      <trkpt lat="43.543801" lon="-6.977685">
        <ele>21.808</ele>
        <time>2019-06-19T13:14:38Z</time>
      </trkpt>
      <trkpt lat="43.543669" lon="-6.977938">
        <ele>23.897</ele>
        <time>2019-06-19T13:14:39Z</time>
      </trkpt>
      <trkpt lat="43.543532" lon="-6.978189">
        <ele>26.021</ele>
        <time>2019-06-19T13:14:40Z</time>
      </trkpt>
      <trkpt lat="43.543496" lon="-6.978506">
        <ele>27.612</ele>
        <time>2019-06-19T13:14:41Z</time>
      </trkpt>
      <trkpt lat="43.543412" lon="-6.978792">
        <ele>29.395</ele>
        <time>2019-06-19T13:14:42Z</time>
      </trkpt>
      <trkpt lat="43.543360" lon="-6.979091">
        <ele>30.545</ele>
        <time>2019-06-19T13:14:43Z</time>
      </trkpt>
      <trkpt lat="43.543324" lon="-6.979388">
        <ele>32.741</ele>
        <time>2019-06-19T13:14:44Z</time>
      </trkpt>
      <trkpt lat="43.543288" lon="-6.979691">
        <ele>34.879</ele>
        <time>2019-06-19T13:14:45Z</time>
      </trkpt>
      <trkpt lat="43.543261" lon="-6.979972">
        <ele>35.729</ele>
        <time>2019-06-19T13:14:46Z</time>
      </trkpt>
      <trkpt lat="43.543234" lon="-6.980227">
        <ele>35.977</ele>
        <time>2019-06-19T13:14:47Z</time>
      </trkpt>
      <trkpt lat="43.543202" lon="-6.980494">
        <ele>36.061</ele>
        <time>2019-06-19T13:14:48Z</time>
      </trkpt>
      <trkpt lat="43.543179" lon="-6.980722">
        <ele>36.327</ele>
        <time>2019-06-19T13:14:49Z</time>
      </trkpt>
      <trkpt lat="43.543151" lon="-6.980964">
        <ele>36.808</ele>
        <time>2019-06-19T13:14:50Z</time>
      </trkpt>
      <trkpt lat="43.543118" lon="-6.981194">
        <ele>37.350</ele>
        <time>2019-06-19T13:14:51Z</time>
      </trkpt>
      <trkpt lat="43.543094" lon="-6.981402">
        <ele>38.034</ele>
        <time>2019-06-19T13:14:52Z</time>
      </trkpt>
      <trkpt lat="43.543070" lon="-6.981600">
        <ele>38.865</ele>
        <time>2019-06-19T13:14:53Z</time>
      </trkpt>
      <trkpt lat="43.543058" lon="-6.981782">
        <ele>39.028</ele>
        <time>2019-06-19T13:14:54Z</time>
      </trkpt>
      <trkpt lat="43.543038" lon="-6.981973">
        <ele>39.248</ele>
        <time>2019-06-19T13:14:55Z</time>
      </trkpt>
      <trkpt lat="43.543004" lon="-6.982175">
        <ele>40.074</ele>
        <time>2019-06-19T13:14:56Z</time>
      </trkpt>
      <trkpt lat="43.542952" lon="-6.982378">
        <ele>40.052</ele>
        <time>2019-06-19T13:14:57Z</time>
      </trkpt>
      <trkpt lat="43.542898" lon="-6.982600">
        <ele>40.142</ele>
        <time>2019-06-19T13:14:58Z</time>
      </trkpt>
      <trkpt lat="43.542834" lon="-6.982835">
        <ele>40.636</ele>
        <time>2019-06-19T13:14:59Z</time>
      </trkpt>
      <trkpt lat="43.542762" lon="-6.983066">
        <ele>41.117</ele>
        <time>2019-06-19T13:15:00Z</time>
      </trkpt>
      <trkpt lat="43.542689" lon="-6.983283">
        <ele>41.618</ele>
        <time>2019-06-19T13:15:01Z</time>
      </trkpt>
      <trkpt lat="43.542608" lon="-6.983516">
        <ele>41.408</ele>
        <time>2019-06-19T13:15:02Z</time>
      </trkpt>
      <trkpt lat="43.542529" lon="-6.983764">
        <ele>40.666</ele>
        <time>2019-06-19T13:15:03Z</time>
      </trkpt>
      <trkpt lat="43.542448" lon="-6.984002">
        <ele>39.330</ele>
        <time>2019-06-19T13:15:04Z</time>
      </trkpt>
      <trkpt lat="43.542368" lon="-6.984242">
        <ele>38.261</ele>
        <time>2019-06-19T13:15:05Z</time>
      </trkpt>
      <trkpt lat="43.542290" lon="-6.984475">
        <ele>37.644</ele>
        <time>2019-06-19T13:15:06Z</time>
      </trkpt>
      <trkpt lat="43.542212" lon="-6.984705">
        <ele>36.254</ele>
        <time>2019-06-19T13:15:07Z</time>
      </trkpt>
      <trkpt lat="43.542142" lon="-6.984922">
        <ele>35.760</ele>
        <time>2019-06-19T13:15:08Z</time>
      </trkpt>
      <trkpt lat="43.542075" lon="-6.985133">
        <ele>34.858</ele>
        <time>2019-06-19T13:15:09Z</time>
      </trkpt>
      <trkpt lat="43.542025" lon="-6.985299">
        <ele>34.098</ele>
        <time>2019-06-19T13:15:10Z</time>
      </trkpt>
      <trkpt lat="43.541976" lon="-6.985459">
        <ele>34.045</ele>
        <time>2019-06-19T13:15:11Z</time>
      </trkpt>
      <trkpt lat="43.541938" lon="-6.985600">
        <ele>34.047</ele>
        <time>2019-06-19T13:15:12Z</time>
      </trkpt>
      <trkpt lat="43.541913" lon="-6.985691">
        <ele>34.011</ele>
        <time>2019-06-19T13:15:13Z</time>
      </trkpt>
      <trkpt lat="43.541898" lon="-6.985782">
        <ele>34.008</ele>
        <time>2019-06-19T13:15:14Z</time>
      </trkpt>
      <trkpt lat="43.541922" lon="-6.985841">
        <ele>34.057</ele>
        <time>2019-06-19T13:15:20Z</time>
      </trkpt>
      <trkpt lat="43.541937" lon="-6.985941">
        <ele>34.041</ele>
        <time>2019-06-19T13:15:21Z</time>
      </trkpt>
      <trkpt lat="43.541942" lon="-6.986048">
        <ele>34.082</ele>
        <time>2019-06-19T13:15:22Z</time>
      </trkpt>
      <trkpt lat="43.541940" lon="-6.986153">
        <ele>33.895</ele>
        <time>2019-06-19T13:15:23Z</time>
      </trkpt>
      <trkpt lat="43.541914" lon="-6.986249">
        <ele>33.555</ele>
        <time>2019-06-19T13:15:24Z</time>
      </trkpt>
      <trkpt lat="43.541860" lon="-6.986326">
        <ele>33.291</ele>
        <time>2019-06-19T13:15:25Z</time>
      </trkpt>
      <trkpt lat="43.541796" lon="-6.986360">
        <ele>33.129</ele>
        <time>2019-06-19T13:15:26Z</time>
      </trkpt>
      <trkpt lat="43.541707" lon="-6.986354">
        <ele>33.199</ele>
        <time>2019-06-19T13:15:27Z</time>
      </trkpt>
      <trkpt lat="43.541625" lon="-6.986329">
        <ele>33.285</ele>
        <time>2019-06-19T13:15:28Z</time>
      </trkpt>
      <trkpt lat="43.541565" lon="-6.986262">
        <ele>33.389</ele>
        <time>2019-06-19T13:15:29Z</time>
      </trkpt>
      <trkpt lat="43.541506" lon="-6.986199">
        <ele>33.317</ele>
        <time>2019-06-19T13:15:30Z</time>
      </trkpt>
      <trkpt lat="43.541450" lon="-6.986103">
        <ele>33.208</ele>
        <time>2019-06-19T13:15:31Z</time>
      </trkpt>
      <trkpt lat="43.541394" lon="-6.986004">
        <ele>33.071</ele>
        <time>2019-06-19T13:15:32Z</time>
      </trkpt>
      <trkpt lat="43.541329" lon="-6.985917">
        <ele>33.275</ele>
        <time>2019-06-19T13:15:33Z</time>
      </trkpt>
      <trkpt lat="43.541252" lon="-6.985851">
        <ele>33.526</ele>
        <time>2019-06-19T13:15:34Z</time>
      </trkpt>
      <trkpt lat="43.541166" lon="-6.985819">
        <ele>33.929</ele>
        <time>2019-06-19T13:15:35Z</time>
      </trkpt>
      <trkpt lat="43.541086" lon="-6.985782">
        <ele>34.449</ele>
        <time>2019-06-19T13:15:36Z</time>
      </trkpt>
      <trkpt lat="43.541009" lon="-6.985716">
        <ele>34.835</ele>
        <time>2019-06-19T13:15:37Z</time>
      </trkpt>
      <trkpt lat="43.540921" lon="-6.985656">
        <ele>35.313</ele>
        <time>2019-06-19T13:15:38Z</time>
      </trkpt>
      <trkpt lat="43.540806" lon="-6.985602">
        <ele>35.723</ele>
        <time>2019-06-19T13:15:39Z</time>
      </trkpt>
      <trkpt lat="43.540693" lon="-6.985533">
        <ele>36.263</ele>
        <time>2019-06-19T13:15:40Z</time>
      </trkpt>
      <trkpt lat="43.540572" lon="-6.985463">
        <ele>37.044</ele>
        <time>2019-06-19T13:15:41Z</time>
      </trkpt>
      <trkpt lat="43.540451" lon="-6.985392">
        <ele>36.918</ele>
        <time>2019-06-19T13:15:42Z</time>
      </trkpt>
      <trkpt lat="43.540337" lon="-6.985328">
        <ele>36.408</ele>
        <time>2019-06-19T13:15:43Z</time>
      </trkpt>
      <trkpt lat="43.540245" lon="-6.985277">
        <ele>35.929</ele>
        <time>2019-06-19T13:15:44Z</time>
      </trkpt>
      <trkpt lat="43.540087" lon="-6.985218">
        <ele>35.453</ele>
        <time>2019-06-19T13:15:45Z</time>
      </trkpt>
      <trkpt lat="43.540008" lon="-6.985166">
        <ele>35.034</ele>
        <time>2019-06-19T13:15:46Z</time>
      </trkpt>
      <trkpt lat="43.539926" lon="-6.985148">
        <ele>34.317</ele>
        <time>2019-06-19T13:15:47Z</time>
      </trkpt>
      <trkpt lat="43.539857" lon="-6.985140">
        <ele>33.787</ele>
        <time>2019-06-19T13:15:48Z</time>
      </trkpt>
      <trkpt lat="43.539776" lon="-6.985162">
        <ele>32.953</ele>
        <time>2019-06-19T13:15:49Z</time>
      </trkpt>
      <trkpt lat="43.539680" lon="-6.985176">
        <ele>32.011</ele>
        <time>2019-06-19T13:15:50Z</time>
      </trkpt>
      <trkpt lat="43.539584" lon="-6.985195">
        <ele>31.211</ele>
        <time>2019-06-19T13:15:51Z</time>
      </trkpt>
      <trkpt lat="43.539509" lon="-6.985205">
        <ele>30.528</ele>
        <time>2019-06-19T13:15:52Z</time>
      </trkpt>
      <trkpt lat="43.539428" lon="-6.985309">
        <ele>29.989</ele>
        <time>2019-06-19T13:15:54Z</time>
      </trkpt>
      <trkpt lat="43.539374" lon="-6.985394">
        <ele>29.817</ele>
        <time>2019-06-19T13:15:55Z</time>
      </trkpt>
      <trkpt lat="43.539328" lon="-6.985484">
        <ele>29.908</ele>
        <time>2019-06-19T13:15:56Z</time>
      </trkpt>
      <trkpt lat="43.539309" lon="-6.985616">
        <ele>30.285</ele>
        <time>2019-06-19T13:15:57Z</time>
      </trkpt>
      <trkpt lat="43.539304" lon="-6.985823">
        <ele>31.019</ele>
        <time>2019-06-19T13:15:58Z</time>
      </trkpt>
      <trkpt lat="43.539300" lon="-6.986003">
        <ele>31.760</ele>
        <time>2019-06-19T13:15:59Z</time>
      </trkpt>
      <trkpt lat="43.539312" lon="-6.986209">
        <ele>32.473</ele>
        <time>2019-06-19T13:16:00Z</time>
      </trkpt>
      <trkpt lat="43.539322" lon="-6.986418">
        <ele>33.673</ele>
        <time>2019-06-19T13:16:01Z</time>
      </trkpt>
      <trkpt lat="43.539333" lon="-6.986637">
        <ele>35.989</ele>
        <time>2019-06-19T13:16:02Z</time>
      </trkpt>
      <trkpt lat="43.539354" lon="-6.986854">
        <ele>37.397</ele>
        <time>2019-06-19T13:16:03Z</time>
      </trkpt>
      <trkpt lat="43.539389" lon="-6.987084">
        <ele>38.547</ele>
        <time>2019-06-19T13:16:04Z</time>
      </trkpt>
      <trkpt lat="43.539430" lon="-6.987325">
        <ele>39.543</ele>
        <time>2019-06-19T13:16:05Z</time>
      </trkpt>
      <trkpt lat="43.539477" lon="-6.987582">
        <ele>40.264</ele>
        <time>2019-06-19T13:16:06Z</time>
      </trkpt>
      <trkpt lat="43.539529" lon="-6.987841">
        <ele>41.210</ele>
        <time>2019-06-19T13:16:07Z</time>
      </trkpt>
      <trkpt lat="43.539590" lon="-6.988087">
        <ele>42.508</ele>
        <time>2019-06-19T13:16:08Z</time>
      </trkpt>
      <trkpt lat="43.539653" lon="-6.988328">
        <ele>42.577</ele>
        <time>2019-06-19T13:16:09Z</time>
      </trkpt>
      <trkpt lat="43.539722" lon="-6.988559">
        <ele>42.081</ele>
        <time>2019-06-19T13:16:10Z</time>
      </trkpt>
      <trkpt lat="43.539790" lon="-6.988784">
        <ele>41.542</ele>
        <time>2019-06-19T13:16:11Z</time>
      </trkpt>
      <trkpt lat="43.539860" lon="-6.989014">
        <ele>40.885</ele>
        <time>2019-06-19T13:16:12Z</time>
      </trkpt>
      <trkpt lat="43.539930" lon="-6.989237">
        <ele>40.065</ele>
        <time>2019-06-19T13:16:13Z</time>
      </trkpt>
      <trkpt lat="43.539993" lon="-6.989465">
        <ele>39.071</ele>
        <time>2019-06-19T13:16:14Z</time>
      </trkpt>
      <trkpt lat="43.540046" lon="-6.989683">
        <ele>38.099</ele>
        <time>2019-06-19T13:16:15Z</time>
      </trkpt>
      <trkpt lat="43.540088" lon="-6.989921">
        <ele>37.749</ele>
        <time>2019-06-19T13:16:16Z</time>
      </trkpt>
      <trkpt lat="43.540114" lon="-6.990164">
        <ele>38.258</ele>
        <time>2019-06-19T13:16:17Z</time>
      </trkpt>
      <trkpt lat="43.540121" lon="-6.990436">
        <ele>39.752</ele>
        <time>2019-06-19T13:16:18Z</time>
      </trkpt>
      <trkpt lat="43.540123" lon="-6.990697">
        <ele>40.617</ele>
        <time>2019-06-19T13:16:19Z</time>
      </trkpt>
      <trkpt lat="43.540085" lon="-6.990950">
        <ele>40.408</ele>
        <time>2019-06-19T13:16:20Z</time>
      </trkpt>
      <trkpt lat="43.540030" lon="-6.991225">
        <ele>40.018</ele>
        <time>2019-06-19T13:16:21Z</time>
      </trkpt>
      <trkpt lat="43.539961" lon="-6.991469">
        <ele>40.362</ele>
        <time>2019-06-19T13:16:22Z</time>
      </trkpt>
      <trkpt lat="43.539874" lon="-6.991737">
        <ele>41.043</ele>
        <time>2019-06-19T13:16:23Z</time>
      </trkpt>
      <trkpt lat="43.539794" lon="-6.991997">
        <ele>41.876</ele>
        <time>2019-06-19T13:16:24Z</time>
      </trkpt>
      <trkpt lat="43.539701" lon="-6.992259">
        <ele>42.286</ele>
        <time>2019-06-19T13:16:25Z</time>
      </trkpt>
      <trkpt lat="43.539611" lon="-6.992529">
        <ele>43.022</ele>
        <time>2019-06-19T13:16:26Z</time>
      </trkpt>
      <trkpt lat="43.539520" lon="-6.992804">
        <ele>42.970</ele>
        <time>2019-06-19T13:16:27Z</time>
      </trkpt>
      <trkpt lat="43.539438" lon="-6.993071">
        <ele>42.040</ele>
        <time>2019-06-19T13:16:28Z</time>
      </trkpt>
      <trkpt lat="43.539358" lon="-6.993326">
        <ele>42.057</ele>
        <time>2019-06-19T13:16:29Z</time>
      </trkpt>
      <trkpt lat="43.539280" lon="-6.993575">
        <ele>42.500</ele>
        <time>2019-06-19T13:16:30Z</time>
      </trkpt>
      <trkpt lat="43.539197" lon="-6.993831">
        <ele>42.920</ele>
        <time>2019-06-19T13:16:31Z</time>
      </trkpt>
      <trkpt lat="43.539107" lon="-6.994100">
        <ele>42.408</ele>
        <time>2019-06-19T13:16:32Z</time>
      </trkpt>
      <trkpt lat="43.539016" lon="-6.994339">
        <ele>41.968</ele>
        <time>2019-06-19T13:16:33Z</time>
      </trkpt>
      <trkpt lat="43.538924" lon="-6.994577">
        <ele>41.912</ele>
        <time>2019-06-19T13:16:34Z</time>
      </trkpt>
      <trkpt lat="43.538819" lon="-6.994792">
        <ele>42.783</ele>
        <time>2019-06-19T13:16:35Z</time>
      </trkpt>
      <trkpt lat="43.538708" lon="-6.995011">
        <ele>43.726</ele>
        <time>2019-06-19T13:16:36Z</time>
      </trkpt>
      <trkpt lat="43.538587" lon="-6.995234">
        <ele>44.096</ele>
        <time>2019-06-19T13:16:37Z</time>
      </trkpt>
      <trkpt lat="43.538449" lon="-6.995457">
        <ele>43.482</ele>
        <time>2019-06-19T13:16:38Z</time>
      </trkpt>
      <trkpt lat="43.538313" lon="-6.995678">
        <ele>42.650</ele>
        <time>2019-06-19T13:16:39Z</time>
      </trkpt>
      <trkpt lat="43.538174" lon="-6.995911">
        <ele>41.890</ele>
        <time>2019-06-19T13:16:40Z</time>
      </trkpt>
      <trkpt lat="43.538029" lon="-6.996150">
        <ele>40.963</ele>
        <time>2019-06-19T13:16:41Z</time>
      </trkpt>
      <trkpt lat="43.537882" lon="-6.996388">
        <ele>40.044</ele>
        <time>2019-06-19T13:16:42Z</time>
      </trkpt>
      <trkpt lat="43.537735" lon="-6.996631">
        <ele>39.318</ele>
        <time>2019-06-19T13:16:43Z</time>
      </trkpt>
      <trkpt lat="43.537577" lon="-6.996878">
        <ele>39.708</ele>
        <time>2019-06-19T13:16:44Z</time>
      </trkpt>
      <trkpt lat="43.537435" lon="-6.997121">
        <ele>40.289</ele>
        <time>2019-06-19T13:16:45Z</time>
      </trkpt>
      <trkpt lat="43.537295" lon="-6.997364">
        <ele>40.793</ele>
        <time>2019-06-19T13:16:46Z</time>
      </trkpt>
      <trkpt lat="43.537155" lon="-6.997601">
        <ele>40.514</ele>
        <time>2019-06-19T13:16:47Z</time>
      </trkpt>
      <trkpt lat="43.537012" lon="-6.997838">
        <ele>40.287</ele>
        <time>2019-06-19T13:16:48Z</time>
      </trkpt>
      <trkpt lat="43.536865" lon="-6.998092">
        <ele>41.247</ele>
        <time>2019-06-19T13:16:49Z</time>
      </trkpt>
      <trkpt lat="43.536720" lon="-6.998323">
        <ele>40.883</ele>
        <time>2019-06-19T13:16:50Z</time>
      </trkpt>
      <trkpt lat="43.536577" lon="-6.998568">
        <ele>40.881</ele>
        <time>2019-06-19T13:16:51Z</time>
      </trkpt>
      <trkpt lat="43.536426" lon="-6.998820">
        <ele>40.161</ele>
        <time>2019-06-19T13:16:52Z</time>
      </trkpt>
      <trkpt lat="43.536282" lon="-6.999065">
        <ele>38.577</ele>
        <time>2019-06-19T13:16:53Z</time>
      </trkpt>
      <trkpt lat="43.536142" lon="-6.999306">
        <ele>36.761</ele>
        <time>2019-06-19T13:16:54Z</time>
      </trkpt>
      <trkpt lat="43.536006" lon="-6.999543">
        <ele>35.427</ele>
        <time>2019-06-19T13:16:55Z</time>
      </trkpt>
      <trkpt lat="43.535871" lon="-6.999774">
        <ele>35.208</ele>
        <time>2019-06-19T13:16:56Z</time>
      </trkpt>
      <trkpt lat="43.535738" lon="-7.000001">
        <ele>34.740</ele>
        <time>2019-06-19T13:16:57Z</time>
      </trkpt>
      <trkpt lat="43.535608" lon="-7.000223">
        <ele>32.654</ele>
        <time>2019-06-19T13:16:58Z</time>
      </trkpt>
      <trkpt lat="43.535473" lon="-7.000447">
        <ele>30.515</ele>
        <time>2019-06-19T13:16:59Z</time>
      </trkpt>
      <trkpt lat="43.535339" lon="-7.000658">
        <ele>29.028</ele>
        <time>2019-06-19T13:17:00Z</time>
      </trkpt>
      <trkpt lat="43.535207" lon="-7.000854">
        <ele>28.198</ele>
        <time>2019-06-19T13:17:01Z</time>
      </trkpt>
      <trkpt lat="43.535073" lon="-7.001038">
        <ele>27.364</ele>
        <time>2019-06-19T13:17:02Z</time>
      </trkpt>
      <trkpt lat="43.534932" lon="-7.001210">
        <ele>26.252</ele>
        <time>2019-06-19T13:17:03Z</time>
      </trkpt>
      <trkpt lat="43.534782" lon="-7.001375">
        <ele>24.952</ele>
        <time>2019-06-19T13:17:04Z</time>
      </trkpt>
      <trkpt lat="43.534617" lon="-7.001527">
        <ele>25.339</ele>
        <time>2019-06-19T13:17:05Z</time>
      </trkpt>
      <trkpt lat="43.534444" lon="-7.001662">
        <ele>26.101</ele>
        <time>2019-06-19T13:17:06Z</time>
      </trkpt>
      <trkpt lat="43.534260" lon="-7.001797">
        <ele>27.421</ele>
        <time>2019-06-19T13:17:07Z</time>
      </trkpt>
      <trkpt lat="43.534064" lon="-7.001915">
        <ele>27.008</ele>
        <time>2019-06-19T13:17:08Z</time>
      </trkpt>
      <trkpt lat="43.533851" lon="-7.002009">
        <ele>25.946</ele>
        <time>2019-06-19T13:17:09Z</time>
      </trkpt>
      <trkpt lat="43.533658" lon="-7.002046">
        <ele>25.760</ele>
        <time>2019-06-19T13:17:10Z</time>
      </trkpt>
      <trkpt lat="43.533475" lon="-7.002119">
        <ele>24.211</ele>
        <time>2019-06-19T13:17:11Z</time>
      </trkpt>
      <trkpt lat="43.533266" lon="-7.002203">
        <ele>22.294</ele>
        <time>2019-06-19T13:17:12Z</time>
      </trkpt>
      <trkpt lat="43.533062" lon="-7.002300">
        <ele>19.314</ele>
        <time>2019-06-19T13:17:13Z</time>
      </trkpt>
      <trkpt lat="43.532884" lon="-7.002396">
        <ele>18.030</ele>
        <time>2019-06-19T13:17:14Z</time>
      </trkpt>
      <trkpt lat="43.532720" lon="-7.002574">
        <ele>16.928</ele>
        <time>2019-06-19T13:17:15Z</time>
      </trkpt>
      <trkpt lat="43.532548" lon="-7.002761">
        <ele>18.298</ele>
        <time>2019-06-19T13:17:16Z</time>
      </trkpt>
      <trkpt lat="43.532382" lon="-7.002913">
        <ele>21.786</ele>
        <time>2019-06-19T13:17:17Z</time>
      </trkpt>
      <trkpt lat="43.532203" lon="-7.003118">
        <ele>23.460</ele>
        <time>2019-06-19T13:17:18Z</time>
      </trkpt>
      <trkpt lat="43.532041" lon="-7.003303">
        <ele>23.126</ele>
        <time>2019-06-19T13:17:19Z</time>
      </trkpt>
      <trkpt lat="43.531872" lon="-7.003496">
        <ele>21.708</ele>
        <time>2019-06-19T13:17:20Z</time>
      </trkpt>
      <trkpt lat="43.531703" lon="-7.003702">
        <ele>19.491</ele>
        <time>2019-06-19T13:17:21Z</time>
      </trkpt>
      <trkpt lat="43.531541" lon="-7.003901">
        <ele>20.955</ele>
        <time>2019-06-19T13:17:22Z</time>
      </trkpt>
      <trkpt lat="43.531376" lon="-7.004094">
        <ele>23.496</ele>
        <time>2019-06-19T13:17:23Z</time>
      </trkpt>
      <trkpt lat="43.531209" lon="-7.004278">
        <ele>24.539</ele>
        <time>2019-06-19T13:17:24Z</time>
      </trkpt>
      <trkpt lat="43.531051" lon="-7.004473">
        <ele>24.619</ele>
        <time>2019-06-19T13:17:25Z</time>
      </trkpt>
      <trkpt lat="43.530896" lon="-7.004666">
        <ele>24.325</ele>
        <time>2019-06-19T13:17:26Z</time>
      </trkpt>
      <trkpt lat="43.530737" lon="-7.004863">
        <ele>24.263</ele>
        <time>2019-06-19T13:17:27Z</time>
      </trkpt>
      <trkpt lat="43.530575" lon="-7.005077">
        <ele>24.713</ele>
        <time>2019-06-19T13:17:28Z</time>
      </trkpt>
      <trkpt lat="43.530417" lon="-7.005292">
        <ele>25.352</ele>
        <time>2019-06-19T13:17:29Z</time>
      </trkpt>
      <trkpt lat="43.530270" lon="-7.005499">
        <ele>26.553</ele>
        <time>2019-06-19T13:17:30Z</time>
      </trkpt>
      <trkpt lat="43.530116" lon="-7.005691">
        <ele>27.008</ele>
        <time>2019-06-19T13:17:31Z</time>
      </trkpt>
      <trkpt lat="43.529977" lon="-7.005894">
        <ele>26.208</ele>
        <time>2019-06-19T13:17:32Z</time>
      </trkpt>
      <trkpt lat="43.529830" lon="-7.006114">
        <ele>23.848</ele>
        <time>2019-06-19T13:17:33Z</time>
      </trkpt>
      <trkpt lat="43.529688" lon="-7.006315">
        <ele>21.112</ele>
        <time>2019-06-19T13:17:34Z</time>
      </trkpt>
      <trkpt lat="43.529546" lon="-7.006507">
        <ele>19.123</ele>
        <time>2019-06-19T13:17:35Z</time>
      </trkpt>
      <trkpt lat="43.529401" lon="-7.006676">
        <ele>18.976</ele>
        <time>2019-06-19T13:17:36Z</time>
      </trkpt>
      <trkpt lat="43.529258" lon="-7.006840">
        <ele>20.416</ele>
        <time>2019-06-19T13:17:37Z</time>
      </trkpt>
      <trkpt lat="43.529116" lon="-7.006993">
        <ele>21.712</ele>
        <time>2019-06-19T13:17:38Z</time>
      </trkpt>
      <trkpt lat="43.528922" lon="-7.007063">
        <ele>23.320</ele>
        <time>2019-06-19T13:17:39Z</time>
      </trkpt>
      <trkpt lat="43.528747" lon="-7.007165">
        <ele>22.470</ele>
        <time>2019-06-19T13:17:40Z</time>
      </trkpt>
      <trkpt lat="43.528549" lon="-7.007203">
        <ele>21.653</ele>
        <time>2019-06-19T13:17:41Z</time>
      </trkpt>
      <trkpt lat="43.528354" lon="-7.007238">
        <ele>20.104</ele>
        <time>2019-06-19T13:17:42Z</time>
      </trkpt>
      <trkpt lat="43.528147" lon="-7.007283">
        <ele>16.614</ele>
        <time>2019-06-19T13:17:43Z</time>
      </trkpt>
      <trkpt lat="43.527943" lon="-7.007309">
        <ele>12.408</ele>
        <time>2019-06-19T13:17:44Z</time>
      </trkpt>
      <trkpt lat="43.527736" lon="-7.007382">
        <ele>8.168</ele>
        <time>2019-06-19T13:17:45Z</time>
      </trkpt>
      <trkpt lat="43.527545" lon="-7.007462">
        <ele>6.512</ele>
        <time>2019-06-19T13:17:46Z</time>
      </trkpt>
      <trkpt lat="43.527354" lon="-7.007542">
        <ele>5.643</ele>
        <time>2019-06-19T13:17:47Z</time>
      </trkpt>
      <trkpt lat="43.527178" lon="-7.007622">
        <ele>6.946</ele>
        <time>2019-06-19T13:17:48Z</time>
      </trkpt>
      <trkpt lat="43.527012" lon="-7.007743">
        <ele>12.536</ele>
        <time>2019-06-19T13:17:49Z</time>
      </trkpt>
      <trkpt lat="43.526844" lon="-7.007845">
        <ele>19.792</ele>
        <time>2019-06-19T13:17:50Z</time>
      </trkpt>
      <trkpt lat="43.526674" lon="-7.007980">
        <ele>27.070</ele>
        <time>2019-06-19T13:17:51Z</time>
      </trkpt>
      <trkpt lat="43.526538" lon="-7.008075">
        <ele>29.470</ele>
        <time>2019-06-19T13:17:52Z</time>
      </trkpt>
      <trkpt lat="43.526387" lon="-7.008193">
        <ele>31.037</ele>
        <time>2019-06-19T13:17:53Z</time>
      </trkpt>
      <trkpt lat="43.526252" lon="-7.008645">
        <ele>32.049</ele>
        <time>2019-06-19T13:17:54Z</time>
      </trkpt>
      <trkpt lat="43.526097" lon="-7.008881">
        <ele>33.113</ele>
        <time>2019-06-19T13:17:55Z</time>
      </trkpt>
      <trkpt lat="43.525948" lon="-7.009093">
        <ele>34.008</ele>
        <time>2019-06-19T13:17:56Z</time>
      </trkpt>
      <trkpt lat="43.525785" lon="-7.009299">
        <ele>34.626</ele>
        <time>2019-06-19T13:17:57Z</time>
      </trkpt>
      <trkpt lat="43.525624" lon="-7.009508">
        <ele>34.160</ele>
        <time>2019-06-19T13:17:58Z</time>
      </trkpt>
      <trkpt lat="43.525465" lon="-7.009714">
        <ele>33.031</ele>
        <time>2019-06-19T13:17:59Z</time>
      </trkpt>
      <trkpt lat="43.525303" lon="-7.009903">
        <ele>32.474</ele>
        <time>2019-06-19T13:18:00Z</time>
      </trkpt>
      <trkpt lat="43.525155" lon="-7.010098">
        <ele>30.824</ele>
        <time>2019-06-19T13:18:01Z</time>
      </trkpt>
      <trkpt lat="43.525021" lon="-7.010305">
        <ele>27.860</ele>
        <time>2019-06-19T13:18:02Z</time>
      </trkpt>
      <trkpt lat="43.524901" lon="-7.010508">
        <ele>26.918</ele>
        <time>2019-06-19T13:18:03Z</time>
      </trkpt>
      <trkpt lat="43.524803" lon="-7.010687">
        <ele>26.448</ele>
        <time>2019-06-19T13:18:04Z</time>
      </trkpt>
      <trkpt lat="43.524716" lon="-7.010927">
        <ele>25.169</ele>
        <time>2019-06-19T13:18:05Z</time>
      </trkpt>
      <trkpt lat="43.524636" lon="-7.011154">
        <ele>23.904</ele>
        <time>2019-06-19T13:18:06Z</time>
      </trkpt>
      <trkpt lat="43.524587" lon="-7.011480">
        <ele>21.824</ele>
        <time>2019-06-19T13:18:07Z</time>
      </trkpt>
      <trkpt lat="43.524529" lon="-7.011771">
        <ele>20.208</ele>
        <time>2019-06-19T13:18:08Z</time>
      </trkpt>
      <trkpt lat="43.524464" lon="-7.012045">
        <ele>18.319</ele>
        <time>2019-06-19T13:18:09Z</time>
      </trkpt>
      <trkpt lat="43.524401" lon="-7.012347">
        <ele>14.713</ele>
        <time>2019-06-19T13:18:10Z</time>
      </trkpt>
      <trkpt lat="43.524332" lon="-7.012661">
        <ele>10.424</ele>
        <time>2019-06-19T13:18:11Z</time>
      </trkpt>
      <trkpt lat="43.524270" lon="-7.012986">
        <ele>10.887</ele>
        <time>2019-06-19T13:18:12Z</time>
      </trkpt>
      <trkpt lat="43.524212" lon="-7.013308">
        <ele>11.487</ele>
        <time>2019-06-19T13:18:13Z</time>
      </trkpt>
      <trkpt lat="43.524141" lon="-7.013618">
        <ele>11.053</ele>
        <time>2019-06-19T13:18:14Z</time>
      </trkpt>
      <trkpt lat="43.524083" lon="-7.013925">
        <ele>7.981</ele>
        <time>2019-06-19T13:18:15Z</time>
      </trkpt>
      <trkpt lat="43.524024" lon="-7.014216">
        <ele>5.311</ele>
        <time>2019-06-19T13:18:16Z</time>
      </trkpt>
      <trkpt lat="43.523968" lon="-7.014497">
        <ele>4.731</ele>
        <time>2019-06-19T13:18:17Z</time>
      </trkpt>
      <trkpt lat="43.523930" lon="-7.014808">
        <ele>4.561</ele>
        <time>2019-06-19T13:18:18Z</time>
      </trkpt>
      <trkpt lat="43.523899" lon="-7.015091">
        <ele>4.007</ele>
        <time>2019-06-19T13:18:19Z</time>
      </trkpt>
      <trkpt lat="43.523889" lon="-7.015367">
        <ele>4.008</ele>
        <time>2019-06-19T13:18:20Z</time>
      </trkpt>
      <trkpt lat="43.523889" lon="-7.015658">
        <ele>4.416</ele>
        <time>2019-06-19T13:18:21Z</time>
      </trkpt>
      <trkpt lat="43.523917" lon="-7.015975">
        <ele>5.510</ele>
        <time>2019-06-19T13:18:22Z</time>
      </trkpt>
      <trkpt lat="43.523952" lon="-7.016298">
        <ele>8.551</ele>
        <time>2019-06-19T13:18:23Z</time>
      </trkpt>
      <trkpt lat="43.523994" lon="-7.016610">
        <ele>14.824</ele>
        <time>2019-06-19T13:18:24Z</time>
      </trkpt>
      <trkpt lat="43.524031" lon="-7.016922">
        <ele>18.714</ele>
        <time>2019-06-19T13:18:25Z</time>
      </trkpt>
      <trkpt lat="43.524067" lon="-7.017213">
        <ele>21.380</ele>
        <time>2019-06-19T13:18:26Z</time>
      </trkpt>
      <trkpt lat="43.524108" lon="-7.017487">
        <ele>20.178</ele>
        <time>2019-06-19T13:18:27Z</time>
      </trkpt>
      <trkpt lat="43.524142" lon="-7.017745">
        <ele>17.838</ele>
        <time>2019-06-19T13:18:28Z</time>
      </trkpt>
      <trkpt lat="43.524175" lon="-7.017981">
        <ele>16.262</ele>
        <time>2019-06-19T13:18:29Z</time>
      </trkpt>
      <trkpt lat="43.524204" lon="-7.018192">
        <ele>16.283</ele>
        <time>2019-06-19T13:18:30Z</time>
      </trkpt>
      <trkpt lat="43.524232" lon="-7.018408">
        <ele>17.411</ele>
        <time>2019-06-19T13:18:31Z</time>
      </trkpt>
      <trkpt lat="43.524258" lon="-7.018610">
        <ele>19.308</ele>
        <time>2019-06-19T13:18:32Z</time>
      </trkpt>
      <trkpt lat="43.524280" lon="-7.018813">
        <ele>20.699</ele>
        <time>2019-06-19T13:18:33Z</time>
      </trkpt>
      <trkpt lat="43.524297" lon="-7.018995">
        <ele>21.843</ele>
        <time>2019-06-19T13:18:34Z</time>
      </trkpt>
      <trkpt lat="43.524318" lon="-7.019155">
        <ele>22.844</ele>
        <time>2019-06-19T13:18:35Z</time>
      </trkpt>
      <trkpt lat="43.524337" lon="-7.019307">
        <ele>23.387</ele>
        <time>2019-06-19T13:18:36Z</time>
      </trkpt>
      <trkpt lat="43.524356" lon="-7.019449">
        <ele>23.687</ele>
        <time>2019-06-19T13:18:37Z</time>
      </trkpt>
      <trkpt lat="43.524370" lon="-7.019576">
        <ele>23.533</ele>
        <time>2019-06-19T13:18:38Z</time>
      </trkpt>
      <trkpt lat="43.524382" lon="-7.019702">
        <ele>23.421</ele>
        <time>2019-06-19T13:18:39Z</time>
      </trkpt>
      <trkpt lat="43.524393" lon="-7.019835">
        <ele>23.421</ele>
        <time>2019-06-19T13:18:40Z</time>
      </trkpt>
      <trkpt lat="43.524403" lon="-7.019998">
        <ele>23.491</ele>
        <time>2019-06-19T13:18:41Z</time>
      </trkpt>
      <trkpt lat="43.524410" lon="-7.020200">
        <ele>24.881</ele>
        <time>2019-06-19T13:18:42Z</time>
      </trkpt>
      <trkpt lat="43.524428" lon="-7.020405">
        <ele>25.219</ele>
        <time>2019-06-19T13:18:43Z</time>
      </trkpt>
      <trkpt lat="43.524460" lon="-7.020619">
        <ele>24.508</ele>
        <time>2019-06-19T13:18:44Z</time>
      </trkpt>
      <trkpt lat="43.524495" lon="-7.020844">
        <ele>22.792</ele>
        <time>2019-06-19T13:18:45Z</time>
      </trkpt>
      <trkpt lat="43.524523" lon="-7.021084">
        <ele>21.116</ele>
        <time>2019-06-19T13:18:46Z</time>
      </trkpt>
      <trkpt lat="43.524553" lon="-7.021341">
        <ele>19.397</ele>
        <time>2019-06-19T13:18:47Z</time>
      </trkpt>
      <trkpt lat="43.524580" lon="-7.021607">
        <ele>18.120</ele>
        <time>2019-06-19T13:18:48Z</time>
      </trkpt>
      <trkpt lat="43.524606" lon="-7.021877">
        <ele>17.550</ele>
        <time>2019-06-19T13:18:49Z</time>
      </trkpt>
      <trkpt lat="43.524639" lon="-7.022146">
        <ele>17.376</ele>
        <time>2019-06-19T13:18:50Z</time>
      </trkpt>
      <trkpt lat="43.524670" lon="-7.022420">
        <ele>17.854</ele>
        <time>2019-06-19T13:18:51Z</time>
      </trkpt>
      <trkpt lat="43.524694" lon="-7.022687">
        <ele>18.624</ele>
        <time>2019-06-19T13:18:52Z</time>
      </trkpt>
      <trkpt lat="43.524712" lon="-7.022949">
        <ele>19.647</ele>
        <time>2019-06-19T13:18:53Z</time>
      </trkpt>
      <trkpt lat="43.524728" lon="-7.023201">
        <ele>19.929</ele>
        <time>2019-06-19T13:18:54Z</time>
      </trkpt>
      <trkpt lat="43.524742" lon="-7.023466">
        <ele>20.321</ele>
        <time>2019-06-19T13:18:55Z</time>
      </trkpt>
      <trkpt lat="43.524751" lon="-7.023723">
        <ele>21.108</ele>
        <time>2019-06-19T13:18:56Z</time>
      </trkpt>
      <trkpt lat="43.524766" lon="-7.023961">
        <ele>21.667</ele>
        <time>2019-06-19T13:18:57Z</time>
      </trkpt>
      <trkpt lat="43.524761" lon="-7.024193">
        <ele>22.231</ele>
        <time>2019-06-19T13:18:58Z</time>
      </trkpt>
      <trkpt lat="43.524761" lon="-7.024425">
        <ele>21.242</ele>
        <time>2019-06-19T13:18:59Z</time>
      </trkpt>
      <trkpt lat="43.524754" lon="-7.024661">
        <ele>19.055</ele>
        <time>2019-06-19T13:19:00Z</time>
      </trkpt>
      <trkpt lat="43.524743" lon="-7.024890">
        <ele>17.435</ele>
        <time>2019-06-19T13:19:01Z</time>
      </trkpt>
      <trkpt lat="43.524731" lon="-7.025104">
        <ele>16.171</ele>
        <time>2019-06-19T13:19:02Z</time>
      </trkpt>
      <trkpt lat="43.524720" lon="-7.025333">
        <ele>14.469</ele>
        <time>2019-06-19T13:19:03Z</time>
      </trkpt>
      <trkpt lat="43.524701" lon="-7.025566">
        <ele>12.359</ele>
        <time>2019-06-19T13:19:04Z</time>
      </trkpt>
      <trkpt lat="43.524687" lon="-7.025776">
        <ele>11.631</ele>
        <time>2019-06-19T13:19:05Z</time>
      </trkpt>
      <trkpt lat="43.524675" lon="-7.025994">
        <ele>11.361</ele>
        <time>2019-06-19T13:19:06Z</time>
      </trkpt>
      <trkpt lat="43.524656" lon="-7.026207">
        <ele>11.007</ele>
        <time>2019-06-19T13:19:07Z</time>
      </trkpt>
      <trkpt lat="43.524630" lon="-7.026416">
        <ele>10.608</ele>
        <time>2019-06-19T13:19:08Z</time>
      </trkpt>
      <trkpt lat="43.524604" lon="-7.026617">
        <ele>10.586</ele>
        <time>2019-06-19T13:19:09Z</time>
      </trkpt>
      <trkpt lat="43.524579" lon="-7.026807">
        <ele>10.330</ele>
        <time>2019-06-19T13:19:10Z</time>
      </trkpt>
      <trkpt lat="43.524556" lon="-7.026989">
        <ele>10.121</ele>
        <time>2019-06-19T13:19:11Z</time>
      </trkpt>
      <trkpt lat="43.524538" lon="-7.027138">
        <ele>9.914</ele>
        <time>2019-06-19T13:19:12Z</time>
      </trkpt>
      <trkpt lat="43.524523" lon="-7.027260">
        <ele>9.714</ele>
        <time>2019-06-19T13:19:13Z</time>
      </trkpt>
      <trkpt lat="43.524506" lon="-7.027391">
        <ele>9.620</ele>
        <time>2019-06-19T13:19:14Z</time>
      </trkpt>
      <trkpt lat="43.524497" lon="-7.027477">
        <ele>9.618</ele>
        <time>2019-06-19T13:19:15Z</time>
      </trkpt>
      <trkpt lat="43.524553" lon="-7.027509">
        <ele>9.258</ele>
        <time>2019-06-19T13:19:17Z</time>
      </trkpt>
      <trkpt lat="43.524616" lon="-7.027506">
        <ele>8.887</ele>
        <time>2019-06-19T13:19:19Z</time>
      </trkpt>
      <trkpt lat="43.524661" lon="-7.027453">
        <ele>8.642</ele>
        <time>2019-06-19T13:19:21Z</time>
      </trkpt>
      <trkpt lat="43.524674" lon="-7.027393">
        <ele>8.726</ele>
        <time>2019-06-19T13:21:53Z</time>
      </trkpt>
      <trkpt lat="43.524639" lon="-7.027343">
        <ele>9.008</ele>
        <time>2019-06-19T13:22:28Z</time>
      </trkpt>
      <trkpt lat="43.524584" lon="-7.027403">
        <ele>9.281</ele>
        <time>2019-06-19T13:22:30Z</time>
      </trkpt>
      <trkpt lat="43.524547" lon="-7.027457">
        <ele>9.315</ele>
        <time>2019-06-19T13:22:31Z</time>
      </trkpt>
      <trkpt lat="43.524506" lon="-7.027507">
        <ele>9.636</ele>
        <time>2019-06-19T13:22:32Z</time>
      </trkpt>
      <trkpt lat="43.524467" lon="-7.027547">
        <ele>9.939</ele>
        <time>2019-06-19T13:22:33Z</time>
      </trkpt>
      <trkpt lat="43.524423" lon="-7.027604">
        <ele>10.119</ele>
        <time>2019-06-19T13:22:34Z</time>
      </trkpt>
      <trkpt lat="43.524371" lon="-7.027665">
        <ele>10.355</ele>
        <time>2019-06-19T13:22:35Z</time>
      </trkpt>
      <trkpt lat="43.524310" lon="-7.027750">
        <ele>10.583</ele>
        <time>2019-06-19T13:22:36Z</time>
      </trkpt>
      <trkpt lat="43.524250" lon="-7.027858">
        <ele>11.093</ele>
        <time>2019-06-19T13:22:37Z</time>
      </trkpt>
      <trkpt lat="43.524182" lon="-7.027988">
        <ele>11.768</ele>
        <time>2019-06-19T13:22:38Z</time>
      </trkpt>
      <trkpt lat="43.524113" lon="-7.028113">
        <ele>12.642</ele>
        <time>2019-06-19T13:22:39Z</time>
      </trkpt>
      <trkpt lat="43.524033" lon="-7.028246">
        <ele>14.126</ele>
        <time>2019-06-19T13:22:40Z</time>
      </trkpt>
      <trkpt lat="43.523938" lon="-7.028380">
        <ele>15.508</ele>
        <time>2019-06-19T13:22:41Z</time>
      </trkpt>
      <trkpt lat="43.523840" lon="-7.028506">
        <ele>16.879</ele>
        <time>2019-06-19T13:22:42Z</time>
      </trkpt>
      <trkpt lat="43.523724" lon="-7.028628">
        <ele>17.523</ele>
        <time>2019-06-19T13:22:43Z</time>
      </trkpt>
      <trkpt lat="43.523601" lon="-7.028747">
        <ele>17.534</ele>
        <time>2019-06-19T13:22:44Z</time>
      </trkpt>
      <trkpt lat="43.523450" lon="-7.028852">
        <ele>18.437</ele>
        <time>2019-06-19T13:22:45Z</time>
      </trkpt>
      <trkpt lat="43.523294" lon="-7.028946">
        <ele>19.357</ele>
        <time>2019-06-19T13:22:46Z</time>
      </trkpt>
      <trkpt lat="43.523139" lon="-7.029033">
        <ele>19.953</ele>
        <time>2019-06-19T13:22:47Z</time>
      </trkpt>
      <trkpt lat="43.522967" lon="-7.029117">
        <ele>20.011</ele>
        <time>2019-06-19T13:22:48Z</time>
      </trkpt>
      <trkpt lat="43.522784" lon="-7.029214">
        <ele>20.011</ele>
        <time>2019-06-19T13:22:49Z</time>
      </trkpt>
      <trkpt lat="43.522589" lon="-7.029278">
        <ele>20.384</ele>
        <time>2019-06-19T13:22:50Z</time>
      </trkpt>
      <trkpt lat="43.522399" lon="-7.029378">
        <ele>21.107</ele>
        <time>2019-06-19T13:22:51Z</time>
      </trkpt>
      <trkpt lat="43.522203" lon="-7.029492">
        <ele>22.117</ele>
        <time>2019-06-19T13:22:52Z</time>
      </trkpt>
      <trkpt lat="43.522009" lon="-7.029590">
        <ele>23.108</ele>
        <time>2019-06-19T13:22:53Z</time>
      </trkpt>
      <trkpt lat="43.521816" lon="-7.029698">
        <ele>24.041</ele>
        <time>2019-06-19T13:22:54Z</time>
      </trkpt>
      <trkpt lat="43.521615" lon="-7.029806">
        <ele>25.585</ele>
        <time>2019-06-19T13:22:55Z</time>
      </trkpt>
      <trkpt lat="43.521420" lon="-7.029917">
        <ele>27.256</ele>
        <time>2019-06-19T13:22:56Z</time>
      </trkpt>
      <trkpt lat="43.521224" lon="-7.030033">
        <ele>28.789</ele>
        <time>2019-06-19T13:22:57Z</time>
      </trkpt>
      <trkpt lat="43.521027" lon="-7.030142">
        <ele>30.499</ele>
        <time>2019-06-19T13:22:58Z</time>
      </trkpt>
      <trkpt lat="43.520829" lon="-7.030283">
        <ele>33.175</ele>
        <time>2019-06-19T13:22:59Z</time>
      </trkpt>
      <trkpt lat="43.520635" lon="-7.030403">
        <ele>37.583</ele>
        <time>2019-06-19T13:23:00Z</time>
      </trkpt>
      <trkpt lat="43.520455" lon="-7.030530">
        <ele>40.173</ele>
        <time>2019-06-19T13:23:01Z</time>
      </trkpt>
      <trkpt lat="43.520278" lon="-7.030646">
        <ele>41.379</ele>
        <time>2019-06-19T13:23:02Z</time>
      </trkpt>
      <trkpt lat="43.520112" lon="-7.030758">
        <ele>41.305</ele>
        <time>2019-06-19T13:23:03Z</time>
      </trkpt>
      <trkpt lat="43.519957" lon="-7.030856">
        <ele>40.925</ele>
        <time>2019-06-19T13:23:04Z</time>
      </trkpt>
      <trkpt lat="43.519795" lon="-7.030955">
        <ele>40.608</ele>
        <time>2019-06-19T13:23:05Z</time>
      </trkpt>
      <trkpt lat="43.519635" lon="-7.031037">
        <ele>40.260</ele>
        <time>2019-06-19T13:23:06Z</time>
      </trkpt>
      <trkpt lat="43.519448" lon="-7.031113">
        <ele>40.084</ele>
        <time>2019-06-19T13:23:07Z</time>
      </trkpt>
      <trkpt lat="43.519267" lon="-7.031190">
        <ele>39.865</ele>
        <time>2019-06-19T13:23:08Z</time>
      </trkpt>
      <trkpt lat="43.519052" lon="-7.031247">
        <ele>40.218</ele>
        <time>2019-06-19T13:23:09Z</time>
      </trkpt>
      <trkpt lat="43.518852" lon="-7.031301">
        <ele>40.688</ele>
        <time>2019-06-19T13:23:10Z</time>
      </trkpt>
      <trkpt lat="43.518656" lon="-7.031353">
        <ele>40.274</ele>
        <time>2019-06-19T13:23:11Z</time>
      </trkpt>
      <trkpt lat="43.518448" lon="-7.031387">
        <ele>40.092</ele>
        <time>2019-06-19T13:23:12Z</time>
      </trkpt>
      <trkpt lat="43.518235" lon="-7.031434">
        <ele>39.522</ele>
        <time>2019-06-19T13:23:13Z</time>
      </trkpt>
      <trkpt lat="43.518025" lon="-7.031476">
        <ele>39.162</ele>
        <time>2019-06-19T13:23:14Z</time>
      </trkpt>
      <trkpt lat="43.517823" lon="-7.031534">
        <ele>40.383</ele>
        <time>2019-06-19T13:23:15Z</time>
      </trkpt>
      <trkpt lat="43.517614" lon="-7.031593">
        <ele>41.511</ele>
        <time>2019-06-19T13:23:16Z</time>
      </trkpt>
      <trkpt lat="43.517392" lon="-7.031654">
        <ele>41.708</ele>
        <time>2019-06-19T13:23:17Z</time>
      </trkpt>
      <trkpt lat="43.517174" lon="-7.031716">
        <ele>40.849</ele>
        <time>2019-06-19T13:23:18Z</time>
      </trkpt>
      <trkpt lat="43.516966" lon="-7.031770">
        <ele>40.533</ele>
        <time>2019-06-19T13:23:19Z</time>
      </trkpt>
      <trkpt lat="43.516752" lon="-7.031828">
        <ele>40.834</ele>
        <time>2019-06-19T13:23:20Z</time>
      </trkpt>
      <trkpt lat="43.516545" lon="-7.031869">
        <ele>42.047</ele>
        <time>2019-06-19T13:23:21Z</time>
      </trkpt>
      <trkpt lat="43.516346" lon="-7.031895">
        <ele>43.957</ele>
        <time>2019-06-19T13:23:22Z</time>
      </trkpt>
      <trkpt lat="43.516145" lon="-7.031903">
        <ele>46.533</ele>
        <time>2019-06-19T13:23:23Z</time>
      </trkpt>
      <trkpt lat="43.515933" lon="-7.031887">
        <ele>47.941</ele>
        <time>2019-06-19T13:23:24Z</time>
      </trkpt>
      <trkpt lat="43.515739" lon="-7.031845">
        <ele>49.661</ele>
        <time>2019-06-19T13:23:25Z</time>
      </trkpt>
      <trkpt lat="43.515558" lon="-7.031775">
        <ele>51.628</ele>
        <time>2019-06-19T13:23:26Z</time>
      </trkpt>
      <trkpt lat="43.515429" lon="-7.031694">
        <ele>51.589</ele>
        <time>2019-06-19T13:23:27Z</time>
      </trkpt>
      <trkpt lat="43.515260" lon="-7.031592">
        <ele>51.317</ele>
        <time>2019-06-19T13:23:28Z</time>
      </trkpt>
      <trkpt lat="43.515115" lon="-7.031505">
        <ele>51.808</ele>
        <time>2019-06-19T13:23:29Z</time>
      </trkpt>
      <trkpt lat="43.514960" lon="-7.031402">
        <ele>52.115</ele>
        <time>2019-06-19T13:23:30Z</time>
      </trkpt>
      <trkpt lat="43.514819" lon="-7.031278">
        <ele>52.419</ele>
        <time>2019-06-19T13:23:31Z</time>
      </trkpt>
      <trkpt lat="43.514718" lon="-7.031151">
        <ele>52.150</ele>
        <time>2019-06-19T13:23:32Z</time>
      </trkpt>
      <trkpt lat="43.514608" lon="-7.031043">
        <ele>51.653</ele>
        <time>2019-06-19T13:23:33Z</time>
      </trkpt>
      <trkpt lat="43.514499" lon="-7.030906">
        <ele>51.243</ele>
        <time>2019-06-19T13:23:34Z</time>
      </trkpt>
      <trkpt lat="43.514419" lon="-7.030729">
        <ele>50.969</ele>
        <time>2019-06-19T13:23:35Z</time>
      </trkpt>
      <trkpt lat="43.514346" lon="-7.030568">
        <ele>50.217</ele>
        <time>2019-06-19T13:23:36Z</time>
      </trkpt>
      <trkpt lat="43.514268" lon="-7.030383">
        <ele>49.867</ele>
        <time>2019-06-19T13:23:37Z</time>
      </trkpt>
      <trkpt lat="43.514198" lon="-7.030191">
        <ele>49.858</ele>
        <time>2019-06-19T13:23:38Z</time>
      </trkpt>
      <trkpt lat="43.514138" lon="-7.029993">
        <ele>49.552</ele>
        <time>2019-06-19T13:23:39Z</time>
      </trkpt>
      <trkpt lat="43.514073" lon="-7.029786">
        <ele>49.117</ele>
        <time>2019-06-19T13:23:40Z</time>
      </trkpt>
      <trkpt lat="43.514025" lon="-7.029581">
        <ele>49.008</ele>
        <time>2019-06-19T13:23:41Z</time>
      </trkpt>
      <trkpt lat="43.513987" lon="-7.029375">
        <ele>48.948</ele>
        <time>2019-06-19T13:23:42Z</time>
      </trkpt>
      <trkpt lat="43.513959" lon="-7.029160">
        <ele>48.582</ele>
        <time>2019-06-19T13:23:43Z</time>
      </trkpt>
      <trkpt lat="43.513929" lon="-7.028926">
        <ele>47.733</ele>
        <time>2019-06-19T13:23:44Z</time>
      </trkpt>
      <trkpt lat="43.513909" lon="-7.028705">
        <ele>46.056</ele>
        <time>2019-06-19T13:23:45Z</time>
      </trkpt>
      <trkpt lat="43.513893" lon="-7.028474">
        <ele>45.116</ele>
        <time>2019-06-19T13:23:46Z</time>
      </trkpt>
      <trkpt lat="43.513878" lon="-7.028237">
        <ele>44.552</ele>
        <time>2019-06-19T13:23:47Z</time>
      </trkpt>
      <trkpt lat="43.513856" lon="-7.027995">
        <ele>43.240</ele>
        <time>2019-06-19T13:23:48Z</time>
      </trkpt>
      <trkpt lat="43.513830" lon="-7.027752">
        <ele>41.650</ele>
        <time>2019-06-19T13:23:49Z</time>
      </trkpt>
      <trkpt lat="43.513801" lon="-7.027517">
        <ele>41.191</ele>
        <time>2019-06-19T13:23:50Z</time>
      </trkpt>
      <trkpt lat="43.513761" lon="-7.027283">
        <ele>40.281</ele>
        <time>2019-06-19T13:23:51Z</time>
      </trkpt>
      <trkpt lat="43.513707" lon="-7.027057">
        <ele>39.919</ele>
        <time>2019-06-19T13:23:52Z</time>
      </trkpt>
      <trkpt lat="43.513628" lon="-7.026842">
        <ele>39.208</ele>
        <time>2019-06-19T13:23:53Z</time>
      </trkpt>
      <trkpt lat="43.513536" lon="-7.026636">
        <ele>38.592</ele>
        <time>2019-06-19T13:23:54Z</time>
      </trkpt>
      <trkpt lat="43.513430" lon="-7.026447">
        <ele>38.076</ele>
        <time>2019-06-19T13:23:55Z</time>
      </trkpt>
      <trkpt lat="43.513309" lon="-7.026266">
        <ele>37.487</ele>
        <time>2019-06-19T13:23:56Z</time>
      </trkpt>
      <trkpt lat="43.513165" lon="-7.026105">
        <ele>38.070</ele>
        <time>2019-06-19T13:23:57Z</time>
      </trkpt>
      <trkpt lat="43.513022" lon="-7.025966">
        <ele>38.970</ele>
        <time>2019-06-19T13:23:58Z</time>
      </trkpt>
      <trkpt lat="43.512861" lon="-7.025847">
        <ele>39.276</ele>
        <time>2019-06-19T13:23:59Z</time>
      </trkpt>
      <trkpt lat="43.512692" lon="-7.025748">
        <ele>40.734</ele>
        <time>2019-06-19T13:24:00Z</time>
      </trkpt>
      <trkpt lat="43.512518" lon="-7.025655">
        <ele>42.224</ele>
        <time>2019-06-19T13:24:01Z</time>
      </trkpt>
      <trkpt lat="43.512347" lon="-7.025560">
        <ele>43.519</ele>
        <time>2019-06-19T13:24:02Z</time>
      </trkpt>
      <trkpt lat="43.512148" lon="-7.025454">
        <ele>44.809</ele>
        <time>2019-06-19T13:24:03Z</time>
      </trkpt>
      <trkpt lat="43.511921" lon="-7.025344">
        <ele>46.219</ele>
        <time>2019-06-19T13:24:04Z</time>
      </trkpt>
      <trkpt lat="43.511709" lon="-7.025246">
        <ele>46.308</ele>
        <time>2019-06-19T13:24:05Z</time>
      </trkpt>
      <trkpt lat="43.511482" lon="-7.025143">
        <ele>45.514</ele>
        <time>2019-06-19T13:24:06Z</time>
      </trkpt>
      <trkpt lat="43.511256" lon="-7.025049">
        <ele>45.388</ele>
        <time>2019-06-19T13:24:07Z</time>
      </trkpt>
      <trkpt lat="43.511028" lon="-7.024943">
        <ele>45.649</ele>
        <time>2019-06-19T13:24:08Z</time>
      </trkpt>
      <trkpt lat="43.510793" lon="-7.024826">
        <ele>46.642</ele>
        <time>2019-06-19T13:24:09Z</time>
      </trkpt>
      <trkpt lat="43.510584" lon="-7.024722">
        <ele>47.032</ele>
        <time>2019-06-19T13:24:10Z</time>
      </trkpt>
      <trkpt lat="43.510355" lon="-7.024618">
        <ele>46.288</ele>
        <time>2019-06-19T13:24:11Z</time>
      </trkpt>
      <trkpt lat="43.510134" lon="-7.024511">
        <ele>46.066</ele>
        <time>2019-06-19T13:24:12Z</time>
      </trkpt>
      <trkpt lat="43.509907" lon="-7.024411">
        <ele>46.256</ele>
        <time>2019-06-19T13:24:13Z</time>
      </trkpt>
      <trkpt lat="43.509698" lon="-7.024306">
        <ele>47.097</ele>
        <time>2019-06-19T13:24:14Z</time>
      </trkpt>
      <trkpt lat="43.509500" lon="-7.024216">
        <ele>47.823</ele>
        <time>2019-06-19T13:24:15Z</time>
      </trkpt>
      <trkpt lat="43.509293" lon="-7.024116">
        <ele>48.025</ele>
        <time>2019-06-19T13:24:16Z</time>
      </trkpt>
      <trkpt lat="43.509088" lon="-7.024022">
        <ele>48.308</ele>
        <time>2019-06-19T13:24:17Z</time>
      </trkpt>
      <trkpt lat="43.508920" lon="-7.023929">
        <ele>48.962</ele>
        <time>2019-06-19T13:24:18Z</time>
      </trkpt>
      <trkpt lat="43.508730" lon="-7.023847">
        <ele>49.656</ele>
        <time>2019-06-19T13:24:19Z</time>
      </trkpt>
      <trkpt lat="43.508541" lon="-7.023761">
        <ele>50.347</ele>
        <time>2019-06-19T13:24:20Z</time>
      </trkpt>
      <trkpt lat="43.508372" lon="-7.023690">
        <ele>50.920</ele>
        <time>2019-06-19T13:24:21Z</time>
      </trkpt>
      <trkpt lat="43.508194" lon="-7.023620">
        <ele>51.560</ele>
        <time>2019-06-19T13:24:22Z</time>
      </trkpt>
      <trkpt lat="43.508013" lon="-7.023555">
        <ele>52.066</ele>
        <time>2019-06-19T13:24:23Z</time>
      </trkpt>
      <trkpt lat="43.507842" lon="-7.023529">
        <ele>51.824</ele>
        <time>2019-06-19T13:24:24Z</time>
      </trkpt>
      <trkpt lat="43.507663" lon="-7.023500">
        <ele>51.294</ele>
        <time>2019-06-19T13:24:25Z</time>
      </trkpt>
      <trkpt lat="43.507483" lon="-7.023469">
        <ele>50.528</ele>
        <time>2019-06-19T13:24:26Z</time>
      </trkpt>
      <trkpt lat="43.507294" lon="-7.023466">
        <ele>50.189</ele>
        <time>2019-06-19T13:24:27Z</time>
      </trkpt>
      <trkpt lat="43.507110" lon="-7.023475">
        <ele>49.617</ele>
        <time>2019-06-19T13:24:28Z</time>
      </trkpt>
      <trkpt lat="43.506948" lon="-7.023508">
        <ele>49.008</ele>
        <time>2019-06-19T13:24:29Z</time>
      </trkpt>
      <trkpt lat="43.506772" lon="-7.023535">
        <ele>47.935</ele>
        <time>2019-06-19T13:24:30Z</time>
      </trkpt>
      <trkpt lat="43.506571" lon="-7.023570">
        <ele>46.839</ele>
        <time>2019-06-19T13:24:31Z</time>
      </trkpt>
      <trkpt lat="43.506406" lon="-7.023652">
        <ele>46.180</ele>
        <time>2019-06-19T13:24:32Z</time>
      </trkpt>
      <trkpt lat="43.506233" lon="-7.023743">
        <ele>45.493</ele>
        <time>2019-06-19T13:24:33Z</time>
      </trkpt>
      <trkpt lat="43.506059" lon="-7.023838">
        <ele>44.633</ele>
        <time>2019-06-19T13:24:34Z</time>
      </trkpt>
      <trkpt lat="43.505882" lon="-7.023958">
        <ele>43.689</ele>
        <time>2019-06-19T13:24:35Z</time>
      </trkpt>
      <trkpt lat="43.505696" lon="-7.024082">
        <ele>42.987</ele>
        <time>2019-06-19T13:24:36Z</time>
      </trkpt>
      <trkpt lat="43.505508" lon="-7.024243">
        <ele>42.357</ele>
        <time>2019-06-19T13:24:37Z</time>
      </trkpt>
      <trkpt lat="43.505318" lon="-7.024418">
        <ele>42.912</ele>
        <time>2019-06-19T13:24:38Z</time>
      </trkpt>
      <trkpt lat="43.505127" lon="-7.024608">
        <ele>43.432</ele>
        <time>2019-06-19T13:24:39Z</time>
      </trkpt>
      <trkpt lat="43.504920" lon="-7.024805">
        <ele>43.405</ele>
        <time>2019-06-19T13:24:40Z</time>
      </trkpt>
      <trkpt lat="43.504711" lon="-7.024985">
        <ele>41.908</ele>
        <time>2019-06-19T13:24:41Z</time>
      </trkpt>
      <trkpt lat="43.504499" lon="-7.025177">
        <ele>40.224</ele>
        <time>2019-06-19T13:24:42Z</time>
      </trkpt>
      <trkpt lat="43.504291" lon="-7.025372">
        <ele>38.118</ele>
        <time>2019-06-19T13:24:43Z</time>
      </trkpt>
      <trkpt lat="43.504060" lon="-7.025567">
        <ele>36.389</ele>
        <time>2019-06-19T13:24:44Z</time>
      </trkpt>
      <trkpt lat="43.503841" lon="-7.025765">
        <ele>34.822</ele>
        <time>2019-06-19T13:24:45Z</time>
      </trkpt>
      <trkpt lat="43.503616" lon="-7.025968">
        <ele>34.042</ele>
        <time>2019-06-19T13:24:46Z</time>
      </trkpt>
      <trkpt lat="43.503388" lon="-7.026171">
        <ele>33.268</ele>
        <time>2019-06-19T13:24:47Z</time>
      </trkpt>
      <trkpt lat="43.503158" lon="-7.026378">
        <ele>32.466</ele>
        <time>2019-06-19T13:24:48Z</time>
      </trkpt>
      <trkpt lat="43.502926" lon="-7.026570">
        <ele>31.986</ele>
        <time>2019-06-19T13:24:49Z</time>
      </trkpt>
      <trkpt lat="43.502700" lon="-7.026772">
        <ele>30.213</ele>
        <time>2019-06-19T13:24:50Z</time>
      </trkpt>
      <trkpt lat="43.502479" lon="-7.026970">
        <ele>27.743</ele>
        <time>2019-06-19T13:24:51Z</time>
      </trkpt>
      <trkpt lat="43.502258" lon="-7.027170">
        <ele>25.507</ele>
        <time>2019-06-19T13:24:52Z</time>
      </trkpt>
      <trkpt lat="43.502029" lon="-7.027376">
        <ele>23.308</ele>
        <time>2019-06-19T13:24:53Z</time>
      </trkpt>
      <trkpt lat="43.501804" lon="-7.027564">
        <ele>23.724</ele>
        <time>2019-06-19T13:24:54Z</time>
      </trkpt>
      <trkpt lat="43.501573" lon="-7.027760">
        <ele>23.898</ele>
        <time>2019-06-19T13:24:55Z</time>
      </trkpt>
      <trkpt lat="43.501340" lon="-7.027951">
        <ele>23.589</ele>
        <time>2019-06-19T13:24:56Z</time>
      </trkpt>
      <trkpt lat="43.501104" lon="-7.028157">
        <ele>21.082</ele>
        <time>2019-06-19T13:24:57Z</time>
      </trkpt>
      <trkpt lat="43.500874" lon="-7.028355">
        <ele>18.592</ele>
        <time>2019-06-19T13:24:58Z</time>
      </trkpt>
      <trkpt lat="43.500642" lon="-7.028560">
        <ele>17.098</ele>
        <time>2019-06-19T13:24:59Z</time>
      </trkpt>
      <trkpt lat="43.500413" lon="-7.028765">
        <ele>15.276</ele>
        <time>2019-06-19T13:25:00Z</time>
      </trkpt>
      <trkpt lat="43.500184" lon="-7.028973">
        <ele>13.876</ele>
        <time>2019-06-19T13:25:01Z</time>
      </trkpt>
      <trkpt lat="43.499954" lon="-7.029169">
        <ele>11.863</ele>
        <time>2019-06-19T13:25:02Z</time>
      </trkpt>
      <trkpt lat="43.499729" lon="-7.029375">
        <ele>9.544</ele>
        <time>2019-06-19T13:25:03Z</time>
      </trkpt>
      <trkpt lat="43.499504" lon="-7.029556">
        <ele>7.818</ele>
        <time>2019-06-19T13:25:04Z</time>
      </trkpt>
      <trkpt lat="43.499271" lon="-7.029761">
        <ele>7.508</ele>
        <time>2019-06-19T13:25:05Z</time>
      </trkpt>
      <trkpt lat="43.499040" lon="-7.029949">
        <ele>7.759</ele>
        <time>2019-06-19T13:25:06Z</time>
      </trkpt>
      <trkpt lat="43.498809" lon="-7.030157">
        <ele>6.853</ele>
        <time>2019-06-19T13:25:07Z</time>
      </trkpt>
      <trkpt lat="43.498584" lon="-7.030345">
        <ele>4.844</ele>
        <time>2019-06-19T13:25:08Z</time>
      </trkpt>
      <trkpt lat="43.498362" lon="-7.030542">
        <ele>4.177</ele>
        <time>2019-06-19T13:25:09Z</time>
      </trkpt>
      <trkpt lat="43.498132" lon="-7.030729">
        <ele>5.787</ele>
        <time>2019-06-19T13:25:10Z</time>
      </trkpt>
      <trkpt lat="43.497905" lon="-7.030920">
        <ele>7.563</ele>
        <time>2019-06-19T13:25:11Z</time>
      </trkpt>
      <trkpt lat="43.497689" lon="-7.031120">
        <ele>8.031</ele>
        <time>2019-06-19T13:25:12Z</time>
      </trkpt>
      <trkpt lat="43.497470" lon="-7.031315">
        <ele>7.521</ele>
        <time>2019-06-19T13:25:13Z</time>
      </trkpt>
      <trkpt lat="43.497249" lon="-7.031490">
        <ele>8.879</ele>
        <time>2019-06-19T13:25:14Z</time>
      </trkpt>
      <trkpt lat="43.497030" lon="-7.031692">
        <ele>9.605</ele>
        <time>2019-06-19T13:25:15Z</time>
      </trkpt>
      <trkpt lat="43.496808" lon="-7.031882">
        <ele>9.225</ele>
        <time>2019-06-19T13:25:16Z</time>
      </trkpt>
      <trkpt lat="43.496582" lon="-7.032097">
        <ele>8.608</ele>
        <time>2019-06-19T13:25:17Z</time>
      </trkpt>
      <trkpt lat="43.496355" lon="-7.032305">
        <ele>9.190</ele>
        <time>2019-06-19T13:25:18Z</time>
      </trkpt>
      <trkpt lat="43.496137" lon="-7.032522">
        <ele>8.834</ele>
        <time>2019-06-19T13:25:19Z</time>
      </trkpt>
      <trkpt lat="43.495924" lon="-7.032748">
        <ele>7.795</ele>
        <time>2019-06-19T13:25:20Z</time>
      </trkpt>
      <trkpt lat="43.495712" lon="-7.033002">
        <ele>7.168</ele>
        <time>2019-06-19T13:25:21Z</time>
      </trkpt>
      <trkpt lat="43.495508" lon="-7.033251">
        <ele>7.258</ele>
        <time>2019-06-19T13:25:22Z</time>
      </trkpt>
      <trkpt lat="43.495305" lon="-7.033522">
        <ele>5.684</ele>
        <time>2019-06-19T13:25:23Z</time>
      </trkpt>
      <trkpt lat="43.495106" lon="-7.033792">
        <ele>4.142</ele>
        <time>2019-06-19T13:25:24Z</time>
      </trkpt>
      <trkpt lat="43.494902" lon="-7.034037">
        <ele>4.022</ele>
        <time>2019-06-19T13:25:25Z</time>
      </trkpt>
      <trkpt lat="43.494703" lon="-7.034281">
        <ele>4.795</ele>
        <time>2019-06-19T13:25:26Z</time>
      </trkpt>
      <trkpt lat="43.494502" lon="-7.034534">
        <ele>5.649</ele>
        <time>2019-06-19T13:25:27Z</time>
      </trkpt>
      <trkpt lat="43.494293" lon="-7.034796">
        <ele>5.723</ele>
        <time>2019-06-19T13:25:28Z</time>
      </trkpt>
      <trkpt lat="43.494097" lon="-7.035052">
        <ele>5.508</ele>
        <time>2019-06-19T13:25:29Z</time>
      </trkpt>
      <trkpt lat="43.493901" lon="-7.035309">
        <ele>7.932</ele>
        <time>2019-06-19T13:25:30Z</time>
      </trkpt>
      <trkpt lat="43.493704" lon="-7.035564">
        <ele>9.396</ele>
        <time>2019-06-19T13:25:31Z</time>
      </trkpt>
      <trkpt lat="43.493507" lon="-7.035823">
        <ele>10.997</ele>
        <time>2019-06-19T13:25:32Z</time>
      </trkpt>
      <trkpt lat="43.493318" lon="-7.036071">
        <ele>12.390</ele>
        <time>2019-06-19T13:25:33Z</time>
      </trkpt>
      <trkpt lat="43.493131" lon="-7.036319">
        <ele>11.680</ele>
        <time>2019-06-19T13:25:34Z</time>
      </trkpt>
      <trkpt lat="43.492945" lon="-7.036566">
        <ele>12.526</ele>
        <time>2019-06-19T13:25:35Z</time>
      </trkpt>
      <trkpt lat="43.492752" lon="-7.036780">
        <ele>13.794</ele>
        <time>2019-06-19T13:25:36Z</time>
      </trkpt>
      <trkpt lat="43.492564" lon="-7.037024">
        <ele>14.754</ele>
        <time>2019-06-19T13:25:37Z</time>
      </trkpt>
      <trkpt lat="43.492389" lon="-7.037260">
        <ele>15.761</ele>
        <time>2019-06-19T13:25:38Z</time>
      </trkpt>
      <trkpt lat="43.492210" lon="-7.037490">
        <ele>16.121</ele>
        <time>2019-06-19T13:25:39Z</time>
      </trkpt>
      <trkpt lat="43.492044" lon="-7.037675">
        <ele>16.613</ele>
        <time>2019-06-19T13:25:40Z</time>
      </trkpt>
      <trkpt lat="43.491878" lon="-7.037889">
        <ele>17.708</ele>
        <time>2019-06-19T13:25:41Z</time>
      </trkpt>
      <trkpt lat="43.491743" lon="-7.038068">
        <ele>19.269</ele>
        <time>2019-06-19T13:25:42Z</time>
      </trkpt>
      <trkpt lat="43.491604" lon="-7.038253">
        <ele>20.963</ele>
        <time>2019-06-19T13:25:43Z</time>
      </trkpt>
      <trkpt lat="43.491470" lon="-7.038419">
        <ele>22.524</ele>
        <time>2019-06-19T13:25:44Z</time>
      </trkpt>
      <trkpt lat="43.491337" lon="-7.038594">
        <ele>23.117</ele>
        <time>2019-06-19T13:25:45Z</time>
      </trkpt>
      <trkpt lat="43.491210" lon="-7.038765">
        <ele>21.357</ele>
        <time>2019-06-19T13:25:46Z</time>
      </trkpt>
      <trkpt lat="43.491070" lon="-7.038941">
        <ele>19.863</ele>
        <time>2019-06-19T13:25:47Z</time>
      </trkpt>
      <trkpt lat="43.490947" lon="-7.039111">
        <ele>19.391</ele>
        <time>2019-06-19T13:25:48Z</time>
      </trkpt>
      <trkpt lat="43.490821" lon="-7.039259">
        <ele>19.971</ele>
        <time>2019-06-19T13:25:49Z</time>
      </trkpt>
      <trkpt lat="43.490701" lon="-7.039418">
        <ele>21.188</ele>
        <time>2019-06-19T13:25:50Z</time>
      </trkpt>
      <trkpt lat="43.490602" lon="-7.039575">
        <ele>21.524</ele>
        <time>2019-06-19T13:25:51Z</time>
      </trkpt>
      <trkpt lat="43.490480" lon="-7.039721">
        <ele>22.126</ele>
        <time>2019-06-19T13:25:52Z</time>
      </trkpt>
      <trkpt lat="43.490353" lon="-7.039883">
        <ele>22.908</ele>
        <time>2019-06-19T13:25:53Z</time>
      </trkpt>
      <trkpt lat="43.490219" lon="-7.040064">
        <ele>23.121</ele>
        <time>2019-06-19T13:25:54Z</time>
      </trkpt>
      <trkpt lat="43.490085" lon="-7.040238">
        <ele>22.855</ele>
        <time>2019-06-19T13:25:55Z</time>
      </trkpt>
      <trkpt lat="43.489951" lon="-7.040419">
        <ele>22.736</ele>
        <time>2019-06-19T13:25:56Z</time>
      </trkpt>
      <trkpt lat="43.489812" lon="-7.040601">
        <ele>23.739</ele>
        <time>2019-06-19T13:25:57Z</time>
      </trkpt>
      <trkpt lat="43.489646" lon="-7.040787">
        <ele>25.489</ele>
        <time>2019-06-19T13:25:58Z</time>
      </trkpt>
      <trkpt lat="43.489481" lon="-7.040981">
        <ele>22.815</ele>
        <time>2019-06-19T13:25:59Z</time>
      </trkpt>
      <trkpt lat="43.489315" lon="-7.041187">
        <ele>19.663</ele>
        <time>2019-06-19T13:26:00Z</time>
      </trkpt>
      <trkpt lat="43.489151" lon="-7.041387">
        <ele>18.313</ele>
        <time>2019-06-19T13:26:01Z</time>
      </trkpt>
      <trkpt lat="43.488990" lon="-7.041605">
        <ele>20.767</ele>
        <time>2019-06-19T13:26:02Z</time>
      </trkpt>
      <trkpt lat="43.488830" lon="-7.041841">
        <ele>22.481</ele>
        <time>2019-06-19T13:26:03Z</time>
      </trkpt>
      <trkpt lat="43.488651" lon="-7.042079">
        <ele>23.119</ele>
        <time>2019-06-19T13:26:04Z</time>
      </trkpt>
      <trkpt lat="43.488490" lon="-7.042295">
        <ele>23.508</ele>
        <time>2019-06-19T13:26:05Z</time>
      </trkpt>
      <trkpt lat="43.488312" lon="-7.042522">
        <ele>24.449</ele>
        <time>2019-06-19T13:26:06Z</time>
      </trkpt>
      <trkpt lat="43.488130" lon="-7.042760">
        <ele>26.383</ele>
        <time>2019-06-19T13:26:07Z</time>
      </trkpt>
      <trkpt lat="43.487962" lon="-7.042977">
        <ele>28.224</ele>
        <time>2019-06-19T13:26:08Z</time>
      </trkpt>
      <trkpt lat="43.487798" lon="-7.043187">
        <ele>28.947</ele>
        <time>2019-06-19T13:26:09Z</time>
      </trkpt>
      <trkpt lat="43.487640" lon="-7.043410">
        <ele>29.147</ele>
        <time>2019-06-19T13:26:10Z</time>
      </trkpt>
      <trkpt lat="43.487466" lon="-7.043611">
        <ele>28.493</ele>
        <time>2019-06-19T13:26:11Z</time>
      </trkpt>
      <trkpt lat="43.487301" lon="-7.043802">
        <ele>28.891</ele>
        <time>2019-06-19T13:26:12Z</time>
      </trkpt>
      <trkpt lat="43.487115" lon="-7.043959">
        <ele>28.931</ele>
        <time>2019-06-19T13:26:13Z</time>
      </trkpt>
      <trkpt lat="43.486936" lon="-7.044131">
        <ele>29.972</ele>
        <time>2019-06-19T13:26:14Z</time>
      </trkpt>
      <trkpt lat="43.486745" lon="-7.044295">
        <ele>30.713</ele>
        <time>2019-06-19T13:26:15Z</time>
      </trkpt>
      <trkpt lat="43.486545" lon="-7.044446">
        <ele>30.114</ele>
        <time>2019-06-19T13:26:16Z</time>
      </trkpt>
      <trkpt lat="43.486355" lon="-7.044603">
        <ele>28.908</ele>
        <time>2019-06-19T13:26:17Z</time>
      </trkpt>
      <trkpt lat="43.486164" lon="-7.044747">
        <ele>28.980</ele>
        <time>2019-06-19T13:26:18Z</time>
      </trkpt>
      <trkpt lat="43.485974" lon="-7.044890">
        <ele>27.984</ele>
        <time>2019-06-19T13:26:19Z</time>
      </trkpt>
      <trkpt lat="43.485794" lon="-7.045032">
        <ele>27.975</ele>
        <time>2019-06-19T13:26:20Z</time>
      </trkpt>
      <trkpt lat="43.485622" lon="-7.045142">
        <ele>28.128</ele>
        <time>2019-06-19T13:26:21Z</time>
      </trkpt>
      <trkpt lat="43.485450" lon="-7.045263">
        <ele>29.638</ele>
        <time>2019-06-19T13:26:22Z</time>
      </trkpt>
      <trkpt lat="43.485283" lon="-7.045387">
        <ele>30.814</ele>
        <time>2019-06-19T13:26:23Z</time>
      </trkpt>
      <trkpt lat="43.485099" lon="-7.045502">
        <ele>30.682</ele>
        <time>2019-06-19T13:26:24Z</time>
      </trkpt>
      <trkpt lat="43.484917" lon="-7.045614">
        <ele>29.722</ele>
        <time>2019-06-19T13:26:25Z</time>
      </trkpt>
      <trkpt lat="43.484728" lon="-7.045714">
        <ele>29.173</ele>
        <time>2019-06-19T13:26:26Z</time>
      </trkpt>
      <trkpt lat="43.484535" lon="-7.045787">
        <ele>29.785</ele>
        <time>2019-06-19T13:26:27Z</time>
      </trkpt>
      <trkpt lat="43.484341" lon="-7.045841">
        <ele>28.713</ele>
        <time>2019-06-19T13:26:28Z</time>
      </trkpt>
      <trkpt lat="43.484130" lon="-7.045866">
        <ele>25.908</ele>
        <time>2019-06-19T13:26:29Z</time>
      </trkpt>
      <trkpt lat="43.483920" lon="-7.045878">
        <ele>22.610</ele>
        <time>2019-06-19T13:26:30Z</time>
      </trkpt>
      <trkpt lat="43.483697" lon="-7.045848">
        <ele>22.064</ele>
        <time>2019-06-19T13:26:31Z</time>
      </trkpt>
      <trkpt lat="43.483490" lon="-7.045805">
        <ele>21.045</ele>
        <time>2019-06-19T13:26:32Z</time>
      </trkpt>
      <trkpt lat="43.483274" lon="-7.045709">
        <ele>18.798</ele>
        <time>2019-06-19T13:26:33Z</time>
      </trkpt>
      <trkpt lat="43.483058" lon="-7.045631">
        <ele>14.828</ele>
        <time>2019-06-19T13:26:34Z</time>
      </trkpt>
      <trkpt lat="43.482836" lon="-7.045536">
        <ele>10.344</ele>
        <time>2019-06-19T13:26:35Z</time>
      </trkpt>
      <trkpt lat="43.482612" lon="-7.045442">
        <ele>6.692</ele>
        <time>2019-06-19T13:26:36Z</time>
      </trkpt>
      <trkpt lat="43.482370" lon="-7.045394">
        <ele>4.192</ele>
        <time>2019-06-19T13:26:37Z</time>
      </trkpt>
      <trkpt lat="43.482127" lon="-7.045350">
        <ele>3.348</ele>
        <time>2019-06-19T13:26:38Z</time>
      </trkpt>
      <trkpt lat="43.481871" lon="-7.045339">
        <ele>4.261</ele>
        <time>2019-06-19T13:26:39Z</time>
      </trkpt>
      <trkpt lat="43.481595" lon="-7.045330">
        <ele>5.717</ele>
        <time>2019-06-19T13:26:40Z</time>
      </trkpt>
      <trkpt lat="43.481312" lon="-7.045320">
        <ele>6.008</ele>
        <time>2019-06-19T13:26:41Z</time>
      </trkpt>
      <trkpt lat="43.481057" lon="-7.045329">
        <ele>5.857</ele>
        <time>2019-06-19T13:26:42Z</time>
      </trkpt>
      <trkpt lat="43.480797" lon="-7.045340">
        <ele>6.081</ele>
        <time>2019-06-19T13:26:43Z</time>
      </trkpt>
      <trkpt lat="43.480532" lon="-7.045346">
        <ele>8.052</ele>
        <time>2019-06-19T13:26:44Z</time>
      </trkpt>
      <trkpt lat="43.480276" lon="-7.045352">
        <ele>10.235</ele>
        <time>2019-06-19T13:26:45Z</time>
      </trkpt>
      <trkpt lat="43.480024" lon="-7.045350">
        <ele>10.565</ele>
        <time>2019-06-19T13:26:46Z</time>
      </trkpt>
      <trkpt lat="43.479775" lon="-7.045365">
        <ele>11.721</ele>
        <time>2019-06-19T13:26:47Z</time>
      </trkpt>
      <trkpt lat="43.479515" lon="-7.045373">
        <ele>13.059</ele>
        <time>2019-06-19T13:26:48Z</time>
      </trkpt>
      <trkpt lat="43.479253" lon="-7.045364">
        <ele>12.959</ele>
        <time>2019-06-19T13:26:49Z</time>
      </trkpt>
      <trkpt lat="43.479008" lon="-7.045372">
        <ele>13.815</ele>
        <time>2019-06-19T13:26:50Z</time>
      </trkpt>
      <trkpt lat="43.478756" lon="-7.045367">
        <ele>14.565</ele>
        <time>2019-06-19T13:26:51Z</time>
      </trkpt>
      <trkpt lat="43.478509" lon="-7.045360">
        <ele>14.411</ele>
        <time>2019-06-19T13:26:52Z</time>
      </trkpt>
      <trkpt lat="43.478285" lon="-7.045367">
        <ele>14.408</ele>
        <time>2019-06-19T13:26:53Z</time>
      </trkpt>
      <trkpt lat="43.478071" lon="-7.045373">
        <ele>14.324</ele>
        <time>2019-06-19T13:26:54Z</time>
      </trkpt>
      <trkpt lat="43.477855" lon="-7.045388">
        <ele>16.148</ele>
        <time>2019-06-19T13:26:55Z</time>
      </trkpt>
      <trkpt lat="43.477638" lon="-7.045428">
        <ele>17.919</ele>
        <time>2019-06-19T13:26:56Z</time>
      </trkpt>
      <trkpt lat="43.477421" lon="-7.045470">
        <ele>19.512</ele>
        <time>2019-06-19T13:26:57Z</time>
      </trkpt>
      <trkpt lat="43.477224" lon="-7.045567">
        <ele>19.912</ele>
        <time>2019-06-19T13:26:58Z</time>
      </trkpt>
      <trkpt lat="43.477028" lon="-7.045650">
        <ele>19.848</ele>
        <time>2019-06-19T13:26:59Z</time>
      </trkpt>
      <trkpt lat="43.476843" lon="-7.045769">
        <ele>18.776</ele>
        <time>2019-06-19T13:27:00Z</time>
      </trkpt>
      <trkpt lat="43.476664" lon="-7.045908">
        <ele>17.246</ele>
        <time>2019-06-19T13:27:01Z</time>
      </trkpt>
      <trkpt lat="43.476495" lon="-7.046056">
        <ele>15.856</ele>
        <time>2019-06-19T13:27:02Z</time>
      </trkpt>
      <trkpt lat="43.476338" lon="-7.046227">
        <ele>14.559</ele>
        <time>2019-06-19T13:27:03Z</time>
      </trkpt>
      <trkpt lat="43.476179" lon="-7.046419">
        <ele>14.914</ele>
        <time>2019-06-19T13:27:04Z</time>
      </trkpt>
      <trkpt lat="43.476033" lon="-7.046592">
        <ele>16.508</ele>
        <time>2019-06-19T13:27:05Z</time>
      </trkpt>
      <trkpt lat="43.475893" lon="-7.046788">
        <ele>16.698</ele>
        <time>2019-06-19T13:27:06Z</time>
      </trkpt>
      <trkpt lat="43.475759" lon="-7.046963">
        <ele>15.822</ele>
        <time>2019-06-19T13:27:07Z</time>
      </trkpt>
      <trkpt lat="43.475638" lon="-7.047152">
        <ele>14.833</ele>
        <time>2019-06-19T13:27:08Z</time>
      </trkpt>
      <trkpt lat="43.475523" lon="-7.047319">
        <ele>14.096</ele>
        <time>2019-06-19T13:27:09Z</time>
      </trkpt>
      <trkpt lat="43.475407" lon="-7.047494">
        <ele>12.796</ele>
        <time>2019-06-19T13:27:10Z</time>
      </trkpt>
      <trkpt lat="43.475287" lon="-7.047678">
        <ele>11.462</ele>
        <time>2019-06-19T13:27:11Z</time>
      </trkpt>
      <trkpt lat="43.475165" lon="-7.047846">
        <ele>9.750</ele>
        <time>2019-06-19T13:27:12Z</time>
      </trkpt>
      <trkpt lat="43.475050" lon="-7.048034">
        <ele>8.140</ele>
        <time>2019-06-19T13:27:13Z</time>
      </trkpt>
      <trkpt lat="43.474932" lon="-7.048229">
        <ele>6.964</ele>
        <time>2019-06-19T13:27:14Z</time>
      </trkpt>
      <trkpt lat="43.474825" lon="-7.048427">
        <ele>6.106</ele>
        <time>2019-06-19T13:27:15Z</time>
      </trkpt>
      <trkpt lat="43.474715" lon="-7.048629">
        <ele>5.016</ele>
        <time>2019-06-19T13:27:16Z</time>
      </trkpt>
      <trkpt lat="43.474618" lon="-7.048839">
        <ele>5.408</ele>
        <time>2019-06-19T13:27:17Z</time>
      </trkpt>
      <trkpt lat="43.474524" lon="-7.049063">
        <ele>5.269</ele>
        <time>2019-06-19T13:27:18Z</time>
      </trkpt>
      <trkpt lat="43.474435" lon="-7.049288">
        <ele>3.853</ele>
        <time>2019-06-19T13:27:19Z</time>
      </trkpt>
      <trkpt lat="43.474358" lon="-7.049516">
        <ele>3.054</ele>
        <time>2019-06-19T13:27:20Z</time>
      </trkpt>
      <trkpt lat="43.474262" lon="-7.049743">
        <ele>3.677</ele>
        <time>2019-06-19T13:27:21Z</time>
      </trkpt>
      <trkpt lat="43.474186" lon="-7.049973">
        <ele>3.987</ele>
        <time>2019-06-19T13:27:22Z</time>
      </trkpt>
      <trkpt lat="43.474094" lon="-7.050193">
        <ele>4.683</ele>
        <time>2019-06-19T13:27:23Z</time>
      </trkpt>
      <trkpt lat="43.473991" lon="-7.050381">
        <ele>5.241</ele>
        <time>2019-06-19T13:27:24Z</time>
      </trkpt>
      <trkpt lat="43.473888" lon="-7.050560">
        <ele>5.061</ele>
        <time>2019-06-19T13:27:25Z</time>
      </trkpt>
      <trkpt lat="43.473779" lon="-7.050717">
        <ele>3.927</ele>
        <time>2019-06-19T13:27:26Z</time>
      </trkpt>
      <trkpt lat="43.473646" lon="-7.050853">
        <ele>3.668</ele>
        <time>2019-06-19T13:27:27Z</time>
      </trkpt>
      <trkpt lat="43.473508" lon="-7.050975">
        <ele>3.514</ele>
        <time>2019-06-19T13:27:28Z</time>
      </trkpt>
      <trkpt lat="43.473368" lon="-7.051088">
        <ele>3.108</ele>
        <time>2019-06-19T13:27:29Z</time>
      </trkpt>
      <trkpt lat="43.473222" lon="-7.051158">
        <ele>3.385</ele>
        <time>2019-06-19T13:27:30Z</time>
      </trkpt>
      <trkpt lat="43.473082" lon="-7.051253">
        <ele>3.339</ele>
        <time>2019-06-19T13:27:31Z</time>
      </trkpt>
      <trkpt lat="43.472942" lon="-7.051341">
        <ele>2.950</ele>
        <time>2019-06-19T13:27:32Z</time>
      </trkpt>
      <trkpt lat="43.472810" lon="-7.051388">
        <ele>2.983</ele>
        <time>2019-06-19T13:27:33Z</time>
      </trkpt>
      <trkpt lat="43.472676" lon="-7.051453">
        <ele>2.593</ele>
        <time>2019-06-19T13:27:34Z</time>
      </trkpt>
      <trkpt lat="43.472534" lon="-7.051522">
        <ele>2.019</ele>
        <time>2019-06-19T13:27:35Z</time>
      </trkpt>
      <trkpt lat="43.472393" lon="-7.051599">
        <ele>1.397</ele>
        <time>2019-06-19T13:27:36Z</time>
      </trkpt>
      <trkpt lat="43.472283" lon="-7.051624">
        <ele>1.117</ele>
        <time>2019-06-19T13:27:37Z</time>
      </trkpt>
      <trkpt lat="43.472143" lon="-7.051647">
        <ele>1.323</ele>
        <time>2019-06-19T13:27:38Z</time>
      </trkpt>
      <trkpt lat="43.472010" lon="-7.051660">
        <ele>1.883</ele>
        <time>2019-06-19T13:27:39Z</time>
      </trkpt>
      <trkpt lat="43.471872" lon="-7.051660">
        <ele>2.811</ele>
        <time>2019-06-19T13:27:40Z</time>
      </trkpt>
      <trkpt lat="43.471738" lon="-7.051639">
        <ele>4.308</ele>
        <time>2019-06-19T13:27:41Z</time>
      </trkpt>
      <trkpt lat="43.471614" lon="-7.051582">
        <ele>5.585</ele>
        <time>2019-06-19T13:27:42Z</time>
      </trkpt>
      <trkpt lat="43.471470" lon="-7.051505">
        <ele>6.319</ele>
        <time>2019-06-19T13:27:43Z</time>
      </trkpt>
      <trkpt lat="43.471327" lon="-7.051436">
        <ele>6.360</ele>
        <time>2019-06-19T13:27:44Z</time>
      </trkpt>
      <trkpt lat="43.471164" lon="-7.051361">
        <ele>5.983</ele>
        <time>2019-06-19T13:27:45Z</time>
      </trkpt>
      <trkpt lat="43.470987" lon="-7.051294">
        <ele>5.563</ele>
        <time>2019-06-19T13:27:46Z</time>
      </trkpt>
      <trkpt lat="43.470822" lon="-7.051248">
        <ele>4.589</ele>
        <time>2019-06-19T13:27:47Z</time>
      </trkpt>
      <trkpt lat="43.470681" lon="-7.051188">
        <ele>4.847</ele>
        <time>2019-06-19T13:27:48Z</time>
      </trkpt>
      <trkpt lat="43.470541" lon="-7.051146">
        <ele>4.747</ele>
        <time>2019-06-19T13:27:49Z</time>
      </trkpt>
      <trkpt lat="43.470408" lon="-7.051106">
        <ele>4.043</ele>
        <time>2019-06-19T13:27:50Z</time>
      </trkpt>
      <trkpt lat="43.470263" lon="-7.051069">
        <ele>3.364</ele>
        <time>2019-06-19T13:27:51Z</time>
      </trkpt>
      <trkpt lat="43.470120" lon="-7.051020">
        <ele>3.910</ele>
        <time>2019-06-19T13:27:52Z</time>
      </trkpt>
      <trkpt lat="43.469984" lon="-7.050968">
        <ele>3.908</ele>
        <time>2019-06-19T13:27:53Z</time>
      </trkpt>
      <trkpt lat="43.469877" lon="-7.050949">
        <ele>3.667</ele>
        <time>2019-06-19T13:27:54Z</time>
      </trkpt>
      <trkpt lat="43.469765" lon="-7.050932">
        <ele>3.261</ele>
        <time>2019-06-19T13:27:55Z</time>
      </trkpt>
      <trkpt lat="43.469670" lon="-7.050889">
        <ele>2.872</ele>
        <time>2019-06-19T13:27:56Z</time>
      </trkpt>
      <trkpt lat="43.469574" lon="-7.050868">
        <ele>2.425</ele>
        <time>2019-06-19T13:27:57Z</time>
      </trkpt>
      <trkpt lat="43.469509" lon="-7.050857">
        <ele>2.235</ele>
        <time>2019-06-19T13:27:58Z</time>
      </trkpt>
      <trkpt lat="43.469436" lon="-7.050831">
        <ele>2.051</ele>
        <time>2019-06-19T13:27:59Z</time>
      </trkpt>
      <trkpt lat="43.469334" lon="-7.050785">
        <ele>2.079</ele>
        <time>2019-06-19T13:28:00Z</time>
      </trkpt>
      <trkpt lat="43.469241" lon="-7.050754">
        <ele>2.079</ele>
        <time>2019-06-19T13:28:01Z</time>
      </trkpt>
      <trkpt lat="43.469164" lon="-7.050725">
        <ele>2.023</ele>
        <time>2019-06-19T13:28:02Z</time>
      </trkpt>
      <trkpt lat="43.469035" lon="-7.050681">
        <ele>1.583</ele>
        <time>2019-06-19T13:28:03Z</time>
      </trkpt>
      <trkpt lat="43.468908" lon="-7.050646">
        <ele>1.111</ele>
        <time>2019-06-19T13:28:04Z</time>
      </trkpt>
      <trkpt lat="43.468759" lon="-7.050587">
        <ele>0.508</ele>
        <time>2019-06-19T13:28:05Z</time>
      </trkpt>
      <trkpt lat="43.468609" lon="-7.050521">
        <ele>0.155</ele>
        <time>2019-06-19T13:28:06Z</time>
      </trkpt>
      <trkpt lat="43.468454" lon="-7.050470">
        <ele>1.429</ele>
        <time>2019-06-19T13:28:07Z</time>
      </trkpt>
      <trkpt lat="43.468301" lon="-7.050413">
        <ele>2.570</ele>
        <time>2019-06-19T13:28:08Z</time>
      </trkpt>
      <trkpt lat="43.468162" lon="-7.050360">
        <ele>2.743</ele>
        <time>2019-06-19T13:28:09Z</time>
      </trkpt>
      <trkpt lat="43.468015" lon="-7.050297">
        <ele>2.813</ele>
        <time>2019-06-19T13:28:10Z</time>
      </trkpt>
      <trkpt lat="43.467845" lon="-7.050238">
        <ele>2.479</ele>
        <time>2019-06-19T13:28:11Z</time>
      </trkpt>
      <trkpt lat="43.467701" lon="-7.050172">
        <ele>2.277</ele>
        <time>2019-06-19T13:28:12Z</time>
      </trkpt>
      <trkpt lat="43.467542" lon="-7.050117">
        <ele>2.297</ele>
        <time>2019-06-19T13:28:13Z</time>
      </trkpt>
      <trkpt lat="43.467387" lon="-7.050062">
        <ele>2.683</ele>
        <time>2019-06-19T13:28:14Z</time>
      </trkpt>
      <trkpt lat="43.467227" lon="-7.049995">
        <ele>3.025</ele>
        <time>2019-06-19T13:28:15Z</time>
      </trkpt>
      <trkpt lat="43.467062" lon="-7.049937">
        <ele>3.217</ele>
        <time>2019-06-19T13:28:16Z</time>
      </trkpt>
      <trkpt lat="43.466897" lon="-7.049880">
        <ele>3.208</ele>
        <time>2019-06-19T13:28:17Z</time>
      </trkpt>
      <trkpt lat="43.466736" lon="-7.049822">
        <ele>2.451</ele>
        <time>2019-06-19T13:28:18Z</time>
      </trkpt>
      <trkpt lat="43.466589" lon="-7.049761">
        <ele>2.245</ele>
        <time>2019-06-19T13:28:19Z</time>
      </trkpt>
      <trkpt lat="43.466433" lon="-7.049706">
        <ele>3.016</ele>
        <time>2019-06-19T13:28:20Z</time>
      </trkpt>
      <trkpt lat="43.466293" lon="-7.049642">
        <ele>3.679</ele>
        <time>2019-06-19T13:28:21Z</time>
      </trkpt>
      <trkpt lat="43.466144" lon="-7.049588">
        <ele>4.079</ele>
        <time>2019-06-19T13:28:22Z</time>
      </trkpt>
      <trkpt lat="43.465991" lon="-7.049519">
        <ele>4.685</ele>
        <time>2019-06-19T13:28:23Z</time>
      </trkpt>
      <trkpt lat="43.465854" lon="-7.049465">
        <ele>4.953</ele>
        <time>2019-06-19T13:28:24Z</time>
      </trkpt>
      <trkpt lat="43.465742" lon="-7.049424">
        <ele>5.193</ele>
        <time>2019-06-19T13:28:25Z</time>
      </trkpt>
      <trkpt lat="43.465587" lon="-7.049379">
        <ele>5.111</ele>
        <time>2019-06-19T13:28:26Z</time>
      </trkpt>
      <trkpt lat="43.465435" lon="-7.049321">
        <ele>4.221</ele>
        <time>2019-06-19T13:28:27Z</time>
      </trkpt>
      <trkpt lat="43.465314" lon="-7.049243">
        <ele>2.903</ele>
        <time>2019-06-19T13:28:28Z</time>
      </trkpt>
      <trkpt lat="43.465168" lon="-7.049162">
        <ele>1.608</ele>
        <time>2019-06-19T13:28:29Z</time>
      </trkpt>
      <trkpt lat="43.465098" lon="-7.049086">
        <ele>1.244</ele>
        <time>2019-06-19T13:28:30Z</time>
      </trkpt>
      <trkpt lat="43.465031" lon="-7.048998">
        <ele>1.038</ele>
        <time>2019-06-19T13:28:31Z</time>
      </trkpt>
      <trkpt lat="43.464953" lon="-7.048899">
        <ele>1.579</ele>
        <time>2019-06-19T13:28:32Z</time>
      </trkpt>
      <trkpt lat="43.464879" lon="-7.048797">
        <ele>2.692</ele>
        <time>2019-06-19T13:28:33Z</time>
      </trkpt>
      <trkpt lat="43.464806" lon="-7.048702">
        <ele>3.842</ele>
        <time>2019-06-19T13:28:34Z</time>
      </trkpt>
      <trkpt lat="43.464752" lon="-7.048644">
        <ele>4.688</ele>
        <time>2019-06-19T13:28:35Z</time>
      </trkpt>
      <trkpt lat="43.464691" lon="-7.048585">
        <ele>5.376</ele>
        <time>2019-06-19T13:28:36Z</time>
      </trkpt>
      <trkpt lat="43.464637" lon="-7.048536">
        <ele>5.886</ele>
        <time>2019-06-19T13:28:37Z</time>
      </trkpt>
      <trkpt lat="43.464594" lon="-7.048497">
        <ele>6.192</ele>
        <time>2019-06-19T13:28:38Z</time>
      </trkpt>
      <trkpt lat="43.464524" lon="-7.048471">
        <ele>6.673</ele>
        <time>2019-06-19T13:28:39Z</time>
      </trkpt>
      <trkpt lat="43.464483" lon="-7.048519">
        <ele>6.820</ele>
        <time>2019-06-19T13:28:40Z</time>
      </trkpt>
      <trkpt lat="43.464436" lon="-7.048617">
        <ele>6.908</ele>
        <time>2019-06-19T13:28:41Z</time>
      </trkpt>
      <trkpt lat="43.464365" lon="-7.048808">
        <ele>6.292</ele>
        <time>2019-06-19T13:28:42Z</time>
      </trkpt>
      <trkpt lat="43.464302" lon="-7.048887">
        <ele>6.066</ele>
        <time>2019-06-19T13:28:43Z</time>
      </trkpt>
      <trkpt lat="43.464278" lon="-7.049022">
        <ele>6.377</ele>
        <time>2019-06-19T13:28:44Z</time>
      </trkpt>
      <trkpt lat="43.464278" lon="-7.049146">
        <ele>6.630</ele>
        <time>2019-06-19T13:28:45Z</time>
      </trkpt>
      <trkpt lat="43.464286" lon="-7.049324">
        <ele>6.920</ele>
        <time>2019-06-19T13:28:46Z</time>
      </trkpt>
      <trkpt lat="43.464267" lon="-7.049488">
        <ele>7.336</ele>
        <time>2019-06-19T13:28:47Z</time>
      </trkpt>
      <trkpt lat="43.464256" lon="-7.049651">
        <ele>7.454</ele>
        <time>2019-06-19T13:28:48Z</time>
      </trkpt>
      <trkpt lat="43.464245" lon="-7.049800">
        <ele>7.224</ele>
        <time>2019-06-19T13:28:49Z</time>
      </trkpt>
      <trkpt lat="43.464234" lon="-7.049946">
        <ele>6.722</ele>
        <time>2019-06-19T13:28:50Z</time>
      </trkpt>
      <trkpt lat="43.464223" lon="-7.050106">
        <ele>6.662</ele>
        <time>2019-06-19T13:28:51Z</time>
      </trkpt>
      <trkpt lat="43.464208" lon="-7.050272">
        <ele>6.708</ele>
        <time>2019-06-19T13:28:52Z</time>
      </trkpt>
      <trkpt lat="43.464229" lon="-7.050419">
        <ele>6.608</ele>
        <time>2019-06-19T13:28:53Z</time>
      </trkpt>
      <trkpt lat="43.464236" lon="-7.050589">
        <ele>6.745</ele>
        <time>2019-06-19T13:28:54Z</time>
      </trkpt>
      <trkpt lat="43.464259" lon="-7.050739">
        <ele>7.249</ele>
        <time>2019-06-19T13:28:55Z</time>
      </trkpt>
      <trkpt lat="43.464273" lon="-7.050915">
        <ele>7.710</ele>
        <time>2019-06-19T13:28:56Z</time>
      </trkpt>
      <trkpt lat="43.464284" lon="-7.051091">
        <ele>8.073</ele>
        <time>2019-06-19T13:28:57Z</time>
      </trkpt>
      <trkpt lat="43.464294" lon="-7.051263">
        <ele>7.473</ele>
        <time>2019-06-19T13:28:58Z</time>
      </trkpt>
      <trkpt lat="43.464314" lon="-7.051427">
        <ele>6.929</ele>
        <time>2019-06-19T13:28:59Z</time>
      </trkpt>
      <trkpt lat="43.464331" lon="-7.051584">
        <ele>6.167</ele>
        <time>2019-06-19T13:29:00Z</time>
      </trkpt>
      <trkpt lat="43.464336" lon="-7.051744">
        <ele>5.787</ele>
        <time>2019-06-19T13:29:01Z</time>
      </trkpt>
      <trkpt lat="43.464337" lon="-7.051898">
        <ele>5.975</ele>
        <time>2019-06-19T13:29:02Z</time>
      </trkpt>
      <trkpt lat="43.464340" lon="-7.052040">
        <ele>6.928</ele>
        <time>2019-06-19T13:29:03Z</time>
      </trkpt>
      <trkpt lat="43.464352" lon="-7.052193">
        <ele>8.420</ele>
        <time>2019-06-19T13:29:04Z</time>
      </trkpt>
      <trkpt lat="43.464367" lon="-7.052335">
        <ele>9.408</ele>
        <time>2019-06-19T13:29:05Z</time>
      </trkpt>
      <trkpt lat="43.464427" lon="-7.052487">
        <ele>10.010</ele>
        <time>2019-06-19T13:29:06Z</time>
      </trkpt>
      <trkpt lat="43.464473" lon="-7.052636">
        <ele>8.634</ele>
        <time>2019-06-19T13:29:07Z</time>
      </trkpt>
      <trkpt lat="43.464527" lon="-7.052777">
        <ele>6.865</ele>
        <time>2019-06-19T13:29:08Z</time>
      </trkpt>
      <trkpt lat="43.464589" lon="-7.052901">
        <ele>5.968</ele>
        <time>2019-06-19T13:29:09Z</time>
      </trkpt>
      <trkpt lat="43.464668" lon="-7.053022">
        <ele>4.238</ele>
        <time>2019-06-19T13:29:10Z</time>
      </trkpt>
      <trkpt lat="43.464695" lon="-7.053172">
        <ele>4.054</ele>
        <time>2019-06-19T13:29:11Z</time>
      </trkpt>
      <trkpt lat="43.464810" lon="-7.053242">
        <ele>3.582</ele>
        <time>2019-06-19T13:29:12Z</time>
      </trkpt>
      <trkpt lat="43.464883" lon="-7.053341">
        <ele>3.562</ele>
        <time>2019-06-19T13:29:13Z</time>
      </trkpt>
      <trkpt lat="43.465022" lon="-7.053343">
        <ele>3.198</ele>
        <time>2019-06-19T13:29:14Z</time>
      </trkpt>
      <trkpt lat="43.465106" lon="-7.053383">
        <ele>3.315</ele>
        <time>2019-06-19T13:29:15Z</time>
      </trkpt>
      <trkpt lat="43.465207" lon="-7.053377">
        <ele>3.226</ele>
        <time>2019-06-19T13:29:16Z</time>
      </trkpt>
      <trkpt lat="43.465289" lon="-7.053422">
        <ele>3.208</ele>
        <time>2019-06-19T13:29:17Z</time>
      </trkpt>
      <trkpt lat="43.465383" lon="-7.053435">
        <ele>2.632</ele>
        <time>2019-06-19T13:29:18Z</time>
      </trkpt>
      <trkpt lat="43.465469" lon="-7.053437">
        <ele>2.086</ele>
        <time>2019-06-19T13:29:19Z</time>
      </trkpt>
      <trkpt lat="43.465570" lon="-7.053444">
        <ele>1.477</ele>
        <time>2019-06-19T13:29:20Z</time>
      </trkpt>
      <trkpt lat="43.465658" lon="-7.053472">
        <ele>1.940</ele>
        <time>2019-06-19T13:29:21Z</time>
      </trkpt>
      <trkpt lat="43.465756" lon="-7.053489">
        <ele>2.460</ele>
        <time>2019-06-19T13:29:22Z</time>
      </trkpt>
      <trkpt lat="43.465871" lon="-7.053524">
        <ele>3.166</ele>
        <time>2019-06-19T13:29:23Z</time>
      </trkpt>
      <trkpt lat="43.465989" lon="-7.053537">
        <ele>3.364</ele>
        <time>2019-06-19T13:29:24Z</time>
      </trkpt>
      <trkpt lat="43.466109" lon="-7.053548">
        <ele>3.584</ele>
        <time>2019-06-19T13:29:25Z</time>
      </trkpt>
      <trkpt lat="43.466229" lon="-7.053560">
        <ele>3.162</ele>
        <time>2019-06-19T13:29:26Z</time>
      </trkpt>
      <trkpt lat="43.466328" lon="-7.053581">
        <ele>2.983</ele>
        <time>2019-06-19T13:29:27Z</time>
      </trkpt>
      <trkpt lat="43.466442" lon="-7.053614">
        <ele>3.411</ele>
        <time>2019-06-19T13:29:28Z</time>
      </trkpt>
      <trkpt lat="43.466559" lon="-7.053639">
        <ele>4.708</ele>
        <time>2019-06-19T13:29:29Z</time>
      </trkpt>
      <trkpt lat="43.466669" lon="-7.053678">
        <ele>6.249</ele>
        <time>2019-06-19T13:29:30Z</time>
      </trkpt>
      <trkpt lat="43.466806" lon="-7.053713">
        <ele>7.553</ele>
        <time>2019-06-19T13:29:31Z</time>
      </trkpt>
      <trkpt lat="43.466928" lon="-7.053754">
        <ele>8.534</ele>
        <time>2019-06-19T13:29:32Z</time>
      </trkpt>
      <trkpt lat="43.467062" lon="-7.053778">
        <ele>8.527</ele>
        <time>2019-06-19T13:29:33Z</time>
      </trkpt>
      <trkpt lat="43.467170" lon="-7.053837">
        <ele>9.167</ele>
        <time>2019-06-19T13:29:34Z</time>
      </trkpt>
      <trkpt lat="43.467281" lon="-7.053891">
        <ele>9.893</ele>
        <time>2019-06-19T13:29:35Z</time>
      </trkpt>
      <trkpt lat="43.467395" lon="-7.053932">
        <ele>10.631</ele>
        <time>2019-06-19T13:29:36Z</time>
      </trkpt>
      <trkpt lat="43.467509" lon="-7.053981">
        <ele>11.731</ele>
        <time>2019-06-19T13:29:37Z</time>
      </trkpt>
      <trkpt lat="43.467619" lon="-7.054015">
        <ele>12.753</ele>
        <time>2019-06-19T13:29:38Z</time>
      </trkpt>
      <trkpt lat="43.467739" lon="-7.054075">
        <ele>14.104</ele>
        <time>2019-06-19T13:29:39Z</time>
      </trkpt>
      <trkpt lat="43.467861" lon="-7.054137">
        <ele>15.014</ele>
        <time>2019-06-19T13:29:40Z</time>
      </trkpt>
      <trkpt lat="43.467992" lon="-7.054165">
        <ele>15.208</ele>
        <time>2019-06-19T13:29:41Z</time>
      </trkpt>
      <trkpt lat="43.468121" lon="-7.054185">
        <ele>13.628</ele>
        <time>2019-06-19T13:29:42Z</time>
      </trkpt>
      <trkpt lat="43.468246" lon="-7.054230">
        <ele>11.082</ele>
        <time>2019-06-19T13:29:43Z</time>
      </trkpt>
      <trkpt lat="43.468360" lon="-7.054310">
        <ele>9.633</ele>
        <time>2019-06-19T13:29:44Z</time>
      </trkpt>
      <trkpt lat="43.468493" lon="-7.054366">
        <ele>8.226</ele>
        <time>2019-06-19T13:29:45Z</time>
      </trkpt>
      <trkpt lat="43.468625" lon="-7.054429">
        <ele>6.636</ele>
        <time>2019-06-19T13:29:46Z</time>
      </trkpt>
      <trkpt lat="43.468756" lon="-7.054473">
        <ele>5.822</ele>
        <time>2019-06-19T13:29:47Z</time>
      </trkpt>
      <trkpt lat="43.468891" lon="-7.054524">
        <ele>5.620</ele>
        <time>2019-06-19T13:29:48Z</time>
      </trkpt>
      <trkpt lat="43.469022" lon="-7.054572">
        <ele>6.090</ele>
        <time>2019-06-19T13:29:49Z</time>
      </trkpt>
      <trkpt lat="43.469155" lon="-7.054625">
        <ele>5.755</ele>
        <time>2019-06-19T13:29:50Z</time>
      </trkpt>
      <trkpt lat="43.469277" lon="-7.054684">
        <ele>6.207</ele>
        <time>2019-06-19T13:29:51Z</time>
      </trkpt>
      <trkpt lat="43.469407" lon="-7.054726">
        <ele>6.217</ele>
        <time>2019-06-19T13:29:52Z</time>
      </trkpt>
      <trkpt lat="43.469534" lon="-7.054775">
        <ele>7.208</ele>
        <time>2019-06-19T13:29:53Z</time>
      </trkpt>
      <trkpt lat="43.469665" lon="-7.054817">
        <ele>8.348</ele>
        <time>2019-06-19T13:29:54Z</time>
      </trkpt>
      <trkpt lat="43.469792" lon="-7.054866">
        <ele>8.662</ele>
        <time>2019-06-19T13:29:55Z</time>
      </trkpt>
      <trkpt lat="43.469933" lon="-7.054916">
        <ele>7.273</ele>
        <time>2019-06-19T13:29:56Z</time>
      </trkpt>
      <trkpt lat="43.470069" lon="-7.054968">
        <ele>6.416</ele>
        <time>2019-06-19T13:29:57Z</time>
      </trkpt>
      <trkpt lat="43.470203" lon="-7.055019">
        <ele>6.756</ele>
        <time>2019-06-19T13:29:58Z</time>
      </trkpt>
      <trkpt lat="43.470337" lon="-7.055062">
        <ele>7.382</ele>
        <time>2019-06-19T13:29:59Z</time>
      </trkpt>
      <trkpt lat="43.470470" lon="-7.055113">
        <ele>8.270</ele>
        <time>2019-06-19T13:30:00Z</time>
      </trkpt>
      <trkpt lat="43.470604" lon="-7.055167">
        <ele>8.690</ele>
        <time>2019-06-19T13:30:01Z</time>
      </trkpt>
      <trkpt lat="43.470738" lon="-7.055230">
        <ele>8.466</ele>
        <time>2019-06-19T13:30:02Z</time>
      </trkpt>
      <trkpt lat="43.470868" lon="-7.055306">
        <ele>8.029</ele>
        <time>2019-06-19T13:30:03Z</time>
      </trkpt>
      <trkpt lat="43.470989" lon="-7.055396">
        <ele>7.521</ele>
        <time>2019-06-19T13:30:04Z</time>
      </trkpt>
      <trkpt lat="43.471102" lon="-7.055494">
        <ele>6.708</ele>
        <time>2019-06-19T13:30:05Z</time>
      </trkpt>
      <trkpt lat="43.471202" lon="-7.055612">
        <ele>5.919</ele>
        <time>2019-06-19T13:30:06Z</time>
      </trkpt>
      <trkpt lat="43.471297" lon="-7.055721">
        <ele>4.923</ele>
        <time>2019-06-19T13:30:07Z</time>
      </trkpt>
      <trkpt lat="43.471378" lon="-7.055826">
        <ele>4.174</ele>
        <time>2019-06-19T13:30:08Z</time>
      </trkpt>
      <trkpt lat="43.471459" lon="-7.055921">
        <ele>4.097</ele>
        <time>2019-06-19T13:30:09Z</time>
      </trkpt>
      <trkpt lat="43.471527" lon="-7.056012">
        <ele>3.877</ele>
        <time>2019-06-19T13:30:10Z</time>
      </trkpt>
      <trkpt lat="43.471599" lon="-7.056102">
        <ele>3.553</ele>
        <time>2019-06-19T13:30:11Z</time>
      </trkpt>
      <trkpt lat="43.471665" lon="-7.056192">
        <ele>3.341</ele>
        <time>2019-06-19T13:30:12Z</time>
      </trkpt>
      <trkpt lat="43.471739" lon="-7.056289">
        <ele>2.941</ele>
        <time>2019-06-19T13:30:13Z</time>
      </trkpt>
      <trkpt lat="43.471820" lon="-7.056394">
        <ele>2.959</ele>
        <time>2019-06-19T13:30:14Z</time>
      </trkpt>
      <trkpt lat="43.471904" lon="-7.056502">
        <ele>1.903</ele>
        <time>2019-06-19T13:30:15Z</time>
      </trkpt>
      <trkpt lat="43.471995" lon="-7.056614">
        <ele>0.923</ele>
        <time>2019-06-19T13:30:16Z</time>
      </trkpt>
      <trkpt lat="43.472077" lon="-7.056730">
        <ele>0.508</ele>
        <time>2019-06-19T13:30:17Z</time>
      </trkpt>
      <trkpt lat="43.472159" lon="-7.056843">
        <ele>0.298</ele>
        <time>2019-06-19T13:30:18Z</time>
      </trkpt>
      <trkpt lat="43.472247" lon="-7.056947">
        <ele>0.032</ele>
        <time>2019-06-19T13:30:19Z</time>
      </trkpt>
      <trkpt lat="43.472328" lon="-7.057051">
        <ele>0.293</ele>
        <time>2019-06-19T13:30:20Z</time>
      </trkpt>
      <trkpt lat="43.472405" lon="-7.057154">
        <ele>0.396</ele>
        <time>2019-06-19T13:30:21Z</time>
      </trkpt>
      <trkpt lat="43.472466" lon="-7.057255">
        <ele>0.296</ele>
        <time>2019-06-19T13:30:22Z</time>
      </trkpt>
      <trkpt lat="43.472534" lon="-7.057355">
        <ele>0.592</ele>
        <time>2019-06-19T13:30:23Z</time>
      </trkpt>
      <trkpt lat="43.472601" lon="-7.057475">
        <ele>1.210</ele>
        <time>2019-06-19T13:30:24Z</time>
      </trkpt>
      <trkpt lat="43.472679" lon="-7.057564">
        <ele>1.850</ele>
        <time>2019-06-19T13:30:25Z</time>
      </trkpt>
      <trkpt lat="43.472762" lon="-7.057646">
        <ele>2.431</ele>
        <time>2019-06-19T13:30:26Z</time>
      </trkpt>
      <trkpt lat="43.472864" lon="-7.057696">
        <ele>3.561</ele>
        <time>2019-06-19T13:30:27Z</time>
      </trkpt>
      <trkpt lat="43.472965" lon="-7.057747">
        <ele>4.807</ele>
        <time>2019-06-19T13:30:28Z</time>
      </trkpt>
      <trkpt lat="43.473077" lon="-7.057795">
        <ele>6.208</ele>
        <time>2019-06-19T13:30:29Z</time>
      </trkpt>
      <trkpt lat="43.473195" lon="-7.057828">
        <ele>7.316</ele>
        <time>2019-06-19T13:30:30Z</time>
      </trkpt>
      <trkpt lat="43.473348" lon="-7.057788">
        <ele>8.390</ele>
        <time>2019-06-19T13:30:31Z</time>
      </trkpt>
      <trkpt lat="43.473503" lon="-7.057769">
        <ele>10.971</ele>
        <time>2019-06-19T13:30:32Z</time>
      </trkpt>
      <trkpt lat="43.473684" lon="-7.057708">
        <ele>12.334</ele>
        <time>2019-06-19T13:30:33Z</time>
      </trkpt>
      <trkpt lat="43.473783" lon="-7.057606">
        <ele>11.164</ele>
        <time>2019-06-19T13:30:34Z</time>
      </trkpt>
      <trkpt lat="43.473958" lon="-7.057507">
        <ele>10.490</ele>
        <time>2019-06-19T13:30:35Z</time>
      </trkpt>
      <trkpt lat="43.474124" lon="-7.057427">
        <ele>9.818</ele>
        <time>2019-06-19T13:30:36Z</time>
      </trkpt>
      <trkpt lat="43.474278" lon="-7.057345">
        <ele>10.188</ele>
        <time>2019-06-19T13:30:37Z</time>
      </trkpt>
      <trkpt lat="43.474431" lon="-7.057274">
        <ele>10.288</ele>
        <time>2019-06-19T13:30:38Z</time>
      </trkpt>
      <trkpt lat="43.474571" lon="-7.057203">
        <ele>9.624</ele>
        <time>2019-06-19T13:30:39Z</time>
      </trkpt>
      <trkpt lat="43.474713" lon="-7.057140">
        <ele>9.526</ele>
        <time>2019-06-19T13:30:40Z</time>
      </trkpt>
      <trkpt lat="43.474879" lon="-7.057075">
        <ele>7.508</ele>
        <time>2019-06-19T13:30:41Z</time>
      </trkpt>
      <trkpt lat="43.475047" lon="-7.057018">
        <ele>6.031</ele>
        <time>2019-06-19T13:30:42Z</time>
      </trkpt>
      <trkpt lat="43.475217" lon="-7.056968">
        <ele>5.395</ele>
        <time>2019-06-19T13:30:43Z</time>
      </trkpt>
      <trkpt lat="43.475408" lon="-7.056935">
        <ele>5.966</ele>
        <time>2019-06-19T13:30:44Z</time>
      </trkpt>
      <trkpt lat="43.475601" lon="-7.056928">
        <ele>6.699</ele>
        <time>2019-06-19T13:30:45Z</time>
      </trkpt>
      <trkpt lat="43.475842" lon="-7.056910">
        <ele>5.669</ele>
        <time>2019-06-19T13:30:46Z</time>
      </trkpt>
      <trkpt lat="43.476065" lon="-7.056910">
        <ele>4.895</ele>
        <time>2019-06-19T13:30:47Z</time>
      </trkpt>
      <trkpt lat="43.476305" lon="-7.056897">
        <ele>4.593</ele>
        <time>2019-06-19T13:30:48Z</time>
      </trkpt>
      <trkpt lat="43.476560" lon="-7.056890">
        <ele>4.473</ele>
        <time>2019-06-19T13:30:49Z</time>
      </trkpt>
      <trkpt lat="43.476811" lon="-7.056876">
        <ele>4.488</ele>
        <time>2019-06-19T13:30:50Z</time>
      </trkpt>
      <trkpt lat="43.477060" lon="-7.056864">
        <ele>4.424</ele>
        <time>2019-06-19T13:30:51Z</time>
      </trkpt>
      <trkpt lat="43.477308" lon="-7.056858">
        <ele>4.026</ele>
        <time>2019-06-19T13:30:52Z</time>
      </trkpt>
      <trkpt lat="43.477570" lon="-7.056846">
        <ele>2.808</ele>
        <time>2019-06-19T13:30:53Z</time>
      </trkpt>
      <trkpt lat="43.477828" lon="-7.056829">
        <ele>2.231</ele>
        <time>2019-06-19T13:30:54Z</time>
      </trkpt>
      <trkpt lat="43.478044" lon="-7.056803">
        <ele>1.625</ele>
        <time>2019-06-19T13:30:55Z</time>
      </trkpt>
      <trkpt lat="43.478300" lon="-7.056795">
        <ele>2.096</ele>
        <time>2019-06-19T13:30:56Z</time>
      </trkpt>
      <trkpt lat="43.478551" lon="-7.056786">
        <ele>1.719</ele>
        <time>2019-06-19T13:30:57Z</time>
      </trkpt>
      <trkpt lat="43.478799" lon="-7.056778">
        <ele>0.999</ele>
        <time>2019-06-19T13:30:58Z</time>
      </trkpt>
      <trkpt lat="43.479049" lon="-7.056765">
        <ele>0.895</ele>
        <time>2019-06-19T13:30:59Z</time>
      </trkpt>
      <trkpt lat="43.479311" lon="-7.056749">
        <ele>0.663</ele>
        <time>2019-06-19T13:31:00Z</time>
      </trkpt>
      <trkpt lat="43.479554" lon="-7.056730">
        <ele>-0.283</ele>
        <time>2019-06-19T13:31:01Z</time>
      </trkpt>
      <trkpt lat="43.479813" lon="-7.056711">
        <ele>-0.867</ele>
        <time>2019-06-19T13:31:02Z</time>
      </trkpt>
      <trkpt lat="43.480067" lon="-7.056694">
        <ele>-0.781</ele>
        <time>2019-06-19T13:31:03Z</time>
      </trkpt>
      <trkpt lat="43.480328" lon="-7.056681">
        <ele>0.019</ele>
        <time>2019-06-19T13:31:04Z</time>
      </trkpt>
      <trkpt lat="43.480586" lon="-7.056668">
        <ele>-0.108</ele>
        <time>2019-06-19T13:31:05Z</time>
      </trkpt>
      <trkpt lat="43.480843" lon="-7.056662">
        <ele>-1.039</ele>
        <time>2019-06-19T13:31:06Z</time>
      </trkpt>
      <trkpt lat="43.481143" lon="-7.056649">
        <ele>-0.993</ele>
        <time>2019-06-19T13:31:07Z</time>
      </trkpt>
      <trkpt lat="43.481398" lon="-7.056636">
        <ele>-0.154</ele>
        <time>2019-06-19T13:31:08Z</time>
      </trkpt>
      <trkpt lat="43.481631" lon="-7.056617">
        <ele>0.867</ele>
        <time>2019-06-19T13:31:09Z</time>
      </trkpt>
      <trkpt lat="43.481887" lon="-7.056572">
        <ele>3.637</ele>
        <time>2019-06-19T13:31:10Z</time>
      </trkpt>
      <trkpt lat="43.482136" lon="-7.056504">
        <ele>6.253</ele>
        <time>2019-06-19T13:31:11Z</time>
      </trkpt>
      <trkpt lat="43.482290" lon="-7.056426">
        <ele>6.751</ele>
        <time>2019-06-19T13:31:12Z</time>
      </trkpt>
      <trkpt lat="43.482544" lon="-7.056343">
        <ele>5.971</ele>
        <time>2019-06-19T13:31:13Z</time>
      </trkpt>
      <trkpt lat="43.482814" lon="-7.056237">
        <ele>3.058</ele>
        <time>2019-06-19T13:31:14Z</time>
      </trkpt>
      <trkpt lat="43.483081" lon="-7.056163">
        <ele>3.352</ele>
        <time>2019-06-19T13:31:15Z</time>
      </trkpt>
      <trkpt lat="43.483355" lon="-7.056082">
        <ele>5.617</ele>
        <time>2019-06-19T13:31:16Z</time>
      </trkpt>
      <trkpt lat="43.483606" lon="-7.055984">
        <ele>5.708</ele>
        <time>2019-06-19T13:31:17Z</time>
      </trkpt>
      <trkpt lat="43.483873" lon="-7.055901">
        <ele>3.338</ele>
        <time>2019-06-19T13:31:18Z</time>
      </trkpt>
      <trkpt lat="43.484099" lon="-7.055797">
        <ele>0.952</ele>
        <time>2019-06-19T13:31:19Z</time>
      </trkpt>
      <trkpt lat="43.484351" lon="-7.055700">
        <ele>0.073</ele>
        <time>2019-06-19T13:31:20Z</time>
      </trkpt>
      <trkpt lat="43.484598" lon="-7.055589">
        <ele>-0.836</ele>
        <time>2019-06-19T13:31:21Z</time>
      </trkpt>
      <trkpt lat="43.484853" lon="-7.055498">
        <ele>-0.086</ele>
        <time>2019-06-19T13:31:22Z</time>
      </trkpt>
      <trkpt lat="43.485088" lon="-7.055414">
        <ele>1.642</ele>
        <time>2019-06-19T13:31:23Z</time>
      </trkpt>
      <trkpt lat="43.485324" lon="-7.055318">
        <ele>3.290</ele>
        <time>2019-06-19T13:31:24Z</time>
      </trkpt>
      <trkpt lat="43.485560" lon="-7.055219">
        <ele>1.820</ele>
        <time>2019-06-19T13:31:25Z</time>
      </trkpt>
      <trkpt lat="43.485825" lon="-7.055108">
        <ele>0.643</ele>
        <time>2019-06-19T13:31:26Z</time>
      </trkpt>
      <trkpt lat="43.486080" lon="-7.055005">
        <ele>3.664</ele>
        <time>2019-06-19T13:31:27Z</time>
      </trkpt>
      <trkpt lat="43.486324" lon="-7.054917">
        <ele>8.810</ele>
        <time>2019-06-19T13:31:28Z</time>
      </trkpt>
      <trkpt lat="43.486567" lon="-7.054819">
        <ele>11.208</ele>
        <time>2019-06-19T13:31:29Z</time>
      </trkpt>
      <trkpt lat="43.486815" lon="-7.054750">
        <ele>14.247</ele>
        <time>2019-06-19T13:31:30Z</time>
      </trkpt>
      <trkpt lat="43.487035" lon="-7.054694">
        <ele>16.551</ele>
        <time>2019-06-19T13:31:31Z</time>
      </trkpt>
      <trkpt lat="43.487310" lon="-7.054583">
        <ele>16.082</ele>
        <time>2019-06-19T13:31:32Z</time>
      </trkpt>
      <trkpt lat="43.487548" lon="-7.054479">
        <ele>12.975</ele>
        <time>2019-06-19T13:31:33Z</time>
      </trkpt>
      <trkpt lat="43.487789" lon="-7.054395">
        <ele>7.225</ele>
        <time>2019-06-19T13:31:34Z</time>
      </trkpt>
      <trkpt lat="43.488005" lon="-7.054333">
        <ele>6.051</ele>
        <time>2019-06-19T13:31:35Z</time>
      </trkpt>
      <trkpt lat="43.488182" lon="-7.054262">
        <ele>4.459</ele>
        <time>2019-06-19T13:31:36Z</time>
      </trkpt>
      <trkpt lat="43.488431" lon="-7.054253">
        <ele>5.449</ele>
        <time>2019-06-19T13:31:37Z</time>
      </trkpt>
      <trkpt lat="43.488663" lon="-7.054249">
        <ele>6.177</ele>
        <time>2019-06-19T13:31:38Z</time>
      </trkpt>
      <trkpt lat="43.488890" lon="-7.054275">
        <ele>9.361</ele>
        <time>2019-06-19T13:31:39Z</time>
      </trkpt>
      <trkpt lat="43.489123" lon="-7.054324">
        <ele>8.327</ele>
        <time>2019-06-19T13:31:40Z</time>
      </trkpt>
      <trkpt lat="43.489348" lon="-7.054363">
        <ele>5.508</ele>
        <time>2019-06-19T13:31:41Z</time>
      </trkpt>
      <trkpt lat="43.489577" lon="-7.054402">
        <ele>4.640</ele>
        <time>2019-06-19T13:31:42Z</time>
      </trkpt>
      <trkpt lat="43.489813" lon="-7.054457">
        <ele>6.344</ele>
        <time>2019-06-19T13:31:43Z</time>
      </trkpt>
      <trkpt lat="43.490051" lon="-7.054504">
        <ele>7.325</ele>
        <time>2019-06-19T13:31:44Z</time>
      </trkpt>
      <trkpt lat="43.490296" lon="-7.054558">
        <ele>7.858</ele>
        <time>2019-06-19T13:31:45Z</time>
      </trkpt>
      <trkpt lat="43.490556" lon="-7.054607">
        <ele>8.558</ele>
        <time>2019-06-19T13:31:46Z</time>
      </trkpt>
      <trkpt lat="43.490785" lon="-7.054653">
        <ele>7.684</ele>
        <time>2019-06-19T13:31:47Z</time>
      </trkpt>
      <trkpt lat="43.491029" lon="-7.054695">
        <ele>8.452</ele>
        <time>2019-06-19T13:31:48Z</time>
      </trkpt>
      <trkpt lat="43.491278" lon="-7.054741">
        <ele>8.552</ele>
        <time>2019-06-19T13:31:49Z</time>
      </trkpt>
      <trkpt lat="43.491521" lon="-7.054779">
        <ele>6.484</ele>
        <time>2019-06-19T13:31:50Z</time>
      </trkpt>
      <trkpt lat="43.491742" lon="-7.054817">
        <ele>4.007</ele>
        <time>2019-06-19T13:31:51Z</time>
      </trkpt>
      <trkpt lat="43.491995" lon="-7.054856">
        <ele>3.317</ele>
        <time>2019-06-19T13:31:52Z</time>
      </trkpt>
      <trkpt lat="43.492166" lon="-7.054916">
        <ele>3.308</ele>
        <time>2019-06-19T13:31:53Z</time>
      </trkpt>
      <trkpt lat="43.492336" lon="-7.054983">
        <ele>3.861</ele>
        <time>2019-06-19T13:31:54Z</time>
      </trkpt>
      <trkpt lat="43.492507" lon="-7.055078">
        <ele>4.635</ele>
        <time>2019-06-19T13:31:55Z</time>
      </trkpt>
      <trkpt lat="43.492613" lon="-7.055231">
        <ele>5.766</ele>
        <time>2019-06-19T13:31:56Z</time>
      </trkpt>
      <trkpt lat="43.492734" lon="-7.055370">
        <ele>6.449</ele>
        <time>2019-06-19T13:31:57Z</time>
      </trkpt>
      <trkpt lat="43.492841" lon="-7.055525">
        <ele>6.729</ele>
        <time>2019-06-19T13:31:58Z</time>
      </trkpt>
      <trkpt lat="43.492897" lon="-7.055758">
        <ele>8.415</ele>
        <time>2019-06-19T13:31:59Z</time>
      </trkpt>
      <trkpt lat="43.492965" lon="-7.055942">
        <ele>9.693</ele>
        <time>2019-06-19T13:32:00Z</time>
      </trkpt>
      <trkpt lat="43.493043" lon="-7.056138">
        <ele>10.413</ele>
        <time>2019-06-19T13:32:01Z</time>
      </trkpt>
      <trkpt lat="43.493132" lon="-7.056328">
        <ele>12.043</ele>
        <time>2019-06-19T13:32:02Z</time>
      </trkpt>
      <trkpt lat="43.493258" lon="-7.056492">
        <ele>13.964</ele>
        <time>2019-06-19T13:32:03Z</time>
      </trkpt>
      <trkpt lat="43.493386" lon="-7.056640">
        <ele>14.710</ele>
        <time>2019-06-19T13:32:04Z</time>
      </trkpt>
      <trkpt lat="43.493535" lon="-7.056793">
        <ele>15.008</ele>
        <time>2019-06-19T13:32:05Z</time>
      </trkpt>
      <trkpt lat="43.493680" lon="-7.056940">
        <ele>14.927</ele>
        <time>2019-06-19T13:32:06Z</time>
      </trkpt>
      <trkpt lat="43.493811" lon="-7.057137">
        <ele>15.321</ele>
        <time>2019-06-19T13:32:07Z</time>
      </trkpt>
      <trkpt lat="43.493955" lon="-7.057337">
        <ele>14.112</ele>
        <time>2019-06-19T13:32:08Z</time>
      </trkpt>
      <trkpt lat="43.494072" lon="-7.057562">
        <ele>13.915</ele>
        <time>2019-06-19T13:32:09Z</time>
      </trkpt>
      <trkpt lat="43.494190" lon="-7.057806">
        <ele>13.855</ele>
        <time>2019-06-19T13:32:10Z</time>
      </trkpt>
      <trkpt lat="43.494267" lon="-7.058033">
        <ele>14.881</ele>
        <time>2019-06-19T13:32:11Z</time>
      </trkpt>
      <trkpt lat="43.494344" lon="-7.058254">
        <ele>14.319</ele>
        <time>2019-06-19T13:32:12Z</time>
      </trkpt>
      <trkpt lat="43.494444" lon="-7.058461">
        <ele>14.359</ele>
        <time>2019-06-19T13:32:13Z</time>
      </trkpt>
      <trkpt lat="43.494531" lon="-7.058661">
        <ele>15.064</ele>
        <time>2019-06-19T13:32:14Z</time>
      </trkpt>
      <trkpt lat="43.494597" lon="-7.058891">
        <ele>16.606</ele>
        <time>2019-06-19T13:32:15Z</time>
      </trkpt>
      <trkpt lat="43.494541" lon="-7.059128">
        <ele>20.816</ele>
        <time>2019-06-19T13:32:16Z</time>
      </trkpt>
      <trkpt lat="43.494622" lon="-7.059347">
        <ele>19.208</ele>
        <time>2019-06-19T13:32:17Z</time>
      </trkpt>
      <trkpt lat="43.494577" lon="-7.059478">
        <ele>21.579</ele>
        <time>2019-06-19T13:32:18Z</time>
      </trkpt>
      <trkpt lat="43.494619" lon="-7.059629">
        <ele>20.063</ele>
        <time>2019-06-19T13:32:19Z</time>
      </trkpt>
      <trkpt lat="43.494665" lon="-7.059768">
        <ele>18.074</ele>
        <time>2019-06-19T13:32:20Z</time>
      </trkpt>
      <trkpt lat="43.494720" lon="-7.059873">
        <ele>15.857</ele>
        <time>2019-06-19T13:32:21Z</time>
      </trkpt>
      <trkpt lat="43.494784" lon="-7.059965">
        <ele>13.447</ele>
        <time>2019-06-19T13:32:22Z</time>
      </trkpt>
      <trkpt lat="43.494837" lon="-7.060070">
        <ele>11.233</ele>
        <time>2019-06-19T13:32:23Z</time>
      </trkpt>
      <trkpt lat="43.494917" lon="-7.060093">
        <ele>7.171</ele>
        <time>2019-06-19T13:32:24Z</time>
      </trkpt>
      <trkpt lat="43.495088" lon="-7.060085">
        <ele>2.171</ele>
        <time>2019-06-19T13:32:25Z</time>
      </trkpt>
      <trkpt lat="43.495220" lon="-7.060078">
        <ele>1.316</ele>
        <time>2019-06-19T13:32:26Z</time>
      </trkpt>
      <trkpt lat="43.495332" lon="-7.060075">
        <ele>2.476</ele>
        <time>2019-06-19T13:32:27Z</time>
      </trkpt>
      <trkpt lat="43.495439" lon="-7.060062">
        <ele>5.113</ele>
        <time>2019-06-19T13:32:28Z</time>
      </trkpt>
      <trkpt lat="43.495548" lon="-7.060001">
        <ele>7.808</ele>
        <time>2019-06-19T13:32:29Z</time>
      </trkpt>
      <trkpt lat="43.495670" lon="-7.059921">
        <ele>12.144</ele>
        <time>2019-06-19T13:32:30Z</time>
      </trkpt>
      <trkpt lat="43.495744" lon="-7.059839">
        <ele>15.098</ele>
        <time>2019-06-19T13:32:31Z</time>
      </trkpt>
      <trkpt lat="43.495682" lon="-7.059527">
        <ele>12.519</ele>
        <time>2019-06-19T13:32:32Z</time>
      </trkpt>
      <trkpt lat="43.495709" lon="-7.059354">
        <ele>13.212</ele>
        <time>2019-06-19T13:32:33Z</time>
      </trkpt>
      <trkpt lat="43.495681" lon="-7.059136">
        <ele>11.622</ele>
        <time>2019-06-19T13:32:34Z</time>
      </trkpt>
      <trkpt lat="43.495621" lon="-7.058938">
        <ele>10.348</ele>
        <time>2019-06-19T13:32:35Z</time>
      </trkpt>
      <trkpt lat="43.495581" lon="-7.058732">
        <ele>11.216</ele>
        <time>2019-06-19T13:32:36Z</time>
      </trkpt>
      <trkpt lat="43.495535" lon="-7.058527">
        <ele>12.416</ele>
        <time>2019-06-19T13:32:37Z</time>
      </trkpt>
      <trkpt lat="43.495477" lon="-7.058330">
        <ele>12.884</ele>
        <time>2019-06-19T13:32:38Z</time>
      </trkpt>
      <trkpt lat="43.495415" lon="-7.058142">
        <ele>12.707</ele>
        <time>2019-06-19T13:32:39Z</time>
      </trkpt>
      <trkpt lat="43.495359" lon="-7.057952">
        <ele>12.617</ele>
        <time>2019-06-19T13:32:40Z</time>
      </trkpt>
      <trkpt lat="43.495325" lon="-7.057756">
        <ele>13.508</ele>
        <time>2019-06-19T13:32:41Z</time>
      </trkpt>
      <trkpt lat="43.495328" lon="-7.057560">
        <ele>15.031</ele>
        <time>2019-06-19T13:32:42Z</time>
      </trkpt>
      <trkpt lat="43.495328" lon="-7.057359">
        <ele>16.045</ele>
        <time>2019-06-19T13:32:43Z</time>
      </trkpt>
      <trkpt lat="43.495381" lon="-7.057130">
        <ele>17.976</ele>
        <time>2019-06-19T13:32:44Z</time>
      </trkpt>
      <trkpt lat="43.495442" lon="-7.056930">
        <ele>19.469</ele>
        <time>2019-06-19T13:32:45Z</time>
      </trkpt>
      <trkpt lat="43.495515" lon="-7.056746">
        <ele>21.019</ele>
        <time>2019-06-19T13:32:46Z</time>
      </trkpt>
      <trkpt lat="43.495605" lon="-7.056579">
        <ele>22.395</ele>
        <time>2019-06-19T13:32:47Z</time>
      </trkpt>
      <trkpt lat="43.495701" lon="-7.056414">
        <ele>23.213</ele>
        <time>2019-06-19T13:32:48Z</time>
      </trkpt>
      <trkpt lat="43.495806" lon="-7.056250">
        <ele>23.033</ele>
        <time>2019-06-19T13:32:49Z</time>
      </trkpt>
      <trkpt lat="43.495907" lon="-7.056104">
        <ele>21.118</ele>
        <time>2019-06-19T13:32:50Z</time>
      </trkpt>
      <trkpt lat="43.496006" lon="-7.056003">
        <ele>19.598</ele>
        <time>2019-06-19T13:32:51Z</time>
      </trkpt>
      <trkpt lat="43.496157" lon="-7.055882">
        <ele>17.417</ele>
        <time>2019-06-19T13:32:52Z</time>
      </trkpt>
      <trkpt lat="43.496321" lon="-7.055815">
        <ele>17.608</ele>
        <time>2019-06-19T13:32:53Z</time>
      </trkpt>
      <trkpt lat="43.496482" lon="-7.055712">
        <ele>18.874</ele>
        <time>2019-06-19T13:32:54Z</time>
      </trkpt>
      <trkpt lat="43.496660" lon="-7.055632">
        <ele>22.028</ele>
        <time>2019-06-19T13:32:55Z</time>
      </trkpt>
      <trkpt lat="43.496837" lon="-7.055565">
        <ele>24.029</ele>
        <time>2019-06-19T13:32:56Z</time>
      </trkpt>
      <trkpt lat="43.497030" lon="-7.055498">
        <ele>25.822</ele>
        <time>2019-06-19T13:32:57Z</time>
      </trkpt>
      <trkpt lat="43.497191" lon="-7.055484">
        <ele>28.392</ele>
        <time>2019-06-19T13:32:58Z</time>
      </trkpt>
      <trkpt lat="43.497382" lon="-7.055430">
        <ele>29.168</ele>
        <time>2019-06-19T13:32:59Z</time>
      </trkpt>
      <trkpt lat="43.497557" lon="-7.055432">
        <ele>31.956</ele>
        <time>2019-06-19T13:33:00Z</time>
      </trkpt>
      <trkpt lat="43.497742" lon="-7.055442">
        <ele>35.356</ele>
        <time>2019-06-19T13:33:01Z</time>
      </trkpt>
      <trkpt lat="43.497921" lon="-7.055426">
        <ele>37.614</ele>
        <time>2019-06-19T13:33:02Z</time>
      </trkpt>
      <trkpt lat="43.498107" lon="-7.055486">
        <ele>41.254</ele>
        <time>2019-06-19T13:33:03Z</time>
      </trkpt>
      <trkpt lat="43.498296" lon="-7.055527">
        <ele>40.509</ele>
        <time>2019-06-19T13:33:04Z</time>
      </trkpt>
      <trkpt lat="43.498499" lon="-7.055563">
        <ele>37.008</ele>
        <time>2019-06-19T13:33:05Z</time>
      </trkpt>
      <trkpt lat="43.498705" lon="-7.055591">
        <ele>33.024</ele>
        <time>2019-06-19T13:33:06Z</time>
      </trkpt>
      <trkpt lat="43.498880" lon="-7.055666">
        <ele>30.668</ele>
        <time>2019-06-19T13:33:07Z</time>
      </trkpt>
      <trkpt lat="43.499016" lon="-7.055745">
        <ele>30.799</ele>
        <time>2019-06-19T13:33:08Z</time>
      </trkpt>
      <trkpt lat="43.499196" lon="-7.055824">
        <ele>30.952</ele>
        <time>2019-06-19T13:33:09Z</time>
      </trkpt>
      <trkpt lat="43.499365" lon="-7.055903">
        <ele>33.052</ele>
        <time>2019-06-19T13:33:10Z</time>
      </trkpt>
      <trkpt lat="43.499518" lon="-7.055980">
        <ele>34.818</ele>
        <time>2019-06-19T13:33:11Z</time>
      </trkpt>
      <trkpt lat="43.499692" lon="-7.056050">
        <ele>36.156</ele>
        <time>2019-06-19T13:33:12Z</time>
      </trkpt>
      <trkpt lat="43.499856" lon="-7.056093">
        <ele>38.256</ele>
        <time>2019-06-19T13:33:13Z</time>
      </trkpt>
      <trkpt lat="43.500038" lon="-7.056054">
        <ele>39.534</ele>
        <time>2019-06-19T13:33:14Z</time>
      </trkpt>
      <trkpt lat="43.500219" lon="-7.056111">
        <ele>42.455</ele>
        <time>2019-06-19T13:33:15Z</time>
      </trkpt>
      <trkpt lat="43.500417" lon="-7.056146">
        <ele>43.910</ele>
        <time>2019-06-19T13:33:16Z</time>
      </trkpt>
      <trkpt lat="43.500636" lon="-7.056089">
        <ele>44.408</ele>
        <time>2019-06-19T13:33:17Z</time>
      </trkpt>
      <trkpt lat="43.500823" lon="-7.056066">
        <ele>48.166</ele>
        <time>2019-06-19T13:33:18Z</time>
      </trkpt>
      <trkpt lat="43.500968" lon="-7.056032">
        <ele>51.750</ele>
        <time>2019-06-19T13:33:19Z</time>
      </trkpt>
      <trkpt lat="43.501104" lon="-7.055876">
        <ele>49.611</ele>
        <time>2019-06-19T13:33:20Z</time>
      </trkpt>
      <trkpt lat="43.501326" lon="-7.055698">
        <ele>46.464</ele>
        <time>2019-06-19T13:33:21Z</time>
      </trkpt>
      <trkpt lat="43.501513" lon="-7.055596">
        <ele>45.484</ele>
        <time>2019-06-19T13:33:22Z</time>
      </trkpt>
      <trkpt lat="43.501727" lon="-7.055525">
        <ele>47.030</ele>
        <time>2019-06-19T13:33:23Z</time>
      </trkpt>
      <trkpt lat="43.501969" lon="-7.055501">
        <ele>52.328</ele>
        <time>2019-06-19T13:33:24Z</time>
      </trkpt>
      <trkpt lat="43.502177" lon="-7.055438">
        <ele>53.238</ele>
        <time>2019-06-19T13:33:25Z</time>
      </trkpt>
      <trkpt lat="43.502349" lon="-7.055394">
        <ele>52.751</ele>
        <time>2019-06-19T13:33:26Z</time>
      </trkpt>
      <trkpt lat="43.502526" lon="-7.055337">
        <ele>51.101</ele>
        <time>2019-06-19T13:33:27Z</time>
      </trkpt>
      <trkpt lat="43.502685" lon="-7.055251">
        <ele>48.811</ele>
        <time>2019-06-19T13:33:28Z</time>
      </trkpt>
      <trkpt lat="43.502848" lon="-7.055186">
        <ele>49.408</ele>
        <time>2019-06-19T13:33:29Z</time>
      </trkpt>
      <trkpt lat="43.502971" lon="-7.055071">
        <ele>48.468</ele>
        <time>2019-06-19T13:33:30Z</time>
      </trkpt>
      <trkpt lat="43.503116" lon="-7.054930">
        <ele>45.932</ele>
        <time>2019-06-19T13:33:31Z</time>
      </trkpt>
      <trkpt lat="43.503258" lon="-7.054787">
        <ele>41.853</ele>
        <time>2019-06-19T13:33:32Z</time>
      </trkpt>
      <trkpt lat="43.503417" lon="-7.054680">
        <ele>39.846</ele>
        <time>2019-06-19T13:33:33Z</time>
      </trkpt>
      <trkpt lat="43.503575" lon="-7.054590">
        <ele>38.576</ele>
        <time>2019-06-19T13:33:34Z</time>
      </trkpt>
      <trkpt lat="43.503735" lon="-7.054481">
        <ele>35.452</ele>
        <time>2019-06-19T13:33:35Z</time>
      </trkpt>
      <trkpt lat="43.503907" lon="-7.054441">
        <ele>36.630</ele>
        <time>2019-06-19T13:33:36Z</time>
      </trkpt>
      <trkpt lat="43.504054" lon="-7.054406">
        <ele>33.230</ele>
        <time>2019-06-19T13:33:37Z</time>
      </trkpt>
      <trkpt lat="43.504235" lon="-7.054440">
        <ele>33.365</ele>
        <time>2019-06-19T13:33:38Z</time>
      </trkpt>
      <trkpt lat="43.504320" lon="-7.054497">
        <ele>37.168</ele>
        <time>2019-06-19T13:33:39Z</time>
      </trkpt>
      <trkpt lat="43.504447" lon="-7.054491">
        <ele>37.514</ele>
        <time>2019-06-19T13:33:40Z</time>
      </trkpt>
      <trkpt lat="43.504573" lon="-7.054458">
        <ele>37.508</ele>
        <time>2019-06-19T13:33:41Z</time>
      </trkpt>
      <trkpt lat="43.504700" lon="-7.054404">
        <ele>37.549</ele>
        <time>2019-06-19T13:33:42Z</time>
      </trkpt>
      <trkpt lat="43.504822" lon="-7.054288">
        <ele>36.033</ele>
        <time>2019-06-19T13:33:43Z</time>
      </trkpt>
      <trkpt lat="43.504977" lon="-7.054154">
        <ele>36.134</ele>
        <time>2019-06-19T13:33:44Z</time>
      </trkpt>
      <trkpt lat="43.505118" lon="-7.054030">
        <ele>36.767</ele>
        <time>2019-06-19T13:33:45Z</time>
      </trkpt>
      <trkpt lat="43.505287" lon="-7.053883">
        <ele>37.117</ele>
        <time>2019-06-19T13:33:46Z</time>
      </trkpt>
      <trkpt lat="43.505457" lon="-7.053759">
        <ele>37.183</ele>
        <time>2019-06-19T13:33:47Z</time>
      </trkpt>
      <trkpt lat="43.505607" lon="-7.053663">
        <ele>37.521</ele>
        <time>2019-06-19T13:33:48Z</time>
      </trkpt>
      <trkpt lat="43.505732" lon="-7.053563">
        <ele>37.921</ele>
        <time>2019-06-19T13:33:49Z</time>
      </trkpt>
      <trkpt lat="43.505897" lon="-7.053498">
        <ele>39.944</ele>
        <time>2019-06-19T13:33:50Z</time>
      </trkpt>
      <trkpt lat="43.506057" lon="-7.053439">
        <ele>41.205</ele>
        <time>2019-06-19T13:33:51Z</time>
      </trkpt>
      <trkpt lat="43.506236" lon="-7.053438">
        <ele>41.215</ele>
        <time>2019-06-19T13:33:52Z</time>
      </trkpt>
      <trkpt lat="43.506422" lon="-7.053402">
        <ele>37.608</ele>
        <time>2019-06-19T13:33:53Z</time>
      </trkpt>
      <trkpt lat="43.506543" lon="-7.053445">
        <ele>39.117</ele>
        <time>2019-06-19T13:33:54Z</time>
      </trkpt>
      <trkpt lat="43.506678" lon="-7.053477">
        <ele>39.731</ele>
        <time>2019-06-19T13:33:55Z</time>
      </trkpt>
      <trkpt lat="43.506753" lon="-7.053607">
        <ele>44.292</ele>
        <time>2019-06-19T13:33:56Z</time>
      </trkpt>
      <trkpt lat="43.506791" lon="-7.053676">
        <ele>47.245</ele>
        <time>2019-06-19T13:33:57Z</time>
      </trkpt>
      <trkpt lat="43.506873" lon="-7.053728">
        <ele>48.885</ele>
        <time>2019-06-19T13:33:58Z</time>
      </trkpt>
      <trkpt lat="43.506990" lon="-7.053696">
        <ele>47.191</ele>
        <time>2019-06-19T13:33:59Z</time>
      </trkpt>
      <trkpt lat="43.507078" lon="-7.053684">
        <ele>47.439</ele>
        <time>2019-06-19T13:34:00Z</time>
      </trkpt>
      <trkpt lat="43.507159" lon="-7.053631">
        <ele>46.739</ele>
        <time>2019-06-19T13:34:01Z</time>
      </trkpt>
      <trkpt lat="43.507256" lon="-7.053567">
        <ele>47.093</ele>
        <time>2019-06-19T13:34:02Z</time>
      </trkpt>
      <trkpt lat="43.507323" lon="-7.053412">
        <ele>45.665</ele>
        <time>2019-06-19T13:34:03Z</time>
      </trkpt>
      <trkpt lat="43.507366" lon="-7.053202">
        <ele>43.021</ele>
        <time>2019-06-19T13:34:04Z</time>
      </trkpt>
      <trkpt lat="43.507448" lon="-7.053050">
        <ele>42.608</ele>
        <time>2019-06-19T13:34:05Z</time>
      </trkpt>
      <trkpt lat="43.507546" lon="-7.052912">
        <ele>42.162</ele>
        <time>2019-06-19T13:34:06Z</time>
      </trkpt>
      <trkpt lat="43.507664" lon="-7.052841">
        <ele>42.226</ele>
        <time>2019-06-19T13:34:07Z</time>
      </trkpt>
      <trkpt lat="43.507819" lon="-7.052796">
        <ele>42.357</ele>
        <time>2019-06-19T13:34:08Z</time>
      </trkpt>
      <trkpt lat="43.507959" lon="-7.052775">
        <ele>41.220</ele>
        <time>2019-06-19T13:34:09Z</time>
      </trkpt>
      <trkpt lat="43.508127" lon="-7.052758">
        <ele>39.750</ele>
        <time>2019-06-19T13:34:10Z</time>
      </trkpt>
      <trkpt lat="43.508297" lon="-7.052771">
        <ele>39.026</ele>
        <time>2019-06-19T13:34:11Z</time>
      </trkpt>
      <trkpt lat="43.508438" lon="-7.052769">
        <ele>38.484</ele>
        <time>2019-06-19T13:34:12Z</time>
      </trkpt>
      <trkpt lat="43.508594" lon="-7.052771">
        <ele>37.914</ele>
        <time>2019-06-19T13:34:13Z</time>
      </trkpt>
      <trkpt lat="43.508738" lon="-7.052757">
        <ele>36.943</ele>
        <time>2019-06-19T13:34:14Z</time>
      </trkpt>
      <trkpt lat="43.508853" lon="-7.052772">
        <ele>36.964</ele>
        <time>2019-06-19T13:34:15Z</time>
      </trkpt>
      <trkpt lat="43.508977" lon="-7.052802">
        <ele>35.910</ele>
        <time>2019-06-19T13:34:16Z</time>
      </trkpt>
      <trkpt lat="43.509079" lon="-7.052852">
        <ele>35.308</ele>
        <time>2019-06-19T13:34:17Z</time>
      </trkpt>
      <trkpt lat="43.509200" lon="-7.052929">
        <ele>35.117</ele>
        <time>2019-06-19T13:34:18Z</time>
      </trkpt>
      <trkpt lat="43.509312" lon="-7.053051">
        <ele>36.281</ele>
        <time>2019-06-19T13:34:19Z</time>
      </trkpt>
      <trkpt lat="43.509424" lon="-7.053195">
        <ele>37.112</ele>
        <time>2019-06-19T13:34:20Z</time>
      </trkpt>
      <trkpt lat="43.509544" lon="-7.053345">
        <ele>36.325</ele>
        <time>2019-06-19T13:34:21Z</time>
      </trkpt>
      <trkpt lat="43.509642" lon="-7.053523">
        <ele>36.525</ele>
        <time>2019-06-19T13:34:22Z</time>
      </trkpt>
      <trkpt lat="43.509709" lon="-7.053700">
        <ele>37.531</ele>
        <time>2019-06-19T13:34:23Z</time>
      </trkpt>
      <trkpt lat="43.509735" lon="-7.053903">
        <ele>41.049</ele>
        <time>2019-06-19T13:34:24Z</time>
      </trkpt>
      <trkpt lat="43.509679" lon="-7.054056">
        <ele>45.739</ele>
        <time>2019-06-19T13:34:25Z</time>
      </trkpt>
      <trkpt lat="43.509675" lon="-7.054210">
        <ele>48.311</ele>
        <time>2019-06-19T13:34:26Z</time>
      </trkpt>
      <trkpt lat="43.509693" lon="-7.054347">
        <ele>49.521</ele>
        <time>2019-06-19T13:34:27Z</time>
      </trkpt>
      <trkpt lat="43.509744" lon="-7.054457">
        <ele>49.703</ele>
        <time>2019-06-19T13:34:28Z</time>
      </trkpt>
      <trkpt lat="43.509849" lon="-7.054522">
        <ele>48.408</ele>
        <time>2019-06-19T13:34:29Z</time>
      </trkpt>
      <trkpt lat="43.509921" lon="-7.054558">
        <ele>47.374</ele>
        <time>2019-06-19T13:34:30Z</time>
      </trkpt>
      <trkpt lat="43.510055" lon="-7.054545">
        <ele>45.458</ele>
        <time>2019-06-19T13:34:31Z</time>
      </trkpt>
      <trkpt lat="43.510174" lon="-7.054549">
        <ele>45.559</ele>
        <time>2019-06-19T13:34:32Z</time>
      </trkpt>
      <trkpt lat="43.510253" lon="-7.054506">
        <ele>44.982</ele>
        <time>2019-06-19T13:34:33Z</time>
      </trkpt>
      <trkpt lat="43.510331" lon="-7.054364">
        <ele>43.582</ele>
        <time>2019-06-19T13:34:34Z</time>
      </trkpt>
      <trkpt lat="43.510455" lon="-7.054154">
        <ele>42.368</ele>
        <time>2019-06-19T13:34:35Z</time>
      </trkpt>
      <trkpt lat="43.510517" lon="-7.053946">
        <ele>38.786</ele>
        <time>2019-06-19T13:34:36Z</time>
      </trkpt>
      <trkpt lat="43.510610" lon="-7.053735">
        <ele>35.266</ele>
        <time>2019-06-19T13:34:37Z</time>
      </trkpt>
      <trkpt lat="43.510699" lon="-7.053527">
        <ele>32.956</ele>
        <time>2019-06-19T13:34:38Z</time>
      </trkpt>
      <trkpt lat="43.510804" lon="-7.053357">
        <ele>32.759</ele>
        <time>2019-06-19T13:34:39Z</time>
      </trkpt>
      <trkpt lat="43.510917" lon="-7.053184">
        <ele>33.514</ele>
        <time>2019-06-19T13:34:40Z</time>
      </trkpt>
      <trkpt lat="43.511026" lon="-7.052990">
        <ele>34.008</ele>
        <time>2019-06-19T13:34:41Z</time>
      </trkpt>
      <trkpt lat="43.511174" lon="-7.052831">
        <ele>35.068</ele>
        <time>2019-06-19T13:34:42Z</time>
      </trkpt>
      <trkpt lat="43.511311" lon="-7.052679">
        <ele>34.532</ele>
        <time>2019-06-19T13:34:43Z</time>
      </trkpt>
      <trkpt lat="43.511442" lon="-7.052533">
        <ele>33.823</ele>
        <time>2019-06-19T13:34:44Z</time>
      </trkpt>
      <trkpt lat="43.511590" lon="-7.052404">
        <ele>34.076</ele>
        <time>2019-06-19T13:34:45Z</time>
      </trkpt>
      <trkpt lat="43.511756" lon="-7.052307">
        <ele>34.636</ele>
        <time>2019-06-19T13:34:46Z</time>
      </trkpt>
      <trkpt lat="43.511924" lon="-7.052207">
        <ele>35.442</ele>
        <time>2019-06-19T13:34:47Z</time>
      </trkpt>
      <trkpt lat="43.512104" lon="-7.052102">
        <ele>34.510</ele>
        <time>2019-06-19T13:34:48Z</time>
      </trkpt>
      <trkpt lat="43.512266" lon="-7.052046">
        <ele>33.770</ele>
        <time>2019-06-19T13:34:49Z</time>
      </trkpt>
      <trkpt lat="43.512442" lon="-7.051994">
        <ele>32.572</ele>
        <time>2019-06-19T13:34:50Z</time>
      </trkpt>
      <trkpt lat="43.512617" lon="-7.051941">
        <ele>33.013</ele>
        <time>2019-06-19T13:34:51Z</time>
      </trkpt>
      <trkpt lat="43.512789" lon="-7.051891">
        <ele>34.814</ele>
        <time>2019-06-19T13:34:52Z</time>
      </trkpt>
      <trkpt lat="43.512941" lon="-7.051862">
        <ele>35.508</ele>
        <time>2019-06-19T13:34:53Z</time>
      </trkpt>
      <trkpt lat="43.513097" lon="-7.051863">
        <ele>36.310</ele>
        <time>2019-06-19T13:34:54Z</time>
      </trkpt>
      <trkpt lat="43.513237" lon="-7.051892">
        <ele>36.174</ele>
        <time>2019-06-19T13:34:55Z</time>
      </trkpt>
      <trkpt lat="43.513384" lon="-7.051943">
        <ele>36.465</ele>
        <time>2019-06-19T13:34:56Z</time>
      </trkpt>
      <trkpt lat="43.513520" lon="-7.052000">
        <ele>36.518</ele>
        <time>2019-06-19T13:34:57Z</time>
      </trkpt>
      <trkpt lat="43.513636" lon="-7.052066">
        <ele>37.198</ele>
        <time>2019-06-19T13:34:58Z</time>
      </trkpt>
      <trkpt lat="43.513750" lon="-7.052146">
        <ele>38.014</ele>
        <time>2019-06-19T13:34:59Z</time>
      </trkpt>
      <trkpt lat="43.513857" lon="-7.052234">
        <ele>39.512</ele>
        <time>2019-06-19T13:35:00Z</time>
      </trkpt>
      <trkpt lat="43.513959" lon="-7.052327">
        <ele>38.692</ele>
        <time>2019-06-19T13:35:01Z</time>
      </trkpt>
      <trkpt lat="43.514054" lon="-7.052497">
        <ele>38.419</ele>
        <time>2019-06-19T13:35:02Z</time>
      </trkpt>
      <trkpt lat="43.514161" lon="-7.052645">
        <ele>37.709</ele>
        <time>2019-06-19T13:35:03Z</time>
      </trkpt>
      <trkpt lat="43.514248" lon="-7.052779">
        <ele>37.819</ele>
        <time>2019-06-19T13:35:04Z</time>
      </trkpt>
      <trkpt lat="43.514358" lon="-7.052897">
        <ele>38.608</ele>
        <time>2019-06-19T13:35:05Z</time>
      </trkpt>
      <trkpt lat="43.514470" lon="-7.052999">
        <ele>39.344</ele>
        <time>2019-06-19T13:35:06Z</time>
      </trkpt>
      <trkpt lat="43.514603" lon="-7.053087">
        <ele>38.838</ele>
        <time>2019-06-19T13:35:07Z</time>
      </trkpt>
      <trkpt lat="43.514746" lon="-7.053157">
        <ele>38.529</ele>
        <time>2019-06-19T13:35:08Z</time>
      </trkpt>
      <trkpt lat="43.514883" lon="-7.053234">
        <ele>39.922</ele>
        <time>2019-06-19T13:35:09Z</time>
      </trkpt>
      <trkpt lat="43.515019" lon="-7.053223">
        <ele>39.222</ele>
        <time>2019-06-19T13:35:10Z</time>
      </trkpt>
      <trkpt lat="43.515163" lon="-7.053188">
        <ele>38.358</ele>
        <time>2019-06-19T13:35:11Z</time>
      </trkpt>
      <trkpt lat="43.515280" lon="-7.053150">
        <ele>37.436</ele>
        <time>2019-06-19T13:35:12Z</time>
      </trkpt>
      <trkpt lat="43.515439" lon="-7.053128">
        <ele>36.446</ele>
        <time>2019-06-19T13:35:13Z</time>
      </trkpt>
      <trkpt lat="43.515602" lon="-7.053077">
        <ele>35.852</ele>
        <time>2019-06-19T13:35:14Z</time>
      </trkpt>
      <trkpt lat="43.515773" lon="-7.052900">
        <ele>35.553</ele>
        <time>2019-06-19T13:35:15Z</time>
      </trkpt>
      <trkpt lat="43.515862" lon="-7.052705">
        <ele>35.108</ele>
        <time>2019-06-19T13:35:16Z</time>
      </trkpt>
      <trkpt lat="43.515945" lon="-7.052483">
        <ele>34.908</ele>
        <time>2019-06-19T13:35:17Z</time>
      </trkpt>
      <trkpt lat="43.516053" lon="-7.052298">
        <ele>35.558</ele>
        <time>2019-06-19T13:35:18Z</time>
      </trkpt>
      <trkpt lat="43.516180" lon="-7.052121">
        <ele>36.312</ele>
        <time>2019-06-19T13:35:19Z</time>
      </trkpt>
      <trkpt lat="43.516308" lon="-7.051972">
        <ele>36.593</ele>
        <time>2019-06-19T13:35:20Z</time>
      </trkpt>
      <trkpt lat="43.516438" lon="-7.051834">
        <ele>35.436</ele>
        <time>2019-06-19T13:35:21Z</time>
      </trkpt>
      <trkpt lat="43.516578" lon="-7.051686">
        <ele>33.166</ele>
        <time>2019-06-19T13:35:22Z</time>
      </trkpt>
      <trkpt lat="43.516725" lon="-7.051545">
        <ele>30.452</ele>
        <time>2019-06-19T13:35:23Z</time>
      </trkpt>
      <trkpt lat="43.516870" lon="-7.051410">
        <ele>29.210</ele>
        <time>2019-06-19T13:35:24Z</time>
      </trkpt>
      <trkpt lat="43.517013" lon="-7.051280">
        <ele>28.910</ele>
        <time>2019-06-19T13:35:25Z</time>
      </trkpt>
      <trkpt lat="43.517165" lon="-7.051137">
        <ele>30.586</ele>
        <time>2019-06-19T13:35:26Z</time>
      </trkpt>
      <trkpt lat="43.517310" lon="-7.051001">
        <ele>29.460</ele>
        <time>2019-06-19T13:35:27Z</time>
      </trkpt>
      <trkpt lat="43.517460" lon="-7.050879">
        <ele>27.026</ele>
        <time>2019-06-19T13:35:28Z</time>
      </trkpt>
      <trkpt lat="43.517599" lon="-7.050740">
        <ele>22.608</ele>
        <time>2019-06-19T13:35:29Z</time>
      </trkpt>
      <trkpt lat="43.517749" lon="-7.050598">
        <ele>17.551</ele>
        <time>2019-06-19T13:35:30Z</time>
      </trkpt>
      <trkpt lat="43.517873" lon="-7.050478">
        <ele>16.025</ele>
        <time>2019-06-19T13:35:31Z</time>
      </trkpt>
      <trkpt lat="43.518005" lon="-7.050384">
        <ele>16.236</ele>
        <time>2019-06-19T13:35:32Z</time>
      </trkpt>
      <trkpt lat="43.518105" lon="-7.050303">
        <ele>16.139</ele>
        <time>2019-06-19T13:35:33Z</time>
      </trkpt>
      <trkpt lat="43.518198" lon="-7.050216">
        <ele>16.669</ele>
        <time>2019-06-19T13:35:34Z</time>
      </trkpt>
      <trkpt lat="43.518301" lon="-7.050135">
        <ele>17.565</ele>
        <time>2019-06-19T13:35:35Z</time>
      </trkpt>
      <trkpt lat="43.518409" lon="-7.050152">
        <ele>18.193</ele>
        <time>2019-06-19T13:35:36Z</time>
      </trkpt>
      <trkpt lat="43.518525" lon="-7.050162">
        <ele>18.253</ele>
        <time>2019-06-19T13:35:37Z</time>
      </trkpt>
      <trkpt lat="43.518606" lon="-7.050189">
        <ele>18.458</ele>
        <time>2019-06-19T13:35:38Z</time>
      </trkpt>
      <trkpt lat="43.518559" lon="-7.050319">
        <ele>19.252</ele>
        <time>2019-06-19T13:35:39Z</time>
      </trkpt>
      <trkpt lat="43.518574" lon="-7.050517">
        <ele>20.117</ele>
        <time>2019-06-19T13:35:40Z</time>
      </trkpt>
      <trkpt lat="43.518556" lon="-7.050732">
        <ele>19.908</ele>
        <time>2019-06-19T13:35:41Z</time>
      </trkpt>
      <trkpt lat="43.518514" lon="-7.050941">
        <ele>19.218</ele>
        <time>2019-06-19T13:35:42Z</time>
      </trkpt>
      <trkpt lat="43.518468" lon="-7.051086">
        <ele>18.842</ele>
        <time>2019-06-19T13:35:43Z</time>
      </trkpt>
      <trkpt lat="43.518437" lon="-7.051268">
        <ele>17.813</ele>
        <time>2019-06-19T13:35:44Z</time>
      </trkpt>
      <trkpt lat="43.518335" lon="-7.051509">
        <ele>18.146</ele>
        <time>2019-06-19T13:35:45Z</time>
      </trkpt>
      <trkpt lat="43.518278" lon="-7.051754">
        <ele>17.346</ele>
        <time>2019-06-19T13:35:46Z</time>
      </trkpt>
      <trkpt lat="43.518220" lon="-7.051971">
        <ele>16.352</ele>
        <time>2019-06-19T13:35:47Z</time>
      </trkpt>
      <trkpt lat="43.518176" lon="-7.052197">
        <ele>15.680</ele>
        <time>2019-06-19T13:35:48Z</time>
      </trkpt>
      <trkpt lat="43.518130" lon="-7.052406">
        <ele>15.620</ele>
        <time>2019-06-19T13:35:49Z</time>
      </trkpt>
      <trkpt lat="43.518088" lon="-7.052624">
        <ele>15.788</ele>
        <time>2019-06-19T13:35:50Z</time>
      </trkpt>
      <trkpt lat="43.518031" lon="-7.052861">
        <ele>17.624</ele>
        <time>2019-06-19T13:35:51Z</time>
      </trkpt>
      <trkpt lat="43.517999" lon="-7.053077">
        <ele>19.626</ele>
        <time>2019-06-19T13:35:52Z</time>
      </trkpt>
      <trkpt lat="43.517985" lon="-7.053275">
        <ele>21.508</ele>
        <time>2019-06-19T13:35:53Z</time>
      </trkpt>
      <trkpt lat="43.517976" lon="-7.053483">
        <ele>23.721</ele>
        <time>2019-06-19T13:35:54Z</time>
      </trkpt>
      <trkpt lat="43.517971" lon="-7.053684">
        <ele>25.125</ele>
        <time>2019-06-19T13:35:55Z</time>
      </trkpt>
      <trkpt lat="43.517968" lon="-7.053892">
        <ele>25.186</ele>
        <time>2019-06-19T13:35:56Z</time>
      </trkpt>
      <trkpt lat="43.517962" lon="-7.054101">
        <ele>27.219</ele>
        <time>2019-06-19T13:35:57Z</time>
      </trkpt>
      <trkpt lat="43.517987" lon="-7.054282">
        <ele>26.969</ele>
        <time>2019-06-19T13:35:58Z</time>
      </trkpt>
      <trkpt lat="43.518020" lon="-7.054456">
        <ele>26.445</ele>
        <time>2019-06-19T13:35:59Z</time>
      </trkpt>
      <trkpt lat="43.518037" lon="-7.054651">
        <ele>23.693</ele>
        <time>2019-06-19T13:36:00Z</time>
      </trkpt>
      <trkpt lat="43.518231" lon="-7.054600">
        <ele>15.973</ele>
        <time>2019-06-19T13:36:01Z</time>
      </trkpt>
      <trkpt lat="43.518343" lon="-7.054643">
        <ele>11.641</ele>
        <time>2019-06-19T13:36:02Z</time>
      </trkpt>
      <trkpt lat="43.518403" lon="-7.054679">
        <ele>11.381</ele>
        <time>2019-06-19T13:36:03Z</time>
      </trkpt>
      <trkpt lat="43.518511" lon="-7.054609">
        <ele>10.109</ele>
        <time>2019-06-19T13:36:04Z</time>
      </trkpt>
      <trkpt lat="43.518652" lon="-7.054540">
        <ele>8.608</ele>
        <time>2019-06-19T13:36:05Z</time>
      </trkpt>
      <trkpt lat="43.518662" lon="-7.054432">
        <ele>8.067</ele>
        <time>2019-06-19T13:36:06Z</time>
      </trkpt>
      <trkpt lat="43.518674" lon="-7.054280">
        <ele>7.771</ele>
        <time>2019-06-19T13:36:07Z</time>
      </trkpt>
      <trkpt lat="43.518672" lon="-7.054131">
        <ele>7.632</ele>
        <time>2019-06-19T13:36:08Z</time>
      </trkpt>
      <trkpt lat="43.518670" lon="-7.053966">
        <ele>8.315</ele>
        <time>2019-06-19T13:36:09Z</time>
      </trkpt>
      <trkpt lat="43.518671" lon="-7.053724">
        <ele>8.245</ele>
        <time>2019-06-19T13:36:10Z</time>
      </trkpt>
      <trkpt lat="43.518686" lon="-7.053538">
        <ele>7.981</ele>
        <time>2019-06-19T13:36:11Z</time>
      </trkpt>
      <trkpt lat="43.518717" lon="-7.053351">
        <ele>7.899</ele>
        <time>2019-06-19T13:36:12Z</time>
      </trkpt>
      <trkpt lat="43.518755" lon="-7.053160">
        <ele>6.589</ele>
        <time>2019-06-19T13:36:13Z</time>
      </trkpt>
      <trkpt lat="43.518800" lon="-7.052968">
        <ele>4.964</ele>
        <time>2019-06-19T13:36:14Z</time>
      </trkpt>
      <trkpt lat="43.518873" lon="-7.052780">
        <ele>3.106</ele>
        <time>2019-06-19T13:36:15Z</time>
      </trkpt>
      <trkpt lat="43.519012" lon="-7.052608">
        <ele>2.816</ele>
        <time>2019-06-19T13:36:16Z</time>
      </trkpt>
      <trkpt lat="43.519108" lon="-7.052449">
        <ele>2.508</ele>
        <time>2019-06-19T13:36:17Z</time>
      </trkpt>
      <trkpt lat="43.519225" lon="-7.052302">
        <ele>2.759</ele>
        <time>2019-06-19T13:36:18Z</time>
      </trkpt>
      <trkpt lat="43.519344" lon="-7.052161">
        <ele>2.593</ele>
        <time>2019-06-19T13:36:19Z</time>
      </trkpt>
      <trkpt lat="43.519453" lon="-7.052034">
        <ele>2.424</ele>
        <time>2019-06-19T13:36:20Z</time>
      </trkpt>
      <trkpt lat="43.519582" lon="-7.051915">
        <ele>1.947</ele>
        <time>2019-06-19T13:36:21Z</time>
      </trkpt>
      <trkpt lat="43.519735" lon="-7.051820">
        <ele>1.387</ele>
        <time>2019-06-19T13:36:22Z</time>
      </trkpt>
      <trkpt lat="43.519908" lon="-7.051752">
        <ele>2.613</ele>
        <time>2019-06-19T13:36:23Z</time>
      </trkpt>
      <trkpt lat="43.520076" lon="-7.051691">
        <ele>3.871</ele>
        <time>2019-06-19T13:36:24Z</time>
      </trkpt>
      <trkpt lat="43.520245" lon="-7.051624">
        <ele>5.811</ele>
        <time>2019-06-19T13:36:25Z</time>
      </trkpt>
      <trkpt lat="43.520367" lon="-7.051579">
        <ele>7.785</ele>
        <time>2019-06-19T13:36:26Z</time>
      </trkpt>
      <trkpt lat="43.520499" lon="-7.051525">
        <ele>9.389</ele>
        <time>2019-06-19T13:36:27Z</time>
      </trkpt>
      <trkpt lat="43.520628" lon="-7.051435">
        <ele>10.417</ele>
        <time>2019-06-19T13:36:28Z</time>
      </trkpt>
      <trkpt lat="43.520727" lon="-7.051316">
        <ele>11.408</ele>
        <time>2019-06-19T13:36:29Z</time>
      </trkpt>
      <trkpt lat="43.520814" lon="-7.051212">
        <ele>12.331</ele>
        <time>2019-06-19T13:36:30Z</time>
      </trkpt>
      <trkpt lat="43.520883" lon="-7.051131">
        <ele>13.545</ele>
        <time>2019-06-19T13:36:31Z</time>
      </trkpt>
      <trkpt lat="43.520923" lon="-7.050962">
        <ele>14.266</ele>
        <time>2019-06-19T13:36:32Z</time>
      </trkpt>
      <trkpt lat="43.520993" lon="-7.050774">
        <ele>16.449</ele>
        <time>2019-06-19T13:36:33Z</time>
      </trkpt>
      <trkpt lat="43.520942" lon="-7.050568">
        <ele>14.939</ele>
        <time>2019-06-19T13:36:34Z</time>
      </trkpt>
      <trkpt lat="43.520860" lon="-7.050387">
        <ele>13.215</ele>
        <time>2019-06-19T13:36:35Z</time>
      </trkpt>
      <trkpt lat="43.520812" lon="-7.050188">
        <ele>13.283</ele>
        <time>2019-06-19T13:36:36Z</time>
      </trkpt>
      <trkpt lat="43.520771" lon="-7.049988">
        <ele>13.123</ele>
        <time>2019-06-19T13:36:37Z</time>
      </trkpt>
      <trkpt lat="43.520743" lon="-7.049791">
        <ele>10.694</ele>
        <time>2019-06-19T13:36:38Z</time>
      </trkpt>
      <trkpt lat="43.520774" lon="-7.049569">
        <ele>9.557</ele>
        <time>2019-06-19T13:36:39Z</time>
      </trkpt>
      <trkpt lat="43.520790" lon="-7.049343">
        <ele>8.722</ele>
        <time>2019-06-19T13:36:40Z</time>
      </trkpt>
      <trkpt lat="43.520824" lon="-7.049130">
        <ele>8.708</ele>
        <time>2019-06-19T13:36:41Z</time>
      </trkpt>
      <trkpt lat="43.520869" lon="-7.048931">
        <ele>9.212</ele>
        <time>2019-06-19T13:36:42Z</time>
      </trkpt>
      <trkpt lat="43.520911" lon="-7.048739">
        <ele>9.416</ele>
        <time>2019-06-19T13:36:43Z</time>
      </trkpt>
      <trkpt lat="43.520971" lon="-7.048548">
        <ele>8.787</ele>
        <time>2019-06-19T13:36:44Z</time>
      </trkpt>
      <trkpt lat="43.521058" lon="-7.048416">
        <ele>8.660</ele>
        <time>2019-06-19T13:36:45Z</time>
      </trkpt>
      <trkpt lat="43.521147" lon="-7.048291">
        <ele>8.180</ele>
        <time>2019-06-19T13:36:46Z</time>
      </trkpt>
      <trkpt lat="43.521332" lon="-7.048113">
        <ele>8.056</ele>
        <time>2019-06-19T13:36:47Z</time>
      </trkpt>
      <trkpt lat="43.521481" lon="-7.047980">
        <ele>11.254</ele>
        <time>2019-06-19T13:36:48Z</time>
      </trkpt>
      <trkpt lat="43.521633" lon="-7.047836">
        <ele>10.474</ele>
        <time>2019-06-19T13:36:49Z</time>
      </trkpt>
      <trkpt lat="43.521820" lon="-7.047705">
        <ele>11.935</ele>
        <time>2019-06-19T13:36:50Z</time>
      </trkpt>
      <trkpt lat="43.521983" lon="-7.047549">
        <ele>12.186</ele>
        <time>2019-06-19T13:36:51Z</time>
      </trkpt>
      <trkpt lat="43.522168" lon="-7.047373">
        <ele>13.814</ele>
        <time>2019-06-19T13:36:52Z</time>
      </trkpt>
      <trkpt lat="43.522346" lon="-7.047206">
        <ele>15.808</ele>
        <time>2019-06-19T13:36:53Z</time>
      </trkpt>
      <trkpt lat="43.522520" lon="-7.047046">
        <ele>15.636</ele>
        <time>2019-06-19T13:36:54Z</time>
      </trkpt>
      <trkpt lat="43.522691" lon="-7.046891">
        <ele>14.480</ele>
        <time>2019-06-19T13:36:55Z</time>
      </trkpt>
      <trkpt lat="43.522854" lon="-7.046752">
        <ele>15.671</ele>
        <time>2019-06-19T13:36:56Z</time>
      </trkpt>
      <trkpt lat="43.523027" lon="-7.046627">
        <ele>19.994</ele>
        <time>2019-06-19T13:36:57Z</time>
      </trkpt>
      <trkpt lat="43.523211" lon="-7.046524">
        <ele>22.164</ele>
        <time>2019-06-19T13:36:58Z</time>
      </trkpt>
      <trkpt lat="43.523408" lon="-7.046414">
        <ele>23.190</ele>
        <time>2019-06-19T13:36:59Z</time>
      </trkpt>
      <trkpt lat="43.523610" lon="-7.046339">
        <ele>22.768</ele>
        <time>2019-06-19T13:37:00Z</time>
      </trkpt>
      <trkpt lat="43.523817" lon="-7.046268">
        <ele>20.958</ele>
        <time>2019-06-19T13:37:01Z</time>
      </trkpt>
      <trkpt lat="43.524026" lon="-7.046222">
        <ele>21.518</ele>
        <time>2019-06-19T13:37:02Z</time>
      </trkpt>
      <trkpt lat="43.524227" lon="-7.046155">
        <ele>22.798</ele>
        <time>2019-06-19T13:37:03Z</time>
      </trkpt>
      <trkpt lat="43.524409" lon="-7.046092">
        <ele>23.917</ele>
        <time>2019-06-19T13:37:04Z</time>
      </trkpt>
      <trkpt lat="43.524596" lon="-7.046035">
        <ele>24.408</ele>
        <time>2019-06-19T13:37:05Z</time>
      </trkpt>
      <trkpt lat="43.524780" lon="-7.045983">
        <ele>23.984</ele>
        <time>2019-06-19T13:37:06Z</time>
      </trkpt>
      <trkpt lat="43.524966" lon="-7.045950">
        <ele>22.548</ele>
        <time>2019-06-19T13:37:07Z</time>
      </trkpt>
      <trkpt lat="43.525159" lon="-7.045924">
        <ele>22.029</ele>
        <time>2019-06-19T13:37:08Z</time>
      </trkpt>
      <trkpt lat="43.525348" lon="-7.045922">
        <ele>22.392</ele>
        <time>2019-06-19T13:37:09Z</time>
      </trkpt>
      <trkpt lat="43.525542" lon="-7.045914">
        <ele>21.232</ele>
        <time>2019-06-19T13:37:10Z</time>
      </trkpt>
      <trkpt lat="43.525724" lon="-7.045923">
        <ele>23.828</ele>
        <time>2019-06-19T13:37:11Z</time>
      </trkpt>
      <trkpt lat="43.525909" lon="-7.045930">
        <ele>25.936</ele>
        <time>2019-06-19T13:37:12Z</time>
      </trkpt>
      <trkpt lat="43.526081" lon="-7.045933">
        <ele>27.166</ele>
        <time>2019-06-19T13:37:13Z</time>
      </trkpt>
      <trkpt lat="43.526255" lon="-7.045933">
        <ele>26.219</ele>
        <time>2019-06-19T13:37:14Z</time>
      </trkpt>
      <trkpt lat="43.526437" lon="-7.045901">
        <ele>24.309</ele>
        <time>2019-06-19T13:37:15Z</time>
      </trkpt>
      <trkpt lat="43.526517" lon="-7.045804">
        <ele>21.919</ele>
        <time>2019-06-19T13:37:16Z</time>
      </trkpt>
      <trkpt lat="43.526629" lon="-7.045714">
        <ele>20.308</ele>
        <time>2019-06-19T13:37:17Z</time>
      </trkpt>
      <trkpt lat="43.526738" lon="-7.045625">
        <ele>19.244</ele>
        <time>2019-06-19T13:37:18Z</time>
      </trkpt>
      <trkpt lat="43.526831" lon="-7.045553">
        <ele>18.828</ele>
        <time>2019-06-19T13:37:19Z</time>
      </trkpt>
      <trkpt lat="43.526936" lon="-7.045475">
        <ele>19.389</ele>
        <time>2019-06-19T13:37:20Z</time>
      </trkpt>
      <trkpt lat="43.527066" lon="-7.045479">
        <ele>18.682</ele>
        <time>2019-06-19T13:37:21Z</time>
      </trkpt>
      <trkpt lat="43.527181" lon="-7.045455">
        <ele>17.672</ele>
        <time>2019-06-19T13:37:22Z</time>
      </trkpt>
      <trkpt lat="43.527261" lon="-7.045493">
        <ele>17.368</ele>
        <time>2019-06-19T13:37:23Z</time>
      </trkpt>
      <trkpt lat="43.527269" lon="-7.045654">
        <ele>19.686</ele>
        <time>2019-06-19T13:37:24Z</time>
      </trkpt>
      <trkpt lat="43.527305" lon="-7.045797">
        <ele>21.836</ele>
        <time>2019-06-19T13:37:25Z</time>
      </trkpt>
      <trkpt lat="43.527314" lon="-7.046069">
        <ele>26.649</ele>
        <time>2019-06-19T13:37:26Z</time>
      </trkpt>
      <trkpt lat="43.527337" lon="-7.046283">
        <ele>29.002</ele>
        <time>2019-06-19T13:37:27Z</time>
      </trkpt>
      <trkpt lat="43.527370" lon="-7.046486">
        <ele>29.922</ele>
        <time>2019-06-19T13:37:28Z</time>
      </trkpt>
      <trkpt lat="43.527408" lon="-7.046708">
        <ele>30.108</ele>
        <time>2019-06-19T13:37:29Z</time>
      </trkpt>
      <trkpt lat="43.527438" lon="-7.046936">
        <ele>30.017</ele>
        <time>2019-06-19T13:37:30Z</time>
      </trkpt>
      <trkpt lat="43.527470" lon="-7.047152">
        <ele>29.841</ele>
        <time>2019-06-19T13:37:31Z</time>
      </trkpt>
      <trkpt lat="43.527505" lon="-7.047376">
        <ele>30.512</ele>
        <time>2019-06-19T13:37:32Z</time>
      </trkpt>
      <trkpt lat="43.527538" lon="-7.047600">
        <ele>31.875</ele>
        <time>2019-06-19T13:37:33Z</time>
      </trkpt>
      <trkpt lat="43.527576" lon="-7.047809">
        <ele>33.175</ele>
        <time>2019-06-19T13:37:34Z</time>
      </trkpt>
      <trkpt lat="43.527599" lon="-7.048013">
        <ele>34.381</ele>
        <time>2019-06-19T13:37:35Z</time>
      </trkpt>
      <trkpt lat="43.527662" lon="-7.048158">
        <ele>31.469</ele>
        <time>2019-06-19T13:37:36Z</time>
      </trkpt>
      <trkpt lat="43.527718" lon="-7.048307">
        <ele>27.589</ele>
        <time>2019-06-19T13:37:37Z</time>
      </trkpt>
      <trkpt lat="43.527775" lon="-7.048441">
        <ele>23.085</ele>
        <time>2019-06-19T13:37:38Z</time>
      </trkpt>
      <trkpt lat="43.527838" lon="-7.048569">
        <ele>18.489</ele>
        <time>2019-06-19T13:37:39Z</time>
      </trkpt>
      <trkpt lat="43.527914" lon="-7.048692">
        <ele>13.817</ele>
        <time>2019-06-19T13:37:40Z</time>
      </trkpt>
      <trkpt lat="43.527982" lon="-7.048806">
        <ele>10.008</ele>
        <time>2019-06-19T13:37:41Z</time>
      </trkpt>
      <trkpt lat="43.528073" lon="-7.048933">
        <ele>5.961</ele>
        <time>2019-06-19T13:37:42Z</time>
      </trkpt>
      <trkpt lat="43.528196" lon="-7.048977">
        <ele>5.595</ele>
        <time>2019-06-19T13:37:43Z</time>
      </trkpt>
      <trkpt lat="43.528306" lon="-7.049039">
        <ele>5.166</ele>
        <time>2019-06-19T13:37:44Z</time>
      </trkpt>
      <trkpt lat="43.528413" lon="-7.049064">
        <ele>5.619</ele>
        <time>2019-06-19T13:37:45Z</time>
      </trkpt>
      <trkpt lat="43.528515" lon="-7.049014">
        <ele>6.219</ele>
        <time>2019-06-19T13:37:46Z</time>
      </trkpt>
      <trkpt lat="43.528631" lon="-7.048874">
        <ele>6.445</ele>
        <time>2019-06-19T13:37:47Z</time>
      </trkpt>
      <trkpt lat="43.528707" lon="-7.048729">
        <ele>7.193</ele>
        <time>2019-06-19T13:37:48Z</time>
      </trkpt>
      <trkpt lat="43.528800" lon="-7.048592">
        <ele>7.693</ele>
        <time>2019-06-19T13:37:49Z</time>
      </trkpt>
      <trkpt lat="43.528844" lon="-7.048435">
        <ele>7.624</ele>
        <time>2019-06-19T13:37:50Z</time>
      </trkpt>
      <trkpt lat="43.528831" lon="-7.048182">
        <ele>7.004</ele>
        <time>2019-06-19T13:37:51Z</time>
      </trkpt>
      <trkpt lat="43.528845" lon="-7.047980">
        <ele>7.014</ele>
        <time>2019-06-19T13:37:52Z</time>
      </trkpt>
      <trkpt lat="43.528855" lon="-7.047782">
        <ele>6.508</ele>
        <time>2019-06-19T13:37:53Z</time>
      </trkpt>
      <trkpt lat="43.528870" lon="-7.047579">
        <ele>6.125</ele>
        <time>2019-06-19T13:37:54Z</time>
      </trkpt>
      <trkpt lat="43.528904" lon="-7.047393">
        <ele>6.999</ele>
        <time>2019-06-19T13:37:55Z</time>
      </trkpt>
      <trkpt lat="43.528948" lon="-7.047201">
        <ele>8.720</ele>
        <time>2019-06-19T13:37:56Z</time>
      </trkpt>
      <trkpt lat="43.529004" lon="-7.047031">
        <ele>9.923</ele>
        <time>2019-06-19T13:37:57Z</time>
      </trkpt>
      <trkpt lat="43.529080" lon="-7.046877">
        <ele>10.123</ele>
        <time>2019-06-19T13:37:58Z</time>
      </trkpt>
      <trkpt lat="43.529173" lon="-7.046730">
        <ele>9.989</ele>
        <time>2019-06-19T13:37:59Z</time>
      </trkpt>
      <trkpt lat="43.529277" lon="-7.046589">
        <ele>11.267</ele>
        <time>2019-06-19T13:38:00Z</time>
      </trkpt>
      <trkpt lat="43.529379" lon="-7.046451">
        <ele>12.247</ele>
        <time>2019-06-19T13:38:01Z</time>
      </trkpt>
      <trkpt lat="43.529484" lon="-7.046316">
        <ele>13.277</ele>
        <time>2019-06-19T13:38:02Z</time>
      </trkpt>
      <trkpt lat="43.529580" lon="-7.046168">
        <ele>14.461</ele>
        <time>2019-06-19T13:38:03Z</time>
      </trkpt>
      <trkpt lat="43.529668" lon="-7.046016">
        <ele>16.227</ele>
        <time>2019-06-19T13:38:04Z</time>
      </trkpt>
      <trkpt lat="43.529723" lon="-7.045815">
        <ele>17.108</ele>
        <time>2019-06-19T13:38:05Z</time>
      </trkpt>
      <trkpt lat="43.529776" lon="-7.045615">
        <ele>18.680</ele>
        <time>2019-06-19T13:38:06Z</time>
      </trkpt>
      <trkpt lat="43.529817" lon="-7.045415">
        <ele>20.054</ele>
        <time>2019-06-19T13:38:07Z</time>
      </trkpt>
      <trkpt lat="43.529854" lon="-7.045215">
        <ele>20.875</ele>
        <time>2019-06-19T13:38:08Z</time>
      </trkpt>
      <trkpt lat="43.529894" lon="-7.045019">
        <ele>20.798</ele>
        <time>2019-06-19T13:38:09Z</time>
      </trkpt>
      <trkpt lat="43.529936" lon="-7.044821">
        <ele>19.318</ele>
        <time>2019-06-19T13:38:10Z</time>
      </trkpt>
      <trkpt lat="43.529973" lon="-7.044631">
        <ele>17.814</ele>
        <time>2019-06-19T13:38:11Z</time>
      </trkpt>
      <trkpt lat="43.530006" lon="-7.044437">
        <ele>16.062</ele>
        <time>2019-06-19T13:38:12Z</time>
      </trkpt>
      <trkpt lat="43.530049" lon="-7.044245">
        <ele>14.442</ele>
        <time>2019-06-19T13:38:13Z</time>
      </trkpt>
      <trkpt lat="43.530153" lon="-7.044125">
        <ele>16.181</ele>
        <time>2019-06-19T13:38:14Z</time>
      </trkpt>
      <trkpt lat="43.530249" lon="-7.043963">
        <ele>17.761</ele>
        <time>2019-06-19T13:38:15Z</time>
      </trkpt>
      <trkpt lat="43.530355" lon="-7.043806">
        <ele>19.417</ele>
        <time>2019-06-19T13:38:16Z</time>
      </trkpt>
      <trkpt lat="43.530476" lon="-7.043653">
        <ele>21.408</ele>
        <time>2019-06-19T13:38:17Z</time>
      </trkpt>
      <trkpt lat="43.530592" lon="-7.043500">
        <ele>23.111</ele>
        <time>2019-06-19T13:38:18Z</time>
      </trkpt>
      <trkpt lat="43.530702" lon="-7.043340">
        <ele>24.275</ele>
        <time>2019-06-19T13:38:19Z</time>
      </trkpt>
      <trkpt lat="43.530810" lon="-7.043183">
        <ele>25.326</ele>
        <time>2019-06-19T13:38:20Z</time>
      </trkpt>
      <trkpt lat="43.530919" lon="-7.043031">
        <ele>25.899</ele>
        <time>2019-06-19T13:38:21Z</time>
      </trkpt>
      <trkpt lat="43.531024" lon="-7.042884">
        <ele>25.519</ele>
        <time>2019-06-19T13:38:22Z</time>
      </trkpt>
      <trkpt lat="43.531126" lon="-7.042738">
        <ele>25.925</ele>
        <time>2019-06-19T13:38:23Z</time>
      </trkpt>
      <trkpt lat="43.531230" lon="-7.042590">
        <ele>26.763</ele>
        <time>2019-06-19T13:38:24Z</time>
      </trkpt>
      <trkpt lat="43.531334" lon="-7.042456">
        <ele>28.433</ele>
        <time>2019-06-19T13:38:25Z</time>
      </trkpt>
      <trkpt lat="43.531436" lon="-7.042319">
        <ele>31.085</ele>
        <time>2019-06-19T13:38:26Z</time>
      </trkpt>
      <trkpt lat="43.531539" lon="-7.042178">
        <ele>34.189</ele>
        <time>2019-06-19T13:38:27Z</time>
      </trkpt>
      <trkpt lat="43.531643" lon="-7.042029">
        <ele>37.317</ele>
        <time>2019-06-19T13:38:28Z</time>
      </trkpt>
      <trkpt lat="43.531751" lon="-7.041864">
        <ele>38.708</ele>
        <time>2019-06-19T13:38:29Z</time>
      </trkpt>
      <trkpt lat="43.531864" lon="-7.041714">
        <ele>40.691</ele>
        <time>2019-06-19T13:38:30Z</time>
      </trkpt>
      <trkpt lat="43.531980" lon="-7.041548">
        <ele>42.115</ele>
        <time>2019-06-19T13:38:31Z</time>
      </trkpt>
      <trkpt lat="43.532093" lon="-7.041391">
        <ele>42.216</ele>
        <time>2019-06-19T13:38:32Z</time>
      </trkpt>
      <trkpt lat="43.532203" lon="-7.041244">
        <ele>41.649</ele>
        <time>2019-06-19T13:38:33Z</time>
      </trkpt>
      <trkpt lat="43.532308" lon="-7.041099">
        <ele>40.239</ele>
        <time>2019-06-19T13:38:34Z</time>
      </trkpt>
      <trkpt lat="43.532406" lon="-7.040969">
        <ele>39.395</ele>
        <time>2019-06-19T13:38:35Z</time>
      </trkpt>
      <trkpt lat="43.532497" lon="-7.040860">
        <ele>39.283</ele>
        <time>2019-06-19T13:38:36Z</time>
      </trkpt>
      <trkpt lat="43.532582" lon="-7.040778">
        <ele>38.633</ele>
        <time>2019-06-19T13:38:37Z</time>
      </trkpt>
      <trkpt lat="43.532654" lon="-7.040710">
        <ele>38.329</ele>
        <time>2019-06-19T13:38:38Z</time>
      </trkpt>
      <trkpt lat="43.532709" lon="-7.040668">
        <ele>38.300</ele>
        <time>2019-06-19T13:38:39Z</time>
      </trkpt>
      <trkpt lat="43.532795" lon="-7.040638">
        <ele>38.820</ele>
        <time>2019-06-19T13:38:41Z</time>
      </trkpt>
      <trkpt lat="43.532839" lon="-7.040594">
        <ele>38.908</ele>
        <time>2019-06-19T13:38:42Z</time>
      </trkpt>
      <trkpt lat="43.532928" lon="-7.040525">
        <ele>39.455</ele>
        <time>2019-06-19T13:38:43Z</time>
      </trkpt>
      <trkpt lat="43.533006" lon="-7.040461">
        <ele>39.729</ele>
        <time>2019-06-19T13:38:44Z</time>
      </trkpt>
      <trkpt lat="43.533105" lon="-7.040392">
        <ele>40.130</ele>
        <time>2019-06-19T13:38:45Z</time>
      </trkpt>
      <trkpt lat="43.533204" lon="-7.040336">
        <ele>40.463</ele>
        <time>2019-06-19T13:38:46Z</time>
      </trkpt>
      <trkpt lat="43.533308" lon="-7.040299">
        <ele>40.913</ele>
        <time>2019-06-19T13:38:47Z</time>
      </trkpt>
      <trkpt lat="43.533390" lon="-7.040269">
        <ele>41.219</ele>
        <time>2019-06-19T13:38:48Z</time>
      </trkpt>
      <trkpt lat="43.533468" lon="-7.040254">
        <ele>41.317</ele>
        <time>2019-06-19T13:38:49Z</time>
      </trkpt>
      <trkpt lat="43.533540" lon="-7.040256">
        <ele>41.567</ele>
        <time>2019-06-19T13:38:50Z</time>
      </trkpt>
      <trkpt lat="43.533605" lon="-7.040323">
        <ele>42.552</ele>
        <time>2019-06-19T13:38:51Z</time>
      </trkpt>
      <trkpt lat="43.533673" lon="-7.040390">
        <ele>43.353</ele>
        <time>2019-06-19T13:38:52Z</time>
      </trkpt>
      <trkpt lat="43.533739" lon="-7.040480">
        <ele>44.508</ele>
        <time>2019-06-19T13:38:53Z</time>
      </trkpt>
      <trkpt lat="43.533803" lon="-7.040558">
        <ele>45.708</ele>
        <time>2019-06-19T13:38:54Z</time>
      </trkpt>
      <trkpt lat="43.533861" lon="-7.040628">
        <ele>46.138</ele>
        <time>2019-06-19T13:38:55Z</time>
      </trkpt>
      <trkpt lat="43.533922" lon="-7.040698">
        <ele>46.322</ele>
        <time>2019-06-19T13:38:56Z</time>
      </trkpt>
      <trkpt lat="43.533962" lon="-7.040776">
        <ele>46.363</ele>
        <time>2019-06-19T13:38:57Z</time>
      </trkpt>
      <trkpt lat="43.534001" lon="-7.040828">
        <ele>46.246</ele>
        <time>2019-06-19T13:38:58Z</time>
      </trkpt>
      <trkpt lat="43.534035" lon="-7.040914">
        <ele>46.096</ele>
        <time>2019-06-19T13:38:59Z</time>
      </trkpt>
      <trkpt lat="43.534071" lon="-7.040972">
        <ele>45.892</ele>
        <time>2019-06-19T13:39:00Z</time>
      </trkpt>
      <trkpt lat="43.534114" lon="-7.041022">
        <ele>45.810</ele>
        <time>2019-06-19T13:39:01Z</time>
      </trkpt>
      <trkpt lat="43.534148" lon="-7.041072">
        <ele>45.930</ele>
        <time>2019-06-19T13:39:02Z</time>
      </trkpt>
      <trkpt lat="43.534189" lon="-7.041153">
        <ele>46.127</ele>
        <time>2019-06-19T13:39:03Z</time>
      </trkpt>
      <trkpt lat="43.534262" lon="-7.041226">
        <ele>46.368</ele>
        <time>2019-06-19T13:39:04Z</time>
      </trkpt>
      <trkpt lat="43.534358" lon="-7.041295">
        <ele>46.714</ele>
        <time>2019-06-19T13:39:05Z</time>
      </trkpt>
      <trkpt lat="43.534420" lon="-7.041378">
        <ele>46.908</ele>
        <time>2019-06-19T13:39:06Z</time>
      </trkpt>
      <trkpt lat="43.534473" lon="-7.041460">
        <ele>46.795</ele>
        <time>2019-06-19T13:39:07Z</time>
      </trkpt>
      <trkpt lat="43.534521" lon="-7.041539">
        <ele>46.549</ele>
        <time>2019-06-19T13:39:08Z</time>
      </trkpt>
      <trkpt lat="43.534584" lon="-7.041619">
        <ele>46.270</ele>
        <time>2019-06-19T13:39:09Z</time>
      </trkpt>
      <trkpt lat="43.534642" lon="-7.041694">
        <ele>45.953</ele>
        <time>2019-06-19T13:39:10Z</time>
      </trkpt>
      <trkpt lat="43.534707" lon="-7.041782">
        <ele>45.623</ele>
        <time>2019-06-19T13:39:11Z</time>
      </trkpt>
      <trkpt lat="43.534769" lon="-7.041932">
        <ele>45.059</ele>
        <time>2019-06-19T13:39:12Z</time>
      </trkpt>
      <trkpt lat="43.534853" lon="-7.042060">
        <ele>45.297</ele>
        <time>2019-06-19T13:39:13Z</time>
      </trkpt>
      <trkpt lat="43.534954" lon="-7.042154">
        <ele>45.637</ele>
        <time>2019-06-19T13:39:14Z</time>
      </trkpt>
      <trkpt lat="43.535030" lon="-7.042270">
        <ele>45.963</ele>
        <time>2019-06-19T13:39:15Z</time>
      </trkpt>
      <trkpt lat="43.535103" lon="-7.042389">
        <ele>45.944</ele>
        <time>2019-06-19T13:39:16Z</time>
      </trkpt>
      <trkpt lat="43.535181" lon="-7.042498">
        <ele>46.018</ele>
        <time>2019-06-19T13:39:17Z</time>
      </trkpt>
      <trkpt lat="43.535267" lon="-7.042590">
        <ele>46.008</ele>
        <time>2019-06-19T13:39:18Z</time>
      </trkpt>
      <trkpt lat="43.535328" lon="-7.042674">
        <ele>45.999</ele>
        <time>2019-06-19T13:39:19Z</time>
      </trkpt>
      <trkpt lat="43.535373" lon="-7.042745">
        <ele>46.093</ele>
        <time>2019-06-19T13:39:20Z</time>
      </trkpt>
      <trkpt lat="43.535423" lon="-7.042797">
        <ele>46.184</ele>
        <time>2019-06-19T13:39:21Z</time>
      </trkpt>
      <trkpt lat="43.535479" lon="-7.042890">
        <ele>46.467</ele>
        <time>2019-06-19T13:39:23Z</time>
      </trkpt>
      <trkpt lat="43.535520" lon="-7.042985">
        <ele>46.747</ele>
        <time>2019-06-19T13:39:24Z</time>
      </trkpt>
      <trkpt lat="43.535551" lon="-7.043065">
        <ele>47.063</ele>
        <time>2019-06-19T13:39:25Z</time>
      </trkpt>
      <trkpt lat="43.535605" lon="-7.043179">
        <ele>47.121</ele>
        <time>2019-06-19T13:39:26Z</time>
      </trkpt>
      <trkpt lat="43.535671" lon="-7.043293">
        <ele>47.061</ele>
        <time>2019-06-19T13:39:27Z</time>
      </trkpt>
      <trkpt lat="43.535746" lon="-7.043419">
        <ele>46.697</ele>
        <time>2019-06-19T13:39:28Z</time>
      </trkpt>
      <trkpt lat="43.535784" lon="-7.043540">
        <ele>46.423</ele>
        <time>2019-06-19T13:39:29Z</time>
      </trkpt>
      <trkpt lat="43.535853" lon="-7.043651">
        <ele>45.925</ele>
        <time>2019-06-19T13:39:30Z</time>
      </trkpt>
      <trkpt lat="43.535903" lon="-7.043763">
        <ele>45.908</ele>
        <time>2019-06-19T13:39:31Z</time>
      </trkpt>
      <trkpt lat="43.535942" lon="-7.043832">
        <ele>45.932</ele>
        <time>2019-06-19T13:39:32Z</time>
      </trkpt>
      <trkpt lat="43.536004" lon="-7.043892">
        <ele>46.076</ele>
        <time>2019-06-19T13:39:33Z</time>
      </trkpt>
      <trkpt lat="43.536067" lon="-7.043936">
        <ele>46.057</ele>
        <time>2019-06-19T13:39:34Z</time>
      </trkpt>
      <trkpt lat="43.536122" lon="-7.043987">
        <ele>45.980</ele>
        <time>2019-06-19T13:39:35Z</time>
      </trkpt>
      <trkpt lat="43.536153" lon="-7.044037">
        <ele>45.760</ele>
        <time>2019-06-19T13:39:36Z</time>
      </trkpt>
      <trkpt lat="43.536184" lon="-7.044104">
        <ele>45.546</ele>
        <time>2019-06-19T13:39:38Z</time>
      </trkpt>
      <trkpt lat="43.536202" lon="-7.044181">
        <ele>45.344</ele>
        <time>2019-06-19T13:39:39Z</time>
      </trkpt>
      <trkpt lat="43.536236" lon="-7.044280">
        <ele>44.734</ele>
        <time>2019-06-19T13:39:40Z</time>
      </trkpt>
      <trkpt lat="43.536267" lon="-7.044378">
        <ele>44.154</ele>
        <time>2019-06-19T13:39:41Z</time>
      </trkpt>
      <trkpt lat="43.536287" lon="-7.044508">
        <ele>43.956</ele>
        <time>2019-06-19T13:39:42Z</time>
      </trkpt>
      <trkpt lat="43.536316" lon="-7.044651">
        <ele>44.111</ele>
        <time>2019-06-19T13:39:43Z</time>
      </trkpt>
      <trkpt lat="43.536340" lon="-7.044804">
        <ele>44.408</ele>
        <time>2019-06-19T13:39:44Z</time>
      </trkpt>
      <trkpt lat="43.536361" lon="-7.044937">
        <ele>44.858</ele>
        <time>2019-06-19T13:39:45Z</time>
      </trkpt>
      <trkpt lat="43.536409" lon="-7.045053">
        <ele>45.072</ele>
        <time>2019-06-19T13:39:46Z</time>
      </trkpt>
      <trkpt lat="43.536403" lon="-7.045201">
        <ele>45.693</ele>
        <time>2019-06-19T13:39:47Z</time>
      </trkpt>
      <trkpt lat="43.536431" lon="-7.045283">
        <ele>45.796</ele>
        <time>2019-06-19T13:39:48Z</time>
      </trkpt>
      <trkpt lat="43.536447" lon="-7.045390">
        <ele>45.386</ele>
        <time>2019-06-19T13:39:49Z</time>
      </trkpt>
      <trkpt lat="43.536466" lon="-7.045496">
        <ele>44.972</ele>
        <time>2019-06-19T13:39:50Z</time>
      </trkpt>
      <trkpt lat="43.536490" lon="-7.045598">
        <ele>44.430</ele>
        <time>2019-06-19T13:39:51Z</time>
      </trkpt>
      <trkpt lat="43.536509" lon="-7.045730">
        <ele>43.650</ele>
        <time>2019-06-19T13:39:52Z</time>
      </trkpt>
      <trkpt lat="43.536505" lon="-7.045890">
        <ele>42.543</ele>
        <time>2019-06-19T13:39:53Z</time>
      </trkpt>
      <trkpt lat="43.536521" lon="-7.046037">
        <ele>41.264</ele>
        <time>2019-06-19T13:39:54Z</time>
      </trkpt>
      <trkpt lat="43.536554" lon="-7.046173">
        <ele>40.210</ele>
        <time>2019-06-19T13:39:55Z</time>
      </trkpt>
      <trkpt lat="43.536590" lon="-7.046293">
        <ele>39.608</ele>
        <time>2019-06-19T13:39:56Z</time>
      </trkpt>
      <trkpt lat="43.536631" lon="-7.046414">
        <ele>39.287</ele>
        <time>2019-06-19T13:39:57Z</time>
      </trkpt>
      <trkpt lat="43.536667" lon="-7.046563">
        <ele>39.611</ele>
        <time>2019-06-19T13:39:58Z</time>
      </trkpt>
      <trkpt lat="43.536646" lon="-7.046736">
        <ele>40.232</ele>
        <time>2019-06-19T13:39:59Z</time>
      </trkpt>
      <trkpt lat="43.536653" lon="-7.046874">
        <ele>40.735</ele>
        <time>2019-06-19T13:40:00Z</time>
      </trkpt>
      <trkpt lat="43.536652" lon="-7.046948">
        <ele>41.055</ele>
        <time>2019-06-19T13:40:01Z</time>
      </trkpt>
      <trkpt lat="43.536661" lon="-7.047026">
        <ele>40.791</ele>
        <time>2019-06-19T13:40:02Z</time>
      </trkpt>
      <trkpt lat="43.536672" lon="-7.047091">
        <ele>40.539</ele>
        <time>2019-06-19T13:40:03Z</time>
      </trkpt>
      <trkpt lat="43.536732" lon="-7.047174">
        <ele>40.139</ele>
        <time>2019-06-19T13:40:05Z</time>
      </trkpt>
      <trkpt lat="43.536726" lon="-7.047272">
        <ele>40.281</ele>
        <time>2019-06-19T13:40:06Z</time>
      </trkpt>
      <trkpt lat="43.536773" lon="-7.047346">
        <ele>40.461</ele>
        <time>2019-06-19T13:40:07Z</time>
      </trkpt>
      <trkpt lat="43.536790" lon="-7.047455">
        <ele>40.817</ele>
        <time>2019-06-19T13:40:08Z</time>
      </trkpt>
      <trkpt lat="43.536822" lon="-7.047555">
        <ele>41.108</ele>
        <time>2019-06-19T13:40:09Z</time>
      </trkpt>
      <trkpt lat="43.536837" lon="-7.047675">
        <ele>41.261</ele>
        <time>2019-06-19T13:40:10Z</time>
      </trkpt>
      <trkpt lat="43.536882" lon="-7.047781">
        <ele>41.265</ele>
        <time>2019-06-19T13:40:11Z</time>
      </trkpt>
      <trkpt lat="43.536921" lon="-7.047894">
        <ele>41.166</ele>
        <time>2019-06-19T13:40:12Z</time>
      </trkpt>
      <trkpt lat="43.536964" lon="-7.048044">
        <ele>41.159</ele>
        <time>2019-06-19T13:40:13Z</time>
      </trkpt>
      <trkpt lat="43.536974" lon="-7.048245">
        <ele>40.589</ele>
        <time>2019-06-19T13:40:14Z</time>
      </trkpt>
      <trkpt lat="43.537004" lon="-7.048404">
        <ele>40.495</ele>
        <time>2019-06-19T13:40:15Z</time>
      </trkpt>
      <trkpt lat="43.537043" lon="-7.048534">
        <ele>40.753</ele>
        <time>2019-06-19T13:40:16Z</time>
      </trkpt>
      <trkpt lat="43.537098" lon="-7.048660">
        <ele>41.133</ele>
        <time>2019-06-19T13:40:17Z</time>
      </trkpt>
      <trkpt lat="43.537170" lon="-7.048764">
        <ele>41.612</ele>
        <time>2019-06-19T13:40:18Z</time>
      </trkpt>
      <trkpt lat="43.537216" lon="-7.048870">
        <ele>42.032</ele>
        <time>2019-06-19T13:40:19Z</time>
      </trkpt>
      <trkpt lat="43.537242" lon="-7.048977">
        <ele>41.805</ele>
        <time>2019-06-19T13:40:20Z</time>
      </trkpt>
      <trkpt lat="43.537261" lon="-7.049070">
        <ele>41.708</ele>
        <time>2019-06-19T13:40:21Z</time>
      </trkpt>
      <trkpt lat="43.537278" lon="-7.049156">
        <ele>41.664</ele>
        <time>2019-06-19T13:40:22Z</time>
      </trkpt>
      <trkpt lat="43.537306" lon="-7.049225">
        <ele>41.828</ele>
        <time>2019-06-19T13:40:23Z</time>
      </trkpt>
      <trkpt lat="43.537365" lon="-7.049310">
        <ele>42.349</ele>
        <time>2019-06-19T13:40:25Z</time>
      </trkpt>
      <trkpt lat="43.537430" lon="-7.049336">
        <ele>42.872</ele>
        <time>2019-06-19T13:40:27Z</time>
      </trkpt>
      <trkpt lat="43.537570" lon="-7.049369">
        <ele>44.072</ele>
        <time>2019-06-19T13:40:29Z</time>
      </trkpt>
      <trkpt lat="43.537615" lon="-7.049502">
        <ele>44.078</ele>
        <time>2019-06-19T13:40:31Z</time>
      </trkpt>
      <trkpt lat="43.537629" lon="-7.049580">
        <ele>43.926</ele>
        <time>2019-06-19T13:40:32Z</time>
      </trkpt>
      <trkpt lat="43.537626" lon="-7.049694">
        <ele>43.586</ele>
        <time>2019-06-19T13:40:33Z</time>
      </trkpt>
      <trkpt lat="43.537615" lon="-7.049803">
        <ele>43.096</ele>
        <time>2019-06-19T13:40:34Z</time>
      </trkpt>
      <trkpt lat="43.537609" lon="-7.049916">
        <ele>42.631</ele>
        <time>2019-06-19T13:40:35Z</time>
      </trkpt>
      <trkpt lat="43.537611" lon="-7.050025">
        <ele>42.424</ele>
        <time>2019-06-19T13:40:36Z</time>
      </trkpt>
      <trkpt lat="43.537625" lon="-7.050133">
        <ele>42.208</ele>
        <time>2019-06-19T13:40:37Z</time>
      </trkpt>
      <trkpt lat="43.537642" lon="-7.050239">
        <ele>42.152</ele>
        <time>2019-06-19T13:40:38Z</time>
      </trkpt>
      <trkpt lat="43.537661" lon="-7.050324">
        <ele>41.916</ele>
        <time>2019-06-19T13:40:39Z</time>
      </trkpt>
      <trkpt lat="43.537678" lon="-7.050412">
        <ele>41.717</ele>
        <time>2019-06-19T13:40:40Z</time>
      </trkpt>
      <trkpt lat="43.537693" lon="-7.050500">
        <ele>41.480</ele>
        <time>2019-06-19T13:40:41Z</time>
      </trkpt>
      <trkpt lat="43.537706" lon="-7.050583">
        <ele>41.170</ele>
        <time>2019-06-19T13:40:42Z</time>
      </trkpt>
      <trkpt lat="43.537716" lon="-7.050666">
        <ele>40.586</ele>
        <time>2019-06-19T13:40:43Z</time>
      </trkpt>
      <trkpt lat="43.537727" lon="-7.050741">
        <ele>40.024</ele>
        <time>2019-06-19T13:40:44Z</time>
      </trkpt>
      <trkpt lat="43.537738" lon="-7.050818">
        <ele>39.484</ele>
        <time>2019-06-19T13:40:45Z</time>
      </trkpt>
      <trkpt lat="43.537749" lon="-7.050895">
        <ele>39.234</ele>
        <time>2019-06-19T13:40:46Z</time>
      </trkpt>
      <trkpt lat="43.537759" lon="-7.050980">
        <ele>39.155</ele>
        <time>2019-06-19T13:40:47Z</time>
      </trkpt>
      <trkpt lat="43.537775" lon="-7.051069">
        <ele>39.010</ele>
        <time>2019-06-19T13:40:48Z</time>
      </trkpt>
      <trkpt lat="43.537786" lon="-7.051174">
        <ele>39.008</ele>
        <time>2019-06-19T13:40:49Z</time>
      </trkpt>
      <trkpt lat="43.537801" lon="-7.051283">
        <ele>38.966</ele>
        <time>2019-06-19T13:40:50Z</time>
      </trkpt>
      <trkpt lat="43.537819" lon="-7.051387">
        <ele>38.930</ele>
        <time>2019-06-19T13:40:51Z</time>
      </trkpt>
      <trkpt lat="43.537835" lon="-7.051495">
        <ele>38.591</ele>
        <time>2019-06-19T13:40:52Z</time>
      </trkpt>
      <trkpt lat="43.537845" lon="-7.051602">
        <ele>38.284</ele>
        <time>2019-06-19T13:40:53Z</time>
      </trkpt>
      <trkpt lat="43.537860" lon="-7.051706">
        <ele>38.064</ele>
        <time>2019-06-19T13:40:54Z</time>
      </trkpt>
      <trkpt lat="43.537872" lon="-7.051808">
        <ele>37.890</ele>
        <time>2019-06-19T13:40:55Z</time>
      </trkpt>
      <trkpt lat="43.537884" lon="-7.051912">
        <ele>37.758</ele>
        <time>2019-06-19T13:40:56Z</time>
      </trkpt>
      <trkpt lat="43.537899" lon="-7.052018">
        <ele>37.458</ele>
        <time>2019-06-19T13:40:57Z</time>
      </trkpt>
      <trkpt lat="43.537912" lon="-7.052124">
        <ele>37.265</ele>
        <time>2019-06-19T13:40:58Z</time>
      </trkpt>
      <trkpt lat="43.537927" lon="-7.052215">
        <ele>36.968</ele>
        <time>2019-06-19T13:40:59Z</time>
      </trkpt>
      <trkpt lat="43.537938" lon="-7.052306">
        <ele>36.814</ele>
        <time>2019-06-19T13:41:00Z</time>
      </trkpt>
      <trkpt lat="43.537951" lon="-7.052420">
        <ele>36.808</ele>
        <time>2019-06-19T13:41:01Z</time>
      </trkpt>
      <trkpt lat="43.537969" lon="-7.052555">
        <ele>36.819</ele>
        <time>2019-06-19T13:41:02Z</time>
      </trkpt>
      <trkpt lat="43.537994" lon="-7.052697">
        <ele>37.063</ele>
        <time>2019-06-19T13:41:03Z</time>
      </trkpt>
      <trkpt lat="43.538015" lon="-7.052850">
        <ele>37.214</ele>
        <time>2019-06-19T13:41:04Z</time>
      </trkpt>
      <trkpt lat="43.538034" lon="-7.052991">
        <ele>37.177</ele>
        <time>2019-06-19T13:41:05Z</time>
      </trkpt>
      <trkpt lat="43.538057" lon="-7.053110">
        <ele>37.087</ele>
        <time>2019-06-19T13:41:06Z</time>
      </trkpt>
      <trkpt lat="43.538078" lon="-7.053220">
        <ele>36.883</ele>
        <time>2019-06-19T13:41:07Z</time>
      </trkpt>
      <trkpt lat="43.538095" lon="-7.053322">
        <ele>36.771</ele>
        <time>2019-06-19T13:41:08Z</time>
      </trkpt>
      <trkpt lat="43.538115" lon="-7.053411">
        <ele>36.991</ele>
        <time>2019-06-19T13:41:09Z</time>
      </trkpt>
      <trkpt lat="43.538137" lon="-7.053502">
        <ele>37.254</ele>
        <time>2019-06-19T13:41:10Z</time>
      </trkpt>
      <trkpt lat="43.538162" lon="-7.053587">
        <ele>37.556</ele>
        <time>2019-06-19T13:41:11Z</time>
      </trkpt>
      <trkpt lat="43.538196" lon="-7.053688">
        <ele>37.611</ele>
        <time>2019-06-19T13:41:12Z</time>
      </trkpt>
      <trkpt lat="43.538240" lon="-7.053791">
        <ele>37.808</ele>
        <time>2019-06-19T13:41:13Z</time>
      </trkpt>
      <trkpt lat="43.538285" lon="-7.053889">
        <ele>38.028</ele>
        <time>2019-06-19T13:41:14Z</time>
      </trkpt>
      <trkpt lat="43.538343" lon="-7.053977">
        <ele>38.082</ele>
        <time>2019-06-19T13:41:15Z</time>
      </trkpt>
      <trkpt lat="43.538401" lon="-7.054061">
        <ele>38.033</ele>
        <time>2019-06-19T13:41:16Z</time>
      </trkpt>
      <trkpt lat="43.538467" lon="-7.054140">
        <ele>38.036</ele>
        <time>2019-06-19T13:41:17Z</time>
      </trkpt>
      <trkpt lat="43.538547" lon="-7.054204">
        <ele>38.026</ele>
        <time>2019-06-19T13:41:18Z</time>
      </trkpt>
      <trkpt lat="43.538624" lon="-7.054288">
        <ele>38.032</ele>
        <time>2019-06-19T13:41:19Z</time>
      </trkpt>
      <trkpt lat="43.538708" lon="-7.054375">
        <ele>38.050</ele>
        <time>2019-06-19T13:41:20Z</time>
      </trkpt>
      <trkpt lat="43.538794" lon="-7.054468">
        <ele>37.960</ele>
        <time>2019-06-19T13:41:21Z</time>
      </trkpt>
      <trkpt lat="43.538882" lon="-7.054580">
        <ele>37.566</ele>
        <time>2019-06-19T13:41:22Z</time>
      </trkpt>
      <trkpt lat="43.538962" lon="-7.054680">
        <ele>36.829</ele>
        <time>2019-06-19T13:41:23Z</time>
      </trkpt>
      <trkpt lat="43.539039" lon="-7.054756">
        <ele>36.321</ele>
        <time>2019-06-19T13:41:24Z</time>
      </trkpt>
      <trkpt lat="43.539114" lon="-7.054829">
        <ele>35.808</ele>
        <time>2019-06-19T13:41:25Z</time>
      </trkpt>
      <trkpt lat="43.539190" lon="-7.054883">
        <ele>35.249</ele>
        <time>2019-06-19T13:41:26Z</time>
      </trkpt>
      <trkpt lat="43.539269" lon="-7.054902">
        <ele>34.573</ele>
        <time>2019-06-19T13:41:27Z</time>
      </trkpt>
      <trkpt lat="43.539360" lon="-7.054882">
        <ele>33.764</ele>
        <time>2019-06-19T13:41:28Z</time>
      </trkpt>
      <trkpt lat="43.539452" lon="-7.054824">
        <ele>33.077</ele>
        <time>2019-06-19T13:41:29Z</time>
      </trkpt>
      <trkpt lat="43.539500" lon="-7.054754">
        <ele>33.217</ele>
        <time>2019-06-19T13:41:30Z</time>
      </trkpt>
      <trkpt lat="43.539565" lon="-7.054662">
        <ele>33.743</ele>
        <time>2019-06-19T13:41:31Z</time>
      </trkpt>
      <trkpt lat="43.539599" lon="-7.054513">
        <ele>34.231</ele>
        <time>2019-06-19T13:41:32Z</time>
      </trkpt>
      <trkpt lat="43.539603" lon="-7.054310">
        <ele>33.961</ele>
        <time>2019-06-19T13:41:33Z</time>
      </trkpt>
      <trkpt lat="43.539651" lon="-7.054086">
        <ele>33.013</ele>
        <time>2019-06-19T13:41:34Z</time>
      </trkpt>
      <trkpt lat="43.539697" lon="-7.053886">
        <ele>32.143</ele>
        <time>2019-06-19T13:41:35Z</time>
      </trkpt>
      <trkpt lat="43.539745" lon="-7.053671">
        <ele>32.007</ele>
        <time>2019-06-19T13:41:36Z</time>
      </trkpt>
      <trkpt lat="43.539786" lon="-7.053435">
        <ele>31.908</ele>
        <time>2019-06-19T13:41:37Z</time>
      </trkpt>
      <trkpt lat="43.539847" lon="-7.053188">
        <ele>31.394</ele>
        <time>2019-06-19T13:41:38Z</time>
      </trkpt>
      <trkpt lat="43.539906" lon="-7.052935">
        <ele>30.748</ele>
        <time>2019-06-19T13:41:39Z</time>
      </trkpt>
      <trkpt lat="43.539962" lon="-7.052687">
        <ele>30.529</ele>
        <time>2019-06-19T13:41:40Z</time>
      </trkpt>
      <trkpt lat="43.540027" lon="-7.052432">
        <ele>31.242</ele>
        <time>2019-06-19T13:41:41Z</time>
      </trkpt>
      <trkpt lat="43.540099" lon="-7.052182">
        <ele>32.172</ele>
        <time>2019-06-19T13:41:42Z</time>
      </trkpt>
      <trkpt lat="43.540176" lon="-7.051924">
        <ele>33.028</ele>
        <time>2019-06-19T13:41:43Z</time>
      </trkpt>
      <trkpt lat="43.540261" lon="-7.051661">
        <ele>33.066</ele>
        <time>2019-06-19T13:41:44Z</time>
      </trkpt>
      <trkpt lat="43.540344" lon="-7.051385">
        <ele>32.026</ele>
        <time>2019-06-19T13:41:45Z</time>
      </trkpt>
      <trkpt lat="43.540436" lon="-7.051116">
        <ele>30.989</ele>
        <time>2019-06-19T13:41:46Z</time>
      </trkpt>
      <trkpt lat="43.540536" lon="-7.050848">
        <ele>29.206</ele>
        <time>2019-06-19T13:41:47Z</time>
      </trkpt>
      <trkpt lat="43.540644" lon="-7.050585">
        <ele>28.726</ele>
        <time>2019-06-19T13:41:48Z</time>
      </trkpt>
      <trkpt lat="43.540744" lon="-7.050321">
        <ele>28.308</ele>
        <time>2019-06-19T13:41:49Z</time>
      </trkpt>
      <trkpt lat="43.540845" lon="-7.050075">
        <ele>28.071</ele>
        <time>2019-06-19T13:41:50Z</time>
      </trkpt>
      <trkpt lat="43.540942" lon="-7.049824">
        <ele>28.445</ele>
        <time>2019-06-19T13:41:51Z</time>
      </trkpt>
      <trkpt lat="43.541043" lon="-7.049576">
        <ele>28.266</ele>
        <time>2019-06-19T13:41:52Z</time>
      </trkpt>
      <trkpt lat="43.541143" lon="-7.049329">
        <ele>28.599</ele>
        <time>2019-06-19T13:41:53Z</time>
      </trkpt>
      <trkpt lat="43.541237" lon="-7.049082">
        <ele>29.379</ele>
        <time>2019-06-19T13:41:54Z</time>
      </trkpt>
      <trkpt lat="43.541323" lon="-7.048834">
        <ele>30.025</ele>
        <time>2019-06-19T13:41:55Z</time>
      </trkpt>
      <trkpt lat="43.541399" lon="-7.048582">
        <ele>30.133</ele>
        <time>2019-06-19T13:41:56Z</time>
      </trkpt>
      <trkpt lat="43.541469" lon="-7.048335">
        <ele>30.723</ele>
        <time>2019-06-19T13:41:57Z</time>
      </trkpt>
      <trkpt lat="43.541529" lon="-7.048087">
        <ele>30.956</ele>
        <time>2019-06-19T13:41:58Z</time>
      </trkpt>
      <trkpt lat="43.541580" lon="-7.047843">
        <ele>30.059</ele>
        <time>2019-06-19T13:41:59Z</time>
      </trkpt>
      <trkpt lat="43.541619" lon="-7.047609">
        <ele>29.214</ele>
        <time>2019-06-19T13:42:00Z</time>
      </trkpt>
      <trkpt lat="43.541646" lon="-7.047385">
        <ele>28.508</ele>
        <time>2019-06-19T13:42:01Z</time>
      </trkpt>
      <trkpt lat="43.541664" lon="-7.047178">
        <ele>28.098</ele>
        <time>2019-06-19T13:42:02Z</time>
      </trkpt>
      <trkpt lat="43.541677" lon="-7.046995">
        <ele>28.042</ele>
        <time>2019-06-19T13:42:03Z</time>
      </trkpt>
      <trkpt lat="43.541684" lon="-7.046853">
        <ele>28.323</ele>
        <time>2019-06-19T13:42:04Z</time>
      </trkpt>
      <trkpt lat="43.541690" lon="-7.046767">
        <ele>28.656</ele>
        <time>2019-06-19T13:42:05Z</time>
      </trkpt>
      <trkpt lat="43.541695" lon="-7.046699">
        <ele>28.886</ele>
        <time>2019-06-19T13:42:07Z</time>
      </trkpt>
      <trkpt lat="43.541685" lon="-7.046621">
        <ele>29.192</ele>
        <time>2019-06-19T13:42:10Z</time>
      </trkpt>
      <trkpt lat="43.541660" lon="-7.046523">
        <ele>29.520</ele>
        <time>2019-06-19T13:42:12Z</time>
      </trkpt>
      <trkpt lat="43.541621" lon="-7.046450">
        <ele>29.790</ele>
        <time>2019-06-19T13:42:13Z</time>
      </trkpt>
      <trkpt lat="43.541593" lon="-7.046374">
        <ele>30.119</ele>
        <time>2019-06-19T13:42:14Z</time>
      </trkpt>
      <trkpt lat="43.541580" lon="-7.046289">
        <ele>30.409</ele>
        <time>2019-06-19T13:42:15Z</time>
      </trkpt>
      <trkpt lat="43.541588" lon="-7.046222">
        <ele>30.619</ele>
        <time>2019-06-19T13:42:16Z</time>
      </trkpt>
      <trkpt lat="43.541608" lon="-7.046155">
        <ele>30.808</ele>
        <time>2019-06-19T13:42:17Z</time>
      </trkpt>
      <trkpt lat="43.541646" lon="-7.046105">
        <ele>31.034</ele>
        <time>2019-06-19T13:42:18Z</time>
      </trkpt>
      <trkpt lat="43.541691" lon="-7.046059">
        <ele>30.968</ele>
        <time>2019-06-19T13:42:19Z</time>
      </trkpt>
      <trkpt lat="43.541743" lon="-7.046003">
        <ele>30.819</ele>
        <time>2019-06-19T13:42:20Z</time>
      </trkpt>
      <trkpt lat="43.541806" lon="-7.045920">
        <ele>30.892</ele>
        <time>2019-06-19T13:42:21Z</time>
      </trkpt>
      <trkpt lat="43.541873" lon="-7.045822">
        <ele>31.032</ele>
        <time>2019-06-19T13:42:22Z</time>
      </trkpt>
      <trkpt lat="43.541944" lon="-7.045708">
        <ele>30.658</ele>
        <time>2019-06-19T13:42:23Z</time>
      </trkpt>
      <trkpt lat="43.542003" lon="-7.045593">
        <ele>30.156</ele>
        <time>2019-06-19T13:42:24Z</time>
      </trkpt>
      <trkpt lat="43.542058" lon="-7.045463">
        <ele>29.776</ele>
        <time>2019-06-19T13:42:25Z</time>
      </trkpt>
      <trkpt lat="43.542109" lon="-7.045316">
        <ele>29.183</ele>
        <time>2019-06-19T13:42:26Z</time>
      </trkpt>
      <trkpt lat="43.542155" lon="-7.045147">
        <ele>28.625</ele>
        <time>2019-06-19T13:42:27Z</time>
      </trkpt>
      <trkpt lat="43.542189" lon="-7.044964">
        <ele>28.217</ele>
        <time>2019-06-19T13:42:28Z</time>
      </trkpt>
      <trkpt lat="43.542231" lon="-7.044778">
        <ele>28.808</ele>
        <time>2019-06-19T13:42:29Z</time>
      </trkpt>
      <trkpt lat="43.542274" lon="-7.044584">
        <ele>29.281</ele>
        <time>2019-06-19T13:42:30Z</time>
      </trkpt>
      <trkpt lat="43.542323" lon="-7.044386">
        <ele>29.535</ele>
        <time>2019-06-19T13:42:31Z</time>
      </trkpt>
      <trkpt lat="43.542361" lon="-7.044185">
        <ele>30.036</ele>
        <time>2019-06-19T13:42:32Z</time>
      </trkpt>
      <trkpt lat="43.542398" lon="-7.043983">
        <ele>30.749</ele>
        <time>2019-06-19T13:42:33Z</time>
      </trkpt>
      <trkpt lat="43.542431" lon="-7.043785">
        <ele>31.289</ele>
        <time>2019-06-19T13:42:34Z</time>
      </trkpt>
      <trkpt lat="43.542463" lon="-7.043597">
        <ele>31.345</ele>
        <time>2019-06-19T13:42:35Z</time>
      </trkpt>
      <trkpt lat="43.542479" lon="-7.043420">
        <ele>31.823</ele>
        <time>2019-06-19T13:42:36Z</time>
      </trkpt>
      <trkpt lat="43.542490" lon="-7.043249">
        <ele>32.053</ele>
        <time>2019-06-19T13:42:37Z</time>
      </trkpt>
      <trkpt lat="43.542490" lon="-7.043081">
        <ele>32.075</ele>
        <time>2019-06-19T13:42:38Z</time>
      </trkpt>
      <trkpt lat="43.542488" lon="-7.042935">
        <ele>32.028</ele>
        <time>2019-06-19T13:42:39Z</time>
      </trkpt>
      <trkpt lat="43.542487" lon="-7.042809">
        <ele>32.020</ele>
        <time>2019-06-19T13:42:40Z</time>
      </trkpt>
      <trkpt lat="43.542493" lon="-7.042697">
        <ele>32.008</ele>
        <time>2019-06-19T13:42:41Z</time>
      </trkpt>
      <trkpt lat="43.542502" lon="-7.042610">
        <ele>32.080</ele>
        <time>2019-06-19T13:42:42Z</time>
      </trkpt>
      <trkpt lat="43.542513" lon="-7.042545">
        <ele>31.974</ele>
        <time>2019-06-19T13:42:43Z</time>
      </trkpt>
      <trkpt lat="43.542559" lon="-7.042453">
        <ele>31.465</ele>
        <time>2019-06-19T13:42:45Z</time>
      </trkpt>
      <trkpt lat="43.542605" lon="-7.042423">
        <ele>31.048</ele>
        <time>2019-06-19T13:42:46Z</time>
      </trkpt>
      <trkpt lat="43.542664" lon="-7.042403">
        <ele>30.528</ele>
        <time>2019-06-19T13:42:47Z</time>
      </trkpt>
      <trkpt lat="43.542736" lon="-7.042409">
        <ele>30.074</ele>
        <time>2019-06-19T13:42:48Z</time>
      </trkpt>
      <trkpt lat="43.542813" lon="-7.042419">
        <ele>29.582</ele>
        <time>2019-06-19T13:42:49Z</time>
      </trkpt>
      <trkpt lat="43.542900" lon="-7.042445">
        <ele>29.052</ele>
        <time>2019-06-19T13:42:50Z</time>
      </trkpt>
      <trkpt lat="43.542954" lon="-7.042486">
        <ele>28.793</ele>
        <time>2019-06-19T13:42:51Z</time>
      </trkpt>
      <trkpt lat="43.543016" lon="-7.042517">
        <ele>28.365</ele>
        <time>2019-06-19T13:42:52Z</time>
      </trkpt>
      <trkpt lat="43.543082" lon="-7.042653">
        <ele>28.021</ele>
        <time>2019-06-19T13:42:54Z</time>
      </trkpt>
      <trkpt lat="43.543150" lon="-7.042752">
        <ele>28.008</ele>
        <time>2019-06-19T13:42:55Z</time>
      </trkpt>
      <trkpt lat="43.543227" lon="-7.042849">
        <ele>28.182</ele>
        <time>2019-06-19T13:42:56Z</time>
      </trkpt>
      <trkpt lat="43.543312" lon="-7.042958">
        <ele>28.196</ele>
        <time>2019-06-19T13:42:57Z</time>
      </trkpt>
      <trkpt lat="43.543384" lon="-7.043082">
        <ele>27.987</ele>
        <time>2019-06-19T13:42:58Z</time>
      </trkpt>
      <trkpt lat="43.543460" lon="-7.043213">
        <ele>27.940</ele>
        <time>2019-06-19T13:42:59Z</time>
      </trkpt>
      <trkpt lat="43.543534" lon="-7.043346">
        <ele>27.610</ele>
        <time>2019-06-19T13:43:00Z</time>
      </trkpt>
      <trkpt lat="43.543615" lon="-7.043468">
        <ele>27.536</ele>
        <time>2019-06-19T13:43:01Z</time>
      </trkpt>
      <trkpt lat="43.543702" lon="-7.043582">
        <ele>27.314</ele>
        <time>2019-06-19T13:43:02Z</time>
      </trkpt>
      <trkpt lat="43.543797" lon="-7.043705">
        <ele>27.294</ele>
        <time>2019-06-19T13:43:03Z</time>
      </trkpt>
      <trkpt lat="43.543903" lon="-7.043822">
        <ele>27.468</ele>
        <time>2019-06-19T13:43:04Z</time>
      </trkpt>
      <trkpt lat="43.544012" lon="-7.043923">
        <ele>27.342</ele>
        <time>2019-06-19T13:43:05Z</time>
      </trkpt>
      <trkpt lat="43.544140" lon="-7.044027">
        <ele>27.126</ele>
        <time>2019-06-19T13:43:06Z</time>
      </trkpt>
      <trkpt lat="43.544266" lon="-7.044147">
        <ele>27.908</ele>
        <time>2019-06-19T13:43:07Z</time>
      </trkpt>
      <trkpt lat="43.544383" lon="-7.044247">
        <ele>28.119</ele>
        <time>2019-06-19T13:43:08Z</time>
      </trkpt>
      <trkpt lat="43.544499" lon="-7.044362">
        <ele>28.183</ele>
        <time>2019-06-19T13:43:09Z</time>
      </trkpt>
      <trkpt lat="43.544617" lon="-7.044475">
        <ele>27.954</ele>
        <time>2019-06-19T13:43:10Z</time>
      </trkpt>
      <trkpt lat="43.544729" lon="-7.044599">
        <ele>27.427</ele>
        <time>2019-06-19T13:43:11Z</time>
      </trkpt>
      <trkpt lat="43.544822" lon="-7.044739">
        <ele>26.617</ele>
        <time>2019-06-19T13:43:12Z</time>
      </trkpt>
      <trkpt lat="43.544920" lon="-7.044873">
        <ele>26.373</ele>
        <time>2019-06-19T13:43:13Z</time>
      </trkpt>
      <trkpt lat="43.545028" lon="-7.044998">
        <ele>26.011</ele>
        <time>2019-06-19T13:43:14Z</time>
      </trkpt>
      <trkpt lat="43.545140" lon="-7.045140">
        <ele>26.521</ele>
        <time>2019-06-19T13:43:15Z</time>
      </trkpt>
      <trkpt lat="43.545245" lon="-7.045282">
        <ele>27.013</ele>
        <time>2019-06-19T13:43:16Z</time>
      </trkpt>
      <trkpt lat="43.545359" lon="-7.045422">
        <ele>26.943</ele>
        <time>2019-06-19T13:43:17Z</time>
      </trkpt>
      <trkpt lat="43.545470" lon="-7.045550">
        <ele>27.007</ele>
        <time>2019-06-19T13:43:18Z</time>
      </trkpt>
      <trkpt lat="43.545577" lon="-7.045665">
        <ele>27.008</ele>
        <time>2019-06-19T13:43:19Z</time>
      </trkpt>
      <trkpt lat="43.545676" lon="-7.045777">
        <ele>27.024</ele>
        <time>2019-06-19T13:43:20Z</time>
      </trkpt>
      <trkpt lat="43.545766" lon="-7.045909">
        <ele>26.878</ele>
        <time>2019-06-19T13:43:21Z</time>
      </trkpt>
      <trkpt lat="43.545851" lon="-7.046008">
        <ele>26.219</ele>
        <time>2019-06-19T13:43:22Z</time>
      </trkpt>
      <trkpt lat="43.545918" lon="-7.046133">
        <ele>25.252</ele>
        <time>2019-06-19T13:43:23Z</time>
      </trkpt>
      <trkpt lat="43.545994" lon="-7.046214">
        <ele>24.132</ele>
        <time>2019-06-19T13:43:24Z</time>
      </trkpt>
      <trkpt lat="43.546053" lon="-7.046300">
        <ele>23.188</ele>
        <time>2019-06-19T13:43:25Z</time>
      </trkpt>
      <trkpt lat="43.546080" lon="-7.046416">
        <ele>22.016</ele>
        <time>2019-06-19T13:43:26Z</time>
      </trkpt>
      <trkpt lat="43.546106" lon="-7.046519">
        <ele>21.196</ele>
        <time>2019-06-19T13:43:27Z</time>
      </trkpt>
      <trkpt lat="43.546171" lon="-7.046585">
        <ele>20.163</ele>
        <time>2019-06-19T13:43:29Z</time>
      </trkpt>
      <trkpt lat="43.546229" lon="-7.046578">
        <ele>19.744</ele>
        <time>2019-06-19T13:43:31Z</time>
      </trkpt>
      <trkpt lat="43.546280" lon="-7.046545">
        <ele>19.418</ele>
        <time>2019-06-19T13:43:32Z</time>
      </trkpt>
      <trkpt lat="43.546318" lon="-7.046509">
        <ele>19.208</ele>
        <time>2019-06-19T13:43:33Z</time>
      </trkpt>
      <trkpt lat="43.546331" lon="-7.046423">
        <ele>19.519</ele>
        <time>2019-06-19T13:43:34Z</time>
      </trkpt>
      <trkpt lat="43.546343" lon="-7.046268">
        <ele>20.463</ele>
        <time>2019-06-19T13:43:35Z</time>
      </trkpt>
      <trkpt lat="43.546365" lon="-7.046146">
        <ele>21.074</ele>
        <time>2019-06-19T13:43:36Z</time>
      </trkpt>
      <trkpt lat="43.546408" lon="-7.046033">
        <ele>21.117</ele>
        <time>2019-06-19T13:43:37Z</time>
      </trkpt>
      <trkpt lat="43.546473" lon="-7.045952">
        <ele>21.047</ele>
        <time>2019-06-19T13:43:38Z</time>
      </trkpt>
      <trkpt lat="43.546540" lon="-7.045882">
        <ele>20.773</ele>
        <time>2019-06-19T13:43:39Z</time>
      </trkpt>
      <trkpt lat="43.546626" lon="-7.045822">
        <ele>20.341</ele>
        <time>2019-06-19T13:43:40Z</time>
      </trkpt>
      <trkpt lat="43.546711" lon="-7.045763">
        <ele>20.171</ele>
        <time>2019-06-19T13:43:41Z</time>
      </trkpt>
      <trkpt lat="43.546809" lon="-7.045700">
        <ele>20.052</ele>
        <time>2019-06-19T13:43:42Z</time>
      </trkpt>
      <trkpt lat="43.546907" lon="-7.045639">
        <ele>19.853</ele>
        <time>2019-06-19T13:43:43Z</time>
      </trkpt>
      <trkpt lat="43.546997" lon="-7.045583">
        <ele>19.908</ele>
        <time>2019-06-19T13:43:44Z</time>
      </trkpt>
      <trkpt lat="43.547078" lon="-7.045527">
        <ele>20.208</ele>
        <time>2019-06-19T13:43:45Z</time>
      </trkpt>
      <trkpt lat="43.547142" lon="-7.045455">
        <ele>20.758</ele>
        <time>2019-06-19T13:43:46Z</time>
      </trkpt>
      <trkpt lat="43.547202" lon="-7.045378">
        <ele>21.342</ele>
        <time>2019-06-19T13:43:47Z</time>
      </trkpt>
      <trkpt lat="43.547214" lon="-7.045253">
        <ele>22.063</ele>
        <time>2019-06-19T13:43:48Z</time>
      </trkpt>
      <trkpt lat="43.547234" lon="-7.045120">
        <ele>22.096</ele>
        <time>2019-06-19T13:43:49Z</time>
      </trkpt>
      <trkpt lat="43.547263" lon="-7.045003">
        <ele>21.996</ele>
        <time>2019-06-19T13:43:50Z</time>
      </trkpt>
      <trkpt lat="43.547299" lon="-7.044909">
        <ele>21.752</ele>
        <time>2019-06-19T13:43:51Z</time>
      </trkpt>
      <trkpt lat="43.547362" lon="-7.044844">
        <ele>21.520</ele>
        <time>2019-06-19T13:43:52Z</time>
      </trkpt>
      <trkpt lat="43.547429" lon="-7.044765">
        <ele>21.350</ele>
        <time>2019-06-19T13:43:53Z</time>
      </trkpt>
      <trkpt lat="43.547497" lon="-7.044731">
        <ele>21.045</ele>
        <time>2019-06-19T13:43:54Z</time>
      </trkpt>
      <trkpt lat="43.547584" lon="-7.044688">
        <ele>20.847</ele>
        <time>2019-06-19T13:43:55Z</time>
      </trkpt>
      <trkpt lat="43.547659" lon="-7.044650">
        <ele>20.511</ele>
        <time>2019-06-19T13:43:56Z</time>
      </trkpt>
      <trkpt lat="43.547748" lon="-7.044637">
        <ele>20.108</ele>
        <time>2019-06-19T13:43:57Z</time>
      </trkpt>
      <trkpt lat="43.547844" lon="-7.044637">
        <ele>19.847</ele>
        <time>2019-06-19T13:43:58Z</time>
      </trkpt>
      <trkpt lat="43.547948" lon="-7.044634">
        <ele>19.411</ele>
        <time>2019-06-19T13:43:59Z</time>
      </trkpt>
      <trkpt lat="43.548057" lon="-7.044634">
        <ele>19.072</ele>
        <time>2019-06-19T13:44:00Z</time>
      </trkpt>
      <trkpt lat="43.548169" lon="-7.044623">
        <ele>18.675</ele>
        <time>2019-06-19T13:44:01Z</time>
      </trkpt>
      <trkpt lat="43.548274" lon="-7.044613">
        <ele>18.225</ele>
        <time>2019-06-19T13:44:02Z</time>
      </trkpt>
      <trkpt lat="43.548381" lon="-7.044614">
        <ele>18.081</ele>
        <time>2019-06-19T13:44:03Z</time>
      </trkpt>
      <trkpt lat="43.548479" lon="-7.044640">
        <ele>18.039</ele>
        <time>2019-06-19T13:44:04Z</time>
      </trkpt>
      <trkpt lat="43.548563" lon="-7.044699">
        <ele>18.069</ele>
        <time>2019-06-19T13:44:05Z</time>
      </trkpt>
      <trkpt lat="43.548651" lon="-7.044777">
        <ele>18.185</ele>
        <time>2019-06-19T13:44:06Z</time>
      </trkpt>
      <trkpt lat="43.548723" lon="-7.044885">
        <ele>18.289</ele>
        <time>2019-06-19T13:44:07Z</time>
      </trkpt>
      <trkpt lat="43.548812" lon="-7.044990">
        <ele>18.017</ele>
        <time>2019-06-19T13:44:08Z</time>
      </trkpt>
      <trkpt lat="43.548905" lon="-7.045074">
        <ele>18.008</ele>
        <time>2019-06-19T13:44:09Z</time>
      </trkpt>
      <trkpt lat="43.549000" lon="-7.045132">
        <ele>18.241</ele>
        <time>2019-06-19T13:44:10Z</time>
      </trkpt>
      <trkpt lat="43.549096" lon="-7.045176">
        <ele>18.345</ele>
        <time>2019-06-19T13:44:11Z</time>
      </trkpt>
      <trkpt lat="43.549165" lon="-7.045157">
        <ele>18.446</ele>
        <time>2019-06-19T13:44:12Z</time>
      </trkpt>
      <trkpt lat="43.549261" lon="-7.045136">
        <ele>18.559</ele>
        <time>2019-06-19T13:44:13Z</time>
      </trkpt>
      <trkpt lat="43.549361" lon="-7.045096">
        <ele>18.769</ele>
        <time>2019-06-19T13:44:14Z</time>
      </trkpt>
      <trkpt lat="43.549477" lon="-7.045006">
        <ele>18.945</ele>
        <time>2019-06-19T13:44:15Z</time>
      </trkpt>
      <trkpt lat="43.549577" lon="-7.044918">
        <ele>18.513</ele>
        <time>2019-06-19T13:44:16Z</time>
      </trkpt>
      <trkpt lat="43.549693" lon="-7.044843">
        <ele>18.123</ele>
        <time>2019-06-19T13:44:17Z</time>
      </trkpt>
      <trkpt lat="43.549813" lon="-7.044748">
        <ele>17.796</ele>
        <time>2019-06-19T13:44:18Z</time>
      </trkpt>
      <trkpt lat="43.549911" lon="-7.044661">
        <ele>17.231</ele>
        <time>2019-06-19T13:44:19Z</time>
      </trkpt>
      <trkpt lat="43.550027" lon="-7.044560">
        <ele>16.424</ele>
        <time>2019-06-19T13:44:20Z</time>
      </trkpt>
      <trkpt lat="43.550154" lon="-7.044452">
        <ele>16.008</ele>
        <time>2019-06-19T13:44:21Z</time>
      </trkpt>
      <trkpt lat="43.550281" lon="-7.044334">
        <ele>15.642</ele>
        <time>2019-06-19T13:44:22Z</time>
      </trkpt>
      <trkpt lat="43.550397" lon="-7.044229">
        <ele>15.726</ele>
        <time>2019-06-19T13:44:23Z</time>
      </trkpt>
      <trkpt lat="43.550519" lon="-7.044121">
        <ele>16.057</ele>
        <time>2019-06-19T13:44:24Z</time>
      </trkpt>
      <trkpt lat="43.550639" lon="-7.044019">
        <ele>17.470</ele>
        <time>2019-06-19T13:44:25Z</time>
      </trkpt>
      <trkpt lat="43.550767" lon="-7.043922">
        <ele>18.690</ele>
        <time>2019-06-19T13:44:26Z</time>
      </trkpt>
      <trkpt lat="43.550897" lon="-7.043839">
        <ele>19.126</ele>
        <time>2019-06-19T13:44:27Z</time>
      </trkpt>
      <trkpt lat="43.551021" lon="-7.043744">
        <ele>19.274</ele>
        <time>2019-06-19T13:44:28Z</time>
      </trkpt>
      <trkpt lat="43.551149" lon="-7.043648">
        <ele>19.084</ele>
        <time>2019-06-19T13:44:29Z</time>
      </trkpt>
      <trkpt lat="43.551273" lon="-7.043545">
        <ele>19.186</ele>
        <time>2019-06-19T13:44:30Z</time>
      </trkpt>
      <trkpt lat="43.551400" lon="-7.043425">
        <ele>19.160</ele>
        <time>2019-06-19T13:44:31Z</time>
      </trkpt>
      <trkpt lat="43.551523" lon="-7.043296">
        <ele>19.926</ele>
        <time>2019-06-19T13:44:32Z</time>
      </trkpt>
      <trkpt lat="43.551649" lon="-7.043176">
        <ele>20.308</ele>
        <time>2019-06-19T13:44:33Z</time>
      </trkpt>
      <trkpt lat="43.551759" lon="-7.043073">
        <ele>20.771</ele>
        <time>2019-06-19T13:44:34Z</time>
      </trkpt>
      <trkpt lat="43.551878" lon="-7.042981">
        <ele>21.375</ele>
        <time>2019-06-19T13:44:35Z</time>
      </trkpt>
      <trkpt lat="43.551997" lon="-7.042895">
        <ele>21.226</ele>
        <time>2019-06-19T13:44:36Z</time>
      </trkpt>
      <trkpt lat="43.552120" lon="-7.042832">
        <ele>20.619</ele>
        <time>2019-06-19T13:44:37Z</time>
      </trkpt>
      <trkpt lat="43.552249" lon="-7.042787">
        <ele>19.959</ele>
        <time>2019-06-19T13:44:38Z</time>
      </trkpt>
      <trkpt lat="43.552378" lon="-7.042772">
        <ele>19.495</ele>
        <time>2019-06-19T13:44:39Z</time>
      </trkpt>
      <trkpt lat="43.552509" lon="-7.042765">
        <ele>19.073</ele>
        <time>2019-06-19T13:44:40Z</time>
      </trkpt>
      <trkpt lat="43.552638" lon="-7.042771">
        <ele>18.523</ele>
        <time>2019-06-19T13:44:41Z</time>
      </trkpt>
      <trkpt lat="43.552769" lon="-7.042766">
        <ele>18.099</ele>
        <time>2019-06-19T13:44:42Z</time>
      </trkpt>
      <trkpt lat="43.552900" lon="-7.042747">
        <ele>17.107</ele>
        <time>2019-06-19T13:44:43Z</time>
      </trkpt>
      <trkpt lat="43.553012" lon="-7.042723">
        <ele>16.327</ele>
        <time>2019-06-19T13:44:44Z</time>
      </trkpt>
      <trkpt lat="43.553131" lon="-7.042699">
        <ele>15.808</ele>
        <time>2019-06-19T13:44:45Z</time>
      </trkpt>
      <trkpt lat="43.553227" lon="-7.042672">
        <ele>15.392</ele>
        <time>2019-06-19T13:44:46Z</time>
      </trkpt>
      <trkpt lat="43.553330" lon="-7.042665">
        <ele>14.816</ele>
        <time>2019-06-19T13:44:47Z</time>
      </trkpt>
      <trkpt lat="43.553375" lon="-7.042655">
        <ele>14.767</ele>
        <time>2019-06-19T13:44:48Z</time>
      </trkpt>
      <trkpt lat="43.553464" lon="-7.042648">
        <ele>14.890</ele>
        <time>2019-06-19T13:44:49Z</time>
      </trkpt>
      <trkpt lat="43.553556" lon="-7.042642">
        <ele>14.910</ele>
        <time>2019-06-19T13:44:50Z</time>
      </trkpt>
      <trkpt lat="43.553677" lon="-7.042642">
        <ele>15.076</ele>
        <time>2019-06-19T13:44:51Z</time>
      </trkpt>
      <trkpt lat="43.553809" lon="-7.042642">
        <ele>15.014</ele>
        <time>2019-06-19T13:44:52Z</time>
      </trkpt>
      <trkpt lat="43.553937" lon="-7.042636">
        <ele>15.214</ele>
        <time>2019-06-19T13:44:53Z</time>
      </trkpt>
      <trkpt lat="43.554052" lon="-7.042629">
        <ele>15.884</ele>
        <time>2019-06-19T13:44:54Z</time>
      </trkpt>
      <trkpt lat="43.554181" lon="-7.042623">
        <ele>16.507</ele>
        <time>2019-06-19T13:44:55Z</time>
      </trkpt>
      <trkpt lat="43.554315" lon="-7.042618">
        <ele>16.717</ele>
        <time>2019-06-19T13:44:56Z</time>
      </trkpt>
      <trkpt lat="43.554433" lon="-7.042615">
        <ele>17.008</ele>
        <time>2019-06-19T13:44:57Z</time>
      </trkpt>
      <trkpt lat="43.554544" lon="-7.042606">
        <ele>16.471</ele>
        <time>2019-06-19T13:44:58Z</time>
      </trkpt>
      <trkpt lat="43.554648" lon="-7.042588">
        <ele>15.875</ele>
        <time>2019-06-19T13:44:59Z</time>
      </trkpt>
      <trkpt lat="43.554742" lon="-7.042561">
        <ele>15.236</ele>
        <time>2019-06-19T13:45:00Z</time>
      </trkpt>
      <trkpt lat="43.554814" lon="-7.042523">
        <ele>14.889</ele>
        <time>2019-06-19T13:45:01Z</time>
      </trkpt>
      <trkpt lat="43.554867" lon="-7.042481">
        <ele>14.399</ele>
        <time>2019-06-19T13:45:02Z</time>
      </trkpt>
      <trkpt lat="43.554917" lon="-7.042442">
        <ele>13.815</ele>
        <time>2019-06-19T13:45:03Z</time>
      </trkpt>
      <trkpt lat="43.554956" lon="-7.042409">
        <ele>13.363</ele>
        <time>2019-06-19T13:45:04Z</time>
      </trkpt>
      <trkpt lat="43.555000" lon="-7.042384">
        <ele>12.713</ele>
        <time>2019-06-19T13:45:05Z</time>
      </trkpt>
      <trkpt lat="43.555058" lon="-7.042361">
        <ele>11.823</ele>
        <time>2019-06-19T13:45:07Z</time>
      </trkpt>
      <trkpt lat="43.555113" lon="-7.042343">
        <ele>10.883</ele>
        <time>2019-06-19T13:45:09Z</time>
      </trkpt>
      <trkpt lat="43.555181" lon="-7.042309">
        <ele>9.311</ele>
        <time>2019-06-19T13:45:11Z</time>
      </trkpt>
      <trkpt lat="43.555246" lon="-7.042262">
        <ele>7.408</ele>
        <time>2019-06-19T13:45:13Z</time>
      </trkpt>
      <trkpt lat="43.555277" lon="-7.042208">
        <ele>5.935</ele>
        <time>2019-06-19T13:45:14Z</time>
      </trkpt>
      <trkpt lat="43.555322" lon="-7.042129">
        <ele>4.729</ele>
        <time>2019-06-19T13:45:16Z</time>
      </trkpt>
      <trkpt lat="43.555316" lon="-7.042041">
        <ele>3.910</ele>
        <time>2019-06-19T13:45:19Z</time>
      </trkpt>
      <trkpt lat="43.555328" lon="-7.041978">
        <ele>3.263</ele>
        <time>2019-06-19T13:45:21Z</time>
      </trkpt>
      <trkpt lat="43.555334" lon="-7.041914">
        <ele>2.753</ele>
        <time>2019-06-19T13:45:24Z</time>
      </trkpt>
      <trkpt lat="43.555298" lon="-7.041869">
        <ele>2.769</ele>
        <time>2019-06-19T13:45:37Z</time>
      </trkpt>
      <trkpt lat="43.555334" lon="-7.041909">
        <ele>2.757</ele>
        <time>2019-06-19T13:47:53Z</time>
      </trkpt>
      <trkpt lat="43.555288" lon="-7.041938">
        <ele>2.997</ele>
        <time>2019-06-19T13:48:49Z</time>
      </trkpt>
      <trkpt lat="43.555390" lon="-7.041934">
        <ele>2.698</ele>
        <time>2019-06-19T13:55:02Z</time>
      </trkpt>
      <trkpt lat="43.555332" lon="-7.041972">
        <ele>3.115</ele>
        <time>2019-06-19T13:59:28Z</time>
      </trkpt>
      <trkpt lat="43.555301" lon="-7.042018">
        <ele>3.726</ele>
        <time>2019-06-19T13:59:29Z</time>
      </trkpt>
      <trkpt lat="43.555270" lon="-7.042091">
        <ele>4.708</ele>
        <time>2019-06-19T13:59:30Z</time>
      </trkpt>
      <trkpt lat="43.555240" lon="-7.042175">
        <ele>6.272</ele>
        <time>2019-06-19T13:59:31Z</time>
      </trkpt>
      <trkpt lat="43.555215" lon="-7.042255">
        <ele>7.846</ele>
        <time>2019-06-19T13:59:32Z</time>
      </trkpt>
      <trkpt lat="43.555172" lon="-7.042296">
        <ele>9.217</ele>
        <time>2019-06-19T13:59:33Z</time>
      </trkpt>
      <trkpt lat="43.555126" lon="-7.042330">
        <ele>10.440</ele>
        <time>2019-06-19T13:59:34Z</time>
      </trkpt>
      <trkpt lat="43.555090" lon="-7.042368">
        <ele>11.580</ele>
        <time>2019-06-19T13:59:35Z</time>
      </trkpt>
      <trkpt lat="43.555041" lon="-7.042377">
        <ele>12.216</ele>
        <time>2019-06-19T13:59:36Z</time>
      </trkpt>
      <trkpt lat="43.554987" lon="-7.042408">
        <ele>13.134</ele>
        <time>2019-06-19T13:59:37Z</time>
      </trkpt>
      <trkpt lat="43.554941" lon="-7.042435">
        <ele>13.684</ele>
        <time>2019-06-19T13:59:38Z</time>
      </trkpt>
      <trkpt lat="43.554867" lon="-7.042488">
        <ele>14.421</ele>
        <time>2019-06-19T13:59:40Z</time>
      </trkpt>
      <trkpt lat="43.554824" lon="-7.042512">
        <ele>14.741</ele>
        <time>2019-06-19T13:59:41Z</time>
      </trkpt>
      <trkpt lat="43.554770" lon="-7.042539">
        <ele>15.005</ele>
        <time>2019-06-19T13:59:42Z</time>
      </trkpt>
      <trkpt lat="43.554706" lon="-7.042569">
        <ele>15.408</ele>
        <time>2019-06-19T13:59:43Z</time>
      </trkpt>
      <trkpt lat="43.554626" lon="-7.042598">
        <ele>15.915</ele>
        <time>2019-06-19T13:59:44Z</time>
      </trkpt>
      <trkpt lat="43.554522" lon="-7.042605">
        <ele>16.559</ele>
        <time>2019-06-19T13:59:45Z</time>
      </trkpt>
      <trkpt lat="43.554439" lon="-7.042601">
        <ele>17.070</ele>
        <time>2019-06-19T13:59:46Z</time>
      </trkpt>
      <trkpt lat="43.554356" lon="-7.042601">
        <ele>16.823</ele>
        <time>2019-06-19T13:59:47Z</time>
      </trkpt>
      <trkpt lat="43.554285" lon="-7.042605">
        <ele>16.653</ele>
        <time>2019-06-19T13:59:48Z</time>
      </trkpt>
      <trkpt lat="43.554218" lon="-7.042616">
        <ele>16.579</ele>
        <time>2019-06-19T13:59:49Z</time>
      </trkpt>
      <trkpt lat="43.554157" lon="-7.042619">
        <ele>16.417</ele>
        <time>2019-06-19T13:59:50Z</time>
      </trkpt>
      <trkpt lat="43.554086" lon="-7.042624">
        <ele>16.027</ele>
        <time>2019-06-19T13:59:51Z</time>
      </trkpt>
      <trkpt lat="43.554014" lon="-7.042628">
        <ele>15.635</ele>
        <time>2019-06-19T13:59:52Z</time>
      </trkpt>
      <trkpt lat="43.553953" lon="-7.042640">
        <ele>15.486</ele>
        <time>2019-06-19T13:59:53Z</time>
      </trkpt>
      <trkpt lat="43.553894" lon="-7.042645">
        <ele>15.114</ele>
        <time>2019-06-19T13:59:54Z</time>
      </trkpt>
      <trkpt lat="43.553829" lon="-7.042650">
        <ele>15.108</ele>
        <time>2019-06-19T13:59:55Z</time>
      </trkpt>
      <trkpt lat="43.553774" lon="-7.042651">
        <ele>15.156</ele>
        <time>2019-06-19T13:59:56Z</time>
      </trkpt>
      <trkpt lat="43.553717" lon="-7.042662">
        <ele>15.280</ele>
        <time>2019-06-19T13:59:57Z</time>
      </trkpt>
      <trkpt lat="43.553660" lon="-7.042670">
        <ele>15.251</ele>
        <time>2019-06-19T13:59:58Z</time>
      </trkpt>
      <trkpt lat="43.553599" lon="-7.042671">
        <ele>15.214</ele>
        <time>2019-06-19T13:59:59Z</time>
      </trkpt>
      <trkpt lat="43.553546" lon="-7.042678">
        <ele>15.294</ele>
        <time>2019-06-19T14:00:00Z</time>
      </trkpt>
      <trkpt lat="43.553478" lon="-7.042683">
        <ele>15.250</ele>
        <time>2019-06-19T14:00:01Z</time>
      </trkpt>
      <trkpt lat="43.553419" lon="-7.042685">
        <ele>15.158</ele>
        <time>2019-06-19T14:00:02Z</time>
      </trkpt>
      <trkpt lat="43.553358" lon="-7.042684">
        <ele>15.088</ele>
        <time>2019-06-19T14:00:03Z</time>
      </trkpt>
      <trkpt lat="43.553302" lon="-7.042677">
        <ele>15.084</ele>
        <time>2019-06-19T14:00:04Z</time>
      </trkpt>
      <trkpt lat="43.553249" lon="-7.042676">
        <ele>15.207</ele>
        <time>2019-06-19T14:00:05Z</time>
      </trkpt>
      <trkpt lat="43.553192" lon="-7.042683">
        <ele>15.517</ele>
        <time>2019-06-19T14:00:06Z</time>
      </trkpt>
      <trkpt lat="43.553130" lon="-7.042695">
        <ele>15.808</ele>
        <time>2019-06-19T14:00:07Z</time>
      </trkpt>
      <trkpt lat="43.553057" lon="-7.042718">
        <ele>16.091</ele>
        <time>2019-06-19T14:00:08Z</time>
      </trkpt>
      <trkpt lat="43.552979" lon="-7.042747">
        <ele>16.635</ele>
        <time>2019-06-19T14:00:09Z</time>
      </trkpt>
      <trkpt lat="43.552885" lon="-7.042766">
        <ele>17.236</ele>
        <time>2019-06-19T14:00:10Z</time>
      </trkpt>
      <trkpt lat="43.552781" lon="-7.042779">
        <ele>18.059</ele>
        <time>2019-06-19T14:00:11Z</time>
      </trkpt>
      <trkpt lat="43.552674" lon="-7.042787">
        <ele>18.479</ele>
        <time>2019-06-19T14:00:12Z</time>
      </trkpt>
      <trkpt lat="43.552571" lon="-7.042785">
        <ele>18.725</ele>
        <time>2019-06-19T14:00:13Z</time>
      </trkpt>
      <trkpt lat="43.552468" lon="-7.042783">
        <ele>19.153</ele>
        <time>2019-06-19T14:00:14Z</time>
      </trkpt>
      <trkpt lat="43.552362" lon="-7.042788">
        <ele>19.513</ele>
        <time>2019-06-19T14:00:15Z</time>
      </trkpt>
      <trkpt lat="43.552256" lon="-7.042805">
        <ele>20.064</ele>
        <time>2019-06-19T14:00:16Z</time>
      </trkpt>
      <trkpt lat="43.552154" lon="-7.042837">
        <ele>20.506</ele>
        <time>2019-06-19T14:00:17Z</time>
      </trkpt>
      <trkpt lat="43.552051" lon="-7.042888">
        <ele>21.016</ele>
        <time>2019-06-19T14:00:18Z</time>
      </trkpt>
      <trkpt lat="43.551949" lon="-7.042951">
        <ele>21.608</ele>
        <time>2019-06-19T14:00:19Z</time>
      </trkpt>
      <trkpt lat="43.551850" lon="-7.043022">
        <ele>21.239</ele>
        <time>2019-06-19T14:00:20Z</time>
      </trkpt>
      <trkpt lat="43.551753" lon="-7.043103">
        <ele>20.813</ele>
        <time>2019-06-19T14:00:21Z</time>
      </trkpt>
      <trkpt lat="43.551662" lon="-7.043189">
        <ele>20.544</ele>
        <time>2019-06-19T14:00:22Z</time>
      </trkpt>
      <trkpt lat="43.551570" lon="-7.043279">
        <ele>20.227</ele>
        <time>2019-06-19T14:00:23Z</time>
      </trkpt>
      <trkpt lat="43.551483" lon="-7.043364">
        <ele>19.737</ele>
        <time>2019-06-19T14:00:24Z</time>
      </trkpt>
      <trkpt lat="43.551398" lon="-7.043446">
        <ele>19.163</ele>
        <time>2019-06-19T14:00:25Z</time>
      </trkpt>
      <trkpt lat="43.551309" lon="-7.043533">
        <ele>19.191</ele>
        <time>2019-06-19T14:00:26Z</time>
      </trkpt>
      <trkpt lat="43.551214" lon="-7.043613">
        <ele>19.051</ele>
        <time>2019-06-19T14:00:27Z</time>
      </trkpt>
      <trkpt lat="43.551115" lon="-7.043690">
        <ele>19.093</ele>
        <time>2019-06-19T14:00:28Z</time>
      </trkpt>
      <trkpt lat="43.551018" lon="-7.043760">
        <ele>19.265</ele>
        <time>2019-06-19T14:00:29Z</time>
      </trkpt>
      <trkpt lat="43.550923" lon="-7.043823">
        <ele>19.221</ele>
        <time>2019-06-19T14:00:30Z</time>
      </trkpt>
      <trkpt lat="43.550826" lon="-7.043889">
        <ele>18.908</ele>
        <time>2019-06-19T14:00:31Z</time>
      </trkpt>
      <trkpt lat="43.550735" lon="-7.043951">
        <ele>18.462</ele>
        <time>2019-06-19T14:00:32Z</time>
      </trkpt>
      <trkpt lat="43.550639" lon="-7.044019">
        <ele>17.496</ele>
        <time>2019-06-19T14:00:33Z</time>
      </trkpt>
      <trkpt lat="43.550539" lon="-7.044095">
        <ele>16.297</ele>
        <time>2019-06-19T14:00:34Z</time>
      </trkpt>
      <trkpt lat="43.550445" lon="-7.044176">
        <ele>15.630</ele>
        <time>2019-06-19T14:00:35Z</time>
      </trkpt>
      <trkpt lat="43.550347" lon="-7.044259">
        <ele>15.670</ele>
        <time>2019-06-19T14:00:36Z</time>
      </trkpt>
      <trkpt lat="43.550258" lon="-7.044347">
        <ele>15.716</ele>
        <time>2019-06-19T14:00:37Z</time>
      </trkpt>
      <trkpt lat="43.550167" lon="-7.044423">
        <ele>16.094</ele>
        <time>2019-06-19T14:00:38Z</time>
      </trkpt>
      <trkpt lat="43.550075" lon="-7.044506">
        <ele>16.284</ele>
        <time>2019-06-19T14:00:39Z</time>
      </trkpt>
      <trkpt lat="43.549979" lon="-7.044582">
        <ele>16.617</ele>
        <time>2019-06-19T14:00:40Z</time>
      </trkpt>
      <trkpt lat="43.549893" lon="-7.044660">
        <ele>17.287</ele>
        <time>2019-06-19T14:00:41Z</time>
      </trkpt>
      <trkpt lat="43.549793" lon="-7.044738">
        <ele>17.815</ele>
        <time>2019-06-19T14:00:42Z</time>
      </trkpt>
      <trkpt lat="43.549699" lon="-7.044809">
        <ele>18.108</ele>
        <time>2019-06-19T14:00:43Z</time>
      </trkpt>
      <trkpt lat="43.549607" lon="-7.044883">
        <ele>18.414</ele>
        <time>2019-06-19T14:00:44Z</time>
      </trkpt>
      <trkpt lat="43.549510" lon="-7.044953">
        <ele>18.898</ele>
        <time>2019-06-19T14:00:45Z</time>
      </trkpt>
      <trkpt lat="43.549414" lon="-7.045030">
        <ele>18.979</ele>
        <time>2019-06-19T14:00:46Z</time>
      </trkpt>
      <trkpt lat="43.549334" lon="-7.045094">
        <ele>18.712</ele>
        <time>2019-06-19T14:00:47Z</time>
      </trkpt>
      <trkpt lat="43.549264" lon="-7.045133">
        <ele>18.572</ele>
        <time>2019-06-19T14:00:48Z</time>
      </trkpt>
      <trkpt lat="43.549204" lon="-7.045157">
        <ele>18.458</ele>
        <time>2019-06-19T14:00:49Z</time>
      </trkpt>
      <trkpt lat="43.549156" lon="-7.045159">
        <ele>18.496</ele>
        <time>2019-06-19T14:00:50Z</time>
      </trkpt>
      <trkpt lat="43.549085" lon="-7.045175">
        <ele>18.346</ele>
        <time>2019-06-19T14:00:52Z</time>
      </trkpt>
      <trkpt lat="43.549057" lon="-7.045283">
        <ele>18.078</ele>
        <time>2019-06-19T14:00:54Z</time>
      </trkpt>
      <trkpt lat="43.549062" lon="-7.045372">
        <ele>17.433</ele>
        <time>2019-06-19T14:00:55Z</time>
      </trkpt>
      <trkpt lat="43.549071" lon="-7.045450">
        <ele>17.026</ele>
        <time>2019-06-19T14:00:56Z</time>
      </trkpt>
      <trkpt lat="43.549099" lon="-7.045506">
        <ele>16.608</ele>
        <time>2019-06-19T14:00:57Z</time>
      </trkpt>
      <trkpt lat="43.549123" lon="-7.045582">
        <ele>16.130</ele>
        <time>2019-06-19T14:01:01Z</time>
      </trkpt>
      <trkpt lat="43.549154" lon="-7.045669">
        <ele>15.684</ele>
        <time>2019-06-19T14:01:31Z</time>
      </trkpt>
      <trkpt lat="43.549181" lon="-7.045835">
        <ele>15.015</ele>
        <time>2019-06-19T14:01:32Z</time>
      </trkpt>
      <trkpt lat="43.549207" lon="-7.045940">
        <ele>15.088</ele>
        <time>2019-06-19T14:01:33Z</time>
      </trkpt>
      <trkpt lat="43.549244" lon="-7.046057">
        <ele>15.098</ele>
        <time>2019-06-19T14:01:34Z</time>
      </trkpt>
      <trkpt lat="43.549322" lon="-7.046160">
        <ele>15.334</ele>
        <time>2019-06-19T14:01:35Z</time>
      </trkpt>
      <trkpt lat="43.549334" lon="-7.046319">
        <ele>16.042</ele>
        <time>2019-06-19T14:01:36Z</time>
      </trkpt>
      <trkpt lat="43.549378" lon="-7.046459">
        <ele>16.772</ele>
        <time>2019-06-19T14:01:37Z</time>
      </trkpt>
      <trkpt lat="43.549434" lon="-7.046579">
        <ele>17.484</ele>
        <time>2019-06-19T14:01:38Z</time>
      </trkpt>
      <trkpt lat="43.549475" lon="-7.046685">
        <ele>17.807</ele>
        <time>2019-06-19T14:01:39Z</time>
      </trkpt>
      <trkpt lat="43.549546" lon="-7.046767">
        <ele>17.617</ele>
        <time>2019-06-19T14:01:40Z</time>
      </trkpt>
      <trkpt lat="43.549583" lon="-7.046840">
        <ele>17.608</ele>
        <time>2019-06-19T14:01:41Z</time>
      </trkpt>
      <trkpt lat="43.549623" lon="-7.046889">
        <ele>17.521</ele>
        <time>2019-06-19T14:01:42Z</time>
      </trkpt>
      <trkpt lat="43.549664" lon="-7.046937">
        <ele>17.465</ele>
        <time>2019-06-19T14:01:44Z</time>
      </trkpt>
      <trkpt lat="43.549692" lon="-7.046986">
        <ele>17.116</ele>
        <time>2019-06-19T14:01:48Z</time>
      </trkpt>
      <trkpt lat="43.549690" lon="-7.047092">
        <ele>16.799</ele>
        <time>2019-06-19T14:03:02Z</time>
      </trkpt>
      <trkpt lat="43.549639" lon="-7.047173">
        <ele>16.879</ele>
        <time>2019-06-19T14:03:03Z</time>
      </trkpt>
      <trkpt lat="43.549590" lon="-7.047255">
        <ele>16.895</ele>
        <time>2019-06-19T14:03:04Z</time>
      </trkpt>
      <trkpt lat="43.549537" lon="-7.047350">
        <ele>16.623</ele>
        <time>2019-06-19T14:03:05Z</time>
      </trkpt>
      <trkpt lat="43.549477" lon="-7.047456">
        <ele>16.233</ele>
        <time>2019-06-19T14:03:06Z</time>
      </trkpt>
      <trkpt lat="43.549414" lon="-7.047572">
        <ele>16.022</ele>
        <time>2019-06-19T14:03:07Z</time>
      </trkpt>
      <trkpt lat="43.549345" lon="-7.047700">
        <ele>16.062</ele>
        <time>2019-06-19T14:03:08Z</time>
      </trkpt>
      <trkpt lat="43.549271" lon="-7.047833">
        <ele>16.308</ele>
        <time>2019-06-19T14:03:09Z</time>
      </trkpt>
      <trkpt lat="43.549193" lon="-7.047979">
        <ele>16.908</ele>
        <time>2019-06-19T14:03:10Z</time>
      </trkpt>
      <trkpt lat="43.549115" lon="-7.048123">
        <ele>17.615</ele>
        <time>2019-06-19T14:03:11Z</time>
      </trkpt>
      <trkpt lat="43.549036" lon="-7.048264">
        <ele>18.389</ele>
        <time>2019-06-19T14:03:12Z</time>
      </trkpt>
      <trkpt lat="43.548957" lon="-7.048408">
        <ele>19.110</ele>
        <time>2019-06-19T14:03:13Z</time>
      </trkpt>
      <trkpt lat="43.548879" lon="-7.048553">
        <ele>19.843</ele>
        <time>2019-06-19T14:03:14Z</time>
      </trkpt>
      <trkpt lat="43.548802" lon="-7.048690">
        <ele>20.583</ele>
        <time>2019-06-19T14:03:15Z</time>
      </trkpt>
      <trkpt lat="43.548733" lon="-7.048821">
        <ele>20.939</ele>
        <time>2019-06-19T14:03:16Z</time>
      </trkpt>
      <trkpt lat="43.548668" lon="-7.048949">
        <ele>21.257</ele>
        <time>2019-06-19T14:03:17Z</time>
      </trkpt>
      <trkpt lat="43.548611" lon="-7.049066">
        <ele>21.697</ele>
        <time>2019-06-19T14:03:18Z</time>
      </trkpt>
      <trkpt lat="43.548553" lon="-7.049182">
        <ele>22.257</ele>
        <time>2019-06-19T14:03:19Z</time>
      </trkpt>
      <trkpt lat="43.548481" lon="-7.049300">
        <ele>22.500</ele>
        <time>2019-06-19T14:03:20Z</time>
      </trkpt>
      <trkpt lat="43.548413" lon="-7.049418">
        <ele>22.720</ele>
        <time>2019-06-19T14:03:21Z</time>
      </trkpt>
      <trkpt lat="43.548328" lon="-7.049536">
        <ele>22.708</ele>
        <time>2019-06-19T14:03:22Z</time>
      </trkpt>
      <trkpt lat="43.548238" lon="-7.049665">
        <ele>22.288</ele>
        <time>2019-06-19T14:03:23Z</time>
      </trkpt>
      <trkpt lat="43.548151" lon="-7.049789">
        <ele>22.062</ele>
        <time>2019-06-19T14:03:24Z</time>
      </trkpt>
      <trkpt lat="43.548057" lon="-7.049903">
        <ele>22.043</ele>
        <time>2019-06-19T14:03:25Z</time>
      </trkpt>
      <trkpt lat="43.547956" lon="-7.050009">
        <ele>22.046</ele>
        <time>2019-06-19T14:03:26Z</time>
      </trkpt>
      <trkpt lat="43.547850" lon="-7.050107">
        <ele>22.056</ele>
        <time>2019-06-19T14:03:27Z</time>
      </trkpt>
      <trkpt lat="43.547741" lon="-7.050202">
        <ele>22.162</ele>
        <time>2019-06-19T14:03:28Z</time>
      </trkpt>
      <trkpt lat="43.547630" lon="-7.050288">
        <ele>22.570</ele>
        <time>2019-06-19T14:03:29Z</time>
      </trkpt>
      <trkpt lat="43.547528" lon="-7.050375">
        <ele>22.960</ele>
        <time>2019-06-19T14:03:30Z</time>
      </trkpt>
      <trkpt lat="43.547431" lon="-7.050462">
        <ele>23.271</ele>
        <time>2019-06-19T14:03:31Z</time>
      </trkpt>
      <trkpt lat="43.547332" lon="-7.050541">
        <ele>23.641</ele>
        <time>2019-06-19T14:03:32Z</time>
      </trkpt>
      <trkpt lat="43.547239" lon="-7.050615">
        <ele>24.015</ele>
        <time>2019-06-19T14:03:33Z</time>
      </trkpt>
      <trkpt lat="43.547156" lon="-7.050689">
        <ele>24.008</ele>
        <time>2019-06-19T14:03:34Z</time>
      </trkpt>
      <trkpt lat="43.547079" lon="-7.050755">
        <ele>24.020</ele>
        <time>2019-06-19T14:03:35Z</time>
      </trkpt>
      <trkpt lat="43.547012" lon="-7.050819">
        <ele>24.034</ele>
        <time>2019-06-19T14:03:36Z</time>
      </trkpt>
      <trkpt lat="43.546942" lon="-7.050891">
        <ele>24.285</ele>
        <time>2019-06-19T14:03:37Z</time>
      </trkpt>
      <trkpt lat="43.546894" lon="-7.050938">
        <ele>24.638</ele>
        <time>2019-06-19T14:03:38Z</time>
      </trkpt>
      <trkpt lat="43.546888" lon="-7.051000">
        <ele>24.838</ele>
        <time>2019-06-19T14:03:40Z</time>
      </trkpt>
      <trkpt lat="43.546885" lon="-7.051082">
        <ele>25.174</ele>
        <time>2019-06-19T14:03:41Z</time>
      </trkpt>
      <trkpt lat="43.546886" lon="-7.051194">
        <ele>25.322</ele>
        <time>2019-06-19T14:03:42Z</time>
      </trkpt>
      <trkpt lat="43.546916" lon="-7.051354">
        <ele>25.272</ele>
        <time>2019-06-19T14:03:43Z</time>
      </trkpt>
      <trkpt lat="43.546936" lon="-7.051499">
        <ele>25.168</ele>
        <time>2019-06-19T14:03:44Z</time>
      </trkpt>
      <trkpt lat="43.546974" lon="-7.051649">
        <ele>25.242</ele>
        <time>2019-06-19T14:03:45Z</time>
      </trkpt>
      <trkpt lat="43.547033" lon="-7.051809">
        <ele>25.526</ele>
        <time>2019-06-19T14:03:46Z</time>
      </trkpt>
      <trkpt lat="43.547121" lon="-7.051960">
        <ele>25.708</ele>
        <time>2019-06-19T14:03:47Z</time>
      </trkpt>
      <trkpt lat="43.547206" lon="-7.052094">
        <ele>26.069</ele>
        <time>2019-06-19T14:03:48Z</time>
      </trkpt>
      <trkpt lat="43.547315" lon="-7.052223">
        <ele>26.733</ele>
        <time>2019-06-19T14:03:49Z</time>
      </trkpt>
      <trkpt lat="43.547421" lon="-7.052349">
        <ele>27.274</ele>
        <time>2019-06-19T14:03:50Z</time>
      </trkpt>
      <trkpt lat="43.547528" lon="-7.052467">
        <ele>27.267</ele>
        <time>2019-06-19T14:03:51Z</time>
      </trkpt>
      <trkpt lat="43.547627" lon="-7.052594">
        <ele>27.367</ele>
        <time>2019-06-19T14:03:52Z</time>
      </trkpt>
      <trkpt lat="43.547724" lon="-7.052736">
        <ele>27.123</ele>
        <time>2019-06-19T14:03:53Z</time>
      </trkpt>
      <trkpt lat="43.547826" lon="-7.052890">
        <ele>26.781</ele>
        <time>2019-06-19T14:03:54Z</time>
      </trkpt>
      <trkpt lat="43.547920" lon="-7.053056">
        <ele>26.591</ele>
        <time>2019-06-19T14:03:55Z</time>
      </trkpt>
      <trkpt lat="43.548012" lon="-7.053224">
        <ele>26.797</ele>
        <time>2019-06-19T14:03:56Z</time>
      </trkpt>
      <trkpt lat="43.548101" lon="-7.053392">
        <ele>27.223</ele>
        <time>2019-06-19T14:03:57Z</time>
      </trkpt>
      <trkpt lat="43.548190" lon="-7.053564">
        <ele>27.525</ele>
        <time>2019-06-19T14:03:58Z</time>
      </trkpt>
      <trkpt lat="43.548282" lon="-7.053741">
        <ele>27.808</ele>
        <time>2019-06-19T14:03:59Z</time>
      </trkpt>
      <trkpt lat="43.548372" lon="-7.053917">
        <ele>27.972</ele>
        <time>2019-06-19T14:04:00Z</time>
      </trkpt>
      <trkpt lat="43.548467" lon="-7.054089">
        <ele>27.336</ele>
        <time>2019-06-19T14:04:01Z</time>
      </trkpt>
      <trkpt lat="43.548545" lon="-7.054248">
        <ele>27.137</ele>
        <time>2019-06-19T14:04:02Z</time>
      </trkpt>
      <trkpt lat="43.548623" lon="-7.054413">
        <ele>27.020</ele>
        <time>2019-06-19T14:04:03Z</time>
      </trkpt>
      <trkpt lat="43.548699" lon="-7.054579">
        <ele>26.740</ele>
        <time>2019-06-19T14:04:04Z</time>
      </trkpt>
      <trkpt lat="43.548790" lon="-7.054743">
        <ele>26.356</ele>
        <time>2019-06-19T14:04:05Z</time>
      </trkpt>
      <trkpt lat="43.548882" lon="-7.054906">
        <ele>26.014</ele>
        <time>2019-06-19T14:04:06Z</time>
      </trkpt>
      <trkpt lat="43.548977" lon="-7.055061">
        <ele>25.224</ele>
        <time>2019-06-19T14:04:07Z</time>
      </trkpt>
      <trkpt lat="43.549062" lon="-7.055228">
        <ele>23.715</ele>
        <time>2019-06-19T14:04:08Z</time>
      </trkpt>
      <trkpt lat="43.549144" lon="-7.055385">
        <ele>22.765</ele>
        <time>2019-06-19T14:04:09Z</time>
      </trkpt>
      <trkpt lat="43.549227" lon="-7.055539">
        <ele>22.111</ele>
        <time>2019-06-19T14:04:10Z</time>
      </trkpt>
      <trkpt lat="43.549307" lon="-7.055695">
        <ele>22.308</ele>
        <time>2019-06-19T14:04:11Z</time>
      </trkpt>
      <trkpt lat="43.549389" lon="-7.055854">
        <ele>22.864</ele>
        <time>2019-06-19T14:04:12Z</time>
      </trkpt>
      <trkpt lat="43.549468" lon="-7.055993">
        <ele>23.198</ele>
        <time>2019-06-19T14:04:13Z</time>
      </trkpt>
      <trkpt lat="43.549545" lon="-7.056134">
        <ele>23.839</ele>
        <time>2019-06-19T14:04:14Z</time>
      </trkpt>
      <trkpt lat="43.549601" lon="-7.056294">
        <ele>24.462</ele>
        <time>2019-06-19T14:04:15Z</time>
      </trkpt>
      <trkpt lat="43.549644" lon="-7.056457">
        <ele>24.872</ele>
        <time>2019-06-19T14:04:16Z</time>
      </trkpt>
      <trkpt lat="43.549677" lon="-7.056625">
        <ele>25.018</ele>
        <time>2019-06-19T14:04:17Z</time>
      </trkpt>
      <trkpt lat="43.549701" lon="-7.056797">
        <ele>25.086</ele>
        <time>2019-06-19T14:04:18Z</time>
      </trkpt>
      <trkpt lat="43.549712" lon="-7.056969">
        <ele>25.116</ele>
        <time>2019-06-19T14:04:19Z</time>
      </trkpt>
      <trkpt lat="43.549718" lon="-7.057130">
        <ele>25.739</ele>
        <time>2019-06-19T14:04:20Z</time>
      </trkpt>
      <trkpt lat="43.549720" lon="-7.057286">
        <ele>26.001</ele>
        <time>2019-06-19T14:04:21Z</time>
      </trkpt>
      <trkpt lat="43.549724" lon="-7.057457">
        <ele>26.021</ele>
        <time>2019-06-19T14:04:22Z</time>
      </trkpt>
      <trkpt lat="43.549725" lon="-7.057607">
        <ele>26.808</ele>
        <time>2019-06-19T14:04:23Z</time>
      </trkpt>
      <trkpt lat="43.549727" lon="-7.057758">
        <ele>27.916</ele>
        <time>2019-06-19T14:04:24Z</time>
      </trkpt>
      <trkpt lat="43.549734" lon="-7.057891">
        <ele>28.450</ele>
        <time>2019-06-19T14:04:25Z</time>
      </trkpt>
      <trkpt lat="43.549749" lon="-7.058023">
        <ele>28.961</ele>
        <time>2019-06-19T14:04:26Z</time>
      </trkpt>
      <trkpt lat="43.549779" lon="-7.058158">
        <ele>29.294</ele>
        <time>2019-06-19T14:04:27Z</time>
      </trkpt>
      <trkpt lat="43.549833" lon="-7.058302">
        <ele>29.264</ele>
        <time>2019-06-19T14:04:28Z</time>
      </trkpt>
      <trkpt lat="43.549880" lon="-7.058457">
        <ele>28.240</ele>
        <time>2019-06-19T14:04:29Z</time>
      </trkpt>
      <trkpt lat="43.549931" lon="-7.058622">
        <ele>26.788</ele>
        <time>2019-06-19T14:04:30Z</time>
      </trkpt>
      <trkpt lat="43.549968" lon="-7.058782">
        <ele>25.768</ele>
        <time>2019-06-19T14:04:31Z</time>
      </trkpt>
      <trkpt lat="43.550017" lon="-7.058941">
        <ele>24.942</ele>
        <time>2019-06-19T14:04:32Z</time>
      </trkpt>
      <trkpt lat="43.550063" lon="-7.059100">
        <ele>24.922</ele>
        <time>2019-06-19T14:04:33Z</time>
      </trkpt>
      <trkpt lat="43.550108" lon="-7.059253">
        <ele>25.414</ele>
        <time>2019-06-19T14:04:34Z</time>
      </trkpt>
      <trkpt lat="43.550153" lon="-7.059404">
        <ele>26.308</ele>
        <time>2019-06-19T14:04:35Z</time>
      </trkpt>
      <trkpt lat="43.550197" lon="-7.059556">
        <ele>27.267</ele>
        <time>2019-06-19T14:04:36Z</time>
      </trkpt>
      <trkpt lat="43.550235" lon="-7.059717">
        <ele>28.071</ele>
        <time>2019-06-19T14:04:37Z</time>
      </trkpt>
      <trkpt lat="43.550272" lon="-7.059886">
        <ele>28.612</ele>
        <time>2019-06-19T14:04:38Z</time>
      </trkpt>
      <trkpt lat="43.550295" lon="-7.060063">
        <ele>28.925</ele>
        <time>2019-06-19T14:04:39Z</time>
      </trkpt>
      <trkpt lat="43.550319" lon="-7.060232">
        <ele>28.755</ele>
        <time>2019-06-19T14:04:40Z</time>
      </trkpt>
      <trkpt lat="43.550338" lon="-7.060398">
        <ele>28.721</ele>
        <time>2019-06-19T14:04:41Z</time>
      </trkpt>
      <trkpt lat="43.550351" lon="-7.060558">
        <ele>28.779</ele>
        <time>2019-06-19T14:04:42Z</time>
      </trkpt>
      <trkpt lat="43.550366" lon="-7.060715">
        <ele>29.129</ele>
        <time>2019-06-19T14:04:43Z</time>
      </trkpt>
      <trkpt lat="43.550381" lon="-7.060864">
        <ele>29.381</ele>
        <time>2019-06-19T14:04:44Z</time>
      </trkpt>
      <trkpt lat="43.550394" lon="-7.061007">
        <ele>29.461</ele>
        <time>2019-06-19T14:04:45Z</time>
      </trkpt>
      <trkpt lat="43.550414" lon="-7.061143">
        <ele>29.617</ele>
        <time>2019-06-19T14:04:46Z</time>
      </trkpt>
      <trkpt lat="43.550439" lon="-7.061276">
        <ele>29.808</ele>
        <time>2019-06-19T14:04:47Z</time>
      </trkpt>
      <trkpt lat="43.550478" lon="-7.061403">
        <ele>30.031</ele>
        <time>2019-06-19T14:04:48Z</time>
      </trkpt>
      <trkpt lat="43.550533" lon="-7.061523">
        <ele>30.075</ele>
        <time>2019-06-19T14:04:49Z</time>
      </trkpt>
      <trkpt lat="43.550605" lon="-7.061640">
        <ele>29.636</ele>
        <time>2019-06-19T14:04:50Z</time>
      </trkpt>
      <trkpt lat="43.550682" lon="-7.061757">
        <ele>29.199</ele>
        <time>2019-06-19T14:04:51Z</time>
      </trkpt>
      <trkpt lat="43.550750" lon="-7.061889">
        <ele>28.659</ele>
        <time>2019-06-19T14:04:52Z</time>
      </trkpt>
      <trkpt lat="43.550808" lon="-7.062031">
        <ele>27.935</ele>
        <time>2019-06-19T14:04:53Z</time>
      </trkpt>
      <trkpt lat="43.550876" lon="-7.062180">
        <ele>26.873</ele>
        <time>2019-06-19T14:04:54Z</time>
      </trkpt>
      <trkpt lat="43.550953" lon="-7.062336">
        <ele>26.573</ele>
        <time>2019-06-19T14:04:55Z</time>
      </trkpt>
      <trkpt lat="43.551024" lon="-7.062482">
        <ele>26.695</ele>
        <time>2019-06-19T14:04:56Z</time>
      </trkpt>
      <trkpt lat="43.551089" lon="-7.062632">
        <ele>26.249</ele>
        <time>2019-06-19T14:04:57Z</time>
      </trkpt>
      <trkpt lat="43.551145" lon="-7.062772">
        <ele>25.823</ele>
        <time>2019-06-19T14:04:58Z</time>
      </trkpt>
      <trkpt lat="43.551210" lon="-7.062915">
        <ele>25.808</ele>
        <time>2019-06-19T14:04:59Z</time>
      </trkpt>
      <trkpt lat="43.551296" lon="-7.063005">
        <ele>25.572</ele>
        <time>2019-06-19T14:05:00Z</time>
      </trkpt>
      <trkpt lat="43.551338" lon="-7.063167">
        <ele>25.036</ele>
        <time>2019-06-19T14:05:01Z</time>
      </trkpt>
      <trkpt lat="43.551408" lon="-7.063266">
        <ele>23.957</ele>
        <time>2019-06-19T14:05:02Z</time>
      </trkpt>
      <trkpt lat="43.551405" lon="-7.063436">
        <ele>23.090</ele>
        <time>2019-06-19T14:05:03Z</time>
      </trkpt>
      <trkpt lat="43.551342" lon="-7.063572">
        <ele>22.940</ele>
        <time>2019-06-19T14:05:04Z</time>
      </trkpt>
      <trkpt lat="43.551307" lon="-7.063793">
        <ele>22.336</ele>
        <time>2019-06-19T14:05:05Z</time>
      </trkpt>
      <trkpt lat="43.551291" lon="-7.063975">
        <ele>22.114</ele>
        <time>2019-06-19T14:05:06Z</time>
      </trkpt>
      <trkpt lat="43.551286" lon="-7.064166">
        <ele>22.194</ele>
        <time>2019-06-19T14:05:07Z</time>
      </trkpt>
      <trkpt lat="43.551274" lon="-7.064360">
        <ele>22.688</ele>
        <time>2019-06-19T14:05:08Z</time>
      </trkpt>
      <trkpt lat="43.551265" lon="-7.064535">
        <ele>23.124</ele>
        <time>2019-06-19T14:05:09Z</time>
      </trkpt>
      <trkpt lat="43.551252" lon="-7.064699">
        <ele>23.426</ele>
        <time>2019-06-19T14:05:10Z</time>
      </trkpt>
      <trkpt lat="43.551219" lon="-7.064850">
        <ele>24.108</ele>
        <time>2019-06-19T14:05:11Z</time>
      </trkpt>
      <trkpt lat="43.551189" lon="-7.064990">
        <ele>24.731</ele>
        <time>2019-06-19T14:05:12Z</time>
      </trkpt>
      <trkpt lat="43.551096" lon="-7.065124">
        <ele>25.565</ele>
        <time>2019-06-19T14:05:13Z</time>
      </trkpt>
      <trkpt lat="43.551022" lon="-7.065269">
        <ele>26.396</ele>
        <time>2019-06-19T14:05:14Z</time>
      </trkpt>
      <trkpt lat="43.550951" lon="-7.065402">
        <ele>26.659</ele>
        <time>2019-06-19T14:05:15Z</time>
      </trkpt>
      <trkpt lat="43.550878" lon="-7.065524">
        <ele>26.859</ele>
        <time>2019-06-19T14:05:16Z</time>
      </trkpt>
      <trkpt lat="43.550804" lon="-7.065641">
        <ele>27.135</ele>
        <time>2019-06-19T14:05:17Z</time>
      </trkpt>
      <trkpt lat="43.550733" lon="-7.065757">
        <ele>27.483</ele>
        <time>2019-06-19T14:05:18Z</time>
      </trkpt>
      <trkpt lat="43.550672" lon="-7.065880">
        <ele>27.473</ele>
        <time>2019-06-19T14:05:19Z</time>
      </trkpt>
      <trkpt lat="43.550611" lon="-7.065999">
        <ele>27.284</ele>
        <time>2019-06-19T14:05:20Z</time>
      </trkpt>
      <trkpt lat="43.550598" lon="-7.066135">
        <ele>26.807</ele>
        <time>2019-06-19T14:05:21Z</time>
      </trkpt>
      <trkpt lat="43.550584" lon="-7.066279">
        <ele>26.417</ele>
        <time>2019-06-19T14:05:22Z</time>
      </trkpt>
      <trkpt lat="43.550569" lon="-7.066434">
        <ele>25.808</ele>
        <time>2019-06-19T14:05:23Z</time>
      </trkpt>
      <trkpt lat="43.550556" lon="-7.066584">
        <ele>25.321</ele>
        <time>2019-06-19T14:05:24Z</time>
      </trkpt>
      <trkpt lat="43.550544" lon="-7.066725">
        <ele>25.075</ele>
        <time>2019-06-19T14:05:25Z</time>
      </trkpt>
      <trkpt lat="43.550534" lon="-7.066859">
        <ele>25.116</ele>
        <time>2019-06-19T14:05:26Z</time>
      </trkpt>
      <trkpt lat="43.550520" lon="-7.066988">
        <ele>25.399</ele>
        <time>2019-06-19T14:05:27Z</time>
      </trkpt>
      <trkpt lat="43.550492" lon="-7.067111">
        <ele>25.729</ele>
        <time>2019-06-19T14:05:28Z</time>
      </trkpt>
      <trkpt lat="43.550464" lon="-7.067224">
        <ele>26.035</ele>
        <time>2019-06-19T14:05:29Z</time>
      </trkpt>
      <trkpt lat="43.550394" lon="-7.067339">
        <ele>26.053</ele>
        <time>2019-06-19T14:05:30Z</time>
      </trkpt>
      <trkpt lat="43.550328" lon="-7.067459">
        <ele>26.013</ele>
        <time>2019-06-19T14:05:31Z</time>
      </trkpt>
      <trkpt lat="43.550245" lon="-7.067552">
        <ele>26.381</ele>
        <time>2019-06-19T14:05:32Z</time>
      </trkpt>
      <trkpt lat="43.550168" lon="-7.067644">
        <ele>26.761</ele>
        <time>2019-06-19T14:05:33Z</time>
      </trkpt>
      <trkpt lat="43.550088" lon="-7.067743">
        <ele>27.017</ele>
        <time>2019-06-19T14:05:34Z</time>
      </trkpt>
      <trkpt lat="43.550024" lon="-7.067846">
        <ele>27.008</ele>
        <time>2019-06-19T14:05:35Z</time>
      </trkpt>
      <trkpt lat="43.549971" lon="-7.067943">
        <ele>27.081</ele>
        <time>2019-06-19T14:05:36Z</time>
      </trkpt>
      <trkpt lat="43.549915" lon="-7.068025">
        <ele>27.045</ele>
        <time>2019-06-19T14:05:37Z</time>
      </trkpt>
      <trkpt lat="43.549869" lon="-7.068112">
        <ele>26.796</ele>
        <time>2019-06-19T14:05:38Z</time>
      </trkpt>
      <trkpt lat="43.549828" lon="-7.068195">
        <ele>26.219</ele>
        <time>2019-06-19T14:05:39Z</time>
      </trkpt>
      <trkpt lat="43.549822" lon="-7.068283">
        <ele>25.749</ele>
        <time>2019-06-19T14:05:40Z</time>
      </trkpt>
      <trkpt lat="43.549805" lon="-7.068372">
        <ele>25.215</ele>
        <time>2019-06-19T14:05:41Z</time>
      </trkpt>
      <trkpt lat="43.549804" lon="-7.068466">
        <ele>24.853</ele>
        <time>2019-06-19T14:05:42Z</time>
      </trkpt>
      <trkpt lat="43.549819" lon="-7.068565">
        <ele>24.533</ele>
        <time>2019-06-19T14:05:43Z</time>
      </trkpt>
      <trkpt lat="43.549840" lon="-7.068664">
        <ele>24.297</ele>
        <time>2019-06-19T14:05:44Z</time>
      </trkpt>
      <trkpt lat="43.549861" lon="-7.068773">
        <ele>23.623</ele>
        <time>2019-06-19T14:05:45Z</time>
      </trkpt>
      <trkpt lat="43.549875" lon="-7.068882">
        <ele>23.025</ele>
        <time>2019-06-19T14:05:46Z</time>
      </trkpt>
      <trkpt lat="43.549851" lon="-7.069007">
        <ele>22.008</ele>
        <time>2019-06-19T14:05:47Z</time>
      </trkpt>
      <trkpt lat="43.549837" lon="-7.069125">
        <ele>20.912</ele>
        <time>2019-06-19T14:05:48Z</time>
      </trkpt>
      <trkpt lat="43.549814" lon="-7.069278">
        <ele>20.136</ele>
        <time>2019-06-19T14:05:49Z</time>
      </trkpt>
      <trkpt lat="43.549788" lon="-7.069420">
        <ele>19.647</ele>
        <time>2019-06-19T14:05:50Z</time>
      </trkpt>
      <trkpt lat="43.549763" lon="-7.069572">
        <ele>18.890</ele>
        <time>2019-06-19T14:05:51Z</time>
      </trkpt>
      <trkpt lat="43.549730" lon="-7.069747">
        <ele>17.950</ele>
        <time>2019-06-19T14:05:52Z</time>
      </trkpt>
      <trkpt lat="43.549693" lon="-7.069927">
        <ele>17.546</ele>
        <time>2019-06-19T14:05:53Z</time>
      </trkpt>
      <trkpt lat="43.549648" lon="-7.070080">
        <ele>17.624</ele>
        <time>2019-06-19T14:05:54Z</time>
      </trkpt>
      <trkpt lat="43.549585" lon="-7.070239">
        <ele>18.414</ele>
        <time>2019-06-19T14:05:55Z</time>
      </trkpt>
      <trkpt lat="43.549527" lon="-7.070407">
        <ele>19.263</ele>
        <time>2019-06-19T14:05:56Z</time>
      </trkpt>
      <trkpt lat="43.549471" lon="-7.070557">
        <ele>19.844</ele>
        <time>2019-06-19T14:05:57Z</time>
      </trkpt>
      <trkpt lat="43.549414" lon="-7.070704">
        <ele>20.018</ele>
        <time>2019-06-19T14:05:58Z</time>
      </trkpt>
      <trkpt lat="43.549360" lon="-7.070853">
        <ele>20.008</ele>
        <time>2019-06-19T14:05:59Z</time>
      </trkpt>
      <trkpt lat="43.549300" lon="-7.070992">
        <ele>20.099</ele>
        <time>2019-06-19T14:06:00Z</time>
      </trkpt>
      <trkpt lat="43.549238" lon="-7.071144">
        <ele>20.023</ele>
        <time>2019-06-19T14:06:01Z</time>
      </trkpt>
      <trkpt lat="43.549179" lon="-7.071280">
        <ele>20.074</ele>
        <time>2019-06-19T14:06:02Z</time>
      </trkpt>
      <trkpt lat="43.549128" lon="-7.071414">
        <ele>19.957</ele>
        <time>2019-06-19T14:06:03Z</time>
      </trkpt>
      <trkpt lat="43.549082" lon="-7.071540">
        <ele>19.987</ele>
        <time>2019-06-19T14:06:04Z</time>
      </trkpt>
      <trkpt lat="43.549036" lon="-7.071663">
        <ele>20.093</ele>
        <time>2019-06-19T14:06:05Z</time>
      </trkpt>
      <trkpt lat="43.548990" lon="-7.071785">
        <ele>20.431</ele>
        <time>2019-06-19T14:06:06Z</time>
      </trkpt>
      <trkpt lat="43.548938" lon="-7.071904">
        <ele>20.921</ele>
        <time>2019-06-19T14:06:07Z</time>
      </trkpt>
      <trkpt lat="43.548889" lon="-7.072015">
        <ele>21.046</ele>
        <time>2019-06-19T14:06:08Z</time>
      </trkpt>
      <trkpt lat="43.548833" lon="-7.072106">
        <ele>21.088</ele>
        <time>2019-06-19T14:06:09Z</time>
      </trkpt>
      <trkpt lat="43.548762" lon="-7.072182">
        <ele>21.016</ele>
        <time>2019-06-19T14:06:10Z</time>
      </trkpt>
      <trkpt lat="43.548681" lon="-7.072237">
        <ele>21.108</ele>
        <time>2019-06-19T14:06:11Z</time>
      </trkpt>
      <trkpt lat="43.548594" lon="-7.072287">
        <ele>21.367</ele>
        <time>2019-06-19T14:06:12Z</time>
      </trkpt>
      <trkpt lat="43.548501" lon="-7.072330">
        <ele>22.031</ele>
        <time>2019-06-19T14:06:13Z</time>
      </trkpt>
      <trkpt lat="43.548410" lon="-7.072356">
        <ele>22.632</ele>
        <time>2019-06-19T14:06:14Z</time>
      </trkpt>
      <trkpt lat="43.548314" lon="-7.072372">
        <ele>23.195</ele>
        <time>2019-06-19T14:06:15Z</time>
      </trkpt>
      <trkpt lat="43.548221" lon="-7.072382">
        <ele>23.645</ele>
        <time>2019-06-19T14:06:16Z</time>
      </trkpt>
      <trkpt lat="43.548139" lon="-7.072398">
        <ele>24.191</ele>
        <time>2019-06-19T14:06:17Z</time>
      </trkpt>
      <trkpt lat="43.548058" lon="-7.072410">
        <ele>24.719</ele>
        <time>2019-06-19T14:06:18Z</time>
      </trkpt>
      <trkpt lat="43.548007" lon="-7.072462">
        <ele>25.059</ele>
        <time>2019-06-19T14:06:20Z</time>
      </trkpt>
      <trkpt lat="43.547982" lon="-7.072546">
        <ele>25.341</ele>
        <time>2019-06-19T14:06:22Z</time>
      </trkpt>
      <trkpt lat="43.547980" lon="-7.072615">
        <ele>25.381</ele>
        <time>2019-06-19T14:06:23Z</time>
      </trkpt>
      <trkpt lat="43.547985" lon="-7.072706">
        <ele>25.309</ele>
        <time>2019-06-19T14:06:24Z</time>
      </trkpt>
      <trkpt lat="43.548001" lon="-7.072812">
        <ele>25.108</ele>
        <time>2019-06-19T14:06:25Z</time>
      </trkpt>
      <trkpt lat="43.548050" lon="-7.072951">
        <ele>24.467</ele>
        <time>2019-06-19T14:06:26Z</time>
      </trkpt>
      <trkpt lat="43.548074" lon="-7.073070">
        <ele>24.131</ele>
        <time>2019-06-19T14:06:27Z</time>
      </trkpt>
      <trkpt lat="43.548093" lon="-7.073198">
        <ele>24.282</ele>
        <time>2019-06-19T14:06:28Z</time>
      </trkpt>
      <trkpt lat="43.548112" lon="-7.073324">
        <ele>24.465</ele>
        <time>2019-06-19T14:06:29Z</time>
      </trkpt>
      <trkpt lat="43.548137" lon="-7.073456">
        <ele>24.915</ele>
        <time>2019-06-19T14:06:30Z</time>
      </trkpt>
      <trkpt lat="43.548158" lon="-7.073593">
        <ele>25.351</ele>
        <time>2019-06-19T14:06:31Z</time>
      </trkpt>
      <trkpt lat="43.548193" lon="-7.073733">
        <ele>25.789</ele>
        <time>2019-06-19T14:06:32Z</time>
      </trkpt>
      <trkpt lat="43.548225" lon="-7.073865">
        <ele>26.239</ele>
        <time>2019-06-19T14:06:33Z</time>
      </trkpt>
      <trkpt lat="43.548256" lon="-7.074000">
        <ele>26.638</ele>
        <time>2019-06-19T14:06:34Z</time>
      </trkpt>
      <trkpt lat="43.548275" lon="-7.074145">
        <ele>26.870</ele>
        <time>2019-06-19T14:06:35Z</time>
      </trkpt>
      <trkpt lat="43.548308" lon="-7.074249">
        <ele>26.917</ele>
        <time>2019-06-19T14:06:36Z</time>
      </trkpt>
      <trkpt lat="43.548338" lon="-7.074357">
        <ele>27.008</ele>
        <time>2019-06-19T14:06:37Z</time>
      </trkpt>
      <trkpt lat="43.548354" lon="-7.074465">
        <ele>27.036</ele>
        <time>2019-06-19T14:06:38Z</time>
      </trkpt>
      <trkpt lat="43.548372" lon="-7.074565">
        <ele>27.080</ele>
        <time>2019-06-19T14:06:39Z</time>
      </trkpt>
      <trkpt lat="43.548392" lon="-7.074653">
        <ele>27.071</ele>
        <time>2019-06-19T14:06:40Z</time>
      </trkpt>
      <trkpt lat="43.548407" lon="-7.074740">
        <ele>27.094</ele>
        <time>2019-06-19T14:06:41Z</time>
      </trkpt>
      <trkpt lat="43.548423" lon="-7.074820">
        <ele>26.924</ele>
        <time>2019-06-19T14:06:42Z</time>
      </trkpt>
      <trkpt lat="43.548442" lon="-7.074906">
        <ele>26.730</ele>
        <time>2019-06-19T14:06:43Z</time>
      </trkpt>
      <trkpt lat="43.548458" lon="-7.074995">
        <ele>26.618</ele>
        <time>2019-06-19T14:06:44Z</time>
      </trkpt>
      <trkpt lat="43.548475" lon="-7.075085">
        <ele>26.278</ele>
        <time>2019-06-19T14:06:45Z</time>
      </trkpt>
      <trkpt lat="43.548489" lon="-7.075182">
        <ele>25.819</ele>
        <time>2019-06-19T14:06:46Z</time>
      </trkpt>
      <trkpt lat="43.548513" lon="-7.075277">
        <ele>25.409</ele>
        <time>2019-06-19T14:06:47Z</time>
      </trkpt>
      <trkpt lat="43.548528" lon="-7.075380">
        <ele>25.319</ele>
        <time>2019-06-19T14:06:48Z</time>
      </trkpt>
      <trkpt lat="43.548544" lon="-7.075470">
        <ele>25.208</ele>
        <time>2019-06-19T14:06:49Z</time>
      </trkpt>
      <trkpt lat="43.548566" lon="-7.075551">
        <ele>25.214</ele>
        <time>2019-06-19T14:06:50Z</time>
      </trkpt>
      <trkpt lat="43.548591" lon="-7.075632">
        <ele>25.178</ele>
        <time>2019-06-19T14:06:51Z</time>
      </trkpt>
      <trkpt lat="43.548611" lon="-7.075733">
        <ele>25.019</ele>
        <time>2019-06-19T14:06:52Z</time>
      </trkpt>
      <trkpt lat="43.548638" lon="-7.075830">
        <ele>25.032</ele>
        <time>2019-06-19T14:06:53Z</time>
      </trkpt>
      <trkpt lat="43.548656" lon="-7.075930">
        <ele>24.922</ele>
        <time>2019-06-19T14:06:54Z</time>
      </trkpt>
      <trkpt lat="43.548674" lon="-7.076022">
        <ele>24.898</ele>
        <time>2019-06-19T14:06:55Z</time>
      </trkpt>
      <trkpt lat="43.548696" lon="-7.076117">
        <ele>24.756</ele>
        <time>2019-06-19T14:06:56Z</time>
      </trkpt>
      <trkpt lat="43.548718" lon="-7.076221">
        <ele>24.236</ele>
        <time>2019-06-19T14:06:57Z</time>
      </trkpt>
      <trkpt lat="43.548740" lon="-7.076327">
        <ele>23.855</ele>
        <time>2019-06-19T14:06:58Z</time>
      </trkpt>
      <trkpt lat="43.548762" lon="-7.076436">
        <ele>23.507</ele>
        <time>2019-06-19T14:06:59Z</time>
      </trkpt>
      <trkpt lat="43.548781" lon="-7.076553">
        <ele>23.417</ele>
        <time>2019-06-19T14:07:00Z</time>
      </trkpt>
      <trkpt lat="43.548796" lon="-7.076665">
        <ele>23.308</ele>
        <time>2019-06-19T14:07:01Z</time>
      </trkpt>
      <trkpt lat="43.548820" lon="-7.076775">
        <ele>23.568</ele>
        <time>2019-06-19T14:07:02Z</time>
      </trkpt>
      <trkpt lat="43.548831" lon="-7.076892">
        <ele>23.932</ele>
        <time>2019-06-19T14:07:03Z</time>
      </trkpt>
      <trkpt lat="43.548866" lon="-7.076990">
        <ele>24.243</ele>
        <time>2019-06-19T14:07:04Z</time>
      </trkpt>
      <trkpt lat="43.548881" lon="-7.077096">
        <ele>24.566</ele>
        <time>2019-06-19T14:07:05Z</time>
      </trkpt>
      <trkpt lat="43.548897" lon="-7.077223">
        <ele>25.056</ele>
        <time>2019-06-19T14:07:06Z</time>
      </trkpt>
      <trkpt lat="43.548918" lon="-7.077339">
        <ele>25.062</ele>
        <time>2019-06-19T14:07:07Z</time>
      </trkpt>
      <trkpt lat="43.548927" lon="-7.077442">
        <ele>24.930</ele>
        <time>2019-06-19T14:07:08Z</time>
      </trkpt>
      <trkpt lat="43.548956" lon="-7.077553">
        <ele>24.780</ele>
        <time>2019-06-19T14:07:09Z</time>
      </trkpt>
      <trkpt lat="43.549002" lon="-7.077654">
        <ele>24.465</ele>
        <time>2019-06-19T14:07:10Z</time>
      </trkpt>
      <trkpt lat="43.549044" lon="-7.077777">
        <ele>23.968</ele>
        <time>2019-06-19T14:07:11Z</time>
      </trkpt>
      <trkpt lat="43.549043" lon="-7.077889">
        <ele>23.514</ele>
        <time>2019-06-19T14:07:12Z</time>
      </trkpt>
      <trkpt lat="43.549067" lon="-7.078002">
        <ele>22.908</ele>
        <time>2019-06-19T14:07:13Z</time>
      </trkpt>
      <trkpt lat="43.549083" lon="-7.078115">
        <ele>22.619</ele>
        <time>2019-06-19T14:07:14Z</time>
      </trkpt>
      <trkpt lat="43.549119" lon="-7.078215">
        <ele>22.323</ele>
        <time>2019-06-19T14:07:15Z</time>
      </trkpt>
      <trkpt lat="43.549137" lon="-7.078332">
        <ele>22.274</ele>
        <time>2019-06-19T14:07:16Z</time>
      </trkpt>
      <trkpt lat="43.549163" lon="-7.078438">
        <ele>22.027</ele>
        <time>2019-06-19T14:07:17Z</time>
      </trkpt>
      <trkpt lat="43.549177" lon="-7.078551">
        <ele>22.037</ele>
        <time>2019-06-19T14:07:18Z</time>
      </trkpt>
      <trkpt lat="43.549185" lon="-7.078670">
        <ele>21.963</ele>
        <time>2019-06-19T14:07:19Z</time>
      </trkpt>
      <trkpt lat="43.549206" lon="-7.078771">
        <ele>21.991</ele>
        <time>2019-06-19T14:07:20Z</time>
      </trkpt>
      <trkpt lat="43.549221" lon="-7.078860">
        <ele>21.841</ele>
        <time>2019-06-19T14:07:21Z</time>
      </trkpt>
      <trkpt lat="43.549234" lon="-7.078939">
        <ele>21.866</ele>
        <time>2019-06-19T14:07:22Z</time>
      </trkpt>
      <trkpt lat="43.549257" lon="-7.079030">
        <ele>21.729</ele>
        <time>2019-06-19T14:07:23Z</time>
      </trkpt>
      <trkpt lat="43.549274" lon="-7.079175">
        <ele>21.721</ele>
        <time>2019-06-19T14:07:25Z</time>
      </trkpt>
      <trkpt lat="43.549274" lon="-7.079272">
        <ele>22.108</ele>
        <time>2019-06-19T14:07:26Z</time>
      </trkpt>
      <trkpt lat="43.549312" lon="-7.079380">
        <ele>22.619</ele>
        <time>2019-06-19T14:07:27Z</time>
      </trkpt>
      <trkpt lat="43.549339" lon="-7.079481">
        <ele>23.183</ele>
        <time>2019-06-19T14:07:28Z</time>
      </trkpt>
      <trkpt lat="43.549353" lon="-7.079583">
        <ele>23.314</ele>
        <time>2019-06-19T14:07:29Z</time>
      </trkpt>
      <trkpt lat="43.549377" lon="-7.079690">
        <ele>23.717</ele>
        <time>2019-06-19T14:07:30Z</time>
      </trkpt>
      <trkpt lat="43.549393" lon="-7.079784">
        <ele>24.057</ele>
        <time>2019-06-19T14:07:31Z</time>
      </trkpt>
      <trkpt lat="43.549414" lon="-7.079879">
        <ele>24.563</ele>
        <time>2019-06-19T14:07:32Z</time>
      </trkpt>
      <trkpt lat="43.549438" lon="-7.079982">
        <ele>24.971</ele>
        <time>2019-06-19T14:07:33Z</time>
      </trkpt>
      <trkpt lat="43.549451" lon="-7.080089">
        <ele>25.331</ele>
        <time>2019-06-19T14:07:34Z</time>
      </trkpt>
      <trkpt lat="43.549469" lon="-7.080196">
        <ele>25.867</ele>
        <time>2019-06-19T14:07:35Z</time>
      </trkpt>
      <trkpt lat="43.549488" lon="-7.080289">
        <ele>26.281</ele>
        <time>2019-06-19T14:07:36Z</time>
      </trkpt>
      <trkpt lat="43.549496" lon="-7.080381">
        <ele>26.619</ele>
        <time>2019-06-19T14:07:37Z</time>
      </trkpt>
      <trkpt lat="43.549509" lon="-7.080459">
        <ele>26.908</ele>
        <time>2019-06-19T14:07:38Z</time>
      </trkpt>
      <trkpt lat="43.549526" lon="-7.080521">
        <ele>27.279</ele>
        <time>2019-06-19T14:07:39Z</time>
      </trkpt>
      <trkpt lat="43.549530" lon="-7.080594">
        <ele>27.443</ele>
        <time>2019-06-19T14:07:40Z</time>
      </trkpt>
      <trkpt lat="43.549535" lon="-7.080675">
        <ele>27.624</ele>
        <time>2019-06-19T14:07:41Z</time>
      </trkpt>
      <trkpt lat="43.549550" lon="-7.080741">
        <ele>27.827</ele>
        <time>2019-06-19T14:07:42Z</time>
      </trkpt>
      <trkpt lat="43.549558" lon="-7.080810">
        <ele>27.987</ele>
        <time>2019-06-19T14:07:43Z</time>
      </trkpt>
      <trkpt lat="43.549523" lon="-7.080732">
        <ele>27.743</ele>
        <time>2019-06-19T14:07:56Z</time>
      </trkpt>
      <trkpt lat="43.549515" lon="-7.080669">
        <ele>27.651</ele>
        <time>2019-06-19T14:07:57Z</time>
      </trkpt>
      <trkpt lat="43.549517" lon="-7.080606">
        <ele>27.421</ele>
        <time>2019-06-19T14:07:58Z</time>
      </trkpt>
      <trkpt lat="43.549558" lon="-7.080503">
        <ele>27.278</ele>
        <time>2019-06-19T14:08:00Z</time>
      </trkpt>
      <trkpt lat="43.549658" lon="-7.080494">
        <ele>27.533</ele>
        <time>2019-06-19T14:08:01Z</time>
      </trkpt>
      <trkpt lat="43.549738" lon="-7.080473">
        <ele>27.626</ele>
        <time>2019-06-19T14:08:02Z</time>
      </trkpt>
      <trkpt lat="43.549836" lon="-7.080453">
        <ele>26.808</ele>
        <time>2019-06-19T14:08:03Z</time>
      </trkpt>
      <trkpt lat="43.549944" lon="-7.080426">
        <ele>25.940</ele>
        <time>2019-06-19T14:08:04Z</time>
      </trkpt>
      <trkpt lat="43.550061" lon="-7.080393">
        <ele>25.084</ele>
        <time>2019-06-19T14:08:05Z</time>
      </trkpt>
      <trkpt lat="43.550183" lon="-7.080359">
        <ele>24.055</ele>
        <time>2019-06-19T14:08:06Z</time>
      </trkpt>
      <trkpt lat="43.550307" lon="-7.080323">
        <ele>23.098</ele>
        <time>2019-06-19T14:08:07Z</time>
      </trkpt>
      <trkpt lat="43.550439" lon="-7.080286">
        <ele>21.958</ele>
        <time>2019-06-19T14:08:08Z</time>
      </trkpt>
      <trkpt lat="43.550574" lon="-7.080255">
        <ele>20.964</ele>
        <time>2019-06-19T14:08:09Z</time>
      </trkpt>
      <trkpt lat="43.550711" lon="-7.080218">
        <ele>20.962</ele>
        <time>2019-06-19T14:08:10Z</time>
      </trkpt>
      <trkpt lat="43.550843" lon="-7.080182">
        <ele>21.162</ele>
        <time>2019-06-19T14:08:11Z</time>
      </trkpt>
      <trkpt lat="43.550980" lon="-7.080149">
        <ele>21.859</ele>
        <time>2019-06-19T14:08:12Z</time>
      </trkpt>
      <trkpt lat="43.551107" lon="-7.080107">
        <ele>22.403</ele>
        <time>2019-06-19T14:08:13Z</time>
      </trkpt>
      <trkpt lat="43.551239" lon="-7.080067">
        <ele>23.223</ele>
        <time>2019-06-19T14:08:14Z</time>
      </trkpt>
      <trkpt lat="43.551367" lon="-7.080031">
        <ele>24.008</ele>
        <time>2019-06-19T14:08:15Z</time>
      </trkpt>
      <trkpt lat="43.551488" lon="-7.079998">
        <ele>24.078</ele>
        <time>2019-06-19T14:08:16Z</time>
      </trkpt>
      <trkpt lat="43.551599" lon="-7.079967">
        <ele>23.922</ele>
        <time>2019-06-19T14:08:17Z</time>
      </trkpt>
      <trkpt lat="43.551709" lon="-7.079933">
        <ele>23.693</ele>
        <time>2019-06-19T14:08:18Z</time>
      </trkpt>
      <trkpt lat="43.551826" lon="-7.079900">
        <ele>23.146</ele>
        <time>2019-06-19T14:08:19Z</time>
      </trkpt>
      <trkpt lat="43.551938" lon="-7.079862">
        <ele>22.586</ele>
        <time>2019-06-19T14:08:20Z</time>
      </trkpt>
      <trkpt lat="43.552049" lon="-7.079834">
        <ele>22.332</ele>
        <time>2019-06-19T14:08:21Z</time>
      </trkpt>
      <trkpt lat="43.552163" lon="-7.079804">
        <ele>22.180</ele>
        <time>2019-06-19T14:08:22Z</time>
      </trkpt>
      <trkpt lat="43.552280" lon="-7.079765">
        <ele>22.480</ele>
        <time>2019-06-19T14:08:23Z</time>
      </trkpt>
      <trkpt lat="43.552372" lon="-7.079742">
        <ele>23.085</ele>
        <time>2019-06-19T14:08:24Z</time>
      </trkpt>
      <trkpt lat="43.552466" lon="-7.079714">
        <ele>23.889</ele>
        <time>2019-06-19T14:08:25Z</time>
      </trkpt>
      <trkpt lat="43.552561" lon="-7.079693">
        <ele>24.117</ele>
        <time>2019-06-19T14:08:26Z</time>
      </trkpt>
      <trkpt lat="43.552650" lon="-7.079669">
        <ele>24.108</ele>
        <time>2019-06-19T14:08:27Z</time>
      </trkpt>
      <trkpt lat="43.552740" lon="-7.079623">
        <ele>24.061</ele>
        <time>2019-06-19T14:08:28Z</time>
      </trkpt>
      <trkpt lat="43.552826" lon="-7.079596">
        <ele>23.645</ele>
        <time>2019-06-19T14:08:29Z</time>
      </trkpt>
      <trkpt lat="43.552903" lon="-7.079581">
        <ele>22.986</ele>
        <time>2019-06-19T14:08:30Z</time>
      </trkpt>
      <trkpt lat="43.553000" lon="-7.079576">
        <ele>22.099</ele>
        <time>2019-06-19T14:08:31Z</time>
      </trkpt>
      <trkpt lat="43.553091" lon="-7.079564">
        <ele>21.239</ele>
        <time>2019-06-19T14:08:32Z</time>
      </trkpt>
      <trkpt lat="43.553179" lon="-7.079591">
        <ele>20.635</ele>
        <time>2019-06-19T14:08:33Z</time>
      </trkpt>
      <trkpt lat="43.553263" lon="-7.079620">
        <ele>20.173</ele>
        <time>2019-06-19T14:08:34Z</time>
      </trkpt>
      <trkpt lat="43.553353" lon="-7.079652">
        <ele>19.743</ele>
        <time>2019-06-19T14:08:35Z</time>
      </trkpt>
      <trkpt lat="43.553438" lon="-7.079706">
        <ele>19.963</ele>
        <time>2019-06-19T14:08:36Z</time>
      </trkpt>
      <trkpt lat="43.553532" lon="-7.079763">
        <ele>20.144</ele>
        <time>2019-06-19T14:08:37Z</time>
      </trkpt>
      <trkpt lat="43.553630" lon="-7.079829">
        <ele>20.318</ele>
        <time>2019-06-19T14:08:38Z</time>
      </trkpt>
      <trkpt lat="43.553727" lon="-7.079891">
        <ele>20.208</ele>
        <time>2019-06-19T14:08:39Z</time>
      </trkpt>
      <trkpt lat="43.553822" lon="-7.079974">
        <ele>20.189</ele>
        <time>2019-06-19T14:08:40Z</time>
      </trkpt>
      <trkpt lat="43.553907" lon="-7.080073">
        <ele>20.143</ele>
        <time>2019-06-19T14:08:41Z</time>
      </trkpt>
      <trkpt lat="43.553998" lon="-7.080185">
        <ele>20.114</ele>
        <time>2019-06-19T14:08:42Z</time>
      </trkpt>
      <trkpt lat="43.554081" lon="-7.080298">
        <ele>20.477</ele>
        <time>2019-06-19T14:08:43Z</time>
      </trkpt>
      <trkpt lat="43.554156" lon="-7.080421">
        <ele>20.517</ele>
        <time>2019-06-19T14:08:44Z</time>
      </trkpt>
      <trkpt lat="43.554229" lon="-7.080548">
        <ele>21.063</ele>
        <time>2019-06-19T14:08:45Z</time>
      </trkpt>
      <trkpt lat="43.554302" lon="-7.080676">
        <ele>21.081</ele>
        <time>2019-06-19T14:08:46Z</time>
      </trkpt>
      <trkpt lat="43.554376" lon="-7.080802">
        <ele>21.071</ele>
        <time>2019-06-19T14:08:47Z</time>
      </trkpt>
      <trkpt lat="43.554447" lon="-7.080933">
        <ele>21.069</ele>
        <time>2019-06-19T14:08:48Z</time>
      </trkpt>
      <trkpt lat="43.554518" lon="-7.081064">
        <ele>20.504</ele>
        <time>2019-06-19T14:08:49Z</time>
      </trkpt>
      <trkpt lat="43.554583" lon="-7.081192">
        <ele>20.024</ele>
        <time>2019-06-19T14:08:50Z</time>
      </trkpt>
      <trkpt lat="43.554640" lon="-7.081308">
        <ele>19.608</ele>
        <time>2019-06-19T14:08:51Z</time>
      </trkpt>
      <trkpt lat="43.554703" lon="-7.081423">
        <ele>19.179</ele>
        <time>2019-06-19T14:08:52Z</time>
      </trkpt>
      <trkpt lat="43.554764" lon="-7.081554">
        <ele>18.723</ele>
        <time>2019-06-19T14:08:53Z</time>
      </trkpt>
      <trkpt lat="43.554828" lon="-7.081678">
        <ele>18.224</ele>
        <time>2019-06-19T14:08:54Z</time>
      </trkpt>
      <trkpt lat="43.554896" lon="-7.081804">
        <ele>17.737</ele>
        <time>2019-06-19T14:08:55Z</time>
      </trkpt>
      <trkpt lat="43.554941" lon="-7.081957">
        <ele>17.567</ele>
        <time>2019-06-19T14:08:56Z</time>
      </trkpt>
      <trkpt lat="43.554983" lon="-7.082105">
        <ele>17.713</ele>
        <time>2019-06-19T14:08:57Z</time>
      </trkpt>
      <trkpt lat="43.555029" lon="-7.082254">
        <ele>17.931</ele>
        <time>2019-06-19T14:08:58Z</time>
      </trkpt>
      <trkpt lat="43.555079" lon="-7.082429">
        <ele>18.411</ele>
        <time>2019-06-19T14:08:59Z</time>
      </trkpt>
      <trkpt lat="43.555114" lon="-7.082603">
        <ele>19.015</ele>
        <time>2019-06-19T14:09:00Z</time>
      </trkpt>
      <trkpt lat="43.555140" lon="-7.082781">
        <ele>19.565</ele>
        <time>2019-06-19T14:09:01Z</time>
      </trkpt>
      <trkpt lat="43.555164" lon="-7.082960">
        <ele>19.411</ele>
        <time>2019-06-19T14:09:02Z</time>
      </trkpt>
      <trkpt lat="43.555175" lon="-7.083130">
        <ele>19.308</ele>
        <time>2019-06-19T14:09:03Z</time>
      </trkpt>
      <trkpt lat="43.555189" lon="-7.083306">
        <ele>19.074</ele>
        <time>2019-06-19T14:09:04Z</time>
      </trkpt>
      <trkpt lat="43.555188" lon="-7.083480">
        <ele>18.888</ele>
        <time>2019-06-19T14:09:05Z</time>
      </trkpt>
      <trkpt lat="43.555187" lon="-7.083657">
        <ele>18.679</ele>
        <time>2019-06-19T14:09:06Z</time>
      </trkpt>
      <trkpt lat="43.555184" lon="-7.083843">
        <ele>18.152</ele>
        <time>2019-06-19T14:09:07Z</time>
      </trkpt>
      <trkpt lat="43.555183" lon="-7.084039">
        <ele>17.162</ele>
        <time>2019-06-19T14:09:08Z</time>
      </trkpt>
      <trkpt lat="43.555180" lon="-7.084244">
        <ele>16.218</ele>
        <time>2019-06-19T14:09:09Z</time>
      </trkpt>
      <trkpt lat="43.555170" lon="-7.084446">
        <ele>15.836</ele>
        <time>2019-06-19T14:09:10Z</time>
      </trkpt>
      <trkpt lat="43.555162" lon="-7.084643">
        <ele>15.876</ele>
        <time>2019-06-19T14:09:11Z</time>
      </trkpt>
      <trkpt lat="43.555146" lon="-7.084834">
        <ele>15.978</ele>
        <time>2019-06-19T14:09:12Z</time>
      </trkpt>
      <trkpt lat="43.555127" lon="-7.085023">
        <ele>16.133</ele>
        <time>2019-06-19T14:09:13Z</time>
      </trkpt>
      <trkpt lat="43.555095" lon="-7.085213">
        <ele>16.326</ele>
        <time>2019-06-19T14:09:14Z</time>
      </trkpt>
      <trkpt lat="43.555056" lon="-7.085402">
        <ele>16.708</ele>
        <time>2019-06-19T14:09:15Z</time>
      </trkpt>
      <trkpt lat="43.555017" lon="-7.085584">
        <ele>17.030</ele>
        <time>2019-06-19T14:09:16Z</time>
      </trkpt>
      <trkpt lat="43.554968" lon="-7.085763">
        <ele>17.924</ele>
        <time>2019-06-19T14:09:17Z</time>
      </trkpt>
      <trkpt lat="43.554918" lon="-7.085935">
        <ele>18.635</ele>
        <time>2019-06-19T14:09:18Z</time>
      </trkpt>
      <trkpt lat="43.554868" lon="-7.086103">
        <ele>19.098</ele>
        <time>2019-06-19T14:09:19Z</time>
      </trkpt>
      <trkpt lat="43.554814" lon="-7.086276">
        <ele>19.668</ele>
        <time>2019-06-19T14:09:20Z</time>
      </trkpt>
      <trkpt lat="43.554760" lon="-7.086447">
        <ele>20.424</ele>
        <time>2019-06-19T14:09:21Z</time>
      </trkpt>
      <trkpt lat="43.554709" lon="-7.086619">
        <ele>21.692</ele>
        <time>2019-06-19T14:09:22Z</time>
      </trkpt>
      <trkpt lat="43.554656" lon="-7.086774">
        <ele>21.532</ele>
        <time>2019-06-19T14:09:23Z</time>
      </trkpt>
      <trkpt lat="43.554598" lon="-7.086916">
        <ele>21.125</ele>
        <time>2019-06-19T14:09:24Z</time>
      </trkpt>
      <trkpt lat="43.554535" lon="-7.087051">
        <ele>20.326</ele>
        <time>2019-06-19T14:09:25Z</time>
      </trkpt>
      <trkpt lat="43.554458" lon="-7.087187">
        <ele>19.208</ele>
        <time>2019-06-19T14:09:26Z</time>
      </trkpt>
      <trkpt lat="43.554380" lon="-7.087316">
        <ele>18.908</ele>
        <time>2019-06-19T14:09:27Z</time>
      </trkpt>
      <trkpt lat="43.554301" lon="-7.087451">
        <ele>18.745</ele>
        <time>2019-06-19T14:09:28Z</time>
      </trkpt>
      <trkpt lat="43.554208" lon="-7.087579">
        <ele>18.989</ele>
        <time>2019-06-19T14:09:29Z</time>
      </trkpt>
      <trkpt lat="43.554097" lon="-7.087709">
        <ele>19.390</ele>
        <time>2019-06-19T14:09:30Z</time>
      </trkpt>
      <trkpt lat="43.553999" lon="-7.087837">
        <ele>19.723</ele>
        <time>2019-06-19T14:09:31Z</time>
      </trkpt>
      <trkpt lat="43.553899" lon="-7.087963">
        <ele>20.693</ele>
        <time>2019-06-19T14:09:32Z</time>
      </trkpt>
      <trkpt lat="43.553808" lon="-7.088081">
        <ele>21.319</ele>
        <time>2019-06-19T14:09:33Z</time>
      </trkpt>
      <trkpt lat="43.553723" lon="-7.088192">
        <ele>21.947</ele>
        <time>2019-06-19T14:09:34Z</time>
      </trkpt>
      <trkpt lat="43.553639" lon="-7.088286">
        <ele>22.637</ele>
        <time>2019-06-19T14:09:35Z</time>
      </trkpt>
      <trkpt lat="43.553567" lon="-7.088380">
        <ele>22.596</ele>
        <time>2019-06-19T14:09:36Z</time>
      </trkpt>
      <trkpt lat="43.553503" lon="-7.088464">
        <ele>21.931</ele>
        <time>2019-06-19T14:09:37Z</time>
      </trkpt>
      <trkpt lat="43.553461" lon="-7.088544">
        <ele>21.624</ele>
        <time>2019-06-19T14:09:38Z</time>
      </trkpt>
      <trkpt lat="43.553439" lon="-7.088637">
        <ele>21.408</ele>
        <time>2019-06-19T14:09:39Z</time>
      </trkpt>
      <trkpt lat="43.553441" lon="-7.088736">
        <ele>21.432</ele>
        <time>2019-06-19T14:09:40Z</time>
      </trkpt>
      <trkpt lat="43.553463" lon="-7.088835">
        <ele>21.526</ele>
        <time>2019-06-19T14:09:41Z</time>
      </trkpt>
      <trkpt lat="43.553502" lon="-7.088963">
        <ele>21.467</ele>
        <time>2019-06-19T14:09:42Z</time>
      </trkpt>
      <trkpt lat="43.553557" lon="-7.089104">
        <ele>21.240</ele>
        <time>2019-06-19T14:09:43Z</time>
      </trkpt>
      <trkpt lat="43.553624" lon="-7.089250">
        <ele>20.710</ele>
        <time>2019-06-19T14:09:44Z</time>
      </trkpt>
      <trkpt lat="43.553685" lon="-7.089397">
        <ele>20.246</ele>
        <time>2019-06-19T14:09:45Z</time>
      </trkpt>
      <trkpt lat="43.553751" lon="-7.089542">
        <ele>20.024</ele>
        <time>2019-06-19T14:09:46Z</time>
      </trkpt>
      <trkpt lat="43.553839" lon="-7.089686">
        <ele>20.084</ele>
        <time>2019-06-19T14:09:47Z</time>
      </trkpt>
      <trkpt lat="43.553920" lon="-7.089821">
        <ele>19.563</ele>
        <time>2019-06-19T14:09:48Z</time>
      </trkpt>
      <trkpt lat="43.553998" lon="-7.089955">
        <ele>18.844</ele>
        <time>2019-06-19T14:09:49Z</time>
      </trkpt>
      <trkpt lat="43.554076" lon="-7.090085">
        <ele>17.918</ele>
        <time>2019-06-19T14:09:50Z</time>
      </trkpt>
      <trkpt lat="43.554154" lon="-7.090211">
        <ele>17.308</ele>
        <time>2019-06-19T14:09:51Z</time>
      </trkpt>
      <trkpt lat="43.554224" lon="-7.090331">
        <ele>16.669</ele>
        <time>2019-06-19T14:09:52Z</time>
      </trkpt>
      <trkpt lat="43.554292" lon="-7.090458">
        <ele>16.283</ele>
        <time>2019-06-19T14:09:53Z</time>
      </trkpt>
      <trkpt lat="43.554346" lon="-7.090591">
        <ele>16.054</ele>
        <time>2019-06-19T14:09:54Z</time>
      </trkpt>
      <trkpt lat="43.554394" lon="-7.090738">
        <ele>15.977</ele>
        <time>2019-06-19T14:09:55Z</time>
      </trkpt>
      <trkpt lat="43.554443" lon="-7.090887">
        <ele>15.697</ele>
        <time>2019-06-19T14:09:56Z</time>
      </trkpt>
      <trkpt lat="43.554485" lon="-7.091058">
        <ele>13.963</ele>
        <time>2019-06-19T14:09:57Z</time>
      </trkpt>
      <trkpt lat="43.554454" lon="-7.091212">
        <ele>13.241</ele>
        <time>2019-06-19T14:09:58Z</time>
      </trkpt>
      <trkpt lat="43.554448" lon="-7.091375">
        <ele>12.181</ele>
        <time>2019-06-19T14:09:59Z</time>
      </trkpt>
      <trkpt lat="43.554458" lon="-7.091549">
        <ele>10.231</ele>
        <time>2019-06-19T14:10:00Z</time>
      </trkpt>
      <trkpt lat="43.554471" lon="-7.091731">
        <ele>8.761</ele>
        <time>2019-06-19T14:10:01Z</time>
      </trkpt>
      <trkpt lat="43.554491" lon="-7.091909">
        <ele>7.807</ele>
        <time>2019-06-19T14:10:02Z</time>
      </trkpt>
      <trkpt lat="43.554515" lon="-7.092089">
        <ele>7.408</ele>
        <time>2019-06-19T14:10:03Z</time>
      </trkpt>
      <trkpt lat="43.554581" lon="-7.092289">
        <ele>6.966</ele>
        <time>2019-06-19T14:10:04Z</time>
      </trkpt>
      <trkpt lat="43.554613" lon="-7.092464">
        <ele>7.670</ele>
        <time>2019-06-19T14:10:05Z</time>
      </trkpt>
      <trkpt lat="43.554659" lon="-7.092664">
        <ele>8.071</ele>
        <time>2019-06-19T14:10:06Z</time>
      </trkpt>
      <trkpt lat="43.554719" lon="-7.092864">
        <ele>8.674</ele>
        <time>2019-06-19T14:10:07Z</time>
      </trkpt>
      <trkpt lat="43.554781" lon="-7.093065">
        <ele>9.464</ele>
        <time>2019-06-19T14:10:08Z</time>
      </trkpt>
      <trkpt lat="43.554840" lon="-7.093268">
        <ele>9.510</ele>
        <time>2019-06-19T14:10:09Z</time>
      </trkpt>
      <trkpt lat="43.554903" lon="-7.093471">
        <ele>9.568</ele>
        <time>2019-06-19T14:10:10Z</time>
      </trkpt>
      <trkpt lat="43.554964" lon="-7.093682">
        <ele>10.148</ele>
        <time>2019-06-19T14:10:11Z</time>
      </trkpt>
      <trkpt lat="43.555028" lon="-7.093888">
        <ele>11.468</ele>
        <time>2019-06-19T14:10:12Z</time>
      </trkpt>
      <trkpt lat="43.555086" lon="-7.094105">
        <ele>11.742</ele>
        <time>2019-06-19T14:10:13Z</time>
      </trkpt>
      <trkpt lat="43.555143" lon="-7.094318">
        <ele>11.526</ele>
        <time>2019-06-19T14:10:14Z</time>
      </trkpt>
      <trkpt lat="43.555209" lon="-7.094527">
        <ele>11.408</ele>
        <time>2019-06-19T14:10:15Z</time>
      </trkpt>
      <trkpt lat="43.555275" lon="-7.094735">
        <ele>12.129</ele>
        <time>2019-06-19T14:10:16Z</time>
      </trkpt>
      <trkpt lat="43.555339" lon="-7.094950">
        <ele>12.363</ele>
        <time>2019-06-19T14:10:17Z</time>
      </trkpt>
      <trkpt lat="43.555388" lon="-7.095153">
        <ele>13.034</ele>
        <time>2019-06-19T14:10:18Z</time>
      </trkpt>
      <trkpt lat="43.555446" lon="-7.095368">
        <ele>13.677</ele>
        <time>2019-06-19T14:10:19Z</time>
      </trkpt>
      <trkpt lat="43.555496" lon="-7.095578">
        <ele>14.197</ele>
        <time>2019-06-19T14:10:20Z</time>
      </trkpt>
      <trkpt lat="43.555545" lon="-7.095773">
        <ele>14.873</ele>
        <time>2019-06-19T14:10:21Z</time>
      </trkpt>
      <trkpt lat="43.555591" lon="-7.095981">
        <ele>14.771</ele>
        <time>2019-06-19T14:10:22Z</time>
      </trkpt>
      <trkpt lat="43.555635" lon="-7.096182">
        <ele>14.571</ele>
        <time>2019-06-19T14:10:23Z</time>
      </trkpt>
      <trkpt lat="43.555666" lon="-7.096379">
        <ele>14.616</ele>
        <time>2019-06-19T14:10:24Z</time>
      </trkpt>
      <trkpt lat="43.555707" lon="-7.096573">
        <ele>14.576</ele>
        <time>2019-06-19T14:10:25Z</time>
      </trkpt>
      <trkpt lat="43.555742" lon="-7.096768">
        <ele>14.613</ele>
        <time>2019-06-19T14:10:26Z</time>
      </trkpt>
      <trkpt lat="43.555789" lon="-7.096966">
        <ele>15.008</ele>
        <time>2019-06-19T14:10:27Z</time>
      </trkpt>
      <trkpt lat="43.555827" lon="-7.097162">
        <ele>15.074</ele>
        <time>2019-06-19T14:10:28Z</time>
      </trkpt>
      <trkpt lat="43.555868" lon="-7.097349">
        <ele>14.828</ele>
        <time>2019-06-19T14:10:29Z</time>
      </trkpt>
      <trkpt lat="43.555913" lon="-7.097537">
        <ele>14.629</ele>
        <time>2019-06-19T14:10:30Z</time>
      </trkpt>
      <trkpt lat="43.555960" lon="-7.097725">
        <ele>14.922</ele>
        <time>2019-06-19T14:10:31Z</time>
      </trkpt>
      <trkpt lat="43.556011" lon="-7.097897">
        <ele>15.332</ele>
        <time>2019-06-19T14:10:32Z</time>
      </trkpt>
      <trkpt lat="43.556051" lon="-7.098076">
        <ele>15.618</ele>
        <time>2019-06-19T14:10:33Z</time>
      </trkpt>
      <trkpt lat="43.556099" lon="-7.098252">
        <ele>15.186</ele>
        <time>2019-06-19T14:10:34Z</time>
      </trkpt>
      <trkpt lat="43.556142" lon="-7.098423">
        <ele>14.646</ele>
        <time>2019-06-19T14:10:35Z</time>
      </trkpt>
      <trkpt lat="43.556184" lon="-7.098593">
        <ele>14.436</ele>
        <time>2019-06-19T14:10:36Z</time>
      </trkpt>
      <trkpt lat="43.556213" lon="-7.098770">
        <ele>13.917</ele>
        <time>2019-06-19T14:10:37Z</time>
      </trkpt>
      <trkpt lat="43.556228" lon="-7.098944">
        <ele>13.718</ele>
        <time>2019-06-19T14:10:38Z</time>
      </trkpt>
      <trkpt lat="43.556250" lon="-7.099115">
        <ele>13.908</ele>
        <time>2019-06-19T14:10:39Z</time>
      </trkpt>
      <trkpt lat="43.556263" lon="-7.099285">
        <ele>14.256</ele>
        <time>2019-06-19T14:10:40Z</time>
      </trkpt>
      <trkpt lat="43.556281" lon="-7.099449">
        <ele>14.480</ele>
        <time>2019-06-19T14:10:41Z</time>
      </trkpt>
      <trkpt lat="43.556291" lon="-7.099616">
        <ele>14.881</ele>
        <time>2019-06-19T14:10:42Z</time>
      </trkpt>
      <trkpt lat="43.556303" lon="-7.099783">
        <ele>15.044</ele>
        <time>2019-06-19T14:10:43Z</time>
      </trkpt>
      <trkpt lat="43.556304" lon="-7.099941">
        <ele>15.034</ele>
        <time>2019-06-19T14:10:44Z</time>
      </trkpt>
      <trkpt lat="43.556309" lon="-7.100101">
        <ele>15.010</ele>
        <time>2019-06-19T14:10:45Z</time>
      </trkpt>
      <trkpt lat="43.556306" lon="-7.100244">
        <ele>15.048</ele>
        <time>2019-06-19T14:10:46Z</time>
      </trkpt>
      <trkpt lat="43.556315" lon="-7.100381">
        <ele>15.468</ele>
        <time>2019-06-19T14:10:47Z</time>
      </trkpt>
      <trkpt lat="43.556295" lon="-7.100492">
        <ele>15.893</ele>
        <time>2019-06-19T14:10:48Z</time>
      </trkpt>
      <trkpt lat="43.556290" lon="-7.100619">
        <ele>16.165</ele>
        <time>2019-06-19T14:10:49Z</time>
      </trkpt>
      <trkpt lat="43.556278" lon="-7.100740">
        <ele>16.321</ele>
        <time>2019-06-19T14:10:50Z</time>
      </trkpt>
      <trkpt lat="43.556256" lon="-7.100867">
        <ele>16.508</ele>
        <time>2019-06-19T14:10:51Z</time>
      </trkpt>
      <trkpt lat="43.556246" lon="-7.101014">
        <ele>16.842</ele>
        <time>2019-06-19T14:10:52Z</time>
      </trkpt>
      <trkpt lat="43.556239" lon="-7.101151">
        <ele>17.076</ele>
        <time>2019-06-19T14:10:53Z</time>
      </trkpt>
      <trkpt lat="43.556232" lon="-7.101283">
        <ele>17.037</ele>
        <time>2019-06-19T14:10:54Z</time>
      </trkpt>
      <trkpt lat="43.556229" lon="-7.101382">
        <ele>17.030</ele>
        <time>2019-06-19T14:10:55Z</time>
      </trkpt>
      <trkpt lat="43.556223" lon="-7.101484">
        <ele>17.210</ele>
        <time>2019-06-19T14:10:56Z</time>
      </trkpt>
      <trkpt lat="43.556214" lon="-7.101550">
        <ele>17.496</ele>
        <time>2019-06-19T14:10:57Z</time>
      </trkpt>
      <trkpt lat="43.556207" lon="-7.101625">
        <ele>17.624</ele>
        <time>2019-06-19T14:10:58Z</time>
      </trkpt>
      <trkpt lat="43.556218" lon="-7.101707">
        <ele>17.564</ele>
        <time>2019-06-19T14:11:00Z</time>
      </trkpt>
      <trkpt lat="43.556195" lon="-7.101775">
        <ele>17.439</ele>
        <time>2019-06-19T14:12:16Z</time>
      </trkpt>
      <trkpt lat="43.556108" lon="-7.101751">
        <ele>17.701</ele>
        <time>2019-06-19T14:12:18Z</time>
      </trkpt>
      <trkpt lat="43.556047" lon="-7.101741">
        <ele>17.621</ele>
        <time>2019-06-19T14:12:19Z</time>
      </trkpt>
      <trkpt lat="43.555971" lon="-7.101757">
        <ele>17.308</ele>
        <time>2019-06-19T14:12:20Z</time>
      </trkpt>
      <trkpt lat="43.555874" lon="-7.101852">
        <ele>17.086</ele>
        <time>2019-06-19T14:12:21Z</time>
      </trkpt>
      <trkpt lat="43.555791" lon="-7.101906">
        <ele>17.070</ele>
        <time>2019-06-19T14:12:22Z</time>
      </trkpt>
      <trkpt lat="43.555699" lon="-7.101971">
        <ele>17.011</ele>
        <time>2019-06-19T14:12:23Z</time>
      </trkpt>
      <trkpt lat="43.555608" lon="-7.102030">
        <ele>17.214</ele>
        <time>2019-06-19T14:12:24Z</time>
      </trkpt>
      <trkpt lat="43.555498" lon="-7.102068">
        <ele>17.744</ele>
        <time>2019-06-19T14:12:25Z</time>
      </trkpt>
      <trkpt lat="43.555395" lon="-7.102114">
        <ele>18.120</ele>
        <time>2019-06-19T14:12:26Z</time>
      </trkpt>
      <trkpt lat="43.555294" lon="-7.102153">
        <ele>18.238</ele>
        <time>2019-06-19T14:12:27Z</time>
      </trkpt>
      <trkpt lat="43.555202" lon="-7.102193">
        <ele>18.368</ele>
        <time>2019-06-19T14:12:28Z</time>
      </trkpt>
      <trkpt lat="43.555112" lon="-7.102229">
        <ele>18.615</ele>
        <time>2019-06-19T14:12:29Z</time>
      </trkpt>
      <trkpt lat="43.555028" lon="-7.102276">
        <ele>18.965</ele>
        <time>2019-06-19T14:12:30Z</time>
      </trkpt>
      <trkpt lat="43.554935" lon="-7.102331">
        <ele>18.911</ele>
        <time>2019-06-19T14:12:31Z</time>
      </trkpt>
      <trkpt lat="43.554845" lon="-7.102378">
        <ele>18.808</ele>
        <time>2019-06-19T14:12:32Z</time>
      </trkpt>
      <trkpt lat="43.554756" lon="-7.102420">
        <ele>18.754</ele>
        <time>2019-06-19T14:12:33Z</time>
      </trkpt>
      <trkpt lat="43.554670" lon="-7.102454">
        <ele>18.838</ele>
        <time>2019-06-19T14:12:34Z</time>
      </trkpt>
      <trkpt lat="43.554589" lon="-7.102478">
        <ele>18.949</ele>
        <time>2019-06-19T14:12:35Z</time>
      </trkpt>
      <trkpt lat="43.554514" lon="-7.102495">
        <ele>19.062</ele>
        <time>2019-06-19T14:12:36Z</time>
      </trkpt>
      <trkpt lat="43.554450" lon="-7.102510">
        <ele>19.022</ele>
        <time>2019-06-19T14:12:37Z</time>
      </trkpt>
      <trkpt lat="43.554385" lon="-7.102528">
        <ele>18.718</ele>
        <time>2019-06-19T14:12:38Z</time>
      </trkpt>
      <trkpt lat="43.554331" lon="-7.102541">
        <ele>18.546</ele>
        <time>2019-06-19T14:12:39Z</time>
      </trkpt>
      <trkpt lat="43.554263" lon="-7.102563">
        <ele>18.316</ele>
        <time>2019-06-19T14:12:41Z</time>
      </trkpt>
      <trkpt lat="43.554232" lon="-7.102658">
        <ele>18.141</ele>
        <time>2019-06-19T14:12:43Z</time>
      </trkpt>
      <trkpt lat="43.554237" lon="-7.102739">
        <ele>18.081</ele>
        <time>2019-06-19T14:12:44Z</time>
      </trkpt>
      <trkpt lat="43.554249" lon="-7.102827">
        <ele>17.909</ele>
        <time>2019-06-19T14:12:45Z</time>
      </trkpt>
      <trkpt lat="43.554266" lon="-7.102958">
        <ele>17.608</ele>
        <time>2019-06-19T14:12:46Z</time>
      </trkpt>
      <trkpt lat="43.554279" lon="-7.103093">
        <ele>17.457</ele>
        <time>2019-06-19T14:12:47Z</time>
      </trkpt>
      <trkpt lat="43.554298" lon="-7.103189">
        <ele>17.511</ele>
        <time>2019-06-19T14:12:48Z</time>
      </trkpt>
      <trkpt lat="43.554309" lon="-7.103262">
        <ele>17.532</ele>
        <time>2019-06-19T14:12:49Z</time>
      </trkpt>
      <trkpt lat="43.554321" lon="-7.103326">
        <ele>17.665</ele>
        <time>2019-06-19T14:12:50Z</time>
      </trkpt>
      <trkpt lat="43.554336" lon="-7.103398">
        <ele>17.425</ele>
        <time>2019-06-19T14:12:52Z</time>
      </trkpt>
      <trkpt lat="43.554342" lon="-7.103473">
        <ele>17.111</ele>
        <time>2019-06-19T14:12:53Z</time>
      </trkpt>
      <trkpt lat="43.554366" lon="-7.103572">
        <ele>16.939</ele>
        <time>2019-06-19T14:12:54Z</time>
      </trkpt>
      <trkpt lat="43.554396" lon="-7.103676">
        <ele>16.849</ele>
        <time>2019-06-19T14:12:55Z</time>
      </trkpt>
      <trkpt lat="43.554426" lon="-7.103802">
        <ele>16.943</ele>
        <time>2019-06-19T14:12:56Z</time>
      </trkpt>
      <trkpt lat="43.554469" lon="-7.103940">
        <ele>17.064</ele>
        <time>2019-06-19T14:12:57Z</time>
      </trkpt>
      <trkpt lat="43.554503" lon="-7.104093">
        <ele>17.010</ele>
        <time>2019-06-19T14:12:58Z</time>
      </trkpt>
      <trkpt lat="43.554539" lon="-7.104250">
        <ele>17.308</ele>
        <time>2019-06-19T14:12:59Z</time>
      </trkpt>
      <trkpt lat="43.554577" lon="-7.104405">
        <ele>17.917</ele>
        <time>2019-06-19T14:13:00Z</time>
      </trkpt>
      <trkpt lat="43.554615" lon="-7.104552">
        <ele>18.681</ele>
        <time>2019-06-19T14:13:01Z</time>
      </trkpt>
      <trkpt lat="43.554654" lon="-7.104685">
        <ele>19.582</ele>
        <time>2019-06-19T14:13:02Z</time>
      </trkpt>
      <trkpt lat="43.554689" lon="-7.104809">
        <ele>20.215</ele>
        <time>2019-06-19T14:13:03Z</time>
      </trkpt>
      <trkpt lat="43.554716" lon="-7.104936">
        <ele>20.765</ele>
        <time>2019-06-19T14:13:04Z</time>
      </trkpt>
      <trkpt lat="43.554745" lon="-7.105049">
        <ele>20.761</ele>
        <time>2019-06-19T14:13:05Z</time>
      </trkpt>
      <trkpt lat="43.554782" lon="-7.105141">
        <ele>20.269</ele>
        <time>2019-06-19T14:13:06Z</time>
      </trkpt>
      <trkpt lat="43.554809" lon="-7.105234">
        <ele>19.849</ele>
        <time>2019-06-19T14:13:08Z</time>
      </trkpt>
      <trkpt lat="43.554861" lon="-7.105285">
        <ele>19.557</ele>
        <time>2019-06-19T14:13:10Z</time>
      </trkpt>
      <trkpt lat="43.554940" lon="-7.105320">
        <ele>19.000</ele>
        <time>2019-06-19T14:13:12Z</time>
      </trkpt>
      <trkpt lat="43.555016" lon="-7.105347">
        <ele>18.620</ele>
        <time>2019-06-19T14:13:14Z</time>
      </trkpt>
      <trkpt lat="43.555073" lon="-7.105452">
        <ele>17.808</ele>
        <time>2019-06-19T14:13:16Z</time>
      </trkpt>
      <trkpt lat="43.555101" lon="-7.105511">
        <ele>17.438</ele>
        <time>2019-06-19T14:13:17Z</time>
      </trkpt>
      <trkpt lat="43.555128" lon="-7.105579">
        <ele>17.052</ele>
        <time>2019-06-19T14:13:18Z</time>
      </trkpt>
      <trkpt lat="43.555150" lon="-7.105643">
        <ele>16.613</ele>
        <time>2019-06-19T14:13:19Z</time>
      </trkpt>
      <trkpt lat="43.555169" lon="-7.105711">
        <ele>16.286</ele>
        <time>2019-06-19T14:13:20Z</time>
      </trkpt>
      <trkpt lat="43.555179" lon="-7.105782">
        <ele>15.926</ele>
        <time>2019-06-19T14:13:21Z</time>
      </trkpt>
      <trkpt lat="43.555201" lon="-7.105858">
        <ele>15.482</ele>
        <time>2019-06-19T14:13:22Z</time>
      </trkpt>
      <trkpt lat="43.555215" lon="-7.105945">
        <ele>14.620</ele>
        <time>2019-06-19T14:13:23Z</time>
      </trkpt>
      <trkpt lat="43.555224" lon="-7.106022">
        <ele>13.920</ele>
        <time>2019-06-19T14:13:24Z</time>
      </trkpt>
      <trkpt lat="43.555216" lon="-7.106104">
        <ele>13.316</ele>
        <time>2019-06-19T14:13:25Z</time>
      </trkpt>
      <trkpt lat="43.555210" lon="-7.106182">
        <ele>12.776</ele>
        <time>2019-06-19T14:13:26Z</time>
      </trkpt>
      <trkpt lat="43.555198" lon="-7.106263">
        <ele>12.013</ele>
        <time>2019-06-19T14:13:27Z</time>
      </trkpt>
      <trkpt lat="43.555175" lon="-7.106337">
        <ele>11.408</ele>
        <time>2019-06-19T14:13:28Z</time>
      </trkpt>
      <trkpt lat="43.555133" lon="-7.106405">
        <ele>10.964</ele>
        <time>2019-06-19T14:13:29Z</time>
      </trkpt>
      <trkpt lat="43.555078" lon="-7.106474">
        <ele>10.538</ele>
        <time>2019-06-19T14:13:30Z</time>
      </trkpt>
      <trkpt lat="43.555003" lon="-7.106542">
        <ele>9.929</ele>
        <time>2019-06-19T14:13:31Z</time>
      </trkpt>
      <trkpt lat="43.554938" lon="-7.106617">
        <ele>9.362</ele>
        <time>2019-06-19T14:13:32Z</time>
      </trkpt>
      <trkpt lat="43.554878" lon="-7.106707">
        <ele>9.092</ele>
        <time>2019-06-19T14:13:33Z</time>
      </trkpt>
      <trkpt lat="43.554833" lon="-7.106812">
        <ele>9.018</ele>
        <time>2019-06-19T14:13:34Z</time>
      </trkpt>
      <trkpt lat="43.554791" lon="-7.106922">
        <ele>9.026</ele>
        <time>2019-06-19T14:13:35Z</time>
      </trkpt>
      <trkpt lat="43.554767" lon="-7.107031">
        <ele>9.336</ele>
        <time>2019-06-19T14:13:36Z</time>
      </trkpt>
      <trkpt lat="43.554749" lon="-7.107150">
        <ele>9.711</ele>
        <time>2019-06-19T14:13:37Z</time>
      </trkpt>
      <trkpt lat="43.554733" lon="-7.107275">
        <ele>10.221</ele>
        <time>2019-06-19T14:13:38Z</time>
      </trkpt>
      <trkpt lat="43.554701" lon="-7.107378">
        <ele>10.603</ele>
        <time>2019-06-19T14:13:39Z</time>
      </trkpt>
      <trkpt lat="43.554658" lon="-7.107489">
        <ele>10.708</ele>
        <time>2019-06-19T14:13:40Z</time>
      </trkpt>
      <trkpt lat="43.554603" lon="-7.107601">
        <ele>10.984</ele>
        <time>2019-06-19T14:13:41Z</time>
      </trkpt>
      <trkpt lat="43.554546" lon="-7.107715">
        <ele>11.188</ele>
        <time>2019-06-19T14:13:42Z</time>
      </trkpt>
      <trkpt lat="43.554488" lon="-7.107834">
        <ele>11.439</ele>
        <time>2019-06-19T14:13:43Z</time>
      </trkpt>
      <trkpt lat="43.554433" lon="-7.107953">
        <ele>11.622</ele>
        <time>2019-06-19T14:13:44Z</time>
      </trkpt>
      <trkpt lat="43.554387" lon="-7.108067">
        <ele>11.862</ele>
        <time>2019-06-19T14:13:45Z</time>
      </trkpt>
      <trkpt lat="43.554342" lon="-7.108184">
        <ele>12.178</ele>
        <time>2019-06-19T14:13:46Z</time>
      </trkpt>
      <trkpt lat="43.554303" lon="-7.108295">
        <ele>12.496</ele>
        <time>2019-06-19T14:13:47Z</time>
      </trkpt>
      <trkpt lat="43.554272" lon="-7.108399">
        <ele>12.926</ele>
        <time>2019-06-19T14:13:48Z</time>
      </trkpt>
      <trkpt lat="43.554246" lon="-7.108521">
        <ele>13.689</ele>
        <time>2019-06-19T14:13:49Z</time>
      </trkpt>
      <trkpt lat="43.554209" lon="-7.108650">
        <ele>14.306</ele>
        <time>2019-06-19T14:13:50Z</time>
      </trkpt>
      <trkpt lat="43.554184" lon="-7.108783">
        <ele>14.626</ele>
        <time>2019-06-19T14:13:51Z</time>
      </trkpt>
      <trkpt lat="43.554160" lon="-7.108919">
        <ele>14.908</ele>
        <time>2019-06-19T14:13:52Z</time>
      </trkpt>
      <trkpt lat="43.554138" lon="-7.109042">
        <ele>14.421</ele>
        <time>2019-06-19T14:13:53Z</time>
      </trkpt>
      <trkpt lat="43.554119" lon="-7.109156">
        <ele>14.065</ele>
        <time>2019-06-19T14:13:54Z</time>
      </trkpt>
      <trkpt lat="43.554102" lon="-7.109267">
        <ele>13.966</ele>
        <time>2019-06-19T14:13:55Z</time>
      </trkpt>
      <trkpt lat="43.554071" lon="-7.109397">
        <ele>13.769</ele>
        <time>2019-06-19T14:13:56Z</time>
      </trkpt>
      <trkpt lat="43.554045" lon="-7.109536">
        <ele>13.579</ele>
        <time>2019-06-19T14:13:57Z</time>
      </trkpt>
      <trkpt lat="43.554024" lon="-7.109681">
        <ele>13.525</ele>
        <time>2019-06-19T14:13:58Z</time>
      </trkpt>
      <trkpt lat="43.553992" lon="-7.109827">
        <ele>13.843</ele>
        <time>2019-06-19T14:13:59Z</time>
      </trkpt>
      <trkpt lat="43.553953" lon="-7.109981">
        <ele>14.063</ele>
        <time>2019-06-19T14:14:00Z</time>
      </trkpt>
      <trkpt lat="43.553907" lon="-7.110146">
        <ele>14.561</ele>
        <time>2019-06-19T14:14:01Z</time>
      </trkpt>
      <trkpt lat="43.553872" lon="-7.110307">
        <ele>15.021</ele>
        <time>2019-06-19T14:14:02Z</time>
      </trkpt>
      <trkpt lat="43.553825" lon="-7.110481">
        <ele>15.013</ele>
        <time>2019-06-19T14:14:03Z</time>
      </trkpt>
      <trkpt lat="43.553786" lon="-7.110641">
        <ele>14.708</ele>
        <time>2019-06-19T14:14:04Z</time>
      </trkpt>
      <trkpt lat="43.553742" lon="-7.110805">
        <ele>14.169</ele>
        <time>2019-06-19T14:14:05Z</time>
      </trkpt>
      <trkpt lat="43.553695" lon="-7.110989">
        <ele>13.453</ele>
        <time>2019-06-19T14:14:06Z</time>
      </trkpt>
      <trkpt lat="43.553650" lon="-7.111172">
        <ele>13.074</ele>
        <time>2019-06-19T14:14:07Z</time>
      </trkpt>
      <trkpt lat="43.553604" lon="-7.111361">
        <ele>13.047</ele>
        <time>2019-06-19T14:14:08Z</time>
      </trkpt>
      <trkpt lat="43.553551" lon="-7.111544">
        <ele>13.097</ele>
        <time>2019-06-19T14:14:09Z</time>
      </trkpt>
      <trkpt lat="43.553498" lon="-7.111729">
        <ele>12.953</ele>
        <time>2019-06-19T14:14:10Z</time>
      </trkpt>
      <trkpt lat="43.553448" lon="-7.111921">
        <ele>12.691</ele>
        <time>2019-06-19T14:14:11Z</time>
      </trkpt>
      <trkpt lat="43.553399" lon="-7.112114">
        <ele>12.811</ele>
        <time>2019-06-19T14:14:12Z</time>
      </trkpt>
      <trkpt lat="43.553352" lon="-7.112300">
        <ele>13.285</ele>
        <time>2019-06-19T14:14:13Z</time>
      </trkpt>
      <trkpt lat="43.553301" lon="-7.112495">
        <ele>14.189</ele>
        <time>2019-06-19T14:14:14Z</time>
      </trkpt>
      <trkpt lat="43.553246" lon="-7.112683">
        <ele>15.017</ele>
        <time>2019-06-19T14:14:15Z</time>
      </trkpt>
      <trkpt lat="43.553190" lon="-7.112865">
        <ele>15.508</ele>
        <time>2019-06-19T14:14:16Z</time>
      </trkpt>
      <trkpt lat="43.553130" lon="-7.113024">
        <ele>15.741</ele>
        <time>2019-06-19T14:14:17Z</time>
      </trkpt>
      <trkpt lat="43.553071" lon="-7.113184">
        <ele>15.515</ele>
        <time>2019-06-19T14:14:18Z</time>
      </trkpt>
      <trkpt lat="43.553018" lon="-7.113334">
        <ele>15.056</ele>
        <time>2019-06-19T14:14:19Z</time>
      </trkpt>
      <trkpt lat="43.552988" lon="-7.113494">
        <ele>14.419</ele>
        <time>2019-06-19T14:14:20Z</time>
      </trkpt>
      <trkpt lat="43.552971" lon="-7.113666">
        <ele>13.979</ele>
        <time>2019-06-19T14:14:21Z</time>
      </trkpt>
      <trkpt lat="43.552974" lon="-7.113851">
        <ele>13.425</ele>
        <time>2019-06-19T14:14:22Z</time>
      </trkpt>
      <trkpt lat="43.552968" lon="-7.114037">
        <ele>13.313</ele>
        <time>2019-06-19T14:14:23Z</time>
      </trkpt>
      <trkpt lat="43.552954" lon="-7.114229">
        <ele>13.453</ele>
        <time>2019-06-19T14:14:24Z</time>
      </trkpt>
      <trkpt lat="43.552933" lon="-7.114423">
        <ele>13.497</ele>
        <time>2019-06-19T14:14:25Z</time>
      </trkpt>
      <trkpt lat="43.552890" lon="-7.114603">
        <ele>13.023</ele>
        <time>2019-06-19T14:14:26Z</time>
      </trkpt>
      <trkpt lat="43.552830" lon="-7.114773">
        <ele>12.625</ele>
        <time>2019-06-19T14:14:27Z</time>
      </trkpt>
      <trkpt lat="43.552759" lon="-7.114938">
        <ele>12.308</ele>
        <time>2019-06-19T14:14:28Z</time>
      </trkpt>
      <trkpt lat="43.552679" lon="-7.115110">
        <ele>13.252</ele>
        <time>2019-06-19T14:14:29Z</time>
      </trkpt>
      <trkpt lat="43.552606" lon="-7.115264">
        <ele>14.816</ele>
        <time>2019-06-19T14:14:30Z</time>
      </trkpt>
      <trkpt lat="43.552539" lon="-7.115409">
        <ele>15.767</ele>
        <time>2019-06-19T14:14:31Z</time>
      </trkpt>
      <trkpt lat="43.552473" lon="-7.115540">
        <ele>15.970</ele>
        <time>2019-06-19T14:14:32Z</time>
      </trkpt>
      <trkpt lat="43.552413" lon="-7.115664">
        <ele>15.790</ele>
        <time>2019-06-19T14:14:33Z</time>
      </trkpt>
      <trkpt lat="43.552359" lon="-7.115773">
        <ele>15.546</ele>
        <time>2019-06-19T14:14:34Z</time>
      </trkpt>
      <trkpt lat="43.552315" lon="-7.115848">
        <ele>15.324</ele>
        <time>2019-06-19T14:14:35Z</time>
      </trkpt>
      <trkpt lat="43.552277" lon="-7.115928">
        <ele>14.974</ele>
        <time>2019-06-19T14:14:36Z</time>
      </trkpt>
      <trkpt lat="43.552271" lon="-7.116036">
        <ele>14.427</ele>
        <time>2019-06-19T14:14:37Z</time>
      </trkpt>
      <trkpt lat="43.552260" lon="-7.116147">
        <ele>14.168</ele>
        <time>2019-06-19T14:14:38Z</time>
      </trkpt>
      <trkpt lat="43.552252" lon="-7.116270">
        <ele>14.014</ele>
        <time>2019-06-19T14:14:39Z</time>
      </trkpt>
      <trkpt lat="43.552246" lon="-7.116376">
        <ele>14.008</ele>
        <time>2019-06-19T14:14:40Z</time>
      </trkpt>
      <trkpt lat="43.552242" lon="-7.116483">
        <ele>14.015</ele>
        <time>2019-06-19T14:14:41Z</time>
      </trkpt>
      <trkpt lat="43.552240" lon="-7.116583">
        <ele>14.029</ele>
        <time>2019-06-19T14:14:42Z</time>
      </trkpt>
      <trkpt lat="43.552240" lon="-7.116665">
        <ele>14.050</ele>
        <time>2019-06-19T14:14:43Z</time>
      </trkpt>
      <trkpt lat="43.552214" lon="-7.116746">
        <ele>14.033</ele>
        <time>2019-06-19T14:14:44Z</time>
      </trkpt>
      <trkpt lat="43.552184" lon="-7.116820">
        <ele>14.093</ele>
        <time>2019-06-19T14:14:45Z</time>
      </trkpt>
      <trkpt lat="43.552171" lon="-7.116910">
        <ele>14.039</ele>
        <time>2019-06-19T14:14:46Z</time>
      </trkpt>
      <trkpt lat="43.552177" lon="-7.116987">
        <ele>14.147</ele>
        <time>2019-06-19T14:14:47Z</time>
      </trkpt>
      <trkpt lat="43.552180" lon="-7.117073">
        <ele>14.497</ele>
        <time>2019-06-19T14:14:48Z</time>
      </trkpt>
      <trkpt lat="43.552174" lon="-7.117153">
        <ele>14.646</ele>
        <time>2019-06-19T14:14:49Z</time>
      </trkpt>
      <trkpt lat="43.552122" lon="-7.117266">
        <ele>14.788</ele>
        <time>2019-06-19T14:14:51Z</time>
      </trkpt>
      <trkpt lat="43.552090" lon="-7.117335">
        <ele>14.716</ele>
        <time>2019-06-19T14:14:52Z</time>
      </trkpt>
      <trkpt lat="43.552058" lon="-7.117424">
        <ele>14.808</ele>
        <time>2019-06-19T14:14:53Z</time>
      </trkpt>
      <trkpt lat="43.552026" lon="-7.117516">
        <ele>15.097</ele>
        <time>2019-06-19T14:14:54Z</time>
      </trkpt>
      <trkpt lat="43.551996" lon="-7.117611">
        <ele>14.751</ele>
        <time>2019-06-19T14:14:55Z</time>
      </trkpt>
      <trkpt lat="43.551965" lon="-7.117699">
        <ele>14.382</ele>
        <time>2019-06-19T14:14:56Z</time>
      </trkpt>
      <trkpt lat="43.551926" lon="-7.117791">
        <ele>13.725</ele>
        <time>2019-06-19T14:14:57Z</time>
      </trkpt>
      <trkpt lat="43.551895" lon="-7.117900">
        <ele>12.795</ele>
        <time>2019-06-19T14:14:58Z</time>
      </trkpt>
      <trkpt lat="43.551864" lon="-7.118005">
        <ele>11.711</ele>
        <time>2019-06-19T14:14:59Z</time>
      </trkpt>
      <trkpt lat="43.551843" lon="-7.118122">
        <ele>11.099</ele>
        <time>2019-06-19T14:15:00Z</time>
      </trkpt>
      <trkpt lat="43.551827" lon="-7.118237">
        <ele>10.579</ele>
        <time>2019-06-19T14:15:01Z</time>
      </trkpt>
      <trkpt lat="43.551822" lon="-7.118341">
        <ele>10.171</ele>
        <time>2019-06-19T14:15:02Z</time>
      </trkpt>
      <trkpt lat="43.551816" lon="-7.118452">
        <ele>10.041</ele>
        <time>2019-06-19T14:15:03Z</time>
      </trkpt>
      <trkpt lat="43.551813" lon="-7.118552">
        <ele>10.015</ele>
        <time>2019-06-19T14:15:04Z</time>
      </trkpt>
      <trkpt lat="43.551806" lon="-7.118661">
        <ele>10.308</ele>
        <time>2019-06-19T14:15:05Z</time>
      </trkpt>
      <trkpt lat="43.551803" lon="-7.118770">
        <ele>10.920</ele>
        <time>2019-06-19T14:15:06Z</time>
      </trkpt>
      <trkpt lat="43.551792" lon="-7.118883">
        <ele>11.584</ele>
        <time>2019-06-19T14:15:07Z</time>
      </trkpt>
      <trkpt lat="43.551773" lon="-7.118987">
        <ele>12.055</ele>
        <time>2019-06-19T14:15:08Z</time>
      </trkpt>
      <trkpt lat="43.551746" lon="-7.119073">
        <ele>12.478</ele>
        <time>2019-06-19T14:15:09Z</time>
      </trkpt>
      <trkpt lat="43.551697" lon="-7.119163">
        <ele>12.988</ele>
        <time>2019-06-19T14:15:10Z</time>
      </trkpt>
      <trkpt lat="43.551640" lon="-7.119241">
        <ele>13.054</ele>
        <time>2019-06-19T14:15:11Z</time>
      </trkpt>
      <trkpt lat="43.551583" lon="-7.119321">
        <ele>13.062</ele>
        <time>2019-06-19T14:15:12Z</time>
      </trkpt>
      <trkpt lat="43.551531" lon="-7.119411">
        <ele>13.082</ele>
        <time>2019-06-19T14:15:13Z</time>
      </trkpt>
      <trkpt lat="43.551489" lon="-7.119516">
        <ele>12.785</ele>
        <time>2019-06-19T14:15:14Z</time>
      </trkpt>
      <trkpt lat="43.551459" lon="-7.119631">
        <ele>12.389</ele>
        <time>2019-06-19T14:15:15Z</time>
      </trkpt>
      <trkpt lat="43.551439" lon="-7.119738">
        <ele>12.017</ele>
        <time>2019-06-19T14:15:16Z</time>
      </trkpt>
      <trkpt lat="43.551423" lon="-7.119852">
        <ele>12.008</ele>
        <time>2019-06-19T14:15:17Z</time>
      </trkpt>
      <trkpt lat="43.551412" lon="-7.119961">
        <ele>12.051</ele>
        <time>2019-06-19T14:15:18Z</time>
      </trkpt>
      <trkpt lat="43.551400" lon="-7.120074">
        <ele>12.075</ele>
        <time>2019-06-19T14:15:19Z</time>
      </trkpt>
      <trkpt lat="43.551394" lon="-7.120175">
        <ele>12.016</ele>
        <time>2019-06-19T14:15:20Z</time>
      </trkpt>
      <trkpt lat="43.551395" lon="-7.120280">
        <ele>12.029</ele>
        <time>2019-06-19T14:15:21Z</time>
      </trkpt>
      <trkpt lat="43.551404" lon="-7.120384">
        <ele>12.139</ele>
        <time>2019-06-19T14:15:22Z</time>
      </trkpt>
      <trkpt lat="43.551417" lon="-7.120481">
        <ele>12.155</ele>
        <time>2019-06-19T14:15:23Z</time>
      </trkpt>
      <trkpt lat="43.551439" lon="-7.120575">
        <ele>12.243</ele>
        <time>2019-06-19T14:15:24Z</time>
      </trkpt>
      <trkpt lat="43.551474" lon="-7.120667">
        <ele>12.653</ele>
        <time>2019-06-19T14:15:25Z</time>
      </trkpt>
      <trkpt lat="43.551507" lon="-7.120743">
        <ele>12.859</ele>
        <time>2019-06-19T14:15:26Z</time>
      </trkpt>
      <trkpt lat="43.551534" lon="-7.120819">
        <ele>13.003</ele>
        <time>2019-06-19T14:15:27Z</time>
      </trkpt>
      <trkpt lat="43.551568" lon="-7.120892">
        <ele>13.223</ele>
        <time>2019-06-19T14:15:28Z</time>
      </trkpt>
      <trkpt lat="43.551614" lon="-7.120936">
        <ele>13.408</ele>
        <time>2019-06-19T14:15:29Z</time>
      </trkpt>
      <trkpt lat="43.551665" lon="-7.120949">
        <ele>13.428</ele>
        <time>2019-06-19T14:15:30Z</time>
      </trkpt>
      <trkpt lat="43.551790" lon="-7.120905">
        <ele>13.122</ele>
        <time>2019-06-19T14:15:32Z</time>
      </trkpt>
      <trkpt lat="43.551902" lon="-7.120852">
        <ele>13.023</ele>
        <time>2019-06-19T14:15:33Z</time>
      </trkpt>
      <trkpt lat="43.552083" lon="-7.120811">
        <ele>13.536</ele>
        <time>2019-06-19T14:15:34Z</time>
      </trkpt>
      <trkpt lat="43.552242" lon="-7.120748">
        <ele>14.066</ele>
        <time>2019-06-19T14:15:35Z</time>
      </trkpt>
      <trkpt lat="43.552396" lon="-7.120702">
        <ele>13.712</ele>
        <time>2019-06-19T14:15:36Z</time>
      </trkpt>
      <trkpt lat="43.552519" lon="-7.120661">
        <ele>13.450</ele>
        <time>2019-06-19T14:15:37Z</time>
      </trkpt>
      <trkpt lat="43.552644" lon="-7.120624">
        <ele>13.630</ele>
        <time>2019-06-19T14:15:38Z</time>
      </trkpt>
      <trkpt lat="43.552779" lon="-7.120593">
        <ele>14.031</ele>
        <time>2019-06-19T14:15:39Z</time>
      </trkpt>
      <trkpt lat="43.552915" lon="-7.120555">
        <ele>13.561</ele>
        <time>2019-06-19T14:15:40Z</time>
      </trkpt>
      <trkpt lat="43.553034" lon="-7.120516">
        <ele>13.207</ele>
        <time>2019-06-19T14:15:41Z</time>
      </trkpt>
      <trkpt lat="43.553134" lon="-7.120487">
        <ele>13.208</ele>
        <time>2019-06-19T14:15:42Z</time>
      </trkpt>
      <trkpt lat="43.553209" lon="-7.120481">
        <ele>13.116</ele>
        <time>2019-06-19T14:15:43Z</time>
      </trkpt>
      <trkpt lat="43.553267" lon="-7.120496">
        <ele>13.140</ele>
        <time>2019-06-19T14:15:44Z</time>
      </trkpt>
      <trkpt lat="43.553322" lon="-7.120534">
        <ele>13.091</ele>
        <time>2019-06-19T14:15:45Z</time>
      </trkpt>
      <trkpt lat="43.553347" lon="-7.120596">
        <ele>13.074</ele>
        <time>2019-06-19T14:15:46Z</time>
      </trkpt>
      <trkpt lat="43.553348" lon="-7.120754">
        <ele>13.034</ele>
        <time>2019-06-19T14:15:48Z</time>
      </trkpt>
      <trkpt lat="43.553342" lon="-7.120864">
        <ele>13.150</ele>
        <time>2019-06-19T14:15:49Z</time>
      </trkpt>
      <trkpt lat="43.553336" lon="-7.120995">
        <ele>13.698</ele>
        <time>2019-06-19T14:15:50Z</time>
      </trkpt>
      <trkpt lat="43.553331" lon="-7.121133">
        <ele>14.068</ele>
        <time>2019-06-19T14:15:51Z</time>
      </trkpt>
      <trkpt lat="43.553320" lon="-7.121290">
        <ele>14.023</ele>
        <time>2019-06-19T14:15:52Z</time>
      </trkpt>
      <trkpt lat="43.553313" lon="-7.121470">
        <ele>14.083</ele>
        <time>2019-06-19T14:15:53Z</time>
      </trkpt>
      <trkpt lat="43.553307" lon="-7.121661">
        <ele>13.911</ele>
        <time>2019-06-19T14:15:54Z</time>
      </trkpt>
      <trkpt lat="43.553299" lon="-7.121850">
        <ele>13.908</ele>
        <time>2019-06-19T14:15:55Z</time>
      </trkpt>
      <trkpt lat="43.553292" lon="-7.122042">
        <ele>13.635</ele>
        <time>2019-06-19T14:15:56Z</time>
      </trkpt>
      <trkpt lat="43.553284" lon="-7.122231">
        <ele>13.039</ele>
        <time>2019-06-19T14:15:57Z</time>
      </trkpt>
      <trkpt lat="43.553270" lon="-7.122426">
        <ele>13.020</ele>
        <time>2019-06-19T14:15:58Z</time>
      </trkpt>
      <trkpt lat="43.553267" lon="-7.122598">
        <ele>13.443</ele>
        <time>2019-06-19T14:15:59Z</time>
      </trkpt>
      <trkpt lat="43.553266" lon="-7.122765">
        <ele>14.063</ele>
        <time>2019-06-19T14:16:00Z</time>
      </trkpt>
      <trkpt lat="43.553256" lon="-7.122934">
        <ele>14.429</ele>
        <time>2019-06-19T14:16:01Z</time>
      </trkpt>
      <trkpt lat="43.553246" lon="-7.123087">
        <ele>14.657</ele>
        <time>2019-06-19T14:16:02Z</time>
      </trkpt>
      <trkpt lat="43.553238" lon="-7.123235">
        <ele>14.237</ele>
        <time>2019-06-19T14:16:03Z</time>
      </trkpt>
      <trkpt lat="43.553227" lon="-7.123379">
        <ele>13.894</ele>
        <time>2019-06-19T14:16:04Z</time>
      </trkpt>
      <trkpt lat="43.553217" lon="-7.123527">
        <ele>13.357</ele>
        <time>2019-06-19T14:16:05Z</time>
      </trkpt>
      <trkpt lat="43.553216" lon="-7.123659">
        <ele>12.622</ele>
        <time>2019-06-19T14:16:06Z</time>
      </trkpt>
      <trkpt lat="43.553214" lon="-7.123794">
        <ele>11.308</ele>
        <time>2019-06-19T14:16:07Z</time>
      </trkpt>
      <trkpt lat="43.553225" lon="-7.123930">
        <ele>10.282</ele>
        <time>2019-06-19T14:16:08Z</time>
      </trkpt>
      <trkpt lat="43.553237" lon="-7.124064">
        <ele>9.396</ele>
        <time>2019-06-19T14:16:09Z</time>
      </trkpt>
      <trkpt lat="43.553265" lon="-7.124178">
        <ele>8.517</ele>
        <time>2019-06-19T14:16:10Z</time>
      </trkpt>
      <trkpt lat="43.553346" lon="-7.124307">
        <ele>7.480</ele>
        <time>2019-06-19T14:16:11Z</time>
      </trkpt>
      <trkpt lat="43.553404" lon="-7.124433">
        <ele>6.020</ele>
        <time>2019-06-19T14:16:12Z</time>
      </trkpt>
      <trkpt lat="43.553457" lon="-7.124539">
        <ele>5.266</ele>
        <time>2019-06-19T14:16:13Z</time>
      </trkpt>
      <trkpt lat="43.553491" lon="-7.124620">
        <ele>4.744</ele>
        <time>2019-06-19T14:16:14Z</time>
      </trkpt>
      <trkpt lat="43.553525" lon="-7.124668">
        <ele>4.244</ele>
        <time>2019-06-19T14:16:15Z</time>
      </trkpt>
      <trkpt lat="43.553574" lon="-7.124775">
        <ele>3.978</ele>
        <time>2019-06-19T14:16:20Z</time>
      </trkpt>
      <trkpt lat="43.553606" lon="-7.124842">
        <ele>3.933</ele>
        <time>2019-06-19T14:16:21Z</time>
      </trkpt>
      <trkpt lat="43.553644" lon="-7.124932">
        <ele>4.326</ele>
        <time>2019-06-19T14:16:22Z</time>
      </trkpt>
      <trkpt lat="43.553704" lon="-7.125051">
        <ele>4.808</ele>
        <time>2019-06-19T14:16:23Z</time>
      </trkpt>
      <trkpt lat="43.553773" lon="-7.125180">
        <ele>5.410</ele>
        <time>2019-06-19T14:16:24Z</time>
      </trkpt>
      <trkpt lat="43.553848" lon="-7.125309">
        <ele>5.814</ele>
        <time>2019-06-19T14:16:25Z</time>
      </trkpt>
      <trkpt lat="43.553896" lon="-7.125443">
        <ele>6.835</ele>
        <time>2019-06-19T14:16:26Z</time>
      </trkpt>
      <trkpt lat="43.553951" lon="-7.125576">
        <ele>7.738</ele>
        <time>2019-06-19T14:16:27Z</time>
      </trkpt>
      <trkpt lat="43.554009" lon="-7.125717">
        <ele>8.318</ele>
        <time>2019-06-19T14:16:28Z</time>
      </trkpt>
      <trkpt lat="43.554062" lon="-7.125864">
        <ele>9.084</ele>
        <time>2019-06-19T14:16:29Z</time>
      </trkpt>
      <trkpt lat="43.554098" lon="-7.126019">
        <ele>9.892</ele>
        <time>2019-06-19T14:16:30Z</time>
      </trkpt>
      <trkpt lat="43.554153" lon="-7.126153">
        <ele>10.242</ele>
        <time>2019-06-19T14:16:31Z</time>
      </trkpt>
      <trkpt lat="43.554181" lon="-7.126336">
        <ele>10.827</ele>
        <time>2019-06-19T14:16:32Z</time>
      </trkpt>
      <trkpt lat="43.554226" lon="-7.126503">
        <ele>10.968</ele>
        <time>2019-06-19T14:16:33Z</time>
      </trkpt>
      <trkpt lat="43.554259" lon="-7.126694">
        <ele>11.014</ele>
        <time>2019-06-19T14:16:34Z</time>
      </trkpt>
      <trkpt lat="43.554298" lon="-7.126871">
        <ele>11.008</ele>
        <time>2019-06-19T14:16:35Z</time>
      </trkpt>
      <trkpt lat="43.554343" lon="-7.127054">
        <ele>11.085</ele>
        <time>2019-06-19T14:16:36Z</time>
      </trkpt>
      <trkpt lat="43.554377" lon="-7.127231">
        <ele>11.069</ele>
        <time>2019-06-19T14:16:37Z</time>
      </trkpt>
      <trkpt lat="43.554400" lon="-7.127408">
        <ele>11.760</ele>
        <time>2019-06-19T14:16:38Z</time>
      </trkpt>
      <trkpt lat="43.554446" lon="-7.127585">
        <ele>12.363</ele>
        <time>2019-06-19T14:16:39Z</time>
      </trkpt>
      <trkpt lat="43.554477" lon="-7.127760">
        <ele>13.113</ele>
        <time>2019-06-19T14:16:40Z</time>
      </trkpt>
      <trkpt lat="43.554505" lon="-7.127935">
        <ele>13.929</ele>
        <time>2019-06-19T14:16:41Z</time>
      </trkpt>
      <trkpt lat="43.554542" lon="-7.128101">
        <ele>14.867</ele>
        <time>2019-06-19T14:16:42Z</time>
      </trkpt>
      <trkpt lat="43.554573" lon="-7.128268">
        <ele>15.397</ele>
        <time>2019-06-19T14:16:43Z</time>
      </trkpt>
      <trkpt lat="43.554600" lon="-7.128427">
        <ele>15.417</ele>
        <time>2019-06-19T14:16:44Z</time>
      </trkpt>
      <trkpt lat="43.554618" lon="-7.128576">
        <ele>15.387</ele>
        <time>2019-06-19T14:16:45Z</time>
      </trkpt>
      <trkpt lat="43.554654" lon="-7.128733">
        <ele>15.215</ele>
        <time>2019-06-19T14:16:46Z</time>
      </trkpt>
      <trkpt lat="43.554682" lon="-7.128886">
        <ele>14.908</ele>
        <time>2019-06-19T14:16:47Z</time>
      </trkpt>
      <trkpt lat="43.554733" lon="-7.129028">
        <ele>15.014</ele>
        <time>2019-06-19T14:16:48Z</time>
      </trkpt>
      <trkpt lat="43.554753" lon="-7.129172">
        <ele>14.998</ele>
        <time>2019-06-19T14:16:49Z</time>
      </trkpt>
      <trkpt lat="43.554788" lon="-7.129303">
        <ele>14.819</ele>
        <time>2019-06-19T14:16:50Z</time>
      </trkpt>
      <trkpt lat="43.554814" lon="-7.129432">
        <ele>14.742</ele>
        <time>2019-06-19T14:16:51Z</time>
      </trkpt>
      <trkpt lat="43.554832" lon="-7.129545">
        <ele>14.562</ele>
        <time>2019-06-19T14:16:52Z</time>
      </trkpt>
      <trkpt lat="43.554833" lon="-7.129648">
        <ele>14.318</ele>
        <time>2019-06-19T14:16:53Z</time>
      </trkpt>
      <trkpt lat="43.554829" lon="-7.129726">
        <ele>14.216</ele>
        <time>2019-06-19T14:16:54Z</time>
      </trkpt>
      <trkpt lat="43.554821" lon="-7.129802">
        <ele>14.496</ele>
        <time>2019-06-19T14:16:55Z</time>
      </trkpt>
      <trkpt lat="43.554775" lon="-7.129856">
        <ele>14.747</ele>
        <time>2019-06-19T14:16:56Z</time>
      </trkpt>
      <trkpt lat="43.554719" lon="-7.129939">
        <ele>15.029</ele>
        <time>2019-06-19T14:16:57Z</time>
      </trkpt>
      <trkpt lat="43.554671" lon="-7.130009">
        <ele>14.821</ele>
        <time>2019-06-19T14:16:58Z</time>
      </trkpt>
      <trkpt lat="43.554616" lon="-7.130084">
        <ele>14.408</ele>
        <time>2019-06-19T14:16:59Z</time>
      </trkpt>
      <trkpt lat="43.554579" lon="-7.130149">
        <ele>14.297</ele>
        <time>2019-06-19T14:17:00Z</time>
      </trkpt>
      <trkpt lat="43.554546" lon="-7.130235">
        <ele>14.131</ele>
        <time>2019-06-19T14:17:01Z</time>
      </trkpt>
      <trkpt lat="43.554526" lon="-7.130303">
        <ele>14.032</ele>
        <time>2019-06-19T14:17:02Z</time>
      </trkpt>
      <trkpt lat="43.554514" lon="-7.130371">
        <ele>14.095</ele>
        <time>2019-06-19T14:17:03Z</time>
      </trkpt>
      <trkpt lat="43.554490" lon="-7.130466">
        <ele>14.045</ele>
        <time>2019-06-19T14:17:04Z</time>
      </trkpt>
      <trkpt lat="43.554506" lon="-7.130547">
        <ele>14.021</ele>
        <time>2019-06-19T14:17:05Z</time>
      </trkpt>
      <trkpt lat="43.554522" lon="-7.130635">
        <ele>14.239</ele>
        <time>2019-06-19T14:17:06Z</time>
      </trkpt>
      <trkpt lat="43.554553" lon="-7.130748">
        <ele>14.439</ele>
        <time>2019-06-19T14:17:07Z</time>
      </trkpt>
      <trkpt lat="43.554570" lon="-7.130869">
        <ele>14.628</ele>
        <time>2019-06-19T14:17:08Z</time>
      </trkpt>
      <trkpt lat="43.554601" lon="-7.131011">
        <ele>14.889</ele>
        <time>2019-06-19T14:17:09Z</time>
      </trkpt>
      <trkpt lat="43.554624" lon="-7.131151">
        <ele>15.117</ele>
        <time>2019-06-19T14:17:10Z</time>
      </trkpt>
      <trkpt lat="43.554644" lon="-7.131290">
        <ele>15.208</ele>
        <time>2019-06-19T14:17:11Z</time>
      </trkpt>
      <trkpt lat="43.554654" lon="-7.131468">
        <ele>15.255</ele>
        <time>2019-06-19T14:17:12Z</time>
      </trkpt>
      <trkpt lat="43.554657" lon="-7.131657">
        <ele>15.029</ele>
        <time>2019-06-19T14:17:13Z</time>
      </trkpt>
      <trkpt lat="43.554674" lon="-7.131851">
        <ele>14.340</ele>
        <time>2019-06-19T14:17:14Z</time>
      </trkpt>
      <trkpt lat="43.554696" lon="-7.132035">
        <ele>13.773</ele>
        <time>2019-06-19T14:17:15Z</time>
      </trkpt>
      <trkpt lat="43.554712" lon="-7.132213">
        <ele>13.163</ele>
        <time>2019-06-19T14:17:16Z</time>
      </trkpt>
      <trkpt lat="43.554723" lon="-7.132389">
        <ele>13.029</ele>
        <time>2019-06-19T14:17:17Z</time>
      </trkpt>
      <trkpt lat="43.554734" lon="-7.132560">
        <ele>12.647</ele>
        <time>2019-06-19T14:17:18Z</time>
      </trkpt>
      <trkpt lat="43.554730" lon="-7.132736">
        <ele>12.037</ele>
        <time>2019-06-19T14:17:19Z</time>
      </trkpt>
      <trkpt lat="43.554747" lon="-7.132863">
        <ele>11.458</ele>
        <time>2019-06-19T14:17:20Z</time>
      </trkpt>
      <trkpt lat="43.554756" lon="-7.133013">
        <ele>10.952</ele>
        <time>2019-06-19T14:17:21Z</time>
      </trkpt>
      <trkpt lat="43.554764" lon="-7.133151">
        <ele>11.017</ele>
        <time>2019-06-19T14:17:22Z</time>
      </trkpt>
      <trkpt lat="43.554766" lon="-7.133287">
        <ele>11.508</ele>
        <time>2019-06-19T14:17:23Z</time>
      </trkpt>
      <trkpt lat="43.554772" lon="-7.133412">
        <ele>11.658</ele>
        <time>2019-06-19T14:17:24Z</time>
      </trkpt>
      <trkpt lat="43.554777" lon="-7.133529">
        <ele>11.652</ele>
        <time>2019-06-19T14:17:25Z</time>
      </trkpt>
      <trkpt lat="43.554774" lon="-7.133627">
        <ele>11.673</ele>
        <time>2019-06-19T14:17:26Z</time>
      </trkpt>
      <trkpt lat="43.554780" lon="-7.133712">
        <ele>11.226</ele>
        <time>2019-06-19T14:17:27Z</time>
      </trkpt>
      <trkpt lat="43.554780" lon="-7.133774">
        <ele>11.066</ele>
        <time>2019-06-19T14:17:28Z</time>
      </trkpt>
      <trkpt lat="43.554812" lon="-7.133841">
        <ele>10.592</ele>
        <time>2019-06-19T14:17:30Z</time>
      </trkpt>
      <trkpt lat="43.554847" lon="-7.133890">
        <ele>10.130</ele>
        <time>2019-06-19T14:17:32Z</time>
      </trkpt>
      <trkpt lat="43.554850" lon="-7.133962">
        <ele>9.730</ele>
        <time>2019-06-19T14:17:35Z</time>
      </trkpt>
      <trkpt lat="43.554817" lon="-7.134013">
        <ele>9.754</ele>
        <time>2019-06-19T14:17:48Z</time>
      </trkpt>
      <trkpt lat="43.554782" lon="-7.134064">
        <ele>9.856</ele>
        <time>2019-06-19T14:18:50Z</time>
      </trkpt>
      <trkpt lat="43.554734" lon="-7.134142">
        <ele>10.011</ele>
        <time>2019-06-19T14:18:51Z</time>
      </trkpt>
      <trkpt lat="43.554694" lon="-7.134236">
        <ele>9.508</ele>
        <time>2019-06-19T14:18:52Z</time>
      </trkpt>
      <trkpt lat="43.554646" lon="-7.134326">
        <ele>9.168</ele>
        <time>2019-06-19T14:18:53Z</time>
      </trkpt>
      <trkpt lat="43.554580" lon="-7.134440">
        <ele>9.052</ele>
        <time>2019-06-19T14:18:54Z</time>
      </trkpt>
      <trkpt lat="43.554522" lon="-7.134543">
        <ele>9.453</ele>
        <time>2019-06-19T14:18:55Z</time>
      </trkpt>
      <trkpt lat="43.554463" lon="-7.134647">
        <ele>9.986</ele>
        <time>2019-06-19T14:18:56Z</time>
      </trkpt>
      <trkpt lat="43.554408" lon="-7.134747">
        <ele>10.316</ele>
        <time>2019-06-19T14:18:57Z</time>
      </trkpt>
      <trkpt lat="43.554365" lon="-7.134850">
        <ele>10.842</ele>
        <time>2019-06-19T14:18:58Z</time>
      </trkpt>
      <trkpt lat="43.554342" lon="-7.134973">
        <ele>11.010</ele>
        <time>2019-06-19T14:18:59Z</time>
      </trkpt>
      <trkpt lat="43.554347" lon="-7.135093">
        <ele>11.380</ele>
        <time>2019-06-19T14:19:00Z</time>
      </trkpt>
      <trkpt lat="43.554363" lon="-7.135229">
        <ele>11.838</ele>
        <time>2019-06-19T14:19:01Z</time>
      </trkpt>
      <trkpt lat="43.554384" lon="-7.135387">
        <ele>12.370</ele>
        <time>2019-06-19T14:19:02Z</time>
      </trkpt>
      <trkpt lat="43.554411" lon="-7.135534">
        <ele>12.817</ele>
        <time>2019-06-19T14:19:03Z</time>
      </trkpt>
      <trkpt lat="43.554444" lon="-7.135671">
        <ele>13.008</ele>
        <time>2019-06-19T14:19:04Z</time>
      </trkpt>
      <trkpt lat="43.554499" lon="-7.135799">
        <ele>13.016</ele>
        <time>2019-06-19T14:19:05Z</time>
      </trkpt>
      <trkpt lat="43.554574" lon="-7.135914">
        <ele>13.210</ele>
        <time>2019-06-19T14:19:06Z</time>
      </trkpt>
      <trkpt lat="43.554651" lon="-7.136017">
        <ele>13.261</ele>
        <time>2019-06-19T14:19:07Z</time>
      </trkpt>
      <trkpt lat="43.554724" lon="-7.136124">
        <ele>13.024</ele>
        <time>2019-06-19T14:19:08Z</time>
      </trkpt>
      <trkpt lat="43.554786" lon="-7.136245">
        <ele>13.134</ele>
        <time>2019-06-19T14:19:09Z</time>
      </trkpt>
      <trkpt lat="43.554811" lon="-7.136369">
        <ele>13.350</ele>
        <time>2019-06-19T14:19:10Z</time>
      </trkpt>
      <trkpt lat="43.554867" lon="-7.136503">
        <ele>13.098</ele>
        <time>2019-06-19T14:19:11Z</time>
      </trkpt>
      <trkpt lat="43.554926" lon="-7.136649">
        <ele>12.558</ele>
        <time>2019-06-19T14:19:12Z</time>
      </trkpt>
      <trkpt lat="43.554973" lon="-7.136773">
        <ele>12.266</ele>
        <time>2019-06-19T14:19:13Z</time>
      </trkpt>
      <trkpt lat="43.555019" lon="-7.136896">
        <ele>11.929</ele>
        <time>2019-06-19T14:19:14Z</time>
      </trkpt>
      <trkpt lat="43.555066" lon="-7.137017">
        <ele>11.621</ele>
        <time>2019-06-19T14:19:15Z</time>
      </trkpt>
      <trkpt lat="43.555098" lon="-7.137140">
        <ele>11.208</ele>
        <time>2019-06-19T14:19:16Z</time>
      </trkpt>
      <trkpt lat="43.555127" lon="-7.137261">
        <ele>11.099</ele>
        <time>2019-06-19T14:19:17Z</time>
      </trkpt>
      <trkpt lat="43.555142" lon="-7.137397">
        <ele>11.053</ele>
        <time>2019-06-19T14:19:18Z</time>
      </trkpt>
      <trkpt lat="43.555147" lon="-7.137541">
        <ele>11.024</ele>
        <time>2019-06-19T14:19:19Z</time>
      </trkpt>
      <trkpt lat="43.555147" lon="-7.137679">
        <ele>11.067</ele>
        <time>2019-06-19T14:19:20Z</time>
      </trkpt>
      <trkpt lat="43.555148" lon="-7.137826">
        <ele>11.077</ele>
        <time>2019-06-19T14:19:21Z</time>
      </trkpt>
      <trkpt lat="43.555154" lon="-7.137979">
        <ele>11.083</ele>
        <time>2019-06-19T14:19:22Z</time>
      </trkpt>
      <trkpt lat="43.555156" lon="-7.138136">
        <ele>11.161</ele>
        <time>2019-06-19T14:19:23Z</time>
      </trkpt>
      <trkpt lat="43.555148" lon="-7.138321">
        <ele>11.491</ele>
        <time>2019-06-19T14:19:24Z</time>
      </trkpt>
      <trkpt lat="43.555137" lon="-7.138521">
        <ele>11.549</ele>
        <time>2019-06-19T14:19:25Z</time>
      </trkpt>
      <trkpt lat="43.555127" lon="-7.138714">
        <ele>11.802</ele>
        <time>2019-06-19T14:19:26Z</time>
      </trkpt>
      <trkpt lat="43.555111" lon="-7.138908">
        <ele>12.222</ele>
        <time>2019-06-19T14:19:27Z</time>
      </trkpt>
      <trkpt lat="43.555090" lon="-7.139100">
        <ele>12.408</ele>
        <time>2019-06-19T14:19:28Z</time>
      </trkpt>
      <trkpt lat="43.555067" lon="-7.139304">
        <ele>12.037</ele>
        <time>2019-06-19T14:19:29Z</time>
      </trkpt>
      <trkpt lat="43.555040" lon="-7.139503">
        <ele>11.791</ele>
        <time>2019-06-19T14:19:30Z</time>
      </trkpt>
      <trkpt lat="43.555006" lon="-7.139697">
        <ele>11.932</ele>
        <time>2019-06-19T14:19:31Z</time>
      </trkpt>
      <trkpt lat="43.554965" lon="-7.139890">
        <ele>12.945</ele>
        <time>2019-06-19T14:19:32Z</time>
      </trkpt>
      <trkpt lat="43.554921" lon="-7.140079">
        <ele>13.415</ele>
        <time>2019-06-19T14:19:33Z</time>
      </trkpt>
      <trkpt lat="43.554872" lon="-7.140264">
        <ele>13.421</ele>
        <time>2019-06-19T14:19:34Z</time>
      </trkpt>
      <trkpt lat="43.554832" lon="-7.140462">
        <ele>13.429</ele>
        <time>2019-06-19T14:19:35Z</time>
      </trkpt>
      <trkpt lat="43.554792" lon="-7.140639">
        <ele>12.729</ele>
        <time>2019-06-19T14:19:36Z</time>
      </trkpt>
      <trkpt lat="43.554754" lon="-7.140799">
        <ele>11.399</ele>
        <time>2019-06-19T14:19:37Z</time>
      </trkpt>
      <trkpt lat="43.554724" lon="-7.140961">
        <ele>11.507</ele>
        <time>2019-06-19T14:19:38Z</time>
      </trkpt>
      <trkpt lat="43.554712" lon="-7.141102">
        <ele>12.027</ele>
        <time>2019-06-19T14:19:39Z</time>
      </trkpt>
      <trkpt lat="43.554720" lon="-7.141240">
        <ele>12.008</ele>
        <time>2019-06-19T14:19:40Z</time>
      </trkpt>
      <trkpt lat="43.554764" lon="-7.141351">
        <ele>11.732</ele>
        <time>2019-06-19T14:19:41Z</time>
      </trkpt>
      <trkpt lat="43.554813" lon="-7.141486">
        <ele>11.886</ele>
        <time>2019-06-19T14:19:42Z</time>
      </trkpt>
      <trkpt lat="43.554898" lon="-7.141620">
        <ele>12.137</ele>
        <time>2019-06-19T14:19:43Z</time>
      </trkpt>
      <trkpt lat="43.554979" lon="-7.141762">
        <ele>12.440</ele>
        <time>2019-06-19T14:19:44Z</time>
      </trkpt>
      <trkpt lat="43.555051" lon="-7.141899">
        <ele>12.650</ele>
        <time>2019-06-19T14:19:45Z</time>
      </trkpt>
      <trkpt lat="43.555093" lon="-7.142020">
        <ele>12.746</ele>
        <time>2019-06-19T14:19:46Z</time>
      </trkpt>
      <trkpt lat="43.555106" lon="-7.142150">
        <ele>12.674</ele>
        <time>2019-06-19T14:19:47Z</time>
      </trkpt>
      <trkpt lat="43.555107" lon="-7.142279">
        <ele>12.384</ele>
        <time>2019-06-19T14:19:48Z</time>
      </trkpt>
      <trkpt lat="43.555085" lon="-7.142413">
        <ele>11.846</ele>
        <time>2019-06-19T14:19:49Z</time>
      </trkpt>
      <trkpt lat="43.555050" lon="-7.142559">
        <ele>11.488</ele>
        <time>2019-06-19T14:19:50Z</time>
      </trkpt>
      <trkpt lat="43.555007" lon="-7.142710">
        <ele>11.216</ele>
        <time>2019-06-19T14:19:51Z</time>
      </trkpt>
      <trkpt lat="43.554952" lon="-7.142867">
        <ele>11.308</ele>
        <time>2019-06-19T14:19:52Z</time>
      </trkpt>
      <trkpt lat="43.554893" lon="-7.143026">
        <ele>11.497</ele>
        <time>2019-06-19T14:19:53Z</time>
      </trkpt>
      <trkpt lat="43.554842" lon="-7.143194">
        <ele>11.181</ele>
        <time>2019-06-19T14:19:54Z</time>
      </trkpt>
      <trkpt lat="43.554784" lon="-7.143375">
        <ele>10.942</ele>
        <time>2019-06-19T14:19:55Z</time>
      </trkpt>
      <trkpt lat="43.554718" lon="-7.143560">
        <ele>11.865</ele>
        <time>2019-06-19T14:19:56Z</time>
      </trkpt>
      <trkpt lat="43.554661" lon="-7.143748">
        <ele>12.185</ele>
        <time>2019-06-19T14:19:57Z</time>
      </trkpt>
      <trkpt lat="43.554609" lon="-7.143923">
        <ele>12.421</ele>
        <time>2019-06-19T14:19:58Z</time>
      </trkpt>
      <trkpt lat="43.554560" lon="-7.144082">
        <ele>12.699</ele>
        <time>2019-06-19T14:19:59Z</time>
      </trkpt>
      <trkpt lat="43.554508" lon="-7.144262">
        <ele>12.859</ele>
        <time>2019-06-19T14:20:00Z</time>
      </trkpt>
      <trkpt lat="43.554455" lon="-7.144444">
        <ele>13.015</ele>
        <time>2019-06-19T14:20:01Z</time>
      </trkpt>
      <trkpt lat="43.554399" lon="-7.144624">
        <ele>13.065</ele>
        <time>2019-06-19T14:20:02Z</time>
      </trkpt>
      <trkpt lat="43.554349" lon="-7.144795">
        <ele>13.111</ele>
        <time>2019-06-19T14:20:03Z</time>
      </trkpt>
      <trkpt lat="43.554290" lon="-7.144958">
        <ele>13.508</ele>
        <time>2019-06-19T14:20:04Z</time>
      </trkpt>
      <trkpt lat="43.554219" lon="-7.145123">
        <ele>13.444</ele>
        <time>2019-06-19T14:20:05Z</time>
      </trkpt>
      <trkpt lat="43.554151" lon="-7.145258">
        <ele>13.168</ele>
        <time>2019-06-19T14:20:06Z</time>
      </trkpt>
      <trkpt lat="43.554078" lon="-7.145392">
        <ele>12.949</ele>
        <time>2019-06-19T14:20:07Z</time>
      </trkpt>
      <trkpt lat="43.553999" lon="-7.145524">
        <ele>12.772</ele>
        <time>2019-06-19T14:20:08Z</time>
      </trkpt>
      <trkpt lat="43.553927" lon="-7.145648">
        <ele>12.322</ele>
        <time>2019-06-19T14:20:09Z</time>
      </trkpt>
      <trkpt lat="43.553863" lon="-7.145769">
        <ele>11.398</ele>
        <time>2019-06-19T14:20:10Z</time>
      </trkpt>
      <trkpt lat="43.553800" lon="-7.145887">
        <ele>9.976</ele>
        <time>2019-06-19T14:20:11Z</time>
      </trkpt>
      <trkpt lat="43.553752" lon="-7.145987">
        <ele>8.696</ele>
        <time>2019-06-19T14:20:12Z</time>
      </trkpt>
      <trkpt lat="43.553714" lon="-7.146086">
        <ele>7.397</ele>
        <time>2019-06-19T14:20:13Z</time>
      </trkpt>
      <trkpt lat="43.553677" lon="-7.146188">
        <ele>6.423</ele>
        <time>2019-06-19T14:20:14Z</time>
      </trkpt>
      <trkpt lat="43.553657" lon="-7.146302">
        <ele>5.725</ele>
        <time>2019-06-19T14:20:15Z</time>
      </trkpt>
      <trkpt lat="43.553644" lon="-7.146417">
        <ele>5.208</ele>
        <time>2019-06-19T14:20:16Z</time>
      </trkpt>
      <trkpt lat="43.553658" lon="-7.146498">
        <ele>5.382</ele>
        <time>2019-06-19T14:20:17Z</time>
      </trkpt>
      <trkpt lat="43.553657" lon="-7.146587">
        <ele>5.256</ele>
        <time>2019-06-19T14:20:18Z</time>
      </trkpt>
      <trkpt lat="43.553651" lon="-7.146683">
        <ele>5.197</ele>
        <time>2019-06-19T14:20:19Z</time>
      </trkpt>
      <trkpt lat="43.553634" lon="-7.146762">
        <ele>5.120</ele>
        <time>2019-06-19T14:20:20Z</time>
      </trkpt>
      <trkpt lat="43.553608" lon="-7.146849">
        <ele>5.090</ele>
        <time>2019-06-19T14:20:21Z</time>
      </trkpt>
      <trkpt lat="43.553580" lon="-7.146917">
        <ele>5.266</ele>
        <time>2019-06-19T14:20:22Z</time>
      </trkpt>
      <trkpt lat="43.553507" lon="-7.147009">
        <ele>5.714</ele>
        <time>2019-06-19T14:20:23Z</time>
      </trkpt>
      <trkpt lat="43.553428" lon="-7.147116">
        <ele>5.924</ele>
        <time>2019-06-19T14:20:24Z</time>
      </trkpt>
      <trkpt lat="43.553347" lon="-7.147214">
        <ele>6.024</ele>
        <time>2019-06-19T14:20:25Z</time>
      </trkpt>
      <trkpt lat="43.553261" lon="-7.147307">
        <ele>6.504</ele>
        <time>2019-06-19T14:20:26Z</time>
      </trkpt>
      <trkpt lat="43.553140" lon="-7.147441">
        <ele>6.914</ele>
        <time>2019-06-19T14:20:27Z</time>
      </trkpt>
      <trkpt lat="43.553028" lon="-7.147559">
        <ele>7.608</ele>
        <time>2019-06-19T14:20:28Z</time>
      </trkpt>
      <trkpt lat="43.552923" lon="-7.147671">
        <ele>9.245</ele>
        <time>2019-06-19T14:20:29Z</time>
      </trkpt>
      <trkpt lat="43.552829" lon="-7.147768">
        <ele>10.689</ele>
        <time>2019-06-19T14:20:30Z</time>
      </trkpt>
      <trkpt lat="43.552742" lon="-7.147856">
        <ele>11.580</ele>
        <time>2019-06-19T14:20:31Z</time>
      </trkpt>
      <trkpt lat="43.552667" lon="-7.147930">
        <ele>12.183</ele>
        <time>2019-06-19T14:20:32Z</time>
      </trkpt>
      <trkpt lat="43.552602" lon="-7.148007">
        <ele>12.693</ele>
        <time>2019-06-19T14:20:33Z</time>
      </trkpt>
      <trkpt lat="43.552557" lon="-7.148077">
        <ele>12.929</ele>
        <time>2019-06-19T14:20:34Z</time>
      </trkpt>
      <trkpt lat="43.552515" lon="-7.148152">
        <ele>13.357</ele>
        <time>2019-06-19T14:20:35Z</time>
      </trkpt>
      <trkpt lat="43.552468" lon="-7.148251">
        <ele>13.997</ele>
        <time>2019-06-19T14:20:36Z</time>
      </trkpt>
      <trkpt lat="43.552507" lon="-7.148405">
        <ele>13.744</ele>
        <time>2019-06-19T14:20:37Z</time>
      </trkpt>
      <trkpt lat="43.552512" lon="-7.148539">
        <ele>13.205</ele>
        <time>2019-06-19T14:20:38Z</time>
      </trkpt>
      <trkpt lat="43.552515" lon="-7.148687">
        <ele>12.915</ele>
        <time>2019-06-19T14:20:39Z</time>
      </trkpt>
      <trkpt lat="43.552513" lon="-7.148859">
        <ele>13.008</ele>
        <time>2019-06-19T14:20:40Z</time>
      </trkpt>
      <trkpt lat="43.552516" lon="-7.149035">
        <ele>12.957</ele>
        <time>2019-06-19T14:20:41Z</time>
      </trkpt>
      <trkpt lat="43.552519" lon="-7.149230">
        <ele>13.241</ele>
        <time>2019-06-19T14:20:42Z</time>
      </trkpt>
      <trkpt lat="43.552522" lon="-7.149418">
        <ele>13.812</ele>
        <time>2019-06-19T14:20:43Z</time>
      </trkpt>
      <trkpt lat="43.552526" lon="-7.149609">
        <ele>15.175</ele>
        <time>2019-06-19T14:20:44Z</time>
      </trkpt>
      <trkpt lat="43.552529" lon="-7.149799">
        <ele>16.165</ele>
        <time>2019-06-19T14:20:45Z</time>
      </trkpt>
      <trkpt lat="43.552529" lon="-7.149995">
        <ele>16.861</ele>
        <time>2019-06-19T14:20:46Z</time>
      </trkpt>
      <trkpt lat="43.552535" lon="-7.150186">
        <ele>15.439</ele>
        <time>2019-06-19T14:20:47Z</time>
      </trkpt>
      <trkpt lat="43.552536" lon="-7.150368">
        <ele>14.239</ele>
        <time>2019-06-19T14:20:48Z</time>
      </trkpt>
      <trkpt lat="43.552543" lon="-7.150542">
        <ele>13.193</ele>
        <time>2019-06-19T14:20:49Z</time>
      </trkpt>
      <trkpt lat="43.552551" lon="-7.150709">
        <ele>12.465</ele>
        <time>2019-06-19T14:20:50Z</time>
      </trkpt>
      <trkpt lat="43.552553" lon="-7.150867">
        <ele>12.021</ele>
        <time>2019-06-19T14:20:51Z</time>
      </trkpt>
      <trkpt lat="43.552555" lon="-7.151007">
        <ele>12.008</ele>
        <time>2019-06-19T14:20:52Z</time>
      </trkpt>
      <trkpt lat="43.552563" lon="-7.151141">
        <ele>12.182</ele>
        <time>2019-06-19T14:20:53Z</time>
      </trkpt>
      <trkpt lat="43.552572" lon="-7.151280">
        <ele>12.666</ele>
        <time>2019-06-19T14:20:54Z</time>
      </trkpt>
      <trkpt lat="43.552587" lon="-7.151407">
        <ele>13.077</ele>
        <time>2019-06-19T14:20:55Z</time>
      </trkpt>
      <trkpt lat="43.552600" lon="-7.151528">
        <ele>13.360</ele>
        <time>2019-06-19T14:20:56Z</time>
      </trkpt>
      <trkpt lat="43.552596" lon="-7.151652">
        <ele>13.690</ele>
        <time>2019-06-19T14:20:57Z</time>
      </trkpt>
      <trkpt lat="43.552581" lon="-7.151785">
        <ele>13.756</ele>
        <time>2019-06-19T14:20:58Z</time>
      </trkpt>
      <trkpt lat="43.552566" lon="-7.151933">
        <ele>13.874</ele>
        <time>2019-06-19T14:20:59Z</time>
      </trkpt>
      <trkpt lat="43.552565" lon="-7.152107">
        <ele>13.614</ele>
        <time>2019-06-19T14:21:00Z</time>
      </trkpt>
      <trkpt lat="43.552565" lon="-7.152297">
        <ele>13.622</ele>
        <time>2019-06-19T14:21:01Z</time>
      </trkpt>
      <trkpt lat="43.552566" lon="-7.152497">
        <ele>13.862</ele>
        <time>2019-06-19T14:21:02Z</time>
      </trkpt>
      <trkpt lat="43.552569" lon="-7.152694">
        <ele>13.908</ele>
        <time>2019-06-19T14:21:03Z</time>
      </trkpt>
      <trkpt lat="43.552571" lon="-7.152897">
        <ele>14.308</ele>
        <time>2019-06-19T14:21:04Z</time>
      </trkpt>
      <trkpt lat="43.552570" lon="-7.153106">
        <ele>14.785</ele>
        <time>2019-06-19T14:21:05Z</time>
      </trkpt>
      <trkpt lat="43.552572" lon="-7.153320">
        <ele>14.579</ele>
        <time>2019-06-19T14:21:06Z</time>
      </trkpt>
      <trkpt lat="43.552572" lon="-7.153541">
        <ele>13.910</ele>
        <time>2019-06-19T14:21:07Z</time>
      </trkpt>
      <trkpt lat="43.552577" lon="-7.153757">
        <ele>13.743</ele>
        <time>2019-06-19T14:21:08Z</time>
      </trkpt>
      <trkpt lat="43.552578" lon="-7.153975">
        <ele>13.873</ele>
        <time>2019-06-19T14:21:09Z</time>
      </trkpt>
      <trkpt lat="43.552582" lon="-7.154187">
        <ele>14.159</ele>
        <time>2019-06-19T14:21:10Z</time>
      </trkpt>
      <trkpt lat="43.552585" lon="-7.154394">
        <ele>14.677</ele>
        <time>2019-06-19T14:21:11Z</time>
      </trkpt>
      <trkpt lat="43.552587" lon="-7.154601">
        <ele>14.797</ele>
        <time>2019-06-19T14:21:12Z</time>
      </trkpt>
      <trkpt lat="43.552588" lon="-7.154798">
        <ele>15.066</ele>
        <time>2019-06-19T14:21:13Z</time>
      </trkpt>
      <trkpt lat="43.552584" lon="-7.154992">
        <ele>15.729</ele>
        <time>2019-06-19T14:21:14Z</time>
      </trkpt>
      <trkpt lat="43.552589" lon="-7.155173">
        <ele>15.921</ele>
        <time>2019-06-19T14:21:15Z</time>
      </trkpt>
      <trkpt lat="43.552592" lon="-7.155356">
        <ele>15.908</ele>
        <time>2019-06-19T14:21:16Z</time>
      </trkpt>
      <trkpt lat="43.552592" lon="-7.155537">
        <ele>15.749</ele>
        <time>2019-06-19T14:21:17Z</time>
      </trkpt>
      <trkpt lat="43.552596" lon="-7.155693">
        <ele>15.733</ele>
        <time>2019-06-19T14:21:18Z</time>
      </trkpt>
      <trkpt lat="43.552609" lon="-7.155832">
        <ele>15.614</ele>
        <time>2019-06-19T14:21:19Z</time>
      </trkpt>
      <trkpt lat="43.552609" lon="-7.155969">
        <ele>16.137</ele>
        <time>2019-06-19T14:21:20Z</time>
      </trkpt>
      <trkpt lat="43.552607" lon="-7.156079">
        <ele>16.577</ele>
        <time>2019-06-19T14:21:21Z</time>
      </trkpt>
      <trkpt lat="43.552609" lon="-7.156187">
        <ele>16.933</ele>
        <time>2019-06-19T14:21:22Z</time>
      </trkpt>
      <trkpt lat="43.552610" lon="-7.156275">
        <ele>17.281</ele>
        <time>2019-06-19T14:21:23Z</time>
      </trkpt>
      <trkpt lat="43.552612" lon="-7.156347">
        <ele>17.451</ele>
        <time>2019-06-19T14:21:24Z</time>
      </trkpt>
      <trkpt lat="43.552627" lon="-7.156450">
        <ele>17.823</ele>
        <time>2019-06-19T14:21:26Z</time>
      </trkpt>
      <trkpt lat="43.552688" lon="-7.156491">
        <ele>17.783</ele>
        <time>2019-06-19T14:21:28Z</time>
      </trkpt>
      <trkpt lat="43.552774" lon="-7.156507">
        <ele>17.411</ele>
        <time>2019-06-19T14:21:30Z</time>
      </trkpt>
      <trkpt lat="43.552822" lon="-7.156523">
        <ele>17.208</ele>
        <time>2019-06-19T14:21:31Z</time>
      </trkpt>
      <trkpt lat="43.552872" lon="-7.156605">
        <ele>17.435</ele>
        <time>2019-06-19T14:21:33Z</time>
      </trkpt>
      <trkpt lat="43.552886" lon="-7.156670">
        <ele>17.629</ele>
        <time>2019-06-19T14:21:34Z</time>
      </trkpt>
      <trkpt lat="43.552901" lon="-7.156736">
        <ele>17.810</ele>
        <time>2019-06-19T14:21:35Z</time>
      </trkpt>
      <trkpt lat="43.552922" lon="-7.156856">
        <ele>18.293</ele>
        <time>2019-06-19T14:21:37Z</time>
      </trkpt>
      <trkpt lat="43.552936" lon="-7.156918">
        <ele>18.363</ele>
        <time>2019-06-19T14:21:38Z</time>
      </trkpt>
      <trkpt lat="43.552971" lon="-7.157013">
        <ele>18.599</ele>
        <time>2019-06-19T14:21:40Z</time>
      </trkpt>
      <trkpt lat="43.553007" lon="-7.157094">
        <ele>18.627</ele>
        <time>2019-06-19T14:21:42Z</time>
      </trkpt>
      <trkpt lat="43.553055" lon="-7.157191">
        <ele>18.977</ele>
        <time>2019-06-19T14:21:44Z</time>
      </trkpt>
      <trkpt lat="43.553097" lon="-7.157233">
        <ele>18.875</ele>
        <time>2019-06-19T14:21:46Z</time>
      </trkpt>
      <trkpt lat="43.553118" lon="-7.157288">
        <ele>18.628</ele>
        <time>2019-06-19T14:21:49Z</time>
      </trkpt>
      <trkpt lat="43.553080" lon="-7.157360">
        <ele>18.520</ele>
        <time>2019-06-19T14:21:55Z</time>
      </trkpt>
      <trkpt lat="43.553025" lon="-7.157411">
        <ele>18.308</ele>
        <time>2019-06-19T14:21:57Z</time>
      </trkpt>
      <trkpt lat="43.552976" lon="-7.157407">
        <ele>18.310</ele>
        <time>2019-06-19T14:21:59Z</time>
      </trkpt>
      <trkpt lat="43.553002" lon="-7.157342">
        <ele>18.644</ele>
        <time>2019-06-19T14:22:13Z</time>
      </trkpt>
      <trkpt lat="43.553050" lon="-7.157351">
        <ele>18.575</ele>
        <time>2019-06-19T14:26:12Z</time>
      </trkpt>
      <trkpt lat="43.553093" lon="-7.157326">
        <ele>18.538</ele>
        <time>2019-06-19T14:26:16Z</time>
      </trkpt>
      <trkpt lat="43.553134" lon="-7.157300">
        <ele>18.548</ele>
        <time>2019-06-19T14:26:20Z</time>
      </trkpt>
      <trkpt lat="43.553082" lon="-7.157309">
        <ele>18.674</ele>
        <time>2019-06-19T14:26:29Z</time>
      </trkpt>
      <trkpt lat="43.553042" lon="-7.157348">
        <ele>18.552</ele>
        <time>2019-06-19T14:26:32Z</time>
      </trkpt>
      <trkpt lat="43.553007" lon="-7.157397">
        <ele>18.422</ele>
        <time>2019-06-19T14:26:36Z</time>
      </trkpt>
      <trkpt lat="43.553057" lon="-7.157372">
        <ele>18.577</ele>
        <time>2019-06-19T14:26:57Z</time>
      </trkpt>
      <trkpt lat="43.553102" lon="-7.157333">
        <ele>18.561</ele>
        <time>2019-06-19T14:27:01Z</time>
      </trkpt>
      <trkpt lat="43.553141" lon="-7.157295">
        <ele>18.527</ele>
        <time>2019-06-19T14:27:06Z</time>
      </trkpt>
      <trkpt lat="43.553189" lon="-7.157309">
        <ele>18.408</ele>
        <time>2019-06-19T14:27:19Z</time>
      </trkpt>
      <trkpt lat="43.553218" lon="-7.157247">
        <ele>18.480</ele>
        <time>2019-06-19T14:27:24Z</time>
      </trkpt>
      <trkpt lat="43.553253" lon="-7.157190">
        <ele>18.254</ele>
        <time>2019-06-19T14:27:29Z</time>
      </trkpt>
      <trkpt lat="43.553293" lon="-7.157155">
        <ele>17.985</ele>
        <time>2019-06-19T14:27:34Z</time>
      </trkpt>
      <trkpt lat="43.553338" lon="-7.157121">
        <ele>17.698</ele>
        <time>2019-06-19T14:28:17Z</time>
      </trkpt>
      <trkpt lat="43.553394" lon="-7.157112">
        <ele>16.888</ele>
        <time>2019-06-19T14:28:21Z</time>
      </trkpt>
      <trkpt lat="43.553450" lon="-7.157131">
        <ele>16.124</ele>
        <time>2019-06-19T14:28:25Z</time>
      </trkpt>
      <trkpt lat="43.553504" lon="-7.157139">
        <ele>15.492</ele>
        <time>2019-06-19T14:28:29Z</time>
      </trkpt>
      <trkpt lat="43.553551" lon="-7.157147">
        <ele>14.852</ele>
        <time>2019-06-19T14:28:33Z</time>
      </trkpt>
      <trkpt lat="43.553607" lon="-7.157145">
        <ele>14.189</ele>
        <time>2019-06-19T14:28:37Z</time>
      </trkpt>
      <trkpt lat="43.553660" lon="-7.157166">
        <ele>13.406</ele>
        <time>2019-06-19T14:28:42Z</time>
      </trkpt>
      <trkpt lat="43.553711" lon="-7.157177">
        <ele>12.926</ele>
        <time>2019-06-19T14:28:47Z</time>
      </trkpt>
      <trkpt lat="43.553742" lon="-7.157242">
        <ele>12.608</ele>
        <time>2019-06-19T14:28:52Z</time>
      </trkpt>
      <trkpt lat="43.553745" lon="-7.157321">
        <ele>12.491</ele>
        <time>2019-06-19T14:28:56Z</time>
      </trkpt>
      <trkpt lat="43.553729" lon="-7.157396">
        <ele>12.595</ele>
        <time>2019-06-19T14:29:00Z</time>
      </trkpt>
      <trkpt lat="43.553712" lon="-7.157465">
        <ele>12.686</ele>
        <time>2019-06-19T14:29:04Z</time>
      </trkpt>
      <trkpt lat="43.553690" lon="-7.157534">
        <ele>12.799</ele>
        <time>2019-06-19T14:29:08Z</time>
      </trkpt>
      <trkpt lat="43.553662" lon="-7.157599">
        <ele>12.689</ele>
        <time>2019-06-19T14:29:12Z</time>
      </trkpt>
      <trkpt lat="43.553632" lon="-7.157651">
        <ele>12.715</ele>
        <time>2019-06-19T14:29:16Z</time>
      </trkpt>
      <trkpt lat="43.553604" lon="-7.157708">
        <ele>12.643</ele>
        <time>2019-06-19T14:29:20Z</time>
      </trkpt>
      <trkpt lat="43.553571" lon="-7.157761">
        <ele>12.643</ele>
        <time>2019-06-19T14:29:24Z</time>
      </trkpt>
      <trkpt lat="43.553540" lon="-7.157816">
        <ele>12.572</ele>
        <time>2019-06-19T14:29:28Z</time>
      </trkpt>
      <trkpt lat="43.553517" lon="-7.157883">
        <ele>12.113</ele>
        <time>2019-06-19T14:29:32Z</time>
      </trkpt>
      <trkpt lat="43.553506" lon="-7.157955">
        <ele>11.614</ele>
        <time>2019-06-19T14:29:36Z</time>
      </trkpt>
      <trkpt lat="43.553509" lon="-7.158030">
        <ele>11.008</ele>
        <time>2019-06-19T14:29:40Z</time>
      </trkpt>
      <trkpt lat="43.553511" lon="-7.158106">
        <ele>10.670</ele>
        <time>2019-06-19T14:29:44Z</time>
      </trkpt>
      <trkpt lat="43.553493" lon="-7.158169">
        <ele>10.544</ele>
        <time>2019-06-19T14:29:48Z</time>
      </trkpt>
      <trkpt lat="43.553492" lon="-7.158240">
        <ele>10.345</ele>
        <time>2019-06-19T14:29:54Z</time>
      </trkpt>
      <trkpt lat="43.553516" lon="-7.158297">
        <ele>10.158</ele>
        <time>2019-06-19T14:29:58Z</time>
      </trkpt>
      <trkpt lat="43.552973" lon="-7.157351">
        <ele>18.548</ele>
        <time>2019-06-19T15:06:27Z</time>
      </trkpt>
      <trkpt lat="43.553016" lon="-7.157329">
        <ele>18.664</ele>
        <time>2019-06-19T15:08:31Z</time>
      </trkpt>
      <trkpt lat="43.553046" lon="-7.157260">
        <ele>18.982</ele>
        <time>2019-06-19T15:08:33Z</time>
      </trkpt>
      <trkpt lat="43.553021" lon="-7.157145">
        <ele>18.852</ele>
        <time>2019-06-19T15:08:35Z</time>
      </trkpt>
      <trkpt lat="43.552995" lon="-7.157089">
        <ele>18.692</ele>
        <time>2019-06-19T15:08:36Z</time>
      </trkpt>
      <trkpt lat="43.552970" lon="-7.157035">
        <ele>18.573</ele>
        <time>2019-06-19T15:08:37Z</time>
      </trkpt>
      <trkpt lat="43.552947" lon="-7.156978">
        <ele>18.520</ele>
        <time>2019-06-19T15:08:38Z</time>
      </trkpt>
      <trkpt lat="43.552924" lon="-7.156917">
        <ele>18.408</ele>
        <time>2019-06-19T15:08:39Z</time>
      </trkpt>
      <trkpt lat="43.552898" lon="-7.156854">
        <ele>18.222</ele>
        <time>2019-06-19T15:08:40Z</time>
      </trkpt>
      <trkpt lat="43.552875" lon="-7.156792">
        <ele>18.176</ele>
        <time>2019-06-19T15:08:41Z</time>
      </trkpt>
      <trkpt lat="43.552858" lon="-7.156731">
        <ele>17.987</ele>
        <time>2019-06-19T15:08:42Z</time>
      </trkpt>
      <trkpt lat="43.552861" lon="-7.156669">
        <ele>17.780</ele>
        <time>2019-06-19T15:08:43Z</time>
      </trkpt>
      <trkpt lat="43.552851" lon="-7.156609">
        <ele>17.520</ele>
        <time>2019-06-19T15:08:44Z</time>
      </trkpt>
      <trkpt lat="43.552793" lon="-7.156525">
        <ele>17.466</ele>
        <time>2019-06-19T15:08:46Z</time>
      </trkpt>
      <trkpt lat="43.552748" lon="-7.156502">
        <ele>17.554</ele>
        <time>2019-06-19T15:08:47Z</time>
      </trkpt>
      <trkpt lat="43.552697" lon="-7.156499">
        <ele>17.724</ele>
        <time>2019-06-19T15:08:48Z</time>
      </trkpt>
      <trkpt lat="43.552624" lon="-7.156525">
        <ele>18.081</ele>
        <time>2019-06-19T15:08:50Z</time>
      </trkpt>
      <trkpt lat="43.552579" lon="-7.156616">
        <ele>18.561</ele>
        <time>2019-06-19T15:08:52Z</time>
      </trkpt>
      <trkpt lat="43.552573" lon="-7.156694">
        <ele>18.817</ele>
        <time>2019-06-19T15:08:53Z</time>
      </trkpt>
      <trkpt lat="43.552590" lon="-7.156795">
        <ele>18.808</ele>
        <time>2019-06-19T15:08:54Z</time>
      </trkpt>
      <trkpt lat="43.552608" lon="-7.156910">
        <ele>19.011</ele>
        <time>2019-06-19T15:08:55Z</time>
      </trkpt>
      <trkpt lat="43.552639" lon="-7.157022">
        <ele>19.015</ele>
        <time>2019-06-19T15:08:56Z</time>
      </trkpt>
      <trkpt lat="43.552677" lon="-7.157144">
        <ele>19.036</ele>
        <time>2019-06-19T15:08:57Z</time>
      </trkpt>
      <trkpt lat="43.552730" lon="-7.157267">
        <ele>18.829</ele>
        <time>2019-06-19T15:08:58Z</time>
      </trkpt>
      <trkpt lat="43.552787" lon="-7.157398">
        <ele>18.469</ele>
        <time>2019-06-19T15:08:59Z</time>
      </trkpt>
      <trkpt lat="43.552846" lon="-7.157538">
        <ele>17.865</ele>
        <time>2019-06-19T15:09:00Z</time>
      </trkpt>
      <trkpt lat="43.552912" lon="-7.157704">
        <ele>16.963</ele>
        <time>2019-06-19T15:09:01Z</time>
      </trkpt>
      <trkpt lat="43.552979" lon="-7.157863">
        <ele>15.733</ele>
        <time>2019-06-19T15:09:02Z</time>
      </trkpt>
      <trkpt lat="43.553049" lon="-7.158028">
        <ele>14.289</ele>
        <time>2019-06-19T15:09:03Z</time>
      </trkpt>
      <trkpt lat="43.553119" lon="-7.158195">
        <ele>12.506</ele>
        <time>2019-06-19T15:09:04Z</time>
      </trkpt>
      <trkpt lat="43.553189" lon="-7.158373">
        <ele>11.326</ele>
        <time>2019-06-19T15:09:05Z</time>
      </trkpt>
      <trkpt lat="43.553249" lon="-7.158558">
        <ele>11.708</ele>
        <time>2019-06-19T15:09:06Z</time>
      </trkpt>
      <trkpt lat="43.553311" lon="-7.158745">
        <ele>12.281</ele>
        <time>2019-06-19T15:09:07Z</time>
      </trkpt>
      <trkpt lat="43.553370" lon="-7.158931">
        <ele>13.315</ele>
        <time>2019-06-19T15:09:08Z</time>
      </trkpt>
      <trkpt lat="43.553404" lon="-7.159117">
        <ele>14.636</ele>
        <time>2019-06-19T15:09:09Z</time>
      </trkpt>
      <trkpt lat="43.553425" lon="-7.159321">
        <ele>15.999</ele>
        <time>2019-06-19T15:09:10Z</time>
      </trkpt>
      <trkpt lat="43.553449" lon="-7.159518">
        <ele>16.729</ele>
        <time>2019-06-19T15:09:11Z</time>
      </trkpt>
      <trkpt lat="43.553467" lon="-7.159710">
        <ele>17.055</ele>
        <time>2019-06-19T15:09:12Z</time>
      </trkpt>
      <trkpt lat="43.553480" lon="-7.159912">
        <ele>17.063</ele>
        <time>2019-06-19T15:09:13Z</time>
      </trkpt>
      <trkpt lat="43.553484" lon="-7.160124">
        <ele>17.043</ele>
        <time>2019-06-19T15:09:14Z</time>
      </trkpt>
      <trkpt lat="43.553483" lon="-7.160342">
        <ele>17.041</ele>
        <time>2019-06-19T15:09:15Z</time>
      </trkpt>
      <trkpt lat="43.553481" lon="-7.160559">
        <ele>17.581</ele>
        <time>2019-06-19T15:09:16Z</time>
      </trkpt>
      <trkpt lat="43.553485" lon="-7.160768">
        <ele>17.009</ele>
        <time>2019-06-19T15:09:17Z</time>
      </trkpt>
      <trkpt lat="43.553472" lon="-7.160992">
        <ele>16.408</ele>
        <time>2019-06-19T15:09:18Z</time>
      </trkpt>
      <trkpt lat="43.553463" lon="-7.161181">
        <ele>16.167</ele>
        <time>2019-06-19T15:09:19Z</time>
      </trkpt>
      <trkpt lat="43.553455" lon="-7.161375">
        <ele>16.141</ele>
        <time>2019-06-19T15:09:20Z</time>
      </trkpt>
      <trkpt lat="43.553474" lon="-7.161528">
        <ele>16.012</ele>
        <time>2019-06-19T15:09:21Z</time>
      </trkpt>
      <trkpt lat="43.553486" lon="-7.161709">
        <ele>15.885</ele>
        <time>2019-06-19T15:09:22Z</time>
      </trkpt>
      <trkpt lat="43.553516" lon="-7.161885">
        <ele>15.445</ele>
        <time>2019-06-19T15:09:23Z</time>
      </trkpt>
      <trkpt lat="43.553559" lon="-7.162054">
        <ele>14.841</ele>
        <time>2019-06-19T15:09:24Z</time>
      </trkpt>
      <trkpt lat="43.553614" lon="-7.162235">
        <ele>13.929</ele>
        <time>2019-06-19T15:09:25Z</time>
      </trkpt>
      <trkpt lat="43.553664" lon="-7.162402">
        <ele>12.999</ele>
        <time>2019-06-19T15:09:26Z</time>
      </trkpt>
      <trkpt lat="43.553706" lon="-7.162585">
        <ele>12.469</ele>
        <time>2019-06-19T15:09:27Z</time>
      </trkpt>
      <trkpt lat="43.553751" lon="-7.162754">
        <ele>12.504</ele>
        <time>2019-06-19T15:09:28Z</time>
      </trkpt>
      <trkpt lat="43.553790" lon="-7.162953">
        <ele>12.424</ele>
        <time>2019-06-19T15:09:29Z</time>
      </trkpt>
      <trkpt lat="43.553797" lon="-7.163156">
        <ele>12.308</ele>
        <time>2019-06-19T15:09:30Z</time>
      </trkpt>
      <trkpt lat="43.553772" lon="-7.163381">
        <ele>12.269</ele>
        <time>2019-06-19T15:09:31Z</time>
      </trkpt>
      <trkpt lat="43.553763" lon="-7.163589">
        <ele>11.573</ele>
        <time>2019-06-19T15:09:32Z</time>
      </trkpt>
      <trkpt lat="43.553764" lon="-7.163778">
        <ele>10.894</ele>
        <time>2019-06-19T15:09:33Z</time>
      </trkpt>
      <trkpt lat="43.553801" lon="-7.163971">
        <ele>10.267</ele>
        <time>2019-06-19T15:09:34Z</time>
      </trkpt>
      <trkpt lat="43.553835" lon="-7.164146">
        <ele>10.037</ele>
        <time>2019-06-19T15:09:35Z</time>
      </trkpt>
      <trkpt lat="43.553924" lon="-7.164274">
        <ele>9.993</ele>
        <time>2019-06-19T15:09:36Z</time>
      </trkpt>
      <trkpt lat="43.554007" lon="-7.164419">
        <ele>9.621</ele>
        <time>2019-06-19T15:09:37Z</time>
      </trkpt>
      <trkpt lat="43.554082" lon="-7.164553">
        <ele>9.321</ele>
        <time>2019-06-19T15:09:38Z</time>
      </trkpt>
      <trkpt lat="43.554149" lon="-7.164680">
        <ele>9.118</ele>
        <time>2019-06-19T15:09:39Z</time>
      </trkpt>
      <trkpt lat="43.554214" lon="-7.164834">
        <ele>9.298</ele>
        <time>2019-06-19T15:09:40Z</time>
      </trkpt>
      <trkpt lat="43.554260" lon="-7.164996">
        <ele>9.717</ele>
        <time>2019-06-19T15:09:41Z</time>
      </trkpt>
      <trkpt lat="43.554294" lon="-7.165148">
        <ele>9.808</ele>
        <time>2019-06-19T15:09:42Z</time>
      </trkpt>
      <trkpt lat="43.554323" lon="-7.165317">
        <ele>9.714</ele>
        <time>2019-06-19T15:09:43Z</time>
      </trkpt>
      <trkpt lat="43.554328" lon="-7.165478">
        <ele>9.198</ele>
        <time>2019-06-19T15:09:44Z</time>
      </trkpt>
      <trkpt lat="43.554334" lon="-7.165643">
        <ele>8.279</ele>
        <time>2019-06-19T15:09:45Z</time>
      </trkpt>
      <trkpt lat="43.554332" lon="-7.165798">
        <ele>7.152</ele>
        <time>2019-06-19T15:09:46Z</time>
      </trkpt>
      <trkpt lat="43.554299" lon="-7.165942">
        <ele>6.362</ele>
        <time>2019-06-19T15:09:47Z</time>
      </trkpt>
      <trkpt lat="43.554269" lon="-7.166091">
        <ele>5.718</ele>
        <time>2019-06-19T15:09:48Z</time>
      </trkpt>
      <trkpt lat="43.554219" lon="-7.166231">
        <ele>6.246</ele>
        <time>2019-06-19T15:09:49Z</time>
      </trkpt>
      <trkpt lat="43.554193" lon="-7.166373">
        <ele>6.656</ele>
        <time>2019-06-19T15:09:50Z</time>
      </trkpt>
      <trkpt lat="43.554166" lon="-7.166507">
        <ele>7.028</ele>
        <time>2019-06-19T15:09:51Z</time>
      </trkpt>
      <trkpt lat="43.554148" lon="-7.166640">
        <ele>7.189</ele>
        <time>2019-06-19T15:09:52Z</time>
      </trkpt>
      <trkpt lat="43.554121" lon="-7.166778">
        <ele>7.217</ele>
        <time>2019-06-19T15:09:53Z</time>
      </trkpt>
      <trkpt lat="43.554136" lon="-7.166886">
        <ele>7.208</ele>
        <time>2019-06-19T15:09:54Z</time>
      </trkpt>
      <trkpt lat="43.554135" lon="-7.167012">
        <ele>7.435</ele>
        <time>2019-06-19T15:09:55Z</time>
      </trkpt>
      <trkpt lat="43.554120" lon="-7.167147">
        <ele>7.959</ele>
        <time>2019-06-19T15:09:56Z</time>
      </trkpt>
      <trkpt lat="43.554107" lon="-7.167280">
        <ele>8.240</ele>
        <time>2019-06-19T15:09:57Z</time>
      </trkpt>
      <trkpt lat="43.554101" lon="-7.167401">
        <ele>8.293</ele>
        <time>2019-06-19T15:09:58Z</time>
      </trkpt>
      <trkpt lat="43.554085" lon="-7.167512">
        <ele>8.373</ele>
        <time>2019-06-19T15:09:59Z</time>
      </trkpt>
      <trkpt lat="43.554052" lon="-7.167615">
        <ele>8.269</ele>
        <time>2019-06-19T15:10:00Z</time>
      </trkpt>
      <trkpt lat="43.554019" lon="-7.167706">
        <ele>8.197</ele>
        <time>2019-06-19T15:10:01Z</time>
      </trkpt>
      <trkpt lat="43.553959" lon="-7.167788">
        <ele>8.027</ele>
        <time>2019-06-19T15:10:02Z</time>
      </trkpt>
      <trkpt lat="43.553910" lon="-7.167890">
        <ele>7.687</ele>
        <time>2019-06-19T15:10:03Z</time>
      </trkpt>
      <trkpt lat="43.553883" lon="-7.167997">
        <ele>7.242</ele>
        <time>2019-06-19T15:10:04Z</time>
      </trkpt>
      <trkpt lat="43.553872" lon="-7.168102">
        <ele>6.726</ele>
        <time>2019-06-19T15:10:05Z</time>
      </trkpt>
      <trkpt lat="43.553862" lon="-7.168213">
        <ele>6.008</ele>
        <time>2019-06-19T15:10:06Z</time>
      </trkpt>
      <trkpt lat="43.553917" lon="-7.168359">
        <ele>4.891</ele>
        <time>2019-06-19T15:10:07Z</time>
      </trkpt>
      <trkpt lat="43.553962" lon="-7.168476">
        <ele>4.115</ele>
        <time>2019-06-19T15:10:08Z</time>
      </trkpt>
      <trkpt lat="43.554013" lon="-7.168587">
        <ele>3.696</ele>
        <time>2019-06-19T15:10:09Z</time>
      </trkpt>
      <trkpt lat="43.554082" lon="-7.168702">
        <ele>3.839</ele>
        <time>2019-06-19T15:10:10Z</time>
      </trkpt>
      <trkpt lat="43.554148" lon="-7.168807">
        <ele>4.069</ele>
        <time>2019-06-19T15:10:11Z</time>
      </trkpt>
      <trkpt lat="43.554206" lon="-7.168915">
        <ele>4.215</ele>
        <time>2019-06-19T15:10:12Z</time>
      </trkpt>
      <trkpt lat="43.554246" lon="-7.169009">
        <ele>4.773</ele>
        <time>2019-06-19T15:10:13Z</time>
      </trkpt>
      <trkpt lat="43.554269" lon="-7.169085">
        <ele>5.123</ele>
        <time>2019-06-19T15:10:14Z</time>
      </trkpt>
      <trkpt lat="43.554284" lon="-7.169151">
        <ele>5.443</ele>
        <time>2019-06-19T15:10:15Z</time>
      </trkpt>
      <trkpt lat="43.554275" lon="-7.169232">
        <ele>5.864</ele>
        <time>2019-06-19T15:10:17Z</time>
      </trkpt>
      <trkpt lat="43.554237" lon="-7.169272">
        <ele>5.910</ele>
        <time>2019-06-19T15:10:19Z</time>
      </trkpt>
      <trkpt lat="43.554186" lon="-7.169288">
        <ele>5.908</ele>
        <time>2019-06-19T15:10:21Z</time>
      </trkpt>
      <trkpt lat="43.554139" lon="-7.169275">
        <ele>5.747</ele>
        <time>2019-06-19T15:10:23Z</time>
      </trkpt>
      <trkpt lat="43.554140" lon="-7.169205">
        <ele>5.311</ele>
        <time>2019-06-19T15:10:28Z</time>
      </trkpt>
      <trkpt lat="43.554191" lon="-7.169192">
        <ele>5.382</ele>
        <time>2019-06-19T15:10:31Z</time>
      </trkpt>
      <trkpt lat="43.554153" lon="-7.169245">
        <ele>5.575</ele>
        <time>2019-06-19T15:10:45Z</time>
      </trkpt>
      <trkpt lat="43.554193" lon="-7.169311">
        <ele>6.135</ele>
        <time>2019-06-19T15:10:48Z</time>
      </trkpt>
      <trkpt lat="43.554247" lon="-7.169320">
        <ele>6.251</ele>
        <time>2019-06-19T15:10:50Z</time>
      </trkpt>
      <trkpt lat="43.554282" lon="-7.169410">
        <ele>6.829</ele>
        <time>2019-06-19T15:10:52Z</time>
      </trkpt>
      <trkpt lat="43.554286" lon="-7.169519">
        <ele>6.989</ele>
        <time>2019-06-19T15:10:54Z</time>
      </trkpt>
      <trkpt lat="43.554334" lon="-7.169539">
        <ele>6.896</ele>
        <time>2019-06-19T15:11:02Z</time>
      </trkpt>
      <trkpt lat="43.554370" lon="-7.169592">
        <ele>6.631</ele>
        <time>2019-06-19T15:11:06Z</time>
      </trkpt>
      <trkpt lat="43.554338" lon="-7.169646">
        <ele>6.624</ele>
        <time>2019-06-19T15:11:17Z</time>
      </trkpt>
      <trkpt lat="43.554316" lon="-7.169589">
        <ele>6.708</ele>
        <time>2019-06-19T15:15:15Z</time>
      </trkpt>
      <trkpt lat="43.554270" lon="-7.169583">
        <ele>6.852</ele>
        <time>2019-06-19T15:15:19Z</time>
      </trkpt>
      <trkpt lat="43.554357" lon="-7.169619">
        <ele>6.636</ele>
        <time>2019-06-19T16:38:05Z</time>
      </trkpt>
      <trkpt lat="43.554317" lon="-7.169583">
        <ele>6.747</ele>
        <time>2019-06-19T16:43:15Z</time>
      </trkpt>
      <trkpt lat="43.554265" lon="-7.169583">
        <ele>6.820</ele>
        <time>2019-06-19T16:43:19Z</time>
      </trkpt>
      <trkpt lat="43.554215" lon="-7.169579">
        <ele>6.950</ele>
        <time>2019-06-19T16:43:25Z</time>
      </trkpt>
      <trkpt lat="43.554224" lon="-7.169643">
        <ele>6.936</ele>
        <time>2019-06-19T16:47:27Z</time>
      </trkpt>
      <trkpt lat="43.554270" lon="-7.169652">
        <ele>6.794</ele>
        <time>2019-06-19T16:47:33Z</time>
      </trkpt>
      <trkpt lat="43.554312" lon="-7.169621">
        <ele>6.724</ele>
        <time>2019-06-19T16:47:39Z</time>
      </trkpt>
      <trkpt lat="43.554354" lon="-7.169597">
        <ele>6.619</ele>
        <time>2019-06-19T16:48:58Z</time>
      </trkpt>
      <trkpt lat="43.554326" lon="-7.169650">
        <ele>6.609</ele>
        <time>2019-06-19T16:51:18Z</time>
      </trkpt>
      <trkpt lat="43.554299" lon="-7.169706">
        <ele>6.619</ele>
        <time>2019-06-19T16:51:19Z</time>
      </trkpt>
      <trkpt lat="43.554271" lon="-7.169773">
        <ele>6.608</ele>
        <time>2019-06-19T16:51:20Z</time>
      </trkpt>
      <trkpt lat="43.554246" lon="-7.169851">
        <ele>6.564</ele>
        <time>2019-06-19T16:51:21Z</time>
      </trkpt>
      <trkpt lat="43.554225" lon="-7.169939">
        <ele>6.338</ele>
        <time>2019-06-19T16:51:22Z</time>
      </trkpt>
      <trkpt lat="43.554233" lon="-7.170037">
        <ele>6.269</ele>
        <time>2019-06-19T16:51:23Z</time>
      </trkpt>
      <trkpt lat="43.554228" lon="-7.170132">
        <ele>6.162</ele>
        <time>2019-06-19T16:51:24Z</time>
      </trkpt>
      <trkpt lat="43.554237" lon="-7.170243">
        <ele>6.042</ele>
        <time>2019-06-19T16:51:25Z</time>
      </trkpt>
      <trkpt lat="43.554256" lon="-7.170351">
        <ele>5.738</ele>
        <time>2019-06-19T16:51:26Z</time>
      </trkpt>
      <trkpt lat="43.554278" lon="-7.170478">
        <ele>5.396</ele>
        <time>2019-06-19T16:51:27Z</time>
      </trkpt>
      <trkpt lat="43.554303" lon="-7.170615">
        <ele>4.836</ele>
        <time>2019-06-19T16:51:28Z</time>
      </trkpt>
      <trkpt lat="43.554334" lon="-7.170758">
        <ele>4.346</ele>
        <time>2019-06-19T16:51:29Z</time>
      </trkpt>
      <trkpt lat="43.554368" lon="-7.170908">
        <ele>3.888</ele>
        <time>2019-06-19T16:51:30Z</time>
      </trkpt>
      <trkpt lat="43.554410" lon="-7.171041">
        <ele>3.316</ele>
        <time>2019-06-19T16:51:31Z</time>
      </trkpt>
      <trkpt lat="43.554450" lon="-7.171197">
        <ele>3.008</ele>
        <time>2019-06-19T16:51:32Z</time>
      </trkpt>
      <trkpt lat="43.554499" lon="-7.171341">
        <ele>3.087</ele>
        <time>2019-06-19T16:51:33Z</time>
      </trkpt>
      <trkpt lat="43.554539" lon="-7.171501">
        <ele>3.431</ele>
        <time>2019-06-19T16:51:34Z</time>
      </trkpt>
      <trkpt lat="43.554582" lon="-7.171660">
        <ele>4.072</ele>
        <time>2019-06-19T16:51:35Z</time>
      </trkpt>
      <trkpt lat="43.554638" lon="-7.171814">
        <ele>4.595</ele>
        <time>2019-06-19T16:51:36Z</time>
      </trkpt>
      <trkpt lat="43.554689" lon="-7.171973">
        <ele>5.055</ele>
        <time>2019-06-19T16:51:37Z</time>
      </trkpt>
      <trkpt lat="43.554744" lon="-7.172130">
        <ele>5.081</ele>
        <time>2019-06-19T16:51:38Z</time>
      </trkpt>
      <trkpt lat="43.554781" lon="-7.172284">
        <ele>5.079</ele>
        <time>2019-06-19T16:51:39Z</time>
      </trkpt>
      <trkpt lat="43.554818" lon="-7.172444">
        <ele>4.739</ele>
        <time>2019-06-19T16:51:40Z</time>
      </trkpt>
      <trkpt lat="43.554844" lon="-7.172616">
        <ele>4.344</ele>
        <time>2019-06-19T16:51:41Z</time>
      </trkpt>
      <trkpt lat="43.554856" lon="-7.172787">
        <ele>4.005</ele>
        <time>2019-06-19T16:51:42Z</time>
      </trkpt>
      <trkpt lat="43.554868" lon="-7.172955">
        <ele>4.015</ele>
        <time>2019-06-19T16:51:43Z</time>
      </trkpt>
      <trkpt lat="43.554883" lon="-7.173124">
        <ele>3.908</ele>
        <time>2019-06-19T16:51:44Z</time>
      </trkpt>
      <trkpt lat="43.554902" lon="-7.173291">
        <ele>3.537</ele>
        <time>2019-06-19T16:51:45Z</time>
      </trkpt>
      <trkpt lat="43.554914" lon="-7.173467">
        <ele>3.691</ele>
        <time>2019-06-19T16:51:46Z</time>
      </trkpt>
      <trkpt lat="43.554925" lon="-7.173632">
        <ele>4.192</ele>
        <time>2019-06-19T16:51:47Z</time>
      </trkpt>
      <trkpt lat="43.554945" lon="-7.173795">
        <ele>4.585</ele>
        <time>2019-06-19T16:51:48Z</time>
      </trkpt>
      <trkpt lat="43.554971" lon="-7.173941">
        <ele>4.945</ele>
        <time>2019-06-19T16:51:49Z</time>
      </trkpt>
      <trkpt lat="43.555001" lon="-7.174098">
        <ele>5.071</ele>
        <time>2019-06-19T16:51:50Z</time>
      </trkpt>
      <trkpt lat="43.555033" lon="-7.174251">
        <ele>5.139</ele>
        <time>2019-06-19T16:51:51Z</time>
      </trkpt>
      <trkpt lat="43.555075" lon="-7.174404">
        <ele>5.059</ele>
        <time>2019-06-19T16:51:52Z</time>
      </trkpt>
      <trkpt lat="43.555110" lon="-7.174555">
        <ele>4.818</ele>
        <time>2019-06-19T16:51:53Z</time>
      </trkpt>
      <trkpt lat="43.555151" lon="-7.174711">
        <ele>4.698</ele>
        <time>2019-06-19T16:51:54Z</time>
      </trkpt>
      <trkpt lat="43.555207" lon="-7.174863">
        <ele>4.217</ele>
        <time>2019-06-19T16:51:55Z</time>
      </trkpt>
      <trkpt lat="43.555250" lon="-7.175040">
        <ele>3.908</ele>
        <time>2019-06-19T16:51:56Z</time>
      </trkpt>
      <trkpt lat="43.555299" lon="-7.175219">
        <ele>4.114</ele>
        <time>2019-06-19T16:51:57Z</time>
      </trkpt>
      <trkpt lat="43.555349" lon="-7.175390">
        <ele>4.718</ele>
        <time>2019-06-19T16:51:58Z</time>
      </trkpt>
      <trkpt lat="43.555393" lon="-7.175565">
        <ele>5.429</ele>
        <time>2019-06-19T16:51:59Z</time>
      </trkpt>
      <trkpt lat="43.555443" lon="-7.175739">
        <ele>5.692</ele>
        <time>2019-06-19T16:52:00Z</time>
      </trkpt>
      <trkpt lat="43.555490" lon="-7.175923">
        <ele>5.842</ele>
        <time>2019-06-19T16:52:01Z</time>
      </trkpt>
      <trkpt lat="43.555540" lon="-7.176103">
        <ele>6.068</ele>
        <time>2019-06-19T16:52:02Z</time>
      </trkpt>
      <trkpt lat="43.555585" lon="-7.176294">
        <ele>5.976</ele>
        <time>2019-06-19T16:52:03Z</time>
      </trkpt>
      <trkpt lat="43.555650" lon="-7.176471">
        <ele>5.816</ele>
        <time>2019-06-19T16:52:04Z</time>
      </trkpt>
      <trkpt lat="43.555699" lon="-7.176661">
        <ele>6.045</ele>
        <time>2019-06-19T16:52:05Z</time>
      </trkpt>
      <trkpt lat="43.555749" lon="-7.176844">
        <ele>6.047</ele>
        <time>2019-06-19T16:52:06Z</time>
      </trkpt>
      <trkpt lat="43.555797" lon="-7.177018">
        <ele>5.711</ele>
        <time>2019-06-19T16:52:07Z</time>
      </trkpt>
      <trkpt lat="43.555843" lon="-7.177185">
        <ele>5.108</ele>
        <time>2019-06-19T16:52:08Z</time>
      </trkpt>
      <trkpt lat="43.555892" lon="-7.177331">
        <ele>4.667</ele>
        <time>2019-06-19T16:52:09Z</time>
      </trkpt>
      <trkpt lat="43.555930" lon="-7.177457">
        <ele>4.271</ele>
        <time>2019-06-19T16:52:10Z</time>
      </trkpt>
      <trkpt lat="43.555985" lon="-7.177556">
        <ele>3.962</ele>
        <time>2019-06-19T16:52:11Z</time>
      </trkpt>
      <trkpt lat="43.556047" lon="-7.177650">
        <ele>3.695</ele>
        <time>2019-06-19T16:52:12Z</time>
      </trkpt>
      <trkpt lat="43.556121" lon="-7.177728">
        <ele>3.175</ele>
        <time>2019-06-19T16:52:13Z</time>
      </trkpt>
      <trkpt lat="43.556184" lon="-7.177786">
        <ele>2.731</ele>
        <time>2019-06-19T16:52:14Z</time>
      </trkpt>
      <trkpt lat="43.556276" lon="-7.177854">
        <ele>2.189</ele>
        <time>2019-06-19T16:52:15Z</time>
      </trkpt>
      <trkpt lat="43.556372" lon="-7.177909">
        <ele>1.699</ele>
        <time>2019-06-19T16:52:16Z</time>
      </trkpt>
      <trkpt lat="43.556453" lon="-7.177965">
        <ele>1.514</ele>
        <time>2019-06-19T16:52:17Z</time>
      </trkpt>
      <trkpt lat="43.556536" lon="-7.178018">
        <ele>1.654</ele>
        <time>2019-06-19T16:52:18Z</time>
      </trkpt>
      <trkpt lat="43.556625" lon="-7.178073">
        <ele>1.909</ele>
        <time>2019-06-19T16:52:19Z</time>
      </trkpt>
      <trkpt lat="43.556729" lon="-7.178119">
        <ele>2.008</ele>
        <time>2019-06-19T16:52:20Z</time>
      </trkpt>
      <trkpt lat="43.556827" lon="-7.178181">
        <ele>2.044</ele>
        <time>2019-06-19T16:52:21Z</time>
      </trkpt>
      <trkpt lat="43.556930" lon="-7.178239">
        <ele>2.048</ele>
        <time>2019-06-19T16:52:22Z</time>
      </trkpt>
      <trkpt lat="43.557017" lon="-7.178296">
        <ele>2.389</ele>
        <time>2019-06-19T16:52:23Z</time>
      </trkpt>
      <trkpt lat="43.557122" lon="-7.178368">
        <ele>2.662</ele>
        <time>2019-06-19T16:52:24Z</time>
      </trkpt>
      <trkpt lat="43.557226" lon="-7.178435">
        <ele>3.062</ele>
        <time>2019-06-19T16:52:25Z</time>
      </trkpt>
      <trkpt lat="43.557324" lon="-7.178496">
        <ele>3.498</ele>
        <time>2019-06-19T16:52:26Z</time>
      </trkpt>
      <trkpt lat="43.557424" lon="-7.178544">
        <ele>3.786</ele>
        <time>2019-06-19T16:52:27Z</time>
      </trkpt>
      <trkpt lat="43.557519" lon="-7.178595">
        <ele>4.176</ele>
        <time>2019-06-19T16:52:28Z</time>
      </trkpt>
      <trkpt lat="43.557609" lon="-7.178655">
        <ele>4.791</ele>
        <time>2019-06-19T16:52:29Z</time>
      </trkpt>
      <trkpt lat="43.557704" lon="-7.178708">
        <ele>5.281</ele>
        <time>2019-06-19T16:52:30Z</time>
      </trkpt>
      <trkpt lat="43.557798" lon="-7.178738">
        <ele>5.619</ele>
        <time>2019-06-19T16:52:31Z</time>
      </trkpt>
      <trkpt lat="43.557892" lon="-7.178739">
        <ele>5.708</ele>
        <time>2019-06-19T16:52:32Z</time>
      </trkpt>
      <trkpt lat="43.557996" lon="-7.178722">
        <ele>5.942</ele>
        <time>2019-06-19T16:52:33Z</time>
      </trkpt>
      <trkpt lat="43.558105" lon="-7.178679">
        <ele>6.036</ele>
        <time>2019-06-19T16:52:34Z</time>
      </trkpt>
      <trkpt lat="43.558221" lon="-7.178635">
        <ele>6.077</ele>
        <time>2019-06-19T16:52:35Z</time>
      </trkpt>
      <trkpt lat="43.558337" lon="-7.178585">
        <ele>6.030</ele>
        <time>2019-06-19T16:52:36Z</time>
      </trkpt>
      <trkpt lat="43.558442" lon="-7.178531">
        <ele>6.150</ele>
        <time>2019-06-19T16:52:37Z</time>
      </trkpt>
      <trkpt lat="43.558546" lon="-7.178461">
        <ele>6.416</ele>
        <time>2019-06-19T16:52:38Z</time>
      </trkpt>
      <trkpt lat="43.558646" lon="-7.178384">
        <ele>6.964</ele>
        <time>2019-06-19T16:52:39Z</time>
      </trkpt>
      <trkpt lat="43.558760" lon="-7.178298">
        <ele>7.674</ele>
        <time>2019-06-19T16:52:40Z</time>
      </trkpt>
      <trkpt lat="43.558862" lon="-7.178210">
        <ele>7.985</ele>
        <time>2019-06-19T16:52:41Z</time>
      </trkpt>
      <trkpt lat="43.558961" lon="-7.178114">
        <ele>8.089</ele>
        <time>2019-06-19T16:52:42Z</time>
      </trkpt>
      <trkpt lat="43.559056" lon="-7.178023">
        <ele>8.117</ele>
        <time>2019-06-19T16:52:43Z</time>
      </trkpt>
      <trkpt lat="43.559154" lon="-7.177924">
        <ele>8.508</ele>
        <time>2019-06-19T16:52:44Z</time>
      </trkpt>
      <trkpt lat="43.559252" lon="-7.177815">
        <ele>8.991</ele>
        <time>2019-06-19T16:52:45Z</time>
      </trkpt>
      <trkpt lat="43.559357" lon="-7.177715">
        <ele>9.165</ele>
        <time>2019-06-19T16:52:46Z</time>
      </trkpt>
      <trkpt lat="43.559453" lon="-7.177612">
        <ele>9.626</ele>
        <time>2019-06-19T16:52:47Z</time>
      </trkpt>
      <trkpt lat="43.559556" lon="-7.177523">
        <ele>9.959</ele>
        <time>2019-06-19T16:52:48Z</time>
      </trkpt>
      <trkpt lat="43.559637" lon="-7.177436">
        <ele>9.699</ele>
        <time>2019-06-19T16:52:49Z</time>
      </trkpt>
      <trkpt lat="43.559721" lon="-7.177349">
        <ele>9.595</ele>
        <time>2019-06-19T16:52:50Z</time>
      </trkpt>
      <trkpt lat="43.559808" lon="-7.177278">
        <ele>9.233</ele>
        <time>2019-06-19T16:52:51Z</time>
      </trkpt>
      <trkpt lat="43.559892" lon="-7.177234">
        <ele>9.013</ele>
        <time>2019-06-19T16:52:52Z</time>
      </trkpt>
      <trkpt lat="43.559968" lon="-7.177209">
        <ele>8.964</ele>
        <time>2019-06-19T16:52:53Z</time>
      </trkpt>
      <trkpt lat="43.560051" lon="-7.177209">
        <ele>8.906</ele>
        <time>2019-06-19T16:52:54Z</time>
      </trkpt>
      <trkpt lat="43.560128" lon="-7.177250">
        <ele>9.116</ele>
        <time>2019-06-19T16:52:55Z</time>
      </trkpt>
      <trkpt lat="43.560194" lon="-7.177315">
        <ele>9.308</ele>
        <time>2019-06-19T16:52:56Z</time>
      </trkpt>
      <trkpt lat="43.560244" lon="-7.177376">
        <ele>9.699</ele>
        <time>2019-06-19T16:52:57Z</time>
      </trkpt>
      <trkpt lat="43.560312" lon="-7.177476">
        <ele>9.953</ele>
        <time>2019-06-19T16:52:58Z</time>
      </trkpt>
      <trkpt lat="43.560367" lon="-7.177584">
        <ele>10.074</ele>
        <time>2019-06-19T16:52:59Z</time>
      </trkpt>
      <trkpt lat="43.560434" lon="-7.177711">
        <ele>10.037</ele>
        <time>2019-06-19T16:53:00Z</time>
      </trkpt>
      <trkpt lat="43.560516" lon="-7.177852">
        <ele>10.017</ele>
        <time>2019-06-19T16:53:01Z</time>
      </trkpt>
      <trkpt lat="43.560599" lon="-7.177983">
        <ele>10.033</ele>
        <time>2019-06-19T16:53:02Z</time>
      </trkpt>
      <trkpt lat="43.560682" lon="-7.178108">
        <ele>10.131</ele>
        <time>2019-06-19T16:53:03Z</time>
      </trkpt>
      <trkpt lat="43.560774" lon="-7.178247">
        <ele>10.521</ele>
        <time>2019-06-19T16:53:04Z</time>
      </trkpt>
      <trkpt lat="43.560858" lon="-7.178391">
        <ele>11.072</ele>
        <time>2019-06-19T16:53:05Z</time>
      </trkpt>
      <trkpt lat="43.560936" lon="-7.178519">
        <ele>11.213</ele>
        <time>2019-06-19T16:53:06Z</time>
      </trkpt>
      <trkpt lat="43.561019" lon="-7.178644">
        <ele>11.714</ele>
        <time>2019-06-19T16:53:07Z</time>
      </trkpt>
      <trkpt lat="43.561094" lon="-7.178772">
        <ele>12.008</ele>
        <time>2019-06-19T16:53:08Z</time>
      </trkpt>
      <trkpt lat="43.561167" lon="-7.178901">
        <ele>12.070</ele>
        <time>2019-06-19T16:53:09Z</time>
      </trkpt>
      <trkpt lat="43.561234" lon="-7.179011">
        <ele>11.864</ele>
        <time>2019-06-19T16:53:10Z</time>
      </trkpt>
      <trkpt lat="43.561305" lon="-7.179122">
        <ele>11.435</ele>
        <time>2019-06-19T16:53:11Z</time>
      </trkpt>
      <trkpt lat="43.561352" lon="-7.179230">
        <ele>11.378</ele>
        <time>2019-06-19T16:53:12Z</time>
      </trkpt>
      <trkpt lat="43.561384" lon="-7.179344">
        <ele>11.668</ele>
        <time>2019-06-19T16:53:13Z</time>
      </trkpt>
      <trkpt lat="43.561396" lon="-7.179459">
        <ele>11.974</ele>
        <time>2019-06-19T16:53:14Z</time>
      </trkpt>
      <trkpt lat="43.561377" lon="-7.179546">
        <ele>12.012</ele>
        <time>2019-06-19T16:53:15Z</time>
      </trkpt>
      <trkpt lat="43.561339" lon="-7.179659">
        <ele>12.082</ele>
        <time>2019-06-19T16:53:16Z</time>
      </trkpt>
      <trkpt lat="43.561286" lon="-7.179773">
        <ele>12.095</ele>
        <time>2019-06-19T16:53:17Z</time>
      </trkpt>
      <trkpt lat="43.561222" lon="-7.179884">
        <ele>12.049</ele>
        <time>2019-06-19T16:53:18Z</time>
      </trkpt>
      <trkpt lat="43.561163" lon="-7.179995">
        <ele>12.023</ele>
        <time>2019-06-19T16:53:19Z</time>
      </trkpt>
      <trkpt lat="43.561098" lon="-7.180109">
        <ele>12.008</ele>
        <time>2019-06-19T16:53:20Z</time>
      </trkpt>
      <trkpt lat="43.561034" lon="-7.180228">
        <ele>12.392</ele>
        <time>2019-06-19T16:53:21Z</time>
      </trkpt>
      <trkpt lat="43.560984" lon="-7.180344">
        <ele>12.146</ele>
        <time>2019-06-19T16:53:22Z</time>
      </trkpt>
      <trkpt lat="43.560933" lon="-7.180478">
        <ele>11.757</ele>
        <time>2019-06-19T16:53:23Z</time>
      </trkpt>
      <trkpt lat="43.560889" lon="-7.180630">
        <ele>11.470</ele>
        <time>2019-06-19T16:53:24Z</time>
      </trkpt>
      <trkpt lat="43.560846" lon="-7.180788">
        <ele>11.160</ele>
        <time>2019-06-19T16:53:25Z</time>
      </trkpt>
      <trkpt lat="43.560817" lon="-7.180929">
        <ele>11.856</ele>
        <time>2019-06-19T16:53:26Z</time>
      </trkpt>
      <trkpt lat="43.560788" lon="-7.181094">
        <ele>12.934</ele>
        <time>2019-06-19T16:53:27Z</time>
      </trkpt>
      <trkpt lat="43.560758" lon="-7.181245">
        <ele>13.154</ele>
        <time>2019-06-19T16:53:28Z</time>
      </trkpt>
      <trkpt lat="43.560724" lon="-7.181407">
        <ele>13.493</ele>
        <time>2019-06-19T16:53:29Z</time>
      </trkpt>
      <trkpt lat="43.560689" lon="-7.181570">
        <ele>13.565</ele>
        <time>2019-06-19T16:53:30Z</time>
      </trkpt>
      <trkpt lat="43.560637" lon="-7.181711">
        <ele>13.521</ele>
        <time>2019-06-19T16:53:31Z</time>
      </trkpt>
      <trkpt lat="43.560592" lon="-7.181860">
        <ele>13.108</ele>
        <time>2019-06-19T16:53:32Z</time>
      </trkpt>
      <trkpt lat="43.560540" lon="-7.182011">
        <ele>12.852</ele>
        <time>2019-06-19T16:53:33Z</time>
      </trkpt>
      <trkpt lat="43.560494" lon="-7.182149">
        <ele>12.646</ele>
        <time>2019-06-19T16:53:34Z</time>
      </trkpt>
      <trkpt lat="43.560448" lon="-7.182280">
        <ele>12.977</ele>
        <time>2019-06-19T16:53:35Z</time>
      </trkpt>
      <trkpt lat="43.560412" lon="-7.182408">
        <ele>13.480</ele>
        <time>2019-06-19T16:53:36Z</time>
      </trkpt>
      <trkpt lat="43.560387" lon="-7.182522">
        <ele>13.940</ele>
        <time>2019-06-19T16:53:37Z</time>
      </trkpt>
      <trkpt lat="43.560359" lon="-7.182626">
        <ele>14.346</ele>
        <time>2019-06-19T16:53:38Z</time>
      </trkpt>
      <trkpt lat="43.560341" lon="-7.182721">
        <ele>14.554</ele>
        <time>2019-06-19T16:53:39Z</time>
      </trkpt>
      <trkpt lat="43.560332" lon="-7.182794">
        <ele>14.624</ele>
        <time>2019-06-19T16:53:40Z</time>
      </trkpt>
      <trkpt lat="43.560318" lon="-7.182868">
        <ele>14.423</ele>
        <time>2019-06-19T16:53:41Z</time>
      </trkpt>
      <trkpt lat="43.560291" lon="-7.182928">
        <ele>14.483</ele>
        <time>2019-06-19T16:53:42Z</time>
      </trkpt>
      <trkpt lat="43.560249" lon="-7.182970">
        <ele>14.211</ele>
        <time>2019-06-19T16:53:43Z</time>
      </trkpt>
      <trkpt lat="43.560203" lon="-7.183001">
        <ele>13.908</ele>
        <time>2019-06-19T16:53:44Z</time>
      </trkpt>
      <trkpt lat="43.560148" lon="-7.183022">
        <ele>13.725</ele>
        <time>2019-06-19T16:53:45Z</time>
      </trkpt>
      <trkpt lat="43.560069" lon="-7.183040">
        <ele>13.379</ele>
        <time>2019-06-19T16:53:46Z</time>
      </trkpt>
      <trkpt lat="43.560003" lon="-7.183073">
        <ele>12.950</ele>
        <time>2019-06-19T16:53:47Z</time>
      </trkpt>
      <trkpt lat="43.559923" lon="-7.183124">
        <ele>13.033</ele>
        <time>2019-06-19T16:53:48Z</time>
      </trkpt>
      <trkpt lat="43.559829" lon="-7.183209">
        <ele>13.153</ele>
        <time>2019-06-19T16:53:49Z</time>
      </trkpt>
      <trkpt lat="43.559730" lon="-7.183304">
        <ele>13.169</ele>
        <time>2019-06-19T16:53:50Z</time>
      </trkpt>
      <trkpt lat="43.559623" lon="-7.183400">
        <ele>13.247</ele>
        <time>2019-06-19T16:53:51Z</time>
      </trkpt>
      <trkpt lat="43.559522" lon="-7.183492">
        <ele>13.267</ele>
        <time>2019-06-19T16:53:52Z</time>
      </trkpt>
      <trkpt lat="43.559412" lon="-7.183583">
        <ele>12.922</ele>
        <time>2019-06-19T16:53:53Z</time>
      </trkpt>
      <trkpt lat="43.559302" lon="-7.183671">
        <ele>12.762</ele>
        <time>2019-06-19T16:53:54Z</time>
      </trkpt>
      <trkpt lat="43.559196" lon="-7.183750">
        <ele>12.608</ele>
        <time>2019-06-19T16:53:55Z</time>
      </trkpt>
      <trkpt lat="43.559072" lon="-7.183813">
        <ele>12.708</ele>
        <time>2019-06-19T16:53:56Z</time>
      </trkpt>
      <trkpt lat="43.558976" lon="-7.183861">
        <ele>12.965</ele>
        <time>2019-06-19T16:53:57Z</time>
      </trkpt>
      <trkpt lat="43.558848" lon="-7.183897">
        <ele>13.099</ele>
        <time>2019-06-19T16:53:58Z</time>
      </trkpt>
      <trkpt lat="43.558707" lon="-7.183942">
        <ele>13.070</ele>
        <time>2019-06-19T16:53:59Z</time>
      </trkpt>
      <trkpt lat="43.558575" lon="-7.183973">
        <ele>12.943</ele>
        <time>2019-06-19T16:54:00Z</time>
      </trkpt>
      <trkpt lat="43.558435" lon="-7.184013">
        <ele>12.633</ele>
        <time>2019-06-19T16:54:01Z</time>
      </trkpt>
      <trkpt lat="43.558292" lon="-7.184045">
        <ele>12.639</ele>
        <time>2019-06-19T16:54:02Z</time>
      </trkpt>
      <trkpt lat="43.558149" lon="-7.184083">
        <ele>12.787</ele>
        <time>2019-06-19T16:54:03Z</time>
      </trkpt>
      <trkpt lat="43.558006" lon="-7.184120">
        <ele>12.867</ele>
        <time>2019-06-19T16:54:04Z</time>
      </trkpt>
      <trkpt lat="43.557881" lon="-7.184155">
        <ele>13.048</ele>
        <time>2019-06-19T16:54:05Z</time>
      </trkpt>
      <trkpt lat="43.557748" lon="-7.184193">
        <ele>12.961</ele>
        <time>2019-06-19T16:54:06Z</time>
      </trkpt>
      <trkpt lat="43.557623" lon="-7.184226">
        <ele>12.417</ele>
        <time>2019-06-19T16:54:07Z</time>
      </trkpt>
      <trkpt lat="43.557503" lon="-7.184268">
        <ele>12.008</ele>
        <time>2019-06-19T16:54:08Z</time>
      </trkpt>
      <trkpt lat="43.557395" lon="-7.184314">
        <ele>12.097</ele>
        <time>2019-06-19T16:54:09Z</time>
      </trkpt>
      <trkpt lat="43.557300" lon="-7.184363">
        <ele>12.081</ele>
        <time>2019-06-19T16:54:10Z</time>
      </trkpt>
      <trkpt lat="43.557190" lon="-7.184427">
        <ele>11.942</ele>
        <time>2019-06-19T16:54:11Z</time>
      </trkpt>
      <trkpt lat="43.557100" lon="-7.184510">
        <ele>11.795</ele>
        <time>2019-06-19T16:54:12Z</time>
      </trkpt>
      <trkpt lat="43.557004" lon="-7.184621">
        <ele>11.725</ele>
        <time>2019-06-19T16:54:13Z</time>
      </trkpt>
      <trkpt lat="43.556909" lon="-7.184735">
        <ele>11.941</ele>
        <time>2019-06-19T16:54:14Z</time>
      </trkpt>
      <trkpt lat="43.556808" lon="-7.184854">
        <ele>11.859</ele>
        <time>2019-06-19T16:54:15Z</time>
      </trkpt>
      <trkpt lat="43.556700" lon="-7.184958">
        <ele>11.289</ele>
        <time>2019-06-19T16:54:16Z</time>
      </trkpt>
      <trkpt lat="43.556592" lon="-7.185044">
        <ele>10.972</ele>
        <time>2019-06-19T16:54:17Z</time>
      </trkpt>
      <trkpt lat="43.556480" lon="-7.185136">
        <ele>11.113</ele>
        <time>2019-06-19T16:54:18Z</time>
      </trkpt>
      <trkpt lat="43.556375" lon="-7.185211">
        <ele>11.514</ele>
        <time>2019-06-19T16:54:19Z</time>
      </trkpt>
      <trkpt lat="43.556275" lon="-7.185294">
        <ele>12.108</ele>
        <time>2019-06-19T16:54:20Z</time>
      </trkpt>
      <trkpt lat="43.556183" lon="-7.185390">
        <ele>12.730</ele>
        <time>2019-06-19T16:54:21Z</time>
      </trkpt>
      <trkpt lat="43.556096" lon="-7.185491">
        <ele>13.584</ele>
        <time>2019-06-19T16:54:22Z</time>
      </trkpt>
      <trkpt lat="43.556022" lon="-7.185611">
        <ele>14.245</ele>
        <time>2019-06-19T16:54:23Z</time>
      </trkpt>
      <trkpt lat="43.555948" lon="-7.185733">
        <ele>14.618</ele>
        <time>2019-06-19T16:54:24Z</time>
      </trkpt>
      <trkpt lat="43.555878" lon="-7.185845">
        <ele>15.058</ele>
        <time>2019-06-19T16:54:25Z</time>
      </trkpt>
      <trkpt lat="43.555788" lon="-7.185945">
        <ele>14.564</ele>
        <time>2019-06-19T16:54:26Z</time>
      </trkpt>
      <trkpt lat="43.555684" lon="-7.186034">
        <ele>14.142</ele>
        <time>2019-06-19T16:54:27Z</time>
      </trkpt>
      <trkpt lat="43.555567" lon="-7.186115">
        <ele>14.062</ele>
        <time>2019-06-19T16:54:28Z</time>
      </trkpt>
      <trkpt lat="43.555449" lon="-7.186207">
        <ele>14.692</ele>
        <time>2019-06-19T16:54:29Z</time>
      </trkpt>
      <trkpt lat="43.555329" lon="-7.186295">
        <ele>14.973</ele>
        <time>2019-06-19T16:54:30Z</time>
      </trkpt>
      <trkpt lat="43.555211" lon="-7.186379">
        <ele>15.220</ele>
        <time>2019-06-19T16:54:31Z</time>
      </trkpt>
      <trkpt lat="43.555099" lon="-7.186463">
        <ele>15.608</ele>
        <time>2019-06-19T16:54:32Z</time>
      </trkpt>
      <trkpt lat="43.554976" lon="-7.186550">
        <ele>15.372</ele>
        <time>2019-06-19T16:54:33Z</time>
      </trkpt>
      <trkpt lat="43.554867" lon="-7.186639">
        <ele>14.646</ele>
        <time>2019-06-19T16:54:34Z</time>
      </trkpt>
      <trkpt lat="43.554758" lon="-7.186720">
        <ele>14.147</ele>
        <time>2019-06-19T16:54:35Z</time>
      </trkpt>
      <trkpt lat="43.554667" lon="-7.186802">
        <ele>13.880</ele>
        <time>2019-06-19T16:54:36Z</time>
      </trkpt>
      <trkpt lat="43.554567" lon="-7.186875">
        <ele>13.480</ele>
        <time>2019-06-19T16:54:37Z</time>
      </trkpt>
      <trkpt lat="43.554481" lon="-7.186926">
        <ele>13.176</ele>
        <time>2019-06-19T16:54:38Z</time>
      </trkpt>
      <trkpt lat="43.554382" lon="-7.186972">
        <ele>13.334</ele>
        <time>2019-06-19T16:54:39Z</time>
      </trkpt>
      <trkpt lat="43.554300" lon="-7.186989">
        <ele>13.634</ele>
        <time>2019-06-19T16:54:40Z</time>
      </trkpt>
      <trkpt lat="43.554206" lon="-7.186981">
        <ele>13.919</ele>
        <time>2019-06-19T16:54:41Z</time>
      </trkpt>
      <trkpt lat="43.554114" lon="-7.186971">
        <ele>14.009</ele>
        <time>2019-06-19T16:54:42Z</time>
      </trkpt>
      <trkpt lat="43.554022" lon="-7.186959">
        <ele>14.019</ele>
        <time>2019-06-19T16:54:43Z</time>
      </trkpt>
      <trkpt lat="43.553937" lon="-7.186968">
        <ele>14.008</ele>
        <time>2019-06-19T16:54:44Z</time>
      </trkpt>
      <trkpt lat="43.553865" lon="-7.186993">
        <ele>14.154</ele>
        <time>2019-06-19T16:54:45Z</time>
      </trkpt>
      <trkpt lat="43.553792" lon="-7.187051">
        <ele>14.388</ele>
        <time>2019-06-19T16:54:46Z</time>
      </trkpt>
      <trkpt lat="43.553729" lon="-7.187132">
        <ele>14.649</ele>
        <time>2019-06-19T16:54:47Z</time>
      </trkpt>
      <trkpt lat="43.553651" lon="-7.187220">
        <ele>14.972</ele>
        <time>2019-06-19T16:54:48Z</time>
      </trkpt>
      <trkpt lat="43.553573" lon="-7.187315">
        <ele>15.292</ele>
        <time>2019-06-19T16:54:49Z</time>
      </trkpt>
      <trkpt lat="43.553490" lon="-7.187416">
        <ele>15.798</ele>
        <time>2019-06-19T16:54:50Z</time>
      </trkpt>
      <trkpt lat="43.553406" lon="-7.187515">
        <ele>16.526</ele>
        <time>2019-06-19T16:54:51Z</time>
      </trkpt>
      <trkpt lat="43.553323" lon="-7.187604">
        <ele>17.026</ele>
        <time>2019-06-19T16:54:52Z</time>
      </trkpt>
      <trkpt lat="43.553227" lon="-7.187677">
        <ele>17.236</ele>
        <time>2019-06-19T16:54:53Z</time>
      </trkpt>
      <trkpt lat="43.553121" lon="-7.187734">
        <ele>17.617</ele>
        <time>2019-06-19T16:54:54Z</time>
      </trkpt>
      <trkpt lat="43.553011" lon="-7.187785">
        <ele>18.218</ele>
        <time>2019-06-19T16:54:55Z</time>
      </trkpt>
      <trkpt lat="43.552880" lon="-7.187836">
        <ele>18.608</ele>
        <time>2019-06-19T16:54:56Z</time>
      </trkpt>
      <trkpt lat="43.552754" lon="-7.187891">
        <ele>19.126</ele>
        <time>2019-06-19T16:54:57Z</time>
      </trkpt>
      <trkpt lat="43.552619" lon="-7.187950">
        <ele>19.860</ele>
        <time>2019-06-19T16:54:58Z</time>
      </trkpt>
      <trkpt lat="43.552488" lon="-7.188014">
        <ele>20.291</ele>
        <time>2019-06-19T16:54:59Z</time>
      </trkpt>
      <trkpt lat="43.552356" lon="-7.188079">
        <ele>20.524</ele>
        <time>2019-06-19T16:55:00Z</time>
      </trkpt>
      <trkpt lat="43.552221" lon="-7.188151">
        <ele>20.754</ele>
        <time>2019-06-19T16:55:01Z</time>
      </trkpt>
      <trkpt lat="43.552085" lon="-7.188225">
        <ele>20.250</ele>
        <time>2019-06-19T16:55:02Z</time>
      </trkpt>
      <trkpt lat="43.551946" lon="-7.188299">
        <ele>20.098</ele>
        <time>2019-06-19T16:55:03Z</time>
      </trkpt>
      <trkpt lat="43.551803" lon="-7.188382">
        <ele>20.098</ele>
        <time>2019-06-19T16:55:04Z</time>
      </trkpt>
      <trkpt lat="43.551663" lon="-7.188464">
        <ele>20.092</ele>
        <time>2019-06-19T16:55:05Z</time>
      </trkpt>
      <trkpt lat="43.551520" lon="-7.188545">
        <ele>20.573</ele>
        <time>2019-06-19T16:55:06Z</time>
      </trkpt>
      <trkpt lat="43.551375" lon="-7.188625">
        <ele>21.020</ele>
        <time>2019-06-19T16:55:07Z</time>
      </trkpt>
      <trkpt lat="43.551235" lon="-7.188703">
        <ele>21.208</ele>
        <time>2019-06-19T16:55:08Z</time>
      </trkpt>
      <trkpt lat="43.551098" lon="-7.188780">
        <ele>21.442</ele>
        <time>2019-06-19T16:55:09Z</time>
      </trkpt>
      <trkpt lat="43.550951" lon="-7.188864">
        <ele>21.776</ele>
        <time>2019-06-19T16:55:10Z</time>
      </trkpt>
      <trkpt lat="43.550806" lon="-7.188944">
        <ele>22.057</ele>
        <time>2019-06-19T16:55:11Z</time>
      </trkpt>
      <trkpt lat="43.550665" lon="-7.189028">
        <ele>23.030</ele>
        <time>2019-06-19T16:55:12Z</time>
      </trkpt>
      <trkpt lat="43.550516" lon="-7.189112">
        <ele>24.230</ele>
        <time>2019-06-19T16:55:13Z</time>
      </trkpt>
      <trkpt lat="43.550366" lon="-7.189190">
        <ele>24.736</ele>
        <time>2019-06-19T16:55:14Z</time>
      </trkpt>
      <trkpt lat="43.550221" lon="-7.189270">
        <ele>25.674</ele>
        <time>2019-06-19T16:55:15Z</time>
      </trkpt>
      <trkpt lat="43.550074" lon="-7.189344">
        <ele>26.484</ele>
        <time>2019-06-19T16:55:16Z</time>
      </trkpt>
      <trkpt lat="43.549937" lon="-7.189397">
        <ele>26.918</ele>
        <time>2019-06-19T16:55:17Z</time>
      </trkpt>
      <trkpt lat="43.549791" lon="-7.189457">
        <ele>27.098</ele>
        <time>2019-06-19T16:55:18Z</time>
      </trkpt>
      <trkpt lat="43.549651" lon="-7.189519">
        <ele>27.717</ele>
        <time>2019-06-19T16:55:19Z</time>
      </trkpt>
      <trkpt lat="43.549523" lon="-7.189581">
        <ele>28.608</ele>
        <time>2019-06-19T16:55:20Z</time>
      </trkpt>
      <trkpt lat="43.549407" lon="-7.189622">
        <ele>29.334</ele>
        <time>2019-06-19T16:55:21Z</time>
      </trkpt>
      <trkpt lat="43.549295" lon="-7.189659">
        <ele>30.118</ele>
        <time>2019-06-19T16:55:22Z</time>
      </trkpt>
      <trkpt lat="43.549185" lon="-7.189701">
        <ele>30.939</ele>
        <time>2019-06-19T16:55:23Z</time>
      </trkpt>
      <trkpt lat="43.549083" lon="-7.189745">
        <ele>31.262</ele>
        <time>2019-06-19T16:55:24Z</time>
      </trkpt>
      <trkpt lat="43.548975" lon="-7.189789">
        <ele>31.622</ele>
        <time>2019-06-19T16:55:25Z</time>
      </trkpt>
      <trkpt lat="43.548877" lon="-7.189836">
        <ele>32.138</ele>
        <time>2019-06-19T16:55:26Z</time>
      </trkpt>
      <trkpt lat="43.548777" lon="-7.189887">
        <ele>32.826</ele>
        <time>2019-06-19T16:55:27Z</time>
      </trkpt>
      <trkpt lat="43.548691" lon="-7.189943">
        <ele>33.426</ele>
        <time>2019-06-19T16:55:28Z</time>
      </trkpt>
      <trkpt lat="43.548620" lon="-7.190020">
        <ele>33.996</ele>
        <time>2019-06-19T16:55:29Z</time>
      </trkpt>
      <trkpt lat="43.548537" lon="-7.190118">
        <ele>34.631</ele>
        <time>2019-06-19T16:55:30Z</time>
      </trkpt>
      <trkpt lat="43.548456" lon="-7.190213">
        <ele>35.524</ele>
        <time>2019-06-19T16:55:31Z</time>
      </trkpt>
      <trkpt lat="43.548367" lon="-7.190323">
        <ele>36.708</ele>
        <time>2019-06-19T16:55:32Z</time>
      </trkpt>
      <trkpt lat="43.548280" lon="-7.190425">
        <ele>37.212</ele>
        <time>2019-06-19T16:55:33Z</time>
      </trkpt>
      <trkpt lat="43.548186" lon="-7.190533">
        <ele>37.566</ele>
        <time>2019-06-19T16:55:34Z</time>
      </trkpt>
      <trkpt lat="43.548093" lon="-7.190640">
        <ele>38.277</ele>
        <time>2019-06-19T16:55:35Z</time>
      </trkpt>
      <trkpt lat="43.547997" lon="-7.190743">
        <ele>38.740</ele>
        <time>2019-06-19T16:55:36Z</time>
      </trkpt>
      <trkpt lat="43.547899" lon="-7.190840">
        <ele>39.070</ele>
        <time>2019-06-19T16:55:37Z</time>
      </trkpt>
      <trkpt lat="43.547793" lon="-7.190923">
        <ele>38.786</ele>
        <time>2019-06-19T16:55:38Z</time>
      </trkpt>
      <trkpt lat="43.547689" lon="-7.190978">
        <ele>38.514</ele>
        <time>2019-06-19T16:55:39Z</time>
      </trkpt>
      <trkpt lat="43.547586" lon="-7.191030">
        <ele>38.394</ele>
        <time>2019-06-19T16:55:40Z</time>
      </trkpt>
      <trkpt lat="43.547487" lon="-7.191068">
        <ele>38.284</ele>
        <time>2019-06-19T16:55:41Z</time>
      </trkpt>
      <trkpt lat="43.547393" lon="-7.191098">
        <ele>38.407</ele>
        <time>2019-06-19T16:55:42Z</time>
      </trkpt>
      <trkpt lat="43.547292" lon="-7.191106">
        <ele>38.817</ele>
        <time>2019-06-19T16:55:43Z</time>
      </trkpt>
      <trkpt lat="43.547185" lon="-7.191107">
        <ele>39.108</ele>
        <time>2019-06-19T16:55:44Z</time>
      </trkpt>
      <trkpt lat="43.547094" lon="-7.191086">
        <ele>39.491</ele>
        <time>2019-06-19T16:55:45Z</time>
      </trkpt>
      <trkpt lat="43.546986" lon="-7.191080">
        <ele>39.835</ele>
        <time>2019-06-19T16:55:46Z</time>
      </trkpt>
      <trkpt lat="43.546885" lon="-7.191084">
        <ele>40.196</ele>
        <time>2019-06-19T16:55:47Z</time>
      </trkpt>
      <trkpt lat="43.546789" lon="-7.191112">
        <ele>40.639</ele>
        <time>2019-06-19T16:55:48Z</time>
      </trkpt>
      <trkpt lat="43.546701" lon="-7.191159">
        <ele>40.999</ele>
        <time>2019-06-19T16:55:49Z</time>
      </trkpt>
      <trkpt lat="43.546621" lon="-7.191234">
        <ele>41.195</ele>
        <time>2019-06-19T16:55:50Z</time>
      </trkpt>
      <trkpt lat="43.546532" lon="-7.191311">
        <ele>41.383</ele>
        <time>2019-06-19T16:55:51Z</time>
      </trkpt>
      <trkpt lat="43.546438" lon="-7.191390">
        <ele>41.873</ele>
        <time>2019-06-19T16:55:52Z</time>
      </trkpt>
      <trkpt lat="43.546344" lon="-7.191490">
        <ele>42.036</ele>
        <time>2019-06-19T16:55:53Z</time>
      </trkpt>
      <trkpt lat="43.546249" lon="-7.191595">
        <ele>42.017</ele>
        <time>2019-06-19T16:55:54Z</time>
      </trkpt>
      <trkpt lat="43.546150" lon="-7.191701">
        <ele>42.018</ele>
        <time>2019-06-19T16:55:55Z</time>
      </trkpt>
      <trkpt lat="43.546049" lon="-7.191804">
        <ele>42.008</ele>
        <time>2019-06-19T16:55:56Z</time>
      </trkpt>
      <trkpt lat="43.545959" lon="-7.191906">
        <ele>42.056</ele>
        <time>2019-06-19T16:55:57Z</time>
      </trkpt>
      <trkpt lat="43.545884" lon="-7.192028">
        <ele>42.250</ele>
        <time>2019-06-19T16:55:58Z</time>
      </trkpt>
      <trkpt lat="43.545804" lon="-7.192151">
        <ele>42.871</ele>
        <time>2019-06-19T16:55:59Z</time>
      </trkpt>
      <trkpt lat="43.545717" lon="-7.192280">
        <ele>43.634</ele>
        <time>2019-06-19T16:56:00Z</time>
      </trkpt>
      <trkpt lat="43.545638" lon="-7.192408">
        <ele>44.484</ele>
        <time>2019-06-19T16:56:01Z</time>
      </trkpt>
      <trkpt lat="43.545553" lon="-7.192540">
        <ele>45.040</ele>
        <time>2019-06-19T16:56:02Z</time>
      </trkpt>
      <trkpt lat="43.545479" lon="-7.192665">
        <ele>45.218</ele>
        <time>2019-06-19T16:56:03Z</time>
      </trkpt>
      <trkpt lat="43.545403" lon="-7.192788">
        <ele>45.568</ele>
        <time>2019-06-19T16:56:04Z</time>
      </trkpt>
      <trkpt lat="43.545334" lon="-7.192903">
        <ele>45.449</ele>
        <time>2019-06-19T16:56:05Z</time>
      </trkpt>
      <trkpt lat="43.545285" lon="-7.193021">
        <ele>45.102</ele>
        <time>2019-06-19T16:56:06Z</time>
      </trkpt>
      <trkpt lat="43.545233" lon="-7.193149">
        <ele>44.522</ele>
        <time>2019-06-19T16:56:07Z</time>
      </trkpt>
      <trkpt lat="43.545183" lon="-7.193280">
        <ele>43.908</ele>
        <time>2019-06-19T16:56:08Z</time>
      </trkpt>
      <trkpt lat="43.545124" lon="-7.193411">
        <ele>43.227</ele>
        <time>2019-06-19T16:56:09Z</time>
      </trkpt>
      <trkpt lat="43.545052" lon="-7.193526">
        <ele>42.981</ele>
        <time>2019-06-19T16:56:10Z</time>
      </trkpt>
      <trkpt lat="43.544972" lon="-7.193635">
        <ele>42.922</ele>
        <time>2019-06-19T16:56:11Z</time>
      </trkpt>
      <trkpt lat="43.544898" lon="-7.193717">
        <ele>42.855</ele>
        <time>2019-06-19T16:56:12Z</time>
      </trkpt>
      <trkpt lat="43.544836" lon="-7.193802">
        <ele>42.745</ele>
        <time>2019-06-19T16:56:13Z</time>
      </trkpt>
      <trkpt lat="43.544773" lon="-7.193883">
        <ele>42.821</ele>
        <time>2019-06-19T16:56:14Z</time>
      </trkpt>
      <trkpt lat="43.544722" lon="-7.193933">
        <ele>43.069</ele>
        <time>2019-06-19T16:56:15Z</time>
      </trkpt>
      <trkpt lat="43.544691" lon="-7.194017">
        <ele>43.149</ele>
        <time>2019-06-19T16:56:17Z</time>
      </trkpt>
      <trkpt lat="43.544705" lon="-7.194145">
        <ele>43.124</ele>
        <time>2019-06-19T16:56:19Z</time>
      </trkpt>
      <trkpt lat="43.544732" lon="-7.194234">
        <ele>43.204</ele>
        <time>2019-06-19T16:56:20Z</time>
      </trkpt>
      <trkpt lat="43.544765" lon="-7.194349">
        <ele>43.414</ele>
        <time>2019-06-19T16:56:21Z</time>
      </trkpt>
      <trkpt lat="43.544793" lon="-7.194476">
        <ele>43.508</ele>
        <time>2019-06-19T16:56:22Z</time>
      </trkpt>
      <trkpt lat="43.544830" lon="-7.194620">
        <ele>43.545</ele>
        <time>2019-06-19T16:56:23Z</time>
      </trkpt>
      <trkpt lat="43.544863" lon="-7.194750">
        <ele>43.649</ele>
        <time>2019-06-19T16:56:24Z</time>
      </trkpt>
      <trkpt lat="43.544908" lon="-7.194906">
        <ele>44.070</ele>
        <time>2019-06-19T16:56:25Z</time>
      </trkpt>
      <trkpt lat="43.544952" lon="-7.195072">
        <ele>44.443</ele>
        <time>2019-06-19T16:56:26Z</time>
      </trkpt>
      <trkpt lat="43.545008" lon="-7.195243">
        <ele>44.863</ele>
        <time>2019-06-19T16:56:27Z</time>
      </trkpt>
      <trkpt lat="43.545052" lon="-7.195418">
        <ele>45.429</ele>
        <time>2019-06-19T16:56:28Z</time>
      </trkpt>
      <trkpt lat="43.545109" lon="-7.195588">
        <ele>46.067</ele>
        <time>2019-06-19T16:56:29Z</time>
      </trkpt>
      <trkpt lat="43.545169" lon="-7.195774">
        <ele>46.087</ele>
        <time>2019-06-19T16:56:30Z</time>
      </trkpt>
      <trkpt lat="43.545224" lon="-7.195965">
        <ele>45.679</ele>
        <time>2019-06-19T16:56:31Z</time>
      </trkpt>
      <trkpt lat="43.545283" lon="-7.196164">
        <ele>45.005</ele>
        <time>2019-06-19T16:56:32Z</time>
      </trkpt>
      <trkpt lat="43.545340" lon="-7.196365">
        <ele>44.825</ele>
        <time>2019-06-19T16:56:33Z</time>
      </trkpt>
      <trkpt lat="43.545399" lon="-7.196570">
        <ele>44.608</ele>
        <time>2019-06-19T16:56:34Z</time>
      </trkpt>
      <trkpt lat="43.545449" lon="-7.196774">
        <ele>44.430</ele>
        <time>2019-06-19T16:56:35Z</time>
      </trkpt>
      <trkpt lat="43.545493" lon="-7.196977">
        <ele>44.314</ele>
        <time>2019-06-19T16:56:36Z</time>
      </trkpt>
      <trkpt lat="43.545534" lon="-7.197205">
        <ele>44.955</ele>
        <time>2019-06-19T16:56:37Z</time>
      </trkpt>
      <trkpt lat="43.545553" lon="-7.197429">
        <ele>45.088</ele>
        <time>2019-06-19T16:56:38Z</time>
      </trkpt>
      <trkpt lat="43.545563" lon="-7.197656">
        <ele>44.498</ele>
        <time>2019-06-19T16:56:39Z</time>
      </trkpt>
      <trkpt lat="43.545567" lon="-7.197884">
        <ele>44.844</ele>
        <time>2019-06-19T16:56:40Z</time>
      </trkpt>
      <trkpt lat="43.545562" lon="-7.198128">
        <ele>46.222</ele>
        <time>2019-06-19T16:56:41Z</time>
      </trkpt>
      <trkpt lat="43.545552" lon="-7.198378">
        <ele>47.212</ele>
        <time>2019-06-19T16:56:42Z</time>
      </trkpt>
      <trkpt lat="43.545537" lon="-7.198641">
        <ele>48.295</ele>
        <time>2019-06-19T16:56:43Z</time>
      </trkpt>
      <trkpt lat="43.545521" lon="-7.198914">
        <ele>48.949</ele>
        <time>2019-06-19T16:56:44Z</time>
      </trkpt>
      <trkpt lat="43.545500" lon="-7.199178">
        <ele>48.223</ele>
        <time>2019-06-19T16:56:45Z</time>
      </trkpt>
      <trkpt lat="43.545492" lon="-7.199449">
        <ele>48.208</ele>
        <time>2019-06-19T16:56:46Z</time>
      </trkpt>
      <trkpt lat="43.545483" lon="-7.199721">
        <ele>48.322</ele>
        <time>2019-06-19T16:56:47Z</time>
      </trkpt>
      <trkpt lat="43.545470" lon="-7.199987">
        <ele>48.316</ele>
        <time>2019-06-19T16:56:48Z</time>
      </trkpt>
      <trkpt lat="43.545461" lon="-7.200258">
        <ele>48.327</ele>
        <time>2019-06-19T16:56:49Z</time>
      </trkpt>
      <trkpt lat="43.545442" lon="-7.200549">
        <ele>47.490</ele>
        <time>2019-06-19T16:56:50Z</time>
      </trkpt>
      <trkpt lat="43.545428" lon="-7.200838">
        <ele>46.950</ele>
        <time>2019-06-19T16:56:51Z</time>
      </trkpt>
      <trkpt lat="43.545414" lon="-7.201115">
        <ele>45.526</ele>
        <time>2019-06-19T16:56:52Z</time>
      </trkpt>
      <trkpt lat="43.545401" lon="-7.201406">
        <ele>45.764</ele>
        <time>2019-06-19T16:56:53Z</time>
      </trkpt>
      <trkpt lat="43.545386" lon="-7.201698">
        <ele>46.394</ele>
        <time>2019-06-19T16:56:54Z</time>
      </trkpt>
      <trkpt lat="43.545368" lon="-7.201993">
        <ele>47.461</ele>
        <time>2019-06-19T16:56:55Z</time>
      </trkpt>
      <trkpt lat="43.545350" lon="-7.202288">
        <ele>47.321</ele>
        <time>2019-06-19T16:56:56Z</time>
      </trkpt>
      <trkpt lat="43.545335" lon="-7.202586">
        <ele>46.513</ele>
        <time>2019-06-19T16:56:57Z</time>
      </trkpt>
      <trkpt lat="43.545317" lon="-7.202890">
        <ele>45.108</ele>
        <time>2019-06-19T16:56:58Z</time>
      </trkpt>
      <trkpt lat="43.545310" lon="-7.203192">
        <ele>43.519</ele>
        <time>2019-06-19T16:56:59Z</time>
      </trkpt>
      <trkpt lat="43.545297" lon="-7.203501">
        <ele>43.033</ele>
        <time>2019-06-19T16:57:00Z</time>
      </trkpt>
      <trkpt lat="43.545279" lon="-7.203811">
        <ele>43.044</ele>
        <time>2019-06-19T16:57:01Z</time>
      </trkpt>
      <trkpt lat="43.545260" lon="-7.204128">
        <ele>43.037</ele>
        <time>2019-06-19T16:57:02Z</time>
      </trkpt>
      <trkpt lat="43.545245" lon="-7.204435">
        <ele>43.037</ele>
        <time>2019-06-19T16:57:03Z</time>
      </trkpt>
      <trkpt lat="43.545232" lon="-7.204745">
        <ele>42.133</ele>
        <time>2019-06-19T16:57:04Z</time>
      </trkpt>
      <trkpt lat="43.545210" lon="-7.205048">
        <ele>40.761</ele>
        <time>2019-06-19T16:57:05Z</time>
      </trkpt>
      <trkpt lat="43.545199" lon="-7.205345">
        <ele>39.631</ele>
        <time>2019-06-19T16:57:06Z</time>
      </trkpt>
      <trkpt lat="43.545187" lon="-7.205628">
        <ele>39.891</ele>
        <time>2019-06-19T16:57:07Z</time>
      </trkpt>
      <trkpt lat="43.545174" lon="-7.205914">
        <ele>40.781</ele>
        <time>2019-06-19T16:57:08Z</time>
      </trkpt>
      <trkpt lat="43.545159" lon="-7.206195">
        <ele>41.719</ele>
        <time>2019-06-19T16:57:09Z</time>
      </trkpt>
      <trkpt lat="43.545147" lon="-7.206476">
        <ele>42.608</ele>
        <time>2019-06-19T16:57:10Z</time>
      </trkpt>
      <trkpt lat="43.545129" lon="-7.206745">
        <ele>42.812</ele>
        <time>2019-06-19T16:57:11Z</time>
      </trkpt>
      <trkpt lat="43.545114" lon="-7.207020">
        <ele>41.956</ele>
        <time>2019-06-19T16:57:12Z</time>
      </trkpt>
      <trkpt lat="43.545101" lon="-7.207302">
        <ele>41.377</ele>
        <time>2019-06-19T16:57:13Z</time>
      </trkpt>
      <trkpt lat="43.545091" lon="-7.207594">
        <ele>41.110</ele>
        <time>2019-06-19T16:57:14Z</time>
      </trkpt>
      <trkpt lat="43.545082" lon="-7.207888">
        <ele>40.290</ele>
        <time>2019-06-19T16:57:15Z</time>
      </trkpt>
      <trkpt lat="43.545067" lon="-7.208182">
        <ele>39.156</ele>
        <time>2019-06-19T16:57:16Z</time>
      </trkpt>
      <trkpt lat="43.545055" lon="-7.208473">
        <ele>38.234</ele>
        <time>2019-06-19T16:57:17Z</time>
      </trkpt>
      <trkpt lat="43.545038" lon="-7.208765">
        <ele>37.964</ele>
        <time>2019-06-19T16:57:18Z</time>
      </trkpt>
      <trkpt lat="43.545025" lon="-7.209065">
        <ele>37.985</ele>
        <time>2019-06-19T16:57:19Z</time>
      </trkpt>
      <trkpt lat="43.545016" lon="-7.209361">
        <ele>38.089</ele>
        <time>2019-06-19T16:57:20Z</time>
      </trkpt>
      <trkpt lat="43.545001" lon="-7.209627">
        <ele>39.317</ele>
        <time>2019-06-19T16:57:21Z</time>
      </trkpt>
      <trkpt lat="43.544984" lon="-7.209919">
        <ele>41.608</ele>
        <time>2019-06-19T16:57:22Z</time>
      </trkpt>
      <trkpt lat="43.544977" lon="-7.210200">
        <ele>42.311</ele>
        <time>2019-06-19T16:57:23Z</time>
      </trkpt>
      <trkpt lat="43.544959" lon="-7.210496">
        <ele>43.325</ele>
        <time>2019-06-19T16:57:24Z</time>
      </trkpt>
      <trkpt lat="43.544946" lon="-7.210787">
        <ele>43.456</ele>
        <time>2019-06-19T16:57:25Z</time>
      </trkpt>
      <trkpt lat="43.544932" lon="-7.211089">
        <ele>42.389</ele>
        <time>2019-06-19T16:57:26Z</time>
      </trkpt>
      <trkpt lat="43.544918" lon="-7.211387">
        <ele>42.099</ele>
        <time>2019-06-19T16:57:27Z</time>
      </trkpt>
      <trkpt lat="43.544898" lon="-7.211688">
        <ele>41.385</ele>
        <time>2019-06-19T16:57:28Z</time>
      </trkpt>
      <trkpt lat="43.544884" lon="-7.211989">
        <ele>40.973</ele>
        <time>2019-06-19T16:57:29Z</time>
      </trkpt>
      <trkpt lat="43.544866" lon="-7.212292">
        <ele>40.783</ele>
        <time>2019-06-19T16:57:30Z</time>
      </trkpt>
      <trkpt lat="43.544853" lon="-7.212590">
        <ele>42.016</ele>
        <time>2019-06-19T16:57:31Z</time>
      </trkpt>
      <trkpt lat="43.544842" lon="-7.212870">
        <ele>43.276</ele>
        <time>2019-06-19T16:57:32Z</time>
      </trkpt>
      <trkpt lat="43.544833" lon="-7.213151">
        <ele>43.713</ele>
        <time>2019-06-19T16:57:33Z</time>
      </trkpt>
      <trkpt lat="43.544819" lon="-7.213444">
        <ele>44.408</ele>
        <time>2019-06-19T16:57:34Z</time>
      </trkpt>
      <trkpt lat="43.544800" lon="-7.213734">
        <ele>45.874</ele>
        <time>2019-06-19T16:57:35Z</time>
      </trkpt>
      <trkpt lat="43.544783" lon="-7.214028">
        <ele>46.918</ele>
        <time>2019-06-19T16:57:36Z</time>
      </trkpt>
      <trkpt lat="43.544769" lon="-7.214300">
        <ele>47.479</ele>
        <time>2019-06-19T16:57:37Z</time>
      </trkpt>
      <trkpt lat="43.544763" lon="-7.214570">
        <ele>48.322</ele>
        <time>2019-06-19T16:57:38Z</time>
      </trkpt>
      <trkpt lat="43.544750" lon="-7.214852">
        <ele>49.812</ele>
        <time>2019-06-19T16:57:39Z</time>
      </trkpt>
      <trkpt lat="43.544738" lon="-7.215117">
        <ele>51.388</ele>
        <time>2019-06-19T16:57:40Z</time>
      </trkpt>
      <trkpt lat="43.544720" lon="-7.215394">
        <ele>52.586</ele>
        <time>2019-06-19T16:57:41Z</time>
      </trkpt>
      <trkpt lat="43.544703" lon="-7.215679">
        <ele>53.456</ele>
        <time>2019-06-19T16:57:42Z</time>
      </trkpt>
      <trkpt lat="43.544688" lon="-7.215968">
        <ele>53.827</ele>
        <time>2019-06-19T16:57:43Z</time>
      </trkpt>
      <trkpt lat="43.544676" lon="-7.216253">
        <ele>53.168</ele>
        <time>2019-06-19T16:57:44Z</time>
      </trkpt>
      <trkpt lat="43.544667" lon="-7.216542">
        <ele>52.214</ele>
        <time>2019-06-19T16:57:45Z</time>
      </trkpt>
      <trkpt lat="43.544657" lon="-7.216832">
        <ele>51.608</ele>
        <time>2019-06-19T16:57:46Z</time>
      </trkpt>
      <trkpt lat="43.544642" lon="-7.217126">
        <ele>51.425</ele>
        <time>2019-06-19T16:57:47Z</time>
      </trkpt>
      <trkpt lat="43.544621" lon="-7.217378">
        <ele>51.359</ele>
        <time>2019-06-19T16:57:48Z</time>
      </trkpt>
      <trkpt lat="43.544613" lon="-7.217661">
        <ele>50.240</ele>
        <time>2019-06-19T16:57:49Z</time>
      </trkpt>
      <trkpt lat="43.544598" lon="-7.217949">
        <ele>49.813</ele>
        <time>2019-06-19T16:57:50Z</time>
      </trkpt>
      <trkpt lat="43.544582" lon="-7.218243">
        <ele>51.013</ele>
        <time>2019-06-19T16:57:51Z</time>
      </trkpt>
      <trkpt lat="43.544573" lon="-7.218528">
        <ele>52.649</ele>
        <time>2019-06-19T16:57:52Z</time>
      </trkpt>
      <trkpt lat="43.544559" lon="-7.218820">
        <ele>54.227</ele>
        <time>2019-06-19T16:57:53Z</time>
      </trkpt>
      <trkpt lat="43.544542" lon="-7.219110">
        <ele>56.877</ele>
        <time>2019-06-19T16:57:54Z</time>
      </trkpt>
      <trkpt lat="43.544528" lon="-7.219406">
        <ele>59.146</ele>
        <time>2019-06-19T16:57:55Z</time>
      </trkpt>
      <trkpt lat="43.544514" lon="-7.219691">
        <ele>60.488</ele>
        <time>2019-06-19T16:57:56Z</time>
      </trkpt>
      <trkpt lat="43.544497" lon="-7.219992">
        <ele>61.416</ele>
        <time>2019-06-19T16:57:57Z</time>
      </trkpt>
      <trkpt lat="43.544483" lon="-7.220280">
        <ele>63.708</ele>
        <time>2019-06-19T16:57:58Z</time>
      </trkpt>
      <trkpt lat="43.544468" lon="-7.220565">
        <ele>65.877</ele>
        <time>2019-06-19T16:57:59Z</time>
      </trkpt>
      <trkpt lat="43.544454" lon="-7.220819">
        <ele>66.041</ele>
        <time>2019-06-19T16:58:00Z</time>
      </trkpt>
      <trkpt lat="43.544445" lon="-7.221082">
        <ele>63.332</ele>
        <time>2019-06-19T16:58:01Z</time>
      </trkpt>
      <trkpt lat="43.544429" lon="-7.221343">
        <ele>61.575</ele>
        <time>2019-06-19T16:58:02Z</time>
      </trkpt>
      <trkpt lat="43.544412" lon="-7.221600">
        <ele>59.895</ele>
        <time>2019-06-19T16:58:03Z</time>
      </trkpt>
      <trkpt lat="43.544400" lon="-7.221840">
        <ele>58.921</ele>
        <time>2019-06-19T16:58:04Z</time>
      </trkpt>
      <trkpt lat="43.544392" lon="-7.222081">
        <ele>58.649</ele>
        <time>2019-06-19T16:58:05Z</time>
      </trkpt>
      <trkpt lat="43.544384" lon="-7.222318">
        <ele>58.949</ele>
        <time>2019-06-19T16:58:06Z</time>
      </trkpt>
      <trkpt lat="43.544380" lon="-7.222530">
        <ele>59.492</ele>
        <time>2019-06-19T16:58:07Z</time>
      </trkpt>
      <trkpt lat="43.544366" lon="-7.222738">
        <ele>59.973</ele>
        <time>2019-06-19T16:58:08Z</time>
      </trkpt>
      <trkpt lat="43.544360" lon="-7.222939">
        <ele>58.820</ele>
        <time>2019-06-19T16:58:09Z</time>
      </trkpt>
      <trkpt lat="43.544351" lon="-7.223148">
        <ele>57.508</ele>
        <time>2019-06-19T16:58:10Z</time>
      </trkpt>
      <trkpt lat="43.544337" lon="-7.223347">
        <ele>56.522</ele>
        <time>2019-06-19T16:58:11Z</time>
      </trkpt>
      <trkpt lat="43.544316" lon="-7.223543">
        <ele>56.126</ele>
        <time>2019-06-19T16:58:12Z</time>
      </trkpt>
      <trkpt lat="43.544288" lon="-7.223734">
        <ele>55.837</ele>
        <time>2019-06-19T16:58:13Z</time>
      </trkpt>
      <trkpt lat="43.544254" lon="-7.223908">
        <ele>55.630</ele>
        <time>2019-06-19T16:58:14Z</time>
      </trkpt>
      <trkpt lat="43.544189" lon="-7.224085">
        <ele>55.390</ele>
        <time>2019-06-19T16:58:15Z</time>
      </trkpt>
      <trkpt lat="43.544117" lon="-7.224251">
        <ele>54.826</ele>
        <time>2019-06-19T16:58:16Z</time>
      </trkpt>
      <trkpt lat="43.544038" lon="-7.224431">
        <ele>54.554</ele>
        <time>2019-06-19T16:58:17Z</time>
      </trkpt>
      <trkpt lat="43.543957" lon="-7.224601">
        <ele>54.014</ele>
        <time>2019-06-19T16:58:18Z</time>
      </trkpt>
      <trkpt lat="43.543873" lon="-7.224772">
        <ele>53.791</ele>
        <time>2019-06-19T16:58:19Z</time>
      </trkpt>
      <trkpt lat="43.543791" lon="-7.224956">
        <ele>52.981</ele>
        <time>2019-06-19T16:58:20Z</time>
      </trkpt>
      <trkpt lat="43.543704" lon="-7.225140">
        <ele>52.319</ele>
        <time>2019-06-19T16:58:21Z</time>
      </trkpt>
      <trkpt lat="43.543617" lon="-7.225322">
        <ele>51.908</ele>
        <time>2019-06-19T16:58:22Z</time>
      </trkpt>
      <trkpt lat="43.543539" lon="-7.225500">
        <ele>52.552</ele>
        <time>2019-06-19T16:58:23Z</time>
      </trkpt>
      <trkpt lat="43.543461" lon="-7.225680">
        <ele>53.166</ele>
        <time>2019-06-19T16:58:24Z</time>
      </trkpt>
      <trkpt lat="43.543408" lon="-7.225878">
        <ele>53.557</ele>
        <time>2019-06-19T16:58:25Z</time>
      </trkpt>
      <trkpt lat="43.543379" lon="-7.226072">
        <ele>53.830</ele>
        <time>2019-06-19T16:58:26Z</time>
      </trkpt>
      <trkpt lat="43.543348" lon="-7.226259">
        <ele>53.940</ele>
        <time>2019-06-19T16:58:27Z</time>
      </trkpt>
      <trkpt lat="43.543335" lon="-7.226464">
        <ele>54.046</ele>
        <time>2019-06-19T16:58:28Z</time>
      </trkpt>
      <trkpt lat="43.543317" lon="-7.226675">
        <ele>54.194</ele>
        <time>2019-06-19T16:58:29Z</time>
      </trkpt>
      <trkpt lat="43.543291" lon="-7.226892">
        <ele>54.344</ele>
        <time>2019-06-19T16:58:30Z</time>
      </trkpt>
      <trkpt lat="43.543258" lon="-7.227107">
        <ele>54.558</ele>
        <time>2019-06-19T16:58:31Z</time>
      </trkpt>
      <trkpt lat="43.543211" lon="-7.227311">
        <ele>54.752</ele>
        <time>2019-06-19T16:58:32Z</time>
      </trkpt>
      <trkpt lat="43.543160" lon="-7.227519">
        <ele>54.617</ele>
        <time>2019-06-19T16:58:33Z</time>
      </trkpt>
      <trkpt lat="43.543102" lon="-7.227735">
        <ele>54.808</ele>
        <time>2019-06-19T16:58:34Z</time>
      </trkpt>
      <trkpt lat="43.543029" lon="-7.227946">
        <ele>54.568</ele>
        <time>2019-06-19T16:58:35Z</time>
      </trkpt>
      <trkpt lat="43.542954" lon="-7.228164">
        <ele>54.142</ele>
        <time>2019-06-19T16:58:36Z</time>
      </trkpt>
      <trkpt lat="43.542879" lon="-7.228391">
        <ele>54.333</ele>
        <time>2019-06-19T16:58:37Z</time>
      </trkpt>
      <trkpt lat="43.542800" lon="-7.228608">
        <ele>54.846</ele>
        <time>2019-06-19T16:58:38Z</time>
      </trkpt>
      <trkpt lat="43.542723" lon="-7.228825">
        <ele>54.876</ele>
        <time>2019-06-19T16:58:39Z</time>
      </trkpt>
      <trkpt lat="43.542655" lon="-7.229037">
        <ele>55.382</ele>
        <time>2019-06-19T16:58:40Z</time>
      </trkpt>
      <trkpt lat="43.542582" lon="-7.229258">
        <ele>55.930</ele>
        <time>2019-06-19T16:58:41Z</time>
      </trkpt>
      <trkpt lat="43.542506" lon="-7.229468">
        <ele>56.020</ele>
        <time>2019-06-19T16:58:42Z</time>
      </trkpt>
      <trkpt lat="43.542432" lon="-7.229673">
        <ele>56.376</ele>
        <time>2019-06-19T16:58:43Z</time>
      </trkpt>
      <trkpt lat="43.542349" lon="-7.229865">
        <ele>57.190</ele>
        <time>2019-06-19T16:58:44Z</time>
      </trkpt>
      <trkpt lat="43.542263" lon="-7.230061">
        <ele>58.119</ele>
        <time>2019-06-19T16:58:45Z</time>
      </trkpt>
      <trkpt lat="43.542171" lon="-7.230239">
        <ele>58.908</ele>
        <time>2019-06-19T16:58:46Z</time>
      </trkpt>
      <trkpt lat="43.542077" lon="-7.230412">
        <ele>58.820</ele>
        <time>2019-06-19T16:58:47Z</time>
      </trkpt>
      <trkpt lat="43.541973" lon="-7.230582">
        <ele>58.954</ele>
        <time>2019-06-19T16:58:48Z</time>
      </trkpt>
      <trkpt lat="43.541868" lon="-7.230753">
        <ele>59.555</ele>
        <time>2019-06-19T16:58:49Z</time>
      </trkpt>
      <trkpt lat="43.541770" lon="-7.230922">
        <ele>60.378</ele>
        <time>2019-06-19T16:58:50Z</time>
      </trkpt>
      <trkpt lat="43.541678" lon="-7.231105">
        <ele>60.918</ele>
        <time>2019-06-19T16:58:51Z</time>
      </trkpt>
      <trkpt lat="43.541593" lon="-7.231290">
        <ele>62.264</ele>
        <time>2019-06-19T16:58:52Z</time>
      </trkpt>
      <trkpt lat="43.541509" lon="-7.231481">
        <ele>63.062</ele>
        <time>2019-06-19T16:58:53Z</time>
      </trkpt>
      <trkpt lat="43.541431" lon="-7.231680">
        <ele>63.592</ele>
        <time>2019-06-19T16:58:54Z</time>
      </trkpt>
      <trkpt lat="43.541351" lon="-7.231889">
        <ele>63.335</ele>
        <time>2019-06-19T16:58:55Z</time>
      </trkpt>
      <trkpt lat="43.541273" lon="-7.232097">
        <ele>63.186</ele>
        <time>2019-06-19T16:58:56Z</time>
      </trkpt>
      <trkpt lat="43.541191" lon="-7.232316">
        <ele>63.014</ele>
        <time>2019-06-19T16:58:57Z</time>
      </trkpt>
      <trkpt lat="43.541111" lon="-7.232538">
        <ele>62.908</ele>
        <time>2019-06-19T16:58:58Z</time>
      </trkpt>
      <trkpt lat="43.541024" lon="-7.232759">
        <ele>62.446</ele>
        <time>2019-06-19T16:58:59Z</time>
      </trkpt>
      <trkpt lat="43.540948" lon="-7.232977">
        <ele>62.650</ele>
        <time>2019-06-19T16:59:00Z</time>
      </trkpt>
      <trkpt lat="43.540855" lon="-7.233189">
        <ele>63.361</ele>
        <time>2019-06-19T16:59:01Z</time>
      </trkpt>
      <trkpt lat="43.540784" lon="-7.233410">
        <ele>64.224</ele>
        <time>2019-06-19T16:59:02Z</time>
      </trkpt>
      <trkpt lat="43.540709" lon="-7.233632">
        <ele>64.924</ele>
        <time>2019-06-19T16:59:03Z</time>
      </trkpt>
      <trkpt lat="43.540638" lon="-7.233853">
        <ele>65.160</ele>
        <time>2019-06-19T16:59:04Z</time>
      </trkpt>
      <trkpt lat="43.540564" lon="-7.234057">
        <ele>65.348</ele>
        <time>2019-06-19T16:59:05Z</time>
      </trkpt>
      <trkpt lat="43.540491" lon="-7.234268">
        <ele>64.718</ele>
        <time>2019-06-19T16:59:06Z</time>
      </trkpt>
      <trkpt lat="43.540425" lon="-7.234481">
        <ele>64.137</ele>
        <time>2019-06-19T16:59:07Z</time>
      </trkpt>
      <trkpt lat="43.540351" lon="-7.234693">
        <ele>63.449</ele>
        <time>2019-06-19T16:59:08Z</time>
      </trkpt>
      <trkpt lat="43.540281" lon="-7.234896">
        <ele>62.713</ele>
        <time>2019-06-19T16:59:09Z</time>
      </trkpt>
      <trkpt lat="43.540203" lon="-7.235074">
        <ele>62.808</ele>
        <time>2019-06-19T16:59:10Z</time>
      </trkpt>
      <trkpt lat="43.540131" lon="-7.235279">
        <ele>62.676</ele>
        <time>2019-06-19T16:59:11Z</time>
      </trkpt>
      <trkpt lat="43.540058" lon="-7.235483">
        <ele>61.980</ele>
        <time>2019-06-19T16:59:12Z</time>
      </trkpt>
      <trkpt lat="43.539986" lon="-7.235693">
        <ele>61.391</ele>
        <time>2019-06-19T16:59:13Z</time>
      </trkpt>
      <trkpt lat="43.539918" lon="-7.235896">
        <ele>60.564</ele>
        <time>2019-06-19T16:59:14Z</time>
      </trkpt>
      <trkpt lat="43.539855" lon="-7.236102">
        <ele>59.244</ele>
        <time>2019-06-19T16:59:15Z</time>
      </trkpt>
      <trkpt lat="43.539797" lon="-7.236312">
        <ele>59.020</ele>
        <time>2019-06-19T16:59:16Z</time>
      </trkpt>
      <trkpt lat="43.539733" lon="-7.236527">
        <ele>59.378</ele>
        <time>2019-06-19T16:59:17Z</time>
      </trkpt>
      <trkpt lat="43.539674" lon="-7.236741">
        <ele>59.388</ele>
        <time>2019-06-19T16:59:18Z</time>
      </trkpt>
      <trkpt lat="43.539615" lon="-7.236960">
        <ele>58.969</ele>
        <time>2019-06-19T16:59:19Z</time>
      </trkpt>
      <trkpt lat="43.539571" lon="-7.237176">
        <ele>57.804</ele>
        <time>2019-06-19T16:59:20Z</time>
      </trkpt>
      <trkpt lat="43.539545" lon="-7.237388">
        <ele>56.724</ele>
        <time>2019-06-19T16:59:21Z</time>
      </trkpt>
      <trkpt lat="43.539544" lon="-7.237605">
        <ele>55.608</ele>
        <time>2019-06-19T16:59:22Z</time>
      </trkpt>
      <trkpt lat="43.539542" lon="-7.237836">
        <ele>54.859</ele>
        <time>2019-06-19T16:59:23Z</time>
      </trkpt>
      <trkpt lat="43.539566" lon="-7.238061">
        <ele>54.083</ele>
        <time>2019-06-19T16:59:24Z</time>
      </trkpt>
      <trkpt lat="43.539593" lon="-7.238294">
        <ele>54.084</ele>
        <time>2019-06-19T16:59:25Z</time>
      </trkpt>
      <trkpt lat="43.539640" lon="-7.238523">
        <ele>54.787</ele>
        <time>2019-06-19T16:59:26Z</time>
      </trkpt>
      <trkpt lat="43.539688" lon="-7.238758">
        <ele>56.127</ele>
        <time>2019-06-19T16:59:27Z</time>
      </trkpt>
      <trkpt lat="43.539734" lon="-7.238995">
        <ele>57.463</ele>
        <time>2019-06-19T16:59:28Z</time>
      </trkpt>
      <trkpt lat="43.539790" lon="-7.239228">
        <ele>57.961</ele>
        <time>2019-06-19T16:59:29Z</time>
      </trkpt>
      <trkpt lat="43.539833" lon="-7.239467">
        <ele>57.641</ele>
        <time>2019-06-19T16:59:30Z</time>
      </trkpt>
      <trkpt lat="43.539874" lon="-7.239696">
        <ele>57.924</ele>
        <time>2019-06-19T16:59:31Z</time>
      </trkpt>
      <trkpt lat="43.539917" lon="-7.239939">
        <ele>58.004</ele>
        <time>2019-06-19T16:59:32Z</time>
      </trkpt>
      <trkpt lat="43.539952" lon="-7.240182">
        <ele>58.114</ele>
        <time>2019-06-19T16:59:33Z</time>
      </trkpt>
      <trkpt lat="43.539974" lon="-7.240417">
        <ele>58.108</ele>
        <time>2019-06-19T16:59:34Z</time>
      </trkpt>
      <trkpt lat="43.539996" lon="-7.240650">
        <ele>58.455</ele>
        <time>2019-06-19T16:59:35Z</time>
      </trkpt>
      <trkpt lat="43.540010" lon="-7.240907">
        <ele>58.929</ele>
        <time>2019-06-19T16:59:36Z</time>
      </trkpt>
      <trkpt lat="43.540029" lon="-7.241176">
        <ele>58.740</ele>
        <time>2019-06-19T16:59:37Z</time>
      </trkpt>
      <trkpt lat="43.540031" lon="-7.241441">
        <ele>58.653</ele>
        <time>2019-06-19T16:59:38Z</time>
      </trkpt>
      <trkpt lat="43.540039" lon="-7.241707">
        <ele>57.953</ele>
        <time>2019-06-19T16:59:39Z</time>
      </trkpt>
      <trkpt lat="43.540057" lon="-7.241976">
        <ele>57.089</ele>
        <time>2019-06-19T16:59:40Z</time>
      </trkpt>
      <trkpt lat="43.540068" lon="-7.242224">
        <ele>56.867</ele>
        <time>2019-06-19T16:59:41Z</time>
      </trkpt>
      <trkpt lat="43.540080" lon="-7.242488">
        <ele>56.757</ele>
        <time>2019-06-19T16:59:42Z</time>
      </trkpt>
      <trkpt lat="43.540090" lon="-7.242758">
        <ele>57.359</ele>
        <time>2019-06-19T16:59:43Z</time>
      </trkpt>
      <trkpt lat="43.540102" lon="-7.243026">
        <ele>57.303</ele>
        <time>2019-06-19T16:59:44Z</time>
      </trkpt>
      <trkpt lat="43.540114" lon="-7.243293">
        <ele>57.223</ele>
        <time>2019-06-19T16:59:45Z</time>
      </trkpt>
      <trkpt lat="43.540130" lon="-7.243564">
        <ele>57.108</ele>
        <time>2019-06-19T16:59:46Z</time>
      </trkpt>
      <trkpt lat="43.540156" lon="-7.243840">
        <ele>58.278</ele>
        <time>2019-06-19T16:59:47Z</time>
      </trkpt>
      <trkpt lat="43.540169" lon="-7.244118">
        <ele>58.762</ele>
        <time>2019-06-19T16:59:48Z</time>
      </trkpt>
      <trkpt lat="43.540183" lon="-7.244385">
        <ele>58.773</ele>
        <time>2019-06-19T16:59:49Z</time>
      </trkpt>
      <trkpt lat="43.540194" lon="-7.244665">
        <ele>57.386</ele>
        <time>2019-06-19T16:59:50Z</time>
      </trkpt>
      <trkpt lat="43.540209" lon="-7.244942">
        <ele>56.516</ele>
        <time>2019-06-19T16:59:51Z</time>
      </trkpt>
      <trkpt lat="43.540222" lon="-7.245218">
        <ele>56.432</ele>
        <time>2019-06-19T16:59:52Z</time>
      </trkpt>
      <trkpt lat="43.540231" lon="-7.245500">
        <ele>57.110</ele>
        <time>2019-06-19T16:59:53Z</time>
      </trkpt>
      <trkpt lat="43.540238" lon="-7.245783">
        <ele>55.880</ele>
        <time>2019-06-19T16:59:54Z</time>
      </trkpt>
      <trkpt lat="43.540241" lon="-7.246066">
        <ele>54.447</ele>
        <time>2019-06-19T16:59:55Z</time>
      </trkpt>
      <trkpt lat="43.540245" lon="-7.246353">
        <ele>53.429</ele>
        <time>2019-06-19T16:59:56Z</time>
      </trkpt>
      <trkpt lat="43.540258" lon="-7.246633">
        <ele>53.121</ele>
        <time>2019-06-19T16:59:57Z</time>
      </trkpt>
      <trkpt lat="43.540260" lon="-7.246912">
        <ele>52.208</ele>
        <time>2019-06-19T16:59:58Z</time>
      </trkpt>
      <trkpt lat="43.540262" lon="-7.247191">
        <ele>51.237</ele>
        <time>2019-06-19T16:59:59Z</time>
      </trkpt>
      <trkpt lat="43.540262" lon="-7.247469">
        <ele>49.461</ele>
        <time>2019-06-19T17:00:00Z</time>
      </trkpt>
      <trkpt lat="43.540262" lon="-7.247749">
        <ele>49.182</ele>
        <time>2019-06-19T17:00:01Z</time>
      </trkpt>
      <trkpt lat="43.540262" lon="-7.248030">
        <ele>50.085</ele>
        <time>2019-06-19T17:00:02Z</time>
      </trkpt>
      <trkpt lat="43.540262" lon="-7.248320">
        <ele>50.165</ele>
        <time>2019-06-19T17:00:03Z</time>
      </trkpt>
      <trkpt lat="43.540262" lon="-7.248594">
        <ele>50.111</ele>
        <time>2019-06-19T17:00:04Z</time>
      </trkpt>
      <trkpt lat="43.540262" lon="-7.248851">
        <ele>50.139</ele>
        <time>2019-06-19T17:00:05Z</time>
      </trkpt>
      <trkpt lat="43.540258" lon="-7.249105">
        <ele>50.829</ele>
        <time>2019-06-19T17:00:06Z</time>
      </trkpt>
      <trkpt lat="43.540251" lon="-7.249368">
        <ele>51.161</ele>
        <time>2019-06-19T17:00:07Z</time>
      </trkpt>
      <trkpt lat="43.540244" lon="-7.249644">
        <ele>50.421</ele>
        <time>2019-06-19T17:00:08Z</time>
      </trkpt>
      <trkpt lat="43.540233" lon="-7.249913">
        <ele>49.513</ele>
        <time>2019-06-19T17:00:09Z</time>
      </trkpt>
      <trkpt lat="43.540223" lon="-7.250153">
        <ele>48.608</ele>
        <time>2019-06-19T17:00:10Z</time>
      </trkpt>
      <trkpt lat="43.540225" lon="-7.250396">
        <ele>48.149</ele>
        <time>2019-06-19T17:00:11Z</time>
      </trkpt>
      <trkpt lat="43.540220" lon="-7.250615">
        <ele>47.843</ele>
        <time>2019-06-19T17:00:12Z</time>
      </trkpt>
      <trkpt lat="43.540216" lon="-7.250816">
        <ele>47.154</ele>
        <time>2019-06-19T17:00:13Z</time>
      </trkpt>
      <trkpt lat="43.540215" lon="-7.251000">
        <ele>45.937</ele>
        <time>2019-06-19T17:00:14Z</time>
      </trkpt>
      <trkpt lat="43.540212" lon="-7.251147">
        <ele>45.127</ele>
        <time>2019-06-19T17:00:15Z</time>
      </trkpt>
      <trkpt lat="43.540217" lon="-7.251269">
        <ele>44.623</ele>
        <time>2019-06-19T17:00:16Z</time>
      </trkpt>
      <trkpt lat="43.540226" lon="-7.251366">
        <ele>44.311</ele>
        <time>2019-06-19T17:00:17Z</time>
      </trkpt>
      <trkpt lat="43.540241" lon="-7.251438">
        <ele>44.141</ele>
        <time>2019-06-19T17:00:18Z</time>
      </trkpt>
      <trkpt lat="43.540268" lon="-7.251495">
        <ele>44.065</ele>
        <time>2019-06-19T17:00:19Z</time>
      </trkpt>
      <trkpt lat="43.540300" lon="-7.251553">
        <ele>44.068</ele>
        <time>2019-06-19T17:00:20Z</time>
      </trkpt>
      <trkpt lat="43.540334" lon="-7.251614">
        <ele>43.814</ele>
        <time>2019-06-19T17:00:21Z</time>
      </trkpt>
      <trkpt lat="43.540370" lon="-7.251686">
        <ele>43.608</ele>
        <time>2019-06-19T17:00:22Z</time>
      </trkpt>
      <trkpt lat="43.540390" lon="-7.251750">
        <ele>43.319</ele>
        <time>2019-06-19T17:00:23Z</time>
      </trkpt>
      <trkpt lat="43.540403" lon="-7.251825">
        <ele>43.073</ele>
        <time>2019-06-19T17:00:24Z</time>
      </trkpt>
      <trkpt lat="43.540409" lon="-7.251902">
        <ele>42.724</ele>
        <time>2019-06-19T17:00:25Z</time>
      </trkpt>
      <trkpt lat="43.540405" lon="-7.251976">
        <ele>42.357</ele>
        <time>2019-06-19T17:00:26Z</time>
      </trkpt>
      <trkpt lat="43.540395" lon="-7.252046">
        <ele>41.617</ele>
        <time>2019-06-19T17:00:27Z</time>
      </trkpt>
      <trkpt lat="43.540374" lon="-7.252121">
        <ele>41.053</ele>
        <time>2019-06-19T17:00:28Z</time>
      </trkpt>
      <trkpt lat="43.540342" lon="-7.252174">
        <ele>40.511</ele>
        <time>2019-06-19T17:00:29Z</time>
      </trkpt>
      <trkpt lat="43.540310" lon="-7.252226">
        <ele>40.071</ele>
        <time>2019-06-19T17:00:31Z</time>
      </trkpt>
      <trkpt lat="43.540314" lon="-7.252305">
        <ele>39.487</ele>
        <time>2019-06-19T17:00:39Z</time>
      </trkpt>
      <trkpt lat="43.540327" lon="-7.252370">
        <ele>38.942</ele>
        <time>2019-06-19T17:00:40Z</time>
      </trkpt>
      <trkpt lat="43.540325" lon="-7.252474">
        <ele>38.226</ele>
        <time>2019-06-19T17:00:41Z</time>
      </trkpt>
      <trkpt lat="43.540326" lon="-7.252603">
        <ele>37.708</ele>
        <time>2019-06-19T17:00:42Z</time>
      </trkpt>
      <trkpt lat="43.540327" lon="-7.252750">
        <ele>37.371</ele>
        <time>2019-06-19T17:00:43Z</time>
      </trkpt>
      <trkpt lat="43.540328" lon="-7.252924">
        <ele>37.165</ele>
        <time>2019-06-19T17:00:44Z</time>
      </trkpt>
      <trkpt lat="43.540330" lon="-7.253126">
        <ele>37.016</ele>
        <time>2019-06-19T17:00:45Z</time>
      </trkpt>
      <trkpt lat="43.540334" lon="-7.253339">
        <ele>37.079</ele>
        <time>2019-06-19T17:00:46Z</time>
      </trkpt>
      <trkpt lat="43.540337" lon="-7.253565">
        <ele>37.219</ele>
        <time>2019-06-19T17:00:47Z</time>
      </trkpt>
      <trkpt lat="43.540342" lon="-7.253803">
        <ele>37.975</ele>
        <time>2019-06-19T17:00:48Z</time>
      </trkpt>
      <trkpt lat="43.540348" lon="-7.254056">
        <ele>39.393</ele>
        <time>2019-06-19T17:00:49Z</time>
      </trkpt>
      <trkpt lat="43.540351" lon="-7.254328">
        <ele>39.683</ele>
        <time>2019-06-19T17:00:50Z</time>
      </trkpt>
      <trkpt lat="43.540354" lon="-7.254596">
        <ele>39.554</ele>
        <time>2019-06-19T17:00:51Z</time>
      </trkpt>
      <trkpt lat="43.540361" lon="-7.254869">
        <ele>39.556</ele>
        <time>2019-06-19T17:00:52Z</time>
      </trkpt>
      <trkpt lat="43.540370" lon="-7.255146">
        <ele>38.811</ele>
        <time>2019-06-19T17:00:53Z</time>
      </trkpt>
      <trkpt lat="43.540378" lon="-7.255427">
        <ele>37.408</ele>
        <time>2019-06-19T17:00:54Z</time>
      </trkpt>
      <trkpt lat="43.540390" lon="-7.255708">
        <ele>36.898</ele>
        <time>2019-06-19T17:00:55Z</time>
      </trkpt>
      <trkpt lat="43.540397" lon="-7.255994">
        <ele>37.522</ele>
        <time>2019-06-19T17:00:56Z</time>
      </trkpt>
      <trkpt lat="43.540402" lon="-7.256278">
        <ele>38.213</ele>
        <time>2019-06-19T17:00:57Z</time>
      </trkpt>
      <trkpt lat="43.540404" lon="-7.256561">
        <ele>39.066</ele>
        <time>2019-06-19T17:00:58Z</time>
      </trkpt>
      <trkpt lat="43.540407" lon="-7.256848">
        <ele>39.076</ele>
        <time>2019-06-19T17:00:59Z</time>
      </trkpt>
      <trkpt lat="43.540413" lon="-7.257144">
        <ele>38.972</ele>
        <time>2019-06-19T17:01:00Z</time>
      </trkpt>
      <trkpt lat="43.540420" lon="-7.257442">
        <ele>39.550</ele>
        <time>2019-06-19T17:01:01Z</time>
      </trkpt>
      <trkpt lat="43.540425" lon="-7.257746">
        <ele>39.640</ele>
        <time>2019-06-19T17:01:02Z</time>
      </trkpt>
      <trkpt lat="43.540428" lon="-7.258055">
        <ele>39.258</ele>
        <time>2019-06-19T17:01:03Z</time>
      </trkpt>
      <trkpt lat="43.540433" lon="-7.258361">
        <ele>38.652</ele>
        <time>2019-06-19T17:01:04Z</time>
      </trkpt>
      <trkpt lat="43.540439" lon="-7.258664">
        <ele>38.717</ele>
        <time>2019-06-19T17:01:05Z</time>
      </trkpt>
      <trkpt lat="43.540445" lon="-7.258968">
        <ele>39.208</ele>
        <time>2019-06-19T17:01:06Z</time>
      </trkpt>
      <trkpt lat="43.540449" lon="-7.259273">
        <ele>39.278</ele>
        <time>2019-06-19T17:01:07Z</time>
      </trkpt>
      <trkpt lat="43.540453" lon="-7.259556">
        <ele>37.142</ele>
        <time>2019-06-19T17:01:08Z</time>
      </trkpt>
      <trkpt lat="43.540453" lon="-7.259841">
        <ele>34.553</ele>
        <time>2019-06-19T17:01:09Z</time>
      </trkpt>
      <trkpt lat="43.540446" lon="-7.260132">
        <ele>33.746</ele>
        <time>2019-06-19T17:01:10Z</time>
      </trkpt>
      <trkpt lat="43.540435" lon="-7.260424">
        <ele>33.526</ele>
        <time>2019-06-19T17:01:11Z</time>
      </trkpt>
      <trkpt lat="43.540417" lon="-7.260716">
        <ele>33.522</ele>
        <time>2019-06-19T17:01:12Z</time>
      </trkpt>
      <trkpt lat="43.540385" lon="-7.261014">
        <ele>33.070</ele>
        <time>2019-06-19T17:01:13Z</time>
      </trkpt>
      <trkpt lat="43.540344" lon="-7.261318">
        <ele>32.090</ele>
        <time>2019-06-19T17:01:14Z</time>
      </trkpt>
      <trkpt lat="43.540299" lon="-7.261610">
        <ele>31.115</ele>
        <time>2019-06-19T17:01:15Z</time>
      </trkpt>
      <trkpt lat="43.540243" lon="-7.261901">
        <ele>29.565</ele>
        <time>2019-06-19T17:01:16Z</time>
      </trkpt>
      <trkpt lat="43.540196" lon="-7.262188">
        <ele>26.011</ele>
        <time>2019-06-19T17:01:17Z</time>
      </trkpt>
      <trkpt lat="43.540148" lon="-7.262471">
        <ele>21.508</ele>
        <time>2019-06-19T17:01:18Z</time>
      </trkpt>
      <trkpt lat="43.540101" lon="-7.262738">
        <ele>17.844</ele>
        <time>2019-06-19T17:01:19Z</time>
      </trkpt>
      <trkpt lat="43.540057" lon="-7.263015">
        <ele>15.448</ele>
        <time>2019-06-19T17:01:20Z</time>
      </trkpt>
      <trkpt lat="43.540013" lon="-7.263288">
        <ele>15.039</ele>
        <time>2019-06-19T17:01:21Z</time>
      </trkpt>
      <trkpt lat="43.539962" lon="-7.263545">
        <ele>15.232</ele>
        <time>2019-06-19T17:01:22Z</time>
      </trkpt>
      <trkpt lat="43.539920" lon="-7.263811">
        <ele>14.782</ele>
        <time>2019-06-19T17:01:23Z</time>
      </trkpt>
      <trkpt lat="43.539878" lon="-7.264085">
        <ele>13.178</ele>
        <time>2019-06-19T17:01:24Z</time>
      </trkpt>
      <trkpt lat="43.539852" lon="-7.264353">
        <ele>11.746</ele>
        <time>2019-06-19T17:01:25Z</time>
      </trkpt>
      <trkpt lat="43.539840" lon="-7.264628">
        <ele>9.356</ele>
        <time>2019-06-19T17:01:26Z</time>
      </trkpt>
      <trkpt lat="43.539836" lon="-7.264904">
        <ele>7.349</ele>
        <time>2019-06-19T17:01:27Z</time>
      </trkpt>
      <trkpt lat="43.539839" lon="-7.265183">
        <ele>6.802</ele>
        <time>2019-06-19T17:01:28Z</time>
      </trkpt>
      <trkpt lat="43.539861" lon="-7.265462">
        <ele>6.722</ele>
        <time>2019-06-19T17:01:29Z</time>
      </trkpt>
      <trkpt lat="43.539894" lon="-7.265746">
        <ele>5.208</ele>
        <time>2019-06-19T17:01:30Z</time>
      </trkpt>
      <trkpt lat="43.539933" lon="-7.266028">
        <ele>4.177</ele>
        <time>2019-06-19T17:01:31Z</time>
      </trkpt>
      <trkpt lat="43.539983" lon="-7.266310">
        <ele>3.211</ele>
        <time>2019-06-19T17:01:32Z</time>
      </trkpt>
      <trkpt lat="43.540058" lon="-7.266587">
        <ele>2.362</ele>
        <time>2019-06-19T17:01:33Z</time>
      </trkpt>
      <trkpt lat="43.540135" lon="-7.266869">
        <ele>1.665</ele>
        <time>2019-06-19T17:01:34Z</time>
      </trkpt>
      <trkpt lat="43.540222" lon="-7.267145">
        <ele>1.155</ele>
        <time>2019-06-19T17:01:35Z</time>
      </trkpt>
      <trkpt lat="43.540317" lon="-7.267393">
        <ele>0.341</ele>
        <time>2019-06-19T17:01:36Z</time>
      </trkpt>
      <trkpt lat="43.540425" lon="-7.267642">
        <ele>-0.559</ele>
        <time>2019-06-19T17:01:37Z</time>
      </trkpt>
      <trkpt lat="43.540544" lon="-7.267872">
        <ele>-1.359</ele>
        <time>2019-06-19T17:01:38Z</time>
      </trkpt>
      <trkpt lat="43.540661" lon="-7.268088">
        <ele>-1.473</ele>
        <time>2019-06-19T17:01:39Z</time>
      </trkpt>
      <trkpt lat="43.540798" lon="-7.268299">
        <ele>0.685</ele>
        <time>2019-06-19T17:01:40Z</time>
      </trkpt>
      <trkpt lat="43.540938" lon="-7.268502">
        <ele>2.113</ele>
        <time>2019-06-19T17:01:41Z</time>
      </trkpt>
      <trkpt lat="43.541078" lon="-7.268699">
        <ele>3.008</ele>
        <time>2019-06-19T17:01:42Z</time>
      </trkpt>
      <trkpt lat="43.541223" lon="-7.268884">
        <ele>4.110</ele>
        <time>2019-06-19T17:01:43Z</time>
      </trkpt>
      <trkpt lat="43.541356" lon="-7.269061">
        <ele>6.374</ele>
        <time>2019-06-19T17:01:44Z</time>
      </trkpt>
      <trkpt lat="43.541495" lon="-7.269234">
        <ele>7.765</ele>
        <time>2019-06-19T17:01:45Z</time>
      </trkpt>
      <trkpt lat="43.541634" lon="-7.269385">
        <ele>7.838</ele>
        <time>2019-06-19T17:01:46Z</time>
      </trkpt>
      <trkpt lat="43.541771" lon="-7.269512">
        <ele>6.288</ele>
        <time>2019-06-19T17:01:47Z</time>
      </trkpt>
      <trkpt lat="43.541912" lon="-7.269620">
        <ele>2.634</ele>
        <time>2019-06-19T17:01:48Z</time>
      </trkpt>
      <trkpt lat="43.542054" lon="-7.269702">
        <ele>0.382</ele>
        <time>2019-06-19T17:01:49Z</time>
      </trkpt>
      <trkpt lat="43.542205" lon="-7.269782">
        <ele>-0.952</ele>
        <time>2019-06-19T17:01:50Z</time>
      </trkpt>
      <trkpt lat="43.542365" lon="-7.269843">
        <ele>0.387</ele>
        <time>2019-06-19T17:01:51Z</time>
      </trkpt>
      <trkpt lat="43.542531" lon="-7.269885">
        <ele>1.942</ele>
        <time>2019-06-19T17:01:52Z</time>
      </trkpt>
      <trkpt lat="43.542701" lon="-7.269900">
        <ele>3.826</ele>
        <time>2019-06-19T17:01:53Z</time>
      </trkpt>
      <trkpt lat="43.542881" lon="-7.269897">
        <ele>5.208</ele>
        <time>2019-06-19T17:01:54Z</time>
      </trkpt>
      <trkpt lat="43.543065" lon="-7.269886">
        <ele>6.251</ele>
        <time>2019-06-19T17:01:55Z</time>
      </trkpt>
      <trkpt lat="43.543249" lon="-7.269870">
        <ele>6.145</ele>
        <time>2019-06-19T17:01:56Z</time>
      </trkpt>
      <trkpt lat="43.543424" lon="-7.269850">
        <ele>6.486</ele>
        <time>2019-06-19T17:01:57Z</time>
      </trkpt>
      <trkpt lat="43.543604" lon="-7.269830">
        <ele>7.179</ele>
        <time>2019-06-19T17:01:58Z</time>
      </trkpt>
      <trkpt lat="43.543785" lon="-7.269825">
        <ele>9.059</ele>
        <time>2019-06-19T17:01:59Z</time>
      </trkpt>
      <trkpt lat="43.543967" lon="-7.269827">
        <ele>9.525</ele>
        <time>2019-06-19T17:02:00Z</time>
      </trkpt>
      <trkpt lat="43.544138" lon="-7.269856">
        <ele>8.253</ele>
        <time>2019-06-19T17:02:01Z</time>
      </trkpt>
      <trkpt lat="43.544304" lon="-7.269907">
        <ele>7.793</ele>
        <time>2019-06-19T17:02:02Z</time>
      </trkpt>
      <trkpt lat="43.544463" lon="-7.269990">
        <ele>7.839</ele>
        <time>2019-06-19T17:02:03Z</time>
      </trkpt>
      <trkpt lat="43.544621" lon="-7.270090">
        <ele>9.501</ele>
        <time>2019-06-19T17:02:04Z</time>
      </trkpt>
      <trkpt lat="43.544777" lon="-7.270199">
        <ele>12.021</ele>
        <time>2019-06-19T17:02:05Z</time>
      </trkpt>
      <trkpt lat="43.544930" lon="-7.270315">
        <ele>15.008</ele>
        <time>2019-06-19T17:02:06Z</time>
      </trkpt>
      <trkpt lat="43.545084" lon="-7.270428">
        <ele>15.926</ele>
        <time>2019-06-19T17:02:07Z</time>
      </trkpt>
      <trkpt lat="43.545240" lon="-7.270536">
        <ele>14.610</ele>
        <time>2019-06-19T17:02:08Z</time>
      </trkpt>
      <trkpt lat="43.545395" lon="-7.270636">
        <ele>12.461</ele>
        <time>2019-06-19T17:02:09Z</time>
      </trkpt>
      <trkpt lat="43.545560" lon="-7.270720">
        <ele>9.244</ele>
        <time>2019-06-19T17:02:10Z</time>
      </trkpt>
      <trkpt lat="43.545730" lon="-7.270783">
        <ele>9.544</ele>
        <time>2019-06-19T17:02:11Z</time>
      </trkpt>
      <trkpt lat="43.545895" lon="-7.270812">
        <ele>9.830</ele>
        <time>2019-06-19T17:02:12Z</time>
      </trkpt>
      <trkpt lat="43.546056" lon="-7.270817">
        <ele>9.958</ele>
        <time>2019-06-19T17:02:13Z</time>
      </trkpt>
      <trkpt lat="43.546220" lon="-7.270796">
        <ele>11.058</ele>
        <time>2019-06-19T17:02:14Z</time>
      </trkpt>
      <trkpt lat="43.546385" lon="-7.270750">
        <ele>12.791</ele>
        <time>2019-06-19T17:02:15Z</time>
      </trkpt>
      <trkpt lat="43.546546" lon="-7.270673">
        <ele>14.681</ele>
        <time>2019-06-19T17:02:16Z</time>
      </trkpt>
      <trkpt lat="43.546706" lon="-7.270575">
        <ele>15.919</ele>
        <time>2019-06-19T17:02:17Z</time>
      </trkpt>
      <trkpt lat="43.546866" lon="-7.270458">
        <ele>17.908</ele>
        <time>2019-06-19T17:02:18Z</time>
      </trkpt>
      <trkpt lat="43.547013" lon="-7.270327">
        <ele>19.392</ele>
        <time>2019-06-19T17:02:19Z</time>
      </trkpt>
      <trkpt lat="43.547168" lon="-7.270186">
        <ele>20.626</ele>
        <time>2019-06-19T17:02:20Z</time>
      </trkpt>
      <trkpt lat="43.547323" lon="-7.270040">
        <ele>20.767</ele>
        <time>2019-06-19T17:02:21Z</time>
      </trkpt>
      <trkpt lat="43.547475" lon="-7.269890">
        <ele>19.320</ele>
        <time>2019-06-19T17:02:22Z</time>
      </trkpt>
      <trkpt lat="43.547634" lon="-7.269742">
        <ele>19.210</ele>
        <time>2019-06-19T17:02:23Z</time>
      </trkpt>
      <trkpt lat="43.547796" lon="-7.269595">
        <ele>19.916</ele>
        <time>2019-06-19T17:02:24Z</time>
      </trkpt>
      <trkpt lat="43.547960" lon="-7.269439">
        <ele>21.334</ele>
        <time>2019-06-19T17:02:25Z</time>
      </trkpt>
      <trkpt lat="43.548126" lon="-7.269283">
        <ele>23.444</ele>
        <time>2019-06-19T17:02:26Z</time>
      </trkpt>
      <trkpt lat="43.548296" lon="-7.269132">
        <ele>25.364</ele>
        <time>2019-06-19T17:02:27Z</time>
      </trkpt>
      <trkpt lat="43.548462" lon="-7.268980">
        <ele>26.906</ele>
        <time>2019-06-19T17:02:28Z</time>
      </trkpt>
      <trkpt lat="43.548622" lon="-7.268829">
        <ele>27.716</ele>
        <time>2019-06-19T17:02:29Z</time>
      </trkpt>
      <trkpt lat="43.548787" lon="-7.268676">
        <ele>29.008</ele>
        <time>2019-06-19T17:02:30Z</time>
      </trkpt>
      <trkpt lat="43.548951" lon="-7.268520">
        <ele>29.899</ele>
        <time>2019-06-19T17:02:31Z</time>
      </trkpt>
      <trkpt lat="43.549113" lon="-7.268364">
        <ele>29.863</ele>
        <time>2019-06-19T17:02:32Z</time>
      </trkpt>
      <trkpt lat="43.549280" lon="-7.268211">
        <ele>30.884</ele>
        <time>2019-06-19T17:02:33Z</time>
      </trkpt>
      <trkpt lat="43.549446" lon="-7.268058">
        <ele>32.057</ele>
        <time>2019-06-19T17:02:34Z</time>
      </trkpt>
      <trkpt lat="43.549611" lon="-7.267902">
        <ele>34.197</ele>
        <time>2019-06-19T17:02:35Z</time>
      </trkpt>
      <trkpt lat="43.549776" lon="-7.267752">
        <ele>35.643</ele>
        <time>2019-06-19T17:02:36Z</time>
      </trkpt>
      <trkpt lat="43.549942" lon="-7.267599">
        <ele>36.911</ele>
        <time>2019-06-19T17:02:37Z</time>
      </trkpt>
      <trkpt lat="43.550110" lon="-7.267451">
        <ele>38.421</ele>
        <time>2019-06-19T17:02:38Z</time>
      </trkpt>
      <trkpt lat="43.550277" lon="-7.267304">
        <ele>40.334</ele>
        <time>2019-06-19T17:02:39Z</time>
      </trkpt>
      <trkpt lat="43.550452" lon="-7.267173">
        <ele>40.555</ele>
        <time>2019-06-19T17:02:40Z</time>
      </trkpt>
      <trkpt lat="43.550623" lon="-7.267043">
        <ele>40.810</ele>
        <time>2019-06-19T17:02:41Z</time>
      </trkpt>
      <trkpt lat="43.550801" lon="-7.266923">
        <ele>41.808</ele>
        <time>2019-06-19T17:02:42Z</time>
      </trkpt>
      <trkpt lat="43.550998" lon="-7.266822">
        <ele>44.796</ele>
        <time>2019-06-19T17:02:43Z</time>
      </trkpt>
      <trkpt lat="43.551196" lon="-7.266724">
        <ele>46.880</ele>
        <time>2019-06-19T17:02:44Z</time>
      </trkpt>
      <trkpt lat="43.551392" lon="-7.266633">
        <ele>48.051</ele>
        <time>2019-06-19T17:02:45Z</time>
      </trkpt>
      <trkpt lat="43.551590" lon="-7.266548">
        <ele>46.634</ele>
        <time>2019-06-19T17:02:46Z</time>
      </trkpt>
      <trkpt lat="43.551779" lon="-7.266466">
        <ele>46.424</ele>
        <time>2019-06-19T17:02:47Z</time>
      </trkpt>
      <trkpt lat="43.551961" lon="-7.266389">
        <ele>47.120</ele>
        <time>2019-06-19T17:02:48Z</time>
      </trkpt>
      <trkpt lat="43.552135" lon="-7.266318">
        <ele>47.818</ele>
        <time>2019-06-19T17:02:49Z</time>
      </trkpt>
      <trkpt lat="43.552297" lon="-7.266254">
        <ele>48.468</ele>
        <time>2019-06-19T17:02:50Z</time>
      </trkpt>
      <trkpt lat="43.552451" lon="-7.266200">
        <ele>49.144</ele>
        <time>2019-06-19T17:02:51Z</time>
      </trkpt>
      <trkpt lat="43.552603" lon="-7.266155">
        <ele>48.805</ele>
        <time>2019-06-19T17:02:52Z</time>
      </trkpt>
      <trkpt lat="43.552763" lon="-7.266113">
        <ele>48.115</ele>
        <time>2019-06-19T17:02:53Z</time>
      </trkpt>
      <trkpt lat="43.552931" lon="-7.266090">
        <ele>47.908</ele>
        <time>2019-06-19T17:02:54Z</time>
      </trkpt>
      <trkpt lat="43.553100" lon="-7.266093">
        <ele>47.757</ele>
        <time>2019-06-19T17:02:55Z</time>
      </trkpt>
      <trkpt lat="43.553273" lon="-7.266113">
        <ele>47.221</ele>
        <time>2019-06-19T17:02:56Z</time>
      </trkpt>
      <trkpt lat="43.553436" lon="-7.266148">
        <ele>46.132</ele>
        <time>2019-06-19T17:02:57Z</time>
      </trkpt>
      <trkpt lat="43.553600" lon="-7.266209">
        <ele>44.565</ele>
        <time>2019-06-19T17:02:58Z</time>
      </trkpt>
      <trkpt lat="43.553761" lon="-7.266265">
        <ele>42.455</ele>
        <time>2019-06-19T17:02:59Z</time>
      </trkpt>
      <trkpt lat="43.553914" lon="-7.266385">
        <ele>40.761</ele>
        <time>2019-06-19T17:03:00Z</time>
      </trkpt>
      <trkpt lat="43.554063" lon="-7.266513">
        <ele>39.559</ele>
        <time>2019-06-19T17:03:01Z</time>
      </trkpt>
      <trkpt lat="43.554195" lon="-7.266649">
        <ele>37.869</ele>
        <time>2019-06-19T17:03:02Z</time>
      </trkpt>
      <trkpt lat="43.554317" lon="-7.266797">
        <ele>36.486</ele>
        <time>2019-06-19T17:03:03Z</time>
      </trkpt>
      <trkpt lat="43.554427" lon="-7.266963">
        <ele>34.260</ele>
        <time>2019-06-19T17:03:04Z</time>
      </trkpt>
      <trkpt lat="43.554524" lon="-7.267143">
        <ele>32.226</ele>
        <time>2019-06-19T17:03:05Z</time>
      </trkpt>
      <trkpt lat="43.554619" lon="-7.267340">
        <ele>30.908</ele>
        <time>2019-06-19T17:03:06Z</time>
      </trkpt>
      <trkpt lat="43.554700" lon="-7.267550">
        <ele>30.711</ele>
        <time>2019-06-19T17:03:07Z</time>
      </trkpt>
      <trkpt lat="43.554776" lon="-7.267758">
        <ele>31.115</ele>
        <time>2019-06-19T17:03:08Z</time>
      </trkpt>
      <trkpt lat="43.554846" lon="-7.267974">
        <ele>29.586</ele>
        <time>2019-06-19T17:03:09Z</time>
      </trkpt>
      <trkpt lat="43.554921" lon="-7.268190">
        <ele>27.239</ele>
        <time>2019-06-19T17:03:10Z</time>
      </trkpt>
      <trkpt lat="43.554995" lon="-7.268398">
        <ele>24.889</ele>
        <time>2019-06-19T17:03:11Z</time>
      </trkpt>
      <trkpt lat="43.555070" lon="-7.268607">
        <ele>23.545</ele>
        <time>2019-06-19T17:03:12Z</time>
      </trkpt>
      <trkpt lat="43.555156" lon="-7.268821">
        <ele>22.143</ele>
        <time>2019-06-19T17:03:13Z</time>
      </trkpt>
      <trkpt lat="43.555252" lon="-7.269028">
        <ele>20.783</ele>
        <time>2019-06-19T17:03:14Z</time>
      </trkpt>
      <trkpt lat="43.555362" lon="-7.269231">
        <ele>18.745</ele>
        <time>2019-06-19T17:03:15Z</time>
      </trkpt>
      <trkpt lat="43.555480" lon="-7.269429">
        <ele>17.547</ele>
        <time>2019-06-19T17:03:16Z</time>
      </trkpt>
      <trkpt lat="43.555610" lon="-7.269622">
        <ele>16.811</ele>
        <time>2019-06-19T17:03:17Z</time>
      </trkpt>
      <trkpt lat="43.555754" lon="-7.269802">
        <ele>16.508</ele>
        <time>2019-06-19T17:03:18Z</time>
      </trkpt>
      <trkpt lat="43.555916" lon="-7.269980">
        <ele>16.967</ele>
        <time>2019-06-19T17:03:19Z</time>
      </trkpt>
      <trkpt lat="43.556085" lon="-7.270135">
        <ele>17.941</ele>
        <time>2019-06-19T17:03:20Z</time>
      </trkpt>
      <trkpt lat="43.556260" lon="-7.270273">
        <ele>20.032</ele>
        <time>2019-06-19T17:03:21Z</time>
      </trkpt>
      <trkpt lat="43.556436" lon="-7.270391">
        <ele>22.125</ele>
        <time>2019-06-19T17:03:22Z</time>
      </trkpt>
      <trkpt lat="43.556614" lon="-7.270487">
        <ele>23.515</ele>
        <time>2019-06-19T17:03:23Z</time>
      </trkpt>
      <trkpt lat="43.556794" lon="-7.270567">
        <ele>24.561</ele>
        <time>2019-06-19T17:03:24Z</time>
      </trkpt>
      <trkpt lat="43.556974" lon="-7.270622">
        <ele>25.279</ele>
        <time>2019-06-19T17:03:25Z</time>
      </trkpt>
      <trkpt lat="43.557162" lon="-7.270647">
        <ele>25.369</ele>
        <time>2019-06-19T17:03:26Z</time>
      </trkpt>
      <trkpt lat="43.557349" lon="-7.270668">
        <ele>26.131</ele>
        <time>2019-06-19T17:03:27Z</time>
      </trkpt>
      <trkpt lat="43.557539" lon="-7.270672">
        <ele>27.261</ele>
        <time>2019-06-19T17:03:28Z</time>
      </trkpt>
      <trkpt lat="43.557722" lon="-7.270651">
        <ele>28.107</ele>
        <time>2019-06-19T17:03:29Z</time>
      </trkpt>
      <trkpt lat="43.557898" lon="-7.270623">
        <ele>28.708</ele>
        <time>2019-06-19T17:03:30Z</time>
      </trkpt>
      <trkpt lat="43.558085" lon="-7.270593">
        <ele>29.126</ele>
        <time>2019-06-19T17:03:31Z</time>
      </trkpt>
      <trkpt lat="43.558263" lon="-7.270560">
        <ele>29.040</ele>
        <time>2019-06-19T17:03:32Z</time>
      </trkpt>
      <trkpt lat="43.558428" lon="-7.270522">
        <ele>28.441</ele>
        <time>2019-06-19T17:03:33Z</time>
      </trkpt>
      <trkpt lat="43.558590" lon="-7.270477">
        <ele>27.424</ele>
        <time>2019-06-19T17:03:34Z</time>
      </trkpt>
      <trkpt lat="43.558736" lon="-7.270449">
        <ele>25.664</ele>
        <time>2019-06-19T17:03:35Z</time>
      </trkpt>
      <trkpt lat="43.558883" lon="-7.270400">
        <ele>23.620</ele>
        <time>2019-06-19T17:03:36Z</time>
      </trkpt>
      <trkpt lat="43.559028" lon="-7.270362">
        <ele>22.028</ele>
        <time>2019-06-19T17:03:37Z</time>
      </trkpt>
      <trkpt lat="43.559163" lon="-7.270333">
        <ele>20.638</ele>
        <time>2019-06-19T17:03:38Z</time>
      </trkpt>
      <trkpt lat="43.559298" lon="-7.270317">
        <ele>19.422</ele>
        <time>2019-06-19T17:03:39Z</time>
      </trkpt>
      <trkpt lat="43.559458" lon="-7.270323">
        <ele>17.862</ele>
        <time>2019-06-19T17:03:40Z</time>
      </trkpt>
      <trkpt lat="43.559606" lon="-7.270352">
        <ele>17.308</ele>
        <time>2019-06-19T17:03:41Z</time>
      </trkpt>
      <trkpt lat="43.559763" lon="-7.270407">
        <ele>17.008</ele>
        <time>2019-06-19T17:03:42Z</time>
      </trkpt>
      <trkpt lat="43.559903" lon="-7.270497">
        <ele>17.015</ele>
        <time>2019-06-19T17:03:43Z</time>
      </trkpt>
      <trkpt lat="43.560058" lon="-7.270610">
        <ele>16.729</ele>
        <time>2019-06-19T17:03:44Z</time>
      </trkpt>
      <trkpt lat="43.560229" lon="-7.270723">
        <ele>15.550</ele>
        <time>2019-06-19T17:03:45Z</time>
      </trkpt>
      <trkpt lat="43.560387" lon="-7.270858">
        <ele>14.323</ele>
        <time>2019-06-19T17:03:46Z</time>
      </trkpt>
      <trkpt lat="43.560556" lon="-7.271021">
        <ele>13.033</ele>
        <time>2019-06-19T17:03:47Z</time>
      </trkpt>
      <trkpt lat="43.560711" lon="-7.271163">
        <ele>13.159</ele>
        <time>2019-06-19T17:03:48Z</time>
      </trkpt>
      <trkpt lat="43.560886" lon="-7.271318">
        <ele>13.797</ele>
        <time>2019-06-19T17:03:49Z</time>
      </trkpt>
      <trkpt lat="43.561061" lon="-7.271476">
        <ele>13.567</ele>
        <time>2019-06-19T17:03:50Z</time>
      </trkpt>
      <trkpt lat="43.561240" lon="-7.271625">
        <ele>13.273</ele>
        <time>2019-06-19T17:03:51Z</time>
      </trkpt>
      <trkpt lat="43.561405" lon="-7.271778">
        <ele>13.585</ele>
        <time>2019-06-19T17:03:52Z</time>
      </trkpt>
      <trkpt lat="43.561565" lon="-7.271924">
        <ele>13.913</ele>
        <time>2019-06-19T17:03:53Z</time>
      </trkpt>
      <trkpt lat="43.561715" lon="-7.272059">
        <ele>13.408</ele>
        <time>2019-06-19T17:03:54Z</time>
      </trkpt>
      <trkpt lat="43.561865" lon="-7.272198">
        <ele>12.740</ele>
        <time>2019-06-19T17:03:55Z</time>
      </trkpt>
      <trkpt lat="43.561979" lon="-7.272282">
        <ele>12.344</ele>
        <time>2019-06-19T17:03:56Z</time>
      </trkpt>
      <trkpt lat="43.562091" lon="-7.272381">
        <ele>12.355</ele>
        <time>2019-06-19T17:03:57Z</time>
      </trkpt>
      <trkpt lat="43.562198" lon="-7.272466">
        <ele>12.028</ele>
        <time>2019-06-19T17:03:58Z</time>
      </trkpt>
      <trkpt lat="43.562291" lon="-7.272536">
        <ele>11.728</ele>
        <time>2019-06-19T17:03:59Z</time>
      </trkpt>
      <trkpt lat="43.562381" lon="-7.272594">
        <ele>11.364</ele>
        <time>2019-06-19T17:04:00Z</time>
      </trkpt>
      <trkpt lat="43.562458" lon="-7.272649">
        <ele>10.962</ele>
        <time>2019-06-19T17:04:01Z</time>
      </trkpt>
      <trkpt lat="43.562528" lon="-7.272718">
        <ele>10.892</ele>
        <time>2019-06-19T17:04:02Z</time>
      </trkpt>
      <trkpt lat="43.562604" lon="-7.272799">
        <ele>11.272</ele>
        <time>2019-06-19T17:04:03Z</time>
      </trkpt>
      <trkpt lat="43.562690" lon="-7.272890">
        <ele>11.713</ele>
        <time>2019-06-19T17:04:04Z</time>
      </trkpt>
      <trkpt lat="43.562781" lon="-7.272997">
        <ele>11.814</ele>
        <time>2019-06-19T17:04:05Z</time>
      </trkpt>
      <trkpt lat="43.562885" lon="-7.273088">
        <ele>12.108</ele>
        <time>2019-06-19T17:04:06Z</time>
      </trkpt>
      <trkpt lat="43.562997" lon="-7.273197">
        <ele>12.280</ele>
        <time>2019-06-19T17:04:07Z</time>
      </trkpt>
      <trkpt lat="43.563135" lon="-7.273310">
        <ele>12.344</ele>
        <time>2019-06-19T17:04:08Z</time>
      </trkpt>
      <trkpt lat="43.563278" lon="-7.273430">
        <ele>13.245</ele>
        <time>2019-06-19T17:04:09Z</time>
      </trkpt>
      <trkpt lat="43.563420" lon="-7.273565">
        <ele>13.898</ele>
        <time>2019-06-19T17:04:10Z</time>
      </trkpt>
      <trkpt lat="43.563561" lon="-7.273697">
        <ele>14.068</ele>
        <time>2019-06-19T17:04:11Z</time>
      </trkpt>
      <trkpt lat="43.563697" lon="-7.273827">
        <ele>14.224</ele>
        <time>2019-06-19T17:04:12Z</time>
      </trkpt>
      <trkpt lat="43.563847" lon="-7.273955">
        <ele>15.152</ele>
        <time>2019-06-19T17:04:13Z</time>
      </trkpt>
      <trkpt lat="43.563993" lon="-7.274069">
        <ele>16.562</ele>
        <time>2019-06-19T17:04:14Z</time>
      </trkpt>
      <trkpt lat="43.564149" lon="-7.274194">
        <ele>17.754</ele>
        <time>2019-06-19T17:04:15Z</time>
      </trkpt>
      <trkpt lat="43.564308" lon="-7.274315">
        <ele>16.956</ele>
        <time>2019-06-19T17:04:16Z</time>
      </trkpt>
      <trkpt lat="43.564473" lon="-7.274416">
        <ele>16.111</ele>
        <time>2019-06-19T17:04:17Z</time>
      </trkpt>
      <trkpt lat="43.564637" lon="-7.274501">
        <ele>14.608</ele>
        <time>2019-06-19T17:04:18Z</time>
      </trkpt>
      <trkpt lat="43.564811" lon="-7.274577">
        <ele>12.168</ele>
        <time>2019-06-19T17:04:19Z</time>
      </trkpt>
      <trkpt lat="43.564991" lon="-7.274638">
        <ele>9.352</ele>
        <time>2019-06-19T17:04:20Z</time>
      </trkpt>
      <trkpt lat="43.565170" lon="-7.274671">
        <ele>8.093</ele>
        <time>2019-06-19T17:04:21Z</time>
      </trkpt>
      <trkpt lat="43.565349" lon="-7.274705">
        <ele>7.796</ele>
        <time>2019-06-19T17:04:22Z</time>
      </trkpt>
      <trkpt lat="43.565513" lon="-7.274678">
        <ele>9.226</ele>
        <time>2019-06-19T17:04:23Z</time>
      </trkpt>
      <trkpt lat="43.565680" lon="-7.274651">
        <ele>11.432</ele>
        <time>2019-06-19T17:04:24Z</time>
      </trkpt>
      <trkpt lat="43.565832" lon="-7.274618">
        <ele>13.760</ele>
        <time>2019-06-19T17:04:25Z</time>
      </trkpt>
      <trkpt lat="43.565977" lon="-7.274546">
        <ele>15.840</ele>
        <time>2019-06-19T17:04:26Z</time>
      </trkpt>
      <trkpt lat="43.566129" lon="-7.274473">
        <ele>17.913</ele>
        <time>2019-06-19T17:04:27Z</time>
      </trkpt>
      <trkpt lat="43.566284" lon="-7.274353">
        <ele>19.143</ele>
        <time>2019-06-19T17:04:28Z</time>
      </trkpt>
      <trkpt lat="43.566442" lon="-7.274245">
        <ele>19.907</ele>
        <time>2019-06-19T17:04:29Z</time>
      </trkpt>
      <trkpt lat="43.566603" lon="-7.274116">
        <ele>21.508</ele>
        <time>2019-06-19T17:04:30Z</time>
      </trkpt>
      <trkpt lat="43.566752" lon="-7.273962">
        <ele>24.054</ele>
        <time>2019-06-19T17:04:31Z</time>
      </trkpt>
      <trkpt lat="43.566906" lon="-7.273798">
        <ele>26.018</ele>
        <time>2019-06-19T17:04:32Z</time>
      </trkpt>
      <trkpt lat="43.567043" lon="-7.273630">
        <ele>27.519</ele>
        <time>2019-06-19T17:04:33Z</time>
      </trkpt>
      <trkpt lat="43.567179" lon="-7.273441">
        <ele>28.432</ele>
        <time>2019-06-19T17:04:34Z</time>
      </trkpt>
      <trkpt lat="43.567318" lon="-7.273252">
        <ele>28.912</ele>
        <time>2019-06-19T17:04:35Z</time>
      </trkpt>
      <trkpt lat="43.567452" lon="-7.273053">
        <ele>29.428</ele>
        <time>2019-06-19T17:04:36Z</time>
      </trkpt>
      <trkpt lat="43.567567" lon="-7.272864">
        <ele>30.466</ele>
        <time>2019-06-19T17:04:37Z</time>
      </trkpt>
      <trkpt lat="43.567691" lon="-7.272667">
        <ele>31.766</ele>
        <time>2019-06-19T17:04:38Z</time>
      </trkpt>
      <trkpt lat="43.567824" lon="-7.272462">
        <ele>33.427</ele>
        <time>2019-06-19T17:04:39Z</time>
      </trkpt>
      <trkpt lat="43.567958" lon="-7.272261">
        <ele>35.468</ele>
        <time>2019-06-19T17:04:40Z</time>
      </trkpt>
      <trkpt lat="43.568093" lon="-7.272064">
        <ele>38.314</ele>
        <time>2019-06-19T17:04:41Z</time>
      </trkpt>
      <trkpt lat="43.568226" lon="-7.271861">
        <ele>39.908</ele>
        <time>2019-06-19T17:04:42Z</time>
      </trkpt>
      <trkpt lat="43.568361" lon="-7.271658">
        <ele>40.045</ele>
        <time>2019-06-19T17:04:43Z</time>
      </trkpt>
      <trkpt lat="43.568500" lon="-7.271456">
        <ele>41.719</ele>
        <time>2019-06-19T17:04:44Z</time>
      </trkpt>
      <trkpt lat="43.568646" lon="-7.271261">
        <ele>42.970</ele>
        <time>2019-06-19T17:04:45Z</time>
      </trkpt>
      <trkpt lat="43.568819" lon="-7.271085">
        <ele>43.433</ele>
        <time>2019-06-19T17:04:46Z</time>
      </trkpt>
      <trkpt lat="43.568989" lon="-7.270931">
        <ele>43.873</ele>
        <time>2019-06-19T17:04:47Z</time>
      </trkpt>
      <trkpt lat="43.569163" lon="-7.270786">
        <ele>43.419</ele>
        <time>2019-06-19T17:04:48Z</time>
      </trkpt>
      <trkpt lat="43.569336" lon="-7.270668">
        <ele>44.457</ele>
        <time>2019-06-19T17:04:49Z</time>
      </trkpt>
      <trkpt lat="43.569525" lon="-7.270570">
        <ele>45.297</ele>
        <time>2019-06-19T17:04:50Z</time>
      </trkpt>
      <trkpt lat="43.569711" lon="-7.270488">
        <ele>46.455</ele>
        <time>2019-06-19T17:04:51Z</time>
      </trkpt>
      <trkpt lat="43.569888" lon="-7.270426">
        <ele>48.407</ele>
        <time>2019-06-19T17:04:52Z</time>
      </trkpt>
      <trkpt lat="43.570088" lon="-7.270380">
        <ele>50.117</ele>
        <time>2019-06-19T17:04:53Z</time>
      </trkpt>
      <trkpt lat="43.570259" lon="-7.270348">
        <ele>50.908</ele>
        <time>2019-06-19T17:04:54Z</time>
      </trkpt>
      <trkpt lat="43.570442" lon="-7.270347">
        <ele>51.118</ele>
        <time>2019-06-19T17:04:55Z</time>
      </trkpt>
      <trkpt lat="43.570631" lon="-7.270376">
        <ele>51.352</ele>
        <time>2019-06-19T17:04:56Z</time>
      </trkpt>
      <trkpt lat="43.570834" lon="-7.270402">
        <ele>51.073</ele>
        <time>2019-06-19T17:04:57Z</time>
      </trkpt>
      <trkpt lat="43.571032" lon="-7.270432">
        <ele>50.756</ele>
        <time>2019-06-19T17:04:58Z</time>
      </trkpt>
      <trkpt lat="43.571232" lon="-7.270457">
        <ele>50.556</ele>
        <time>2019-06-19T17:04:59Z</time>
      </trkpt>
      <trkpt lat="43.571439" lon="-7.270494">
        <ele>50.712</ele>
        <time>2019-06-19T17:05:00Z</time>
      </trkpt>
      <trkpt lat="43.571653" lon="-7.270528">
        <ele>51.810</ele>
        <time>2019-06-19T17:05:01Z</time>
      </trkpt>
      <trkpt lat="43.571868" lon="-7.270574">
        <ele>52.140</ele>
        <time>2019-06-19T17:05:02Z</time>
      </trkpt>
      <trkpt lat="43.572096" lon="-7.270616">
        <ele>51.992</ele>
        <time>2019-06-19T17:05:03Z</time>
      </trkpt>
      <trkpt lat="43.572322" lon="-7.270652">
        <ele>51.373</ele>
        <time>2019-06-19T17:05:04Z</time>
      </trkpt>
      <trkpt lat="43.572544" lon="-7.270688">
        <ele>50.720</ele>
        <time>2019-06-19T17:05:05Z</time>
      </trkpt>
      <trkpt lat="43.572770" lon="-7.270723">
        <ele>49.608</ele>
        <time>2019-06-19T17:05:06Z</time>
      </trkpt>
      <trkpt lat="43.573000" lon="-7.270763">
        <ele>48.392</ele>
        <time>2019-06-19T17:05:07Z</time>
      </trkpt>
      <trkpt lat="43.573227" lon="-7.270801">
        <ele>47.456</ele>
        <time>2019-06-19T17:05:08Z</time>
      </trkpt>
      <trkpt lat="43.573450" lon="-7.270833">
        <ele>47.437</ele>
        <time>2019-06-19T17:05:09Z</time>
      </trkpt>
      <trkpt lat="43.573672" lon="-7.270874">
        <ele>48.180</ele>
        <time>2019-06-19T17:05:10Z</time>
      </trkpt>
      <trkpt lat="43.573890" lon="-7.270906">
        <ele>48.070</ele>
        <time>2019-06-19T17:05:11Z</time>
      </trkpt>
      <trkpt lat="43.574108" lon="-7.270944">
        <ele>46.766</ele>
        <time>2019-06-19T17:05:12Z</time>
      </trkpt>
      <trkpt lat="43.574312" lon="-7.270960">
        <ele>45.424</ele>
        <time>2019-06-19T17:05:13Z</time>
      </trkpt>
      <trkpt lat="43.574518" lon="-7.270996">
        <ele>44.424</ele>
        <time>2019-06-19T17:05:14Z</time>
      </trkpt>
      <trkpt lat="43.574713" lon="-7.271026">
        <ele>43.744</ele>
        <time>2019-06-19T17:05:15Z</time>
      </trkpt>
      <trkpt lat="43.574889" lon="-7.271067">
        <ele>43.105</ele>
        <time>2019-06-19T17:05:16Z</time>
      </trkpt>
      <trkpt lat="43.575058" lon="-7.271115">
        <ele>42.415</ele>
        <time>2019-06-19T17:05:17Z</time>
      </trkpt>
      <trkpt lat="43.575225" lon="-7.271177">
        <ele>40.808</ele>
        <time>2019-06-19T17:05:18Z</time>
      </trkpt>
      <trkpt lat="43.575385" lon="-7.271247">
        <ele>39.747</ele>
        <time>2019-06-19T17:05:19Z</time>
      </trkpt>
      <trkpt lat="43.575536" lon="-7.271340">
        <ele>39.071</ele>
        <time>2019-06-19T17:05:20Z</time>
      </trkpt>
      <trkpt lat="43.575692" lon="-7.271454">
        <ele>38.142</ele>
        <time>2019-06-19T17:05:21Z</time>
      </trkpt>
      <trkpt lat="43.575833" lon="-7.271600">
        <ele>37.895</ele>
        <time>2019-06-19T17:05:22Z</time>
      </trkpt>
      <trkpt lat="43.575963" lon="-7.271763">
        <ele>37.655</ele>
        <time>2019-06-19T17:05:23Z</time>
      </trkpt>
      <trkpt lat="43.576085" lon="-7.271947">
        <ele>38.141</ele>
        <time>2019-06-19T17:05:24Z</time>
      </trkpt>
      <trkpt lat="43.576201" lon="-7.272142">
        <ele>37.319</ele>
        <time>2019-06-19T17:05:25Z</time>
      </trkpt>
      <trkpt lat="43.576293" lon="-7.272304">
        <ele>36.749</ele>
        <time>2019-06-19T17:05:26Z</time>
      </trkpt>
      <trkpt lat="43.576386" lon="-7.272501">
        <ele>36.048</ele>
        <time>2019-06-19T17:05:27Z</time>
      </trkpt>
      <trkpt lat="43.576482" lon="-7.272707">
        <ele>36.961</ele>
        <time>2019-06-19T17:05:28Z</time>
      </trkpt>
      <trkpt lat="43.576583" lon="-7.272900">
        <ele>37.217</ele>
        <time>2019-06-19T17:05:29Z</time>
      </trkpt>
      <trkpt lat="43.576676" lon="-7.273087">
        <ele>37.108</ele>
        <time>2019-06-19T17:05:30Z</time>
      </trkpt>
      <trkpt lat="43.576761" lon="-7.273288">
        <ele>37.717</ele>
        <time>2019-06-19T17:05:31Z</time>
      </trkpt>
      <trkpt lat="43.576848" lon="-7.273467">
        <ele>37.561</ele>
        <time>2019-06-19T17:05:32Z</time>
      </trkpt>
      <trkpt lat="43.576935" lon="-7.273668">
        <ele>37.342</ele>
        <time>2019-06-19T17:05:33Z</time>
      </trkpt>
      <trkpt lat="43.577020" lon="-7.273867">
        <ele>36.955</ele>
        <time>2019-06-19T17:05:34Z</time>
      </trkpt>
      <trkpt lat="43.577126" lon="-7.274085">
        <ele>36.155</ele>
        <time>2019-06-19T17:05:35Z</time>
      </trkpt>
      <trkpt lat="43.577214" lon="-7.274271">
        <ele>35.541</ele>
        <time>2019-06-19T17:05:36Z</time>
      </trkpt>
      <trkpt lat="43.577310" lon="-7.274474">
        <ele>36.019</ele>
        <time>2019-06-19T17:05:37Z</time>
      </trkpt>
      <trkpt lat="43.577405" lon="-7.274662">
        <ele>35.879</ele>
        <time>2019-06-19T17:05:38Z</time>
      </trkpt>
      <trkpt lat="43.577493" lon="-7.274860">
        <ele>35.153</ele>
        <time>2019-06-19T17:05:39Z</time>
      </trkpt>
      <trkpt lat="43.577579" lon="-7.275047">
        <ele>35.004</ele>
        <time>2019-06-19T17:05:40Z</time>
      </trkpt>
      <trkpt lat="43.577669" lon="-7.275227">
        <ele>35.014</ele>
        <time>2019-06-19T17:05:41Z</time>
      </trkpt>
      <trkpt lat="43.577764" lon="-7.275410">
        <ele>35.608</ele>
        <time>2019-06-19T17:05:42Z</time>
      </trkpt>
      <trkpt lat="43.577857" lon="-7.275607">
        <ele>36.798</ele>
        <time>2019-06-19T17:05:43Z</time>
      </trkpt>
      <trkpt lat="43.577954" lon="-7.275801">
        <ele>36.982</ele>
        <time>2019-06-19T17:05:44Z</time>
      </trkpt>
      <trkpt lat="43.578055" lon="-7.275995">
        <ele>36.033</ele>
        <time>2019-06-19T17:05:45Z</time>
      </trkpt>
      <trkpt lat="43.578154" lon="-7.276208">
        <ele>35.876</ele>
        <time>2019-06-19T17:05:46Z</time>
      </trkpt>
      <trkpt lat="43.578260" lon="-7.276384">
        <ele>36.026</ele>
        <time>2019-06-19T17:05:47Z</time>
      </trkpt>
      <trkpt lat="43.578366" lon="-7.276585">
        <ele>37.212</ele>
        <time>2019-06-19T17:05:48Z</time>
      </trkpt>
      <trkpt lat="43.578475" lon="-7.276794">
        <ele>37.260</ele>
        <time>2019-06-19T17:05:49Z</time>
      </trkpt>
      <trkpt lat="43.578588" lon="-7.277015">
        <ele>36.250</ele>
        <time>2019-06-19T17:05:50Z</time>
      </trkpt>
      <trkpt lat="43.578712" lon="-7.277235">
        <ele>34.981</ele>
        <time>2019-06-19T17:05:51Z</time>
      </trkpt>
      <trkpt lat="43.578833" lon="-7.277454">
        <ele>33.661</ele>
        <time>2019-06-19T17:05:52Z</time>
      </trkpt>
      <trkpt lat="43.578950" lon="-7.277673">
        <ele>33.517</ele>
        <time>2019-06-19T17:05:53Z</time>
      </trkpt>
      <trkpt lat="43.579092" lon="-7.277904">
        <ele>33.808</ele>
        <time>2019-06-19T17:05:54Z</time>
      </trkpt>
      <trkpt lat="43.579224" lon="-7.278121">
        <ele>34.641</ele>
        <time>2019-06-19T17:05:55Z</time>
      </trkpt>
      <trkpt lat="43.579344" lon="-7.278337">
        <ele>35.735</ele>
        <time>2019-06-19T17:05:56Z</time>
      </trkpt>
      <trkpt lat="43.579483" lon="-7.278545">
        <ele>35.536</ele>
        <time>2019-06-19T17:05:57Z</time>
      </trkpt>
      <trkpt lat="43.579625" lon="-7.278756">
        <ele>35.779</ele>
        <time>2019-06-19T17:05:58Z</time>
      </trkpt>
      <trkpt lat="43.579760" lon="-7.278966">
        <ele>36.299</ele>
        <time>2019-06-19T17:05:59Z</time>
      </trkpt>
      <trkpt lat="43.579890" lon="-7.279164">
        <ele>36.235</ele>
        <time>2019-06-19T17:06:00Z</time>
      </trkpt>
      <trkpt lat="43.580022" lon="-7.279361">
        <ele>34.823</ele>
        <time>2019-06-19T17:06:01Z</time>
      </trkpt>
      <trkpt lat="43.580156" lon="-7.279565">
        <ele>33.813</ele>
        <time>2019-06-19T17:06:02Z</time>
      </trkpt>
      <trkpt lat="43.580302" lon="-7.279746">
        <ele>34.041</ele>
        <time>2019-06-19T17:06:03Z</time>
      </trkpt>
      <trkpt lat="43.580429" lon="-7.279922">
        <ele>33.881</ele>
        <time>2019-06-19T17:06:04Z</time>
      </trkpt>
      <trkpt lat="43.580562" lon="-7.280098">
        <ele>33.009</ele>
        <time>2019-06-19T17:06:05Z</time>
      </trkpt>
      <trkpt lat="43.580696" lon="-7.280282">
        <ele>33.008</ele>
        <time>2019-06-19T17:06:06Z</time>
      </trkpt>
      <trkpt lat="43.580834" lon="-7.280457">
        <ele>33.047</ele>
        <time>2019-06-19T17:06:07Z</time>
      </trkpt>
      <trkpt lat="43.580962" lon="-7.280630">
        <ele>33.111</ele>
        <time>2019-06-19T17:06:08Z</time>
      </trkpt>
      <trkpt lat="43.581092" lon="-7.280809">
        <ele>33.192</ele>
        <time>2019-06-19T17:06:09Z</time>
      </trkpt>
      <trkpt lat="43.581229" lon="-7.280987">
        <ele>32.975</ele>
        <time>2019-06-19T17:06:10Z</time>
      </trkpt>
      <trkpt lat="43.581365" lon="-7.281160">
        <ele>32.445</ele>
        <time>2019-06-19T17:06:11Z</time>
      </trkpt>
      <trkpt lat="43.581504" lon="-7.281325">
        <ele>32.891</ele>
        <time>2019-06-19T17:06:12Z</time>
      </trkpt>
      <trkpt lat="43.581648" lon="-7.281488">
        <ele>34.149</ele>
        <time>2019-06-19T17:06:13Z</time>
      </trkpt>
      <trkpt lat="43.581795" lon="-7.281649">
        <ele>34.969</ele>
        <time>2019-06-19T17:06:14Z</time>
      </trkpt>
      <trkpt lat="43.581933" lon="-7.281811">
        <ele>34.653</ele>
        <time>2019-06-19T17:06:15Z</time>
      </trkpt>
      <trkpt lat="43.582073" lon="-7.281967">
        <ele>33.204</ele>
        <time>2019-06-19T17:06:16Z</time>
      </trkpt>
      <trkpt lat="43.582227" lon="-7.282129">
        <ele>31.614</ele>
        <time>2019-06-19T17:06:17Z</time>
      </trkpt>
      <trkpt lat="43.582376" lon="-7.282280">
        <ele>31.708</ele>
        <time>2019-06-19T17:06:18Z</time>
      </trkpt>
      <trkpt lat="43.582518" lon="-7.282431">
        <ele>31.738</ele>
        <time>2019-06-19T17:06:19Z</time>
      </trkpt>
      <trkpt lat="43.582661" lon="-7.282587">
        <ele>31.252</ele>
        <time>2019-06-19T17:06:20Z</time>
      </trkpt>
      <trkpt lat="43.582814" lon="-7.282741">
        <ele>30.193</ele>
        <time>2019-06-19T17:06:21Z</time>
      </trkpt>
      <trkpt lat="43.582965" lon="-7.282895">
        <ele>29.366</ele>
        <time>2019-06-19T17:06:22Z</time>
      </trkpt>
      <trkpt lat="43.583104" lon="-7.283041">
        <ele>28.126</ele>
        <time>2019-06-19T17:06:23Z</time>
      </trkpt>
      <trkpt lat="43.583237" lon="-7.283184">
        <ele>28.042</ele>
        <time>2019-06-19T17:06:24Z</time>
      </trkpt>
      <trkpt lat="43.583377" lon="-7.283327">
        <ele>28.290</ele>
        <time>2019-06-19T17:06:25Z</time>
      </trkpt>
      <trkpt lat="43.583503" lon="-7.283458">
        <ele>29.170</ele>
        <time>2019-06-19T17:06:26Z</time>
      </trkpt>
      <trkpt lat="43.583626" lon="-7.283587">
        <ele>29.921</ele>
        <time>2019-06-19T17:06:27Z</time>
      </trkpt>
      <trkpt lat="43.583761" lon="-7.283721">
        <ele>30.041</ele>
        <time>2019-06-19T17:06:28Z</time>
      </trkpt>
      <trkpt lat="43.583885" lon="-7.283853">
        <ele>30.005</ele>
        <time>2019-06-19T17:06:29Z</time>
      </trkpt>
      <trkpt lat="43.584005" lon="-7.283991">
        <ele>29.808</ele>
        <time>2019-06-19T17:06:30Z</time>
      </trkpt>
      <trkpt lat="43.584132" lon="-7.284125">
        <ele>29.335</ele>
        <time>2019-06-19T17:06:31Z</time>
      </trkpt>
      <trkpt lat="43.584262" lon="-7.284263">
        <ele>28.769</ele>
        <time>2019-06-19T17:06:32Z</time>
      </trkpt>
      <trkpt lat="43.584375" lon="-7.284378">
        <ele>28.280</ele>
        <time>2019-06-19T17:06:33Z</time>
      </trkpt>
      <trkpt lat="43.584489" lon="-7.284500">
        <ele>28.453</ele>
        <time>2019-06-19T17:06:34Z</time>
      </trkpt>
      <trkpt lat="43.584601" lon="-7.284616">
        <ele>29.243</ele>
        <time>2019-06-19T17:06:35Z</time>
      </trkpt>
      <trkpt lat="43.584707" lon="-7.284722">
        <ele>30.089</ele>
        <time>2019-06-19T17:06:36Z</time>
      </trkpt>
      <trkpt lat="43.584803" lon="-7.284808">
        <ele>30.547</ele>
        <time>2019-06-19T17:06:37Z</time>
      </trkpt>
      <trkpt lat="43.584895" lon="-7.284890">
        <ele>30.847</ele>
        <time>2019-06-19T17:06:38Z</time>
      </trkpt>
      <trkpt lat="43.584980" lon="-7.284969">
        <ele>31.055</ele>
        <time>2019-06-19T17:06:39Z</time>
      </trkpt>
      <trkpt lat="43.585052" lon="-7.285047">
        <ele>30.707</ele>
        <time>2019-06-19T17:06:40Z</time>
      </trkpt>
      <trkpt lat="43.585130" lon="-7.285102">
        <ele>30.217</ele>
        <time>2019-06-19T17:06:41Z</time>
      </trkpt>
      <trkpt lat="43.585205" lon="-7.285135">
        <ele>29.908</ele>
        <time>2019-06-19T17:06:42Z</time>
      </trkpt>
      <trkpt lat="43.585282" lon="-7.285191">
        <ele>29.718</ele>
        <time>2019-06-19T17:06:43Z</time>
      </trkpt>
      <trkpt lat="43.585360" lon="-7.285270">
        <ele>29.462</ele>
        <time>2019-06-19T17:06:44Z</time>
      </trkpt>
      <trkpt lat="43.585441" lon="-7.285356">
        <ele>29.153</ele>
        <time>2019-06-19T17:06:45Z</time>
      </trkpt>
      <trkpt lat="43.585522" lon="-7.285452">
        <ele>28.996</ele>
        <time>2019-06-19T17:06:46Z</time>
      </trkpt>
      <trkpt lat="43.585595" lon="-7.285549">
        <ele>28.716</ele>
        <time>2019-06-19T17:06:47Z</time>
      </trkpt>
      <trkpt lat="43.585677" lon="-7.285675">
        <ele>28.182</ele>
        <time>2019-06-19T17:06:48Z</time>
      </trkpt>
      <trkpt lat="43.585759" lon="-7.285805">
        <ele>27.570</ele>
        <time>2019-06-19T17:06:49Z</time>
      </trkpt>
      <trkpt lat="43.585842" lon="-7.285921">
        <ele>26.920</ele>
        <time>2019-06-19T17:06:50Z</time>
      </trkpt>
      <trkpt lat="43.585917" lon="-7.286045">
        <ele>26.614</ele>
        <time>2019-06-19T17:06:51Z</time>
      </trkpt>
      <trkpt lat="43.585991" lon="-7.286145">
        <ele>26.654</ele>
        <time>2019-06-19T17:06:52Z</time>
      </trkpt>
      <trkpt lat="43.586055" lon="-7.286244">
        <ele>27.109</ele>
        <time>2019-06-19T17:06:53Z</time>
      </trkpt>
      <trkpt lat="43.586108" lon="-7.286345">
        <ele>27.708</ele>
        <time>2019-06-19T17:06:54Z</time>
      </trkpt>
      <trkpt lat="43.586160" lon="-7.286461">
        <ele>28.144</ele>
        <time>2019-06-19T17:06:55Z</time>
      </trkpt>
      <trkpt lat="43.586223" lon="-7.286583">
        <ele>28.368</ele>
        <time>2019-06-19T17:06:56Z</time>
      </trkpt>
      <trkpt lat="43.586301" lon="-7.286722">
        <ele>28.489</ele>
        <time>2019-06-19T17:06:57Z</time>
      </trkpt>
      <trkpt lat="43.586377" lon="-7.286857">
        <ele>28.192</ele>
        <time>2019-06-19T17:06:58Z</time>
      </trkpt>
      <trkpt lat="43.586469" lon="-7.287003">
        <ele>27.672</ele>
        <time>2019-06-19T17:06:59Z</time>
      </trkpt>
      <trkpt lat="43.586550" lon="-7.287166">
        <ele>27.158</ele>
        <time>2019-06-19T17:07:00Z</time>
      </trkpt>
      <trkpt lat="43.586636" lon="-7.287293">
        <ele>26.896</ele>
        <time>2019-06-19T17:07:01Z</time>
      </trkpt>
      <trkpt lat="43.586728" lon="-7.287422">
        <ele>26.246</ele>
        <time>2019-06-19T17:07:02Z</time>
      </trkpt>
      <trkpt lat="43.586823" lon="-7.287591">
        <ele>26.015</ele>
        <time>2019-06-19T17:07:03Z</time>
      </trkpt>
      <trkpt lat="43.586915" lon="-7.287755">
        <ele>26.065</ele>
        <time>2019-06-19T17:07:04Z</time>
      </trkpt>
      <trkpt lat="43.587002" lon="-7.287922">
        <ele>26.211</ele>
        <time>2019-06-19T17:07:05Z</time>
      </trkpt>
      <trkpt lat="43.587088" lon="-7.288092">
        <ele>26.008</ele>
        <time>2019-06-19T17:07:06Z</time>
      </trkpt>
      <trkpt lat="43.587184" lon="-7.288268">
        <ele>25.374</ele>
        <time>2019-06-19T17:07:07Z</time>
      </trkpt>
      <trkpt lat="43.587274" lon="-7.288446">
        <ele>25.018</ele>
        <time>2019-06-19T17:07:08Z</time>
      </trkpt>
      <trkpt lat="43.587358" lon="-7.288631">
        <ele>25.189</ele>
        <time>2019-06-19T17:07:09Z</time>
      </trkpt>
      <trkpt lat="43.587445" lon="-7.288802">
        <ele>25.232</ele>
        <time>2019-06-19T17:07:10Z</time>
      </trkpt>
      <trkpt lat="43.587552" lon="-7.288986">
        <ele>25.462</ele>
        <time>2019-06-19T17:07:11Z</time>
      </trkpt>
      <trkpt lat="43.587638" lon="-7.289148">
        <ele>25.988</ele>
        <time>2019-06-19T17:07:12Z</time>
      </trkpt>
      <trkpt lat="43.587729" lon="-7.289307">
        <ele>25.466</ele>
        <time>2019-06-19T17:07:13Z</time>
      </trkpt>
      <trkpt lat="43.587819" lon="-7.289468">
        <ele>24.946</ele>
        <time>2019-06-19T17:07:14Z</time>
      </trkpt>
      <trkpt lat="43.587892" lon="-7.289606">
        <ele>24.994</ele>
        <time>2019-06-19T17:07:15Z</time>
      </trkpt>
      <trkpt lat="43.587973" lon="-7.289716">
        <ele>24.657</ele>
        <time>2019-06-19T17:07:16Z</time>
      </trkpt>
      <trkpt lat="43.588042" lon="-7.289852">
        <ele>24.122</ele>
        <time>2019-06-19T17:07:17Z</time>
      </trkpt>
      <trkpt lat="43.588107" lon="-7.289974">
        <ele>23.808</ele>
        <time>2019-06-19T17:07:18Z</time>
      </trkpt>
      <trkpt lat="43.588178" lon="-7.290086">
        <ele>23.612</ele>
        <time>2019-06-19T17:07:19Z</time>
      </trkpt>
      <trkpt lat="43.588242" lon="-7.290199">
        <ele>23.326</ele>
        <time>2019-06-19T17:07:20Z</time>
      </trkpt>
      <trkpt lat="43.588315" lon="-7.290298">
        <ele>23.147</ele>
        <time>2019-06-19T17:07:21Z</time>
      </trkpt>
      <trkpt lat="43.588387" lon="-7.290394">
        <ele>22.870</ele>
        <time>2019-06-19T17:07:22Z</time>
      </trkpt>
      <trkpt lat="43.588455" lon="-7.290486">
        <ele>22.660</ele>
        <time>2019-06-19T17:07:23Z</time>
      </trkpt>
      <trkpt lat="43.588518" lon="-7.290597">
        <ele>22.346</ele>
        <time>2019-06-19T17:07:24Z</time>
      </trkpt>
      <trkpt lat="43.588569" lon="-7.290723">
        <ele>22.224</ele>
        <time>2019-06-19T17:07:25Z</time>
      </trkpt>
      <trkpt lat="43.588620" lon="-7.290841">
        <ele>22.034</ele>
        <time>2019-06-19T17:07:26Z</time>
      </trkpt>
      <trkpt lat="43.588663" lon="-7.290954">
        <ele>21.992</ele>
        <time>2019-06-19T17:07:27Z</time>
      </trkpt>
      <trkpt lat="43.588715" lon="-7.291081">
        <ele>22.073</ele>
        <time>2019-06-19T17:07:28Z</time>
      </trkpt>
      <trkpt lat="43.588773" lon="-7.291224">
        <ele>22.620</ele>
        <time>2019-06-19T17:07:29Z</time>
      </trkpt>
      <trkpt lat="43.588848" lon="-7.291339">
        <ele>22.908</ele>
        <time>2019-06-19T17:07:30Z</time>
      </trkpt>
      <trkpt lat="43.588921" lon="-7.291469">
        <ele>23.392</ele>
        <time>2019-06-19T17:07:31Z</time>
      </trkpt>
      <trkpt lat="43.588992" lon="-7.291599">
        <ele>23.886</ele>
        <time>2019-06-19T17:07:32Z</time>
      </trkpt>
      <trkpt lat="43.589068" lon="-7.291746">
        <ele>24.017</ele>
        <time>2019-06-19T17:07:33Z</time>
      </trkpt>
      <trkpt lat="43.589147" lon="-7.291907">
        <ele>24.060</ele>
        <time>2019-06-19T17:07:34Z</time>
      </trkpt>
      <trkpt lat="43.589240" lon="-7.292064">
        <ele>24.320</ele>
        <time>2019-06-19T17:07:35Z</time>
      </trkpt>
      <trkpt lat="43.589318" lon="-7.292222">
        <ele>24.546</ele>
        <time>2019-06-19T17:07:36Z</time>
      </trkpt>
      <trkpt lat="43.589400" lon="-7.292382">
        <ele>24.414</ele>
        <time>2019-06-19T17:07:37Z</time>
      </trkpt>
      <trkpt lat="43.589483" lon="-7.292531">
        <ele>24.064</ele>
        <time>2019-06-19T17:07:38Z</time>
      </trkpt>
      <trkpt lat="43.589561" lon="-7.292687">
        <ele>23.778</ele>
        <time>2019-06-19T17:07:39Z</time>
      </trkpt>
      <trkpt lat="43.589634" lon="-7.292833">
        <ele>23.333</ele>
        <time>2019-06-19T17:07:40Z</time>
      </trkpt>
      <trkpt lat="43.589710" lon="-7.292967">
        <ele>23.026</ele>
        <time>2019-06-19T17:07:41Z</time>
      </trkpt>
      <trkpt lat="43.589782" lon="-7.293098">
        <ele>23.008</ele>
        <time>2019-06-19T17:07:42Z</time>
      </trkpt>
      <trkpt lat="43.589864" lon="-7.293246">
        <ele>23.010</ele>
        <time>2019-06-19T17:07:43Z</time>
      </trkpt>
      <trkpt lat="43.589945" lon="-7.293396">
        <ele>23.024</ele>
        <time>2019-06-19T17:07:44Z</time>
      </trkpt>
      <trkpt lat="43.590021" lon="-7.293531">
        <ele>23.185</ele>
        <time>2019-06-19T17:07:45Z</time>
      </trkpt>
      <trkpt lat="43.590091" lon="-7.293660">
        <ele>23.418</ele>
        <time>2019-06-19T17:07:46Z</time>
      </trkpt>
      <trkpt lat="43.590164" lon="-7.293779">
        <ele>23.838</ele>
        <time>2019-06-19T17:07:47Z</time>
      </trkpt>
      <trkpt lat="43.590234" lon="-7.293896">
        <ele>24.084</ele>
        <time>2019-06-19T17:07:48Z</time>
      </trkpt>
      <trkpt lat="43.590314" lon="-7.294034">
        <ele>24.162</ele>
        <time>2019-06-19T17:07:49Z</time>
      </trkpt>
      <trkpt lat="43.590378" lon="-7.294169">
        <ele>24.452</ele>
        <time>2019-06-19T17:07:50Z</time>
      </trkpt>
      <trkpt lat="43.590448" lon="-7.294279">
        <ele>24.914</ele>
        <time>2019-06-19T17:07:51Z</time>
      </trkpt>
      <trkpt lat="43.590521" lon="-7.294407">
        <ele>25.154</ele>
        <time>2019-06-19T17:07:52Z</time>
      </trkpt>
      <trkpt lat="43.590589" lon="-7.294536">
        <ele>25.309</ele>
        <time>2019-06-19T17:07:53Z</time>
      </trkpt>
      <trkpt lat="43.590664" lon="-7.294665">
        <ele>25.508</ele>
        <time>2019-06-19T17:07:54Z</time>
      </trkpt>
      <trkpt lat="43.590740" lon="-7.294790">
        <ele>25.674</ele>
        <time>2019-06-19T17:07:55Z</time>
      </trkpt>
      <trkpt lat="43.590807" lon="-7.294924">
        <ele>25.888</ele>
        <time>2019-06-19T17:07:56Z</time>
      </trkpt>
      <trkpt lat="43.590892" lon="-7.295062">
        <ele>25.899</ele>
        <time>2019-06-19T17:07:57Z</time>
      </trkpt>
      <trkpt lat="43.590977" lon="-7.295210">
        <ele>25.662</ele>
        <time>2019-06-19T17:07:58Z</time>
      </trkpt>
      <trkpt lat="43.591072" lon="-7.295362">
        <ele>24.312</ele>
        <time>2019-06-19T17:07:59Z</time>
      </trkpt>
      <trkpt lat="43.591150" lon="-7.295514">
        <ele>22.498</ele>
        <time>2019-06-19T17:08:00Z</time>
      </trkpt>
      <trkpt lat="43.591236" lon="-7.295662">
        <ele>20.676</ele>
        <time>2019-06-19T17:08:01Z</time>
      </trkpt>
      <trkpt lat="43.591324" lon="-7.295812">
        <ele>18.586</ele>
        <time>2019-06-19T17:08:02Z</time>
      </trkpt>
      <trkpt lat="43.591406" lon="-7.295944">
        <ele>17.269</ele>
        <time>2019-06-19T17:08:03Z</time>
      </trkpt>
      <trkpt lat="43.591512" lon="-7.296100">
        <ele>16.204</ele>
        <time>2019-06-19T17:08:04Z</time>
      </trkpt>
      <trkpt lat="43.591623" lon="-7.296241">
        <ele>15.124</ele>
        <time>2019-06-19T17:08:05Z</time>
      </trkpt>
      <trkpt lat="43.591730" lon="-7.296400">
        <ele>14.108</ele>
        <time>2019-06-19T17:08:06Z</time>
      </trkpt>
      <trkpt lat="43.591845" lon="-7.296553">
        <ele>12.879</ele>
        <time>2019-06-19T17:08:07Z</time>
      </trkpt>
      <trkpt lat="43.591967" lon="-7.296705">
        <ele>11.873</ele>
        <time>2019-06-19T17:08:08Z</time>
      </trkpt>
      <trkpt lat="43.592097" lon="-7.296845">
        <ele>10.744</ele>
        <time>2019-06-19T17:08:09Z</time>
      </trkpt>
      <trkpt lat="43.592234" lon="-7.296977">
        <ele>10.027</ele>
        <time>2019-06-19T17:08:10Z</time>
      </trkpt>
      <trkpt lat="43.592370" lon="-7.297111">
        <ele>9.597</ele>
        <time>2019-06-19T17:08:11Z</time>
      </trkpt>
      <trkpt lat="43.592511" lon="-7.297237">
        <ele>8.933</ele>
        <time>2019-06-19T17:08:12Z</time>
      </trkpt>
      <trkpt lat="43.592651" lon="-7.297345">
        <ele>8.631</ele>
        <time>2019-06-19T17:08:13Z</time>
      </trkpt>
      <trkpt lat="43.592805" lon="-7.297446">
        <ele>8.291</ele>
        <time>2019-06-19T17:08:14Z</time>
      </trkpt>
      <trkpt lat="43.592971" lon="-7.297541">
        <ele>7.969</ele>
        <time>2019-06-19T17:08:15Z</time>
      </trkpt>
      <trkpt lat="43.593139" lon="-7.297621">
        <ele>7.304</ele>
        <time>2019-06-19T17:08:16Z</time>
      </trkpt>
      <trkpt lat="43.593313" lon="-7.297701">
        <ele>6.324</ele>
        <time>2019-06-19T17:08:17Z</time>
      </trkpt>
      <trkpt lat="43.593498" lon="-7.297777">
        <ele>5.408</ele>
        <time>2019-06-19T17:08:18Z</time>
      </trkpt>
      <trkpt lat="43.593676" lon="-7.297837">
        <ele>4.679</ele>
        <time>2019-06-19T17:08:19Z</time>
      </trkpt>
      <trkpt lat="43.593838" lon="-7.297888">
        <ele>4.253</ele>
        <time>2019-06-19T17:08:20Z</time>
      </trkpt>
      <trkpt lat="43.594005" lon="-7.297946">
        <ele>3.454</ele>
        <time>2019-06-19T17:08:21Z</time>
      </trkpt>
      <trkpt lat="43.594172" lon="-7.298002">
        <ele>2.487</ele>
        <time>2019-06-19T17:08:22Z</time>
      </trkpt>
      <trkpt lat="43.594331" lon="-7.298053">
        <ele>2.047</ele>
        <time>2019-06-19T17:08:23Z</time>
      </trkpt>
      <trkpt lat="43.594496" lon="-7.298104">
        <ele>2.413</ele>
        <time>2019-06-19T17:08:24Z</time>
      </trkpt>
      <trkpt lat="43.594657" lon="-7.298148">
        <ele>3.821</ele>
        <time>2019-06-19T17:08:25Z</time>
      </trkpt>
      <trkpt lat="43.594818" lon="-7.298200">
        <ele>5.961</ele>
        <time>2019-06-19T17:08:26Z</time>
      </trkpt>
      <trkpt lat="43.594967" lon="-7.298253">
        <ele>8.292</ele>
        <time>2019-06-19T17:08:27Z</time>
      </trkpt>
      <trkpt lat="43.595129" lon="-7.298302">
        <ele>10.773</ele>
        <time>2019-06-19T17:08:28Z</time>
      </trkpt>
      <trkpt lat="43.595286" lon="-7.298352">
        <ele>13.220</ele>
        <time>2019-06-19T17:08:29Z</time>
      </trkpt>
      <trkpt lat="43.595447" lon="-7.298411">
        <ele>15.108</ele>
        <time>2019-06-19T17:08:30Z</time>
      </trkpt>
      <trkpt lat="43.595607" lon="-7.298474">
        <ele>17.022</ele>
        <time>2019-06-19T17:08:31Z</time>
      </trkpt>
      <trkpt lat="43.595766" lon="-7.298541">
        <ele>18.596</ele>
        <time>2019-06-19T17:08:32Z</time>
      </trkpt>
      <trkpt lat="43.595932" lon="-7.298603">
        <ele>19.787</ele>
        <time>2019-06-19T17:08:33Z</time>
      </trkpt>
      <trkpt lat="43.596068" lon="-7.298660">
        <ele>20.540</ele>
        <time>2019-06-19T17:08:34Z</time>
      </trkpt>
      <trkpt lat="43.596205" lon="-7.298723">
        <ele>20.740</ele>
        <time>2019-06-19T17:08:35Z</time>
      </trkpt>
      <trkpt lat="43.596332" lon="-7.298774">
        <ele>20.986</ele>
        <time>2019-06-19T17:08:36Z</time>
      </trkpt>
      <trkpt lat="43.596463" lon="-7.298830">
        <ele>21.254</ele>
        <time>2019-06-19T17:08:37Z</time>
      </trkpt>
      <trkpt lat="43.596573" lon="-7.298879">
        <ele>21.694</ele>
        <time>2019-06-19T17:08:38Z</time>
      </trkpt>
      <trkpt lat="43.596673" lon="-7.298922">
        <ele>22.114</ele>
        <time>2019-06-19T17:08:39Z</time>
      </trkpt>
      <trkpt lat="43.596783" lon="-7.298954">
        <ele>22.954</ele>
        <time>2019-06-19T17:08:40Z</time>
      </trkpt>
      <trkpt lat="43.596891" lon="-7.299013">
        <ele>24.009</ele>
        <time>2019-06-19T17:08:41Z</time>
      </trkpt>
      <trkpt lat="43.596998" lon="-7.299063">
        <ele>24.808</ele>
        <time>2019-06-19T17:08:42Z</time>
      </trkpt>
      <trkpt lat="43.597104" lon="-7.299112">
        <ele>25.194</ele>
        <time>2019-06-19T17:08:43Z</time>
      </trkpt>
      <trkpt lat="43.597209" lon="-7.299165">
        <ele>25.068</ele>
        <time>2019-06-19T17:08:44Z</time>
      </trkpt>
      <trkpt lat="43.597316" lon="-7.299216">
        <ele>24.749</ele>
        <time>2019-06-19T17:08:45Z</time>
      </trkpt>
      <trkpt lat="43.597434" lon="-7.299258">
        <ele>24.182</ele>
        <time>2019-06-19T17:08:46Z</time>
      </trkpt>
      <trkpt lat="43.597548" lon="-7.299307">
        <ele>24.252</ele>
        <time>2019-06-19T17:08:47Z</time>
      </trkpt>
      <trkpt lat="43.597678" lon="-7.299359">
        <ele>25.048</ele>
        <time>2019-06-19T17:08:48Z</time>
      </trkpt>
      <trkpt lat="43.597804" lon="-7.299423">
        <ele>25.856</ele>
        <time>2019-06-19T17:08:49Z</time>
      </trkpt>
      <trkpt lat="43.597927" lon="-7.299487">
        <ele>26.386</ele>
        <time>2019-06-19T17:08:50Z</time>
      </trkpt>
      <trkpt lat="43.598084" lon="-7.299552">
        <ele>26.651</ele>
        <time>2019-06-19T17:08:51Z</time>
      </trkpt>
      <trkpt lat="43.598232" lon="-7.299617">
        <ele>26.001</ele>
        <time>2019-06-19T17:08:52Z</time>
      </trkpt>
      <trkpt lat="43.598386" lon="-7.299678">
        <ele>25.511</ele>
        <time>2019-06-19T17:08:53Z</time>
      </trkpt>
      <trkpt lat="43.598542" lon="-7.299740">
        <ele>25.408</ele>
        <time>2019-06-19T17:08:54Z</time>
      </trkpt>
      <trkpt lat="43.598700" lon="-7.299806">
        <ele>25.758</ele>
        <time>2019-06-19T17:08:55Z</time>
      </trkpt>
      <trkpt lat="43.598858" lon="-7.299875">
        <ele>26.022</ele>
        <time>2019-06-19T17:08:56Z</time>
      </trkpt>
      <trkpt lat="43.599016" lon="-7.299938">
        <ele>25.973</ele>
        <time>2019-06-19T17:08:57Z</time>
      </trkpt>
      <trkpt lat="43.599167" lon="-7.300004">
        <ele>26.096</ele>
        <time>2019-06-19T17:08:58Z</time>
      </trkpt>
      <trkpt lat="43.599313" lon="-7.300066">
        <ele>27.026</ele>
        <time>2019-06-19T17:08:59Z</time>
      </trkpt>
      <trkpt lat="43.599454" lon="-7.300122">
        <ele>27.892</ele>
        <time>2019-06-19T17:09:00Z</time>
      </trkpt>
      <trkpt lat="43.599595" lon="-7.300192">
        <ele>27.850</ele>
        <time>2019-06-19T17:09:01Z</time>
      </trkpt>
      <trkpt lat="43.599719" lon="-7.300250">
        <ele>27.810</ele>
        <time>2019-06-19T17:09:02Z</time>
      </trkpt>
      <trkpt lat="43.599847" lon="-7.300308">
        <ele>27.844</ele>
        <time>2019-06-19T17:09:03Z</time>
      </trkpt>
      <trkpt lat="43.599968" lon="-7.300359">
        <ele>27.705</ele>
        <time>2019-06-19T17:09:04Z</time>
      </trkpt>
      <trkpt lat="43.600085" lon="-7.300413">
        <ele>27.215</ele>
        <time>2019-06-19T17:09:05Z</time>
      </trkpt>
      <trkpt lat="43.600208" lon="-7.300469">
        <ele>26.608</ele>
        <time>2019-06-19T17:09:06Z</time>
      </trkpt>
      <trkpt lat="43.600329" lon="-7.300526">
        <ele>26.377</ele>
        <time>2019-06-19T17:09:07Z</time>
      </trkpt>
      <trkpt lat="43.600454" lon="-7.300586">
        <ele>26.131</ele>
        <time>2019-06-19T17:09:08Z</time>
      </trkpt>
      <trkpt lat="43.600584" lon="-7.300651">
        <ele>26.362</ele>
        <time>2019-06-19T17:09:09Z</time>
      </trkpt>
      <trkpt lat="43.600713" lon="-7.300708">
        <ele>26.625</ele>
        <time>2019-06-19T17:09:10Z</time>
      </trkpt>
      <trkpt lat="43.600839" lon="-7.300762">
        <ele>27.015</ele>
        <time>2019-06-19T17:09:11Z</time>
      </trkpt>
      <trkpt lat="43.600961" lon="-7.300812">
        <ele>28.231</ele>
        <time>2019-06-19T17:09:12Z</time>
      </trkpt>
      <trkpt lat="43.601092" lon="-7.300869">
        <ele>29.389</ele>
        <time>2019-06-19T17:09:13Z</time>
      </trkpt>
      <trkpt lat="43.601219" lon="-7.300926">
        <ele>29.989</ele>
        <time>2019-06-19T17:09:14Z</time>
      </trkpt>
      <trkpt lat="43.601342" lon="-7.300988">
        <ele>30.228</ele>
        <time>2019-06-19T17:09:15Z</time>
      </trkpt>
      <trkpt lat="43.601470" lon="-7.301065">
        <ele>30.389</ele>
        <time>2019-06-19T17:09:16Z</time>
      </trkpt>
      <trkpt lat="43.601595" lon="-7.301140">
        <ele>30.617</ele>
        <time>2019-06-19T17:09:17Z</time>
      </trkpt>
      <trkpt lat="43.601717" lon="-7.301222">
        <ele>31.208</ele>
        <time>2019-06-19T17:09:18Z</time>
      </trkpt>
      <trkpt lat="43.601842" lon="-7.301317">
        <ele>31.715</ele>
        <time>2019-06-19T17:09:19Z</time>
      </trkpt>
      <trkpt lat="43.601969" lon="-7.301411">
        <ele>32.269</ele>
        <time>2019-06-19T17:09:20Z</time>
      </trkpt>
      <trkpt lat="43.602090" lon="-7.301525">
        <ele>33.770</ele>
        <time>2019-06-19T17:09:21Z</time>
      </trkpt>
      <trkpt lat="43.602208" lon="-7.301646">
        <ele>35.613</ele>
        <time>2019-06-19T17:09:22Z</time>
      </trkpt>
      <trkpt lat="43.602317" lon="-7.301783">
        <ele>36.483</ele>
        <time>2019-06-19T17:09:23Z</time>
      </trkpt>
      <trkpt lat="43.602421" lon="-7.301927">
        <ele>37.819</ele>
        <time>2019-06-19T17:09:24Z</time>
      </trkpt>
      <trkpt lat="43.602529" lon="-7.302086">
        <ele>38.557</ele>
        <time>2019-06-19T17:09:25Z</time>
      </trkpt>
      <trkpt lat="43.602621" lon="-7.302246">
        <ele>38.477</ele>
        <time>2019-06-19T17:09:26Z</time>
      </trkpt>
      <trkpt lat="43.602717" lon="-7.302416">
        <ele>37.745</ele>
        <time>2019-06-19T17:09:27Z</time>
      </trkpt>
      <trkpt lat="43.602812" lon="-7.302582">
        <ele>37.047</ele>
        <time>2019-06-19T17:09:28Z</time>
      </trkpt>
      <trkpt lat="43.602905" lon="-7.302746">
        <ele>36.511</ele>
        <time>2019-06-19T17:09:29Z</time>
      </trkpt>
      <trkpt lat="43.603002" lon="-7.302917">
        <ele>36.708</ele>
        <time>2019-06-19T17:09:30Z</time>
      </trkpt>
      <trkpt lat="43.603105" lon="-7.303079">
        <ele>37.337</ele>
        <time>2019-06-19T17:09:31Z</time>
      </trkpt>
      <trkpt lat="43.603203" lon="-7.303226">
        <ele>37.331</ele>
        <time>2019-06-19T17:09:32Z</time>
      </trkpt>
      <trkpt lat="43.603299" lon="-7.303361">
        <ele>37.192</ele>
        <time>2019-06-19T17:09:33Z</time>
      </trkpt>
      <trkpt lat="43.603403" lon="-7.303491">
        <ele>36.885</ele>
        <time>2019-06-19T17:09:34Z</time>
      </trkpt>
      <trkpt lat="43.603505" lon="-7.303623">
        <ele>36.465</ele>
        <time>2019-06-19T17:09:35Z</time>
      </trkpt>
      <trkpt lat="43.603616" lon="-7.303728">
        <ele>35.651</ele>
        <time>2019-06-19T17:09:36Z</time>
      </trkpt>
      <trkpt lat="43.603720" lon="-7.303845">
        <ele>35.129</ele>
        <time>2019-06-19T17:09:37Z</time>
      </trkpt>
      <trkpt lat="43.603832" lon="-7.303959">
        <ele>34.279</ele>
        <time>2019-06-19T17:09:38Z</time>
      </trkpt>
      <trkpt lat="43.603965" lon="-7.304081">
        <ele>33.553</ele>
        <time>2019-06-19T17:09:39Z</time>
      </trkpt>
      <trkpt lat="43.604089" lon="-7.304198">
        <ele>32.904</ele>
        <time>2019-06-19T17:09:40Z</time>
      </trkpt>
      <trkpt lat="43.604200" lon="-7.304311">
        <ele>32.714</ele>
        <time>2019-06-19T17:09:41Z</time>
      </trkpt>
      <trkpt lat="43.604303" lon="-7.304431">
        <ele>32.908</ele>
        <time>2019-06-19T17:09:42Z</time>
      </trkpt>
      <trkpt lat="43.604422" lon="-7.304556">
        <ele>32.228</ele>
        <time>2019-06-19T17:09:43Z</time>
      </trkpt>
      <trkpt lat="43.604540" lon="-7.304695">
        <ele>30.462</ele>
        <time>2019-06-19T17:09:44Z</time>
      </trkpt>
      <trkpt lat="43.604660" lon="-7.304840">
        <ele>28.813</ele>
        <time>2019-06-19T17:09:45Z</time>
      </trkpt>
      <trkpt lat="43.604780" lon="-7.304993">
        <ele>27.536</ele>
        <time>2019-06-19T17:09:46Z</time>
      </trkpt>
      <trkpt lat="43.604888" lon="-7.305167">
        <ele>27.046</ele>
        <time>2019-06-19T17:09:47Z</time>
      </trkpt>
      <trkpt lat="43.605003" lon="-7.305343">
        <ele>26.652</ele>
        <time>2019-06-19T17:09:48Z</time>
      </trkpt>
      <trkpt lat="43.605131" lon="-7.305547">
        <ele>26.110</ele>
        <time>2019-06-19T17:09:49Z</time>
      </trkpt>
      <trkpt lat="43.605250" lon="-7.305772">
        <ele>25.260</ele>
        <time>2019-06-19T17:09:50Z</time>
      </trkpt>
      <trkpt lat="43.605379" lon="-7.305990">
        <ele>25.272</ele>
        <time>2019-06-19T17:09:51Z</time>
      </trkpt>
      <trkpt lat="43.605520" lon="-7.306215">
        <ele>24.813</ele>
        <time>2019-06-19T17:09:52Z</time>
      </trkpt>
      <trkpt lat="43.605660" lon="-7.306444">
        <ele>24.714</ele>
        <time>2019-06-19T17:09:53Z</time>
      </trkpt>
      <trkpt lat="43.605805" lon="-7.306670">
        <ele>24.508</ele>
        <time>2019-06-19T17:09:54Z</time>
      </trkpt>
      <trkpt lat="43.605934" lon="-7.306899">
        <ele>25.190</ele>
        <time>2019-06-19T17:09:55Z</time>
      </trkpt>
      <trkpt lat="43.606059" lon="-7.307117">
        <ele>25.064</ele>
        <time>2019-06-19T17:09:56Z</time>
      </trkpt>
      <trkpt lat="43.606195" lon="-7.307358">
        <ele>23.995</ele>
        <time>2019-06-19T17:09:57Z</time>
      </trkpt>
      <trkpt lat="43.606329" lon="-7.307602">
        <ele>23.028</ele>
        <time>2019-06-19T17:09:58Z</time>
      </trkpt>
      <trkpt lat="43.606464" lon="-7.307843">
        <ele>22.348</ele>
        <time>2019-06-19T17:09:59Z</time>
      </trkpt>
      <trkpt lat="43.606597" lon="-7.308095">
        <ele>21.624</ele>
        <time>2019-06-19T17:10:00Z</time>
      </trkpt>
      <trkpt lat="43.606729" lon="-7.308333">
        <ele>22.352</ele>
        <time>2019-06-19T17:10:01Z</time>
      </trkpt>
      <trkpt lat="43.606862" lon="-7.308585">
        <ele>23.072</ele>
        <time>2019-06-19T17:10:02Z</time>
      </trkpt>
      <trkpt lat="43.606992" lon="-7.308832">
        <ele>24.131</ele>
        <time>2019-06-19T17:10:03Z</time>
      </trkpt>
      <trkpt lat="43.607125" lon="-7.309077">
        <ele>25.161</ele>
        <time>2019-06-19T17:10:04Z</time>
      </trkpt>
      <trkpt lat="43.607261" lon="-7.309315">
        <ele>25.507</ele>
        <time>2019-06-19T17:10:05Z</time>
      </trkpt>
      <trkpt lat="43.607391" lon="-7.309540">
        <ele>26.508</ele>
        <time>2019-06-19T17:10:06Z</time>
      </trkpt>
      <trkpt lat="43.607524" lon="-7.309747">
        <ele>26.886</ele>
        <time>2019-06-19T17:10:07Z</time>
      </trkpt>
      <trkpt lat="43.607642" lon="-7.309914">
        <ele>26.210</ele>
        <time>2019-06-19T17:10:08Z</time>
      </trkpt>
      <trkpt lat="43.607762" lon="-7.310099">
        <ele>26.281</ele>
        <time>2019-06-19T17:10:09Z</time>
      </trkpt>
      <trkpt lat="43.607891" lon="-7.310244">
        <ele>26.984</ele>
        <time>2019-06-19T17:10:10Z</time>
      </trkpt>
      <trkpt lat="43.608017" lon="-7.310370">
        <ele>27.274</ele>
        <time>2019-06-19T17:10:11Z</time>
      </trkpt>
      <trkpt lat="43.608147" lon="-7.310469">
        <ele>27.690</ele>
        <time>2019-06-19T17:10:12Z</time>
      </trkpt>
      <trkpt lat="43.608289" lon="-7.310553">
        <ele>27.348</ele>
        <time>2019-06-19T17:10:13Z</time>
      </trkpt>
      <trkpt lat="43.608442" lon="-7.310627">
        <ele>26.578</ele>
        <time>2019-06-19T17:10:14Z</time>
      </trkpt>
      <trkpt lat="43.608604" lon="-7.310673">
        <ele>25.538</ele>
        <time>2019-06-19T17:10:15Z</time>
      </trkpt>
      <trkpt lat="43.608767" lon="-7.310712">
        <ele>24.470</ele>
        <time>2019-06-19T17:10:16Z</time>
      </trkpt>
      <trkpt lat="43.608921" lon="-7.310728">
        <ele>23.517</ele>
        <time>2019-06-19T17:10:17Z</time>
      </trkpt>
      <trkpt lat="43.609076" lon="-7.310755">
        <ele>23.008</ele>
        <time>2019-06-19T17:10:18Z</time>
      </trkpt>
      <trkpt lat="43.609232" lon="-7.310777">
        <ele>22.646</ele>
        <time>2019-06-19T17:10:19Z</time>
      </trkpt>
      <trkpt lat="43.609382" lon="-7.310820">
        <ele>22.280</ele>
        <time>2019-06-19T17:10:20Z</time>
      </trkpt>
      <trkpt lat="43.609518" lon="-7.310875">
        <ele>21.651</ele>
        <time>2019-06-19T17:10:21Z</time>
      </trkpt>
      <trkpt lat="43.609654" lon="-7.310945">
        <ele>21.144</ele>
        <time>2019-06-19T17:10:22Z</time>
      </trkpt>
      <trkpt lat="43.609784" lon="-7.311039">
        <ele>20.764</ele>
        <time>2019-06-19T17:10:23Z</time>
      </trkpt>
      <trkpt lat="43.609904" lon="-7.311152">
        <ele>20.410</ele>
        <time>2019-06-19T17:10:24Z</time>
      </trkpt>
      <trkpt lat="43.610026" lon="-7.311291">
        <ele>20.698</ele>
        <time>2019-06-19T17:10:25Z</time>
      </trkpt>
      <trkpt lat="43.610159" lon="-7.311451">
        <ele>20.778</ele>
        <time>2019-06-19T17:10:26Z</time>
      </trkpt>
      <trkpt lat="43.610296" lon="-7.311625">
        <ele>21.757</ele>
        <time>2019-06-19T17:10:27Z</time>
      </trkpt>
      <trkpt lat="43.610436" lon="-7.311796">
        <ele>22.200</ele>
        <time>2019-06-19T17:10:28Z</time>
      </trkpt>
      <trkpt lat="43.610574" lon="-7.311973">
        <ele>21.920</ele>
        <time>2019-06-19T17:10:29Z</time>
      </trkpt>
      <trkpt lat="43.610717" lon="-7.312151">
        <ele>21.308</ele>
        <time>2019-06-19T17:10:30Z</time>
      </trkpt>
      <trkpt lat="43.610860" lon="-7.312326">
        <ele>20.858</ele>
        <time>2019-06-19T17:10:31Z</time>
      </trkpt>
      <trkpt lat="43.611000" lon="-7.312502">
        <ele>19.882</ele>
        <time>2019-06-19T17:10:32Z</time>
      </trkpt>
      <trkpt lat="43.611136" lon="-7.312652">
        <ele>19.063</ele>
        <time>2019-06-19T17:10:33Z</time>
      </trkpt>
      <trkpt lat="43.611276" lon="-7.312842">
        <ele>18.816</ele>
        <time>2019-06-19T17:10:34Z</time>
      </trkpt>
      <trkpt lat="43.611408" lon="-7.313021">
        <ele>18.226</ele>
        <time>2019-06-19T17:10:35Z</time>
      </trkpt>
      <trkpt lat="43.611535" lon="-7.313204">
        <ele>18.572</ele>
        <time>2019-06-19T17:10:36Z</time>
      </trkpt>
      <trkpt lat="43.611673" lon="-7.313398">
        <ele>18.810</ele>
        <time>2019-06-19T17:10:37Z</time>
      </trkpt>
      <trkpt lat="43.611822" lon="-7.313599">
        <ele>18.070</ele>
        <time>2019-06-19T17:10:38Z</time>
      </trkpt>
      <trkpt lat="43.611965" lon="-7.313794">
        <ele>17.471</ele>
        <time>2019-06-19T17:10:39Z</time>
      </trkpt>
      <trkpt lat="43.612110" lon="-7.313977">
        <ele>17.741</ele>
        <time>2019-06-19T17:10:40Z</time>
      </trkpt>
      <trkpt lat="43.612271" lon="-7.314178">
        <ele>18.215</ele>
        <time>2019-06-19T17:10:41Z</time>
      </trkpt>
      <trkpt lat="43.612423" lon="-7.314346">
        <ele>18.708</ele>
        <time>2019-06-19T17:10:42Z</time>
      </trkpt>
      <trkpt lat="43.612567" lon="-7.314538">
        <ele>19.070</ele>
        <time>2019-06-19T17:10:43Z</time>
      </trkpt>
      <trkpt lat="43.612710" lon="-7.314739">
        <ele>19.134</ele>
        <time>2019-06-19T17:10:44Z</time>
      </trkpt>
      <trkpt lat="43.612860" lon="-7.314935">
        <ele>20.185</ele>
        <time>2019-06-19T17:10:45Z</time>
      </trkpt>
      <trkpt lat="43.613002" lon="-7.315131">
        <ele>21.428</ele>
        <time>2019-06-19T17:10:46Z</time>
      </trkpt>
      <trkpt lat="43.613154" lon="-7.315337">
        <ele>22.168</ele>
        <time>2019-06-19T17:10:47Z</time>
      </trkpt>
      <trkpt lat="43.613300" lon="-7.315541">
        <ele>22.884</ele>
        <time>2019-06-19T17:10:48Z</time>
      </trkpt>
      <trkpt lat="43.613446" lon="-7.315736">
        <ele>23.412</ele>
        <time>2019-06-19T17:10:49Z</time>
      </trkpt>
      <trkpt lat="43.613592" lon="-7.315928">
        <ele>24.392</ele>
        <time>2019-06-19T17:10:50Z</time>
      </trkpt>
      <trkpt lat="43.613737" lon="-7.316130">
        <ele>25.031</ele>
        <time>2019-06-19T17:10:51Z</time>
      </trkpt>
      <trkpt lat="43.613884" lon="-7.316329">
        <ele>25.061</ele>
        <time>2019-06-19T17:10:52Z</time>
      </trkpt>
      <trkpt lat="43.614037" lon="-7.316544">
        <ele>25.507</ele>
        <time>2019-06-19T17:10:53Z</time>
      </trkpt>
      <trkpt lat="43.614196" lon="-7.316737">
        <ele>25.908</ele>
        <time>2019-06-19T17:10:54Z</time>
      </trkpt>
      <trkpt lat="43.614351" lon="-7.316937">
        <ele>25.796</ele>
        <time>2019-06-19T17:10:55Z</time>
      </trkpt>
      <trkpt lat="43.614516" lon="-7.317152">
        <ele>24.990</ele>
        <time>2019-06-19T17:10:56Z</time>
      </trkpt>
      <trkpt lat="43.614666" lon="-7.317364">
        <ele>24.171</ele>
        <time>2019-06-19T17:10:57Z</time>
      </trkpt>
      <trkpt lat="43.614821" lon="-7.317579">
        <ele>24.554</ele>
        <time>2019-06-19T17:10:58Z</time>
      </trkpt>
      <trkpt lat="43.614983" lon="-7.317799">
        <ele>25.024</ele>
        <time>2019-06-19T17:10:59Z</time>
      </trkpt>
      <trkpt lat="43.615149" lon="-7.318019">
        <ele>24.590</ele>
        <time>2019-06-19T17:11:00Z</time>
      </trkpt>
      <trkpt lat="43.615298" lon="-7.318237">
        <ele>23.938</ele>
        <time>2019-06-19T17:11:01Z</time>
      </trkpt>
      <trkpt lat="43.615454" lon="-7.318458">
        <ele>23.058</ele>
        <time>2019-06-19T17:11:02Z</time>
      </trkpt>
      <trkpt lat="43.615611" lon="-7.318684">
        <ele>22.992</ele>
        <time>2019-06-19T17:11:03Z</time>
      </trkpt>
      <trkpt lat="43.615770" lon="-7.318902">
        <ele>23.073</ele>
        <time>2019-06-19T17:11:04Z</time>
      </trkpt>
      <trkpt lat="43.615931" lon="-7.319124">
        <ele>22.620</ele>
        <time>2019-06-19T17:11:05Z</time>
      </trkpt>
      <trkpt lat="43.616094" lon="-7.319341">
        <ele>22.108</ele>
        <time>2019-06-19T17:11:06Z</time>
      </trkpt>
      <trkpt lat="43.616265" lon="-7.319563">
        <ele>21.152</ele>
        <time>2019-06-19T17:11:07Z</time>
      </trkpt>
      <trkpt lat="43.616424" lon="-7.319788">
        <ele>21.196</ele>
        <time>2019-06-19T17:11:08Z</time>
      </trkpt>
      <trkpt lat="43.616592" lon="-7.320011">
        <ele>21.327</ele>
        <time>2019-06-19T17:11:09Z</time>
      </trkpt>
      <trkpt lat="43.616760" lon="-7.320245">
        <ele>21.210</ele>
        <time>2019-06-19T17:11:10Z</time>
      </trkpt>
      <trkpt lat="43.616928" lon="-7.320460">
        <ele>21.490</ele>
        <time>2019-06-19T17:11:11Z</time>
      </trkpt>
      <trkpt lat="43.617096" lon="-7.320692">
        <ele>21.176</ele>
        <time>2019-06-19T17:11:12Z</time>
      </trkpt>
      <trkpt lat="43.617260" lon="-7.320921">
        <ele>19.844</ele>
        <time>2019-06-19T17:11:13Z</time>
      </trkpt>
      <trkpt lat="43.617424" lon="-7.321140">
        <ele>18.674</ele>
        <time>2019-06-19T17:11:14Z</time>
      </trkpt>
      <trkpt lat="43.617588" lon="-7.321372">
        <ele>18.639</ele>
        <time>2019-06-19T17:11:15Z</time>
      </trkpt>
      <trkpt lat="43.617755" lon="-7.321604">
        <ele>19.601</ele>
        <time>2019-06-19T17:11:16Z</time>
      </trkpt>
      <trkpt lat="43.617923" lon="-7.321829">
        <ele>20.621</ele>
        <time>2019-06-19T17:11:17Z</time>
      </trkpt>
      <trkpt lat="43.618082" lon="-7.322060">
        <ele>20.908</ele>
        <time>2019-06-19T17:11:18Z</time>
      </trkpt>
      <trkpt lat="43.618249" lon="-7.322260">
        <ele>21.046</ele>
        <time>2019-06-19T17:11:19Z</time>
      </trkpt>
      <trkpt lat="43.618420" lon="-7.322484">
        <ele>21.070</ele>
        <time>2019-06-19T17:11:20Z</time>
      </trkpt>
      <trkpt lat="43.618580" lon="-7.322709">
        <ele>21.051</ele>
        <time>2019-06-19T17:11:21Z</time>
      </trkpt>
      <trkpt lat="43.618738" lon="-7.322926">
        <ele>21.374</ele>
        <time>2019-06-19T17:11:22Z</time>
      </trkpt>
      <trkpt lat="43.618904" lon="-7.323144">
        <ele>21.484</ele>
        <time>2019-06-19T17:11:23Z</time>
      </trkpt>
      <trkpt lat="43.619071" lon="-7.323365">
        <ele>22.160</ele>
        <time>2019-06-19T17:11:24Z</time>
      </trkpt>
      <trkpt lat="43.619231" lon="-7.323579">
        <ele>23.148</ele>
        <time>2019-06-19T17:11:25Z</time>
      </trkpt>
      <trkpt lat="43.619396" lon="-7.323793">
        <ele>23.968</ele>
        <time>2019-06-19T17:11:26Z</time>
      </trkpt>
      <trkpt lat="43.619573" lon="-7.324025">
        <ele>24.299</ele>
        <time>2019-06-19T17:11:27Z</time>
      </trkpt>
      <trkpt lat="43.619743" lon="-7.324240">
        <ele>24.107</ele>
        <time>2019-06-19T17:11:28Z</time>
      </trkpt>
      <trkpt lat="43.619916" lon="-7.324457">
        <ele>25.427</ele>
        <time>2019-06-19T17:11:29Z</time>
      </trkpt>
      <trkpt lat="43.620081" lon="-7.324681">
        <ele>26.008</ele>
        <time>2019-06-19T17:11:30Z</time>
      </trkpt>
      <trkpt lat="43.620244" lon="-7.324905">
        <ele>26.132</ele>
        <time>2019-06-19T17:11:31Z</time>
      </trkpt>
      <trkpt lat="43.620408" lon="-7.325110">
        <ele>26.066</ele>
        <time>2019-06-19T17:11:32Z</time>
      </trkpt>
      <trkpt lat="43.620572" lon="-7.325331">
        <ele>26.067</ele>
        <time>2019-06-19T17:11:33Z</time>
      </trkpt>
      <trkpt lat="43.620743" lon="-7.325543">
        <ele>26.620</ele>
        <time>2019-06-19T17:11:34Z</time>
      </trkpt>
      <trkpt lat="43.620901" lon="-7.325739">
        <ele>27.690</ele>
        <time>2019-06-19T17:11:35Z</time>
      </trkpt>
      <trkpt lat="43.621060" lon="-7.325944">
        <ele>29.596</ele>
        <time>2019-06-19T17:11:36Z</time>
      </trkpt>
      <trkpt lat="43.621204" lon="-7.326136">
        <ele>30.064</ele>
        <time>2019-06-19T17:11:37Z</time>
      </trkpt>
      <trkpt lat="43.621349" lon="-7.326343">
        <ele>30.074</ele>
        <time>2019-06-19T17:11:38Z</time>
      </trkpt>
      <trkpt lat="43.621490" lon="-7.326544">
        <ele>29.197</ele>
        <time>2019-06-19T17:11:39Z</time>
      </trkpt>
      <trkpt lat="43.621640" lon="-7.326744">
        <ele>27.823</ele>
        <time>2019-06-19T17:11:40Z</time>
      </trkpt>
      <trkpt lat="43.621784" lon="-7.326924">
        <ele>27.125</ele>
        <time>2019-06-19T17:11:41Z</time>
      </trkpt>
      <trkpt lat="43.621916" lon="-7.327125">
        <ele>25.808</ele>
        <time>2019-06-19T17:11:42Z</time>
      </trkpt>
      <trkpt lat="43.622059" lon="-7.327330">
        <ele>24.592</ele>
        <time>2019-06-19T17:11:43Z</time>
      </trkpt>
      <trkpt lat="43.622204" lon="-7.327544">
        <ele>23.176</ele>
        <time>2019-06-19T17:11:44Z</time>
      </trkpt>
      <trkpt lat="43.622362" lon="-7.327770">
        <ele>23.087</ele>
        <time>2019-06-19T17:11:45Z</time>
      </trkpt>
      <trkpt lat="43.622522" lon="-7.327996">
        <ele>21.410</ele>
        <time>2019-06-19T17:11:46Z</time>
      </trkpt>
      <trkpt lat="43.622677" lon="-7.328198">
        <ele>19.590</ele>
        <time>2019-06-19T17:11:47Z</time>
      </trkpt>
      <trkpt lat="43.622840" lon="-7.328430">
        <ele>17.756</ele>
        <time>2019-06-19T17:11:48Z</time>
      </trkpt>
      <trkpt lat="43.623007" lon="-7.328645">
        <ele>16.454</ele>
        <time>2019-06-19T17:11:49Z</time>
      </trkpt>
      <trkpt lat="43.623180" lon="-7.328863">
        <ele>15.124</ele>
        <time>2019-06-19T17:11:50Z</time>
      </trkpt>
      <trkpt lat="43.623347" lon="-7.329072">
        <ele>13.973</ele>
        <time>2019-06-19T17:11:51Z</time>
      </trkpt>
      <trkpt lat="43.623503" lon="-7.329274">
        <ele>13.285</ele>
        <time>2019-06-19T17:11:52Z</time>
      </trkpt>
      <trkpt lat="43.623661" lon="-7.329484">
        <ele>14.213</ele>
        <time>2019-06-19T17:11:53Z</time>
      </trkpt>
      <trkpt lat="43.623814" lon="-7.329666">
        <ele>15.408</ele>
        <time>2019-06-19T17:11:54Z</time>
      </trkpt>
      <trkpt lat="43.623961" lon="-7.329857">
        <ele>16.460</ele>
        <time>2019-06-19T17:11:55Z</time>
      </trkpt>
      <trkpt lat="43.624106" lon="-7.330055">
        <ele>17.264</ele>
        <time>2019-06-19T17:11:56Z</time>
      </trkpt>
      <trkpt lat="43.624265" lon="-7.330244">
        <ele>17.555</ele>
        <time>2019-06-19T17:11:57Z</time>
      </trkpt>
      <trkpt lat="43.624414" lon="-7.330444">
        <ele>17.828</ele>
        <time>2019-06-19T17:11:58Z</time>
      </trkpt>
      <trkpt lat="43.624543" lon="-7.330640">
        <ele>18.938</ele>
        <time>2019-06-19T17:11:59Z</time>
      </trkpt>
      <trkpt lat="43.624686" lon="-7.330821">
        <ele>19.954</ele>
        <time>2019-06-19T17:12:00Z</time>
      </trkpt>
      <trkpt lat="43.624819" lon="-7.331009">
        <ele>20.842</ele>
        <time>2019-06-19T17:12:01Z</time>
      </trkpt>
      <trkpt lat="43.624956" lon="-7.331165">
        <ele>21.262</ele>
        <time>2019-06-19T17:12:02Z</time>
      </trkpt>
      <trkpt lat="43.625088" lon="-7.331313">
        <ele>21.572</ele>
        <time>2019-06-19T17:12:03Z</time>
      </trkpt>
      <trkpt lat="43.625199" lon="-7.331449">
        <ele>21.513</ele>
        <time>2019-06-19T17:12:04Z</time>
      </trkpt>
      <trkpt lat="43.625322" lon="-7.331604">
        <ele>21.614</ele>
        <time>2019-06-19T17:12:05Z</time>
      </trkpt>
      <trkpt lat="43.625429" lon="-7.331742">
        <ele>21.708</ele>
        <time>2019-06-19T17:12:06Z</time>
      </trkpt>
      <trkpt lat="43.625530" lon="-7.331879">
        <ele>21.990</ele>
        <time>2019-06-19T17:12:07Z</time>
      </trkpt>
      <trkpt lat="43.625630" lon="-7.332021">
        <ele>21.964</ele>
        <time>2019-06-19T17:12:08Z</time>
      </trkpt>
      <trkpt lat="43.625737" lon="-7.332164">
        <ele>22.515</ele>
        <time>2019-06-19T17:12:09Z</time>
      </trkpt>
      <trkpt lat="43.625841" lon="-7.332296">
        <ele>23.218</ele>
        <time>2019-06-19T17:12:10Z</time>
      </trkpt>
      <trkpt lat="43.625954" lon="-7.332451">
        <ele>23.328</ele>
        <time>2019-06-19T17:12:11Z</time>
      </trkpt>
      <trkpt lat="43.626080" lon="-7.332602">
        <ele>23.174</ele>
        <time>2019-06-19T17:12:12Z</time>
      </trkpt>
      <trkpt lat="43.626205" lon="-7.332770">
        <ele>22.772</ele>
        <time>2019-06-19T17:12:13Z</time>
      </trkpt>
      <trkpt lat="43.626326" lon="-7.332929">
        <ele>22.572</ele>
        <time>2019-06-19T17:12:14Z</time>
      </trkpt>
      <trkpt lat="43.626445" lon="-7.333094">
        <ele>23.386</ele>
        <time>2019-06-19T17:12:15Z</time>
      </trkpt>
      <trkpt lat="43.626566" lon="-7.333208">
        <ele>24.260</ele>
        <time>2019-06-19T17:12:16Z</time>
      </trkpt>
      <trkpt lat="43.626685" lon="-7.333382">
        <ele>25.126</ele>
        <time>2019-06-19T17:12:17Z</time>
      </trkpt>
      <trkpt lat="43.626808" lon="-7.333548">
        <ele>25.308</ele>
        <time>2019-06-19T17:12:18Z</time>
      </trkpt>
      <trkpt lat="43.626936" lon="-7.333718">
        <ele>25.831</ele>
        <time>2019-06-19T17:12:19Z</time>
      </trkpt>
      <trkpt lat="43.627054" lon="-7.333883">
        <ele>26.235</ele>
        <time>2019-06-19T17:12:20Z</time>
      </trkpt>
      <trkpt lat="43.627189" lon="-7.334051">
        <ele>26.946</ele>
        <time>2019-06-19T17:12:21Z</time>
      </trkpt>
      <trkpt lat="43.627301" lon="-7.334197">
        <ele>27.529</ele>
        <time>2019-06-19T17:12:22Z</time>
      </trkpt>
      <trkpt lat="43.627410" lon="-7.334341">
        <ele>27.189</ele>
        <time>2019-06-19T17:12:23Z</time>
      </trkpt>
      <trkpt lat="43.627513" lon="-7.334486">
        <ele>27.135</ele>
        <time>2019-06-19T17:12:24Z</time>
      </trkpt>
      <trkpt lat="43.627613" lon="-7.334612">
        <ele>27.423</ele>
        <time>2019-06-19T17:12:25Z</time>
      </trkpt>
      <trkpt lat="43.627701" lon="-7.334729">
        <ele>28.083</ele>
        <time>2019-06-19T17:12:26Z</time>
      </trkpt>
      <trkpt lat="43.627779" lon="-7.334847">
        <ele>28.932</ele>
        <time>2019-06-19T17:12:27Z</time>
      </trkpt>
      <trkpt lat="43.627854" lon="-7.334953">
        <ele>29.992</ele>
        <time>2019-06-19T17:12:28Z</time>
      </trkpt>
      <trkpt lat="43.627926" lon="-7.335052">
        <ele>30.611</ele>
        <time>2019-06-19T17:12:29Z</time>
      </trkpt>
      <trkpt lat="43.628014" lon="-7.335156">
        <ele>30.908</ele>
        <time>2019-06-19T17:12:30Z</time>
      </trkpt>
      <trkpt lat="43.628094" lon="-7.335261">
        <ele>31.126</ele>
        <time>2019-06-19T17:12:31Z</time>
      </trkpt>
      <trkpt lat="43.628174" lon="-7.335375">
        <ele>31.860</ele>
        <time>2019-06-19T17:12:32Z</time>
      </trkpt>
      <trkpt lat="43.628269" lon="-7.335496">
        <ele>32.641</ele>
        <time>2019-06-19T17:12:33Z</time>
      </trkpt>
      <trkpt lat="43.628360" lon="-7.335617">
        <ele>33.054</ele>
        <time>2019-06-19T17:12:34Z</time>
      </trkpt>
      <trkpt lat="43.628462" lon="-7.335747">
        <ele>33.024</ele>
        <time>2019-06-19T17:12:35Z</time>
      </trkpt>
      <trkpt lat="43.628558" lon="-7.335879">
        <ele>33.030</ele>
        <time>2019-06-19T17:12:36Z</time>
      </trkpt>
      <trkpt lat="43.628670" lon="-7.336002">
        <ele>33.398</ele>
        <time>2019-06-19T17:12:37Z</time>
      </trkpt>
      <trkpt lat="43.628781" lon="-7.336155">
        <ele>34.218</ele>
        <time>2019-06-19T17:12:38Z</time>
      </trkpt>
      <trkpt lat="43.628895" lon="-7.336311">
        <ele>35.061</ele>
        <time>2019-06-19T17:12:39Z</time>
      </trkpt>
      <trkpt lat="43.629015" lon="-7.336465">
        <ele>35.021</ele>
        <time>2019-06-19T17:12:40Z</time>
      </trkpt>
      <trkpt lat="43.629141" lon="-7.336624">
        <ele>35.013</ele>
        <time>2019-06-19T17:12:41Z</time>
      </trkpt>
      <trkpt lat="43.629268" lon="-7.336792">
        <ele>35.108</ele>
        <time>2019-06-19T17:12:42Z</time>
      </trkpt>
      <trkpt lat="43.629393" lon="-7.336943">
        <ele>35.219</ele>
        <time>2019-06-19T17:12:43Z</time>
      </trkpt>
      <trkpt lat="43.629515" lon="-7.337117">
        <ele>34.933</ele>
        <time>2019-06-19T17:12:44Z</time>
      </trkpt>
      <trkpt lat="43.629635" lon="-7.337291">
        <ele>35.284</ele>
        <time>2019-06-19T17:12:45Z</time>
      </trkpt>
      <trkpt lat="43.629749" lon="-7.337456">
        <ele>35.827</ele>
        <time>2019-06-19T17:12:46Z</time>
      </trkpt>
      <trkpt lat="43.629868" lon="-7.337598">
        <ele>36.497</ele>
        <time>2019-06-19T17:12:47Z</time>
      </trkpt>
      <trkpt lat="43.629966" lon="-7.337742">
        <ele>36.953</ele>
        <time>2019-06-19T17:12:48Z</time>
      </trkpt>
      <trkpt lat="43.630075" lon="-7.337894">
        <ele>37.381</ele>
        <time>2019-06-19T17:12:49Z</time>
      </trkpt>
      <trkpt lat="43.630183" lon="-7.338040">
        <ele>37.371</ele>
        <time>2019-06-19T17:12:50Z</time>
      </trkpt>
      <trkpt lat="43.630301" lon="-7.338192">
        <ele>37.595</ele>
        <time>2019-06-19T17:12:51Z</time>
      </trkpt>
      <trkpt lat="43.630425" lon="-7.338310">
        <ele>37.449</ele>
        <time>2019-06-19T17:12:52Z</time>
      </trkpt>
      <trkpt lat="43.630545" lon="-7.338443">
        <ele>37.423</ele>
        <time>2019-06-19T17:12:53Z</time>
      </trkpt>
      <trkpt lat="43.630685" lon="-7.338553">
        <ele>38.508</ele>
        <time>2019-06-19T17:12:54Z</time>
      </trkpt>
      <trkpt lat="43.630830" lon="-7.338678">
        <ele>38.762</ele>
        <time>2019-06-19T17:12:55Z</time>
      </trkpt>
      <trkpt lat="43.630979" lon="-7.338791">
        <ele>38.496</ele>
        <time>2019-06-19T17:12:56Z</time>
      </trkpt>
      <trkpt lat="43.631145" lon="-7.338886">
        <ele>37.677</ele>
        <time>2019-06-19T17:12:57Z</time>
      </trkpt>
      <trkpt lat="43.631316" lon="-7.338985">
        <ele>35.930</ele>
        <time>2019-06-19T17:12:58Z</time>
      </trkpt>
      <trkpt lat="43.631494" lon="-7.339080">
        <ele>34.410</ele>
        <time>2019-06-19T17:12:59Z</time>
      </trkpt>
      <trkpt lat="43.631677" lon="-7.339168">
        <ele>32.936</ele>
        <time>2019-06-19T17:13:00Z</time>
      </trkpt>
      <trkpt lat="43.631862" lon="-7.339243">
        <ele>30.294</ele>
        <time>2019-06-19T17:13:01Z</time>
      </trkpt>
      <trkpt lat="43.632048" lon="-7.339297">
        <ele>27.334</ele>
        <time>2019-06-19T17:13:02Z</time>
      </trkpt>
      <trkpt lat="43.632233" lon="-7.339352">
        <ele>24.658</ele>
        <time>2019-06-19T17:13:03Z</time>
      </trkpt>
      <trkpt lat="43.632431" lon="-7.339399">
        <ele>24.152</ele>
        <time>2019-06-19T17:13:04Z</time>
      </trkpt>
      <trkpt lat="43.632627" lon="-7.339437">
        <ele>24.917</ele>
        <time>2019-06-19T17:13:05Z</time>
      </trkpt>
      <trkpt lat="43.632818" lon="-7.339473">
        <ele>26.708</ele>
        <time>2019-06-19T17:13:06Z</time>
      </trkpt>
      <trkpt lat="43.633003" lon="-7.339514">
        <ele>29.058</ele>
        <time>2019-06-19T17:13:07Z</time>
      </trkpt>
      <trkpt lat="43.633196" lon="-7.339553">
        <ele>30.572</ele>
        <time>2019-06-19T17:13:08Z</time>
      </trkpt>
      <trkpt lat="43.633379" lon="-7.339598">
        <ele>32.233</ele>
        <time>2019-06-19T17:13:09Z</time>
      </trkpt>
      <trkpt lat="43.633565" lon="-7.339659">
        <ele>35.036</ele>
        <time>2019-06-19T17:13:10Z</time>
      </trkpt>
      <trkpt lat="43.633762" lon="-7.339705">
        <ele>36.476</ele>
        <time>2019-06-19T17:13:11Z</time>
      </trkpt>
      <trkpt lat="43.633960" lon="-7.339755">
        <ele>37.082</ele>
        <time>2019-06-19T17:13:12Z</time>
      </trkpt>
      <trkpt lat="43.634143" lon="-7.339821">
        <ele>36.540</ele>
        <time>2019-06-19T17:13:13Z</time>
      </trkpt>
      <trkpt lat="43.634351" lon="-7.339880">
        <ele>36.220</ele>
        <time>2019-06-19T17:13:14Z</time>
      </trkpt>
      <trkpt lat="43.634552" lon="-7.339955">
        <ele>35.964</ele>
        <time>2019-06-19T17:13:15Z</time>
      </trkpt>
      <trkpt lat="43.634744" lon="-7.340036">
        <ele>36.206</ele>
        <time>2019-06-19T17:13:16Z</time>
      </trkpt>
      <trkpt lat="43.634933" lon="-7.340125">
        <ele>37.216</ele>
        <time>2019-06-19T17:13:17Z</time>
      </trkpt>
      <trkpt lat="43.635105" lon="-7.340228">
        <ele>37.908</ele>
        <time>2019-06-19T17:13:18Z</time>
      </trkpt>
      <trkpt lat="43.635287" lon="-7.340351">
        <ele>38.349</ele>
        <time>2019-06-19T17:13:19Z</time>
      </trkpt>
      <trkpt lat="43.635475" lon="-7.340478">
        <ele>38.763</ele>
        <time>2019-06-19T17:13:20Z</time>
      </trkpt>
      <trkpt lat="43.635672" lon="-7.340619">
        <ele>39.474</ele>
        <time>2019-06-19T17:13:21Z</time>
      </trkpt>
      <trkpt lat="43.635867" lon="-7.340764">
        <ele>40.277</ele>
        <time>2019-06-19T17:13:22Z</time>
      </trkpt>
      <trkpt lat="43.636050" lon="-7.340897">
        <ele>41.437</ele>
        <time>2019-06-19T17:13:23Z</time>
      </trkpt>
      <trkpt lat="43.636247" lon="-7.341027">
        <ele>41.853</ele>
        <time>2019-06-19T17:13:24Z</time>
      </trkpt>
      <trkpt lat="43.636450" lon="-7.341170">
        <ele>41.461</ele>
        <time>2019-06-19T17:13:25Z</time>
      </trkpt>
      <trkpt lat="43.636643" lon="-7.341315">
        <ele>40.141</ele>
        <time>2019-06-19T17:13:26Z</time>
      </trkpt>
      <trkpt lat="43.636830" lon="-7.341462">
        <ele>40.394</ele>
        <time>2019-06-19T17:13:27Z</time>
      </trkpt>
      <trkpt lat="43.637021" lon="-7.341610">
        <ele>41.457</ele>
        <time>2019-06-19T17:13:28Z</time>
      </trkpt>
      <trkpt lat="43.637201" lon="-7.341747">
        <ele>41.622</ele>
        <time>2019-06-19T17:13:29Z</time>
      </trkpt>
      <trkpt lat="43.637367" lon="-7.341893">
        <ele>41.408</ele>
        <time>2019-06-19T17:13:30Z</time>
      </trkpt>
      <trkpt lat="43.637526" lon="-7.342033">
        <ele>39.932</ele>
        <time>2019-06-19T17:13:31Z</time>
      </trkpt>
      <trkpt lat="43.637676" lon="-7.342183">
        <ele>38.966</ele>
        <time>2019-06-19T17:13:32Z</time>
      </trkpt>
      <trkpt lat="43.637821" lon="-7.342343">
        <ele>37.867</ele>
        <time>2019-06-19T17:13:33Z</time>
      </trkpt>
      <trkpt lat="43.637973" lon="-7.342519">
        <ele>37.330</ele>
        <time>2019-06-19T17:13:34Z</time>
      </trkpt>
      <trkpt lat="43.638102" lon="-7.342726">
        <ele>35.420</ele>
        <time>2019-06-19T17:13:35Z</time>
      </trkpt>
      <trkpt lat="43.638228" lon="-7.342938">
        <ele>34.586</ele>
        <time>2019-06-19T17:13:36Z</time>
      </trkpt>
      <trkpt lat="43.638354" lon="-7.343164">
        <ele>34.424</ele>
        <time>2019-06-19T17:13:37Z</time>
      </trkpt>
      <trkpt lat="43.638472" lon="-7.343402">
        <ele>32.924</ele>
        <time>2019-06-19T17:13:38Z</time>
      </trkpt>
      <trkpt lat="43.638590" lon="-7.343637">
        <ele>30.321</ele>
        <time>2019-06-19T17:13:39Z</time>
      </trkpt>
      <trkpt lat="43.638712" lon="-7.343872">
        <ele>31.441</ele>
        <time>2019-06-19T17:13:40Z</time>
      </trkpt>
      <trkpt lat="43.638838" lon="-7.344099">
        <ele>30.805</ele>
        <time>2019-06-19T17:13:41Z</time>
      </trkpt>
      <trkpt lat="43.638975" lon="-7.344330">
        <ele>29.608</ele>
        <time>2019-06-19T17:13:42Z</time>
      </trkpt>
      <trkpt lat="43.639113" lon="-7.344550">
        <ele>30.645</ele>
        <time>2019-06-19T17:13:43Z</time>
      </trkpt>
      <trkpt lat="43.639266" lon="-7.344762">
        <ele>31.089</ele>
        <time>2019-06-19T17:13:44Z</time>
      </trkpt>
      <trkpt lat="43.639421" lon="-7.344959">
        <ele>31.620</ele>
        <time>2019-06-19T17:13:45Z</time>
      </trkpt>
      <trkpt lat="43.639579" lon="-7.345154">
        <ele>31.653</ele>
        <time>2019-06-19T17:13:46Z</time>
      </trkpt>
      <trkpt lat="43.639742" lon="-7.345348">
        <ele>32.133</ele>
        <time>2019-06-19T17:13:47Z</time>
      </trkpt>
      <trkpt lat="43.639907" lon="-7.345542">
        <ele>32.959</ele>
        <time>2019-06-19T17:13:48Z</time>
      </trkpt>
      <trkpt lat="43.640067" lon="-7.345739">
        <ele>35.177</ele>
        <time>2019-06-19T17:13:49Z</time>
      </trkpt>
      <trkpt lat="43.640227" lon="-7.345941">
        <ele>36.197</ele>
        <time>2019-06-19T17:13:50Z</time>
      </trkpt>
      <trkpt lat="43.640385" lon="-7.346146">
        <ele>37.468</ele>
        <time>2019-06-19T17:13:51Z</time>
      </trkpt>
      <trkpt lat="43.640543" lon="-7.346362">
        <ele>37.942</ele>
        <time>2019-06-19T17:13:52Z</time>
      </trkpt>
      <trkpt lat="43.640698" lon="-7.346584">
        <ele>39.926</ele>
        <time>2019-06-19T17:13:53Z</time>
      </trkpt>
      <trkpt lat="43.640851" lon="-7.346803">
        <ele>44.008</ele>
        <time>2019-06-19T17:13:54Z</time>
      </trkpt>
      <trkpt lat="43.641002" lon="-7.347025">
        <ele>48.879</ele>
        <time>2019-06-19T17:13:55Z</time>
      </trkpt>
      <trkpt lat="43.641146" lon="-7.347247">
        <ele>52.073</ele>
        <time>2019-06-19T17:13:56Z</time>
      </trkpt>
      <trkpt lat="43.641285" lon="-7.347493">
        <ele>54.224</ele>
        <time>2019-06-19T17:13:57Z</time>
      </trkpt>
      <trkpt lat="43.641413" lon="-7.347722">
        <ele>51.517</ele>
        <time>2019-06-19T17:13:58Z</time>
      </trkpt>
      <trkpt lat="43.641531" lon="-7.347964">
        <ele>54.527</ele>
        <time>2019-06-19T17:13:59Z</time>
      </trkpt>
      <trkpt lat="43.641657" lon="-7.348201">
        <ele>55.493</ele>
        <time>2019-06-19T17:14:00Z</time>
      </trkpt>
      <trkpt lat="43.641773" lon="-7.348453">
        <ele>57.281</ele>
        <time>2019-06-19T17:14:01Z</time>
      </trkpt>
      <trkpt lat="43.641883" lon="-7.348690">
        <ele>57.731</ele>
        <time>2019-06-19T17:14:02Z</time>
      </trkpt>
      <trkpt lat="43.642010" lon="-7.348931">
        <ele>59.192</ele>
        <time>2019-06-19T17:14:03Z</time>
      </trkpt>
      <trkpt lat="43.642131" lon="-7.349178">
        <ele>61.773</ele>
        <time>2019-06-19T17:14:04Z</time>
      </trkpt>
      <trkpt lat="43.642250" lon="-7.349422">
        <ele>62.020</ele>
        <time>2019-06-19T17:14:05Z</time>
      </trkpt>
      <trkpt lat="43.642371" lon="-7.349651">
        <ele>61.608</ele>
        <time>2019-06-19T17:14:06Z</time>
      </trkpt>
      <trkpt lat="43.642486" lon="-7.349888">
        <ele>61.192</ele>
        <time>2019-06-19T17:14:07Z</time>
      </trkpt>
      <trkpt lat="43.642602" lon="-7.350120">
        <ele>62.166</ele>
        <time>2019-06-19T17:14:08Z</time>
      </trkpt>
      <trkpt lat="43.642708" lon="-7.350398">
        <ele>65.957</ele>
        <time>2019-06-19T17:14:09Z</time>
      </trkpt>
      <trkpt lat="43.642816" lon="-7.350606">
        <ele>68.690</ele>
        <time>2019-06-19T17:14:10Z</time>
      </trkpt>
      <trkpt lat="43.642940" lon="-7.350853">
        <ele>71.760</ele>
        <time>2019-06-19T17:14:11Z</time>
      </trkpt>
      <trkpt lat="43.643071" lon="-7.351096">
        <ele>75.546</ele>
        <time>2019-06-19T17:14:12Z</time>
      </trkpt>
      <trkpt lat="43.643201" lon="-7.351329">
        <ele>80.144</ele>
        <time>2019-06-19T17:14:13Z</time>
      </trkpt>
      <trkpt lat="43.643347" lon="-7.351542">
        <ele>79.764</ele>
        <time>2019-06-19T17:14:14Z</time>
      </trkpt>
      <trkpt lat="43.643502" lon="-7.351762">
        <ele>81.185</ele>
        <time>2019-06-19T17:14:15Z</time>
      </trkpt>
      <trkpt lat="43.643663" lon="-7.351969">
        <ele>80.489</ele>
        <time>2019-06-19T17:14:16Z</time>
      </trkpt>
      <trkpt lat="43.643833" lon="-7.352172">
        <ele>78.317</ele>
        <time>2019-06-19T17:14:17Z</time>
      </trkpt>
      <trkpt lat="43.644005" lon="-7.352367">
        <ele>77.408</ele>
        <time>2019-06-19T17:14:18Z</time>
      </trkpt>
      <trkpt lat="43.644181" lon="-7.352562">
        <ele>77.121</ele>
        <time>2019-06-19T17:14:19Z</time>
      </trkpt>
      <trkpt lat="43.644350" lon="-7.352751">
        <ele>77.765</ele>
        <time>2019-06-19T17:14:20Z</time>
      </trkpt>
      <trkpt lat="43.644527" lon="-7.352944">
        <ele>79.866</ele>
        <time>2019-06-19T17:14:21Z</time>
      </trkpt>
      <trkpt lat="43.644699" lon="-7.353141">
        <ele>81.049</ele>
        <time>2019-06-19T17:14:22Z</time>
      </trkpt>
      <trkpt lat="43.644873" lon="-7.353331">
        <ele>81.359</ele>
        <time>2019-06-19T17:14:23Z</time>
      </trkpt>
      <trkpt lat="43.645047" lon="-7.353530">
        <ele>84.195</ele>
        <time>2019-06-19T17:14:24Z</time>
      </trkpt>
      <trkpt lat="43.645221" lon="-7.353725">
        <ele>87.513</ele>
        <time>2019-06-19T17:14:25Z</time>
      </trkpt>
      <trkpt lat="43.645396" lon="-7.353920">
        <ele>89.973</ele>
        <time>2019-06-19T17:14:26Z</time>
      </trkpt>
      <trkpt lat="43.645566" lon="-7.354122">
        <ele>89.092</ele>
        <time>2019-06-19T17:14:27Z</time>
      </trkpt>
      <trkpt lat="43.645735" lon="-7.354315">
        <ele>89.673</ele>
        <time>2019-06-19T17:14:28Z</time>
      </trkpt>
      <trkpt lat="43.645918" lon="-7.354510">
        <ele>89.220</ele>
        <time>2019-06-19T17:14:29Z</time>
      </trkpt>
      <trkpt lat="43.646096" lon="-7.354710">
        <ele>89.108</ele>
        <time>2019-06-19T17:14:30Z</time>
      </trkpt>
      <trkpt lat="43.646272" lon="-7.354913">
        <ele>89.992</ele>
        <time>2019-06-19T17:14:31Z</time>
      </trkpt>
      <trkpt lat="43.646444" lon="-7.355115">
        <ele>88.916</ele>
        <time>2019-06-19T17:14:32Z</time>
      </trkpt>
      <trkpt lat="43.646609" lon="-7.355315">
        <ele>87.227</ele>
        <time>2019-06-19T17:14:33Z</time>
      </trkpt>
      <trkpt lat="43.646794" lon="-7.355512">
        <ele>85.980</ele>
        <time>2019-06-19T17:14:34Z</time>
      </trkpt>
      <trkpt lat="43.646980" lon="-7.355713">
        <ele>85.750</ele>
        <time>2019-06-19T17:14:35Z</time>
      </trkpt>
      <trkpt lat="43.647159" lon="-7.355918">
        <ele>84.386</ele>
        <time>2019-06-19T17:14:36Z</time>
      </trkpt>
      <trkpt lat="43.647340" lon="-7.356125">
        <ele>83.934</ele>
        <time>2019-06-19T17:14:37Z</time>
      </trkpt>
      <trkpt lat="43.647521" lon="-7.356332">
        <ele>84.354</ele>
        <time>2019-06-19T17:14:38Z</time>
      </trkpt>
      <trkpt lat="43.647711" lon="-7.356540">
        <ele>84.639</ele>
        <time>2019-06-19T17:14:39Z</time>
      </trkpt>
      <trkpt lat="43.647892" lon="-7.356748">
        <ele>82.901</ele>
        <time>2019-06-19T17:14:40Z</time>
      </trkpt>
      <trkpt lat="43.648076" lon="-7.356960">
        <ele>81.421</ele>
        <time>2019-06-19T17:14:41Z</time>
      </trkpt>
      <trkpt lat="43.648258" lon="-7.357167">
        <ele>83.308</ele>
        <time>2019-06-19T17:14:42Z</time>
      </trkpt>
      <trkpt lat="43.648438" lon="-7.357376">
        <ele>83.726</ele>
        <time>2019-06-19T17:14:43Z</time>
      </trkpt>
      <trkpt lat="43.648622" lon="-7.357587">
        <ele>85.840</ele>
        <time>2019-06-19T17:14:44Z</time>
      </trkpt>
      <trkpt lat="43.648806" lon="-7.357794">
        <ele>88.731</ele>
        <time>2019-06-19T17:14:45Z</time>
      </trkpt>
      <trkpt lat="43.648987" lon="-7.358000">
        <ele>92.764</ele>
        <time>2019-06-19T17:14:46Z</time>
      </trkpt>
      <trkpt lat="43.649165" lon="-7.358202">
        <ele>94.544</ele>
        <time>2019-06-19T17:14:47Z</time>
      </trkpt>
      <trkpt lat="43.649344" lon="-7.358399">
        <ele>96.020</ele>
        <time>2019-06-19T17:14:48Z</time>
      </trkpt>
      <trkpt lat="43.649527" lon="-7.358603">
        <ele>96.938</ele>
        <time>2019-06-19T17:14:49Z</time>
      </trkpt>
      <trkpt lat="43.649717" lon="-7.358803">
        <ele>99.098</ele>
        <time>2019-06-19T17:14:50Z</time>
      </trkpt>
      <trkpt lat="43.649890" lon="-7.359007">
        <ele>100.687</ele>
        <time>2019-06-19T17:14:51Z</time>
      </trkpt>
      <trkpt lat="43.650067" lon="-7.359214">
        <ele>100.642</ele>
        <time>2019-06-19T17:14:52Z</time>
      </trkpt>
      <trkpt lat="43.650244" lon="-7.359414">
        <ele>96.726</ele>
        <time>2019-06-19T17:14:53Z</time>
      </trkpt>
      <trkpt lat="43.650425" lon="-7.359616">
        <ele>94.908</ele>
        <time>2019-06-19T17:14:54Z</time>
      </trkpt>
      <trkpt lat="43.650598" lon="-7.359805">
        <ele>93.451</ele>
        <time>2019-06-19T17:14:55Z</time>
      </trkpt>
      <trkpt lat="43.650779" lon="-7.360007">
        <ele>93.665</ele>
        <time>2019-06-19T17:14:56Z</time>
      </trkpt>
      <trkpt lat="43.650948" lon="-7.360210">
        <ele>96.426</ele>
        <time>2019-06-19T17:14:57Z</time>
      </trkpt>
      <trkpt lat="43.651128" lon="-7.360405">
        <ele>99.549</ele>
        <time>2019-06-19T17:14:58Z</time>
      </trkpt>
      <trkpt lat="43.651319" lon="-7.360616">
        <ele>101.719</ele>
        <time>2019-06-19T17:14:59Z</time>
      </trkpt>
      <trkpt lat="43.651496" lon="-7.360816">
        <ele>101.925</ele>
        <time>2019-06-19T17:15:00Z</time>
      </trkpt>
      <trkpt lat="43.651650" lon="-7.361009">
        <ele>101.713</ele>
        <time>2019-06-19T17:15:01Z</time>
      </trkpt>
      <trkpt lat="43.651816" lon="-7.361198">
        <ele>102.653</ele>
        <time>2019-06-19T17:15:02Z</time>
      </trkpt>
      <trkpt lat="43.651976" lon="-7.361393">
        <ele>104.351</ele>
        <time>2019-06-19T17:15:03Z</time>
      </trkpt>
      <trkpt lat="43.652144" lon="-7.361608">
        <ele>106.801</ele>
        <time>2019-06-19T17:15:04Z</time>
      </trkpt>
      <trkpt lat="43.652297" lon="-7.361804">
        <ele>107.611</ele>
        <time>2019-06-19T17:15:05Z</time>
      </trkpt>
      <trkpt lat="43.652438" lon="-7.361995">
        <ele>106.308</ele>
        <time>2019-06-19T17:15:06Z</time>
      </trkpt>
      <trkpt lat="43.652574" lon="-7.362177">
        <ele>105.548</ele>
        <time>2019-06-19T17:15:07Z</time>
      </trkpt>
      <trkpt lat="43.652696" lon="-7.362356">
        <ele>105.842</ele>
        <time>2019-06-19T17:15:08Z</time>
      </trkpt>
      <trkpt lat="43.652824" lon="-7.362542">
        <ele>104.873</ele>
        <time>2019-06-19T17:15:09Z</time>
      </trkpt>
      <trkpt lat="43.652948" lon="-7.362748">
        <ele>104.886</ele>
        <time>2019-06-19T17:15:10Z</time>
      </trkpt>
      <trkpt lat="43.653066" lon="-7.362950">
        <ele>102.496</ele>
        <time>2019-06-19T17:15:11Z</time>
      </trkpt>
      <trkpt lat="43.653195" lon="-7.363135">
        <ele>100.632</ele>
        <time>2019-06-19T17:15:12Z</time>
      </trkpt>
      <trkpt lat="43.653325" lon="-7.363334">
        <ele>100.140</ele>
        <time>2019-06-19T17:15:13Z</time>
      </trkpt>
      <trkpt lat="43.653456" lon="-7.363545">
        <ele>101.550</ele>
        <time>2019-06-19T17:15:14Z</time>
      </trkpt>
      <trkpt lat="43.653592" lon="-7.363760">
        <ele>100.955</ele>
        <time>2019-06-19T17:15:15Z</time>
      </trkpt>
      <trkpt lat="43.653728" lon="-7.363976">
        <ele>98.207</ele>
        <time>2019-06-19T17:15:16Z</time>
      </trkpt>
      <trkpt lat="43.653860" lon="-7.364197">
        <ele>94.017</ele>
        <time>2019-06-19T17:15:17Z</time>
      </trkpt>
      <trkpt lat="43.653989" lon="-7.364400">
        <ele>92.808</ele>
        <time>2019-06-19T17:15:18Z</time>
      </trkpt>
      <trkpt lat="43.654135" lon="-7.364610">
        <ele>93.248</ele>
        <time>2019-06-19T17:15:19Z</time>
      </trkpt>
      <trkpt lat="43.654260" lon="-7.364790">
        <ele>92.372</ele>
        <time>2019-06-19T17:15:20Z</time>
      </trkpt>
      <trkpt lat="43.654391" lon="-7.364992">
        <ele>91.993</ele>
        <time>2019-06-19T17:15:21Z</time>
      </trkpt>
      <trkpt lat="43.654506" lon="-7.365153">
        <ele>91.216</ele>
        <time>2019-06-19T17:15:22Z</time>
      </trkpt>
      <trkpt lat="43.654627" lon="-7.365350">
        <ele>90.856</ele>
        <time>2019-06-19T17:15:23Z</time>
      </trkpt>
      <trkpt lat="43.654745" lon="-7.365537">
        <ele>92.222</ele>
        <time>2019-06-19T17:15:24Z</time>
      </trkpt>
      <trkpt lat="43.654879" lon="-7.365747">
        <ele>92.490</ele>
        <time>2019-06-19T17:15:25Z</time>
      </trkpt>
      <trkpt lat="43.655003" lon="-7.365937">
        <ele>93.290</ele>
        <time>2019-06-19T17:15:26Z</time>
      </trkpt>
      <trkpt lat="43.655123" lon="-7.366118">
        <ele>95.338</ele>
        <time>2019-06-19T17:15:27Z</time>
      </trkpt>
      <trkpt lat="43.655239" lon="-7.366280">
        <ele>95.470</ele>
        <time>2019-06-19T17:15:28Z</time>
      </trkpt>
      <trkpt lat="43.655348" lon="-7.366435">
        <ele>96.517</ele>
        <time>2019-06-19T17:15:29Z</time>
      </trkpt>
      <trkpt lat="43.655464" lon="-7.366578">
        <ele>98.008</ele>
        <time>2019-06-19T17:15:30Z</time>
      </trkpt>
      <trkpt lat="43.655587" lon="-7.366726">
        <ele>100.496</ele>
        <time>2019-06-19T17:15:31Z</time>
      </trkpt>
      <trkpt lat="43.655701" lon="-7.366837">
        <ele>102.750</ele>
        <time>2019-06-19T17:15:32Z</time>
      </trkpt>
      <trkpt lat="43.655830" lon="-7.366946">
        <ele>104.141</ele>
        <time>2019-06-19T17:15:33Z</time>
      </trkpt>
      <trkpt lat="43.655963" lon="-7.367039">
        <ele>105.624</ele>
        <time>2019-06-19T17:15:34Z</time>
      </trkpt>
      <trkpt lat="43.656125" lon="-7.367114">
        <ele>105.454</ele>
        <time>2019-06-19T17:15:35Z</time>
      </trkpt>
      <trkpt lat="43.656282" lon="-7.367166">
        <ele>105.910</ele>
        <time>2019-06-19T17:15:36Z</time>
      </trkpt>
      <trkpt lat="43.656448" lon="-7.367211">
        <ele>107.838</ele>
        <time>2019-06-19T17:15:37Z</time>
      </trkpt>
      <trkpt lat="43.656602" lon="-7.367252">
        <ele>112.548</ele>
        <time>2019-06-19T17:15:38Z</time>
      </trkpt>
      <trkpt lat="43.656708" lon="-7.367262">
        <ele>115.471</ele>
        <time>2019-06-19T17:15:39Z</time>
      </trkpt>
      <trkpt lat="43.656877" lon="-7.367224">
        <ele>118.241</ele>
        <time>2019-06-19T17:15:40Z</time>
      </trkpt>
      <trkpt lat="43.657037" lon="-7.367166">
        <ele>117.815</ele>
        <time>2019-06-19T17:15:41Z</time>
      </trkpt>
      <trkpt lat="43.657189" lon="-7.367103">
        <ele>115.308</ele>
        <time>2019-06-19T17:15:42Z</time>
      </trkpt>
      <trkpt lat="43.657346" lon="-7.367060">
        <ele>114.070</ele>
        <time>2019-06-19T17:15:43Z</time>
      </trkpt>
      <trkpt lat="43.657491" lon="-7.367020">
        <ele>113.054</ele>
        <time>2019-06-19T17:15:44Z</time>
      </trkpt>
      <trkpt lat="43.657642" lon="-7.366986">
        <ele>109.965</ele>
        <time>2019-06-19T17:15:45Z</time>
      </trkpt>
      <trkpt lat="43.657791" lon="-7.366944">
        <ele>105.758</ele>
        <time>2019-06-19T17:15:46Z</time>
      </trkpt>
      <trkpt lat="43.657941" lon="-7.366906">
        <ele>101.648</ele>
        <time>2019-06-19T17:15:47Z</time>
      </trkpt>
      <trkpt lat="43.658098" lon="-7.366875">
        <ele>98.984</ele>
        <time>2019-06-19T17:15:48Z</time>
      </trkpt>
      <trkpt lat="43.658269" lon="-7.366863">
        <ele>100.892</ele>
        <time>2019-06-19T17:15:49Z</time>
      </trkpt>
      <trkpt lat="43.658436" lon="-7.366868">
        <ele>102.592</ele>
        <time>2019-06-19T17:15:50Z</time>
      </trkpt>
      <trkpt lat="43.658607" lon="-7.366878">
        <ele>103.818</ele>
        <time>2019-06-19T17:15:51Z</time>
      </trkpt>
      <trkpt lat="43.658751" lon="-7.366929">
        <ele>104.098</ele>
        <time>2019-06-19T17:15:52Z</time>
      </trkpt>
      <trkpt lat="43.658903" lon="-7.366990">
        <ele>104.217</ele>
        <time>2019-06-19T17:15:53Z</time>
      </trkpt>
      <trkpt lat="43.659055" lon="-7.367051">
        <ele>104.208</ele>
        <time>2019-06-19T17:15:54Z</time>
      </trkpt>
      <trkpt lat="43.659198" lon="-7.367146">
        <ele>104.534</ele>
        <time>2019-06-19T17:15:55Z</time>
      </trkpt>
      <trkpt lat="43.659331" lon="-7.367251">
        <ele>106.028</ele>
        <time>2019-06-19T17:15:56Z</time>
      </trkpt>
      <trkpt lat="43.659459" lon="-7.367397">
        <ele>107.499</ele>
        <time>2019-06-19T17:15:57Z</time>
      </trkpt>
      <trkpt lat="43.659579" lon="-7.367542">
        <ele>108.792</ele>
        <time>2019-06-19T17:15:58Z</time>
      </trkpt>
      <trkpt lat="43.659700" lon="-7.367698">
        <ele>109.542</ele>
        <time>2019-06-19T17:15:59Z</time>
      </trkpt>
      <trkpt lat="43.659796" lon="-7.367865">
        <ele>110.168</ele>
        <time>2019-06-19T17:16:00Z</time>
      </trkpt>
      <trkpt lat="43.659887" lon="-7.368039">
        <ele>110.796</ele>
        <time>2019-06-19T17:16:01Z</time>
      </trkpt>
      <trkpt lat="43.659970" lon="-7.368218">
        <ele>111.096</ele>
        <time>2019-06-19T17:16:02Z</time>
      </trkpt>
      <trkpt lat="43.660055" lon="-7.368406">
        <ele>110.987</ele>
        <time>2019-06-19T17:16:03Z</time>
      </trkpt>
      <trkpt lat="43.660132" lon="-7.368606">
        <ele>110.542</ele>
        <time>2019-06-19T17:16:04Z</time>
      </trkpt>
      <trkpt lat="43.660210" lon="-7.368803">
        <ele>109.226</ele>
        <time>2019-06-19T17:16:05Z</time>
      </trkpt>
      <trkpt lat="43.660290" lon="-7.369000">
        <ele>107.508</ele>
        <time>2019-06-19T17:16:06Z</time>
      </trkpt>
      <trkpt lat="43.660371" lon="-7.369204">
        <ele>106.121</ele>
        <time>2019-06-19T17:16:07Z</time>
      </trkpt>
      <trkpt lat="43.660457" lon="-7.369421">
        <ele>105.115</ele>
        <time>2019-06-19T17:16:08Z</time>
      </trkpt>
      <trkpt lat="43.660544" lon="-7.369648">
        <ele>104.896</ele>
        <time>2019-06-19T17:16:09Z</time>
      </trkpt>
      <trkpt lat="43.660629" lon="-7.369858">
        <ele>104.449</ele>
        <time>2019-06-19T17:16:10Z</time>
      </trkpt>
      <trkpt lat="43.660736" lon="-7.370079">
        <ele>101.529</ele>
        <time>2019-06-19T17:16:11Z</time>
      </trkpt>
      <trkpt lat="43.660840" lon="-7.370284">
        <ele>95.945</ele>
        <time>2019-06-19T17:16:12Z</time>
      </trkpt>
      <trkpt lat="43.660942" lon="-7.370480">
        <ele>94.493</ele>
        <time>2019-06-19T17:16:13Z</time>
      </trkpt>
      <trkpt lat="43.661045" lon="-7.370663">
        <ele>93.493</ele>
        <time>2019-06-19T17:16:14Z</time>
      </trkpt>
      <trkpt lat="43.661164" lon="-7.370835">
        <ele>92.248</ele>
        <time>2019-06-19T17:16:15Z</time>
      </trkpt>
      <trkpt lat="43.661294" lon="-7.370975">
        <ele>91.561</ele>
        <time>2019-06-19T17:16:16Z</time>
      </trkpt>
      <trkpt lat="43.661437" lon="-7.371098">
        <ele>90.617</ele>
        <time>2019-06-19T17:16:17Z</time>
      </trkpt>
      <trkpt lat="43.661589" lon="-7.371198">
        <ele>88.508</ele>
        <time>2019-06-19T17:16:18Z</time>
      </trkpt>
      <trkpt lat="43.661745" lon="-7.371290">
        <ele>86.567</ele>
        <time>2019-06-19T17:16:19Z</time>
      </trkpt>
      <trkpt lat="43.661908" lon="-7.371364">
        <ele>83.451</ele>
        <time>2019-06-19T17:16:20Z</time>
      </trkpt>
      <trkpt lat="43.662070" lon="-7.371433">
        <ele>82.232</ele>
        <time>2019-06-19T17:16:21Z</time>
      </trkpt>
      <trkpt lat="43.662237" lon="-7.371496">
        <ele>80.815</ele>
        <time>2019-06-19T17:16:22Z</time>
      </trkpt>
      <trkpt lat="43.662405" lon="-7.371555">
        <ele>80.375</ele>
        <time>2019-06-19T17:16:23Z</time>
      </trkpt>
      <trkpt lat="43.662572" lon="-7.371612">
        <ele>78.851</ele>
        <time>2019-06-19T17:16:24Z</time>
      </trkpt>
      <trkpt lat="43.662756" lon="-7.371674">
        <ele>75.569</ele>
        <time>2019-06-19T17:16:25Z</time>
      </trkpt>
      <trkpt lat="43.662938" lon="-7.371735">
        <ele>74.989</ele>
        <time>2019-06-19T17:16:26Z</time>
      </trkpt>
      <trkpt lat="43.663125" lon="-7.371792">
        <ele>76.858</ele>
        <time>2019-06-19T17:16:27Z</time>
      </trkpt>
      <trkpt lat="43.663308" lon="-7.371853">
        <ele>82.352</ele>
        <time>2019-06-19T17:16:28Z</time>
      </trkpt>
      <trkpt lat="43.663492" lon="-7.371912">
        <ele>86.617</ele>
        <time>2019-06-19T17:16:29Z</time>
      </trkpt>
      <trkpt lat="43.663665" lon="-7.371982">
        <ele>89.708</ele>
        <time>2019-06-19T17:16:30Z</time>
      </trkpt>
      <trkpt lat="43.663829" lon="-7.372059">
        <ele>91.138</ele>
        <time>2019-06-19T17:16:31Z</time>
      </trkpt>
      <trkpt lat="43.664002" lon="-7.372153">
        <ele>91.962</ele>
        <time>2019-06-19T17:16:32Z</time>
      </trkpt>
      <trkpt lat="43.664174" lon="-7.372258">
        <ele>92.723</ele>
        <time>2019-06-19T17:16:33Z</time>
      </trkpt>
      <trkpt lat="43.664348" lon="-7.372370">
        <ele>95.056</ele>
        <time>2019-06-19T17:16:34Z</time>
      </trkpt>
      <trkpt lat="43.664514" lon="-7.372500">
        <ele>96.286</ele>
        <time>2019-06-19T17:16:35Z</time>
      </trkpt>
      <trkpt lat="43.664691" lon="-7.372642">
        <ele>97.942</ele>
        <time>2019-06-19T17:16:36Z</time>
      </trkpt>
      <trkpt lat="43.664868" lon="-7.372792">
        <ele>98.530</ele>
        <time>2019-06-19T17:16:37Z</time>
      </trkpt>
      <trkpt lat="43.665036" lon="-7.372930">
        <ele>97.310</ele>
        <time>2019-06-19T17:16:38Z</time>
      </trkpt>
      <trkpt lat="43.665189" lon="-7.373074">
        <ele>97.272</ele>
        <time>2019-06-19T17:16:39Z</time>
      </trkpt>
      <trkpt lat="43.665329" lon="-7.373218">
        <ele>96.913</ele>
        <time>2019-06-19T17:16:40Z</time>
      </trkpt>
      <trkpt lat="43.665482" lon="-7.373348">
        <ele>94.414</ele>
        <time>2019-06-19T17:16:41Z</time>
      </trkpt>
      <trkpt lat="43.665628" lon="-7.373486">
        <ele>93.108</ele>
        <time>2019-06-19T17:16:42Z</time>
      </trkpt>
      <trkpt lat="43.665773" lon="-7.373613">
        <ele>90.830</ele>
        <time>2019-06-19T17:16:43Z</time>
      </trkpt>
      <trkpt lat="43.665929" lon="-7.373751">
        <ele>89.854</ele>
        <time>2019-06-19T17:16:44Z</time>
      </trkpt>
      <trkpt lat="43.666089" lon="-7.373884">
        <ele>89.235</ele>
        <time>2019-06-19T17:16:45Z</time>
      </trkpt>
      <trkpt lat="43.666253" lon="-7.374022">
        <ele>90.438</ele>
        <time>2019-06-19T17:16:46Z</time>
      </trkpt>
      <trkpt lat="43.666414" lon="-7.374161">
        <ele>91.898</ele>
        <time>2019-06-19T17:16:47Z</time>
      </trkpt>
      <trkpt lat="43.666580" lon="-7.374299">
        <ele>92.574</ele>
        <time>2019-06-19T17:16:48Z</time>
      </trkpt>
      <trkpt lat="43.666744" lon="-7.374439">
        <ele>91.892</ele>
        <time>2019-06-19T17:16:49Z</time>
      </trkpt>
      <trkpt lat="43.666910" lon="-7.374578">
        <ele>90.842</ele>
        <time>2019-06-19T17:16:50Z</time>
      </trkpt>
      <trkpt lat="43.667081" lon="-7.374707">
        <ele>89.448</ele>
        <time>2019-06-19T17:16:51Z</time>
      </trkpt>
      <trkpt lat="43.667223" lon="-7.374847">
        <ele>88.961</ele>
        <time>2019-06-19T17:16:52Z</time>
      </trkpt>
      <trkpt lat="43.667373" lon="-7.374978">
        <ele>89.317</ele>
        <time>2019-06-19T17:16:53Z</time>
      </trkpt>
      <trkpt lat="43.667519" lon="-7.375110">
        <ele>90.108</ele>
        <time>2019-06-19T17:16:54Z</time>
      </trkpt>
      <trkpt lat="43.667677" lon="-7.375234">
        <ele>91.477</ele>
        <time>2019-06-19T17:16:55Z</time>
      </trkpt>
      <trkpt lat="43.667850" lon="-7.375340">
        <ele>92.111</ele>
        <time>2019-06-19T17:16:56Z</time>
      </trkpt>
      <trkpt lat="43.668034" lon="-7.375421">
        <ele>91.962</ele>
        <time>2019-06-19T17:16:57Z</time>
      </trkpt>
      <trkpt lat="43.668220" lon="-7.375485">
        <ele>95.095</ele>
        <time>2019-06-19T17:16:58Z</time>
      </trkpt>
      <trkpt lat="43.668411" lon="-7.375533">
        <ele>98.945</ele>
        <time>2019-06-19T17:16:59Z</time>
      </trkpt>
      <trkpt lat="43.668597" lon="-7.375567">
        <ele>102.291</ele>
        <time>2019-06-19T17:17:00Z</time>
      </trkpt>
      <trkpt lat="43.668782" lon="-7.375594">
        <ele>102.049</ele>
        <time>2019-06-19T17:17:01Z</time>
      </trkpt>
      <trkpt lat="43.668969" lon="-7.375620">
        <ele>102.699</ele>
        <time>2019-06-19T17:17:02Z</time>
      </trkpt>
      <trkpt lat="43.669142" lon="-7.375643">
        <ele>104.499</ele>
        <time>2019-06-19T17:17:03Z</time>
      </trkpt>
      <trkpt lat="43.669314" lon="-7.375664">
        <ele>105.007</ele>
        <time>2019-06-19T17:17:04Z</time>
      </trkpt>
      <trkpt lat="43.669486" lon="-7.375684">
        <ele>104.827</ele>
        <time>2019-06-19T17:17:05Z</time>
      </trkpt>
      <trkpt lat="43.669654" lon="-7.375702">
        <ele>102.908</ele>
        <time>2019-06-19T17:17:06Z</time>
      </trkpt>
      <trkpt lat="43.669821" lon="-7.375730">
        <ele>101.592</ele>
        <time>2019-06-19T17:17:07Z</time>
      </trkpt>
      <trkpt lat="43.669991" lon="-7.375763">
        <ele>100.146</ele>
        <time>2019-06-19T17:17:08Z</time>
      </trkpt>
      <trkpt lat="43.670160" lon="-7.375805">
        <ele>98.377</ele>
        <time>2019-06-19T17:17:09Z</time>
      </trkpt>
      <trkpt lat="43.670332" lon="-7.375858">
        <ele>96.520</ele>
        <time>2019-06-19T17:17:10Z</time>
      </trkpt>
      <trkpt lat="43.670491" lon="-7.375932">
        <ele>95.050</ele>
        <time>2019-06-19T17:17:11Z</time>
      </trkpt>
      <trkpt lat="43.670643" lon="-7.376008">
        <ele>94.916</ele>
        <time>2019-06-19T17:17:12Z</time>
      </trkpt>
      <trkpt lat="43.670790" lon="-7.376102">
        <ele>95.914</ele>
        <time>2019-06-19T17:17:13Z</time>
      </trkpt>
      <trkpt lat="43.670935" lon="-7.376196">
        <ele>96.944</ele>
        <time>2019-06-19T17:17:14Z</time>
      </trkpt>
      <trkpt lat="43.671082" lon="-7.376329">
        <ele>97.592</ele>
        <time>2019-06-19T17:17:15Z</time>
      </trkpt>
      <trkpt lat="43.671216" lon="-7.376460">
        <ele>96.273</ele>
        <time>2019-06-19T17:17:16Z</time>
      </trkpt>
      <trkpt lat="43.671347" lon="-7.376599">
        <ele>93.220</ele>
        <time>2019-06-19T17:17:17Z</time>
      </trkpt>
      <trkpt lat="43.671487" lon="-7.376753">
        <ele>91.508</ele>
        <time>2019-06-19T17:17:18Z</time>
      </trkpt>
      <trkpt lat="43.671610" lon="-7.376915">
        <ele>90.222</ele>
        <time>2019-06-19T17:17:19Z</time>
      </trkpt>
      <trkpt lat="43.671730" lon="-7.377079">
        <ele>88.546</ele>
        <time>2019-06-19T17:17:20Z</time>
      </trkpt>
      <trkpt lat="43.671862" lon="-7.377242">
        <ele>85.547</ele>
        <time>2019-06-19T17:17:21Z</time>
      </trkpt>
      <trkpt lat="43.671992" lon="-7.377411">
        <ele>82.440</ele>
        <time>2019-06-19T17:17:22Z</time>
      </trkpt>
      <trkpt lat="43.672121" lon="-7.377582">
        <ele>82.050</ele>
        <time>2019-06-19T17:17:23Z</time>
      </trkpt>
      <trkpt lat="43.672240" lon="-7.377745">
        <ele>81.566</ele>
        <time>2019-06-19T17:17:24Z</time>
      </trkpt>
      <trkpt lat="43.672352" lon="-7.377896">
        <ele>81.214</ele>
        <time>2019-06-19T17:17:25Z</time>
      </trkpt>
      <trkpt lat="43.672444" lon="-7.378068">
        <ele>80.514</ele>
        <time>2019-06-19T17:17:26Z</time>
      </trkpt>
      <trkpt lat="43.672537" lon="-7.378234">
        <ele>79.347</ele>
        <time>2019-06-19T17:17:27Z</time>
      </trkpt>
      <trkpt lat="43.672632" lon="-7.378406">
        <ele>79.929</ele>
        <time>2019-06-19T17:17:28Z</time>
      </trkpt>
      <trkpt lat="43.672691" lon="-7.378586">
        <ele>82.321</ele>
        <time>2019-06-19T17:17:29Z</time>
      </trkpt>
      <trkpt lat="43.672770" lon="-7.378775">
        <ele>82.608</ele>
        <time>2019-06-19T17:17:30Z</time>
      </trkpt>
      <trkpt lat="43.672844" lon="-7.378975">
        <ele>83.457</ele>
        <time>2019-06-19T17:17:31Z</time>
      </trkpt>
      <trkpt lat="43.672910" lon="-7.379182">
        <ele>83.281</ele>
        <time>2019-06-19T17:17:32Z</time>
      </trkpt>
      <trkpt lat="43.672970" lon="-7.379388">
        <ele>81.282</ele>
        <time>2019-06-19T17:17:33Z</time>
      </trkpt>
      <trkpt lat="43.673027" lon="-7.379600">
        <ele>79.835</ele>
        <time>2019-06-19T17:17:34Z</time>
      </trkpt>
      <trkpt lat="43.673075" lon="-7.379799">
        <ele>78.655</ele>
        <time>2019-06-19T17:17:35Z</time>
      </trkpt>
      <trkpt lat="43.673111" lon="-7.380002">
        <ele>77.271</ele>
        <time>2019-06-19T17:17:36Z</time>
      </trkpt>
      <trkpt lat="43.673138" lon="-7.380209">
        <ele>77.429</ele>
        <time>2019-06-19T17:17:37Z</time>
      </trkpt>
      <trkpt lat="43.673159" lon="-7.380432">
        <ele>78.599</ele>
        <time>2019-06-19T17:17:38Z</time>
      </trkpt>
      <trkpt lat="43.673175" lon="-7.380651">
        <ele>80.451</ele>
        <time>2019-06-19T17:17:39Z</time>
      </trkpt>
      <trkpt lat="43.673175" lon="-7.380876">
        <ele>82.301</ele>
        <time>2019-06-19T17:17:40Z</time>
      </trkpt>
      <trkpt lat="43.673165" lon="-7.381096">
        <ele>82.211</ele>
        <time>2019-06-19T17:17:41Z</time>
      </trkpt>
      <trkpt lat="43.673158" lon="-7.381307">
        <ele>79.408</ele>
        <time>2019-06-19T17:17:42Z</time>
      </trkpt>
      <trkpt lat="43.673152" lon="-7.381520">
        <ele>77.178</ele>
        <time>2019-06-19T17:17:43Z</time>
      </trkpt>
      <trkpt lat="43.673138" lon="-7.381736">
        <ele>75.972</ele>
        <time>2019-06-19T17:17:44Z</time>
      </trkpt>
      <trkpt lat="43.673136" lon="-7.381959">
        <ele>76.433</ele>
        <time>2019-06-19T17:17:45Z</time>
      </trkpt>
      <trkpt lat="43.673125" lon="-7.382183">
        <ele>76.996</ele>
        <time>2019-06-19T17:17:46Z</time>
      </trkpt>
      <trkpt lat="43.673110" lon="-7.382405">
        <ele>75.716</ele>
        <time>2019-06-19T17:17:47Z</time>
      </trkpt>
      <trkpt lat="43.673118" lon="-7.382637">
        <ele>73.012</ele>
        <time>2019-06-19T17:17:48Z</time>
      </trkpt>
      <trkpt lat="43.673114" lon="-7.382877">
        <ele>70.820</ele>
        <time>2019-06-19T17:17:49Z</time>
      </trkpt>
      <trkpt lat="43.673113" lon="-7.383115">
        <ele>69.210</ele>
        <time>2019-06-19T17:17:50Z</time>
      </trkpt>
      <trkpt lat="43.673120" lon="-7.383351">
        <ele>67.347</ele>
        <time>2019-06-19T17:17:51Z</time>
      </trkpt>
      <trkpt lat="43.673136" lon="-7.383592">
        <ele>66.529</ele>
        <time>2019-06-19T17:17:52Z</time>
      </trkpt>
      <trkpt lat="43.673194" lon="-7.383827">
        <ele>65.621</ele>
        <time>2019-06-19T17:17:53Z</time>
      </trkpt>
      <trkpt lat="43.673258" lon="-7.384053">
        <ele>65.108</ele>
        <time>2019-06-19T17:17:54Z</time>
      </trkpt>
      <trkpt lat="43.673334" lon="-7.384215">
        <ele>65.057</ele>
        <time>2019-06-19T17:17:55Z</time>
      </trkpt>
      <trkpt lat="43.673424" lon="-7.384359">
        <ele>64.881</ele>
        <time>2019-06-19T17:17:56Z</time>
      </trkpt>
      <trkpt lat="43.673504" lon="-7.384557">
        <ele>65.862</ele>
        <time>2019-06-19T17:17:57Z</time>
      </trkpt>
      <trkpt lat="43.673603" lon="-7.384752">
        <ele>67.145</ele>
        <time>2019-06-19T17:17:58Z</time>
      </trkpt>
      <trkpt lat="43.673705" lon="-7.384940">
        <ele>68.175</ele>
        <time>2019-06-19T17:17:59Z</time>
      </trkpt>
      <trkpt lat="43.673810" lon="-7.385123">
        <ele>69.371</ele>
        <time>2019-06-19T17:18:00Z</time>
      </trkpt>
      <trkpt lat="43.673923" lon="-7.385300">
        <ele>69.949</ele>
        <time>2019-06-19T17:18:01Z</time>
      </trkpt>
      <trkpt lat="43.674042" lon="-7.385477">
        <ele>69.869</ele>
        <time>2019-06-19T17:18:02Z</time>
      </trkpt>
      <trkpt lat="43.674154" lon="-7.385654">
        <ele>69.754</ele>
        <time>2019-06-19T17:18:03Z</time>
      </trkpt>
      <trkpt lat="43.674257" lon="-7.385833">
        <ele>68.756</ele>
        <time>2019-06-19T17:18:04Z</time>
      </trkpt>
      <trkpt lat="43.674348" lon="-7.386035">
        <ele>67.611</ele>
        <time>2019-06-19T17:18:05Z</time>
      </trkpt>
      <trkpt lat="43.674423" lon="-7.386233">
        <ele>67.108</ele>
        <time>2019-06-19T17:18:06Z</time>
      </trkpt>
      <trkpt lat="43.674473" lon="-7.386448">
        <ele>66.668</ele>
        <time>2019-06-19T17:18:07Z</time>
      </trkpt>
      <trkpt lat="43.674525" lon="-7.386678">
        <ele>65.542</ele>
        <time>2019-06-19T17:18:08Z</time>
      </trkpt>
      <trkpt lat="43.674558" lon="-7.386910">
        <ele>65.073</ele>
        <time>2019-06-19T17:18:09Z</time>
      </trkpt>
      <trkpt lat="43.674568" lon="-7.387127">
        <ele>64.096</ele>
        <time>2019-06-19T17:18:10Z</time>
      </trkpt>
      <trkpt lat="43.674576" lon="-7.387362">
        <ele>62.596</ele>
        <time>2019-06-19T17:18:11Z</time>
      </trkpt>
      <trkpt lat="43.674563" lon="-7.387599">
        <ele>61.152</ele>
        <time>2019-06-19T17:18:12Z</time>
      </trkpt>
      <trkpt lat="43.674528" lon="-7.387822">
        <ele>60.740</ele>
        <time>2019-06-19T17:18:13Z</time>
      </trkpt>
      <trkpt lat="43.674490" lon="-7.388039">
        <ele>60.680</ele>
        <time>2019-06-19T17:18:14Z</time>
      </trkpt>
      <trkpt lat="43.674433" lon="-7.388271">
        <ele>61.186</ele>
        <time>2019-06-19T17:18:15Z</time>
      </trkpt>
      <trkpt lat="43.674364" lon="-7.388489">
        <ele>61.160</ele>
        <time>2019-06-19T17:18:16Z</time>
      </trkpt>
      <trkpt lat="43.674310" lon="-7.388707">
        <ele>60.126</ele>
        <time>2019-06-19T17:18:17Z</time>
      </trkpt>
      <trkpt lat="43.674251" lon="-7.388932">
        <ele>58.608</ele>
        <time>2019-06-19T17:18:18Z</time>
      </trkpt>
      <trkpt lat="43.674194" lon="-7.389165">
        <ele>56.741</ele>
        <time>2019-06-19T17:18:19Z</time>
      </trkpt>
      <trkpt lat="43.674131" lon="-7.389394">
        <ele>54.715</ele>
        <time>2019-06-19T17:18:20Z</time>
      </trkpt>
      <trkpt lat="43.674073" lon="-7.389637">
        <ele>51.876</ele>
        <time>2019-06-19T17:18:21Z</time>
      </trkpt>
      <trkpt lat="43.674011" lon="-7.389859">
        <ele>49.999</ele>
        <time>2019-06-19T17:18:22Z</time>
      </trkpt>
      <trkpt lat="43.673955" lon="-7.390097">
        <ele>48.799</ele>
        <time>2019-06-19T17:18:23Z</time>
      </trkpt>
      <trkpt lat="43.673903" lon="-7.390314">
        <ele>47.865</ele>
        <time>2019-06-19T17:18:24Z</time>
      </trkpt>
      <trkpt lat="43.673854" lon="-7.390538">
        <ele>46.973</ele>
        <time>2019-06-19T17:18:25Z</time>
      </trkpt>
      <trkpt lat="43.673797" lon="-7.390765">
        <ele>46.413</ele>
        <time>2019-06-19T17:18:26Z</time>
      </trkpt>
      <trkpt lat="43.673746" lon="-7.390979">
        <ele>45.739</ele>
        <time>2019-06-19T17:18:27Z</time>
      </trkpt>
      <trkpt lat="43.673686" lon="-7.391203">
        <ele>45.301</ele>
        <time>2019-06-19T17:18:28Z</time>
      </trkpt>
      <trkpt lat="43.673637" lon="-7.391415">
        <ele>45.021</ele>
        <time>2019-06-19T17:18:29Z</time>
      </trkpt>
      <trkpt lat="43.673578" lon="-7.391648">
        <ele>44.208</ele>
        <time>2019-06-19T17:18:30Z</time>
      </trkpt>
      <trkpt lat="43.673519" lon="-7.391876">
        <ele>43.826</ele>
        <time>2019-06-19T17:18:31Z</time>
      </trkpt>
      <trkpt lat="43.673464" lon="-7.392095">
        <ele>43.880</ele>
        <time>2019-06-19T17:18:32Z</time>
      </trkpt>
      <trkpt lat="43.673419" lon="-7.392300">
        <ele>43.681</ele>
        <time>2019-06-19T17:18:33Z</time>
      </trkpt>
      <trkpt lat="43.673364" lon="-7.392512">
        <ele>42.794</ele>
        <time>2019-06-19T17:18:34Z</time>
      </trkpt>
      <trkpt lat="43.673323" lon="-7.392722">
        <ele>41.534</ele>
        <time>2019-06-19T17:18:35Z</time>
      </trkpt>
      <trkpt lat="43.673268" lon="-7.392920">
        <ele>41.220</ele>
        <time>2019-06-19T17:18:36Z</time>
      </trkpt>
      <trkpt lat="43.673225" lon="-7.393118">
        <ele>40.348</ele>
        <time>2019-06-19T17:18:37Z</time>
      </trkpt>
      <trkpt lat="43.673175" lon="-7.393297">
        <ele>39.168</ele>
        <time>2019-06-19T17:18:38Z</time>
      </trkpt>
      <trkpt lat="43.673134" lon="-7.393453">
        <ele>38.094</ele>
        <time>2019-06-19T17:18:39Z</time>
      </trkpt>
      <trkpt lat="43.673095" lon="-7.393595">
        <ele>37.257</ele>
        <time>2019-06-19T17:18:40Z</time>
      </trkpt>
      <trkpt lat="43.673064" lon="-7.393729">
        <ele>34.922</ele>
        <time>2019-06-19T17:18:41Z</time>
      </trkpt>
      <trkpt lat="43.673035" lon="-7.393861">
        <ele>32.308</ele>
        <time>2019-06-19T17:18:42Z</time>
      </trkpt>
      <trkpt lat="43.672999" lon="-7.394010">
        <ele>29.752</ele>
        <time>2019-06-19T17:18:43Z</time>
      </trkpt>
      <trkpt lat="43.672957" lon="-7.394175">
        <ele>27.346</ele>
        <time>2019-06-19T17:18:44Z</time>
      </trkpt>
      <trkpt lat="43.672908" lon="-7.394357">
        <ele>27.287</ele>
        <time>2019-06-19T17:18:45Z</time>
      </trkpt>
      <trkpt lat="43.672862" lon="-7.394549">
        <ele>27.760</ele>
        <time>2019-06-19T17:18:46Z</time>
      </trkpt>
      <trkpt lat="43.672812" lon="-7.394746">
        <ele>29.860</ele>
        <time>2019-06-19T17:18:47Z</time>
      </trkpt>
      <trkpt lat="43.672756" lon="-7.394965">
        <ele>32.746</ele>
        <time>2019-06-19T17:18:48Z</time>
      </trkpt>
      <trkpt lat="43.672704" lon="-7.395183">
        <ele>33.434</ele>
        <time>2019-06-19T17:18:49Z</time>
      </trkpt>
      <trkpt lat="43.672653" lon="-7.395416">
        <ele>33.754</ele>
        <time>2019-06-19T17:18:50Z</time>
      </trkpt>
      <trkpt lat="43.672607" lon="-7.395630">
        <ele>34.247</ele>
        <time>2019-06-19T17:18:51Z</time>
      </trkpt>
      <trkpt lat="43.672555" lon="-7.395852">
        <ele>36.229</ele>
        <time>2019-06-19T17:18:52Z</time>
      </trkpt>
      <trkpt lat="43.672498" lon="-7.396075">
        <ele>34.521</ele>
        <time>2019-06-19T17:18:53Z</time>
      </trkpt>
      <trkpt lat="43.672442" lon="-7.396292">
        <ele>37.608</ele>
        <time>2019-06-19T17:18:54Z</time>
      </trkpt>
      <trkpt lat="43.672391" lon="-7.396507">
        <ele>40.437</ele>
        <time>2019-06-19T17:18:55Z</time>
      </trkpt>
      <trkpt lat="43.672354" lon="-7.396733">
        <ele>42.761</ele>
        <time>2019-06-19T17:18:56Z</time>
      </trkpt>
      <trkpt lat="43.672330" lon="-7.396956">
        <ele>44.752</ele>
        <time>2019-06-19T17:18:57Z</time>
      </trkpt>
      <trkpt lat="43.672334" lon="-7.397169">
        <ele>44.275</ele>
        <time>2019-06-19T17:18:58Z</time>
      </trkpt>
      <trkpt lat="43.672356" lon="-7.397383">
        <ele>43.225</ele>
        <time>2019-06-19T17:18:59Z</time>
      </trkpt>
      <trkpt lat="43.672387" lon="-7.397576">
        <ele>42.541</ele>
        <time>2019-06-19T17:19:00Z</time>
      </trkpt>
      <trkpt lat="43.672423" lon="-7.397784">
        <ele>42.199</ele>
        <time>2019-06-19T17:19:01Z</time>
      </trkpt>
      <trkpt lat="43.672472" lon="-7.397989">
        <ele>42.039</ele>
        <time>2019-06-19T17:19:02Z</time>
      </trkpt>
      <trkpt lat="43.672517" lon="-7.398204">
        <ele>41.336</ele>
        <time>2019-06-19T17:19:03Z</time>
      </trkpt>
      <trkpt lat="43.672572" lon="-7.398414">
        <ele>41.417</ele>
        <time>2019-06-19T17:19:04Z</time>
      </trkpt>
      <trkpt lat="43.672628" lon="-7.398613">
        <ele>41.818</ele>
        <time>2019-06-19T17:19:05Z</time>
      </trkpt>
      <trkpt lat="43.672679" lon="-7.398808">
        <ele>43.108</ele>
        <time>2019-06-19T17:19:06Z</time>
      </trkpt>
      <trkpt lat="43.672725" lon="-7.399026">
        <ele>44.096</ele>
        <time>2019-06-19T17:19:07Z</time>
      </trkpt>
      <trkpt lat="43.672759" lon="-7.399251">
        <ele>44.770</ele>
        <time>2019-06-19T17:19:08Z</time>
      </trkpt>
      <trkpt lat="43.672777" lon="-7.399477">
        <ele>45.271</ele>
        <time>2019-06-19T17:19:09Z</time>
      </trkpt>
      <trkpt lat="43.672787" lon="-7.399682">
        <ele>47.074</ele>
        <time>2019-06-19T17:19:10Z</time>
      </trkpt>
      <trkpt lat="43.672775" lon="-7.399897">
        <ele>49.514</ele>
        <time>2019-06-19T17:19:11Z</time>
      </trkpt>
      <trkpt lat="43.672755" lon="-7.400126">
        <ele>51.790</ele>
        <time>2019-06-19T17:19:12Z</time>
      </trkpt>
      <trkpt lat="43.672711" lon="-7.400365">
        <ele>52.928</ele>
        <time>2019-06-19T17:19:13Z</time>
      </trkpt>
      <trkpt lat="43.672658" lon="-7.400591">
        <ele>53.918</ele>
        <time>2019-06-19T17:19:14Z</time>
      </trkpt>
      <trkpt lat="43.672588" lon="-7.400816">
        <ele>54.587</ele>
        <time>2019-06-19T17:19:15Z</time>
      </trkpt>
      <trkpt lat="43.672508" lon="-7.401024">
        <ele>54.742</ele>
        <time>2019-06-19T17:19:16Z</time>
      </trkpt>
      <trkpt lat="43.672436" lon="-7.401225">
        <ele>55.426</ele>
        <time>2019-06-19T17:19:17Z</time>
      </trkpt>
      <trkpt lat="43.672364" lon="-7.401432">
        <ele>56.308</ele>
        <time>2019-06-19T17:19:18Z</time>
      </trkpt>
      <trkpt lat="43.672290" lon="-7.401654">
        <ele>57.491</ele>
        <time>2019-06-19T17:19:19Z</time>
      </trkpt>
      <trkpt lat="43.672246" lon="-7.401879">
        <ele>58.885</ele>
        <time>2019-06-19T17:19:20Z</time>
      </trkpt>
      <trkpt lat="43.672216" lon="-7.402120">
        <ele>59.686</ele>
        <time>2019-06-19T17:19:21Z</time>
      </trkpt>
      <trkpt lat="43.672182" lon="-7.402359">
        <ele>59.789</ele>
        <time>2019-06-19T17:19:22Z</time>
      </trkpt>
      <trkpt lat="43.672161" lon="-7.402590">
        <ele>59.859</ele>
        <time>2019-06-19T17:19:23Z</time>
      </trkpt>
      <trkpt lat="43.672157" lon="-7.402821">
        <ele>60.425</ele>
        <time>2019-06-19T17:19:24Z</time>
      </trkpt>
      <trkpt lat="43.672173" lon="-7.403042">
        <ele>61.133</ele>
        <time>2019-06-19T17:19:25Z</time>
      </trkpt>
      <trkpt lat="43.672205" lon="-7.403278">
        <ele>63.263</ele>
        <time>2019-06-19T17:19:26Z</time>
      </trkpt>
      <trkpt lat="43.672256" lon="-7.403503">
        <ele>64.032</ele>
        <time>2019-06-19T17:19:27Z</time>
      </trkpt>
      <trkpt lat="43.672324" lon="-7.403704">
        <ele>64.392</ele>
        <time>2019-06-19T17:19:28Z</time>
      </trkpt>
      <trkpt lat="43.672386" lon="-7.403904">
        <ele>64.511</ele>
        <time>2019-06-19T17:19:29Z</time>
      </trkpt>
      <trkpt lat="43.672456" lon="-7.404096">
        <ele>65.208</ele>
        <time>2019-06-19T17:19:30Z</time>
      </trkpt>
      <trkpt lat="43.672518" lon="-7.404268">
        <ele>66.676</ele>
        <time>2019-06-19T17:19:31Z</time>
      </trkpt>
      <trkpt lat="43.672578" lon="-7.404409">
        <ele>68.890</ele>
        <time>2019-06-19T17:19:32Z</time>
      </trkpt>
      <trkpt lat="43.672623" lon="-7.404542">
        <ele>70.371</ele>
        <time>2019-06-19T17:19:33Z</time>
      </trkpt>
      <trkpt lat="43.672654" lon="-7.404667">
        <ele>71.164</ele>
        <time>2019-06-19T17:19:34Z</time>
      </trkpt>
      <trkpt lat="43.672680" lon="-7.404765">
        <ele>71.354</ele>
        <time>2019-06-19T17:19:35Z</time>
      </trkpt>
      <trkpt lat="43.672695" lon="-7.404836">
        <ele>70.850</ele>
        <time>2019-06-19T17:19:36Z</time>
      </trkpt>
      <trkpt lat="43.672692" lon="-7.404924">
        <ele>69.548</ele>
        <time>2019-06-19T17:19:38Z</time>
      </trkpt>
      <trkpt lat="43.672719" lon="-7.405028">
        <ele>69.038</ele>
        <time>2019-06-19T17:19:40Z</time>
      </trkpt>
      <trkpt lat="43.672738" lon="-7.405110">
        <ele>68.767</ele>
        <time>2019-06-19T17:19:42Z</time>
      </trkpt>
      <trkpt lat="43.672743" lon="-7.405179">
        <ele>68.181</ele>
        <time>2019-06-19T17:19:44Z</time>
      </trkpt>
      <trkpt lat="43.672751" lon="-7.405282">
        <ele>67.219</ele>
        <time>2019-06-19T17:19:46Z</time>
      </trkpt>
      <trkpt lat="43.672763" lon="-7.405393">
        <ele>67.208</ele>
        <time>2019-06-19T17:19:48Z</time>
      </trkpt>
      <trkpt lat="43.672779" lon="-7.405466">
        <ele>67.449</ele>
        <time>2019-06-19T17:19:49Z</time>
      </trkpt>
      <trkpt lat="43.672784" lon="-7.405534">
        <ele>67.373</ele>
        <time>2019-06-19T17:19:50Z</time>
      </trkpt>
      <trkpt lat="43.672800" lon="-7.405608">
        <ele>68.354</ele>
        <time>2019-06-19T17:19:52Z</time>
      </trkpt>
      <trkpt lat="43.672816" lon="-7.405738">
        <ele>69.987</ele>
        <time>2019-06-19T17:19:54Z</time>
      </trkpt>
      <trkpt lat="43.672822" lon="-7.405801">
        <ele>70.797</ele>
        <time>2019-06-19T17:19:55Z</time>
      </trkpt>
      <trkpt lat="43.672818" lon="-7.405865">
        <ele>70.993</ele>
        <time>2019-06-19T17:19:56Z</time>
      </trkpt>
      <trkpt lat="43.672808" lon="-7.405932">
        <ele>70.721</ele>
        <time>2019-06-19T17:19:57Z</time>
      </trkpt>
      <trkpt lat="43.672803" lon="-7.406011">
        <ele>70.861</ele>
        <time>2019-06-19T17:19:58Z</time>
      </trkpt>
      <trkpt lat="43.672800" lon="-7.406116">
        <ele>71.242</ele>
        <time>2019-06-19T17:19:59Z</time>
      </trkpt>
      <trkpt lat="43.672798" lon="-7.406237">
        <ele>72.822</ele>
        <time>2019-06-19T17:20:00Z</time>
      </trkpt>
      <trkpt lat="43.672789" lon="-7.406375">
        <ele>74.314</ele>
        <time>2019-06-19T17:20:01Z</time>
      </trkpt>
      <trkpt lat="43.672772" lon="-7.406530">
        <ele>74.808</ele>
        <time>2019-06-19T17:20:02Z</time>
      </trkpt>
      <trkpt lat="43.672759" lon="-7.406692">
        <ele>75.567</ele>
        <time>2019-06-19T17:20:03Z</time>
      </trkpt>
      <trkpt lat="43.672746" lon="-7.406867">
        <ele>75.761</ele>
        <time>2019-06-19T17:20:04Z</time>
      </trkpt>
      <trkpt lat="43.672731" lon="-7.407053">
        <ele>76.072</ele>
        <time>2019-06-19T17:20:05Z</time>
      </trkpt>
      <trkpt lat="43.672721" lon="-7.407256">
        <ele>76.655</ele>
        <time>2019-06-19T17:20:06Z</time>
      </trkpt>
      <trkpt lat="43.672707" lon="-7.407461">
        <ele>76.485</ele>
        <time>2019-06-19T17:20:07Z</time>
      </trkpt>
      <trkpt lat="43.672712" lon="-7.407650">
        <ele>76.631</ele>
        <time>2019-06-19T17:20:08Z</time>
      </trkpt>
      <trkpt lat="43.672727" lon="-7.407847">
        <ele>76.769</ele>
        <time>2019-06-19T17:20:09Z</time>
      </trkpt>
      <trkpt lat="43.672751" lon="-7.408062">
        <ele>76.579</ele>
        <time>2019-06-19T17:20:10Z</time>
      </trkpt>
      <trkpt lat="43.672783" lon="-7.408277">
        <ele>76.483</ele>
        <time>2019-06-19T17:20:11Z</time>
      </trkpt>
      <trkpt lat="43.672829" lon="-7.408496">
        <ele>77.725</ele>
        <time>2019-06-19T17:20:12Z</time>
      </trkpt>
      <trkpt lat="43.672886" lon="-7.408707">
        <ele>79.217</ele>
        <time>2019-06-19T17:20:13Z</time>
      </trkpt>
      <trkpt lat="43.672936" lon="-7.408917">
        <ele>80.408</ele>
        <time>2019-06-19T17:20:14Z</time>
      </trkpt>
      <trkpt lat="43.673002" lon="-7.409153">
        <ele>82.421</ele>
        <time>2019-06-19T17:20:15Z</time>
      </trkpt>
      <trkpt lat="43.673073" lon="-7.409382">
        <ele>82.635</ele>
        <time>2019-06-19T17:20:16Z</time>
      </trkpt>
      <trkpt lat="43.673151" lon="-7.409621">
        <ele>83.876</ele>
        <time>2019-06-19T17:20:17Z</time>
      </trkpt>
      <trkpt lat="43.673217" lon="-7.409861">
        <ele>84.449</ele>
        <time>2019-06-19T17:20:18Z</time>
      </trkpt>
      <trkpt lat="43.673267" lon="-7.410102">
        <ele>84.999</ele>
        <time>2019-06-19T17:20:19Z</time>
      </trkpt>
      <trkpt lat="43.673307" lon="-7.410359">
        <ele>85.565</ele>
        <time>2019-06-19T17:20:20Z</time>
      </trkpt>
      <trkpt lat="43.673339" lon="-7.410612">
        <ele>86.543</ele>
        <time>2019-06-19T17:20:21Z</time>
      </trkpt>
      <trkpt lat="43.673375" lon="-7.410868">
        <ele>88.863</ele>
        <time>2019-06-19T17:20:22Z</time>
      </trkpt>
      <trkpt lat="43.673353" lon="-7.411115">
        <ele>90.374</ele>
        <time>2019-06-19T17:20:23Z</time>
      </trkpt>
      <trkpt lat="43.673355" lon="-7.411376">
        <ele>91.356</ele>
        <time>2019-06-19T17:20:24Z</time>
      </trkpt>
      <trkpt lat="43.673344" lon="-7.411621">
        <ele>91.221</ele>
        <time>2019-06-19T17:20:25Z</time>
      </trkpt>
      <trkpt lat="43.673327" lon="-7.411866">
        <ele>91.608</ele>
        <time>2019-06-19T17:20:26Z</time>
      </trkpt>
      <trkpt lat="43.673311" lon="-7.412115">
        <ele>91.730</ele>
        <time>2019-06-19T17:20:27Z</time>
      </trkpt>
      <trkpt lat="43.673309" lon="-7.412370">
        <ele>92.334</ele>
        <time>2019-06-19T17:20:28Z</time>
      </trkpt>
      <trkpt lat="43.673336" lon="-7.412618">
        <ele>93.175</ele>
        <time>2019-06-19T17:20:29Z</time>
      </trkpt>
      <trkpt lat="43.673345" lon="-7.412872">
        <ele>93.358</ele>
        <time>2019-06-19T17:20:30Z</time>
      </trkpt>
      <trkpt lat="43.673373" lon="-7.413120">
        <ele>94.228</ele>
        <time>2019-06-19T17:20:31Z</time>
      </trkpt>
      <trkpt lat="43.673408" lon="-7.413385">
        <ele>95.514</ele>
        <time>2019-06-19T17:20:32Z</time>
      </trkpt>
      <trkpt lat="43.673456" lon="-7.413630">
        <ele>95.482</ele>
        <time>2019-06-19T17:20:33Z</time>
      </trkpt>
      <trkpt lat="43.673499" lon="-7.413883">
        <ele>95.082</ele>
        <time>2019-06-19T17:20:34Z</time>
      </trkpt>
      <trkpt lat="43.673528" lon="-7.414139">
        <ele>95.053</ele>
        <time>2019-06-19T17:20:35Z</time>
      </trkpt>
      <trkpt lat="43.673571" lon="-7.414409">
        <ele>95.004</ele>
        <time>2019-06-19T17:20:36Z</time>
      </trkpt>
      <trkpt lat="43.673622" lon="-7.414666">
        <ele>94.214</ele>
        <time>2019-06-19T17:20:37Z</time>
      </trkpt>
      <trkpt lat="43.673673" lon="-7.414945">
        <ele>93.408</ele>
        <time>2019-06-19T17:20:38Z</time>
      </trkpt>
      <trkpt lat="43.673726" lon="-7.415233">
        <ele>93.418</ele>
        <time>2019-06-19T17:20:39Z</time>
      </trkpt>
      <trkpt lat="43.673774" lon="-7.415509">
        <ele>93.212</ele>
        <time>2019-06-19T17:20:40Z</time>
      </trkpt>
      <trkpt lat="43.673822" lon="-7.415805">
        <ele>92.843</ele>
        <time>2019-06-19T17:20:41Z</time>
      </trkpt>
      <trkpt lat="43.673873" lon="-7.416109">
        <ele>91.916</ele>
        <time>2019-06-19T17:20:42Z</time>
      </trkpt>
      <trkpt lat="43.673929" lon="-7.416407">
        <ele>91.366</ele>
        <time>2019-06-19T17:20:43Z</time>
      </trkpt>
      <trkpt lat="43.673985" lon="-7.416717">
        <ele>89.292</ele>
        <time>2019-06-19T17:20:44Z</time>
      </trkpt>
      <trkpt lat="43.674047" lon="-7.417027">
        <ele>85.530</ele>
        <time>2019-06-19T17:20:45Z</time>
      </trkpt>
      <trkpt lat="43.674111" lon="-7.417327">
        <ele>81.560</ele>
        <time>2019-06-19T17:20:46Z</time>
      </trkpt>
      <trkpt lat="43.674180" lon="-7.417644">
        <ele>79.549</ele>
        <time>2019-06-19T17:20:47Z</time>
      </trkpt>
      <trkpt lat="43.674247" lon="-7.417956">
        <ele>78.402</ele>
        <time>2019-06-19T17:20:48Z</time>
      </trkpt>
      <trkpt lat="43.674312" lon="-7.418282">
        <ele>76.822</ele>
        <time>2019-06-19T17:20:49Z</time>
      </trkpt>
      <trkpt lat="43.674374" lon="-7.418601">
        <ele>75.108</ele>
        <time>2019-06-19T17:20:50Z</time>
      </trkpt>
      <trkpt lat="43.674440" lon="-7.418919">
        <ele>75.187</ele>
        <time>2019-06-19T17:20:51Z</time>
      </trkpt>
      <trkpt lat="43.674503" lon="-7.419259">
        <ele>76.271</ele>
        <time>2019-06-19T17:20:52Z</time>
      </trkpt>
      <trkpt lat="43.674572" lon="-7.419597">
        <ele>75.232</ele>
        <time>2019-06-19T17:20:53Z</time>
      </trkpt>
      <trkpt lat="43.674633" lon="-7.419925">
        <ele>73.115</ele>
        <time>2019-06-19T17:20:54Z</time>
      </trkpt>
      <trkpt lat="43.674695" lon="-7.420224">
        <ele>72.355</ele>
        <time>2019-06-19T17:20:55Z</time>
      </trkpt>
      <trkpt lat="43.674762" lon="-7.420514">
        <ele>71.371</ele>
        <time>2019-06-19T17:20:56Z</time>
      </trkpt>
      <trkpt lat="43.674823" lon="-7.420842">
        <ele>70.689</ele>
        <time>2019-06-19T17:20:57Z</time>
      </trkpt>
      <trkpt lat="43.674887" lon="-7.421167">
        <ele>68.859</ele>
        <time>2019-06-19T17:20:58Z</time>
      </trkpt>
      <trkpt lat="43.674949" lon="-7.421485">
        <ele>69.036</ele>
        <time>2019-06-19T17:20:59Z</time>
      </trkpt>
      <trkpt lat="43.674998" lon="-7.421782">
        <ele>70.017</ele>
        <time>2019-06-19T17:21:00Z</time>
      </trkpt>
      <trkpt lat="43.675052" lon="-7.422068">
        <ele>69.818</ele>
        <time>2019-06-19T17:21:01Z</time>
      </trkpt>
      <trkpt lat="43.675113" lon="-7.422361">
        <ele>68.808</ele>
        <time>2019-06-19T17:21:02Z</time>
      </trkpt>
      <trkpt lat="43.675166" lon="-7.422652">
        <ele>67.286</ele>
        <time>2019-06-19T17:21:03Z</time>
      </trkpt>
      <trkpt lat="43.675222" lon="-7.422929">
        <ele>66.970</ele>
        <time>2019-06-19T17:21:04Z</time>
      </trkpt>
      <trkpt lat="43.675277" lon="-7.423194">
        <ele>67.561</ele>
        <time>2019-06-19T17:21:05Z</time>
      </trkpt>
      <trkpt lat="43.675337" lon="-7.423430">
        <ele>67.894</ele>
        <time>2019-06-19T17:21:06Z</time>
      </trkpt>
      <trkpt lat="43.675386" lon="-7.423657">
        <ele>66.664</ele>
        <time>2019-06-19T17:21:07Z</time>
      </trkpt>
      <trkpt lat="43.675421" lon="-7.423839">
        <ele>64.920</ele>
        <time>2019-06-19T17:21:08Z</time>
      </trkpt>
      <trkpt lat="43.675465" lon="-7.424014">
        <ele>63.648</ele>
        <time>2019-06-19T17:21:09Z</time>
      </trkpt>
      <trkpt lat="43.675504" lon="-7.424156">
        <ele>62.488</ele>
        <time>2019-06-19T17:21:10Z</time>
      </trkpt>
      <trkpt lat="43.675535" lon="-7.424282">
        <ele>62.176</ele>
        <time>2019-06-19T17:21:11Z</time>
      </trkpt>
      <trkpt lat="43.675569" lon="-7.424396">
        <ele>62.090</ele>
        <time>2019-06-19T17:21:12Z</time>
      </trkpt>
      <trkpt lat="43.675628" lon="-7.424505">
        <ele>62.019</ele>
        <time>2019-06-19T17:21:13Z</time>
      </trkpt>
      <trkpt lat="43.675685" lon="-7.424615">
        <ele>62.008</ele>
        <time>2019-06-19T17:21:14Z</time>
      </trkpt>
      <trkpt lat="43.675729" lon="-7.424718">
        <ele>62.050</ele>
        <time>2019-06-19T17:21:15Z</time>
      </trkpt>
      <trkpt lat="43.675739" lon="-7.424829">
        <ele>62.014</ele>
        <time>2019-06-19T17:21:16Z</time>
      </trkpt>
      <trkpt lat="43.675724" lon="-7.424953">
        <ele>62.055</ele>
        <time>2019-06-19T17:21:17Z</time>
      </trkpt>
      <trkpt lat="43.675703" lon="-7.425082">
        <ele>62.028</ele>
        <time>2019-06-19T17:21:18Z</time>
      </trkpt>
      <trkpt lat="43.675702" lon="-7.425241">
        <ele>62.098</ele>
        <time>2019-06-19T17:21:19Z</time>
      </trkpt>
      <trkpt lat="43.675707" lon="-7.425404">
        <ele>62.714</ele>
        <time>2019-06-19T17:21:20Z</time>
      </trkpt>
      <trkpt lat="43.675746" lon="-7.425584">
        <ele>63.452</ele>
        <time>2019-06-19T17:21:21Z</time>
      </trkpt>
      <trkpt lat="43.675791" lon="-7.425783">
        <ele>64.082</ele>
        <time>2019-06-19T17:21:22Z</time>
      </trkpt>
      <trkpt lat="43.675833" lon="-7.425988">
        <ele>63.431</ele>
        <time>2019-06-19T17:21:23Z</time>
      </trkpt>
      <trkpt lat="43.675869" lon="-7.426209">
        <ele>62.461</ele>
        <time>2019-06-19T17:21:24Z</time>
      </trkpt>
      <trkpt lat="43.675911" lon="-7.426434">
        <ele>61.307</ele>
        <time>2019-06-19T17:21:25Z</time>
      </trkpt>
      <trkpt lat="43.675943" lon="-7.426652">
        <ele>60.308</ele>
        <time>2019-06-19T17:21:26Z</time>
      </trkpt>
      <trkpt lat="43.675989" lon="-7.426883">
        <ele>59.946</ele>
        <time>2019-06-19T17:21:27Z</time>
      </trkpt>
      <trkpt lat="43.676026" lon="-7.427105">
        <ele>59.090</ele>
        <time>2019-06-19T17:21:28Z</time>
      </trkpt>
      <trkpt lat="43.676066" lon="-7.427330">
        <ele>58.391</ele>
        <time>2019-06-19T17:21:29Z</time>
      </trkpt>
      <trkpt lat="43.676097" lon="-7.427543">
        <ele>58.074</ele>
        <time>2019-06-19T17:21:30Z</time>
      </trkpt>
      <trkpt lat="43.676143" lon="-7.427765">
        <ele>57.214</ele>
        <time>2019-06-19T17:21:31Z</time>
      </trkpt>
      <trkpt lat="43.676184" lon="-7.427985">
        <ele>57.110</ele>
        <time>2019-06-19T17:21:32Z</time>
      </trkpt>
      <trkpt lat="43.676234" lon="-7.428197">
        <ele>57.518</ele>
        <time>2019-06-19T17:21:33Z</time>
      </trkpt>
      <trkpt lat="43.676280" lon="-7.428420">
        <ele>58.348</ele>
        <time>2019-06-19T17:21:34Z</time>
      </trkpt>
      <trkpt lat="43.676329" lon="-7.428650">
        <ele>58.946</ele>
        <time>2019-06-19T17:21:35Z</time>
      </trkpt>
      <trkpt lat="43.676377" lon="-7.428872">
        <ele>58.188</ele>
        <time>2019-06-19T17:21:36Z</time>
      </trkpt>
      <trkpt lat="43.676425" lon="-7.429109">
        <ele>57.816</ele>
        <time>2019-06-19T17:21:37Z</time>
      </trkpt>
      <trkpt lat="43.676482" lon="-7.429324">
        <ele>57.108</ele>
        <time>2019-06-19T17:21:38Z</time>
      </trkpt>
      <trkpt lat="43.676528" lon="-7.429559">
        <ele>56.667</ele>
        <time>2019-06-19T17:21:39Z</time>
      </trkpt>
      <trkpt lat="43.676580" lon="-7.429797">
        <ele>56.091</ele>
        <time>2019-06-19T17:21:40Z</time>
      </trkpt>
      <trkpt lat="43.676622" lon="-7.430035">
        <ele>56.142</ele>
        <time>2019-06-19T17:21:41Z</time>
      </trkpt>
      <trkpt lat="43.676666" lon="-7.430218">
        <ele>56.835</ele>
        <time>2019-06-19T17:21:42Z</time>
      </trkpt>
      <trkpt lat="43.676717" lon="-7.430408">
        <ele>56.895</ele>
        <time>2019-06-19T17:21:43Z</time>
      </trkpt>
      <trkpt lat="43.676758" lon="-7.430639">
        <ele>56.311</ele>
        <time>2019-06-19T17:21:44Z</time>
      </trkpt>
      <trkpt lat="43.676799" lon="-7.430871">
        <ele>54.749</ele>
        <time>2019-06-19T17:21:45Z</time>
      </trkpt>
      <trkpt lat="43.676832" lon="-7.431111">
        <ele>52.449</ele>
        <time>2019-06-19T17:21:46Z</time>
      </trkpt>
      <trkpt lat="43.676857" lon="-7.431328">
        <ele>51.521</ele>
        <time>2019-06-19T17:21:47Z</time>
      </trkpt>
      <trkpt lat="43.676859" lon="-7.431553">
        <ele>50.741</ele>
        <time>2019-06-19T17:21:48Z</time>
      </trkpt>
      <trkpt lat="43.676868" lon="-7.431775">
        <ele>49.605</ele>
        <time>2019-06-19T17:21:49Z</time>
      </trkpt>
      <trkpt lat="43.676849" lon="-7.432002">
        <ele>48.508</ele>
        <time>2019-06-19T17:21:50Z</time>
      </trkpt>
      <trkpt lat="43.676842" lon="-7.432222">
        <ele>47.755</ele>
        <time>2019-06-19T17:21:51Z</time>
      </trkpt>
      <trkpt lat="43.676837" lon="-7.432446">
        <ele>46.849</ele>
        <time>2019-06-19T17:21:52Z</time>
      </trkpt>
      <trkpt lat="43.676816" lon="-7.432675">
        <ele>46.640</ele>
        <time>2019-06-19T17:21:53Z</time>
      </trkpt>
      <trkpt lat="43.676794" lon="-7.432910">
        <ele>46.713</ele>
        <time>2019-06-19T17:21:54Z</time>
      </trkpt>
      <trkpt lat="43.676783" lon="-7.433144">
        <ele>47.253</ele>
        <time>2019-06-19T17:21:55Z</time>
      </trkpt>
      <trkpt lat="43.676773" lon="-7.433388">
        <ele>48.029</ele>
        <time>2019-06-19T17:21:56Z</time>
      </trkpt>
      <trkpt lat="43.676757" lon="-7.433621">
        <ele>49.347</ele>
        <time>2019-06-19T17:21:57Z</time>
      </trkpt>
      <trkpt lat="43.676757" lon="-7.433863">
        <ele>48.227</ele>
        <time>2019-06-19T17:21:58Z</time>
      </trkpt>
      <trkpt lat="43.676768" lon="-7.434118">
        <ele>46.517</ele>
        <time>2019-06-19T17:21:59Z</time>
      </trkpt>
      <trkpt lat="43.676793" lon="-7.434368">
        <ele>44.787</ele>
        <time>2019-06-19T17:22:00Z</time>
      </trkpt>
      <trkpt lat="43.676828" lon="-7.434620">
        <ele>43.515</ele>
        <time>2019-06-19T17:22:01Z</time>
      </trkpt>
      <trkpt lat="43.676861" lon="-7.434871">
        <ele>42.808</ele>
        <time>2019-06-19T17:22:02Z</time>
      </trkpt>
      <trkpt lat="43.676913" lon="-7.435142">
        <ele>41.854</ele>
        <time>2019-06-19T17:22:03Z</time>
      </trkpt>
      <trkpt lat="43.676973" lon="-7.435394">
        <ele>40.688</ele>
        <time>2019-06-19T17:22:04Z</time>
      </trkpt>
      <trkpt lat="43.677031" lon="-7.435667">
        <ele>39.759</ele>
        <time>2019-06-19T17:22:05Z</time>
      </trkpt>
      <trkpt lat="43.677086" lon="-7.435920">
        <ele>38.342</ele>
        <time>2019-06-19T17:22:06Z</time>
      </trkpt>
      <trkpt lat="43.677146" lon="-7.436198">
        <ele>37.772</ele>
        <time>2019-06-19T17:22:07Z</time>
      </trkpt>
      <trkpt lat="43.677198" lon="-7.436457">
        <ele>38.688</ele>
        <time>2019-06-19T17:22:08Z</time>
      </trkpt>
      <trkpt lat="43.677252" lon="-7.436723">
        <ele>40.636</ele>
        <time>2019-06-19T17:22:09Z</time>
      </trkpt>
      <trkpt lat="43.677316" lon="-7.436983">
        <ele>42.876</ele>
        <time>2019-06-19T17:22:10Z</time>
      </trkpt>
      <trkpt lat="43.677390" lon="-7.437209">
        <ele>41.016</ele>
        <time>2019-06-19T17:22:11Z</time>
      </trkpt>
      <trkpt lat="43.677478" lon="-7.437458">
        <ele>40.276</ele>
        <time>2019-06-19T17:22:12Z</time>
      </trkpt>
      <trkpt lat="43.677559" lon="-7.437691">
        <ele>40.213</ele>
        <time>2019-06-19T17:22:13Z</time>
      </trkpt>
      <trkpt lat="43.677654" lon="-7.437947">
        <ele>37.308</ele>
        <time>2019-06-19T17:22:14Z</time>
      </trkpt>
      <trkpt lat="43.677744" lon="-7.438175">
        <ele>32.724</ele>
        <time>2019-06-19T17:22:15Z</time>
      </trkpt>
      <trkpt lat="43.677840" lon="-7.438423">
        <ele>32.068</ele>
        <time>2019-06-19T17:22:16Z</time>
      </trkpt>
      <trkpt lat="43.677924" lon="-7.438650">
        <ele>33.759</ele>
        <time>2019-06-19T17:22:17Z</time>
      </trkpt>
      <trkpt lat="43.678006" lon="-7.438891">
        <ele>34.262</ele>
        <time>2019-06-19T17:22:18Z</time>
      </trkpt>
      <trkpt lat="43.678093" lon="-7.439130">
        <ele>33.282</ele>
        <time>2019-06-19T17:22:19Z</time>
      </trkpt>
      <trkpt lat="43.678185" lon="-7.439363">
        <ele>30.948</ele>
        <time>2019-06-19T17:22:20Z</time>
      </trkpt>
      <trkpt lat="43.678275" lon="-7.439588">
        <ele>29.336</ele>
        <time>2019-06-19T17:22:21Z</time>
      </trkpt>
      <trkpt lat="43.678362" lon="-7.439808">
        <ele>28.226</ele>
        <time>2019-06-19T17:22:22Z</time>
      </trkpt>
      <trkpt lat="43.678456" lon="-7.440035">
        <ele>28.378</ele>
        <time>2019-06-19T17:22:23Z</time>
      </trkpt>
      <trkpt lat="43.678553" lon="-7.440260">
        <ele>27.333</ele>
        <time>2019-06-19T17:22:24Z</time>
      </trkpt>
      <trkpt lat="43.678675" lon="-7.440481">
        <ele>26.626</ele>
        <time>2019-06-19T17:22:25Z</time>
      </trkpt>
      <trkpt lat="43.678793" lon="-7.440704">
        <ele>27.008</ele>
        <time>2019-06-19T17:22:26Z</time>
      </trkpt>
      <trkpt lat="43.678915" lon="-7.440918">
        <ele>28.290</ele>
        <time>2019-06-19T17:22:27Z</time>
      </trkpt>
      <trkpt lat="43.679045" lon="-7.441129">
        <ele>28.654</ele>
        <time>2019-06-19T17:22:28Z</time>
      </trkpt>
      <trkpt lat="43.679189" lon="-7.441315">
        <ele>29.945</ele>
        <time>2019-06-19T17:22:29Z</time>
      </trkpt>
      <trkpt lat="43.679326" lon="-7.441493">
        <ele>31.718</ele>
        <time>2019-06-19T17:22:30Z</time>
      </trkpt>
      <trkpt lat="43.679466" lon="-7.441659">
        <ele>33.178</ele>
        <time>2019-06-19T17:22:31Z</time>
      </trkpt>
      <trkpt lat="43.679610" lon="-7.441835">
        <ele>35.024</ele>
        <time>2019-06-19T17:22:32Z</time>
      </trkpt>
      <trkpt lat="43.679754" lon="-7.442009">
        <ele>36.612</ele>
        <time>2019-06-19T17:22:33Z</time>
      </trkpt>
      <trkpt lat="43.679895" lon="-7.442200">
        <ele>39.022</ele>
        <time>2019-06-19T17:22:34Z</time>
      </trkpt>
      <trkpt lat="43.680022" lon="-7.442394">
        <ele>41.315</ele>
        <time>2019-06-19T17:22:35Z</time>
      </trkpt>
      <trkpt lat="43.680145" lon="-7.442594">
        <ele>42.965</ele>
        <time>2019-06-19T17:22:36Z</time>
      </trkpt>
      <trkpt lat="43.680256" lon="-7.442817">
        <ele>44.111</ele>
        <time>2019-06-19T17:22:37Z</time>
      </trkpt>
      <trkpt lat="43.680350" lon="-7.443040">
        <ele>45.208</ele>
        <time>2019-06-19T17:22:38Z</time>
      </trkpt>
      <trkpt lat="43.680432" lon="-7.443278">
        <ele>45.594</ele>
        <time>2019-06-19T17:22:39Z</time>
      </trkpt>
      <trkpt lat="43.680511" lon="-7.443521">
        <ele>45.378</ele>
        <time>2019-06-19T17:22:40Z</time>
      </trkpt>
      <trkpt lat="43.680591" lon="-7.443752">
        <ele>45.179</ele>
        <time>2019-06-19T17:22:41Z</time>
      </trkpt>
      <trkpt lat="43.680668" lon="-7.443975">
        <ele>46.082</ele>
        <time>2019-06-19T17:22:42Z</time>
      </trkpt>
      <trkpt lat="43.680742" lon="-7.444215">
        <ele>48.212</ele>
        <time>2019-06-19T17:22:43Z</time>
      </trkpt>
      <trkpt lat="43.680821" lon="-7.444442">
        <ele>49.958</ele>
        <time>2019-06-19T17:22:44Z</time>
      </trkpt>
      <trkpt lat="43.680894" lon="-7.444692">
        <ele>50.046</ele>
        <time>2019-06-19T17:22:45Z</time>
      </trkpt>
      <trkpt lat="43.680971" lon="-7.444937">
        <ele>49.436</ele>
        <time>2019-06-19T17:22:46Z</time>
      </trkpt>
      <trkpt lat="43.681053" lon="-7.445198">
        <ele>50.911</ele>
        <time>2019-06-19T17:22:47Z</time>
      </trkpt>
      <trkpt lat="43.681138" lon="-7.445455">
        <ele>52.321</ele>
        <time>2019-06-19T17:22:48Z</time>
      </trkpt>
      <trkpt lat="43.681228" lon="-7.445694">
        <ele>54.103</ele>
        <time>2019-06-19T17:22:49Z</time>
      </trkpt>
      <trkpt lat="43.681320" lon="-7.445952">
        <ele>56.108</ele>
        <time>2019-06-19T17:22:50Z</time>
      </trkpt>
      <trkpt lat="43.681407" lon="-7.446187">
        <ele>57.964</ele>
        <time>2019-06-19T17:22:51Z</time>
      </trkpt>
      <trkpt lat="43.681516" lon="-7.446395">
        <ele>57.948</ele>
        <time>2019-06-19T17:22:52Z</time>
      </trkpt>
      <trkpt lat="43.681614" lon="-7.446607">
        <ele>58.019</ele>
        <time>2019-06-19T17:22:53Z</time>
      </trkpt>
      <trkpt lat="43.681712" lon="-7.446810">
        <ele>58.812</ele>
        <time>2019-06-19T17:22:54Z</time>
      </trkpt>
      <trkpt lat="43.681814" lon="-7.447002">
        <ele>59.122</ele>
        <time>2019-06-19T17:22:55Z</time>
      </trkpt>
      <trkpt lat="43.681911" lon="-7.447191">
        <ele>58.718</ele>
        <time>2019-06-19T17:22:56Z</time>
      </trkpt>
      <trkpt lat="43.681974" lon="-7.447328">
        <ele>58.076</ele>
        <time>2019-06-19T17:22:57Z</time>
      </trkpt>
      <trkpt lat="43.682064" lon="-7.447516">
        <ele>56.046</ele>
        <time>2019-06-19T17:22:58Z</time>
      </trkpt>
      <trkpt lat="43.682154" lon="-7.447699">
        <ele>54.353</ele>
        <time>2019-06-19T17:22:59Z</time>
      </trkpt>
      <trkpt lat="43.682236" lon="-7.447881">
        <ele>53.004</ele>
        <time>2019-06-19T17:23:00Z</time>
      </trkpt>
      <trkpt lat="43.682330" lon="-7.448060">
        <ele>52.214</ele>
        <time>2019-06-19T17:23:01Z</time>
      </trkpt>
      <trkpt lat="43.682430" lon="-7.448233">
        <ele>50.008</ele>
        <time>2019-06-19T17:23:02Z</time>
      </trkpt>
      <trkpt lat="43.682526" lon="-7.448439">
        <ele>48.678</ele>
        <time>2019-06-19T17:23:03Z</time>
      </trkpt>
      <trkpt lat="43.682624" lon="-7.448618">
        <ele>50.332</ele>
        <time>2019-06-19T17:23:04Z</time>
      </trkpt>
      <trkpt lat="43.682704" lon="-7.448840">
        <ele>50.973</ele>
        <time>2019-06-19T17:23:05Z</time>
      </trkpt>
      <trkpt lat="43.682788" lon="-7.449075">
        <ele>49.266</ele>
        <time>2019-06-19T17:23:06Z</time>
      </trkpt>
      <trkpt lat="43.682868" lon="-7.449321">
        <ele>48.696</ele>
        <time>2019-06-19T17:23:07Z</time>
      </trkpt>
      <trkpt lat="43.682941" lon="-7.449579">
        <ele>49.382</ele>
        <time>2019-06-19T17:23:08Z</time>
      </trkpt>
      <trkpt lat="43.683015" lon="-7.449836">
        <ele>50.750</ele>
        <time>2019-06-19T17:23:09Z</time>
      </trkpt>
      <trkpt lat="43.683076" lon="-7.450100">
        <ele>50.230</ele>
        <time>2019-06-19T17:23:10Z</time>
      </trkpt>
      <trkpt lat="43.683140" lon="-7.450363">
        <ele>47.581</ele>
        <time>2019-06-19T17:23:11Z</time>
      </trkpt>
      <trkpt lat="43.683196" lon="-7.450619">
        <ele>43.861</ele>
        <time>2019-06-19T17:23:12Z</time>
      </trkpt>
      <trkpt lat="43.683261" lon="-7.450891">
        <ele>39.517</ele>
        <time>2019-06-19T17:23:13Z</time>
      </trkpt>
      <trkpt lat="43.683333" lon="-7.451161">
        <ele>37.208</ele>
        <time>2019-06-19T17:23:14Z</time>
      </trkpt>
      <trkpt lat="43.683406" lon="-7.451440">
        <ele>37.371</ele>
        <time>2019-06-19T17:23:15Z</time>
      </trkpt>
      <trkpt lat="43.683478" lon="-7.451708">
        <ele>38.865</ele>
        <time>2019-06-19T17:23:16Z</time>
      </trkpt>
      <trkpt lat="43.683564" lon="-7.451971">
        <ele>40.926</ele>
        <time>2019-06-19T17:23:17Z</time>
      </trkpt>
      <trkpt lat="43.683624" lon="-7.452246">
        <ele>46.269</ele>
        <time>2019-06-19T17:23:18Z</time>
      </trkpt>
      <trkpt lat="43.683695" lon="-7.452520">
        <ele>49.419</ele>
        <time>2019-06-19T17:23:19Z</time>
      </trkpt>
      <trkpt lat="43.683757" lon="-7.452794">
        <ele>51.545</ele>
        <time>2019-06-19T17:23:20Z</time>
      </trkpt>
      <trkpt lat="43.683817" lon="-7.453065">
        <ele>53.763</ele>
        <time>2019-06-19T17:23:21Z</time>
      </trkpt>
      <trkpt lat="43.683873" lon="-7.453337">
        <ele>55.513</ele>
        <time>2019-06-19T17:23:22Z</time>
      </trkpt>
      <trkpt lat="43.683930" lon="-7.453620">
        <ele>58.275</ele>
        <time>2019-06-19T17:23:23Z</time>
      </trkpt>
      <trkpt lat="43.683979" lon="-7.453900">
        <ele>59.528</ele>
        <time>2019-06-19T17:23:24Z</time>
      </trkpt>
      <trkpt lat="43.684028" lon="-7.454173">
        <ele>60.620</ele>
        <time>2019-06-19T17:23:25Z</time>
      </trkpt>
      <trkpt lat="43.684077" lon="-7.454428">
        <ele>60.708</ele>
        <time>2019-06-19T17:23:26Z</time>
      </trkpt>
      <trkpt lat="43.684118" lon="-7.454697">
        <ele>59.590</ele>
        <time>2019-06-19T17:23:27Z</time>
      </trkpt>
      <trkpt lat="43.684159" lon="-7.454938">
        <ele>59.714</ele>
        <time>2019-06-19T17:23:28Z</time>
      </trkpt>
      <trkpt lat="43.684198" lon="-7.455208">
        <ele>63.725</ele>
        <time>2019-06-19T17:23:29Z</time>
      </trkpt>
      <trkpt lat="43.684243" lon="-7.455459">
        <ele>66.218</ele>
        <time>2019-06-19T17:23:30Z</time>
      </trkpt>
      <trkpt lat="43.684278" lon="-7.455725">
        <ele>68.028</ele>
        <time>2019-06-19T17:23:31Z</time>
      </trkpt>
      <trkpt lat="43.684330" lon="-7.455975">
        <ele>69.174</ele>
        <time>2019-06-19T17:23:32Z</time>
      </trkpt>
      <trkpt lat="43.684381" lon="-7.456264">
        <ele>70.332</ele>
        <time>2019-06-19T17:23:33Z</time>
      </trkpt>
      <trkpt lat="43.684420" lon="-7.456537">
        <ele>70.542</ele>
        <time>2019-06-19T17:23:34Z</time>
      </trkpt>
      <trkpt lat="43.684469" lon="-7.456802">
        <ele>70.748</ele>
        <time>2019-06-19T17:23:35Z</time>
      </trkpt>
      <trkpt lat="43.684522" lon="-7.457079">
        <ele>73.561</ele>
        <time>2019-06-19T17:23:36Z</time>
      </trkpt>
      <trkpt lat="43.684576" lon="-7.457330">
        <ele>77.317</ele>
        <time>2019-06-19T17:23:37Z</time>
      </trkpt>
      <trkpt lat="43.684622" lon="-7.457583">
        <ele>80.408</ele>
        <time>2019-06-19T17:23:38Z</time>
      </trkpt>
      <trkpt lat="43.684692" lon="-7.457793">
        <ele>78.827</ele>
        <time>2019-06-19T17:23:39Z</time>
      </trkpt>
      <trkpt lat="43.684763" lon="-7.458005">
        <ele>78.431</ele>
        <time>2019-06-19T17:23:40Z</time>
      </trkpt>
      <trkpt lat="43.684847" lon="-7.458213">
        <ele>79.142</ele>
        <time>2019-06-19T17:23:41Z</time>
      </trkpt>
      <trkpt lat="43.684921" lon="-7.458413">
        <ele>81.995</ele>
        <time>2019-06-19T17:23:42Z</time>
      </trkpt>
      <trkpt lat="43.685008" lon="-7.458616">
        <ele>85.115</ele>
        <time>2019-06-19T17:23:43Z</time>
      </trkpt>
      <trkpt lat="43.685150" lon="-7.458830">
        <ele>88.691</ele>
        <time>2019-06-19T17:23:44Z</time>
      </trkpt>
      <trkpt lat="43.685299" lon="-7.458973">
        <ele>88.059</ele>
        <time>2019-06-19T17:23:45Z</time>
      </trkpt>
      <trkpt lat="43.685423" lon="-7.459108">
        <ele>86.869</ele>
        <time>2019-06-19T17:23:46Z</time>
      </trkpt>
      <trkpt lat="43.685536" lon="-7.459259">
        <ele>85.085</ele>
        <time>2019-06-19T17:23:47Z</time>
      </trkpt>
      <trkpt lat="43.685599" lon="-7.459300">
        <ele>84.189</ele>
        <time>2019-06-19T17:23:48Z</time>
      </trkpt>
      <trkpt lat="43.685714" lon="-7.459460">
        <ele>82.317</ele>
        <time>2019-06-19T17:23:49Z</time>
      </trkpt>
      <trkpt lat="43.685811" lon="-7.459595">
        <ele>81.708</ele>
        <time>2019-06-19T17:23:50Z</time>
      </trkpt>
      <trkpt lat="43.685951" lon="-7.459792">
        <ele>83.211</ele>
        <time>2019-06-19T17:23:51Z</time>
      </trkpt>
      <trkpt lat="43.686076" lon="-7.459979">
        <ele>85.035</ele>
        <time>2019-06-19T17:23:52Z</time>
      </trkpt>
      <trkpt lat="43.686166" lon="-7.460148">
        <ele>85.136</ele>
        <time>2019-06-19T17:23:53Z</time>
      </trkpt>
      <trkpt lat="43.686256" lon="-7.460312">
        <ele>84.659</ele>
        <time>2019-06-19T17:23:54Z</time>
      </trkpt>
      <trkpt lat="43.686341" lon="-7.460494">
        <ele>83.829</ele>
        <time>2019-06-19T17:23:55Z</time>
      </trkpt>
      <trkpt lat="43.686431" lon="-7.460696">
        <ele>83.135</ele>
        <time>2019-06-19T17:23:56Z</time>
      </trkpt>
      <trkpt lat="43.686502" lon="-7.460895">
        <ele>84.023</ele>
        <time>2019-06-19T17:23:57Z</time>
      </trkpt>
      <trkpt lat="43.686569" lon="-7.461110">
        <ele>86.073</ele>
        <time>2019-06-19T17:23:58Z</time>
      </trkpt>
      <trkpt lat="43.686629" lon="-7.461335">
        <ele>88.594</ele>
        <time>2019-06-19T17:23:59Z</time>
      </trkpt>
      <trkpt lat="43.686685" lon="-7.461556">
        <ele>91.457</ele>
        <time>2019-06-19T17:24:00Z</time>
      </trkpt>
      <trkpt lat="43.686728" lon="-7.461781">
        <ele>94.222</ele>
        <time>2019-06-19T17:24:01Z</time>
      </trkpt>
      <trkpt lat="43.686759" lon="-7.461992">
        <ele>96.208</ele>
        <time>2019-06-19T17:24:02Z</time>
      </trkpt>
      <trkpt lat="43.686786" lon="-7.462191">
        <ele>97.742</ele>
        <time>2019-06-19T17:24:03Z</time>
      </trkpt>
      <trkpt lat="43.686808" lon="-7.462387">
        <ele>98.996</ele>
        <time>2019-06-19T17:24:04Z</time>
      </trkpt>
      <trkpt lat="43.686824" lon="-7.462585">
        <ele>99.537</ele>
        <time>2019-06-19T17:24:05Z</time>
      </trkpt>
      <trkpt lat="43.686832" lon="-7.462783">
        <ele>99.660</ele>
        <time>2019-06-19T17:24:06Z</time>
      </trkpt>
      <trkpt lat="43.686836" lon="-7.462965">
        <ele>97.430</ele>
        <time>2019-06-19T17:24:07Z</time>
      </trkpt>
      <trkpt lat="43.686827" lon="-7.463132">
        <ele>96.526</ele>
        <time>2019-06-19T17:24:08Z</time>
      </trkpt>
      <trkpt lat="43.686832" lon="-7.463295">
        <ele>95.534</ele>
        <time>2019-06-19T17:24:09Z</time>
      </trkpt>
      <trkpt lat="43.686829" lon="-7.463446">
        <ele>95.264</ele>
        <time>2019-06-19T17:24:10Z</time>
      </trkpt>
      <trkpt lat="43.686816" lon="-7.463554">
        <ele>95.457</ele>
        <time>2019-06-19T17:24:11Z</time>
      </trkpt>
      <trkpt lat="43.686824" lon="-7.463659">
        <ele>94.800</ele>
        <time>2019-06-19T17:24:12Z</time>
      </trkpt>
      <trkpt lat="43.686856" lon="-7.463764">
        <ele>93.720</ele>
        <time>2019-06-19T17:24:13Z</time>
      </trkpt>
      <trkpt lat="43.686890" lon="-7.463835">
        <ele>92.908</ele>
        <time>2019-06-19T17:24:14Z</time>
      </trkpt>
      <trkpt lat="43.686938" lon="-7.463885">
        <ele>92.198</ele>
        <time>2019-06-19T17:24:15Z</time>
      </trkpt>
      <trkpt lat="43.686990" lon="-7.463925">
        <ele>92.122</ele>
        <time>2019-06-19T17:24:16Z</time>
      </trkpt>
      <trkpt lat="43.687039" lon="-7.463923">
        <ele>92.173</ele>
        <time>2019-06-19T17:24:17Z</time>
      </trkpt>
      <trkpt lat="43.687101" lon="-7.463916">
        <ele>92.116</ele>
        <time>2019-06-19T17:24:18Z</time>
      </trkpt>
      <trkpt lat="43.687156" lon="-7.463885">
        <ele>92.036</ele>
        <time>2019-06-19T17:24:19Z</time>
      </trkpt>
      <trkpt lat="43.687214" lon="-7.463828">
        <ele>91.142</ele>
        <time>2019-06-19T17:24:20Z</time>
      </trkpt>
      <trkpt lat="43.687275" lon="-7.463737">
        <ele>89.870</ele>
        <time>2019-06-19T17:24:21Z</time>
      </trkpt>
      <trkpt lat="43.687358" lon="-7.463634">
        <ele>89.140</ele>
        <time>2019-06-19T17:24:22Z</time>
      </trkpt>
      <trkpt lat="43.687454" lon="-7.463511">
        <ele>88.972</ele>
        <time>2019-06-19T17:24:23Z</time>
      </trkpt>
      <trkpt lat="43.687553" lon="-7.463368">
        <ele>88.213</ele>
        <time>2019-06-19T17:24:24Z</time>
      </trkpt>
      <trkpt lat="43.687669" lon="-7.463216">
        <ele>87.414</ele>
        <time>2019-06-19T17:24:25Z</time>
      </trkpt>
      <trkpt lat="43.687778" lon="-7.463054">
        <ele>87.008</ele>
        <time>2019-06-19T17:24:26Z</time>
      </trkpt>
      <trkpt lat="43.687881" lon="-7.462891">
        <ele>86.860</ele>
        <time>2019-06-19T17:24:27Z</time>
      </trkpt>
      <trkpt lat="43.687988" lon="-7.462730">
        <ele>87.474</ele>
        <time>2019-06-19T17:24:28Z</time>
      </trkpt>
      <trkpt lat="43.688100" lon="-7.462569">
        <ele>89.345</ele>
        <time>2019-06-19T17:24:29Z</time>
      </trkpt>
      <trkpt lat="43.688213" lon="-7.462405">
        <ele>90.758</ele>
        <time>2019-06-19T17:24:30Z</time>
      </trkpt>
      <trkpt lat="43.688315" lon="-7.462240">
        <ele>91.098</ele>
        <time>2019-06-19T17:24:31Z</time>
      </trkpt>
      <trkpt lat="43.688416" lon="-7.462073">
        <ele>90.624</ele>
        <time>2019-06-19T17:24:32Z</time>
      </trkpt>
      <trkpt lat="43.688523" lon="-7.461923">
        <ele>89.922</ele>
        <time>2019-06-19T17:24:33Z</time>
      </trkpt>
      <trkpt lat="43.688633" lon="-7.461775">
        <ele>89.882</ele>
        <time>2019-06-19T17:24:34Z</time>
      </trkpt>
      <trkpt lat="43.688747" lon="-7.461617">
        <ele>91.429</ele>
        <time>2019-06-19T17:24:35Z</time>
      </trkpt>
      <trkpt lat="43.688860" lon="-7.461459">
        <ele>92.800</ele>
        <time>2019-06-19T17:24:36Z</time>
      </trkpt>
      <trkpt lat="43.688970" lon="-7.461316">
        <ele>93.220</ele>
        <time>2019-06-19T17:24:37Z</time>
      </trkpt>
      <trkpt lat="43.689070" lon="-7.461186">
        <ele>92.508</ele>
        <time>2019-06-19T17:24:38Z</time>
      </trkpt>
      <trkpt lat="43.689175" lon="-7.461042">
        <ele>91.275</ele>
        <time>2019-06-19T17:24:39Z</time>
      </trkpt>
      <trkpt lat="43.689280" lon="-7.460894">
        <ele>89.429</ele>
        <time>2019-06-19T17:24:40Z</time>
      </trkpt>
      <trkpt lat="43.689379" lon="-7.460750">
        <ele>88.330</ele>
        <time>2019-06-19T17:24:41Z</time>
      </trkpt>
      <trkpt lat="43.689485" lon="-7.460619">
        <ele>87.083</ele>
        <time>2019-06-19T17:24:42Z</time>
      </trkpt>
      <trkpt lat="43.689598" lon="-7.460493">
        <ele>85.633</ele>
        <time>2019-06-19T17:24:43Z</time>
      </trkpt>
      <trkpt lat="43.689717" lon="-7.460379">
        <ele>84.429</ele>
        <time>2019-06-19T17:24:44Z</time>
      </trkpt>
      <trkpt lat="43.689853" lon="-7.460278">
        <ele>83.527</ele>
        <time>2019-06-19T17:24:45Z</time>
      </trkpt>
      <trkpt lat="43.689994" lon="-7.460195">
        <ele>82.437</ele>
        <time>2019-06-19T17:24:46Z</time>
      </trkpt>
      <trkpt lat="43.690135" lon="-7.460123">
        <ele>80.133</ele>
        <time>2019-06-19T17:24:47Z</time>
      </trkpt>
      <trkpt lat="43.690275" lon="-7.460053">
        <ele>77.023</ele>
        <time>2019-06-19T17:24:48Z</time>
      </trkpt>
      <trkpt lat="43.690415" lon="-7.459983">
        <ele>70.915</ele>
        <time>2019-06-19T17:24:49Z</time>
      </trkpt>
      <trkpt lat="43.690557" lon="-7.459914">
        <ele>65.108</ele>
        <time>2019-06-19T17:24:50Z</time>
      </trkpt>
      <trkpt lat="43.690692" lon="-7.459843">
        <ele>64.276</ele>
        <time>2019-06-19T17:24:51Z</time>
      </trkpt>
      <trkpt lat="43.690827" lon="-7.459776">
        <ele>64.030</ele>
        <time>2019-06-19T17:24:52Z</time>
      </trkpt>
      <trkpt lat="43.690967" lon="-7.459726">
        <ele>64.041</ele>
        <time>2019-06-19T17:24:53Z</time>
      </trkpt>
      <trkpt lat="43.691099" lon="-7.459658">
        <ele>64.794</ele>
        <time>2019-06-19T17:24:54Z</time>
      </trkpt>
      <trkpt lat="43.691228" lon="-7.459591">
        <ele>64.844</ele>
        <time>2019-06-19T17:24:55Z</time>
      </trkpt>
      <trkpt lat="43.691347" lon="-7.459515">
        <ele>64.360</ele>
        <time>2019-06-19T17:24:56Z</time>
      </trkpt>
      <trkpt lat="43.691469" lon="-7.459426">
        <ele>62.988</ele>
        <time>2019-06-19T17:24:57Z</time>
      </trkpt>
      <trkpt lat="43.691601" lon="-7.459347">
        <ele>61.378</ele>
        <time>2019-06-19T17:24:58Z</time>
      </trkpt>
      <trkpt lat="43.691719" lon="-7.459259">
        <ele>59.477</ele>
        <time>2019-06-19T17:24:59Z</time>
      </trkpt>
      <trkpt lat="43.691837" lon="-7.459163">
        <ele>56.761</ele>
        <time>2019-06-19T17:25:00Z</time>
      </trkpt>
      <trkpt lat="43.691950" lon="-7.459038">
        <ele>53.927</ele>
        <time>2019-06-19T17:25:01Z</time>
      </trkpt>
      <trkpt lat="43.692060" lon="-7.458902">
        <ele>53.108</ele>
        <time>2019-06-19T17:25:02Z</time>
      </trkpt>
      <trkpt lat="43.692145" lon="-7.458743">
        <ele>53.530</ele>
        <time>2019-06-19T17:25:03Z</time>
      </trkpt>
      <trkpt lat="43.692242" lon="-7.458575">
        <ele>53.224</ele>
        <time>2019-06-19T17:25:04Z</time>
      </trkpt>
      <trkpt lat="43.692331" lon="-7.458386">
        <ele>54.025</ele>
        <time>2019-06-19T17:25:05Z</time>
      </trkpt>
      <trkpt lat="43.692409" lon="-7.458196">
        <ele>54.168</ele>
        <time>2019-06-19T17:25:06Z</time>
      </trkpt>
      <trkpt lat="43.692470" lon="-7.458004">
        <ele>54.298</ele>
        <time>2019-06-19T17:25:07Z</time>
      </trkpt>
      <trkpt lat="43.692533" lon="-7.457816">
        <ele>53.594</ele>
        <time>2019-06-19T17:25:08Z</time>
      </trkpt>
      <trkpt lat="43.692607" lon="-7.457629">
        <ele>51.942</ele>
        <time>2019-06-19T17:25:09Z</time>
      </trkpt>
      <trkpt lat="43.692678" lon="-7.457445">
        <ele>50.432</ele>
        <time>2019-06-19T17:25:10Z</time>
      </trkpt>
      <trkpt lat="43.692740" lon="-7.457262">
        <ele>49.571</ele>
        <time>2019-06-19T17:25:11Z</time>
      </trkpt>
      <trkpt lat="43.692799" lon="-7.457068">
        <ele>48.441</ele>
        <time>2019-06-19T17:25:12Z</time>
      </trkpt>
      <trkpt lat="43.692852" lon="-7.456872">
        <ele>47.415</ele>
        <time>2019-06-19T17:25:13Z</time>
      </trkpt>
      <trkpt lat="43.692895" lon="-7.456683">
        <ele>46.208</ele>
        <time>2019-06-19T17:25:14Z</time>
      </trkpt>
      <trkpt lat="43.692939" lon="-7.456491">
        <ele>44.830</ele>
        <time>2019-06-19T17:25:15Z</time>
      </trkpt>
      <trkpt lat="43.692974" lon="-7.456302">
        <ele>43.394</ele>
        <time>2019-06-19T17:25:16Z</time>
      </trkpt>
      <trkpt lat="43.693006" lon="-7.456112">
        <ele>41.745</ele>
        <time>2019-06-19T17:25:17Z</time>
      </trkpt>
      <trkpt lat="43.693032" lon="-7.455918">
        <ele>39.398</ele>
        <time>2019-06-19T17:25:18Z</time>
      </trkpt>
      <trkpt lat="43.693055" lon="-7.455730">
        <ele>36.918</ele>
        <time>2019-06-19T17:25:19Z</time>
      </trkpt>
      <trkpt lat="43.693077" lon="-7.455536">
        <ele>34.464</ele>
        <time>2019-06-19T17:25:20Z</time>
      </trkpt>
      <trkpt lat="43.693077" lon="-7.455366">
        <ele>32.692</ele>
        <time>2019-06-19T17:25:21Z</time>
      </trkpt>
      <trkpt lat="43.693084" lon="-7.455175">
        <ele>30.522</ele>
        <time>2019-06-19T17:25:22Z</time>
      </trkpt>
      <trkpt lat="43.693085" lon="-7.454989">
        <ele>28.671</ele>
        <time>2019-06-19T17:25:23Z</time>
      </trkpt>
      <trkpt lat="43.693090" lon="-7.454806">
        <ele>26.341</ele>
        <time>2019-06-19T17:25:24Z</time>
      </trkpt>
      <trkpt lat="43.693090" lon="-7.454636">
        <ele>25.015</ele>
        <time>2019-06-19T17:25:25Z</time>
      </trkpt>
      <trkpt lat="43.693083" lon="-7.454478">
        <ele>24.508</ele>
        <time>2019-06-19T17:25:26Z</time>
      </trkpt>
      <trkpt lat="43.693081" lon="-7.454323">
        <ele>24.080</ele>
        <time>2019-06-19T17:25:27Z</time>
      </trkpt>
      <trkpt lat="43.693074" lon="-7.454173">
        <ele>23.414</ele>
        <time>2019-06-19T17:25:28Z</time>
      </trkpt>
      <trkpt lat="43.693063" lon="-7.454026">
        <ele>23.615</ele>
        <time>2019-06-19T17:25:29Z</time>
      </trkpt>
      <trkpt lat="43.693039" lon="-7.453874">
        <ele>23.988</ele>
        <time>2019-06-19T17:25:30Z</time>
      </trkpt>
      <trkpt lat="43.692984" lon="-7.453791">
        <ele>23.558</ele>
        <time>2019-06-19T17:25:31Z</time>
      </trkpt>
      <trkpt lat="43.692935" lon="-7.453674">
        <ele>23.194</ele>
        <time>2019-06-19T17:25:32Z</time>
      </trkpt>
      <trkpt lat="43.692882" lon="-7.453554">
        <ele>22.372</ele>
        <time>2019-06-19T17:25:33Z</time>
      </trkpt>
      <trkpt lat="43.692843" lon="-7.453425">
        <ele>21.332</ele>
        <time>2019-06-19T17:25:34Z</time>
      </trkpt>
      <trkpt lat="43.692804" lon="-7.453287">
        <ele>20.486</ele>
        <time>2019-06-19T17:25:35Z</time>
      </trkpt>
      <trkpt lat="43.692802" lon="-7.453118">
        <ele>20.360</ele>
        <time>2019-06-19T17:25:36Z</time>
      </trkpt>
      <trkpt lat="43.692799" lon="-7.452953">
        <ele>20.026</ele>
        <time>2019-06-19T17:25:37Z</time>
      </trkpt>
      <trkpt lat="43.692808" lon="-7.452774">
        <ele>19.508</ele>
        <time>2019-06-19T17:25:38Z</time>
      </trkpt>
      <trkpt lat="43.692819" lon="-7.452583">
        <ele>19.571</ele>
        <time>2019-06-19T17:25:39Z</time>
      </trkpt>
      <trkpt lat="43.692844" lon="-7.452392">
        <ele>19.295</ele>
        <time>2019-06-19T17:25:40Z</time>
      </trkpt>
      <trkpt lat="43.692877" lon="-7.452190">
        <ele>18.636</ele>
        <time>2019-06-19T17:25:41Z</time>
      </trkpt>
      <trkpt lat="43.692904" lon="-7.451983">
        <ele>18.129</ele>
        <time>2019-06-19T17:25:42Z</time>
      </trkpt>
      <trkpt lat="43.692933" lon="-7.451781">
        <ele>17.769</ele>
        <time>2019-06-19T17:25:43Z</time>
      </trkpt>
      <trkpt lat="43.692942" lon="-7.451595">
        <ele>17.245</ele>
        <time>2019-06-19T17:25:44Z</time>
      </trkpt>
      <trkpt lat="43.692965" lon="-7.451400">
        <ele>16.433</ele>
        <time>2019-06-19T17:25:45Z</time>
      </trkpt>
      <trkpt lat="43.692995" lon="-7.451226">
        <ele>17.023</ele>
        <time>2019-06-19T17:25:46Z</time>
      </trkpt>
      <trkpt lat="43.693018" lon="-7.451066">
        <ele>17.442</ele>
        <time>2019-06-19T17:25:47Z</time>
      </trkpt>
      <trkpt lat="43.693053" lon="-7.450907">
        <ele>17.222</ele>
        <time>2019-06-19T17:25:48Z</time>
      </trkpt>
      <trkpt lat="43.693100" lon="-7.450768">
        <ele>17.414</ele>
        <time>2019-06-19T17:25:49Z</time>
      </trkpt>
      <trkpt lat="43.693144" lon="-7.450631">
        <ele>17.308</ele>
        <time>2019-06-19T17:25:50Z</time>
      </trkpt>
      <trkpt lat="43.693192" lon="-7.450494">
        <ele>16.957</ele>
        <time>2019-06-19T17:25:51Z</time>
      </trkpt>
      <trkpt lat="43.693230" lon="-7.450353">
        <ele>16.251</ele>
        <time>2019-06-19T17:25:52Z</time>
      </trkpt>
      <trkpt lat="43.693272" lon="-7.450212">
        <ele>16.152</ele>
        <time>2019-06-19T17:25:53Z</time>
      </trkpt>
      <trkpt lat="43.693301" lon="-7.450081">
        <ele>16.595</ele>
        <time>2019-06-19T17:25:54Z</time>
      </trkpt>
      <trkpt lat="43.693330" lon="-7.449940">
        <ele>16.925</ele>
        <time>2019-06-19T17:25:55Z</time>
      </trkpt>
      <trkpt lat="43.693358" lon="-7.449789">
        <ele>17.061</ele>
        <time>2019-06-19T17:25:56Z</time>
      </trkpt>
      <trkpt lat="43.693382" lon="-7.449643">
        <ele>15.699</ele>
        <time>2019-06-19T17:25:57Z</time>
      </trkpt>
      <trkpt lat="43.693412" lon="-7.449503">
        <ele>13.399</ele>
        <time>2019-06-19T17:25:58Z</time>
      </trkpt>
      <trkpt lat="43.693426" lon="-7.449365">
        <ele>11.061</ele>
        <time>2019-06-19T17:25:59Z</time>
      </trkpt>
      <trkpt lat="43.693464" lon="-7.449227">
        <ele>8.921</ele>
        <time>2019-06-19T17:26:00Z</time>
      </trkpt>
      <trkpt lat="43.693501" lon="-7.449092">
        <ele>7.213</ele>
        <time>2019-06-19T17:26:01Z</time>
      </trkpt>
      <trkpt lat="43.693545" lon="-7.448961">
        <ele>5.708</ele>
        <time>2019-06-19T17:26:02Z</time>
      </trkpt>
      <trkpt lat="43.693594" lon="-7.448834">
        <ele>4.769</ele>
        <time>2019-06-19T17:26:03Z</time>
      </trkpt>
      <trkpt lat="43.693639" lon="-7.448712">
        <ele>4.763</ele>
        <time>2019-06-19T17:26:04Z</time>
      </trkpt>
      <trkpt lat="43.693680" lon="-7.448593">
        <ele>4.824</ele>
        <time>2019-06-19T17:26:05Z</time>
      </trkpt>
      <trkpt lat="43.693724" lon="-7.448482">
        <ele>5.537</ele>
        <time>2019-06-19T17:26:06Z</time>
      </trkpt>
      <trkpt lat="43.693767" lon="-7.448373">
        <ele>6.117</ele>
        <time>2019-06-19T17:26:07Z</time>
      </trkpt>
      <trkpt lat="43.693809" lon="-7.448267">
        <ele>6.353</ele>
        <time>2019-06-19T17:26:08Z</time>
      </trkpt>
      <trkpt lat="43.693840" lon="-7.448172">
        <ele>6.251</ele>
        <time>2019-06-19T17:26:09Z</time>
      </trkpt>
      <trkpt lat="43.693868" lon="-7.448083">
        <ele>6.031</ele>
        <time>2019-06-19T17:26:10Z</time>
      </trkpt>
      <trkpt lat="43.693888" lon="-7.448000">
        <ele>6.021</ele>
        <time>2019-06-19T17:26:11Z</time>
      </trkpt>
      <trkpt lat="43.693904" lon="-7.447908">
        <ele>6.041</ele>
        <time>2019-06-19T17:26:12Z</time>
      </trkpt>
      <trkpt lat="43.693903" lon="-7.447839">
        <ele>6.005</ele>
        <time>2019-06-19T17:26:13Z</time>
      </trkpt>
      <trkpt lat="43.693905" lon="-7.447758">
        <ele>5.908</ele>
        <time>2019-06-19T17:26:14Z</time>
      </trkpt>
      <trkpt lat="43.693896" lon="-7.447673">
        <ele>5.365</ele>
        <time>2019-06-19T17:26:15Z</time>
      </trkpt>
      <trkpt lat="43.693868" lon="-7.447591">
        <ele>4.779</ele>
        <time>2019-06-19T17:26:16Z</time>
      </trkpt>
      <trkpt lat="43.693824" lon="-7.447497">
        <ele>4.580</ele>
        <time>2019-06-19T17:26:17Z</time>
      </trkpt>
      <trkpt lat="43.693755" lon="-7.447405">
        <ele>4.613</ele>
        <time>2019-06-19T17:26:18Z</time>
      </trkpt>
      <trkpt lat="43.693673" lon="-7.447316">
        <ele>4.933</ele>
        <time>2019-06-19T17:26:19Z</time>
      </trkpt>
      <trkpt lat="43.693578" lon="-7.447245">
        <ele>5.479</ele>
        <time>2019-06-19T17:26:20Z</time>
      </trkpt>
      <trkpt lat="43.693484" lon="-7.447166">
        <ele>6.347</ele>
        <time>2019-06-19T17:26:21Z</time>
      </trkpt>
      <trkpt lat="43.693399" lon="-7.447085">
        <ele>6.977</ele>
        <time>2019-06-19T17:26:22Z</time>
      </trkpt>
      <trkpt lat="43.693323" lon="-7.446995">
        <ele>7.217</ele>
        <time>2019-06-19T17:26:23Z</time>
      </trkpt>
      <trkpt lat="43.693259" lon="-7.446902">
        <ele>7.087</ele>
        <time>2019-06-19T17:26:24Z</time>
      </trkpt>
      <trkpt lat="43.693221" lon="-7.446810">
        <ele>6.515</ele>
        <time>2019-06-19T17:26:25Z</time>
      </trkpt>
      <trkpt lat="43.693197" lon="-7.446716">
        <ele>5.908</ele>
        <time>2019-06-19T17:26:26Z</time>
      </trkpt>
      <trkpt lat="43.693186" lon="-7.446616">
        <ele>5.444</ele>
        <time>2019-06-19T17:26:27Z</time>
      </trkpt>
      <trkpt lat="43.693181" lon="-7.446510">
        <ele>5.338</ele>
        <time>2019-06-19T17:26:28Z</time>
      </trkpt>
      <trkpt lat="43.693199" lon="-7.446375">
        <ele>5.089</ele>
        <time>2019-06-19T17:26:29Z</time>
      </trkpt>
      <trkpt lat="43.693192" lon="-7.446237">
        <ele>5.132</ele>
        <time>2019-06-19T17:26:30Z</time>
      </trkpt>
      <trkpt lat="43.693195" lon="-7.446103">
        <ele>5.072</ele>
        <time>2019-06-19T17:26:31Z</time>
      </trkpt>
      <trkpt lat="43.693201" lon="-7.445960">
        <ele>5.968</ele>
        <time>2019-06-19T17:26:32Z</time>
      </trkpt>
      <trkpt lat="43.693206" lon="-7.445813">
        <ele>6.866</ele>
        <time>2019-06-19T17:26:33Z</time>
      </trkpt>
      <trkpt lat="43.693214" lon="-7.445663">
        <ele>7.836</ele>
        <time>2019-06-19T17:26:34Z</time>
      </trkpt>
      <trkpt lat="43.693220" lon="-7.445518">
        <ele>8.697</ele>
        <time>2019-06-19T17:26:35Z</time>
      </trkpt>
      <trkpt lat="43.693230" lon="-7.445370">
        <ele>9.123</ele>
        <time>2019-06-19T17:26:36Z</time>
      </trkpt>
      <trkpt lat="43.693240" lon="-7.445220">
        <ele>9.125</ele>
        <time>2019-06-19T17:26:37Z</time>
      </trkpt>
      <trkpt lat="43.693261" lon="-7.445078">
        <ele>8.108</ele>
        <time>2019-06-19T17:26:38Z</time>
      </trkpt>
      <trkpt lat="43.693272" lon="-7.444933">
        <ele>7.242</ele>
        <time>2019-06-19T17:26:39Z</time>
      </trkpt>
      <trkpt lat="43.693280" lon="-7.444782">
        <ele>6.096</ele>
        <time>2019-06-19T17:26:40Z</time>
      </trkpt>
      <trkpt lat="43.693290" lon="-7.444664">
        <ele>5.337</ele>
        <time>2019-06-19T17:26:41Z</time>
      </trkpt>
      <trkpt lat="43.693301" lon="-7.444544">
        <ele>4.760</ele>
        <time>2019-06-19T17:26:42Z</time>
      </trkpt>
      <trkpt lat="43.693285" lon="-7.444429">
        <ele>4.560</ele>
        <time>2019-06-19T17:26:43Z</time>
      </trkpt>
      <trkpt lat="43.693295" lon="-7.444316">
        <ele>4.436</ele>
        <time>2019-06-19T17:26:44Z</time>
      </trkpt>
      <trkpt lat="43.693300" lon="-7.444216">
        <ele>4.444</ele>
        <time>2019-06-19T17:26:45Z</time>
      </trkpt>
      <trkpt lat="43.693307" lon="-7.444119">
        <ele>4.334</ele>
        <time>2019-06-19T17:26:46Z</time>
      </trkpt>
      <trkpt lat="43.693328" lon="-7.444035">
        <ele>4.151</ele>
        <time>2019-06-19T17:26:47Z</time>
      </trkpt>
      <trkpt lat="43.693339" lon="-7.443949">
        <ele>4.001</ele>
        <time>2019-06-19T17:26:48Z</time>
      </trkpt>
      <trkpt lat="43.693378" lon="-7.443870">
        <ele>3.911</ele>
        <time>2019-06-19T17:26:49Z</time>
      </trkpt>
      <trkpt lat="43.693421" lon="-7.443779">
        <ele>4.108</ele>
        <time>2019-06-19T17:26:50Z</time>
      </trkpt>
      <trkpt lat="43.693469" lon="-7.443704">
        <ele>4.218</ele>
        <time>2019-06-19T17:26:51Z</time>
      </trkpt>
      <trkpt lat="43.693523" lon="-7.443623">
        <ele>4.362</ele>
        <time>2019-06-19T17:26:52Z</time>
      </trkpt>
      <trkpt lat="43.693566" lon="-7.443546">
        <ele>4.693</ele>
        <time>2019-06-19T17:26:53Z</time>
      </trkpt>
      <trkpt lat="43.693613" lon="-7.443468">
        <ele>5.056</ele>
        <time>2019-06-19T17:26:54Z</time>
      </trkpt>
      <trkpt lat="43.693690" lon="-7.443383">
        <ele>5.476</ele>
        <time>2019-06-19T17:26:55Z</time>
      </trkpt>
      <trkpt lat="43.693743" lon="-7.443314">
        <ele>5.682</ele>
        <time>2019-06-19T17:26:56Z</time>
      </trkpt>
      <trkpt lat="43.693785" lon="-7.443238">
        <ele>5.720</ele>
        <time>2019-06-19T17:26:57Z</time>
      </trkpt>
      <trkpt lat="43.693828" lon="-7.443175">
        <ele>5.820</ele>
        <time>2019-06-19T17:26:58Z</time>
      </trkpt>
      <trkpt lat="43.693854" lon="-7.443114">
        <ele>5.959</ele>
        <time>2019-06-19T17:27:00Z</time>
      </trkpt>
      <trkpt lat="43.693891" lon="-7.443063">
        <ele>6.003</ele>
        <time>2019-06-19T17:27:17Z</time>
      </trkpt>
      <trkpt lat="43.693939" lon="-7.443069">
        <ele>6.023</ele>
        <time>2019-06-19T17:28:05Z</time>
      </trkpt>
      <trkpt lat="43.694001" lon="-7.443016">
        <ele>6.108</ele>
        <time>2019-06-19T17:28:19Z</time>
      </trkpt>
      <trkpt lat="43.694037" lon="-7.442970">
        <ele>6.318</ele>
        <time>2019-06-19T17:28:20Z</time>
      </trkpt>
      <trkpt lat="43.694078" lon="-7.442910">
        <ele>6.522</ele>
        <time>2019-06-19T17:28:21Z</time>
      </trkpt>
      <trkpt lat="43.694122" lon="-7.442841">
        <ele>6.833</ele>
        <time>2019-06-19T17:28:22Z</time>
      </trkpt>
      <trkpt lat="43.694155" lon="-7.442754">
        <ele>7.186</ele>
        <time>2019-06-19T17:28:23Z</time>
      </trkpt>
      <trkpt lat="43.694195" lon="-7.442693">
        <ele>7.496</ele>
        <time>2019-06-19T17:28:24Z</time>
      </trkpt>
      <trkpt lat="43.694223" lon="-7.442622">
        <ele>7.992</ele>
        <time>2019-06-19T17:28:25Z</time>
      </trkpt>
      <trkpt lat="43.694261" lon="-7.442567">
        <ele>8.460</ele>
        <time>2019-06-19T17:28:26Z</time>
      </trkpt>
      <trkpt lat="43.694303" lon="-7.442523">
        <ele>8.970</ele>
        <time>2019-06-19T17:28:27Z</time>
      </trkpt>
      <trkpt lat="43.694347" lon="-7.442487">
        <ele>9.375</ele>
        <time>2019-06-19T17:28:28Z</time>
      </trkpt>
      <trkpt lat="43.694392" lon="-7.442475">
        <ele>9.628</ele>
        <time>2019-06-19T17:28:29Z</time>
      </trkpt>
      <trkpt lat="43.694440" lon="-7.442470">
        <ele>10.020</ele>
        <time>2019-06-19T17:28:30Z</time>
      </trkpt>
      <trkpt lat="43.694508" lon="-7.442473">
        <ele>10.008</ele>
        <time>2019-06-19T17:28:31Z</time>
      </trkpt>
      <trkpt lat="43.694564" lon="-7.442472">
        <ele>10.010</ele>
        <time>2019-06-19T17:28:32Z</time>
      </trkpt>
      <trkpt lat="43.694638" lon="-7.442442">
        <ele>10.034</ele>
        <time>2019-06-19T17:28:33Z</time>
      </trkpt>
      <trkpt lat="43.694715" lon="-7.442411">
        <ele>10.095</ele>
        <time>2019-06-19T17:28:34Z</time>
      </trkpt>
      <trkpt lat="43.694750" lon="-7.442343">
        <ele>10.058</ele>
        <time>2019-06-19T17:28:35Z</time>
      </trkpt>
      <trkpt lat="43.694814" lon="-7.442291">
        <ele>10.158</ele>
        <time>2019-06-19T17:28:36Z</time>
      </trkpt>
      <trkpt lat="43.694870" lon="-7.442229">
        <ele>10.014</ele>
        <time>2019-06-19T17:28:37Z</time>
      </trkpt>
      <trkpt lat="43.694927" lon="-7.442168">
        <ele>10.232</ele>
        <time>2019-06-19T17:28:38Z</time>
      </trkpt>
      <trkpt lat="43.694991" lon="-7.442108">
        <ele>10.492</ele>
        <time>2019-06-19T17:28:39Z</time>
      </trkpt>
      <trkpt lat="43.695073" lon="-7.442058">
        <ele>10.399</ele>
        <time>2019-06-19T17:28:40Z</time>
      </trkpt>
      <trkpt lat="43.695149" lon="-7.442005">
        <ele>9.907</ele>
        <time>2019-06-19T17:28:41Z</time>
      </trkpt>
      <trkpt lat="43.695208" lon="-7.441948">
        <ele>9.527</ele>
        <time>2019-06-19T17:28:42Z</time>
      </trkpt>
      <trkpt lat="43.695269" lon="-7.441898">
        <ele>9.108</ele>
        <time>2019-06-19T17:28:43Z</time>
      </trkpt>
      <trkpt lat="43.695330" lon="-7.441854">
        <ele>8.882</ele>
        <time>2019-06-19T17:28:44Z</time>
      </trkpt>
      <trkpt lat="43.695397" lon="-7.441805">
        <ele>8.466</ele>
        <time>2019-06-19T17:28:45Z</time>
      </trkpt>
      <trkpt lat="43.695419" lon="-7.441738">
        <ele>8.147</ele>
        <time>2019-06-19T17:28:46Z</time>
      </trkpt>
      <trkpt lat="43.695463" lon="-7.441701">
        <ele>7.790</ele>
        <time>2019-06-19T17:28:47Z</time>
      </trkpt>
      <trkpt lat="43.695516" lon="-7.441658">
        <ele>7.360</ele>
        <time>2019-06-19T17:28:48Z</time>
      </trkpt>
      <trkpt lat="43.695572" lon="-7.441625">
        <ele>7.376</ele>
        <time>2019-06-19T17:28:49Z</time>
      </trkpt>
      <trkpt lat="43.695632" lon="-7.441580">
        <ele>8.054</ele>
        <time>2019-06-19T17:28:50Z</time>
      </trkpt>
      <trkpt lat="43.695689" lon="-7.441529">
        <ele>8.554</ele>
        <time>2019-06-19T17:28:51Z</time>
      </trkpt>
      <trkpt lat="43.695760" lon="-7.441470">
        <ele>8.981</ele>
        <time>2019-06-19T17:28:52Z</time>
      </trkpt>
      <trkpt lat="43.695831" lon="-7.441415">
        <ele>9.161</ele>
        <time>2019-06-19T17:28:53Z</time>
      </trkpt>
      <trkpt lat="43.695885" lon="-7.441367">
        <ele>9.217</ele>
        <time>2019-06-19T17:28:54Z</time>
      </trkpt>
      <trkpt lat="43.695936" lon="-7.441321">
        <ele>9.508</ele>
        <time>2019-06-19T17:28:55Z</time>
      </trkpt>
      <trkpt lat="43.695977" lon="-7.441283">
        <ele>9.751</ele>
        <time>2019-06-19T17:28:56Z</time>
      </trkpt>
      <trkpt lat="43.696016" lon="-7.441247">
        <ele>9.875</ele>
        <time>2019-06-19T17:28:57Z</time>
      </trkpt>
      <trkpt lat="43.696052" lon="-7.441200">
        <ele>9.996</ele>
        <time>2019-06-19T17:28:58Z</time>
      </trkpt>
      <trkpt lat="43.696096" lon="-7.441120">
        <ele>10.069</ele>
        <time>2019-06-19T17:29:00Z</time>
      </trkpt>
      <trkpt lat="43.696139" lon="-7.441074">
        <ele>9.859</ele>
        <time>2019-06-19T17:29:02Z</time>
      </trkpt>
      <trkpt lat="43.696164" lon="-7.441012">
        <ele>9.765</ele>
        <time>2019-06-19T17:29:08Z</time>
      </trkpt>
      <trkpt lat="43.696200" lon="-7.440971">
        <ele>9.553</ele>
        <time>2019-06-19T17:29:10Z</time>
      </trkpt>
      <trkpt lat="43.696254" lon="-7.440921">
        <ele>9.323</ele>
        <time>2019-06-19T17:29:12Z</time>
      </trkpt>
      <trkpt lat="43.696304" lon="-7.440842">
        <ele>9.587</ele>
        <time>2019-06-19T17:29:13Z</time>
      </trkpt>
      <trkpt lat="43.696344" lon="-7.440788">
        <ele>9.642</ele>
        <time>2019-06-19T17:29:14Z</time>
      </trkpt>
      <trkpt lat="43.696389" lon="-7.440712">
        <ele>9.926</ele>
        <time>2019-06-19T17:29:15Z</time>
      </trkpt>
      <trkpt lat="43.696446" lon="-7.440658">
        <ele>10.108</ele>
        <time>2019-06-19T17:29:16Z</time>
      </trkpt>
      <trkpt lat="43.696494" lon="-7.440609">
        <ele>10.551</ele>
        <time>2019-06-19T17:29:17Z</time>
      </trkpt>
      <trkpt lat="43.696536" lon="-7.440557">
        <ele>11.045</ele>
        <time>2019-06-19T17:29:18Z</time>
      </trkpt>
      <trkpt lat="43.696555" lon="-7.440496">
        <ele>11.346</ele>
        <time>2019-06-19T17:29:19Z</time>
      </trkpt>
      <trkpt lat="43.696618" lon="-7.440413">
        <ele>11.669</ele>
        <time>2019-06-19T17:29:21Z</time>
      </trkpt>
      <trkpt lat="43.696651" lon="-7.440318">
        <ele>11.919</ele>
        <time>2019-06-19T17:29:23Z</time>
      </trkpt>
      <trkpt lat="43.696673" lon="-7.440252">
        <ele>11.955</ele>
        <time>2019-06-19T17:29:24Z</time>
      </trkpt>
      <trkpt lat="43.696697" lon="-7.440171">
        <ele>11.713</ele>
        <time>2019-06-19T17:29:25Z</time>
      </trkpt>
      <trkpt lat="43.696717" lon="-7.440079">
        <ele>11.633</ele>
        <time>2019-06-19T17:29:26Z</time>
      </trkpt>
      <trkpt lat="43.696743" lon="-7.439991">
        <ele>11.478</ele>
        <time>2019-06-19T17:29:27Z</time>
      </trkpt>
      <trkpt lat="43.696786" lon="-7.439914">
        <ele>10.733</ele>
        <time>2019-06-19T17:29:28Z</time>
      </trkpt>
      <trkpt lat="43.696835" lon="-7.439849">
        <ele>10.026</ele>
        <time>2019-06-19T17:29:29Z</time>
      </trkpt>
      <trkpt lat="43.696898" lon="-7.439795">
        <ele>9.508</ele>
        <time>2019-06-19T17:29:30Z</time>
      </trkpt>
      <trkpt lat="43.696967" lon="-7.439749">
        <ele>9.060</ele>
        <time>2019-06-19T17:29:31Z</time>
      </trkpt>
      <trkpt lat="43.697037" lon="-7.439702">
        <ele>8.584</ele>
        <time>2019-06-19T17:29:32Z</time>
      </trkpt>
      <trkpt lat="43.697114" lon="-7.439666">
        <ele>8.125</ele>
        <time>2019-06-19T17:29:33Z</time>
      </trkpt>
      <trkpt lat="43.697182" lon="-7.439639">
        <ele>7.838</ele>
        <time>2019-06-19T17:29:34Z</time>
      </trkpt>
      <trkpt lat="43.697252" lon="-7.439599">
        <ele>6.748</ele>
        <time>2019-06-19T17:29:35Z</time>
      </trkpt>
      <trkpt lat="43.697322" lon="-7.439553">
        <ele>4.734</ele>
        <time>2019-06-19T17:29:36Z</time>
      </trkpt>
      <trkpt lat="43.697389" lon="-7.439494">
        <ele>2.982</ele>
        <time>2019-06-19T17:29:37Z</time>
      </trkpt>
      <trkpt lat="43.697442" lon="-7.439439">
        <ele>1.552</ele>
        <time>2019-06-19T17:29:38Z</time>
      </trkpt>
      <trkpt lat="43.697503" lon="-7.439369">
        <ele>0.053</ele>
        <time>2019-06-19T17:29:39Z</time>
      </trkpt>
      <trkpt lat="43.697553" lon="-7.439290">
        <ele>0.004</ele>
        <time>2019-06-19T17:29:40Z</time>
      </trkpt>
      <trkpt lat="43.697591" lon="-7.439206">
        <ele>0.014</ele>
        <time>2019-06-19T17:29:41Z</time>
      </trkpt>
      <trkpt lat="43.697644" lon="-7.439121">
        <ele>0.008</ele>
        <time>2019-06-19T17:29:42Z</time>
      </trkpt>
      <trkpt lat="43.697708" lon="-7.439047">
        <ele>0.018</ele>
        <time>2019-06-19T17:29:43Z</time>
      </trkpt>
      <trkpt lat="43.697774" lon="-7.438976">
        <ele>0.052</ele>
        <time>2019-06-19T17:29:44Z</time>
      </trkpt>
      <trkpt lat="43.697832" lon="-7.438912">
        <ele>0.053</ele>
        <time>2019-06-19T17:29:45Z</time>
      </trkpt>
      <trkpt lat="43.697899" lon="-7.438856">
        <ele>0.036</ele>
        <time>2019-06-19T17:29:46Z</time>
      </trkpt>
      <trkpt lat="43.697958" lon="-7.438809">
        <ele>0.076</ele>
        <time>2019-06-19T17:29:47Z</time>
      </trkpt>
      <trkpt lat="43.698014" lon="-7.438766">
        <ele>0.052</ele>
        <time>2019-06-19T17:29:48Z</time>
      </trkpt>
      <trkpt lat="43.698067" lon="-7.438718">
        <ele>0.070</ele>
        <time>2019-06-19T17:29:49Z</time>
      </trkpt>
      <trkpt lat="43.698116" lon="-7.438675">
        <ele>0.050</ele>
        <time>2019-06-19T17:29:50Z</time>
      </trkpt>
      <trkpt lat="43.698160" lon="-7.438624">
        <ele>0.056</ele>
        <time>2019-06-19T17:29:51Z</time>
      </trkpt>
      <trkpt lat="43.698192" lon="-7.438561">
        <ele>0.659</ele>
        <time>2019-06-19T17:29:52Z</time>
      </trkpt>
      <trkpt lat="43.698212" lon="-7.438491">
        <ele>1.714</ele>
        <time>2019-06-19T17:29:53Z</time>
      </trkpt>
      <trkpt lat="43.698239" lon="-7.438419">
        <ele>3.208</ele>
        <time>2019-06-19T17:29:54Z</time>
      </trkpt>
      <trkpt lat="43.698270" lon="-7.438353">
        <ele>5.038</ele>
        <time>2019-06-19T17:29:55Z</time>
      </trkpt>
      <trkpt lat="43.698305" lon="-7.438296">
        <ele>6.492</ele>
        <time>2019-06-19T17:29:56Z</time>
      </trkpt>
      <trkpt lat="43.698349" lon="-7.438260">
        <ele>7.423</ele>
        <time>2019-06-19T17:29:57Z</time>
      </trkpt>
      <trkpt lat="43.698400" lon="-7.438246">
        <ele>7.846</ele>
        <time>2019-06-19T17:29:58Z</time>
      </trkpt>
      <trkpt lat="43.698449" lon="-7.438245">
        <ele>8.276</ele>
        <time>2019-06-19T17:29:59Z</time>
      </trkpt>
      <trkpt lat="43.698496" lon="-7.438253">
        <ele>8.582</ele>
        <time>2019-06-19T17:30:00Z</time>
      </trkpt>
      <trkpt lat="43.698555" lon="-7.438277">
        <ele>8.850</ele>
        <time>2019-06-19T17:30:02Z</time>
      </trkpt>
      <trkpt lat="43.698643" lon="-7.438299">
        <ele>9.420</ele>
        <time>2019-06-19T17:30:07Z</time>
      </trkpt>
      <trkpt lat="43.698697" lon="-7.438300">
        <ele>9.777</ele>
        <time>2019-06-19T17:30:08Z</time>
      </trkpt>
      <trkpt lat="43.698765" lon="-7.438307">
        <ele>10.261</ele>
        <time>2019-06-19T17:30:09Z</time>
      </trkpt>
      <trkpt lat="43.698826" lon="-7.438318">
        <ele>10.627</ele>
        <time>2019-06-19T17:30:10Z</time>
      </trkpt>
      <trkpt lat="43.698890" lon="-7.438328">
        <ele>11.008</ele>
        <time>2019-06-19T17:30:11Z</time>
      </trkpt>
      <trkpt lat="43.698937" lon="-7.438350">
        <ele>11.640</ele>
        <time>2019-06-19T17:30:12Z</time>
      </trkpt>
      <trkpt lat="43.698982" lon="-7.438382">
        <ele>12.144</ele>
        <time>2019-06-19T17:30:13Z</time>
      </trkpt>
      <trkpt lat="43.699058" lon="-7.438394">
        <ele>13.355</ele>
        <time>2019-06-19T17:30:14Z</time>
      </trkpt>
      <trkpt lat="43.699116" lon="-7.438499">
        <ele>14.148</ele>
        <time>2019-06-19T17:30:16Z</time>
      </trkpt>
      <trkpt lat="43.699151" lon="-7.438544">
        <ele>14.758</ele>
        <time>2019-06-19T17:30:17Z</time>
      </trkpt>
      <trkpt lat="43.699193" lon="-7.438595">
        <ele>15.464</ele>
        <time>2019-06-19T17:30:18Z</time>
      </trkpt>
      <trkpt lat="43.699199" lon="-7.438687">
        <ele>14.972</ele>
        <time>2019-06-19T17:30:20Z</time>
      </trkpt>
      <trkpt lat="43.699146" lon="-7.438743">
        <ele>13.622</ele>
        <time>2019-06-19T17:30:24Z</time>
      </trkpt>
      <trkpt lat="43.699108" lon="-7.438777">
        <ele>12.585</ele>
        <time>2019-06-19T17:30:26Z</time>
      </trkpt>
      <trkpt lat="43.699140" lon="-7.438835">
        <ele>12.889</ele>
        <time>2019-06-19T17:30:28Z</time>
      </trkpt>
      <trkpt lat="43.699179" lon="-7.438881">
        <ele>13.217</ele>
        <time>2019-06-19T17:30:30Z</time>
      </trkpt>
      <trkpt lat="43.699217" lon="-7.438922">
        <ele>13.208</ele>
        <time>2019-06-19T17:30:32Z</time>
      </trkpt>
      <trkpt lat="43.699243" lon="-7.439000">
        <ele>12.241</ele>
        <time>2019-06-19T17:30:36Z</time>
      </trkpt>
      <trkpt lat="43.699254" lon="-7.439074">
        <ele>11.125</ele>
        <time>2019-06-19T17:30:38Z</time>
      </trkpt>
      <trkpt lat="43.699270" lon="-7.439149">
        <ele>10.226</ele>
        <time>2019-06-19T17:30:40Z</time>
      </trkpt>
      <trkpt lat="43.699316" lon="-7.439236">
        <ele>9.769</ele>
        <time>2019-06-19T17:30:42Z</time>
      </trkpt>
      <trkpt lat="43.699380" lon="-7.439295">
        <ele>9.799</ele>
        <time>2019-06-19T17:30:43Z</time>
      </trkpt>
      <trkpt lat="43.699426" lon="-7.439389">
        <ele>8.885</ele>
        <time>2019-06-19T17:30:45Z</time>
      </trkpt>
      <trkpt lat="43.699395" lon="-7.439470">
        <ele>7.353</ele>
        <time>2019-06-19T17:30:47Z</time>
      </trkpt>
      <trkpt lat="43.699357" lon="-7.439574">
        <ele>6.143</ele>
        <time>2019-06-19T17:30:49Z</time>
      </trkpt>
      <trkpt lat="43.699382" lon="-7.439679">
        <ele>5.644</ele>
        <time>2019-06-19T17:30:51Z</time>
      </trkpt>
      <trkpt lat="43.699435" lon="-7.439731">
        <ele>5.705</ele>
        <time>2019-06-19T17:30:53Z</time>
      </trkpt>
      <trkpt lat="43.699467" lon="-7.439810">
        <ele>3.815</ele>
        <time>2019-06-19T17:30:56Z</time>
      </trkpt>
      <trkpt lat="43.699430" lon="-7.439862">
        <ele>2.908</ele>
        <time>2019-06-19T17:30:58Z</time>
      </trkpt>
      <trkpt lat="43.699357" lon="-7.439810">
        <ele>3.637</ele>
        <time>2019-06-19T17:31:00Z</time>
      </trkpt>
      <trkpt lat="43.699329" lon="-7.439754">
        <ele>4.311</ele>
        <time>2019-06-19T17:31:01Z</time>
      </trkpt>
      <trkpt lat="43.699308" lon="-7.439697">
        <ele>4.772</ele>
        <time>2019-06-19T17:31:02Z</time>
      </trkpt>
      <trkpt lat="43.699268" lon="-7.439592">
        <ele>5.015</ele>
        <time>2019-06-19T17:31:04Z</time>
      </trkpt>
      <trkpt lat="43.699207" lon="-7.439513">
        <ele>4.945</ele>
        <time>2019-06-19T17:31:06Z</time>
      </trkpt>
      <trkpt lat="43.699126" lon="-7.439477">
        <ele>4.621</ele>
        <time>2019-06-19T17:31:08Z</time>
      </trkpt>
      <trkpt lat="43.699081" lon="-7.439462">
        <ele>4.619</ele>
        <time>2019-06-19T17:31:09Z</time>
      </trkpt>
      <trkpt lat="43.699007" lon="-7.439417">
        <ele>4.619</ele>
        <time>2019-06-19T17:31:11Z</time>
      </trkpt>
      <trkpt lat="43.698955" lon="-7.439337">
        <ele>4.829</ele>
        <time>2019-06-19T17:31:13Z</time>
      </trkpt>
      <trkpt lat="43.698952" lon="-7.439253">
        <ele>5.200</ele>
        <time>2019-06-19T17:31:14Z</time>
      </trkpt>
      <trkpt lat="43.698940" lon="-7.439185">
        <ele>5.520</ele>
        <time>2019-06-19T17:31:15Z</time>
      </trkpt>
      <trkpt lat="43.698922" lon="-7.439121">
        <ele>5.708</ele>
        <time>2019-06-19T17:31:16Z</time>
      </trkpt>
      <trkpt lat="43.698900" lon="-7.439049">
        <ele>6.065</ele>
        <time>2019-06-19T17:31:17Z</time>
      </trkpt>
      <trkpt lat="43.698876" lon="-7.438962">
        <ele>6.379</ele>
        <time>2019-06-19T17:31:18Z</time>
      </trkpt>
      <trkpt lat="43.698841" lon="-7.438869">
        <ele>6.610</ele>
        <time>2019-06-19T17:31:19Z</time>
      </trkpt>
      <trkpt lat="43.698799" lon="-7.438768">
        <ele>7.043</ele>
        <time>2019-06-19T17:31:20Z</time>
      </trkpt>
      <trkpt lat="43.698751" lon="-7.438667">
        <ele>7.583</ele>
        <time>2019-06-19T17:31:21Z</time>
      </trkpt>
      <trkpt lat="43.698706" lon="-7.438572">
        <ele>8.069</ele>
        <time>2019-06-19T17:31:22Z</time>
      </trkpt>
      <trkpt lat="43.698662" lon="-7.438484">
        <ele>8.367</ele>
        <time>2019-06-19T17:31:23Z</time>
      </trkpt>
      <trkpt lat="43.698616" lon="-7.438414">
        <ele>8.567</ele>
        <time>2019-06-19T17:31:24Z</time>
      </trkpt>
      <trkpt lat="43.698573" lon="-7.438368">
        <ele>8.468</ele>
        <time>2019-06-19T17:31:25Z</time>
      </trkpt>
      <trkpt lat="43.698534" lon="-7.438324">
        <ele>8.542</ele>
        <time>2019-06-19T17:31:26Z</time>
      </trkpt>
      <trkpt lat="43.698498" lon="-7.438272">
        <ele>8.426</ele>
        <time>2019-06-19T17:31:27Z</time>
      </trkpt>
      <trkpt lat="43.698471" lon="-7.438216">
        <ele>8.408</ele>
        <time>2019-06-19T17:31:28Z</time>
      </trkpt>
      <trkpt lat="43.698447" lon="-7.438161">
        <ele>8.469</ele>
        <time>2019-06-19T17:31:29Z</time>
      </trkpt>
      <trkpt lat="43.698436" lon="-7.438085">
        <ele>8.653</ele>
        <time>2019-06-19T17:31:30Z</time>
      </trkpt>
      <trkpt lat="43.698443" lon="-7.437999">
        <ele>8.994</ele>
        <time>2019-06-19T17:31:31Z</time>
      </trkpt>
      <trkpt lat="43.698462" lon="-7.437909">
        <ele>9.287</ele>
        <time>2019-06-19T17:31:32Z</time>
      </trkpt>
      <trkpt lat="43.698488" lon="-7.437830">
        <ele>9.627</ele>
        <time>2019-06-19T17:31:33Z</time>
      </trkpt>
      <trkpt lat="43.698527" lon="-7.437747">
        <ele>10.033</ele>
        <time>2019-06-19T17:31:34Z</time>
      </trkpt>
      <trkpt lat="43.698592" lon="-7.437706">
        <ele>10.571</ele>
        <time>2019-06-19T17:31:35Z</time>
      </trkpt>
      <trkpt lat="43.698678" lon="-7.437673">
        <ele>11.491</ele>
        <time>2019-06-19T17:31:36Z</time>
      </trkpt>
      <trkpt lat="43.698759" lon="-7.437660">
        <ele>12.485</ele>
        <time>2019-06-19T17:31:37Z</time>
      </trkpt>
      <trkpt lat="43.698844" lon="-7.437637">
        <ele>13.489</ele>
        <time>2019-06-19T17:31:38Z</time>
      </trkpt>
      <trkpt lat="43.698931" lon="-7.437609">
        <ele>14.717</ele>
        <time>2019-06-19T17:31:39Z</time>
      </trkpt>
      <trkpt lat="43.699004" lon="-7.437560">
        <ele>16.008</ele>
        <time>2019-06-19T17:31:40Z</time>
      </trkpt>
      <trkpt lat="43.699077" lon="-7.437478">
        <ele>17.251</ele>
        <time>2019-06-19T17:31:41Z</time>
      </trkpt>
      <trkpt lat="43.699140" lon="-7.437372">
        <ele>17.285</ele>
        <time>2019-06-19T17:31:42Z</time>
      </trkpt>
      <trkpt lat="43.699197" lon="-7.437252">
        <ele>16.646</ele>
        <time>2019-06-19T17:31:43Z</time>
      </trkpt>
      <trkpt lat="43.699255" lon="-7.437129">
        <ele>15.969</ele>
        <time>2019-06-19T17:31:44Z</time>
      </trkpt>
      <trkpt lat="43.699321" lon="-7.437001">
        <ele>15.319</ele>
        <time>2019-06-19T17:31:45Z</time>
      </trkpt>
      <trkpt lat="43.699385" lon="-7.436891">
        <ele>14.825</ele>
        <time>2019-06-19T17:31:46Z</time>
      </trkpt>
      <trkpt lat="43.699438" lon="-7.436795">
        <ele>14.383</ele>
        <time>2019-06-19T17:31:47Z</time>
      </trkpt>
      <trkpt lat="43.699482" lon="-7.436704">
        <ele>13.923</ele>
        <time>2019-06-19T17:31:48Z</time>
      </trkpt>
      <trkpt lat="43.699523" lon="-7.436636">
        <ele>14.083</ele>
        <time>2019-06-19T17:31:49Z</time>
      </trkpt>
      <trkpt lat="43.699563" lon="-7.436564">
        <ele>14.325</ele>
        <time>2019-06-19T17:31:50Z</time>
      </trkpt>
      <trkpt lat="43.699610" lon="-7.436507">
        <ele>14.817</ele>
        <time>2019-06-19T17:31:51Z</time>
      </trkpt>
      <trkpt lat="43.699668" lon="-7.436482">
        <ele>15.608</ele>
        <time>2019-06-19T17:31:52Z</time>
      </trkpt>
      <trkpt lat="43.699723" lon="-7.436489">
        <ele>16.421</ele>
        <time>2019-06-19T17:31:53Z</time>
      </trkpt>
      <trkpt lat="43.699769" lon="-7.436531">
        <ele>17.425</ele>
        <time>2019-06-19T17:31:54Z</time>
      </trkpt>
      <trkpt lat="43.699817" lon="-7.436587">
        <ele>18.616</ele>
        <time>2019-06-19T17:31:55Z</time>
      </trkpt>
      <trkpt lat="43.699859" lon="-7.436684">
        <ele>20.149</ele>
        <time>2019-06-19T17:31:56Z</time>
      </trkpt>
      <trkpt lat="43.699892" lon="-7.436779">
        <ele>21.489</ele>
        <time>2019-06-19T17:31:57Z</time>
      </trkpt>
      <trkpt lat="43.699933" lon="-7.436878">
        <ele>22.725</ele>
        <time>2019-06-19T17:31:58Z</time>
      </trkpt>
      <trkpt lat="43.699980" lon="-7.436950">
        <ele>23.793</ele>
        <time>2019-06-19T17:31:59Z</time>
      </trkpt>
      <trkpt lat="43.700039" lon="-7.437003">
        <ele>24.343</ele>
        <time>2019-06-19T17:32:00Z</time>
      </trkpt>
      <trkpt lat="43.700106" lon="-7.437021">
        <ele>24.649</ele>
        <time>2019-06-19T17:32:01Z</time>
      </trkpt>
      <trkpt lat="43.700170" lon="-7.437016">
        <ele>24.702</ele>
        <time>2019-06-19T17:32:02Z</time>
      </trkpt>
      <trkpt lat="43.700228" lon="-7.436982">
        <ele>24.822</ele>
        <time>2019-06-19T17:32:03Z</time>
      </trkpt>
      <trkpt lat="43.700280" lon="-7.436936">
        <ele>25.008</ele>
        <time>2019-06-19T17:32:04Z</time>
      </trkpt>
      <trkpt lat="43.700315" lon="-7.436892">
        <ele>24.447</ele>
        <time>2019-06-19T17:32:05Z</time>
      </trkpt>
      <trkpt lat="43.700347" lon="-7.436812">
        <ele>23.991</ele>
        <time>2019-06-19T17:32:07Z</time>
      </trkpt>
      <trkpt lat="43.700368" lon="-7.436743">
        <ele>23.632</ele>
        <time>2019-06-19T17:32:09Z</time>
      </trkpt>
      <trkpt lat="43.700388" lon="-7.436684">
        <ele>23.415</ele>
        <time>2019-06-19T17:32:42Z</time>
      </trkpt>
      <trkpt lat="43.700342" lon="-7.436678">
        <ele>24.175</ele>
        <time>2019-06-19T17:33:37Z</time>
      </trkpt>
      <trkpt lat="43.700321" lon="-7.436737">
        <ele>24.331</ele>
        <time>2019-06-19T17:34:07Z</time>
      </trkpt>
      <trkpt lat="43.700288" lon="-7.436789">
        <ele>24.869</ele>
        <time>2019-06-19T17:34:13Z</time>
      </trkpt>
      <trkpt lat="43.700333" lon="-7.436823">
        <ele>24.149</ele>
        <time>2019-06-19T17:34:42Z</time>
      </trkpt>
      <trkpt lat="43.700352" lon="-7.436761">
        <ele>23.828</ele>
        <time>2019-06-19T17:34:48Z</time>
      </trkpt>
      <trkpt lat="43.700336" lon="-7.436697">
        <ele>24.189</ele>
        <time>2019-06-19T17:34:54Z</time>
      </trkpt>
      <trkpt lat="43.700474" lon="-7.436587">
        <ele>17.717</ele>
        <time>2019-06-19T17:38:56Z</time>
      </trkpt>
      <trkpt lat="43.700446" lon="-7.436641">
        <ele>21.308</ele>
        <time>2019-06-19T17:39:03Z</time>
      </trkpt>
      <trkpt lat="43.700400" lon="-7.436658">
        <ele>22.995</ele>
        <time>2019-06-19T17:39:43Z</time>
      </trkpt>
      <trkpt lat="43.700364" lon="-7.436700">
        <ele>23.759</ele>
        <time>2019-06-19T17:41:25Z</time>
      </trkpt>
      <trkpt lat="43.700350" lon="-7.436783">
        <ele>23.950</ele>
        <time>2019-06-19T17:41:27Z</time>
      </trkpt>
      <trkpt lat="43.700334" lon="-7.436892">
        <ele>24.013</ele>
        <time>2019-06-19T17:41:29Z</time>
      </trkpt>
      <trkpt lat="43.700305" lon="-7.436942">
        <ele>24.513</ele>
        <time>2019-06-19T17:41:30Z</time>
      </trkpt>
      <trkpt lat="43.700263" lon="-7.436987">
        <ele>25.019</ele>
        <time>2019-06-19T17:41:31Z</time>
      </trkpt>
      <trkpt lat="43.700217" lon="-7.437023">
        <ele>24.857</ele>
        <time>2019-06-19T17:41:32Z</time>
      </trkpt>
      <trkpt lat="43.700168" lon="-7.437048">
        <ele>24.867</ele>
        <time>2019-06-19T17:41:33Z</time>
      </trkpt>
      <trkpt lat="43.700112" lon="-7.437061">
        <ele>24.742</ele>
        <time>2019-06-19T17:41:34Z</time>
      </trkpt>
      <trkpt lat="43.700054" lon="-7.437055">
        <ele>24.522</ele>
        <time>2019-06-19T17:41:35Z</time>
      </trkpt>
      <trkpt lat="43.699999" lon="-7.437029">
        <ele>24.314</ele>
        <time>2019-06-19T17:41:36Z</time>
      </trkpt>
      <trkpt lat="43.699947" lon="-7.436935">
        <ele>23.208</ele>
        <time>2019-06-19T17:41:37Z</time>
      </trkpt>
      <trkpt lat="43.699905" lon="-7.436884">
        <ele>22.317</ele>
        <time>2019-06-19T17:41:38Z</time>
      </trkpt>
      <trkpt lat="43.699879" lon="-7.436820">
        <ele>21.421</ele>
        <time>2019-06-19T17:41:39Z</time>
      </trkpt>
      <trkpt lat="43.699859" lon="-7.436759">
        <ele>20.652</ele>
        <time>2019-06-19T17:41:40Z</time>
      </trkpt>
      <trkpt lat="43.699835" lon="-7.436702">
        <ele>19.745</ele>
        <time>2019-06-19T17:41:41Z</time>
      </trkpt>
      <trkpt lat="43.699818" lon="-7.436639">
        <ele>18.955</ele>
        <time>2019-06-19T17:41:42Z</time>
      </trkpt>
      <trkpt lat="43.699787" lon="-7.436583">
        <ele>18.051</ele>
        <time>2019-06-19T17:41:43Z</time>
      </trkpt>
      <trkpt lat="43.699753" lon="-7.436539">
        <ele>17.139</ele>
        <time>2019-06-19T17:41:44Z</time>
      </trkpt>
      <trkpt lat="43.699712" lon="-7.436510">
        <ele>16.399</ele>
        <time>2019-06-19T17:41:45Z</time>
      </trkpt>
      <trkpt lat="43.699662" lon="-7.436498">
        <ele>15.537</ele>
        <time>2019-06-19T17:41:46Z</time>
      </trkpt>
      <trkpt lat="43.699600" lon="-7.436555">
        <ele>14.849</ele>
        <time>2019-06-19T17:41:48Z</time>
      </trkpt>
      <trkpt lat="43.699556" lon="-7.436618">
        <ele>14.413</ele>
        <time>2019-06-19T17:41:50Z</time>
      </trkpt>
      <trkpt lat="43.699559" lon="-7.436688">
        <ele>14.908</ele>
        <time>2019-06-19T17:41:57Z</time>
      </trkpt>
      <trkpt lat="43.699530" lon="-7.436742">
        <ele>15.046</ele>
        <time>2019-06-19T17:42:01Z</time>
      </trkpt>
      <trkpt lat="43.699447" lon="-7.436787">
        <ele>14.370</ele>
        <time>2019-06-19T17:42:03Z</time>
      </trkpt>
      <trkpt lat="43.699404" lon="-7.436841">
        <ele>14.411</ele>
        <time>2019-06-19T17:42:04Z</time>
      </trkpt>
      <trkpt lat="43.699356" lon="-7.436958">
        <ele>15.234</ele>
        <time>2019-06-19T17:42:05Z</time>
      </trkpt>
      <trkpt lat="43.699307" lon="-7.437036">
        <ele>15.564</ele>
        <time>2019-06-19T17:42:06Z</time>
      </trkpt>
      <trkpt lat="43.699251" lon="-7.437137">
        <ele>16.060</ele>
        <time>2019-06-19T17:42:07Z</time>
      </trkpt>
      <trkpt lat="43.699199" lon="-7.437243">
        <ele>16.638</ele>
        <time>2019-06-19T17:42:08Z</time>
      </trkpt>
      <trkpt lat="43.699144" lon="-7.437343">
        <ele>16.948</ele>
        <time>2019-06-19T17:42:09Z</time>
      </trkpt>
      <trkpt lat="43.699095" lon="-7.437425">
        <ele>17.042</ele>
        <time>2019-06-19T17:42:10Z</time>
      </trkpt>
      <trkpt lat="43.699036" lon="-7.437508">
        <ele>16.622</ele>
        <time>2019-06-19T17:42:11Z</time>
      </trkpt>
      <trkpt lat="43.698958" lon="-7.437575">
        <ele>15.214</ele>
        <time>2019-06-19T17:42:12Z</time>
      </trkpt>
      <trkpt lat="43.698878" lon="-7.437617">
        <ele>13.908</ele>
        <time>2019-06-19T17:42:13Z</time>
      </trkpt>
      <trkpt lat="43.698795" lon="-7.437646">
        <ele>12.847</ele>
        <time>2019-06-19T17:42:14Z</time>
      </trkpt>
      <trkpt lat="43.698706" lon="-7.437668">
        <ele>11.811</ele>
        <time>2019-06-19T17:42:15Z</time>
      </trkpt>
      <trkpt lat="43.698641" lon="-7.437684">
        <ele>11.012</ele>
        <time>2019-06-19T17:42:16Z</time>
      </trkpt>
      <trkpt lat="43.698572" lon="-7.437719">
        <ele>10.465</ele>
        <time>2019-06-19T17:42:17Z</time>
      </trkpt>
      <trkpt lat="43.698529" lon="-7.437772">
        <ele>10.155</ele>
        <time>2019-06-19T17:42:18Z</time>
      </trkpt>
      <trkpt lat="43.698498" lon="-7.437835">
        <ele>9.711</ele>
        <time>2019-06-19T17:42:19Z</time>
      </trkpt>
      <trkpt lat="43.698484" lon="-7.437910">
        <ele>9.479</ele>
        <time>2019-06-19T17:42:20Z</time>
      </trkpt>
      <trkpt lat="43.698466" lon="-7.438004">
        <ele>9.099</ele>
        <time>2019-06-19T17:42:21Z</time>
      </trkpt>
      <trkpt lat="43.698446" lon="-7.438073">
        <ele>8.747</ele>
        <time>2019-06-19T17:42:22Z</time>
      </trkpt>
      <trkpt lat="43.698424" lon="-7.438129">
        <ele>8.429</ele>
        <time>2019-06-19T17:42:23Z</time>
      </trkpt>
      <trkpt lat="43.698420" lon="-7.438199">
        <ele>8.121</ele>
        <time>2019-06-19T17:42:24Z</time>
      </trkpt>
      <trkpt lat="43.698418" lon="-7.438268">
        <ele>7.808</ele>
        <time>2019-06-19T17:42:25Z</time>
      </trkpt>
      <trkpt lat="43.698416" lon="-7.438342">
        <ele>7.487</ele>
        <time>2019-06-19T17:42:26Z</time>
      </trkpt>
      <trkpt lat="43.698389" lon="-7.438421">
        <ele>5.521</ele>
        <time>2019-06-19T17:42:27Z</time>
      </trkpt>
      <trkpt lat="43.698340" lon="-7.438493">
        <ele>3.122</ele>
        <time>2019-06-19T17:42:28Z</time>
      </trkpt>
      <trkpt lat="43.698282" lon="-7.438559">
        <ele>1.175</ele>
        <time>2019-06-19T17:42:29Z</time>
      </trkpt>
      <trkpt lat="43.698208" lon="-7.438629">
        <ele>0.075</ele>
        <time>2019-06-19T17:42:30Z</time>
      </trkpt>
      <trkpt lat="43.698135" lon="-7.438691">
        <ele>0.041</ele>
        <time>2019-06-19T17:42:31Z</time>
      </trkpt>
      <trkpt lat="43.698077" lon="-7.438748">
        <ele>0.059</ele>
        <time>2019-06-19T17:42:32Z</time>
      </trkpt>
      <trkpt lat="43.698009" lon="-7.438812">
        <ele>0.019</ele>
        <time>2019-06-19T17:42:33Z</time>
      </trkpt>
      <trkpt lat="43.697935" lon="-7.438874">
        <ele>0.054</ele>
        <time>2019-06-19T17:42:34Z</time>
      </trkpt>
      <trkpt lat="43.697857" lon="-7.438933">
        <ele>0.056</ele>
        <time>2019-06-19T17:42:35Z</time>
      </trkpt>
      <trkpt lat="43.697788" lon="-7.438998">
        <ele>0.011</ele>
        <time>2019-06-19T17:42:36Z</time>
      </trkpt>
      <trkpt lat="43.697723" lon="-7.439080">
        <ele>0.008</ele>
        <time>2019-06-19T17:42:37Z</time>
      </trkpt>
      <trkpt lat="43.697661" lon="-7.439164">
        <ele>0.088</ele>
        <time>2019-06-19T17:42:38Z</time>
      </trkpt>
      <trkpt lat="43.697613" lon="-7.439247">
        <ele>0.022</ele>
        <time>2019-06-19T17:42:39Z</time>
      </trkpt>
      <trkpt lat="43.697552" lon="-7.439315">
        <ele>0.013</ele>
        <time>2019-06-19T17:42:40Z</time>
      </trkpt>
      <trkpt lat="43.697495" lon="-7.439388">
        <ele>0.146</ele>
        <time>2019-06-19T17:42:41Z</time>
      </trkpt>
      <trkpt lat="43.697430" lon="-7.439449">
        <ele>1.846</ele>
        <time>2019-06-19T17:42:42Z</time>
      </trkpt>
      <trkpt lat="43.697360" lon="-7.439511">
        <ele>3.612</ele>
        <time>2019-06-19T17:42:43Z</time>
      </trkpt>
      <trkpt lat="43.697264" lon="-7.439574">
        <ele>6.340</ele>
        <time>2019-06-19T17:42:44Z</time>
      </trkpt>
      <trkpt lat="43.697172" lon="-7.439627">
        <ele>7.880</ele>
        <time>2019-06-19T17:42:45Z</time>
      </trkpt>
      <trkpt lat="43.697087" lon="-7.439674">
        <ele>8.291</ele>
        <time>2019-06-19T17:42:46Z</time>
      </trkpt>
      <trkpt lat="43.697008" lon="-7.439720">
        <ele>8.881</ele>
        <time>2019-06-19T17:42:47Z</time>
      </trkpt>
      <trkpt lat="43.696935" lon="-7.439766">
        <ele>9.219</ele>
        <time>2019-06-19T17:42:48Z</time>
      </trkpt>
      <trkpt lat="43.696871" lon="-7.439816">
        <ele>9.708</ele>
        <time>2019-06-19T17:42:49Z</time>
      </trkpt>
      <trkpt lat="43.696806" lon="-7.439871">
        <ele>10.382</ele>
        <time>2019-06-19T17:42:50Z</time>
      </trkpt>
      <trkpt lat="43.696759" lon="-7.439972">
        <ele>11.216</ele>
        <time>2019-06-19T17:42:52Z</time>
      </trkpt>
      <trkpt lat="43.696734" lon="-7.440047">
        <ele>11.567</ele>
        <time>2019-06-19T17:42:53Z</time>
      </trkpt>
      <trkpt lat="43.696716" lon="-7.440137">
        <ele>11.620</ele>
        <time>2019-06-19T17:42:54Z</time>
      </trkpt>
      <trkpt lat="43.696682" lon="-7.440257">
        <ele>11.890</ele>
        <time>2019-06-19T17:42:55Z</time>
      </trkpt>
      <trkpt lat="43.696662" lon="-7.440370">
        <ele>11.746</ele>
        <time>2019-06-19T17:42:56Z</time>
      </trkpt>
      <trkpt lat="43.696638" lon="-7.440487">
        <ele>11.354</ele>
        <time>2019-06-19T17:42:57Z</time>
      </trkpt>
      <trkpt lat="43.696596" lon="-7.440615">
        <ele>10.354</ele>
        <time>2019-06-19T17:42:58Z</time>
      </trkpt>
      <trkpt lat="43.696516" lon="-7.440720">
        <ele>9.346</ele>
        <time>2019-06-19T17:42:59Z</time>
      </trkpt>
      <trkpt lat="43.696437" lon="-7.440795">
        <ele>9.088</ele>
        <time>2019-06-19T17:43:00Z</time>
      </trkpt>
      <trkpt lat="43.696357" lon="-7.440878">
        <ele>8.816</ele>
        <time>2019-06-19T17:43:01Z</time>
      </trkpt>
      <trkpt lat="43.696283" lon="-7.440954">
        <ele>8.808</ele>
        <time>2019-06-19T17:43:02Z</time>
      </trkpt>
      <trkpt lat="43.696200" lon="-7.441033">
        <ele>9.267</ele>
        <time>2019-06-19T17:43:03Z</time>
      </trkpt>
      <trkpt lat="43.696123" lon="-7.441120">
        <ele>9.891</ele>
        <time>2019-06-19T17:43:04Z</time>
      </trkpt>
      <trkpt lat="43.696047" lon="-7.441197">
        <ele>9.942</ele>
        <time>2019-06-19T17:43:05Z</time>
      </trkpt>
      <trkpt lat="43.695988" lon="-7.441251">
        <ele>9.815</ele>
        <time>2019-06-19T17:43:06Z</time>
      </trkpt>
      <trkpt lat="43.695928" lon="-7.441315">
        <ele>9.525</ele>
        <time>2019-06-19T17:43:07Z</time>
      </trkpt>
      <trkpt lat="43.695858" lon="-7.441390">
        <ele>9.191</ele>
        <time>2019-06-19T17:43:08Z</time>
      </trkpt>
      <trkpt lat="43.695766" lon="-7.441474">
        <ele>8.919</ele>
        <time>2019-06-19T17:43:09Z</time>
      </trkpt>
      <trkpt lat="43.695677" lon="-7.441564">
        <ele>8.439</ele>
        <time>2019-06-19T17:43:10Z</time>
      </trkpt>
      <trkpt lat="43.695569" lon="-7.441655">
        <ele>7.216</ele>
        <time>2019-06-19T17:43:11Z</time>
      </trkpt>
      <trkpt lat="43.695465" lon="-7.441742">
        <ele>7.876</ele>
        <time>2019-06-19T17:43:12Z</time>
      </trkpt>
      <trkpt lat="43.695362" lon="-7.441824">
        <ele>8.613</ele>
        <time>2019-06-19T17:43:13Z</time>
      </trkpt>
      <trkpt lat="43.695259" lon="-7.441905">
        <ele>9.108</ele>
        <time>2019-06-19T17:43:14Z</time>
      </trkpt>
      <trkpt lat="43.695159" lon="-7.441967">
        <ele>9.974</ele>
        <time>2019-06-19T17:43:15Z</time>
      </trkpt>
      <trkpt lat="43.695071" lon="-7.442031">
        <ele>10.348</ele>
        <time>2019-06-19T17:43:16Z</time>
      </trkpt>
      <trkpt lat="43.694983" lon="-7.442095">
        <ele>10.559</ele>
        <time>2019-06-19T17:43:17Z</time>
      </trkpt>
      <trkpt lat="43.694895" lon="-7.442174">
        <ele>10.222</ele>
        <time>2019-06-19T17:43:18Z</time>
      </trkpt>
      <trkpt lat="43.694803" lon="-7.442243">
        <ele>10.082</ele>
        <time>2019-06-19T17:43:19Z</time>
      </trkpt>
      <trkpt lat="43.694722" lon="-7.442314">
        <ele>10.058</ele>
        <time>2019-06-19T17:43:20Z</time>
      </trkpt>
      <trkpt lat="43.694646" lon="-7.442384">
        <ele>10.066</ele>
        <time>2019-06-19T17:43:21Z</time>
      </trkpt>
      <trkpt lat="43.694562" lon="-7.442458">
        <ele>10.026</ele>
        <time>2019-06-19T17:43:22Z</time>
      </trkpt>
      <trkpt lat="43.694467" lon="-7.442514">
        <ele>9.976</ele>
        <time>2019-06-19T17:43:23Z</time>
      </trkpt>
      <trkpt lat="43.694379" lon="-7.442585">
        <ele>9.090</ele>
        <time>2019-06-19T17:43:24Z</time>
      </trkpt>
      <trkpt lat="43.694288" lon="-7.442656">
        <ele>8.119</ele>
        <time>2019-06-19T17:43:25Z</time>
      </trkpt>
      <trkpt lat="43.694201" lon="-7.442714">
        <ele>7.408</ele>
        <time>2019-06-19T17:43:26Z</time>
      </trkpt>
      <trkpt lat="43.694109" lon="-7.442793">
        <ele>6.980</ele>
        <time>2019-06-19T17:43:27Z</time>
      </trkpt>
      <trkpt lat="43.694052" lon="-7.442889">
        <ele>6.644</ele>
        <time>2019-06-19T17:43:28Z</time>
      </trkpt>
      <trkpt lat="43.693966" lon="-7.442983">
        <ele>6.335</ele>
        <time>2019-06-19T17:43:29Z</time>
      </trkpt>
      <trkpt lat="43.693879" lon="-7.443096">
        <ele>5.968</ele>
        <time>2019-06-19T17:43:30Z</time>
      </trkpt>
      <trkpt lat="43.693795" lon="-7.443203">
        <ele>5.828</ele>
        <time>2019-06-19T17:43:31Z</time>
      </trkpt>
      <trkpt lat="43.693712" lon="-7.443311">
        <ele>5.714</ele>
        <time>2019-06-19T17:43:32Z</time>
      </trkpt>
      <trkpt lat="43.693655" lon="-7.443414">
        <ele>5.382</ele>
        <time>2019-06-19T17:43:33Z</time>
      </trkpt>
      <trkpt lat="43.693580" lon="-7.443517">
        <ele>4.862</ele>
        <time>2019-06-19T17:43:34Z</time>
      </trkpt>
      <trkpt lat="43.693530" lon="-7.443582">
        <ele>4.575</ele>
        <time>2019-06-19T17:43:35Z</time>
      </trkpt>
      <trkpt lat="43.693480" lon="-7.443668">
        <ele>4.328</ele>
        <time>2019-06-19T17:43:36Z</time>
      </trkpt>
      <trkpt lat="43.693442" lon="-7.443761">
        <ele>4.120</ele>
        <time>2019-06-19T17:43:37Z</time>
      </trkpt>
      <trkpt lat="43.693396" lon="-7.443864">
        <ele>3.908</ele>
        <time>2019-06-19T17:43:38Z</time>
      </trkpt>
      <trkpt lat="43.693374" lon="-7.443974">
        <ele>3.910</ele>
        <time>2019-06-19T17:43:39Z</time>
      </trkpt>
      <trkpt lat="43.693346" lon="-7.444101">
        <ele>4.074</ele>
        <time>2019-06-19T17:43:40Z</time>
      </trkpt>
      <trkpt lat="43.693322" lon="-7.444232">
        <ele>4.115</ele>
        <time>2019-06-19T17:43:41Z</time>
      </trkpt>
      <trkpt lat="43.693300" lon="-7.444374">
        <ele>4.428</ele>
        <time>2019-06-19T17:43:42Z</time>
      </trkpt>
      <trkpt lat="43.693291" lon="-7.444506">
        <ele>4.738</ele>
        <time>2019-06-19T17:43:43Z</time>
      </trkpt>
      <trkpt lat="43.693280" lon="-7.444676">
        <ele>5.444</ele>
        <time>2019-06-19T17:43:44Z</time>
      </trkpt>
      <trkpt lat="43.693269" lon="-7.444864">
        <ele>6.792</ele>
        <time>2019-06-19T17:43:45Z</time>
      </trkpt>
      <trkpt lat="43.693267" lon="-7.445055">
        <ele>8.012</ele>
        <time>2019-06-19T17:43:46Z</time>
      </trkpt>
      <trkpt lat="43.693257" lon="-7.445256">
        <ele>9.066</ele>
        <time>2019-06-19T17:43:47Z</time>
      </trkpt>
      <trkpt lat="43.693250" lon="-7.445451">
        <ele>8.329</ele>
        <time>2019-06-19T17:43:48Z</time>
      </trkpt>
      <trkpt lat="43.693241" lon="-7.445646">
        <ele>7.221</ele>
        <time>2019-06-19T17:43:49Z</time>
      </trkpt>
      <trkpt lat="43.693235" lon="-7.445829">
        <ele>5.908</ele>
        <time>2019-06-19T17:43:50Z</time>
      </trkpt>
      <trkpt lat="43.693231" lon="-7.446005">
        <ele>4.599</ele>
        <time>2019-06-19T17:43:51Z</time>
      </trkpt>
      <trkpt lat="43.693218" lon="-7.446178">
        <ele>4.383</ele>
        <time>2019-06-19T17:43:52Z</time>
      </trkpt>
      <trkpt lat="43.693202" lon="-7.446348">
        <ele>4.954</ele>
        <time>2019-06-19T17:43:53Z</time>
      </trkpt>
      <trkpt lat="43.693198" lon="-7.446492">
        <ele>5.237</ele>
        <time>2019-06-19T17:43:54Z</time>
      </trkpt>
      <trkpt lat="43.693205" lon="-7.446630">
        <ele>5.517</ele>
        <time>2019-06-19T17:43:55Z</time>
      </trkpt>
      <trkpt lat="43.693224" lon="-7.446758">
        <ele>6.263</ele>
        <time>2019-06-19T17:43:56Z</time>
      </trkpt>
      <trkpt lat="43.693257" lon="-7.446857">
        <ele>6.811</ele>
        <time>2019-06-19T17:43:57Z</time>
      </trkpt>
      <trkpt lat="43.693296" lon="-7.446930">
        <ele>7.131</ele>
        <time>2019-06-19T17:43:58Z</time>
      </trkpt>
      <trkpt lat="43.693356" lon="-7.447008">
        <ele>7.071</ele>
        <time>2019-06-19T17:43:59Z</time>
      </trkpt>
      <trkpt lat="43.693428" lon="-7.447077">
        <ele>6.641</ele>
        <time>2019-06-19T17:44:00Z</time>
      </trkpt>
      <trkpt lat="43.693514" lon="-7.447160">
        <ele>6.015</ele>
        <time>2019-06-19T17:44:01Z</time>
      </trkpt>
      <trkpt lat="43.693599" lon="-7.447249">
        <ele>5.208</ele>
        <time>2019-06-19T17:44:02Z</time>
      </trkpt>
      <trkpt lat="43.693676" lon="-7.447336">
        <ele>4.930</ele>
        <time>2019-06-19T17:44:03Z</time>
      </trkpt>
      <trkpt lat="43.693744" lon="-7.447436">
        <ele>4.814</ele>
        <time>2019-06-19T17:44:04Z</time>
      </trkpt>
      <trkpt lat="43.693806" lon="-7.447542">
        <ele>4.835</ele>
        <time>2019-06-19T17:44:05Z</time>
      </trkpt>
      <trkpt lat="43.693857" lon="-7.447640">
        <ele>5.138</ele>
        <time>2019-06-19T17:44:06Z</time>
      </trkpt>
      <trkpt lat="43.693893" lon="-7.447750">
        <ele>5.898</ele>
        <time>2019-06-19T17:44:07Z</time>
      </trkpt>
      <trkpt lat="43.693918" lon="-7.447867">
        <ele>6.024</ele>
        <time>2019-06-19T17:44:08Z</time>
      </trkpt>
      <trkpt lat="43.693921" lon="-7.447994">
        <ele>6.022</ele>
        <time>2019-06-19T17:44:09Z</time>
      </trkpt>
      <trkpt lat="43.693906" lon="-7.448117">
        <ele>6.282</ele>
        <time>2019-06-19T17:44:10Z</time>
      </trkpt>
      <trkpt lat="43.693862" lon="-7.448249">
        <ele>6.587</ele>
        <time>2019-06-19T17:44:11Z</time>
      </trkpt>
      <trkpt lat="43.693812" lon="-7.448391">
        <ele>6.442</ele>
        <time>2019-06-19T17:44:12Z</time>
      </trkpt>
      <trkpt lat="43.693743" lon="-7.448531">
        <ele>5.626</ele>
        <time>2019-06-19T17:44:13Z</time>
      </trkpt>
      <trkpt lat="43.693669" lon="-7.448698">
        <ele>5.008</ele>
        <time>2019-06-19T17:44:14Z</time>
      </trkpt>
      <trkpt lat="43.693611" lon="-7.448854">
        <ele>4.921</ele>
        <time>2019-06-19T17:44:15Z</time>
      </trkpt>
      <trkpt lat="43.693551" lon="-7.449012">
        <ele>6.535</ele>
        <time>2019-06-19T17:44:16Z</time>
      </trkpt>
      <trkpt lat="43.693502" lon="-7.449173">
        <ele>8.326</ele>
        <time>2019-06-19T17:44:17Z</time>
      </trkpt>
      <trkpt lat="43.693464" lon="-7.449348">
        <ele>10.919</ele>
        <time>2019-06-19T17:44:18Z</time>
      </trkpt>
      <trkpt lat="43.693432" lon="-7.449527">
        <ele>13.779</ele>
        <time>2019-06-19T17:44:19Z</time>
      </trkpt>
      <trkpt lat="43.693405" lon="-7.449721">
        <ele>17.075</ele>
        <time>2019-06-19T17:44:20Z</time>
      </trkpt>
      <trkpt lat="43.693379" lon="-7.449925">
        <ele>17.123</ele>
        <time>2019-06-19T17:44:21Z</time>
      </trkpt>
      <trkpt lat="43.693333" lon="-7.450115">
        <ele>17.083</ele>
        <time>2019-06-19T17:44:22Z</time>
      </trkpt>
      <trkpt lat="43.693287" lon="-7.450277">
        <ele>16.346</ele>
        <time>2019-06-19T17:44:23Z</time>
      </trkpt>
      <trkpt lat="43.693246" lon="-7.450435">
        <ele>17.188</ele>
        <time>2019-06-19T17:44:24Z</time>
      </trkpt>
      <trkpt lat="43.693205" lon="-7.450564">
        <ele>17.716</ele>
        <time>2019-06-19T17:44:25Z</time>
      </trkpt>
      <trkpt lat="43.693167" lon="-7.450656">
        <ele>17.708</ele>
        <time>2019-06-19T17:44:26Z</time>
      </trkpt>
      <trkpt lat="43.693139" lon="-7.450734">
        <ele>17.757</ele>
        <time>2019-06-19T17:44:27Z</time>
      </trkpt>
      <trkpt lat="43.693111" lon="-7.450821">
        <ele>17.711</ele>
        <time>2019-06-19T17:44:28Z</time>
      </trkpt>
      <trkpt lat="43.693081" lon="-7.450930">
        <ele>17.742</ele>
        <time>2019-06-19T17:44:29Z</time>
      </trkpt>
      <trkpt lat="43.693057" lon="-7.451061">
        <ele>17.875</ele>
        <time>2019-06-19T17:44:30Z</time>
      </trkpt>
      <trkpt lat="43.693046" lon="-7.451229">
        <ele>17.585</ele>
        <time>2019-06-19T17:44:31Z</time>
      </trkpt>
      <trkpt lat="43.693022" lon="-7.451420">
        <ele>16.951</ele>
        <time>2019-06-19T17:44:32Z</time>
      </trkpt>
      <trkpt lat="43.693006" lon="-7.451617">
        <ele>17.679</ele>
        <time>2019-06-19T17:44:33Z</time>
      </trkpt>
      <trkpt lat="43.692978" lon="-7.451829">
        <ele>17.979</ele>
        <time>2019-06-19T17:44:34Z</time>
      </trkpt>
      <trkpt lat="43.692955" lon="-7.452048">
        <ele>18.552</ele>
        <time>2019-06-19T17:44:35Z</time>
      </trkpt>
      <trkpt lat="43.692930" lon="-7.452281">
        <ele>19.453</ele>
        <time>2019-06-19T17:44:36Z</time>
      </trkpt>
      <trkpt lat="43.692912" lon="-7.452514">
        <ele>20.508</ele>
        <time>2019-06-19T17:44:37Z</time>
      </trkpt>
      <trkpt lat="43.692887" lon="-7.452752">
        <ele>20.908</ele>
        <time>2019-06-19T17:44:38Z</time>
      </trkpt>
      <trkpt lat="43.692881" lon="-7.452976">
        <ele>21.368</ele>
        <time>2019-06-19T17:44:39Z</time>
      </trkpt>
      <trkpt lat="43.692889" lon="-7.453175">
        <ele>21.612</ele>
        <time>2019-06-19T17:44:40Z</time>
      </trkpt>
      <trkpt lat="43.692910" lon="-7.453358">
        <ele>22.053</ele>
        <time>2019-06-19T17:44:41Z</time>
      </trkpt>
      <trkpt lat="43.692953" lon="-7.453534">
        <ele>23.256</ele>
        <time>2019-06-19T17:44:42Z</time>
      </trkpt>
      <trkpt lat="43.693007" lon="-7.453693">
        <ele>24.196</ele>
        <time>2019-06-19T17:44:43Z</time>
      </trkpt>
      <trkpt lat="43.693064" lon="-7.453850">
        <ele>24.322</ele>
        <time>2019-06-19T17:44:44Z</time>
      </trkpt>
      <trkpt lat="43.693120" lon="-7.453996">
        <ele>24.660</ele>
        <time>2019-06-19T17:44:45Z</time>
      </trkpt>
      <trkpt lat="43.693146" lon="-7.454171">
        <ele>24.670</ele>
        <time>2019-06-19T17:44:46Z</time>
      </trkpt>
      <trkpt lat="43.693151" lon="-7.454351">
        <ele>25.295</ele>
        <time>2019-06-19T17:44:47Z</time>
      </trkpt>
      <trkpt lat="43.693155" lon="-7.454548">
        <ele>25.549</ele>
        <time>2019-06-19T17:44:48Z</time>
      </trkpt>
      <trkpt lat="43.693142" lon="-7.454741">
        <ele>25.823</ele>
        <time>2019-06-19T17:44:49Z</time>
      </trkpt>
      <trkpt lat="43.693130" lon="-7.454933">
        <ele>27.808</ele>
        <time>2019-06-19T17:44:50Z</time>
      </trkpt>
      <trkpt lat="43.693118" lon="-7.455128">
        <ele>29.652</ele>
        <time>2019-06-19T17:44:51Z</time>
      </trkpt>
      <trkpt lat="43.693106" lon="-7.455336">
        <ele>31.726</ele>
        <time>2019-06-19T17:44:52Z</time>
      </trkpt>
      <trkpt lat="43.693088" lon="-7.455526">
        <ele>34.177</ele>
        <time>2019-06-19T17:44:53Z</time>
      </trkpt>
      <trkpt lat="43.693065" lon="-7.455743">
        <ele>36.970</ele>
        <time>2019-06-19T17:44:54Z</time>
      </trkpt>
      <trkpt lat="43.693038" lon="-7.455961">
        <ele>39.690</ele>
        <time>2019-06-19T17:44:55Z</time>
      </trkpt>
      <trkpt lat="43.693009" lon="-7.456186">
        <ele>42.246</ele>
        <time>2019-06-19T17:44:56Z</time>
      </trkpt>
      <trkpt lat="43.692976" lon="-7.456423">
        <ele>44.164</ele>
        <time>2019-06-19T17:44:57Z</time>
      </trkpt>
      <trkpt lat="43.692919" lon="-7.456652">
        <ele>45.954</ele>
        <time>2019-06-19T17:44:58Z</time>
      </trkpt>
      <trkpt lat="43.692873" lon="-7.456884">
        <ele>47.415</ele>
        <time>2019-06-19T17:44:59Z</time>
      </trkpt>
      <trkpt lat="43.692804" lon="-7.457123">
        <ele>48.565</ele>
        <time>2019-06-19T17:45:00Z</time>
      </trkpt>
      <trkpt lat="43.692729" lon="-7.457356">
        <ele>49.711</ele>
        <time>2019-06-19T17:45:01Z</time>
      </trkpt>
      <trkpt lat="43.692656" lon="-7.457588">
        <ele>51.108</ele>
        <time>2019-06-19T17:45:02Z</time>
      </trkpt>
      <trkpt lat="43.692571" lon="-7.457827">
        <ele>53.054</ele>
        <time>2019-06-19T17:45:03Z</time>
      </trkpt>
      <trkpt lat="43.692480" lon="-7.458016">
        <ele>54.138</ele>
        <time>2019-06-19T17:45:04Z</time>
      </trkpt>
      <trkpt lat="43.692395" lon="-7.458221">
        <ele>54.259</ele>
        <time>2019-06-19T17:45:05Z</time>
      </trkpt>
      <trkpt lat="43.692302" lon="-7.458439">
        <ele>53.922</ele>
        <time>2019-06-19T17:45:06Z</time>
      </trkpt>
      <trkpt lat="43.692206" lon="-7.458645">
        <ele>53.172</ele>
        <time>2019-06-19T17:45:07Z</time>
      </trkpt>
      <trkpt lat="43.692099" lon="-7.458835">
        <ele>53.328</ele>
        <time>2019-06-19T17:45:08Z</time>
      </trkpt>
      <trkpt lat="43.691968" lon="-7.459010">
        <ele>53.876</ele>
        <time>2019-06-19T17:45:09Z</time>
      </trkpt>
      <trkpt lat="43.691828" lon="-7.459167">
        <ele>56.986</ele>
        <time>2019-06-19T17:45:10Z</time>
      </trkpt>
      <trkpt lat="43.691675" lon="-7.459305">
        <ele>60.315</ele>
        <time>2019-06-19T17:45:11Z</time>
      </trkpt>
      <trkpt lat="43.691513" lon="-7.459422">
        <ele>62.365</ele>
        <time>2019-06-19T17:45:12Z</time>
      </trkpt>
      <trkpt lat="43.691343" lon="-7.459523">
        <ele>64.411</ele>
        <time>2019-06-19T17:45:13Z</time>
      </trkpt>
      <trkpt lat="43.691177" lon="-7.459615">
        <ele>64.908</ele>
        <time>2019-06-19T17:45:14Z</time>
      </trkpt>
      <trkpt lat="43.691003" lon="-7.459703">
        <ele>64.214</ele>
        <time>2019-06-19T17:45:15Z</time>
      </trkpt>
      <trkpt lat="43.690830" lon="-7.459792">
        <ele>64.018</ele>
        <time>2019-06-19T17:45:16Z</time>
      </trkpt>
      <trkpt lat="43.690653" lon="-7.459876">
        <ele>64.419</ele>
        <time>2019-06-19T17:45:17Z</time>
      </trkpt>
      <trkpt lat="43.690477" lon="-7.459962">
        <ele>68.552</ele>
        <time>2019-06-19T17:45:18Z</time>
      </trkpt>
      <trkpt lat="43.690301" lon="-7.460043">
        <ele>75.922</ele>
        <time>2019-06-19T17:45:19Z</time>
      </trkpt>
      <trkpt lat="43.690130" lon="-7.460123">
        <ele>80.248</ele>
        <time>2019-06-19T17:45:20Z</time>
      </trkpt>
      <trkpt lat="43.689965" lon="-7.460206">
        <ele>82.626</ele>
        <time>2019-06-19T17:45:21Z</time>
      </trkpt>
      <trkpt lat="43.689812" lon="-7.460301">
        <ele>83.726</ele>
        <time>2019-06-19T17:45:22Z</time>
      </trkpt>
      <trkpt lat="43.689669" lon="-7.460416">
        <ele>84.895</ele>
        <time>2019-06-19T17:45:23Z</time>
      </trkpt>
      <trkpt lat="43.689538" lon="-7.460547">
        <ele>86.349</ele>
        <time>2019-06-19T17:45:24Z</time>
      </trkpt>
      <trkpt lat="43.689419" lon="-7.460706">
        <ele>88.023</ele>
        <time>2019-06-19T17:45:25Z</time>
      </trkpt>
      <trkpt lat="43.689303" lon="-7.460875">
        <ele>89.208</ele>
        <time>2019-06-19T17:45:26Z</time>
      </trkpt>
      <trkpt lat="43.689184" lon="-7.461054">
        <ele>91.242</ele>
        <time>2019-06-19T17:45:27Z</time>
      </trkpt>
      <trkpt lat="43.689063" lon="-7.461234">
        <ele>93.176</ele>
        <time>2019-06-19T17:45:28Z</time>
      </trkpt>
      <trkpt lat="43.688943" lon="-7.461417">
        <ele>93.797</ele>
        <time>2019-06-19T17:45:29Z</time>
      </trkpt>
      <trkpt lat="43.688819" lon="-7.461608">
        <ele>92.630</ele>
        <time>2019-06-19T17:45:30Z</time>
      </trkpt>
      <trkpt lat="43.688694" lon="-7.461802">
        <ele>90.810</ele>
        <time>2019-06-19T17:45:31Z</time>
      </trkpt>
      <trkpt lat="43.688569" lon="-7.461986">
        <ele>90.316</ele>
        <time>2019-06-19T17:45:32Z</time>
      </trkpt>
      <trkpt lat="43.688436" lon="-7.462179">
        <ele>91.284</ele>
        <time>2019-06-19T17:45:33Z</time>
      </trkpt>
      <trkpt lat="43.688303" lon="-7.462369">
        <ele>91.394</ele>
        <time>2019-06-19T17:45:34Z</time>
      </trkpt>
      <trkpt lat="43.688172" lon="-7.462559">
        <ele>90.214</ele>
        <time>2019-06-19T17:45:35Z</time>
      </trkpt>
      <trkpt lat="43.688045" lon="-7.462747">
        <ele>88.054</ele>
        <time>2019-06-19T17:45:36Z</time>
      </trkpt>
      <trkpt lat="43.687918" lon="-7.462937">
        <ele>87.409</ele>
        <time>2019-06-19T17:45:37Z</time>
      </trkpt>
      <trkpt lat="43.687797" lon="-7.463119">
        <ele>87.408</ele>
        <time>2019-06-19T17:45:38Z</time>
      </trkpt>
      <trkpt lat="43.687679" lon="-7.463279">
        <ele>87.764</ele>
        <time>2019-06-19T17:45:39Z</time>
      </trkpt>
      <trkpt lat="43.687564" lon="-7.463446">
        <ele>88.848</ele>
        <time>2019-06-19T17:45:40Z</time>
      </trkpt>
      <trkpt lat="43.687450" lon="-7.463606">
        <ele>89.689</ele>
        <time>2019-06-19T17:45:41Z</time>
      </trkpt>
      <trkpt lat="43.687346" lon="-7.463761">
        <ele>90.182</ele>
        <time>2019-06-19T17:45:42Z</time>
      </trkpt>
      <trkpt lat="43.687244" lon="-7.463903">
        <ele>91.962</ele>
        <time>2019-06-19T17:45:43Z</time>
      </trkpt>
      <trkpt lat="43.687143" lon="-7.464052">
        <ele>92.658</ele>
        <time>2019-06-19T17:45:44Z</time>
      </trkpt>
      <trkpt lat="43.687045" lon="-7.464187">
        <ele>93.026</ele>
        <time>2019-06-19T17:45:45Z</time>
      </trkpt>
      <trkpt lat="43.686955" lon="-7.464338">
        <ele>93.046</ele>
        <time>2019-06-19T17:45:46Z</time>
      </trkpt>
      <trkpt lat="43.686876" lon="-7.464485">
        <ele>92.688</ele>
        <time>2019-06-19T17:45:47Z</time>
      </trkpt>
      <trkpt lat="43.686815" lon="-7.464623">
        <ele>91.924</ele>
        <time>2019-06-19T17:45:48Z</time>
      </trkpt>
      <trkpt lat="43.686773" lon="-7.464765">
        <ele>91.626</ele>
        <time>2019-06-19T17:45:49Z</time>
      </trkpt>
      <trkpt lat="43.686746" lon="-7.464926">
        <ele>92.508</ele>
        <time>2019-06-19T17:45:50Z</time>
      </trkpt>
      <trkpt lat="43.686720" lon="-7.465104">
        <ele>93.421</ele>
        <time>2019-06-19T17:45:51Z</time>
      </trkpt>
      <trkpt lat="43.686709" lon="-7.465288">
        <ele>94.045</ele>
        <time>2019-06-19T17:45:52Z</time>
      </trkpt>
      <trkpt lat="43.686703" lon="-7.465500">
        <ele>94.716</ele>
        <time>2019-06-19T17:45:53Z</time>
      </trkpt>
      <trkpt lat="43.686680" lon="-7.465730">
        <ele>94.339</ele>
        <time>2019-06-19T17:45:54Z</time>
      </trkpt>
      <trkpt lat="43.686654" lon="-7.465973">
        <ele>94.189</ele>
        <time>2019-06-19T17:45:55Z</time>
      </trkpt>
      <trkpt lat="43.686623" lon="-7.466235">
        <ele>94.365</ele>
        <time>2019-06-19T17:45:56Z</time>
      </trkpt>
      <trkpt lat="43.686596" lon="-7.466504">
        <ele>94.933</ele>
        <time>2019-06-19T17:45:57Z</time>
      </trkpt>
      <trkpt lat="43.686570" lon="-7.466773">
        <ele>96.453</ele>
        <time>2019-06-19T17:45:58Z</time>
      </trkpt>
      <trkpt lat="43.686550" lon="-7.467040">
        <ele>99.338</ele>
        <time>2019-06-19T17:45:59Z</time>
      </trkpt>
      <trkpt lat="43.686533" lon="-7.467302">
        <ele>103.270</ele>
        <time>2019-06-19T17:46:00Z</time>
      </trkpt>
      <trkpt lat="43.686515" lon="-7.467557">
        <ele>106.117</ele>
        <time>2019-06-19T17:46:01Z</time>
      </trkpt>
      <trkpt lat="43.686504" lon="-7.467807">
        <ele>108.108</ele>
        <time>2019-06-19T17:46:02Z</time>
      </trkpt>
      <trkpt lat="43.686501" lon="-7.468054">
        <ele>109.236</ele>
        <time>2019-06-19T17:46:03Z</time>
      </trkpt>
      <trkpt lat="43.686510" lon="-7.468295">
        <ele>109.870</ele>
        <time>2019-06-19T17:46:04Z</time>
      </trkpt>
      <trkpt lat="43.686533" lon="-7.468554">
        <ele>109.091</ele>
        <time>2019-06-19T17:46:05Z</time>
      </trkpt>
      <trkpt lat="43.686585" lon="-7.468812">
        <ele>106.684</ele>
        <time>2019-06-19T17:46:06Z</time>
      </trkpt>
      <trkpt lat="43.686631" lon="-7.469069">
        <ele>104.974</ele>
        <time>2019-06-19T17:46:07Z</time>
      </trkpt>
      <trkpt lat="43.686702" lon="-7.469318">
        <ele>103.650</ele>
        <time>2019-06-19T17:46:08Z</time>
      </trkpt>
      <trkpt lat="43.686743" lon="-7.469577">
        <ele>103.348</ele>
        <time>2019-06-19T17:46:09Z</time>
      </trkpt>
      <trkpt lat="43.686800" lon="-7.469844">
        <ele>102.178</ele>
        <time>2019-06-19T17:46:10Z</time>
      </trkpt>
      <trkpt lat="43.686849" lon="-7.470125">
        <ele>99.874</ele>
        <time>2019-06-19T17:46:11Z</time>
      </trkpt>
      <trkpt lat="43.686881" lon="-7.470394">
        <ele>97.656</ele>
        <time>2019-06-19T17:46:12Z</time>
      </trkpt>
      <trkpt lat="43.686907" lon="-7.470674">
        <ele>96.521</ele>
        <time>2019-06-19T17:46:13Z</time>
      </trkpt>
      <trkpt lat="43.686926" lon="-7.470950">
        <ele>96.308</ele>
        <time>2019-06-19T17:46:14Z</time>
      </trkpt>
      <trkpt lat="43.686928" lon="-7.471214">
        <ele>96.440</ele>
        <time>2019-06-19T17:46:15Z</time>
      </trkpt>
      <trkpt lat="43.686928" lon="-7.471469">
        <ele>96.074</ele>
        <time>2019-06-19T17:46:16Z</time>
      </trkpt>
      <trkpt lat="43.686923" lon="-7.471717">
        <ele>95.275</ele>
        <time>2019-06-19T17:46:17Z</time>
      </trkpt>
      <trkpt lat="43.686913" lon="-7.471965">
        <ele>94.238</ele>
        <time>2019-06-19T17:46:18Z</time>
      </trkpt>
      <trkpt lat="43.686879" lon="-7.472200">
        <ele>92.798</ele>
        <time>2019-06-19T17:46:19Z</time>
      </trkpt>
      <trkpt lat="43.686820" lon="-7.472427">
        <ele>91.434</ele>
        <time>2019-06-19T17:46:20Z</time>
      </trkpt>
      <trkpt lat="43.686747" lon="-7.472651">
        <ele>90.042</ele>
        <time>2019-06-19T17:46:21Z</time>
      </trkpt>
      <trkpt lat="43.686658" lon="-7.472873">
        <ele>88.212</ele>
        <time>2019-06-19T17:46:22Z</time>
      </trkpt>
      <trkpt lat="43.686571" lon="-7.473095">
        <ele>86.144</ele>
        <time>2019-06-19T17:46:23Z</time>
      </trkpt>
      <trkpt lat="43.686482" lon="-7.473316">
        <ele>83.405</ele>
        <time>2019-06-19T17:46:24Z</time>
      </trkpt>
      <trkpt lat="43.686379" lon="-7.473528">
        <ele>81.415</ele>
        <time>2019-06-19T17:46:25Z</time>
      </trkpt>
      <trkpt lat="43.686293" lon="-7.473747">
        <ele>80.208</ele>
        <time>2019-06-19T17:46:26Z</time>
      </trkpt>
      <trkpt lat="43.686212" lon="-7.473947">
        <ele>78.737</ele>
        <time>2019-06-19T17:46:27Z</time>
      </trkpt>
      <trkpt lat="43.686144" lon="-7.474162">
        <ele>74.781</ele>
        <time>2019-06-19T17:46:28Z</time>
      </trkpt>
      <trkpt lat="43.686090" lon="-7.474379">
        <ele>74.642</ele>
        <time>2019-06-19T17:46:29Z</time>
      </trkpt>
      <trkpt lat="43.686050" lon="-7.474616">
        <ele>75.215</ele>
        <time>2019-06-19T17:46:30Z</time>
      </trkpt>
      <trkpt lat="43.686036" lon="-7.474848">
        <ele>75.535</ele>
        <time>2019-06-19T17:46:31Z</time>
      </trkpt>
      <trkpt lat="43.686021" lon="-7.475081">
        <ele>75.671</ele>
        <time>2019-06-19T17:46:32Z</time>
      </trkpt>
      <trkpt lat="43.686019" lon="-7.475307">
        <ele>75.799</ele>
        <time>2019-06-19T17:46:33Z</time>
      </trkpt>
      <trkpt lat="43.686009" lon="-7.475533">
        <ele>76.549</ele>
        <time>2019-06-19T17:46:34Z</time>
      </trkpt>
      <trkpt lat="43.685990" lon="-7.475751">
        <ele>77.137</ele>
        <time>2019-06-19T17:46:35Z</time>
      </trkpt>
      <trkpt lat="43.685956" lon="-7.475972">
        <ele>77.149</ele>
        <time>2019-06-19T17:46:36Z</time>
      </trkpt>
      <trkpt lat="43.685898" lon="-7.476179">
        <ele>76.913</ele>
        <time>2019-06-19T17:46:37Z</time>
      </trkpt>
      <trkpt lat="43.685839" lon="-7.476373">
        <ele>75.208</ele>
        <time>2019-06-19T17:46:38Z</time>
      </trkpt>
      <trkpt lat="43.685762" lon="-7.476553">
        <ele>72.766</ele>
        <time>2019-06-19T17:46:39Z</time>
      </trkpt>
      <trkpt lat="43.685674" lon="-7.476727">
        <ele>69.780</ele>
        <time>2019-06-19T17:46:40Z</time>
      </trkpt>
      <trkpt lat="43.685529" lon="-7.476830">
        <ele>67.171</ele>
        <time>2019-06-19T17:46:41Z</time>
      </trkpt>
      <trkpt lat="43.685415" lon="-7.476984">
        <ele>64.734</ele>
        <time>2019-06-19T17:46:42Z</time>
      </trkpt>
      <trkpt lat="43.685285" lon="-7.477115">
        <ele>62.274</ele>
        <time>2019-06-19T17:46:43Z</time>
      </trkpt>
      <trkpt lat="43.685170" lon="-7.477252">
        <ele>61.150</ele>
        <time>2019-06-19T17:46:44Z</time>
      </trkpt>
      <trkpt lat="43.685068" lon="-7.477386">
        <ele>59.758</ele>
        <time>2019-06-19T17:46:45Z</time>
      </trkpt>
      <trkpt lat="43.684967" lon="-7.477528">
        <ele>57.928</ele>
        <time>2019-06-19T17:46:46Z</time>
      </trkpt>
      <trkpt lat="43.684887" lon="-7.477680">
        <ele>57.149</ele>
        <time>2019-06-19T17:46:47Z</time>
      </trkpt>
      <trkpt lat="43.684818" lon="-7.477830">
        <ele>56.502</ele>
        <time>2019-06-19T17:46:48Z</time>
      </trkpt>
      <trkpt lat="43.684760" lon="-7.477976">
        <ele>56.122</ele>
        <time>2019-06-19T17:46:49Z</time>
      </trkpt>
      <trkpt lat="43.684710" lon="-7.478131">
        <ele>56.108</ele>
        <time>2019-06-19T17:46:50Z</time>
      </trkpt>
      <trkpt lat="43.684679" lon="-7.478276">
        <ele>56.367</ele>
        <time>2019-06-19T17:46:51Z</time>
      </trkpt>
      <trkpt lat="43.684652" lon="-7.478425">
        <ele>56.621</ele>
        <time>2019-06-19T17:46:52Z</time>
      </trkpt>
      <trkpt lat="43.684635" lon="-7.478561">
        <ele>56.982</ele>
        <time>2019-06-19T17:46:53Z</time>
      </trkpt>
      <trkpt lat="43.684630" lon="-7.478697">
        <ele>57.015</ele>
        <time>2019-06-19T17:46:54Z</time>
      </trkpt>
      <trkpt lat="43.684636" lon="-7.478827">
        <ele>56.975</ele>
        <time>2019-06-19T17:46:55Z</time>
      </trkpt>
      <trkpt lat="43.684646" lon="-7.478948">
        <ele>56.861</ele>
        <time>2019-06-19T17:46:56Z</time>
      </trkpt>
      <trkpt lat="43.684663" lon="-7.479058">
        <ele>56.649</ele>
        <time>2019-06-19T17:46:57Z</time>
      </trkpt>
      <trkpt lat="43.684690" lon="-7.479162">
        <ele>56.329</ele>
        <time>2019-06-19T17:46:58Z</time>
      </trkpt>
      <trkpt lat="43.684727" lon="-7.479248">
        <ele>56.384</ele>
        <time>2019-06-19T17:46:59Z</time>
      </trkpt>
      <trkpt lat="43.684767" lon="-7.479307">
        <ele>56.207</ele>
        <time>2019-06-19T17:47:00Z</time>
      </trkpt>
      <trkpt lat="43.684816" lon="-7.479368">
        <ele>56.217</ele>
        <time>2019-06-19T17:47:01Z</time>
      </trkpt>
      <trkpt lat="43.684860" lon="-7.479436">
        <ele>56.408</ele>
        <time>2019-06-19T17:47:02Z</time>
      </trkpt>
      <trkpt lat="43.684884" lon="-7.479498">
        <ele>56.991</ele>
        <time>2019-06-19T17:47:03Z</time>
      </trkpt>
      <trkpt lat="43.684884" lon="-7.479575">
        <ele>57.625</ele>
        <time>2019-06-19T17:47:04Z</time>
      </trkpt>
      <trkpt lat="43.684863" lon="-7.479656">
        <ele>58.466</ele>
        <time>2019-06-19T17:47:05Z</time>
      </trkpt>
      <trkpt lat="43.684827" lon="-7.479733">
        <ele>59.059</ele>
        <time>2019-06-19T17:47:06Z</time>
      </trkpt>
      <trkpt lat="43.684788" lon="-7.479811">
        <ele>59.239</ele>
        <time>2019-06-19T17:47:07Z</time>
      </trkpt>
      <trkpt lat="43.684761" lon="-7.479901">
        <ele>59.675</ele>
        <time>2019-06-19T17:47:08Z</time>
      </trkpt>
      <trkpt lat="43.684751" lon="-7.480006">
        <ele>59.993</ele>
        <time>2019-06-19T17:47:09Z</time>
      </trkpt>
      <trkpt lat="43.684764" lon="-7.480107">
        <ele>59.713</ele>
        <time>2019-06-19T17:47:10Z</time>
      </trkpt>
      <trkpt lat="43.684787" lon="-7.480249">
        <ele>59.355</ele>
        <time>2019-06-19T17:47:11Z</time>
      </trkpt>
      <trkpt lat="43.684805" lon="-7.480404">
        <ele>59.107</ele>
        <time>2019-06-19T17:47:12Z</time>
      </trkpt>
      <trkpt lat="43.684822" lon="-7.480569">
        <ele>58.917</ele>
        <time>2019-06-19T17:47:13Z</time>
      </trkpt>
      <trkpt lat="43.684839" lon="-7.480751">
        <ele>59.008</ele>
        <time>2019-06-19T17:47:14Z</time>
      </trkpt>
      <trkpt lat="43.684860" lon="-7.480926">
        <ele>59.268</ele>
        <time>2019-06-19T17:47:15Z</time>
      </trkpt>
      <trkpt lat="43.684878" lon="-7.481080">
        <ele>59.462</ele>
        <time>2019-06-19T17:47:16Z</time>
      </trkpt>
      <trkpt lat="43.684889" lon="-7.481233">
        <ele>59.433</ele>
        <time>2019-06-19T17:47:17Z</time>
      </trkpt>
      <trkpt lat="43.684901" lon="-7.481365">
        <ele>59.456</ele>
        <time>2019-06-19T17:47:18Z</time>
      </trkpt>
      <trkpt lat="43.684906" lon="-7.481501">
        <ele>59.366</ele>
        <time>2019-06-19T17:47:19Z</time>
      </trkpt>
      <trkpt lat="43.684907" lon="-7.481616">
        <ele>59.382</ele>
        <time>2019-06-19T17:47:20Z</time>
      </trkpt>
      <trkpt lat="43.684910" lon="-7.481687">
        <ele>59.390</ele>
        <time>2019-06-19T17:47:21Z</time>
      </trkpt>
      <trkpt lat="43.684911" lon="-7.481751">
        <ele>59.360</ele>
        <time>2019-06-19T17:47:22Z</time>
      </trkpt>
      <trkpt lat="43.684912" lon="-7.481816">
        <ele>59.386</ele>
        <time>2019-06-19T17:47:23Z</time>
      </trkpt>
      <trkpt lat="43.684902" lon="-7.481882">
        <ele>59.460</ele>
        <time>2019-06-19T17:47:25Z</time>
      </trkpt>
      <trkpt lat="43.684859" lon="-7.481848">
        <ele>60.026</ele>
        <time>2019-06-19T17:47:28Z</time>
      </trkpt>
      <trkpt lat="43.684859" lon="-7.481742">
        <ele>60.008</ele>
        <time>2019-06-19T17:47:30Z</time>
      </trkpt>
      <trkpt lat="43.684865" lon="-7.481645">
        <ele>59.961</ele>
        <time>2019-06-19T17:47:31Z</time>
      </trkpt>
      <trkpt lat="43.684866" lon="-7.481529">
        <ele>59.765</ele>
        <time>2019-06-19T17:47:32Z</time>
      </trkpt>
      <trkpt lat="43.684864" lon="-7.481401">
        <ele>59.516</ele>
        <time>2019-06-19T17:47:33Z</time>
      </trkpt>
      <trkpt lat="43.684831" lon="-7.481254">
        <ele>59.669</ele>
        <time>2019-06-19T17:47:34Z</time>
      </trkpt>
      <trkpt lat="43.684820" lon="-7.481120">
        <ele>59.689</ele>
        <time>2019-06-19T17:47:35Z</time>
      </trkpt>
      <trkpt lat="43.684793" lon="-7.480986">
        <ele>59.665</ele>
        <time>2019-06-19T17:47:36Z</time>
      </trkpt>
      <trkpt lat="43.684789" lon="-7.480879">
        <ele>59.613</ele>
        <time>2019-06-19T17:47:37Z</time>
      </trkpt>
      <trkpt lat="43.684789" lon="-7.480796">
        <ele>59.523</ele>
        <time>2019-06-19T17:47:38Z</time>
      </trkpt>
      <trkpt lat="43.684796" lon="-7.480733">
        <ele>59.431</ele>
        <time>2019-06-19T17:47:39Z</time>
      </trkpt>
      <trkpt lat="43.684830" lon="-7.480645">
        <ele>59.061</ele>
        <time>2019-06-19T17:47:41Z</time>
      </trkpt>
      <trkpt lat="43.684921" lon="-7.480612">
        <ele>58.007</ele>
        <time>2019-06-19T17:47:43Z</time>
      </trkpt>
      <trkpt lat="43.684990" lon="-7.480629">
        <ele>57.408</ele>
        <time>2019-06-19T17:47:44Z</time>
      </trkpt>
      <trkpt lat="43.685060" lon="-7.480645">
        <ele>57.316</ele>
        <time>2019-06-19T17:47:45Z</time>
      </trkpt>
      <trkpt lat="43.685173" lon="-7.480705">
        <ele>57.540</ele>
        <time>2019-06-19T17:47:46Z</time>
      </trkpt>
      <trkpt lat="43.685280" lon="-7.480753">
        <ele>57.761</ele>
        <time>2019-06-19T17:47:47Z</time>
      </trkpt>
      <trkpt lat="43.685398" lon="-7.480809">
        <ele>58.024</ele>
        <time>2019-06-19T17:47:48Z</time>
      </trkpt>
      <trkpt lat="43.685528" lon="-7.480863">
        <ele>58.024</ele>
        <time>2019-06-19T17:47:49Z</time>
      </trkpt>
      <trkpt lat="43.685666" lon="-7.480919">
        <ele>58.360</ele>
        <time>2019-06-19T17:47:50Z</time>
      </trkpt>
      <trkpt lat="43.685801" lon="-7.480978">
        <ele>58.498</ele>
        <time>2019-06-19T17:47:51Z</time>
      </trkpt>
      <trkpt lat="43.685937" lon="-7.481032">
        <ele>58.788</ele>
        <time>2019-06-19T17:47:52Z</time>
      </trkpt>
      <trkpt lat="43.686068" lon="-7.481077">
        <ele>59.042</ele>
        <time>2019-06-19T17:47:53Z</time>
      </trkpt>
      <trkpt lat="43.686201" lon="-7.481121">
        <ele>58.922</ele>
        <time>2019-06-19T17:47:54Z</time>
      </trkpt>
      <trkpt lat="43.686318" lon="-7.481165">
        <ele>58.314</ele>
        <time>2019-06-19T17:47:55Z</time>
      </trkpt>
      <trkpt lat="43.686450" lon="-7.481214">
        <ele>56.808</ele>
        <time>2019-06-19T17:47:56Z</time>
      </trkpt>
      <trkpt lat="43.686583" lon="-7.481272">
        <ele>54.217</ele>
        <time>2019-06-19T17:47:57Z</time>
      </trkpt>
      <trkpt lat="43.686711" lon="-7.481323">
        <ele>52.311</ele>
        <time>2019-06-19T17:47:58Z</time>
      </trkpt>
      <trkpt lat="43.686832" lon="-7.481384">
        <ele>51.712</ele>
        <time>2019-06-19T17:47:59Z</time>
      </trkpt>
      <trkpt lat="43.686935" lon="-7.481423">
        <ele>51.555</ele>
        <time>2019-06-19T17:48:00Z</time>
      </trkpt>
      <trkpt lat="43.687037" lon="-7.481475">
        <ele>51.025</ele>
        <time>2019-06-19T17:48:01Z</time>
      </trkpt>
      <trkpt lat="43.687128" lon="-7.481519">
        <ele>50.781</ele>
        <time>2019-06-19T17:48:02Z</time>
      </trkpt>
      <trkpt lat="43.687210" lon="-7.481561">
        <ele>50.719</ele>
        <time>2019-06-19T17:48:03Z</time>
      </trkpt>
      <trkpt lat="43.687286" lon="-7.481597">
        <ele>48.919</ele>
        <time>2019-06-19T17:48:04Z</time>
      </trkpt>
      <trkpt lat="43.687369" lon="-7.481616">
        <ele>46.822</ele>
        <time>2019-06-19T17:48:05Z</time>
      </trkpt>
      <trkpt lat="43.687461" lon="-7.481614">
        <ele>44.662</ele>
        <time>2019-06-19T17:48:06Z</time>
      </trkpt>
      <trkpt lat="43.687534" lon="-7.481578">
        <ele>42.308</ele>
        <time>2019-06-19T17:48:07Z</time>
      </trkpt>
      <trkpt lat="43.687611" lon="-7.481516">
        <ele>39.608</ele>
        <time>2019-06-19T17:48:08Z</time>
      </trkpt>
      <trkpt lat="43.687689" lon="-7.481435">
        <ele>37.285</ele>
        <time>2019-06-19T17:48:09Z</time>
      </trkpt>
      <trkpt lat="43.687776" lon="-7.481351">
        <ele>35.259</ele>
        <time>2019-06-19T17:48:10Z</time>
      </trkpt>
      <trkpt lat="43.687846" lon="-7.481267">
        <ele>34.720</ele>
        <time>2019-06-19T17:48:11Z</time>
      </trkpt>
      <trkpt lat="43.687897" lon="-7.481185">
        <ele>34.413</ele>
        <time>2019-06-19T17:48:12Z</time>
      </trkpt>
      <trkpt lat="43.687964" lon="-7.481120">
        <ele>34.033</ele>
        <time>2019-06-19T17:48:13Z</time>
      </trkpt>
      <trkpt lat="43.688026" lon="-7.481075">
        <ele>33.529</ele>
        <time>2019-06-19T17:48:14Z</time>
      </trkpt>
      <trkpt lat="43.688092" lon="-7.481067">
        <ele>33.167</ele>
        <time>2019-06-19T17:48:15Z</time>
      </trkpt>
      <trkpt lat="43.688157" lon="-7.481093">
        <ele>33.017</ele>
        <time>2019-06-19T17:48:16Z</time>
      </trkpt>
      <trkpt lat="43.688218" lon="-7.481145">
        <ele>32.946</ele>
        <time>2019-06-19T17:48:17Z</time>
      </trkpt>
      <trkpt lat="43.688284" lon="-7.481207">
        <ele>32.788</ele>
        <time>2019-06-19T17:48:18Z</time>
      </trkpt>
      <trkpt lat="43.688325" lon="-7.481316">
        <ele>32.316</ele>
        <time>2019-06-19T17:48:19Z</time>
      </trkpt>
      <trkpt lat="43.688374" lon="-7.481405">
        <ele>31.508</ele>
        <time>2019-06-19T17:48:20Z</time>
      </trkpt>
      <trkpt lat="43.688412" lon="-7.481569">
        <ele>30.017</ele>
        <time>2019-06-19T17:48:21Z</time>
      </trkpt>
      <trkpt lat="43.688451" lon="-7.481707">
        <ele>29.021</ele>
        <time>2019-06-19T17:48:22Z</time>
      </trkpt>
      <trkpt lat="43.688491" lon="-7.481840">
        <ele>28.262</ele>
        <time>2019-06-19T17:48:23Z</time>
      </trkpt>
      <trkpt lat="43.688515" lon="-7.482001">
        <ele>27.675</ele>
        <time>2019-06-19T17:48:24Z</time>
      </trkpt>
      <trkpt lat="43.688536" lon="-7.482126">
        <ele>27.495</ele>
        <time>2019-06-19T17:48:25Z</time>
      </trkpt>
      <trkpt lat="43.688556" lon="-7.482257">
        <ele>27.231</ele>
        <time>2019-06-19T17:48:26Z</time>
      </trkpt>
      <trkpt lat="43.688579" lon="-7.482370">
        <ele>27.239</ele>
        <time>2019-06-19T17:48:27Z</time>
      </trkpt>
      <trkpt lat="43.688606" lon="-7.482459">
        <ele>27.119</ele>
        <time>2019-06-19T17:48:28Z</time>
      </trkpt>
      <trkpt lat="43.688617" lon="-7.482533">
        <ele>27.037</ele>
        <time>2019-06-19T17:48:29Z</time>
      </trkpt>
      <trkpt lat="43.688652" lon="-7.482615">
        <ele>27.149</ele>
        <time>2019-06-19T17:48:30Z</time>
      </trkpt>
      <trkpt lat="43.688725" lon="-7.482658">
        <ele>27.513</ele>
        <time>2019-06-19T17:48:31Z</time>
      </trkpt>
      <trkpt lat="43.688779" lon="-7.482640">
        <ele>27.608</ele>
        <time>2019-06-19T17:48:32Z</time>
      </trkpt>
      <trkpt lat="43.688827" lon="-7.482612">
        <ele>27.656</ele>
        <time>2019-06-19T17:48:33Z</time>
      </trkpt>
      <trkpt lat="43.688867" lon="-7.482568">
        <ele>27.530</ele>
        <time>2019-06-19T17:48:34Z</time>
      </trkpt>
      <trkpt lat="43.688976" lon="-7.482424">
        <ele>26.921</ele>
        <time>2019-06-19T17:48:36Z</time>
      </trkpt>
      <trkpt lat="43.689050" lon="-7.482366">
        <ele>26.634</ele>
        <time>2019-06-19T17:48:37Z</time>
      </trkpt>
      <trkpt lat="43.689124" lon="-7.482356">
        <ele>26.874</ele>
        <time>2019-06-19T17:48:38Z</time>
      </trkpt>
      <trkpt lat="43.689200" lon="-7.482371">
        <ele>27.470</ele>
        <time>2019-06-19T17:48:39Z</time>
      </trkpt>
      <trkpt lat="43.689318" lon="-7.482389">
        <ele>28.618</ele>
        <time>2019-06-19T17:48:40Z</time>
      </trkpt>
      <trkpt lat="43.689418" lon="-7.482381">
        <ele>29.298</ele>
        <time>2019-06-19T17:48:41Z</time>
      </trkpt>
      <trkpt lat="43.689507" lon="-7.482346">
        <ele>29.237</ele>
        <time>2019-06-19T17:48:42Z</time>
      </trkpt>
      <trkpt lat="43.689597" lon="-7.482314">
        <ele>29.449</ele>
        <time>2019-06-19T17:48:43Z</time>
      </trkpt>
      <trkpt lat="43.689684" lon="-7.482303">
        <ele>30.113</ele>
        <time>2019-06-19T17:48:44Z</time>
      </trkpt>
      <trkpt lat="43.689781" lon="-7.482321">
        <ele>31.308</ele>
        <time>2019-06-19T17:48:45Z</time>
      </trkpt>
      <trkpt lat="43.689879" lon="-7.482362">
        <ele>32.676</ele>
        <time>2019-06-19T17:48:46Z</time>
      </trkpt>
      <trkpt lat="43.689972" lon="-7.482422">
        <ele>34.040</ele>
        <time>2019-06-19T17:48:47Z</time>
      </trkpt>
      <trkpt lat="43.690046" lon="-7.482462">
        <ele>34.861</ele>
        <time>2019-06-19T17:48:48Z</time>
      </trkpt>
      <trkpt lat="43.690086" lon="-7.482492">
        <ele>35.254</ele>
        <time>2019-06-19T17:48:49Z</time>
      </trkpt>
      <trkpt lat="43.690142" lon="-7.482537">
        <ele>35.934</ele>
        <time>2019-06-19T17:48:51Z</time>
      </trkpt>
      <trkpt lat="43.690235" lon="-7.482598">
        <ele>36.990</ele>
        <time>2019-06-19T17:48:53Z</time>
      </trkpt>
      <trkpt lat="43.690306" lon="-7.482653">
        <ele>37.558</ele>
        <time>2019-06-19T17:48:54Z</time>
      </trkpt>
      <trkpt lat="43.690392" lon="-7.482722">
        <ele>37.748</ele>
        <time>2019-06-19T17:48:55Z</time>
      </trkpt>
      <trkpt lat="43.690482" lon="-7.482802">
        <ele>37.733</ele>
        <time>2019-06-19T17:48:56Z</time>
      </trkpt>
      <trkpt lat="43.690576" lon="-7.482890">
        <ele>37.423</ele>
        <time>2019-06-19T17:48:57Z</time>
      </trkpt>
      <trkpt lat="43.690691" lon="-7.482972">
        <ele>36.215</ele>
        <time>2019-06-19T17:48:58Z</time>
      </trkpt>
      <trkpt lat="43.690807" lon="-7.483049">
        <ele>35.308</ele>
        <time>2019-06-19T17:48:59Z</time>
      </trkpt>
      <trkpt lat="43.690933" lon="-7.483121">
        <ele>34.346</ele>
        <time>2019-06-19T17:49:00Z</time>
      </trkpt>
      <trkpt lat="43.691080" lon="-7.483178">
        <ele>33.540</ele>
        <time>2019-06-19T17:49:01Z</time>
      </trkpt>
      <trkpt lat="43.691203" lon="-7.483225">
        <ele>34.051</ele>
        <time>2019-06-19T17:49:02Z</time>
      </trkpt>
      <trkpt lat="43.691326" lon="-7.483268">
        <ele>34.454</ele>
        <time>2019-06-19T17:49:03Z</time>
      </trkpt>
      <trkpt lat="43.691457" lon="-7.483294">
        <ele>35.374</ele>
        <time>2019-06-19T17:49:04Z</time>
      </trkpt>
      <trkpt lat="43.691593" lon="-7.483331">
        <ele>37.270</ele>
        <time>2019-06-19T17:49:05Z</time>
      </trkpt>
      <trkpt lat="43.691743" lon="-7.483330">
        <ele>38.028</ele>
        <time>2019-06-19T17:49:06Z</time>
      </trkpt>
      <trkpt lat="43.691873" lon="-7.483314">
        <ele>37.988</ele>
        <time>2019-06-19T17:49:07Z</time>
      </trkpt>
      <trkpt lat="43.692020" lon="-7.483308">
        <ele>37.138</ele>
        <time>2019-06-19T17:49:08Z</time>
      </trkpt>
      <trkpt lat="43.692174" lon="-7.483304">
        <ele>35.370</ele>
        <time>2019-06-19T17:49:09Z</time>
      </trkpt>
      <trkpt lat="43.692317" lon="-7.483297">
        <ele>34.117</ele>
        <time>2019-06-19T17:49:10Z</time>
      </trkpt>
      <trkpt lat="43.692464" lon="-7.483289">
        <ele>32.908</ele>
        <time>2019-06-19T17:49:11Z</time>
      </trkpt>
      <trkpt lat="43.692594" lon="-7.483273">
        <ele>31.856</ele>
        <time>2019-06-19T17:49:12Z</time>
      </trkpt>
      <trkpt lat="43.692717" lon="-7.483245">
        <ele>30.630</ele>
        <time>2019-06-19T17:49:13Z</time>
      </trkpt>
      <trkpt lat="43.692842" lon="-7.483209">
        <ele>29.171</ele>
        <time>2019-06-19T17:49:14Z</time>
      </trkpt>
      <trkpt lat="43.692953" lon="-7.483175">
        <ele>28.254</ele>
        <time>2019-06-19T17:49:15Z</time>
      </trkpt>
      <trkpt lat="43.693064" lon="-7.483144">
        <ele>27.714</ele>
        <time>2019-06-19T17:49:16Z</time>
      </trkpt>
      <trkpt lat="43.693167" lon="-7.483126">
        <ele>27.410</ele>
        <time>2019-06-19T17:49:17Z</time>
      </trkpt>
      <trkpt lat="43.693271" lon="-7.483141">
        <ele>27.248</ele>
        <time>2019-06-19T17:49:18Z</time>
      </trkpt>
      <trkpt lat="43.693363" lon="-7.483191">
        <ele>27.218</ele>
        <time>2019-06-19T17:49:19Z</time>
      </trkpt>
      <trkpt lat="43.693450" lon="-7.483269">
        <ele>27.892</ele>
        <time>2019-06-19T17:49:20Z</time>
      </trkpt>
      <trkpt lat="43.693544" lon="-7.483368">
        <ele>28.473</ele>
        <time>2019-06-19T17:49:21Z</time>
      </trkpt>
      <trkpt lat="43.693641" lon="-7.483485">
        <ele>28.720</ele>
        <time>2019-06-19T17:49:22Z</time>
      </trkpt>
      <trkpt lat="43.693748" lon="-7.483619">
        <ele>28.908</ele>
        <time>2019-06-19T17:49:23Z</time>
      </trkpt>
      <trkpt lat="43.693855" lon="-7.483756">
        <ele>28.612</ele>
        <time>2019-06-19T17:49:24Z</time>
      </trkpt>
      <trkpt lat="43.693968" lon="-7.483893">
        <ele>27.766</ele>
        <time>2019-06-19T17:49:25Z</time>
      </trkpt>
      <trkpt lat="43.694080" lon="-7.484034">
        <ele>26.117</ele>
        <time>2019-06-19T17:49:26Z</time>
      </trkpt>
      <trkpt lat="43.694192" lon="-7.484187">
        <ele>24.930</ele>
        <time>2019-06-19T17:49:27Z</time>
      </trkpt>
      <trkpt lat="43.694292" lon="-7.484342">
        <ele>24.280</ele>
        <time>2019-06-19T17:49:28Z</time>
      </trkpt>
      <trkpt lat="43.694381" lon="-7.484494">
        <ele>23.576</ele>
        <time>2019-06-19T17:49:29Z</time>
      </trkpt>
      <trkpt lat="43.694463" lon="-7.484638">
        <ele>22.874</ele>
        <time>2019-06-19T17:49:30Z</time>
      </trkpt>
      <trkpt lat="43.694543" lon="-7.484785">
        <ele>22.524</ele>
        <time>2019-06-19T17:49:31Z</time>
      </trkpt>
      <trkpt lat="43.694622" lon="-7.484924">
        <ele>22.459</ele>
        <time>2019-06-19T17:49:32Z</time>
      </trkpt>
      <trkpt lat="43.694697" lon="-7.485055">
        <ele>22.003</ele>
        <time>2019-06-19T17:49:33Z</time>
      </trkpt>
      <trkpt lat="43.694778" lon="-7.485171">
        <ele>22.423</ele>
        <time>2019-06-19T17:49:34Z</time>
      </trkpt>
      <trkpt lat="43.694860" lon="-7.485278">
        <ele>23.008</ele>
        <time>2019-06-19T17:49:35Z</time>
      </trkpt>
      <trkpt lat="43.694950" lon="-7.485383">
        <ele>23.388</ele>
        <time>2019-06-19T17:49:36Z</time>
      </trkpt>
      <trkpt lat="43.695067" lon="-7.485477">
        <ele>23.772</ele>
        <time>2019-06-19T17:49:37Z</time>
      </trkpt>
      <trkpt lat="43.695175" lon="-7.485583">
        <ele>24.433</ele>
        <time>2019-06-19T17:49:38Z</time>
      </trkpt>
      <trkpt lat="43.695293" lon="-7.485697">
        <ele>25.526</ele>
        <time>2019-06-19T17:49:39Z</time>
      </trkpt>
      <trkpt lat="43.695412" lon="-7.485810">
        <ele>25.566</ele>
        <time>2019-06-19T17:49:40Z</time>
      </trkpt>
      <trkpt lat="43.695534" lon="-7.485932">
        <ele>25.182</ele>
        <time>2019-06-19T17:49:41Z</time>
      </trkpt>
      <trkpt lat="43.695657" lon="-7.486045">
        <ele>23.620</ele>
        <time>2019-06-19T17:49:42Z</time>
      </trkpt>
      <trkpt lat="43.695770" lon="-7.486143">
        <ele>22.060</ele>
        <time>2019-06-19T17:49:43Z</time>
      </trkpt>
      <trkpt lat="43.695882" lon="-7.486245">
        <ele>21.365</ele>
        <time>2019-06-19T17:49:44Z</time>
      </trkpt>
      <trkpt lat="43.695996" lon="-7.486336">
        <ele>20.968</ele>
        <time>2019-06-19T17:49:45Z</time>
      </trkpt>
      <trkpt lat="43.696088" lon="-7.486430">
        <ele>20.514</ele>
        <time>2019-06-19T17:49:46Z</time>
      </trkpt>
      <trkpt lat="43.696173" lon="-7.486525">
        <ele>20.308</ele>
        <time>2019-06-19T17:49:47Z</time>
      </trkpt>
      <trkpt lat="43.696245" lon="-7.486635">
        <ele>20.349</ele>
        <time>2019-06-19T17:49:48Z</time>
      </trkpt>
      <trkpt lat="43.696291" lon="-7.486752">
        <ele>20.573</ele>
        <time>2019-06-19T17:49:49Z</time>
      </trkpt>
      <trkpt lat="43.696333" lon="-7.486895">
        <ele>20.654</ele>
        <time>2019-06-19T17:49:50Z</time>
      </trkpt>
      <trkpt lat="43.696365" lon="-7.487057">
        <ele>20.097</ele>
        <time>2019-06-19T17:49:51Z</time>
      </trkpt>
      <trkpt lat="43.696392" lon="-7.487226">
        <ele>18.927</ele>
        <time>2019-06-19T17:49:52Z</time>
      </trkpt>
      <trkpt lat="43.696420" lon="-7.487402">
        <ele>17.123</ele>
        <time>2019-06-19T17:49:53Z</time>
      </trkpt>
      <trkpt lat="43.696443" lon="-7.487574">
        <ele>15.741</ele>
        <time>2019-06-19T17:49:54Z</time>
      </trkpt>
      <trkpt lat="43.696471" lon="-7.487743">
        <ele>14.441</ele>
        <time>2019-06-19T17:49:55Z</time>
      </trkpt>
      <trkpt lat="43.696497" lon="-7.487907">
        <ele>12.711</ele>
        <time>2019-06-19T17:49:56Z</time>
      </trkpt>
      <trkpt lat="43.696531" lon="-7.488060">
        <ele>11.021</ele>
        <time>2019-06-19T17:49:57Z</time>
      </trkpt>
      <trkpt lat="43.696584" lon="-7.488178">
        <ele>10.703</ele>
        <time>2019-06-19T17:49:58Z</time>
      </trkpt>
      <trkpt lat="43.696644" lon="-7.488286">
        <ele>10.808</ele>
        <time>2019-06-19T17:49:59Z</time>
      </trkpt>
      <trkpt lat="43.696715" lon="-7.488369">
        <ele>11.064</ele>
        <time>2019-06-19T17:50:00Z</time>
      </trkpt>
      <trkpt lat="43.696784" lon="-7.488452">
        <ele>11.418</ele>
        <time>2019-06-19T17:50:01Z</time>
      </trkpt>
      <trkpt lat="43.696860" lon="-7.488498">
        <ele>11.419</ele>
        <time>2019-06-19T17:50:02Z</time>
      </trkpt>
      <trkpt lat="43.696943" lon="-7.488510">
        <ele>10.912</ele>
        <time>2019-06-19T17:50:03Z</time>
      </trkpt>
      <trkpt lat="43.697016" lon="-7.488487">
        <ele>11.672</ele>
        <time>2019-06-19T17:50:04Z</time>
      </trkpt>
      <trkpt lat="43.697090" lon="-7.488433">
        <ele>11.748</ele>
        <time>2019-06-19T17:50:05Z</time>
      </trkpt>
      <trkpt lat="43.697189" lon="-7.488367">
        <ele>11.446</ele>
        <time>2019-06-19T17:50:06Z</time>
      </trkpt>
      <trkpt lat="43.697283" lon="-7.488282">
        <ele>12.296</ele>
        <time>2019-06-19T17:50:07Z</time>
      </trkpt>
      <trkpt lat="43.697367" lon="-7.488188">
        <ele>13.041</ele>
        <time>2019-06-19T17:50:08Z</time>
      </trkpt>
      <trkpt lat="43.697445" lon="-7.488091">
        <ele>12.981</ele>
        <time>2019-06-19T17:50:09Z</time>
      </trkpt>
      <trkpt lat="43.697537" lon="-7.488020">
        <ele>13.109</ele>
        <time>2019-06-19T17:50:10Z</time>
      </trkpt>
      <trkpt lat="43.697632" lon="-7.487946">
        <ele>13.608</ele>
        <time>2019-06-19T17:50:11Z</time>
      </trkpt>
      <trkpt lat="43.697730" lon="-7.487874">
        <ele>14.037</ele>
        <time>2019-06-19T17:50:12Z</time>
      </trkpt>
      <trkpt lat="43.697836" lon="-7.487821">
        <ele>15.081</ele>
        <time>2019-06-19T17:50:13Z</time>
      </trkpt>
      <trkpt lat="43.697944" lon="-7.487762">
        <ele>16.472</ele>
        <time>2019-06-19T17:50:14Z</time>
      </trkpt>
      <trkpt lat="43.698059" lon="-7.487714">
        <ele>17.935</ele>
        <time>2019-06-19T17:50:15Z</time>
      </trkpt>
      <trkpt lat="43.698182" lon="-7.487653">
        <ele>19.345</ele>
        <time>2019-06-19T17:50:16Z</time>
      </trkpt>
      <trkpt lat="43.698307" lon="-7.487591">
        <ele>20.531</ele>
        <time>2019-06-19T17:50:17Z</time>
      </trkpt>
      <trkpt lat="43.698417" lon="-7.487527">
        <ele>19.359</ele>
        <time>2019-06-19T17:50:18Z</time>
      </trkpt>
      <trkpt lat="43.698515" lon="-7.487456">
        <ele>17.129</ele>
        <time>2019-06-19T17:50:19Z</time>
      </trkpt>
      <trkpt lat="43.698625" lon="-7.487413">
        <ele>15.419</ele>
        <time>2019-06-19T17:50:20Z</time>
      </trkpt>
      <trkpt lat="43.698739" lon="-7.487364">
        <ele>13.209</ele>
        <time>2019-06-19T17:50:21Z</time>
      </trkpt>
      <trkpt lat="43.698858" lon="-7.487327">
        <ele>11.219</ele>
        <time>2019-06-19T17:50:22Z</time>
      </trkpt>
      <trkpt lat="43.698980" lon="-7.487296">
        <ele>9.808</ele>
        <time>2019-06-19T17:50:23Z</time>
      </trkpt>
      <trkpt lat="43.699100" lon="-7.487295">
        <ele>9.324</ele>
        <time>2019-06-19T17:50:24Z</time>
      </trkpt>
      <trkpt lat="43.699225" lon="-7.487287">
        <ele>8.768</ele>
        <time>2019-06-19T17:50:25Z</time>
      </trkpt>
      <trkpt lat="43.699339" lon="-7.487281">
        <ele>8.279</ele>
        <time>2019-06-19T17:50:26Z</time>
      </trkpt>
      <trkpt lat="43.699452" lon="-7.487273">
        <ele>7.782</ele>
        <time>2019-06-19T17:50:27Z</time>
      </trkpt>
      <trkpt lat="43.699560" lon="-7.487262">
        <ele>7.622</ele>
        <time>2019-06-19T17:50:28Z</time>
      </trkpt>
      <trkpt lat="43.699670" lon="-7.487211">
        <ele>6.918</ele>
        <time>2019-06-19T17:50:29Z</time>
      </trkpt>
      <trkpt lat="43.699779" lon="-7.487137">
        <ele>6.676</ele>
        <time>2019-06-19T17:50:30Z</time>
      </trkpt>
      <trkpt lat="43.699886" lon="-7.487048">
        <ele>6.516</ele>
        <time>2019-06-19T17:50:31Z</time>
      </trkpt>
      <trkpt lat="43.699990" lon="-7.486942">
        <ele>5.961</ele>
        <time>2019-06-19T17:50:32Z</time>
      </trkpt>
      <trkpt lat="43.700099" lon="-7.486825">
        <ele>7.021</ele>
        <time>2019-06-19T17:50:33Z</time>
      </trkpt>
      <trkpt lat="43.700201" lon="-7.486724">
        <ele>7.613</ele>
        <time>2019-06-19T17:50:34Z</time>
      </trkpt>
      <trkpt lat="43.700279" lon="-7.486621">
        <ele>7.508</ele>
        <time>2019-06-19T17:50:35Z</time>
      </trkpt>
      <trkpt lat="43.700366" lon="-7.486538">
        <ele>7.259</ele>
        <time>2019-06-19T17:50:36Z</time>
      </trkpt>
      <trkpt lat="43.700446" lon="-7.486481">
        <ele>7.423</ele>
        <time>2019-06-19T17:50:37Z</time>
      </trkpt>
      <trkpt lat="43.700532" lon="-7.486417">
        <ele>7.964</ele>
        <time>2019-06-19T17:50:38Z</time>
      </trkpt>
      <trkpt lat="43.700618" lon="-7.486365">
        <ele>8.987</ele>
        <time>2019-06-19T17:50:39Z</time>
      </trkpt>
      <trkpt lat="43.700724" lon="-7.486329">
        <ele>10.317</ele>
        <time>2019-06-19T17:50:40Z</time>
      </trkpt>
      <trkpt lat="43.700837" lon="-7.486316">
        <ele>11.873</ele>
        <time>2019-06-19T17:50:41Z</time>
      </trkpt>
      <trkpt lat="43.700947" lon="-7.486309">
        <ele>12.911</ele>
        <time>2019-06-19T17:50:42Z</time>
      </trkpt>
      <trkpt lat="43.701076" lon="-7.486317">
        <ele>14.461</ele>
        <time>2019-06-19T17:50:43Z</time>
      </trkpt>
      <trkpt lat="43.701212" lon="-7.486350">
        <ele>15.254</ele>
        <time>2019-06-19T17:50:44Z</time>
      </trkpt>
      <trkpt lat="43.701352" lon="-7.486387">
        <ele>15.956</ele>
        <time>2019-06-19T17:50:45Z</time>
      </trkpt>
      <trkpt lat="43.701489" lon="-7.486417">
        <ele>16.011</ele>
        <time>2019-06-19T17:50:46Z</time>
      </trkpt>
      <trkpt lat="43.701621" lon="-7.486445">
        <ele>15.908</ele>
        <time>2019-06-19T17:50:47Z</time>
      </trkpt>
      <trkpt lat="43.701747" lon="-7.486481">
        <ele>15.448</ele>
        <time>2019-06-19T17:50:48Z</time>
      </trkpt>
      <trkpt lat="43.701875" lon="-7.486515">
        <ele>14.282</ele>
        <time>2019-06-19T17:50:49Z</time>
      </trkpt>
      <trkpt lat="43.702003" lon="-7.486552">
        <ele>13.563</ele>
        <time>2019-06-19T17:50:50Z</time>
      </trkpt>
      <trkpt lat="43.702134" lon="-7.486605">
        <ele>12.926</ele>
        <time>2019-06-19T17:50:51Z</time>
      </trkpt>
      <trkpt lat="43.702270" lon="-7.486677">
        <ele>12.196</ele>
        <time>2019-06-19T17:50:52Z</time>
      </trkpt>
      <trkpt lat="43.702415" lon="-7.486749">
        <ele>12.742</ele>
        <time>2019-06-19T17:50:53Z</time>
      </trkpt>
      <trkpt lat="43.702575" lon="-7.486830">
        <ele>13.210</ele>
        <time>2019-06-19T17:50:54Z</time>
      </trkpt>
      <trkpt lat="43.702720" lon="-7.486906">
        <ele>13.740</ele>
        <time>2019-06-19T17:50:55Z</time>
      </trkpt>
      <trkpt lat="43.702871" lon="-7.486983">
        <ele>14.483</ele>
        <time>2019-06-19T17:50:56Z</time>
      </trkpt>
      <trkpt lat="43.703018" lon="-7.487055">
        <ele>14.825</ele>
        <time>2019-06-19T17:50:57Z</time>
      </trkpt>
      <trkpt lat="43.703167" lon="-7.487132">
        <ele>14.717</ele>
        <time>2019-06-19T17:50:58Z</time>
      </trkpt>
      <trkpt lat="43.703300" lon="-7.487210">
        <ele>14.208</ele>
        <time>2019-06-19T17:50:59Z</time>
      </trkpt>
      <trkpt lat="43.703437" lon="-7.487279">
        <ele>15.391</ele>
        <time>2019-06-19T17:51:00Z</time>
      </trkpt>
      <trkpt lat="43.703567" lon="-7.487343">
        <ele>16.645</ele>
        <time>2019-06-19T17:51:01Z</time>
      </trkpt>
      <trkpt lat="43.703690" lon="-7.487408">
        <ele>17.556</ele>
        <time>2019-06-19T17:51:02Z</time>
      </trkpt>
      <trkpt lat="43.703813" lon="-7.487475">
        <ele>18.099</ele>
        <time>2019-06-19T17:51:03Z</time>
      </trkpt>
      <trkpt lat="43.703937" lon="-7.487544">
        <ele>18.649</ele>
        <time>2019-06-19T17:51:04Z</time>
      </trkpt>
      <trkpt lat="43.704065" lon="-7.487613">
        <ele>19.465</ele>
        <time>2019-06-19T17:51:05Z</time>
      </trkpt>
      <trkpt lat="43.704193" lon="-7.487680">
        <ele>20.433</ele>
        <time>2019-06-19T17:51:06Z</time>
      </trkpt>
      <trkpt lat="43.704327" lon="-7.487747">
        <ele>21.633</ele>
        <time>2019-06-19T17:51:07Z</time>
      </trkpt>
      <trkpt lat="43.704462" lon="-7.487818">
        <ele>23.352</ele>
        <time>2019-06-19T17:51:08Z</time>
      </trkpt>
      <trkpt lat="43.704597" lon="-7.487886">
        <ele>24.553</ele>
        <time>2019-06-19T17:51:09Z</time>
      </trkpt>
      <trkpt lat="43.704727" lon="-7.487947">
        <ele>25.608</ele>
        <time>2019-06-19T17:51:10Z</time>
      </trkpt>
      <trkpt lat="43.704857" lon="-7.488011">
        <ele>24.808</ele>
        <time>2019-06-19T17:51:11Z</time>
      </trkpt>
      <trkpt lat="43.704985" lon="-7.488071">
        <ele>22.898</ele>
        <time>2019-06-19T17:51:12Z</time>
      </trkpt>
      <trkpt lat="43.705110" lon="-7.488131">
        <ele>21.092</ele>
        <time>2019-06-19T17:51:13Z</time>
      </trkpt>
      <trkpt lat="43.705239" lon="-7.488189">
        <ele>18.973</ele>
        <time>2019-06-19T17:51:14Z</time>
      </trkpt>
      <trkpt lat="43.705364" lon="-7.488245">
        <ele>16.666</ele>
        <time>2019-06-19T17:51:15Z</time>
      </trkpt>
      <trkpt lat="43.705487" lon="-7.488294">
        <ele>13.836</ele>
        <time>2019-06-19T17:51:16Z</time>
      </trkpt>
      <trkpt lat="43.705599" lon="-7.488345">
        <ele>11.972</ele>
        <time>2019-06-19T17:51:17Z</time>
      </trkpt>
      <trkpt lat="43.705707" lon="-7.488378">
        <ele>11.660</ele>
        <time>2019-06-19T17:51:18Z</time>
      </trkpt>
      <trkpt lat="43.705801" lon="-7.488388">
        <ele>11.060</ele>
        <time>2019-06-19T17:51:19Z</time>
      </trkpt>
      <trkpt lat="43.705895" lon="-7.488370">
        <ele>11.049</ele>
        <time>2019-06-19T17:51:20Z</time>
      </trkpt>
      <trkpt lat="43.705996" lon="-7.488327">
        <ele>11.702</ele>
        <time>2019-06-19T17:51:21Z</time>
      </trkpt>
      <trkpt lat="43.706089" lon="-7.488301">
        <ele>12.522</ele>
        <time>2019-06-19T17:51:22Z</time>
      </trkpt>
      <trkpt lat="43.706189" lon="-7.488267">
        <ele>13.408</ele>
        <time>2019-06-19T17:51:23Z</time>
      </trkpt>
      <trkpt lat="43.706323" lon="-7.488128">
        <ele>15.947</ele>
        <time>2019-06-19T17:51:24Z</time>
      </trkpt>
      <trkpt lat="43.706443" lon="-7.488024">
        <ele>17.531</ele>
        <time>2019-06-19T17:51:25Z</time>
      </trkpt>
      <trkpt lat="43.706595" lon="-7.487915">
        <ele>19.052</ele>
        <time>2019-06-19T17:51:26Z</time>
      </trkpt>
      <trkpt lat="43.706741" lon="-7.487815">
        <ele>21.015</ele>
        <time>2019-06-19T17:51:27Z</time>
      </trkpt>
      <trkpt lat="43.706900" lon="-7.487709">
        <ele>23.625</ele>
        <time>2019-06-19T17:51:28Z</time>
      </trkpt>
      <trkpt lat="43.707056" lon="-7.487612">
        <ele>25.131</ele>
        <time>2019-06-19T17:51:29Z</time>
      </trkpt>
      <trkpt lat="43.707212" lon="-7.487517">
        <ele>25.989</ele>
        <time>2019-06-19T17:51:30Z</time>
      </trkpt>
      <trkpt lat="43.707357" lon="-7.487441">
        <ele>25.089</ele>
        <time>2019-06-19T17:51:31Z</time>
      </trkpt>
      <trkpt lat="43.707501" lon="-7.487360">
        <ele>24.574</ele>
        <time>2019-06-19T17:51:32Z</time>
      </trkpt>
      <trkpt lat="43.707627" lon="-7.487286">
        <ele>24.856</ele>
        <time>2019-06-19T17:51:33Z</time>
      </trkpt>
      <trkpt lat="43.707752" lon="-7.487214">
        <ele>25.121</ele>
        <time>2019-06-19T17:51:34Z</time>
      </trkpt>
      <trkpt lat="43.707874" lon="-7.487139">
        <ele>25.808</ele>
        <time>2019-06-19T17:51:35Z</time>
      </trkpt>
      <trkpt lat="43.707999" lon="-7.487049">
        <ele>26.540</ele>
        <time>2019-06-19T17:51:36Z</time>
      </trkpt>
      <trkpt lat="43.708112" lon="-7.486939">
        <ele>26.694</ele>
        <time>2019-06-19T17:51:37Z</time>
      </trkpt>
      <trkpt lat="43.708233" lon="-7.486807">
        <ele>26.285</ele>
        <time>2019-06-19T17:51:38Z</time>
      </trkpt>
      <trkpt lat="43.708347" lon="-7.486662">
        <ele>25.978</ele>
        <time>2019-06-19T17:51:39Z</time>
      </trkpt>
      <trkpt lat="43.708453" lon="-7.486532">
        <ele>25.328</ele>
        <time>2019-06-19T17:51:40Z</time>
      </trkpt>
      <trkpt lat="43.708553" lon="-7.486408">
        <ele>25.044</ele>
        <time>2019-06-19T17:51:41Z</time>
      </trkpt>
      <trkpt lat="43.708647" lon="-7.486289">
        <ele>25.452</ele>
        <time>2019-06-19T17:51:42Z</time>
      </trkpt>
      <trkpt lat="43.708739" lon="-7.486174">
        <ele>26.492</ele>
        <time>2019-06-19T17:51:43Z</time>
      </trkpt>
      <trkpt lat="43.708834" lon="-7.486060">
        <ele>27.546</ele>
        <time>2019-06-19T17:51:44Z</time>
      </trkpt>
      <trkpt lat="43.708924" lon="-7.485952">
        <ele>29.388</ele>
        <time>2019-06-19T17:51:45Z</time>
      </trkpt>
      <trkpt lat="43.709020" lon="-7.485847">
        <ele>31.416</ele>
        <time>2019-06-19T17:51:46Z</time>
      </trkpt>
      <trkpt lat="43.709115" lon="-7.485758">
        <ele>32.908</ele>
        <time>2019-06-19T17:51:47Z</time>
      </trkpt>
      <trkpt lat="43.709225" lon="-7.485667">
        <ele>35.847</ele>
        <time>2019-06-19T17:51:48Z</time>
      </trkpt>
      <trkpt lat="43.709339" lon="-7.485579">
        <ele>39.081</ele>
        <time>2019-06-19T17:51:49Z</time>
      </trkpt>
      <trkpt lat="43.709447" lon="-7.485498">
        <ele>41.442</ele>
        <time>2019-06-19T17:51:50Z</time>
      </trkpt>
      <trkpt lat="43.709580" lon="-7.485387">
        <ele>42.675</ele>
        <time>2019-06-19T17:51:51Z</time>
      </trkpt>
      <trkpt lat="43.709705" lon="-7.485273">
        <ele>43.515</ele>
        <time>2019-06-19T17:51:52Z</time>
      </trkpt>
      <trkpt lat="43.709840" lon="-7.485158">
        <ele>41.641</ele>
        <time>2019-06-19T17:51:53Z</time>
      </trkpt>
      <trkpt lat="43.709962" lon="-7.485052">
        <ele>40.049</ele>
        <time>2019-06-19T17:51:54Z</time>
      </trkpt>
      <trkpt lat="43.710084" lon="-7.484938">
        <ele>38.529</ele>
        <time>2019-06-19T17:51:55Z</time>
      </trkpt>
      <trkpt lat="43.710201" lon="-7.484832">
        <ele>37.566</ele>
        <time>2019-06-19T17:51:56Z</time>
      </trkpt>
      <trkpt lat="43.710313" lon="-7.484722">
        <ele>36.929</ele>
        <time>2019-06-19T17:51:57Z</time>
      </trkpt>
      <trkpt lat="43.710425" lon="-7.484602">
        <ele>36.721</ele>
        <time>2019-06-19T17:51:58Z</time>
      </trkpt>
      <trkpt lat="43.710531" lon="-7.484491">
        <ele>35.908</ele>
        <time>2019-06-19T17:51:59Z</time>
      </trkpt>
      <trkpt lat="43.710636" lon="-7.484384">
        <ele>35.689</ele>
        <time>2019-06-19T17:52:00Z</time>
      </trkpt>
      <trkpt lat="43.710754" lon="-7.484292">
        <ele>36.383</ele>
        <time>2019-06-19T17:52:01Z</time>
      </trkpt>
      <trkpt lat="43.710890" lon="-7.484195">
        <ele>37.014</ele>
        <time>2019-06-19T17:52:02Z</time>
      </trkpt>
      <trkpt lat="43.711019" lon="-7.484114">
        <ele>37.347</ele>
        <time>2019-06-19T17:52:03Z</time>
      </trkpt>
      <trkpt lat="43.711164" lon="-7.484035">
        <ele>36.397</ele>
        <time>2019-06-19T17:52:04Z</time>
      </trkpt>
      <trkpt lat="43.711310" lon="-7.483942">
        <ele>34.423</ele>
        <time>2019-06-19T17:52:05Z</time>
      </trkpt>
      <trkpt lat="43.711450" lon="-7.483856">
        <ele>35.151</ele>
        <time>2019-06-19T17:52:06Z</time>
      </trkpt>
      <trkpt lat="43.711575" lon="-7.483767">
        <ele>36.841</ele>
        <time>2019-06-19T17:52:07Z</time>
      </trkpt>
      <trkpt lat="43.711697" lon="-7.483688">
        <ele>38.257</ele>
        <time>2019-06-19T17:52:08Z</time>
      </trkpt>
      <trkpt lat="43.711846" lon="-7.483619">
        <ele>40.100</ele>
        <time>2019-06-19T17:52:09Z</time>
      </trkpt>
      <trkpt lat="43.711978" lon="-7.483551">
        <ele>40.820</ele>
        <time>2019-06-19T17:52:10Z</time>
      </trkpt>
      <trkpt lat="43.712130" lon="-7.483488">
        <ele>40.008</ele>
        <time>2019-06-19T17:52:11Z</time>
      </trkpt>
      <trkpt lat="43.712302" lon="-7.483460">
        <ele>39.668</ele>
        <time>2019-06-19T17:52:12Z</time>
      </trkpt>
      <trkpt lat="43.712461" lon="-7.483414">
        <ele>37.942</ele>
        <time>2019-06-19T17:52:13Z</time>
      </trkpt>
      <trkpt lat="43.712611" lon="-7.483365">
        <ele>37.793</ele>
        <time>2019-06-19T17:52:14Z</time>
      </trkpt>
      <trkpt lat="43.712749" lon="-7.483329">
        <ele>38.556</ele>
        <time>2019-06-19T17:52:15Z</time>
      </trkpt>
      <trkpt lat="43.712880" lon="-7.483287">
        <ele>38.346</ele>
        <time>2019-06-19T17:52:16Z</time>
      </trkpt>
      <trkpt lat="43.713007" lon="-7.483270">
        <ele>38.612</ele>
        <time>2019-06-19T17:52:17Z</time>
      </trkpt>
      <trkpt lat="43.713144" lon="-7.483265">
        <ele>39.360</ele>
        <time>2019-06-19T17:52:18Z</time>
      </trkpt>
      <trkpt lat="43.713275" lon="-7.483283">
        <ele>40.440</ele>
        <time>2019-06-19T17:52:19Z</time>
      </trkpt>
      <trkpt lat="43.713404" lon="-7.483285">
        <ele>42.179</ele>
        <time>2019-06-19T17:52:20Z</time>
      </trkpt>
      <trkpt lat="43.713530" lon="-7.483286">
        <ele>44.305</ele>
        <time>2019-06-19T17:52:21Z</time>
      </trkpt>
      <trkpt lat="43.713648" lon="-7.483262">
        <ele>46.025</ele>
        <time>2019-06-19T17:52:22Z</time>
      </trkpt>
      <trkpt lat="43.713762" lon="-7.483214">
        <ele>47.308</ele>
        <time>2019-06-19T17:52:23Z</time>
      </trkpt>
      <trkpt lat="43.713881" lon="-7.483134">
        <ele>47.840</ele>
        <time>2019-06-19T17:52:24Z</time>
      </trkpt>
      <trkpt lat="43.713997" lon="-7.483045">
        <ele>47.724</ele>
        <time>2019-06-19T17:52:25Z</time>
      </trkpt>
      <trkpt lat="43.714106" lon="-7.482949">
        <ele>47.315</ele>
        <time>2019-06-19T17:52:26Z</time>
      </trkpt>
      <trkpt lat="43.714221" lon="-7.482842">
        <ele>46.458</ele>
        <time>2019-06-19T17:52:27Z</time>
      </trkpt>
      <trkpt lat="43.714321" lon="-7.482724">
        <ele>45.588</ele>
        <time>2019-06-19T17:52:28Z</time>
      </trkpt>
      <trkpt lat="43.714412" lon="-7.482596">
        <ele>45.074</ele>
        <time>2019-06-19T17:52:29Z</time>
      </trkpt>
      <trkpt lat="43.714497" lon="-7.482473">
        <ele>44.542</ele>
        <time>2019-06-19T17:52:30Z</time>
      </trkpt>
      <trkpt lat="43.714579" lon="-7.482359">
        <ele>44.942</ele>
        <time>2019-06-19T17:52:31Z</time>
      </trkpt>
      <trkpt lat="43.714657" lon="-7.482250">
        <ele>45.474</ele>
        <time>2019-06-19T17:52:32Z</time>
      </trkpt>
      <trkpt lat="43.714734" lon="-7.482145">
        <ele>45.256</ele>
        <time>2019-06-19T17:52:33Z</time>
      </trkpt>
      <trkpt lat="43.714802" lon="-7.482048">
        <ele>44.521</ele>
        <time>2019-06-19T17:52:34Z</time>
      </trkpt>
      <trkpt lat="43.714867" lon="-7.481957">
        <ele>44.108</ele>
        <time>2019-06-19T17:52:35Z</time>
      </trkpt>
      <trkpt lat="43.714935" lon="-7.481868">
        <ele>43.820</ele>
        <time>2019-06-19T17:52:36Z</time>
      </trkpt>
      <trkpt lat="43.715007" lon="-7.481771">
        <ele>43.174</ele>
        <time>2019-06-19T17:52:37Z</time>
      </trkpt>
      <trkpt lat="43.715073" lon="-7.481662">
        <ele>41.775</ele>
        <time>2019-06-19T17:52:38Z</time>
      </trkpt>
      <trkpt lat="43.715137" lon="-7.481539">
        <ele>41.018</ele>
        <time>2019-06-19T17:52:39Z</time>
      </trkpt>
      <trkpt lat="43.715208" lon="-7.481415">
        <ele>40.388</ele>
        <time>2019-06-19T17:52:40Z</time>
      </trkpt>
      <trkpt lat="43.715272" lon="-7.481283">
        <ele>39.624</ele>
        <time>2019-06-19T17:52:41Z</time>
      </trkpt>
      <trkpt lat="43.715329" lon="-7.481164">
        <ele>38.922</ele>
        <time>2019-06-19T17:52:42Z</time>
      </trkpt>
      <trkpt lat="43.715373" lon="-7.481063">
        <ele>38.382</ele>
        <time>2019-06-19T17:52:43Z</time>
      </trkpt>
      <trkpt lat="43.715408" lon="-7.480989">
        <ele>37.991</ele>
        <time>2019-06-19T17:52:44Z</time>
      </trkpt>
      <trkpt lat="43.715435" lon="-7.480928">
        <ele>37.581</ele>
        <time>2019-06-19T17:52:45Z</time>
      </trkpt>
      <trkpt lat="43.715475" lon="-7.480864">
        <ele>36.919</ele>
        <time>2019-06-19T17:52:47Z</time>
      </trkpt>
      <trkpt lat="43.715527" lon="-7.480862">
        <ele>36.408</ele>
        <time>2019-06-19T17:52:49Z</time>
      </trkpt>
      <trkpt lat="43.715563" lon="-7.480908">
        <ele>36.192</ele>
        <time>2019-06-19T17:52:50Z</time>
      </trkpt>
      <trkpt lat="43.715612" lon="-7.481050">
        <ele>35.936</ele>
        <time>2019-06-19T17:52:52Z</time>
      </trkpt>
      <trkpt lat="43.715639" lon="-7.481152">
        <ele>36.147</ele>
        <time>2019-06-19T17:52:53Z</time>
      </trkpt>
      <trkpt lat="43.715670" lon="-7.481280">
        <ele>36.610</ele>
        <time>2019-06-19T17:52:54Z</time>
      </trkpt>
      <trkpt lat="43.715707" lon="-7.481437">
        <ele>37.010</ele>
        <time>2019-06-19T17:52:55Z</time>
      </trkpt>
      <trkpt lat="43.715739" lon="-7.481605">
        <ele>37.166</ele>
        <time>2019-06-19T17:52:56Z</time>
      </trkpt>
      <trkpt lat="43.715798" lon="-7.481806">
        <ele>37.074</ele>
        <time>2019-06-19T17:52:57Z</time>
      </trkpt>
      <trkpt lat="43.715840" lon="-7.482003">
        <ele>36.954</ele>
        <time>2019-06-19T17:52:58Z</time>
      </trkpt>
      <trkpt lat="43.715884" lon="-7.482192">
        <ele>36.386</ele>
        <time>2019-06-19T17:52:59Z</time>
      </trkpt>
      <trkpt lat="43.715924" lon="-7.482410">
        <ele>35.760</ele>
        <time>2019-06-19T17:53:00Z</time>
      </trkpt>
      <trkpt lat="43.715953" lon="-7.482624">
        <ele>35.326</ele>
        <time>2019-06-19T17:53:01Z</time>
      </trkpt>
      <trkpt lat="43.715972" lon="-7.482835">
        <ele>35.208</ele>
        <time>2019-06-19T17:53:02Z</time>
      </trkpt>
      <trkpt lat="43.716000" lon="-7.483046">
        <ele>35.441</ele>
        <time>2019-06-19T17:53:03Z</time>
      </trkpt>
      <trkpt lat="43.716038" lon="-7.483253">
        <ele>36.265</ele>
        <time>2019-06-19T17:53:04Z</time>
      </trkpt>
      <trkpt lat="43.716077" lon="-7.483429">
        <ele>37.086</ele>
        <time>2019-06-19T17:53:05Z</time>
      </trkpt>
      <trkpt lat="43.716111" lon="-7.483617">
        <ele>38.169</ele>
        <time>2019-06-19T17:53:06Z</time>
      </trkpt>
      <trkpt lat="43.716146" lon="-7.483801">
        <ele>40.959</ele>
        <time>2019-06-19T17:53:07Z</time>
      </trkpt>
      <trkpt lat="43.716181" lon="-7.483969">
        <ele>42.785</ele>
        <time>2019-06-19T17:53:08Z</time>
      </trkpt>
      <trkpt lat="43.716227" lon="-7.484125">
        <ele>43.243</ele>
        <time>2019-06-19T17:53:09Z</time>
      </trkpt>
      <trkpt lat="43.716283" lon="-7.484278">
        <ele>42.783</ele>
        <time>2019-06-19T17:53:10Z</time>
      </trkpt>
      <trkpt lat="43.716360" lon="-7.484430">
        <ele>41.676</ele>
        <time>2019-06-19T17:53:11Z</time>
      </trkpt>
      <trkpt lat="43.716444" lon="-7.484577">
        <ele>41.890</ele>
        <time>2019-06-19T17:53:12Z</time>
      </trkpt>
      <trkpt lat="43.716520" lon="-7.484736">
        <ele>41.819</ele>
        <time>2019-06-19T17:53:13Z</time>
      </trkpt>
      <trkpt lat="43.716607" lon="-7.484899">
        <ele>42.608</ele>
        <time>2019-06-19T17:53:14Z</time>
      </trkpt>
      <trkpt lat="43.716678" lon="-7.485084">
        <ele>44.140</ele>
        <time>2019-06-19T17:53:15Z</time>
      </trkpt>
      <trkpt lat="43.716754" lon="-7.485280">
        <ele>45.174</ele>
        <time>2019-06-19T17:53:16Z</time>
      </trkpt>
      <trkpt lat="43.716834" lon="-7.485474">
        <ele>44.875</ele>
        <time>2019-06-19T17:53:17Z</time>
      </trkpt>
      <trkpt lat="43.716908" lon="-7.485674">
        <ele>44.768</ele>
        <time>2019-06-19T17:53:18Z</time>
      </trkpt>
      <trkpt lat="43.716979" lon="-7.485873">
        <ele>45.268</ele>
        <time>2019-06-19T17:53:19Z</time>
      </trkpt>
      <trkpt lat="43.717046" lon="-7.486058">
        <ele>46.894</ele>
        <time>2019-06-19T17:53:20Z</time>
      </trkpt>
      <trkpt lat="43.717107" lon="-7.486240">
        <ele>48.212</ele>
        <time>2019-06-19T17:53:21Z</time>
      </trkpt>
      <trkpt lat="43.717165" lon="-7.486417">
        <ele>49.432</ele>
        <time>2019-06-19T17:53:22Z</time>
      </trkpt>
      <trkpt lat="43.717222" lon="-7.486583">
        <ele>50.823</ele>
        <time>2019-06-19T17:53:23Z</time>
      </trkpt>
      <trkpt lat="43.717278" lon="-7.486742">
        <ele>52.083</ele>
        <time>2019-06-19T17:53:24Z</time>
      </trkpt>
      <trkpt lat="43.717338" lon="-7.486868">
        <ele>52.211</ele>
        <time>2019-06-19T17:53:25Z</time>
      </trkpt>
      <trkpt lat="43.717403" lon="-7.486997">
        <ele>52.108</ele>
        <time>2019-06-19T17:53:26Z</time>
      </trkpt>
      <trkpt lat="43.717495" lon="-7.487129">
        <ele>51.155</ele>
        <time>2019-06-19T17:53:27Z</time>
      </trkpt>
      <trkpt lat="43.717580" lon="-7.487245">
        <ele>51.299</ele>
        <time>2019-06-19T17:53:28Z</time>
      </trkpt>
      <trkpt lat="43.717666" lon="-7.487363">
        <ele>51.360</ele>
        <time>2019-06-19T17:53:29Z</time>
      </trkpt>
      <trkpt lat="43.717741" lon="-7.487470">
        <ele>51.333</ele>
        <time>2019-06-19T17:53:30Z</time>
      </trkpt>
      <trkpt lat="43.717807" lon="-7.487574">
        <ele>51.283</ele>
        <time>2019-06-19T17:53:31Z</time>
      </trkpt>
      <trkpt lat="43.717859" lon="-7.487682">
        <ele>51.249</ele>
        <time>2019-06-19T17:53:32Z</time>
      </trkpt>
      <trkpt lat="43.717901" lon="-7.487792">
        <ele>51.377</ele>
        <time>2019-06-19T17:53:33Z</time>
      </trkpt>
      <trkpt lat="43.717932" lon="-7.487903">
        <ele>51.657</ele>
        <time>2019-06-19T17:53:34Z</time>
      </trkpt>
      <trkpt lat="43.717955" lon="-7.488027">
        <ele>52.044</ele>
        <time>2019-06-19T17:53:35Z</time>
      </trkpt>
      <trkpt lat="43.717954" lon="-7.488168">
        <ele>53.605</ele>
        <time>2019-06-19T17:53:36Z</time>
      </trkpt>
      <trkpt lat="43.717937" lon="-7.488315">
        <ele>55.815</ele>
        <time>2019-06-19T17:53:37Z</time>
      </trkpt>
      <trkpt lat="43.717928" lon="-7.488489">
        <ele>58.208</ele>
        <time>2019-06-19T17:53:38Z</time>
      </trkpt>
      <trkpt lat="43.717917" lon="-7.488676">
        <ele>60.387</ele>
        <time>2019-06-19T17:53:39Z</time>
      </trkpt>
      <trkpt lat="43.717900" lon="-7.488856">
        <ele>61.981</ele>
        <time>2019-06-19T17:53:40Z</time>
      </trkpt>
      <trkpt lat="43.717901" lon="-7.489021">
        <ele>63.122</ele>
        <time>2019-06-19T17:53:41Z</time>
      </trkpt>
      <trkpt lat="43.717879" lon="-7.489193">
        <ele>65.735</ele>
        <time>2019-06-19T17:53:42Z</time>
      </trkpt>
      <trkpt lat="43.717849" lon="-7.489359">
        <ele>69.385</ele>
        <time>2019-06-19T17:53:43Z</time>
      </trkpt>
      <trkpt lat="43.717807" lon="-7.489529">
        <ele>71.961</ele>
        <time>2019-06-19T17:53:44Z</time>
      </trkpt>
      <trkpt lat="43.717763" lon="-7.489701">
        <ele>73.429</ele>
        <time>2019-06-19T17:53:45Z</time>
      </trkpt>
      <trkpt lat="43.717710" lon="-7.489875">
        <ele>71.719</ele>
        <time>2019-06-19T17:53:46Z</time>
      </trkpt>
      <trkpt lat="43.717650" lon="-7.490059">
        <ele>70.564</ele>
        <time>2019-06-19T17:53:47Z</time>
      </trkpt>
      <trkpt lat="43.717581" lon="-7.490240">
        <ele>70.806</ele>
        <time>2019-06-19T17:53:48Z</time>
      </trkpt>
      <trkpt lat="43.717498" lon="-7.490415">
        <ele>72.116</ele>
        <time>2019-06-19T17:53:49Z</time>
      </trkpt>
      <trkpt lat="43.717420" lon="-7.490584">
        <ele>73.608</ele>
        <time>2019-06-19T17:53:50Z</time>
      </trkpt>
      <trkpt lat="43.717320" lon="-7.490766">
        <ele>76.229</ele>
        <time>2019-06-19T17:53:51Z</time>
      </trkpt>
      <trkpt lat="43.717219" lon="-7.490947">
        <ele>77.383</ele>
        <time>2019-06-19T17:53:52Z</time>
      </trkpt>
      <trkpt lat="43.717116" lon="-7.491124">
        <ele>76.644</ele>
        <time>2019-06-19T17:53:53Z</time>
      </trkpt>
      <trkpt lat="43.717017" lon="-7.491303">
        <ele>77.127</ele>
        <time>2019-06-19T17:53:54Z</time>
      </trkpt>
      <trkpt lat="43.716922" lon="-7.491473">
        <ele>77.457</ele>
        <time>2019-06-19T17:53:55Z</time>
      </trkpt>
      <trkpt lat="43.716836" lon="-7.491637">
        <ele>77.543</ele>
        <time>2019-06-19T17:53:56Z</time>
      </trkpt>
      <trkpt lat="43.716757" lon="-7.491792">
        <ele>78.321</ele>
        <time>2019-06-19T17:53:57Z</time>
      </trkpt>
      <trkpt lat="43.716688" lon="-7.491953">
        <ele>78.481</ele>
        <time>2019-06-19T17:53:58Z</time>
      </trkpt>
      <trkpt lat="43.716619" lon="-7.492122">
        <ele>77.883</ele>
        <time>2019-06-19T17:53:59Z</time>
      </trkpt>
      <trkpt lat="43.716563" lon="-7.492288">
        <ele>78.025</ele>
        <time>2019-06-19T17:54:00Z</time>
      </trkpt>
      <trkpt lat="43.716530" lon="-7.492454">
        <ele>77.817</ele>
        <time>2019-06-19T17:54:01Z</time>
      </trkpt>
      <trkpt lat="43.716478" lon="-7.492631">
        <ele>78.708</ele>
        <time>2019-06-19T17:54:02Z</time>
      </trkpt>
      <trkpt lat="43.716429" lon="-7.492779">
        <ele>80.141</ele>
        <time>2019-06-19T17:54:03Z</time>
      </trkpt>
      <trkpt lat="43.716370" lon="-7.492931">
        <ele>80.645</ele>
        <time>2019-06-19T17:54:04Z</time>
      </trkpt>
      <trkpt lat="43.716311" lon="-7.493072">
        <ele>80.476</ele>
        <time>2019-06-19T17:54:05Z</time>
      </trkpt>
      <trkpt lat="43.716253" lon="-7.493206">
        <ele>79.989</ele>
        <time>2019-06-19T17:54:06Z</time>
      </trkpt>
      <trkpt lat="43.716204" lon="-7.493332">
        <ele>79.399</ele>
        <time>2019-06-19T17:54:07Z</time>
      </trkpt>
      <trkpt lat="43.716158" lon="-7.493451">
        <ele>78.915</ele>
        <time>2019-06-19T17:54:08Z</time>
      </trkpt>
      <trkpt lat="43.716121" lon="-7.493586">
        <ele>78.173</ele>
        <time>2019-06-19T17:54:09Z</time>
      </trkpt>
      <trkpt lat="43.716093" lon="-7.493725">
        <ele>77.293</ele>
        <time>2019-06-19T17:54:10Z</time>
      </trkpt>
      <trkpt lat="43.716076" lon="-7.493881">
        <ele>76.233</ele>
        <time>2019-06-19T17:54:11Z</time>
      </trkpt>
      <trkpt lat="43.716060" lon="-7.494040">
        <ele>76.523</ele>
        <time>2019-06-19T17:54:12Z</time>
      </trkpt>
      <trkpt lat="43.716046" lon="-7.494196">
        <ele>76.815</ele>
        <time>2019-06-19T17:54:13Z</time>
      </trkpt>
      <trkpt lat="43.716029" lon="-7.494359">
        <ele>77.208</ele>
        <time>2019-06-19T17:54:14Z</time>
      </trkpt>
      <trkpt lat="43.716007" lon="-7.494511">
        <ele>77.756</ele>
        <time>2019-06-19T17:54:15Z</time>
      </trkpt>
      <trkpt lat="43.715987" lon="-7.494645">
        <ele>78.540</ele>
        <time>2019-06-19T17:54:16Z</time>
      </trkpt>
      <trkpt lat="43.715962" lon="-7.494773">
        <ele>79.581</ele>
        <time>2019-06-19T17:54:17Z</time>
      </trkpt>
      <trkpt lat="43.715945" lon="-7.494893">
        <ele>80.614</ele>
        <time>2019-06-19T17:54:18Z</time>
      </trkpt>
      <trkpt lat="43.715930" lon="-7.494999">
        <ele>81.794</ele>
        <time>2019-06-19T17:54:19Z</time>
      </trkpt>
      <trkpt lat="43.715920" lon="-7.495097">
        <ele>82.670</ele>
        <time>2019-06-19T17:54:20Z</time>
      </trkpt>
      <trkpt lat="43.715906" lon="-7.495169">
        <ele>83.218</ele>
        <time>2019-06-19T17:54:21Z</time>
      </trkpt>
      <trkpt lat="43.715888" lon="-7.495262">
        <ele>84.068</ele>
        <time>2019-06-19T17:54:23Z</time>
      </trkpt>
      <trkpt lat="43.715849" lon="-7.495379">
        <ele>84.489</ele>
        <time>2019-06-19T17:54:25Z</time>
      </trkpt>
      <trkpt lat="43.715817" lon="-7.495449">
        <ele>84.506</ele>
        <time>2019-06-19T17:54:26Z</time>
      </trkpt>
      <trkpt lat="43.715782" lon="-7.495525">
        <ele>84.526</ele>
        <time>2019-06-19T17:54:27Z</time>
      </trkpt>
      <trkpt lat="43.715728" lon="-7.495594">
        <ele>84.408</ele>
        <time>2019-06-19T17:54:28Z</time>
      </trkpt>
      <trkpt lat="43.715685" lon="-7.495652">
        <ele>84.591</ele>
        <time>2019-06-19T17:54:29Z</time>
      </trkpt>
      <trkpt lat="43.715647" lon="-7.495704">
        <ele>84.635</ele>
        <time>2019-06-19T17:54:30Z</time>
      </trkpt>
      <trkpt lat="43.715617" lon="-7.495757">
        <ele>84.726</ele>
        <time>2019-06-19T17:54:31Z</time>
      </trkpt>
      <trkpt lat="43.715598" lon="-7.495816">
        <ele>85.089</ele>
        <time>2019-06-19T17:54:32Z</time>
      </trkpt>
      <trkpt lat="43.715592" lon="-7.495894">
        <ele>85.649</ele>
        <time>2019-06-19T17:54:33Z</time>
      </trkpt>
      <trkpt lat="43.715593" lon="-7.495994">
        <ele>86.335</ele>
        <time>2019-06-19T17:54:34Z</time>
      </trkpt>
      <trkpt lat="43.715601" lon="-7.496131">
        <ele>87.243</ele>
        <time>2019-06-19T17:54:35Z</time>
      </trkpt>
      <trkpt lat="43.715640" lon="-7.496263">
        <ele>87.993</ele>
        <time>2019-06-19T17:54:36Z</time>
      </trkpt>
      <trkpt lat="43.715667" lon="-7.496418">
        <ele>88.618</ele>
        <time>2019-06-19T17:54:37Z</time>
      </trkpt>
      <trkpt lat="43.715718" lon="-7.496581">
        <ele>89.698</ele>
        <time>2019-06-19T17:54:38Z</time>
      </trkpt>
      <trkpt lat="43.715748" lon="-7.496760">
        <ele>91.117</ele>
        <time>2019-06-19T17:54:39Z</time>
      </trkpt>
      <trkpt lat="43.715785" lon="-7.496943">
        <ele>93.608</ele>
        <time>2019-06-19T17:54:40Z</time>
      </trkpt>
      <trkpt lat="43.715824" lon="-7.497146">
        <ele>96.824</ele>
        <time>2019-06-19T17:54:41Z</time>
      </trkpt>
      <trkpt lat="43.715865" lon="-7.497356">
        <ele>99.918</ele>
        <time>2019-06-19T17:54:42Z</time>
      </trkpt>
      <trkpt lat="43.715903" lon="-7.497563">
        <ele>102.889</ele>
        <time>2019-06-19T17:54:43Z</time>
      </trkpt>
      <trkpt lat="43.715939" lon="-7.497743">
        <ele>104.852</ele>
        <time>2019-06-19T17:54:44Z</time>
      </trkpt>
      <trkpt lat="43.715966" lon="-7.497906">
        <ele>105.542</ele>
        <time>2019-06-19T17:54:45Z</time>
      </trkpt>
      <trkpt lat="43.715999" lon="-7.498049">
        <ele>105.838</ele>
        <time>2019-06-19T17:54:46Z</time>
      </trkpt>
      <trkpt lat="43.716020" lon="-7.498182">
        <ele>105.866</ele>
        <time>2019-06-19T17:54:47Z</time>
      </trkpt>
      <trkpt lat="43.716039" lon="-7.498298">
        <ele>105.716</ele>
        <time>2019-06-19T17:54:48Z</time>
      </trkpt>
      <trkpt lat="43.716067" lon="-7.498402">
        <ele>105.464</ele>
        <time>2019-06-19T17:54:49Z</time>
      </trkpt>
      <trkpt lat="43.716101" lon="-7.498500">
        <ele>105.106</ele>
        <time>2019-06-19T17:54:50Z</time>
      </trkpt>
      <trkpt lat="43.716140" lon="-7.498590">
        <ele>105.216</ele>
        <time>2019-06-19T17:54:51Z</time>
      </trkpt>
      <trkpt lat="43.716198" lon="-7.498705">
        <ele>106.008</ele>
        <time>2019-06-19T17:54:52Z</time>
      </trkpt>
      <trkpt lat="43.716278" lon="-7.498821">
        <ele>107.049</ele>
        <time>2019-06-19T17:54:53Z</time>
      </trkpt>
      <trkpt lat="43.716368" lon="-7.498956">
        <ele>108.373</ele>
        <time>2019-06-19T17:54:54Z</time>
      </trkpt>
      <trkpt lat="43.716464" lon="-7.499103">
        <ele>109.424</ele>
        <time>2019-06-19T17:54:55Z</time>
      </trkpt>
      <trkpt lat="43.716560" lon="-7.499248">
        <ele>109.617</ele>
        <time>2019-06-19T17:54:56Z</time>
      </trkpt>
      <trkpt lat="43.716646" lon="-7.499399">
        <ele>109.877</ele>
        <time>2019-06-19T17:54:57Z</time>
      </trkpt>
      <trkpt lat="43.716732" lon="-7.499521">
        <ele>110.873</ele>
        <time>2019-06-19T17:54:58Z</time>
      </trkpt>
      <trkpt lat="43.716847" lon="-7.499703">
        <ele>113.221</ele>
        <time>2019-06-19T17:54:59Z</time>
      </trkpt>
      <trkpt lat="43.716966" lon="-7.499863">
        <ele>115.941</ele>
        <time>2019-06-19T17:55:00Z</time>
      </trkpt>
      <trkpt lat="43.717057" lon="-7.499988">
        <ele>118.421</ele>
        <time>2019-06-19T17:55:01Z</time>
      </trkpt>
      <trkpt lat="43.717160" lon="-7.500132">
        <ele>119.541</ele>
        <time>2019-06-19T17:55:02Z</time>
      </trkpt>
      <trkpt lat="43.717252" lon="-7.500256">
        <ele>119.605</ele>
        <time>2019-06-19T17:55:03Z</time>
      </trkpt>
      <trkpt lat="43.717376" lon="-7.500378">
        <ele>119.908</ele>
        <time>2019-06-19T17:55:04Z</time>
      </trkpt>
      <trkpt lat="43.717487" lon="-7.500501">
        <ele>119.665</ele>
        <time>2019-06-19T17:55:05Z</time>
      </trkpt>
      <trkpt lat="43.717601" lon="-7.500608">
        <ele>120.539</ele>
        <time>2019-06-19T17:55:06Z</time>
      </trkpt>
      <trkpt lat="43.717710" lon="-7.500714">
        <ele>121.090</ele>
        <time>2019-06-19T17:55:07Z</time>
      </trkpt>
      <trkpt lat="43.717805" lon="-7.500820">
        <ele>120.423</ele>
        <time>2019-06-19T17:55:08Z</time>
      </trkpt>
      <trkpt lat="43.717908" lon="-7.500923">
        <ele>119.853</ele>
        <time>2019-06-19T17:55:09Z</time>
      </trkpt>
      <trkpt lat="43.718009" lon="-7.501006">
        <ele>119.749</ele>
        <time>2019-06-19T17:55:10Z</time>
      </trkpt>
      <trkpt lat="43.718103" lon="-7.501100">
        <ele>118.697</ele>
        <time>2019-06-19T17:55:11Z</time>
      </trkpt>
      <trkpt lat="43.718192" lon="-7.501158">
        <ele>117.217</ele>
        <time>2019-06-19T17:55:12Z</time>
      </trkpt>
      <trkpt lat="43.718257" lon="-7.501246">
        <ele>116.154</ele>
        <time>2019-06-19T17:55:13Z</time>
      </trkpt>
      <trkpt lat="43.718317" lon="-7.501344">
        <ele>115.256</ele>
        <time>2019-06-19T17:55:14Z</time>
      </trkpt>
      <trkpt lat="43.718375" lon="-7.501476">
        <ele>115.511</ele>
        <time>2019-06-19T17:55:15Z</time>
      </trkpt>
      <trkpt lat="43.718395" lon="-7.501617">
        <ele>115.708</ele>
        <time>2019-06-19T17:55:16Z</time>
      </trkpt>
      <trkpt lat="43.718435" lon="-7.501753">
        <ele>115.698</ele>
        <time>2019-06-19T17:55:17Z</time>
      </trkpt>
      <trkpt lat="43.718465" lon="-7.501891">
        <ele>115.252</ele>
        <time>2019-06-19T17:55:18Z</time>
      </trkpt>
      <trkpt lat="43.718469" lon="-7.502033">
        <ele>113.873</ele>
        <time>2019-06-19T17:55:19Z</time>
      </trkpt>
      <trkpt lat="43.718448" lon="-7.502171">
        <ele>111.926</ele>
        <time>2019-06-19T17:55:20Z</time>
      </trkpt>
      <trkpt lat="43.718434" lon="-7.502316">
        <ele>110.086</ele>
        <time>2019-06-19T17:55:21Z</time>
      </trkpt>
      <trkpt lat="43.718433" lon="-7.502471">
        <ele>108.152</ele>
        <time>2019-06-19T17:55:22Z</time>
      </trkpt>
      <trkpt lat="43.718437" lon="-7.502639">
        <ele>106.750</ele>
        <time>2019-06-19T17:55:23Z</time>
      </trkpt>
      <trkpt lat="43.718453" lon="-7.502806">
        <ele>105.730</ele>
        <time>2019-06-19T17:55:24Z</time>
      </trkpt>
      <trkpt lat="43.718467" lon="-7.502969">
        <ele>104.936</ele>
        <time>2019-06-19T17:55:25Z</time>
      </trkpt>
      <trkpt lat="43.718499" lon="-7.503133">
        <ele>104.217</ele>
        <time>2019-06-19T17:55:26Z</time>
      </trkpt>
      <trkpt lat="43.718521" lon="-7.503297">
        <ele>103.318</ele>
        <time>2019-06-19T17:55:27Z</time>
      </trkpt>
      <trkpt lat="43.718545" lon="-7.503463">
        <ele>101.908</ele>
        <time>2019-06-19T17:55:28Z</time>
      </trkpt>
      <trkpt lat="43.718561" lon="-7.503638">
        <ele>100.286</ele>
        <time>2019-06-19T17:55:29Z</time>
      </trkpt>
      <trkpt lat="43.718608" lon="-7.503807">
        <ele>98.910</ele>
        <time>2019-06-19T17:55:30Z</time>
      </trkpt>
      <trkpt lat="43.718677" lon="-7.503975">
        <ele>98.361</ele>
        <time>2019-06-19T17:55:31Z</time>
      </trkpt>
      <trkpt lat="43.718742" lon="-7.504142">
        <ele>97.614</ele>
        <time>2019-06-19T17:55:32Z</time>
      </trkpt>
      <trkpt lat="43.718804" lon="-7.504316">
        <ele>97.094</ele>
        <time>2019-06-19T17:55:33Z</time>
      </trkpt>
      <trkpt lat="43.718848" lon="-7.504501">
        <ele>95.670</ele>
        <time>2019-06-19T17:55:34Z</time>
      </trkpt>
      <trkpt lat="43.718789" lon="-7.504682">
        <ele>92.498</ele>
        <time>2019-06-19T17:55:35Z</time>
      </trkpt>
      <trkpt lat="43.718792" lon="-7.504872">
        <ele>90.048</ele>
        <time>2019-06-19T17:55:36Z</time>
      </trkpt>
      <trkpt lat="43.718804" lon="-7.505062">
        <ele>87.985</ele>
        <time>2019-06-19T17:55:37Z</time>
      </trkpt>
      <trkpt lat="43.718826" lon="-7.505227">
        <ele>86.589</ele>
        <time>2019-06-19T17:55:38Z</time>
      </trkpt>
      <trkpt lat="43.718861" lon="-7.505400">
        <ele>85.517</ele>
        <time>2019-06-19T17:55:39Z</time>
      </trkpt>
      <trkpt lat="43.718885" lon="-7.505585">
        <ele>84.908</ele>
        <time>2019-06-19T17:55:40Z</time>
      </trkpt>
      <trkpt lat="43.718878" lon="-7.505767">
        <ele>84.221</ele>
        <time>2019-06-19T17:55:41Z</time>
      </trkpt>
      <trkpt lat="43.718884" lon="-7.505946">
        <ele>82.735</ele>
        <time>2019-06-19T17:55:42Z</time>
      </trkpt>
      <trkpt lat="43.718878" lon="-7.506118">
        <ele>80.886</ele>
        <time>2019-06-19T17:55:43Z</time>
      </trkpt>
      <trkpt lat="43.718874" lon="-7.506288">
        <ele>78.349</ele>
        <time>2019-06-19T17:55:44Z</time>
      </trkpt>
      <trkpt lat="43.718887" lon="-7.506452">
        <ele>76.589</ele>
        <time>2019-06-19T17:55:45Z</time>
      </trkpt>
      <trkpt lat="43.718915" lon="-7.506626">
        <ele>75.485</ele>
        <time>2019-06-19T17:55:46Z</time>
      </trkpt>
      <trkpt lat="43.718948" lon="-7.506812">
        <ele>75.173</ele>
        <time>2019-06-19T17:55:47Z</time>
      </trkpt>
      <trkpt lat="43.718992" lon="-7.506987">
        <ele>74.893</ele>
        <time>2019-06-19T17:55:48Z</time>
      </trkpt>
      <trkpt lat="43.719039" lon="-7.507160">
        <ele>74.367</ele>
        <time>2019-06-19T17:55:49Z</time>
      </trkpt>
      <trkpt lat="43.719091" lon="-7.507333">
        <ele>73.981</ele>
        <time>2019-06-19T17:55:50Z</time>
      </trkpt>
      <trkpt lat="43.719144" lon="-7.507522">
        <ele>72.819</ele>
        <time>2019-06-19T17:55:51Z</time>
      </trkpt>
      <trkpt lat="43.719195" lon="-7.507718">
        <ele>71.508</ele>
        <time>2019-06-19T17:55:52Z</time>
      </trkpt>
      <trkpt lat="43.719247" lon="-7.507911">
        <ele>70.249</ele>
        <time>2019-06-19T17:55:53Z</time>
      </trkpt>
      <trkpt lat="43.719298" lon="-7.508108">
        <ele>69.583</ele>
        <time>2019-06-19T17:55:54Z</time>
      </trkpt>
      <trkpt lat="43.719352" lon="-7.508292">
        <ele>69.784</ele>
        <time>2019-06-19T17:55:55Z</time>
      </trkpt>
      <trkpt lat="43.719397" lon="-7.508466">
        <ele>68.197</ele>
        <time>2019-06-19T17:55:56Z</time>
      </trkpt>
      <trkpt lat="43.719440" lon="-7.508614">
        <ele>66.037</ele>
        <time>2019-06-19T17:55:57Z</time>
      </trkpt>
      <trkpt lat="43.719483" lon="-7.508745">
        <ele>63.463</ele>
        <time>2019-06-19T17:55:58Z</time>
      </trkpt>
      <trkpt lat="43.719529" lon="-7.508851">
        <ele>61.131</ele>
        <time>2019-06-19T17:55:59Z</time>
      </trkpt>
      <trkpt lat="43.719586" lon="-7.508929">
        <ele>58.871</ele>
        <time>2019-06-19T17:56:00Z</time>
      </trkpt>
      <trkpt lat="43.719657" lon="-7.508972">
        <ele>57.198</ele>
        <time>2019-06-19T17:56:01Z</time>
      </trkpt>
      <trkpt lat="43.719745" lon="-7.508996">
        <ele>56.115</ele>
        <time>2019-06-19T17:56:02Z</time>
      </trkpt>
      <trkpt lat="43.719826" lon="-7.509021">
        <ele>55.926</ele>
        <time>2019-06-19T17:56:03Z</time>
      </trkpt>
      <trkpt lat="43.719901" lon="-7.509067">
        <ele>55.208</ele>
        <time>2019-06-19T17:56:04Z</time>
      </trkpt>
      <trkpt lat="43.719971" lon="-7.509150">
        <ele>53.322</ele>
        <time>2019-06-19T17:56:05Z</time>
      </trkpt>
      <trkpt lat="43.720038" lon="-7.509251">
        <ele>51.856</ele>
        <time>2019-06-19T17:56:06Z</time>
      </trkpt>
      <trkpt lat="43.720091" lon="-7.509373">
        <ele>49.977</ele>
        <time>2019-06-19T17:56:07Z</time>
      </trkpt>
      <trkpt lat="43.720131" lon="-7.509490">
        <ele>48.520</ele>
        <time>2019-06-19T17:56:08Z</time>
      </trkpt>
      <trkpt lat="43.720164" lon="-7.509620">
        <ele>47.530</ele>
        <time>2019-06-19T17:56:09Z</time>
      </trkpt>
      <trkpt lat="43.720188" lon="-7.509744">
        <ele>46.556</ele>
        <time>2019-06-19T17:56:10Z</time>
      </trkpt>
      <trkpt lat="43.720203" lon="-7.509893">
        <ele>45.184</ele>
        <time>2019-06-19T17:56:11Z</time>
      </trkpt>
      <trkpt lat="43.720201" lon="-7.510047">
        <ele>43.554</ele>
        <time>2019-06-19T17:56:12Z</time>
      </trkpt>
      <trkpt lat="43.720193" lon="-7.510207">
        <ele>41.822</ele>
        <time>2019-06-19T17:56:13Z</time>
      </trkpt>
      <trkpt lat="43.720185" lon="-7.510366">
        <ele>40.662</ele>
        <time>2019-06-19T17:56:14Z</time>
      </trkpt>
      <trkpt lat="43.720176" lon="-7.510512">
        <ele>39.808</ele>
        <time>2019-06-19T17:56:15Z</time>
      </trkpt>
      <trkpt lat="43.720169" lon="-7.510659">
        <ele>39.608</ele>
        <time>2019-06-19T17:56:16Z</time>
      </trkpt>
      <trkpt lat="43.720170" lon="-7.510799">
        <ele>39.635</ele>
        <time>2019-06-19T17:56:17Z</time>
      </trkpt>
      <trkpt lat="43.720175" lon="-7.510927">
        <ele>39.149</ele>
        <time>2019-06-19T17:56:18Z</time>
      </trkpt>
      <trkpt lat="43.720173" lon="-7.511064">
        <ele>38.320</ele>
        <time>2019-06-19T17:56:19Z</time>
      </trkpt>
      <trkpt lat="43.720191" lon="-7.511182">
        <ele>37.763</ele>
        <time>2019-06-19T17:56:20Z</time>
      </trkpt>
      <trkpt lat="43.720189" lon="-7.511301">
        <ele>37.123</ele>
        <time>2019-06-19T17:56:21Z</time>
      </trkpt>
      <trkpt lat="43.720199" lon="-7.511404">
        <ele>36.579</ele>
        <time>2019-06-19T17:56:22Z</time>
      </trkpt>
      <trkpt lat="43.720191" lon="-7.511506">
        <ele>35.317</ele>
        <time>2019-06-19T17:56:23Z</time>
      </trkpt>
      <trkpt lat="43.720159" lon="-7.511604">
        <ele>33.997</ele>
        <time>2019-06-19T17:56:24Z</time>
      </trkpt>
      <trkpt lat="43.720097" lon="-7.511667">
        <ele>32.799</ele>
        <time>2019-06-19T17:56:25Z</time>
      </trkpt>
      <trkpt lat="43.720034" lon="-7.511759">
        <ele>30.907</ele>
        <time>2019-06-19T17:56:26Z</time>
      </trkpt>
      <trkpt lat="43.719955" lon="-7.511854">
        <ele>29.327</ele>
        <time>2019-06-19T17:56:27Z</time>
      </trkpt>
      <trkpt lat="43.719885" lon="-7.511961">
        <ele>27.808</ele>
        <time>2019-06-19T17:56:28Z</time>
      </trkpt>
      <trkpt lat="43.719811" lon="-7.512050">
        <ele>27.162</ele>
        <time>2019-06-19T17:56:29Z</time>
      </trkpt>
      <trkpt lat="43.719736" lon="-7.512136">
        <ele>26.646</ele>
        <time>2019-06-19T17:56:30Z</time>
      </trkpt>
      <trkpt lat="43.719656" lon="-7.512194">
        <ele>26.067</ele>
        <time>2019-06-19T17:56:31Z</time>
      </trkpt>
      <trkpt lat="43.719564" lon="-7.512228">
        <ele>25.420</ele>
        <time>2019-06-19T17:56:32Z</time>
      </trkpt>
      <trkpt lat="43.719459" lon="-7.512236">
        <ele>24.970</ele>
        <time>2019-06-19T17:56:33Z</time>
      </trkpt>
      <trkpt lat="43.719341" lon="-7.512233">
        <ele>24.536</ele>
        <time>2019-06-19T17:56:34Z</time>
      </trkpt>
      <trkpt lat="43.719215" lon="-7.512244">
        <ele>23.994</ele>
        <time>2019-06-19T17:56:35Z</time>
      </trkpt>
      <trkpt lat="43.719092" lon="-7.512244">
        <ele>23.584</ele>
        <time>2019-06-19T17:56:36Z</time>
      </trkpt>
      <trkpt lat="43.718970" lon="-7.512253">
        <ele>23.042</ele>
        <time>2019-06-19T17:56:37Z</time>
      </trkpt>
      <trkpt lat="43.718853" lon="-7.512251">
        <ele>22.622</ele>
        <time>2019-06-19T17:56:38Z</time>
      </trkpt>
      <trkpt lat="43.718742" lon="-7.512258">
        <ele>22.114</ele>
        <time>2019-06-19T17:56:39Z</time>
      </trkpt>
      <trkpt lat="43.718637" lon="-7.512279">
        <ele>21.508</ele>
        <time>2019-06-19T17:56:40Z</time>
      </trkpt>
      <trkpt lat="43.718545" lon="-7.512324">
        <ele>20.767</ele>
        <time>2019-06-19T17:56:41Z</time>
      </trkpt>
      <trkpt lat="43.718459" lon="-7.512390">
        <ele>19.691</ele>
        <time>2019-06-19T17:56:42Z</time>
      </trkpt>
      <trkpt lat="43.718377" lon="-7.512484">
        <ele>18.312</ele>
        <time>2019-06-19T17:56:43Z</time>
      </trkpt>
      <trkpt lat="43.718300" lon="-7.512601">
        <ele>17.055</ele>
        <time>2019-06-19T17:56:44Z</time>
      </trkpt>
      <trkpt lat="43.718215" lon="-7.512726">
        <ele>15.565</ele>
        <time>2019-06-19T17:56:45Z</time>
      </trkpt>
      <trkpt lat="43.718138" lon="-7.512857">
        <ele>14.061</ele>
        <time>2019-06-19T17:56:46Z</time>
      </trkpt>
      <trkpt lat="43.718071" lon="-7.512971">
        <ele>12.719</ele>
        <time>2019-06-19T17:56:47Z</time>
      </trkpt>
      <trkpt lat="43.717998" lon="-7.513084">
        <ele>11.849</ele>
        <time>2019-06-19T17:56:48Z</time>
      </trkpt>
      <trkpt lat="43.717931" lon="-7.513171">
        <ele>11.476</ele>
        <time>2019-06-19T17:56:49Z</time>
      </trkpt>
      <trkpt lat="43.717869" lon="-7.513256">
        <ele>11.090</ele>
        <time>2019-06-19T17:56:50Z</time>
      </trkpt>
      <trkpt lat="43.717819" lon="-7.513327">
        <ele>10.919</ele>
        <time>2019-06-19T17:56:51Z</time>
      </trkpt>
      <trkpt lat="43.717773" lon="-7.513416">
        <ele>10.708</ele>
        <time>2019-06-19T17:56:52Z</time>
      </trkpt>
      <trkpt lat="43.717743" lon="-7.513515">
        <ele>10.450</ele>
        <time>2019-06-19T17:56:53Z</time>
      </trkpt>
      <trkpt lat="43.717723" lon="-7.513629">
        <ele>10.114</ele>
        <time>2019-06-19T17:56:54Z</time>
      </trkpt>
      <trkpt lat="43.717735" lon="-7.513746">
        <ele>9.715</ele>
        <time>2019-06-19T17:56:55Z</time>
      </trkpt>
      <trkpt lat="43.717750" lon="-7.513889">
        <ele>9.158</ele>
        <time>2019-06-19T17:56:56Z</time>
      </trkpt>
      <trkpt lat="43.717787" lon="-7.514034">
        <ele>7.998</ele>
        <time>2019-06-19T17:56:57Z</time>
      </trkpt>
      <trkpt lat="43.717833" lon="-7.514159">
        <ele>7.014</ele>
        <time>2019-06-19T17:56:58Z</time>
      </trkpt>
      <trkpt lat="43.717894" lon="-7.514279">
        <ele>6.732</ele>
        <time>2019-06-19T17:56:59Z</time>
      </trkpt>
      <trkpt lat="43.717968" lon="-7.514385">
        <ele>5.932</ele>
        <time>2019-06-19T17:57:00Z</time>
      </trkpt>
      <trkpt lat="43.718043" lon="-7.514493">
        <ele>5.141</ele>
        <time>2019-06-19T17:57:01Z</time>
      </trkpt>
      <trkpt lat="43.718106" lon="-7.514589">
        <ele>4.781</ele>
        <time>2019-06-19T17:57:02Z</time>
      </trkpt>
      <trkpt lat="43.718170" lon="-7.514681">
        <ele>4.209</ele>
        <time>2019-06-19T17:57:03Z</time>
      </trkpt>
      <trkpt lat="43.718203" lon="-7.514758">
        <ele>4.008</ele>
        <time>2019-06-19T17:57:04Z</time>
      </trkpt>
      <trkpt lat="43.718231" lon="-7.514863">
        <ele>4.117</ele>
        <time>2019-06-19T17:57:05Z</time>
      </trkpt>
      <trkpt lat="43.718240" lon="-7.514984">
        <ele>4.371</ele>
        <time>2019-06-19T17:57:06Z</time>
      </trkpt>
      <trkpt lat="43.718232" lon="-7.515103">
        <ele>4.522</ele>
        <time>2019-06-19T17:57:07Z</time>
      </trkpt>
      <trkpt lat="43.718214" lon="-7.515230">
        <ele>4.865</ele>
        <time>2019-06-19T17:57:08Z</time>
      </trkpt>
      <trkpt lat="43.718190" lon="-7.515353">
        <ele>5.375</ele>
        <time>2019-06-19T17:57:09Z</time>
      </trkpt>
      <trkpt lat="43.718161" lon="-7.515460">
        <ele>5.941</ele>
        <time>2019-06-19T17:57:10Z</time>
      </trkpt>
      <trkpt lat="43.718150" lon="-7.515552">
        <ele>6.319</ele>
        <time>2019-06-19T17:57:11Z</time>
      </trkpt>
      <trkpt lat="43.718181" lon="-7.515637">
        <ele>6.469</ele>
        <time>2019-06-19T17:57:13Z</time>
      </trkpt>
      <trkpt lat="43.718268" lon="-7.515687">
        <ele>5.975</ele>
        <time>2019-06-19T17:57:15Z</time>
      </trkpt>
      <trkpt lat="43.718353" lon="-7.515696">
        <ele>5.728</ele>
        <time>2019-06-19T17:57:16Z</time>
      </trkpt>
      <trkpt lat="43.718447" lon="-7.515696">
        <ele>6.520</ele>
        <time>2019-06-19T17:57:17Z</time>
      </trkpt>
      <trkpt lat="43.718565" lon="-7.515717">
        <ele>7.708</ele>
        <time>2019-06-19T17:57:18Z</time>
      </trkpt>
      <trkpt lat="43.718685" lon="-7.515761">
        <ele>9.270</ele>
        <time>2019-06-19T17:57:19Z</time>
      </trkpt>
      <trkpt lat="43.718802" lon="-7.515830">
        <ele>11.084</ele>
        <time>2019-06-19T17:57:20Z</time>
      </trkpt>
      <trkpt lat="43.718924" lon="-7.515917">
        <ele>12.415</ele>
        <time>2019-06-19T17:57:21Z</time>
      </trkpt>
      <trkpt lat="43.719044" lon="-7.516004">
        <ele>12.518</ele>
        <time>2019-06-19T17:57:22Z</time>
      </trkpt>
      <trkpt lat="43.719161" lon="-7.516087">
        <ele>12.818</ele>
        <time>2019-06-19T17:57:23Z</time>
      </trkpt>
      <trkpt lat="43.719264" lon="-7.516158">
        <ele>12.754</ele>
        <time>2019-06-19T17:57:24Z</time>
      </trkpt>
      <trkpt lat="43.719364" lon="-7.516242">
        <ele>12.962</ele>
        <time>2019-06-19T17:57:25Z</time>
      </trkpt>
      <trkpt lat="43.719449" lon="-7.516335">
        <ele>13.442</ele>
        <time>2019-06-19T17:57:26Z</time>
      </trkpt>
      <trkpt lat="43.719531" lon="-7.516417">
        <ele>13.542</ele>
        <time>2019-06-19T17:57:27Z</time>
      </trkpt>
      <trkpt lat="43.719603" lon="-7.516505">
        <ele>13.322</ele>
        <time>2019-06-19T17:57:28Z</time>
      </trkpt>
      <trkpt lat="43.719677" lon="-7.516565">
        <ele>13.014</ele>
        <time>2019-06-19T17:57:29Z</time>
      </trkpt>
      <trkpt lat="43.719757" lon="-7.516600">
        <ele>12.408</ele>
        <time>2019-06-19T17:57:30Z</time>
      </trkpt>
      <trkpt lat="43.719843" lon="-7.516608">
        <ele>11.657</ele>
        <time>2019-06-19T17:57:31Z</time>
      </trkpt>
      <trkpt lat="43.719925" lon="-7.516591">
        <ele>10.761</ele>
        <time>2019-06-19T17:57:32Z</time>
      </trkpt>
      <trkpt lat="43.720006" lon="-7.516556">
        <ele>10.022</ele>
        <time>2019-06-19T17:57:33Z</time>
      </trkpt>
      <trkpt lat="43.720091" lon="-7.516518">
        <ele>9.395</ele>
        <time>2019-06-19T17:57:34Z</time>
      </trkpt>
      <trkpt lat="43.720175" lon="-7.516507">
        <ele>8.795</ele>
        <time>2019-06-19T17:57:35Z</time>
      </trkpt>
      <trkpt lat="43.720261" lon="-7.516499">
        <ele>8.171</ele>
        <time>2019-06-19T17:57:36Z</time>
      </trkpt>
      <trkpt lat="43.720338" lon="-7.516539">
        <ele>7.729</ele>
        <time>2019-06-19T17:57:37Z</time>
      </trkpt>
      <trkpt lat="43.720415" lon="-7.516591">
        <ele>7.499</ele>
        <time>2019-06-19T17:57:38Z</time>
      </trkpt>
      <trkpt lat="43.720479" lon="-7.516679">
        <ele>7.251</ele>
        <time>2019-06-19T17:57:39Z</time>
      </trkpt>
      <trkpt lat="43.720556" lon="-7.516803">
        <ele>6.501</ele>
        <time>2019-06-19T17:57:40Z</time>
      </trkpt>
      <trkpt lat="43.720642" lon="-7.516948">
        <ele>5.111</ele>
        <time>2019-06-19T17:57:41Z</time>
      </trkpt>
      <trkpt lat="43.720740" lon="-7.517092">
        <ele>3.808</ele>
        <time>2019-06-19T17:57:42Z</time>
      </trkpt>
      <trkpt lat="43.720859" lon="-7.517223">
        <ele>3.058</ele>
        <time>2019-06-19T17:57:43Z</time>
      </trkpt>
      <trkpt lat="43.720992" lon="-7.517325">
        <ele>3.052</ele>
        <time>2019-06-19T17:57:44Z</time>
      </trkpt>
      <trkpt lat="43.721128" lon="-7.517416">
        <ele>3.283</ele>
        <time>2019-06-19T17:57:45Z</time>
      </trkpt>
      <trkpt lat="43.721266" lon="-7.517488">
        <ele>4.676</ele>
        <time>2019-06-19T17:57:46Z</time>
      </trkpt>
      <trkpt lat="43.721410" lon="-7.517564">
        <ele>6.326</ele>
        <time>2019-06-19T17:57:47Z</time>
      </trkpt>
      <trkpt lat="43.721561" lon="-7.517608">
        <ele>6.962</ele>
        <time>2019-06-19T17:57:48Z</time>
      </trkpt>
      <trkpt lat="43.721697" lon="-7.517630">
        <ele>7.650</ele>
        <time>2019-06-19T17:57:49Z</time>
      </trkpt>
      <trkpt lat="43.721811" lon="-7.517646">
        <ele>8.650</ele>
        <time>2019-06-19T17:57:50Z</time>
      </trkpt>
      <trkpt lat="43.721906" lon="-7.517666">
        <ele>9.366</ele>
        <time>2019-06-19T17:57:51Z</time>
      </trkpt>
      <trkpt lat="43.722011" lon="-7.517716">
        <ele>10.629</ele>
        <time>2019-06-19T17:57:52Z</time>
      </trkpt>
      <trkpt lat="43.722123" lon="-7.517764">
        <ele>11.921</ele>
        <time>2019-06-19T17:57:53Z</time>
      </trkpt>
      <trkpt lat="43.722234" lon="-7.517816">
        <ele>13.308</ele>
        <time>2019-06-19T17:57:54Z</time>
      </trkpt>
      <trkpt lat="43.722349" lon="-7.517869">
        <ele>15.029</ele>
        <time>2019-06-19T17:57:55Z</time>
      </trkpt>
      <trkpt lat="43.722473" lon="-7.517929">
        <ele>16.763</ele>
        <time>2019-06-19T17:57:56Z</time>
      </trkpt>
      <trkpt lat="43.722594" lon="-7.518011">
        <ele>18.174</ele>
        <time>2019-06-19T17:57:57Z</time>
      </trkpt>
      <trkpt lat="43.722730" lon="-7.518085">
        <ele>19.717</ele>
        <time>2019-06-19T17:57:58Z</time>
      </trkpt>
      <trkpt lat="43.722862" lon="-7.518165">
        <ele>21.967</ele>
        <time>2019-06-19T17:57:59Z</time>
      </trkpt>
      <trkpt lat="43.722998" lon="-7.518259">
        <ele>23.733</ele>
        <time>2019-06-19T17:58:00Z</time>
      </trkpt>
      <trkpt lat="43.723127" lon="-7.518345">
        <ele>25.661</ele>
        <time>2019-06-19T17:58:01Z</time>
      </trkpt>
      <trkpt lat="43.723251" lon="-7.518436">
        <ele>28.321</ele>
        <time>2019-06-19T17:58:02Z</time>
      </trkpt>
      <trkpt lat="43.723361" lon="-7.518539">
        <ele>30.638</ele>
        <time>2019-06-19T17:58:03Z</time>
      </trkpt>
      <trkpt lat="43.723464" lon="-7.518657">
        <ele>32.970</ele>
        <time>2019-06-19T17:58:04Z</time>
      </trkpt>
      <trkpt lat="43.723556" lon="-7.518788">
        <ele>35.317</ele>
        <time>2019-06-19T17:58:05Z</time>
      </trkpt>
      <trkpt lat="43.723635" lon="-7.518938">
        <ele>37.608</ele>
        <time>2019-06-19T17:58:06Z</time>
      </trkpt>
      <trkpt lat="43.723703" lon="-7.519091">
        <ele>39.666</ele>
        <time>2019-06-19T17:58:07Z</time>
      </trkpt>
      <trkpt lat="43.723759" lon="-7.519243">
        <ele>41.220</ele>
        <time>2019-06-19T17:58:08Z</time>
      </trkpt>
      <trkpt lat="43.723814" lon="-7.519400">
        <ele>42.041</ele>
        <time>2019-06-19T17:58:09Z</time>
      </trkpt>
      <trkpt lat="43.723823" lon="-7.519534">
        <ele>41.574</ele>
        <time>2019-06-19T17:58:10Z</time>
      </trkpt>
      <trkpt lat="43.723846" lon="-7.519690">
        <ele>40.874</ele>
        <time>2019-06-19T17:58:11Z</time>
      </trkpt>
      <trkpt lat="43.723830" lon="-7.519845">
        <ele>40.450</ele>
        <time>2019-06-19T17:58:12Z</time>
      </trkpt>
      <trkpt lat="43.723819" lon="-7.520035">
        <ele>40.558</ele>
        <time>2019-06-19T17:58:13Z</time>
      </trkpt>
      <trkpt lat="43.723897" lon="-7.520235">
        <ele>42.848</ele>
        <time>2019-06-19T17:58:14Z</time>
      </trkpt>
      <trkpt lat="43.723936" lon="-7.520413">
        <ele>45.659</ele>
        <time>2019-06-19T17:58:15Z</time>
      </trkpt>
      <trkpt lat="43.723985" lon="-7.520614">
        <ele>49.103</ele>
        <time>2019-06-19T17:58:16Z</time>
      </trkpt>
      <trkpt lat="43.724020" lon="-7.520800">
        <ele>51.923</ele>
        <time>2019-06-19T17:58:17Z</time>
      </trkpt>
      <trkpt lat="43.724069" lon="-7.520993">
        <ele>54.608</ele>
        <time>2019-06-19T17:58:18Z</time>
      </trkpt>
      <trkpt lat="43.724128" lon="-7.521191">
        <ele>56.778</ele>
        <time>2019-06-19T17:58:19Z</time>
      </trkpt>
      <trkpt lat="43.724179" lon="-7.521402">
        <ele>58.382</ele>
        <time>2019-06-19T17:58:20Z</time>
      </trkpt>
      <trkpt lat="43.724222" lon="-7.521593">
        <ele>59.023</ele>
        <time>2019-06-19T17:58:21Z</time>
      </trkpt>
      <trkpt lat="43.724280" lon="-7.521791">
        <ele>59.396</ele>
        <time>2019-06-19T17:58:22Z</time>
      </trkpt>
      <trkpt lat="43.724352" lon="-7.521971">
        <ele>59.896</ele>
        <time>2019-06-19T17:58:23Z</time>
      </trkpt>
      <trkpt lat="43.724419" lon="-7.522143">
        <ele>60.072</ele>
        <time>2019-06-19T17:58:24Z</time>
      </trkpt>
      <trkpt lat="43.724498" lon="-7.522314">
        <ele>61.780</ele>
        <time>2019-06-19T17:58:25Z</time>
      </trkpt>
      <trkpt lat="43.724589" lon="-7.522482">
        <ele>64.340</ele>
        <time>2019-06-19T17:58:26Z</time>
      </trkpt>
      <trkpt lat="43.724684" lon="-7.522659">
        <ele>65.946</ele>
        <time>2019-06-19T17:58:27Z</time>
      </trkpt>
      <trkpt lat="43.724775" lon="-7.522849">
        <ele>67.088</ele>
        <time>2019-06-19T17:58:28Z</time>
      </trkpt>
      <trkpt lat="43.724871" lon="-7.523030">
        <ele>68.516</ele>
        <time>2019-06-19T17:58:29Z</time>
      </trkpt>
      <trkpt lat="43.724944" lon="-7.523241">
        <ele>70.008</ele>
        <time>2019-06-19T17:58:30Z</time>
      </trkpt>
      <trkpt lat="43.725009" lon="-7.523439">
        <ele>70.837</ele>
        <time>2019-06-19T17:58:31Z</time>
      </trkpt>
      <trkpt lat="43.725056" lon="-7.523628">
        <ele>70.791</ele>
        <time>2019-06-19T17:58:32Z</time>
      </trkpt>
      <trkpt lat="43.725107" lon="-7.523841">
        <ele>69.972</ele>
        <time>2019-06-19T17:58:33Z</time>
      </trkpt>
      <trkpt lat="43.725163" lon="-7.524058">
        <ele>68.975</ele>
        <time>2019-06-19T17:58:34Z</time>
      </trkpt>
      <trkpt lat="43.725217" lon="-7.524253">
        <ele>68.165</ele>
        <time>2019-06-19T17:58:35Z</time>
      </trkpt>
      <trkpt lat="43.725279" lon="-7.524420">
        <ele>68.291</ele>
        <time>2019-06-19T17:58:36Z</time>
      </trkpt>
      <trkpt lat="43.725327" lon="-7.524585">
        <ele>69.319</ele>
        <time>2019-06-19T17:58:37Z</time>
      </trkpt>
      <trkpt lat="43.725370" lon="-7.524746">
        <ele>70.759</ele>
        <time>2019-06-19T17:58:38Z</time>
      </trkpt>
      <trkpt lat="43.725413" lon="-7.524900">
        <ele>72.268</ele>
        <time>2019-06-19T17:58:39Z</time>
      </trkpt>
      <trkpt lat="43.725413" lon="-7.524963">
        <ele>72.342</ele>
        <time>2019-06-19T17:58:40Z</time>
      </trkpt>
      <trkpt lat="43.725432" lon="-7.525041">
        <ele>72.926</ele>
        <time>2019-06-19T17:58:41Z</time>
      </trkpt>
      <trkpt lat="43.725447" lon="-7.525136">
        <ele>73.208</ele>
        <time>2019-06-19T17:58:43Z</time>
      </trkpt>
      <trkpt lat="43.725466" lon="-7.525239">
        <ele>73.569</ele>
        <time>2019-06-19T17:58:45Z</time>
      </trkpt>
      <trkpt lat="43.725469" lon="-7.525313">
        <ele>73.313</ele>
        <time>2019-06-19T17:58:46Z</time>
      </trkpt>
      <trkpt lat="43.725480" lon="-7.525402">
        <ele>73.394</ele>
        <time>2019-06-19T17:58:47Z</time>
      </trkpt>
      <trkpt lat="43.725487" lon="-7.525481">
        <ele>73.117</ele>
        <time>2019-06-19T17:58:48Z</time>
      </trkpt>
      <trkpt lat="43.725498" lon="-7.525563">
        <ele>73.157</ele>
        <time>2019-06-19T17:58:49Z</time>
      </trkpt>
      <trkpt lat="43.725509" lon="-7.525652">
        <ele>72.913</ele>
        <time>2019-06-19T17:58:50Z</time>
      </trkpt>
      <trkpt lat="43.725522" lon="-7.525741">
        <ele>72.771</ele>
        <time>2019-06-19T17:58:51Z</time>
      </trkpt>
      <trkpt lat="43.725529" lon="-7.525822">
        <ele>72.421</ele>
        <time>2019-06-19T17:58:52Z</time>
      </trkpt>
      <trkpt lat="43.725536" lon="-7.525897">
        <ele>72.172</ele>
        <time>2019-06-19T17:58:53Z</time>
      </trkpt>
      <trkpt lat="43.725540" lon="-7.526008">
        <ele>71.413</ele>
        <time>2019-06-19T17:58:55Z</time>
      </trkpt>
      <trkpt lat="43.725561" lon="-7.526103">
        <ele>71.114</ele>
        <time>2019-06-19T17:58:58Z</time>
      </trkpt>
      <trkpt lat="43.725580" lon="-7.526198">
        <ele>71.008</ele>
        <time>2019-06-19T17:59:00Z</time>
      </trkpt>
      <trkpt lat="43.725582" lon="-7.526302">
        <ele>70.660</ele>
        <time>2019-06-19T17:59:35Z</time>
      </trkpt>
      <trkpt lat="43.725579" lon="-7.526411">
        <ele>70.344</ele>
        <time>2019-06-19T17:59:36Z</time>
      </trkpt>
      <trkpt lat="43.725587" lon="-7.526523">
        <ele>70.325</ele>
        <time>2019-06-19T17:59:37Z</time>
      </trkpt>
      <trkpt lat="43.725598" lon="-7.526636">
        <ele>70.518</ele>
        <time>2019-06-19T17:59:38Z</time>
      </trkpt>
      <trkpt lat="43.725603" lon="-7.526767">
        <ele>70.848</ele>
        <time>2019-06-19T17:59:39Z</time>
      </trkpt>
      <trkpt lat="43.725599" lon="-7.526911">
        <ele>71.284</ele>
        <time>2019-06-19T17:59:40Z</time>
      </trkpt>
      <trkpt lat="43.725596" lon="-7.527048">
        <ele>71.712</ele>
        <time>2019-06-19T17:59:41Z</time>
      </trkpt>
      <trkpt lat="43.725584" lon="-7.527189">
        <ele>72.152</ele>
        <time>2019-06-19T17:59:42Z</time>
      </trkpt>
      <trkpt lat="43.725558" lon="-7.527333">
        <ele>72.087</ele>
        <time>2019-06-19T17:59:43Z</time>
      </trkpt>
      <trkpt lat="43.725538" lon="-7.527465">
        <ele>71.942</ele>
        <time>2019-06-19T17:59:44Z</time>
      </trkpt>
      <trkpt lat="43.725499" lon="-7.527606">
        <ele>72.626</ele>
        <time>2019-06-19T17:59:45Z</time>
      </trkpt>
      <trkpt lat="43.725455" lon="-7.527741">
        <ele>73.408</ele>
        <time>2019-06-19T17:59:46Z</time>
      </trkpt>
      <trkpt lat="43.725401" lon="-7.527861">
        <ele>74.111</ele>
        <time>2019-06-19T17:59:47Z</time>
      </trkpt>
      <trkpt lat="43.725337" lon="-7.527964">
        <ele>74.915</ele>
        <time>2019-06-19T17:59:48Z</time>
      </trkpt>
      <trkpt lat="43.725283" lon="-7.528043">
        <ele>75.866</ele>
        <time>2019-06-19T17:59:49Z</time>
      </trkpt>
      <trkpt lat="43.725230" lon="-7.528125">
        <ele>76.189</ele>
        <time>2019-06-19T17:59:50Z</time>
      </trkpt>
      <trkpt lat="43.725183" lon="-7.528202">
        <ele>76.439</ele>
        <time>2019-06-19T17:59:51Z</time>
      </trkpt>
      <trkpt lat="43.725136" lon="-7.528266">
        <ele>76.625</ele>
        <time>2019-06-19T17:59:52Z</time>
      </trkpt>
      <trkpt lat="43.725105" lon="-7.528337">
        <ele>77.073</ele>
        <time>2019-06-19T17:59:53Z</time>
      </trkpt>
      <trkpt lat="43.725101" lon="-7.528441">
        <ele>77.653</ele>
        <time>2019-06-19T17:59:55Z</time>
      </trkpt>
      <trkpt lat="43.725150" lon="-7.528488">
        <ele>77.825</ele>
        <time>2019-06-19T17:59:57Z</time>
      </trkpt>
      <trkpt lat="43.725194" lon="-7.528473">
        <ele>77.726</ele>
        <time>2019-06-19T17:59:58Z</time>
      </trkpt>
      <trkpt lat="43.725247" lon="-7.528451">
        <ele>77.508</ele>
        <time>2019-06-19T17:59:59Z</time>
      </trkpt>
      <trkpt lat="43.725309" lon="-7.528443">
        <ele>77.208</ele>
        <time>2019-06-19T18:00:00Z</time>
      </trkpt>
      <trkpt lat="43.725389" lon="-7.528461">
        <ele>76.945</ele>
        <time>2019-06-19T18:00:01Z</time>
      </trkpt>
      <trkpt lat="43.725465" lon="-7.528492">
        <ele>76.549</ele>
        <time>2019-06-19T18:00:02Z</time>
      </trkpt>
      <trkpt lat="43.725545" lon="-7.528521">
        <ele>76.130</ele>
        <time>2019-06-19T18:00:03Z</time>
      </trkpt>
      <trkpt lat="43.725627" lon="-7.528536">
        <ele>75.583</ele>
        <time>2019-06-19T18:00:04Z</time>
      </trkpt>
      <trkpt lat="43.725715" lon="-7.528532">
        <ele>74.933</ele>
        <time>2019-06-19T18:00:05Z</time>
      </trkpt>
      <trkpt lat="43.725804" lon="-7.528507">
        <ele>74.219</ele>
        <time>2019-06-19T18:00:06Z</time>
      </trkpt>
      <trkpt lat="43.725892" lon="-7.528460">
        <ele>73.627</ele>
        <time>2019-06-19T18:00:07Z</time>
      </trkpt>
      <trkpt lat="43.725977" lon="-7.528399">
        <ele>72.717</ele>
        <time>2019-06-19T18:00:08Z</time>
      </trkpt>
      <trkpt lat="43.726060" lon="-7.528323">
        <ele>71.658</ele>
        <time>2019-06-19T18:00:09Z</time>
      </trkpt>
      <trkpt lat="43.726153" lon="-7.528238">
        <ele>71.252</ele>
        <time>2019-06-19T18:00:10Z</time>
      </trkpt>
      <trkpt lat="43.726240" lon="-7.528148">
        <ele>71.217</ele>
        <time>2019-06-19T18:00:11Z</time>
      </trkpt>
      <trkpt lat="43.726336" lon="-7.528055">
        <ele>71.208</ele>
        <time>2019-06-19T18:00:12Z</time>
      </trkpt>
      <trkpt lat="43.726441" lon="-7.527962">
        <ele>71.978</ele>
        <time>2019-06-19T18:00:13Z</time>
      </trkpt>
      <trkpt lat="43.726553" lon="-7.527886">
        <ele>72.892</ele>
        <time>2019-06-19T18:00:14Z</time>
      </trkpt>
      <trkpt lat="43.726659" lon="-7.527827">
        <ele>73.623</ele>
        <time>2019-06-19T18:00:15Z</time>
      </trkpt>
      <trkpt lat="43.726766" lon="-7.527758">
        <ele>74.976</ele>
        <time>2019-06-19T18:00:16Z</time>
      </trkpt>
      <trkpt lat="43.726878" lon="-7.527688">
        <ele>76.046</ele>
        <time>2019-06-19T18:00:17Z</time>
      </trkpt>
      <trkpt lat="43.726986" lon="-7.527587">
        <ele>76.862</ele>
        <time>2019-06-19T18:00:18Z</time>
      </trkpt>
      <trkpt lat="43.727101" lon="-7.527505">
        <ele>77.570</ele>
        <time>2019-06-19T18:00:19Z</time>
      </trkpt>
      <trkpt lat="43.727191" lon="-7.527353">
        <ele>79.530</ele>
        <time>2019-06-19T18:00:20Z</time>
      </trkpt>
      <trkpt lat="43.727331" lon="-7.527243">
        <ele>80.836</ele>
        <time>2019-06-19T18:00:21Z</time>
      </trkpt>
      <trkpt lat="43.727477" lon="-7.527122">
        <ele>82.117</ele>
        <time>2019-06-19T18:00:22Z</time>
      </trkpt>
      <trkpt lat="43.727629" lon="-7.527016">
        <ele>83.218</ele>
        <time>2019-06-19T18:00:23Z</time>
      </trkpt>
      <trkpt lat="43.727784" lon="-7.526911">
        <ele>84.308</ele>
        <time>2019-06-19T18:00:24Z</time>
      </trkpt>
      <trkpt lat="43.727930" lon="-7.526816">
        <ele>85.566</ele>
        <time>2019-06-19T18:00:25Z</time>
      </trkpt>
      <trkpt lat="43.728066" lon="-7.526723">
        <ele>86.630</ele>
        <time>2019-06-19T18:00:26Z</time>
      </trkpt>
      <trkpt lat="43.728197" lon="-7.526639">
        <ele>87.251</ele>
        <time>2019-06-19T18:00:27Z</time>
      </trkpt>
      <trkpt lat="43.728325" lon="-7.526572">
        <ele>87.754</ele>
        <time>2019-06-19T18:00:28Z</time>
      </trkpt>
      <trkpt lat="43.728444" lon="-7.526504">
        <ele>88.414</ele>
        <time>2019-06-19T18:00:29Z</time>
      </trkpt>
      <trkpt lat="43.728562" lon="-7.526447">
        <ele>89.230</ele>
        <time>2019-06-19T18:00:30Z</time>
      </trkpt>
      <trkpt lat="43.728653" lon="-7.526372">
        <ele>89.898</ele>
        <time>2019-06-19T18:00:31Z</time>
      </trkpt>
      <trkpt lat="43.728736" lon="-7.526291">
        <ele>90.158</ele>
        <time>2019-06-19T18:00:32Z</time>
      </trkpt>
      <trkpt lat="43.728815" lon="-7.526204">
        <ele>90.833</ele>
        <time>2019-06-19T18:00:33Z</time>
      </trkpt>
      <trkpt lat="43.728901" lon="-7.526097">
        <ele>92.023</ele>
        <time>2019-06-19T18:00:34Z</time>
      </trkpt>
      <trkpt lat="43.728985" lon="-7.525963">
        <ele>92.415</ele>
        <time>2019-06-19T18:00:35Z</time>
      </trkpt>
      <trkpt lat="43.729082" lon="-7.525833">
        <ele>92.608</ele>
        <time>2019-06-19T18:00:36Z</time>
      </trkpt>
      <trkpt lat="43.729175" lon="-7.525714">
        <ele>92.936</ele>
        <time>2019-06-19T18:00:37Z</time>
      </trkpt>
      <trkpt lat="43.729272" lon="-7.525597">
        <ele>93.710</ele>
        <time>2019-06-19T18:00:38Z</time>
      </trkpt>
      <trkpt lat="43.729358" lon="-7.525476">
        <ele>94.681</ele>
        <time>2019-06-19T18:00:39Z</time>
      </trkpt>
      <trkpt lat="43.729434" lon="-7.525349">
        <ele>95.544</ele>
        <time>2019-06-19T18:00:40Z</time>
      </trkpt>
      <trkpt lat="43.729505" lon="-7.525215">
        <ele>95.764</ele>
        <time>2019-06-19T18:00:41Z</time>
      </trkpt>
      <trkpt lat="43.729571" lon="-7.525084">
        <ele>95.210</ele>
        <time>2019-06-19T18:00:42Z</time>
      </trkpt>
      <trkpt lat="43.729627" lon="-7.524976">
        <ele>94.678</ele>
        <time>2019-06-19T18:00:43Z</time>
      </trkpt>
      <trkpt lat="43.729677" lon="-7.524906">
        <ele>94.078</ele>
        <time>2019-06-19T18:00:44Z</time>
      </trkpt>
      <trkpt lat="43.729725" lon="-7.524863">
        <ele>93.594</ele>
        <time>2019-06-19T18:00:45Z</time>
      </trkpt>
      <trkpt lat="43.729780" lon="-7.524855">
        <ele>93.057</ele>
        <time>2019-06-19T18:00:46Z</time>
      </trkpt>
      <trkpt lat="43.729835" lon="-7.524881">
        <ele>92.622</ele>
        <time>2019-06-19T18:00:47Z</time>
      </trkpt>
      <trkpt lat="43.729895" lon="-7.524917">
        <ele>92.308</ele>
        <time>2019-06-19T18:00:48Z</time>
      </trkpt>
      <trkpt lat="43.729977" lon="-7.525018">
        <ele>92.392</ele>
        <time>2019-06-19T18:00:49Z</time>
      </trkpt>
      <trkpt lat="43.730052" lon="-7.525109">
        <ele>92.976</ele>
        <time>2019-06-19T18:00:50Z</time>
      </trkpt>
      <trkpt lat="43.730133" lon="-7.525199">
        <ele>93.867</ele>
        <time>2019-06-19T18:00:51Z</time>
      </trkpt>
      <trkpt lat="43.730229" lon="-7.525305">
        <ele>95.090</ele>
        <time>2019-06-19T18:00:52Z</time>
      </trkpt>
      <trkpt lat="43.730328" lon="-7.525409">
        <ele>96.120</ele>
        <time>2019-06-19T18:00:53Z</time>
      </trkpt>
      <trkpt lat="43.730425" lon="-7.525518">
        <ele>97.326</ele>
        <time>2019-06-19T18:00:54Z</time>
      </trkpt>
      <trkpt lat="43.730512" lon="-7.525633">
        <ele>97.984</ele>
        <time>2019-06-19T18:00:55Z</time>
      </trkpt>
      <trkpt lat="43.730595" lon="-7.525738">
        <ele>97.784</ele>
        <time>2019-06-19T18:00:56Z</time>
      </trkpt>
      <trkpt lat="43.730683" lon="-7.525846">
        <ele>97.179</ele>
        <time>2019-06-19T18:00:57Z</time>
      </trkpt>
      <trkpt lat="43.730757" lon="-7.525951">
        <ele>96.405</ele>
        <time>2019-06-19T18:00:58Z</time>
      </trkpt>
      <trkpt lat="43.730829" lon="-7.526052">
        <ele>96.025</ele>
        <time>2019-06-19T18:00:59Z</time>
      </trkpt>
      <trkpt lat="43.730900" lon="-7.526146">
        <ele>95.708</ele>
        <time>2019-06-19T18:01:00Z</time>
      </trkpt>
      <trkpt lat="43.730967" lon="-7.526235">
        <ele>95.330</ele>
        <time>2019-06-19T18:01:01Z</time>
      </trkpt>
      <trkpt lat="43.731037" lon="-7.526324">
        <ele>94.714</ele>
        <time>2019-06-19T18:01:02Z</time>
      </trkpt>
      <trkpt lat="43.731099" lon="-7.526396">
        <ele>94.145</ele>
        <time>2019-06-19T18:01:03Z</time>
      </trkpt>
      <trkpt lat="43.731158" lon="-7.526448">
        <ele>94.088</ele>
        <time>2019-06-19T18:01:04Z</time>
      </trkpt>
      <trkpt lat="43.731216" lon="-7.526467">
        <ele>94.078</ele>
        <time>2019-06-19T18:01:05Z</time>
      </trkpt>
      <trkpt lat="43.731283" lon="-7.526455">
        <ele>94.094</ele>
        <time>2019-06-19T18:01:06Z</time>
      </trkpt>
      <trkpt lat="43.731354" lon="-7.526412">
        <ele>94.052</ele>
        <time>2019-06-19T18:01:07Z</time>
      </trkpt>
      <trkpt lat="43.731432" lon="-7.526351">
        <ele>94.362</ele>
        <time>2019-06-19T18:01:08Z</time>
      </trkpt>
      <trkpt lat="43.731516" lon="-7.526283">
        <ele>94.851</ele>
        <time>2019-06-19T18:01:09Z</time>
      </trkpt>
      <trkpt lat="43.731596" lon="-7.526221">
        <ele>95.301</ele>
        <time>2019-06-19T18:01:10Z</time>
      </trkpt>
      <trkpt lat="43.731675" lon="-7.526167">
        <ele>95.711</ele>
        <time>2019-06-19T18:01:11Z</time>
      </trkpt>
      <trkpt lat="43.731752" lon="-7.526126">
        <ele>95.308</ele>
        <time>2019-06-19T18:01:12Z</time>
      </trkpt>
      <trkpt lat="43.731827" lon="-7.526099">
        <ele>94.988</ele>
        <time>2019-06-19T18:01:13Z</time>
      </trkpt>
      <trkpt lat="43.731894" lon="-7.526120">
        <ele>94.332</ele>
        <time>2019-06-19T18:01:14Z</time>
      </trkpt>
      <trkpt lat="43.731972" lon="-7.526164">
        <ele>93.713</ele>
        <time>2019-06-19T18:01:15Z</time>
      </trkpt>
      <trkpt lat="43.732055" lon="-7.526211">
        <ele>93.056</ele>
        <time>2019-06-19T18:01:16Z</time>
      </trkpt>
      <trkpt lat="43.732133" lon="-7.526254">
        <ele>92.136</ele>
        <time>2019-06-19T18:01:17Z</time>
      </trkpt>
      <trkpt lat="43.732208" lon="-7.526294">
        <ele>91.182</ele>
        <time>2019-06-19T18:01:18Z</time>
      </trkpt>
      <trkpt lat="43.732280" lon="-7.526329">
        <ele>90.150</ele>
        <time>2019-06-19T18:01:19Z</time>
      </trkpt>
      <trkpt lat="43.732357" lon="-7.526354">
        <ele>89.050</ele>
        <time>2019-06-19T18:01:20Z</time>
      </trkpt>
      <trkpt lat="43.732438" lon="-7.526364">
        <ele>88.112</ele>
        <time>2019-06-19T18:01:21Z</time>
      </trkpt>
      <trkpt lat="43.732522" lon="-7.526348">
        <ele>87.632</ele>
        <time>2019-06-19T18:01:22Z</time>
      </trkpt>
      <trkpt lat="43.732612" lon="-7.526304">
        <ele>88.005</ele>
        <time>2019-06-19T18:01:23Z</time>
      </trkpt>
      <trkpt lat="43.732711" lon="-7.526247">
        <ele>88.808</ele>
        <time>2019-06-19T18:01:24Z</time>
      </trkpt>
      <trkpt lat="43.732813" lon="-7.526190">
        <ele>89.834</ele>
        <time>2019-06-19T18:01:25Z</time>
      </trkpt>
      <trkpt lat="43.732920" lon="-7.526135">
        <ele>90.868</ele>
        <time>2019-06-19T18:01:26Z</time>
      </trkpt>
      <trkpt lat="43.733028" lon="-7.526083">
        <ele>91.639</ele>
        <time>2019-06-19T18:01:27Z</time>
      </trkpt>
      <trkpt lat="43.733141" lon="-7.526039">
        <ele>90.192</ele>
        <time>2019-06-19T18:01:28Z</time>
      </trkpt>
      <trkpt lat="43.733245" lon="-7.525995">
        <ele>88.562</ele>
        <time>2019-06-19T18:01:29Z</time>
      </trkpt>
      <trkpt lat="43.733342" lon="-7.525946">
        <ele>87.698</ele>
        <time>2019-06-19T18:01:30Z</time>
      </trkpt>
      <trkpt lat="43.733433" lon="-7.525891">
        <ele>87.486</ele>
        <time>2019-06-19T18:01:31Z</time>
      </trkpt>
      <trkpt lat="43.733518" lon="-7.525834">
        <ele>87.076</ele>
        <time>2019-06-19T18:01:32Z</time>
      </trkpt>
      <trkpt lat="43.733595" lon="-7.525773">
        <ele>86.727</ele>
        <time>2019-06-19T18:01:33Z</time>
      </trkpt>
      <trkpt lat="43.733669" lon="-7.525704">
        <ele>86.368</ele>
        <time>2019-06-19T18:01:34Z</time>
      </trkpt>
      <trkpt lat="43.733740" lon="-7.525623">
        <ele>86.114</ele>
        <time>2019-06-19T18:01:35Z</time>
      </trkpt>
      <trkpt lat="43.733802" lon="-7.525525">
        <ele>85.908</ele>
        <time>2019-06-19T18:01:36Z</time>
      </trkpt>
      <trkpt lat="43.733857" lon="-7.525414">
        <ele>86.025</ele>
        <time>2019-06-19T18:01:37Z</time>
      </trkpt>
      <trkpt lat="43.733909" lon="-7.525293">
        <ele>86.119</ele>
        <time>2019-06-19T18:01:38Z</time>
      </trkpt>
      <trkpt lat="43.733949" lon="-7.525169">
        <ele>86.570</ele>
        <time>2019-06-19T18:01:39Z</time>
      </trkpt>
      <trkpt lat="43.733992" lon="-7.525069">
        <ele>86.433</ele>
        <time>2019-06-19T18:01:40Z</time>
      </trkpt>
      <trkpt lat="43.734037" lon="-7.524997">
        <ele>85.773</ele>
        <time>2019-06-19T18:01:41Z</time>
      </trkpt>
      <trkpt lat="43.734097" lon="-7.524936">
        <ele>84.369</ele>
        <time>2019-06-19T18:01:42Z</time>
      </trkpt>
      <trkpt lat="43.734163" lon="-7.524869">
        <ele>83.097</ele>
        <time>2019-06-19T18:01:43Z</time>
      </trkpt>
      <trkpt lat="43.734219" lon="-7.524784">
        <ele>82.857</ele>
        <time>2019-06-19T18:01:44Z</time>
      </trkpt>
      <trkpt lat="43.734268" lon="-7.524680">
        <ele>82.985</ele>
        <time>2019-06-19T18:01:45Z</time>
      </trkpt>
      <trkpt lat="43.734325" lon="-7.524577">
        <ele>82.789</ele>
        <time>2019-06-19T18:01:46Z</time>
      </trkpt>
      <trkpt lat="43.734379" lon="-7.524473">
        <ele>82.817</ele>
        <time>2019-06-19T18:01:47Z</time>
      </trkpt>
      <trkpt lat="43.734431" lon="-7.524381">
        <ele>82.508</ele>
        <time>2019-06-19T18:01:48Z</time>
      </trkpt>
      <trkpt lat="43.734485" lon="-7.524304">
        <ele>81.931</ele>
        <time>2019-06-19T18:01:49Z</time>
      </trkpt>
      <trkpt lat="43.734548" lon="-7.524243">
        <ele>81.285</ele>
        <time>2019-06-19T18:01:50Z</time>
      </trkpt>
      <trkpt lat="43.734621" lon="-7.524208">
        <ele>80.366</ele>
        <time>2019-06-19T18:01:51Z</time>
      </trkpt>
      <trkpt lat="43.734707" lon="-7.524202">
        <ele>79.139</ele>
        <time>2019-06-19T18:01:52Z</time>
      </trkpt>
      <trkpt lat="43.734801" lon="-7.524229">
        <ele>77.769</ele>
        <time>2019-06-19T18:01:53Z</time>
      </trkpt>
      <trkpt lat="43.734905" lon="-7.524273">
        <ele>76.235</ele>
        <time>2019-06-19T18:01:54Z</time>
      </trkpt>
      <trkpt lat="43.735009" lon="-7.524326">
        <ele>74.863</ele>
        <time>2019-06-19T18:01:55Z</time>
      </trkpt>
      <trkpt lat="43.735107" lon="-7.524386">
        <ele>73.373</ele>
        <time>2019-06-19T18:01:56Z</time>
      </trkpt>
      <trkpt lat="43.735200" lon="-7.524443">
        <ele>72.193</ele>
        <time>2019-06-19T18:01:57Z</time>
      </trkpt>
      <trkpt lat="43.735288" lon="-7.524496">
        <ele>71.365</ele>
        <time>2019-06-19T18:01:58Z</time>
      </trkpt>
      <trkpt lat="43.735366" lon="-7.524539">
        <ele>71.621</ele>
        <time>2019-06-19T18:01:59Z</time>
      </trkpt>
      <trkpt lat="43.735431" lon="-7.524578">
        <ele>71.908</ele>
        <time>2019-06-19T18:02:00Z</time>
      </trkpt>
      <trkpt lat="43.735482" lon="-7.524622">
        <ele>72.542</ele>
        <time>2019-06-19T18:02:01Z</time>
      </trkpt>
      <trkpt lat="43.735512" lon="-7.524676">
        <ele>73.246</ele>
        <time>2019-06-19T18:02:02Z</time>
      </trkpt>
      <trkpt lat="43.735523" lon="-7.524744">
        <ele>73.787</ele>
        <time>2019-06-19T18:02:03Z</time>
      </trkpt>
      <trkpt lat="43.735518" lon="-7.524813">
        <ele>73.270</ele>
        <time>2019-06-19T18:02:04Z</time>
      </trkpt>
      <trkpt lat="43.735507" lon="-7.524919">
        <ele>72.450</ele>
        <time>2019-06-19T18:02:06Z</time>
      </trkpt>
      <trkpt lat="43.735544" lon="-7.524976">
        <ele>72.156</ele>
        <time>2019-06-19T18:02:08Z</time>
      </trkpt>
      <trkpt lat="43.735587" lon="-7.524948">
        <ele>71.854</ele>
        <time>2019-06-19T18:02:11Z</time>
      </trkpt>
      <trkpt lat="43.735558" lon="-7.524995">
        <ele>72.034</ele>
        <time>2019-06-19T18:02:20Z</time>
      </trkpt>
      <trkpt lat="43.735522" lon="-7.524955">
        <ele>72.285</ele>
        <time>2019-06-19T18:04:44Z</time>
      </trkpt>
      <trkpt lat="43.735470" lon="-7.524962">
        <ele>72.089</ele>
        <time>2019-06-19T18:06:03Z</time>
      </trkpt>
      <trkpt lat="43.735504" lon="-7.524921">
        <ele>72.417</ele>
        <time>2019-06-19T18:06:16Z</time>
      </trkpt>
      <trkpt lat="43.735541" lon="-7.524875">
        <ele>72.808</ele>
        <time>2019-06-19T18:06:20Z</time>
      </trkpt>
      <trkpt lat="43.735575" lon="-7.524823">
        <ele>72.851</ele>
        <time>2019-06-19T18:06:25Z</time>
      </trkpt>
      <trkpt lat="43.735615" lon="-7.524788">
        <ele>71.955</ele>
        <time>2019-06-19T18:06:29Z</time>
      </trkpt>
      <trkpt lat="43.735663" lon="-7.524780">
        <ele>70.566</ele>
        <time>2019-06-19T18:06:34Z</time>
      </trkpt>
      <trkpt lat="43.735549" lon="-7.524968">
        <ele>72.229</ele>
        <time>2019-06-19T18:13:01Z</time>
      </trkpt>
      <trkpt lat="43.735523" lon="-7.524891">
        <ele>72.789</ele>
        <time>2019-06-19T18:15:08Z</time>
      </trkpt>
      <trkpt lat="43.735514" lon="-7.524825">
        <ele>73.165</ele>
        <time>2019-06-19T18:15:09Z</time>
      </trkpt>
      <trkpt lat="43.735506" lon="-7.524762">
        <ele>73.523</ele>
        <time>2019-06-19T18:15:10Z</time>
      </trkpt>
      <trkpt lat="43.735486" lon="-7.524652">
        <ele>72.943</ele>
        <time>2019-06-19T18:15:12Z</time>
      </trkpt>
      <trkpt lat="43.735421" lon="-7.524560">
        <ele>71.737</ele>
        <time>2019-06-19T18:15:14Z</time>
      </trkpt>
      <trkpt lat="43.735369" lon="-7.524524">
        <ele>71.449</ele>
        <time>2019-06-19T18:15:15Z</time>
      </trkpt>
      <trkpt lat="43.735309" lon="-7.524492">
        <ele>71.313</ele>
        <time>2019-06-19T18:15:16Z</time>
      </trkpt>
      <trkpt lat="43.735247" lon="-7.524459">
        <ele>71.508</ele>
        <time>2019-06-19T18:15:17Z</time>
      </trkpt>
      <trkpt lat="43.735184" lon="-7.524429">
        <ele>72.356</ele>
        <time>2019-06-19T18:15:18Z</time>
      </trkpt>
      <trkpt lat="43.735110" lon="-7.524407">
        <ele>73.310</ele>
        <time>2019-06-19T18:15:19Z</time>
      </trkpt>
      <trkpt lat="43.735045" lon="-7.524371">
        <ele>74.341</ele>
        <time>2019-06-19T18:15:20Z</time>
      </trkpt>
      <trkpt lat="43.734987" lon="-7.524339">
        <ele>75.224</ele>
        <time>2019-06-19T18:15:21Z</time>
      </trkpt>
      <trkpt lat="43.734937" lon="-7.524316">
        <ele>75.894</ele>
        <time>2019-06-19T18:15:22Z</time>
      </trkpt>
      <trkpt lat="43.734889" lon="-7.524271">
        <ele>76.430</ele>
        <time>2019-06-19T18:15:23Z</time>
      </trkpt>
      <trkpt lat="43.734832" lon="-7.524247">
        <ele>77.248</ele>
        <time>2019-06-19T18:15:24Z</time>
      </trkpt>
      <trkpt lat="43.734767" lon="-7.524225">
        <ele>78.218</ele>
        <time>2019-06-19T18:15:25Z</time>
      </trkpt>
      <trkpt lat="43.734697" lon="-7.524206">
        <ele>79.219</ele>
        <time>2019-06-19T18:15:26Z</time>
      </trkpt>
      <trkpt lat="43.734623" lon="-7.524209">
        <ele>80.309</ele>
        <time>2019-06-19T18:15:27Z</time>
      </trkpt>
      <trkpt lat="43.734550" lon="-7.524240">
        <ele>81.219</ele>
        <time>2019-06-19T18:15:28Z</time>
      </trkpt>
      <trkpt lat="43.734494" lon="-7.524307">
        <ele>81.808</ele>
        <time>2019-06-19T18:15:29Z</time>
      </trkpt>
      <trkpt lat="43.734439" lon="-7.524402">
        <ele>82.394</ele>
        <time>2019-06-19T18:15:30Z</time>
      </trkpt>
      <trkpt lat="43.734382" lon="-7.524508">
        <ele>82.358</ele>
        <time>2019-06-19T18:15:31Z</time>
      </trkpt>
      <trkpt lat="43.734324" lon="-7.524624">
        <ele>82.189</ele>
        <time>2019-06-19T18:15:32Z</time>
      </trkpt>
      <trkpt lat="43.734263" lon="-7.524734">
        <ele>82.412</ele>
        <time>2019-06-19T18:15:33Z</time>
      </trkpt>
      <trkpt lat="43.734203" lon="-7.524833">
        <ele>82.462</ele>
        <time>2019-06-19T18:15:34Z</time>
      </trkpt>
      <trkpt lat="43.734133" lon="-7.524910">
        <ele>83.438</ele>
        <time>2019-06-19T18:15:35Z</time>
      </trkpt>
      <trkpt lat="43.734068" lon="-7.524978">
        <ele>84.816</ele>
        <time>2019-06-19T18:15:36Z</time>
      </trkpt>
      <trkpt lat="43.734024" lon="-7.525044">
        <ele>85.616</ele>
        <time>2019-06-19T18:15:37Z</time>
      </trkpt>
      <trkpt lat="43.733993" lon="-7.525127">
        <ele>85.649</ele>
        <time>2019-06-19T18:15:38Z</time>
      </trkpt>
      <trkpt lat="43.733959" lon="-7.525214">
        <ele>85.602</ele>
        <time>2019-06-19T18:15:39Z</time>
      </trkpt>
      <trkpt lat="43.733921" lon="-7.525304">
        <ele>85.622</ele>
        <time>2019-06-19T18:15:40Z</time>
      </trkpt>
      <trkpt lat="43.733893" lon="-7.525396">
        <ele>85.208</ele>
        <time>2019-06-19T18:15:41Z</time>
      </trkpt>
      <trkpt lat="43.733857" lon="-7.525477">
        <ele>85.077</ele>
        <time>2019-06-19T18:15:42Z</time>
      </trkpt>
      <trkpt lat="43.733815" lon="-7.525563">
        <ele>85.061</ele>
        <time>2019-06-19T18:15:43Z</time>
      </trkpt>
      <trkpt lat="43.733770" lon="-7.525626">
        <ele>85.242</ele>
        <time>2019-06-19T18:15:44Z</time>
      </trkpt>
      <trkpt lat="43.733726" lon="-7.525692">
        <ele>85.235</ele>
        <time>2019-06-19T18:15:45Z</time>
      </trkpt>
      <trkpt lat="43.733673" lon="-7.525752">
        <ele>85.355</ele>
        <time>2019-06-19T18:15:46Z</time>
      </trkpt>
      <trkpt lat="43.733619" lon="-7.525802">
        <ele>85.541</ele>
        <time>2019-06-19T18:15:47Z</time>
      </trkpt>
      <trkpt lat="43.733547" lon="-7.525850">
        <ele>86.029</ele>
        <time>2019-06-19T18:15:48Z</time>
      </trkpt>
      <trkpt lat="43.733476" lon="-7.525891">
        <ele>86.659</ele>
        <time>2019-06-19T18:15:49Z</time>
      </trkpt>
      <trkpt lat="43.733396" lon="-7.525940">
        <ele>86.896</ele>
        <time>2019-06-19T18:15:50Z</time>
      </trkpt>
      <trkpt lat="43.733316" lon="-7.525989">
        <ele>86.931</ele>
        <time>2019-06-19T18:15:51Z</time>
      </trkpt>
      <trkpt lat="43.733234" lon="-7.526025">
        <ele>88.024</ele>
        <time>2019-06-19T18:15:52Z</time>
      </trkpt>
      <trkpt lat="43.733156" lon="-7.526057">
        <ele>89.308</ele>
        <time>2019-06-19T18:15:53Z</time>
      </trkpt>
      <trkpt lat="43.733077" lon="-7.526102">
        <ele>90.682</ele>
        <time>2019-06-19T18:15:54Z</time>
      </trkpt>
      <trkpt lat="43.732993" lon="-7.526148">
        <ele>90.196</ele>
        <time>2019-06-19T18:15:55Z</time>
      </trkpt>
      <trkpt lat="43.732911" lon="-7.526186">
        <ele>89.427</ele>
        <time>2019-06-19T18:15:56Z</time>
      </trkpt>
      <trkpt lat="43.732838" lon="-7.526207">
        <ele>89.240</ele>
        <time>2019-06-19T18:15:57Z</time>
      </trkpt>
      <trkpt lat="43.732760" lon="-7.526251">
        <ele>88.540</ele>
        <time>2019-06-19T18:15:58Z</time>
      </trkpt>
      <trkpt lat="43.732686" lon="-7.526300">
        <ele>87.756</ele>
        <time>2019-06-19T18:15:59Z</time>
      </trkpt>
      <trkpt lat="43.732614" lon="-7.526340">
        <ele>87.244</ele>
        <time>2019-06-19T18:16:00Z</time>
      </trkpt>
      <trkpt lat="43.732541" lon="-7.526367">
        <ele>87.124</ele>
        <time>2019-06-19T18:16:01Z</time>
      </trkpt>
      <trkpt lat="43.732465" lon="-7.526379">
        <ele>87.511</ele>
        <time>2019-06-19T18:16:02Z</time>
      </trkpt>
      <trkpt lat="43.732392" lon="-7.526378">
        <ele>88.321</ele>
        <time>2019-06-19T18:16:03Z</time>
      </trkpt>
      <trkpt lat="43.732324" lon="-7.526356">
        <ele>89.303</ele>
        <time>2019-06-19T18:16:04Z</time>
      </trkpt>
      <trkpt lat="43.732250" lon="-7.526328">
        <ele>90.408</ele>
        <time>2019-06-19T18:16:05Z</time>
      </trkpt>
      <trkpt lat="43.732180" lon="-7.526296">
        <ele>91.424</ele>
        <time>2019-06-19T18:16:06Z</time>
      </trkpt>
      <trkpt lat="43.732115" lon="-7.526263">
        <ele>92.268</ele>
        <time>2019-06-19T18:16:07Z</time>
      </trkpt>
      <trkpt lat="43.732053" lon="-7.526223">
        <ele>92.929</ele>
        <time>2019-06-19T18:16:08Z</time>
      </trkpt>
      <trkpt lat="43.731994" lon="-7.526174">
        <ele>93.532</ele>
        <time>2019-06-19T18:16:09Z</time>
      </trkpt>
      <trkpt lat="43.731941" lon="-7.526143">
        <ele>93.912</ele>
        <time>2019-06-19T18:16:10Z</time>
      </trkpt>
      <trkpt lat="43.731886" lon="-7.526130">
        <ele>94.418</ele>
        <time>2019-06-19T18:16:11Z</time>
      </trkpt>
      <trkpt lat="43.731827" lon="-7.526132">
        <ele>94.896</ele>
        <time>2019-06-19T18:16:12Z</time>
      </trkpt>
      <trkpt lat="43.731760" lon="-7.526160">
        <ele>95.286</ele>
        <time>2019-06-19T18:16:13Z</time>
      </trkpt>
      <trkpt lat="43.731682" lon="-7.526209">
        <ele>95.537</ele>
        <time>2019-06-19T18:16:14Z</time>
      </trkpt>
      <trkpt lat="43.731597" lon="-7.526270">
        <ele>95.249</ele>
        <time>2019-06-19T18:16:15Z</time>
      </trkpt>
      <trkpt lat="43.731505" lon="-7.526332">
        <ele>94.613</ele>
        <time>2019-06-19T18:16:16Z</time>
      </trkpt>
      <trkpt lat="43.731427" lon="-7.526404">
        <ele>94.108</ele>
        <time>2019-06-19T18:16:17Z</time>
      </trkpt>
      <trkpt lat="43.731337" lon="-7.526458">
        <ele>94.016</ele>
        <time>2019-06-19T18:16:18Z</time>
      </trkpt>
      <trkpt lat="43.731260" lon="-7.526474">
        <ele>94.080</ele>
        <time>2019-06-19T18:16:19Z</time>
      </trkpt>
      <trkpt lat="43.731188" lon="-7.526461">
        <ele>94.071</ele>
        <time>2019-06-19T18:16:20Z</time>
      </trkpt>
      <trkpt lat="43.731120" lon="-7.526412">
        <ele>94.064</ele>
        <time>2019-06-19T18:16:21Z</time>
      </trkpt>
      <trkpt lat="43.731062" lon="-7.526338">
        <ele>94.594</ele>
        <time>2019-06-19T18:16:22Z</time>
      </trkpt>
      <trkpt lat="43.731002" lon="-7.526260">
        <ele>95.150</ele>
        <time>2019-06-19T18:16:23Z</time>
      </trkpt>
      <trkpt lat="43.730932" lon="-7.526167">
        <ele>95.698</ele>
        <time>2019-06-19T18:16:24Z</time>
      </trkpt>
      <trkpt lat="43.730847" lon="-7.526081">
        <ele>96.048</ele>
        <time>2019-06-19T18:16:25Z</time>
      </trkpt>
      <trkpt lat="43.730765" lon="-7.525968">
        <ele>96.434</ele>
        <time>2019-06-19T18:16:26Z</time>
      </trkpt>
      <trkpt lat="43.730695" lon="-7.525874">
        <ele>96.955</ele>
        <time>2019-06-19T18:16:27Z</time>
      </trkpt>
      <trkpt lat="43.730615" lon="-7.525783">
        <ele>97.610</ele>
        <time>2019-06-19T18:16:28Z</time>
      </trkpt>
      <trkpt lat="43.730533" lon="-7.525688">
        <ele>98.008</ele>
        <time>2019-06-19T18:16:29Z</time>
      </trkpt>
      <trkpt lat="43.730467" lon="-7.525586">
        <ele>97.736</ele>
        <time>2019-06-19T18:16:30Z</time>
      </trkpt>
      <trkpt lat="43.730387" lon="-7.525498">
        <ele>97.080</ele>
        <time>2019-06-19T18:16:31Z</time>
      </trkpt>
      <trkpt lat="43.730316" lon="-7.525411">
        <ele>96.111</ele>
        <time>2019-06-19T18:16:32Z</time>
      </trkpt>
      <trkpt lat="43.730237" lon="-7.525330">
        <ele>95.214</ele>
        <time>2019-06-19T18:16:33Z</time>
      </trkpt>
      <trkpt lat="43.730163" lon="-7.525250">
        <ele>94.364</ele>
        <time>2019-06-19T18:16:34Z</time>
      </trkpt>
      <trkpt lat="43.730090" lon="-7.525170">
        <ele>93.460</ele>
        <time>2019-06-19T18:16:35Z</time>
      </trkpt>
      <trkpt lat="43.730018" lon="-7.525090">
        <ele>92.728</ele>
        <time>2019-06-19T18:16:36Z</time>
      </trkpt>
      <trkpt lat="43.729947" lon="-7.525021">
        <ele>92.518</ele>
        <time>2019-06-19T18:16:37Z</time>
      </trkpt>
      <trkpt lat="43.729885" lon="-7.524960">
        <ele>92.614</ele>
        <time>2019-06-19T18:16:38Z</time>
      </trkpt>
      <trkpt lat="43.729825" lon="-7.524906">
        <ele>92.854</ele>
        <time>2019-06-19T18:16:39Z</time>
      </trkpt>
      <trkpt lat="43.729771" lon="-7.524890">
        <ele>93.209</ele>
        <time>2019-06-19T18:16:40Z</time>
      </trkpt>
      <trkpt lat="43.729721" lon="-7.524899">
        <ele>93.608</ele>
        <time>2019-06-19T18:16:41Z</time>
      </trkpt>
      <trkpt lat="43.729674" lon="-7.524935">
        <ele>94.134</ele>
        <time>2019-06-19T18:16:42Z</time>
      </trkpt>
      <trkpt lat="43.729636" lon="-7.525021">
        <ele>94.728</ele>
        <time>2019-06-19T18:16:43Z</time>
      </trkpt>
      <trkpt lat="43.729592" lon="-7.525109">
        <ele>95.159</ele>
        <time>2019-06-19T18:16:44Z</time>
      </trkpt>
      <trkpt lat="43.729540" lon="-7.525216">
        <ele>95.642</ele>
        <time>2019-06-19T18:16:45Z</time>
      </trkpt>
      <trkpt lat="43.729485" lon="-7.525326">
        <ele>95.612</ele>
        <time>2019-06-19T18:16:46Z</time>
      </trkpt>
      <trkpt lat="43.729429" lon="-7.525435">
        <ele>94.958</ele>
        <time>2019-06-19T18:16:47Z</time>
      </trkpt>
      <trkpt lat="43.729361" lon="-7.525534">
        <ele>94.256</ele>
        <time>2019-06-19T18:16:48Z</time>
      </trkpt>
      <trkpt lat="43.729295" lon="-7.525628">
        <ele>93.516</ele>
        <time>2019-06-19T18:16:49Z</time>
      </trkpt>
      <trkpt lat="43.729231" lon="-7.525714">
        <ele>92.957</ele>
        <time>2019-06-19T18:16:50Z</time>
      </trkpt>
      <trkpt lat="43.729159" lon="-7.525795">
        <ele>92.300</ele>
        <time>2019-06-19T18:16:51Z</time>
      </trkpt>
      <trkpt lat="43.729090" lon="-7.525882">
        <ele>92.220</ele>
        <time>2019-06-19T18:16:52Z</time>
      </trkpt>
      <trkpt lat="43.729029" lon="-7.525964">
        <ele>92.008</ele>
        <time>2019-06-19T18:16:53Z</time>
      </trkpt>
      <trkpt lat="43.728969" lon="-7.526041">
        <ele>91.948</ele>
        <time>2019-06-19T18:16:54Z</time>
      </trkpt>
      <trkpt lat="43.728906" lon="-7.526128">
        <ele>91.682</ele>
        <time>2019-06-19T18:16:55Z</time>
      </trkpt>
      <trkpt lat="43.728839" lon="-7.526209">
        <ele>90.793</ele>
        <time>2019-06-19T18:16:56Z</time>
      </trkpt>
      <trkpt lat="43.728769" lon="-7.526296">
        <ele>89.976</ele>
        <time>2019-06-19T18:16:57Z</time>
      </trkpt>
      <trkpt lat="43.728693" lon="-7.526379">
        <ele>89.596</ele>
        <time>2019-06-19T18:16:58Z</time>
      </trkpt>
      <trkpt lat="43.728603" lon="-7.526448">
        <ele>89.362</ele>
        <time>2019-06-19T18:16:59Z</time>
      </trkpt>
      <trkpt lat="43.728488" lon="-7.526524">
        <ele>88.370</ele>
        <time>2019-06-19T18:17:00Z</time>
      </trkpt>
      <trkpt lat="43.728362" lon="-7.526593">
        <ele>87.680</ele>
        <time>2019-06-19T18:17:01Z</time>
      </trkpt>
      <trkpt lat="43.728220" lon="-7.526682">
        <ele>87.072</ele>
        <time>2019-06-19T18:17:02Z</time>
      </trkpt>
      <trkpt lat="43.728083" lon="-7.526781">
        <ele>86.313</ele>
        <time>2019-06-19T18:17:03Z</time>
      </trkpt>
      <trkpt lat="43.727937" lon="-7.526863">
        <ele>85.214</ele>
        <time>2019-06-19T18:17:04Z</time>
      </trkpt>
      <trkpt lat="43.727787" lon="-7.526962">
        <ele>83.808</ele>
        <time>2019-06-19T18:17:05Z</time>
      </trkpt>
      <trkpt lat="43.727639" lon="-7.527065">
        <ele>82.790</ele>
        <time>2019-06-19T18:17:06Z</time>
      </trkpt>
      <trkpt lat="43.727497" lon="-7.527168">
        <ele>81.654</ele>
        <time>2019-06-19T18:17:07Z</time>
      </trkpt>
      <trkpt lat="43.727352" lon="-7.527270">
        <ele>80.555</ele>
        <time>2019-06-19T18:17:08Z</time>
      </trkpt>
      <trkpt lat="43.727238" lon="-7.527375">
        <ele>79.388</ele>
        <time>2019-06-19T18:17:09Z</time>
      </trkpt>
      <trkpt lat="43.727119" lon="-7.527473">
        <ele>77.948</ele>
        <time>2019-06-19T18:17:10Z</time>
      </trkpt>
      <trkpt lat="43.727013" lon="-7.527579">
        <ele>76.994</ele>
        <time>2019-06-19T18:17:11Z</time>
      </trkpt>
      <trkpt lat="43.726904" lon="-7.527665">
        <ele>76.222</ele>
        <time>2019-06-19T18:17:12Z</time>
      </trkpt>
      <trkpt lat="43.726791" lon="-7.527754">
        <ele>75.122</ele>
        <time>2019-06-19T18:17:13Z</time>
      </trkpt>
      <trkpt lat="43.726682" lon="-7.527835">
        <ele>73.737</ele>
        <time>2019-06-19T18:17:14Z</time>
      </trkpt>
      <trkpt lat="43.726564" lon="-7.527886">
        <ele>72.949</ele>
        <time>2019-06-19T18:17:15Z</time>
      </trkpt>
      <trkpt lat="43.726444" lon="-7.527950">
        <ele>72.013</ele>
        <time>2019-06-19T18:17:16Z</time>
      </trkpt>
      <trkpt lat="43.726334" lon="-7.528034">
        <ele>71.408</ele>
        <time>2019-06-19T18:17:17Z</time>
      </trkpt>
      <trkpt lat="43.726240" lon="-7.528144">
        <ele>71.286</ele>
        <time>2019-06-19T18:17:18Z</time>
      </trkpt>
      <trkpt lat="43.726131" lon="-7.528250">
        <ele>71.220</ele>
        <time>2019-06-19T18:17:19Z</time>
      </trkpt>
      <trkpt lat="43.726026" lon="-7.528342">
        <ele>72.041</ele>
        <time>2019-06-19T18:17:20Z</time>
      </trkpt>
      <trkpt lat="43.725920" lon="-7.528420">
        <ele>73.314</ele>
        <time>2019-06-19T18:17:21Z</time>
      </trkpt>
      <trkpt lat="43.725816" lon="-7.528490">
        <ele>74.134</ele>
        <time>2019-06-19T18:17:22Z</time>
      </trkpt>
      <trkpt lat="43.725720" lon="-7.528526">
        <ele>74.810</ele>
        <time>2019-06-19T18:17:23Z</time>
      </trkpt>
      <trkpt lat="43.725635" lon="-7.528541">
        <ele>75.468</ele>
        <time>2019-06-19T18:17:24Z</time>
      </trkpt>
      <trkpt lat="43.725549" lon="-7.528536">
        <ele>76.048</ele>
        <time>2019-06-19T18:17:25Z</time>
      </trkpt>
      <trkpt lat="43.725466" lon="-7.528518">
        <ele>76.524</ele>
        <time>2019-06-19T18:17:26Z</time>
      </trkpt>
      <trkpt lat="43.725388" lon="-7.528481">
        <ele>76.904</ele>
        <time>2019-06-19T18:17:27Z</time>
      </trkpt>
      <trkpt lat="43.725315" lon="-7.528458">
        <ele>77.314</ele>
        <time>2019-06-19T18:17:28Z</time>
      </trkpt>
      <trkpt lat="43.725240" lon="-7.528457">
        <ele>77.508</ele>
        <time>2019-06-19T18:17:29Z</time>
      </trkpt>
      <trkpt lat="43.725173" lon="-7.528470">
        <ele>77.745</ele>
        <time>2019-06-19T18:17:30Z</time>
      </trkpt>
      <trkpt lat="43.725109" lon="-7.528501">
        <ele>78.049</ele>
        <time>2019-06-19T18:17:31Z</time>
      </trkpt>
      <trkpt lat="43.725047" lon="-7.528561">
        <ele>78.570</ele>
        <time>2019-06-19T18:17:33Z</time>
      </trkpt>
      <trkpt lat="43.724995" lon="-7.528677">
        <ele>79.563</ele>
        <time>2019-06-19T18:17:35Z</time>
      </trkpt>
      <trkpt lat="43.724961" lon="-7.528768">
        <ele>80.123</ele>
        <time>2019-06-19T18:17:36Z</time>
      </trkpt>
      <trkpt lat="43.724924" lon="-7.528873">
        <ele>80.929</ele>
        <time>2019-06-19T18:17:37Z</time>
      </trkpt>
      <trkpt lat="43.724882" lon="-7.528989">
        <ele>81.727</ele>
        <time>2019-06-19T18:17:38Z</time>
      </trkpt>
      <trkpt lat="43.724839" lon="-7.529104">
        <ele>82.587</ele>
        <time>2019-06-19T18:17:39Z</time>
      </trkpt>
      <trkpt lat="43.724784" lon="-7.529219">
        <ele>83.291</ele>
        <time>2019-06-19T18:17:40Z</time>
      </trkpt>
      <trkpt lat="43.724722" lon="-7.529338">
        <ele>83.681</ele>
        <time>2019-06-19T18:17:41Z</time>
      </trkpt>
      <trkpt lat="43.724670" lon="-7.529435">
        <ele>83.419</ele>
        <time>2019-06-19T18:17:42Z</time>
      </trkpt>
      <trkpt lat="43.724609" lon="-7.529560">
        <ele>82.408</ele>
        <time>2019-06-19T18:17:43Z</time>
      </trkpt>
      <trkpt lat="43.724548" lon="-7.529679">
        <ele>81.392</ele>
        <time>2019-06-19T18:17:44Z</time>
      </trkpt>
      <trkpt lat="43.724485" lon="-7.529802">
        <ele>80.646</ele>
        <time>2019-06-19T18:17:45Z</time>
      </trkpt>
      <trkpt lat="43.724417" lon="-7.529927">
        <ele>80.787</ele>
        <time>2019-06-19T18:17:46Z</time>
      </trkpt>
      <trkpt lat="43.724349" lon="-7.530051">
        <ele>80.740</ele>
        <time>2019-06-19T18:17:47Z</time>
      </trkpt>
      <trkpt lat="43.724285" lon="-7.530173">
        <ele>80.840</ele>
        <time>2019-06-19T18:17:48Z</time>
      </trkpt>
      <trkpt lat="43.724200" lon="-7.530290">
        <ele>81.066</ele>
        <time>2019-06-19T18:17:49Z</time>
      </trkpt>
      <trkpt lat="43.724107" lon="-7.530387">
        <ele>80.424</ele>
        <time>2019-06-19T18:17:50Z</time>
      </trkpt>
      <trkpt lat="43.724013" lon="-7.530504">
        <ele>79.644</ele>
        <time>2019-06-19T18:17:51Z</time>
      </trkpt>
      <trkpt lat="43.723898" lon="-7.530629">
        <ele>79.371</ele>
        <time>2019-06-19T18:17:52Z</time>
      </trkpt>
      <trkpt lat="43.723785" lon="-7.530741">
        <ele>79.541</ele>
        <time>2019-06-19T18:17:53Z</time>
      </trkpt>
      <trkpt lat="43.723679" lon="-7.530828">
        <ele>80.015</ele>
        <time>2019-06-19T18:17:54Z</time>
      </trkpt>
      <trkpt lat="43.723589" lon="-7.530884">
        <ele>80.208</ele>
        <time>2019-06-19T18:17:55Z</time>
      </trkpt>
      <trkpt lat="43.723506" lon="-7.530968">
        <ele>80.730</ele>
        <time>2019-06-19T18:17:56Z</time>
      </trkpt>
      <trkpt lat="43.723421" lon="-7.531053">
        <ele>80.924</ele>
        <time>2019-06-19T18:17:57Z</time>
      </trkpt>
      <trkpt lat="43.723341" lon="-7.531164">
        <ele>81.435</ele>
        <time>2019-06-19T18:17:58Z</time>
      </trkpt>
      <trkpt lat="43.723263" lon="-7.531289">
        <ele>82.518</ele>
        <time>2019-06-19T18:17:59Z</time>
      </trkpt>
      <trkpt lat="43.723206" lon="-7.531421">
        <ele>83.068</ele>
        <time>2019-06-19T18:18:00Z</time>
      </trkpt>
      <trkpt lat="43.723150" lon="-7.531549">
        <ele>83.274</ele>
        <time>2019-06-19T18:18:01Z</time>
      </trkpt>
      <trkpt lat="43.723099" lon="-7.531666">
        <ele>83.752</ele>
        <time>2019-06-19T18:18:02Z</time>
      </trkpt>
      <trkpt lat="43.723028" lon="-7.531769">
        <ele>84.582</ele>
        <time>2019-06-19T18:18:03Z</time>
      </trkpt>
      <trkpt lat="43.722952" lon="-7.531863">
        <ele>85.116</ele>
        <time>2019-06-19T18:18:04Z</time>
      </trkpt>
      <trkpt lat="43.722858" lon="-7.531947">
        <ele>85.776</ele>
        <time>2019-06-19T18:18:05Z</time>
      </trkpt>
      <trkpt lat="43.722748" lon="-7.532029">
        <ele>86.413</ele>
        <time>2019-06-19T18:18:06Z</time>
      </trkpt>
      <trkpt lat="43.722641" lon="-7.532105">
        <ele>87.408</ele>
        <time>2019-06-19T18:18:07Z</time>
      </trkpt>
      <trkpt lat="43.722524" lon="-7.532174">
        <ele>88.524</ele>
        <time>2019-06-19T18:18:08Z</time>
      </trkpt>
      <trkpt lat="43.722395" lon="-7.532232">
        <ele>89.588</ele>
        <time>2019-06-19T18:18:09Z</time>
      </trkpt>
      <trkpt lat="43.722263" lon="-7.532285">
        <ele>90.559</ele>
        <time>2019-06-19T18:18:10Z</time>
      </trkpt>
      <trkpt lat="43.722127" lon="-7.532338">
        <ele>90.972</ele>
        <time>2019-06-19T18:18:11Z</time>
      </trkpt>
      <trkpt lat="43.721977" lon="-7.532365">
        <ele>90.792</ele>
        <time>2019-06-19T18:18:12Z</time>
      </trkpt>
      <trkpt lat="43.721823" lon="-7.532389">
        <ele>89.998</ele>
        <time>2019-06-19T18:18:13Z</time>
      </trkpt>
      <trkpt lat="43.721659" lon="-7.532392">
        <ele>88.576</ele>
        <time>2019-06-19T18:18:14Z</time>
      </trkpt>
      <trkpt lat="43.721497" lon="-7.532387">
        <ele>88.956</ele>
        <time>2019-06-19T18:18:15Z</time>
      </trkpt>
      <trkpt lat="43.721330" lon="-7.532375">
        <ele>89.937</ele>
        <time>2019-06-19T18:18:16Z</time>
      </trkpt>
      <trkpt lat="43.721165" lon="-7.532354">
        <ele>92.249</ele>
        <time>2019-06-19T18:18:17Z</time>
      </trkpt>
      <trkpt lat="43.721010" lon="-7.532330">
        <ele>94.513</ele>
        <time>2019-06-19T18:18:18Z</time>
      </trkpt>
      <trkpt lat="43.720860" lon="-7.532288">
        <ele>96.508</ele>
        <time>2019-06-19T18:18:19Z</time>
      </trkpt>
      <trkpt lat="43.720710" lon="-7.532246">
        <ele>97.246</ele>
        <time>2019-06-19T18:18:20Z</time>
      </trkpt>
      <trkpt lat="43.720571" lon="-7.532207">
        <ele>97.810</ele>
        <time>2019-06-19T18:18:21Z</time>
      </trkpt>
      <trkpt lat="43.720437" lon="-7.532184">
        <ele>98.141</ele>
        <time>2019-06-19T18:18:22Z</time>
      </trkpt>
      <trkpt lat="43.720310" lon="-7.532178">
        <ele>98.474</ele>
        <time>2019-06-19T18:18:23Z</time>
      </trkpt>
      <trkpt lat="43.720191" lon="-7.532179">
        <ele>98.324</ele>
        <time>2019-06-19T18:18:24Z</time>
      </trkpt>
      <trkpt lat="43.720098" lon="-7.532220">
        <ele>98.340</ele>
        <time>2019-06-19T18:18:25Z</time>
      </trkpt>
      <trkpt lat="43.719979" lon="-7.532257">
        <ele>98.238</ele>
        <time>2019-06-19T18:18:26Z</time>
      </trkpt>
      <trkpt lat="43.719876" lon="-7.532320">
        <ele>98.518</ele>
        <time>2019-06-19T18:18:27Z</time>
      </trkpt>
      <trkpt lat="43.719778" lon="-7.532401">
        <ele>98.814</ele>
        <time>2019-06-19T18:18:28Z</time>
      </trkpt>
      <trkpt lat="43.719674" lon="-7.532500">
        <ele>99.954</ele>
        <time>2019-06-19T18:18:29Z</time>
      </trkpt>
      <trkpt lat="43.719574" lon="-7.532617">
        <ele>103.409</ele>
        <time>2019-06-19T18:18:30Z</time>
      </trkpt>
      <trkpt lat="43.719460" lon="-7.532744">
        <ele>107.208</ele>
        <time>2019-06-19T18:18:31Z</time>
      </trkpt>
      <trkpt lat="43.719364" lon="-7.532876">
        <ele>110.864</ele>
        <time>2019-06-19T18:18:32Z</time>
      </trkpt>
      <trkpt lat="43.719262" lon="-7.533013">
        <ele>114.338</ele>
        <time>2019-06-19T18:18:33Z</time>
      </trkpt>
      <trkpt lat="43.719173" lon="-7.533149">
        <ele>116.349</ele>
        <time>2019-06-19T18:18:34Z</time>
      </trkpt>
      <trkpt lat="43.719074" lon="-7.533290">
        <ele>115.212</ele>
        <time>2019-06-19T18:18:35Z</time>
      </trkpt>
      <trkpt lat="43.718986" lon="-7.533416">
        <ele>113.962</ele>
        <time>2019-06-19T18:18:36Z</time>
      </trkpt>
      <trkpt lat="43.718902" lon="-7.533549">
        <ele>112.318</ele>
        <time>2019-06-19T18:18:37Z</time>
      </trkpt>
      <trkpt lat="43.718817" lon="-7.533691">
        <ele>111.346</ele>
        <time>2019-06-19T18:18:38Z</time>
      </trkpt>
      <trkpt lat="43.718742" lon="-7.533848">
        <ele>110.956</ele>
        <time>2019-06-19T18:18:39Z</time>
      </trkpt>
      <trkpt lat="43.718657" lon="-7.534016">
        <ele>109.256</ele>
        <time>2019-06-19T18:18:40Z</time>
      </trkpt>
      <trkpt lat="43.718581" lon="-7.534186">
        <ele>106.259</ele>
        <time>2019-06-19T18:18:41Z</time>
      </trkpt>
      <trkpt lat="43.718514" lon="-7.534363">
        <ele>102.714</ele>
        <time>2019-06-19T18:18:42Z</time>
      </trkpt>
      <trkpt lat="43.718450" lon="-7.534547">
        <ele>100.208</ele>
        <time>2019-06-19T18:18:43Z</time>
      </trkpt>
      <trkpt lat="43.718386" lon="-7.534726">
        <ele>99.228</ele>
        <time>2019-06-19T18:18:44Z</time>
      </trkpt>
      <trkpt lat="43.718313" lon="-7.534893">
        <ele>100.212</ele>
        <time>2019-06-19T18:18:45Z</time>
      </trkpt>
      <trkpt lat="43.718229" lon="-7.535050">
        <ele>100.993</ele>
        <time>2019-06-19T18:18:46Z</time>
      </trkpt>
      <trkpt lat="43.718147" lon="-7.535201">
        <ele>101.336</ele>
        <time>2019-06-19T18:18:47Z</time>
      </trkpt>
      <trkpt lat="43.718050" lon="-7.535314">
        <ele>101.276</ele>
        <time>2019-06-19T18:18:48Z</time>
      </trkpt>
      <trkpt lat="43.717960" lon="-7.535446">
        <ele>101.112</ele>
        <time>2019-06-19T18:18:49Z</time>
      </trkpt>
      <trkpt lat="43.717838" lon="-7.535586">
        <ele>99.990</ele>
        <time>2019-06-19T18:18:50Z</time>
      </trkpt>
      <trkpt lat="43.717709" lon="-7.535701">
        <ele>98.190</ele>
        <time>2019-06-19T18:18:51Z</time>
      </trkpt>
      <trkpt lat="43.717571" lon="-7.535803">
        <ele>96.169</ele>
        <time>2019-06-19T18:18:52Z</time>
      </trkpt>
      <trkpt lat="43.717445" lon="-7.535894">
        <ele>94.304</ele>
        <time>2019-06-19T18:18:53Z</time>
      </trkpt>
      <trkpt lat="43.717322" lon="-7.535976">
        <ele>92.424</ele>
        <time>2019-06-19T18:18:54Z</time>
      </trkpt>
      <trkpt lat="43.717193" lon="-7.536052">
        <ele>90.108</ele>
        <time>2019-06-19T18:18:55Z</time>
      </trkpt>
      <trkpt lat="43.717089" lon="-7.536116">
        <ele>88.559</ele>
        <time>2019-06-19T18:18:56Z</time>
      </trkpt>
      <trkpt lat="43.716969" lon="-7.536161">
        <ele>86.953</ele>
        <time>2019-06-19T18:18:57Z</time>
      </trkpt>
      <trkpt lat="43.716860" lon="-7.536160">
        <ele>89.144</ele>
        <time>2019-06-19T18:18:58Z</time>
      </trkpt>
      <trkpt lat="43.716761" lon="-7.536135">
        <ele>92.117</ele>
        <time>2019-06-19T18:18:59Z</time>
      </trkpt>
      <trkpt lat="43.716682" lon="-7.536068">
        <ele>94.997</ele>
        <time>2019-06-19T18:19:00Z</time>
      </trkpt>
      <trkpt lat="43.716609" lon="-7.535974">
        <ele>98.493</ele>
        <time>2019-06-19T18:19:01Z</time>
      </trkpt>
      <trkpt lat="43.716542" lon="-7.535860">
        <ele>101.491</ele>
        <time>2019-06-19T18:19:02Z</time>
      </trkpt>
      <trkpt lat="43.716487" lon="-7.535718">
        <ele>103.521</ele>
        <time>2019-06-19T18:19:03Z</time>
      </trkpt>
      <trkpt lat="43.716428" lon="-7.535573">
        <ele>105.114</ele>
        <time>2019-06-19T18:19:04Z</time>
      </trkpt>
      <trkpt lat="43.716367" lon="-7.535418">
        <ele>105.154</ele>
        <time>2019-06-19T18:19:05Z</time>
      </trkpt>
      <trkpt lat="43.716316" lon="-7.535263">
        <ele>103.909</ele>
        <time>2019-06-19T18:19:06Z</time>
      </trkpt>
      <trkpt lat="43.716241" lon="-7.535106">
        <ele>102.408</ele>
        <time>2019-06-19T18:19:07Z</time>
      </trkpt>
      <trkpt lat="43.716163" lon="-7.534953">
        <ele>100.714</ele>
        <time>2019-06-19T18:19:08Z</time>
      </trkpt>
      <trkpt lat="43.716074" lon="-7.534794">
        <ele>98.568</ele>
        <time>2019-06-19T18:19:09Z</time>
      </trkpt>
      <trkpt lat="43.715978" lon="-7.534639">
        <ele>96.619</ele>
        <time>2019-06-19T18:19:10Z</time>
      </trkpt>
      <trkpt lat="43.715881" lon="-7.534495">
        <ele>95.962</ele>
        <time>2019-06-19T18:19:11Z</time>
      </trkpt>
      <trkpt lat="43.715765" lon="-7.534346">
        <ele>96.142</ele>
        <time>2019-06-19T18:19:12Z</time>
      </trkpt>
      <trkpt lat="43.715666" lon="-7.534213">
        <ele>96.888</ele>
        <time>2019-06-19T18:19:13Z</time>
      </trkpt>
      <trkpt lat="43.715563" lon="-7.534076">
        <ele>97.276</ele>
        <time>2019-06-19T18:19:14Z</time>
      </trkpt>
      <trkpt lat="43.715464" lon="-7.533945">
        <ele>96.356</ele>
        <time>2019-06-19T18:19:15Z</time>
      </trkpt>
      <trkpt lat="43.715371" lon="-7.533820">
        <ele>95.759</ele>
        <time>2019-06-19T18:19:16Z</time>
      </trkpt>
      <trkpt lat="43.715278" lon="-7.533697">
        <ele>95.903</ele>
        <time>2019-06-19T18:19:17Z</time>
      </trkpt>
      <trkpt lat="43.715188" lon="-7.533574">
        <ele>95.323</ele>
        <time>2019-06-19T18:19:18Z</time>
      </trkpt>
      <trkpt lat="43.715101" lon="-7.533457">
        <ele>94.508</ele>
        <time>2019-06-19T18:19:19Z</time>
      </trkpt>
      <trkpt lat="43.715014" lon="-7.533335">
        <ele>93.838</ele>
        <time>2019-06-19T18:19:20Z</time>
      </trkpt>
      <trkpt lat="43.714925" lon="-7.533212">
        <ele>92.862</ele>
        <time>2019-06-19T18:19:21Z</time>
      </trkpt>
      <trkpt lat="43.714841" lon="-7.533090">
        <ele>91.413</ele>
        <time>2019-06-19T18:19:22Z</time>
      </trkpt>
      <trkpt lat="43.714766" lon="-7.532977">
        <ele>90.276</ele>
        <time>2019-06-19T18:19:23Z</time>
      </trkpt>
      <trkpt lat="43.714688" lon="-7.532854">
        <ele>89.376</ele>
        <time>2019-06-19T18:19:24Z</time>
      </trkpt>
      <trkpt lat="43.714616" lon="-7.532731">
        <ele>89.832</ele>
        <time>2019-06-19T18:19:25Z</time>
      </trkpt>
      <trkpt lat="43.714551" lon="-7.532588">
        <ele>90.890</ele>
        <time>2019-06-19T18:19:26Z</time>
      </trkpt>
      <trkpt lat="43.714492" lon="-7.532430">
        <ele>90.970</ele>
        <time>2019-06-19T18:19:27Z</time>
      </trkpt>
      <trkpt lat="43.714451" lon="-7.532278">
        <ele>89.711</ele>
        <time>2019-06-19T18:19:28Z</time>
      </trkpt>
      <trkpt lat="43.714408" lon="-7.532117">
        <ele>87.421</ele>
        <time>2019-06-19T18:19:29Z</time>
      </trkpt>
      <trkpt lat="43.714362" lon="-7.531953">
        <ele>84.403</ele>
        <time>2019-06-19T18:19:30Z</time>
      </trkpt>
      <trkpt lat="43.714309" lon="-7.531793">
        <ele>82.208</ele>
        <time>2019-06-19T18:19:31Z</time>
      </trkpt>
      <trkpt lat="43.714246" lon="-7.531642">
        <ele>80.364</ele>
        <time>2019-06-19T18:19:32Z</time>
      </trkpt>
      <trkpt lat="43.714169" lon="-7.531511">
        <ele>79.938</ele>
        <time>2019-06-19T18:19:33Z</time>
      </trkpt>
      <trkpt lat="43.714097" lon="-7.531413">
        <ele>80.779</ele>
        <time>2019-06-19T18:19:34Z</time>
      </trkpt>
      <trkpt lat="43.714034" lon="-7.531386">
        <ele>81.912</ele>
        <time>2019-06-19T18:19:35Z</time>
      </trkpt>
      <trkpt lat="43.713969" lon="-7.531368">
        <ele>83.292</ele>
        <time>2019-06-19T18:19:36Z</time>
      </trkpt>
      <trkpt lat="43.713884" lon="-7.531385">
        <ele>85.038</ele>
        <time>2019-06-19T18:19:37Z</time>
      </trkpt>
      <trkpt lat="43.713786" lon="-7.531412">
        <ele>86.446</ele>
        <time>2019-06-19T18:19:38Z</time>
      </trkpt>
      <trkpt lat="43.713680" lon="-7.531443">
        <ele>88.096</ele>
        <time>2019-06-19T18:19:39Z</time>
      </trkpt>
      <trkpt lat="43.713572" lon="-7.531477">
        <ele>89.512</ele>
        <time>2019-06-19T18:19:40Z</time>
      </trkpt>
      <trkpt lat="43.713454" lon="-7.531514">
        <ele>90.432</ele>
        <time>2019-06-19T18:19:41Z</time>
      </trkpt>
      <trkpt lat="43.713328" lon="-7.531549">
        <ele>91.105</ele>
        <time>2019-06-19T18:19:42Z</time>
      </trkpt>
      <trkpt lat="43.713185" lon="-7.531582">
        <ele>90.308</ele>
        <time>2019-06-19T18:19:43Z</time>
      </trkpt>
      <trkpt lat="43.713043" lon="-7.531611">
        <ele>89.584</ele>
        <time>2019-06-19T18:19:44Z</time>
      </trkpt>
      <trkpt lat="43.712903" lon="-7.531635">
        <ele>88.298</ele>
        <time>2019-06-19T18:19:45Z</time>
      </trkpt>
      <trkpt lat="43.712769" lon="-7.531657">
        <ele>87.029</ele>
        <time>2019-06-19T18:19:46Z</time>
      </trkpt>
      <trkpt lat="43.712640" lon="-7.531677">
        <ele>88.192</ele>
        <time>2019-06-19T18:19:47Z</time>
      </trkpt>
      <trkpt lat="43.712511" lon="-7.531697">
        <ele>89.462</ele>
        <time>2019-06-19T18:19:48Z</time>
      </trkpt>
      <trkpt lat="43.712385" lon="-7.531716">
        <ele>91.398</ele>
        <time>2019-06-19T18:19:49Z</time>
      </trkpt>
      <trkpt lat="43.712269" lon="-7.531745">
        <ele>93.216</ele>
        <time>2019-06-19T18:19:50Z</time>
      </trkpt>
      <trkpt lat="43.712159" lon="-7.531787">
        <ele>94.666</ele>
        <time>2019-06-19T18:19:51Z</time>
      </trkpt>
      <trkpt lat="43.712050" lon="-7.531848">
        <ele>96.045</ele>
        <time>2019-06-19T18:19:52Z</time>
      </trkpt>
      <trkpt lat="43.711946" lon="-7.531928">
        <ele>97.847</ele>
        <time>2019-06-19T18:19:53Z</time>
      </trkpt>
      <trkpt lat="43.711849" lon="-7.532036">
        <ele>98.911</ele>
        <time>2019-06-19T18:19:54Z</time>
      </trkpt>
      <trkpt lat="43.711755" lon="-7.532156">
        <ele>100.608</ele>
        <time>2019-06-19T18:19:55Z</time>
      </trkpt>
      <trkpt lat="43.711658" lon="-7.532282">
        <ele>102.357</ele>
        <time>2019-06-19T18:19:56Z</time>
      </trkpt>
      <trkpt lat="43.711575" lon="-7.532422">
        <ele>102.691</ele>
        <time>2019-06-19T18:19:57Z</time>
      </trkpt>
      <trkpt lat="43.711497" lon="-7.532571">
        <ele>103.092</ele>
        <time>2019-06-19T18:19:58Z</time>
      </trkpt>
      <trkpt lat="43.711453" lon="-7.532746">
        <ele>103.315</ele>
        <time>2019-06-19T18:19:59Z</time>
      </trkpt>
      <trkpt lat="43.711395" lon="-7.532910">
        <ele>103.085</ele>
        <time>2019-06-19T18:20:00Z</time>
      </trkpt>
      <trkpt lat="43.711347" lon="-7.533064">
        <ele>102.541</ele>
        <time>2019-06-19T18:20:01Z</time>
      </trkpt>
      <trkpt lat="43.711326" lon="-7.533244">
        <ele>101.359</ele>
        <time>2019-06-19T18:20:02Z</time>
      </trkpt>
      <trkpt lat="43.711291" lon="-7.533463">
        <ele>100.629</ele>
        <time>2019-06-19T18:20:03Z</time>
      </trkpt>
      <trkpt lat="43.711259" lon="-7.533662">
        <ele>100.674</ele>
        <time>2019-06-19T18:20:04Z</time>
      </trkpt>
      <trkpt lat="43.711255" lon="-7.533862">
        <ele>101.056</ele>
        <time>2019-06-19T18:20:05Z</time>
      </trkpt>
      <trkpt lat="43.711268" lon="-7.534055">
        <ele>102.121</ele>
        <time>2019-06-19T18:20:06Z</time>
      </trkpt>
      <trkpt lat="43.711272" lon="-7.534239">
        <ele>102.908</ele>
        <time>2019-06-19T18:20:07Z</time>
      </trkpt>
      <trkpt lat="43.711277" lon="-7.534414">
        <ele>103.260</ele>
        <time>2019-06-19T18:20:08Z</time>
      </trkpt>
      <trkpt lat="43.711272" lon="-7.534573">
        <ele>102.474</ele>
        <time>2019-06-19T18:20:09Z</time>
      </trkpt>
      <trkpt lat="43.711259" lon="-7.534732">
        <ele>101.255</ele>
        <time>2019-06-19T18:20:10Z</time>
      </trkpt>
      <trkpt lat="43.711250" lon="-7.534898">
        <ele>99.748</ele>
        <time>2019-06-19T18:20:11Z</time>
      </trkpt>
      <trkpt lat="43.711202" lon="-7.535043">
        <ele>97.228</ele>
        <time>2019-06-19T18:20:12Z</time>
      </trkpt>
      <trkpt lat="43.711181" lon="-7.535204">
        <ele>95.044</ele>
        <time>2019-06-19T18:20:13Z</time>
      </trkpt>
      <trkpt lat="43.711143" lon="-7.535375">
        <ele>93.352</ele>
        <time>2019-06-19T18:20:14Z</time>
      </trkpt>
      <trkpt lat="43.711106" lon="-7.535532">
        <ele>92.882</ele>
        <time>2019-06-19T18:20:15Z</time>
      </trkpt>
      <trkpt lat="43.711071" lon="-7.535675">
        <ele>92.827</ele>
        <time>2019-06-19T18:20:16Z</time>
      </trkpt>
      <trkpt lat="43.711022" lon="-7.535817">
        <ele>92.368</ele>
        <time>2019-06-19T18:20:17Z</time>
      </trkpt>
      <trkpt lat="43.710956" lon="-7.535944">
        <ele>90.814</ele>
        <time>2019-06-19T18:20:18Z</time>
      </trkpt>
      <trkpt lat="43.710878" lon="-7.536049">
        <ele>88.908</ele>
        <time>2019-06-19T18:20:19Z</time>
      </trkpt>
      <trkpt lat="43.710789" lon="-7.536137">
        <ele>87.595</ele>
        <time>2019-06-19T18:20:20Z</time>
      </trkpt>
      <trkpt lat="43.710690" lon="-7.536190">
        <ele>86.519</ele>
        <time>2019-06-19T18:20:21Z</time>
      </trkpt>
      <trkpt lat="43.710582" lon="-7.536221">
        <ele>85.270</ele>
        <time>2019-06-19T18:20:22Z</time>
      </trkpt>
      <trkpt lat="43.710462" lon="-7.536238">
        <ele>84.473</ele>
        <time>2019-06-19T18:20:23Z</time>
      </trkpt>
      <trkpt lat="43.710327" lon="-7.536248">
        <ele>83.873</ele>
        <time>2019-06-19T18:20:24Z</time>
      </trkpt>
      <trkpt lat="43.710193" lon="-7.536274">
        <ele>83.479</ele>
        <time>2019-06-19T18:20:25Z</time>
      </trkpt>
      <trkpt lat="43.710065" lon="-7.536308">
        <ele>83.217</ele>
        <time>2019-06-19T18:20:26Z</time>
      </trkpt>
      <trkpt lat="43.709941" lon="-7.536357">
        <ele>83.817</ele>
        <time>2019-06-19T18:20:27Z</time>
      </trkpt>
      <trkpt lat="43.709827" lon="-7.536394">
        <ele>85.693</ele>
        <time>2019-06-19T18:20:28Z</time>
      </trkpt>
      <trkpt lat="43.709709" lon="-7.536431">
        <ele>87.965</ele>
        <time>2019-06-19T18:20:29Z</time>
      </trkpt>
      <trkpt lat="43.709600" lon="-7.536466">
        <ele>90.021</ele>
        <time>2019-06-19T18:20:30Z</time>
      </trkpt>
      <trkpt lat="43.709487" lon="-7.536492">
        <ele>91.908</ele>
        <time>2019-06-19T18:20:31Z</time>
      </trkpt>
      <trkpt lat="43.709376" lon="-7.536494">
        <ele>93.192</ele>
        <time>2019-06-19T18:20:32Z</time>
      </trkpt>
      <trkpt lat="43.709230" lon="-7.536428">
        <ele>93.216</ele>
        <time>2019-06-19T18:20:33Z</time>
      </trkpt>
      <trkpt lat="43.709089" lon="-7.536392">
        <ele>95.057</ele>
        <time>2019-06-19T18:20:34Z</time>
      </trkpt>
      <trkpt lat="43.708917" lon="-7.536367">
        <ele>99.140</ele>
        <time>2019-06-19T18:20:35Z</time>
      </trkpt>
      <trkpt lat="43.708762" lon="-7.536344">
        <ele>100.050</ele>
        <time>2019-06-19T18:20:36Z</time>
      </trkpt>
      <trkpt lat="43.708612" lon="-7.536317">
        <ele>100.566</ele>
        <time>2019-06-19T18:20:37Z</time>
      </trkpt>
      <trkpt lat="43.708456" lon="-7.536279">
        <ele>100.834</ele>
        <time>2019-06-19T18:20:38Z</time>
      </trkpt>
      <trkpt lat="43.708330" lon="-7.536229">
        <ele>100.954</ele>
        <time>2019-06-19T18:20:39Z</time>
      </trkpt>
      <trkpt lat="43.708208" lon="-7.536190">
        <ele>101.014</ele>
        <time>2019-06-19T18:20:40Z</time>
      </trkpt>
      <trkpt lat="43.708074" lon="-7.536166">
        <ele>101.354</ele>
        <time>2019-06-19T18:20:41Z</time>
      </trkpt>
      <trkpt lat="43.707931" lon="-7.536138">
        <ele>100.709</ele>
        <time>2019-06-19T18:20:42Z</time>
      </trkpt>
      <trkpt lat="43.707775" lon="-7.536139">
        <ele>100.208</ele>
        <time>2019-06-19T18:20:43Z</time>
      </trkpt>
      <trkpt lat="43.707641" lon="-7.536123">
        <ele>100.114</ele>
        <time>2019-06-19T18:20:44Z</time>
      </trkpt>
      <trkpt lat="43.707503" lon="-7.536097">
        <ele>99.858</ele>
        <time>2019-06-19T18:20:45Z</time>
      </trkpt>
      <trkpt lat="43.707366" lon="-7.536085">
        <ele>100.539</ele>
        <time>2019-06-19T18:20:46Z</time>
      </trkpt>
      <trkpt lat="43.707235" lon="-7.536063">
        <ele>100.922</ele>
        <time>2019-06-19T18:20:47Z</time>
      </trkpt>
      <trkpt lat="43.707118" lon="-7.536038">
        <ele>99.722</ele>
        <time>2019-06-19T18:20:48Z</time>
      </trkpt>
      <trkpt lat="43.707009" lon="-7.536019">
        <ele>98.568</ele>
        <time>2019-06-19T18:20:49Z</time>
      </trkpt>
      <trkpt lat="43.706884" lon="-7.536005">
        <ele>96.666</ele>
        <time>2019-06-19T18:20:50Z</time>
      </trkpt>
      <trkpt lat="43.706759" lon="-7.536007">
        <ele>94.436</ele>
        <time>2019-06-19T18:20:51Z</time>
      </trkpt>
      <trkpt lat="43.706638" lon="-7.536018">
        <ele>92.671</ele>
        <time>2019-06-19T18:20:52Z</time>
      </trkpt>
      <trkpt lat="43.706505" lon="-7.536039">
        <ele>91.341</ele>
        <time>2019-06-19T18:20:53Z</time>
      </trkpt>
      <trkpt lat="43.706375" lon="-7.536058">
        <ele>90.015</ele>
        <time>2019-06-19T18:20:54Z</time>
      </trkpt>
      <trkpt lat="43.706253" lon="-7.536083">
        <ele>89.608</ele>
        <time>2019-06-19T18:20:55Z</time>
      </trkpt>
      <trkpt lat="43.706146" lon="-7.536104">
        <ele>89.220</ele>
        <time>2019-06-19T18:20:56Z</time>
      </trkpt>
      <trkpt lat="43.706037" lon="-7.536104">
        <ele>89.764</ele>
        <time>2019-06-19T18:20:57Z</time>
      </trkpt>
      <trkpt lat="43.705925" lon="-7.536090">
        <ele>90.745</ele>
        <time>2019-06-19T18:20:58Z</time>
      </trkpt>
      <trkpt lat="43.705815" lon="-7.536056">
        <ele>91.268</ele>
        <time>2019-06-19T18:20:59Z</time>
      </trkpt>
      <trkpt lat="43.705693" lon="-7.536012">
        <ele>90.838</ele>
        <time>2019-06-19T18:21:00Z</time>
      </trkpt>
      <trkpt lat="43.705565" lon="-7.535952">
        <ele>90.364</ele>
        <time>2019-06-19T18:21:01Z</time>
      </trkpt>
      <trkpt lat="43.705432" lon="-7.535890">
        <ele>89.592</ele>
        <time>2019-06-19T18:21:02Z</time>
      </trkpt>
      <trkpt lat="43.705295" lon="-7.535821">
        <ele>89.012</ele>
        <time>2019-06-19T18:21:03Z</time>
      </trkpt>
      <trkpt lat="43.705153" lon="-7.535740">
        <ele>90.037</ele>
        <time>2019-06-19T18:21:04Z</time>
      </trkpt>
      <trkpt lat="43.705022" lon="-7.535648">
        <ele>91.149</ele>
        <time>2019-06-19T18:21:05Z</time>
      </trkpt>
      <trkpt lat="43.704897" lon="-7.535565">
        <ele>91.813</ele>
        <time>2019-06-19T18:21:06Z</time>
      </trkpt>
      <trkpt lat="43.704773" lon="-7.535477">
        <ele>92.408</ele>
        <time>2019-06-19T18:21:07Z</time>
      </trkpt>
      <trkpt lat="43.704657" lon="-7.535410">
        <ele>93.146</ele>
        <time>2019-06-19T18:21:08Z</time>
      </trkpt>
      <trkpt lat="43.704541" lon="-7.535343">
        <ele>94.050</ele>
        <time>2019-06-19T18:21:09Z</time>
      </trkpt>
      <trkpt lat="43.704441" lon="-7.535296">
        <ele>95.061</ele>
        <time>2019-06-19T18:21:10Z</time>
      </trkpt>
      <trkpt lat="43.704340" lon="-7.535278">
        <ele>96.134</ele>
        <time>2019-06-19T18:21:11Z</time>
      </trkpt>
      <trkpt lat="43.704222" lon="-7.535277">
        <ele>97.494</ele>
        <time>2019-06-19T18:21:12Z</time>
      </trkpt>
      <trkpt lat="43.704103" lon="-7.535290">
        <ele>98.250</ele>
        <time>2019-06-19T18:21:13Z</time>
      </trkpt>
      <trkpt lat="43.703983" lon="-7.535301">
        <ele>98.658</ele>
        <time>2019-06-19T18:21:14Z</time>
      </trkpt>
      <trkpt lat="43.703846" lon="-7.535316">
        <ele>99.478</ele>
        <time>2019-06-19T18:21:15Z</time>
      </trkpt>
      <trkpt lat="43.703716" lon="-7.535337">
        <ele>100.749</ele>
        <time>2019-06-19T18:21:16Z</time>
      </trkpt>
      <trkpt lat="43.703587" lon="-7.535361">
        <ele>101.902</ele>
        <time>2019-06-19T18:21:17Z</time>
      </trkpt>
      <trkpt lat="43.703462" lon="-7.535384">
        <ele>102.722</ele>
        <time>2019-06-19T18:21:18Z</time>
      </trkpt>
      <trkpt lat="43.703346" lon="-7.535403">
        <ele>103.508</ele>
        <time>2019-06-19T18:21:19Z</time>
      </trkpt>
      <trkpt lat="43.703232" lon="-7.535415">
        <ele>104.147</ele>
        <time>2019-06-19T18:21:20Z</time>
      </trkpt>
      <trkpt lat="43.703119" lon="-7.535425">
        <ele>104.631</ele>
        <time>2019-06-19T18:21:21Z</time>
      </trkpt>
      <trkpt lat="43.703029" lon="-7.535431">
        <ele>105.172</ele>
        <time>2019-06-19T18:21:22Z</time>
      </trkpt>
      <trkpt lat="43.702944" lon="-7.535439">
        <ele>105.945</ele>
        <time>2019-06-19T18:21:23Z</time>
      </trkpt>
      <trkpt lat="43.702857" lon="-7.535418">
        <ele>106.865</ele>
        <time>2019-06-19T18:21:24Z</time>
      </trkpt>
      <trkpt lat="43.702773" lon="-7.535371">
        <ele>107.761</ele>
        <time>2019-06-19T18:21:25Z</time>
      </trkpt>
      <trkpt lat="43.702700" lon="-7.535303">
        <ele>108.299</ele>
        <time>2019-06-19T18:21:26Z</time>
      </trkpt>
      <trkpt lat="43.702643" lon="-7.535226">
        <ele>108.939</ele>
        <time>2019-06-19T18:21:27Z</time>
      </trkpt>
      <trkpt lat="43.702613" lon="-7.535127">
        <ele>109.789</ele>
        <time>2019-06-19T18:21:28Z</time>
      </trkpt>
      <trkpt lat="43.702587" lon="-7.535017">
        <ele>110.606</ele>
        <time>2019-06-19T18:21:29Z</time>
      </trkpt>
      <trkpt lat="43.702561" lon="-7.534901">
        <ele>111.226</ele>
        <time>2019-06-19T18:21:30Z</time>
      </trkpt>
      <trkpt lat="43.702541" lon="-7.534779">
        <ele>111.808</ele>
        <time>2019-06-19T18:21:31Z</time>
      </trkpt>
      <trkpt lat="43.702521" lon="-7.534658">
        <ele>112.021</ele>
        <time>2019-06-19T18:21:32Z</time>
      </trkpt>
      <trkpt lat="43.702500" lon="-7.534544">
        <ele>112.015</ele>
        <time>2019-06-19T18:21:33Z</time>
      </trkpt>
      <trkpt lat="43.702479" lon="-7.534431">
        <ele>112.016</ele>
        <time>2019-06-19T18:21:34Z</time>
      </trkpt>
      <trkpt lat="43.702454" lon="-7.534326">
        <ele>112.479</ele>
        <time>2019-06-19T18:21:35Z</time>
      </trkpt>
      <trkpt lat="43.702428" lon="-7.534233">
        <ele>112.649</ele>
        <time>2019-06-19T18:21:36Z</time>
      </trkpt>
      <trkpt lat="43.702392" lon="-7.534145">
        <ele>112.895</ele>
        <time>2019-06-19T18:21:37Z</time>
      </trkpt>
      <trkpt lat="43.702343" lon="-7.534086">
        <ele>113.023</ele>
        <time>2019-06-19T18:21:38Z</time>
      </trkpt>
      <trkpt lat="43.702293" lon="-7.534038">
        <ele>113.273</ele>
        <time>2019-06-19T18:21:39Z</time>
      </trkpt>
      <trkpt lat="43.702231" lon="-7.534001">
        <ele>113.299</ele>
        <time>2019-06-19T18:21:40Z</time>
      </trkpt>
      <trkpt lat="43.702166" lon="-7.533983">
        <ele>113.307</ele>
        <time>2019-06-19T18:21:41Z</time>
      </trkpt>
      <trkpt lat="43.702092" lon="-7.533994">
        <ele>113.227</ele>
        <time>2019-06-19T18:21:42Z</time>
      </trkpt>
      <trkpt lat="43.702008" lon="-7.534025">
        <ele>113.008</ele>
        <time>2019-06-19T18:21:43Z</time>
      </trkpt>
      <trkpt lat="43.701917" lon="-7.534077">
        <ele>113.272</ele>
        <time>2019-06-19T18:21:44Z</time>
      </trkpt>
      <trkpt lat="43.701823" lon="-7.534155">
        <ele>114.746</ele>
        <time>2019-06-19T18:21:45Z</time>
      </trkpt>
      <trkpt lat="43.701727" lon="-7.534244">
        <ele>116.397</ele>
        <time>2019-06-19T18:21:46Z</time>
      </trkpt>
      <trkpt lat="43.701628" lon="-7.534343">
        <ele>118.370</ele>
        <time>2019-06-19T18:21:47Z</time>
      </trkpt>
      <trkpt lat="43.701527" lon="-7.534442">
        <ele>121.140</ele>
        <time>2019-06-19T18:21:48Z</time>
      </trkpt>
      <trkpt lat="43.701422" lon="-7.534544">
        <ele>122.546</ele>
        <time>2019-06-19T18:21:49Z</time>
      </trkpt>
      <trkpt lat="43.701316" lon="-7.534664">
        <ele>122.684</ele>
        <time>2019-06-19T18:21:50Z</time>
      </trkpt>
      <trkpt lat="43.701208" lon="-7.534813">
        <ele>122.684</ele>
        <time>2019-06-19T18:21:51Z</time>
      </trkpt>
      <trkpt lat="43.701101" lon="-7.534953">
        <ele>124.245</ele>
        <time>2019-06-19T18:21:52Z</time>
      </trkpt>
      <trkpt lat="43.701000" lon="-7.535101">
        <ele>126.547</ele>
        <time>2019-06-19T18:21:53Z</time>
      </trkpt>
      <trkpt lat="43.700918" lon="-7.535271">
        <ele>128.211</ele>
        <time>2019-06-19T18:21:54Z</time>
      </trkpt>
      <trkpt lat="43.700837" lon="-7.535426">
        <ele>130.108</ele>
        <time>2019-06-19T18:21:55Z</time>
      </trkpt>
      <trkpt lat="43.700773" lon="-7.535571">
        <ele>130.677</ele>
        <time>2019-06-19T18:21:56Z</time>
      </trkpt>
      <trkpt lat="43.700705" lon="-7.535699">
        <ele>131.751</ele>
        <time>2019-06-19T18:21:57Z</time>
      </trkpt>
      <trkpt lat="43.700636" lon="-7.535814">
        <ele>132.582</ele>
        <time>2019-06-19T18:21:58Z</time>
      </trkpt>
      <trkpt lat="43.700551" lon="-7.535868">
        <ele>134.625</ele>
        <time>2019-06-19T18:21:59Z</time>
      </trkpt>
      <trkpt lat="43.700467" lon="-7.535945">
        <ele>136.025</ele>
        <time>2019-06-19T18:22:00Z</time>
      </trkpt>
      <trkpt lat="43.700357" lon="-7.535971">
        <ele>138.741</ele>
        <time>2019-06-19T18:22:01Z</time>
      </trkpt>
      <trkpt lat="43.700249" lon="-7.536003">
        <ele>141.129</ele>
        <time>2019-06-19T18:22:02Z</time>
      </trkpt>
      <trkpt lat="43.700137" lon="-7.536018">
        <ele>143.919</ele>
        <time>2019-06-19T18:22:03Z</time>
      </trkpt>
      <trkpt lat="43.700024" lon="-7.536038">
        <ele>146.577</ele>
        <time>2019-06-19T18:22:04Z</time>
      </trkpt>
      <trkpt lat="43.699925" lon="-7.536069">
        <ele>148.061</ele>
        <time>2019-06-19T18:22:05Z</time>
      </trkpt>
      <trkpt lat="43.699831" lon="-7.536095">
        <ele>149.627</ele>
        <time>2019-06-19T18:22:06Z</time>
      </trkpt>
      <trkpt lat="43.699742" lon="-7.536123">
        <ele>151.208</ele>
        <time>2019-06-19T18:22:07Z</time>
      </trkpt>
      <trkpt lat="43.699681" lon="-7.536172">
        <ele>151.090</ele>
        <time>2019-06-19T18:22:08Z</time>
      </trkpt>
      <trkpt lat="43.699660" lon="-7.536276">
        <ele>149.224</ele>
        <time>2019-06-19T18:22:09Z</time>
      </trkpt>
      <trkpt lat="43.699618" lon="-7.536377">
        <ele>148.655</ele>
        <time>2019-06-19T18:22:10Z</time>
      </trkpt>
      <trkpt lat="43.699600" lon="-7.536486">
        <ele>148.428</ele>
        <time>2019-06-19T18:22:11Z</time>
      </trkpt>
      <trkpt lat="43.699614" lon="-7.536613">
        <ele>147.058</ele>
        <time>2019-06-19T18:22:12Z</time>
      </trkpt>
      <trkpt lat="43.699618" lon="-7.536752">
        <ele>146.514</ele>
        <time>2019-06-19T18:22:13Z</time>
      </trkpt>
      <trkpt lat="43.699618" lon="-7.536893">
        <ele>146.572</ele>
        <time>2019-06-19T18:22:14Z</time>
      </trkpt>
      <trkpt lat="43.699609" lon="-7.537035">
        <ele>146.812</ele>
        <time>2019-06-19T18:22:15Z</time>
      </trkpt>
      <trkpt lat="43.699572" lon="-7.537186">
        <ele>148.056</ele>
        <time>2019-06-19T18:22:16Z</time>
      </trkpt>
      <trkpt lat="43.699546" lon="-7.537332">
        <ele>149.159</ele>
        <time>2019-06-19T18:22:17Z</time>
      </trkpt>
      <trkpt lat="43.699519" lon="-7.537473">
        <ele>150.314</ele>
        <time>2019-06-19T18:22:18Z</time>
      </trkpt>
      <trkpt lat="43.699459" lon="-7.537587">
        <ele>153.108</ele>
        <time>2019-06-19T18:22:19Z</time>
      </trkpt>
      <trkpt lat="43.699396" lon="-7.537707">
        <ele>155.988</ele>
        <time>2019-06-19T18:22:20Z</time>
      </trkpt>
      <trkpt lat="43.699345" lon="-7.537823">
        <ele>157.822</ele>
        <time>2019-06-19T18:22:21Z</time>
      </trkpt>
      <trkpt lat="43.699312" lon="-7.537954">
        <ele>158.553</ele>
        <time>2019-06-19T18:22:22Z</time>
      </trkpt>
      <trkpt lat="43.699296" lon="-7.538114">
        <ele>158.386</ele>
        <time>2019-06-19T18:22:23Z</time>
      </trkpt>
      <trkpt lat="43.699288" lon="-7.538286">
        <ele>157.346</ele>
        <time>2019-06-19T18:22:24Z</time>
      </trkpt>
      <trkpt lat="43.699278" lon="-7.538465">
        <ele>156.932</ele>
        <time>2019-06-19T18:22:25Z</time>
      </trkpt>
      <trkpt lat="43.699270" lon="-7.538634">
        <ele>156.960</ele>
        <time>2019-06-19T18:22:26Z</time>
      </trkpt>
      <trkpt lat="43.699263" lon="-7.538791">
        <ele>158.270</ele>
        <time>2019-06-19T18:22:27Z</time>
      </trkpt>
      <trkpt lat="43.699264" lon="-7.538940">
        <ele>159.833</ele>
        <time>2019-06-19T18:22:28Z</time>
      </trkpt>
      <trkpt lat="43.699260" lon="-7.539085">
        <ele>162.523</ele>
        <time>2019-06-19T18:22:29Z</time>
      </trkpt>
      <trkpt lat="43.699243" lon="-7.539233">
        <ele>165.115</ele>
        <time>2019-06-19T18:22:30Z</time>
      </trkpt>
      <trkpt lat="43.699207" lon="-7.539373">
        <ele>167.408</ele>
        <time>2019-06-19T18:22:31Z</time>
      </trkpt>
      <trkpt lat="43.699148" lon="-7.539525">
        <ele>169.366</ele>
        <time>2019-06-19T18:22:32Z</time>
      </trkpt>
      <trkpt lat="43.699077" lon="-7.539684">
        <ele>170.650</ele>
        <time>2019-06-19T18:22:33Z</time>
      </trkpt>
      <trkpt lat="43.699000" lon="-7.539848">
        <ele>170.881</ele>
        <time>2019-06-19T18:22:34Z</time>
      </trkpt>
      <trkpt lat="43.698922" lon="-7.540011">
        <ele>170.564</ele>
        <time>2019-06-19T18:22:35Z</time>
      </trkpt>
      <trkpt lat="43.698845" lon="-7.540170">
        <ele>171.454</ele>
        <time>2019-06-19T18:22:36Z</time>
      </trkpt>
      <trkpt lat="43.698770" lon="-7.540332">
        <ele>172.680</ele>
        <time>2019-06-19T18:22:37Z</time>
      </trkpt>
      <trkpt lat="43.698689" lon="-7.540502">
        <ele>174.398</ele>
        <time>2019-06-19T18:22:38Z</time>
      </trkpt>
      <trkpt lat="43.698606" lon="-7.540671">
        <ele>176.948</ele>
        <time>2019-06-19T18:22:39Z</time>
      </trkpt>
      <trkpt lat="43.698527" lon="-7.540842">
        <ele>178.022</ele>
        <time>2019-06-19T18:22:40Z</time>
      </trkpt>
      <trkpt lat="43.698453" lon="-7.541001">
        <ele>177.962</ele>
        <time>2019-06-19T18:22:41Z</time>
      </trkpt>
      <trkpt lat="43.698383" lon="-7.541156">
        <ele>177.208</ele>
        <time>2019-06-19T18:22:42Z</time>
      </trkpt>
      <trkpt lat="43.698302" lon="-7.541313">
        <ele>175.808</ele>
        <time>2019-06-19T18:22:43Z</time>
      </trkpt>
      <trkpt lat="43.698233" lon="-7.541464">
        <ele>173.915</ele>
        <time>2019-06-19T18:22:44Z</time>
      </trkpt>
      <trkpt lat="43.698169" lon="-7.541606">
        <ele>172.249</ele>
        <time>2019-06-19T18:22:45Z</time>
      </trkpt>
      <trkpt lat="43.698117" lon="-7.541759">
        <ele>171.460</ele>
        <time>2019-06-19T18:22:46Z</time>
      </trkpt>
      <trkpt lat="43.698072" lon="-7.541909">
        <ele>171.173</ele>
        <time>2019-06-19T18:22:47Z</time>
      </trkpt>
      <trkpt lat="43.698029" lon="-7.542072">
        <ele>171.263</ele>
        <time>2019-06-19T18:22:48Z</time>
      </trkpt>
      <trkpt lat="43.698002" lon="-7.542232">
        <ele>171.629</ele>
        <time>2019-06-19T18:22:49Z</time>
      </trkpt>
      <trkpt lat="43.697980" lon="-7.542395">
        <ele>171.377</ele>
        <time>2019-06-19T18:22:50Z</time>
      </trkpt>
      <trkpt lat="43.697961" lon="-7.542564">
        <ele>170.727</ele>
        <time>2019-06-19T18:22:51Z</time>
      </trkpt>
      <trkpt lat="43.697946" lon="-7.542726">
        <ele>169.779</ele>
        <time>2019-06-19T18:22:52Z</time>
      </trkpt>
      <trkpt lat="43.697928" lon="-7.542901">
        <ele>169.405</ele>
        <time>2019-06-19T18:22:53Z</time>
      </trkpt>
      <trkpt lat="43.697902" lon="-7.543062">
        <ele>169.225</ele>
        <time>2019-06-19T18:22:54Z</time>
      </trkpt>
      <trkpt lat="43.697867" lon="-7.543214">
        <ele>168.808</ele>
        <time>2019-06-19T18:22:55Z</time>
      </trkpt>
      <trkpt lat="43.697830" lon="-7.543356">
        <ele>168.140</ele>
        <time>2019-06-19T18:22:56Z</time>
      </trkpt>
      <trkpt lat="43.697796" lon="-7.543501">
        <ele>166.994</ele>
        <time>2019-06-19T18:22:57Z</time>
      </trkpt>
      <trkpt lat="43.697753" lon="-7.543607">
        <ele>165.325</ele>
        <time>2019-06-19T18:22:58Z</time>
      </trkpt>
      <trkpt lat="43.697714" lon="-7.543733">
        <ele>163.788</ele>
        <time>2019-06-19T18:22:59Z</time>
      </trkpt>
      <trkpt lat="43.697625" lon="-7.543845">
        <ele>160.888</ele>
        <time>2019-06-19T18:23:00Z</time>
      </trkpt>
      <trkpt lat="43.697551" lon="-7.543928">
        <ele>158.194</ele>
        <time>2019-06-19T18:23:01Z</time>
      </trkpt>
      <trkpt lat="43.697459" lon="-7.543995">
        <ele>154.812</ele>
        <time>2019-06-19T18:23:02Z</time>
      </trkpt>
      <trkpt lat="43.697372" lon="-7.544062">
        <ele>152.352</ele>
        <time>2019-06-19T18:23:03Z</time>
      </trkpt>
      <trkpt lat="43.697290" lon="-7.544143">
        <ele>150.399</ele>
        <time>2019-06-19T18:23:04Z</time>
      </trkpt>
      <trkpt lat="43.697229" lon="-7.544236">
        <ele>149.107</ele>
        <time>2019-06-19T18:23:05Z</time>
      </trkpt>
      <trkpt lat="43.697185" lon="-7.544357">
        <ele>148.727</ele>
        <time>2019-06-19T18:23:06Z</time>
      </trkpt>
      <trkpt lat="43.697168" lon="-7.544502">
        <ele>148.508</ele>
        <time>2019-06-19T18:23:07Z</time>
      </trkpt>
      <trkpt lat="43.697164" lon="-7.544662">
        <ele>148.182</ele>
        <time>2019-06-19T18:23:08Z</time>
      </trkpt>
      <trkpt lat="43.697177" lon="-7.544836">
        <ele>148.156</ele>
        <time>2019-06-19T18:23:09Z</time>
      </trkpt>
      <trkpt lat="43.697200" lon="-7.545010">
        <ele>148.187</ele>
        <time>2019-06-19T18:23:10Z</time>
      </trkpt>
      <trkpt lat="43.697222" lon="-7.545189">
        <ele>148.790</ele>
        <time>2019-06-19T18:23:11Z</time>
      </trkpt>
      <trkpt lat="43.697240" lon="-7.545357">
        <ele>148.830</ele>
        <time>2019-06-19T18:23:12Z</time>
      </trkpt>
      <trkpt lat="43.697253" lon="-7.545529">
        <ele>148.246</ele>
        <time>2019-06-19T18:23:13Z</time>
      </trkpt>
      <trkpt lat="43.697257" lon="-7.545714">
        <ele>147.664</ele>
        <time>2019-06-19T18:23:14Z</time>
      </trkpt>
      <trkpt lat="43.697258" lon="-7.545920">
        <ele>147.294</ele>
        <time>2019-06-19T18:23:15Z</time>
      </trkpt>
      <trkpt lat="43.697240" lon="-7.546120">
        <ele>147.165</ele>
        <time>2019-06-19T18:23:16Z</time>
      </trkpt>
      <trkpt lat="43.697215" lon="-7.546321">
        <ele>147.068</ele>
        <time>2019-06-19T18:23:17Z</time>
      </trkpt>
      <trkpt lat="43.697186" lon="-7.546524">
        <ele>146.914</ele>
        <time>2019-06-19T18:23:18Z</time>
      </trkpt>
      <trkpt lat="43.697156" lon="-7.546729">
        <ele>146.808</ele>
        <time>2019-06-19T18:23:19Z</time>
      </trkpt>
      <trkpt lat="43.697124" lon="-7.546928">
        <ele>147.049</ele>
        <time>2019-06-19T18:23:20Z</time>
      </trkpt>
      <trkpt lat="43.697094" lon="-7.547116">
        <ele>147.333</ele>
        <time>2019-06-19T18:23:21Z</time>
      </trkpt>
      <trkpt lat="43.697068" lon="-7.547286">
        <ele>147.414</ele>
        <time>2019-06-19T18:23:22Z</time>
      </trkpt>
      <trkpt lat="43.697040" lon="-7.547441">
        <ele>147.397</ele>
        <time>2019-06-19T18:23:23Z</time>
      </trkpt>
      <trkpt lat="43.697016" lon="-7.547565">
        <ele>147.437</ele>
        <time>2019-06-19T18:23:24Z</time>
      </trkpt>
      <trkpt lat="43.696996" lon="-7.547688">
        <ele>147.613</ele>
        <time>2019-06-19T18:23:25Z</time>
      </trkpt>
      <trkpt lat="43.696966" lon="-7.547803">
        <ele>148.081</ele>
        <time>2019-06-19T18:23:26Z</time>
      </trkpt>
      <trkpt lat="43.696919" lon="-7.547896">
        <ele>148.411</ele>
        <time>2019-06-19T18:23:27Z</time>
      </trkpt>
      <trkpt lat="43.696853" lon="-7.547998">
        <ele>148.813</ele>
        <time>2019-06-19T18:23:28Z</time>
      </trkpt>
      <trkpt lat="43.696762" lon="-7.548087">
        <ele>149.143</ele>
        <time>2019-06-19T18:23:29Z</time>
      </trkpt>
      <trkpt lat="43.696655" lon="-7.548157">
        <ele>149.407</ele>
        <time>2019-06-19T18:23:30Z</time>
      </trkpt>
      <trkpt lat="43.696535" lon="-7.548214">
        <ele>150.008</ele>
        <time>2019-06-19T18:23:31Z</time>
      </trkpt>
      <trkpt lat="43.696414" lon="-7.548250">
        <ele>150.644</ele>
        <time>2019-06-19T18:23:32Z</time>
      </trkpt>
      <trkpt lat="43.696287" lon="-7.548306">
        <ele>151.368</ele>
        <time>2019-06-19T18:23:33Z</time>
      </trkpt>
      <trkpt lat="43.696163" lon="-7.548379">
        <ele>151.939</ele>
        <time>2019-06-19T18:23:34Z</time>
      </trkpt>
      <trkpt lat="43.696045" lon="-7.548468">
        <ele>152.572</ele>
        <time>2019-06-19T18:23:35Z</time>
      </trkpt>
      <trkpt lat="43.695924" lon="-7.548566">
        <ele>153.392</ele>
        <time>2019-06-19T18:23:36Z</time>
      </trkpt>
      <trkpt lat="43.695812" lon="-7.548660">
        <ele>155.298</ele>
        <time>2019-06-19T18:23:37Z</time>
      </trkpt>
      <trkpt lat="43.695701" lon="-7.548752">
        <ele>158.786</ele>
        <time>2019-06-19T18:23:38Z</time>
      </trkpt>
      <trkpt lat="43.695603" lon="-7.548838">
        <ele>162.186</ele>
        <time>2019-06-19T18:23:39Z</time>
      </trkpt>
      <trkpt lat="43.695515" lon="-7.548919">
        <ele>164.591</ele>
        <time>2019-06-19T18:23:40Z</time>
      </trkpt>
      <trkpt lat="43.695435" lon="-7.548984">
        <ele>165.581</ele>
        <time>2019-06-19T18:23:41Z</time>
      </trkpt>
      <trkpt lat="43.695354" lon="-7.549035">
        <ele>166.019</ele>
        <time>2019-06-19T18:23:42Z</time>
      </trkpt>
      <trkpt lat="43.695280" lon="-7.549089">
        <ele>166.608</ele>
        <time>2019-06-19T18:23:43Z</time>
      </trkpt>
      <trkpt lat="43.695214" lon="-7.549135">
        <ele>166.392</ele>
        <time>2019-06-19T18:23:44Z</time>
      </trkpt>
      <trkpt lat="43.695162" lon="-7.549172">
        <ele>166.076</ele>
        <time>2019-06-19T18:23:45Z</time>
      </trkpt>
      <trkpt lat="43.695111" lon="-7.549203">
        <ele>165.827</ele>
        <time>2019-06-19T18:23:46Z</time>
      </trkpt>
      <trkpt lat="43.695061" lon="-7.549212">
        <ele>165.170</ele>
        <time>2019-06-19T18:23:47Z</time>
      </trkpt>
      <trkpt lat="43.694993" lon="-7.549224">
        <ele>164.150</ele>
        <time>2019-06-19T18:23:48Z</time>
      </trkpt>
      <trkpt lat="43.694918" lon="-7.549220">
        <ele>162.556</ele>
        <time>2019-06-19T18:23:49Z</time>
      </trkpt>
      <trkpt lat="43.694832" lon="-7.549196">
        <ele>160.454</ele>
        <time>2019-06-19T18:23:50Z</time>
      </trkpt>
      <trkpt lat="43.694740" lon="-7.549151">
        <ele>158.394</ele>
        <time>2019-06-19T18:23:51Z</time>
      </trkpt>
      <trkpt lat="43.694639" lon="-7.549093">
        <ele>157.758</ele>
        <time>2019-06-19T18:23:52Z</time>
      </trkpt>
      <trkpt lat="43.694551" lon="-7.549032">
        <ele>157.452</ele>
        <time>2019-06-19T18:23:53Z</time>
      </trkpt>
      <trkpt lat="43.694452" lon="-7.548985">
        <ele>157.017</ele>
        <time>2019-06-19T18:23:54Z</time>
      </trkpt>
      <trkpt lat="43.694355" lon="-7.548966">
        <ele>156.808</ele>
        <time>2019-06-19T18:23:55Z</time>
      </trkpt>
      <trkpt lat="43.694265" lon="-7.548954">
        <ele>156.558</ele>
        <time>2019-06-19T18:23:56Z</time>
      </trkpt>
      <trkpt lat="43.694172" lon="-7.548949">
        <ele>156.222</ele>
        <time>2019-06-19T18:23:57Z</time>
      </trkpt>
      <trkpt lat="43.694074" lon="-7.548962">
        <ele>156.623</ele>
        <time>2019-06-19T18:23:58Z</time>
      </trkpt>
      <trkpt lat="43.693977" lon="-7.548970">
        <ele>157.016</ele>
        <time>2019-06-19T18:23:59Z</time>
      </trkpt>
      <trkpt lat="43.693883" lon="-7.548978">
        <ele>157.436</ele>
        <time>2019-06-19T18:24:00Z</time>
      </trkpt>
      <trkpt lat="43.693801" lon="-7.548965">
        <ele>157.992</ele>
        <time>2019-06-19T18:24:01Z</time>
      </trkpt>
      <trkpt lat="43.693725" lon="-7.548935">
        <ele>158.370</ele>
        <time>2019-06-19T18:24:02Z</time>
      </trkpt>
      <trkpt lat="43.693631" lon="-7.548881">
        <ele>158.980</ele>
        <time>2019-06-19T18:24:03Z</time>
      </trkpt>
      <trkpt lat="43.693576" lon="-7.548801">
        <ele>159.195</ele>
        <time>2019-06-19T18:24:04Z</time>
      </trkpt>
      <trkpt lat="43.693515" lon="-7.548695">
        <ele>159.149</ele>
        <time>2019-06-19T18:24:05Z</time>
      </trkpt>
      <trkpt lat="43.693455" lon="-7.548569">
        <ele>158.823</ele>
        <time>2019-06-19T18:24:06Z</time>
      </trkpt>
      <trkpt lat="43.693388" lon="-7.548433">
        <ele>158.408</ele>
        <time>2019-06-19T18:24:07Z</time>
      </trkpt>
      <trkpt lat="43.693310" lon="-7.548300">
        <ele>158.012</ele>
        <time>2019-06-19T18:24:08Z</time>
      </trkpt>
      <trkpt lat="43.693242" lon="-7.548178">
        <ele>158.016</ele>
        <time>2019-06-19T18:24:09Z</time>
      </trkpt>
      <trkpt lat="43.693175" lon="-7.548057">
        <ele>158.057</ele>
        <time>2019-06-19T18:24:10Z</time>
      </trkpt>
      <trkpt lat="43.693094" lon="-7.547941">
        <ele>159.290</ele>
        <time>2019-06-19T18:24:11Z</time>
      </trkpt>
      <trkpt lat="43.693020" lon="-7.547858">
        <ele>160.350</ele>
        <time>2019-06-19T18:24:12Z</time>
      </trkpt>
      <trkpt lat="43.692948" lon="-7.547776">
        <ele>161.466</ele>
        <time>2019-06-19T18:24:13Z</time>
      </trkpt>
      <trkpt lat="43.692845" lon="-7.547756">
        <ele>162.034</ele>
        <time>2019-06-19T18:24:14Z</time>
      </trkpt>
      <trkpt lat="43.692728" lon="-7.547736">
        <ele>162.484</ele>
        <time>2019-06-19T18:24:15Z</time>
      </trkpt>
      <trkpt lat="43.692615" lon="-7.547724">
        <ele>162.515</ele>
        <time>2019-06-19T18:24:16Z</time>
      </trkpt>
      <trkpt lat="43.692493" lon="-7.547707">
        <ele>162.565</ele>
        <time>2019-06-19T18:24:17Z</time>
      </trkpt>
      <trkpt lat="43.692367" lon="-7.547676">
        <ele>161.811</ele>
        <time>2019-06-19T18:24:18Z</time>
      </trkpt>
      <trkpt lat="43.692234" lon="-7.547619">
        <ele>161.208</ele>
        <time>2019-06-19T18:24:19Z</time>
      </trkpt>
      <trkpt lat="43.692115" lon="-7.547566">
        <ele>161.174</ele>
        <time>2019-06-19T18:24:20Z</time>
      </trkpt>
      <trkpt lat="43.691996" lon="-7.547500">
        <ele>161.228</ele>
        <time>2019-06-19T18:24:21Z</time>
      </trkpt>
      <trkpt lat="43.691874" lon="-7.547436">
        <ele>162.679</ele>
        <time>2019-06-19T18:24:22Z</time>
      </trkpt>
      <trkpt lat="43.691761" lon="-7.547378">
        <ele>164.762</ele>
        <time>2019-06-19T18:24:23Z</time>
      </trkpt>
      <trkpt lat="43.691664" lon="-7.547333">
        <ele>166.322</ele>
        <time>2019-06-19T18:24:24Z</time>
      </trkpt>
      <trkpt lat="43.691567" lon="-7.547302">
        <ele>169.178</ele>
        <time>2019-06-19T18:24:25Z</time>
      </trkpt>
      <trkpt lat="43.691471" lon="-7.547300">
        <ele>171.726</ele>
        <time>2019-06-19T18:24:26Z</time>
      </trkpt>
      <trkpt lat="43.691350" lon="-7.547322">
        <ele>174.846</ele>
        <time>2019-06-19T18:24:27Z</time>
      </trkpt>
      <trkpt lat="43.691260" lon="-7.547370">
        <ele>176.863</ele>
        <time>2019-06-19T18:24:28Z</time>
      </trkpt>
      <trkpt lat="43.691166" lon="-7.547418">
        <ele>178.844</ele>
        <time>2019-06-19T18:24:29Z</time>
      </trkpt>
      <trkpt lat="43.691067" lon="-7.547460">
        <ele>179.718</ele>
        <time>2019-06-19T18:24:30Z</time>
      </trkpt>
      <trkpt lat="43.690960" lon="-7.547493">
        <ele>179.108</ele>
        <time>2019-06-19T18:24:31Z</time>
      </trkpt>
      <trkpt lat="43.690842" lon="-7.547510">
        <ele>178.719</ele>
        <time>2019-06-19T18:24:32Z</time>
      </trkpt>
      <trkpt lat="43.690721" lon="-7.547522">
        <ele>176.513</ele>
        <time>2019-06-19T18:24:33Z</time>
      </trkpt>
      <trkpt lat="43.690594" lon="-7.547532">
        <ele>174.284</ele>
        <time>2019-06-19T18:24:34Z</time>
      </trkpt>
      <trkpt lat="43.690470" lon="-7.547549">
        <ele>173.167</ele>
        <time>2019-06-19T18:24:35Z</time>
      </trkpt>
      <trkpt lat="43.690349" lon="-7.547563">
        <ele>172.967</ele>
        <time>2019-06-19T18:24:36Z</time>
      </trkpt>
      <trkpt lat="43.690236" lon="-7.547570">
        <ele>172.743</ele>
        <time>2019-06-19T18:24:37Z</time>
      </trkpt>
      <trkpt lat="43.690132" lon="-7.547577">
        <ele>172.641</ele>
        <time>2019-06-19T18:24:38Z</time>
      </trkpt>
      <trkpt lat="43.690031" lon="-7.547587">
        <ele>172.451</ele>
        <time>2019-06-19T18:24:39Z</time>
      </trkpt>
      <trkpt lat="43.689940" lon="-7.547602">
        <ele>171.916</ele>
        <time>2019-06-19T18:24:40Z</time>
      </trkpt>
      <trkpt lat="43.689849" lon="-7.547618">
        <ele>171.376</ele>
        <time>2019-06-19T18:24:41Z</time>
      </trkpt>
      <trkpt lat="43.689758" lon="-7.547659">
        <ele>170.613</ele>
        <time>2019-06-19T18:24:42Z</time>
      </trkpt>
      <trkpt lat="43.689669" lon="-7.547707">
        <ele>170.008</ele>
        <time>2019-06-19T18:24:43Z</time>
      </trkpt>
      <trkpt lat="43.689575" lon="-7.547768">
        <ele>169.594</ele>
        <time>2019-06-19T18:24:44Z</time>
      </trkpt>
      <trkpt lat="43.689475" lon="-7.547816">
        <ele>169.168</ele>
        <time>2019-06-19T18:24:45Z</time>
      </trkpt>
      <trkpt lat="43.689375" lon="-7.547839">
        <ele>168.699</ele>
        <time>2019-06-19T18:24:46Z</time>
      </trkpt>
      <trkpt lat="43.689262" lon="-7.547852">
        <ele>167.932</ele>
        <time>2019-06-19T18:24:47Z</time>
      </trkpt>
      <trkpt lat="43.689145" lon="-7.547863">
        <ele>167.132</ele>
        <time>2019-06-19T18:24:48Z</time>
      </trkpt>
      <trkpt lat="43.689021" lon="-7.547872">
        <ele>165.978</ele>
        <time>2019-06-19T18:24:49Z</time>
      </trkpt>
      <trkpt lat="43.688900" lon="-7.547875">
        <ele>164.856</ele>
        <time>2019-06-19T18:24:50Z</time>
      </trkpt>
      <trkpt lat="43.688782" lon="-7.547883">
        <ele>165.466</ele>
        <time>2019-06-19T18:24:51Z</time>
      </trkpt>
      <trkpt lat="43.688675" lon="-7.547891">
        <ele>166.025</ele>
        <time>2019-06-19T18:24:52Z</time>
      </trkpt>
      <trkpt lat="43.688575" lon="-7.547899">
        <ele>167.126</ele>
        <time>2019-06-19T18:24:53Z</time>
      </trkpt>
      <trkpt lat="43.688481" lon="-7.547900">
        <ele>168.808</ele>
        <time>2019-06-19T18:24:54Z</time>
      </trkpt>
      <trkpt lat="43.688404" lon="-7.547900">
        <ele>170.208</ele>
        <time>2019-06-19T18:24:55Z</time>
      </trkpt>
      <trkpt lat="43.688341" lon="-7.547914">
        <ele>171.415</ele>
        <time>2019-06-19T18:24:56Z</time>
      </trkpt>
      <trkpt lat="43.688290" lon="-7.547920">
        <ele>172.369</ele>
        <time>2019-06-19T18:24:57Z</time>
      </trkpt>
      <trkpt lat="43.688225" lon="-7.547981">
        <ele>173.740</ele>
        <time>2019-06-19T18:24:59Z</time>
      </trkpt>
      <trkpt lat="43.688194" lon="-7.548099">
        <ele>174.133</ele>
        <time>2019-06-19T18:25:01Z</time>
      </trkpt>
      <trkpt lat="43.688183" lon="-7.548200">
        <ele>173.423</ele>
        <time>2019-06-19T18:25:02Z</time>
      </trkpt>
      <trkpt lat="43.688186" lon="-7.548361">
        <ele>172.199</ele>
        <time>2019-06-19T18:25:03Z</time>
      </trkpt>
      <trkpt lat="43.688181" lon="-7.548506">
        <ele>171.927</ele>
        <time>2019-06-19T18:25:04Z</time>
      </trkpt>
      <trkpt lat="43.688166" lon="-7.548673">
        <ele>172.297</ele>
        <time>2019-06-19T18:25:05Z</time>
      </trkpt>
      <trkpt lat="43.688151" lon="-7.548846">
        <ele>173.155</ele>
        <time>2019-06-19T18:25:06Z</time>
      </trkpt>
      <trkpt lat="43.688135" lon="-7.549023">
        <ele>173.907</ele>
        <time>2019-06-19T18:25:07Z</time>
      </trkpt>
      <trkpt lat="43.688117" lon="-7.549225">
        <ele>174.317</ele>
        <time>2019-06-19T18:25:08Z</time>
      </trkpt>
      <trkpt lat="43.688097" lon="-7.549441">
        <ele>173.108</ele>
        <time>2019-06-19T18:25:09Z</time>
      </trkpt>
      <trkpt lat="43.688070" lon="-7.549674">
        <ele>174.498</ele>
        <time>2019-06-19T18:25:10Z</time>
      </trkpt>
      <trkpt lat="43.688045" lon="-7.549921">
        <ele>174.312</ele>
        <time>2019-06-19T18:25:11Z</time>
      </trkpt>
      <trkpt lat="43.688017" lon="-7.550172">
        <ele>175.983</ele>
        <time>2019-06-19T18:25:12Z</time>
      </trkpt>
      <trkpt lat="43.687991" lon="-7.550425">
        <ele>176.776</ele>
        <time>2019-06-19T18:25:13Z</time>
      </trkpt>
      <trkpt lat="43.687953" lon="-7.550689">
        <ele>175.986</ele>
        <time>2019-06-19T18:25:14Z</time>
      </trkpt>
      <trkpt lat="43.687920" lon="-7.550956">
        <ele>174.732</ele>
        <time>2019-06-19T18:25:15Z</time>
      </trkpt>
      <trkpt lat="43.687892" lon="-7.551221">
        <ele>174.160</ele>
        <time>2019-06-19T18:25:16Z</time>
      </trkpt>
      <trkpt lat="43.687858" lon="-7.551481">
        <ele>173.520</ele>
        <time>2019-06-19T18:25:17Z</time>
      </trkpt>
      <trkpt lat="43.687817" lon="-7.551732">
        <ele>172.726</ele>
        <time>2019-06-19T18:25:18Z</time>
      </trkpt>
      <trkpt lat="43.687789" lon="-7.551969">
        <ele>169.447</ele>
        <time>2019-06-19T18:25:19Z</time>
      </trkpt>
      <trkpt lat="43.687753" lon="-7.552200">
        <ele>167.111</ele>
        <time>2019-06-19T18:25:20Z</time>
      </trkpt>
      <trkpt lat="43.687712" lon="-7.552432">
        <ele>167.008</ele>
        <time>2019-06-19T18:25:21Z</time>
      </trkpt>
      <trkpt lat="43.687672" lon="-7.552652">
        <ele>167.135</ele>
        <time>2019-06-19T18:25:22Z</time>
      </trkpt>
      <trkpt lat="43.687630" lon="-7.552855">
        <ele>167.319</ele>
        <time>2019-06-19T18:25:23Z</time>
      </trkpt>
      <trkpt lat="43.687561" lon="-7.553031">
        <ele>167.860</ele>
        <time>2019-06-19T18:25:24Z</time>
      </trkpt>
      <trkpt lat="43.687485" lon="-7.553182">
        <ele>166.423</ele>
        <time>2019-06-19T18:25:25Z</time>
      </trkpt>
      <trkpt lat="43.687386" lon="-7.553320">
        <ele>164.533</ele>
        <time>2019-06-19T18:25:26Z</time>
      </trkpt>
      <trkpt lat="43.687265" lon="-7.553416">
        <ele>163.589</ele>
        <time>2019-06-19T18:25:27Z</time>
      </trkpt>
      <trkpt lat="43.687135" lon="-7.553507">
        <ele>162.697</ele>
        <time>2019-06-19T18:25:28Z</time>
      </trkpt>
      <trkpt lat="43.686981" lon="-7.553584">
        <ele>161.737</ele>
        <time>2019-06-19T18:25:29Z</time>
      </trkpt>
      <trkpt lat="43.686828" lon="-7.553651">
        <ele>162.725</ele>
        <time>2019-06-19T18:25:30Z</time>
      </trkpt>
      <trkpt lat="43.686666" lon="-7.553708">
        <ele>164.926</ele>
        <time>2019-06-19T18:25:31Z</time>
      </trkpt>
      <trkpt lat="43.686522" lon="-7.553767">
        <ele>165.308</ele>
        <time>2019-06-19T18:25:32Z</time>
      </trkpt>
      <trkpt lat="43.686372" lon="-7.553842">
        <ele>165.608</ele>
        <time>2019-06-19T18:25:33Z</time>
      </trkpt>
      <trkpt lat="43.686238" lon="-7.553930">
        <ele>163.955</ele>
        <time>2019-06-19T18:25:34Z</time>
      </trkpt>
      <trkpt lat="43.686112" lon="-7.554048">
        <ele>161.739</ele>
        <time>2019-06-19T18:25:35Z</time>
      </trkpt>
      <trkpt lat="43.686005" lon="-7.554188">
        <ele>159.270</ele>
        <time>2019-06-19T18:25:36Z</time>
      </trkpt>
      <trkpt lat="43.685924" lon="-7.554350">
        <ele>159.333</ele>
        <time>2019-06-19T18:25:37Z</time>
      </trkpt>
      <trkpt lat="43.685867" lon="-7.554521">
        <ele>160.793</ele>
        <time>2019-06-19T18:25:38Z</time>
      </trkpt>
      <trkpt lat="43.685832" lon="-7.554714">
        <ele>162.099</ele>
        <time>2019-06-19T18:25:39Z</time>
      </trkpt>
      <trkpt lat="43.685826" lon="-7.554925">
        <ele>163.277</ele>
        <time>2019-06-19T18:25:40Z</time>
      </trkpt>
      <trkpt lat="43.685864" lon="-7.555112">
        <ele>163.057</ele>
        <time>2019-06-19T18:25:41Z</time>
      </trkpt>
      <trkpt lat="43.685913" lon="-7.555306">
        <ele>162.948</ele>
        <time>2019-06-19T18:25:42Z</time>
      </trkpt>
      <trkpt lat="43.685972" lon="-7.555492">
        <ele>161.961</ele>
        <time>2019-06-19T18:25:43Z</time>
      </trkpt>
      <trkpt lat="43.686059" lon="-7.555680">
        <ele>159.217</ele>
        <time>2019-06-19T18:25:44Z</time>
      </trkpt>
      <trkpt lat="43.686137" lon="-7.555870">
        <ele>157.308</ele>
        <time>2019-06-19T18:25:45Z</time>
      </trkpt>
      <trkpt lat="43.686224" lon="-7.556088">
        <ele>155.597</ele>
        <time>2019-06-19T18:25:46Z</time>
      </trkpt>
      <trkpt lat="43.686289" lon="-7.556322">
        <ele>153.551</ele>
        <time>2019-06-19T18:25:47Z</time>
      </trkpt>
      <trkpt lat="43.686333" lon="-7.556570">
        <ele>151.232</ele>
        <time>2019-06-19T18:25:48Z</time>
      </trkpt>
      <trkpt lat="43.686360" lon="-7.556821">
        <ele>149.745</ele>
        <time>2019-06-19T18:25:49Z</time>
      </trkpt>
      <trkpt lat="43.686388" lon="-7.557057">
        <ele>148.595</ele>
        <time>2019-06-19T18:25:50Z</time>
      </trkpt>
      <trkpt lat="43.686416" lon="-7.557309">
        <ele>148.161</ele>
        <time>2019-06-19T18:25:51Z</time>
      </trkpt>
      <trkpt lat="43.686444" lon="-7.557547">
        <ele>147.399</ele>
        <time>2019-06-19T18:25:52Z</time>
      </trkpt>
      <trkpt lat="43.686411" lon="-7.557812">
        <ele>146.919</ele>
        <time>2019-06-19T18:25:53Z</time>
      </trkpt>
      <trkpt lat="43.686428" lon="-7.558049">
        <ele>144.541</ele>
        <time>2019-06-19T18:25:54Z</time>
      </trkpt>
      <trkpt lat="43.686407" lon="-7.558305">
        <ele>144.381</ele>
        <time>2019-06-19T18:25:55Z</time>
      </trkpt>
      <trkpt lat="43.686386" lon="-7.558568">
        <ele>143.409</ele>
        <time>2019-06-19T18:25:56Z</time>
      </trkpt>
      <trkpt lat="43.686377" lon="-7.558823">
        <ele>142.508</ele>
        <time>2019-06-19T18:25:57Z</time>
      </trkpt>
      <trkpt lat="43.686312" lon="-7.559094">
        <ele>141.447</ele>
        <time>2019-06-19T18:25:58Z</time>
      </trkpt>
      <trkpt lat="43.686239" lon="-7.559358">
        <ele>140.281</ele>
        <time>2019-06-19T18:25:59Z</time>
      </trkpt>
      <trkpt lat="43.686178" lon="-7.559609">
        <ele>138.342</ele>
        <time>2019-06-19T18:26:00Z</time>
      </trkpt>
      <trkpt lat="43.686116" lon="-7.559856">
        <ele>135.585</ele>
        <time>2019-06-19T18:26:01Z</time>
      </trkpt>
      <trkpt lat="43.686009" lon="-7.560073">
        <ele>133.665</ele>
        <time>2019-06-19T18:26:02Z</time>
      </trkpt>
      <trkpt lat="43.685891" lon="-7.560328">
        <ele>132.251</ele>
        <time>2019-06-19T18:26:03Z</time>
      </trkpt>
      <trkpt lat="43.685784" lon="-7.560573">
        <ele>131.639</ele>
        <time>2019-06-19T18:26:04Z</time>
      </trkpt>
      <trkpt lat="43.685653" lon="-7.560813">
        <ele>129.959</ele>
        <time>2019-06-19T18:26:05Z</time>
      </trkpt>
      <trkpt lat="43.685526" lon="-7.561058">
        <ele>125.545</ele>
        <time>2019-06-19T18:26:06Z</time>
      </trkpt>
      <trkpt lat="43.685361" lon="-7.561299">
        <ele>123.247</ele>
        <time>2019-06-19T18:26:07Z</time>
      </trkpt>
      <trkpt lat="43.685217" lon="-7.561531">
        <ele>123.911</ele>
        <time>2019-06-19T18:26:08Z</time>
      </trkpt>
      <trkpt lat="43.685087" lon="-7.561755">
        <ele>126.608</ele>
        <time>2019-06-19T18:26:09Z</time>
      </trkpt>
      <trkpt lat="43.684986" lon="-7.561946">
        <ele>130.597</ele>
        <time>2019-06-19T18:26:10Z</time>
      </trkpt>
      <trkpt lat="43.684905" lon="-7.562137">
        <ele>134.121</ele>
        <time>2019-06-19T18:26:11Z</time>
      </trkpt>
      <trkpt lat="43.684817" lon="-7.562357">
        <ele>135.512</ele>
        <time>2019-06-19T18:26:12Z</time>
      </trkpt>
      <trkpt lat="43.684750" lon="-7.562573">
        <ele>136.025</ele>
        <time>2019-06-19T18:26:13Z</time>
      </trkpt>
      <trkpt lat="43.684719" lon="-7.562776">
        <ele>136.245</ele>
        <time>2019-06-19T18:26:14Z</time>
      </trkpt>
      <trkpt lat="43.684711" lon="-7.562980">
        <ele>136.621</ele>
        <time>2019-06-19T18:26:15Z</time>
      </trkpt>
      <trkpt lat="43.684723" lon="-7.563197">
        <ele>136.549</ele>
        <time>2019-06-19T18:26:16Z</time>
      </trkpt>
      <trkpt lat="43.684759" lon="-7.563421">
        <ele>136.289</ele>
        <time>2019-06-19T18:26:17Z</time>
      </trkpt>
      <trkpt lat="43.684802" lon="-7.563637">
        <ele>135.887</ele>
        <time>2019-06-19T18:26:18Z</time>
      </trkpt>
      <trkpt lat="43.684851" lon="-7.563842">
        <ele>136.442</ele>
        <time>2019-06-19T18:26:19Z</time>
      </trkpt>
      <trkpt lat="43.684901" lon="-7.564034">
        <ele>135.226</ele>
        <time>2019-06-19T18:26:20Z</time>
      </trkpt>
      <trkpt lat="43.684937" lon="-7.564227">
        <ele>133.808</ele>
        <time>2019-06-19T18:26:21Z</time>
      </trkpt>
      <trkpt lat="43.684961" lon="-7.564427">
        <ele>132.641</ele>
        <time>2019-06-19T18:26:22Z</time>
      </trkpt>
      <trkpt lat="43.684953" lon="-7.564634">
        <ele>131.695</ele>
        <time>2019-06-19T18:26:23Z</time>
      </trkpt>
      <trkpt lat="43.684939" lon="-7.564860">
        <ele>130.396</ele>
        <time>2019-06-19T18:26:24Z</time>
      </trkpt>
      <trkpt lat="43.684916" lon="-7.565096">
        <ele>128.929</ele>
        <time>2019-06-19T18:26:25Z</time>
      </trkpt>
      <trkpt lat="43.684885" lon="-7.565324">
        <ele>127.749</ele>
        <time>2019-06-19T18:26:26Z</time>
      </trkpt>
      <trkpt lat="43.684846" lon="-7.565541">
        <ele>126.455</ele>
        <time>2019-06-19T18:26:27Z</time>
      </trkpt>
      <trkpt lat="43.684816" lon="-7.565756">
        <ele>125.093</ele>
        <time>2019-06-19T18:26:28Z</time>
      </trkpt>
      <trkpt lat="43.684793" lon="-7.565976">
        <ele>122.963</ele>
        <time>2019-06-19T18:26:29Z</time>
      </trkpt>
      <trkpt lat="43.684785" lon="-7.566203">
        <ele>120.594</ele>
        <time>2019-06-19T18:26:30Z</time>
      </trkpt>
      <trkpt lat="43.684782" lon="-7.566459">
        <ele>118.557</ele>
        <time>2019-06-19T18:26:31Z</time>
      </trkpt>
      <trkpt lat="43.684803" lon="-7.566718">
        <ele>116.422</ele>
        <time>2019-06-19T18:26:32Z</time>
      </trkpt>
      <trkpt lat="43.684834" lon="-7.566983">
        <ele>116.608</ele>
        <time>2019-06-19T18:26:33Z</time>
      </trkpt>
      <trkpt lat="43.684885" lon="-7.567243">
        <ele>117.162</ele>
        <time>2019-06-19T18:26:34Z</time>
      </trkpt>
      <trkpt lat="43.684952" lon="-7.567490">
        <ele>114.916</ele>
        <time>2019-06-19T18:26:35Z</time>
      </trkpt>
      <trkpt lat="43.685018" lon="-7.567716">
        <ele>114.867</ele>
        <time>2019-06-19T18:26:36Z</time>
      </trkpt>
      <trkpt lat="43.685090" lon="-7.567967">
        <ele>115.040</ele>
        <time>2019-06-19T18:26:37Z</time>
      </trkpt>
      <trkpt lat="43.685167" lon="-7.568204">
        <ele>115.520</ele>
        <time>2019-06-19T18:26:38Z</time>
      </trkpt>
      <trkpt lat="43.685229" lon="-7.568459">
        <ele>113.926</ele>
        <time>2019-06-19T18:26:39Z</time>
      </trkpt>
      <trkpt lat="43.685281" lon="-7.568719">
        <ele>110.594</ele>
        <time>2019-06-19T18:26:40Z</time>
      </trkpt>
      <trkpt lat="43.685319" lon="-7.568978">
        <ele>108.624</ele>
        <time>2019-06-19T18:26:41Z</time>
      </trkpt>
      <trkpt lat="43.685356" lon="-7.569233">
        <ele>108.312</ele>
        <time>2019-06-19T18:26:42Z</time>
      </trkpt>
      <trkpt lat="43.685366" lon="-7.569481">
        <ele>110.232</ele>
        <time>2019-06-19T18:26:43Z</time>
      </trkpt>
      <trkpt lat="43.685391" lon="-7.569730">
        <ele>111.105</ele>
        <time>2019-06-19T18:26:44Z</time>
      </trkpt>
      <trkpt lat="43.685417" lon="-7.569953">
        <ele>110.308</ele>
        <time>2019-06-19T18:26:45Z</time>
      </trkpt>
      <trkpt lat="43.685443" lon="-7.570171">
        <ele>108.774</ele>
        <time>2019-06-19T18:26:46Z</time>
      </trkpt>
      <trkpt lat="43.685476" lon="-7.570384">
        <ele>106.948</ele>
        <time>2019-06-19T18:26:47Z</time>
      </trkpt>
      <trkpt lat="43.685498" lon="-7.570569">
        <ele>105.819</ele>
        <time>2019-06-19T18:26:48Z</time>
      </trkpt>
      <trkpt lat="43.685494" lon="-7.570779">
        <ele>105.482</ele>
        <time>2019-06-19T18:26:49Z</time>
      </trkpt>
      <trkpt lat="43.685482" lon="-7.570981">
        <ele>105.552</ele>
        <time>2019-06-19T18:26:50Z</time>
      </trkpt>
      <trkpt lat="43.685437" lon="-7.571178">
        <ele>106.348</ele>
        <time>2019-06-19T18:26:51Z</time>
      </trkpt>
      <trkpt lat="43.685378" lon="-7.571381">
        <ele>106.236</ele>
        <time>2019-06-19T18:26:52Z</time>
      </trkpt>
      <trkpt lat="43.685301" lon="-7.571565">
        <ele>105.936</ele>
        <time>2019-06-19T18:26:53Z</time>
      </trkpt>
      <trkpt lat="43.685210" lon="-7.571747">
        <ele>104.166</ele>
        <time>2019-06-19T18:26:54Z</time>
      </trkpt>
      <trkpt lat="43.685110" lon="-7.571920">
        <ele>101.929</ele>
        <time>2019-06-19T18:26:55Z</time>
      </trkpt>
      <trkpt lat="43.685019" lon="-7.572077">
        <ele>100.421</ele>
        <time>2019-06-19T18:26:56Z</time>
      </trkpt>
      <trkpt lat="43.684933" lon="-7.572219">
        <ele>98.108</ele>
        <time>2019-06-19T18:26:57Z</time>
      </trkpt>
      <trkpt lat="43.684853" lon="-7.572341">
        <ele>95.499</ele>
        <time>2019-06-19T18:26:58Z</time>
      </trkpt>
      <trkpt lat="43.684792" lon="-7.572432">
        <ele>93.583</ele>
        <time>2019-06-19T18:26:59Z</time>
      </trkpt>
      <trkpt lat="43.684750" lon="-7.572543">
        <ele>91.074</ele>
        <time>2019-06-19T18:27:00Z</time>
      </trkpt>
      <trkpt lat="43.684729" lon="-7.572649">
        <ele>88.857</ele>
        <time>2019-06-19T18:27:01Z</time>
      </trkpt>
      <trkpt lat="43.684724" lon="-7.572751">
        <ele>86.617</ele>
        <time>2019-06-19T18:27:02Z</time>
      </trkpt>
      <trkpt lat="43.684742" lon="-7.572828">
        <ele>85.443</ele>
        <time>2019-06-19T18:27:03Z</time>
      </trkpt>
      <trkpt lat="43.684777" lon="-7.572886">
        <ele>84.521</ele>
        <time>2019-06-19T18:27:04Z</time>
      </trkpt>
      <trkpt lat="43.684818" lon="-7.572925">
        <ele>83.561</ele>
        <time>2019-06-19T18:27:05Z</time>
      </trkpt>
      <trkpt lat="43.684916" lon="-7.572910">
        <ele>82.398</ele>
        <time>2019-06-19T18:27:07Z</time>
      </trkpt>
      <trkpt lat="43.684975" lon="-7.572891">
        <ele>81.915</ele>
        <time>2019-06-19T18:27:08Z</time>
      </trkpt>
      <trkpt lat="43.685045" lon="-7.572882">
        <ele>81.926</ele>
        <time>2019-06-19T18:27:09Z</time>
      </trkpt>
      <trkpt lat="43.685121" lon="-7.572879">
        <ele>82.108</ele>
        <time>2019-06-19T18:27:10Z</time>
      </trkpt>
      <trkpt lat="43.685193" lon="-7.572897">
        <ele>82.062</ele>
        <time>2019-06-19T18:27:11Z</time>
      </trkpt>
      <trkpt lat="43.685275" lon="-7.572926">
        <ele>81.986</ele>
        <time>2019-06-19T18:27:12Z</time>
      </trkpt>
      <trkpt lat="43.685336" lon="-7.572990">
        <ele>81.287</ele>
        <time>2019-06-19T18:27:13Z</time>
      </trkpt>
      <trkpt lat="43.685369" lon="-7.573073">
        <ele>80.220</ele>
        <time>2019-06-19T18:27:14Z</time>
      </trkpt>
      <trkpt lat="43.685405" lon="-7.573159">
        <ele>79.770</ele>
        <time>2019-06-19T18:27:15Z</time>
      </trkpt>
      <trkpt lat="43.685423" lon="-7.573260">
        <ele>79.176</ele>
        <time>2019-06-19T18:27:16Z</time>
      </trkpt>
      <trkpt lat="43.685423" lon="-7.573371">
        <ele>78.364</ele>
        <time>2019-06-19T18:27:17Z</time>
      </trkpt>
      <trkpt lat="43.685402" lon="-7.573482">
        <ele>77.664</ele>
        <time>2019-06-19T18:27:18Z</time>
      </trkpt>
      <trkpt lat="43.685360" lon="-7.573577">
        <ele>76.857</ele>
        <time>2019-06-19T18:27:19Z</time>
      </trkpt>
      <trkpt lat="43.685298" lon="-7.573663">
        <ele>75.400</ele>
        <time>2019-06-19T18:27:20Z</time>
      </trkpt>
      <trkpt lat="43.685231" lon="-7.573712">
        <ele>74.420</ele>
        <time>2019-06-19T18:27:21Z</time>
      </trkpt>
      <trkpt lat="43.685160" lon="-7.573740">
        <ele>73.708</ele>
        <time>2019-06-19T18:27:22Z</time>
      </trkpt>
      <trkpt lat="43.685075" lon="-7.573759">
        <ele>73.128</ele>
        <time>2019-06-19T18:27:23Z</time>
      </trkpt>
      <trkpt lat="43.684998" lon="-7.573742">
        <ele>73.292</ele>
        <time>2019-06-19T18:27:24Z</time>
      </trkpt>
      <trkpt lat="43.684916" lon="-7.573725">
        <ele>75.133</ele>
        <time>2019-06-19T18:27:25Z</time>
      </trkpt>
      <trkpt lat="43.684841" lon="-7.573727">
        <ele>76.666</ele>
        <time>2019-06-19T18:27:26Z</time>
      </trkpt>
      <trkpt lat="43.684773" lon="-7.573762">
        <ele>77.986</ele>
        <time>2019-06-19T18:27:27Z</time>
      </trkpt>
      <trkpt lat="43.684720" lon="-7.573829">
        <ele>79.172</ele>
        <time>2019-06-19T18:27:28Z</time>
      </trkpt>
      <trkpt lat="43.684690" lon="-7.573927">
        <ele>80.760</ele>
        <time>2019-06-19T18:27:29Z</time>
      </trkpt>
      <trkpt lat="43.684657" lon="-7.574070">
        <ele>82.930</ele>
        <time>2019-06-19T18:27:30Z</time>
      </trkpt>
      <trkpt lat="43.684647" lon="-7.574225">
        <ele>83.978</ele>
        <time>2019-06-19T18:27:31Z</time>
      </trkpt>
      <trkpt lat="43.684660" lon="-7.574395">
        <ele>83.233</ele>
        <time>2019-06-19T18:27:32Z</time>
      </trkpt>
      <trkpt lat="43.684696" lon="-7.574598">
        <ele>80.726</ele>
        <time>2019-06-19T18:27:33Z</time>
      </trkpt>
      <trkpt lat="43.684749" lon="-7.574769">
        <ele>77.708</ele>
        <time>2019-06-19T18:27:34Z</time>
      </trkpt>
      <trkpt lat="43.684819" lon="-7.574986">
        <ele>74.570</ele>
        <time>2019-06-19T18:27:35Z</time>
      </trkpt>
      <trkpt lat="43.684889" lon="-7.575218">
        <ele>71.124</ele>
        <time>2019-06-19T18:27:36Z</time>
      </trkpt>
      <trkpt lat="43.684945" lon="-7.575471">
        <ele>68.335</ele>
        <time>2019-06-19T18:27:37Z</time>
      </trkpt>
      <trkpt lat="43.685002" lon="-7.575711">
        <ele>65.828</ele>
        <time>2019-06-19T18:27:38Z</time>
      </trkpt>
      <trkpt lat="43.685056" lon="-7.575964">
        <ele>63.398</ele>
        <time>2019-06-19T18:27:39Z</time>
      </trkpt>
      <trkpt lat="43.685114" lon="-7.576234">
        <ele>61.844</ele>
        <time>2019-06-19T18:27:40Z</time>
      </trkpt>
      <trkpt lat="43.685161" lon="-7.576491">
        <ele>61.182</ele>
        <time>2019-06-19T18:27:41Z</time>
      </trkpt>
      <trkpt lat="43.685218" lon="-7.576758">
        <ele>60.732</ele>
        <time>2019-06-19T18:27:42Z</time>
      </trkpt>
      <trkpt lat="43.685264" lon="-7.576985">
        <ele>61.686</ele>
        <time>2019-06-19T18:27:43Z</time>
      </trkpt>
      <trkpt lat="43.685305" lon="-7.577203">
        <ele>64.860</ele>
        <time>2019-06-19T18:27:44Z</time>
      </trkpt>
      <trkpt lat="43.685344" lon="-7.577419">
        <ele>69.226</ele>
        <time>2019-06-19T18:27:45Z</time>
      </trkpt>
      <trkpt lat="43.685367" lon="-7.577634">
        <ele>72.108</ele>
        <time>2019-06-19T18:27:46Z</time>
      </trkpt>
      <trkpt lat="43.685384" lon="-7.577845">
        <ele>74.021</ele>
        <time>2019-06-19T18:27:47Z</time>
      </trkpt>
      <trkpt lat="43.685385" lon="-7.578067">
        <ele>75.115</ele>
        <time>2019-06-19T18:27:48Z</time>
      </trkpt>
      <trkpt lat="43.685347" lon="-7.578287">
        <ele>73.436</ele>
        <time>2019-06-19T18:27:49Z</time>
      </trkpt>
      <trkpt lat="43.685297" lon="-7.578514">
        <ele>70.389</ele>
        <time>2019-06-19T18:27:50Z</time>
      </trkpt>
      <trkpt lat="43.685231" lon="-7.578737">
        <ele>65.749</ele>
        <time>2019-06-19T18:27:51Z</time>
      </trkpt>
      <trkpt lat="43.685157" lon="-7.578957">
        <ele>60.725</ele>
        <time>2019-06-19T18:27:52Z</time>
      </trkpt>
      <trkpt lat="43.685088" lon="-7.579179">
        <ele>57.763</ele>
        <time>2019-06-19T18:27:53Z</time>
      </trkpt>
      <trkpt lat="43.685032" lon="-7.579400">
        <ele>57.823</ele>
        <time>2019-06-19T18:27:54Z</time>
      </trkpt>
      <trkpt lat="43.684979" lon="-7.579623">
        <ele>57.518</ele>
        <time>2019-06-19T18:27:55Z</time>
      </trkpt>
      <trkpt lat="43.684954" lon="-7.579855">
        <ele>56.598</ele>
        <time>2019-06-19T18:27:56Z</time>
      </trkpt>
      <trkpt lat="43.684943" lon="-7.580094">
        <ele>55.417</ele>
        <time>2019-06-19T18:27:57Z</time>
      </trkpt>
      <trkpt lat="43.684948" lon="-7.580341">
        <ele>55.408</ele>
        <time>2019-06-19T18:27:58Z</time>
      </trkpt>
      <trkpt lat="43.684968" lon="-7.580603">
        <ele>57.274</ele>
        <time>2019-06-19T18:27:59Z</time>
      </trkpt>
      <trkpt lat="43.685005" lon="-7.580868">
        <ele>58.248</ele>
        <time>2019-06-19T18:28:00Z</time>
      </trkpt>
      <trkpt lat="43.685047" lon="-7.581141">
        <ele>58.379</ele>
        <time>2019-06-19T18:28:01Z</time>
      </trkpt>
      <trkpt lat="43.685096" lon="-7.581404">
        <ele>53.852</ele>
        <time>2019-06-19T18:28:02Z</time>
      </trkpt>
      <trkpt lat="43.685145" lon="-7.581663">
        <ele>50.762</ele>
        <time>2019-06-19T18:28:03Z</time>
      </trkpt>
      <trkpt lat="43.685200" lon="-7.581921">
        <ele>48.148</ele>
        <time>2019-06-19T18:28:04Z</time>
      </trkpt>
      <trkpt lat="43.685249" lon="-7.582196">
        <ele>47.726</ele>
        <time>2019-06-19T18:28:05Z</time>
      </trkpt>
      <trkpt lat="43.685299" lon="-7.582472">
        <ele>47.636</ele>
        <time>2019-06-19T18:28:06Z</time>
      </trkpt>
      <trkpt lat="43.685344" lon="-7.582748">
        <ele>50.051</ele>
        <time>2019-06-19T18:28:07Z</time>
      </trkpt>
      <trkpt lat="43.685373" lon="-7.583035">
        <ele>54.501</ele>
        <time>2019-06-19T18:28:08Z</time>
      </trkpt>
      <trkpt lat="43.685391" lon="-7.583328">
        <ele>62.411</ele>
        <time>2019-06-19T18:28:09Z</time>
      </trkpt>
      <trkpt lat="43.685407" lon="-7.583622">
        <ele>65.708</ele>
        <time>2019-06-19T18:28:10Z</time>
      </trkpt>
      <trkpt lat="43.685415" lon="-7.583917">
        <ele>63.388</ele>
        <time>2019-06-19T18:28:11Z</time>
      </trkpt>
      <trkpt lat="43.685421" lon="-7.584200">
        <ele>60.442</ele>
        <time>2019-06-19T18:28:12Z</time>
      </trkpt>
      <trkpt lat="43.685426" lon="-7.584468">
        <ele>56.223</ele>
        <time>2019-06-19T18:28:13Z</time>
      </trkpt>
      <trkpt lat="43.685439" lon="-7.584704">
        <ele>53.896</ele>
        <time>2019-06-19T18:28:14Z</time>
      </trkpt>
      <trkpt lat="43.685437" lon="-7.584930">
        <ele>54.296</ele>
        <time>2019-06-19T18:28:15Z</time>
      </trkpt>
      <trkpt lat="43.685429" lon="-7.585158">
        <ele>55.812</ele>
        <time>2019-06-19T18:28:16Z</time>
      </trkpt>
      <trkpt lat="43.685384" lon="-7.585371">
        <ele>58.370</ele>
        <time>2019-06-19T18:28:17Z</time>
      </trkpt>
      <trkpt lat="43.685327" lon="-7.585581">
        <ele>60.080</ele>
        <time>2019-06-19T18:28:18Z</time>
      </trkpt>
      <trkpt lat="43.685258" lon="-7.585785">
        <ele>60.755</ele>
        <time>2019-06-19T18:28:19Z</time>
      </trkpt>
      <trkpt lat="43.685143" lon="-7.585971">
        <ele>61.207</ele>
        <time>2019-06-19T18:28:20Z</time>
      </trkpt>
      <trkpt lat="43.685012" lon="-7.586140">
        <ele>62.217</ele>
        <time>2019-06-19T18:28:21Z</time>
      </trkpt>
      <trkpt lat="43.684863" lon="-7.586285">
        <ele>67.308</ele>
        <time>2019-06-19T18:28:22Z</time>
      </trkpt>
      <trkpt lat="43.684717" lon="-7.586427">
        <ele>71.218</ele>
        <time>2019-06-19T18:28:23Z</time>
      </trkpt>
      <trkpt lat="43.684584" lon="-7.586566">
        <ele>72.272</ele>
        <time>2019-06-19T18:28:24Z</time>
      </trkpt>
      <trkpt lat="43.684460" lon="-7.586723">
        <ele>72.443</ele>
        <time>2019-06-19T18:28:25Z</time>
      </trkpt>
      <trkpt lat="43.684349" lon="-7.586904">
        <ele>74.566</ele>
        <time>2019-06-19T18:28:26Z</time>
      </trkpt>
      <trkpt lat="43.684253" lon="-7.587102">
        <ele>74.586</ele>
        <time>2019-06-19T18:28:27Z</time>
      </trkpt>
      <trkpt lat="43.684168" lon="-7.587330">
        <ele>73.272</ele>
        <time>2019-06-19T18:28:28Z</time>
      </trkpt>
      <trkpt lat="43.684104" lon="-7.587565">
        <ele>70.190</ele>
        <time>2019-06-19T18:28:29Z</time>
      </trkpt>
      <trkpt lat="43.684059" lon="-7.587810">
        <ele>68.220</ele>
        <time>2019-06-19T18:28:30Z</time>
      </trkpt>
      <trkpt lat="43.684014" lon="-7.588033">
        <ele>67.744</ele>
        <time>2019-06-19T18:28:31Z</time>
      </trkpt>
      <trkpt lat="43.683959" lon="-7.588252">
        <ele>67.505</ele>
        <time>2019-06-19T18:28:32Z</time>
      </trkpt>
      <trkpt lat="43.683881" lon="-7.588462">
        <ele>67.715</ele>
        <time>2019-06-19T18:28:33Z</time>
      </trkpt>
      <trkpt lat="43.683796" lon="-7.588664">
        <ele>65.608</ele>
        <time>2019-06-19T18:28:34Z</time>
      </trkpt>
      <trkpt lat="43.683698" lon="-7.588863">
        <ele>63.787</ele>
        <time>2019-06-19T18:28:35Z</time>
      </trkpt>
      <trkpt lat="43.683598" lon="-7.589052">
        <ele>61.911</ele>
        <time>2019-06-19T18:28:36Z</time>
      </trkpt>
      <trkpt lat="43.683499" lon="-7.589231">
        <ele>61.772</ele>
        <time>2019-06-19T18:28:37Z</time>
      </trkpt>
      <trkpt lat="43.683404" lon="-7.589408">
        <ele>62.275</ele>
        <time>2019-06-19T18:28:38Z</time>
      </trkpt>
      <trkpt lat="43.683312" lon="-7.589577">
        <ele>62.435</ele>
        <time>2019-06-19T18:28:39Z</time>
      </trkpt>
      <trkpt lat="43.683221" lon="-7.589737">
        <ele>62.991</ele>
        <time>2019-06-19T18:28:40Z</time>
      </trkpt>
      <trkpt lat="43.683127" lon="-7.589883">
        <ele>62.849</ele>
        <time>2019-06-19T18:28:41Z</time>
      </trkpt>
      <trkpt lat="43.683029" lon="-7.590021">
        <ele>62.299</ele>
        <time>2019-06-19T18:28:42Z</time>
      </trkpt>
      <trkpt lat="43.682912" lon="-7.590140">
        <ele>62.855</ele>
        <time>2019-06-19T18:28:43Z</time>
      </trkpt>
      <trkpt lat="43.682778" lon="-7.590244">
        <ele>63.407</ele>
        <time>2019-06-19T18:28:44Z</time>
      </trkpt>
      <trkpt lat="43.682624" lon="-7.590329">
        <ele>64.417</ele>
        <time>2019-06-19T18:28:45Z</time>
      </trkpt>
      <trkpt lat="43.682476" lon="-7.590377">
        <ele>65.108</ele>
        <time>2019-06-19T18:28:46Z</time>
      </trkpt>
      <trkpt lat="43.682328" lon="-7.590416">
        <ele>64.148</ele>
        <time>2019-06-19T18:28:47Z</time>
      </trkpt>
      <trkpt lat="43.682188" lon="-7.590415">
        <ele>63.262</ele>
        <time>2019-06-19T18:28:48Z</time>
      </trkpt>
      <trkpt lat="43.682054" lon="-7.590412">
        <ele>62.033</ele>
        <time>2019-06-19T18:28:49Z</time>
      </trkpt>
      <trkpt lat="43.681926" lon="-7.590374">
        <ele>61.146</ele>
        <time>2019-06-19T18:28:50Z</time>
      </trkpt>
      <trkpt lat="43.681814" lon="-7.590301">
        <ele>60.416</ele>
        <time>2019-06-19T18:28:51Z</time>
      </trkpt>
      <trkpt lat="43.681713" lon="-7.590197">
        <ele>59.762</ele>
        <time>2019-06-19T18:28:52Z</time>
      </trkpt>
      <trkpt lat="43.681616" lon="-7.590059">
        <ele>59.060</ele>
        <time>2019-06-19T18:28:53Z</time>
      </trkpt>
      <trkpt lat="43.681523" lon="-7.589905">
        <ele>57.990</ele>
        <time>2019-06-19T18:28:54Z</time>
      </trkpt>
      <trkpt lat="43.681426" lon="-7.589733">
        <ele>57.279</ele>
        <time>2019-06-19T18:28:55Z</time>
      </trkpt>
      <trkpt lat="43.681330" lon="-7.589563">
        <ele>56.005</ele>
        <time>2019-06-19T18:28:56Z</time>
      </trkpt>
      <trkpt lat="43.681241" lon="-7.589394">
        <ele>55.025</ele>
        <time>2019-06-19T18:28:57Z</time>
      </trkpt>
      <trkpt lat="43.681153" lon="-7.589227">
        <ele>54.308</ele>
        <time>2019-06-19T18:28:58Z</time>
      </trkpt>
      <trkpt lat="43.681062" lon="-7.589082">
        <ele>53.790</ele>
        <time>2019-06-19T18:28:59Z</time>
      </trkpt>
      <trkpt lat="43.680955" lon="-7.588950">
        <ele>53.354</ele>
        <time>2019-06-19T18:29:00Z</time>
      </trkpt>
      <trkpt lat="43.680837" lon="-7.588835">
        <ele>53.215</ele>
        <time>2019-06-19T18:29:01Z</time>
      </trkpt>
      <trkpt lat="43.680705" lon="-7.588742">
        <ele>52.258</ele>
        <time>2019-06-19T18:29:02Z</time>
      </trkpt>
      <trkpt lat="43.680564" lon="-7.588673">
        <ele>51.488</ele>
        <time>2019-06-19T18:29:03Z</time>
      </trkpt>
      <trkpt lat="43.680416" lon="-7.588610">
        <ele>50.594</ele>
        <time>2019-06-19T18:29:04Z</time>
      </trkpt>
      <trkpt lat="43.680259" lon="-7.588545">
        <ele>49.682</ele>
        <time>2019-06-19T18:29:05Z</time>
      </trkpt>
      <trkpt lat="43.680104" lon="-7.588481">
        <ele>47.842</ele>
        <time>2019-06-19T18:29:06Z</time>
      </trkpt>
      <trkpt lat="43.679956" lon="-7.588396">
        <ele>46.139</ele>
        <time>2019-06-19T18:29:07Z</time>
      </trkpt>
      <trkpt lat="43.679816" lon="-7.588293">
        <ele>45.401</ele>
        <time>2019-06-19T18:29:08Z</time>
      </trkpt>
      <trkpt lat="43.679675" lon="-7.588174">
        <ele>44.721</ele>
        <time>2019-06-19T18:29:09Z</time>
      </trkpt>
      <trkpt lat="43.679538" lon="-7.588033">
        <ele>44.208</ele>
        <time>2019-06-19T18:29:10Z</time>
      </trkpt>
      <trkpt lat="43.679397" lon="-7.587875">
        <ele>43.666</ele>
        <time>2019-06-19T18:29:11Z</time>
      </trkpt>
      <trkpt lat="43.679251" lon="-7.587701">
        <ele>42.950</ele>
        <time>2019-06-19T18:29:12Z</time>
      </trkpt>
      <trkpt lat="43.679128" lon="-7.587524">
        <ele>42.551</ele>
        <time>2019-06-19T18:29:13Z</time>
      </trkpt>
      <trkpt lat="43.678996" lon="-7.587358">
        <ele>42.544</ele>
        <time>2019-06-19T18:29:14Z</time>
      </trkpt>
      <trkpt lat="43.678868" lon="-7.587194">
        <ele>41.884</ele>
        <time>2019-06-19T18:29:15Z</time>
      </trkpt>
      <trkpt lat="43.678741" lon="-7.587035">
        <ele>39.840</ele>
        <time>2019-06-19T18:29:16Z</time>
      </trkpt>
      <trkpt lat="43.678607" lon="-7.586878">
        <ele>37.298</ele>
        <time>2019-06-19T18:29:17Z</time>
      </trkpt>
      <trkpt lat="43.678473" lon="-7.586741">
        <ele>36.788</ele>
        <time>2019-06-19T18:29:18Z</time>
      </trkpt>
      <trkpt lat="43.678336" lon="-7.586610">
        <ele>36.233</ele>
        <time>2019-06-19T18:29:19Z</time>
      </trkpt>
      <trkpt lat="43.678188" lon="-7.586476">
        <ele>35.523</ele>
        <time>2019-06-19T18:29:20Z</time>
      </trkpt>
      <trkpt lat="43.678035" lon="-7.586355">
        <ele>34.715</ele>
        <time>2019-06-19T18:29:21Z</time>
      </trkpt>
      <trkpt lat="43.677894" lon="-7.586229">
        <ele>33.008</ele>
        <time>2019-06-19T18:29:22Z</time>
      </trkpt>
      <trkpt lat="43.677744" lon="-7.586108">
        <ele>31.546</ele>
        <time>2019-06-19T18:29:23Z</time>
      </trkpt>
      <trkpt lat="43.677613" lon="-7.585996">
        <ele>29.930</ele>
        <time>2019-06-19T18:29:24Z</time>
      </trkpt>
      <trkpt lat="43.677491" lon="-7.585894">
        <ele>29.571</ele>
        <time>2019-06-19T18:29:25Z</time>
      </trkpt>
      <trkpt lat="43.677375" lon="-7.585797">
        <ele>29.564</ele>
        <time>2019-06-19T18:29:26Z</time>
      </trkpt>
      <trkpt lat="43.677256" lon="-7.585704">
        <ele>29.114</ele>
        <time>2019-06-19T18:29:27Z</time>
      </trkpt>
      <trkpt lat="43.677137" lon="-7.585616">
        <ele>28.940</ele>
        <time>2019-06-19T18:29:28Z</time>
      </trkpt>
      <trkpt lat="43.677010" lon="-7.585522">
        <ele>29.128</ele>
        <time>2019-06-19T18:29:29Z</time>
      </trkpt>
      <trkpt lat="43.676894" lon="-7.585450">
        <ele>29.018</ele>
        <time>2019-06-19T18:29:30Z</time>
      </trkpt>
      <trkpt lat="43.676765" lon="-7.585349">
        <ele>28.549</ele>
        <time>2019-06-19T18:29:31Z</time>
      </trkpt>
      <trkpt lat="43.676636" lon="-7.585259">
        <ele>27.902</ele>
        <time>2019-06-19T18:29:32Z</time>
      </trkpt>
      <trkpt lat="43.676507" lon="-7.585187">
        <ele>27.422</ele>
        <time>2019-06-19T18:29:33Z</time>
      </trkpt>
      <trkpt lat="43.676377" lon="-7.585131">
        <ele>26.908</ele>
        <time>2019-06-19T18:29:34Z</time>
      </trkpt>
      <trkpt lat="43.676232" lon="-7.585102">
        <ele>25.687</ele>
        <time>2019-06-19T18:29:35Z</time>
      </trkpt>
      <trkpt lat="43.676084" lon="-7.585087">
        <ele>24.131</ele>
        <time>2019-06-19T18:29:36Z</time>
      </trkpt>
      <trkpt lat="43.675927" lon="-7.585083">
        <ele>22.642</ele>
        <time>2019-06-19T18:29:37Z</time>
      </trkpt>
      <trkpt lat="43.675754" lon="-7.585098">
        <ele>20.815</ele>
        <time>2019-06-19T18:29:38Z</time>
      </trkpt>
      <trkpt lat="43.675591" lon="-7.585116">
        <ele>19.095</ele>
        <time>2019-06-19T18:29:39Z</time>
      </trkpt>
      <trkpt lat="43.675448" lon="-7.585147">
        <ele>18.181</ele>
        <time>2019-06-19T18:29:40Z</time>
      </trkpt>
      <trkpt lat="43.675320" lon="-7.585197">
        <ele>17.469</ele>
        <time>2019-06-19T18:29:41Z</time>
      </trkpt>
      <trkpt lat="43.675195" lon="-7.585283">
        <ele>17.379</ele>
        <time>2019-06-19T18:29:42Z</time>
      </trkpt>
      <trkpt lat="43.675089" lon="-7.585391">
        <ele>17.494</ele>
        <time>2019-06-19T18:29:43Z</time>
      </trkpt>
      <trkpt lat="43.674991" lon="-7.585519">
        <ele>17.257</ele>
        <time>2019-06-19T18:29:44Z</time>
      </trkpt>
      <trkpt lat="43.674907" lon="-7.585668">
        <ele>17.922</ele>
        <time>2019-06-19T18:29:45Z</time>
      </trkpt>
      <trkpt lat="43.674842" lon="-7.585839">
        <ele>18.208</ele>
        <time>2019-06-19T18:29:46Z</time>
      </trkpt>
      <trkpt lat="43.674803" lon="-7.586022">
        <ele>19.412</ele>
        <time>2019-06-19T18:29:47Z</time>
      </trkpt>
      <trkpt lat="43.674792" lon="-7.586207">
        <ele>20.736</ele>
        <time>2019-06-19T18:29:48Z</time>
      </trkpt>
      <trkpt lat="43.674809" lon="-7.586407">
        <ele>21.577</ele>
        <time>2019-06-19T18:29:49Z</time>
      </trkpt>
      <trkpt lat="43.674836" lon="-7.586590">
        <ele>21.230</ele>
        <time>2019-06-19T18:29:50Z</time>
      </trkpt>
      <trkpt lat="43.674890" lon="-7.586800">
        <ele>19.950</ele>
        <time>2019-06-19T18:29:51Z</time>
      </trkpt>
      <trkpt lat="43.674953" lon="-7.587013">
        <ele>18.836</ele>
        <time>2019-06-19T18:29:52Z</time>
      </trkpt>
      <trkpt lat="43.675019" lon="-7.587206">
        <ele>19.354</ele>
        <time>2019-06-19T18:29:53Z</time>
      </trkpt>
      <trkpt lat="43.675082" lon="-7.587410">
        <ele>21.274</ele>
        <time>2019-06-19T18:29:54Z</time>
      </trkpt>
      <trkpt lat="43.675140" lon="-7.587626">
        <ele>22.081</ele>
        <time>2019-06-19T18:29:55Z</time>
      </trkpt>
      <trkpt lat="43.675189" lon="-7.587846">
        <ele>22.761</ele>
        <time>2019-06-19T18:29:56Z</time>
      </trkpt>
      <trkpt lat="43.675226" lon="-7.588070">
        <ele>23.717</ele>
        <time>2019-06-19T18:29:57Z</time>
      </trkpt>
      <trkpt lat="43.675239" lon="-7.588312">
        <ele>24.808</ele>
        <time>2019-06-19T18:29:58Z</time>
      </trkpt>
      <trkpt lat="43.675247" lon="-7.588569">
        <ele>26.281</ele>
        <time>2019-06-19T18:29:59Z</time>
      </trkpt>
      <trkpt lat="43.675246" lon="-7.588830">
        <ele>27.455</ele>
        <time>2019-06-19T18:30:00Z</time>
      </trkpt>
      <trkpt lat="43.675236" lon="-7.589099">
        <ele>26.836</ele>
        <time>2019-06-19T18:30:01Z</time>
      </trkpt>
      <trkpt lat="43.675223" lon="-7.589364">
        <ele>24.389</ele>
        <time>2019-06-19T18:30:02Z</time>
      </trkpt>
      <trkpt lat="43.675201" lon="-7.589629">
        <ele>20.479</ele>
        <time>2019-06-19T18:30:03Z</time>
      </trkpt>
      <trkpt lat="43.675180" lon="-7.589885">
        <ele>18.985</ele>
        <time>2019-06-19T18:30:04Z</time>
      </trkpt>
      <trkpt lat="43.675165" lon="-7.590134">
        <ele>19.323</ele>
        <time>2019-06-19T18:30:05Z</time>
      </trkpt>
      <trkpt lat="43.675147" lon="-7.590377">
        <ele>19.653</ele>
        <time>2019-06-19T18:30:06Z</time>
      </trkpt>
      <trkpt lat="43.675125" lon="-7.590614">
        <ele>18.918</ele>
        <time>2019-06-19T18:30:07Z</time>
      </trkpt>
      <trkpt lat="43.675110" lon="-7.590852">
        <ele>17.998</ele>
        <time>2019-06-19T18:30:08Z</time>
      </trkpt>
      <trkpt lat="43.675097" lon="-7.591095">
        <ele>17.217</ele>
        <time>2019-06-19T18:30:09Z</time>
      </trkpt>
      <trkpt lat="43.675084" lon="-7.591339">
        <ele>15.608</ele>
        <time>2019-06-19T18:30:10Z</time>
      </trkpt>
      <trkpt lat="43.675067" lon="-7.591561">
        <ele>13.694</ele>
        <time>2019-06-19T18:30:11Z</time>
      </trkpt>
      <trkpt lat="43.675048" lon="-7.591775">
        <ele>11.388</ele>
        <time>2019-06-19T18:30:12Z</time>
      </trkpt>
      <trkpt lat="43.675028" lon="-7.591984">
        <ele>8.579</ele>
        <time>2019-06-19T18:30:13Z</time>
      </trkpt>
      <trkpt lat="43.675006" lon="-7.592188">
        <ele>4.792</ele>
        <time>2019-06-19T18:30:14Z</time>
      </trkpt>
      <trkpt lat="43.674976" lon="-7.592399">
        <ele>4.032</ele>
        <time>2019-06-19T18:30:15Z</time>
      </trkpt>
      <trkpt lat="43.674940" lon="-7.592597">
        <ele>3.828</ele>
        <time>2019-06-19T18:30:16Z</time>
      </trkpt>
      <trkpt lat="43.674903" lon="-7.592791">
        <ele>4.186</ele>
        <time>2019-06-19T18:30:17Z</time>
      </trkpt>
      <trkpt lat="43.674808" lon="-7.592962">
        <ele>5.756</ele>
        <time>2019-06-19T18:30:18Z</time>
      </trkpt>
      <trkpt lat="43.674712" lon="-7.593134">
        <ele>7.661</ele>
        <time>2019-06-19T18:30:19Z</time>
      </trkpt>
      <trkpt lat="43.674613" lon="-7.593283">
        <ele>8.821</ele>
        <time>2019-06-19T18:30:20Z</time>
      </trkpt>
      <trkpt lat="43.674491" lon="-7.593398">
        <ele>8.813</ele>
        <time>2019-06-19T18:30:21Z</time>
      </trkpt>
      <trkpt lat="43.674352" lon="-7.593505">
        <ele>7.708</ele>
        <time>2019-06-19T18:30:22Z</time>
      </trkpt>
      <trkpt lat="43.674194" lon="-7.593589">
        <ele>6.329</ele>
        <time>2019-06-19T18:30:23Z</time>
      </trkpt>
      <trkpt lat="43.674025" lon="-7.593650">
        <ele>5.933</ele>
        <time>2019-06-19T18:30:24Z</time>
      </trkpt>
      <trkpt lat="43.673848" lon="-7.593702">
        <ele>6.294</ele>
        <time>2019-06-19T18:30:25Z</time>
      </trkpt>
      <trkpt lat="43.673663" lon="-7.593753">
        <ele>7.237</ele>
        <time>2019-06-19T18:30:26Z</time>
      </trkpt>
      <trkpt lat="43.673476" lon="-7.593808">
        <ele>7.057</ele>
        <time>2019-06-19T18:30:27Z</time>
      </trkpt>
      <trkpt lat="43.673285" lon="-7.593867">
        <ele>6.453</ele>
        <time>2019-06-19T18:30:28Z</time>
      </trkpt>
      <trkpt lat="43.673099" lon="-7.593917">
        <ele>9.491</ele>
        <time>2019-06-19T18:30:29Z</time>
      </trkpt>
      <trkpt lat="43.672908" lon="-7.593977">
        <ele>11.471</ele>
        <time>2019-06-19T18:30:30Z</time>
      </trkpt>
      <trkpt lat="43.672719" lon="-7.594031">
        <ele>11.876</ele>
        <time>2019-06-19T18:30:31Z</time>
      </trkpt>
      <trkpt lat="43.672535" lon="-7.594086">
        <ele>7.390</ele>
        <time>2019-06-19T18:30:32Z</time>
      </trkpt>
      <trkpt lat="43.672355" lon="-7.594143">
        <ele>7.219</ele>
        <time>2019-06-19T18:30:33Z</time>
      </trkpt>
      <trkpt lat="43.672175" lon="-7.594185">
        <ele>9.108</ele>
        <time>2019-06-19T18:30:34Z</time>
      </trkpt>
      <trkpt lat="43.671987" lon="-7.594213">
        <ele>10.330</ele>
        <time>2019-06-19T18:30:35Z</time>
      </trkpt>
      <trkpt lat="43.671797" lon="-7.594225">
        <ele>8.864</ele>
        <time>2019-06-19T18:30:36Z</time>
      </trkpt>
      <trkpt lat="43.671607" lon="-7.594221">
        <ele>8.785</ele>
        <time>2019-06-19T18:30:37Z</time>
      </trkpt>
      <trkpt lat="43.671416" lon="-7.594210">
        <ele>12.688</ele>
        <time>2019-06-19T18:30:38Z</time>
      </trkpt>
      <trkpt lat="43.671233" lon="-7.594197">
        <ele>13.378</ele>
        <time>2019-06-19T18:30:39Z</time>
      </trkpt>
      <trkpt lat="43.671058" lon="-7.594186">
        <ele>13.024</ele>
        <time>2019-06-19T18:30:40Z</time>
      </trkpt>
      <trkpt lat="43.670892" lon="-7.594170">
        <ele>11.652</ele>
        <time>2019-06-19T18:30:41Z</time>
      </trkpt>
      <trkpt lat="43.670730" lon="-7.594153">
        <ele>11.152</ele>
        <time>2019-06-19T18:30:42Z</time>
      </trkpt>
      <trkpt lat="43.670572" lon="-7.594142">
        <ele>10.935</ele>
        <time>2019-06-19T18:30:43Z</time>
      </trkpt>
      <trkpt lat="43.670423" lon="-7.594129">
        <ele>10.286</ele>
        <time>2019-06-19T18:30:44Z</time>
      </trkpt>
      <trkpt lat="43.670280" lon="-7.594106">
        <ele>9.614</ele>
        <time>2019-06-19T18:30:45Z</time>
      </trkpt>
      <trkpt lat="43.670144" lon="-7.594080">
        <ele>8.108</ele>
        <time>2019-06-19T18:30:46Z</time>
      </trkpt>
      <trkpt lat="43.670020" lon="-7.594045">
        <ele>6.916</ele>
        <time>2019-06-19T18:30:47Z</time>
      </trkpt>
      <trkpt lat="43.669903" lon="-7.594002">
        <ele>6.460</ele>
        <time>2019-06-19T18:30:48Z</time>
      </trkpt>
      <trkpt lat="43.669792" lon="-7.593959">
        <ele>5.991</ele>
        <time>2019-06-19T18:30:49Z</time>
      </trkpt>
      <trkpt lat="43.669684" lon="-7.593915">
        <ele>5.214</ele>
        <time>2019-06-19T18:30:50Z</time>
      </trkpt>
      <trkpt lat="43.669579" lon="-7.593871">
        <ele>5.064</ele>
        <time>2019-06-19T18:30:51Z</time>
      </trkpt>
      <trkpt lat="43.669474" lon="-7.593825">
        <ele>4.830</ele>
        <time>2019-06-19T18:30:52Z</time>
      </trkpt>
      <trkpt lat="43.669367" lon="-7.593778">
        <ele>5.638</ele>
        <time>2019-06-19T18:30:53Z</time>
      </trkpt>
      <trkpt lat="43.669262" lon="-7.593739">
        <ele>6.598</ele>
        <time>2019-06-19T18:30:54Z</time>
      </trkpt>
      <trkpt lat="43.669143" lon="-7.593704">
        <ele>6.938</ele>
        <time>2019-06-19T18:30:55Z</time>
      </trkpt>
      <trkpt lat="43.669037" lon="-7.593643">
        <ele>7.270</ele>
        <time>2019-06-19T18:30:56Z</time>
      </trkpt>
      <trkpt lat="43.668929" lon="-7.593596">
        <ele>7.417</ele>
        <time>2019-06-19T18:30:57Z</time>
      </trkpt>
      <trkpt lat="43.668829" lon="-7.593546">
        <ele>7.708</ele>
        <time>2019-06-19T18:30:58Z</time>
      </trkpt>
      <trkpt lat="43.668728" lon="-7.593497">
        <ele>7.896</ele>
        <time>2019-06-19T18:30:59Z</time>
      </trkpt>
      <trkpt lat="43.668626" lon="-7.593464">
        <ele>7.760</ele>
        <time>2019-06-19T18:31:00Z</time>
      </trkpt>
      <trkpt lat="43.668523" lon="-7.593448">
        <ele>8.321</ele>
        <time>2019-06-19T18:31:01Z</time>
      </trkpt>
      <trkpt lat="43.668419" lon="-7.593443">
        <ele>9.174</ele>
        <time>2019-06-19T18:31:02Z</time>
      </trkpt>
      <trkpt lat="43.668314" lon="-7.593452">
        <ele>9.654</ele>
        <time>2019-06-19T18:31:03Z</time>
      </trkpt>
      <trkpt lat="43.668224" lon="-7.593468">
        <ele>9.540</ele>
        <time>2019-06-19T18:31:04Z</time>
      </trkpt>
      <trkpt lat="43.668142" lon="-7.593473">
        <ele>9.588</ele>
        <time>2019-06-19T18:31:05Z</time>
      </trkpt>
      <trkpt lat="43.668062" lon="-7.593487">
        <ele>9.378</ele>
        <time>2019-06-19T18:31:06Z</time>
      </trkpt>
      <trkpt lat="43.667974" lon="-7.593499">
        <ele>8.265</ele>
        <time>2019-06-19T18:31:07Z</time>
      </trkpt>
      <trkpt lat="43.667896" lon="-7.593505">
        <ele>7.268</ele>
        <time>2019-06-19T18:31:08Z</time>
      </trkpt>
      <trkpt lat="43.667809" lon="-7.593539">
        <ele>5.914</ele>
        <time>2019-06-19T18:31:09Z</time>
      </trkpt>
      <trkpt lat="43.667735" lon="-7.593563">
        <ele>4.908</ele>
        <time>2019-06-19T18:31:10Z</time>
      </trkpt>
      <trkpt lat="43.667662" lon="-7.593588">
        <ele>3.959</ele>
        <time>2019-06-19T18:31:11Z</time>
      </trkpt>
      <trkpt lat="43.667596" lon="-7.593609">
        <ele>3.113</ele>
        <time>2019-06-19T18:31:12Z</time>
      </trkpt>
      <trkpt lat="43.667513" lon="-7.593632">
        <ele>2.174</ele>
        <time>2019-06-19T18:31:13Z</time>
      </trkpt>
      <trkpt lat="43.667429" lon="-7.593656">
        <ele>1.857</ele>
        <time>2019-06-19T18:31:14Z</time>
      </trkpt>
      <trkpt lat="43.667343" lon="-7.593694">
        <ele>1.727</ele>
        <time>2019-06-19T18:31:15Z</time>
      </trkpt>
      <trkpt lat="43.667260" lon="-7.593728">
        <ele>1.673</ele>
        <time>2019-06-19T18:31:16Z</time>
      </trkpt>
      <trkpt lat="43.667180" lon="-7.593759">
        <ele>1.551</ele>
        <time>2019-06-19T18:31:17Z</time>
      </trkpt>
      <trkpt lat="43.667102" lon="-7.593784">
        <ele>1.411</ele>
        <time>2019-06-19T18:31:18Z</time>
      </trkpt>
      <trkpt lat="43.667029" lon="-7.593808">
        <ele>1.348</ele>
        <time>2019-06-19T18:31:19Z</time>
      </trkpt>
      <trkpt lat="43.666958" lon="-7.593832">
        <ele>1.261</ele>
        <time>2019-06-19T18:31:20Z</time>
      </trkpt>
      <trkpt lat="43.666878" lon="-7.593856">
        <ele>1.317</ele>
        <time>2019-06-19T18:31:21Z</time>
      </trkpt>
      <trkpt lat="43.666796" lon="-7.593878">
        <ele>1.608</ele>
        <time>2019-06-19T18:31:22Z</time>
      </trkpt>
      <trkpt lat="43.666708" lon="-7.593900">
        <ele>1.967</ele>
        <time>2019-06-19T18:31:23Z</time>
      </trkpt>
      <trkpt lat="43.666614" lon="-7.593916">
        <ele>2.261</ele>
        <time>2019-06-19T18:31:24Z</time>
      </trkpt>
      <trkpt lat="43.666513" lon="-7.593939">
        <ele>2.592</ele>
        <time>2019-06-19T18:31:25Z</time>
      </trkpt>
      <trkpt lat="43.666422" lon="-7.593970">
        <ele>2.695</ele>
        <time>2019-06-19T18:31:26Z</time>
      </trkpt>
      <trkpt lat="43.666337" lon="-7.594001">
        <ele>2.325</ele>
        <time>2019-06-19T18:31:27Z</time>
      </trkpt>
      <trkpt lat="43.666257" lon="-7.594031">
        <ele>1.851</ele>
        <time>2019-06-19T18:31:28Z</time>
      </trkpt>
      <trkpt lat="43.666172" lon="-7.594056">
        <ele>1.119</ele>
        <time>2019-06-19T18:31:29Z</time>
      </trkpt>
      <trkpt lat="43.666080" lon="-7.594082">
        <ele>0.749</ele>
        <time>2019-06-19T18:31:30Z</time>
      </trkpt>
      <trkpt lat="43.665996" lon="-7.594105">
        <ele>0.882</ele>
        <time>2019-06-19T18:31:31Z</time>
      </trkpt>
      <trkpt lat="43.665911" lon="-7.594144">
        <ele>0.843</ele>
        <time>2019-06-19T18:31:32Z</time>
      </trkpt>
      <trkpt lat="43.665829" lon="-7.594174">
        <ele>1.017</ele>
        <time>2019-06-19T18:31:33Z</time>
      </trkpt>
      <trkpt lat="43.665742" lon="-7.594204">
        <ele>1.708</ele>
        <time>2019-06-19T18:31:34Z</time>
      </trkpt>
      <trkpt lat="43.665658" lon="-7.594232">
        <ele>2.691</ele>
        <time>2019-06-19T18:31:35Z</time>
      </trkpt>
      <trkpt lat="43.665569" lon="-7.594261">
        <ele>3.555</ele>
        <time>2019-06-19T18:31:36Z</time>
      </trkpt>
      <trkpt lat="43.665495" lon="-7.594282">
        <ele>4.446</ele>
        <time>2019-06-19T18:31:37Z</time>
      </trkpt>
      <trkpt lat="43.665421" lon="-7.594326">
        <ele>5.319</ele>
        <time>2019-06-19T18:31:38Z</time>
      </trkpt>
      <trkpt lat="43.665348" lon="-7.594348">
        <ele>6.179</ele>
        <time>2019-06-19T18:31:39Z</time>
      </trkpt>
      <trkpt lat="43.665269" lon="-7.594360">
        <ele>6.785</ele>
        <time>2019-06-19T18:31:40Z</time>
      </trkpt>
      <trkpt lat="43.665197" lon="-7.594378">
        <ele>6.523</ele>
        <time>2019-06-19T18:31:41Z</time>
      </trkpt>
      <trkpt lat="43.665125" lon="-7.594410">
        <ele>6.433</ele>
        <time>2019-06-19T18:31:42Z</time>
      </trkpt>
      <trkpt lat="43.665060" lon="-7.594431">
        <ele>6.281</ele>
        <time>2019-06-19T18:31:43Z</time>
      </trkpt>
      <trkpt lat="43.664992" lon="-7.594451">
        <ele>5.961</ele>
        <time>2019-06-19T18:31:44Z</time>
      </trkpt>
      <trkpt lat="43.664909" lon="-7.594475">
        <ele>5.417</ele>
        <time>2019-06-19T18:31:45Z</time>
      </trkpt>
      <trkpt lat="43.664812" lon="-7.594500">
        <ele>4.908</ele>
        <time>2019-06-19T18:31:46Z</time>
      </trkpt>
      <trkpt lat="43.664711" lon="-7.594532">
        <ele>4.831</ele>
        <time>2019-06-19T18:31:47Z</time>
      </trkpt>
      <trkpt lat="43.664615" lon="-7.594566">
        <ele>6.595</ele>
        <time>2019-06-19T18:31:48Z</time>
      </trkpt>
      <trkpt lat="43.664537" lon="-7.594596">
        <ele>7.756</ele>
        <time>2019-06-19T18:31:49Z</time>
      </trkpt>
      <trkpt lat="43.664489" lon="-7.594625">
        <ele>8.479</ele>
        <time>2019-06-19T18:31:50Z</time>
      </trkpt>
      <trkpt lat="43.664409" lon="-7.594658">
        <ele>9.319</ele>
        <time>2019-06-19T18:31:52Z</time>
      </trkpt>
      <trkpt lat="43.664360" lon="-7.594684">
        <ele>9.765</ele>
        <time>2019-06-19T18:31:53Z</time>
      </trkpt>
      <trkpt lat="43.664298" lon="-7.594715">
        <ele>10.123</ele>
        <time>2019-06-19T18:31:54Z</time>
      </trkpt>
      <trkpt lat="43.664229" lon="-7.594740">
        <ele>10.453</ele>
        <time>2019-06-19T18:31:55Z</time>
      </trkpt>
      <trkpt lat="43.664153" lon="-7.594767">
        <ele>10.341</ele>
        <time>2019-06-19T18:31:56Z</time>
      </trkpt>
      <trkpt lat="43.664078" lon="-7.594804">
        <ele>9.081</ele>
        <time>2019-06-19T18:31:57Z</time>
      </trkpt>
      <trkpt lat="43.664008" lon="-7.594858">
        <ele>7.809</ele>
        <time>2019-06-19T18:31:58Z</time>
      </trkpt>
      <trkpt lat="43.663950" lon="-7.594920">
        <ele>6.908</ele>
        <time>2019-06-19T18:31:59Z</time>
      </trkpt>
      <trkpt lat="43.663895" lon="-7.594984">
        <ele>6.117</ele>
        <time>2019-06-19T18:32:00Z</time>
      </trkpt>
      <trkpt lat="43.663841" lon="-7.595048">
        <ele>5.981</ele>
        <time>2019-06-19T18:32:01Z</time>
      </trkpt>
      <trkpt lat="43.663790" lon="-7.595107">
        <ele>5.892</ele>
        <time>2019-06-19T18:32:02Z</time>
      </trkpt>
      <trkpt lat="43.663747" lon="-7.595169">
        <ele>5.715</ele>
        <time>2019-06-19T18:32:03Z</time>
      </trkpt>
      <trkpt lat="43.663698" lon="-7.595245">
        <ele>5.795</ele>
        <time>2019-06-19T18:32:05Z</time>
      </trkpt>
      <trkpt lat="43.663655" lon="-7.595297">
        <ele>5.711</ele>
        <time>2019-06-19T18:32:07Z</time>
      </trkpt>
      <trkpt lat="43.663600" lon="-7.595377">
        <ele>5.469</ele>
        <time>2019-06-19T18:32:09Z</time>
      </trkpt>
      <trkpt lat="43.663547" lon="-7.595458">
        <ele>5.299</ele>
        <time>2019-06-19T18:32:11Z</time>
      </trkpt>
      <trkpt lat="43.663517" lon="-7.595506">
        <ele>5.033</ele>
        <time>2019-06-19T18:32:12Z</time>
      </trkpt>
      <trkpt lat="43.663477" lon="-7.595565">
        <ele>4.923</ele>
        <time>2019-06-19T18:32:13Z</time>
      </trkpt>
      <trkpt lat="43.663433" lon="-7.595622">
        <ele>4.715</ele>
        <time>2019-06-19T18:32:14Z</time>
      </trkpt>
      <trkpt lat="43.663386" lon="-7.595681">
        <ele>4.408</ele>
        <time>2019-06-19T18:32:15Z</time>
      </trkpt>
      <trkpt lat="43.663335" lon="-7.595736">
        <ele>4.076</ele>
        <time>2019-06-19T18:32:16Z</time>
      </trkpt>
      <trkpt lat="43.663274" lon="-7.595778">
        <ele>4.260</ele>
        <time>2019-06-19T18:32:17Z</time>
      </trkpt>
      <trkpt lat="43.663220" lon="-7.595800">
        <ele>4.681</ele>
        <time>2019-06-19T18:32:18Z</time>
      </trkpt>
      <trkpt lat="43.663164" lon="-7.595834">
        <ele>4.874</ele>
        <time>2019-06-19T18:32:19Z</time>
      </trkpt>
      <trkpt lat="43.663115" lon="-7.595869">
        <ele>5.114</ele>
        <time>2019-06-19T18:32:20Z</time>
      </trkpt>
      <trkpt lat="43.663073" lon="-7.595893">
        <ele>5.490</ele>
        <time>2019-06-19T18:32:21Z</time>
      </trkpt>
      <trkpt lat="43.662987" lon="-7.595941">
        <ele>5.678</ele>
        <time>2019-06-19T18:32:23Z</time>
      </trkpt>
      <trkpt lat="43.662898" lon="-7.595988">
        <ele>5.798</ele>
        <time>2019-06-19T18:32:25Z</time>
      </trkpt>
      <trkpt lat="43.662850" lon="-7.596017">
        <ele>5.742</ele>
        <time>2019-06-19T18:32:26Z</time>
      </trkpt>
      <trkpt lat="43.662795" lon="-7.596047">
        <ele>5.622</ele>
        <time>2019-06-19T18:32:27Z</time>
      </trkpt>
      <trkpt lat="43.662752" lon="-7.596071">
        <ele>5.514</ele>
        <time>2019-06-19T18:32:28Z</time>
      </trkpt>
      <trkpt lat="43.662708" lon="-7.596104">
        <ele>5.308</ele>
        <time>2019-06-19T18:32:29Z</time>
      </trkpt>
      <trkpt lat="43.662653" lon="-7.596141">
        <ele>5.327</ele>
        <time>2019-06-19T18:32:30Z</time>
      </trkpt>
      <trkpt lat="43.662595" lon="-7.596180">
        <ele>5.441</ele>
        <time>2019-06-19T18:32:31Z</time>
      </trkpt>
      <trkpt lat="43.662545" lon="-7.596233">
        <ele>5.482</ele>
        <time>2019-06-19T18:32:32Z</time>
      </trkpt>
      <trkpt lat="43.662508" lon="-7.596293">
        <ele>5.335</ele>
        <time>2019-06-19T18:32:33Z</time>
      </trkpt>
      <trkpt lat="43.662482" lon="-7.596372">
        <ele>5.255</ele>
        <time>2019-06-19T18:32:34Z</time>
      </trkpt>
      <trkpt lat="43.662472" lon="-7.596450">
        <ele>5.231</ele>
        <time>2019-06-19T18:32:35Z</time>
      </trkpt>
      <trkpt lat="43.662478" lon="-7.596539">
        <ele>5.299</ele>
        <time>2019-06-19T18:32:36Z</time>
      </trkpt>
      <trkpt lat="43.662499" lon="-7.596627">
        <ele>5.029</ele>
        <time>2019-06-19T18:32:37Z</time>
      </trkpt>
      <trkpt lat="43.662528" lon="-7.596715">
        <ele>4.948</ele>
        <time>2019-06-19T18:32:38Z</time>
      </trkpt>
      <trkpt lat="43.662566" lon="-7.596817">
        <ele>4.861</ele>
        <time>2019-06-19T18:32:39Z</time>
      </trkpt>
      <trkpt lat="43.662605" lon="-7.596920">
        <ele>4.617</ele>
        <time>2019-06-19T18:32:40Z</time>
      </trkpt>
      <trkpt lat="43.662639" lon="-7.597022">
        <ele>3.208</ele>
        <time>2019-06-19T18:32:41Z</time>
      </trkpt>
      <trkpt lat="43.662670" lon="-7.597119">
        <ele>1.697</ele>
        <time>2019-06-19T18:32:42Z</time>
      </trkpt>
      <trkpt lat="43.662701" lon="-7.597229">
        <ele>0.011</ele>
        <time>2019-06-19T18:32:43Z</time>
      </trkpt>
      <trkpt lat="43.662729" lon="-7.597327">
        <ele>0.022</ele>
        <time>2019-06-19T18:32:44Z</time>
      </trkpt>
      <trkpt lat="43.662752" lon="-7.597423">
        <ele>0.035</ele>
        <time>2019-06-19T18:32:45Z</time>
      </trkpt>
      <trkpt lat="43.662790" lon="-7.597524">
        <ele>0.095</ele>
        <time>2019-06-19T18:32:46Z</time>
      </trkpt>
      <trkpt lat="43.662819" lon="-7.597606">
        <ele>0.011</ele>
        <time>2019-06-19T18:32:47Z</time>
      </trkpt>
      <trkpt lat="43.662849" lon="-7.597696">
        <ele>0.069</ele>
        <time>2019-06-19T18:32:48Z</time>
      </trkpt>
      <trkpt lat="43.662879" lon="-7.597778">
        <ele>0.099</ele>
        <time>2019-06-19T18:32:49Z</time>
      </trkpt>
      <trkpt lat="43.662911" lon="-7.597882">
        <ele>0.092</ele>
        <time>2019-06-19T18:32:50Z</time>
      </trkpt>
      <trkpt lat="43.662945" lon="-7.597964">
        <ele>0.073</ele>
        <time>2019-06-19T18:32:51Z</time>
      </trkpt>
      <trkpt lat="43.662977" lon="-7.598057">
        <ele>0.020</ele>
        <time>2019-06-19T18:32:52Z</time>
      </trkpt>
      <trkpt lat="43.663006" lon="-7.598146">
        <ele>0.008</ele>
        <time>2019-06-19T18:32:53Z</time>
      </trkpt>
      <trkpt lat="43.663038" lon="-7.598244">
        <ele>0.022</ele>
        <time>2019-06-19T18:32:54Z</time>
      </trkpt>
      <trkpt lat="43.663067" lon="-7.598330">
        <ele>0.026</ele>
        <time>2019-06-19T18:32:55Z</time>
      </trkpt>
      <trkpt lat="43.663100" lon="-7.598409">
        <ele>0.017</ele>
        <time>2019-06-19T18:32:56Z</time>
      </trkpt>
      <trkpt lat="43.663126" lon="-7.598491">
        <ele>0.010</ele>
        <time>2019-06-19T18:32:57Z</time>
      </trkpt>
      <trkpt lat="43.663160" lon="-7.598552">
        <ele>0.050</ele>
        <time>2019-06-19T18:32:58Z</time>
      </trkpt>
      <trkpt lat="43.663192" lon="-7.598620">
        <ele>0.096</ele>
        <time>2019-06-19T18:32:59Z</time>
      </trkpt>
      <trkpt lat="43.663221" lon="-7.598699">
        <ele>0.064</ele>
        <time>2019-06-19T18:33:00Z</time>
      </trkpt>
      <trkpt lat="43.663250" lon="-7.598783">
        <ele>0.084</ele>
        <time>2019-06-19T18:33:01Z</time>
      </trkpt>
      <trkpt lat="43.663287" lon="-7.598882">
        <ele>0.055</ele>
        <time>2019-06-19T18:33:02Z</time>
      </trkpt>
      <trkpt lat="43.663323" lon="-7.598981">
        <ele>0.007</ele>
        <time>2019-06-19T18:33:03Z</time>
      </trkpt>
      <trkpt lat="43.663359" lon="-7.599085">
        <ele>0.017</ele>
        <time>2019-06-19T18:33:04Z</time>
      </trkpt>
      <trkpt lat="43.663401" lon="-7.599180">
        <ele>0.008</ele>
        <time>2019-06-19T18:33:05Z</time>
      </trkpt>
      <trkpt lat="43.663443" lon="-7.599266">
        <ele>0.038</ele>
        <time>2019-06-19T18:33:06Z</time>
      </trkpt>
      <trkpt lat="43.663482" lon="-7.599373">
        <ele>0.082</ele>
        <time>2019-06-19T18:33:07Z</time>
      </trkpt>
      <trkpt lat="43.663522" lon="-7.599482">
        <ele>0.123</ele>
        <time>2019-06-19T18:33:08Z</time>
      </trkpt>
      <trkpt lat="43.663581" lon="-7.599620">
        <ele>0.676</ele>
        <time>2019-06-19T18:33:09Z</time>
      </trkpt>
      <trkpt lat="43.663616" lon="-7.599726">
        <ele>1.016</ele>
        <time>2019-06-19T18:33:10Z</time>
      </trkpt>
      <trkpt lat="43.663666" lon="-7.599821">
        <ele>0.812</ele>
        <time>2019-06-19T18:33:11Z</time>
      </trkpt>
      <trkpt lat="43.663715" lon="-7.599922">
        <ele>0.620</ele>
        <time>2019-06-19T18:33:12Z</time>
      </trkpt>
      <trkpt lat="43.663764" lon="-7.600015">
        <ele>0.620</ele>
        <time>2019-06-19T18:33:13Z</time>
      </trkpt>
      <trkpt lat="43.663812" lon="-7.600118">
        <ele>1.358</ele>
        <time>2019-06-19T18:33:14Z</time>
      </trkpt>
      <trkpt lat="43.663868" lon="-7.600229">
        <ele>2.452</ele>
        <time>2019-06-19T18:33:15Z</time>
      </trkpt>
      <trkpt lat="43.663923" lon="-7.600347">
        <ele>2.517</ele>
        <time>2019-06-19T18:33:16Z</time>
      </trkpt>
      <trkpt lat="43.663991" lon="-7.600470">
        <ele>2.208</ele>
        <time>2019-06-19T18:33:17Z</time>
      </trkpt>
      <trkpt lat="43.664047" lon="-7.600580">
        <ele>2.598</ele>
        <time>2019-06-19T18:33:18Z</time>
      </trkpt>
      <trkpt lat="43.664101" lon="-7.600684">
        <ele>2.452</ele>
        <time>2019-06-19T18:33:19Z</time>
      </trkpt>
      <trkpt lat="43.664150" lon="-7.600783">
        <ele>2.283</ele>
        <time>2019-06-19T18:33:20Z</time>
      </trkpt>
      <trkpt lat="43.664201" lon="-7.600882">
        <ele>2.096</ele>
        <time>2019-06-19T18:33:21Z</time>
      </trkpt>
      <trkpt lat="43.664252" lon="-7.600981">
        <ele>1.876</ele>
        <time>2019-06-19T18:33:22Z</time>
      </trkpt>
      <trkpt lat="43.664296" lon="-7.601069">
        <ele>1.692</ele>
        <time>2019-06-19T18:33:23Z</time>
      </trkpt>
      <trkpt lat="43.664335" lon="-7.601146">
        <ele>1.470</ele>
        <time>2019-06-19T18:33:24Z</time>
      </trkpt>
      <trkpt lat="43.664377" lon="-7.601226">
        <ele>1.230</ele>
        <time>2019-06-19T18:33:25Z</time>
      </trkpt>
      <trkpt lat="43.664417" lon="-7.601278">
        <ele>1.161</ele>
        <time>2019-06-19T18:33:26Z</time>
      </trkpt>
      <trkpt lat="43.664446" lon="-7.601338">
        <ele>1.021</ele>
        <time>2019-06-19T18:33:27Z</time>
      </trkpt>
      <trkpt lat="43.664500" lon="-7.601440">
        <ele>1.513</ele>
        <time>2019-06-19T18:33:29Z</time>
      </trkpt>
      <trkpt lat="43.664545" lon="-7.601509">
        <ele>2.008</ele>
        <time>2019-06-19T18:33:30Z</time>
      </trkpt>
      <trkpt lat="43.664603" lon="-7.601557">
        <ele>2.479</ele>
        <time>2019-06-19T18:33:31Z</time>
      </trkpt>
      <trkpt lat="43.664669" lon="-7.601595">
        <ele>2.883</ele>
        <time>2019-06-19T18:33:32Z</time>
      </trkpt>
      <trkpt lat="43.664738" lon="-7.601635">
        <ele>3.244</ele>
        <time>2019-06-19T18:33:33Z</time>
      </trkpt>
      <trkpt lat="43.664804" lon="-7.601659">
        <ele>3.957</ele>
        <time>2019-06-19T18:33:34Z</time>
      </trkpt>
      <trkpt lat="43.664938" lon="-7.601621">
        <ele>5.287</ele>
        <time>2019-06-19T18:33:35Z</time>
      </trkpt>
      <trkpt lat="43.665048" lon="-7.601620">
        <ele>6.343</ele>
        <time>2019-06-19T18:33:36Z</time>
      </trkpt>
      <trkpt lat="43.665144" lon="-7.601604">
        <ele>7.021</ele>
        <time>2019-06-19T18:33:37Z</time>
      </trkpt>
      <trkpt lat="43.665228" lon="-7.601581">
        <ele>7.481</ele>
        <time>2019-06-19T18:33:38Z</time>
      </trkpt>
      <trkpt lat="43.665323" lon="-7.601580">
        <ele>7.651</ele>
        <time>2019-06-19T18:33:39Z</time>
      </trkpt>
      <trkpt lat="43.665414" lon="-7.601578">
        <ele>7.401</ele>
        <time>2019-06-19T18:33:40Z</time>
      </trkpt>
      <trkpt lat="43.665491" lon="-7.601564">
        <ele>7.011</ele>
        <time>2019-06-19T18:33:41Z</time>
      </trkpt>
      <trkpt lat="43.665557" lon="-7.601563">
        <ele>6.908</ele>
        <time>2019-06-19T18:33:42Z</time>
      </trkpt>
      <trkpt lat="43.665625" lon="-7.601554">
        <ele>6.698</ele>
        <time>2019-06-19T18:33:43Z</time>
      </trkpt>
      <trkpt lat="43.665698" lon="-7.601550">
        <ele>6.412</ele>
        <time>2019-06-19T18:33:44Z</time>
      </trkpt>
      <trkpt lat="43.665794" lon="-7.601538">
        <ele>6.123</ele>
        <time>2019-06-19T18:33:45Z</time>
      </trkpt>
      <trkpt lat="43.665884" lon="-7.601526">
        <ele>5.976</ele>
        <time>2019-06-19T18:33:46Z</time>
      </trkpt>
      <trkpt lat="43.665964" lon="-7.601514">
        <ele>5.826</ele>
        <time>2019-06-19T18:33:47Z</time>
      </trkpt>
      <trkpt lat="43.666035" lon="-7.601509">
        <ele>5.752</ele>
        <time>2019-06-19T18:33:48Z</time>
      </trkpt>
      <trkpt lat="43.666111" lon="-7.601500">
        <ele>5.610</ele>
        <time>2019-06-19T18:33:49Z</time>
      </trkpt>
      <trkpt lat="43.666192" lon="-7.601495">
        <ele>5.440</ele>
        <time>2019-06-19T18:33:50Z</time>
      </trkpt>
      <trkpt lat="43.666268" lon="-7.601490">
        <ele>5.321</ele>
        <time>2019-06-19T18:33:51Z</time>
      </trkpt>
      <trkpt lat="43.666338" lon="-7.601491">
        <ele>5.141</ele>
        <time>2019-06-19T18:33:52Z</time>
      </trkpt>
      <trkpt lat="43.666416" lon="-7.601480">
        <ele>5.005</ele>
        <time>2019-06-19T18:33:53Z</time>
      </trkpt>
      <trkpt lat="43.666480" lon="-7.601489">
        <ele>4.908</ele>
        <time>2019-06-19T18:33:54Z</time>
      </trkpt>
      <trkpt lat="43.666554" lon="-7.601485">
        <ele>4.845</ele>
        <time>2019-06-19T18:33:55Z</time>
      </trkpt>
      <trkpt lat="43.666646" lon="-7.601483">
        <ele>4.769</ele>
        <time>2019-06-19T18:33:56Z</time>
      </trkpt>
      <trkpt lat="43.666737" lon="-7.601492">
        <ele>4.980</ele>
        <time>2019-06-19T18:33:57Z</time>
      </trkpt>
      <trkpt lat="43.666844" lon="-7.601492">
        <ele>5.133</ele>
        <time>2019-06-19T18:33:58Z</time>
      </trkpt>
      <trkpt lat="43.666939" lon="-7.601502">
        <ele>5.493</ele>
        <time>2019-06-19T18:33:59Z</time>
      </trkpt>
      <trkpt lat="43.667026" lon="-7.601496">
        <ele>5.619</ele>
        <time>2019-06-19T18:34:00Z</time>
      </trkpt>
      <trkpt lat="43.667103" lon="-7.601492">
        <ele>5.867</ele>
        <time>2019-06-19T18:34:01Z</time>
      </trkpt>
      <trkpt lat="43.667153" lon="-7.601497">
        <ele>6.017</ele>
        <time>2019-06-19T18:34:02Z</time>
      </trkpt>
      <trkpt lat="43.667223" lon="-7.601501">
        <ele>6.283</ele>
        <time>2019-06-19T18:34:04Z</time>
      </trkpt>
      <trkpt lat="43.667321" lon="-7.601516">
        <ele>6.625</ele>
        <time>2019-06-19T18:34:06Z</time>
      </trkpt>
      <trkpt lat="43.667400" lon="-7.601521">
        <ele>6.817</ele>
        <time>2019-06-19T18:34:07Z</time>
      </trkpt>
      <trkpt lat="43.667499" lon="-7.601525">
        <ele>7.008</ele>
        <time>2019-06-19T18:34:08Z</time>
      </trkpt>
      <trkpt lat="43.667607" lon="-7.601532">
        <ele>7.691</ele>
        <time>2019-06-19T18:34:09Z</time>
      </trkpt>
      <trkpt lat="43.667717" lon="-7.601536">
        <ele>8.345</ele>
        <time>2019-06-19T18:34:10Z</time>
      </trkpt>
      <trkpt lat="43.667830" lon="-7.601535">
        <ele>8.816</ele>
        <time>2019-06-19T18:34:11Z</time>
      </trkpt>
      <trkpt lat="43.667935" lon="-7.601543">
        <ele>9.259</ele>
        <time>2019-06-19T18:34:12Z</time>
      </trkpt>
      <trkpt lat="43.668027" lon="-7.601564">
        <ele>9.629</ele>
        <time>2019-06-19T18:34:13Z</time>
      </trkpt>
      <trkpt lat="43.668107" lon="-7.601604">
        <ele>10.075</ele>
        <time>2019-06-19T18:34:14Z</time>
      </trkpt>
      <trkpt lat="43.668193" lon="-7.601650">
        <ele>10.543</ele>
        <time>2019-06-19T18:34:15Z</time>
      </trkpt>
      <trkpt lat="43.668280" lon="-7.601707">
        <ele>11.043</ele>
        <time>2019-06-19T18:34:16Z</time>
      </trkpt>
      <trkpt lat="43.668348" lon="-7.601785">
        <ele>11.622</ele>
        <time>2019-06-19T18:34:17Z</time>
      </trkpt>
      <trkpt lat="43.668397" lon="-7.601866">
        <ele>12.562</ele>
        <time>2019-06-19T18:34:18Z</time>
      </trkpt>
      <trkpt lat="43.668441" lon="-7.601955">
        <ele>13.108</ele>
        <time>2019-06-19T18:34:19Z</time>
      </trkpt>
      <trkpt lat="43.668472" lon="-7.602043">
        <ele>13.108</ele>
        <time>2019-06-19T18:34:20Z</time>
      </trkpt>
      <trkpt lat="43.668496" lon="-7.602130">
        <ele>12.915</ele>
        <time>2019-06-19T18:34:21Z</time>
      </trkpt>
      <trkpt lat="43.668514" lon="-7.602207">
        <ele>12.479</ele>
        <time>2019-06-19T18:34:22Z</time>
      </trkpt>
      <trkpt lat="43.668530" lon="-7.602279">
        <ele>11.940</ele>
        <time>2019-06-19T18:34:23Z</time>
      </trkpt>
      <trkpt lat="43.668550" lon="-7.602402">
        <ele>10.723</ele>
        <time>2019-06-19T18:34:25Z</time>
      </trkpt>
      <trkpt lat="43.668571" lon="-7.602480">
        <ele>9.873</ele>
        <time>2019-06-19T18:34:27Z</time>
      </trkpt>
      <trkpt lat="43.668597" lon="-7.602586">
        <ele>9.289</ele>
        <time>2019-06-19T18:34:29Z</time>
      </trkpt>
      <trkpt lat="43.668607" lon="-7.602700">
        <ele>9.067</ele>
        <time>2019-06-19T18:34:31Z</time>
      </trkpt>
      <trkpt lat="43.668628" lon="-7.602835">
        <ele>8.967</ele>
        <time>2019-06-19T18:34:33Z</time>
      </trkpt>
      <trkpt lat="43.668636" lon="-7.602927">
        <ele>8.996</ele>
        <time>2019-06-19T18:34:34Z</time>
      </trkpt>
      <trkpt lat="43.668650" lon="-7.603036">
        <ele>9.031</ele>
        <time>2019-06-19T18:34:35Z</time>
      </trkpt>
      <trkpt lat="43.668680" lon="-7.603155">
        <ele>9.524</ele>
        <time>2019-06-19T18:34:36Z</time>
      </trkpt>
      <trkpt lat="43.668687" lon="-7.603272">
        <ele>10.208</ele>
        <time>2019-06-19T18:34:37Z</time>
      </trkpt>
      <trkpt lat="43.668700" lon="-7.603376">
        <ele>10.832</ele>
        <time>2019-06-19T18:34:38Z</time>
      </trkpt>
      <trkpt lat="43.668715" lon="-7.603474">
        <ele>11.446</ele>
        <time>2019-06-19T18:34:39Z</time>
      </trkpt>
      <trkpt lat="43.668731" lon="-7.603572">
        <ele>12.177</ele>
        <time>2019-06-19T18:34:40Z</time>
      </trkpt>
      <trkpt lat="43.668746" lon="-7.603686">
        <ele>12.640</ele>
        <time>2019-06-19T18:34:41Z</time>
      </trkpt>
      <trkpt lat="43.668772" lon="-7.603801">
        <ele>13.030</ele>
        <time>2019-06-19T18:34:42Z</time>
      </trkpt>
      <trkpt lat="43.668790" lon="-7.603927">
        <ele>13.266</ele>
        <time>2019-06-19T18:34:43Z</time>
      </trkpt>
      <trkpt lat="43.668812" lon="-7.604055">
        <ele>13.264</ele>
        <time>2019-06-19T18:34:44Z</time>
      </trkpt>
      <trkpt lat="43.668838" lon="-7.604184">
        <ele>12.944</ele>
        <time>2019-06-19T18:34:45Z</time>
      </trkpt>
      <trkpt lat="43.668862" lon="-7.604311">
        <ele>12.189</ele>
        <time>2019-06-19T18:34:46Z</time>
      </trkpt>
      <trkpt lat="43.668888" lon="-7.604435">
        <ele>11.106</ele>
        <time>2019-06-19T18:34:47Z</time>
      </trkpt>
      <trkpt lat="43.668902" lon="-7.604547">
        <ele>10.826</ele>
        <time>2019-06-19T18:34:48Z</time>
      </trkpt>
      <trkpt lat="43.668919" lon="-7.604648">
        <ele>10.608</ele>
        <time>2019-06-19T18:34:49Z</time>
      </trkpt>
      <trkpt lat="43.668935" lon="-7.604749">
        <ele>10.241</ele>
        <time>2019-06-19T18:34:50Z</time>
      </trkpt>
      <trkpt lat="43.668950" lon="-7.604827">
        <ele>9.575</ele>
        <time>2019-06-19T18:34:51Z</time>
      </trkpt>
      <trkpt lat="43.668965" lon="-7.604910">
        <ele>8.986</ele>
        <time>2019-06-19T18:34:52Z</time>
      </trkpt>
      <trkpt lat="43.668971" lon="-7.604993">
        <ele>8.489</ele>
        <time>2019-06-19T18:34:53Z</time>
      </trkpt>
      <trkpt lat="43.668987" lon="-7.605076">
        <ele>7.799</ele>
        <time>2019-06-19T18:34:54Z</time>
      </trkpt>
      <trkpt lat="43.669003" lon="-7.605168">
        <ele>7.015</ele>
        <time>2019-06-19T18:34:55Z</time>
      </trkpt>
      <trkpt lat="43.669018" lon="-7.605257">
        <ele>6.273</ele>
        <time>2019-06-19T18:34:56Z</time>
      </trkpt>
      <trkpt lat="43.669027" lon="-7.605366">
        <ele>5.543</ele>
        <time>2019-06-19T18:34:57Z</time>
      </trkpt>
      <trkpt lat="43.669044" lon="-7.605499">
        <ele>4.616</ele>
        <time>2019-06-19T18:34:58Z</time>
      </trkpt>
      <trkpt lat="43.669073" lon="-7.605646">
        <ele>3.976</ele>
        <time>2019-06-19T18:34:59Z</time>
      </trkpt>
      <trkpt lat="43.669107" lon="-7.605801">
        <ele>3.513</ele>
        <time>2019-06-19T18:35:00Z</time>
      </trkpt>
      <trkpt lat="43.669133" lon="-7.605948">
        <ele>3.708</ele>
        <time>2019-06-19T18:35:01Z</time>
      </trkpt>
      <trkpt lat="43.669161" lon="-7.606081">
        <ele>3.994</ele>
        <time>2019-06-19T18:35:02Z</time>
      </trkpt>
      <trkpt lat="43.669182" lon="-7.606213">
        <ele>4.748</ele>
        <time>2019-06-19T18:35:03Z</time>
      </trkpt>
      <trkpt lat="43.669204" lon="-7.606340">
        <ele>5.479</ele>
        <time>2019-06-19T18:35:04Z</time>
      </trkpt>
      <trkpt lat="43.669231" lon="-7.606449">
        <ele>5.862</ele>
        <time>2019-06-19T18:35:05Z</time>
      </trkpt>
      <trkpt lat="43.669243" lon="-7.606549">
        <ele>6.032</ele>
        <time>2019-06-19T18:35:06Z</time>
      </trkpt>
      <trkpt lat="43.669257" lon="-7.606656">
        <ele>6.378</ele>
        <time>2019-06-19T18:35:07Z</time>
      </trkpt>
      <trkpt lat="43.669277" lon="-7.606750">
        <ele>6.146</ele>
        <time>2019-06-19T18:35:08Z</time>
      </trkpt>
      <trkpt lat="43.669290" lon="-7.606837">
        <ele>5.836</ele>
        <time>2019-06-19T18:35:09Z</time>
      </trkpt>
      <trkpt lat="43.669304" lon="-7.606906">
        <ele>5.642</ele>
        <time>2019-06-19T18:35:10Z</time>
      </trkpt>
      <trkpt lat="43.669314" lon="-7.607004">
        <ele>5.422</ele>
        <time>2019-06-19T18:35:12Z</time>
      </trkpt>
      <trkpt lat="43.669323" lon="-7.607121">
        <ele>5.314</ele>
        <time>2019-06-19T18:35:14Z</time>
      </trkpt>
      <trkpt lat="43.669338" lon="-7.607195">
        <ele>5.208</ele>
        <time>2019-06-19T18:35:15Z</time>
      </trkpt>
      <trkpt lat="43.669358" lon="-7.607273">
        <ele>4.967</ele>
        <time>2019-06-19T18:35:16Z</time>
      </trkpt>
      <trkpt lat="43.669372" lon="-7.607374">
        <ele>4.841</ele>
        <time>2019-06-19T18:35:17Z</time>
      </trkpt>
      <trkpt lat="43.669400" lon="-7.607464">
        <ele>4.552</ele>
        <time>2019-06-19T18:35:18Z</time>
      </trkpt>
      <trkpt lat="43.669414" lon="-7.607556">
        <ele>4.565</ele>
        <time>2019-06-19T18:35:19Z</time>
      </trkpt>
      <trkpt lat="43.669424" lon="-7.607636">
        <ele>4.715</ele>
        <time>2019-06-19T18:35:20Z</time>
      </trkpt>
      <trkpt lat="43.669444" lon="-7.607725">
        <ele>4.871</ele>
        <time>2019-06-19T18:35:21Z</time>
      </trkpt>
      <trkpt lat="43.669465" lon="-7.607823">
        <ele>4.989</ele>
        <time>2019-06-19T18:35:22Z</time>
      </trkpt>
      <trkpt lat="43.669482" lon="-7.607931">
        <ele>5.129</ele>
        <time>2019-06-19T18:35:23Z</time>
      </trkpt>
      <trkpt lat="43.669494" lon="-7.608037">
        <ele>5.419</ele>
        <time>2019-06-19T18:35:24Z</time>
      </trkpt>
      <trkpt lat="43.669512" lon="-7.608152">
        <ele>5.409</ele>
        <time>2019-06-19T18:35:25Z</time>
      </trkpt>
      <trkpt lat="43.669531" lon="-7.608265">
        <ele>5.319</ele>
        <time>2019-06-19T18:35:26Z</time>
      </trkpt>
      <trkpt lat="43.669548" lon="-7.608382">
        <ele>5.308</ele>
        <time>2019-06-19T18:35:27Z</time>
      </trkpt>
      <trkpt lat="43.669573" lon="-7.608498">
        <ele>5.154</ele>
        <time>2019-06-19T18:35:28Z</time>
      </trkpt>
      <trkpt lat="43.669592" lon="-7.608616">
        <ele>4.978</ele>
        <time>2019-06-19T18:35:29Z</time>
      </trkpt>
      <trkpt lat="43.669610" lon="-7.608746">
        <ele>4.639</ele>
        <time>2019-06-19T18:35:30Z</time>
      </trkpt>
      <trkpt lat="43.669629" lon="-7.608866">
        <ele>4.482</ele>
        <time>2019-06-19T18:35:31Z</time>
      </trkpt>
      <trkpt lat="43.669663" lon="-7.608990">
        <ele>4.232</ele>
        <time>2019-06-19T18:35:32Z</time>
      </trkpt>
      <trkpt lat="43.669698" lon="-7.609112">
        <ele>4.158</ele>
        <time>2019-06-19T18:35:33Z</time>
      </trkpt>
      <trkpt lat="43.669735" lon="-7.609220">
        <ele>4.046</ele>
        <time>2019-06-19T18:35:34Z</time>
      </trkpt>
      <trkpt lat="43.669803" lon="-7.609334">
        <ele>4.056</ele>
        <time>2019-06-19T18:35:35Z</time>
      </trkpt>
      <trkpt lat="43.669878" lon="-7.609447">
        <ele>4.011</ele>
        <time>2019-06-19T18:35:36Z</time>
      </trkpt>
      <trkpt lat="43.669956" lon="-7.609554">
        <ele>4.021</ele>
        <time>2019-06-19T18:35:37Z</time>
      </trkpt>
      <trkpt lat="43.670037" lon="-7.609662">
        <ele>4.103</ele>
        <time>2019-06-19T18:35:38Z</time>
      </trkpt>
      <trkpt lat="43.670114" lon="-7.609776">
        <ele>4.508</ele>
        <time>2019-06-19T18:35:39Z</time>
      </trkpt>
      <trkpt lat="43.670186" lon="-7.609876">
        <ele>4.934</ele>
        <time>2019-06-19T18:35:40Z</time>
      </trkpt>
      <trkpt lat="43.670263" lon="-7.609975">
        <ele>5.058</ele>
        <time>2019-06-19T18:35:41Z</time>
      </trkpt>
      <trkpt lat="43.670339" lon="-7.610074">
        <ele>5.419</ele>
        <time>2019-06-19T18:35:42Z</time>
      </trkpt>
      <trkpt lat="43.670401" lon="-7.610158">
        <ele>5.872</ele>
        <time>2019-06-19T18:35:43Z</time>
      </trkpt>
      <trkpt lat="43.670466" lon="-7.610240">
        <ele>6.082</ele>
        <time>2019-06-19T18:35:44Z</time>
      </trkpt>
      <trkpt lat="43.670524" lon="-7.610315">
        <ele>6.018</ele>
        <time>2019-06-19T18:35:45Z</time>
      </trkpt>
      <trkpt lat="43.670582" lon="-7.610392">
        <ele>6.036</ele>
        <time>2019-06-19T18:35:46Z</time>
      </trkpt>
      <trkpt lat="43.670647" lon="-7.610471">
        <ele>6.056</ele>
        <time>2019-06-19T18:35:47Z</time>
      </trkpt>
      <trkpt lat="43.670714" lon="-7.610559">
        <ele>6.071</ele>
        <time>2019-06-19T18:35:48Z</time>
      </trkpt>
      <trkpt lat="43.670784" lon="-7.610649">
        <ele>6.041</ele>
        <time>2019-06-19T18:35:49Z</time>
      </trkpt>
      <trkpt lat="43.670856" lon="-7.610749">
        <ele>5.915</ele>
        <time>2019-06-19T18:35:50Z</time>
      </trkpt>
      <trkpt lat="43.670938" lon="-7.610853">
        <ele>5.708</ele>
        <time>2019-06-19T18:35:51Z</time>
      </trkpt>
      <trkpt lat="43.671022" lon="-7.610954">
        <ele>5.620</ele>
        <time>2019-06-19T18:35:52Z</time>
      </trkpt>
      <trkpt lat="43.671110" lon="-7.611054">
        <ele>5.844</ele>
        <time>2019-06-19T18:35:53Z</time>
      </trkpt>
      <trkpt lat="43.671202" lon="-7.611156">
        <ele>6.195</ele>
        <time>2019-06-19T18:35:54Z</time>
      </trkpt>
      <trkpt lat="43.671292" lon="-7.611255">
        <ele>6.318</ele>
        <time>2019-06-19T18:35:55Z</time>
      </trkpt>
      <trkpt lat="43.671364" lon="-7.611356">
        <ele>6.828</ele>
        <time>2019-06-19T18:35:56Z</time>
      </trkpt>
      <trkpt lat="43.671446" lon="-7.611442">
        <ele>7.074</ele>
        <time>2019-06-19T18:35:57Z</time>
      </trkpt>
      <trkpt lat="43.671531" lon="-7.611523">
        <ele>7.022</ele>
        <time>2019-06-19T18:35:58Z</time>
      </trkpt>
      <trkpt lat="43.671615" lon="-7.611581">
        <ele>7.042</ele>
        <time>2019-06-19T18:35:59Z</time>
      </trkpt>
      <trkpt lat="43.671706" lon="-7.611640">
        <ele>7.138</ele>
        <time>2019-06-19T18:36:00Z</time>
      </trkpt>
      <trkpt lat="43.671781" lon="-7.611709">
        <ele>7.370</ele>
        <time>2019-06-19T18:36:01Z</time>
      </trkpt>
      <trkpt lat="43.671834" lon="-7.611781">
        <ele>7.417</ele>
        <time>2019-06-19T18:36:02Z</time>
      </trkpt>
      <trkpt lat="43.671878" lon="-7.611827">
        <ele>7.308</ele>
        <time>2019-06-19T18:36:03Z</time>
      </trkpt>
      <trkpt lat="43.671913" lon="-7.611868">
        <ele>7.276</ele>
        <time>2019-06-19T18:36:04Z</time>
      </trkpt>
      <trkpt lat="43.671975" lon="-7.611940">
        <ele>7.120</ele>
        <time>2019-06-19T18:36:06Z</time>
      </trkpt>
      <trkpt lat="43.672029" lon="-7.611975">
        <ele>7.211</ele>
        <time>2019-06-19T18:36:07Z</time>
      </trkpt>
      <trkpt lat="43.672081" lon="-7.612041">
        <ele>7.314</ele>
        <time>2019-06-19T18:36:08Z</time>
      </trkpt>
      <trkpt lat="43.672147" lon="-7.612110">
        <ele>7.654</ele>
        <time>2019-06-19T18:36:09Z</time>
      </trkpt>
      <trkpt lat="43.672212" lon="-7.612186">
        <ele>7.940</ele>
        <time>2019-06-19T18:36:10Z</time>
      </trkpt>
      <trkpt lat="43.672293" lon="-7.612246">
        <ele>7.388</ele>
        <time>2019-06-19T18:36:11Z</time>
      </trkpt>
      <trkpt lat="43.672362" lon="-7.612304">
        <ele>6.668</ele>
        <time>2019-06-19T18:36:12Z</time>
      </trkpt>
      <trkpt lat="43.672423" lon="-7.612368">
        <ele>6.136</ele>
        <time>2019-06-19T18:36:13Z</time>
      </trkpt>
      <trkpt lat="43.672474" lon="-7.612433">
        <ele>6.017</ele>
        <time>2019-06-19T18:36:14Z</time>
      </trkpt>
      <trkpt lat="43.672522" lon="-7.612499">
        <ele>5.718</ele>
        <time>2019-06-19T18:36:15Z</time>
      </trkpt>
      <trkpt lat="43.672561" lon="-7.612562">
        <ele>4.808</ele>
        <time>2019-06-19T18:36:16Z</time>
      </trkpt>
      <trkpt lat="43.672606" lon="-7.612617">
        <ele>4.076</ele>
        <time>2019-06-19T18:36:17Z</time>
      </trkpt>
      <trkpt lat="43.672640" lon="-7.612667">
        <ele>3.420</ele>
        <time>2019-06-19T18:36:18Z</time>
      </trkpt>
      <trkpt lat="43.672695" lon="-7.612736">
        <ele>2.761</ele>
        <time>2019-06-19T18:36:20Z</time>
      </trkpt>
      <trkpt lat="43.672740" lon="-7.612804">
        <ele>2.214</ele>
        <time>2019-06-19T18:36:22Z</time>
      </trkpt>
      <trkpt lat="43.672806" lon="-7.612893">
        <ele>1.724</ele>
        <time>2019-06-19T18:36:24Z</time>
      </trkpt>
      <trkpt lat="43.672839" lon="-7.612957">
        <ele>1.820</ele>
        <time>2019-06-19T18:36:25Z</time>
      </trkpt>
      <trkpt lat="43.672874" lon="-7.613022">
        <ele>2.058</ele>
        <time>2019-06-19T18:36:26Z</time>
      </trkpt>
      <trkpt lat="43.672914" lon="-7.613085">
        <ele>2.648</ele>
        <time>2019-06-19T18:36:27Z</time>
      </trkpt>
      <trkpt lat="43.672963" lon="-7.613141">
        <ele>3.324</ele>
        <time>2019-06-19T18:36:28Z</time>
      </trkpt>
      <trkpt lat="43.673019" lon="-7.613216">
        <ele>4.204</ele>
        <time>2019-06-19T18:36:29Z</time>
      </trkpt>
      <trkpt lat="43.673085" lon="-7.613289">
        <ele>5.214</ele>
        <time>2019-06-19T18:36:30Z</time>
      </trkpt>
      <trkpt lat="43.673152" lon="-7.613369">
        <ele>6.108</ele>
        <time>2019-06-19T18:36:31Z</time>
      </trkpt>
      <trkpt lat="43.673218" lon="-7.613450">
        <ele>6.795</ele>
        <time>2019-06-19T18:36:32Z</time>
      </trkpt>
      <trkpt lat="43.673289" lon="-7.613529">
        <ele>7.069</ele>
        <time>2019-06-19T18:36:33Z</time>
      </trkpt>
      <trkpt lat="43.673371" lon="-7.613603">
        <ele>6.880</ele>
        <time>2019-06-19T18:36:34Z</time>
      </trkpt>
      <trkpt lat="43.673444" lon="-7.613663">
        <ele>6.183</ele>
        <time>2019-06-19T18:36:35Z</time>
      </trkpt>
      <trkpt lat="43.673526" lon="-7.613734">
        <ele>5.583</ele>
        <time>2019-06-19T18:36:36Z</time>
      </trkpt>
      <trkpt lat="43.673615" lon="-7.613803">
        <ele>5.019</ele>
        <time>2019-06-19T18:36:37Z</time>
      </trkpt>
      <trkpt lat="43.673720" lon="-7.613873">
        <ele>5.377</ele>
        <time>2019-06-19T18:36:38Z</time>
      </trkpt>
      <trkpt lat="43.673819" lon="-7.613961">
        <ele>6.397</ele>
        <time>2019-06-19T18:36:39Z</time>
      </trkpt>
      <trkpt lat="43.673926" lon="-7.614057">
        <ele>7.441</ele>
        <time>2019-06-19T18:36:40Z</time>
      </trkpt>
      <trkpt lat="43.674044" lon="-7.614165">
        <ele>8.681</ele>
        <time>2019-06-19T18:36:41Z</time>
      </trkpt>
      <trkpt lat="43.674177" lon="-7.614268">
        <ele>9.009</ele>
        <time>2019-06-19T18:36:42Z</time>
      </trkpt>
      <trkpt lat="43.674301" lon="-7.614367">
        <ele>9.508</ele>
        <time>2019-06-19T18:36:43Z</time>
      </trkpt>
      <trkpt lat="43.674427" lon="-7.614466">
        <ele>10.097</ele>
        <time>2019-06-19T18:36:44Z</time>
      </trkpt>
      <trkpt lat="43.674559" lon="-7.614558">
        <ele>9.841</ele>
        <time>2019-06-19T18:36:45Z</time>
      </trkpt>
      <trkpt lat="43.674689" lon="-7.614650">
        <ele>9.652</ele>
        <time>2019-06-19T18:36:46Z</time>
      </trkpt>
      <trkpt lat="43.674801" lon="-7.614778">
        <ele>10.295</ele>
        <time>2019-06-19T18:36:47Z</time>
      </trkpt>
      <trkpt lat="43.674964" lon="-7.614835">
        <ele>10.395</ele>
        <time>2019-06-19T18:36:48Z</time>
      </trkpt>
      <trkpt lat="43.675121" lon="-7.614917">
        <ele>12.131</ele>
        <time>2019-06-19T18:36:49Z</time>
      </trkpt>
      <trkpt lat="43.675299" lon="-7.614981">
        <ele>13.459</ele>
        <time>2019-06-19T18:36:50Z</time>
      </trkpt>
      <trkpt lat="43.675450" lon="-7.615052">
        <ele>16.249</ele>
        <time>2019-06-19T18:36:51Z</time>
      </trkpt>
      <trkpt lat="43.675606" lon="-7.615109">
        <ele>18.537</ele>
        <time>2019-06-19T18:36:52Z</time>
      </trkpt>
      <trkpt lat="43.675761" lon="-7.615157">
        <ele>19.849</ele>
        <time>2019-06-19T18:36:53Z</time>
      </trkpt>
      <trkpt lat="43.675911" lon="-7.615181">
        <ele>21.513</ele>
        <time>2019-06-19T18:36:54Z</time>
      </trkpt>
      <trkpt lat="43.676060" lon="-7.615189">
        <ele>23.608</ele>
        <time>2019-06-19T18:36:55Z</time>
      </trkpt>
      <trkpt lat="43.676203" lon="-7.615188">
        <ele>26.486</ele>
        <time>2019-06-19T18:36:56Z</time>
      </trkpt>
      <trkpt lat="43.676339" lon="-7.615177">
        <ele>29.530</ele>
        <time>2019-06-19T18:36:57Z</time>
      </trkpt>
      <trkpt lat="43.676468" lon="-7.615156">
        <ele>31.371</ele>
        <time>2019-06-19T18:36:58Z</time>
      </trkpt>
      <trkpt lat="43.676591" lon="-7.615134">
        <ele>32.314</ele>
        <time>2019-06-19T18:36:59Z</time>
      </trkpt>
      <trkpt lat="43.676714" lon="-7.615120">
        <ele>33.294</ele>
        <time>2019-06-19T18:37:00Z</time>
      </trkpt>
      <trkpt lat="43.676837" lon="-7.615074">
        <ele>33.690</ele>
        <time>2019-06-19T18:37:01Z</time>
      </trkpt>
      <trkpt lat="43.676946" lon="-7.615056">
        <ele>34.098</ele>
        <time>2019-06-19T18:37:02Z</time>
      </trkpt>
      <trkpt lat="43.677049" lon="-7.615010">
        <ele>34.828</ele>
        <time>2019-06-19T18:37:03Z</time>
      </trkpt>
      <trkpt lat="43.677133" lon="-7.614963">
        <ele>35.444</ele>
        <time>2019-06-19T18:37:04Z</time>
      </trkpt>
      <trkpt lat="43.677210" lon="-7.614911">
        <ele>36.205</ele>
        <time>2019-06-19T18:37:05Z</time>
      </trkpt>
      <trkpt lat="43.677266" lon="-7.614860">
        <ele>36.315</ele>
        <time>2019-06-19T18:37:06Z</time>
      </trkpt>
      <trkpt lat="43.677325" lon="-7.614795">
        <ele>36.208</ele>
        <time>2019-06-19T18:37:07Z</time>
      </trkpt>
      <trkpt lat="43.677358" lon="-7.614743">
        <ele>36.057</ele>
        <time>2019-06-19T18:37:08Z</time>
      </trkpt>
      <trkpt lat="43.677419" lon="-7.614648">
        <ele>35.791</ele>
        <time>2019-06-19T18:37:10Z</time>
      </trkpt>
      <trkpt lat="43.677468" lon="-7.614608">
        <ele>35.352</ele>
        <time>2019-06-19T18:37:12Z</time>
      </trkpt>
      <trkpt lat="43.677511" lon="-7.614559">
        <ele>34.835</ele>
        <time>2019-06-19T18:37:18Z</time>
      </trkpt>
      <trkpt lat="43.677480" lon="-7.614503">
        <ele>35.255</ele>
        <time>2019-06-19T18:39:44Z</time>
      </trkpt>
      <trkpt lat="43.677483" lon="-7.614571">
        <ele>35.211</ele>
        <time>2019-06-19T18:40:08Z</time>
      </trkpt>
      <trkpt lat="43.677502" lon="-7.614513">
        <ele>35.069</ele>
        <time>2019-06-19T18:40:18Z</time>
      </trkpt>
      <trkpt lat="43.677484" lon="-7.614455">
        <ele>35.259</ele>
        <time>2019-06-19T18:40:24Z</time>
      </trkpt>
      <trkpt lat="43.677834" lon="-7.614392">
        <ele>30.698</ele>
        <time>2019-06-20T09:45:44Z</time>
      </trkpt>
      <trkpt lat="43.678120" lon="-7.614654">
        <ele>30.115</ele>
        <time>2019-06-20T09:49:53Z</time>
      </trkpt>
      <trkpt lat="43.678027" lon="-7.614726">
        <ele>31.126</ele>
        <time>2019-06-20T09:49:54Z</time>
      </trkpt>
      <trkpt lat="43.677984" lon="-7.614781">
        <ele>31.808</ele>
        <time>2019-06-20T09:49:56Z</time>
      </trkpt>
      <trkpt lat="43.677981" lon="-7.614701">
        <ele>30.992</ele>
        <time>2019-06-20T09:49:57Z</time>
      </trkpt>
      <trkpt lat="43.677883" lon="-7.614814">
        <ele>32.136</ele>
        <time>2019-06-20T09:49:59Z</time>
      </trkpt>
      <trkpt lat="43.677834" lon="-7.614827">
        <ele>32.277</ele>
        <time>2019-06-20T09:50:00Z</time>
      </trkpt>
      <trkpt lat="43.677797" lon="-7.614786">
        <ele>31.753</ele>
        <time>2019-06-20T09:50:01Z</time>
      </trkpt>
      <trkpt lat="43.677784" lon="-7.614631">
        <ele>31.060</ele>
        <time>2019-06-20T09:50:02Z</time>
      </trkpt>
      <trkpt lat="43.677716" lon="-7.614701">
        <ele>31.911</ele>
        <time>2019-06-20T09:50:03Z</time>
      </trkpt>
      <trkpt lat="43.677670" lon="-7.614696">
        <ele>32.693</ele>
        <time>2019-06-20T09:50:04Z</time>
      </trkpt>
      <trkpt lat="43.677608" lon="-7.614625">
        <ele>33.470</ele>
        <time>2019-06-20T09:50:06Z</time>
      </trkpt>
      <trkpt lat="43.677566" lon="-7.614593">
        <ele>34.084</ele>
        <time>2019-06-20T09:50:07Z</time>
      </trkpt>
      <trkpt lat="43.677487" lon="-7.614643">
        <ele>35.107</ele>
        <time>2019-06-20T09:50:09Z</time>
      </trkpt>
      <trkpt lat="43.677462" lon="-7.614752">
        <ele>35.417</ele>
        <time>2019-06-20T09:50:11Z</time>
      </trkpt>
      <trkpt lat="43.677480" lon="-7.614820">
        <ele>35.408</ele>
        <time>2019-06-20T09:50:12Z</time>
      </trkpt>
      <trkpt lat="43.677516" lon="-7.614881">
        <ele>35.491</ele>
        <time>2019-06-20T09:50:13Z</time>
      </trkpt>
      <trkpt lat="43.677567" lon="-7.614927">
        <ele>35.155</ele>
        <time>2019-06-20T09:50:14Z</time>
      </trkpt>
      <trkpt lat="43.677639" lon="-7.614945">
        <ele>34.616</ele>
        <time>2019-06-20T09:50:15Z</time>
      </trkpt>
      <trkpt lat="43.677728" lon="-7.614962">
        <ele>34.072</ele>
        <time>2019-06-20T09:50:16Z</time>
      </trkpt>
      <trkpt lat="43.677837" lon="-7.614949">
        <ele>33.689</ele>
        <time>2019-06-20T09:50:17Z</time>
      </trkpt>
      <trkpt lat="43.677951" lon="-7.614938">
        <ele>33.820</ele>
        <time>2019-06-20T09:50:18Z</time>
      </trkpt>
      <trkpt lat="43.678079" lon="-7.614933">
        <ele>34.122</ele>
        <time>2019-06-20T09:50:19Z</time>
      </trkpt>
      <trkpt lat="43.678220" lon="-7.614929">
        <ele>34.769</ele>
        <time>2019-06-20T09:50:20Z</time>
      </trkpt>
      <trkpt lat="43.678377" lon="-7.614938">
        <ele>35.215</ele>
        <time>2019-06-20T09:50:21Z</time>
      </trkpt>
      <trkpt lat="43.678537" lon="-7.614955">
        <ele>34.965</ele>
        <time>2019-06-20T09:50:22Z</time>
      </trkpt>
      <trkpt lat="43.678710" lon="-7.614979">
        <ele>36.111</ele>
        <time>2019-06-20T09:50:23Z</time>
      </trkpt>
      <trkpt lat="43.678892" lon="-7.615008">
        <ele>38.308</ele>
        <time>2019-06-20T09:50:24Z</time>
      </trkpt>
      <trkpt lat="43.679080" lon="-7.615039">
        <ele>42.234</ele>
        <time>2019-06-20T09:50:25Z</time>
      </trkpt>
      <trkpt lat="43.679279" lon="-7.615067">
        <ele>43.838</ele>
        <time>2019-06-20T09:50:26Z</time>
      </trkpt>
      <trkpt lat="43.679483" lon="-7.615098">
        <ele>43.829</ele>
        <time>2019-06-20T09:50:27Z</time>
      </trkpt>
      <trkpt lat="43.679691" lon="-7.615129">
        <ele>44.385</ele>
        <time>2019-06-20T09:50:28Z</time>
      </trkpt>
      <trkpt lat="43.679914" lon="-7.615166">
        <ele>48.382</ele>
        <time>2019-06-20T09:50:29Z</time>
      </trkpt>
      <trkpt lat="43.680142" lon="-7.615209">
        <ele>52.743</ele>
        <time>2019-06-20T09:50:30Z</time>
      </trkpt>
      <trkpt lat="43.680375" lon="-7.615243">
        <ele>54.185</ele>
        <time>2019-06-20T09:50:31Z</time>
      </trkpt>
      <trkpt lat="43.680603" lon="-7.615279">
        <ele>52.092</ele>
        <time>2019-06-20T09:50:32Z</time>
      </trkpt>
      <trkpt lat="43.680836" lon="-7.615318">
        <ele>47.739</ele>
        <time>2019-06-20T09:50:33Z</time>
      </trkpt>
      <trkpt lat="43.681074" lon="-7.615346">
        <ele>45.401</ele>
        <time>2019-06-20T09:50:34Z</time>
      </trkpt>
      <trkpt lat="43.681321" lon="-7.615359">
        <ele>45.321</ele>
        <time>2019-06-20T09:50:35Z</time>
      </trkpt>
      <trkpt lat="43.681571" lon="-7.615368">
        <ele>44.708</ele>
        <time>2019-06-20T09:50:36Z</time>
      </trkpt>
      <trkpt lat="43.681821" lon="-7.615364">
        <ele>44.966</ele>
        <time>2019-06-20T09:50:37Z</time>
      </trkpt>
      <trkpt lat="43.682072" lon="-7.615356">
        <ele>45.750</ele>
        <time>2019-06-20T09:50:38Z</time>
      </trkpt>
      <trkpt lat="43.682325" lon="-7.615341">
        <ele>46.321</ele>
        <time>2019-06-20T09:50:39Z</time>
      </trkpt>
      <trkpt lat="43.682574" lon="-7.615322">
        <ele>47.957</ele>
        <time>2019-06-20T09:50:40Z</time>
      </trkpt>
      <trkpt lat="43.682834" lon="-7.615314">
        <ele>49.664</ele>
        <time>2019-06-20T09:50:41Z</time>
      </trkpt>
      <trkpt lat="43.683093" lon="-7.615309">
        <ele>48.885</ele>
        <time>2019-06-20T09:50:42Z</time>
      </trkpt>
      <trkpt lat="43.683344" lon="-7.615305">
        <ele>49.467</ele>
        <time>2019-06-20T09:50:43Z</time>
      </trkpt>
      <trkpt lat="43.683593" lon="-7.615307">
        <ele>50.214</ele>
        <time>2019-06-20T09:50:44Z</time>
      </trkpt>
      <trkpt lat="43.683835" lon="-7.615301">
        <ele>50.252</ele>
        <time>2019-06-20T09:50:45Z</time>
      </trkpt>
      <trkpt lat="43.684073" lon="-7.615297">
        <ele>50.953</ele>
        <time>2019-06-20T09:50:46Z</time>
      </trkpt>
      <trkpt lat="43.684313" lon="-7.615290">
        <ele>53.708</ele>
        <time>2019-06-20T09:50:47Z</time>
      </trkpt>
      <trkpt lat="43.684549" lon="-7.615272">
        <ele>55.508</ele>
        <time>2019-06-20T09:50:48Z</time>
      </trkpt>
      <trkpt lat="43.684775" lon="-7.615265">
        <ele>54.738</ele>
        <time>2019-06-20T09:50:49Z</time>
      </trkpt>
      <trkpt lat="43.684983" lon="-7.615260">
        <ele>54.652</ele>
        <time>2019-06-20T09:50:50Z</time>
      </trkpt>
      <trkpt lat="43.685195" lon="-7.615248">
        <ele>56.113</ele>
        <time>2019-06-20T09:50:51Z</time>
      </trkpt>
      <trkpt lat="43.685380" lon="-7.615244">
        <ele>55.659</ele>
        <time>2019-06-20T09:50:52Z</time>
      </trkpt>
      <trkpt lat="43.685530" lon="-7.615214">
        <ele>53.076</ele>
        <time>2019-06-20T09:50:53Z</time>
      </trkpt>
      <trkpt lat="43.685696" lon="-7.615215">
        <ele>49.517</ele>
        <time>2019-06-20T09:50:54Z</time>
      </trkpt>
      <trkpt lat="43.685863" lon="-7.615233">
        <ele>46.269</ele>
        <time>2019-06-20T09:50:55Z</time>
      </trkpt>
      <trkpt lat="43.686018" lon="-7.615266">
        <ele>43.126</ele>
        <time>2019-06-20T09:50:56Z</time>
      </trkpt>
      <trkpt lat="43.686172" lon="-7.615323">
        <ele>41.495</ele>
        <time>2019-06-20T09:50:57Z</time>
      </trkpt>
      <trkpt lat="43.686323" lon="-7.615389">
        <ele>40.749</ele>
        <time>2019-06-20T09:50:58Z</time>
      </trkpt>
      <trkpt lat="43.686442" lon="-7.615495">
        <ele>39.423</ele>
        <time>2019-06-20T09:50:59Z</time>
      </trkpt>
      <trkpt lat="43.686535" lon="-7.615636">
        <ele>38.008</ele>
        <time>2019-06-20T09:51:00Z</time>
      </trkpt>
      <trkpt lat="43.686623" lon="-7.615764">
        <ele>36.772</ele>
        <time>2019-06-20T09:51:01Z</time>
      </trkpt>
      <trkpt lat="43.686698" lon="-7.615914">
        <ele>35.426</ele>
        <time>2019-06-20T09:51:02Z</time>
      </trkpt>
      <trkpt lat="43.686766" lon="-7.616061">
        <ele>33.977</ele>
        <time>2019-06-20T09:51:03Z</time>
      </trkpt>
      <trkpt lat="43.686793" lon="-7.616246">
        <ele>33.063</ele>
        <time>2019-06-20T09:51:04Z</time>
      </trkpt>
      <trkpt lat="43.686819" lon="-7.616440">
        <ele>32.410</ele>
        <time>2019-06-20T09:51:05Z</time>
      </trkpt>
      <trkpt lat="43.686836" lon="-7.616633">
        <ele>32.291</ele>
        <time>2019-06-20T09:51:06Z</time>
      </trkpt>
      <trkpt lat="43.686835" lon="-7.616822">
        <ele>32.413</ele>
        <time>2019-06-20T09:51:07Z</time>
      </trkpt>
      <trkpt lat="43.686834" lon="-7.617018">
        <ele>32.210</ele>
        <time>2019-06-20T09:51:08Z</time>
      </trkpt>
      <trkpt lat="43.686816" lon="-7.617213">
        <ele>31.459</ele>
        <time>2019-06-20T09:51:09Z</time>
      </trkpt>
      <trkpt lat="43.686742" lon="-7.617436">
        <ele>30.603</ele>
        <time>2019-06-20T09:51:10Z</time>
      </trkpt>
      <trkpt lat="43.686695" lon="-7.617635">
        <ele>29.323</ele>
        <time>2019-06-20T09:51:11Z</time>
      </trkpt>
      <trkpt lat="43.686640" lon="-7.617833">
        <ele>28.008</ele>
        <time>2019-06-20T09:51:12Z</time>
      </trkpt>
      <trkpt lat="43.686592" lon="-7.618030">
        <ele>27.028</ele>
        <time>2019-06-20T09:51:13Z</time>
      </trkpt>
      <trkpt lat="43.686548" lon="-7.618231">
        <ele>26.072</ele>
        <time>2019-06-20T09:51:14Z</time>
      </trkpt>
      <trkpt lat="43.686500" lon="-7.618448">
        <ele>25.073</ele>
        <time>2019-06-20T09:51:15Z</time>
      </trkpt>
      <trkpt lat="43.686452" lon="-7.618658">
        <ele>24.059</ele>
        <time>2019-06-20T09:51:16Z</time>
      </trkpt>
      <trkpt lat="43.686403" lon="-7.618879">
        <ele>22.976</ele>
        <time>2019-06-20T09:51:17Z</time>
      </trkpt>
      <trkpt lat="43.686357" lon="-7.619085">
        <ele>25.287</ele>
        <time>2019-06-20T09:51:18Z</time>
      </trkpt>
      <trkpt lat="43.686313" lon="-7.619309">
        <ele>27.499</ele>
        <time>2019-06-20T09:51:19Z</time>
      </trkpt>
      <trkpt lat="43.686285" lon="-7.619535">
        <ele>28.366</ele>
        <time>2019-06-20T09:51:20Z</time>
      </trkpt>
      <trkpt lat="43.686275" lon="-7.619764">
        <ele>27.941</ele>
        <time>2019-06-20T09:51:21Z</time>
      </trkpt>
      <trkpt lat="43.686285" lon="-7.619986">
        <ele>26.981</ele>
        <time>2019-06-20T09:51:22Z</time>
      </trkpt>
      <trkpt lat="43.686316" lon="-7.620210">
        <ele>24.209</ele>
        <time>2019-06-20T09:51:23Z</time>
      </trkpt>
      <trkpt lat="43.686345" lon="-7.620434">
        <ele>22.908</ele>
        <time>2019-06-20T09:51:24Z</time>
      </trkpt>
      <trkpt lat="43.686424" lon="-7.620630">
        <ele>22.847</ele>
        <time>2019-06-20T09:51:25Z</time>
      </trkpt>
      <trkpt lat="43.686516" lon="-7.620832">
        <ele>24.211</ele>
        <time>2019-06-20T09:51:26Z</time>
      </trkpt>
      <trkpt lat="43.686622" lon="-7.621007">
        <ele>25.692</ele>
        <time>2019-06-20T09:51:27Z</time>
      </trkpt>
      <trkpt lat="43.686730" lon="-7.621188">
        <ele>24.518</ele>
        <time>2019-06-20T09:51:28Z</time>
      </trkpt>
      <trkpt lat="43.686870" lon="-7.621342">
        <ele>21.115</ele>
        <time>2019-06-20T09:51:29Z</time>
      </trkpt>
      <trkpt lat="43.687030" lon="-7.621461">
        <ele>18.946</ele>
        <time>2019-06-20T09:51:30Z</time>
      </trkpt>
      <trkpt lat="43.687183" lon="-7.621553">
        <ele>18.558</ele>
        <time>2019-06-20T09:51:31Z</time>
      </trkpt>
      <trkpt lat="43.687342" lon="-7.621621">
        <ele>19.735</ele>
        <time>2019-06-20T09:51:32Z</time>
      </trkpt>
      <trkpt lat="43.687496" lon="-7.621636">
        <ele>21.061</ele>
        <time>2019-06-20T09:51:33Z</time>
      </trkpt>
      <trkpt lat="43.687657" lon="-7.621676">
        <ele>23.821</ele>
        <time>2019-06-20T09:51:34Z</time>
      </trkpt>
      <trkpt lat="43.687828" lon="-7.621724">
        <ele>26.713</ele>
        <time>2019-06-20T09:51:35Z</time>
      </trkpt>
      <trkpt lat="43.687976" lon="-7.621787">
        <ele>28.508</ele>
        <time>2019-06-20T09:51:36Z</time>
      </trkpt>
      <trkpt lat="43.688140" lon="-7.621852">
        <ele>29.989</ele>
        <time>2019-06-20T09:51:37Z</time>
      </trkpt>
      <trkpt lat="43.688285" lon="-7.621967">
        <ele>30.673</ele>
        <time>2019-06-20T09:51:38Z</time>
      </trkpt>
      <trkpt lat="43.688416" lon="-7.622107">
        <ele>31.864</ele>
        <time>2019-06-20T09:51:39Z</time>
      </trkpt>
      <trkpt lat="43.688534" lon="-7.622272">
        <ele>33.590</ele>
        <time>2019-06-20T09:51:40Z</time>
      </trkpt>
      <trkpt lat="43.688639" lon="-7.622456">
        <ele>35.837</ele>
        <time>2019-06-20T09:51:41Z</time>
      </trkpt>
      <trkpt lat="43.688738" lon="-7.622640">
        <ele>37.928</ele>
        <time>2019-06-20T09:51:42Z</time>
      </trkpt>
      <trkpt lat="43.688835" lon="-7.622819">
        <ele>39.710</ele>
        <time>2019-06-20T09:51:43Z</time>
      </trkpt>
      <trkpt lat="43.688933" lon="-7.623015">
        <ele>38.567</ele>
        <time>2019-06-20T09:51:44Z</time>
      </trkpt>
      <trkpt lat="43.689031" lon="-7.623206">
        <ele>38.224</ele>
        <time>2019-06-20T09:51:45Z</time>
      </trkpt>
      <trkpt lat="43.689130" lon="-7.623403">
        <ele>39.304</ele>
        <time>2019-06-20T09:51:46Z</time>
      </trkpt>
      <trkpt lat="43.689231" lon="-7.623595">
        <ele>42.614</ele>
        <time>2019-06-20T09:51:47Z</time>
      </trkpt>
      <trkpt lat="43.689329" lon="-7.623789">
        <ele>44.208</ele>
        <time>2019-06-20T09:51:48Z</time>
      </trkpt>
      <trkpt lat="43.689441" lon="-7.623983">
        <ele>45.945</ele>
        <time>2019-06-20T09:51:49Z</time>
      </trkpt>
      <trkpt lat="43.689548" lon="-7.624175">
        <ele>44.929</ele>
        <time>2019-06-20T09:51:50Z</time>
      </trkpt>
      <trkpt lat="43.689662" lon="-7.624368">
        <ele>42.460</ele>
        <time>2019-06-20T09:51:51Z</time>
      </trkpt>
      <trkpt lat="43.689789" lon="-7.624560">
        <ele>40.756</ele>
        <time>2019-06-20T09:51:52Z</time>
      </trkpt>
      <trkpt lat="43.689914" lon="-7.624767">
        <ele>40.993</ele>
        <time>2019-06-20T09:51:53Z</time>
      </trkpt>
      <trkpt lat="43.690040" lon="-7.624963">
        <ele>42.744</ele>
        <time>2019-06-20T09:51:54Z</time>
      </trkpt>
      <trkpt lat="43.690168" lon="-7.625136">
        <ele>44.276</ele>
        <time>2019-06-20T09:51:55Z</time>
      </trkpt>
      <trkpt lat="43.690293" lon="-7.625319">
        <ele>46.253</ele>
        <time>2019-06-20T09:51:56Z</time>
      </trkpt>
      <trkpt lat="43.690407" lon="-7.625502">
        <ele>47.842</ele>
        <time>2019-06-20T09:51:57Z</time>
      </trkpt>
      <trkpt lat="43.690505" lon="-7.625702">
        <ele>50.322</ele>
        <time>2019-06-20T09:51:58Z</time>
      </trkpt>
      <trkpt lat="43.690591" lon="-7.625917">
        <ele>52.714</ele>
        <time>2019-06-20T09:51:59Z</time>
      </trkpt>
      <trkpt lat="43.690655" lon="-7.626152">
        <ele>54.608</ele>
        <time>2019-06-20T09:52:00Z</time>
      </trkpt>
      <trkpt lat="43.690696" lon="-7.626394">
        <ele>56.087</ele>
        <time>2019-06-20T09:52:01Z</time>
      </trkpt>
      <trkpt lat="43.690742" lon="-7.626677">
        <ele>57.441</ele>
        <time>2019-06-20T09:52:02Z</time>
      </trkpt>
      <trkpt lat="43.690792" lon="-7.626945">
        <ele>59.412</ele>
        <time>2019-06-20T09:52:03Z</time>
      </trkpt>
      <trkpt lat="43.690843" lon="-7.627220">
        <ele>62.298</ele>
        <time>2019-06-20T09:52:04Z</time>
      </trkpt>
      <trkpt lat="43.690888" lon="-7.627489">
        <ele>64.165</ele>
        <time>2019-06-20T09:52:05Z</time>
      </trkpt>
      <trkpt lat="43.690958" lon="-7.627780">
        <ele>68.876</ele>
        <time>2019-06-20T09:52:06Z</time>
      </trkpt>
      <trkpt lat="43.691021" lon="-7.628064">
        <ele>75.228</ele>
        <time>2019-06-20T09:52:07Z</time>
      </trkpt>
      <trkpt lat="43.691083" lon="-7.628339">
        <ele>80.525</ele>
        <time>2019-06-20T09:52:08Z</time>
      </trkpt>
      <trkpt lat="43.691129" lon="-7.628615">
        <ele>83.424</ele>
        <time>2019-06-20T09:52:09Z</time>
      </trkpt>
      <trkpt lat="43.691185" lon="-7.628899">
        <ele>83.004</ele>
        <time>2019-06-20T09:52:10Z</time>
      </trkpt>
      <trkpt lat="43.691254" lon="-7.629179">
        <ele>81.614</ele>
        <time>2019-06-20T09:52:11Z</time>
      </trkpt>
      <trkpt lat="43.691326" lon="-7.629464">
        <ele>82.708</ele>
        <time>2019-06-20T09:52:12Z</time>
      </trkpt>
      <trkpt lat="43.691393" lon="-7.629735">
        <ele>84.255</ele>
        <time>2019-06-20T09:52:13Z</time>
      </trkpt>
      <trkpt lat="43.691471" lon="-7.629993">
        <ele>86.499</ele>
        <time>2019-06-20T09:52:14Z</time>
      </trkpt>
      <trkpt lat="43.691560" lon="-7.630237">
        <ele>87.760</ele>
        <time>2019-06-20T09:52:15Z</time>
      </trkpt>
      <trkpt lat="43.691669" lon="-7.630455">
        <ele>86.546</ele>
        <time>2019-06-20T09:52:16Z</time>
      </trkpt>
      <trkpt lat="43.691795" lon="-7.630674">
        <ele>83.523</ele>
        <time>2019-06-20T09:52:17Z</time>
      </trkpt>
      <trkpt lat="43.691946" lon="-7.630883">
        <ele>81.394</ele>
        <time>2019-06-20T09:52:18Z</time>
      </trkpt>
      <trkpt lat="43.692103" lon="-7.631102">
        <ele>82.176</ele>
        <time>2019-06-20T09:52:19Z</time>
      </trkpt>
      <trkpt lat="43.692261" lon="-7.631316">
        <ele>82.213</ele>
        <time>2019-06-20T09:52:20Z</time>
      </trkpt>
      <trkpt lat="43.692421" lon="-7.631526">
        <ele>83.961</ele>
        <time>2019-06-20T09:52:21Z</time>
      </trkpt>
      <trkpt lat="43.692569" lon="-7.631754">
        <ele>87.121</ele>
        <time>2019-06-20T09:52:22Z</time>
      </trkpt>
      <trkpt lat="43.692708" lon="-7.631993">
        <ele>90.913</ele>
        <time>2019-06-20T09:52:23Z</time>
      </trkpt>
      <trkpt lat="43.692853" lon="-7.632226">
        <ele>94.808</ele>
        <time>2019-06-20T09:52:24Z</time>
      </trkpt>
      <trkpt lat="43.693012" lon="-7.632443">
        <ele>95.579</ele>
        <time>2019-06-20T09:52:25Z</time>
      </trkpt>
      <trkpt lat="43.693160" lon="-7.632661">
        <ele>94.173</ele>
        <time>2019-06-20T09:52:26Z</time>
      </trkpt>
      <trkpt lat="43.693308" lon="-7.632889">
        <ele>93.314</ele>
        <time>2019-06-20T09:52:27Z</time>
      </trkpt>
      <trkpt lat="43.693456" lon="-7.633118">
        <ele>94.210</ele>
        <time>2019-06-20T09:52:28Z</time>
      </trkpt>
      <trkpt lat="43.693599" lon="-7.633328">
        <ele>94.977</ele>
        <time>2019-06-20T09:52:29Z</time>
      </trkpt>
      <trkpt lat="43.693735" lon="-7.633543">
        <ele>97.088</ele>
        <time>2019-06-20T09:52:30Z</time>
      </trkpt>
      <trkpt lat="43.693855" lon="-7.633746">
        <ele>98.890</ele>
        <time>2019-06-20T09:52:31Z</time>
      </trkpt>
      <trkpt lat="43.693968" lon="-7.633931">
        <ele>99.787</ele>
        <time>2019-06-20T09:52:32Z</time>
      </trkpt>
      <trkpt lat="43.694084" lon="-7.634099">
        <ele>100.922</ele>
        <time>2019-06-20T09:52:33Z</time>
      </trkpt>
      <trkpt lat="43.694198" lon="-7.634269">
        <ele>102.062</ele>
        <time>2019-06-20T09:52:34Z</time>
      </trkpt>
      <trkpt lat="43.694314" lon="-7.634429">
        <ele>102.608</ele>
        <time>2019-06-20T09:52:35Z</time>
      </trkpt>
      <trkpt lat="43.694437" lon="-7.634580">
        <ele>103.408</ele>
        <time>2019-06-20T09:52:36Z</time>
      </trkpt>
      <trkpt lat="43.694568" lon="-7.634726">
        <ele>104.325</ele>
        <time>2019-06-20T09:52:37Z</time>
      </trkpt>
      <trkpt lat="43.694712" lon="-7.634853">
        <ele>104.969</ele>
        <time>2019-06-20T09:52:38Z</time>
      </trkpt>
      <trkpt lat="43.694858" lon="-7.634956">
        <ele>105.920</ele>
        <time>2019-06-20T09:52:39Z</time>
      </trkpt>
      <trkpt lat="43.695006" lon="-7.635036">
        <ele>106.786</ele>
        <time>2019-06-20T09:52:40Z</time>
      </trkpt>
      <trkpt lat="43.695153" lon="-7.635103">
        <ele>107.253</ele>
        <time>2019-06-20T09:52:41Z</time>
      </trkpt>
      <trkpt lat="43.695290" lon="-7.635162">
        <ele>107.934</ele>
        <time>2019-06-20T09:52:42Z</time>
      </trkpt>
      <trkpt lat="43.695426" lon="-7.635199">
        <ele>107.966</ele>
        <time>2019-06-20T09:52:43Z</time>
      </trkpt>
      <trkpt lat="43.695563" lon="-7.635208">
        <ele>108.353</ele>
        <time>2019-06-20T09:52:44Z</time>
      </trkpt>
      <trkpt lat="43.695695" lon="-7.635179">
        <ele>108.432</ele>
        <time>2019-06-20T09:52:45Z</time>
      </trkpt>
      <trkpt lat="43.695835" lon="-7.635118">
        <ele>108.692</ele>
        <time>2019-06-20T09:52:46Z</time>
      </trkpt>
      <trkpt lat="43.695980" lon="-7.635039">
        <ele>108.911</ele>
        <time>2019-06-20T09:52:47Z</time>
      </trkpt>
      <trkpt lat="43.696130" lon="-7.634944">
        <ele>109.508</ele>
        <time>2019-06-20T09:52:48Z</time>
      </trkpt>
      <trkpt lat="43.696283" lon="-7.634835">
        <ele>110.496</ele>
        <time>2019-06-20T09:52:49Z</time>
      </trkpt>
      <trkpt lat="43.696441" lon="-7.634717">
        <ele>110.610</ele>
        <time>2019-06-20T09:52:50Z</time>
      </trkpt>
      <trkpt lat="43.696595" lon="-7.634594">
        <ele>110.051</ele>
        <time>2019-06-20T09:52:51Z</time>
      </trkpt>
      <trkpt lat="43.696752" lon="-7.634469">
        <ele>109.057</ele>
        <time>2019-06-20T09:52:52Z</time>
      </trkpt>
      <trkpt lat="43.696909" lon="-7.634342">
        <ele>109.454</ele>
        <time>2019-06-20T09:52:53Z</time>
      </trkpt>
      <trkpt lat="43.697089" lon="-7.634221">
        <ele>110.365</ele>
        <time>2019-06-20T09:52:54Z</time>
      </trkpt>
      <trkpt lat="43.697295" lon="-7.634082">
        <ele>110.437</ele>
        <time>2019-06-20T09:52:55Z</time>
      </trkpt>
      <trkpt lat="43.697486" lon="-7.633930">
        <ele>108.674</ele>
        <time>2019-06-20T09:52:56Z</time>
      </trkpt>
      <trkpt lat="43.697675" lon="-7.633785">
        <ele>104.731</ele>
        <time>2019-06-20T09:52:57Z</time>
      </trkpt>
      <trkpt lat="43.697886" lon="-7.633635">
        <ele>100.061</ele>
        <time>2019-06-20T09:52:58Z</time>
      </trkpt>
      <trkpt lat="43.698099" lon="-7.633471">
        <ele>97.007</ele>
        <time>2019-06-20T09:52:59Z</time>
      </trkpt>
      <trkpt lat="43.698332" lon="-7.633316">
        <ele>96.408</ele>
        <time>2019-06-20T09:53:00Z</time>
      </trkpt>
      <trkpt lat="43.698546" lon="-7.633163">
        <ele>96.426</ele>
        <time>2019-06-20T09:53:01Z</time>
      </trkpt>
      <trkpt lat="43.698785" lon="-7.633000">
        <ele>96.540</ele>
        <time>2019-06-20T09:53:02Z</time>
      </trkpt>
      <trkpt lat="43.699032" lon="-7.632838">
        <ele>96.631</ele>
        <time>2019-06-20T09:53:03Z</time>
      </trkpt>
      <trkpt lat="43.699279" lon="-7.632668">
        <ele>97.587</ele>
        <time>2019-06-20T09:53:04Z</time>
      </trkpt>
      <trkpt lat="43.699525" lon="-7.632494">
        <ele>97.514</ele>
        <time>2019-06-20T09:53:05Z</time>
      </trkpt>
      <trkpt lat="43.699740" lon="-7.632305">
        <ele>97.585</ele>
        <time>2019-06-20T09:53:06Z</time>
      </trkpt>
      <trkpt lat="43.699956" lon="-7.632119">
        <ele>91.957</ele>
        <time>2019-06-20T09:53:07Z</time>
      </trkpt>
      <trkpt lat="43.700199" lon="-7.631942">
        <ele>84.654</ele>
        <time>2019-06-20T09:53:08Z</time>
      </trkpt>
      <trkpt lat="43.700427" lon="-7.631754">
        <ele>82.176</ele>
        <time>2019-06-20T09:53:09Z</time>
      </trkpt>
      <trkpt lat="43.700678" lon="-7.631564">
        <ele>81.090</ele>
        <time>2019-06-20T09:53:10Z</time>
      </trkpt>
      <trkpt lat="43.700927" lon="-7.631401">
        <ele>80.119</ele>
        <time>2019-06-20T09:53:11Z</time>
      </trkpt>
      <trkpt lat="43.701173" lon="-7.631225">
        <ele>80.308</ele>
        <time>2019-06-20T09:53:12Z</time>
      </trkpt>
      <trkpt lat="43.701426" lon="-7.631046">
        <ele>79.270</ele>
        <time>2019-06-20T09:53:13Z</time>
      </trkpt>
      <trkpt lat="43.701665" lon="-7.630868">
        <ele>79.214</ele>
        <time>2019-06-20T09:53:14Z</time>
      </trkpt>
      <trkpt lat="43.701943" lon="-7.630733">
        <ele>75.525</ele>
        <time>2019-06-20T09:53:15Z</time>
      </trkpt>
      <trkpt lat="43.702247" lon="-7.630583">
        <ele>75.221</ele>
        <time>2019-06-20T09:53:16Z</time>
      </trkpt>
      <trkpt lat="43.702532" lon="-7.630447">
        <ele>76.488</ele>
        <time>2019-06-20T09:53:17Z</time>
      </trkpt>
      <trkpt lat="43.702828" lon="-7.630305">
        <ele>76.049</ele>
        <time>2019-06-20T09:53:18Z</time>
      </trkpt>
      <trkpt lat="43.703121" lon="-7.630172">
        <ele>73.921</ele>
        <time>2019-06-20T09:53:19Z</time>
      </trkpt>
      <trkpt lat="43.703360" lon="-7.630028">
        <ele>72.378</ele>
        <time>2019-06-20T09:53:20Z</time>
      </trkpt>
      <trkpt lat="43.703634" lon="-7.629900">
        <ele>70.656</ele>
        <time>2019-06-20T09:53:21Z</time>
      </trkpt>
      <trkpt lat="43.703906" lon="-7.629772">
        <ele>65.159</ele>
        <time>2019-06-20T09:53:22Z</time>
      </trkpt>
      <trkpt lat="43.704185" lon="-7.629651">
        <ele>60.814</ele>
        <time>2019-06-20T09:53:23Z</time>
      </trkpt>
      <trkpt lat="43.704463" lon="-7.629529">
        <ele>58.608</ele>
        <time>2019-06-20T09:53:24Z</time>
      </trkpt>
      <trkpt lat="43.704742" lon="-7.629412">
        <ele>59.048</ele>
        <time>2019-06-20T09:53:25Z</time>
      </trkpt>
      <trkpt lat="43.705007" lon="-7.629296">
        <ele>61.092</ele>
        <time>2019-06-20T09:53:26Z</time>
      </trkpt>
      <trkpt lat="43.705284" lon="-7.629182">
        <ele>56.853</ele>
        <time>2019-06-20T09:53:27Z</time>
      </trkpt>
      <trkpt lat="43.705545" lon="-7.629069">
        <ele>52.769</ele>
        <time>2019-06-20T09:53:28Z</time>
      </trkpt>
      <trkpt lat="43.705824" lon="-7.628957">
        <ele>51.936</ele>
        <time>2019-06-20T09:53:29Z</time>
      </trkpt>
      <trkpt lat="43.706101" lon="-7.628835">
        <ele>51.357</ele>
        <time>2019-06-20T09:53:30Z</time>
      </trkpt>
      <trkpt lat="43.706333" lon="-7.628724">
        <ele>49.449</ele>
        <time>2019-06-20T09:53:31Z</time>
      </trkpt>
      <trkpt lat="43.706585" lon="-7.628623">
        <ele>43.616</ele>
        <time>2019-06-20T09:53:32Z</time>
      </trkpt>
      <trkpt lat="43.706821" lon="-7.628506">
        <ele>39.978</ele>
        <time>2019-06-20T09:53:33Z</time>
      </trkpt>
      <trkpt lat="43.707063" lon="-7.628395">
        <ele>40.033</ele>
        <time>2019-06-20T09:53:34Z</time>
      </trkpt>
      <trkpt lat="43.707253" lon="-7.628265">
        <ele>43.626</ele>
        <time>2019-06-20T09:53:35Z</time>
      </trkpt>
      <trkpt lat="43.707472" lon="-7.628160">
        <ele>46.908</ele>
        <time>2019-06-20T09:53:36Z</time>
      </trkpt>
      <trkpt lat="43.707709" lon="-7.628059">
        <ele>46.090</ele>
        <time>2019-06-20T09:53:37Z</time>
      </trkpt>
      <trkpt lat="43.707951" lon="-7.627971">
        <ele>46.054</ele>
        <time>2019-06-20T09:53:38Z</time>
      </trkpt>
      <trkpt lat="43.708180" lon="-7.627866">
        <ele>45.695</ele>
        <time>2019-06-20T09:53:39Z</time>
      </trkpt>
      <trkpt lat="43.708392" lon="-7.627771">
        <ele>45.321</ele>
        <time>2019-06-20T09:53:40Z</time>
      </trkpt>
      <trkpt lat="43.708573" lon="-7.627693">
        <ele>44.798</ele>
        <time>2019-06-20T09:53:41Z</time>
      </trkpt>
      <trkpt lat="43.708775" lon="-7.627634">
        <ele>44.559</ele>
        <time>2019-06-20T09:53:42Z</time>
      </trkpt>
      <trkpt lat="43.708960" lon="-7.627572">
        <ele>43.651</ele>
        <time>2019-06-20T09:53:43Z</time>
      </trkpt>
      <trkpt lat="43.709151" lon="-7.627497">
        <ele>42.768</ele>
        <time>2019-06-20T09:53:44Z</time>
      </trkpt>
      <trkpt lat="43.709338" lon="-7.627433">
        <ele>41.154</ele>
        <time>2019-06-20T09:53:45Z</time>
      </trkpt>
      <trkpt lat="43.709509" lon="-7.627364">
        <ele>38.556</ele>
        <time>2019-06-20T09:53:46Z</time>
      </trkpt>
      <trkpt lat="43.709700" lon="-7.627291">
        <ele>35.811</ele>
        <time>2019-06-20T09:53:47Z</time>
      </trkpt>
      <trkpt lat="43.709892" lon="-7.627227">
        <ele>32.608</ele>
        <time>2019-06-20T09:53:48Z</time>
      </trkpt>
      <trkpt lat="43.710075" lon="-7.627155">
        <ele>29.818</ele>
        <time>2019-06-20T09:53:49Z</time>
      </trkpt>
      <trkpt lat="43.710254" lon="-7.627081">
        <ele>26.462</ele>
        <time>2019-06-20T09:53:50Z</time>
      </trkpt>
      <trkpt lat="43.710423" lon="-7.627003">
        <ele>25.063</ele>
        <time>2019-06-20T09:53:51Z</time>
      </trkpt>
      <trkpt lat="43.710592" lon="-7.626924">
        <ele>24.219</ele>
        <time>2019-06-20T09:53:52Z</time>
      </trkpt>
      <trkpt lat="43.710764" lon="-7.626853">
        <ele>25.096</ele>
        <time>2019-06-20T09:53:53Z</time>
      </trkpt>
      <trkpt lat="43.710921" lon="-7.626788">
        <ele>25.987</ele>
        <time>2019-06-20T09:53:54Z</time>
      </trkpt>
      <trkpt lat="43.711081" lon="-7.626727">
        <ele>27.289</ele>
        <time>2019-06-20T09:53:55Z</time>
      </trkpt>
      <trkpt lat="43.711249" lon="-7.626681">
        <ele>29.536</ele>
        <time>2019-06-20T09:53:56Z</time>
      </trkpt>
      <trkpt lat="43.711405" lon="-7.626651">
        <ele>31.963</ele>
        <time>2019-06-20T09:53:57Z</time>
      </trkpt>
      <trkpt lat="43.711557" lon="-7.626605">
        <ele>31.644</ele>
        <time>2019-06-20T09:53:58Z</time>
      </trkpt>
      <trkpt lat="43.711727" lon="-7.626589">
        <ele>31.218</ele>
        <time>2019-06-20T09:53:59Z</time>
      </trkpt>
      <trkpt lat="43.711946" lon="-7.626585">
        <ele>30.108</ele>
        <time>2019-06-20T09:54:00Z</time>
      </trkpt>
      <trkpt lat="43.712144" lon="-7.626574">
        <ele>28.819</ele>
        <time>2019-06-20T09:54:01Z</time>
      </trkpt>
      <trkpt lat="43.712358" lon="-7.626567">
        <ele>28.153</ele>
        <time>2019-06-20T09:54:02Z</time>
      </trkpt>
      <trkpt lat="43.712572" lon="-7.626543">
        <ele>27.934</ele>
        <time>2019-06-20T09:54:03Z</time>
      </trkpt>
      <trkpt lat="43.712782" lon="-7.626525">
        <ele>28.510</ele>
        <time>2019-06-20T09:54:04Z</time>
      </trkpt>
      <trkpt lat="43.713004" lon="-7.626504">
        <ele>28.247</ele>
        <time>2019-06-20T09:54:05Z</time>
      </trkpt>
      <trkpt lat="43.713230" lon="-7.626487">
        <ele>29.128</ele>
        <time>2019-06-20T09:54:06Z</time>
      </trkpt>
      <trkpt lat="43.713462" lon="-7.626477">
        <ele>29.850</ele>
        <time>2019-06-20T09:54:07Z</time>
      </trkpt>
      <trkpt lat="43.713681" lon="-7.626474">
        <ele>29.957</ele>
        <time>2019-06-20T09:54:08Z</time>
      </trkpt>
      <trkpt lat="43.713905" lon="-7.626477">
        <ele>30.159</ele>
        <time>2019-06-20T09:54:09Z</time>
      </trkpt>
      <trkpt lat="43.714107" lon="-7.626508">
        <ele>31.903</ele>
        <time>2019-06-20T09:54:10Z</time>
      </trkpt>
      <trkpt lat="43.714323" lon="-7.626552">
        <ele>32.823</ele>
        <time>2019-06-20T09:54:11Z</time>
      </trkpt>
      <trkpt lat="43.714520" lon="-7.626636">
        <ele>33.508</ele>
        <time>2019-06-20T09:54:12Z</time>
      </trkpt>
      <trkpt lat="43.714701" lon="-7.626741">
        <ele>33.648</ele>
        <time>2019-06-20T09:54:13Z</time>
      </trkpt>
      <trkpt lat="43.714873" lon="-7.626873">
        <ele>33.972</ele>
        <time>2019-06-20T09:54:14Z</time>
      </trkpt>
      <trkpt lat="43.715049" lon="-7.627032">
        <ele>33.963</ele>
        <time>2019-06-20T09:54:15Z</time>
      </trkpt>
      <trkpt lat="43.715223" lon="-7.627186">
        <ele>32.669</ele>
        <time>2019-06-20T09:54:16Z</time>
      </trkpt>
      <trkpt lat="43.715390" lon="-7.627412">
        <ele>29.956</ele>
        <time>2019-06-20T09:54:17Z</time>
      </trkpt>
      <trkpt lat="43.715570" lon="-7.627611">
        <ele>27.527</ele>
        <time>2019-06-20T09:54:18Z</time>
      </trkpt>
      <trkpt lat="43.715734" lon="-7.627818">
        <ele>26.689</ele>
        <time>2019-06-20T09:54:19Z</time>
      </trkpt>
      <trkpt lat="43.715899" lon="-7.628028">
        <ele>26.596</ele>
        <time>2019-06-20T09:54:20Z</time>
      </trkpt>
      <trkpt lat="43.716074" lon="-7.628222">
        <ele>26.794</ele>
        <time>2019-06-20T09:54:21Z</time>
      </trkpt>
      <trkpt lat="43.716259" lon="-7.628391">
        <ele>27.657</ele>
        <time>2019-06-20T09:54:22Z</time>
      </trkpt>
      <trkpt lat="43.716453" lon="-7.628534">
        <ele>27.722</ele>
        <time>2019-06-20T09:54:23Z</time>
      </trkpt>
      <trkpt lat="43.716661" lon="-7.628674">
        <ele>24.908</ele>
        <time>2019-06-20T09:54:24Z</time>
      </trkpt>
      <trkpt lat="43.716883" lon="-7.628784">
        <ele>22.652</ele>
        <time>2019-06-20T09:54:25Z</time>
      </trkpt>
      <trkpt lat="43.717123" lon="-7.628883">
        <ele>19.826</ele>
        <time>2019-06-20T09:54:26Z</time>
      </trkpt>
      <trkpt lat="43.717375" lon="-7.628968">
        <ele>16.057</ele>
        <time>2019-06-20T09:54:27Z</time>
      </trkpt>
      <trkpt lat="43.717633" lon="-7.629043">
        <ele>11.323</ele>
        <time>2019-06-20T09:54:28Z</time>
      </trkpt>
      <trkpt lat="43.717897" lon="-7.629117">
        <ele>8.160</ele>
        <time>2019-06-20T09:54:29Z</time>
      </trkpt>
      <trkpt lat="43.718157" lon="-7.629186">
        <ele>8.361</ele>
        <time>2019-06-20T09:54:30Z</time>
      </trkpt>
      <trkpt lat="43.718417" lon="-7.629267">
        <ele>8.513</ele>
        <time>2019-06-20T09:54:31Z</time>
      </trkpt>
      <trkpt lat="43.718685" lon="-7.629408">
        <ele>7.840</ele>
        <time>2019-06-20T09:54:32Z</time>
      </trkpt>
      <trkpt lat="43.718934" lon="-7.629534">
        <ele>9.149</ele>
        <time>2019-06-20T09:54:33Z</time>
      </trkpt>
      <trkpt lat="43.719177" lon="-7.629671">
        <ele>10.402</ele>
        <time>2019-06-20T09:54:34Z</time>
      </trkpt>
      <trkpt lat="43.719404" lon="-7.629840">
        <ele>11.722</ele>
        <time>2019-06-20T09:54:35Z</time>
      </trkpt>
      <trkpt lat="43.719642" lon="-7.629992">
        <ele>14.808</ele>
        <time>2019-06-20T09:54:36Z</time>
      </trkpt>
      <trkpt lat="43.719870" lon="-7.630159">
        <ele>18.127</ele>
        <time>2019-06-20T09:54:37Z</time>
      </trkpt>
      <trkpt lat="43.720092" lon="-7.630315">
        <ele>19.741</ele>
        <time>2019-06-20T09:54:38Z</time>
      </trkpt>
      <trkpt lat="43.720337" lon="-7.630478">
        <ele>21.442</ele>
        <time>2019-06-20T09:54:39Z</time>
      </trkpt>
      <trkpt lat="43.720565" lon="-7.630626">
        <ele>23.978</ele>
        <time>2019-06-20T09:54:40Z</time>
      </trkpt>
      <trkpt lat="43.720795" lon="-7.630767">
        <ele>28.015</ele>
        <time>2019-06-20T09:54:41Z</time>
      </trkpt>
      <trkpt lat="43.721028" lon="-7.630903">
        <ele>32.986</ele>
        <time>2019-06-20T09:54:42Z</time>
      </trkpt>
      <trkpt lat="43.721253" lon="-7.631034">
        <ele>34.128</ele>
        <time>2019-06-20T09:54:43Z</time>
      </trkpt>
      <trkpt lat="43.721495" lon="-7.631170">
        <ele>33.495</ele>
        <time>2019-06-20T09:54:44Z</time>
      </trkpt>
      <trkpt lat="43.721723" lon="-7.631301">
        <ele>32.715</ele>
        <time>2019-06-20T09:54:45Z</time>
      </trkpt>
      <trkpt lat="43.721940" lon="-7.631444">
        <ele>32.665</ele>
        <time>2019-06-20T09:54:46Z</time>
      </trkpt>
      <trkpt lat="43.722164" lon="-7.631590">
        <ele>34.511</ele>
        <time>2019-06-20T09:54:47Z</time>
      </trkpt>
      <trkpt lat="43.722386" lon="-7.631724">
        <ele>33.408</ele>
        <time>2019-06-20T09:54:48Z</time>
      </trkpt>
      <trkpt lat="43.722623" lon="-7.631870">
        <ele>31.844</ele>
        <time>2019-06-20T09:54:49Z</time>
      </trkpt>
      <trkpt lat="43.722854" lon="-7.632008">
        <ele>31.398</ele>
        <time>2019-06-20T09:54:50Z</time>
      </trkpt>
      <trkpt lat="43.723080" lon="-7.632146">
        <ele>32.129</ele>
        <time>2019-06-20T09:54:51Z</time>
      </trkpt>
      <trkpt lat="43.723312" lon="-7.632291">
        <ele>32.995</ele>
        <time>2019-06-20T09:54:52Z</time>
      </trkpt>
      <trkpt lat="43.723537" lon="-7.632438">
        <ele>33.782</ele>
        <time>2019-06-20T09:54:53Z</time>
      </trkpt>
      <trkpt lat="43.723777" lon="-7.632590">
        <ele>34.543</ele>
        <time>2019-06-20T09:54:54Z</time>
      </trkpt>
      <trkpt lat="43.724010" lon="-7.632722">
        <ele>35.725</ele>
        <time>2019-06-20T09:54:55Z</time>
      </trkpt>
      <trkpt lat="43.724237" lon="-7.632863">
        <ele>37.122</ele>
        <time>2019-06-20T09:54:56Z</time>
      </trkpt>
      <trkpt lat="43.724466" lon="-7.633001">
        <ele>39.782</ele>
        <time>2019-06-20T09:54:57Z</time>
      </trkpt>
      <trkpt lat="43.724691" lon="-7.633123">
        <ele>40.943</ele>
        <time>2019-06-20T09:54:58Z</time>
      </trkpt>
      <trkpt lat="43.724921" lon="-7.633228">
        <ele>42.717</ele>
        <time>2019-06-20T09:54:59Z</time>
      </trkpt>
      <trkpt lat="43.725152" lon="-7.633312">
        <ele>45.808</ele>
        <time>2019-06-20T09:55:00Z</time>
      </trkpt>
      <trkpt lat="43.725399" lon="-7.633376">
        <ele>48.721</ele>
        <time>2019-06-20T09:55:01Z</time>
      </trkpt>
      <trkpt lat="43.725633" lon="-7.633426">
        <ele>49.875</ele>
        <time>2019-06-20T09:55:02Z</time>
      </trkpt>
      <trkpt lat="43.725862" lon="-7.633454">
        <ele>50.316</ele>
        <time>2019-06-20T09:55:03Z</time>
      </trkpt>
      <trkpt lat="43.726093" lon="-7.633497">
        <ele>52.412</ele>
        <time>2019-06-20T09:55:04Z</time>
      </trkpt>
      <trkpt lat="43.726322" lon="-7.633464">
        <ele>53.679</ele>
        <time>2019-06-20T09:55:05Z</time>
      </trkpt>
      <trkpt lat="43.726565" lon="-7.633430">
        <ele>55.910</ele>
        <time>2019-06-20T09:55:06Z</time>
      </trkpt>
      <trkpt lat="43.726808" lon="-7.633392">
        <ele>59.562</ele>
        <time>2019-06-20T09:55:07Z</time>
      </trkpt>
      <trkpt lat="43.727047" lon="-7.633324">
        <ele>63.179</ele>
        <time>2019-06-20T09:55:08Z</time>
      </trkpt>
      <trkpt lat="43.727277" lon="-7.633236">
        <ele>65.959</ele>
        <time>2019-06-20T09:55:09Z</time>
      </trkpt>
      <trkpt lat="43.727503" lon="-7.633148">
        <ele>67.703</ele>
        <time>2019-06-20T09:55:10Z</time>
      </trkpt>
      <trkpt lat="43.727728" lon="-7.633051">
        <ele>69.423</ele>
        <time>2019-06-20T09:55:11Z</time>
      </trkpt>
      <trkpt lat="43.727940" lon="-7.632961">
        <ele>71.408</ele>
        <time>2019-06-20T09:55:12Z</time>
      </trkpt>
      <trkpt lat="43.728145" lon="-7.632874">
        <ele>72.648</ele>
        <time>2019-06-20T09:55:13Z</time>
      </trkpt>
      <trkpt lat="43.728354" lon="-7.632804">
        <ele>72.272</ele>
        <time>2019-06-20T09:55:14Z</time>
      </trkpt>
      <trkpt lat="43.728563" lon="-7.632767">
        <ele>71.193</ele>
        <time>2019-06-20T09:55:15Z</time>
      </trkpt>
      <trkpt lat="43.728767" lon="-7.632774">
        <ele>71.039</ele>
        <time>2019-06-20T09:55:16Z</time>
      </trkpt>
      <trkpt lat="43.728962" lon="-7.632812">
        <ele>71.056</ele>
        <time>2019-06-20T09:55:17Z</time>
      </trkpt>
      <trkpt lat="43.729168" lon="-7.632897">
        <ele>71.337</ele>
        <time>2019-06-20T09:55:18Z</time>
      </trkpt>
      <trkpt lat="43.729366" lon="-7.632968">
        <ele>70.959</ele>
        <time>2019-06-20T09:55:19Z</time>
      </trkpt>
      <trkpt lat="43.729575" lon="-7.633056">
        <ele>72.526</ele>
        <time>2019-06-20T09:55:20Z</time>
      </trkpt>
      <trkpt lat="43.729739" lon="-7.633208">
        <ele>74.869</ele>
        <time>2019-06-20T09:55:21Z</time>
      </trkpt>
      <trkpt lat="43.729886" lon="-7.633414">
        <ele>77.704</ele>
        <time>2019-06-20T09:55:22Z</time>
      </trkpt>
      <trkpt lat="43.729993" lon="-7.633634">
        <ele>79.324</ele>
        <time>2019-06-20T09:55:23Z</time>
      </trkpt>
      <trkpt lat="43.730094" lon="-7.633903">
        <ele>83.508</ele>
        <time>2019-06-20T09:55:24Z</time>
      </trkpt>
      <trkpt lat="43.730194" lon="-7.634203">
        <ele>87.449</ele>
        <time>2019-06-20T09:55:25Z</time>
      </trkpt>
      <trkpt lat="43.730264" lon="-7.634557">
        <ele>94.253</ele>
        <time>2019-06-20T09:55:26Z</time>
      </trkpt>
      <trkpt lat="43.730269" lon="-7.634890">
        <ele>99.774</ele>
        <time>2019-06-20T09:55:27Z</time>
      </trkpt>
      <trkpt lat="43.730183" lon="-7.635131">
        <ele>99.390</ele>
        <time>2019-06-20T09:55:28Z</time>
      </trkpt>
      <trkpt lat="43.730171" lon="-7.635410">
        <ele>99.637</ele>
        <time>2019-06-20T09:55:29Z</time>
      </trkpt>
      <trkpt lat="43.730218" lon="-7.635684">
        <ele>101.318</ele>
        <time>2019-06-20T09:55:30Z</time>
      </trkpt>
      <trkpt lat="43.730264" lon="-7.635973">
        <ele>103.790</ele>
        <time>2019-06-20T09:55:31Z</time>
      </trkpt>
      <trkpt lat="43.730341" lon="-7.636247">
        <ele>107.797</ele>
        <time>2019-06-20T09:55:32Z</time>
      </trkpt>
      <trkpt lat="43.730425" lon="-7.636529">
        <ele>111.082</ele>
        <time>2019-06-20T09:55:33Z</time>
      </trkpt>
      <trkpt lat="43.730542" lon="-7.636807">
        <ele>112.643</ele>
        <time>2019-06-20T09:55:34Z</time>
      </trkpt>
      <trkpt lat="43.730662" lon="-7.637077">
        <ele>111.617</ele>
        <time>2019-06-20T09:55:35Z</time>
      </trkpt>
      <trkpt lat="43.730799" lon="-7.637312">
        <ele>111.808</ele>
        <time>2019-06-20T09:55:36Z</time>
      </trkpt>
      <trkpt lat="43.730940" lon="-7.637544">
        <ele>113.421</ele>
        <time>2019-06-20T09:55:37Z</time>
      </trkpt>
      <trkpt lat="43.731085" lon="-7.637793">
        <ele>118.065</ele>
        <time>2019-06-20T09:55:38Z</time>
      </trkpt>
      <trkpt lat="43.731240" lon="-7.638016">
        <ele>121.366</ele>
        <time>2019-06-20T09:55:39Z</time>
      </trkpt>
      <trkpt lat="43.731390" lon="-7.638248">
        <ele>124.732</ele>
        <time>2019-06-20T09:55:40Z</time>
      </trkpt>
      <trkpt lat="43.731542" lon="-7.638472">
        <ele>126.729</ele>
        <time>2019-06-20T09:55:41Z</time>
      </trkpt>
      <trkpt lat="43.731691" lon="-7.638721">
        <ele>127.390</ele>
        <time>2019-06-20T09:55:42Z</time>
      </trkpt>
      <trkpt lat="43.731836" lon="-7.638976">
        <ele>126.392</ele>
        <time>2019-06-20T09:55:43Z</time>
      </trkpt>
      <trkpt lat="43.731980" lon="-7.639199">
        <ele>126.229</ele>
        <time>2019-06-20T09:55:44Z</time>
      </trkpt>
      <trkpt lat="43.732131" lon="-7.639426">
        <ele>127.222</ele>
        <time>2019-06-20T09:55:45Z</time>
      </trkpt>
      <trkpt lat="43.732277" lon="-7.639664">
        <ele>129.562</ele>
        <time>2019-06-20T09:55:46Z</time>
      </trkpt>
      <trkpt lat="43.732404" lon="-7.639905">
        <ele>132.808</ele>
        <time>2019-06-20T09:55:47Z</time>
      </trkpt>
      <trkpt lat="43.732511" lon="-7.640153">
        <ele>135.608</ele>
        <time>2019-06-20T09:55:48Z</time>
      </trkpt>
      <trkpt lat="43.732595" lon="-7.640414">
        <ele>137.245</ele>
        <time>2019-06-20T09:55:49Z</time>
      </trkpt>
      <trkpt lat="43.732671" lon="-7.640684">
        <ele>138.539</ele>
        <time>2019-06-20T09:55:50Z</time>
      </trkpt>
      <trkpt lat="43.732734" lon="-7.640963">
        <ele>138.770</ele>
        <time>2019-06-20T09:55:51Z</time>
      </trkpt>
      <trkpt lat="43.732786" lon="-7.641246">
        <ele>137.016</ele>
        <time>2019-06-20T09:55:52Z</time>
      </trkpt>
      <trkpt lat="43.732807" lon="-7.641531">
        <ele>133.353</ele>
        <time>2019-06-20T09:55:53Z</time>
      </trkpt>
      <trkpt lat="43.732828" lon="-7.641825">
        <ele>129.434</ele>
        <time>2019-06-20T09:55:54Z</time>
      </trkpt>
      <trkpt lat="43.732847" lon="-7.642125">
        <ele>127.586</ele>
        <time>2019-06-20T09:55:55Z</time>
      </trkpt>
      <trkpt lat="43.732872" lon="-7.642423">
        <ele>128.243</ele>
        <time>2019-06-20T09:55:56Z</time>
      </trkpt>
      <trkpt lat="43.732889" lon="-7.642701">
        <ele>130.326</ele>
        <time>2019-06-20T09:55:57Z</time>
      </trkpt>
      <trkpt lat="43.732897" lon="-7.642975">
        <ele>131.347</ele>
        <time>2019-06-20T09:55:58Z</time>
      </trkpt>
      <trkpt lat="43.732909" lon="-7.643246">
        <ele>130.811</ele>
        <time>2019-06-20T09:55:59Z</time>
      </trkpt>
      <trkpt lat="43.732892" lon="-7.643514">
        <ele>130.808</ele>
        <time>2019-06-20T09:56:00Z</time>
      </trkpt>
      <trkpt lat="43.732832" lon="-7.643835">
        <ele>131.265</ele>
        <time>2019-06-20T09:56:01Z</time>
      </trkpt>
      <trkpt lat="43.732753" lon="-7.644134">
        <ele>130.269</ele>
        <time>2019-06-20T09:56:02Z</time>
      </trkpt>
      <trkpt lat="43.732664" lon="-7.644432">
        <ele>129.680</ele>
        <time>2019-06-20T09:56:03Z</time>
      </trkpt>
      <trkpt lat="43.732541" lon="-7.644715">
        <ele>128.436</ele>
        <time>2019-06-20T09:56:04Z</time>
      </trkpt>
      <trkpt lat="43.732437" lon="-7.645007">
        <ele>128.753</ele>
        <time>2019-06-20T09:56:05Z</time>
      </trkpt>
      <trkpt lat="43.732329" lon="-7.645287">
        <ele>127.954</ele>
        <time>2019-06-20T09:56:06Z</time>
      </trkpt>
      <trkpt lat="43.732201" lon="-7.645612">
        <ele>124.096</ele>
        <time>2019-06-20T09:56:07Z</time>
      </trkpt>
      <trkpt lat="43.732078" lon="-7.645926">
        <ele>121.243</ele>
        <time>2019-06-20T09:56:08Z</time>
      </trkpt>
      <trkpt lat="43.731937" lon="-7.646211">
        <ele>117.353</ele>
        <time>2019-06-20T09:56:09Z</time>
      </trkpt>
      <trkpt lat="43.731803" lon="-7.646496">
        <ele>114.704</ele>
        <time>2019-06-20T09:56:10Z</time>
      </trkpt>
      <trkpt lat="43.731675" lon="-7.646779">
        <ele>112.714</ele>
        <time>2019-06-20T09:56:11Z</time>
      </trkpt>
      <trkpt lat="43.731553" lon="-7.647068">
        <ele>112.408</ele>
        <time>2019-06-20T09:56:12Z</time>
      </trkpt>
      <trkpt lat="43.731432" lon="-7.647326">
        <ele>111.328</ele>
        <time>2019-06-20T09:56:13Z</time>
      </trkpt>
      <trkpt lat="43.731329" lon="-7.647588">
        <ele>110.462</ele>
        <time>2019-06-20T09:56:14Z</time>
      </trkpt>
      <trkpt lat="43.731244" lon="-7.647828">
        <ele>110.323</ele>
        <time>2019-06-20T09:56:15Z</time>
      </trkpt>
      <trkpt lat="43.731122" lon="-7.648032">
        <ele>111.839</ele>
        <time>2019-06-20T09:56:16Z</time>
      </trkpt>
      <trkpt lat="43.730970" lon="-7.648185">
        <ele>114.486</ele>
        <time>2019-06-20T09:56:17Z</time>
      </trkpt>
      <trkpt lat="43.730830" lon="-7.648347">
        <ele>115.987</ele>
        <time>2019-06-20T09:56:18Z</time>
      </trkpt>
      <trkpt lat="43.730689" lon="-7.648508">
        <ele>114.549</ele>
        <time>2019-06-20T09:56:19Z</time>
      </trkpt>
      <trkpt lat="43.730509" lon="-7.648605">
        <ele>112.686</ele>
        <time>2019-06-20T09:56:20Z</time>
      </trkpt>
      <trkpt lat="43.730331" lon="-7.648709">
        <ele>108.639</ele>
        <time>2019-06-20T09:56:21Z</time>
      </trkpt>
      <trkpt lat="43.730138" lon="-7.648749">
        <ele>104.001</ele>
        <time>2019-06-20T09:56:22Z</time>
      </trkpt>
      <trkpt lat="43.729952" lon="-7.648800">
        <ele>99.821</ele>
        <time>2019-06-20T09:56:23Z</time>
      </trkpt>
      <trkpt lat="43.729772" lon="-7.648862">
        <ele>98.408</ele>
        <time>2019-06-20T09:56:24Z</time>
      </trkpt>
      <trkpt lat="43.729604" lon="-7.648986">
        <ele>97.926</ele>
        <time>2019-06-20T09:56:25Z</time>
      </trkpt>
      <trkpt lat="43.729445" lon="-7.649094">
        <ele>98.020</ele>
        <time>2019-06-20T09:56:26Z</time>
      </trkpt>
      <trkpt lat="43.729355" lon="-7.649310">
        <ele>100.281</ele>
        <time>2019-06-20T09:56:27Z</time>
      </trkpt>
      <trkpt lat="43.729256" lon="-7.649499">
        <ele>103.857</ele>
        <time>2019-06-20T09:56:28Z</time>
      </trkpt>
      <trkpt lat="43.729197" lon="-7.649726">
        <ele>107.014</ele>
        <time>2019-06-20T09:56:29Z</time>
      </trkpt>
      <trkpt lat="43.729171" lon="-7.649930">
        <ele>107.165</ele>
        <time>2019-06-20T09:56:30Z</time>
      </trkpt>
      <trkpt lat="43.729142" lon="-7.650125">
        <ele>106.477</ele>
        <time>2019-06-20T09:56:31Z</time>
      </trkpt>
      <trkpt lat="43.729138" lon="-7.650359">
        <ele>105.364</ele>
        <time>2019-06-20T09:56:32Z</time>
      </trkpt>
      <trkpt lat="43.729155" lon="-7.650575">
        <ele>105.641</ele>
        <time>2019-06-20T09:56:33Z</time>
      </trkpt>
      <trkpt lat="43.729197" lon="-7.650808">
        <ele>106.781</ele>
        <time>2019-06-20T09:56:34Z</time>
      </trkpt>
      <trkpt lat="43.729343" lon="-7.651094">
        <ele>106.309</ele>
        <time>2019-06-20T09:56:35Z</time>
      </trkpt>
      <trkpt lat="43.729544" lon="-7.651353">
        <ele>106.708</ele>
        <time>2019-06-20T09:56:36Z</time>
      </trkpt>
      <trkpt lat="43.729683" lon="-7.651604">
        <ele>108.897</ele>
        <time>2019-06-20T09:56:37Z</time>
      </trkpt>
      <trkpt lat="43.729801" lon="-7.651872">
        <ele>110.771</ele>
        <time>2019-06-20T09:56:38Z</time>
      </trkpt>
      <trkpt lat="43.729900" lon="-7.652153">
        <ele>112.542</ele>
        <time>2019-06-20T09:56:39Z</time>
      </trkpt>
      <trkpt lat="43.730001" lon="-7.652430">
        <ele>111.028</ele>
        <time>2019-06-20T09:56:40Z</time>
      </trkpt>
      <trkpt lat="43.730099" lon="-7.652675">
        <ele>107.655</ele>
        <time>2019-06-20T09:56:41Z</time>
      </trkpt>
      <trkpt lat="43.730177" lon="-7.652954">
        <ele>102.176</ele>
        <time>2019-06-20T09:56:42Z</time>
      </trkpt>
      <trkpt lat="43.730234" lon="-7.653233">
        <ele>97.998</ele>
        <time>2019-06-20T09:56:43Z</time>
      </trkpt>
      <trkpt lat="43.730293" lon="-7.653505">
        <ele>97.015</ele>
        <time>2019-06-20T09:56:44Z</time>
      </trkpt>
      <trkpt lat="43.730349" lon="-7.653775">
        <ele>97.297</ele>
        <time>2019-06-20T09:56:45Z</time>
      </trkpt>
      <trkpt lat="43.730400" lon="-7.654043">
        <ele>97.223</ele>
        <time>2019-06-20T09:56:46Z</time>
      </trkpt>
      <trkpt lat="43.730465" lon="-7.654298">
        <ele>97.425</ele>
        <time>2019-06-20T09:56:47Z</time>
      </trkpt>
      <trkpt lat="43.730548" lon="-7.654551">
        <ele>97.908</ele>
        <time>2019-06-20T09:56:48Z</time>
      </trkpt>
      <trkpt lat="43.730648" lon="-7.654774">
        <ele>97.672</ele>
        <time>2019-06-20T09:56:49Z</time>
      </trkpt>
      <trkpt lat="43.730761" lon="-7.654933">
        <ele>96.886</ele>
        <time>2019-06-20T09:56:50Z</time>
      </trkpt>
      <trkpt lat="43.730858" lon="-7.655059">
        <ele>95.897</ele>
        <time>2019-06-20T09:56:51Z</time>
      </trkpt>
      <trkpt lat="43.731012" lon="-7.655156">
        <ele>93.713</ele>
        <time>2019-06-20T09:56:52Z</time>
      </trkpt>
      <trkpt lat="43.731154" lon="-7.655248">
        <ele>92.810</ele>
        <time>2019-06-20T09:56:53Z</time>
      </trkpt>
      <trkpt lat="43.731293" lon="-7.655301">
        <ele>93.281</ele>
        <time>2019-06-20T09:56:54Z</time>
      </trkpt>
      <trkpt lat="43.731450" lon="-7.655256">
        <ele>93.083</ele>
        <time>2019-06-20T09:56:55Z</time>
      </trkpt>
      <trkpt lat="43.731573" lon="-7.655179">
        <ele>92.460</ele>
        <time>2019-06-20T09:56:56Z</time>
      </trkpt>
      <trkpt lat="43.731734" lon="-7.655041">
        <ele>90.835</ele>
        <time>2019-06-20T09:56:57Z</time>
      </trkpt>
      <trkpt lat="43.731962" lon="-7.654882">
        <ele>88.686</ele>
        <time>2019-06-20T09:56:58Z</time>
      </trkpt>
      <trkpt lat="43.732139" lon="-7.654748">
        <ele>87.014</ele>
        <time>2019-06-20T09:56:59Z</time>
      </trkpt>
      <trkpt lat="43.732321" lon="-7.654627">
        <ele>86.908</ele>
        <time>2019-06-20T09:57:00Z</time>
      </trkpt>
      <trkpt lat="43.732502" lon="-7.654514">
        <ele>87.536</ele>
        <time>2019-06-20T09:57:01Z</time>
      </trkpt>
      <trkpt lat="43.732677" lon="-7.654413">
        <ele>87.810</ele>
        <time>2019-06-20T09:57:02Z</time>
      </trkpt>
      <trkpt lat="43.732856" lon="-7.654354">
        <ele>86.771</ele>
        <time>2019-06-20T09:57:03Z</time>
      </trkpt>
      <trkpt lat="43.733020" lon="-7.654322">
        <ele>84.987</ele>
        <time>2019-06-20T09:57:04Z</time>
      </trkpt>
      <trkpt lat="43.733152" lon="-7.654298">
        <ele>83.974</ele>
        <time>2019-06-20T09:57:05Z</time>
      </trkpt>
      <trkpt lat="43.733328" lon="-7.654332">
        <ele>83.455</ele>
        <time>2019-06-20T09:57:06Z</time>
      </trkpt>
      <trkpt lat="43.733500" lon="-7.654357">
        <ele>82.547</ele>
        <time>2019-06-20T09:57:07Z</time>
      </trkpt>
      <trkpt lat="43.733649" lon="-7.654412">
        <ele>82.324</ele>
        <time>2019-06-20T09:57:08Z</time>
      </trkpt>
      <trkpt lat="43.733748" lon="-7.654514">
        <ele>82.571</ele>
        <time>2019-06-20T09:57:09Z</time>
      </trkpt>
      <trkpt lat="43.733865" lon="-7.654675">
        <ele>82.841</ele>
        <time>2019-06-20T09:57:10Z</time>
      </trkpt>
      <trkpt lat="43.733913" lon="-7.654952">
        <ele>81.715</ele>
        <time>2019-06-20T09:57:11Z</time>
      </trkpt>
      <trkpt lat="43.733912" lon="-7.655209">
        <ele>80.108</ele>
        <time>2019-06-20T09:57:12Z</time>
      </trkpt>
      <trkpt lat="43.733867" lon="-7.655438">
        <ele>79.840</ele>
        <time>2019-06-20T09:57:13Z</time>
      </trkpt>
      <trkpt lat="43.733788" lon="-7.655661">
        <ele>80.754</ele>
        <time>2019-06-20T09:57:14Z</time>
      </trkpt>
      <trkpt lat="43.733700" lon="-7.655936">
        <ele>82.685</ele>
        <time>2019-06-20T09:57:15Z</time>
      </trkpt>
      <trkpt lat="43.733556" lon="-7.656142">
        <ele>84.781</ele>
        <time>2019-06-20T09:57:16Z</time>
      </trkpt>
      <trkpt lat="43.733383" lon="-7.656504">
        <ele>82.578</ele>
        <time>2019-06-20T09:57:17Z</time>
      </trkpt>
      <trkpt lat="43.733244" lon="-7.656772">
        <ele>77.639</ele>
        <time>2019-06-20T09:57:18Z</time>
      </trkpt>
      <trkpt lat="43.733144" lon="-7.657044">
        <ele>72.661</ele>
        <time>2019-06-20T09:57:19Z</time>
      </trkpt>
      <trkpt lat="43.733037" lon="-7.657325">
        <ele>70.078</ele>
        <time>2019-06-20T09:57:20Z</time>
      </trkpt>
      <trkpt lat="43.732947" lon="-7.657606">
        <ele>70.678</ele>
        <time>2019-06-20T09:57:21Z</time>
      </trkpt>
      <trkpt lat="43.732865" lon="-7.657882">
        <ele>72.233</ele>
        <time>2019-06-20T09:57:22Z</time>
      </trkpt>
      <trkpt lat="43.732785" lon="-7.658157">
        <ele>73.626</ele>
        <time>2019-06-20T09:57:23Z</time>
      </trkpt>
      <trkpt lat="43.732709" lon="-7.658432">
        <ele>72.508</ele>
        <time>2019-06-20T09:57:24Z</time>
      </trkpt>
      <trkpt lat="43.732627" lon="-7.658679">
        <ele>70.140</ele>
        <time>2019-06-20T09:57:25Z</time>
      </trkpt>
      <trkpt lat="43.732547" lon="-7.658875">
        <ele>68.334</ele>
        <time>2019-06-20T09:57:26Z</time>
      </trkpt>
      <trkpt lat="43.732442" lon="-7.659115">
        <ele>64.355</ele>
        <time>2019-06-20T09:57:27Z</time>
      </trkpt>
      <trkpt lat="43.732319" lon="-7.659338">
        <ele>61.821</ele>
        <time>2019-06-20T09:57:28Z</time>
      </trkpt>
      <trkpt lat="43.732212" lon="-7.659550">
        <ele>59.368</ele>
        <time>2019-06-20T09:57:29Z</time>
      </trkpt>
      <trkpt lat="43.732109" lon="-7.659735">
        <ele>57.099</ele>
        <time>2019-06-20T09:57:30Z</time>
      </trkpt>
      <trkpt lat="43.731995" lon="-7.659936">
        <ele>55.431</ele>
        <time>2019-06-20T09:57:31Z</time>
      </trkpt>
      <trkpt lat="43.731904" lon="-7.660123">
        <ele>54.528</ele>
        <time>2019-06-20T09:57:32Z</time>
      </trkpt>
      <trkpt lat="43.731852" lon="-7.660283">
        <ele>54.383</ele>
        <time>2019-06-20T09:57:33Z</time>
      </trkpt>
      <trkpt lat="43.731825" lon="-7.660454">
        <ele>54.225</ele>
        <time>2019-06-20T09:57:34Z</time>
      </trkpt>
      <trkpt lat="43.731824" lon="-7.660656">
        <ele>52.917</ele>
        <time>2019-06-20T09:57:35Z</time>
      </trkpt>
      <trkpt lat="43.731826" lon="-7.660853">
        <ele>51.408</ele>
        <time>2019-06-20T09:57:36Z</time>
      </trkpt>
      <trkpt lat="43.731854" lon="-7.661087">
        <ele>51.981</ele>
        <time>2019-06-20T09:57:37Z</time>
      </trkpt>
      <trkpt lat="43.731877" lon="-7.661331">
        <ele>52.945</ele>
        <time>2019-06-20T09:57:38Z</time>
      </trkpt>
      <trkpt lat="43.731908" lon="-7.661581">
        <ele>53.336</ele>
        <time>2019-06-20T09:57:39Z</time>
      </trkpt>
      <trkpt lat="43.731937" lon="-7.661834">
        <ele>54.372</ele>
        <time>2019-06-20T09:57:40Z</time>
      </trkpt>
      <trkpt lat="43.731961" lon="-7.662094">
        <ele>55.359</ele>
        <time>2019-06-20T09:57:41Z</time>
      </trkpt>
      <trkpt lat="43.731988" lon="-7.662355">
        <ele>55.460</ele>
        <time>2019-06-20T09:57:42Z</time>
      </trkpt>
      <trkpt lat="43.732012" lon="-7.662625">
        <ele>55.852</ele>
        <time>2019-06-20T09:57:43Z</time>
      </trkpt>
      <trkpt lat="43.732036" lon="-7.662878">
        <ele>57.089</ele>
        <time>2019-06-20T09:57:44Z</time>
      </trkpt>
      <trkpt lat="43.732059" lon="-7.663114">
        <ele>57.786</ele>
        <time>2019-06-20T09:57:45Z</time>
      </trkpt>
      <trkpt lat="43.732075" lon="-7.663334">
        <ele>58.160</ele>
        <time>2019-06-20T09:57:46Z</time>
      </trkpt>
      <trkpt lat="43.732089" lon="-7.663549">
        <ele>59.126</ele>
        <time>2019-06-20T09:57:47Z</time>
      </trkpt>
      <trkpt lat="43.732106" lon="-7.663755">
        <ele>60.108</ele>
        <time>2019-06-20T09:57:48Z</time>
      </trkpt>
      <trkpt lat="43.732123" lon="-7.663967">
        <ele>60.621</ele>
        <time>2019-06-20T09:57:49Z</time>
      </trkpt>
      <trkpt lat="43.732134" lon="-7.664172">
        <ele>60.395</ele>
        <time>2019-06-20T09:57:50Z</time>
      </trkpt>
      <trkpt lat="43.732160" lon="-7.664386">
        <ele>59.456</ele>
        <time>2019-06-20T09:57:51Z</time>
      </trkpt>
      <trkpt lat="43.732183" lon="-7.664617">
        <ele>57.962</ele>
        <time>2019-06-20T09:57:52Z</time>
      </trkpt>
      <trkpt lat="43.732203" lon="-7.664842">
        <ele>56.389</ele>
        <time>2019-06-20T09:57:53Z</time>
      </trkpt>
      <trkpt lat="43.732222" lon="-7.665062">
        <ele>55.020</ele>
        <time>2019-06-20T09:57:54Z</time>
      </trkpt>
      <trkpt lat="43.732246" lon="-7.665286">
        <ele>54.662</ele>
        <time>2019-06-20T09:57:55Z</time>
      </trkpt>
      <trkpt lat="43.732254" lon="-7.665544">
        <ele>53.619</ele>
        <time>2019-06-20T09:57:56Z</time>
      </trkpt>
      <trkpt lat="43.732273" lon="-7.665762">
        <ele>53.033</ele>
        <time>2019-06-20T09:57:57Z</time>
      </trkpt>
      <trkpt lat="43.732295" lon="-7.665988">
        <ele>52.323</ele>
        <time>2019-06-20T09:57:58Z</time>
      </trkpt>
      <trkpt lat="43.732314" lon="-7.666218">
        <ele>50.915</ele>
        <time>2019-06-20T09:57:59Z</time>
      </trkpt>
      <trkpt lat="43.732339" lon="-7.666450">
        <ele>48.608</ele>
        <time>2019-06-20T09:58:00Z</time>
      </trkpt>
      <trkpt lat="43.732372" lon="-7.666672">
        <ele>46.276</ele>
        <time>2019-06-20T09:58:01Z</time>
      </trkpt>
      <trkpt lat="43.732409" lon="-7.666902">
        <ele>46.180</ele>
        <time>2019-06-20T09:58:02Z</time>
      </trkpt>
      <trkpt lat="43.732458" lon="-7.667122">
        <ele>46.321</ele>
        <time>2019-06-20T09:58:03Z</time>
      </trkpt>
      <trkpt lat="43.732501" lon="-7.667350">
        <ele>46.097</ele>
        <time>2019-06-20T09:58:04Z</time>
      </trkpt>
      <trkpt lat="43.732544" lon="-7.667579">
        <ele>45.164</ele>
        <time>2019-06-20T09:58:05Z</time>
      </trkpt>
      <trkpt lat="43.732579" lon="-7.667789">
        <ele>44.725</ele>
        <time>2019-06-20T09:58:06Z</time>
      </trkpt>
      <trkpt lat="43.732622" lon="-7.668014">
        <ele>42.237</ele>
        <time>2019-06-20T09:58:07Z</time>
      </trkpt>
      <trkpt lat="43.732639" lon="-7.668217">
        <ele>39.594</ele>
        <time>2019-06-20T09:58:08Z</time>
      </trkpt>
      <trkpt lat="43.732654" lon="-7.668434">
        <ele>36.873</ele>
        <time>2019-06-20T09:58:09Z</time>
      </trkpt>
      <trkpt lat="43.732662" lon="-7.668649">
        <ele>34.885</ele>
        <time>2019-06-20T09:58:10Z</time>
      </trkpt>
      <trkpt lat="43.732641" lon="-7.668875">
        <ele>33.613</ele>
        <time>2019-06-20T09:58:11Z</time>
      </trkpt>
      <trkpt lat="43.732597" lon="-7.669120">
        <ele>32.808</ele>
        <time>2019-06-20T09:58:12Z</time>
      </trkpt>
      <trkpt lat="43.732561" lon="-7.669362">
        <ele>31.960</ele>
        <time>2019-06-20T09:58:13Z</time>
      </trkpt>
      <trkpt lat="43.732542" lon="-7.669596">
        <ele>31.284</ele>
        <time>2019-06-20T09:58:14Z</time>
      </trkpt>
      <trkpt lat="43.732530" lon="-7.669831">
        <ele>30.055</ele>
        <time>2019-06-20T09:58:15Z</time>
      </trkpt>
      <trkpt lat="43.732534" lon="-7.670043">
        <ele>28.071</ele>
        <time>2019-06-20T09:58:16Z</time>
      </trkpt>
      <trkpt lat="43.732537" lon="-7.670272">
        <ele>26.468</ele>
        <time>2019-06-20T09:58:17Z</time>
      </trkpt>
      <trkpt lat="43.732547" lon="-7.670492">
        <ele>25.469</ele>
        <time>2019-06-20T09:58:18Z</time>
      </trkpt>
      <trkpt lat="43.732564" lon="-7.670701">
        <ele>25.131</ele>
        <time>2019-06-20T09:58:19Z</time>
      </trkpt>
      <trkpt lat="43.732593" lon="-7.670898">
        <ele>24.328</ele>
        <time>2019-06-20T09:58:20Z</time>
      </trkpt>
      <trkpt lat="43.732628" lon="-7.671105">
        <ele>22.714</ele>
        <time>2019-06-20T09:58:21Z</time>
      </trkpt>
      <trkpt lat="43.732675" lon="-7.671312">
        <ele>20.654</ele>
        <time>2019-06-20T09:58:22Z</time>
      </trkpt>
      <trkpt lat="43.732713" lon="-7.671497">
        <ele>19.509</ele>
        <time>2019-06-20T09:58:23Z</time>
      </trkpt>
      <trkpt lat="43.732759" lon="-7.671686">
        <ele>19.108</ele>
        <time>2019-06-20T09:58:24Z</time>
      </trkpt>
      <trkpt lat="43.732802" lon="-7.671887">
        <ele>19.614</ele>
        <time>2019-06-20T09:58:25Z</time>
      </trkpt>
      <trkpt lat="43.732844" lon="-7.672088">
        <ele>19.238</ele>
        <time>2019-06-20T09:58:26Z</time>
      </trkpt>
      <trkpt lat="43.732883" lon="-7.672274">
        <ele>18.639</ele>
        <time>2019-06-20T09:58:27Z</time>
      </trkpt>
      <trkpt lat="43.732935" lon="-7.672453">
        <ele>18.285</ele>
        <time>2019-06-20T09:58:28Z</time>
      </trkpt>
      <trkpt lat="43.732967" lon="-7.672622">
        <ele>18.412</ele>
        <time>2019-06-20T09:58:29Z</time>
      </trkpt>
      <trkpt lat="43.732983" lon="-7.672788">
        <ele>18.853</ele>
        <time>2019-06-20T09:58:30Z</time>
      </trkpt>
      <trkpt lat="43.732989" lon="-7.672939">
        <ele>18.485</ele>
        <time>2019-06-20T09:58:31Z</time>
      </trkpt>
      <trkpt lat="43.732982" lon="-7.673093">
        <ele>18.352</ele>
        <time>2019-06-20T09:58:32Z</time>
      </trkpt>
      <trkpt lat="43.732956" lon="-7.673229">
        <ele>18.622</ele>
        <time>2019-06-20T09:58:33Z</time>
      </trkpt>
      <trkpt lat="43.732933" lon="-7.673341">
        <ele>18.762</ele>
        <time>2019-06-20T09:58:34Z</time>
      </trkpt>
      <trkpt lat="43.732896" lon="-7.673490">
        <ele>18.708</ele>
        <time>2019-06-20T09:58:35Z</time>
      </trkpt>
      <trkpt lat="43.732852" lon="-7.673661">
        <ele>18.808</ele>
        <time>2019-06-20T09:58:36Z</time>
      </trkpt>
      <trkpt lat="43.732765" lon="-7.673917">
        <ele>19.175</ele>
        <time>2019-06-20T09:58:37Z</time>
      </trkpt>
      <trkpt lat="43.732687" lon="-7.674143">
        <ele>19.739</ele>
        <time>2019-06-20T09:58:38Z</time>
      </trkpt>
      <trkpt lat="43.732620" lon="-7.674391">
        <ele>19.760</ele>
        <time>2019-06-20T09:58:39Z</time>
      </trkpt>
      <trkpt lat="43.732545" lon="-7.674651">
        <ele>19.716</ele>
        <time>2019-06-20T09:58:40Z</time>
      </trkpt>
      <trkpt lat="43.732468" lon="-7.674906">
        <ele>19.813</ele>
        <time>2019-06-20T09:58:41Z</time>
      </trkpt>
      <trkpt lat="43.732392" lon="-7.675147">
        <ele>20.214</ele>
        <time>2019-06-20T09:58:42Z</time>
      </trkpt>
      <trkpt lat="43.732322" lon="-7.675380">
        <ele>21.016</ele>
        <time>2019-06-20T09:58:43Z</time>
      </trkpt>
      <trkpt lat="43.732255" lon="-7.675602">
        <ele>21.283</ele>
        <time>2019-06-20T09:58:44Z</time>
      </trkpt>
      <trkpt lat="43.732190" lon="-7.675801">
        <ele>20.714</ele>
        <time>2019-06-20T09:58:45Z</time>
      </trkpt>
      <trkpt lat="43.732105" lon="-7.675991">
        <ele>22.054</ele>
        <time>2019-06-20T09:58:46Z</time>
      </trkpt>
      <trkpt lat="43.732013" lon="-7.676174">
        <ele>23.309</ele>
        <time>2019-06-20T09:58:47Z</time>
      </trkpt>
      <trkpt lat="43.731869" lon="-7.676323">
        <ele>24.508</ele>
        <time>2019-06-20T09:58:48Z</time>
      </trkpt>
      <trkpt lat="43.731726" lon="-7.676487">
        <ele>25.634</ele>
        <time>2019-06-20T09:58:49Z</time>
      </trkpt>
      <trkpt lat="43.731574" lon="-7.676641">
        <ele>26.638</ele>
        <time>2019-06-20T09:58:50Z</time>
      </trkpt>
      <trkpt lat="43.731406" lon="-7.676821">
        <ele>28.599</ele>
        <time>2019-06-20T09:58:51Z</time>
      </trkpt>
      <trkpt lat="43.731249" lon="-7.676998">
        <ele>29.435</ele>
        <time>2019-06-20T09:58:52Z</time>
      </trkpt>
      <trkpt lat="43.731086" lon="-7.677182">
        <ele>29.222</ele>
        <time>2019-06-20T09:58:53Z</time>
      </trkpt>
      <trkpt lat="43.730922" lon="-7.677368">
        <ele>29.313</ele>
        <time>2019-06-20T09:58:54Z</time>
      </trkpt>
      <trkpt lat="43.730753" lon="-7.677557">
        <ele>30.745</ele>
        <time>2019-06-20T09:58:55Z</time>
      </trkpt>
      <trkpt lat="43.730591" lon="-7.677748">
        <ele>31.752</ele>
        <time>2019-06-20T09:58:56Z</time>
      </trkpt>
      <trkpt lat="43.730426" lon="-7.677935">
        <ele>32.979</ele>
        <time>2019-06-20T09:58:57Z</time>
      </trkpt>
      <trkpt lat="43.730269" lon="-7.678118">
        <ele>34.305</ele>
        <time>2019-06-20T09:58:58Z</time>
      </trkpt>
      <trkpt lat="43.730116" lon="-7.678297">
        <ele>36.525</ele>
        <time>2019-06-20T09:58:59Z</time>
      </trkpt>
      <trkpt lat="43.729971" lon="-7.678457">
        <ele>38.908</ele>
        <time>2019-06-20T09:59:00Z</time>
      </trkpt>
      <trkpt lat="43.729840" lon="-7.678621">
        <ele>40.080</ele>
        <time>2019-06-20T09:59:01Z</time>
      </trkpt>
      <trkpt lat="43.729717" lon="-7.678780">
        <ele>38.864</ele>
        <time>2019-06-20T09:59:02Z</time>
      </trkpt>
      <trkpt lat="43.729601" lon="-7.678949">
        <ele>37.165</ele>
        <time>2019-06-20T09:59:03Z</time>
      </trkpt>
      <trkpt lat="43.729486" lon="-7.679128">
        <ele>35.421</ele>
        <time>2019-06-20T09:59:04Z</time>
      </trkpt>
      <trkpt lat="43.729379" lon="-7.679341">
        <ele>35.138</ele>
        <time>2019-06-20T09:59:05Z</time>
      </trkpt>
      <trkpt lat="43.729275" lon="-7.679567">
        <ele>35.029</ele>
        <time>2019-06-20T09:59:06Z</time>
      </trkpt>
      <trkpt lat="43.729186" lon="-7.679829">
        <ele>35.041</ele>
        <time>2019-06-20T09:59:07Z</time>
      </trkpt>
      <trkpt lat="43.729111" lon="-7.680089">
        <ele>36.288</ele>
        <time>2019-06-20T09:59:08Z</time>
      </trkpt>
      <trkpt lat="43.729054" lon="-7.680361">
        <ele>37.517</ele>
        <time>2019-06-20T09:59:09Z</time>
      </trkpt>
      <trkpt lat="43.729011" lon="-7.680642">
        <ele>38.787</ele>
        <time>2019-06-20T09:59:10Z</time>
      </trkpt>
      <trkpt lat="43.728983" lon="-7.680931">
        <ele>38.415</ele>
        <time>2019-06-20T09:59:11Z</time>
      </trkpt>
      <trkpt lat="43.728970" lon="-7.681238">
        <ele>37.108</ele>
        <time>2019-06-20T09:59:12Z</time>
      </trkpt>
      <trkpt lat="43.728964" lon="-7.681544">
        <ele>36.354</ele>
        <time>2019-06-20T09:59:13Z</time>
      </trkpt>
      <trkpt lat="43.728965" lon="-7.681840">
        <ele>36.718</ele>
        <time>2019-06-20T09:59:14Z</time>
      </trkpt>
      <trkpt lat="43.728968" lon="-7.682137">
        <ele>37.449</ele>
        <time>2019-06-20T09:59:15Z</time>
      </trkpt>
      <trkpt lat="43.728956" lon="-7.682457">
        <ele>38.355</ele>
        <time>2019-06-20T09:59:16Z</time>
      </trkpt>
      <trkpt lat="43.728962" lon="-7.682755">
        <ele>38.892</ele>
        <time>2019-06-20T09:59:17Z</time>
      </trkpt>
      <trkpt lat="43.728961" lon="-7.683055">
        <ele>42.923</ele>
        <time>2019-06-20T09:59:18Z</time>
      </trkpt>
      <trkpt lat="43.728954" lon="-7.683336">
        <ele>45.555</ele>
        <time>2019-06-20T09:59:19Z</time>
      </trkpt>
      <trkpt lat="43.728958" lon="-7.683615">
        <ele>43.562</ele>
        <time>2019-06-20T09:59:20Z</time>
      </trkpt>
      <trkpt lat="43.728937" lon="-7.683923">
        <ele>43.565</ele>
        <time>2019-06-20T09:59:21Z</time>
      </trkpt>
      <trkpt lat="43.728905" lon="-7.684199">
        <ele>42.468</ele>
        <time>2019-06-20T09:59:22Z</time>
      </trkpt>
      <trkpt lat="43.728869" lon="-7.684485">
        <ele>41.214</ele>
        <time>2019-06-20T09:59:23Z</time>
      </trkpt>
      <trkpt lat="43.728812" lon="-7.684810">
        <ele>41.208</ele>
        <time>2019-06-20T09:59:24Z</time>
      </trkpt>
      <trkpt lat="43.728756" lon="-7.685112">
        <ele>40.669</ele>
        <time>2019-06-20T09:59:25Z</time>
      </trkpt>
      <trkpt lat="43.728693" lon="-7.685416">
        <ele>38.973</ele>
        <time>2019-06-20T09:59:26Z</time>
      </trkpt>
      <trkpt lat="43.728621" lon="-7.685735">
        <ele>37.754</ele>
        <time>2019-06-20T09:59:27Z</time>
      </trkpt>
      <trkpt lat="43.728607" lon="-7.686062">
        <ele>35.550</ele>
        <time>2019-06-20T09:59:28Z</time>
      </trkpt>
      <trkpt lat="43.728572" lon="-7.686406">
        <ele>33.817</ele>
        <time>2019-06-20T09:59:29Z</time>
      </trkpt>
      <trkpt lat="43.728521" lon="-7.686725">
        <ele>32.878</ele>
        <time>2019-06-20T09:59:30Z</time>
      </trkpt>
      <trkpt lat="43.728481" lon="-7.687090">
        <ele>29.830</ele>
        <time>2019-06-20T09:59:31Z</time>
      </trkpt>
      <trkpt lat="43.728457" lon="-7.687400">
        <ele>26.467</ele>
        <time>2019-06-20T09:59:32Z</time>
      </trkpt>
      <trkpt lat="43.728460" lon="-7.687652">
        <ele>24.728</ele>
        <time>2019-06-20T09:59:33Z</time>
      </trkpt>
      <trkpt lat="43.728439" lon="-7.687960">
        <ele>23.889</ele>
        <time>2019-06-20T09:59:34Z</time>
      </trkpt>
      <trkpt lat="43.728418" lon="-7.688257">
        <ele>26.217</ele>
        <time>2019-06-20T09:59:35Z</time>
      </trkpt>
      <trkpt lat="43.728433" lon="-7.688519">
        <ele>29.008</ele>
        <time>2019-06-20T09:59:36Z</time>
      </trkpt>
      <trkpt lat="43.728468" lon="-7.688786">
        <ele>30.645</ele>
        <time>2019-06-20T09:59:37Z</time>
      </trkpt>
      <trkpt lat="43.728490" lon="-7.689082">
        <ele>31.749</ele>
        <time>2019-06-20T09:59:38Z</time>
      </trkpt>
      <trkpt lat="43.728559" lon="-7.689334">
        <ele>29.090</ele>
        <time>2019-06-20T09:59:39Z</time>
      </trkpt>
      <trkpt lat="43.728660" lon="-7.689540">
        <ele>26.936</ele>
        <time>2019-06-20T09:59:40Z</time>
      </trkpt>
      <trkpt lat="43.728754" lon="-7.689771">
        <ele>26.143</ele>
        <time>2019-06-20T09:59:41Z</time>
      </trkpt>
      <trkpt lat="43.728857" lon="-7.690006">
        <ele>24.814</ele>
        <time>2019-06-20T09:59:42Z</time>
      </trkpt>
      <trkpt lat="43.728987" lon="-7.690211">
        <ele>26.296</ele>
        <time>2019-06-20T09:59:43Z</time>
      </trkpt>
      <trkpt lat="43.729125" lon="-7.690422">
        <ele>27.363</ele>
        <time>2019-06-20T09:59:44Z</time>
      </trkpt>
      <trkpt lat="43.729293" lon="-7.690560">
        <ele>26.318</ele>
        <time>2019-06-20T09:59:45Z</time>
      </trkpt>
      <trkpt lat="43.729451" lon="-7.690748">
        <ele>24.998</ele>
        <time>2019-06-20T09:59:46Z</time>
      </trkpt>
      <trkpt lat="43.729596" lon="-7.690929">
        <ele>24.117</ele>
        <time>2019-06-20T09:59:47Z</time>
      </trkpt>
      <trkpt lat="43.729745" lon="-7.691122">
        <ele>23.708</ele>
        <time>2019-06-20T09:59:48Z</time>
      </trkpt>
      <trkpt lat="43.729886" lon="-7.691335">
        <ele>24.314</ele>
        <time>2019-06-20T09:59:49Z</time>
      </trkpt>
      <trkpt lat="43.730018" lon="-7.691571">
        <ele>23.878</ele>
        <time>2019-06-20T09:59:50Z</time>
      </trkpt>
      <trkpt lat="43.730139" lon="-7.691831">
        <ele>22.719</ele>
        <time>2019-06-20T09:59:51Z</time>
      </trkpt>
      <trkpt lat="43.730261" lon="-7.692094">
        <ele>22.465</ele>
        <time>2019-06-20T09:59:52Z</time>
      </trkpt>
      <trkpt lat="43.730382" lon="-7.692357">
        <ele>20.722</ele>
        <time>2019-06-20T09:59:53Z</time>
      </trkpt>
      <trkpt lat="43.730500" lon="-7.692613">
        <ele>17.883</ele>
        <time>2019-06-20T09:59:54Z</time>
      </trkpt>
      <trkpt lat="43.730619" lon="-7.692870">
        <ele>17.265</ele>
        <time>2019-06-20T09:59:55Z</time>
      </trkpt>
      <trkpt lat="43.730739" lon="-7.693122">
        <ele>18.622</ele>
        <time>2019-06-20T09:59:56Z</time>
      </trkpt>
      <trkpt lat="43.730861" lon="-7.693372">
        <ele>21.544</ele>
        <time>2019-06-20T09:59:57Z</time>
      </trkpt>
      <trkpt lat="43.731007" lon="-7.693609">
        <ele>24.505</ele>
        <time>2019-06-20T09:59:58Z</time>
      </trkpt>
      <trkpt lat="43.731160" lon="-7.693816">
        <ele>23.515</ele>
        <time>2019-06-20T09:59:59Z</time>
      </trkpt>
      <trkpt lat="43.731319" lon="-7.694030">
        <ele>21.808</ele>
        <time>2019-06-20T10:00:00Z</time>
      </trkpt>
      <trkpt lat="43.731477" lon="-7.694239">
        <ele>19.717</ele>
        <time>2019-06-20T10:00:01Z</time>
      </trkpt>
      <trkpt lat="43.731630" lon="-7.694444">
        <ele>17.571</ele>
        <time>2019-06-20T10:00:02Z</time>
      </trkpt>
      <trkpt lat="43.731768" lon="-7.694663">
        <ele>16.822</ele>
        <time>2019-06-20T10:00:03Z</time>
      </trkpt>
      <trkpt lat="43.731888" lon="-7.694889">
        <ele>16.838</ele>
        <time>2019-06-20T10:00:04Z</time>
      </trkpt>
      <trkpt lat="43.732001" lon="-7.695118">
        <ele>17.475</ele>
        <time>2019-06-20T10:00:05Z</time>
      </trkpt>
      <trkpt lat="43.732093" lon="-7.695356">
        <ele>18.016</ele>
        <time>2019-06-20T10:00:06Z</time>
      </trkpt>
      <trkpt lat="43.732156" lon="-7.695603">
        <ele>17.168</ele>
        <time>2019-06-20T10:00:07Z</time>
      </trkpt>
      <trkpt lat="43.732227" lon="-7.695855">
        <ele>15.075</ele>
        <time>2019-06-20T10:00:08Z</time>
      </trkpt>
      <trkpt lat="43.732275" lon="-7.696084">
        <ele>15.386</ele>
        <time>2019-06-20T10:00:09Z</time>
      </trkpt>
      <trkpt lat="43.732298" lon="-7.696356">
        <ele>15.260</ele>
        <time>2019-06-20T10:00:10Z</time>
      </trkpt>
      <trkpt lat="43.732207" lon="-7.696594">
        <ele>15.726</ele>
        <time>2019-06-20T10:00:11Z</time>
      </trkpt>
      <trkpt lat="43.732136" lon="-7.696975">
        <ele>16.608</ele>
        <time>2019-06-20T10:00:12Z</time>
      </trkpt>
      <trkpt lat="43.732060" lon="-7.697301">
        <ele>13.691</ele>
        <time>2019-06-20T10:00:13Z</time>
      </trkpt>
      <trkpt lat="43.732001" lon="-7.697618">
        <ele>12.095</ele>
        <time>2019-06-20T10:00:14Z</time>
      </trkpt>
      <trkpt lat="43.731957" lon="-7.697936">
        <ele>4.386</ele>
        <time>2019-06-20T10:00:15Z</time>
      </trkpt>
      <trkpt lat="43.731862" lon="-7.698218">
        <ele>0.022</ele>
        <time>2019-06-20T10:00:16Z</time>
      </trkpt>
      <trkpt lat="43.731787" lon="-7.698492">
        <ele>0.049</ele>
        <time>2019-06-20T10:00:17Z</time>
      </trkpt>
      <trkpt lat="43.731703" lon="-7.698772">
        <ele>0.030</ele>
        <time>2019-06-20T10:00:18Z</time>
      </trkpt>
      <trkpt lat="43.731628" lon="-7.699032">
        <ele>0.052</ele>
        <time>2019-06-20T10:00:19Z</time>
      </trkpt>
      <trkpt lat="43.731568" lon="-7.699309">
        <ele>0.099</ele>
        <time>2019-06-20T10:00:20Z</time>
      </trkpt>
      <trkpt lat="43.731500" lon="-7.699585">
        <ele>0.069</ele>
        <time>2019-06-20T10:00:21Z</time>
      </trkpt>
      <trkpt lat="43.731439" lon="-7.699861">
        <ele>0.004</ele>
        <time>2019-06-20T10:00:22Z</time>
      </trkpt>
      <trkpt lat="43.731376" lon="-7.700128">
        <ele>0.024</ele>
        <time>2019-06-20T10:00:23Z</time>
      </trkpt>
      <trkpt lat="43.731312" lon="-7.700401">
        <ele>0.008</ele>
        <time>2019-06-20T10:00:24Z</time>
      </trkpt>
      <trkpt lat="43.731261" lon="-7.700649">
        <ele>1.629</ele>
        <time>2019-06-20T10:00:25Z</time>
      </trkpt>
      <trkpt lat="43.731221" lon="-7.700891">
        <ele>7.893</ele>
        <time>2019-06-20T10:00:26Z</time>
      </trkpt>
      <trkpt lat="43.731189" lon="-7.701149">
        <ele>18.294</ele>
        <time>2019-06-20T10:00:27Z</time>
      </trkpt>
      <trkpt lat="43.731186" lon="-7.701380">
        <ele>26.670</ele>
        <time>2019-06-20T10:00:28Z</time>
      </trkpt>
      <trkpt lat="43.731182" lon="-7.701622">
        <ele>33.377</ele>
        <time>2019-06-20T10:00:29Z</time>
      </trkpt>
      <trkpt lat="43.731195" lon="-7.701852">
        <ele>37.258</ele>
        <time>2019-06-20T10:00:30Z</time>
      </trkpt>
      <trkpt lat="43.731215" lon="-7.702040">
        <ele>39.370</ele>
        <time>2019-06-20T10:00:31Z</time>
      </trkpt>
      <trkpt lat="43.731278" lon="-7.702223">
        <ele>39.087</ele>
        <time>2019-06-20T10:00:32Z</time>
      </trkpt>
      <trkpt lat="43.731383" lon="-7.702378">
        <ele>34.029</ele>
        <time>2019-06-20T10:00:33Z</time>
      </trkpt>
      <trkpt lat="43.731601" lon="-7.702484">
        <ele>30.000</ele>
        <time>2019-06-20T10:00:34Z</time>
      </trkpt>
      <trkpt lat="43.731797" lon="-7.702526">
        <ele>28.820</ele>
        <time>2019-06-20T10:00:35Z</time>
      </trkpt>
      <trkpt lat="43.731941" lon="-7.702571">
        <ele>29.308</ele>
        <time>2019-06-20T10:00:36Z</time>
      </trkpt>
      <trkpt lat="43.732100" lon="-7.702518">
        <ele>27.355</ele>
        <time>2019-06-20T10:00:37Z</time>
      </trkpt>
      <trkpt lat="43.732336" lon="-7.702504">
        <ele>26.179</ele>
        <time>2019-06-20T10:00:38Z</time>
      </trkpt>
      <trkpt lat="43.732496" lon="-7.702354">
        <ele>23.950</ele>
        <time>2019-06-20T10:00:39Z</time>
      </trkpt>
      <trkpt lat="43.732641" lon="-7.702231">
        <ele>24.726</ele>
        <time>2019-06-20T10:00:40Z</time>
      </trkpt>
      <trkpt lat="43.732793" lon="-7.702101">
        <ele>25.613</ele>
        <time>2019-06-20T10:00:41Z</time>
      </trkpt>
      <trkpt lat="43.732928" lon="-7.701979">
        <ele>26.374</ele>
        <time>2019-06-20T10:00:42Z</time>
      </trkpt>
      <trkpt lat="43.733068" lon="-7.701873">
        <ele>27.046</ele>
        <time>2019-06-20T10:00:43Z</time>
      </trkpt>
      <trkpt lat="43.733242" lon="-7.701784">
        <ele>26.483</ele>
        <time>2019-06-20T10:00:44Z</time>
      </trkpt>
      <trkpt lat="43.733415" lon="-7.701736">
        <ele>27.226</ele>
        <time>2019-06-20T10:00:45Z</time>
      </trkpt>
      <trkpt lat="43.733572" lon="-7.701698">
        <ele>28.947</ele>
        <time>2019-06-20T10:00:46Z</time>
      </trkpt>
      <trkpt lat="43.733729" lon="-7.701754">
        <ele>32.111</ele>
        <time>2019-06-20T10:00:47Z</time>
      </trkpt>
      <trkpt lat="43.733887" lon="-7.701808">
        <ele>35.008</ele>
        <time>2019-06-20T10:00:48Z</time>
      </trkpt>
      <trkpt lat="43.734027" lon="-7.701901">
        <ele>35.085</ele>
        <time>2019-06-20T10:00:49Z</time>
      </trkpt>
      <trkpt lat="43.734148" lon="-7.702028">
        <ele>35.779</ele>
        <time>2019-06-20T10:00:50Z</time>
      </trkpt>
      <trkpt lat="43.734252" lon="-7.702184">
        <ele>34.820</ele>
        <time>2019-06-20T10:00:51Z</time>
      </trkpt>
      <trkpt lat="43.734341" lon="-7.702357">
        <ele>34.716</ele>
        <time>2019-06-20T10:00:52Z</time>
      </trkpt>
      <trkpt lat="43.734429" lon="-7.702537">
        <ele>34.993</ele>
        <time>2019-06-20T10:00:53Z</time>
      </trkpt>
      <trkpt lat="43.734502" lon="-7.702729">
        <ele>36.574</ele>
        <time>2019-06-20T10:00:54Z</time>
      </trkpt>
      <trkpt lat="43.734493" lon="-7.703016">
        <ele>40.466</ele>
        <time>2019-06-20T10:00:55Z</time>
      </trkpt>
      <trkpt lat="43.734533" lon="-7.703242">
        <ele>42.373</ele>
        <time>2019-06-20T10:00:56Z</time>
      </trkpt>
      <trkpt lat="43.734573" lon="-7.703457">
        <ele>43.917</ele>
        <time>2019-06-20T10:00:57Z</time>
      </trkpt>
      <trkpt lat="43.734630" lon="-7.703671">
        <ele>44.987</ele>
        <time>2019-06-20T10:00:58Z</time>
      </trkpt>
      <trkpt lat="43.734720" lon="-7.703878">
        <ele>45.915</ele>
        <time>2019-06-20T10:00:59Z</time>
      </trkpt>
      <trkpt lat="43.734847" lon="-7.704060">
        <ele>46.108</ele>
        <time>2019-06-20T10:01:00Z</time>
      </trkpt>
      <trkpt lat="43.734984" lon="-7.704209">
        <ele>47.714</ele>
        <time>2019-06-20T10:01:01Z</time>
      </trkpt>
      <trkpt lat="43.735140" lon="-7.704323">
        <ele>48.378</ele>
        <time>2019-06-20T10:01:02Z</time>
      </trkpt>
      <trkpt lat="43.735305" lon="-7.704417">
        <ele>49.269</ele>
        <time>2019-06-20T10:01:03Z</time>
      </trkpt>
      <trkpt lat="43.735476" lon="-7.704502">
        <ele>49.735</ele>
        <time>2019-06-20T10:01:04Z</time>
      </trkpt>
      <trkpt lat="43.735642" lon="-7.704584">
        <ele>50.532</ele>
        <time>2019-06-20T10:01:05Z</time>
      </trkpt>
      <trkpt lat="43.735809" lon="-7.704661">
        <ele>51.613</ele>
        <time>2019-06-20T10:01:06Z</time>
      </trkpt>
      <trkpt lat="43.735972" lon="-7.704739">
        <ele>55.495</ele>
        <time>2019-06-20T10:01:07Z</time>
      </trkpt>
      <trkpt lat="43.736133" lon="-7.704811">
        <ele>58.732</ele>
        <time>2019-06-20T10:01:08Z</time>
      </trkpt>
      <trkpt lat="43.736286" lon="-7.704880">
        <ele>60.545</ele>
        <time>2019-06-20T10:01:09Z</time>
      </trkpt>
      <trkpt lat="43.736427" lon="-7.704959">
        <ele>62.047</ele>
        <time>2019-06-20T10:01:10Z</time>
      </trkpt>
      <trkpt lat="43.736566" lon="-7.705033">
        <ele>62.011</ele>
        <time>2019-06-20T10:01:11Z</time>
      </trkpt>
      <trkpt lat="43.736648" lon="-7.705173">
        <ele>62.408</ele>
        <time>2019-06-20T10:01:12Z</time>
      </trkpt>
      <trkpt lat="43.736747" lon="-7.705296">
        <ele>63.497</ele>
        <time>2019-06-20T10:01:13Z</time>
      </trkpt>
      <trkpt lat="43.736809" lon="-7.705393">
        <ele>63.981</ele>
        <time>2019-06-20T10:01:14Z</time>
      </trkpt>
      <trkpt lat="43.736809" lon="-7.705544">
        <ele>64.542</ele>
        <time>2019-06-20T10:01:15Z</time>
      </trkpt>
      <trkpt lat="43.736824" lon="-7.705681">
        <ele>65.248</ele>
        <time>2019-06-20T10:01:16Z</time>
      </trkpt>
      <trkpt lat="43.736811" lon="-7.705823">
        <ele>65.955</ele>
        <time>2019-06-20T10:01:17Z</time>
      </trkpt>
      <trkpt lat="43.736780" lon="-7.705962">
        <ele>66.786</ele>
        <time>2019-06-20T10:01:18Z</time>
      </trkpt>
      <trkpt lat="43.736737" lon="-7.706119">
        <ele>67.388</ele>
        <time>2019-06-20T10:01:19Z</time>
      </trkpt>
      <trkpt lat="43.736690" lon="-7.706251">
        <ele>67.655</ele>
        <time>2019-06-20T10:01:20Z</time>
      </trkpt>
      <trkpt lat="43.736644" lon="-7.706349">
        <ele>68.075</ele>
        <time>2019-06-20T10:01:21Z</time>
      </trkpt>
      <trkpt lat="43.736602" lon="-7.706428">
        <ele>68.528</ele>
        <time>2019-06-20T10:01:22Z</time>
      </trkpt>
      <trkpt lat="43.736584" lon="-7.706499">
        <ele>68.620</ele>
        <time>2019-06-20T10:01:23Z</time>
      </trkpt>
      <trkpt lat="43.736626" lon="-7.706582">
        <ele>68.308</ele>
        <time>2019-06-20T10:01:25Z</time>
      </trkpt>
      <trkpt lat="43.736674" lon="-7.706597">
        <ele>68.020</ele>
        <time>2019-06-20T10:01:26Z</time>
      </trkpt>
      <trkpt lat="43.736748" lon="-7.706587">
        <ele>68.324</ele>
        <time>2019-06-20T10:01:27Z</time>
      </trkpt>
      <trkpt lat="43.736833" lon="-7.706581">
        <ele>68.635</ele>
        <time>2019-06-20T10:01:28Z</time>
      </trkpt>
      <trkpt lat="43.736953" lon="-7.706569">
        <ele>69.091</ele>
        <time>2019-06-20T10:01:29Z</time>
      </trkpt>
      <trkpt lat="43.737077" lon="-7.706559">
        <ele>69.238</ele>
        <time>2019-06-20T10:01:30Z</time>
      </trkpt>
      <trkpt lat="43.737195" lon="-7.706549">
        <ele>69.469</ele>
        <time>2019-06-20T10:01:31Z</time>
      </trkpt>
      <trkpt lat="43.737315" lon="-7.706519">
        <ele>70.041</ele>
        <time>2019-06-20T10:01:32Z</time>
      </trkpt>
      <trkpt lat="43.737429" lon="-7.706468">
        <ele>70.728</ele>
        <time>2019-06-20T10:01:33Z</time>
      </trkpt>
      <trkpt lat="43.737542" lon="-7.706424">
        <ele>71.165</ele>
        <time>2019-06-20T10:01:34Z</time>
      </trkpt>
      <trkpt lat="43.737632" lon="-7.706311">
        <ele>71.368</ele>
        <time>2019-06-20T10:01:35Z</time>
      </trkpt>
      <trkpt lat="43.737704" lon="-7.706147">
        <ele>71.514</ele>
        <time>2019-06-20T10:01:36Z</time>
      </trkpt>
      <trkpt lat="43.737779" lon="-7.706007">
        <ele>71.308</ele>
        <time>2019-06-20T10:01:37Z</time>
      </trkpt>
      <trkpt lat="43.737866" lon="-7.705879">
        <ele>71.519</ele>
        <time>2019-06-20T10:01:38Z</time>
      </trkpt>
      <trkpt lat="43.737959" lon="-7.705746">
        <ele>72.333</ele>
        <time>2019-06-20T10:01:39Z</time>
      </trkpt>
      <trkpt lat="43.738055" lon="-7.705622">
        <ele>73.254</ele>
        <time>2019-06-20T10:01:40Z</time>
      </trkpt>
      <trkpt lat="43.738156" lon="-7.705507">
        <ele>74.810</ele>
        <time>2019-06-20T10:01:41Z</time>
      </trkpt>
      <trkpt lat="43.738262" lon="-7.705411">
        <ele>76.027</ele>
        <time>2019-06-20T10:01:42Z</time>
      </trkpt>
      <trkpt lat="43.738404" lon="-7.705326">
        <ele>78.168</ele>
        <time>2019-06-20T10:01:43Z</time>
      </trkpt>
      <trkpt lat="43.738548" lon="-7.705239">
        <ele>79.980</ele>
        <time>2019-06-20T10:01:44Z</time>
      </trkpt>
      <trkpt lat="43.738702" lon="-7.705155">
        <ele>80.817</ele>
        <time>2019-06-20T10:01:45Z</time>
      </trkpt>
      <trkpt lat="43.738861" lon="-7.705067">
        <ele>81.364</ele>
        <time>2019-06-20T10:01:46Z</time>
      </trkpt>
      <trkpt lat="43.739031" lon="-7.704982">
        <ele>80.606</ele>
        <time>2019-06-20T10:01:47Z</time>
      </trkpt>
      <trkpt lat="43.739196" lon="-7.704900">
        <ele>80.616</ele>
        <time>2019-06-20T10:01:48Z</time>
      </trkpt>
      <trkpt lat="43.739358" lon="-7.704820">
        <ele>81.108</ele>
        <time>2019-06-20T10:01:49Z</time>
      </trkpt>
      <trkpt lat="43.739521" lon="-7.704749">
        <ele>82.239</ele>
        <time>2019-06-20T10:01:50Z</time>
      </trkpt>
      <trkpt lat="43.739678" lon="-7.704674">
        <ele>84.193</ele>
        <time>2019-06-20T10:01:51Z</time>
      </trkpt>
      <trkpt lat="43.739837" lon="-7.704602">
        <ele>87.834</ele>
        <time>2019-06-20T10:01:52Z</time>
      </trkpt>
      <trkpt lat="43.740002" lon="-7.704515">
        <ele>91.810</ele>
        <time>2019-06-20T10:01:53Z</time>
      </trkpt>
      <trkpt lat="43.740141" lon="-7.704390">
        <ele>93.267</ele>
        <time>2019-06-20T10:01:54Z</time>
      </trkpt>
      <trkpt lat="43.740279" lon="-7.704277">
        <ele>95.478</ele>
        <time>2019-06-20T10:01:55Z</time>
      </trkpt>
      <trkpt lat="43.740428" lon="-7.704171">
        <ele>97.920</ele>
        <time>2019-06-20T10:01:56Z</time>
      </trkpt>
      <trkpt lat="43.740580" lon="-7.704065">
        <ele>101.117</ele>
        <time>2019-06-20T10:01:57Z</time>
      </trkpt>
      <trkpt lat="43.740728" lon="-7.703975">
        <ele>103.074</ele>
        <time>2019-06-20T10:01:58Z</time>
      </trkpt>
      <trkpt lat="43.740874" lon="-7.703871">
        <ele>104.156</ele>
        <time>2019-06-20T10:01:59Z</time>
      </trkpt>
      <trkpt lat="43.741013" lon="-7.703819">
        <ele>104.821</ele>
        <time>2019-06-20T10:02:00Z</time>
      </trkpt>
      <trkpt lat="43.741160" lon="-7.703803">
        <ele>106.308</ele>
        <time>2019-06-20T10:02:01Z</time>
      </trkpt>
      <trkpt lat="43.741297" lon="-7.703780">
        <ele>107.790</ele>
        <time>2019-06-20T10:02:02Z</time>
      </trkpt>
      <trkpt lat="43.741412" lon="-7.703810">
        <ele>109.614</ele>
        <time>2019-06-20T10:02:03Z</time>
      </trkpt>
      <trkpt lat="43.741528" lon="-7.703849">
        <ele>112.185</ele>
        <time>2019-06-20T10:02:04Z</time>
      </trkpt>
      <trkpt lat="43.741643" lon="-7.703835">
        <ele>114.031</ele>
        <time>2019-06-20T10:02:05Z</time>
      </trkpt>
      <trkpt lat="43.741743" lon="-7.703811">
        <ele>115.548</ele>
        <time>2019-06-20T10:02:06Z</time>
      </trkpt>
      <trkpt lat="43.741785" lon="-7.703739">
        <ele>115.349</ele>
        <time>2019-06-20T10:02:07Z</time>
      </trkpt>
      <trkpt lat="43.741862" lon="-7.703636">
        <ele>115.171</ele>
        <time>2019-06-20T10:02:08Z</time>
      </trkpt>
      <trkpt lat="43.741899" lon="-7.703506">
        <ele>112.648</ele>
        <time>2019-06-20T10:02:09Z</time>
      </trkpt>
      <trkpt lat="43.741920" lon="-7.703343">
        <ele>108.827</ele>
        <time>2019-06-20T10:02:10Z</time>
      </trkpt>
      <trkpt lat="43.741931" lon="-7.703181">
        <ele>105.568</ele>
        <time>2019-06-20T10:02:11Z</time>
      </trkpt>
      <trkpt lat="43.741923" lon="-7.702984">
        <ele>102.114</ele>
        <time>2019-06-20T10:02:12Z</time>
      </trkpt>
      <trkpt lat="43.741911" lon="-7.702777">
        <ele>100.208</ele>
        <time>2019-06-20T10:02:13Z</time>
      </trkpt>
      <trkpt lat="43.741921" lon="-7.702578">
        <ele>99.685</ele>
        <time>2019-06-20T10:02:14Z</time>
      </trkpt>
      <trkpt lat="43.741927" lon="-7.702387">
        <ele>100.229</ele>
        <time>2019-06-20T10:02:15Z</time>
      </trkpt>
      <trkpt lat="43.741938" lon="-7.702209">
        <ele>101.830</ele>
        <time>2019-06-20T10:02:16Z</time>
      </trkpt>
      <trkpt lat="43.741950" lon="-7.702025">
        <ele>102.256</ele>
        <time>2019-06-20T10:02:17Z</time>
      </trkpt>
      <trkpt lat="43.741974" lon="-7.701829">
        <ele>102.733</ele>
        <time>2019-06-20T10:02:18Z</time>
      </trkpt>
      <trkpt lat="43.741989" lon="-7.701627">
        <ele>102.394</ele>
        <time>2019-06-20T10:02:19Z</time>
      </trkpt>
      <trkpt lat="43.742071" lon="-7.701433">
        <ele>104.656</ele>
        <time>2019-06-20T10:02:20Z</time>
      </trkpt>
      <trkpt lat="43.742130" lon="-7.701243">
        <ele>107.053</ele>
        <time>2019-06-20T10:02:21Z</time>
      </trkpt>
      <trkpt lat="43.742185" lon="-7.701064">
        <ele>109.597</ele>
        <time>2019-06-20T10:02:22Z</time>
      </trkpt>
      <trkpt lat="43.742245" lon="-7.700886">
        <ele>111.523</ele>
        <time>2019-06-20T10:02:23Z</time>
      </trkpt>
      <trkpt lat="43.742291" lon="-7.700695">
        <ele>113.325</ele>
        <time>2019-06-20T10:02:24Z</time>
      </trkpt>
      <trkpt lat="43.742329" lon="-7.700507">
        <ele>115.108</ele>
        <time>2019-06-20T10:02:25Z</time>
      </trkpt>
      <trkpt lat="43.742345" lon="-7.700299">
        <ele>116.382</ele>
        <time>2019-06-20T10:02:26Z</time>
      </trkpt>
      <trkpt lat="43.742356" lon="-7.700099">
        <ele>116.856</ele>
        <time>2019-06-20T10:02:27Z</time>
      </trkpt>
      <trkpt lat="43.742325" lon="-7.699878">
        <ele>116.477</ele>
        <time>2019-06-20T10:02:28Z</time>
      </trkpt>
      <trkpt lat="43.742330" lon="-7.699658">
        <ele>117.283</ele>
        <time>2019-06-20T10:02:29Z</time>
      </trkpt>
      <trkpt lat="43.742316" lon="-7.699441">
        <ele>117.480</ele>
        <time>2019-06-20T10:02:30Z</time>
      </trkpt>
      <trkpt lat="43.742333" lon="-7.699215">
        <ele>120.171</ele>
        <time>2019-06-20T10:02:31Z</time>
      </trkpt>
      <trkpt lat="43.742373" lon="-7.698998">
        <ele>122.243</ele>
        <time>2019-06-20T10:02:32Z</time>
      </trkpt>
      <trkpt lat="43.742430" lon="-7.698788">
        <ele>123.230</ele>
        <time>2019-06-20T10:02:33Z</time>
      </trkpt>
      <trkpt lat="43.742490" lon="-7.698579">
        <ele>123.031</ele>
        <time>2019-06-20T10:02:34Z</time>
      </trkpt>
      <trkpt lat="43.742578" lon="-7.698380">
        <ele>122.961</ele>
        <time>2019-06-20T10:02:35Z</time>
      </trkpt>
      <trkpt lat="43.742661" lon="-7.698174">
        <ele>123.107</ele>
        <time>2019-06-20T10:02:36Z</time>
      </trkpt>
      <trkpt lat="43.742755" lon="-7.697969">
        <ele>124.708</ele>
        <time>2019-06-20T10:02:37Z</time>
      </trkpt>
      <trkpt lat="43.742830" lon="-7.697771">
        <ele>127.516</ele>
        <time>2019-06-20T10:02:38Z</time>
      </trkpt>
      <trkpt lat="43.742855" lon="-7.697536">
        <ele>125.440</ele>
        <time>2019-06-20T10:02:39Z</time>
      </trkpt>
      <trkpt lat="43.742881" lon="-7.697328">
        <ele>123.751</ele>
        <time>2019-06-20T10:02:40Z</time>
      </trkpt>
      <trkpt lat="43.742894" lon="-7.697121">
        <ele>122.327</ele>
        <time>2019-06-20T10:02:41Z</time>
      </trkpt>
      <trkpt lat="43.742912" lon="-7.696916">
        <ele>122.554</ele>
        <time>2019-06-20T10:02:42Z</time>
      </trkpt>
      <trkpt lat="43.742946" lon="-7.696713">
        <ele>124.375</ele>
        <time>2019-06-20T10:02:43Z</time>
      </trkpt>
      <trkpt lat="43.742988" lon="-7.696507">
        <ele>125.787</ele>
        <time>2019-06-20T10:02:44Z</time>
      </trkpt>
      <trkpt lat="43.743061" lon="-7.696316">
        <ele>127.764</ele>
        <time>2019-06-20T10:02:45Z</time>
      </trkpt>
      <trkpt lat="43.743183" lon="-7.696142">
        <ele>130.862</ele>
        <time>2019-06-20T10:02:46Z</time>
      </trkpt>
      <trkpt lat="43.743268" lon="-7.695959">
        <ele>131.683</ele>
        <time>2019-06-20T10:02:47Z</time>
      </trkpt>
      <trkpt lat="43.743349" lon="-7.695780">
        <ele>133.311</ele>
        <time>2019-06-20T10:02:48Z</time>
      </trkpt>
      <trkpt lat="43.743435" lon="-7.695599">
        <ele>136.008</ele>
        <time>2019-06-20T10:02:49Z</time>
      </trkpt>
      <trkpt lat="43.743494" lon="-7.695411">
        <ele>137.139</ele>
        <time>2019-06-20T10:02:50Z</time>
      </trkpt>
      <trkpt lat="43.743504" lon="-7.695203">
        <ele>136.093</ele>
        <time>2019-06-20T10:02:51Z</time>
      </trkpt>
      <trkpt lat="43.743512" lon="-7.695007">
        <ele>135.384</ele>
        <time>2019-06-20T10:02:52Z</time>
      </trkpt>
      <trkpt lat="43.743545" lon="-7.694809">
        <ele>135.120</ele>
        <time>2019-06-20T10:02:53Z</time>
      </trkpt>
      <trkpt lat="43.743588" lon="-7.694616">
        <ele>135.047</ele>
        <time>2019-06-20T10:02:54Z</time>
      </trkpt>
      <trkpt lat="43.743627" lon="-7.694405">
        <ele>132.228</ele>
        <time>2019-06-20T10:02:55Z</time>
      </trkpt>
      <trkpt lat="43.743723" lon="-7.694205">
        <ele>129.560</ele>
        <time>2019-06-20T10:02:56Z</time>
      </trkpt>
      <trkpt lat="43.743787" lon="-7.693993">
        <ele>127.377</ele>
        <time>2019-06-20T10:02:57Z</time>
      </trkpt>
      <trkpt lat="43.743857" lon="-7.693794">
        <ele>125.837</ele>
        <time>2019-06-20T10:02:58Z</time>
      </trkpt>
      <trkpt lat="43.743935" lon="-7.693618">
        <ele>124.849</ele>
        <time>2019-06-20T10:02:59Z</time>
      </trkpt>
      <trkpt lat="43.744034" lon="-7.693468">
        <ele>125.613</ele>
        <time>2019-06-20T10:03:00Z</time>
      </trkpt>
      <trkpt lat="43.744115" lon="-7.693325">
        <ele>125.408</ele>
        <time>2019-06-20T10:03:01Z</time>
      </trkpt>
      <trkpt lat="43.744197" lon="-7.693207">
        <ele>125.996</ele>
        <time>2019-06-20T10:03:02Z</time>
      </trkpt>
      <trkpt lat="43.744278" lon="-7.693099">
        <ele>126.160</ele>
        <time>2019-06-20T10:03:03Z</time>
      </trkpt>
      <trkpt lat="43.744412" lon="-7.693044">
        <ele>128.161</ele>
        <time>2019-06-20T10:03:04Z</time>
      </trkpt>
      <trkpt lat="43.744572" lon="-7.693101">
        <ele>132.097</ele>
        <time>2019-06-20T10:03:05Z</time>
      </trkpt>
      <trkpt lat="43.744716" lon="-7.693107">
        <ele>134.644</ele>
        <time>2019-06-20T10:03:06Z</time>
      </trkpt>
      <trkpt lat="43.744845" lon="-7.693124">
        <ele>136.425</ele>
        <time>2019-06-20T10:03:07Z</time>
      </trkpt>
      <trkpt lat="43.745025" lon="-7.693184">
        <ele>139.277</ele>
        <time>2019-06-20T10:03:08Z</time>
      </trkpt>
      <trkpt lat="43.745177" lon="-7.693261">
        <ele>138.124</ele>
        <time>2019-06-20T10:03:09Z</time>
      </trkpt>
      <trkpt lat="43.745329" lon="-7.693323">
        <ele>136.463</ele>
        <time>2019-06-20T10:03:10Z</time>
      </trkpt>
      <trkpt lat="43.745490" lon="-7.693394">
        <ele>135.344</ele>
        <time>2019-06-20T10:03:11Z</time>
      </trkpt>
      <trkpt lat="43.745631" lon="-7.693510">
        <ele>135.218</ele>
        <time>2019-06-20T10:03:12Z</time>
      </trkpt>
      <trkpt lat="43.745778" lon="-7.693657">
        <ele>135.108</ele>
        <time>2019-06-20T10:03:13Z</time>
      </trkpt>
      <trkpt lat="43.745939" lon="-7.693805">
        <ele>136.959</ele>
        <time>2019-06-20T10:03:14Z</time>
      </trkpt>
      <trkpt lat="43.746099" lon="-7.693960">
        <ele>137.873</ele>
        <time>2019-06-20T10:03:15Z</time>
      </trkpt>
      <trkpt lat="43.746249" lon="-7.694148">
        <ele>142.324</ele>
        <time>2019-06-20T10:03:16Z</time>
      </trkpt>
      <trkpt lat="43.746414" lon="-7.694308">
        <ele>142.740</ele>
        <time>2019-06-20T10:03:17Z</time>
      </trkpt>
      <trkpt lat="43.746578" lon="-7.694473">
        <ele>145.547</ele>
        <time>2019-06-20T10:03:18Z</time>
      </trkpt>
      <trkpt lat="43.746742" lon="-7.694636">
        <ele>150.938</ele>
        <time>2019-06-20T10:03:19Z</time>
      </trkpt>
      <trkpt lat="43.746881" lon="-7.694810">
        <ele>157.040</ele>
        <time>2019-06-20T10:03:20Z</time>
      </trkpt>
      <trkpt lat="43.747027" lon="-7.694961">
        <ele>162.497</ele>
        <time>2019-06-20T10:03:21Z</time>
      </trkpt>
      <trkpt lat="43.747177" lon="-7.695105">
        <ele>163.829</ele>
        <time>2019-06-20T10:03:22Z</time>
      </trkpt>
      <trkpt lat="43.747336" lon="-7.695226">
        <ele>163.800</ele>
        <time>2019-06-20T10:03:23Z</time>
      </trkpt>
      <trkpt lat="43.747492" lon="-7.695317">
        <ele>162.220</ele>
        <time>2019-06-20T10:03:24Z</time>
      </trkpt>
      <trkpt lat="43.747637" lon="-7.695394">
        <ele>160.808</ele>
        <time>2019-06-20T10:03:25Z</time>
      </trkpt>
      <trkpt lat="43.747768" lon="-7.695477">
        <ele>159.515</ele>
        <time>2019-06-20T10:03:26Z</time>
      </trkpt>
      <trkpt lat="43.747903" lon="-7.695572">
        <ele>156.359</ele>
        <time>2019-06-20T10:03:27Z</time>
      </trkpt>
      <trkpt lat="43.748032" lon="-7.695700">
        <ele>153.130</ele>
        <time>2019-06-20T10:03:28Z</time>
      </trkpt>
      <trkpt lat="43.748149" lon="-7.695857">
        <ele>149.996</ele>
        <time>2019-06-20T10:03:29Z</time>
      </trkpt>
      <trkpt lat="43.748271" lon="-7.696018">
        <ele>146.983</ele>
        <time>2019-06-20T10:03:30Z</time>
      </trkpt>
      <trkpt lat="43.748386" lon="-7.696191">
        <ele>145.844</ele>
        <time>2019-06-20T10:03:31Z</time>
      </trkpt>
      <trkpt lat="43.748488" lon="-7.696380">
        <ele>145.386</ele>
        <time>2019-06-20T10:03:32Z</time>
      </trkpt>
      <trkpt lat="43.748577" lon="-7.696577">
        <ele>144.093</ele>
        <time>2019-06-20T10:03:33Z</time>
      </trkpt>
      <trkpt lat="43.748656" lon="-7.696784">
        <ele>143.521</ele>
        <time>2019-06-20T10:03:34Z</time>
      </trkpt>
      <trkpt lat="43.748732" lon="-7.696986">
        <ele>143.641</ele>
        <time>2019-06-20T10:03:35Z</time>
      </trkpt>
      <trkpt lat="43.748804" lon="-7.697169">
        <ele>143.405</ele>
        <time>2019-06-20T10:03:36Z</time>
      </trkpt>
      <trkpt lat="43.748881" lon="-7.697326">
        <ele>142.408</ele>
        <time>2019-06-20T10:03:37Z</time>
      </trkpt>
      <trkpt lat="43.748969" lon="-7.697459">
        <ele>142.465</ele>
        <time>2019-06-20T10:03:38Z</time>
      </trkpt>
      <trkpt lat="43.749070" lon="-7.697560">
        <ele>142.069</ele>
        <time>2019-06-20T10:03:39Z</time>
      </trkpt>
      <trkpt lat="43.749191" lon="-7.697616">
        <ele>140.530</ele>
        <time>2019-06-20T10:03:40Z</time>
      </trkpt>
      <trkpt lat="43.749329" lon="-7.697669">
        <ele>139.186</ele>
        <time>2019-06-20T10:03:41Z</time>
      </trkpt>
      <trkpt lat="43.749461" lon="-7.697721">
        <ele>137.513</ele>
        <time>2019-06-20T10:03:42Z</time>
      </trkpt>
      <trkpt lat="43.749666" lon="-7.697819">
        <ele>135.174</ele>
        <time>2019-06-20T10:03:43Z</time>
      </trkpt>
      <trkpt lat="43.749827" lon="-7.697896">
        <ele>133.966</ele>
        <time>2019-06-20T10:03:44Z</time>
      </trkpt>
      <trkpt lat="43.749988" lon="-7.697973">
        <ele>132.813</ele>
        <time>2019-06-20T10:03:45Z</time>
      </trkpt>
      <trkpt lat="43.750128" lon="-7.698050">
        <ele>132.961</ele>
        <time>2019-06-20T10:03:46Z</time>
      </trkpt>
      <trkpt lat="43.750259" lon="-7.698130">
        <ele>134.321</ele>
        <time>2019-06-20T10:03:47Z</time>
      </trkpt>
      <trkpt lat="43.750410" lon="-7.698204">
        <ele>135.713</ele>
        <time>2019-06-20T10:03:48Z</time>
      </trkpt>
      <trkpt lat="43.750537" lon="-7.698269">
        <ele>136.808</ele>
        <time>2019-06-20T10:03:49Z</time>
      </trkpt>
      <trkpt lat="43.750673" lon="-7.698308">
        <ele>137.039</ele>
        <time>2019-06-20T10:03:50Z</time>
      </trkpt>
      <trkpt lat="43.750786" lon="-7.698319">
        <ele>136.833</ele>
        <time>2019-06-20T10:03:51Z</time>
      </trkpt>
      <trkpt lat="43.750936" lon="-7.698361">
        <ele>136.434</ele>
        <time>2019-06-20T10:03:52Z</time>
      </trkpt>
      <trkpt lat="43.751129" lon="-7.698321">
        <ele>133.870</ele>
        <time>2019-06-20T10:03:53Z</time>
      </trkpt>
      <trkpt lat="43.751265" lon="-7.698278">
        <ele>133.047</ele>
        <time>2019-06-20T10:03:54Z</time>
      </trkpt>
      <trkpt lat="43.751387" lon="-7.698197">
        <ele>131.538</ele>
        <time>2019-06-20T10:03:55Z</time>
      </trkpt>
      <trkpt lat="43.751513" lon="-7.698139">
        <ele>131.380</ele>
        <time>2019-06-20T10:03:56Z</time>
      </trkpt>
      <trkpt lat="43.751639" lon="-7.698129">
        <ele>131.957</ele>
        <time>2019-06-20T10:03:57Z</time>
      </trkpt>
      <trkpt lat="43.751759" lon="-7.698149">
        <ele>132.297</ele>
        <time>2019-06-20T10:03:58Z</time>
      </trkpt>
      <trkpt lat="43.751866" lon="-7.698212">
        <ele>132.823</ele>
        <time>2019-06-20T10:03:59Z</time>
      </trkpt>
      <trkpt lat="43.751970" lon="-7.698320">
        <ele>133.525</ele>
        <time>2019-06-20T10:04:00Z</time>
      </trkpt>
      <trkpt lat="43.752075" lon="-7.698459">
        <ele>133.708</ele>
        <time>2019-06-20T10:04:01Z</time>
      </trkpt>
      <trkpt lat="43.752187" lon="-7.698593">
        <ele>133.452</ele>
        <time>2019-06-20T10:04:02Z</time>
      </trkpt>
      <trkpt lat="43.752296" lon="-7.698721">
        <ele>133.226</ele>
        <time>2019-06-20T10:04:03Z</time>
      </trkpt>
      <trkpt lat="43.752397" lon="-7.698840">
        <ele>133.577</ele>
        <time>2019-06-20T10:04:04Z</time>
      </trkpt>
      <trkpt lat="43.752488" lon="-7.698959">
        <ele>134.223</ele>
        <time>2019-06-20T10:04:05Z</time>
      </trkpt>
      <trkpt lat="43.752564" lon="-7.699093">
        <ele>134.370</ele>
        <time>2019-06-20T10:04:06Z</time>
      </trkpt>
      <trkpt lat="43.752622" lon="-7.699252">
        <ele>135.341</ele>
        <time>2019-06-20T10:04:07Z</time>
      </trkpt>
      <trkpt lat="43.752678" lon="-7.699404">
        <ele>136.523</ele>
        <time>2019-06-20T10:04:08Z</time>
      </trkpt>
      <trkpt lat="43.752729" lon="-7.699546">
        <ele>138.290</ele>
        <time>2019-06-20T10:04:09Z</time>
      </trkpt>
      <trkpt lat="43.752784" lon="-7.699677">
        <ele>140.092</ele>
        <time>2019-06-20T10:04:10Z</time>
      </trkpt>
      <trkpt lat="43.752844" lon="-7.699777">
        <ele>141.673</ele>
        <time>2019-06-20T10:04:11Z</time>
      </trkpt>
      <trkpt lat="43.752992" lon="-7.699803">
        <ele>141.420</ele>
        <time>2019-06-20T10:04:12Z</time>
      </trkpt>
      <trkpt lat="43.753095" lon="-7.699793">
        <ele>141.008</ele>
        <time>2019-06-20T10:04:13Z</time>
      </trkpt>
      <trkpt lat="43.753205" lon="-7.699785">
        <ele>141.242</ele>
        <time>2019-06-20T10:04:14Z</time>
      </trkpt>
      <trkpt lat="43.753319" lon="-7.699687">
        <ele>139.366</ele>
        <time>2019-06-20T10:04:15Z</time>
      </trkpt>
      <trkpt lat="43.753436" lon="-7.699586">
        <ele>139.647</ele>
        <time>2019-06-20T10:04:16Z</time>
      </trkpt>
      <trkpt lat="43.753567" lon="-7.699479">
        <ele>140.653</ele>
        <time>2019-06-20T10:04:17Z</time>
      </trkpt>
      <trkpt lat="43.753711" lon="-7.699377">
        <ele>142.550</ele>
        <time>2019-06-20T10:04:18Z</time>
      </trkpt>
      <trkpt lat="43.753859" lon="-7.699277">
        <ele>144.861</ele>
        <time>2019-06-20T10:04:19Z</time>
      </trkpt>
      <trkpt lat="43.754014" lon="-7.699173">
        <ele>146.483</ele>
        <time>2019-06-20T10:04:20Z</time>
      </trkpt>
      <trkpt lat="43.754176" lon="-7.699067">
        <ele>147.090</ele>
        <time>2019-06-20T10:04:21Z</time>
      </trkpt>
      <trkpt lat="43.754328" lon="-7.698965">
        <ele>148.145</ele>
        <time>2019-06-20T10:04:22Z</time>
      </trkpt>
      <trkpt lat="43.754458" lon="-7.698870">
        <ele>148.847</ele>
        <time>2019-06-20T10:04:23Z</time>
      </trkpt>
      <trkpt lat="43.754600" lon="-7.698783">
        <ele>149.311</ele>
        <time>2019-06-20T10:04:24Z</time>
      </trkpt>
      <trkpt lat="43.754750" lon="-7.698706">
        <ele>149.508</ele>
        <time>2019-06-20T10:04:25Z</time>
      </trkpt>
      <trkpt lat="43.754853" lon="-7.698629">
        <ele>148.397</ele>
        <time>2019-06-20T10:04:26Z</time>
      </trkpt>
      <trkpt lat="43.754956" lon="-7.698547">
        <ele>148.131</ele>
        <time>2019-06-20T10:04:27Z</time>
      </trkpt>
      <trkpt lat="43.755049" lon="-7.698447">
        <ele>148.692</ele>
        <time>2019-06-20T10:04:28Z</time>
      </trkpt>
      <trkpt lat="43.755148" lon="-7.698327">
        <ele>149.188</ele>
        <time>2019-06-20T10:04:29Z</time>
      </trkpt>
      <trkpt lat="43.755140" lon="-7.698158">
        <ele>148.185</ele>
        <time>2019-06-20T10:04:30Z</time>
      </trkpt>
      <trkpt lat="43.755212" lon="-7.697962">
        <ele>147.986</ele>
        <time>2019-06-20T10:04:31Z</time>
      </trkpt>
      <trkpt lat="43.755294" lon="-7.697785">
        <ele>148.358</ele>
        <time>2019-06-20T10:04:32Z</time>
      </trkpt>
      <trkpt lat="43.755386" lon="-7.697613">
        <ele>149.185</ele>
        <time>2019-06-20T10:04:33Z</time>
      </trkpt>
      <trkpt lat="43.755495" lon="-7.697438">
        <ele>150.022</ele>
        <time>2019-06-20T10:04:34Z</time>
      </trkpt>
      <trkpt lat="43.755607" lon="-7.697256">
        <ele>152.062</ele>
        <time>2019-06-20T10:04:35Z</time>
      </trkpt>
      <trkpt lat="43.755735" lon="-7.697080">
        <ele>151.908</ele>
        <time>2019-06-20T10:04:36Z</time>
      </trkpt>
      <trkpt lat="43.755862" lon="-7.696922">
        <ele>151.308</ele>
        <time>2019-06-20T10:04:37Z</time>
      </trkpt>
      <trkpt lat="43.755956" lon="-7.696764">
        <ele>150.835</ele>
        <time>2019-06-20T10:04:38Z</time>
      </trkpt>
      <trkpt lat="43.756050" lon="-7.696621">
        <ele>150.699</ele>
        <time>2019-06-20T10:04:39Z</time>
      </trkpt>
      <trkpt lat="43.756134" lon="-7.696494">
        <ele>149.870</ele>
        <time>2019-06-20T10:04:40Z</time>
      </trkpt>
      <trkpt lat="43.756218" lon="-7.696382">
        <ele>149.256</ele>
        <time>2019-06-20T10:04:41Z</time>
      </trkpt>
      <trkpt lat="43.756399" lon="-7.696341">
        <ele>152.283</ele>
        <time>2019-06-20T10:04:42Z</time>
      </trkpt>
      <trkpt lat="43.756545" lon="-7.696285">
        <ele>152.644</ele>
        <time>2019-06-20T10:04:43Z</time>
      </trkpt>
      <trkpt lat="43.756661" lon="-7.696225">
        <ele>152.426</ele>
        <time>2019-06-20T10:04:44Z</time>
      </trkpt>
      <trkpt lat="43.756776" lon="-7.696206">
        <ele>152.863</ele>
        <time>2019-06-20T10:04:45Z</time>
      </trkpt>
      <trkpt lat="43.756946" lon="-7.696215">
        <ele>154.341</ele>
        <time>2019-06-20T10:04:46Z</time>
      </trkpt>
      <trkpt lat="43.757087" lon="-7.696198">
        <ele>155.181</ele>
        <time>2019-06-20T10:04:47Z</time>
      </trkpt>
      <trkpt lat="43.757238" lon="-7.696157">
        <ele>155.409</ele>
        <time>2019-06-20T10:04:48Z</time>
      </trkpt>
      <trkpt lat="43.757375" lon="-7.696087">
        <ele>155.508</ele>
        <time>2019-06-20T10:04:49Z</time>
      </trkpt>
      <trkpt lat="43.757523" lon="-7.695987">
        <ele>155.037</ele>
        <time>2019-06-20T10:04:50Z</time>
      </trkpt>
      <trkpt lat="43.757669" lon="-7.695869">
        <ele>156.311</ele>
        <time>2019-06-20T10:04:51Z</time>
      </trkpt>
      <trkpt lat="43.757811" lon="-7.695733">
        <ele>157.542</ele>
        <time>2019-06-20T10:04:52Z</time>
      </trkpt>
      <trkpt lat="43.757962" lon="-7.695618">
        <ele>157.328</ele>
        <time>2019-06-20T10:04:53Z</time>
      </trkpt>
      <trkpt lat="43.758112" lon="-7.695510">
        <ele>156.535</ele>
        <time>2019-06-20T10:04:54Z</time>
      </trkpt>
      <trkpt lat="43.758247" lon="-7.695403">
        <ele>155.496</ele>
        <time>2019-06-20T10:04:55Z</time>
      </trkpt>
      <trkpt lat="43.758397" lon="-7.695318">
        <ele>155.818</ele>
        <time>2019-06-20T10:04:56Z</time>
      </trkpt>
      <trkpt lat="43.758526" lon="-7.695223">
        <ele>155.955</ele>
        <time>2019-06-20T10:04:57Z</time>
      </trkpt>
      <trkpt lat="43.758650" lon="-7.695108">
        <ele>154.852</ele>
        <time>2019-06-20T10:04:58Z</time>
      </trkpt>
      <trkpt lat="43.758793" lon="-7.694986">
        <ele>153.653</ele>
        <time>2019-06-20T10:04:59Z</time>
      </trkpt>
      <trkpt lat="43.758939" lon="-7.694847">
        <ele>153.108</ele>
        <time>2019-06-20T10:05:00Z</time>
      </trkpt>
      <trkpt lat="43.759065" lon="-7.694688">
        <ele>153.208</ele>
        <time>2019-06-20T10:05:01Z</time>
      </trkpt>
      <trkpt lat="43.759164" lon="-7.694499">
        <ele>155.178</ele>
        <time>2019-06-20T10:05:02Z</time>
      </trkpt>
      <trkpt lat="43.759250" lon="-7.694282">
        <ele>155.452</ele>
        <time>2019-06-20T10:05:03Z</time>
      </trkpt>
      <trkpt lat="43.759368" lon="-7.694066">
        <ele>156.583</ele>
        <time>2019-06-20T10:05:04Z</time>
      </trkpt>
      <trkpt lat="43.759446" lon="-7.693818">
        <ele>156.599</ele>
        <time>2019-06-20T10:05:05Z</time>
      </trkpt>
      <trkpt lat="43.759533" lon="-7.693585">
        <ele>156.946</ele>
        <time>2019-06-20T10:05:06Z</time>
      </trkpt>
      <trkpt lat="43.759572" lon="-7.693332">
        <ele>155.277</ele>
        <time>2019-06-20T10:05:07Z</time>
      </trkpt>
      <trkpt lat="43.759659" lon="-7.693096">
        <ele>156.679</ele>
        <time>2019-06-20T10:05:08Z</time>
      </trkpt>
      <trkpt lat="43.759726" lon="-7.692852">
        <ele>158.136</ele>
        <time>2019-06-20T10:05:09Z</time>
      </trkpt>
      <trkpt lat="43.759794" lon="-7.692601">
        <ele>158.784</ele>
        <time>2019-06-20T10:05:10Z</time>
      </trkpt>
      <trkpt lat="43.759863" lon="-7.692350">
        <ele>158.407</ele>
        <time>2019-06-20T10:05:11Z</time>
      </trkpt>
      <trkpt lat="43.759931" lon="-7.692125">
        <ele>157.517</ele>
        <time>2019-06-20T10:05:12Z</time>
      </trkpt>
      <trkpt lat="43.760001" lon="-7.691913">
        <ele>155.508</ele>
        <time>2019-06-20T10:05:13Z</time>
      </trkpt>
      <trkpt lat="43.760074" lon="-7.691707">
        <ele>155.291</ele>
        <time>2019-06-20T10:05:14Z</time>
      </trkpt>
      <trkpt lat="43.760139" lon="-7.691513">
        <ele>155.845</ele>
        <time>2019-06-20T10:05:15Z</time>
      </trkpt>
      <trkpt lat="43.760202" lon="-7.691335">
        <ele>156.996</ele>
        <time>2019-06-20T10:05:16Z</time>
      </trkpt>
      <trkpt lat="43.760267" lon="-7.691169">
        <ele>158.842</ele>
        <time>2019-06-20T10:05:17Z</time>
      </trkpt>
      <trkpt lat="43.760330" lon="-7.691002">
        <ele>160.599</ele>
        <time>2019-06-20T10:05:18Z</time>
      </trkpt>
      <trkpt lat="43.760414" lon="-7.690855">
        <ele>162.510</ele>
        <time>2019-06-20T10:05:19Z</time>
      </trkpt>
      <trkpt lat="43.760493" lon="-7.690703">
        <ele>163.762</ele>
        <time>2019-06-20T10:05:20Z</time>
      </trkpt>
      <trkpt lat="43.760631" lon="-7.690585">
        <ele>165.979</ele>
        <time>2019-06-20T10:05:21Z</time>
      </trkpt>
      <trkpt lat="43.760749" lon="-7.690463">
        <ele>166.652</ele>
        <time>2019-06-20T10:05:22Z</time>
      </trkpt>
      <trkpt lat="43.760880" lon="-7.690348">
        <ele>166.953</ele>
        <time>2019-06-20T10:05:23Z</time>
      </trkpt>
      <trkpt lat="43.760980" lon="-7.690243">
        <ele>166.008</ele>
        <time>2019-06-20T10:05:24Z</time>
      </trkpt>
      <trkpt lat="43.761105" lon="-7.690159">
        <ele>165.408</ele>
        <time>2019-06-20T10:05:25Z</time>
      </trkpt>
      <trkpt lat="43.761232" lon="-7.690077">
        <ele>165.588</ele>
        <time>2019-06-20T10:05:26Z</time>
      </trkpt>
      <trkpt lat="43.761370" lon="-7.690023">
        <ele>166.392</ele>
        <time>2019-06-20T10:05:27Z</time>
      </trkpt>
      <trkpt lat="43.761509" lon="-7.689961">
        <ele>168.113</ele>
        <time>2019-06-20T10:05:28Z</time>
      </trkpt>
      <trkpt lat="43.761620" lon="-7.689973">
        <ele>171.229</ele>
        <time>2019-06-20T10:05:29Z</time>
      </trkpt>
      <trkpt lat="43.761734" lon="-7.689957">
        <ele>173.676</ele>
        <time>2019-06-20T10:05:30Z</time>
      </trkpt>
      <trkpt lat="43.761827" lon="-7.689911">
        <ele>174.787</ele>
        <time>2019-06-20T10:05:31Z</time>
      </trkpt>
      <trkpt lat="43.761930" lon="-7.689830">
        <ele>175.699</ele>
        <time>2019-06-20T10:05:32Z</time>
      </trkpt>
      <trkpt lat="43.762033" lon="-7.689721">
        <ele>176.856</ele>
        <time>2019-06-20T10:05:33Z</time>
      </trkpt>
      <trkpt lat="43.762137" lon="-7.689617">
        <ele>178.915</ele>
        <time>2019-06-20T10:05:34Z</time>
      </trkpt>
      <trkpt lat="43.762221" lon="-7.689430">
        <ele>179.765</ele>
        <time>2019-06-20T10:05:35Z</time>
      </trkpt>
      <trkpt lat="43.762259" lon="-7.689235">
        <ele>177.911</ele>
        <time>2019-06-20T10:05:36Z</time>
      </trkpt>
      <trkpt lat="43.762336" lon="-7.689047">
        <ele>178.208</ele>
        <time>2019-06-20T10:05:37Z</time>
      </trkpt>
      <trkpt lat="43.762433" lon="-7.688866">
        <ele>178.974</ele>
        <time>2019-06-20T10:05:38Z</time>
      </trkpt>
      <trkpt lat="43.762532" lon="-7.688683">
        <ele>179.038</ele>
        <time>2019-06-20T10:05:39Z</time>
      </trkpt>
      <trkpt lat="43.762656" lon="-7.688507">
        <ele>179.169</ele>
        <time>2019-06-20T10:05:40Z</time>
      </trkpt>
      <trkpt lat="43.762782" lon="-7.688337">
        <ele>181.155</ele>
        <time>2019-06-20T10:05:41Z</time>
      </trkpt>
      <trkpt lat="43.762906" lon="-7.688176">
        <ele>179.882</ele>
        <time>2019-06-20T10:05:42Z</time>
      </trkpt>
      <trkpt lat="43.763037" lon="-7.688038">
        <ele>179.313</ele>
        <time>2019-06-20T10:05:43Z</time>
      </trkpt>
      <trkpt lat="43.763189" lon="-7.687924">
        <ele>176.755</ele>
        <time>2019-06-20T10:05:44Z</time>
      </trkpt>
      <trkpt lat="43.763309" lon="-7.687801">
        <ele>174.382</ele>
        <time>2019-06-20T10:05:45Z</time>
      </trkpt>
      <trkpt lat="43.763455" lon="-7.687709">
        <ele>172.322</ele>
        <time>2019-06-20T10:05:46Z</time>
      </trkpt>
      <trkpt lat="43.763622" lon="-7.687631">
        <ele>170.462</ele>
        <time>2019-06-20T10:05:47Z</time>
      </trkpt>
      <trkpt lat="43.763778" lon="-7.687564">
        <ele>169.208</ele>
        <time>2019-06-20T10:05:48Z</time>
      </trkpt>
      <trkpt lat="43.763938" lon="-7.687494">
        <ele>168.208</ele>
        <time>2019-06-20T10:05:49Z</time>
      </trkpt>
      <trkpt lat="43.764126" lon="-7.687436">
        <ele>168.545</ele>
        <time>2019-06-20T10:05:50Z</time>
      </trkpt>
      <trkpt lat="43.764303" lon="-7.687381">
        <ele>167.999</ele>
        <time>2019-06-20T10:05:51Z</time>
      </trkpt>
      <trkpt lat="43.764484" lon="-7.687312">
        <ele>166.580</ele>
        <time>2019-06-20T10:05:52Z</time>
      </trkpt>
      <trkpt lat="43.764662" lon="-7.687233">
        <ele>164.426</ele>
        <time>2019-06-20T10:05:53Z</time>
      </trkpt>
      <trkpt lat="43.764836" lon="-7.687169">
        <ele>163.523</ele>
        <time>2019-06-20T10:05:54Z</time>
      </trkpt>
      <trkpt lat="43.765015" lon="-7.687092">
        <ele>162.994</ele>
        <time>2019-06-20T10:05:55Z</time>
      </trkpt>
      <trkpt lat="43.765189" lon="-7.687030">
        <ele>162.446</ele>
        <time>2019-06-20T10:05:56Z</time>
      </trkpt>
      <trkpt lat="43.765349" lon="-7.686965">
        <ele>161.753</ele>
        <time>2019-06-20T10:05:57Z</time>
      </trkpt>
      <trkpt lat="43.765508" lon="-7.686894">
        <ele>161.787</ele>
        <time>2019-06-20T10:05:58Z</time>
      </trkpt>
      <trkpt lat="43.765665" lon="-7.686831">
        <ele>159.542</ele>
        <time>2019-06-20T10:05:59Z</time>
      </trkpt>
      <trkpt lat="43.765820" lon="-7.686769">
        <ele>156.626</ele>
        <time>2019-06-20T10:06:00Z</time>
      </trkpt>
      <trkpt lat="43.765979" lon="-7.686708">
        <ele>155.208</ele>
        <time>2019-06-20T10:06:01Z</time>
      </trkpt>
      <trkpt lat="43.766138" lon="-7.686657">
        <ele>153.931</ele>
        <time>2019-06-20T10:06:02Z</time>
      </trkpt>
      <trkpt lat="43.766292" lon="-7.686607">
        <ele>153.045</ele>
        <time>2019-06-20T10:06:03Z</time>
      </trkpt>
      <trkpt lat="43.766413" lon="-7.686561">
        <ele>152.156</ele>
        <time>2019-06-20T10:06:04Z</time>
      </trkpt>
      <trkpt lat="43.766542" lon="-7.686521">
        <ele>150.672</ele>
        <time>2019-06-20T10:06:05Z</time>
      </trkpt>
      <trkpt lat="43.766672" lon="-7.686462">
        <ele>148.969</ele>
        <time>2019-06-20T10:06:06Z</time>
      </trkpt>
      <trkpt lat="43.766786" lon="-7.686378">
        <ele>147.870</ele>
        <time>2019-06-20T10:06:07Z</time>
      </trkpt>
      <trkpt lat="43.766912" lon="-7.686285">
        <ele>146.792</ele>
        <time>2019-06-20T10:06:08Z</time>
      </trkpt>
      <trkpt lat="43.767044" lon="-7.686167">
        <ele>145.799</ele>
        <time>2019-06-20T10:06:09Z</time>
      </trkpt>
      <trkpt lat="43.767169" lon="-7.686019">
        <ele>145.143</ele>
        <time>2019-06-20T10:06:10Z</time>
      </trkpt>
      <trkpt lat="43.767299" lon="-7.685866">
        <ele>143.564</ele>
        <time>2019-06-20T10:06:11Z</time>
      </trkpt>
      <trkpt lat="43.767415" lon="-7.685708">
        <ele>142.310</ele>
        <time>2019-06-20T10:06:12Z</time>
      </trkpt>
      <trkpt lat="43.767532" lon="-7.685553">
        <ele>140.508</ele>
        <time>2019-06-20T10:06:13Z</time>
      </trkpt>
      <trkpt lat="43.767628" lon="-7.685405">
        <ele>140.177</ele>
        <time>2019-06-20T10:06:14Z</time>
      </trkpt>
      <trkpt lat="43.767715" lon="-7.685255">
        <ele>139.611</ele>
        <time>2019-06-20T10:06:15Z</time>
      </trkpt>
      <trkpt lat="43.767823" lon="-7.685132">
        <ele>138.672</ele>
        <time>2019-06-20T10:06:16Z</time>
      </trkpt>
      <trkpt lat="43.767933" lon="-7.685031">
        <ele>136.938</ele>
        <time>2019-06-20T10:06:17Z</time>
      </trkpt>
      <trkpt lat="43.768070" lon="-7.684983">
        <ele>134.135</ele>
        <time>2019-06-20T10:06:18Z</time>
      </trkpt>
      <trkpt lat="43.768214" lon="-7.684963">
        <ele>133.356</ele>
        <time>2019-06-20T10:06:19Z</time>
      </trkpt>
      <trkpt lat="43.768388" lon="-7.684963">
        <ele>132.578</ele>
        <time>2019-06-20T10:06:20Z</time>
      </trkpt>
      <trkpt lat="43.768546" lon="-7.684960">
        <ele>132.695</ele>
        <time>2019-06-20T10:06:21Z</time>
      </trkpt>
      <trkpt lat="43.768690" lon="-7.684946">
        <ele>132.022</ele>
        <time>2019-06-20T10:06:22Z</time>
      </trkpt>
      <trkpt lat="43.768829" lon="-7.684928">
        <ele>130.962</ele>
        <time>2019-06-20T10:06:23Z</time>
      </trkpt>
      <trkpt lat="43.768990" lon="-7.684915">
        <ele>129.808</ele>
        <time>2019-06-20T10:06:24Z</time>
      </trkpt>
      <trkpt lat="43.769149" lon="-7.684905">
        <ele>128.808</ele>
        <time>2019-06-20T10:06:25Z</time>
      </trkpt>
      <trkpt lat="43.769274" lon="-7.684905">
        <ele>127.655</ele>
        <time>2019-06-20T10:06:26Z</time>
      </trkpt>
      <trkpt lat="43.769417" lon="-7.684932">
        <ele>125.539</ele>
        <time>2019-06-20T10:06:27Z</time>
      </trkpt>
      <trkpt lat="43.769556" lon="-7.684979">
        <ele>124.430</ele>
        <time>2019-06-20T10:06:28Z</time>
      </trkpt>
      <trkpt lat="43.769688" lon="-7.685045">
        <ele>123.466</ele>
        <time>2019-06-20T10:06:29Z</time>
      </trkpt>
      <trkpt lat="43.769807" lon="-7.685120">
        <ele>122.483</ele>
        <time>2019-06-20T10:06:30Z</time>
      </trkpt>
      <trkpt lat="43.769932" lon="-7.685191">
        <ele>121.524</ele>
        <time>2019-06-20T10:06:31Z</time>
      </trkpt>
      <trkpt lat="43.770042" lon="-7.685249">
        <ele>120.166</ele>
        <time>2019-06-20T10:06:32Z</time>
      </trkpt>
      <trkpt lat="43.770144" lon="-7.685297">
        <ele>118.223</ele>
        <time>2019-06-20T10:06:33Z</time>
      </trkpt>
      <trkpt lat="43.770250" lon="-7.685327">
        <ele>116.668</ele>
        <time>2019-06-20T10:06:34Z</time>
      </trkpt>
      <trkpt lat="43.770344" lon="-7.685315">
        <ele>115.842</ele>
        <time>2019-06-20T10:06:35Z</time>
      </trkpt>
      <trkpt lat="43.770407" lon="-7.685258">
        <ele>115.926</ele>
        <time>2019-06-20T10:06:36Z</time>
      </trkpt>
      <trkpt lat="43.770473" lon="-7.685172">
        <ele>116.008</ele>
        <time>2019-06-20T10:06:37Z</time>
      </trkpt>
      <trkpt lat="43.770515" lon="-7.685053">
        <ele>116.479</ele>
        <time>2019-06-20T10:06:38Z</time>
      </trkpt>
      <trkpt lat="43.770554" lon="-7.684916">
        <ele>116.353</ele>
        <time>2019-06-20T10:06:39Z</time>
      </trkpt>
      <trkpt lat="43.770601" lon="-7.684782">
        <ele>116.364</ele>
        <time>2019-06-20T10:06:40Z</time>
      </trkpt>
      <trkpt lat="43.770665" lon="-7.684662">
        <ele>115.830</ele>
        <time>2019-06-20T10:06:41Z</time>
      </trkpt>
      <trkpt lat="43.770739" lon="-7.684542">
        <ele>115.077</ele>
        <time>2019-06-20T10:06:42Z</time>
      </trkpt>
      <trkpt lat="43.770839" lon="-7.684426">
        <ele>114.098</ele>
        <time>2019-06-20T10:06:43Z</time>
      </trkpt>
      <trkpt lat="43.770951" lon="-7.684308">
        <ele>113.620</ele>
        <time>2019-06-20T10:06:44Z</time>
      </trkpt>
      <trkpt lat="43.771062" lon="-7.684189">
        <ele>112.557</ele>
        <time>2019-06-20T10:06:45Z</time>
      </trkpt>
      <trkpt lat="43.771172" lon="-7.684072">
        <ele>111.428</ele>
        <time>2019-06-20T10:06:46Z</time>
      </trkpt>
      <trkpt lat="43.771275" lon="-7.683953">
        <ele>110.289</ele>
        <time>2019-06-20T10:06:47Z</time>
      </trkpt>
      <trkpt lat="43.771369" lon="-7.683836">
        <ele>108.817</ele>
        <time>2019-06-20T10:06:48Z</time>
      </trkpt>
      <trkpt lat="43.771469" lon="-7.683720">
        <ele>107.608</ele>
        <time>2019-06-20T10:06:49Z</time>
      </trkpt>
      <trkpt lat="43.771574" lon="-7.683612">
        <ele>106.325</ele>
        <time>2019-06-20T10:06:50Z</time>
      </trkpt>
      <trkpt lat="43.771673" lon="-7.683504">
        <ele>104.159</ele>
        <time>2019-06-20T10:06:51Z</time>
      </trkpt>
      <trkpt lat="43.771768" lon="-7.683400">
        <ele>102.280</ele>
        <time>2019-06-20T10:06:52Z</time>
      </trkpt>
      <trkpt lat="43.771853" lon="-7.683317">
        <ele>100.866</ele>
        <time>2019-06-20T10:06:53Z</time>
      </trkpt>
      <trkpt lat="43.771919" lon="-7.683245">
        <ele>99.893</ele>
        <time>2019-06-20T10:06:54Z</time>
      </trkpt>
      <trkpt lat="43.771967" lon="-7.683188">
        <ele>98.714</ele>
        <time>2019-06-20T10:06:55Z</time>
      </trkpt>
      <trkpt lat="43.772007" lon="-7.683157">
        <ele>97.836</ele>
        <time>2019-06-20T10:06:57Z</time>
      </trkpt>
      <trkpt lat="43.772072" lon="-7.683143">
        <ele>96.923</ele>
        <time>2019-06-20T10:07:05Z</time>
      </trkpt>
      <trkpt lat="43.772125" lon="-7.683132">
        <ele>96.217</ele>
        <time>2019-06-20T10:07:06Z</time>
      </trkpt>
      <trkpt lat="43.772209" lon="-7.683142">
        <ele>95.487</ele>
        <time>2019-06-20T10:07:07Z</time>
      </trkpt>
      <trkpt lat="43.772315" lon="-7.683191">
        <ele>96.315</ele>
        <time>2019-06-20T10:07:08Z</time>
      </trkpt>
      <trkpt lat="43.772419" lon="-7.683241">
        <ele>97.408</ele>
        <time>2019-06-20T10:07:09Z</time>
      </trkpt>
      <trkpt lat="43.772531" lon="-7.683320">
        <ele>98.674</ele>
        <time>2019-06-20T10:07:10Z</time>
      </trkpt>
      <trkpt lat="43.772637" lon="-7.683433">
        <ele>98.688</ele>
        <time>2019-06-20T10:07:11Z</time>
      </trkpt>
      <trkpt lat="43.772749" lon="-7.683524">
        <ele>98.099</ele>
        <time>2019-06-20T10:07:12Z</time>
      </trkpt>
      <trkpt lat="43.772828" lon="-7.683584">
        <ele>97.065</ele>
        <time>2019-06-20T10:07:13Z</time>
      </trkpt>
      <trkpt lat="43.772915" lon="-7.683644">
        <ele>95.892</ele>
        <time>2019-06-20T10:07:14Z</time>
      </trkpt>
      <trkpt lat="43.772997" lon="-7.683685">
        <ele>94.763</ele>
        <time>2019-06-20T10:07:15Z</time>
      </trkpt>
      <trkpt lat="43.773082" lon="-7.683683">
        <ele>93.175</ele>
        <time>2019-06-20T10:07:16Z</time>
      </trkpt>
      <trkpt lat="43.773139" lon="-7.683633">
        <ele>91.142</ele>
        <time>2019-06-20T10:07:17Z</time>
      </trkpt>
      <trkpt lat="43.773193" lon="-7.683558">
        <ele>89.259</ele>
        <time>2019-06-20T10:07:18Z</time>
      </trkpt>
      <trkpt lat="43.773238" lon="-7.683468">
        <ele>87.703</ele>
        <time>2019-06-20T10:07:19Z</time>
      </trkpt>
      <trkpt lat="43.773266" lon="-7.683369">
        <ele>86.623</ele>
        <time>2019-06-20T10:07:20Z</time>
      </trkpt>
      <trkpt lat="43.773216" lon="-7.683256">
        <ele>87.208</ele>
        <time>2019-06-20T10:07:21Z</time>
      </trkpt>
      <trkpt lat="43.773173" lon="-7.683156">
        <ele>87.478</ele>
        <time>2019-06-20T10:07:22Z</time>
      </trkpt>
      <trkpt lat="43.773126" lon="-7.683060">
        <ele>87.352</ele>
        <time>2019-06-20T10:07:23Z</time>
      </trkpt>
      <trkpt lat="43.773083" lon="-7.682968">
        <ele>87.163</ele>
        <time>2019-06-20T10:07:24Z</time>
      </trkpt>
      <trkpt lat="43.773042" lon="-7.682870">
        <ele>86.959</ele>
        <time>2019-06-20T10:07:25Z</time>
      </trkpt>
      <trkpt lat="43.773006" lon="-7.682776">
        <ele>86.776</ele>
        <time>2019-06-20T10:07:26Z</time>
      </trkpt>
      <trkpt lat="43.772984" lon="-7.682675">
        <ele>86.797</ele>
        <time>2019-06-20T10:07:27Z</time>
      </trkpt>
      <trkpt lat="43.772971" lon="-7.682564">
        <ele>86.519</ele>
        <time>2019-06-20T10:07:28Z</time>
      </trkpt>
      <trkpt lat="43.773003" lon="-7.682447">
        <ele>86.186</ele>
        <time>2019-06-20T10:07:30Z</time>
      </trkpt>
      <trkpt lat="43.773022" lon="-7.682389">
        <ele>86.035</ele>
        <time>2019-06-20T10:07:31Z</time>
      </trkpt>
      <trkpt lat="43.773140" lon="-7.682336">
        <ele>86.186</ele>
        <time>2019-06-20T10:07:33Z</time>
      </trkpt>
      <trkpt lat="43.773202" lon="-7.682329">
        <ele>86.114</ele>
        <time>2019-06-20T10:07:34Z</time>
      </trkpt>
      <trkpt lat="43.773252" lon="-7.682331">
        <ele>86.208</ele>
        <time>2019-06-20T10:07:35Z</time>
      </trkpt>
      <trkpt lat="43.773302" lon="-7.682341">
        <ele>86.156</ele>
        <time>2019-06-20T10:07:36Z</time>
      </trkpt>
      <trkpt lat="43.773350" lon="-7.682347">
        <ele>86.390</ele>
        <time>2019-06-20T10:07:37Z</time>
      </trkpt>
      <trkpt lat="43.773414" lon="-7.682361">
        <ele>86.991</ele>
        <time>2019-06-20T10:07:38Z</time>
      </trkpt>
      <trkpt lat="43.773499" lon="-7.682382">
        <ele>87.587</ele>
        <time>2019-06-20T10:07:39Z</time>
      </trkpt>
      <trkpt lat="43.773593" lon="-7.682402">
        <ele>88.224</ele>
        <time>2019-06-20T10:07:40Z</time>
      </trkpt>
      <trkpt lat="43.773699" lon="-7.682439">
        <ele>89.265</ele>
        <time>2019-06-20T10:07:41Z</time>
      </trkpt>
      <trkpt lat="43.773812" lon="-7.682491">
        <ele>90.017</ele>
        <time>2019-06-20T10:07:42Z</time>
      </trkpt>
      <trkpt lat="43.773938" lon="-7.682577">
        <ele>90.664</ele>
        <time>2019-06-20T10:07:43Z</time>
      </trkpt>
      <trkpt lat="43.774063" lon="-7.682666">
        <ele>91.056</ele>
        <time>2019-06-20T10:07:44Z</time>
      </trkpt>
      <trkpt lat="43.774190" lon="-7.682760">
        <ele>91.059</ele>
        <time>2019-06-20T10:07:45Z</time>
      </trkpt>
      <trkpt lat="43.774317" lon="-7.682848">
        <ele>91.714</ele>
        <time>2019-06-20T10:07:46Z</time>
      </trkpt>
      <trkpt lat="43.774437" lon="-7.682929">
        <ele>92.608</ele>
        <time>2019-06-20T10:07:47Z</time>
      </trkpt>
      <trkpt lat="43.774555" lon="-7.683006">
        <ele>92.878</ele>
        <time>2019-06-20T10:07:48Z</time>
      </trkpt>
      <trkpt lat="43.774664" lon="-7.683081">
        <ele>92.622</ele>
        <time>2019-06-20T10:07:49Z</time>
      </trkpt>
      <trkpt lat="43.774756" lon="-7.683154">
        <ele>92.493</ele>
        <time>2019-06-20T10:07:50Z</time>
      </trkpt>
      <trkpt lat="43.774843" lon="-7.683212">
        <ele>92.399</ele>
        <time>2019-06-20T10:07:51Z</time>
      </trkpt>
      <trkpt lat="43.774929" lon="-7.683250">
        <ele>92.516</ele>
        <time>2019-06-20T10:07:52Z</time>
      </trkpt>
      <trkpt lat="43.775012" lon="-7.683266">
        <ele>93.147</ele>
        <time>2019-06-20T10:07:53Z</time>
      </trkpt>
      <trkpt lat="43.775100" lon="-7.683261">
        <ele>94.879</ele>
        <time>2019-06-20T10:07:54Z</time>
      </trkpt>
      <trkpt lat="43.775188" lon="-7.683238">
        <ele>96.976</ele>
        <time>2019-06-20T10:07:55Z</time>
      </trkpt>
      <trkpt lat="43.775278" lon="-7.683222">
        <ele>98.871</ele>
        <time>2019-06-20T10:07:56Z</time>
      </trkpt>
      <trkpt lat="43.775369" lon="-7.683236">
        <ele>99.941</ele>
        <time>2019-06-20T10:07:57Z</time>
      </trkpt>
      <trkpt lat="43.775461" lon="-7.683275">
        <ele>100.515</ele>
        <time>2019-06-20T10:07:58Z</time>
      </trkpt>
      <trkpt lat="43.775561" lon="-7.683347">
        <ele>100.708</ele>
        <time>2019-06-20T10:07:59Z</time>
      </trkpt>
      <trkpt lat="43.775655" lon="-7.683435">
        <ele>100.030</ele>
        <time>2019-06-20T10:08:00Z</time>
      </trkpt>
      <trkpt lat="43.775762" lon="-7.683514">
        <ele>100.044</ele>
        <time>2019-06-20T10:08:01Z</time>
      </trkpt>
      <trkpt lat="43.775872" lon="-7.683577">
        <ele>99.865</ele>
        <time>2019-06-20T10:08:02Z</time>
      </trkpt>
      <trkpt lat="43.776014" lon="-7.683628">
        <ele>98.751</ele>
        <time>2019-06-20T10:08:03Z</time>
      </trkpt>
      <trkpt lat="43.776166" lon="-7.683664">
        <ele>98.858</ele>
        <time>2019-06-20T10:08:04Z</time>
      </trkpt>
      <trkpt lat="43.776306" lon="-7.683706">
        <ele>99.429</ele>
        <time>2019-06-20T10:08:05Z</time>
      </trkpt>
      <trkpt lat="43.776440" lon="-7.683755">
        <ele>100.361</ele>
        <time>2019-06-20T10:08:06Z</time>
      </trkpt>
      <trkpt lat="43.776571" lon="-7.683808">
        <ele>101.728</ele>
        <time>2019-06-20T10:08:07Z</time>
      </trkpt>
      <trkpt lat="43.776687" lon="-7.683898">
        <ele>102.164</ele>
        <time>2019-06-20T10:08:08Z</time>
      </trkpt>
      <trkpt lat="43.776797" lon="-7.683996">
        <ele>102.106</ele>
        <time>2019-06-20T10:08:09Z</time>
      </trkpt>
      <trkpt lat="43.776899" lon="-7.684105">
        <ele>102.116</ele>
        <time>2019-06-20T10:08:10Z</time>
      </trkpt>
      <trkpt lat="43.776998" lon="-7.684212">
        <ele>102.108</ele>
        <time>2019-06-20T10:08:11Z</time>
      </trkpt>
      <trkpt lat="43.777088" lon="-7.684317">
        <ele>101.929</ele>
        <time>2019-06-20T10:08:12Z</time>
      </trkpt>
      <trkpt lat="43.777183" lon="-7.684422">
        <ele>101.843</ele>
        <time>2019-06-20T10:08:13Z</time>
      </trkpt>
      <trkpt lat="43.777267" lon="-7.684513">
        <ele>100.744</ele>
        <time>2019-06-20T10:08:14Z</time>
      </trkpt>
      <trkpt lat="43.777345" lon="-7.684587">
        <ele>99.460</ele>
        <time>2019-06-20T10:08:15Z</time>
      </trkpt>
      <trkpt lat="43.777423" lon="-7.684648">
        <ele>98.767</ele>
        <time>2019-06-20T10:08:16Z</time>
      </trkpt>
      <trkpt lat="43.777499" lon="-7.684682">
        <ele>98.418</ele>
        <time>2019-06-20T10:08:17Z</time>
      </trkpt>
      <trkpt lat="43.777577" lon="-7.684681">
        <ele>97.390</ele>
        <time>2019-06-20T10:08:18Z</time>
      </trkpt>
      <trkpt lat="43.777654" lon="-7.684664">
        <ele>96.417</ele>
        <time>2019-06-20T10:08:19Z</time>
      </trkpt>
      <trkpt lat="43.777728" lon="-7.684613">
        <ele>95.947</ele>
        <time>2019-06-20T10:08:20Z</time>
      </trkpt>
      <trkpt lat="43.777799" lon="-7.684535">
        <ele>95.529</ele>
        <time>2019-06-20T10:08:21Z</time>
      </trkpt>
      <trkpt lat="43.777867" lon="-7.684434">
        <ele>94.821</ele>
        <time>2019-06-20T10:08:22Z</time>
      </trkpt>
      <trkpt lat="43.777942" lon="-7.684323">
        <ele>93.808</ele>
        <time>2019-06-20T10:08:23Z</time>
      </trkpt>
      <trkpt lat="43.777992" lon="-7.684207">
        <ele>93.897</ele>
        <time>2019-06-20T10:08:24Z</time>
      </trkpt>
      <trkpt lat="43.778067" lon="-7.684098">
        <ele>93.971</ele>
        <time>2019-06-20T10:08:25Z</time>
      </trkpt>
      <trkpt lat="43.778145" lon="-7.684013">
        <ele>94.252</ele>
        <time>2019-06-20T10:08:26Z</time>
      </trkpt>
      <trkpt lat="43.778229" lon="-7.683969">
        <ele>93.768</ele>
        <time>2019-06-20T10:08:27Z</time>
      </trkpt>
      <trkpt lat="43.778332" lon="-7.683965">
        <ele>92.525</ele>
        <time>2019-06-20T10:08:28Z</time>
      </trkpt>
      <trkpt lat="43.778436" lon="-7.683985">
        <ele>91.636</ele>
        <time>2019-06-20T10:08:29Z</time>
      </trkpt>
      <trkpt lat="43.778538" lon="-7.684013">
        <ele>90.648</ele>
        <time>2019-06-20T10:08:30Z</time>
      </trkpt>
      <trkpt lat="43.778644" lon="-7.684012">
        <ele>89.645</ele>
        <time>2019-06-20T10:08:31Z</time>
      </trkpt>
      <trkpt lat="43.778755" lon="-7.683987">
        <ele>88.018</ele>
        <time>2019-06-20T10:08:32Z</time>
      </trkpt>
      <trkpt lat="43.778873" lon="-7.683940">
        <ele>86.798</ele>
        <time>2019-06-20T10:08:33Z</time>
      </trkpt>
      <trkpt lat="43.778996" lon="-7.683878">
        <ele>85.117</ele>
        <time>2019-06-20T10:08:34Z</time>
      </trkpt>
      <trkpt lat="43.779122" lon="-7.683821">
        <ele>83.308</ele>
        <time>2019-06-20T10:08:35Z</time>
      </trkpt>
      <trkpt lat="43.779249" lon="-7.683760">
        <ele>82.614</ele>
        <time>2019-06-20T10:08:36Z</time>
      </trkpt>
      <trkpt lat="43.779373" lon="-7.683702">
        <ele>82.648</ele>
        <time>2019-06-20T10:08:37Z</time>
      </trkpt>
      <trkpt lat="43.779486" lon="-7.683639">
        <ele>82.759</ele>
        <time>2019-06-20T10:08:38Z</time>
      </trkpt>
      <trkpt lat="43.779595" lon="-7.683581">
        <ele>82.515</ele>
        <time>2019-06-20T10:08:39Z</time>
      </trkpt>
      <trkpt lat="43.779700" lon="-7.683529">
        <ele>82.192</ele>
        <time>2019-06-20T10:08:40Z</time>
      </trkpt>
      <trkpt lat="43.779809" lon="-7.683494">
        <ele>81.923</ele>
        <time>2019-06-20T10:08:41Z</time>
      </trkpt>
      <trkpt lat="43.779928" lon="-7.683483">
        <ele>81.725</ele>
        <time>2019-06-20T10:08:42Z</time>
      </trkpt>
      <trkpt lat="43.780056" lon="-7.683488">
        <ele>81.362</ele>
        <time>2019-06-20T10:08:43Z</time>
      </trkpt>
      <trkpt lat="43.780189" lon="-7.683514">
        <ele>80.734</ele>
        <time>2019-06-20T10:08:44Z</time>
      </trkpt>
      <trkpt lat="43.780332" lon="-7.683545">
        <ele>80.155</ele>
        <time>2019-06-20T10:08:45Z</time>
      </trkpt>
      <trkpt lat="43.780476" lon="-7.683580">
        <ele>79.310</ele>
        <time>2019-06-20T10:08:46Z</time>
      </trkpt>
      <trkpt lat="43.780612" lon="-7.683610">
        <ele>78.808</ele>
        <time>2019-06-20T10:08:47Z</time>
      </trkpt>
      <trkpt lat="43.780741" lon="-7.683640">
        <ele>78.536</ele>
        <time>2019-06-20T10:08:48Z</time>
      </trkpt>
      <trkpt lat="43.780869" lon="-7.683669">
        <ele>78.360</ele>
        <time>2019-06-20T10:08:49Z</time>
      </trkpt>
      <trkpt lat="43.780999" lon="-7.683709">
        <ele>77.991</ele>
        <time>2019-06-20T10:08:50Z</time>
      </trkpt>
      <trkpt lat="43.781137" lon="-7.683769">
        <ele>77.437</ele>
        <time>2019-06-20T10:08:51Z</time>
      </trkpt>
      <trkpt lat="43.781272" lon="-7.683843">
        <ele>76.774</ele>
        <time>2019-06-20T10:08:52Z</time>
      </trkpt>
      <trkpt lat="43.781414" lon="-7.683929">
        <ele>75.695</ele>
        <time>2019-06-20T10:08:53Z</time>
      </trkpt>
      <trkpt lat="43.781557" lon="-7.684012">
        <ele>74.067</ele>
        <time>2019-06-20T10:08:54Z</time>
      </trkpt>
      <trkpt lat="43.781707" lon="-7.684083">
        <ele>73.084</ele>
        <time>2019-06-20T10:08:55Z</time>
      </trkpt>
      <trkpt lat="43.781861" lon="-7.684127">
        <ele>72.977</ele>
        <time>2019-06-20T10:08:56Z</time>
      </trkpt>
      <trkpt lat="43.782020" lon="-7.684162">
        <ele>73.361</ele>
        <time>2019-06-20T10:08:57Z</time>
      </trkpt>
      <trkpt lat="43.782176" lon="-7.684194">
        <ele>73.827</ele>
        <time>2019-06-20T10:08:58Z</time>
      </trkpt>
      <trkpt lat="43.782328" lon="-7.684223">
        <ele>74.408</ele>
        <time>2019-06-20T10:08:59Z</time>
      </trkpt>
      <trkpt lat="43.782476" lon="-7.684254">
        <ele>74.980</ele>
        <time>2019-06-20T10:09:00Z</time>
      </trkpt>
      <trkpt lat="43.782625" lon="-7.684277">
        <ele>74.944</ele>
        <time>2019-06-20T10:09:01Z</time>
      </trkpt>
      <trkpt lat="43.782770" lon="-7.684306">
        <ele>75.065</ele>
        <time>2019-06-20T10:09:02Z</time>
      </trkpt>
      <trkpt lat="43.782911" lon="-7.684323">
        <ele>73.241</ele>
        <time>2019-06-20T10:09:03Z</time>
      </trkpt>
      <trkpt lat="43.783055" lon="-7.684341">
        <ele>71.388</ele>
        <time>2019-06-20T10:09:04Z</time>
      </trkpt>
      <trkpt lat="43.783207" lon="-7.684346">
        <ele>70.489</ele>
        <time>2019-06-20T10:09:05Z</time>
      </trkpt>
      <trkpt lat="43.783360" lon="-7.684345">
        <ele>69.811</ele>
        <time>2019-06-20T10:09:06Z</time>
      </trkpt>
      <trkpt lat="43.783515" lon="-7.684342">
        <ele>70.528</ele>
        <time>2019-06-20T10:09:07Z</time>
      </trkpt>
      <trkpt lat="43.783669" lon="-7.684333">
        <ele>71.037</ele>
        <time>2019-06-20T10:09:08Z</time>
      </trkpt>
      <trkpt lat="43.783818" lon="-7.684327">
        <ele>71.049</ele>
        <time>2019-06-20T10:09:09Z</time>
      </trkpt>
      <trkpt lat="43.783959" lon="-7.684319">
        <ele>70.213</ele>
        <time>2019-06-20T10:09:10Z</time>
      </trkpt>
      <trkpt lat="43.784094" lon="-7.684315">
        <ele>68.708</ele>
        <time>2019-06-20T10:09:11Z</time>
      </trkpt>
      <trkpt lat="43.784232" lon="-7.684309">
        <ele>68.336</ele>
        <time>2019-06-20T10:09:12Z</time>
      </trkpt>
      <trkpt lat="43.784372" lon="-7.684302">
        <ele>69.180</ele>
        <time>2019-06-20T10:09:13Z</time>
      </trkpt>
      <trkpt lat="43.784516" lon="-7.684295">
        <ele>70.241</ele>
        <time>2019-06-20T10:09:14Z</time>
      </trkpt>
      <trkpt lat="43.784664" lon="-7.684287">
        <ele>71.687</ele>
        <time>2019-06-20T10:09:15Z</time>
      </trkpt>
      <trkpt lat="43.784813" lon="-7.684266">
        <ele>72.664</ele>
        <time>2019-06-20T10:09:16Z</time>
      </trkpt>
      <trkpt lat="43.784958" lon="-7.684255">
        <ele>73.275</ele>
        <time>2019-06-20T10:09:17Z</time>
      </trkpt>
      <trkpt lat="43.785091" lon="-7.684243">
        <ele>74.467</ele>
        <time>2019-06-20T10:09:18Z</time>
      </trkpt>
      <trkpt lat="43.785214" lon="-7.684236">
        <ele>75.624</ele>
        <time>2019-06-20T10:09:19Z</time>
      </trkpt>
      <trkpt lat="43.785336" lon="-7.684225">
        <ele>76.997</ele>
        <time>2019-06-20T10:09:20Z</time>
      </trkpt>
      <trkpt lat="43.785457" lon="-7.684219">
        <ele>78.223</ele>
        <time>2019-06-20T10:09:21Z</time>
      </trkpt>
      <trkpt lat="43.785561" lon="-7.684218">
        <ele>79.425</ele>
        <time>2019-06-20T10:09:22Z</time>
      </trkpt>
      <trkpt lat="43.785644" lon="-7.684218">
        <ele>79.908</ele>
        <time>2019-06-20T10:09:23Z</time>
      </trkpt>
      <trkpt lat="43.785712" lon="-7.684217">
        <ele>80.312</ele>
        <time>2019-06-20T10:09:24Z</time>
      </trkpt>
      <trkpt lat="43.785759" lon="-7.684211">
        <ele>80.576</ele>
        <time>2019-06-20T10:09:25Z</time>
      </trkpt>
      <trkpt lat="43.785840" lon="-7.684207">
        <ele>81.147</ele>
        <time>2019-06-20T10:09:27Z</time>
      </trkpt>
      <trkpt lat="43.785914" lon="-7.684234">
        <ele>81.863</ele>
        <time>2019-06-20T10:09:29Z</time>
      </trkpt>
      <trkpt lat="43.785961" lon="-7.684282">
        <ele>82.240</ele>
        <time>2019-06-20T10:09:31Z</time>
      </trkpt>
      <trkpt lat="43.785941" lon="-7.684342">
        <ele>81.911</ele>
        <time>2019-06-20T10:09:33Z</time>
      </trkpt>
      <trkpt lat="43.785889" lon="-7.684336">
        <ele>81.563</ele>
        <time>2019-06-20T10:10:04Z</time>
      </trkpt>
      <trkpt lat="43.787970" lon="-7.685412">
        <ele>44.040</ele>
        <time>2019-06-20T10:21:54Z</time>
      </trkpt>
      <trkpt lat="43.788001" lon="-7.685469">
        <ele>44.054</ele>
        <time>2019-06-20T10:22:00Z</time>
      </trkpt>
      <trkpt lat="43.788005" lon="-7.685538">
        <ele>45.356</ele>
        <time>2019-06-20T10:22:04Z</time>
      </trkpt>
      <trkpt lat="43.788022" lon="-7.685606">
        <ele>45.111</ele>
        <time>2019-06-20T10:22:08Z</time>
      </trkpt>
      <trkpt lat="43.788020" lon="-7.685677">
        <ele>45.108</ele>
        <time>2019-06-20T10:22:13Z</time>
      </trkpt>
      <trkpt lat="43.788022" lon="-7.685743">
        <ele>45.048</ele>
        <time>2019-06-20T10:22:17Z</time>
      </trkpt>
      <trkpt lat="43.788064" lon="-7.685767">
        <ele>44.342</ele>
        <time>2019-06-20T10:22:26Z</time>
      </trkpt>
      <trkpt lat="43.788109" lon="-7.685788">
        <ele>42.243</ele>
        <time>2019-06-20T10:22:31Z</time>
      </trkpt>
      <trkpt lat="43.788138" lon="-7.685838">
        <ele>41.169</ele>
        <time>2019-06-20T10:22:34Z</time>
      </trkpt>
      <trkpt lat="43.788176" lon="-7.685895">
        <ele>38.846</ele>
        <time>2019-06-20T10:22:38Z</time>
      </trkpt>
      <trkpt lat="43.788135" lon="-7.685867">
        <ele>40.817</ele>
        <time>2019-06-20T10:25:45Z</time>
      </trkpt>
      <trkpt lat="43.788124" lon="-7.685798">
        <ele>41.549</ele>
        <time>2019-06-20T10:26:04Z</time>
      </trkpt>
      <trkpt lat="43.788102" lon="-7.685731">
        <ele>42.286</ele>
        <time>2019-06-20T10:26:10Z</time>
      </trkpt>
      <trkpt lat="43.788064" lon="-7.685672">
        <ele>44.027</ele>
        <time>2019-06-20T10:26:17Z</time>
      </trkpt>
      <trkpt lat="43.788037" lon="-7.685618">
        <ele>44.768</ele>
        <time>2019-06-20T10:26:21Z</time>
      </trkpt>
      <trkpt lat="43.788014" lon="-7.685556">
        <ele>45.314</ele>
        <time>2019-06-20T10:26:27Z</time>
      </trkpt>
      <trkpt lat="43.787990" lon="-7.685502">
        <ele>45.108</ele>
        <time>2019-06-20T10:26:31Z</time>
      </trkpt>
      <trkpt lat="43.787957" lon="-7.685448">
        <ele>45.175</ele>
        <time>2019-06-20T10:26:35Z</time>
      </trkpt>
      <trkpt lat="43.787919" lon="-7.685404">
        <ele>45.739</ele>
        <time>2019-06-20T10:26:39Z</time>
      </trkpt>
      <trkpt lat="43.787865" lon="-7.685406">
        <ele>47.740</ele>
        <time>2019-06-20T10:26:43Z</time>
      </trkpt>
      <trkpt lat="43.787812" lon="-7.685387">
        <ele>49.326</ele>
        <time>2019-06-20T10:26:48Z</time>
      </trkpt>
      <trkpt lat="43.787766" lon="-7.685370">
        <ele>50.593</ele>
        <time>2019-06-20T10:26:53Z</time>
      </trkpt>
      <trkpt lat="43.787721" lon="-7.685356">
        <ele>51.284</ele>
        <time>2019-06-20T10:26:56Z</time>
      </trkpt>
      <trkpt lat="43.787673" lon="-7.685326">
        <ele>52.196</ele>
        <time>2019-06-20T10:27:01Z</time>
      </trkpt>
      <trkpt lat="43.787619" lon="-7.685312">
        <ele>53.473</ele>
        <time>2019-06-20T10:27:06Z</time>
      </trkpt>
      <trkpt lat="43.787570" lon="-7.685287">
        <ele>54.918</ele>
        <time>2019-06-20T10:27:10Z</time>
      </trkpt>
      <trkpt lat="43.787520" lon="-7.685259">
        <ele>56.398</ele>
        <time>2019-06-20T10:27:15Z</time>
      </trkpt>
      <trkpt lat="43.787476" lon="-7.685234">
        <ele>57.317</ele>
        <time>2019-06-20T10:27:19Z</time>
      </trkpt>
      <trkpt lat="43.787432" lon="-7.685216">
        <ele>58.408</ele>
        <time>2019-06-20T10:27:23Z</time>
      </trkpt>
      <trkpt lat="43.787383" lon="-7.685202">
        <ele>59.744</ele>
        <time>2019-06-20T10:27:28Z</time>
      </trkpt>
      <trkpt lat="43.787336" lon="-7.685211">
        <ele>60.978</ele>
        <time>2019-06-20T10:27:32Z</time>
      </trkpt>
      <trkpt lat="43.787289" lon="-7.685224">
        <ele>62.189</ele>
        <time>2019-06-20T10:27:36Z</time>
      </trkpt>
      <trkpt lat="43.787267" lon="-7.685163">
        <ele>63.345</ele>
        <time>2019-06-20T10:27:41Z</time>
      </trkpt>
      <trkpt lat="43.787257" lon="-7.685100">
        <ele>64.362</ele>
        <time>2019-06-20T10:27:47Z</time>
      </trkpt>
      <trkpt lat="43.787213" lon="-7.685085">
        <ele>66.063</ele>
        <time>2019-06-20T10:27:53Z</time>
      </trkpt>
      <trkpt lat="43.787160" lon="-7.685101">
        <ele>67.215</ele>
        <time>2019-06-20T10:29:18Z</time>
      </trkpt>
      <trkpt lat="43.787167" lon="-7.685026">
        <ele>68.392</ele>
        <time>2019-06-20T10:29:42Z</time>
      </trkpt>
      <trkpt lat="43.787137" lon="-7.684976">
        <ele>70.026</ele>
        <time>2019-06-20T10:29:47Z</time>
      </trkpt>
      <trkpt lat="43.787092" lon="-7.684947">
        <ele>71.847</ele>
        <time>2019-06-20T10:29:55Z</time>
      </trkpt>
      <trkpt lat="43.787051" lon="-7.684913">
        <ele>73.611</ele>
        <time>2019-06-20T10:30:01Z</time>
      </trkpt>
      <trkpt lat="43.787007" lon="-7.684872">
        <ele>75.608</ele>
        <time>2019-06-20T10:30:06Z</time>
      </trkpt>
      <trkpt lat="43.786962" lon="-7.684846">
        <ele>77.675</ele>
        <time>2019-06-20T10:30:14Z</time>
      </trkpt>
      <trkpt lat="43.786918" lon="-7.684808">
        <ele>79.229</ele>
        <time>2019-06-20T10:30:19Z</time>
      </trkpt>
      <trkpt lat="43.786869" lon="-7.684758">
        <ele>80.630</ele>
        <time>2019-06-20T10:30:29Z</time>
      </trkpt>
      <trkpt lat="43.786833" lon="-7.684715">
        <ele>81.696</ele>
        <time>2019-06-20T10:30:33Z</time>
      </trkpt>
      <trkpt lat="43.786791" lon="-7.684687">
        <ele>82.333</ele>
        <time>2019-06-20T10:30:40Z</time>
      </trkpt>
      <trkpt lat="43.786747" lon="-7.684650">
        <ele>83.114</ele>
        <time>2019-06-20T10:30:54Z</time>
      </trkpt>
      <trkpt lat="43.786687" lon="-7.684627">
        <ele>84.096</ele>
        <time>2019-06-20T10:30:58Z</time>
      </trkpt>
      <trkpt lat="43.786641" lon="-7.684596">
        <ele>84.373</ele>
        <time>2019-06-20T10:31:03Z</time>
      </trkpt>
      <trkpt lat="43.786606" lon="-7.684555">
        <ele>84.218</ele>
        <time>2019-06-20T10:31:09Z</time>
      </trkpt>
      <trkpt lat="43.786559" lon="-7.684523">
        <ele>83.998</ele>
        <time>2019-06-20T10:31:21Z</time>
      </trkpt>
      <trkpt lat="43.786524" lon="-7.684473">
        <ele>83.917</ele>
        <time>2019-06-20T10:31:49Z</time>
      </trkpt>
      <trkpt lat="43.786480" lon="-7.684441">
        <ele>83.708</ele>
        <time>2019-06-20T10:32:27Z</time>
      </trkpt>
      <trkpt lat="43.786426" lon="-7.684453">
        <ele>83.284</ele>
        <time>2019-06-20T10:33:04Z</time>
      </trkpt>
      <trkpt lat="43.786379" lon="-7.684425">
        <ele>83.078</ele>
        <time>2019-06-20T10:33:10Z</time>
      </trkpt>
      <trkpt lat="43.786337" lon="-7.684452">
        <ele>83.099</ele>
        <time>2019-06-20T10:33:28Z</time>
      </trkpt>
      <trkpt lat="43.786290" lon="-7.684465">
        <ele>82.915</ele>
        <time>2019-06-20T10:33:33Z</time>
      </trkpt>
      <trkpt lat="43.786242" lon="-7.684463">
        <ele>82.962</ele>
        <time>2019-06-20T10:33:38Z</time>
      </trkpt>
      <trkpt lat="43.786193" lon="-7.684442">
        <ele>83.023</ele>
        <time>2019-06-20T10:35:01Z</time>
      </trkpt>
      <trkpt lat="43.786142" lon="-7.684412">
        <ele>83.175</ele>
        <time>2019-06-20T10:35:27Z</time>
      </trkpt>
      <trkpt lat="43.786093" lon="-7.684381">
        <ele>83.192</ele>
        <time>2019-06-20T10:35:32Z</time>
      </trkpt>
      <trkpt lat="43.786049" lon="-7.684351">
        <ele>82.817</ele>
        <time>2019-06-20T10:35:37Z</time>
      </trkpt>
      <trkpt lat="43.786016" lon="-7.684308">
        <ele>82.687</ele>
        <time>2019-06-20T10:35:44Z</time>
      </trkpt>
      <trkpt lat="43.785971" lon="-7.684334">
        <ele>82.215</ele>
        <time>2019-06-20T10:35:51Z</time>
      </trkpt>
      <trkpt lat="43.785923" lon="-7.684365">
        <ele>81.708</ele>
        <time>2019-06-20T10:35:56Z</time>
      </trkpt>
      <trkpt lat="43.785884" lon="-7.684324">
        <ele>81.444</ele>
        <time>2019-06-20T10:36:03Z</time>
      </trkpt>
      <trkpt lat="43.785872" lon="-7.684264">
        <ele>81.488</ele>
        <time>2019-06-20T10:36:40Z</time>
      </trkpt>
      <trkpt lat="43.785883" lon="-7.684193">
        <ele>81.539</ele>
        <time>2019-06-20T10:36:46Z</time>
      </trkpt>
      <trkpt lat="43.785897" lon="-7.684263">
        <ele>81.635</ele>
        <time>2019-06-20T10:37:09Z</time>
      </trkpt>
      <trkpt lat="43.785931" lon="-7.684314">
        <ele>81.922</ele>
        <time>2019-06-20T10:37:15Z</time>
      </trkpt>
      <trkpt lat="43.785926" lon="-7.684377">
        <ele>81.783</ele>
        <time>2019-06-20T10:40:38Z</time>
      </trkpt>
      <trkpt lat="43.785882" lon="-7.684364">
        <ele>81.415</ele>
        <time>2019-06-20T10:40:40Z</time>
      </trkpt>
      <trkpt lat="43.785813" lon="-7.684313">
        <ele>80.932</ele>
        <time>2019-06-20T10:40:42Z</time>
      </trkpt>
      <trkpt lat="43.785740" lon="-7.684247">
        <ele>80.594</ele>
        <time>2019-06-20T10:40:44Z</time>
      </trkpt>
      <trkpt lat="43.785657" lon="-7.684225">
        <ele>80.057</ele>
        <time>2019-06-20T10:40:46Z</time>
      </trkpt>
      <trkpt lat="43.785608" lon="-7.684228">
        <ele>79.722</ele>
        <time>2019-06-20T10:40:47Z</time>
      </trkpt>
      <trkpt lat="43.785562" lon="-7.684235">
        <ele>79.508</ele>
        <time>2019-06-20T10:40:48Z</time>
      </trkpt>
      <trkpt lat="43.785514" lon="-7.684239">
        <ele>79.022</ele>
        <time>2019-06-20T10:40:49Z</time>
      </trkpt>
      <trkpt lat="43.785461" lon="-7.684242">
        <ele>78.476</ele>
        <time>2019-06-20T10:40:50Z</time>
      </trkpt>
      <trkpt lat="43.785400" lon="-7.684240">
        <ele>77.777</ele>
        <time>2019-06-20T10:40:51Z</time>
      </trkpt>
      <trkpt lat="43.785353" lon="-7.684239">
        <ele>77.183</ele>
        <time>2019-06-20T10:40:52Z</time>
      </trkpt>
      <trkpt lat="43.785264" lon="-7.684246">
        <ele>76.190</ele>
        <time>2019-06-20T10:40:54Z</time>
      </trkpt>
      <trkpt lat="43.785211" lon="-7.684250">
        <ele>75.651</ele>
        <time>2019-06-20T10:40:55Z</time>
      </trkpt>
      <trkpt lat="43.785163" lon="-7.684258">
        <ele>75.143</ele>
        <time>2019-06-20T10:40:56Z</time>
      </trkpt>
      <trkpt lat="43.785108" lon="-7.684265">
        <ele>74.510</ele>
        <time>2019-06-20T10:40:57Z</time>
      </trkpt>
      <trkpt lat="43.785053" lon="-7.684273">
        <ele>73.826</ele>
        <time>2019-06-20T10:40:58Z</time>
      </trkpt>
      <trkpt lat="43.785005" lon="-7.684287">
        <ele>73.247</ele>
        <time>2019-06-20T10:40:59Z</time>
      </trkpt>
      <trkpt lat="43.784949" lon="-7.684289">
        <ele>72.911</ele>
        <time>2019-06-20T10:41:00Z</time>
      </trkpt>
      <trkpt lat="43.784901" lon="-7.684290">
        <ele>72.808</ele>
        <time>2019-06-20T10:41:01Z</time>
      </trkpt>
      <trkpt lat="43.784852" lon="-7.684290">
        <ele>72.665</ele>
        <time>2019-06-20T10:41:02Z</time>
      </trkpt>
      <trkpt lat="43.784795" lon="-7.684295">
        <ele>72.329</ele>
        <time>2019-06-20T10:41:03Z</time>
      </trkpt>
      <trkpt lat="43.784746" lon="-7.684298">
        <ele>72.190</ele>
        <time>2019-06-20T10:41:04Z</time>
      </trkpt>
      <trkpt lat="43.784695" lon="-7.684307">
        <ele>71.796</ele>
        <time>2019-06-20T10:41:05Z</time>
      </trkpt>
      <trkpt lat="43.784646" lon="-7.684298">
        <ele>71.453</ele>
        <time>2019-06-20T10:41:06Z</time>
      </trkpt>
      <trkpt lat="43.784556" lon="-7.684296">
        <ele>70.694</ele>
        <time>2019-06-20T10:41:08Z</time>
      </trkpt>
      <trkpt lat="43.784506" lon="-7.684301">
        <ele>70.176</ele>
        <time>2019-06-20T10:41:09Z</time>
      </trkpt>
      <trkpt lat="43.784421" lon="-7.684303">
        <ele>69.433</ele>
        <time>2019-06-20T10:41:11Z</time>
      </trkpt>
      <trkpt lat="43.784375" lon="-7.684309">
        <ele>69.163</ele>
        <time>2019-06-20T10:41:12Z</time>
      </trkpt>
      <trkpt lat="43.784307" lon="-7.684343">
        <ele>68.444</ele>
        <time>2019-06-20T10:41:14Z</time>
      </trkpt>
      <trkpt lat="43.784263" lon="-7.684424">
        <ele>67.518</ele>
        <time>2019-06-20T10:41:16Z</time>
      </trkpt>
      <trkpt lat="43.784249" lon="-7.684515">
        <ele>66.008</ele>
        <time>2019-06-20T10:41:18Z</time>
      </trkpt>
      <trkpt lat="43.784224" lon="-7.684600">
        <ele>64.389</ele>
        <time>2019-06-20T10:41:20Z</time>
      </trkpt>
      <trkpt lat="43.784204" lon="-7.684673">
        <ele>62.953</ele>
        <time>2019-06-20T10:45:51Z</time>
      </trkpt>
      <trkpt lat="43.784169" lon="-7.684738">
        <ele>61.814</ele>
        <time>2019-06-20T10:45:54Z</time>
      </trkpt>
      <trkpt lat="43.784162" lon="-7.684802">
        <ele>61.030</ele>
        <time>2019-06-20T10:46:08Z</time>
      </trkpt>
      <trkpt lat="43.784161" lon="-7.684886">
        <ele>59.847</ele>
        <time>2019-06-20T10:46:11Z</time>
      </trkpt>
      <trkpt lat="43.784122" lon="-7.684921">
        <ele>60.288</ele>
        <time>2019-06-20T10:48:17Z</time>
      </trkpt>
      <trkpt lat="43.784134" lon="-7.684860">
        <ele>60.860</ele>
        <time>2019-06-20T10:49:53Z</time>
      </trkpt>
      <trkpt lat="43.784162" lon="-7.684810">
        <ele>60.967</ele>
        <time>2019-06-20T10:50:01Z</time>
      </trkpt>
      <trkpt lat="43.784131" lon="-7.684859">
        <ele>60.987</ele>
        <time>2019-06-20T10:51:44Z</time>
      </trkpt>
      <trkpt lat="43.784138" lon="-7.684922">
        <ele>59.842</ele>
        <time>2019-06-20T10:51:53Z</time>
      </trkpt>
      <trkpt lat="43.784149" lon="-7.684849">
        <ele>60.626</ele>
        <time>2019-06-20T10:54:13Z</time>
      </trkpt>
      <trkpt lat="43.784147" lon="-7.684778">
        <ele>61.708</ele>
        <time>2019-06-20T10:54:15Z</time>
      </trkpt>
      <trkpt lat="43.784167" lon="-7.684686">
        <ele>62.741</ele>
        <time>2019-06-20T10:54:18Z</time>
      </trkpt>
      <trkpt lat="43.784186" lon="-7.684627">
        <ele>63.735</ele>
        <time>2019-06-20T10:54:19Z</time>
      </trkpt>
      <trkpt lat="43.784208" lon="-7.684559">
        <ele>65.056</ele>
        <time>2019-06-20T10:54:20Z</time>
      </trkpt>
      <trkpt lat="43.784230" lon="-7.684490">
        <ele>66.472</ele>
        <time>2019-06-20T10:54:21Z</time>
      </trkpt>
      <trkpt lat="43.784248" lon="-7.684424">
        <ele>67.519</ele>
        <time>2019-06-20T10:54:22Z</time>
      </trkpt>
      <trkpt lat="43.784269" lon="-7.684316">
        <ele>68.520</ele>
        <time>2019-06-20T10:54:24Z</time>
      </trkpt>
      <trkpt lat="43.784278" lon="-7.684252">
        <ele>69.142</ele>
        <time>2019-06-20T10:54:25Z</time>
      </trkpt>
      <trkpt lat="43.784301" lon="-7.684155">
        <ele>70.019</ele>
        <time>2019-06-20T10:54:26Z</time>
      </trkpt>
      <trkpt lat="43.784337" lon="-7.684060">
        <ele>70.623</ele>
        <time>2019-06-20T10:54:27Z</time>
      </trkpt>
      <trkpt lat="43.784389" lon="-7.683954">
        <ele>71.483</ele>
        <time>2019-06-20T10:54:28Z</time>
      </trkpt>
      <trkpt lat="43.784443" lon="-7.683835">
        <ele>71.811</ele>
        <time>2019-06-20T10:54:29Z</time>
      </trkpt>
      <trkpt lat="43.784494" lon="-7.683714">
        <ele>71.708</ele>
        <time>2019-06-20T10:54:30Z</time>
      </trkpt>
      <trkpt lat="43.784551" lon="-7.683591">
        <ele>71.725</ele>
        <time>2019-06-20T10:54:31Z</time>
      </trkpt>
      <trkpt lat="43.784602" lon="-7.683477">
        <ele>71.989</ele>
        <time>2019-06-20T10:54:32Z</time>
      </trkpt>
      <trkpt lat="43.784656" lon="-7.683346">
        <ele>71.880</ele>
        <time>2019-06-20T10:54:33Z</time>
      </trkpt>
      <trkpt lat="43.784715" lon="-7.683210">
        <ele>71.566</ele>
        <time>2019-06-20T10:54:34Z</time>
      </trkpt>
      <trkpt lat="43.784781" lon="-7.683074">
        <ele>71.123</ele>
        <time>2019-06-20T10:54:35Z</time>
      </trkpt>
      <trkpt lat="43.784839" lon="-7.682936">
        <ele>70.854</ele>
        <time>2019-06-20T10:54:36Z</time>
      </trkpt>
      <trkpt lat="43.784893" lon="-7.682799">
        <ele>70.496</ele>
        <time>2019-06-20T10:54:37Z</time>
      </trkpt>
      <trkpt lat="43.784949" lon="-7.682680">
        <ele>69.833</ele>
        <time>2019-06-20T10:54:38Z</time>
      </trkpt>
      <trkpt lat="43.784991" lon="-7.682556">
        <ele>69.262</ele>
        <time>2019-06-20T10:54:39Z</time>
      </trkpt>
      <trkpt lat="43.785035" lon="-7.682441">
        <ele>68.583</ele>
        <time>2019-06-20T10:54:40Z</time>
      </trkpt>
      <trkpt lat="43.785058" lon="-7.682306">
        <ele>67.411</ele>
        <time>2019-06-20T10:54:41Z</time>
      </trkpt>
      <trkpt lat="43.785083" lon="-7.682178">
        <ele>66.808</ele>
        <time>2019-06-20T10:54:42Z</time>
      </trkpt>
      <trkpt lat="43.785104" lon="-7.682037">
        <ele>66.649</ele>
        <time>2019-06-20T10:54:43Z</time>
      </trkpt>
      <trkpt lat="43.785135" lon="-7.681898">
        <ele>66.243</ele>
        <time>2019-06-20T10:54:44Z</time>
      </trkpt>
      <trkpt lat="43.785152" lon="-7.681743">
        <ele>65.454</ele>
        <time>2019-06-20T10:54:45Z</time>
      </trkpt>
      <trkpt lat="43.785179" lon="-7.681587">
        <ele>64.540</ele>
        <time>2019-06-20T10:54:46Z</time>
      </trkpt>
      <trkpt lat="43.785205" lon="-7.681428">
        <ele>63.787</ele>
        <time>2019-06-20T10:54:47Z</time>
      </trkpt>
      <trkpt lat="43.785221" lon="-7.681270">
        <ele>62.758</ele>
        <time>2019-06-20T10:54:48Z</time>
      </trkpt>
      <trkpt lat="43.785240" lon="-7.681113">
        <ele>61.770</ele>
        <time>2019-06-20T10:54:49Z</time>
      </trkpt>
      <trkpt lat="43.785268" lon="-7.680954">
        <ele>61.497</ele>
        <time>2019-06-20T10:54:50Z</time>
      </trkpt>
      <trkpt lat="43.785300" lon="-7.680814">
        <ele>60.981</ele>
        <time>2019-06-20T10:54:51Z</time>
      </trkpt>
      <trkpt lat="43.785326" lon="-7.680673">
        <ele>60.161</ele>
        <time>2019-06-20T10:54:52Z</time>
      </trkpt>
      <trkpt lat="43.785350" lon="-7.680527">
        <ele>59.317</ele>
        <time>2019-06-20T10:54:53Z</time>
      </trkpt>
      <trkpt lat="43.785384" lon="-7.680387">
        <ele>58.608</ele>
        <time>2019-06-20T10:54:54Z</time>
      </trkpt>
      <trkpt lat="43.785418" lon="-7.680248">
        <ele>57.831</ele>
        <time>2019-06-20T10:54:55Z</time>
      </trkpt>
      <trkpt lat="43.785456" lon="-7.680109">
        <ele>57.115</ele>
        <time>2019-06-20T10:54:56Z</time>
      </trkpt>
      <trkpt lat="43.785502" lon="-7.679971">
        <ele>56.456</ele>
        <time>2019-06-20T10:54:57Z</time>
      </trkpt>
      <trkpt lat="43.785545" lon="-7.679848">
        <ele>55.892</ele>
        <time>2019-06-20T10:54:58Z</time>
      </trkpt>
      <trkpt lat="43.785582" lon="-7.679723">
        <ele>55.159</ele>
        <time>2019-06-20T10:54:59Z</time>
      </trkpt>
      <trkpt lat="43.785607" lon="-7.679604">
        <ele>54.320</ele>
        <time>2019-06-20T10:55:00Z</time>
      </trkpt>
      <trkpt lat="43.785615" lon="-7.679473">
        <ele>53.492</ele>
        <time>2019-06-20T10:55:01Z</time>
      </trkpt>
      <trkpt lat="43.785599" lon="-7.679353">
        <ele>52.579</ele>
        <time>2019-06-20T10:55:02Z</time>
      </trkpt>
      <trkpt lat="43.785587" lon="-7.679229">
        <ele>51.674</ele>
        <time>2019-06-20T10:55:03Z</time>
      </trkpt>
      <trkpt lat="43.785572" lon="-7.679107">
        <ele>50.856</ele>
        <time>2019-06-20T10:55:04Z</time>
      </trkpt>
      <trkpt lat="43.785562" lon="-7.678981">
        <ele>50.321</ele>
        <time>2019-06-20T10:55:05Z</time>
      </trkpt>
      <trkpt lat="43.785545" lon="-7.678865">
        <ele>49.908</ele>
        <time>2019-06-20T10:55:06Z</time>
      </trkpt>
      <trkpt lat="43.785536" lon="-7.678753">
        <ele>49.480</ele>
        <time>2019-06-20T10:55:07Z</time>
      </trkpt>
      <trkpt lat="43.785520" lon="-7.678651">
        <ele>49.054</ele>
        <time>2019-06-20T10:55:08Z</time>
      </trkpt>
      <trkpt lat="43.785490" lon="-7.678537">
        <ele>48.435</ele>
        <time>2019-06-20T10:55:09Z</time>
      </trkpt>
      <trkpt lat="43.785473" lon="-7.678432">
        <ele>48.031</ele>
        <time>2019-06-20T10:55:10Z</time>
      </trkpt>
      <trkpt lat="43.785443" lon="-7.678343">
        <ele>47.818</ele>
        <time>2019-06-20T10:55:11Z</time>
      </trkpt>
      <trkpt lat="43.785417" lon="-7.678257">
        <ele>48.389</ele>
        <time>2019-06-20T10:55:12Z</time>
      </trkpt>
      <trkpt lat="43.785392" lon="-7.678196">
        <ele>48.761</ele>
        <time>2019-06-20T10:55:13Z</time>
      </trkpt>
      <trkpt lat="43.785360" lon="-7.678150">
        <ele>49.198</ele>
        <time>2019-06-20T10:55:14Z</time>
      </trkpt>
      <trkpt lat="43.785304" lon="-7.678119">
        <ele>49.663</ele>
        <time>2019-06-20T10:55:15Z</time>
      </trkpt>
      <trkpt lat="43.785225" lon="-7.678109">
        <ele>49.644</ele>
        <time>2019-06-20T10:55:16Z</time>
      </trkpt>
      <trkpt lat="43.785128" lon="-7.678090">
        <ele>49.318</ele>
        <time>2019-06-20T10:55:17Z</time>
      </trkpt>
      <trkpt lat="43.785033" lon="-7.678087">
        <ele>49.008</ele>
        <time>2019-06-20T10:55:18Z</time>
      </trkpt>
      <trkpt lat="43.784932" lon="-7.678072">
        <ele>48.789</ele>
        <time>2019-06-20T10:55:19Z</time>
      </trkpt>
      <trkpt lat="43.784837" lon="-7.678064">
        <ele>48.443</ele>
        <time>2019-06-20T10:55:20Z</time>
      </trkpt>
      <trkpt lat="43.784745" lon="-7.678039">
        <ele>48.184</ele>
        <time>2019-06-20T10:55:21Z</time>
      </trkpt>
      <trkpt lat="43.784658" lon="-7.678008">
        <ele>48.450</ele>
        <time>2019-06-20T10:55:22Z</time>
      </trkpt>
      <trkpt lat="43.784582" lon="-7.677971">
        <ele>48.897</ele>
        <time>2019-06-20T10:55:23Z</time>
      </trkpt>
      <trkpt lat="43.784505" lon="-7.677911">
        <ele>49.398</ele>
        <time>2019-06-20T10:55:24Z</time>
      </trkpt>
      <trkpt lat="43.784434" lon="-7.677834">
        <ele>49.970</ele>
        <time>2019-06-20T10:55:25Z</time>
      </trkpt>
      <trkpt lat="43.784357" lon="-7.677748">
        <ele>50.327</ele>
        <time>2019-06-20T10:55:26Z</time>
      </trkpt>
      <trkpt lat="43.784281" lon="-7.677664">
        <ele>50.661</ele>
        <time>2019-06-20T10:55:27Z</time>
      </trkpt>
      <trkpt lat="43.784216" lon="-7.677571">
        <ele>50.821</ele>
        <time>2019-06-20T10:55:28Z</time>
      </trkpt>
      <trkpt lat="43.784161" lon="-7.677471">
        <ele>51.013</ele>
        <time>2019-06-20T10:55:29Z</time>
      </trkpt>
      <trkpt lat="43.784128" lon="-7.677372">
        <ele>51.208</ele>
        <time>2019-06-20T10:55:30Z</time>
      </trkpt>
      <trkpt lat="43.784107" lon="-7.677233">
        <ele>51.289</ele>
        <time>2019-06-20T10:55:31Z</time>
      </trkpt>
      <trkpt lat="43.784085" lon="-7.677088">
        <ele>51.363</ele>
        <time>2019-06-20T10:55:32Z</time>
      </trkpt>
      <trkpt lat="43.784051" lon="-7.676935">
        <ele>51.474</ele>
        <time>2019-06-20T10:55:33Z</time>
      </trkpt>
      <trkpt lat="43.784022" lon="-7.676798">
        <ele>51.850</ele>
        <time>2019-06-20T10:55:34Z</time>
      </trkpt>
      <trkpt lat="43.783994" lon="-7.676676">
        <ele>52.087</ele>
        <time>2019-06-20T10:55:35Z</time>
      </trkpt>
      <trkpt lat="43.783956" lon="-7.676554">
        <ele>52.198</ele>
        <time>2019-06-20T10:55:36Z</time>
      </trkpt>
      <trkpt lat="43.783907" lon="-7.676463">
        <ele>52.090</ele>
        <time>2019-06-20T10:55:37Z</time>
      </trkpt>
      <trkpt lat="43.783830" lon="-7.676369">
        <ele>52.127</ele>
        <time>2019-06-20T10:55:38Z</time>
      </trkpt>
      <trkpt lat="43.783736" lon="-7.676270">
        <ele>52.284</ele>
        <time>2019-06-20T10:55:39Z</time>
      </trkpt>
      <trkpt lat="43.783636" lon="-7.676171">
        <ele>52.107</ele>
        <time>2019-06-20T10:55:40Z</time>
      </trkpt>
      <trkpt lat="43.783540" lon="-7.676079">
        <ele>52.517</ele>
        <time>2019-06-20T10:55:41Z</time>
      </trkpt>
      <trkpt lat="43.783441" lon="-7.675992">
        <ele>53.208</ele>
        <time>2019-06-20T10:55:42Z</time>
      </trkpt>
      <trkpt lat="43.783344" lon="-7.675896">
        <ele>53.861</ele>
        <time>2019-06-20T10:55:43Z</time>
      </trkpt>
      <trkpt lat="43.783252" lon="-7.675802">
        <ele>53.745</ele>
        <time>2019-06-20T10:55:44Z</time>
      </trkpt>
      <trkpt lat="43.783160" lon="-7.675700">
        <ele>53.166</ele>
        <time>2019-06-20T10:55:45Z</time>
      </trkpt>
      <trkpt lat="43.783074" lon="-7.675599">
        <ele>52.382</ele>
        <time>2019-06-20T10:55:46Z</time>
      </trkpt>
      <trkpt lat="43.782982" lon="-7.675507">
        <ele>51.929</ele>
        <time>2019-06-20T10:55:47Z</time>
      </trkpt>
      <trkpt lat="43.782914" lon="-7.675431">
        <ele>51.930</ele>
        <time>2019-06-20T10:55:48Z</time>
      </trkpt>
      <trkpt lat="43.782839" lon="-7.675344">
        <ele>52.062</ele>
        <time>2019-06-20T10:55:49Z</time>
      </trkpt>
      <trkpt lat="43.782771" lon="-7.675262">
        <ele>52.239</ele>
        <time>2019-06-20T10:55:50Z</time>
      </trkpt>
      <trkpt lat="43.782722" lon="-7.675183">
        <ele>53.125</ele>
        <time>2019-06-20T10:55:51Z</time>
      </trkpt>
      <trkpt lat="43.782686" lon="-7.675086">
        <ele>54.026</ele>
        <time>2019-06-20T10:55:52Z</time>
      </trkpt>
      <trkpt lat="43.782679" lon="-7.674979">
        <ele>54.908</ele>
        <time>2019-06-20T10:55:53Z</time>
      </trkpt>
      <trkpt lat="43.782699" lon="-7.674881">
        <ele>55.508</ele>
        <time>2019-06-20T10:55:54Z</time>
      </trkpt>
      <trkpt lat="43.782727" lon="-7.674771">
        <ele>56.415</ele>
        <time>2019-06-20T10:55:55Z</time>
      </trkpt>
      <trkpt lat="43.782758" lon="-7.674664">
        <ele>57.419</ele>
        <time>2019-06-20T10:55:56Z</time>
      </trkpt>
      <trkpt lat="43.782772" lon="-7.674559">
        <ele>58.280</ele>
        <time>2019-06-20T10:55:57Z</time>
      </trkpt>
      <trkpt lat="43.782770" lon="-7.674451">
        <ele>59.086</ele>
        <time>2019-06-20T10:55:58Z</time>
      </trkpt>
      <trkpt lat="43.782759" lon="-7.674342">
        <ele>59.713</ele>
        <time>2019-06-20T10:55:59Z</time>
      </trkpt>
      <trkpt lat="43.782724" lon="-7.674232">
        <ele>60.584</ele>
        <time>2019-06-20T10:56:00Z</time>
      </trkpt>
      <trkpt lat="43.782662" lon="-7.674128">
        <ele>61.176</ele>
        <time>2019-06-20T10:56:01Z</time>
      </trkpt>
      <trkpt lat="43.782599" lon="-7.674031">
        <ele>61.693</ele>
        <time>2019-06-20T10:56:02Z</time>
      </trkpt>
      <trkpt lat="43.782552" lon="-7.673934">
        <ele>62.491</ele>
        <time>2019-06-20T10:56:03Z</time>
      </trkpt>
      <trkpt lat="43.782519" lon="-7.673819">
        <ele>63.481</ele>
        <time>2019-06-20T10:56:04Z</time>
      </trkpt>
      <trkpt lat="43.782503" lon="-7.673684">
        <ele>64.519</ele>
        <time>2019-06-20T10:56:05Z</time>
      </trkpt>
      <trkpt lat="43.782503" lon="-7.673548">
        <ele>65.908</ele>
        <time>2019-06-20T10:56:06Z</time>
      </trkpt>
      <trkpt lat="43.782512" lon="-7.673424">
        <ele>67.542</ele>
        <time>2019-06-20T10:56:07Z</time>
      </trkpt>
      <trkpt lat="43.782511" lon="-7.673300">
        <ele>69.476</ele>
        <time>2019-06-20T10:56:08Z</time>
      </trkpt>
      <trkpt lat="43.782484" lon="-7.673172">
        <ele>72.297</ele>
        <time>2019-06-20T10:56:09Z</time>
      </trkpt>
      <trkpt lat="43.782441" lon="-7.673048">
        <ele>75.323</ele>
        <time>2019-06-20T10:56:10Z</time>
      </trkpt>
      <trkpt lat="43.782390" lon="-7.672921">
        <ele>77.260</ele>
        <time>2019-06-20T10:56:11Z</time>
      </trkpt>
      <trkpt lat="43.782335" lon="-7.672787">
        <ele>78.991</ele>
        <time>2019-06-20T10:56:12Z</time>
      </trkpt>
      <trkpt lat="43.782274" lon="-7.672647">
        <ele>80.653</ele>
        <time>2019-06-20T10:56:13Z</time>
      </trkpt>
      <trkpt lat="43.782215" lon="-7.672516">
        <ele>82.060</ele>
        <time>2019-06-20T10:56:14Z</time>
      </trkpt>
      <trkpt lat="43.782162" lon="-7.672395">
        <ele>83.122</ele>
        <time>2019-06-20T10:56:15Z</time>
      </trkpt>
      <trkpt lat="43.782107" lon="-7.672295">
        <ele>84.362</ele>
        <time>2019-06-20T10:56:16Z</time>
      </trkpt>
      <trkpt lat="43.782044" lon="-7.672209">
        <ele>85.708</ele>
        <time>2019-06-20T10:56:17Z</time>
      </trkpt>
      <trkpt lat="43.781982" lon="-7.672164">
        <ele>86.908</ele>
        <time>2019-06-20T10:56:18Z</time>
      </trkpt>
      <trkpt lat="43.781931" lon="-7.672142">
        <ele>88.015</ele>
        <time>2019-06-20T10:56:19Z</time>
      </trkpt>
      <trkpt lat="43.781870" lon="-7.672150">
        <ele>89.799</ele>
        <time>2019-06-20T10:56:20Z</time>
      </trkpt>
      <trkpt lat="43.781805" lon="-7.672166">
        <ele>91.470</ele>
        <time>2019-06-20T10:56:21Z</time>
      </trkpt>
      <trkpt lat="43.781753" lon="-7.672266">
        <ele>92.156</ele>
        <time>2019-06-20T10:56:22Z</time>
      </trkpt>
      <trkpt lat="43.781681" lon="-7.672364">
        <ele>93.193</ele>
        <time>2019-06-20T10:56:23Z</time>
      </trkpt>
      <trkpt lat="43.781645" lon="-7.672484">
        <ele>92.854</ele>
        <time>2019-06-20T10:56:24Z</time>
      </trkpt>
      <trkpt lat="43.781601" lon="-7.672601">
        <ele>92.836</ele>
        <time>2019-06-20T10:56:25Z</time>
      </trkpt>
      <trkpt lat="43.781559" lon="-7.672715">
        <ele>92.873</ele>
        <time>2019-06-20T10:56:26Z</time>
      </trkpt>
      <trkpt lat="43.781548" lon="-7.672779">
        <ele>92.446</ele>
        <time>2019-06-20T10:56:27Z</time>
      </trkpt>
      <trkpt lat="43.781528" lon="-7.672881">
        <ele>91.788</ele>
        <time>2019-06-20T10:56:29Z</time>
      </trkpt>
      <trkpt lat="43.781529" lon="-7.672944">
        <ele>90.916</ele>
        <time>2019-06-20T10:57:38Z</time>
      </trkpt>
      <trkpt lat="43.781510" lon="-7.673004">
        <ele>90.608</ele>
        <time>2019-06-20T10:57:39Z</time>
      </trkpt>
      <trkpt lat="43.781483" lon="-7.673070">
        <ele>90.567</ele>
        <time>2019-06-20T10:57:40Z</time>
      </trkpt>
      <trkpt lat="43.781441" lon="-7.673143">
        <ele>90.931</ele>
        <time>2019-06-20T10:57:41Z</time>
      </trkpt>
      <trkpt lat="43.781385" lon="-7.673217">
        <ele>91.982</ele>
        <time>2019-06-20T10:57:42Z</time>
      </trkpt>
      <trkpt lat="43.781275" lon="-7.673265">
        <ele>94.458</ele>
        <time>2019-06-20T10:57:43Z</time>
      </trkpt>
      <trkpt lat="43.781190" lon="-7.673330">
        <ele>96.085</ele>
        <time>2019-06-20T10:57:44Z</time>
      </trkpt>
      <trkpt lat="43.781092" lon="-7.673389">
        <ele>98.196</ele>
        <time>2019-06-20T10:57:45Z</time>
      </trkpt>
      <trkpt lat="43.780994" lon="-7.673454">
        <ele>100.318</ele>
        <time>2019-06-20T10:57:46Z</time>
      </trkpt>
      <trkpt lat="43.780900" lon="-7.673516">
        <ele>102.315</ele>
        <time>2019-06-20T10:57:47Z</time>
      </trkpt>
      <trkpt lat="43.780807" lon="-7.673580">
        <ele>104.568</ele>
        <time>2019-06-20T10:57:48Z</time>
      </trkpt>
      <trkpt lat="43.780726" lon="-7.673626">
        <ele>107.542</ele>
        <time>2019-06-20T10:57:49Z</time>
      </trkpt>
      <trkpt lat="43.780652" lon="-7.673670">
        <ele>110.326</ele>
        <time>2019-06-20T10:57:50Z</time>
      </trkpt>
      <trkpt lat="43.780569" lon="-7.673693">
        <ele>113.608</ele>
        <time>2019-06-20T10:57:51Z</time>
      </trkpt>
      <trkpt lat="43.780484" lon="-7.673706">
        <ele>115.149</ele>
        <time>2019-06-20T10:57:52Z</time>
      </trkpt>
      <trkpt lat="43.780403" lon="-7.673671">
        <ele>116.773</ele>
        <time>2019-06-20T10:57:53Z</time>
      </trkpt>
      <trkpt lat="43.780318" lon="-7.673655">
        <ele>118.114</ele>
        <time>2019-06-20T10:57:54Z</time>
      </trkpt>
      <trkpt lat="43.780229" lon="-7.673631">
        <ele>119.410</ele>
        <time>2019-06-20T10:57:55Z</time>
      </trkpt>
      <trkpt lat="43.780138" lon="-7.673642">
        <ele>120.237</ele>
        <time>2019-06-20T10:57:56Z</time>
      </trkpt>
      <trkpt lat="43.780040" lon="-7.673648">
        <ele>121.218</ele>
        <time>2019-06-20T10:57:57Z</time>
      </trkpt>
      <trkpt lat="43.779952" lon="-7.673657">
        <ele>122.480</ele>
        <time>2019-06-20T10:57:58Z</time>
      </trkpt>
      <trkpt lat="43.779878" lon="-7.673670">
        <ele>123.697</ele>
        <time>2019-06-20T10:57:59Z</time>
      </trkpt>
      <trkpt lat="43.779778" lon="-7.673667">
        <ele>125.497</ele>
        <time>2019-06-20T10:58:00Z</time>
      </trkpt>
      <trkpt lat="43.779733" lon="-7.673751">
        <ele>125.323</ele>
        <time>2019-06-20T10:58:02Z</time>
      </trkpt>
      <trkpt lat="43.779703" lon="-7.673816">
        <ele>125.325</ele>
        <time>2019-06-20T10:58:03Z</time>
      </trkpt>
      <trkpt lat="43.779687" lon="-7.673915">
        <ele>124.808</ele>
        <time>2019-06-20T10:58:04Z</time>
      </trkpt>
      <trkpt lat="43.779686" lon="-7.674027">
        <ele>124.472</ele>
        <time>2019-06-20T10:58:05Z</time>
      </trkpt>
      <trkpt lat="43.779679" lon="-7.674133">
        <ele>124.186</ele>
        <time>2019-06-20T10:58:06Z</time>
      </trkpt>
      <trkpt lat="43.779676" lon="-7.674240">
        <ele>123.887</ele>
        <time>2019-06-20T10:58:07Z</time>
      </trkpt>
      <trkpt lat="43.779668" lon="-7.674345">
        <ele>123.783</ele>
        <time>2019-06-20T10:58:08Z</time>
      </trkpt>
      <trkpt lat="43.779659" lon="-7.674449">
        <ele>123.610</ele>
        <time>2019-06-20T10:58:09Z</time>
      </trkpt>
      <trkpt lat="43.779646" lon="-7.674526">
        <ele>124.181</ele>
        <time>2019-06-20T10:58:10Z</time>
      </trkpt>
      <trkpt lat="43.779623" lon="-7.674621">
        <ele>124.733</ele>
        <time>2019-06-20T10:58:11Z</time>
      </trkpt>
      <trkpt lat="43.779573" lon="-7.674697">
        <ele>125.780</ele>
        <time>2019-06-20T10:58:12Z</time>
      </trkpt>
      <trkpt lat="43.779495" lon="-7.674765">
        <ele>127.132</ele>
        <time>2019-06-20T10:58:13Z</time>
      </trkpt>
      <trkpt lat="43.779429" lon="-7.674840">
        <ele>128.392</ele>
        <time>2019-06-20T10:58:14Z</time>
      </trkpt>
      <trkpt lat="43.779379" lon="-7.674932">
        <ele>129.011</ele>
        <time>2019-06-20T10:58:15Z</time>
      </trkpt>
      <trkpt lat="43.779312" lon="-7.675024">
        <ele>129.908</ele>
        <time>2019-06-20T10:58:16Z</time>
      </trkpt>
      <trkpt lat="43.779253" lon="-7.675117">
        <ele>130.696</ele>
        <time>2019-06-20T10:58:17Z</time>
      </trkpt>
      <trkpt lat="43.779198" lon="-7.675188">
        <ele>131.540</ele>
        <time>2019-06-20T10:58:18Z</time>
      </trkpt>
      <trkpt lat="43.779128" lon="-7.675262">
        <ele>132.421</ele>
        <time>2019-06-20T10:58:19Z</time>
      </trkpt>
      <trkpt lat="43.779062" lon="-7.675334">
        <ele>132.867</ele>
        <time>2019-06-20T10:58:20Z</time>
      </trkpt>
      <trkpt lat="43.778988" lon="-7.675394">
        <ele>133.474</ele>
        <time>2019-06-20T10:58:21Z</time>
      </trkpt>
      <trkpt lat="43.778941" lon="-7.675433">
        <ele>133.875</ele>
        <time>2019-06-20T10:58:22Z</time>
      </trkpt>
      <trkpt lat="43.778896" lon="-7.675459">
        <ele>134.377</ele>
        <time>2019-06-20T10:58:23Z</time>
      </trkpt>
      <trkpt lat="43.778853" lon="-7.675538">
        <ele>134.354</ele>
        <time>2019-06-20T10:58:25Z</time>
      </trkpt>
      <trkpt lat="43.778816" lon="-7.675581">
        <ele>134.245</ele>
        <time>2019-06-20T10:58:26Z</time>
      </trkpt>
      <trkpt lat="43.778773" lon="-7.675615">
        <ele>134.247</ele>
        <time>2019-06-20T10:58:27Z</time>
      </trkpt>
      <trkpt lat="43.778682" lon="-7.675670">
        <ele>134.311</ele>
        <time>2019-06-20T10:58:28Z</time>
      </trkpt>
      <trkpt lat="43.778622" lon="-7.675750">
        <ele>133.808</ele>
        <time>2019-06-20T10:58:29Z</time>
      </trkpt>
      <trkpt lat="43.778562" lon="-7.675821">
        <ele>132.867</ele>
        <time>2019-06-20T10:58:30Z</time>
      </trkpt>
      <trkpt lat="43.778499" lon="-7.675878">
        <ele>131.611</ele>
        <time>2019-06-20T10:58:31Z</time>
      </trkpt>
      <trkpt lat="43.778436" lon="-7.675904">
        <ele>130.722</ele>
        <time>2019-06-20T10:58:32Z</time>
      </trkpt>
      <trkpt lat="43.778360" lon="-7.675889">
        <ele>130.488</ele>
        <time>2019-06-20T10:58:33Z</time>
      </trkpt>
      <trkpt lat="43.778265" lon="-7.675861">
        <ele>129.695</ele>
        <time>2019-06-20T10:58:34Z</time>
      </trkpt>
      <trkpt lat="43.778187" lon="-7.675851">
        <ele>128.646</ele>
        <time>2019-06-20T10:58:35Z</time>
      </trkpt>
      <trkpt lat="43.778113" lon="-7.675820">
        <ele>128.068</ele>
        <time>2019-06-20T10:58:36Z</time>
      </trkpt>
      <trkpt lat="43.778052" lon="-7.675767">
        <ele>128.155</ele>
        <time>2019-06-20T10:58:37Z</time>
      </trkpt>
      <trkpt lat="43.777986" lon="-7.675684">
        <ele>128.693</ele>
        <time>2019-06-20T10:58:38Z</time>
      </trkpt>
      <trkpt lat="43.777937" lon="-7.675567">
        <ele>130.165</ele>
        <time>2019-06-20T10:58:39Z</time>
      </trkpt>
      <trkpt lat="43.777883" lon="-7.675427">
        <ele>132.421</ele>
        <time>2019-06-20T10:58:40Z</time>
      </trkpt>
      <trkpt lat="43.777829" lon="-7.675292">
        <ele>135.008</ele>
        <time>2019-06-20T10:58:41Z</time>
      </trkpt>
      <trkpt lat="43.777755" lon="-7.675179">
        <ele>136.292</ele>
        <time>2019-06-20T10:58:42Z</time>
      </trkpt>
      <trkpt lat="43.777687" lon="-7.675068">
        <ele>136.756</ele>
        <time>2019-06-20T10:58:43Z</time>
      </trkpt>
      <trkpt lat="43.777631" lon="-7.674983">
        <ele>137.247</ele>
        <time>2019-06-20T10:58:44Z</time>
      </trkpt>
      <trkpt lat="43.777572" lon="-7.674901">
        <ele>137.643</ele>
        <time>2019-06-20T10:58:45Z</time>
      </trkpt>
      <trkpt lat="43.777500" lon="-7.674837">
        <ele>137.550</ele>
        <time>2019-06-20T10:58:46Z</time>
      </trkpt>
      <trkpt lat="43.777423" lon="-7.674791">
        <ele>137.131</ele>
        <time>2019-06-20T10:58:47Z</time>
      </trkpt>
      <trkpt lat="43.777357" lon="-7.674772">
        <ele>136.333</ele>
        <time>2019-06-20T10:58:48Z</time>
      </trkpt>
      <trkpt lat="43.777271" lon="-7.674754">
        <ele>135.180</ele>
        <time>2019-06-20T10:58:49Z</time>
      </trkpt>
      <trkpt lat="43.777160" lon="-7.674728">
        <ele>134.255</ele>
        <time>2019-06-20T10:58:50Z</time>
      </trkpt>
      <trkpt lat="43.777054" lon="-7.674706">
        <ele>133.607</ele>
        <time>2019-06-20T10:58:51Z</time>
      </trkpt>
      <trkpt lat="43.776940" lon="-7.674667">
        <ele>133.117</ele>
        <time>2019-06-20T10:58:52Z</time>
      </trkpt>
      <trkpt lat="43.776841" lon="-7.674615">
        <ele>132.908</ele>
        <time>2019-06-20T10:58:53Z</time>
      </trkpt>
      <trkpt lat="43.776739" lon="-7.674563">
        <ele>132.458</ele>
        <time>2019-06-20T10:58:54Z</time>
      </trkpt>
      <trkpt lat="43.776664" lon="-7.674505">
        <ele>132.172</ele>
        <time>2019-06-20T10:58:55Z</time>
      </trkpt>
      <trkpt lat="43.776562" lon="-7.674458">
        <ele>133.213</ele>
        <time>2019-06-20T10:58:56Z</time>
      </trkpt>
      <trkpt lat="43.776499" lon="-7.674484">
        <ele>133.249</ele>
        <time>2019-06-20T10:58:57Z</time>
      </trkpt>
      <trkpt lat="43.776426" lon="-7.674487">
        <ele>133.516</ele>
        <time>2019-06-20T10:58:58Z</time>
      </trkpt>
      <trkpt lat="43.776346" lon="-7.674554">
        <ele>133.757</ele>
        <time>2019-06-20T10:58:59Z</time>
      </trkpt>
      <trkpt lat="43.776242" lon="-7.674626">
        <ele>134.639</ele>
        <time>2019-06-20T10:59:00Z</time>
      </trkpt>
      <trkpt lat="43.776121" lon="-7.674702">
        <ele>135.916</ele>
        <time>2019-06-20T10:59:01Z</time>
      </trkpt>
      <trkpt lat="43.776018" lon="-7.674783">
        <ele>137.149</ele>
        <time>2019-06-20T10:59:02Z</time>
      </trkpt>
      <trkpt lat="43.775918" lon="-7.674834">
        <ele>138.402</ele>
        <time>2019-06-20T10:59:03Z</time>
      </trkpt>
      <trkpt lat="43.775810" lon="-7.674871">
        <ele>139.522</ele>
        <time>2019-06-20T10:59:04Z</time>
      </trkpt>
      <trkpt lat="43.775697" lon="-7.674906">
        <ele>139.708</ele>
        <time>2019-06-20T10:59:05Z</time>
      </trkpt>
      <trkpt lat="43.775570" lon="-7.674944">
        <ele>140.397</ele>
        <time>2019-06-20T10:59:06Z</time>
      </trkpt>
      <trkpt lat="43.775458" lon="-7.674967">
        <ele>141.691</ele>
        <time>2019-06-20T10:59:07Z</time>
      </trkpt>
      <trkpt lat="43.775374" lon="-7.674994">
        <ele>142.922</ele>
        <time>2019-06-20T10:59:08Z</time>
      </trkpt>
      <trkpt lat="43.775272" lon="-7.675022">
        <ele>144.068</ele>
        <time>2019-06-20T10:59:09Z</time>
      </trkpt>
      <trkpt lat="43.775177" lon="-7.675088">
        <ele>143.625</ele>
        <time>2019-06-20T10:59:10Z</time>
      </trkpt>
      <trkpt lat="43.775067" lon="-7.675162">
        <ele>143.156</ele>
        <time>2019-06-20T10:59:11Z</time>
      </trkpt>
      <trkpt lat="43.774965" lon="-7.675251">
        <ele>142.318</ele>
        <time>2019-06-20T10:59:12Z</time>
      </trkpt>
      <trkpt lat="43.774867" lon="-7.675330">
        <ele>140.955</ele>
        <time>2019-06-20T10:59:13Z</time>
      </trkpt>
      <trkpt lat="43.774777" lon="-7.675430">
        <ele>140.076</ele>
        <time>2019-06-20T10:59:14Z</time>
      </trkpt>
      <trkpt lat="43.774687" lon="-7.675520">
        <ele>138.990</ele>
        <time>2019-06-20T10:59:15Z</time>
      </trkpt>
      <trkpt lat="43.774611" lon="-7.675593">
        <ele>137.119</ele>
        <time>2019-06-20T10:59:16Z</time>
      </trkpt>
      <trkpt lat="43.774528" lon="-7.675663">
        <ele>134.808</ele>
        <time>2019-06-20T10:59:17Z</time>
      </trkpt>
      <trkpt lat="43.774495" lon="-7.675770">
        <ele>133.670</ele>
        <time>2019-06-20T10:59:18Z</time>
      </trkpt>
      <trkpt lat="43.774467" lon="-7.675880">
        <ele>132.344</ele>
        <time>2019-06-20T10:59:19Z</time>
      </trkpt>
      <trkpt lat="43.774449" lon="-7.676001">
        <ele>130.975</ele>
        <time>2019-06-20T10:59:20Z</time>
      </trkpt>
      <trkpt lat="43.774433" lon="-7.676119">
        <ele>129.561</ele>
        <time>2019-06-20T10:59:21Z</time>
      </trkpt>
      <trkpt lat="43.774430" lon="-7.676237">
        <ele>128.038</ele>
        <time>2019-06-20T10:59:22Z</time>
      </trkpt>
      <trkpt lat="43.774426" lon="-7.676356">
        <ele>126.699</ele>
        <time>2019-06-20T10:59:23Z</time>
      </trkpt>
      <trkpt lat="43.774474" lon="-7.676466">
        <ele>127.051</ele>
        <time>2019-06-20T10:59:24Z</time>
      </trkpt>
      <trkpt lat="43.774508" lon="-7.676599">
        <ele>126.868</ele>
        <time>2019-06-20T10:59:25Z</time>
      </trkpt>
      <trkpt lat="43.774519" lon="-7.676725">
        <ele>126.447</ele>
        <time>2019-06-20T10:59:26Z</time>
      </trkpt>
      <trkpt lat="43.774536" lon="-7.676850">
        <ele>127.129</ele>
        <time>2019-06-20T10:59:27Z</time>
      </trkpt>
      <trkpt lat="43.774560" lon="-7.676984">
        <ele>128.221</ele>
        <time>2019-06-20T10:59:28Z</time>
      </trkpt>
      <trkpt lat="43.774583" lon="-7.677112">
        <ele>129.908</ele>
        <time>2019-06-20T10:59:29Z</time>
      </trkpt>
      <trkpt lat="43.774572" lon="-7.677243">
        <ele>130.347</ele>
        <time>2019-06-20T10:59:30Z</time>
      </trkpt>
      <trkpt lat="43.774570" lon="-7.677369">
        <ele>131.581</ele>
        <time>2019-06-20T10:59:31Z</time>
      </trkpt>
      <trkpt lat="43.774489" lon="-7.677441">
        <ele>130.232</ele>
        <time>2019-06-20T10:59:32Z</time>
      </trkpt>
      <trkpt lat="43.774423" lon="-7.677536">
        <ele>129.988</ele>
        <time>2019-06-20T10:59:33Z</time>
      </trkpt>
      <trkpt lat="43.774366" lon="-7.677648">
        <ele>130.475</ele>
        <time>2019-06-20T10:59:34Z</time>
      </trkpt>
      <trkpt lat="43.774312" lon="-7.677724">
        <ele>130.486</ele>
        <time>2019-06-20T10:59:35Z</time>
      </trkpt>
      <trkpt lat="43.774200" lon="-7.677812">
        <ele>129.098</ele>
        <time>2019-06-20T10:59:36Z</time>
      </trkpt>
      <trkpt lat="43.774114" lon="-7.677915">
        <ele>128.775</ele>
        <time>2019-06-20T10:59:37Z</time>
      </trkpt>
      <trkpt lat="43.774019" lon="-7.677974">
        <ele>126.364</ele>
        <time>2019-06-20T10:59:38Z</time>
      </trkpt>
      <trkpt lat="43.773899" lon="-7.678046">
        <ele>123.206</ele>
        <time>2019-06-20T10:59:39Z</time>
      </trkpt>
      <trkpt lat="43.773799" lon="-7.678095">
        <ele>121.416</ele>
        <time>2019-06-20T10:59:40Z</time>
      </trkpt>
      <trkpt lat="43.773693" lon="-7.678156">
        <ele>119.908</ele>
        <time>2019-06-20T10:59:41Z</time>
      </trkpt>
      <trkpt lat="43.773602" lon="-7.678206">
        <ele>118.559</ele>
        <time>2019-06-20T10:59:42Z</time>
      </trkpt>
      <trkpt lat="43.773484" lon="-7.678195">
        <ele>113.923</ele>
        <time>2019-06-20T10:59:43Z</time>
      </trkpt>
      <trkpt lat="43.773393" lon="-7.678229">
        <ele>111.424</ele>
        <time>2019-06-20T10:59:44Z</time>
      </trkpt>
      <trkpt lat="43.773304" lon="-7.678272">
        <ele>108.640</ele>
        <time>2019-06-20T10:59:45Z</time>
      </trkpt>
      <trkpt lat="43.773232" lon="-7.678341">
        <ele>106.857</ele>
        <time>2019-06-20T10:59:46Z</time>
      </trkpt>
      <trkpt lat="43.773163" lon="-7.678400">
        <ele>104.738</ele>
        <time>2019-06-20T10:59:47Z</time>
      </trkpt>
      <trkpt lat="43.773128" lon="-7.678526">
        <ele>105.190</ele>
        <time>2019-06-20T10:59:48Z</time>
      </trkpt>
      <trkpt lat="43.773084" lon="-7.678642">
        <ele>104.777</ele>
        <time>2019-06-20T10:59:49Z</time>
      </trkpt>
      <trkpt lat="43.773034" lon="-7.678747">
        <ele>103.333</ele>
        <time>2019-06-20T10:59:50Z</time>
      </trkpt>
      <trkpt lat="43.773016" lon="-7.678890">
        <ele>103.723</ele>
        <time>2019-06-20T10:59:51Z</time>
      </trkpt>
      <trkpt lat="43.772995" lon="-7.679007">
        <ele>101.815</ele>
        <time>2019-06-20T10:59:52Z</time>
      </trkpt>
      <trkpt lat="43.772964" lon="-7.679153">
        <ele>99.508</ele>
        <time>2019-06-20T10:59:53Z</time>
      </trkpt>
      <trkpt lat="43.772962" lon="-7.679313">
        <ele>98.216</ele>
        <time>2019-06-20T10:59:54Z</time>
      </trkpt>
      <trkpt lat="43.772952" lon="-7.679464">
        <ele>96.880</ele>
        <time>2019-06-20T10:59:55Z</time>
      </trkpt>
      <trkpt lat="43.772951" lon="-7.679641">
        <ele>96.741</ele>
        <time>2019-06-20T10:59:56Z</time>
      </trkpt>
      <trkpt lat="43.772950" lon="-7.679809">
        <ele>95.987</ele>
        <time>2019-06-20T10:59:57Z</time>
      </trkpt>
      <trkpt lat="43.772965" lon="-7.679965">
        <ele>95.194</ele>
        <time>2019-06-20T10:59:58Z</time>
      </trkpt>
      <trkpt lat="43.772987" lon="-7.680128">
        <ele>93.185</ele>
        <time>2019-06-20T10:59:59Z</time>
      </trkpt>
      <trkpt lat="43.773003" lon="-7.680291">
        <ele>90.367</ele>
        <time>2019-06-20T11:00:00Z</time>
      </trkpt>
      <trkpt lat="43.773022" lon="-7.680458">
        <ele>88.994</ele>
        <time>2019-06-20T11:00:01Z</time>
      </trkpt>
      <trkpt lat="43.773043" lon="-7.680622">
        <ele>88.135</ele>
        <time>2019-06-20T11:00:02Z</time>
      </trkpt>
      <trkpt lat="43.773077" lon="-7.680771">
        <ele>88.486</ele>
        <time>2019-06-20T11:00:03Z</time>
      </trkpt>
      <trkpt lat="43.773128" lon="-7.680912">
        <ele>89.414</ele>
        <time>2019-06-20T11:00:04Z</time>
      </trkpt>
      <trkpt lat="43.773172" lon="-7.681051">
        <ele>89.808</ele>
        <time>2019-06-20T11:00:05Z</time>
      </trkpt>
      <trkpt lat="43.773212" lon="-7.681168">
        <ele>89.926</ele>
        <time>2019-06-20T11:00:06Z</time>
      </trkpt>
      <trkpt lat="43.773250" lon="-7.681283">
        <ele>89.560</ele>
        <time>2019-06-20T11:00:07Z</time>
      </trkpt>
      <trkpt lat="43.773289" lon="-7.681377">
        <ele>89.111</ele>
        <time>2019-06-20T11:00:08Z</time>
      </trkpt>
      <trkpt lat="43.773318" lon="-7.681486">
        <ele>89.317</ele>
        <time>2019-06-20T11:00:09Z</time>
      </trkpt>
      <trkpt lat="43.773334" lon="-7.681591">
        <ele>89.364</ele>
        <time>2019-06-20T11:00:10Z</time>
      </trkpt>
      <trkpt lat="43.773340" lon="-7.681703">
        <ele>89.225</ele>
        <time>2019-06-20T11:00:11Z</time>
      </trkpt>
      <trkpt lat="43.773346" lon="-7.681821">
        <ele>89.347</ele>
        <time>2019-06-20T11:00:12Z</time>
      </trkpt>
      <trkpt lat="43.773346" lon="-7.681937">
        <ele>89.254</ele>
        <time>2019-06-20T11:00:13Z</time>
      </trkpt>
      <trkpt lat="43.773351" lon="-7.682045">
        <ele>88.693</ele>
        <time>2019-06-20T11:00:14Z</time>
      </trkpt>
      <trkpt lat="43.773355" lon="-7.682139">
        <ele>87.965</ele>
        <time>2019-06-20T11:00:15Z</time>
      </trkpt>
      <trkpt lat="43.773359" lon="-7.682218">
        <ele>87.421</ele>
        <time>2019-06-20T11:00:16Z</time>
      </trkpt>
      <trkpt lat="43.773363" lon="-7.682281">
        <ele>87.008</ele>
        <time>2019-06-20T11:00:17Z</time>
      </trkpt>
      <trkpt lat="43.773366" lon="-7.682359">
        <ele>86.412</ele>
        <time>2019-06-20T11:00:19Z</time>
      </trkpt>
      <trkpt lat="43.773328" lon="-7.682414">
        <ele>85.686</ele>
        <time>2019-06-20T11:00:21Z</time>
      </trkpt>
      <trkpt lat="43.773286" lon="-7.682439">
        <ele>85.517</ele>
        <time>2019-06-20T11:00:22Z</time>
      </trkpt>
      <trkpt lat="43.773224" lon="-7.682445">
        <ele>85.613</ele>
        <time>2019-06-20T11:00:23Z</time>
      </trkpt>
      <trkpt lat="43.773155" lon="-7.682440">
        <ele>85.830</ele>
        <time>2019-06-20T11:00:24Z</time>
      </trkpt>
      <trkpt lat="43.773091" lon="-7.682439">
        <ele>85.991</ele>
        <time>2019-06-20T11:00:25Z</time>
      </trkpt>
      <trkpt lat="43.773035" lon="-7.682455">
        <ele>86.053</ele>
        <time>2019-06-20T11:00:26Z</time>
      </trkpt>
      <trkpt lat="43.772988" lon="-7.682495">
        <ele>86.290</ele>
        <time>2019-06-20T11:00:27Z</time>
      </trkpt>
      <trkpt lat="43.772953" lon="-7.682566">
        <ele>86.614</ele>
        <time>2019-06-20T11:00:28Z</time>
      </trkpt>
      <trkpt lat="43.772935" lon="-7.682666">
        <ele>87.254</ele>
        <time>2019-06-20T11:00:29Z</time>
      </trkpt>
      <trkpt lat="43.772940" lon="-7.682785">
        <ele>87.709</ele>
        <time>2019-06-20T11:00:30Z</time>
      </trkpt>
      <trkpt lat="43.772969" lon="-7.682907">
        <ele>88.308</ele>
        <time>2019-06-20T11:00:31Z</time>
      </trkpt>
      <trkpt lat="43.773107" lon="-7.683046">
        <ele>87.414</ele>
        <time>2019-06-20T11:00:32Z</time>
      </trkpt>
      <trkpt lat="43.773168" lon="-7.683162">
        <ele>87.558</ele>
        <time>2019-06-20T11:00:33Z</time>
      </trkpt>
      <trkpt lat="43.773218" lon="-7.683277">
        <ele>87.239</ele>
        <time>2019-06-20T11:00:34Z</time>
      </trkpt>
      <trkpt lat="43.773244" lon="-7.683391">
        <ele>87.255</ele>
        <time>2019-06-20T11:00:35Z</time>
      </trkpt>
      <trkpt lat="43.773243" lon="-7.683498">
        <ele>87.732</ele>
        <time>2019-06-20T11:00:36Z</time>
      </trkpt>
      <trkpt lat="43.773220" lon="-7.683595">
        <ele>88.833</ele>
        <time>2019-06-20T11:00:37Z</time>
      </trkpt>
      <trkpt lat="43.773172" lon="-7.683671">
        <ele>90.535</ele>
        <time>2019-06-20T11:00:38Z</time>
      </trkpt>
      <trkpt lat="43.773109" lon="-7.683720">
        <ele>92.782</ele>
        <time>2019-06-20T11:00:39Z</time>
      </trkpt>
      <trkpt lat="43.773026" lon="-7.683728">
        <ele>94.753</ele>
        <time>2019-06-20T11:00:40Z</time>
      </trkpt>
      <trkpt lat="43.772941" lon="-7.683722">
        <ele>95.904</ele>
        <time>2019-06-20T11:00:41Z</time>
      </trkpt>
      <trkpt lat="43.772855" lon="-7.683668">
        <ele>96.914</ele>
        <time>2019-06-20T11:00:42Z</time>
      </trkpt>
      <trkpt lat="43.772761" lon="-7.683589">
        <ele>98.108</ele>
        <time>2019-06-20T11:00:43Z</time>
      </trkpt>
      <trkpt lat="43.772660" lon="-7.683504">
        <ele>98.798</ele>
        <time>2019-06-20T11:00:44Z</time>
      </trkpt>
      <trkpt lat="43.772559" lon="-7.683425">
        <ele>99.222</ele>
        <time>2019-06-20T11:00:45Z</time>
      </trkpt>
      <trkpt lat="43.772464" lon="-7.683347">
        <ele>99.013</ele>
        <time>2019-06-20T11:00:46Z</time>
      </trkpt>
      <trkpt lat="43.772376" lon="-7.683276">
        <ele>97.789</ele>
        <time>2019-06-20T11:00:47Z</time>
      </trkpt>
      <trkpt lat="43.772294" lon="-7.683223">
        <ele>96.726</ele>
        <time>2019-06-20T11:00:48Z</time>
      </trkpt>
      <trkpt lat="43.772220" lon="-7.683187">
        <ele>95.957</ele>
        <time>2019-06-20T11:00:49Z</time>
      </trkpt>
      <trkpt lat="43.772151" lon="-7.683177">
        <ele>96.579</ele>
        <time>2019-06-20T11:00:50Z</time>
      </trkpt>
      <trkpt lat="43.772085" lon="-7.683198">
        <ele>97.596</ele>
        <time>2019-06-20T11:00:51Z</time>
      </trkpt>
      <trkpt lat="43.772010" lon="-7.683195">
        <ele>98.396</ele>
        <time>2019-06-20T11:00:53Z</time>
      </trkpt>
      <trkpt lat="43.771941" lon="-7.683200">
        <ele>99.131</ele>
        <time>2019-06-20T11:00:55Z</time>
      </trkpt>
      <trkpt lat="43.771887" lon="-7.683217">
        <ele>99.424</ele>
        <time>2019-06-20T11:01:25Z</time>
      </trkpt>
      <trkpt lat="43.771871" lon="-7.683284">
        <ele>100.308</ele>
        <time>2019-06-20T11:02:13Z</time>
      </trkpt>
      <trkpt lat="43.771801" lon="-7.683428">
        <ele>102.712</ele>
        <time>2019-06-20T11:02:15Z</time>
      </trkpt>
      <trkpt lat="43.771741" lon="-7.683497">
        <ele>103.956</ele>
        <time>2019-06-20T11:02:16Z</time>
      </trkpt>
      <trkpt lat="43.771673" lon="-7.683564">
        <ele>105.257</ele>
        <time>2019-06-20T11:02:17Z</time>
      </trkpt>
      <trkpt lat="43.771596" lon="-7.683646">
        <ele>106.663</ele>
        <time>2019-06-20T11:02:18Z</time>
      </trkpt>
      <trkpt lat="43.771509" lon="-7.683728">
        <ele>107.680</ele>
        <time>2019-06-20T11:02:19Z</time>
      </trkpt>
      <trkpt lat="43.771420" lon="-7.683820">
        <ele>108.521</ele>
        <time>2019-06-20T11:02:20Z</time>
      </trkpt>
      <trkpt lat="43.771325" lon="-7.683912">
        <ele>109.623</ele>
        <time>2019-06-20T11:02:21Z</time>
      </trkpt>
      <trkpt lat="43.771230" lon="-7.684016">
        <ele>110.840</ele>
        <time>2019-06-20T11:02:22Z</time>
      </trkpt>
      <trkpt lat="43.771138" lon="-7.684127">
        <ele>111.755</ele>
        <time>2019-06-20T11:02:23Z</time>
      </trkpt>
      <trkpt lat="43.771044" lon="-7.684224">
        <ele>112.807</ele>
        <time>2019-06-20T11:02:24Z</time>
      </trkpt>
      <trkpt lat="43.770948" lon="-7.684338">
        <ele>113.717</ele>
        <time>2019-06-20T11:02:25Z</time>
      </trkpt>
      <trkpt lat="43.770856" lon="-7.684446">
        <ele>114.008</ele>
        <time>2019-06-20T11:02:26Z</time>
      </trkpt>
      <trkpt lat="43.770765" lon="-7.684547">
        <ele>114.728</ele>
        <time>2019-06-20T11:02:27Z</time>
      </trkpt>
      <trkpt lat="43.770686" lon="-7.684645">
        <ele>115.622</ele>
        <time>2019-06-20T11:02:28Z</time>
      </trkpt>
      <trkpt lat="43.770616" lon="-7.684748">
        <ele>116.313</ele>
        <time>2019-06-20T11:02:29Z</time>
      </trkpt>
      <trkpt lat="43.770565" lon="-7.684866">
        <ele>116.429</ele>
        <time>2019-06-20T11:02:30Z</time>
      </trkpt>
      <trkpt lat="43.770534" lon="-7.684987">
        <ele>116.576</ele>
        <time>2019-06-20T11:02:31Z</time>
      </trkpt>
      <trkpt lat="43.770501" lon="-7.685110">
        <ele>116.257</ele>
        <time>2019-06-20T11:02:32Z</time>
      </trkpt>
      <trkpt lat="43.770452" lon="-7.685220">
        <ele>115.869</ele>
        <time>2019-06-20T11:02:33Z</time>
      </trkpt>
      <trkpt lat="43.770387" lon="-7.685297">
        <ele>115.676</ele>
        <time>2019-06-20T11:02:34Z</time>
      </trkpt>
      <trkpt lat="43.770306" lon="-7.685348">
        <ele>115.716</ele>
        <time>2019-06-20T11:02:35Z</time>
      </trkpt>
      <trkpt lat="43.770219" lon="-7.685369">
        <ele>116.376</ele>
        <time>2019-06-20T11:02:36Z</time>
      </trkpt>
      <trkpt lat="43.770131" lon="-7.685352">
        <ele>117.513</ele>
        <time>2019-06-20T11:02:37Z</time>
      </trkpt>
      <trkpt lat="43.770032" lon="-7.685301">
        <ele>119.308</ele>
        <time>2019-06-20T11:02:38Z</time>
      </trkpt>
      <trkpt lat="43.769925" lon="-7.685241">
        <ele>120.694</ele>
        <time>2019-06-20T11:02:39Z</time>
      </trkpt>
      <trkpt lat="43.769806" lon="-7.685175">
        <ele>121.628</ele>
        <time>2019-06-20T11:02:40Z</time>
      </trkpt>
      <trkpt lat="43.769676" lon="-7.685104">
        <ele>122.639</ele>
        <time>2019-06-20T11:02:41Z</time>
      </trkpt>
      <trkpt lat="43.769536" lon="-7.685027">
        <ele>123.795</ele>
        <time>2019-06-20T11:02:42Z</time>
      </trkpt>
      <trkpt lat="43.769400" lon="-7.684965">
        <ele>125.122</ele>
        <time>2019-06-20T11:02:43Z</time>
      </trkpt>
      <trkpt lat="43.769254" lon="-7.684936">
        <ele>127.273</ele>
        <time>2019-06-20T11:02:44Z</time>
      </trkpt>
      <trkpt lat="43.769088" lon="-7.684932">
        <ele>128.835</ele>
        <time>2019-06-20T11:02:45Z</time>
      </trkpt>
      <trkpt lat="43.768928" lon="-7.684948">
        <ele>129.712</ele>
        <time>2019-06-20T11:02:46Z</time>
      </trkpt>
      <trkpt lat="43.768763" lon="-7.684957">
        <ele>131.164</ele>
        <time>2019-06-20T11:02:47Z</time>
      </trkpt>
      <trkpt lat="43.768591" lon="-7.684968">
        <ele>132.506</ele>
        <time>2019-06-20T11:02:48Z</time>
      </trkpt>
      <trkpt lat="43.768431" lon="-7.684986">
        <ele>132.216</ele>
        <time>2019-06-20T11:02:49Z</time>
      </trkpt>
      <trkpt lat="43.768281" lon="-7.684995">
        <ele>132.408</ele>
        <time>2019-06-20T11:02:50Z</time>
      </trkpt>
      <trkpt lat="43.768141" lon="-7.685007">
        <ele>133.479</ele>
        <time>2019-06-20T11:02:51Z</time>
      </trkpt>
      <trkpt lat="43.768008" lon="-7.685020">
        <ele>135.133</ele>
        <time>2019-06-20T11:02:52Z</time>
      </trkpt>
      <trkpt lat="43.767873" lon="-7.685054">
        <ele>138.254</ele>
        <time>2019-06-20T11:02:53Z</time>
      </trkpt>
      <trkpt lat="43.767755" lon="-7.685115">
        <ele>140.390</ele>
        <time>2019-06-20T11:02:54Z</time>
      </trkpt>
      <trkpt lat="43.767648" lon="-7.685261">
        <ele>141.017</ele>
        <time>2019-06-20T11:02:55Z</time>
      </trkpt>
      <trkpt lat="43.767546" lon="-7.685412">
        <ele>141.638</ele>
        <time>2019-06-20T11:02:56Z</time>
      </trkpt>
      <trkpt lat="43.767443" lon="-7.685562">
        <ele>142.420</ele>
        <time>2019-06-20T11:02:57Z</time>
      </trkpt>
      <trkpt lat="43.767330" lon="-7.685711">
        <ele>144.037</ele>
        <time>2019-06-20T11:02:58Z</time>
      </trkpt>
      <trkpt lat="43.767228" lon="-7.685867">
        <ele>144.855</ele>
        <time>2019-06-20T11:02:59Z</time>
      </trkpt>
      <trkpt lat="43.767130" lon="-7.686007">
        <ele>145.707</ele>
        <time>2019-06-20T11:03:00Z</time>
      </trkpt>
      <trkpt lat="43.767033" lon="-7.686143">
        <ele>145.917</ele>
        <time>2019-06-20T11:03:01Z</time>
      </trkpt>
      <trkpt lat="43.766915" lon="-7.686263">
        <ele>146.808</ele>
        <time>2019-06-20T11:03:02Z</time>
      </trkpt>
      <trkpt lat="43.766792" lon="-7.686364">
        <ele>147.728</ele>
        <time>2019-06-20T11:03:03Z</time>
      </trkpt>
      <trkpt lat="43.766656" lon="-7.686449">
        <ele>149.112</ele>
        <time>2019-06-20T11:03:04Z</time>
      </trkpt>
      <trkpt lat="43.766507" lon="-7.686529">
        <ele>151.043</ele>
        <time>2019-06-20T11:03:05Z</time>
      </trkpt>
      <trkpt lat="43.766347" lon="-7.686601">
        <ele>152.699</ele>
        <time>2019-06-20T11:03:06Z</time>
      </trkpt>
      <trkpt lat="43.766182" lon="-7.686665">
        <ele>153.546</ele>
        <time>2019-06-20T11:03:07Z</time>
      </trkpt>
      <trkpt lat="43.766016" lon="-7.686735">
        <ele>154.727</ele>
        <time>2019-06-20T11:03:08Z</time>
      </trkpt>
      <trkpt lat="43.765841" lon="-7.686792">
        <ele>156.079</ele>
        <time>2019-06-20T11:03:09Z</time>
      </trkpt>
      <trkpt lat="43.765674" lon="-7.686849">
        <ele>159.186</ele>
        <time>2019-06-20T11:03:10Z</time>
      </trkpt>
      <trkpt lat="43.765492" lon="-7.686908">
        <ele>161.663</ele>
        <time>2019-06-20T11:03:11Z</time>
      </trkpt>
      <trkpt lat="43.765329" lon="-7.686980">
        <ele>161.844</ele>
        <time>2019-06-20T11:03:12Z</time>
      </trkpt>
      <trkpt lat="43.765159" lon="-7.687056">
        <ele>162.518</ele>
        <time>2019-06-20T11:03:13Z</time>
      </trkpt>
      <trkpt lat="43.765001" lon="-7.687119">
        <ele>162.708</ele>
        <time>2019-06-20T11:03:14Z</time>
      </trkpt>
      <trkpt lat="43.764850" lon="-7.687177">
        <ele>163.379</ele>
        <time>2019-06-20T11:03:15Z</time>
      </trkpt>
      <trkpt lat="43.764702" lon="-7.687233">
        <ele>164.353</ele>
        <time>2019-06-20T11:03:16Z</time>
      </trkpt>
      <trkpt lat="43.764555" lon="-7.687284">
        <ele>165.724</ele>
        <time>2019-06-20T11:03:17Z</time>
      </trkpt>
      <trkpt lat="43.764406" lon="-7.687328">
        <ele>166.940</ele>
        <time>2019-06-20T11:03:18Z</time>
      </trkpt>
      <trkpt lat="43.764272" lon="-7.687374">
        <ele>167.727</ele>
        <time>2019-06-20T11:03:19Z</time>
      </trkpt>
      <trkpt lat="43.764149" lon="-7.687419">
        <ele>168.488</ele>
        <time>2019-06-20T11:03:20Z</time>
      </trkpt>
      <trkpt lat="43.764027" lon="-7.687460">
        <ele>168.250</ele>
        <time>2019-06-20T11:03:21Z</time>
      </trkpt>
      <trkpt lat="43.763908" lon="-7.687498">
        <ele>168.147</ele>
        <time>2019-06-20T11:03:22Z</time>
      </trkpt>
      <trkpt lat="43.763796" lon="-7.687541">
        <ele>168.742</ele>
        <time>2019-06-20T11:03:23Z</time>
      </trkpt>
      <trkpt lat="43.763691" lon="-7.687578">
        <ele>169.422</ele>
        <time>2019-06-20T11:03:24Z</time>
      </trkpt>
      <trkpt lat="43.763583" lon="-7.687632">
        <ele>170.514</ele>
        <time>2019-06-20T11:03:25Z</time>
      </trkpt>
      <trkpt lat="43.763464" lon="-7.687699">
        <ele>172.108</ele>
        <time>2019-06-20T11:03:26Z</time>
      </trkpt>
      <trkpt lat="43.763344" lon="-7.687805">
        <ele>174.467</ele>
        <time>2019-06-20T11:03:27Z</time>
      </trkpt>
      <trkpt lat="43.763221" lon="-7.687926">
        <ele>176.741</ele>
        <time>2019-06-20T11:03:28Z</time>
      </trkpt>
      <trkpt lat="43.763098" lon="-7.688042">
        <ele>179.552</ele>
        <time>2019-06-20T11:03:29Z</time>
      </trkpt>
      <trkpt lat="43.762972" lon="-7.688157">
        <ele>180.498</ele>
        <time>2019-06-20T11:03:30Z</time>
      </trkpt>
      <trkpt lat="43.762861" lon="-7.688284">
        <ele>181.175</ele>
        <time>2019-06-20T11:03:31Z</time>
      </trkpt>
      <trkpt lat="43.762746" lon="-7.688402">
        <ele>180.636</ele>
        <time>2019-06-20T11:03:32Z</time>
      </trkpt>
      <trkpt lat="43.762638" lon="-7.688538">
        <ele>179.118</ele>
        <time>2019-06-20T11:03:33Z</time>
      </trkpt>
      <trkpt lat="43.762528" lon="-7.688675">
        <ele>178.895</ele>
        <time>2019-06-20T11:03:34Z</time>
      </trkpt>
      <trkpt lat="43.762441" lon="-7.688839">
        <ele>178.841</ele>
        <time>2019-06-20T11:03:35Z</time>
      </trkpt>
      <trkpt lat="43.762351" lon="-7.689002">
        <ele>178.181</ele>
        <time>2019-06-20T11:03:36Z</time>
      </trkpt>
      <trkpt lat="43.762278" lon="-7.689165">
        <ele>177.609</ele>
        <time>2019-06-20T11:03:37Z</time>
      </trkpt>
      <trkpt lat="43.762201" lon="-7.689320">
        <ele>177.008</ele>
        <time>2019-06-20T11:03:38Z</time>
      </trkpt>
      <trkpt lat="43.762143" lon="-7.689472">
        <ele>177.227</ele>
        <time>2019-06-20T11:03:39Z</time>
      </trkpt>
      <trkpt lat="43.762081" lon="-7.689614">
        <ele>176.991</ele>
        <time>2019-06-20T11:03:40Z</time>
      </trkpt>
      <trkpt lat="43.762021" lon="-7.689751">
        <ele>177.022</ele>
        <time>2019-06-20T11:03:41Z</time>
      </trkpt>
      <trkpt lat="43.761961" lon="-7.689870">
        <ele>177.298</ele>
        <time>2019-06-20T11:03:42Z</time>
      </trkpt>
      <trkpt lat="43.761908" lon="-7.689968">
        <ele>177.625</ele>
        <time>2019-06-20T11:03:43Z</time>
      </trkpt>
      <trkpt lat="43.761838" lon="-7.690035">
        <ele>177.566</ele>
        <time>2019-06-20T11:03:44Z</time>
      </trkpt>
      <trkpt lat="43.761734" lon="-7.690118">
        <ele>177.578</ele>
        <time>2019-06-20T11:03:45Z</time>
      </trkpt>
      <trkpt lat="43.761650" lon="-7.690166">
        <ele>177.325</ele>
        <time>2019-06-20T11:03:46Z</time>
      </trkpt>
      <trkpt lat="43.761549" lon="-7.690182">
        <ele>175.074</ele>
        <time>2019-06-20T11:03:47Z</time>
      </trkpt>
      <trkpt lat="43.761430" lon="-7.690210">
        <ele>172.456</ele>
        <time>2019-06-20T11:03:48Z</time>
      </trkpt>
      <trkpt lat="43.761307" lon="-7.690192">
        <ele>169.521</ele>
        <time>2019-06-20T11:03:49Z</time>
      </trkpt>
      <trkpt lat="43.761165" lon="-7.690245">
        <ele>168.208</ele>
        <time>2019-06-20T11:03:50Z</time>
      </trkpt>
      <trkpt lat="43.761049" lon="-7.690331">
        <ele>168.640</ele>
        <time>2019-06-20T11:03:51Z</time>
      </trkpt>
      <trkpt lat="43.760920" lon="-7.690412">
        <ele>168.774</ele>
        <time>2019-06-20T11:03:52Z</time>
      </trkpt>
      <trkpt lat="43.760798" lon="-7.690494">
        <ele>168.275</ele>
        <time>2019-06-20T11:03:53Z</time>
      </trkpt>
      <trkpt lat="43.760662" lon="-7.690562">
        <ele>166.421</ele>
        <time>2019-06-20T11:03:54Z</time>
      </trkpt>
      <trkpt lat="43.760545" lon="-7.690668">
        <ele>164.628</ele>
        <time>2019-06-20T11:03:55Z</time>
      </trkpt>
      <trkpt lat="43.760482" lon="-7.690845">
        <ele>164.259</ele>
        <time>2019-06-20T11:03:56Z</time>
      </trkpt>
      <trkpt lat="43.760401" lon="-7.690988">
        <ele>162.621</ele>
        <time>2019-06-20T11:03:57Z</time>
      </trkpt>
      <trkpt lat="43.760318" lon="-7.691146">
        <ele>160.538</ele>
        <time>2019-06-20T11:03:58Z</time>
      </trkpt>
      <trkpt lat="43.760229" lon="-7.691260">
        <ele>157.827</ele>
        <time>2019-06-20T11:03:59Z</time>
      </trkpt>
      <trkpt lat="43.760159" lon="-7.691436">
        <ele>155.868</ele>
        <time>2019-06-20T11:04:00Z</time>
      </trkpt>
      <trkpt lat="43.760070" lon="-7.691673">
        <ele>154.414</ele>
        <time>2019-06-20T11:04:01Z</time>
      </trkpt>
      <trkpt lat="43.759989" lon="-7.691900">
        <ele>154.908</ele>
        <time>2019-06-20T11:04:02Z</time>
      </trkpt>
      <trkpt lat="43.759904" lon="-7.692139">
        <ele>156.895</ele>
        <time>2019-06-20T11:04:03Z</time>
      </trkpt>
      <trkpt lat="43.759853" lon="-7.692395">
        <ele>158.659</ele>
        <time>2019-06-20T11:04:04Z</time>
      </trkpt>
      <trkpt lat="43.759776" lon="-7.692640">
        <ele>158.550</ele>
        <time>2019-06-20T11:04:05Z</time>
      </trkpt>
      <trkpt lat="43.759680" lon="-7.692872">
        <ele>156.796</ele>
        <time>2019-06-20T11:04:06Z</time>
      </trkpt>
      <trkpt lat="43.759611" lon="-7.693110">
        <ele>155.493</ele>
        <time>2019-06-20T11:04:07Z</time>
      </trkpt>
      <trkpt lat="43.759546" lon="-7.693321">
        <ele>154.594</ele>
        <time>2019-06-20T11:04:08Z</time>
      </trkpt>
      <trkpt lat="43.759490" lon="-7.693506">
        <ele>155.076</ele>
        <time>2019-06-20T11:04:09Z</time>
      </trkpt>
      <trkpt lat="43.759401" lon="-7.693712">
        <ele>154.473</ele>
        <time>2019-06-20T11:04:10Z</time>
      </trkpt>
      <trkpt lat="43.759328" lon="-7.693913">
        <ele>154.358</ele>
        <time>2019-06-20T11:04:11Z</time>
      </trkpt>
      <trkpt lat="43.759260" lon="-7.694113">
        <ele>154.552</ele>
        <time>2019-06-20T11:04:12Z</time>
      </trkpt>
      <trkpt lat="43.759184" lon="-7.694306">
        <ele>154.317</ele>
        <time>2019-06-20T11:04:13Z</time>
      </trkpt>
      <trkpt lat="43.759107" lon="-7.694503">
        <ele>153.408</ele>
        <time>2019-06-20T11:04:14Z</time>
      </trkpt>
      <trkpt lat="43.759008" lon="-7.694671">
        <ele>151.638</ele>
        <time>2019-06-20T11:04:15Z</time>
      </trkpt>
      <trkpt lat="43.758892" lon="-7.694832">
        <ele>151.822</ele>
        <time>2019-06-20T11:04:16Z</time>
      </trkpt>
      <trkpt lat="43.758759" lon="-7.694990">
        <ele>152.943</ele>
        <time>2019-06-20T11:04:17Z</time>
      </trkpt>
      <trkpt lat="43.758637" lon="-7.695141">
        <ele>155.719</ele>
        <time>2019-06-20T11:04:18Z</time>
      </trkpt>
      <trkpt lat="43.758497" lon="-7.695278">
        <ele>157.186</ele>
        <time>2019-06-20T11:04:19Z</time>
      </trkpt>
      <trkpt lat="43.758348" lon="-7.695417">
        <ele>157.417</ele>
        <time>2019-06-20T11:04:20Z</time>
      </trkpt>
      <trkpt lat="43.758185" lon="-7.695555">
        <ele>158.839</ele>
        <time>2019-06-20T11:04:21Z</time>
      </trkpt>
      <trkpt lat="43.758033" lon="-7.695693">
        <ele>160.656</ele>
        <time>2019-06-20T11:04:22Z</time>
      </trkpt>
      <trkpt lat="43.757860" lon="-7.695791">
        <ele>159.849</ele>
        <time>2019-06-20T11:04:23Z</time>
      </trkpt>
      <trkpt lat="43.757700" lon="-7.695889">
        <ele>157.702</ele>
        <time>2019-06-20T11:04:24Z</time>
      </trkpt>
      <trkpt lat="43.757580" lon="-7.695992">
        <ele>156.722</ele>
        <time>2019-06-20T11:04:25Z</time>
      </trkpt>
      <trkpt lat="43.757447" lon="-7.696093">
        <ele>156.708</ele>
        <time>2019-06-20T11:04:26Z</time>
      </trkpt>
      <trkpt lat="43.757299" lon="-7.696167">
        <ele>156.667</ele>
        <time>2019-06-20T11:04:27Z</time>
      </trkpt>
      <trkpt lat="43.757153" lon="-7.696236">
        <ele>156.541</ele>
        <time>2019-06-20T11:04:28Z</time>
      </trkpt>
      <trkpt lat="43.757007" lon="-7.696287">
        <ele>156.422</ele>
        <time>2019-06-20T11:04:29Z</time>
      </trkpt>
      <trkpt lat="43.756850" lon="-7.696304">
        <ele>155.518</ele>
        <time>2019-06-20T11:04:30Z</time>
      </trkpt>
      <trkpt lat="43.756707" lon="-7.696318">
        <ele>154.885</ele>
        <time>2019-06-20T11:04:31Z</time>
      </trkpt>
      <trkpt lat="43.756558" lon="-7.696318">
        <ele>153.416</ele>
        <time>2019-06-20T11:04:32Z</time>
      </trkpt>
      <trkpt lat="43.756427" lon="-7.696353">
        <ele>152.738</ele>
        <time>2019-06-20T11:04:33Z</time>
      </trkpt>
      <trkpt lat="43.756310" lon="-7.696407">
        <ele>151.735</ele>
        <time>2019-06-20T11:04:34Z</time>
      </trkpt>
      <trkpt lat="43.756216" lon="-7.696484">
        <ele>151.312</ele>
        <time>2019-06-20T11:04:35Z</time>
      </trkpt>
      <trkpt lat="43.756129" lon="-7.696597">
        <ele>151.932</ele>
        <time>2019-06-20T11:04:36Z</time>
      </trkpt>
      <trkpt lat="43.756016" lon="-7.696800">
        <ele>153.005</ele>
        <time>2019-06-20T11:04:37Z</time>
      </trkpt>
      <trkpt lat="43.755892" lon="-7.696957">
        <ele>152.708</ele>
        <time>2019-06-20T11:04:38Z</time>
      </trkpt>
      <trkpt lat="43.755775" lon="-7.697148">
        <ele>153.764</ele>
        <time>2019-06-20T11:04:39Z</time>
      </trkpt>
      <trkpt lat="43.755659" lon="-7.697325">
        <ele>153.498</ele>
        <time>2019-06-20T11:04:40Z</time>
      </trkpt>
      <trkpt lat="43.755554" lon="-7.697494">
        <ele>151.019</ele>
        <time>2019-06-20T11:04:41Z</time>
      </trkpt>
      <trkpt lat="43.755436" lon="-7.697657">
        <ele>150.225</ele>
        <time>2019-06-20T11:04:42Z</time>
      </trkpt>
      <trkpt lat="43.755364" lon="-7.697822">
        <ele>149.732</ele>
        <time>2019-06-20T11:04:43Z</time>
      </trkpt>
      <trkpt lat="43.755288" lon="-7.697973">
        <ele>148.933</ele>
        <time>2019-06-20T11:04:44Z</time>
      </trkpt>
      <trkpt lat="43.755217" lon="-7.698129">
        <ele>148.815</ele>
        <time>2019-06-20T11:04:45Z</time>
      </trkpt>
      <trkpt lat="43.755144" lon="-7.698290">
        <ele>148.872</ele>
        <time>2019-06-20T11:04:46Z</time>
      </trkpt>
      <trkpt lat="43.755059" lon="-7.698427">
        <ele>148.644</ele>
        <time>2019-06-20T11:04:47Z</time>
      </trkpt>
      <trkpt lat="43.754963" lon="-7.698551">
        <ele>148.205</ele>
        <time>2019-06-20T11:04:48Z</time>
      </trkpt>
      <trkpt lat="43.754860" lon="-7.698681">
        <ele>149.515</ele>
        <time>2019-06-20T11:04:49Z</time>
      </trkpt>
      <trkpt lat="43.754731" lon="-7.698797">
        <ele>151.708</ele>
        <time>2019-06-20T11:04:50Z</time>
      </trkpt>
      <trkpt lat="43.754596" lon="-7.698907">
        <ele>152.097</ele>
        <time>2019-06-20T11:04:51Z</time>
      </trkpt>
      <trkpt lat="43.754445" lon="-7.698994">
        <ele>151.311</ele>
        <time>2019-06-20T11:04:52Z</time>
      </trkpt>
      <trkpt lat="43.754295" lon="-7.699103">
        <ele>150.412</ele>
        <time>2019-06-20T11:04:53Z</time>
      </trkpt>
      <trkpt lat="43.754105" lon="-7.699163">
        <ele>147.828</ele>
        <time>2019-06-20T11:04:54Z</time>
      </trkpt>
      <trkpt lat="43.753956" lon="-7.699283">
        <ele>147.055</ele>
        <time>2019-06-20T11:04:55Z</time>
      </trkpt>
      <trkpt lat="43.753786" lon="-7.699376">
        <ele>144.466</ele>
        <time>2019-06-20T11:04:56Z</time>
      </trkpt>
      <trkpt lat="43.753636" lon="-7.699477">
        <ele>142.138</ele>
        <time>2019-06-20T11:04:57Z</time>
      </trkpt>
      <trkpt lat="43.753510" lon="-7.699552">
        <ele>140.525</ele>
        <time>2019-06-20T11:04:58Z</time>
      </trkpt>
      <trkpt lat="43.753375" lon="-7.699648">
        <ele>139.553</ele>
        <time>2019-06-20T11:04:59Z</time>
      </trkpt>
      <trkpt lat="43.753266" lon="-7.699705">
        <ele>139.404</ele>
        <time>2019-06-20T11:05:00Z</time>
      </trkpt>
      <trkpt lat="43.753159" lon="-7.699785">
        <ele>141.014</ele>
        <time>2019-06-20T11:05:01Z</time>
      </trkpt>
      <trkpt lat="43.753055" lon="-7.699826">
        <ele>141.608</ele>
        <time>2019-06-20T11:05:02Z</time>
      </trkpt>
      <trkpt lat="43.752962" lon="-7.699825">
        <ele>142.088</ele>
        <time>2019-06-20T11:05:03Z</time>
      </trkpt>
      <trkpt lat="43.752858" lon="-7.699792">
        <ele>141.892</ele>
        <time>2019-06-20T11:05:04Z</time>
      </trkpt>
      <trkpt lat="43.752775" lon="-7.699704">
        <ele>140.763</ele>
        <time>2019-06-20T11:05:05Z</time>
      </trkpt>
      <trkpt lat="43.752691" lon="-7.699613">
        <ele>140.389</ele>
        <time>2019-06-20T11:05:06Z</time>
      </trkpt>
      <trkpt lat="43.752654" lon="-7.699441">
        <ele>137.666</ele>
        <time>2019-06-20T11:05:07Z</time>
      </trkpt>
      <trkpt lat="43.752601" lon="-7.699281">
        <ele>136.317</ele>
        <time>2019-06-20T11:05:08Z</time>
      </trkpt>
      <trkpt lat="43.752541" lon="-7.699120">
        <ele>135.379</ele>
        <time>2019-06-20T11:05:09Z</time>
      </trkpt>
      <trkpt lat="43.752477" lon="-7.698968">
        <ele>134.416</ele>
        <time>2019-06-20T11:05:10Z</time>
      </trkpt>
      <trkpt lat="43.752408" lon="-7.698830">
        <ele>133.228</ele>
        <time>2019-06-20T11:05:11Z</time>
      </trkpt>
      <trkpt lat="43.752313" lon="-7.698683">
        <ele>132.689</ele>
        <time>2019-06-20T11:05:12Z</time>
      </trkpt>
      <trkpt lat="43.752190" lon="-7.698517">
        <ele>132.517</ele>
        <time>2019-06-20T11:05:13Z</time>
      </trkpt>
      <trkpt lat="43.752038" lon="-7.698407">
        <ele>133.608</ele>
        <time>2019-06-20T11:05:14Z</time>
      </trkpt>
      <trkpt lat="43.751920" lon="-7.698287">
        <ele>133.695</ele>
        <time>2019-06-20T11:05:15Z</time>
      </trkpt>
      <trkpt lat="43.751822" lon="-7.698164">
        <ele>132.319</ele>
        <time>2019-06-20T11:05:16Z</time>
      </trkpt>
      <trkpt lat="43.751706" lon="-7.698097">
        <ele>131.690</ele>
        <time>2019-06-20T11:05:17Z</time>
      </trkpt>
      <trkpt lat="43.751549" lon="-7.698058">
        <ele>130.276</ele>
        <time>2019-06-20T11:05:18Z</time>
      </trkpt>
      <trkpt lat="43.751383" lon="-7.698037">
        <ele>128.773</ele>
        <time>2019-06-20T11:05:19Z</time>
      </trkpt>
      <trkpt lat="43.751182" lon="-7.698111">
        <ele>130.014</ele>
        <time>2019-06-20T11:05:20Z</time>
      </trkpt>
      <trkpt lat="43.751032" lon="-7.698225">
        <ele>132.796</ele>
        <time>2019-06-20T11:05:21Z</time>
      </trkpt>
      <trkpt lat="43.750886" lon="-7.698243">
        <ele>134.323</ele>
        <time>2019-06-20T11:05:22Z</time>
      </trkpt>
      <trkpt lat="43.750742" lon="-7.698260">
        <ele>135.792</ele>
        <time>2019-06-20T11:05:23Z</time>
      </trkpt>
      <trkpt lat="43.750632" lon="-7.698332">
        <ele>137.773</ele>
        <time>2019-06-20T11:05:24Z</time>
      </trkpt>
      <trkpt lat="43.750468" lon="-7.698218">
        <ele>135.920</ele>
        <time>2019-06-20T11:05:25Z</time>
      </trkpt>
      <trkpt lat="43.750339" lon="-7.698198">
        <ele>135.608</ele>
        <time>2019-06-20T11:05:26Z</time>
      </trkpt>
      <trkpt lat="43.750156" lon="-7.698085">
        <ele>133.442</ele>
        <time>2019-06-20T11:05:27Z</time>
      </trkpt>
      <trkpt lat="43.749989" lon="-7.697995">
        <ele>132.916</ele>
        <time>2019-06-20T11:05:28Z</time>
      </trkpt>
      <trkpt lat="43.749825" lon="-7.697905">
        <ele>134.047</ele>
        <time>2019-06-20T11:05:29Z</time>
      </trkpt>
      <trkpt lat="43.749654" lon="-7.697836">
        <ele>135.473</ele>
        <time>2019-06-20T11:05:30Z</time>
      </trkpt>
      <trkpt lat="43.749496" lon="-7.697751">
        <ele>137.140</ele>
        <time>2019-06-20T11:05:31Z</time>
      </trkpt>
      <trkpt lat="43.749340" lon="-7.697660">
        <ele>138.911</ele>
        <time>2019-06-20T11:05:32Z</time>
      </trkpt>
      <trkpt lat="43.749201" lon="-7.697598">
        <ele>140.353</ele>
        <time>2019-06-20T11:05:33Z</time>
      </trkpt>
      <trkpt lat="43.749068" lon="-7.697516">
        <ele>141.670</ele>
        <time>2019-06-20T11:05:34Z</time>
      </trkpt>
      <trkpt lat="43.748942" lon="-7.697438">
        <ele>142.627</ele>
        <time>2019-06-20T11:05:35Z</time>
      </trkpt>
      <trkpt lat="43.748823" lon="-7.697310">
        <ele>144.468</ele>
        <time>2019-06-20T11:05:36Z</time>
      </trkpt>
      <trkpt lat="43.748749" lon="-7.697172">
        <ele>145.414</ele>
        <time>2019-06-20T11:05:37Z</time>
      </trkpt>
      <trkpt lat="43.748648" lon="-7.696969">
        <ele>146.108</ele>
        <time>2019-06-20T11:05:38Z</time>
      </trkpt>
      <trkpt lat="43.748577" lon="-7.696769">
        <ele>146.365</ele>
        <time>2019-06-20T11:05:39Z</time>
      </trkpt>
      <trkpt lat="43.748524" lon="-7.696544">
        <ele>146.129</ele>
        <time>2019-06-20T11:05:40Z</time>
      </trkpt>
      <trkpt lat="43.748449" lon="-7.696334">
        <ele>146.040</ele>
        <time>2019-06-20T11:05:41Z</time>
      </trkpt>
      <trkpt lat="43.748358" lon="-7.696125">
        <ele>145.586</ele>
        <time>2019-06-20T11:05:42Z</time>
      </trkpt>
      <trkpt lat="43.748247" lon="-7.695951">
        <ele>146.983</ele>
        <time>2019-06-20T11:05:43Z</time>
      </trkpt>
      <trkpt lat="43.748135" lon="-7.695795">
        <ele>149.784</ele>
        <time>2019-06-20T11:05:44Z</time>
      </trkpt>
      <trkpt lat="43.748040" lon="-7.695658">
        <ele>152.146</ele>
        <time>2019-06-20T11:05:45Z</time>
      </trkpt>
      <trkpt lat="43.747918" lon="-7.695536">
        <ele>155.173</ele>
        <time>2019-06-20T11:05:46Z</time>
      </trkpt>
      <trkpt lat="43.747797" lon="-7.695422">
        <ele>157.499</ele>
        <time>2019-06-20T11:05:47Z</time>
      </trkpt>
      <trkpt lat="43.747661" lon="-7.695328">
        <ele>158.707</ele>
        <time>2019-06-20T11:05:48Z</time>
      </trkpt>
      <trkpt lat="43.747515" lon="-7.695237">
        <ele>159.827</ele>
        <time>2019-06-20T11:05:49Z</time>
      </trkpt>
      <trkpt lat="43.747333" lon="-7.695139">
        <ele>161.608</ele>
        <time>2019-06-20T11:05:50Z</time>
      </trkpt>
      <trkpt lat="43.747162" lon="-7.695018">
        <ele>161.872</ele>
        <time>2019-06-20T11:05:51Z</time>
      </trkpt>
      <trkpt lat="43.746974" lon="-7.694894">
        <ele>160.256</ele>
        <time>2019-06-20T11:05:52Z</time>
      </trkpt>
      <trkpt lat="43.746836" lon="-7.694715">
        <ele>153.277</ele>
        <time>2019-06-20T11:05:53Z</time>
      </trkpt>
      <trkpt lat="43.746693" lon="-7.694562">
        <ele>148.183</ele>
        <time>2019-06-20T11:05:54Z</time>
      </trkpt>
      <trkpt lat="43.746558" lon="-7.694430">
        <ele>144.190</ele>
        <time>2019-06-20T11:05:55Z</time>
      </trkpt>
      <trkpt lat="43.746423" lon="-7.694301">
        <ele>142.451</ele>
        <time>2019-06-20T11:05:56Z</time>
      </trkpt>
      <trkpt lat="43.746299" lon="-7.694179">
        <ele>141.963</ele>
        <time>2019-06-20T11:05:57Z</time>
      </trkpt>
      <trkpt lat="43.746176" lon="-7.694056">
        <ele>140.390</ele>
        <time>2019-06-20T11:05:58Z</time>
      </trkpt>
      <trkpt lat="43.746057" lon="-7.693938">
        <ele>138.655</ele>
        <time>2019-06-20T11:05:59Z</time>
      </trkpt>
      <trkpt lat="43.745928" lon="-7.693815">
        <ele>137.907</ele>
        <time>2019-06-20T11:06:00Z</time>
      </trkpt>
      <trkpt lat="43.745792" lon="-7.693682">
        <ele>135.917</ele>
        <time>2019-06-20T11:06:01Z</time>
      </trkpt>
      <trkpt lat="43.745651" lon="-7.693559">
        <ele>136.308</ele>
        <time>2019-06-20T11:06:02Z</time>
      </trkpt>
      <trkpt lat="43.745512" lon="-7.693443">
        <ele>136.948</ele>
        <time>2019-06-20T11:06:03Z</time>
      </trkpt>
      <trkpt lat="43.745359" lon="-7.693329">
        <ele>135.862</ele>
        <time>2019-06-20T11:06:04Z</time>
      </trkpt>
      <trkpt lat="43.745181" lon="-7.693292">
        <ele>138.943</ele>
        <time>2019-06-20T11:06:05Z</time>
      </trkpt>
      <trkpt lat="43.745037" lon="-7.693238">
        <ele>140.539</ele>
        <time>2019-06-20T11:06:06Z</time>
      </trkpt>
      <trkpt lat="43.744872" lon="-7.693198">
        <ele>139.066</ele>
        <time>2019-06-20T11:06:07Z</time>
      </trkpt>
      <trkpt lat="43.744722" lon="-7.693161">
        <ele>136.417</ele>
        <time>2019-06-20T11:06:08Z</time>
      </trkpt>
      <trkpt lat="43.744599" lon="-7.693147">
        <ele>133.699</ele>
        <time>2019-06-20T11:06:09Z</time>
      </trkpt>
      <trkpt lat="43.744480" lon="-7.693114">
        <ele>130.716</ele>
        <time>2019-06-20T11:06:10Z</time>
      </trkpt>
      <trkpt lat="43.744367" lon="-7.693126">
        <ele>128.526</ele>
        <time>2019-06-20T11:06:11Z</time>
      </trkpt>
      <trkpt lat="43.744268" lon="-7.693235">
        <ele>128.047</ele>
        <time>2019-06-20T11:06:12Z</time>
      </trkpt>
      <trkpt lat="43.744159" lon="-7.693355">
        <ele>127.211</ele>
        <time>2019-06-20T11:06:13Z</time>
      </trkpt>
      <trkpt lat="43.744066" lon="-7.693510">
        <ele>127.508</ele>
        <time>2019-06-20T11:06:14Z</time>
      </trkpt>
      <trkpt lat="43.743969" lon="-7.693668">
        <ele>127.155</ele>
        <time>2019-06-20T11:06:15Z</time>
      </trkpt>
      <trkpt lat="43.743871" lon="-7.693820">
        <ele>126.939</ele>
        <time>2019-06-20T11:06:16Z</time>
      </trkpt>
      <trkpt lat="43.743785" lon="-7.693982">
        <ele>127.070</ele>
        <time>2019-06-20T11:06:17Z</time>
      </trkpt>
      <trkpt lat="43.743707" lon="-7.694168">
        <ele>127.556</ele>
        <time>2019-06-20T11:06:18Z</time>
      </trkpt>
      <trkpt lat="43.743640" lon="-7.694372">
        <ele>131.683</ele>
        <time>2019-06-20T11:06:19Z</time>
      </trkpt>
      <trkpt lat="43.743579" lon="-7.694591">
        <ele>133.724</ele>
        <time>2019-06-20T11:06:20Z</time>
      </trkpt>
      <trkpt lat="43.743554" lon="-7.694832">
        <ele>136.096</ele>
        <time>2019-06-20T11:06:21Z</time>
      </trkpt>
      <trkpt lat="43.743532" lon="-7.695064">
        <ele>136.923</ele>
        <time>2019-06-20T11:06:22Z</time>
      </trkpt>
      <trkpt lat="43.743506" lon="-7.695291">
        <ele>136.798</ele>
        <time>2019-06-20T11:06:23Z</time>
      </trkpt>
      <trkpt lat="43.743462" lon="-7.695527">
        <ele>136.715</ele>
        <time>2019-06-20T11:06:24Z</time>
      </trkpt>
      <trkpt lat="43.743398" lon="-7.695758">
        <ele>135.326</ele>
        <time>2019-06-20T11:06:25Z</time>
      </trkpt>
      <trkpt lat="43.743315" lon="-7.695982">
        <ele>133.908</ele>
        <time>2019-06-20T11:06:26Z</time>
      </trkpt>
      <trkpt lat="43.743219" lon="-7.696178">
        <ele>132.492</ele>
        <time>2019-06-20T11:06:27Z</time>
      </trkpt>
      <trkpt lat="43.743122" lon="-7.696350">
        <ele>130.136</ele>
        <time>2019-06-20T11:06:28Z</time>
      </trkpt>
      <trkpt lat="43.743038" lon="-7.696541">
        <ele>127.427</ele>
        <time>2019-06-20T11:06:29Z</time>
      </trkpt>
      <trkpt lat="43.742982" lon="-7.696744">
        <ele>125.333</ele>
        <time>2019-06-20T11:06:30Z</time>
      </trkpt>
      <trkpt lat="43.742938" lon="-7.696968">
        <ele>123.340</ele>
        <time>2019-06-20T11:06:31Z</time>
      </trkpt>
      <trkpt lat="43.742916" lon="-7.697209">
        <ele>123.441</ele>
        <time>2019-06-20T11:06:32Z</time>
      </trkpt>
      <trkpt lat="43.742894" lon="-7.697453">
        <ele>126.143</ele>
        <time>2019-06-20T11:06:33Z</time>
      </trkpt>
      <trkpt lat="43.742859" lon="-7.697697">
        <ele>127.930</ele>
        <time>2019-06-20T11:06:34Z</time>
      </trkpt>
      <trkpt lat="43.742804" lon="-7.697942">
        <ele>127.052</ele>
        <time>2019-06-20T11:06:35Z</time>
      </trkpt>
      <trkpt lat="43.742726" lon="-7.698174">
        <ele>125.753</ele>
        <time>2019-06-20T11:06:36Z</time>
      </trkpt>
      <trkpt lat="43.742649" lon="-7.698392">
        <ele>125.808</ele>
        <time>2019-06-20T11:06:37Z</time>
      </trkpt>
      <trkpt lat="43.742559" lon="-7.698631">
        <ele>126.308</ele>
        <time>2019-06-20T11:06:38Z</time>
      </trkpt>
      <trkpt lat="43.742494" lon="-7.698848">
        <ele>126.338</ele>
        <time>2019-06-20T11:06:39Z</time>
      </trkpt>
      <trkpt lat="43.742426" lon="-7.699085">
        <ele>123.832</ele>
        <time>2019-06-20T11:06:40Z</time>
      </trkpt>
      <trkpt lat="43.742380" lon="-7.699332">
        <ele>120.263</ele>
        <time>2019-06-20T11:06:41Z</time>
      </trkpt>
      <trkpt lat="43.742352" lon="-7.699585">
        <ele>118.089</ele>
        <time>2019-06-20T11:06:42Z</time>
      </trkpt>
      <trkpt lat="43.742353" lon="-7.699824">
        <ele>117.446</ele>
        <time>2019-06-20T11:06:43Z</time>
      </trkpt>
      <trkpt lat="43.742355" lon="-7.700062">
        <ele>116.837</ele>
        <time>2019-06-20T11:06:44Z</time>
      </trkpt>
      <trkpt lat="43.742357" lon="-7.700299">
        <ele>116.879</ele>
        <time>2019-06-20T11:06:45Z</time>
      </trkpt>
      <trkpt lat="43.742351" lon="-7.700525">
        <ele>116.176</ele>
        <time>2019-06-20T11:06:46Z</time>
      </trkpt>
      <trkpt lat="43.742326" lon="-7.700760">
        <ele>115.168</ele>
        <time>2019-06-20T11:06:47Z</time>
      </trkpt>
      <trkpt lat="43.742272" lon="-7.700988">
        <ele>113.442</ele>
        <time>2019-06-20T11:06:48Z</time>
      </trkpt>
      <trkpt lat="43.742232" lon="-7.701222">
        <ele>112.426</ele>
        <time>2019-06-20T11:06:49Z</time>
      </trkpt>
      <trkpt lat="43.742173" lon="-7.701433">
        <ele>109.508</ele>
        <time>2019-06-20T11:06:50Z</time>
      </trkpt>
      <trkpt lat="43.742085" lon="-7.701612">
        <ele>105.979</ele>
        <time>2019-06-20T11:06:51Z</time>
      </trkpt>
      <trkpt lat="43.742015" lon="-7.701820">
        <ele>104.273</ele>
        <time>2019-06-20T11:06:52Z</time>
      </trkpt>
      <trkpt lat="43.741992" lon="-7.702051">
        <ele>103.964</ele>
        <time>2019-06-20T11:06:53Z</time>
      </trkpt>
      <trkpt lat="43.741974" lon="-7.702293">
        <ele>102.780</ele>
        <time>2019-06-20T11:06:54Z</time>
      </trkpt>
      <trkpt lat="43.741969" lon="-7.702529">
        <ele>101.037</ele>
        <time>2019-06-20T11:06:55Z</time>
      </trkpt>
      <trkpt lat="43.741956" lon="-7.702769">
        <ele>101.338</ele>
        <time>2019-06-20T11:06:56Z</time>
      </trkpt>
      <trkpt lat="43.741952" lon="-7.702987">
        <ele>102.710</ele>
        <time>2019-06-20T11:06:57Z</time>
      </trkpt>
      <trkpt lat="43.741960" lon="-7.703186">
        <ele>106.227</ele>
        <time>2019-06-20T11:06:58Z</time>
      </trkpt>
      <trkpt lat="43.741939" lon="-7.703352">
        <ele>109.472</ele>
        <time>2019-06-20T11:06:59Z</time>
      </trkpt>
      <trkpt lat="43.741916" lon="-7.703502">
        <ele>112.813</ele>
        <time>2019-06-20T11:07:00Z</time>
      </trkpt>
      <trkpt lat="43.741893" lon="-7.703633">
        <ele>115.614</ele>
        <time>2019-06-20T11:07:01Z</time>
      </trkpt>
      <trkpt lat="43.741835" lon="-7.703750">
        <ele>116.208</ele>
        <time>2019-06-20T11:07:02Z</time>
      </trkpt>
      <trkpt lat="43.741781" lon="-7.703863">
        <ele>116.790</ele>
        <time>2019-06-20T11:07:03Z</time>
      </trkpt>
      <trkpt lat="43.741698" lon="-7.703926">
        <ele>115.654</ele>
        <time>2019-06-20T11:07:04Z</time>
      </trkpt>
      <trkpt lat="43.741632" lon="-7.703993">
        <ele>114.535</ele>
        <time>2019-06-20T11:07:05Z</time>
      </trkpt>
      <trkpt lat="43.741556" lon="-7.704050">
        <ele>113.761</ele>
        <time>2019-06-20T11:07:06Z</time>
      </trkpt>
      <trkpt lat="43.741441" lon="-7.703983">
        <ele>111.898</ele>
        <time>2019-06-20T11:07:07Z</time>
      </trkpt>
      <trkpt lat="43.741291" lon="-7.703941">
        <ele>109.549</ele>
        <time>2019-06-20T11:07:08Z</time>
      </trkpt>
      <trkpt lat="43.741112" lon="-7.703943">
        <ele>107.631</ele>
        <time>2019-06-20T11:07:09Z</time>
      </trkpt>
      <trkpt lat="43.740974" lon="-7.703934">
        <ele>106.178</ele>
        <time>2019-06-20T11:07:10Z</time>
      </trkpt>
      <trkpt lat="43.740829" lon="-7.703974">
        <ele>105.183</ele>
        <time>2019-06-20T11:07:11Z</time>
      </trkpt>
      <trkpt lat="43.740654" lon="-7.704089">
        <ele>103.025</ele>
        <time>2019-06-20T11:07:12Z</time>
      </trkpt>
      <trkpt lat="43.740476" lon="-7.704174">
        <ele>99.517</ele>
        <time>2019-06-20T11:07:13Z</time>
      </trkpt>
      <trkpt lat="43.740356" lon="-7.704306">
        <ele>98.108</ele>
        <time>2019-06-20T11:07:14Z</time>
      </trkpt>
      <trkpt lat="43.740202" lon="-7.704418">
        <ele>95.971</ele>
        <time>2019-06-20T11:07:15Z</time>
      </trkpt>
      <trkpt lat="43.740054" lon="-7.704514">
        <ele>93.435</ele>
        <time>2019-06-20T11:07:16Z</time>
      </trkpt>
      <trkpt lat="43.739908" lon="-7.704599">
        <ele>90.436</ele>
        <time>2019-06-20T11:07:17Z</time>
      </trkpt>
      <trkpt lat="43.739760" lon="-7.704707">
        <ele>87.272</ele>
        <time>2019-06-20T11:07:18Z</time>
      </trkpt>
      <trkpt lat="43.739602" lon="-7.704801">
        <ele>85.129</ele>
        <time>2019-06-20T11:07:19Z</time>
      </trkpt>
      <trkpt lat="43.739442" lon="-7.704858">
        <ele>82.960</ele>
        <time>2019-06-20T11:07:20Z</time>
      </trkpt>
      <trkpt lat="43.739277" lon="-7.704918">
        <ele>82.052</ele>
        <time>2019-06-20T11:07:21Z</time>
      </trkpt>
      <trkpt lat="43.739120" lon="-7.704969">
        <ele>81.149</ele>
        <time>2019-06-20T11:07:22Z</time>
      </trkpt>
      <trkpt lat="43.738975" lon="-7.705040">
        <ele>81.737</ele>
        <time>2019-06-20T11:07:23Z</time>
      </trkpt>
      <trkpt lat="43.738842" lon="-7.705105">
        <ele>81.949</ele>
        <time>2019-06-20T11:07:24Z</time>
      </trkpt>
      <trkpt lat="43.738713" lon="-7.705176">
        <ele>81.513</ele>
        <time>2019-06-20T11:07:25Z</time>
      </trkpt>
      <trkpt lat="43.738589" lon="-7.705254">
        <ele>81.008</ele>
        <time>2019-06-20T11:07:26Z</time>
      </trkpt>
      <trkpt lat="43.738470" lon="-7.705323">
        <ele>79.676</ele>
        <time>2019-06-20T11:07:27Z</time>
      </trkpt>
      <trkpt lat="43.738348" lon="-7.705386">
        <ele>77.550</ele>
        <time>2019-06-20T11:07:28Z</time>
      </trkpt>
      <trkpt lat="43.738225" lon="-7.705457">
        <ele>75.711</ele>
        <time>2019-06-20T11:07:29Z</time>
      </trkpt>
      <trkpt lat="43.738124" lon="-7.705549">
        <ele>74.457</ele>
        <time>2019-06-20T11:07:30Z</time>
      </trkpt>
      <trkpt lat="43.738037" lon="-7.705682">
        <ele>73.224</ele>
        <time>2019-06-20T11:07:31Z</time>
      </trkpt>
      <trkpt lat="43.737947" lon="-7.705801">
        <ele>72.355</ele>
        <time>2019-06-20T11:07:32Z</time>
      </trkpt>
      <trkpt lat="43.737873" lon="-7.705936">
        <ele>72.037</ele>
        <time>2019-06-20T11:07:33Z</time>
      </trkpt>
      <trkpt lat="43.737796" lon="-7.706054">
        <ele>71.864</ele>
        <time>2019-06-20T11:07:34Z</time>
      </trkpt>
      <trkpt lat="43.737719" lon="-7.706172">
        <ele>71.619</ele>
        <time>2019-06-20T11:07:35Z</time>
      </trkpt>
      <trkpt lat="43.737649" lon="-7.706283">
        <ele>71.409</ele>
        <time>2019-06-20T11:07:36Z</time>
      </trkpt>
      <trkpt lat="43.737573" lon="-7.706385">
        <ele>71.319</ele>
        <time>2019-06-20T11:07:37Z</time>
      </trkpt>
      <trkpt lat="43.737492" lon="-7.706482">
        <ele>71.008</ele>
        <time>2019-06-20T11:07:38Z</time>
      </trkpt>
      <trkpt lat="43.737410" lon="-7.706563">
        <ele>70.514</ele>
        <time>2019-06-20T11:07:39Z</time>
      </trkpt>
      <trkpt lat="43.737283" lon="-7.706572">
        <ele>69.728</ele>
        <time>2019-06-20T11:07:40Z</time>
      </trkpt>
      <trkpt lat="43.737171" lon="-7.706622">
        <ele>69.169</ele>
        <time>2019-06-20T11:07:41Z</time>
      </trkpt>
      <trkpt lat="43.737037" lon="-7.706638">
        <ele>69.015</ele>
        <time>2019-06-20T11:07:42Z</time>
      </trkpt>
      <trkpt lat="43.736907" lon="-7.706661">
        <ele>68.942</ele>
        <time>2019-06-20T11:07:43Z</time>
      </trkpt>
      <trkpt lat="43.736783" lon="-7.706643">
        <ele>68.433</ele>
        <time>2019-06-20T11:07:44Z</time>
      </trkpt>
      <trkpt lat="43.736643" lon="-7.706632">
        <ele>68.295</ele>
        <time>2019-06-20T11:07:45Z</time>
      </trkpt>
      <trkpt lat="43.736572" lon="-7.706649">
        <ele>68.752</ele>
        <time>2019-06-20T11:07:46Z</time>
      </trkpt>
      <trkpt lat="43.736499" lon="-7.706642">
        <ele>69.289</ele>
        <time>2019-06-20T11:07:47Z</time>
      </trkpt>
      <trkpt lat="43.736448" lon="-7.706661">
        <ele>69.606</ele>
        <time>2019-06-20T11:07:48Z</time>
      </trkpt>
      <trkpt lat="43.736400" lon="-7.706671">
        <ele>69.926</ele>
        <time>2019-06-20T11:07:49Z</time>
      </trkpt>
      <trkpt lat="43.736324" lon="-7.706696">
        <ele>70.408</ele>
        <time>2019-06-20T11:07:50Z</time>
      </trkpt>
      <trkpt lat="43.736234" lon="-7.706742">
        <ele>70.831</ele>
        <time>2019-06-20T11:07:51Z</time>
      </trkpt>
      <trkpt lat="43.736130" lon="-7.706788">
        <ele>71.425</ele>
        <time>2019-06-20T11:07:52Z</time>
      </trkpt>
      <trkpt lat="43.736021" lon="-7.706854">
        <ele>71.926</ele>
        <time>2019-06-20T11:07:53Z</time>
      </trkpt>
      <trkpt lat="43.735903" lon="-7.706900">
        <ele>72.562</ele>
        <time>2019-06-20T11:07:54Z</time>
      </trkpt>
      <trkpt lat="43.735745" lon="-7.706970">
        <ele>73.899</ele>
        <time>2019-06-20T11:07:55Z</time>
      </trkpt>
      <trkpt lat="43.735596" lon="-7.707044">
        <ele>74.970</ele>
        <time>2019-06-20T11:07:56Z</time>
      </trkpt>
      <trkpt lat="43.735435" lon="-7.707119">
        <ele>75.062</ele>
        <time>2019-06-20T11:07:57Z</time>
      </trkpt>
      <trkpt lat="43.735266" lon="-7.707202">
        <ele>75.019</ele>
        <time>2019-06-20T11:07:58Z</time>
      </trkpt>
      <trkpt lat="43.735093" lon="-7.707294">
        <ele>74.247</ele>
        <time>2019-06-20T11:07:59Z</time>
      </trkpt>
      <trkpt lat="43.734912" lon="-7.707385">
        <ele>73.929</ele>
        <time>2019-06-20T11:08:00Z</time>
      </trkpt>
      <trkpt lat="43.734729" lon="-7.707472">
        <ele>73.221</ele>
        <time>2019-06-20T11:08:01Z</time>
      </trkpt>
      <trkpt lat="43.734549" lon="-7.707557">
        <ele>76.308</ele>
        <time>2019-06-20T11:08:02Z</time>
      </trkpt>
      <trkpt lat="43.734368" lon="-7.707643">
        <ele>78.577</ele>
        <time>2019-06-20T11:08:03Z</time>
      </trkpt>
      <trkpt lat="43.734182" lon="-7.707739">
        <ele>78.541</ele>
        <time>2019-06-20T11:08:04Z</time>
      </trkpt>
      <trkpt lat="43.733992" lon="-7.707831">
        <ele>80.052</ele>
        <time>2019-06-20T11:08:05Z</time>
      </trkpt>
      <trkpt lat="43.733797" lon="-7.707922">
        <ele>80.628</ele>
        <time>2019-06-20T11:08:06Z</time>
      </trkpt>
      <trkpt lat="43.733609" lon="-7.708012">
        <ele>80.045</ele>
        <time>2019-06-20T11:08:07Z</time>
      </trkpt>
      <trkpt lat="43.733423" lon="-7.708106">
        <ele>79.646</ele>
        <time>2019-06-20T11:08:08Z</time>
      </trkpt>
      <trkpt lat="43.733234" lon="-7.708195">
        <ele>80.218</ele>
        <time>2019-06-20T11:08:09Z</time>
      </trkpt>
      <trkpt lat="43.733041" lon="-7.708281">
        <ele>81.235</ele>
        <time>2019-06-20T11:08:10Z</time>
      </trkpt>
      <trkpt lat="43.732846" lon="-7.708356">
        <ele>84.192</ele>
        <time>2019-06-20T11:08:11Z</time>
      </trkpt>
      <trkpt lat="43.732644" lon="-7.708418">
        <ele>86.473</ele>
        <time>2019-06-20T11:08:12Z</time>
      </trkpt>
      <trkpt lat="43.732432" lon="-7.708466">
        <ele>87.820</ele>
        <time>2019-06-20T11:08:13Z</time>
      </trkpt>
      <trkpt lat="43.732222" lon="-7.708500">
        <ele>88.208</ele>
        <time>2019-06-20T11:08:14Z</time>
      </trkpt>
      <trkpt lat="43.732011" lon="-7.708517">
        <ele>88.812</ele>
        <time>2019-06-20T11:08:15Z</time>
      </trkpt>
      <trkpt lat="43.731805" lon="-7.708509">
        <ele>89.356</ele>
        <time>2019-06-20T11:08:16Z</time>
      </trkpt>
      <trkpt lat="43.731607" lon="-7.708490">
        <ele>90.037</ele>
        <time>2019-06-20T11:08:17Z</time>
      </trkpt>
      <trkpt lat="43.731409" lon="-7.708459">
        <ele>91.013</ele>
        <time>2019-06-20T11:08:18Z</time>
      </trkpt>
      <trkpt lat="43.731213" lon="-7.708396">
        <ele>93.990</ele>
        <time>2019-06-20T11:08:19Z</time>
      </trkpt>
      <trkpt lat="43.731016" lon="-7.708333">
        <ele>96.461</ele>
        <time>2019-06-20T11:08:20Z</time>
      </trkpt>
      <trkpt lat="43.730822" lon="-7.708259">
        <ele>99.083</ele>
        <time>2019-06-20T11:08:21Z</time>
      </trkpt>
      <trkpt lat="43.730623" lon="-7.708177">
        <ele>98.770</ele>
        <time>2019-06-20T11:08:22Z</time>
      </trkpt>
      <trkpt lat="43.730422" lon="-7.708101">
        <ele>98.715</ele>
        <time>2019-06-20T11:08:23Z</time>
      </trkpt>
      <trkpt lat="43.730218" lon="-7.708024">
        <ele>99.165</ele>
        <time>2019-06-20T11:08:24Z</time>
      </trkpt>
      <trkpt lat="43.730012" lon="-7.707979">
        <ele>99.811</ele>
        <time>2019-06-20T11:08:25Z</time>
      </trkpt>
      <trkpt lat="43.729797" lon="-7.707954">
        <ele>104.808</ele>
        <time>2019-06-20T11:08:26Z</time>
      </trkpt>
      <trkpt lat="43.729577" lon="-7.707961">
        <ele>109.594</ele>
        <time>2019-06-20T11:08:27Z</time>
      </trkpt>
      <trkpt lat="43.729365" lon="-7.708005">
        <ele>112.528</ele>
        <time>2019-06-20T11:08:28Z</time>
      </trkpt>
      <trkpt lat="43.729159" lon="-7.708086">
        <ele>113.319</ele>
        <time>2019-06-20T11:08:29Z</time>
      </trkpt>
      <trkpt lat="43.728941" lon="-7.708168">
        <ele>112.575</ele>
        <time>2019-06-20T11:08:30Z</time>
      </trkpt>
      <trkpt lat="43.728725" lon="-7.708290">
        <ele>110.742</ele>
        <time>2019-06-20T11:08:31Z</time>
      </trkpt>
      <trkpt lat="43.728506" lon="-7.708399">
        <ele>110.583</ele>
        <time>2019-06-20T11:08:32Z</time>
      </trkpt>
      <trkpt lat="43.728301" lon="-7.708532">
        <ele>110.165</ele>
        <time>2019-06-20T11:08:33Z</time>
      </trkpt>
      <trkpt lat="43.728114" lon="-7.708700">
        <ele>108.032</ele>
        <time>2019-06-20T11:08:34Z</time>
      </trkpt>
      <trkpt lat="43.727927" lon="-7.708861">
        <ele>108.039</ele>
        <time>2019-06-20T11:08:35Z</time>
      </trkpt>
      <trkpt lat="43.727751" lon="-7.709038">
        <ele>107.501</ele>
        <time>2019-06-20T11:08:36Z</time>
      </trkpt>
      <trkpt lat="43.727585" lon="-7.709232">
        <ele>105.821</ele>
        <time>2019-06-20T11:08:37Z</time>
      </trkpt>
      <trkpt lat="43.727416" lon="-7.709425">
        <ele>104.108</ele>
        <time>2019-06-20T11:08:38Z</time>
      </trkpt>
      <trkpt lat="43.727265" lon="-7.709645">
        <ele>102.726</ele>
        <time>2019-06-20T11:08:39Z</time>
      </trkpt>
      <trkpt lat="43.727125" lon="-7.709880">
        <ele>103.010</ele>
        <time>2019-06-20T11:08:40Z</time>
      </trkpt>
      <trkpt lat="43.727002" lon="-7.710138">
        <ele>104.751</ele>
        <time>2019-06-20T11:08:41Z</time>
      </trkpt>
      <trkpt lat="43.726897" lon="-7.710416">
        <ele>107.957</ele>
        <time>2019-06-20T11:08:42Z</time>
      </trkpt>
      <trkpt lat="43.726797" lon="-7.710709">
        <ele>110.434</ele>
        <time>2019-06-20T11:08:43Z</time>
      </trkpt>
      <trkpt lat="43.726703" lon="-7.711006">
        <ele>110.245</ele>
        <time>2019-06-20T11:08:44Z</time>
      </trkpt>
      <trkpt lat="43.726619" lon="-7.711312">
        <ele>110.617</ele>
        <time>2019-06-20T11:08:45Z</time>
      </trkpt>
      <trkpt lat="43.726540" lon="-7.711625">
        <ele>114.074</ele>
        <time>2019-06-20T11:08:46Z</time>
      </trkpt>
      <trkpt lat="43.726468" lon="-7.711932">
        <ele>117.269</ele>
        <time>2019-06-20T11:08:47Z</time>
      </trkpt>
      <trkpt lat="43.726398" lon="-7.712233">
        <ele>118.904</ele>
        <time>2019-06-20T11:08:48Z</time>
      </trkpt>
      <trkpt lat="43.726325" lon="-7.712529">
        <ele>123.024</ele>
        <time>2019-06-20T11:08:49Z</time>
      </trkpt>
      <trkpt lat="43.726250" lon="-7.712818">
        <ele>125.308</ele>
        <time>2019-06-20T11:08:50Z</time>
      </trkpt>
      <trkpt lat="43.726151" lon="-7.713103">
        <ele>128.219</ele>
        <time>2019-06-20T11:08:51Z</time>
      </trkpt>
      <trkpt lat="43.726068" lon="-7.713404">
        <ele>131.523</ele>
        <time>2019-06-20T11:08:52Z</time>
      </trkpt>
      <trkpt lat="43.725997" lon="-7.713638">
        <ele>133.544</ele>
        <time>2019-06-20T11:08:53Z</time>
      </trkpt>
      <trkpt lat="43.725910" lon="-7.713877">
        <ele>133.790</ele>
        <time>2019-06-20T11:08:54Z</time>
      </trkpt>
      <trkpt lat="43.725837" lon="-7.714116">
        <ele>132.647</ele>
        <time>2019-06-20T11:08:55Z</time>
      </trkpt>
      <trkpt lat="43.725786" lon="-7.714348">
        <ele>130.318</ele>
        <time>2019-06-20T11:08:56Z</time>
      </trkpt>
      <trkpt lat="43.725748" lon="-7.714569">
        <ele>129.750</ele>
        <time>2019-06-20T11:08:57Z</time>
      </trkpt>
      <trkpt lat="43.725729" lon="-7.714788">
        <ele>129.377</ele>
        <time>2019-06-20T11:08:58Z</time>
      </trkpt>
      <trkpt lat="43.725742" lon="-7.715008">
        <ele>126.971</ele>
        <time>2019-06-20T11:08:59Z</time>
      </trkpt>
      <trkpt lat="43.725762" lon="-7.715221">
        <ele>124.341</ele>
        <time>2019-06-20T11:09:00Z</time>
      </trkpt>
      <trkpt lat="43.725797" lon="-7.715433">
        <ele>121.715</ele>
        <time>2019-06-20T11:09:01Z</time>
      </trkpt>
      <trkpt lat="43.725874" lon="-7.715620">
        <ele>120.308</ele>
        <time>2019-06-20T11:09:02Z</time>
      </trkpt>
      <trkpt lat="43.725963" lon="-7.715792">
        <ele>120.930</ele>
        <time>2019-06-20T11:09:03Z</time>
      </trkpt>
      <trkpt lat="43.726055" lon="-7.715955">
        <ele>122.874</ele>
        <time>2019-06-20T11:09:04Z</time>
      </trkpt>
      <trkpt lat="43.726203" lon="-7.716067">
        <ele>125.345</ele>
        <time>2019-06-20T11:09:05Z</time>
      </trkpt>
      <trkpt lat="43.726359" lon="-7.716185">
        <ele>129.591</ele>
        <time>2019-06-20T11:09:06Z</time>
      </trkpt>
      <trkpt lat="43.726514" lon="-7.716218">
        <ele>132.568</ele>
        <time>2019-06-20T11:09:07Z</time>
      </trkpt>
      <trkpt lat="43.726699" lon="-7.716250">
        <ele>135.999</ele>
        <time>2019-06-20T11:09:08Z</time>
      </trkpt>
      <trkpt lat="43.726937" lon="-7.716181">
        <ele>136.911</ele>
        <time>2019-06-20T11:09:09Z</time>
      </trkpt>
      <trkpt lat="43.727142" lon="-7.716196">
        <ele>138.758</ele>
        <time>2019-06-20T11:09:10Z</time>
      </trkpt>
      <trkpt lat="43.727335" lon="-7.716241">
        <ele>139.379</ele>
        <time>2019-06-20T11:09:11Z</time>
      </trkpt>
      <trkpt lat="43.727512" lon="-7.716285">
        <ele>138.405</ele>
        <time>2019-06-20T11:09:12Z</time>
      </trkpt>
      <trkpt lat="43.727701" lon="-7.716348">
        <ele>137.725</ele>
        <time>2019-06-20T11:09:13Z</time>
      </trkpt>
      <trkpt lat="43.727868" lon="-7.716500">
        <ele>138.708</ele>
        <time>2019-06-20T11:09:14Z</time>
      </trkpt>
      <trkpt lat="43.727970" lon="-7.716744">
        <ele>142.440</ele>
        <time>2019-06-20T11:09:15Z</time>
      </trkpt>
      <trkpt lat="43.728094" lon="-7.716937">
        <ele>143.874</ele>
        <time>2019-06-20T11:09:16Z</time>
      </trkpt>
      <trkpt lat="43.728232" lon="-7.717153">
        <ele>143.725</ele>
        <time>2019-06-20T11:09:17Z</time>
      </trkpt>
      <trkpt lat="43.728352" lon="-7.717371">
        <ele>141.311</ele>
        <time>2019-06-20T11:09:18Z</time>
      </trkpt>
      <trkpt lat="43.728478" lon="-7.717584">
        <ele>139.968</ele>
        <time>2019-06-20T11:09:19Z</time>
      </trkpt>
      <trkpt lat="43.728603" lon="-7.717818">
        <ele>139.739</ele>
        <time>2019-06-20T11:09:20Z</time>
      </trkpt>
      <trkpt lat="43.728727" lon="-7.718047">
        <ele>141.631</ele>
        <time>2019-06-20T11:09:21Z</time>
      </trkpt>
      <trkpt lat="43.728847" lon="-7.718275">
        <ele>143.188</ele>
        <time>2019-06-20T11:09:22Z</time>
      </trkpt>
      <trkpt lat="43.728952" lon="-7.718499">
        <ele>143.455</ele>
        <time>2019-06-20T11:09:23Z</time>
      </trkpt>
      <trkpt lat="43.729057" lon="-7.718737">
        <ele>144.907</ele>
        <time>2019-06-20T11:09:24Z</time>
      </trkpt>
      <trkpt lat="43.729150" lon="-7.718955">
        <ele>146.017</ele>
        <time>2019-06-20T11:09:25Z</time>
      </trkpt>
      <trkpt lat="43.729219" lon="-7.719175">
        <ele>148.108</ele>
        <time>2019-06-20T11:09:26Z</time>
      </trkpt>
      <trkpt lat="43.729262" lon="-7.719402">
        <ele>149.758</ele>
        <time>2019-06-20T11:09:27Z</time>
      </trkpt>
      <trkpt lat="43.729276" lon="-7.719639">
        <ele>150.052</ele>
        <time>2019-06-20T11:09:28Z</time>
      </trkpt>
      <trkpt lat="43.729267" lon="-7.719876">
        <ele>148.583</ele>
        <time>2019-06-20T11:09:29Z</time>
      </trkpt>
      <trkpt lat="43.729232" lon="-7.720106">
        <ele>146.159</ele>
        <time>2019-06-20T11:09:30Z</time>
      </trkpt>
      <trkpt lat="43.729164" lon="-7.720335">
        <ele>143.436</ele>
        <time>2019-06-20T11:09:31Z</time>
      </trkpt>
      <trkpt lat="43.729092" lon="-7.720574">
        <ele>142.087</ele>
        <time>2019-06-20T11:09:32Z</time>
      </trkpt>
      <trkpt lat="43.729010" lon="-7.720809">
        <ele>138.739</ele>
        <time>2019-06-20T11:09:33Z</time>
      </trkpt>
      <trkpt lat="43.728899" lon="-7.721032">
        <ele>135.626</ele>
        <time>2019-06-20T11:09:34Z</time>
      </trkpt>
      <trkpt lat="43.728745" lon="-7.721256">
        <ele>133.521</ele>
        <time>2019-06-20T11:09:35Z</time>
      </trkpt>
      <trkpt lat="43.728618" lon="-7.721487">
        <ele>132.241</ele>
        <time>2019-06-20T11:09:36Z</time>
      </trkpt>
      <trkpt lat="43.728495" lon="-7.721713">
        <ele>133.005</ele>
        <time>2019-06-20T11:09:37Z</time>
      </trkpt>
      <trkpt lat="43.728382" lon="-7.721934">
        <ele>136.808</ele>
        <time>2019-06-20T11:09:38Z</time>
      </trkpt>
      <trkpt lat="43.728271" lon="-7.722143">
        <ele>140.735</ele>
        <time>2019-06-20T11:09:39Z</time>
      </trkpt>
      <trkpt lat="43.728152" lon="-7.722359">
        <ele>141.829</ele>
        <time>2019-06-20T11:09:40Z</time>
      </trkpt>
      <trkpt lat="43.728044" lon="-7.722570">
        <ele>140.360</ele>
        <time>2019-06-20T11:09:41Z</time>
      </trkpt>
      <trkpt lat="43.727950" lon="-7.722784">
        <ele>139.656</ele>
        <time>2019-06-20T11:09:42Z</time>
      </trkpt>
      <trkpt lat="43.727874" lon="-7.723009">
        <ele>139.923</ele>
        <time>2019-06-20T11:09:43Z</time>
      </trkpt>
      <trkpt lat="43.727826" lon="-7.723245">
        <ele>140.034</ele>
        <time>2019-06-20T11:09:44Z</time>
      </trkpt>
      <trkpt lat="43.727815" lon="-7.723475">
        <ele>139.566</ele>
        <time>2019-06-20T11:09:45Z</time>
      </trkpt>
      <trkpt lat="43.727828" lon="-7.723703">
        <ele>139.873</ele>
        <time>2019-06-20T11:09:46Z</time>
      </trkpt>
      <trkpt lat="43.727846" lon="-7.723937">
        <ele>142.575</ele>
        <time>2019-06-20T11:09:47Z</time>
      </trkpt>
      <trkpt lat="43.727892" lon="-7.724178">
        <ele>145.928</ele>
        <time>2019-06-20T11:09:48Z</time>
      </trkpt>
      <trkpt lat="43.727945" lon="-7.724418">
        <ele>148.220</ele>
        <time>2019-06-20T11:09:49Z</time>
      </trkpt>
      <trkpt lat="43.728040" lon="-7.724600">
        <ele>147.808</ele>
        <time>2019-06-20T11:09:50Z</time>
      </trkpt>
      <trkpt lat="43.728148" lon="-7.724803">
        <ele>145.490</ele>
        <time>2019-06-20T11:09:51Z</time>
      </trkpt>
      <trkpt lat="43.728287" lon="-7.725020">
        <ele>140.914</ele>
        <time>2019-06-20T11:09:52Z</time>
      </trkpt>
      <trkpt lat="43.728456" lon="-7.725241">
        <ele>139.315</ele>
        <time>2019-06-20T11:09:53Z</time>
      </trkpt>
      <trkpt lat="43.728568" lon="-7.725447">
        <ele>137.391</ele>
        <time>2019-06-20T11:09:54Z</time>
      </trkpt>
      <trkpt lat="43.728654" lon="-7.725673">
        <ele>136.638</ele>
        <time>2019-06-20T11:09:55Z</time>
      </trkpt>
      <trkpt lat="43.728748" lon="-7.725933">
        <ele>137.069</ele>
        <time>2019-06-20T11:09:56Z</time>
      </trkpt>
      <trkpt lat="43.728860" lon="-7.726161">
        <ele>135.951</ele>
        <time>2019-06-20T11:09:57Z</time>
      </trkpt>
      <trkpt lat="43.728960" lon="-7.726366">
        <ele>134.648</ele>
        <time>2019-06-20T11:09:58Z</time>
      </trkpt>
      <trkpt lat="43.729062" lon="-7.726556">
        <ele>134.168</ele>
        <time>2019-06-20T11:09:59Z</time>
      </trkpt>
      <trkpt lat="43.729179" lon="-7.726734">
        <ele>132.942</ele>
        <time>2019-06-20T11:10:00Z</time>
      </trkpt>
      <trkpt lat="43.729335" lon="-7.726887">
        <ele>130.026</ele>
        <time>2019-06-20T11:10:01Z</time>
      </trkpt>
      <trkpt lat="43.729490" lon="-7.726863">
        <ele>126.008</ele>
        <time>2019-06-20T11:10:02Z</time>
      </trkpt>
      <trkpt lat="43.729692" lon="-7.726854">
        <ele>119.969</ele>
        <time>2019-06-20T11:10:03Z</time>
      </trkpt>
      <trkpt lat="43.729779" lon="-7.726794">
        <ele>118.243</ele>
        <time>2019-06-20T11:10:04Z</time>
      </trkpt>
      <trkpt lat="43.730009" lon="-7.726751">
        <ele>114.964</ele>
        <time>2019-06-20T11:10:05Z</time>
      </trkpt>
      <trkpt lat="43.730201" lon="-7.726750">
        <ele>112.450</ele>
        <time>2019-06-20T11:10:06Z</time>
      </trkpt>
      <trkpt lat="43.730327" lon="-7.726776">
        <ele>110.777</ele>
        <time>2019-06-20T11:10:07Z</time>
      </trkpt>
      <trkpt lat="43.730456" lon="-7.726806">
        <ele>109.178</ele>
        <time>2019-06-20T11:10:08Z</time>
      </trkpt>
      <trkpt lat="43.730609" lon="-7.726917">
        <ele>107.050</ele>
        <time>2019-06-20T11:10:09Z</time>
      </trkpt>
      <trkpt lat="43.730788" lon="-7.727079">
        <ele>106.277</ele>
        <time>2019-06-20T11:10:10Z</time>
      </trkpt>
      <trkpt lat="43.730910" lon="-7.727199">
        <ele>105.149</ele>
        <time>2019-06-20T11:10:11Z</time>
      </trkpt>
      <trkpt lat="43.730986" lon="-7.727401">
        <ele>106.202</ele>
        <time>2019-06-20T11:10:12Z</time>
      </trkpt>
      <trkpt lat="43.731035" lon="-7.727620">
        <ele>108.322</ele>
        <time>2019-06-20T11:10:13Z</time>
      </trkpt>
      <trkpt lat="43.731072" lon="-7.727837">
        <ele>110.508</ele>
        <time>2019-06-20T11:10:14Z</time>
      </trkpt>
      <trkpt lat="43.731119" lon="-7.728058">
        <ele>109.927</ele>
        <time>2019-06-20T11:10:15Z</time>
      </trkpt>
      <trkpt lat="43.731082" lon="-7.728347">
        <ele>109.251</ele>
        <time>2019-06-20T11:10:16Z</time>
      </trkpt>
      <trkpt lat="43.731047" lon="-7.728579">
        <ele>107.632</ele>
        <time>2019-06-20T11:10:17Z</time>
      </trkpt>
      <trkpt lat="43.730978" lon="-7.728837">
        <ele>106.278</ele>
        <time>2019-06-20T11:10:18Z</time>
      </trkpt>
      <trkpt lat="43.730869" lon="-7.729020">
        <ele>106.765</ele>
        <time>2019-06-20T11:10:19Z</time>
      </trkpt>
      <trkpt lat="43.730802" lon="-7.729241">
        <ele>106.866</ele>
        <time>2019-06-20T11:10:20Z</time>
      </trkpt>
      <trkpt lat="43.730784" lon="-7.729465">
        <ele>103.878</ele>
        <time>2019-06-20T11:10:21Z</time>
      </trkpt>
      <trkpt lat="43.730747" lon="-7.729676">
        <ele>103.095</ele>
        <time>2019-06-20T11:10:22Z</time>
      </trkpt>
      <trkpt lat="43.730749" lon="-7.729881">
        <ele>102.821</ele>
        <time>2019-06-20T11:10:23Z</time>
      </trkpt>
      <trkpt lat="43.730812" lon="-7.730023">
        <ele>101.841</ele>
        <time>2019-06-20T11:10:24Z</time>
      </trkpt>
      <trkpt lat="43.730904" lon="-7.730201">
        <ele>101.005</ele>
        <time>2019-06-20T11:10:25Z</time>
      </trkpt>
      <trkpt lat="43.731077" lon="-7.730308">
        <ele>96.308</ele>
        <time>2019-06-20T11:10:26Z</time>
      </trkpt>
      <trkpt lat="43.731194" lon="-7.730423">
        <ele>95.655</ele>
        <time>2019-06-20T11:10:27Z</time>
      </trkpt>
      <trkpt lat="43.731330" lon="-7.730519">
        <ele>95.879</ele>
        <time>2019-06-20T11:10:28Z</time>
      </trkpt>
      <trkpt lat="43.731468" lon="-7.730615">
        <ele>95.960</ele>
        <time>2019-06-20T11:10:29Z</time>
      </trkpt>
      <trkpt lat="43.731585" lon="-7.730700">
        <ele>95.836</ele>
        <time>2019-06-20T11:10:30Z</time>
      </trkpt>
      <trkpt lat="43.731689" lon="-7.730799">
        <ele>95.683</ele>
        <time>2019-06-20T11:10:31Z</time>
      </trkpt>
      <trkpt lat="43.731761" lon="-7.730931">
        <ele>94.424</ele>
        <time>2019-06-20T11:10:32Z</time>
      </trkpt>
      <trkpt lat="43.731834" lon="-7.731073">
        <ele>93.266</ele>
        <time>2019-06-20T11:10:33Z</time>
      </trkpt>
      <trkpt lat="43.731896" lon="-7.731243">
        <ele>92.133</ele>
        <time>2019-06-20T11:10:34Z</time>
      </trkpt>
      <trkpt lat="43.731944" lon="-7.731421">
        <ele>91.053</ele>
        <time>2019-06-20T11:10:35Z</time>
      </trkpt>
      <trkpt lat="43.731996" lon="-7.731598">
        <ele>90.204</ele>
        <time>2019-06-20T11:10:36Z</time>
      </trkpt>
      <trkpt lat="43.732029" lon="-7.731787">
        <ele>89.214</ele>
        <time>2019-06-20T11:10:37Z</time>
      </trkpt>
      <trkpt lat="43.732065" lon="-7.731979">
        <ele>88.008</ele>
        <time>2019-06-20T11:10:38Z</time>
      </trkpt>
      <trkpt lat="43.732082" lon="-7.732168">
        <ele>86.488</ele>
        <time>2019-06-20T11:10:39Z</time>
      </trkpt>
      <trkpt lat="43.732107" lon="-7.732351">
        <ele>84.852</ele>
        <time>2019-06-20T11:10:40Z</time>
      </trkpt>
      <trkpt lat="43.732127" lon="-7.732529">
        <ele>83.653</ele>
        <time>2019-06-20T11:10:41Z</time>
      </trkpt>
      <trkpt lat="43.732147" lon="-7.732703">
        <ele>82.649</ele>
        <time>2019-06-20T11:10:42Z</time>
      </trkpt>
      <trkpt lat="43.732157" lon="-7.732872">
        <ele>81.766</ele>
        <time>2019-06-20T11:10:43Z</time>
      </trkpt>
      <trkpt lat="43.732157" lon="-7.733046">
        <ele>80.857</ele>
        <time>2019-06-20T11:10:44Z</time>
      </trkpt>
      <trkpt lat="43.732146" lon="-7.733213">
        <ele>78.059</ele>
        <time>2019-06-20T11:10:45Z</time>
      </trkpt>
      <trkpt lat="43.732118" lon="-7.733391">
        <ele>74.856</ele>
        <time>2019-06-20T11:10:46Z</time>
      </trkpt>
      <trkpt lat="43.732066" lon="-7.733564">
        <ele>71.322</ele>
        <time>2019-06-20T11:10:47Z</time>
      </trkpt>
      <trkpt lat="43.732006" lon="-7.733750">
        <ele>68.562</ele>
        <time>2019-06-20T11:10:48Z</time>
      </trkpt>
      <trkpt lat="43.731926" lon="-7.733932">
        <ele>66.608</ele>
        <time>2019-06-20T11:10:49Z</time>
      </trkpt>
      <trkpt lat="43.731845" lon="-7.734101">
        <ele>65.408</ele>
        <time>2019-06-20T11:10:50Z</time>
      </trkpt>
      <trkpt lat="43.731761" lon="-7.734271">
        <ele>63.945</ele>
        <time>2019-06-20T11:10:51Z</time>
      </trkpt>
      <trkpt lat="43.731672" lon="-7.734445">
        <ele>61.929</ele>
        <time>2019-06-20T11:10:52Z</time>
      </trkpt>
      <trkpt lat="43.731585" lon="-7.734620">
        <ele>61.470</ele>
        <time>2019-06-20T11:10:53Z</time>
      </trkpt>
      <trkpt lat="43.731498" lon="-7.734792">
        <ele>61.386</ele>
        <time>2019-06-20T11:10:54Z</time>
      </trkpt>
      <trkpt lat="43.731416" lon="-7.734963">
        <ele>60.953</ele>
        <time>2019-06-20T11:10:55Z</time>
      </trkpt>
      <trkpt lat="43.731342" lon="-7.735134">
        <ele>61.414</ele>
        <time>2019-06-20T11:10:56Z</time>
      </trkpt>
      <trkpt lat="43.731263" lon="-7.735291">
        <ele>62.316</ele>
        <time>2019-06-20T11:10:57Z</time>
      </trkpt>
      <trkpt lat="43.731190" lon="-7.735422">
        <ele>62.043</ele>
        <time>2019-06-20T11:10:58Z</time>
      </trkpt>
      <trkpt lat="43.731128" lon="-7.735547">
        <ele>60.855</ele>
        <time>2019-06-20T11:10:59Z</time>
      </trkpt>
      <trkpt lat="43.731080" lon="-7.735652">
        <ele>59.707</ele>
        <time>2019-06-20T11:11:00Z</time>
      </trkpt>
      <trkpt lat="43.731032" lon="-7.735751">
        <ele>59.217</ele>
        <time>2019-06-20T11:11:01Z</time>
      </trkpt>
      <trkpt lat="43.730984" lon="-7.735832">
        <ele>59.508</ele>
        <time>2019-06-20T11:11:02Z</time>
      </trkpt>
      <trkpt lat="43.730939" lon="-7.735913">
        <ele>59.618</ele>
        <time>2019-06-20T11:11:03Z</time>
      </trkpt>
      <trkpt lat="43.730897" lon="-7.735993">
        <ele>59.552</ele>
        <time>2019-06-20T11:11:04Z</time>
      </trkpt>
      <trkpt lat="43.730857" lon="-7.736084">
        <ele>58.833</ele>
        <time>2019-06-20T11:11:05Z</time>
      </trkpt>
      <trkpt lat="43.730810" lon="-7.736184">
        <ele>58.359</ele>
        <time>2019-06-20T11:11:06Z</time>
      </trkpt>
      <trkpt lat="43.730752" lon="-7.736298">
        <ele>58.176</ele>
        <time>2019-06-20T11:11:07Z</time>
      </trkpt>
      <trkpt lat="43.730680" lon="-7.736441">
        <ele>58.047</ele>
        <time>2019-06-20T11:11:08Z</time>
      </trkpt>
      <trkpt lat="43.730599" lon="-7.736593">
        <ele>57.559</ele>
        <time>2019-06-20T11:11:09Z</time>
      </trkpt>
      <trkpt lat="43.730520" lon="-7.736740">
        <ele>56.356</ele>
        <time>2019-06-20T11:11:10Z</time>
      </trkpt>
      <trkpt lat="43.730438" lon="-7.736905">
        <ele>54.475</ele>
        <time>2019-06-20T11:11:11Z</time>
      </trkpt>
      <trkpt lat="43.730343" lon="-7.737093">
        <ele>53.028</ele>
        <time>2019-06-20T11:11:12Z</time>
      </trkpt>
      <trkpt lat="43.730240" lon="-7.737301">
        <ele>52.720</ele>
        <time>2019-06-20T11:11:13Z</time>
      </trkpt>
      <trkpt lat="43.730131" lon="-7.737520">
        <ele>55.108</ele>
        <time>2019-06-20T11:11:14Z</time>
      </trkpt>
      <trkpt lat="43.730022" lon="-7.737738">
        <ele>56.860</ele>
        <time>2019-06-20T11:11:15Z</time>
      </trkpt>
      <trkpt lat="43.729906" lon="-7.737963">
        <ele>57.734</ele>
        <time>2019-06-20T11:11:16Z</time>
      </trkpt>
      <trkpt lat="43.729793" lon="-7.738165">
        <ele>58.525</ele>
        <time>2019-06-20T11:11:17Z</time>
      </trkpt>
      <trkpt lat="43.729698" lon="-7.738383">
        <ele>56.121</ele>
        <time>2019-06-20T11:11:18Z</time>
      </trkpt>
      <trkpt lat="43.729586" lon="-7.738574">
        <ele>54.658</ele>
        <time>2019-06-20T11:11:19Z</time>
      </trkpt>
      <trkpt lat="43.729489" lon="-7.738778">
        <ele>52.949</ele>
        <time>2019-06-20T11:11:20Z</time>
      </trkpt>
      <trkpt lat="43.729406" lon="-7.738974">
        <ele>51.431</ele>
        <time>2019-06-20T11:11:21Z</time>
      </trkpt>
      <trkpt lat="43.729310" lon="-7.739161">
        <ele>49.158</ele>
        <time>2019-06-20T11:11:22Z</time>
      </trkpt>
      <trkpt lat="43.729221" lon="-7.739347">
        <ele>43.919</ele>
        <time>2019-06-20T11:11:23Z</time>
      </trkpt>
      <trkpt lat="43.729135" lon="-7.739517">
        <ele>40.509</ele>
        <time>2019-06-20T11:11:24Z</time>
      </trkpt>
      <trkpt lat="43.729058" lon="-7.739676">
        <ele>39.619</ele>
        <time>2019-06-20T11:11:25Z</time>
      </trkpt>
      <trkpt lat="43.728995" lon="-7.739819">
        <ele>39.308</ele>
        <time>2019-06-20T11:11:26Z</time>
      </trkpt>
      <trkpt lat="43.728946" lon="-7.739927">
        <ele>39.624</ele>
        <time>2019-06-20T11:11:27Z</time>
      </trkpt>
      <trkpt lat="43.728897" lon="-7.740026">
        <ele>40.438</ele>
        <time>2019-06-20T11:11:28Z</time>
      </trkpt>
      <trkpt lat="43.728868" lon="-7.740095">
        <ele>40.579</ele>
        <time>2019-06-20T11:11:30Z</time>
      </trkpt>
      <trkpt lat="43.728801" lon="-7.740168">
        <ele>41.425</ele>
        <time>2019-06-20T11:12:38Z</time>
      </trkpt>
      <trkpt lat="43.728745" lon="-7.740262">
        <ele>41.892</ele>
        <time>2019-06-20T11:12:39Z</time>
      </trkpt>
      <trkpt lat="43.728690" lon="-7.740380">
        <ele>40.823</ele>
        <time>2019-06-20T11:12:40Z</time>
      </trkpt>
      <trkpt lat="43.728625" lon="-7.740514">
        <ele>39.585</ele>
        <time>2019-06-20T11:12:41Z</time>
      </trkpt>
      <trkpt lat="43.728549" lon="-7.740665">
        <ele>38.292</ele>
        <time>2019-06-20T11:12:42Z</time>
      </trkpt>
      <trkpt lat="43.728468" lon="-7.740813">
        <ele>37.037</ele>
        <time>2019-06-20T11:12:43Z</time>
      </trkpt>
      <trkpt lat="43.728387" lon="-7.740975">
        <ele>35.349</ele>
        <time>2019-06-20T11:12:44Z</time>
      </trkpt>
      <trkpt lat="43.728304" lon="-7.741144">
        <ele>32.713</ele>
        <time>2019-06-20T11:12:45Z</time>
      </trkpt>
      <trkpt lat="43.728219" lon="-7.741313">
        <ele>30.308</ele>
        <time>2019-06-20T11:12:46Z</time>
      </trkpt>
      <trkpt lat="43.728129" lon="-7.741477">
        <ele>29.156</ele>
        <time>2019-06-20T11:12:47Z</time>
      </trkpt>
      <trkpt lat="43.728034" lon="-7.741634">
        <ele>29.690</ele>
        <time>2019-06-20T11:12:48Z</time>
      </trkpt>
      <trkpt lat="43.727929" lon="-7.741784">
        <ele>30.931</ele>
        <time>2019-06-20T11:12:49Z</time>
      </trkpt>
      <trkpt lat="43.727821" lon="-7.741925">
        <ele>31.767</ele>
        <time>2019-06-20T11:12:50Z</time>
      </trkpt>
      <trkpt lat="43.727717" lon="-7.742061">
        <ele>31.814</ele>
        <time>2019-06-20T11:12:51Z</time>
      </trkpt>
      <trkpt lat="43.727608" lon="-7.742180">
        <ele>31.325</ele>
        <time>2019-06-20T11:12:52Z</time>
      </trkpt>
      <trkpt lat="43.727499" lon="-7.742299">
        <ele>29.667</ele>
        <time>2019-06-20T11:12:53Z</time>
      </trkpt>
      <trkpt lat="43.727381" lon="-7.742435">
        <ele>27.374</ele>
        <time>2019-06-20T11:12:54Z</time>
      </trkpt>
      <trkpt lat="43.727273" lon="-7.742539">
        <ele>25.295</ele>
        <time>2019-06-20T11:12:55Z</time>
      </trkpt>
      <trkpt lat="43.727200" lon="-7.742593">
        <ele>24.349</ele>
        <time>2019-06-20T11:12:56Z</time>
      </trkpt>
      <trkpt lat="43.727134" lon="-7.742634">
        <ele>24.123</ele>
        <time>2019-06-20T11:12:57Z</time>
      </trkpt>
      <trkpt lat="43.727073" lon="-7.742682">
        <ele>23.508</ele>
        <time>2019-06-20T11:12:58Z</time>
      </trkpt>
      <trkpt lat="43.727017" lon="-7.742718">
        <ele>23.142</ele>
        <time>2019-06-20T11:12:59Z</time>
      </trkpt>
      <trkpt lat="43.727051" lon="-7.742762">
        <ele>21.656</ele>
        <time>2019-06-20T11:13:00Z</time>
      </trkpt>
      <trkpt lat="43.727081" lon="-7.742810">
        <ele>20.647</ele>
        <time>2019-06-20T11:13:02Z</time>
      </trkpt>
      <trkpt lat="43.727166" lon="-7.742815">
        <ele>20.063</ele>
        <time>2019-06-20T11:13:04Z</time>
      </trkpt>
      <trkpt lat="43.727225" lon="-7.742812">
        <ele>19.630</ele>
        <time>2019-06-20T11:13:05Z</time>
      </trkpt>
      <trkpt lat="43.727286" lon="-7.742793">
        <ele>19.811</ele>
        <time>2019-06-20T11:13:06Z</time>
      </trkpt>
      <trkpt lat="43.727339" lon="-7.742776">
        <ele>20.073</ele>
        <time>2019-06-20T11:13:07Z</time>
      </trkpt>
      <trkpt lat="43.727385" lon="-7.742768">
        <ele>20.240</ele>
        <time>2019-06-20T11:13:08Z</time>
      </trkpt>
      <trkpt lat="43.727474" lon="-7.742731">
        <ele>21.053</ele>
        <time>2019-06-20T11:13:10Z</time>
      </trkpt>
      <trkpt lat="43.727539" lon="-7.742692">
        <ele>21.404</ele>
        <time>2019-06-20T11:13:12Z</time>
      </trkpt>
      <trkpt lat="43.727581" lon="-7.742719">
        <ele>20.214</ele>
        <time>2019-06-20T11:13:18Z</time>
      </trkpt>
      <trkpt lat="43.727508" lon="-7.742730">
        <ele>20.908</ele>
        <time>2019-06-20T11:13:23Z</time>
      </trkpt>
      <trkpt lat="43.727430" lon="-7.742733">
        <ele>21.068</ele>
        <time>2019-06-20T11:13:24Z</time>
      </trkpt>
      <trkpt lat="43.727338" lon="-7.742763">
        <ele>20.322</ele>
        <time>2019-06-20T11:13:25Z</time>
      </trkpt>
      <trkpt lat="43.727256" lon="-7.742790">
        <ele>19.933</ele>
        <time>2019-06-20T11:13:26Z</time>
      </trkpt>
      <trkpt lat="43.727180" lon="-7.742800">
        <ele>20.149</ele>
        <time>2019-06-20T11:13:27Z</time>
      </trkpt>
      <trkpt lat="43.727101" lon="-7.742802">
        <ele>20.656</ele>
        <time>2019-06-20T11:13:28Z</time>
      </trkpt>
      <trkpt lat="43.727040" lon="-7.742804">
        <ele>21.087</ele>
        <time>2019-06-20T11:13:29Z</time>
      </trkpt>
      <trkpt lat="43.726950" lon="-7.742806">
        <ele>21.679</ele>
        <time>2019-06-20T11:13:31Z</time>
      </trkpt>
      <trkpt lat="43.726889" lon="-7.742818">
        <ele>21.666</ele>
        <time>2019-06-20T11:13:32Z</time>
      </trkpt>
      <trkpt lat="43.726793" lon="-7.742843">
        <ele>21.572</ele>
        <time>2019-06-20T11:13:33Z</time>
      </trkpt>
      <trkpt lat="43.726701" lon="-7.742883">
        <ele>21.013</ele>
        <time>2019-06-20T11:13:34Z</time>
      </trkpt>
      <trkpt lat="43.726605" lon="-7.742936">
        <ele>20.414</ele>
        <time>2019-06-20T11:13:35Z</time>
      </trkpt>
      <trkpt lat="43.726512" lon="-7.743002">
        <ele>19.308</ele>
        <time>2019-06-20T11:13:36Z</time>
      </trkpt>
      <trkpt lat="43.726425" lon="-7.743079">
        <ele>17.830</ele>
        <time>2019-06-20T11:13:37Z</time>
      </trkpt>
      <trkpt lat="43.726344" lon="-7.743166">
        <ele>18.054</ele>
        <time>2019-06-20T11:13:38Z</time>
      </trkpt>
      <trkpt lat="43.726269" lon="-7.743266">
        <ele>18.195</ele>
        <time>2019-06-20T11:13:39Z</time>
      </trkpt>
      <trkpt lat="43.726192" lon="-7.743380">
        <ele>17.851</ele>
        <time>2019-06-20T11:13:40Z</time>
      </trkpt>
      <trkpt lat="43.726120" lon="-7.743510">
        <ele>17.738</ele>
        <time>2019-06-20T11:13:41Z</time>
      </trkpt>
      <trkpt lat="43.726057" lon="-7.743639">
        <ele>16.319</ele>
        <time>2019-06-20T11:13:42Z</time>
      </trkpt>
      <trkpt lat="43.725996" lon="-7.743795">
        <ele>14.241</ele>
        <time>2019-06-20T11:13:43Z</time>
      </trkpt>
      <trkpt lat="43.725936" lon="-7.743966">
        <ele>12.448</ele>
        <time>2019-06-20T11:13:44Z</time>
      </trkpt>
      <trkpt lat="43.725886" lon="-7.744138">
        <ele>11.916</ele>
        <time>2019-06-20T11:13:45Z</time>
      </trkpt>
      <trkpt lat="43.725834" lon="-7.744314">
        <ele>12.076</ele>
        <time>2019-06-20T11:13:46Z</time>
      </trkpt>
      <trkpt lat="43.725782" lon="-7.744497">
        <ele>12.313</ele>
        <time>2019-06-20T11:13:47Z</time>
      </trkpt>
      <trkpt lat="43.725726" lon="-7.744682">
        <ele>13.008</ele>
        <time>2019-06-20T11:13:48Z</time>
      </trkpt>
      <trkpt lat="43.725669" lon="-7.744872">
        <ele>14.314</ele>
        <time>2019-06-20T11:13:49Z</time>
      </trkpt>
      <trkpt lat="43.725613" lon="-7.745069">
        <ele>15.688</ele>
        <time>2019-06-20T11:13:50Z</time>
      </trkpt>
      <trkpt lat="43.725559" lon="-7.745263">
        <ele>16.919</ele>
        <time>2019-06-20T11:13:51Z</time>
      </trkpt>
      <trkpt lat="43.725506" lon="-7.745460">
        <ele>17.855</ele>
        <time>2019-06-20T11:13:52Z</time>
      </trkpt>
      <trkpt lat="43.725451" lon="-7.745657">
        <ele>18.432</ele>
        <time>2019-06-20T11:13:53Z</time>
      </trkpt>
      <trkpt lat="43.725393" lon="-7.745846">
        <ele>18.683</ele>
        <time>2019-06-20T11:13:54Z</time>
      </trkpt>
      <trkpt lat="43.725339" lon="-7.746044">
        <ele>18.685</ele>
        <time>2019-06-20T11:13:55Z</time>
      </trkpt>
      <trkpt lat="43.725286" lon="-7.746245">
        <ele>19.482</ele>
        <time>2019-06-20T11:13:56Z</time>
      </trkpt>
      <trkpt lat="43.725232" lon="-7.746441">
        <ele>20.524</ele>
        <time>2019-06-20T11:13:57Z</time>
      </trkpt>
      <trkpt lat="43.725181" lon="-7.746637">
        <ele>21.904</ele>
        <time>2019-06-20T11:13:58Z</time>
      </trkpt>
      <trkpt lat="43.725125" lon="-7.746819">
        <ele>23.214</ele>
        <time>2019-06-20T11:13:59Z</time>
      </trkpt>
      <trkpt lat="43.725074" lon="-7.747009">
        <ele>24.408</ele>
        <time>2019-06-20T11:14:00Z</time>
      </trkpt>
      <trkpt lat="43.725021" lon="-7.747192">
        <ele>25.795</ele>
        <time>2019-06-20T11:14:01Z</time>
      </trkpt>
      <trkpt lat="43.724972" lon="-7.747375">
        <ele>26.069</ele>
        <time>2019-06-20T11:14:02Z</time>
      </trkpt>
      <trkpt lat="43.724930" lon="-7.747530">
        <ele>26.030</ele>
        <time>2019-06-20T11:14:03Z</time>
      </trkpt>
      <trkpt lat="43.724891" lon="-7.747667">
        <ele>26.246</ele>
        <time>2019-06-20T11:14:04Z</time>
      </trkpt>
      <trkpt lat="43.724856" lon="-7.747778">
        <ele>26.553</ele>
        <time>2019-06-20T11:14:05Z</time>
      </trkpt>
      <trkpt lat="43.724835" lon="-7.747870">
        <ele>26.984</ele>
        <time>2019-06-20T11:14:06Z</time>
      </trkpt>
      <trkpt lat="43.724829" lon="-7.747957">
        <ele>27.356</ele>
        <time>2019-06-20T11:14:07Z</time>
      </trkpt>
      <trkpt lat="43.724848" lon="-7.748058">
        <ele>27.643</ele>
        <time>2019-06-20T11:14:08Z</time>
      </trkpt>
      <trkpt lat="43.724875" lon="-7.748160">
        <ele>27.637</ele>
        <time>2019-06-20T11:14:09Z</time>
      </trkpt>
      <trkpt lat="43.724909" lon="-7.748274">
        <ele>27.649</ele>
        <time>2019-06-20T11:14:10Z</time>
      </trkpt>
      <trkpt lat="43.724943" lon="-7.748390">
        <ele>27.413</ele>
        <time>2019-06-20T11:14:11Z</time>
      </trkpt>
      <trkpt lat="43.724989" lon="-7.748500">
        <ele>27.108</ele>
        <time>2019-06-20T11:14:12Z</time>
      </trkpt>
      <trkpt lat="43.725048" lon="-7.748611">
        <ele>26.586</ele>
        <time>2019-06-20T11:14:13Z</time>
      </trkpt>
      <trkpt lat="43.725132" lon="-7.748708">
        <ele>25.430</ele>
        <time>2019-06-20T11:14:14Z</time>
      </trkpt>
      <trkpt lat="43.725224" lon="-7.748807">
        <ele>24.051</ele>
        <time>2019-06-20T11:14:15Z</time>
      </trkpt>
      <trkpt lat="43.725320" lon="-7.748884">
        <ele>22.317</ele>
        <time>2019-06-20T11:14:16Z</time>
      </trkpt>
      <trkpt lat="43.725420" lon="-7.748960">
        <ele>20.614</ele>
        <time>2019-06-20T11:14:17Z</time>
      </trkpt>
      <trkpt lat="43.725513" lon="-7.749041">
        <ele>19.215</ele>
        <time>2019-06-20T11:14:18Z</time>
      </trkpt>
      <trkpt lat="43.725612" lon="-7.749121">
        <ele>18.247</ele>
        <time>2019-06-20T11:14:19Z</time>
      </trkpt>
      <trkpt lat="43.725707" lon="-7.749203">
        <ele>17.524</ele>
        <time>2019-06-20T11:14:20Z</time>
      </trkpt>
      <trkpt lat="43.725788" lon="-7.749277">
        <ele>16.989</ele>
        <time>2019-06-20T11:14:21Z</time>
      </trkpt>
      <trkpt lat="43.725858" lon="-7.749364">
        <ele>16.706</ele>
        <time>2019-06-20T11:14:22Z</time>
      </trkpt>
      <trkpt lat="43.725909" lon="-7.749471">
        <ele>17.026</ele>
        <time>2019-06-20T11:14:23Z</time>
      </trkpt>
      <trkpt lat="43.725977" lon="-7.749587">
        <ele>17.008</ele>
        <time>2019-06-20T11:14:24Z</time>
      </trkpt>
      <trkpt lat="43.726054" lon="-7.749669">
        <ele>16.561</ele>
        <time>2019-06-20T11:14:25Z</time>
      </trkpt>
      <trkpt lat="43.726148" lon="-7.749730">
        <ele>16.375</ele>
        <time>2019-06-20T11:14:26Z</time>
      </trkpt>
      <trkpt lat="43.726250" lon="-7.749771">
        <ele>16.996</ele>
        <time>2019-06-20T11:14:27Z</time>
      </trkpt>
      <trkpt lat="43.726360" lon="-7.749814">
        <ele>17.562</ele>
        <time>2019-06-20T11:14:28Z</time>
      </trkpt>
      <trkpt lat="43.726464" lon="-7.749878">
        <ele>18.429</ele>
        <time>2019-06-20T11:14:29Z</time>
      </trkpt>
      <trkpt lat="43.726542" lon="-7.749974">
        <ele>19.260</ele>
        <time>2019-06-20T11:14:30Z</time>
      </trkpt>
      <trkpt lat="43.726598" lon="-7.750102">
        <ele>20.372</ele>
        <time>2019-06-20T11:14:31Z</time>
      </trkpt>
      <trkpt lat="43.726653" lon="-7.750242">
        <ele>21.669</ele>
        <time>2019-06-20T11:14:32Z</time>
      </trkpt>
      <trkpt lat="43.726711" lon="-7.750370">
        <ele>22.698</ele>
        <time>2019-06-20T11:14:33Z</time>
      </trkpt>
      <trkpt lat="43.726769" lon="-7.750480">
        <ele>23.215</ele>
        <time>2019-06-20T11:14:34Z</time>
      </trkpt>
      <trkpt lat="43.726832" lon="-7.750556">
        <ele>23.626</ele>
        <time>2019-06-20T11:14:35Z</time>
      </trkpt>
      <trkpt lat="43.726915" lon="-7.750601">
        <ele>23.908</ele>
        <time>2019-06-20T11:14:36Z</time>
      </trkpt>
      <trkpt lat="43.727007" lon="-7.750610">
        <ele>24.032</ele>
        <time>2019-06-20T11:14:37Z</time>
      </trkpt>
      <trkpt lat="43.727109" lon="-7.750603">
        <ele>24.186</ele>
        <time>2019-06-20T11:14:38Z</time>
      </trkpt>
      <trkpt lat="43.727226" lon="-7.750591">
        <ele>24.177</ele>
        <time>2019-06-20T11:14:39Z</time>
      </trkpt>
      <trkpt lat="43.727350" lon="-7.750598">
        <ele>24.233</ele>
        <time>2019-06-20T11:14:40Z</time>
      </trkpt>
      <trkpt lat="43.727478" lon="-7.750607">
        <ele>24.290</ele>
        <time>2019-06-20T11:14:41Z</time>
      </trkpt>
      <trkpt lat="43.727597" lon="-7.750615">
        <ele>24.621</ele>
        <time>2019-06-20T11:14:42Z</time>
      </trkpt>
      <trkpt lat="43.727718" lon="-7.750625">
        <ele>25.063</ele>
        <time>2019-06-20T11:14:43Z</time>
      </trkpt>
      <trkpt lat="43.727831" lon="-7.750640">
        <ele>25.450</ele>
        <time>2019-06-20T11:14:44Z</time>
      </trkpt>
      <trkpt lat="43.727943" lon="-7.750660">
        <ele>25.763</ele>
        <time>2019-06-20T11:14:45Z</time>
      </trkpt>
      <trkpt lat="43.728049" lon="-7.750691">
        <ele>26.044</ele>
        <time>2019-06-20T11:14:46Z</time>
      </trkpt>
      <trkpt lat="43.728153" lon="-7.750740">
        <ele>26.018</ele>
        <time>2019-06-20T11:14:47Z</time>
      </trkpt>
      <trkpt lat="43.728259" lon="-7.750812">
        <ele>26.008</ele>
        <time>2019-06-20T11:14:48Z</time>
      </trkpt>
      <trkpt lat="43.728362" lon="-7.750887">
        <ele>26.559</ele>
        <time>2019-06-20T11:14:49Z</time>
      </trkpt>
      <trkpt lat="43.728461" lon="-7.750957">
        <ele>27.433</ele>
        <time>2019-06-20T11:14:50Z</time>
      </trkpt>
      <trkpt lat="43.728559" lon="-7.751025">
        <ele>28.274</ele>
        <time>2019-06-20T11:14:51Z</time>
      </trkpt>
      <trkpt lat="43.728641" lon="-7.751099">
        <ele>29.230</ele>
        <time>2019-06-20T11:14:52Z</time>
      </trkpt>
      <trkpt lat="43.728727" lon="-7.751190">
        <ele>31.037</ele>
        <time>2019-06-20T11:14:53Z</time>
      </trkpt>
      <trkpt lat="43.728776" lon="-7.751295">
        <ele>32.438</ele>
        <time>2019-06-20T11:14:54Z</time>
      </trkpt>
      <trkpt lat="43.728720" lon="-7.751446">
        <ele>33.340</ele>
        <time>2019-06-20T11:14:55Z</time>
      </trkpt>
      <trkpt lat="43.728720" lon="-7.751590">
        <ele>34.537</ele>
        <time>2019-06-20T11:14:56Z</time>
      </trkpt>
      <trkpt lat="43.728724" lon="-7.751732">
        <ele>35.762</ele>
        <time>2019-06-20T11:14:57Z</time>
      </trkpt>
      <trkpt lat="43.728737" lon="-7.751871">
        <ele>36.883</ele>
        <time>2019-06-20T11:14:58Z</time>
      </trkpt>
      <trkpt lat="43.728751" lon="-7.752005">
        <ele>37.711</ele>
        <time>2019-06-20T11:14:59Z</time>
      </trkpt>
      <trkpt lat="43.728782" lon="-7.752138">
        <ele>38.508</ele>
        <time>2019-06-20T11:15:00Z</time>
      </trkpt>
      <trkpt lat="43.728849" lon="-7.752262">
        <ele>39.849</ele>
        <time>2019-06-20T11:15:01Z</time>
      </trkpt>
      <trkpt lat="43.728907" lon="-7.752375">
        <ele>41.263</ele>
        <time>2019-06-20T11:15:02Z</time>
      </trkpt>
      <trkpt lat="43.728958" lon="-7.752483">
        <ele>42.164</ele>
        <time>2019-06-20T11:15:03Z</time>
      </trkpt>
      <trkpt lat="43.729004" lon="-7.752607">
        <ele>42.320</ele>
        <time>2019-06-20T11:15:04Z</time>
      </trkpt>
      <trkpt lat="43.729042" lon="-7.752743">
        <ele>42.647</ele>
        <time>2019-06-20T11:15:05Z</time>
      </trkpt>
      <trkpt lat="43.729080" lon="-7.752883">
        <ele>43.138</ele>
        <time>2019-06-20T11:15:06Z</time>
      </trkpt>
      <trkpt lat="43.729124" lon="-7.753023">
        <ele>43.540</ele>
        <time>2019-06-20T11:15:07Z</time>
      </trkpt>
      <trkpt lat="43.729178" lon="-7.753147">
        <ele>44.177</ele>
        <time>2019-06-20T11:15:08Z</time>
      </trkpt>
      <trkpt lat="43.729238" lon="-7.753249">
        <ele>44.697</ele>
        <time>2019-06-20T11:15:09Z</time>
      </trkpt>
      <trkpt lat="43.729301" lon="-7.753325">
        <ele>45.023</ele>
        <time>2019-06-20T11:15:10Z</time>
      </trkpt>
      <trkpt lat="43.729366" lon="-7.753385">
        <ele>45.225</ele>
        <time>2019-06-20T11:15:11Z</time>
      </trkpt>
      <trkpt lat="43.729433" lon="-7.753416">
        <ele>45.608</ele>
        <time>2019-06-20T11:15:12Z</time>
      </trkpt>
      <trkpt lat="43.729499" lon="-7.753443">
        <ele>45.972</ele>
        <time>2019-06-20T11:15:13Z</time>
      </trkpt>
      <trkpt lat="43.729567" lon="-7.753459">
        <ele>46.276</ele>
        <time>2019-06-20T11:15:14Z</time>
      </trkpt>
      <trkpt lat="43.729642" lon="-7.753480">
        <ele>46.547</ele>
        <time>2019-06-20T11:15:15Z</time>
      </trkpt>
      <trkpt lat="43.729716" lon="-7.753502">
        <ele>46.853</ele>
        <time>2019-06-20T11:15:16Z</time>
      </trkpt>
      <trkpt lat="43.729779" lon="-7.753522">
        <ele>46.810</ele>
        <time>2019-06-20T11:15:17Z</time>
      </trkpt>
      <trkpt lat="43.729824" lon="-7.753542">
        <ele>46.821</ele>
        <time>2019-06-20T11:15:18Z</time>
      </trkpt>
      <trkpt lat="43.729871" lon="-7.753557">
        <ele>46.813</ele>
        <time>2019-06-20T11:15:19Z</time>
      </trkpt>
      <trkpt lat="43.729927" lon="-7.753582">
        <ele>46.940</ele>
        <time>2019-06-20T11:15:20Z</time>
      </trkpt>
      <trkpt lat="43.729960" lon="-7.753506">
        <ele>47.393</ele>
        <time>2019-06-20T11:15:21Z</time>
      </trkpt>
      <trkpt lat="43.730014" lon="-7.753457">
        <ele>47.565</ele>
        <time>2019-06-20T11:15:22Z</time>
      </trkpt>
      <trkpt lat="43.730080" lon="-7.753366">
        <ele>47.121</ele>
        <time>2019-06-20T11:15:23Z</time>
      </trkpt>
      <trkpt lat="43.730148" lon="-7.753246">
        <ele>46.608</ele>
        <time>2019-06-20T11:15:24Z</time>
      </trkpt>
      <trkpt lat="43.730233" lon="-7.753134">
        <ele>46.192</ele>
        <time>2019-06-20T11:15:25Z</time>
      </trkpt>
      <trkpt lat="43.730310" lon="-7.753008">
        <ele>45.666</ele>
        <time>2019-06-20T11:15:26Z</time>
      </trkpt>
      <trkpt lat="43.730403" lon="-7.752867">
        <ele>44.857</ele>
        <time>2019-06-20T11:15:27Z</time>
      </trkpt>
      <trkpt lat="43.730494" lon="-7.752716">
        <ele>44.863</ele>
        <time>2019-06-20T11:15:28Z</time>
      </trkpt>
      <trkpt lat="43.730601" lon="-7.752570">
        <ele>44.640</ele>
        <time>2019-06-20T11:15:29Z</time>
      </trkpt>
      <trkpt lat="43.730709" lon="-7.752427">
        <ele>44.461</ele>
        <time>2019-06-20T11:15:30Z</time>
      </trkpt>
      <trkpt lat="43.730825" lon="-7.752288">
        <ele>44.043</ele>
        <time>2019-06-20T11:15:31Z</time>
      </trkpt>
      <trkpt lat="43.730919" lon="-7.752131">
        <ele>44.440</ele>
        <time>2019-06-20T11:15:32Z</time>
      </trkpt>
      <trkpt lat="43.731021" lon="-7.751982">
        <ele>44.972</ele>
        <time>2019-06-20T11:15:33Z</time>
      </trkpt>
      <trkpt lat="43.731118" lon="-7.751840">
        <ele>46.013</ele>
        <time>2019-06-20T11:15:34Z</time>
      </trkpt>
      <trkpt lat="43.731210" lon="-7.751702">
        <ele>46.414</ele>
        <time>2019-06-20T11:15:35Z</time>
      </trkpt>
      <trkpt lat="43.731303" lon="-7.751573">
        <ele>47.108</ele>
        <time>2019-06-20T11:15:36Z</time>
      </trkpt>
      <trkpt lat="43.731406" lon="-7.751458">
        <ele>48.570</ele>
        <time>2019-06-20T11:15:37Z</time>
      </trkpt>
      <trkpt lat="43.731530" lon="-7.751346">
        <ele>49.174</ele>
        <time>2019-06-20T11:15:38Z</time>
      </trkpt>
      <trkpt lat="43.731638" lon="-7.751243">
        <ele>49.565</ele>
        <time>2019-06-20T11:15:39Z</time>
      </trkpt>
      <trkpt lat="43.731753" lon="-7.751155">
        <ele>49.511</ele>
        <time>2019-06-20T11:15:40Z</time>
      </trkpt>
      <trkpt lat="43.731862" lon="-7.751073">
        <ele>49.498</ele>
        <time>2019-06-20T11:15:41Z</time>
      </trkpt>
      <trkpt lat="43.731959" lon="-7.750997">
        <ele>49.399</ele>
        <time>2019-06-20T11:15:42Z</time>
      </trkpt>
      <trkpt lat="43.732061" lon="-7.750923">
        <ele>48.861</ele>
        <time>2019-06-20T11:15:43Z</time>
      </trkpt>
      <trkpt lat="43.732153" lon="-7.750848">
        <ele>48.428</ele>
        <time>2019-06-20T11:15:44Z</time>
      </trkpt>
      <trkpt lat="43.732250" lon="-7.750776">
        <ele>47.866</ele>
        <time>2019-06-20T11:15:45Z</time>
      </trkpt>
      <trkpt lat="43.732346" lon="-7.750698">
        <ele>47.129</ele>
        <time>2019-06-20T11:15:46Z</time>
      </trkpt>
      <trkpt lat="43.732443" lon="-7.750630">
        <ele>46.421</ele>
        <time>2019-06-20T11:15:47Z</time>
      </trkpt>
      <trkpt lat="43.732563" lon="-7.750581">
        <ele>45.508</ele>
        <time>2019-06-20T11:15:48Z</time>
      </trkpt>
      <trkpt lat="43.732684" lon="-7.750543">
        <ele>44.749</ele>
        <time>2019-06-20T11:15:49Z</time>
      </trkpt>
      <trkpt lat="43.732806" lon="-7.750521">
        <ele>44.193</ele>
        <time>2019-06-20T11:15:50Z</time>
      </trkpt>
      <trkpt lat="43.732931" lon="-7.750496">
        <ele>44.254</ele>
        <time>2019-06-20T11:15:51Z</time>
      </trkpt>
      <trkpt lat="43.733057" lon="-7.750481">
        <ele>44.330</ele>
        <time>2019-06-20T11:15:52Z</time>
      </trkpt>
      <trkpt lat="43.733210" lon="-7.750441">
        <ele>44.757</ele>
        <time>2019-06-20T11:15:53Z</time>
      </trkpt>
      <trkpt lat="43.733348" lon="-7.750404">
        <ele>45.088</ele>
        <time>2019-06-20T11:15:54Z</time>
      </trkpt>
      <trkpt lat="43.733468" lon="-7.750354">
        <ele>44.990</ele>
        <time>2019-06-20T11:15:55Z</time>
      </trkpt>
      <trkpt lat="43.733598" lon="-7.750314">
        <ele>44.987</ele>
        <time>2019-06-20T11:15:56Z</time>
      </trkpt>
      <trkpt lat="43.733726" lon="-7.750270">
        <ele>44.637</ele>
        <time>2019-06-20T11:15:57Z</time>
      </trkpt>
      <trkpt lat="43.733852" lon="-7.750238">
        <ele>44.349</ele>
        <time>2019-06-20T11:15:58Z</time>
      </trkpt>
      <trkpt lat="43.733974" lon="-7.750205">
        <ele>42.413</ele>
        <time>2019-06-20T11:15:59Z</time>
      </trkpt>
      <trkpt lat="43.734099" lon="-7.750188">
        <ele>39.808</ele>
        <time>2019-06-20T11:16:00Z</time>
      </trkpt>
      <trkpt lat="43.734235" lon="-7.750188">
        <ele>37.366</ele>
        <time>2019-06-20T11:16:01Z</time>
      </trkpt>
      <trkpt lat="43.734347" lon="-7.750195">
        <ele>35.570</ele>
        <time>2019-06-20T11:16:02Z</time>
      </trkpt>
      <trkpt lat="43.734460" lon="-7.750219">
        <ele>33.841</ele>
        <time>2019-06-20T11:16:03Z</time>
      </trkpt>
      <trkpt lat="43.734583" lon="-7.750234">
        <ele>32.567</ele>
        <time>2019-06-20T11:16:04Z</time>
      </trkpt>
      <trkpt lat="43.734689" lon="-7.750238">
        <ele>31.494</ele>
        <time>2019-06-20T11:16:05Z</time>
      </trkpt>
      <trkpt lat="43.734798" lon="-7.750232">
        <ele>31.535</ele>
        <time>2019-06-20T11:16:06Z</time>
      </trkpt>
      <trkpt lat="43.734896" lon="-7.750201">
        <ele>31.937</ele>
        <time>2019-06-20T11:16:07Z</time>
      </trkpt>
      <trkpt lat="43.734992" lon="-7.750175">
        <ele>32.294</ele>
        <time>2019-06-20T11:16:08Z</time>
      </trkpt>
      <trkpt lat="43.735079" lon="-7.750146">
        <ele>32.676</ele>
        <time>2019-06-20T11:16:09Z</time>
      </trkpt>
      <trkpt lat="43.735158" lon="-7.750112">
        <ele>32.990</ele>
        <time>2019-06-20T11:16:10Z</time>
      </trkpt>
      <trkpt lat="43.735245" lon="-7.750073">
        <ele>33.319</ele>
        <time>2019-06-20T11:16:11Z</time>
      </trkpt>
      <trkpt lat="43.735320" lon="-7.750028">
        <ele>32.908</ele>
        <time>2019-06-20T11:16:12Z</time>
      </trkpt>
      <trkpt lat="43.735407" lon="-7.749998">
        <ele>32.080</ele>
        <time>2019-06-20T11:16:13Z</time>
      </trkpt>
      <trkpt lat="43.735492" lon="-7.749960">
        <ele>31.034</ele>
        <time>2019-06-20T11:16:14Z</time>
      </trkpt>
      <trkpt lat="43.735560" lon="-7.749926">
        <ele>30.245</ele>
        <time>2019-06-20T11:16:15Z</time>
      </trkpt>
      <trkpt lat="43.735615" lon="-7.749888">
        <ele>29.331</ele>
        <time>2019-06-20T11:16:16Z</time>
      </trkpt>
      <trkpt lat="43.735672" lon="-7.749857">
        <ele>28.458</ele>
        <time>2019-06-20T11:16:17Z</time>
      </trkpt>
      <trkpt lat="43.735732" lon="-7.749826">
        <ele>27.529</ele>
        <time>2019-06-20T11:16:18Z</time>
      </trkpt>
      <trkpt lat="43.735792" lon="-7.749787">
        <ele>26.341</ele>
        <time>2019-06-20T11:16:19Z</time>
      </trkpt>
      <trkpt lat="43.735844" lon="-7.749749">
        <ele>25.478</ele>
        <time>2019-06-20T11:16:20Z</time>
      </trkpt>
      <trkpt lat="43.735900" lon="-7.749717">
        <ele>25.214</ele>
        <time>2019-06-20T11:16:21Z</time>
      </trkpt>
      <trkpt lat="43.735953" lon="-7.749677">
        <ele>25.354</ele>
        <time>2019-06-20T11:16:22Z</time>
      </trkpt>
      <trkpt lat="43.736014" lon="-7.749644">
        <ele>25.609</ele>
        <time>2019-06-20T11:16:23Z</time>
      </trkpt>
      <trkpt lat="43.736073" lon="-7.749603">
        <ele>25.808</ele>
        <time>2019-06-20T11:16:24Z</time>
      </trkpt>
      <trkpt lat="43.736144" lon="-7.749561">
        <ele>26.394</ele>
        <time>2019-06-20T11:16:25Z</time>
      </trkpt>
      <trkpt lat="43.736203" lon="-7.749517">
        <ele>26.938</ele>
        <time>2019-06-20T11:16:26Z</time>
      </trkpt>
      <trkpt lat="43.736279" lon="-7.749475">
        <ele>27.789</ele>
        <time>2019-06-20T11:16:27Z</time>
      </trkpt>
      <trkpt lat="43.736355" lon="-7.749431">
        <ele>28.555</ele>
        <time>2019-06-20T11:16:28Z</time>
      </trkpt>
      <trkpt lat="43.736425" lon="-7.749391">
        <ele>28.172</ele>
        <time>2019-06-20T11:16:29Z</time>
      </trkpt>
      <trkpt lat="43.736500" lon="-7.749347">
        <ele>27.013</ele>
        <time>2019-06-20T11:16:30Z</time>
      </trkpt>
      <trkpt lat="43.736580" lon="-7.749302">
        <ele>26.155</ele>
        <time>2019-06-20T11:16:31Z</time>
      </trkpt>
      <trkpt lat="43.736662" lon="-7.749257">
        <ele>25.452</ele>
        <time>2019-06-20T11:16:32Z</time>
      </trkpt>
      <trkpt lat="43.736732" lon="-7.749209">
        <ele>24.299</ele>
        <time>2019-06-20T11:16:33Z</time>
      </trkpt>
      <trkpt lat="43.736811" lon="-7.749170">
        <ele>22.907</ele>
        <time>2019-06-20T11:16:34Z</time>
      </trkpt>
      <trkpt lat="43.736889" lon="-7.749128">
        <ele>21.627</ele>
        <time>2019-06-20T11:16:35Z</time>
      </trkpt>
      <trkpt lat="43.736962" lon="-7.749088">
        <ele>20.708</ele>
        <time>2019-06-20T11:16:36Z</time>
      </trkpt>
      <trkpt lat="43.737045" lon="-7.749035">
        <ele>20.222</ele>
        <time>2019-06-20T11:16:37Z</time>
      </trkpt>
      <trkpt lat="43.737120" lon="-7.748975">
        <ele>19.796</ele>
        <time>2019-06-20T11:16:38Z</time>
      </trkpt>
      <trkpt lat="43.737196" lon="-7.748907">
        <ele>19.227</ele>
        <time>2019-06-20T11:16:39Z</time>
      </trkpt>
      <trkpt lat="43.737271" lon="-7.748824">
        <ele>18.923</ele>
        <time>2019-06-20T11:16:40Z</time>
      </trkpt>
      <trkpt lat="43.737339" lon="-7.748728">
        <ele>18.840</ele>
        <time>2019-06-20T11:16:41Z</time>
      </trkpt>
      <trkpt lat="43.737402" lon="-7.748622">
        <ele>18.781</ele>
        <time>2019-06-20T11:16:42Z</time>
      </trkpt>
      <trkpt lat="43.737451" lon="-7.748533">
        <ele>18.583</ele>
        <time>2019-06-20T11:16:43Z</time>
      </trkpt>
      <trkpt lat="43.737483" lon="-7.748453">
        <ele>18.430</ele>
        <time>2019-06-20T11:16:44Z</time>
      </trkpt>
      <trkpt lat="43.737530" lon="-7.748364">
        <ele>18.574</ele>
        <time>2019-06-20T11:16:45Z</time>
      </trkpt>
      <trkpt lat="43.737567" lon="-7.748273">
        <ele>18.956</ele>
        <time>2019-06-20T11:16:46Z</time>
      </trkpt>
      <trkpt lat="43.737612" lon="-7.748180">
        <ele>19.521</ele>
        <time>2019-06-20T11:16:47Z</time>
      </trkpt>
      <trkpt lat="43.737658" lon="-7.748089">
        <ele>20.408</ele>
        <time>2019-06-20T11:16:48Z</time>
      </trkpt>
      <trkpt lat="43.737705" lon="-7.748000">
        <ele>21.560</ele>
        <time>2019-06-20T11:16:49Z</time>
      </trkpt>
      <trkpt lat="43.737751" lon="-7.747912">
        <ele>22.524</ele>
        <time>2019-06-20T11:16:50Z</time>
      </trkpt>
      <trkpt lat="43.737797" lon="-7.747823">
        <ele>23.485</ele>
        <time>2019-06-20T11:16:51Z</time>
      </trkpt>
      <trkpt lat="43.737855" lon="-7.747737">
        <ele>25.071</ele>
        <time>2019-06-20T11:16:52Z</time>
      </trkpt>
      <trkpt lat="43.737914" lon="-7.747657">
        <ele>26.638</ele>
        <time>2019-06-20T11:16:53Z</time>
      </trkpt>
      <trkpt lat="43.737977" lon="-7.747582">
        <ele>28.599</ele>
        <time>2019-06-20T11:16:54Z</time>
      </trkpt>
      <trkpt lat="43.738038" lon="-7.747512">
        <ele>30.591</ele>
        <time>2019-06-20T11:16:55Z</time>
      </trkpt>
      <trkpt lat="43.738106" lon="-7.747453">
        <ele>31.088</ele>
        <time>2019-06-20T11:16:56Z</time>
      </trkpt>
      <trkpt lat="43.738180" lon="-7.747403">
        <ele>31.398</ele>
        <time>2019-06-20T11:16:57Z</time>
      </trkpt>
      <trkpt lat="43.738256" lon="-7.747361">
        <ele>31.715</ele>
        <time>2019-06-20T11:16:58Z</time>
      </trkpt>
      <trkpt lat="43.738335" lon="-7.747317">
        <ele>32.126</ele>
        <time>2019-06-20T11:16:59Z</time>
      </trkpt>
      <trkpt lat="43.738417" lon="-7.747298">
        <ele>31.908</ele>
        <time>2019-06-20T11:17:00Z</time>
      </trkpt>
      <trkpt lat="43.738508" lon="-7.747280">
        <ele>31.952</ele>
        <time>2019-06-20T11:17:01Z</time>
      </trkpt>
      <trkpt lat="43.738609" lon="-7.747284">
        <ele>32.366</ele>
        <time>2019-06-20T11:17:02Z</time>
      </trkpt>
      <trkpt lat="43.738727" lon="-7.747286">
        <ele>32.737</ele>
        <time>2019-06-20T11:17:03Z</time>
      </trkpt>
      <trkpt lat="43.738849" lon="-7.747304">
        <ele>33.483</ele>
        <time>2019-06-20T11:17:04Z</time>
      </trkpt>
      <trkpt lat="43.738971" lon="-7.747325">
        <ele>33.670</ele>
        <time>2019-06-20T11:17:05Z</time>
      </trkpt>
      <trkpt lat="43.739094" lon="-7.747356">
        <ele>33.711</ele>
        <time>2019-06-20T11:17:06Z</time>
      </trkpt>
      <trkpt lat="43.739278" lon="-7.747416">
        <ele>34.153</ele>
        <time>2019-06-20T11:17:07Z</time>
      </trkpt>
      <trkpt lat="43.739431" lon="-7.747458">
        <ele>34.320</ele>
        <time>2019-06-20T11:17:08Z</time>
      </trkpt>
      <trkpt lat="43.739588" lon="-7.747493">
        <ele>34.399</ele>
        <time>2019-06-20T11:17:09Z</time>
      </trkpt>
      <trkpt lat="43.739740" lon="-7.747531">
        <ele>35.207</ele>
        <time>2019-06-20T11:17:10Z</time>
      </trkpt>
      <trkpt lat="43.739891" lon="-7.747566">
        <ele>38.327</ele>
        <time>2019-06-20T11:17:11Z</time>
      </trkpt>
      <trkpt lat="43.740038" lon="-7.747592">
        <ele>40.208</ele>
        <time>2019-06-20T11:17:12Z</time>
      </trkpt>
      <trkpt lat="43.740189" lon="-7.747609">
        <ele>40.112</ele>
        <time>2019-06-20T11:17:13Z</time>
      </trkpt>
      <trkpt lat="43.740334" lon="-7.747606">
        <ele>39.866</ele>
        <time>2019-06-20T11:17:14Z</time>
      </trkpt>
      <trkpt lat="43.740479" lon="-7.747603">
        <ele>39.777</ele>
        <time>2019-06-20T11:17:15Z</time>
      </trkpt>
      <trkpt lat="43.740611" lon="-7.747559">
        <ele>40.413</ele>
        <time>2019-06-20T11:17:16Z</time>
      </trkpt>
      <trkpt lat="43.740745" lon="-7.747520">
        <ele>42.660</ele>
        <time>2019-06-20T11:17:17Z</time>
      </trkpt>
      <trkpt lat="43.740892" lon="-7.747466">
        <ele>44.531</ele>
        <time>2019-06-20T11:17:18Z</time>
      </trkpt>
      <trkpt lat="43.741012" lon="-7.747365">
        <ele>45.033</ele>
        <time>2019-06-20T11:17:19Z</time>
      </trkpt>
      <trkpt lat="43.741098" lon="-7.747225">
        <ele>43.910</ele>
        <time>2019-06-20T11:17:20Z</time>
      </trkpt>
      <trkpt lat="43.741177" lon="-7.747051">
        <ele>44.292</ele>
        <time>2019-06-20T11:17:21Z</time>
      </trkpt>
      <trkpt lat="43.741275" lon="-7.746891">
        <ele>45.173</ele>
        <time>2019-06-20T11:17:22Z</time>
      </trkpt>
      <trkpt lat="43.741315" lon="-7.746722">
        <ele>46.620</ele>
        <time>2019-06-20T11:17:23Z</time>
      </trkpt>
      <trkpt lat="43.741371" lon="-7.746557">
        <ele>48.908</ele>
        <time>2019-06-20T11:17:24Z</time>
      </trkpt>
      <trkpt lat="43.741437" lon="-7.746399">
        <ele>51.122</ele>
        <time>2019-06-20T11:17:25Z</time>
      </trkpt>
      <trkpt lat="43.741515" lon="-7.746252">
        <ele>51.086</ele>
        <time>2019-06-20T11:17:26Z</time>
      </trkpt>
      <trkpt lat="43.741584" lon="-7.746115">
        <ele>50.767</ele>
        <time>2019-06-20T11:17:27Z</time>
      </trkpt>
      <trkpt lat="43.741648" lon="-7.745987">
        <ele>50.013</ele>
        <time>2019-06-20T11:17:28Z</time>
      </trkpt>
      <trkpt lat="43.741716" lon="-7.745865">
        <ele>49.140</ele>
        <time>2019-06-20T11:17:29Z</time>
      </trkpt>
      <trkpt lat="43.741769" lon="-7.745741">
        <ele>47.611</ele>
        <time>2019-06-20T11:17:30Z</time>
      </trkpt>
      <trkpt lat="43.741824" lon="-7.745620">
        <ele>46.183</ele>
        <time>2019-06-20T11:17:31Z</time>
      </trkpt>
      <trkpt lat="43.741862" lon="-7.745522">
        <ele>45.120</ele>
        <time>2019-06-20T11:17:32Z</time>
      </trkpt>
      <trkpt lat="43.741894" lon="-7.745461">
        <ele>44.826</ele>
        <time>2019-06-20T11:17:33Z</time>
      </trkpt>
      <trkpt lat="43.741925" lon="-7.745414">
        <ele>44.547</ele>
        <time>2019-06-20T11:17:34Z</time>
      </trkpt>
      <trkpt lat="43.741971" lon="-7.745390">
        <ele>44.311</ele>
        <time>2019-06-20T11:17:35Z</time>
      </trkpt>
      <trkpt lat="43.742017" lon="-7.745395">
        <ele>44.108</ele>
        <time>2019-06-20T11:17:36Z</time>
      </trkpt>
      <trkpt lat="43.742056" lon="-7.745446">
        <ele>44.345</ele>
        <time>2019-06-20T11:17:37Z</time>
      </trkpt>
      <trkpt lat="43.742098" lon="-7.745534">
        <ele>44.829</ele>
        <time>2019-06-20T11:17:38Z</time>
      </trkpt>
      <trkpt lat="43.742119" lon="-7.745697">
        <ele>46.510</ele>
        <time>2019-06-20T11:17:39Z</time>
      </trkpt>
      <trkpt lat="43.742142" lon="-7.745852">
        <ele>48.316</ele>
        <time>2019-06-20T11:17:40Z</time>
      </trkpt>
      <trkpt lat="43.742173" lon="-7.746003">
        <ele>50.883</ele>
        <time>2019-06-20T11:17:41Z</time>
      </trkpt>
      <trkpt lat="43.742212" lon="-7.746143">
        <ele>53.034</ele>
        <time>2019-06-20T11:17:42Z</time>
      </trkpt>
      <trkpt lat="43.742260" lon="-7.746259">
        <ele>53.446</ele>
        <time>2019-06-20T11:17:43Z</time>
      </trkpt>
      <trkpt lat="43.742321" lon="-7.746379">
        <ele>53.913</ele>
        <time>2019-06-20T11:17:44Z</time>
      </trkpt>
      <trkpt lat="43.742423" lon="-7.746487">
        <ele>54.673</ele>
        <time>2019-06-20T11:17:45Z</time>
      </trkpt>
      <trkpt lat="43.742527" lon="-7.746598">
        <ele>55.685</ele>
        <time>2019-06-20T11:17:46Z</time>
      </trkpt>
      <trkpt lat="43.742608" lon="-7.746701">
        <ele>56.513</ele>
        <time>2019-06-20T11:17:47Z</time>
      </trkpt>
      <trkpt lat="43.742705" lon="-7.746809">
        <ele>56.908</ele>
        <time>2019-06-20T11:17:48Z</time>
      </trkpt>
      <trkpt lat="43.742795" lon="-7.746911">
        <ele>56.920</ele>
        <time>2019-06-20T11:17:49Z</time>
      </trkpt>
      <trkpt lat="43.742867" lon="-7.747029">
        <ele>57.354</ele>
        <time>2019-06-20T11:17:50Z</time>
      </trkpt>
      <trkpt lat="43.742958" lon="-7.747159">
        <ele>58.075</ele>
        <time>2019-06-20T11:17:51Z</time>
      </trkpt>
      <trkpt lat="43.743060" lon="-7.747282">
        <ele>58.471</ele>
        <time>2019-06-20T11:17:52Z</time>
      </trkpt>
      <trkpt lat="43.743153" lon="-7.747376">
        <ele>57.328</ele>
        <time>2019-06-20T11:17:53Z</time>
      </trkpt>
      <trkpt lat="43.743241" lon="-7.747459">
        <ele>55.929</ele>
        <time>2019-06-20T11:17:54Z</time>
      </trkpt>
      <trkpt lat="43.743325" lon="-7.747544">
        <ele>54.311</ele>
        <time>2019-06-20T11:17:55Z</time>
      </trkpt>
      <trkpt lat="43.743391" lon="-7.747617">
        <ele>53.618</ele>
        <time>2019-06-20T11:17:56Z</time>
      </trkpt>
      <trkpt lat="43.743444" lon="-7.747662">
        <ele>53.088</ele>
        <time>2019-06-20T11:17:57Z</time>
      </trkpt>
      <trkpt lat="43.743539" lon="-7.747687">
        <ele>51.724</ele>
        <time>2019-06-20T11:17:58Z</time>
      </trkpt>
      <trkpt lat="43.743736" lon="-7.747710">
        <ele>50.026</ele>
        <time>2019-06-20T11:17:59Z</time>
      </trkpt>
      <trkpt lat="43.743843" lon="-7.747617">
        <ele>49.208</ele>
        <time>2019-06-20T11:18:00Z</time>
      </trkpt>
      <trkpt lat="43.743961" lon="-7.747621">
        <ele>48.991</ele>
        <time>2019-06-20T11:18:01Z</time>
      </trkpt>
      <trkpt lat="43.744089" lon="-7.747596">
        <ele>48.595</ele>
        <time>2019-06-20T11:18:02Z</time>
      </trkpt>
      <trkpt lat="43.744218" lon="-7.747562">
        <ele>48.656</ele>
        <time>2019-06-20T11:18:03Z</time>
      </trkpt>
      <trkpt lat="43.744330" lon="-7.747526">
        <ele>49.392</ele>
        <time>2019-06-20T11:18:04Z</time>
      </trkpt>
      <trkpt lat="43.744450" lon="-7.747496">
        <ele>50.079</ele>
        <time>2019-06-20T11:18:05Z</time>
      </trkpt>
      <trkpt lat="43.744540" lon="-7.747472">
        <ele>49.830</ele>
        <time>2019-06-20T11:18:06Z</time>
      </trkpt>
      <trkpt lat="43.744623" lon="-7.747451">
        <ele>49.512</ele>
        <time>2019-06-20T11:18:07Z</time>
      </trkpt>
      <trkpt lat="43.744698" lon="-7.747442">
        <ele>49.499</ele>
        <time>2019-06-20T11:18:08Z</time>
      </trkpt>
      <trkpt lat="43.744764" lon="-7.747433">
        <ele>48.061</ele>
        <time>2019-06-20T11:18:09Z</time>
      </trkpt>
      <trkpt lat="43.744827" lon="-7.747429">
        <ele>46.021</ele>
        <time>2019-06-20T11:18:10Z</time>
      </trkpt>
      <trkpt lat="43.744874" lon="-7.747426">
        <ele>44.513</ele>
        <time>2019-06-20T11:18:11Z</time>
      </trkpt>
      <trkpt lat="43.744955" lon="-7.747449">
        <ele>42.408</ele>
        <time>2019-06-20T11:18:13Z</time>
      </trkpt>
      <trkpt lat="43.745001" lon="-7.747474">
        <ele>41.539</ele>
        <time>2019-06-20T11:18:14Z</time>
      </trkpt>
      <trkpt lat="43.745037" lon="-7.747531">
        <ele>40.623</ele>
        <time>2019-06-20T11:18:15Z</time>
      </trkpt>
      <trkpt lat="43.745065" lon="-7.747590">
        <ele>40.024</ele>
        <time>2019-06-20T11:18:16Z</time>
      </trkpt>
      <trkpt lat="43.745082" lon="-7.747655">
        <ele>39.880</ele>
        <time>2019-06-20T11:18:17Z</time>
      </trkpt>
      <trkpt lat="43.745091" lon="-7.747725">
        <ele>40.127</ele>
        <time>2019-06-20T11:18:18Z</time>
      </trkpt>
      <trkpt lat="43.745089" lon="-7.747793">
        <ele>41.158</ele>
        <time>2019-06-20T11:18:19Z</time>
      </trkpt>
      <trkpt lat="43.745088" lon="-7.747888">
        <ele>42.460</ele>
        <time>2019-06-20T11:18:20Z</time>
      </trkpt>
      <trkpt lat="43.745080" lon="-7.747984">
        <ele>44.137</ele>
        <time>2019-06-20T11:18:21Z</time>
      </trkpt>
      <trkpt lat="43.745064" lon="-7.748088">
        <ele>46.154</ele>
        <time>2019-06-20T11:18:22Z</time>
      </trkpt>
      <trkpt lat="43.745048" lon="-7.748205">
        <ele>47.856</ele>
        <time>2019-06-20T11:18:23Z</time>
      </trkpt>
      <trkpt lat="43.745031" lon="-7.748323">
        <ele>49.611</ele>
        <time>2019-06-20T11:18:24Z</time>
      </trkpt>
      <trkpt lat="43.745016" lon="-7.748445">
        <ele>50.808</ele>
        <time>2019-06-20T11:18:25Z</time>
      </trkpt>
      <trkpt lat="43.744994" lon="-7.748566">
        <ele>51.898</ele>
        <time>2019-06-20T11:18:26Z</time>
      </trkpt>
      <trkpt lat="43.744982" lon="-7.748694">
        <ele>52.972</ele>
        <time>2019-06-20T11:18:27Z</time>
      </trkpt>
      <trkpt lat="43.744969" lon="-7.748830">
        <ele>54.233</ele>
        <time>2019-06-20T11:18:28Z</time>
      </trkpt>
      <trkpt lat="43.744950" lon="-7.748966">
        <ele>54.769</ele>
        <time>2019-06-20T11:18:29Z</time>
      </trkpt>
      <trkpt lat="43.744926" lon="-7.749093">
        <ele>54.736</ele>
        <time>2019-06-20T11:18:30Z</time>
      </trkpt>
      <trkpt lat="43.744897" lon="-7.749215">
        <ele>54.537</ele>
        <time>2019-06-20T11:18:31Z</time>
      </trkpt>
      <trkpt lat="43.744861" lon="-7.749328">
        <ele>54.269</ele>
        <time>2019-06-20T11:18:32Z</time>
      </trkpt>
      <trkpt lat="43.744823" lon="-7.749451">
        <ele>53.986</ele>
        <time>2019-06-20T11:18:33Z</time>
      </trkpt>
      <trkpt lat="43.744789" lon="-7.749564">
        <ele>53.061</ele>
        <time>2019-06-20T11:18:34Z</time>
      </trkpt>
      <trkpt lat="43.744756" lon="-7.749662">
        <ele>52.321</ele>
        <time>2019-06-20T11:18:35Z</time>
      </trkpt>
      <trkpt lat="43.744726" lon="-7.749748">
        <ele>51.713</ele>
        <time>2019-06-20T11:18:36Z</time>
      </trkpt>
      <trkpt lat="43.744696" lon="-7.749831">
        <ele>50.808</ele>
        <time>2019-06-20T11:18:37Z</time>
      </trkpt>
      <trkpt lat="43.744675" lon="-7.749914">
        <ele>50.089</ele>
        <time>2019-06-20T11:18:38Z</time>
      </trkpt>
      <trkpt lat="43.744671" lon="-7.750006">
        <ele>49.183</ele>
        <time>2019-06-20T11:18:39Z</time>
      </trkpt>
      <trkpt lat="43.744675" lon="-7.750109">
        <ele>48.524</ele>
        <time>2019-06-20T11:18:40Z</time>
      </trkpt>
      <trkpt lat="43.744679" lon="-7.750206">
        <ele>47.980</ele>
        <time>2019-06-20T11:18:41Z</time>
      </trkpt>
      <trkpt lat="43.744686" lon="-7.750289">
        <ele>47.467</ele>
        <time>2019-06-20T11:18:42Z</time>
      </trkpt>
      <trkpt lat="43.744681" lon="-7.750371">
        <ele>47.518</ele>
        <time>2019-06-20T11:18:43Z</time>
      </trkpt>
      <trkpt lat="43.744677" lon="-7.750458">
        <ele>47.650</ele>
        <time>2019-06-20T11:18:44Z</time>
      </trkpt>
      <trkpt lat="43.744669" lon="-7.750546">
        <ele>47.827</ele>
        <time>2019-06-20T11:18:45Z</time>
      </trkpt>
      <trkpt lat="43.744657" lon="-7.750634">
        <ele>48.017</ele>
        <time>2019-06-20T11:18:46Z</time>
      </trkpt>
      <trkpt lat="43.744646" lon="-7.750726">
        <ele>48.387</ele>
        <time>2019-06-20T11:18:47Z</time>
      </trkpt>
      <trkpt lat="43.744648" lon="-7.750814">
        <ele>48.315</ele>
        <time>2019-06-20T11:18:48Z</time>
      </trkpt>
      <trkpt lat="43.744656" lon="-7.750901">
        <ele>47.808</ele>
        <time>2019-06-20T11:18:49Z</time>
      </trkpt>
      <trkpt lat="43.744677" lon="-7.750975">
        <ele>46.964</ele>
        <time>2019-06-20T11:18:50Z</time>
      </trkpt>
      <trkpt lat="43.744685" lon="-7.751050">
        <ele>46.268</ele>
        <time>2019-06-20T11:18:51Z</time>
      </trkpt>
      <trkpt lat="43.744685" lon="-7.751124">
        <ele>45.659</ele>
        <time>2019-06-20T11:18:52Z</time>
      </trkpt>
      <trkpt lat="43.744673" lon="-7.751203">
        <ele>44.565</ele>
        <time>2019-06-20T11:18:53Z</time>
      </trkpt>
      <trkpt lat="43.744651" lon="-7.751287">
        <ele>43.542</ele>
        <time>2019-06-20T11:18:54Z</time>
      </trkpt>
      <trkpt lat="43.744615" lon="-7.751363">
        <ele>43.163</ele>
        <time>2019-06-20T11:18:55Z</time>
      </trkpt>
      <trkpt lat="43.744572" lon="-7.751444">
        <ele>42.095</ele>
        <time>2019-06-20T11:18:56Z</time>
      </trkpt>
      <trkpt lat="43.744520" lon="-7.751525">
        <ele>41.492</ele>
        <time>2019-06-20T11:18:57Z</time>
      </trkpt>
      <trkpt lat="43.744474" lon="-7.751597">
        <ele>41.327</ele>
        <time>2019-06-20T11:18:58Z</time>
      </trkpt>
      <trkpt lat="43.744434" lon="-7.751664">
        <ele>41.368</ele>
        <time>2019-06-20T11:18:59Z</time>
      </trkpt>
      <trkpt lat="43.744402" lon="-7.751730">
        <ele>40.214</ele>
        <time>2019-06-20T11:19:00Z</time>
      </trkpt>
      <trkpt lat="43.744372" lon="-7.751789">
        <ele>39.608</ele>
        <time>2019-06-20T11:19:01Z</time>
      </trkpt>
      <trkpt lat="43.744329" lon="-7.751877">
        <ele>39.055</ele>
        <time>2019-06-20T11:19:03Z</time>
      </trkpt>
      <trkpt lat="43.744297" lon="-7.751966">
        <ele>38.189</ele>
        <time>2019-06-20T11:19:05Z</time>
      </trkpt>
      <trkpt lat="43.744298" lon="-7.752072">
        <ele>34.230</ele>
        <time>2019-06-20T11:19:07Z</time>
      </trkpt>
      <trkpt lat="43.744284" lon="-7.752160">
        <ele>31.636</ele>
        <time>2019-06-20T11:19:09Z</time>
      </trkpt>
      <trkpt lat="43.744279" lon="-7.752230">
        <ele>29.233</ele>
        <time>2019-06-20T11:19:13Z</time>
      </trkpt>
      <trkpt lat="43.744267" lon="-7.752302">
        <ele>26.424</ele>
        <time>2019-06-20T11:19:18Z</time>
      </trkpt>
      <trkpt lat="43.744317" lon="-7.752290">
        <ele>25.326</ele>
        <time>2019-06-20T11:20:08Z</time>
      </trkpt>
      <trkpt lat="43.744332" lon="-7.752356">
        <ele>22.323</ele>
        <time>2019-06-20T11:21:01Z</time>
      </trkpt>
      <trkpt lat="43.744303" lon="-7.752303">
        <ele>25.295</ele>
        <time>2019-06-20T11:21:19Z</time>
      </trkpt>
      <trkpt lat="43.744275" lon="-7.752250">
        <ele>28.549</ele>
        <time>2019-06-20T11:21:49Z</time>
      </trkpt>
      <trkpt lat="43.744323" lon="-7.752259">
        <ele>26.423</ele>
        <time>2019-06-20T11:23:10Z</time>
      </trkpt>
      <trkpt lat="43.744297" lon="-7.752313">
        <ele>25.008</ele>
        <time>2019-06-20T11:23:58Z</time>
      </trkpt>
      <trkpt lat="43.744276" lon="-7.752255">
        <ele>28.222</ele>
        <time>2019-06-20T11:25:54Z</time>
      </trkpt>
      <trkpt lat="43.744320" lon="-7.752294">
        <ele>25.136</ele>
        <time>2019-06-20T11:29:06Z</time>
      </trkpt>
      <trkpt lat="43.744293" lon="-7.752242">
        <ele>28.177</ele>
        <time>2019-06-20T11:30:48Z</time>
      </trkpt>
      <trkpt lat="43.744289" lon="-7.752307">
        <ele>25.523</ele>
        <time>2019-06-20T11:31:03Z</time>
      </trkpt>
      <trkpt lat="43.744295" lon="-7.752229">
        <ele>28.690</ele>
        <time>2019-06-20T11:38:16Z</time>
      </trkpt>
      <trkpt lat="43.744302" lon="-7.752165">
        <ele>30.781</ele>
        <time>2019-06-20T11:38:17Z</time>
      </trkpt>
      <trkpt lat="43.744301" lon="-7.752100">
        <ele>33.173</ele>
        <time>2019-06-20T11:38:18Z</time>
      </trkpt>
      <trkpt lat="43.744292" lon="-7.751983">
        <ele>37.790</ele>
        <time>2019-06-20T11:38:20Z</time>
      </trkpt>
      <trkpt lat="43.744291" lon="-7.751919">
        <ele>39.769</ele>
        <time>2019-06-20T11:38:21Z</time>
      </trkpt>
      <trkpt lat="43.744316" lon="-7.751841">
        <ele>40.304</ele>
        <time>2019-06-20T11:38:23Z</time>
      </trkpt>
      <trkpt lat="43.744333" lon="-7.751769">
        <ele>41.424</ele>
        <time>2019-06-20T11:38:25Z</time>
      </trkpt>
      <trkpt lat="43.744377" lon="-7.751680">
        <ele>42.308</ele>
        <time>2019-06-20T11:38:27Z</time>
      </trkpt>
      <trkpt lat="43.744410" lon="-7.751625">
        <ele>42.719</ele>
        <time>2019-06-20T11:38:28Z</time>
      </trkpt>
      <trkpt lat="43.744457" lon="-7.751565">
        <ele>42.763</ele>
        <time>2019-06-20T11:38:29Z</time>
      </trkpt>
      <trkpt lat="43.744494" lon="-7.751500">
        <ele>42.994</ele>
        <time>2019-06-20T11:38:30Z</time>
      </trkpt>
      <trkpt lat="43.744531" lon="-7.751429">
        <ele>43.720</ele>
        <time>2019-06-20T11:38:31Z</time>
      </trkpt>
      <trkpt lat="43.744564" lon="-7.751382">
        <ele>44.147</ele>
        <time>2019-06-20T11:38:32Z</time>
      </trkpt>
      <trkpt lat="43.744603" lon="-7.751325">
        <ele>44.128</ele>
        <time>2019-06-20T11:38:33Z</time>
      </trkpt>
      <trkpt lat="43.744632" lon="-7.751230">
        <ele>44.950</ele>
        <time>2019-06-20T11:38:35Z</time>
      </trkpt>
      <trkpt lat="43.744630" lon="-7.751109">
        <ele>47.067</ele>
        <time>2019-06-20T11:38:37Z</time>
      </trkpt>
      <trkpt lat="43.744624" lon="-7.750981">
        <ele>47.944</ele>
        <time>2019-06-20T11:38:39Z</time>
      </trkpt>
      <trkpt lat="43.744616" lon="-7.750887">
        <ele>48.605</ele>
        <time>2019-06-20T11:38:40Z</time>
      </trkpt>
      <trkpt lat="43.744603" lon="-7.750812">
        <ele>49.115</ele>
        <time>2019-06-20T11:38:41Z</time>
      </trkpt>
      <trkpt lat="43.744602" lon="-7.750744">
        <ele>49.008</ele>
        <time>2019-06-20T11:38:42Z</time>
      </trkpt>
      <trkpt lat="43.744618" lon="-7.750669">
        <ele>48.757</ele>
        <time>2019-06-20T11:38:43Z</time>
      </trkpt>
      <trkpt lat="43.744634" lon="-7.750589">
        <ele>48.351</ele>
        <time>2019-06-20T11:38:44Z</time>
      </trkpt>
      <trkpt lat="43.744639" lon="-7.750517">
        <ele>48.222</ele>
        <time>2019-06-20T11:38:45Z</time>
      </trkpt>
      <trkpt lat="43.744644" lon="-7.750438">
        <ele>48.048</ele>
        <time>2019-06-20T11:38:46Z</time>
      </trkpt>
      <trkpt lat="43.744639" lon="-7.750368">
        <ele>48.025</ele>
        <time>2019-06-20T11:38:47Z</time>
      </trkpt>
      <trkpt lat="43.744633" lon="-7.750276">
        <ele>48.096</ele>
        <time>2019-06-20T11:38:48Z</time>
      </trkpt>
      <trkpt lat="43.744625" lon="-7.750185">
        <ele>48.558</ele>
        <time>2019-06-20T11:38:49Z</time>
      </trkpt>
      <trkpt lat="43.744621" lon="-7.750112">
        <ele>48.945</ele>
        <time>2019-06-20T11:38:50Z</time>
      </trkpt>
      <trkpt lat="43.744620" lon="-7.750030">
        <ele>49.229</ele>
        <time>2019-06-20T11:38:51Z</time>
      </trkpt>
      <trkpt lat="43.744627" lon="-7.749967">
        <ele>49.600</ele>
        <time>2019-06-20T11:38:52Z</time>
      </trkpt>
      <trkpt lat="43.744646" lon="-7.749898">
        <ele>50.220</ele>
        <time>2019-06-20T11:38:53Z</time>
      </trkpt>
      <trkpt lat="43.744664" lon="-7.749827">
        <ele>50.808</ele>
        <time>2019-06-20T11:38:54Z</time>
      </trkpt>
      <trkpt lat="43.744679" lon="-7.749757">
        <ele>51.565</ele>
        <time>2019-06-20T11:38:55Z</time>
      </trkpt>
      <trkpt lat="43.744707" lon="-7.749677">
        <ele>52.359</ele>
        <time>2019-06-20T11:38:56Z</time>
      </trkpt>
      <trkpt lat="43.744736" lon="-7.749603">
        <ele>52.850</ele>
        <time>2019-06-20T11:38:57Z</time>
      </trkpt>
      <trkpt lat="43.744771" lon="-7.749480">
        <ele>53.766</ele>
        <time>2019-06-20T11:38:58Z</time>
      </trkpt>
      <trkpt lat="43.744795" lon="-7.749395">
        <ele>54.093</ele>
        <time>2019-06-20T11:38:59Z</time>
      </trkpt>
      <trkpt lat="43.744830" lon="-7.749312">
        <ele>54.254</ele>
        <time>2019-06-20T11:39:00Z</time>
      </trkpt>
      <trkpt lat="43.744857" lon="-7.749229">
        <ele>54.426</ele>
        <time>2019-06-20T11:39:01Z</time>
      </trkpt>
      <trkpt lat="43.744886" lon="-7.749144">
        <ele>54.693</ele>
        <time>2019-06-20T11:39:02Z</time>
      </trkpt>
      <trkpt lat="43.744890" lon="-7.749082">
        <ele>54.568</ele>
        <time>2019-06-20T11:39:03Z</time>
      </trkpt>
      <trkpt lat="43.744903" lon="-7.748999">
        <ele>54.442</ele>
        <time>2019-06-20T11:39:04Z</time>
      </trkpt>
      <trkpt lat="43.744914" lon="-7.748919">
        <ele>54.426</ele>
        <time>2019-06-20T11:39:05Z</time>
      </trkpt>
      <trkpt lat="43.744918" lon="-7.748832">
        <ele>53.908</ele>
        <time>2019-06-20T11:39:06Z</time>
      </trkpt>
      <trkpt lat="43.744924" lon="-7.748739">
        <ele>53.119</ele>
        <time>2019-06-20T11:39:07Z</time>
      </trkpt>
      <trkpt lat="43.744931" lon="-7.748651">
        <ele>52.423</ele>
        <time>2019-06-20T11:39:08Z</time>
      </trkpt>
      <trkpt lat="43.744942" lon="-7.748575">
        <ele>51.834</ele>
        <time>2019-06-20T11:39:09Z</time>
      </trkpt>
      <trkpt lat="43.744960" lon="-7.748485">
        <ele>51.530</ele>
        <time>2019-06-20T11:39:10Z</time>
      </trkpt>
      <trkpt lat="43.744975" lon="-7.748402">
        <ele>51.267</ele>
        <time>2019-06-20T11:39:11Z</time>
      </trkpt>
      <trkpt lat="43.744998" lon="-7.748307">
        <ele>50.888</ele>
        <time>2019-06-20T11:39:12Z</time>
      </trkpt>
      <trkpt lat="43.745016" lon="-7.748218">
        <ele>49.450</ele>
        <time>2019-06-20T11:39:13Z</time>
      </trkpt>
      <trkpt lat="43.745036" lon="-7.748147">
        <ele>47.937</ele>
        <time>2019-06-20T11:39:14Z</time>
      </trkpt>
      <trkpt lat="43.745043" lon="-7.748037">
        <ele>46.696</ele>
        <time>2019-06-20T11:39:15Z</time>
      </trkpt>
      <trkpt lat="43.745048" lon="-7.747943">
        <ele>45.431</ele>
        <time>2019-06-20T11:39:16Z</time>
      </trkpt>
      <trkpt lat="43.745056" lon="-7.747859">
        <ele>44.024</ele>
        <time>2019-06-20T11:39:17Z</time>
      </trkpt>
      <trkpt lat="43.745058" lon="-7.747769">
        <ele>42.908</ele>
        <time>2019-06-20T11:39:18Z</time>
      </trkpt>
      <trkpt lat="43.745066" lon="-7.747687">
        <ele>41.262</ele>
        <time>2019-06-20T11:39:19Z</time>
      </trkpt>
      <trkpt lat="43.745063" lon="-7.747615">
        <ele>40.456</ele>
        <time>2019-06-20T11:39:20Z</time>
      </trkpt>
      <trkpt lat="43.745045" lon="-7.747551">
        <ele>40.537</ele>
        <time>2019-06-20T11:39:21Z</time>
      </trkpt>
      <trkpt lat="43.745025" lon="-7.747491">
        <ele>40.663</ele>
        <time>2019-06-20T11:39:22Z</time>
      </trkpt>
      <trkpt lat="43.744991" lon="-7.747445">
        <ele>41.380</ele>
        <time>2019-06-20T11:39:23Z</time>
      </trkpt>
      <trkpt lat="43.744944" lon="-7.747404">
        <ele>42.081</ele>
        <time>2019-06-20T11:39:24Z</time>
      </trkpt>
      <trkpt lat="43.744898" lon="-7.747383">
        <ele>43.183</ele>
        <time>2019-06-20T11:39:25Z</time>
      </trkpt>
      <trkpt lat="43.744812" lon="-7.747380">
        <ele>45.870</ele>
        <time>2019-06-20T11:39:27Z</time>
      </trkpt>
      <trkpt lat="43.744764" lon="-7.747377">
        <ele>47.353</ele>
        <time>2019-06-20T11:39:28Z</time>
      </trkpt>
      <trkpt lat="43.744688" lon="-7.747390">
        <ele>48.904</ele>
        <time>2019-06-20T11:39:29Z</time>
      </trkpt>
      <trkpt lat="43.744584" lon="-7.747398">
        <ele>49.114</ele>
        <time>2019-06-20T11:39:30Z</time>
      </trkpt>
      <trkpt lat="43.744479" lon="-7.747418">
        <ele>49.408</ele>
        <time>2019-06-20T11:39:31Z</time>
      </trkpt>
      <trkpt lat="43.744362" lon="-7.747445">
        <ele>49.188</ele>
        <time>2019-06-20T11:39:32Z</time>
      </trkpt>
      <trkpt lat="43.744242" lon="-7.747467">
        <ele>48.592</ele>
        <time>2019-06-20T11:39:33Z</time>
      </trkpt>
      <trkpt lat="43.744121" lon="-7.747482">
        <ele>48.133</ele>
        <time>2019-06-20T11:39:34Z</time>
      </trkpt>
      <trkpt lat="43.743995" lon="-7.747496">
        <ele>48.649</ele>
        <time>2019-06-20T11:39:35Z</time>
      </trkpt>
      <trkpt lat="43.743886" lon="-7.747514">
        <ele>49.026</ele>
        <time>2019-06-20T11:39:36Z</time>
      </trkpt>
      <trkpt lat="43.743767" lon="-7.747528">
        <ele>49.577</ele>
        <time>2019-06-20T11:39:37Z</time>
      </trkpt>
      <trkpt lat="43.743674" lon="-7.747538">
        <ele>49.939</ele>
        <time>2019-06-20T11:39:38Z</time>
      </trkpt>
      <trkpt lat="43.743555" lon="-7.747517">
        <ele>50.966</ele>
        <time>2019-06-20T11:39:39Z</time>
      </trkpt>
      <trkpt lat="43.743469" lon="-7.747523">
        <ele>52.182</ele>
        <time>2019-06-20T11:39:40Z</time>
      </trkpt>
      <trkpt lat="43.743391" lon="-7.747505">
        <ele>53.243</ele>
        <time>2019-06-20T11:39:41Z</time>
      </trkpt>
      <trkpt lat="43.743304" lon="-7.747490">
        <ele>54.617</ele>
        <time>2019-06-20T11:39:42Z</time>
      </trkpt>
      <trkpt lat="43.743235" lon="-7.747432">
        <ele>56.008</ele>
        <time>2019-06-20T11:39:43Z</time>
      </trkpt>
      <trkpt lat="43.743135" lon="-7.747345">
        <ele>57.521</ele>
        <time>2019-06-20T11:39:44Z</time>
      </trkpt>
      <trkpt lat="43.743061" lon="-7.747329">
        <ele>58.745</ele>
        <time>2019-06-20T11:39:45Z</time>
      </trkpt>
      <trkpt lat="43.742975" lon="-7.747196">
        <ele>58.376</ele>
        <time>2019-06-20T11:39:46Z</time>
      </trkpt>
      <trkpt lat="43.742912" lon="-7.747082">
        <ele>57.522</ele>
        <time>2019-06-20T11:39:47Z</time>
      </trkpt>
      <trkpt lat="43.742831" lon="-7.746995">
        <ele>57.299</ele>
        <time>2019-06-20T11:39:48Z</time>
      </trkpt>
      <trkpt lat="43.742756" lon="-7.746919">
        <ele>57.050</ele>
        <time>2019-06-20T11:39:49Z</time>
      </trkpt>
      <trkpt lat="43.742682" lon="-7.746808">
        <ele>56.862</ele>
        <time>2019-06-20T11:39:50Z</time>
      </trkpt>
      <trkpt lat="43.742611" lon="-7.746725">
        <ele>56.589</ele>
        <time>2019-06-20T11:39:51Z</time>
      </trkpt>
      <trkpt lat="43.742565" lon="-7.746653">
        <ele>56.189</ele>
        <time>2019-06-20T11:39:52Z</time>
      </trkpt>
      <trkpt lat="43.742505" lon="-7.746566">
        <ele>55.306</ele>
        <time>2019-06-20T11:39:53Z</time>
      </trkpt>
      <trkpt lat="43.742423" lon="-7.746491">
        <ele>54.626</ele>
        <time>2019-06-20T11:39:54Z</time>
      </trkpt>
      <trkpt lat="43.742364" lon="-7.746411">
        <ele>54.108</ele>
        <time>2019-06-20T11:39:55Z</time>
      </trkpt>
      <trkpt lat="43.742278" lon="-7.746315">
        <ele>53.631</ele>
        <time>2019-06-20T11:39:56Z</time>
      </trkpt>
      <trkpt lat="43.742213" lon="-7.746206">
        <ele>53.375</ele>
        <time>2019-06-20T11:39:57Z</time>
      </trkpt>
      <trkpt lat="43.742182" lon="-7.746114">
        <ele>52.766</ele>
        <time>2019-06-20T11:39:58Z</time>
      </trkpt>
      <trkpt lat="43.742153" lon="-7.745983">
        <ele>50.452</ele>
        <time>2019-06-20T11:39:59Z</time>
      </trkpt>
      <trkpt lat="43.742123" lon="-7.745853">
        <ele>48.359</ele>
        <time>2019-06-20T11:40:00Z</time>
      </trkpt>
      <trkpt lat="43.742101" lon="-7.745744">
        <ele>47.090</ele>
        <time>2019-06-20T11:40:01Z</time>
      </trkpt>
      <trkpt lat="43.742071" lon="-7.745629">
        <ele>45.852</ele>
        <time>2019-06-20T11:40:02Z</time>
      </trkpt>
      <trkpt lat="43.742044" lon="-7.745542">
        <ele>44.939</ele>
        <time>2019-06-20T11:40:03Z</time>
      </trkpt>
      <trkpt lat="43.742021" lon="-7.745456">
        <ele>44.412</ele>
        <time>2019-06-20T11:40:04Z</time>
      </trkpt>
      <trkpt lat="43.742004" lon="-7.745382">
        <ele>44.132</ele>
        <time>2019-06-20T11:40:05Z</time>
      </trkpt>
      <trkpt lat="43.741973" lon="-7.745326">
        <ele>44.005</ele>
        <time>2019-06-20T11:40:06Z</time>
      </trkpt>
      <trkpt lat="43.741917" lon="-7.745295">
        <ele>44.108</ele>
        <time>2019-06-20T11:40:08Z</time>
      </trkpt>
      <trkpt lat="43.741863" lon="-7.745403">
        <ele>44.654</ele>
        <time>2019-06-20T11:40:10Z</time>
      </trkpt>
      <trkpt lat="43.741816" lon="-7.745497">
        <ele>45.268</ele>
        <time>2019-06-20T11:40:11Z</time>
      </trkpt>
      <trkpt lat="43.741763" lon="-7.745617">
        <ele>46.399</ele>
        <time>2019-06-20T11:40:12Z</time>
      </trkpt>
      <trkpt lat="43.741705" lon="-7.745740">
        <ele>47.965</ele>
        <time>2019-06-20T11:40:13Z</time>
      </trkpt>
      <trkpt lat="43.741638" lon="-7.745895">
        <ele>49.322</ele>
        <time>2019-06-20T11:40:14Z</time>
      </trkpt>
      <trkpt lat="43.741563" lon="-7.746044">
        <ele>50.193</ele>
        <time>2019-06-20T11:40:15Z</time>
      </trkpt>
      <trkpt lat="43.741490" lon="-7.746205">
        <ele>50.725</ele>
        <time>2019-06-20T11:40:16Z</time>
      </trkpt>
      <trkpt lat="43.741405" lon="-7.746365">
        <ele>51.082</ele>
        <time>2019-06-20T11:40:17Z</time>
      </trkpt>
      <trkpt lat="43.741323" lon="-7.746531">
        <ele>48.437</ele>
        <time>2019-06-20T11:40:18Z</time>
      </trkpt>
      <trkpt lat="43.741259" lon="-7.746703">
        <ele>45.949</ele>
        <time>2019-06-20T11:40:19Z</time>
      </trkpt>
      <trkpt lat="43.741170" lon="-7.746861">
        <ele>44.013</ele>
        <time>2019-06-20T11:40:20Z</time>
      </trkpt>
      <trkpt lat="43.741088" lon="-7.747018">
        <ele>43.008</ele>
        <time>2019-06-20T11:40:21Z</time>
      </trkpt>
      <trkpt lat="43.741009" lon="-7.747163">
        <ele>43.036</ele>
        <time>2019-06-20T11:40:22Z</time>
      </trkpt>
      <trkpt lat="43.740926" lon="-7.747292">
        <ele>43.330</ele>
        <time>2019-06-20T11:40:23Z</time>
      </trkpt>
      <trkpt lat="43.740833" lon="-7.747395">
        <ele>43.291</ele>
        <time>2019-06-20T11:40:24Z</time>
      </trkpt>
      <trkpt lat="43.740738" lon="-7.747470">
        <ele>42.167</ele>
        <time>2019-06-20T11:40:25Z</time>
      </trkpt>
      <trkpt lat="43.740631" lon="-7.747524">
        <ele>40.584</ele>
        <time>2019-06-20T11:40:26Z</time>
      </trkpt>
      <trkpt lat="43.740511" lon="-7.747562">
        <ele>39.445</ele>
        <time>2019-06-20T11:40:27Z</time>
      </trkpt>
      <trkpt lat="43.740404" lon="-7.747592">
        <ele>39.797</ele>
        <time>2019-06-20T11:40:28Z</time>
      </trkpt>
      <trkpt lat="43.740289" lon="-7.747603">
        <ele>39.784</ele>
        <time>2019-06-20T11:40:29Z</time>
      </trkpt>
      <trkpt lat="43.740161" lon="-7.747610">
        <ele>40.215</ele>
        <time>2019-06-20T11:40:30Z</time>
      </trkpt>
      <trkpt lat="43.740033" lon="-7.747596">
        <ele>40.365</ele>
        <time>2019-06-20T11:40:31Z</time>
      </trkpt>
      <trkpt lat="43.739883" lon="-7.747559">
        <ele>38.011</ele>
        <time>2019-06-20T11:40:32Z</time>
      </trkpt>
      <trkpt lat="43.739738" lon="-7.747523">
        <ele>35.008</ele>
        <time>2019-06-20T11:40:33Z</time>
      </trkpt>
      <trkpt lat="43.739585" lon="-7.747486">
        <ele>34.214</ele>
        <time>2019-06-20T11:40:34Z</time>
      </trkpt>
      <trkpt lat="43.739439" lon="-7.747438">
        <ele>33.938</ele>
        <time>2019-06-20T11:40:35Z</time>
      </trkpt>
      <trkpt lat="43.739300" lon="-7.747404">
        <ele>33.889</ele>
        <time>2019-06-20T11:40:36Z</time>
      </trkpt>
      <trkpt lat="43.739154" lon="-7.747367">
        <ele>33.775</ele>
        <time>2019-06-20T11:40:37Z</time>
      </trkpt>
      <trkpt lat="43.739014" lon="-7.747335">
        <ele>33.662</ele>
        <time>2019-06-20T11:40:38Z</time>
      </trkpt>
      <trkpt lat="43.738867" lon="-7.747295">
        <ele>33.343</ele>
        <time>2019-06-20T11:40:39Z</time>
      </trkpt>
      <trkpt lat="43.738717" lon="-7.747280">
        <ele>32.555</ele>
        <time>2019-06-20T11:40:40Z</time>
      </trkpt>
      <trkpt lat="43.738572" lon="-7.747270">
        <ele>31.962</ele>
        <time>2019-06-20T11:40:41Z</time>
      </trkpt>
      <trkpt lat="43.738426" lon="-7.747300">
        <ele>32.029</ele>
        <time>2019-06-20T11:40:42Z</time>
      </trkpt>
      <trkpt lat="43.738292" lon="-7.747354">
        <ele>32.200</ele>
        <time>2019-06-20T11:40:43Z</time>
      </trkpt>
      <trkpt lat="43.738158" lon="-7.747430">
        <ele>31.520</ele>
        <time>2019-06-20T11:40:44Z</time>
      </trkpt>
      <trkpt lat="43.738030" lon="-7.747531">
        <ele>30.208</ele>
        <time>2019-06-20T11:40:45Z</time>
      </trkpt>
      <trkpt lat="43.737916" lon="-7.747651">
        <ele>26.775</ele>
        <time>2019-06-20T11:40:46Z</time>
      </trkpt>
      <trkpt lat="43.737810" lon="-7.747794">
        <ele>23.849</ele>
        <time>2019-06-20T11:40:47Z</time>
      </trkpt>
      <trkpt lat="43.737728" lon="-7.747943">
        <ele>22.170</ele>
        <time>2019-06-20T11:40:48Z</time>
      </trkpt>
      <trkpt lat="43.737638" lon="-7.748095">
        <ele>20.086</ele>
        <time>2019-06-20T11:40:49Z</time>
      </trkpt>
      <trkpt lat="43.737550" lon="-7.748252">
        <ele>18.513</ele>
        <time>2019-06-20T11:40:50Z</time>
      </trkpt>
      <trkpt lat="43.737462" lon="-7.748429">
        <ele>18.234</ele>
        <time>2019-06-20T11:40:51Z</time>
      </trkpt>
      <trkpt lat="43.737373" lon="-7.748590">
        <ele>18.566</ele>
        <time>2019-06-20T11:40:52Z</time>
      </trkpt>
      <trkpt lat="43.737281" lon="-7.748747">
        <ele>18.723</ele>
        <time>2019-06-20T11:40:53Z</time>
      </trkpt>
      <trkpt lat="43.737183" lon="-7.748871">
        <ele>19.186</ele>
        <time>2019-06-20T11:40:54Z</time>
      </trkpt>
      <trkpt lat="43.737069" lon="-7.748976">
        <ele>19.960</ele>
        <time>2019-06-20T11:40:55Z</time>
      </trkpt>
      <trkpt lat="43.736946" lon="-7.749057">
        <ele>20.626</ele>
        <time>2019-06-20T11:40:56Z</time>
      </trkpt>
      <trkpt lat="43.736814" lon="-7.749133">
        <ele>22.608</ele>
        <time>2019-06-20T11:40:57Z</time>
      </trkpt>
      <trkpt lat="43.736673" lon="-7.749193">
        <ele>25.051</ele>
        <time>2019-06-20T11:40:58Z</time>
      </trkpt>
      <trkpt lat="43.736531" lon="-7.749270">
        <ele>26.245</ele>
        <time>2019-06-20T11:40:59Z</time>
      </trkpt>
      <trkpt lat="43.736395" lon="-7.749359">
        <ele>28.096</ele>
        <time>2019-06-20T11:41:00Z</time>
      </trkpt>
      <trkpt lat="43.736252" lon="-7.749445">
        <ele>27.542</ele>
        <time>2019-06-20T11:41:01Z</time>
      </trkpt>
      <trkpt lat="43.736106" lon="-7.749536">
        <ele>26.089</ele>
        <time>2019-06-20T11:41:02Z</time>
      </trkpt>
      <trkpt lat="43.735958" lon="-7.749626">
        <ele>25.360</ele>
        <time>2019-06-20T11:41:03Z</time>
      </trkpt>
      <trkpt lat="43.735809" lon="-7.749710">
        <ele>25.292</ele>
        <time>2019-06-20T11:41:04Z</time>
      </trkpt>
      <trkpt lat="43.735664" lon="-7.749802">
        <ele>27.859</ele>
        <time>2019-06-20T11:41:05Z</time>
      </trkpt>
      <trkpt lat="43.735516" lon="-7.749894">
        <ele>30.118</ele>
        <time>2019-06-20T11:41:06Z</time>
      </trkpt>
      <trkpt lat="43.735375" lon="-7.749977">
        <ele>32.098</ele>
        <time>2019-06-20T11:41:07Z</time>
      </trkpt>
      <trkpt lat="43.735245" lon="-7.750063">
        <ele>33.217</ele>
        <time>2019-06-20T11:41:08Z</time>
      </trkpt>
      <trkpt lat="43.735103" lon="-7.750143">
        <ele>32.808</ele>
        <time>2019-06-20T11:41:09Z</time>
      </trkpt>
      <trkpt lat="43.734963" lon="-7.750199">
        <ele>32.284</ele>
        <time>2019-06-20T11:41:10Z</time>
      </trkpt>
      <trkpt lat="43.734823" lon="-7.750241">
        <ele>31.658</ele>
        <time>2019-06-20T11:41:11Z</time>
      </trkpt>
      <trkpt lat="43.734682" lon="-7.750249">
        <ele>31.439</ele>
        <time>2019-06-20T11:41:12Z</time>
      </trkpt>
      <trkpt lat="43.734547" lon="-7.750239">
        <ele>32.915</ele>
        <time>2019-06-20T11:41:13Z</time>
      </trkpt>
      <trkpt lat="43.734413" lon="-7.750219">
        <ele>34.552</ele>
        <time>2019-06-20T11:41:14Z</time>
      </trkpt>
      <trkpt lat="43.734282" lon="-7.750202">
        <ele>36.573</ele>
        <time>2019-06-20T11:41:15Z</time>
      </trkpt>
      <trkpt lat="43.734152" lon="-7.750196">
        <ele>38.645</ele>
        <time>2019-06-20T11:41:16Z</time>
      </trkpt>
      <trkpt lat="43.734006" lon="-7.750204">
        <ele>41.712</ele>
        <time>2019-06-20T11:41:17Z</time>
      </trkpt>
      <trkpt lat="43.733869" lon="-7.750232">
        <ele>44.296</ele>
        <time>2019-06-20T11:41:18Z</time>
      </trkpt>
      <trkpt lat="43.733725" lon="-7.750268">
        <ele>44.631</ele>
        <time>2019-06-20T11:41:19Z</time>
      </trkpt>
      <trkpt lat="43.733584" lon="-7.750312">
        <ele>44.924</ele>
        <time>2019-06-20T11:41:20Z</time>
      </trkpt>
      <trkpt lat="43.733448" lon="-7.750360">
        <ele>44.908</ele>
        <time>2019-06-20T11:41:21Z</time>
      </trkpt>
      <trkpt lat="43.733320" lon="-7.750405">
        <ele>45.072</ele>
        <time>2019-06-20T11:41:22Z</time>
      </trkpt>
      <trkpt lat="43.733200" lon="-7.750445">
        <ele>44.736</ele>
        <time>2019-06-20T11:41:23Z</time>
      </trkpt>
      <trkpt lat="43.733080" lon="-7.750478">
        <ele>44.337</ele>
        <time>2019-06-20T11:41:24Z</time>
      </trkpt>
      <trkpt lat="43.732973" lon="-7.750505">
        <ele>44.253</ele>
        <time>2019-06-20T11:41:25Z</time>
      </trkpt>
      <trkpt lat="43.732857" lon="-7.750519">
        <ele>44.190</ele>
        <time>2019-06-20T11:41:26Z</time>
      </trkpt>
      <trkpt lat="43.732759" lon="-7.750529">
        <ele>44.291</ele>
        <time>2019-06-20T11:41:27Z</time>
      </trkpt>
      <trkpt lat="43.732664" lon="-7.750549">
        <ele>44.813</ele>
        <time>2019-06-20T11:41:28Z</time>
      </trkpt>
      <trkpt lat="43.732561" lon="-7.750582">
        <ele>45.590</ele>
        <time>2019-06-20T11:41:29Z</time>
      </trkpt>
      <trkpt lat="43.732470" lon="-7.750645">
        <ele>46.268</ele>
        <time>2019-06-20T11:41:30Z</time>
      </trkpt>
      <trkpt lat="43.732371" lon="-7.750720">
        <ele>46.942</ele>
        <time>2019-06-20T11:41:31Z</time>
      </trkpt>
      <trkpt lat="43.732270" lon="-7.750796">
        <ele>47.726</ele>
        <time>2019-06-20T11:41:32Z</time>
      </trkpt>
      <trkpt lat="43.732168" lon="-7.750882">
        <ele>48.208</ele>
        <time>2019-06-20T11:41:33Z</time>
      </trkpt>
      <trkpt lat="43.732069" lon="-7.750973">
        <ele>48.629</ele>
        <time>2019-06-20T11:41:34Z</time>
      </trkpt>
      <trkpt lat="43.731967" lon="-7.751048">
        <ele>49.133</ele>
        <time>2019-06-20T11:41:35Z</time>
      </trkpt>
      <trkpt lat="43.731867" lon="-7.751113">
        <ele>49.384</ele>
        <time>2019-06-20T11:41:36Z</time>
      </trkpt>
      <trkpt lat="43.731766" lon="-7.751184">
        <ele>49.360</ele>
        <time>2019-06-20T11:41:37Z</time>
      </trkpt>
      <trkpt lat="43.731673" lon="-7.751268">
        <ele>49.477</ele>
        <time>2019-06-20T11:41:38Z</time>
      </trkpt>
      <trkpt lat="43.731575" lon="-7.751347">
        <ele>49.148</ele>
        <time>2019-06-20T11:41:39Z</time>
      </trkpt>
      <trkpt lat="43.731472" lon="-7.751439">
        <ele>48.640</ele>
        <time>2019-06-20T11:41:40Z</time>
      </trkpt>
      <trkpt lat="43.731370" lon="-7.751549">
        <ele>47.797</ele>
        <time>2019-06-20T11:41:41Z</time>
      </trkpt>
      <trkpt lat="43.731265" lon="-7.751689">
        <ele>46.616</ele>
        <time>2019-06-20T11:41:42Z</time>
      </trkpt>
      <trkpt lat="43.731147" lon="-7.751840">
        <ele>46.176</ele>
        <time>2019-06-20T11:41:43Z</time>
      </trkpt>
      <trkpt lat="43.731033" lon="-7.751992">
        <ele>45.113</ele>
        <time>2019-06-20T11:41:44Z</time>
      </trkpt>
      <trkpt lat="43.730917" lon="-7.752149">
        <ele>44.508</ele>
        <time>2019-06-20T11:41:45Z</time>
      </trkpt>
      <trkpt lat="43.730800" lon="-7.752306">
        <ele>44.124</ele>
        <time>2019-06-20T11:41:46Z</time>
      </trkpt>
      <trkpt lat="43.730686" lon="-7.752462">
        <ele>44.558</ele>
        <time>2019-06-20T11:41:47Z</time>
      </trkpt>
      <trkpt lat="43.730582" lon="-7.752615">
        <ele>44.569</ele>
        <time>2019-06-20T11:41:48Z</time>
      </trkpt>
      <trkpt lat="43.730480" lon="-7.752743">
        <ele>44.725</ele>
        <time>2019-06-20T11:41:49Z</time>
      </trkpt>
      <trkpt lat="43.730389" lon="-7.752874">
        <ele>44.932</ele>
        <time>2019-06-20T11:41:50Z</time>
      </trkpt>
      <trkpt lat="43.730302" lon="-7.753003">
        <ele>45.723</ele>
        <time>2019-06-20T11:41:51Z</time>
      </trkpt>
      <trkpt lat="43.730229" lon="-7.753124">
        <ele>46.165</ele>
        <time>2019-06-20T11:41:52Z</time>
      </trkpt>
      <trkpt lat="43.730159" lon="-7.753235">
        <ele>46.592</ele>
        <time>2019-06-20T11:41:53Z</time>
      </trkpt>
      <trkpt lat="43.730094" lon="-7.753332">
        <ele>47.064</ele>
        <time>2019-06-20T11:41:54Z</time>
      </trkpt>
      <trkpt lat="43.730030" lon="-7.753418">
        <ele>47.506</ele>
        <time>2019-06-20T11:41:55Z</time>
      </trkpt>
      <trkpt lat="43.729977" lon="-7.753481">
        <ele>47.416</ele>
        <time>2019-06-20T11:41:56Z</time>
      </trkpt>
      <trkpt lat="43.729902" lon="-7.753538">
        <ele>47.008</ele>
        <time>2019-06-20T11:41:58Z</time>
      </trkpt>
      <trkpt lat="43.729844" lon="-7.753539">
        <ele>46.899</ele>
        <time>2019-06-20T11:41:59Z</time>
      </trkpt>
      <trkpt lat="43.729768" lon="-7.753530">
        <ele>46.713</ele>
        <time>2019-06-20T11:42:00Z</time>
      </trkpt>
      <trkpt lat="43.729665" lon="-7.753489">
        <ele>46.644</ele>
        <time>2019-06-20T11:42:01Z</time>
      </trkpt>
      <trkpt lat="43.729565" lon="-7.753468">
        <ele>46.240</ele>
        <time>2019-06-20T11:42:02Z</time>
      </trkpt>
      <trkpt lat="43.729464" lon="-7.753448">
        <ele>45.717</ele>
        <time>2019-06-20T11:42:03Z</time>
      </trkpt>
      <trkpt lat="43.729372" lon="-7.753400">
        <ele>45.238</ele>
        <time>2019-06-20T11:42:04Z</time>
      </trkpt>
      <trkpt lat="43.729286" lon="-7.753350">
        <ele>44.810</ele>
        <time>2019-06-20T11:42:05Z</time>
      </trkpt>
      <trkpt lat="43.729213" lon="-7.753257">
        <ele>44.417</ele>
        <time>2019-06-20T11:42:06Z</time>
      </trkpt>
      <trkpt lat="43.729147" lon="-7.753147">
        <ele>43.853</ele>
        <time>2019-06-20T11:42:07Z</time>
      </trkpt>
      <trkpt lat="43.729097" lon="-7.753018">
        <ele>43.204</ele>
        <time>2019-06-20T11:42:08Z</time>
      </trkpt>
      <trkpt lat="43.729053" lon="-7.752888">
        <ele>42.814</ele>
        <time>2019-06-20T11:42:09Z</time>
      </trkpt>
      <trkpt lat="43.729015" lon="-7.752761">
        <ele>42.408</ele>
        <time>2019-06-20T11:42:10Z</time>
      </trkpt>
      <trkpt lat="43.728974" lon="-7.752635">
        <ele>42.178</ele>
        <time>2019-06-20T11:42:11Z</time>
      </trkpt>
      <trkpt lat="43.728931" lon="-7.752503">
        <ele>42.112</ele>
        <time>2019-06-20T11:42:12Z</time>
      </trkpt>
      <trkpt lat="43.728876" lon="-7.752370">
        <ele>40.953</ele>
        <time>2019-06-20T11:42:13Z</time>
      </trkpt>
      <trkpt lat="43.728809" lon="-7.752249">
        <ele>39.389</ele>
        <time>2019-06-20T11:42:14Z</time>
      </trkpt>
      <trkpt lat="43.728749" lon="-7.752124">
        <ele>38.116</ele>
        <time>2019-06-20T11:42:15Z</time>
      </trkpt>
      <trkpt lat="43.728695" lon="-7.751985">
        <ele>37.177</ele>
        <time>2019-06-20T11:42:16Z</time>
      </trkpt>
      <trkpt lat="43.728648" lon="-7.751840">
        <ele>35.659</ele>
        <time>2019-06-20T11:42:17Z</time>
      </trkpt>
      <trkpt lat="43.728614" lon="-7.751683">
        <ele>34.146</ele>
        <time>2019-06-20T11:42:18Z</time>
      </trkpt>
      <trkpt lat="43.728578" lon="-7.751524">
        <ele>32.728</ele>
        <time>2019-06-20T11:42:19Z</time>
      </trkpt>
      <trkpt lat="43.728535" lon="-7.751375">
        <ele>31.389</ele>
        <time>2019-06-20T11:42:20Z</time>
      </trkpt>
      <trkpt lat="43.728564" lon="-7.751278">
        <ele>30.517</ele>
        <time>2019-06-20T11:42:21Z</time>
      </trkpt>
      <trkpt lat="43.728558" lon="-7.751171">
        <ele>29.408</ele>
        <time>2019-06-20T11:42:22Z</time>
      </trkpt>
      <trkpt lat="43.728522" lon="-7.751077">
        <ele>28.465</ele>
        <time>2019-06-20T11:42:23Z</time>
      </trkpt>
      <trkpt lat="43.728468" lon="-7.750986">
        <ele>27.669</ele>
        <time>2019-06-20T11:42:24Z</time>
      </trkpt>
      <trkpt lat="43.728381" lon="-7.750920">
        <ele>26.870</ele>
        <time>2019-06-20T11:42:25Z</time>
      </trkpt>
      <trkpt lat="43.728261" lon="-7.750846">
        <ele>26.156</ele>
        <time>2019-06-20T11:42:26Z</time>
      </trkpt>
      <trkpt lat="43.728153" lon="-7.750779">
        <ele>26.043</ele>
        <time>2019-06-20T11:42:27Z</time>
      </trkpt>
      <trkpt lat="43.728042" lon="-7.750720">
        <ele>26.014</ele>
        <time>2019-06-20T11:42:28Z</time>
      </trkpt>
      <trkpt lat="43.727927" lon="-7.750667">
        <ele>25.786</ele>
        <time>2019-06-20T11:42:29Z</time>
      </trkpt>
      <trkpt lat="43.727797" lon="-7.750623">
        <ele>25.383</ele>
        <time>2019-06-20T11:42:30Z</time>
      </trkpt>
      <trkpt lat="43.727668" lon="-7.750608">
        <ele>24.878</ele>
        <time>2019-06-20T11:42:31Z</time>
      </trkpt>
      <trkpt lat="43.727537" lon="-7.750594">
        <ele>24.333</ele>
        <time>2019-06-20T11:42:32Z</time>
      </trkpt>
      <trkpt lat="43.727416" lon="-7.750583">
        <ele>24.126</ele>
        <time>2019-06-20T11:42:33Z</time>
      </trkpt>
      <trkpt lat="43.727301" lon="-7.750581">
        <ele>24.108</ele>
        <time>2019-06-20T11:42:34Z</time>
      </trkpt>
      <trkpt lat="43.727186" lon="-7.750586">
        <ele>24.140</ele>
        <time>2019-06-20T11:42:35Z</time>
      </trkpt>
      <trkpt lat="43.727077" lon="-7.750602">
        <ele>24.174</ele>
        <time>2019-06-20T11:42:36Z</time>
      </trkpt>
      <trkpt lat="43.726987" lon="-7.750613">
        <ele>24.015</ele>
        <time>2019-06-20T11:42:37Z</time>
      </trkpt>
      <trkpt lat="43.726911" lon="-7.750609">
        <ele>23.981</ele>
        <time>2019-06-20T11:42:38Z</time>
      </trkpt>
      <trkpt lat="43.726865" lon="-7.750608">
        <ele>23.848</ele>
        <time>2019-06-20T11:42:39Z</time>
      </trkpt>
      <trkpt lat="43.726806" lon="-7.750632">
        <ele>23.859</ele>
        <time>2019-06-20T11:42:41Z</time>
      </trkpt>
      <trkpt lat="43.726768" lon="-7.750670">
        <ele>23.971</ele>
        <time>2019-06-20T11:42:42Z</time>
      </trkpt>
      <trkpt lat="43.726709" lon="-7.750721">
        <ele>24.288</ele>
        <time>2019-06-20T11:42:43Z</time>
      </trkpt>
      <trkpt lat="43.726657" lon="-7.750755">
        <ele>24.468</ele>
        <time>2019-06-20T11:42:44Z</time>
      </trkpt>
      <trkpt lat="43.726605" lon="-7.750780">
        <ele>24.142</ele>
        <time>2019-06-20T11:42:45Z</time>
      </trkpt>
      <trkpt lat="43.726554" lon="-7.750798">
        <ele>23.926</ele>
        <time>2019-06-20T11:42:46Z</time>
      </trkpt>
      <trkpt lat="43.726468" lon="-7.750810">
        <ele>23.308</ele>
        <time>2019-06-20T11:42:47Z</time>
      </trkpt>
      <trkpt lat="43.726371" lon="-7.750828">
        <ele>22.579</ele>
        <time>2019-06-20T11:42:48Z</time>
      </trkpt>
      <trkpt lat="43.726264" lon="-7.750845">
        <ele>20.053</ele>
        <time>2019-06-20T11:42:49Z</time>
      </trkpt>
      <trkpt lat="43.726144" lon="-7.750838">
        <ele>16.934</ele>
        <time>2019-06-20T11:42:50Z</time>
      </trkpt>
      <trkpt lat="43.726011" lon="-7.750843">
        <ele>15.760</ele>
        <time>2019-06-20T11:42:51Z</time>
      </trkpt>
      <trkpt lat="43.725867" lon="-7.750825">
        <ele>15.147</ele>
        <time>2019-06-20T11:42:52Z</time>
      </trkpt>
      <trkpt lat="43.725725" lon="-7.750785">
        <ele>17.858</ele>
        <time>2019-06-20T11:42:53Z</time>
      </trkpt>
      <trkpt lat="43.725583" lon="-7.750758">
        <ele>21.130</ele>
        <time>2019-06-20T11:42:54Z</time>
      </trkpt>
      <trkpt lat="43.725433" lon="-7.750704">
        <ele>23.587</ele>
        <time>2019-06-20T11:42:55Z</time>
      </trkpt>
      <trkpt lat="43.725291" lon="-7.750645">
        <ele>25.439</ele>
        <time>2019-06-20T11:42:56Z</time>
      </trkpt>
      <trkpt lat="43.725154" lon="-7.750611">
        <ele>26.601</ele>
        <time>2019-06-20T11:42:57Z</time>
      </trkpt>
      <trkpt lat="43.725044" lon="-7.750582">
        <ele>27.621</ele>
        <time>2019-06-20T11:42:58Z</time>
      </trkpt>
      <trkpt lat="43.724932" lon="-7.750548">
        <ele>28.508</ele>
        <time>2019-06-20T11:42:59Z</time>
      </trkpt>
      <trkpt lat="43.724839" lon="-7.750533">
        <ele>29.146</ele>
        <time>2019-06-20T11:43:00Z</time>
      </trkpt>
      <trkpt lat="43.724760" lon="-7.750534">
        <ele>29.780</ele>
        <time>2019-06-20T11:43:01Z</time>
      </trkpt>
      <trkpt lat="43.724677" lon="-7.750552">
        <ele>30.651</ele>
        <time>2019-06-20T11:43:02Z</time>
      </trkpt>
      <trkpt lat="43.724600" lon="-7.750583">
        <ele>31.937</ele>
        <time>2019-06-20T11:43:03Z</time>
      </trkpt>
      <trkpt lat="43.724508" lon="-7.750656">
        <ele>33.274</ele>
        <time>2019-06-20T11:43:04Z</time>
      </trkpt>
      <trkpt lat="43.724413" lon="-7.750738">
        <ele>34.075</ele>
        <time>2019-06-20T11:43:05Z</time>
      </trkpt>
      <trkpt lat="43.724327" lon="-7.750808">
        <ele>34.077</ele>
        <time>2019-06-20T11:43:06Z</time>
      </trkpt>
      <trkpt lat="43.724242" lon="-7.750878">
        <ele>34.014</ele>
        <time>2019-06-20T11:43:07Z</time>
      </trkpt>
      <trkpt lat="43.724163" lon="-7.750944">
        <ele>34.021</ele>
        <time>2019-06-20T11:43:08Z</time>
      </trkpt>
      <trkpt lat="43.724098" lon="-7.751000">
        <ele>34.041</ele>
        <time>2019-06-20T11:43:09Z</time>
      </trkpt>
      <trkpt lat="43.724048" lon="-7.751040">
        <ele>34.005</ele>
        <time>2019-06-20T11:43:10Z</time>
      </trkpt>
      <trkpt lat="43.724011" lon="-7.751082">
        <ele>34.008</ele>
        <time>2019-06-20T11:43:11Z</time>
      </trkpt>
      <trkpt lat="43.723978" lon="-7.751142">
        <ele>34.145</ele>
        <time>2019-06-20T11:43:12Z</time>
      </trkpt>
      <trkpt lat="43.723930" lon="-7.751247">
        <ele>34.529</ele>
        <time>2019-06-20T11:43:13Z</time>
      </trkpt>
      <trkpt lat="43.723883" lon="-7.751375">
        <ele>35.050</ele>
        <time>2019-06-20T11:43:14Z</time>
      </trkpt>
      <trkpt lat="43.723836" lon="-7.751521">
        <ele>36.226</ele>
        <time>2019-06-20T11:43:15Z</time>
      </trkpt>
      <trkpt lat="43.723790" lon="-7.751686">
        <ele>37.153</ele>
        <time>2019-06-20T11:43:16Z</time>
      </trkpt>
      <trkpt lat="43.723729" lon="-7.751869">
        <ele>37.784</ele>
        <time>2019-06-20T11:43:17Z</time>
      </trkpt>
      <trkpt lat="43.723673" lon="-7.752068">
        <ele>38.166</ele>
        <time>2019-06-20T11:43:18Z</time>
      </trkpt>
      <trkpt lat="43.723607" lon="-7.752292">
        <ele>38.333</ele>
        <time>2019-06-20T11:43:19Z</time>
      </trkpt>
      <trkpt lat="43.723552" lon="-7.752512">
        <ele>39.214</ele>
        <time>2019-06-20T11:43:20Z</time>
      </trkpt>
      <trkpt lat="43.723495" lon="-7.752743">
        <ele>39.454</ele>
        <time>2019-06-20T11:43:21Z</time>
      </trkpt>
      <trkpt lat="43.723432" lon="-7.752983">
        <ele>40.409</ele>
        <time>2019-06-20T11:43:22Z</time>
      </trkpt>
      <trkpt lat="43.723356" lon="-7.753254">
        <ele>41.708</ele>
        <time>2019-06-20T11:43:23Z</time>
      </trkpt>
      <trkpt lat="43.723272" lon="-7.753522">
        <ele>42.184</ele>
        <time>2019-06-20T11:43:24Z</time>
      </trkpt>
      <trkpt lat="43.723200" lon="-7.753761">
        <ele>42.758</ele>
        <time>2019-06-20T11:43:25Z</time>
      </trkpt>
      <trkpt lat="43.723123" lon="-7.754042">
        <ele>44.519</ele>
        <time>2019-06-20T11:43:26Z</time>
      </trkpt>
      <trkpt lat="43.723042" lon="-7.754317">
        <ele>46.695</ele>
        <time>2019-06-20T11:43:27Z</time>
      </trkpt>
      <trkpt lat="43.722964" lon="-7.754595">
        <ele>47.552</ele>
        <time>2019-06-20T11:43:28Z</time>
      </trkpt>
      <trkpt lat="43.722881" lon="-7.754865">
        <ele>48.593</ele>
        <time>2019-06-20T11:43:29Z</time>
      </trkpt>
      <trkpt lat="43.722803" lon="-7.755136">
        <ele>49.535</ele>
        <time>2019-06-20T11:43:30Z</time>
      </trkpt>
      <trkpt lat="43.722736" lon="-7.755395">
        <ele>49.982</ele>
        <time>2019-06-20T11:43:31Z</time>
      </trkpt>
      <trkpt lat="43.722682" lon="-7.755641">
        <ele>50.353</ele>
        <time>2019-06-20T11:43:32Z</time>
      </trkpt>
      <trkpt lat="43.722645" lon="-7.755883">
        <ele>51.404</ele>
        <time>2019-06-20T11:43:33Z</time>
      </trkpt>
      <trkpt lat="43.722608" lon="-7.756126">
        <ele>53.114</ele>
        <time>2019-06-20T11:43:34Z</time>
      </trkpt>
      <trkpt lat="43.722561" lon="-7.756377">
        <ele>54.908</ele>
        <time>2019-06-20T11:43:35Z</time>
      </trkpt>
      <trkpt lat="43.722595" lon="-7.756617">
        <ele>56.968</ele>
        <time>2019-06-20T11:43:36Z</time>
      </trkpt>
      <trkpt lat="43.722636" lon="-7.756854">
        <ele>58.742</ele>
        <time>2019-06-20T11:43:37Z</time>
      </trkpt>
      <trkpt lat="43.722674" lon="-7.757093">
        <ele>61.193</ele>
        <time>2019-06-20T11:43:38Z</time>
      </trkpt>
      <trkpt lat="43.722738" lon="-7.757358">
        <ele>64.239</ele>
        <time>2019-06-20T11:43:39Z</time>
      </trkpt>
      <trkpt lat="43.722773" lon="-7.757614">
        <ele>67.316</ele>
        <time>2019-06-20T11:43:40Z</time>
      </trkpt>
      <trkpt lat="43.722803" lon="-7.757880">
        <ele>69.157</ele>
        <time>2019-06-20T11:43:41Z</time>
      </trkpt>
      <trkpt lat="43.722799" lon="-7.758144">
        <ele>70.289</ele>
        <time>2019-06-20T11:43:42Z</time>
      </trkpt>
      <trkpt lat="43.722793" lon="-7.758404">
        <ele>72.646</ele>
        <time>2019-06-20T11:43:43Z</time>
      </trkpt>
      <trkpt lat="43.722723" lon="-7.758656">
        <ele>74.212</ele>
        <time>2019-06-20T11:43:44Z</time>
      </trkpt>
      <trkpt lat="43.722631" lon="-7.758885">
        <ele>76.432</ele>
        <time>2019-06-20T11:43:45Z</time>
      </trkpt>
      <trkpt lat="43.722524" lon="-7.759109">
        <ele>77.805</ele>
        <time>2019-06-20T11:43:46Z</time>
      </trkpt>
      <trkpt lat="43.722399" lon="-7.759326">
        <ele>77.008</ele>
        <time>2019-06-20T11:43:47Z</time>
      </trkpt>
      <trkpt lat="43.722262" lon="-7.759528">
        <ele>74.714</ele>
        <time>2019-06-20T11:43:48Z</time>
      </trkpt>
      <trkpt lat="43.722115" lon="-7.759740">
        <ele>73.818</ele>
        <time>2019-06-20T11:43:49Z</time>
      </trkpt>
      <trkpt lat="43.721986" lon="-7.759976">
        <ele>76.929</ele>
        <time>2019-06-20T11:43:50Z</time>
      </trkpt>
      <trkpt lat="43.721852" lon="-7.760198">
        <ele>80.015</ele>
        <time>2019-06-20T11:43:51Z</time>
      </trkpt>
      <trkpt lat="43.721717" lon="-7.760427">
        <ele>81.522</ele>
        <time>2019-06-20T11:43:52Z</time>
      </trkpt>
      <trkpt lat="43.721582" lon="-7.760661">
        <ele>80.823</ele>
        <time>2019-06-20T11:43:53Z</time>
      </trkpt>
      <trkpt lat="43.721448" lon="-7.760897">
        <ele>79.215</ele>
        <time>2019-06-20T11:43:54Z</time>
      </trkpt>
      <trkpt lat="43.721310" lon="-7.761139">
        <ele>77.652</ele>
        <time>2019-06-20T11:43:55Z</time>
      </trkpt>
      <trkpt lat="43.721168" lon="-7.761363">
        <ele>76.337</ele>
        <time>2019-06-20T11:43:56Z</time>
      </trkpt>
      <trkpt lat="43.721027" lon="-7.761595">
        <ele>76.849</ele>
        <time>2019-06-20T11:43:57Z</time>
      </trkpt>
      <trkpt lat="43.720890" lon="-7.761815">
        <ele>79.113</ele>
        <time>2019-06-20T11:43:58Z</time>
      </trkpt>
      <trkpt lat="43.720760" lon="-7.762036">
        <ele>82.608</ele>
        <time>2019-06-20T11:43:59Z</time>
      </trkpt>
      <trkpt lat="43.720641" lon="-7.762244">
        <ele>85.696</ele>
        <time>2019-06-20T11:44:00Z</time>
      </trkpt>
      <trkpt lat="43.720518" lon="-7.762447">
        <ele>87.330</ele>
        <time>2019-06-20T11:44:01Z</time>
      </trkpt>
      <trkpt lat="43.720378" lon="-7.762637">
        <ele>88.831</ele>
        <time>2019-06-20T11:44:02Z</time>
      </trkpt>
      <trkpt lat="43.720239" lon="-7.762819">
        <ele>90.557</ele>
        <time>2019-06-20T11:44:03Z</time>
      </trkpt>
      <trkpt lat="43.720048" lon="-7.762952">
        <ele>91.714</ele>
        <time>2019-06-20T11:44:04Z</time>
      </trkpt>
      <trkpt lat="43.719867" lon="-7.763065">
        <ele>92.025</ele>
        <time>2019-06-20T11:44:05Z</time>
      </trkpt>
      <trkpt lat="43.719687" lon="-7.763125">
        <ele>92.217</ele>
        <time>2019-06-20T11:44:06Z</time>
      </trkpt>
      <trkpt lat="43.719492" lon="-7.763202">
        <ele>93.354</ele>
        <time>2019-06-20T11:44:07Z</time>
      </trkpt>
      <trkpt lat="43.719317" lon="-7.763271">
        <ele>94.196</ele>
        <time>2019-06-20T11:44:08Z</time>
      </trkpt>
      <trkpt lat="43.719136" lon="-7.763331">
        <ele>95.131</ele>
        <time>2019-06-20T11:44:09Z</time>
      </trkpt>
      <trkpt lat="43.718946" lon="-7.763404">
        <ele>96.524</ele>
        <time>2019-06-20T11:44:10Z</time>
      </trkpt>
      <trkpt lat="43.718782" lon="-7.763518">
        <ele>98.608</ele>
        <time>2019-06-20T11:44:11Z</time>
      </trkpt>
      <trkpt lat="43.718625" lon="-7.763656">
        <ele>100.132</ele>
        <time>2019-06-20T11:44:12Z</time>
      </trkpt>
      <trkpt lat="43.718475" lon="-7.763808">
        <ele>100.716</ele>
        <time>2019-06-20T11:44:13Z</time>
      </trkpt>
      <trkpt lat="43.718323" lon="-7.763978">
        <ele>101.017</ele>
        <time>2019-06-20T11:44:14Z</time>
      </trkpt>
      <trkpt lat="43.718174" lon="-7.764159">
        <ele>101.593</ele>
        <time>2019-06-20T11:44:15Z</time>
      </trkpt>
      <trkpt lat="43.718025" lon="-7.764347">
        <ele>103.450</ele>
        <time>2019-06-20T11:44:16Z</time>
      </trkpt>
      <trkpt lat="43.717873" lon="-7.764520">
        <ele>105.481</ele>
        <time>2019-06-20T11:44:17Z</time>
      </trkpt>
      <trkpt lat="43.717735" lon="-7.764691">
        <ele>107.543</ele>
        <time>2019-06-20T11:44:18Z</time>
      </trkpt>
      <trkpt lat="43.717602" lon="-7.764845">
        <ele>107.960</ele>
        <time>2019-06-20T11:44:19Z</time>
      </trkpt>
      <trkpt lat="43.717481" lon="-7.764996">
        <ele>109.059</ele>
        <time>2019-06-20T11:44:20Z</time>
      </trkpt>
      <trkpt lat="43.717365" lon="-7.765151">
        <ele>110.103</ele>
        <time>2019-06-20T11:44:21Z</time>
      </trkpt>
      <trkpt lat="43.717246" lon="-7.765317">
        <ele>111.323</ele>
        <time>2019-06-20T11:44:22Z</time>
      </trkpt>
      <trkpt lat="43.717131" lon="-7.765505">
        <ele>112.408</ele>
        <time>2019-06-20T11:44:23Z</time>
      </trkpt>
      <trkpt lat="43.717025" lon="-7.765714">
        <ele>113.318</ele>
        <time>2019-06-20T11:44:24Z</time>
      </trkpt>
      <trkpt lat="43.716922" lon="-7.765933">
        <ele>114.582</ele>
        <time>2019-06-20T11:44:25Z</time>
      </trkpt>
      <trkpt lat="43.716833" lon="-7.766176">
        <ele>115.313</ele>
        <time>2019-06-20T11:44:26Z</time>
      </trkpt>
      <trkpt lat="43.716739" lon="-7.766405">
        <ele>115.889</ele>
        <time>2019-06-20T11:44:27Z</time>
      </trkpt>
      <trkpt lat="43.716638" lon="-7.766639">
        <ele>114.946</ele>
        <time>2019-06-20T11:44:28Z</time>
      </trkpt>
      <trkpt lat="43.716534" lon="-7.766884">
        <ele>116.577</ele>
        <time>2019-06-20T11:44:29Z</time>
      </trkpt>
      <trkpt lat="43.716420" lon="-7.767123">
        <ele>117.889</ele>
        <time>2019-06-20T11:44:30Z</time>
      </trkpt>
      <trkpt lat="43.716297" lon="-7.767346">
        <ele>120.356</ele>
        <time>2019-06-20T11:44:31Z</time>
      </trkpt>
      <trkpt lat="43.716155" lon="-7.767552">
        <ele>123.284</ele>
        <time>2019-06-20T11:44:32Z</time>
      </trkpt>
      <trkpt lat="43.716014" lon="-7.767751">
        <ele>125.507</ele>
        <time>2019-06-20T11:44:33Z</time>
      </trkpt>
      <trkpt lat="43.715859" lon="-7.767930">
        <ele>128.917</ele>
        <time>2019-06-20T11:44:34Z</time>
      </trkpt>
      <trkpt lat="43.715697" lon="-7.768095">
        <ele>129.308</ele>
        <time>2019-06-20T11:44:35Z</time>
      </trkpt>
      <trkpt lat="43.715529" lon="-7.768240">
        <ele>128.251</ele>
        <time>2019-06-20T11:44:36Z</time>
      </trkpt>
      <trkpt lat="43.715364" lon="-7.768367">
        <ele>129.215</ele>
        <time>2019-06-20T11:44:37Z</time>
      </trkpt>
      <trkpt lat="43.715202" lon="-7.768474">
        <ele>130.616</ele>
        <time>2019-06-20T11:44:38Z</time>
      </trkpt>
      <trkpt lat="43.715042" lon="-7.768559">
        <ele>132.952</ele>
        <time>2019-06-20T11:44:39Z</time>
      </trkpt>
      <trkpt lat="43.714889" lon="-7.768634">
        <ele>134.629</ele>
        <time>2019-06-20T11:44:40Z</time>
      </trkpt>
      <trkpt lat="43.714759" lon="-7.768688">
        <ele>135.790</ele>
        <time>2019-06-20T11:44:41Z</time>
      </trkpt>
      <trkpt lat="43.714620" lon="-7.768745">
        <ele>135.922</ele>
        <time>2019-06-20T11:44:42Z</time>
      </trkpt>
      <trkpt lat="43.714484" lon="-7.768806">
        <ele>136.089</ele>
        <time>2019-06-20T11:44:43Z</time>
      </trkpt>
      <trkpt lat="43.714363" lon="-7.768867">
        <ele>136.196</ele>
        <time>2019-06-20T11:44:44Z</time>
      </trkpt>
      <trkpt lat="43.714255" lon="-7.768925">
        <ele>136.031</ele>
        <time>2019-06-20T11:44:45Z</time>
      </trkpt>
      <trkpt lat="43.714140" lon="-7.768982">
        <ele>136.224</ele>
        <time>2019-06-20T11:44:46Z</time>
      </trkpt>
      <trkpt lat="43.714024" lon="-7.769065">
        <ele>137.508</ele>
        <time>2019-06-20T11:44:47Z</time>
      </trkpt>
      <trkpt lat="43.713915" lon="-7.769157">
        <ele>138.012</ele>
        <time>2019-06-20T11:44:48Z</time>
      </trkpt>
      <trkpt lat="43.713813" lon="-7.769273">
        <ele>138.496</ele>
        <time>2019-06-20T11:44:49Z</time>
      </trkpt>
      <trkpt lat="43.713726" lon="-7.769420">
        <ele>138.677</ele>
        <time>2019-06-20T11:44:50Z</time>
      </trkpt>
      <trkpt lat="43.713633" lon="-7.769571">
        <ele>138.133</ele>
        <time>2019-06-20T11:44:51Z</time>
      </trkpt>
      <trkpt lat="43.713559" lon="-7.769753">
        <ele>137.040</ele>
        <time>2019-06-20T11:44:52Z</time>
      </trkpt>
      <trkpt lat="43.713505" lon="-7.769956">
        <ele>135.941</ele>
        <time>2019-06-20T11:44:53Z</time>
      </trkpt>
      <trkpt lat="43.713460" lon="-7.770178">
        <ele>134.583</ele>
        <time>2019-06-20T11:44:54Z</time>
      </trkpt>
      <trkpt lat="43.713424" lon="-7.770412">
        <ele>132.490</ele>
        <time>2019-06-20T11:44:55Z</time>
      </trkpt>
      <trkpt lat="43.713412" lon="-7.770692">
        <ele>130.534</ele>
        <time>2019-06-20T11:44:56Z</time>
      </trkpt>
      <trkpt lat="43.713416" lon="-7.771027">
        <ele>130.255</ele>
        <time>2019-06-20T11:44:57Z</time>
      </trkpt>
      <trkpt lat="43.713408" lon="-7.771326">
        <ele>129.910</ele>
        <time>2019-06-20T11:44:58Z</time>
      </trkpt>
      <trkpt lat="43.713402" lon="-7.771624">
        <ele>128.308</ele>
        <time>2019-06-20T11:44:59Z</time>
      </trkpt>
      <trkpt lat="43.713396" lon="-7.771919">
        <ele>124.546</ele>
        <time>2019-06-20T11:45:00Z</time>
      </trkpt>
      <trkpt lat="43.713393" lon="-7.772220">
        <ele>122.170</ele>
        <time>2019-06-20T11:45:01Z</time>
      </trkpt>
      <trkpt lat="43.713409" lon="-7.772511">
        <ele>122.611</ele>
        <time>2019-06-20T11:45:02Z</time>
      </trkpt>
      <trkpt lat="43.713449" lon="-7.772828">
        <ele>123.827</ele>
        <time>2019-06-20T11:45:03Z</time>
      </trkpt>
      <trkpt lat="43.713495" lon="-7.773150">
        <ele>124.084</ele>
        <time>2019-06-20T11:45:04Z</time>
      </trkpt>
      <trkpt lat="43.713543" lon="-7.773444">
        <ele>122.675</ele>
        <time>2019-06-20T11:45:05Z</time>
      </trkpt>
      <trkpt lat="43.713641" lon="-7.773790">
        <ele>121.687</ele>
        <time>2019-06-20T11:45:06Z</time>
      </trkpt>
      <trkpt lat="43.713713" lon="-7.774093">
        <ele>121.914</ele>
        <time>2019-06-20T11:45:07Z</time>
      </trkpt>
      <trkpt lat="43.713787" lon="-7.774399">
        <ele>123.776</ele>
        <time>2019-06-20T11:45:08Z</time>
      </trkpt>
      <trkpt lat="43.713860" lon="-7.774702">
        <ele>127.690</ele>
        <time>2019-06-20T11:45:09Z</time>
      </trkpt>
      <trkpt lat="43.713926" lon="-7.775000">
        <ele>127.919</ele>
        <time>2019-06-20T11:45:10Z</time>
      </trkpt>
      <trkpt lat="43.713993" lon="-7.775285">
        <ele>127.508</ele>
        <time>2019-06-20T11:45:11Z</time>
      </trkpt>
      <trkpt lat="43.714055" lon="-7.775582">
        <ele>123.860</ele>
        <time>2019-06-20T11:45:12Z</time>
      </trkpt>
      <trkpt lat="43.714115" lon="-7.775826">
        <ele>118.454</ele>
        <time>2019-06-20T11:45:13Z</time>
      </trkpt>
      <trkpt lat="43.714160" lon="-7.776069">
        <ele>113.025</ele>
        <time>2019-06-20T11:45:14Z</time>
      </trkpt>
      <trkpt lat="43.714197" lon="-7.776309">
        <ele>110.611</ele>
        <time>2019-06-20T11:45:15Z</time>
      </trkpt>
      <trkpt lat="43.714185" lon="-7.776534">
        <ele>108.348</ele>
        <time>2019-06-20T11:45:16Z</time>
      </trkpt>
      <trkpt lat="43.714187" lon="-7.776760">
        <ele>108.469</ele>
        <time>2019-06-20T11:45:17Z</time>
      </trkpt>
      <trkpt lat="43.714108" lon="-7.776956">
        <ele>109.971</ele>
        <time>2019-06-20T11:45:18Z</time>
      </trkpt>
      <trkpt lat="43.714026" lon="-7.777151">
        <ele>113.898</ele>
        <time>2019-06-20T11:45:19Z</time>
      </trkpt>
      <trkpt lat="43.713901" lon="-7.777341">
        <ele>115.885</ele>
        <time>2019-06-20T11:45:20Z</time>
      </trkpt>
      <trkpt lat="43.713788" lon="-7.777525">
        <ele>116.489</ele>
        <time>2019-06-20T11:45:21Z</time>
      </trkpt>
      <trkpt lat="43.713669" lon="-7.777721">
        <ele>115.717</ele>
        <time>2019-06-20T11:45:22Z</time>
      </trkpt>
      <trkpt lat="43.713551" lon="-7.777913">
        <ele>113.708</ele>
        <time>2019-06-20T11:45:23Z</time>
      </trkpt>
      <trkpt lat="43.713469" lon="-7.778119">
        <ele>111.591</ele>
        <time>2019-06-20T11:45:24Z</time>
      </trkpt>
      <trkpt lat="43.713395" lon="-7.778341">
        <ele>108.765</ele>
        <time>2019-06-20T11:45:25Z</time>
      </trkpt>
      <trkpt lat="43.713417" lon="-7.778611">
        <ele>109.336</ele>
        <time>2019-06-20T11:45:26Z</time>
      </trkpt>
      <trkpt lat="43.713413" lon="-7.778879">
        <ele>108.992</ele>
        <time>2019-06-20T11:45:27Z</time>
      </trkpt>
      <trkpt lat="43.713440" lon="-7.779162">
        <ele>108.199</ele>
        <time>2019-06-20T11:45:28Z</time>
      </trkpt>
      <trkpt lat="43.713457" lon="-7.779465">
        <ele>106.420</ele>
        <time>2019-06-20T11:45:29Z</time>
      </trkpt>
      <trkpt lat="43.713500" lon="-7.779787">
        <ele>104.212</ele>
        <time>2019-06-20T11:45:30Z</time>
      </trkpt>
      <trkpt lat="43.713546" lon="-7.780082">
        <ele>99.859</ele>
        <time>2019-06-20T11:45:31Z</time>
      </trkpt>
      <trkpt lat="43.713594" lon="-7.780381">
        <ele>97.218</ele>
        <time>2019-06-20T11:45:32Z</time>
      </trkpt>
      <trkpt lat="43.713638" lon="-7.780664">
        <ele>96.598</ele>
        <time>2019-06-20T11:45:33Z</time>
      </trkpt>
      <trkpt lat="43.713695" lon="-7.780955">
        <ele>97.417</ele>
        <time>2019-06-20T11:45:34Z</time>
      </trkpt>
      <trkpt lat="43.713765" lon="-7.781233">
        <ele>98.408</ele>
        <time>2019-06-20T11:45:35Z</time>
      </trkpt>
      <trkpt lat="43.713828" lon="-7.781507">
        <ele>97.694</ele>
        <time>2019-06-20T11:45:36Z</time>
      </trkpt>
      <trkpt lat="43.713907" lon="-7.781781">
        <ele>96.918</ele>
        <time>2019-06-20T11:45:37Z</time>
      </trkpt>
      <trkpt lat="43.714014" lon="-7.782027">
        <ele>96.159</ele>
        <time>2019-06-20T11:45:38Z</time>
      </trkpt>
      <trkpt lat="43.714125" lon="-7.782277">
        <ele>94.555</ele>
        <time>2019-06-20T11:45:39Z</time>
      </trkpt>
      <trkpt lat="43.714236" lon="-7.782515">
        <ele>95.182</ele>
        <time>2019-06-20T11:45:40Z</time>
      </trkpt>
      <trkpt lat="43.714335" lon="-7.782764">
        <ele>96.213</ele>
        <time>2019-06-20T11:45:41Z</time>
      </trkpt>
      <trkpt lat="43.714417" lon="-7.783009">
        <ele>97.275</ele>
        <time>2019-06-20T11:45:42Z</time>
      </trkpt>
      <trkpt lat="43.714483" lon="-7.783276">
        <ele>98.112</ele>
        <time>2019-06-20T11:45:43Z</time>
      </trkpt>
      <trkpt lat="43.714510" lon="-7.783568">
        <ele>97.651</ele>
        <time>2019-06-20T11:45:44Z</time>
      </trkpt>
      <trkpt lat="43.714414" lon="-7.783815">
        <ele>95.101</ele>
        <time>2019-06-20T11:45:45Z</time>
      </trkpt>
      <trkpt lat="43.714389" lon="-7.784082">
        <ele>94.711</ele>
        <time>2019-06-20T11:45:46Z</time>
      </trkpt>
      <trkpt lat="43.714344" lon="-7.784356">
        <ele>92.808</ele>
        <time>2019-06-20T11:45:47Z</time>
      </trkpt>
      <trkpt lat="43.714181" lon="-7.784519">
        <ele>87.228</ele>
        <time>2019-06-20T11:45:48Z</time>
      </trkpt>
      <trkpt lat="43.714060" lon="-7.784721">
        <ele>82.232</ele>
        <time>2019-06-20T11:45:49Z</time>
      </trkpt>
      <trkpt lat="43.713960" lon="-7.784925">
        <ele>77.613</ele>
        <time>2019-06-20T11:45:50Z</time>
      </trkpt>
      <trkpt lat="43.713872" lon="-7.785165">
        <ele>73.039</ele>
        <time>2019-06-20T11:45:51Z</time>
      </trkpt>
      <trkpt lat="43.713793" lon="-7.785400">
        <ele>68.586</ele>
        <time>2019-06-20T11:45:52Z</time>
      </trkpt>
      <trkpt lat="43.713730" lon="-7.785666">
        <ele>66.027</ele>
        <time>2019-06-20T11:45:53Z</time>
      </trkpt>
      <trkpt lat="43.713719" lon="-7.785938">
        <ele>66.699</ele>
        <time>2019-06-20T11:45:54Z</time>
      </trkpt>
      <trkpt lat="43.713688" lon="-7.786190">
        <ele>66.366</ele>
        <time>2019-06-20T11:45:55Z</time>
      </trkpt>
      <trkpt lat="43.713660" lon="-7.786448">
        <ele>66.012</ele>
        <time>2019-06-20T11:45:56Z</time>
      </trkpt>
      <trkpt lat="43.713652" lon="-7.786707">
        <ele>64.732</ele>
        <time>2019-06-20T11:45:57Z</time>
      </trkpt>
      <trkpt lat="43.713656" lon="-7.786977">
        <ele>63.205</ele>
        <time>2019-06-20T11:45:58Z</time>
      </trkpt>
      <trkpt lat="43.713662" lon="-7.787239">
        <ele>60.008</ele>
        <time>2019-06-20T11:45:59Z</time>
      </trkpt>
      <trkpt lat="43.713740" lon="-7.787488">
        <ele>59.064</ele>
        <time>2019-06-20T11:46:00Z</time>
      </trkpt>
      <trkpt lat="43.713828" lon="-7.787713">
        <ele>57.828</ele>
        <time>2019-06-20T11:46:01Z</time>
      </trkpt>
      <trkpt lat="43.713927" lon="-7.787918">
        <ele>56.649</ele>
        <time>2019-06-20T11:46:02Z</time>
      </trkpt>
      <trkpt lat="43.714089" lon="-7.788083">
        <ele>54.815</ele>
        <time>2019-06-20T11:46:03Z</time>
      </trkpt>
      <trkpt lat="43.714246" lon="-7.788237">
        <ele>53.912</ele>
        <time>2019-06-20T11:46:04Z</time>
      </trkpt>
      <trkpt lat="43.714413" lon="-7.788383">
        <ele>52.663</ele>
        <time>2019-06-20T11:46:05Z</time>
      </trkpt>
      <trkpt lat="43.714572" lon="-7.788529">
        <ele>51.665</ele>
        <time>2019-06-20T11:46:06Z</time>
      </trkpt>
      <trkpt lat="43.714722" lon="-7.788689">
        <ele>50.782</ele>
        <time>2019-06-20T11:46:07Z</time>
      </trkpt>
      <trkpt lat="43.714863" lon="-7.788857">
        <ele>49.696</ele>
        <time>2019-06-20T11:46:08Z</time>
      </trkpt>
      <trkpt lat="43.714978" lon="-7.789047">
        <ele>49.031</ele>
        <time>2019-06-20T11:46:09Z</time>
      </trkpt>
      <trkpt lat="43.715090" lon="-7.789262">
        <ele>49.424</ele>
        <time>2019-06-20T11:46:10Z</time>
      </trkpt>
      <trkpt lat="43.715188" lon="-7.789497">
        <ele>49.008</ele>
        <time>2019-06-20T11:46:11Z</time>
      </trkpt>
      <trkpt lat="43.715240" lon="-7.789738">
        <ele>49.052</ele>
        <time>2019-06-20T11:46:12Z</time>
      </trkpt>
      <trkpt lat="43.715261" lon="-7.790004">
        <ele>48.176</ele>
        <time>2019-06-20T11:46:13Z</time>
      </trkpt>
      <trkpt lat="43.715232" lon="-7.790243">
        <ele>49.017</ele>
        <time>2019-06-20T11:46:14Z</time>
      </trkpt>
      <trkpt lat="43.715196" lon="-7.790487">
        <ele>49.673</ele>
        <time>2019-06-20T11:46:15Z</time>
      </trkpt>
      <trkpt lat="43.715093" lon="-7.790723">
        <ele>49.750</ele>
        <time>2019-06-20T11:46:16Z</time>
      </trkpt>
      <trkpt lat="43.715019" lon="-7.790981">
        <ele>50.251</ele>
        <time>2019-06-20T11:46:17Z</time>
      </trkpt>
      <trkpt lat="43.714879" lon="-7.791200">
        <ele>51.633</ele>
        <time>2019-06-20T11:46:18Z</time>
      </trkpt>
      <trkpt lat="43.714721" lon="-7.791407">
        <ele>52.070</ele>
        <time>2019-06-20T11:46:19Z</time>
      </trkpt>
      <trkpt lat="43.714491" lon="-7.791492">
        <ele>50.393</ele>
        <time>2019-06-20T11:46:20Z</time>
      </trkpt>
      <trkpt lat="43.714308" lon="-7.791681">
        <ele>50.965</ele>
        <time>2019-06-20T11:46:21Z</time>
      </trkpt>
      <trkpt lat="43.714124" lon="-7.791871">
        <ele>51.821</ele>
        <time>2019-06-20T11:46:22Z</time>
      </trkpt>
      <trkpt lat="43.713941" lon="-7.792062">
        <ele>54.008</ele>
        <time>2019-06-20T11:46:23Z</time>
      </trkpt>
      <trkpt lat="43.713744" lon="-7.792254">
        <ele>52.382</ele>
        <time>2019-06-20T11:46:24Z</time>
      </trkpt>
      <trkpt lat="43.713575" lon="-7.792437">
        <ele>52.696</ele>
        <time>2019-06-20T11:46:25Z</time>
      </trkpt>
      <trkpt lat="43.713382" lon="-7.792632">
        <ele>49.757</ele>
        <time>2019-06-20T11:46:26Z</time>
      </trkpt>
      <trkpt lat="43.713187" lon="-7.792827">
        <ele>49.553</ele>
        <time>2019-06-20T11:46:27Z</time>
      </trkpt>
      <trkpt lat="43.713009" lon="-7.793001">
        <ele>49.330</ele>
        <time>2019-06-20T11:46:28Z</time>
      </trkpt>
      <trkpt lat="43.712843" lon="-7.793170">
        <ele>48.731</ele>
        <time>2019-06-20T11:46:29Z</time>
      </trkpt>
      <trkpt lat="43.712675" lon="-7.793337">
        <ele>47.183</ele>
        <time>2019-06-20T11:46:30Z</time>
      </trkpt>
      <trkpt lat="43.712512" lon="-7.793506">
        <ele>44.210</ele>
        <time>2019-06-20T11:46:31Z</time>
      </trkpt>
      <trkpt lat="43.712349" lon="-7.793659">
        <ele>42.847</ele>
        <time>2019-06-20T11:46:32Z</time>
      </trkpt>
      <trkpt lat="43.712175" lon="-7.793685">
        <ele>39.629</ele>
        <time>2019-06-20T11:46:33Z</time>
      </trkpt>
      <trkpt lat="43.712006" lon="-7.793726">
        <ele>36.621</ele>
        <time>2019-06-20T11:46:34Z</time>
      </trkpt>
      <trkpt lat="43.711815" lon="-7.793788">
        <ele>34.408</ele>
        <time>2019-06-20T11:46:35Z</time>
      </trkpt>
      <trkpt lat="43.711627" lon="-7.793876">
        <ele>32.967</ele>
        <time>2019-06-20T11:46:36Z</time>
      </trkpt>
      <trkpt lat="43.711459" lon="-7.793947">
        <ele>32.391</ele>
        <time>2019-06-20T11:46:37Z</time>
      </trkpt>
      <trkpt lat="43.711276" lon="-7.794036">
        <ele>31.672</ele>
        <time>2019-06-20T11:46:38Z</time>
      </trkpt>
      <trkpt lat="43.711113" lon="-7.794149">
        <ele>31.038</ele>
        <time>2019-06-20T11:46:39Z</time>
      </trkpt>
      <trkpt lat="43.711097" lon="-7.794457">
        <ele>31.785</ele>
        <time>2019-06-20T11:46:40Z</time>
      </trkpt>
      <trkpt lat="43.711029" lon="-7.794680">
        <ele>31.026</ele>
        <time>2019-06-20T11:46:41Z</time>
      </trkpt>
      <trkpt lat="43.710983" lon="-7.794909">
        <ele>31.088</ele>
        <time>2019-06-20T11:46:42Z</time>
      </trkpt>
      <trkpt lat="43.710979" lon="-7.795162">
        <ele>30.585</ele>
        <time>2019-06-20T11:46:43Z</time>
      </trkpt>
      <trkpt lat="43.710991" lon="-7.795402">
        <ele>29.261</ele>
        <time>2019-06-20T11:46:44Z</time>
      </trkpt>
      <trkpt lat="43.711018" lon="-7.795617">
        <ele>27.821</ele>
        <time>2019-06-20T11:46:45Z</time>
      </trkpt>
      <trkpt lat="43.711042" lon="-7.795848">
        <ele>26.213</ele>
        <time>2019-06-20T11:46:46Z</time>
      </trkpt>
      <trkpt lat="43.711173" lon="-7.796021">
        <ele>27.108</ele>
        <time>2019-06-20T11:46:47Z</time>
      </trkpt>
      <trkpt lat="43.711286" lon="-7.796184">
        <ele>28.199</ele>
        <time>2019-06-20T11:46:48Z</time>
      </trkpt>
      <trkpt lat="43.711397" lon="-7.796341">
        <ele>28.613</ele>
        <time>2019-06-20T11:46:49Z</time>
      </trkpt>
      <trkpt lat="43.711498" lon="-7.796509">
        <ele>30.434</ele>
        <time>2019-06-20T11:46:50Z</time>
      </trkpt>
      <trkpt lat="43.711585" lon="-7.796694">
        <ele>31.290</ele>
        <time>2019-06-20T11:46:51Z</time>
      </trkpt>
      <trkpt lat="43.711640" lon="-7.796886">
        <ele>32.317</ele>
        <time>2019-06-20T11:46:52Z</time>
      </trkpt>
      <trkpt lat="43.711672" lon="-7.797085">
        <ele>33.258</ele>
        <time>2019-06-20T11:46:53Z</time>
      </trkpt>
      <trkpt lat="43.711674" lon="-7.797294">
        <ele>33.340</ele>
        <time>2019-06-20T11:46:54Z</time>
      </trkpt>
      <trkpt lat="43.711659" lon="-7.797501">
        <ele>32.717</ele>
        <time>2019-06-20T11:46:55Z</time>
      </trkpt>
      <trkpt lat="43.711568" lon="-7.797688">
        <ele>30.476</ele>
        <time>2019-06-20T11:46:56Z</time>
      </trkpt>
      <trkpt lat="43.711469" lon="-7.797863">
        <ele>28.190</ele>
        <time>2019-06-20T11:46:57Z</time>
      </trkpt>
      <trkpt lat="43.711347" lon="-7.798024">
        <ele>25.819</ele>
        <time>2019-06-20T11:46:58Z</time>
      </trkpt>
      <trkpt lat="43.711221" lon="-7.798172">
        <ele>24.208</ele>
        <time>2019-06-20T11:46:59Z</time>
      </trkpt>
      <trkpt lat="43.711099" lon="-7.798271">
        <ele>22.430</ele>
        <time>2019-06-20T11:47:00Z</time>
      </trkpt>
      <trkpt lat="43.710978" lon="-7.798388">
        <ele>21.854</ele>
        <time>2019-06-20T11:47:01Z</time>
      </trkpt>
      <trkpt lat="43.710874" lon="-7.798516">
        <ele>20.665</ele>
        <time>2019-06-20T11:47:02Z</time>
      </trkpt>
      <trkpt lat="43.710782" lon="-7.798673">
        <ele>20.181</ele>
        <time>2019-06-20T11:47:03Z</time>
      </trkpt>
      <trkpt lat="43.710691" lon="-7.798824">
        <ele>20.028</ele>
        <time>2019-06-20T11:47:04Z</time>
      </trkpt>
      <trkpt lat="43.710691" lon="-7.799104">
        <ele>19.279</ele>
        <time>2019-06-20T11:47:05Z</time>
      </trkpt>
      <trkpt lat="43.710687" lon="-7.799322">
        <ele>19.051</ele>
        <time>2019-06-20T11:47:06Z</time>
      </trkpt>
      <trkpt lat="43.710705" lon="-7.799550">
        <ele>18.678</ele>
        <time>2019-06-20T11:47:07Z</time>
      </trkpt>
      <trkpt lat="43.710715" lon="-7.799739">
        <ele>17.842</ele>
        <time>2019-06-20T11:47:08Z</time>
      </trkpt>
      <trkpt lat="43.710723" lon="-7.799928">
        <ele>17.122</ele>
        <time>2019-06-20T11:47:09Z</time>
      </trkpt>
      <trkpt lat="43.710729" lon="-7.800111">
        <ele>17.014</ele>
        <time>2019-06-20T11:47:10Z</time>
      </trkpt>
      <trkpt lat="43.710770" lon="-7.800302">
        <ele>17.408</ele>
        <time>2019-06-20T11:47:11Z</time>
      </trkpt>
      <trkpt lat="43.710804" lon="-7.800479">
        <ele>18.677</ele>
        <time>2019-06-20T11:47:12Z</time>
      </trkpt>
      <trkpt lat="43.710843" lon="-7.800656">
        <ele>20.031</ele>
        <time>2019-06-20T11:47:13Z</time>
      </trkpt>
      <trkpt lat="43.710876" lon="-7.800816">
        <ele>21.492</ele>
        <time>2019-06-20T11:47:14Z</time>
      </trkpt>
      <trkpt lat="43.710901" lon="-7.800965">
        <ele>21.378</ele>
        <time>2019-06-20T11:47:15Z</time>
      </trkpt>
      <trkpt lat="43.710910" lon="-7.801127">
        <ele>21.285</ele>
        <time>2019-06-20T11:47:16Z</time>
      </trkpt>
      <trkpt lat="43.710915" lon="-7.801300">
        <ele>20.926</ele>
        <time>2019-06-20T11:47:17Z</time>
      </trkpt>
      <trkpt lat="43.710909" lon="-7.801472">
        <ele>20.328</ele>
        <time>2019-06-20T11:47:18Z</time>
      </trkpt>
      <trkpt lat="43.710893" lon="-7.801644">
        <ele>19.395</ele>
        <time>2019-06-20T11:47:19Z</time>
      </trkpt>
      <trkpt lat="43.710862" lon="-7.801818">
        <ele>18.048</ele>
        <time>2019-06-20T11:47:20Z</time>
      </trkpt>
      <trkpt lat="43.710817" lon="-7.801988">
        <ele>17.361</ele>
        <time>2019-06-20T11:47:21Z</time>
      </trkpt>
      <trkpt lat="43.710766" lon="-7.802154">
        <ele>18.217</ele>
        <time>2019-06-20T11:47:22Z</time>
      </trkpt>
      <trkpt lat="43.710697" lon="-7.802295">
        <ele>19.608</ele>
        <time>2019-06-20T11:47:23Z</time>
      </trkpt>
      <trkpt lat="43.710624" lon="-7.802442">
        <ele>21.017</ele>
        <time>2019-06-20T11:47:24Z</time>
      </trkpt>
      <trkpt lat="43.710547" lon="-7.802577">
        <ele>22.191</ele>
        <time>2019-06-20T11:47:25Z</time>
      </trkpt>
      <trkpt lat="43.710459" lon="-7.802687">
        <ele>22.892</ele>
        <time>2019-06-20T11:47:26Z</time>
      </trkpt>
      <trkpt lat="43.710398" lon="-7.802798">
        <ele>23.038</ele>
        <time>2019-06-20T11:47:27Z</time>
      </trkpt>
      <trkpt lat="43.710309" lon="-7.802897">
        <ele>23.085</ele>
        <time>2019-06-20T11:47:28Z</time>
      </trkpt>
      <trkpt lat="43.710217" lon="-7.803002">
        <ele>22.956</ele>
        <time>2019-06-20T11:47:29Z</time>
      </trkpt>
      <trkpt lat="43.710126" lon="-7.803085">
        <ele>23.048</ele>
        <time>2019-06-20T11:47:30Z</time>
      </trkpt>
      <trkpt lat="43.710036" lon="-7.803179">
        <ele>23.765</ele>
        <time>2019-06-20T11:47:31Z</time>
      </trkpt>
      <trkpt lat="43.709955" lon="-7.803276">
        <ele>24.454</ele>
        <time>2019-06-20T11:47:32Z</time>
      </trkpt>
      <trkpt lat="43.709886" lon="-7.803371">
        <ele>24.856</ele>
        <time>2019-06-20T11:47:33Z</time>
      </trkpt>
      <trkpt lat="43.709824" lon="-7.803475">
        <ele>25.311</ele>
        <time>2019-06-20T11:47:34Z</time>
      </trkpt>
      <trkpt lat="43.709772" lon="-7.803582">
        <ele>25.608</ele>
        <time>2019-06-20T11:47:35Z</time>
      </trkpt>
      <trkpt lat="43.709724" lon="-7.803682">
        <ele>26.058</ele>
        <time>2019-06-20T11:47:36Z</time>
      </trkpt>
      <trkpt lat="43.709663" lon="-7.803799">
        <ele>26.522</ele>
        <time>2019-06-20T11:47:37Z</time>
      </trkpt>
      <trkpt lat="43.709595" lon="-7.803925">
        <ele>26.653</ele>
        <time>2019-06-20T11:47:38Z</time>
      </trkpt>
      <trkpt lat="43.709525" lon="-7.804064">
        <ele>25.789</ele>
        <time>2019-06-20T11:47:39Z</time>
      </trkpt>
      <trkpt lat="43.709449" lon="-7.804218">
        <ele>24.676</ele>
        <time>2019-06-20T11:47:40Z</time>
      </trkpt>
      <trkpt lat="43.709368" lon="-7.804378">
        <ele>24.217</ele>
        <time>2019-06-20T11:47:41Z</time>
      </trkpt>
      <trkpt lat="43.709281" lon="-7.804550">
        <ele>24.819</ele>
        <time>2019-06-20T11:47:42Z</time>
      </trkpt>
      <trkpt lat="43.709196" lon="-7.804712">
        <ele>25.736</ele>
        <time>2019-06-20T11:47:43Z</time>
      </trkpt>
      <trkpt lat="43.709115" lon="-7.804884">
        <ele>26.435</ele>
        <time>2019-06-20T11:47:44Z</time>
      </trkpt>
      <trkpt lat="43.709029" lon="-7.805050">
        <ele>26.686</ele>
        <time>2019-06-20T11:47:45Z</time>
      </trkpt>
      <trkpt lat="43.708920" lon="-7.805211">
        <ele>26.314</ele>
        <time>2019-06-20T11:47:46Z</time>
      </trkpt>
      <trkpt lat="43.708797" lon="-7.805363">
        <ele>26.008</ele>
        <time>2019-06-20T11:47:47Z</time>
      </trkpt>
      <trkpt lat="43.708654" lon="-7.805508">
        <ele>26.096</ele>
        <time>2019-06-20T11:47:48Z</time>
      </trkpt>
      <trkpt lat="43.708512" lon="-7.805665">
        <ele>26.680</ele>
        <time>2019-06-20T11:47:49Z</time>
      </trkpt>
      <trkpt lat="43.708357" lon="-7.805820">
        <ele>27.031</ele>
        <time>2019-06-20T11:47:50Z</time>
      </trkpt>
      <trkpt lat="43.708210" lon="-7.805981">
        <ele>28.657</ele>
        <time>2019-06-20T11:47:51Z</time>
      </trkpt>
      <trkpt lat="43.708052" lon="-7.806135">
        <ele>30.184</ele>
        <time>2019-06-20T11:47:52Z</time>
      </trkpt>
      <trkpt lat="43.707915" lon="-7.806276">
        <ele>31.895</ele>
        <time>2019-06-20T11:47:53Z</time>
      </trkpt>
      <trkpt lat="43.707792" lon="-7.806409">
        <ele>32.957</ele>
        <time>2019-06-20T11:47:54Z</time>
      </trkpt>
      <trkpt lat="43.707686" lon="-7.806541">
        <ele>33.574</ele>
        <time>2019-06-20T11:47:55Z</time>
      </trkpt>
      <trkpt lat="43.707580" lon="-7.806679">
        <ele>34.466</ele>
        <time>2019-06-20T11:47:56Z</time>
      </trkpt>
      <trkpt lat="43.707484" lon="-7.806820">
        <ele>35.129</ele>
        <time>2019-06-20T11:47:57Z</time>
      </trkpt>
      <trkpt lat="43.707410" lon="-7.806995">
        <ele>36.221</ele>
        <time>2019-06-20T11:47:58Z</time>
      </trkpt>
      <trkpt lat="43.707340" lon="-7.807176">
        <ele>37.608</ele>
        <time>2019-06-20T11:47:59Z</time>
      </trkpt>
      <trkpt lat="43.707273" lon="-7.807359">
        <ele>39.339</ele>
        <time>2019-06-20T11:48:00Z</time>
      </trkpt>
      <trkpt lat="43.707205" lon="-7.807541">
        <ele>41.413</ele>
        <time>2019-06-20T11:48:01Z</time>
      </trkpt>
      <trkpt lat="43.707123" lon="-7.807687">
        <ele>42.854</ele>
        <time>2019-06-20T11:48:02Z</time>
      </trkpt>
      <trkpt lat="43.707025" lon="-7.807812">
        <ele>44.110</ele>
        <time>2019-06-20T11:48:03Z</time>
      </trkpt>
      <trkpt lat="43.706907" lon="-7.807903">
        <ele>45.457</ele>
        <time>2019-06-20T11:48:04Z</time>
      </trkpt>
      <trkpt lat="43.706783" lon="-7.807956">
        <ele>46.138</ele>
        <time>2019-06-20T11:48:05Z</time>
      </trkpt>
      <trkpt lat="43.706645" lon="-7.807975">
        <ele>46.450</ele>
        <time>2019-06-20T11:48:06Z</time>
      </trkpt>
      <trkpt lat="43.706511" lon="-7.807968">
        <ele>46.467</ele>
        <time>2019-06-20T11:48:07Z</time>
      </trkpt>
      <trkpt lat="43.706378" lon="-7.807913">
        <ele>46.154</ele>
        <time>2019-06-20T11:48:08Z</time>
      </trkpt>
      <trkpt lat="43.706254" lon="-7.807829">
        <ele>46.556</ele>
        <time>2019-06-20T11:48:09Z</time>
      </trkpt>
      <trkpt lat="43.706155" lon="-7.807738">
        <ele>46.811</ele>
        <time>2019-06-20T11:48:10Z</time>
      </trkpt>
      <trkpt lat="43.706061" lon="-7.807649">
        <ele>48.508</ele>
        <time>2019-06-20T11:48:11Z</time>
      </trkpt>
      <trkpt lat="43.705968" lon="-7.807583">
        <ele>50.498</ele>
        <time>2019-06-20T11:48:12Z</time>
      </trkpt>
      <trkpt lat="43.705882" lon="-7.807546">
        <ele>52.132</ele>
        <time>2019-06-20T11:48:13Z</time>
      </trkpt>
      <trkpt lat="43.705787" lon="-7.807524">
        <ele>53.343</ele>
        <time>2019-06-20T11:48:14Z</time>
      </trkpt>
      <trkpt lat="43.705680" lon="-7.807526">
        <ele>54.129</ele>
        <time>2019-06-20T11:48:15Z</time>
      </trkpt>
      <trkpt lat="43.705567" lon="-7.807519">
        <ele>54.956</ele>
        <time>2019-06-20T11:48:16Z</time>
      </trkpt>
      <trkpt lat="43.705453" lon="-7.807546">
        <ele>56.437</ele>
        <time>2019-06-20T11:48:17Z</time>
      </trkpt>
      <trkpt lat="43.705320" lon="-7.807566">
        <ele>58.289</ele>
        <time>2019-06-20T11:48:18Z</time>
      </trkpt>
      <trkpt lat="43.705172" lon="-7.807616">
        <ele>59.596</ele>
        <time>2019-06-20T11:48:19Z</time>
      </trkpt>
      <trkpt lat="43.705023" lon="-7.807669">
        <ele>60.859</ele>
        <time>2019-06-20T11:48:20Z</time>
      </trkpt>
      <trkpt lat="43.704860" lon="-7.807709">
        <ele>61.903</ele>
        <time>2019-06-20T11:48:21Z</time>
      </trkpt>
      <trkpt lat="43.704715" lon="-7.807721">
        <ele>62.823</ele>
        <time>2019-06-20T11:48:22Z</time>
      </trkpt>
      <trkpt lat="43.704573" lon="-7.807720">
        <ele>62.408</ele>
        <time>2019-06-20T11:48:23Z</time>
      </trkpt>
      <trkpt lat="43.704439" lon="-7.807712">
        <ele>62.038</ele>
        <time>2019-06-20T11:48:24Z</time>
      </trkpt>
      <trkpt lat="43.704321" lon="-7.807690">
        <ele>61.982</ele>
        <time>2019-06-20T11:48:25Z</time>
      </trkpt>
      <trkpt lat="43.704243" lon="-7.807661">
        <ele>61.733</ele>
        <time>2019-06-20T11:48:26Z</time>
      </trkpt>
      <trkpt lat="43.704177" lon="-7.807638">
        <ele>61.539</ele>
        <time>2019-06-20T11:48:27Z</time>
      </trkpt>
      <trkpt lat="43.704110" lon="-7.807609">
        <ele>60.966</ele>
        <time>2019-06-20T11:48:29Z</time>
      </trkpt>
      <trkpt lat="43.704058" lon="-7.807580">
        <ele>60.667</ele>
        <time>2019-06-20T11:48:36Z</time>
      </trkpt>
      <trkpt lat="43.704008" lon="-7.807508">
        <ele>60.449</ele>
        <time>2019-06-20T11:49:24Z</time>
      </trkpt>
      <trkpt lat="43.703929" lon="-7.807483">
        <ele>60.276</ele>
        <time>2019-06-20T11:49:40Z</time>
      </trkpt>
      <trkpt lat="43.703859" lon="-7.807426">
        <ele>59.935</ele>
        <time>2019-06-20T11:49:41Z</time>
      </trkpt>
      <trkpt lat="43.703770" lon="-7.807362">
        <ele>59.286</ele>
        <time>2019-06-20T11:49:42Z</time>
      </trkpt>
      <trkpt lat="43.703672" lon="-7.807287">
        <ele>58.814</ele>
        <time>2019-06-20T11:49:43Z</time>
      </trkpt>
      <trkpt lat="43.703587" lon="-7.807262">
        <ele>58.708</ele>
        <time>2019-06-20T11:49:44Z</time>
      </trkpt>
      <trkpt lat="43.703460" lon="-7.807220">
        <ele>60.156</ele>
        <time>2019-06-20T11:49:45Z</time>
      </trkpt>
      <trkpt lat="43.703331" lon="-7.807182">
        <ele>62.060</ele>
        <time>2019-06-20T11:49:46Z</time>
      </trkpt>
      <trkpt lat="43.703194" lon="-7.807177">
        <ele>62.181</ele>
        <time>2019-06-20T11:49:47Z</time>
      </trkpt>
      <trkpt lat="43.703041" lon="-7.807181">
        <ele>61.717</ele>
        <time>2019-06-20T11:49:48Z</time>
      </trkpt>
      <trkpt lat="43.702886" lon="-7.807207">
        <ele>58.494</ele>
        <time>2019-06-20T11:49:49Z</time>
      </trkpt>
      <trkpt lat="43.702724" lon="-7.807241">
        <ele>55.565</ele>
        <time>2019-06-20T11:49:50Z</time>
      </trkpt>
      <trkpt lat="43.702570" lon="-7.807300">
        <ele>53.987</ele>
        <time>2019-06-20T11:49:51Z</time>
      </trkpt>
      <trkpt lat="43.702407" lon="-7.807378">
        <ele>53.214</ele>
        <time>2019-06-20T11:49:52Z</time>
      </trkpt>
      <trkpt lat="43.702254" lon="-7.807451">
        <ele>53.056</ele>
        <time>2019-06-20T11:49:53Z</time>
      </trkpt>
      <trkpt lat="43.702097" lon="-7.807532">
        <ele>52.359</ele>
        <time>2019-06-20T11:49:54Z</time>
      </trkpt>
      <trkpt lat="43.701939" lon="-7.807612">
        <ele>51.614</ele>
        <time>2019-06-20T11:49:55Z</time>
      </trkpt>
      <trkpt lat="43.701773" lon="-7.807701">
        <ele>50.208</ele>
        <time>2019-06-20T11:49:56Z</time>
      </trkpt>
      <trkpt lat="43.701628" lon="-7.807819">
        <ele>47.818</ele>
        <time>2019-06-20T11:49:57Z</time>
      </trkpt>
      <trkpt lat="43.701484" lon="-7.807934">
        <ele>46.712</ele>
        <time>2019-06-20T11:49:58Z</time>
      </trkpt>
      <trkpt lat="43.701342" lon="-7.808071">
        <ele>45.323</ele>
        <time>2019-06-20T11:49:59Z</time>
      </trkpt>
      <trkpt lat="43.701204" lon="-7.808221">
        <ele>46.419</ele>
        <time>2019-06-20T11:50:00Z</time>
      </trkpt>
      <trkpt lat="43.701061" lon="-7.808364">
        <ele>45.856</ele>
        <time>2019-06-20T11:50:01Z</time>
      </trkpt>
      <trkpt lat="43.700945" lon="-7.808516">
        <ele>43.957</ele>
        <time>2019-06-20T11:50:02Z</time>
      </trkpt>
      <trkpt lat="43.700814" lon="-7.808659">
        <ele>42.949</ele>
        <time>2019-06-20T11:50:03Z</time>
      </trkpt>
      <trkpt lat="43.700693" lon="-7.808797">
        <ele>42.826</ele>
        <time>2019-06-20T11:50:04Z</time>
      </trkpt>
      <trkpt lat="43.700586" lon="-7.808918">
        <ele>42.551</ele>
        <time>2019-06-20T11:50:05Z</time>
      </trkpt>
      <trkpt lat="43.700479" lon="-7.809028">
        <ele>42.501</ele>
        <time>2019-06-20T11:50:06Z</time>
      </trkpt>
      <trkpt lat="43.700368" lon="-7.809126">
        <ele>43.011</ele>
        <time>2019-06-20T11:50:07Z</time>
      </trkpt>
      <trkpt lat="43.700252" lon="-7.809198">
        <ele>43.508</ele>
        <time>2019-06-20T11:50:08Z</time>
      </trkpt>
      <trkpt lat="43.700139" lon="-7.809233">
        <ele>42.758</ele>
        <time>2019-06-20T11:50:09Z</time>
      </trkpt>
      <trkpt lat="43.700025" lon="-7.809231">
        <ele>42.482</ele>
        <time>2019-06-20T11:50:10Z</time>
      </trkpt>
      <trkpt lat="43.699907" lon="-7.809183">
        <ele>41.573</ele>
        <time>2019-06-20T11:50:11Z</time>
      </trkpt>
      <trkpt lat="43.699780" lon="-7.809107">
        <ele>40.459</ele>
        <time>2019-06-20T11:50:12Z</time>
      </trkpt>
      <trkpt lat="43.699647" lon="-7.809006">
        <ele>39.856</ele>
        <time>2019-06-20T11:50:13Z</time>
      </trkpt>
      <trkpt lat="43.699505" lon="-7.808905">
        <ele>38.717</ele>
        <time>2019-06-20T11:50:14Z</time>
      </trkpt>
      <trkpt lat="43.699353" lon="-7.808796">
        <ele>37.489</ele>
        <time>2019-06-20T11:50:15Z</time>
      </trkpt>
      <trkpt lat="43.699198" lon="-7.808682">
        <ele>35.936</ele>
        <time>2019-06-20T11:50:16Z</time>
      </trkpt>
      <trkpt lat="43.699039" lon="-7.808569">
        <ele>35.063</ele>
        <time>2019-06-20T11:50:17Z</time>
      </trkpt>
      <trkpt lat="43.698887" lon="-7.808457">
        <ele>34.644</ele>
        <time>2019-06-20T11:50:18Z</time>
      </trkpt>
      <trkpt lat="43.698745" lon="-7.808346">
        <ele>33.218</ele>
        <time>2019-06-20T11:50:19Z</time>
      </trkpt>
      <trkpt lat="43.698603" lon="-7.808251">
        <ele>32.108</ele>
        <time>2019-06-20T11:50:20Z</time>
      </trkpt>
      <trkpt lat="43.698485" lon="-7.808183">
        <ele>31.839</ele>
        <time>2019-06-20T11:50:21Z</time>
      </trkpt>
      <trkpt lat="43.698358" lon="-7.808059">
        <ele>31.393</ele>
        <time>2019-06-20T11:50:22Z</time>
      </trkpt>
      <trkpt lat="43.698246" lon="-7.807939">
        <ele>28.934</ele>
        <time>2019-06-20T11:50:23Z</time>
      </trkpt>
      <trkpt lat="43.698158" lon="-7.807813">
        <ele>26.590</ele>
        <time>2019-06-20T11:50:24Z</time>
      </trkpt>
      <trkpt lat="43.698070" lon="-7.807664">
        <ele>25.277</ele>
        <time>2019-06-20T11:50:25Z</time>
      </trkpt>
      <trkpt lat="43.698000" lon="-7.807515">
        <ele>25.258</ele>
        <time>2019-06-20T11:50:26Z</time>
      </trkpt>
      <trkpt lat="43.697920" lon="-7.807358">
        <ele>24.650</ele>
        <time>2019-06-20T11:50:27Z</time>
      </trkpt>
      <trkpt lat="43.697825" lon="-7.807106">
        <ele>24.947</ele>
        <time>2019-06-20T11:50:28Z</time>
      </trkpt>
      <trkpt lat="43.697755" lon="-7.806900">
        <ele>26.225</ele>
        <time>2019-06-20T11:50:29Z</time>
      </trkpt>
      <trkpt lat="43.697674" lon="-7.806706">
        <ele>26.826</ele>
        <time>2019-06-20T11:50:30Z</time>
      </trkpt>
      <trkpt lat="43.697626" lon="-7.806537">
        <ele>26.608</ele>
        <time>2019-06-20T11:50:31Z</time>
      </trkpt>
      <trkpt lat="43.697564" lon="-7.806357">
        <ele>25.108</ele>
        <time>2019-06-20T11:50:32Z</time>
      </trkpt>
      <trkpt lat="43.697513" lon="-7.806195">
        <ele>23.995</ele>
        <time>2019-06-20T11:50:33Z</time>
      </trkpt>
      <trkpt lat="43.697456" lon="-7.805997">
        <ele>24.369</ele>
        <time>2019-06-20T11:50:34Z</time>
      </trkpt>
      <trkpt lat="43.697421" lon="-7.805883">
        <ele>25.210</ele>
        <time>2019-06-20T11:50:35Z</time>
      </trkpt>
      <trkpt lat="43.697388" lon="-7.805787">
        <ele>26.336</ele>
        <time>2019-06-20T11:50:36Z</time>
      </trkpt>
      <trkpt lat="43.697291" lon="-7.805691">
        <ele>27.653</ele>
        <time>2019-06-20T11:50:38Z</time>
      </trkpt>
      <trkpt lat="43.697210" lon="-7.805736">
        <ele>25.894</ele>
        <time>2019-06-20T11:50:39Z</time>
      </trkpt>
      <trkpt lat="43.697107" lon="-7.805805">
        <ele>23.876</ele>
        <time>2019-06-20T11:50:40Z</time>
      </trkpt>
      <trkpt lat="43.696981" lon="-7.805882">
        <ele>21.613</ele>
        <time>2019-06-20T11:50:41Z</time>
      </trkpt>
      <trkpt lat="43.696849" lon="-7.805966">
        <ele>18.934</ele>
        <time>2019-06-20T11:50:42Z</time>
      </trkpt>
      <trkpt lat="43.696719" lon="-7.806042">
        <ele>15.855</ele>
        <time>2019-06-20T11:50:43Z</time>
      </trkpt>
      <trkpt lat="43.696591" lon="-7.806098">
        <ele>13.710</ele>
        <time>2019-06-20T11:50:44Z</time>
      </trkpt>
      <trkpt lat="43.696455" lon="-7.806134">
        <ele>13.008</ele>
        <time>2019-06-20T11:50:45Z</time>
      </trkpt>
      <trkpt lat="43.696320" lon="-7.806151">
        <ele>11.976</ele>
        <time>2019-06-20T11:50:46Z</time>
      </trkpt>
      <trkpt lat="43.696173" lon="-7.806104">
        <ele>11.170</ele>
        <time>2019-06-20T11:50:47Z</time>
      </trkpt>
      <trkpt lat="43.696026" lon="-7.806050">
        <ele>12.281</ele>
        <time>2019-06-20T11:50:48Z</time>
      </trkpt>
      <trkpt lat="43.695897" lon="-7.805988">
        <ele>14.677</ele>
        <time>2019-06-20T11:50:49Z</time>
      </trkpt>
      <trkpt lat="43.695757" lon="-7.805932">
        <ele>16.044</ele>
        <time>2019-06-20T11:50:50Z</time>
      </trkpt>
      <trkpt lat="43.695706" lon="-7.805895">
        <ele>16.495</ele>
        <time>2019-06-20T11:50:51Z</time>
      </trkpt>
      <trkpt lat="43.695580" lon="-7.805836">
        <ele>16.217</ele>
        <time>2019-06-20T11:50:52Z</time>
      </trkpt>
      <trkpt lat="43.695453" lon="-7.805789">
        <ele>15.574</ele>
        <time>2019-06-20T11:50:53Z</time>
      </trkpt>
      <trkpt lat="43.695345" lon="-7.805737">
        <ele>15.263</ele>
        <time>2019-06-20T11:50:54Z</time>
      </trkpt>
      <trkpt lat="43.695236" lon="-7.805691">
        <ele>15.144</ele>
        <time>2019-06-20T11:50:55Z</time>
      </trkpt>
      <trkpt lat="43.695186" lon="-7.805760">
        <ele>12.518</ele>
        <time>2019-06-20T11:50:56Z</time>
      </trkpt>
      <trkpt lat="43.695109" lon="-7.805771">
        <ele>11.408</ele>
        <time>2019-06-20T11:50:57Z</time>
      </trkpt>
      <trkpt lat="43.695061" lon="-7.805849">
        <ele>9.229</ele>
        <time>2019-06-20T11:50:58Z</time>
      </trkpt>
      <trkpt lat="43.695007" lon="-7.805958">
        <ele>6.963</ele>
        <time>2019-06-20T11:50:59Z</time>
      </trkpt>
      <trkpt lat="43.694954" lon="-7.806077">
        <ele>4.654</ele>
        <time>2019-06-20T11:51:00Z</time>
      </trkpt>
      <trkpt lat="43.694890" lon="-7.806217">
        <ele>3.890</ele>
        <time>2019-06-20T11:51:01Z</time>
      </trkpt>
      <trkpt lat="43.694824" lon="-7.806352">
        <ele>3.537</ele>
        <time>2019-06-20T11:51:02Z</time>
      </trkpt>
      <trkpt lat="43.694756" lon="-7.806523">
        <ele>3.298</ele>
        <time>2019-06-20T11:51:03Z</time>
      </trkpt>
      <trkpt lat="43.694685" lon="-7.806688">
        <ele>3.340</ele>
        <time>2019-06-20T11:51:04Z</time>
      </trkpt>
      <trkpt lat="43.694610" lon="-7.806848">
        <ele>4.587</ele>
        <time>2019-06-20T11:51:05Z</time>
      </trkpt>
      <trkpt lat="43.694539" lon="-7.807008">
        <ele>5.388</ele>
        <time>2019-06-20T11:51:06Z</time>
      </trkpt>
      <trkpt lat="43.694477" lon="-7.807169">
        <ele>5.824</ele>
        <time>2019-06-20T11:51:07Z</time>
      </trkpt>
      <trkpt lat="43.694418" lon="-7.807347">
        <ele>5.826</ele>
        <time>2019-06-20T11:51:08Z</time>
      </trkpt>
      <trkpt lat="43.694363" lon="-7.807538">
        <ele>6.108</ele>
        <time>2019-06-20T11:51:09Z</time>
      </trkpt>
      <trkpt lat="43.694313" lon="-7.807795">
        <ele>8.071</ele>
        <time>2019-06-20T11:51:10Z</time>
      </trkpt>
      <trkpt lat="43.694277" lon="-7.808057">
        <ele>9.295</ele>
        <time>2019-06-20T11:51:11Z</time>
      </trkpt>
      <trkpt lat="43.694237" lon="-7.808328">
        <ele>11.056</ele>
        <time>2019-06-20T11:51:12Z</time>
      </trkpt>
      <trkpt lat="43.694193" lon="-7.808602">
        <ele>13.792</ele>
        <time>2019-06-20T11:51:13Z</time>
      </trkpt>
      <trkpt lat="43.694145" lon="-7.808887">
        <ele>16.359</ele>
        <time>2019-06-20T11:51:14Z</time>
      </trkpt>
      <trkpt lat="43.694101" lon="-7.809161">
        <ele>16.240</ele>
        <time>2019-06-20T11:51:15Z</time>
      </trkpt>
      <trkpt lat="43.694063" lon="-7.809444">
        <ele>14.282</ele>
        <time>2019-06-20T11:51:16Z</time>
      </trkpt>
      <trkpt lat="43.694036" lon="-7.809694">
        <ele>11.769</ele>
        <time>2019-06-20T11:51:17Z</time>
      </trkpt>
      <trkpt lat="43.694018" lon="-7.809949">
        <ele>8.462</ele>
        <time>2019-06-20T11:51:18Z</time>
      </trkpt>
      <trkpt lat="43.693975" lon="-7.810181">
        <ele>6.783</ele>
        <time>2019-06-20T11:51:19Z</time>
      </trkpt>
      <trkpt lat="43.693950" lon="-7.810397">
        <ele>5.711</ele>
        <time>2019-06-20T11:51:20Z</time>
      </trkpt>
      <trkpt lat="43.693930" lon="-7.810623">
        <ele>5.408</ele>
        <time>2019-06-20T11:51:21Z</time>
      </trkpt>
      <trkpt lat="43.693959" lon="-7.810857">
        <ele>4.849</ele>
        <time>2019-06-20T11:51:22Z</time>
      </trkpt>
      <trkpt lat="43.693979" lon="-7.811094">
        <ele>4.713</ele>
        <time>2019-06-20T11:51:23Z</time>
      </trkpt>
      <trkpt lat="43.694005" lon="-7.811341">
        <ele>5.814</ele>
        <time>2019-06-20T11:51:24Z</time>
      </trkpt>
      <trkpt lat="43.694060" lon="-7.811592">
        <ele>7.040</ele>
        <time>2019-06-20T11:51:25Z</time>
      </trkpt>
      <trkpt lat="43.694117" lon="-7.811851">
        <ele>9.177</ele>
        <time>2019-06-20T11:51:26Z</time>
      </trkpt>
      <trkpt lat="43.694173" lon="-7.812112">
        <ele>10.698</ele>
        <time>2019-06-20T11:51:27Z</time>
      </trkpt>
      <trkpt lat="43.694237" lon="-7.812374">
        <ele>11.350</ele>
        <time>2019-06-20T11:51:28Z</time>
      </trkpt>
      <trkpt lat="43.694295" lon="-7.812643">
        <ele>12.197</ele>
        <time>2019-06-20T11:51:29Z</time>
      </trkpt>
      <trkpt lat="43.694373" lon="-7.812897">
        <ele>12.476</ele>
        <time>2019-06-20T11:51:30Z</time>
      </trkpt>
      <trkpt lat="43.694426" lon="-7.813146">
        <ele>12.590</ele>
        <time>2019-06-20T11:51:31Z</time>
      </trkpt>
      <trkpt lat="43.694462" lon="-7.813374">
        <ele>13.019</ele>
        <time>2019-06-20T11:51:32Z</time>
      </trkpt>
      <trkpt lat="43.694512" lon="-7.813594">
        <ele>13.908</ele>
        <time>2019-06-20T11:51:33Z</time>
      </trkpt>
      <trkpt lat="43.694555" lon="-7.813810">
        <ele>15.330</ele>
        <time>2019-06-20T11:51:34Z</time>
      </trkpt>
      <trkpt lat="43.694592" lon="-7.814020">
        <ele>17.234</ele>
        <time>2019-06-20T11:51:35Z</time>
      </trkpt>
      <trkpt lat="43.694625" lon="-7.814237">
        <ele>18.735</ele>
        <time>2019-06-20T11:51:36Z</time>
      </trkpt>
      <trkpt lat="43.694556" lon="-7.814492">
        <ele>19.381</ele>
        <time>2019-06-20T11:51:37Z</time>
      </trkpt>
      <trkpt lat="43.694481" lon="-7.814715">
        <ele>17.868</ele>
        <time>2019-06-20T11:51:38Z</time>
      </trkpt>
      <trkpt lat="43.694382" lon="-7.814940">
        <ele>16.139</ele>
        <time>2019-06-20T11:51:39Z</time>
      </trkpt>
      <trkpt lat="43.694297" lon="-7.815187">
        <ele>15.711</ele>
        <time>2019-06-20T11:51:40Z</time>
      </trkpt>
      <trkpt lat="43.694227" lon="-7.815447">
        <ele>16.148</ele>
        <time>2019-06-20T11:51:41Z</time>
      </trkpt>
      <trkpt lat="43.694142" lon="-7.815712">
        <ele>16.746</ele>
        <time>2019-06-20T11:51:42Z</time>
      </trkpt>
      <trkpt lat="43.694059" lon="-7.815975">
        <ele>16.888</ele>
        <time>2019-06-20T11:51:43Z</time>
      </trkpt>
      <trkpt lat="43.693967" lon="-7.816226">
        <ele>17.016</ele>
        <time>2019-06-20T11:51:44Z</time>
      </trkpt>
      <trkpt lat="43.693880" lon="-7.816487">
        <ele>16.408</ele>
        <time>2019-06-20T11:51:45Z</time>
      </trkpt>
      <trkpt lat="43.693789" lon="-7.816750">
        <ele>15.627</ele>
        <time>2019-06-20T11:51:46Z</time>
      </trkpt>
      <trkpt lat="43.693706" lon="-7.817002">
        <ele>15.061</ele>
        <time>2019-06-20T11:51:47Z</time>
      </trkpt>
      <trkpt lat="43.693616" lon="-7.817264">
        <ele>14.962</ele>
        <time>2019-06-20T11:51:48Z</time>
      </trkpt>
      <trkpt lat="43.693528" lon="-7.817529">
        <ele>15.658</ele>
        <time>2019-06-20T11:51:49Z</time>
      </trkpt>
      <trkpt lat="43.693430" lon="-7.817789">
        <ele>15.685</ele>
        <time>2019-06-20T11:51:50Z</time>
      </trkpt>
      <trkpt lat="43.693324" lon="-7.818044">
        <ele>15.166</ele>
        <time>2019-06-20T11:51:51Z</time>
      </trkpt>
      <trkpt lat="43.693209" lon="-7.818300">
        <ele>12.828</ele>
        <time>2019-06-20T11:51:52Z</time>
      </trkpt>
      <trkpt lat="43.693089" lon="-7.818552">
        <ele>11.375</ele>
        <time>2019-06-20T11:51:53Z</time>
      </trkpt>
      <trkpt lat="43.692966" lon="-7.818816">
        <ele>10.232</ele>
        <time>2019-06-20T11:51:54Z</time>
      </trkpt>
      <trkpt lat="43.692854" lon="-7.819082">
        <ele>9.692</ele>
        <time>2019-06-20T11:51:55Z</time>
      </trkpt>
      <trkpt lat="43.692738" lon="-7.819341">
        <ele>9.411</ele>
        <time>2019-06-20T11:51:56Z</time>
      </trkpt>
      <trkpt lat="43.692623" lon="-7.819590">
        <ele>9.008</ele>
        <time>2019-06-20T11:51:57Z</time>
      </trkpt>
      <trkpt lat="43.692508" lon="-7.819835">
        <ele>9.056</ele>
        <time>2019-06-20T11:51:58Z</time>
      </trkpt>
      <trkpt lat="43.692396" lon="-7.820072">
        <ele>10.020</ele>
        <time>2019-06-20T11:51:59Z</time>
      </trkpt>
      <trkpt lat="43.692291" lon="-7.820292">
        <ele>10.951</ele>
        <time>2019-06-20T11:52:00Z</time>
      </trkpt>
      <trkpt lat="43.692190" lon="-7.820525">
        <ele>10.717</ele>
        <time>2019-06-20T11:52:01Z</time>
      </trkpt>
      <trkpt lat="43.692082" lon="-7.820745">
        <ele>11.374</ele>
        <time>2019-06-20T11:52:02Z</time>
      </trkpt>
      <trkpt lat="43.691972" lon="-7.820966">
        <ele>10.845</ele>
        <time>2019-06-20T11:52:03Z</time>
      </trkpt>
      <trkpt lat="43.691848" lon="-7.821186">
        <ele>10.747</ele>
        <time>2019-06-20T11:52:04Z</time>
      </trkpt>
      <trkpt lat="43.691718" lon="-7.821392">
        <ele>10.664</ele>
        <time>2019-06-20T11:52:05Z</time>
      </trkpt>
      <trkpt lat="43.691579" lon="-7.821593">
        <ele>10.277</ele>
        <time>2019-06-20T11:52:06Z</time>
      </trkpt>
      <trkpt lat="43.691432" lon="-7.821783">
        <ele>9.861</ele>
        <time>2019-06-20T11:52:07Z</time>
      </trkpt>
      <trkpt lat="43.691274" lon="-7.821965">
        <ele>10.027</ele>
        <time>2019-06-20T11:52:08Z</time>
      </trkpt>
      <trkpt lat="43.691112" lon="-7.822126">
        <ele>10.708</ele>
        <time>2019-06-20T11:52:09Z</time>
      </trkpt>
      <trkpt lat="43.690941" lon="-7.822289">
        <ele>10.790</ele>
        <time>2019-06-20T11:52:10Z</time>
      </trkpt>
      <trkpt lat="43.690766" lon="-7.822433">
        <ele>10.494</ele>
        <time>2019-06-20T11:52:11Z</time>
      </trkpt>
      <trkpt lat="43.690586" lon="-7.822565">
        <ele>8.295</ele>
        <time>2019-06-20T11:52:12Z</time>
      </trkpt>
      <trkpt lat="43.690411" lon="-7.822696">
        <ele>6.951</ele>
        <time>2019-06-20T11:52:13Z</time>
      </trkpt>
      <trkpt lat="43.690232" lon="-7.822819">
        <ele>6.868</ele>
        <time>2019-06-20T11:52:14Z</time>
      </trkpt>
      <trkpt lat="43.690044" lon="-7.822910">
        <ele>7.239</ele>
        <time>2019-06-20T11:52:15Z</time>
      </trkpt>
      <trkpt lat="43.689863" lon="-7.823015">
        <ele>8.311</ele>
        <time>2019-06-20T11:52:16Z</time>
      </trkpt>
      <trkpt lat="43.689680" lon="-7.823109">
        <ele>9.738</ele>
        <time>2019-06-20T11:52:17Z</time>
      </trkpt>
      <trkpt lat="43.689494" lon="-7.823194">
        <ele>10.165</ele>
        <time>2019-06-20T11:52:18Z</time>
      </trkpt>
      <trkpt lat="43.689316" lon="-7.823274">
        <ele>9.568</ele>
        <time>2019-06-20T11:52:19Z</time>
      </trkpt>
      <trkpt lat="43.689158" lon="-7.823337">
        <ele>8.914</ele>
        <time>2019-06-20T11:52:20Z</time>
      </trkpt>
      <trkpt lat="43.688994" lon="-7.823419">
        <ele>7.008</ele>
        <time>2019-06-20T11:52:21Z</time>
      </trkpt>
      <trkpt lat="43.688826" lon="-7.823502">
        <ele>5.719</ele>
        <time>2019-06-20T11:52:22Z</time>
      </trkpt>
      <trkpt lat="43.688693" lon="-7.823590">
        <ele>5.183</ele>
        <time>2019-06-20T11:52:23Z</time>
      </trkpt>
      <trkpt lat="43.688541" lon="-7.823678">
        <ele>4.934</ele>
        <time>2019-06-20T11:52:24Z</time>
      </trkpt>
      <trkpt lat="43.688401" lon="-7.823776">
        <ele>5.510</ele>
        <time>2019-06-20T11:52:25Z</time>
      </trkpt>
      <trkpt lat="43.688341" lon="-7.823935">
        <ele>5.997</ele>
        <time>2019-06-20T11:52:26Z</time>
      </trkpt>
      <trkpt lat="43.688243" lon="-7.824089">
        <ele>6.338</ele>
        <time>2019-06-20T11:52:27Z</time>
      </trkpt>
      <trkpt lat="43.688159" lon="-7.824230">
        <ele>6.410</ele>
        <time>2019-06-20T11:52:28Z</time>
      </trkpt>
      <trkpt lat="43.688069" lon="-7.824382">
        <ele>6.247</ele>
        <time>2019-06-20T11:52:29Z</time>
      </trkpt>
      <trkpt lat="43.688071" lon="-7.824639">
        <ele>5.298</ele>
        <time>2019-06-20T11:52:30Z</time>
      </trkpt>
      <trkpt lat="43.688010" lon="-7.824846">
        <ele>4.715</ele>
        <time>2019-06-20T11:52:31Z</time>
      </trkpt>
      <trkpt lat="43.687962" lon="-7.825055">
        <ele>4.426</ele>
        <time>2019-06-20T11:52:32Z</time>
      </trkpt>
      <trkpt lat="43.687910" lon="-7.825272">
        <ele>5.008</ele>
        <time>2019-06-20T11:52:33Z</time>
      </trkpt>
      <trkpt lat="43.687864" lon="-7.825492">
        <ele>5.642</ele>
        <time>2019-06-20T11:52:34Z</time>
      </trkpt>
      <trkpt lat="43.687854" lon="-7.825679">
        <ele>5.416</ele>
        <time>2019-06-20T11:52:35Z</time>
      </trkpt>
      <trkpt lat="43.687833" lon="-7.825840">
        <ele>5.027</ele>
        <time>2019-06-20T11:52:36Z</time>
      </trkpt>
      <trkpt lat="43.687812" lon="-7.825995">
        <ele>5.543</ele>
        <time>2019-06-20T11:52:37Z</time>
      </trkpt>
      <trkpt lat="43.687799" lon="-7.826125">
        <ele>5.970</ele>
        <time>2019-06-20T11:52:38Z</time>
      </trkpt>
      <trkpt lat="43.687781" lon="-7.826271">
        <ele>6.011</ele>
        <time>2019-06-20T11:52:39Z</time>
      </trkpt>
      <trkpt lat="43.687728" lon="-7.826386">
        <ele>6.453</ele>
        <time>2019-06-20T11:52:40Z</time>
      </trkpt>
      <trkpt lat="43.687653" lon="-7.826519">
        <ele>7.440</ele>
        <time>2019-06-20T11:52:41Z</time>
      </trkpt>
      <trkpt lat="43.687603" lon="-7.826659">
        <ele>8.272</ele>
        <time>2019-06-20T11:52:42Z</time>
      </trkpt>
      <trkpt lat="43.687554" lon="-7.826847">
        <ele>9.313</ele>
        <time>2019-06-20T11:52:43Z</time>
      </trkpt>
      <trkpt lat="43.687505" lon="-7.827031">
        <ele>10.014</ele>
        <time>2019-06-20T11:52:44Z</time>
      </trkpt>
      <trkpt lat="43.687457" lon="-7.827241">
        <ele>10.308</ele>
        <time>2019-06-20T11:52:45Z</time>
      </trkpt>
      <trkpt lat="43.687412" lon="-7.827439">
        <ele>10.650</ele>
        <time>2019-06-20T11:52:46Z</time>
      </trkpt>
      <trkpt lat="43.687360" lon="-7.827646">
        <ele>10.794</ele>
        <time>2019-06-20T11:52:47Z</time>
      </trkpt>
      <trkpt lat="43.687299" lon="-7.827891">
        <ele>10.125</ele>
        <time>2019-06-20T11:52:48Z</time>
      </trkpt>
      <trkpt lat="43.687234" lon="-7.828126">
        <ele>8.411</ele>
        <time>2019-06-20T11:52:49Z</time>
      </trkpt>
      <trkpt lat="43.687177" lon="-7.828360">
        <ele>6.998</ele>
        <time>2019-06-20T11:52:50Z</time>
      </trkpt>
      <trkpt lat="43.687112" lon="-7.828597">
        <ele>4.559</ele>
        <time>2019-06-20T11:52:51Z</time>
      </trkpt>
      <trkpt lat="43.687054" lon="-7.828808">
        <ele>3.511</ele>
        <time>2019-06-20T11:52:52Z</time>
      </trkpt>
      <trkpt lat="43.687001" lon="-7.829065">
        <ele>3.018</ele>
        <time>2019-06-20T11:52:53Z</time>
      </trkpt>
      <trkpt lat="43.686965" lon="-7.829294">
        <ele>3.924</ele>
        <time>2019-06-20T11:52:54Z</time>
      </trkpt>
      <trkpt lat="43.686956" lon="-7.829545">
        <ele>5.004</ele>
        <time>2019-06-20T11:52:55Z</time>
      </trkpt>
      <trkpt lat="43.686962" lon="-7.829805">
        <ele>5.414</ele>
        <time>2019-06-20T11:52:56Z</time>
      </trkpt>
      <trkpt lat="43.686978" lon="-7.830074">
        <ele>5.808</ele>
        <time>2019-06-20T11:52:57Z</time>
      </trkpt>
      <trkpt lat="43.687011" lon="-7.830351">
        <ele>5.285</ele>
        <time>2019-06-20T11:52:58Z</time>
      </trkpt>
      <trkpt lat="43.687038" lon="-7.830646">
        <ele>5.219</ele>
        <time>2019-06-20T11:52:59Z</time>
      </trkpt>
      <trkpt lat="43.687060" lon="-7.830947">
        <ele>5.770</ele>
        <time>2019-06-20T11:53:00Z</time>
      </trkpt>
      <trkpt lat="43.687088" lon="-7.831224">
        <ele>5.536</ele>
        <time>2019-06-20T11:53:01Z</time>
      </trkpt>
      <trkpt lat="43.687124" lon="-7.831510">
        <ele>5.113</ele>
        <time>2019-06-20T11:53:02Z</time>
      </trkpt>
      <trkpt lat="43.687148" lon="-7.831769">
        <ele>5.214</ele>
        <time>2019-06-20T11:53:03Z</time>
      </trkpt>
      <trkpt lat="43.687166" lon="-7.832011">
        <ele>6.076</ele>
        <time>2019-06-20T11:53:04Z</time>
      </trkpt>
      <trkpt lat="43.687193" lon="-7.832263">
        <ele>7.363</ele>
        <time>2019-06-20T11:53:05Z</time>
      </trkpt>
      <trkpt lat="43.687218" lon="-7.832516">
        <ele>8.067</ele>
        <time>2019-06-20T11:53:06Z</time>
      </trkpt>
      <trkpt lat="43.687241" lon="-7.832775">
        <ele>7.981</ele>
        <time>2019-06-20T11:53:07Z</time>
      </trkpt>
      <trkpt lat="43.687261" lon="-7.833040">
        <ele>6.919</ele>
        <time>2019-06-20T11:53:08Z</time>
      </trkpt>
      <trkpt lat="43.687280" lon="-7.833309">
        <ele>5.208</ele>
        <time>2019-06-20T11:53:09Z</time>
      </trkpt>
      <trkpt lat="43.687302" lon="-7.833584">
        <ele>5.619</ele>
        <time>2019-06-20T11:53:10Z</time>
      </trkpt>
      <trkpt lat="43.687319" lon="-7.833869">
        <ele>6.653</ele>
        <time>2019-06-20T11:53:11Z</time>
      </trkpt>
      <trkpt lat="43.687353" lon="-7.834134">
        <ele>7.064</ele>
        <time>2019-06-20T11:53:12Z</time>
      </trkpt>
      <trkpt lat="43.687376" lon="-7.834413">
        <ele>6.980</ele>
        <time>2019-06-20T11:53:13Z</time>
      </trkpt>
      <trkpt lat="43.687406" lon="-7.834712">
        <ele>6.437</ele>
        <time>2019-06-20T11:53:14Z</time>
      </trkpt>
      <trkpt lat="43.687436" lon="-7.835013">
        <ele>6.038</ele>
        <time>2019-06-20T11:53:15Z</time>
      </trkpt>
      <trkpt lat="43.687459" lon="-7.835310">
        <ele>5.090</ele>
        <time>2019-06-20T11:53:16Z</time>
      </trkpt>
      <trkpt lat="43.687491" lon="-7.835594">
        <ele>4.887</ele>
        <time>2019-06-20T11:53:17Z</time>
      </trkpt>
      <trkpt lat="43.687515" lon="-7.835892">
        <ele>4.088</ele>
        <time>2019-06-20T11:53:18Z</time>
      </trkpt>
      <trkpt lat="43.687539" lon="-7.836194">
        <ele>4.024</ele>
        <time>2019-06-20T11:53:19Z</time>
      </trkpt>
      <trkpt lat="43.687563" lon="-7.836499">
        <ele>3.926</ele>
        <time>2019-06-20T11:53:20Z</time>
      </trkpt>
      <trkpt lat="43.687595" lon="-7.836800">
        <ele>3.708</ele>
        <time>2019-06-20T11:53:21Z</time>
      </trkpt>
      <trkpt lat="43.687627" lon="-7.837102">
        <ele>3.061</ele>
        <time>2019-06-20T11:53:22Z</time>
      </trkpt>
      <trkpt lat="43.687656" lon="-7.837407">
        <ele>2.855</ele>
        <time>2019-06-20T11:53:23Z</time>
      </trkpt>
      <trkpt lat="43.687685" lon="-7.837719">
        <ele>3.526</ele>
        <time>2019-06-20T11:53:24Z</time>
      </trkpt>
      <trkpt lat="43.687715" lon="-7.838026">
        <ele>5.032</ele>
        <time>2019-06-20T11:53:25Z</time>
      </trkpt>
      <trkpt lat="43.687737" lon="-7.838315">
        <ele>5.189</ele>
        <time>2019-06-20T11:53:26Z</time>
      </trkpt>
      <trkpt lat="43.687758" lon="-7.838616">
        <ele>5.280</ele>
        <time>2019-06-20T11:53:27Z</time>
      </trkpt>
      <trkpt lat="43.687781" lon="-7.838907">
        <ele>6.122</ele>
        <time>2019-06-20T11:53:28Z</time>
      </trkpt>
      <trkpt lat="43.687803" lon="-7.839193">
        <ele>8.119</ele>
        <time>2019-06-20T11:53:29Z</time>
      </trkpt>
      <trkpt lat="43.687828" lon="-7.839470">
        <ele>9.937</ele>
        <time>2019-06-20T11:53:30Z</time>
      </trkpt>
      <trkpt lat="43.687850" lon="-7.839760">
        <ele>10.849</ele>
        <time>2019-06-20T11:53:31Z</time>
      </trkpt>
      <trkpt lat="43.687877" lon="-7.840021">
        <ele>11.113</ele>
        <time>2019-06-20T11:53:32Z</time>
      </trkpt>
      <trkpt lat="43.687897" lon="-7.840264">
        <ele>12.408</ele>
        <time>2019-06-20T11:53:33Z</time>
      </trkpt>
      <trkpt lat="43.687919" lon="-7.840491">
        <ele>14.016</ele>
        <time>2019-06-20T11:53:34Z</time>
      </trkpt>
      <trkpt lat="43.687939" lon="-7.840717">
        <ele>15.630</ele>
        <time>2019-06-20T11:53:35Z</time>
      </trkpt>
      <trkpt lat="43.687959" lon="-7.840946">
        <ele>16.341</ele>
        <time>2019-06-20T11:53:36Z</time>
      </trkpt>
      <trkpt lat="43.687972" lon="-7.841187">
        <ele>16.387</ele>
        <time>2019-06-20T11:53:37Z</time>
      </trkpt>
      <trkpt lat="43.687985" lon="-7.841421">
        <ele>16.334</ele>
        <time>2019-06-20T11:53:38Z</time>
      </trkpt>
      <trkpt lat="43.688009" lon="-7.841650">
        <ele>16.985</ele>
        <time>2019-06-20T11:53:39Z</time>
      </trkpt>
      <trkpt lat="43.688036" lon="-7.841897">
        <ele>18.767</ele>
        <time>2019-06-20T11:53:40Z</time>
      </trkpt>
      <trkpt lat="43.688054" lon="-7.842151">
        <ele>21.274</ele>
        <time>2019-06-20T11:53:41Z</time>
      </trkpt>
      <trkpt lat="43.688069" lon="-7.842396">
        <ele>23.329</ele>
        <time>2019-06-20T11:53:42Z</time>
      </trkpt>
      <trkpt lat="43.688094" lon="-7.842635">
        <ele>24.600</ele>
        <time>2019-06-20T11:53:43Z</time>
      </trkpt>
      <trkpt lat="43.688123" lon="-7.842869">
        <ele>25.620</ele>
        <time>2019-06-20T11:53:44Z</time>
      </trkpt>
      <trkpt lat="43.688148" lon="-7.843082">
        <ele>26.308</ele>
        <time>2019-06-20T11:53:45Z</time>
      </trkpt>
      <trkpt lat="43.688170" lon="-7.843290">
        <ele>26.415</ele>
        <time>2019-06-20T11:53:46Z</time>
      </trkpt>
      <trkpt lat="43.688178" lon="-7.843475">
        <ele>26.789</ele>
        <time>2019-06-20T11:53:47Z</time>
      </trkpt>
      <trkpt lat="43.688177" lon="-7.843652">
        <ele>27.110</ele>
        <time>2019-06-20T11:53:48Z</time>
      </trkpt>
      <trkpt lat="43.688160" lon="-7.843809">
        <ele>27.426</ele>
        <time>2019-06-20T11:53:49Z</time>
      </trkpt>
      <trkpt lat="43.688123" lon="-7.843975">
        <ele>27.913</ele>
        <time>2019-06-20T11:53:50Z</time>
      </trkpt>
      <trkpt lat="43.688073" lon="-7.844124">
        <ele>28.744</ele>
        <time>2019-06-20T11:53:51Z</time>
      </trkpt>
      <trkpt lat="43.688023" lon="-7.844280">
        <ele>29.226</ele>
        <time>2019-06-20T11:53:52Z</time>
      </trkpt>
      <trkpt lat="43.687973" lon="-7.844442">
        <ele>29.693</ele>
        <time>2019-06-20T11:53:53Z</time>
      </trkpt>
      <trkpt lat="43.687921" lon="-7.844597">
        <ele>30.535</ele>
        <time>2019-06-20T11:53:54Z</time>
      </trkpt>
      <trkpt lat="43.687871" lon="-7.844747">
        <ele>31.786</ele>
        <time>2019-06-20T11:53:55Z</time>
      </trkpt>
      <trkpt lat="43.687826" lon="-7.844877">
        <ele>32.314</ele>
        <time>2019-06-20T11:53:56Z</time>
      </trkpt>
      <trkpt lat="43.687786" lon="-7.845009">
        <ele>32.808</ele>
        <time>2019-06-20T11:53:57Z</time>
      </trkpt>
      <trkpt lat="43.687742" lon="-7.845133">
        <ele>31.856</ele>
        <time>2019-06-20T11:53:58Z</time>
      </trkpt>
      <trkpt lat="43.687693" lon="-7.845258">
        <ele>30.870</ele>
        <time>2019-06-20T11:53:59Z</time>
      </trkpt>
      <trkpt lat="43.687651" lon="-7.845373">
        <ele>30.651</ele>
        <time>2019-06-20T11:54:00Z</time>
      </trkpt>
      <trkpt lat="43.687617" lon="-7.845500">
        <ele>30.477</ele>
        <time>2019-06-20T11:54:01Z</time>
      </trkpt>
      <trkpt lat="43.687574" lon="-7.845641">
        <ele>30.234</ele>
        <time>2019-06-20T11:54:02Z</time>
      </trkpt>
      <trkpt lat="43.687522" lon="-7.845784">
        <ele>30.095</ele>
        <time>2019-06-20T11:54:03Z</time>
      </trkpt>
      <trkpt lat="43.687469" lon="-7.845927">
        <ele>30.047</ele>
        <time>2019-06-20T11:54:04Z</time>
      </trkpt>
      <trkpt lat="43.687421" lon="-7.846066">
        <ele>29.824</ele>
        <time>2019-06-20T11:54:05Z</time>
      </trkpt>
      <trkpt lat="43.687379" lon="-7.846194">
        <ele>29.563</ele>
        <time>2019-06-20T11:54:06Z</time>
      </trkpt>
      <trkpt lat="43.687328" lon="-7.846317">
        <ele>29.644</ele>
        <time>2019-06-20T11:54:07Z</time>
      </trkpt>
      <trkpt lat="43.687292" lon="-7.846435">
        <ele>29.918</ele>
        <time>2019-06-20T11:54:08Z</time>
      </trkpt>
      <trkpt lat="43.687256" lon="-7.846528">
        <ele>30.308</ele>
        <time>2019-06-20T11:54:09Z</time>
      </trkpt>
      <trkpt lat="43.687223" lon="-7.846608">
        <ele>30.859</ele>
        <time>2019-06-20T11:54:10Z</time>
      </trkpt>
      <trkpt lat="43.687202" lon="-7.846700">
        <ele>30.983</ele>
        <time>2019-06-20T11:54:11Z</time>
      </trkpt>
      <trkpt lat="43.687164" lon="-7.846739">
        <ele>30.834</ele>
        <time>2019-06-20T11:54:13Z</time>
      </trkpt>
      <trkpt lat="43.687125" lon="-7.846784">
        <ele>30.810</ele>
        <time>2019-06-20T11:54:21Z</time>
      </trkpt>
      <trkpt lat="43.687119" lon="-7.846846">
        <ele>30.617</ele>
        <time>2019-06-20T11:55:01Z</time>
      </trkpt>
      <trkpt lat="43.687070" lon="-7.846929">
        <ele>30.718</ele>
        <time>2019-06-20T11:55:02Z</time>
      </trkpt>
      <trkpt lat="43.687019" lon="-7.847010">
        <ele>30.610</ele>
        <time>2019-06-20T11:55:03Z</time>
      </trkpt>
      <trkpt lat="43.686964" lon="-7.847100">
        <ele>30.247</ele>
        <time>2019-06-20T11:55:04Z</time>
      </trkpt>
      <trkpt lat="43.686906" lon="-7.847218">
        <ele>29.589</ele>
        <time>2019-06-20T11:55:05Z</time>
      </trkpt>
      <trkpt lat="43.686842" lon="-7.847342">
        <ele>28.806</ele>
        <time>2019-06-20T11:55:06Z</time>
      </trkpt>
      <trkpt lat="43.686780" lon="-7.847458">
        <ele>28.226</ele>
        <time>2019-06-20T11:55:07Z</time>
      </trkpt>
      <trkpt lat="43.686714" lon="-7.847564">
        <ele>28.108</ele>
        <time>2019-06-20T11:55:08Z</time>
      </trkpt>
      <trkpt lat="43.686652" lon="-7.847684">
        <ele>27.961</ele>
        <time>2019-06-20T11:55:09Z</time>
      </trkpt>
      <trkpt lat="43.686590" lon="-7.847794">
        <ele>28.015</ele>
        <time>2019-06-20T11:55:10Z</time>
      </trkpt>
      <trkpt lat="43.686526" lon="-7.847911">
        <ele>28.186</ele>
        <time>2019-06-20T11:55:11Z</time>
      </trkpt>
      <trkpt lat="43.686478" lon="-7.848015">
        <ele>27.732</ele>
        <time>2019-06-20T11:55:12Z</time>
      </trkpt>
      <trkpt lat="43.686430" lon="-7.848098">
        <ele>27.669</ele>
        <time>2019-06-20T11:55:13Z</time>
      </trkpt>
      <trkpt lat="43.686386" lon="-7.848182">
        <ele>27.620</ele>
        <time>2019-06-20T11:55:14Z</time>
      </trkpt>
      <trkpt lat="43.686340" lon="-7.848271">
        <ele>27.492</ele>
        <time>2019-06-20T11:55:15Z</time>
      </trkpt>
      <trkpt lat="43.686289" lon="-7.848352">
        <ele>27.279</ele>
        <time>2019-06-20T11:55:16Z</time>
      </trkpt>
      <trkpt lat="43.686240" lon="-7.848414">
        <ele>27.044</ele>
        <time>2019-06-20T11:55:17Z</time>
      </trkpt>
      <trkpt lat="43.686198" lon="-7.848490">
        <ele>26.605</ele>
        <time>2019-06-20T11:55:18Z</time>
      </trkpt>
      <trkpt lat="43.686153" lon="-7.848567">
        <ele>26.215</ele>
        <time>2019-06-20T11:55:19Z</time>
      </trkpt>
      <trkpt lat="43.686114" lon="-7.848642">
        <ele>25.708</ele>
        <time>2019-06-20T11:55:20Z</time>
      </trkpt>
      <trkpt lat="43.686075" lon="-7.848725">
        <ele>24.867</ele>
        <time>2019-06-20T11:55:21Z</time>
      </trkpt>
      <trkpt lat="43.686044" lon="-7.848799">
        <ele>24.031</ele>
        <time>2019-06-20T11:55:22Z</time>
      </trkpt>
      <trkpt lat="43.686001" lon="-7.848881">
        <ele>23.152</ele>
        <time>2019-06-20T11:55:23Z</time>
      </trkpt>
      <trkpt lat="43.685958" lon="-7.848970">
        <ele>22.788</ele>
        <time>2019-06-20T11:55:24Z</time>
      </trkpt>
      <trkpt lat="43.685907" lon="-7.849052">
        <ele>22.425</ele>
        <time>2019-06-20T11:55:25Z</time>
      </trkpt>
      <trkpt lat="43.685855" lon="-7.849129">
        <ele>22.176</ele>
        <time>2019-06-20T11:55:26Z</time>
      </trkpt>
      <trkpt lat="43.685810" lon="-7.849224">
        <ele>22.158</ele>
        <time>2019-06-20T11:55:27Z</time>
      </trkpt>
      <trkpt lat="43.685760" lon="-7.849312">
        <ele>22.375</ele>
        <time>2019-06-20T11:55:28Z</time>
      </trkpt>
      <trkpt lat="43.685701" lon="-7.849394">
        <ele>22.536</ele>
        <time>2019-06-20T11:55:29Z</time>
      </trkpt>
      <trkpt lat="43.685666" lon="-7.849480">
        <ele>22.517</ele>
        <time>2019-06-20T11:55:30Z</time>
      </trkpt>
      <trkpt lat="43.685624" lon="-7.849564">
        <ele>22.418</ele>
        <time>2019-06-20T11:55:31Z</time>
      </trkpt>
      <trkpt lat="43.685586" lon="-7.849662">
        <ele>22.208</ele>
        <time>2019-06-20T11:55:32Z</time>
      </trkpt>
      <trkpt lat="43.685540" lon="-7.849757">
        <ele>21.986</ele>
        <time>2019-06-20T11:55:33Z</time>
      </trkpt>
      <trkpt lat="43.685512" lon="-7.849854">
        <ele>21.760</ele>
        <time>2019-06-20T11:55:34Z</time>
      </trkpt>
      <trkpt lat="43.685466" lon="-7.849942">
        <ele>21.551</ele>
        <time>2019-06-20T11:55:35Z</time>
      </trkpt>
      <trkpt lat="43.685428" lon="-7.850027">
        <ele>21.497</ele>
        <time>2019-06-20T11:55:36Z</time>
      </trkpt>
      <trkpt lat="43.685394" lon="-7.850078">
        <ele>21.434</ele>
        <time>2019-06-20T11:55:37Z</time>
      </trkpt>
      <trkpt lat="43.685363" lon="-7.850159">
        <ele>21.325</ele>
        <time>2019-06-20T11:55:38Z</time>
      </trkpt>
      <trkpt lat="43.685320" lon="-7.850235">
        <ele>21.127</ele>
        <time>2019-06-20T11:55:39Z</time>
      </trkpt>
      <trkpt lat="43.685286" lon="-7.850318">
        <ele>21.054</ele>
        <time>2019-06-20T11:55:40Z</time>
      </trkpt>
      <trkpt lat="43.685257" lon="-7.850396">
        <ele>21.178</ele>
        <time>2019-06-20T11:55:41Z</time>
      </trkpt>
      <trkpt lat="43.685223" lon="-7.850475">
        <ele>21.333</ele>
        <time>2019-06-20T11:55:42Z</time>
      </trkpt>
      <trkpt lat="43.685196" lon="-7.850549">
        <ele>21.326</ele>
        <time>2019-06-20T11:55:43Z</time>
      </trkpt>
      <trkpt lat="43.685171" lon="-7.850619">
        <ele>21.208</ele>
        <time>2019-06-20T11:55:44Z</time>
      </trkpt>
      <trkpt lat="43.685107" lon="-7.850699">
        <ele>21.450</ele>
        <time>2019-06-20T11:55:45Z</time>
      </trkpt>
      <trkpt lat="43.685046" lon="-7.850762">
        <ele>21.744</ele>
        <time>2019-06-20T11:55:46Z</time>
      </trkpt>
      <trkpt lat="43.685001" lon="-7.850798">
        <ele>22.095</ele>
        <time>2019-06-20T11:55:47Z</time>
      </trkpt>
      <trkpt lat="43.684952" lon="-7.850829">
        <ele>22.391</ele>
        <time>2019-06-20T11:55:48Z</time>
      </trkpt>
      <trkpt lat="43.684913" lon="-7.850866">
        <ele>22.738</ele>
        <time>2019-06-20T11:55:49Z</time>
      </trkpt>
      <trkpt lat="43.684875" lon="-7.850909">
        <ele>23.129</ele>
        <time>2019-06-20T11:55:50Z</time>
      </trkpt>
      <trkpt lat="43.684795" lon="-7.850940">
        <ele>23.631</ele>
        <time>2019-06-20T11:55:51Z</time>
      </trkpt>
      <trkpt lat="43.684727" lon="-7.850993">
        <ele>24.068</ele>
        <time>2019-06-20T11:55:52Z</time>
      </trkpt>
      <trkpt lat="43.684670" lon="-7.851024">
        <ele>24.139</ele>
        <time>2019-06-20T11:55:53Z</time>
      </trkpt>
      <trkpt lat="43.684631" lon="-7.851056">
        <ele>24.301</ele>
        <time>2019-06-20T11:55:54Z</time>
      </trkpt>
      <trkpt lat="43.684557" lon="-7.851118">
        <ele>24.621</ele>
        <time>2019-06-20T11:55:56Z</time>
      </trkpt>
      <trkpt lat="43.684522" lon="-7.851160">
        <ele>24.708</ele>
        <time>2019-06-20T11:55:57Z</time>
      </trkpt>
      <trkpt lat="43.684464" lon="-7.851192">
        <ele>24.936</ele>
        <time>2019-06-20T11:55:58Z</time>
      </trkpt>
      <trkpt lat="43.684399" lon="-7.851232">
        <ele>25.040</ele>
        <time>2019-06-20T11:55:59Z</time>
      </trkpt>
      <trkpt lat="43.684334" lon="-7.851267">
        <ele>25.041</ele>
        <time>2019-06-20T11:56:00Z</time>
      </trkpt>
      <trkpt lat="43.684280" lon="-7.851308">
        <ele>25.077</ele>
        <time>2019-06-20T11:56:01Z</time>
      </trkpt>
      <trkpt lat="43.684225" lon="-7.851357">
        <ele>25.054</ele>
        <time>2019-06-20T11:56:02Z</time>
      </trkpt>
      <trkpt lat="43.684161" lon="-7.851398">
        <ele>25.075</ele>
        <time>2019-06-20T11:56:03Z</time>
      </trkpt>
      <trkpt lat="43.684098" lon="-7.851437">
        <ele>24.557</ele>
        <time>2019-06-20T11:56:04Z</time>
      </trkpt>
      <trkpt lat="43.684032" lon="-7.851480">
        <ele>24.014</ele>
        <time>2019-06-20T11:56:05Z</time>
      </trkpt>
      <trkpt lat="43.683969" lon="-7.851537">
        <ele>23.651</ele>
        <time>2019-06-20T11:56:06Z</time>
      </trkpt>
      <trkpt lat="43.683903" lon="-7.851592">
        <ele>23.101</ele>
        <time>2019-06-20T11:56:07Z</time>
      </trkpt>
      <trkpt lat="43.683842" lon="-7.851641">
        <ele>22.511</ele>
        <time>2019-06-20T11:56:08Z</time>
      </trkpt>
      <trkpt lat="43.683764" lon="-7.851649">
        <ele>21.708</ele>
        <time>2019-06-20T11:56:09Z</time>
      </trkpt>
      <trkpt lat="43.683668" lon="-7.851662">
        <ele>20.678</ele>
        <time>2019-06-20T11:56:10Z</time>
      </trkpt>
      <trkpt lat="43.683594" lon="-7.851703">
        <ele>20.122</ele>
        <time>2019-06-20T11:56:11Z</time>
      </trkpt>
      <trkpt lat="43.683536" lon="-7.851745">
        <ele>20.583</ele>
        <time>2019-06-20T11:56:12Z</time>
      </trkpt>
      <trkpt lat="43.683467" lon="-7.851784">
        <ele>20.829</ele>
        <time>2019-06-20T11:56:13Z</time>
      </trkpt>
      <trkpt lat="43.683405" lon="-7.851829">
        <ele>21.136</ele>
        <time>2019-06-20T11:56:14Z</time>
      </trkpt>
      <trkpt lat="43.683344" lon="-7.851868">
        <ele>21.257</ele>
        <time>2019-06-20T11:56:15Z</time>
      </trkpt>
      <trkpt lat="43.683266" lon="-7.851928">
        <ele>21.539</ele>
        <time>2019-06-20T11:56:16Z</time>
      </trkpt>
      <trkpt lat="43.683213" lon="-7.851993">
        <ele>21.446</ele>
        <time>2019-06-20T11:56:17Z</time>
      </trkpt>
      <trkpt lat="43.683127" lon="-7.852040">
        <ele>21.527</ele>
        <time>2019-06-20T11:56:18Z</time>
      </trkpt>
      <trkpt lat="43.683074" lon="-7.852099">
        <ele>21.268</ele>
        <time>2019-06-20T11:56:19Z</time>
      </trkpt>
      <trkpt lat="43.683019" lon="-7.852174">
        <ele>20.814</ele>
        <time>2019-06-20T11:56:20Z</time>
      </trkpt>
      <trkpt lat="43.682953" lon="-7.852226">
        <ele>20.708</ele>
        <time>2019-06-20T11:56:21Z</time>
      </trkpt>
      <trkpt lat="43.682897" lon="-7.852304">
        <ele>20.145</ele>
        <time>2019-06-20T11:56:22Z</time>
      </trkpt>
      <trkpt lat="43.682796" lon="-7.852331">
        <ele>20.759</ele>
        <time>2019-06-20T11:56:23Z</time>
      </trkpt>
      <trkpt lat="43.682735" lon="-7.852401">
        <ele>20.340</ele>
        <time>2019-06-20T11:56:24Z</time>
      </trkpt>
      <trkpt lat="43.682672" lon="-7.852462">
        <ele>20.176</ele>
        <time>2019-06-20T11:56:25Z</time>
      </trkpt>
      <trkpt lat="43.682629" lon="-7.852534">
        <ele>19.723</ele>
        <time>2019-06-20T11:56:26Z</time>
      </trkpt>
      <trkpt lat="43.682578" lon="-7.852602">
        <ele>19.344</ele>
        <time>2019-06-20T11:56:27Z</time>
      </trkpt>
      <trkpt lat="43.682534" lon="-7.852633">
        <ele>19.356</ele>
        <time>2019-06-20T11:56:28Z</time>
      </trkpt>
      <trkpt lat="43.682482" lon="-7.852690">
        <ele>19.183</ele>
        <time>2019-06-20T11:56:29Z</time>
      </trkpt>
      <trkpt lat="43.682382" lon="-7.852709">
        <ele>19.829</ele>
        <time>2019-06-20T11:56:30Z</time>
      </trkpt>
      <trkpt lat="43.682322" lon="-7.852750">
        <ele>20.100</ele>
        <time>2019-06-20T11:56:31Z</time>
      </trkpt>
      <trkpt lat="43.682275" lon="-7.852815">
        <ele>20.120</ele>
        <time>2019-06-20T11:56:32Z</time>
      </trkpt>
      <trkpt lat="43.682212" lon="-7.852848">
        <ele>20.308</ele>
        <time>2019-06-20T11:56:33Z</time>
      </trkpt>
      <trkpt lat="43.682145" lon="-7.852881">
        <ele>20.015</ele>
        <time>2019-06-20T11:56:34Z</time>
      </trkpt>
      <trkpt lat="43.682083" lon="-7.852904">
        <ele>19.999</ele>
        <time>2019-06-20T11:56:35Z</time>
      </trkpt>
      <trkpt lat="43.682023" lon="-7.852937">
        <ele>19.770</ele>
        <time>2019-06-20T11:56:36Z</time>
      </trkpt>
      <trkpt lat="43.681956" lon="-7.852967">
        <ele>19.636</ele>
        <time>2019-06-20T11:56:37Z</time>
      </trkpt>
      <trkpt lat="43.681890" lon="-7.852989">
        <ele>19.333</ele>
        <time>2019-06-20T11:56:38Z</time>
      </trkpt>
      <trkpt lat="43.681819" lon="-7.853016">
        <ele>18.884</ele>
        <time>2019-06-20T11:56:39Z</time>
      </trkpt>
      <trkpt lat="43.681754" lon="-7.853049">
        <ele>18.416</ele>
        <time>2019-06-20T11:56:40Z</time>
      </trkpt>
      <trkpt lat="43.681675" lon="-7.853101">
        <ele>17.423</ele>
        <time>2019-06-20T11:56:41Z</time>
      </trkpt>
      <trkpt lat="43.681606" lon="-7.853133">
        <ele>16.711</ele>
        <time>2019-06-20T11:56:42Z</time>
      </trkpt>
      <trkpt lat="43.681530" lon="-7.853157">
        <ele>16.221</ele>
        <time>2019-06-20T11:56:43Z</time>
      </trkpt>
      <trkpt lat="43.681442" lon="-7.853177">
        <ele>15.803</ele>
        <time>2019-06-20T11:56:44Z</time>
      </trkpt>
      <trkpt lat="43.681358" lon="-7.853199">
        <ele>15.608</ele>
        <time>2019-06-20T11:56:45Z</time>
      </trkpt>
      <trkpt lat="43.681289" lon="-7.853223">
        <ele>15.644</ele>
        <time>2019-06-20T11:56:46Z</time>
      </trkpt>
      <trkpt lat="43.681242" lon="-7.853198">
        <ele>16.018</ele>
        <time>2019-06-20T11:56:47Z</time>
      </trkpt>
      <trkpt lat="43.681170" lon="-7.853207">
        <ele>16.219</ele>
        <time>2019-06-20T11:56:49Z</time>
      </trkpt>
      <trkpt lat="43.681117" lon="-7.853182">
        <ele>16.685</ele>
        <time>2019-06-20T11:56:51Z</time>
      </trkpt>
      <trkpt lat="43.681062" lon="-7.853187">
        <ele>16.692</ele>
        <time>2019-06-20T11:56:52Z</time>
      </trkpt>
      <trkpt lat="43.681007" lon="-7.853200">
        <ele>16.493</ele>
        <time>2019-06-20T11:56:53Z</time>
      </trkpt>
      <trkpt lat="43.680955" lon="-7.853204">
        <ele>16.425</ele>
        <time>2019-06-20T11:56:54Z</time>
      </trkpt>
      <trkpt lat="43.680901" lon="-7.853171">
        <ele>16.832</ele>
        <time>2019-06-20T11:56:55Z</time>
      </trkpt>
      <trkpt lat="43.680825" lon="-7.853127">
        <ele>17.171</ele>
        <time>2019-06-20T11:56:56Z</time>
      </trkpt>
      <trkpt lat="43.680746" lon="-7.853091">
        <ele>16.741</ele>
        <time>2019-06-20T11:56:57Z</time>
      </trkpt>
      <trkpt lat="43.680669" lon="-7.853020">
        <ele>16.415</ele>
        <time>2019-06-20T11:56:58Z</time>
      </trkpt>
      <trkpt lat="43.680591" lon="-7.852966">
        <ele>16.008</ele>
        <time>2019-06-20T11:56:59Z</time>
      </trkpt>
      <trkpt lat="43.680504" lon="-7.852931">
        <ele>15.490</ele>
        <time>2019-06-20T11:57:00Z</time>
      </trkpt>
      <trkpt lat="43.680424" lon="-7.852882">
        <ele>15.124</ele>
        <time>2019-06-20T11:57:01Z</time>
      </trkpt>
      <trkpt lat="43.680350" lon="-7.852823">
        <ele>15.145</ele>
        <time>2019-06-20T11:57:02Z</time>
      </trkpt>
      <trkpt lat="43.680280" lon="-7.852772">
        <ele>15.131</ele>
        <time>2019-06-20T11:57:03Z</time>
      </trkpt>
      <trkpt lat="43.680231" lon="-7.852723">
        <ele>15.398</ele>
        <time>2019-06-20T11:57:04Z</time>
      </trkpt>
      <trkpt lat="43.680159" lon="-7.852667">
        <ele>15.329</ele>
        <time>2019-06-20T11:57:05Z</time>
      </trkpt>
      <trkpt lat="43.680084" lon="-7.852623">
        <ele>15.181</ele>
        <time>2019-06-20T11:57:06Z</time>
      </trkpt>
      <trkpt lat="43.680016" lon="-7.852557">
        <ele>15.468</ele>
        <time>2019-06-20T11:57:07Z</time>
      </trkpt>
      <trkpt lat="43.679966" lon="-7.852512">
        <ele>15.345</ele>
        <time>2019-06-20T11:57:08Z</time>
      </trkpt>
      <trkpt lat="43.679895" lon="-7.852469">
        <ele>15.047</ele>
        <time>2019-06-20T11:57:09Z</time>
      </trkpt>
      <trkpt lat="43.679848" lon="-7.852418">
        <ele>15.211</ele>
        <time>2019-06-20T11:57:10Z</time>
      </trkpt>
      <trkpt lat="43.679808" lon="-7.852378">
        <ele>15.308</ele>
        <time>2019-06-20T11:57:11Z</time>
      </trkpt>
      <trkpt lat="43.679759" lon="-7.852313">
        <ele>15.837</ele>
        <time>2019-06-20T11:57:13Z</time>
      </trkpt>
      <trkpt lat="43.679705" lon="-7.852255">
        <ele>16.351</ele>
        <time>2019-06-20T11:57:15Z</time>
      </trkpt>
      <trkpt lat="43.679666" lon="-7.852208">
        <ele>17.062</ele>
        <time>2019-06-20T11:57:16Z</time>
      </trkpt>
      <trkpt lat="43.679628" lon="-7.852135">
        <ele>18.078</ele>
        <time>2019-06-20T11:57:17Z</time>
      </trkpt>
      <trkpt lat="43.679581" lon="-7.852056">
        <ele>18.965</ele>
        <time>2019-06-20T11:57:18Z</time>
      </trkpt>
      <trkpt lat="43.679530" lon="-7.851978">
        <ele>19.536</ele>
        <time>2019-06-20T11:57:19Z</time>
      </trkpt>
      <trkpt lat="43.679477" lon="-7.851872">
        <ele>19.628</ele>
        <time>2019-06-20T11:57:20Z</time>
      </trkpt>
      <trkpt lat="43.679432" lon="-7.851780">
        <ele>19.335</ele>
        <time>2019-06-20T11:57:21Z</time>
      </trkpt>
      <trkpt lat="43.679394" lon="-7.851673">
        <ele>18.945</ele>
        <time>2019-06-20T11:57:22Z</time>
      </trkpt>
      <trkpt lat="43.679340" lon="-7.851598">
        <ele>17.847</ele>
        <time>2019-06-20T11:57:23Z</time>
      </trkpt>
      <trkpt lat="43.679310" lon="-7.851464">
        <ele>17.111</ele>
        <time>2019-06-20T11:57:24Z</time>
      </trkpt>
      <trkpt lat="43.679278" lon="-7.851337">
        <ele>16.508</ele>
        <time>2019-06-20T11:57:25Z</time>
      </trkpt>
      <trkpt lat="43.679248" lon="-7.851193">
        <ele>16.347</ele>
        <time>2019-06-20T11:57:26Z</time>
      </trkpt>
      <trkpt lat="43.679209" lon="-7.851032">
        <ele>15.971</ele>
        <time>2019-06-20T11:57:27Z</time>
      </trkpt>
      <trkpt lat="43.679178" lon="-7.850875">
        <ele>16.072</ele>
        <time>2019-06-20T11:57:28Z</time>
      </trkpt>
      <trkpt lat="43.679149" lon="-7.850729">
        <ele>16.418</ele>
        <time>2019-06-20T11:57:29Z</time>
      </trkpt>
      <trkpt lat="43.679104" lon="-7.850563">
        <ele>16.845</ele>
        <time>2019-06-20T11:57:30Z</time>
      </trkpt>
      <trkpt lat="43.679070" lon="-7.850406">
        <ele>17.266</ele>
        <time>2019-06-20T11:57:31Z</time>
      </trkpt>
      <trkpt lat="43.679025" lon="-7.850233">
        <ele>17.788</ele>
        <time>2019-06-20T11:57:32Z</time>
      </trkpt>
      <trkpt lat="43.678998" lon="-7.850088">
        <ele>18.155</ele>
        <time>2019-06-20T11:57:33Z</time>
      </trkpt>
      <trkpt lat="43.678964" lon="-7.849925">
        <ele>18.493</ele>
        <time>2019-06-20T11:57:34Z</time>
      </trkpt>
      <trkpt lat="43.678928" lon="-7.849763">
        <ele>18.465</ele>
        <time>2019-06-20T11:57:35Z</time>
      </trkpt>
      <trkpt lat="43.678881" lon="-7.849601">
        <ele>18.421</ele>
        <time>2019-06-20T11:57:36Z</time>
      </trkpt>
      <trkpt lat="43.678848" lon="-7.849446">
        <ele>18.608</ele>
        <time>2019-06-20T11:57:37Z</time>
      </trkpt>
      <trkpt lat="43.678807" lon="-7.849275">
        <ele>18.932</ele>
        <time>2019-06-20T11:57:38Z</time>
      </trkpt>
      <trkpt lat="43.678749" lon="-7.849093">
        <ele>19.416</ele>
        <time>2019-06-20T11:57:39Z</time>
      </trkpt>
      <trkpt lat="43.678705" lon="-7.848920">
        <ele>19.917</ele>
        <time>2019-06-20T11:57:40Z</time>
      </trkpt>
      <trkpt lat="43.678664" lon="-7.848747">
        <ele>20.613</ele>
        <time>2019-06-20T11:57:41Z</time>
      </trkpt>
      <trkpt lat="43.678618" lon="-7.848569">
        <ele>21.140</ele>
        <time>2019-06-20T11:57:42Z</time>
      </trkpt>
      <trkpt lat="43.678565" lon="-7.848376">
        <ele>20.521</ele>
        <time>2019-06-20T11:57:43Z</time>
      </trkpt>
      <trkpt lat="43.678506" lon="-7.848180">
        <ele>19.953</ele>
        <time>2019-06-20T11:57:44Z</time>
      </trkpt>
      <trkpt lat="43.678460" lon="-7.847996">
        <ele>19.310</ele>
        <time>2019-06-20T11:57:45Z</time>
      </trkpt>
      <trkpt lat="43.678419" lon="-7.847824">
        <ele>18.356</ele>
        <time>2019-06-20T11:57:46Z</time>
      </trkpt>
      <trkpt lat="43.678377" lon="-7.847651">
        <ele>17.259</ele>
        <time>2019-06-20T11:57:47Z</time>
      </trkpt>
      <trkpt lat="43.678338" lon="-7.847495">
        <ele>16.114</ele>
        <time>2019-06-20T11:57:48Z</time>
      </trkpt>
      <trkpt lat="43.678307" lon="-7.847338">
        <ele>16.308</ele>
        <time>2019-06-20T11:57:49Z</time>
      </trkpt>
      <trkpt lat="43.678277" lon="-7.847200">
        <ele>16.498</ele>
        <time>2019-06-20T11:57:50Z</time>
      </trkpt>
      <trkpt lat="43.678234" lon="-7.847065">
        <ele>16.192</ele>
        <time>2019-06-20T11:57:51Z</time>
      </trkpt>
      <trkpt lat="43.678205" lon="-7.846951">
        <ele>16.153</ele>
        <time>2019-06-20T11:57:52Z</time>
      </trkpt>
      <trkpt lat="43.678171" lon="-7.846904">
        <ele>16.089</ele>
        <time>2019-06-20T11:57:54Z</time>
      </trkpt>
      <trkpt lat="43.678136" lon="-7.846853">
        <ele>15.886</ele>
        <time>2019-06-20T11:57:55Z</time>
      </trkpt>
      <trkpt lat="43.678090" lon="-7.846814">
        <ele>15.497</ele>
        <time>2019-06-20T11:57:56Z</time>
      </trkpt>
      <trkpt lat="43.678056" lon="-7.846746">
        <ele>15.079</ele>
        <time>2019-06-20T11:57:59Z</time>
      </trkpt>
      <trkpt lat="43.678054" lon="-7.846669">
        <ele>15.096</ele>
        <time>2019-06-20T11:58:04Z</time>
      </trkpt>
      <trkpt lat="43.678009" lon="-7.846647">
        <ele>14.792</ele>
        <time>2019-06-20T11:58:29Z</time>
      </trkpt>
      <trkpt lat="43.677976" lon="-7.846554">
        <ele>14.673</ele>
        <time>2019-06-20T11:59:01Z</time>
      </trkpt>
      <trkpt lat="43.677999" lon="-7.846608">
        <ele>14.720</ele>
        <time>2019-06-20T11:59:07Z</time>
      </trkpt>
      <trkpt lat="43.678016" lon="-7.846675">
        <ele>14.708</ele>
        <time>2019-06-20T11:59:11Z</time>
      </trkpt>
      <trkpt lat="43.678032" lon="-7.846738">
        <ele>14.852</ele>
        <time>2019-06-20T11:59:23Z</time>
      </trkpt>
      <trkpt lat="43.678082" lon="-7.846762">
        <ele>15.396</ele>
        <time>2019-06-20T11:59:43Z</time>
      </trkpt>
      <trkpt lat="43.678050" lon="-7.846701">
        <ele>15.087</ele>
        <time>2019-06-20T11:59:56Z</time>
      </trkpt>
      <trkpt lat="43.678023" lon="-7.846618">
        <ele>14.933</ele>
        <time>2019-06-20T12:00:43Z</time>
      </trkpt>
      <trkpt lat="43.678022" lon="-7.846552">
        <ele>15.170</ele>
        <time>2019-06-20T12:00:44Z</time>
      </trkpt>
      <trkpt lat="43.678019" lon="-7.846477">
        <ele>15.211</ele>
        <time>2019-06-20T12:00:45Z</time>
      </trkpt>
      <trkpt lat="43.678012" lon="-7.846391">
        <ele>15.483</ele>
        <time>2019-06-20T12:00:46Z</time>
      </trkpt>
      <trkpt lat="43.678004" lon="-7.846305">
        <ele>15.360</ele>
        <time>2019-06-20T12:00:47Z</time>
      </trkpt>
      <trkpt lat="43.678000" lon="-7.846233">
        <ele>15.264</ele>
        <time>2019-06-20T12:00:48Z</time>
      </trkpt>
      <trkpt lat="43.677999" lon="-7.846145">
        <ele>15.206</ele>
        <time>2019-06-20T12:00:50Z</time>
      </trkpt>
      <trkpt lat="43.678001" lon="-7.846070">
        <ele>15.216</ele>
        <time>2019-06-20T12:00:52Z</time>
      </trkpt>
      <trkpt lat="43.678003" lon="-7.846007">
        <ele>15.208</ele>
        <time>2019-06-20T12:00:53Z</time>
      </trkpt>
      <trkpt lat="43.678003" lon="-7.845931">
        <ele>15.219</ele>
        <time>2019-06-20T12:00:54Z</time>
      </trkpt>
      <trkpt lat="43.677947" lon="-7.845722">
        <ele>14.773</ele>
        <time>2019-06-20T12:00:55Z</time>
      </trkpt>
      <trkpt lat="43.677899" lon="-7.845556">
        <ele>14.264</ele>
        <time>2019-06-20T12:00:56Z</time>
      </trkpt>
      <trkpt lat="43.677853" lon="-7.845389">
        <ele>14.440</ele>
        <time>2019-06-20T12:00:57Z</time>
      </trkpt>
      <trkpt lat="43.677810" lon="-7.845215">
        <ele>14.777</ele>
        <time>2019-06-20T12:00:58Z</time>
      </trkpt>
      <trkpt lat="43.677766" lon="-7.845034">
        <ele>14.848</ele>
        <time>2019-06-20T12:00:59Z</time>
      </trkpt>
      <trkpt lat="43.677723" lon="-7.844849">
        <ele>15.660</ele>
        <time>2019-06-20T12:01:00Z</time>
      </trkpt>
      <trkpt lat="43.677665" lon="-7.844644">
        <ele>16.167</ele>
        <time>2019-06-20T12:01:01Z</time>
      </trkpt>
      <trkpt lat="43.677594" lon="-7.844433">
        <ele>16.153</ele>
        <time>2019-06-20T12:01:02Z</time>
      </trkpt>
      <trkpt lat="43.677525" lon="-7.844245">
        <ele>16.004</ele>
        <time>2019-06-20T12:01:03Z</time>
      </trkpt>
      <trkpt lat="43.677426" lon="-7.844047">
        <ele>16.414</ele>
        <time>2019-06-20T12:01:04Z</time>
      </trkpt>
      <trkpt lat="43.677325" lon="-7.843868">
        <ele>16.208</ele>
        <time>2019-06-20T12:01:05Z</time>
      </trkpt>
      <trkpt lat="43.677212" lon="-7.843717">
        <ele>15.588</ele>
        <time>2019-06-20T12:01:06Z</time>
      </trkpt>
      <trkpt lat="43.677087" lon="-7.843579">
        <ele>14.852</ele>
        <time>2019-06-20T12:01:07Z</time>
      </trkpt>
      <trkpt lat="43.676974" lon="-7.843482">
        <ele>14.793</ele>
        <time>2019-06-20T12:01:08Z</time>
      </trkpt>
      <trkpt lat="43.676842" lon="-7.843388">
        <ele>15.159</ele>
        <time>2019-06-20T12:01:09Z</time>
      </trkpt>
      <trkpt lat="43.676738" lon="-7.843311">
        <ele>15.586</ele>
        <time>2019-06-20T12:01:10Z</time>
      </trkpt>
      <trkpt lat="43.676611" lon="-7.843219">
        <ele>16.027</ele>
        <time>2019-06-20T12:01:11Z</time>
      </trkpt>
      <trkpt lat="43.676474" lon="-7.843131">
        <ele>16.079</ele>
        <time>2019-06-20T12:01:12Z</time>
      </trkpt>
      <trkpt lat="43.676331" lon="-7.843036">
        <ele>15.596</ele>
        <time>2019-06-20T12:01:13Z</time>
      </trkpt>
      <trkpt lat="43.676188" lon="-7.842935">
        <ele>14.626</ele>
        <time>2019-06-20T12:01:14Z</time>
      </trkpt>
      <trkpt lat="43.676036" lon="-7.842827">
        <ele>14.147</ele>
        <time>2019-06-20T12:01:15Z</time>
      </trkpt>
      <trkpt lat="43.675869" lon="-7.842719">
        <ele>13.711</ele>
        <time>2019-06-20T12:01:16Z</time>
      </trkpt>
      <trkpt lat="43.675685" lon="-7.842607">
        <ele>13.508</ele>
        <time>2019-06-20T12:01:17Z</time>
      </trkpt>
      <trkpt lat="43.675496" lon="-7.842491">
        <ele>13.955</ele>
        <time>2019-06-20T12:01:18Z</time>
      </trkpt>
      <trkpt lat="43.675299" lon="-7.842372">
        <ele>14.419</ele>
        <time>2019-06-20T12:01:19Z</time>
      </trkpt>
      <trkpt lat="43.675106" lon="-7.842247">
        <ele>14.650</ele>
        <time>2019-06-20T12:01:20Z</time>
      </trkpt>
      <trkpt lat="43.674907" lon="-7.842124">
        <ele>13.736</ele>
        <time>2019-06-20T12:01:21Z</time>
      </trkpt>
      <trkpt lat="43.674697" lon="-7.841977">
        <ele>12.833</ele>
        <time>2019-06-20T12:01:22Z</time>
      </trkpt>
      <trkpt lat="43.674497" lon="-7.841873">
        <ele>14.624</ele>
        <time>2019-06-20T12:01:23Z</time>
      </trkpt>
      <trkpt lat="43.674298" lon="-7.841745">
        <ele>16.736</ele>
        <time>2019-06-20T12:01:24Z</time>
      </trkpt>
      <trkpt lat="43.674086" lon="-7.841613">
        <ele>17.933</ele>
        <time>2019-06-20T12:01:25Z</time>
      </trkpt>
      <trkpt lat="43.673878" lon="-7.841475">
        <ele>17.651</ele>
        <time>2019-06-20T12:01:26Z</time>
      </trkpt>
      <trkpt lat="43.673669" lon="-7.841338">
        <ele>15.601</ele>
        <time>2019-06-20T12:01:27Z</time>
      </trkpt>
      <trkpt lat="43.673450" lon="-7.841202">
        <ele>15.211</ele>
        <time>2019-06-20T12:01:28Z</time>
      </trkpt>
      <trkpt lat="43.673229" lon="-7.841074">
        <ele>15.908</ele>
        <time>2019-06-20T12:01:29Z</time>
      </trkpt>
      <trkpt lat="43.673021" lon="-7.840952">
        <ele>15.428</ele>
        <time>2019-06-20T12:01:30Z</time>
      </trkpt>
      <trkpt lat="43.672817" lon="-7.840826">
        <ele>15.032</ele>
        <time>2019-06-20T12:01:31Z</time>
      </trkpt>
      <trkpt lat="43.672613" lon="-7.840709">
        <ele>14.843</ele>
        <time>2019-06-20T12:01:32Z</time>
      </trkpt>
      <trkpt lat="43.672417" lon="-7.840588">
        <ele>15.069</ele>
        <time>2019-06-20T12:01:33Z</time>
      </trkpt>
      <trkpt lat="43.672234" lon="-7.840475">
        <ele>15.366</ele>
        <time>2019-06-20T12:01:34Z</time>
      </trkpt>
      <trkpt lat="43.672051" lon="-7.840355">
        <ele>15.197</ele>
        <time>2019-06-20T12:01:35Z</time>
      </trkpt>
      <trkpt lat="43.671890" lon="-7.840305">
        <ele>14.579</ele>
        <time>2019-06-20T12:01:36Z</time>
      </trkpt>
      <trkpt lat="43.671734" lon="-7.840270">
        <ele>13.516</ele>
        <time>2019-06-20T12:01:37Z</time>
      </trkpt>
      <trkpt lat="43.671569" lon="-7.840252">
        <ele>12.435</ele>
        <time>2019-06-20T12:01:38Z</time>
      </trkpt>
      <trkpt lat="43.671400" lon="-7.840274">
        <ele>11.186</ele>
        <time>2019-06-20T12:01:39Z</time>
      </trkpt>
      <trkpt lat="43.671234" lon="-7.840356">
        <ele>10.414</ele>
        <time>2019-06-20T12:01:40Z</time>
      </trkpt>
      <trkpt lat="43.671064" lon="-7.840455">
        <ele>9.708</ele>
        <time>2019-06-20T12:01:41Z</time>
      </trkpt>
      <trkpt lat="43.670891" lon="-7.840588">
        <ele>10.116</ele>
        <time>2019-06-20T12:01:42Z</time>
      </trkpt>
      <trkpt lat="43.670717" lon="-7.840734">
        <ele>10.340</ele>
        <time>2019-06-20T12:01:43Z</time>
      </trkpt>
      <trkpt lat="43.670539" lon="-7.840878">
        <ele>11.041</ele>
        <time>2019-06-20T12:01:44Z</time>
      </trkpt>
      <trkpt lat="43.670356" lon="-7.841026">
        <ele>12.017</ele>
        <time>2019-06-20T12:01:45Z</time>
      </trkpt>
      <trkpt lat="43.670178" lon="-7.841190">
        <ele>12.344</ele>
        <time>2019-06-20T12:01:46Z</time>
      </trkpt>
      <trkpt lat="43.669994" lon="-7.841337">
        <ele>13.295</ele>
        <time>2019-06-20T12:01:47Z</time>
      </trkpt>
      <trkpt lat="43.669804" lon="-7.841490">
        <ele>12.567</ele>
        <time>2019-06-20T12:01:48Z</time>
      </trkpt>
      <trkpt lat="43.669613" lon="-7.841644">
        <ele>12.164</ele>
        <time>2019-06-20T12:01:49Z</time>
      </trkpt>
      <trkpt lat="43.669416" lon="-7.841807">
        <ele>11.673</ele>
        <time>2019-06-20T12:01:50Z</time>
      </trkpt>
      <trkpt lat="43.669223" lon="-7.841964">
        <ele>11.885</ele>
        <time>2019-06-20T12:01:51Z</time>
      </trkpt>
      <trkpt lat="43.669025" lon="-7.842133">
        <ele>11.813</ele>
        <time>2019-06-20T12:01:52Z</time>
      </trkpt>
      <trkpt lat="43.668823" lon="-7.842301">
        <ele>12.208</ele>
        <time>2019-06-20T12:01:53Z</time>
      </trkpt>
      <trkpt lat="43.668623" lon="-7.842471">
        <ele>13.060</ele>
        <time>2019-06-20T12:01:54Z</time>
      </trkpt>
      <trkpt lat="43.668423" lon="-7.842637">
        <ele>13.584</ele>
        <time>2019-06-20T12:01:55Z</time>
      </trkpt>
      <trkpt lat="43.668223" lon="-7.842804">
        <ele>13.285</ele>
        <time>2019-06-20T12:01:56Z</time>
      </trkpt>
      <trkpt lat="43.668020" lon="-7.842964">
        <ele>12.531</ele>
        <time>2019-06-20T12:01:57Z</time>
      </trkpt>
      <trkpt lat="43.667817" lon="-7.843120">
        <ele>10.838</ele>
        <time>2019-06-20T12:01:58Z</time>
      </trkpt>
      <trkpt lat="43.667617" lon="-7.843290">
        <ele>8.499</ele>
        <time>2019-06-20T12:01:59Z</time>
      </trkpt>
      <trkpt lat="43.667415" lon="-7.843460">
        <ele>6.531</ele>
        <time>2019-06-20T12:02:00Z</time>
      </trkpt>
      <trkpt lat="43.667216" lon="-7.843624">
        <ele>6.078</ele>
        <time>2019-06-20T12:02:01Z</time>
      </trkpt>
      <trkpt lat="43.667020" lon="-7.843794">
        <ele>6.785</ele>
        <time>2019-06-20T12:02:02Z</time>
      </trkpt>
      <trkpt lat="43.666836" lon="-7.843957">
        <ele>6.989</ele>
        <time>2019-06-20T12:02:03Z</time>
      </trkpt>
      <trkpt lat="43.666647" lon="-7.844108">
        <ele>7.117</ele>
        <time>2019-06-20T12:02:04Z</time>
      </trkpt>
      <trkpt lat="43.666466" lon="-7.844255">
        <ele>7.708</ele>
        <time>2019-06-20T12:02:05Z</time>
      </trkpt>
      <trkpt lat="43.666289" lon="-7.844398">
        <ele>8.431</ele>
        <time>2019-06-20T12:02:06Z</time>
      </trkpt>
      <trkpt lat="43.666132" lon="-7.844530">
        <ele>9.265</ele>
        <time>2019-06-20T12:02:07Z</time>
      </trkpt>
      <trkpt lat="43.665983" lon="-7.844656">
        <ele>10.196</ele>
        <time>2019-06-20T12:02:08Z</time>
      </trkpt>
      <trkpt lat="43.665840" lon="-7.844774">
        <ele>11.222</ele>
        <time>2019-06-20T12:02:09Z</time>
      </trkpt>
      <trkpt lat="43.665703" lon="-7.844894">
        <ele>11.929</ele>
        <time>2019-06-20T12:02:10Z</time>
      </trkpt>
      <trkpt lat="43.665577" lon="-7.845001">
        <ele>12.980</ele>
        <time>2019-06-20T12:02:11Z</time>
      </trkpt>
      <trkpt lat="43.665462" lon="-7.845106">
        <ele>12.712</ele>
        <time>2019-06-20T12:02:12Z</time>
      </trkpt>
      <trkpt lat="43.665346" lon="-7.845214">
        <ele>12.299</ele>
        <time>2019-06-20T12:02:13Z</time>
      </trkpt>
      <trkpt lat="43.665258" lon="-7.845323">
        <ele>11.894</ele>
        <time>2019-06-20T12:02:14Z</time>
      </trkpt>
      <trkpt lat="43.665158" lon="-7.845461">
        <ele>10.957</ele>
        <time>2019-06-20T12:02:15Z</time>
      </trkpt>
      <trkpt lat="43.665109" lon="-7.845679">
        <ele>10.322</ele>
        <time>2019-06-20T12:02:16Z</time>
      </trkpt>
      <trkpt lat="43.665042" lon="-7.845853">
        <ele>10.208</ele>
        <time>2019-06-20T12:02:17Z</time>
      </trkpt>
      <trkpt lat="43.665007" lon="-7.846068">
        <ele>10.992</ele>
        <time>2019-06-20T12:02:18Z</time>
      </trkpt>
      <trkpt lat="43.664992" lon="-7.846281">
        <ele>10.426</ele>
        <time>2019-06-20T12:02:19Z</time>
      </trkpt>
      <trkpt lat="43.664961" lon="-7.846520">
        <ele>9.667</ele>
        <time>2019-06-20T12:02:20Z</time>
      </trkpt>
      <trkpt lat="43.664917" lon="-7.846769">
        <ele>8.713</ele>
        <time>2019-06-20T12:02:21Z</time>
      </trkpt>
      <trkpt lat="43.664913" lon="-7.847030">
        <ele>7.510</ele>
        <time>2019-06-20T12:02:22Z</time>
      </trkpt>
      <trkpt lat="43.664884" lon="-7.847272">
        <ele>7.231</ele>
        <time>2019-06-20T12:02:23Z</time>
      </trkpt>
      <trkpt lat="43.664883" lon="-7.847523">
        <ele>6.493</ele>
        <time>2019-06-20T12:02:24Z</time>
      </trkpt>
      <trkpt lat="43.664894" lon="-7.847778">
        <ele>6.060</ele>
        <time>2019-06-20T12:02:25Z</time>
      </trkpt>
      <trkpt lat="43.664915" lon="-7.848022">
        <ele>5.467</ele>
        <time>2019-06-20T12:02:26Z</time>
      </trkpt>
      <trkpt lat="43.664955" lon="-7.848269">
        <ele>5.081</ele>
        <time>2019-06-20T12:02:27Z</time>
      </trkpt>
      <trkpt lat="43.665006" lon="-7.848521">
        <ele>5.619</ele>
        <time>2019-06-20T12:02:28Z</time>
      </trkpt>
      <trkpt lat="43.665077" lon="-7.848760">
        <ele>6.508</ele>
        <time>2019-06-20T12:02:29Z</time>
      </trkpt>
      <trkpt lat="43.665158" lon="-7.849006">
        <ele>8.229</ele>
        <time>2019-06-20T12:02:30Z</time>
      </trkpt>
      <trkpt lat="43.665228" lon="-7.849243">
        <ele>10.693</ele>
        <time>2019-06-20T12:02:31Z</time>
      </trkpt>
      <trkpt lat="43.665308" lon="-7.849468">
        <ele>11.864</ele>
        <time>2019-06-20T12:02:32Z</time>
      </trkpt>
      <trkpt lat="43.665380" lon="-7.849681">
        <ele>12.330</ele>
        <time>2019-06-20T12:02:33Z</time>
      </trkpt>
      <trkpt lat="43.665453" lon="-7.849887">
        <ele>11.947</ele>
        <time>2019-06-20T12:02:34Z</time>
      </trkpt>
      <trkpt lat="43.665525" lon="-7.850090">
        <ele>11.628</ele>
        <time>2019-06-20T12:02:35Z</time>
      </trkpt>
      <trkpt lat="43.665594" lon="-7.850292">
        <ele>11.760</ele>
        <time>2019-06-20T12:02:36Z</time>
      </trkpt>
      <trkpt lat="43.665658" lon="-7.850487">
        <ele>11.827</ele>
        <time>2019-06-20T12:02:37Z</time>
      </trkpt>
      <trkpt lat="43.665721" lon="-7.850678">
        <ele>12.636</ele>
        <time>2019-06-20T12:02:38Z</time>
      </trkpt>
      <trkpt lat="43.665787" lon="-7.850874">
        <ele>13.617</ele>
        <time>2019-06-20T12:02:39Z</time>
      </trkpt>
      <trkpt lat="43.665852" lon="-7.851070">
        <ele>15.618</ele>
        <time>2019-06-20T12:02:40Z</time>
      </trkpt>
      <trkpt lat="43.665915" lon="-7.851260">
        <ele>17.108</ele>
        <time>2019-06-20T12:02:41Z</time>
      </trkpt>
      <trkpt lat="43.665969" lon="-7.851444">
        <ele>18.556</ele>
        <time>2019-06-20T12:02:42Z</time>
      </trkpt>
      <trkpt lat="43.666021" lon="-7.851624">
        <ele>20.360</ele>
        <time>2019-06-20T12:02:43Z</time>
      </trkpt>
      <trkpt lat="43.666064" lon="-7.851800">
        <ele>21.341</ele>
        <time>2019-06-20T12:02:44Z</time>
      </trkpt>
      <trkpt lat="43.666094" lon="-7.851972">
        <ele>22.077</ele>
        <time>2019-06-20T12:02:45Z</time>
      </trkpt>
      <trkpt lat="43.666097" lon="-7.852133">
        <ele>22.664</ele>
        <time>2019-06-20T12:02:46Z</time>
      </trkpt>
      <trkpt lat="43.666089" lon="-7.852289">
        <ele>22.935</ele>
        <time>2019-06-20T12:02:47Z</time>
      </trkpt>
      <trkpt lat="43.666057" lon="-7.852445">
        <ele>22.897</ele>
        <time>2019-06-20T12:02:48Z</time>
      </trkpt>
      <trkpt lat="43.666017" lon="-7.852594">
        <ele>22.454</ele>
        <time>2019-06-20T12:02:49Z</time>
      </trkpt>
      <trkpt lat="43.665957" lon="-7.852703">
        <ele>22.198</ele>
        <time>2019-06-20T12:02:50Z</time>
      </trkpt>
      <trkpt lat="43.665911" lon="-7.852815">
        <ele>22.115</ele>
        <time>2019-06-20T12:02:51Z</time>
      </trkpt>
      <trkpt lat="43.665873" lon="-7.852915">
        <ele>22.526</ele>
        <time>2019-06-20T12:02:52Z</time>
      </trkpt>
      <trkpt lat="43.665830" lon="-7.853031">
        <ele>22.908</ele>
        <time>2019-06-20T12:02:53Z</time>
      </trkpt>
      <trkpt lat="43.665783" lon="-7.853143">
        <ele>23.322</ele>
        <time>2019-06-20T12:02:54Z</time>
      </trkpt>
      <trkpt lat="43.665697" lon="-7.853312">
        <ele>23.526</ele>
        <time>2019-06-20T12:02:55Z</time>
      </trkpt>
      <trkpt lat="43.665613" lon="-7.853458">
        <ele>23.147</ele>
        <time>2019-06-20T12:02:56Z</time>
      </trkpt>
      <trkpt lat="43.665527" lon="-7.853636">
        <ele>22.763</ele>
        <time>2019-06-20T12:02:57Z</time>
      </trkpt>
      <trkpt lat="43.665444" lon="-7.853838">
        <ele>21.780</ele>
        <time>2019-06-20T12:02:58Z</time>
      </trkpt>
      <trkpt lat="43.665353" lon="-7.854069">
        <ele>20.441</ele>
        <time>2019-06-20T12:02:59Z</time>
      </trkpt>
      <trkpt lat="43.665253" lon="-7.854303">
        <ele>19.523</ele>
        <time>2019-06-20T12:03:00Z</time>
      </trkpt>
      <trkpt lat="43.665147" lon="-7.854538">
        <ele>18.850</ele>
        <time>2019-06-20T12:03:01Z</time>
      </trkpt>
      <trkpt lat="43.665043" lon="-7.854780">
        <ele>17.937</ele>
        <time>2019-06-20T12:03:02Z</time>
      </trkpt>
      <trkpt lat="43.664938" lon="-7.855035">
        <ele>16.949</ele>
        <time>2019-06-20T12:03:03Z</time>
      </trkpt>
      <trkpt lat="43.664823" lon="-7.855303">
        <ele>16.613</ele>
        <time>2019-06-20T12:03:04Z</time>
      </trkpt>
      <trkpt lat="43.664710" lon="-7.855560">
        <ele>16.008</ele>
        <time>2019-06-20T12:03:05Z</time>
      </trkpt>
      <trkpt lat="43.664597" lon="-7.855841">
        <ele>15.526</ele>
        <time>2019-06-20T12:03:06Z</time>
      </trkpt>
      <trkpt lat="43.664473" lon="-7.856118">
        <ele>15.960</ele>
        <time>2019-06-20T12:03:07Z</time>
      </trkpt>
      <trkpt lat="43.664352" lon="-7.856406">
        <ele>16.361</ele>
        <time>2019-06-20T12:03:08Z</time>
      </trkpt>
      <trkpt lat="43.664225" lon="-7.856701">
        <ele>15.817</ele>
        <time>2019-06-20T12:03:09Z</time>
      </trkpt>
      <trkpt lat="43.664105" lon="-7.856985">
        <ele>16.164</ele>
        <time>2019-06-20T12:03:10Z</time>
      </trkpt>
      <trkpt lat="43.663981" lon="-7.857288">
        <ele>15.575</ele>
        <time>2019-06-20T12:03:11Z</time>
      </trkpt>
      <trkpt lat="43.663858" lon="-7.857585">
        <ele>14.947</ele>
        <time>2019-06-20T12:03:12Z</time>
      </trkpt>
      <trkpt lat="43.663734" lon="-7.857885">
        <ele>14.994</ele>
        <time>2019-06-20T12:03:13Z</time>
      </trkpt>
      <trkpt lat="43.663610" lon="-7.858188">
        <ele>15.511</ele>
        <time>2019-06-20T12:03:14Z</time>
      </trkpt>
      <trkpt lat="43.663485" lon="-7.858473">
        <ele>15.621</ele>
        <time>2019-06-20T12:03:15Z</time>
      </trkpt>
      <trkpt lat="43.663358" lon="-7.858773">
        <ele>13.803</ele>
        <time>2019-06-20T12:03:16Z</time>
      </trkpt>
      <trkpt lat="43.663225" lon="-7.859080">
        <ele>11.708</ele>
        <time>2019-06-20T12:03:17Z</time>
      </trkpt>
      <trkpt lat="43.663096" lon="-7.859381">
        <ele>11.244</ele>
        <time>2019-06-20T12:03:18Z</time>
      </trkpt>
      <trkpt lat="43.662967" lon="-7.859691">
        <ele>11.188</ele>
        <time>2019-06-20T12:03:19Z</time>
      </trkpt>
      <trkpt lat="43.662836" lon="-7.859981">
        <ele>10.159</ele>
        <time>2019-06-20T12:03:20Z</time>
      </trkpt>
      <trkpt lat="43.662710" lon="-7.860279">
        <ele>10.355</ele>
        <time>2019-06-20T12:03:21Z</time>
      </trkpt>
      <trkpt lat="43.662593" lon="-7.860585">
        <ele>11.932</ele>
        <time>2019-06-20T12:03:22Z</time>
      </trkpt>
      <trkpt lat="43.662467" lon="-7.860866">
        <ele>10.973</ele>
        <time>2019-06-20T12:03:23Z</time>
      </trkpt>
      <trkpt lat="43.662334" lon="-7.861178">
        <ele>10.675</ele>
        <time>2019-06-20T12:03:24Z</time>
      </trkpt>
      <trkpt lat="43.662208" lon="-7.861460">
        <ele>11.072</ele>
        <time>2019-06-20T12:03:25Z</time>
      </trkpt>
      <trkpt lat="43.662080" lon="-7.861766">
        <ele>11.911</ele>
        <time>2019-06-20T12:03:26Z</time>
      </trkpt>
      <trkpt lat="43.661948" lon="-7.862059">
        <ele>13.021</ele>
        <time>2019-06-20T12:03:27Z</time>
      </trkpt>
      <trkpt lat="43.661822" lon="-7.862327">
        <ele>13.703</ele>
        <time>2019-06-20T12:03:28Z</time>
      </trkpt>
      <trkpt lat="43.661698" lon="-7.862590">
        <ele>13.708</ele>
        <time>2019-06-20T12:03:29Z</time>
      </trkpt>
      <trkpt lat="43.661603" lon="-7.862822">
        <ele>12.674</ele>
        <time>2019-06-20T12:03:30Z</time>
      </trkpt>
      <trkpt lat="43.661488" lon="-7.863087">
        <ele>12.078</ele>
        <time>2019-06-20T12:03:31Z</time>
      </trkpt>
      <trkpt lat="43.661383" lon="-7.863369">
        <ele>12.179</ele>
        <time>2019-06-20T12:03:32Z</time>
      </trkpt>
      <trkpt lat="43.661268" lon="-7.863645">
        <ele>12.965</ele>
        <time>2019-06-20T12:03:33Z</time>
      </trkpt>
      <trkpt lat="43.661149" lon="-7.863911">
        <ele>12.032</ele>
        <time>2019-06-20T12:03:34Z</time>
      </trkpt>
      <trkpt lat="43.661036" lon="-7.864163">
        <ele>10.033</ele>
        <time>2019-06-20T12:03:35Z</time>
      </trkpt>
      <trkpt lat="43.660929" lon="-7.864424">
        <ele>8.885</ele>
        <time>2019-06-20T12:03:36Z</time>
      </trkpt>
      <trkpt lat="43.660838" lon="-7.864680">
        <ele>9.022</ele>
        <time>2019-06-20T12:03:37Z</time>
      </trkpt>
      <trkpt lat="43.660762" lon="-7.864949">
        <ele>10.147</ele>
        <time>2019-06-20T12:03:38Z</time>
      </trkpt>
      <trkpt lat="43.660707" lon="-7.865197">
        <ele>10.129</ele>
        <time>2019-06-20T12:03:39Z</time>
      </trkpt>
      <trkpt lat="43.660658" lon="-7.865441">
        <ele>9.521</ele>
        <time>2019-06-20T12:03:40Z</time>
      </trkpt>
      <trkpt lat="43.660634" lon="-7.865692">
        <ele>8.508</ele>
        <time>2019-06-20T12:03:41Z</time>
      </trkpt>
      <trkpt lat="43.660628" lon="-7.865945">
        <ele>8.067</ele>
        <time>2019-06-20T12:03:42Z</time>
      </trkpt>
      <trkpt lat="43.660678" lon="-7.866213">
        <ele>8.431</ele>
        <time>2019-06-20T12:03:43Z</time>
      </trkpt>
      <trkpt lat="43.660745" lon="-7.866473">
        <ele>9.242</ele>
        <time>2019-06-20T12:03:44Z</time>
      </trkpt>
      <trkpt lat="43.660809" lon="-7.866727">
        <ele>9.628</ele>
        <time>2019-06-20T12:03:45Z</time>
      </trkpt>
      <trkpt lat="43.660859" lon="-7.866953">
        <ele>10.835</ele>
        <time>2019-06-20T12:03:46Z</time>
      </trkpt>
      <trkpt lat="43.660898" lon="-7.867175">
        <ele>11.626</ele>
        <time>2019-06-20T12:03:47Z</time>
      </trkpt>
      <trkpt lat="43.660932" lon="-7.867396">
        <ele>12.058</ele>
        <time>2019-06-20T12:03:48Z</time>
      </trkpt>
      <trkpt lat="43.660965" lon="-7.867612">
        <ele>12.155</ele>
        <time>2019-06-20T12:03:49Z</time>
      </trkpt>
      <trkpt lat="43.660986" lon="-7.867838">
        <ele>12.045</ele>
        <time>2019-06-20T12:03:50Z</time>
      </trkpt>
      <trkpt lat="43.661014" lon="-7.868051">
        <ele>12.447</ele>
        <time>2019-06-20T12:03:51Z</time>
      </trkpt>
      <trkpt lat="43.661033" lon="-7.868246">
        <ele>12.811</ele>
        <time>2019-06-20T12:03:52Z</time>
      </trkpt>
      <trkpt lat="43.661047" lon="-7.868470">
        <ele>13.308</ele>
        <time>2019-06-20T12:03:53Z</time>
      </trkpt>
      <trkpt lat="43.661060" lon="-7.868698">
        <ele>14.047</ele>
        <time>2019-06-20T12:03:54Z</time>
      </trkpt>
      <trkpt lat="43.661081" lon="-7.868931">
        <ele>14.791</ele>
        <time>2019-06-20T12:03:55Z</time>
      </trkpt>
      <trkpt lat="43.661095" lon="-7.869158">
        <ele>15.322</ele>
        <time>2019-06-20T12:03:56Z</time>
      </trkpt>
      <trkpt lat="43.661113" lon="-7.869383">
        <ele>15.068</ele>
        <time>2019-06-20T12:03:57Z</time>
      </trkpt>
      <trkpt lat="43.661124" lon="-7.869614">
        <ele>15.545</ele>
        <time>2019-06-20T12:03:58Z</time>
      </trkpt>
      <trkpt lat="43.661125" lon="-7.869843">
        <ele>16.286</ele>
        <time>2019-06-20T12:03:59Z</time>
      </trkpt>
      <trkpt lat="43.661118" lon="-7.870080">
        <ele>16.948</ele>
        <time>2019-06-20T12:04:00Z</time>
      </trkpt>
      <trkpt lat="43.661088" lon="-7.870313">
        <ele>17.455</ele>
        <time>2019-06-20T12:04:01Z</time>
      </trkpt>
      <trkpt lat="43.661052" lon="-7.870559">
        <ele>18.432</ele>
        <time>2019-06-20T12:04:02Z</time>
      </trkpt>
      <trkpt lat="43.661009" lon="-7.870815">
        <ele>17.292</ele>
        <time>2019-06-20T12:04:03Z</time>
      </trkpt>
      <trkpt lat="43.660976" lon="-7.871064">
        <ele>16.211</ele>
        <time>2019-06-20T12:04:04Z</time>
      </trkpt>
      <trkpt lat="43.660939" lon="-7.871305">
        <ele>15.308</ele>
        <time>2019-06-20T12:04:05Z</time>
      </trkpt>
      <trkpt lat="43.660905" lon="-7.871537">
        <ele>13.826</ele>
        <time>2019-06-20T12:04:06Z</time>
      </trkpt>
      <trkpt lat="43.660882" lon="-7.871799">
        <ele>12.130</ele>
        <time>2019-06-20T12:04:07Z</time>
      </trkpt>
      <trkpt lat="43.660859" lon="-7.872074">
        <ele>11.311</ele>
        <time>2019-06-20T12:04:08Z</time>
      </trkpt>
      <trkpt lat="43.660843" lon="-7.872342">
        <ele>10.587</ele>
        <time>2019-06-20T12:04:09Z</time>
      </trkpt>
      <trkpt lat="43.660823" lon="-7.872650">
        <ele>9.654</ele>
        <time>2019-06-20T12:04:10Z</time>
      </trkpt>
      <trkpt lat="43.660816" lon="-7.872969">
        <ele>7.915</ele>
        <time>2019-06-20T12:04:11Z</time>
      </trkpt>
      <trkpt lat="43.660802" lon="-7.873291">
        <ele>5.827</ele>
        <time>2019-06-20T12:04:12Z</time>
      </trkpt>
      <trkpt lat="43.660802" lon="-7.873623">
        <ele>5.524</ele>
        <time>2019-06-20T12:04:13Z</time>
      </trkpt>
      <trkpt lat="43.660807" lon="-7.873952">
        <ele>6.141</ele>
        <time>2019-06-20T12:04:14Z</time>
      </trkpt>
      <trkpt lat="43.660787" lon="-7.874280">
        <ele>5.681</ele>
        <time>2019-06-20T12:04:15Z</time>
      </trkpt>
      <trkpt lat="43.660783" lon="-7.874612">
        <ele>6.009</ele>
        <time>2019-06-20T12:04:16Z</time>
      </trkpt>
      <trkpt lat="43.660779" lon="-7.874964">
        <ele>7.308</ele>
        <time>2019-06-20T12:04:17Z</time>
      </trkpt>
      <trkpt lat="43.660768" lon="-7.875299">
        <ele>7.267</ele>
        <time>2019-06-20T12:04:18Z</time>
      </trkpt>
      <trkpt lat="43.660762" lon="-7.875645">
        <ele>7.521</ele>
        <time>2019-06-20T12:04:19Z</time>
      </trkpt>
      <trkpt lat="43.660757" lon="-7.875989">
        <ele>8.242</ele>
        <time>2019-06-20T12:04:20Z</time>
      </trkpt>
      <trkpt lat="43.660754" lon="-7.876332">
        <ele>7.588</ele>
        <time>2019-06-20T12:04:21Z</time>
      </trkpt>
      <trkpt lat="43.660749" lon="-7.876685">
        <ele>7.215</ele>
        <time>2019-06-20T12:04:22Z</time>
      </trkpt>
      <trkpt lat="43.660735" lon="-7.877019">
        <ele>6.576</ele>
        <time>2019-06-20T12:04:23Z</time>
      </trkpt>
      <trkpt lat="43.660718" lon="-7.877371">
        <ele>6.228</ele>
        <time>2019-06-20T12:04:24Z</time>
      </trkpt>
      <trkpt lat="43.660709" lon="-7.877697">
        <ele>4.485</ele>
        <time>2019-06-20T12:04:25Z</time>
      </trkpt>
      <trkpt lat="43.660704" lon="-7.878061">
        <ele>4.547</ele>
        <time>2019-06-20T12:04:26Z</time>
      </trkpt>
      <trkpt lat="43.660691" lon="-7.878396">
        <ele>6.429</ele>
        <time>2019-06-20T12:04:27Z</time>
      </trkpt>
      <trkpt lat="43.660686" lon="-7.878752">
        <ele>7.821</ele>
        <time>2019-06-20T12:04:28Z</time>
      </trkpt>
      <trkpt lat="43.660683" lon="-7.879099">
        <ele>8.008</ele>
        <time>2019-06-20T12:04:29Z</time>
      </trkpt>
      <trkpt lat="43.660683" lon="-7.879432">
        <ele>8.457</ele>
        <time>2019-06-20T12:04:30Z</time>
      </trkpt>
      <trkpt lat="43.660684" lon="-7.879777">
        <ele>8.631</ele>
        <time>2019-06-20T12:04:31Z</time>
      </trkpt>
      <trkpt lat="43.660678" lon="-7.880096">
        <ele>9.362</ele>
        <time>2019-06-20T12:04:32Z</time>
      </trkpt>
      <trkpt lat="43.660681" lon="-7.880410">
        <ele>10.298</ele>
        <time>2019-06-20T12:04:33Z</time>
      </trkpt>
      <trkpt lat="43.660676" lon="-7.880720">
        <ele>10.435</ele>
        <time>2019-06-20T12:04:34Z</time>
      </trkpt>
      <trkpt lat="43.660671" lon="-7.881030">
        <ele>10.866</ele>
        <time>2019-06-20T12:04:35Z</time>
      </trkpt>
      <trkpt lat="43.660659" lon="-7.881340">
        <ele>11.088</ele>
        <time>2019-06-20T12:04:36Z</time>
      </trkpt>
      <trkpt lat="43.660653" lon="-7.881628">
        <ele>11.665</ele>
        <time>2019-06-20T12:04:37Z</time>
      </trkpt>
      <trkpt lat="43.660654" lon="-7.881906">
        <ele>11.685</ele>
        <time>2019-06-20T12:04:38Z</time>
      </trkpt>
      <trkpt lat="43.660650" lon="-7.882170">
        <ele>11.789</ele>
        <time>2019-06-20T12:04:39Z</time>
      </trkpt>
      <trkpt lat="43.660645" lon="-7.882422">
        <ele>11.717</ele>
        <time>2019-06-20T12:04:40Z</time>
      </trkpt>
      <trkpt lat="43.660640" lon="-7.882658">
        <ele>11.708</ele>
        <time>2019-06-20T12:04:41Z</time>
      </trkpt>
      <trkpt lat="43.660637" lon="-7.882888">
        <ele>11.711</ele>
        <time>2019-06-20T12:04:42Z</time>
      </trkpt>
      <trkpt lat="43.660640" lon="-7.883114">
        <ele>11.935</ele>
        <time>2019-06-20T12:04:43Z</time>
      </trkpt>
      <trkpt lat="43.660636" lon="-7.883332">
        <ele>12.766</ele>
        <time>2019-06-20T12:04:44Z</time>
      </trkpt>
      <trkpt lat="43.660633" lon="-7.883546">
        <ele>13.582</ele>
        <time>2019-06-20T12:04:45Z</time>
      </trkpt>
      <trkpt lat="43.660638" lon="-7.883771">
        <ele>14.329</ele>
        <time>2019-06-20T12:04:46Z</time>
      </trkpt>
      <trkpt lat="43.660635" lon="-7.883994">
        <ele>14.760</ele>
        <time>2019-06-20T12:04:47Z</time>
      </trkpt>
      <trkpt lat="43.660637" lon="-7.884205">
        <ele>14.922</ele>
        <time>2019-06-20T12:04:48Z</time>
      </trkpt>
      <trkpt lat="43.660644" lon="-7.884426">
        <ele>16.379</ele>
        <time>2019-06-20T12:04:49Z</time>
      </trkpt>
      <trkpt lat="43.660644" lon="-7.884629">
        <ele>17.086</ele>
        <time>2019-06-20T12:04:50Z</time>
      </trkpt>
      <trkpt lat="43.660657" lon="-7.884844">
        <ele>17.760</ele>
        <time>2019-06-20T12:04:51Z</time>
      </trkpt>
      <trkpt lat="43.660674" lon="-7.885035">
        <ele>18.126</ele>
        <time>2019-06-20T12:04:52Z</time>
      </trkpt>
      <trkpt lat="43.660685" lon="-7.885233">
        <ele>17.708</ele>
        <time>2019-06-20T12:04:53Z</time>
      </trkpt>
      <trkpt lat="43.660703" lon="-7.885421">
        <ele>17.251</ele>
        <time>2019-06-20T12:04:54Z</time>
      </trkpt>
      <trkpt lat="43.660715" lon="-7.885612">
        <ele>17.025</ele>
        <time>2019-06-20T12:04:55Z</time>
      </trkpt>
      <trkpt lat="43.660709" lon="-7.885822">
        <ele>17.886</ele>
        <time>2019-06-20T12:04:56Z</time>
      </trkpt>
      <trkpt lat="43.660704" lon="-7.886045">
        <ele>18.312</ele>
        <time>2019-06-20T12:04:57Z</time>
      </trkpt>
      <trkpt lat="43.660686" lon="-7.886262">
        <ele>18.949</ele>
        <time>2019-06-20T12:04:58Z</time>
      </trkpt>
      <trkpt lat="43.660644" lon="-7.886490">
        <ele>19.780</ele>
        <time>2019-06-20T12:04:59Z</time>
      </trkpt>
      <trkpt lat="43.660592" lon="-7.886714">
        <ele>20.542</ele>
        <time>2019-06-20T12:05:00Z</time>
      </trkpt>
      <trkpt lat="43.660541" lon="-7.886947">
        <ele>21.319</ele>
        <time>2019-06-20T12:05:01Z</time>
      </trkpt>
      <trkpt lat="43.660500" lon="-7.887187">
        <ele>22.012</ele>
        <time>2019-06-20T12:05:02Z</time>
      </trkpt>
      <trkpt lat="43.660474" lon="-7.887404">
        <ele>22.932</ele>
        <time>2019-06-20T12:05:03Z</time>
      </trkpt>
      <trkpt lat="43.660448" lon="-7.887617">
        <ele>24.605</ele>
        <time>2019-06-20T12:05:04Z</time>
      </trkpt>
      <trkpt lat="43.660452" lon="-7.887832">
        <ele>26.408</ele>
        <time>2019-06-20T12:05:05Z</time>
      </trkpt>
      <trkpt lat="43.660460" lon="-7.888063">
        <ele>27.764</ele>
        <time>2019-06-20T12:05:06Z</time>
      </trkpt>
      <trkpt lat="43.660495" lon="-7.888292">
        <ele>28.328</ele>
        <time>2019-06-20T12:05:07Z</time>
      </trkpt>
      <trkpt lat="43.660554" lon="-7.888493">
        <ele>29.749</ele>
        <time>2019-06-20T12:05:08Z</time>
      </trkpt>
      <trkpt lat="43.660637" lon="-7.888677">
        <ele>30.615</ele>
        <time>2019-06-20T12:05:09Z</time>
      </trkpt>
      <trkpt lat="43.660732" lon="-7.888855">
        <ele>31.762</ele>
        <time>2019-06-20T12:05:10Z</time>
      </trkpt>
      <trkpt lat="43.660822" lon="-7.889018">
        <ele>33.463</ele>
        <time>2019-06-20T12:05:11Z</time>
      </trkpt>
      <trkpt lat="43.660902" lon="-7.889206">
        <ele>36.985</ele>
        <time>2019-06-20T12:05:12Z</time>
      </trkpt>
      <trkpt lat="43.661019" lon="-7.889303">
        <ele>40.412</ele>
        <time>2019-06-20T12:05:13Z</time>
      </trkpt>
      <trkpt lat="43.661135" lon="-7.889393">
        <ele>44.349</ele>
        <time>2019-06-20T12:05:14Z</time>
      </trkpt>
      <trkpt lat="43.661283" lon="-7.889468">
        <ele>45.502</ele>
        <time>2019-06-20T12:05:15Z</time>
      </trkpt>
      <trkpt lat="43.661510" lon="-7.889539">
        <ele>46.722</ele>
        <time>2019-06-20T12:05:16Z</time>
      </trkpt>
      <trkpt lat="43.661687" lon="-7.889606">
        <ele>48.008</ele>
        <time>2019-06-20T12:05:17Z</time>
      </trkpt>
      <trkpt lat="43.661834" lon="-7.889666">
        <ele>46.187</ele>
        <time>2019-06-20T12:05:18Z</time>
      </trkpt>
      <trkpt lat="43.661998" lon="-7.889730">
        <ele>43.391</ele>
        <time>2019-06-20T12:05:19Z</time>
      </trkpt>
      <trkpt lat="43.662155" lon="-7.889775">
        <ele>41.722</ele>
        <time>2019-06-20T12:05:20Z</time>
      </trkpt>
      <trkpt lat="43.662335" lon="-7.889827">
        <ele>41.258</ele>
        <time>2019-06-20T12:05:21Z</time>
      </trkpt>
      <trkpt lat="43.662518" lon="-7.889856">
        <ele>41.475</ele>
        <time>2019-06-20T12:05:22Z</time>
      </trkpt>
      <trkpt lat="43.662691" lon="-7.889881">
        <ele>41.896</ele>
        <time>2019-06-20T12:05:23Z</time>
      </trkpt>
      <trkpt lat="43.662871" lon="-7.889911">
        <ele>41.818</ele>
        <time>2019-06-20T12:05:24Z</time>
      </trkpt>
      <trkpt lat="43.663039" lon="-7.889946">
        <ele>42.155</ele>
        <time>2019-06-20T12:05:25Z</time>
      </trkpt>
      <trkpt lat="43.663208" lon="-7.889966">
        <ele>42.362</ele>
        <time>2019-06-20T12:05:26Z</time>
      </trkpt>
      <trkpt lat="43.663382" lon="-7.889987">
        <ele>42.783</ele>
        <time>2019-06-20T12:05:27Z</time>
      </trkpt>
      <trkpt lat="43.663549" lon="-7.890013">
        <ele>43.211</ele>
        <time>2019-06-20T12:05:28Z</time>
      </trkpt>
      <trkpt lat="43.663720" lon="-7.890047">
        <ele>42.908</ele>
        <time>2019-06-20T12:05:29Z</time>
      </trkpt>
      <trkpt lat="43.663892" lon="-7.890080">
        <ele>42.149</ele>
        <time>2019-06-20T12:05:30Z</time>
      </trkpt>
      <trkpt lat="43.664064" lon="-7.890111">
        <ele>40.373</ele>
        <time>2019-06-20T12:05:31Z</time>
      </trkpt>
      <trkpt lat="43.664249" lon="-7.890133">
        <ele>38.854</ele>
        <time>2019-06-20T12:05:32Z</time>
      </trkpt>
      <trkpt lat="43.664407" lon="-7.890141">
        <ele>37.880</ele>
        <time>2019-06-20T12:05:33Z</time>
      </trkpt>
      <trkpt lat="43.664597" lon="-7.890138">
        <ele>37.287</ele>
        <time>2019-06-20T12:05:34Z</time>
      </trkpt>
      <trkpt lat="43.664789" lon="-7.890126">
        <ele>36.968</ele>
        <time>2019-06-20T12:05:35Z</time>
      </trkpt>
      <trkpt lat="43.664965" lon="-7.890102">
        <ele>36.860</ele>
        <time>2019-06-20T12:05:36Z</time>
      </trkpt>
      <trkpt lat="43.665130" lon="-7.890073">
        <ele>37.267</ele>
        <time>2019-06-20T12:05:37Z</time>
      </trkpt>
      <trkpt lat="43.665283" lon="-7.890033">
        <ele>37.671</ele>
        <time>2019-06-20T12:05:38Z</time>
      </trkpt>
      <trkpt lat="43.665443" lon="-7.889996">
        <ele>38.141</ele>
        <time>2019-06-20T12:05:39Z</time>
      </trkpt>
      <trkpt lat="43.665609" lon="-7.889972">
        <ele>38.615</ele>
        <time>2019-06-20T12:05:40Z</time>
      </trkpt>
      <trkpt lat="43.665748" lon="-7.889942">
        <ele>38.408</ele>
        <time>2019-06-20T12:05:41Z</time>
      </trkpt>
      <trkpt lat="43.665878" lon="-7.889951">
        <ele>37.830</ele>
        <time>2019-06-20T12:05:42Z</time>
      </trkpt>
      <trkpt lat="43.666017" lon="-7.890039">
        <ele>37.094</ele>
        <time>2019-06-20T12:05:43Z</time>
      </trkpt>
      <trkpt lat="43.666134" lon="-7.890138">
        <ele>37.025</ele>
        <time>2019-06-20T12:05:44Z</time>
      </trkpt>
      <trkpt lat="43.666262" lon="-7.890261">
        <ele>37.471</ele>
        <time>2019-06-20T12:05:45Z</time>
      </trkpt>
      <trkpt lat="43.666347" lon="-7.890390">
        <ele>38.818</ele>
        <time>2019-06-20T12:05:46Z</time>
      </trkpt>
      <trkpt lat="43.666354" lon="-7.890598">
        <ele>43.259</ele>
        <time>2019-06-20T12:05:47Z</time>
      </trkpt>
      <trkpt lat="43.666392" lon="-7.890820">
        <ele>43.831</ele>
        <time>2019-06-20T12:05:48Z</time>
      </trkpt>
      <trkpt lat="43.666433" lon="-7.891034">
        <ele>43.318</ele>
        <time>2019-06-20T12:05:49Z</time>
      </trkpt>
      <trkpt lat="43.666425" lon="-7.891267">
        <ele>42.388</ele>
        <time>2019-06-20T12:05:50Z</time>
      </trkpt>
      <trkpt lat="43.666265" lon="-7.891473">
        <ele>43.824</ele>
        <time>2019-06-20T12:05:51Z</time>
      </trkpt>
      <trkpt lat="43.666195" lon="-7.891683">
        <ele>41.626</ele>
        <time>2019-06-20T12:05:52Z</time>
      </trkpt>
      <trkpt lat="43.666115" lon="-7.891855">
        <ele>40.908</ele>
        <time>2019-06-20T12:05:53Z</time>
      </trkpt>
      <trkpt lat="43.665987" lon="-7.892043">
        <ele>38.051</ele>
        <time>2019-06-20T12:05:54Z</time>
      </trkpt>
      <trkpt lat="43.665867" lon="-7.892219">
        <ele>34.945</ele>
        <time>2019-06-20T12:05:55Z</time>
      </trkpt>
      <trkpt lat="43.665734" lon="-7.892359">
        <ele>33.486</ele>
        <time>2019-06-20T12:05:56Z</time>
      </trkpt>
      <trkpt lat="43.665605" lon="-7.892485">
        <ele>32.082</ele>
        <time>2019-06-20T12:05:57Z</time>
      </trkpt>
      <trkpt lat="43.665493" lon="-7.892637">
        <ele>31.519</ele>
        <time>2019-06-20T12:05:58Z</time>
      </trkpt>
      <trkpt lat="43.665455" lon="-7.892798">
        <ele>30.740</ele>
        <time>2019-06-20T12:05:59Z</time>
      </trkpt>
      <trkpt lat="43.665388" lon="-7.893002">
        <ele>30.922</ele>
        <time>2019-06-20T12:06:00Z</time>
      </trkpt>
      <trkpt lat="43.665339" lon="-7.893185">
        <ele>31.259</ele>
        <time>2019-06-20T12:06:01Z</time>
      </trkpt>
      <trkpt lat="43.665307" lon="-7.893409">
        <ele>31.991</ele>
        <time>2019-06-20T12:06:02Z</time>
      </trkpt>
      <trkpt lat="43.665303" lon="-7.893637">
        <ele>32.881</ele>
        <time>2019-06-20T12:06:03Z</time>
      </trkpt>
      <trkpt lat="43.665305" lon="-7.893893">
        <ele>33.719</ele>
        <time>2019-06-20T12:06:04Z</time>
      </trkpt>
      <trkpt lat="43.665326" lon="-7.894160">
        <ele>34.508</ele>
        <time>2019-06-20T12:06:05Z</time>
      </trkpt>
      <trkpt lat="43.665327" lon="-7.894442">
        <ele>37.412</ele>
        <time>2019-06-20T12:06:06Z</time>
      </trkpt>
      <trkpt lat="43.665342" lon="-7.894687">
        <ele>40.656</ele>
        <time>2019-06-20T12:06:07Z</time>
      </trkpt>
      <trkpt lat="43.665383" lon="-7.894903">
        <ele>42.667</ele>
        <time>2019-06-20T12:06:08Z</time>
      </trkpt>
      <trkpt lat="43.665403" lon="-7.895137">
        <ele>44.373</ele>
        <time>2019-06-20T12:06:09Z</time>
      </trkpt>
      <trkpt lat="43.665455" lon="-7.895325">
        <ele>44.410</ele>
        <time>2019-06-20T12:06:10Z</time>
      </trkpt>
      <trkpt lat="43.665496" lon="-7.895528">
        <ele>44.191</ele>
        <time>2019-06-20T12:06:11Z</time>
      </trkpt>
      <trkpt lat="43.665527" lon="-7.895752">
        <ele>44.053</ele>
        <time>2019-06-20T12:06:12Z</time>
      </trkpt>
      <trkpt lat="43.665578" lon="-7.895952">
        <ele>42.580</ele>
        <time>2019-06-20T12:06:13Z</time>
      </trkpt>
      <trkpt lat="43.665643" lon="-7.896168">
        <ele>42.143</ele>
        <time>2019-06-20T12:06:14Z</time>
      </trkpt>
      <trkpt lat="43.665708" lon="-7.896376">
        <ele>42.864</ele>
        <time>2019-06-20T12:06:15Z</time>
      </trkpt>
      <trkpt lat="43.665753" lon="-7.896559">
        <ele>44.210</ele>
        <time>2019-06-20T12:06:16Z</time>
      </trkpt>
      <trkpt lat="43.665796" lon="-7.896748">
        <ele>45.508</ele>
        <time>2019-06-20T12:06:17Z</time>
      </trkpt>
      <trkpt lat="43.665853" lon="-7.896922">
        <ele>45.637</ele>
        <time>2019-06-20T12:06:18Z</time>
      </trkpt>
      <trkpt lat="43.665908" lon="-7.897076">
        <ele>45.331</ele>
        <time>2019-06-20T12:06:19Z</time>
      </trkpt>
      <trkpt lat="43.665950" lon="-7.897244">
        <ele>44.982</ele>
        <time>2019-06-20T12:06:20Z</time>
      </trkpt>
      <trkpt lat="43.665992" lon="-7.897400">
        <ele>44.488</ele>
        <time>2019-06-20T12:06:21Z</time>
      </trkpt>
      <trkpt lat="43.666065" lon="-7.897530">
        <ele>43.345</ele>
        <time>2019-06-20T12:06:22Z</time>
      </trkpt>
      <trkpt lat="43.666142" lon="-7.897673">
        <ele>42.386</ele>
        <time>2019-06-20T12:06:23Z</time>
      </trkpt>
      <trkpt lat="43.666208" lon="-7.897839">
        <ele>41.988</ele>
        <time>2019-06-20T12:06:24Z</time>
      </trkpt>
      <trkpt lat="43.666273" lon="-7.897988">
        <ele>41.585</ele>
        <time>2019-06-20T12:06:25Z</time>
      </trkpt>
      <trkpt lat="43.666331" lon="-7.898133">
        <ele>41.364</ele>
        <time>2019-06-20T12:06:26Z</time>
      </trkpt>
      <trkpt lat="43.666393" lon="-7.898292">
        <ele>41.306</ele>
        <time>2019-06-20T12:06:27Z</time>
      </trkpt>
      <trkpt lat="43.666467" lon="-7.898463">
        <ele>41.316</ele>
        <time>2019-06-20T12:06:28Z</time>
      </trkpt>
      <trkpt lat="43.666540" lon="-7.898654">
        <ele>41.308</ele>
        <time>2019-06-20T12:06:29Z</time>
      </trkpt>
      <trkpt lat="43.666618" lon="-7.898825">
        <ele>39.819</ele>
        <time>2019-06-20T12:06:30Z</time>
      </trkpt>
      <trkpt lat="43.666700" lon="-7.899019">
        <ele>38.773</ele>
        <time>2019-06-20T12:06:31Z</time>
      </trkpt>
      <trkpt lat="43.666767" lon="-7.899236">
        <ele>38.664</ele>
        <time>2019-06-20T12:06:32Z</time>
      </trkpt>
      <trkpt lat="43.666840" lon="-7.899442">
        <ele>38.220</ele>
        <time>2019-06-20T12:06:33Z</time>
      </trkpt>
      <trkpt lat="43.666919" lon="-7.899660">
        <ele>37.547</ele>
        <time>2019-06-20T12:06:34Z</time>
      </trkpt>
      <trkpt lat="43.667021" lon="-7.899871">
        <ele>34.328</ele>
        <time>2019-06-20T12:06:35Z</time>
      </trkpt>
      <trkpt lat="43.667086" lon="-7.900085">
        <ele>32.080</ele>
        <time>2019-06-20T12:06:36Z</time>
      </trkpt>
      <trkpt lat="43.667175" lon="-7.900306">
        <ele>28.857</ele>
        <time>2019-06-20T12:06:37Z</time>
      </trkpt>
      <trkpt lat="43.667250" lon="-7.900514">
        <ele>26.043</ele>
        <time>2019-06-20T12:06:38Z</time>
      </trkpt>
      <trkpt lat="43.667346" lon="-7.900726">
        <ele>24.664</ele>
        <time>2019-06-20T12:06:39Z</time>
      </trkpt>
      <trkpt lat="43.667470" lon="-7.900918">
        <ele>24.310</ele>
        <time>2019-06-20T12:06:40Z</time>
      </trkpt>
      <trkpt lat="43.667588" lon="-7.901112">
        <ele>25.308</ele>
        <time>2019-06-20T12:06:41Z</time>
      </trkpt>
      <trkpt lat="43.667722" lon="-7.901280">
        <ele>27.017</ele>
        <time>2019-06-20T12:06:42Z</time>
      </trkpt>
      <trkpt lat="43.667872" lon="-7.901453">
        <ele>27.861</ele>
        <time>2019-06-20T12:06:43Z</time>
      </trkpt>
      <trkpt lat="43.668019" lon="-7.901597">
        <ele>27.852</ele>
        <time>2019-06-20T12:06:44Z</time>
      </trkpt>
      <trkpt lat="43.668139" lon="-7.901724">
        <ele>25.528</ele>
        <time>2019-06-20T12:06:45Z</time>
      </trkpt>
      <trkpt lat="43.668271" lon="-7.901860">
        <ele>22.245</ele>
        <time>2019-06-20T12:06:46Z</time>
      </trkpt>
      <trkpt lat="43.668397" lon="-7.901986">
        <ele>20.236</ele>
        <time>2019-06-20T12:06:47Z</time>
      </trkpt>
      <trkpt lat="43.668518" lon="-7.902116">
        <ele>19.038</ele>
        <time>2019-06-20T12:06:48Z</time>
      </trkpt>
      <trkpt lat="43.668647" lon="-7.902249">
        <ele>18.265</ele>
        <time>2019-06-20T12:06:49Z</time>
      </trkpt>
      <trkpt lat="43.668760" lon="-7.902393">
        <ele>19.329</ele>
        <time>2019-06-20T12:06:50Z</time>
      </trkpt>
      <trkpt lat="43.668894" lon="-7.902540">
        <ele>20.400</ele>
        <time>2019-06-20T12:06:51Z</time>
      </trkpt>
      <trkpt lat="43.669025" lon="-7.902684">
        <ele>20.520</ele>
        <time>2019-06-20T12:06:52Z</time>
      </trkpt>
      <trkpt lat="43.669154" lon="-7.902827">
        <ele>20.308</ele>
        <time>2019-06-20T12:06:53Z</time>
      </trkpt>
      <trkpt lat="43.669297" lon="-7.902971">
        <ele>20.375</ele>
        <time>2019-06-20T12:06:54Z</time>
      </trkpt>
      <trkpt lat="43.669426" lon="-7.903123">
        <ele>21.339</ele>
        <time>2019-06-20T12:06:55Z</time>
      </trkpt>
      <trkpt lat="43.669559" lon="-7.903273">
        <ele>20.590</ele>
        <time>2019-06-20T12:06:56Z</time>
      </trkpt>
      <trkpt lat="43.669663" lon="-7.903435">
        <ele>19.446</ele>
        <time>2019-06-20T12:06:57Z</time>
      </trkpt>
      <trkpt lat="43.669747" lon="-7.903612">
        <ele>17.453</ele>
        <time>2019-06-20T12:06:58Z</time>
      </trkpt>
      <trkpt lat="43.669813" lon="-7.903798">
        <ele>15.924</ele>
        <time>2019-06-20T12:06:59Z</time>
      </trkpt>
      <trkpt lat="43.669900" lon="-7.903986">
        <ele>14.756</ele>
        <time>2019-06-20T12:07:00Z</time>
      </trkpt>
      <trkpt lat="43.669978" lon="-7.904175">
        <ele>14.583</ele>
        <time>2019-06-20T12:07:01Z</time>
      </trkpt>
      <trkpt lat="43.670051" lon="-7.904358">
        <ele>15.043</ele>
        <time>2019-06-20T12:07:02Z</time>
      </trkpt>
      <trkpt lat="43.670125" lon="-7.904528">
        <ele>14.564</ele>
        <time>2019-06-20T12:07:03Z</time>
      </trkpt>
      <trkpt lat="43.670198" lon="-7.904695">
        <ele>13.010</ele>
        <time>2019-06-20T12:07:04Z</time>
      </trkpt>
      <trkpt lat="43.670258" lon="-7.904859">
        <ele>11.408</ele>
        <time>2019-06-20T12:07:05Z</time>
      </trkpt>
      <trkpt lat="43.670314" lon="-7.905024">
        <ele>10.847</ele>
        <time>2019-06-20T12:07:06Z</time>
      </trkpt>
      <trkpt lat="43.670343" lon="-7.905183">
        <ele>10.041</ele>
        <time>2019-06-20T12:07:07Z</time>
      </trkpt>
      <trkpt lat="43.670344" lon="-7.905334">
        <ele>9.332</ele>
        <time>2019-06-20T12:07:08Z</time>
      </trkpt>
      <trkpt lat="43.670341" lon="-7.905493">
        <ele>8.638</ele>
        <time>2019-06-20T12:07:09Z</time>
      </trkpt>
      <trkpt lat="43.670319" lon="-7.905645">
        <ele>8.285</ele>
        <time>2019-06-20T12:07:10Z</time>
      </trkpt>
      <trkpt lat="43.670275" lon="-7.905794">
        <ele>8.266</ele>
        <time>2019-06-20T12:07:11Z</time>
      </trkpt>
      <trkpt lat="43.670216" lon="-7.905928">
        <ele>8.098</ele>
        <time>2019-06-20T12:07:12Z</time>
      </trkpt>
      <trkpt lat="43.670132" lon="-7.906025">
        <ele>8.075</ele>
        <time>2019-06-20T12:07:13Z</time>
      </trkpt>
      <trkpt lat="43.670045" lon="-7.906116">
        <ele>7.833</ele>
        <time>2019-06-20T12:07:14Z</time>
      </trkpt>
      <trkpt lat="43.669948" lon="-7.906182">
        <ele>7.223</ele>
        <time>2019-06-20T12:07:15Z</time>
      </trkpt>
      <trkpt lat="43.669851" lon="-7.906237">
        <ele>6.315</ele>
        <time>2019-06-20T12:07:16Z</time>
      </trkpt>
      <trkpt lat="43.669746" lon="-7.906279">
        <ele>5.508</ele>
        <time>2019-06-20T12:07:17Z</time>
      </trkpt>
      <trkpt lat="43.669649" lon="-7.906313">
        <ele>5.236</ele>
        <time>2019-06-20T12:07:18Z</time>
      </trkpt>
      <trkpt lat="43.669554" lon="-7.906379">
        <ele>5.060</ele>
        <time>2019-06-20T12:07:19Z</time>
      </trkpt>
      <trkpt lat="43.669482" lon="-7.906462">
        <ele>5.511</ele>
        <time>2019-06-20T12:07:20Z</time>
      </trkpt>
      <trkpt lat="43.669397" lon="-7.906543">
        <ele>6.457</ele>
        <time>2019-06-20T12:07:21Z</time>
      </trkpt>
      <trkpt lat="43.669320" lon="-7.906629">
        <ele>7.234</ele>
        <time>2019-06-20T12:07:22Z</time>
      </trkpt>
      <trkpt lat="43.669253" lon="-7.906698">
        <ele>7.895</ele>
        <time>2019-06-20T12:07:23Z</time>
      </trkpt>
      <trkpt lat="43.669197" lon="-7.906775">
        <ele>8.387</ele>
        <time>2019-06-20T12:07:24Z</time>
      </trkpt>
      <trkpt lat="43.669179" lon="-7.906853">
        <ele>8.734</ele>
        <time>2019-06-20T12:07:25Z</time>
      </trkpt>
      <trkpt lat="43.669162" lon="-7.906963">
        <ele>9.174</ele>
        <time>2019-06-20T12:07:27Z</time>
      </trkpt>
      <trkpt lat="43.669183" lon="-7.907029">
        <ele>9.356</ele>
        <time>2019-06-20T12:07:29Z</time>
      </trkpt>
      <trkpt lat="43.669232" lon="-7.907072">
        <ele>9.521</ele>
        <time>2019-06-20T12:07:30Z</time>
      </trkpt>
      <trkpt lat="43.669283" lon="-7.907107">
        <ele>9.608</ele>
        <time>2019-06-20T12:07:31Z</time>
      </trkpt>
      <trkpt lat="43.669368" lon="-7.907141">
        <ele>9.760</ele>
        <time>2019-06-20T12:07:32Z</time>
      </trkpt>
      <trkpt lat="43.669420" lon="-7.907190">
        <ele>9.924</ele>
        <time>2019-06-20T12:07:33Z</time>
      </trkpt>
      <trkpt lat="43.669647" lon="-7.907258">
        <ele>8.575</ele>
        <time>2019-06-20T12:07:34Z</time>
      </trkpt>
      <trkpt lat="43.669743" lon="-7.907317">
        <ele>8.071</ele>
        <time>2019-06-20T12:07:35Z</time>
      </trkpt>
      <trkpt lat="43.670109" lon="-7.907370">
        <ele>7.628</ele>
        <time>2019-06-20T12:07:36Z</time>
      </trkpt>
      <trkpt lat="43.670184" lon="-7.907413">
        <ele>7.639</ele>
        <time>2019-06-20T12:07:37Z</time>
      </trkpt>
      <trkpt lat="43.670349" lon="-7.907477">
        <ele>7.631</ele>
        <time>2019-06-20T12:07:38Z</time>
      </trkpt>
      <trkpt lat="43.670546" lon="-7.907549">
        <ele>7.418</ele>
        <time>2019-06-20T12:07:39Z</time>
      </trkpt>
      <trkpt lat="43.670708" lon="-7.907610">
        <ele>7.819</ele>
        <time>2019-06-20T12:07:40Z</time>
      </trkpt>
      <trkpt lat="43.670861" lon="-7.907650">
        <ele>8.209</ele>
        <time>2019-06-20T12:07:41Z</time>
      </trkpt>
      <trkpt lat="43.671012" lon="-7.907680">
        <ele>8.919</ele>
        <time>2019-06-20T12:07:42Z</time>
      </trkpt>
      <trkpt lat="43.671179" lon="-7.907703">
        <ele>10.208</ele>
        <time>2019-06-20T12:07:43Z</time>
      </trkpt>
      <trkpt lat="43.671356" lon="-7.907655">
        <ele>11.894</ele>
        <time>2019-06-20T12:07:44Z</time>
      </trkpt>
      <trkpt lat="43.671509" lon="-7.907595">
        <ele>12.658</ele>
        <time>2019-06-20T12:07:45Z</time>
      </trkpt>
      <trkpt lat="43.671676" lon="-7.907515">
        <ele>12.479</ele>
        <time>2019-06-20T12:07:46Z</time>
      </trkpt>
      <trkpt lat="43.671826" lon="-7.907425">
        <ele>13.115</ele>
        <time>2019-06-20T12:07:47Z</time>
      </trkpt>
      <trkpt lat="43.671985" lon="-7.907348">
        <ele>13.432</ele>
        <time>2019-06-20T12:07:48Z</time>
      </trkpt>
      <trkpt lat="43.672102" lon="-7.907244">
        <ele>14.843</ele>
        <time>2019-06-20T12:07:49Z</time>
      </trkpt>
      <trkpt lat="43.672224" lon="-7.907133">
        <ele>17.515</ele>
        <time>2019-06-20T12:07:50Z</time>
      </trkpt>
      <trkpt lat="43.672300" lon="-7.906971">
        <ele>16.532</ele>
        <time>2019-06-20T12:07:51Z</time>
      </trkpt>
      <trkpt lat="43.672400" lon="-7.906811">
        <ele>16.677</ele>
        <time>2019-06-20T12:07:52Z</time>
      </trkpt>
      <trkpt lat="43.672406" lon="-7.906588">
        <ele>13.961</ele>
        <time>2019-06-20T12:07:53Z</time>
      </trkpt>
      <trkpt lat="43.672459" lon="-7.906376">
        <ele>12.527</ele>
        <time>2019-06-20T12:07:54Z</time>
      </trkpt>
      <trkpt lat="43.672497" lon="-7.906150">
        <ele>12.108</ele>
        <time>2019-06-20T12:07:55Z</time>
      </trkpt>
      <trkpt lat="43.672557" lon="-7.905924">
        <ele>12.430</ele>
        <time>2019-06-20T12:07:56Z</time>
      </trkpt>
      <trkpt lat="43.672586" lon="-7.905694">
        <ele>12.954</ele>
        <time>2019-06-20T12:07:57Z</time>
      </trkpt>
      <trkpt lat="43.672623" lon="-7.905484">
        <ele>13.995</ele>
        <time>2019-06-20T12:07:58Z</time>
      </trkpt>
      <trkpt lat="43.672680" lon="-7.905277">
        <ele>14.931</ele>
        <time>2019-06-20T12:07:59Z</time>
      </trkpt>
      <trkpt lat="43.672716" lon="-7.905078">
        <ele>15.528</ele>
        <time>2019-06-20T12:08:00Z</time>
      </trkpt>
      <trkpt lat="43.672773" lon="-7.904874">
        <ele>15.559</ele>
        <time>2019-06-20T12:08:01Z</time>
      </trkpt>
      <trkpt lat="43.672869" lon="-7.904687">
        <ele>15.381</ele>
        <time>2019-06-20T12:08:02Z</time>
      </trkpt>
      <trkpt lat="43.672974" lon="-7.904517">
        <ele>15.788</ele>
        <time>2019-06-20T12:08:03Z</time>
      </trkpt>
      <trkpt lat="43.673087" lon="-7.904319">
        <ele>16.978</ele>
        <time>2019-06-20T12:08:04Z</time>
      </trkpt>
      <trkpt lat="43.673205" lon="-7.904148">
        <ele>18.633</ele>
        <time>2019-06-20T12:08:05Z</time>
      </trkpt>
      <trkpt lat="43.673320" lon="-7.903975">
        <ele>19.926</ele>
        <time>2019-06-20T12:08:06Z</time>
      </trkpt>
      <trkpt lat="43.673442" lon="-7.903797">
        <ele>20.108</ele>
        <time>2019-06-20T12:08:07Z</time>
      </trkpt>
      <trkpt lat="43.673555" lon="-7.903618">
        <ele>19.810</ele>
        <time>2019-06-20T12:08:08Z</time>
      </trkpt>
      <trkpt lat="43.673677" lon="-7.903441">
        <ele>18.554</ele>
        <time>2019-06-20T12:08:09Z</time>
      </trkpt>
      <trkpt lat="43.673814" lon="-7.903271">
        <ele>17.635</ele>
        <time>2019-06-20T12:08:10Z</time>
      </trkpt>
      <trkpt lat="43.673965" lon="-7.903106">
        <ele>15.911</ele>
        <time>2019-06-20T12:08:11Z</time>
      </trkpt>
      <trkpt lat="43.674125" lon="-7.902935">
        <ele>15.448</ele>
        <time>2019-06-20T12:08:12Z</time>
      </trkpt>
      <trkpt lat="43.674291" lon="-7.902774">
        <ele>14.529</ele>
        <time>2019-06-20T12:08:13Z</time>
      </trkpt>
      <trkpt lat="43.674466" lon="-7.902612">
        <ele>13.581</ele>
        <time>2019-06-20T12:08:14Z</time>
      </trkpt>
      <trkpt lat="43.674653" lon="-7.902450">
        <ele>13.648</ele>
        <time>2019-06-20T12:08:15Z</time>
      </trkpt>
      <trkpt lat="43.674833" lon="-7.902277">
        <ele>13.793</ele>
        <time>2019-06-20T12:08:16Z</time>
      </trkpt>
      <trkpt lat="43.675014" lon="-7.902109">
        <ele>13.765</ele>
        <time>2019-06-20T12:08:17Z</time>
      </trkpt>
      <trkpt lat="43.675193" lon="-7.901941">
        <ele>13.721</ele>
        <time>2019-06-20T12:08:18Z</time>
      </trkpt>
      <trkpt lat="43.675367" lon="-7.901770">
        <ele>13.508</ele>
        <time>2019-06-20T12:08:19Z</time>
      </trkpt>
      <trkpt lat="43.675544" lon="-7.901606">
        <ele>14.712</ele>
        <time>2019-06-20T12:08:20Z</time>
      </trkpt>
      <trkpt lat="43.675711" lon="-7.901437">
        <ele>14.626</ele>
        <time>2019-06-20T12:08:21Z</time>
      </trkpt>
      <trkpt lat="43.675892" lon="-7.901276">
        <ele>14.867</ele>
        <time>2019-06-20T12:08:22Z</time>
      </trkpt>
      <trkpt lat="43.676064" lon="-7.901111">
        <ele>14.293</ele>
        <time>2019-06-20T12:08:23Z</time>
      </trkpt>
      <trkpt lat="43.676239" lon="-7.900960">
        <ele>13.590</ele>
        <time>2019-06-20T12:08:24Z</time>
      </trkpt>
      <trkpt lat="43.676415" lon="-7.900801">
        <ele>13.011</ele>
        <time>2019-06-20T12:08:25Z</time>
      </trkpt>
      <trkpt lat="43.676585" lon="-7.900644">
        <ele>13.083</ele>
        <time>2019-06-20T12:08:26Z</time>
      </trkpt>
      <trkpt lat="43.676751" lon="-7.900489">
        <ele>13.070</ele>
        <time>2019-06-20T12:08:27Z</time>
      </trkpt>
      <trkpt lat="43.676911" lon="-7.900343">
        <ele>13.015</ele>
        <time>2019-06-20T12:08:28Z</time>
      </trkpt>
      <trkpt lat="43.677079" lon="-7.900205">
        <ele>13.865</ele>
        <time>2019-06-20T12:08:29Z</time>
      </trkpt>
      <trkpt lat="43.677258" lon="-7.900067">
        <ele>14.411</ele>
        <time>2019-06-20T12:08:30Z</time>
      </trkpt>
      <trkpt lat="43.677424" lon="-7.899970">
        <ele>14.608</ele>
        <time>2019-06-20T12:08:31Z</time>
      </trkpt>
      <trkpt lat="43.677591" lon="-7.899851">
        <ele>15.684</ele>
        <time>2019-06-20T12:08:32Z</time>
      </trkpt>
      <trkpt lat="43.677769" lon="-7.899787">
        <ele>17.918</ele>
        <time>2019-06-20T12:08:33Z</time>
      </trkpt>
      <trkpt lat="43.677931" lon="-7.899769">
        <ele>20.259</ele>
        <time>2019-06-20T12:08:34Z</time>
      </trkpt>
      <trkpt lat="43.678075" lon="-7.899815">
        <ele>22.115</ele>
        <time>2019-06-20T12:08:35Z</time>
      </trkpt>
      <trkpt lat="43.678197" lon="-7.899828">
        <ele>23.032</ele>
        <time>2019-06-20T12:08:36Z</time>
      </trkpt>
      <trkpt lat="43.678329" lon="-7.899840">
        <ele>24.023</ele>
        <time>2019-06-20T12:08:37Z</time>
      </trkpt>
      <trkpt lat="43.678424" lon="-7.899855">
        <ele>24.245</ele>
        <time>2019-06-20T12:08:38Z</time>
      </trkpt>
      <trkpt lat="43.678541" lon="-7.899869">
        <ele>24.412</ele>
        <time>2019-06-20T12:08:39Z</time>
      </trkpt>
      <trkpt lat="43.678666" lon="-7.899881">
        <ele>25.069</ele>
        <time>2019-06-20T12:08:40Z</time>
      </trkpt>
      <trkpt lat="43.678803" lon="-7.899884">
        <ele>26.504</ele>
        <time>2019-06-20T12:08:41Z</time>
      </trkpt>
      <trkpt lat="43.678932" lon="-7.899881">
        <ele>27.724</ele>
        <time>2019-06-20T12:08:42Z</time>
      </trkpt>
      <trkpt lat="43.679065" lon="-7.899881">
        <ele>28.708</ele>
        <time>2019-06-20T12:08:43Z</time>
      </trkpt>
      <trkpt lat="43.679196" lon="-7.899883">
        <ele>29.649</ele>
        <time>2019-06-20T12:08:44Z</time>
      </trkpt>
      <trkpt lat="43.679344" lon="-7.899886">
        <ele>30.763</ele>
        <time>2019-06-20T12:08:45Z</time>
      </trkpt>
      <trkpt lat="43.679472" lon="-7.899881">
        <ele>31.644</ele>
        <time>2019-06-20T12:08:46Z</time>
      </trkpt>
      <trkpt lat="43.679622" lon="-7.899879">
        <ele>32.470</ele>
        <time>2019-06-20T12:08:47Z</time>
      </trkpt>
      <trkpt lat="43.679781" lon="-7.899880">
        <ele>33.087</ele>
        <time>2019-06-20T12:08:48Z</time>
      </trkpt>
      <trkpt lat="43.679933" lon="-7.899871">
        <ele>33.358</ele>
        <time>2019-06-20T12:08:49Z</time>
      </trkpt>
      <trkpt lat="43.680084" lon="-7.899866">
        <ele>33.370</ele>
        <time>2019-06-20T12:08:50Z</time>
      </trkpt>
      <trkpt lat="43.680216" lon="-7.899862">
        <ele>33.137</ele>
        <time>2019-06-20T12:08:51Z</time>
      </trkpt>
      <trkpt lat="43.680363" lon="-7.899860">
        <ele>33.314</ele>
        <time>2019-06-20T12:08:52Z</time>
      </trkpt>
      <trkpt lat="43.680513" lon="-7.899860">
        <ele>33.854</ele>
        <time>2019-06-20T12:08:53Z</time>
      </trkpt>
      <trkpt lat="43.680663" lon="-7.899862">
        <ele>34.409</ele>
        <time>2019-06-20T12:08:54Z</time>
      </trkpt>
      <trkpt lat="43.680800" lon="-7.899861">
        <ele>34.908</ele>
        <time>2019-06-20T12:08:55Z</time>
      </trkpt>
      <trkpt lat="43.680946" lon="-7.899855">
        <ele>35.434</ele>
        <time>2019-06-20T12:08:56Z</time>
      </trkpt>
      <trkpt lat="43.681063" lon="-7.899846">
        <ele>35.818</ele>
        <time>2019-06-20T12:08:57Z</time>
      </trkpt>
      <trkpt lat="43.681178" lon="-7.899828">
        <ele>35.859</ele>
        <time>2019-06-20T12:08:58Z</time>
      </trkpt>
      <trkpt lat="43.681297" lon="-7.899792">
        <ele>35.325</ele>
        <time>2019-06-20T12:08:59Z</time>
      </trkpt>
      <trkpt lat="43.681419" lon="-7.899729">
        <ele>34.962</ele>
        <time>2019-06-20T12:09:00Z</time>
      </trkpt>
      <trkpt lat="43.681520" lon="-7.899647">
        <ele>34.593</ele>
        <time>2019-06-20T12:09:01Z</time>
      </trkpt>
      <trkpt lat="43.681588" lon="-7.899545">
        <ele>34.325</ele>
        <time>2019-06-20T12:09:02Z</time>
      </trkpt>
      <trkpt lat="43.681721" lon="-7.899383">
        <ele>34.222</ele>
        <time>2019-06-20T12:09:03Z</time>
      </trkpt>
      <trkpt lat="43.681761" lon="-7.899157">
        <ele>34.751</ele>
        <time>2019-06-20T12:09:04Z</time>
      </trkpt>
      <trkpt lat="43.681855" lon="-7.898967">
        <ele>34.301</ele>
        <time>2019-06-20T12:09:05Z</time>
      </trkpt>
      <trkpt lat="43.681931" lon="-7.898779">
        <ele>33.711</ele>
        <time>2019-06-20T12:09:06Z</time>
      </trkpt>
      <trkpt lat="43.682034" lon="-7.898584">
        <ele>31.508</ele>
        <time>2019-06-20T12:09:07Z</time>
      </trkpt>
      <trkpt lat="43.682141" lon="-7.898367">
        <ele>29.098</ele>
        <time>2019-06-20T12:09:08Z</time>
      </trkpt>
      <trkpt lat="43.682238" lon="-7.898140">
        <ele>26.462</ele>
        <time>2019-06-20T12:09:09Z</time>
      </trkpt>
      <trkpt lat="43.682328" lon="-7.897905">
        <ele>24.013</ele>
        <time>2019-06-20T12:09:10Z</time>
      </trkpt>
      <trkpt lat="43.682404" lon="-7.897643">
        <ele>22.559</ele>
        <time>2019-06-20T12:09:11Z</time>
      </trkpt>
      <trkpt lat="43.682521" lon="-7.897400">
        <ele>21.586</ele>
        <time>2019-06-20T12:09:12Z</time>
      </trkpt>
      <trkpt lat="43.682612" lon="-7.897137">
        <ele>19.257</ele>
        <time>2019-06-20T12:09:13Z</time>
      </trkpt>
      <trkpt lat="43.682725" lon="-7.896880">
        <ele>16.119</ele>
        <time>2019-06-20T12:09:14Z</time>
      </trkpt>
      <trkpt lat="43.682826" lon="-7.896623">
        <ele>13.776</ele>
        <time>2019-06-20T12:09:15Z</time>
      </trkpt>
      <trkpt lat="43.682932" lon="-7.896364">
        <ele>12.425</ele>
        <time>2019-06-20T12:09:16Z</time>
      </trkpt>
      <trkpt lat="43.683036" lon="-7.896121">
        <ele>11.226</ele>
        <time>2019-06-20T12:09:17Z</time>
      </trkpt>
      <trkpt lat="43.683164" lon="-7.895903">
        <ele>10.908</ele>
        <time>2019-06-20T12:09:18Z</time>
      </trkpt>
      <trkpt lat="43.683274" lon="-7.895707">
        <ele>11.108</ele>
        <time>2019-06-20T12:09:19Z</time>
      </trkpt>
      <trkpt lat="43.683391" lon="-7.895500">
        <ele>10.625</ele>
        <time>2019-06-20T12:09:20Z</time>
      </trkpt>
      <trkpt lat="43.683544" lon="-7.895425">
        <ele>9.819</ele>
        <time>2019-06-20T12:09:21Z</time>
      </trkpt>
      <trkpt lat="43.683717" lon="-7.895302">
        <ele>8.730</ele>
        <time>2019-06-20T12:09:22Z</time>
      </trkpt>
      <trkpt lat="43.683877" lon="-7.895154">
        <ele>7.686</ele>
        <time>2019-06-20T12:09:23Z</time>
      </trkpt>
      <trkpt lat="43.684076" lon="-7.895014">
        <ele>6.323</ele>
        <time>2019-06-20T12:09:24Z</time>
      </trkpt>
      <trkpt lat="43.684310" lon="-7.894868">
        <ele>5.764</ele>
        <time>2019-06-20T12:09:25Z</time>
      </trkpt>
      <trkpt lat="43.684528" lon="-7.894741">
        <ele>6.076</ele>
        <time>2019-06-20T12:09:26Z</time>
      </trkpt>
      <trkpt lat="43.684750" lon="-7.894622">
        <ele>5.783</ele>
        <time>2019-06-20T12:09:27Z</time>
      </trkpt>
      <trkpt lat="43.684983" lon="-7.894525">
        <ele>6.258</ele>
        <time>2019-06-20T12:09:28Z</time>
      </trkpt>
      <trkpt lat="43.685208" lon="-7.894433">
        <ele>6.052</ele>
        <time>2019-06-20T12:09:29Z</time>
      </trkpt>
      <trkpt lat="43.685404" lon="-7.894369">
        <ele>5.717</ele>
        <time>2019-06-20T12:09:30Z</time>
      </trkpt>
      <trkpt lat="43.685624" lon="-7.894296">
        <ele>5.608</ele>
        <time>2019-06-20T12:09:31Z</time>
      </trkpt>
      <trkpt lat="43.685824" lon="-7.894215">
        <ele>6.048</ele>
        <time>2019-06-20T12:09:32Z</time>
      </trkpt>
      <trkpt lat="43.686033" lon="-7.894149">
        <ele>6.782</ele>
        <time>2019-06-20T12:09:33Z</time>
      </trkpt>
      <trkpt lat="43.686157" lon="-7.894051">
        <ele>7.583</ele>
        <time>2019-06-20T12:09:34Z</time>
      </trkpt>
      <trkpt lat="43.686373" lon="-7.893981">
        <ele>8.069</ele>
        <time>2019-06-20T12:09:35Z</time>
      </trkpt>
      <trkpt lat="43.686585" lon="-7.893911">
        <ele>8.046</ele>
        <time>2019-06-20T12:09:36Z</time>
      </trkpt>
      <trkpt lat="43.686791" lon="-7.893850">
        <ele>7.087</ele>
        <time>2019-06-20T12:09:37Z</time>
      </trkpt>
      <trkpt lat="43.686962" lon="-7.893754">
        <ele>5.569</ele>
        <time>2019-06-20T12:09:38Z</time>
      </trkpt>
      <trkpt lat="43.687156" lon="-7.893689">
        <ele>5.846</ele>
        <time>2019-06-20T12:09:39Z</time>
      </trkpt>
      <trkpt lat="43.687356" lon="-7.893634">
        <ele>6.582</ele>
        <time>2019-06-20T12:09:40Z</time>
      </trkpt>
      <trkpt lat="43.687558" lon="-7.893582">
        <ele>7.143</ele>
        <time>2019-06-20T12:09:41Z</time>
      </trkpt>
      <trkpt lat="43.687730" lon="-7.893512">
        <ele>7.217</ele>
        <time>2019-06-20T12:09:42Z</time>
      </trkpt>
      <trkpt lat="43.687915" lon="-7.893447">
        <ele>6.808</ele>
        <time>2019-06-20T12:09:43Z</time>
      </trkpt>
      <trkpt lat="43.688059" lon="-7.893345">
        <ele>6.131</ele>
        <time>2019-06-20T12:09:44Z</time>
      </trkpt>
      <trkpt lat="43.688231" lon="-7.893269">
        <ele>6.445</ele>
        <time>2019-06-20T12:09:45Z</time>
      </trkpt>
      <trkpt lat="43.688410" lon="-7.893212">
        <ele>6.866</ele>
        <time>2019-06-20T12:09:46Z</time>
      </trkpt>
      <trkpt lat="43.688606" lon="-7.893196">
        <ele>7.592</ele>
        <time>2019-06-20T12:09:47Z</time>
      </trkpt>
      <trkpt lat="43.688781" lon="-7.893146">
        <ele>6.719</ele>
        <time>2019-06-20T12:09:48Z</time>
      </trkpt>
      <trkpt lat="43.688943" lon="-7.893071">
        <ele>6.020</ele>
        <time>2019-06-20T12:09:49Z</time>
      </trkpt>
      <trkpt lat="43.689107" lon="-7.893018">
        <ele>6.082</ele>
        <time>2019-06-20T12:09:50Z</time>
      </trkpt>
      <trkpt lat="43.689268" lon="-7.892963">
        <ele>6.019</ele>
        <time>2019-06-20T12:09:51Z</time>
      </trkpt>
      <trkpt lat="43.689342" lon="-7.892878">
        <ele>6.017</ele>
        <time>2019-06-20T12:09:52Z</time>
      </trkpt>
      <trkpt lat="43.689507" lon="-7.892848">
        <ele>6.187</ele>
        <time>2019-06-20T12:09:53Z</time>
      </trkpt>
      <trkpt lat="43.689663" lon="-7.892804">
        <ele>6.615</ele>
        <time>2019-06-20T12:09:54Z</time>
      </trkpt>
      <trkpt lat="43.689823" lon="-7.892761">
        <ele>6.608</ele>
        <time>2019-06-20T12:09:55Z</time>
      </trkpt>
      <trkpt lat="43.689993" lon="-7.892738">
        <ele>6.064</ele>
        <time>2019-06-20T12:09:56Z</time>
      </trkpt>
      <trkpt lat="43.690118" lon="-7.892667">
        <ele>6.098</ele>
        <time>2019-06-20T12:09:57Z</time>
      </trkpt>
      <trkpt lat="43.690263" lon="-7.892601">
        <ele>6.029</ele>
        <time>2019-06-20T12:09:58Z</time>
      </trkpt>
      <trkpt lat="43.690385" lon="-7.892534">
        <ele>5.775</ele>
        <time>2019-06-20T12:09:59Z</time>
      </trkpt>
      <trkpt lat="43.690481" lon="-7.892399">
        <ele>5.342</ele>
        <time>2019-06-20T12:10:00Z</time>
      </trkpt>
      <trkpt lat="43.690567" lon="-7.892154">
        <ele>5.073</ele>
        <time>2019-06-20T12:10:01Z</time>
      </trkpt>
      <trkpt lat="43.690674" lon="-7.891970">
        <ele>5.045</ele>
        <time>2019-06-20T12:10:02Z</time>
      </trkpt>
      <trkpt lat="43.690775" lon="-7.891797">
        <ele>5.412</ele>
        <time>2019-06-20T12:10:03Z</time>
      </trkpt>
      <trkpt lat="43.690872" lon="-7.891604">
        <ele>6.064</ele>
        <time>2019-06-20T12:10:04Z</time>
      </trkpt>
      <trkpt lat="43.690969" lon="-7.891411">
        <ele>6.506</ele>
        <time>2019-06-20T12:10:05Z</time>
      </trkpt>
      <trkpt lat="43.691063" lon="-7.891240">
        <ele>7.316</ele>
        <time>2019-06-20T12:10:06Z</time>
      </trkpt>
      <trkpt lat="43.691143" lon="-7.891075">
        <ele>8.208</ele>
        <time>2019-06-20T12:10:07Z</time>
      </trkpt>
      <trkpt lat="43.691206" lon="-7.890907">
        <ele>9.119</ele>
        <time>2019-06-20T12:10:08Z</time>
      </trkpt>
      <trkpt lat="43.691232" lon="-7.890738">
        <ele>9.643</ele>
        <time>2019-06-20T12:10:09Z</time>
      </trkpt>
      <trkpt lat="43.691287" lon="-7.890603">
        <ele>10.244</ele>
        <time>2019-06-20T12:10:10Z</time>
      </trkpt>
      <trkpt lat="43.691353" lon="-7.890481">
        <ele>10.890</ele>
        <time>2019-06-20T12:10:11Z</time>
      </trkpt>
      <trkpt lat="43.691402" lon="-7.890377">
        <ele>11.077</ele>
        <time>2019-06-20T12:10:12Z</time>
      </trkpt>
      <trkpt lat="43.691443" lon="-7.890275">
        <ele>11.098</ele>
        <time>2019-06-20T12:10:13Z</time>
      </trkpt>
      <trkpt lat="43.691485" lon="-7.890172">
        <ele>11.030</ele>
        <time>2019-06-20T12:10:14Z</time>
      </trkpt>
      <trkpt lat="43.691522" lon="-7.890039">
        <ele>11.037</ele>
        <time>2019-06-20T12:10:15Z</time>
      </trkpt>
      <trkpt lat="43.691534" lon="-7.889920">
        <ele>11.358</ele>
        <time>2019-06-20T12:10:16Z</time>
      </trkpt>
      <trkpt lat="43.691553" lon="-7.889789">
        <ele>11.852</ele>
        <time>2019-06-20T12:10:17Z</time>
      </trkpt>
      <trkpt lat="43.691556" lon="-7.889627">
        <ele>12.717</ele>
        <time>2019-06-20T12:10:18Z</time>
      </trkpt>
      <trkpt lat="43.691538" lon="-7.889502">
        <ele>13.608</ele>
        <time>2019-06-20T12:10:19Z</time>
      </trkpt>
      <trkpt lat="43.691525" lon="-7.889360">
        <ele>15.218</ele>
        <time>2019-06-20T12:10:20Z</time>
      </trkpt>
      <trkpt lat="43.691581" lon="-7.889235">
        <ele>17.022</ele>
        <time>2019-06-20T12:10:21Z</time>
      </trkpt>
      <trkpt lat="43.691607" lon="-7.889111">
        <ele>18.633</ele>
        <time>2019-06-20T12:10:22Z</time>
      </trkpt>
      <trkpt lat="43.691631" lon="-7.889049">
        <ele>19.349</ele>
        <time>2019-06-20T12:10:23Z</time>
      </trkpt>
      <trkpt lat="43.691665" lon="-7.888965">
        <ele>20.286</ele>
        <time>2019-06-20T12:10:24Z</time>
      </trkpt>
      <trkpt lat="43.691813" lon="-7.888930">
        <ele>21.177</ele>
        <time>2019-06-20T12:10:25Z</time>
      </trkpt>
      <trkpt lat="43.692001" lon="-7.888942">
        <ele>22.089</ele>
        <time>2019-06-20T12:10:26Z</time>
      </trkpt>
      <trkpt lat="43.692120" lon="-7.888902">
        <ele>23.856</ele>
        <time>2019-06-20T12:10:27Z</time>
      </trkpt>
      <trkpt lat="43.692251" lon="-7.888848">
        <ele>25.212</ele>
        <time>2019-06-20T12:10:28Z</time>
      </trkpt>
      <trkpt lat="43.692376" lon="-7.888787">
        <ele>26.332</ele>
        <time>2019-06-20T12:10:29Z</time>
      </trkpt>
      <trkpt lat="43.692477" lon="-7.888664">
        <ele>27.605</ele>
        <time>2019-06-20T12:10:30Z</time>
      </trkpt>
      <trkpt lat="43.692566" lon="-7.888523">
        <ele>29.108</ele>
        <time>2019-06-20T12:10:31Z</time>
      </trkpt>
      <trkpt lat="43.692650" lon="-7.888381">
        <ele>30.964</ele>
        <time>2019-06-20T12:10:32Z</time>
      </trkpt>
      <trkpt lat="43.692652" lon="-7.888189">
        <ele>31.918</ele>
        <time>2019-06-20T12:10:33Z</time>
      </trkpt>
      <trkpt lat="43.692692" lon="-7.887983">
        <ele>33.629</ele>
        <time>2019-06-20T12:10:34Z</time>
      </trkpt>
      <trkpt lat="43.692731" lon="-7.887786">
        <ele>35.435</ele>
        <time>2019-06-20T12:10:35Z</time>
      </trkpt>
      <trkpt lat="43.692744" lon="-7.887572">
        <ele>35.842</ele>
        <time>2019-06-20T12:10:36Z</time>
      </trkpt>
      <trkpt lat="43.692768" lon="-7.887367">
        <ele>36.043</ele>
        <time>2019-06-20T12:10:37Z</time>
      </trkpt>
      <trkpt lat="43.692802" lon="-7.887159">
        <ele>35.915</ele>
        <time>2019-06-20T12:10:38Z</time>
      </trkpt>
      <trkpt lat="43.692808" lon="-7.886951">
        <ele>35.262</ele>
        <time>2019-06-20T12:10:39Z</time>
      </trkpt>
      <trkpt lat="43.692840" lon="-7.886744">
        <ele>35.354</ele>
        <time>2019-06-20T12:10:40Z</time>
      </trkpt>
      <trkpt lat="43.692863" lon="-7.886536">
        <ele>35.256</ele>
        <time>2019-06-20T12:10:41Z</time>
      </trkpt>
      <trkpt lat="43.692888" lon="-7.886320">
        <ele>34.911</ele>
        <time>2019-06-20T12:10:42Z</time>
      </trkpt>
      <trkpt lat="43.692923" lon="-7.886099">
        <ele>34.508</ele>
        <time>2019-06-20T12:10:43Z</time>
      </trkpt>
      <trkpt lat="43.692956" lon="-7.885868">
        <ele>34.978</ele>
        <time>2019-06-20T12:10:44Z</time>
      </trkpt>
      <trkpt lat="43.693005" lon="-7.885673">
        <ele>35.672</ele>
        <time>2019-06-20T12:10:45Z</time>
      </trkpt>
      <trkpt lat="43.693051" lon="-7.885433">
        <ele>36.423</ele>
        <time>2019-06-20T12:10:46Z</time>
      </trkpt>
      <trkpt lat="43.693127" lon="-7.885255">
        <ele>36.929</ele>
        <time>2019-06-20T12:10:47Z</time>
      </trkpt>
      <trkpt lat="43.693195" lon="-7.885089">
        <ele>36.786</ele>
        <time>2019-06-20T12:10:48Z</time>
      </trkpt>
      <trkpt lat="43.693286" lon="-7.884926">
        <ele>36.857</ele>
        <time>2019-06-20T12:10:49Z</time>
      </trkpt>
      <trkpt lat="43.693386" lon="-7.884757">
        <ele>37.039</ele>
        <time>2019-06-20T12:10:50Z</time>
      </trkpt>
      <trkpt lat="43.693483" lon="-7.884609">
        <ele>35.856</ele>
        <time>2019-06-20T12:10:51Z</time>
      </trkpt>
      <trkpt lat="43.693640" lon="-7.884567">
        <ele>35.332</ele>
        <time>2019-06-20T12:10:52Z</time>
      </trkpt>
      <trkpt lat="43.693804" lon="-7.884479">
        <ele>34.492</ele>
        <time>2019-06-20T12:10:53Z</time>
      </trkpt>
      <trkpt lat="43.693989" lon="-7.884415">
        <ele>34.711</ele>
        <time>2019-06-20T12:10:54Z</time>
      </trkpt>
      <trkpt lat="43.694154" lon="-7.884337">
        <ele>35.708</ele>
        <time>2019-06-20T12:10:55Z</time>
      </trkpt>
      <trkpt lat="43.694315" lon="-7.884245">
        <ele>37.536</ele>
        <time>2019-06-20T12:10:56Z</time>
      </trkpt>
      <trkpt lat="43.694500" lon="-7.884099">
        <ele>39.220</ele>
        <time>2019-06-20T12:10:57Z</time>
      </trkpt>
      <trkpt lat="43.694633" lon="-7.883943">
        <ele>40.991</ele>
        <time>2019-06-20T12:10:58Z</time>
      </trkpt>
      <trkpt lat="43.694752" lon="-7.883772">
        <ele>42.257</ele>
        <time>2019-06-20T12:10:59Z</time>
      </trkpt>
      <trkpt lat="43.694839" lon="-7.883549">
        <ele>42.024</ele>
        <time>2019-06-20T12:11:00Z</time>
      </trkpt>
      <trkpt lat="43.694923" lon="-7.883337">
        <ele>41.735</ele>
        <time>2019-06-20T12:11:01Z</time>
      </trkpt>
      <trkpt lat="43.695033" lon="-7.883115">
        <ele>41.597</ele>
        <time>2019-06-20T12:11:02Z</time>
      </trkpt>
      <trkpt lat="43.695168" lon="-7.882903">
        <ele>42.574</ele>
        <time>2019-06-20T12:11:03Z</time>
      </trkpt>
      <trkpt lat="43.695279" lon="-7.882680">
        <ele>43.064</ele>
        <time>2019-06-20T12:11:04Z</time>
      </trkpt>
      <trkpt lat="43.695447" lon="-7.882460">
        <ele>46.806</ele>
        <time>2019-06-20T12:11:05Z</time>
      </trkpt>
      <trkpt lat="43.695577" lon="-7.882230">
        <ele>48.916</ele>
        <time>2019-06-20T12:11:06Z</time>
      </trkpt>
      <trkpt lat="43.695712" lon="-7.882039">
        <ele>52.808</ele>
        <time>2019-06-20T12:11:07Z</time>
      </trkpt>
      <trkpt lat="43.695840" lon="-7.881858">
        <ele>54.929</ele>
        <time>2019-06-20T12:11:08Z</time>
      </trkpt>
      <trkpt lat="43.695956" lon="-7.881691">
        <ele>55.573</ele>
        <time>2019-06-20T12:11:09Z</time>
      </trkpt>
      <trkpt lat="43.696062" lon="-7.881514">
        <ele>53.054</ele>
        <time>2019-06-20T12:11:10Z</time>
      </trkpt>
      <trkpt lat="43.696105" lon="-7.881353">
        <ele>49.580</ele>
        <time>2019-06-20T12:11:11Z</time>
      </trkpt>
      <trkpt lat="43.696146" lon="-7.881153">
        <ele>48.127</ele>
        <time>2019-06-20T12:11:12Z</time>
      </trkpt>
      <trkpt lat="43.696234" lon="-7.880994">
        <ele>49.058</ele>
        <time>2019-06-20T12:11:13Z</time>
      </trkpt>
      <trkpt lat="43.696355" lon="-7.880950">
        <ele>50.970</ele>
        <time>2019-06-20T12:11:14Z</time>
      </trkpt>
      <trkpt lat="43.696520" lon="-7.880908">
        <ele>52.997</ele>
        <time>2019-06-20T12:11:15Z</time>
      </trkpt>
      <trkpt lat="43.696667" lon="-7.880837">
        <ele>54.096</ele>
        <time>2019-06-20T12:11:16Z</time>
      </trkpt>
      <trkpt lat="43.696838" lon="-7.880838">
        <ele>56.531</ele>
        <time>2019-06-20T12:11:17Z</time>
      </trkpt>
      <trkpt lat="43.697027" lon="-7.880836">
        <ele>58.124</ele>
        <time>2019-06-20T12:11:18Z</time>
      </trkpt>
      <trkpt lat="43.697242" lon="-7.880821">
        <ele>57.808</ele>
        <time>2019-06-20T12:11:19Z</time>
      </trkpt>
      <trkpt lat="43.697396" lon="-7.880787">
        <ele>58.012</ele>
        <time>2019-06-20T12:11:20Z</time>
      </trkpt>
      <trkpt lat="43.697524" lon="-7.880735">
        <ele>57.356</ele>
        <time>2019-06-20T12:11:21Z</time>
      </trkpt>
      <trkpt lat="43.697671" lon="-7.880709">
        <ele>57.557</ele>
        <time>2019-06-20T12:11:22Z</time>
      </trkpt>
      <trkpt lat="43.697804" lon="-7.880692">
        <ele>57.993</ele>
        <time>2019-06-20T12:11:23Z</time>
      </trkpt>
      <trkpt lat="43.697942" lon="-7.880683">
        <ele>57.640</ele>
        <time>2019-06-20T12:11:24Z</time>
      </trkpt>
      <trkpt lat="43.698054" lon="-7.880673">
        <ele>57.371</ele>
        <time>2019-06-20T12:11:25Z</time>
      </trkpt>
      <trkpt lat="43.698160" lon="-7.880686">
        <ele>55.573</ele>
        <time>2019-06-20T12:11:26Z</time>
      </trkpt>
      <trkpt lat="43.698314" lon="-7.880784">
        <ele>54.430</ele>
        <time>2019-06-20T12:11:27Z</time>
      </trkpt>
      <trkpt lat="43.698403" lon="-7.880940">
        <ele>54.549</ele>
        <time>2019-06-20T12:11:28Z</time>
      </trkpt>
      <trkpt lat="43.698513" lon="-7.881055">
        <ele>53.002</ele>
        <time>2019-06-20T12:11:29Z</time>
      </trkpt>
      <trkpt lat="43.698604" lon="-7.881156">
        <ele>52.222</ele>
        <time>2019-06-20T12:11:30Z</time>
      </trkpt>
      <trkpt lat="43.698690" lon="-7.881262">
        <ele>52.408</ele>
        <time>2019-06-20T12:11:31Z</time>
      </trkpt>
      <trkpt lat="43.698766" lon="-7.881377">
        <ele>52.957</ele>
        <time>2019-06-20T12:11:32Z</time>
      </trkpt>
      <trkpt lat="43.698862" lon="-7.881476">
        <ele>54.171</ele>
        <time>2019-06-20T12:11:33Z</time>
      </trkpt>
      <trkpt lat="43.698934" lon="-7.881579">
        <ele>56.582</ele>
        <time>2019-06-20T12:11:34Z</time>
      </trkpt>
      <trkpt lat="43.699013" lon="-7.881704">
        <ele>59.328</ele>
        <time>2019-06-20T12:11:35Z</time>
      </trkpt>
      <trkpt lat="43.699107" lon="-7.881825">
        <ele>60.785</ele>
        <time>2019-06-20T12:11:36Z</time>
      </trkpt>
      <trkpt lat="43.699200" lon="-7.881965">
        <ele>61.236</ele>
        <time>2019-06-20T12:11:37Z</time>
      </trkpt>
      <trkpt lat="43.699307" lon="-7.882128">
        <ele>61.838</ele>
        <time>2019-06-20T12:11:38Z</time>
      </trkpt>
      <trkpt lat="43.699415" lon="-7.882272">
        <ele>59.415</ele>
        <time>2019-06-20T12:11:39Z</time>
      </trkpt>
      <trkpt lat="43.699523" lon="-7.882428">
        <ele>57.832</ele>
        <time>2019-06-20T12:11:40Z</time>
      </trkpt>
      <trkpt lat="43.699636" lon="-7.882605">
        <ele>58.192</ele>
        <time>2019-06-20T12:11:41Z</time>
      </trkpt>
      <trkpt lat="43.699718" lon="-7.882770">
        <ele>61.811</ele>
        <time>2019-06-20T12:11:42Z</time>
      </trkpt>
      <trkpt lat="43.699824" lon="-7.882938">
        <ele>62.008</ele>
        <time>2019-06-20T12:11:43Z</time>
      </trkpt>
      <trkpt lat="43.699913" lon="-7.883116">
        <ele>61.276</ele>
        <time>2019-06-20T12:11:44Z</time>
      </trkpt>
      <trkpt lat="43.699980" lon="-7.883306">
        <ele>59.050</ele>
        <time>2019-06-20T12:11:45Z</time>
      </trkpt>
      <trkpt lat="43.700049" lon="-7.883476">
        <ele>60.191</ele>
        <time>2019-06-20T12:11:46Z</time>
      </trkpt>
      <trkpt lat="43.700122" lon="-7.883646">
        <ele>60.567</ele>
        <time>2019-06-20T12:11:47Z</time>
      </trkpt>
      <trkpt lat="43.700185" lon="-7.883805">
        <ele>59.324</ele>
        <time>2019-06-20T12:11:48Z</time>
      </trkpt>
      <trkpt lat="43.700243" lon="-7.883950">
        <ele>58.495</ele>
        <time>2019-06-20T12:11:49Z</time>
      </trkpt>
      <trkpt lat="43.700308" lon="-7.884070">
        <ele>58.457</ele>
        <time>2019-06-20T12:11:50Z</time>
      </trkpt>
      <trkpt lat="43.700373" lon="-7.884200">
        <ele>60.694</ele>
        <time>2019-06-20T12:11:51Z</time>
      </trkpt>
      <trkpt lat="43.700505" lon="-7.884269">
        <ele>62.767</ele>
        <time>2019-06-20T12:11:52Z</time>
      </trkpt>
      <trkpt lat="43.700636" lon="-7.884319">
        <ele>66.181</ele>
        <time>2019-06-20T12:11:53Z</time>
      </trkpt>
      <trkpt lat="43.700763" lon="-7.884375">
        <ele>70.419</ele>
        <time>2019-06-20T12:11:54Z</time>
      </trkpt>
      <trkpt lat="43.700904" lon="-7.884402">
        <ele>72.708</ele>
        <time>2019-06-20T12:11:55Z</time>
      </trkpt>
      <trkpt lat="43.701053" lon="-7.884353">
        <ele>71.399</ele>
        <time>2019-06-20T12:11:56Z</time>
      </trkpt>
      <trkpt lat="43.701185" lon="-7.884303">
        <ele>70.373</ele>
        <time>2019-06-20T12:11:57Z</time>
      </trkpt>
      <trkpt lat="43.701244" lon="-7.884167">
        <ele>67.074</ele>
        <time>2019-06-20T12:11:58Z</time>
      </trkpt>
      <trkpt lat="43.701335" lon="-7.884025">
        <ele>64.530</ele>
        <time>2019-06-20T12:11:59Z</time>
      </trkpt>
      <trkpt lat="43.701401" lon="-7.883751">
        <ele>59.997</ele>
        <time>2019-06-20T12:12:00Z</time>
      </trkpt>
      <trkpt lat="43.701472" lon="-7.883510">
        <ele>58.898</ele>
        <time>2019-06-20T12:12:01Z</time>
      </trkpt>
      <trkpt lat="43.701572" lon="-7.883254">
        <ele>59.990</ele>
        <time>2019-06-20T12:12:02Z</time>
      </trkpt>
      <trkpt lat="43.701682" lon="-7.883002">
        <ele>61.697</ele>
        <time>2019-06-20T12:12:03Z</time>
      </trkpt>
      <trkpt lat="43.701651" lon="-7.882754">
        <ele>57.079</ele>
        <time>2019-06-20T12:12:04Z</time>
      </trkpt>
      <trkpt lat="43.701703" lon="-7.882511">
        <ele>55.205</ele>
        <time>2019-06-20T12:12:05Z</time>
      </trkpt>
      <trkpt lat="43.701754" lon="-7.882265">
        <ele>54.025</ele>
        <time>2019-06-20T12:12:06Z</time>
      </trkpt>
      <trkpt lat="43.701793" lon="-7.882014">
        <ele>52.708</ele>
        <time>2019-06-20T12:12:07Z</time>
      </trkpt>
      <trkpt lat="43.701813" lon="-7.881756">
        <ele>52.840</ele>
        <time>2019-06-20T12:12:08Z</time>
      </trkpt>
      <trkpt lat="43.701822" lon="-7.881496">
        <ele>56.334</ele>
        <time>2019-06-20T12:12:09Z</time>
      </trkpt>
      <trkpt lat="43.701838" lon="-7.881263">
        <ele>59.945</ele>
        <time>2019-06-20T12:12:10Z</time>
      </trkpt>
      <trkpt lat="43.701837" lon="-7.881032">
        <ele>60.321</ele>
        <time>2019-06-20T12:12:11Z</time>
      </trkpt>
      <trkpt lat="43.701854" lon="-7.880802">
        <ele>59.168</ele>
        <time>2019-06-20T12:12:12Z</time>
      </trkpt>
      <trkpt lat="43.701866" lon="-7.880557">
        <ele>57.299</ele>
        <time>2019-06-20T12:12:13Z</time>
      </trkpt>
      <trkpt lat="43.701874" lon="-7.880314">
        <ele>56.811</ele>
        <time>2019-06-20T12:12:14Z</time>
      </trkpt>
      <trkpt lat="43.701942" lon="-7.880074">
        <ele>56.788</ele>
        <time>2019-06-20T12:12:15Z</time>
      </trkpt>
      <trkpt lat="43.702000" lon="-7.879821">
        <ele>55.077</ele>
        <time>2019-06-20T12:12:16Z</time>
      </trkpt>
      <trkpt lat="43.702100" lon="-7.879579">
        <ele>57.061</ele>
        <time>2019-06-20T12:12:17Z</time>
      </trkpt>
      <trkpt lat="43.702177" lon="-7.879316">
        <ele>58.727</ele>
        <time>2019-06-20T12:12:18Z</time>
      </trkpt>
      <trkpt lat="43.702306" lon="-7.879096">
        <ele>59.808</ele>
        <time>2019-06-20T12:12:19Z</time>
      </trkpt>
      <trkpt lat="43.702452" lon="-7.878891">
        <ele>59.310</ele>
        <time>2019-06-20T12:12:20Z</time>
      </trkpt>
      <trkpt lat="43.702546" lon="-7.878657">
        <ele>59.694</ele>
        <time>2019-06-20T12:12:21Z</time>
      </trkpt>
      <trkpt lat="43.702643" lon="-7.878439">
        <ele>59.545</ele>
        <time>2019-06-20T12:12:22Z</time>
      </trkpt>
      <trkpt lat="43.702743" lon="-7.878242">
        <ele>58.991</ele>
        <time>2019-06-20T12:12:23Z</time>
      </trkpt>
      <trkpt lat="43.702862" lon="-7.878069">
        <ele>56.918</ele>
        <time>2019-06-20T12:12:24Z</time>
      </trkpt>
      <trkpt lat="43.702985" lon="-7.877913">
        <ele>54.499</ele>
        <time>2019-06-20T12:12:25Z</time>
      </trkpt>
      <trkpt lat="43.703097" lon="-7.877767">
        <ele>53.321</ele>
        <time>2019-06-20T12:12:26Z</time>
      </trkpt>
      <trkpt lat="43.703233" lon="-7.877614">
        <ele>53.998</ele>
        <time>2019-06-20T12:12:27Z</time>
      </trkpt>
      <trkpt lat="43.703357" lon="-7.877467">
        <ele>53.473</ele>
        <time>2019-06-20T12:12:28Z</time>
      </trkpt>
      <trkpt lat="43.703517" lon="-7.877347">
        <ele>52.385</ele>
        <time>2019-06-20T12:12:29Z</time>
      </trkpt>
      <trkpt lat="43.703621" lon="-7.877317">
        <ele>52.913</ele>
        <time>2019-06-20T12:12:30Z</time>
      </trkpt>
      <trkpt lat="43.703747" lon="-7.877282">
        <ele>53.208</ele>
        <time>2019-06-20T12:12:31Z</time>
      </trkpt>
      <trkpt lat="43.703869" lon="-7.877230">
        <ele>52.230</ele>
        <time>2019-06-20T12:12:32Z</time>
      </trkpt>
      <trkpt lat="43.704001" lon="-7.877218">
        <ele>51.484</ele>
        <time>2019-06-20T12:12:33Z</time>
      </trkpt>
      <trkpt lat="43.704137" lon="-7.877192">
        <ele>49.875</ele>
        <time>2019-06-20T12:12:34Z</time>
      </trkpt>
      <trkpt lat="43.704304" lon="-7.877297">
        <ele>54.491</ele>
        <time>2019-06-20T12:12:35Z</time>
      </trkpt>
      <trkpt lat="43.704468" lon="-7.877360">
        <ele>54.998</ele>
        <time>2019-06-20T12:12:36Z</time>
      </trkpt>
      <trkpt lat="43.704596" lon="-7.877468">
        <ele>52.939</ele>
        <time>2019-06-20T12:12:37Z</time>
      </trkpt>
      <trkpt lat="43.704755" lon="-7.877602">
        <ele>49.011</ele>
        <time>2019-06-20T12:12:38Z</time>
      </trkpt>
      <trkpt lat="43.704879" lon="-7.877791">
        <ele>47.478</ele>
        <time>2019-06-20T12:12:39Z</time>
      </trkpt>
      <trkpt lat="43.705032" lon="-7.877908">
        <ele>42.681</ele>
        <time>2019-06-20T12:12:40Z</time>
      </trkpt>
      <trkpt lat="43.705181" lon="-7.877998">
        <ele>41.461</ele>
        <time>2019-06-20T12:12:41Z</time>
      </trkpt>
      <trkpt lat="43.705331" lon="-7.878074">
        <ele>41.217</ele>
        <time>2019-06-20T12:12:42Z</time>
      </trkpt>
      <trkpt lat="43.705492" lon="-7.878145">
        <ele>42.108</ele>
        <time>2019-06-20T12:12:43Z</time>
      </trkpt>
      <trkpt lat="43.705611" lon="-7.878241">
        <ele>43.771</ele>
        <time>2019-06-20T12:12:44Z</time>
      </trkpt>
      <trkpt lat="43.705754" lon="-7.878371">
        <ele>45.025</ele>
        <time>2019-06-20T12:12:45Z</time>
      </trkpt>
      <trkpt lat="43.705891" lon="-7.878518">
        <ele>45.376</ele>
        <time>2019-06-20T12:12:46Z</time>
      </trkpt>
      <trkpt lat="43.706026" lon="-7.878667">
        <ele>44.812</ele>
        <time>2019-06-20T12:12:47Z</time>
      </trkpt>
      <trkpt lat="43.706145" lon="-7.878801">
        <ele>45.029</ele>
        <time>2019-06-20T12:12:48Z</time>
      </trkpt>
      <trkpt lat="43.706286" lon="-7.878924">
        <ele>43.810</ele>
        <time>2019-06-20T12:12:49Z</time>
      </trkpt>
      <trkpt lat="43.706447" lon="-7.879024">
        <ele>43.472</ele>
        <time>2019-06-20T12:12:50Z</time>
      </trkpt>
      <trkpt lat="43.706617" lon="-7.879116">
        <ele>42.669</ele>
        <time>2019-06-20T12:12:51Z</time>
      </trkpt>
      <trkpt lat="43.706755" lon="-7.879184">
        <ele>42.255</ele>
        <time>2019-06-20T12:12:52Z</time>
      </trkpt>
      <trkpt lat="43.706906" lon="-7.879241">
        <ele>42.407</ele>
        <time>2019-06-20T12:12:53Z</time>
      </trkpt>
      <trkpt lat="43.707039" lon="-7.879288">
        <ele>42.417</ele>
        <time>2019-06-20T12:12:54Z</time>
      </trkpt>
      <trkpt lat="43.707175" lon="-7.879300">
        <ele>42.508</ele>
        <time>2019-06-20T12:12:55Z</time>
      </trkpt>
      <trkpt lat="43.707325" lon="-7.879191">
        <ele>42.958</ele>
        <time>2019-06-20T12:12:56Z</time>
      </trkpt>
      <trkpt lat="43.707462" lon="-7.879047">
        <ele>42.952</ele>
        <time>2019-06-20T12:12:57Z</time>
      </trkpt>
      <trkpt lat="43.707648" lon="-7.878941">
        <ele>43.123</ele>
        <time>2019-06-20T12:12:58Z</time>
      </trkpt>
      <trkpt lat="43.707817" lon="-7.878845">
        <ele>42.839</ele>
        <time>2019-06-20T12:12:59Z</time>
      </trkpt>
      <trkpt lat="43.708021" lon="-7.878790">
        <ele>43.116</ele>
        <time>2019-06-20T12:13:00Z</time>
      </trkpt>
      <trkpt lat="43.708186" lon="-7.878705">
        <ele>42.677</ele>
        <time>2019-06-20T12:13:01Z</time>
      </trkpt>
      <trkpt lat="43.708385" lon="-7.878637">
        <ele>42.899</ele>
        <time>2019-06-20T12:13:02Z</time>
      </trkpt>
      <trkpt lat="43.708581" lon="-7.878580">
        <ele>43.266</ele>
        <time>2019-06-20T12:13:03Z</time>
      </trkpt>
      <trkpt lat="43.708764" lon="-7.878503">
        <ele>42.584</ele>
        <time>2019-06-20T12:13:04Z</time>
      </trkpt>
      <trkpt lat="43.708953" lon="-7.878444">
        <ele>42.707</ele>
        <time>2019-06-20T12:13:05Z</time>
      </trkpt>
      <trkpt lat="43.709114" lon="-7.878363">
        <ele>43.017</ele>
        <time>2019-06-20T12:13:06Z</time>
      </trkpt>
      <trkpt lat="43.709300" lon="-7.878322">
        <ele>43.308</ele>
        <time>2019-06-20T12:13:07Z</time>
      </trkpt>
      <trkpt lat="43.709485" lon="-7.878267">
        <ele>42.751</ele>
        <time>2019-06-20T12:13:08Z</time>
      </trkpt>
      <trkpt lat="43.709665" lon="-7.878213">
        <ele>41.415</ele>
        <time>2019-06-20T12:13:09Z</time>
      </trkpt>
      <trkpt lat="43.709845" lon="-7.878169">
        <ele>40.916</ele>
        <time>2019-06-20T12:13:10Z</time>
      </trkpt>
      <trkpt lat="43.710009" lon="-7.878127">
        <ele>40.862</ele>
        <time>2019-06-20T12:13:11Z</time>
      </trkpt>
      <trkpt lat="43.710150" lon="-7.878066">
        <ele>40.159</ele>
        <time>2019-06-20T12:13:12Z</time>
      </trkpt>
      <trkpt lat="43.710358" lon="-7.878071">
        <ele>40.580</ele>
        <time>2019-06-20T12:13:13Z</time>
      </trkpt>
      <trkpt lat="43.710590" lon="-7.878095">
        <ele>41.332</ele>
        <time>2019-06-20T12:13:14Z</time>
      </trkpt>
      <trkpt lat="43.710793" lon="-7.878089">
        <ele>40.569</ele>
        <time>2019-06-20T12:13:15Z</time>
      </trkpt>
      <trkpt lat="43.710989" lon="-7.878083">
        <ele>38.792</ele>
        <time>2019-06-20T12:13:16Z</time>
      </trkpt>
      <trkpt lat="43.711193" lon="-7.878088">
        <ele>36.773</ele>
        <time>2019-06-20T12:13:17Z</time>
      </trkpt>
      <trkpt lat="43.711378" lon="-7.878081">
        <ele>34.720</ele>
        <time>2019-06-20T12:13:18Z</time>
      </trkpt>
      <trkpt lat="43.711550" lon="-7.878084">
        <ele>33.608</ele>
        <time>2019-06-20T12:13:19Z</time>
      </trkpt>
      <trkpt lat="43.711716" lon="-7.878072">
        <ele>31.962</ele>
        <time>2019-06-20T12:13:20Z</time>
      </trkpt>
      <trkpt lat="43.711872" lon="-7.878084">
        <ele>30.336</ele>
        <time>2019-06-20T12:13:21Z</time>
      </trkpt>
      <trkpt lat="43.712015" lon="-7.878096">
        <ele>29.367</ele>
        <time>2019-06-20T12:13:22Z</time>
      </trkpt>
      <trkpt lat="43.712144" lon="-7.878160">
        <ele>29.733</ele>
        <time>2019-06-20T12:13:23Z</time>
      </trkpt>
      <trkpt lat="43.712261" lon="-7.878241">
        <ele>30.640</ele>
        <time>2019-06-20T12:13:24Z</time>
      </trkpt>
      <trkpt lat="43.712363" lon="-7.878357">
        <ele>31.971</ele>
        <time>2019-06-20T12:13:25Z</time>
      </trkpt>
      <trkpt lat="43.712473" lon="-7.878486">
        <ele>33.513</ele>
        <time>2019-06-20T12:13:26Z</time>
      </trkpt>
      <trkpt lat="43.712616" lon="-7.878681">
        <ele>36.980</ele>
        <time>2019-06-20T12:13:27Z</time>
      </trkpt>
      <trkpt lat="43.712762" lon="-7.878849">
        <ele>40.855</ele>
        <time>2019-06-20T12:13:28Z</time>
      </trkpt>
      <trkpt lat="43.712921" lon="-7.878993">
        <ele>41.907</ele>
        <time>2019-06-20T12:13:29Z</time>
      </trkpt>
      <trkpt lat="43.713103" lon="-7.879110">
        <ele>41.817</ele>
        <time>2019-06-20T12:13:30Z</time>
      </trkpt>
      <trkpt lat="43.713257" lon="-7.879227">
        <ele>42.308</ele>
        <time>2019-06-20T12:13:31Z</time>
      </trkpt>
      <trkpt lat="43.713419" lon="-7.879340">
        <ele>43.278</ele>
        <time>2019-06-20T12:13:32Z</time>
      </trkpt>
      <trkpt lat="43.713572" lon="-7.879458">
        <ele>44.112</ele>
        <time>2019-06-20T12:13:33Z</time>
      </trkpt>
      <trkpt lat="43.713736" lon="-7.879517">
        <ele>42.883</ele>
        <time>2019-06-20T12:13:34Z</time>
      </trkpt>
      <trkpt lat="43.713881" lon="-7.879573">
        <ele>41.029</ele>
        <time>2019-06-20T12:13:35Z</time>
      </trkpt>
      <trkpt lat="43.714077" lon="-7.879596">
        <ele>35.556</ele>
        <time>2019-06-20T12:13:36Z</time>
      </trkpt>
      <trkpt lat="43.714248" lon="-7.879559">
        <ele>30.627</ele>
        <time>2019-06-20T12:13:37Z</time>
      </trkpt>
      <trkpt lat="43.714416" lon="-7.879535">
        <ele>27.469</ele>
        <time>2019-06-20T12:13:38Z</time>
      </trkpt>
      <trkpt lat="43.714622" lon="-7.879490">
        <ele>27.126</ele>
        <time>2019-06-20T12:13:39Z</time>
      </trkpt>
      <trkpt lat="43.714836" lon="-7.879434">
        <ele>28.164</ele>
        <time>2019-06-20T12:13:40Z</time>
      </trkpt>
      <trkpt lat="43.715013" lon="-7.879383">
        <ele>29.406</ele>
        <time>2019-06-20T12:13:41Z</time>
      </trkpt>
      <trkpt lat="43.715206" lon="-7.879343">
        <ele>29.616</ele>
        <time>2019-06-20T12:13:42Z</time>
      </trkpt>
      <trkpt lat="43.715395" lon="-7.879296">
        <ele>29.408</ele>
        <time>2019-06-20T12:13:43Z</time>
      </trkpt>
      <trkpt lat="43.715568" lon="-7.879236">
        <ele>29.339</ele>
        <time>2019-06-20T12:13:44Z</time>
      </trkpt>
      <trkpt lat="43.715757" lon="-7.879195">
        <ele>29.213</ele>
        <time>2019-06-20T12:13:45Z</time>
      </trkpt>
      <trkpt lat="43.715907" lon="-7.879132">
        <ele>29.494</ele>
        <time>2019-06-20T12:13:46Z</time>
      </trkpt>
      <trkpt lat="43.716080" lon="-7.879092">
        <ele>30.370</ele>
        <time>2019-06-20T12:13:47Z</time>
      </trkpt>
      <trkpt lat="43.716245" lon="-7.879074">
        <ele>30.337</ele>
        <time>2019-06-20T12:13:48Z</time>
      </trkpt>
      <trkpt lat="43.716402" lon="-7.879044">
        <ele>30.028</ele>
        <time>2019-06-20T12:13:49Z</time>
      </trkpt>
      <trkpt lat="43.716565" lon="-7.879030">
        <ele>28.430</ele>
        <time>2019-06-20T12:13:50Z</time>
      </trkpt>
      <trkpt lat="43.716735" lon="-7.879035">
        <ele>27.287</ele>
        <time>2019-06-20T12:13:51Z</time>
      </trkpt>
      <trkpt lat="43.716907" lon="-7.879122">
        <ele>27.556</ele>
        <time>2019-06-20T12:13:52Z</time>
      </trkpt>
      <trkpt lat="43.717093" lon="-7.879211">
        <ele>27.059</ele>
        <time>2019-06-20T12:13:53Z</time>
      </trkpt>
      <trkpt lat="43.717301" lon="-7.879318">
        <ele>26.814</ele>
        <time>2019-06-20T12:13:54Z</time>
      </trkpt>
      <trkpt lat="43.717441" lon="-7.879417">
        <ele>27.708</ele>
        <time>2019-06-20T12:13:55Z</time>
      </trkpt>
      <trkpt lat="43.717567" lon="-7.879530">
        <ele>28.388</ele>
        <time>2019-06-20T12:13:56Z</time>
      </trkpt>
      <trkpt lat="43.717715" lon="-7.879634">
        <ele>28.382</ele>
        <time>2019-06-20T12:13:57Z</time>
      </trkpt>
      <trkpt lat="43.717910" lon="-7.879695">
        <ele>27.723</ele>
        <time>2019-06-20T12:13:58Z</time>
      </trkpt>
      <trkpt lat="43.718071" lon="-7.879748">
        <ele>27.219</ele>
        <time>2019-06-20T12:13:59Z</time>
      </trkpt>
      <trkpt lat="43.718277" lon="-7.879759">
        <ele>27.326</ele>
        <time>2019-06-20T12:14:00Z</time>
      </trkpt>
      <trkpt lat="43.718486" lon="-7.879742">
        <ele>26.187</ele>
        <time>2019-06-20T12:14:01Z</time>
      </trkpt>
      <trkpt lat="43.718688" lon="-7.879718">
        <ele>25.519</ele>
        <time>2019-06-20T12:14:02Z</time>
      </trkpt>
      <trkpt lat="43.718880" lon="-7.879686">
        <ele>26.486</ele>
        <time>2019-06-20T12:14:03Z</time>
      </trkpt>
      <trkpt lat="43.719071" lon="-7.879645">
        <ele>26.566</ele>
        <time>2019-06-20T12:14:04Z</time>
      </trkpt>
      <trkpt lat="43.719272" lon="-7.879609">
        <ele>27.729</ele>
        <time>2019-06-20T12:14:05Z</time>
      </trkpt>
      <trkpt lat="43.719437" lon="-7.879541">
        <ele>28.621</ele>
        <time>2019-06-20T12:14:06Z</time>
      </trkpt>
      <trkpt lat="43.719628" lon="-7.879503">
        <ele>31.108</ele>
        <time>2019-06-20T12:14:07Z</time>
      </trkpt>
      <trkpt lat="43.719815" lon="-7.879468">
        <ele>32.459</ele>
        <time>2019-06-20T12:14:08Z</time>
      </trkpt>
      <trkpt lat="43.720026" lon="-7.879466">
        <ele>33.883</ele>
        <time>2019-06-20T12:14:09Z</time>
      </trkpt>
      <trkpt lat="43.720217" lon="-7.879450">
        <ele>33.234</ele>
        <time>2019-06-20T12:14:10Z</time>
      </trkpt>
      <trkpt lat="43.720419" lon="-7.879466">
        <ele>32.640</ele>
        <time>2019-06-20T12:14:11Z</time>
      </trkpt>
      <trkpt lat="43.720613" lon="-7.879486">
        <ele>31.597</ele>
        <time>2019-06-20T12:14:12Z</time>
      </trkpt>
      <trkpt lat="43.720780" lon="-7.879500">
        <ele>29.938</ele>
        <time>2019-06-20T12:14:13Z</time>
      </trkpt>
      <trkpt lat="43.720951" lon="-7.879526">
        <ele>28.340</ele>
        <time>2019-06-20T12:14:14Z</time>
      </trkpt>
      <trkpt lat="43.721111" lon="-7.879549">
        <ele>26.417</ele>
        <time>2019-06-20T12:14:15Z</time>
      </trkpt>
      <trkpt lat="43.721268" lon="-7.879575">
        <ele>27.968</ele>
        <time>2019-06-20T12:14:16Z</time>
      </trkpt>
      <trkpt lat="43.721412" lon="-7.879594">
        <ele>28.642</ele>
        <time>2019-06-20T12:14:17Z</time>
      </trkpt>
      <trkpt lat="43.721550" lon="-7.879615">
        <ele>26.826</ele>
        <time>2019-06-20T12:14:18Z</time>
      </trkpt>
      <trkpt lat="43.721688" lon="-7.879628">
        <ele>25.008</ele>
        <time>2019-06-20T12:14:19Z</time>
      </trkpt>
      <trkpt lat="43.721818" lon="-7.879645">
        <ele>22.839</ele>
        <time>2019-06-20T12:14:20Z</time>
      </trkpt>
      <trkpt lat="43.721950" lon="-7.879654">
        <ele>20.863</ele>
        <time>2019-06-20T12:14:21Z</time>
      </trkpt>
      <trkpt lat="43.722079" lon="-7.879671">
        <ele>21.054</ele>
        <time>2019-06-20T12:14:22Z</time>
      </trkpt>
      <trkpt lat="43.722199" lon="-7.879687">
        <ele>21.430</ele>
        <time>2019-06-20T12:14:23Z</time>
      </trkpt>
      <trkpt lat="43.722329" lon="-7.879707">
        <ele>20.247</ele>
        <time>2019-06-20T12:14:24Z</time>
      </trkpt>
      <trkpt lat="43.722452" lon="-7.879719">
        <ele>18.648</ele>
        <time>2019-06-20T12:14:25Z</time>
      </trkpt>
      <trkpt lat="43.722571" lon="-7.879731">
        <ele>18.830</ele>
        <time>2019-06-20T12:14:26Z</time>
      </trkpt>
      <trkpt lat="43.722687" lon="-7.879736">
        <ele>19.717</ele>
        <time>2019-06-20T12:14:27Z</time>
      </trkpt>
      <trkpt lat="43.722791" lon="-7.879719">
        <ele>20.028</ele>
        <time>2019-06-20T12:14:28Z</time>
      </trkpt>
      <trkpt lat="43.722905" lon="-7.879703">
        <ele>20.689</ele>
        <time>2019-06-20T12:14:29Z</time>
      </trkpt>
      <trkpt lat="43.723048" lon="-7.879669">
        <ele>21.017</ele>
        <time>2019-06-20T12:14:30Z</time>
      </trkpt>
      <trkpt lat="43.723163" lon="-7.879572">
        <ele>19.308</ele>
        <time>2019-06-20T12:14:31Z</time>
      </trkpt>
      <trkpt lat="43.723298" lon="-7.879517">
        <ele>18.365</ele>
        <time>2019-06-20T12:14:32Z</time>
      </trkpt>
      <trkpt lat="43.723382" lon="-7.879429">
        <ele>16.479</ele>
        <time>2019-06-20T12:14:33Z</time>
      </trkpt>
      <trkpt lat="43.723484" lon="-7.879380">
        <ele>15.020</ele>
        <time>2019-06-20T12:14:34Z</time>
      </trkpt>
      <trkpt lat="43.723632" lon="-7.879392">
        <ele>14.446</ele>
        <time>2019-06-20T12:14:35Z</time>
      </trkpt>
      <trkpt lat="43.723725" lon="-7.879360">
        <ele>14.243</ele>
        <time>2019-06-20T12:14:36Z</time>
      </trkpt>
      <trkpt lat="43.723840" lon="-7.879426">
        <ele>14.914</ele>
        <time>2019-06-20T12:14:37Z</time>
      </trkpt>
      <trkpt lat="43.723919" lon="-7.879462">
        <ele>14.866</ele>
        <time>2019-06-20T12:14:38Z</time>
      </trkpt>
      <trkpt lat="43.724008" lon="-7.879508">
        <ele>14.173</ele>
        <time>2019-06-20T12:14:39Z</time>
      </trkpt>
      <trkpt lat="43.724096" lon="-7.879525">
        <ele>13.116</ele>
        <time>2019-06-20T12:14:40Z</time>
      </trkpt>
      <trkpt lat="43.724182" lon="-7.879510">
        <ele>12.276</ele>
        <time>2019-06-20T12:14:41Z</time>
      </trkpt>
      <trkpt lat="43.724265" lon="-7.879489">
        <ele>11.813</ele>
        <time>2019-06-20T12:14:42Z</time>
      </trkpt>
      <trkpt lat="43.724365" lon="-7.879416">
        <ele>11.308</ele>
        <time>2019-06-20T12:14:43Z</time>
      </trkpt>
      <trkpt lat="43.724477" lon="-7.879347">
        <ele>11.274</ele>
        <time>2019-06-20T12:14:44Z</time>
      </trkpt>
      <trkpt lat="43.724598" lon="-7.879283">
        <ele>11.898</ele>
        <time>2019-06-20T12:14:45Z</time>
      </trkpt>
      <trkpt lat="43.724689" lon="-7.879216">
        <ele>12.019</ele>
        <time>2019-06-20T12:14:46Z</time>
      </trkpt>
      <trkpt lat="43.724806" lon="-7.879166">
        <ele>12.665</ele>
        <time>2019-06-20T12:14:47Z</time>
      </trkpt>
      <trkpt lat="43.724927" lon="-7.879133">
        <ele>13.552</ele>
        <time>2019-06-20T12:14:48Z</time>
      </trkpt>
      <trkpt lat="43.725064" lon="-7.879118">
        <ele>14.573</ele>
        <time>2019-06-20T12:14:49Z</time>
      </trkpt>
      <trkpt lat="43.725202" lon="-7.879120">
        <ele>15.545</ele>
        <time>2019-06-20T12:14:50Z</time>
      </trkpt>
      <trkpt lat="43.725336" lon="-7.879132">
        <ele>16.632</ele>
        <time>2019-06-20T12:14:51Z</time>
      </trkpt>
      <trkpt lat="43.725462" lon="-7.879142">
        <ele>17.973</ele>
        <time>2019-06-20T12:14:52Z</time>
      </trkpt>
      <trkpt lat="43.725579" lon="-7.879144">
        <ele>18.885</ele>
        <time>2019-06-20T12:14:53Z</time>
      </trkpt>
      <trkpt lat="43.725688" lon="-7.879152">
        <ele>18.913</ele>
        <time>2019-06-20T12:14:54Z</time>
      </trkpt>
      <trkpt lat="43.725804" lon="-7.879153">
        <ele>18.908</ele>
        <time>2019-06-20T12:14:55Z</time>
      </trkpt>
      <trkpt lat="43.725914" lon="-7.879166">
        <ele>19.090</ele>
        <time>2019-06-20T12:14:56Z</time>
      </trkpt>
      <trkpt lat="43.726027" lon="-7.879177">
        <ele>19.094</ele>
        <time>2019-06-20T12:14:57Z</time>
      </trkpt>
      <trkpt lat="43.726137" lon="-7.879168">
        <ele>19.255</ele>
        <time>2019-06-20T12:14:58Z</time>
      </trkpt>
      <trkpt lat="43.726248" lon="-7.879164">
        <ele>20.081</ele>
        <time>2019-06-20T12:14:59Z</time>
      </trkpt>
      <trkpt lat="43.726362" lon="-7.879134">
        <ele>20.858</ele>
        <time>2019-06-20T12:15:00Z</time>
      </trkpt>
      <trkpt lat="43.726473" lon="-7.879100">
        <ele>21.899</ele>
        <time>2019-06-20T12:15:01Z</time>
      </trkpt>
      <trkpt lat="43.726586" lon="-7.879062">
        <ele>22.981</ele>
        <time>2019-06-20T12:15:02Z</time>
      </trkpt>
      <trkpt lat="43.726693" lon="-7.879011">
        <ele>23.628</ele>
        <time>2019-06-20T12:15:03Z</time>
      </trkpt>
      <trkpt lat="43.726793" lon="-7.878958">
        <ele>24.266</ele>
        <time>2019-06-20T12:15:04Z</time>
      </trkpt>
      <trkpt lat="43.726828" lon="-7.878901">
        <ele>24.229</ele>
        <time>2019-06-20T12:15:05Z</time>
      </trkpt>
      <trkpt lat="43.726893" lon="-7.878842">
        <ele>24.621</ele>
        <time>2019-06-20T12:15:06Z</time>
      </trkpt>
      <trkpt lat="43.726954" lon="-7.878774">
        <ele>25.108</ele>
        <time>2019-06-20T12:15:07Z</time>
      </trkpt>
      <trkpt lat="43.727032" lon="-7.878717">
        <ele>25.979</ele>
        <time>2019-06-20T12:15:08Z</time>
      </trkpt>
      <trkpt lat="43.727134" lon="-7.878645">
        <ele>27.013</ele>
        <time>2019-06-20T12:15:09Z</time>
      </trkpt>
      <trkpt lat="43.727246" lon="-7.878559">
        <ele>28.124</ele>
        <time>2019-06-20T12:15:10Z</time>
      </trkpt>
      <trkpt lat="43.727360" lon="-7.878467">
        <ele>29.060</ele>
        <time>2019-06-20T12:15:11Z</time>
      </trkpt>
      <trkpt lat="43.727477" lon="-7.878369">
        <ele>29.927</ele>
        <time>2019-06-20T12:15:12Z</time>
      </trkpt>
      <trkpt lat="43.727596" lon="-7.878271">
        <ele>31.318</ele>
        <time>2019-06-20T12:15:13Z</time>
      </trkpt>
      <trkpt lat="43.727738" lon="-7.878181">
        <ele>33.030</ele>
        <time>2019-06-20T12:15:14Z</time>
      </trkpt>
      <trkpt lat="43.727865" lon="-7.878084">
        <ele>33.877</ele>
        <time>2019-06-20T12:15:15Z</time>
      </trkpt>
      <trkpt lat="43.727991" lon="-7.878004">
        <ele>34.577</ele>
        <time>2019-06-20T12:15:16Z</time>
      </trkpt>
      <trkpt lat="43.728122" lon="-7.877926">
        <ele>35.261</ele>
        <time>2019-06-20T12:15:17Z</time>
      </trkpt>
      <trkpt lat="43.728247" lon="-7.877905">
        <ele>35.727</ele>
        <time>2019-06-20T12:15:18Z</time>
      </trkpt>
      <trkpt lat="43.728350" lon="-7.877855">
        <ele>36.008</ele>
        <time>2019-06-20T12:15:19Z</time>
      </trkpt>
      <trkpt lat="43.728434" lon="-7.877812">
        <ele>36.050</ele>
        <time>2019-06-20T12:15:20Z</time>
      </trkpt>
      <trkpt lat="43.728550" lon="-7.877770">
        <ele>36.024</ele>
        <time>2019-06-20T12:15:21Z</time>
      </trkpt>
      <trkpt lat="43.728652" lon="-7.877729">
        <ele>35.675</ele>
        <time>2019-06-20T12:15:22Z</time>
      </trkpt>
      <trkpt lat="43.728750" lon="-7.877709">
        <ele>34.931</ele>
        <time>2019-06-20T12:15:23Z</time>
      </trkpt>
      <trkpt lat="43.728844" lon="-7.877694">
        <ele>34.358</ele>
        <time>2019-06-20T12:15:24Z</time>
      </trkpt>
      <trkpt lat="43.728951" lon="-7.877707">
        <ele>33.689</ele>
        <time>2019-06-20T12:15:25Z</time>
      </trkpt>
      <trkpt lat="43.729066" lon="-7.877729">
        <ele>32.781</ele>
        <time>2019-06-20T12:15:26Z</time>
      </trkpt>
      <trkpt lat="43.729193" lon="-7.877767">
        <ele>31.848</ele>
        <time>2019-06-20T12:15:27Z</time>
      </trkpt>
      <trkpt lat="43.729349" lon="-7.877815">
        <ele>30.789</ele>
        <time>2019-06-20T12:15:28Z</time>
      </trkpt>
      <trkpt lat="43.729529" lon="-7.877866">
        <ele>29.506</ele>
        <time>2019-06-20T12:15:29Z</time>
      </trkpt>
      <trkpt lat="43.729714" lon="-7.877920">
        <ele>28.626</ele>
        <time>2019-06-20T12:15:30Z</time>
      </trkpt>
      <trkpt lat="43.729894" lon="-7.877958">
        <ele>26.808</ele>
        <time>2019-06-20T12:15:31Z</time>
      </trkpt>
      <trkpt lat="43.730091" lon="-7.877998">
        <ele>24.811</ele>
        <time>2019-06-20T12:15:32Z</time>
      </trkpt>
      <trkpt lat="43.730274" lon="-7.878023">
        <ele>22.965</ele>
        <time>2019-06-20T12:15:33Z</time>
      </trkpt>
      <trkpt lat="43.730457" lon="-7.878064">
        <ele>21.166</ele>
        <time>2019-06-20T12:15:34Z</time>
      </trkpt>
      <trkpt lat="43.730626" lon="-7.878103">
        <ele>19.722</ele>
        <time>2019-06-20T12:15:35Z</time>
      </trkpt>
      <trkpt lat="43.730807" lon="-7.878141">
        <ele>18.839</ele>
        <time>2019-06-20T12:15:36Z</time>
      </trkpt>
      <trkpt lat="43.730981" lon="-7.878167">
        <ele>16.740</ele>
        <time>2019-06-20T12:15:37Z</time>
      </trkpt>
      <trkpt lat="43.731155" lon="-7.878168">
        <ele>14.552</ele>
        <time>2019-06-20T12:15:38Z</time>
      </trkpt>
      <trkpt lat="43.731322" lon="-7.878150">
        <ele>13.299</ele>
        <time>2019-06-20T12:15:39Z</time>
      </trkpt>
      <trkpt lat="43.731503" lon="-7.878115">
        <ele>12.385</ele>
        <time>2019-06-20T12:15:40Z</time>
      </trkpt>
      <trkpt lat="43.731640" lon="-7.878051">
        <ele>12.089</ele>
        <time>2019-06-20T12:15:41Z</time>
      </trkpt>
      <trkpt lat="43.731827" lon="-7.878000">
        <ele>12.017</ele>
        <time>2019-06-20T12:15:42Z</time>
      </trkpt>
      <trkpt lat="43.732013" lon="-7.877939">
        <ele>11.808</ele>
        <time>2019-06-20T12:15:43Z</time>
      </trkpt>
      <trkpt lat="43.732205" lon="-7.877883">
        <ele>11.121</ele>
        <time>2019-06-20T12:15:44Z</time>
      </trkpt>
      <trkpt lat="43.732399" lon="-7.877828">
        <ele>10.465</ele>
        <time>2019-06-20T12:15:45Z</time>
      </trkpt>
      <trkpt lat="43.732583" lon="-7.877750">
        <ele>9.446</ele>
        <time>2019-06-20T12:15:46Z</time>
      </trkpt>
      <trkpt lat="43.732772" lon="-7.877678">
        <ele>8.452</ele>
        <time>2019-06-20T12:15:47Z</time>
      </trkpt>
      <trkpt lat="43.732958" lon="-7.877596">
        <ele>8.039</ele>
        <time>2019-06-20T12:15:48Z</time>
      </trkpt>
      <trkpt lat="43.733157" lon="-7.877522">
        <ele>8.010</ele>
        <time>2019-06-20T12:15:49Z</time>
      </trkpt>
      <trkpt lat="43.733364" lon="-7.877474">
        <ele>8.072</ele>
        <time>2019-06-20T12:15:50Z</time>
      </trkpt>
      <trkpt lat="43.733577" lon="-7.877409">
        <ele>8.029</ele>
        <time>2019-06-20T12:15:51Z</time>
      </trkpt>
      <trkpt lat="43.733795" lon="-7.877359">
        <ele>8.053</ele>
        <time>2019-06-20T12:15:52Z</time>
      </trkpt>
      <trkpt lat="43.733985" lon="-7.877292">
        <ele>8.104</ele>
        <time>2019-06-20T12:15:53Z</time>
      </trkpt>
      <trkpt lat="43.734153" lon="-7.877201">
        <ele>8.014</ele>
        <time>2019-06-20T12:15:54Z</time>
      </trkpt>
      <trkpt lat="43.734342" lon="-7.877140">
        <ele>8.408</ele>
        <time>2019-06-20T12:15:55Z</time>
      </trkpt>
      <trkpt lat="43.734528" lon="-7.877108">
        <ele>8.718</ele>
        <time>2019-06-20T12:15:56Z</time>
      </trkpt>
      <trkpt lat="43.734691" lon="-7.877067">
        <ele>8.982</ele>
        <time>2019-06-20T12:15:57Z</time>
      </trkpt>
      <trkpt lat="43.734833" lon="-7.877003">
        <ele>9.473</ele>
        <time>2019-06-20T12:15:58Z</time>
      </trkpt>
      <trkpt lat="43.734994" lon="-7.876967">
        <ele>10.069</ele>
        <time>2019-06-20T12:15:59Z</time>
      </trkpt>
      <trkpt lat="43.735142" lon="-7.876908">
        <ele>10.416</ele>
        <time>2019-06-20T12:16:00Z</time>
      </trkpt>
      <trkpt lat="43.735268" lon="-7.876836">
        <ele>11.087</ele>
        <time>2019-06-20T12:16:01Z</time>
      </trkpt>
      <trkpt lat="43.735373" lon="-7.876732">
        <ele>11.729</ele>
        <time>2019-06-20T12:16:02Z</time>
      </trkpt>
      <trkpt lat="43.735488" lon="-7.876612">
        <ele>12.546</ele>
        <time>2019-06-20T12:16:03Z</time>
      </trkpt>
      <trkpt lat="43.735539" lon="-7.876466">
        <ele>12.829</ele>
        <time>2019-06-20T12:16:04Z</time>
      </trkpt>
      <trkpt lat="43.735588" lon="-7.876285">
        <ele>13.000</ele>
        <time>2019-06-20T12:16:05Z</time>
      </trkpt>
      <trkpt lat="43.735640" lon="-7.876095">
        <ele>12.920</ele>
        <time>2019-06-20T12:16:06Z</time>
      </trkpt>
      <trkpt lat="43.735697" lon="-7.875908">
        <ele>12.808</ele>
        <time>2019-06-20T12:16:07Z</time>
      </trkpt>
      <trkpt lat="43.735755" lon="-7.875719">
        <ele>13.235</ele>
        <time>2019-06-20T12:16:08Z</time>
      </trkpt>
      <trkpt lat="43.735788" lon="-7.875535">
        <ele>13.669</ele>
        <time>2019-06-20T12:16:09Z</time>
      </trkpt>
      <trkpt lat="43.735834" lon="-7.875368">
        <ele>14.740</ele>
        <time>2019-06-20T12:16:10Z</time>
      </trkpt>
      <trkpt lat="43.735900" lon="-7.875231">
        <ele>15.246</ele>
        <time>2019-06-20T12:16:11Z</time>
      </trkpt>
      <trkpt lat="43.735952" lon="-7.875084">
        <ele>15.433</ele>
        <time>2019-06-20T12:16:12Z</time>
      </trkpt>
      <trkpt lat="43.736025" lon="-7.874945">
        <ele>15.754</ele>
        <time>2019-06-20T12:16:13Z</time>
      </trkpt>
      <trkpt lat="43.736107" lon="-7.874819">
        <ele>16.076</ele>
        <time>2019-06-20T12:16:14Z</time>
      </trkpt>
      <trkpt lat="43.736203" lon="-7.874708">
        <ele>15.623</ele>
        <time>2019-06-20T12:16:15Z</time>
      </trkpt>
      <trkpt lat="43.736312" lon="-7.874679">
        <ele>15.117</ele>
        <time>2019-06-20T12:16:16Z</time>
      </trkpt>
      <trkpt lat="43.736409" lon="-7.874576">
        <ele>14.487</ele>
        <time>2019-06-20T12:16:17Z</time>
      </trkpt>
      <trkpt lat="43.736532" lon="-7.874509">
        <ele>13.415</ele>
        <time>2019-06-20T12:16:18Z</time>
      </trkpt>
      <trkpt lat="43.736673" lon="-7.874574">
        <ele>13.408</ele>
        <time>2019-06-20T12:16:19Z</time>
      </trkpt>
      <trkpt lat="43.736795" lon="-7.874503">
        <ele>12.044</ele>
        <time>2019-06-20T12:16:20Z</time>
      </trkpt>
      <trkpt lat="43.736911" lon="-7.874451">
        <ele>11.218</ele>
        <time>2019-06-20T12:16:21Z</time>
      </trkpt>
      <trkpt lat="43.737027" lon="-7.874368">
        <ele>10.619</ele>
        <time>2019-06-20T12:16:22Z</time>
      </trkpt>
      <trkpt lat="43.737145" lon="-7.874304">
        <ele>10.595</ele>
        <time>2019-06-20T12:16:23Z</time>
      </trkpt>
      <trkpt lat="43.737296" lon="-7.874262">
        <ele>10.042</ele>
        <time>2019-06-20T12:16:24Z</time>
      </trkpt>
      <trkpt lat="43.737443" lon="-7.874207">
        <ele>8.663</ele>
        <time>2019-06-20T12:16:25Z</time>
      </trkpt>
      <trkpt lat="43.737595" lon="-7.874152">
        <ele>7.785</ele>
        <time>2019-06-20T12:16:26Z</time>
      </trkpt>
      <trkpt lat="43.737727" lon="-7.874107">
        <ele>7.272</ele>
        <time>2019-06-20T12:16:27Z</time>
      </trkpt>
      <trkpt lat="43.737894" lon="-7.874063">
        <ele>6.925</ele>
        <time>2019-06-20T12:16:28Z</time>
      </trkpt>
      <trkpt lat="43.738035" lon="-7.874014">
        <ele>7.126</ele>
        <time>2019-06-20T12:16:29Z</time>
      </trkpt>
      <trkpt lat="43.738185" lon="-7.873970">
        <ele>7.608</ele>
        <time>2019-06-20T12:16:30Z</time>
      </trkpt>
      <trkpt lat="43.738344" lon="-7.873905">
        <ele>7.908</ele>
        <time>2019-06-20T12:16:31Z</time>
      </trkpt>
      <trkpt lat="43.738469" lon="-7.873810">
        <ele>8.375</ele>
        <time>2019-06-20T12:16:32Z</time>
      </trkpt>
      <trkpt lat="43.738624" lon="-7.873756">
        <ele>8.579</ele>
        <time>2019-06-20T12:16:33Z</time>
      </trkpt>
      <trkpt lat="43.738768" lon="-7.873653">
        <ele>8.430</ele>
        <time>2019-06-20T12:16:34Z</time>
      </trkpt>
      <trkpt lat="43.738933" lon="-7.873589">
        <ele>8.226</ele>
        <time>2019-06-20T12:16:35Z</time>
      </trkpt>
      <trkpt lat="43.739004" lon="-7.873401">
        <ele>8.943</ele>
        <time>2019-06-20T12:16:36Z</time>
      </trkpt>
      <trkpt lat="43.739146" lon="-7.873270">
        <ele>9.064</ele>
        <time>2019-06-20T12:16:37Z</time>
      </trkpt>
      <trkpt lat="43.739260" lon="-7.873151">
        <ele>9.076</ele>
        <time>2019-06-20T12:16:38Z</time>
      </trkpt>
      <trkpt lat="43.739391" lon="-7.873052">
        <ele>9.083</ele>
        <time>2019-06-20T12:16:39Z</time>
      </trkpt>
      <trkpt lat="43.739479" lon="-7.872942">
        <ele>9.192</ele>
        <time>2019-06-20T12:16:40Z</time>
      </trkpt>
      <trkpt lat="43.739569" lon="-7.872844">
        <ele>9.473</ele>
        <time>2019-06-20T12:16:41Z</time>
      </trkpt>
      <trkpt lat="43.739645" lon="-7.872731">
        <ele>9.720</ele>
        <time>2019-06-20T12:16:42Z</time>
      </trkpt>
      <trkpt lat="43.739751" lon="-7.872620">
        <ele>10.108</ele>
        <time>2019-06-20T12:16:43Z</time>
      </trkpt>
      <trkpt lat="43.739854" lon="-7.872490">
        <ele>10.542</ele>
        <time>2019-06-20T12:16:44Z</time>
      </trkpt>
      <trkpt lat="43.739940" lon="-7.872357">
        <ele>10.416</ele>
        <time>2019-06-20T12:16:45Z</time>
      </trkpt>
      <trkpt lat="43.740039" lon="-7.872243">
        <ele>9.987</ele>
        <time>2019-06-20T12:16:46Z</time>
      </trkpt>
      <trkpt lat="43.740130" lon="-7.872105">
        <ele>8.943</ele>
        <time>2019-06-20T12:16:47Z</time>
      </trkpt>
      <trkpt lat="43.740174" lon="-7.871929">
        <ele>8.090</ele>
        <time>2019-06-20T12:16:48Z</time>
      </trkpt>
      <trkpt lat="43.740221" lon="-7.871751">
        <ele>7.431</ele>
        <time>2019-06-20T12:16:49Z</time>
      </trkpt>
      <trkpt lat="43.740288" lon="-7.871618">
        <ele>7.283</ele>
        <time>2019-06-20T12:16:50Z</time>
      </trkpt>
      <trkpt lat="43.740352" lon="-7.871493">
        <ele>7.740</ele>
        <time>2019-06-20T12:16:51Z</time>
      </trkpt>
      <trkpt lat="43.740420" lon="-7.871362">
        <ele>8.093</ele>
        <time>2019-06-20T12:16:52Z</time>
      </trkpt>
      <trkpt lat="43.740467" lon="-7.871230">
        <ele>8.065</ele>
        <time>2019-06-20T12:16:53Z</time>
      </trkpt>
      <trkpt lat="43.740508" lon="-7.871121">
        <ele>8.021</ele>
        <time>2019-06-20T12:16:54Z</time>
      </trkpt>
      <trkpt lat="43.740531" lon="-7.871005">
        <ele>8.008</ele>
        <time>2019-06-20T12:16:55Z</time>
      </trkpt>
      <trkpt lat="43.740557" lon="-7.870887">
        <ele>8.042</ele>
        <time>2019-06-20T12:16:56Z</time>
      </trkpt>
      <trkpt lat="43.740616" lon="-7.870789">
        <ele>8.116</ele>
        <time>2019-06-20T12:16:57Z</time>
      </trkpt>
      <trkpt lat="43.740670" lon="-7.870652">
        <ele>8.457</ele>
        <time>2019-06-20T12:16:58Z</time>
      </trkpt>
      <trkpt lat="43.740713" lon="-7.870546">
        <ele>8.593</ele>
        <time>2019-06-20T12:16:59Z</time>
      </trkpt>
      <trkpt lat="43.740761" lon="-7.870419">
        <ele>9.050</ele>
        <time>2019-06-20T12:17:00Z</time>
      </trkpt>
      <trkpt lat="43.740805" lon="-7.870294">
        <ele>9.821</ele>
        <time>2019-06-20T12:17:01Z</time>
      </trkpt>
      <trkpt lat="43.740842" lon="-7.870179">
        <ele>10.773</ele>
        <time>2019-06-20T12:17:02Z</time>
      </trkpt>
      <trkpt lat="43.740875" lon="-7.870084">
        <ele>11.290</ele>
        <time>2019-06-20T12:17:03Z</time>
      </trkpt>
      <trkpt lat="43.740908" lon="-7.869993">
        <ele>11.857</ele>
        <time>2019-06-20T12:17:04Z</time>
      </trkpt>
      <trkpt lat="43.740950" lon="-7.869890">
        <ele>12.200</ele>
        <time>2019-06-20T12:17:05Z</time>
      </trkpt>
      <trkpt lat="43.740989" lon="-7.869811">
        <ele>12.420</ele>
        <time>2019-06-20T12:17:06Z</time>
      </trkpt>
      <trkpt lat="43.741020" lon="-7.869759">
        <ele>12.508</ele>
        <time>2019-06-20T12:17:07Z</time>
      </trkpt>
      <trkpt lat="43.741119" lon="-7.869804">
        <ele>11.788</ele>
        <time>2019-06-20T12:17:09Z</time>
      </trkpt>
      <trkpt lat="43.741173" lon="-7.869813">
        <ele>11.462</ele>
        <time>2019-06-20T12:17:10Z</time>
      </trkpt>
      <trkpt lat="43.741242" lon="-7.869791">
        <ele>11.343</ele>
        <time>2019-06-20T12:17:12Z</time>
      </trkpt>
      <trkpt lat="43.741262" lon="-7.869670">
        <ele>11.489</ele>
        <time>2019-06-20T12:17:14Z</time>
      </trkpt>
      <trkpt lat="43.741268" lon="-7.869592">
        <ele>11.456</ele>
        <time>2019-06-20T12:17:15Z</time>
      </trkpt>
      <trkpt lat="43.741275" lon="-7.869503">
        <ele>11.327</ele>
        <time>2019-06-20T12:17:16Z</time>
      </trkpt>
      <trkpt lat="43.741283" lon="-7.869438">
        <ele>11.189</ele>
        <time>2019-06-20T12:17:17Z</time>
      </trkpt>
      <trkpt lat="43.741325" lon="-7.869378">
        <ele>10.476</ele>
        <time>2019-06-20T12:17:18Z</time>
      </trkpt>
      <trkpt lat="43.741352" lon="-7.869318">
        <ele>9.921</ele>
        <time>2019-06-20T12:17:19Z</time>
      </trkpt>
      <trkpt lat="43.741416" lon="-7.869294">
        <ele>9.541</ele>
        <time>2019-06-20T12:17:20Z</time>
      </trkpt>
      <trkpt lat="43.741488" lon="-7.869270">
        <ele>9.605</ele>
        <time>2019-06-20T12:17:21Z</time>
      </trkpt>
      <trkpt lat="43.741526" lon="-7.869202">
        <ele>9.608</ele>
        <time>2019-06-20T12:17:22Z</time>
      </trkpt>
      <trkpt lat="43.741593" lon="-7.869158">
        <ele>9.825</ele>
        <time>2019-06-20T12:17:23Z</time>
      </trkpt>
      <trkpt lat="43.741681" lon="-7.869129">
        <ele>10.429</ele>
        <time>2019-06-20T12:17:24Z</time>
      </trkpt>
      <trkpt lat="43.741750" lon="-7.869074">
        <ele>11.690</ele>
        <time>2019-06-20T12:17:25Z</time>
      </trkpt>
      <trkpt lat="43.741800" lon="-7.869027">
        <ele>12.496</ele>
        <time>2019-06-20T12:17:26Z</time>
      </trkpt>
      <trkpt lat="43.741801" lon="-7.868913">
        <ele>13.323</ele>
        <time>2019-06-20T12:17:27Z</time>
      </trkpt>
      <trkpt lat="43.741877" lon="-7.868890">
        <ele>14.354</ele>
        <time>2019-06-20T12:17:28Z</time>
      </trkpt>
      <trkpt lat="43.741937" lon="-7.868855">
        <ele>15.356</ele>
        <time>2019-06-20T12:17:29Z</time>
      </trkpt>
      <trkpt lat="43.741988" lon="-7.868834">
        <ele>15.913</ele>
        <time>2019-06-20T12:17:30Z</time>
      </trkpt>
      <trkpt lat="43.742048" lon="-7.868816">
        <ele>16.488</ele>
        <time>2019-06-20T12:17:31Z</time>
      </trkpt>
      <trkpt lat="43.742159" lon="-7.868822">
        <ele>17.124</ele>
        <time>2019-06-20T12:17:32Z</time>
      </trkpt>
      <trkpt lat="43.742164" lon="-7.868724">
        <ele>17.926</ele>
        <time>2019-06-20T12:17:33Z</time>
      </trkpt>
      <trkpt lat="43.742172" lon="-7.868653">
        <ele>18.508</ele>
        <time>2019-06-20T12:17:34Z</time>
      </trkpt>
      <trkpt lat="43.742199" lon="-7.868569">
        <ele>19.471</ele>
        <time>2019-06-20T12:17:36Z</time>
      </trkpt>
      <trkpt lat="43.742256" lon="-7.868607">
        <ele>19.265</ele>
        <time>2019-06-20T12:17:38Z</time>
      </trkpt>
      <trkpt lat="43.742280" lon="-7.868664">
        <ele>18.886</ele>
        <time>2019-06-20T12:17:39Z</time>
      </trkpt>
      <trkpt lat="43.742305" lon="-7.868769">
        <ele>18.212</ele>
        <time>2019-06-20T12:17:41Z</time>
      </trkpt>
      <trkpt lat="43.742342" lon="-7.868850">
        <ele>17.789</ele>
        <time>2019-06-20T12:17:43Z</time>
      </trkpt>
      <trkpt lat="43.742357" lon="-7.868910">
        <ele>17.330</ele>
        <time>2019-06-20T12:17:44Z</time>
      </trkpt>
      <trkpt lat="43.742376" lon="-7.868975">
        <ele>16.812</ele>
        <time>2019-06-20T12:17:45Z</time>
      </trkpt>
      <trkpt lat="43.742394" lon="-7.869059">
        <ele>16.299</ele>
        <time>2019-06-20T12:17:46Z</time>
      </trkpt>
      <trkpt lat="43.742422" lon="-7.869148">
        <ele>15.656</ele>
        <time>2019-06-20T12:17:47Z</time>
      </trkpt>
      <trkpt lat="43.742453" lon="-7.869222">
        <ele>15.359</ele>
        <time>2019-06-20T12:17:48Z</time>
      </trkpt>
      <trkpt lat="43.742479" lon="-7.869293">
        <ele>15.014</ele>
        <time>2019-06-20T12:17:49Z</time>
      </trkpt>
      <trkpt lat="43.742486" lon="-7.869355">
        <ele>14.608</ele>
        <time>2019-06-20T12:17:50Z</time>
      </trkpt>
      <trkpt lat="43.742499" lon="-7.869452">
        <ele>14.068</ele>
        <time>2019-06-20T12:17:52Z</time>
      </trkpt>
      <trkpt lat="43.742523" lon="-7.869512">
        <ele>13.872</ele>
        <time>2019-06-20T12:17:53Z</time>
      </trkpt>
      <trkpt lat="43.742540" lon="-7.869584">
        <ele>13.653</ele>
        <time>2019-06-20T12:17:54Z</time>
      </trkpt>
      <trkpt lat="43.742562" lon="-7.869672">
        <ele>13.299</ele>
        <time>2019-06-20T12:17:55Z</time>
      </trkpt>
      <trkpt lat="43.742592" lon="-7.869771">
        <ele>12.856</ele>
        <time>2019-06-20T12:17:56Z</time>
      </trkpt>
      <trkpt lat="43.742631" lon="-7.869866">
        <ele>12.527</ele>
        <time>2019-06-20T12:17:57Z</time>
      </trkpt>
      <trkpt lat="43.742675" lon="-7.869954">
        <ele>12.239</ele>
        <time>2019-06-20T12:17:58Z</time>
      </trkpt>
      <trkpt lat="43.742704" lon="-7.870052">
        <ele>11.826</ele>
        <time>2019-06-20T12:17:59Z</time>
      </trkpt>
      <trkpt lat="43.742712" lon="-7.870161">
        <ele>11.426</ele>
        <time>2019-06-20T12:18:00Z</time>
      </trkpt>
      <trkpt lat="43.742715" lon="-7.870268">
        <ele>11.047</ele>
        <time>2019-06-20T12:18:01Z</time>
      </trkpt>
      <trkpt lat="43.742739" lon="-7.870361">
        <ele>11.011</ele>
        <time>2019-06-20T12:18:02Z</time>
      </trkpt>
      <trkpt lat="43.742750" lon="-7.870472">
        <ele>11.008</ele>
        <time>2019-06-20T12:18:03Z</time>
      </trkpt>
      <trkpt lat="43.742758" lon="-7.870591">
        <ele>11.135</ele>
        <time>2019-06-20T12:18:04Z</time>
      </trkpt>
      <trkpt lat="43.742768" lon="-7.870709">
        <ele>11.529</ele>
        <time>2019-06-20T12:18:05Z</time>
      </trkpt>
      <trkpt lat="43.742784" lon="-7.870831">
        <ele>12.030</ele>
        <time>2019-06-20T12:18:06Z</time>
      </trkpt>
      <trkpt lat="43.742809" lon="-7.870952">
        <ele>12.496</ele>
        <time>2019-06-20T12:18:07Z</time>
      </trkpt>
      <trkpt lat="43.742822" lon="-7.871069">
        <ele>12.873</ele>
        <time>2019-06-20T12:18:08Z</time>
      </trkpt>
      <trkpt lat="43.742834" lon="-7.871173">
        <ele>13.264</ele>
        <time>2019-06-20T12:18:09Z</time>
      </trkpt>
      <trkpt lat="43.742845" lon="-7.871267">
        <ele>13.656</ele>
        <time>2019-06-20T12:18:10Z</time>
      </trkpt>
      <trkpt lat="43.742857" lon="-7.871356">
        <ele>13.983</ele>
        <time>2019-06-20T12:18:11Z</time>
      </trkpt>
      <trkpt lat="43.742864" lon="-7.871430">
        <ele>14.079</ele>
        <time>2019-06-20T12:18:12Z</time>
      </trkpt>
      <trkpt lat="43.742922" lon="-7.871512">
        <ele>14.205</ele>
        <time>2019-06-20T12:18:14Z</time>
      </trkpt>
      <trkpt lat="43.742971" lon="-7.871534">
        <ele>14.425</ele>
        <time>2019-06-20T12:18:15Z</time>
      </trkpt>
      <trkpt lat="43.743041" lon="-7.871531">
        <ele>14.508</ele>
        <time>2019-06-20T12:18:16Z</time>
      </trkpt>
      <trkpt lat="43.743122" lon="-7.871511">
        <ele>14.680</ele>
        <time>2019-06-20T12:18:17Z</time>
      </trkpt>
      <trkpt lat="43.743214" lon="-7.871486">
        <ele>14.714</ele>
        <time>2019-06-20T12:18:18Z</time>
      </trkpt>
      <trkpt lat="43.743306" lon="-7.871458">
        <ele>14.965</ele>
        <time>2019-06-20T12:18:19Z</time>
      </trkpt>
      <trkpt lat="43.743416" lon="-7.871426">
        <ele>15.971</ele>
        <time>2019-06-20T12:18:20Z</time>
      </trkpt>
      <trkpt lat="43.743525" lon="-7.871390">
        <ele>17.188</ele>
        <time>2019-06-20T12:18:21Z</time>
      </trkpt>
      <trkpt lat="43.743650" lon="-7.871358">
        <ele>18.739</ele>
        <time>2019-06-20T12:18:22Z</time>
      </trkpt>
      <trkpt lat="43.743764" lon="-7.871329">
        <ele>20.881</ele>
        <time>2019-06-20T12:18:23Z</time>
      </trkpt>
      <trkpt lat="43.743885" lon="-7.871306">
        <ele>22.968</ele>
        <time>2019-06-20T12:18:24Z</time>
      </trkpt>
      <trkpt lat="43.743982" lon="-7.871260">
        <ele>25.017</ele>
        <time>2019-06-20T12:18:25Z</time>
      </trkpt>
      <trkpt lat="43.744064" lon="-7.871216">
        <ele>26.887</ele>
        <time>2019-06-20T12:18:26Z</time>
      </trkpt>
      <trkpt lat="43.744123" lon="-7.871161">
        <ele>28.115</ele>
        <time>2019-06-20T12:18:27Z</time>
      </trkpt>
      <trkpt lat="43.744106" lon="-7.871029">
        <ele>27.508</ele>
        <time>2019-06-20T12:18:28Z</time>
      </trkpt>
      <trkpt lat="43.744142" lon="-7.870899">
        <ele>27.894</ele>
        <time>2019-06-20T12:18:29Z</time>
      </trkpt>
      <trkpt lat="43.744167" lon="-7.870773">
        <ele>28.018</ele>
        <time>2019-06-20T12:18:30Z</time>
      </trkpt>
      <trkpt lat="43.744182" lon="-7.870638">
        <ele>28.359</ele>
        <time>2019-06-20T12:18:31Z</time>
      </trkpt>
      <trkpt lat="43.744231" lon="-7.870520">
        <ele>29.035</ele>
        <time>2019-06-20T12:18:32Z</time>
      </trkpt>
      <trkpt lat="43.744286" lon="-7.870414">
        <ele>29.692</ele>
        <time>2019-06-20T12:18:33Z</time>
      </trkpt>
      <trkpt lat="43.744336" lon="-7.870306">
        <ele>30.123</ele>
        <time>2019-06-20T12:18:34Z</time>
      </trkpt>
      <trkpt lat="43.744400" lon="-7.870228">
        <ele>31.065</ele>
        <time>2019-06-20T12:18:35Z</time>
      </trkpt>
      <trkpt lat="43.744481" lon="-7.870130">
        <ele>32.282</ele>
        <time>2019-06-20T12:18:36Z</time>
      </trkpt>
      <trkpt lat="43.744558" lon="-7.870059">
        <ele>33.364</ele>
        <time>2019-06-20T12:18:37Z</time>
      </trkpt>
      <trkpt lat="43.744655" lon="-7.870043">
        <ele>35.106</ele>
        <time>2019-06-20T12:18:38Z</time>
      </trkpt>
      <trkpt lat="43.744720" lon="-7.870027">
        <ele>36.216</ele>
        <time>2019-06-20T12:18:39Z</time>
      </trkpt>
      <trkpt lat="43.744834" lon="-7.870033">
        <ele>37.808</ele>
        <time>2019-06-20T12:18:40Z</time>
      </trkpt>
      <trkpt lat="43.744945" lon="-7.870067">
        <ele>39.789</ele>
        <time>2019-06-20T12:18:41Z</time>
      </trkpt>
      <trkpt lat="43.745067" lon="-7.870156">
        <ele>41.843</ele>
        <time>2019-06-20T12:18:42Z</time>
      </trkpt>
      <trkpt lat="43.745182" lon="-7.870288">
        <ele>44.024</ele>
        <time>2019-06-20T12:18:43Z</time>
      </trkpt>
      <trkpt lat="43.745293" lon="-7.870356">
        <ele>45.450</ele>
        <time>2019-06-20T12:18:44Z</time>
      </trkpt>
      <trkpt lat="43.745379" lon="-7.870403">
        <ele>46.547</ele>
        <time>2019-06-20T12:18:45Z</time>
      </trkpt>
      <trkpt lat="43.745465" lon="-7.870418">
        <ele>47.568</ele>
        <time>2019-06-20T12:18:46Z</time>
      </trkpt>
      <trkpt lat="43.745574" lon="-7.870444">
        <ele>48.950</ele>
        <time>2019-06-20T12:18:47Z</time>
      </trkpt>
      <trkpt lat="43.745680" lon="-7.870460">
        <ele>50.477</ele>
        <time>2019-06-20T12:18:48Z</time>
      </trkpt>
      <trkpt lat="43.745753" lon="-7.870444">
        <ele>51.451</ele>
        <time>2019-06-20T12:18:49Z</time>
      </trkpt>
      <trkpt lat="43.745843" lon="-7.870413">
        <ele>52.701</ele>
        <time>2019-06-20T12:18:50Z</time>
      </trkpt>
      <trkpt lat="43.745771" lon="-7.870296">
        <ele>51.211</ele>
        <time>2019-06-20T12:18:51Z</time>
      </trkpt>
      <trkpt lat="43.745811" lon="-7.870186">
        <ele>51.008</ele>
        <time>2019-06-20T12:18:53Z</time>
      </trkpt>
      <trkpt lat="43.745839" lon="-7.870116">
        <ele>50.948</ele>
        <time>2019-06-20T12:18:54Z</time>
      </trkpt>
      <trkpt lat="43.745852" lon="-7.870018">
        <ele>50.432</ele>
        <time>2019-06-20T12:18:55Z</time>
      </trkpt>
      <trkpt lat="43.745837" lon="-7.869909">
        <ele>49.493</ele>
        <time>2019-06-20T12:18:56Z</time>
      </trkpt>
      <trkpt lat="43.745796" lon="-7.869763">
        <ele>47.759</ele>
        <time>2019-06-20T12:18:57Z</time>
      </trkpt>
      <trkpt lat="43.745797" lon="-7.869580">
        <ele>46.746</ele>
        <time>2019-06-20T12:18:58Z</time>
      </trkpt>
      <trkpt lat="43.745725" lon="-7.869397">
        <ele>44.267</ele>
        <time>2019-06-20T12:18:59Z</time>
      </trkpt>
      <trkpt lat="43.745703" lon="-7.869214">
        <ele>43.389</ele>
        <time>2019-06-20T12:19:00Z</time>
      </trkpt>
      <trkpt lat="43.745704" lon="-7.869092">
        <ele>43.226</ele>
        <time>2019-06-20T12:19:01Z</time>
      </trkpt>
      <trkpt lat="43.745659" lon="-7.868927">
        <ele>42.299</ele>
        <time>2019-06-20T12:19:02Z</time>
      </trkpt>
      <trkpt lat="43.745624" lon="-7.868745">
        <ele>41.507</ele>
        <time>2019-06-20T12:19:03Z</time>
      </trkpt>
      <trkpt lat="43.745593" lon="-7.868596">
        <ele>40.827</ele>
        <time>2019-06-20T12:19:04Z</time>
      </trkpt>
      <trkpt lat="43.745560" lon="-7.868460">
        <ele>40.108</ele>
        <time>2019-06-20T12:19:05Z</time>
      </trkpt>
      <trkpt lat="43.745537" lon="-7.868327">
        <ele>39.792</ele>
        <time>2019-06-20T12:19:06Z</time>
      </trkpt>
      <trkpt lat="43.745515" lon="-7.868211">
        <ele>39.326</ele>
        <time>2019-06-20T12:19:07Z</time>
      </trkpt>
      <trkpt lat="43.745503" lon="-7.868126">
        <ele>39.117</ele>
        <time>2019-06-20T12:19:08Z</time>
      </trkpt>
      <trkpt lat="43.745510" lon="-7.868014">
        <ele>38.943</ele>
        <time>2019-06-20T12:19:10Z</time>
      </trkpt>
      <trkpt lat="43.745506" lon="-7.867936">
        <ele>38.440</ele>
        <time>2019-06-20T12:19:11Z</time>
      </trkpt>
      <trkpt lat="43.745607" lon="-7.867898">
        <ele>40.081</ele>
        <time>2019-06-20T12:19:13Z</time>
      </trkpt>
      <trkpt lat="43.745677" lon="-7.867873">
        <ele>41.333</ele>
        <time>2019-06-20T12:19:14Z</time>
      </trkpt>
      <trkpt lat="43.745758" lon="-7.867830">
        <ele>42.790</ele>
        <time>2019-06-20T12:19:15Z</time>
      </trkpt>
      <trkpt lat="43.745846" lon="-7.867802">
        <ele>44.571</ele>
        <time>2019-06-20T12:19:16Z</time>
      </trkpt>
      <trkpt lat="43.745916" lon="-7.867753">
        <ele>46.141</ele>
        <time>2019-06-20T12:19:17Z</time>
      </trkpt>
      <trkpt lat="43.745984" lon="-7.867680">
        <ele>47.515</ele>
        <time>2019-06-20T12:19:18Z</time>
      </trkpt>
      <trkpt lat="43.746047" lon="-7.867613">
        <ele>48.808</ele>
        <time>2019-06-20T12:19:19Z</time>
      </trkpt>
      <trkpt lat="43.746090" lon="-7.867511">
        <ele>49.490</ele>
        <time>2019-06-20T12:19:20Z</time>
      </trkpt>
      <trkpt lat="43.746098" lon="-7.867410">
        <ele>48.974</ele>
        <time>2019-06-20T12:19:21Z</time>
      </trkpt>
      <trkpt lat="43.746070" lon="-7.867294">
        <ele>47.345</ele>
        <time>2019-06-20T12:19:22Z</time>
      </trkpt>
      <trkpt lat="43.746072" lon="-7.867152">
        <ele>46.481</ele>
        <time>2019-06-20T12:19:23Z</time>
      </trkpt>
      <trkpt lat="43.746087" lon="-7.867006">
        <ele>45.898</ele>
        <time>2019-06-20T12:19:24Z</time>
      </trkpt>
      <trkpt lat="43.746089" lon="-7.866878">
        <ele>44.759</ele>
        <time>2019-06-20T12:19:25Z</time>
      </trkpt>
      <trkpt lat="43.746135" lon="-7.866657">
        <ele>43.811</ele>
        <time>2019-06-20T12:19:26Z</time>
      </trkpt>
      <trkpt lat="43.746163" lon="-7.866534">
        <ele>43.838</ele>
        <time>2019-06-20T12:19:27Z</time>
      </trkpt>
      <trkpt lat="43.746204" lon="-7.866406">
        <ele>44.229</ele>
        <time>2019-06-20T12:19:28Z</time>
      </trkpt>
      <trkpt lat="43.746288" lon="-7.866276">
        <ele>45.500</ele>
        <time>2019-06-20T12:19:29Z</time>
      </trkpt>
      <trkpt lat="43.746351" lon="-7.866141">
        <ele>46.120</ele>
        <time>2019-06-20T12:19:30Z</time>
      </trkpt>
      <trkpt lat="43.746436" lon="-7.866040">
        <ele>47.708</ele>
        <time>2019-06-20T12:19:31Z</time>
      </trkpt>
      <trkpt lat="43.746530" lon="-7.865944">
        <ele>49.785</ele>
        <time>2019-06-20T12:19:32Z</time>
      </trkpt>
      <trkpt lat="43.746662" lon="-7.865844">
        <ele>53.089</ele>
        <time>2019-06-20T12:19:33Z</time>
      </trkpt>
      <trkpt lat="43.746773" lon="-7.865719">
        <ele>54.520</ele>
        <time>2019-06-20T12:19:34Z</time>
      </trkpt>
      <trkpt lat="43.746892" lon="-7.865594">
        <ele>56.776</ele>
        <time>2019-06-20T12:19:35Z</time>
      </trkpt>
      <trkpt lat="43.746990" lon="-7.865439">
        <ele>57.483</ele>
        <time>2019-06-20T12:19:36Z</time>
      </trkpt>
      <trkpt lat="43.747092" lon="-7.865296">
        <ele>58.144</ele>
        <time>2019-06-20T12:19:37Z</time>
      </trkpt>
      <trkpt lat="43.747205" lon="-7.865174">
        <ele>59.986</ele>
        <time>2019-06-20T12:19:38Z</time>
      </trkpt>
      <trkpt lat="43.747283" lon="-7.865019">
        <ele>60.513</ele>
        <time>2019-06-20T12:19:39Z</time>
      </trkpt>
      <trkpt lat="43.747363" lon="-7.864859">
        <ele>61.533</ele>
        <time>2019-06-20T12:19:40Z</time>
      </trkpt>
      <trkpt lat="43.747457" lon="-7.864720">
        <ele>62.723</ele>
        <time>2019-06-20T12:19:41Z</time>
      </trkpt>
      <trkpt lat="43.747568" lon="-7.864608">
        <ele>63.315</ele>
        <time>2019-06-20T12:19:42Z</time>
      </trkpt>
      <trkpt lat="43.747687" lon="-7.864548">
        <ele>64.708</ele>
        <time>2019-06-20T12:19:43Z</time>
      </trkpt>
      <trkpt lat="43.747794" lon="-7.864487">
        <ele>65.796</ele>
        <time>2019-06-20T12:19:44Z</time>
      </trkpt>
      <trkpt lat="43.747893" lon="-7.864429">
        <ele>65.260</ele>
        <time>2019-06-20T12:19:45Z</time>
      </trkpt>
      <trkpt lat="43.747975" lon="-7.864394">
        <ele>65.151</ele>
        <time>2019-06-20T12:19:46Z</time>
      </trkpt>
      <trkpt lat="43.748054" lon="-7.864369">
        <ele>65.227</ele>
        <time>2019-06-20T12:19:47Z</time>
      </trkpt>
      <trkpt lat="43.748120" lon="-7.864373">
        <ele>64.814</ele>
        <time>2019-06-20T12:19:48Z</time>
      </trkpt>
      <trkpt lat="43.748185" lon="-7.864373">
        <ele>64.415</ele>
        <time>2019-06-20T12:19:49Z</time>
      </trkpt>
      <trkpt lat="43.748256" lon="-7.864397">
        <ele>64.667</ele>
        <time>2019-06-20T12:19:50Z</time>
      </trkpt>
      <trkpt lat="43.748256" lon="-7.864530">
        <ele>68.074</ele>
        <time>2019-06-20T12:19:51Z</time>
      </trkpt>
      <trkpt lat="43.748292" lon="-7.864615">
        <ele>70.147</ele>
        <time>2019-06-20T12:19:52Z</time>
      </trkpt>
      <trkpt lat="43.748304" lon="-7.864715">
        <ele>72.629</ele>
        <time>2019-06-20T12:19:53Z</time>
      </trkpt>
      <trkpt lat="43.748181" lon="-7.864772">
        <ele>73.721</ele>
        <time>2019-06-20T12:19:54Z</time>
      </trkpt>
      <trkpt lat="43.748120" lon="-7.864839">
        <ele>75.408</ele>
        <time>2019-06-20T12:19:55Z</time>
      </trkpt>
      <trkpt lat="43.748050" lon="-7.864887">
        <ele>76.347</ele>
        <time>2019-06-20T12:19:56Z</time>
      </trkpt>
      <trkpt lat="43.747973" lon="-7.864923">
        <ele>76.371</ele>
        <time>2019-06-20T12:19:57Z</time>
      </trkpt>
      <trkpt lat="43.747896" lon="-7.864964">
        <ele>76.252</ele>
        <time>2019-06-20T12:19:58Z</time>
      </trkpt>
      <trkpt lat="43.747838" lon="-7.865024">
        <ele>76.948</ele>
        <time>2019-06-20T12:19:59Z</time>
      </trkpt>
      <trkpt lat="43.747801" lon="-7.865081">
        <ele>78.075</ele>
        <time>2019-06-20T12:20:00Z</time>
      </trkpt>
      <trkpt lat="43.747783" lon="-7.865157">
        <ele>80.246</ele>
        <time>2019-06-20T12:20:01Z</time>
      </trkpt>
      <trkpt lat="43.747835" lon="-7.865197">
        <ele>82.468</ele>
        <time>2019-06-20T12:20:02Z</time>
      </trkpt>
      <trkpt lat="43.747991" lon="-7.865229">
        <ele>86.395</ele>
        <time>2019-06-20T12:20:04Z</time>
      </trkpt>
      <trkpt lat="43.748131" lon="-7.865221">
        <ele>88.597</ele>
        <time>2019-06-20T12:20:05Z</time>
      </trkpt>
      <trkpt lat="43.748263" lon="-7.865191">
        <ele>89.723</ele>
        <time>2019-06-20T12:20:06Z</time>
      </trkpt>
      <trkpt lat="43.748382" lon="-7.865176">
        <ele>90.525</ele>
        <time>2019-06-20T12:20:07Z</time>
      </trkpt>
      <trkpt lat="43.748479" lon="-7.865177">
        <ele>90.908</ele>
        <time>2019-06-20T12:20:08Z</time>
      </trkpt>
      <trkpt lat="43.748585" lon="-7.865180">
        <ele>91.412</ele>
        <time>2019-06-20T12:20:09Z</time>
      </trkpt>
      <trkpt lat="43.748680" lon="-7.865181">
        <ele>91.326</ele>
        <time>2019-06-20T12:20:10Z</time>
      </trkpt>
      <trkpt lat="43.748785" lon="-7.865266">
        <ele>94.057</ele>
        <time>2019-06-20T12:20:11Z</time>
      </trkpt>
      <trkpt lat="43.748866" lon="-7.865363">
        <ele>96.893</ele>
        <time>2019-06-20T12:20:12Z</time>
      </trkpt>
      <trkpt lat="43.748948" lon="-7.865447">
        <ele>98.660</ele>
        <time>2019-06-20T12:20:13Z</time>
      </trkpt>
      <trkpt lat="43.749043" lon="-7.865535">
        <ele>99.651</ele>
        <time>2019-06-20T12:20:14Z</time>
      </trkpt>
      <trkpt lat="43.749153" lon="-7.865607">
        <ele>99.983</ele>
        <time>2019-06-20T12:20:15Z</time>
      </trkpt>
      <trkpt lat="43.749262" lon="-7.865703">
        <ele>102.060</ele>
        <time>2019-06-20T12:20:16Z</time>
      </trkpt>
      <trkpt lat="43.749361" lon="-7.865794">
        <ele>105.213</ele>
        <time>2019-06-20T12:20:17Z</time>
      </trkpt>
      <trkpt lat="43.749458" lon="-7.865876">
        <ele>108.043</ele>
        <time>2019-06-20T12:20:18Z</time>
      </trkpt>
      <trkpt lat="43.749555" lon="-7.865969">
        <ele>108.807</ele>
        <time>2019-06-20T12:20:19Z</time>
      </trkpt>
      <trkpt lat="43.749658" lon="-7.866040">
        <ele>109.308</ele>
        <time>2019-06-20T12:20:20Z</time>
      </trkpt>
      <trkpt lat="43.749760" lon="-7.866122">
        <ele>109.614</ele>
        <time>2019-06-20T12:20:21Z</time>
      </trkpt>
      <trkpt lat="43.749848" lon="-7.866196">
        <ele>107.868</ele>
        <time>2019-06-20T12:20:22Z</time>
      </trkpt>
      <trkpt lat="43.749935" lon="-7.866340">
        <ele>108.259</ele>
        <time>2019-06-20T12:20:23Z</time>
      </trkpt>
      <trkpt lat="43.750022" lon="-7.866480">
        <ele>109.555</ele>
        <time>2019-06-20T12:20:24Z</time>
      </trkpt>
      <trkpt lat="43.750113" lon="-7.866661">
        <ele>112.752</ele>
        <time>2019-06-20T12:20:25Z</time>
      </trkpt>
      <trkpt lat="43.750207" lon="-7.866817">
        <ele>115.863</ele>
        <time>2019-06-20T12:20:26Z</time>
      </trkpt>
      <trkpt lat="43.750275" lon="-7.866985">
        <ele>119.055</ele>
        <time>2019-06-20T12:20:27Z</time>
      </trkpt>
      <trkpt lat="43.750362" lon="-7.867158">
        <ele>120.042</ele>
        <time>2019-06-20T12:20:28Z</time>
      </trkpt>
      <trkpt lat="43.750474" lon="-7.867347">
        <ele>121.826</ele>
        <time>2019-06-20T12:20:29Z</time>
      </trkpt>
      <trkpt lat="43.750552" lon="-7.867522">
        <ele>124.747</ele>
        <time>2019-06-20T12:20:30Z</time>
      </trkpt>
      <trkpt lat="43.750636" lon="-7.867676">
        <ele>128.411</ele>
        <time>2019-06-20T12:20:31Z</time>
      </trkpt>
      <trkpt lat="43.750744" lon="-7.867836">
        <ele>132.108</ele>
        <time>2019-06-20T12:20:32Z</time>
      </trkpt>
      <trkpt lat="43.750879" lon="-7.867973">
        <ele>134.525</ele>
        <time>2019-06-20T12:20:33Z</time>
      </trkpt>
      <trkpt lat="43.751007" lon="-7.868113">
        <ele>138.089</ele>
        <time>2019-06-20T12:20:34Z</time>
      </trkpt>
      <trkpt lat="43.751134" lon="-7.868275">
        <ele>142.020</ele>
        <time>2019-06-20T12:20:35Z</time>
      </trkpt>
      <trkpt lat="43.751276" lon="-7.868412">
        <ele>143.786</ele>
        <time>2019-06-20T12:20:36Z</time>
      </trkpt>
      <trkpt lat="43.751404" lon="-7.868549">
        <ele>145.283</ele>
        <time>2019-06-20T12:20:37Z</time>
      </trkpt>
      <trkpt lat="43.751511" lon="-7.868692">
        <ele>147.494</ele>
        <time>2019-06-20T12:20:38Z</time>
      </trkpt>
      <trkpt lat="43.751601" lon="-7.868816">
        <ele>149.856</ele>
        <time>2019-06-20T12:20:39Z</time>
      </trkpt>
      <trkpt lat="43.751722" lon="-7.868947">
        <ele>151.373</ele>
        <time>2019-06-20T12:20:40Z</time>
      </trkpt>
      <trkpt lat="43.751852" lon="-7.869053">
        <ele>152.083</ele>
        <time>2019-06-20T12:20:41Z</time>
      </trkpt>
      <trkpt lat="43.751931" lon="-7.869089">
        <ele>151.925</ele>
        <time>2019-06-20T12:20:42Z</time>
      </trkpt>
      <trkpt lat="43.752035" lon="-7.869117">
        <ele>152.517</ele>
        <time>2019-06-20T12:20:43Z</time>
      </trkpt>
      <trkpt lat="43.752135" lon="-7.869156">
        <ele>153.708</ele>
        <time>2019-06-20T12:20:44Z</time>
      </trkpt>
      <trkpt lat="43.752277" lon="-7.869185">
        <ele>155.331</ele>
        <time>2019-06-20T12:20:45Z</time>
      </trkpt>
      <trkpt lat="43.752362" lon="-7.869133">
        <ele>155.085</ele>
        <time>2019-06-20T12:20:46Z</time>
      </trkpt>
      <trkpt lat="43.752506" lon="-7.869120">
        <ele>156.846</ele>
        <time>2019-06-20T12:20:47Z</time>
      </trkpt>
      <trkpt lat="43.752630" lon="-7.869096">
        <ele>159.852</ele>
        <time>2019-06-20T12:20:48Z</time>
      </trkpt>
      <trkpt lat="43.752747" lon="-7.868991">
        <ele>160.639</ele>
        <time>2019-06-20T12:20:49Z</time>
      </trkpt>
      <trkpt lat="43.752868" lon="-7.868879">
        <ele>161.070</ele>
        <time>2019-06-20T12:20:50Z</time>
      </trkpt>
      <trkpt lat="43.752978" lon="-7.868775">
        <ele>161.072</ele>
        <time>2019-06-20T12:20:51Z</time>
      </trkpt>
      <trkpt lat="43.753096" lon="-7.868693">
        <ele>160.269</ele>
        <time>2019-06-20T12:20:52Z</time>
      </trkpt>
      <trkpt lat="43.753179" lon="-7.868576">
        <ele>155.797</ele>
        <time>2019-06-20T12:20:53Z</time>
      </trkpt>
      <trkpt lat="43.753311" lon="-7.868557">
        <ele>153.823</ele>
        <time>2019-06-20T12:20:54Z</time>
      </trkpt>
      <trkpt lat="43.753430" lon="-7.868599">
        <ele>155.525</ele>
        <time>2019-06-20T12:20:55Z</time>
      </trkpt>
      <trkpt lat="43.753572" lon="-7.868638">
        <ele>157.008</ele>
        <time>2019-06-20T12:20:56Z</time>
      </trkpt>
      <trkpt lat="43.753701" lon="-7.868643">
        <ele>156.522</ele>
        <time>2019-06-20T12:20:57Z</time>
      </trkpt>
      <trkpt lat="43.753816" lon="-7.868649">
        <ele>155.896</ele>
        <time>2019-06-20T12:20:58Z</time>
      </trkpt>
      <trkpt lat="43.753928" lon="-7.868655">
        <ele>155.627</ele>
        <time>2019-06-20T12:20:59Z</time>
      </trkpt>
      <trkpt lat="43.754039" lon="-7.868651">
        <ele>156.053</ele>
        <time>2019-06-20T12:21:00Z</time>
      </trkpt>
      <trkpt lat="43.754155" lon="-7.868646">
        <ele>156.490</ele>
        <time>2019-06-20T12:21:01Z</time>
      </trkpt>
      <trkpt lat="43.754283" lon="-7.868640">
        <ele>157.111</ele>
        <time>2019-06-20T12:21:02Z</time>
      </trkpt>
      <trkpt lat="43.754439" lon="-7.868612">
        <ele>158.043</ele>
        <time>2019-06-20T12:21:03Z</time>
      </trkpt>
      <trkpt lat="43.754557" lon="-7.868535">
        <ele>158.970</ele>
        <time>2019-06-20T12:21:04Z</time>
      </trkpt>
      <trkpt lat="43.754715" lon="-7.868471">
        <ele>160.916</ele>
        <time>2019-06-20T12:21:05Z</time>
      </trkpt>
      <trkpt lat="43.754845" lon="-7.868402">
        <ele>163.276</ele>
        <time>2019-06-20T12:21:06Z</time>
      </trkpt>
      <trkpt lat="43.754984" lon="-7.868340">
        <ele>165.713</ele>
        <time>2019-06-20T12:21:07Z</time>
      </trkpt>
      <trkpt lat="43.755099" lon="-7.868260">
        <ele>167.808</ele>
        <time>2019-06-20T12:21:08Z</time>
      </trkpt>
      <trkpt lat="43.755221" lon="-7.868183">
        <ele>169.464</ele>
        <time>2019-06-20T12:21:09Z</time>
      </trkpt>
      <trkpt lat="43.755346" lon="-7.868111">
        <ele>170.628</ele>
        <time>2019-06-20T12:21:10Z</time>
      </trkpt>
      <trkpt lat="43.755475" lon="-7.868035">
        <ele>171.229</ele>
        <time>2019-06-20T12:21:11Z</time>
      </trkpt>
      <trkpt lat="43.755594" lon="-7.867962">
        <ele>171.185</ele>
        <time>2019-06-20T12:21:12Z</time>
      </trkpt>
      <trkpt lat="43.755702" lon="-7.867888">
        <ele>170.032</ele>
        <time>2019-06-20T12:21:13Z</time>
      </trkpt>
      <trkpt lat="43.755828" lon="-7.867814">
        <ele>167.923</ele>
        <time>2019-06-20T12:21:14Z</time>
      </trkpt>
      <trkpt lat="43.755941" lon="-7.867726">
        <ele>165.335</ele>
        <time>2019-06-20T12:21:15Z</time>
      </trkpt>
      <trkpt lat="43.756058" lon="-7.867633">
        <ele>161.512</ele>
        <time>2019-06-20T12:21:16Z</time>
      </trkpt>
      <trkpt lat="43.756180" lon="-7.867536">
        <ele>158.722</ele>
        <time>2019-06-20T12:21:17Z</time>
      </trkpt>
      <trkpt lat="43.756303" lon="-7.867444">
        <ele>158.262</ele>
        <time>2019-06-20T12:21:18Z</time>
      </trkpt>
      <trkpt lat="43.756433" lon="-7.867357">
        <ele>157.308</ele>
        <time>2019-06-20T12:21:19Z</time>
      </trkpt>
      <trkpt lat="43.756561" lon="-7.867261">
        <ele>155.808</ele>
        <time>2019-06-20T12:21:20Z</time>
      </trkpt>
      <trkpt lat="43.756695" lon="-7.867161">
        <ele>153.935</ele>
        <time>2019-06-20T12:21:21Z</time>
      </trkpt>
      <trkpt lat="43.756846" lon="-7.867068">
        <ele>151.859</ele>
        <time>2019-06-20T12:21:22Z</time>
      </trkpt>
      <trkpt lat="43.757004" lon="-7.866979">
        <ele>150.450</ele>
        <time>2019-06-20T12:21:23Z</time>
      </trkpt>
      <trkpt lat="43.757134" lon="-7.866869">
        <ele>148.976</ele>
        <time>2019-06-20T12:21:24Z</time>
      </trkpt>
      <trkpt lat="43.757279" lon="-7.866772">
        <ele>149.433</ele>
        <time>2019-06-20T12:21:25Z</time>
      </trkpt>
      <trkpt lat="43.757399" lon="-7.866658">
        <ele>150.024</ele>
        <time>2019-06-20T12:21:26Z</time>
      </trkpt>
      <trkpt lat="43.757534" lon="-7.866567">
        <ele>150.486</ele>
        <time>2019-06-20T12:21:27Z</time>
      </trkpt>
      <trkpt lat="43.757662" lon="-7.866490">
        <ele>149.583</ele>
        <time>2019-06-20T12:21:28Z</time>
      </trkpt>
      <trkpt lat="43.757782" lon="-7.866390">
        <ele>147.278</ele>
        <time>2019-06-20T12:21:29Z</time>
      </trkpt>
      <trkpt lat="43.757888" lon="-7.866307">
        <ele>147.733</ele>
        <time>2019-06-20T12:21:30Z</time>
      </trkpt>
      <trkpt lat="43.758005" lon="-7.866199">
        <ele>147.526</ele>
        <time>2019-06-20T12:21:31Z</time>
      </trkpt>
      <trkpt lat="43.758132" lon="-7.866097">
        <ele>146.808</ele>
        <time>2019-06-20T12:21:32Z</time>
      </trkpt>
      <trkpt lat="43.758257" lon="-7.865999">
        <ele>144.980</ele>
        <time>2019-06-20T12:21:33Z</time>
      </trkpt>
      <trkpt lat="43.758362" lon="-7.865892">
        <ele>142.094</ele>
        <time>2019-06-20T12:21:34Z</time>
      </trkpt>
      <trkpt lat="43.758532" lon="-7.865801">
        <ele>141.045</ele>
        <time>2019-06-20T12:21:35Z</time>
      </trkpt>
      <trkpt lat="43.758667" lon="-7.865735">
        <ele>140.091</ele>
        <time>2019-06-20T12:21:36Z</time>
      </trkpt>
      <trkpt lat="43.758764" lon="-7.865654">
        <ele>137.898</ele>
        <time>2019-06-20T12:21:37Z</time>
      </trkpt>
      <trkpt lat="43.758849" lon="-7.865567">
        <ele>135.779</ele>
        <time>2019-06-20T12:21:38Z</time>
      </trkpt>
      <trkpt lat="43.758959" lon="-7.865479">
        <ele>133.511</ele>
        <time>2019-06-20T12:21:39Z</time>
      </trkpt>
      <trkpt lat="43.759052" lon="-7.865455">
        <ele>132.838</ele>
        <time>2019-06-20T12:21:40Z</time>
      </trkpt>
      <trkpt lat="43.759136" lon="-7.865414">
        <ele>131.947</ele>
        <time>2019-06-20T12:21:41Z</time>
      </trkpt>
      <trkpt lat="43.759228" lon="-7.865394">
        <ele>131.329</ele>
        <time>2019-06-20T12:21:42Z</time>
      </trkpt>
      <trkpt lat="43.759333" lon="-7.865401">
        <ele>131.121</ele>
        <time>2019-06-20T12:21:43Z</time>
      </trkpt>
      <trkpt lat="43.759422" lon="-7.865354">
        <ele>130.108</ele>
        <time>2019-06-20T12:21:44Z</time>
      </trkpt>
      <trkpt lat="43.759545" lon="-7.865345">
        <ele>131.037</ele>
        <time>2019-06-20T12:21:45Z</time>
      </trkpt>
      <trkpt lat="43.759694" lon="-7.865339">
        <ele>132.391</ele>
        <time>2019-06-20T12:21:46Z</time>
      </trkpt>
      <trkpt lat="43.759855" lon="-7.865358">
        <ele>134.382</ele>
        <time>2019-06-20T12:21:47Z</time>
      </trkpt>
      <trkpt lat="43.759991" lon="-7.865356">
        <ele>135.578</ele>
        <time>2019-06-20T12:21:48Z</time>
      </trkpt>
      <trkpt lat="43.760133" lon="-7.865342">
        <ele>135.735</ele>
        <time>2019-06-20T12:21:49Z</time>
      </trkpt>
      <trkpt lat="43.760264" lon="-7.865318">
        <ele>135.456</ele>
        <time>2019-06-20T12:21:50Z</time>
      </trkpt>
      <trkpt lat="43.760415" lon="-7.865329">
        <ele>136.728</ele>
        <time>2019-06-20T12:21:51Z</time>
      </trkpt>
      <trkpt lat="43.760583" lon="-7.865341">
        <ele>138.455</ele>
        <time>2019-06-20T12:21:52Z</time>
      </trkpt>
      <trkpt lat="43.760750" lon="-7.865361">
        <ele>141.543</ele>
        <time>2019-06-20T12:21:53Z</time>
      </trkpt>
      <trkpt lat="43.760890" lon="-7.865448">
        <ele>146.164</ele>
        <time>2019-06-20T12:21:54Z</time>
      </trkpt>
      <trkpt lat="43.761000" lon="-7.865537">
        <ele>149.210</ele>
        <time>2019-06-20T12:21:55Z</time>
      </trkpt>
      <trkpt lat="43.761113" lon="-7.865589">
        <ele>150.808</ele>
        <time>2019-06-20T12:21:56Z</time>
      </trkpt>
      <trkpt lat="43.761240" lon="-7.865657">
        <ele>154.827</ele>
        <time>2019-06-20T12:21:57Z</time>
      </trkpt>
      <trkpt lat="43.761296" lon="-7.865635">
        <ele>155.521</ele>
        <time>2019-06-20T12:21:58Z</time>
      </trkpt>
      <trkpt lat="43.761354" lon="-7.865569">
        <ele>155.592</ele>
        <time>2019-06-20T12:21:59Z</time>
      </trkpt>
      <trkpt lat="43.761425" lon="-7.865523">
        <ele>156.928</ele>
        <time>2019-06-20T12:22:00Z</time>
      </trkpt>
      <trkpt lat="43.761487" lon="-7.865440">
        <ele>158.115</ele>
        <time>2019-06-20T12:22:01Z</time>
      </trkpt>
      <trkpt lat="43.761548" lon="-7.865355">
        <ele>159.186</ele>
        <time>2019-06-20T12:22:02Z</time>
      </trkpt>
      <trkpt lat="43.761621" lon="-7.865257">
        <ele>160.158</ele>
        <time>2019-06-20T12:22:03Z</time>
      </trkpt>
      <trkpt lat="43.761705" lon="-7.865150">
        <ele>160.295</ele>
        <time>2019-06-20T12:22:04Z</time>
      </trkpt>
      <trkpt lat="43.761764" lon="-7.865024">
        <ele>159.349</ele>
        <time>2019-06-20T12:22:05Z</time>
      </trkpt>
      <trkpt lat="43.761861" lon="-7.864892">
        <ele>159.802</ele>
        <time>2019-06-20T12:22:06Z</time>
      </trkpt>
      <trkpt lat="43.761929" lon="-7.864753">
        <ele>159.222</ele>
        <time>2019-06-20T12:22:07Z</time>
      </trkpt>
      <trkpt lat="43.762026" lon="-7.864605">
        <ele>159.908</ele>
        <time>2019-06-20T12:22:08Z</time>
      </trkpt>
      <trkpt lat="43.762116" lon="-7.864459">
        <ele>159.957</ele>
        <time>2019-06-20T12:22:09Z</time>
      </trkpt>
      <trkpt lat="43.762238" lon="-7.864334">
        <ele>160.351</ele>
        <time>2019-06-20T12:22:10Z</time>
      </trkpt>
      <trkpt lat="43.762331" lon="-7.864195">
        <ele>159.382</ele>
        <time>2019-06-20T12:22:11Z</time>
      </trkpt>
      <trkpt lat="43.762461" lon="-7.864066">
        <ele>161.098</ele>
        <time>2019-06-20T12:22:12Z</time>
      </trkpt>
      <trkpt lat="43.762593" lon="-7.863948">
        <ele>163.155</ele>
        <time>2019-06-20T12:22:13Z</time>
      </trkpt>
      <trkpt lat="43.762708" lon="-7.863836">
        <ele>165.176</ele>
        <time>2019-06-20T12:22:14Z</time>
      </trkpt>
      <trkpt lat="43.762816" lon="-7.863720">
        <ele>166.398</ele>
        <time>2019-06-20T12:22:15Z</time>
      </trkpt>
      <trkpt lat="43.762898" lon="-7.863595">
        <ele>165.485</ele>
        <time>2019-06-20T12:22:16Z</time>
      </trkpt>
      <trkpt lat="43.762990" lon="-7.863509">
        <ele>165.258</ele>
        <time>2019-06-20T12:22:17Z</time>
      </trkpt>
      <trkpt lat="43.763089" lon="-7.863443">
        <ele>165.052</ele>
        <time>2019-06-20T12:22:18Z</time>
      </trkpt>
      <trkpt lat="43.763195" lon="-7.863431">
        <ele>165.017</ele>
        <time>2019-06-20T12:22:19Z</time>
      </trkpt>
      <trkpt lat="43.763349" lon="-7.863455">
        <ele>165.708</ele>
        <time>2019-06-20T12:22:20Z</time>
      </trkpt>
      <trkpt lat="43.763469" lon="-7.863490">
        <ele>164.628</ele>
        <time>2019-06-20T12:22:21Z</time>
      </trkpt>
      <trkpt lat="43.763595" lon="-7.863551">
        <ele>163.862</ele>
        <time>2019-06-20T12:22:22Z</time>
      </trkpt>
      <trkpt lat="43.763723" lon="-7.863626">
        <ele>164.923</ele>
        <time>2019-06-20T12:22:23Z</time>
      </trkpt>
      <trkpt lat="43.763837" lon="-7.863719">
        <ele>166.439</ele>
        <time>2019-06-20T12:22:24Z</time>
      </trkpt>
      <trkpt lat="43.763960" lon="-7.863810">
        <ele>167.836</ele>
        <time>2019-06-20T12:22:25Z</time>
      </trkpt>
      <trkpt lat="43.764070" lon="-7.863886">
        <ele>168.647</ele>
        <time>2019-06-20T12:22:26Z</time>
      </trkpt>
      <trkpt lat="43.764160" lon="-7.863976">
        <ele>169.339</ele>
        <time>2019-06-20T12:22:27Z</time>
      </trkpt>
      <trkpt lat="43.764227" lon="-7.864072">
        <ele>169.376</ele>
        <time>2019-06-20T12:22:28Z</time>
      </trkpt>
      <trkpt lat="43.764292" lon="-7.864183">
        <ele>169.541</ele>
        <time>2019-06-20T12:22:29Z</time>
      </trkpt>
      <trkpt lat="43.764355" lon="-7.864294">
        <ele>169.981</ele>
        <time>2019-06-20T12:22:30Z</time>
      </trkpt>
      <trkpt lat="43.764416" lon="-7.864440">
        <ele>171.309</ele>
        <time>2019-06-20T12:22:31Z</time>
      </trkpt>
      <trkpt lat="43.764465" lon="-7.864601">
        <ele>173.308</ele>
        <time>2019-06-20T12:22:32Z</time>
      </trkpt>
      <trkpt lat="43.764520" lon="-7.864765">
        <ele>175.247</ele>
        <time>2019-06-20T12:22:33Z</time>
      </trkpt>
      <trkpt lat="43.764599" lon="-7.864923">
        <ele>176.771</ele>
        <time>2019-06-20T12:22:34Z</time>
      </trkpt>
      <trkpt lat="43.764665" lon="-7.865071">
        <ele>178.722</ele>
        <time>2019-06-20T12:22:35Z</time>
      </trkpt>
      <trkpt lat="43.764773" lon="-7.865213">
        <ele>180.028</ele>
        <time>2019-06-20T12:22:36Z</time>
      </trkpt>
      <trkpt lat="43.764860" lon="-7.865359">
        <ele>181.375</ele>
        <time>2019-06-20T12:22:37Z</time>
      </trkpt>
      <trkpt lat="43.764950" lon="-7.865515">
        <ele>182.456</ele>
        <time>2019-06-20T12:22:38Z</time>
      </trkpt>
      <trkpt lat="43.765046" lon="-7.865650">
        <ele>182.378</ele>
        <time>2019-06-20T12:22:39Z</time>
      </trkpt>
      <trkpt lat="43.765137" lon="-7.865755">
        <ele>181.085</ele>
        <time>2019-06-20T12:22:40Z</time>
      </trkpt>
      <trkpt lat="43.765213" lon="-7.865819">
        <ele>179.491</ele>
        <time>2019-06-20T12:22:41Z</time>
      </trkpt>
      <trkpt lat="43.765268" lon="-7.865845">
        <ele>177.881</ele>
        <time>2019-06-20T12:22:42Z</time>
      </trkpt>
      <trkpt lat="43.765328" lon="-7.865868">
        <ele>175.219</ele>
        <time>2019-06-20T12:22:44Z</time>
      </trkpt>
      <trkpt lat="43.765378" lon="-7.865828">
        <ele>171.108</ele>
        <time>2019-06-20T12:24:25Z</time>
      </trkpt>
      <trkpt lat="43.765402" lon="-7.865891">
        <ele>171.822</ele>
        <time>2019-06-20T12:24:27Z</time>
      </trkpt>
      <trkpt lat="43.765441" lon="-7.865980">
        <ele>172.866</ele>
        <time>2019-06-20T12:24:28Z</time>
      </trkpt>
      <trkpt lat="43.765470" lon="-7.866059">
        <ele>174.147</ele>
        <time>2019-06-20T12:24:29Z</time>
      </trkpt>
      <trkpt lat="43.765534" lon="-7.866180">
        <ele>176.263</ele>
        <time>2019-06-20T12:24:30Z</time>
      </trkpt>
      <trkpt lat="43.765601" lon="-7.866283">
        <ele>178.560</ele>
        <time>2019-06-20T12:24:31Z</time>
      </trkpt>
      <trkpt lat="43.765679" lon="-7.866377">
        <ele>180.461</ele>
        <time>2019-06-20T12:24:32Z</time>
      </trkpt>
      <trkpt lat="43.765772" lon="-7.866456">
        <ele>181.483</ele>
        <time>2019-06-20T12:24:33Z</time>
      </trkpt>
      <trkpt lat="43.765858" lon="-7.866535">
        <ele>182.490</ele>
        <time>2019-06-20T12:24:34Z</time>
      </trkpt>
      <trkpt lat="43.765943" lon="-7.866608">
        <ele>182.757</ele>
        <time>2019-06-20T12:24:35Z</time>
      </trkpt>
      <trkpt lat="43.766025" lon="-7.866677">
        <ele>182.800</ele>
        <time>2019-06-20T12:24:36Z</time>
      </trkpt>
      <trkpt lat="43.766102" lon="-7.866741">
        <ele>182.620</ele>
        <time>2019-06-20T12:24:37Z</time>
      </trkpt>
      <trkpt lat="43.766175" lon="-7.866800">
        <ele>182.908</ele>
        <time>2019-06-20T12:24:38Z</time>
      </trkpt>
      <trkpt lat="43.766243" lon="-7.866855">
        <ele>183.528</ele>
        <time>2019-06-20T12:24:39Z</time>
      </trkpt>
      <trkpt lat="43.766303" lon="-7.866890">
        <ele>183.532</ele>
        <time>2019-06-20T12:24:40Z</time>
      </trkpt>
      <trkpt lat="43.766375" lon="-7.866891">
        <ele>181.733</ele>
        <time>2019-06-20T12:24:41Z</time>
      </trkpt>
      <trkpt lat="43.766448" lon="-7.866878">
        <ele>179.289</ele>
        <time>2019-06-20T12:24:42Z</time>
      </trkpt>
      <trkpt lat="43.766522" lon="-7.866857">
        <ele>176.246</ele>
        <time>2019-06-20T12:24:43Z</time>
      </trkpt>
      <trkpt lat="43.766579" lon="-7.866831">
        <ele>173.547</ele>
        <time>2019-06-20T12:24:44Z</time>
      </trkpt>
      <trkpt lat="43.766647" lon="-7.866823">
        <ele>171.439</ele>
        <time>2019-06-20T12:24:45Z</time>
      </trkpt>
      <trkpt lat="43.766712" lon="-7.866839">
        <ele>169.696</ele>
        <time>2019-06-20T12:24:46Z</time>
      </trkpt>
      <trkpt lat="43.766796" lon="-7.866880">
        <ele>167.817</ele>
        <time>2019-06-20T12:24:47Z</time>
      </trkpt>
      <trkpt lat="43.766880" lon="-7.866936">
        <ele>166.687</ele>
        <time>2019-06-20T12:24:48Z</time>
      </trkpt>
      <trkpt lat="43.766954" lon="-7.867005">
        <ele>167.515</ele>
        <time>2019-06-20T12:24:49Z</time>
      </trkpt>
      <trkpt lat="43.767037" lon="-7.867072">
        <ele>167.508</ele>
        <time>2019-06-20T12:24:50Z</time>
      </trkpt>
      <trkpt lat="43.767124" lon="-7.867138">
        <ele>166.554</ele>
        <time>2019-06-20T12:24:51Z</time>
      </trkpt>
      <trkpt lat="43.767225" lon="-7.867191">
        <ele>163.418</ele>
        <time>2019-06-20T12:24:52Z</time>
      </trkpt>
      <trkpt lat="43.767329" lon="-7.867235">
        <ele>161.899</ele>
        <time>2019-06-20T12:24:53Z</time>
      </trkpt>
      <trkpt lat="43.767435" lon="-7.867277">
        <ele>159.795</ele>
        <time>2019-06-20T12:24:54Z</time>
      </trkpt>
      <trkpt lat="43.767541" lon="-7.867317">
        <ele>157.572</ele>
        <time>2019-06-20T12:24:55Z</time>
      </trkpt>
      <trkpt lat="43.767663" lon="-7.867344">
        <ele>154.893</ele>
        <time>2019-06-20T12:24:56Z</time>
      </trkpt>
      <trkpt lat="43.767776" lon="-7.867354">
        <ele>151.725</ele>
        <time>2019-06-20T12:24:57Z</time>
      </trkpt>
      <trkpt lat="43.767891" lon="-7.867375">
        <ele>147.672</ele>
        <time>2019-06-20T12:24:58Z</time>
      </trkpt>
      <trkpt lat="43.768005" lon="-7.867416">
        <ele>145.042</ele>
        <time>2019-06-20T12:24:59Z</time>
      </trkpt>
      <trkpt lat="43.768106" lon="-7.867481">
        <ele>144.322</ele>
        <time>2019-06-20T12:25:00Z</time>
      </trkpt>
      <trkpt lat="43.768184" lon="-7.867549">
        <ele>144.014</ele>
        <time>2019-06-20T12:25:01Z</time>
      </trkpt>
      <trkpt lat="43.768256" lon="-7.867635">
        <ele>144.908</ele>
        <time>2019-06-20T12:25:02Z</time>
      </trkpt>
      <trkpt lat="43.768308" lon="-7.867728">
        <ele>147.487</ele>
        <time>2019-06-20T12:25:03Z</time>
      </trkpt>
      <trkpt lat="43.768360" lon="-7.867822">
        <ele>150.071</ele>
        <time>2019-06-20T12:25:04Z</time>
      </trkpt>
      <trkpt lat="43.768409" lon="-7.867907">
        <ele>152.352</ele>
        <time>2019-06-20T12:25:05Z</time>
      </trkpt>
      <trkpt lat="43.768467" lon="-7.867973">
        <ele>153.358</ele>
        <time>2019-06-20T12:25:06Z</time>
      </trkpt>
      <trkpt lat="43.768518" lon="-7.868035">
        <ele>154.875</ele>
        <time>2019-06-20T12:25:07Z</time>
      </trkpt>
      <trkpt lat="43.768570" lon="-7.868086">
        <ele>155.736</ele>
        <time>2019-06-20T12:25:08Z</time>
      </trkpt>
      <trkpt lat="43.768621" lon="-7.868132">
        <ele>156.218</ele>
        <time>2019-06-20T12:25:09Z</time>
      </trkpt>
      <trkpt lat="43.768687" lon="-7.868174">
        <ele>154.145</ele>
        <time>2019-06-20T12:25:10Z</time>
      </trkpt>
      <trkpt lat="43.768740" lon="-7.868224">
        <ele>153.316</ele>
        <time>2019-06-20T12:25:11Z</time>
      </trkpt>
      <trkpt lat="43.768801" lon="-7.868262">
        <ele>150.976</ele>
        <time>2019-06-20T12:25:12Z</time>
      </trkpt>
      <trkpt lat="43.768865" lon="-7.868283">
        <ele>147.113</ele>
        <time>2019-06-20T12:25:13Z</time>
      </trkpt>
      <trkpt lat="43.768921" lon="-7.868301">
        <ele>144.108</ele>
        <time>2019-06-20T12:25:14Z</time>
      </trkpt>
      <trkpt lat="43.768972" lon="-7.868318">
        <ele>141.574</ele>
        <time>2019-06-20T12:25:15Z</time>
      </trkpt>
      <trkpt lat="43.769019" lon="-7.868332">
        <ele>139.068</ele>
        <time>2019-06-20T12:25:16Z</time>
      </trkpt>
      <trkpt lat="43.769095" lon="-7.868363">
        <ele>135.279</ele>
        <time>2019-06-20T12:25:18Z</time>
      </trkpt>
      <trkpt lat="43.769129" lon="-7.868410">
        <ele>135.035</ele>
        <time>2019-06-20T12:25:22Z</time>
      </trkpt>
      <trkpt lat="43.769081" lon="-7.868399">
        <ele>137.822</ele>
        <time>2019-06-20T12:25:46Z</time>
      </trkpt>
      <trkpt lat="43.769132" lon="-7.868469">
        <ele>137.423</ele>
        <time>2019-06-20T12:26:43Z</time>
      </trkpt>
      <trkpt lat="43.769176" lon="-7.868546">
        <ele>137.715</ele>
        <time>2019-06-20T12:26:44Z</time>
      </trkpt>
      <trkpt lat="43.769244" lon="-7.868594">
        <ele>135.872</ele>
        <time>2019-06-20T12:26:45Z</time>
      </trkpt>
      <trkpt lat="43.769314" lon="-7.868643">
        <ele>133.583</ele>
        <time>2019-06-20T12:26:46Z</time>
      </trkpt>
      <trkpt lat="43.769388" lon="-7.868692">
        <ele>130.625</ele>
        <time>2019-06-20T12:26:47Z</time>
      </trkpt>
      <trkpt lat="43.769468" lon="-7.868743">
        <ele>127.617</ele>
        <time>2019-06-20T12:26:48Z</time>
      </trkpt>
      <trkpt lat="43.769554" lon="-7.868795">
        <ele>124.808</ele>
        <time>2019-06-20T12:26:49Z</time>
      </trkpt>
      <trkpt lat="43.769643" lon="-7.868851">
        <ele>121.971</ele>
        <time>2019-06-20T12:26:50Z</time>
      </trkpt>
      <trkpt lat="43.769731" lon="-7.868912">
        <ele>119.285</ele>
        <time>2019-06-20T12:26:51Z</time>
      </trkpt>
      <trkpt lat="43.769806" lon="-7.868974">
        <ele>118.256</ele>
        <time>2019-06-20T12:26:52Z</time>
      </trkpt>
      <trkpt lat="43.769881" lon="-7.869026">
        <ele>117.112</ele>
        <time>2019-06-20T12:26:53Z</time>
      </trkpt>
      <trkpt lat="43.769958" lon="-7.869068">
        <ele>115.869</ele>
        <time>2019-06-20T12:26:54Z</time>
      </trkpt>
      <trkpt lat="43.770035" lon="-7.869094">
        <ele>113.570</ele>
        <time>2019-06-20T12:26:55Z</time>
      </trkpt>
      <trkpt lat="43.770115" lon="-7.869113">
        <ele>110.282</ele>
        <time>2019-06-20T12:26:56Z</time>
      </trkpt>
      <trkpt lat="43.770189" lon="-7.869133">
        <ele>107.259</ele>
        <time>2019-06-20T12:26:57Z</time>
      </trkpt>
      <trkpt lat="43.770262" lon="-7.869161">
        <ele>104.691</ele>
        <time>2019-06-20T12:26:58Z</time>
      </trkpt>
      <trkpt lat="43.770333" lon="-7.869199">
        <ele>102.881</ele>
        <time>2019-06-20T12:26:59Z</time>
      </trkpt>
      <trkpt lat="43.770405" lon="-7.869235">
        <ele>101.019</ele>
        <time>2019-06-20T12:27:00Z</time>
      </trkpt>
      <trkpt lat="43.770473" lon="-7.869264">
        <ele>99.208</ele>
        <time>2019-06-20T12:27:01Z</time>
      </trkpt>
      <trkpt lat="43.770532" lon="-7.869286">
        <ele>97.562</ele>
        <time>2019-06-20T12:27:02Z</time>
      </trkpt>
      <trkpt lat="43.770588" lon="-7.869311">
        <ele>95.986</ele>
        <time>2019-06-20T12:27:03Z</time>
      </trkpt>
      <trkpt lat="43.770634" lon="-7.869339">
        <ele>94.947</ele>
        <time>2019-06-20T12:27:04Z</time>
      </trkpt>
      <trkpt lat="43.770682" lon="-7.869361">
        <ele>94.023</ele>
        <time>2019-06-20T12:27:05Z</time>
      </trkpt>
      <trkpt lat="43.770729" lon="-7.869375">
        <ele>93.040</ele>
        <time>2019-06-20T12:27:06Z</time>
      </trkpt>
      <trkpt lat="43.770780" lon="-7.869406">
        <ele>92.731</ele>
        <time>2019-06-20T12:27:07Z</time>
      </trkpt>
      <trkpt lat="43.770876" lon="-7.869460">
        <ele>89.983</ele>
        <time>2019-06-20T12:27:09Z</time>
      </trkpt>
      <trkpt lat="43.770925" lon="-7.869490">
        <ele>86.950</ele>
        <time>2019-06-20T12:27:10Z</time>
      </trkpt>
      <trkpt lat="43.770982" lon="-7.869507">
        <ele>83.244</ele>
        <time>2019-06-20T12:27:11Z</time>
      </trkpt>
      <trkpt lat="43.771056" lon="-7.869567">
        <ele>80.305</ele>
        <time>2019-06-20T12:27:13Z</time>
      </trkpt>
      <trkpt lat="43.771058" lon="-7.869631">
        <ele>82.815</ele>
        <time>2019-06-20T12:27:26Z</time>
      </trkpt>
      <trkpt lat="43.771010" lon="-7.869623">
        <ele>85.308</ele>
        <time>2019-06-20T12:28:11Z</time>
      </trkpt>
      <trkpt lat="43.770986" lon="-7.869563">
        <ele>84.747</ele>
        <time>2019-06-20T12:28:22Z</time>
      </trkpt>
      <trkpt lat="43.770985" lon="-7.869625">
        <ele>86.841</ele>
        <time>2019-06-20T12:28:58Z</time>
      </trkpt>
      <trkpt lat="43.770989" lon="-7.869560">
        <ele>84.452</ele>
        <time>2019-06-20T12:29:12Z</time>
      </trkpt>
      <trkpt lat="43.771032" lon="-7.869520">
        <ele>80.158</ele>
        <time>2019-06-20T12:29:16Z</time>
      </trkpt>
      <trkpt lat="43.771081" lon="-7.869554">
        <ele>78.115</ele>
        <time>2019-06-20T12:29:28Z</time>
      </trkpt>
      <trkpt lat="43.771125" lon="-7.869601">
        <ele>77.216</ele>
        <time>2019-06-20T12:29:44Z</time>
      </trkpt>
      <trkpt lat="43.771154" lon="-7.869649">
        <ele>76.918</ele>
        <time>2019-06-20T12:29:49Z</time>
      </trkpt>
      <trkpt lat="43.771189" lon="-7.869695">
        <ele>75.565</ele>
        <time>2019-06-20T12:29:54Z</time>
      </trkpt>
      <trkpt lat="43.771167" lon="-7.869759">
        <ele>78.674</ele>
        <time>2019-06-20T12:30:05Z</time>
      </trkpt>
      <trkpt lat="43.771122" lon="-7.869793">
        <ele>83.056</ele>
        <time>2019-06-20T12:30:54Z</time>
      </trkpt>
      <trkpt lat="43.771080" lon="-7.869754">
        <ele>85.321</ele>
        <time>2019-06-20T12:31:09Z</time>
      </trkpt>
      <trkpt lat="43.771036" lon="-7.869715">
        <ele>87.208</ele>
        <time>2019-06-20T12:31:30Z</time>
      </trkpt>
      <trkpt lat="43.771002" lon="-7.869669">
        <ele>87.390</ele>
        <time>2019-06-20T12:31:34Z</time>
      </trkpt>
      <trkpt lat="43.771008" lon="-7.869606">
        <ele>84.874</ele>
        <time>2019-06-20T12:31:40Z</time>
      </trkpt>
      <trkpt lat="43.771004" lon="-7.869534">
        <ele>82.695</ele>
        <time>2019-06-20T12:31:46Z</time>
      </trkpt>
      <trkpt lat="43.771048" lon="-7.869608">
        <ele>82.431</ele>
        <time>2019-06-20T12:37:44Z</time>
      </trkpt>
      <trkpt lat="43.771025" lon="-7.869664">
        <ele>85.918</ele>
        <time>2019-06-20T12:37:51Z</time>
      </trkpt>
      <trkpt lat="43.770970" lon="-7.869618">
        <ele>87.449</ele>
        <time>2019-06-20T12:40:24Z</time>
      </trkpt>
      <trkpt lat="43.770902" lon="-7.869577">
        <ele>90.511</ele>
        <time>2019-06-20T12:40:26Z</time>
      </trkpt>
      <trkpt lat="43.770836" lon="-7.869525">
        <ele>94.018</ele>
        <time>2019-06-20T12:40:28Z</time>
      </trkpt>
      <trkpt lat="43.770790" lon="-7.869489">
        <ele>94.478</ele>
        <time>2019-06-20T12:40:29Z</time>
      </trkpt>
      <trkpt lat="43.770750" lon="-7.869448">
        <ele>94.833</ele>
        <time>2019-06-20T12:40:30Z</time>
      </trkpt>
      <trkpt lat="43.770688" lon="-7.869380">
        <ele>94.326</ele>
        <time>2019-06-20T12:40:32Z</time>
      </trkpt>
      <trkpt lat="43.770621" lon="-7.869331">
        <ele>95.208</ele>
        <time>2019-06-20T12:40:34Z</time>
      </trkpt>
      <trkpt lat="43.770561" lon="-7.869287">
        <ele>96.540</ele>
        <time>2019-06-20T12:40:49Z</time>
      </trkpt>
      <trkpt lat="43.770513" lon="-7.869261">
        <ele>97.864</ele>
        <time>2019-06-20T12:40:50Z</time>
      </trkpt>
      <trkpt lat="43.770447" lon="-7.869228">
        <ele>99.595</ele>
        <time>2019-06-20T12:40:51Z</time>
      </trkpt>
      <trkpt lat="43.770366" lon="-7.869192">
        <ele>101.651</ele>
        <time>2019-06-20T12:40:52Z</time>
      </trkpt>
      <trkpt lat="43.770264" lon="-7.869159">
        <ele>104.468</ele>
        <time>2019-06-20T12:40:53Z</time>
      </trkpt>
      <trkpt lat="43.770163" lon="-7.869134">
        <ele>108.529</ele>
        <time>2019-06-20T12:40:54Z</time>
      </trkpt>
      <trkpt lat="43.770060" lon="-7.869111">
        <ele>112.711</ele>
        <time>2019-06-20T12:40:55Z</time>
      </trkpt>
      <trkpt lat="43.769957" lon="-7.869092">
        <ele>116.468</ele>
        <time>2019-06-20T12:40:56Z</time>
      </trkpt>
      <trkpt lat="43.769843" lon="-7.869045">
        <ele>118.727</ele>
        <time>2019-06-20T12:40:57Z</time>
      </trkpt>
      <trkpt lat="43.769732" lon="-7.868986">
        <ele>120.868</ele>
        <time>2019-06-20T12:40:58Z</time>
      </trkpt>
      <trkpt lat="43.769620" lon="-7.868915">
        <ele>124.714</ele>
        <time>2019-06-20T12:40:59Z</time>
      </trkpt>
      <trkpt lat="43.769501" lon="-7.868842">
        <ele>128.808</ele>
        <time>2019-06-20T12:41:00Z</time>
      </trkpt>
      <trkpt lat="43.769382" lon="-7.868765">
        <ele>133.295</ele>
        <time>2019-06-20T12:41:01Z</time>
      </trkpt>
      <trkpt lat="43.769255" lon="-7.868690">
        <ele>138.469</ele>
        <time>2019-06-20T12:41:02Z</time>
      </trkpt>
      <trkpt lat="43.769130" lon="-7.868609">
        <ele>143.740</ele>
        <time>2019-06-20T12:41:03Z</time>
      </trkpt>
      <trkpt lat="43.769002" lon="-7.868525">
        <ele>149.496</ele>
        <time>2019-06-20T12:41:04Z</time>
      </trkpt>
      <trkpt lat="43.768870" lon="-7.868443">
        <ele>154.923</ele>
        <time>2019-06-20T12:41:05Z</time>
      </trkpt>
      <trkpt lat="43.768742" lon="-7.868356">
        <ele>160.554</ele>
        <time>2019-06-20T12:41:06Z</time>
      </trkpt>
      <trkpt lat="43.768617" lon="-7.868278">
        <ele>166.026</ele>
        <time>2019-06-20T12:41:07Z</time>
      </trkpt>
      <trkpt lat="43.768494" lon="-7.868189">
        <ele>165.153</ele>
        <time>2019-06-20T12:41:08Z</time>
      </trkpt>
      <trkpt lat="43.768389" lon="-7.868089">
        <ele>163.524</ele>
        <time>2019-06-20T12:41:09Z</time>
      </trkpt>
      <trkpt lat="43.768289" lon="-7.867985">
        <ele>162.004</ele>
        <time>2019-06-20T12:41:10Z</time>
      </trkpt>
      <trkpt lat="43.768201" lon="-7.867863">
        <ele>159.214</ele>
        <time>2019-06-20T12:41:11Z</time>
      </trkpt>
      <trkpt lat="43.768132" lon="-7.867735">
        <ele>155.608</ele>
        <time>2019-06-20T12:41:12Z</time>
      </trkpt>
      <trkpt lat="43.768058" lon="-7.867651">
        <ele>155.035</ele>
        <time>2019-06-20T12:41:13Z</time>
      </trkpt>
      <trkpt lat="43.767983" lon="-7.867578">
        <ele>154.019</ele>
        <time>2019-06-20T12:41:14Z</time>
      </trkpt>
      <trkpt lat="43.767909" lon="-7.867509">
        <ele>153.620</ele>
        <time>2019-06-20T12:41:15Z</time>
      </trkpt>
      <trkpt lat="43.767793" lon="-7.867492">
        <ele>157.146</ele>
        <time>2019-06-20T12:41:16Z</time>
      </trkpt>
      <trkpt lat="43.767679" lon="-7.867462">
        <ele>159.383</ele>
        <time>2019-06-20T12:41:17Z</time>
      </trkpt>
      <trkpt lat="43.767557" lon="-7.867442">
        <ele>162.084</ele>
        <time>2019-06-20T12:41:18Z</time>
      </trkpt>
      <trkpt lat="43.767427" lon="-7.867387">
        <ele>164.816</ele>
        <time>2019-06-20T12:41:19Z</time>
      </trkpt>
      <trkpt lat="43.767304" lon="-7.867339">
        <ele>167.923</ele>
        <time>2019-06-20T12:41:20Z</time>
      </trkpt>
      <trkpt lat="43.767190" lon="-7.867275">
        <ele>169.992</ele>
        <time>2019-06-20T12:41:21Z</time>
      </trkpt>
      <trkpt lat="43.767079" lon="-7.867199">
        <ele>172.573</ele>
        <time>2019-06-20T12:41:22Z</time>
      </trkpt>
      <trkpt lat="43.766971" lon="-7.867125">
        <ele>174.220</ele>
        <time>2019-06-20T12:41:23Z</time>
      </trkpt>
      <trkpt lat="43.766872" lon="-7.867055">
        <ele>174.608</ele>
        <time>2019-06-20T12:41:24Z</time>
      </trkpt>
      <trkpt lat="43.766775" lon="-7.866991">
        <ele>174.912</ele>
        <time>2019-06-20T12:41:25Z</time>
      </trkpt>
      <trkpt lat="43.766678" lon="-7.866959">
        <ele>177.466</ele>
        <time>2019-06-20T12:41:26Z</time>
      </trkpt>
      <trkpt lat="43.766591" lon="-7.866947">
        <ele>179.187</ele>
        <time>2019-06-20T12:41:27Z</time>
      </trkpt>
      <trkpt lat="43.766508" lon="-7.866939">
        <ele>180.793</ele>
        <time>2019-06-20T12:41:28Z</time>
      </trkpt>
      <trkpt lat="43.766428" lon="-7.866944">
        <ele>183.060</ele>
        <time>2019-06-20T12:41:29Z</time>
      </trkpt>
      <trkpt lat="43.766323" lon="-7.866945">
        <ele>185.721</ele>
        <time>2019-06-20T12:41:30Z</time>
      </trkpt>
      <trkpt lat="43.766212" lon="-7.866920">
        <ele>187.393</ele>
        <time>2019-06-20T12:41:31Z</time>
      </trkpt>
      <trkpt lat="43.766108" lon="-7.866854">
        <ele>187.260</ele>
        <time>2019-06-20T12:41:32Z</time>
      </trkpt>
      <trkpt lat="43.765998" lon="-7.866788">
        <ele>188.524</ele>
        <time>2019-06-20T12:41:33Z</time>
      </trkpt>
      <trkpt lat="43.765902" lon="-7.866708">
        <ele>189.004</ele>
        <time>2019-06-20T12:41:34Z</time>
      </trkpt>
      <trkpt lat="43.765804" lon="-7.866625">
        <ele>188.814</ele>
        <time>2019-06-20T12:41:35Z</time>
      </trkpt>
      <trkpt lat="43.765720" lon="-7.866541">
        <ele>187.308</ele>
        <time>2019-06-20T12:41:36Z</time>
      </trkpt>
      <trkpt lat="43.765637" lon="-7.866462">
        <ele>186.015</ele>
        <time>2019-06-20T12:41:37Z</time>
      </trkpt>
      <trkpt lat="43.765570" lon="-7.866364">
        <ele>183.449</ele>
        <time>2019-06-20T12:41:38Z</time>
      </trkpt>
      <trkpt lat="43.765506" lon="-7.866261">
        <ele>180.930</ele>
        <time>2019-06-20T12:41:39Z</time>
      </trkpt>
      <trkpt lat="43.765448" lon="-7.866156">
        <ele>178.986</ele>
        <time>2019-06-20T12:41:40Z</time>
      </trkpt>
      <trkpt lat="43.765381" lon="-7.866058">
        <ele>178.453</ele>
        <time>2019-06-20T12:41:41Z</time>
      </trkpt>
      <trkpt lat="43.765301" lon="-7.865958">
        <ele>179.494</ele>
        <time>2019-06-20T12:41:42Z</time>
      </trkpt>
      <trkpt lat="43.765219" lon="-7.865863">
        <ele>180.336</ele>
        <time>2019-06-20T12:41:43Z</time>
      </trkpt>
      <trkpt lat="43.765139" lon="-7.865768">
        <ele>181.213</ele>
        <time>2019-06-20T12:41:44Z</time>
      </trkpt>
      <trkpt lat="43.765061" lon="-7.865664">
        <ele>182.053</ele>
        <time>2019-06-20T12:41:45Z</time>
      </trkpt>
      <trkpt lat="43.764983" lon="-7.865565">
        <ele>182.704</ele>
        <time>2019-06-20T12:41:46Z</time>
      </trkpt>
      <trkpt lat="43.764926" lon="-7.865451">
        <ele>181.614</ele>
        <time>2019-06-20T12:41:47Z</time>
      </trkpt>
      <trkpt lat="43.764863" lon="-7.865346">
        <ele>180.908</ele>
        <time>2019-06-20T12:41:48Z</time>
      </trkpt>
      <trkpt lat="43.764808" lon="-7.865273">
        <ele>180.778</ele>
        <time>2019-06-20T12:41:49Z</time>
      </trkpt>
      <trkpt lat="43.764748" lon="-7.865175">
        <ele>179.752</ele>
        <time>2019-06-20T12:41:50Z</time>
      </trkpt>
      <trkpt lat="43.764682" lon="-7.865082">
        <ele>178.713</ele>
        <time>2019-06-20T12:41:51Z</time>
      </trkpt>
      <trkpt lat="43.764622" lon="-7.864991">
        <ele>177.689</ele>
        <time>2019-06-20T12:41:52Z</time>
      </trkpt>
      <trkpt lat="43.764567" lon="-7.864885">
        <ele>176.546</ele>
        <time>2019-06-20T12:41:53Z</time>
      </trkpt>
      <trkpt lat="43.764517" lon="-7.864777">
        <ele>175.537</ele>
        <time>2019-06-20T12:41:54Z</time>
      </trkpt>
      <trkpt lat="43.764484" lon="-7.864664">
        <ele>174.039</ele>
        <time>2019-06-20T12:41:55Z</time>
      </trkpt>
      <trkpt lat="43.764443" lon="-7.864549">
        <ele>172.986</ele>
        <time>2019-06-20T12:41:56Z</time>
      </trkpt>
      <trkpt lat="43.764400" lon="-7.864423">
        <ele>171.316</ele>
        <time>2019-06-20T12:41:57Z</time>
      </trkpt>
      <trkpt lat="43.764359" lon="-7.864298">
        <ele>169.976</ele>
        <time>2019-06-20T12:41:58Z</time>
      </trkpt>
      <trkpt lat="43.764310" lon="-7.864175">
        <ele>169.013</ele>
        <time>2019-06-20T12:41:59Z</time>
      </trkpt>
      <trkpt lat="43.764253" lon="-7.864086">
        <ele>168.908</ele>
        <time>2019-06-20T12:42:00Z</time>
      </trkpt>
      <trkpt lat="43.764193" lon="-7.863992">
        <ele>168.914</ele>
        <time>2019-06-20T12:42:01Z</time>
      </trkpt>
      <trkpt lat="43.764106" lon="-7.863930">
        <ele>169.078</ele>
        <time>2019-06-20T12:42:02Z</time>
      </trkpt>
      <trkpt lat="43.764018" lon="-7.863855">
        <ele>168.389</ele>
        <time>2019-06-20T12:42:03Z</time>
      </trkpt>
      <trkpt lat="43.763932" lon="-7.863788">
        <ele>167.525</ele>
        <time>2019-06-20T12:42:04Z</time>
      </trkpt>
      <trkpt lat="43.763831" lon="-7.863706">
        <ele>166.252</ele>
        <time>2019-06-20T12:42:05Z</time>
      </trkpt>
      <trkpt lat="43.763735" lon="-7.863629">
        <ele>164.993</ele>
        <time>2019-06-20T12:42:06Z</time>
      </trkpt>
      <trkpt lat="43.763663" lon="-7.863570">
        <ele>163.855</ele>
        <time>2019-06-20T12:42:07Z</time>
      </trkpt>
      <trkpt lat="43.763567" lon="-7.863508">
        <ele>163.212</ele>
        <time>2019-06-20T12:42:08Z</time>
      </trkpt>
      <trkpt lat="43.763472" lon="-7.863458">
        <ele>163.657</ele>
        <time>2019-06-20T12:42:09Z</time>
      </trkpt>
      <trkpt lat="43.763367" lon="-7.863456">
        <ele>165.400</ele>
        <time>2019-06-20T12:42:10Z</time>
      </trkpt>
      <trkpt lat="43.763264" lon="-7.863452">
        <ele>165.720</ele>
        <time>2019-06-20T12:42:11Z</time>
      </trkpt>
      <trkpt lat="43.763165" lon="-7.863456">
        <ele>165.508</ele>
        <time>2019-06-20T12:42:12Z</time>
      </trkpt>
      <trkpt lat="43.763082" lon="-7.863482">
        <ele>165.848</ele>
        <time>2019-06-20T12:42:13Z</time>
      </trkpt>
      <trkpt lat="43.762982" lon="-7.863539">
        <ele>165.682</ele>
        <time>2019-06-20T12:42:14Z</time>
      </trkpt>
      <trkpt lat="43.762884" lon="-7.863593">
        <ele>165.233</ele>
        <time>2019-06-20T12:42:15Z</time>
      </trkpt>
      <trkpt lat="43.762788" lon="-7.863714">
        <ele>165.759</ele>
        <time>2019-06-20T12:42:16Z</time>
      </trkpt>
      <trkpt lat="43.762699" lon="-7.863815">
        <ele>164.576</ele>
        <time>2019-06-20T12:42:17Z</time>
      </trkpt>
      <trkpt lat="43.762600" lon="-7.863907">
        <ele>162.667</ele>
        <time>2019-06-20T12:42:18Z</time>
      </trkpt>
      <trkpt lat="43.762499" lon="-7.864004">
        <ele>161.049</ele>
        <time>2019-06-20T12:42:19Z</time>
      </trkpt>
      <trkpt lat="43.762397" lon="-7.864101">
        <ele>159.616</ele>
        <time>2019-06-20T12:42:20Z</time>
      </trkpt>
      <trkpt lat="43.762294" lon="-7.864211">
        <ele>158.557</ele>
        <time>2019-06-20T12:42:21Z</time>
      </trkpt>
      <trkpt lat="43.762194" lon="-7.864321">
        <ele>158.600</ele>
        <time>2019-06-20T12:42:22Z</time>
      </trkpt>
      <trkpt lat="43.762089" lon="-7.864428">
        <ele>158.220</ele>
        <time>2019-06-20T12:42:23Z</time>
      </trkpt>
      <trkpt lat="43.761995" lon="-7.864542">
        <ele>157.508</ele>
        <time>2019-06-20T12:42:24Z</time>
      </trkpt>
      <trkpt lat="43.761905" lon="-7.864667">
        <ele>157.098</ele>
        <time>2019-06-20T12:42:25Z</time>
      </trkpt>
      <trkpt lat="43.761822" lon="-7.864797">
        <ele>157.182</ele>
        <time>2019-06-20T12:42:26Z</time>
      </trkpt>
      <trkpt lat="43.761747" lon="-7.864938">
        <ele>157.433</ele>
        <time>2019-06-20T12:42:27Z</time>
      </trkpt>
      <trkpt lat="43.761673" lon="-7.865059">
        <ele>157.479</ele>
        <time>2019-06-20T12:42:28Z</time>
      </trkpt>
      <trkpt lat="43.761603" lon="-7.865183">
        <ele>158.046</ele>
        <time>2019-06-20T12:42:29Z</time>
      </trkpt>
      <trkpt lat="43.761529" lon="-7.865311">
        <ele>158.017</ele>
        <time>2019-06-20T12:42:30Z</time>
      </trkpt>
      <trkpt lat="43.761457" lon="-7.865407">
        <ele>156.789</ele>
        <time>2019-06-20T12:42:31Z</time>
      </trkpt>
      <trkpt lat="43.761388" lon="-7.865525">
        <ele>155.756</ele>
        <time>2019-06-20T12:42:32Z</time>
      </trkpt>
      <trkpt lat="43.761350" lon="-7.865563">
        <ele>155.379</ele>
        <time>2019-06-20T12:42:33Z</time>
      </trkpt>
      <trkpt lat="43.761292" lon="-7.865630">
        <ele>155.305</ele>
        <time>2019-06-20T12:42:34Z</time>
      </trkpt>
      <trkpt lat="43.761232" lon="-7.865663">
        <ele>154.825</ele>
        <time>2019-06-20T12:42:35Z</time>
      </trkpt>
      <trkpt lat="43.761153" lon="-7.865666">
        <ele>153.208</ele>
        <time>2019-06-20T12:42:36Z</time>
      </trkpt>
      <trkpt lat="43.761076" lon="-7.865639">
        <ele>151.870</ele>
        <time>2019-06-20T12:42:37Z</time>
      </trkpt>
      <trkpt lat="43.760985" lon="-7.865577">
        <ele>150.144</ele>
        <time>2019-06-20T12:42:38Z</time>
      </trkpt>
      <trkpt lat="43.760885" lon="-7.865534">
        <ele>148.635</ele>
        <time>2019-06-20T12:42:39Z</time>
      </trkpt>
      <trkpt lat="43.760775" lon="-7.865489">
        <ele>146.051</ele>
        <time>2019-06-20T12:42:40Z</time>
      </trkpt>
      <trkpt lat="43.760667" lon="-7.865448">
        <ele>143.188</ele>
        <time>2019-06-20T12:42:41Z</time>
      </trkpt>
      <trkpt lat="43.760555" lon="-7.865423">
        <ele>140.779</ele>
        <time>2019-06-20T12:42:42Z</time>
      </trkpt>
      <trkpt lat="43.760446" lon="-7.865402">
        <ele>139.451</ele>
        <time>2019-06-20T12:42:43Z</time>
      </trkpt>
      <trkpt lat="43.760332" lon="-7.865402">
        <ele>138.878</ele>
        <time>2019-06-20T12:42:44Z</time>
      </trkpt>
      <trkpt lat="43.760220" lon="-7.865402">
        <ele>138.271</ele>
        <time>2019-06-20T12:42:45Z</time>
      </trkpt>
      <trkpt lat="43.760094" lon="-7.865442">
        <ele>138.941</ele>
        <time>2019-06-20T12:42:46Z</time>
      </trkpt>
      <trkpt lat="43.759981" lon="-7.865454">
        <ele>138.515</ele>
        <time>2019-06-20T12:42:47Z</time>
      </trkpt>
      <trkpt lat="43.759881" lon="-7.865459">
        <ele>137.508</ele>
        <time>2019-06-20T12:42:48Z</time>
      </trkpt>
      <trkpt lat="43.759772" lon="-7.865480">
        <ele>136.770</ele>
        <time>2019-06-20T12:42:49Z</time>
      </trkpt>
      <trkpt lat="43.759681" lon="-7.865486">
        <ele>135.684</ele>
        <time>2019-06-20T12:42:50Z</time>
      </trkpt>
      <trkpt lat="43.759623" lon="-7.865490">
        <ele>134.875</ele>
        <time>2019-06-20T12:42:51Z</time>
      </trkpt>
      <trkpt lat="43.759575" lon="-7.865485">
        <ele>134.041</ele>
        <time>2019-06-20T12:42:52Z</time>
      </trkpt>
      <trkpt lat="43.759513" lon="-7.865484">
        <ele>133.068</ele>
        <time>2019-06-20T12:42:54Z</time>
      </trkpt>
      <trkpt lat="43.759470" lon="-7.865458">
        <ele>132.059</ele>
        <time>2019-06-20T12:42:55Z</time>
      </trkpt>
      <trkpt lat="43.759417" lon="-7.865403">
        <ele>130.931</ele>
        <time>2019-06-20T12:42:57Z</time>
      </trkpt>
      <trkpt lat="43.759372" lon="-7.865447">
        <ele>131.838</ele>
        <time>2019-06-20T12:43:36Z</time>
      </trkpt>
      <trkpt lat="43.759343" lon="-7.865397">
        <ele>131.081</ele>
        <time>2019-06-20T12:43:58Z</time>
      </trkpt>
      <trkpt lat="43.759386" lon="-7.865367">
        <ele>130.461</ele>
        <time>2019-06-20T12:44:08Z</time>
      </trkpt>
      <trkpt lat="43.759403" lon="-7.865434">
        <ele>131.417</ele>
        <time>2019-06-20T12:44:20Z</time>
      </trkpt>
      <trkpt lat="43.759448" lon="-7.865408">
        <ele>130.908</ele>
        <time>2019-06-20T12:45:14Z</time>
      </trkpt>
      <trkpt lat="43.759401" lon="-7.865427">
        <ele>131.351</ele>
        <time>2019-06-20T13:01:38Z</time>
      </trkpt>
      <trkpt lat="43.759427" lon="-7.865483">
        <ele>132.035</ele>
        <time>2019-06-20T13:02:31Z</time>
      </trkpt>
      <trkpt lat="43.759404" lon="-7.865555">
        <ele>133.336</ele>
        <time>2019-06-20T13:02:34Z</time>
      </trkpt>
      <trkpt lat="43.759360" lon="-7.865576">
        <ele>134.282</ele>
        <time>2019-06-20T13:02:35Z</time>
      </trkpt>
      <trkpt lat="43.759288" lon="-7.865589">
        <ele>135.159</ele>
        <time>2019-06-20T13:02:36Z</time>
      </trkpt>
      <trkpt lat="43.759202" lon="-7.865597">
        <ele>135.850</ele>
        <time>2019-06-20T13:02:37Z</time>
      </trkpt>
      <trkpt lat="43.759077" lon="-7.865596">
        <ele>136.582</ele>
        <time>2019-06-20T13:02:38Z</time>
      </trkpt>
      <trkpt lat="43.758987" lon="-7.865636">
        <ele>138.269</ele>
        <time>2019-06-20T13:02:39Z</time>
      </trkpt>
      <trkpt lat="43.758899" lon="-7.865696">
        <ele>141.078</ele>
        <time>2019-06-20T13:02:40Z</time>
      </trkpt>
      <trkpt lat="43.758806" lon="-7.865760">
        <ele>142.533</ele>
        <time>2019-06-20T13:02:41Z</time>
      </trkpt>
      <trkpt lat="43.758684" lon="-7.865848">
        <ele>145.026</ele>
        <time>2019-06-20T13:02:42Z</time>
      </trkpt>
      <trkpt lat="43.758580" lon="-7.865924">
        <ele>146.808</ele>
        <time>2019-06-20T13:02:43Z</time>
      </trkpt>
      <trkpt lat="43.758479" lon="-7.866004">
        <ele>148.320</ele>
        <time>2019-06-20T13:02:44Z</time>
      </trkpt>
      <trkpt lat="43.758378" lon="-7.866079">
        <ele>150.184</ele>
        <time>2019-06-20T13:02:45Z</time>
      </trkpt>
      <trkpt lat="43.758298" lon="-7.866143">
        <ele>151.315</ele>
        <time>2019-06-20T13:02:46Z</time>
      </trkpt>
      <trkpt lat="43.758226" lon="-7.866203">
        <ele>151.861</ele>
        <time>2019-06-20T13:02:47Z</time>
      </trkpt>
      <trkpt lat="43.758151" lon="-7.866253">
        <ele>152.138</ele>
        <time>2019-06-20T13:02:48Z</time>
      </trkpt>
      <trkpt lat="43.758068" lon="-7.866312">
        <ele>152.719</ele>
        <time>2019-06-20T13:02:49Z</time>
      </trkpt>
      <trkpt lat="43.757980" lon="-7.866379">
        <ele>152.511</ele>
        <time>2019-06-20T13:02:50Z</time>
      </trkpt>
      <trkpt lat="43.757892" lon="-7.866444">
        <ele>152.648</ele>
        <time>2019-06-20T13:02:51Z</time>
      </trkpt>
      <trkpt lat="43.757767" lon="-7.866524">
        <ele>153.166</ele>
        <time>2019-06-20T13:02:52Z</time>
      </trkpt>
      <trkpt lat="43.757637" lon="-7.866631">
        <ele>155.429</ele>
        <time>2019-06-20T13:02:53Z</time>
      </trkpt>
      <trkpt lat="43.757507" lon="-7.866720">
        <ele>155.721</ele>
        <time>2019-06-20T13:02:54Z</time>
      </trkpt>
      <trkpt lat="43.757378" lon="-7.866826">
        <ele>154.408</ele>
        <time>2019-06-20T13:02:55Z</time>
      </trkpt>
      <trkpt lat="43.757241" lon="-7.866929">
        <ele>153.139</ele>
        <time>2019-06-20T13:02:56Z</time>
      </trkpt>
      <trkpt lat="43.757093" lon="-7.867016">
        <ele>153.243</ele>
        <time>2019-06-20T13:02:57Z</time>
      </trkpt>
      <trkpt lat="43.756948" lon="-7.867117">
        <ele>154.964</ele>
        <time>2019-06-20T13:02:58Z</time>
      </trkpt>
      <trkpt lat="43.756801" lon="-7.867213">
        <ele>157.140</ele>
        <time>2019-06-20T13:02:59Z</time>
      </trkpt>
      <trkpt lat="43.756651" lon="-7.867318">
        <ele>160.217</ele>
        <time>2019-06-20T13:03:00Z</time>
      </trkpt>
      <trkpt lat="43.756513" lon="-7.867390">
        <ele>160.418</ele>
        <time>2019-06-20T13:03:01Z</time>
      </trkpt>
      <trkpt lat="43.756377" lon="-7.867490">
        <ele>161.480</ele>
        <time>2019-06-20T13:03:02Z</time>
      </trkpt>
      <trkpt lat="43.756225" lon="-7.867590">
        <ele>161.417</ele>
        <time>2019-06-20T13:03:03Z</time>
      </trkpt>
      <trkpt lat="43.756092" lon="-7.867701">
        <ele>163.437</ele>
        <time>2019-06-20T13:03:04Z</time>
      </trkpt>
      <trkpt lat="43.755948" lon="-7.867807">
        <ele>167.349</ele>
        <time>2019-06-20T13:03:05Z</time>
      </trkpt>
      <trkpt lat="43.755811" lon="-7.867892">
        <ele>169.913</ele>
        <time>2019-06-20T13:03:06Z</time>
      </trkpt>
      <trkpt lat="43.755664" lon="-7.867976">
        <ele>171.508</ele>
        <time>2019-06-20T13:03:07Z</time>
      </trkpt>
      <trkpt lat="43.755531" lon="-7.868058">
        <ele>171.836</ele>
        <time>2019-06-20T13:03:08Z</time>
      </trkpt>
      <trkpt lat="43.755407" lon="-7.868132">
        <ele>171.360</ele>
        <time>2019-06-20T13:03:09Z</time>
      </trkpt>
      <trkpt lat="43.755312" lon="-7.868191">
        <ele>170.491</ele>
        <time>2019-06-20T13:03:10Z</time>
      </trkpt>
      <trkpt lat="43.755219" lon="-7.868260">
        <ele>169.317</ele>
        <time>2019-06-20T13:03:11Z</time>
      </trkpt>
      <trkpt lat="43.755121" lon="-7.868336">
        <ele>167.764</ele>
        <time>2019-06-20T13:03:12Z</time>
      </trkpt>
      <trkpt lat="43.755022" lon="-7.868413">
        <ele>166.345</ele>
        <time>2019-06-20T13:03:13Z</time>
      </trkpt>
      <trkpt lat="43.754917" lon="-7.868450">
        <ele>164.567</ele>
        <time>2019-06-20T13:03:14Z</time>
      </trkpt>
      <trkpt lat="43.754815" lon="-7.868501">
        <ele>162.734</ele>
        <time>2019-06-20T13:03:15Z</time>
      </trkpt>
      <trkpt lat="43.754682" lon="-7.868582">
        <ele>160.578</ele>
        <time>2019-06-20T13:03:16Z</time>
      </trkpt>
      <trkpt lat="43.754565" lon="-7.868654">
        <ele>159.533</ele>
        <time>2019-06-20T13:03:17Z</time>
      </trkpt>
      <trkpt lat="43.754445" lon="-7.868683">
        <ele>158.326</ele>
        <time>2019-06-20T13:03:18Z</time>
      </trkpt>
      <trkpt lat="43.754329" lon="-7.868716">
        <ele>158.008</ele>
        <time>2019-06-20T13:03:19Z</time>
      </trkpt>
      <trkpt lat="43.754206" lon="-7.868740">
        <ele>157.910</ele>
        <time>2019-06-20T13:03:20Z</time>
      </trkpt>
      <trkpt lat="43.754079" lon="-7.868738">
        <ele>157.954</ele>
        <time>2019-06-20T13:03:21Z</time>
      </trkpt>
      <trkpt lat="43.753958" lon="-7.868743">
        <ele>158.215</ele>
        <time>2019-06-20T13:03:22Z</time>
      </trkpt>
      <trkpt lat="43.753858" lon="-7.868734">
        <ele>158.381</ele>
        <time>2019-06-20T13:03:23Z</time>
      </trkpt>
      <trkpt lat="43.753770" lon="-7.868721">
        <ele>158.668</ele>
        <time>2019-06-20T13:03:24Z</time>
      </trkpt>
      <trkpt lat="43.753682" lon="-7.868729">
        <ele>159.639</ele>
        <time>2019-06-20T13:03:25Z</time>
      </trkpt>
      <trkpt lat="43.753615" lon="-7.868726">
        <ele>160.141</ele>
        <time>2019-06-20T13:03:26Z</time>
      </trkpt>
      <trkpt lat="43.753536" lon="-7.868724">
        <ele>160.278</ele>
        <time>2019-06-20T13:03:27Z</time>
      </trkpt>
      <trkpt lat="43.753457" lon="-7.868716">
        <ele>160.044</ele>
        <time>2019-06-20T13:03:28Z</time>
      </trkpt>
      <trkpt lat="43.753370" lon="-7.868713">
        <ele>160.005</ele>
        <time>2019-06-20T13:03:29Z</time>
      </trkpt>
      <trkpt lat="43.753292" lon="-7.868719">
        <ele>160.415</ele>
        <time>2019-06-20T13:03:30Z</time>
      </trkpt>
      <trkpt lat="43.753203" lon="-7.868740">
        <ele>161.408</ele>
        <time>2019-06-20T13:03:31Z</time>
      </trkpt>
      <trkpt lat="43.753116" lon="-7.868754">
        <ele>162.047</ele>
        <time>2019-06-20T13:03:32Z</time>
      </trkpt>
      <trkpt lat="43.753026" lon="-7.868792">
        <ele>162.551</ele>
        <time>2019-06-20T13:03:33Z</time>
      </trkpt>
      <trkpt lat="43.752934" lon="-7.868834">
        <ele>161.562</ele>
        <time>2019-06-20T13:03:34Z</time>
      </trkpt>
      <trkpt lat="43.752845" lon="-7.868882">
        <ele>160.528</ele>
        <time>2019-06-20T13:03:35Z</time>
      </trkpt>
      <trkpt lat="43.752756" lon="-7.868948">
        <ele>159.865</ele>
        <time>2019-06-20T13:03:36Z</time>
      </trkpt>
      <trkpt lat="43.752675" lon="-7.869021">
        <ele>159.296</ele>
        <time>2019-06-20T13:03:37Z</time>
      </trkpt>
      <trkpt lat="43.752588" lon="-7.869089">
        <ele>158.468</ele>
        <time>2019-06-20T13:03:38Z</time>
      </trkpt>
      <trkpt lat="43.752516" lon="-7.869131">
        <ele>157.415</ele>
        <time>2019-06-20T13:03:39Z</time>
      </trkpt>
      <trkpt lat="43.752419" lon="-7.869215">
        <ele>158.219</ele>
        <time>2019-06-20T13:03:41Z</time>
      </trkpt>
      <trkpt lat="43.752356" lon="-7.869212">
        <ele>157.209</ele>
        <time>2019-06-20T13:03:43Z</time>
      </trkpt>
      <trkpt lat="43.752316" lon="-7.869171">
        <ele>155.519</ele>
        <time>2019-06-20T13:04:17Z</time>
      </trkpt>
      <trkpt lat="43.752223" lon="-7.869168">
        <ele>154.108</ele>
        <time>2019-06-20T13:04:18Z</time>
      </trkpt>
      <trkpt lat="43.752151" lon="-7.869151">
        <ele>153.574</ele>
        <time>2019-06-20T13:04:19Z</time>
      </trkpt>
      <trkpt lat="43.752060" lon="-7.869131">
        <ele>152.978</ele>
        <time>2019-06-20T13:04:20Z</time>
      </trkpt>
      <trkpt lat="43.751963" lon="-7.869086">
        <ele>151.739</ele>
        <time>2019-06-20T13:04:21Z</time>
      </trkpt>
      <trkpt lat="43.751848" lon="-7.869015">
        <ele>151.175</ele>
        <time>2019-06-20T13:04:22Z</time>
      </trkpt>
      <trkpt lat="43.751757" lon="-7.868942">
        <ele>150.662</ele>
        <time>2019-06-20T13:04:23Z</time>
      </trkpt>
      <trkpt lat="43.751673" lon="-7.868856">
        <ele>149.823</ele>
        <time>2019-06-20T13:04:24Z</time>
      </trkpt>
      <trkpt lat="43.751572" lon="-7.868772">
        <ele>148.945</ele>
        <time>2019-06-20T13:04:25Z</time>
      </trkpt>
      <trkpt lat="43.751480" lon="-7.868675">
        <ele>147.432</ele>
        <time>2019-06-20T13:04:26Z</time>
      </trkpt>
      <trkpt lat="43.751401" lon="-7.868569">
        <ele>145.746</ele>
        <time>2019-06-20T13:04:27Z</time>
      </trkpt>
      <trkpt lat="43.751320" lon="-7.868461">
        <ele>144.388</ele>
        <time>2019-06-20T13:04:28Z</time>
      </trkpt>
      <trkpt lat="43.751243" lon="-7.868355">
        <ele>142.716</ele>
        <time>2019-06-20T13:04:29Z</time>
      </trkpt>
      <trkpt lat="43.751165" lon="-7.868244">
        <ele>140.608</ele>
        <time>2019-06-20T13:04:30Z</time>
      </trkpt>
      <trkpt lat="43.751084" lon="-7.868148">
        <ele>138.817</ele>
        <time>2019-06-20T13:04:31Z</time>
      </trkpt>
      <trkpt lat="43.751009" lon="-7.868043">
        <ele>135.941</ele>
        <time>2019-06-20T13:04:32Z</time>
      </trkpt>
      <trkpt lat="43.750932" lon="-7.867943">
        <ele>132.952</ele>
        <time>2019-06-20T13:04:33Z</time>
      </trkpt>
      <trkpt lat="43.750839" lon="-7.867838">
        <ele>131.488</ele>
        <time>2019-06-20T13:04:34Z</time>
      </trkpt>
      <trkpt lat="43.750756" lon="-7.867729">
        <ele>129.025</ele>
        <time>2019-06-20T13:04:35Z</time>
      </trkpt>
      <trkpt lat="43.750674" lon="-7.867625">
        <ele>126.546</ele>
        <time>2019-06-20T13:04:36Z</time>
      </trkpt>
      <trkpt lat="43.750594" lon="-7.867513">
        <ele>124.058</ele>
        <time>2019-06-20T13:04:37Z</time>
      </trkpt>
      <trkpt lat="43.750516" lon="-7.867397">
        <ele>122.145</ele>
        <time>2019-06-20T13:04:38Z</time>
      </trkpt>
      <trkpt lat="43.750441" lon="-7.867265">
        <ele>120.526</ele>
        <time>2019-06-20T13:04:39Z</time>
      </trkpt>
      <trkpt lat="43.750374" lon="-7.867136">
        <ele>119.247</ele>
        <time>2019-06-20T13:04:40Z</time>
      </trkpt>
      <trkpt lat="43.750317" lon="-7.867012">
        <ele>118.111</ele>
        <time>2019-06-20T13:04:41Z</time>
      </trkpt>
      <trkpt lat="43.750258" lon="-7.866889">
        <ele>116.608</ele>
        <time>2019-06-20T13:04:42Z</time>
      </trkpt>
      <trkpt lat="43.750196" lon="-7.866750">
        <ele>113.465</ele>
        <time>2019-06-20T13:04:43Z</time>
      </trkpt>
      <trkpt lat="43.750142" lon="-7.866620">
        <ele>110.239</ele>
        <time>2019-06-20T13:04:44Z</time>
      </trkpt>
      <trkpt lat="43.750058" lon="-7.866520">
        <ele>109.630</ele>
        <time>2019-06-20T13:04:45Z</time>
      </trkpt>
      <trkpt lat="43.749990" lon="-7.866408">
        <ele>108.116</ele>
        <time>2019-06-20T13:04:46Z</time>
      </trkpt>
      <trkpt lat="43.749923" lon="-7.866312">
        <ele>107.943</ele>
        <time>2019-06-20T13:04:47Z</time>
      </trkpt>
      <trkpt lat="43.749852" lon="-7.866197">
        <ele>107.784</ele>
        <time>2019-06-20T13:04:48Z</time>
      </trkpt>
      <trkpt lat="43.749764" lon="-7.866104">
        <ele>108.936</ele>
        <time>2019-06-20T13:04:49Z</time>
      </trkpt>
      <trkpt lat="43.749669" lon="-7.866019">
        <ele>108.233</ele>
        <time>2019-06-20T13:04:50Z</time>
      </trkpt>
      <trkpt lat="43.749571" lon="-7.865935">
        <ele>107.125</ele>
        <time>2019-06-20T13:04:51Z</time>
      </trkpt>
      <trkpt lat="43.749476" lon="-7.865849">
        <ele>106.626</ele>
        <time>2019-06-20T13:04:52Z</time>
      </trkpt>
      <trkpt lat="43.749380" lon="-7.865762">
        <ele>103.708</ele>
        <time>2019-06-20T13:04:53Z</time>
      </trkpt>
      <trkpt lat="43.749280" lon="-7.865680">
        <ele>100.908</ele>
        <time>2019-06-20T13:04:54Z</time>
      </trkpt>
      <trkpt lat="43.749186" lon="-7.865593">
        <ele>98.955</ele>
        <time>2019-06-20T13:04:55Z</time>
      </trkpt>
      <trkpt lat="43.749086" lon="-7.865508">
        <ele>98.259</ele>
        <time>2019-06-20T13:04:56Z</time>
      </trkpt>
      <trkpt lat="43.748986" lon="-7.865414">
        <ele>97.030</ele>
        <time>2019-06-20T13:04:57Z</time>
      </trkpt>
      <trkpt lat="43.748881" lon="-7.865358">
        <ele>96.616</ele>
        <time>2019-06-20T13:04:58Z</time>
      </trkpt>
      <trkpt lat="43.748778" lon="-7.865308">
        <ele>95.493</ele>
        <time>2019-06-20T13:04:59Z</time>
      </trkpt>
      <trkpt lat="43.748683" lon="-7.865262">
        <ele>94.214</ele>
        <time>2019-06-20T13:05:00Z</time>
      </trkpt>
      <trkpt lat="43.748601" lon="-7.865215">
        <ele>92.766</ele>
        <time>2019-06-20T13:05:01Z</time>
      </trkpt>
      <trkpt lat="43.748513" lon="-7.865195">
        <ele>91.793</ele>
        <time>2019-06-20T13:05:02Z</time>
      </trkpt>
      <trkpt lat="43.748426" lon="-7.865175">
        <ele>90.656</ele>
        <time>2019-06-20T13:05:03Z</time>
      </trkpt>
      <trkpt lat="43.748327" lon="-7.865188">
        <ele>90.759</ele>
        <time>2019-06-20T13:05:04Z</time>
      </trkpt>
      <trkpt lat="43.748229" lon="-7.865190">
        <ele>89.114</ele>
        <time>2019-06-20T13:05:05Z</time>
      </trkpt>
      <trkpt lat="43.748136" lon="-7.865193">
        <ele>87.608</ele>
        <time>2019-06-20T13:05:06Z</time>
      </trkpt>
      <trkpt lat="43.748040" lon="-7.865188">
        <ele>85.828</ele>
        <time>2019-06-20T13:05:07Z</time>
      </trkpt>
      <trkpt lat="43.747965" lon="-7.865178">
        <ele>84.132</ele>
        <time>2019-06-20T13:05:08Z</time>
      </trkpt>
      <trkpt lat="43.747903" lon="-7.865160">
        <ele>82.463</ele>
        <time>2019-06-20T13:05:09Z</time>
      </trkpt>
      <trkpt lat="43.747857" lon="-7.865124">
        <ele>80.419</ele>
        <time>2019-06-20T13:05:10Z</time>
      </trkpt>
      <trkpt lat="43.747813" lon="-7.865087">
        <ele>78.546</ele>
        <time>2019-06-20T13:05:11Z</time>
      </trkpt>
      <trkpt lat="43.747791" lon="-7.865019">
        <ele>75.967</ele>
        <time>2019-06-20T13:05:13Z</time>
      </trkpt>
      <trkpt lat="43.747863" lon="-7.864903">
        <ele>74.199</ele>
        <time>2019-06-20T13:05:14Z</time>
      </trkpt>
      <trkpt lat="43.747903" lon="-7.864828">
        <ele>72.786</ele>
        <time>2019-06-20T13:05:15Z</time>
      </trkpt>
      <trkpt lat="43.747960" lon="-7.864763">
        <ele>71.543</ele>
        <time>2019-06-20T13:05:16Z</time>
      </trkpt>
      <trkpt lat="43.748066" lon="-7.864765">
        <ele>72.564</ele>
        <time>2019-06-20T13:05:17Z</time>
      </trkpt>
      <trkpt lat="43.748137" lon="-7.864751">
        <ele>72.610</ele>
        <time>2019-06-20T13:05:18Z</time>
      </trkpt>
      <trkpt lat="43.748203" lon="-7.864707">
        <ele>71.708</ele>
        <time>2019-06-20T13:05:19Z</time>
      </trkpt>
      <trkpt lat="43.748224" lon="-7.864621">
        <ele>69.917</ele>
        <time>2019-06-20T13:05:20Z</time>
      </trkpt>
      <trkpt lat="43.748232" lon="-7.864538">
        <ele>68.191</ele>
        <time>2019-06-20T13:05:21Z</time>
      </trkpt>
      <trkpt lat="43.748214" lon="-7.864459">
        <ele>66.312</ele>
        <time>2019-06-20T13:05:22Z</time>
      </trkpt>
      <trkpt lat="43.748176" lon="-7.864379">
        <ele>64.618</ele>
        <time>2019-06-20T13:05:23Z</time>
      </trkpt>
      <trkpt lat="43.748114" lon="-7.864339">
        <ele>64.345</ele>
        <time>2019-06-20T13:05:24Z</time>
      </trkpt>
      <trkpt lat="43.748047" lon="-7.864316">
        <ele>64.686</ele>
        <time>2019-06-20T13:05:25Z</time>
      </trkpt>
      <trkpt lat="43.747970" lon="-7.864320">
        <ele>64.288</ele>
        <time>2019-06-20T13:05:26Z</time>
      </trkpt>
      <trkpt lat="43.747893" lon="-7.864359">
        <ele>64.375</ele>
        <time>2019-06-20T13:05:27Z</time>
      </trkpt>
      <trkpt lat="43.747810" lon="-7.864402">
        <ele>64.518</ele>
        <time>2019-06-20T13:05:28Z</time>
      </trkpt>
      <trkpt lat="43.747723" lon="-7.864453">
        <ele>63.998</ele>
        <time>2019-06-20T13:05:29Z</time>
      </trkpt>
      <trkpt lat="43.747636" lon="-7.864513">
        <ele>63.117</ele>
        <time>2019-06-20T13:05:30Z</time>
      </trkpt>
      <trkpt lat="43.747538" lon="-7.864587">
        <ele>62.308</ele>
        <time>2019-06-20T13:05:31Z</time>
      </trkpt>
      <trkpt lat="43.747461" lon="-7.864673">
        <ele>62.014</ele>
        <time>2019-06-20T13:05:32Z</time>
      </trkpt>
      <trkpt lat="43.747373" lon="-7.864776">
        <ele>60.978</ele>
        <time>2019-06-20T13:05:33Z</time>
      </trkpt>
      <trkpt lat="43.747289" lon="-7.864902">
        <ele>59.519</ele>
        <time>2019-06-20T13:05:34Z</time>
      </trkpt>
      <trkpt lat="43.747206" lon="-7.865026">
        <ele>57.855</ele>
        <time>2019-06-20T13:05:35Z</time>
      </trkpt>
      <trkpt lat="43.747127" lon="-7.865157">
        <ele>57.222</ele>
        <time>2019-06-20T13:05:36Z</time>
      </trkpt>
      <trkpt lat="43.747045" lon="-7.865297">
        <ele>56.663</ele>
        <time>2019-06-20T13:05:37Z</time>
      </trkpt>
      <trkpt lat="43.746969" lon="-7.865417">
        <ele>56.385</ele>
        <time>2019-06-20T13:05:38Z</time>
      </trkpt>
      <trkpt lat="43.746888" lon="-7.865535">
        <ele>55.652</ele>
        <time>2019-06-20T13:05:39Z</time>
      </trkpt>
      <trkpt lat="43.746810" lon="-7.865641">
        <ele>54.547</ele>
        <time>2019-06-20T13:05:40Z</time>
      </trkpt>
      <trkpt lat="43.746738" lon="-7.865750">
        <ele>53.929</ele>
        <time>2019-06-20T13:05:41Z</time>
      </trkpt>
      <trkpt lat="43.746646" lon="-7.865853">
        <ele>52.521</ele>
        <time>2019-06-20T13:05:42Z</time>
      </trkpt>
      <trkpt lat="43.746542" lon="-7.865955">
        <ele>50.308</ele>
        <time>2019-06-20T13:05:43Z</time>
      </trkpt>
      <trkpt lat="43.746450" lon="-7.866068">
        <ele>48.647</ele>
        <time>2019-06-20T13:05:44Z</time>
      </trkpt>
      <trkpt lat="43.746357" lon="-7.866166">
        <ele>46.621</ele>
        <time>2019-06-20T13:05:45Z</time>
      </trkpt>
      <trkpt lat="43.746276" lon="-7.866239">
        <ele>44.772</ele>
        <time>2019-06-20T13:05:46Z</time>
      </trkpt>
      <trkpt lat="43.746202" lon="-7.866331">
        <ele>43.338</ele>
        <time>2019-06-20T13:05:47Z</time>
      </trkpt>
      <trkpt lat="43.746147" lon="-7.866443">
        <ele>42.675</ele>
        <time>2019-06-20T13:05:48Z</time>
      </trkpt>
      <trkpt lat="43.746104" lon="-7.866588">
        <ele>42.296</ele>
        <time>2019-06-20T13:05:49Z</time>
      </trkpt>
      <trkpt lat="43.746069" lon="-7.866732">
        <ele>42.698</ele>
        <time>2019-06-20T13:05:50Z</time>
      </trkpt>
      <trkpt lat="43.746047" lon="-7.866877">
        <ele>43.725</ele>
        <time>2019-06-20T13:05:51Z</time>
      </trkpt>
      <trkpt lat="43.746024" lon="-7.867019">
        <ele>44.377</ele>
        <time>2019-06-20T13:05:52Z</time>
      </trkpt>
      <trkpt lat="43.746017" lon="-7.867158">
        <ele>44.961</ele>
        <time>2019-06-20T13:05:53Z</time>
      </trkpt>
      <trkpt lat="43.746016" lon="-7.867301">
        <ele>45.727</ele>
        <time>2019-06-20T13:05:54Z</time>
      </trkpt>
      <trkpt lat="43.746020" lon="-7.867430">
        <ele>46.608</ele>
        <time>2019-06-20T13:05:55Z</time>
      </trkpt>
      <trkpt lat="43.746016" lon="-7.867551">
        <ele>47.310</ele>
        <time>2019-06-20T13:05:56Z</time>
      </trkpt>
      <trkpt lat="43.746003" lon="-7.867661">
        <ele>47.974</ele>
        <time>2019-06-20T13:05:57Z</time>
      </trkpt>
      <trkpt lat="43.745980" lon="-7.867763">
        <ele>48.155</ele>
        <time>2019-06-20T13:05:58Z</time>
      </trkpt>
      <trkpt lat="43.745932" lon="-7.867835">
        <ele>47.181</ele>
        <time>2019-06-20T13:05:59Z</time>
      </trkpt>
      <trkpt lat="43.745878" lon="-7.867901">
        <ele>46.048</ele>
        <time>2019-06-20T13:06:00Z</time>
      </trkpt>
      <trkpt lat="43.745811" lon="-7.867962">
        <ele>44.899</ele>
        <time>2019-06-20T13:06:01Z</time>
      </trkpt>
      <trkpt lat="43.745747" lon="-7.867904">
        <ele>43.031</ele>
        <time>2019-06-20T13:06:02Z</time>
      </trkpt>
      <trkpt lat="43.745687" lon="-7.867891">
        <ele>41.728</ele>
        <time>2019-06-20T13:06:03Z</time>
      </trkpt>
      <trkpt lat="43.745627" lon="-7.867899">
        <ele>40.422</ele>
        <time>2019-06-20T13:06:04Z</time>
      </trkpt>
      <trkpt lat="43.745564" lon="-7.867919">
        <ele>39.262</ele>
        <time>2019-06-20T13:06:05Z</time>
      </trkpt>
      <trkpt lat="43.745514" lon="-7.867958">
        <ele>38.708</ele>
        <time>2019-06-20T13:06:06Z</time>
      </trkpt>
      <trkpt lat="43.745494" lon="-7.868066">
        <ele>38.908</ele>
        <time>2019-06-20T13:06:08Z</time>
      </trkpt>
      <trkpt lat="43.745508" lon="-7.868170">
        <ele>39.185</ele>
        <time>2019-06-20T13:06:09Z</time>
      </trkpt>
      <trkpt lat="43.745526" lon="-7.868292">
        <ele>39.559</ele>
        <time>2019-06-20T13:06:10Z</time>
      </trkpt>
      <trkpt lat="43.745544" lon="-7.868423">
        <ele>39.870</ele>
        <time>2019-06-20T13:06:11Z</time>
      </trkpt>
      <trkpt lat="43.745583" lon="-7.868569">
        <ele>40.646</ele>
        <time>2019-06-20T13:06:12Z</time>
      </trkpt>
      <trkpt lat="43.745619" lon="-7.868728">
        <ele>41.493</ele>
        <time>2019-06-20T13:06:13Z</time>
      </trkpt>
      <trkpt lat="43.745655" lon="-7.868899">
        <ele>42.164</ele>
        <time>2019-06-20T13:06:14Z</time>
      </trkpt>
      <trkpt lat="43.745676" lon="-7.869076">
        <ele>42.656</ele>
        <time>2019-06-20T13:06:15Z</time>
      </trkpt>
      <trkpt lat="43.745696" lon="-7.869248">
        <ele>43.263</ele>
        <time>2019-06-20T13:06:16Z</time>
      </trkpt>
      <trkpt lat="43.745719" lon="-7.869404">
        <ele>44.046</ele>
        <time>2019-06-20T13:06:17Z</time>
      </trkpt>
      <trkpt lat="43.745736" lon="-7.869556">
        <ele>45.288</ele>
        <time>2019-06-20T13:06:18Z</time>
      </trkpt>
      <trkpt lat="43.745760" lon="-7.869688">
        <ele>46.516</ele>
        <time>2019-06-20T13:06:19Z</time>
      </trkpt>
      <trkpt lat="43.745791" lon="-7.869815">
        <ele>48.008</ele>
        <time>2019-06-20T13:06:20Z</time>
      </trkpt>
      <trkpt lat="43.745817" lon="-7.869932">
        <ele>49.367</ele>
        <time>2019-06-20T13:06:21Z</time>
      </trkpt>
      <trkpt lat="43.745829" lon="-7.870031">
        <ele>50.241</ele>
        <time>2019-06-20T13:06:22Z</time>
      </trkpt>
      <trkpt lat="43.745820" lon="-7.870139">
        <ele>50.882</ele>
        <time>2019-06-20T13:06:23Z</time>
      </trkpt>
      <trkpt lat="43.745791" lon="-7.870242">
        <ele>51.288</ele>
        <time>2019-06-20T13:06:24Z</time>
      </trkpt>
      <trkpt lat="43.745755" lon="-7.870333">
        <ele>51.155</ele>
        <time>2019-06-20T13:06:25Z</time>
      </trkpt>
      <trkpt lat="43.745719" lon="-7.870420">
        <ele>50.946</ele>
        <time>2019-06-20T13:06:26Z</time>
      </trkpt>
      <trkpt lat="43.745670" lon="-7.870485">
        <ele>50.418</ele>
        <time>2019-06-20T13:06:27Z</time>
      </trkpt>
      <trkpt lat="43.745619" lon="-7.870537">
        <ele>49.855</ele>
        <time>2019-06-20T13:06:28Z</time>
      </trkpt>
      <trkpt lat="43.745533" lon="-7.870525">
        <ele>48.687</ele>
        <time>2019-06-20T13:06:29Z</time>
      </trkpt>
      <trkpt lat="43.745448" lon="-7.870508">
        <ele>47.742</ele>
        <time>2019-06-20T13:06:30Z</time>
      </trkpt>
      <trkpt lat="43.745364" lon="-7.870466">
        <ele>46.626</ele>
        <time>2019-06-20T13:06:31Z</time>
      </trkpt>
      <trkpt lat="43.745274" lon="-7.870414">
        <ele>45.508</ele>
        <time>2019-06-20T13:06:32Z</time>
      </trkpt>
      <trkpt lat="43.745188" lon="-7.870357">
        <ele>44.321</ele>
        <time>2019-06-20T13:06:33Z</time>
      </trkpt>
      <trkpt lat="43.745097" lon="-7.870305">
        <ele>43.195</ele>
        <time>2019-06-20T13:06:34Z</time>
      </trkpt>
      <trkpt lat="43.745004" lon="-7.870246">
        <ele>41.886</ele>
        <time>2019-06-20T13:06:35Z</time>
      </trkpt>
      <trkpt lat="43.744914" lon="-7.870196">
        <ele>40.242</ele>
        <time>2019-06-20T13:06:36Z</time>
      </trkpt>
      <trkpt lat="43.744823" lon="-7.870155">
        <ele>38.649</ele>
        <time>2019-06-20T13:06:37Z</time>
      </trkpt>
      <trkpt lat="43.744737" lon="-7.870128">
        <ele>37.160</ele>
        <time>2019-06-20T13:06:38Z</time>
      </trkpt>
      <trkpt lat="43.744657" lon="-7.870124">
        <ele>35.672</ele>
        <time>2019-06-20T13:06:39Z</time>
      </trkpt>
      <trkpt lat="43.744584" lon="-7.870116">
        <ele>34.119</ele>
        <time>2019-06-20T13:06:40Z</time>
      </trkpt>
      <trkpt lat="43.744503" lon="-7.870185">
        <ele>32.934</ele>
        <time>2019-06-20T13:06:41Z</time>
      </trkpt>
      <trkpt lat="43.744434" lon="-7.870253">
        <ele>31.755</ele>
        <time>2019-06-20T13:06:42Z</time>
      </trkpt>
      <trkpt lat="43.744369" lon="-7.870328">
        <ele>30.810</ele>
        <time>2019-06-20T13:06:43Z</time>
      </trkpt>
      <trkpt lat="43.744306" lon="-7.870421">
        <ele>30.008</ele>
        <time>2019-06-20T13:06:44Z</time>
      </trkpt>
      <trkpt lat="43.744260" lon="-7.870529">
        <ele>29.696</ele>
        <time>2019-06-20T13:06:45Z</time>
      </trkpt>
      <trkpt lat="43.744225" lon="-7.870651">
        <ele>29.110</ele>
        <time>2019-06-20T13:06:46Z</time>
      </trkpt>
      <trkpt lat="43.744199" lon="-7.870777">
        <ele>28.651</ele>
        <time>2019-06-20T13:06:47Z</time>
      </trkpt>
      <trkpt lat="43.744165" lon="-7.870905">
        <ele>28.257</ele>
        <time>2019-06-20T13:06:48Z</time>
      </trkpt>
      <trkpt lat="43.744133" lon="-7.871031">
        <ele>28.064</ele>
        <time>2019-06-20T13:06:49Z</time>
      </trkpt>
      <trkpt lat="43.744099" lon="-7.871150">
        <ele>27.535</ele>
        <time>2019-06-20T13:06:50Z</time>
      </trkpt>
      <trkpt lat="43.744053" lon="-7.871239">
        <ele>26.547</ele>
        <time>2019-06-20T13:06:51Z</time>
      </trkpt>
      <trkpt lat="43.743989" lon="-7.871305">
        <ele>25.264</ele>
        <time>2019-06-20T13:06:52Z</time>
      </trkpt>
      <trkpt lat="43.743920" lon="-7.871354">
        <ele>23.765</ele>
        <time>2019-06-20T13:06:53Z</time>
      </trkpt>
      <trkpt lat="43.743816" lon="-7.871379">
        <ele>21.768</ele>
        <time>2019-06-20T13:06:54Z</time>
      </trkpt>
      <trkpt lat="43.743718" lon="-7.871392">
        <ele>19.914</ele>
        <time>2019-06-20T13:06:55Z</time>
      </trkpt>
      <trkpt lat="43.743613" lon="-7.871439">
        <ele>18.008</ele>
        <time>2019-06-20T13:06:56Z</time>
      </trkpt>
      <trkpt lat="43.743519" lon="-7.871456">
        <ele>17.089</ele>
        <time>2019-06-20T13:06:57Z</time>
      </trkpt>
      <trkpt lat="43.743434" lon="-7.871468">
        <ele>16.113</ele>
        <time>2019-06-20T13:06:58Z</time>
      </trkpt>
      <trkpt lat="43.743336" lon="-7.871495">
        <ele>15.044</ele>
        <time>2019-06-20T13:06:59Z</time>
      </trkpt>
      <trkpt lat="43.743256" lon="-7.871510">
        <ele>14.870</ele>
        <time>2019-06-20T13:07:00Z</time>
      </trkpt>
      <trkpt lat="43.743168" lon="-7.871524">
        <ele>14.727</ele>
        <time>2019-06-20T13:07:01Z</time>
      </trkpt>
      <trkpt lat="43.743106" lon="-7.871536">
        <ele>14.648</ele>
        <time>2019-06-20T13:07:02Z</time>
      </trkpt>
      <trkpt lat="43.743052" lon="-7.871539">
        <ele>14.510</ele>
        <time>2019-06-20T13:07:03Z</time>
      </trkpt>
      <trkpt lat="43.742999" lon="-7.871535">
        <ele>14.477</ele>
        <time>2019-06-20T13:07:04Z</time>
      </trkpt>
      <trkpt lat="43.742939" lon="-7.871550">
        <ele>14.357</ele>
        <time>2019-06-20T13:07:05Z</time>
      </trkpt>
      <trkpt lat="43.742898" lon="-7.871582">
        <ele>14.300</ele>
        <time>2019-06-20T13:07:07Z</time>
      </trkpt>
      <trkpt lat="43.742868" lon="-7.871734">
        <ele>14.220</ele>
        <time>2019-06-20T13:07:09Z</time>
      </trkpt>
      <trkpt lat="43.742862" lon="-7.871807">
        <ele>14.008</ele>
        <time>2019-06-20T13:07:10Z</time>
      </trkpt>
      <trkpt lat="43.742873" lon="-7.871890">
        <ele>13.888</ele>
        <time>2019-06-20T13:07:11Z</time>
      </trkpt>
      <trkpt lat="43.742903" lon="-7.872023">
        <ele>14.182</ele>
        <time>2019-06-20T13:07:12Z</time>
      </trkpt>
      <trkpt lat="43.742955" lon="-7.872218">
        <ele>14.663</ele>
        <time>2019-06-20T13:07:13Z</time>
      </trkpt>
      <trkpt lat="43.742974" lon="-7.872386">
        <ele>14.799</ele>
        <time>2019-06-20T13:07:14Z</time>
      </trkpt>
      <trkpt lat="43.742991" lon="-7.872531">
        <ele>14.886</ele>
        <time>2019-06-20T13:07:15Z</time>
      </trkpt>
      <trkpt lat="43.742996" lon="-7.872656">
        <ele>14.827</ele>
        <time>2019-06-20T13:07:16Z</time>
      </trkpt>
      <trkpt lat="43.742981" lon="-7.872765">
        <ele>14.779</ele>
        <time>2019-06-20T13:07:17Z</time>
      </trkpt>
      <trkpt lat="43.742961" lon="-7.872875">
        <ele>15.086</ele>
        <time>2019-06-20T13:07:18Z</time>
      </trkpt>
      <trkpt lat="43.742928" lon="-7.872931">
        <ele>15.149</ele>
        <time>2019-06-20T13:07:19Z</time>
      </trkpt>
      <trkpt lat="43.742870" lon="-7.873026">
        <ele>15.202</ele>
        <time>2019-06-20T13:07:20Z</time>
      </trkpt>
      <trkpt lat="43.742780" lon="-7.873116">
        <ele>15.222</ele>
        <time>2019-06-20T13:07:21Z</time>
      </trkpt>
      <trkpt lat="43.742713" lon="-7.873205">
        <ele>15.308</ele>
        <time>2019-06-20T13:07:22Z</time>
      </trkpt>
      <trkpt lat="43.742646" lon="-7.873292">
        <ele>15.447</ele>
        <time>2019-06-20T13:07:23Z</time>
      </trkpt>
      <trkpt lat="43.742584" lon="-7.873360">
        <ele>15.331</ele>
        <time>2019-06-20T13:07:24Z</time>
      </trkpt>
      <trkpt lat="43.742531" lon="-7.873437">
        <ele>15.232</ele>
        <time>2019-06-20T13:07:25Z</time>
      </trkpt>
      <trkpt lat="43.742480" lon="-7.873510">
        <ele>14.968</ele>
        <time>2019-06-20T13:07:26Z</time>
      </trkpt>
      <trkpt lat="43.742430" lon="-7.873563">
        <ele>14.765</ele>
        <time>2019-06-20T13:07:27Z</time>
      </trkpt>
      <trkpt lat="43.742365" lon="-7.873631">
        <ele>14.626</ele>
        <time>2019-06-20T13:07:28Z</time>
      </trkpt>
      <trkpt lat="43.742304" lon="-7.873680">
        <ele>14.538</ele>
        <time>2019-06-20T13:07:29Z</time>
      </trkpt>
      <trkpt lat="43.742192" lon="-7.873711">
        <ele>14.195</ele>
        <time>2019-06-20T13:07:30Z</time>
      </trkpt>
      <trkpt lat="43.742093" lon="-7.873737">
        <ele>13.349</ele>
        <time>2019-06-20T13:07:31Z</time>
      </trkpt>
      <trkpt lat="43.741986" lon="-7.873771">
        <ele>12.402</ele>
        <time>2019-06-20T13:07:32Z</time>
      </trkpt>
      <trkpt lat="43.741888" lon="-7.873814">
        <ele>11.822</ele>
        <time>2019-06-20T13:07:33Z</time>
      </trkpt>
      <trkpt lat="43.741795" lon="-7.873872">
        <ele>11.508</ele>
        <time>2019-06-20T13:07:34Z</time>
      </trkpt>
      <trkpt lat="43.741699" lon="-7.873937">
        <ele>11.387</ele>
        <time>2019-06-20T13:07:35Z</time>
      </trkpt>
      <trkpt lat="43.741588" lon="-7.874004">
        <ele>11.371</ele>
        <time>2019-06-20T13:07:36Z</time>
      </trkpt>
      <trkpt lat="43.741480" lon="-7.874079">
        <ele>11.252</ele>
        <time>2019-06-20T13:07:37Z</time>
      </trkpt>
      <trkpt lat="43.741379" lon="-7.874147">
        <ele>11.028</ele>
        <time>2019-06-20T13:07:38Z</time>
      </trkpt>
      <trkpt lat="43.741277" lon="-7.874219">
        <ele>10.995</ele>
        <time>2019-06-20T13:07:39Z</time>
      </trkpt>
      <trkpt lat="43.741180" lon="-7.874283">
        <ele>11.096</ele>
        <time>2019-06-20T13:07:40Z</time>
      </trkpt>
      <trkpt lat="43.741086" lon="-7.874346">
        <ele>11.298</ele>
        <time>2019-06-20T13:07:41Z</time>
      </trkpt>
      <trkpt lat="43.740994" lon="-7.874429">
        <ele>11.535</ele>
        <time>2019-06-20T13:07:42Z</time>
      </trkpt>
      <trkpt lat="43.740930" lon="-7.874494">
        <ele>11.513</ele>
        <time>2019-06-20T13:07:43Z</time>
      </trkpt>
      <trkpt lat="43.740835" lon="-7.874573">
        <ele>11.543</ele>
        <time>2019-06-20T13:07:44Z</time>
      </trkpt>
      <trkpt lat="43.740741" lon="-7.874662">
        <ele>11.507</ele>
        <time>2019-06-20T13:07:45Z</time>
      </trkpt>
      <trkpt lat="43.740648" lon="-7.874763">
        <ele>11.408</ele>
        <time>2019-06-20T13:07:46Z</time>
      </trkpt>
      <trkpt lat="43.740559" lon="-7.874867">
        <ele>11.044</ele>
        <time>2019-06-20T13:07:47Z</time>
      </trkpt>
      <trkpt lat="43.740464" lon="-7.874981">
        <ele>10.768</ele>
        <time>2019-06-20T13:07:48Z</time>
      </trkpt>
      <trkpt lat="43.740362" lon="-7.875087">
        <ele>10.049</ele>
        <time>2019-06-20T13:07:49Z</time>
      </trkpt>
      <trkpt lat="43.740269" lon="-7.875215">
        <ele>9.265</ele>
        <time>2019-06-20T13:07:50Z</time>
      </trkpt>
      <trkpt lat="43.740177" lon="-7.875330">
        <ele>9.162</ele>
        <time>2019-06-20T13:07:51Z</time>
      </trkpt>
      <trkpt lat="43.740064" lon="-7.875458">
        <ele>9.573</ele>
        <time>2019-06-20T13:07:52Z</time>
      </trkpt>
      <trkpt lat="43.739960" lon="-7.875593">
        <ele>9.795</ele>
        <time>2019-06-20T13:07:53Z</time>
      </trkpt>
      <trkpt lat="43.739851" lon="-7.875725">
        <ele>9.252</ele>
        <time>2019-06-20T13:07:54Z</time>
      </trkpt>
      <trkpt lat="43.739737" lon="-7.875864">
        <ele>9.081</ele>
        <time>2019-06-20T13:07:55Z</time>
      </trkpt>
      <trkpt lat="43.739624" lon="-7.875996">
        <ele>8.661</ele>
        <time>2019-06-20T13:07:56Z</time>
      </trkpt>
      <trkpt lat="43.739509" lon="-7.876135">
        <ele>8.317</ele>
        <time>2019-06-20T13:07:57Z</time>
      </trkpt>
      <trkpt lat="43.739388" lon="-7.876274">
        <ele>8.408</ele>
        <time>2019-06-20T13:07:58Z</time>
      </trkpt>
      <trkpt lat="43.739264" lon="-7.876421">
        <ele>8.511</ele>
        <time>2019-06-20T13:07:59Z</time>
      </trkpt>
      <trkpt lat="43.739136" lon="-7.876556">
        <ele>8.585</ele>
        <time>2019-06-20T13:08:00Z</time>
      </trkpt>
      <trkpt lat="43.738998" lon="-7.876702">
        <ele>8.466</ele>
        <time>2019-06-20T13:08:01Z</time>
      </trkpt>
      <trkpt lat="43.738862" lon="-7.876844">
        <ele>7.932</ele>
        <time>2019-06-20T13:08:02Z</time>
      </trkpt>
      <trkpt lat="43.738728" lon="-7.876989">
        <ele>7.499</ele>
        <time>2019-06-20T13:08:03Z</time>
      </trkpt>
      <trkpt lat="43.738600" lon="-7.877129">
        <ele>7.010</ele>
        <time>2019-06-20T13:08:04Z</time>
      </trkpt>
      <trkpt lat="43.738473" lon="-7.877258">
        <ele>7.612</ele>
        <time>2019-06-20T13:08:05Z</time>
      </trkpt>
      <trkpt lat="43.738351" lon="-7.877384">
        <ele>8.069</ele>
        <time>2019-06-20T13:08:06Z</time>
      </trkpt>
      <trkpt lat="43.738228" lon="-7.877504">
        <ele>8.812</ele>
        <time>2019-06-20T13:08:07Z</time>
      </trkpt>
      <trkpt lat="43.738114" lon="-7.877607">
        <ele>10.032</ele>
        <time>2019-06-20T13:08:08Z</time>
      </trkpt>
      <trkpt lat="43.737999" lon="-7.877719">
        <ele>10.805</ele>
        <time>2019-06-20T13:08:09Z</time>
      </trkpt>
      <trkpt lat="43.737890" lon="-7.877824">
        <ele>11.208</ele>
        <time>2019-06-20T13:08:10Z</time>
      </trkpt>
      <trkpt lat="43.737785" lon="-7.877920">
        <ele>11.514</ele>
        <time>2019-06-20T13:08:11Z</time>
      </trkpt>
      <trkpt lat="43.737698" lon="-7.877998">
        <ele>11.888</ele>
        <time>2019-06-20T13:08:12Z</time>
      </trkpt>
      <trkpt lat="43.737624" lon="-7.878081">
        <ele>12.119</ele>
        <time>2019-06-20T13:08:13Z</time>
      </trkpt>
      <trkpt lat="43.737572" lon="-7.878147">
        <ele>12.385</ele>
        <time>2019-06-20T13:08:14Z</time>
      </trkpt>
      <trkpt lat="43.737524" lon="-7.878236">
        <ele>12.722</ele>
        <time>2019-06-20T13:08:15Z</time>
      </trkpt>
      <trkpt lat="43.737494" lon="-7.878320">
        <ele>13.083</ele>
        <time>2019-06-20T13:08:16Z</time>
      </trkpt>
      <trkpt lat="43.737473" lon="-7.878401">
        <ele>13.525</ele>
        <time>2019-06-20T13:08:17Z</time>
      </trkpt>
      <trkpt lat="43.737458" lon="-7.878463">
        <ele>13.822</ele>
        <time>2019-06-20T13:08:18Z</time>
      </trkpt>
      <trkpt lat="43.737437" lon="-7.878544">
        <ele>14.187</ele>
        <time>2019-06-20T13:08:19Z</time>
      </trkpt>
      <trkpt lat="43.737411" lon="-7.878639">
        <ele>14.342</ele>
        <time>2019-06-20T13:08:20Z</time>
      </trkpt>
      <trkpt lat="43.737378" lon="-7.878753">
        <ele>14.226</ele>
        <time>2019-06-20T13:08:21Z</time>
      </trkpt>
      <trkpt lat="43.737349" lon="-7.878861">
        <ele>14.108</ele>
        <time>2019-06-20T13:08:22Z</time>
      </trkpt>
      <trkpt lat="43.737322" lon="-7.878965">
        <ele>14.171</ele>
        <time>2019-06-20T13:08:23Z</time>
      </trkpt>
      <trkpt lat="43.737296" lon="-7.879066">
        <ele>14.075</ele>
        <time>2019-06-20T13:08:24Z</time>
      </trkpt>
      <trkpt lat="43.737265" lon="-7.879157">
        <ele>13.916</ele>
        <time>2019-06-20T13:08:25Z</time>
      </trkpt>
      <trkpt lat="43.737240" lon="-7.879242">
        <ele>13.962</ele>
        <time>2019-06-20T13:08:26Z</time>
      </trkpt>
      <trkpt lat="43.737221" lon="-7.879309">
        <ele>14.079</ele>
        <time>2019-06-20T13:08:27Z</time>
      </trkpt>
      <trkpt lat="43.737199" lon="-7.879401">
        <ele>14.090</ele>
        <time>2019-06-20T13:08:29Z</time>
      </trkpt>
      <trkpt lat="43.737173" lon="-7.879454">
        <ele>14.092</ele>
        <time>2019-06-20T13:08:31Z</time>
      </trkpt>
      <trkpt lat="43.737127" lon="-7.879480">
        <ele>14.189</ele>
        <time>2019-06-20T13:08:34Z</time>
      </trkpt>
      <trkpt lat="43.737068" lon="-7.879412">
        <ele>14.094</ele>
        <time>2019-06-20T13:08:36Z</time>
      </trkpt>
      <trkpt lat="43.737043" lon="-7.879356">
        <ele>14.057</ele>
        <time>2019-06-20T13:08:37Z</time>
      </trkpt>
      <trkpt lat="43.737019" lon="-7.879295">
        <ele>14.022</ele>
        <time>2019-06-20T13:08:38Z</time>
      </trkpt>
      <trkpt lat="43.736995" lon="-7.879221">
        <ele>14.008</ele>
        <time>2019-06-20T13:08:39Z</time>
      </trkpt>
      <trkpt lat="43.736971" lon="-7.879148">
        <ele>14.182</ele>
        <time>2019-06-20T13:08:40Z</time>
      </trkpt>
      <trkpt lat="43.736943" lon="-7.879053">
        <ele>14.486</ele>
        <time>2019-06-20T13:08:41Z</time>
      </trkpt>
      <trkpt lat="43.736896" lon="-7.878944">
        <ele>14.537</ele>
        <time>2019-06-20T13:08:42Z</time>
      </trkpt>
      <trkpt lat="43.736830" lon="-7.878831">
        <ele>14.683</ele>
        <time>2019-06-20T13:08:43Z</time>
      </trkpt>
      <trkpt lat="43.736753" lon="-7.878715">
        <ele>14.990</ele>
        <time>2019-06-20T13:08:44Z</time>
      </trkpt>
      <trkpt lat="43.736663" lon="-7.878598">
        <ele>15.081</ele>
        <time>2019-06-20T13:08:45Z</time>
      </trkpt>
      <trkpt lat="43.736573" lon="-7.878488">
        <ele>14.113</ele>
        <time>2019-06-20T13:08:46Z</time>
      </trkpt>
      <trkpt lat="43.736489" lon="-7.878371">
        <ele>13.320</ele>
        <time>2019-06-20T13:08:47Z</time>
      </trkpt>
      <trkpt lat="43.736417" lon="-7.878262">
        <ele>12.729</ele>
        <time>2019-06-20T13:08:48Z</time>
      </trkpt>
      <trkpt lat="43.736339" lon="-7.878151">
        <ele>12.300</ele>
        <time>2019-06-20T13:08:49Z</time>
      </trkpt>
      <trkpt lat="43.736263" lon="-7.878052">
        <ele>12.120</ele>
        <time>2019-06-20T13:08:50Z</time>
      </trkpt>
      <trkpt lat="43.736189" lon="-7.877945">
        <ele>12.108</ele>
        <time>2019-06-20T13:08:51Z</time>
      </trkpt>
      <trkpt lat="43.736123" lon="-7.877847">
        <ele>11.915</ele>
        <time>2019-06-20T13:08:52Z</time>
      </trkpt>
      <trkpt lat="43.736068" lon="-7.877749">
        <ele>11.989</ele>
        <time>2019-06-20T13:08:53Z</time>
      </trkpt>
      <trkpt lat="43.736000" lon="-7.877645">
        <ele>12.230</ele>
        <time>2019-06-20T13:08:54Z</time>
      </trkpt>
      <trkpt lat="43.735937" lon="-7.877535">
        <ele>12.576</ele>
        <time>2019-06-20T13:08:55Z</time>
      </trkpt>
      <trkpt lat="43.735873" lon="-7.877419">
        <ele>12.953</ele>
        <time>2019-06-20T13:08:56Z</time>
      </trkpt>
      <trkpt lat="43.735812" lon="-7.877312">
        <ele>13.234</ele>
        <time>2019-06-20T13:08:57Z</time>
      </trkpt>
      <trkpt lat="43.735753" lon="-7.877210">
        <ele>13.576</ele>
        <time>2019-06-20T13:08:58Z</time>
      </trkpt>
      <trkpt lat="43.735699" lon="-7.877108">
        <ele>13.723</ele>
        <time>2019-06-20T13:08:59Z</time>
      </trkpt>
      <trkpt lat="43.735650" lon="-7.877006">
        <ele>13.772</ele>
        <time>2019-06-20T13:09:00Z</time>
      </trkpt>
      <trkpt lat="43.735603" lon="-7.876920">
        <ele>13.513</ele>
        <time>2019-06-20T13:09:01Z</time>
      </trkpt>
      <trkpt lat="43.735567" lon="-7.876846">
        <ele>13.114</ele>
        <time>2019-06-20T13:09:02Z</time>
      </trkpt>
      <trkpt lat="43.735505" lon="-7.876764">
        <ele>12.608</ele>
        <time>2019-06-20T13:09:04Z</time>
      </trkpt>
      <trkpt lat="43.735448" lon="-7.876777">
        <ele>12.230</ele>
        <time>2019-06-20T13:09:05Z</time>
      </trkpt>
      <trkpt lat="43.735367" lon="-7.876785">
        <ele>11.674</ele>
        <time>2019-06-20T13:09:07Z</time>
      </trkpt>
      <trkpt lat="43.735307" lon="-7.876832">
        <ele>11.295</ele>
        <time>2019-06-20T13:09:08Z</time>
      </trkpt>
      <trkpt lat="43.735245" lon="-7.876884">
        <ele>10.971</ele>
        <time>2019-06-20T13:09:09Z</time>
      </trkpt>
      <trkpt lat="43.735166" lon="-7.876941">
        <ele>10.658</ele>
        <time>2019-06-20T13:09:10Z</time>
      </trkpt>
      <trkpt lat="43.735056" lon="-7.876998">
        <ele>10.269</ele>
        <time>2019-06-20T13:09:11Z</time>
      </trkpt>
      <trkpt lat="43.734899" lon="-7.877061">
        <ele>9.661</ele>
        <time>2019-06-20T13:09:12Z</time>
      </trkpt>
      <trkpt lat="43.734754" lon="-7.877110">
        <ele>9.178</ele>
        <time>2019-06-20T13:09:13Z</time>
      </trkpt>
      <trkpt lat="43.734604" lon="-7.877152">
        <ele>8.928</ele>
        <time>2019-06-20T13:09:14Z</time>
      </trkpt>
      <trkpt lat="43.734460" lon="-7.877193">
        <ele>8.989</ele>
        <time>2019-06-20T13:09:15Z</time>
      </trkpt>
      <trkpt lat="43.734313" lon="-7.877240">
        <ele>8.617</ele>
        <time>2019-06-20T13:09:16Z</time>
      </trkpt>
      <trkpt lat="43.734161" lon="-7.877295">
        <ele>8.308</ele>
        <time>2019-06-20T13:09:17Z</time>
      </trkpt>
      <trkpt lat="43.734006" lon="-7.877342">
        <ele>8.265</ele>
        <time>2019-06-20T13:09:18Z</time>
      </trkpt>
      <trkpt lat="43.733849" lon="-7.877394">
        <ele>8.079</ele>
        <time>2019-06-20T13:09:19Z</time>
      </trkpt>
      <trkpt lat="43.733696" lon="-7.877449">
        <ele>8.060</ele>
        <time>2019-06-20T13:09:20Z</time>
      </trkpt>
      <trkpt lat="43.733533" lon="-7.877496">
        <ele>8.076</ele>
        <time>2019-06-20T13:09:21Z</time>
      </trkpt>
      <trkpt lat="43.733377" lon="-7.877546">
        <ele>8.033</ele>
        <time>2019-06-20T13:09:22Z</time>
      </trkpt>
      <trkpt lat="43.733211" lon="-7.877599">
        <ele>7.854</ele>
        <time>2019-06-20T13:09:23Z</time>
      </trkpt>
      <trkpt lat="43.733051" lon="-7.877657">
        <ele>7.526</ele>
        <time>2019-06-20T13:09:24Z</time>
      </trkpt>
      <trkpt lat="43.732868" lon="-7.877712">
        <ele>7.953</ele>
        <time>2019-06-20T13:09:25Z</time>
      </trkpt>
      <trkpt lat="43.732698" lon="-7.877766">
        <ele>8.694</ele>
        <time>2019-06-20T13:09:26Z</time>
      </trkpt>
      <trkpt lat="43.732524" lon="-7.877827">
        <ele>9.857</ele>
        <time>2019-06-20T13:09:27Z</time>
      </trkpt>
      <trkpt lat="43.732354" lon="-7.877879">
        <ele>10.522</ele>
        <time>2019-06-20T13:09:28Z</time>
      </trkpt>
      <trkpt lat="43.732191" lon="-7.877937">
        <ele>11.108</ele>
        <time>2019-06-20T13:09:29Z</time>
      </trkpt>
      <trkpt lat="43.732035" lon="-7.877997">
        <ele>11.712</ele>
        <time>2019-06-20T13:09:30Z</time>
      </trkpt>
      <trkpt lat="43.731884" lon="-7.878050">
        <ele>12.016</ele>
        <time>2019-06-20T13:09:31Z</time>
      </trkpt>
      <trkpt lat="43.731744" lon="-7.878095">
        <ele>12.037</ele>
        <time>2019-06-20T13:09:32Z</time>
      </trkpt>
      <trkpt lat="43.731616" lon="-7.878134">
        <ele>12.163</ele>
        <time>2019-06-20T13:09:33Z</time>
      </trkpt>
      <trkpt lat="43.731494" lon="-7.878166">
        <ele>12.530</ele>
        <time>2019-06-20T13:09:34Z</time>
      </trkpt>
      <trkpt lat="43.731392" lon="-7.878197">
        <ele>13.071</ele>
        <time>2019-06-20T13:09:35Z</time>
      </trkpt>
      <trkpt lat="43.731293" lon="-7.878216">
        <ele>13.873</ele>
        <time>2019-06-20T13:09:36Z</time>
      </trkpt>
      <trkpt lat="43.731198" lon="-7.878238">
        <ele>14.740</ele>
        <time>2019-06-20T13:09:37Z</time>
      </trkpt>
      <trkpt lat="43.731170" lon="-7.878305">
        <ele>15.414</ele>
        <time>2019-06-20T13:09:39Z</time>
      </trkpt>
      <trkpt lat="43.731163" lon="-7.878422">
        <ele>15.954</ele>
        <time>2019-06-20T13:09:41Z</time>
      </trkpt>
      <trkpt lat="43.731212" lon="-7.878552">
        <ele>16.109</ele>
        <time>2019-06-20T13:09:42Z</time>
      </trkpt>
      <trkpt lat="43.731240" lon="-7.878670">
        <ele>16.208</ele>
        <time>2019-06-20T13:09:43Z</time>
      </trkpt>
      <trkpt lat="43.731283" lon="-7.878831">
        <ele>16.134</ele>
        <time>2019-06-20T13:09:44Z</time>
      </trkpt>
      <trkpt lat="43.731318" lon="-7.878985">
        <ele>16.568</ele>
        <time>2019-06-20T13:09:45Z</time>
      </trkpt>
      <trkpt lat="43.731357" lon="-7.879149">
        <ele>17.379</ele>
        <time>2019-06-20T13:09:46Z</time>
      </trkpt>
      <trkpt lat="43.731398" lon="-7.879311">
        <ele>18.525</ele>
        <time>2019-06-20T13:09:47Z</time>
      </trkpt>
      <trkpt lat="43.731428" lon="-7.879519">
        <ele>20.422</ele>
        <time>2019-06-20T13:09:48Z</time>
      </trkpt>
      <trkpt lat="43.731470" lon="-7.879723">
        <ele>22.193</ele>
        <time>2019-06-20T13:09:49Z</time>
      </trkpt>
      <trkpt lat="43.731517" lon="-7.879926">
        <ele>23.545</ele>
        <time>2019-06-20T13:09:50Z</time>
      </trkpt>
      <trkpt lat="43.731573" lon="-7.880122">
        <ele>24.792</ele>
        <time>2019-06-20T13:09:51Z</time>
      </trkpt>
      <trkpt lat="43.731639" lon="-7.880313">
        <ele>25.916</ele>
        <time>2019-06-20T13:09:52Z</time>
      </trkpt>
      <trkpt lat="43.731731" lon="-7.880504">
        <ele>27.476</ele>
        <time>2019-06-20T13:09:53Z</time>
      </trkpt>
      <trkpt lat="43.731821" lon="-7.880689">
        <ele>28.213</ele>
        <time>2019-06-20T13:09:54Z</time>
      </trkpt>
      <trkpt lat="43.731903" lon="-7.880873">
        <ele>28.908</ele>
        <time>2019-06-20T13:09:55Z</time>
      </trkpt>
      <trkpt lat="43.731981" lon="-7.881056">
        <ele>28.814</ele>
        <time>2019-06-20T13:09:56Z</time>
      </trkpt>
      <trkpt lat="43.732038" lon="-7.881231">
        <ele>28.348</ele>
        <time>2019-06-20T13:09:57Z</time>
      </trkpt>
      <trkpt lat="43.732084" lon="-7.881405">
        <ele>27.669</ele>
        <time>2019-06-20T13:09:58Z</time>
      </trkpt>
      <trkpt lat="43.732108" lon="-7.881592">
        <ele>28.045</ele>
        <time>2019-06-20T13:09:59Z</time>
      </trkpt>
      <trkpt lat="43.732121" lon="-7.881795">
        <ele>28.922</ele>
        <time>2019-06-20T13:10:00Z</time>
      </trkpt>
      <trkpt lat="43.732122" lon="-7.882015">
        <ele>30.813</ele>
        <time>2019-06-20T13:10:01Z</time>
      </trkpt>
      <trkpt lat="43.732096" lon="-7.882242">
        <ele>34.625</ele>
        <time>2019-06-20T13:10:02Z</time>
      </trkpt>
      <trkpt lat="43.732065" lon="-7.882465">
        <ele>38.392</ele>
        <time>2019-06-20T13:10:03Z</time>
      </trkpt>
      <trkpt lat="43.732036" lon="-7.882681">
        <ele>41.391</ele>
        <time>2019-06-20T13:10:04Z</time>
      </trkpt>
      <trkpt lat="43.732006" lon="-7.882881">
        <ele>44.081</ele>
        <time>2019-06-20T13:10:05Z</time>
      </trkpt>
      <trkpt lat="43.731981" lon="-7.883061">
        <ele>46.419</ele>
        <time>2019-06-20T13:10:06Z</time>
      </trkpt>
      <trkpt lat="43.731956" lon="-7.883214">
        <ele>47.408</ele>
        <time>2019-06-20T13:10:07Z</time>
      </trkpt>
      <trkpt lat="43.731938" lon="-7.883338">
        <ele>48.212</ele>
        <time>2019-06-20T13:10:08Z</time>
      </trkpt>
      <trkpt lat="43.731922" lon="-7.883449">
        <ele>49.386</ele>
        <time>2019-06-20T13:10:09Z</time>
      </trkpt>
      <trkpt lat="43.731917" lon="-7.883569">
        <ele>50.297</ele>
        <time>2019-06-20T13:10:10Z</time>
      </trkpt>
      <trkpt lat="43.731928" lon="-7.883642">
        <ele>50.553</ele>
        <time>2019-06-20T13:10:11Z</time>
      </trkpt>
      <trkpt lat="43.731968" lon="-7.883700">
        <ele>50.410</ele>
        <time>2019-06-20T13:10:12Z</time>
      </trkpt>
      <trkpt lat="43.732062" lon="-7.883721">
        <ele>49.531</ele>
        <time>2019-06-20T13:10:13Z</time>
      </trkpt>
      <trkpt lat="43.732207" lon="-7.883698">
        <ele>47.883</ele>
        <time>2019-06-20T13:10:14Z</time>
      </trkpt>
      <trkpt lat="43.732325" lon="-7.883705">
        <ele>48.290</ele>
        <time>2019-06-20T13:10:15Z</time>
      </trkpt>
      <trkpt lat="43.732456" lon="-7.883714">
        <ele>48.982</ele>
        <time>2019-06-20T13:10:16Z</time>
      </trkpt>
      <trkpt lat="43.732595" lon="-7.883723">
        <ele>50.043</ele>
        <time>2019-06-20T13:10:17Z</time>
      </trkpt>
      <trkpt lat="43.732721" lon="-7.883727">
        <ele>51.017</ele>
        <time>2019-06-20T13:10:18Z</time>
      </trkpt>
      <trkpt lat="43.732837" lon="-7.883736">
        <ele>51.108</ele>
        <time>2019-06-20T13:10:19Z</time>
      </trkpt>
      <trkpt lat="43.732936" lon="-7.883747">
        <ele>50.681</ele>
        <time>2019-06-20T13:10:20Z</time>
      </trkpt>
      <trkpt lat="43.733018" lon="-7.883776">
        <ele>50.445</ele>
        <time>2019-06-20T13:10:21Z</time>
      </trkpt>
      <trkpt lat="43.733085" lon="-7.883832">
        <ele>49.986</ele>
        <time>2019-06-20T13:10:22Z</time>
      </trkpt>
      <trkpt lat="43.733137" lon="-7.883916">
        <ele>49.312</ele>
        <time>2019-06-20T13:10:23Z</time>
      </trkpt>
      <trkpt lat="43.733154" lon="-7.884055">
        <ele>50.549</ele>
        <time>2019-06-20T13:10:24Z</time>
      </trkpt>
      <trkpt lat="43.733189" lon="-7.884192">
        <ele>51.510</ele>
        <time>2019-06-20T13:10:25Z</time>
      </trkpt>
      <trkpt lat="43.733215" lon="-7.884359">
        <ele>53.812</ele>
        <time>2019-06-20T13:10:26Z</time>
      </trkpt>
      <trkpt lat="43.733221" lon="-7.884510">
        <ele>55.669</ele>
        <time>2019-06-20T13:10:27Z</time>
      </trkpt>
      <trkpt lat="43.733256" lon="-7.884714">
        <ele>55.932</ele>
        <time>2019-06-20T13:10:28Z</time>
      </trkpt>
      <trkpt lat="43.733286" lon="-7.884916">
        <ele>56.092</ele>
        <time>2019-06-20T13:10:29Z</time>
      </trkpt>
      <trkpt lat="43.733287" lon="-7.885162">
        <ele>57.311</ele>
        <time>2019-06-20T13:10:30Z</time>
      </trkpt>
      <trkpt lat="43.733298" lon="-7.885401">
        <ele>59.408</ele>
        <time>2019-06-20T13:10:31Z</time>
      </trkpt>
      <trkpt lat="43.733318" lon="-7.885641">
        <ele>62.586</ele>
        <time>2019-06-20T13:10:32Z</time>
      </trkpt>
      <trkpt lat="43.733354" lon="-7.885871">
        <ele>66.230</ele>
        <time>2019-06-20T13:10:33Z</time>
      </trkpt>
      <trkpt lat="43.733383" lon="-7.886101">
        <ele>70.081</ele>
        <time>2019-06-20T13:10:34Z</time>
      </trkpt>
      <trkpt lat="43.733425" lon="-7.886314">
        <ele>73.187</ele>
        <time>2019-06-20T13:10:35Z</time>
      </trkpt>
      <trkpt lat="43.733432" lon="-7.886541">
        <ele>77.484</ele>
        <time>2019-06-20T13:10:36Z</time>
      </trkpt>
      <trkpt lat="43.733480" lon="-7.886756">
        <ele>80.015</ele>
        <time>2019-06-20T13:10:37Z</time>
      </trkpt>
      <trkpt lat="43.733498" lon="-7.886982">
        <ele>83.757</ele>
        <time>2019-06-20T13:10:38Z</time>
      </trkpt>
      <trkpt lat="43.733539" lon="-7.887186">
        <ele>85.534</ele>
        <time>2019-06-20T13:10:39Z</time>
      </trkpt>
      <trkpt lat="43.733566" lon="-7.887396">
        <ele>86.345</ele>
        <time>2019-06-20T13:10:40Z</time>
      </trkpt>
      <trkpt lat="43.733617" lon="-7.887573">
        <ele>86.147</ele>
        <time>2019-06-20T13:10:41Z</time>
      </trkpt>
      <trkpt lat="43.733649" lon="-7.887764">
        <ele>85.911</ele>
        <time>2019-06-20T13:10:42Z</time>
      </trkpt>
      <trkpt lat="43.733665" lon="-7.887961">
        <ele>84.708</ele>
        <time>2019-06-20T13:10:43Z</time>
      </trkpt>
      <trkpt lat="43.733692" lon="-7.888157">
        <ele>83.627</ele>
        <time>2019-06-20T13:10:44Z</time>
      </trkpt>
      <trkpt lat="43.733710" lon="-7.888354">
        <ele>83.671</ele>
        <time>2019-06-20T13:10:45Z</time>
      </trkpt>
      <trkpt lat="43.733696" lon="-7.888558">
        <ele>85.652</ele>
        <time>2019-06-20T13:10:46Z</time>
      </trkpt>
      <trkpt lat="43.733737" lon="-7.888764">
        <ele>86.168</ele>
        <time>2019-06-20T13:10:47Z</time>
      </trkpt>
      <trkpt lat="43.733767" lon="-7.888942">
        <ele>86.995</ele>
        <time>2019-06-20T13:10:48Z</time>
      </trkpt>
      <trkpt lat="43.733812" lon="-7.889117">
        <ele>87.076</ele>
        <time>2019-06-20T13:10:49Z</time>
      </trkpt>
      <trkpt lat="43.733900" lon="-7.889291">
        <ele>86.128</ele>
        <time>2019-06-20T13:10:50Z</time>
      </trkpt>
      <trkpt lat="43.734008" lon="-7.889489">
        <ele>86.085</ele>
        <time>2019-06-20T13:10:51Z</time>
      </trkpt>
      <trkpt lat="43.734099" lon="-7.889652">
        <ele>86.386</ele>
        <time>2019-06-20T13:10:52Z</time>
      </trkpt>
      <trkpt lat="43.734227" lon="-7.889854">
        <ele>87.160</ele>
        <time>2019-06-20T13:10:53Z</time>
      </trkpt>
      <trkpt lat="43.734332" lon="-7.890046">
        <ele>88.426</ele>
        <time>2019-06-20T13:10:54Z</time>
      </trkpt>
      <trkpt lat="43.734452" lon="-7.890239">
        <ele>89.308</ele>
        <time>2019-06-20T13:10:55Z</time>
      </trkpt>
      <trkpt lat="43.734568" lon="-7.890441">
        <ele>90.651</ele>
        <time>2019-06-20T13:10:56Z</time>
      </trkpt>
      <trkpt lat="43.734680" lon="-7.890646">
        <ele>92.645</ele>
        <time>2019-06-20T13:10:57Z</time>
      </trkpt>
      <trkpt lat="43.734802" lon="-7.890855">
        <ele>95.616</ele>
        <time>2019-06-20T13:10:58Z</time>
      </trkpt>
      <trkpt lat="43.734902" lon="-7.891067">
        <ele>101.052</ele>
        <time>2019-06-20T13:10:59Z</time>
      </trkpt>
      <trkpt lat="43.735018" lon="-7.891262">
        <ele>106.619</ele>
        <time>2019-06-20T13:11:00Z</time>
      </trkpt>
      <trkpt lat="43.735112" lon="-7.891467">
        <ele>110.610</ele>
        <time>2019-06-20T13:11:01Z</time>
      </trkpt>
      <trkpt lat="43.735230" lon="-7.891663">
        <ele>111.122</ele>
        <time>2019-06-20T13:11:02Z</time>
      </trkpt>
      <trkpt lat="43.735350" lon="-7.891845">
        <ele>110.549</ele>
        <time>2019-06-20T13:11:03Z</time>
      </trkpt>
      <trkpt lat="43.735442" lon="-7.892030">
        <ele>111.483</ele>
        <time>2019-06-20T13:11:04Z</time>
      </trkpt>
      <trkpt lat="43.735548" lon="-7.892205">
        <ele>112.825</ele>
        <time>2019-06-20T13:11:05Z</time>
      </trkpt>
      <trkpt lat="43.735632" lon="-7.892386">
        <ele>115.417</ele>
        <time>2019-06-20T13:11:06Z</time>
      </trkpt>
      <trkpt lat="43.735737" lon="-7.892534">
        <ele>116.608</ele>
        <time>2019-06-20T13:11:07Z</time>
      </trkpt>
      <trkpt lat="43.735792" lon="-7.892743">
        <ele>118.051</ele>
        <time>2019-06-20T13:11:08Z</time>
      </trkpt>
      <trkpt lat="43.735877" lon="-7.892865">
        <ele>118.645</ele>
        <time>2019-06-20T13:11:09Z</time>
      </trkpt>
      <trkpt lat="43.735925" lon="-7.893006">
        <ele>120.846</ele>
        <time>2019-06-20T13:11:10Z</time>
      </trkpt>
      <trkpt lat="43.735952" lon="-7.893139">
        <ele>122.162</ele>
        <time>2019-06-20T13:11:11Z</time>
      </trkpt>
      <trkpt lat="43.735940" lon="-7.893267">
        <ele>123.679</ele>
        <time>2019-06-20T13:11:12Z</time>
      </trkpt>
      <trkpt lat="43.735937" lon="-7.893336">
        <ele>124.450</ele>
        <time>2019-06-20T13:11:13Z</time>
      </trkpt>
      <trkpt lat="43.735903" lon="-7.893410">
        <ele>126.692</ele>
        <time>2019-06-20T13:11:14Z</time>
      </trkpt>
      <trkpt lat="43.735860" lon="-7.893470">
        <ele>128.719</ele>
        <time>2019-06-20T13:11:15Z</time>
      </trkpt>
      <trkpt lat="43.735796" lon="-7.893557">
        <ele>132.595</ele>
        <time>2019-06-20T13:11:16Z</time>
      </trkpt>
      <trkpt lat="43.735702" lon="-7.893497">
        <ele>135.149</ele>
        <time>2019-06-20T13:11:18Z</time>
      </trkpt>
      <trkpt lat="43.735650" lon="-7.893395">
        <ele>135.423</ele>
        <time>2019-06-20T13:11:19Z</time>
      </trkpt>
      <trkpt lat="43.735514" lon="-7.893186">
        <ele>135.908</ele>
        <time>2019-06-20T13:11:20Z</time>
      </trkpt>
      <trkpt lat="43.735402" lon="-7.893096">
        <ele>138.112</ele>
        <time>2019-06-20T13:11:21Z</time>
      </trkpt>
      <trkpt lat="43.735286" lon="-7.893007">
        <ele>140.866</ele>
        <time>2019-06-20T13:11:22Z</time>
      </trkpt>
      <trkpt lat="43.735172" lon="-7.892910">
        <ele>143.047</ele>
        <time>2019-06-20T13:11:23Z</time>
      </trkpt>
      <trkpt lat="43.735056" lon="-7.892810">
        <ele>144.983</ele>
        <time>2019-06-20T13:11:24Z</time>
      </trkpt>
      <trkpt lat="43.734942" lon="-7.892689">
        <ele>145.540</ele>
        <time>2019-06-20T13:11:25Z</time>
      </trkpt>
      <trkpt lat="43.734792" lon="-7.892509">
        <ele>144.711</ele>
        <time>2019-06-20T13:11:26Z</time>
      </trkpt>
      <trkpt lat="43.734672" lon="-7.892393">
        <ele>144.013</ele>
        <time>2019-06-20T13:11:27Z</time>
      </trkpt>
      <trkpt lat="43.734553" lon="-7.892270">
        <ele>143.440</ele>
        <time>2019-06-20T13:11:28Z</time>
      </trkpt>
      <trkpt lat="43.734428" lon="-7.892137">
        <ele>144.244</ele>
        <time>2019-06-20T13:11:29Z</time>
      </trkpt>
      <trkpt lat="43.734331" lon="-7.892004">
        <ele>144.205</ele>
        <time>2019-06-20T13:11:30Z</time>
      </trkpt>
      <trkpt lat="43.734232" lon="-7.891876">
        <ele>143.515</ele>
        <time>2019-06-20T13:11:31Z</time>
      </trkpt>
      <trkpt lat="43.734139" lon="-7.891763">
        <ele>144.108</ele>
        <time>2019-06-20T13:11:32Z</time>
      </trkpt>
      <trkpt lat="43.734040" lon="-7.891661">
        <ele>146.747</ele>
        <time>2019-06-20T13:11:33Z</time>
      </trkpt>
      <trkpt lat="43.733939" lon="-7.891576">
        <ele>147.951</ele>
        <time>2019-06-20T13:11:34Z</time>
      </trkpt>
      <trkpt lat="43.733900" lon="-7.891501">
        <ele>146.472</ele>
        <time>2019-06-20T13:11:35Z</time>
      </trkpt>
      <trkpt lat="43.733830" lon="-7.891457">
        <ele>145.448</ele>
        <time>2019-06-20T13:11:36Z</time>
      </trkpt>
      <trkpt lat="43.733713" lon="-7.891437">
        <ele>145.525</ele>
        <time>2019-06-20T13:11:37Z</time>
      </trkpt>
      <trkpt lat="43.733620" lon="-7.891395">
        <ele>144.296</ele>
        <time>2019-06-20T13:11:38Z</time>
      </trkpt>
      <trkpt lat="43.733529" lon="-7.891441">
        <ele>144.338</ele>
        <time>2019-06-20T13:11:39Z</time>
      </trkpt>
      <trkpt lat="43.733417" lon="-7.891471">
        <ele>142.795</ele>
        <time>2019-06-20T13:11:40Z</time>
      </trkpt>
      <trkpt lat="43.733312" lon="-7.891527">
        <ele>142.224</ele>
        <time>2019-06-20T13:11:41Z</time>
      </trkpt>
      <trkpt lat="43.733211" lon="-7.891615">
        <ele>142.404</ele>
        <time>2019-06-20T13:11:42Z</time>
      </trkpt>
      <trkpt lat="43.733113" lon="-7.891719">
        <ele>142.714</ele>
        <time>2019-06-20T13:11:43Z</time>
      </trkpt>
      <trkpt lat="43.733020" lon="-7.891818">
        <ele>141.608</ele>
        <time>2019-06-20T13:11:44Z</time>
      </trkpt>
      <trkpt lat="43.732916" lon="-7.891917">
        <ele>139.265</ele>
        <time>2019-06-20T13:11:45Z</time>
      </trkpt>
      <trkpt lat="43.732821" lon="-7.892105">
        <ele>140.319</ele>
        <time>2019-06-20T13:11:46Z</time>
      </trkpt>
      <trkpt lat="43.732801" lon="-7.892281">
        <ele>144.650</ele>
        <time>2019-06-20T13:11:47Z</time>
      </trkpt>
      <trkpt lat="43.732700" lon="-7.892456">
        <ele>144.886</ele>
        <time>2019-06-20T13:11:48Z</time>
      </trkpt>
      <trkpt lat="43.732655" lon="-7.892657">
        <ele>147.273</ele>
        <time>2019-06-20T13:11:49Z</time>
      </trkpt>
      <trkpt lat="43.732593" lon="-7.892825">
        <ele>146.824</ele>
        <time>2019-06-20T13:11:50Z</time>
      </trkpt>
      <trkpt lat="43.732539" lon="-7.893011">
        <ele>147.576</ele>
        <time>2019-06-20T13:11:51Z</time>
      </trkpt>
      <trkpt lat="43.732492" lon="-7.893174">
        <ele>147.513</ele>
        <time>2019-06-20T13:11:52Z</time>
      </trkpt>
      <trkpt lat="43.732440" lon="-7.893322">
        <ele>146.337</ele>
        <time>2019-06-20T13:11:53Z</time>
      </trkpt>
      <trkpt lat="43.732399" lon="-7.893463">
        <ele>146.049</ele>
        <time>2019-06-20T13:11:54Z</time>
      </trkpt>
      <trkpt lat="43.732365" lon="-7.893650">
        <ele>147.513</ele>
        <time>2019-06-20T13:11:55Z</time>
      </trkpt>
      <trkpt lat="43.732322" lon="-7.893838">
        <ele>148.108</ele>
        <time>2019-06-20T13:11:56Z</time>
      </trkpt>
      <trkpt lat="43.732269" lon="-7.894033">
        <ele>148.596</ele>
        <time>2019-06-20T13:11:57Z</time>
      </trkpt>
      <trkpt lat="43.732215" lon="-7.894233">
        <ele>150.920</ele>
        <time>2019-06-20T13:11:58Z</time>
      </trkpt>
      <trkpt lat="43.732161" lon="-7.894453">
        <ele>157.781</ele>
        <time>2019-06-20T13:11:59Z</time>
      </trkpt>
      <trkpt lat="43.732095" lon="-7.894670">
        <ele>160.857</ele>
        <time>2019-06-20T13:12:00Z</time>
      </trkpt>
      <trkpt lat="43.732031" lon="-7.894880">
        <ele>161.014</ele>
        <time>2019-06-20T13:12:01Z</time>
      </trkpt>
      <trkpt lat="43.731975" lon="-7.895079">
        <ele>163.785</ele>
        <time>2019-06-20T13:12:02Z</time>
      </trkpt>
      <trkpt lat="43.731904" lon="-7.895281">
        <ele>168.197</ele>
        <time>2019-06-20T13:12:03Z</time>
      </trkpt>
      <trkpt lat="43.731876" lon="-7.895487">
        <ele>169.764</ele>
        <time>2019-06-20T13:12:04Z</time>
      </trkpt>
      <trkpt lat="43.731793" lon="-7.895679">
        <ele>167.658</ele>
        <time>2019-06-20T13:12:05Z</time>
      </trkpt>
      <trkpt lat="43.731731" lon="-7.895893">
        <ele>166.152</ele>
        <time>2019-06-20T13:12:06Z</time>
      </trkpt>
      <trkpt lat="43.731670" lon="-7.896121">
        <ele>164.817</ele>
        <time>2019-06-20T13:12:07Z</time>
      </trkpt>
      <trkpt lat="43.731612" lon="-7.896334">
        <ele>170.808</ele>
        <time>2019-06-20T13:12:08Z</time>
      </trkpt>
      <trkpt lat="43.731579" lon="-7.896549">
        <ele>179.688</ele>
        <time>2019-06-20T13:12:09Z</time>
      </trkpt>
      <trkpt lat="43.731530" lon="-7.896762">
        <ele>184.432</ele>
        <time>2019-06-20T13:12:10Z</time>
      </trkpt>
      <trkpt lat="43.731477" lon="-7.896978">
        <ele>186.223</ele>
        <time>2019-06-20T13:12:11Z</time>
      </trkpt>
      <trkpt lat="43.731415" lon="-7.897189">
        <ele>186.459</ele>
        <time>2019-06-20T13:12:12Z</time>
      </trkpt>
      <trkpt lat="43.731351" lon="-7.897406">
        <ele>187.226</ele>
        <time>2019-06-20T13:12:13Z</time>
      </trkpt>
      <trkpt lat="43.731298" lon="-7.897627">
        <ele>188.767</ele>
        <time>2019-06-20T13:12:14Z</time>
      </trkpt>
      <trkpt lat="43.731251" lon="-7.897863">
        <ele>190.679</ele>
        <time>2019-06-20T13:12:15Z</time>
      </trkpt>
      <trkpt lat="43.731188" lon="-7.898074">
        <ele>190.896</ele>
        <time>2019-06-20T13:12:16Z</time>
      </trkpt>
      <trkpt lat="43.731141" lon="-7.898299">
        <ele>196.326</ele>
        <time>2019-06-20T13:12:17Z</time>
      </trkpt>
      <trkpt lat="43.731133" lon="-7.898525">
        <ele>201.947</ele>
        <time>2019-06-20T13:12:18Z</time>
      </trkpt>
      <trkpt lat="43.731097" lon="-7.898763">
        <ele>204.411</ele>
        <time>2019-06-20T13:12:19Z</time>
      </trkpt>
      <trkpt lat="43.731062" lon="-7.898988">
        <ele>205.808</ele>
        <time>2019-06-20T13:12:20Z</time>
      </trkpt>
      <trkpt lat="43.731024" lon="-7.899213">
        <ele>206.415</ele>
        <time>2019-06-20T13:12:21Z</time>
      </trkpt>
      <trkpt lat="43.730970" lon="-7.899439">
        <ele>202.969</ele>
        <time>2019-06-20T13:12:22Z</time>
      </trkpt>
      <trkpt lat="43.730910" lon="-7.899666">
        <ele>200.720</ele>
        <time>2019-06-20T13:12:23Z</time>
      </trkpt>
      <trkpt lat="43.730837" lon="-7.899881">
        <ele>203.626</ele>
        <time>2019-06-20T13:12:24Z</time>
      </trkpt>
      <trkpt lat="43.730765" lon="-7.900098">
        <ele>209.583</ele>
        <time>2019-06-20T13:12:25Z</time>
      </trkpt>
      <trkpt lat="43.730670" lon="-7.900329">
        <ele>214.974</ele>
        <time>2019-06-20T13:12:26Z</time>
      </trkpt>
      <trkpt lat="43.730577" lon="-7.900541">
        <ele>220.386</ele>
        <time>2019-06-20T13:12:27Z</time>
      </trkpt>
      <trkpt lat="43.730480" lon="-7.900767">
        <ele>224.883</ele>
        <time>2019-06-20T13:12:28Z</time>
      </trkpt>
      <trkpt lat="43.730360" lon="-7.900933">
        <ele>225.576</ele>
        <time>2019-06-20T13:12:29Z</time>
      </trkpt>
      <trkpt lat="43.730220" lon="-7.901108">
        <ele>224.890</ele>
        <time>2019-06-20T13:12:30Z</time>
      </trkpt>
      <trkpt lat="43.730128" lon="-7.901306">
        <ele>222.719</ele>
        <time>2019-06-20T13:12:31Z</time>
      </trkpt>
      <trkpt lat="43.730033" lon="-7.901494">
        <ele>220.208</ele>
        <time>2019-06-20T13:12:32Z</time>
      </trkpt>
      <trkpt lat="43.729907" lon="-7.901678">
        <ele>215.940</ele>
        <time>2019-06-20T13:12:33Z</time>
      </trkpt>
      <trkpt lat="43.729798" lon="-7.901882">
        <ele>215.634</ele>
        <time>2019-06-20T13:12:34Z</time>
      </trkpt>
      <trkpt lat="43.729694" lon="-7.902087">
        <ele>217.555</ele>
        <time>2019-06-20T13:12:35Z</time>
      </trkpt>
      <trkpt lat="43.729572" lon="-7.902306">
        <ele>219.321</ele>
        <time>2019-06-20T13:12:36Z</time>
      </trkpt>
      <trkpt lat="43.729467" lon="-7.902522">
        <ele>221.018</ele>
        <time>2019-06-20T13:12:37Z</time>
      </trkpt>
      <trkpt lat="43.729353" lon="-7.902687">
        <ele>218.599</ele>
        <time>2019-06-20T13:12:38Z</time>
      </trkpt>
      <trkpt lat="43.729249" lon="-7.902851">
        <ele>216.751</ele>
        <time>2019-06-20T13:12:39Z</time>
      </trkpt>
      <trkpt lat="43.729170" lon="-7.903017">
        <ele>215.858</ele>
        <time>2019-06-20T13:12:40Z</time>
      </trkpt>
      <trkpt lat="43.729101" lon="-7.903197">
        <ele>216.253</ele>
        <time>2019-06-20T13:12:41Z</time>
      </trkpt>
      <trkpt lat="43.729048" lon="-7.903406">
        <ele>217.004</ele>
        <time>2019-06-20T13:12:42Z</time>
      </trkpt>
      <trkpt lat="43.729036" lon="-7.903594">
        <ele>218.114</ele>
        <time>2019-06-20T13:12:43Z</time>
      </trkpt>
      <trkpt lat="43.728997" lon="-7.903756">
        <ele>217.908</ele>
        <time>2019-06-20T13:12:44Z</time>
      </trkpt>
      <trkpt lat="43.728998" lon="-7.903931">
        <ele>218.658</ele>
        <time>2019-06-20T13:12:45Z</time>
      </trkpt>
      <trkpt lat="43.728985" lon="-7.904145">
        <ele>218.762</ele>
        <time>2019-06-20T13:12:46Z</time>
      </trkpt>
      <trkpt lat="43.728993" lon="-7.904360">
        <ele>219.343</ele>
        <time>2019-06-20T13:12:47Z</time>
      </trkpt>
      <trkpt lat="43.729010" lon="-7.904554">
        <ele>219.989</ele>
        <time>2019-06-20T13:12:48Z</time>
      </trkpt>
      <trkpt lat="43.729042" lon="-7.904725">
        <ele>220.966</ele>
        <time>2019-06-20T13:12:49Z</time>
      </trkpt>
      <trkpt lat="43.729075" lon="-7.904893">
        <ele>221.247</ele>
        <time>2019-06-20T13:12:50Z</time>
      </trkpt>
      <trkpt lat="43.729121" lon="-7.905063">
        <ele>221.699</ele>
        <time>2019-06-20T13:12:51Z</time>
      </trkpt>
      <trkpt lat="43.729235" lon="-7.905181">
        <ele>224.646</ele>
        <time>2019-06-20T13:12:52Z</time>
      </trkpt>
      <trkpt lat="43.729316" lon="-7.905334">
        <ele>226.716</ele>
        <time>2019-06-20T13:12:53Z</time>
      </trkpt>
      <trkpt lat="43.729411" lon="-7.905488">
        <ele>229.376</ele>
        <time>2019-06-20T13:12:54Z</time>
      </trkpt>
      <trkpt lat="43.729446" lon="-7.905691">
        <ele>229.613</ele>
        <time>2019-06-20T13:12:55Z</time>
      </trkpt>
      <trkpt lat="43.729503" lon="-7.905866">
        <ele>230.708</ele>
        <time>2019-06-20T13:12:56Z</time>
      </trkpt>
      <trkpt lat="43.729566" lon="-7.906028">
        <ele>231.834</ele>
        <time>2019-06-20T13:12:57Z</time>
      </trkpt>
      <trkpt lat="43.729649" lon="-7.906186">
        <ele>233.688</ele>
        <time>2019-06-20T13:12:58Z</time>
      </trkpt>
      <trkpt lat="43.729729" lon="-7.906351">
        <ele>234.789</ele>
        <time>2019-06-20T13:12:59Z</time>
      </trkpt>
      <trkpt lat="43.729899" lon="-7.906463">
        <ele>240.795</ele>
        <time>2019-06-20T13:13:00Z</time>
      </trkpt>
      <trkpt lat="43.730032" lon="-7.906608">
        <ele>242.452</ele>
        <time>2019-06-20T13:13:01Z</time>
      </trkpt>
      <trkpt lat="43.730158" lon="-7.906769">
        <ele>242.253</ele>
        <time>2019-06-20T13:13:02Z</time>
      </trkpt>
      <trkpt lat="43.730301" lon="-7.906914">
        <ele>243.365</ele>
        <time>2019-06-20T13:13:03Z</time>
      </trkpt>
      <trkpt lat="43.730458" lon="-7.907041">
        <ele>244.792</ele>
        <time>2019-06-20T13:13:04Z</time>
      </trkpt>
      <trkpt lat="43.730619" lon="-7.907176">
        <ele>246.752</ele>
        <time>2019-06-20T13:13:05Z</time>
      </trkpt>
      <trkpt lat="43.730785" lon="-7.907302">
        <ele>248.653</ele>
        <time>2019-06-20T13:13:06Z</time>
      </trkpt>
      <trkpt lat="43.730956" lon="-7.907447">
        <ele>246.608</ele>
        <time>2019-06-20T13:13:07Z</time>
      </trkpt>
      <trkpt lat="43.731132" lon="-7.907568">
        <ele>244.808</ele>
        <time>2019-06-20T13:13:08Z</time>
      </trkpt>
      <trkpt lat="43.731299" lon="-7.907664">
        <ele>244.858</ele>
        <time>2019-06-20T13:13:09Z</time>
      </trkpt>
      <trkpt lat="43.731429" lon="-7.907812">
        <ele>244.162</ele>
        <time>2019-06-20T13:13:10Z</time>
      </trkpt>
      <trkpt lat="43.731551" lon="-7.907947">
        <ele>247.313</ele>
        <time>2019-06-20T13:13:11Z</time>
      </trkpt>
      <trkpt lat="43.731685" lon="-7.908068">
        <ele>250.559</ele>
        <time>2019-06-20T13:13:12Z</time>
      </trkpt>
      <trkpt lat="43.731803" lon="-7.908169">
        <ele>253.696</ele>
        <time>2019-06-20T13:13:13Z</time>
      </trkpt>
      <trkpt lat="43.731933" lon="-7.908237">
        <ele>256.497</ele>
        <time>2019-06-20T13:13:14Z</time>
      </trkpt>
      <trkpt lat="43.732062" lon="-7.908269">
        <ele>258.099</ele>
        <time>2019-06-20T13:13:15Z</time>
      </trkpt>
      <trkpt lat="43.732202" lon="-7.908300">
        <ele>259.736</ele>
        <time>2019-06-20T13:13:16Z</time>
      </trkpt>
      <trkpt lat="43.732370" lon="-7.908229">
        <ele>258.978</ele>
        <time>2019-06-20T13:13:17Z</time>
      </trkpt>
      <trkpt lat="43.732480" lon="-7.908150">
        <ele>257.833</ele>
        <time>2019-06-20T13:13:18Z</time>
      </trkpt>
      <trkpt lat="43.732562" lon="-7.908060">
        <ele>257.526</ele>
        <time>2019-06-20T13:13:19Z</time>
      </trkpt>
      <trkpt lat="43.732619" lon="-7.908013">
        <ele>257.908</ele>
        <time>2019-06-20T13:13:20Z</time>
      </trkpt>
      <trkpt lat="43.732668" lon="-7.908004">
        <ele>258.270</ele>
        <time>2019-06-20T13:13:21Z</time>
      </trkpt>
      <trkpt lat="43.732714" lon="-7.908046">
        <ele>258.534</ele>
        <time>2019-06-20T13:13:22Z</time>
      </trkpt>
      <trkpt lat="43.732703" lon="-7.908190">
        <ele>259.195</ele>
        <time>2019-06-20T13:13:25Z</time>
      </trkpt>
      <trkpt lat="43.732585" lon="-7.908279">
        <ele>259.071</ele>
        <time>2019-06-20T13:13:26Z</time>
      </trkpt>
      <trkpt lat="43.732469" lon="-7.908319">
        <ele>259.068</ele>
        <time>2019-06-20T13:13:27Z</time>
      </trkpt>
      <trkpt lat="43.732372" lon="-7.908389">
        <ele>259.819</ele>
        <time>2019-06-20T13:13:28Z</time>
      </trkpt>
      <trkpt lat="43.732278" lon="-7.908464">
        <ele>260.451</ele>
        <time>2019-06-20T13:13:29Z</time>
      </trkpt>
      <trkpt lat="43.732177" lon="-7.908541">
        <ele>260.598</ele>
        <time>2019-06-20T13:13:30Z</time>
      </trkpt>
      <trkpt lat="43.732088" lon="-7.908632">
        <ele>260.973</ele>
        <time>2019-06-20T13:13:31Z</time>
      </trkpt>
      <trkpt lat="43.732008" lon="-7.908730">
        <ele>262.585</ele>
        <time>2019-06-20T13:13:32Z</time>
      </trkpt>
      <trkpt lat="43.731908" lon="-7.908873">
        <ele>264.113</ele>
        <time>2019-06-20T13:13:33Z</time>
      </trkpt>
      <trkpt lat="43.731817" lon="-7.909001">
        <ele>264.908</ele>
        <time>2019-06-20T13:13:34Z</time>
      </trkpt>
      <trkpt lat="43.731740" lon="-7.909161">
        <ele>266.510</ele>
        <time>2019-06-20T13:13:35Z</time>
      </trkpt>
      <trkpt lat="43.731683" lon="-7.909382">
        <ele>268.594</ele>
        <time>2019-06-20T13:13:36Z</time>
      </trkpt>
      <trkpt lat="43.731682" lon="-7.909609">
        <ele>271.885</ele>
        <time>2019-06-20T13:13:37Z</time>
      </trkpt>
      <trkpt lat="43.731665" lon="-7.909812">
        <ele>273.931</ele>
        <time>2019-06-20T13:13:38Z</time>
      </trkpt>
      <trkpt lat="43.731651" lon="-7.910007">
        <ele>275.718</ele>
        <time>2019-06-20T13:13:39Z</time>
      </trkpt>
      <trkpt lat="43.731635" lon="-7.910181">
        <ele>278.089</ele>
        <time>2019-06-20T13:13:40Z</time>
      </trkpt>
      <trkpt lat="43.731622" lon="-7.910353">
        <ele>279.831</ele>
        <time>2019-06-20T13:13:41Z</time>
      </trkpt>
      <trkpt lat="43.731595" lon="-7.910495">
        <ele>280.798</ele>
        <time>2019-06-20T13:13:42Z</time>
      </trkpt>
      <trkpt lat="43.731574" lon="-7.910574">
        <ele>281.016</ele>
        <time>2019-06-20T13:13:43Z</time>
      </trkpt>
      <trkpt lat="43.731561" lon="-7.910702">
        <ele>281.176</ele>
        <time>2019-06-20T13:13:44Z</time>
      </trkpt>
      <trkpt lat="43.731578" lon="-7.910813">
        <ele>281.313</ele>
        <time>2019-06-20T13:13:45Z</time>
      </trkpt>
      <trkpt lat="43.731583" lon="-7.910930">
        <ele>281.208</ele>
        <time>2019-06-20T13:13:46Z</time>
      </trkpt>
      <trkpt lat="43.731677" lon="-7.910979">
        <ele>281.684</ele>
        <time>2019-06-20T13:13:47Z</time>
      </trkpt>
      <trkpt lat="43.731756" lon="-7.911000">
        <ele>282.168</ele>
        <time>2019-06-20T13:13:48Z</time>
      </trkpt>
      <trkpt lat="43.731834" lon="-7.910926">
        <ele>283.569</ele>
        <time>2019-06-20T13:13:49Z</time>
      </trkpt>
      <trkpt lat="43.731874" lon="-7.910823">
        <ele>285.025</ele>
        <time>2019-06-20T13:13:50Z</time>
      </trkpt>
      <trkpt lat="43.731847" lon="-7.910651">
        <ele>285.052</ele>
        <time>2019-06-20T13:13:51Z</time>
      </trkpt>
      <trkpt lat="43.731843" lon="-7.910471">
        <ele>285.073</ele>
        <time>2019-06-20T13:13:52Z</time>
      </trkpt>
      <trkpt lat="43.731854" lon="-7.910277">
        <ele>284.735</ele>
        <time>2019-06-20T13:13:53Z</time>
      </trkpt>
      <trkpt lat="43.731868" lon="-7.910113">
        <ele>283.632</ele>
        <time>2019-06-20T13:13:54Z</time>
      </trkpt>
      <trkpt lat="43.731892" lon="-7.909984">
        <ele>283.149</ele>
        <time>2019-06-20T13:13:55Z</time>
      </trkpt>
      <trkpt lat="43.731917" lon="-7.909852">
        <ele>282.502</ele>
        <time>2019-06-20T13:13:56Z</time>
      </trkpt>
      <trkpt lat="43.731963" lon="-7.909709">
        <ele>282.022</ele>
        <time>2019-06-20T13:13:57Z</time>
      </trkpt>
      <trkpt lat="43.732066" lon="-7.909646">
        <ele>282.508</ele>
        <time>2019-06-20T13:13:58Z</time>
      </trkpt>
      <trkpt lat="43.732153" lon="-7.909566">
        <ele>282.697</ele>
        <time>2019-06-20T13:13:59Z</time>
      </trkpt>
      <trkpt lat="43.732244" lon="-7.909504">
        <ele>283.011</ele>
        <time>2019-06-20T13:14:00Z</time>
      </trkpt>
      <trkpt lat="43.732337" lon="-7.909451">
        <ele>282.532</ele>
        <time>2019-06-20T13:14:01Z</time>
      </trkpt>
      <trkpt lat="43.732448" lon="-7.909439">
        <ele>282.788</ele>
        <time>2019-06-20T13:14:02Z</time>
      </trkpt>
      <trkpt lat="43.732543" lon="-7.909460">
        <ele>283.085</ele>
        <time>2019-06-20T13:14:03Z</time>
      </trkpt>
      <trkpt lat="43.732625" lon="-7.909490">
        <ele>282.976</ele>
        <time>2019-06-20T13:14:04Z</time>
      </trkpt>
      <trkpt lat="43.732709" lon="-7.909529">
        <ele>283.068</ele>
        <time>2019-06-20T13:14:05Z</time>
      </trkpt>
      <trkpt lat="43.732773" lon="-7.909601">
        <ele>283.935</ele>
        <time>2019-06-20T13:14:06Z</time>
      </trkpt>
      <trkpt lat="43.732822" lon="-7.909705">
        <ele>285.472</ele>
        <time>2019-06-20T13:14:07Z</time>
      </trkpt>
      <trkpt lat="43.732872" lon="-7.909795">
        <ele>286.313</ele>
        <time>2019-06-20T13:14:08Z</time>
      </trkpt>
      <trkpt lat="43.732862" lon="-7.909926">
        <ele>288.114</ele>
        <time>2019-06-20T13:14:09Z</time>
      </trkpt>
      <trkpt lat="43.732881" lon="-7.910032">
        <ele>289.208</ele>
        <time>2019-06-20T13:14:10Z</time>
      </trkpt>
      <trkpt lat="43.732910" lon="-7.910140">
        <ele>289.820</ele>
        <time>2019-06-20T13:14:11Z</time>
      </trkpt>
      <trkpt lat="43.732915" lon="-7.910259">
        <ele>290.924</ele>
        <time>2019-06-20T13:14:13Z</time>
      </trkpt>
      <trkpt lat="43.732960" lon="-7.910290">
        <ele>290.425</ele>
        <time>2019-06-20T13:14:39Z</time>
      </trkpt>
      <trkpt lat="43.733020" lon="-7.910379">
        <ele>290.121</ele>
        <time>2019-06-20T13:14:40Z</time>
      </trkpt>
      <trkpt lat="43.733104" lon="-7.910468">
        <ele>290.488</ele>
        <time>2019-06-20T13:14:41Z</time>
      </trkpt>
      <trkpt lat="43.733211" lon="-7.910522">
        <ele>291.139</ele>
        <time>2019-06-20T13:14:42Z</time>
      </trkpt>
      <trkpt lat="43.733297" lon="-7.910607">
        <ele>292.231</ele>
        <time>2019-06-20T13:14:43Z</time>
      </trkpt>
      <trkpt lat="43.733403" lon="-7.910685">
        <ele>292.798</ele>
        <time>2019-06-20T13:14:44Z</time>
      </trkpt>
      <trkpt lat="43.733508" lon="-7.910805">
        <ele>293.732</ele>
        <time>2019-06-20T13:14:45Z</time>
      </trkpt>
      <trkpt lat="43.733596" lon="-7.910933">
        <ele>293.692</ele>
        <time>2019-06-20T13:14:46Z</time>
      </trkpt>
      <trkpt lat="43.733662" lon="-7.911109">
        <ele>291.711</ele>
        <time>2019-06-20T13:14:47Z</time>
      </trkpt>
      <trkpt lat="43.733729" lon="-7.911263">
        <ele>289.708</ele>
        <time>2019-06-20T13:14:48Z</time>
      </trkpt>
      <trkpt lat="43.733800" lon="-7.911378">
        <ele>287.976</ele>
        <time>2019-06-20T13:14:49Z</time>
      </trkpt>
      <trkpt lat="43.733851" lon="-7.911491">
        <ele>287.490</ele>
        <time>2019-06-20T13:14:50Z</time>
      </trkpt>
      <trkpt lat="43.733884" lon="-7.911602">
        <ele>287.671</ele>
        <time>2019-06-20T13:14:51Z</time>
      </trkpt>
      <trkpt lat="43.733889" lon="-7.911736">
        <ele>288.597</ele>
        <time>2019-06-20T13:14:52Z</time>
      </trkpt>
      <trkpt lat="43.733871" lon="-7.911890">
        <ele>289.764</ele>
        <time>2019-06-20T13:14:53Z</time>
      </trkpt>
      <trkpt lat="43.733845" lon="-7.912053">
        <ele>291.055</ele>
        <time>2019-06-20T13:14:54Z</time>
      </trkpt>
      <trkpt lat="43.733806" lon="-7.912250">
        <ele>292.587</ele>
        <time>2019-06-20T13:14:55Z</time>
      </trkpt>
      <trkpt lat="43.733776" lon="-7.912448">
        <ele>293.784</ele>
        <time>2019-06-20T13:14:56Z</time>
      </trkpt>
      <trkpt lat="43.733736" lon="-7.912670">
        <ele>296.172</ele>
        <time>2019-06-20T13:14:57Z</time>
      </trkpt>
      <trkpt lat="43.733696" lon="-7.912897">
        <ele>298.613</ele>
        <time>2019-06-20T13:14:58Z</time>
      </trkpt>
      <trkpt lat="43.733655" lon="-7.913112">
        <ele>300.614</ele>
        <time>2019-06-20T13:14:59Z</time>
      </trkpt>
      <trkpt lat="43.733617" lon="-7.913333">
        <ele>302.008</ele>
        <time>2019-06-20T13:15:00Z</time>
      </trkpt>
      <trkpt lat="43.733580" lon="-7.913555">
        <ele>303.750</ele>
        <time>2019-06-20T13:15:01Z</time>
      </trkpt>
      <trkpt lat="43.733554" lon="-7.913774">
        <ele>306.044</ele>
        <time>2019-06-20T13:15:02Z</time>
      </trkpt>
      <trkpt lat="43.733544" lon="-7.914006">
        <ele>307.825</ele>
        <time>2019-06-20T13:15:03Z</time>
      </trkpt>
      <trkpt lat="43.733537" lon="-7.914226">
        <ele>308.681</ele>
        <time>2019-06-20T13:15:04Z</time>
      </trkpt>
      <trkpt lat="43.733534" lon="-7.914437">
        <ele>309.378</ele>
        <time>2019-06-20T13:15:05Z</time>
      </trkpt>
      <trkpt lat="43.733539" lon="-7.914632">
        <ele>309.889</ele>
        <time>2019-06-20T13:15:06Z</time>
      </trkpt>
      <trkpt lat="43.733545" lon="-7.914821">
        <ele>311.181</ele>
        <time>2019-06-20T13:15:07Z</time>
      </trkpt>
      <trkpt lat="43.733476" lon="-7.914988">
        <ele>311.928</ele>
        <time>2019-06-20T13:15:08Z</time>
      </trkpt>
      <trkpt lat="43.733435" lon="-7.915147">
        <ele>313.465</ele>
        <time>2019-06-20T13:15:09Z</time>
      </trkpt>
      <trkpt lat="43.733365" lon="-7.915299">
        <ele>314.768</ele>
        <time>2019-06-20T13:15:10Z</time>
      </trkpt>
      <trkpt lat="43.733294" lon="-7.915449">
        <ele>316.014</ele>
        <time>2019-06-20T13:15:11Z</time>
      </trkpt>
      <trkpt lat="43.733244" lon="-7.915607">
        <ele>317.608</ele>
        <time>2019-06-20T13:15:12Z</time>
      </trkpt>
      <trkpt lat="43.733196" lon="-7.915786">
        <ele>319.029</ele>
        <time>2019-06-20T13:15:13Z</time>
      </trkpt>
      <trkpt lat="43.733191" lon="-7.915996">
        <ele>321.243</ele>
        <time>2019-06-20T13:15:14Z</time>
      </trkpt>
      <trkpt lat="43.733178" lon="-7.916193">
        <ele>323.224</ele>
        <time>2019-06-20T13:15:15Z</time>
      </trkpt>
      <trkpt lat="43.733133" lon="-7.916367">
        <ele>324.250</ele>
        <time>2019-06-20T13:15:16Z</time>
      </trkpt>
      <trkpt lat="43.733067" lon="-7.916520">
        <ele>325.137</ele>
        <time>2019-06-20T13:15:17Z</time>
      </trkpt>
      <trkpt lat="43.732974" lon="-7.916654">
        <ele>325.718</ele>
        <time>2019-06-20T13:15:18Z</time>
      </trkpt>
      <trkpt lat="43.732870" lon="-7.916784">
        <ele>325.580</ele>
        <time>2019-06-20T13:15:19Z</time>
      </trkpt>
      <trkpt lat="43.732768" lon="-7.916922">
        <ele>324.837</ele>
        <time>2019-06-20T13:15:20Z</time>
      </trkpt>
      <trkpt lat="43.732665" lon="-7.917066">
        <ele>325.574</ele>
        <time>2019-06-20T13:15:21Z</time>
      </trkpt>
      <trkpt lat="43.732555" lon="-7.917214">
        <ele>326.356</ele>
        <time>2019-06-20T13:15:22Z</time>
      </trkpt>
      <trkpt lat="43.732418" lon="-7.917335">
        <ele>328.821</ele>
        <time>2019-06-20T13:15:23Z</time>
      </trkpt>
      <trkpt lat="43.732277" lon="-7.917468">
        <ele>332.108</ele>
        <time>2019-06-20T13:15:24Z</time>
      </trkpt>
      <trkpt lat="43.732141" lon="-7.917596">
        <ele>335.320</ele>
        <time>2019-06-20T13:15:25Z</time>
      </trkpt>
      <trkpt lat="43.732008" lon="-7.917723">
        <ele>337.594</ele>
        <time>2019-06-20T13:15:26Z</time>
      </trkpt>
      <trkpt lat="43.731866" lon="-7.917851">
        <ele>339.615</ele>
        <time>2019-06-20T13:15:27Z</time>
      </trkpt>
      <trkpt lat="43.731748" lon="-7.917970">
        <ele>342.271</ele>
        <time>2019-06-20T13:15:28Z</time>
      </trkpt>
      <trkpt lat="43.731636" lon="-7.918079">
        <ele>344.048</ele>
        <time>2019-06-20T13:15:29Z</time>
      </trkpt>
      <trkpt lat="43.731532" lon="-7.918186">
        <ele>344.299</ele>
        <time>2019-06-20T13:15:30Z</time>
      </trkpt>
      <trkpt lat="43.731434" lon="-7.918287">
        <ele>344.771</ele>
        <time>2019-06-20T13:15:31Z</time>
      </trkpt>
      <trkpt lat="43.731365" lon="-7.918385">
        <ele>345.288</ele>
        <time>2019-06-20T13:15:32Z</time>
      </trkpt>
      <trkpt lat="43.731285" lon="-7.918491">
        <ele>345.457</ele>
        <time>2019-06-20T13:15:33Z</time>
      </trkpt>
      <trkpt lat="43.731248" lon="-7.918661">
        <ele>346.300</ele>
        <time>2019-06-20T13:15:34Z</time>
      </trkpt>
      <trkpt lat="43.731227" lon="-7.918816">
        <ele>347.420</ele>
        <time>2019-06-20T13:15:35Z</time>
      </trkpt>
      <trkpt lat="43.731193" lon="-7.918985">
        <ele>348.508</ele>
        <time>2019-06-20T13:15:36Z</time>
      </trkpt>
      <trkpt lat="43.731176" lon="-7.919200">
        <ele>349.838</ele>
        <time>2019-06-20T13:15:37Z</time>
      </trkpt>
      <trkpt lat="43.731156" lon="-7.919385">
        <ele>351.242</ele>
        <time>2019-06-20T13:15:38Z</time>
      </trkpt>
      <trkpt lat="43.731145" lon="-7.919567">
        <ele>352.323</ele>
        <time>2019-06-20T13:15:39Z</time>
      </trkpt>
      <trkpt lat="43.731123" lon="-7.919752">
        <ele>353.339</ele>
        <time>2019-06-20T13:15:40Z</time>
      </trkpt>
      <trkpt lat="43.731115" lon="-7.919970">
        <ele>355.696</ele>
        <time>2019-06-20T13:15:41Z</time>
      </trkpt>
      <trkpt lat="43.731147" lon="-7.920175">
        <ele>357.247</ele>
        <time>2019-06-20T13:15:42Z</time>
      </trkpt>
      <trkpt lat="43.731170" lon="-7.920376">
        <ele>359.219</ele>
        <time>2019-06-20T13:15:43Z</time>
      </trkpt>
      <trkpt lat="43.731195" lon="-7.920570">
        <ele>361.156</ele>
        <time>2019-06-20T13:15:44Z</time>
      </trkpt>
      <trkpt lat="43.731206" lon="-7.920692">
        <ele>362.031</ele>
        <time>2019-06-20T13:15:45Z</time>
      </trkpt>
      <trkpt lat="43.731227" lon="-7.920849">
        <ele>363.261</ele>
        <time>2019-06-20T13:15:46Z</time>
      </trkpt>
      <trkpt lat="43.731233" lon="-7.921011">
        <ele>364.907</ele>
        <time>2019-06-20T13:15:47Z</time>
      </trkpt>
      <trkpt lat="43.731222" lon="-7.921176">
        <ele>366.408</ele>
        <time>2019-06-20T13:15:48Z</time>
      </trkpt>
      <trkpt lat="43.731204" lon="-7.921326">
        <ele>367.376</ele>
        <time>2019-06-20T13:15:49Z</time>
      </trkpt>
      <trkpt lat="43.731183" lon="-7.921464">
        <ele>367.450</ele>
        <time>2019-06-20T13:15:50Z</time>
      </trkpt>
      <trkpt lat="43.731176" lon="-7.921610">
        <ele>367.051</ele>
        <time>2019-06-20T13:15:51Z</time>
      </trkpt>
      <trkpt lat="43.731173" lon="-7.921779">
        <ele>367.697</ele>
        <time>2019-06-20T13:15:52Z</time>
      </trkpt>
      <trkpt lat="43.731184" lon="-7.921940">
        <ele>368.844</ele>
        <time>2019-06-20T13:15:53Z</time>
      </trkpt>
      <trkpt lat="43.731219" lon="-7.922124">
        <ele>369.895</ele>
        <time>2019-06-20T13:15:54Z</time>
      </trkpt>
      <trkpt lat="43.731251" lon="-7.922302">
        <ele>370.747</ele>
        <time>2019-06-20T13:15:55Z</time>
      </trkpt>
      <trkpt lat="43.731280" lon="-7.922484">
        <ele>371.414</ele>
        <time>2019-06-20T13:15:56Z</time>
      </trkpt>
      <trkpt lat="43.731318" lon="-7.922677">
        <ele>372.674</ele>
        <time>2019-06-20T13:15:57Z</time>
      </trkpt>
      <trkpt lat="43.731364" lon="-7.922873">
        <ele>374.656</ele>
        <time>2019-06-20T13:15:58Z</time>
      </trkpt>
      <trkpt lat="43.731410" lon="-7.923078">
        <ele>377.221</ele>
        <time>2019-06-20T13:15:59Z</time>
      </trkpt>
      <trkpt lat="43.731462" lon="-7.923301">
        <ele>378.508</ele>
        <time>2019-06-20T13:16:00Z</time>
      </trkpt>
      <trkpt lat="43.731520" lon="-7.923508">
        <ele>380.530</ele>
        <time>2019-06-20T13:16:01Z</time>
      </trkpt>
      <trkpt lat="43.731571" lon="-7.923726">
        <ele>382.024</ele>
        <time>2019-06-20T13:16:02Z</time>
      </trkpt>
      <trkpt lat="43.731599" lon="-7.923947">
        <ele>383.235</ele>
        <time>2019-06-20T13:16:03Z</time>
      </trkpt>
      <trkpt lat="43.731612" lon="-7.924190">
        <ele>384.091</ele>
        <time>2019-06-20T13:16:04Z</time>
      </trkpt>
      <trkpt lat="43.731600" lon="-7.924428">
        <ele>384.058</ele>
        <time>2019-06-20T13:16:05Z</time>
      </trkpt>
      <trkpt lat="43.731589" lon="-7.924659">
        <ele>386.019</ele>
        <time>2019-06-20T13:16:06Z</time>
      </trkpt>
      <trkpt lat="43.731565" lon="-7.924889">
        <ele>387.431</ele>
        <time>2019-06-20T13:16:07Z</time>
      </trkpt>
      <trkpt lat="43.731562" lon="-7.925040">
        <ele>388.628</ele>
        <time>2019-06-20T13:16:08Z</time>
      </trkpt>
      <trkpt lat="43.731570" lon="-7.925194">
        <ele>390.644</ele>
        <time>2019-06-20T13:16:09Z</time>
      </trkpt>
      <trkpt lat="43.731561" lon="-7.925296">
        <ele>391.705</ele>
        <time>2019-06-20T13:16:10Z</time>
      </trkpt>
      <trkpt lat="43.731572" lon="-7.925412">
        <ele>393.115</ele>
        <time>2019-06-20T13:16:11Z</time>
      </trkpt>
      <trkpt lat="43.731603" lon="-7.925495">
        <ele>394.408</ele>
        <time>2019-06-20T13:16:12Z</time>
      </trkpt>
      <trkpt lat="43.731658" lon="-7.925530">
        <ele>395.667</ele>
        <time>2019-06-20T13:16:13Z</time>
      </trkpt>
      <trkpt lat="43.731719" lon="-7.925544">
        <ele>396.491</ele>
        <time>2019-06-20T13:16:14Z</time>
      </trkpt>
      <trkpt lat="43.731756" lon="-7.925487">
        <ele>396.342</ele>
        <time>2019-06-20T13:16:15Z</time>
      </trkpt>
      <trkpt lat="43.731816" lon="-7.925440">
        <ele>396.618</ele>
        <time>2019-06-20T13:16:16Z</time>
      </trkpt>
      <trkpt lat="43.731894" lon="-7.925355">
        <ele>396.985</ele>
        <time>2019-06-20T13:16:17Z</time>
      </trkpt>
      <trkpt lat="43.731975" lon="-7.925272">
        <ele>397.546</ele>
        <time>2019-06-20T13:16:18Z</time>
      </trkpt>
      <trkpt lat="43.732065" lon="-7.925185">
        <ele>398.718</ele>
        <time>2019-06-20T13:16:19Z</time>
      </trkpt>
      <trkpt lat="43.732157" lon="-7.925090">
        <ele>399.615</ele>
        <time>2019-06-20T13:16:20Z</time>
      </trkpt>
      <trkpt lat="43.732255" lon="-7.924989">
        <ele>400.541</ele>
        <time>2019-06-20T13:16:21Z</time>
      </trkpt>
      <trkpt lat="43.732359" lon="-7.924885">
        <ele>401.481</ele>
        <time>2019-06-20T13:16:22Z</time>
      </trkpt>
      <trkpt lat="43.732465" lon="-7.924775">
        <ele>402.009</ele>
        <time>2019-06-20T13:16:23Z</time>
      </trkpt>
      <trkpt lat="43.732573" lon="-7.924662">
        <ele>402.508</ele>
        <time>2019-06-20T13:16:24Z</time>
      </trkpt>
      <trkpt lat="43.732680" lon="-7.924553">
        <ele>403.247</ele>
        <time>2019-06-20T13:16:25Z</time>
      </trkpt>
      <trkpt lat="43.732781" lon="-7.924448">
        <ele>404.151</ele>
        <time>2019-06-20T13:16:26Z</time>
      </trkpt>
      <trkpt lat="43.732875" lon="-7.924355">
        <ele>404.992</ele>
        <time>2019-06-20T13:16:27Z</time>
      </trkpt>
      <trkpt lat="43.732960" lon="-7.924266">
        <ele>405.858</ele>
        <time>2019-06-20T13:16:28Z</time>
      </trkpt>
      <trkpt lat="43.733046" lon="-7.924190">
        <ele>406.995</ele>
        <time>2019-06-20T13:16:29Z</time>
      </trkpt>
      <trkpt lat="43.733132" lon="-7.924128">
        <ele>408.296</ele>
        <time>2019-06-20T13:16:30Z</time>
      </trkpt>
      <trkpt lat="43.733217" lon="-7.924075">
        <ele>409.428</ele>
        <time>2019-06-20T13:16:31Z</time>
      </trkpt>
      <trkpt lat="43.733306" lon="-7.924043">
        <ele>410.795</ele>
        <time>2019-06-20T13:16:32Z</time>
      </trkpt>
      <trkpt lat="43.733393" lon="-7.924035">
        <ele>411.859</ele>
        <time>2019-06-20T13:16:33Z</time>
      </trkpt>
      <trkpt lat="43.733471" lon="-7.924061">
        <ele>413.003</ele>
        <time>2019-06-20T13:16:34Z</time>
      </trkpt>
      <trkpt lat="43.733544" lon="-7.924110">
        <ele>414.523</ele>
        <time>2019-06-20T13:16:35Z</time>
      </trkpt>
      <trkpt lat="43.733595" lon="-7.924210">
        <ele>415.908</ele>
        <time>2019-06-20T13:16:36Z</time>
      </trkpt>
      <trkpt lat="43.733658" lon="-7.924317">
        <ele>416.678</ele>
        <time>2019-06-20T13:16:37Z</time>
      </trkpt>
      <trkpt lat="43.733725" lon="-7.924422">
        <ele>417.312</ele>
        <time>2019-06-20T13:16:38Z</time>
      </trkpt>
      <trkpt lat="43.733802" lon="-7.924529">
        <ele>418.173</ele>
        <time>2019-06-20T13:16:39Z</time>
      </trkpt>
      <trkpt lat="43.733889" lon="-7.924629">
        <ele>418.779</ele>
        <time>2019-06-20T13:16:40Z</time>
      </trkpt>
      <trkpt lat="43.733986" lon="-7.924711">
        <ele>418.976</ele>
        <time>2019-06-20T13:16:41Z</time>
      </trkpt>
      <trkpt lat="43.734090" lon="-7.924783">
        <ele>419.987</ele>
        <time>2019-06-20T13:16:42Z</time>
      </trkpt>
      <trkpt lat="43.734201" lon="-7.924832">
        <ele>420.779</ele>
        <time>2019-06-20T13:16:43Z</time>
      </trkpt>
      <trkpt lat="43.734319" lon="-7.924866">
        <ele>421.396</ele>
        <time>2019-06-20T13:16:44Z</time>
      </trkpt>
      <trkpt lat="43.734430" lon="-7.924907">
        <ele>422.077</ele>
        <time>2019-06-20T13:16:45Z</time>
      </trkpt>
      <trkpt lat="43.734546" lon="-7.924951">
        <ele>423.261</ele>
        <time>2019-06-20T13:16:46Z</time>
      </trkpt>
      <trkpt lat="43.734661" lon="-7.925030">
        <ele>424.927</ele>
        <time>2019-06-20T13:16:47Z</time>
      </trkpt>
      <trkpt lat="43.734778" lon="-7.925125">
        <ele>426.608</ele>
        <time>2019-06-20T13:16:48Z</time>
      </trkpt>
      <trkpt lat="43.734887" lon="-7.925236">
        <ele>428.190</ele>
        <time>2019-06-20T13:16:49Z</time>
      </trkpt>
      <trkpt lat="43.734979" lon="-7.925356">
        <ele>430.164</ele>
        <time>2019-06-20T13:16:50Z</time>
      </trkpt>
      <trkpt lat="43.735062" lon="-7.925479">
        <ele>431.925</ele>
        <time>2019-06-20T13:16:51Z</time>
      </trkpt>
      <trkpt lat="43.735135" lon="-7.925595">
        <ele>433.721</ele>
        <time>2019-06-20T13:16:52Z</time>
      </trkpt>
      <trkpt lat="43.735178" lon="-7.925750">
        <ele>436.568</ele>
        <time>2019-06-20T13:16:53Z</time>
      </trkpt>
      <trkpt lat="43.735217" lon="-7.925913">
        <ele>439.059</ele>
        <time>2019-06-20T13:16:54Z</time>
      </trkpt>
      <trkpt lat="43.735241" lon="-7.926085">
        <ele>441.491</ele>
        <time>2019-06-20T13:16:55Z</time>
      </trkpt>
      <trkpt lat="43.735245" lon="-7.926260">
        <ele>442.988</ele>
        <time>2019-06-20T13:16:56Z</time>
      </trkpt>
      <trkpt lat="43.735229" lon="-7.926456">
        <ele>444.519</ele>
        <time>2019-06-20T13:16:57Z</time>
      </trkpt>
      <trkpt lat="43.735197" lon="-7.926639">
        <ele>446.409</ele>
        <time>2019-06-20T13:16:58Z</time>
      </trkpt>
      <trkpt lat="43.735143" lon="-7.926846">
        <ele>447.519</ele>
        <time>2019-06-20T13:16:59Z</time>
      </trkpt>
      <trkpt lat="43.735081" lon="-7.927053">
        <ele>448.208</ele>
        <time>2019-06-20T13:17:00Z</time>
      </trkpt>
      <trkpt lat="43.735007" lon="-7.927247">
        <ele>448.954</ele>
        <time>2019-06-20T13:17:01Z</time>
      </trkpt>
      <trkpt lat="43.734928" lon="-7.927440">
        <ele>449.818</ele>
        <time>2019-06-20T13:17:02Z</time>
      </trkpt>
      <trkpt lat="43.734849" lon="-7.927628">
        <ele>452.229</ele>
        <time>2019-06-20T13:17:03Z</time>
      </trkpt>
      <trkpt lat="43.734767" lon="-7.927809">
        <ele>456.025</ele>
        <time>2019-06-20T13:17:04Z</time>
      </trkpt>
      <trkpt lat="43.734687" lon="-7.927996">
        <ele>459.822</ele>
        <time>2019-06-20T13:17:05Z</time>
      </trkpt>
      <trkpt lat="43.734611" lon="-7.928188">
        <ele>462.943</ele>
        <time>2019-06-20T13:17:06Z</time>
      </trkpt>
      <trkpt lat="43.734534" lon="-7.928369">
        <ele>466.385</ele>
        <time>2019-06-20T13:17:07Z</time>
      </trkpt>
      <trkpt lat="43.734458" lon="-7.928542">
        <ele>469.992</ele>
        <time>2019-06-20T13:17:08Z</time>
      </trkpt>
      <trkpt lat="43.734376" lon="-7.928710">
        <ele>472.445</ele>
        <time>2019-06-20T13:17:09Z</time>
      </trkpt>
      <trkpt lat="43.734274" lon="-7.928867">
        <ele>475.247</ele>
        <time>2019-06-20T13:17:10Z</time>
      </trkpt>
      <trkpt lat="43.734173" lon="-7.929015">
        <ele>478.211</ele>
        <time>2019-06-20T13:17:11Z</time>
      </trkpt>
      <trkpt lat="43.734057" lon="-7.929155">
        <ele>481.008</ele>
        <time>2019-06-20T13:17:12Z</time>
      </trkpt>
      <trkpt lat="43.733935" lon="-7.929282">
        <ele>482.997</ele>
        <time>2019-06-20T13:17:13Z</time>
      </trkpt>
      <trkpt lat="43.733793" lon="-7.929390">
        <ele>483.771</ele>
        <time>2019-06-20T13:17:14Z</time>
      </trkpt>
      <trkpt lat="43.733651" lon="-7.929501">
        <ele>484.842</ele>
        <time>2019-06-20T13:17:15Z</time>
      </trkpt>
      <trkpt lat="43.733498" lon="-7.929610">
        <ele>485.298</ele>
        <time>2019-06-20T13:17:16Z</time>
      </trkpt>
      <trkpt lat="43.733342" lon="-7.929717">
        <ele>486.065</ele>
        <time>2019-06-20T13:17:17Z</time>
      </trkpt>
      <trkpt lat="43.733197" lon="-7.929821">
        <ele>487.096</ele>
        <time>2019-06-20T13:17:18Z</time>
      </trkpt>
      <trkpt lat="43.733037" lon="-7.929955">
        <ele>489.618</ele>
        <time>2019-06-20T13:17:19Z</time>
      </trkpt>
      <trkpt lat="43.732876" lon="-7.930071">
        <ele>491.185</ele>
        <time>2019-06-20T13:17:20Z</time>
      </trkpt>
      <trkpt lat="43.732721" lon="-7.930204">
        <ele>493.227</ele>
        <time>2019-06-20T13:17:21Z</time>
      </trkpt>
      <trkpt lat="43.732564" lon="-7.930335">
        <ele>495.868</ele>
        <time>2019-06-20T13:17:22Z</time>
      </trkpt>
      <trkpt lat="43.732413" lon="-7.930465">
        <ele>499.814</ele>
        <time>2019-06-20T13:17:23Z</time>
      </trkpt>
      <trkpt lat="43.732247" lon="-7.930572">
        <ele>503.208</ele>
        <time>2019-06-20T13:17:24Z</time>
      </trkpt>
      <trkpt lat="43.732088" lon="-7.930686">
        <ele>504.835</ele>
        <time>2019-06-20T13:17:25Z</time>
      </trkpt>
      <trkpt lat="43.731926" lon="-7.930795">
        <ele>506.899</ele>
        <time>2019-06-20T13:17:26Z</time>
      </trkpt>
      <trkpt lat="43.731769" lon="-7.930897">
        <ele>506.980</ele>
        <time>2019-06-20T13:17:27Z</time>
      </trkpt>
      <trkpt lat="43.731619" lon="-7.931010">
        <ele>508.266</ele>
        <time>2019-06-20T13:17:28Z</time>
      </trkpt>
      <trkpt lat="43.731477" lon="-7.931133">
        <ele>510.183</ele>
        <time>2019-06-20T13:17:29Z</time>
      </trkpt>
      <trkpt lat="43.731334" lon="-7.931252">
        <ele>511.694</ele>
        <time>2019-06-20T13:17:30Z</time>
      </trkpt>
      <trkpt lat="43.731200" lon="-7.931370">
        <ele>513.256</ele>
        <time>2019-06-20T13:17:31Z</time>
      </trkpt>
      <trkpt lat="43.731068" lon="-7.931498">
        <ele>515.353</ele>
        <time>2019-06-20T13:17:32Z</time>
      </trkpt>
      <trkpt lat="43.730937" lon="-7.931648">
        <ele>517.159</ele>
        <time>2019-06-20T13:17:33Z</time>
      </trkpt>
      <trkpt lat="43.730818" lon="-7.931814">
        <ele>517.803</ele>
        <time>2019-06-20T13:17:34Z</time>
      </trkpt>
      <trkpt lat="43.730685" lon="-7.931998">
        <ele>517.923</ele>
        <time>2019-06-20T13:17:35Z</time>
      </trkpt>
      <trkpt lat="43.730554" lon="-7.932179">
        <ele>519.008</ele>
        <time>2019-06-20T13:17:36Z</time>
      </trkpt>
      <trkpt lat="43.730420" lon="-7.932367">
        <ele>520.958</ele>
        <time>2019-06-20T13:17:37Z</time>
      </trkpt>
      <trkpt lat="43.730286" lon="-7.932558">
        <ele>522.462</ele>
        <time>2019-06-20T13:17:38Z</time>
      </trkpt>
      <trkpt lat="43.730140" lon="-7.932750">
        <ele>525.483</ele>
        <time>2019-06-20T13:17:39Z</time>
      </trkpt>
      <trkpt lat="43.729998" lon="-7.932929">
        <ele>528.329</ele>
        <time>2019-06-20T13:17:40Z</time>
      </trkpt>
      <trkpt lat="43.729849" lon="-7.933114">
        <ele>531.446</ele>
        <time>2019-06-20T13:17:41Z</time>
      </trkpt>
      <trkpt lat="43.729701" lon="-7.933293">
        <ele>532.237</ele>
        <time>2019-06-20T13:17:42Z</time>
      </trkpt>
      <trkpt lat="43.729555" lon="-7.933459">
        <ele>532.669</ele>
        <time>2019-06-20T13:17:43Z</time>
      </trkpt>
      <trkpt lat="43.729410" lon="-7.933634">
        <ele>533.276</ele>
        <time>2019-06-20T13:17:44Z</time>
      </trkpt>
      <trkpt lat="43.729269" lon="-7.933803">
        <ele>536.091</ele>
        <time>2019-06-20T13:17:45Z</time>
      </trkpt>
      <trkpt lat="43.729130" lon="-7.933972">
        <ele>539.081</ele>
        <time>2019-06-20T13:17:46Z</time>
      </trkpt>
      <trkpt lat="43.728987" lon="-7.934143">
        <ele>541.519</ele>
        <time>2019-06-20T13:17:47Z</time>
      </trkpt>
      <trkpt lat="43.728845" lon="-7.934319">
        <ele>544.308</ele>
        <time>2019-06-20T13:17:48Z</time>
      </trkpt>
      <trkpt lat="43.728709" lon="-7.934496">
        <ele>546.332</ele>
        <time>2019-06-20T13:17:49Z</time>
      </trkpt>
      <trkpt lat="43.728575" lon="-7.934695">
        <ele>550.066</ele>
        <time>2019-06-20T13:17:50Z</time>
      </trkpt>
      <trkpt lat="43.728449" lon="-7.934887">
        <ele>552.817</ele>
        <time>2019-06-20T13:17:51Z</time>
      </trkpt>
      <trkpt lat="43.728326" lon="-7.935087">
        <ele>554.843</ele>
        <time>2019-06-20T13:17:52Z</time>
      </trkpt>
      <trkpt lat="43.728194" lon="-7.935314">
        <ele>555.370</ele>
        <time>2019-06-20T13:17:53Z</time>
      </trkpt>
      <trkpt lat="43.728063" lon="-7.935541">
        <ele>555.031</ele>
        <time>2019-06-20T13:17:54Z</time>
      </trkpt>
      <trkpt lat="43.727931" lon="-7.935761">
        <ele>556.323</ele>
        <time>2019-06-20T13:17:55Z</time>
      </trkpt>
      <trkpt lat="43.727800" lon="-7.935982">
        <ele>558.350</ele>
        <time>2019-06-20T13:17:56Z</time>
      </trkpt>
      <trkpt lat="43.727671" lon="-7.936196">
        <ele>560.526</ele>
        <time>2019-06-20T13:17:57Z</time>
      </trkpt>
      <trkpt lat="43.727537" lon="-7.936413">
        <ele>562.347</ele>
        <time>2019-06-20T13:17:58Z</time>
      </trkpt>
      <trkpt lat="43.727405" lon="-7.936634">
        <ele>564.411</ele>
        <time>2019-06-20T13:17:59Z</time>
      </trkpt>
      <trkpt lat="43.727273" lon="-7.936863">
        <ele>568.508</ele>
        <time>2019-06-20T13:18:00Z</time>
      </trkpt>
      <trkpt lat="43.727143" lon="-7.937084">
        <ele>571.455</ele>
        <time>2019-06-20T13:18:01Z</time>
      </trkpt>
      <trkpt lat="43.727007" lon="-7.937308">
        <ele>573.289</ele>
        <time>2019-06-20T13:18:02Z</time>
      </trkpt>
      <trkpt lat="43.726873" lon="-7.937530">
        <ele>573.780</ele>
        <time>2019-06-20T13:18:03Z</time>
      </trkpt>
      <trkpt lat="43.726740" lon="-7.937750">
        <ele>574.316</ele>
        <time>2019-06-20T13:18:04Z</time>
      </trkpt>
      <trkpt lat="43.726607" lon="-7.937972">
        <ele>576.183</ele>
        <time>2019-06-20T13:18:05Z</time>
      </trkpt>
      <trkpt lat="43.726474" lon="-7.938198">
        <ele>579.114</ele>
        <time>2019-06-20T13:18:06Z</time>
      </trkpt>
      <trkpt lat="43.726342" lon="-7.938420">
        <ele>581.946</ele>
        <time>2019-06-20T13:18:07Z</time>
      </trkpt>
      <trkpt lat="43.726211" lon="-7.938644">
        <ele>584.043</ele>
        <time>2019-06-20T13:18:08Z</time>
      </trkpt>
      <trkpt lat="43.726081" lon="-7.938862">
        <ele>584.566</ele>
        <time>2019-06-20T13:18:09Z</time>
      </trkpt>
      <trkpt lat="43.725950" lon="-7.939076">
        <ele>584.629</ele>
        <time>2019-06-20T13:18:10Z</time>
      </trkpt>
      <trkpt lat="43.725820" lon="-7.939289">
        <ele>586.221</ele>
        <time>2019-06-20T13:18:11Z</time>
      </trkpt>
      <trkpt lat="43.725692" lon="-7.939517">
        <ele>589.908</ele>
        <time>2019-06-20T13:18:12Z</time>
      </trkpt>
      <trkpt lat="43.725568" lon="-7.939732">
        <ele>593.239</ele>
        <time>2019-06-20T13:18:13Z</time>
      </trkpt>
      <trkpt lat="43.725438" lon="-7.939955">
        <ele>594.553</ele>
        <time>2019-06-20T13:18:14Z</time>
      </trkpt>
      <trkpt lat="43.725304" lon="-7.940167">
        <ele>594.864</ele>
        <time>2019-06-20T13:18:15Z</time>
      </trkpt>
      <trkpt lat="43.725170" lon="-7.940392">
        <ele>594.170</ele>
        <time>2019-06-20T13:18:16Z</time>
      </trkpt>
      <trkpt lat="43.725029" lon="-7.940621">
        <ele>593.287</ele>
        <time>2019-06-20T13:18:17Z</time>
      </trkpt>
      <trkpt lat="43.724888" lon="-7.940853">
        <ele>594.468</ele>
        <time>2019-06-20T13:18:18Z</time>
      </trkpt>
      <trkpt lat="43.724751" lon="-7.941070">
        <ele>596.510</ele>
        <time>2019-06-20T13:18:19Z</time>
      </trkpt>
      <trkpt lat="43.724630" lon="-7.941276">
        <ele>598.227</ele>
        <time>2019-06-20T13:18:20Z</time>
      </trkpt>
      <trkpt lat="43.724517" lon="-7.941468">
        <ele>599.449</ele>
        <time>2019-06-20T13:18:21Z</time>
      </trkpt>
      <trkpt lat="43.724411" lon="-7.941652">
        <ele>599.602</ele>
        <time>2019-06-20T13:18:22Z</time>
      </trkpt>
      <trkpt lat="43.724299" lon="-7.941836">
        <ele>599.422</ele>
        <time>2019-06-20T13:18:23Z</time>
      </trkpt>
      <trkpt lat="43.724188" lon="-7.942016">
        <ele>599.608</ele>
        <time>2019-06-20T13:18:24Z</time>
      </trkpt>
      <trkpt lat="43.724078" lon="-7.942204">
        <ele>600.257</ele>
        <time>2019-06-20T13:18:25Z</time>
      </trkpt>
      <trkpt lat="43.723962" lon="-7.942391">
        <ele>600.731</ele>
        <time>2019-06-20T13:18:26Z</time>
      </trkpt>
      <trkpt lat="43.723849" lon="-7.942579">
        <ele>601.112</ele>
        <time>2019-06-20T13:18:27Z</time>
      </trkpt>
      <trkpt lat="43.723738" lon="-7.942761">
        <ele>600.768</ele>
        <time>2019-06-20T13:18:28Z</time>
      </trkpt>
      <trkpt lat="43.723623" lon="-7.942943">
        <ele>600.325</ele>
        <time>2019-06-20T13:18:29Z</time>
      </trkpt>
      <trkpt lat="43.723510" lon="-7.943126">
        <ele>600.396</ele>
        <time>2019-06-20T13:18:30Z</time>
      </trkpt>
      <trkpt lat="43.723399" lon="-7.943319">
        <ele>600.448</ele>
        <time>2019-06-20T13:18:31Z</time>
      </trkpt>
      <trkpt lat="43.723285" lon="-7.943509">
        <ele>600.245</ele>
        <time>2019-06-20T13:18:32Z</time>
      </trkpt>
      <trkpt lat="43.723171" lon="-7.943698">
        <ele>600.571</ele>
        <time>2019-06-20T13:18:33Z</time>
      </trkpt>
      <trkpt lat="43.723059" lon="-7.943892">
        <ele>601.041</ele>
        <time>2019-06-20T13:18:34Z</time>
      </trkpt>
      <trkpt lat="43.722945" lon="-7.944086">
        <ele>600.715</ele>
        <time>2019-06-20T13:18:35Z</time>
      </trkpt>
      <trkpt lat="43.722829" lon="-7.944286">
        <ele>600.808</ele>
        <time>2019-06-20T13:18:36Z</time>
      </trkpt>
      <trkpt lat="43.722717" lon="-7.944472">
        <ele>600.780</ele>
        <time>2019-06-20T13:18:37Z</time>
      </trkpt>
      <trkpt lat="43.722607" lon="-7.944649">
        <ele>600.574</ele>
        <time>2019-06-20T13:18:38Z</time>
      </trkpt>
      <trkpt lat="43.722501" lon="-7.944814">
        <ele>600.035</ele>
        <time>2019-06-20T13:18:39Z</time>
      </trkpt>
      <trkpt lat="43.722398" lon="-7.944976">
        <ele>598.581</ele>
        <time>2019-06-20T13:18:40Z</time>
      </trkpt>
      <trkpt lat="43.722295" lon="-7.945137">
        <ele>597.468</ele>
        <time>2019-06-20T13:18:41Z</time>
      </trkpt>
      <trkpt lat="43.722186" lon="-7.945296">
        <ele>596.799</ele>
        <time>2019-06-20T13:18:42Z</time>
      </trkpt>
      <trkpt lat="43.722072" lon="-7.945463">
        <ele>596.771</ele>
        <time>2019-06-20T13:18:43Z</time>
      </trkpt>
      <trkpt lat="43.721962" lon="-7.945627">
        <ele>596.238</ele>
        <time>2019-06-20T13:18:44Z</time>
      </trkpt>
      <trkpt lat="43.721851" lon="-7.945791">
        <ele>594.721</ele>
        <time>2019-06-20T13:18:45Z</time>
      </trkpt>
      <trkpt lat="43.721746" lon="-7.945954">
        <ele>593.541</ele>
        <time>2019-06-20T13:18:46Z</time>
      </trkpt>
      <trkpt lat="43.721639" lon="-7.946116">
        <ele>592.705</ele>
        <time>2019-06-20T13:18:47Z</time>
      </trkpt>
      <trkpt lat="43.721537" lon="-7.946268">
        <ele>592.508</ele>
        <time>2019-06-20T13:18:48Z</time>
      </trkpt>
      <trkpt lat="43.721437" lon="-7.946426">
        <ele>591.745</ele>
        <time>2019-06-20T13:18:49Z</time>
      </trkpt>
      <trkpt lat="43.721334" lon="-7.946588">
        <ele>590.039</ele>
        <time>2019-06-20T13:18:50Z</time>
      </trkpt>
      <trkpt lat="43.721231" lon="-7.946746">
        <ele>588.740</ele>
        <time>2019-06-20T13:18:51Z</time>
      </trkpt>
      <trkpt lat="43.721121" lon="-7.946920">
        <ele>588.086</ele>
        <time>2019-06-20T13:18:52Z</time>
      </trkpt>
      <trkpt lat="43.720996" lon="-7.947102">
        <ele>586.563</ele>
        <time>2019-06-20T13:18:53Z</time>
      </trkpt>
      <trkpt lat="43.720868" lon="-7.947301">
        <ele>584.974</ele>
        <time>2019-06-20T13:18:54Z</time>
      </trkpt>
      <trkpt lat="43.720731" lon="-7.947509">
        <ele>583.236</ele>
        <time>2019-06-20T13:18:55Z</time>
      </trkpt>
      <trkpt lat="43.720588" lon="-7.947731">
        <ele>581.673</ele>
        <time>2019-06-20T13:18:56Z</time>
      </trkpt>
      <trkpt lat="43.720436" lon="-7.947962">
        <ele>579.421</ele>
        <time>2019-06-20T13:18:57Z</time>
      </trkpt>
      <trkpt lat="43.720285" lon="-7.948187">
        <ele>577.641</ele>
        <time>2019-06-20T13:18:58Z</time>
      </trkpt>
      <trkpt lat="43.720141" lon="-7.948408">
        <ele>575.205</ele>
        <time>2019-06-20T13:18:59Z</time>
      </trkpt>
      <trkpt lat="43.719990" lon="-7.948635">
        <ele>571.908</ele>
        <time>2019-06-20T13:19:00Z</time>
      </trkpt>
      <trkpt lat="43.719843" lon="-7.948861">
        <ele>570.165</ele>
        <time>2019-06-20T13:19:01Z</time>
      </trkpt>
      <trkpt lat="43.719691" lon="-7.949083">
        <ele>567.459</ele>
        <time>2019-06-20T13:19:02Z</time>
      </trkpt>
      <trkpt lat="43.719540" lon="-7.949304">
        <ele>564.610</ele>
        <time>2019-06-20T13:19:03Z</time>
      </trkpt>
      <trkpt lat="43.719388" lon="-7.949535">
        <ele>561.496</ele>
        <time>2019-06-20T13:19:04Z</time>
      </trkpt>
      <trkpt lat="43.719239" lon="-7.949767">
        <ele>557.993</ele>
        <time>2019-06-20T13:19:05Z</time>
      </trkpt>
      <trkpt lat="43.719096" lon="-7.949995">
        <ele>555.524</ele>
        <time>2019-06-20T13:19:06Z</time>
      </trkpt>
      <trkpt lat="43.718959" lon="-7.950223">
        <ele>553.316</ele>
        <time>2019-06-20T13:19:07Z</time>
      </trkpt>
      <trkpt lat="43.718811" lon="-7.950468">
        <ele>551.973</ele>
        <time>2019-06-20T13:19:08Z</time>
      </trkpt>
      <trkpt lat="43.718656" lon="-7.950671">
        <ele>549.819</ele>
        <time>2019-06-20T13:19:09Z</time>
      </trkpt>
      <trkpt lat="43.718514" lon="-7.950891">
        <ele>546.909</ele>
        <time>2019-06-20T13:19:10Z</time>
      </trkpt>
      <trkpt lat="43.718370" lon="-7.951105">
        <ele>543.619</ele>
        <time>2019-06-20T13:19:11Z</time>
      </trkpt>
      <trkpt lat="43.718236" lon="-7.951307">
        <ele>542.108</ele>
        <time>2019-06-20T13:19:12Z</time>
      </trkpt>
      <trkpt lat="43.718099" lon="-7.951525">
        <ele>540.574</ele>
        <time>2019-06-20T13:19:13Z</time>
      </trkpt>
      <trkpt lat="43.717964" lon="-7.951740">
        <ele>537.898</ele>
        <time>2019-06-20T13:19:14Z</time>
      </trkpt>
      <trkpt lat="43.717848" lon="-7.951899">
        <ele>534.789</ele>
        <time>2019-06-20T13:19:15Z</time>
      </trkpt>
      <trkpt lat="43.717707" lon="-7.952034">
        <ele>531.985</ele>
        <time>2019-06-20T13:19:16Z</time>
      </trkpt>
      <trkpt lat="43.717564" lon="-7.952173">
        <ele>530.452</ele>
        <time>2019-06-20T13:19:17Z</time>
      </trkpt>
      <trkpt lat="43.717396" lon="-7.952307">
        <ele>529.293</ele>
        <time>2019-06-20T13:19:18Z</time>
      </trkpt>
      <trkpt lat="43.717215" lon="-7.952427">
        <ele>527.745</ele>
        <time>2019-06-20T13:19:19Z</time>
      </trkpt>
      <trkpt lat="43.717027" lon="-7.952552">
        <ele>525.972</ele>
        <time>2019-06-20T13:19:20Z</time>
      </trkpt>
      <trkpt lat="43.716838" lon="-7.952682">
        <ele>524.638</ele>
        <time>2019-06-20T13:19:21Z</time>
      </trkpt>
      <trkpt lat="43.716651" lon="-7.952826">
        <ele>524.170</ele>
        <time>2019-06-20T13:19:22Z</time>
      </trkpt>
      <trkpt lat="43.716454" lon="-7.952977">
        <ele>523.717</ele>
        <time>2019-06-20T13:19:23Z</time>
      </trkpt>
      <trkpt lat="43.716264" lon="-7.953118">
        <ele>522.908</ele>
        <time>2019-06-20T13:19:24Z</time>
      </trkpt>
      <trkpt lat="43.716060" lon="-7.953252">
        <ele>521.286</ele>
        <time>2019-06-20T13:19:25Z</time>
      </trkpt>
      <trkpt lat="43.715859" lon="-7.953398">
        <ele>519.350</ele>
        <time>2019-06-20T13:19:26Z</time>
      </trkpt>
      <trkpt lat="43.715665" lon="-7.953545">
        <ele>517.851</ele>
        <time>2019-06-20T13:19:27Z</time>
      </trkpt>
      <trkpt lat="43.715476" lon="-7.953690">
        <ele>516.717</ele>
        <time>2019-06-20T13:19:28Z</time>
      </trkpt>
      <trkpt lat="43.715282" lon="-7.953834">
        <ele>515.874</ele>
        <time>2019-06-20T13:19:29Z</time>
      </trkpt>
      <trkpt lat="43.715096" lon="-7.953967">
        <ele>515.425</ele>
        <time>2019-06-20T13:19:30Z</time>
      </trkpt>
      <trkpt lat="43.714913" lon="-7.954109">
        <ele>515.017</ele>
        <time>2019-06-20T13:19:31Z</time>
      </trkpt>
      <trkpt lat="43.714730" lon="-7.954247">
        <ele>514.734</ele>
        <time>2019-06-20T13:19:32Z</time>
      </trkpt>
      <trkpt lat="43.714544" lon="-7.954378">
        <ele>513.671</ele>
        <time>2019-06-20T13:19:33Z</time>
      </trkpt>
      <trkpt lat="43.714360" lon="-7.954512">
        <ele>512.541</ele>
        <time>2019-06-20T13:19:34Z</time>
      </trkpt>
      <trkpt lat="43.714171" lon="-7.954656">
        <ele>511.315</ele>
        <time>2019-06-20T13:19:35Z</time>
      </trkpt>
      <trkpt lat="43.713978" lon="-7.954804">
        <ele>508.408</ele>
        <time>2019-06-20T13:19:36Z</time>
      </trkpt>
      <trkpt lat="43.713786" lon="-7.954950">
        <ele>506.010</ele>
        <time>2019-06-20T13:19:37Z</time>
      </trkpt>
      <trkpt lat="43.713597" lon="-7.955092">
        <ele>504.464</ele>
        <time>2019-06-20T13:19:38Z</time>
      </trkpt>
      <trkpt lat="43.713414" lon="-7.955232">
        <ele>503.995</ele>
        <time>2019-06-20T13:19:39Z</time>
      </trkpt>
      <trkpt lat="43.713244" lon="-7.955365">
        <ele>502.611</ele>
        <time>2019-06-20T13:19:40Z</time>
      </trkpt>
      <trkpt lat="43.713097" lon="-7.955470">
        <ele>500.348</ele>
        <time>2019-06-20T13:19:41Z</time>
      </trkpt>
      <trkpt lat="43.712959" lon="-7.955575">
        <ele>498.559</ele>
        <time>2019-06-20T13:19:42Z</time>
      </trkpt>
      <trkpt lat="43.712834" lon="-7.955678">
        <ele>497.661</ele>
        <time>2019-06-20T13:19:43Z</time>
      </trkpt>
      <trkpt lat="43.712708" lon="-7.955769">
        <ele>497.388</ele>
        <time>2019-06-20T13:19:44Z</time>
      </trkpt>
      <trkpt lat="43.712581" lon="-7.955855">
        <ele>496.798</ele>
        <time>2019-06-20T13:19:45Z</time>
      </trkpt>
      <trkpt lat="43.712443" lon="-7.955947">
        <ele>495.615</ele>
        <time>2019-06-20T13:19:46Z</time>
      </trkpt>
      <trkpt lat="43.712309" lon="-7.956045">
        <ele>494.026</ele>
        <time>2019-06-20T13:19:47Z</time>
      </trkpt>
      <trkpt lat="43.712186" lon="-7.956157">
        <ele>492.708</ele>
        <time>2019-06-20T13:19:48Z</time>
      </trkpt>
      <trkpt lat="43.712085" lon="-7.956276">
        <ele>492.062</ele>
        <time>2019-06-20T13:19:49Z</time>
      </trkpt>
      <trkpt lat="43.711997" lon="-7.956389">
        <ele>491.626</ele>
        <time>2019-06-20T13:19:50Z</time>
      </trkpt>
      <trkpt lat="43.711934" lon="-7.956497">
        <ele>490.927</ele>
        <time>2019-06-20T13:19:51Z</time>
      </trkpt>
      <trkpt lat="43.711876" lon="-7.956610">
        <ele>490.383</ele>
        <time>2019-06-20T13:19:52Z</time>
      </trkpt>
      <trkpt lat="43.711830" lon="-7.956705">
        <ele>489.690</ele>
        <time>2019-06-20T13:19:53Z</time>
      </trkpt>
      <trkpt lat="43.711787" lon="-7.956784">
        <ele>488.821</ele>
        <time>2019-06-20T13:19:54Z</time>
      </trkpt>
      <trkpt lat="43.711758" lon="-7.956833">
        <ele>488.473</ele>
        <time>2019-06-20T13:19:55Z</time>
      </trkpt>
      <trkpt lat="43.711719" lon="-7.956893">
        <ele>488.090</ele>
        <time>2019-06-20T13:19:57Z</time>
      </trkpt>
      <trkpt lat="43.710588" lon="-8.047425">
        <ele>75.581</ele>
        <time>2019-06-20T13:48:08Z</time>
      </trkpt>
      <trkpt lat="43.710586" lon="-8.047357">
        <ele>76.561</ele>
        <time>2019-06-20T13:48:30Z</time>
      </trkpt>
      <trkpt lat="43.710568" lon="-8.047421">
        <ele>77.017</ele>
        <time>2019-06-20T13:50:41Z</time>
      </trkpt>
      <trkpt lat="43.710609" lon="-8.047379">
        <ele>74.708</ele>
        <time>2019-06-20T13:51:56Z</time>
      </trkpt>
      <trkpt lat="43.710579" lon="-8.047445">
        <ele>75.991</ele>
        <time>2019-06-20T13:53:34Z</time>
      </trkpt>
      <trkpt lat="43.710490" lon="-8.047514">
        <ele>78.995</ele>
        <time>2019-06-20T13:53:36Z</time>
      </trkpt>
      <trkpt lat="43.710421" lon="-8.047591">
        <ele>80.996</ele>
        <time>2019-06-20T13:53:37Z</time>
      </trkpt>
      <trkpt lat="43.710330" lon="-8.047730">
        <ele>84.062</ele>
        <time>2019-06-20T13:53:38Z</time>
      </trkpt>
      <trkpt lat="43.710249" lon="-8.047821">
        <ele>86.829</ele>
        <time>2019-06-20T13:53:39Z</time>
      </trkpt>
      <trkpt lat="43.710165" lon="-8.047915">
        <ele>89.230</ele>
        <time>2019-06-20T13:53:40Z</time>
      </trkpt>
      <trkpt lat="43.710086" lon="-8.048012">
        <ele>91.412</ele>
        <time>2019-06-20T13:53:41Z</time>
      </trkpt>
      <trkpt lat="43.710017" lon="-8.048102">
        <ele>93.429</ele>
        <time>2019-06-20T13:53:42Z</time>
      </trkpt>
      <trkpt lat="43.709958" lon="-8.048182">
        <ele>95.453</ele>
        <time>2019-06-20T13:53:43Z</time>
      </trkpt>
      <trkpt lat="43.709915" lon="-8.048246">
        <ele>96.604</ele>
        <time>2019-06-20T13:53:44Z</time>
      </trkpt>
      <trkpt lat="43.709881" lon="-8.048302">
        <ele>97.514</ele>
        <time>2019-06-20T13:53:45Z</time>
      </trkpt>
      <trkpt lat="43.709849" lon="-8.048346">
        <ele>98.308</ele>
        <time>2019-06-20T13:53:46Z</time>
      </trkpt>
      <trkpt lat="43.709780" lon="-8.048390">
        <ele>100.188</ele>
        <time>2019-06-20T13:53:48Z</time>
      </trkpt>
      <trkpt lat="43.709710" lon="-8.048331">
        <ele>102.472</ele>
        <time>2019-06-20T13:53:50Z</time>
      </trkpt>
      <trkpt lat="43.709688" lon="-8.048260">
        <ele>103.433</ele>
        <time>2019-06-20T13:53:51Z</time>
      </trkpt>
      <trkpt lat="43.709671" lon="-8.048167">
        <ele>104.329</ele>
        <time>2019-06-20T13:53:52Z</time>
      </trkpt>
      <trkpt lat="43.709665" lon="-8.048049">
        <ele>105.066</ele>
        <time>2019-06-20T13:53:53Z</time>
      </trkpt>
      <trkpt lat="43.709655" lon="-8.047941">
        <ele>104.537</ele>
        <time>2019-06-20T13:53:54Z</time>
      </trkpt>
      <trkpt lat="43.709645" lon="-8.047830">
        <ele>104.019</ele>
        <time>2019-06-20T13:53:55Z</time>
      </trkpt>
      <trkpt lat="43.709639" lon="-8.047717">
        <ele>103.596</ele>
        <time>2019-06-20T13:53:56Z</time>
      </trkpt>
      <trkpt lat="43.709618" lon="-8.047631">
        <ele>103.543</ele>
        <time>2019-06-20T13:53:57Z</time>
      </trkpt>
      <trkpt lat="43.709595" lon="-8.047548">
        <ele>103.564</ele>
        <time>2019-06-20T13:53:58Z</time>
      </trkpt>
      <trkpt lat="43.709536" lon="-8.047501">
        <ele>104.410</ele>
        <time>2019-06-20T13:53:59Z</time>
      </trkpt>
      <trkpt lat="43.709482" lon="-8.047481">
        <ele>105.108</ele>
        <time>2019-06-20T13:54:00Z</time>
      </trkpt>
      <trkpt lat="43.709430" lon="-8.047469">
        <ele>106.077</ele>
        <time>2019-06-20T13:54:01Z</time>
      </trkpt>
      <trkpt lat="43.709391" lon="-8.047537">
        <ele>107.691</ele>
        <time>2019-06-20T13:54:02Z</time>
      </trkpt>
      <trkpt lat="43.709350" lon="-8.047580">
        <ele>109.072</ele>
        <time>2019-06-20T13:54:03Z</time>
      </trkpt>
      <trkpt lat="43.709326" lon="-8.047697">
        <ele>110.418</ele>
        <time>2019-06-20T13:54:04Z</time>
      </trkpt>
      <trkpt lat="43.709279" lon="-8.047832">
        <ele>112.455</ele>
        <time>2019-06-20T13:54:05Z</time>
      </trkpt>
      <trkpt lat="43.709238" lon="-8.047948">
        <ele>113.846</ele>
        <time>2019-06-20T13:54:06Z</time>
      </trkpt>
      <trkpt lat="43.709150" lon="-8.048038">
        <ele>116.558</ele>
        <time>2019-06-20T13:54:07Z</time>
      </trkpt>
      <trkpt lat="43.709075" lon="-8.048129">
        <ele>119.065</ele>
        <time>2019-06-20T13:54:08Z</time>
      </trkpt>
      <trkpt lat="43.709015" lon="-8.048237">
        <ele>120.543</ele>
        <time>2019-06-20T13:54:09Z</time>
      </trkpt>
      <trkpt lat="43.708976" lon="-8.048352">
        <ele>121.164</ele>
        <time>2019-06-20T13:54:10Z</time>
      </trkpt>
      <trkpt lat="43.708973" lon="-8.048455">
        <ele>120.910</ele>
        <time>2019-06-20T13:54:11Z</time>
      </trkpt>
      <trkpt lat="43.708973" lon="-8.048574">
        <ele>120.608</ele>
        <time>2019-06-20T13:54:13Z</time>
      </trkpt>
      <trkpt lat="43.708967" lon="-8.048686">
        <ele>120.587</ele>
        <time>2019-06-20T13:54:14Z</time>
      </trkpt>
      <trkpt lat="43.708953" lon="-8.048778">
        <ele>120.761</ele>
        <time>2019-06-20T13:54:15Z</time>
      </trkpt>
      <trkpt lat="43.708923" lon="-8.048846">
        <ele>121.312</ele>
        <time>2019-06-20T13:54:16Z</time>
      </trkpt>
      <trkpt lat="43.708876" lon="-8.048880">
        <ele>122.498</ele>
        <time>2019-06-20T13:54:17Z</time>
      </trkpt>
      <trkpt lat="43.708830" lon="-8.048883">
        <ele>123.985</ele>
        <time>2019-06-20T13:54:18Z</time>
      </trkpt>
      <trkpt lat="43.708779" lon="-8.048845">
        <ele>125.496</ele>
        <time>2019-06-20T13:54:19Z</time>
      </trkpt>
      <trkpt lat="43.708740" lon="-8.048791">
        <ele>126.348</ele>
        <time>2019-06-20T13:54:20Z</time>
      </trkpt>
      <trkpt lat="43.708712" lon="-8.048693">
        <ele>126.415</ele>
        <time>2019-06-20T13:54:21Z</time>
      </trkpt>
      <trkpt lat="43.708691" lon="-8.048581">
        <ele>126.579</ele>
        <time>2019-06-20T13:54:22Z</time>
      </trkpt>
      <trkpt lat="43.708666" lon="-8.048459">
        <ele>127.805</ele>
        <time>2019-06-20T13:54:23Z</time>
      </trkpt>
      <trkpt lat="43.708641" lon="-8.048324">
        <ele>129.325</ele>
        <time>2019-06-20T13:54:24Z</time>
      </trkpt>
      <trkpt lat="43.708626" lon="-8.048186">
        <ele>130.708</ele>
        <time>2019-06-20T13:54:25Z</time>
      </trkpt>
      <trkpt lat="43.708618" lon="-8.048049">
        <ele>131.820</ele>
        <time>2019-06-20T13:54:26Z</time>
      </trkpt>
      <trkpt lat="43.708616" lon="-8.047918">
        <ele>132.464</ele>
        <time>2019-06-20T13:54:27Z</time>
      </trkpt>
      <trkpt lat="43.708611" lon="-8.047809">
        <ele>132.995</ele>
        <time>2019-06-20T13:54:28Z</time>
      </trkpt>
      <trkpt lat="43.708605" lon="-8.047713">
        <ele>132.721</ele>
        <time>2019-06-20T13:54:29Z</time>
      </trkpt>
      <trkpt lat="43.708589" lon="-8.047628">
        <ele>132.568</ele>
        <time>2019-06-20T13:54:30Z</time>
      </trkpt>
      <trkpt lat="43.708568" lon="-8.047553">
        <ele>132.559</ele>
        <time>2019-06-20T13:54:31Z</time>
      </trkpt>
      <trkpt lat="43.708524" lon="-8.047516">
        <ele>133.341</ele>
        <time>2019-06-20T13:54:32Z</time>
      </trkpt>
      <trkpt lat="43.708474" lon="-8.047505">
        <ele>134.598</ele>
        <time>2019-06-20T13:54:33Z</time>
      </trkpt>
      <trkpt lat="43.708428" lon="-8.047528">
        <ele>135.989</ele>
        <time>2019-06-20T13:54:34Z</time>
      </trkpt>
      <trkpt lat="43.708396" lon="-8.047597">
        <ele>137.406</ele>
        <time>2019-06-20T13:54:35Z</time>
      </trkpt>
      <trkpt lat="43.708377" lon="-8.047690">
        <ele>138.826</ele>
        <time>2019-06-20T13:54:36Z</time>
      </trkpt>
      <trkpt lat="43.708362" lon="-8.047813">
        <ele>140.408</ele>
        <time>2019-06-20T13:54:37Z</time>
      </trkpt>
      <trkpt lat="43.708344" lon="-8.047951">
        <ele>141.931</ele>
        <time>2019-06-20T13:54:38Z</time>
      </trkpt>
      <trkpt lat="43.708307" lon="-8.048090">
        <ele>143.965</ele>
        <time>2019-06-20T13:54:39Z</time>
      </trkpt>
      <trkpt lat="43.708259" lon="-8.048230">
        <ele>145.616</ele>
        <time>2019-06-20T13:54:40Z</time>
      </trkpt>
      <trkpt lat="43.708215" lon="-8.048365">
        <ele>147.332</ele>
        <time>2019-06-20T13:54:41Z</time>
      </trkpt>
      <trkpt lat="43.708189" lon="-8.048504">
        <ele>148.239</ele>
        <time>2019-06-20T13:54:42Z</time>
      </trkpt>
      <trkpt lat="43.708180" lon="-8.048640">
        <ele>148.630</ele>
        <time>2019-06-20T13:54:43Z</time>
      </trkpt>
      <trkpt lat="43.708194" lon="-8.048771">
        <ele>148.632</ele>
        <time>2019-06-20T13:54:44Z</time>
      </trkpt>
      <trkpt lat="43.708229" lon="-8.048896">
        <ele>147.879</ele>
        <time>2019-06-20T13:54:45Z</time>
      </trkpt>
      <trkpt lat="43.708280" lon="-8.049003">
        <ele>146.729</ele>
        <time>2019-06-20T13:54:46Z</time>
      </trkpt>
      <trkpt lat="43.708325" lon="-8.049109">
        <ele>145.900</ele>
        <time>2019-06-20T13:54:47Z</time>
      </trkpt>
      <trkpt lat="43.708364" lon="-8.049200">
        <ele>144.920</ele>
        <time>2019-06-20T13:54:48Z</time>
      </trkpt>
      <trkpt lat="43.708397" lon="-8.049257">
        <ele>143.808</ele>
        <time>2019-06-20T13:54:49Z</time>
      </trkpt>
      <trkpt lat="43.708441" lon="-8.049286">
        <ele>141.895</ele>
        <time>2019-06-20T13:56:25Z</time>
      </trkpt>
      <trkpt lat="43.708442" lon="-8.049355">
        <ele>142.249</ele>
        <time>2019-06-20T13:56:26Z</time>
      </trkpt>
      <trkpt lat="43.708430" lon="-8.049424">
        <ele>143.390</ele>
        <time>2019-06-20T13:56:27Z</time>
      </trkpt>
      <trkpt lat="43.708401" lon="-8.049483">
        <ele>145.156</ele>
        <time>2019-06-20T13:56:28Z</time>
      </trkpt>
      <trkpt lat="43.708357" lon="-8.049520">
        <ele>147.673</ele>
        <time>2019-06-20T13:56:29Z</time>
      </trkpt>
      <trkpt lat="43.708273" lon="-8.049509">
        <ele>151.014</ele>
        <time>2019-06-20T13:56:30Z</time>
      </trkpt>
      <trkpt lat="43.708236" lon="-8.049438">
        <ele>152.166</ele>
        <time>2019-06-20T13:56:31Z</time>
      </trkpt>
      <trkpt lat="43.708200" lon="-8.049383">
        <ele>152.723</ele>
        <time>2019-06-20T13:56:32Z</time>
      </trkpt>
      <trkpt lat="43.708151" lon="-8.049270">
        <ele>153.048</ele>
        <time>2019-06-20T13:56:33Z</time>
      </trkpt>
      <trkpt lat="43.708098" lon="-8.049167">
        <ele>153.661</ele>
        <time>2019-06-20T13:56:34Z</time>
      </trkpt>
      <trkpt lat="43.708040" lon="-8.049056">
        <ele>155.217</ele>
        <time>2019-06-20T13:56:35Z</time>
      </trkpt>
      <trkpt lat="43.707980" lon="-8.048951">
        <ele>157.008</ele>
        <time>2019-06-20T13:56:36Z</time>
      </trkpt>
      <trkpt lat="43.707918" lon="-8.048845">
        <ele>158.827</ele>
        <time>2019-06-20T13:56:37Z</time>
      </trkpt>
      <trkpt lat="43.707861" lon="-8.048718">
        <ele>160.441</ele>
        <time>2019-06-20T13:56:38Z</time>
      </trkpt>
      <trkpt lat="43.707813" lon="-8.048601">
        <ele>161.712</ele>
        <time>2019-06-20T13:56:39Z</time>
      </trkpt>
      <trkpt lat="43.707785" lon="-8.048477">
        <ele>162.318</ele>
        <time>2019-06-20T13:56:40Z</time>
      </trkpt>
      <trkpt lat="43.707765" lon="-8.048353">
        <ele>162.415</ele>
        <time>2019-06-20T13:56:41Z</time>
      </trkpt>
      <trkpt lat="43.707746" lon="-8.048227">
        <ele>162.296</ele>
        <time>2019-06-20T13:56:42Z</time>
      </trkpt>
      <trkpt lat="43.707727" lon="-8.048138">
        <ele>162.388</ele>
        <time>2019-06-20T13:56:43Z</time>
      </trkpt>
      <trkpt lat="43.707654" lon="-8.048055">
        <ele>164.525</ele>
        <time>2019-06-20T13:56:45Z</time>
      </trkpt>
      <trkpt lat="43.707606" lon="-8.048059">
        <ele>166.272</ele>
        <time>2019-06-20T13:56:46Z</time>
      </trkpt>
      <trkpt lat="43.707533" lon="-8.048136">
        <ele>168.913</ele>
        <time>2019-06-20T13:56:48Z</time>
      </trkpt>
      <trkpt lat="43.707511" lon="-8.048208">
        <ele>169.614</ele>
        <time>2019-06-20T13:56:49Z</time>
      </trkpt>
      <trkpt lat="43.707506" lon="-8.048305">
        <ele>169.808</ele>
        <time>2019-06-20T13:56:50Z</time>
      </trkpt>
      <trkpt lat="43.707524" lon="-8.048422">
        <ele>169.650</ele>
        <time>2019-06-20T13:56:51Z</time>
      </trkpt>
      <trkpt lat="43.707533" lon="-8.048549">
        <ele>169.854</ele>
        <time>2019-06-20T13:56:52Z</time>
      </trkpt>
      <trkpt lat="43.707539" lon="-8.048679">
        <ele>170.365</ele>
        <time>2019-06-20T13:56:53Z</time>
      </trkpt>
      <trkpt lat="43.707548" lon="-8.048818">
        <ele>171.021</ele>
        <time>2019-06-20T13:56:54Z</time>
      </trkpt>
      <trkpt lat="43.707563" lon="-8.048950">
        <ele>171.458</ele>
        <time>2019-06-20T13:56:55Z</time>
      </trkpt>
      <trkpt lat="43.707567" lon="-8.049090">
        <ele>172.389</ele>
        <time>2019-06-20T13:56:56Z</time>
      </trkpt>
      <trkpt lat="43.707573" lon="-8.049229">
        <ele>173.411</ele>
        <time>2019-06-20T13:56:57Z</time>
      </trkpt>
      <trkpt lat="43.707574" lon="-8.049368">
        <ele>174.988</ele>
        <time>2019-06-20T13:56:58Z</time>
      </trkpt>
      <trkpt lat="43.707573" lon="-8.049513">
        <ele>176.011</ele>
        <time>2019-06-20T13:56:59Z</time>
      </trkpt>
      <trkpt lat="43.707565" lon="-8.049659">
        <ele>176.821</ele>
        <time>2019-06-20T13:57:00Z</time>
      </trkpt>
      <trkpt lat="43.707557" lon="-8.049800">
        <ele>177.203</ele>
        <time>2019-06-20T13:57:01Z</time>
      </trkpt>
      <trkpt lat="43.707513" lon="-8.049913">
        <ele>178.808</ele>
        <time>2019-06-20T13:57:02Z</time>
      </trkpt>
      <trkpt lat="43.707466" lon="-8.050043">
        <ele>179.714</ele>
        <time>2019-06-20T13:57:03Z</time>
      </trkpt>
      <trkpt lat="43.707415" lon="-8.050175">
        <ele>180.658</ele>
        <time>2019-06-20T13:57:04Z</time>
      </trkpt>
      <trkpt lat="43.707357" lon="-8.050292">
        <ele>182.069</ele>
        <time>2019-06-20T13:57:05Z</time>
      </trkpt>
      <trkpt lat="43.707301" lon="-8.050408">
        <ele>182.615</ele>
        <time>2019-06-20T13:57:06Z</time>
      </trkpt>
      <trkpt lat="43.707249" lon="-8.050542">
        <ele>183.142</ele>
        <time>2019-06-20T13:57:07Z</time>
      </trkpt>
      <trkpt lat="43.707162" lon="-8.050652">
        <ele>184.813</ele>
        <time>2019-06-20T13:57:08Z</time>
      </trkpt>
      <trkpt lat="43.707076" lon="-8.050750">
        <ele>186.545</ele>
        <time>2019-06-20T13:57:09Z</time>
      </trkpt>
      <trkpt lat="43.706989" lon="-8.050828">
        <ele>188.552</ele>
        <time>2019-06-20T13:57:10Z</time>
      </trkpt>
      <trkpt lat="43.706899" lon="-8.050906">
        <ele>189.778</ele>
        <time>2019-06-20T13:57:11Z</time>
      </trkpt>
      <trkpt lat="43.706814" lon="-8.050964">
        <ele>190.733</ele>
        <time>2019-06-20T13:57:12Z</time>
      </trkpt>
      <trkpt lat="43.706706" lon="-8.051032">
        <ele>192.226</ele>
        <time>2019-06-20T13:57:13Z</time>
      </trkpt>
      <trkpt lat="43.706608" lon="-8.051101">
        <ele>193.008</ele>
        <time>2019-06-20T13:57:14Z</time>
      </trkpt>
      <trkpt lat="43.706511" lon="-8.051152">
        <ele>194.090</ele>
        <time>2019-06-20T13:57:15Z</time>
      </trkpt>
      <trkpt lat="43.706425" lon="-8.051193">
        <ele>195.134</ele>
        <time>2019-06-20T13:57:16Z</time>
      </trkpt>
      <trkpt lat="43.706346" lon="-8.051201">
        <ele>196.315</ele>
        <time>2019-06-20T13:57:17Z</time>
      </trkpt>
      <trkpt lat="43.706277" lon="-8.051174">
        <ele>197.491</ele>
        <time>2019-06-20T13:57:18Z</time>
      </trkpt>
      <trkpt lat="43.706208" lon="-8.051112">
        <ele>198.658</ele>
        <time>2019-06-20T13:57:19Z</time>
      </trkpt>
      <trkpt lat="43.706166" lon="-8.051035">
        <ele>199.579</ele>
        <time>2019-06-20T13:57:20Z</time>
      </trkpt>
      <trkpt lat="43.706158" lon="-8.050918">
        <ele>200.171</ele>
        <time>2019-06-20T13:57:21Z</time>
      </trkpt>
      <trkpt lat="43.706159" lon="-8.050793">
        <ele>200.918</ele>
        <time>2019-06-20T13:57:22Z</time>
      </trkpt>
      <trkpt lat="43.706159" lon="-8.050664">
        <ele>202.296</ele>
        <time>2019-06-20T13:57:23Z</time>
      </trkpt>
      <trkpt lat="43.706170" lon="-8.050518">
        <ele>203.331</ele>
        <time>2019-06-20T13:57:24Z</time>
      </trkpt>
      <trkpt lat="43.706183" lon="-8.050357">
        <ele>203.924</ele>
        <time>2019-06-20T13:57:25Z</time>
      </trkpt>
      <trkpt lat="43.706198" lon="-8.050191">
        <ele>204.208</ele>
        <time>2019-06-20T13:57:26Z</time>
      </trkpt>
      <trkpt lat="43.706218" lon="-8.050022">
        <ele>204.242</ele>
        <time>2019-06-20T13:57:27Z</time>
      </trkpt>
      <trkpt lat="43.706230" lon="-8.049855">
        <ele>204.476</ele>
        <time>2019-06-20T13:57:28Z</time>
      </trkpt>
      <trkpt lat="43.706241" lon="-8.049694">
        <ele>204.687</ele>
        <time>2019-06-20T13:57:29Z</time>
      </trkpt>
      <trkpt lat="43.706254" lon="-8.049554">
        <ele>204.813</ele>
        <time>2019-06-20T13:57:30Z</time>
      </trkpt>
      <trkpt lat="43.706258" lon="-8.049431">
        <ele>205.040</ele>
        <time>2019-06-20T13:57:31Z</time>
      </trkpt>
      <trkpt lat="43.706242" lon="-8.049328">
        <ele>205.561</ele>
        <time>2019-06-20T13:57:32Z</time>
      </trkpt>
      <trkpt lat="43.706199" lon="-8.049238">
        <ele>206.473</ele>
        <time>2019-06-20T13:57:33Z</time>
      </trkpt>
      <trkpt lat="43.706153" lon="-8.049166">
        <ele>207.460</ele>
        <time>2019-06-20T13:57:34Z</time>
      </trkpt>
      <trkpt lat="43.706084" lon="-8.049157">
        <ele>208.612</ele>
        <time>2019-06-20T13:57:35Z</time>
      </trkpt>
      <trkpt lat="43.706023" lon="-8.049175">
        <ele>209.832</ele>
        <time>2019-06-20T13:57:36Z</time>
      </trkpt>
      <trkpt lat="43.705957" lon="-8.049220">
        <ele>210.905</ele>
        <time>2019-06-20T13:57:37Z</time>
      </trkpt>
      <trkpt lat="43.705880" lon="-8.049290">
        <ele>212.108</ele>
        <time>2019-06-20T13:57:38Z</time>
      </trkpt>
      <trkpt lat="43.705794" lon="-8.049367">
        <ele>213.654</ele>
        <time>2019-06-20T13:57:39Z</time>
      </trkpt>
      <trkpt lat="43.705706" lon="-8.049451">
        <ele>215.268</ele>
        <time>2019-06-20T13:57:40Z</time>
      </trkpt>
      <trkpt lat="43.705610" lon="-8.049540">
        <ele>216.929</ele>
        <time>2019-06-20T13:57:41Z</time>
      </trkpt>
      <trkpt lat="43.705498" lon="-8.049636">
        <ele>219.125</ele>
        <time>2019-06-20T13:57:42Z</time>
      </trkpt>
      <trkpt lat="43.705390" lon="-8.049731">
        <ele>221.192</ele>
        <time>2019-06-20T13:57:43Z</time>
      </trkpt>
      <trkpt lat="43.705282" lon="-8.049843">
        <ele>222.623</ele>
        <time>2019-06-20T13:57:44Z</time>
      </trkpt>
      <trkpt lat="43.705180" lon="-8.049962">
        <ele>223.855</ele>
        <time>2019-06-20T13:57:45Z</time>
      </trkpt>
      <trkpt lat="43.705082" lon="-8.050078">
        <ele>225.582</ele>
        <time>2019-06-20T13:57:46Z</time>
      </trkpt>
      <trkpt lat="43.704989" lon="-8.050176">
        <ele>226.987</ele>
        <time>2019-06-20T13:57:47Z</time>
      </trkpt>
      <trkpt lat="43.704894" lon="-8.050258">
        <ele>227.342</ele>
        <time>2019-06-20T13:57:48Z</time>
      </trkpt>
      <trkpt lat="43.704797" lon="-8.050321">
        <ele>228.326</ele>
        <time>2019-06-20T13:57:49Z</time>
      </trkpt>
      <trkpt lat="43.704695" lon="-8.050363">
        <ele>229.608</ele>
        <time>2019-06-20T13:57:50Z</time>
      </trkpt>
      <trkpt lat="43.704592" lon="-8.050391">
        <ele>230.661</ele>
        <time>2019-06-20T13:57:51Z</time>
      </trkpt>
      <trkpt lat="43.704488" lon="-8.050390">
        <ele>231.685</ele>
        <time>2019-06-20T13:57:52Z</time>
      </trkpt>
      <trkpt lat="43.704393" lon="-8.050383">
        <ele>232.336</ele>
        <time>2019-06-20T13:57:53Z</time>
      </trkpt>
      <trkpt lat="43.704330" lon="-8.050319">
        <ele>232.532</ele>
        <time>2019-06-20T13:57:54Z</time>
      </trkpt>
      <trkpt lat="43.704265" lon="-8.050286">
        <ele>232.789</ele>
        <time>2019-06-20T13:57:55Z</time>
      </trkpt>
      <trkpt lat="43.704222" lon="-8.050255">
        <ele>232.940</ele>
        <time>2019-06-20T13:57:56Z</time>
      </trkpt>
      <trkpt lat="43.704155" lon="-8.050190">
        <ele>233.322</ele>
        <time>2019-06-20T13:57:58Z</time>
      </trkpt>
      <trkpt lat="43.704102" lon="-8.050204">
        <ele>233.349</ele>
        <time>2019-06-20T13:58:49Z</time>
      </trkpt>
      <trkpt lat="43.704037" lon="-8.050115">
        <ele>233.942</ele>
        <time>2019-06-20T13:58:53Z</time>
      </trkpt>
      <trkpt lat="43.703986" lon="-8.050032">
        <ele>234.522</ele>
        <time>2019-06-20T13:58:54Z</time>
      </trkpt>
      <trkpt lat="43.703926" lon="-8.049938">
        <ele>235.314</ele>
        <time>2019-06-20T13:58:55Z</time>
      </trkpt>
      <trkpt lat="43.703829" lon="-8.049816">
        <ele>236.608</ele>
        <time>2019-06-20T13:58:56Z</time>
      </trkpt>
      <trkpt lat="43.703743" lon="-8.049720">
        <ele>238.167</ele>
        <time>2019-06-20T13:58:57Z</time>
      </trkpt>
      <trkpt lat="43.703659" lon="-8.049628">
        <ele>239.461</ele>
        <time>2019-06-20T13:58:58Z</time>
      </trkpt>
      <trkpt lat="43.703564" lon="-8.049507">
        <ele>240.372</ele>
        <time>2019-06-20T13:58:59Z</time>
      </trkpt>
      <trkpt lat="43.703468" lon="-8.049387">
        <ele>241.198</ele>
        <time>2019-06-20T13:59:00Z</time>
      </trkpt>
      <trkpt lat="43.703372" lon="-8.049281">
        <ele>241.925</ele>
        <time>2019-06-20T13:59:01Z</time>
      </trkpt>
      <trkpt lat="43.703277" lon="-8.049141">
        <ele>242.746</ele>
        <time>2019-06-20T13:59:02Z</time>
      </trkpt>
      <trkpt lat="43.703162" lon="-8.049013">
        <ele>243.238</ele>
        <time>2019-06-20T13:59:03Z</time>
      </trkpt>
      <trkpt lat="43.703056" lon="-8.048880">
        <ele>244.255</ele>
        <time>2019-06-20T13:59:04Z</time>
      </trkpt>
      <trkpt lat="43.702962" lon="-8.048756">
        <ele>245.038</ele>
        <time>2019-06-20T13:59:05Z</time>
      </trkpt>
      <trkpt lat="43.702860" lon="-8.048630">
        <ele>245.870</ele>
        <time>2019-06-20T13:59:06Z</time>
      </trkpt>
      <trkpt lat="43.702753" lon="-8.048503">
        <ele>247.517</ele>
        <time>2019-06-20T13:59:07Z</time>
      </trkpt>
      <trkpt lat="43.702641" lon="-8.048373">
        <ele>250.008</ele>
        <time>2019-06-20T13:59:08Z</time>
      </trkpt>
      <trkpt lat="43.702532" lon="-8.048259">
        <ele>251.996</ele>
        <time>2019-06-20T13:59:09Z</time>
      </trkpt>
      <trkpt lat="43.702421" lon="-8.048142">
        <ele>253.410</ele>
        <time>2019-06-20T13:59:10Z</time>
      </trkpt>
      <trkpt lat="43.702307" lon="-8.048053">
        <ele>254.091</ele>
        <time>2019-06-20T13:59:11Z</time>
      </trkpt>
      <trkpt lat="43.702196" lon="-8.047968">
        <ele>254.067</ele>
        <time>2019-06-20T13:59:12Z</time>
      </trkpt>
      <trkpt lat="43.702085" lon="-8.047894">
        <ele>253.264</ele>
        <time>2019-06-20T13:59:13Z</time>
      </trkpt>
      <trkpt lat="43.701973" lon="-8.047865">
        <ele>251.795</ele>
        <time>2019-06-20T13:59:14Z</time>
      </trkpt>
      <trkpt lat="43.701877" lon="-8.047875">
        <ele>250.697</ele>
        <time>2019-06-20T13:59:15Z</time>
      </trkpt>
      <trkpt lat="43.701783" lon="-8.047875">
        <ele>250.114</ele>
        <time>2019-06-20T13:59:16Z</time>
      </trkpt>
      <trkpt lat="43.701669" lon="-8.047910">
        <ele>249.199</ele>
        <time>2019-06-20T13:59:17Z</time>
      </trkpt>
      <trkpt lat="43.701561" lon="-8.047968">
        <ele>250.907</ele>
        <time>2019-06-20T13:59:18Z</time>
      </trkpt>
      <trkpt lat="43.701457" lon="-8.048027">
        <ele>252.727</ele>
        <time>2019-06-20T13:59:19Z</time>
      </trkpt>
      <trkpt lat="43.701361" lon="-8.048152">
        <ele>253.508</ele>
        <time>2019-06-20T13:59:20Z</time>
      </trkpt>
      <trkpt lat="43.701261" lon="-8.048258">
        <ele>254.732</ele>
        <time>2019-06-20T13:59:21Z</time>
      </trkpt>
      <trkpt lat="43.701173" lon="-8.048396">
        <ele>254.226</ele>
        <time>2019-06-20T13:59:22Z</time>
      </trkpt>
      <trkpt lat="43.701079" lon="-8.048547">
        <ele>253.037</ele>
        <time>2019-06-20T13:59:23Z</time>
      </trkpt>
      <trkpt lat="43.700983" lon="-8.048683">
        <ele>252.123</ele>
        <time>2019-06-20T13:59:24Z</time>
      </trkpt>
      <trkpt lat="43.700887" lon="-8.048847">
        <ele>251.520</ele>
        <time>2019-06-20T13:59:25Z</time>
      </trkpt>
      <trkpt lat="43.700793" lon="-8.048985">
        <ele>251.521</ele>
        <time>2019-06-20T13:59:26Z</time>
      </trkpt>
      <trkpt lat="43.700693" lon="-8.049134">
        <ele>251.823</ele>
        <time>2019-06-20T13:59:27Z</time>
      </trkpt>
      <trkpt lat="43.700595" lon="-8.049285">
        <ele>252.740</ele>
        <time>2019-06-20T13:59:28Z</time>
      </trkpt>
      <trkpt lat="43.700494" lon="-8.049427">
        <ele>254.861</ele>
        <time>2019-06-20T13:59:29Z</time>
      </trkpt>
      <trkpt lat="43.700386" lon="-8.049574">
        <ele>255.721</ele>
        <time>2019-06-20T13:59:30Z</time>
      </trkpt>
      <trkpt lat="43.700288" lon="-8.049725">
        <ele>255.713</ele>
        <time>2019-06-20T13:59:31Z</time>
      </trkpt>
      <trkpt lat="43.700196" lon="-8.049879">
        <ele>255.208</ele>
        <time>2019-06-20T13:59:32Z</time>
      </trkpt>
      <trkpt lat="43.700107" lon="-8.050048">
        <ele>253.639</ele>
        <time>2019-06-20T13:59:33Z</time>
      </trkpt>
      <trkpt lat="43.700017" lon="-8.050231">
        <ele>250.983</ele>
        <time>2019-06-20T13:59:34Z</time>
      </trkpt>
      <trkpt lat="43.699939" lon="-8.050430">
        <ele>249.844</ele>
        <time>2019-06-20T13:59:35Z</time>
      </trkpt>
      <trkpt lat="43.699860" lon="-8.050640">
        <ele>249.030</ele>
        <time>2019-06-20T13:59:36Z</time>
      </trkpt>
      <trkpt lat="43.699775" lon="-8.050852">
        <ele>248.617</ele>
        <time>2019-06-20T13:59:37Z</time>
      </trkpt>
      <trkpt lat="43.699690" lon="-8.051089">
        <ele>250.038</ele>
        <time>2019-06-20T13:59:38Z</time>
      </trkpt>
      <trkpt lat="43.699604" lon="-8.051306">
        <ele>250.020</ele>
        <time>2019-06-20T13:59:39Z</time>
      </trkpt>
      <trkpt lat="43.699514" lon="-8.051538">
        <ele>248.897</ele>
        <time>2019-06-20T13:59:40Z</time>
      </trkpt>
      <trkpt lat="43.699427" lon="-8.051759">
        <ele>247.923</ele>
        <time>2019-06-20T13:59:41Z</time>
      </trkpt>
      <trkpt lat="43.699337" lon="-8.051981">
        <ele>247.983</ele>
        <time>2019-06-20T13:59:42Z</time>
      </trkpt>
      <trkpt lat="43.699251" lon="-8.052186">
        <ele>249.311</ele>
        <time>2019-06-20T13:59:43Z</time>
      </trkpt>
      <trkpt lat="43.699178" lon="-8.052375">
        <ele>249.908</ele>
        <time>2019-06-20T13:59:44Z</time>
      </trkpt>
      <trkpt lat="43.699103" lon="-8.052570">
        <ele>250.965</ele>
        <time>2019-06-20T13:59:45Z</time>
      </trkpt>
      <trkpt lat="43.699029" lon="-8.052745">
        <ele>252.129</ele>
        <time>2019-06-20T13:59:46Z</time>
      </trkpt>
      <trkpt lat="43.698947" lon="-8.052911">
        <ele>252.160</ele>
        <time>2019-06-20T13:59:47Z</time>
      </trkpt>
      <trkpt lat="43.698817" lon="-8.053037">
        <ele>251.856</ele>
        <time>2019-06-20T13:59:48Z</time>
      </trkpt>
      <trkpt lat="43.698701" lon="-8.053172">
        <ele>250.493</ele>
        <time>2019-06-20T13:59:49Z</time>
      </trkpt>
      <trkpt lat="43.698568" lon="-8.053300">
        <ele>249.564</ele>
        <time>2019-06-20T13:59:50Z</time>
      </trkpt>
      <trkpt lat="43.698430" lon="-8.053416">
        <ele>251.336</ele>
        <time>2019-06-20T13:59:51Z</time>
      </trkpt>
      <trkpt lat="43.698282" lon="-8.053526">
        <ele>254.293</ele>
        <time>2019-06-20T13:59:52Z</time>
      </trkpt>
      <trkpt lat="43.698130" lon="-8.053639">
        <ele>257.689</ele>
        <time>2019-06-20T13:59:53Z</time>
      </trkpt>
      <trkpt lat="43.697982" lon="-8.053763">
        <ele>259.106</ele>
        <time>2019-06-20T13:59:54Z</time>
      </trkpt>
      <trkpt lat="43.697831" lon="-8.053884">
        <ele>258.726</ele>
        <time>2019-06-20T13:59:55Z</time>
      </trkpt>
      <trkpt lat="43.697676" lon="-8.053993">
        <ele>256.908</ele>
        <time>2019-06-20T13:59:56Z</time>
      </trkpt>
      <trkpt lat="43.697513" lon="-8.054116">
        <ele>254.991</ele>
        <time>2019-06-20T13:59:57Z</time>
      </trkpt>
      <trkpt lat="43.697353" lon="-8.054233">
        <ele>252.285</ele>
        <time>2019-06-20T13:59:58Z</time>
      </trkpt>
      <trkpt lat="43.697199" lon="-8.054343">
        <ele>250.286</ele>
        <time>2019-06-20T13:59:59Z</time>
      </trkpt>
      <trkpt lat="43.697050" lon="-8.054456">
        <ele>250.362</ele>
        <time>2019-06-20T14:00:00Z</time>
      </trkpt>
      <trkpt lat="43.696902" lon="-8.054570">
        <ele>251.189</ele>
        <time>2019-06-20T14:00:01Z</time>
      </trkpt>
      <trkpt lat="43.696753" lon="-8.054673">
        <ele>252.430</ele>
        <time>2019-06-20T14:00:02Z</time>
      </trkpt>
      <trkpt lat="43.696610" lon="-8.054780">
        <ele>252.212</ele>
        <time>2019-06-20T14:00:03Z</time>
      </trkpt>
      <trkpt lat="43.696463" lon="-8.054887">
        <ele>251.329</ele>
        <time>2019-06-20T14:00:04Z</time>
      </trkpt>
      <trkpt lat="43.696327" lon="-8.054997">
        <ele>250.546</ele>
        <time>2019-06-20T14:00:05Z</time>
      </trkpt>
      <trkpt lat="43.696193" lon="-8.055117">
        <ele>248.388</ele>
        <time>2019-06-20T14:00:06Z</time>
      </trkpt>
      <trkpt lat="43.696056" lon="-8.055223">
        <ele>247.116</ele>
        <time>2019-06-20T14:00:07Z</time>
      </trkpt>
      <trkpt lat="43.695918" lon="-8.055337">
        <ele>246.708</ele>
        <time>2019-06-20T14:00:08Z</time>
      </trkpt>
      <trkpt lat="43.695785" lon="-8.055454">
        <ele>247.357</ele>
        <time>2019-06-20T14:00:09Z</time>
      </trkpt>
      <trkpt lat="43.695654" lon="-8.055572">
        <ele>248.021</ele>
        <time>2019-06-20T14:00:10Z</time>
      </trkpt>
      <trkpt lat="43.695513" lon="-8.055684">
        <ele>248.552</ele>
        <time>2019-06-20T14:00:11Z</time>
      </trkpt>
      <trkpt lat="43.695368" lon="-8.055781">
        <ele>249.368</ele>
        <time>2019-06-20T14:00:12Z</time>
      </trkpt>
      <trkpt lat="43.695224" lon="-8.055891">
        <ele>249.325</ele>
        <time>2019-06-20T14:00:13Z</time>
      </trkpt>
      <trkpt lat="43.695081" lon="-8.056000">
        <ele>248.536</ele>
        <time>2019-06-20T14:00:14Z</time>
      </trkpt>
      <trkpt lat="43.694935" lon="-8.056105">
        <ele>248.318</ele>
        <time>2019-06-20T14:00:15Z</time>
      </trkpt>
      <trkpt lat="43.694797" lon="-8.056210">
        <ele>248.475</ele>
        <time>2019-06-20T14:00:16Z</time>
      </trkpt>
      <trkpt lat="43.694659" lon="-8.056308">
        <ele>248.074</ele>
        <time>2019-06-20T14:00:17Z</time>
      </trkpt>
      <trkpt lat="43.694526" lon="-8.056411">
        <ele>247.456</ele>
        <time>2019-06-20T14:00:18Z</time>
      </trkpt>
      <trkpt lat="43.694392" lon="-8.056508">
        <ele>248.221</ele>
        <time>2019-06-20T14:00:19Z</time>
      </trkpt>
      <trkpt lat="43.694267" lon="-8.056600">
        <ele>249.308</ele>
        <time>2019-06-20T14:00:20Z</time>
      </trkpt>
      <trkpt lat="43.694144" lon="-8.056683">
        <ele>249.840</ele>
        <time>2019-06-20T14:00:21Z</time>
      </trkpt>
      <trkpt lat="43.694021" lon="-8.056758">
        <ele>249.414</ele>
        <time>2019-06-20T14:00:22Z</time>
      </trkpt>
      <trkpt lat="43.693892" lon="-8.056818">
        <ele>249.725</ele>
        <time>2019-06-20T14:00:23Z</time>
      </trkpt>
      <trkpt lat="43.693754" lon="-8.056839">
        <ele>249.041</ele>
        <time>2019-06-20T14:00:24Z</time>
      </trkpt>
      <trkpt lat="43.693621" lon="-8.056868">
        <ele>248.048</ele>
        <time>2019-06-20T14:00:25Z</time>
      </trkpt>
      <trkpt lat="43.693480" lon="-8.056880">
        <ele>247.889</ele>
        <time>2019-06-20T14:00:26Z</time>
      </trkpt>
      <trkpt lat="43.693316" lon="-8.056881">
        <ele>247.931</ele>
        <time>2019-06-20T14:00:27Z</time>
      </trkpt>
      <trkpt lat="43.693136" lon="-8.056763">
        <ele>249.438</ele>
        <time>2019-06-20T14:00:28Z</time>
      </trkpt>
      <trkpt lat="43.692967" lon="-8.056718">
        <ele>250.332</ele>
        <time>2019-06-20T14:00:29Z</time>
      </trkpt>
      <trkpt lat="43.692805" lon="-8.056682">
        <ele>251.692</ele>
        <time>2019-06-20T14:00:30Z</time>
      </trkpt>
      <trkpt lat="43.692629" lon="-8.056615">
        <ele>253.511</ele>
        <time>2019-06-20T14:00:31Z</time>
      </trkpt>
      <trkpt lat="43.692458" lon="-8.056555">
        <ele>254.708</ele>
        <time>2019-06-20T14:00:32Z</time>
      </trkpt>
      <trkpt lat="43.692283" lon="-8.056494">
        <ele>254.866</ele>
        <time>2019-06-20T14:00:33Z</time>
      </trkpt>
      <trkpt lat="43.692141" lon="-8.056442">
        <ele>255.770</ele>
        <time>2019-06-20T14:00:34Z</time>
      </trkpt>
      <trkpt lat="43.692004" lon="-8.056403">
        <ele>256.721</ele>
        <time>2019-06-20T14:00:35Z</time>
      </trkpt>
      <trkpt lat="43.691874" lon="-8.056355">
        <ele>257.557</ele>
        <time>2019-06-20T14:00:36Z</time>
      </trkpt>
      <trkpt lat="43.691738" lon="-8.056296">
        <ele>258.044</ele>
        <time>2019-06-20T14:00:37Z</time>
      </trkpt>
      <trkpt lat="43.691606" lon="-8.056206">
        <ele>259.195</ele>
        <time>2019-06-20T14:00:38Z</time>
      </trkpt>
      <trkpt lat="43.691509" lon="-8.056101">
        <ele>261.097</ele>
        <time>2019-06-20T14:00:39Z</time>
      </trkpt>
      <trkpt lat="43.691397" lon="-8.055953">
        <ele>262.624</ele>
        <time>2019-06-20T14:00:40Z</time>
      </trkpt>
      <trkpt lat="43.691277" lon="-8.055827">
        <ele>262.733</ele>
        <time>2019-06-20T14:00:41Z</time>
      </trkpt>
      <trkpt lat="43.691156" lon="-8.055712">
        <ele>262.223</ele>
        <time>2019-06-20T14:00:42Z</time>
      </trkpt>
      <trkpt lat="43.691048" lon="-8.055588">
        <ele>262.315</ele>
        <time>2019-06-20T14:00:43Z</time>
      </trkpt>
      <trkpt lat="43.690933" lon="-8.055482">
        <ele>262.108</ele>
        <time>2019-06-20T14:00:44Z</time>
      </trkpt>
      <trkpt lat="43.690800" lon="-8.055332">
        <ele>262.976</ele>
        <time>2019-06-20T14:00:45Z</time>
      </trkpt>
      <trkpt lat="43.690663" lon="-8.055215">
        <ele>264.370</ele>
        <time>2019-06-20T14:00:46Z</time>
      </trkpt>
      <trkpt lat="43.690519" lon="-8.055094">
        <ele>264.281</ele>
        <time>2019-06-20T14:00:47Z</time>
      </trkpt>
      <trkpt lat="43.690375" lon="-8.055025">
        <ele>262.437</ele>
        <time>2019-06-20T14:00:48Z</time>
      </trkpt>
      <trkpt lat="43.690243" lon="-8.054954">
        <ele>260.934</ele>
        <time>2019-06-20T14:00:49Z</time>
      </trkpt>
      <trkpt lat="43.690125" lon="-8.054874">
        <ele>260.145</ele>
        <time>2019-06-20T14:00:50Z</time>
      </trkpt>
      <trkpt lat="43.690014" lon="-8.054802">
        <ele>259.797</ele>
        <time>2019-06-20T14:00:51Z</time>
      </trkpt>
      <trkpt lat="43.689902" lon="-8.054738">
        <ele>260.014</ele>
        <time>2019-06-20T14:00:52Z</time>
      </trkpt>
      <trkpt lat="43.689793" lon="-8.054669">
        <ele>260.367</ele>
        <time>2019-06-20T14:00:53Z</time>
      </trkpt>
      <trkpt lat="43.689679" lon="-8.054609">
        <ele>260.281</ele>
        <time>2019-06-20T14:00:54Z</time>
      </trkpt>
      <trkpt lat="43.689562" lon="-8.054533">
        <ele>260.419</ele>
        <time>2019-06-20T14:00:55Z</time>
      </trkpt>
      <trkpt lat="43.689458" lon="-8.054442">
        <ele>261.208</ele>
        <time>2019-06-20T14:00:56Z</time>
      </trkpt>
      <trkpt lat="43.689341" lon="-8.054368">
        <ele>261.439</ele>
        <time>2019-06-20T14:00:57Z</time>
      </trkpt>
      <trkpt lat="43.689217" lon="-8.054274">
        <ele>262.033</ele>
        <time>2019-06-20T14:00:58Z</time>
      </trkpt>
      <trkpt lat="43.689098" lon="-8.054175">
        <ele>262.844</ele>
        <time>2019-06-20T14:00:59Z</time>
      </trkpt>
      <trkpt lat="43.688987" lon="-8.054049">
        <ele>264.120</ele>
        <time>2019-06-20T14:01:00Z</time>
      </trkpt>
      <trkpt lat="43.688863" lon="-8.053927">
        <ele>264.937</ele>
        <time>2019-06-20T14:01:01Z</time>
      </trkpt>
      <trkpt lat="43.688735" lon="-8.053802">
        <ele>265.778</ele>
        <time>2019-06-20T14:01:02Z</time>
      </trkpt>
      <trkpt lat="43.688618" lon="-8.053655">
        <ele>266.510</ele>
        <time>2019-06-20T14:01:03Z</time>
      </trkpt>
      <trkpt lat="43.688492" lon="-8.053498">
        <ele>265.777</ele>
        <time>2019-06-20T14:01:04Z</time>
      </trkpt>
      <trkpt lat="43.688372" lon="-8.053351">
        <ele>264.635</ele>
        <time>2019-06-20T14:01:05Z</time>
      </trkpt>
      <trkpt lat="43.688254" lon="-8.053206">
        <ele>263.386</ele>
        <time>2019-06-20T14:01:06Z</time>
      </trkpt>
      <trkpt lat="43.688143" lon="-8.053055">
        <ele>262.914</ele>
        <time>2019-06-20T14:01:07Z</time>
      </trkpt>
      <trkpt lat="43.688039" lon="-8.052919">
        <ele>262.408</ele>
        <time>2019-06-20T14:01:08Z</time>
      </trkpt>
      <trkpt lat="43.687943" lon="-8.052786">
        <ele>262.616</ele>
        <time>2019-06-20T14:01:09Z</time>
      </trkpt>
      <trkpt lat="43.687848" lon="-8.052667">
        <ele>262.060</ele>
        <time>2019-06-20T14:01:10Z</time>
      </trkpt>
      <trkpt lat="43.687753" lon="-8.052547">
        <ele>261.261</ele>
        <time>2019-06-20T14:01:11Z</time>
      </trkpt>
      <trkpt lat="43.687652" lon="-8.052425">
        <ele>260.647</ele>
        <time>2019-06-20T14:01:12Z</time>
      </trkpt>
      <trkpt lat="43.687564" lon="-8.052293">
        <ele>259.734</ele>
        <time>2019-06-20T14:01:13Z</time>
      </trkpt>
      <trkpt lat="43.687470" lon="-8.052174">
        <ele>259.175</ele>
        <time>2019-06-20T14:01:14Z</time>
      </trkpt>
      <trkpt lat="43.687349" lon="-8.052065">
        <ele>259.227</ele>
        <time>2019-06-20T14:01:15Z</time>
      </trkpt>
      <trkpt lat="43.687235" lon="-8.051958">
        <ele>259.034</ele>
        <time>2019-06-20T14:01:16Z</time>
      </trkpt>
      <trkpt lat="43.687123" lon="-8.051838">
        <ele>260.033</ele>
        <time>2019-06-20T14:01:17Z</time>
      </trkpt>
      <trkpt lat="43.687004" lon="-8.051755">
        <ele>260.723</ele>
        <time>2019-06-20T14:01:18Z</time>
      </trkpt>
      <trkpt lat="43.686882" lon="-8.051663">
        <ele>261.215</ele>
        <time>2019-06-20T14:01:19Z</time>
      </trkpt>
      <trkpt lat="43.686760" lon="-8.051561">
        <ele>260.808</ele>
        <time>2019-06-20T14:01:20Z</time>
      </trkpt>
      <trkpt lat="43.686649" lon="-8.051489">
        <ele>260.176</ele>
        <time>2019-06-20T14:01:21Z</time>
      </trkpt>
      <trkpt lat="43.686524" lon="-8.051406">
        <ele>259.250</ele>
        <time>2019-06-20T14:01:22Z</time>
      </trkpt>
      <trkpt lat="43.686392" lon="-8.051325">
        <ele>258.111</ele>
        <time>2019-06-20T14:01:24Z</time>
      </trkpt>
      <trkpt lat="43.686251" lon="-8.051252">
        <ele>256.597</ele>
        <time>2019-06-20T14:01:25Z</time>
      </trkpt>
      <trkpt lat="43.686110" lon="-8.051186">
        <ele>255.544</ele>
        <time>2019-06-20T14:01:26Z</time>
      </trkpt>
      <trkpt lat="43.685968" lon="-8.051132">
        <ele>254.145</ele>
        <time>2019-06-20T14:01:27Z</time>
      </trkpt>
      <trkpt lat="43.685827" lon="-8.051078">
        <ele>252.937</ele>
        <time>2019-06-20T14:01:28Z</time>
      </trkpt>
      <trkpt lat="43.685696" lon="-8.051025">
        <ele>253.464</ele>
        <time>2019-06-20T14:01:29Z</time>
      </trkpt>
      <trkpt lat="43.685556" lon="-8.051000">
        <ele>253.611</ele>
        <time>2019-06-20T14:01:30Z</time>
      </trkpt>
      <trkpt lat="43.685432" lon="-8.050964">
        <ele>253.121</ele>
        <time>2019-06-20T14:01:31Z</time>
      </trkpt>
      <trkpt lat="43.685314" lon="-8.050945">
        <ele>252.903</ele>
        <time>2019-06-20T14:01:32Z</time>
      </trkpt>
      <trkpt lat="43.685213" lon="-8.050914">
        <ele>251.708</ele>
        <time>2019-06-20T14:01:33Z</time>
      </trkpt>
      <trkpt lat="43.685098" lon="-8.050940">
        <ele>250.734</ele>
        <time>2019-06-20T14:01:34Z</time>
      </trkpt>
      <trkpt lat="43.684991" lon="-8.050989">
        <ele>250.078</ele>
        <time>2019-06-20T14:01:35Z</time>
      </trkpt>
      <trkpt lat="43.684889" lon="-8.051035">
        <ele>247.499</ele>
        <time>2019-06-20T14:01:36Z</time>
      </trkpt>
      <trkpt lat="43.684794" lon="-8.051093">
        <ele>245.165</ele>
        <time>2019-06-20T14:01:37Z</time>
      </trkpt>
      <trkpt lat="43.684740" lon="-8.051166">
        <ele>244.422</ele>
        <time>2019-06-20T14:01:38Z</time>
      </trkpt>
      <trkpt lat="43.684668" lon="-8.051202">
        <ele>243.143</ele>
        <time>2019-06-20T14:01:39Z</time>
      </trkpt>
      <trkpt lat="43.684606" lon="-8.051233">
        <ele>242.175</ele>
        <time>2019-06-20T14:01:40Z</time>
      </trkpt>
      <trkpt lat="43.684539" lon="-8.051279">
        <ele>241.152</ele>
        <time>2019-06-20T14:01:41Z</time>
      </trkpt>
      <trkpt lat="43.684496" lon="-8.051348">
        <ele>240.858</ele>
        <time>2019-06-20T14:01:42Z</time>
      </trkpt>
      <trkpt lat="43.684443" lon="-8.051416">
        <ele>240.652</ele>
        <time>2019-06-20T14:01:43Z</time>
      </trkpt>
      <trkpt lat="43.684388" lon="-8.051451">
        <ele>240.917</ele>
        <time>2019-06-20T14:01:44Z</time>
      </trkpt>
      <trkpt lat="43.684331" lon="-8.051479">
        <ele>241.008</ele>
        <time>2019-06-20T14:01:45Z</time>
      </trkpt>
      <trkpt lat="43.684280" lon="-8.051503">
        <ele>241.038</ele>
        <time>2019-06-20T14:01:46Z</time>
      </trkpt>
      <trkpt lat="43.684173" lon="-8.051502">
        <ele>240.152</ele>
        <time>2019-06-20T14:01:48Z</time>
      </trkpt>
      <trkpt lat="43.684083" lon="-8.051484">
        <ele>240.423</ele>
        <time>2019-06-20T14:01:49Z</time>
      </trkpt>
      <trkpt lat="43.684006" lon="-8.051480">
        <ele>241.069</ele>
        <time>2019-06-20T14:01:50Z</time>
      </trkpt>
      <trkpt lat="43.684000" lon="-8.051363">
        <ele>239.816</ele>
        <time>2019-06-20T14:01:51Z</time>
      </trkpt>
      <trkpt lat="43.683999" lon="-8.051268">
        <ele>239.877</ele>
        <time>2019-06-20T14:01:52Z</time>
      </trkpt>
      <trkpt lat="43.684032" lon="-8.051176">
        <ele>239.579</ele>
        <time>2019-06-20T14:01:53Z</time>
      </trkpt>
      <trkpt lat="43.684093" lon="-8.051030">
        <ele>238.596</ele>
        <time>2019-06-20T14:01:54Z</time>
      </trkpt>
      <trkpt lat="43.684181" lon="-8.050919">
        <ele>237.353</ele>
        <time>2019-06-20T14:01:55Z</time>
      </trkpt>
      <trkpt lat="43.684296" lon="-8.050809">
        <ele>236.704</ele>
        <time>2019-06-20T14:01:56Z</time>
      </trkpt>
      <trkpt lat="43.684418" lon="-8.050693">
        <ele>235.014</ele>
        <time>2019-06-20T14:01:57Z</time>
      </trkpt>
      <trkpt lat="43.684549" lon="-8.050555">
        <ele>234.508</ele>
        <time>2019-06-20T14:01:58Z</time>
      </trkpt>
      <trkpt lat="43.684695" lon="-8.050382">
        <ele>233.488</ele>
        <time>2019-06-20T14:01:59Z</time>
      </trkpt>
      <trkpt lat="43.684829" lon="-8.050253">
        <ele>233.812</ele>
        <time>2019-06-20T14:02:00Z</time>
      </trkpt>
      <trkpt lat="43.684950" lon="-8.050164">
        <ele>234.573</ele>
        <time>2019-06-20T14:02:01Z</time>
      </trkpt>
      <trkpt lat="43.685061" lon="-8.050079">
        <ele>233.969</ele>
        <time>2019-06-20T14:02:02Z</time>
      </trkpt>
      <trkpt lat="43.685203" lon="-8.049967">
        <ele>231.966</ele>
        <time>2019-06-20T14:02:03Z</time>
      </trkpt>
      <trkpt lat="43.685320" lon="-8.049943">
        <ele>231.427</ele>
        <time>2019-06-20T14:02:04Z</time>
      </trkpt>
      <trkpt lat="43.685454" lon="-8.049904">
        <ele>229.999</ele>
        <time>2019-06-20T14:02:05Z</time>
      </trkpt>
      <trkpt lat="43.685573" lon="-8.049875">
        <ele>228.796</ele>
        <time>2019-06-20T14:02:06Z</time>
      </trkpt>
      <trkpt lat="43.685674" lon="-8.049852">
        <ele>227.229</ele>
        <time>2019-06-20T14:02:07Z</time>
      </trkpt>
      <trkpt lat="43.685758" lon="-8.049827">
        <ele>225.700</ele>
        <time>2019-06-20T14:02:08Z</time>
      </trkpt>
      <trkpt lat="43.685834" lon="-8.049769">
        <ele>223.320</ele>
        <time>2019-06-20T14:02:09Z</time>
      </trkpt>
      <trkpt lat="43.685893" lon="-8.049705">
        <ele>220.908</ele>
        <time>2019-06-20T14:02:10Z</time>
      </trkpt>
      <trkpt lat="43.685959" lon="-8.049636">
        <ele>217.965</ele>
        <time>2019-06-20T14:02:11Z</time>
      </trkpt>
      <trkpt lat="43.685993" lon="-8.049577">
        <ele>215.329</ele>
        <time>2019-06-20T14:02:12Z</time>
      </trkpt>
      <trkpt lat="43.686013" lon="-8.049504">
        <ele>212.340</ele>
        <time>2019-06-20T14:02:13Z</time>
      </trkpt>
      <trkpt lat="43.685934" lon="-8.049396">
        <ele>209.936</ele>
        <time>2019-06-20T14:02:14Z</time>
      </trkpt>
      <trkpt lat="43.685870" lon="-8.049230">
        <ele>206.623</ele>
        <time>2019-06-20T14:02:15Z</time>
      </trkpt>
      <trkpt lat="43.685799" lon="-8.049138">
        <ele>204.194</ele>
        <time>2019-06-20T14:02:16Z</time>
      </trkpt>
      <trkpt lat="43.685696" lon="-8.049072">
        <ele>202.136</ele>
        <time>2019-06-20T14:02:17Z</time>
      </trkpt>
      <trkpt lat="43.685528" lon="-8.049099">
        <ele>201.493</ele>
        <time>2019-06-20T14:02:18Z</time>
      </trkpt>
      <trkpt lat="43.685379" lon="-8.049243">
        <ele>204.998</ele>
        <time>2019-06-20T14:02:19Z</time>
      </trkpt>
      <trkpt lat="43.685238" lon="-8.049393">
        <ele>212.415</ele>
        <time>2019-06-20T14:02:20Z</time>
      </trkpt>
      <trkpt lat="43.685113" lon="-8.049491">
        <ele>215.626</ele>
        <time>2019-06-20T14:02:21Z</time>
      </trkpt>
      <trkpt lat="43.684965" lon="-8.049546">
        <ele>216.208</ele>
        <time>2019-06-20T14:02:22Z</time>
      </trkpt>
      <trkpt lat="43.684850" lon="-8.049706">
        <ele>221.672</ele>
        <time>2019-06-20T14:02:23Z</time>
      </trkpt>
      <trkpt lat="43.684702" lon="-8.049796">
        <ele>221.546</ele>
        <time>2019-06-20T14:02:24Z</time>
      </trkpt>
      <trkpt lat="43.684594" lon="-8.049896">
        <ele>221.857</ele>
        <time>2019-06-20T14:02:25Z</time>
      </trkpt>
      <trkpt lat="43.684457" lon="-8.049950">
        <ele>220.273</ele>
        <time>2019-06-20T14:02:26Z</time>
      </trkpt>
      <trkpt lat="43.684330" lon="-8.049883">
        <ele>217.910</ele>
        <time>2019-06-20T14:02:27Z</time>
      </trkpt>
      <trkpt lat="43.684203" lon="-8.049828">
        <ele>215.951</ele>
        <time>2019-06-20T14:02:28Z</time>
      </trkpt>
      <trkpt lat="43.684108" lon="-8.049831">
        <ele>216.293</ele>
        <time>2019-06-20T14:02:29Z</time>
      </trkpt>
      <trkpt lat="43.684020" lon="-8.049774">
        <ele>215.460</ele>
        <time>2019-06-20T14:02:30Z</time>
      </trkpt>
      <trkpt lat="43.683930" lon="-8.049689">
        <ele>214.076</ele>
        <time>2019-06-20T14:02:31Z</time>
      </trkpt>
      <trkpt lat="43.683836" lon="-8.049622">
        <ele>213.690</ele>
        <time>2019-06-20T14:02:32Z</time>
      </trkpt>
      <trkpt lat="43.683766" lon="-8.049513">
        <ele>212.219</ele>
        <time>2019-06-20T14:02:33Z</time>
      </trkpt>
      <trkpt lat="43.683685" lon="-8.049399">
        <ele>210.708</ele>
        <time>2019-06-20T14:02:34Z</time>
      </trkpt>
      <trkpt lat="43.683644" lon="-8.049280">
        <ele>207.960</ele>
        <time>2019-06-20T14:02:35Z</time>
      </trkpt>
      <trkpt lat="43.683595" lon="-8.049171">
        <ele>205.524</ele>
        <time>2019-06-20T14:02:36Z</time>
      </trkpt>
      <trkpt lat="43.683538" lon="-8.049069">
        <ele>203.295</ele>
        <time>2019-06-20T14:02:37Z</time>
      </trkpt>
      <trkpt lat="43.683486" lon="-8.048974">
        <ele>200.831</ele>
        <time>2019-06-20T14:02:38Z</time>
      </trkpt>
      <trkpt lat="43.683399" lon="-8.048893">
        <ele>199.228</ele>
        <time>2019-06-20T14:02:39Z</time>
      </trkpt>
      <trkpt lat="43.683332" lon="-8.048803">
        <ele>199.299</ele>
        <time>2019-06-20T14:02:40Z</time>
      </trkpt>
      <trkpt lat="43.683257" lon="-8.048685">
        <ele>201.971</ele>
        <time>2019-06-20T14:02:41Z</time>
      </trkpt>
      <trkpt lat="43.683224" lon="-8.048548">
        <ele>201.258</ele>
        <time>2019-06-20T14:02:42Z</time>
      </trkpt>
      <trkpt lat="43.683145" lon="-8.048400">
        <ele>201.711</ele>
        <time>2019-06-20T14:02:43Z</time>
      </trkpt>
      <trkpt lat="43.683118" lon="-8.048281">
        <ele>199.021</ele>
        <time>2019-06-20T14:02:44Z</time>
      </trkpt>
      <trkpt lat="43.683074" lon="-8.048145">
        <ele>195.103</ele>
        <time>2019-06-20T14:02:45Z</time>
      </trkpt>
      <trkpt lat="43.682977" lon="-8.048047">
        <ele>195.608</ele>
        <time>2019-06-20T14:02:46Z</time>
      </trkpt>
      <trkpt lat="43.682926" lon="-8.047925">
        <ele>193.464</ele>
        <time>2019-06-20T14:02:47Z</time>
      </trkpt>
      <trkpt lat="43.682870" lon="-8.047837">
        <ele>192.278</ele>
        <time>2019-06-20T14:02:48Z</time>
      </trkpt>
      <trkpt lat="43.682793" lon="-8.047741">
        <ele>191.189</ele>
        <time>2019-06-20T14:02:49Z</time>
      </trkpt>
      <trkpt lat="43.682720" lon="-8.047646">
        <ele>190.315</ele>
        <time>2019-06-20T14:02:50Z</time>
      </trkpt>
      <trkpt lat="43.682631" lon="-8.047583">
        <ele>191.322</ele>
        <time>2019-06-20T14:02:51Z</time>
      </trkpt>
      <trkpt lat="43.682555" lon="-8.047474">
        <ele>190.323</ele>
        <time>2019-06-20T14:02:52Z</time>
      </trkpt>
      <trkpt lat="43.682453" lon="-8.047380">
        <ele>190.365</ele>
        <time>2019-06-20T14:02:53Z</time>
      </trkpt>
      <trkpt lat="43.682318" lon="-8.047416">
        <ele>193.442</ele>
        <time>2019-06-20T14:02:54Z</time>
      </trkpt>
      <trkpt lat="43.682196" lon="-8.047369">
        <ele>193.652</ele>
        <time>2019-06-20T14:02:55Z</time>
      </trkpt>
      <trkpt lat="43.682080" lon="-8.047315">
        <ele>191.353</ele>
        <time>2019-06-20T14:02:56Z</time>
      </trkpt>
      <trkpt lat="43.681955" lon="-8.047265">
        <ele>188.608</ele>
        <time>2019-06-20T14:02:57Z</time>
      </trkpt>
      <trkpt lat="43.681820" lon="-8.047237">
        <ele>185.708</ele>
        <time>2019-06-20T14:02:58Z</time>
      </trkpt>
      <trkpt lat="43.681684" lon="-8.047203">
        <ele>182.618</ele>
        <time>2019-06-20T14:02:59Z</time>
      </trkpt>
      <trkpt lat="43.681535" lon="-8.047172">
        <ele>178.682</ele>
        <time>2019-06-20T14:03:00Z</time>
      </trkpt>
      <trkpt lat="43.681394" lon="-8.047151">
        <ele>175.323</ele>
        <time>2019-06-20T14:03:01Z</time>
      </trkpt>
      <trkpt lat="43.681246" lon="-8.047173">
        <ele>174.269</ele>
        <time>2019-06-20T14:03:02Z</time>
      </trkpt>
      <trkpt lat="43.681088" lon="-8.047183">
        <ele>173.216</ele>
        <time>2019-06-20T14:03:03Z</time>
      </trkpt>
      <trkpt lat="43.680935" lon="-8.047179">
        <ele>174.187</ele>
        <time>2019-06-20T14:03:04Z</time>
      </trkpt>
      <trkpt lat="43.680792" lon="-8.047184">
        <ele>175.289</ele>
        <time>2019-06-20T14:03:05Z</time>
      </trkpt>
      <trkpt lat="43.680646" lon="-8.047172">
        <ele>176.046</ele>
        <time>2019-06-20T14:03:06Z</time>
      </trkpt>
      <trkpt lat="43.680499" lon="-8.047157">
        <ele>176.697</ele>
        <time>2019-06-20T14:03:07Z</time>
      </trkpt>
      <trkpt lat="43.680394" lon="-8.047135">
        <ele>176.423</ele>
        <time>2019-06-20T14:03:08Z</time>
      </trkpt>
      <trkpt lat="43.680264" lon="-8.047104">
        <ele>175.925</ele>
        <time>2019-06-20T14:03:09Z</time>
      </trkpt>
      <trkpt lat="43.680127" lon="-8.047080">
        <ele>173.808</ele>
        <time>2019-06-20T14:03:10Z</time>
      </trkpt>
      <trkpt lat="43.679996" lon="-8.047078">
        <ele>172.292</ele>
        <time>2019-06-20T14:03:11Z</time>
      </trkpt>
      <trkpt lat="43.679880" lon="-8.047085">
        <ele>170.826</ele>
        <time>2019-06-20T14:03:12Z</time>
      </trkpt>
      <trkpt lat="43.679753" lon="-8.047126">
        <ele>170.967</ele>
        <time>2019-06-20T14:03:13Z</time>
      </trkpt>
      <trkpt lat="43.679625" lon="-8.047165">
        <ele>169.393</ele>
        <time>2019-06-20T14:03:14Z</time>
      </trkpt>
      <trkpt lat="43.679500" lon="-8.047218">
        <ele>167.630</ele>
        <time>2019-06-20T14:03:15Z</time>
      </trkpt>
      <trkpt lat="43.679376" lon="-8.047287">
        <ele>166.431</ele>
        <time>2019-06-20T14:03:16Z</time>
      </trkpt>
      <trkpt lat="43.679268" lon="-8.047360">
        <ele>166.233</ele>
        <time>2019-06-20T14:03:17Z</time>
      </trkpt>
      <trkpt lat="43.679151" lon="-8.047444">
        <ele>166.570</ele>
        <time>2019-06-20T14:03:18Z</time>
      </trkpt>
      <trkpt lat="43.679047" lon="-8.047551">
        <ele>168.287</ele>
        <time>2019-06-20T14:03:19Z</time>
      </trkpt>
      <trkpt lat="43.678946" lon="-8.047665">
        <ele>169.742</ele>
        <time>2019-06-20T14:03:20Z</time>
      </trkpt>
      <trkpt lat="43.678841" lon="-8.047797">
        <ele>170.526</ele>
        <time>2019-06-20T14:03:21Z</time>
      </trkpt>
      <trkpt lat="43.678715" lon="-8.047919">
        <ele>168.308</ele>
        <time>2019-06-20T14:03:22Z</time>
      </trkpt>
      <trkpt lat="43.678580" lon="-8.048019">
        <ele>166.191</ele>
        <time>2019-06-20T14:03:23Z</time>
      </trkpt>
      <trkpt lat="43.678450" lon="-8.048128">
        <ele>164.325</ele>
        <time>2019-06-20T14:03:24Z</time>
      </trkpt>
      <trkpt lat="43.678332" lon="-8.048251">
        <ele>163.916</ele>
        <time>2019-06-20T14:03:25Z</time>
      </trkpt>
      <trkpt lat="43.678187" lon="-8.048303">
        <ele>163.582</ele>
        <time>2019-06-20T14:03:26Z</time>
      </trkpt>
      <trkpt lat="43.678065" lon="-8.048343">
        <ele>163.379</ele>
        <time>2019-06-20T14:03:27Z</time>
      </trkpt>
      <trkpt lat="43.677927" lon="-8.048360">
        <ele>161.840</ele>
        <time>2019-06-20T14:03:28Z</time>
      </trkpt>
      <trkpt lat="43.677785" lon="-8.048371">
        <ele>160.112</ele>
        <time>2019-06-20T14:03:29Z</time>
      </trkpt>
      <trkpt lat="43.677637" lon="-8.048379">
        <ele>159.199</ele>
        <time>2019-06-20T14:03:30Z</time>
      </trkpt>
      <trkpt lat="43.677492" lon="-8.048381">
        <ele>158.016</ele>
        <time>2019-06-20T14:03:31Z</time>
      </trkpt>
      <trkpt lat="43.677349" lon="-8.048390">
        <ele>154.776</ele>
        <time>2019-06-20T14:03:32Z</time>
      </trkpt>
      <trkpt lat="43.677206" lon="-8.048401">
        <ele>151.313</ele>
        <time>2019-06-20T14:03:33Z</time>
      </trkpt>
      <trkpt lat="43.677062" lon="-8.048409">
        <ele>146.108</ele>
        <time>2019-06-20T14:03:34Z</time>
      </trkpt>
      <trkpt lat="43.676919" lon="-8.048427">
        <ele>141.224</ele>
        <time>2019-06-20T14:03:35Z</time>
      </trkpt>
      <trkpt lat="43.676791" lon="-8.048466">
        <ele>137.968</ele>
        <time>2019-06-20T14:03:36Z</time>
      </trkpt>
      <trkpt lat="43.676664" lon="-8.048513">
        <ele>135.149</ele>
        <time>2019-06-20T14:03:37Z</time>
      </trkpt>
      <trkpt lat="43.676540" lon="-8.048567">
        <ele>133.545</ele>
        <time>2019-06-20T14:03:38Z</time>
      </trkpt>
      <trkpt lat="43.676435" lon="-8.048634">
        <ele>132.672</ele>
        <time>2019-06-20T14:03:39Z</time>
      </trkpt>
      <trkpt lat="43.676329" lon="-8.048689">
        <ele>130.273</ele>
        <time>2019-06-20T14:03:40Z</time>
      </trkpt>
      <trkpt lat="43.676229" lon="-8.048758">
        <ele>127.925</ele>
        <time>2019-06-20T14:03:41Z</time>
      </trkpt>
      <trkpt lat="43.676121" lon="-8.048825">
        <ele>125.262</ele>
        <time>2019-06-20T14:03:42Z</time>
      </trkpt>
      <trkpt lat="43.676019" lon="-8.048899">
        <ele>123.137</ele>
        <time>2019-06-20T14:03:43Z</time>
      </trkpt>
      <trkpt lat="43.675913" lon="-8.048985">
        <ele>121.149</ele>
        <time>2019-06-20T14:03:44Z</time>
      </trkpt>
      <trkpt lat="43.675822" lon="-8.049104">
        <ele>120.613</ele>
        <time>2019-06-20T14:03:45Z</time>
      </trkpt>
      <trkpt lat="43.675724" lon="-8.049206">
        <ele>120.108</ele>
        <time>2019-06-20T14:03:46Z</time>
      </trkpt>
      <trkpt lat="43.675616" lon="-8.049273">
        <ele>118.546</ele>
        <time>2019-06-20T14:03:47Z</time>
      </trkpt>
      <trkpt lat="43.675528" lon="-8.049331">
        <ele>117.210</ele>
        <time>2019-06-20T14:03:48Z</time>
      </trkpt>
      <trkpt lat="43.675416" lon="-8.049317">
        <ele>114.691</ele>
        <time>2019-06-20T14:03:49Z</time>
      </trkpt>
      <trkpt lat="43.675302" lon="-8.049325">
        <ele>112.167</ele>
        <time>2019-06-20T14:03:50Z</time>
      </trkpt>
      <trkpt lat="43.675201" lon="-8.049353">
        <ele>110.594</ele>
        <time>2019-06-20T14:03:51Z</time>
      </trkpt>
      <trkpt lat="43.675113" lon="-8.049394">
        <ele>109.175</ele>
        <time>2019-06-20T14:03:52Z</time>
      </trkpt>
      <trkpt lat="43.675034" lon="-8.049454">
        <ele>107.737</ele>
        <time>2019-06-20T14:03:53Z</time>
      </trkpt>
      <trkpt lat="43.674962" lon="-8.049547">
        <ele>107.084</ele>
        <time>2019-06-20T14:03:54Z</time>
      </trkpt>
      <trkpt lat="43.674920" lon="-8.049705">
        <ele>107.279</ele>
        <time>2019-06-20T14:03:55Z</time>
      </trkpt>
      <trkpt lat="43.674882" lon="-8.049867">
        <ele>107.505</ele>
        <time>2019-06-20T14:03:56Z</time>
      </trkpt>
      <trkpt lat="43.674849" lon="-8.050046">
        <ele>108.125</ele>
        <time>2019-06-20T14:03:57Z</time>
      </trkpt>
      <trkpt lat="43.674808" lon="-8.050237">
        <ele>108.808</ele>
        <time>2019-06-20T14:03:58Z</time>
      </trkpt>
      <trkpt lat="43.674769" lon="-8.050434">
        <ele>108.790</ele>
        <time>2019-06-20T14:03:59Z</time>
      </trkpt>
      <trkpt lat="43.674734" lon="-8.050630">
        <ele>107.854</ele>
        <time>2019-06-20T14:04:00Z</time>
      </trkpt>
      <trkpt lat="43.674696" lon="-8.050823">
        <ele>105.455</ele>
        <time>2019-06-20T14:04:01Z</time>
      </trkpt>
      <trkpt lat="43.674659" lon="-8.051011">
        <ele>103.381</ele>
        <time>2019-06-20T14:04:02Z</time>
      </trkpt>
      <trkpt lat="43.674621" lon="-8.051195">
        <ele>101.538</ele>
        <time>2019-06-20T14:04:03Z</time>
      </trkpt>
      <trkpt lat="43.674584" lon="-8.051375">
        <ele>100.129</ele>
        <time>2019-06-20T14:04:04Z</time>
      </trkpt>
      <trkpt lat="43.674547" lon="-8.051551">
        <ele>99.891</ele>
        <time>2019-06-20T14:04:05Z</time>
      </trkpt>
      <trkpt lat="43.674505" lon="-8.051726">
        <ele>99.938</ele>
        <time>2019-06-20T14:04:06Z</time>
      </trkpt>
      <trkpt lat="43.674456" lon="-8.051881">
        <ele>100.555</ele>
        <time>2019-06-20T14:04:07Z</time>
      </trkpt>
      <trkpt lat="43.674385" lon="-8.052024">
        <ele>101.107</ele>
        <time>2019-06-20T14:04:08Z</time>
      </trkpt>
      <trkpt lat="43.674304" lon="-8.052155">
        <ele>101.617</ele>
        <time>2019-06-20T14:04:09Z</time>
      </trkpt>
      <trkpt lat="43.674205" lon="-8.052250">
        <ele>101.708</ele>
        <time>2019-06-20T14:04:10Z</time>
      </trkpt>
      <trkpt lat="43.674071" lon="-8.052261">
        <ele>99.428</ele>
        <time>2019-06-20T14:04:11Z</time>
      </trkpt>
      <trkpt lat="43.673938" lon="-8.052335">
        <ele>97.362</ele>
        <time>2019-06-20T14:04:12Z</time>
      </trkpt>
      <trkpt lat="43.673799" lon="-8.052401">
        <ele>95.233</ele>
        <time>2019-06-20T14:04:13Z</time>
      </trkpt>
      <trkpt lat="43.673668" lon="-8.052462">
        <ele>93.519</ele>
        <time>2019-06-20T14:04:14Z</time>
      </trkpt>
      <trkpt lat="43.673532" lon="-8.052544">
        <ele>92.276</ele>
        <time>2019-06-20T14:04:15Z</time>
      </trkpt>
      <trkpt lat="43.673411" lon="-8.052634">
        <ele>91.147</ele>
        <time>2019-06-20T14:04:16Z</time>
      </trkpt>
      <trkpt lat="43.673287" lon="-8.052720">
        <ele>90.269</ele>
        <time>2019-06-20T14:04:17Z</time>
      </trkpt>
      <trkpt lat="43.673159" lon="-8.052793">
        <ele>89.966</ele>
        <time>2019-06-20T14:04:18Z</time>
      </trkpt>
      <trkpt lat="43.673034" lon="-8.052850">
        <ele>89.253</ele>
        <time>2019-06-20T14:04:19Z</time>
      </trkpt>
      <trkpt lat="43.672893" lon="-8.052904">
        <ele>87.204</ele>
        <time>2019-06-20T14:04:20Z</time>
      </trkpt>
      <trkpt lat="43.672764" lon="-8.052952">
        <ele>85.714</ele>
        <time>2019-06-20T14:04:21Z</time>
      </trkpt>
      <trkpt lat="43.672626" lon="-8.053002">
        <ele>84.208</ele>
        <time>2019-06-20T14:04:22Z</time>
      </trkpt>
      <trkpt lat="43.672491" lon="-8.053053">
        <ele>82.928</ele>
        <time>2019-06-20T14:04:23Z</time>
      </trkpt>
      <trkpt lat="43.672359" lon="-8.053111">
        <ele>83.412</ele>
        <time>2019-06-20T14:04:24Z</time>
      </trkpt>
      <trkpt lat="43.672224" lon="-8.053169">
        <ele>83.653</ele>
        <time>2019-06-20T14:04:25Z</time>
      </trkpt>
      <trkpt lat="43.672098" lon="-8.053250">
        <ele>83.069</ele>
        <time>2019-06-20T14:04:26Z</time>
      </trkpt>
      <trkpt lat="43.671976" lon="-8.053338">
        <ele>82.546</ele>
        <time>2019-06-20T14:04:27Z</time>
      </trkpt>
      <trkpt lat="43.671854" lon="-8.053413">
        <ele>81.777</ele>
        <time>2019-06-20T14:04:28Z</time>
      </trkpt>
      <trkpt lat="43.671732" lon="-8.053486">
        <ele>81.419</ele>
        <time>2019-06-20T14:04:29Z</time>
      </trkpt>
      <trkpt lat="43.671611" lon="-8.053564">
        <ele>81.656</ele>
        <time>2019-06-20T14:04:30Z</time>
      </trkpt>
      <trkpt lat="43.671483" lon="-8.053626">
        <ele>81.348</ele>
        <time>2019-06-20T14:04:31Z</time>
      </trkpt>
      <trkpt lat="43.671350" lon="-8.053671">
        <ele>81.061</ele>
        <time>2019-06-20T14:04:32Z</time>
      </trkpt>
      <trkpt lat="43.671219" lon="-8.053711">
        <ele>81.417</ele>
        <time>2019-06-20T14:04:33Z</time>
      </trkpt>
      <trkpt lat="43.671083" lon="-8.053731">
        <ele>81.008</ele>
        <time>2019-06-20T14:04:34Z</time>
      </trkpt>
      <trkpt lat="43.670950" lon="-8.053754">
        <ele>78.957</ele>
        <time>2019-06-20T14:04:35Z</time>
      </trkpt>
      <trkpt lat="43.670834" lon="-8.053770">
        <ele>76.971</ele>
        <time>2019-06-20T14:04:36Z</time>
      </trkpt>
      <trkpt lat="43.670737" lon="-8.053765">
        <ele>75.592</ele>
        <time>2019-06-20T14:04:37Z</time>
      </trkpt>
      <trkpt lat="43.670623" lon="-8.053756">
        <ele>73.968</ele>
        <time>2019-06-20T14:04:38Z</time>
      </trkpt>
      <trkpt lat="43.670532" lon="-8.053741">
        <ele>72.815</ele>
        <time>2019-06-20T14:04:39Z</time>
      </trkpt>
      <trkpt lat="43.670443" lon="-8.053716">
        <ele>72.116</ele>
        <time>2019-06-20T14:04:40Z</time>
      </trkpt>
      <trkpt lat="43.670366" lon="-8.053642">
        <ele>70.878</ele>
        <time>2019-06-20T14:04:41Z</time>
      </trkpt>
      <trkpt lat="43.670283" lon="-8.053566">
        <ele>69.415</ele>
        <time>2019-06-20T14:04:42Z</time>
      </trkpt>
      <trkpt lat="43.670196" lon="-8.053517">
        <ele>68.338</ele>
        <time>2019-06-20T14:04:43Z</time>
      </trkpt>
      <trkpt lat="43.670093" lon="-8.053466">
        <ele>67.270</ele>
        <time>2019-06-20T14:04:44Z</time>
      </trkpt>
      <trkpt lat="43.669991" lon="-8.053411">
        <ele>66.117</ele>
        <time>2019-06-20T14:04:45Z</time>
      </trkpt>
      <trkpt lat="43.669863" lon="-8.053374">
        <ele>64.608</ele>
        <time>2019-06-20T14:04:46Z</time>
      </trkpt>
      <trkpt lat="43.669745" lon="-8.053333">
        <ele>63.286</ele>
        <time>2019-06-20T14:04:47Z</time>
      </trkpt>
      <trkpt lat="43.669630" lon="-8.053308">
        <ele>61.660</ele>
        <time>2019-06-20T14:04:48Z</time>
      </trkpt>
      <trkpt lat="43.669508" lon="-8.053300">
        <ele>60.251</ele>
        <time>2019-06-20T14:04:49Z</time>
      </trkpt>
      <trkpt lat="43.669395" lon="-8.053347">
        <ele>59.777</ele>
        <time>2019-06-20T14:04:50Z</time>
      </trkpt>
      <trkpt lat="43.669266" lon="-8.053395">
        <ele>58.814</ele>
        <time>2019-06-20T14:04:51Z</time>
      </trkpt>
      <trkpt lat="43.669135" lon="-8.053431">
        <ele>57.755</ele>
        <time>2019-06-20T14:04:52Z</time>
      </trkpt>
      <trkpt lat="43.669005" lon="-8.053459">
        <ele>56.667</ele>
        <time>2019-06-20T14:04:53Z</time>
      </trkpt>
      <trkpt lat="43.668860" lon="-8.053465">
        <ele>55.144</ele>
        <time>2019-06-20T14:04:54Z</time>
      </trkpt>
      <trkpt lat="43.668716" lon="-8.053456">
        <ele>53.151</ele>
        <time>2019-06-20T14:04:55Z</time>
      </trkpt>
      <trkpt lat="43.668567" lon="-8.053436">
        <ele>51.201</ele>
        <time>2019-06-20T14:04:56Z</time>
      </trkpt>
      <trkpt lat="43.668421" lon="-8.053423">
        <ele>49.911</ele>
        <time>2019-06-20T14:04:57Z</time>
      </trkpt>
      <trkpt lat="43.668298" lon="-8.053420">
        <ele>48.908</ele>
        <time>2019-06-20T14:04:58Z</time>
      </trkpt>
      <trkpt lat="43.668185" lon="-8.053413">
        <ele>47.588</ele>
        <time>2019-06-20T14:04:59Z</time>
      </trkpt>
      <trkpt lat="43.668090" lon="-8.053414">
        <ele>46.592</ele>
        <time>2019-06-20T14:05:00Z</time>
      </trkpt>
      <trkpt lat="43.667991" lon="-8.053447">
        <ele>46.273</ele>
        <time>2019-06-20T14:05:01Z</time>
      </trkpt>
      <trkpt lat="43.667895" lon="-8.053507">
        <ele>46.389</ele>
        <time>2019-06-20T14:05:02Z</time>
      </trkpt>
      <trkpt lat="43.667789" lon="-8.053577">
        <ele>46.656</ele>
        <time>2019-06-20T14:05:03Z</time>
      </trkpt>
      <trkpt lat="43.667666" lon="-8.053624">
        <ele>46.447</ele>
        <time>2019-06-20T14:05:04Z</time>
      </trkpt>
      <trkpt lat="43.667535" lon="-8.053640">
        <ele>45.799</ele>
        <time>2019-06-20T14:05:05Z</time>
      </trkpt>
      <trkpt lat="43.667396" lon="-8.053628">
        <ele>44.556</ele>
        <time>2019-06-20T14:05:06Z</time>
      </trkpt>
      <trkpt lat="43.667252" lon="-8.053598">
        <ele>43.126</ele>
        <time>2019-06-20T14:05:07Z</time>
      </trkpt>
      <trkpt lat="43.667117" lon="-8.053569">
        <ele>42.147</ele>
        <time>2019-06-20T14:05:08Z</time>
      </trkpt>
      <trkpt lat="43.666991" lon="-8.053554">
        <ele>41.211</ele>
        <time>2019-06-20T14:05:09Z</time>
      </trkpt>
      <trkpt lat="43.666873" lon="-8.053534">
        <ele>40.308</ele>
        <time>2019-06-20T14:05:10Z</time>
      </trkpt>
      <trkpt lat="43.666761" lon="-8.053521">
        <ele>39.545</ele>
        <time>2019-06-20T14:05:11Z</time>
      </trkpt>
      <trkpt lat="43.666651" lon="-8.053531">
        <ele>39.189</ele>
        <time>2019-06-20T14:05:12Z</time>
      </trkpt>
      <trkpt lat="43.666554" lon="-8.053548">
        <ele>38.670</ele>
        <time>2019-06-20T14:05:13Z</time>
      </trkpt>
      <trkpt lat="43.666455" lon="-8.053590">
        <ele>38.416</ele>
        <time>2019-06-20T14:05:14Z</time>
      </trkpt>
      <trkpt lat="43.666357" lon="-8.053638">
        <ele>38.063</ele>
        <time>2019-06-20T14:05:15Z</time>
      </trkpt>
      <trkpt lat="43.666262" lon="-8.053690">
        <ele>37.284</ele>
        <time>2019-06-20T14:05:16Z</time>
      </trkpt>
      <trkpt lat="43.666160" lon="-8.053717">
        <ele>35.746</ele>
        <time>2019-06-20T14:05:17Z</time>
      </trkpt>
      <trkpt lat="43.666061" lon="-8.053725">
        <ele>34.233</ele>
        <time>2019-06-20T14:05:18Z</time>
      </trkpt>
      <trkpt lat="43.665953" lon="-8.053717">
        <ele>32.742</ele>
        <time>2019-06-20T14:05:19Z</time>
      </trkpt>
      <trkpt lat="43.665847" lon="-8.053702">
        <ele>31.222</ele>
        <time>2019-06-20T14:05:20Z</time>
      </trkpt>
      <trkpt lat="43.665734" lon="-8.053675">
        <ele>29.714</ele>
        <time>2019-06-20T14:05:21Z</time>
      </trkpt>
      <trkpt lat="43.665624" lon="-8.053666">
        <ele>28.508</ele>
        <time>2019-06-20T14:05:22Z</time>
      </trkpt>
      <trkpt lat="43.665510" lon="-8.053667">
        <ele>27.647</ele>
        <time>2019-06-20T14:05:23Z</time>
      </trkpt>
      <trkpt lat="43.665410" lon="-8.053706">
        <ele>27.791</ele>
        <time>2019-06-20T14:05:24Z</time>
      </trkpt>
      <trkpt lat="43.665310" lon="-8.053766">
        <ele>27.962</ele>
        <time>2019-06-20T14:05:25Z</time>
      </trkpt>
      <trkpt lat="43.665217" lon="-8.053843">
        <ele>27.718</ele>
        <time>2019-06-20T14:05:26Z</time>
      </trkpt>
      <trkpt lat="43.665120" lon="-8.053927">
        <ele>27.025</ele>
        <time>2019-06-20T14:05:27Z</time>
      </trkpt>
      <trkpt lat="43.665021" lon="-8.054008">
        <ele>26.236</ele>
        <time>2019-06-20T14:05:28Z</time>
      </trkpt>
      <trkpt lat="43.664915" lon="-8.054070">
        <ele>24.888</ele>
        <time>2019-06-20T14:05:29Z</time>
      </trkpt>
      <trkpt lat="43.664810" lon="-8.054111">
        <ele>23.225</ele>
        <time>2019-06-20T14:05:30Z</time>
      </trkpt>
      <trkpt lat="43.664697" lon="-8.054128">
        <ele>21.658</ele>
        <time>2019-06-20T14:05:31Z</time>
      </trkpt>
      <trkpt lat="43.664582" lon="-8.054116">
        <ele>20.952</ele>
        <time>2019-06-20T14:05:32Z</time>
      </trkpt>
      <trkpt lat="43.664476" lon="-8.054074">
        <ele>19.917</ele>
        <time>2019-06-20T14:05:33Z</time>
      </trkpt>
      <trkpt lat="43.664380" lon="-8.054017">
        <ele>19.108</ele>
        <time>2019-06-20T14:05:34Z</time>
      </trkpt>
      <trkpt lat="43.664270" lon="-8.053967">
        <ele>18.888</ele>
        <time>2019-06-20T14:05:35Z</time>
      </trkpt>
      <trkpt lat="43.664161" lon="-8.053927">
        <ele>18.542</ele>
        <time>2019-06-20T14:05:36Z</time>
      </trkpt>
      <trkpt lat="43.664053" lon="-8.053894">
        <ele>17.373</ele>
        <time>2019-06-20T14:05:37Z</time>
      </trkpt>
      <trkpt lat="43.663946" lon="-8.053874">
        <ele>16.299</ele>
        <time>2019-06-20T14:05:38Z</time>
      </trkpt>
      <trkpt lat="43.663837" lon="-8.053857">
        <ele>15.446</ele>
        <time>2019-06-20T14:05:39Z</time>
      </trkpt>
      <trkpt lat="43.663733" lon="-8.053836">
        <ele>14.857</ele>
        <time>2019-06-20T14:05:40Z</time>
      </trkpt>
      <trkpt lat="43.663625" lon="-8.053808">
        <ele>14.219</ele>
        <time>2019-06-20T14:05:41Z</time>
      </trkpt>
      <trkpt lat="43.663529" lon="-8.053794">
        <ele>12.976</ele>
        <time>2019-06-20T14:05:42Z</time>
      </trkpt>
      <trkpt lat="43.663435" lon="-8.053788">
        <ele>11.634</ele>
        <time>2019-06-20T14:05:43Z</time>
      </trkpt>
      <trkpt lat="43.663344" lon="-8.053784">
        <ele>10.455</ele>
        <time>2019-06-20T14:05:44Z</time>
      </trkpt>
      <trkpt lat="43.663259" lon="-8.053796">
        <ele>8.910</ele>
        <time>2019-06-20T14:05:45Z</time>
      </trkpt>
      <trkpt lat="43.663171" lon="-8.053825">
        <ele>7.308</ele>
        <time>2019-06-20T14:05:46Z</time>
      </trkpt>
      <trkpt lat="43.663082" lon="-8.053863">
        <ele>5.656</ele>
        <time>2019-06-20T14:05:47Z</time>
      </trkpt>
      <trkpt lat="43.662998" lon="-8.053912">
        <ele>4.730</ele>
        <time>2019-06-20T14:05:48Z</time>
      </trkpt>
      <trkpt lat="43.662914" lon="-8.053969">
        <ele>4.481</ele>
        <time>2019-06-20T14:05:49Z</time>
      </trkpt>
      <trkpt lat="43.662828" lon="-8.054042">
        <ele>4.487</ele>
        <time>2019-06-20T14:05:50Z</time>
      </trkpt>
      <trkpt lat="43.662762" lon="-8.054107">
        <ele>4.574</ele>
        <time>2019-06-20T14:05:51Z</time>
      </trkpt>
      <trkpt lat="43.662697" lon="-8.054169">
        <ele>4.565</ele>
        <time>2019-06-20T14:05:52Z</time>
      </trkpt>
      <trkpt lat="43.662637" lon="-8.054229">
        <ele>4.967</ele>
        <time>2019-06-20T14:05:53Z</time>
      </trkpt>
      <trkpt lat="43.662578" lon="-8.054301">
        <ele>5.594</ele>
        <time>2019-06-20T14:05:54Z</time>
      </trkpt>
      <trkpt lat="43.662513" lon="-8.054355">
        <ele>5.825</ele>
        <time>2019-06-20T14:05:55Z</time>
      </trkpt>
      <trkpt lat="43.662469" lon="-8.054430">
        <ele>6.526</ele>
        <time>2019-06-20T14:05:56Z</time>
      </trkpt>
      <trkpt lat="43.662434" lon="-8.054491">
        <ele>6.608</ele>
        <time>2019-06-20T14:05:57Z</time>
      </trkpt>
      <trkpt lat="43.662403" lon="-8.054536">
        <ele>6.508</ele>
        <time>2019-06-20T14:05:58Z</time>
      </trkpt>
      <trkpt lat="43.662368" lon="-8.054584">
        <ele>6.395</ele>
        <time>2019-06-20T14:05:59Z</time>
      </trkpt>
      <trkpt lat="43.662335" lon="-8.054628">
        <ele>6.119</ele>
        <time>2019-06-20T14:06:00Z</time>
      </trkpt>
      <trkpt lat="43.662289" lon="-8.054666">
        <ele>5.760</ele>
        <time>2019-06-20T14:06:01Z</time>
      </trkpt>
      <trkpt lat="43.662229" lon="-8.054725">
        <ele>5.116</ele>
        <time>2019-06-20T14:06:02Z</time>
      </trkpt>
      <trkpt lat="43.662173" lon="-8.054800">
        <ele>5.423</ele>
        <time>2019-06-20T14:06:03Z</time>
      </trkpt>
      <trkpt lat="43.662103" lon="-8.054870">
        <ele>5.794</ele>
        <time>2019-06-20T14:06:04Z</time>
      </trkpt>
      <trkpt lat="43.662028" lon="-8.054946">
        <ele>5.956</ele>
        <time>2019-06-20T14:06:05Z</time>
      </trkpt>
      <trkpt lat="43.661963" lon="-8.055023">
        <ele>6.223</ele>
        <time>2019-06-20T14:06:06Z</time>
      </trkpt>
      <trkpt lat="43.661896" lon="-8.055106">
        <ele>6.818</ele>
        <time>2019-06-20T14:06:07Z</time>
      </trkpt>
      <trkpt lat="43.661834" lon="-8.055175">
        <ele>7.298</ele>
        <time>2019-06-20T14:06:08Z</time>
      </trkpt>
      <trkpt lat="43.661771" lon="-8.055246">
        <ele>7.317</ele>
        <time>2019-06-20T14:06:09Z</time>
      </trkpt>
      <trkpt lat="43.661709" lon="-8.055313">
        <ele>7.408</ele>
        <time>2019-06-20T14:06:10Z</time>
      </trkpt>
      <trkpt lat="43.661663" lon="-8.055398">
        <ele>7.964</ele>
        <time>2019-06-20T14:06:11Z</time>
      </trkpt>
      <trkpt lat="43.661612" lon="-8.055445">
        <ele>8.118</ele>
        <time>2019-06-20T14:06:12Z</time>
      </trkpt>
      <trkpt lat="43.661559" lon="-8.055473">
        <ele>8.179</ele>
        <time>2019-06-20T14:06:13Z</time>
      </trkpt>
      <trkpt lat="43.661501" lon="-8.055472">
        <ele>8.055</ele>
        <time>2019-06-20T14:06:15Z</time>
      </trkpt>
      <trkpt lat="43.661453" lon="-8.055456">
        <ele>7.872</ele>
        <time>2019-06-20T14:06:17Z</time>
      </trkpt>
      <trkpt lat="43.661395" lon="-8.055370">
        <ele>7.383</ele>
        <time>2019-06-20T14:06:19Z</time>
      </trkpt>
      <trkpt lat="43.661376" lon="-8.055311">
        <ele>7.095</ele>
        <time>2019-06-20T14:06:20Z</time>
      </trkpt>
      <trkpt lat="43.661356" lon="-8.055242">
        <ele>6.722</ele>
        <time>2019-06-20T14:06:21Z</time>
      </trkpt>
      <trkpt lat="43.661330" lon="-8.055163">
        <ele>6.272</ele>
        <time>2019-06-20T14:06:22Z</time>
      </trkpt>
      <trkpt lat="43.661295" lon="-8.055085">
        <ele>5.913</ele>
        <time>2019-06-20T14:06:23Z</time>
      </trkpt>
      <trkpt lat="43.661256" lon="-8.054994">
        <ele>5.514</ele>
        <time>2019-06-20T14:06:24Z</time>
      </trkpt>
      <trkpt lat="43.661214" lon="-8.054904">
        <ele>5.808</ele>
        <time>2019-06-20T14:06:25Z</time>
      </trkpt>
      <trkpt lat="43.661175" lon="-8.054815">
        <ele>6.320</ele>
        <time>2019-06-20T14:06:26Z</time>
      </trkpt>
      <trkpt lat="43.661135" lon="-8.054738">
        <ele>6.824</ele>
        <time>2019-06-20T14:06:27Z</time>
      </trkpt>
      <trkpt lat="43.661099" lon="-8.054661">
        <ele>7.865</ele>
        <time>2019-06-20T14:06:28Z</time>
      </trkpt>
      <trkpt lat="43.661066" lon="-8.054590">
        <ele>8.941</ele>
        <time>2019-06-20T14:06:29Z</time>
      </trkpt>
      <trkpt lat="43.661028" lon="-8.054521">
        <ele>10.168</ele>
        <time>2019-06-20T14:06:30Z</time>
      </trkpt>
      <trkpt lat="43.660984" lon="-8.054405">
        <ele>11.649</ele>
        <time>2019-06-20T14:06:32Z</time>
      </trkpt>
      <trkpt lat="43.660950" lon="-8.054328">
        <ele>12.361</ele>
        <time>2019-06-20T14:06:35Z</time>
      </trkpt>
      <trkpt lat="43.660917" lon="-8.054239">
        <ele>13.188</ele>
        <time>2019-06-20T14:06:37Z</time>
      </trkpt>
      <trkpt lat="43.660861" lon="-8.054147">
        <ele>13.755</ele>
        <time>2019-06-20T14:06:39Z</time>
      </trkpt>
      <trkpt lat="43.660832" lon="-8.054098">
        <ele>13.507</ele>
        <time>2019-06-20T14:06:40Z</time>
      </trkpt>
      <trkpt lat="43.660776" lon="-8.054025">
        <ele>13.017</ele>
        <time>2019-06-20T14:06:42Z</time>
      </trkpt>
      <trkpt lat="43.660737" lon="-8.053940">
        <ele>12.608</ele>
        <time>2019-06-20T14:06:44Z</time>
      </trkpt>
      <trkpt lat="43.660681" lon="-8.053852">
        <ele>12.398</ele>
        <time>2019-06-20T14:06:46Z</time>
      </trkpt>
      <trkpt lat="43.660641" lon="-8.053799">
        <ele>12.162</ele>
        <time>2019-06-20T14:06:47Z</time>
      </trkpt>
      <trkpt lat="43.660589" lon="-8.053716">
        <ele>11.743</ele>
        <time>2019-06-20T14:06:48Z</time>
      </trkpt>
      <trkpt lat="43.660532" lon="-8.053652">
        <ele>11.419</ele>
        <time>2019-06-20T14:06:49Z</time>
      </trkpt>
      <trkpt lat="43.660486" lon="-8.053579">
        <ele>11.236</ele>
        <time>2019-06-20T14:06:50Z</time>
      </trkpt>
      <trkpt lat="43.660444" lon="-8.053520">
        <ele>11.217</ele>
        <time>2019-06-20T14:06:51Z</time>
      </trkpt>
      <trkpt lat="43.660408" lon="-8.053475">
        <ele>11.329</ele>
        <time>2019-06-20T14:06:52Z</time>
      </trkpt>
      <trkpt lat="43.660344" lon="-8.053411">
        <ele>11.616</ele>
        <time>2019-06-20T14:06:54Z</time>
      </trkpt>
      <trkpt lat="43.660293" lon="-8.053357">
        <ele>11.982</ele>
        <time>2019-06-20T14:06:55Z</time>
      </trkpt>
      <trkpt lat="43.660250" lon="-8.053305">
        <ele>11.843</ele>
        <time>2019-06-20T14:06:56Z</time>
      </trkpt>
      <trkpt lat="43.660213" lon="-8.053216">
        <ele>11.317</ele>
        <time>2019-06-20T14:06:57Z</time>
      </trkpt>
      <trkpt lat="43.660144" lon="-8.053106">
        <ele>10.808</ele>
        <time>2019-06-20T14:06:58Z</time>
      </trkpt>
      <trkpt lat="43.660070" lon="-8.053033">
        <ele>10.761</ele>
        <time>2019-06-20T14:06:59Z</time>
      </trkpt>
      <trkpt lat="43.660015" lon="-8.052954">
        <ele>10.695</ele>
        <time>2019-06-20T14:07:00Z</time>
      </trkpt>
      <trkpt lat="43.659966" lon="-8.052895">
        <ele>10.436</ele>
        <time>2019-06-20T14:07:01Z</time>
      </trkpt>
      <trkpt lat="43.659922" lon="-8.052864">
        <ele>10.222</ele>
        <time>2019-06-20T14:07:02Z</time>
      </trkpt>
      <trkpt lat="43.659885" lon="-8.052796">
        <ele>10.019</ele>
        <time>2019-06-20T14:07:04Z</time>
      </trkpt>
      <trkpt lat="43.659830" lon="-8.052736">
        <ele>9.960</ele>
        <time>2019-06-20T14:07:06Z</time>
      </trkpt>
      <trkpt lat="43.659768" lon="-8.052663">
        <ele>9.932</ele>
        <time>2019-06-20T14:07:08Z</time>
      </trkpt>
      <trkpt lat="43.659724" lon="-8.052627">
        <ele>10.039</ele>
        <time>2019-06-20T14:07:09Z</time>
      </trkpt>
      <trkpt lat="43.659685" lon="-8.052572">
        <ele>9.937</ele>
        <time>2019-06-20T14:07:10Z</time>
      </trkpt>
      <trkpt lat="43.659643" lon="-8.052511">
        <ele>9.749</ele>
        <time>2019-06-20T14:07:11Z</time>
      </trkpt>
      <trkpt lat="43.659593" lon="-8.052448">
        <ele>9.313</ele>
        <time>2019-06-20T14:07:12Z</time>
      </trkpt>
      <trkpt lat="43.659538" lon="-8.052407">
        <ele>9.008</ele>
        <time>2019-06-20T14:07:13Z</time>
      </trkpt>
      <trkpt lat="43.659491" lon="-8.052349">
        <ele>8.646</ele>
        <time>2019-06-20T14:07:14Z</time>
      </trkpt>
      <trkpt lat="43.659444" lon="-8.052285">
        <ele>8.280</ele>
        <time>2019-06-20T14:07:15Z</time>
      </trkpt>
      <trkpt lat="43.659391" lon="-8.052222">
        <ele>7.831</ele>
        <time>2019-06-20T14:07:16Z</time>
      </trkpt>
      <trkpt lat="43.659333" lon="-8.052166">
        <ele>7.647</ele>
        <time>2019-06-20T14:07:17Z</time>
      </trkpt>
      <trkpt lat="43.659287" lon="-8.052110">
        <ele>7.434</ele>
        <time>2019-06-20T14:07:18Z</time>
      </trkpt>
      <trkpt lat="43.659241" lon="-8.052049">
        <ele>7.355</ele>
        <time>2019-06-20T14:07:19Z</time>
      </trkpt>
      <trkpt lat="43.659180" lon="-8.051978">
        <ele>7.087</ele>
        <time>2019-06-20T14:07:20Z</time>
      </trkpt>
      <trkpt lat="43.659127" lon="-8.051897">
        <ele>7.124</ele>
        <time>2019-06-20T14:07:21Z</time>
      </trkpt>
      <trkpt lat="43.659070" lon="-8.051821">
        <ele>7.319</ele>
        <time>2019-06-20T14:07:22Z</time>
      </trkpt>
      <trkpt lat="43.659017" lon="-8.051740">
        <ele>7.509</ele>
        <time>2019-06-20T14:07:23Z</time>
      </trkpt>
      <trkpt lat="43.658968" lon="-8.051670">
        <ele>7.719</ele>
        <time>2019-06-20T14:07:24Z</time>
      </trkpt>
      <trkpt lat="43.658909" lon="-8.051599">
        <ele>7.708</ele>
        <time>2019-06-20T14:07:25Z</time>
      </trkpt>
      <trkpt lat="43.658830" lon="-8.051540">
        <ele>7.874</ele>
        <time>2019-06-20T14:07:26Z</time>
      </trkpt>
      <trkpt lat="43.658756" lon="-8.051463">
        <ele>7.778</ele>
        <time>2019-06-20T14:07:27Z</time>
      </trkpt>
      <trkpt lat="43.658683" lon="-8.051382">
        <ele>7.749</ele>
        <time>2019-06-20T14:07:28Z</time>
      </trkpt>
      <trkpt lat="43.658617" lon="-8.051289">
        <ele>7.645</ele>
        <time>2019-06-20T14:07:29Z</time>
      </trkpt>
      <trkpt lat="43.658564" lon="-8.051206">
        <ele>7.572</ele>
        <time>2019-06-20T14:07:30Z</time>
      </trkpt>
      <trkpt lat="43.658491" lon="-8.051129">
        <ele>7.563</ele>
        <time>2019-06-20T14:07:31Z</time>
      </trkpt>
      <trkpt lat="43.658428" lon="-8.051043">
        <ele>7.895</ele>
        <time>2019-06-20T14:07:32Z</time>
      </trkpt>
      <trkpt lat="43.658356" lon="-8.050960">
        <ele>8.412</ele>
        <time>2019-06-20T14:07:33Z</time>
      </trkpt>
      <trkpt lat="43.658283" lon="-8.050882">
        <ele>8.813</ele>
        <time>2019-06-20T14:07:34Z</time>
      </trkpt>
      <trkpt lat="43.658214" lon="-8.050797">
        <ele>9.143</ele>
        <time>2019-06-20T14:07:35Z</time>
      </trkpt>
      <trkpt lat="43.658146" lon="-8.050691">
        <ele>9.207</ele>
        <time>2019-06-20T14:07:36Z</time>
      </trkpt>
      <trkpt lat="43.658068" lon="-8.050610">
        <ele>9.008</ele>
        <time>2019-06-20T14:07:37Z</time>
      </trkpt>
      <trkpt lat="43.658005" lon="-8.050512">
        <ele>8.854</ele>
        <time>2019-06-20T14:07:38Z</time>
      </trkpt>
      <trkpt lat="43.657941" lon="-8.050421">
        <ele>8.678</ele>
        <time>2019-06-20T14:07:39Z</time>
      </trkpt>
      <trkpt lat="43.657865" lon="-8.050331">
        <ele>8.339</ele>
        <time>2019-06-20T14:07:40Z</time>
      </trkpt>
      <trkpt lat="43.657801" lon="-8.050236">
        <ele>8.195</ele>
        <time>2019-06-20T14:07:41Z</time>
      </trkpt>
      <trkpt lat="43.657711" lon="-8.050142">
        <ele>8.022</ele>
        <time>2019-06-20T14:07:42Z</time>
      </trkpt>
      <trkpt lat="43.657630" lon="-8.050027">
        <ele>8.063</ele>
        <time>2019-06-20T14:07:43Z</time>
      </trkpt>
      <trkpt lat="43.657529" lon="-8.049907">
        <ele>8.045</ele>
        <time>2019-06-20T14:07:44Z</time>
      </trkpt>
      <trkpt lat="43.657418" lon="-8.049778">
        <ele>8.292</ele>
        <time>2019-06-20T14:07:45Z</time>
      </trkpt>
      <trkpt lat="43.657299" lon="-8.049658">
        <ele>8.713</ele>
        <time>2019-06-20T14:07:46Z</time>
      </trkpt>
      <trkpt lat="43.657180" lon="-8.049519">
        <ele>9.043</ele>
        <time>2019-06-20T14:07:47Z</time>
      </trkpt>
      <trkpt lat="43.657062" lon="-8.049385">
        <ele>8.807</ele>
        <time>2019-06-20T14:07:48Z</time>
      </trkpt>
      <trkpt lat="43.656946" lon="-8.049255">
        <ele>8.308</ele>
        <time>2019-06-20T14:07:49Z</time>
      </trkpt>
      <trkpt lat="43.656808" lon="-8.049121">
        <ele>7.874</ele>
        <time>2019-06-20T14:07:50Z</time>
      </trkpt>
      <trkpt lat="43.656680" lon="-8.048965">
        <ele>7.378</ele>
        <time>2019-06-20T14:07:51Z</time>
      </trkpt>
      <trkpt lat="43.656540" lon="-8.048796">
        <ele>7.029</ele>
        <time>2019-06-20T14:07:52Z</time>
      </trkpt>
      <trkpt lat="43.656388" lon="-8.048632">
        <ele>7.025</ele>
        <time>2019-06-20T14:07:53Z</time>
      </trkpt>
      <trkpt lat="43.656237" lon="-8.048452">
        <ele>6.462</ele>
        <time>2019-06-20T14:07:54Z</time>
      </trkpt>
      <trkpt lat="43.656054" lon="-8.048305">
        <ele>6.263</ele>
        <time>2019-06-20T14:07:55Z</time>
      </trkpt>
      <trkpt lat="43.655908" lon="-8.048120">
        <ele>6.275</ele>
        <time>2019-06-20T14:07:56Z</time>
      </trkpt>
      <trkpt lat="43.655761" lon="-8.047932">
        <ele>5.772</ele>
        <time>2019-06-20T14:07:57Z</time>
      </trkpt>
      <trkpt lat="43.655607" lon="-8.047744">
        <ele>5.397</ele>
        <time>2019-06-20T14:07:58Z</time>
      </trkpt>
      <trkpt lat="43.655440" lon="-8.047567">
        <ele>5.423</ele>
        <time>2019-06-20T14:07:59Z</time>
      </trkpt>
      <trkpt lat="43.655279" lon="-8.047388">
        <ele>5.425</ele>
        <time>2019-06-20T14:08:00Z</time>
      </trkpt>
      <trkpt lat="43.655122" lon="-8.047185">
        <ele>6.008</ele>
        <time>2019-06-20T14:08:01Z</time>
      </trkpt>
      <trkpt lat="43.654955" lon="-8.046994">
        <ele>6.042</ele>
        <time>2019-06-20T14:08:02Z</time>
      </trkpt>
      <trkpt lat="43.654787" lon="-8.046782">
        <ele>6.076</ele>
        <time>2019-06-20T14:08:03Z</time>
      </trkpt>
      <trkpt lat="43.654610" lon="-8.046565">
        <ele>6.057</ele>
        <time>2019-06-20T14:08:04Z</time>
      </trkpt>
      <trkpt lat="43.654434" lon="-8.046337">
        <ele>5.883</ele>
        <time>2019-06-20T14:08:05Z</time>
      </trkpt>
      <trkpt lat="43.654253" lon="-8.046117">
        <ele>5.040</ele>
        <time>2019-06-20T14:08:06Z</time>
      </trkpt>
      <trkpt lat="43.654074" lon="-8.045906">
        <ele>4.781</ele>
        <time>2019-06-20T14:08:07Z</time>
      </trkpt>
      <trkpt lat="43.653904" lon="-8.045688">
        <ele>4.693</ele>
        <time>2019-06-20T14:08:08Z</time>
      </trkpt>
      <trkpt lat="43.653727" lon="-8.045469">
        <ele>5.480</ele>
        <time>2019-06-20T14:08:09Z</time>
      </trkpt>
      <trkpt lat="43.653554" lon="-8.045249">
        <ele>6.082</ele>
        <time>2019-06-20T14:08:10Z</time>
      </trkpt>
      <trkpt lat="43.653380" lon="-8.045047">
        <ele>6.143</ele>
        <time>2019-06-20T14:08:11Z</time>
      </trkpt>
      <trkpt lat="43.653209" lon="-8.044845">
        <ele>7.217</ele>
        <time>2019-06-20T14:08:12Z</time>
      </trkpt>
      <trkpt lat="43.653027" lon="-8.044648">
        <ele>8.708</ele>
        <time>2019-06-20T14:08:13Z</time>
      </trkpt>
      <trkpt lat="43.652833" lon="-8.044472">
        <ele>9.951</ele>
        <time>2019-06-20T14:08:14Z</time>
      </trkpt>
      <trkpt lat="43.652630" lon="-8.044305">
        <ele>11.035</ele>
        <time>2019-06-20T14:08:15Z</time>
      </trkpt>
      <trkpt lat="43.652433" lon="-8.044152">
        <ele>12.196</ele>
        <time>2019-06-20T14:08:16Z</time>
      </trkpt>
      <trkpt lat="43.652242" lon="-8.044010">
        <ele>13.292</ele>
        <time>2019-06-20T14:08:17Z</time>
      </trkpt>
      <trkpt lat="43.652071" lon="-8.043906">
        <ele>14.469</ele>
        <time>2019-06-20T14:08:18Z</time>
      </trkpt>
      <trkpt lat="43.651904" lon="-8.043788">
        <ele>15.930</ele>
        <time>2019-06-20T14:08:19Z</time>
      </trkpt>
      <trkpt lat="43.651744" lon="-8.043681">
        <ele>17.252</ele>
        <time>2019-06-20T14:08:20Z</time>
      </trkpt>
      <trkpt lat="43.651599" lon="-8.043602">
        <ele>18.329</ele>
        <time>2019-06-20T14:08:21Z</time>
      </trkpt>
      <trkpt lat="43.651463" lon="-8.043548">
        <ele>19.021</ele>
        <time>2019-06-20T14:08:22Z</time>
      </trkpt>
      <trkpt lat="43.651328" lon="-8.043496">
        <ele>19.841</ele>
        <time>2019-06-20T14:08:23Z</time>
      </trkpt>
      <trkpt lat="43.651210" lon="-8.043459">
        <ele>20.505</ele>
        <time>2019-06-20T14:08:24Z</time>
      </trkpt>
      <trkpt lat="43.651100" lon="-8.043443">
        <ele>21.108</ele>
        <time>2019-06-20T14:08:25Z</time>
      </trkpt>
      <trkpt lat="43.651030" lon="-8.043498">
        <ele>22.055</ele>
        <time>2019-06-20T14:08:26Z</time>
      </trkpt>
      <trkpt lat="43.651003" lon="-8.043845">
        <ele>21.319</ele>
        <time>2019-06-20T14:08:27Z</time>
      </trkpt>
      <trkpt lat="43.650957" lon="-8.044010">
        <ele>21.040</ele>
        <time>2019-06-20T14:08:28Z</time>
      </trkpt>
      <trkpt lat="43.650913" lon="-8.044189">
        <ele>20.736</ele>
        <time>2019-06-20T14:08:29Z</time>
      </trkpt>
      <trkpt lat="43.650854" lon="-8.044354">
        <ele>21.023</ele>
        <time>2019-06-20T14:08:30Z</time>
      </trkpt>
      <trkpt lat="43.650779" lon="-8.044517">
        <ele>22.034</ele>
        <time>2019-06-20T14:08:31Z</time>
      </trkpt>
      <trkpt lat="43.650691" lon="-8.044639">
        <ele>23.696</ele>
        <time>2019-06-20T14:08:32Z</time>
      </trkpt>
      <trkpt lat="43.650579" lon="-8.044794">
        <ele>25.363</ele>
        <time>2019-06-20T14:08:33Z</time>
      </trkpt>
      <trkpt lat="43.650426" lon="-8.044894">
        <ele>27.481</ele>
        <time>2019-06-20T14:08:34Z</time>
      </trkpt>
      <trkpt lat="43.650261" lon="-8.045022">
        <ele>30.061</ele>
        <time>2019-06-20T14:08:35Z</time>
      </trkpt>
      <trkpt lat="43.650081" lon="-8.045189">
        <ele>29.617</ele>
        <time>2019-06-20T14:08:36Z</time>
      </trkpt>
      <trkpt lat="43.649915" lon="-8.045278">
        <ele>29.308</ele>
        <time>2019-06-20T14:08:37Z</time>
      </trkpt>
      <trkpt lat="43.649724" lon="-8.045328">
        <ele>29.681</ele>
        <time>2019-06-20T14:08:38Z</time>
      </trkpt>
      <trkpt lat="43.649501" lon="-8.045344">
        <ele>31.755</ele>
        <time>2019-06-20T14:08:39Z</time>
      </trkpt>
      <trkpt lat="43.649318" lon="-8.045362">
        <ele>33.236</ele>
        <time>2019-06-20T14:08:40Z</time>
      </trkpt>
      <trkpt lat="43.649118" lon="-8.045354">
        <ele>34.922</ele>
        <time>2019-06-20T14:08:41Z</time>
      </trkpt>
      <trkpt lat="43.648922" lon="-8.045342">
        <ele>36.429</ele>
        <time>2019-06-20T14:08:42Z</time>
      </trkpt>
      <trkpt lat="43.648718" lon="-8.045313">
        <ele>37.320</ele>
        <time>2019-06-20T14:08:43Z</time>
      </trkpt>
      <trkpt lat="43.648515" lon="-8.045293">
        <ele>38.532</ele>
        <time>2019-06-20T14:08:44Z</time>
      </trkpt>
      <trkpt lat="43.648350" lon="-8.045289">
        <ele>39.889</ele>
        <time>2019-06-20T14:08:45Z</time>
      </trkpt>
      <trkpt lat="43.648181" lon="-8.045302">
        <ele>41.413</ele>
        <time>2019-06-20T14:08:46Z</time>
      </trkpt>
      <trkpt lat="43.648013" lon="-8.045331">
        <ele>43.243</ele>
        <time>2019-06-20T14:08:47Z</time>
      </trkpt>
      <trkpt lat="43.647859" lon="-8.045374">
        <ele>45.707</ele>
        <time>2019-06-20T14:08:48Z</time>
      </trkpt>
      <trkpt lat="43.647711" lon="-8.045430">
        <ele>48.608</ele>
        <time>2019-06-20T14:08:49Z</time>
      </trkpt>
      <trkpt lat="43.647628" lon="-8.045521">
        <ele>50.054</ele>
        <time>2019-06-20T14:08:50Z</time>
      </trkpt>
      <trkpt lat="43.647563" lon="-8.045681">
        <ele>50.398</ele>
        <time>2019-06-20T14:08:51Z</time>
      </trkpt>
      <trkpt lat="43.647522" lon="-8.046096">
        <ele>46.779</ele>
        <time>2019-06-20T14:08:52Z</time>
      </trkpt>
      <trkpt lat="43.647450" lon="-8.046358">
        <ele>47.485</ele>
        <time>2019-06-20T14:08:53Z</time>
      </trkpt>
      <trkpt lat="43.647390" lon="-8.046602">
        <ele>49.122</ele>
        <time>2019-06-20T14:08:54Z</time>
      </trkpt>
      <trkpt lat="43.647307" lon="-8.046865">
        <ele>51.873</ele>
        <time>2019-06-20T14:08:55Z</time>
      </trkpt>
      <trkpt lat="43.647227" lon="-8.047113">
        <ele>54.565</ele>
        <time>2019-06-20T14:08:56Z</time>
      </trkpt>
      <trkpt lat="43.647146" lon="-8.047363">
        <ele>55.652</ele>
        <time>2019-06-20T14:08:57Z</time>
      </trkpt>
      <trkpt lat="43.647056" lon="-8.047603">
        <ele>56.235</ele>
        <time>2019-06-20T14:08:58Z</time>
      </trkpt>
      <trkpt lat="43.646966" lon="-8.047850">
        <ele>56.086</ele>
        <time>2019-06-20T14:08:59Z</time>
      </trkpt>
      <trkpt lat="43.646890" lon="-8.048107">
        <ele>55.814</ele>
        <time>2019-06-20T14:09:00Z</time>
      </trkpt>
      <trkpt lat="43.646792" lon="-8.048325">
        <ele>56.908</ele>
        <time>2019-06-20T14:09:01Z</time>
      </trkpt>
      <trkpt lat="43.646696" lon="-8.048541">
        <ele>58.476</ele>
        <time>2019-06-20T14:09:02Z</time>
      </trkpt>
      <trkpt lat="43.646595" lon="-8.048732">
        <ele>59.270</ele>
        <time>2019-06-20T14:09:03Z</time>
      </trkpt>
      <trkpt lat="43.646493" lon="-8.048902">
        <ele>59.871</ele>
        <time>2019-06-20T14:09:04Z</time>
      </trkpt>
      <trkpt lat="43.646361" lon="-8.049064">
        <ele>60.687</ele>
        <time>2019-06-20T14:09:05Z</time>
      </trkpt>
      <trkpt lat="43.646142" lon="-8.049154">
        <ele>65.314</ele>
        <time>2019-06-20T14:09:06Z</time>
      </trkpt>
      <trkpt lat="43.645986" lon="-8.049260">
        <ele>66.345</ele>
        <time>2019-06-20T14:09:07Z</time>
      </trkpt>
      <trkpt lat="43.645816" lon="-8.049369">
        <ele>66.657</ele>
        <time>2019-06-20T14:09:08Z</time>
      </trkpt>
      <trkpt lat="43.645640" lon="-8.049496">
        <ele>68.094</ele>
        <time>2019-06-20T14:09:09Z</time>
      </trkpt>
      <trkpt lat="43.645488" lon="-8.049683">
        <ele>69.278</ele>
        <time>2019-06-20T14:09:10Z</time>
      </trkpt>
      <trkpt lat="43.645319" lon="-8.049847">
        <ele>70.433</ele>
        <time>2019-06-20T14:09:11Z</time>
      </trkpt>
      <trkpt lat="43.645160" lon="-8.050045">
        <ele>72.126</ele>
        <time>2019-06-20T14:09:12Z</time>
      </trkpt>
      <trkpt lat="43.645007" lon="-8.050236">
        <ele>74.108</ele>
        <time>2019-06-20T14:09:13Z</time>
      </trkpt>
      <trkpt lat="43.644891" lon="-8.050449">
        <ele>74.280</ele>
        <time>2019-06-20T14:09:14Z</time>
      </trkpt>
      <trkpt lat="43.644794" lon="-8.050623">
        <ele>75.154</ele>
        <time>2019-06-20T14:09:15Z</time>
      </trkpt>
      <trkpt lat="43.644692" lon="-8.050809">
        <ele>78.275</ele>
        <time>2019-06-20T14:09:16Z</time>
      </trkpt>
      <trkpt lat="43.644609" lon="-8.050986">
        <ele>78.941</ele>
        <time>2019-06-20T14:09:17Z</time>
      </trkpt>
      <trkpt lat="43.644514" lon="-8.051141">
        <ele>79.928</ele>
        <time>2019-06-20T14:09:18Z</time>
      </trkpt>
      <trkpt lat="43.644434" lon="-8.051262">
        <ele>80.449</ele>
        <time>2019-06-20T14:09:19Z</time>
      </trkpt>
      <trkpt lat="43.644353" lon="-8.051401">
        <ele>79.761</ele>
        <time>2019-06-20T14:09:20Z</time>
      </trkpt>
      <trkpt lat="43.644262" lon="-8.051541">
        <ele>79.588</ele>
        <time>2019-06-20T14:09:21Z</time>
      </trkpt>
      <trkpt lat="43.644157" lon="-8.051586">
        <ele>79.044</ele>
        <time>2019-06-20T14:09:22Z</time>
      </trkpt>
      <trkpt lat="43.644036" lon="-8.051660">
        <ele>78.505</ele>
        <time>2019-06-20T14:09:23Z</time>
      </trkpt>
      <trkpt lat="43.643932" lon="-8.051705">
        <ele>78.615</ele>
        <time>2019-06-20T14:09:24Z</time>
      </trkpt>
      <trkpt lat="43.643834" lon="-8.051682">
        <ele>77.608</ele>
        <time>2019-06-20T14:09:25Z</time>
      </trkpt>
      <trkpt lat="43.643730" lon="-8.051492">
        <ele>75.967</ele>
        <time>2019-06-20T14:09:26Z</time>
      </trkpt>
      <trkpt lat="43.643625" lon="-8.051338">
        <ele>74.461</ele>
        <time>2019-06-20T14:09:27Z</time>
      </trkpt>
      <trkpt lat="43.643554" lon="-8.051173">
        <ele>73.332</ele>
        <time>2019-06-20T14:09:28Z</time>
      </trkpt>
      <trkpt lat="43.643481" lon="-8.050999">
        <ele>72.138</ele>
        <time>2019-06-20T14:09:29Z</time>
      </trkpt>
      <trkpt lat="43.643384" lon="-8.050783">
        <ele>70.655</ele>
        <time>2019-06-20T14:09:30Z</time>
      </trkpt>
      <trkpt lat="43.643300" lon="-8.050591">
        <ele>69.946</ele>
        <time>2019-06-20T14:09:31Z</time>
      </trkpt>
      <trkpt lat="43.643224" lon="-8.050394">
        <ele>69.688</ele>
        <time>2019-06-20T14:09:32Z</time>
      </trkpt>
      <trkpt lat="43.643147" lon="-8.050192">
        <ele>69.485</ele>
        <time>2019-06-20T14:09:33Z</time>
      </trkpt>
      <trkpt lat="43.643068" lon="-8.050004">
        <ele>68.341</ele>
        <time>2019-06-20T14:09:34Z</time>
      </trkpt>
      <trkpt lat="43.642994" lon="-8.049815">
        <ele>67.081</ele>
        <time>2019-06-20T14:09:35Z</time>
      </trkpt>
      <trkpt lat="43.642932" lon="-8.049633">
        <ele>65.809</ele>
        <time>2019-06-20T14:09:36Z</time>
      </trkpt>
      <trkpt lat="43.642866" lon="-8.049433">
        <ele>64.608</ele>
        <time>2019-06-20T14:09:37Z</time>
      </trkpt>
      <trkpt lat="43.642819" lon="-8.049229">
        <ele>63.837</ele>
        <time>2019-06-20T14:09:38Z</time>
      </trkpt>
      <trkpt lat="43.642790" lon="-8.049017">
        <ele>63.381</ele>
        <time>2019-06-20T14:09:39Z</time>
      </trkpt>
      <trkpt lat="43.642766" lon="-8.048803">
        <ele>62.692</ele>
        <time>2019-06-20T14:09:40Z</time>
      </trkpt>
      <trkpt lat="43.642762" lon="-8.048584">
        <ele>62.368</ele>
        <time>2019-06-20T14:09:41Z</time>
      </trkpt>
      <trkpt lat="43.642757" lon="-8.048368">
        <ele>61.495</ele>
        <time>2019-06-20T14:09:42Z</time>
      </trkpt>
      <trkpt lat="43.642812" lon="-8.048166">
        <ele>62.586</ele>
        <time>2019-06-20T14:09:43Z</time>
      </trkpt>
      <trkpt lat="43.642836" lon="-8.047952">
        <ele>63.158</ele>
        <time>2019-06-20T14:09:44Z</time>
      </trkpt>
      <trkpt lat="43.642861" lon="-8.047760">
        <ele>63.845</ele>
        <time>2019-06-20T14:09:45Z</time>
      </trkpt>
      <trkpt lat="43.642881" lon="-8.047566">
        <ele>62.742</ele>
        <time>2019-06-20T14:09:46Z</time>
      </trkpt>
      <trkpt lat="43.642892" lon="-8.047386">
        <ele>61.022</ele>
        <time>2019-06-20T14:09:47Z</time>
      </trkpt>
      <trkpt lat="43.642873" lon="-8.047203">
        <ele>57.914</ele>
        <time>2019-06-20T14:09:48Z</time>
      </trkpt>
      <trkpt lat="43.642826" lon="-8.047022">
        <ele>54.908</ele>
        <time>2019-06-20T14:09:49Z</time>
      </trkpt>
      <trkpt lat="43.642757" lon="-8.046841">
        <ele>52.027</ele>
        <time>2019-06-20T14:09:50Z</time>
      </trkpt>
      <trkpt lat="43.642679" lon="-8.046654">
        <ele>49.631</ele>
        <time>2019-06-20T14:09:51Z</time>
      </trkpt>
      <trkpt lat="43.642620" lon="-8.046451">
        <ele>49.662</ele>
        <time>2019-06-20T14:09:52Z</time>
      </trkpt>
      <trkpt lat="43.642567" lon="-8.046242">
        <ele>49.518</ele>
        <time>2019-06-20T14:09:53Z</time>
      </trkpt>
      <trkpt lat="43.642529" lon="-8.046014">
        <ele>49.095</ele>
        <time>2019-06-20T14:09:54Z</time>
      </trkpt>
      <trkpt lat="43.642494" lon="-8.045784">
        <ele>47.876</ele>
        <time>2019-06-20T14:09:55Z</time>
      </trkpt>
      <trkpt lat="43.642446" lon="-8.045553">
        <ele>46.398</ele>
        <time>2019-06-20T14:09:56Z</time>
      </trkpt>
      <trkpt lat="43.642376" lon="-8.045336">
        <ele>43.795</ele>
        <time>2019-06-20T14:09:57Z</time>
      </trkpt>
      <trkpt lat="43.642302" lon="-8.045115">
        <ele>41.652</ele>
        <time>2019-06-20T14:09:58Z</time>
      </trkpt>
      <trkpt lat="43.642199" lon="-8.044932">
        <ele>39.053</ele>
        <time>2019-06-20T14:09:59Z</time>
      </trkpt>
      <trkpt lat="43.642101" lon="-8.044738">
        <ele>38.308</ele>
        <time>2019-06-20T14:10:00Z</time>
      </trkpt>
      <trkpt lat="43.641984" lon="-8.044572">
        <ele>37.908</ele>
        <time>2019-06-20T14:10:01Z</time>
      </trkpt>
      <trkpt lat="43.641847" lon="-8.044438">
        <ele>37.688</ele>
        <time>2019-06-20T14:10:02Z</time>
      </trkpt>
      <trkpt lat="43.641709" lon="-8.044303">
        <ele>36.132</ele>
        <time>2019-06-20T14:10:03Z</time>
      </trkpt>
      <trkpt lat="43.641561" lon="-8.044190">
        <ele>34.493</ele>
        <time>2019-06-20T14:10:04Z</time>
      </trkpt>
      <trkpt lat="43.641406" lon="-8.044076">
        <ele>32.639</ele>
        <time>2019-06-20T14:10:05Z</time>
      </trkpt>
      <trkpt lat="43.641237" lon="-8.043998">
        <ele>32.446</ele>
        <time>2019-06-20T14:10:06Z</time>
      </trkpt>
      <trkpt lat="43.641060" lon="-8.043934">
        <ele>32.857</ele>
        <time>2019-06-20T14:10:07Z</time>
      </trkpt>
      <trkpt lat="43.640872" lon="-8.043883">
        <ele>33.949</ele>
        <time>2019-06-20T14:10:08Z</time>
      </trkpt>
      <trkpt lat="43.640690" lon="-8.043858">
        <ele>32.366</ele>
        <time>2019-06-20T14:10:09Z</time>
      </trkpt>
      <trkpt lat="43.640500" lon="-8.043883">
        <ele>29.951</ele>
        <time>2019-06-20T14:10:10Z</time>
      </trkpt>
      <trkpt lat="43.640313" lon="-8.043900">
        <ele>29.001</ele>
        <time>2019-06-20T14:10:11Z</time>
      </trkpt>
      <trkpt lat="43.640134" lon="-8.043986">
        <ele>27.411</ele>
        <time>2019-06-20T14:10:12Z</time>
      </trkpt>
      <trkpt lat="43.639965" lon="-8.044052">
        <ele>26.408</ele>
        <time>2019-06-20T14:10:13Z</time>
      </trkpt>
      <trkpt lat="43.639802" lon="-8.044177">
        <ele>25.968</ele>
        <time>2019-06-20T14:10:14Z</time>
      </trkpt>
      <trkpt lat="43.639643" lon="-8.044279">
        <ele>25.372</ele>
        <time>2019-06-20T14:10:15Z</time>
      </trkpt>
      <trkpt lat="43.639495" lon="-8.044441">
        <ele>24.843</ele>
        <time>2019-06-20T14:10:16Z</time>
      </trkpt>
      <trkpt lat="43.639350" lon="-8.044622">
        <ele>24.939</ele>
        <time>2019-06-20T14:10:17Z</time>
      </trkpt>
      <trkpt lat="43.639213" lon="-8.044813">
        <ele>25.086</ele>
        <time>2019-06-20T14:10:18Z</time>
      </trkpt>
      <trkpt lat="43.639080" lon="-8.045005">
        <ele>26.287</ele>
        <time>2019-06-20T14:10:19Z</time>
      </trkpt>
      <trkpt lat="43.638968" lon="-8.045229">
        <ele>30.349</ele>
        <time>2019-06-20T14:10:20Z</time>
      </trkpt>
      <trkpt lat="43.638873" lon="-8.045466">
        <ele>33.646</ele>
        <time>2019-06-20T14:10:21Z</time>
      </trkpt>
      <trkpt lat="43.638766" lon="-8.045702">
        <ele>39.177</ele>
        <time>2019-06-20T14:10:22Z</time>
      </trkpt>
      <trkpt lat="43.638714" lon="-8.045954">
        <ele>41.461</ele>
        <time>2019-06-20T14:10:23Z</time>
      </trkpt>
      <trkpt lat="43.638666" lon="-8.046218">
        <ele>42.627</ele>
        <time>2019-06-20T14:10:24Z</time>
      </trkpt>
      <trkpt lat="43.638629" lon="-8.046455">
        <ele>42.008</ele>
        <time>2019-06-20T14:10:25Z</time>
      </trkpt>
      <trkpt lat="43.638616" lon="-8.046708">
        <ele>38.940</ele>
        <time>2019-06-20T14:10:26Z</time>
      </trkpt>
      <trkpt lat="43.638573" lon="-8.046923">
        <ele>36.094</ele>
        <time>2019-06-20T14:10:27Z</time>
      </trkpt>
      <trkpt lat="43.638577" lon="-8.047161">
        <ele>32.865</ele>
        <time>2019-06-20T14:10:28Z</time>
      </trkpt>
      <trkpt lat="43.638496" lon="-8.047402">
        <ele>33.411</ele>
        <time>2019-06-20T14:10:29Z</time>
      </trkpt>
      <trkpt lat="43.638505" lon="-8.047646">
        <ele>31.748</ele>
        <time>2019-06-20T14:10:30Z</time>
      </trkpt>
      <trkpt lat="43.638558" lon="-8.047906">
        <ele>28.329</ele>
        <time>2019-06-20T14:10:31Z</time>
      </trkpt>
      <trkpt lat="43.638549" lon="-8.048164">
        <ele>26.531</ele>
        <time>2019-06-20T14:10:32Z</time>
      </trkpt>
      <trkpt lat="43.638555" lon="-8.048406">
        <ele>24.888</ele>
        <time>2019-06-20T14:10:33Z</time>
      </trkpt>
      <trkpt lat="43.638517" lon="-8.048645">
        <ele>25.291</ele>
        <time>2019-06-20T14:10:34Z</time>
      </trkpt>
      <trkpt lat="43.638482" lon="-8.048866">
        <ele>25.281</ele>
        <time>2019-06-20T14:10:35Z</time>
      </trkpt>
      <trkpt lat="43.638425" lon="-8.049075">
        <ele>26.319</ele>
        <time>2019-06-20T14:10:36Z</time>
      </trkpt>
      <trkpt lat="43.638364" lon="-8.049278">
        <ele>27.108</ele>
        <time>2019-06-20T14:10:37Z</time>
      </trkpt>
      <trkpt lat="43.638313" lon="-8.049494">
        <ele>27.862</ele>
        <time>2019-06-20T14:10:38Z</time>
      </trkpt>
      <trkpt lat="43.638283" lon="-8.049728">
        <ele>28.586</ele>
        <time>2019-06-20T14:10:39Z</time>
      </trkpt>
      <trkpt lat="43.638284" lon="-8.049931">
        <ele>27.727</ele>
        <time>2019-06-20T14:10:40Z</time>
      </trkpt>
      <trkpt lat="43.638287" lon="-8.050140">
        <ele>27.333</ele>
        <time>2019-06-20T14:10:41Z</time>
      </trkpt>
      <trkpt lat="43.638274" lon="-8.050347">
        <ele>27.550</ele>
        <time>2019-06-20T14:10:42Z</time>
      </trkpt>
      <trkpt lat="43.638266" lon="-8.050564">
        <ele>27.191</ele>
        <time>2019-06-20T14:10:43Z</time>
      </trkpt>
      <trkpt lat="43.638229" lon="-8.050780">
        <ele>25.523</ele>
        <time>2019-06-20T14:10:44Z</time>
      </trkpt>
      <trkpt lat="43.638197" lon="-8.051000">
        <ele>23.330</ele>
        <time>2019-06-20T14:10:45Z</time>
      </trkpt>
      <trkpt lat="43.638129" lon="-8.051179">
        <ele>22.189</ele>
        <time>2019-06-20T14:10:46Z</time>
      </trkpt>
      <trkpt lat="43.638008" lon="-8.051389">
        <ele>21.206</ele>
        <time>2019-06-20T14:10:47Z</time>
      </trkpt>
      <trkpt lat="43.637876" lon="-8.051520">
        <ele>22.326</ele>
        <time>2019-06-20T14:10:48Z</time>
      </trkpt>
      <trkpt lat="43.637727" lon="-8.051620">
        <ele>24.408</ele>
        <time>2019-06-20T14:10:49Z</time>
      </trkpt>
      <trkpt lat="43.637586" lon="-8.051783">
        <ele>24.131</ele>
        <time>2019-06-20T14:10:50Z</time>
      </trkpt>
      <trkpt lat="43.637414" lon="-8.051838">
        <ele>25.145</ele>
        <time>2019-06-20T14:10:51Z</time>
      </trkpt>
      <trkpt lat="43.637268" lon="-8.051913">
        <ele>24.566</ele>
        <time>2019-06-20T14:10:52Z</time>
      </trkpt>
      <trkpt lat="43.637128" lon="-8.051971">
        <ele>24.832</ele>
        <time>2019-06-20T14:10:53Z</time>
      </trkpt>
      <trkpt lat="43.637014" lon="-8.051944">
        <ele>27.059</ele>
        <time>2019-06-20T14:10:54Z</time>
      </trkpt>
      <trkpt lat="43.636892" lon="-8.051934">
        <ele>28.170</ele>
        <time>2019-06-20T14:10:55Z</time>
      </trkpt>
      <trkpt lat="43.636791" lon="-8.051888">
        <ele>28.532</ele>
        <time>2019-06-20T14:10:56Z</time>
      </trkpt>
      <trkpt lat="43.636720" lon="-8.051799">
        <ele>28.869</ele>
        <time>2019-06-20T14:10:57Z</time>
      </trkpt>
      <trkpt lat="43.636639" lon="-8.051703">
        <ele>28.351</ele>
        <time>2019-06-20T14:10:58Z</time>
      </trkpt>
      <trkpt lat="43.636558" lon="-8.051597">
        <ele>26.201</ele>
        <time>2019-06-20T14:10:59Z</time>
      </trkpt>
      <trkpt lat="43.636483" lon="-8.051471">
        <ele>23.611</ele>
        <time>2019-06-20T14:11:00Z</time>
      </trkpt>
      <trkpt lat="43.636568" lon="-8.051206">
        <ele>23.308</ele>
        <time>2019-06-20T14:11:01Z</time>
      </trkpt>
      <trkpt lat="43.636597" lon="-8.051022">
        <ele>22.338</ele>
        <time>2019-06-20T14:11:02Z</time>
      </trkpt>
      <trkpt lat="43.636612" lon="-8.050839">
        <ele>20.712</ele>
        <time>2019-06-20T14:11:03Z</time>
      </trkpt>
      <trkpt lat="43.636629" lon="-8.050612">
        <ele>20.553</ele>
        <time>2019-06-20T14:11:04Z</time>
      </trkpt>
      <trkpt lat="43.636644" lon="-8.050372">
        <ele>20.419</ele>
        <time>2019-06-20T14:11:05Z</time>
      </trkpt>
      <trkpt lat="43.636612" lon="-8.050104">
        <ele>20.426</ele>
        <time>2019-06-20T14:11:06Z</time>
      </trkpt>
      <trkpt lat="43.636593" lon="-8.049838">
        <ele>23.847</ele>
        <time>2019-06-20T14:11:07Z</time>
      </trkpt>
      <trkpt lat="43.636549" lon="-8.049581">
        <ele>28.659</ele>
        <time>2019-06-20T14:11:08Z</time>
      </trkpt>
      <trkpt lat="43.636480" lon="-8.049347">
        <ele>33.666</ele>
        <time>2019-06-20T14:11:09Z</time>
      </trkpt>
      <trkpt lat="43.636394" lon="-8.049125">
        <ele>37.534</ele>
        <time>2019-06-20T14:11:10Z</time>
      </trkpt>
      <trkpt lat="43.636327" lon="-8.048901">
        <ele>41.355</ele>
        <time>2019-06-20T14:11:11Z</time>
      </trkpt>
      <trkpt lat="43.636262" lon="-8.048667">
        <ele>42.210</ele>
        <time>2019-06-20T14:11:12Z</time>
      </trkpt>
      <trkpt lat="43.636202" lon="-8.048449">
        <ele>44.408</ele>
        <time>2019-06-20T14:11:13Z</time>
      </trkpt>
      <trkpt lat="43.636108" lon="-8.048268">
        <ele>46.226</ele>
        <time>2019-06-20T14:11:14Z</time>
      </trkpt>
      <trkpt lat="43.635998" lon="-8.048108">
        <ele>46.660</ele>
        <time>2019-06-20T14:11:15Z</time>
      </trkpt>
      <trkpt lat="43.635796" lon="-8.048114">
        <ele>37.551</ele>
        <time>2019-06-20T14:11:16Z</time>
      </trkpt>
      <trkpt lat="43.635658" lon="-8.048034">
        <ele>36.997</ele>
        <time>2019-06-20T14:11:17Z</time>
      </trkpt>
      <trkpt lat="43.635517" lon="-8.047950">
        <ele>36.114</ele>
        <time>2019-06-20T14:11:18Z</time>
      </trkpt>
      <trkpt lat="43.635379" lon="-8.047917">
        <ele>32.115</ele>
        <time>2019-06-20T14:11:19Z</time>
      </trkpt>
      <trkpt lat="43.635234" lon="-8.047911">
        <ele>26.427</ele>
        <time>2019-06-20T14:11:20Z</time>
      </trkpt>
      <trkpt lat="43.635095" lon="-8.048063">
        <ele>16.414</ele>
        <time>2019-06-20T14:11:21Z</time>
      </trkpt>
      <trkpt lat="43.634966" lon="-8.048164">
        <ele>9.977</ele>
        <time>2019-06-20T14:11:22Z</time>
      </trkpt>
      <trkpt lat="43.634819" lon="-8.048361">
        <ele>3.561</ele>
        <time>2019-06-20T14:11:23Z</time>
      </trkpt>
      <trkpt lat="43.634675" lon="-8.048511">
        <ele>-0.327</ele>
        <time>2019-06-20T14:11:24Z</time>
      </trkpt>
      <trkpt lat="43.634529" lon="-8.048649">
        <ele>-1.008</ele>
        <time>2019-06-20T14:11:25Z</time>
      </trkpt>
      <trkpt lat="43.634383" lon="-8.048758">
        <ele>-0.220</ele>
        <time>2019-06-20T14:11:26Z</time>
      </trkpt>
      <trkpt lat="43.634223" lon="-8.048897">
        <ele>2.274</ele>
        <time>2019-06-20T14:11:27Z</time>
      </trkpt>
      <trkpt lat="43.634064" lon="-8.049041">
        <ele>5.765</ele>
        <time>2019-06-20T14:11:28Z</time>
      </trkpt>
      <trkpt lat="43.633895" lon="-8.049173">
        <ele>8.971</ele>
        <time>2019-06-20T14:11:29Z</time>
      </trkpt>
      <trkpt lat="43.633742" lon="-8.049300">
        <ele>9.428</ele>
        <time>2019-06-20T14:11:30Z</time>
      </trkpt>
      <trkpt lat="43.633588" lon="-8.049456">
        <ele>9.269</ele>
        <time>2019-06-20T14:11:31Z</time>
      </trkpt>
      <trkpt lat="43.633429" lon="-8.049608">
        <ele>9.411</ele>
        <time>2019-06-20T14:11:32Z</time>
      </trkpt>
      <trkpt lat="43.633259" lon="-8.049730">
        <ele>10.278</ele>
        <time>2019-06-20T14:11:33Z</time>
      </trkpt>
      <trkpt lat="43.633098" lon="-8.049880">
        <ele>12.478</ele>
        <time>2019-06-20T14:11:34Z</time>
      </trkpt>
      <trkpt lat="43.632954" lon="-8.050043">
        <ele>17.233</ele>
        <time>2019-06-20T14:11:35Z</time>
      </trkpt>
      <trkpt lat="43.632820" lon="-8.050205">
        <ele>23.626</ele>
        <time>2019-06-20T14:11:36Z</time>
      </trkpt>
      <trkpt lat="43.632709" lon="-8.050384">
        <ele>28.608</ele>
        <time>2019-06-20T14:11:37Z</time>
      </trkpt>
      <trkpt lat="43.632585" lon="-8.050597">
        <ele>32.090</ele>
        <time>2019-06-20T14:11:38Z</time>
      </trkpt>
      <trkpt lat="43.632469" lon="-8.050820">
        <ele>33.944</ele>
        <time>2019-06-20T14:11:39Z</time>
      </trkpt>
      <trkpt lat="43.632379" lon="-8.051041">
        <ele>35.245</ele>
        <time>2019-06-20T14:11:40Z</time>
      </trkpt>
      <trkpt lat="43.632382" lon="-8.051276">
        <ele>31.941</ele>
        <time>2019-06-20T14:11:41Z</time>
      </trkpt>
      <trkpt lat="43.632396" lon="-8.051473">
        <ele>28.428</ele>
        <time>2019-06-20T14:11:42Z</time>
      </trkpt>
      <trkpt lat="43.632357" lon="-8.051673">
        <ele>26.699</ele>
        <time>2019-06-20T14:11:43Z</time>
      </trkpt>
      <trkpt lat="43.632313" lon="-8.051870">
        <ele>25.071</ele>
        <time>2019-06-20T14:11:44Z</time>
      </trkpt>
      <trkpt lat="43.632278" lon="-8.052064">
        <ele>24.548</ele>
        <time>2019-06-20T14:11:45Z</time>
      </trkpt>
      <trkpt lat="43.632234" lon="-8.052243">
        <ele>25.644</ele>
        <time>2019-06-20T14:11:46Z</time>
      </trkpt>
      <trkpt lat="43.632208" lon="-8.052399">
        <ele>27.005</ele>
        <time>2019-06-20T14:11:47Z</time>
      </trkpt>
      <trkpt lat="43.632142" lon="-8.052528">
        <ele>28.615</ele>
        <time>2019-06-20T14:11:48Z</time>
      </trkpt>
      <trkpt lat="43.632113" lon="-8.052673">
        <ele>28.408</ele>
        <time>2019-06-20T14:11:49Z</time>
      </trkpt>
      <trkpt lat="43.631979" lon="-8.052803">
        <ele>31.087</ele>
        <time>2019-06-20T14:11:50Z</time>
      </trkpt>
      <trkpt lat="43.631912" lon="-8.052923">
        <ele>32.451</ele>
        <time>2019-06-20T14:11:51Z</time>
      </trkpt>
      <trkpt lat="43.631853" lon="-8.053120">
        <ele>34.672</ele>
        <time>2019-06-20T14:11:52Z</time>
      </trkpt>
      <trkpt lat="43.631818" lon="-8.053328">
        <ele>37.618</ele>
        <time>2019-06-20T14:11:53Z</time>
      </trkpt>
      <trkpt lat="43.631777" lon="-8.053561">
        <ele>40.675</ele>
        <time>2019-06-20T14:11:54Z</time>
      </trkpt>
      <trkpt lat="43.631810" lon="-8.053721">
        <ele>39.256</ele>
        <time>2019-06-20T14:11:55Z</time>
      </trkpt>
      <trkpt lat="43.631780" lon="-8.053926">
        <ele>39.158</ele>
        <time>2019-06-20T14:11:56Z</time>
      </trkpt>
      <trkpt lat="43.631827" lon="-8.054166">
        <ele>34.775</ele>
        <time>2019-06-20T14:11:57Z</time>
      </trkpt>
      <trkpt lat="43.631757" lon="-8.054346">
        <ele>34.635</ele>
        <time>2019-06-20T14:11:58Z</time>
      </trkpt>
      <trkpt lat="43.631751" lon="-8.054520">
        <ele>32.186</ele>
        <time>2019-06-20T14:11:59Z</time>
      </trkpt>
      <trkpt lat="43.631737" lon="-8.054698">
        <ele>29.814</ele>
        <time>2019-06-20T14:12:00Z</time>
      </trkpt>
      <trkpt lat="43.631668" lon="-8.054929">
        <ele>30.508</ele>
        <time>2019-06-20T14:12:01Z</time>
      </trkpt>
      <trkpt lat="43.631610" lon="-8.055158">
        <ele>31.266</ele>
        <time>2019-06-20T14:12:02Z</time>
      </trkpt>
      <trkpt lat="43.631604" lon="-8.055388">
        <ele>30.540</ele>
        <time>2019-06-20T14:12:03Z</time>
      </trkpt>
      <trkpt lat="43.631602" lon="-8.055621">
        <ele>29.611</ele>
        <time>2019-06-20T14:12:04Z</time>
      </trkpt>
      <trkpt lat="43.631664" lon="-8.055864">
        <ele>26.227</ele>
        <time>2019-06-20T14:12:05Z</time>
      </trkpt>
      <trkpt lat="43.631690" lon="-8.056113">
        <ele>25.974</ele>
        <time>2019-06-20T14:12:06Z</time>
      </trkpt>
      <trkpt lat="43.631726" lon="-8.056364">
        <ele>27.125</ele>
        <time>2019-06-20T14:12:07Z</time>
      </trkpt>
      <trkpt lat="43.631774" lon="-8.056621">
        <ele>28.037</ele>
        <time>2019-06-20T14:12:08Z</time>
      </trkpt>
      <trkpt lat="43.631807" lon="-8.056898">
        <ele>29.774</ele>
        <time>2019-06-20T14:12:09Z</time>
      </trkpt>
      <trkpt lat="43.631855" lon="-8.057190">
        <ele>31.883</ele>
        <time>2019-06-20T14:12:10Z</time>
      </trkpt>
      <trkpt lat="43.631912" lon="-8.057471">
        <ele>34.225</ele>
        <time>2019-06-20T14:12:11Z</time>
      </trkpt>
      <trkpt lat="43.631974" lon="-8.057721">
        <ele>35.717</ele>
        <time>2019-06-20T14:12:12Z</time>
      </trkpt>
      <trkpt lat="43.632022" lon="-8.057979">
        <ele>37.508</ele>
        <time>2019-06-20T14:12:13Z</time>
      </trkpt>
      <trkpt lat="43.632131" lon="-8.058210">
        <ele>35.371</ele>
        <time>2019-06-20T14:12:14Z</time>
      </trkpt>
      <trkpt lat="43.632207" lon="-8.058455">
        <ele>34.425</ele>
        <time>2019-06-20T14:12:15Z</time>
      </trkpt>
      <trkpt lat="43.632294" lon="-8.058684">
        <ele>33.026</ele>
        <time>2019-06-20T14:12:16Z</time>
      </trkpt>
      <trkpt lat="43.632362" lon="-8.058905">
        <ele>33.752</ele>
        <time>2019-06-20T14:12:17Z</time>
      </trkpt>
      <trkpt lat="43.632437" lon="-8.059118">
        <ele>36.199</ele>
        <time>2019-06-20T14:12:18Z</time>
      </trkpt>
      <trkpt lat="43.632513" lon="-8.059342">
        <ele>37.770</ele>
        <time>2019-06-20T14:12:19Z</time>
      </trkpt>
      <trkpt lat="43.632598" lon="-8.059580">
        <ele>39.052</ele>
        <time>2019-06-20T14:12:20Z</time>
      </trkpt>
      <trkpt lat="43.632703" lon="-8.059757">
        <ele>39.119</ele>
        <time>2019-06-20T14:12:21Z</time>
      </trkpt>
      <trkpt lat="43.632744" lon="-8.060015">
        <ele>42.015</ele>
        <time>2019-06-20T14:12:22Z</time>
      </trkpt>
      <trkpt lat="43.632828" lon="-8.060239">
        <ele>43.965</ele>
        <time>2019-06-20T14:12:23Z</time>
      </trkpt>
      <trkpt lat="43.632902" lon="-8.060428">
        <ele>47.011</ele>
        <time>2019-06-20T14:12:24Z</time>
      </trkpt>
      <trkpt lat="43.633087" lon="-8.060521">
        <ele>45.208</ele>
        <time>2019-06-20T14:12:25Z</time>
      </trkpt>
      <trkpt lat="43.633243" lon="-8.060598">
        <ele>44.054</ele>
        <time>2019-06-20T14:12:26Z</time>
      </trkpt>
      <trkpt lat="43.633360" lon="-8.060737">
        <ele>44.628</ele>
        <time>2019-06-20T14:12:27Z</time>
      </trkpt>
      <trkpt lat="43.633451" lon="-8.060871">
        <ele>44.089</ele>
        <time>2019-06-20T14:12:28Z</time>
      </trkpt>
      <trkpt lat="43.633598" lon="-8.060997">
        <ele>40.565</ele>
        <time>2019-06-20T14:12:29Z</time>
      </trkpt>
      <trkpt lat="43.633704" lon="-8.061158">
        <ele>37.172</ele>
        <time>2019-06-20T14:12:30Z</time>
      </trkpt>
      <trkpt lat="43.633789" lon="-8.061327">
        <ele>33.883</ele>
        <time>2019-06-20T14:12:31Z</time>
      </trkpt>
      <trkpt lat="43.633919" lon="-8.061531">
        <ele>29.865</ele>
        <time>2019-06-20T14:12:32Z</time>
      </trkpt>
      <trkpt lat="43.634001" lon="-8.061740">
        <ele>31.352</ele>
        <time>2019-06-20T14:12:33Z</time>
      </trkpt>
      <trkpt lat="43.634046" lon="-8.061959">
        <ele>33.114</ele>
        <time>2019-06-20T14:12:34Z</time>
      </trkpt>
      <trkpt lat="43.634101" lon="-8.062178">
        <ele>32.854</ele>
        <time>2019-06-20T14:12:35Z</time>
      </trkpt>
      <trkpt lat="43.634086" lon="-8.062363">
        <ele>36.009</ele>
        <time>2019-06-20T14:12:36Z</time>
      </trkpt>
      <trkpt lat="43.634150" lon="-8.062555">
        <ele>34.908</ele>
        <time>2019-06-20T14:12:37Z</time>
      </trkpt>
      <trkpt lat="43.634222" lon="-8.062735">
        <ele>37.324</ele>
        <time>2019-06-20T14:12:38Z</time>
      </trkpt>
      <trkpt lat="43.634333" lon="-8.062905">
        <ele>37.248</ele>
        <time>2019-06-20T14:12:39Z</time>
      </trkpt>
      <trkpt lat="43.634393" lon="-8.063094">
        <ele>38.969</ele>
        <time>2019-06-20T14:12:40Z</time>
      </trkpt>
      <trkpt lat="43.634484" lon="-8.063314">
        <ele>36.785</ele>
        <time>2019-06-20T14:12:41Z</time>
      </trkpt>
      <trkpt lat="43.634482" lon="-8.063545">
        <ele>37.652</ele>
        <time>2019-06-20T14:12:42Z</time>
      </trkpt>
      <trkpt lat="43.634516" lon="-8.063767">
        <ele>36.353</ele>
        <time>2019-06-20T14:12:43Z</time>
      </trkpt>
      <trkpt lat="43.634528" lon="-8.063995">
        <ele>36.975</ele>
        <time>2019-06-20T14:12:44Z</time>
      </trkpt>
      <trkpt lat="43.634533" lon="-8.064238">
        <ele>38.842</ele>
        <time>2019-06-20T14:12:45Z</time>
      </trkpt>
      <trkpt lat="43.634523" lon="-8.064488">
        <ele>41.248</ele>
        <time>2019-06-20T14:12:46Z</time>
      </trkpt>
      <trkpt lat="43.634531" lon="-8.064725">
        <ele>41.461</ele>
        <time>2019-06-20T14:12:47Z</time>
      </trkpt>
      <trkpt lat="43.634567" lon="-8.064974">
        <ele>40.117</ele>
        <time>2019-06-20T14:12:48Z</time>
      </trkpt>
      <trkpt lat="43.634598" lon="-8.065216">
        <ele>39.108</ele>
        <time>2019-06-20T14:12:49Z</time>
      </trkpt>
      <trkpt lat="43.634651" lon="-8.065429">
        <ele>35.927</ele>
        <time>2019-06-20T14:12:50Z</time>
      </trkpt>
      <trkpt lat="43.634724" lon="-8.065627">
        <ele>31.751</ele>
        <time>2019-06-20T14:12:51Z</time>
      </trkpt>
      <trkpt lat="43.634763" lon="-8.065842">
        <ele>31.222</ele>
        <time>2019-06-20T14:12:52Z</time>
      </trkpt>
      <trkpt lat="43.634776" lon="-8.066060">
        <ele>33.988</ele>
        <time>2019-06-20T14:12:53Z</time>
      </trkpt>
      <trkpt lat="43.634798" lon="-8.066262">
        <ele>35.775</ele>
        <time>2019-06-20T14:12:54Z</time>
      </trkpt>
      <trkpt lat="43.634858" lon="-8.066451">
        <ele>34.786</ele>
        <time>2019-06-20T14:12:55Z</time>
      </trkpt>
      <trkpt lat="43.634918" lon="-8.066624">
        <ele>34.548</ele>
        <time>2019-06-20T14:12:56Z</time>
      </trkpt>
      <trkpt lat="43.635017" lon="-8.066798">
        <ele>33.885</ele>
        <time>2019-06-20T14:12:57Z</time>
      </trkpt>
      <trkpt lat="43.635149" lon="-8.066904">
        <ele>30.023</ele>
        <time>2019-06-20T14:12:58Z</time>
      </trkpt>
      <trkpt lat="43.635246" lon="-8.067048">
        <ele>29.183</ele>
        <time>2019-06-20T14:12:59Z</time>
      </trkpt>
      <trkpt lat="43.635340" lon="-8.067211">
        <ele>30.211</ele>
        <time>2019-06-20T14:13:00Z</time>
      </trkpt>
      <trkpt lat="43.635404" lon="-8.067405">
        <ele>32.308</ele>
        <time>2019-06-20T14:13:01Z</time>
      </trkpt>
      <trkpt lat="43.635449" lon="-8.067623">
        <ele>34.175</ele>
        <time>2019-06-20T14:13:02Z</time>
      </trkpt>
      <trkpt lat="43.635494" lon="-8.067848">
        <ele>34.179</ele>
        <time>2019-06-20T14:13:03Z</time>
      </trkpt>
      <trkpt lat="43.635552" lon="-8.068081">
        <ele>32.230</ele>
        <time>2019-06-20T14:13:04Z</time>
      </trkpt>
      <trkpt lat="43.635630" lon="-8.068297">
        <ele>29.046</ele>
        <time>2019-06-20T14:13:05Z</time>
      </trkpt>
      <trkpt lat="43.635711" lon="-8.068502">
        <ele>28.063</ele>
        <time>2019-06-20T14:13:06Z</time>
      </trkpt>
      <trkpt lat="43.635826" lon="-8.068686">
        <ele>26.434</ele>
        <time>2019-06-20T14:13:07Z</time>
      </trkpt>
      <trkpt lat="43.635914" lon="-8.068903">
        <ele>25.196</ele>
        <time>2019-06-20T14:13:08Z</time>
      </trkpt>
      <trkpt lat="43.635973" lon="-8.069133">
        <ele>25.023</ele>
        <time>2019-06-20T14:13:09Z</time>
      </trkpt>
      <trkpt lat="43.636033" lon="-8.069357">
        <ele>23.633</ele>
        <time>2019-06-20T14:13:10Z</time>
      </trkpt>
      <trkpt lat="43.636081" lon="-8.069571">
        <ele>22.623</ele>
        <time>2019-06-20T14:13:11Z</time>
      </trkpt>
      <trkpt lat="43.636128" lon="-8.069760">
        <ele>21.915</ele>
        <time>2019-06-20T14:13:12Z</time>
      </trkpt>
      <trkpt lat="43.636188" lon="-8.069961">
        <ele>21.908</ele>
        <time>2019-06-20T14:13:13Z</time>
      </trkpt>
      <trkpt lat="43.636244" lon="-8.070158">
        <ele>21.686</ele>
        <time>2019-06-20T14:13:14Z</time>
      </trkpt>
      <trkpt lat="43.636346" lon="-8.070346">
        <ele>21.180</ele>
        <time>2019-06-20T14:13:15Z</time>
      </trkpt>
      <trkpt lat="43.636437" lon="-8.070560">
        <ele>22.071</ele>
        <time>2019-06-20T14:13:16Z</time>
      </trkpt>
      <trkpt lat="43.636520" lon="-8.070791">
        <ele>23.277</ele>
        <time>2019-06-20T14:13:17Z</time>
      </trkpt>
      <trkpt lat="43.636589" lon="-8.071008">
        <ele>23.284</ele>
        <time>2019-06-20T14:13:18Z</time>
      </trkpt>
      <trkpt lat="43.636648" lon="-8.071233">
        <ele>22.985</ele>
        <time>2019-06-20T14:13:19Z</time>
      </trkpt>
      <trkpt lat="43.636725" lon="-8.071486">
        <ele>22.937</ele>
        <time>2019-06-20T14:13:20Z</time>
      </trkpt>
      <trkpt lat="43.636807" lon="-8.071789">
        <ele>23.914</ele>
        <time>2019-06-20T14:13:21Z</time>
      </trkpt>
      <trkpt lat="43.636885" lon="-8.072055">
        <ele>23.925</ele>
        <time>2019-06-20T14:13:22Z</time>
      </trkpt>
      <trkpt lat="43.636948" lon="-8.072270">
        <ele>22.926</ele>
        <time>2019-06-20T14:13:23Z</time>
      </trkpt>
      <trkpt lat="43.637031" lon="-8.072509">
        <ele>21.808</ele>
        <time>2019-06-20T14:13:24Z</time>
      </trkpt>
      <trkpt lat="43.637116" lon="-8.072752">
        <ele>22.708</ele>
        <time>2019-06-20T14:13:25Z</time>
      </trkpt>
      <trkpt lat="43.637199" lon="-8.072970">
        <ele>23.635</ele>
        <time>2019-06-20T14:13:26Z</time>
      </trkpt>
      <trkpt lat="43.637290" lon="-8.073185">
        <ele>25.039</ele>
        <time>2019-06-20T14:13:27Z</time>
      </trkpt>
      <trkpt lat="43.637396" lon="-8.073358">
        <ele>25.840</ele>
        <time>2019-06-20T14:13:28Z</time>
      </trkpt>
      <trkpt lat="43.637500" lon="-8.073533">
        <ele>26.996</ele>
        <time>2019-06-20T14:13:29Z</time>
      </trkpt>
      <trkpt lat="43.637585" lon="-8.073702">
        <ele>28.913</ele>
        <time>2019-06-20T14:13:30Z</time>
      </trkpt>
      <trkpt lat="43.637808" lon="-8.073792">
        <ele>28.884</ele>
        <time>2019-06-20T14:13:31Z</time>
      </trkpt>
      <trkpt lat="43.637983" lon="-8.073920">
        <ele>29.636</ele>
        <time>2019-06-20T14:13:32Z</time>
      </trkpt>
      <trkpt lat="43.638158" lon="-8.074053">
        <ele>30.063</ele>
        <time>2019-06-20T14:13:33Z</time>
      </trkpt>
      <trkpt lat="43.638343" lon="-8.074175">
        <ele>30.158</ele>
        <time>2019-06-20T14:13:34Z</time>
      </trkpt>
      <trkpt lat="43.638523" lon="-8.074296">
        <ele>30.752</ele>
        <time>2019-06-20T14:13:35Z</time>
      </trkpt>
      <trkpt lat="43.638693" lon="-8.074396">
        <ele>31.117</ele>
        <time>2019-06-20T14:13:36Z</time>
      </trkpt>
      <trkpt lat="43.638856" lon="-8.074511">
        <ele>32.508</ele>
        <time>2019-06-20T14:13:37Z</time>
      </trkpt>
      <trkpt lat="43.639025" lon="-8.074627">
        <ele>32.238</ele>
        <time>2019-06-20T14:13:38Z</time>
      </trkpt>
      <trkpt lat="43.639219" lon="-8.074720">
        <ele>30.132</ele>
        <time>2019-06-20T14:13:39Z</time>
      </trkpt>
      <trkpt lat="43.639395" lon="-8.074828">
        <ele>28.683</ele>
        <time>2019-06-20T14:13:40Z</time>
      </trkpt>
      <trkpt lat="43.639578" lon="-8.074947">
        <ele>28.799</ele>
        <time>2019-06-20T14:13:41Z</time>
      </trkpt>
      <trkpt lat="43.639766" lon="-8.075066">
        <ele>27.746</ele>
        <time>2019-06-20T14:13:42Z</time>
      </trkpt>
      <trkpt lat="43.639871" lon="-8.075229">
        <ele>31.347</ele>
        <time>2019-06-20T14:13:43Z</time>
      </trkpt>
      <trkpt lat="43.639989" lon="-8.075391">
        <ele>31.519</ele>
        <time>2019-06-20T14:13:44Z</time>
      </trkpt>
      <trkpt lat="43.640073" lon="-8.075593">
        <ele>31.226</ele>
        <time>2019-06-20T14:13:45Z</time>
      </trkpt>
      <trkpt lat="43.640151" lon="-8.075790">
        <ele>28.959</ele>
        <time>2019-06-20T14:13:46Z</time>
      </trkpt>
      <trkpt lat="43.640218" lon="-8.076039">
        <ele>25.503</ele>
        <time>2019-06-20T14:13:47Z</time>
      </trkpt>
      <trkpt lat="43.640244" lon="-8.076290">
        <ele>21.823</ele>
        <time>2019-06-20T14:13:48Z</time>
      </trkpt>
      <trkpt lat="43.640279" lon="-8.076520">
        <ele>17.608</ele>
        <time>2019-06-20T14:13:49Z</time>
      </trkpt>
      <trkpt lat="43.640274" lon="-8.076733">
        <ele>14.968</ele>
        <time>2019-06-20T14:13:50Z</time>
      </trkpt>
      <trkpt lat="43.640255" lon="-8.076916">
        <ele>12.222</ele>
        <time>2019-06-20T14:13:51Z</time>
      </trkpt>
      <trkpt lat="43.639762" lon="-8.077026">
        <ele>29.263</ele>
        <time>2019-06-20T14:13:52Z</time>
      </trkpt>
      <trkpt lat="43.639560" lon="-8.077146">
        <ele>31.039</ele>
        <time>2019-06-20T14:13:53Z</time>
      </trkpt>
      <trkpt lat="43.639430" lon="-8.077297">
        <ele>29.476</ele>
        <time>2019-06-20T14:13:54Z</time>
      </trkpt>
      <trkpt lat="43.639179" lon="-8.077407">
        <ele>30.547</ele>
        <time>2019-06-20T14:13:55Z</time>
      </trkpt>
      <trkpt lat="43.639006" lon="-8.077533">
        <ele>30.119</ele>
        <time>2019-06-20T14:13:56Z</time>
      </trkpt>
      <trkpt lat="43.638860" lon="-8.077669">
        <ele>30.036</ele>
        <time>2019-06-20T14:13:57Z</time>
      </trkpt>
      <trkpt lat="43.638704" lon="-8.077818">
        <ele>29.491</ele>
        <time>2019-06-20T14:13:58Z</time>
      </trkpt>
      <trkpt lat="43.638555" lon="-8.077953">
        <ele>28.681</ele>
        <time>2019-06-20T14:13:59Z</time>
      </trkpt>
      <trkpt lat="43.638429" lon="-8.078082">
        <ele>27.619</ele>
        <time>2019-06-20T14:14:00Z</time>
      </trkpt>
      <trkpt lat="43.638268" lon="-8.078207">
        <ele>28.208</ele>
        <time>2019-06-20T14:14:01Z</time>
      </trkpt>
      <trkpt lat="43.638106" lon="-8.078294">
        <ele>31.822</ele>
        <time>2019-06-20T14:14:02Z</time>
      </trkpt>
      <trkpt lat="43.637931" lon="-8.078415">
        <ele>33.946</ele>
        <time>2019-06-20T14:14:03Z</time>
      </trkpt>
      <trkpt lat="43.637738" lon="-8.078490">
        <ele>35.957</ele>
        <time>2019-06-20T14:14:04Z</time>
      </trkpt>
      <trkpt lat="43.637566" lon="-8.078553">
        <ele>35.393</ele>
        <time>2019-06-20T14:14:05Z</time>
      </trkpt>
      <trkpt lat="43.637389" lon="-8.078632">
        <ele>33.920</ele>
        <time>2019-06-20T14:14:06Z</time>
      </trkpt>
      <trkpt lat="43.637203" lon="-8.078737">
        <ele>31.891</ele>
        <time>2019-06-20T14:14:07Z</time>
      </trkpt>
      <trkpt lat="43.637016" lon="-8.078850">
        <ele>28.863</ele>
        <time>2019-06-20T14:14:08Z</time>
      </trkpt>
      <trkpt lat="43.636838" lon="-8.078920">
        <ele>28.140</ele>
        <time>2019-06-20T14:14:09Z</time>
      </trkpt>
      <trkpt lat="43.636658" lon="-8.079015">
        <ele>26.992</ele>
        <time>2019-06-20T14:14:10Z</time>
      </trkpt>
      <trkpt lat="43.636465" lon="-8.079134">
        <ele>26.073</ele>
        <time>2019-06-20T14:14:11Z</time>
      </trkpt>
      <trkpt lat="43.636267" lon="-8.079279">
        <ele>27.620</ele>
        <time>2019-06-20T14:14:12Z</time>
      </trkpt>
      <trkpt lat="43.636090" lon="-8.079412">
        <ele>31.808</ele>
        <time>2019-06-20T14:14:13Z</time>
      </trkpt>
      <trkpt lat="43.635917" lon="-8.079584">
        <ele>33.932</ele>
        <time>2019-06-20T14:14:14Z</time>
      </trkpt>
      <trkpt lat="43.635744" lon="-8.079720">
        <ele>36.046</ele>
        <time>2019-06-20T14:14:15Z</time>
      </trkpt>
      <trkpt lat="43.635599" lon="-8.079839">
        <ele>35.767</ele>
        <time>2019-06-20T14:14:16Z</time>
      </trkpt>
      <trkpt lat="43.635424" lon="-8.079966">
        <ele>32.963</ele>
        <time>2019-06-20T14:14:17Z</time>
      </trkpt>
      <trkpt lat="43.635276" lon="-8.080112">
        <ele>25.980</ele>
        <time>2019-06-20T14:14:18Z</time>
      </trkpt>
      <trkpt lat="43.635128" lon="-8.080248">
        <ele>19.541</ele>
        <time>2019-06-20T14:14:19Z</time>
      </trkpt>
      <trkpt lat="43.634985" lon="-8.080394">
        <ele>14.833</ele>
        <time>2019-06-20T14:14:20Z</time>
      </trkpt>
      <trkpt lat="43.634845" lon="-8.080541">
        <ele>11.130</ele>
        <time>2019-06-20T14:14:21Z</time>
      </trkpt>
      <trkpt lat="43.634756" lon="-8.080728">
        <ele>9.475</ele>
        <time>2019-06-20T14:14:22Z</time>
      </trkpt>
      <trkpt lat="43.634717" lon="-8.080948">
        <ele>9.428</ele>
        <time>2019-06-20T14:14:23Z</time>
      </trkpt>
      <trkpt lat="43.634640" lon="-8.081141">
        <ele>10.120</ele>
        <time>2019-06-20T14:14:24Z</time>
      </trkpt>
      <trkpt lat="43.634579" lon="-8.081365">
        <ele>14.908</ele>
        <time>2019-06-20T14:14:25Z</time>
      </trkpt>
      <trkpt lat="43.634544" lon="-8.081576">
        <ele>22.360</ele>
        <time>2019-06-20T14:14:26Z</time>
      </trkpt>
      <trkpt lat="43.634508" lon="-8.081813">
        <ele>32.654</ele>
        <time>2019-06-20T14:14:27Z</time>
      </trkpt>
      <trkpt lat="43.634530" lon="-8.082063">
        <ele>44.765</ele>
        <time>2019-06-20T14:14:28Z</time>
      </trkpt>
      <trkpt lat="43.634561" lon="-8.082296">
        <ele>56.381</ele>
        <time>2019-06-20T14:14:29Z</time>
      </trkpt>
      <trkpt lat="43.634802" lon="-8.082512">
        <ele>64.338</ele>
        <time>2019-06-20T14:14:30Z</time>
      </trkpt>
      <trkpt lat="43.634920" lon="-8.082672">
        <ele>68.129</ele>
        <time>2019-06-20T14:14:31Z</time>
      </trkpt>
      <trkpt lat="43.635072" lon="-8.082796">
        <ele>70.281</ele>
        <time>2019-06-20T14:14:32Z</time>
      </trkpt>
      <trkpt lat="43.635226" lon="-8.082903">
        <ele>72.498</ele>
        <time>2019-06-20T14:14:33Z</time>
      </trkpt>
      <trkpt lat="43.635358" lon="-8.083013">
        <ele>72.772</ele>
        <time>2019-06-20T14:14:34Z</time>
      </trkpt>
      <trkpt lat="43.635490" lon="-8.083118">
        <ele>70.613</ele>
        <time>2019-06-20T14:14:35Z</time>
      </trkpt>
      <trkpt lat="43.635617" lon="-8.083253">
        <ele>67.714</ele>
        <time>2019-06-20T14:14:36Z</time>
      </trkpt>
      <trkpt lat="43.635715" lon="-8.083406">
        <ele>66.208</ele>
        <time>2019-06-20T14:14:37Z</time>
      </trkpt>
      <trkpt lat="43.635862" lon="-8.083509">
        <ele>62.580</ele>
        <time>2019-06-20T14:14:38Z</time>
      </trkpt>
      <trkpt lat="43.635951" lon="-8.083689">
        <ele>61.884</ele>
        <time>2019-06-20T14:14:39Z</time>
      </trkpt>
      <trkpt lat="43.636042" lon="-8.083876">
        <ele>61.845</ele>
        <time>2019-06-20T14:14:40Z</time>
      </trkpt>
      <trkpt lat="43.636093" lon="-8.084038">
        <ele>63.791</ele>
        <time>2019-06-20T14:14:41Z</time>
      </trkpt>
      <trkpt lat="43.636121" lon="-8.084245">
        <ele>67.158</ele>
        <time>2019-06-20T14:14:42Z</time>
      </trkpt>
      <trkpt lat="43.636171" lon="-8.084462">
        <ele>70.119</ele>
        <time>2019-06-20T14:14:43Z</time>
      </trkpt>
      <trkpt lat="43.636214" lon="-8.084681">
        <ele>73.661</ele>
        <time>2019-06-20T14:14:44Z</time>
      </trkpt>
      <trkpt lat="43.636283" lon="-8.084858">
        <ele>75.218</ele>
        <time>2019-06-20T14:14:45Z</time>
      </trkpt>
      <trkpt lat="43.636459" lon="-8.084916">
        <ele>71.739</ele>
        <time>2019-06-20T14:14:46Z</time>
      </trkpt>
      <trkpt lat="43.636595" lon="-8.085064">
        <ele>68.601</ele>
        <time>2019-06-20T14:14:47Z</time>
      </trkpt>
      <trkpt lat="43.636708" lon="-8.085230">
        <ele>66.621</ele>
        <time>2019-06-20T14:14:48Z</time>
      </trkpt>
      <trkpt lat="43.636837" lon="-8.085411">
        <ele>65.308</ele>
        <time>2019-06-20T14:14:49Z</time>
      </trkpt>
      <trkpt lat="43.636950" lon="-8.085601">
        <ele>64.666</ele>
        <time>2019-06-20T14:14:50Z</time>
      </trkpt>
      <trkpt lat="43.637042" lon="-8.085800">
        <ele>65.860</ele>
        <time>2019-06-20T14:14:51Z</time>
      </trkpt>
      <trkpt lat="43.637168" lon="-8.085999">
        <ele>66.061</ele>
        <time>2019-06-20T14:14:52Z</time>
      </trkpt>
      <trkpt lat="43.637248" lon="-8.086212">
        <ele>65.187</ele>
        <time>2019-06-20T14:14:53Z</time>
      </trkpt>
      <trkpt lat="43.637298" lon="-8.086408">
        <ele>63.774</ele>
        <time>2019-06-20T14:14:54Z</time>
      </trkpt>
      <trkpt lat="43.637332" lon="-8.086619">
        <ele>63.495</ele>
        <time>2019-06-20T14:14:55Z</time>
      </trkpt>
      <trkpt lat="43.637294" lon="-8.086843">
        <ele>66.777</ele>
        <time>2019-06-20T14:14:56Z</time>
      </trkpt>
      <trkpt lat="43.637328" lon="-8.087082">
        <ele>69.964</ele>
        <time>2019-06-20T14:14:57Z</time>
      </trkpt>
      <trkpt lat="43.637397" lon="-8.087305">
        <ele>70.139</ele>
        <time>2019-06-20T14:14:58Z</time>
      </trkpt>
      <trkpt lat="43.637510" lon="-8.087475">
        <ele>65.101</ele>
        <time>2019-06-20T14:14:59Z</time>
      </trkpt>
      <trkpt lat="43.637597" lon="-8.087667">
        <ele>63.421</ele>
        <time>2019-06-20T14:15:00Z</time>
      </trkpt>
      <trkpt lat="43.637689" lon="-8.087867">
        <ele>60.908</ele>
        <time>2019-06-20T14:15:01Z</time>
      </trkpt>
      <trkpt lat="43.637830" lon="-8.088106">
        <ele>58.646</ele>
        <time>2019-06-20T14:15:02Z</time>
      </trkpt>
      <trkpt lat="43.637972" lon="-8.088313">
        <ele>58.190</ele>
        <time>2019-06-20T14:15:03Z</time>
      </trkpt>
      <trkpt lat="43.638062" lon="-8.088540">
        <ele>58.171</ele>
        <time>2019-06-20T14:15:04Z</time>
      </trkpt>
      <trkpt lat="43.638206" lon="-8.088760">
        <ele>56.897</ele>
        <time>2019-06-20T14:15:05Z</time>
      </trkpt>
      <trkpt lat="43.638314" lon="-8.088996">
        <ele>57.064</ele>
        <time>2019-06-20T14:15:06Z</time>
      </trkpt>
      <trkpt lat="43.638437" lon="-8.089214">
        <ele>58.375</ele>
        <time>2019-06-20T14:15:07Z</time>
      </trkpt>
      <trkpt lat="43.638553" lon="-8.089416">
        <ele>59.617</ele>
        <time>2019-06-20T14:15:08Z</time>
      </trkpt>
      <trkpt lat="43.638674" lon="-8.089598">
        <ele>60.514</ele>
        <time>2019-06-20T14:15:09Z</time>
      </trkpt>
      <trkpt lat="43.638812" lon="-8.089791">
        <ele>61.886</ele>
        <time>2019-06-20T14:15:10Z</time>
      </trkpt>
      <trkpt lat="43.638962" lon="-8.089947">
        <ele>62.460</ele>
        <time>2019-06-20T14:15:11Z</time>
      </trkpt>
      <trkpt lat="43.639116" lon="-8.090079">
        <ele>63.026</ele>
        <time>2019-06-20T14:15:12Z</time>
      </trkpt>
      <trkpt lat="43.639273" lon="-8.090211">
        <ele>63.708</ele>
        <time>2019-06-20T14:15:13Z</time>
      </trkpt>
      <trkpt lat="43.639412" lon="-8.090288">
        <ele>63.661</ele>
        <time>2019-06-20T14:15:14Z</time>
      </trkpt>
      <trkpt lat="43.639594" lon="-8.090303">
        <ele>63.085</ele>
        <time>2019-06-20T14:15:15Z</time>
      </trkpt>
      <trkpt lat="43.639749" lon="-8.090356">
        <ele>63.796</ele>
        <time>2019-06-20T14:15:16Z</time>
      </trkpt>
      <trkpt lat="43.639908" lon="-8.090426">
        <ele>65.652</ele>
        <time>2019-06-20T14:15:17Z</time>
      </trkpt>
      <trkpt lat="43.640055" lon="-8.090523">
        <ele>68.049</ele>
        <time>2019-06-20T14:15:18Z</time>
      </trkpt>
      <trkpt lat="43.640200" lon="-8.090621">
        <ele>69.720</ele>
        <time>2019-06-20T14:15:19Z</time>
      </trkpt>
      <trkpt lat="43.640370" lon="-8.090660">
        <ele>69.542</ele>
        <time>2019-06-20T14:15:20Z</time>
      </trkpt>
      <trkpt lat="43.640534" lon="-8.090689">
        <ele>68.699</ele>
        <time>2019-06-20T14:15:21Z</time>
      </trkpt>
      <trkpt lat="43.640703" lon="-8.090705">
        <ele>68.758</ele>
        <time>2019-06-20T14:15:22Z</time>
      </trkpt>
      <trkpt lat="43.640873" lon="-8.090735">
        <ele>69.052</ele>
        <time>2019-06-20T14:15:23Z</time>
      </trkpt>
      <trkpt lat="43.641035" lon="-8.090773">
        <ele>68.617</ele>
        <time>2019-06-20T14:15:24Z</time>
      </trkpt>
      <trkpt lat="43.641201" lon="-8.090827">
        <ele>68.308</ele>
        <time>2019-06-20T14:15:25Z</time>
      </trkpt>
      <trkpt lat="43.641372" lon="-8.090897">
        <ele>68.368</ele>
        <time>2019-06-20T14:15:26Z</time>
      </trkpt>
      <trkpt lat="43.641528" lon="-8.090993">
        <ele>68.292</ele>
        <time>2019-06-20T14:15:27Z</time>
      </trkpt>
      <trkpt lat="43.641676" lon="-8.091207">
        <ele>70.093</ele>
        <time>2019-06-20T14:15:28Z</time>
      </trkpt>
      <trkpt lat="43.641859" lon="-8.091346">
        <ele>71.379</ele>
        <time>2019-06-20T14:15:29Z</time>
      </trkpt>
      <trkpt lat="43.642010" lon="-8.091475">
        <ele>72.946</ele>
        <time>2019-06-20T14:15:30Z</time>
      </trkpt>
      <trkpt lat="43.642170" lon="-8.091598">
        <ele>74.377</ele>
        <time>2019-06-20T14:15:31Z</time>
      </trkpt>
      <trkpt lat="43.642342" lon="-8.091712">
        <ele>75.299</ele>
        <time>2019-06-20T14:15:32Z</time>
      </trkpt>
      <trkpt lat="43.642504" lon="-8.091853">
        <ele>77.476</ele>
        <time>2019-06-20T14:15:33Z</time>
      </trkpt>
      <trkpt lat="43.642640" lon="-8.091980">
        <ele>80.166</ele>
        <time>2019-06-20T14:15:34Z</time>
      </trkpt>
      <trkpt lat="43.642788" lon="-8.092150">
        <ele>83.629</ele>
        <time>2019-06-20T14:15:35Z</time>
      </trkpt>
      <trkpt lat="43.642914" lon="-8.092340">
        <ele>84.621</ele>
        <time>2019-06-20T14:15:36Z</time>
      </trkpt>
      <trkpt lat="43.643031" lon="-8.092529">
        <ele>85.408</ele>
        <time>2019-06-20T14:15:37Z</time>
      </trkpt>
      <trkpt lat="43.643142" lon="-8.092735">
        <ele>86.759</ele>
        <time>2019-06-20T14:15:38Z</time>
      </trkpt>
      <trkpt lat="43.643239" lon="-8.092953">
        <ele>88.033</ele>
        <time>2019-06-20T14:15:39Z</time>
      </trkpt>
      <trkpt lat="43.643320" lon="-8.093189">
        <ele>89.084</ele>
        <time>2019-06-20T14:15:40Z</time>
      </trkpt>
      <trkpt lat="43.643380" lon="-8.093396">
        <ele>89.260</ele>
        <time>2019-06-20T14:15:41Z</time>
      </trkpt>
      <trkpt lat="43.643430" lon="-8.093603">
        <ele>89.377</ele>
        <time>2019-06-20T14:15:42Z</time>
      </trkpt>
      <trkpt lat="43.643482" lon="-8.093837">
        <ele>89.558</ele>
        <time>2019-06-20T14:15:43Z</time>
      </trkpt>
      <trkpt lat="43.643392" lon="-8.094096">
        <ele>88.970</ele>
        <time>2019-06-20T14:15:44Z</time>
      </trkpt>
      <trkpt lat="43.643368" lon="-8.094329">
        <ele>88.837</ele>
        <time>2019-06-20T14:15:45Z</time>
      </trkpt>
      <trkpt lat="43.643339" lon="-8.094535">
        <ele>89.396</ele>
        <time>2019-06-20T14:15:46Z</time>
      </trkpt>
      <trkpt lat="43.643272" lon="-8.094781">
        <ele>90.031</ele>
        <time>2019-06-20T14:15:47Z</time>
      </trkpt>
      <trkpt lat="43.643140" lon="-8.095001">
        <ele>89.724</ele>
        <time>2019-06-20T14:15:48Z</time>
      </trkpt>
      <trkpt lat="43.643016" lon="-8.095213">
        <ele>89.708</ele>
        <time>2019-06-20T14:15:49Z</time>
      </trkpt>
      <trkpt lat="43.642876" lon="-8.095452">
        <ele>89.792</ele>
        <time>2019-06-20T14:15:50Z</time>
      </trkpt>
      <trkpt lat="43.642744" lon="-8.095662">
        <ele>89.696</ele>
        <time>2019-06-20T14:15:51Z</time>
      </trkpt>
      <trkpt lat="43.642611" lon="-8.095879">
        <ele>90.447</ele>
        <time>2019-06-20T14:15:52Z</time>
      </trkpt>
      <trkpt lat="43.642475" lon="-8.096112">
        <ele>92.423</ele>
        <time>2019-06-20T14:15:53Z</time>
      </trkpt>
      <trkpt lat="43.642342" lon="-8.096336">
        <ele>93.860</ele>
        <time>2019-06-20T14:15:54Z</time>
      </trkpt>
      <trkpt lat="43.642212" lon="-8.096556">
        <ele>94.541</ele>
        <time>2019-06-20T14:15:55Z</time>
      </trkpt>
      <trkpt lat="43.642083" lon="-8.096773">
        <ele>95.173</ele>
        <time>2019-06-20T14:15:56Z</time>
      </trkpt>
      <trkpt lat="43.641960" lon="-8.096977">
        <ele>95.640</ele>
        <time>2019-06-20T14:15:57Z</time>
      </trkpt>
      <trkpt lat="43.641836" lon="-8.097183">
        <ele>96.247</ele>
        <time>2019-06-20T14:15:58Z</time>
      </trkpt>
      <trkpt lat="43.641712" lon="-8.097382">
        <ele>97.629</ele>
        <time>2019-06-20T14:15:59Z</time>
      </trkpt>
      <trkpt lat="43.641590" lon="-8.097585">
        <ele>99.221</ele>
        <time>2019-06-20T14:16:00Z</time>
      </trkpt>
      <trkpt lat="43.641467" lon="-8.097795">
        <ele>99.708</ele>
        <time>2019-06-20T14:16:01Z</time>
      </trkpt>
      <trkpt lat="43.641344" lon="-8.097995">
        <ele>100.487</ele>
        <time>2019-06-20T14:16:02Z</time>
      </trkpt>
      <trkpt lat="43.641227" lon="-8.098193">
        <ele>101.781</ele>
        <time>2019-06-20T14:16:03Z</time>
      </trkpt>
      <trkpt lat="43.641117" lon="-8.098380">
        <ele>102.622</ele>
        <time>2019-06-20T14:16:04Z</time>
      </trkpt>
      <trkpt lat="43.641013" lon="-8.098562">
        <ele>103.528</ele>
        <time>2019-06-20T14:16:05Z</time>
      </trkpt>
      <trkpt lat="43.640911" lon="-8.098728">
        <ele>104.595</ele>
        <time>2019-06-20T14:16:06Z</time>
      </trkpt>
      <trkpt lat="43.640814" lon="-8.098889">
        <ele>105.346</ele>
        <time>2019-06-20T14:16:07Z</time>
      </trkpt>
      <trkpt lat="43.640716" lon="-8.099032">
        <ele>106.718</ele>
        <time>2019-06-20T14:16:08Z</time>
      </trkpt>
      <trkpt lat="43.640597" lon="-8.099144">
        <ele>108.475</ele>
        <time>2019-06-20T14:16:09Z</time>
      </trkpt>
      <trkpt lat="43.640481" lon="-8.099282">
        <ele>110.023</ele>
        <time>2019-06-20T14:16:10Z</time>
      </trkpt>
      <trkpt lat="43.640349" lon="-8.099359">
        <ele>110.383</ele>
        <time>2019-06-20T14:16:11Z</time>
      </trkpt>
      <trkpt lat="43.640184" lon="-8.099423">
        <ele>109.511</ele>
        <time>2019-06-20T14:16:12Z</time>
      </trkpt>
      <trkpt lat="43.640017" lon="-8.099478">
        <ele>107.908</ele>
        <time>2019-06-20T14:16:13Z</time>
      </trkpt>
      <trkpt lat="43.639811" lon="-8.099511">
        <ele>108.495</ele>
        <time>2019-06-20T14:16:14Z</time>
      </trkpt>
      <trkpt lat="43.639619" lon="-8.099542">
        <ele>108.299</ele>
        <time>2019-06-20T14:16:15Z</time>
      </trkpt>
      <trkpt lat="43.639420" lon="-8.099566">
        <ele>107.370</ele>
        <time>2019-06-20T14:16:16Z</time>
      </trkpt>
      <trkpt lat="43.639216" lon="-8.099588">
        <ele>104.836</ele>
        <time>2019-06-20T14:16:17Z</time>
      </trkpt>
      <trkpt lat="43.639025" lon="-8.099622">
        <ele>102.953</ele>
        <time>2019-06-20T14:16:18Z</time>
      </trkpt>
      <trkpt lat="43.638832" lon="-8.099656">
        <ele>100.644</ele>
        <time>2019-06-20T14:16:19Z</time>
      </trkpt>
      <trkpt lat="43.638634" lon="-8.099699">
        <ele>97.836</ele>
        <time>2019-06-20T14:16:20Z</time>
      </trkpt>
      <trkpt lat="43.638449" lon="-8.099722">
        <ele>97.083</ele>
        <time>2019-06-20T14:16:21Z</time>
      </trkpt>
      <trkpt lat="43.638257" lon="-8.099761">
        <ele>95.737</ele>
        <time>2019-06-20T14:16:22Z</time>
      </trkpt>
      <trkpt lat="43.638069" lon="-8.099814">
        <ele>93.149</ele>
        <time>2019-06-20T14:16:23Z</time>
      </trkpt>
      <trkpt lat="43.637880" lon="-8.099868">
        <ele>93.413</ele>
        <time>2019-06-20T14:16:24Z</time>
      </trkpt>
      <trkpt lat="43.637700" lon="-8.099921">
        <ele>93.508</ele>
        <time>2019-06-20T14:16:25Z</time>
      </trkpt>
      <trkpt lat="43.637534" lon="-8.099987">
        <ele>92.346</ele>
        <time>2019-06-20T14:16:26Z</time>
      </trkpt>
      <trkpt lat="43.637375" lon="-8.100144">
        <ele>89.210</ele>
        <time>2019-06-20T14:16:27Z</time>
      </trkpt>
      <trkpt lat="43.637233" lon="-8.100249">
        <ele>87.491</ele>
        <time>2019-06-20T14:16:28Z</time>
      </trkpt>
      <trkpt lat="43.637064" lon="-8.100316">
        <ele>86.757</ele>
        <time>2019-06-20T14:16:29Z</time>
      </trkpt>
      <trkpt lat="43.636882" lon="-8.100352">
        <ele>86.164</ele>
        <time>2019-06-20T14:16:30Z</time>
      </trkpt>
      <trkpt lat="43.636688" lon="-8.100373">
        <ele>85.345</ele>
        <time>2019-06-20T14:16:31Z</time>
      </trkpt>
      <trkpt lat="43.636496" lon="-8.100348">
        <ele>85.447</ele>
        <time>2019-06-20T14:16:32Z</time>
      </trkpt>
      <trkpt lat="43.636299" lon="-8.100323">
        <ele>84.884</ele>
        <time>2019-06-20T14:16:33Z</time>
      </trkpt>
      <trkpt lat="43.636105" lon="-8.100296">
        <ele>83.543</ele>
        <time>2019-06-20T14:16:34Z</time>
      </trkpt>
      <trkpt lat="43.635917" lon="-8.100274">
        <ele>81.364</ele>
        <time>2019-06-20T14:16:35Z</time>
      </trkpt>
      <trkpt lat="43.635731" lon="-8.100243">
        <ele>79.210</ele>
        <time>2019-06-20T14:16:36Z</time>
      </trkpt>
      <trkpt lat="43.635546" lon="-8.100220">
        <ele>77.008</ele>
        <time>2019-06-20T14:16:37Z</time>
      </trkpt>
      <trkpt lat="43.635366" lon="-8.100194">
        <ele>76.477</ele>
        <time>2019-06-20T14:16:38Z</time>
      </trkpt>
      <trkpt lat="43.635177" lon="-8.100165">
        <ele>76.771</ele>
        <time>2019-06-20T14:16:39Z</time>
      </trkpt>
      <trkpt lat="43.635011" lon="-8.100152">
        <ele>77.812</ele>
        <time>2019-06-20T14:16:40Z</time>
      </trkpt>
      <trkpt lat="43.634855" lon="-8.100131">
        <ele>77.398</ele>
        <time>2019-06-20T14:16:41Z</time>
      </trkpt>
      <trkpt lat="43.634691" lon="-8.100123">
        <ele>76.875</ele>
        <time>2019-06-20T14:16:42Z</time>
      </trkpt>
      <trkpt lat="43.634533" lon="-8.100139">
        <ele>76.876</ele>
        <time>2019-06-20T14:16:43Z</time>
      </trkpt>
      <trkpt lat="43.634397" lon="-8.100176">
        <ele>76.698</ele>
        <time>2019-06-20T14:16:44Z</time>
      </trkpt>
      <trkpt lat="43.634267" lon="-8.100220">
        <ele>76.745</ele>
        <time>2019-06-20T14:16:45Z</time>
      </trkpt>
      <trkpt lat="43.634144" lon="-8.100289">
        <ele>75.915</ele>
        <time>2019-06-20T14:16:46Z</time>
      </trkpt>
      <trkpt lat="43.634024" lon="-8.100360">
        <ele>75.065</ele>
        <time>2019-06-20T14:16:47Z</time>
      </trkpt>
      <trkpt lat="43.633904" lon="-8.100427">
        <ele>74.311</ele>
        <time>2019-06-20T14:16:48Z</time>
      </trkpt>
      <trkpt lat="43.633763" lon="-8.100499">
        <ele>73.508</ele>
        <time>2019-06-20T14:16:49Z</time>
      </trkpt>
      <trkpt lat="43.633627" lon="-8.100581">
        <ele>72.644</ele>
        <time>2019-06-20T14:16:50Z</time>
      </trkpt>
      <trkpt lat="43.633484" lon="-8.100668">
        <ele>72.068</ele>
        <time>2019-06-20T14:16:51Z</time>
      </trkpt>
      <trkpt lat="43.633341" lon="-8.100747">
        <ele>71.929</ele>
        <time>2019-06-20T14:16:52Z</time>
      </trkpt>
      <trkpt lat="43.633200" lon="-8.100837">
        <ele>70.925</ele>
        <time>2019-06-20T14:16:53Z</time>
      </trkpt>
      <trkpt lat="43.633063" lon="-8.100940">
        <ele>69.862</ele>
        <time>2019-06-20T14:16:54Z</time>
      </trkpt>
      <trkpt lat="43.632943" lon="-8.101070">
        <ele>69.273</ele>
        <time>2019-06-20T14:16:55Z</time>
      </trkpt>
      <trkpt lat="43.632829" lon="-8.101201">
        <ele>68.945</ele>
        <time>2019-06-20T14:16:56Z</time>
      </trkpt>
      <trkpt lat="43.632723" lon="-8.101340">
        <ele>68.612</ele>
        <time>2019-06-20T14:16:57Z</time>
      </trkpt>
      <trkpt lat="43.632620" lon="-8.101493">
        <ele>68.265</ele>
        <time>2019-06-20T14:16:58Z</time>
      </trkpt>
      <trkpt lat="43.632514" lon="-8.101640">
        <ele>68.068</ele>
        <time>2019-06-20T14:16:59Z</time>
      </trkpt>
      <trkpt lat="43.632404" lon="-8.101783">
        <ele>68.314</ele>
        <time>2019-06-20T14:17:00Z</time>
      </trkpt>
      <trkpt lat="43.632300" lon="-8.101907">
        <ele>68.008</ele>
        <time>2019-06-20T14:17:01Z</time>
      </trkpt>
      <trkpt lat="43.632197" lon="-8.102029">
        <ele>67.429</ele>
        <time>2019-06-20T14:17:02Z</time>
      </trkpt>
      <trkpt lat="43.632087" lon="-8.102138">
        <ele>67.533</ele>
        <time>2019-06-20T14:17:03Z</time>
      </trkpt>
      <trkpt lat="43.631988" lon="-8.102245">
        <ele>67.334</ele>
        <time>2019-06-20T14:17:04Z</time>
      </trkpt>
      <trkpt lat="43.631890" lon="-8.102349">
        <ele>66.850</ele>
        <time>2019-06-20T14:17:05Z</time>
      </trkpt>
      <trkpt lat="43.631786" lon="-8.102451">
        <ele>66.187</ele>
        <time>2019-06-20T14:17:06Z</time>
      </trkpt>
      <trkpt lat="43.631685" lon="-8.102573">
        <ele>64.938</ele>
        <time>2019-06-20T14:17:07Z</time>
      </trkpt>
      <trkpt lat="43.631579" lon="-8.102699">
        <ele>64.060</ele>
        <time>2019-06-20T14:17:08Z</time>
      </trkpt>
      <trkpt lat="43.631489" lon="-8.102852">
        <ele>62.697</ele>
        <time>2019-06-20T14:17:09Z</time>
      </trkpt>
      <trkpt lat="43.631400" lon="-8.103005">
        <ele>60.828</ele>
        <time>2019-06-20T14:17:10Z</time>
      </trkpt>
      <trkpt lat="43.631326" lon="-8.103194">
        <ele>60.189</ele>
        <time>2019-06-20T14:17:11Z</time>
      </trkpt>
      <trkpt lat="43.631253" lon="-8.103375">
        <ele>59.617</ele>
        <time>2019-06-20T14:17:12Z</time>
      </trkpt>
      <trkpt lat="43.631180" lon="-8.103556">
        <ele>59.708</ele>
        <time>2019-06-20T14:17:13Z</time>
      </trkpt>
      <trkpt lat="43.631121" lon="-8.103737">
        <ele>59.435</ele>
        <time>2019-06-20T14:17:14Z</time>
      </trkpt>
      <trkpt lat="43.631044" lon="-8.103930">
        <ele>59.329</ele>
        <time>2019-06-20T14:17:15Z</time>
      </trkpt>
      <trkpt lat="43.630975" lon="-8.104114">
        <ele>59.030</ele>
        <time>2019-06-20T14:17:16Z</time>
      </trkpt>
      <trkpt lat="43.630897" lon="-8.104288">
        <ele>58.366</ele>
        <time>2019-06-20T14:17:17Z</time>
      </trkpt>
      <trkpt lat="43.630818" lon="-8.104445">
        <ele>57.523</ele>
        <time>2019-06-20T14:17:18Z</time>
      </trkpt>
      <trkpt lat="43.630735" lon="-8.104599">
        <ele>58.764</ele>
        <time>2019-06-20T14:17:19Z</time>
      </trkpt>
      <trkpt lat="43.630647" lon="-8.104757">
        <ele>59.236</ele>
        <time>2019-06-20T14:17:20Z</time>
      </trkpt>
      <trkpt lat="43.630552" lon="-8.104922">
        <ele>59.233</ele>
        <time>2019-06-20T14:17:21Z</time>
      </trkpt>
      <trkpt lat="43.630451" lon="-8.105068">
        <ele>58.585</ele>
        <time>2019-06-20T14:17:22Z</time>
      </trkpt>
      <trkpt lat="43.630338" lon="-8.105214">
        <ele>58.289</ele>
        <time>2019-06-20T14:17:23Z</time>
      </trkpt>
      <trkpt lat="43.630238" lon="-8.105353">
        <ele>57.217</ele>
        <time>2019-06-20T14:17:24Z</time>
      </trkpt>
      <trkpt lat="43.630137" lon="-8.105520">
        <ele>55.508</ele>
        <time>2019-06-20T14:17:25Z</time>
      </trkpt>
      <trkpt lat="43.630030" lon="-8.105688">
        <ele>53.811</ele>
        <time>2019-06-20T14:17:26Z</time>
      </trkpt>
      <trkpt lat="43.629917" lon="-8.105852">
        <ele>52.395</ele>
        <time>2019-06-20T14:17:27Z</time>
      </trkpt>
      <trkpt lat="43.629822" lon="-8.105996">
        <ele>51.366</ele>
        <time>2019-06-20T14:17:28Z</time>
      </trkpt>
      <trkpt lat="43.629681" lon="-8.106126">
        <ele>50.862</ele>
        <time>2019-06-20T14:17:29Z</time>
      </trkpt>
      <trkpt lat="43.629549" lon="-8.106244">
        <ele>49.459</ele>
        <time>2019-06-20T14:17:30Z</time>
      </trkpt>
      <trkpt lat="43.629402" lon="-8.106329">
        <ele>49.050</ele>
        <time>2019-06-20T14:17:31Z</time>
      </trkpt>
      <trkpt lat="43.629250" lon="-8.106394">
        <ele>49.372</ele>
        <time>2019-06-20T14:17:32Z</time>
      </trkpt>
      <trkpt lat="43.629087" lon="-8.106453">
        <ele>50.219</ele>
        <time>2019-06-20T14:17:33Z</time>
      </trkpt>
      <trkpt lat="43.628922" lon="-8.106518">
        <ele>51.778</ele>
        <time>2019-06-20T14:17:34Z</time>
      </trkpt>
      <trkpt lat="43.628756" lon="-8.106567">
        <ele>51.633</ele>
        <time>2019-06-20T14:17:35Z</time>
      </trkpt>
      <trkpt lat="43.628594" lon="-8.106625">
        <ele>50.626</ele>
        <time>2019-06-20T14:17:36Z</time>
      </trkpt>
      <trkpt lat="43.628429" lon="-8.106691">
        <ele>48.308</ele>
        <time>2019-06-20T14:17:37Z</time>
      </trkpt>
      <trkpt lat="43.628280" lon="-8.106759">
        <ele>46.910</ele>
        <time>2019-06-20T14:17:38Z</time>
      </trkpt>
      <trkpt lat="43.628129" lon="-8.106843">
        <ele>46.284</ele>
        <time>2019-06-20T14:17:39Z</time>
      </trkpt>
      <trkpt lat="43.627973" lon="-8.106940">
        <ele>45.725</ele>
        <time>2019-06-20T14:17:40Z</time>
      </trkpt>
      <trkpt lat="43.627849" lon="-8.107045">
        <ele>45.831</ele>
        <time>2019-06-20T14:17:41Z</time>
      </trkpt>
      <trkpt lat="43.627701" lon="-8.107178">
        <ele>45.968</ele>
        <time>2019-06-20T14:17:42Z</time>
      </trkpt>
      <trkpt lat="43.627550" lon="-8.107310">
        <ele>45.799</ele>
        <time>2019-06-20T14:17:43Z</time>
      </trkpt>
      <trkpt lat="43.627394" lon="-8.107466">
        <ele>45.181</ele>
        <time>2019-06-20T14:17:44Z</time>
      </trkpt>
      <trkpt lat="43.627258" lon="-8.107600">
        <ele>44.728</ele>
        <time>2019-06-20T14:17:45Z</time>
      </trkpt>
      <trkpt lat="43.627135" lon="-8.107720">
        <ele>44.629</ele>
        <time>2019-06-20T14:17:46Z</time>
      </trkpt>
      <trkpt lat="43.627001" lon="-8.107843">
        <ele>44.700</ele>
        <time>2019-06-20T14:17:47Z</time>
      </trkpt>
      <trkpt lat="43.626874" lon="-8.107995">
        <ele>44.220</ele>
        <time>2019-06-20T14:17:48Z</time>
      </trkpt>
      <trkpt lat="43.626713" lon="-8.108133">
        <ele>43.608</ele>
        <time>2019-06-20T14:17:49Z</time>
      </trkpt>
      <trkpt lat="43.626546" lon="-8.108277">
        <ele>43.575</ele>
        <time>2019-06-20T14:17:50Z</time>
      </trkpt>
      <trkpt lat="43.626366" lon="-8.108438">
        <ele>43.899</ele>
        <time>2019-06-20T14:17:51Z</time>
      </trkpt>
      <trkpt lat="43.626165" lon="-8.108599">
        <ele>44.440</ele>
        <time>2019-06-20T14:17:52Z</time>
      </trkpt>
      <trkpt lat="43.625973" lon="-8.108760">
        <ele>44.666</ele>
        <time>2019-06-20T14:17:53Z</time>
      </trkpt>
      <trkpt lat="43.625772" lon="-8.108931">
        <ele>43.533</ele>
        <time>2019-06-20T14:17:54Z</time>
      </trkpt>
      <trkpt lat="43.625566" lon="-8.109102">
        <ele>41.174</ele>
        <time>2019-06-20T14:17:55Z</time>
      </trkpt>
      <trkpt lat="43.625366" lon="-8.109286">
        <ele>40.156</ele>
        <time>2019-06-20T14:17:56Z</time>
      </trkpt>
      <trkpt lat="43.625167" lon="-8.109459">
        <ele>40.533</ele>
        <time>2019-06-20T14:17:57Z</time>
      </trkpt>
      <trkpt lat="43.624970" lon="-8.109621">
        <ele>41.467</ele>
        <time>2019-06-20T14:17:58Z</time>
      </trkpt>
      <trkpt lat="43.624784" lon="-8.109770">
        <ele>41.081</ele>
        <time>2019-06-20T14:17:59Z</time>
      </trkpt>
      <trkpt lat="43.624602" lon="-8.109913">
        <ele>41.419</ele>
        <time>2019-06-20T14:18:00Z</time>
      </trkpt>
      <trkpt lat="43.624411" lon="-8.110053">
        <ele>41.708</ele>
        <time>2019-06-20T14:18:01Z</time>
      </trkpt>
      <trkpt lat="43.624207" lon="-8.110187">
        <ele>42.269</ele>
        <time>2019-06-20T14:18:02Z</time>
      </trkpt>
      <trkpt lat="43.624000" lon="-8.110326">
        <ele>41.473</ele>
        <time>2019-06-20T14:18:03Z</time>
      </trkpt>
      <trkpt lat="43.623796" lon="-8.110468">
        <ele>40.154</ele>
        <time>2019-06-20T14:18:04Z</time>
      </trkpt>
      <trkpt lat="43.623593" lon="-8.110602">
        <ele>39.430</ele>
        <time>2019-06-20T14:18:05Z</time>
      </trkpt>
      <trkpt lat="43.623397" lon="-8.110737">
        <ele>37.827</ele>
        <time>2019-06-20T14:18:06Z</time>
      </trkpt>
      <trkpt lat="43.623202" lon="-8.110860">
        <ele>36.118</ele>
        <time>2019-06-20T14:18:07Z</time>
      </trkpt>
      <trkpt lat="43.623013" lon="-8.110996">
        <ele>33.290</ele>
        <time>2019-06-20T14:18:08Z</time>
      </trkpt>
      <trkpt lat="43.622818" lon="-8.111139">
        <ele>31.477</ele>
        <time>2019-06-20T14:18:09Z</time>
      </trkpt>
      <trkpt lat="43.622624" lon="-8.111301">
        <ele>30.196</ele>
        <time>2019-06-20T14:18:10Z</time>
      </trkpt>
      <trkpt lat="43.622437" lon="-8.111474">
        <ele>29.831</ele>
        <time>2019-06-20T14:18:11Z</time>
      </trkpt>
      <trkpt lat="43.622259" lon="-8.111654">
        <ele>29.724</ele>
        <time>2019-06-20T14:18:12Z</time>
      </trkpt>
      <trkpt lat="43.622089" lon="-8.111831">
        <ele>28.508</ele>
        <time>2019-06-20T14:18:13Z</time>
      </trkpt>
      <trkpt lat="43.621922" lon="-8.111986">
        <ele>27.832</ele>
        <time>2019-06-20T14:18:14Z</time>
      </trkpt>
      <trkpt lat="43.621756" lon="-8.112147">
        <ele>27.416</ele>
        <time>2019-06-20T14:18:15Z</time>
      </trkpt>
      <trkpt lat="43.621599" lon="-8.112297">
        <ele>27.617</ele>
        <time>2019-06-20T14:18:16Z</time>
      </trkpt>
      <trkpt lat="43.621450" lon="-8.112446">
        <ele>28.783</ele>
        <time>2019-06-20T14:18:17Z</time>
      </trkpt>
      <trkpt lat="43.621300" lon="-8.112595">
        <ele>29.140</ele>
        <time>2019-06-20T14:18:18Z</time>
      </trkpt>
      <trkpt lat="43.621173" lon="-8.112741">
        <ele>28.261</ele>
        <time>2019-06-20T14:18:19Z</time>
      </trkpt>
      <trkpt lat="43.621064" lon="-8.112894">
        <ele>26.193</ele>
        <time>2019-06-20T14:18:20Z</time>
      </trkpt>
      <trkpt lat="43.621003" lon="-8.113083">
        <ele>23.330</ele>
        <time>2019-06-20T14:18:21Z</time>
      </trkpt>
      <trkpt lat="43.620930" lon="-8.113288">
        <ele>21.156</ele>
        <time>2019-06-20T14:18:22Z</time>
      </trkpt>
      <trkpt lat="43.620869" lon="-8.113501">
        <ele>19.559</ele>
        <time>2019-06-20T14:18:23Z</time>
      </trkpt>
      <trkpt lat="43.620898" lon="-8.113724">
        <ele>17.814</ele>
        <time>2019-06-20T14:18:24Z</time>
      </trkpt>
      <trkpt lat="43.620885" lon="-8.113954">
        <ele>17.308</ele>
        <time>2019-06-20T14:18:25Z</time>
      </trkpt>
      <trkpt lat="43.620962" lon="-8.114180">
        <ele>16.398</ele>
        <time>2019-06-20T14:18:26Z</time>
      </trkpt>
      <trkpt lat="43.621010" lon="-8.114376">
        <ele>18.932</ele>
        <time>2019-06-20T14:18:27Z</time>
      </trkpt>
      <trkpt lat="43.621051" lon="-8.114593">
        <ele>23.623</ele>
        <time>2019-06-20T14:18:28Z</time>
      </trkpt>
      <trkpt lat="43.621087" lon="-8.114778">
        <ele>28.829</ele>
        <time>2019-06-20T14:18:29Z</time>
      </trkpt>
      <trkpt lat="43.621207" lon="-8.114919">
        <ele>31.486</ele>
        <time>2019-06-20T14:18:30Z</time>
      </trkpt>
      <trkpt lat="43.621271" lon="-8.115097">
        <ele>37.567</ele>
        <time>2019-06-20T14:18:31Z</time>
      </trkpt>
      <trkpt lat="43.621429" lon="-8.115228">
        <ele>42.599</ele>
        <time>2019-06-20T14:18:32Z</time>
      </trkpt>
      <trkpt lat="43.621665" lon="-8.115254">
        <ele>44.746</ele>
        <time>2019-06-20T14:18:33Z</time>
      </trkpt>
      <trkpt lat="43.621902" lon="-8.115339">
        <ele>48.972</ele>
        <time>2019-06-20T14:18:34Z</time>
      </trkpt>
      <trkpt lat="43.622248" lon="-8.115433">
        <ele>53.813</ele>
        <time>2019-06-20T14:18:35Z</time>
      </trkpt>
      <trkpt lat="43.622458" lon="-8.115451">
        <ele>56.014</ele>
        <time>2019-06-20T14:18:36Z</time>
      </trkpt>
      <trkpt lat="43.622629" lon="-8.115514">
        <ele>58.008</ele>
        <time>2019-06-20T14:18:37Z</time>
      </trkpt>
      <trkpt lat="43.622837" lon="-8.115576">
        <ele>59.060</ele>
        <time>2019-06-20T14:18:38Z</time>
      </trkpt>
      <trkpt lat="43.623024" lon="-8.115625">
        <ele>59.464</ele>
        <time>2019-06-20T14:18:39Z</time>
      </trkpt>
      <trkpt lat="43.623210" lon="-8.115679">
        <ele>60.195</ele>
        <time>2019-06-20T14:18:40Z</time>
      </trkpt>
      <trkpt lat="43.623408" lon="-8.115741">
        <ele>59.831</ele>
        <time>2019-06-20T14:18:41Z</time>
      </trkpt>
      <trkpt lat="43.623576" lon="-8.115805">
        <ele>57.958</ele>
        <time>2019-06-20T14:18:42Z</time>
      </trkpt>
      <trkpt lat="43.623757" lon="-8.115857">
        <ele>55.269</ele>
        <time>2019-06-20T14:18:43Z</time>
      </trkpt>
      <trkpt lat="43.623929" lon="-8.115944">
        <ele>53.631</ele>
        <time>2019-06-20T14:18:44Z</time>
      </trkpt>
      <trkpt lat="43.624117" lon="-8.116032">
        <ele>49.218</ele>
        <time>2019-06-20T14:18:45Z</time>
      </trkpt>
      <trkpt lat="43.624288" lon="-8.116121">
        <ele>48.969</ele>
        <time>2019-06-20T14:18:46Z</time>
      </trkpt>
      <trkpt lat="43.624452" lon="-8.116210">
        <ele>50.904</ele>
        <time>2019-06-20T14:18:47Z</time>
      </trkpt>
      <trkpt lat="43.624610" lon="-8.116308">
        <ele>54.424</ele>
        <time>2019-06-20T14:18:48Z</time>
      </trkpt>
      <trkpt lat="43.624738" lon="-8.116369">
        <ele>56.708</ele>
        <time>2019-06-20T14:18:49Z</time>
      </trkpt>
      <trkpt lat="43.624884" lon="-8.116452">
        <ele>60.099</ele>
        <time>2019-06-20T14:18:50Z</time>
      </trkpt>
      <trkpt lat="43.625007" lon="-8.116536">
        <ele>62.833</ele>
        <time>2019-06-20T14:18:51Z</time>
      </trkpt>
      <trkpt lat="43.625136" lon="-8.116623">
        <ele>66.784</ele>
        <time>2019-06-20T14:18:52Z</time>
      </trkpt>
      <trkpt lat="43.625252" lon="-8.116694">
        <ele>69.980</ele>
        <time>2019-06-20T14:18:53Z</time>
      </trkpt>
      <trkpt lat="43.625351" lon="-8.116715">
        <ele>70.717</ele>
        <time>2019-06-20T14:18:54Z</time>
      </trkpt>
      <trkpt lat="43.625467" lon="-8.116798">
        <ele>71.618</ele>
        <time>2019-06-20T14:18:55Z</time>
      </trkpt>
      <trkpt lat="43.625569" lon="-8.116885">
        <ele>72.350</ele>
        <time>2019-06-20T14:18:56Z</time>
      </trkpt>
      <trkpt lat="43.625666" lon="-8.116982">
        <ele>73.057</ele>
        <time>2019-06-20T14:18:57Z</time>
      </trkpt>
      <trkpt lat="43.625780" lon="-8.117079">
        <ele>73.337</ele>
        <time>2019-06-20T14:18:58Z</time>
      </trkpt>
      <trkpt lat="43.625892" lon="-8.117186">
        <ele>73.149</ele>
        <time>2019-06-20T14:18:59Z</time>
      </trkpt>
      <trkpt lat="43.625970" lon="-8.117368">
        <ele>73.313</ele>
        <time>2019-06-20T14:19:00Z</time>
      </trkpt>
      <trkpt lat="43.626043" lon="-8.117573">
        <ele>72.408</ele>
        <time>2019-06-20T14:19:01Z</time>
      </trkpt>
      <trkpt lat="43.626105" lon="-8.117754">
        <ele>70.396</ele>
        <time>2019-06-20T14:19:02Z</time>
      </trkpt>
      <trkpt lat="43.626168" lon="-8.117937">
        <ele>69.870</ele>
        <time>2019-06-20T14:19:03Z</time>
      </trkpt>
      <trkpt lat="43.626236" lon="-8.118046">
        <ele>69.261</ele>
        <time>2019-06-20T14:19:04Z</time>
      </trkpt>
      <trkpt lat="43.626130" lon="-8.118296">
        <ele>73.227</ele>
        <time>2019-06-20T14:19:05Z</time>
      </trkpt>
      <trkpt lat="43.626105" lon="-8.118500">
        <ele>73.674</ele>
        <time>2019-06-20T14:19:06Z</time>
      </trkpt>
      <trkpt lat="43.626080" lon="-8.118730">
        <ele>73.565</ele>
        <time>2019-06-20T14:19:07Z</time>
      </trkpt>
      <trkpt lat="43.626010" lon="-8.118982">
        <ele>73.597</ele>
        <time>2019-06-20T14:19:08Z</time>
      </trkpt>
      <trkpt lat="43.625894" lon="-8.119096">
        <ele>75.754</ele>
        <time>2019-06-20T14:19:09Z</time>
      </trkpt>
      <trkpt lat="43.625807" lon="-8.119262">
        <ele>76.035</ele>
        <time>2019-06-20T14:19:10Z</time>
      </trkpt>
      <trkpt lat="43.625707" lon="-8.119414">
        <ele>76.986</ele>
        <time>2019-06-20T14:19:11Z</time>
      </trkpt>
      <trkpt lat="43.625626" lon="-8.119605">
        <ele>77.414</ele>
        <time>2019-06-20T14:19:12Z</time>
      </trkpt>
      <trkpt lat="43.625533" lon="-8.119749">
        <ele>79.308</ele>
        <time>2019-06-20T14:19:13Z</time>
      </trkpt>
      <trkpt lat="43.625453" lon="-8.119905">
        <ele>79.786</ele>
        <time>2019-06-20T14:19:14Z</time>
      </trkpt>
      <trkpt lat="43.625361" lon="-8.120059">
        <ele>80.920</ele>
        <time>2019-06-20T14:19:15Z</time>
      </trkpt>
      <trkpt lat="43.625280" lon="-8.120224">
        <ele>82.311</ele>
        <time>2019-06-20T14:19:16Z</time>
      </trkpt>
      <trkpt lat="43.625200" lon="-8.120382">
        <ele>82.877</ele>
        <time>2019-06-20T14:19:17Z</time>
      </trkpt>
      <trkpt lat="43.625139" lon="-8.120553">
        <ele>83.584</ele>
        <time>2019-06-20T14:19:18Z</time>
      </trkpt>
      <trkpt lat="43.625066" lon="-8.120742">
        <ele>85.735</ele>
        <time>2019-06-20T14:19:19Z</time>
      </trkpt>
      <trkpt lat="43.624992" lon="-8.120947">
        <ele>88.697</ele>
        <time>2019-06-20T14:19:20Z</time>
      </trkpt>
      <trkpt lat="43.624938" lon="-8.121072">
        <ele>90.864</ele>
        <time>2019-06-20T14:19:21Z</time>
      </trkpt>
      <trkpt lat="43.624882" lon="-8.121209">
        <ele>93.071</ele>
        <time>2019-06-20T14:19:22Z</time>
      </trkpt>
      <trkpt lat="43.624804" lon="-8.121361">
        <ele>95.641</ele>
        <time>2019-06-20T14:19:23Z</time>
      </trkpt>
      <trkpt lat="43.624762" lon="-8.121502">
        <ele>97.415</ele>
        <time>2019-06-20T14:19:24Z</time>
      </trkpt>
      <trkpt lat="43.624758" lon="-8.121660">
        <ele>98.408</ele>
        <time>2019-06-20T14:19:25Z</time>
      </trkpt>
      <trkpt lat="43.624761" lon="-8.121804">
        <ele>99.250</ele>
        <time>2019-06-20T14:19:26Z</time>
      </trkpt>
      <trkpt lat="43.624761" lon="-8.121951">
        <ele>100.264</ele>
        <time>2019-06-20T14:19:27Z</time>
      </trkpt>
      <trkpt lat="43.624783" lon="-8.122077">
        <ele>99.725</ele>
        <time>2019-06-20T14:19:28Z</time>
      </trkpt>
      <trkpt lat="43.624856" lon="-8.122174">
        <ele>95.861</ele>
        <time>2019-06-20T14:19:29Z</time>
      </trkpt>
      <trkpt lat="43.624890" lon="-8.122324">
        <ele>92.868</ele>
        <time>2019-06-20T14:19:30Z</time>
      </trkpt>
      <trkpt lat="43.624905" lon="-8.122464">
        <ele>90.519</ele>
        <time>2019-06-20T14:19:31Z</time>
      </trkpt>
      <trkpt lat="43.624943" lon="-8.122610">
        <ele>87.991</ele>
        <time>2019-06-20T14:19:32Z</time>
      </trkpt>
      <trkpt lat="43.624943" lon="-8.122776">
        <ele>88.318</ele>
        <time>2019-06-20T14:19:33Z</time>
      </trkpt>
      <trkpt lat="43.624931" lon="-8.122948">
        <ele>89.697</ele>
        <time>2019-06-20T14:19:34Z</time>
      </trkpt>
      <trkpt lat="43.624943" lon="-8.123149">
        <ele>89.723</ele>
        <time>2019-06-20T14:19:35Z</time>
      </trkpt>
      <trkpt lat="43.624941" lon="-8.123325">
        <ele>90.625</ele>
        <time>2019-06-20T14:19:36Z</time>
      </trkpt>
      <trkpt lat="43.624923" lon="-8.123491">
        <ele>92.408</ele>
        <time>2019-06-20T14:19:37Z</time>
      </trkpt>
      <trkpt lat="43.624904" lon="-8.123655">
        <ele>93.722</ele>
        <time>2019-06-20T14:19:38Z</time>
      </trkpt>
      <trkpt lat="43.624881" lon="-8.123794">
        <ele>94.416</ele>
        <time>2019-06-20T14:19:39Z</time>
      </trkpt>
      <trkpt lat="43.624821" lon="-8.123931">
        <ele>96.137</ele>
        <time>2019-06-20T14:19:40Z</time>
      </trkpt>
      <trkpt lat="43.624767" lon="-8.124055">
        <ele>96.493</ele>
        <time>2019-06-20T14:19:41Z</time>
      </trkpt>
      <trkpt lat="43.624686" lon="-8.124163">
        <ele>96.570</ele>
        <time>2019-06-20T14:19:42Z</time>
      </trkpt>
      <trkpt lat="43.624662" lon="-8.124300">
        <ele>93.921</ele>
        <time>2019-06-20T14:19:43Z</time>
      </trkpt>
      <trkpt lat="43.624583" lon="-8.124418">
        <ele>92.523</ele>
        <time>2019-06-20T14:19:44Z</time>
      </trkpt>
      <trkpt lat="43.624504" lon="-8.124546">
        <ele>91.810</ele>
        <time>2019-06-20T14:19:45Z</time>
      </trkpt>
      <trkpt lat="43.624430" lon="-8.124681">
        <ele>90.899</ele>
        <time>2019-06-20T14:19:46Z</time>
      </trkpt>
      <trkpt lat="43.624372" lon="-8.124824">
        <ele>91.107</ele>
        <time>2019-06-20T14:19:47Z</time>
      </trkpt>
      <trkpt lat="43.624317" lon="-8.124971">
        <ele>91.527</ele>
        <time>2019-06-20T14:19:48Z</time>
      </trkpt>
      <trkpt lat="43.624278" lon="-8.125122">
        <ele>91.608</ele>
        <time>2019-06-20T14:19:49Z</time>
      </trkpt>
      <trkpt lat="43.624263" lon="-8.125277">
        <ele>91.722</ele>
        <time>2019-06-20T14:19:50Z</time>
      </trkpt>
      <trkpt lat="43.624264" lon="-8.125432">
        <ele>93.326</ele>
        <time>2019-06-20T14:19:51Z</time>
      </trkpt>
      <trkpt lat="43.624272" lon="-8.125584">
        <ele>95.187</ele>
        <time>2019-06-20T14:19:52Z</time>
      </trkpt>
      <trkpt lat="43.624283" lon="-8.125729">
        <ele>97.343</ele>
        <time>2019-06-20T14:19:53Z</time>
      </trkpt>
      <trkpt lat="43.624319" lon="-8.125866">
        <ele>99.660</ele>
        <time>2019-06-20T14:19:54Z</time>
      </trkpt>
      <trkpt lat="43.624369" lon="-8.126009">
        <ele>101.881</ele>
        <time>2019-06-20T14:19:55Z</time>
      </trkpt>
      <trkpt lat="43.624434" lon="-8.126144">
        <ele>102.833</ele>
        <time>2019-06-20T14:19:56Z</time>
      </trkpt>
      <trkpt lat="43.624504" lon="-8.126279">
        <ele>104.350</ele>
        <time>2019-06-20T14:19:57Z</time>
      </trkpt>
      <trkpt lat="43.624594" lon="-8.126399">
        <ele>105.059</ele>
        <time>2019-06-20T14:19:58Z</time>
      </trkpt>
      <trkpt lat="43.624698" lon="-8.126509">
        <ele>104.803</ele>
        <time>2019-06-20T14:19:59Z</time>
      </trkpt>
      <trkpt lat="43.624809" lon="-8.126592">
        <ele>104.823</ele>
        <time>2019-06-20T14:20:00Z</time>
      </trkpt>
      <trkpt lat="43.624921" lon="-8.126679">
        <ele>105.608</ele>
        <time>2019-06-20T14:20:01Z</time>
      </trkpt>
      <trkpt lat="43.625052" lon="-8.126759">
        <ele>108.148</ele>
        <time>2019-06-20T14:20:02Z</time>
      </trkpt>
      <trkpt lat="43.625195" lon="-8.126839">
        <ele>111.822</ele>
        <time>2019-06-20T14:20:03Z</time>
      </trkpt>
      <trkpt lat="43.625346" lon="-8.126901">
        <ele>114.483</ele>
        <time>2019-06-20T14:20:04Z</time>
      </trkpt>
      <trkpt lat="43.625508" lon="-8.126953">
        <ele>115.479</ele>
        <time>2019-06-20T14:20:05Z</time>
      </trkpt>
      <trkpt lat="43.625689" lon="-8.127012">
        <ele>116.346</ele>
        <time>2019-06-20T14:20:06Z</time>
      </trkpt>
      <trkpt lat="43.625860" lon="-8.127063">
        <ele>116.727</ele>
        <time>2019-06-20T14:20:07Z</time>
      </trkpt>
      <trkpt lat="43.626035" lon="-8.127125">
        <ele>116.429</ele>
        <time>2019-06-20T14:20:08Z</time>
      </trkpt>
      <trkpt lat="43.626220" lon="-8.127218">
        <ele>117.966</ele>
        <time>2019-06-20T14:20:09Z</time>
      </trkpt>
      <trkpt lat="43.626380" lon="-8.127336">
        <ele>120.554</ele>
        <time>2019-06-20T14:20:10Z</time>
      </trkpt>
      <trkpt lat="43.626565" lon="-8.127448">
        <ele>124.856</ele>
        <time>2019-06-20T14:20:11Z</time>
      </trkpt>
      <trkpt lat="43.626751" lon="-8.127577">
        <ele>129.911</ele>
        <time>2019-06-20T14:20:12Z</time>
      </trkpt>
      <trkpt lat="43.626930" lon="-8.127720">
        <ele>136.108</ele>
        <time>2019-06-20T14:20:13Z</time>
      </trkpt>
      <trkpt lat="43.627107" lon="-8.127875">
        <ele>139.328</ele>
        <time>2019-06-20T14:20:14Z</time>
      </trkpt>
      <trkpt lat="43.627270" lon="-8.128030">
        <ele>140.422</ele>
        <time>2019-06-20T14:20:15Z</time>
      </trkpt>
      <trkpt lat="43.627441" lon="-8.128184">
        <ele>141.613</ele>
        <time>2019-06-20T14:20:16Z</time>
      </trkpt>
      <trkpt lat="43.627592" lon="-8.128324">
        <ele>139.219</ele>
        <time>2019-06-20T14:20:17Z</time>
      </trkpt>
      <trkpt lat="43.627739" lon="-8.128467">
        <ele>136.066</ele>
        <time>2019-06-20T14:20:18Z</time>
      </trkpt>
      <trkpt lat="43.627874" lon="-8.128589">
        <ele>132.747</ele>
        <time>2019-06-20T14:20:19Z</time>
      </trkpt>
      <trkpt lat="43.628004" lon="-8.128723">
        <ele>130.999</ele>
        <time>2019-06-20T14:20:20Z</time>
      </trkpt>
      <trkpt lat="43.628122" lon="-8.128849">
        <ele>129.726</ele>
        <time>2019-06-20T14:20:21Z</time>
      </trkpt>
      <trkpt lat="43.628235" lon="-8.128984">
        <ele>128.348</ele>
        <time>2019-06-20T14:20:22Z</time>
      </trkpt>
      <trkpt lat="43.628242" lon="-8.129186">
        <ele>131.561</ele>
        <time>2019-06-20T14:20:23Z</time>
      </trkpt>
      <trkpt lat="43.628271" lon="-8.129370">
        <ele>133.017</ele>
        <time>2019-06-20T14:20:24Z</time>
      </trkpt>
      <trkpt lat="43.628294" lon="-8.129550">
        <ele>134.108</ele>
        <time>2019-06-20T14:20:25Z</time>
      </trkpt>
      <trkpt lat="43.628315" lon="-8.129740">
        <ele>135.197</ele>
        <time>2019-06-20T14:20:26Z</time>
      </trkpt>
      <trkpt lat="43.628317" lon="-8.129911">
        <ele>134.481</ele>
        <time>2019-06-20T14:20:27Z</time>
      </trkpt>
      <trkpt lat="43.628238" lon="-8.130089">
        <ele>134.052</ele>
        <time>2019-06-20T14:20:28Z</time>
      </trkpt>
      <trkpt lat="43.628019" lon="-8.130161">
        <ele>133.558</ele>
        <time>2019-06-20T14:20:29Z</time>
      </trkpt>
      <trkpt lat="43.627895" lon="-8.130277">
        <ele>132.635</ele>
        <time>2019-06-20T14:20:30Z</time>
      </trkpt>
      <trkpt lat="43.627760" lon="-8.130407">
        <ele>131.296</ele>
        <time>2019-06-20T14:20:31Z</time>
      </trkpt>
      <trkpt lat="43.627613" lon="-8.130487">
        <ele>130.748</ele>
        <time>2019-06-20T14:20:32Z</time>
      </trkpt>
      <trkpt lat="43.627430" lon="-8.130452">
        <ele>132.465</ele>
        <time>2019-06-20T14:20:33Z</time>
      </trkpt>
      <trkpt lat="43.627249" lon="-8.130476">
        <ele>133.255</ele>
        <time>2019-06-20T14:20:34Z</time>
      </trkpt>
      <trkpt lat="43.627069" lon="-8.130518">
        <ele>134.107</ele>
        <time>2019-06-20T14:20:35Z</time>
      </trkpt>
      <trkpt lat="43.626873" lon="-8.130543">
        <ele>135.317</ele>
        <time>2019-06-20T14:20:36Z</time>
      </trkpt>
      <trkpt lat="43.626672" lon="-8.130568">
        <ele>136.008</ele>
        <time>2019-06-20T14:20:37Z</time>
      </trkpt>
      <trkpt lat="43.626469" lon="-8.130596">
        <ele>139.848</ele>
        <time>2019-06-20T14:20:38Z</time>
      </trkpt>
      <trkpt lat="43.626271" lon="-8.130624">
        <ele>143.632</ele>
        <time>2019-06-20T14:20:39Z</time>
      </trkpt>
      <trkpt lat="43.626071" lon="-8.130658">
        <ele>146.813</ele>
        <time>2019-06-20T14:20:40Z</time>
      </trkpt>
      <trkpt lat="43.625873" lon="-8.130686">
        <ele>147.479</ele>
        <time>2019-06-20T14:20:41Z</time>
      </trkpt>
      <trkpt lat="43.625669" lon="-8.130702">
        <ele>147.246</ele>
        <time>2019-06-20T14:20:42Z</time>
      </trkpt>
      <trkpt lat="43.625448" lon="-8.130702">
        <ele>147.297</ele>
        <time>2019-06-20T14:20:43Z</time>
      </trkpt>
      <trkpt lat="43.625227" lon="-8.130691">
        <ele>148.069</ele>
        <time>2019-06-20T14:20:44Z</time>
      </trkpt>
      <trkpt lat="43.625004" lon="-8.130645">
        <ele>150.396</ele>
        <time>2019-06-20T14:20:45Z</time>
      </trkpt>
      <trkpt lat="43.624780" lon="-8.130593">
        <ele>152.475</ele>
        <time>2019-06-20T14:20:46Z</time>
      </trkpt>
      <trkpt lat="43.624562" lon="-8.130545">
        <ele>156.528</ele>
        <time>2019-06-20T14:20:47Z</time>
      </trkpt>
      <trkpt lat="43.624341" lon="-8.130485">
        <ele>159.920</ele>
        <time>2019-06-20T14:20:48Z</time>
      </trkpt>
      <trkpt lat="43.624144" lon="-8.130437">
        <ele>161.008</ele>
        <time>2019-06-20T14:20:49Z</time>
      </trkpt>
      <trkpt lat="43.623934" lon="-8.130382">
        <ele>161.460</ele>
        <time>2019-06-20T14:20:50Z</time>
      </trkpt>
      <trkpt lat="43.623754" lon="-8.130336">
        <ele>165.814</ele>
        <time>2019-06-20T14:20:51Z</time>
      </trkpt>
      <trkpt lat="43.623598" lon="-8.130344">
        <ele>170.035</ele>
        <time>2019-06-20T14:20:52Z</time>
      </trkpt>
      <trkpt lat="43.623416" lon="-8.130397">
        <ele>176.391</ele>
        <time>2019-06-20T14:20:53Z</time>
      </trkpt>
      <trkpt lat="43.623243" lon="-8.130534">
        <ele>178.628</ele>
        <time>2019-06-20T14:20:54Z</time>
      </trkpt>
      <trkpt lat="43.623091" lon="-8.130728">
        <ele>178.299</ele>
        <time>2019-06-20T14:20:55Z</time>
      </trkpt>
      <trkpt lat="43.622975" lon="-8.131076">
        <ele>174.311</ele>
        <time>2019-06-20T14:20:56Z</time>
      </trkpt>
      <trkpt lat="43.622827" lon="-8.131299">
        <ele>174.988</ele>
        <time>2019-06-20T14:20:57Z</time>
      </trkpt>
      <trkpt lat="43.622686" lon="-8.131514">
        <ele>175.096</ele>
        <time>2019-06-20T14:20:58Z</time>
      </trkpt>
      <trkpt lat="43.622545" lon="-8.131741">
        <ele>173.931</ele>
        <time>2019-06-20T14:20:59Z</time>
      </trkpt>
      <trkpt lat="43.622400" lon="-8.131966">
        <ele>171.824</ele>
        <time>2019-06-20T14:21:00Z</time>
      </trkpt>
      <trkpt lat="43.622249" lon="-8.132184">
        <ele>169.408</ele>
        <time>2019-06-20T14:21:01Z</time>
      </trkpt>
      <trkpt lat="43.622108" lon="-8.132414">
        <ele>168.782</ele>
        <time>2019-06-20T14:21:02Z</time>
      </trkpt>
      <trkpt lat="43.621958" lon="-8.132642">
        <ele>167.176</ele>
        <time>2019-06-20T14:21:03Z</time>
      </trkpt>
      <trkpt lat="43.621810" lon="-8.132873">
        <ele>165.297</ele>
        <time>2019-06-20T14:21:04Z</time>
      </trkpt>
      <trkpt lat="43.621664" lon="-8.133068">
        <ele>160.873</ele>
        <time>2019-06-20T14:21:05Z</time>
      </trkpt>
      <trkpt lat="43.621517" lon="-8.133270">
        <ele>156.840</ele>
        <time>2019-06-20T14:21:06Z</time>
      </trkpt>
      <trkpt lat="43.621381" lon="-8.133476">
        <ele>152.191</ele>
        <time>2019-06-20T14:21:07Z</time>
      </trkpt>
      <trkpt lat="43.621230" lon="-8.133674">
        <ele>151.923</ele>
        <time>2019-06-20T14:21:08Z</time>
      </trkpt>
      <trkpt lat="43.621129" lon="-8.133817">
        <ele>151.180</ele>
        <time>2019-06-20T14:21:09Z</time>
      </trkpt>
      <trkpt lat="43.620977" lon="-8.133962">
        <ele>151.173</ele>
        <time>2019-06-20T14:21:10Z</time>
      </trkpt>
      <trkpt lat="43.620823" lon="-8.134085">
        <ele>150.685</ele>
        <time>2019-06-20T14:21:11Z</time>
      </trkpt>
      <trkpt lat="43.620658" lon="-8.134211">
        <ele>151.413</ele>
        <time>2019-06-20T14:21:12Z</time>
      </trkpt>
      <trkpt lat="43.620484" lon="-8.134305">
        <ele>152.408</ele>
        <time>2019-06-20T14:21:13Z</time>
      </trkpt>
      <trkpt lat="43.620275" lon="-8.134276">
        <ele>155.830</ele>
        <time>2019-06-20T14:21:14Z</time>
      </trkpt>
      <trkpt lat="43.620095" lon="-8.134279">
        <ele>155.494</ele>
        <time>2019-06-20T14:21:15Z</time>
      </trkpt>
      <trkpt lat="43.619884" lon="-8.134319">
        <ele>152.175</ele>
        <time>2019-06-20T14:21:16Z</time>
      </trkpt>
      <trkpt lat="43.619684" lon="-8.134208">
        <ele>151.651</ele>
        <time>2019-06-20T14:21:17Z</time>
      </trkpt>
      <trkpt lat="43.619498" lon="-8.133998">
        <ele>154.118</ele>
        <time>2019-06-20T14:21:18Z</time>
      </trkpt>
      <trkpt lat="43.619321" lon="-8.133848">
        <ele>156.079</ele>
        <time>2019-06-20T14:21:19Z</time>
      </trkpt>
      <trkpt lat="43.619150" lon="-8.133699">
        <ele>156.271</ele>
        <time>2019-06-20T14:21:20Z</time>
      </trkpt>
      <trkpt lat="43.618966" lon="-8.133558">
        <ele>156.048</ele>
        <time>2019-06-20T14:21:21Z</time>
      </trkpt>
      <trkpt lat="43.618791" lon="-8.133432">
        <ele>154.845</ele>
        <time>2019-06-20T14:21:22Z</time>
      </trkpt>
      <trkpt lat="43.618628" lon="-8.133287">
        <ele>153.947</ele>
        <time>2019-06-20T14:21:23Z</time>
      </trkpt>
      <trkpt lat="43.618467" lon="-8.133165">
        <ele>153.111</ele>
        <time>2019-06-20T14:21:24Z</time>
      </trkpt>
      <trkpt lat="43.618319" lon="-8.133054">
        <ele>152.908</ele>
        <time>2019-06-20T14:21:25Z</time>
      </trkpt>
      <trkpt lat="43.618171" lon="-8.132955">
        <ele>153.837</ele>
        <time>2019-06-20T14:21:26Z</time>
      </trkpt>
      <trkpt lat="43.618018" lon="-8.132883">
        <ele>154.711</ele>
        <time>2019-06-20T14:21:27Z</time>
      </trkpt>
      <trkpt lat="43.617874" lon="-8.132919">
        <ele>152.612</ele>
        <time>2019-06-20T14:21:28Z</time>
      </trkpt>
      <trkpt lat="43.617729" lon="-8.132964">
        <ele>150.638</ele>
        <time>2019-06-20T14:21:29Z</time>
      </trkpt>
      <trkpt lat="43.617593" lon="-8.133054">
        <ele>148.045</ele>
        <time>2019-06-20T14:21:30Z</time>
      </trkpt>
      <trkpt lat="43.617466" lon="-8.133177">
        <ele>145.946</ele>
        <time>2019-06-20T14:21:31Z</time>
      </trkpt>
      <trkpt lat="43.617338" lon="-8.133326">
        <ele>144.588</ele>
        <time>2019-06-20T14:21:32Z</time>
      </trkpt>
      <trkpt lat="43.617214" lon="-8.133464">
        <ele>143.155</ele>
        <time>2019-06-20T14:21:33Z</time>
      </trkpt>
      <trkpt lat="43.617086" lon="-8.133598">
        <ele>140.237</ele>
        <time>2019-06-20T14:21:34Z</time>
      </trkpt>
      <trkpt lat="43.616953" lon="-8.133700">
        <ele>139.049</ele>
        <time>2019-06-20T14:21:35Z</time>
      </trkpt>
      <trkpt lat="43.616789" lon="-8.133785">
        <ele>136.213</ele>
        <time>2019-06-20T14:21:36Z</time>
      </trkpt>
      <trkpt lat="43.616634" lon="-8.133822">
        <ele>134.408</ele>
        <time>2019-06-20T14:21:37Z</time>
      </trkpt>
      <trkpt lat="43.616470" lon="-8.133808">
        <ele>134.266</ele>
        <time>2019-06-20T14:21:38Z</time>
      </trkpt>
      <trkpt lat="43.616314" lon="-8.133827">
        <ele>135.350</ele>
        <time>2019-06-20T14:21:39Z</time>
      </trkpt>
      <trkpt lat="43.616176" lon="-8.133875">
        <ele>137.881</ele>
        <time>2019-06-20T14:21:40Z</time>
      </trkpt>
      <trkpt lat="43.616062" lon="-8.133928">
        <ele>139.497</ele>
        <time>2019-06-20T14:21:41Z</time>
      </trkpt>
      <trkpt lat="43.615942" lon="-8.133981">
        <ele>140.784</ele>
        <time>2019-06-20T14:21:42Z</time>
      </trkpt>
      <trkpt lat="43.615836" lon="-8.134063">
        <ele>142.095</ele>
        <time>2019-06-20T14:21:43Z</time>
      </trkpt>
      <trkpt lat="43.615738" lon="-8.134307">
        <ele>142.237</ele>
        <time>2019-06-20T14:21:44Z</time>
      </trkpt>
      <trkpt lat="43.615640" lon="-8.134511">
        <ele>142.694</ele>
        <time>2019-06-20T14:21:45Z</time>
      </trkpt>
      <trkpt lat="43.615589" lon="-8.134709">
        <ele>143.659</ele>
        <time>2019-06-20T14:21:46Z</time>
      </trkpt>
      <trkpt lat="43.615631" lon="-8.135033">
        <ele>143.303</ele>
        <time>2019-06-20T14:21:47Z</time>
      </trkpt>
      <trkpt lat="43.615657" lon="-8.135343">
        <ele>139.623</ele>
        <time>2019-06-20T14:21:48Z</time>
      </trkpt>
      <trkpt lat="43.615729" lon="-8.135671">
        <ele>135.408</ele>
        <time>2019-06-20T14:21:49Z</time>
      </trkpt>
      <trkpt lat="43.615719" lon="-8.135973">
        <ele>133.358</ele>
        <time>2019-06-20T14:21:50Z</time>
      </trkpt>
      <trkpt lat="43.615725" lon="-8.136268">
        <ele>132.442</ele>
        <time>2019-06-20T14:21:51Z</time>
      </trkpt>
      <trkpt lat="43.615729" lon="-8.136551">
        <ele>132.393</ele>
        <time>2019-06-20T14:21:52Z</time>
      </trkpt>
      <trkpt lat="43.615724" lon="-8.136828">
        <ele>131.739</ele>
        <time>2019-06-20T14:21:53Z</time>
      </trkpt>
      <trkpt lat="43.615707" lon="-8.137075">
        <ele>131.416</ele>
        <time>2019-06-20T14:21:54Z</time>
      </trkpt>
      <trkpt lat="43.615700" lon="-8.137329">
        <ele>131.087</ele>
        <time>2019-06-20T14:21:55Z</time>
      </trkpt>
      <trkpt lat="43.615684" lon="-8.137577">
        <ele>130.119</ele>
        <time>2019-06-20T14:21:56Z</time>
      </trkpt>
      <trkpt lat="43.615663" lon="-8.137817">
        <ele>128.146</ele>
        <time>2019-06-20T14:21:57Z</time>
      </trkpt>
      <trkpt lat="43.615652" lon="-8.138051">
        <ele>125.061</ele>
        <time>2019-06-20T14:21:58Z</time>
      </trkpt>
      <trkpt lat="43.615638" lon="-8.138285">
        <ele>122.321</ele>
        <time>2019-06-20T14:21:59Z</time>
      </trkpt>
      <trkpt lat="43.615586" lon="-8.138512">
        <ele>120.713</ele>
        <time>2019-06-20T14:22:00Z</time>
      </trkpt>
      <trkpt lat="43.615504" lon="-8.138746">
        <ele>119.108</ele>
        <time>2019-06-20T14:22:01Z</time>
      </trkpt>
      <trkpt lat="43.615368" lon="-8.138941">
        <ele>118.199</ele>
        <time>2019-06-20T14:22:02Z</time>
      </trkpt>
      <trkpt lat="43.615294" lon="-8.139138">
        <ele>116.243</ele>
        <time>2019-06-20T14:22:03Z</time>
      </trkpt>
      <trkpt lat="43.615181" lon="-8.139317">
        <ele>114.454</ele>
        <time>2019-06-20T14:22:04Z</time>
      </trkpt>
      <trkpt lat="43.615091" lon="-8.139520">
        <ele>112.610</ele>
        <time>2019-06-20T14:22:05Z</time>
      </trkpt>
      <trkpt lat="43.614998" lon="-8.139698">
        <ele>111.357</ele>
        <time>2019-06-20T14:22:06Z</time>
      </trkpt>
      <trkpt lat="43.614907" lon="-8.139878">
        <ele>110.358</ele>
        <time>2019-06-20T14:22:07Z</time>
      </trkpt>
      <trkpt lat="43.614807" lon="-8.140031">
        <ele>109.210</ele>
        <time>2019-06-20T14:22:08Z</time>
      </trkpt>
      <trkpt lat="43.614695" lon="-8.140183">
        <ele>108.127</ele>
        <time>2019-06-20T14:22:09Z</time>
      </trkpt>
      <trkpt lat="43.614568" lon="-8.140272">
        <ele>106.992</ele>
        <time>2019-06-20T14:22:10Z</time>
      </trkpt>
      <trkpt lat="43.614485" lon="-8.140332">
        <ele>106.373</ele>
        <time>2019-06-20T14:22:11Z</time>
      </trkpt>
      <trkpt lat="43.614350" lon="-8.140394">
        <ele>106.520</ele>
        <time>2019-06-20T14:22:12Z</time>
      </trkpt>
      <trkpt lat="43.614193" lon="-8.140487">
        <ele>107.108</ele>
        <time>2019-06-20T14:22:13Z</time>
      </trkpt>
      <trkpt lat="43.614031" lon="-8.140576">
        <ele>107.292</ele>
        <time>2019-06-20T14:22:14Z</time>
      </trkpt>
      <trkpt lat="43.613876" lon="-8.140652">
        <ele>106.266</ele>
        <time>2019-06-20T14:22:15Z</time>
      </trkpt>
      <trkpt lat="43.613719" lon="-8.140727">
        <ele>104.787</ele>
        <time>2019-06-20T14:22:16Z</time>
      </trkpt>
      <trkpt lat="43.613560" lon="-8.140807">
        <ele>103.533</ele>
        <time>2019-06-20T14:22:17Z</time>
      </trkpt>
      <trkpt lat="43.613405" lon="-8.140887">
        <ele>103.050</ele>
        <time>2019-06-20T14:22:18Z</time>
      </trkpt>
      <trkpt lat="43.613254" lon="-8.140977">
        <ele>101.431</ele>
        <time>2019-06-20T14:22:19Z</time>
      </trkpt>
      <trkpt lat="43.613096" lon="-8.141049">
        <ele>99.283</ele>
        <time>2019-06-20T14:22:20Z</time>
      </trkpt>
      <trkpt lat="43.612954" lon="-8.141106">
        <ele>97.710</ele>
        <time>2019-06-20T14:22:21Z</time>
      </trkpt>
      <trkpt lat="43.612818" lon="-8.141179">
        <ele>96.229</ele>
        <time>2019-06-20T14:22:22Z</time>
      </trkpt>
      <trkpt lat="43.612685" lon="-8.141242">
        <ele>95.100</ele>
        <time>2019-06-20T14:22:23Z</time>
      </trkpt>
      <trkpt lat="43.612543" lon="-8.141310">
        <ele>94.520</ele>
        <time>2019-06-20T14:22:24Z</time>
      </trkpt>
      <trkpt lat="43.612406" lon="-8.141385">
        <ele>94.008</ele>
        <time>2019-06-20T14:22:25Z</time>
      </trkpt>
      <trkpt lat="43.612277" lon="-8.141472">
        <ele>93.025</ele>
        <time>2019-06-20T14:22:26Z</time>
      </trkpt>
      <trkpt lat="43.612163" lon="-8.141531">
        <ele>92.589</ele>
        <time>2019-06-20T14:22:27Z</time>
      </trkpt>
      <trkpt lat="43.612012" lon="-8.141582">
        <ele>92.260</ele>
        <time>2019-06-20T14:22:28Z</time>
      </trkpt>
      <trkpt lat="43.611851" lon="-8.141616">
        <ele>91.846</ele>
        <time>2019-06-20T14:22:29Z</time>
      </trkpt>
      <trkpt lat="43.611682" lon="-8.141626">
        <ele>91.213</ele>
        <time>2019-06-20T14:22:30Z</time>
      </trkpt>
      <trkpt lat="43.611515" lon="-8.141610">
        <ele>90.224</ele>
        <time>2019-06-20T14:22:31Z</time>
      </trkpt>
      <trkpt lat="43.611351" lon="-8.141569">
        <ele>89.316</ele>
        <time>2019-06-20T14:22:32Z</time>
      </trkpt>
      <trkpt lat="43.611180" lon="-8.141531">
        <ele>87.793</ele>
        <time>2019-06-20T14:22:33Z</time>
      </trkpt>
      <trkpt lat="43.611007" lon="-8.141490">
        <ele>86.935</ele>
        <time>2019-06-20T14:22:34Z</time>
      </trkpt>
      <trkpt lat="43.610835" lon="-8.141450">
        <ele>86.686</ele>
        <time>2019-06-20T14:22:35Z</time>
      </trkpt>
      <trkpt lat="43.610657" lon="-8.141411">
        <ele>85.614</ele>
        <time>2019-06-20T14:22:36Z</time>
      </trkpt>
      <trkpt lat="43.610471" lon="-8.141372">
        <ele>84.108</ele>
        <time>2019-06-20T14:22:37Z</time>
      </trkpt>
      <trkpt lat="43.610291" lon="-8.141321">
        <ele>82.446</ele>
        <time>2019-06-20T14:22:38Z</time>
      </trkpt>
      <trkpt lat="43.610113" lon="-8.141268">
        <ele>80.730</ele>
        <time>2019-06-20T14:22:39Z</time>
      </trkpt>
      <trkpt lat="43.609911" lon="-8.141210">
        <ele>78.931</ele>
        <time>2019-06-20T14:22:40Z</time>
      </trkpt>
      <trkpt lat="43.609715" lon="-8.141167">
        <ele>77.667</ele>
        <time>2019-06-20T14:22:41Z</time>
      </trkpt>
      <trkpt lat="43.609525" lon="-8.141118">
        <ele>77.214</ele>
        <time>2019-06-20T14:22:42Z</time>
      </trkpt>
      <trkpt lat="43.609345" lon="-8.141121">
        <ele>76.295</ele>
        <time>2019-06-20T14:22:43Z</time>
      </trkpt>
      <trkpt lat="43.609173" lon="-8.141133">
        <ele>75.047</ele>
        <time>2019-06-20T14:22:44Z</time>
      </trkpt>
      <trkpt lat="43.608999" lon="-8.141153">
        <ele>73.654</ele>
        <time>2019-06-20T14:22:45Z</time>
      </trkpt>
      <trkpt lat="43.608838" lon="-8.141224">
        <ele>72.638</ele>
        <time>2019-06-20T14:22:46Z</time>
      </trkpt>
      <trkpt lat="43.608672" lon="-8.141332">
        <ele>72.270</ele>
        <time>2019-06-20T14:22:47Z</time>
      </trkpt>
      <trkpt lat="43.608511" lon="-8.141439">
        <ele>71.217</ele>
        <time>2019-06-20T14:22:48Z</time>
      </trkpt>
      <trkpt lat="43.608365" lon="-8.141565">
        <ele>69.808</ele>
        <time>2019-06-20T14:22:49Z</time>
      </trkpt>
      <trkpt lat="43.608239" lon="-8.141709">
        <ele>69.536</ele>
        <time>2019-06-20T14:22:50Z</time>
      </trkpt>
      <trkpt lat="43.608110" lon="-8.141851">
        <ele>69.910</ele>
        <time>2019-06-20T14:22:51Z</time>
      </trkpt>
      <trkpt lat="43.607998" lon="-8.142024">
        <ele>70.371</ele>
        <time>2019-06-20T14:22:52Z</time>
      </trkpt>
      <trkpt lat="43.607910" lon="-8.142198">
        <ele>70.767</ele>
        <time>2019-06-20T14:22:53Z</time>
      </trkpt>
      <trkpt lat="43.607866" lon="-8.142339">
        <ele>70.654</ele>
        <time>2019-06-20T14:22:54Z</time>
      </trkpt>
      <trkpt lat="43.607833" lon="-8.142450">
        <ele>70.655</ele>
        <time>2019-06-20T14:22:55Z</time>
      </trkpt>
      <trkpt lat="43.607789" lon="-8.142547">
        <ele>70.737</ele>
        <time>2019-06-20T14:22:56Z</time>
      </trkpt>
      <trkpt lat="43.607744" lon="-8.142645">
        <ele>70.734</ele>
        <time>2019-06-20T14:22:57Z</time>
      </trkpt>
      <trkpt lat="43.607682" lon="-8.142746">
        <ele>70.838</ele>
        <time>2019-06-20T14:22:58Z</time>
      </trkpt>
      <trkpt lat="43.607608" lon="-8.142855">
        <ele>70.870</ele>
        <time>2019-06-20T14:22:59Z</time>
      </trkpt>
      <trkpt lat="43.607540" lon="-8.142965">
        <ele>70.517</ele>
        <time>2019-06-20T14:23:00Z</time>
      </trkpt>
      <trkpt lat="43.607461" lon="-8.143075">
        <ele>70.108</ele>
        <time>2019-06-20T14:23:01Z</time>
      </trkpt>
      <trkpt lat="43.607366" lon="-8.143196">
        <ele>70.096</ele>
        <time>2019-06-20T14:23:02Z</time>
      </trkpt>
      <trkpt lat="43.607260" lon="-8.143311">
        <ele>69.930</ele>
        <time>2019-06-20T14:23:03Z</time>
      </trkpt>
      <trkpt lat="43.607144" lon="-8.143420">
        <ele>70.191</ele>
        <time>2019-06-20T14:23:04Z</time>
      </trkpt>
      <trkpt lat="43.607021" lon="-8.143524">
        <ele>70.597</ele>
        <time>2019-06-20T14:23:05Z</time>
      </trkpt>
      <trkpt lat="43.606894" lon="-8.143616">
        <ele>70.854</ele>
        <time>2019-06-20T14:23:06Z</time>
      </trkpt>
      <trkpt lat="43.606766" lon="-8.143701">
        <ele>69.725</ele>
        <time>2019-06-20T14:23:07Z</time>
      </trkpt>
      <trkpt lat="43.606627" lon="-8.143787">
        <ele>68.777</ele>
        <time>2019-06-20T14:23:08Z</time>
      </trkpt>
      <trkpt lat="43.606477" lon="-8.143875">
        <ele>68.144</ele>
        <time>2019-06-20T14:23:09Z</time>
      </trkpt>
      <trkpt lat="43.606322" lon="-8.143966">
        <ele>66.644</ele>
        <time>2019-06-20T14:23:10Z</time>
      </trkpt>
      <trkpt lat="43.606155" lon="-8.144055">
        <ele>64.305</ele>
        <time>2019-06-20T14:23:11Z</time>
      </trkpt>
      <trkpt lat="43.605982" lon="-8.144151">
        <ele>62.715</ele>
        <time>2019-06-20T14:23:12Z</time>
      </trkpt>
      <trkpt lat="43.605816" lon="-8.144270">
        <ele>61.908</ele>
        <time>2019-06-20T14:23:13Z</time>
      </trkpt>
      <trkpt lat="43.605638" lon="-8.144369">
        <ele>60.817</ele>
        <time>2019-06-20T14:23:14Z</time>
      </trkpt>
      <trkpt lat="43.605457" lon="-8.144474">
        <ele>59.351</ele>
        <time>2019-06-20T14:23:15Z</time>
      </trkpt>
      <trkpt lat="43.605275" lon="-8.144581">
        <ele>57.552</ele>
        <time>2019-06-20T14:23:16Z</time>
      </trkpt>
      <trkpt lat="43.605103" lon="-8.144700">
        <ele>56.238</ele>
        <time>2019-06-20T14:23:17Z</time>
      </trkpt>
      <trkpt lat="43.604916" lon="-8.144811">
        <ele>55.455</ele>
        <time>2019-06-20T14:23:18Z</time>
      </trkpt>
      <trkpt lat="43.604728" lon="-8.144924">
        <ele>54.586</ele>
        <time>2019-06-20T14:23:19Z</time>
      </trkpt>
      <trkpt lat="43.604543" lon="-8.145025">
        <ele>54.548</ele>
        <time>2019-06-20T14:23:20Z</time>
      </trkpt>
      <trkpt lat="43.604350" lon="-8.145139">
        <ele>54.025</ele>
        <time>2019-06-20T14:23:21Z</time>
      </trkpt>
      <trkpt lat="43.604170" lon="-8.145241">
        <ele>53.358</ele>
        <time>2019-06-20T14:23:22Z</time>
      </trkpt>
      <trkpt lat="43.603980" lon="-8.145347">
        <ele>51.852</ele>
        <time>2019-06-20T14:23:23Z</time>
      </trkpt>
      <trkpt lat="43.603791" lon="-8.145457">
        <ele>50.017</ele>
        <time>2019-06-20T14:23:24Z</time>
      </trkpt>
      <trkpt lat="43.603605" lon="-8.145563">
        <ele>48.008</ele>
        <time>2019-06-20T14:23:25Z</time>
      </trkpt>
      <trkpt lat="43.603420" lon="-8.145668">
        <ele>47.248</ele>
        <time>2019-06-20T14:23:26Z</time>
      </trkpt>
      <trkpt lat="43.603232" lon="-8.145782">
        <ele>46.722</ele>
        <time>2019-06-20T14:23:27Z</time>
      </trkpt>
      <trkpt lat="43.603049" lon="-8.145890">
        <ele>46.093</ele>
        <time>2019-06-20T14:23:28Z</time>
      </trkpt>
      <trkpt lat="43.602859" lon="-8.145999">
        <ele>44.949</ele>
        <time>2019-06-20T14:23:29Z</time>
      </trkpt>
      <trkpt lat="43.602670" lon="-8.146111">
        <ele>44.436</ele>
        <time>2019-06-20T14:23:30Z</time>
      </trkpt>
      <trkpt lat="43.602477" lon="-8.146220">
        <ele>44.257</ele>
        <time>2019-06-20T14:23:31Z</time>
      </trkpt>
      <trkpt lat="43.602293" lon="-8.146316">
        <ele>43.389</ele>
        <time>2019-06-20T14:23:32Z</time>
      </trkpt>
      <trkpt lat="43.602105" lon="-8.146418">
        <ele>42.156</ele>
        <time>2019-06-20T14:23:33Z</time>
      </trkpt>
      <trkpt lat="43.601923" lon="-8.146534">
        <ele>40.446</ele>
        <time>2019-06-20T14:23:34Z</time>
      </trkpt>
      <trkpt lat="43.601732" lon="-8.146640">
        <ele>39.388</ele>
        <time>2019-06-20T14:23:35Z</time>
      </trkpt>
      <trkpt lat="43.601542" lon="-8.146752">
        <ele>37.816</ele>
        <time>2019-06-20T14:23:36Z</time>
      </trkpt>
      <trkpt lat="43.601352" lon="-8.146867">
        <ele>35.908</ele>
        <time>2019-06-20T14:23:37Z</time>
      </trkpt>
      <trkpt lat="43.601162" lon="-8.146986">
        <ele>33.567</ele>
        <time>2019-06-20T14:23:38Z</time>
      </trkpt>
      <trkpt lat="43.600979" lon="-8.147100">
        <ele>32.571</ele>
        <time>2019-06-20T14:23:39Z</time>
      </trkpt>
      <trkpt lat="43.600785" lon="-8.147216">
        <ele>31.722</ele>
        <time>2019-06-20T14:23:40Z</time>
      </trkpt>
      <trkpt lat="43.600594" lon="-8.147328">
        <ele>30.688</ele>
        <time>2019-06-20T14:23:41Z</time>
      </trkpt>
      <trkpt lat="43.600397" lon="-8.147446">
        <ele>29.885</ele>
        <time>2019-06-20T14:23:42Z</time>
      </trkpt>
      <trkpt lat="43.600203" lon="-8.147557">
        <ele>28.916</ele>
        <time>2019-06-20T14:23:43Z</time>
      </trkpt>
      <trkpt lat="43.600002" lon="-8.147658">
        <ele>28.458</ele>
        <time>2019-06-20T14:23:44Z</time>
      </trkpt>
      <trkpt lat="43.599811" lon="-8.147763">
        <ele>28.185</ele>
        <time>2019-06-20T14:23:45Z</time>
      </trkpt>
      <trkpt lat="43.599630" lon="-8.147879">
        <ele>28.023</ele>
        <time>2019-06-20T14:23:46Z</time>
      </trkpt>
      <trkpt lat="43.599449" lon="-8.147977">
        <ele>28.383</ele>
        <time>2019-06-20T14:23:47Z</time>
      </trkpt>
      <trkpt lat="43.599278" lon="-8.148076">
        <ele>27.411</ele>
        <time>2019-06-20T14:23:48Z</time>
      </trkpt>
      <trkpt lat="43.599107" lon="-8.148171">
        <ele>26.808</ele>
        <time>2019-06-20T14:23:49Z</time>
      </trkpt>
      <trkpt lat="43.598932" lon="-8.148270">
        <ele>26.295</ele>
        <time>2019-06-20T14:23:50Z</time>
      </trkpt>
      <trkpt lat="43.598755" lon="-8.148371">
        <ele>26.049</ele>
        <time>2019-06-20T14:23:51Z</time>
      </trkpt>
      <trkpt lat="43.598580" lon="-8.148474">
        <ele>25.990</ele>
        <time>2019-06-20T14:23:52Z</time>
      </trkpt>
      <trkpt lat="43.598411" lon="-8.148569">
        <ele>25.396</ele>
        <time>2019-06-20T14:23:53Z</time>
      </trkpt>
      <trkpt lat="43.598248" lon="-8.148664">
        <ele>24.283</ele>
        <time>2019-06-20T14:23:54Z</time>
      </trkpt>
      <trkpt lat="43.598083" lon="-8.148766">
        <ele>22.674</ele>
        <time>2019-06-20T14:23:55Z</time>
      </trkpt>
      <trkpt lat="43.597908" lon="-8.148868">
        <ele>21.096</ele>
        <time>2019-06-20T14:23:56Z</time>
      </trkpt>
      <trkpt lat="43.597746" lon="-8.148961">
        <ele>19.723</ele>
        <time>2019-06-20T14:23:57Z</time>
      </trkpt>
      <trkpt lat="43.597579" lon="-8.149053">
        <ele>19.065</ele>
        <time>2019-06-20T14:23:58Z</time>
      </trkpt>
      <trkpt lat="43.597417" lon="-8.149141">
        <ele>18.168</ele>
        <time>2019-06-20T14:23:59Z</time>
      </trkpt>
      <trkpt lat="43.597260" lon="-8.149243">
        <ele>17.514</ele>
        <time>2019-06-20T14:24:00Z</time>
      </trkpt>
      <trkpt lat="43.597109" lon="-8.149346">
        <ele>16.208</ele>
        <time>2019-06-20T14:24:01Z</time>
      </trkpt>
      <trkpt lat="43.596960" lon="-8.149421">
        <ele>15.189</ele>
        <time>2019-06-20T14:24:02Z</time>
      </trkpt>
      <trkpt lat="43.596812" lon="-8.149511">
        <ele>14.463</ele>
        <time>2019-06-20T14:24:03Z</time>
      </trkpt>
      <trkpt lat="43.596675" lon="-8.149595">
        <ele>14.054</ele>
        <time>2019-06-20T14:24:04Z</time>
      </trkpt>
      <trkpt lat="43.596566" lon="-8.149653">
        <ele>14.090</ele>
        <time>2019-06-20T14:24:05Z</time>
      </trkpt>
      <trkpt lat="43.596469" lon="-8.149714">
        <ele>14.027</ele>
        <time>2019-06-20T14:24:06Z</time>
      </trkpt>
      <trkpt lat="43.596373" lon="-8.149781">
        <ele>14.018</ele>
        <time>2019-06-20T14:24:07Z</time>
      </trkpt>
      <trkpt lat="43.596283" lon="-8.149854">
        <ele>14.030</ele>
        <time>2019-06-20T14:24:08Z</time>
      </trkpt>
      <trkpt lat="43.596237" lon="-8.149919">
        <ele>14.017</ele>
        <time>2019-06-20T14:24:09Z</time>
      </trkpt>
      <trkpt lat="43.596176" lon="-8.149982">
        <ele>14.092</ele>
        <time>2019-06-20T14:24:10Z</time>
      </trkpt>
      <trkpt lat="43.596144" lon="-8.150083">
        <ele>13.773</ele>
        <time>2019-06-20T14:24:11Z</time>
      </trkpt>
      <trkpt lat="43.596112" lon="-8.150195">
        <ele>13.320</ele>
        <time>2019-06-20T14:24:12Z</time>
      </trkpt>
      <trkpt lat="43.596087" lon="-8.150319">
        <ele>12.908</ele>
        <time>2019-06-20T14:24:13Z</time>
      </trkpt>
      <trkpt lat="43.596105" lon="-8.150461">
        <ele>12.312</ele>
        <time>2019-06-20T14:24:14Z</time>
      </trkpt>
      <trkpt lat="43.596126" lon="-8.150632">
        <ele>11.736</ele>
        <time>2019-06-20T14:24:15Z</time>
      </trkpt>
      <trkpt lat="43.596214" lon="-8.150861">
        <ele>10.927</ele>
        <time>2019-06-20T14:24:16Z</time>
      </trkpt>
      <trkpt lat="43.596244" lon="-8.151075">
        <ele>10.113</ele>
        <time>2019-06-20T14:24:17Z</time>
      </trkpt>
      <trkpt lat="43.596272" lon="-8.151299">
        <ele>10.020</ele>
        <time>2019-06-20T14:24:18Z</time>
      </trkpt>
      <trkpt lat="43.596289" lon="-8.151533">
        <ele>10.091</ele>
        <time>2019-06-20T14:24:19Z</time>
      </trkpt>
      <trkpt lat="43.596291" lon="-8.151804">
        <ele>9.873</ele>
        <time>2019-06-20T14:24:20Z</time>
      </trkpt>
      <trkpt lat="43.596290" lon="-8.152085">
        <ele>9.120</ele>
        <time>2019-06-20T14:24:21Z</time>
      </trkpt>
      <trkpt lat="43.596289" lon="-8.152359">
        <ele>7.737</ele>
        <time>2019-06-20T14:24:22Z</time>
      </trkpt>
      <trkpt lat="43.596286" lon="-8.152647">
        <ele>6.649</ele>
        <time>2019-06-20T14:24:23Z</time>
      </trkpt>
      <trkpt lat="43.596280" lon="-8.152941">
        <ele>6.313</ele>
        <time>2019-06-20T14:24:24Z</time>
      </trkpt>
      <trkpt lat="43.596272" lon="-8.153241">
        <ele>5.308</ele>
        <time>2019-06-20T14:24:25Z</time>
      </trkpt>
      <trkpt lat="43.596267" lon="-8.153552">
        <ele>5.076</ele>
        <time>2019-06-20T14:24:26Z</time>
      </trkpt>
      <trkpt lat="43.596263" lon="-8.153865">
        <ele>4.620</ele>
        <time>2019-06-20T14:24:27Z</time>
      </trkpt>
      <trkpt lat="43.596254" lon="-8.154177">
        <ele>4.541</ele>
        <time>2019-06-20T14:24:28Z</time>
      </trkpt>
      <trkpt lat="43.596247" lon="-8.154500">
        <ele>4.497</ele>
        <time>2019-06-20T14:24:29Z</time>
      </trkpt>
      <trkpt lat="43.596242" lon="-8.154834">
        <ele>4.234</ele>
        <time>2019-06-20T14:24:30Z</time>
      </trkpt>
      <trkpt lat="43.596240" lon="-8.155159">
        <ele>5.125</ele>
        <time>2019-06-20T14:24:31Z</time>
      </trkpt>
      <trkpt lat="43.596236" lon="-8.155481">
        <ele>7.087</ele>
        <time>2019-06-20T14:24:32Z</time>
      </trkpt>
      <trkpt lat="43.596231" lon="-8.155808">
        <ele>9.454</ele>
        <time>2019-06-20T14:24:33Z</time>
      </trkpt>
      <trkpt lat="43.596224" lon="-8.156129">
        <ele>9.636</ele>
        <time>2019-06-20T14:24:34Z</time>
      </trkpt>
      <trkpt lat="43.596215" lon="-8.156449">
        <ele>10.017</ele>
        <time>2019-06-20T14:24:35Z</time>
      </trkpt>
      <trkpt lat="43.596207" lon="-8.156760">
        <ele>10.218</ele>
        <time>2019-06-20T14:24:36Z</time>
      </trkpt>
      <trkpt lat="43.596196" lon="-8.157073">
        <ele>8.908</ele>
        <time>2019-06-20T14:24:37Z</time>
      </trkpt>
      <trkpt lat="43.596176" lon="-8.157363">
        <ele>8.096</ele>
        <time>2019-06-20T14:24:38Z</time>
      </trkpt>
      <trkpt lat="43.596130" lon="-8.157646">
        <ele>8.460</ele>
        <time>2019-06-20T14:24:39Z</time>
      </trkpt>
      <trkpt lat="43.596087" lon="-8.157940">
        <ele>8.731</ele>
        <time>2019-06-20T14:24:40Z</time>
      </trkpt>
      <trkpt lat="43.596031" lon="-8.158256">
        <ele>7.467</ele>
        <time>2019-06-20T14:24:41Z</time>
      </trkpt>
      <trkpt lat="43.595978" lon="-8.158558">
        <ele>7.424</ele>
        <time>2019-06-20T14:24:42Z</time>
      </trkpt>
      <trkpt lat="43.595909" lon="-8.158853">
        <ele>8.625</ele>
        <time>2019-06-20T14:24:43Z</time>
      </trkpt>
      <trkpt lat="43.595843" lon="-8.159140">
        <ele>9.897</ele>
        <time>2019-06-20T14:24:44Z</time>
      </trkpt>
      <trkpt lat="43.595780" lon="-8.159428">
        <ele>11.774</ele>
        <time>2019-06-20T14:24:45Z</time>
      </trkpt>
      <trkpt lat="43.595718" lon="-8.159702">
        <ele>14.171</ele>
        <time>2019-06-20T14:24:46Z</time>
      </trkpt>
      <trkpt lat="43.595655" lon="-8.159980">
        <ele>14.941</ele>
        <time>2019-06-20T14:24:47Z</time>
      </trkpt>
      <trkpt lat="43.595597" lon="-8.160250">
        <ele>15.415</ele>
        <time>2019-06-20T14:24:48Z</time>
      </trkpt>
      <trkpt lat="43.595554" lon="-8.160507">
        <ele>15.208</ele>
        <time>2019-06-20T14:24:49Z</time>
      </trkpt>
      <trkpt lat="43.595484" lon="-8.160773">
        <ele>16.020</ele>
        <time>2019-06-20T14:24:50Z</time>
      </trkpt>
      <trkpt lat="43.595427" lon="-8.161040">
        <ele>17.374</ele>
        <time>2019-06-20T14:24:51Z</time>
      </trkpt>
      <trkpt lat="43.595340" lon="-8.161314">
        <ele>18.545</ele>
        <time>2019-06-20T14:24:52Z</time>
      </trkpt>
      <trkpt lat="43.595233" lon="-8.161578">
        <ele>17.641</ele>
        <time>2019-06-20T14:24:53Z</time>
      </trkpt>
      <trkpt lat="43.595122" lon="-8.161841">
        <ele>16.228</ele>
        <time>2019-06-20T14:24:54Z</time>
      </trkpt>
      <trkpt lat="43.595007" lon="-8.162105">
        <ele>16.379</ele>
        <time>2019-06-20T14:24:55Z</time>
      </trkpt>
      <trkpt lat="43.594887" lon="-8.162367">
        <ele>16.661</ele>
        <time>2019-06-20T14:24:56Z</time>
      </trkpt>
      <trkpt lat="43.594770" lon="-8.162638">
        <ele>16.378</ele>
        <time>2019-06-20T14:24:57Z</time>
      </trkpt>
      <trkpt lat="43.594652" lon="-8.162906">
        <ele>16.547</ele>
        <time>2019-06-20T14:24:58Z</time>
      </trkpt>
      <trkpt lat="43.594536" lon="-8.163169">
        <ele>16.929</ele>
        <time>2019-06-20T14:24:59Z</time>
      </trkpt>
      <trkpt lat="43.594430" lon="-8.163422">
        <ele>17.121</ele>
        <time>2019-06-20T14:25:00Z</time>
      </trkpt>
      <trkpt lat="43.594331" lon="-8.163661">
        <ele>17.708</ele>
        <time>2019-06-20T14:25:01Z</time>
      </trkpt>
      <trkpt lat="43.594224" lon="-8.163896">
        <ele>18.447</ele>
        <time>2019-06-20T14:25:02Z</time>
      </trkpt>
      <trkpt lat="43.594124" lon="-8.164111">
        <ele>19.371</ele>
        <time>2019-06-20T14:25:03Z</time>
      </trkpt>
      <trkpt lat="43.594029" lon="-8.164322">
        <ele>19.762</ele>
        <time>2019-06-20T14:25:04Z</time>
      </trkpt>
      <trkpt lat="43.593940" lon="-8.164529">
        <ele>20.228</ele>
        <time>2019-06-20T14:25:05Z</time>
      </trkpt>
      <trkpt lat="43.593868" lon="-8.164701">
        <ele>20.315</ele>
        <time>2019-06-20T14:25:06Z</time>
      </trkpt>
      <trkpt lat="43.593788" lon="-8.164883">
        <ele>21.026</ele>
        <time>2019-06-20T14:25:07Z</time>
      </trkpt>
      <trkpt lat="43.593712" lon="-8.165053">
        <ele>20.898</ele>
        <time>2019-06-20T14:25:08Z</time>
      </trkpt>
      <trkpt lat="43.593638" lon="-8.165216">
        <ele>20.235</ele>
        <time>2019-06-20T14:25:09Z</time>
      </trkpt>
      <trkpt lat="43.593570" lon="-8.165367">
        <ele>19.755</ele>
        <time>2019-06-20T14:25:10Z</time>
      </trkpt>
      <trkpt lat="43.593507" lon="-8.165512">
        <ele>19.507</ele>
        <time>2019-06-20T14:25:11Z</time>
      </trkpt>
      <trkpt lat="43.593447" lon="-8.165647">
        <ele>19.417</ele>
        <time>2019-06-20T14:25:12Z</time>
      </trkpt>
      <trkpt lat="43.593407" lon="-8.165759">
        <ele>19.208</ele>
        <time>2019-06-20T14:25:13Z</time>
      </trkpt>
      <trkpt lat="43.593378" lon="-8.165857">
        <ele>19.048</ele>
        <time>2019-06-20T14:25:14Z</time>
      </trkpt>
      <trkpt lat="43.593359" lon="-8.165959">
        <ele>19.022</ele>
        <time>2019-06-20T14:25:15Z</time>
      </trkpt>
      <trkpt lat="43.593329" lon="-8.166064">
        <ele>19.033</ele>
        <time>2019-06-20T14:25:16Z</time>
      </trkpt>
      <trkpt lat="43.593290" lon="-8.166162">
        <ele>19.499</ele>
        <time>2019-06-20T14:25:17Z</time>
      </trkpt>
      <trkpt lat="43.593202" lon="-8.166283">
        <ele>20.066</ele>
        <time>2019-06-20T14:25:18Z</time>
      </trkpt>
      <trkpt lat="43.593125" lon="-8.166406">
        <ele>20.077</ele>
        <time>2019-06-20T14:25:19Z</time>
      </trkpt>
      <trkpt lat="43.593038" lon="-8.166576">
        <ele>20.199</ele>
        <time>2019-06-20T14:25:20Z</time>
      </trkpt>
      <trkpt lat="43.592957" lon="-8.166750">
        <ele>20.486</ele>
        <time>2019-06-20T14:25:21Z</time>
      </trkpt>
      <trkpt lat="43.592872" lon="-8.166944">
        <ele>20.752</ele>
        <time>2019-06-20T14:25:22Z</time>
      </trkpt>
      <trkpt lat="43.592779" lon="-8.167145">
        <ele>21.753</ele>
        <time>2019-06-20T14:25:23Z</time>
      </trkpt>
      <trkpt lat="43.592684" lon="-8.167356">
        <ele>22.508</ele>
        <time>2019-06-20T14:25:24Z</time>
      </trkpt>
      <trkpt lat="43.592580" lon="-8.167578">
        <ele>23.608</ele>
        <time>2019-06-20T14:25:25Z</time>
      </trkpt>
      <trkpt lat="43.592478" lon="-8.167810">
        <ele>25.478</ele>
        <time>2019-06-20T14:25:26Z</time>
      </trkpt>
      <trkpt lat="43.592379" lon="-8.168037">
        <ele>27.282</ele>
        <time>2019-06-20T14:25:27Z</time>
      </trkpt>
      <trkpt lat="43.592273" lon="-8.168272">
        <ele>28.663</ele>
        <time>2019-06-20T14:25:28Z</time>
      </trkpt>
      <trkpt lat="43.592168" lon="-8.168512">
        <ele>29.439</ele>
        <time>2019-06-20T14:25:29Z</time>
      </trkpt>
      <trkpt lat="43.592062" lon="-8.168758">
        <ele>30.276</ele>
        <time>2019-06-20T14:25:30Z</time>
      </trkpt>
      <trkpt lat="43.591954" lon="-8.169008">
        <ele>30.957</ele>
        <time>2019-06-20T14:25:31Z</time>
      </trkpt>
      <trkpt lat="43.591849" lon="-8.169254">
        <ele>31.529</ele>
        <time>2019-06-20T14:25:32Z</time>
      </trkpt>
      <trkpt lat="43.591741" lon="-8.169498">
        <ele>32.726</ele>
        <time>2019-06-20T14:25:33Z</time>
      </trkpt>
      <trkpt lat="43.591633" lon="-8.169740">
        <ele>34.271</ele>
        <time>2019-06-20T14:25:34Z</time>
      </trkpt>
      <trkpt lat="43.591527" lon="-8.169979">
        <ele>35.441</ele>
        <time>2019-06-20T14:25:35Z</time>
      </trkpt>
      <trkpt lat="43.591424" lon="-8.170212">
        <ele>36.515</ele>
        <time>2019-06-20T14:25:36Z</time>
      </trkpt>
      <trkpt lat="43.591325" lon="-8.170438">
        <ele>37.308</ele>
        <time>2019-06-20T14:25:37Z</time>
      </trkpt>
      <trkpt lat="43.591230" lon="-8.170659">
        <ele>37.970</ele>
        <time>2019-06-20T14:25:38Z</time>
      </trkpt>
      <trkpt lat="43.591131" lon="-8.170870">
        <ele>38.124</ele>
        <time>2019-06-20T14:25:39Z</time>
      </trkpt>
      <trkpt lat="43.591038" lon="-8.171079">
        <ele>38.915</ele>
        <time>2019-06-20T14:25:40Z</time>
      </trkpt>
      <trkpt lat="43.590950" lon="-8.171282">
        <ele>39.481</ele>
        <time>2019-06-20T14:25:41Z</time>
      </trkpt>
      <trkpt lat="43.590858" lon="-8.171483">
        <ele>39.918</ele>
        <time>2019-06-20T14:25:42Z</time>
      </trkpt>
      <trkpt lat="43.590766" lon="-8.171688">
        <ele>40.259</ele>
        <time>2019-06-20T14:25:43Z</time>
      </trkpt>
      <trkpt lat="43.590668" lon="-8.171897">
        <ele>40.151</ele>
        <time>2019-06-20T14:25:44Z</time>
      </trkpt>
      <trkpt lat="43.590568" lon="-8.172107">
        <ele>40.088</ele>
        <time>2019-06-20T14:25:45Z</time>
      </trkpt>
      <trkpt lat="43.590463" lon="-8.172318">
        <ele>40.165</ele>
        <time>2019-06-20T14:25:46Z</time>
      </trkpt>
      <trkpt lat="43.590354" lon="-8.172520">
        <ele>40.468</ele>
        <time>2019-06-20T14:25:47Z</time>
      </trkpt>
      <trkpt lat="43.590233" lon="-8.172726">
        <ele>40.314</ele>
        <time>2019-06-20T14:25:48Z</time>
      </trkpt>
      <trkpt lat="43.590109" lon="-8.172930">
        <ele>40.308</ele>
        <time>2019-06-20T14:25:49Z</time>
      </trkpt>
      <trkpt lat="43.589981" lon="-8.173138">
        <ele>40.099</ele>
        <time>2019-06-20T14:25:50Z</time>
      </trkpt>
      <trkpt lat="43.589851" lon="-8.173339">
        <ele>40.043</ele>
        <time>2019-06-20T14:25:51Z</time>
      </trkpt>
      <trkpt lat="43.589715" lon="-8.173549">
        <ele>38.464</ele>
        <time>2019-06-20T14:25:52Z</time>
      </trkpt>
      <trkpt lat="43.589581" lon="-8.173761">
        <ele>37.230</ele>
        <time>2019-06-20T14:25:53Z</time>
      </trkpt>
      <trkpt lat="43.589450" lon="-8.173973">
        <ele>35.767</ele>
        <time>2019-06-20T14:25:54Z</time>
      </trkpt>
      <trkpt lat="43.589316" lon="-8.174180">
        <ele>35.048</ele>
        <time>2019-06-20T14:25:55Z</time>
      </trkpt>
      <trkpt lat="43.589186" lon="-8.174390">
        <ele>35.070</ele>
        <time>2019-06-20T14:25:56Z</time>
      </trkpt>
      <trkpt lat="43.589052" lon="-8.174593">
        <ele>35.287</ele>
        <time>2019-06-20T14:25:57Z</time>
      </trkpt>
      <trkpt lat="43.588919" lon="-8.174794">
        <ele>34.776</ele>
        <time>2019-06-20T14:25:58Z</time>
      </trkpt>
      <trkpt lat="43.588784" lon="-8.175003">
        <ele>34.090</ele>
        <time>2019-06-20T14:25:59Z</time>
      </trkpt>
      <trkpt lat="43.588647" lon="-8.175212">
        <ele>32.619</ele>
        <time>2019-06-20T14:26:00Z</time>
      </trkpt>
      <trkpt lat="43.588509" lon="-8.175423">
        <ele>31.508</ele>
        <time>2019-06-20T14:26:01Z</time>
      </trkpt>
      <trkpt lat="43.588370" lon="-8.175635">
        <ele>31.070</ele>
        <time>2019-06-20T14:26:02Z</time>
      </trkpt>
      <trkpt lat="43.588232" lon="-8.175847">
        <ele>31.414</ele>
        <time>2019-06-20T14:26:03Z</time>
      </trkpt>
      <trkpt lat="43.588097" lon="-8.176052">
        <ele>31.985</ele>
        <time>2019-06-20T14:26:04Z</time>
      </trkpt>
      <trkpt lat="43.587963" lon="-8.176264">
        <ele>32.121</ele>
        <time>2019-06-20T14:26:05Z</time>
      </trkpt>
      <trkpt lat="43.587827" lon="-8.176468">
        <ele>31.778</ele>
        <time>2019-06-20T14:26:06Z</time>
      </trkpt>
      <trkpt lat="43.587691" lon="-8.176656">
        <ele>30.739</ele>
        <time>2019-06-20T14:26:07Z</time>
      </trkpt>
      <trkpt lat="43.587557" lon="-8.176875">
        <ele>29.371</ele>
        <time>2019-06-20T14:26:08Z</time>
      </trkpt>
      <trkpt lat="43.587419" lon="-8.177092">
        <ele>27.918</ele>
        <time>2019-06-20T14:26:09Z</time>
      </trkpt>
      <trkpt lat="43.587277" lon="-8.177313">
        <ele>26.753</ele>
        <time>2019-06-20T14:26:10Z</time>
      </trkpt>
      <trkpt lat="43.587143" lon="-8.177526">
        <ele>26.604</ele>
        <time>2019-06-20T14:26:11Z</time>
      </trkpt>
      <trkpt lat="43.587002" lon="-8.177735">
        <ele>27.614</ele>
        <time>2019-06-20T14:26:12Z</time>
      </trkpt>
      <trkpt lat="43.586863" lon="-8.177936">
        <ele>28.708</ele>
        <time>2019-06-20T14:26:13Z</time>
      </trkpt>
      <trkpt lat="43.586731" lon="-8.178112">
        <ele>29.468</ele>
        <time>2019-06-20T14:26:14Z</time>
      </trkpt>
      <trkpt lat="43.586595" lon="-8.178287">
        <ele>29.782</ele>
        <time>2019-06-20T14:26:15Z</time>
      </trkpt>
      <trkpt lat="43.586463" lon="-8.178448">
        <ele>30.343</ele>
        <time>2019-06-20T14:26:16Z</time>
      </trkpt>
      <trkpt lat="43.586329" lon="-8.178603">
        <ele>30.379</ele>
        <time>2019-06-20T14:26:17Z</time>
      </trkpt>
      <trkpt lat="43.586187" lon="-8.178758">
        <ele>30.346</ele>
        <time>2019-06-20T14:26:18Z</time>
      </trkpt>
      <trkpt lat="43.586047" lon="-8.178910">
        <ele>30.567</ele>
        <time>2019-06-20T14:26:19Z</time>
      </trkpt>
      <trkpt lat="43.585901" lon="-8.179068">
        <ele>31.219</ele>
        <time>2019-06-20T14:26:20Z</time>
      </trkpt>
      <trkpt lat="43.585755" lon="-8.179231">
        <ele>30.986</ele>
        <time>2019-06-20T14:26:21Z</time>
      </trkpt>
      <trkpt lat="43.585615" lon="-8.179391">
        <ele>30.418</ele>
        <time>2019-06-20T14:26:22Z</time>
      </trkpt>
      <trkpt lat="43.585478" lon="-8.179538">
        <ele>30.098</ele>
        <time>2019-06-20T14:26:23Z</time>
      </trkpt>
      <trkpt lat="43.585341" lon="-8.179687">
        <ele>30.017</ele>
        <time>2019-06-20T14:26:24Z</time>
      </trkpt>
      <trkpt lat="43.585209" lon="-8.179830">
        <ele>30.008</ele>
        <time>2019-06-20T14:26:25Z</time>
      </trkpt>
      <trkpt lat="43.585083" lon="-8.179968">
        <ele>30.094</ele>
        <time>2019-06-20T14:26:26Z</time>
      </trkpt>
      <trkpt lat="43.584967" lon="-8.180100">
        <ele>30.128</ele>
        <time>2019-06-20T14:26:27Z</time>
      </trkpt>
      <trkpt lat="43.584860" lon="-8.180214">
        <ele>30.599</ele>
        <time>2019-06-20T14:26:28Z</time>
      </trkpt>
      <trkpt lat="43.584761" lon="-8.180314">
        <ele>31.185</ele>
        <time>2019-06-20T14:26:29Z</time>
      </trkpt>
      <trkpt lat="43.584680" lon="-8.180414">
        <ele>32.492</ele>
        <time>2019-06-20T14:26:30Z</time>
      </trkpt>
      <trkpt lat="43.584610" lon="-8.180485">
        <ele>33.773</ele>
        <time>2019-06-20T14:26:31Z</time>
      </trkpt>
      <trkpt lat="43.584601" lon="-8.180547">
        <ele>34.245</ele>
        <time>2019-06-20T14:26:32Z</time>
      </trkpt>
      <trkpt lat="43.584598" lon="-8.180653">
        <ele>34.932</ele>
        <time>2019-06-20T14:26:34Z</time>
      </trkpt>
      <trkpt lat="43.584626" lon="-8.180720">
        <ele>35.292</ele>
        <time>2019-06-20T14:26:35Z</time>
      </trkpt>
      <trkpt lat="43.584647" lon="-8.180786">
        <ele>35.673</ele>
        <time>2019-06-20T14:26:36Z</time>
      </trkpt>
      <trkpt lat="43.584740" lon="-8.180851">
        <ele>36.020</ele>
        <time>2019-06-20T14:26:37Z</time>
      </trkpt>
      <trkpt lat="43.584818" lon="-8.180914">
        <ele>36.008</ele>
        <time>2019-06-20T14:26:38Z</time>
      </trkpt>
      <trkpt lat="43.584918" lon="-8.180941">
        <ele>36.022</ele>
        <time>2019-06-20T14:26:39Z</time>
      </trkpt>
      <trkpt lat="43.585042" lon="-8.180976">
        <ele>36.086</ele>
        <time>2019-06-20T14:26:40Z</time>
      </trkpt>
      <trkpt lat="43.585179" lon="-8.181039">
        <ele>36.027</ele>
        <time>2019-06-20T14:26:41Z</time>
      </trkpt>
      <trkpt lat="43.585342" lon="-8.181069">
        <ele>35.463</ele>
        <time>2019-06-20T14:26:42Z</time>
      </trkpt>
      <trkpt lat="43.585492" lon="-8.181103">
        <ele>34.570</ele>
        <time>2019-06-20T14:26:43Z</time>
      </trkpt>
      <trkpt lat="43.585679" lon="-8.181136">
        <ele>33.141</ele>
        <time>2019-06-20T14:26:44Z</time>
      </trkpt>
      <trkpt lat="43.585842" lon="-8.181172">
        <ele>32.013</ele>
        <time>2019-06-20T14:26:45Z</time>
      </trkpt>
      <trkpt lat="43.586011" lon="-8.181223">
        <ele>32.020</ele>
        <time>2019-06-20T14:26:46Z</time>
      </trkpt>
      <trkpt lat="43.586184" lon="-8.181260">
        <ele>32.111</ele>
        <time>2019-06-20T14:26:47Z</time>
      </trkpt>
      <trkpt lat="43.586346" lon="-8.181318">
        <ele>32.621</ele>
        <time>2019-06-20T14:26:48Z</time>
      </trkpt>
      <trkpt lat="43.586525" lon="-8.181367">
        <ele>32.903</ele>
        <time>2019-06-20T14:26:49Z</time>
      </trkpt>
      <trkpt lat="43.586717" lon="-8.181413">
        <ele>32.708</ele>
        <time>2019-06-20T14:26:50Z</time>
      </trkpt>
      <trkpt lat="43.586908" lon="-8.181450">
        <ele>31.524</ele>
        <time>2019-06-20T14:26:51Z</time>
      </trkpt>
      <trkpt lat="43.587106" lon="-8.181495">
        <ele>30.618</ele>
        <time>2019-06-20T14:26:52Z</time>
      </trkpt>
      <trkpt lat="43.587301" lon="-8.181533">
        <ele>29.979</ele>
        <time>2019-06-20T14:26:53Z</time>
      </trkpt>
      <trkpt lat="43.587481" lon="-8.181576">
        <ele>29.455</ele>
        <time>2019-06-20T14:26:54Z</time>
      </trkpt>
      <trkpt lat="43.587674" lon="-8.181617">
        <ele>28.752</ele>
        <time>2019-06-20T14:26:55Z</time>
      </trkpt>
      <trkpt lat="43.587860" lon="-8.181640">
        <ele>28.163</ele>
        <time>2019-06-20T14:26:56Z</time>
      </trkpt>
      <trkpt lat="43.588052" lon="-8.181686">
        <ele>28.065</ele>
        <time>2019-06-20T14:26:57Z</time>
      </trkpt>
      <trkpt lat="43.588252" lon="-8.181727">
        <ele>27.412</ele>
        <time>2019-06-20T14:26:58Z</time>
      </trkpt>
      <trkpt lat="43.588446" lon="-8.181762">
        <ele>26.732</ele>
        <time>2019-06-20T14:26:59Z</time>
      </trkpt>
      <trkpt lat="43.588644" lon="-8.181807">
        <ele>26.092</ele>
        <time>2019-06-20T14:27:00Z</time>
      </trkpt>
      <trkpt lat="43.588845" lon="-8.181846">
        <ele>25.711</ele>
        <time>2019-06-20T14:27:01Z</time>
      </trkpt>
      <trkpt lat="43.589042" lon="-8.181883">
        <ele>26.208</ele>
        <time>2019-06-20T14:27:02Z</time>
      </trkpt>
      <trkpt lat="43.589241" lon="-8.181915">
        <ele>26.856</ele>
        <time>2019-06-20T14:27:03Z</time>
      </trkpt>
      <trkpt lat="43.589430" lon="-8.181960">
        <ele>27.180</ele>
        <time>2019-06-20T14:27:04Z</time>
      </trkpt>
      <trkpt lat="43.589623" lon="-8.182004">
        <ele>26.811</ele>
        <time>2019-06-20T14:27:05Z</time>
      </trkpt>
      <trkpt lat="43.589818" lon="-8.182041">
        <ele>26.027</ele>
        <time>2019-06-20T14:27:06Z</time>
      </trkpt>
      <trkpt lat="43.589986" lon="-8.182070">
        <ele>25.094</ele>
        <time>2019-06-20T14:27:07Z</time>
      </trkpt>
      <trkpt lat="43.590163" lon="-8.182112">
        <ele>25.825</ele>
        <time>2019-06-20T14:27:08Z</time>
      </trkpt>
      <trkpt lat="43.590344" lon="-8.182149">
        <ele>26.667</ele>
        <time>2019-06-20T14:27:09Z</time>
      </trkpt>
      <trkpt lat="43.590535" lon="-8.182198">
        <ele>27.764</ele>
        <time>2019-06-20T14:27:10Z</time>
      </trkpt>
      <trkpt lat="43.590732" lon="-8.182244">
        <ele>26.193</ele>
        <time>2019-06-20T14:27:11Z</time>
      </trkpt>
      <trkpt lat="43.590932" lon="-8.182277">
        <ele>24.565</ele>
        <time>2019-06-20T14:27:12Z</time>
      </trkpt>
      <trkpt lat="43.591134" lon="-8.182323">
        <ele>23.321</ele>
        <time>2019-06-20T14:27:13Z</time>
      </trkpt>
      <trkpt lat="43.591332" lon="-8.182377">
        <ele>22.308</ele>
        <time>2019-06-20T14:27:14Z</time>
      </trkpt>
      <trkpt lat="43.591531" lon="-8.182417">
        <ele>22.452</ele>
        <time>2019-06-20T14:27:15Z</time>
      </trkpt>
      <trkpt lat="43.591738" lon="-8.182461">
        <ele>22.986</ele>
        <time>2019-06-20T14:27:16Z</time>
      </trkpt>
      <trkpt lat="43.591947" lon="-8.182495">
        <ele>23.087</ele>
        <time>2019-06-20T14:27:17Z</time>
      </trkpt>
      <trkpt lat="43.592156" lon="-8.182534">
        <ele>25.443</ele>
        <time>2019-06-20T14:27:18Z</time>
      </trkpt>
      <trkpt lat="43.592355" lon="-8.182570">
        <ele>26.780</ele>
        <time>2019-06-20T14:27:19Z</time>
      </trkpt>
      <trkpt lat="43.592553" lon="-8.182614">
        <ele>27.441</ele>
        <time>2019-06-20T14:27:20Z</time>
      </trkpt>
      <trkpt lat="43.592749" lon="-8.182658">
        <ele>27.693</ele>
        <time>2019-06-20T14:27:21Z</time>
      </trkpt>
      <trkpt lat="43.592946" lon="-8.182707">
        <ele>27.680</ele>
        <time>2019-06-20T14:27:22Z</time>
      </trkpt>
      <trkpt lat="43.593141" lon="-8.182754">
        <ele>27.865</ele>
        <time>2019-06-20T14:27:23Z</time>
      </trkpt>
      <trkpt lat="43.593305" lon="-8.182818">
        <ele>28.168</ele>
        <time>2019-06-20T14:27:24Z</time>
      </trkpt>
      <trkpt lat="43.593485" lon="-8.182895">
        <ele>27.914</ele>
        <time>2019-06-20T14:27:25Z</time>
      </trkpt>
      <trkpt lat="43.593673" lon="-8.182963">
        <ele>27.208</ele>
        <time>2019-06-20T14:27:26Z</time>
      </trkpt>
      <trkpt lat="43.593863" lon="-8.183021">
        <ele>26.189</ele>
        <time>2019-06-20T14:27:27Z</time>
      </trkpt>
      <trkpt lat="43.594052" lon="-8.183078">
        <ele>25.693</ele>
        <time>2019-06-20T14:27:28Z</time>
      </trkpt>
      <trkpt lat="43.594245" lon="-8.183133">
        <ele>25.564</ele>
        <time>2019-06-20T14:27:29Z</time>
      </trkpt>
      <trkpt lat="43.594422" lon="-8.183185">
        <ele>25.590</ele>
        <time>2019-06-20T14:27:30Z</time>
      </trkpt>
      <trkpt lat="43.594605" lon="-8.183242">
        <ele>25.787</ele>
        <time>2019-06-20T14:27:31Z</time>
      </trkpt>
      <trkpt lat="43.594747" lon="-8.183304">
        <ele>25.998</ele>
        <time>2019-06-20T14:27:32Z</time>
      </trkpt>
      <trkpt lat="43.594908" lon="-8.183358">
        <ele>26.160</ele>
        <time>2019-06-20T14:27:33Z</time>
      </trkpt>
      <trkpt lat="43.595073" lon="-8.183405">
        <ele>26.377</ele>
        <time>2019-06-20T14:27:34Z</time>
      </trkpt>
      <trkpt lat="43.595220" lon="-8.183456">
        <ele>26.439</ele>
        <time>2019-06-20T14:27:35Z</time>
      </trkpt>
      <trkpt lat="43.595377" lon="-8.183511">
        <ele>27.001</ele>
        <time>2019-06-20T14:27:36Z</time>
      </trkpt>
      <trkpt lat="43.595535" lon="-8.183571">
        <ele>27.821</ele>
        <time>2019-06-20T14:27:37Z</time>
      </trkpt>
      <trkpt lat="43.595678" lon="-8.183628">
        <ele>28.508</ele>
        <time>2019-06-20T14:27:38Z</time>
      </trkpt>
      <trkpt lat="43.595834" lon="-8.183676">
        <ele>29.266</ele>
        <time>2019-06-20T14:27:39Z</time>
      </trkpt>
      <trkpt lat="43.595976" lon="-8.183722">
        <ele>29.680</ele>
        <time>2019-06-20T14:27:40Z</time>
      </trkpt>
      <trkpt lat="43.596082" lon="-8.183768">
        <ele>30.151</ele>
        <time>2019-06-20T14:27:41Z</time>
      </trkpt>
      <trkpt lat="43.596210" lon="-8.183810">
        <ele>30.287</ele>
        <time>2019-06-20T14:27:42Z</time>
      </trkpt>
      <trkpt lat="43.596336" lon="-8.183841">
        <ele>30.094</ele>
        <time>2019-06-20T14:27:43Z</time>
      </trkpt>
      <trkpt lat="43.596464" lon="-8.183867">
        <ele>29.945</ele>
        <time>2019-06-20T14:27:44Z</time>
      </trkpt>
      <trkpt lat="43.596552" lon="-8.183894">
        <ele>30.027</ele>
        <time>2019-06-20T14:27:45Z</time>
      </trkpt>
      <trkpt lat="43.596637" lon="-8.183921">
        <ele>30.094</ele>
        <time>2019-06-20T14:27:46Z</time>
      </trkpt>
      <trkpt lat="43.596712" lon="-8.183954">
        <ele>30.118</ele>
        <time>2019-06-20T14:27:47Z</time>
      </trkpt>
      <trkpt lat="43.596783" lon="-8.183974">
        <ele>30.398</ele>
        <time>2019-06-20T14:27:48Z</time>
      </trkpt>
      <trkpt lat="43.596858" lon="-8.184001">
        <ele>30.617</ele>
        <time>2019-06-20T14:27:49Z</time>
      </trkpt>
      <trkpt lat="43.596928" lon="-8.184021">
        <ele>30.908</ele>
        <time>2019-06-20T14:27:50Z</time>
      </trkpt>
      <trkpt lat="43.596993" lon="-8.184049">
        <ele>31.434</ele>
        <time>2019-06-20T14:27:51Z</time>
      </trkpt>
      <trkpt lat="43.597058" lon="-8.184073">
        <ele>31.958</ele>
        <time>2019-06-20T14:27:52Z</time>
      </trkpt>
      <trkpt lat="43.597121" lon="-8.184089">
        <ele>32.359</ele>
        <time>2019-06-20T14:27:53Z</time>
      </trkpt>
      <trkpt lat="43.597183" lon="-8.184115">
        <ele>32.695</ele>
        <time>2019-06-20T14:27:54Z</time>
      </trkpt>
      <trkpt lat="43.597255" lon="-8.184136">
        <ele>33.012</ele>
        <time>2019-06-20T14:27:55Z</time>
      </trkpt>
      <trkpt lat="43.597323" lon="-8.184170">
        <ele>33.443</ele>
        <time>2019-06-20T14:27:56Z</time>
      </trkpt>
      <trkpt lat="43.597404" lon="-8.184196">
        <ele>33.685</ele>
        <time>2019-06-20T14:27:57Z</time>
      </trkpt>
      <trkpt lat="43.597483" lon="-8.184221">
        <ele>33.882</ele>
        <time>2019-06-20T14:27:58Z</time>
      </trkpt>
      <trkpt lat="43.597568" lon="-8.184253">
        <ele>33.467</ele>
        <time>2019-06-20T14:27:59Z</time>
      </trkpt>
      <trkpt lat="43.597664" lon="-8.184280">
        <ele>33.081</ele>
        <time>2019-06-20T14:28:00Z</time>
      </trkpt>
      <trkpt lat="43.597755" lon="-8.184315">
        <ele>32.519</ele>
        <time>2019-06-20T14:28:01Z</time>
      </trkpt>
      <trkpt lat="43.597850" lon="-8.184335">
        <ele>32.208</ele>
        <time>2019-06-20T14:28:02Z</time>
      </trkpt>
      <trkpt lat="43.597933" lon="-8.184360">
        <ele>32.029</ele>
        <time>2019-06-20T14:28:03Z</time>
      </trkpt>
      <trkpt lat="43.598009" lon="-8.184395">
        <ele>31.973</ele>
        <time>2019-06-20T14:28:04Z</time>
      </trkpt>
      <trkpt lat="43.598086" lon="-8.184436">
        <ele>31.844</ele>
        <time>2019-06-20T14:28:05Z</time>
      </trkpt>
      <trkpt lat="43.598148" lon="-8.184480">
        <ele>31.240</ele>
        <time>2019-06-20T14:28:06Z</time>
      </trkpt>
      <trkpt lat="43.598208" lon="-8.184522">
        <ele>30.887</ele>
        <time>2019-06-20T14:28:07Z</time>
      </trkpt>
      <trkpt lat="43.598269" lon="-8.184557">
        <ele>30.448</ele>
        <time>2019-06-20T14:28:08Z</time>
      </trkpt>
      <trkpt lat="43.598317" lon="-8.184582">
        <ele>30.140</ele>
        <time>2019-06-20T14:28:09Z</time>
      </trkpt>
      <trkpt lat="43.598363" lon="-8.184616">
        <ele>30.067</ele>
        <time>2019-06-20T14:28:10Z</time>
      </trkpt>
      <trkpt lat="43.598426" lon="-8.184670">
        <ele>29.937</ele>
        <time>2019-06-20T14:28:11Z</time>
      </trkpt>
      <trkpt lat="43.598492" lon="-8.184708">
        <ele>30.049</ele>
        <time>2019-06-20T14:28:12Z</time>
      </trkpt>
      <trkpt lat="43.598548" lon="-8.184771">
        <ele>30.213</ele>
        <time>2019-06-20T14:28:13Z</time>
      </trkpt>
      <trkpt lat="43.598584" lon="-8.184810">
        <ele>30.308</ele>
        <time>2019-06-20T14:28:14Z</time>
      </trkpt>
      <trkpt lat="43.598644" lon="-8.184854">
        <ele>30.546</ele>
        <time>2019-06-20T14:28:15Z</time>
      </trkpt>
      <trkpt lat="43.598695" lon="-8.184895">
        <ele>30.670</ele>
        <time>2019-06-20T14:28:16Z</time>
      </trkpt>
      <trkpt lat="43.598768" lon="-8.184948">
        <ele>30.881</ele>
        <time>2019-06-20T14:28:17Z</time>
      </trkpt>
      <trkpt lat="43.598823" lon="-8.184988">
        <ele>31.027</ele>
        <time>2019-06-20T14:28:18Z</time>
      </trkpt>
      <trkpt lat="43.598871" lon="-8.185013">
        <ele>31.194</ele>
        <time>2019-06-20T14:28:19Z</time>
      </trkpt>
      <trkpt lat="43.598943" lon="-8.185078">
        <ele>31.255</ele>
        <time>2019-06-20T14:28:20Z</time>
      </trkpt>
      <trkpt lat="43.598993" lon="-8.185111">
        <ele>31.237</ele>
        <time>2019-06-20T14:28:21Z</time>
      </trkpt>
      <trkpt lat="43.599041" lon="-8.185157">
        <ele>31.394</ele>
        <time>2019-06-20T14:28:22Z</time>
      </trkpt>
      <trkpt lat="43.599108" lon="-8.185200">
        <ele>31.276</ele>
        <time>2019-06-20T14:28:24Z</time>
      </trkpt>
      <trkpt lat="43.599152" lon="-8.185232">
        <ele>31.090</ele>
        <time>2019-06-20T14:28:25Z</time>
      </trkpt>
      <trkpt lat="43.599203" lon="-8.185272">
        <ele>31.019</ele>
        <time>2019-06-20T14:28:27Z</time>
      </trkpt>
      <trkpt lat="43.599261" lon="-8.185325">
        <ele>31.208</ele>
        <time>2019-06-20T14:28:29Z</time>
      </trkpt>
      <trkpt lat="43.599341" lon="-8.185377">
        <ele>31.410</ele>
        <time>2019-06-20T14:28:31Z</time>
      </trkpt>
      <trkpt lat="43.599408" lon="-8.185420">
        <ele>31.564</ele>
        <time>2019-06-20T14:28:33Z</time>
      </trkpt>
      <trkpt lat="43.599474" lon="-8.185434">
        <ele>31.755</ele>
        <time>2019-06-20T14:28:35Z</time>
      </trkpt>
      <trkpt lat="43.599547" lon="-8.185434">
        <ele>31.961</ele>
        <time>2019-06-20T14:28:37Z</time>
      </trkpt>
      <trkpt lat="43.599609" lon="-8.185420">
        <ele>32.138</ele>
        <time>2019-06-20T14:28:38Z</time>
      </trkpt>
      <trkpt lat="43.599667" lon="-8.185394">
        <ele>32.259</ele>
        <time>2019-06-20T14:28:39Z</time>
      </trkpt>
      <trkpt lat="43.599758" lon="-8.185367">
        <ele>32.471</ele>
        <time>2019-06-20T14:28:40Z</time>
      </trkpt>
      <trkpt lat="43.599850" lon="-8.185339">
        <ele>32.698</ele>
        <time>2019-06-20T14:28:41Z</time>
      </trkpt>
      <trkpt lat="43.599940" lon="-8.185320">
        <ele>32.895</ele>
        <time>2019-06-20T14:28:42Z</time>
      </trkpt>
      <trkpt lat="43.600052" lon="-8.185286">
        <ele>33.249</ele>
        <time>2019-06-20T14:28:43Z</time>
      </trkpt>
      <trkpt lat="43.600154" lon="-8.185251">
        <ele>33.523</ele>
        <time>2019-06-20T14:28:44Z</time>
      </trkpt>
      <trkpt lat="43.600276" lon="-8.185220">
        <ele>34.008</ele>
        <time>2019-06-20T14:28:45Z</time>
      </trkpt>
      <trkpt lat="43.600388" lon="-8.185190">
        <ele>34.442</ele>
        <time>2019-06-20T14:28:46Z</time>
      </trkpt>
      <trkpt lat="43.600509" lon="-8.185154">
        <ele>34.876</ele>
        <time>2019-06-20T14:28:47Z</time>
      </trkpt>
      <trkpt lat="43.600612" lon="-8.185127">
        <ele>35.267</ele>
        <time>2019-06-20T14:28:48Z</time>
      </trkpt>
      <trkpt lat="43.600743" lon="-8.185094">
        <ele>35.733</ele>
        <time>2019-06-20T14:28:49Z</time>
      </trkpt>
      <trkpt lat="43.600857" lon="-8.185073">
        <ele>36.050</ele>
        <time>2019-06-20T14:28:50Z</time>
      </trkpt>
      <trkpt lat="43.600950" lon="-8.185047">
        <ele>36.051</ele>
        <time>2019-06-20T14:28:51Z</time>
      </trkpt>
      <trkpt lat="43.601059" lon="-8.185031">
        <ele>36.043</ele>
        <time>2019-06-20T14:28:52Z</time>
      </trkpt>
      <trkpt lat="43.601163" lon="-8.185019">
        <ele>35.880</ele>
        <time>2019-06-20T14:28:53Z</time>
      </trkpt>
      <trkpt lat="43.601284" lon="-8.185000">
        <ele>35.443</ele>
        <time>2019-06-20T14:28:54Z</time>
      </trkpt>
      <trkpt lat="43.601405" lon="-8.184977">
        <ele>34.764</ele>
        <time>2019-06-20T14:28:55Z</time>
      </trkpt>
      <trkpt lat="43.601541" lon="-8.184965">
        <ele>33.710</ele>
        <time>2019-06-20T14:28:56Z</time>
      </trkpt>
      <trkpt lat="43.601667" lon="-8.184949">
        <ele>32.808</ele>
        <time>2019-06-20T14:28:57Z</time>
      </trkpt>
      <trkpt lat="43.601801" lon="-8.184937">
        <ele>32.887</ele>
        <time>2019-06-20T14:28:58Z</time>
      </trkpt>
      <trkpt lat="43.601926" lon="-8.184930">
        <ele>32.711</ele>
        <time>2019-06-20T14:28:59Z</time>
      </trkpt>
      <trkpt lat="43.602062" lon="-8.184910">
        <ele>32.362</ele>
        <time>2019-06-20T14:29:00Z</time>
      </trkpt>
      <trkpt lat="43.602208" lon="-8.184912">
        <ele>31.768</ele>
        <time>2019-06-20T14:29:01Z</time>
      </trkpt>
      <trkpt lat="43.602349" lon="-8.184901">
        <ele>31.095</ele>
        <time>2019-06-20T14:29:02Z</time>
      </trkpt>
      <trkpt lat="43.602519" lon="-8.184898">
        <ele>30.276</ele>
        <time>2019-06-20T14:29:03Z</time>
      </trkpt>
      <trkpt lat="43.602670" lon="-8.184881">
        <ele>29.838</ele>
        <time>2019-06-20T14:29:04Z</time>
      </trkpt>
      <trkpt lat="43.602819" lon="-8.184874">
        <ele>29.635</ele>
        <time>2019-06-20T14:29:05Z</time>
      </trkpt>
      <trkpt lat="43.602973" lon="-8.184861">
        <ele>29.961</ele>
        <time>2019-06-20T14:29:06Z</time>
      </trkpt>
      <trkpt lat="43.603126" lon="-8.184849">
        <ele>30.221</ele>
        <time>2019-06-20T14:29:07Z</time>
      </trkpt>
      <trkpt lat="43.603274" lon="-8.184831">
        <ele>30.613</ele>
        <time>2019-06-20T14:29:08Z</time>
      </trkpt>
      <trkpt lat="43.603422" lon="-8.184815">
        <ele>30.908</ele>
        <time>2019-06-20T14:29:09Z</time>
      </trkpt>
      <trkpt lat="43.603571" lon="-8.184810">
        <ele>31.229</ele>
        <time>2019-06-20T14:29:10Z</time>
      </trkpt>
      <trkpt lat="43.603717" lon="-8.184794">
        <ele>31.083</ele>
        <time>2019-06-20T14:29:11Z</time>
      </trkpt>
      <trkpt lat="43.603860" lon="-8.184779">
        <ele>30.524</ele>
        <time>2019-06-20T14:29:12Z</time>
      </trkpt>
      <trkpt lat="43.604012" lon="-8.184764">
        <ele>29.320</ele>
        <time>2019-06-20T14:29:13Z</time>
      </trkpt>
      <trkpt lat="43.604158" lon="-8.184744">
        <ele>28.137</ele>
        <time>2019-06-20T14:29:14Z</time>
      </trkpt>
      <trkpt lat="43.604309" lon="-8.184725">
        <ele>28.018</ele>
        <time>2019-06-20T14:29:15Z</time>
      </trkpt>
      <trkpt lat="43.604455" lon="-8.184713">
        <ele>28.030</ele>
        <time>2019-06-20T14:29:16Z</time>
      </trkpt>
      <trkpt lat="43.604607" lon="-8.184700">
        <ele>28.097</ele>
        <time>2019-06-20T14:29:17Z</time>
      </trkpt>
      <trkpt lat="43.604758" lon="-8.184691">
        <ele>28.112</ele>
        <time>2019-06-20T14:29:18Z</time>
      </trkpt>
      <trkpt lat="43.604906" lon="-8.184682">
        <ele>28.632</ele>
        <time>2019-06-20T14:29:19Z</time>
      </trkpt>
      <trkpt lat="43.605054" lon="-8.184653">
        <ele>28.805</ele>
        <time>2019-06-20T14:29:20Z</time>
      </trkpt>
      <trkpt lat="43.605198" lon="-8.184642">
        <ele>28.908</ele>
        <time>2019-06-20T14:29:21Z</time>
      </trkpt>
      <trkpt lat="43.605349" lon="-8.184614">
        <ele>29.524</ele>
        <time>2019-06-20T14:29:22Z</time>
      </trkpt>
      <trkpt lat="43.605478" lon="-8.184599">
        <ele>30.418</ele>
        <time>2019-06-20T14:29:23Z</time>
      </trkpt>
      <trkpt lat="43.605625" lon="-8.184585">
        <ele>31.089</ele>
        <time>2019-06-20T14:29:24Z</time>
      </trkpt>
      <trkpt lat="43.605745" lon="-8.184573">
        <ele>31.025</ele>
        <time>2019-06-20T14:29:25Z</time>
      </trkpt>
      <trkpt lat="43.605876" lon="-8.184567">
        <ele>31.052</ele>
        <time>2019-06-20T14:29:26Z</time>
      </trkpt>
      <trkpt lat="43.605965" lon="-8.184565">
        <ele>31.093</ele>
        <time>2019-06-20T14:29:27Z</time>
      </trkpt>
      <trkpt lat="43.606059" lon="-8.184551">
        <ele>31.065</ele>
        <time>2019-06-20T14:29:28Z</time>
      </trkpt>
      <trkpt lat="43.606134" lon="-8.184557">
        <ele>31.162</ele>
        <time>2019-06-20T14:29:29Z</time>
      </trkpt>
      <trkpt lat="43.606224" lon="-8.184567">
        <ele>31.484</ele>
        <time>2019-06-20T14:29:30Z</time>
      </trkpt>
      <trkpt lat="43.606316" lon="-8.184568">
        <ele>31.707</ele>
        <time>2019-06-20T14:29:31Z</time>
      </trkpt>
      <trkpt lat="43.606446" lon="-8.184581">
        <ele>32.017</ele>
        <time>2019-06-20T14:29:32Z</time>
      </trkpt>
      <trkpt lat="43.606576" lon="-8.184596">
        <ele>32.008</ele>
        <time>2019-06-20T14:29:33Z</time>
      </trkpt>
      <trkpt lat="43.606719" lon="-8.184604">
        <ele>32.011</ele>
        <time>2019-06-20T14:29:34Z</time>
      </trkpt>
      <trkpt lat="43.606861" lon="-8.184626">
        <ele>32.025</ele>
        <time>2019-06-20T14:29:35Z</time>
      </trkpt>
      <trkpt lat="43.607005" lon="-8.184638">
        <ele>32.426</ele>
        <time>2019-06-20T14:29:36Z</time>
      </trkpt>
      <trkpt lat="43.607152" lon="-8.184656">
        <ele>33.352</ele>
        <time>2019-06-20T14:29:37Z</time>
      </trkpt>
      <trkpt lat="43.607317" lon="-8.184662">
        <ele>33.949</ele>
        <time>2019-06-20T14:29:38Z</time>
      </trkpt>
      <trkpt lat="43.607485" lon="-8.184666">
        <ele>34.030</ele>
        <time>2019-06-20T14:29:39Z</time>
      </trkpt>
      <trkpt lat="43.607670" lon="-8.184678">
        <ele>33.992</ele>
        <time>2019-06-20T14:29:40Z</time>
      </trkpt>
      <trkpt lat="43.607842" lon="-8.184700">
        <ele>33.929</ele>
        <time>2019-06-20T14:29:41Z</time>
      </trkpt>
      <trkpt lat="43.608015" lon="-8.184711">
        <ele>34.088</ele>
        <time>2019-06-20T14:29:42Z</time>
      </trkpt>
      <trkpt lat="43.608177" lon="-8.184714">
        <ele>35.324</ele>
        <time>2019-06-20T14:29:43Z</time>
      </trkpt>
      <trkpt lat="43.608325" lon="-8.184733">
        <ele>36.926</ele>
        <time>2019-06-20T14:29:44Z</time>
      </trkpt>
      <trkpt lat="43.608461" lon="-8.184757">
        <ele>37.508</ele>
        <time>2019-06-20T14:29:45Z</time>
      </trkpt>
      <trkpt lat="43.608615" lon="-8.184791">
        <ele>38.011</ele>
        <time>2019-06-20T14:29:46Z</time>
      </trkpt>
      <trkpt lat="43.608756" lon="-8.184825">
        <ele>37.595</ele>
        <time>2019-06-20T14:29:47Z</time>
      </trkpt>
      <trkpt lat="43.608900" lon="-8.184864">
        <ele>36.916</ele>
        <time>2019-06-20T14:29:48Z</time>
      </trkpt>
      <trkpt lat="43.609044" lon="-8.184914">
        <ele>36.372</ele>
        <time>2019-06-20T14:29:49Z</time>
      </trkpt>
      <trkpt lat="43.609189" lon="-8.184965">
        <ele>35.849</ele>
        <time>2019-06-20T14:29:50Z</time>
      </trkpt>
      <trkpt lat="43.609332" lon="-8.185017">
        <ele>35.440</ele>
        <time>2019-06-20T14:29:51Z</time>
      </trkpt>
      <trkpt lat="43.609471" lon="-8.185064">
        <ele>34.922</ele>
        <time>2019-06-20T14:29:52Z</time>
      </trkpt>
      <trkpt lat="43.609612" lon="-8.185105">
        <ele>34.429</ele>
        <time>2019-06-20T14:29:53Z</time>
      </trkpt>
      <trkpt lat="43.609743" lon="-8.185154">
        <ele>34.062</ele>
        <time>2019-06-20T14:29:54Z</time>
      </trkpt>
      <trkpt lat="43.609873" lon="-8.185200">
        <ele>33.883</ele>
        <time>2019-06-20T14:29:55Z</time>
      </trkpt>
      <trkpt lat="43.609992" lon="-8.185245">
        <ele>33.911</ele>
        <time>2019-06-20T14:29:56Z</time>
      </trkpt>
      <trkpt lat="43.610115" lon="-8.185285">
        <ele>33.608</ele>
        <time>2019-06-20T14:29:57Z</time>
      </trkpt>
      <trkpt lat="43.610243" lon="-8.185331">
        <ele>33.379</ele>
        <time>2019-06-20T14:29:58Z</time>
      </trkpt>
      <trkpt lat="43.610373" lon="-8.185383">
        <ele>33.673</ele>
        <time>2019-06-20T14:29:59Z</time>
      </trkpt>
      <trkpt lat="43.610522" lon="-8.185433">
        <ele>33.944</ele>
        <time>2019-06-20T14:30:00Z</time>
      </trkpt>
      <trkpt lat="43.610675" lon="-8.185484">
        <ele>34.020</ele>
        <time>2019-06-20T14:30:01Z</time>
      </trkpt>
      <trkpt lat="43.610836" lon="-8.185536">
        <ele>34.057</ele>
        <time>2019-06-20T14:30:02Z</time>
      </trkpt>
      <trkpt lat="43.610996" lon="-8.185589">
        <ele>34.768</ele>
        <time>2019-06-20T14:30:03Z</time>
      </trkpt>
      <trkpt lat="43.611151" lon="-8.185643">
        <ele>35.560</ele>
        <time>2019-06-20T14:30:04Z</time>
      </trkpt>
      <trkpt lat="43.611305" lon="-8.185696">
        <ele>36.277</ele>
        <time>2019-06-20T14:30:05Z</time>
      </trkpt>
      <trkpt lat="43.611454" lon="-8.185754">
        <ele>36.753</ele>
        <time>2019-06-20T14:30:06Z</time>
      </trkpt>
      <trkpt lat="43.611604" lon="-8.185807">
        <ele>36.904</ele>
        <time>2019-06-20T14:30:07Z</time>
      </trkpt>
      <trkpt lat="43.611746" lon="-8.185859">
        <ele>37.014</ele>
        <time>2019-06-20T14:30:08Z</time>
      </trkpt>
      <trkpt lat="43.611890" lon="-8.185909">
        <ele>37.008</ele>
        <time>2019-06-20T14:30:09Z</time>
      </trkpt>
      <trkpt lat="43.612018" lon="-8.185948">
        <ele>36.838</ele>
        <time>2019-06-20T14:30:10Z</time>
      </trkpt>
      <trkpt lat="43.612145" lon="-8.185987">
        <ele>36.782</ele>
        <time>2019-06-20T14:30:11Z</time>
      </trkpt>
      <trkpt lat="43.612267" lon="-8.186031">
        <ele>36.543</ele>
        <time>2019-06-20T14:30:12Z</time>
      </trkpt>
      <trkpt lat="43.612386" lon="-8.186072">
        <ele>36.389</ele>
        <time>2019-06-20T14:30:13Z</time>
      </trkpt>
      <trkpt lat="43.612504" lon="-8.186113">
        <ele>36.096</ele>
        <time>2019-06-20T14:30:14Z</time>
      </trkpt>
      <trkpt lat="43.612637" lon="-8.186149">
        <ele>35.437</ele>
        <time>2019-06-20T14:30:15Z</time>
      </trkpt>
      <trkpt lat="43.612777" lon="-8.186194">
        <ele>34.789</ele>
        <time>2019-06-20T14:30:16Z</time>
      </trkpt>
      <trkpt lat="43.612930" lon="-8.186244">
        <ele>34.236</ele>
        <time>2019-06-20T14:30:17Z</time>
      </trkpt>
      <trkpt lat="43.613083" lon="-8.186295">
        <ele>33.962</ele>
        <time>2019-06-20T14:30:18Z</time>
      </trkpt>
      <trkpt lat="43.613236" lon="-8.186352">
        <ele>33.383</ele>
        <time>2019-06-20T14:30:19Z</time>
      </trkpt>
      <trkpt lat="43.613396" lon="-8.186407">
        <ele>32.611</ele>
        <time>2019-06-20T14:30:20Z</time>
      </trkpt>
      <trkpt lat="43.613557" lon="-8.186462">
        <ele>31.608</ele>
        <time>2019-06-20T14:30:21Z</time>
      </trkpt>
      <trkpt lat="43.613711" lon="-8.186520">
        <ele>31.389</ele>
        <time>2019-06-20T14:30:22Z</time>
      </trkpt>
      <trkpt lat="43.613869" lon="-8.186589">
        <ele>31.163</ele>
        <time>2019-06-20T14:30:23Z</time>
      </trkpt>
      <trkpt lat="43.614016" lon="-8.186634">
        <ele>31.474</ele>
        <time>2019-06-20T14:30:24Z</time>
      </trkpt>
      <trkpt lat="43.614155" lon="-8.186678">
        <ele>31.980</ele>
        <time>2019-06-20T14:30:25Z</time>
      </trkpt>
      <trkpt lat="43.614289" lon="-8.186706">
        <ele>31.917</ele>
        <time>2019-06-20T14:30:26Z</time>
      </trkpt>
      <trkpt lat="43.614426" lon="-8.186719">
        <ele>32.018</ele>
        <time>2019-06-20T14:30:27Z</time>
      </trkpt>
      <trkpt lat="43.614562" lon="-8.186717">
        <ele>32.040</ele>
        <time>2019-06-20T14:30:28Z</time>
      </trkpt>
      <trkpt lat="43.614715" lon="-8.186683">
        <ele>32.057</ele>
        <time>2019-06-20T14:30:29Z</time>
      </trkpt>
      <trkpt lat="43.614862" lon="-8.186653">
        <ele>32.646</ele>
        <time>2019-06-20T14:30:30Z</time>
      </trkpt>
      <trkpt lat="43.615009" lon="-8.186619">
        <ele>33.288</ele>
        <time>2019-06-20T14:30:31Z</time>
      </trkpt>
      <trkpt lat="43.615164" lon="-8.186583">
        <ele>33.316</ele>
        <time>2019-06-20T14:30:32Z</time>
      </trkpt>
      <trkpt lat="43.615309" lon="-8.186537">
        <ele>33.508</ele>
        <time>2019-06-20T14:30:33Z</time>
      </trkpt>
      <trkpt lat="43.615477" lon="-8.186490">
        <ele>33.677</ele>
        <time>2019-06-20T14:30:34Z</time>
      </trkpt>
      <trkpt lat="43.615601" lon="-8.186450">
        <ele>33.681</ele>
        <time>2019-06-20T14:30:35Z</time>
      </trkpt>
      <trkpt lat="43.615741" lon="-8.186417">
        <ele>33.242</ele>
        <time>2019-06-20T14:30:36Z</time>
      </trkpt>
      <trkpt lat="43.615879" lon="-8.186379">
        <ele>33.068</ele>
        <time>2019-06-20T14:30:37Z</time>
      </trkpt>
      <trkpt lat="43.616007" lon="-8.186348">
        <ele>33.265</ele>
        <time>2019-06-20T14:30:38Z</time>
      </trkpt>
      <trkpt lat="43.616119" lon="-8.186327">
        <ele>33.596</ele>
        <time>2019-06-20T14:30:39Z</time>
      </trkpt>
      <trkpt lat="43.616229" lon="-8.186334">
        <ele>34.258</ele>
        <time>2019-06-20T14:30:40Z</time>
      </trkpt>
      <trkpt lat="43.616340" lon="-8.186356">
        <ele>34.975</ele>
        <time>2019-06-20T14:30:41Z</time>
      </trkpt>
      <trkpt lat="43.616441" lon="-8.186420">
        <ele>35.533</ele>
        <time>2019-06-20T14:30:42Z</time>
      </trkpt>
      <trkpt lat="43.616550" lon="-8.186503">
        <ele>36.823</ele>
        <time>2019-06-20T14:30:43Z</time>
      </trkpt>
      <trkpt lat="43.616633" lon="-8.186617">
        <ele>38.315</ele>
        <time>2019-06-20T14:30:44Z</time>
      </trkpt>
      <trkpt lat="43.616709" lon="-8.186746">
        <ele>39.008</ele>
        <time>2019-06-20T14:30:45Z</time>
      </trkpt>
      <trkpt lat="43.616767" lon="-8.186865">
        <ele>39.096</ele>
        <time>2019-06-20T14:30:46Z</time>
      </trkpt>
      <trkpt lat="43.616832" lon="-8.186973">
        <ele>39.070</ele>
        <time>2019-06-20T14:30:47Z</time>
      </trkpt>
      <trkpt lat="43.616896" lon="-8.187086">
        <ele>38.681</ele>
        <time>2019-06-20T14:30:48Z</time>
      </trkpt>
      <trkpt lat="43.616955" lon="-8.187200">
        <ele>38.217</ele>
        <time>2019-06-20T14:30:49Z</time>
      </trkpt>
      <trkpt lat="43.617012" lon="-8.187313">
        <ele>37.974</ele>
        <time>2019-06-20T14:30:50Z</time>
      </trkpt>
      <trkpt lat="43.617068" lon="-8.187432">
        <ele>37.775</ele>
        <time>2019-06-20T14:30:51Z</time>
      </trkpt>
      <trkpt lat="43.617123" lon="-8.187552">
        <ele>37.637</ele>
        <time>2019-06-20T14:30:52Z</time>
      </trkpt>
      <trkpt lat="43.617176" lon="-8.187674">
        <ele>37.714</ele>
        <time>2019-06-20T14:30:53Z</time>
      </trkpt>
      <trkpt lat="43.617234" lon="-8.187788">
        <ele>38.023</ele>
        <time>2019-06-20T14:30:54Z</time>
      </trkpt>
      <trkpt lat="43.617293" lon="-8.187895">
        <ele>38.383</ele>
        <time>2019-06-20T14:30:55Z</time>
      </trkpt>
      <trkpt lat="43.617351" lon="-8.188009">
        <ele>38.511</ele>
        <time>2019-06-20T14:30:56Z</time>
      </trkpt>
      <trkpt lat="43.617421" lon="-8.188118">
        <ele>38.308</ele>
        <time>2019-06-20T14:30:57Z</time>
      </trkpt>
      <trkpt lat="43.617510" lon="-8.188153">
        <ele>38.515</ele>
        <time>2019-06-20T14:30:58Z</time>
      </trkpt>
      <trkpt lat="43.617587" lon="-8.188226">
        <ele>39.889</ele>
        <time>2019-06-20T14:30:59Z</time>
      </trkpt>
      <trkpt lat="43.617663" lon="-8.188272">
        <ele>41.410</ele>
        <time>2019-06-20T14:31:00Z</time>
      </trkpt>
      <trkpt lat="43.617734" lon="-8.188306">
        <ele>43.086</ele>
        <time>2019-06-20T14:31:01Z</time>
      </trkpt>
      <trkpt lat="43.617781" lon="-8.188318">
        <ele>44.143</ele>
        <time>2019-06-20T14:31:02Z</time>
      </trkpt>
      <trkpt lat="43.617827" lon="-8.188334">
        <ele>45.034</ele>
        <time>2019-06-20T14:31:03Z</time>
      </trkpt>
      <trkpt lat="43.617896" lon="-8.188338">
        <ele>46.586</ele>
        <time>2019-06-20T14:31:05Z</time>
      </trkpt>
      <trkpt lat="43.617942" lon="-8.188342">
        <ele>47.443</ele>
        <time>2019-06-20T14:31:07Z</time>
      </trkpt>
      <trkpt lat="43.617995" lon="-8.188323">
        <ele>48.731</ele>
        <time>2019-06-20T14:31:09Z</time>
      </trkpt>
      <trkpt lat="43.618053" lon="-8.188314">
        <ele>50.061</ele>
        <time>2019-06-20T14:31:11Z</time>
      </trkpt>
      <trkpt lat="43.618091" lon="-8.188368">
        <ele>49.007</ele>
        <time>2019-06-20T14:31:13Z</time>
      </trkpt>
      <trkpt lat="43.618055" lon="-8.188440">
        <ele>47.708</ele>
        <time>2019-06-20T14:31:15Z</time>
      </trkpt>
      <trkpt lat="43.617979" lon="-8.188450">
        <ele>45.826</ele>
        <time>2019-06-20T14:31:17Z</time>
      </trkpt>
      <trkpt lat="43.617934" lon="-8.188419">
        <ele>45.550</ele>
        <time>2019-06-20T14:31:22Z</time>
      </trkpt>
      <trkpt lat="43.617868" lon="-8.188388">
        <ele>44.841</ele>
        <time>2019-06-20T14:32:47Z</time>
      </trkpt>
      <trkpt lat="43.617824" lon="-8.188369">
        <ele>44.227</ele>
        <time>2019-06-20T14:32:51Z</time>
      </trkpt>
      <trkpt lat="43.617869" lon="-8.188376">
        <ele>45.054</ele>
        <time>2019-06-20T14:33:06Z</time>
      </trkpt>
      <trkpt lat="43.617903" lon="-8.188418">
        <ele>44.955</ele>
        <time>2019-06-20T14:33:55Z</time>
      </trkpt>
      <trkpt lat="43.617881" lon="-8.188480">
        <ele>43.157</ele>
        <time>2019-06-20T14:34:00Z</time>
      </trkpt>
      <trkpt lat="43.617868" lon="-8.188552">
        <ele>41.224</ele>
        <time>2019-06-20T14:34:05Z</time>
      </trkpt>
      <trkpt lat="43.617840" lon="-8.188613">
        <ele>39.334</ele>
        <time>2019-06-20T14:34:10Z</time>
      </trkpt>
      <trkpt lat="43.617834" lon="-8.188674">
        <ele>36.755</ele>
        <time>2019-06-20T14:34:14Z</time>
      </trkpt>
      <trkpt lat="43.617863" lon="-8.188618">
        <ele>39.610</ele>
        <time>2019-06-20T14:34:39Z</time>
      </trkpt>
      <trkpt lat="43.617919" lon="-8.188621">
        <ele>40.608</ele>
        <time>2019-06-20T14:34:44Z</time>
      </trkpt>
      <trkpt lat="43.617800" lon="-8.188724">
        <ele>34.356</ele>
        <time>2019-06-20T14:43:02Z</time>
      </trkpt>
      <trkpt lat="43.617846" lon="-8.188635">
        <ele>38.570</ele>
        <time>2019-06-20T14:45:34Z</time>
      </trkpt>
      <trkpt lat="43.617907" lon="-8.188565">
        <ele>41.861</ele>
        <time>2019-06-20T14:45:36Z</time>
      </trkpt>
      <trkpt lat="43.617964" lon="-8.188509">
        <ele>44.237</ele>
        <time>2019-06-20T14:45:38Z</time>
      </trkpt>
      <trkpt lat="43.618011" lon="-8.188458">
        <ele>46.324</ele>
        <time>2019-06-20T14:45:40Z</time>
      </trkpt>
      <trkpt lat="43.618022" lon="-8.188397">
        <ele>47.945</ele>
        <time>2019-06-20T14:45:42Z</time>
      </trkpt>
      <trkpt lat="43.617961" lon="-8.188325">
        <ele>48.027</ele>
        <time>2019-06-20T14:45:44Z</time>
      </trkpt>
      <trkpt lat="43.617850" lon="-8.188322">
        <ele>45.644</ele>
        <time>2019-06-20T14:45:45Z</time>
      </trkpt>
      <trkpt lat="43.617787" lon="-8.188306">
        <ele>44.337</ele>
        <time>2019-06-20T14:45:46Z</time>
      </trkpt>
      <trkpt lat="43.617727" lon="-8.188277">
        <ele>43.049</ele>
        <time>2019-06-20T14:45:47Z</time>
      </trkpt>
      <trkpt lat="43.617659" lon="-8.188245">
        <ele>41.513</ele>
        <time>2019-06-20T14:45:48Z</time>
      </trkpt>
      <trkpt lat="43.617587" lon="-8.188209">
        <ele>39.908</ele>
        <time>2019-06-20T14:45:49Z</time>
      </trkpt>
      <trkpt lat="43.617522" lon="-8.188166">
        <ele>38.776</ele>
        <time>2019-06-20T14:45:50Z</time>
      </trkpt>
      <trkpt lat="43.617454" lon="-8.188121">
        <ele>38.460</ele>
        <time>2019-06-20T14:45:51Z</time>
      </trkpt>
      <trkpt lat="43.617385" lon="-8.188049">
        <ele>38.611</ele>
        <time>2019-06-20T14:45:52Z</time>
      </trkpt>
      <trkpt lat="43.617311" lon="-8.187944">
        <ele>38.367</ele>
        <time>2019-06-20T14:45:53Z</time>
      </trkpt>
      <trkpt lat="43.617243" lon="-8.187826">
        <ele>38.164</ele>
        <time>2019-06-20T14:45:54Z</time>
      </trkpt>
      <trkpt lat="43.617177" lon="-8.187706">
        <ele>37.765</ele>
        <time>2019-06-20T14:45:55Z</time>
      </trkpt>
      <trkpt lat="43.617116" lon="-8.187589">
        <ele>37.557</ele>
        <time>2019-06-20T14:45:56Z</time>
      </trkpt>
      <trkpt lat="43.617043" lon="-8.187477">
        <ele>37.454</ele>
        <time>2019-06-20T14:45:57Z</time>
      </trkpt>
      <trkpt lat="43.616982" lon="-8.187354">
        <ele>37.794</ele>
        <time>2019-06-20T14:45:58Z</time>
      </trkpt>
      <trkpt lat="43.616919" lon="-8.187220">
        <ele>37.857</ele>
        <time>2019-06-20T14:45:59Z</time>
      </trkpt>
      <trkpt lat="43.616852" lon="-8.187091">
        <ele>38.322</ele>
        <time>2019-06-20T14:46:00Z</time>
      </trkpt>
      <trkpt lat="43.616786" lon="-8.186966">
        <ele>38.708</ele>
        <time>2019-06-20T14:46:01Z</time>
      </trkpt>
      <trkpt lat="43.616717" lon="-8.186845">
        <ele>38.772</ele>
        <time>2019-06-20T14:46:02Z</time>
      </trkpt>
      <trkpt lat="43.616652" lon="-8.186727">
        <ele>38.596</ele>
        <time>2019-06-20T14:46:03Z</time>
      </trkpt>
      <trkpt lat="43.616585" lon="-8.186600">
        <ele>37.487</ele>
        <time>2019-06-20T14:46:04Z</time>
      </trkpt>
      <trkpt lat="43.616529" lon="-8.186472">
        <ele>36.583</ele>
        <time>2019-06-20T14:46:05Z</time>
      </trkpt>
      <trkpt lat="43.616456" lon="-8.186380">
        <ele>35.810</ele>
        <time>2019-06-20T14:46:06Z</time>
      </trkpt>
      <trkpt lat="43.616358" lon="-8.186307">
        <ele>35.411</ele>
        <time>2019-06-20T14:46:07Z</time>
      </trkpt>
      <trkpt lat="43.616261" lon="-8.186251">
        <ele>35.173</ele>
        <time>2019-06-20T14:46:08Z</time>
      </trkpt>
      <trkpt lat="43.616164" lon="-8.186219">
        <ele>34.680</ele>
        <time>2019-06-20T14:46:09Z</time>
      </trkpt>
      <trkpt lat="43.616050" lon="-8.186289">
        <ele>33.675</ele>
        <time>2019-06-20T14:46:10Z</time>
      </trkpt>
      <trkpt lat="43.615928" lon="-8.186295">
        <ele>33.528</ele>
        <time>2019-06-20T14:46:11Z</time>
      </trkpt>
      <trkpt lat="43.615786" lon="-8.186345">
        <ele>33.320</ele>
        <time>2019-06-20T14:46:12Z</time>
      </trkpt>
      <trkpt lat="43.615618" lon="-8.186388">
        <ele>33.808</ele>
        <time>2019-06-20T14:46:13Z</time>
      </trkpt>
      <trkpt lat="43.615458" lon="-8.186434">
        <ele>33.870</ele>
        <time>2019-06-20T14:46:14Z</time>
      </trkpt>
      <trkpt lat="43.615294" lon="-8.186483">
        <ele>33.784</ele>
        <time>2019-06-20T14:46:15Z</time>
      </trkpt>
      <trkpt lat="43.615128" lon="-8.186524">
        <ele>33.575</ele>
        <time>2019-06-20T14:46:16Z</time>
      </trkpt>
      <trkpt lat="43.614988" lon="-8.186545">
        <ele>33.451</ele>
        <time>2019-06-20T14:46:17Z</time>
      </trkpt>
      <trkpt lat="43.614825" lon="-8.186591">
        <ele>32.658</ele>
        <time>2019-06-20T14:46:18Z</time>
      </trkpt>
      <trkpt lat="43.614661" lon="-8.186630">
        <ele>32.189</ele>
        <time>2019-06-20T14:46:19Z</time>
      </trkpt>
      <trkpt lat="43.614492" lon="-8.186656">
        <ele>32.091</ele>
        <time>2019-06-20T14:46:20Z</time>
      </trkpt>
      <trkpt lat="43.614307" lon="-8.186633">
        <ele>31.998</ele>
        <time>2019-06-20T14:46:21Z</time>
      </trkpt>
      <trkpt lat="43.614119" lon="-8.186590">
        <ele>31.612</ele>
        <time>2019-06-20T14:46:22Z</time>
      </trkpt>
      <trkpt lat="43.613929" lon="-8.186533">
        <ele>31.132</ele>
        <time>2019-06-20T14:46:23Z</time>
      </trkpt>
      <trkpt lat="43.613742" lon="-8.186461">
        <ele>31.105</ele>
        <time>2019-06-20T14:46:24Z</time>
      </trkpt>
      <trkpt lat="43.613541" lon="-8.186397">
        <ele>31.508</ele>
        <time>2019-06-20T14:46:25Z</time>
      </trkpt>
      <trkpt lat="43.613350" lon="-8.186336">
        <ele>32.764</ele>
        <time>2019-06-20T14:46:26Z</time>
      </trkpt>
      <trkpt lat="43.613154" lon="-8.186278">
        <ele>33.528</ele>
        <time>2019-06-20T14:46:27Z</time>
      </trkpt>
      <trkpt lat="43.612973" lon="-8.186212">
        <ele>34.219</ele>
        <time>2019-06-20T14:46:28Z</time>
      </trkpt>
      <trkpt lat="43.612798" lon="-8.186153">
        <ele>34.875</ele>
        <time>2019-06-20T14:46:29Z</time>
      </trkpt>
      <trkpt lat="43.612636" lon="-8.186094">
        <ele>35.432</ele>
        <time>2019-06-20T14:46:30Z</time>
      </trkpt>
      <trkpt lat="43.612463" lon="-8.186037">
        <ele>35.943</ele>
        <time>2019-06-20T14:46:31Z</time>
      </trkpt>
      <trkpt lat="43.612289" lon="-8.185975">
        <ele>36.335</ele>
        <time>2019-06-20T14:46:32Z</time>
      </trkpt>
      <trkpt lat="43.612114" lon="-8.185915">
        <ele>36.612</ele>
        <time>2019-06-20T14:46:33Z</time>
      </trkpt>
      <trkpt lat="43.611932" lon="-8.185850">
        <ele>37.099</ele>
        <time>2019-06-20T14:46:34Z</time>
      </trkpt>
      <trkpt lat="43.611751" lon="-8.185784">
        <ele>36.807</ele>
        <time>2019-06-20T14:46:35Z</time>
      </trkpt>
      <trkpt lat="43.611555" lon="-8.185729">
        <ele>36.627</ele>
        <time>2019-06-20T14:46:36Z</time>
      </trkpt>
      <trkpt lat="43.611370" lon="-8.185666">
        <ele>36.308</ele>
        <time>2019-06-20T14:46:37Z</time>
      </trkpt>
      <trkpt lat="43.611178" lon="-8.185600">
        <ele>35.462</ele>
        <time>2019-06-20T14:46:38Z</time>
      </trkpt>
      <trkpt lat="43.610988" lon="-8.185531">
        <ele>34.566</ele>
        <time>2019-06-20T14:46:39Z</time>
      </trkpt>
      <trkpt lat="43.610797" lon="-8.185471">
        <ele>34.047</ele>
        <time>2019-06-20T14:46:40Z</time>
      </trkpt>
      <trkpt lat="43.610612" lon="-8.185400">
        <ele>34.083</ele>
        <time>2019-06-20T14:46:41Z</time>
      </trkpt>
      <trkpt lat="43.610425" lon="-8.185337">
        <ele>33.660</ele>
        <time>2019-06-20T14:46:42Z</time>
      </trkpt>
      <trkpt lat="43.610248" lon="-8.185281">
        <ele>33.171</ele>
        <time>2019-06-20T14:46:43Z</time>
      </trkpt>
      <trkpt lat="43.610071" lon="-8.185218">
        <ele>33.693</ele>
        <time>2019-06-20T14:46:44Z</time>
      </trkpt>
      <trkpt lat="43.609889" lon="-8.185159">
        <ele>33.780</ele>
        <time>2019-06-20T14:46:45Z</time>
      </trkpt>
      <trkpt lat="43.609708" lon="-8.185099">
        <ele>34.157</ele>
        <time>2019-06-20T14:46:46Z</time>
      </trkpt>
      <trkpt lat="43.609528" lon="-8.185037">
        <ele>34.700</ele>
        <time>2019-06-20T14:46:47Z</time>
      </trkpt>
      <trkpt lat="43.609347" lon="-8.184977">
        <ele>35.320</ele>
        <time>2019-06-20T14:46:48Z</time>
      </trkpt>
      <trkpt lat="43.609171" lon="-8.184916">
        <ele>35.708</ele>
        <time>2019-06-20T14:46:49Z</time>
      </trkpt>
      <trkpt lat="43.608994" lon="-8.184857">
        <ele>36.468</ele>
        <time>2019-06-20T14:46:50Z</time>
      </trkpt>
      <trkpt lat="43.608820" lon="-8.184805">
        <ele>37.232</ele>
        <time>2019-06-20T14:46:51Z</time>
      </trkpt>
      <trkpt lat="43.608651" lon="-8.184746">
        <ele>37.913</ele>
        <time>2019-06-20T14:46:52Z</time>
      </trkpt>
      <trkpt lat="43.608486" lon="-8.184713">
        <ele>37.569</ele>
        <time>2019-06-20T14:46:53Z</time>
      </trkpt>
      <trkpt lat="43.608307" lon="-8.184689">
        <ele>36.636</ele>
        <time>2019-06-20T14:46:54Z</time>
      </trkpt>
      <trkpt lat="43.608115" lon="-8.184670">
        <ele>34.667</ele>
        <time>2019-06-20T14:46:55Z</time>
      </trkpt>
      <trkpt lat="43.607927" lon="-8.184664">
        <ele>33.969</ele>
        <time>2019-06-20T14:46:56Z</time>
      </trkpt>
      <trkpt lat="43.607730" lon="-8.184653">
        <ele>33.886</ele>
        <time>2019-06-20T14:46:57Z</time>
      </trkpt>
      <trkpt lat="43.607539" lon="-8.184646">
        <ele>34.083</ele>
        <time>2019-06-20T14:46:58Z</time>
      </trkpt>
      <trkpt lat="43.607348" lon="-8.184636">
        <ele>33.825</ele>
        <time>2019-06-20T14:46:59Z</time>
      </trkpt>
      <trkpt lat="43.607174" lon="-8.184625">
        <ele>33.417</ele>
        <time>2019-06-20T14:47:00Z</time>
      </trkpt>
      <trkpt lat="43.606988" lon="-8.184611">
        <ele>32.308</ele>
        <time>2019-06-20T14:47:01Z</time>
      </trkpt>
      <trkpt lat="43.606822" lon="-8.184582">
        <ele>32.061</ele>
        <time>2019-06-20T14:47:02Z</time>
      </trkpt>
      <trkpt lat="43.606640" lon="-8.184579">
        <ele>32.025</ele>
        <time>2019-06-20T14:47:03Z</time>
      </trkpt>
      <trkpt lat="43.606462" lon="-8.184575">
        <ele>32.056</ele>
        <time>2019-06-20T14:47:04Z</time>
      </trkpt>
      <trkpt lat="43.606281" lon="-8.184548">
        <ele>31.682</ele>
        <time>2019-06-20T14:47:05Z</time>
      </trkpt>
      <trkpt lat="43.606103" lon="-8.184538">
        <ele>31.019</ele>
        <time>2019-06-20T14:47:06Z</time>
      </trkpt>
      <trkpt lat="43.605880" lon="-8.184550">
        <ele>31.090</ele>
        <time>2019-06-20T14:47:07Z</time>
      </trkpt>
      <trkpt lat="43.605669" lon="-8.184568">
        <ele>31.022</ele>
        <time>2019-06-20T14:47:08Z</time>
      </trkpt>
      <trkpt lat="43.605453" lon="-8.184586">
        <ele>30.329</ele>
        <time>2019-06-20T14:47:09Z</time>
      </trkpt>
      <trkpt lat="43.605240" lon="-8.184609">
        <ele>28.941</ele>
        <time>2019-06-20T14:47:10Z</time>
      </trkpt>
      <trkpt lat="43.605020" lon="-8.184630">
        <ele>28.781</ele>
        <time>2019-06-20T14:47:11Z</time>
      </trkpt>
      <trkpt lat="43.604801" lon="-8.184643">
        <ele>28.209</ele>
        <time>2019-06-20T14:47:12Z</time>
      </trkpt>
      <trkpt lat="43.604591" lon="-8.184659">
        <ele>28.008</ele>
        <time>2019-06-20T14:47:13Z</time>
      </trkpt>
      <trkpt lat="43.604380" lon="-8.184677">
        <ele>28.047</ele>
        <time>2019-06-20T14:47:14Z</time>
      </trkpt>
      <trkpt lat="43.604180" lon="-8.184697">
        <ele>28.031</ele>
        <time>2019-06-20T14:47:15Z</time>
      </trkpt>
      <trkpt lat="43.603976" lon="-8.184716">
        <ele>29.492</ele>
        <time>2019-06-20T14:47:16Z</time>
      </trkpt>
      <trkpt lat="43.603769" lon="-8.184735">
        <ele>30.518</ele>
        <time>2019-06-20T14:47:17Z</time>
      </trkpt>
      <trkpt lat="43.603552" lon="-8.184754">
        <ele>30.955</ele>
        <time>2019-06-20T14:47:18Z</time>
      </trkpt>
      <trkpt lat="43.603365" lon="-8.184753">
        <ele>30.376</ele>
        <time>2019-06-20T14:47:19Z</time>
      </trkpt>
      <trkpt lat="43.603157" lon="-8.184765">
        <ele>29.768</ele>
        <time>2019-06-20T14:47:20Z</time>
      </trkpt>
      <trkpt lat="43.602948" lon="-8.184783">
        <ele>29.475</ele>
        <time>2019-06-20T14:47:21Z</time>
      </trkpt>
      <trkpt lat="43.602739" lon="-8.184814">
        <ele>29.431</ele>
        <time>2019-06-20T14:47:22Z</time>
      </trkpt>
      <trkpt lat="43.602531" lon="-8.184829">
        <ele>29.761</ele>
        <time>2019-06-20T14:47:23Z</time>
      </trkpt>
      <trkpt lat="43.602356" lon="-8.184853">
        <ele>30.707</ele>
        <time>2019-06-20T14:47:24Z</time>
      </trkpt>
      <trkpt lat="43.602163" lon="-8.184875">
        <ele>31.808</ele>
        <time>2019-06-20T14:47:25Z</time>
      </trkpt>
      <trkpt lat="43.601985" lon="-8.184893">
        <ele>32.526</ele>
        <time>2019-06-20T14:47:26Z</time>
      </trkpt>
      <trkpt lat="43.601797" lon="-8.184919">
        <ele>32.770</ele>
        <time>2019-06-20T14:47:27Z</time>
      </trkpt>
      <trkpt lat="43.601634" lon="-8.184925">
        <ele>32.931</ele>
        <time>2019-06-20T14:47:28Z</time>
      </trkpt>
      <trkpt lat="43.601457" lon="-8.184944">
        <ele>34.227</ele>
        <time>2019-06-20T14:47:29Z</time>
      </trkpt>
      <trkpt lat="43.601290" lon="-8.184959">
        <ele>35.164</ele>
        <time>2019-06-20T14:47:30Z</time>
      </trkpt>
      <trkpt lat="43.601113" lon="-8.184992">
        <ele>36.055</ele>
        <time>2019-06-20T14:47:31Z</time>
      </trkpt>
      <trkpt lat="43.600936" lon="-8.185034">
        <ele>36.047</ele>
        <time>2019-06-20T14:47:32Z</time>
      </trkpt>
      <trkpt lat="43.600750" lon="-8.185086">
        <ele>35.794</ele>
        <time>2019-06-20T14:47:33Z</time>
      </trkpt>
      <trkpt lat="43.600542" lon="-8.185150">
        <ele>35.052</ele>
        <time>2019-06-20T14:47:34Z</time>
      </trkpt>
      <trkpt lat="43.600361" lon="-8.185205">
        <ele>34.353</ele>
        <time>2019-06-20T14:47:35Z</time>
      </trkpt>
      <trkpt lat="43.600188" lon="-8.185255">
        <ele>33.608</ele>
        <time>2019-06-20T14:47:36Z</time>
      </trkpt>
      <trkpt lat="43.600035" lon="-8.185294">
        <ele>33.108</ele>
        <time>2019-06-20T14:47:37Z</time>
      </trkpt>
      <trkpt lat="43.599883" lon="-8.185329">
        <ele>32.718</ele>
        <time>2019-06-20T14:47:38Z</time>
      </trkpt>
      <trkpt lat="43.599723" lon="-8.185377">
        <ele>32.412</ele>
        <time>2019-06-20T14:47:39Z</time>
      </trkpt>
      <trkpt lat="43.599593" lon="-8.185393">
        <ele>31.963</ele>
        <time>2019-06-20T14:47:40Z</time>
      </trkpt>
      <trkpt lat="43.599475" lon="-8.185405">
        <ele>31.669</ele>
        <time>2019-06-20T14:47:41Z</time>
      </trkpt>
      <trkpt lat="43.599356" lon="-8.185413">
        <ele>31.566</ele>
        <time>2019-06-20T14:47:42Z</time>
      </trkpt>
      <trkpt lat="43.599267" lon="-8.185395">
        <ele>31.477</ele>
        <time>2019-06-20T14:47:43Z</time>
      </trkpt>
      <trkpt lat="43.599166" lon="-8.185392">
        <ele>31.489</ele>
        <time>2019-06-20T14:47:44Z</time>
      </trkpt>
      <trkpt lat="43.599069" lon="-8.185392">
        <ele>31.826</ele>
        <time>2019-06-20T14:47:45Z</time>
      </trkpt>
      <trkpt lat="43.599015" lon="-8.185295">
        <ele>31.626</ele>
        <time>2019-06-20T14:47:46Z</time>
      </trkpt>
      <trkpt lat="43.598945" lon="-8.185230">
        <ele>31.747</ele>
        <time>2019-06-20T14:47:47Z</time>
      </trkpt>
      <trkpt lat="43.598862" lon="-8.185140">
        <ele>31.611</ele>
        <time>2019-06-20T14:47:48Z</time>
      </trkpt>
      <trkpt lat="43.598758" lon="-8.185044">
        <ele>31.208</ele>
        <time>2019-06-20T14:47:49Z</time>
      </trkpt>
      <trkpt lat="43.598661" lon="-8.184948">
        <ele>30.825</ele>
        <time>2019-06-20T14:47:50Z</time>
      </trkpt>
      <trkpt lat="43.598554" lon="-8.184852">
        <ele>30.539</ele>
        <time>2019-06-20T14:47:51Z</time>
      </trkpt>
      <trkpt lat="43.598447" lon="-8.184759">
        <ele>30.120</ele>
        <time>2019-06-20T14:47:52Z</time>
      </trkpt>
      <trkpt lat="43.598336" lon="-8.184670">
        <ele>30.046</ele>
        <time>2019-06-20T14:47:53Z</time>
      </trkpt>
      <trkpt lat="43.598233" lon="-8.184584">
        <ele>30.523</ele>
        <time>2019-06-20T14:47:54Z</time>
      </trkpt>
      <trkpt lat="43.598131" lon="-8.184513">
        <ele>31.324</ele>
        <time>2019-06-20T14:47:55Z</time>
      </trkpt>
      <trkpt lat="43.598029" lon="-8.184447">
        <ele>32.046</ele>
        <time>2019-06-20T14:47:56Z</time>
      </trkpt>
      <trkpt lat="43.597923" lon="-8.184394">
        <ele>32.013</ele>
        <time>2019-06-20T14:47:57Z</time>
      </trkpt>
      <trkpt lat="43.597804" lon="-8.184347">
        <ele>32.372</ele>
        <time>2019-06-20T14:47:58Z</time>
      </trkpt>
      <trkpt lat="43.597680" lon="-8.184295">
        <ele>32.913</ele>
        <time>2019-06-20T14:47:59Z</time>
      </trkpt>
      <trkpt lat="43.597498" lon="-8.184281">
        <ele>33.614</ele>
        <time>2019-06-20T14:48:00Z</time>
      </trkpt>
      <trkpt lat="43.597360" lon="-8.184223">
        <ele>33.408</ele>
        <time>2019-06-20T14:48:01Z</time>
      </trkpt>
      <trkpt lat="43.597212" lon="-8.184176">
        <ele>33.040</ele>
        <time>2019-06-20T14:48:02Z</time>
      </trkpt>
      <trkpt lat="43.597081" lon="-8.184109">
        <ele>32.234</ele>
        <time>2019-06-20T14:48:03Z</time>
      </trkpt>
      <trkpt lat="43.596942" lon="-8.184055">
        <ele>31.255</ele>
        <time>2019-06-20T14:48:04Z</time>
      </trkpt>
      <trkpt lat="43.596787" lon="-8.184011">
        <ele>30.451</ele>
        <time>2019-06-20T14:48:05Z</time>
      </trkpt>
      <trkpt lat="43.596655" lon="-8.183946">
        <ele>30.038</ele>
        <time>2019-06-20T14:48:06Z</time>
      </trkpt>
      <trkpt lat="43.596513" lon="-8.183867">
        <ele>29.969</ele>
        <time>2019-06-20T14:48:07Z</time>
      </trkpt>
      <trkpt lat="43.596359" lon="-8.183814">
        <ele>29.831</ele>
        <time>2019-06-20T14:48:08Z</time>
      </trkpt>
      <trkpt lat="43.596186" lon="-8.183758">
        <ele>29.988</ele>
        <time>2019-06-20T14:48:09Z</time>
      </trkpt>
      <trkpt lat="43.596007" lon="-8.183700">
        <ele>29.536</ele>
        <time>2019-06-20T14:48:10Z</time>
      </trkpt>
      <trkpt lat="43.595832" lon="-8.183647">
        <ele>29.117</ele>
        <time>2019-06-20T14:48:11Z</time>
      </trkpt>
      <trkpt lat="43.595674" lon="-8.183583">
        <ele>28.318</ele>
        <time>2019-06-20T14:48:12Z</time>
      </trkpt>
      <trkpt lat="43.595498" lon="-8.183526">
        <ele>27.508</ele>
        <time>2019-06-20T14:48:13Z</time>
      </trkpt>
      <trkpt lat="43.595334" lon="-8.183456">
        <ele>26.666</ele>
        <time>2019-06-20T14:48:14Z</time>
      </trkpt>
      <trkpt lat="43.595157" lon="-8.183389">
        <ele>26.240</ele>
        <time>2019-06-20T14:48:15Z</time>
      </trkpt>
      <trkpt lat="43.594978" lon="-8.183312">
        <ele>25.971</ele>
        <time>2019-06-20T14:48:16Z</time>
      </trkpt>
      <trkpt lat="43.594800" lon="-8.183239">
        <ele>25.787</ele>
        <time>2019-06-20T14:48:17Z</time>
      </trkpt>
      <trkpt lat="43.594611" lon="-8.183179">
        <ele>25.474</ele>
        <time>2019-06-20T14:48:18Z</time>
      </trkpt>
      <trkpt lat="43.594422" lon="-8.183115">
        <ele>25.295</ele>
        <time>2019-06-20T14:48:19Z</time>
      </trkpt>
      <trkpt lat="43.594227" lon="-8.183068">
        <ele>25.177</ele>
        <time>2019-06-20T14:48:20Z</time>
      </trkpt>
      <trkpt lat="43.594037" lon="-8.183007">
        <ele>25.334</ele>
        <time>2019-06-20T14:48:21Z</time>
      </trkpt>
      <trkpt lat="43.593845" lon="-8.182946">
        <ele>25.912</ele>
        <time>2019-06-20T14:48:22Z</time>
      </trkpt>
      <trkpt lat="43.593658" lon="-8.182880">
        <ele>27.032</ele>
        <time>2019-06-20T14:48:23Z</time>
      </trkpt>
      <trkpt lat="43.593467" lon="-8.182816">
        <ele>27.705</ele>
        <time>2019-06-20T14:48:24Z</time>
      </trkpt>
      <trkpt lat="43.593268" lon="-8.182752">
        <ele>27.808</ele>
        <time>2019-06-20T14:48:25Z</time>
      </trkpt>
      <trkpt lat="43.593068" lon="-8.182692">
        <ele>27.414</ele>
        <time>2019-06-20T14:48:26Z</time>
      </trkpt>
      <trkpt lat="43.592856" lon="-8.182646">
        <ele>27.438</ele>
        <time>2019-06-20T14:48:27Z</time>
      </trkpt>
      <trkpt lat="43.592646" lon="-8.182590">
        <ele>27.339</ele>
        <time>2019-06-20T14:48:28Z</time>
      </trkpt>
      <trkpt lat="43.592431" lon="-8.182537">
        <ele>26.925</ele>
        <time>2019-06-20T14:48:29Z</time>
      </trkpt>
      <trkpt lat="43.592197" lon="-8.182484">
        <ele>25.632</ele>
        <time>2019-06-20T14:48:30Z</time>
      </trkpt>
      <trkpt lat="43.591967" lon="-8.182436">
        <ele>23.223</ele>
        <time>2019-06-20T14:48:31Z</time>
      </trkpt>
      <trkpt lat="43.591739" lon="-8.182398">
        <ele>22.785</ele>
        <time>2019-06-20T14:48:32Z</time>
      </trkpt>
      <trkpt lat="43.591503" lon="-8.182353">
        <ele>22.292</ele>
        <time>2019-06-20T14:48:33Z</time>
      </trkpt>
      <trkpt lat="43.591273" lon="-8.182311">
        <ele>22.648</ele>
        <time>2019-06-20T14:48:34Z</time>
      </trkpt>
      <trkpt lat="43.591039" lon="-8.182259">
        <ele>23.761</ele>
        <time>2019-06-20T14:48:35Z</time>
      </trkpt>
      <trkpt lat="43.590815" lon="-8.182202">
        <ele>25.117</ele>
        <time>2019-06-20T14:48:36Z</time>
      </trkpt>
      <trkpt lat="43.590610" lon="-8.182165">
        <ele>26.908</ele>
        <time>2019-06-20T14:48:37Z</time>
      </trkpt>
      <trkpt lat="43.590417" lon="-8.182109">
        <ele>26.587</ele>
        <time>2019-06-20T14:48:38Z</time>
      </trkpt>
      <trkpt lat="43.590219" lon="-8.182064">
        <ele>25.661</ele>
        <time>2019-06-20T14:48:39Z</time>
      </trkpt>
      <trkpt lat="43.590032" lon="-8.182026">
        <ele>24.732</ele>
        <time>2019-06-20T14:48:40Z</time>
      </trkpt>
      <trkpt lat="43.589845" lon="-8.181991">
        <ele>25.548</ele>
        <time>2019-06-20T14:48:41Z</time>
      </trkpt>
      <trkpt lat="43.589661" lon="-8.181950">
        <ele>26.315</ele>
        <time>2019-06-20T14:48:42Z</time>
      </trkpt>
      <trkpt lat="43.589480" lon="-8.181916">
        <ele>26.866</ele>
        <time>2019-06-20T14:48:43Z</time>
      </trkpt>
      <trkpt lat="43.589298" lon="-8.181879">
        <ele>26.678</ele>
        <time>2019-06-20T14:48:44Z</time>
      </trkpt>
      <trkpt lat="43.589119" lon="-8.181838">
        <ele>26.155</ele>
        <time>2019-06-20T14:48:45Z</time>
      </trkpt>
      <trkpt lat="43.588938" lon="-8.181796">
        <ele>25.547</ele>
        <time>2019-06-20T14:48:46Z</time>
      </trkpt>
      <trkpt lat="43.588760" lon="-8.181766">
        <ele>25.529</ele>
        <time>2019-06-20T14:48:47Z</time>
      </trkpt>
      <trkpt lat="43.588574" lon="-8.181722">
        <ele>25.621</ele>
        <time>2019-06-20T14:48:48Z</time>
      </trkpt>
      <trkpt lat="43.588393" lon="-8.181694">
        <ele>26.708</ele>
        <time>2019-06-20T14:48:49Z</time>
      </trkpt>
      <trkpt lat="43.588213" lon="-8.181656">
        <ele>27.437</ele>
        <time>2019-06-20T14:48:50Z</time>
      </trkpt>
      <trkpt lat="43.588032" lon="-8.181613">
        <ele>28.081</ele>
        <time>2019-06-20T14:48:51Z</time>
      </trkpt>
      <trkpt lat="43.587849" lon="-8.181560">
        <ele>28.662</ele>
        <time>2019-06-20T14:48:52Z</time>
      </trkpt>
      <trkpt lat="43.587668" lon="-8.181513">
        <ele>29.398</ele>
        <time>2019-06-20T14:48:53Z</time>
      </trkpt>
      <trkpt lat="43.587499" lon="-8.181495">
        <ele>29.695</ele>
        <time>2019-06-20T14:48:54Z</time>
      </trkpt>
      <trkpt lat="43.587324" lon="-8.181448">
        <ele>29.936</ele>
        <time>2019-06-20T14:48:55Z</time>
      </trkpt>
      <trkpt lat="43.587148" lon="-8.181433">
        <ele>30.398</ele>
        <time>2019-06-20T14:48:56Z</time>
      </trkpt>
      <trkpt lat="43.586965" lon="-8.181400">
        <ele>31.045</ele>
        <time>2019-06-20T14:48:57Z</time>
      </trkpt>
      <trkpt lat="43.586793" lon="-8.181371">
        <ele>32.137</ele>
        <time>2019-06-20T14:48:58Z</time>
      </trkpt>
      <trkpt lat="43.586628" lon="-8.181343">
        <ele>32.849</ele>
        <time>2019-06-20T14:48:59Z</time>
      </trkpt>
      <trkpt lat="43.586458" lon="-8.181319">
        <ele>32.713</ele>
        <time>2019-06-20T14:49:00Z</time>
      </trkpt>
      <trkpt lat="43.586306" lon="-8.181274">
        <ele>32.408</ele>
        <time>2019-06-20T14:49:01Z</time>
      </trkpt>
      <trkpt lat="43.586165" lon="-8.181223">
        <ele>32.136</ele>
        <time>2019-06-20T14:49:02Z</time>
      </trkpt>
      <trkpt lat="43.586015" lon="-8.181182">
        <ele>32.090</ele>
        <time>2019-06-20T14:49:03Z</time>
      </trkpt>
      <trkpt lat="43.585863" lon="-8.181137">
        <ele>32.051</ele>
        <time>2019-06-20T14:49:04Z</time>
      </trkpt>
      <trkpt lat="43.585716" lon="-8.181105">
        <ele>32.947</ele>
        <time>2019-06-20T14:49:05Z</time>
      </trkpt>
      <trkpt lat="43.585580" lon="-8.181076">
        <ele>33.814</ele>
        <time>2019-06-20T14:49:06Z</time>
      </trkpt>
      <trkpt lat="43.585440" lon="-8.181046">
        <ele>34.795</ele>
        <time>2019-06-20T14:49:07Z</time>
      </trkpt>
      <trkpt lat="43.585306" lon="-8.181021">
        <ele>35.577</ele>
        <time>2019-06-20T14:49:08Z</time>
      </trkpt>
      <trkpt lat="43.585185" lon="-8.180990">
        <ele>35.854</ele>
        <time>2019-06-20T14:49:09Z</time>
      </trkpt>
      <trkpt lat="43.585085" lon="-8.180944">
        <ele>35.724</ele>
        <time>2019-06-20T14:49:10Z</time>
      </trkpt>
      <trkpt lat="43.584968" lon="-8.180906">
        <ele>35.604</ele>
        <time>2019-06-20T14:49:11Z</time>
      </trkpt>
      <trkpt lat="43.584866" lon="-8.180902">
        <ele>35.914</ele>
        <time>2019-06-20T14:49:12Z</time>
      </trkpt>
      <trkpt lat="43.584775" lon="-8.180875">
        <ele>36.008</ele>
        <time>2019-06-20T14:49:13Z</time>
      </trkpt>
      <trkpt lat="43.584690" lon="-8.180834">
        <ele>36.035</ele>
        <time>2019-06-20T14:49:14Z</time>
      </trkpt>
      <trkpt lat="43.584637" lon="-8.180772">
        <ele>35.529</ele>
        <time>2019-06-20T14:49:15Z</time>
      </trkpt>
      <trkpt lat="43.584587" lon="-8.180733">
        <ele>35.450</ele>
        <time>2019-06-20T14:49:16Z</time>
      </trkpt>
      <trkpt lat="43.584540" lon="-8.180707">
        <ele>35.586</ele>
        <time>2019-06-20T14:49:17Z</time>
      </trkpt>
      <trkpt lat="43.584495" lon="-8.180698">
        <ele>35.763</ele>
        <time>2019-06-20T14:49:18Z</time>
      </trkpt>
      <trkpt lat="43.584424" lon="-8.180688">
        <ele>36.174</ele>
        <time>2019-06-20T14:49:20Z</time>
      </trkpt>
      <trkpt lat="43.584348" lon="-8.180763">
        <ele>36.916</ele>
        <time>2019-06-20T14:49:21Z</time>
      </trkpt>
      <trkpt lat="43.584250" lon="-8.180878">
        <ele>38.153</ele>
        <time>2019-06-20T14:49:22Z</time>
      </trkpt>
      <trkpt lat="43.584180" lon="-8.180953">
        <ele>38.946</ele>
        <time>2019-06-20T14:49:23Z</time>
      </trkpt>
      <trkpt lat="43.584095" lon="-8.181054">
        <ele>39.488</ele>
        <time>2019-06-20T14:49:24Z</time>
      </trkpt>
      <trkpt lat="43.583999" lon="-8.181160">
        <ele>40.416</ele>
        <time>2019-06-20T14:49:25Z</time>
      </trkpt>
      <trkpt lat="43.583904" lon="-8.181259">
        <ele>41.408</ele>
        <time>2019-06-20T14:49:26Z</time>
      </trkpt>
      <trkpt lat="43.583819" lon="-8.181348">
        <ele>42.177</ele>
        <time>2019-06-20T14:49:27Z</time>
      </trkpt>
      <trkpt lat="43.583734" lon="-8.181436">
        <ele>42.641</ele>
        <time>2019-06-20T14:49:28Z</time>
      </trkpt>
      <trkpt lat="43.583678" lon="-8.181512">
        <ele>42.942</ele>
        <time>2019-06-20T14:49:29Z</time>
      </trkpt>
      <trkpt lat="43.583626" lon="-8.181586">
        <ele>43.068</ele>
        <time>2019-06-20T14:49:30Z</time>
      </trkpt>
      <trkpt lat="43.583571" lon="-8.181668">
        <ele>43.015</ele>
        <time>2019-06-20T14:49:31Z</time>
      </trkpt>
      <trkpt lat="43.583509" lon="-8.181738">
        <ele>43.036</ele>
        <time>2019-06-20T14:49:32Z</time>
      </trkpt>
      <trkpt lat="43.583432" lon="-8.181806">
        <ele>43.098</ele>
        <time>2019-06-20T14:49:33Z</time>
      </trkpt>
      <trkpt lat="43.583347" lon="-8.181869">
        <ele>43.055</ele>
        <time>2019-06-20T14:49:34Z</time>
      </trkpt>
      <trkpt lat="43.583249" lon="-8.181968">
        <ele>43.092</ele>
        <time>2019-06-20T14:49:35Z</time>
      </trkpt>
      <trkpt lat="43.583161" lon="-8.182076">
        <ele>43.073</ele>
        <time>2019-06-20T14:49:36Z</time>
      </trkpt>
      <trkpt lat="43.583083" lon="-8.182204">
        <ele>43.020</ele>
        <time>2019-06-20T14:49:37Z</time>
      </trkpt>
      <trkpt lat="43.583008" lon="-8.182358">
        <ele>42.708</ele>
        <time>2019-06-20T14:49:38Z</time>
      </trkpt>
      <trkpt lat="43.582950" lon="-8.182521">
        <ele>42.292</ele>
        <time>2019-06-20T14:49:39Z</time>
      </trkpt>
      <trkpt lat="43.582879" lon="-8.182723">
        <ele>41.476</ele>
        <time>2019-06-20T14:49:40Z</time>
      </trkpt>
      <trkpt lat="43.582804" lon="-8.182925">
        <ele>40.617</ele>
        <time>2019-06-20T14:49:41Z</time>
      </trkpt>
      <trkpt lat="43.582734" lon="-8.183133">
        <ele>40.023</ele>
        <time>2019-06-20T14:49:42Z</time>
      </trkpt>
      <trkpt lat="43.582658" lon="-8.183350">
        <ele>40.090</ele>
        <time>2019-06-20T14:49:43Z</time>
      </trkpt>
      <trkpt lat="43.582596" lon="-8.183576">
        <ele>40.071</ele>
        <time>2019-06-20T14:49:44Z</time>
      </trkpt>
      <trkpt lat="43.582521" lon="-8.183807">
        <ele>40.093</ele>
        <time>2019-06-20T14:49:45Z</time>
      </trkpt>
      <trkpt lat="43.582454" lon="-8.184030">
        <ele>39.460</ele>
        <time>2019-06-20T14:49:46Z</time>
      </trkpt>
      <trkpt lat="43.582389" lon="-8.184258">
        <ele>39.039</ele>
        <time>2019-06-20T14:49:47Z</time>
      </trkpt>
      <trkpt lat="43.582325" lon="-8.184486">
        <ele>38.901</ele>
        <time>2019-06-20T14:49:48Z</time>
      </trkpt>
      <trkpt lat="43.582244" lon="-8.184711">
        <ele>38.021</ele>
        <time>2019-06-20T14:49:49Z</time>
      </trkpt>
      <trkpt lat="43.582165" lon="-8.184941">
        <ele>37.208</ele>
        <time>2019-06-20T14:49:50Z</time>
      </trkpt>
      <trkpt lat="43.582080" lon="-8.185172">
        <ele>36.486</ele>
        <time>2019-06-20T14:49:51Z</time>
      </trkpt>
      <trkpt lat="43.581982" lon="-8.185424">
        <ele>35.510</ele>
        <time>2019-06-20T14:49:52Z</time>
      </trkpt>
      <trkpt lat="43.581898" lon="-8.185660">
        <ele>34.071</ele>
        <time>2019-06-20T14:49:53Z</time>
      </trkpt>
      <trkpt lat="43.581812" lon="-8.185896">
        <ele>32.877</ele>
        <time>2019-06-20T14:49:54Z</time>
      </trkpt>
      <trkpt lat="43.581728" lon="-8.186140">
        <ele>31.944</ele>
        <time>2019-06-20T14:49:55Z</time>
      </trkpt>
      <trkpt lat="43.581648" lon="-8.186380">
        <ele>31.045</ele>
        <time>2019-06-20T14:49:56Z</time>
      </trkpt>
      <trkpt lat="43.581565" lon="-8.186618">
        <ele>30.217</ele>
        <time>2019-06-20T14:49:57Z</time>
      </trkpt>
      <trkpt lat="43.581470" lon="-8.186867">
        <ele>28.664</ele>
        <time>2019-06-20T14:49:58Z</time>
      </trkpt>
      <trkpt lat="43.581392" lon="-8.187106">
        <ele>27.435</ele>
        <time>2019-06-20T14:49:59Z</time>
      </trkpt>
      <trkpt lat="43.581331" lon="-8.187322">
        <ele>27.186</ele>
        <time>2019-06-20T14:50:00Z</time>
      </trkpt>
      <trkpt lat="43.581256" lon="-8.187540">
        <ele>27.014</ele>
        <time>2019-06-20T14:50:01Z</time>
      </trkpt>
      <trkpt lat="43.581185" lon="-8.187747">
        <ele>27.508</ele>
        <time>2019-06-20T14:50:02Z</time>
      </trkpt>
      <trkpt lat="43.581107" lon="-8.187961">
        <ele>28.096</ele>
        <time>2019-06-20T14:50:03Z</time>
      </trkpt>
      <trkpt lat="43.581045" lon="-8.188162">
        <ele>28.460</ele>
        <time>2019-06-20T14:50:04Z</time>
      </trkpt>
      <trkpt lat="43.580981" lon="-8.188352">
        <ele>28.461</ele>
        <time>2019-06-20T14:50:05Z</time>
      </trkpt>
      <trkpt lat="43.580914" lon="-8.188535">
        <ele>28.027</ele>
        <time>2019-06-20T14:50:06Z</time>
      </trkpt>
      <trkpt lat="43.580856" lon="-8.188706">
        <ele>27.674</ele>
        <time>2019-06-20T14:50:07Z</time>
      </trkpt>
      <trkpt lat="43.580800" lon="-8.188880">
        <ele>27.215</ele>
        <time>2019-06-20T14:50:08Z</time>
      </trkpt>
      <trkpt lat="43.580742" lon="-8.189061">
        <ele>26.997</ele>
        <time>2019-06-20T14:50:09Z</time>
      </trkpt>
      <trkpt lat="43.580674" lon="-8.189245">
        <ele>26.114</ele>
        <time>2019-06-20T14:50:10Z</time>
      </trkpt>
      <trkpt lat="43.580620" lon="-8.189436">
        <ele>25.397</ele>
        <time>2019-06-20T14:50:11Z</time>
      </trkpt>
      <trkpt lat="43.580546" lon="-8.189624">
        <ele>23.023</ele>
        <time>2019-06-20T14:50:12Z</time>
      </trkpt>
      <trkpt lat="43.580476" lon="-8.189835">
        <ele>21.125</ele>
        <time>2019-06-20T14:50:13Z</time>
      </trkpt>
      <trkpt lat="43.580391" lon="-8.190061">
        <ele>18.908</ele>
        <time>2019-06-20T14:50:14Z</time>
      </trkpt>
      <trkpt lat="43.580299" lon="-8.190305">
        <ele>16.962</ele>
        <time>2019-06-20T14:50:15Z</time>
      </trkpt>
      <trkpt lat="43.580215" lon="-8.190558">
        <ele>16.026</ele>
        <time>2019-06-20T14:50:16Z</time>
      </trkpt>
      <trkpt lat="43.580133" lon="-8.190818">
        <ele>14.637</ele>
        <time>2019-06-20T14:50:17Z</time>
      </trkpt>
      <trkpt lat="43.580051" lon="-8.191105">
        <ele>14.073</ele>
        <time>2019-06-20T14:50:18Z</time>
      </trkpt>
      <trkpt lat="43.579959" lon="-8.191395">
        <ele>14.010</ele>
        <time>2019-06-20T14:50:19Z</time>
      </trkpt>
      <trkpt lat="43.579873" lon="-8.191688">
        <ele>15.041</ele>
        <time>2019-06-20T14:50:20Z</time>
      </trkpt>
      <trkpt lat="43.579784" lon="-8.191985">
        <ele>15.453</ele>
        <time>2019-06-20T14:50:21Z</time>
      </trkpt>
      <trkpt lat="43.579693" lon="-8.192273">
        <ele>16.260</ele>
        <time>2019-06-20T14:50:22Z</time>
      </trkpt>
      <trkpt lat="43.579614" lon="-8.192553">
        <ele>16.773</ele>
        <time>2019-06-20T14:50:23Z</time>
      </trkpt>
      <trkpt lat="43.579523" lon="-8.192834">
        <ele>17.285</ele>
        <time>2019-06-20T14:50:24Z</time>
      </trkpt>
      <trkpt lat="43.579421" lon="-8.193132">
        <ele>18.313</ele>
        <time>2019-06-20T14:50:25Z</time>
      </trkpt>
      <trkpt lat="43.579308" lon="-8.193441">
        <ele>19.108</ele>
        <time>2019-06-20T14:50:26Z</time>
      </trkpt>
      <trkpt lat="43.579208" lon="-8.193726">
        <ele>20.580</ele>
        <time>2019-06-20T14:50:27Z</time>
      </trkpt>
      <trkpt lat="43.579122" lon="-8.194008">
        <ele>21.664</ele>
        <time>2019-06-20T14:50:28Z</time>
      </trkpt>
      <trkpt lat="43.579024" lon="-8.194300">
        <ele>22.995</ele>
        <time>2019-06-20T14:50:29Z</time>
      </trkpt>
      <trkpt lat="43.578928" lon="-8.194591">
        <ele>24.261</ele>
        <time>2019-06-20T14:50:30Z</time>
      </trkpt>
      <trkpt lat="43.578834" lon="-8.194875">
        <ele>25.978</ele>
        <time>2019-06-20T14:50:31Z</time>
      </trkpt>
      <trkpt lat="43.578730" lon="-8.195167">
        <ele>27.739</ele>
        <time>2019-06-20T14:50:32Z</time>
      </trkpt>
      <trkpt lat="43.578638" lon="-8.195437">
        <ele>28.631</ele>
        <time>2019-06-20T14:50:33Z</time>
      </trkpt>
      <trkpt lat="43.578546" lon="-8.195715">
        <ele>29.428</ele>
        <time>2019-06-20T14:50:34Z</time>
      </trkpt>
      <trkpt lat="43.578449" lon="-8.195991">
        <ele>30.097</ele>
        <time>2019-06-20T14:50:35Z</time>
      </trkpt>
      <trkpt lat="43.578341" lon="-8.196256">
        <ele>31.123</ele>
        <time>2019-06-20T14:50:36Z</time>
      </trkpt>
      <trkpt lat="43.578223" lon="-8.196520">
        <ele>31.925</ele>
        <time>2019-06-20T14:50:37Z</time>
      </trkpt>
      <trkpt lat="43.578090" lon="-8.196769">
        <ele>32.808</ele>
        <time>2019-06-20T14:50:38Z</time>
      </trkpt>
      <trkpt lat="43.577948" lon="-8.197002">
        <ele>34.212</ele>
        <time>2019-06-20T14:50:39Z</time>
      </trkpt>
      <trkpt lat="43.577790" lon="-8.197219">
        <ele>36.866</ele>
        <time>2019-06-20T14:50:40Z</time>
      </trkpt>
      <trkpt lat="43.577620" lon="-8.197424">
        <ele>38.597</ele>
        <time>2019-06-20T14:50:41Z</time>
      </trkpt>
      <trkpt lat="43.577443" lon="-8.197610">
        <ele>39.913</ele>
        <time>2019-06-20T14:50:42Z</time>
      </trkpt>
      <trkpt lat="43.577264" lon="-8.197792">
        <ele>41.220</ele>
        <time>2019-06-20T14:50:43Z</time>
      </trkpt>
      <trkpt lat="43.577090" lon="-8.197935">
        <ele>43.411</ele>
        <time>2019-06-20T14:50:44Z</time>
      </trkpt>
      <trkpt lat="43.576928" lon="-8.198076">
        <ele>45.283</ele>
        <time>2019-06-20T14:50:45Z</time>
      </trkpt>
      <trkpt lat="43.576782" lon="-8.198206">
        <ele>46.740</ele>
        <time>2019-06-20T14:50:46Z</time>
      </trkpt>
      <trkpt lat="43.576630" lon="-8.198314">
        <ele>48.022</ele>
        <time>2019-06-20T14:50:47Z</time>
      </trkpt>
      <trkpt lat="43.576479" lon="-8.198438">
        <ele>49.162</ele>
        <time>2019-06-20T14:50:48Z</time>
      </trkpt>
      <trkpt lat="43.576338" lon="-8.198548">
        <ele>49.808</ele>
        <time>2019-06-20T14:50:49Z</time>
      </trkpt>
      <trkpt lat="43.576168" lon="-8.198680">
        <ele>50.108</ele>
        <time>2019-06-20T14:50:50Z</time>
      </trkpt>
      <trkpt lat="43.576035" lon="-8.198788">
        <ele>50.435</ele>
        <time>2019-06-20T14:50:51Z</time>
      </trkpt>
      <trkpt lat="43.575897" lon="-8.198895">
        <ele>51.549</ele>
        <time>2019-06-20T14:50:52Z</time>
      </trkpt>
      <trkpt lat="43.575762" lon="-8.199000">
        <ele>51.970</ele>
        <time>2019-06-20T14:50:53Z</time>
      </trkpt>
      <trkpt lat="43.575620" lon="-8.199118">
        <ele>51.916</ele>
        <time>2019-06-20T14:50:54Z</time>
      </trkpt>
      <trkpt lat="43.575472" lon="-8.199241">
        <ele>52.593</ele>
        <time>2019-06-20T14:50:55Z</time>
      </trkpt>
      <trkpt lat="43.575327" lon="-8.199359">
        <ele>53.184</ele>
        <time>2019-06-20T14:50:56Z</time>
      </trkpt>
      <trkpt lat="43.575199" lon="-8.199463">
        <ele>53.536</ele>
        <time>2019-06-20T14:50:57Z</time>
      </trkpt>
      <trkpt lat="43.575065" lon="-8.199568">
        <ele>54.273</ele>
        <time>2019-06-20T14:50:58Z</time>
      </trkpt>
      <trkpt lat="43.574939" lon="-8.199667">
        <ele>54.269</ele>
        <time>2019-06-20T14:50:59Z</time>
      </trkpt>
      <trkpt lat="43.574824" lon="-8.199766">
        <ele>53.804</ele>
        <time>2019-06-20T14:51:00Z</time>
      </trkpt>
      <trkpt lat="43.574706" lon="-8.199863">
        <ele>53.724</ele>
        <time>2019-06-20T14:51:01Z</time>
      </trkpt>
      <trkpt lat="43.574569" lon="-8.199967">
        <ele>55.308</ele>
        <time>2019-06-20T14:51:02Z</time>
      </trkpt>
      <trkpt lat="43.574423" lon="-8.200083">
        <ele>57.369</ele>
        <time>2019-06-20T14:51:03Z</time>
      </trkpt>
      <trkpt lat="43.574293" lon="-8.200189">
        <ele>59.263</ele>
        <time>2019-06-20T14:51:04Z</time>
      </trkpt>
      <trkpt lat="43.574123" lon="-8.200316">
        <ele>61.224</ele>
        <time>2019-06-20T14:51:05Z</time>
      </trkpt>
      <trkpt lat="43.574011" lon="-8.200414">
        <ele>61.670</ele>
        <time>2019-06-20T14:51:06Z</time>
      </trkpt>
      <trkpt lat="43.573862" lon="-8.200532">
        <ele>62.057</ele>
        <time>2019-06-20T14:51:07Z</time>
      </trkpt>
      <trkpt lat="43.573728" lon="-8.200638">
        <ele>61.778</ele>
        <time>2019-06-20T14:51:08Z</time>
      </trkpt>
      <trkpt lat="43.573578" lon="-8.200752">
        <ele>61.430</ele>
        <time>2019-06-20T14:51:09Z</time>
      </trkpt>
      <trkpt lat="43.573444" lon="-8.200858">
        <ele>61.637</ele>
        <time>2019-06-20T14:51:10Z</time>
      </trkpt>
      <trkpt lat="43.573328" lon="-8.200961">
        <ele>62.092</ele>
        <time>2019-06-20T14:51:11Z</time>
      </trkpt>
      <trkpt lat="43.573204" lon="-8.201064">
        <ele>61.673</ele>
        <time>2019-06-20T14:51:12Z</time>
      </trkpt>
      <trkpt lat="43.573067" lon="-8.201165">
        <ele>60.820</ele>
        <time>2019-06-20T14:51:13Z</time>
      </trkpt>
      <trkpt lat="43.572937" lon="-8.201256">
        <ele>61.308</ele>
        <time>2019-06-20T14:51:14Z</time>
      </trkpt>
      <trkpt lat="43.572809" lon="-8.201356">
        <ele>61.912</ele>
        <time>2019-06-20T14:51:15Z</time>
      </trkpt>
      <trkpt lat="43.572667" lon="-8.201485">
        <ele>63.266</ele>
        <time>2019-06-20T14:51:16Z</time>
      </trkpt>
      <trkpt lat="43.572545" lon="-8.201589">
        <ele>64.577</ele>
        <time>2019-06-20T14:51:17Z</time>
      </trkpt>
      <trkpt lat="43.572413" lon="-8.201688">
        <ele>65.523</ele>
        <time>2019-06-20T14:51:18Z</time>
      </trkpt>
      <trkpt lat="43.572276" lon="-8.201801">
        <ele>65.790</ele>
        <time>2019-06-20T14:51:19Z</time>
      </trkpt>
      <trkpt lat="43.572119" lon="-8.201924">
        <ele>66.311</ele>
        <time>2019-06-20T14:51:20Z</time>
      </trkpt>
      <trkpt lat="43.572028" lon="-8.202009">
        <ele>66.723</ele>
        <time>2019-06-20T14:51:21Z</time>
      </trkpt>
      <trkpt lat="43.571920" lon="-8.202100">
        <ele>67.110</ele>
        <time>2019-06-20T14:51:22Z</time>
      </trkpt>
      <trkpt lat="43.571802" lon="-8.202207">
        <ele>67.692</ele>
        <time>2019-06-20T14:51:23Z</time>
      </trkpt>
      <trkpt lat="43.571684" lon="-8.202305">
        <ele>68.273</ele>
        <time>2019-06-20T14:51:24Z</time>
      </trkpt>
      <trkpt lat="43.571568" lon="-8.202419">
        <ele>68.520</ele>
        <time>2019-06-20T14:51:25Z</time>
      </trkpt>
      <trkpt lat="43.571453" lon="-8.202516">
        <ele>69.308</ele>
        <time>2019-06-20T14:51:26Z</time>
      </trkpt>
      <trkpt lat="43.571351" lon="-8.202610">
        <ele>69.812</ele>
        <time>2019-06-20T14:51:27Z</time>
      </trkpt>
      <trkpt lat="43.571239" lon="-8.202700">
        <ele>70.236</ele>
        <time>2019-06-20T14:51:28Z</time>
      </trkpt>
      <trkpt lat="43.571126" lon="-8.202791">
        <ele>70.847</ele>
        <time>2019-06-20T14:51:29Z</time>
      </trkpt>
      <trkpt lat="43.571002" lon="-8.202892">
        <ele>70.893</ele>
        <time>2019-06-20T14:51:30Z</time>
      </trkpt>
      <trkpt lat="43.570888" lon="-8.202985">
        <ele>70.980</ele>
        <time>2019-06-20T14:51:31Z</time>
      </trkpt>
      <trkpt lat="43.570781" lon="-8.203067">
        <ele>71.281</ele>
        <time>2019-06-20T14:51:32Z</time>
      </trkpt>
      <trkpt lat="43.570669" lon="-8.203158">
        <ele>71.453</ele>
        <time>2019-06-20T14:51:33Z</time>
      </trkpt>
      <trkpt lat="43.570577" lon="-8.203245">
        <ele>71.910</ele>
        <time>2019-06-20T14:51:34Z</time>
      </trkpt>
      <trkpt lat="43.570461" lon="-8.203340">
        <ele>72.724</ele>
        <time>2019-06-20T14:51:35Z</time>
      </trkpt>
      <trkpt lat="43.570334" lon="-8.203441">
        <ele>73.604</ele>
        <time>2019-06-20T14:51:36Z</time>
      </trkpt>
      <trkpt lat="43.570206" lon="-8.203546">
        <ele>74.214</ele>
        <time>2019-06-20T14:51:37Z</time>
      </trkpt>
      <trkpt lat="43.570075" lon="-8.203650">
        <ele>74.608</ele>
        <time>2019-06-20T14:51:38Z</time>
      </trkpt>
      <trkpt lat="43.569957" lon="-8.203747">
        <ele>74.345</ele>
        <time>2019-06-20T14:51:39Z</time>
      </trkpt>
      <trkpt lat="43.569836" lon="-8.203847">
        <ele>73.599</ele>
        <time>2019-06-20T14:51:40Z</time>
      </trkpt>
      <trkpt lat="43.569710" lon="-8.203948">
        <ele>73.080</ele>
        <time>2019-06-20T14:51:41Z</time>
      </trkpt>
      <trkpt lat="43.569591" lon="-8.204040">
        <ele>72.526</ele>
        <time>2019-06-20T14:51:42Z</time>
      </trkpt>
      <trkpt lat="43.569445" lon="-8.204161">
        <ele>72.023</ele>
        <time>2019-06-20T14:51:43Z</time>
      </trkpt>
      <trkpt lat="43.569287" lon="-8.204282">
        <ele>72.074</ele>
        <time>2019-06-20T14:51:44Z</time>
      </trkpt>
      <trkpt lat="43.569152" lon="-8.204403">
        <ele>72.046</ele>
        <time>2019-06-20T14:51:45Z</time>
      </trkpt>
      <trkpt lat="43.569009" lon="-8.204518">
        <ele>72.093</ele>
        <time>2019-06-20T14:51:46Z</time>
      </trkpt>
      <trkpt lat="43.568843" lon="-8.204658">
        <ele>72.147</ele>
        <time>2019-06-20T14:51:47Z</time>
      </trkpt>
      <trkpt lat="43.568693" lon="-8.204773">
        <ele>72.929</ele>
        <time>2019-06-20T14:51:48Z</time>
      </trkpt>
      <trkpt lat="43.568546" lon="-8.204893">
        <ele>73.621</ele>
        <time>2019-06-20T14:51:49Z</time>
      </trkpt>
      <trkpt lat="43.568397" lon="-8.205017">
        <ele>74.108</ele>
        <time>2019-06-20T14:51:50Z</time>
      </trkpt>
      <trkpt lat="43.568267" lon="-8.205128">
        <ele>75.487</ele>
        <time>2019-06-20T14:51:51Z</time>
      </trkpt>
      <trkpt lat="43.568134" lon="-8.205233">
        <ele>77.131</ele>
        <time>2019-06-20T14:51:52Z</time>
      </trkpt>
      <trkpt lat="43.567938" lon="-8.205423">
        <ele>78.232</ele>
        <time>2019-06-20T14:51:53Z</time>
      </trkpt>
      <trkpt lat="43.567804" lon="-8.205543">
        <ele>78.918</ele>
        <time>2019-06-20T14:51:54Z</time>
      </trkpt>
      <trkpt lat="43.567671" lon="-8.205642">
        <ele>79.245</ele>
        <time>2019-06-20T14:51:55Z</time>
      </trkpt>
      <trkpt lat="43.567522" lon="-8.205775">
        <ele>80.536</ele>
        <time>2019-06-20T14:51:56Z</time>
      </trkpt>
      <trkpt lat="43.567395" lon="-8.205881">
        <ele>81.138</ele>
        <time>2019-06-20T14:51:57Z</time>
      </trkpt>
      <trkpt lat="43.567224" lon="-8.206008">
        <ele>81.685</ele>
        <time>2019-06-20T14:51:58Z</time>
      </trkpt>
      <trkpt lat="43.567070" lon="-8.206129">
        <ele>82.628</ele>
        <time>2019-06-20T14:51:59Z</time>
      </trkpt>
      <trkpt lat="43.566931" lon="-8.206245">
        <ele>83.689</ele>
        <time>2019-06-20T14:52:00Z</time>
      </trkpt>
      <trkpt lat="43.566760" lon="-8.206381">
        <ele>84.717</ele>
        <time>2019-06-20T14:52:01Z</time>
      </trkpt>
      <trkpt lat="43.566696" lon="-8.206446">
        <ele>85.108</ele>
        <time>2019-06-20T14:52:02Z</time>
      </trkpt>
      <trkpt lat="43.566585" lon="-8.206540">
        <ele>85.775</ele>
        <time>2019-06-20T14:52:03Z</time>
      </trkpt>
      <trkpt lat="43.566473" lon="-8.206632">
        <ele>86.099</ele>
        <time>2019-06-20T14:52:04Z</time>
      </trkpt>
      <trkpt lat="43.566394" lon="-8.206712">
        <ele>86.020</ele>
        <time>2019-06-20T14:52:05Z</time>
      </trkpt>
      <trkpt lat="43.566301" lon="-8.206802">
        <ele>86.356</ele>
        <time>2019-06-20T14:52:06Z</time>
      </trkpt>
      <trkpt lat="43.566227" lon="-8.206853">
        <ele>86.693</ele>
        <time>2019-06-20T14:52:08Z</time>
      </trkpt>
      <trkpt lat="43.566172" lon="-8.206877">
        <ele>86.894</ele>
        <time>2019-06-20T14:52:18Z</time>
      </trkpt>
      <trkpt lat="43.566127" lon="-8.206912">
        <ele>86.946</ele>
        <time>2019-06-20T14:53:25Z</time>
      </trkpt>
      <trkpt lat="43.565997" lon="-8.206997">
        <ele>87.023</ele>
        <time>2019-06-20T14:53:27Z</time>
      </trkpt>
      <trkpt lat="43.565905" lon="-8.207073">
        <ele>87.287</ele>
        <time>2019-06-20T14:53:28Z</time>
      </trkpt>
      <trkpt lat="43.565833" lon="-8.207139">
        <ele>87.742</ele>
        <time>2019-06-20T14:53:29Z</time>
      </trkpt>
      <trkpt lat="43.565745" lon="-8.207207">
        <ele>88.626</ele>
        <time>2019-06-20T14:53:30Z</time>
      </trkpt>
      <trkpt lat="43.565654" lon="-8.207279">
        <ele>89.408</ele>
        <time>2019-06-20T14:53:31Z</time>
      </trkpt>
      <trkpt lat="43.565560" lon="-8.207354">
        <ele>90.441</ele>
        <time>2019-06-20T14:53:32Z</time>
      </trkpt>
      <trkpt lat="43.565500" lon="-8.207418">
        <ele>90.925</ele>
        <time>2019-06-20T14:53:33Z</time>
      </trkpt>
      <trkpt lat="43.565429" lon="-8.207462">
        <ele>91.356</ele>
        <time>2019-06-20T14:53:34Z</time>
      </trkpt>
      <trkpt lat="43.565352" lon="-8.207521">
        <ele>91.762</ele>
        <time>2019-06-20T14:53:35Z</time>
      </trkpt>
      <trkpt lat="43.565253" lon="-8.207573">
        <ele>92.049</ele>
        <time>2019-06-20T14:53:36Z</time>
      </trkpt>
      <trkpt lat="43.565145" lon="-8.207614">
        <ele>92.230</ele>
        <time>2019-06-20T14:53:37Z</time>
      </trkpt>
      <trkpt lat="43.565022" lon="-8.207652">
        <ele>92.512</ele>
        <time>2019-06-20T14:53:38Z</time>
      </trkpt>
      <trkpt lat="43.564886" lon="-8.207685">
        <ele>93.139</ele>
        <time>2019-06-20T14:53:39Z</time>
      </trkpt>
      <trkpt lat="43.564747" lon="-8.207709">
        <ele>93.789</ele>
        <time>2019-06-20T14:53:40Z</time>
      </trkpt>
      <trkpt lat="43.564595" lon="-8.207737">
        <ele>93.406</ele>
        <time>2019-06-20T14:53:41Z</time>
      </trkpt>
      <trkpt lat="43.564419" lon="-8.207775">
        <ele>92.826</ele>
        <time>2019-06-20T14:53:42Z</time>
      </trkpt>
      <trkpt lat="43.564249" lon="-8.207798">
        <ele>91.608</ele>
        <time>2019-06-20T14:53:43Z</time>
      </trkpt>
      <trkpt lat="43.564073" lon="-8.207826">
        <ele>90.861</ele>
        <time>2019-06-20T14:53:44Z</time>
      </trkpt>
      <trkpt lat="43.563883" lon="-8.207855">
        <ele>90.385</ele>
        <time>2019-06-20T14:53:45Z</time>
      </trkpt>
      <trkpt lat="43.563697" lon="-8.207888">
        <ele>89.756</ele>
        <time>2019-06-20T14:53:46Z</time>
      </trkpt>
      <trkpt lat="43.563502" lon="-8.207921">
        <ele>89.112</ele>
        <time>2019-06-20T14:53:47Z</time>
      </trkpt>
      <trkpt lat="43.563302" lon="-8.207951">
        <ele>88.499</ele>
        <time>2019-06-20T14:53:48Z</time>
      </trkpt>
      <trkpt lat="43.563086" lon="-8.207992">
        <ele>87.210</ele>
        <time>2019-06-20T14:53:49Z</time>
      </trkpt>
      <trkpt lat="43.562860" lon="-8.208031">
        <ele>85.672</ele>
        <time>2019-06-20T14:53:50Z</time>
      </trkpt>
      <trkpt lat="43.562623" lon="-8.208068">
        <ele>84.499</ele>
        <time>2019-06-20T14:53:51Z</time>
      </trkpt>
      <trkpt lat="43.562387" lon="-8.208102">
        <ele>83.853</ele>
        <time>2019-06-20T14:53:52Z</time>
      </trkpt>
      <trkpt lat="43.562148" lon="-8.208139">
        <ele>83.704</ele>
        <time>2019-06-20T14:53:53Z</time>
      </trkpt>
      <trkpt lat="43.561910" lon="-8.208183">
        <ele>83.614</ele>
        <time>2019-06-20T14:53:54Z</time>
      </trkpt>
      <trkpt lat="43.561677" lon="-8.208227">
        <ele>84.008</ele>
        <time>2019-06-20T14:53:55Z</time>
      </trkpt>
      <trkpt lat="43.561444" lon="-8.208262">
        <ele>83.098</ele>
        <time>2019-06-20T14:53:56Z</time>
      </trkpt>
      <trkpt lat="43.561217" lon="-8.208300">
        <ele>82.352</ele>
        <time>2019-06-20T14:53:57Z</time>
      </trkpt>
      <trkpt lat="43.560989" lon="-8.208332">
        <ele>82.023</ele>
        <time>2019-06-20T14:53:58Z</time>
      </trkpt>
      <trkpt lat="43.560766" lon="-8.208368">
        <ele>81.849</ele>
        <time>2019-06-20T14:53:59Z</time>
      </trkpt>
      <trkpt lat="43.560539" lon="-8.208401">
        <ele>81.266</ele>
        <time>2019-06-20T14:54:00Z</time>
      </trkpt>
      <trkpt lat="43.560287" lon="-8.208443">
        <ele>81.047</ele>
        <time>2019-06-20T14:54:01Z</time>
      </trkpt>
      <trkpt lat="43.560047" lon="-8.208494">
        <ele>80.229</ele>
        <time>2019-06-20T14:54:02Z</time>
      </trkpt>
      <trkpt lat="43.559819" lon="-8.208527">
        <ele>80.016</ele>
        <time>2019-06-20T14:54:03Z</time>
      </trkpt>
      <trkpt lat="43.559579" lon="-8.208570">
        <ele>80.069</ele>
        <time>2019-06-20T14:54:04Z</time>
      </trkpt>
      <trkpt lat="43.559340" lon="-8.208622">
        <ele>79.604</ele>
        <time>2019-06-20T14:54:05Z</time>
      </trkpt>
      <trkpt lat="43.559103" lon="-8.208667">
        <ele>79.224</ele>
        <time>2019-06-20T14:54:06Z</time>
      </trkpt>
      <trkpt lat="43.558878" lon="-8.208717">
        <ele>79.408</ele>
        <time>2019-06-20T14:54:07Z</time>
      </trkpt>
      <trkpt lat="43.558641" lon="-8.208763">
        <ele>79.569</ele>
        <time>2019-06-20T14:54:08Z</time>
      </trkpt>
      <trkpt lat="43.558412" lon="-8.208802">
        <ele>79.063</ele>
        <time>2019-06-20T14:54:09Z</time>
      </trkpt>
      <trkpt lat="43.558182" lon="-8.208844">
        <ele>78.434</ele>
        <time>2019-06-20T14:54:10Z</time>
      </trkpt>
      <trkpt lat="43.557959" lon="-8.208866">
        <ele>77.090</ele>
        <time>2019-06-20T14:54:11Z</time>
      </trkpt>
      <trkpt lat="43.557719" lon="-8.208906">
        <ele>74.637</ele>
        <time>2019-06-20T14:54:12Z</time>
      </trkpt>
      <trkpt lat="43.557479" lon="-8.208949">
        <ele>73.118</ele>
        <time>2019-06-20T14:54:13Z</time>
      </trkpt>
      <trkpt lat="43.557228" lon="-8.208985">
        <ele>72.080</ele>
        <time>2019-06-20T14:54:14Z</time>
      </trkpt>
      <trkpt lat="43.557000" lon="-8.209023">
        <ele>71.677</ele>
        <time>2019-06-20T14:54:15Z</time>
      </trkpt>
      <trkpt lat="43.556765" lon="-8.209065">
        <ele>71.126</ele>
        <time>2019-06-20T14:54:16Z</time>
      </trkpt>
      <trkpt lat="43.556530" lon="-8.209109">
        <ele>70.547</ele>
        <time>2019-06-20T14:54:17Z</time>
      </trkpt>
      <trkpt lat="43.556307" lon="-8.209153">
        <ele>70.311</ele>
        <time>2019-06-20T14:54:18Z</time>
      </trkpt>
      <trkpt lat="43.556073" lon="-8.209202">
        <ele>70.808</ele>
        <time>2019-06-20T14:54:19Z</time>
      </trkpt>
      <trkpt lat="43.555850" lon="-8.209243">
        <ele>70.095</ele>
        <time>2019-06-20T14:54:20Z</time>
      </trkpt>
      <trkpt lat="43.555629" lon="-8.209289">
        <ele>70.049</ele>
        <time>2019-06-20T14:54:21Z</time>
      </trkpt>
      <trkpt lat="43.555410" lon="-8.209329">
        <ele>70.020</ele>
        <time>2019-06-20T14:54:22Z</time>
      </trkpt>
      <trkpt lat="43.555186" lon="-8.209367">
        <ele>70.666</ele>
        <time>2019-06-20T14:54:23Z</time>
      </trkpt>
      <trkpt lat="43.554972" lon="-8.209399">
        <ele>71.913</ele>
        <time>2019-06-20T14:54:24Z</time>
      </trkpt>
      <trkpt lat="43.554755" lon="-8.209431">
        <ele>72.894</ele>
        <time>2019-06-20T14:54:25Z</time>
      </trkpt>
      <trkpt lat="43.554531" lon="-8.209475">
        <ele>72.486</ele>
        <time>2019-06-20T14:54:26Z</time>
      </trkpt>
      <trkpt lat="43.554319" lon="-8.209519">
        <ele>72.163</ele>
        <time>2019-06-20T14:54:27Z</time>
      </trkpt>
      <trkpt lat="43.554091" lon="-8.209558">
        <ele>72.314</ele>
        <time>2019-06-20T14:54:28Z</time>
      </trkpt>
      <trkpt lat="43.553882" lon="-8.209601">
        <ele>73.154</ele>
        <time>2019-06-20T14:54:29Z</time>
      </trkpt>
      <trkpt lat="43.553672" lon="-8.209658">
        <ele>75.209</ele>
        <time>2019-06-20T14:54:30Z</time>
      </trkpt>
      <trkpt lat="43.553481" lon="-8.209694">
        <ele>76.808</ele>
        <time>2019-06-20T14:54:31Z</time>
      </trkpt>
      <trkpt lat="43.553281" lon="-8.209748">
        <ele>78.114</ele>
        <time>2019-06-20T14:54:32Z</time>
      </trkpt>
      <trkpt lat="43.553079" lon="-8.209839">
        <ele>78.418</ele>
        <time>2019-06-20T14:54:33Z</time>
      </trkpt>
      <trkpt lat="43.552873" lon="-8.209927">
        <ele>77.649</ele>
        <time>2019-06-20T14:54:34Z</time>
      </trkpt>
      <trkpt lat="43.552686" lon="-8.210011">
        <ele>76.725</ele>
        <time>2019-06-20T14:54:35Z</time>
      </trkpt>
      <trkpt lat="43.552477" lon="-8.210106">
        <ele>76.312</ele>
        <time>2019-06-20T14:54:36Z</time>
      </trkpt>
      <trkpt lat="43.552253" lon="-8.210211">
        <ele>75.243</ele>
        <time>2019-06-20T14:54:37Z</time>
      </trkpt>
      <trkpt lat="43.552040" lon="-8.210303">
        <ele>75.045</ele>
        <time>2019-06-20T14:54:38Z</time>
      </trkpt>
      <trkpt lat="43.551834" lon="-8.210390">
        <ele>75.022</ele>
        <time>2019-06-20T14:54:39Z</time>
      </trkpt>
      <trkpt lat="43.551626" lon="-8.210485">
        <ele>75.059</ele>
        <time>2019-06-20T14:54:40Z</time>
      </trkpt>
      <trkpt lat="43.551417" lon="-8.210590">
        <ele>75.003</ele>
        <time>2019-06-20T14:54:41Z</time>
      </trkpt>
      <trkpt lat="43.551217" lon="-8.210684">
        <ele>75.323</ele>
        <time>2019-06-20T14:54:42Z</time>
      </trkpt>
      <trkpt lat="43.551009" lon="-8.210774">
        <ele>75.708</ele>
        <time>2019-06-20T14:54:43Z</time>
      </trkpt>
      <trkpt lat="43.550813" lon="-8.210847">
        <ele>76.068</ele>
        <time>2019-06-20T14:54:44Z</time>
      </trkpt>
      <trkpt lat="43.550606" lon="-8.210919">
        <ele>75.532</ele>
        <time>2019-06-20T14:54:45Z</time>
      </trkpt>
      <trkpt lat="43.550398" lon="-8.210980">
        <ele>75.393</ele>
        <time>2019-06-20T14:54:46Z</time>
      </trkpt>
      <trkpt lat="43.550198" lon="-8.210997">
        <ele>74.969</ele>
        <time>2019-06-20T14:54:47Z</time>
      </trkpt>
      <trkpt lat="43.549991" lon="-8.211024">
        <ele>74.436</ele>
        <time>2019-06-20T14:54:48Z</time>
      </trkpt>
      <trkpt lat="43.549780" lon="-8.211004">
        <ele>74.237</ele>
        <time>2019-06-20T14:54:49Z</time>
      </trkpt>
      <trkpt lat="43.549569" lon="-8.210987">
        <ele>74.159</ele>
        <time>2019-06-20T14:54:50Z</time>
      </trkpt>
      <trkpt lat="43.549366" lon="-8.210936">
        <ele>74.036</ele>
        <time>2019-06-20T14:54:51Z</time>
      </trkpt>
      <trkpt lat="43.549152" lon="-8.210900">
        <ele>74.584</ele>
        <time>2019-06-20T14:54:52Z</time>
      </trkpt>
      <trkpt lat="43.548950" lon="-8.210862">
        <ele>75.007</ele>
        <time>2019-06-20T14:54:53Z</time>
      </trkpt>
      <trkpt lat="43.548772" lon="-8.210816">
        <ele>76.017</ele>
        <time>2019-06-20T14:54:54Z</time>
      </trkpt>
      <trkpt lat="43.548583" lon="-8.210783">
        <ele>77.708</ele>
        <time>2019-06-20T14:54:55Z</time>
      </trkpt>
      <trkpt lat="43.548417" lon="-8.210753">
        <ele>80.921</ele>
        <time>2019-06-20T14:54:56Z</time>
      </trkpt>
      <trkpt lat="43.548241" lon="-8.210726">
        <ele>83.785</ele>
        <time>2019-06-20T14:54:57Z</time>
      </trkpt>
      <trkpt lat="43.548036" lon="-8.210702">
        <ele>85.546</ele>
        <time>2019-06-20T14:54:58Z</time>
      </trkpt>
      <trkpt lat="43.547852" lon="-8.210667">
        <ele>83.432</ele>
        <time>2019-06-20T14:54:59Z</time>
      </trkpt>
      <trkpt lat="43.547667" lon="-8.210622">
        <ele>80.439</ele>
        <time>2019-06-20T14:55:00Z</time>
      </trkpt>
      <trkpt lat="43.547485" lon="-8.210581">
        <ele>77.510</ele>
        <time>2019-06-20T14:55:01Z</time>
      </trkpt>
      <trkpt lat="43.547302" lon="-8.210540">
        <ele>76.392</ele>
        <time>2019-06-20T14:55:02Z</time>
      </trkpt>
      <trkpt lat="43.547108" lon="-8.210522">
        <ele>77.399</ele>
        <time>2019-06-20T14:55:03Z</time>
      </trkpt>
      <trkpt lat="43.546916" lon="-8.210499">
        <ele>79.353</ele>
        <time>2019-06-20T14:55:04Z</time>
      </trkpt>
      <trkpt lat="43.546734" lon="-8.210457">
        <ele>81.004</ele>
        <time>2019-06-20T14:55:05Z</time>
      </trkpt>
      <trkpt lat="43.546552" lon="-8.210419">
        <ele>81.714</ele>
        <time>2019-06-20T14:55:06Z</time>
      </trkpt>
      <trkpt lat="43.546377" lon="-8.210403">
        <ele>81.908</ele>
        <time>2019-06-20T14:55:07Z</time>
      </trkpt>
      <trkpt lat="43.546203" lon="-8.210383">
        <ele>80.718</ele>
        <time>2019-06-20T14:55:08Z</time>
      </trkpt>
      <trkpt lat="43.546004" lon="-8.210421">
        <ele>79.852</ele>
        <time>2019-06-20T14:55:09Z</time>
      </trkpt>
      <trkpt lat="43.545832" lon="-8.210447">
        <ele>79.693</ele>
        <time>2019-06-20T14:55:10Z</time>
      </trkpt>
      <trkpt lat="43.545616" lon="-8.210499">
        <ele>77.899</ele>
        <time>2019-06-20T14:55:11Z</time>
      </trkpt>
      <trkpt lat="43.545420" lon="-8.210563">
        <ele>76.086</ele>
        <time>2019-06-20T14:55:12Z</time>
      </trkpt>
      <trkpt lat="43.545230" lon="-8.210612">
        <ele>74.757</ele>
        <time>2019-06-20T14:55:13Z</time>
      </trkpt>
      <trkpt lat="43.545040" lon="-8.210704">
        <ele>73.949</ele>
        <time>2019-06-20T14:55:14Z</time>
      </trkpt>
      <trkpt lat="43.544850" lon="-8.210789">
        <ele>74.136</ele>
        <time>2019-06-20T14:55:15Z</time>
      </trkpt>
      <trkpt lat="43.544643" lon="-8.210885">
        <ele>74.738</ele>
        <time>2019-06-20T14:55:16Z</time>
      </trkpt>
      <trkpt lat="43.544423" lon="-8.211044">
        <ele>73.670</ele>
        <time>2019-06-20T14:55:17Z</time>
      </trkpt>
      <trkpt lat="43.544182" lon="-8.211186">
        <ele>70.817</ele>
        <time>2019-06-20T14:55:18Z</time>
      </trkpt>
      <trkpt lat="43.543954" lon="-8.211321">
        <ele>70.108</ele>
        <time>2019-06-20T14:55:19Z</time>
      </trkpt>
      <trkpt lat="43.543702" lon="-8.211482">
        <ele>68.986</ele>
        <time>2019-06-20T14:55:20Z</time>
      </trkpt>
      <trkpt lat="43.543466" lon="-8.211635">
        <ele>67.810</ele>
        <time>2019-06-20T14:55:21Z</time>
      </trkpt>
      <trkpt lat="43.543187" lon="-8.211826">
        <ele>66.381</ele>
        <time>2019-06-20T14:55:22Z</time>
      </trkpt>
      <trkpt lat="43.542937" lon="-8.212010">
        <ele>63.737</ele>
        <time>2019-06-20T14:55:23Z</time>
      </trkpt>
      <trkpt lat="43.542697" lon="-8.212168">
        <ele>60.114</ele>
        <time>2019-06-20T14:55:24Z</time>
      </trkpt>
      <trkpt lat="43.542456" lon="-8.212339">
        <ele>57.765</ele>
        <time>2019-06-20T14:55:25Z</time>
      </trkpt>
      <trkpt lat="43.542206" lon="-8.212500">
        <ele>55.967</ele>
        <time>2019-06-20T14:55:26Z</time>
      </trkpt>
      <trkpt lat="43.541975" lon="-8.212656">
        <ele>55.144</ele>
        <time>2019-06-20T14:55:27Z</time>
      </trkpt>
      <trkpt lat="43.541745" lon="-8.212813">
        <ele>53.571</ele>
        <time>2019-06-20T14:55:28Z</time>
      </trkpt>
      <trkpt lat="43.541516" lon="-8.212972">
        <ele>52.541</ele>
        <time>2019-06-20T14:55:29Z</time>
      </trkpt>
      <trkpt lat="43.541292" lon="-8.213129">
        <ele>52.315</ele>
        <time>2019-06-20T14:55:30Z</time>
      </trkpt>
      <trkpt lat="43.541053" lon="-8.213273">
        <ele>52.608</ele>
        <time>2019-06-20T14:55:31Z</time>
      </trkpt>
      <trkpt lat="43.540829" lon="-8.213424">
        <ele>52.330</ele>
        <time>2019-06-20T14:55:32Z</time>
      </trkpt>
      <trkpt lat="43.540612" lon="-8.213558">
        <ele>52.014</ele>
        <time>2019-06-20T14:55:33Z</time>
      </trkpt>
      <trkpt lat="43.540407" lon="-8.213693">
        <ele>52.625</ele>
        <time>2019-06-20T14:55:34Z</time>
      </trkpt>
      <trkpt lat="43.540206" lon="-8.213826">
        <ele>53.551</ele>
        <time>2019-06-20T14:55:35Z</time>
      </trkpt>
      <trkpt lat="43.540016" lon="-8.213957">
        <ele>54.518</ele>
        <time>2019-06-20T14:55:36Z</time>
      </trkpt>
      <trkpt lat="43.539820" lon="-8.214086">
        <ele>56.199</ele>
        <time>2019-06-20T14:55:37Z</time>
      </trkpt>
      <trkpt lat="43.539633" lon="-8.214212">
        <ele>57.211</ele>
        <time>2019-06-20T14:55:38Z</time>
      </trkpt>
      <trkpt lat="43.539452" lon="-8.214329">
        <ele>57.898</ele>
        <time>2019-06-20T14:55:39Z</time>
      </trkpt>
      <trkpt lat="43.539268" lon="-8.214446">
        <ele>58.425</ele>
        <time>2019-06-20T14:55:40Z</time>
      </trkpt>
      <trkpt lat="43.539110" lon="-8.214539">
        <ele>58.226</ele>
        <time>2019-06-20T14:55:41Z</time>
      </trkpt>
      <trkpt lat="43.538964" lon="-8.214622">
        <ele>58.408</ele>
        <time>2019-06-20T14:55:42Z</time>
      </trkpt>
      <trkpt lat="43.538803" lon="-8.214682">
        <ele>58.708</ele>
        <time>2019-06-20T14:55:43Z</time>
      </trkpt>
      <trkpt lat="43.538631" lon="-8.214733">
        <ele>59.085</ele>
        <time>2019-06-20T14:55:44Z</time>
      </trkpt>
      <trkpt lat="43.538435" lon="-8.214793">
        <ele>58.119</ele>
        <time>2019-06-20T14:55:45Z</time>
      </trkpt>
      <trkpt lat="43.538249" lon="-8.214829">
        <ele>57.460</ele>
        <time>2019-06-20T14:55:46Z</time>
      </trkpt>
      <trkpt lat="43.538062" lon="-8.214857">
        <ele>57.036</ele>
        <time>2019-06-20T14:55:47Z</time>
      </trkpt>
      <trkpt lat="43.537862" lon="-8.214884">
        <ele>56.293</ele>
        <time>2019-06-20T14:55:48Z</time>
      </trkpt>
      <trkpt lat="43.537669" lon="-8.214910">
        <ele>56.024</ele>
        <time>2019-06-20T14:55:49Z</time>
      </trkpt>
      <trkpt lat="43.537483" lon="-8.214932">
        <ele>56.146</ele>
        <time>2019-06-20T14:55:50Z</time>
      </trkpt>
      <trkpt lat="43.537273" lon="-8.214955">
        <ele>53.593</ele>
        <time>2019-06-20T14:55:51Z</time>
      </trkpt>
      <trkpt lat="43.537058" lon="-8.215010">
        <ele>51.966</ele>
        <time>2019-06-20T14:55:52Z</time>
      </trkpt>
      <trkpt lat="43.536852" lon="-8.215080">
        <ele>51.229</ele>
        <time>2019-06-20T14:55:53Z</time>
      </trkpt>
      <trkpt lat="43.536652" lon="-8.215178">
        <ele>50.921</ele>
        <time>2019-06-20T14:55:54Z</time>
      </trkpt>
      <trkpt lat="43.536468" lon="-8.215252">
        <ele>50.208</ele>
        <time>2019-06-20T14:55:55Z</time>
      </trkpt>
      <trkpt lat="43.536284" lon="-8.215354">
        <ele>50.549</ele>
        <time>2019-06-20T14:55:56Z</time>
      </trkpt>
      <trkpt lat="43.536100" lon="-8.215463">
        <ele>52.123</ele>
        <time>2019-06-20T14:55:57Z</time>
      </trkpt>
      <trkpt lat="43.535939" lon="-8.215593">
        <ele>54.834</ele>
        <time>2019-06-20T14:55:58Z</time>
      </trkpt>
      <trkpt lat="43.535799" lon="-8.215706">
        <ele>57.210</ele>
        <time>2019-06-20T14:55:59Z</time>
      </trkpt>
      <trkpt lat="43.535650" lon="-8.215837">
        <ele>59.147</ele>
        <time>2019-06-20T14:56:00Z</time>
      </trkpt>
      <trkpt lat="43.535511" lon="-8.215940">
        <ele>60.528</ele>
        <time>2019-06-20T14:56:01Z</time>
      </trkpt>
      <trkpt lat="43.535384" lon="-8.216073">
        <ele>61.970</ele>
        <time>2019-06-20T14:56:02Z</time>
      </trkpt>
      <trkpt lat="43.535251" lon="-8.216185">
        <ele>61.667</ele>
        <time>2019-06-20T14:56:03Z</time>
      </trkpt>
      <trkpt lat="43.535112" lon="-8.216285">
        <ele>60.067</ele>
        <time>2019-06-20T14:56:04Z</time>
      </trkpt>
      <trkpt lat="43.534997" lon="-8.216399">
        <ele>59.081</ele>
        <time>2019-06-20T14:56:05Z</time>
      </trkpt>
      <trkpt lat="43.534890" lon="-8.216512">
        <ele>58.919</ele>
        <time>2019-06-20T14:56:06Z</time>
      </trkpt>
      <trkpt lat="43.534828" lon="-8.216630">
        <ele>58.708</ele>
        <time>2019-06-20T14:56:07Z</time>
      </trkpt>
      <trkpt lat="43.534766" lon="-8.216744">
        <ele>58.619</ele>
        <time>2019-06-20T14:56:08Z</time>
      </trkpt>
      <trkpt lat="43.534694" lon="-8.216842">
        <ele>58.613</ele>
        <time>2019-06-20T14:56:09Z</time>
      </trkpt>
      <trkpt lat="43.534615" lon="-8.216901">
        <ele>58.544</ele>
        <time>2019-06-20T14:56:10Z</time>
      </trkpt>
      <trkpt lat="43.534551" lon="-8.216942">
        <ele>58.420</ele>
        <time>2019-06-20T14:56:11Z</time>
      </trkpt>
      <trkpt lat="43.534458" lon="-8.216925">
        <ele>58.017</ele>
        <time>2019-06-20T14:56:12Z</time>
      </trkpt>
      <trkpt lat="43.534368" lon="-8.216908">
        <ele>58.068</ele>
        <time>2019-06-20T14:56:13Z</time>
      </trkpt>
      <trkpt lat="43.534251" lon="-8.216912">
        <ele>57.940</ele>
        <time>2019-06-20T14:56:14Z</time>
      </trkpt>
      <trkpt lat="43.534130" lon="-8.216931">
        <ele>57.927</ele>
        <time>2019-06-20T14:56:15Z</time>
      </trkpt>
      <trkpt lat="43.533989" lon="-8.216963">
        <ele>58.146</ele>
        <time>2019-06-20T14:56:16Z</time>
      </trkpt>
      <trkpt lat="43.533843" lon="-8.216981">
        <ele>58.588</ele>
        <time>2019-06-20T14:56:17Z</time>
      </trkpt>
      <trkpt lat="43.533692" lon="-8.216979">
        <ele>59.616</ele>
        <time>2019-06-20T14:56:18Z</time>
      </trkpt>
      <trkpt lat="43.533527" lon="-8.216988">
        <ele>61.508</ele>
        <time>2019-06-20T14:56:19Z</time>
      </trkpt>
      <trkpt lat="43.533372" lon="-8.217005">
        <ele>63.787</ele>
        <time>2019-06-20T14:56:20Z</time>
      </trkpt>
      <trkpt lat="43.533225" lon="-8.217038">
        <ele>65.211</ele>
        <time>2019-06-20T14:56:21Z</time>
      </trkpt>
      <trkpt lat="43.533075" lon="-8.217067">
        <ele>66.782</ele>
        <time>2019-06-20T14:56:22Z</time>
      </trkpt>
      <trkpt lat="43.532931" lon="-8.217119">
        <ele>67.328</ele>
        <time>2019-06-20T14:56:23Z</time>
      </trkpt>
      <trkpt lat="43.532775" lon="-8.217174">
        <ele>67.785</ele>
        <time>2019-06-20T14:56:24Z</time>
      </trkpt>
      <trkpt lat="43.532626" lon="-8.217229">
        <ele>68.036</ele>
        <time>2019-06-20T14:56:25Z</time>
      </trkpt>
      <trkpt lat="43.532466" lon="-8.217294">
        <ele>68.718</ele>
        <time>2019-06-20T14:56:26Z</time>
      </trkpt>
      <trkpt lat="43.532322" lon="-8.217348">
        <ele>69.875</ele>
        <time>2019-06-20T14:56:27Z</time>
      </trkpt>
      <trkpt lat="43.532161" lon="-8.217434">
        <ele>71.197</ele>
        <time>2019-06-20T14:56:28Z</time>
      </trkpt>
      <trkpt lat="43.532025" lon="-8.217510">
        <ele>71.423</ele>
        <time>2019-06-20T14:56:29Z</time>
      </trkpt>
      <trkpt lat="43.531879" lon="-8.217601">
        <ele>71.425</ele>
        <time>2019-06-20T14:56:30Z</time>
      </trkpt>
      <trkpt lat="43.531738" lon="-8.217718">
        <ele>71.208</ele>
        <time>2019-06-20T14:56:31Z</time>
      </trkpt>
      <trkpt lat="43.531598" lon="-8.217836">
        <ele>71.222</ele>
        <time>2019-06-20T14:56:32Z</time>
      </trkpt>
      <trkpt lat="43.531451" lon="-8.217967">
        <ele>71.276</ele>
        <time>2019-06-20T14:56:33Z</time>
      </trkpt>
      <trkpt lat="43.531307" lon="-8.218101">
        <ele>71.327</ele>
        <time>2019-06-20T14:56:34Z</time>
      </trkpt>
      <trkpt lat="43.531192" lon="-8.218222">
        <ele>71.853</ele>
        <time>2019-06-20T14:56:35Z</time>
      </trkpt>
      <trkpt lat="43.531066" lon="-8.218345">
        <ele>72.110</ele>
        <time>2019-06-20T14:56:36Z</time>
      </trkpt>
      <trkpt lat="43.530962" lon="-8.218463">
        <ele>72.921</ele>
        <time>2019-06-20T14:56:37Z</time>
      </trkpt>
      <trkpt lat="43.530849" lon="-8.218578">
        <ele>73.863</ele>
        <time>2019-06-20T14:56:38Z</time>
      </trkpt>
      <trkpt lat="43.530735" lon="-8.218690">
        <ele>75.490</ele>
        <time>2019-06-20T14:56:39Z</time>
      </trkpt>
      <trkpt lat="43.530613" lon="-8.218802">
        <ele>77.048</ele>
        <time>2019-06-20T14:56:40Z</time>
      </trkpt>
      <trkpt lat="43.530495" lon="-8.218918">
        <ele>78.661</ele>
        <time>2019-06-20T14:56:41Z</time>
      </trkpt>
      <trkpt lat="43.530374" lon="-8.219030">
        <ele>80.417</ele>
        <time>2019-06-20T14:56:42Z</time>
      </trkpt>
      <trkpt lat="43.530239" lon="-8.219155">
        <ele>81.508</ele>
        <time>2019-06-20T14:56:43Z</time>
      </trkpt>
      <trkpt lat="43.530109" lon="-8.219278">
        <ele>80.877</ele>
        <time>2019-06-20T14:56:44Z</time>
      </trkpt>
      <trkpt lat="43.529970" lon="-8.219373">
        <ele>80.371</ele>
        <time>2019-06-20T14:56:45Z</time>
      </trkpt>
      <trkpt lat="43.529815" lon="-8.219478">
        <ele>79.912</ele>
        <time>2019-06-20T14:56:46Z</time>
      </trkpt>
      <trkpt lat="43.529673" lon="-8.219553">
        <ele>80.168</ele>
        <time>2019-06-20T14:56:47Z</time>
      </trkpt>
      <trkpt lat="43.529530" lon="-8.219626">
        <ele>81.235</ele>
        <time>2019-06-20T14:56:48Z</time>
      </trkpt>
      <trkpt lat="43.529384" lon="-8.219695">
        <ele>82.396</ele>
        <time>2019-06-20T14:56:49Z</time>
      </trkpt>
      <trkpt lat="43.529202" lon="-8.219777">
        <ele>84.018</ele>
        <time>2019-06-20T14:56:50Z</time>
      </trkpt>
      <trkpt lat="43.529046" lon="-8.219834">
        <ele>84.615</ele>
        <time>2019-06-20T14:56:51Z</time>
      </trkpt>
      <trkpt lat="43.528898" lon="-8.219880">
        <ele>85.129</ele>
        <time>2019-06-20T14:56:52Z</time>
      </trkpt>
      <trkpt lat="43.528745" lon="-8.219926">
        <ele>86.000</ele>
        <time>2019-06-20T14:56:53Z</time>
      </trkpt>
      <trkpt lat="43.528584" lon="-8.219966">
        <ele>86.820</ele>
        <time>2019-06-20T14:56:54Z</time>
      </trkpt>
      <trkpt lat="43.528432" lon="-8.220005">
        <ele>87.008</ele>
        <time>2019-06-20T14:56:55Z</time>
      </trkpt>
      <trkpt lat="43.528259" lon="-8.220057">
        <ele>87.435</ele>
        <time>2019-06-20T14:56:56Z</time>
      </trkpt>
      <trkpt lat="43.528114" lon="-8.220088">
        <ele>87.999</ele>
        <time>2019-06-20T14:56:57Z</time>
      </trkpt>
      <trkpt lat="43.527960" lon="-8.220132">
        <ele>87.780</ele>
        <time>2019-06-20T14:56:58Z</time>
      </trkpt>
      <trkpt lat="43.527813" lon="-8.220165">
        <ele>87.196</ele>
        <time>2019-06-20T14:56:59Z</time>
      </trkpt>
      <trkpt lat="43.527660" lon="-8.220207">
        <ele>87.063</ele>
        <time>2019-06-20T14:57:00Z</time>
      </trkpt>
      <trkpt lat="43.527547" lon="-8.220232">
        <ele>87.014</ele>
        <time>2019-06-20T14:57:01Z</time>
      </trkpt>
      <trkpt lat="43.527437" lon="-8.220262">
        <ele>87.476</ele>
        <time>2019-06-20T14:57:02Z</time>
      </trkpt>
      <trkpt lat="43.527336" lon="-8.220293">
        <ele>88.243</ele>
        <time>2019-06-20T14:57:03Z</time>
      </trkpt>
      <trkpt lat="43.527259" lon="-8.220326">
        <ele>88.833</ele>
        <time>2019-06-20T14:57:04Z</time>
      </trkpt>
      <trkpt lat="43.527197" lon="-8.220372">
        <ele>89.023</ele>
        <time>2019-06-20T14:57:05Z</time>
      </trkpt>
      <trkpt lat="43.527145" lon="-8.220421">
        <ele>88.915</ele>
        <time>2019-06-20T14:57:06Z</time>
      </trkpt>
      <trkpt lat="43.527130" lon="-8.220521">
        <ele>88.708</ele>
        <time>2019-06-20T14:57:07Z</time>
      </trkpt>
      <trkpt lat="43.527157" lon="-8.220631">
        <ele>88.656</ele>
        <time>2019-06-20T14:57:08Z</time>
      </trkpt>
      <trkpt lat="43.527159" lon="-8.220734">
        <ele>88.320</ele>
        <time>2019-06-20T14:57:09Z</time>
      </trkpt>
      <trkpt lat="43.527237" lon="-8.220855">
        <ele>88.191</ele>
        <time>2019-06-20T14:57:10Z</time>
      </trkpt>
      <trkpt lat="43.527307" lon="-8.220986">
        <ele>88.427</ele>
        <time>2019-06-20T14:57:11Z</time>
      </trkpt>
      <trkpt lat="43.527390" lon="-8.221133">
        <ele>88.494</ele>
        <time>2019-06-20T14:57:12Z</time>
      </trkpt>
      <trkpt lat="43.527487" lon="-8.221294">
        <ele>88.735</ele>
        <time>2019-06-20T14:57:13Z</time>
      </trkpt>
      <trkpt lat="43.527577" lon="-8.221464">
        <ele>89.917</ele>
        <time>2019-06-20T14:57:14Z</time>
      </trkpt>
      <trkpt lat="43.527673" lon="-8.221643">
        <ele>92.014</ele>
        <time>2019-06-20T14:57:15Z</time>
      </trkpt>
      <trkpt lat="43.527775" lon="-8.221831">
        <ele>93.048</ele>
        <time>2019-06-20T14:57:16Z</time>
      </trkpt>
      <trkpt lat="43.527871" lon="-8.222028">
        <ele>92.861</ele>
        <time>2019-06-20T14:57:17Z</time>
      </trkpt>
      <trkpt lat="43.527980" lon="-8.222228">
        <ele>92.717</ele>
        <time>2019-06-20T14:57:18Z</time>
      </trkpt>
      <trkpt lat="43.528085" lon="-8.222426">
        <ele>91.708</ele>
        <time>2019-06-20T14:57:19Z</time>
      </trkpt>
      <trkpt lat="43.528191" lon="-8.222622">
        <ele>91.597</ele>
        <time>2019-06-20T14:57:20Z</time>
      </trkpt>
      <trkpt lat="43.528301" lon="-8.222823">
        <ele>91.611</ele>
        <time>2019-06-20T14:57:21Z</time>
      </trkpt>
      <trkpt lat="43.528414" lon="-8.223022">
        <ele>91.112</ele>
        <time>2019-06-20T14:57:22Z</time>
      </trkpt>
      <trkpt lat="43.528524" lon="-8.223224">
        <ele>90.468</ele>
        <time>2019-06-20T14:57:23Z</time>
      </trkpt>
      <trkpt lat="43.528636" lon="-8.223436">
        <ele>89.655</ele>
        <time>2019-06-20T14:57:24Z</time>
      </trkpt>
      <trkpt lat="43.528746" lon="-8.223647">
        <ele>89.046</ele>
        <time>2019-06-20T14:57:25Z</time>
      </trkpt>
      <trkpt lat="43.528860" lon="-8.223855">
        <ele>89.018</ele>
        <time>2019-06-20T14:57:26Z</time>
      </trkpt>
      <trkpt lat="43.528979" lon="-8.224068">
        <ele>88.725</ele>
        <time>2019-06-20T14:57:27Z</time>
      </trkpt>
      <trkpt lat="43.529100" lon="-8.224288">
        <ele>88.344</ele>
        <time>2019-06-20T14:57:28Z</time>
      </trkpt>
      <trkpt lat="43.529219" lon="-8.224516">
        <ele>88.205</ele>
        <time>2019-06-20T14:57:29Z</time>
      </trkpt>
      <trkpt lat="43.529336" lon="-8.224738">
        <ele>88.615</ele>
        <time>2019-06-20T14:57:30Z</time>
      </trkpt>
      <trkpt lat="43.529450" lon="-8.224963">
        <ele>89.008</ele>
        <time>2019-06-20T14:57:31Z</time>
      </trkpt>
      <trkpt lat="43.529573" lon="-8.225187">
        <ele>88.377</ele>
        <time>2019-06-20T14:57:32Z</time>
      </trkpt>
      <trkpt lat="43.529697" lon="-8.225402">
        <ele>87.161</ele>
        <time>2019-06-20T14:57:33Z</time>
      </trkpt>
      <trkpt lat="43.529823" lon="-8.225635">
        <ele>85.742</ele>
        <time>2019-06-20T14:57:34Z</time>
      </trkpt>
      <trkpt lat="43.529945" lon="-8.225861">
        <ele>84.928</ele>
        <time>2019-06-20T14:57:35Z</time>
      </trkpt>
      <trkpt lat="43.530062" lon="-8.226086">
        <ele>84.585</ele>
        <time>2019-06-20T14:57:36Z</time>
      </trkpt>
      <trkpt lat="43.530173" lon="-8.226305">
        <ele>84.816</ele>
        <time>2019-06-20T14:57:37Z</time>
      </trkpt>
      <trkpt lat="43.530287" lon="-8.226523">
        <ele>85.118</ele>
        <time>2019-06-20T14:57:38Z</time>
      </trkpt>
      <trkpt lat="43.530403" lon="-8.226747">
        <ele>86.185</ele>
        <time>2019-06-20T14:57:39Z</time>
      </trkpt>
      <trkpt lat="43.530520" lon="-8.226979">
        <ele>86.874</ele>
        <time>2019-06-20T14:57:40Z</time>
      </trkpt>
      <trkpt lat="43.530631" lon="-8.227200">
        <ele>86.156</ele>
        <time>2019-06-20T14:57:41Z</time>
      </trkpt>
      <trkpt lat="43.530744" lon="-8.227411">
        <ele>85.321</ele>
        <time>2019-06-20T14:57:42Z</time>
      </trkpt>
      <trkpt lat="43.530861" lon="-8.227624">
        <ele>84.308</ele>
        <time>2019-06-20T14:57:43Z</time>
      </trkpt>
      <trkpt lat="43.530974" lon="-8.227843">
        <ele>85.380</ele>
        <time>2019-06-20T14:57:44Z</time>
      </trkpt>
      <trkpt lat="43.531090" lon="-8.228062">
        <ele>87.714</ele>
        <time>2019-06-20T14:57:45Z</time>
      </trkpt>
      <trkpt lat="43.531204" lon="-8.228281">
        <ele>89.395</ele>
        <time>2019-06-20T14:57:46Z</time>
      </trkpt>
      <trkpt lat="43.531324" lon="-8.228498">
        <ele>89.391</ele>
        <time>2019-06-20T14:57:47Z</time>
      </trkpt>
      <trkpt lat="43.531438" lon="-8.228718">
        <ele>88.858</ele>
        <time>2019-06-20T14:57:48Z</time>
      </trkpt>
      <trkpt lat="43.531552" lon="-8.228930">
        <ele>88.679</ele>
        <time>2019-06-20T14:57:49Z</time>
      </trkpt>
      <trkpt lat="43.531656" lon="-8.229131">
        <ele>89.011</ele>
        <time>2019-06-20T14:57:50Z</time>
      </trkpt>
      <trkpt lat="43.531762" lon="-8.229314">
        <ele>90.268</ele>
        <time>2019-06-20T14:57:51Z</time>
      </trkpt>
      <trkpt lat="43.531854" lon="-8.229490">
        <ele>91.484</ele>
        <time>2019-06-20T14:57:52Z</time>
      </trkpt>
      <trkpt lat="43.531942" lon="-8.229649">
        <ele>92.007</ele>
        <time>2019-06-20T14:57:53Z</time>
      </trkpt>
      <trkpt lat="43.532035" lon="-8.229807">
        <ele>91.717</ele>
        <time>2019-06-20T14:57:54Z</time>
      </trkpt>
      <trkpt lat="43.532121" lon="-8.229971">
        <ele>91.108</ele>
        <time>2019-06-20T14:57:55Z</time>
      </trkpt>
      <trkpt lat="43.532199" lon="-8.230149">
        <ele>90.531</ele>
        <time>2019-06-20T14:57:56Z</time>
      </trkpt>
      <trkpt lat="43.532268" lon="-8.230336">
        <ele>90.335</ele>
        <time>2019-06-20T14:57:57Z</time>
      </trkpt>
      <trkpt lat="43.532337" lon="-8.230545">
        <ele>90.826</ele>
        <time>2019-06-20T14:57:58Z</time>
      </trkpt>
      <trkpt lat="43.532423" lon="-8.230749">
        <ele>90.972</ele>
        <time>2019-06-20T14:57:59Z</time>
      </trkpt>
      <trkpt lat="43.532499" lon="-8.230968">
        <ele>91.069</ele>
        <time>2019-06-20T14:58:00Z</time>
      </trkpt>
      <trkpt lat="43.532579" lon="-8.231195">
        <ele>91.720</ele>
        <time>2019-06-20T14:58:01Z</time>
      </trkpt>
      <trkpt lat="43.532666" lon="-8.231426">
        <ele>92.852</ele>
        <time>2019-06-20T14:58:02Z</time>
      </trkpt>
      <trkpt lat="43.532754" lon="-8.231643">
        <ele>93.739</ele>
        <time>2019-06-20T14:58:03Z</time>
      </trkpt>
      <trkpt lat="43.532838" lon="-8.231863">
        <ele>95.061</ele>
        <time>2019-06-20T14:58:04Z</time>
      </trkpt>
      <trkpt lat="43.532919" lon="-8.232076">
        <ele>96.021</ele>
        <time>2019-06-20T14:58:05Z</time>
      </trkpt>
      <trkpt lat="43.533004" lon="-8.232282">
        <ele>97.013</ele>
        <time>2019-06-20T14:58:06Z</time>
      </trkpt>
      <trkpt lat="43.533075" lon="-8.232475">
        <ele>98.008</ele>
        <time>2019-06-20T14:58:07Z</time>
      </trkpt>
      <trkpt lat="43.533137" lon="-8.232656">
        <ele>99.199</ele>
        <time>2019-06-20T14:58:08Z</time>
      </trkpt>
      <trkpt lat="43.533173" lon="-8.232815">
        <ele>100.133</ele>
        <time>2019-06-20T14:58:09Z</time>
      </trkpt>
      <trkpt lat="43.533186" lon="-8.232963">
        <ele>101.364</ele>
        <time>2019-06-20T14:58:10Z</time>
      </trkpt>
      <trkpt lat="43.533198" lon="-8.233107">
        <ele>102.350</ele>
        <time>2019-06-20T14:58:11Z</time>
      </trkpt>
      <trkpt lat="43.533138" lon="-8.233225">
        <ele>102.657</ele>
        <time>2019-06-20T14:58:12Z</time>
      </trkpt>
      <trkpt lat="43.533069" lon="-8.233340">
        <ele>103.158</ele>
        <time>2019-06-20T14:58:13Z</time>
      </trkpt>
      <trkpt lat="43.532987" lon="-8.233455">
        <ele>102.860</ele>
        <time>2019-06-20T14:58:14Z</time>
      </trkpt>
      <trkpt lat="43.532909" lon="-8.233564">
        <ele>102.777</ele>
        <time>2019-06-20T14:58:15Z</time>
      </trkpt>
      <trkpt lat="43.532848" lon="-8.233651">
        <ele>102.846</ele>
        <time>2019-06-20T14:58:16Z</time>
      </trkpt>
      <trkpt lat="43.532773" lon="-8.233770">
        <ele>103.188</ele>
        <time>2019-06-20T14:58:17Z</time>
      </trkpt>
      <trkpt lat="43.532737" lon="-8.233888">
        <ele>103.416</ele>
        <time>2019-06-20T14:58:18Z</time>
      </trkpt>
      <trkpt lat="43.532693" lon="-8.234033">
        <ele>103.808</ele>
        <time>2019-06-20T14:58:19Z</time>
      </trkpt>
      <trkpt lat="43.532660" lon="-8.234171">
        <ele>104.387</ele>
        <time>2019-06-20T14:58:20Z</time>
      </trkpt>
      <trkpt lat="43.532628" lon="-8.234325">
        <ele>104.731</ele>
        <time>2019-06-20T14:58:21Z</time>
      </trkpt>
      <trkpt lat="43.532583" lon="-8.234465">
        <ele>104.682</ele>
        <time>2019-06-20T14:58:22Z</time>
      </trkpt>
      <trkpt lat="43.532537" lon="-8.234610">
        <ele>104.928</ele>
        <time>2019-06-20T14:58:23Z</time>
      </trkpt>
      <trkpt lat="43.532502" lon="-8.234753">
        <ele>105.325</ele>
        <time>2019-06-20T14:58:24Z</time>
      </trkpt>
      <trkpt lat="43.532455" lon="-8.234868">
        <ele>105.466</ele>
        <time>2019-06-20T14:58:25Z</time>
      </trkpt>
      <trkpt lat="43.532425" lon="-8.234963">
        <ele>105.718</ele>
        <time>2019-06-20T14:58:26Z</time>
      </trkpt>
      <trkpt lat="43.532396" lon="-8.235066">
        <ele>106.065</ele>
        <time>2019-06-20T14:58:27Z</time>
      </trkpt>
      <trkpt lat="43.532373" lon="-8.235152">
        <ele>106.358</ele>
        <time>2019-06-20T14:58:28Z</time>
      </trkpt>
      <trkpt lat="43.532393" lon="-8.235236">
        <ele>107.252</ele>
        <time>2019-06-20T14:58:29Z</time>
      </trkpt>
      <trkpt lat="43.532402" lon="-8.235322">
        <ele>108.217</ele>
        <time>2019-06-20T14:58:30Z</time>
      </trkpt>
      <trkpt lat="43.532437" lon="-8.235419">
        <ele>110.308</ele>
        <time>2019-06-20T14:58:31Z</time>
      </trkpt>
      <trkpt lat="43.532490" lon="-8.235504">
        <ele>112.828</ele>
        <time>2019-06-20T14:58:32Z</time>
      </trkpt>
      <trkpt lat="43.532554" lon="-8.235519">
        <ele>114.572</ele>
        <time>2019-06-20T14:58:33Z</time>
      </trkpt>
      <trkpt lat="43.532600" lon="-8.235486">
        <ele>114.813</ele>
        <time>2019-06-20T14:58:34Z</time>
      </trkpt>
      <trkpt lat="43.532692" lon="-8.235420">
        <ele>115.419</ele>
        <time>2019-06-20T14:58:35Z</time>
      </trkpt>
      <trkpt lat="43.532769" lon="-8.235359">
        <ele>115.646</ele>
        <time>2019-06-20T14:58:36Z</time>
      </trkpt>
      <trkpt lat="43.532854" lon="-8.235261">
        <ele>116.087</ele>
        <time>2019-06-20T14:58:37Z</time>
      </trkpt>
      <trkpt lat="43.532963" lon="-8.235172">
        <ele>117.939</ele>
        <time>2019-06-20T14:58:38Z</time>
      </trkpt>
      <trkpt lat="43.533074" lon="-8.235086">
        <ele>119.956</ele>
        <time>2019-06-20T14:58:39Z</time>
      </trkpt>
      <trkpt lat="43.533200" lon="-8.235022">
        <ele>123.163</ele>
        <time>2019-06-20T14:58:40Z</time>
      </trkpt>
      <trkpt lat="43.533342" lon="-8.234968">
        <ele>126.644</ele>
        <time>2019-06-20T14:58:41Z</time>
      </trkpt>
      <trkpt lat="43.533486" lon="-8.234910">
        <ele>129.318</ele>
        <time>2019-06-20T14:58:42Z</time>
      </trkpt>
      <trkpt lat="43.533626" lon="-8.234852">
        <ele>131.708</ele>
        <time>2019-06-20T14:58:43Z</time>
      </trkpt>
      <trkpt lat="43.533769" lon="-8.234805">
        <ele>134.419</ele>
        <time>2019-06-20T14:58:44Z</time>
      </trkpt>
      <trkpt lat="43.533922" lon="-8.234753">
        <ele>137.123</ele>
        <time>2019-06-20T14:58:45Z</time>
      </trkpt>
      <trkpt lat="43.534073" lon="-8.234696">
        <ele>140.144</ele>
        <time>2019-06-20T14:58:46Z</time>
      </trkpt>
      <trkpt lat="43.534220" lon="-8.234643">
        <ele>142.690</ele>
        <time>2019-06-20T14:58:47Z</time>
      </trkpt>
      <trkpt lat="43.534389" lon="-8.234591">
        <ele>146.497</ele>
        <time>2019-06-20T14:58:48Z</time>
      </trkpt>
      <trkpt lat="43.534550" lon="-8.234529">
        <ele>149.158</ele>
        <time>2019-06-20T14:58:49Z</time>
      </trkpt>
      <trkpt lat="43.534714" lon="-8.234466">
        <ele>152.390</ele>
        <time>2019-06-20T14:58:50Z</time>
      </trkpt>
      <trkpt lat="43.534859" lon="-8.234421">
        <ele>153.437</ele>
        <time>2019-06-20T14:58:51Z</time>
      </trkpt>
      <trkpt lat="43.534991" lon="-8.234382">
        <ele>154.551</ele>
        <time>2019-06-20T14:58:52Z</time>
      </trkpt>
      <trkpt lat="43.535121" lon="-8.234338">
        <ele>154.001</ele>
        <time>2019-06-20T14:58:53Z</time>
      </trkpt>
      <trkpt lat="43.535258" lon="-8.234300">
        <ele>153.311</ele>
        <time>2019-06-20T14:58:54Z</time>
      </trkpt>
      <trkpt lat="43.535402" lon="-8.234258">
        <ele>151.408</ele>
        <time>2019-06-20T14:58:55Z</time>
      </trkpt>
      <trkpt lat="43.535556" lon="-8.234252">
        <ele>150.118</ele>
        <time>2019-06-20T14:58:56Z</time>
      </trkpt>
      <trkpt lat="43.535721" lon="-8.234239">
        <ele>147.962</ele>
        <time>2019-06-20T14:58:57Z</time>
      </trkpt>
      <trkpt lat="43.535893" lon="-8.234238">
        <ele>145.893</ele>
        <time>2019-06-20T14:58:58Z</time>
      </trkpt>
      <trkpt lat="43.536046" lon="-8.234250">
        <ele>144.299</ele>
        <time>2019-06-20T14:58:59Z</time>
      </trkpt>
      <trkpt lat="43.536211" lon="-8.234272">
        <ele>145.216</ele>
        <time>2019-06-20T14:59:00Z</time>
      </trkpt>
      <trkpt lat="43.536361" lon="-8.234273">
        <ele>147.157</ele>
        <time>2019-06-20T14:59:01Z</time>
      </trkpt>
      <trkpt lat="43.536539" lon="-8.234279">
        <ele>149.789</ele>
        <time>2019-06-20T14:59:02Z</time>
      </trkpt>
      <trkpt lat="43.536702" lon="-8.234270">
        <ele>151.656</ele>
        <time>2019-06-20T14:59:03Z</time>
      </trkpt>
      <trkpt lat="43.536876" lon="-8.234280">
        <ele>154.546</ele>
        <time>2019-06-20T14:59:04Z</time>
      </trkpt>
      <trkpt lat="43.537044" lon="-8.234293">
        <ele>157.688</ele>
        <time>2019-06-20T14:59:05Z</time>
      </trkpt>
      <trkpt lat="43.537212" lon="-8.234311">
        <ele>161.016</ele>
        <time>2019-06-20T14:59:06Z</time>
      </trkpt>
      <trkpt lat="43.537384" lon="-8.234348">
        <ele>161.708</ele>
        <time>2019-06-20T14:59:07Z</time>
      </trkpt>
      <trkpt lat="43.537554" lon="-8.234401">
        <ele>162.187</ele>
        <time>2019-06-20T14:59:08Z</time>
      </trkpt>
      <trkpt lat="43.537736" lon="-8.234477">
        <ele>161.081</ele>
        <time>2019-06-20T14:59:09Z</time>
      </trkpt>
      <trkpt lat="43.537918" lon="-8.234548">
        <ele>161.072</ele>
        <time>2019-06-20T14:59:10Z</time>
      </trkpt>
      <trkpt lat="43.538088" lon="-8.234620">
        <ele>162.258</ele>
        <time>2019-06-20T14:59:11Z</time>
      </trkpt>
      <trkpt lat="43.538261" lon="-8.234697">
        <ele>162.465</ele>
        <time>2019-06-20T14:59:12Z</time>
      </trkpt>
      <trkpt lat="43.538431" lon="-8.234785">
        <ele>162.266</ele>
        <time>2019-06-20T14:59:13Z</time>
      </trkpt>
      <trkpt lat="43.538596" lon="-8.234867">
        <ele>162.018</ele>
        <time>2019-06-20T14:59:14Z</time>
      </trkpt>
      <trkpt lat="43.538747" lon="-8.234947">
        <ele>164.255</ele>
        <time>2019-06-20T14:59:15Z</time>
      </trkpt>
      <trkpt lat="43.538884" lon="-8.235022">
        <ele>165.493</ele>
        <time>2019-06-20T14:59:16Z</time>
      </trkpt>
      <trkpt lat="43.539011" lon="-8.235089">
        <ele>165.165</ele>
        <time>2019-06-20T14:59:17Z</time>
      </trkpt>
      <trkpt lat="43.539127" lon="-8.235145">
        <ele>164.621</ele>
        <time>2019-06-20T14:59:18Z</time>
      </trkpt>
      <trkpt lat="43.539229" lon="-8.235203">
        <ele>164.608</ele>
        <time>2019-06-20T14:59:19Z</time>
      </trkpt>
      <trkpt lat="43.539327" lon="-8.235248">
        <ele>164.532</ele>
        <time>2019-06-20T14:59:20Z</time>
      </trkpt>
      <trkpt lat="43.539425" lon="-8.235281">
        <ele>164.186</ele>
        <time>2019-06-20T14:59:21Z</time>
      </trkpt>
      <trkpt lat="43.539516" lon="-8.235316">
        <ele>164.387</ele>
        <time>2019-06-20T14:59:22Z</time>
      </trkpt>
      <trkpt lat="43.539620" lon="-8.235353">
        <ele>164.663</ele>
        <time>2019-06-20T14:59:23Z</time>
      </trkpt>
      <trkpt lat="43.539729" lon="-8.235393">
        <ele>165.080</ele>
        <time>2019-06-20T14:59:24Z</time>
      </trkpt>
      <trkpt lat="43.539839" lon="-8.235438">
        <ele>165.661</ele>
        <time>2019-06-20T14:59:25Z</time>
      </trkpt>
      <trkpt lat="43.539946" lon="-8.235498">
        <ele>166.083</ele>
        <time>2019-06-20T14:59:26Z</time>
      </trkpt>
      <trkpt lat="43.540040" lon="-8.235566">
        <ele>166.790</ele>
        <time>2019-06-20T14:59:27Z</time>
      </trkpt>
      <trkpt lat="43.540148" lon="-8.235642">
        <ele>168.482</ele>
        <time>2019-06-20T14:59:28Z</time>
      </trkpt>
      <trkpt lat="43.540251" lon="-8.235720">
        <ele>169.943</ele>
        <time>2019-06-20T14:59:29Z</time>
      </trkpt>
      <trkpt lat="43.540401" lon="-8.235883">
        <ele>173.317</ele>
        <time>2019-06-20T14:59:30Z</time>
      </trkpt>
      <trkpt lat="43.540452" lon="-8.236078">
        <ele>174.408</ele>
        <time>2019-06-20T14:59:31Z</time>
      </trkpt>
      <trkpt lat="43.540506" lon="-8.236257">
        <ele>175.481</ele>
        <time>2019-06-20T14:59:32Z</time>
      </trkpt>
      <trkpt lat="43.540536" lon="-8.236445">
        <ele>175.265</ele>
        <time>2019-06-20T14:59:33Z</time>
      </trkpt>
      <trkpt lat="43.540602" lon="-8.236626">
        <ele>176.866</ele>
        <time>2019-06-20T14:59:34Z</time>
      </trkpt>
      <trkpt lat="43.540666" lon="-8.236803">
        <ele>178.472</ele>
        <time>2019-06-20T14:59:35Z</time>
      </trkpt>
      <trkpt lat="43.540707" lon="-8.236969">
        <ele>178.489</ele>
        <time>2019-06-20T14:59:36Z</time>
      </trkpt>
      <trkpt lat="43.540733" lon="-8.237147">
        <ele>175.440</ele>
        <time>2019-06-20T14:59:37Z</time>
      </trkpt>
      <trkpt lat="43.540776" lon="-8.237316">
        <ele>171.532</ele>
        <time>2019-06-20T14:59:38Z</time>
      </trkpt>
      <trkpt lat="43.540822" lon="-8.237488">
        <ele>167.129</ele>
        <time>2019-06-20T14:59:39Z</time>
      </trkpt>
      <trkpt lat="43.540880" lon="-8.237648">
        <ele>163.528</ele>
        <time>2019-06-20T14:59:40Z</time>
      </trkpt>
      <trkpt lat="43.540953" lon="-8.237804">
        <ele>161.289</ele>
        <time>2019-06-20T14:59:41Z</time>
      </trkpt>
      <trkpt lat="43.541035" lon="-8.237918">
        <ele>161.017</ele>
        <time>2019-06-20T14:59:42Z</time>
      </trkpt>
      <trkpt lat="43.541130" lon="-8.238036">
        <ele>160.508</ele>
        <time>2019-06-20T14:59:43Z</time>
      </trkpt>
      <trkpt lat="43.541228" lon="-8.238149">
        <ele>160.015</ele>
        <time>2019-06-20T14:59:44Z</time>
      </trkpt>
      <trkpt lat="43.541364" lon="-8.238180">
        <ele>160.669</ele>
        <time>2019-06-20T14:59:45Z</time>
      </trkpt>
      <trkpt lat="43.541500" lon="-8.238218">
        <ele>159.680</ele>
        <time>2019-06-20T14:59:46Z</time>
      </trkpt>
      <trkpt lat="43.541619" lon="-8.238266">
        <ele>158.076</ele>
        <time>2019-06-20T14:59:47Z</time>
      </trkpt>
      <trkpt lat="43.541761" lon="-8.238289">
        <ele>157.643</ele>
        <time>2019-06-20T14:59:48Z</time>
      </trkpt>
      <trkpt lat="43.541895" lon="-8.238324">
        <ele>157.124</ele>
        <time>2019-06-20T14:59:49Z</time>
      </trkpt>
      <trkpt lat="43.542065" lon="-8.238373">
        <ele>158.166</ele>
        <time>2019-06-20T14:59:50Z</time>
      </trkpt>
      <trkpt lat="43.542197" lon="-8.238434">
        <ele>159.063</ele>
        <time>2019-06-20T14:59:51Z</time>
      </trkpt>
      <trkpt lat="43.542333" lon="-8.238499">
        <ele>158.492</ele>
        <time>2019-06-20T14:59:52Z</time>
      </trkpt>
      <trkpt lat="43.542445" lon="-8.238566">
        <ele>157.173</ele>
        <time>2019-06-20T14:59:53Z</time>
      </trkpt>
      <trkpt lat="43.542583" lon="-8.238626">
        <ele>155.920</ele>
        <time>2019-06-20T14:59:54Z</time>
      </trkpt>
      <trkpt lat="43.542717" lon="-8.238693">
        <ele>154.408</ele>
        <time>2019-06-20T14:59:55Z</time>
      </trkpt>
      <trkpt lat="43.542826" lon="-8.238776">
        <ele>152.642</ele>
        <time>2019-06-20T14:59:56Z</time>
      </trkpt>
      <trkpt lat="43.542955" lon="-8.238873">
        <ele>151.376</ele>
        <time>2019-06-20T14:59:57Z</time>
      </trkpt>
      <trkpt lat="43.543089" lon="-8.239002">
        <ele>150.167</ele>
        <time>2019-06-20T14:59:58Z</time>
      </trkpt>
      <trkpt lat="43.543199" lon="-8.239126">
        <ele>149.123</ele>
        <time>2019-06-20T14:59:59Z</time>
      </trkpt>
      <trkpt lat="43.543303" lon="-8.239270">
        <ele>147.550</ele>
        <time>2019-06-20T15:00:00Z</time>
      </trkpt>
      <trkpt lat="43.543414" lon="-8.239387">
        <ele>145.281</ele>
        <time>2019-06-20T15:00:01Z</time>
      </trkpt>
      <trkpt lat="43.543512" lon="-8.239503">
        <ele>143.273</ele>
        <time>2019-06-20T15:00:02Z</time>
      </trkpt>
      <trkpt lat="43.543607" lon="-8.239607">
        <ele>142.280</ele>
        <time>2019-06-20T15:00:03Z</time>
      </trkpt>
      <trkpt lat="43.543692" lon="-8.239709">
        <ele>141.795</ele>
        <time>2019-06-20T15:00:04Z</time>
      </trkpt>
      <trkpt lat="43.543782" lon="-8.239818">
        <ele>142.449</ele>
        <time>2019-06-20T15:00:05Z</time>
      </trkpt>
      <trkpt lat="43.543759" lon="-8.239940">
        <ele>142.523</ele>
        <time>2019-06-20T15:00:06Z</time>
      </trkpt>
      <trkpt lat="43.543750" lon="-8.240065">
        <ele>143.008</ele>
        <time>2019-06-20T15:00:07Z</time>
      </trkpt>
      <trkpt lat="43.543736" lon="-8.240184">
        <ele>143.782</ele>
        <time>2019-06-20T15:00:08Z</time>
      </trkpt>
      <trkpt lat="43.543695" lon="-8.240270">
        <ele>143.896</ele>
        <time>2019-06-20T15:00:09Z</time>
      </trkpt>
      <trkpt lat="43.543614" lon="-8.240340">
        <ele>143.967</ele>
        <time>2019-06-20T15:00:10Z</time>
      </trkpt>
      <trkpt lat="43.543523" lon="-8.240394">
        <ele>143.263</ele>
        <time>2019-06-20T15:00:11Z</time>
      </trkpt>
      <trkpt lat="43.543417" lon="-8.240411">
        <ele>141.820</ele>
        <time>2019-06-20T15:00:12Z</time>
      </trkpt>
      <trkpt lat="43.543283" lon="-8.240410">
        <ele>140.581</ele>
        <time>2019-06-20T15:00:13Z</time>
      </trkpt>
      <trkpt lat="43.543154" lon="-8.240395">
        <ele>140.363</ele>
        <time>2019-06-20T15:00:14Z</time>
      </trkpt>
      <trkpt lat="43.543028" lon="-8.240380">
        <ele>140.360</ele>
        <time>2019-06-20T15:00:15Z</time>
      </trkpt>
      <trkpt lat="43.542903" lon="-8.240366">
        <ele>141.612</ele>
        <time>2019-06-20T15:00:16Z</time>
      </trkpt>
      <trkpt lat="43.542779" lon="-8.240357">
        <ele>143.032</ele>
        <time>2019-06-20T15:00:17Z</time>
      </trkpt>
      <trkpt lat="43.542616" lon="-8.240407">
        <ele>146.905</ele>
        <time>2019-06-20T15:00:18Z</time>
      </trkpt>
      <trkpt lat="43.542468" lon="-8.240463">
        <ele>149.608</ele>
        <time>2019-06-20T15:00:19Z</time>
      </trkpt>
      <trkpt lat="43.542316" lon="-8.240523">
        <ele>150.514</ele>
        <time>2019-06-20T15:00:20Z</time>
      </trkpt>
      <trkpt lat="43.542166" lon="-8.240584">
        <ele>150.598</ele>
        <time>2019-06-20T15:00:21Z</time>
      </trkpt>
      <trkpt lat="43.542025" lon="-8.240650">
        <ele>149.469</ele>
        <time>2019-06-20T15:00:22Z</time>
      </trkpt>
      <trkpt lat="43.541885" lon="-8.240719">
        <ele>148.095</ele>
        <time>2019-06-20T15:00:23Z</time>
      </trkpt>
      <trkpt lat="43.541749" lon="-8.240804">
        <ele>146.412</ele>
        <time>2019-06-20T15:00:24Z</time>
      </trkpt>
      <trkpt lat="43.541625" lon="-8.240896">
        <ele>144.753</ele>
        <time>2019-06-20T15:00:25Z</time>
      </trkpt>
      <trkpt lat="43.541512" lon="-8.241001">
        <ele>143.155</ele>
        <time>2019-06-20T15:00:26Z</time>
      </trkpt>
      <trkpt lat="43.541435" lon="-8.241143">
        <ele>142.292</ele>
        <time>2019-06-20T15:00:27Z</time>
      </trkpt>
      <trkpt lat="43.541344" lon="-8.241299">
        <ele>140.028</ele>
        <time>2019-06-20T15:00:28Z</time>
      </trkpt>
      <trkpt lat="43.541260" lon="-8.241478">
        <ele>138.789</ele>
        <time>2019-06-20T15:00:29Z</time>
      </trkpt>
      <trkpt lat="43.541191" lon="-8.241654">
        <ele>137.517</ele>
        <time>2019-06-20T15:00:30Z</time>
      </trkpt>
      <trkpt lat="43.541104" lon="-8.241831">
        <ele>137.808</ele>
        <time>2019-06-20T15:00:31Z</time>
      </trkpt>
      <trkpt lat="43.541031" lon="-8.241985">
        <ele>138.775</ele>
        <time>2019-06-20T15:00:32Z</time>
      </trkpt>
      <trkpt lat="43.540959" lon="-8.242165">
        <ele>140.199</ele>
        <time>2019-06-20T15:00:33Z</time>
      </trkpt>
      <trkpt lat="43.540891" lon="-8.242335">
        <ele>141.690</ele>
        <time>2019-06-20T15:00:34Z</time>
      </trkpt>
      <trkpt lat="43.540828" lon="-8.242515">
        <ele>142.976</ele>
        <time>2019-06-20T15:00:35Z</time>
      </trkpt>
      <trkpt lat="43.540773" lon="-8.242712">
        <ele>142.193</ele>
        <time>2019-06-20T15:00:36Z</time>
      </trkpt>
      <trkpt lat="43.540734" lon="-8.242932">
        <ele>141.144</ele>
        <time>2019-06-20T15:00:37Z</time>
      </trkpt>
      <trkpt lat="43.540696" lon="-8.243140">
        <ele>139.786</ele>
        <time>2019-06-20T15:00:38Z</time>
      </trkpt>
      <trkpt lat="43.540659" lon="-8.243342">
        <ele>138.693</ele>
        <time>2019-06-20T15:00:39Z</time>
      </trkpt>
      <trkpt lat="43.540619" lon="-8.243535">
        <ele>139.361</ele>
        <time>2019-06-20T15:00:40Z</time>
      </trkpt>
      <trkpt lat="43.540579" lon="-8.243724">
        <ele>139.221</ele>
        <time>2019-06-20T15:00:41Z</time>
      </trkpt>
      <trkpt lat="43.540542" lon="-8.243905">
        <ele>138.513</ele>
        <time>2019-06-20T15:00:42Z</time>
      </trkpt>
      <trkpt lat="43.540517" lon="-8.244067">
        <ele>137.508</ele>
        <time>2019-06-20T15:00:43Z</time>
      </trkpt>
      <trkpt lat="43.540502" lon="-8.244239">
        <ele>136.639</ele>
        <time>2019-06-20T15:00:44Z</time>
      </trkpt>
      <trkpt lat="43.540525" lon="-8.244416">
        <ele>136.963</ele>
        <time>2019-06-20T15:00:45Z</time>
      </trkpt>
      <trkpt lat="43.540530" lon="-8.244611">
        <ele>135.914</ele>
        <time>2019-06-20T15:00:46Z</time>
      </trkpt>
      <trkpt lat="43.540540" lon="-8.244802">
        <ele>135.720</ele>
        <time>2019-06-20T15:00:47Z</time>
      </trkpt>
      <trkpt lat="43.540537" lon="-8.244997">
        <ele>136.257</ele>
        <time>2019-06-20T15:00:48Z</time>
      </trkpt>
      <trkpt lat="43.540523" lon="-8.245165">
        <ele>134.598</ele>
        <time>2019-06-20T15:00:49Z</time>
      </trkpt>
      <trkpt lat="43.540498" lon="-8.245319">
        <ele>133.230</ele>
        <time>2019-06-20T15:00:50Z</time>
      </trkpt>
      <trkpt lat="43.540447" lon="-8.245483">
        <ele>132.647</ele>
        <time>2019-06-20T15:00:51Z</time>
      </trkpt>
      <trkpt lat="43.540398" lon="-8.245666">
        <ele>132.388</ele>
        <time>2019-06-20T15:00:52Z</time>
      </trkpt>
      <trkpt lat="43.540272" lon="-8.245888">
        <ele>130.424</ele>
        <time>2019-06-20T15:00:53Z</time>
      </trkpt>
      <trkpt lat="43.540179" lon="-8.246099">
        <ele>129.326</ele>
        <time>2019-06-20T15:00:54Z</time>
      </trkpt>
      <trkpt lat="43.540079" lon="-8.246326">
        <ele>127.408</ele>
        <time>2019-06-20T15:00:55Z</time>
      </trkpt>
      <trkpt lat="43.539972" lon="-8.246567">
        <ele>125.971</ele>
        <time>2019-06-20T15:00:56Z</time>
      </trkpt>
      <trkpt lat="43.539857" lon="-8.246803">
        <ele>124.355</ele>
        <time>2019-06-20T15:00:57Z</time>
      </trkpt>
      <trkpt lat="43.539756" lon="-8.247036">
        <ele>122.596</ele>
        <time>2019-06-20T15:00:58Z</time>
      </trkpt>
      <trkpt lat="43.539649" lon="-8.247269">
        <ele>121.492</ele>
        <time>2019-06-20T15:00:59Z</time>
      </trkpt>
      <trkpt lat="43.539543" lon="-8.247498">
        <ele>120.889</ele>
        <time>2019-06-20T15:01:00Z</time>
      </trkpt>
      <trkpt lat="43.539432" lon="-8.247724">
        <ele>118.360</ele>
        <time>2019-06-20T15:01:01Z</time>
      </trkpt>
      <trkpt lat="43.539330" lon="-8.247939">
        <ele>114.432</ele>
        <time>2019-06-20T15:01:02Z</time>
      </trkpt>
      <trkpt lat="43.539225" lon="-8.248154">
        <ele>111.539</ele>
        <time>2019-06-20T15:01:03Z</time>
      </trkpt>
      <trkpt lat="43.539128" lon="-8.248369">
        <ele>110.151</ele>
        <time>2019-06-20T15:01:04Z</time>
      </trkpt>
      <trkpt lat="43.539048" lon="-8.248544">
        <ele>109.101</ele>
        <time>2019-06-20T15:01:05Z</time>
      </trkpt>
      <trkpt lat="43.538964" lon="-8.248740">
        <ele>107.511</ele>
        <time>2019-06-20T15:01:06Z</time>
      </trkpt>
      <trkpt lat="43.538876" lon="-8.248946">
        <ele>105.108</ele>
        <time>2019-06-20T15:01:07Z</time>
      </trkpt>
      <trkpt lat="43.538797" lon="-8.249164">
        <ele>101.498</ele>
        <time>2019-06-20T15:01:08Z</time>
      </trkpt>
      <trkpt lat="43.538778" lon="-8.249410">
        <ele>99.672</ele>
        <time>2019-06-20T15:01:09Z</time>
      </trkpt>
      <trkpt lat="43.538754" lon="-8.249655">
        <ele>97.923</ele>
        <time>2019-06-20T15:01:10Z</time>
      </trkpt>
      <trkpt lat="43.538751" lon="-8.249913">
        <ele>97.249</ele>
        <time>2019-06-20T15:01:11Z</time>
      </trkpt>
      <trkpt lat="43.538733" lon="-8.250182">
        <ele>96.836</ele>
        <time>2019-06-20T15:01:12Z</time>
      </trkpt>
      <trkpt lat="43.538721" lon="-8.250444">
        <ele>96.817</ele>
        <time>2019-06-20T15:01:13Z</time>
      </trkpt>
      <trkpt lat="43.538702" lon="-8.250695">
        <ele>96.869</ele>
        <time>2019-06-20T15:01:14Z</time>
      </trkpt>
      <trkpt lat="43.538686" lon="-8.250940">
        <ele>97.356</ele>
        <time>2019-06-20T15:01:15Z</time>
      </trkpt>
      <trkpt lat="43.538671" lon="-8.251178">
        <ele>97.922</ele>
        <time>2019-06-20T15:01:16Z</time>
      </trkpt>
      <trkpt lat="43.538657" lon="-8.251404">
        <ele>97.962</ele>
        <time>2019-06-20T15:01:17Z</time>
      </trkpt>
      <trkpt lat="43.538646" lon="-8.251638">
        <ele>98.408</ele>
        <time>2019-06-20T15:01:18Z</time>
      </trkpt>
      <trkpt lat="43.538633" lon="-8.251888">
        <ele>99.108</ele>
        <time>2019-06-20T15:01:19Z</time>
      </trkpt>
      <trkpt lat="43.538621" lon="-8.252144">
        <ele>99.115</ele>
        <time>2019-06-20T15:01:20Z</time>
      </trkpt>
      <trkpt lat="43.538609" lon="-8.252405">
        <ele>97.799</ele>
        <time>2019-06-20T15:01:21Z</time>
      </trkpt>
      <trkpt lat="43.538596" lon="-8.252678">
        <ele>95.520</ele>
        <time>2019-06-20T15:01:22Z</time>
      </trkpt>
      <trkpt lat="43.538586" lon="-8.252953">
        <ele>93.586</ele>
        <time>2019-06-20T15:01:23Z</time>
      </trkpt>
      <trkpt lat="43.538576" lon="-8.253232">
        <ele>92.213</ele>
        <time>2019-06-20T15:01:24Z</time>
      </trkpt>
      <trkpt lat="43.538569" lon="-8.253502">
        <ele>91.854</ele>
        <time>2019-06-20T15:01:25Z</time>
      </trkpt>
      <trkpt lat="43.538562" lon="-8.253778">
        <ele>91.726</ele>
        <time>2019-06-20T15:01:26Z</time>
      </trkpt>
      <trkpt lat="43.538554" lon="-8.254047">
        <ele>91.193</ele>
        <time>2019-06-20T15:01:27Z</time>
      </trkpt>
      <trkpt lat="43.538542" lon="-8.254313">
        <ele>90.294</ele>
        <time>2019-06-20T15:01:28Z</time>
      </trkpt>
      <trkpt lat="43.538522" lon="-8.254579">
        <ele>90.257</ele>
        <time>2019-06-20T15:01:29Z</time>
      </trkpt>
      <trkpt lat="43.538511" lon="-8.254842">
        <ele>90.522</ele>
        <time>2019-06-20T15:01:30Z</time>
      </trkpt>
      <trkpt lat="43.538501" lon="-8.255096">
        <ele>89.908</ele>
        <time>2019-06-20T15:01:31Z</time>
      </trkpt>
      <trkpt lat="43.538485" lon="-8.255355">
        <ele>88.882</ele>
        <time>2019-06-20T15:01:32Z</time>
      </trkpt>
      <trkpt lat="43.538474" lon="-8.255602">
        <ele>87.976</ele>
        <time>2019-06-20T15:01:33Z</time>
      </trkpt>
      <trkpt lat="43.538466" lon="-8.255860">
        <ele>87.457</ele>
        <time>2019-06-20T15:01:34Z</time>
      </trkpt>
      <trkpt lat="43.538453" lon="-8.256126">
        <ele>87.393</ele>
        <time>2019-06-20T15:01:35Z</time>
      </trkpt>
      <trkpt lat="43.538440" lon="-8.256395">
        <ele>87.280</ele>
        <time>2019-06-20T15:01:36Z</time>
      </trkpt>
      <trkpt lat="43.538427" lon="-8.256666">
        <ele>87.061</ele>
        <time>2019-06-20T15:01:37Z</time>
      </trkpt>
      <trkpt lat="43.538413" lon="-8.256942">
        <ele>85.923</ele>
        <time>2019-06-20T15:01:38Z</time>
      </trkpt>
      <trkpt lat="43.538404" lon="-8.257214">
        <ele>84.580</ele>
        <time>2019-06-20T15:01:39Z</time>
      </trkpt>
      <trkpt lat="43.538388" lon="-8.257490">
        <ele>82.545</ele>
        <time>2019-06-20T15:01:40Z</time>
      </trkpt>
      <trkpt lat="43.538378" lon="-8.257765">
        <ele>81.447</ele>
        <time>2019-06-20T15:01:41Z</time>
      </trkpt>
      <trkpt lat="43.538361" lon="-8.258040">
        <ele>81.311</ele>
        <time>2019-06-20T15:01:42Z</time>
      </trkpt>
      <trkpt lat="43.538345" lon="-8.258322">
        <ele>82.008</ele>
        <time>2019-06-20T15:01:43Z</time>
      </trkpt>
      <trkpt lat="43.538350" lon="-8.258587">
        <ele>80.317</ele>
        <time>2019-06-20T15:01:44Z</time>
      </trkpt>
      <trkpt lat="43.538339" lon="-8.258873">
        <ele>79.171</ele>
        <time>2019-06-20T15:01:45Z</time>
      </trkpt>
      <trkpt lat="43.538332" lon="-8.259157">
        <ele>77.132</ele>
        <time>2019-06-20T15:01:46Z</time>
      </trkpt>
      <trkpt lat="43.538318" lon="-8.259439">
        <ele>76.928</ele>
        <time>2019-06-20T15:01:47Z</time>
      </trkpt>
      <trkpt lat="43.538301" lon="-8.259729">
        <ele>75.935</ele>
        <time>2019-06-20T15:01:48Z</time>
      </trkpt>
      <trkpt lat="43.538279" lon="-8.260023">
        <ele>75.546</ele>
        <time>2019-06-20T15:01:49Z</time>
      </trkpt>
      <trkpt lat="43.538259" lon="-8.260301">
        <ele>74.858</ele>
        <time>2019-06-20T15:01:50Z</time>
      </trkpt>
      <trkpt lat="43.538243" lon="-8.260575">
        <ele>75.345</ele>
        <time>2019-06-20T15:01:51Z</time>
      </trkpt>
      <trkpt lat="43.538237" lon="-8.260851">
        <ele>74.621</ele>
        <time>2019-06-20T15:01:52Z</time>
      </trkpt>
      <trkpt lat="43.538239" lon="-8.261125">
        <ele>74.041</ele>
        <time>2019-06-20T15:01:53Z</time>
      </trkpt>
      <trkpt lat="43.538246" lon="-8.261395">
        <ele>73.705</ele>
        <time>2019-06-20T15:01:54Z</time>
      </trkpt>
      <trkpt lat="43.538238" lon="-8.261671">
        <ele>74.008</ele>
        <time>2019-06-20T15:01:55Z</time>
      </trkpt>
      <trkpt lat="43.538234" lon="-8.261945">
        <ele>74.455</ele>
        <time>2019-06-20T15:01:56Z</time>
      </trkpt>
      <trkpt lat="43.538222" lon="-8.262222">
        <ele>74.099</ele>
        <time>2019-06-20T15:01:57Z</time>
      </trkpt>
      <trkpt lat="43.538211" lon="-8.262498">
        <ele>73.030</ele>
        <time>2019-06-20T15:01:58Z</time>
      </trkpt>
      <trkpt lat="43.538206" lon="-8.262752">
        <ele>72.646</ele>
        <time>2019-06-20T15:01:59Z</time>
      </trkpt>
      <trkpt lat="43.538200" lon="-8.263004">
        <ele>72.983</ele>
        <time>2019-06-20T15:02:00Z</time>
      </trkpt>
      <trkpt lat="43.538187" lon="-8.263248">
        <ele>73.354</ele>
        <time>2019-06-20T15:02:01Z</time>
      </trkpt>
      <trkpt lat="43.538178" lon="-8.263483">
        <ele>73.436</ele>
        <time>2019-06-20T15:02:02Z</time>
      </trkpt>
      <trkpt lat="43.538165" lon="-8.263725">
        <ele>73.623</ele>
        <time>2019-06-20T15:02:03Z</time>
      </trkpt>
      <trkpt lat="43.538156" lon="-8.263971">
        <ele>73.861</ele>
        <time>2019-06-20T15:02:04Z</time>
      </trkpt>
      <trkpt lat="43.538139" lon="-8.264232">
        <ele>73.121</ele>
        <time>2019-06-20T15:02:05Z</time>
      </trkpt>
      <trkpt lat="43.538133" lon="-8.264487">
        <ele>72.313</ele>
        <time>2019-06-20T15:02:06Z</time>
      </trkpt>
      <trkpt lat="43.538125" lon="-8.264733">
        <ele>72.208</ele>
        <time>2019-06-20T15:02:07Z</time>
      </trkpt>
      <trkpt lat="43.538112" lon="-8.264975">
        <ele>72.079</ele>
        <time>2019-06-20T15:02:08Z</time>
      </trkpt>
      <trkpt lat="43.538105" lon="-8.265209">
        <ele>72.073</ele>
        <time>2019-06-20T15:02:09Z</time>
      </trkpt>
      <trkpt lat="43.538091" lon="-8.265449">
        <ele>71.414</ele>
        <time>2019-06-20T15:02:10Z</time>
      </trkpt>
      <trkpt lat="43.538083" lon="-8.265682">
        <ele>70.660</ele>
        <time>2019-06-20T15:02:11Z</time>
      </trkpt>
      <trkpt lat="43.538068" lon="-8.265912">
        <ele>69.857</ele>
        <time>2019-06-20T15:02:12Z</time>
      </trkpt>
      <trkpt lat="43.538056" lon="-8.266135">
        <ele>69.028</ele>
        <time>2019-06-20T15:02:13Z</time>
      </trkpt>
      <trkpt lat="43.538052" lon="-8.266346">
        <ele>69.010</ele>
        <time>2019-06-20T15:02:14Z</time>
      </trkpt>
      <trkpt lat="43.538046" lon="-8.266550">
        <ele>68.427</ele>
        <time>2019-06-20T15:02:15Z</time>
      </trkpt>
      <trkpt lat="43.538037" lon="-8.266756">
        <ele>68.069</ele>
        <time>2019-06-20T15:02:16Z</time>
      </trkpt>
      <trkpt lat="43.538032" lon="-8.266948">
        <ele>68.104</ele>
        <time>2019-06-20T15:02:17Z</time>
      </trkpt>
      <trkpt lat="43.538019" lon="-8.267126">
        <ele>68.124</ele>
        <time>2019-06-20T15:02:18Z</time>
      </trkpt>
      <trkpt lat="43.538010" lon="-8.267288">
        <ele>68.408</ele>
        <time>2019-06-20T15:02:19Z</time>
      </trkpt>
      <trkpt lat="43.537999" lon="-8.267438">
        <ele>68.819</ele>
        <time>2019-06-20T15:02:20Z</time>
      </trkpt>
      <trkpt lat="43.537988" lon="-8.267578">
        <ele>68.783</ele>
        <time>2019-06-20T15:02:21Z</time>
      </trkpt>
      <trkpt lat="43.537980" lon="-8.267698">
        <ele>68.324</ele>
        <time>2019-06-20T15:02:22Z</time>
      </trkpt>
      <trkpt lat="43.537981" lon="-8.267786">
        <ele>68.040</ele>
        <time>2019-06-20T15:02:23Z</time>
      </trkpt>
      <trkpt lat="43.537979" lon="-8.267852">
        <ele>68.047</ele>
        <time>2019-06-20T15:02:24Z</time>
      </trkpt>
      <trkpt lat="43.538005" lon="-8.267943">
        <ele>68.068</ele>
        <time>2019-06-20T15:02:26Z</time>
      </trkpt>
      <trkpt lat="43.538035" lon="-8.267995">
        <ele>68.040</ele>
        <time>2019-06-20T15:02:27Z</time>
      </trkpt>
      <trkpt lat="43.538069" lon="-8.268053">
        <ele>68.087</ele>
        <time>2019-06-20T15:02:28Z</time>
      </trkpt>
      <trkpt lat="43.538130" lon="-8.268130">
        <ele>68.239</ele>
        <time>2019-06-20T15:02:29Z</time>
      </trkpt>
      <trkpt lat="43.538234" lon="-8.268225">
        <ele>68.301</ele>
        <time>2019-06-20T15:02:30Z</time>
      </trkpt>
      <trkpt lat="43.538325" lon="-8.268316">
        <ele>68.121</ele>
        <time>2019-06-20T15:02:31Z</time>
      </trkpt>
      <trkpt lat="43.538432" lon="-8.268425">
        <ele>68.208</ele>
        <time>2019-06-20T15:02:32Z</time>
      </trkpt>
      <trkpt lat="43.538545" lon="-8.268542">
        <ele>68.246</ele>
        <time>2019-06-20T15:02:33Z</time>
      </trkpt>
      <trkpt lat="43.538669" lon="-8.268676">
        <ele>68.610</ele>
        <time>2019-06-20T15:02:34Z</time>
      </trkpt>
      <trkpt lat="43.538797" lon="-8.268813">
        <ele>69.141</ele>
        <time>2019-06-20T15:02:35Z</time>
      </trkpt>
      <trkpt lat="43.538929" lon="-8.268951">
        <ele>69.637</ele>
        <time>2019-06-20T15:02:36Z</time>
      </trkpt>
      <trkpt lat="43.539067" lon="-8.269092">
        <ele>70.754</ele>
        <time>2019-06-20T15:02:37Z</time>
      </trkpt>
      <trkpt lat="43.539204" lon="-8.269239">
        <ele>71.545</ele>
        <time>2019-06-20T15:02:38Z</time>
      </trkpt>
      <trkpt lat="43.539343" lon="-8.269386">
        <ele>73.157</ele>
        <time>2019-06-20T15:02:39Z</time>
      </trkpt>
      <trkpt lat="43.539479" lon="-8.269529">
        <ele>74.814</ele>
        <time>2019-06-20T15:02:40Z</time>
      </trkpt>
      <trkpt lat="43.539606" lon="-8.269659">
        <ele>76.363</ele>
        <time>2019-06-20T15:02:41Z</time>
      </trkpt>
      <trkpt lat="43.539728" lon="-8.269779">
        <ele>77.244</ele>
        <time>2019-06-20T15:02:42Z</time>
      </trkpt>
      <trkpt lat="43.539845" lon="-8.269896">
        <ele>77.818</ele>
        <time>2019-06-20T15:02:43Z</time>
      </trkpt>
      <trkpt lat="43.539961" lon="-8.270013">
        <ele>78.008</ele>
        <time>2019-06-20T15:02:44Z</time>
      </trkpt>
      <trkpt lat="43.540073" lon="-8.270127">
        <ele>79.069</ele>
        <time>2019-06-20T15:02:45Z</time>
      </trkpt>
      <trkpt lat="43.540180" lon="-8.270242">
        <ele>79.753</ele>
        <time>2019-06-20T15:02:46Z</time>
      </trkpt>
      <trkpt lat="43.540272" lon="-8.270372">
        <ele>80.044</ele>
        <time>2019-06-20T15:02:47Z</time>
      </trkpt>
      <trkpt lat="43.540356" lon="-8.270514">
        <ele>80.360</ele>
        <time>2019-06-20T15:02:48Z</time>
      </trkpt>
      <trkpt lat="43.540426" lon="-8.270676">
        <ele>80.317</ele>
        <time>2019-06-20T15:02:49Z</time>
      </trkpt>
      <trkpt lat="43.540481" lon="-8.270853">
        <ele>79.948</ele>
        <time>2019-06-20T15:02:50Z</time>
      </trkpt>
      <trkpt lat="43.540539" lon="-8.271046">
        <ele>79.280</ele>
        <time>2019-06-20T15:02:51Z</time>
      </trkpt>
      <trkpt lat="43.540588" lon="-8.271251">
        <ele>78.457</ele>
        <time>2019-06-20T15:02:52Z</time>
      </trkpt>
      <trkpt lat="43.540639" lon="-8.271455">
        <ele>78.017</ele>
        <time>2019-06-20T15:02:53Z</time>
      </trkpt>
      <trkpt lat="43.540692" lon="-8.271656">
        <ele>78.087</ele>
        <time>2019-06-20T15:02:54Z</time>
      </trkpt>
      <trkpt lat="43.540746" lon="-8.271850">
        <ele>78.215</ele>
        <time>2019-06-20T15:02:55Z</time>
      </trkpt>
      <trkpt lat="43.540796" lon="-8.272041">
        <ele>78.108</ele>
        <time>2019-06-20T15:02:56Z</time>
      </trkpt>
      <trkpt lat="43.540847" lon="-8.272230">
        <ele>77.964</ele>
        <time>2019-06-20T15:02:57Z</time>
      </trkpt>
      <trkpt lat="43.540902" lon="-8.272418">
        <ele>77.698</ele>
        <time>2019-06-20T15:02:58Z</time>
      </trkpt>
      <trkpt lat="43.540955" lon="-8.272602">
        <ele>76.869</ele>
        <time>2019-06-20T15:02:59Z</time>
      </trkpt>
      <trkpt lat="43.541008" lon="-8.272779">
        <ele>75.715</ele>
        <time>2019-06-20T15:03:00Z</time>
      </trkpt>
      <trkpt lat="43.541061" lon="-8.272945">
        <ele>75.322</ele>
        <time>2019-06-20T15:03:01Z</time>
      </trkpt>
      <trkpt lat="43.541114" lon="-8.273105">
        <ele>74.813</ele>
        <time>2019-06-20T15:03:02Z</time>
      </trkpt>
      <trkpt lat="43.541163" lon="-8.273266">
        <ele>73.925</ele>
        <time>2019-06-20T15:03:03Z</time>
      </trkpt>
      <trkpt lat="43.541209" lon="-8.273425">
        <ele>73.312</ele>
        <time>2019-06-20T15:03:04Z</time>
      </trkpt>
      <trkpt lat="43.541252" lon="-8.273589">
        <ele>73.026</ele>
        <time>2019-06-20T15:03:05Z</time>
      </trkpt>
      <trkpt lat="43.541310" lon="-8.273760">
        <ele>72.647</ele>
        <time>2019-06-20T15:03:06Z</time>
      </trkpt>
      <trkpt lat="43.541356" lon="-8.273928">
        <ele>72.411</ele>
        <time>2019-06-20T15:03:07Z</time>
      </trkpt>
      <trkpt lat="43.541401" lon="-8.274107">
        <ele>72.708</ele>
        <time>2019-06-20T15:03:08Z</time>
      </trkpt>
      <trkpt lat="43.541453" lon="-8.274305">
        <ele>72.375</ele>
        <time>2019-06-20T15:03:09Z</time>
      </trkpt>
      <trkpt lat="43.541510" lon="-8.274518">
        <ele>71.939</ele>
        <time>2019-06-20T15:03:10Z</time>
      </trkpt>
      <trkpt lat="43.541581" lon="-8.274734">
        <ele>71.320</ele>
        <time>2019-06-20T15:03:11Z</time>
      </trkpt>
      <trkpt lat="43.541662" lon="-8.274960">
        <ele>71.036</ele>
        <time>2019-06-20T15:03:12Z</time>
      </trkpt>
      <trkpt lat="43.541732" lon="-8.275193">
        <ele>71.053</ele>
        <time>2019-06-20T15:03:13Z</time>
      </trkpt>
      <trkpt lat="43.541837" lon="-8.275438">
        <ele>71.464</ele>
        <time>2019-06-20T15:03:14Z</time>
      </trkpt>
      <trkpt lat="43.541915" lon="-8.275680">
        <ele>71.546</ele>
        <time>2019-06-20T15:03:15Z</time>
      </trkpt>
      <trkpt lat="43.541978" lon="-8.275926">
        <ele>71.063</ele>
        <time>2019-06-20T15:03:16Z</time>
      </trkpt>
      <trkpt lat="43.542056" lon="-8.276177">
        <ele>70.987</ele>
        <time>2019-06-20T15:03:17Z</time>
      </trkpt>
      <trkpt lat="43.542135" lon="-8.276421">
        <ele>70.642</ele>
        <time>2019-06-20T15:03:18Z</time>
      </trkpt>
      <trkpt lat="43.542206" lon="-8.276661">
        <ele>70.026</ele>
        <time>2019-06-20T15:03:19Z</time>
      </trkpt>
      <trkpt lat="43.542276" lon="-8.276903">
        <ele>69.108</ele>
        <time>2019-06-20T15:03:20Z</time>
      </trkpt>
      <trkpt lat="43.542362" lon="-8.277140">
        <ele>67.911</ele>
        <time>2019-06-20T15:03:21Z</time>
      </trkpt>
      <trkpt lat="43.542443" lon="-8.277363">
        <ele>66.765</ele>
        <time>2019-06-20T15:03:22Z</time>
      </trkpt>
      <trkpt lat="43.542513" lon="-8.277582">
        <ele>65.826</ele>
        <time>2019-06-20T15:03:23Z</time>
      </trkpt>
      <trkpt lat="43.542581" lon="-8.277794">
        <ele>65.662</ele>
        <time>2019-06-20T15:03:24Z</time>
      </trkpt>
      <trkpt lat="43.542649" lon="-8.278017">
        <ele>65.619</ele>
        <time>2019-06-20T15:03:25Z</time>
      </trkpt>
      <trkpt lat="43.542710" lon="-8.278199">
        <ele>64.750</ele>
        <time>2019-06-20T15:03:26Z</time>
      </trkpt>
      <trkpt lat="43.542774" lon="-8.278381">
        <ele>63.832</ele>
        <time>2019-06-20T15:03:27Z</time>
      </trkpt>
      <trkpt lat="43.542851" lon="-8.278555">
        <ele>63.569</ele>
        <time>2019-06-20T15:03:28Z</time>
      </trkpt>
      <trkpt lat="43.542959" lon="-8.278713">
        <ele>63.267</ele>
        <time>2019-06-20T15:03:29Z</time>
      </trkpt>
      <trkpt lat="43.543076" lon="-8.278858">
        <ele>63.081</ele>
        <time>2019-06-20T15:03:30Z</time>
      </trkpt>
      <trkpt lat="43.543207" lon="-8.278993">
        <ele>61.719</ele>
        <time>2019-06-20T15:03:31Z</time>
      </trkpt>
      <trkpt lat="43.543344" lon="-8.279103">
        <ele>60.408</ele>
        <time>2019-06-20T15:03:32Z</time>
      </trkpt>
      <trkpt lat="43.543472" lon="-8.279176">
        <ele>59.059</ele>
        <time>2019-06-20T15:03:33Z</time>
      </trkpt>
      <trkpt lat="43.543615" lon="-8.279241">
        <ele>57.743</ele>
        <time>2019-06-20T15:03:34Z</time>
      </trkpt>
      <trkpt lat="43.543762" lon="-8.279285">
        <ele>57.394</ele>
        <time>2019-06-20T15:03:35Z</time>
      </trkpt>
      <trkpt lat="43.543911" lon="-8.279333">
        <ele>56.720</ele>
        <time>2019-06-20T15:03:36Z</time>
      </trkpt>
      <trkpt lat="43.544055" lon="-8.279373">
        <ele>55.977</ele>
        <time>2019-06-20T15:03:37Z</time>
      </trkpt>
      <trkpt lat="43.544176" lon="-8.279412">
        <ele>55.298</ele>
        <time>2019-06-20T15:03:38Z</time>
      </trkpt>
      <trkpt lat="43.544280" lon="-8.279461">
        <ele>54.590</ele>
        <time>2019-06-20T15:03:39Z</time>
      </trkpt>
      <trkpt lat="43.544364" lon="-8.279512">
        <ele>54.017</ele>
        <time>2019-06-20T15:03:40Z</time>
      </trkpt>
      <trkpt lat="43.544412" lon="-8.279583">
        <ele>53.694</ele>
        <time>2019-06-20T15:03:41Z</time>
      </trkpt>
      <trkpt lat="43.544449" lon="-8.279667">
        <ele>53.257</ele>
        <time>2019-06-20T15:03:42Z</time>
      </trkpt>
      <trkpt lat="43.544473" lon="-8.279773">
        <ele>53.122</ele>
        <time>2019-06-20T15:03:43Z</time>
      </trkpt>
      <trkpt lat="43.544499" lon="-8.279887">
        <ele>53.108</ele>
        <time>2019-06-20T15:03:44Z</time>
      </trkpt>
      <trkpt lat="43.544523" lon="-8.280031">
        <ele>52.882</ele>
        <time>2019-06-20T15:03:45Z</time>
      </trkpt>
      <trkpt lat="43.544548" lon="-8.280204">
        <ele>51.856</ele>
        <time>2019-06-20T15:03:46Z</time>
      </trkpt>
      <trkpt lat="43.544577" lon="-8.280406">
        <ele>50.817</ele>
        <time>2019-06-20T15:03:47Z</time>
      </trkpt>
      <trkpt lat="43.544615" lon="-8.280619">
        <ele>50.043</ele>
        <time>2019-06-20T15:03:48Z</time>
      </trkpt>
      <trkpt lat="43.544646" lon="-8.280850">
        <ele>49.440</ele>
        <time>2019-06-20T15:03:49Z</time>
      </trkpt>
      <trkpt lat="43.544678" lon="-8.281102">
        <ele>48.661</ele>
        <time>2019-06-20T15:03:50Z</time>
      </trkpt>
      <trkpt lat="43.544722" lon="-8.281363">
        <ele>48.123</ele>
        <time>2019-06-20T15:03:51Z</time>
      </trkpt>
      <trkpt lat="43.544762" lon="-8.281642">
        <ele>46.350</ele>
        <time>2019-06-20T15:03:52Z</time>
      </trkpt>
      <trkpt lat="43.544802" lon="-8.281929">
        <ele>44.466</ele>
        <time>2019-06-20T15:03:53Z</time>
      </trkpt>
      <trkpt lat="43.544845" lon="-8.282229">
        <ele>42.429</ele>
        <time>2019-06-20T15:03:54Z</time>
      </trkpt>
      <trkpt lat="43.544894" lon="-8.282532">
        <ele>41.521</ele>
        <time>2019-06-20T15:03:55Z</time>
      </trkpt>
      <trkpt lat="43.544944" lon="-8.282842">
        <ele>40.808</ele>
        <time>2019-06-20T15:03:56Z</time>
      </trkpt>
      <trkpt lat="43.544990" lon="-8.283146">
        <ele>40.639</ele>
        <time>2019-06-20T15:03:57Z</time>
      </trkpt>
      <trkpt lat="43.545037" lon="-8.283458">
        <ele>40.613</ele>
        <time>2019-06-20T15:03:58Z</time>
      </trkpt>
      <trkpt lat="43.545076" lon="-8.283773">
        <ele>41.364</ele>
        <time>2019-06-20T15:03:59Z</time>
      </trkpt>
      <trkpt lat="43.545118" lon="-8.284091">
        <ele>41.080</ele>
        <time>2019-06-20T15:04:00Z</time>
      </trkpt>
      <trkpt lat="43.545165" lon="-8.284411">
        <ele>41.267</ele>
        <time>2019-06-20T15:04:01Z</time>
      </trkpt>
      <trkpt lat="43.545214" lon="-8.284728">
        <ele>40.518</ele>
        <time>2019-06-20T15:04:02Z</time>
      </trkpt>
      <trkpt lat="43.545258" lon="-8.285040">
        <ele>40.940</ele>
        <time>2019-06-20T15:04:03Z</time>
      </trkpt>
      <trkpt lat="43.545300" lon="-8.285346">
        <ele>41.527</ele>
        <time>2019-06-20T15:04:04Z</time>
      </trkpt>
      <trkpt lat="43.545336" lon="-8.285653">
        <ele>42.955</ele>
        <time>2019-06-20T15:04:05Z</time>
      </trkpt>
      <trkpt lat="43.545378" lon="-8.285958">
        <ele>43.407</ele>
        <time>2019-06-20T15:04:06Z</time>
      </trkpt>
      <trkpt lat="43.545420" lon="-8.286251">
        <ele>43.517</ele>
        <time>2019-06-20T15:04:07Z</time>
      </trkpt>
      <trkpt lat="43.545466" lon="-8.286540">
        <ele>44.208</ele>
        <time>2019-06-20T15:04:08Z</time>
      </trkpt>
      <trkpt lat="43.545520" lon="-8.286830">
        <ele>44.958</ele>
        <time>2019-06-20T15:04:09Z</time>
      </trkpt>
      <trkpt lat="43.545557" lon="-8.287101">
        <ele>45.052</ele>
        <time>2019-06-20T15:04:10Z</time>
      </trkpt>
      <trkpt lat="43.545609" lon="-8.287384">
        <ele>45.133</ele>
        <time>2019-06-20T15:04:11Z</time>
      </trkpt>
      <trkpt lat="43.545639" lon="-8.287666">
        <ele>45.189</ele>
        <time>2019-06-20T15:04:12Z</time>
      </trkpt>
      <trkpt lat="43.545694" lon="-8.287936">
        <ele>44.716</ele>
        <time>2019-06-20T15:04:13Z</time>
      </trkpt>
      <trkpt lat="43.545768" lon="-8.288217">
        <ele>44.317</ele>
        <time>2019-06-20T15:04:14Z</time>
      </trkpt>
      <trkpt lat="43.545828" lon="-8.288491">
        <ele>44.069</ele>
        <time>2019-06-20T15:04:15Z</time>
      </trkpt>
      <trkpt lat="43.545886" lon="-8.288765">
        <ele>43.496</ele>
        <time>2019-06-20T15:04:16Z</time>
      </trkpt>
      <trkpt lat="43.545942" lon="-8.289033">
        <ele>42.545</ele>
        <time>2019-06-20T15:04:17Z</time>
      </trkpt>
      <trkpt lat="43.545973" lon="-8.289286">
        <ele>41.647</ele>
        <time>2019-06-20T15:04:18Z</time>
      </trkpt>
      <trkpt lat="43.546020" lon="-8.289541">
        <ele>41.011</ele>
        <time>2019-06-20T15:04:19Z</time>
      </trkpt>
      <trkpt lat="43.546074" lon="-8.289794">
        <ele>41.008</ele>
        <time>2019-06-20T15:04:20Z</time>
      </trkpt>
      <trkpt lat="43.546123" lon="-8.290034">
        <ele>40.847</ele>
        <time>2019-06-20T15:04:21Z</time>
      </trkpt>
      <trkpt lat="43.546184" lon="-8.290293">
        <ele>40.011</ele>
        <time>2019-06-20T15:04:22Z</time>
      </trkpt>
      <trkpt lat="43.546230" lon="-8.290540">
        <ele>40.022</ele>
        <time>2019-06-20T15:04:23Z</time>
      </trkpt>
      <trkpt lat="43.546274" lon="-8.290779">
        <ele>40.328</ele>
        <time>2019-06-20T15:04:24Z</time>
      </trkpt>
      <trkpt lat="43.546313" lon="-8.291024">
        <ele>40.375</ele>
        <time>2019-06-20T15:04:25Z</time>
      </trkpt>
      <trkpt lat="43.546352" lon="-8.291265">
        <ele>40.716</ele>
        <time>2019-06-20T15:04:26Z</time>
      </trkpt>
      <trkpt lat="43.546400" lon="-8.291524">
        <ele>40.978</ele>
        <time>2019-06-20T15:04:27Z</time>
      </trkpt>
      <trkpt lat="43.546442" lon="-8.291783">
        <ele>40.745</ele>
        <time>2019-06-20T15:04:28Z</time>
      </trkpt>
      <trkpt lat="43.546498" lon="-8.292034">
        <ele>40.468</ele>
        <time>2019-06-20T15:04:29Z</time>
      </trkpt>
      <trkpt lat="43.546570" lon="-8.292297">
        <ele>39.742</ele>
        <time>2019-06-20T15:04:30Z</time>
      </trkpt>
      <trkpt lat="43.546628" lon="-8.292556">
        <ele>38.826</ele>
        <time>2019-06-20T15:04:31Z</time>
      </trkpt>
      <trkpt lat="43.546680" lon="-8.292817">
        <ele>38.208</ele>
        <time>2019-06-20T15:04:32Z</time>
      </trkpt>
      <trkpt lat="43.546735" lon="-8.293082">
        <ele>39.069</ele>
        <time>2019-06-20T15:04:33Z</time>
      </trkpt>
      <trkpt lat="43.546786" lon="-8.293336">
        <ele>39.443</ele>
        <time>2019-06-20T15:04:34Z</time>
      </trkpt>
      <trkpt lat="43.546840" lon="-8.293589">
        <ele>39.674</ele>
        <time>2019-06-20T15:04:35Z</time>
      </trkpt>
      <trkpt lat="43.546889" lon="-8.293830">
        <ele>39.690</ele>
        <time>2019-06-20T15:04:36Z</time>
      </trkpt>
      <trkpt lat="43.546946" lon="-8.294073">
        <ele>39.387</ele>
        <time>2019-06-20T15:04:37Z</time>
      </trkpt>
      <trkpt lat="43.546993" lon="-8.294312">
        <ele>39.468</ele>
        <time>2019-06-20T15:04:38Z</time>
      </trkpt>
      <trkpt lat="43.547054" lon="-8.294532">
        <ele>39.590</ele>
        <time>2019-06-20T15:04:39Z</time>
      </trkpt>
      <trkpt lat="43.547077" lon="-8.294750">
        <ele>38.957</ele>
        <time>2019-06-20T15:04:40Z</time>
      </trkpt>
      <trkpt lat="43.547089" lon="-8.294996">
        <ele>38.574</ele>
        <time>2019-06-20T15:04:41Z</time>
      </trkpt>
      <trkpt lat="43.547089" lon="-8.295242">
        <ele>38.556</ele>
        <time>2019-06-20T15:04:42Z</time>
      </trkpt>
      <trkpt lat="43.547092" lon="-8.295472">
        <ele>38.521</ele>
        <time>2019-06-20T15:04:43Z</time>
      </trkpt>
      <trkpt lat="43.547076" lon="-8.295677">
        <ele>38.708</ele>
        <time>2019-06-20T15:04:44Z</time>
      </trkpt>
      <trkpt lat="43.547061" lon="-8.295859">
        <ele>38.890</ele>
        <time>2019-06-20T15:04:45Z</time>
      </trkpt>
      <trkpt lat="43.547062" lon="-8.296030">
        <ele>38.514</ele>
        <time>2019-06-20T15:04:46Z</time>
      </trkpt>
      <trkpt lat="43.547063" lon="-8.296203">
        <ele>38.445</ele>
        <time>2019-06-20T15:04:47Z</time>
      </trkpt>
      <trkpt lat="43.547078" lon="-8.296402">
        <ele>38.511</ele>
        <time>2019-06-20T15:04:48Z</time>
      </trkpt>
      <trkpt lat="43.547150" lon="-8.296604">
        <ele>38.228</ele>
        <time>2019-06-20T15:04:49Z</time>
      </trkpt>
      <trkpt lat="43.547182" lon="-8.296819">
        <ele>38.069</ele>
        <time>2019-06-20T15:04:50Z</time>
      </trkpt>
      <trkpt lat="43.547232" lon="-8.297044">
        <ele>38.031</ele>
        <time>2019-06-20T15:04:51Z</time>
      </trkpt>
      <trkpt lat="43.547265" lon="-8.297290">
        <ele>37.898</ele>
        <time>2019-06-20T15:04:52Z</time>
      </trkpt>
      <trkpt lat="43.547303" lon="-8.297543">
        <ele>37.075</ele>
        <time>2019-06-20T15:04:53Z</time>
      </trkpt>
      <trkpt lat="43.547331" lon="-8.297802">
        <ele>37.028</ele>
        <time>2019-06-20T15:04:54Z</time>
      </trkpt>
      <trkpt lat="43.547374" lon="-8.298078">
        <ele>37.020</ele>
        <time>2019-06-20T15:04:55Z</time>
      </trkpt>
      <trkpt lat="43.547419" lon="-8.298347">
        <ele>37.008</ele>
        <time>2019-06-20T15:04:56Z</time>
      </trkpt>
      <trkpt lat="43.547460" lon="-8.298623">
        <ele>38.080</ele>
        <time>2019-06-20T15:04:57Z</time>
      </trkpt>
      <trkpt lat="43.547511" lon="-8.298895">
        <ele>36.944</ele>
        <time>2019-06-20T15:04:58Z</time>
      </trkpt>
      <trkpt lat="43.547553" lon="-8.299148">
        <ele>36.195</ele>
        <time>2019-06-20T15:04:59Z</time>
      </trkpt>
      <trkpt lat="43.547591" lon="-8.299399">
        <ele>35.241</ele>
        <time>2019-06-20T15:05:00Z</time>
      </trkpt>
      <trkpt lat="43.547618" lon="-8.299637">
        <ele>35.048</ele>
        <time>2019-06-20T15:05:01Z</time>
      </trkpt>
      <trkpt lat="43.547647" lon="-8.299875">
        <ele>35.599</ele>
        <time>2019-06-20T15:05:02Z</time>
      </trkpt>
      <trkpt lat="43.547684" lon="-8.300098">
        <ele>36.491</ele>
        <time>2019-06-20T15:05:03Z</time>
      </trkpt>
      <trkpt lat="43.547729" lon="-8.300325">
        <ele>37.058</ele>
        <time>2019-06-20T15:05:04Z</time>
      </trkpt>
      <trkpt lat="43.547760" lon="-8.300542">
        <ele>37.098</ele>
        <time>2019-06-20T15:05:05Z</time>
      </trkpt>
      <trkpt lat="43.547776" lon="-8.300731">
        <ele>36.415</ele>
        <time>2019-06-20T15:05:06Z</time>
      </trkpt>
      <trkpt lat="43.547793" lon="-8.300894">
        <ele>36.026</ele>
        <time>2019-06-20T15:05:07Z</time>
      </trkpt>
      <trkpt lat="43.547823" lon="-8.301045">
        <ele>36.008</ele>
        <time>2019-06-20T15:05:08Z</time>
      </trkpt>
      <trkpt lat="43.547872" lon="-8.301190">
        <ele>36.082</ele>
        <time>2019-06-20T15:05:09Z</time>
      </trkpt>
      <trkpt lat="43.547922" lon="-8.301332">
        <ele>36.096</ele>
        <time>2019-06-20T15:05:10Z</time>
      </trkpt>
      <trkpt lat="43.547993" lon="-8.301483">
        <ele>36.347</ele>
        <time>2019-06-20T15:05:11Z</time>
      </trkpt>
      <trkpt lat="43.548067" lon="-8.301646">
        <ele>36.913</ele>
        <time>2019-06-20T15:05:12Z</time>
      </trkpt>
      <trkpt lat="43.548149" lon="-8.301827">
        <ele>37.850</ele>
        <time>2019-06-20T15:05:13Z</time>
      </trkpt>
      <trkpt lat="43.548229" lon="-8.302001">
        <ele>39.071</ele>
        <time>2019-06-20T15:05:14Z</time>
      </trkpt>
      <trkpt lat="43.548323" lon="-8.302178">
        <ele>40.633</ele>
        <time>2019-06-20T15:05:15Z</time>
      </trkpt>
      <trkpt lat="43.548418" lon="-8.302342">
        <ele>40.890</ele>
        <time>2019-06-20T15:05:16Z</time>
      </trkpt>
      <trkpt lat="43.548514" lon="-8.302499">
        <ele>40.754</ele>
        <time>2019-06-20T15:05:17Z</time>
      </trkpt>
      <trkpt lat="43.548613" lon="-8.302639">
        <ele>40.056</ele>
        <time>2019-06-20T15:05:18Z</time>
      </trkpt>
      <trkpt lat="43.548715" lon="-8.302780">
        <ele>39.311</ele>
        <time>2019-06-20T15:05:19Z</time>
      </trkpt>
      <trkpt lat="43.548813" lon="-8.302919">
        <ele>39.608</ele>
        <time>2019-06-20T15:05:20Z</time>
      </trkpt>
      <trkpt lat="43.548902" lon="-8.303050">
        <ele>39.998</ele>
        <time>2019-06-20T15:05:21Z</time>
      </trkpt>
      <trkpt lat="43.548997" lon="-8.303170">
        <ele>40.822</ele>
        <time>2019-06-20T15:05:22Z</time>
      </trkpt>
      <trkpt lat="43.549104" lon="-8.303277">
        <ele>41.623</ele>
        <time>2019-06-20T15:05:23Z</time>
      </trkpt>
      <trkpt lat="43.549254" lon="-8.303363">
        <ele>42.419</ele>
        <time>2019-06-20T15:05:24Z</time>
      </trkpt>
      <trkpt lat="43.549390" lon="-8.303446">
        <ele>43.096</ele>
        <time>2019-06-20T15:05:25Z</time>
      </trkpt>
      <trkpt lat="43.549522" lon="-8.303526">
        <ele>43.167</ele>
        <time>2019-06-20T15:05:26Z</time>
      </trkpt>
      <trkpt lat="43.549645" lon="-8.303611">
        <ele>43.379</ele>
        <time>2019-06-20T15:05:27Z</time>
      </trkpt>
      <trkpt lat="43.549762" lon="-8.303715">
        <ele>43.696</ele>
        <time>2019-06-20T15:05:28Z</time>
      </trkpt>
      <trkpt lat="43.549876" lon="-8.303831">
        <ele>44.036</ele>
        <time>2019-06-20T15:05:29Z</time>
      </trkpt>
      <trkpt lat="43.549979" lon="-8.303984">
        <ele>44.817</ele>
        <time>2019-06-20T15:05:30Z</time>
      </trkpt>
      <trkpt lat="43.550074" lon="-8.304139">
        <ele>45.818</ele>
        <time>2019-06-20T15:05:31Z</time>
      </trkpt>
      <trkpt lat="43.550175" lon="-8.304288">
        <ele>47.308</ele>
        <time>2019-06-20T15:05:32Z</time>
      </trkpt>
      <trkpt lat="43.550274" lon="-8.304409">
        <ele>48.626</ele>
        <time>2019-06-20T15:05:33Z</time>
      </trkpt>
      <trkpt lat="43.550383" lon="-8.304505">
        <ele>49.470</ele>
        <time>2019-06-20T15:05:34Z</time>
      </trkpt>
      <trkpt lat="43.550506" lon="-8.304587">
        <ele>50.121</ele>
        <time>2019-06-20T15:05:35Z</time>
      </trkpt>
      <trkpt lat="43.550647" lon="-8.304668">
        <ele>50.917</ele>
        <time>2019-06-20T15:05:36Z</time>
      </trkpt>
      <trkpt lat="43.550785" lon="-8.304749">
        <ele>51.464</ele>
        <time>2019-06-20T15:05:37Z</time>
      </trkpt>
      <trkpt lat="43.550923" lon="-8.304822">
        <ele>51.085</ele>
        <time>2019-06-20T15:05:38Z</time>
      </trkpt>
      <trkpt lat="43.551053" lon="-8.304894">
        <ele>50.267</ele>
        <time>2019-06-20T15:05:39Z</time>
      </trkpt>
      <trkpt lat="43.551169" lon="-8.304962">
        <ele>49.444</ele>
        <time>2019-06-20T15:05:40Z</time>
      </trkpt>
      <trkpt lat="43.551277" lon="-8.305023">
        <ele>48.929</ele>
        <time>2019-06-20T15:05:41Z</time>
      </trkpt>
      <trkpt lat="43.551392" lon="-8.305087">
        <ele>48.300</ele>
        <time>2019-06-20T15:05:42Z</time>
      </trkpt>
      <trkpt lat="43.551510" lon="-8.305133">
        <ele>48.020</ele>
        <time>2019-06-20T15:05:43Z</time>
      </trkpt>
      <trkpt lat="43.551629" lon="-8.305168">
        <ele>47.708</ele>
        <time>2019-06-20T15:05:44Z</time>
      </trkpt>
      <trkpt lat="43.551771" lon="-8.305178">
        <ele>47.645</ele>
        <time>2019-06-20T15:05:45Z</time>
      </trkpt>
      <trkpt lat="43.551906" lon="-8.305191">
        <ele>47.759</ele>
        <time>2019-06-20T15:05:46Z</time>
      </trkpt>
      <trkpt lat="43.552027" lon="-8.305204">
        <ele>48.050</ele>
        <time>2019-06-20T15:05:47Z</time>
      </trkpt>
      <trkpt lat="43.552134" lon="-8.305218">
        <ele>48.526</ele>
        <time>2019-06-20T15:05:48Z</time>
      </trkpt>
      <trkpt lat="43.552237" lon="-8.305250">
        <ele>48.993</ele>
        <time>2019-06-20T15:05:49Z</time>
      </trkpt>
      <trkpt lat="43.552346" lon="-8.305308">
        <ele>49.264</ele>
        <time>2019-06-20T15:05:50Z</time>
      </trkpt>
      <trkpt lat="43.552461" lon="-8.305376">
        <ele>49.716</ele>
        <time>2019-06-20T15:05:51Z</time>
      </trkpt>
      <trkpt lat="43.552560" lon="-8.305467">
        <ele>50.413</ele>
        <time>2019-06-20T15:05:52Z</time>
      </trkpt>
      <trkpt lat="43.552664" lon="-8.305529">
        <ele>51.353</ele>
        <time>2019-06-20T15:05:53Z</time>
      </trkpt>
      <trkpt lat="43.552778" lon="-8.305554">
        <ele>52.004</ele>
        <time>2019-06-20T15:05:54Z</time>
      </trkpt>
      <trkpt lat="43.552895" lon="-8.305564">
        <ele>53.014</ele>
        <time>2019-06-20T15:05:55Z</time>
      </trkpt>
      <trkpt lat="43.553028" lon="-8.305554">
        <ele>53.808</ele>
        <time>2019-06-20T15:05:56Z</time>
      </trkpt>
      <trkpt lat="43.553162" lon="-8.305541">
        <ele>54.928</ele>
        <time>2019-06-20T15:05:57Z</time>
      </trkpt>
      <trkpt lat="43.553297" lon="-8.305526">
        <ele>56.122</ele>
        <time>2019-06-20T15:05:58Z</time>
      </trkpt>
      <trkpt lat="43.553414" lon="-8.305494">
        <ele>56.763</ele>
        <time>2019-06-20T15:05:59Z</time>
      </trkpt>
      <trkpt lat="43.553532" lon="-8.305438">
        <ele>56.759</ele>
        <time>2019-06-20T15:06:00Z</time>
      </trkpt>
      <trkpt lat="43.553644" lon="-8.305392">
        <ele>56.686</ele>
        <time>2019-06-20T15:06:01Z</time>
      </trkpt>
      <trkpt lat="43.553758" lon="-8.305349">
        <ele>56.277</ele>
        <time>2019-06-20T15:06:02Z</time>
      </trkpt>
      <trkpt lat="43.553882" lon="-8.305331">
        <ele>56.399</ele>
        <time>2019-06-20T15:06:03Z</time>
      </trkpt>
      <trkpt lat="43.553999" lon="-8.305321">
        <ele>56.826</ele>
        <time>2019-06-20T15:06:04Z</time>
      </trkpt>
      <trkpt lat="43.554114" lon="-8.305326">
        <ele>57.675</ele>
        <time>2019-06-20T15:06:05Z</time>
      </trkpt>
      <trkpt lat="43.554235" lon="-8.305342">
        <ele>58.728</ele>
        <time>2019-06-20T15:06:06Z</time>
      </trkpt>
      <trkpt lat="43.554353" lon="-8.305342">
        <ele>59.720</ele>
        <time>2019-06-20T15:06:07Z</time>
      </trkpt>
      <trkpt lat="43.554462" lon="-8.305315">
        <ele>60.108</ele>
        <time>2019-06-20T15:06:08Z</time>
      </trkpt>
      <trkpt lat="43.554580" lon="-8.305259">
        <ele>60.650</ele>
        <time>2019-06-20T15:06:09Z</time>
      </trkpt>
      <trkpt lat="43.554695" lon="-8.305198">
        <ele>61.134</ele>
        <time>2019-06-20T15:06:10Z</time>
      </trkpt>
      <trkpt lat="43.554809" lon="-8.305117">
        <ele>60.945</ele>
        <time>2019-06-20T15:06:11Z</time>
      </trkpt>
      <trkpt lat="43.554918" lon="-8.305053">
        <ele>60.911</ele>
        <time>2019-06-20T15:06:12Z</time>
      </trkpt>
      <trkpt lat="43.555020" lon="-8.305000">
        <ele>61.128</ele>
        <time>2019-06-20T15:06:13Z</time>
      </trkpt>
      <trkpt lat="43.555129" lon="-8.304957">
        <ele>61.149</ele>
        <time>2019-06-20T15:06:14Z</time>
      </trkpt>
      <trkpt lat="43.555244" lon="-8.304940">
        <ele>61.591</ele>
        <time>2019-06-20T15:06:15Z</time>
      </trkpt>
      <trkpt lat="43.555361" lon="-8.304935">
        <ele>61.488</ele>
        <time>2019-06-20T15:06:16Z</time>
      </trkpt>
      <trkpt lat="43.555484" lon="-8.304921">
        <ele>60.812</ele>
        <time>2019-06-20T15:06:17Z</time>
      </trkpt>
      <trkpt lat="43.555605" lon="-8.304909">
        <ele>60.532</ele>
        <time>2019-06-20T15:06:18Z</time>
      </trkpt>
      <trkpt lat="43.555719" lon="-8.304896">
        <ele>60.705</ele>
        <time>2019-06-20T15:06:19Z</time>
      </trkpt>
      <trkpt lat="43.555826" lon="-8.304882">
        <ele>60.908</ele>
        <time>2019-06-20T15:06:20Z</time>
      </trkpt>
      <trkpt lat="43.555931" lon="-8.304870">
        <ele>61.244</ele>
        <time>2019-06-20T15:06:21Z</time>
      </trkpt>
      <trkpt lat="43.556034" lon="-8.304861">
        <ele>61.648</ele>
        <time>2019-06-20T15:06:22Z</time>
      </trkpt>
      <trkpt lat="43.556129" lon="-8.304848">
        <ele>61.849</ele>
        <time>2019-06-20T15:06:23Z</time>
      </trkpt>
      <trkpt lat="43.556214" lon="-8.304837">
        <ele>61.985</ele>
        <time>2019-06-20T15:06:24Z</time>
      </trkpt>
      <trkpt lat="43.556298" lon="-8.304824">
        <ele>61.962</ele>
        <time>2019-06-20T15:06:25Z</time>
      </trkpt>
      <trkpt lat="43.556380" lon="-8.304818">
        <ele>62.063</ele>
        <time>2019-06-20T15:06:26Z</time>
      </trkpt>
      <trkpt lat="43.556459" lon="-8.304809">
        <ele>61.495</ele>
        <time>2019-06-20T15:06:27Z</time>
      </trkpt>
      <trkpt lat="43.556541" lon="-8.304799">
        <ele>60.632</ele>
        <time>2019-06-20T15:06:28Z</time>
      </trkpt>
      <trkpt lat="43.556629" lon="-8.304800">
        <ele>60.086</ele>
        <time>2019-06-20T15:06:29Z</time>
      </trkpt>
      <trkpt lat="43.556711" lon="-8.304817">
        <ele>59.560</ele>
        <time>2019-06-20T15:06:30Z</time>
      </trkpt>
      <trkpt lat="43.556782" lon="-8.304866">
        <ele>59.626</ele>
        <time>2019-06-20T15:06:31Z</time>
      </trkpt>
      <trkpt lat="43.556855" lon="-8.304935">
        <ele>60.008</ele>
        <time>2019-06-20T15:06:32Z</time>
      </trkpt>
      <trkpt lat="43.556934" lon="-8.305025">
        <ele>60.411</ele>
        <time>2019-06-20T15:06:33Z</time>
      </trkpt>
      <trkpt lat="43.557025" lon="-8.305132">
        <ele>59.035</ele>
        <time>2019-06-20T15:06:34Z</time>
      </trkpt>
      <trkpt lat="43.557118" lon="-8.305244">
        <ele>57.616</ele>
        <time>2019-06-20T15:06:35Z</time>
      </trkpt>
      <trkpt lat="43.557213" lon="-8.305346">
        <ele>56.232</ele>
        <time>2019-06-20T15:06:36Z</time>
      </trkpt>
      <trkpt lat="43.557307" lon="-8.305446">
        <ele>55.429</ele>
        <time>2019-06-20T15:06:37Z</time>
      </trkpt>
      <trkpt lat="43.557402" lon="-8.305539">
        <ele>54.370</ele>
        <time>2019-06-20T15:06:38Z</time>
      </trkpt>
      <trkpt lat="43.557497" lon="-8.305630">
        <ele>53.712</ele>
        <time>2019-06-20T15:06:39Z</time>
      </trkpt>
      <trkpt lat="43.557587" lon="-8.305721">
        <ele>53.479</ele>
        <time>2019-06-20T15:06:40Z</time>
      </trkpt>
      <trkpt lat="43.557677" lon="-8.305807">
        <ele>52.041</ele>
        <time>2019-06-20T15:06:41Z</time>
      </trkpt>
      <trkpt lat="43.557746" lon="-8.305902">
        <ele>50.881</ele>
        <time>2019-06-20T15:06:42Z</time>
      </trkpt>
      <trkpt lat="43.557804" lon="-8.306015">
        <ele>50.509</ele>
        <time>2019-06-20T15:06:43Z</time>
      </trkpt>
      <trkpt lat="43.557833" lon="-8.306131">
        <ele>50.908</ele>
        <time>2019-06-20T15:06:44Z</time>
      </trkpt>
      <trkpt lat="43.557856" lon="-8.306253">
        <ele>50.567</ele>
        <time>2019-06-20T15:06:45Z</time>
      </trkpt>
      <trkpt lat="43.557848" lon="-8.306394">
        <ele>51.061</ele>
        <time>2019-06-20T15:06:46Z</time>
      </trkpt>
      <trkpt lat="43.557850" lon="-8.306546">
        <ele>50.942</ele>
        <time>2019-06-20T15:06:47Z</time>
      </trkpt>
      <trkpt lat="43.557861" lon="-8.306709">
        <ele>50.638</ele>
        <time>2019-06-20T15:06:48Z</time>
      </trkpt>
      <trkpt lat="43.557879" lon="-8.306860">
        <ele>50.115</ele>
        <time>2019-06-20T15:06:49Z</time>
      </trkpt>
      <trkpt lat="43.557902" lon="-8.306992">
        <ele>50.176</ele>
        <time>2019-06-20T15:06:50Z</time>
      </trkpt>
      <trkpt lat="43.557927" lon="-8.307126">
        <ele>50.788</ele>
        <time>2019-06-20T15:06:51Z</time>
      </trkpt>
      <trkpt lat="43.557971" lon="-8.307209">
        <ele>50.815</ele>
        <time>2019-06-20T15:06:52Z</time>
      </trkpt>
      <trkpt lat="43.558017" lon="-8.307301">
        <ele>51.019</ele>
        <time>2019-06-20T15:06:53Z</time>
      </trkpt>
      <trkpt lat="43.558076" lon="-8.307349">
        <ele>50.909</ele>
        <time>2019-06-20T15:06:54Z</time>
      </trkpt>
      <trkpt lat="43.558136" lon="-8.307369">
        <ele>51.219</ele>
        <time>2019-06-20T15:06:55Z</time>
      </trkpt>
      <trkpt lat="43.558217" lon="-8.307353">
        <ele>51.208</ele>
        <time>2019-06-20T15:06:56Z</time>
      </trkpt>
      <trkpt lat="43.558273" lon="-8.307311">
        <ele>50.974</ele>
        <time>2019-06-20T15:06:57Z</time>
      </trkpt>
      <trkpt lat="43.558342" lon="-8.307249">
        <ele>50.428</ele>
        <time>2019-06-20T15:06:58Z</time>
      </trkpt>
      <trkpt lat="43.558410" lon="-8.307161">
        <ele>50.189</ele>
        <time>2019-06-20T15:06:59Z</time>
      </trkpt>
      <trkpt lat="43.558487" lon="-8.307083">
        <ele>49.925</ele>
        <time>2019-06-20T15:07:00Z</time>
      </trkpt>
      <trkpt lat="43.558571" lon="-8.307019">
        <ele>49.772</ele>
        <time>2019-06-20T15:07:01Z</time>
      </trkpt>
      <trkpt lat="43.558654" lon="-8.306937">
        <ele>49.443</ele>
        <time>2019-06-20T15:07:02Z</time>
      </trkpt>
      <trkpt lat="43.558768" lon="-8.306927">
        <ele>50.485</ele>
        <time>2019-06-20T15:07:03Z</time>
      </trkpt>
      <trkpt lat="43.558862" lon="-8.306909">
        <ele>51.222</ele>
        <time>2019-06-20T15:07:04Z</time>
      </trkpt>
      <trkpt lat="43.558960" lon="-8.306911">
        <ele>52.342</ele>
        <time>2019-06-20T15:07:05Z</time>
      </trkpt>
      <trkpt lat="43.559068" lon="-8.306933">
        <ele>53.822</ele>
        <time>2019-06-20T15:07:06Z</time>
      </trkpt>
      <trkpt lat="43.559176" lon="-8.306964">
        <ele>55.114</ele>
        <time>2019-06-20T15:07:07Z</time>
      </trkpt>
      <trkpt lat="43.559292" lon="-8.306994">
        <ele>55.408</ele>
        <time>2019-06-20T15:07:08Z</time>
      </trkpt>
      <trkpt lat="43.559414" lon="-8.307021">
        <ele>55.817</ele>
        <time>2019-06-20T15:07:09Z</time>
      </trkpt>
      <trkpt lat="43.559535" lon="-8.307049">
        <ele>56.581</ele>
        <time>2019-06-20T15:07:10Z</time>
      </trkpt>
      <trkpt lat="43.559655" lon="-8.307074">
        <ele>57.282</ele>
        <time>2019-06-20T15:07:11Z</time>
      </trkpt>
      <trkpt lat="43.559771" lon="-8.307100">
        <ele>57.728</ele>
        <time>2019-06-20T15:07:12Z</time>
      </trkpt>
      <trkpt lat="43.559888" lon="-8.307126">
        <ele>58.055</ele>
        <time>2019-06-20T15:07:13Z</time>
      </trkpt>
      <trkpt lat="43.559998" lon="-8.307155">
        <ele>58.356</ele>
        <time>2019-06-20T15:07:14Z</time>
      </trkpt>
      <trkpt lat="43.560107" lon="-8.307180">
        <ele>58.498</ele>
        <time>2019-06-20T15:07:15Z</time>
      </trkpt>
      <trkpt lat="43.560206" lon="-8.307202">
        <ele>58.725</ele>
        <time>2019-06-20T15:07:16Z</time>
      </trkpt>
      <trkpt lat="43.560310" lon="-8.307228">
        <ele>58.722</ele>
        <time>2019-06-20T15:07:17Z</time>
      </trkpt>
      <trkpt lat="43.560410" lon="-8.307250">
        <ele>58.062</ele>
        <time>2019-06-20T15:07:18Z</time>
      </trkpt>
      <trkpt lat="43.560507" lon="-8.307269">
        <ele>57.308</ele>
        <time>2019-06-20T15:07:19Z</time>
      </trkpt>
      <trkpt lat="43.560607" lon="-8.307294">
        <ele>57.008</ele>
        <time>2019-06-20T15:07:20Z</time>
      </trkpt>
      <trkpt lat="43.560706" lon="-8.307328">
        <ele>57.095</ele>
        <time>2019-06-20T15:07:21Z</time>
      </trkpt>
      <trkpt lat="43.560817" lon="-8.307368">
        <ele>56.779</ele>
        <time>2019-06-20T15:07:22Z</time>
      </trkpt>
      <trkpt lat="43.560928" lon="-8.307424">
        <ele>55.760</ele>
        <time>2019-06-20T15:07:23Z</time>
      </trkpt>
      <trkpt lat="43.561036" lon="-8.307489">
        <ele>54.966</ele>
        <time>2019-06-20T15:07:24Z</time>
      </trkpt>
      <trkpt lat="43.561136" lon="-8.307563">
        <ele>54.423</ele>
        <time>2019-06-20T15:07:25Z</time>
      </trkpt>
      <trkpt lat="43.561233" lon="-8.307636">
        <ele>53.594</ele>
        <time>2019-06-20T15:07:26Z</time>
      </trkpt>
      <trkpt lat="43.561328" lon="-8.307711">
        <ele>52.936</ele>
        <time>2019-06-20T15:07:27Z</time>
      </trkpt>
      <trkpt lat="43.561421" lon="-8.307779">
        <ele>52.693</ele>
        <time>2019-06-20T15:07:28Z</time>
      </trkpt>
      <trkpt lat="43.561503" lon="-8.307851">
        <ele>52.128</ele>
        <time>2019-06-20T15:07:29Z</time>
      </trkpt>
      <trkpt lat="43.561582" lon="-8.307929">
        <ele>51.989</ele>
        <time>2019-06-20T15:07:30Z</time>
      </trkpt>
      <trkpt lat="43.561644" lon="-8.308018">
        <ele>51.917</ele>
        <time>2019-06-20T15:07:31Z</time>
      </trkpt>
      <trkpt lat="43.561701" lon="-8.308117">
        <ele>52.008</ele>
        <time>2019-06-20T15:07:32Z</time>
      </trkpt>
      <trkpt lat="43.561738" lon="-8.308223">
        <ele>52.355</ele>
        <time>2019-06-20T15:07:33Z</time>
      </trkpt>
      <trkpt lat="43.561755" lon="-8.308329">
        <ele>53.089</ele>
        <time>2019-06-20T15:07:34Z</time>
      </trkpt>
      <trkpt lat="43.561753" lon="-8.308452">
        <ele>54.370</ele>
        <time>2019-06-20T15:07:35Z</time>
      </trkpt>
      <trkpt lat="43.561735" lon="-8.308581">
        <ele>55.936</ele>
        <time>2019-06-20T15:07:36Z</time>
      </trkpt>
      <trkpt lat="43.561714" lon="-8.308713">
        <ele>58.013</ele>
        <time>2019-06-20T15:07:37Z</time>
      </trkpt>
      <trkpt lat="43.561709" lon="-8.308841">
        <ele>59.954</ele>
        <time>2019-06-20T15:07:38Z</time>
      </trkpt>
      <trkpt lat="43.561707" lon="-8.308976">
        <ele>61.136</ele>
        <time>2019-06-20T15:07:39Z</time>
      </trkpt>
      <trkpt lat="43.561715" lon="-8.309112">
        <ele>61.933</ele>
        <time>2019-06-20T15:07:40Z</time>
      </trkpt>
      <trkpt lat="43.561748" lon="-8.309255">
        <ele>61.987</ele>
        <time>2019-06-20T15:07:41Z</time>
      </trkpt>
      <trkpt lat="43.561805" lon="-8.309377">
        <ele>61.442</ele>
        <time>2019-06-20T15:07:42Z</time>
      </trkpt>
      <trkpt lat="43.561890" lon="-8.309468">
        <ele>60.526</ele>
        <time>2019-06-20T15:07:43Z</time>
      </trkpt>
      <trkpt lat="43.561950" lon="-8.309578">
        <ele>59.408</ele>
        <time>2019-06-20T15:07:44Z</time>
      </trkpt>
      <trkpt lat="43.562002" lon="-8.309701">
        <ele>58.271</ele>
        <time>2019-06-20T15:07:45Z</time>
      </trkpt>
      <trkpt lat="43.562032" lon="-8.309831">
        <ele>57.725</ele>
        <time>2019-06-20T15:07:46Z</time>
      </trkpt>
      <trkpt lat="43.562057" lon="-8.309936">
        <ele>57.456</ele>
        <time>2019-06-20T15:07:47Z</time>
      </trkpt>
      <trkpt lat="43.562069" lon="-8.310054">
        <ele>57.372</ele>
        <time>2019-06-20T15:07:48Z</time>
      </trkpt>
      <trkpt lat="43.562105" lon="-8.310142">
        <ele>57.029</ele>
        <time>2019-06-20T15:07:49Z</time>
      </trkpt>
      <trkpt lat="43.562127" lon="-8.310229">
        <ele>56.940</ele>
        <time>2019-06-20T15:07:50Z</time>
      </trkpt>
      <trkpt lat="43.562141" lon="-8.310288">
        <ele>56.942</ele>
        <time>2019-06-20T15:07:51Z</time>
      </trkpt>
      <trkpt lat="43.562253" lon="-8.310305">
        <ele>56.069</ele>
        <time>2019-06-20T15:07:53Z</time>
      </trkpt>
      <trkpt lat="43.562356" lon="-8.310286">
        <ele>55.138</ele>
        <time>2019-06-20T15:07:54Z</time>
      </trkpt>
      <trkpt lat="43.562503" lon="-8.310176">
        <ele>53.370</ele>
        <time>2019-06-20T15:07:55Z</time>
      </trkpt>
      <trkpt lat="43.562621" lon="-8.310108">
        <ele>52.917</ele>
        <time>2019-06-20T15:07:56Z</time>
      </trkpt>
      <trkpt lat="43.562735" lon="-8.310025">
        <ele>52.308</ele>
        <time>2019-06-20T15:07:57Z</time>
      </trkpt>
      <trkpt lat="43.562825" lon="-8.309995">
        <ele>51.886</ele>
        <time>2019-06-20T15:07:58Z</time>
      </trkpt>
      <trkpt lat="43.562910" lon="-8.309980">
        <ele>51.340</ele>
        <time>2019-06-20T15:07:59Z</time>
      </trkpt>
      <trkpt lat="43.562989" lon="-8.310002">
        <ele>51.381</ele>
        <time>2019-06-20T15:08:00Z</time>
      </trkpt>
      <trkpt lat="43.563057" lon="-8.310048">
        <ele>51.597</ele>
        <time>2019-06-20T15:08:01Z</time>
      </trkpt>
      <trkpt lat="43.563111" lon="-8.310118">
        <ele>52.224</ele>
        <time>2019-06-20T15:08:02Z</time>
      </trkpt>
      <trkpt lat="43.563120" lon="-8.310253">
        <ele>53.595</ele>
        <time>2019-06-20T15:08:03Z</time>
      </trkpt>
      <trkpt lat="43.563152" lon="-8.310351">
        <ele>54.597</ele>
        <time>2019-06-20T15:08:04Z</time>
      </trkpt>
      <trkpt lat="43.563200" lon="-8.310435">
        <ele>55.534</ele>
        <time>2019-06-20T15:08:05Z</time>
      </trkpt>
      <trkpt lat="43.563301" lon="-8.310498">
        <ele>56.262</ele>
        <time>2019-06-20T15:08:06Z</time>
      </trkpt>
      <trkpt lat="43.563396" lon="-8.310554">
        <ele>57.083</ele>
        <time>2019-06-20T15:08:07Z</time>
      </trkpt>
      <trkpt lat="43.563499" lon="-8.310616">
        <ele>58.311</ele>
        <time>2019-06-20T15:08:08Z</time>
      </trkpt>
      <trkpt lat="43.563597" lon="-8.310672">
        <ele>59.508</ele>
        <time>2019-06-20T15:08:09Z</time>
      </trkpt>
      <trkpt lat="43.563689" lon="-8.310730">
        <ele>60.389</ele>
        <time>2019-06-20T15:08:10Z</time>
      </trkpt>
      <trkpt lat="43.563781" lon="-8.310791">
        <ele>61.013</ele>
        <time>2019-06-20T15:08:11Z</time>
      </trkpt>
      <trkpt lat="43.563871" lon="-8.310883">
        <ele>61.954</ele>
        <time>2019-06-20T15:08:12Z</time>
      </trkpt>
      <trkpt lat="43.563947" lon="-8.310993">
        <ele>62.690</ele>
        <time>2019-06-20T15:08:13Z</time>
      </trkpt>
      <trkpt lat="43.564017" lon="-8.311127">
        <ele>63.427</ele>
        <time>2019-06-20T15:08:14Z</time>
      </trkpt>
      <trkpt lat="43.564078" lon="-8.311272">
        <ele>64.428</ele>
        <time>2019-06-20T15:08:15Z</time>
      </trkpt>
      <trkpt lat="43.564135" lon="-8.311402">
        <ele>65.630</ele>
        <time>2019-06-20T15:08:16Z</time>
      </trkpt>
      <trkpt lat="43.564197" lon="-8.311510">
        <ele>67.297</ele>
        <time>2019-06-20T15:08:17Z</time>
      </trkpt>
      <trkpt lat="43.564262" lon="-8.311583">
        <ele>68.581</ele>
        <time>2019-06-20T15:08:18Z</time>
      </trkpt>
      <trkpt lat="43.564324" lon="-8.311638">
        <ele>69.561</ele>
        <time>2019-06-20T15:08:19Z</time>
      </trkpt>
      <trkpt lat="43.564397" lon="-8.311627">
        <ele>69.317</ele>
        <time>2019-06-20T15:08:20Z</time>
      </trkpt>
      <trkpt lat="43.564469" lon="-8.311626">
        <ele>69.408</ele>
        <time>2019-06-20T15:08:21Z</time>
      </trkpt>
      <trkpt lat="43.564545" lon="-8.311626">
        <ele>69.651</ele>
        <time>2019-06-20T15:08:22Z</time>
      </trkpt>
      <trkpt lat="43.564634" lon="-8.311615">
        <ele>69.845</ele>
        <time>2019-06-20T15:08:23Z</time>
      </trkpt>
      <trkpt lat="43.564743" lon="-8.311611">
        <ele>70.136</ele>
        <time>2019-06-20T15:08:24Z</time>
      </trkpt>
      <trkpt lat="43.564829" lon="-8.311616">
        <ele>70.612</ele>
        <time>2019-06-20T15:08:25Z</time>
      </trkpt>
      <trkpt lat="43.564917" lon="-8.311639">
        <ele>71.359</ele>
        <time>2019-06-20T15:08:26Z</time>
      </trkpt>
      <trkpt lat="43.565005" lon="-8.311678">
        <ele>72.220</ele>
        <time>2019-06-20T15:08:27Z</time>
      </trkpt>
      <trkpt lat="43.565107" lon="-8.311737">
        <ele>73.632</ele>
        <time>2019-06-20T15:08:28Z</time>
      </trkpt>
      <trkpt lat="43.565188" lon="-8.311796">
        <ele>74.619</ele>
        <time>2019-06-20T15:08:29Z</time>
      </trkpt>
      <trkpt lat="43.565274" lon="-8.311860">
        <ele>75.462</ele>
        <time>2019-06-20T15:08:30Z</time>
      </trkpt>
      <trkpt lat="43.565367" lon="-8.311926">
        <ele>76.583</ele>
        <time>2019-06-20T15:08:31Z</time>
      </trkpt>
      <trkpt lat="43.565471" lon="-8.311986">
        <ele>77.811</ele>
        <time>2019-06-20T15:08:32Z</time>
      </trkpt>
      <trkpt lat="43.565566" lon="-8.312039">
        <ele>79.008</ele>
        <time>2019-06-20T15:08:33Z</time>
      </trkpt>
      <trkpt lat="43.565664" lon="-8.312102">
        <ele>79.359</ele>
        <time>2019-06-20T15:08:34Z</time>
      </trkpt>
      <trkpt lat="43.565760" lon="-8.312162">
        <ele>79.683</ele>
        <time>2019-06-20T15:08:35Z</time>
      </trkpt>
      <trkpt lat="43.565852" lon="-8.312228">
        <ele>80.034</ele>
        <time>2019-06-20T15:08:36Z</time>
      </trkpt>
      <trkpt lat="43.565942" lon="-8.312290">
        <ele>80.850</ele>
        <time>2019-06-20T15:08:37Z</time>
      </trkpt>
      <trkpt lat="43.566033" lon="-8.312360">
        <ele>81.827</ele>
        <time>2019-06-20T15:08:38Z</time>
      </trkpt>
      <trkpt lat="43.566111" lon="-8.312443">
        <ele>83.018</ele>
        <time>2019-06-20T15:08:39Z</time>
      </trkpt>
      <trkpt lat="43.566196" lon="-8.312526">
        <ele>82.940</ele>
        <time>2019-06-20T15:08:40Z</time>
      </trkpt>
      <trkpt lat="43.566269" lon="-8.312612">
        <ele>83.287</ele>
        <time>2019-06-20T15:08:41Z</time>
      </trkpt>
      <trkpt lat="43.566350" lon="-8.312699">
        <ele>83.328</ele>
        <time>2019-06-20T15:08:42Z</time>
      </trkpt>
      <trkpt lat="43.566412" lon="-8.312800">
        <ele>83.889</ele>
        <time>2019-06-20T15:08:43Z</time>
      </trkpt>
      <trkpt lat="43.566472" lon="-8.312914">
        <ele>84.517</ele>
        <time>2019-06-20T15:08:44Z</time>
      </trkpt>
      <trkpt lat="43.566524" lon="-8.313031">
        <ele>85.608</ele>
        <time>2019-06-20T15:08:45Z</time>
      </trkpt>
      <trkpt lat="43.566581" lon="-8.313150">
        <ele>86.165</ele>
        <time>2019-06-20T15:08:46Z</time>
      </trkpt>
      <trkpt lat="43.566642" lon="-8.313266">
        <ele>86.569</ele>
        <time>2019-06-20T15:08:47Z</time>
      </trkpt>
      <trkpt lat="43.566717" lon="-8.313373">
        <ele>86.860</ele>
        <time>2019-06-20T15:08:48Z</time>
      </trkpt>
      <trkpt lat="43.566799" lon="-8.313471">
        <ele>87.156</ele>
        <time>2019-06-20T15:08:49Z</time>
      </trkpt>
      <trkpt lat="43.566878" lon="-8.313572">
        <ele>87.463</ele>
        <time>2019-06-20T15:08:50Z</time>
      </trkpt>
      <trkpt lat="43.566953" lon="-8.313652">
        <ele>87.644</ele>
        <time>2019-06-20T15:08:51Z</time>
      </trkpt>
      <trkpt lat="43.567020" lon="-8.313722">
        <ele>88.556</ele>
        <time>2019-06-20T15:08:52Z</time>
      </trkpt>
      <trkpt lat="43.567081" lon="-8.313792">
        <ele>89.323</ele>
        <time>2019-06-20T15:08:53Z</time>
      </trkpt>
      <trkpt lat="43.567136" lon="-8.313860">
        <ele>90.081</ele>
        <time>2019-06-20T15:08:54Z</time>
      </trkpt>
      <trkpt lat="43.567181" lon="-8.313915">
        <ele>90.461</ele>
        <time>2019-06-20T15:08:55Z</time>
      </trkpt>
      <trkpt lat="43.567235" lon="-8.313970">
        <ele>90.917</ele>
        <time>2019-06-20T15:08:56Z</time>
      </trkpt>
      <trkpt lat="43.567283" lon="-8.314033">
        <ele>91.708</ele>
        <time>2019-06-20T15:08:57Z</time>
      </trkpt>
      <trkpt lat="43.567331" lon="-8.314093">
        <ele>92.311</ele>
        <time>2019-06-20T15:08:58Z</time>
      </trkpt>
      <trkpt lat="43.567380" lon="-8.314147">
        <ele>92.825</ele>
        <time>2019-06-20T15:08:59Z</time>
      </trkpt>
      <trkpt lat="43.567426" lon="-8.314199">
        <ele>92.946</ele>
        <time>2019-06-20T15:09:00Z</time>
      </trkpt>
      <trkpt lat="43.567472" lon="-8.314234">
        <ele>92.812</ele>
        <time>2019-06-20T15:09:01Z</time>
      </trkpt>
      <trkpt lat="43.567519" lon="-8.314259">
        <ele>92.419</ele>
        <time>2019-06-20T15:09:03Z</time>
      </trkpt>
      <trkpt lat="43.567556" lon="-8.314321">
        <ele>91.530</ele>
        <time>2019-06-20T15:09:05Z</time>
      </trkpt>
      <trkpt lat="43.567517" lon="-8.314373">
        <ele>92.052</ele>
        <time>2019-06-20T15:09:08Z</time>
      </trkpt>
      <trkpt lat="43.567519" lon="-8.314307">
        <ele>92.229</ele>
        <time>2019-06-20T15:11:25Z</time>
      </trkpt>
      <trkpt lat="43.567526" lon="-8.314368">
        <ele>91.852</ele>
        <time>2019-06-20T15:12:10Z</time>
      </trkpt>
      <trkpt lat="43.567521" lon="-8.314444">
        <ele>91.653</ele>
        <time>2019-06-20T15:12:14Z</time>
      </trkpt>
      <trkpt lat="43.567510" lon="-8.314506">
        <ele>90.908</ele>
        <time>2019-06-20T15:12:17Z</time>
      </trkpt>
      <trkpt lat="43.567502" lon="-8.314574">
        <ele>90.108</ele>
        <time>2019-06-20T15:12:23Z</time>
      </trkpt>
      <trkpt lat="43.567545" lon="-8.314612">
        <ele>88.598</ele>
        <time>2019-06-20T15:12:27Z</time>
      </trkpt>
      <trkpt lat="43.567531" lon="-8.314547">
        <ele>89.862</ele>
        <time>2019-06-20T15:12:38Z</time>
      </trkpt>
      <trkpt lat="43.567533" lon="-8.314481">
        <ele>90.853</ele>
        <time>2019-06-20T15:12:42Z</time>
      </trkpt>
      <trkpt lat="43.567536" lon="-8.314414">
        <ele>91.529</ele>
        <time>2019-06-20T15:12:46Z</time>
      </trkpt>
      <trkpt lat="43.567528" lon="-8.314344">
        <ele>91.936</ele>
        <time>2019-06-20T15:12:50Z</time>
      </trkpt>
      <trkpt lat="43.567487" lon="-8.314316">
        <ele>92.517</ele>
        <time>2019-06-20T15:21:25Z</time>
      </trkpt>
      <trkpt lat="43.567531" lon="-8.314348">
        <ele>91.899</ele>
        <time>2019-06-20T15:23:39Z</time>
      </trkpt>
      <trkpt lat="43.567501" lon="-8.314297">
        <ele>92.526</ele>
        <time>2019-06-20T15:27:10Z</time>
      </trkpt>
      <trkpt lat="43.567440" lon="-8.314182">
        <ele>93.024</ele>
        <time>2019-06-20T15:27:12Z</time>
      </trkpt>
      <trkpt lat="43.567392" lon="-8.314111">
        <ele>92.504</ele>
        <time>2019-06-20T15:27:13Z</time>
      </trkpt>
      <trkpt lat="43.567338" lon="-8.314033">
        <ele>91.814</ele>
        <time>2019-06-20T15:27:14Z</time>
      </trkpt>
      <trkpt lat="43.567277" lon="-8.313943">
        <ele>90.708</ele>
        <time>2019-06-20T15:27:15Z</time>
      </trkpt>
      <trkpt lat="43.567211" lon="-8.313847">
        <ele>89.655</ele>
        <time>2019-06-20T15:27:16Z</time>
      </trkpt>
      <trkpt lat="43.567147" lon="-8.313746">
        <ele>88.639</ele>
        <time>2019-06-20T15:27:17Z</time>
      </trkpt>
      <trkpt lat="43.567086" lon="-8.313648">
        <ele>87.510</ele>
        <time>2019-06-20T15:27:18Z</time>
      </trkpt>
      <trkpt lat="43.566944" lon="-8.313504">
        <ele>85.516</ele>
        <time>2019-06-20T15:27:19Z</time>
      </trkpt>
      <trkpt lat="43.566877" lon="-8.313440">
        <ele>85.533</ele>
        <time>2019-06-20T15:27:20Z</time>
      </trkpt>
      <trkpt lat="43.566817" lon="-8.313367">
        <ele>85.314</ele>
        <time>2019-06-20T15:27:21Z</time>
      </trkpt>
      <trkpt lat="43.566771" lon="-8.313290">
        <ele>84.936</ele>
        <time>2019-06-20T15:27:22Z</time>
      </trkpt>
      <trkpt lat="43.566709" lon="-8.313229">
        <ele>84.923</ele>
        <time>2019-06-20T15:27:23Z</time>
      </trkpt>
      <trkpt lat="43.566703" lon="-8.313120">
        <ele>83.526</ele>
        <time>2019-06-20T15:27:24Z</time>
      </trkpt>
      <trkpt lat="43.566646" lon="-8.313027">
        <ele>82.847</ele>
        <time>2019-06-20T15:27:25Z</time>
      </trkpt>
      <trkpt lat="43.566617" lon="-8.312915">
        <ele>81.111</ele>
        <time>2019-06-20T15:27:26Z</time>
      </trkpt>
      <trkpt lat="43.566564" lon="-8.312823">
        <ele>80.508</ele>
        <time>2019-06-20T15:27:27Z</time>
      </trkpt>
      <trkpt lat="43.566477" lon="-8.312709">
        <ele>80.685</ele>
        <time>2019-06-20T15:27:28Z</time>
      </trkpt>
      <trkpt lat="43.566389" lon="-8.312632">
        <ele>81.449</ele>
        <time>2019-06-20T15:27:29Z</time>
      </trkpt>
      <trkpt lat="43.566313" lon="-8.312540">
        <ele>81.120</ele>
        <time>2019-06-20T15:27:30Z</time>
      </trkpt>
      <trkpt lat="43.566276" lon="-8.312430">
        <ele>79.926</ele>
        <time>2019-06-20T15:27:31Z</time>
      </trkpt>
      <trkpt lat="43.566214" lon="-8.312353">
        <ele>79.773</ele>
        <time>2019-06-20T15:27:32Z</time>
      </trkpt>
      <trkpt lat="43.566186" lon="-8.312259">
        <ele>78.554</ele>
        <time>2019-06-20T15:27:33Z</time>
      </trkpt>
      <trkpt lat="43.566135" lon="-8.312183">
        <ele>77.976</ele>
        <time>2019-06-20T15:27:34Z</time>
      </trkpt>
      <trkpt lat="43.566076" lon="-8.312097">
        <ele>77.033</ele>
        <time>2019-06-20T15:27:35Z</time>
      </trkpt>
      <trkpt lat="43.566008" lon="-8.312019">
        <ele>76.317</ele>
        <time>2019-06-20T15:27:36Z</time>
      </trkpt>
      <trkpt lat="43.565902" lon="-8.311975">
        <ele>76.687</ele>
        <time>2019-06-20T15:27:37Z</time>
      </trkpt>
      <trkpt lat="43.565801" lon="-8.311948">
        <ele>77.215</ele>
        <time>2019-06-20T15:27:38Z</time>
      </trkpt>
      <trkpt lat="43.565710" lon="-8.311908">
        <ele>77.008</ele>
        <time>2019-06-20T15:27:39Z</time>
      </trkpt>
      <trkpt lat="43.565639" lon="-8.311840">
        <ele>76.574</ele>
        <time>2019-06-20T15:27:40Z</time>
      </trkpt>
      <trkpt lat="43.565564" lon="-8.311783">
        <ele>76.228</ele>
        <time>2019-06-20T15:27:41Z</time>
      </trkpt>
      <trkpt lat="43.565474" lon="-8.311738">
        <ele>75.499</ele>
        <time>2019-06-20T15:27:42Z</time>
      </trkpt>
      <trkpt lat="43.565387" lon="-8.311678">
        <ele>74.535</ele>
        <time>2019-06-20T15:27:43Z</time>
      </trkpt>
      <trkpt lat="43.565281" lon="-8.311614">
        <ele>73.482</ele>
        <time>2019-06-20T15:27:44Z</time>
      </trkpt>
      <trkpt lat="43.565213" lon="-8.311527">
        <ele>72.023</ele>
        <time>2019-06-20T15:27:45Z</time>
      </trkpt>
      <trkpt lat="43.565137" lon="-8.311482">
        <ele>71.095</ele>
        <time>2019-06-20T15:27:46Z</time>
      </trkpt>
      <trkpt lat="43.565014" lon="-8.311468">
        <ele>70.032</ele>
        <time>2019-06-20T15:27:47Z</time>
      </trkpt>
      <trkpt lat="43.564918" lon="-8.311492">
        <ele>69.464</ele>
        <time>2019-06-20T15:27:48Z</time>
      </trkpt>
      <trkpt lat="43.564785" lon="-8.311510">
        <ele>68.706</ele>
        <time>2019-06-20T15:27:49Z</time>
      </trkpt>
      <trkpt lat="43.564700" lon="-8.311466">
        <ele>67.316</ele>
        <time>2019-06-20T15:27:50Z</time>
      </trkpt>
      <trkpt lat="43.564619" lon="-8.311464">
        <ele>67.008</ele>
        <time>2019-06-20T15:27:51Z</time>
      </trkpt>
      <trkpt lat="43.564535" lon="-8.311476">
        <ele>66.979</ele>
        <time>2019-06-20T15:27:52Z</time>
      </trkpt>
      <trkpt lat="43.564450" lon="-8.311471">
        <ele>66.513</ele>
        <time>2019-06-20T15:27:53Z</time>
      </trkpt>
      <trkpt lat="43.564347" lon="-8.311443">
        <ele>66.074</ele>
        <time>2019-06-20T15:27:54Z</time>
      </trkpt>
      <trkpt lat="43.564277" lon="-8.311394">
        <ele>65.130</ele>
        <time>2019-06-20T15:27:55Z</time>
      </trkpt>
      <trkpt lat="43.564226" lon="-8.311361">
        <ele>64.637</ele>
        <time>2019-06-20T15:27:56Z</time>
      </trkpt>
      <trkpt lat="43.564208" lon="-8.311270">
        <ele>63.218</ele>
        <time>2019-06-20T15:27:57Z</time>
      </trkpt>
      <trkpt lat="43.564194" lon="-8.311202">
        <ele>62.210</ele>
        <time>2019-06-20T15:27:58Z</time>
      </trkpt>
      <trkpt lat="43.564140" lon="-8.311118">
        <ele>61.547</ele>
        <time>2019-06-20T15:27:59Z</time>
      </trkpt>
      <trkpt lat="43.564097" lon="-8.311069">
        <ele>61.668</ele>
        <time>2019-06-20T15:28:00Z</time>
      </trkpt>
      <trkpt lat="43.564045" lon="-8.310981">
        <ele>61.442</ele>
        <time>2019-06-20T15:28:01Z</time>
      </trkpt>
      <trkpt lat="43.564000" lon="-8.310932">
        <ele>61.326</ele>
        <time>2019-06-20T15:28:02Z</time>
      </trkpt>
      <trkpt lat="43.563950" lon="-8.310837">
        <ele>60.608</ele>
        <time>2019-06-20T15:28:03Z</time>
      </trkpt>
      <trkpt lat="43.563879" lon="-8.310763">
        <ele>59.889</ele>
        <time>2019-06-20T15:28:04Z</time>
      </trkpt>
      <trkpt lat="43.563767" lon="-8.310712">
        <ele>59.533</ele>
        <time>2019-06-20T15:28:05Z</time>
      </trkpt>
      <trkpt lat="43.563684" lon="-8.310673">
        <ele>59.224</ele>
        <time>2019-06-20T15:28:06Z</time>
      </trkpt>
      <trkpt lat="43.563596" lon="-8.310638">
        <ele>58.860</ele>
        <time>2019-06-20T15:28:07Z</time>
      </trkpt>
      <trkpt lat="43.563515" lon="-8.310553">
        <ele>57.087</ele>
        <time>2019-06-20T15:28:08Z</time>
      </trkpt>
      <trkpt lat="43.563408" lon="-8.310466">
        <ele>55.718</ele>
        <time>2019-06-20T15:28:09Z</time>
      </trkpt>
      <trkpt lat="43.563337" lon="-8.310391">
        <ele>54.660</ele>
        <time>2019-06-20T15:28:10Z</time>
      </trkpt>
      <trkpt lat="43.563310" lon="-8.310293">
        <ele>53.317</ele>
        <time>2019-06-20T15:28:11Z</time>
      </trkpt>
      <trkpt lat="43.563270" lon="-8.310165">
        <ele>52.394</ele>
        <time>2019-06-20T15:28:12Z</time>
      </trkpt>
      <trkpt lat="43.563233" lon="-8.310073">
        <ele>51.657</ele>
        <time>2019-06-20T15:28:13Z</time>
      </trkpt>
      <trkpt lat="43.563168" lon="-8.309984">
        <ele>50.822</ele>
        <time>2019-06-20T15:28:14Z</time>
      </trkpt>
      <trkpt lat="43.563121" lon="-8.309942">
        <ele>50.508</ele>
        <time>2019-06-20T15:28:15Z</time>
      </trkpt>
      <trkpt lat="43.563054" lon="-8.309913">
        <ele>50.432</ele>
        <time>2019-06-20T15:28:16Z</time>
      </trkpt>
      <trkpt lat="43.562979" lon="-8.309882">
        <ele>50.376</ele>
        <time>2019-06-20T15:28:17Z</time>
      </trkpt>
      <trkpt lat="43.562922" lon="-8.309908">
        <ele>50.757</ele>
        <time>2019-06-20T15:28:18Z</time>
      </trkpt>
      <trkpt lat="43.562858" lon="-8.309936">
        <ele>51.193</ele>
        <time>2019-06-20T15:28:19Z</time>
      </trkpt>
      <trkpt lat="43.562773" lon="-8.309977">
        <ele>51.860</ele>
        <time>2019-06-20T15:28:20Z</time>
      </trkpt>
      <trkpt lat="43.562692" lon="-8.310008">
        <ele>52.141</ele>
        <time>2019-06-20T15:28:21Z</time>
      </trkpt>
      <trkpt lat="43.562623" lon="-8.310027">
        <ele>52.213</ele>
        <time>2019-06-20T15:28:22Z</time>
      </trkpt>
      <trkpt lat="43.562541" lon="-8.310037">
        <ele>52.370</ele>
        <time>2019-06-20T15:28:23Z</time>
      </trkpt>
      <trkpt lat="43.562465" lon="-8.310073">
        <ele>52.941</ele>
        <time>2019-06-20T15:28:24Z</time>
      </trkpt>
      <trkpt lat="43.562404" lon="-8.310133">
        <ele>53.881</ele>
        <time>2019-06-20T15:28:25Z</time>
      </trkpt>
      <trkpt lat="43.562344" lon="-8.310144">
        <ele>54.409</ele>
        <time>2019-06-20T15:28:26Z</time>
      </trkpt>
      <trkpt lat="43.562278" lon="-8.310142">
        <ele>55.008</ele>
        <time>2019-06-20T15:28:27Z</time>
      </trkpt>
      <trkpt lat="43.562214" lon="-8.310120">
        <ele>55.527</ele>
        <time>2019-06-20T15:28:28Z</time>
      </trkpt>
      <trkpt lat="43.562141" lon="-8.310117">
        <ele>56.591</ele>
        <time>2019-06-20T15:28:29Z</time>
      </trkpt>
      <trkpt lat="43.562111" lon="-8.310058">
        <ele>56.792</ele>
        <time>2019-06-20T15:28:30Z</time>
      </trkpt>
      <trkpt lat="43.562109" lon="-8.309947">
        <ele>56.678</ele>
        <time>2019-06-20T15:28:31Z</time>
      </trkpt>
      <trkpt lat="43.562079" lon="-8.309858">
        <ele>57.165</ele>
        <time>2019-06-20T15:28:32Z</time>
      </trkpt>
      <trkpt lat="43.562054" lon="-8.309744">
        <ele>57.416</ele>
        <time>2019-06-20T15:28:33Z</time>
      </trkpt>
      <trkpt lat="43.562020" lon="-8.309647">
        <ele>58.178</ele>
        <time>2019-06-20T15:28:34Z</time>
      </trkpt>
      <trkpt lat="43.561991" lon="-8.309517">
        <ele>58.945</ele>
        <time>2019-06-20T15:28:35Z</time>
      </trkpt>
      <trkpt lat="43.561956" lon="-8.309430">
        <ele>59.794</ele>
        <time>2019-06-20T15:28:36Z</time>
      </trkpt>
      <trkpt lat="43.561925" lon="-8.309344">
        <ele>59.957</ele>
        <time>2019-06-20T15:28:37Z</time>
      </trkpt>
      <trkpt lat="43.561858" lon="-8.309223">
        <ele>60.422</ele>
        <time>2019-06-20T15:28:38Z</time>
      </trkpt>
      <trkpt lat="43.561806" lon="-8.309133">
        <ele>60.808</ele>
        <time>2019-06-20T15:28:39Z</time>
      </trkpt>
      <trkpt lat="43.561761" lon="-8.309034">
        <ele>60.862</ele>
        <time>2019-06-20T15:28:40Z</time>
      </trkpt>
      <trkpt lat="43.561746" lon="-8.308896">
        <ele>60.216</ele>
        <time>2019-06-20T15:28:41Z</time>
      </trkpt>
      <trkpt lat="43.561752" lon="-8.308758">
        <ele>58.227</ele>
        <time>2019-06-20T15:28:42Z</time>
      </trkpt>
      <trkpt lat="43.561762" lon="-8.308635">
        <ele>56.353</ele>
        <time>2019-06-20T15:28:43Z</time>
      </trkpt>
      <trkpt lat="43.561804" lon="-8.308512">
        <ele>54.470</ele>
        <time>2019-06-20T15:28:44Z</time>
      </trkpt>
      <trkpt lat="43.561812" lon="-8.308407">
        <ele>53.221</ele>
        <time>2019-06-20T15:28:45Z</time>
      </trkpt>
      <trkpt lat="43.561784" lon="-8.308325">
        <ele>52.773</ele>
        <time>2019-06-20T15:28:46Z</time>
      </trkpt>
      <trkpt lat="43.561767" lon="-8.308219">
        <ele>51.950</ele>
        <time>2019-06-20T15:28:47Z</time>
      </trkpt>
      <trkpt lat="43.561751" lon="-8.308086">
        <ele>51.097</ele>
        <time>2019-06-20T15:28:48Z</time>
      </trkpt>
      <trkpt lat="43.561714" lon="-8.307968">
        <ele>50.423</ele>
        <time>2019-06-20T15:28:49Z</time>
      </trkpt>
      <trkpt lat="43.561652" lon="-8.307874">
        <ele>50.225</ele>
        <time>2019-06-20T15:28:50Z</time>
      </trkpt>
      <trkpt lat="43.561546" lon="-8.307826">
        <ele>51.308</ele>
        <time>2019-06-20T15:28:51Z</time>
      </trkpt>
      <trkpt lat="43.561468" lon="-8.307753">
        <ele>51.472</ele>
        <time>2019-06-20T15:28:52Z</time>
      </trkpt>
      <trkpt lat="43.561359" lon="-8.307673">
        <ele>51.716</ele>
        <time>2019-06-20T15:28:53Z</time>
      </trkpt>
      <trkpt lat="43.561260" lon="-8.307614">
        <ele>52.617</ele>
        <time>2019-06-20T15:28:54Z</time>
      </trkpt>
      <trkpt lat="43.561165" lon="-8.307518">
        <ele>53.143</ele>
        <time>2019-06-20T15:28:55Z</time>
      </trkpt>
      <trkpt lat="43.561055" lon="-8.307437">
        <ele>53.910</ele>
        <time>2019-06-20T15:28:56Z</time>
      </trkpt>
      <trkpt lat="43.560987" lon="-8.307340">
        <ele>53.761</ele>
        <time>2019-06-20T15:28:57Z</time>
      </trkpt>
      <trkpt lat="43.560916" lon="-8.307243">
        <ele>53.813</ele>
        <time>2019-06-20T15:28:58Z</time>
      </trkpt>
      <trkpt lat="43.560772" lon="-8.307236">
        <ele>55.490</ele>
        <time>2019-06-20T15:28:59Z</time>
      </trkpt>
      <trkpt lat="43.560615" lon="-8.307244">
        <ele>56.148</ele>
        <time>2019-06-20T15:29:00Z</time>
      </trkpt>
      <trkpt lat="43.560473" lon="-8.307211">
        <ele>56.761</ele>
        <time>2019-06-20T15:29:01Z</time>
      </trkpt>
      <trkpt lat="43.560343" lon="-8.307183">
        <ele>57.617</ele>
        <time>2019-06-20T15:29:02Z</time>
      </trkpt>
      <trkpt lat="43.560205" lon="-8.307170">
        <ele>58.208</ele>
        <time>2019-06-20T15:29:03Z</time>
      </trkpt>
      <trkpt lat="43.560088" lon="-8.307170">
        <ele>58.357</ele>
        <time>2019-06-20T15:29:04Z</time>
      </trkpt>
      <trkpt lat="43.559972" lon="-8.307143">
        <ele>58.151</ele>
        <time>2019-06-20T15:29:05Z</time>
      </trkpt>
      <trkpt lat="43.559851" lon="-8.307110">
        <ele>57.872</ele>
        <time>2019-06-20T15:29:06Z</time>
      </trkpt>
      <trkpt lat="43.559749" lon="-8.307084">
        <ele>57.518</ele>
        <time>2019-06-20T15:29:07Z</time>
      </trkpt>
      <trkpt lat="43.559643" lon="-8.307063">
        <ele>57.095</ele>
        <time>2019-06-20T15:29:08Z</time>
      </trkpt>
      <trkpt lat="43.559519" lon="-8.307058">
        <ele>56.556</ele>
        <time>2019-06-20T15:29:09Z</time>
      </trkpt>
      <trkpt lat="43.559402" lon="-8.307036">
        <ele>55.998</ele>
        <time>2019-06-20T15:29:10Z</time>
      </trkpt>
      <trkpt lat="43.559320" lon="-8.307001">
        <ele>55.535</ele>
        <time>2019-06-20T15:29:11Z</time>
      </trkpt>
      <trkpt lat="43.559229" lon="-8.306966">
        <ele>55.239</ele>
        <time>2019-06-20T15:29:12Z</time>
      </trkpt>
      <trkpt lat="43.559152" lon="-8.306962">
        <ele>55.001</ele>
        <time>2019-06-20T15:29:13Z</time>
      </trkpt>
      <trkpt lat="43.559063" lon="-8.306935">
        <ele>53.721</ele>
        <time>2019-06-20T15:29:14Z</time>
      </trkpt>
      <trkpt lat="43.558994" lon="-8.306918">
        <ele>52.808</ele>
        <time>2019-06-20T15:29:15Z</time>
      </trkpt>
      <trkpt lat="43.558883" lon="-8.306878">
        <ele>51.096</ele>
        <time>2019-06-20T15:29:16Z</time>
      </trkpt>
      <trkpt lat="43.558793" lon="-8.306913">
        <ele>50.580</ele>
        <time>2019-06-20T15:29:17Z</time>
      </trkpt>
      <trkpt lat="43.558703" lon="-8.306927">
        <ele>49.741</ele>
        <time>2019-06-20T15:29:18Z</time>
      </trkpt>
      <trkpt lat="43.558633" lon="-8.306956">
        <ele>49.477</ele>
        <time>2019-06-20T15:29:19Z</time>
      </trkpt>
      <trkpt lat="43.558567" lon="-8.307010">
        <ele>49.654</ele>
        <time>2019-06-20T15:29:20Z</time>
      </trkpt>
      <trkpt lat="43.558503" lon="-8.307071">
        <ele>49.955</ele>
        <time>2019-06-20T15:29:21Z</time>
      </trkpt>
      <trkpt lat="43.558411" lon="-8.307170">
        <ele>50.257</ele>
        <time>2019-06-20T15:29:23Z</time>
      </trkpt>
      <trkpt lat="43.558337" lon="-8.307227">
        <ele>50.144</ele>
        <time>2019-06-20T15:29:24Z</time>
      </trkpt>
      <trkpt lat="43.558287" lon="-8.307251">
        <ele>50.393</ele>
        <time>2019-06-20T15:29:25Z</time>
      </trkpt>
      <trkpt lat="43.558211" lon="-8.307267">
        <ele>50.465</ele>
        <time>2019-06-20T15:29:26Z</time>
      </trkpt>
      <trkpt lat="43.558149" lon="-8.307233">
        <ele>50.121</ele>
        <time>2019-06-20T15:29:27Z</time>
      </trkpt>
      <trkpt lat="43.558086" lon="-8.307182">
        <ele>49.608</ele>
        <time>2019-06-20T15:29:28Z</time>
      </trkpt>
      <trkpt lat="43.558035" lon="-8.307081">
        <ele>48.872</ele>
        <time>2019-06-20T15:29:29Z</time>
      </trkpt>
      <trkpt lat="43.557984" lon="-8.306992">
        <ele>48.786</ele>
        <time>2019-06-20T15:29:30Z</time>
      </trkpt>
      <trkpt lat="43.557922" lon="-8.306898">
        <ele>49.317</ele>
        <time>2019-06-20T15:29:31Z</time>
      </trkpt>
      <trkpt lat="43.557880" lon="-8.306784">
        <ele>50.143</ele>
        <time>2019-06-20T15:29:32Z</time>
      </trkpt>
      <trkpt lat="43.557882" lon="-8.306629">
        <ele>50.090</ele>
        <time>2019-06-20T15:29:33Z</time>
      </trkpt>
      <trkpt lat="43.557856" lon="-8.306507">
        <ele>50.721</ele>
        <time>2019-06-20T15:29:34Z</time>
      </trkpt>
      <trkpt lat="43.557846" lon="-8.306375">
        <ele>51.013</ele>
        <time>2019-06-20T15:29:35Z</time>
      </trkpt>
      <trkpt lat="43.557836" lon="-8.306231">
        <ele>51.020</ele>
        <time>2019-06-20T15:29:36Z</time>
      </trkpt>
      <trkpt lat="43.557812" lon="-8.306107">
        <ele>51.297</ele>
        <time>2019-06-20T15:29:37Z</time>
      </trkpt>
      <trkpt lat="43.557781" lon="-8.306030">
        <ele>51.123</ele>
        <time>2019-06-20T15:29:38Z</time>
      </trkpt>
      <trkpt lat="43.557749" lon="-8.305941">
        <ele>51.125</ele>
        <time>2019-06-20T15:29:39Z</time>
      </trkpt>
      <trkpt lat="43.557706" lon="-8.305858">
        <ele>51.608</ele>
        <time>2019-06-20T15:29:40Z</time>
      </trkpt>
      <trkpt lat="43.557661" lon="-8.305766">
        <ele>52.022</ele>
        <time>2019-06-20T15:29:41Z</time>
      </trkpt>
      <trkpt lat="43.557603" lon="-8.305672">
        <ele>52.336</ele>
        <time>2019-06-20T15:29:42Z</time>
      </trkpt>
      <trkpt lat="43.557504" lon="-8.305614">
        <ele>53.287</ele>
        <time>2019-06-20T15:29:43Z</time>
      </trkpt>
      <trkpt lat="43.557435" lon="-8.305536">
        <ele>53.423</ele>
        <time>2019-06-20T15:29:44Z</time>
      </trkpt>
      <trkpt lat="43.557365" lon="-8.305465">
        <ele>54.320</ele>
        <time>2019-06-20T15:29:45Z</time>
      </trkpt>
      <trkpt lat="43.557284" lon="-8.305378">
        <ele>55.071</ele>
        <time>2019-06-20T15:29:46Z</time>
      </trkpt>
      <trkpt lat="43.557203" lon="-8.305310">
        <ele>56.083</ele>
        <time>2019-06-20T15:29:47Z</time>
      </trkpt>
      <trkpt lat="43.557139" lon="-8.305244">
        <ele>56.950</ele>
        <time>2019-06-20T15:29:48Z</time>
      </trkpt>
      <trkpt lat="43.557070" lon="-8.305168">
        <ele>58.066</ele>
        <time>2019-06-20T15:29:49Z</time>
      </trkpt>
      <trkpt lat="43.556997" lon="-8.305112">
        <ele>59.629</ele>
        <time>2019-06-20T15:29:50Z</time>
      </trkpt>
      <trkpt lat="43.556956" lon="-8.304996">
        <ele>59.621</ele>
        <time>2019-06-20T15:29:51Z</time>
      </trkpt>
      <trkpt lat="43.556926" lon="-8.304901">
        <ele>58.508</ele>
        <time>2019-06-20T15:29:52Z</time>
      </trkpt>
      <trkpt lat="43.556872" lon="-8.304843">
        <ele>58.199</ele>
        <time>2019-06-20T15:29:53Z</time>
      </trkpt>
      <trkpt lat="43.556832" lon="-8.304757">
        <ele>56.913</ele>
        <time>2019-06-20T15:29:54Z</time>
      </trkpt>
      <trkpt lat="43.556791" lon="-8.304711">
        <ele>56.464</ele>
        <time>2019-06-20T15:29:55Z</time>
      </trkpt>
      <trkpt lat="43.556737" lon="-8.304646">
        <ele>55.560</ele>
        <time>2019-06-20T15:29:56Z</time>
      </trkpt>
      <trkpt lat="43.556686" lon="-8.304686">
        <ele>56.967</ele>
        <time>2019-06-20T15:29:57Z</time>
      </trkpt>
      <trkpt lat="43.556723" lon="-8.304623">
        <ele>55.178</ele>
        <time>2019-06-20T15:29:58Z</time>
      </trkpt>
      <trkpt lat="43.556593" lon="-8.304726">
        <ele>58.610</ele>
        <time>2019-06-20T15:30:00Z</time>
      </trkpt>
      <trkpt lat="43.556442" lon="-8.304781">
        <ele>60.937</ele>
        <time>2019-06-20T15:30:01Z</time>
      </trkpt>
      <trkpt lat="43.556334" lon="-8.304814">
        <ele>61.891</ele>
        <time>2019-06-20T15:30:02Z</time>
      </trkpt>
      <trkpt lat="43.556185" lon="-8.304834">
        <ele>61.781</ele>
        <time>2019-06-20T15:30:03Z</time>
      </trkpt>
      <trkpt lat="43.556049" lon="-8.304859">
        <ele>61.619</ele>
        <time>2019-06-20T15:30:04Z</time>
      </trkpt>
      <trkpt lat="43.555940" lon="-8.304845">
        <ele>60.808</ele>
        <time>2019-06-20T15:30:05Z</time>
      </trkpt>
      <trkpt lat="43.555808" lon="-8.304876">
        <ele>60.782</ele>
        <time>2019-06-20T15:30:06Z</time>
      </trkpt>
      <trkpt lat="43.555667" lon="-8.304890">
        <ele>60.416</ele>
        <time>2019-06-20T15:30:07Z</time>
      </trkpt>
      <trkpt lat="43.555526" lon="-8.304902">
        <ele>60.397</ele>
        <time>2019-06-20T15:30:08Z</time>
      </trkpt>
      <trkpt lat="43.555388" lon="-8.304922">
        <ele>61.063</ele>
        <time>2019-06-20T15:30:09Z</time>
      </trkpt>
      <trkpt lat="43.555247" lon="-8.304933">
        <ele>61.430</ele>
        <time>2019-06-20T15:30:10Z</time>
      </trkpt>
      <trkpt lat="43.555155" lon="-8.304951">
        <ele>61.151</ele>
        <time>2019-06-20T15:30:11Z</time>
      </trkpt>
      <trkpt lat="43.555063" lon="-8.304950">
        <ele>60.563</ele>
        <time>2019-06-20T15:30:12Z</time>
      </trkpt>
      <trkpt lat="43.554984" lon="-8.304970">
        <ele>60.360</ele>
        <time>2019-06-20T15:30:13Z</time>
      </trkpt>
      <trkpt lat="43.554896" lon="-8.305032">
        <ele>60.433</ele>
        <time>2019-06-20T15:30:14Z</time>
      </trkpt>
      <trkpt lat="43.554813" lon="-8.305095">
        <ele>60.623</ele>
        <time>2019-06-20T15:30:15Z</time>
      </trkpt>
      <trkpt lat="43.554716" lon="-8.305167">
        <ele>60.915</ele>
        <time>2019-06-20T15:30:16Z</time>
      </trkpt>
      <trkpt lat="43.554602" lon="-8.305225">
        <ele>60.208</ele>
        <time>2019-06-20T15:30:17Z</time>
      </trkpt>
      <trkpt lat="43.554481" lon="-8.305282">
        <ele>59.686</ele>
        <time>2019-06-20T15:30:18Z</time>
      </trkpt>
      <trkpt lat="43.554374" lon="-8.305290">
        <ele>58.710</ele>
        <time>2019-06-20T15:30:19Z</time>
      </trkpt>
      <trkpt lat="43.554262" lon="-8.305297">
        <ele>58.181</ele>
        <time>2019-06-20T15:30:20Z</time>
      </trkpt>
      <trkpt lat="43.554147" lon="-8.305308">
        <ele>57.447</ele>
        <time>2019-06-20T15:30:21Z</time>
      </trkpt>
      <trkpt lat="43.554018" lon="-8.305293">
        <ele>56.364</ele>
        <time>2019-06-20T15:30:22Z</time>
      </trkpt>
      <trkpt lat="43.553908" lon="-8.305282">
        <ele>55.245</ele>
        <time>2019-06-20T15:30:23Z</time>
      </trkpt>
      <trkpt lat="43.553786" lon="-8.305287">
        <ele>54.927</ele>
        <time>2019-06-20T15:30:24Z</time>
      </trkpt>
      <trkpt lat="43.553678" lon="-8.305309">
        <ele>54.964</ele>
        <time>2019-06-20T15:30:25Z</time>
      </trkpt>
      <trkpt lat="43.553584" lon="-8.305320">
        <ele>54.767</ele>
        <time>2019-06-20T15:30:26Z</time>
      </trkpt>
      <trkpt lat="43.553468" lon="-8.305340">
        <ele>54.281</ele>
        <time>2019-06-20T15:30:27Z</time>
      </trkpt>
      <trkpt lat="43.553362" lon="-8.305361">
        <ele>53.719</ele>
        <time>2019-06-20T15:30:28Z</time>
      </trkpt>
      <trkpt lat="43.553220" lon="-8.305424">
        <ele>53.408</ele>
        <time>2019-06-20T15:30:29Z</time>
      </trkpt>
      <trkpt lat="43.553131" lon="-8.305454">
        <ele>53.039</ele>
        <time>2019-06-20T15:30:30Z</time>
      </trkpt>
      <trkpt lat="43.553037" lon="-8.305483">
        <ele>52.643</ele>
        <time>2019-06-20T15:30:31Z</time>
      </trkpt>
      <trkpt lat="43.552959" lon="-8.305502">
        <ele>52.434</ele>
        <time>2019-06-20T15:30:32Z</time>
      </trkpt>
      <trkpt lat="43.552877" lon="-8.305487">
        <ele>51.630</ele>
        <time>2019-06-20T15:30:33Z</time>
      </trkpt>
      <trkpt lat="43.552778" lon="-8.305489">
        <ele>51.057</ele>
        <time>2019-06-20T15:30:34Z</time>
      </trkpt>
      <trkpt lat="43.552718" lon="-8.305476">
        <ele>50.818</ele>
        <time>2019-06-20T15:30:35Z</time>
      </trkpt>
      <trkpt lat="43.552621" lon="-8.305433">
        <ele>50.210</ele>
        <time>2019-06-20T15:30:36Z</time>
      </trkpt>
      <trkpt lat="43.552563" lon="-8.305365">
        <ele>49.557</ele>
        <time>2019-06-20T15:30:37Z</time>
      </trkpt>
      <trkpt lat="43.552471" lon="-8.305293">
        <ele>49.155</ele>
        <time>2019-06-20T15:30:38Z</time>
      </trkpt>
      <trkpt lat="43.552385" lon="-8.305223">
        <ele>48.807</ele>
        <time>2019-06-20T15:30:39Z</time>
      </trkpt>
      <trkpt lat="43.552266" lon="-8.305168">
        <ele>48.617</ele>
        <time>2019-06-20T15:30:40Z</time>
      </trkpt>
      <trkpt lat="43.552111" lon="-8.305074">
        <ele>47.908</ele>
        <time>2019-06-20T15:30:41Z</time>
      </trkpt>
      <trkpt lat="43.552025" lon="-8.305057">
        <ele>47.538</ele>
        <time>2019-06-20T15:30:42Z</time>
      </trkpt>
      <trkpt lat="43.551823" lon="-8.305119">
        <ele>47.412</ele>
        <time>2019-06-20T15:30:43Z</time>
      </trkpt>
      <trkpt lat="43.551705" lon="-8.305104">
        <ele>47.463</ele>
        <time>2019-06-20T15:30:44Z</time>
      </trkpt>
      <trkpt lat="43.551595" lon="-8.305120">
        <ele>47.779</ele>
        <time>2019-06-20T15:30:45Z</time>
      </trkpt>
      <trkpt lat="43.551455" lon="-8.305094">
        <ele>48.116</ele>
        <time>2019-06-20T15:30:46Z</time>
      </trkpt>
      <trkpt lat="43.551329" lon="-8.305073">
        <ele>48.747</ele>
        <time>2019-06-20T15:30:47Z</time>
      </trkpt>
      <trkpt lat="43.551186" lon="-8.304983">
        <ele>49.429</ele>
        <time>2019-06-20T15:30:48Z</time>
      </trkpt>
      <trkpt lat="43.551040" lon="-8.304909">
        <ele>50.486</ele>
        <time>2019-06-20T15:30:49Z</time>
      </trkpt>
      <trkpt lat="43.550906" lon="-8.304840">
        <ele>51.226</ele>
        <time>2019-06-20T15:30:50Z</time>
      </trkpt>
      <trkpt lat="43.550794" lon="-8.304754">
        <ele>51.447</ele>
        <time>2019-06-20T15:30:51Z</time>
      </trkpt>
      <trkpt lat="43.550660" lon="-8.304691">
        <ele>51.211</ele>
        <time>2019-06-20T15:30:52Z</time>
      </trkpt>
      <trkpt lat="43.550539" lon="-8.304624">
        <ele>50.608</ele>
        <time>2019-06-20T15:30:53Z</time>
      </trkpt>
      <trkpt lat="43.550433" lon="-8.304550">
        <ele>49.835</ele>
        <time>2019-06-20T15:30:54Z</time>
      </trkpt>
      <trkpt lat="43.550317" lon="-8.304467">
        <ele>49.139</ele>
        <time>2019-06-20T15:30:55Z</time>
      </trkpt>
      <trkpt lat="43.550201" lon="-8.304371">
        <ele>48.290</ele>
        <time>2019-06-20T15:30:56Z</time>
      </trkpt>
      <trkpt lat="43.550106" lon="-8.304240">
        <ele>46.896</ele>
        <time>2019-06-20T15:30:57Z</time>
      </trkpt>
      <trkpt lat="43.550023" lon="-8.304091">
        <ele>45.463</ele>
        <time>2019-06-20T15:30:58Z</time>
      </trkpt>
      <trkpt lat="43.549946" lon="-8.303938">
        <ele>44.534</ele>
        <time>2019-06-20T15:30:59Z</time>
      </trkpt>
      <trkpt lat="43.549862" lon="-8.303778">
        <ele>43.766</ele>
        <time>2019-06-20T15:31:00Z</time>
      </trkpt>
      <trkpt lat="43.549753" lon="-8.303664">
        <ele>43.313</ele>
        <time>2019-06-20T15:31:01Z</time>
      </trkpt>
      <trkpt lat="43.549637" lon="-8.303572">
        <ele>43.031</ele>
        <time>2019-06-20T15:31:02Z</time>
      </trkpt>
      <trkpt lat="43.549525" lon="-8.303475">
        <ele>42.761</ele>
        <time>2019-06-20T15:31:03Z</time>
      </trkpt>
      <trkpt lat="43.549413" lon="-8.303392">
        <ele>42.507</ele>
        <time>2019-06-20T15:31:04Z</time>
      </trkpt>
      <trkpt lat="43.549340" lon="-8.303278">
        <ele>41.508</ele>
        <time>2019-06-20T15:31:05Z</time>
      </trkpt>
      <trkpt lat="43.549210" lon="-8.303203">
        <ele>40.756</ele>
        <time>2019-06-20T15:31:06Z</time>
      </trkpt>
      <trkpt lat="43.549103" lon="-8.303114">
        <ele>39.960</ele>
        <time>2019-06-20T15:31:07Z</time>
      </trkpt>
      <trkpt lat="43.549015" lon="-8.303007">
        <ele>39.371</ele>
        <time>2019-06-20T15:31:08Z</time>
      </trkpt>
      <trkpt lat="43.548885" lon="-8.302894">
        <ele>38.967</ele>
        <time>2019-06-20T15:31:09Z</time>
      </trkpt>
      <trkpt lat="43.548753" lon="-8.302785">
        <ele>39.014</ele>
        <time>2019-06-20T15:31:10Z</time>
      </trkpt>
      <trkpt lat="43.548627" lon="-8.302659">
        <ele>39.985</ele>
        <time>2019-06-20T15:31:11Z</time>
      </trkpt>
      <trkpt lat="43.548543" lon="-8.302532">
        <ele>40.547</ele>
        <time>2019-06-20T15:31:12Z</time>
      </trkpt>
      <trkpt lat="43.548461" lon="-8.302403">
        <ele>40.794</ele>
        <time>2019-06-20T15:31:13Z</time>
      </trkpt>
      <trkpt lat="43.548350" lon="-8.302298">
        <ele>41.291</ele>
        <time>2019-06-20T15:31:14Z</time>
      </trkpt>
      <trkpt lat="43.548252" lon="-8.302116">
        <ele>39.881</ele>
        <time>2019-06-20T15:31:15Z</time>
      </trkpt>
      <trkpt lat="43.548180" lon="-8.301956">
        <ele>38.519</ele>
        <time>2019-06-20T15:31:16Z</time>
      </trkpt>
      <trkpt lat="43.548094" lon="-8.301792">
        <ele>37.508</ele>
        <time>2019-06-20T15:31:17Z</time>
      </trkpt>
      <trkpt lat="43.547988" lon="-8.301622">
        <ele>36.612</ele>
        <time>2019-06-20T15:31:18Z</time>
      </trkpt>
      <trkpt lat="43.547900" lon="-8.301468">
        <ele>36.186</ele>
        <time>2019-06-20T15:31:19Z</time>
      </trkpt>
      <trkpt lat="43.547854" lon="-8.301341">
        <ele>36.037</ele>
        <time>2019-06-20T15:31:20Z</time>
      </trkpt>
      <trkpt lat="43.547784" lon="-8.301218">
        <ele>36.093</ele>
        <time>2019-06-20T15:31:21Z</time>
      </trkpt>
      <trkpt lat="43.547748" lon="-8.301046">
        <ele>35.920</ele>
        <time>2019-06-20T15:31:22Z</time>
      </trkpt>
      <trkpt lat="43.547704" lon="-8.300900">
        <ele>35.971</ele>
        <time>2019-06-20T15:31:23Z</time>
      </trkpt>
      <trkpt lat="43.547660" lon="-8.300708">
        <ele>36.583</ele>
        <time>2019-06-20T15:31:24Z</time>
      </trkpt>
      <trkpt lat="43.547632" lon="-8.300531">
        <ele>37.080</ele>
        <time>2019-06-20T15:31:25Z</time>
      </trkpt>
      <trkpt lat="43.547630" lon="-8.300264">
        <ele>37.024</ele>
        <time>2019-06-20T15:31:26Z</time>
      </trkpt>
      <trkpt lat="43.547591" lon="-8.300045">
        <ele>36.204</ele>
        <time>2019-06-20T15:31:27Z</time>
      </trkpt>
      <trkpt lat="43.547569" lon="-8.299815">
        <ele>35.314</ele>
        <time>2019-06-20T15:31:28Z</time>
      </trkpt>
      <trkpt lat="43.547536" lon="-8.299593">
        <ele>35.008</ele>
        <time>2019-06-20T15:31:29Z</time>
      </trkpt>
      <trkpt lat="43.547508" lon="-8.299331">
        <ele>35.435</ele>
        <time>2019-06-20T15:31:30Z</time>
      </trkpt>
      <trkpt lat="43.547468" lon="-8.299111">
        <ele>36.289</ele>
        <time>2019-06-20T15:31:31Z</time>
      </trkpt>
      <trkpt lat="43.547450" lon="-8.298884">
        <ele>37.020</ele>
        <time>2019-06-20T15:31:32Z</time>
      </trkpt>
      <trkpt lat="43.547424" lon="-8.298645">
        <ele>37.986</ele>
        <time>2019-06-20T15:31:33Z</time>
      </trkpt>
      <trkpt lat="43.547413" lon="-8.298405">
        <ele>37.373</ele>
        <time>2019-06-20T15:31:34Z</time>
      </trkpt>
      <trkpt lat="43.547382" lon="-8.298191">
        <ele>37.074</ele>
        <time>2019-06-20T15:31:35Z</time>
      </trkpt>
      <trkpt lat="43.547352" lon="-8.297995">
        <ele>37.086</ele>
        <time>2019-06-20T15:31:36Z</time>
      </trkpt>
      <trkpt lat="43.547331" lon="-8.297757">
        <ele>37.043</ele>
        <time>2019-06-20T15:31:37Z</time>
      </trkpt>
      <trkpt lat="43.547299" lon="-8.297552">
        <ele>37.078</ele>
        <time>2019-06-20T15:31:38Z</time>
      </trkpt>
      <trkpt lat="43.547259" lon="-8.297351">
        <ele>37.533</ele>
        <time>2019-06-20T15:31:39Z</time>
      </trkpt>
      <trkpt lat="43.547228" lon="-8.297126">
        <ele>38.026</ele>
        <time>2019-06-20T15:31:40Z</time>
      </trkpt>
      <trkpt lat="43.547164" lon="-8.296909">
        <ele>38.008</ele>
        <time>2019-06-20T15:31:41Z</time>
      </trkpt>
      <trkpt lat="43.547116" lon="-8.296718">
        <ele>38.090</ele>
        <time>2019-06-20T15:31:42Z</time>
      </trkpt>
      <trkpt lat="43.547047" lon="-8.296533">
        <ele>38.224</ele>
        <time>2019-06-20T15:31:43Z</time>
      </trkpt>
      <trkpt lat="43.547008" lon="-8.296315">
        <ele>38.275</ele>
        <time>2019-06-20T15:31:44Z</time>
      </trkpt>
      <trkpt lat="43.546986" lon="-8.296132">
        <ele>38.111</ele>
        <time>2019-06-20T15:31:45Z</time>
      </trkpt>
      <trkpt lat="43.546974" lon="-8.295975">
        <ele>38.238</ele>
        <time>2019-06-20T15:31:46Z</time>
      </trkpt>
      <trkpt lat="43.546991" lon="-8.295767">
        <ele>38.329</ele>
        <time>2019-06-20T15:31:47Z</time>
      </trkpt>
      <trkpt lat="43.547022" lon="-8.295580">
        <ele>38.311</ele>
        <time>2019-06-20T15:31:48Z</time>
      </trkpt>
      <trkpt lat="43.547048" lon="-8.295379">
        <ele>38.458</ele>
        <time>2019-06-20T15:31:49Z</time>
      </trkpt>
      <trkpt lat="43.547068" lon="-8.295145">
        <ele>38.418</ele>
        <time>2019-06-20T15:31:50Z</time>
      </trkpt>
      <trkpt lat="43.547061" lon="-8.294981">
        <ele>38.498</ele>
        <time>2019-06-20T15:31:51Z</time>
      </trkpt>
      <trkpt lat="43.547043" lon="-8.294831">
        <ele>38.617</ele>
        <time>2019-06-20T15:31:52Z</time>
      </trkpt>
      <trkpt lat="43.547032" lon="-8.294683">
        <ele>38.808</ele>
        <time>2019-06-20T15:31:53Z</time>
      </trkpt>
      <trkpt lat="43.547017" lon="-8.294533">
        <ele>39.224</ele>
        <time>2019-06-20T15:31:54Z</time>
      </trkpt>
      <trkpt lat="43.547000" lon="-8.294376">
        <ele>39.468</ele>
        <time>2019-06-20T15:31:55Z</time>
      </trkpt>
      <trkpt lat="43.546955" lon="-8.294249">
        <ele>39.119</ele>
        <time>2019-06-20T15:31:56Z</time>
      </trkpt>
      <trkpt lat="43.546935" lon="-8.294084">
        <ele>39.335</ele>
        <time>2019-06-20T15:31:57Z</time>
      </trkpt>
      <trkpt lat="43.546906" lon="-8.293954">
        <ele>39.512</ele>
        <time>2019-06-20T15:31:58Z</time>
      </trkpt>
      <trkpt lat="43.546876" lon="-8.293818">
        <ele>39.633</ele>
        <time>2019-06-20T15:31:59Z</time>
      </trkpt>
      <trkpt lat="43.546854" lon="-8.293647">
        <ele>39.645</ele>
        <time>2019-06-20T15:32:00Z</time>
      </trkpt>
      <trkpt lat="43.546812" lon="-8.293464">
        <ele>39.552</ele>
        <time>2019-06-20T15:32:01Z</time>
      </trkpt>
      <trkpt lat="43.546781" lon="-8.293275">
        <ele>39.326</ele>
        <time>2019-06-20T15:32:02Z</time>
      </trkpt>
      <trkpt lat="43.546744" lon="-8.293092">
        <ele>39.047</ele>
        <time>2019-06-20T15:32:03Z</time>
      </trkpt>
      <trkpt lat="43.546708" lon="-8.292912">
        <ele>38.611</ele>
        <time>2019-06-20T15:32:04Z</time>
      </trkpt>
      <trkpt lat="43.546671" lon="-8.292735">
        <ele>38.208</ele>
        <time>2019-06-20T15:32:05Z</time>
      </trkpt>
      <trkpt lat="43.546651" lon="-8.292543">
        <ele>38.855</ele>
        <time>2019-06-20T15:32:06Z</time>
      </trkpt>
      <trkpt lat="43.546629" lon="-8.292355">
        <ele>39.569</ele>
        <time>2019-06-20T15:32:07Z</time>
      </trkpt>
      <trkpt lat="43.546602" lon="-8.292179">
        <ele>40.070</ele>
        <time>2019-06-20T15:32:08Z</time>
      </trkpt>
      <trkpt lat="43.546567" lon="-8.292027">
        <ele>40.366</ele>
        <time>2019-06-20T15:32:09Z</time>
      </trkpt>
      <trkpt lat="43.546549" lon="-8.291848">
        <ele>40.283</ele>
        <time>2019-06-20T15:32:10Z</time>
      </trkpt>
      <trkpt lat="43.546527" lon="-8.291681">
        <ele>40.094</ele>
        <time>2019-06-20T15:32:11Z</time>
      </trkpt>
      <trkpt lat="43.546517" lon="-8.291541">
        <ele>40.166</ele>
        <time>2019-06-20T15:32:12Z</time>
      </trkpt>
      <trkpt lat="43.546495" lon="-8.291422">
        <ele>40.253</ele>
        <time>2019-06-20T15:32:13Z</time>
      </trkpt>
      <trkpt lat="43.546482" lon="-8.291310">
        <ele>40.136</ele>
        <time>2019-06-20T15:32:14Z</time>
      </trkpt>
      <trkpt lat="43.546453" lon="-8.291230">
        <ele>40.117</ele>
        <time>2019-06-20T15:32:15Z</time>
      </trkpt>
      <trkpt lat="43.546403" lon="-8.291193">
        <ele>40.218</ele>
        <time>2019-06-20T15:32:16Z</time>
      </trkpt>
      <trkpt lat="43.546347" lon="-8.291155">
        <ele>40.308</ele>
        <time>2019-06-20T15:32:18Z</time>
      </trkpt>
      <trkpt lat="43.546262" lon="-8.291254">
        <ele>41.016</ele>
        <time>2019-06-20T15:32:19Z</time>
      </trkpt>
      <trkpt lat="43.546212" lon="-8.291333">
        <ele>41.450</ele>
        <time>2019-06-20T15:32:20Z</time>
      </trkpt>
      <trkpt lat="43.546129" lon="-8.291485">
        <ele>41.971</ele>
        <time>2019-06-20T15:32:21Z</time>
      </trkpt>
      <trkpt lat="43.546056" lon="-8.291631">
        <ele>41.887</ele>
        <time>2019-06-20T15:32:22Z</time>
      </trkpt>
      <trkpt lat="43.545961" lon="-8.291768">
        <ele>41.564</ele>
        <time>2019-06-20T15:32:23Z</time>
      </trkpt>
      <trkpt lat="43.545868" lon="-8.291967">
        <ele>41.095</ele>
        <time>2019-06-20T15:32:24Z</time>
      </trkpt>
      <trkpt lat="43.545777" lon="-8.292113">
        <ele>40.127</ele>
        <time>2019-06-20T15:32:25Z</time>
      </trkpt>
      <trkpt lat="43.545721" lon="-8.292331">
        <ele>39.264</ele>
        <time>2019-06-20T15:32:26Z</time>
      </trkpt>
      <trkpt lat="43.545623" lon="-8.292513">
        <ele>38.293</ele>
        <time>2019-06-20T15:32:27Z</time>
      </trkpt>
      <trkpt lat="43.545540" lon="-8.292695">
        <ele>38.065</ele>
        <time>2019-06-20T15:32:28Z</time>
      </trkpt>
      <trkpt lat="43.545458" lon="-8.292879">
        <ele>38.021</ele>
        <time>2019-06-20T15:32:29Z</time>
      </trkpt>
      <trkpt lat="43.545381" lon="-8.293065">
        <ele>38.408</ele>
        <time>2019-06-20T15:32:30Z</time>
      </trkpt>
      <trkpt lat="43.545297" lon="-8.293199">
        <ele>38.192</ele>
        <time>2019-06-20T15:32:31Z</time>
      </trkpt>
      <trkpt lat="43.545220" lon="-8.293347">
        <ele>37.746</ele>
        <time>2019-06-20T15:32:32Z</time>
      </trkpt>
      <trkpt lat="43.545141" lon="-8.293522">
        <ele>36.847</ele>
        <time>2019-06-20T15:32:33Z</time>
      </trkpt>
      <trkpt lat="43.545058" lon="-8.293725">
        <ele>35.433</ele>
        <time>2019-06-20T15:32:34Z</time>
      </trkpt>
      <trkpt lat="43.544991" lon="-8.293924">
        <ele>33.920</ele>
        <time>2019-06-20T15:32:35Z</time>
      </trkpt>
      <trkpt lat="43.544919" lon="-8.294132">
        <ele>33.131</ele>
        <time>2019-06-20T15:32:36Z</time>
      </trkpt>
      <trkpt lat="43.544834" lon="-8.294358">
        <ele>32.023</ele>
        <time>2019-06-20T15:32:37Z</time>
      </trkpt>
      <trkpt lat="43.544769" lon="-8.294559">
        <ele>31.180</ele>
        <time>2019-06-20T15:32:38Z</time>
      </trkpt>
      <trkpt lat="43.544706" lon="-8.294766">
        <ele>29.648</ele>
        <time>2019-06-20T15:32:39Z</time>
      </trkpt>
      <trkpt lat="43.544627" lon="-8.294970">
        <ele>27.961</ele>
        <time>2019-06-20T15:32:40Z</time>
      </trkpt>
      <trkpt lat="43.544551" lon="-8.295196">
        <ele>26.917</ele>
        <time>2019-06-20T15:32:41Z</time>
      </trkpt>
      <trkpt lat="43.544474" lon="-8.295412">
        <ele>26.208</ele>
        <time>2019-06-20T15:32:42Z</time>
      </trkpt>
      <trkpt lat="43.544400" lon="-8.295607">
        <ele>25.877</ele>
        <time>2019-06-20T15:32:43Z</time>
      </trkpt>
      <trkpt lat="43.544323" lon="-8.295825">
        <ele>25.141</ele>
        <time>2019-06-20T15:32:44Z</time>
      </trkpt>
      <trkpt lat="43.544255" lon="-8.296013">
        <ele>24.412</ele>
        <time>2019-06-20T15:32:45Z</time>
      </trkpt>
      <trkpt lat="43.544194" lon="-8.296190">
        <ele>23.838</ele>
        <time>2019-06-20T15:32:46Z</time>
      </trkpt>
      <trkpt lat="43.544129" lon="-8.296314">
        <ele>23.135</ele>
        <time>2019-06-20T15:32:47Z</time>
      </trkpt>
      <trkpt lat="43.544086" lon="-8.296411">
        <ele>22.786</ele>
        <time>2019-06-20T15:32:48Z</time>
      </trkpt>
      <trkpt lat="43.544059" lon="-8.296496">
        <ele>22.438</ele>
        <time>2019-06-20T15:32:49Z</time>
      </trkpt>
      <trkpt lat="43.544010" lon="-8.296573">
        <ele>22.145</ele>
        <time>2019-06-20T15:32:50Z</time>
      </trkpt>
      <trkpt lat="43.543959" lon="-8.296612">
        <ele>22.199</ele>
        <time>2019-06-20T15:32:51Z</time>
      </trkpt>
      <trkpt lat="43.543921" lon="-8.296651">
        <ele>22.007</ele>
        <time>2019-06-20T15:32:52Z</time>
      </trkpt>
      <trkpt lat="43.543873" lon="-8.296674">
        <ele>22.027</ele>
        <time>2019-06-20T15:32:53Z</time>
      </trkpt>
      <trkpt lat="43.543813" lon="-8.296710">
        <ele>22.108</ele>
        <time>2019-06-20T15:32:54Z</time>
      </trkpt>
      <trkpt lat="43.543730" lon="-8.296621">
        <ele>22.042</ele>
        <time>2019-06-20T15:32:55Z</time>
      </trkpt>
      <trkpt lat="43.543664" lon="-8.296563">
        <ele>22.046</ele>
        <time>2019-06-20T15:32:56Z</time>
      </trkpt>
      <trkpt lat="43.543564" lon="-8.296473">
        <ele>21.717</ele>
        <time>2019-06-20T15:32:57Z</time>
      </trkpt>
      <trkpt lat="43.543444" lon="-8.296332">
        <ele>20.933</ele>
        <time>2019-06-20T15:32:58Z</time>
      </trkpt>
      <trkpt lat="43.543352" lon="-8.296158">
        <ele>20.910</ele>
        <time>2019-06-20T15:32:59Z</time>
      </trkpt>
      <trkpt lat="43.543196" lon="-8.295988">
        <ele>20.781</ele>
        <time>2019-06-20T15:33:00Z</time>
      </trkpt>
      <trkpt lat="43.543055" lon="-8.295844">
        <ele>21.093</ele>
        <time>2019-06-20T15:33:01Z</time>
      </trkpt>
      <trkpt lat="43.542878" lon="-8.295718">
        <ele>21.150</ele>
        <time>2019-06-20T15:33:02Z</time>
      </trkpt>
      <trkpt lat="43.542724" lon="-8.295574">
        <ele>21.095</ele>
        <time>2019-06-20T15:33:03Z</time>
      </trkpt>
      <trkpt lat="43.542551" lon="-8.295438">
        <ele>21.549</ele>
        <time>2019-06-20T15:33:04Z</time>
      </trkpt>
      <trkpt lat="43.542373" lon="-8.295296">
        <ele>21.423</ele>
        <time>2019-06-20T15:33:05Z</time>
      </trkpt>
      <trkpt lat="43.542212" lon="-8.295151">
        <ele>21.508</ele>
        <time>2019-06-20T15:33:06Z</time>
      </trkpt>
      <trkpt lat="43.542032" lon="-8.295025">
        <ele>21.932</ele>
        <time>2019-06-20T15:33:07Z</time>
      </trkpt>
      <trkpt lat="43.541830" lon="-8.294887">
        <ele>22.416</ele>
        <time>2019-06-20T15:33:08Z</time>
      </trkpt>
      <trkpt lat="43.541625" lon="-8.294751">
        <ele>22.767</ele>
        <time>2019-06-20T15:33:09Z</time>
      </trkpt>
      <trkpt lat="43.541396" lon="-8.294622">
        <ele>22.493</ele>
        <time>2019-06-20T15:33:10Z</time>
      </trkpt>
      <trkpt lat="43.541177" lon="-8.294486">
        <ele>22.930</ele>
        <time>2019-06-20T15:33:11Z</time>
      </trkpt>
      <trkpt lat="43.540966" lon="-8.294346">
        <ele>22.841</ele>
        <time>2019-06-20T15:33:12Z</time>
      </trkpt>
      <trkpt lat="43.540754" lon="-8.294200">
        <ele>22.393</ele>
        <time>2019-06-20T15:33:13Z</time>
      </trkpt>
      <trkpt lat="43.540537" lon="-8.294066">
        <ele>21.760</ele>
        <time>2019-06-20T15:33:14Z</time>
      </trkpt>
      <trkpt lat="43.540324" lon="-8.293936">
        <ele>22.011</ele>
        <time>2019-06-20T15:33:15Z</time>
      </trkpt>
      <trkpt lat="43.540153" lon="-8.293776">
        <ele>23.321</ele>
        <time>2019-06-20T15:33:16Z</time>
      </trkpt>
      <trkpt lat="43.539939" lon="-8.293643">
        <ele>25.003</ele>
        <time>2019-06-20T15:33:17Z</time>
      </trkpt>
      <trkpt lat="43.539736" lon="-8.293518">
        <ele>27.008</ele>
        <time>2019-06-20T15:33:18Z</time>
      </trkpt>
      <trkpt lat="43.539551" lon="-8.293403">
        <ele>29.684</ele>
        <time>2019-06-20T15:33:19Z</time>
      </trkpt>
      <trkpt lat="43.539330" lon="-8.293283">
        <ele>31.278</ele>
        <time>2019-06-20T15:33:20Z</time>
      </trkpt>
      <trkpt lat="43.539134" lon="-8.293155">
        <ele>31.469</ele>
        <time>2019-06-20T15:33:21Z</time>
      </trkpt>
      <trkpt lat="43.538928" lon="-8.293032">
        <ele>30.415</ele>
        <time>2019-06-20T15:33:22Z</time>
      </trkpt>
      <trkpt lat="43.538706" lon="-8.292914">
        <ele>29.972</ele>
        <time>2019-06-20T15:33:23Z</time>
      </trkpt>
      <trkpt lat="43.538505" lon="-8.292776">
        <ele>30.053</ele>
        <time>2019-06-20T15:33:24Z</time>
      </trkpt>
      <trkpt lat="43.538293" lon="-8.292693">
        <ele>30.195</ele>
        <time>2019-06-20T15:33:25Z</time>
      </trkpt>
      <trkpt lat="43.538064" lon="-8.292587">
        <ele>28.422</ele>
        <time>2019-06-20T15:33:26Z</time>
      </trkpt>
      <trkpt lat="43.537837" lon="-8.292489">
        <ele>26.468</ele>
        <time>2019-06-20T15:33:27Z</time>
      </trkpt>
      <trkpt lat="43.537607" lon="-8.292401">
        <ele>23.842</ele>
        <time>2019-06-20T15:33:28Z</time>
      </trkpt>
      <trkpt lat="43.537383" lon="-8.292305">
        <ele>21.326</ele>
        <time>2019-06-20T15:33:29Z</time>
      </trkpt>
      <trkpt lat="43.537163" lon="-8.292218">
        <ele>19.808</ele>
        <time>2019-06-20T15:33:30Z</time>
      </trkpt>
      <trkpt lat="43.536921" lon="-8.292136">
        <ele>19.279</ele>
        <time>2019-06-20T15:33:31Z</time>
      </trkpt>
      <trkpt lat="43.536687" lon="-8.292062">
        <ele>18.373</ele>
        <time>2019-06-20T15:33:32Z</time>
      </trkpt>
      <trkpt lat="43.536449" lon="-8.291978">
        <ele>17.394</ele>
        <time>2019-06-20T15:33:33Z</time>
      </trkpt>
      <trkpt lat="43.536206" lon="-8.291891">
        <ele>15.930</ele>
        <time>2019-06-20T15:33:34Z</time>
      </trkpt>
      <trkpt lat="43.535945" lon="-8.291821">
        <ele>14.847</ele>
        <time>2019-06-20T15:33:35Z</time>
      </trkpt>
      <trkpt lat="43.535703" lon="-8.291720">
        <ele>14.978</ele>
        <time>2019-06-20T15:33:36Z</time>
      </trkpt>
      <trkpt lat="43.535466" lon="-8.291631">
        <ele>15.090</ele>
        <time>2019-06-20T15:33:37Z</time>
      </trkpt>
      <trkpt lat="43.535242" lon="-8.291521">
        <ele>14.917</ele>
        <time>2019-06-20T15:33:38Z</time>
      </trkpt>
      <trkpt lat="43.535004" lon="-8.291426">
        <ele>14.168</ele>
        <time>2019-06-20T15:33:39Z</time>
      </trkpt>
      <trkpt lat="43.534740" lon="-8.291345">
        <ele>12.742</ele>
        <time>2019-06-20T15:33:40Z</time>
      </trkpt>
      <trkpt lat="43.534509" lon="-8.291248">
        <ele>10.526</ele>
        <time>2019-06-20T15:33:41Z</time>
      </trkpt>
      <trkpt lat="43.534295" lon="-8.291151">
        <ele>9.008</ele>
        <time>2019-06-20T15:33:42Z</time>
      </trkpt>
      <trkpt lat="43.534064" lon="-8.291081">
        <ele>7.629</ele>
        <time>2019-06-20T15:33:43Z</time>
      </trkpt>
      <trkpt lat="43.533832" lon="-8.291011">
        <ele>7.173</ele>
        <time>2019-06-20T15:33:44Z</time>
      </trkpt>
      <trkpt lat="43.533608" lon="-8.290924">
        <ele>7.794</ele>
        <time>2019-06-20T15:33:45Z</time>
      </trkpt>
      <trkpt lat="43.533395" lon="-8.290820">
        <ele>7.240</ele>
        <time>2019-06-20T15:33:46Z</time>
      </trkpt>
      <trkpt lat="43.533174" lon="-8.290746">
        <ele>6.697</ele>
        <time>2019-06-20T15:33:47Z</time>
      </trkpt>
      <trkpt lat="43.532954" lon="-8.290695">
        <ele>5.678</ele>
        <time>2019-06-20T15:33:48Z</time>
      </trkpt>
      <trkpt lat="43.532745" lon="-8.290632">
        <ele>5.110</ele>
        <time>2019-06-20T15:33:49Z</time>
      </trkpt>
      <trkpt lat="43.532543" lon="-8.290584">
        <ele>5.877</ele>
        <time>2019-06-20T15:33:50Z</time>
      </trkpt>
      <trkpt lat="43.532352" lon="-8.290542">
        <ele>6.542</ele>
        <time>2019-06-20T15:33:51Z</time>
      </trkpt>
      <trkpt lat="43.532157" lon="-8.290508">
        <ele>7.022</ele>
        <time>2019-06-20T15:33:52Z</time>
      </trkpt>
      <trkpt lat="43.531965" lon="-8.290478">
        <ele>7.014</ele>
        <time>2019-06-20T15:33:53Z</time>
      </trkpt>
      <trkpt lat="43.531754" lon="-8.290443">
        <ele>7.308</ele>
        <time>2019-06-20T15:33:54Z</time>
      </trkpt>
      <trkpt lat="43.531514" lon="-8.290662">
        <ele>8.137</ele>
        <time>2019-06-20T15:33:55Z</time>
      </trkpt>
      <trkpt lat="43.531372" lon="-8.290882">
        <ele>8.971</ele>
        <time>2019-06-20T15:33:56Z</time>
      </trkpt>
      <trkpt lat="43.531178" lon="-8.291037">
        <ele>9.832</ele>
        <time>2019-06-20T15:33:57Z</time>
      </trkpt>
      <trkpt lat="43.530988" lon="-8.291214">
        <ele>9.728</ele>
        <time>2019-06-20T15:33:58Z</time>
      </trkpt>
      <trkpt lat="43.530774" lon="-8.291384">
        <ele>9.055</ele>
        <time>2019-06-20T15:33:59Z</time>
      </trkpt>
      <trkpt lat="43.530596" lon="-8.291541">
        <ele>8.546</ele>
        <time>2019-06-20T15:34:00Z</time>
      </trkpt>
      <trkpt lat="43.530409" lon="-8.291690">
        <ele>8.468</ele>
        <time>2019-06-20T15:34:01Z</time>
      </trkpt>
      <trkpt lat="43.530212" lon="-8.291832">
        <ele>8.485</ele>
        <time>2019-06-20T15:34:02Z</time>
      </trkpt>
      <trkpt lat="43.530014" lon="-8.291986">
        <ele>8.085</ele>
        <time>2019-06-20T15:34:03Z</time>
      </trkpt>
      <trkpt lat="43.529830" lon="-8.292148">
        <ele>7.789</ele>
        <time>2019-06-20T15:34:04Z</time>
      </trkpt>
      <trkpt lat="43.529632" lon="-8.292307">
        <ele>6.717</ele>
        <time>2019-06-20T15:34:05Z</time>
      </trkpt>
      <trkpt lat="43.529426" lon="-8.292476">
        <ele>6.108</ele>
        <time>2019-06-20T15:34:06Z</time>
      </trkpt>
      <trkpt lat="43.529208" lon="-8.292645">
        <ele>6.841</ele>
        <time>2019-06-20T15:34:07Z</time>
      </trkpt>
      <trkpt lat="43.529016" lon="-8.292802">
        <ele>8.085</ele>
        <time>2019-06-20T15:34:08Z</time>
      </trkpt>
      <trkpt lat="43.528828" lon="-8.292953">
        <ele>8.326</ele>
        <time>2019-06-20T15:34:09Z</time>
      </trkpt>
      <trkpt lat="43.528630" lon="-8.293096">
        <ele>6.962</ele>
        <time>2019-06-20T15:34:10Z</time>
      </trkpt>
      <trkpt lat="43.528443" lon="-8.293250">
        <ele>7.369</ele>
        <time>2019-06-20T15:34:11Z</time>
      </trkpt>
      <trkpt lat="43.528246" lon="-8.293425">
        <ele>7.620</ele>
        <time>2019-06-20T15:34:12Z</time>
      </trkpt>
      <trkpt lat="43.528073" lon="-8.293592">
        <ele>8.922</ele>
        <time>2019-06-20T15:34:13Z</time>
      </trkpt>
      <trkpt lat="43.527877" lon="-8.293812">
        <ele>8.099</ele>
        <time>2019-06-20T15:34:14Z</time>
      </trkpt>
      <trkpt lat="43.527709" lon="-8.294034">
        <ele>6.142</ele>
        <time>2019-06-20T15:34:15Z</time>
      </trkpt>
      <trkpt lat="43.527520" lon="-8.294260">
        <ele>4.722</ele>
        <time>2019-06-20T15:34:16Z</time>
      </trkpt>
      <trkpt lat="43.527344" lon="-8.294494">
        <ele>6.014</ele>
        <time>2019-06-20T15:34:17Z</time>
      </trkpt>
      <trkpt lat="43.527165" lon="-8.294720">
        <ele>6.208</ele>
        <time>2019-06-20T15:34:18Z</time>
      </trkpt>
      <trkpt lat="43.527005" lon="-8.294956">
        <ele>5.947</ele>
        <time>2019-06-20T15:34:19Z</time>
      </trkpt>
      <trkpt lat="43.526813" lon="-8.295209">
        <ele>5.421</ele>
        <time>2019-06-20T15:34:20Z</time>
      </trkpt>
      <trkpt lat="43.526646" lon="-8.295467">
        <ele>4.562</ele>
        <time>2019-06-20T15:34:21Z</time>
      </trkpt>
      <trkpt lat="43.526476" lon="-8.295662">
        <ele>5.588</ele>
        <time>2019-06-20T15:34:22Z</time>
      </trkpt>
      <trkpt lat="43.526274" lon="-8.295894">
        <ele>5.245</ele>
        <time>2019-06-20T15:34:23Z</time>
      </trkpt>
      <trkpt lat="43.526087" lon="-8.296124">
        <ele>5.066</ele>
        <time>2019-06-20T15:34:24Z</time>
      </trkpt>
      <trkpt lat="43.525903" lon="-8.296360">
        <ele>4.118</ele>
        <time>2019-06-20T15:34:25Z</time>
      </trkpt>
      <trkpt lat="43.525724" lon="-8.296581">
        <ele>3.795</ele>
        <time>2019-06-20T15:34:26Z</time>
      </trkpt>
      <trkpt lat="43.525531" lon="-8.296805">
        <ele>3.544</ele>
        <time>2019-06-20T15:34:27Z</time>
      </trkpt>
      <trkpt lat="43.525341" lon="-8.297021">
        <ele>3.805</ele>
        <time>2019-06-20T15:34:28Z</time>
      </trkpt>
      <trkpt lat="43.525133" lon="-8.297202">
        <ele>4.615</ele>
        <time>2019-06-20T15:34:29Z</time>
      </trkpt>
      <trkpt lat="43.524918" lon="-8.297382">
        <ele>5.108</ele>
        <time>2019-06-20T15:34:30Z</time>
      </trkpt>
      <trkpt lat="43.524711" lon="-8.297546">
        <ele>5.837</ele>
        <time>2019-06-20T15:34:31Z</time>
      </trkpt>
      <trkpt lat="43.524495" lon="-8.297665">
        <ele>6.911</ele>
        <time>2019-06-20T15:34:32Z</time>
      </trkpt>
      <trkpt lat="43.524288" lon="-8.297775">
        <ele>8.782</ele>
        <time>2019-06-20T15:34:33Z</time>
      </trkpt>
      <trkpt lat="43.524075" lon="-8.297897">
        <ele>10.048</ele>
        <time>2019-06-20T15:34:34Z</time>
      </trkpt>
      <trkpt lat="43.523853" lon="-8.298023">
        <ele>11.095</ele>
        <time>2019-06-20T15:34:35Z</time>
      </trkpt>
      <trkpt lat="43.523641" lon="-8.298156">
        <ele>12.436</ele>
        <time>2019-06-20T15:34:36Z</time>
      </trkpt>
      <trkpt lat="43.523406" lon="-8.298304">
        <ele>10.418</ele>
        <time>2019-06-20T15:34:37Z</time>
      </trkpt>
      <trkpt lat="43.523168" lon="-8.298452">
        <ele>10.545</ele>
        <time>2019-06-20T15:34:38Z</time>
      </trkpt>
      <trkpt lat="43.522942" lon="-8.298587">
        <ele>12.391</ele>
        <time>2019-06-20T15:34:39Z</time>
      </trkpt>
      <trkpt lat="43.522715" lon="-8.298705">
        <ele>16.381</ele>
        <time>2019-06-20T15:34:40Z</time>
      </trkpt>
      <trkpt lat="43.522494" lon="-8.298834">
        <ele>20.319</ele>
        <time>2019-06-20T15:34:41Z</time>
      </trkpt>
      <trkpt lat="43.522272" lon="-8.298966">
        <ele>22.508</ele>
        <time>2019-06-20T15:34:42Z</time>
      </trkpt>
      <trkpt lat="43.522033" lon="-8.299100">
        <ele>23.622</ele>
        <time>2019-06-20T15:34:43Z</time>
      </trkpt>
      <trkpt lat="43.521809" lon="-8.299220">
        <ele>24.756</ele>
        <time>2019-06-20T15:34:44Z</time>
      </trkpt>
      <trkpt lat="43.521582" lon="-8.299350">
        <ele>24.137</ele>
        <time>2019-06-20T15:34:45Z</time>
      </trkpt>
      <trkpt lat="43.521338" lon="-8.299481">
        <ele>23.273</ele>
        <time>2019-06-20T15:34:46Z</time>
      </trkpt>
      <trkpt lat="43.521093" lon="-8.299608">
        <ele>24.230</ele>
        <time>2019-06-20T15:34:47Z</time>
      </trkpt>
      <trkpt lat="43.520860" lon="-8.299736">
        <ele>23.561</ele>
        <time>2019-06-20T15:34:48Z</time>
      </trkpt>
      <trkpt lat="43.520635" lon="-8.299846">
        <ele>22.713</ele>
        <time>2019-06-20T15:34:49Z</time>
      </trkpt>
      <trkpt lat="43.520402" lon="-8.299965">
        <ele>20.590</ele>
        <time>2019-06-20T15:34:50Z</time>
      </trkpt>
      <trkpt lat="43.520171" lon="-8.300074">
        <ele>19.749</ele>
        <time>2019-06-20T15:34:51Z</time>
      </trkpt>
      <trkpt lat="43.519942" lon="-8.300190">
        <ele>19.402</ele>
        <time>2019-06-20T15:34:52Z</time>
      </trkpt>
      <trkpt lat="43.519699" lon="-8.300316">
        <ele>19.922</ele>
        <time>2019-06-20T15:34:53Z</time>
      </trkpt>
      <trkpt lat="43.519470" lon="-8.300443">
        <ele>21.608</ele>
        <time>2019-06-20T15:34:54Z</time>
      </trkpt>
      <trkpt lat="43.519241" lon="-8.300561">
        <ele>22.867</ele>
        <time>2019-06-20T15:34:55Z</time>
      </trkpt>
      <trkpt lat="43.519022" lon="-8.300682">
        <ele>22.391</ele>
        <time>2019-06-20T15:34:56Z</time>
      </trkpt>
      <trkpt lat="43.518804" lon="-8.300808">
        <ele>21.882</ele>
        <time>2019-06-20T15:34:57Z</time>
      </trkpt>
      <trkpt lat="43.518576" lon="-8.300930">
        <ele>22.778</ele>
        <time>2019-06-20T15:34:58Z</time>
      </trkpt>
      <trkpt lat="43.518370" lon="-8.301026">
        <ele>23.475</ele>
        <time>2019-06-20T15:34:59Z</time>
      </trkpt>
      <trkpt lat="43.518148" lon="-8.301131">
        <ele>22.926</ele>
        <time>2019-06-20T15:35:00Z</time>
      </trkpt>
      <trkpt lat="43.517941" lon="-8.301241">
        <ele>22.048</ele>
        <time>2019-06-20T15:35:01Z</time>
      </trkpt>
      <trkpt lat="43.517739" lon="-8.301392">
        <ele>20.725</ele>
        <time>2019-06-20T15:35:02Z</time>
      </trkpt>
      <trkpt lat="43.517541" lon="-8.301516">
        <ele>22.624</ele>
        <time>2019-06-20T15:35:03Z</time>
      </trkpt>
      <trkpt lat="43.517337" lon="-8.301654">
        <ele>24.104</ele>
        <time>2019-06-20T15:35:04Z</time>
      </trkpt>
      <trkpt lat="43.517131" lon="-8.301758">
        <ele>25.014</ele>
        <time>2019-06-20T15:35:05Z</time>
      </trkpt>
      <trkpt lat="43.516899" lon="-8.301892">
        <ele>24.408</ele>
        <time>2019-06-20T15:35:06Z</time>
      </trkpt>
      <trkpt lat="43.516682" lon="-8.302037">
        <ele>24.895</ele>
        <time>2019-06-20T15:35:07Z</time>
      </trkpt>
      <trkpt lat="43.516460" lon="-8.302175">
        <ele>24.429</ele>
        <time>2019-06-20T15:35:08Z</time>
      </trkpt>
      <trkpt lat="43.516226" lon="-8.302337">
        <ele>23.320</ele>
        <time>2019-06-20T15:35:09Z</time>
      </trkpt>
      <trkpt lat="43.516011" lon="-8.302498">
        <ele>22.746</ele>
        <time>2019-06-20T15:35:10Z</time>
      </trkpt>
      <trkpt lat="43.515795" lon="-8.302624">
        <ele>23.063</ele>
        <time>2019-06-20T15:35:11Z</time>
      </trkpt>
      <trkpt lat="43.515582" lon="-8.302778">
        <ele>23.734</ele>
        <time>2019-06-20T15:35:12Z</time>
      </trkpt>
      <trkpt lat="43.515398" lon="-8.302890">
        <ele>24.126</ele>
        <time>2019-06-20T15:35:13Z</time>
      </trkpt>
      <trkpt lat="43.515252" lon="-8.302988">
        <ele>24.353</ele>
        <time>2019-06-20T15:35:14Z</time>
      </trkpt>
      <trkpt lat="43.515075" lon="-8.303121">
        <ele>25.071</ele>
        <time>2019-06-20T15:35:15Z</time>
      </trkpt>
      <trkpt lat="43.514883" lon="-8.303256">
        <ele>25.541</ele>
        <time>2019-06-20T15:35:16Z</time>
      </trkpt>
      <trkpt lat="43.514703" lon="-8.303350">
        <ele>26.015</ele>
        <time>2019-06-20T15:35:17Z</time>
      </trkpt>
      <trkpt lat="43.514511" lon="-8.303425">
        <ele>26.508</ele>
        <time>2019-06-20T15:35:18Z</time>
      </trkpt>
      <trkpt lat="43.514357" lon="-8.303485">
        <ele>26.650</ele>
        <time>2019-06-20T15:35:19Z</time>
      </trkpt>
      <trkpt lat="43.514174" lon="-8.303561">
        <ele>25.954</ele>
        <time>2019-06-20T15:35:20Z</time>
      </trkpt>
      <trkpt lat="43.513978" lon="-8.303658">
        <ele>24.595</ele>
        <time>2019-06-20T15:35:21Z</time>
      </trkpt>
      <trkpt lat="43.513778" lon="-8.303743">
        <ele>23.641</ele>
        <time>2019-06-20T15:35:22Z</time>
      </trkpt>
      <trkpt lat="43.513576" lon="-8.303814">
        <ele>22.928</ele>
        <time>2019-06-20T15:35:23Z</time>
      </trkpt>
      <trkpt lat="43.513470" lon="-8.303853">
        <ele>22.989</ele>
        <time>2019-06-20T15:35:24Z</time>
      </trkpt>
      <trkpt lat="43.513310" lon="-8.303943">
        <ele>22.751</ele>
        <time>2019-06-20T15:35:25Z</time>
      </trkpt>
      <trkpt lat="43.513138" lon="-8.304031">
        <ele>22.748</ele>
        <time>2019-06-20T15:35:26Z</time>
      </trkpt>
      <trkpt lat="43.513004" lon="-8.304074">
        <ele>22.975</ele>
        <time>2019-06-20T15:35:27Z</time>
      </trkpt>
      <trkpt lat="43.512881" lon="-8.304127">
        <ele>22.928</ele>
        <time>2019-06-20T15:35:28Z</time>
      </trkpt>
      <trkpt lat="43.512770" lon="-8.304175">
        <ele>23.020</ele>
        <time>2019-06-20T15:35:29Z</time>
      </trkpt>
      <trkpt lat="43.512679" lon="-8.304223">
        <ele>23.008</ele>
        <time>2019-06-20T15:35:30Z</time>
      </trkpt>
      <trkpt lat="43.512606" lon="-8.304252">
        <ele>23.290</ele>
        <time>2019-06-20T15:35:31Z</time>
      </trkpt>
      <trkpt lat="43.512551" lon="-8.304278">
        <ele>23.314</ele>
        <time>2019-06-20T15:35:32Z</time>
      </trkpt>
      <trkpt lat="43.512482" lon="-8.304307">
        <ele>23.785</ele>
        <time>2019-06-20T15:35:33Z</time>
      </trkpt>
      <trkpt lat="43.512416" lon="-8.304352">
        <ele>24.091</ele>
        <time>2019-06-20T15:35:34Z</time>
      </trkpt>
      <trkpt lat="43.512412" lon="-8.304423">
        <ele>23.798</ele>
        <time>2019-06-20T15:35:35Z</time>
      </trkpt>
      <trkpt lat="43.512437" lon="-8.304529">
        <ele>22.639</ele>
        <time>2019-06-20T15:35:37Z</time>
      </trkpt>
      <trkpt lat="43.512471" lon="-8.304611">
        <ele>21.561</ele>
        <time>2019-06-20T15:35:38Z</time>
      </trkpt>
      <trkpt lat="43.512479" lon="-8.304696">
        <ele>20.548</ele>
        <time>2019-06-20T15:35:39Z</time>
      </trkpt>
      <trkpt lat="43.512481" lon="-8.304828">
        <ele>19.415</ele>
        <time>2019-06-20T15:35:40Z</time>
      </trkpt>
      <trkpt lat="43.512435" lon="-8.304881">
        <ele>19.465</ele>
        <time>2019-06-20T15:35:42Z</time>
      </trkpt>
      <trkpt lat="43.512398" lon="-8.304946">
        <ele>19.211</ele>
        <time>2019-06-20T15:35:44Z</time>
      </trkpt>
      <trkpt lat="43.512449" lon="-8.304991">
        <ele>18.408</ele>
        <time>2019-06-20T15:35:49Z</time>
      </trkpt>
      <trkpt lat="43.512425" lon="-8.305073">
        <ele>17.854</ele>
        <time>2019-06-20T15:35:50Z</time>
      </trkpt>
      <trkpt lat="43.512412" lon="-8.305162">
        <ele>16.978</ele>
        <time>2019-06-20T15:35:51Z</time>
      </trkpt>
      <trkpt lat="43.512410" lon="-8.305253">
        <ele>15.999</ele>
        <time>2019-06-20T15:35:52Z</time>
      </trkpt>
      <trkpt lat="43.512414" lon="-8.305417">
        <ele>14.355</ele>
        <time>2019-06-20T15:35:53Z</time>
      </trkpt>
      <trkpt lat="43.512428" lon="-8.305555">
        <ele>12.842</ele>
        <time>2019-06-20T15:35:54Z</time>
      </trkpt>
      <trkpt lat="43.512450" lon="-8.305700">
        <ele>12.483</ele>
        <time>2019-06-20T15:35:55Z</time>
      </trkpt>
      <trkpt lat="43.512522" lon="-8.305935">
        <ele>11.945</ele>
        <time>2019-06-20T15:35:56Z</time>
      </trkpt>
      <trkpt lat="43.512575" lon="-8.306101">
        <ele>11.722</ele>
        <time>2019-06-20T15:35:57Z</time>
      </trkpt>
      <trkpt lat="43.512634" lon="-8.306293">
        <ele>11.278</ele>
        <time>2019-06-20T15:35:58Z</time>
      </trkpt>
      <trkpt lat="43.512699" lon="-8.306504">
        <ele>10.433</ele>
        <time>2019-06-20T15:35:59Z</time>
      </trkpt>
      <trkpt lat="43.512765" lon="-8.306733">
        <ele>9.826</ele>
        <time>2019-06-20T15:36:00Z</time>
      </trkpt>
      <trkpt lat="43.512840" lon="-8.306975">
        <ele>9.108</ele>
        <time>2019-06-20T15:36:01Z</time>
      </trkpt>
      <trkpt lat="43.512913" lon="-8.307203">
        <ele>9.940</ele>
        <time>2019-06-20T15:36:02Z</time>
      </trkpt>
      <trkpt lat="43.512987" lon="-8.307397">
        <ele>10.234</ele>
        <time>2019-06-20T15:36:03Z</time>
      </trkpt>
      <trkpt lat="43.513048" lon="-8.307587">
        <ele>10.325</ele>
        <time>2019-06-20T15:36:04Z</time>
      </trkpt>
      <trkpt lat="43.513111" lon="-8.307780">
        <ele>10.891</ele>
        <time>2019-06-20T15:36:05Z</time>
      </trkpt>
      <trkpt lat="43.513168" lon="-8.307985">
        <ele>10.938</ele>
        <time>2019-06-20T15:36:06Z</time>
      </trkpt>
      <trkpt lat="43.513278" lon="-8.308173">
        <ele>11.079</ele>
        <time>2019-06-20T15:36:07Z</time>
      </trkpt>
      <trkpt lat="43.513349" lon="-8.308322">
        <ele>10.931</ele>
        <time>2019-06-20T15:36:08Z</time>
      </trkpt>
      <trkpt lat="43.513403" lon="-8.308480">
        <ele>10.998</ele>
        <time>2019-06-20T15:36:09Z</time>
      </trkpt>
      <trkpt lat="43.513429" lon="-8.308645">
        <ele>11.259</ele>
        <time>2019-06-20T15:36:10Z</time>
      </trkpt>
      <trkpt lat="43.513452" lon="-8.308794">
        <ele>12.303</ele>
        <time>2019-06-20T15:36:11Z</time>
      </trkpt>
      <trkpt lat="43.513484" lon="-8.308957">
        <ele>13.123</ele>
        <time>2019-06-20T15:36:12Z</time>
      </trkpt>
      <trkpt lat="43.513518" lon="-8.309109">
        <ele>13.508</ele>
        <time>2019-06-20T15:36:13Z</time>
      </trkpt>
      <trkpt lat="43.513547" lon="-8.309260">
        <ele>14.168</ele>
        <time>2019-06-20T15:36:14Z</time>
      </trkpt>
      <trkpt lat="43.513583" lon="-8.309442">
        <ele>14.982</ele>
        <time>2019-06-20T15:36:15Z</time>
      </trkpt>
      <trkpt lat="43.513627" lon="-8.309623">
        <ele>15.023</ele>
        <time>2019-06-20T15:36:16Z</time>
      </trkpt>
      <trkpt lat="43.513670" lon="-8.309805">
        <ele>15.559</ele>
        <time>2019-06-20T15:36:17Z</time>
      </trkpt>
      <trkpt lat="43.513723" lon="-8.309970">
        <ele>16.336</ele>
        <time>2019-06-20T15:36:18Z</time>
      </trkpt>
      <trkpt lat="43.513792" lon="-8.310197">
        <ele>18.177</ele>
        <time>2019-06-20T15:36:19Z</time>
      </trkpt>
      <trkpt lat="43.513811" lon="-8.310417">
        <ele>19.739</ele>
        <time>2019-06-20T15:36:20Z</time>
      </trkpt>
      <trkpt lat="43.513845" lon="-8.310627">
        <ele>21.196</ele>
        <time>2019-06-20T15:36:21Z</time>
      </trkpt>
      <trkpt lat="43.513893" lon="-8.310795">
        <ele>21.919</ele>
        <time>2019-06-20T15:36:22Z</time>
      </trkpt>
      <trkpt lat="43.513935" lon="-8.310937">
        <ele>22.909</ele>
        <time>2019-06-20T15:36:23Z</time>
      </trkpt>
      <trkpt lat="43.513927" lon="-8.311035">
        <ele>23.619</ele>
        <time>2019-06-20T15:36:24Z</time>
      </trkpt>
      <trkpt lat="43.513927" lon="-8.311141">
        <ele>24.408</ele>
        <time>2019-06-20T15:36:25Z</time>
      </trkpt>
      <trkpt lat="43.513970" lon="-8.311245">
        <ele>25.614</ele>
        <time>2019-06-20T15:36:26Z</time>
      </trkpt>
      <trkpt lat="43.513961" lon="-8.311333">
        <ele>26.418</ele>
        <time>2019-06-20T15:36:27Z</time>
      </trkpt>
      <trkpt lat="43.513995" lon="-8.311418">
        <ele>27.359</ele>
        <time>2019-06-20T15:36:28Z</time>
      </trkpt>
      <trkpt lat="43.513925" lon="-8.311495">
        <ele>28.135</ele>
        <time>2019-06-20T15:36:29Z</time>
      </trkpt>
      <trkpt lat="43.513865" lon="-8.311581">
        <ele>28.922</ele>
        <time>2019-06-20T15:36:30Z</time>
      </trkpt>
      <trkpt lat="43.513787" lon="-8.311674">
        <ele>29.313</ele>
        <time>2019-06-20T15:36:31Z</time>
      </trkpt>
      <trkpt lat="43.513717" lon="-8.311766">
        <ele>29.595</ele>
        <time>2019-06-20T15:36:32Z</time>
      </trkpt>
      <trkpt lat="43.513589" lon="-8.311836">
        <ele>29.112</ele>
        <time>2019-06-20T15:36:33Z</time>
      </trkpt>
      <trkpt lat="43.513466" lon="-8.311916">
        <ele>28.885</ele>
        <time>2019-06-20T15:36:34Z</time>
      </trkpt>
      <trkpt lat="43.513325" lon="-8.312006">
        <ele>28.789</ele>
        <time>2019-06-20T15:36:35Z</time>
      </trkpt>
      <trkpt lat="43.513184" lon="-8.312108">
        <ele>29.117</ele>
        <time>2019-06-20T15:36:36Z</time>
      </trkpt>
      <trkpt lat="43.513044" lon="-8.312214">
        <ele>28.908</ele>
        <time>2019-06-20T15:36:37Z</time>
      </trkpt>
      <trkpt lat="43.512883" lon="-8.312337">
        <ele>28.871</ele>
        <time>2019-06-20T15:36:38Z</time>
      </trkpt>
      <trkpt lat="43.512726" lon="-8.312474">
        <ele>27.455</ele>
        <time>2019-06-20T15:36:39Z</time>
      </trkpt>
      <trkpt lat="43.512573" lon="-8.312603">
        <ele>26.576</ele>
        <time>2019-06-20T15:36:40Z</time>
      </trkpt>
      <trkpt lat="43.512432" lon="-8.312713">
        <ele>26.232</ele>
        <time>2019-06-20T15:36:41Z</time>
      </trkpt>
      <trkpt lat="43.512281" lon="-8.312838">
        <ele>26.699</ele>
        <time>2019-06-20T15:36:42Z</time>
      </trkpt>
      <trkpt lat="43.512133" lon="-8.312946">
        <ele>26.930</ele>
        <time>2019-06-20T15:36:43Z</time>
      </trkpt>
      <trkpt lat="43.511976" lon="-8.313046">
        <ele>27.032</ele>
        <time>2019-06-20T15:36:44Z</time>
      </trkpt>
      <trkpt lat="43.511806" lon="-8.313165">
        <ele>27.169</ele>
        <time>2019-06-20T15:36:45Z</time>
      </trkpt>
      <trkpt lat="43.511641" lon="-8.313253">
        <ele>26.798</ele>
        <time>2019-06-20T15:36:46Z</time>
      </trkpt>
      <trkpt lat="43.511483" lon="-8.313344">
        <ele>27.115</ele>
        <time>2019-06-20T15:36:47Z</time>
      </trkpt>
      <trkpt lat="43.511313" lon="-8.313421">
        <ele>27.326</ele>
        <time>2019-06-20T15:36:48Z</time>
      </trkpt>
      <trkpt lat="43.511110" lon="-8.313497">
        <ele>27.608</ele>
        <time>2019-06-20T15:36:49Z</time>
      </trkpt>
      <trkpt lat="43.510911" lon="-8.313556">
        <ele>28.532</ele>
        <time>2019-06-20T15:36:50Z</time>
      </trkpt>
      <trkpt lat="43.510721" lon="-8.313581">
        <ele>28.586</ele>
        <time>2019-06-20T15:36:51Z</time>
      </trkpt>
      <trkpt lat="43.510531" lon="-8.313629">
        <ele>28.067</ele>
        <time>2019-06-20T15:36:52Z</time>
      </trkpt>
      <trkpt lat="43.510299" lon="-8.313685">
        <ele>27.393</ele>
        <time>2019-06-20T15:36:53Z</time>
      </trkpt>
      <trkpt lat="43.510060" lon="-8.313739">
        <ele>27.180</ele>
        <time>2019-06-20T15:36:54Z</time>
      </trkpt>
      <trkpt lat="43.509852" lon="-8.313773">
        <ele>27.011</ele>
        <time>2019-06-20T15:36:55Z</time>
      </trkpt>
      <trkpt lat="43.509630" lon="-8.313827">
        <ele>27.483</ele>
        <time>2019-06-20T15:36:56Z</time>
      </trkpt>
      <trkpt lat="43.509418" lon="-8.313846">
        <ele>28.650</ele>
        <time>2019-06-20T15:36:57Z</time>
      </trkpt>
      <trkpt lat="43.509190" lon="-8.313874">
        <ele>29.859</ele>
        <time>2019-06-20T15:36:58Z</time>
      </trkpt>
      <trkpt lat="43.508947" lon="-8.313903">
        <ele>31.903</ele>
        <time>2019-06-20T15:36:59Z</time>
      </trkpt>
      <trkpt lat="43.508737" lon="-8.313920">
        <ele>33.823</ele>
        <time>2019-06-20T15:37:00Z</time>
      </trkpt>
      <trkpt lat="43.508521" lon="-8.313931">
        <ele>34.908</ele>
        <time>2019-06-20T15:37:01Z</time>
      </trkpt>
      <trkpt lat="43.508322" lon="-8.313946">
        <ele>35.468</ele>
        <time>2019-06-20T15:37:02Z</time>
      </trkpt>
      <trkpt lat="43.508113" lon="-8.313963">
        <ele>35.732</ele>
        <time>2019-06-20T15:37:03Z</time>
      </trkpt>
      <trkpt lat="43.507909" lon="-8.313955">
        <ele>34.693</ele>
        <time>2019-06-20T15:37:04Z</time>
      </trkpt>
      <trkpt lat="43.507683" lon="-8.313993">
        <ele>35.159</ele>
        <time>2019-06-20T15:37:05Z</time>
      </trkpt>
      <trkpt lat="43.507469" lon="-8.314047">
        <ele>36.146</ele>
        <time>2019-06-20T15:37:06Z</time>
      </trkpt>
      <trkpt lat="43.507255" lon="-8.314064">
        <ele>34.527</ele>
        <time>2019-06-20T15:37:07Z</time>
      </trkpt>
      <trkpt lat="43.507071" lon="-8.314081">
        <ele>32.629</ele>
        <time>2019-06-20T15:37:08Z</time>
      </trkpt>
      <trkpt lat="43.506844" lon="-8.314114">
        <ele>30.836</ele>
        <time>2019-06-20T15:37:09Z</time>
      </trkpt>
      <trkpt lat="43.506631" lon="-8.314234">
        <ele>31.381</ele>
        <time>2019-06-20T15:37:10Z</time>
      </trkpt>
      <trkpt lat="43.506423" lon="-8.314355">
        <ele>33.161</ele>
        <time>2019-06-20T15:37:11Z</time>
      </trkpt>
      <trkpt lat="43.506229" lon="-8.314523">
        <ele>34.117</ele>
        <time>2019-06-20T15:37:12Z</time>
      </trkpt>
      <trkpt lat="43.506025" lon="-8.314619">
        <ele>34.108</ele>
        <time>2019-06-20T15:37:13Z</time>
      </trkpt>
      <trkpt lat="43.505865" lon="-8.314720">
        <ele>34.211</ele>
        <time>2019-06-20T15:37:14Z</time>
      </trkpt>
      <trkpt lat="43.505687" lon="-8.314842">
        <ele>33.845</ele>
        <time>2019-06-20T15:37:15Z</time>
      </trkpt>
      <trkpt lat="43.505534" lon="-8.314938">
        <ele>33.496</ele>
        <time>2019-06-20T15:37:16Z</time>
      </trkpt>
      <trkpt lat="43.505381" lon="-8.315042">
        <ele>32.192</ele>
        <time>2019-06-20T15:37:17Z</time>
      </trkpt>
      <trkpt lat="43.505227" lon="-8.315133">
        <ele>30.699</ele>
        <time>2019-06-20T15:37:18Z</time>
      </trkpt>
      <trkpt lat="43.505116" lon="-8.315196">
        <ele>29.870</ele>
        <time>2019-06-20T15:37:19Z</time>
      </trkpt>
      <trkpt lat="43.505011" lon="-8.315278">
        <ele>29.132</ele>
        <time>2019-06-20T15:37:20Z</time>
      </trkpt>
      <trkpt lat="43.504924" lon="-8.315338">
        <ele>28.619</ele>
        <time>2019-06-20T15:37:21Z</time>
      </trkpt>
      <trkpt lat="43.504830" lon="-8.315428">
        <ele>27.714</ele>
        <time>2019-06-20T15:37:22Z</time>
      </trkpt>
      <trkpt lat="43.504711" lon="-8.315511">
        <ele>26.254</ele>
        <time>2019-06-20T15:37:23Z</time>
      </trkpt>
      <trkpt lat="43.504610" lon="-8.315579">
        <ele>25.109</ele>
        <time>2019-06-20T15:37:24Z</time>
      </trkpt>
      <trkpt lat="43.504519" lon="-8.315610">
        <ele>24.208</ele>
        <time>2019-06-20T15:37:25Z</time>
      </trkpt>
      <trkpt lat="43.504423" lon="-8.315671">
        <ele>23.084</ele>
        <time>2019-06-20T15:37:26Z</time>
      </trkpt>
      <trkpt lat="43.504345" lon="-8.315727">
        <ele>22.148</ele>
        <time>2019-06-20T15:37:27Z</time>
      </trkpt>
      <trkpt lat="43.504279" lon="-8.315765">
        <ele>21.329</ele>
        <time>2019-06-20T15:37:28Z</time>
      </trkpt>
      <trkpt lat="43.504217" lon="-8.315807">
        <ele>20.625</ele>
        <time>2019-06-20T15:37:29Z</time>
      </trkpt>
      <trkpt lat="43.504149" lon="-8.315866">
        <ele>19.982</ele>
        <time>2019-06-20T15:37:30Z</time>
      </trkpt>
      <trkpt lat="43.504066" lon="-8.315913">
        <ele>19.543</ele>
        <time>2019-06-20T15:37:31Z</time>
      </trkpt>
      <trkpt lat="43.504002" lon="-8.315924">
        <ele>19.275</ele>
        <time>2019-06-20T15:37:33Z</time>
      </trkpt>
      <trkpt lat="43.503920" lon="-8.315972">
        <ele>18.722</ele>
        <time>2019-06-20T15:37:35Z</time>
      </trkpt>
      <trkpt lat="43.503873" lon="-8.316000">
        <ele>18.336</ele>
        <time>2019-06-20T15:37:51Z</time>
      </trkpt>
      <trkpt lat="43.503726" lon="-8.316024">
        <ele>17.317</ele>
        <time>2019-06-20T15:37:54Z</time>
      </trkpt>
      <trkpt lat="43.503668" lon="-8.315984">
        <ele>17.218</ele>
        <time>2019-06-20T15:37:55Z</time>
      </trkpt>
      <trkpt lat="43.503569" lon="-8.315954">
        <ele>16.808</ele>
        <time>2019-06-20T15:37:56Z</time>
      </trkpt>
      <trkpt lat="43.503493" lon="-8.315943">
        <ele>16.486</ele>
        <time>2019-06-20T15:37:57Z</time>
      </trkpt>
      <trkpt lat="43.503352" lon="-8.315967">
        <ele>15.210</ele>
        <time>2019-06-20T15:37:58Z</time>
      </trkpt>
      <trkpt lat="43.503193" lon="-8.315979">
        <ele>14.431</ele>
        <time>2019-06-20T15:37:59Z</time>
      </trkpt>
      <trkpt lat="43.502983" lon="-8.315888">
        <ele>14.337</ele>
        <time>2019-06-20T15:38:00Z</time>
      </trkpt>
      <trkpt lat="43.502830" lon="-8.315828">
        <ele>14.294</ele>
        <time>2019-06-20T15:38:01Z</time>
      </trkpt>
      <trkpt lat="43.502670" lon="-8.315779">
        <ele>13.485</ele>
        <time>2019-06-20T15:38:02Z</time>
      </trkpt>
      <trkpt lat="43.502470" lon="-8.315762">
        <ele>12.317</ele>
        <time>2019-06-20T15:38:03Z</time>
      </trkpt>
      <trkpt lat="43.502299" lon="-8.315750">
        <ele>12.384</ele>
        <time>2019-06-20T15:38:04Z</time>
      </trkpt>
      <trkpt lat="43.502134" lon="-8.315717">
        <ele>11.958</ele>
        <time>2019-06-20T15:38:05Z</time>
      </trkpt>
      <trkpt lat="43.501967" lon="-8.315695">
        <ele>11.152</ele>
        <time>2019-06-20T15:38:06Z</time>
      </trkpt>
      <trkpt lat="43.501812" lon="-8.315673">
        <ele>10.417</ele>
        <time>2019-06-20T15:38:07Z</time>
      </trkpt>
      <trkpt lat="43.501654" lon="-8.315599">
        <ele>9.808</ele>
        <time>2019-06-20T15:38:08Z</time>
      </trkpt>
      <trkpt lat="43.501490" lon="-8.315583">
        <ele>9.358</ele>
        <time>2019-06-20T15:38:09Z</time>
      </trkpt>
      <trkpt lat="43.501382" lon="-8.315529">
        <ele>9.192</ele>
        <time>2019-06-20T15:38:10Z</time>
      </trkpt>
      <trkpt lat="43.501247" lon="-8.315525">
        <ele>9.163</ele>
        <time>2019-06-20T15:38:11Z</time>
      </trkpt>
      <trkpt lat="43.501104" lon="-8.315510">
        <ele>9.059</ele>
        <time>2019-06-20T15:38:12Z</time>
      </trkpt>
      <trkpt lat="43.500958" lon="-8.315502">
        <ele>9.026</ele>
        <time>2019-06-20T15:38:13Z</time>
      </trkpt>
      <trkpt lat="43.500836" lon="-8.315428">
        <ele>9.037</ele>
        <time>2019-06-20T15:38:14Z</time>
      </trkpt>
      <trkpt lat="43.500714" lon="-8.315317">
        <ele>9.449</ele>
        <time>2019-06-20T15:38:15Z</time>
      </trkpt>
      <trkpt lat="43.500621" lon="-8.315170">
        <ele>9.986</ele>
        <time>2019-06-20T15:38:16Z</time>
      </trkpt>
      <trkpt lat="43.500499" lon="-8.315033">
        <ele>10.272</ele>
        <time>2019-06-20T15:38:17Z</time>
      </trkpt>
      <trkpt lat="43.500359" lon="-8.314914">
        <ele>11.013</ele>
        <time>2019-06-20T15:38:18Z</time>
      </trkpt>
      <trkpt lat="43.500257" lon="-8.314719">
        <ele>12.014</ele>
        <time>2019-06-20T15:38:19Z</time>
      </trkpt>
      <trkpt lat="43.500117" lon="-8.314575">
        <ele>12.508</ele>
        <time>2019-06-20T15:38:20Z</time>
      </trkpt>
      <trkpt lat="43.499984" lon="-8.314365">
        <ele>13.750</ele>
        <time>2019-06-20T15:38:21Z</time>
      </trkpt>
      <trkpt lat="43.499847" lon="-8.314186">
        <ele>15.484</ele>
        <time>2019-06-20T15:38:22Z</time>
      </trkpt>
      <trkpt lat="43.499805" lon="-8.313940">
        <ele>17.365</ele>
        <time>2019-06-20T15:38:23Z</time>
      </trkpt>
      <trkpt lat="43.499720" lon="-8.313751">
        <ele>18.581</ele>
        <time>2019-06-20T15:38:24Z</time>
      </trkpt>
      <trkpt lat="43.499534" lon="-8.313623">
        <ele>21.078</ele>
        <time>2019-06-20T15:38:25Z</time>
      </trkpt>
      <trkpt lat="43.499446" lon="-8.313475">
        <ele>23.029</ele>
        <time>2019-06-20T15:38:26Z</time>
      </trkpt>
      <trkpt lat="43.499339" lon="-8.313427">
        <ele>24.851</ele>
        <time>2019-06-20T15:38:27Z</time>
      </trkpt>
      <trkpt lat="43.499236" lon="-8.313342">
        <ele>26.978</ele>
        <time>2019-06-20T15:38:28Z</time>
      </trkpt>
      <trkpt lat="43.499161" lon="-8.313361">
        <ele>28.024</ele>
        <time>2019-06-20T15:38:29Z</time>
      </trkpt>
      <trkpt lat="43.499049" lon="-8.313346">
        <ele>31.304</ele>
        <time>2019-06-20T15:38:30Z</time>
      </trkpt>
      <trkpt lat="43.498904" lon="-8.313521">
        <ele>32.914</ele>
        <time>2019-06-20T15:38:31Z</time>
      </trkpt>
      <trkpt lat="43.498785" lon="-8.313585">
        <ele>35.408</ele>
        <time>2019-06-20T15:38:32Z</time>
      </trkpt>
      <trkpt lat="43.498695" lon="-8.313749">
        <ele>36.215</ele>
        <time>2019-06-20T15:38:33Z</time>
      </trkpt>
      <trkpt lat="43.498550" lon="-8.313925">
        <ele>38.139</ele>
        <time>2019-06-20T15:38:34Z</time>
      </trkpt>
      <trkpt lat="43.498464" lon="-8.314036">
        <ele>38.820</ele>
        <time>2019-06-20T15:38:35Z</time>
      </trkpt>
      <trkpt lat="43.498350" lon="-8.314138">
        <ele>40.016</ele>
        <time>2019-06-20T15:38:36Z</time>
      </trkpt>
      <trkpt lat="43.498243" lon="-8.314154">
        <ele>41.593</ele>
        <time>2019-06-20T15:38:37Z</time>
      </trkpt>
      <trkpt lat="43.498109" lon="-8.314222">
        <ele>42.894</ele>
        <time>2019-06-20T15:38:38Z</time>
      </trkpt>
      <trkpt lat="43.498025" lon="-8.314184">
        <ele>44.066</ele>
        <time>2019-06-20T15:38:39Z</time>
      </trkpt>
      <trkpt lat="43.497946" lon="-8.314104">
        <ele>44.793</ele>
        <time>2019-06-20T15:38:40Z</time>
      </trkpt>
      <trkpt lat="43.497804" lon="-8.314055">
        <ele>45.029</ele>
        <time>2019-06-20T15:38:41Z</time>
      </trkpt>
      <trkpt lat="43.497752" lon="-8.313947">
        <ele>44.900</ele>
        <time>2019-06-20T15:38:42Z</time>
      </trkpt>
      <trkpt lat="43.497689" lon="-8.313835">
        <ele>44.420</ele>
        <time>2019-06-20T15:38:43Z</time>
      </trkpt>
      <trkpt lat="43.497690" lon="-8.313722">
        <ele>43.908</ele>
        <time>2019-06-20T15:38:44Z</time>
      </trkpt>
      <trkpt lat="43.497669" lon="-8.313626">
        <ele>43.355</ele>
        <time>2019-06-20T15:38:45Z</time>
      </trkpt>
      <trkpt lat="43.497689" lon="-8.313533">
        <ele>43.249</ele>
        <time>2019-06-20T15:38:46Z</time>
      </trkpt>
      <trkpt lat="43.497657" lon="-8.313408">
        <ele>42.510</ele>
        <time>2019-06-20T15:38:48Z</time>
      </trkpt>
      <trkpt lat="43.497608" lon="-8.313392">
        <ele>41.886</ele>
        <time>2019-06-20T15:38:52Z</time>
      </trkpt>
      <trkpt lat="43.497547" lon="-8.313393">
        <ele>41.073</ele>
        <time>2019-06-20T15:38:54Z</time>
      </trkpt>
      <trkpt lat="43.497579" lon="-8.313347">
        <ele>41.284</ele>
        <time>2019-06-20T15:38:55Z</time>
      </trkpt>
      <trkpt lat="43.497490" lon="-8.313332">
        <ele>39.986</ele>
        <time>2019-06-20T15:38:57Z</time>
      </trkpt>
      <trkpt lat="43.497438" lon="-8.313330">
        <ele>39.613</ele>
        <time>2019-06-20T15:38:58Z</time>
      </trkpt>
      <trkpt lat="43.497373" lon="-8.313343">
        <ele>39.119</ele>
        <time>2019-06-20T15:38:59Z</time>
      </trkpt>
      <trkpt lat="43.497299" lon="-8.313342">
        <ele>38.609</ele>
        <time>2019-06-20T15:39:00Z</time>
      </trkpt>
      <trkpt lat="43.497190" lon="-8.313310">
        <ele>37.719</ele>
        <time>2019-06-20T15:39:01Z</time>
      </trkpt>
      <trkpt lat="43.497104" lon="-8.313284">
        <ele>36.908</ele>
        <time>2019-06-20T15:39:02Z</time>
      </trkpt>
      <trkpt lat="43.496988" lon="-8.313253">
        <ele>35.824</ele>
        <time>2019-06-20T15:39:03Z</time>
      </trkpt>
      <trkpt lat="43.496933" lon="-8.313128">
        <ele>34.348</ele>
        <time>2019-06-20T15:39:04Z</time>
      </trkpt>
      <trkpt lat="43.496872" lon="-8.313036">
        <ele>32.649</ele>
        <time>2019-06-20T15:39:05Z</time>
      </trkpt>
      <trkpt lat="43.496813" lon="-8.312916">
        <ele>30.655</ele>
        <time>2019-06-20T15:39:06Z</time>
      </trkpt>
      <trkpt lat="43.496739" lon="-8.312813">
        <ele>28.612</ele>
        <time>2019-06-20T15:39:07Z</time>
      </trkpt>
      <trkpt lat="43.496665" lon="-8.312628">
        <ele>26.463</ele>
        <time>2019-06-20T15:39:08Z</time>
      </trkpt>
      <trkpt lat="43.496598" lon="-8.312459">
        <ele>25.055</ele>
        <time>2019-06-20T15:39:09Z</time>
      </trkpt>
      <trkpt lat="43.496546" lon="-8.312315">
        <ele>24.312</ele>
        <time>2019-06-20T15:39:10Z</time>
      </trkpt>
      <trkpt lat="43.496463" lon="-8.312199">
        <ele>23.289</ele>
        <time>2019-06-20T15:39:11Z</time>
      </trkpt>
      <trkpt lat="43.496389" lon="-8.312077">
        <ele>22.506</ele>
        <time>2019-06-20T15:39:12Z</time>
      </trkpt>
      <trkpt lat="43.496289" lon="-8.311981">
        <ele>21.726</ele>
        <time>2019-06-20T15:39:13Z</time>
      </trkpt>
      <trkpt lat="43.496176" lon="-8.311907">
        <ele>21.108</ele>
        <time>2019-06-20T15:39:14Z</time>
      </trkpt>
      <trkpt lat="43.496075" lon="-8.311834">
        <ele>20.951</ele>
        <time>2019-06-20T15:39:15Z</time>
      </trkpt>
      <trkpt lat="43.495965" lon="-8.311771">
        <ele>20.845</ele>
        <time>2019-06-20T15:39:16Z</time>
      </trkpt>
      <trkpt lat="43.495873" lon="-8.311683">
        <ele>21.176</ele>
        <time>2019-06-20T15:39:17Z</time>
      </trkpt>
      <trkpt lat="43.495752" lon="-8.311643">
        <ele>21.352</ele>
        <time>2019-06-20T15:39:18Z</time>
      </trkpt>
      <trkpt lat="43.495645" lon="-8.311607">
        <ele>21.769</ele>
        <time>2019-06-20T15:39:19Z</time>
      </trkpt>
      <trkpt lat="43.495519" lon="-8.311583">
        <ele>22.060</ele>
        <time>2019-06-20T15:39:20Z</time>
      </trkpt>
      <trkpt lat="43.495394" lon="-8.311547">
        <ele>22.422</ele>
        <time>2019-06-20T15:39:21Z</time>
      </trkpt>
      <trkpt lat="43.495289" lon="-8.311509">
        <ele>22.699</ele>
        <time>2019-06-20T15:39:22Z</time>
      </trkpt>
      <trkpt lat="43.495194" lon="-8.311450">
        <ele>22.854</ele>
        <time>2019-06-20T15:39:23Z</time>
      </trkpt>
      <trkpt lat="43.495097" lon="-8.311385">
        <ele>23.056</ele>
        <time>2019-06-20T15:39:24Z</time>
      </trkpt>
      <trkpt lat="43.495045" lon="-8.311263">
        <ele>23.511</ele>
        <time>2019-06-20T15:39:25Z</time>
      </trkpt>
      <trkpt lat="43.494956" lon="-8.311169">
        <ele>23.608</ele>
        <time>2019-06-20T15:39:26Z</time>
      </trkpt>
      <trkpt lat="43.494926" lon="-8.311064">
        <ele>23.938</ele>
        <time>2019-06-20T15:39:27Z</time>
      </trkpt>
      <trkpt lat="43.494871" lon="-8.310977">
        <ele>24.062</ele>
        <time>2019-06-20T15:39:28Z</time>
      </trkpt>
      <trkpt lat="43.494821" lon="-8.310859">
        <ele>24.343</ele>
        <time>2019-06-20T15:39:29Z</time>
      </trkpt>
      <trkpt lat="43.494771" lon="-8.310736">
        <ele>24.689</ele>
        <time>2019-06-20T15:39:30Z</time>
      </trkpt>
      <trkpt lat="43.494720" lon="-8.310608">
        <ele>24.856</ele>
        <time>2019-06-20T15:39:31Z</time>
      </trkpt>
      <trkpt lat="43.494664" lon="-8.310417">
        <ele>24.797</ele>
        <time>2019-06-20T15:39:32Z</time>
      </trkpt>
      <trkpt lat="43.494600" lon="-8.310213">
        <ele>23.939</ele>
        <time>2019-06-20T15:39:33Z</time>
      </trkpt>
      <trkpt lat="43.494543" lon="-8.310049">
        <ele>22.716</ele>
        <time>2019-06-20T15:39:34Z</time>
      </trkpt>
      <trkpt lat="43.494488" lon="-8.309869">
        <ele>20.477</ele>
        <time>2019-06-20T15:39:35Z</time>
      </trkpt>
      <trkpt lat="43.494441" lon="-8.309683">
        <ele>18.061</ele>
        <time>2019-06-20T15:39:36Z</time>
      </trkpt>
      <trkpt lat="43.494386" lon="-8.309509">
        <ele>17.227</ele>
        <time>2019-06-20T15:39:37Z</time>
      </trkpt>
      <trkpt lat="43.494329" lon="-8.309330">
        <ele>16.108</ele>
        <time>2019-06-20T15:39:38Z</time>
      </trkpt>
      <trkpt lat="43.494310" lon="-8.309116">
        <ele>15.440</ele>
        <time>2019-06-20T15:39:39Z</time>
      </trkpt>
      <trkpt lat="43.494257" lon="-8.308896">
        <ele>14.374</ele>
        <time>2019-06-20T15:39:40Z</time>
      </trkpt>
      <trkpt lat="43.494235" lon="-8.308685">
        <ele>14.245</ele>
        <time>2019-06-20T15:39:41Z</time>
      </trkpt>
      <trkpt lat="43.494195" lon="-8.308472">
        <ele>14.171</ele>
        <time>2019-06-20T15:39:42Z</time>
      </trkpt>
      <trkpt lat="43.494118" lon="-8.308312">
        <ele>13.438</ele>
        <time>2019-06-20T15:39:43Z</time>
      </trkpt>
      <trkpt lat="43.494035" lon="-8.308190">
        <ele>12.389</ele>
        <time>2019-06-20T15:39:44Z</time>
      </trkpt>
      <trkpt lat="43.493957" lon="-8.308040">
        <ele>11.561</ele>
        <time>2019-06-20T15:39:45Z</time>
      </trkpt>
      <trkpt lat="43.493851" lon="-8.307890">
        <ele>10.748</ele>
        <time>2019-06-20T15:39:46Z</time>
      </trkpt>
      <trkpt lat="43.493761" lon="-8.307750">
        <ele>10.115</ele>
        <time>2019-06-20T15:39:47Z</time>
      </trkpt>
      <trkpt lat="43.493676" lon="-8.307576">
        <ele>9.565</ele>
        <time>2019-06-20T15:39:48Z</time>
      </trkpt>
      <trkpt lat="43.493600" lon="-8.307390">
        <ele>8.511</ele>
        <time>2019-06-20T15:39:49Z</time>
      </trkpt>
      <trkpt lat="43.493535" lon="-8.307187">
        <ele>7.808</ele>
        <time>2019-06-20T15:39:50Z</time>
      </trkpt>
      <trkpt lat="43.493479" lon="-8.306978">
        <ele>8.094</ele>
        <time>2019-06-20T15:39:51Z</time>
      </trkpt>
      <trkpt lat="43.493415" lon="-8.306775">
        <ele>8.258</ele>
        <time>2019-06-20T15:39:52Z</time>
      </trkpt>
      <trkpt lat="43.493357" lon="-8.306557">
        <ele>8.599</ele>
        <time>2019-06-20T15:39:53Z</time>
      </trkpt>
      <trkpt lat="43.493305" lon="-8.306371">
        <ele>9.065</ele>
        <time>2019-06-20T15:39:54Z</time>
      </trkpt>
      <trkpt lat="43.493293" lon="-8.306102">
        <ele>9.042</ele>
        <time>2019-06-20T15:39:55Z</time>
      </trkpt>
      <trkpt lat="43.493251" lon="-8.305898">
        <ele>8.893</ele>
        <time>2019-06-20T15:39:56Z</time>
      </trkpt>
      <trkpt lat="43.493206" lon="-8.305670">
        <ele>8.565</ele>
        <time>2019-06-20T15:39:57Z</time>
      </trkpt>
      <trkpt lat="43.493152" lon="-8.305449">
        <ele>8.712</ele>
        <time>2019-06-20T15:39:58Z</time>
      </trkpt>
      <trkpt lat="43.493104" lon="-8.305214">
        <ele>9.235</ele>
        <time>2019-06-20T15:39:59Z</time>
      </trkpt>
      <trkpt lat="43.493058" lon="-8.304998">
        <ele>9.086</ele>
        <time>2019-06-20T15:40:00Z</time>
      </trkpt>
      <trkpt lat="43.493017" lon="-8.304795">
        <ele>9.514</ele>
        <time>2019-06-20T15:40:01Z</time>
      </trkpt>
      <trkpt lat="43.492958" lon="-8.304581">
        <ele>9.308</ele>
        <time>2019-06-20T15:40:02Z</time>
      </trkpt>
      <trkpt lat="43.492896" lon="-8.304407">
        <ele>8.996</ele>
        <time>2019-06-20T15:40:03Z</time>
      </trkpt>
      <trkpt lat="43.492815" lon="-8.304239">
        <ele>8.470</ele>
        <time>2019-06-20T15:40:04Z</time>
      </trkpt>
      <trkpt lat="43.492727" lon="-8.304102">
        <ele>8.421</ele>
        <time>2019-06-20T15:40:05Z</time>
      </trkpt>
      <trkpt lat="43.492642" lon="-8.303936">
        <ele>8.837</ele>
        <time>2019-06-20T15:40:06Z</time>
      </trkpt>
      <trkpt lat="43.492553" lon="-8.303787">
        <ele>8.794</ele>
        <time>2019-06-20T15:40:07Z</time>
      </trkpt>
      <trkpt lat="43.492458" lon="-8.303654">
        <ele>8.765</ele>
        <time>2019-06-20T15:40:08Z</time>
      </trkpt>
      <trkpt lat="43.492346" lon="-8.303572">
        <ele>8.477</ele>
        <time>2019-06-20T15:40:09Z</time>
      </trkpt>
      <trkpt lat="43.492256" lon="-8.303484">
        <ele>8.114</ele>
        <time>2019-06-20T15:40:10Z</time>
      </trkpt>
      <trkpt lat="43.492143" lon="-8.303442">
        <ele>8.364</ele>
        <time>2019-06-20T15:40:11Z</time>
      </trkpt>
      <trkpt lat="43.492062" lon="-8.303408">
        <ele>8.606</ele>
        <time>2019-06-20T15:40:12Z</time>
      </trkpt>
      <trkpt lat="43.491964" lon="-8.303457">
        <ele>8.916</ele>
        <time>2019-06-20T15:40:13Z</time>
      </trkpt>
      <trkpt lat="43.491878" lon="-8.303435">
        <ele>9.508</ele>
        <time>2019-06-20T15:40:14Z</time>
      </trkpt>
      <trkpt lat="43.491786" lon="-8.303429">
        <ele>10.169</ele>
        <time>2019-06-20T15:40:15Z</time>
      </trkpt>
      <trkpt lat="43.491703" lon="-8.303423">
        <ele>10.763</ele>
        <time>2019-06-20T15:40:16Z</time>
      </trkpt>
      <trkpt lat="43.491645" lon="-8.303312">
        <ele>11.224</ele>
        <time>2019-06-20T15:40:17Z</time>
      </trkpt>
      <trkpt lat="43.491596" lon="-8.303209">
        <ele>11.870</ele>
        <time>2019-06-20T15:40:18Z</time>
      </trkpt>
      <trkpt lat="43.491538" lon="-8.303107">
        <ele>12.447</ele>
        <time>2019-06-20T15:40:19Z</time>
      </trkpt>
      <trkpt lat="43.491474" lon="-8.303049">
        <ele>12.798</ele>
        <time>2019-06-20T15:40:20Z</time>
      </trkpt>
      <trkpt lat="43.491386" lon="-8.303021">
        <ele>12.990</ele>
        <time>2019-06-20T15:40:21Z</time>
      </trkpt>
      <trkpt lat="43.491305" lon="-8.303029">
        <ele>13.217</ele>
        <time>2019-06-20T15:40:22Z</time>
      </trkpt>
      <trkpt lat="43.491245" lon="-8.303080">
        <ele>13.595</ele>
        <time>2019-06-20T15:40:23Z</time>
      </trkpt>
      <trkpt lat="43.491171" lon="-8.303210">
        <ele>13.349</ele>
        <time>2019-06-20T15:40:24Z</time>
      </trkpt>
      <trkpt lat="43.491098" lon="-8.303291">
        <ele>13.223</ele>
        <time>2019-06-20T15:40:25Z</time>
      </trkpt>
      <trkpt lat="43.491018" lon="-8.303445">
        <ele>13.508</ele>
        <time>2019-06-20T15:40:26Z</time>
      </trkpt>
      <trkpt lat="43.490942" lon="-8.303585">
        <ele>13.792</ele>
        <time>2019-06-20T15:40:27Z</time>
      </trkpt>
      <trkpt lat="43.490851" lon="-8.303692">
        <ele>13.666</ele>
        <time>2019-06-20T15:40:28Z</time>
      </trkpt>
      <trkpt lat="43.490748" lon="-8.303824">
        <ele>13.827</ele>
        <time>2019-06-20T15:40:29Z</time>
      </trkpt>
      <trkpt lat="43.490635" lon="-8.303975">
        <ele>14.483</ele>
        <time>2019-06-20T15:40:30Z</time>
      </trkpt>
      <trkpt lat="43.490519" lon="-8.304122">
        <ele>15.280</ele>
        <time>2019-06-20T15:40:31Z</time>
      </trkpt>
      <trkpt lat="43.490400" lon="-8.304264">
        <ele>15.121</ele>
        <time>2019-06-20T15:40:32Z</time>
      </trkpt>
      <trkpt lat="43.490303" lon="-8.304401">
        <ele>15.063</ele>
        <time>2019-06-20T15:40:33Z</time>
      </trkpt>
      <trkpt lat="43.490208" lon="-8.304562">
        <ele>14.510</ele>
        <time>2019-06-20T15:40:34Z</time>
      </trkpt>
      <trkpt lat="43.490124" lon="-8.304744">
        <ele>14.129</ele>
        <time>2019-06-20T15:40:35Z</time>
      </trkpt>
      <trkpt lat="43.490021" lon="-8.304904">
        <ele>14.800</ele>
        <time>2019-06-20T15:40:36Z</time>
      </trkpt>
      <trkpt lat="43.489913" lon="-8.305093">
        <ele>15.220</ele>
        <time>2019-06-20T15:40:37Z</time>
      </trkpt>
      <trkpt lat="43.489810" lon="-8.305243">
        <ele>14.908</ele>
        <time>2019-06-20T15:40:38Z</time>
      </trkpt>
      <trkpt lat="43.489698" lon="-8.305231">
        <ele>15.765</ele>
        <time>2019-06-20T15:40:39Z</time>
      </trkpt>
      <trkpt lat="43.489558" lon="-8.305241">
        <ele>17.619</ele>
        <time>2019-06-20T15:40:40Z</time>
      </trkpt>
      <trkpt lat="43.489424" lon="-8.305218">
        <ele>19.710</ele>
        <time>2019-06-20T15:40:41Z</time>
      </trkpt>
      <trkpt lat="43.489294" lon="-8.305186">
        <ele>21.646</ele>
        <time>2019-06-20T15:40:42Z</time>
      </trkpt>
      <trkpt lat="43.489182" lon="-8.305168">
        <ele>23.253</ele>
        <time>2019-06-20T15:40:43Z</time>
      </trkpt>
      <trkpt lat="43.489073" lon="-8.305145">
        <ele>24.824</ele>
        <time>2019-06-20T15:40:44Z</time>
      </trkpt>
      <trkpt lat="43.489004" lon="-8.305212">
        <ele>25.636</ele>
        <time>2019-06-20T15:40:45Z</time>
      </trkpt>
      <trkpt lat="43.488936" lon="-8.305216">
        <ele>26.563</ele>
        <time>2019-06-20T15:40:46Z</time>
      </trkpt>
      <trkpt lat="43.488869" lon="-8.305240">
        <ele>27.415</ele>
        <time>2019-06-20T15:40:47Z</time>
      </trkpt>
      <trkpt lat="43.488780" lon="-8.305309">
        <ele>28.165</ele>
        <time>2019-06-20T15:40:48Z</time>
      </trkpt>
      <trkpt lat="43.488700" lon="-8.305367">
        <ele>28.711</ele>
        <time>2019-06-20T15:40:49Z</time>
      </trkpt>
      <trkpt lat="43.488676" lon="-8.305509">
        <ele>28.508</ele>
        <time>2019-06-20T15:40:50Z</time>
      </trkpt>
      <trkpt lat="43.488606" lon="-8.305622">
        <ele>29.174</ele>
        <time>2019-06-20T15:40:51Z</time>
      </trkpt>
      <trkpt lat="43.488540" lon="-8.305787">
        <ele>30.518</ele>
        <time>2019-06-20T15:40:52Z</time>
      </trkpt>
      <trkpt lat="43.488463" lon="-8.305919">
        <ele>32.539</ele>
        <time>2019-06-20T15:40:53Z</time>
      </trkpt>
      <trkpt lat="43.488414" lon="-8.306013">
        <ele>33.675</ele>
        <time>2019-06-20T15:40:54Z</time>
      </trkpt>
      <trkpt lat="43.488358" lon="-8.306123">
        <ele>34.772</ele>
        <time>2019-06-20T15:40:55Z</time>
      </trkpt>
      <trkpt lat="43.488277" lon="-8.306187">
        <ele>36.063</ele>
        <time>2019-06-20T15:40:56Z</time>
      </trkpt>
      <trkpt lat="43.488203" lon="-8.306262">
        <ele>37.055</ele>
        <time>2019-06-20T15:40:57Z</time>
      </trkpt>
      <trkpt lat="43.488165" lon="-8.306308">
        <ele>37.482</ele>
        <time>2019-06-20T15:40:58Z</time>
      </trkpt>
      <trkpt lat="43.488113" lon="-8.306308">
        <ele>37.735</ele>
        <time>2019-06-20T15:40:59Z</time>
      </trkpt>
      <trkpt lat="43.488050" lon="-8.306338">
        <ele>38.086</ele>
        <time>2019-06-20T15:41:00Z</time>
      </trkpt>
      <trkpt lat="43.487967" lon="-8.306354">
        <ele>38.614</ele>
        <time>2019-06-20T15:41:01Z</time>
      </trkpt>
      <trkpt lat="43.487875" lon="-8.306345">
        <ele>39.108</ele>
        <time>2019-06-20T15:41:02Z</time>
      </trkpt>
      <trkpt lat="43.487787" lon="-8.306327">
        <ele>39.566</ele>
        <time>2019-06-20T15:41:03Z</time>
      </trkpt>
      <trkpt lat="43.487703" lon="-8.306308">
        <ele>40.380</ele>
        <time>2019-06-20T15:41:04Z</time>
      </trkpt>
      <trkpt lat="43.487640" lon="-8.306264">
        <ele>40.811</ele>
        <time>2019-06-20T15:41:05Z</time>
      </trkpt>
      <trkpt lat="43.487577" lon="-8.306219">
        <ele>41.457</ele>
        <time>2019-06-20T15:41:06Z</time>
      </trkpt>
      <trkpt lat="43.487507" lon="-8.306212">
        <ele>42.364</ele>
        <time>2019-06-20T15:41:08Z</time>
      </trkpt>
      <trkpt lat="43.487451" lon="-8.306205">
        <ele>43.485</ele>
        <time>2019-06-20T15:41:09Z</time>
      </trkpt>
      <trkpt lat="43.487391" lon="-8.306127">
        <ele>44.437</ele>
        <time>2019-06-20T15:41:11Z</time>
      </trkpt>
      <trkpt lat="43.487348" lon="-8.306048">
        <ele>45.224</ele>
        <time>2019-06-20T15:41:12Z</time>
      </trkpt>
      <trkpt lat="43.487296" lon="-8.305967">
        <ele>46.087</ele>
        <time>2019-06-20T15:41:13Z</time>
      </trkpt>
      <trkpt lat="43.487252" lon="-8.305877">
        <ele>46.642</ele>
        <time>2019-06-20T15:41:14Z</time>
      </trkpt>
      <trkpt lat="43.487220" lon="-8.305763">
        <ele>47.326</ele>
        <time>2019-06-20T15:41:15Z</time>
      </trkpt>
      <trkpt lat="43.487200" lon="-8.305618">
        <ele>48.308</ele>
        <time>2019-06-20T15:41:16Z</time>
      </trkpt>
      <trkpt lat="43.487188" lon="-8.305468">
        <ele>49.241</ele>
        <time>2019-06-20T15:41:17Z</time>
      </trkpt>
      <trkpt lat="43.487192" lon="-8.305364">
        <ele>49.515</ele>
        <time>2019-06-20T15:41:18Z</time>
      </trkpt>
      <trkpt lat="43.487211" lon="-8.305258">
        <ele>49.616</ele>
        <time>2019-06-20T15:41:19Z</time>
      </trkpt>
      <trkpt lat="43.487214" lon="-8.305146">
        <ele>51.162</ele>
        <time>2019-06-20T15:41:20Z</time>
      </trkpt>
      <trkpt lat="43.487219" lon="-8.305036">
        <ele>52.699</ele>
        <time>2019-06-20T15:41:21Z</time>
      </trkpt>
      <trkpt lat="43.487265" lon="-8.304953">
        <ele>52.720</ele>
        <time>2019-06-20T15:41:22Z</time>
      </trkpt>
      <trkpt lat="43.487322" lon="-8.304809">
        <ele>53.342</ele>
        <time>2019-06-20T15:41:23Z</time>
      </trkpt>
      <trkpt lat="43.487369" lon="-8.304746">
        <ele>53.199</ele>
        <time>2019-06-20T15:41:24Z</time>
      </trkpt>
      <trkpt lat="43.487400" lon="-8.304672">
        <ele>53.293</ele>
        <time>2019-06-20T15:41:25Z</time>
      </trkpt>
      <trkpt lat="43.487489" lon="-8.304520">
        <ele>52.065</ele>
        <time>2019-06-20T15:41:26Z</time>
      </trkpt>
      <trkpt lat="43.487540" lon="-8.304436">
        <ele>51.421</ele>
        <time>2019-06-20T15:41:27Z</time>
      </trkpt>
      <trkpt lat="43.487604" lon="-8.304285">
        <ele>51.208</ele>
        <time>2019-06-20T15:41:28Z</time>
      </trkpt>
      <trkpt lat="43.487677" lon="-8.304157">
        <ele>50.092</ele>
        <time>2019-06-20T15:41:29Z</time>
      </trkpt>
      <trkpt lat="43.487763" lon="-8.303900">
        <ele>49.316</ele>
        <time>2019-06-20T15:41:30Z</time>
      </trkpt>
      <trkpt lat="43.487853" lon="-8.303786">
        <ele>48.837</ele>
        <time>2019-06-20T15:41:31Z</time>
      </trkpt>
      <trkpt lat="43.487866" lon="-8.303648">
        <ele>50.013</ele>
        <time>2019-06-20T15:41:32Z</time>
      </trkpt>
      <trkpt lat="43.487927" lon="-8.303457">
        <ele>51.030</ele>
        <time>2019-06-20T15:41:33Z</time>
      </trkpt>
      <trkpt lat="43.487965" lon="-8.303277">
        <ele>52.071</ele>
        <time>2019-06-20T15:41:34Z</time>
      </trkpt>
      <trkpt lat="43.487957" lon="-8.303085">
        <ele>53.683</ele>
        <time>2019-06-20T15:41:35Z</time>
      </trkpt>
      <trkpt lat="43.487967" lon="-8.302911">
        <ele>54.390</ele>
        <time>2019-06-20T15:41:36Z</time>
      </trkpt>
      <trkpt lat="43.487951" lon="-8.302743">
        <ele>55.513</ele>
        <time>2019-06-20T15:41:37Z</time>
      </trkpt>
      <trkpt lat="43.487978" lon="-8.302553">
        <ele>56.343</ele>
        <time>2019-06-20T15:41:38Z</time>
      </trkpt>
      <trkpt lat="43.488017" lon="-8.302393">
        <ele>56.307</ele>
        <time>2019-06-20T15:41:39Z</time>
      </trkpt>
      <trkpt lat="43.488051" lon="-8.302232">
        <ele>56.108</ele>
        <time>2019-06-20T15:41:40Z</time>
      </trkpt>
      <trkpt lat="43.488066" lon="-8.302078">
        <ele>56.984</ele>
        <time>2019-06-20T15:41:41Z</time>
      </trkpt>
      <trkpt lat="43.488102" lon="-8.301908">
        <ele>57.318</ele>
        <time>2019-06-20T15:41:42Z</time>
      </trkpt>
      <trkpt lat="43.488124" lon="-8.301780">
        <ele>57.449</ele>
        <time>2019-06-20T15:41:43Z</time>
      </trkpt>
      <trkpt lat="43.488151" lon="-8.301660">
        <ele>57.375</ele>
        <time>2019-06-20T15:41:44Z</time>
      </trkpt>
      <trkpt lat="43.488160" lon="-8.301561">
        <ele>57.762</ele>
        <time>2019-06-20T15:41:45Z</time>
      </trkpt>
      <trkpt lat="43.488189" lon="-8.301436">
        <ele>57.983</ele>
        <time>2019-06-20T15:41:46Z</time>
      </trkpt>
      <trkpt lat="43.488220" lon="-8.301314">
        <ele>57.925</ele>
        <time>2019-06-20T15:41:47Z</time>
      </trkpt>
      <trkpt lat="43.488278" lon="-8.301195">
        <ele>57.512</ele>
        <time>2019-06-20T15:41:48Z</time>
      </trkpt>
      <trkpt lat="43.488311" lon="-8.301094">
        <ele>57.543</ele>
        <time>2019-06-20T15:41:49Z</time>
      </trkpt>
      <trkpt lat="43.488336" lon="-8.301003">
        <ele>57.364</ele>
        <time>2019-06-20T15:41:50Z</time>
      </trkpt>
      <trkpt lat="43.488393" lon="-8.300893">
        <ele>56.710</ele>
        <time>2019-06-20T15:41:51Z</time>
      </trkpt>
      <trkpt lat="43.488403" lon="-8.300824">
        <ele>56.908</ele>
        <time>2019-06-20T15:41:52Z</time>
      </trkpt>
      <trkpt lat="43.488443" lon="-8.300719">
        <ele>57.317</ele>
        <time>2019-06-20T15:41:53Z</time>
      </trkpt>
      <trkpt lat="43.488506" lon="-8.300568">
        <ele>57.591</ele>
        <time>2019-06-20T15:41:54Z</time>
      </trkpt>
      <trkpt lat="43.488540" lon="-8.300485">
        <ele>57.942</ele>
        <time>2019-06-20T15:41:55Z</time>
      </trkpt>
      <trkpt lat="43.488563" lon="-8.300419">
        <ele>58.348</ele>
        <time>2019-06-20T15:41:56Z</time>
      </trkpt>
      <trkpt lat="43.488586" lon="-8.300332">
        <ele>58.945</ele>
        <time>2019-06-20T15:41:58Z</time>
      </trkpt>
      <trkpt lat="43.488598" lon="-8.300260">
        <ele>59.716</ele>
        <time>2019-06-20T15:42:00Z</time>
      </trkpt>
      <trkpt lat="43.488644" lon="-8.300187">
        <ele>59.828</ele>
        <time>2019-06-20T15:42:02Z</time>
      </trkpt>
      <trkpt lat="43.488678" lon="-8.300078">
        <ele>60.855</ele>
        <time>2019-06-20T15:42:08Z</time>
      </trkpt>
      <trkpt lat="43.488729" lon="-8.299927">
        <ele>61.196</ele>
        <time>2019-06-20T15:42:10Z</time>
      </trkpt>
      <trkpt lat="43.488757" lon="-8.299819">
        <ele>61.131</ele>
        <time>2019-06-20T15:42:12Z</time>
      </trkpt>
      <trkpt lat="43.488838" lon="-8.299701">
        <ele>59.624</ele>
        <time>2019-06-20T15:42:14Z</time>
      </trkpt>
      <trkpt lat="43.488896" lon="-8.299572">
        <ele>58.408</ele>
        <time>2019-06-20T15:42:15Z</time>
      </trkpt>
      <trkpt lat="43.488912" lon="-8.299504">
        <ele>58.462</ele>
        <time>2019-06-20T15:42:16Z</time>
      </trkpt>
      <trkpt lat="43.489002" lon="-8.299347">
        <ele>57.986</ele>
        <time>2019-06-20T15:42:17Z</time>
      </trkpt>
      <trkpt lat="43.489025" lon="-8.299263">
        <ele>58.057</ele>
        <time>2019-06-20T15:42:18Z</time>
      </trkpt>
      <trkpt lat="43.489055" lon="-8.299171">
        <ele>58.033</ele>
        <time>2019-06-20T15:42:19Z</time>
      </trkpt>
      <trkpt lat="43.489087" lon="-8.299082">
        <ele>57.860</ele>
        <time>2019-06-20T15:42:20Z</time>
      </trkpt>
      <trkpt lat="43.489091" lon="-8.298986">
        <ele>58.271</ele>
        <time>2019-06-20T15:42:21Z</time>
      </trkpt>
      <trkpt lat="43.489148" lon="-8.298845">
        <ele>58.093</ele>
        <time>2019-06-20T15:42:22Z</time>
      </trkpt>
      <trkpt lat="43.489235" lon="-8.298746">
        <ele>57.790</ele>
        <time>2019-06-20T15:42:23Z</time>
      </trkpt>
      <trkpt lat="43.489275" lon="-8.298610">
        <ele>58.725</ele>
        <time>2019-06-20T15:42:24Z</time>
      </trkpt>
      <trkpt lat="43.489304" lon="-8.298516">
        <ele>59.426</ele>
        <time>2019-06-20T15:42:25Z</time>
      </trkpt>
      <trkpt lat="43.489348" lon="-8.298442">
        <ele>59.508</ele>
        <time>2019-06-20T15:42:26Z</time>
      </trkpt>
      <trkpt lat="43.489379" lon="-8.298374">
        <ele>59.808</ele>
        <time>2019-06-20T15:42:27Z</time>
      </trkpt>
      <trkpt lat="43.489457" lon="-8.298233">
        <ele>59.595</ele>
        <time>2019-06-20T15:42:28Z</time>
      </trkpt>
      <trkpt lat="43.489396" lon="-8.298133">
        <ele>61.629</ele>
        <time>2019-06-20T15:42:29Z</time>
      </trkpt>
      <trkpt lat="43.489407" lon="-8.298042">
        <ele>62.140</ele>
        <time>2019-06-20T15:42:30Z</time>
      </trkpt>
      <trkpt lat="43.489411" lon="-8.297891">
        <ele>63.616</ele>
        <time>2019-06-20T15:42:31Z</time>
      </trkpt>
      <trkpt lat="43.489513" lon="-8.297763">
        <ele>63.063</ele>
        <time>2019-06-20T15:42:32Z</time>
      </trkpt>
      <trkpt lat="43.489566" lon="-8.297633">
        <ele>63.444</ele>
        <time>2019-06-20T15:42:33Z</time>
      </trkpt>
      <trkpt lat="43.489629" lon="-8.297569">
        <ele>62.766</ele>
        <time>2019-06-20T15:42:34Z</time>
      </trkpt>
      <trkpt lat="43.489672" lon="-8.297503">
        <ele>62.243</ele>
        <time>2019-06-20T15:42:35Z</time>
      </trkpt>
      <trkpt lat="43.489724" lon="-8.297391">
        <ele>61.818</ele>
        <time>2019-06-20T15:42:36Z</time>
      </trkpt>
      <trkpt lat="43.489762" lon="-8.297260">
        <ele>62.098</ele>
        <time>2019-06-20T15:42:37Z</time>
      </trkpt>
      <trkpt lat="43.489841" lon="-8.297099">
        <ele>62.117</ele>
        <time>2019-06-20T15:42:38Z</time>
      </trkpt>
      <trkpt lat="43.489886" lon="-8.296931">
        <ele>62.408</ele>
        <time>2019-06-20T15:42:39Z</time>
      </trkpt>
      <trkpt lat="43.489956" lon="-8.296777">
        <ele>61.374</ele>
        <time>2019-06-20T15:42:40Z</time>
      </trkpt>
      <trkpt lat="43.489995" lon="-8.296615">
        <ele>60.878</ele>
        <time>2019-06-20T15:42:41Z</time>
      </trkpt>
      <trkpt lat="43.490003" lon="-8.296487">
        <ele>61.889</ele>
        <time>2019-06-20T15:42:42Z</time>
      </trkpt>
      <trkpt lat="43.490093" lon="-8.296277">
        <ele>60.695</ele>
        <time>2019-06-20T15:42:43Z</time>
      </trkpt>
      <trkpt lat="43.490138" lon="-8.296100">
        <ele>60.792</ele>
        <time>2019-06-20T15:42:44Z</time>
      </trkpt>
      <trkpt lat="43.490159" lon="-8.295915">
        <ele>61.843</ele>
        <time>2019-06-20T15:42:45Z</time>
      </trkpt>
      <trkpt lat="43.490186" lon="-8.295809">
        <ele>61.535</ele>
        <time>2019-06-20T15:42:46Z</time>
      </trkpt>
      <trkpt lat="43.490198" lon="-8.295604">
        <ele>62.562</ele>
        <time>2019-06-20T15:42:47Z</time>
      </trkpt>
      <trkpt lat="43.490224" lon="-8.295474">
        <ele>62.374</ele>
        <time>2019-06-20T15:42:48Z</time>
      </trkpt>
      <trkpt lat="43.490192" lon="-8.295378">
        <ele>65.856</ele>
        <time>2019-06-20T15:42:49Z</time>
      </trkpt>
      <trkpt lat="43.490218" lon="-8.295261">
        <ele>65.621</ele>
        <time>2019-06-20T15:42:50Z</time>
      </trkpt>
      <trkpt lat="43.490224" lon="-8.295129">
        <ele>67.208</ele>
        <time>2019-06-20T15:42:51Z</time>
      </trkpt>
      <trkpt lat="43.490226" lon="-8.294985">
        <ele>69.420</ele>
        <time>2019-06-20T15:42:52Z</time>
      </trkpt>
      <trkpt lat="43.490220" lon="-8.294896">
        <ele>71.414</ele>
        <time>2019-06-20T15:42:53Z</time>
      </trkpt>
      <trkpt lat="43.490252" lon="-8.294783">
        <ele>70.975</ele>
        <time>2019-06-20T15:42:54Z</time>
      </trkpt>
      <trkpt lat="43.490302" lon="-8.294730">
        <ele>68.681</ele>
        <time>2019-06-20T15:42:55Z</time>
      </trkpt>
      <trkpt lat="43.490420" lon="-8.294592">
        <ele>64.288</ele>
        <time>2019-06-20T15:42:56Z</time>
      </trkpt>
      <trkpt lat="43.490391" lon="-8.294542">
        <ele>66.539</ele>
        <time>2019-06-20T15:42:59Z</time>
      </trkpt>
      <trkpt lat="43.490332" lon="-8.294651">
        <ele>68.141</ele>
        <time>2019-06-20T15:43:02Z</time>
      </trkpt>
      <trkpt lat="43.490278" lon="-8.294700">
        <ele>70.318</ele>
        <time>2019-06-20T15:43:03Z</time>
      </trkpt>
      <trkpt lat="43.490207" lon="-8.294779">
        <ele>74.475</ele>
        <time>2019-06-20T15:43:04Z</time>
      </trkpt>
      <trkpt lat="43.490159" lon="-8.294860">
        <ele>76.728</ele>
        <time>2019-06-20T15:43:05Z</time>
      </trkpt>
      <trkpt lat="43.490102" lon="-8.295005">
        <ele>78.820</ele>
        <time>2019-06-20T15:43:06Z</time>
      </trkpt>
      <trkpt lat="43.490038" lon="-8.295173">
        <ele>80.408</ele>
        <time>2019-06-20T15:43:07Z</time>
      </trkpt>
      <trkpt lat="43.489995" lon="-8.295328">
        <ele>80.370</ele>
        <time>2019-06-20T15:43:08Z</time>
      </trkpt>
      <trkpt lat="43.489953" lon="-8.295471">
        <ele>80.334</ele>
        <time>2019-06-20T15:43:09Z</time>
      </trkpt>
      <trkpt lat="43.489899" lon="-8.295622">
        <ele>81.535</ele>
        <time>2019-06-20T15:43:10Z</time>
      </trkpt>
      <trkpt lat="43.489838" lon="-8.295763">
        <ele>84.071</ele>
        <time>2019-06-20T15:43:11Z</time>
      </trkpt>
      <trkpt lat="43.489742" lon="-8.295880">
        <ele>88.838</ele>
        <time>2019-06-20T15:43:12Z</time>
      </trkpt>
      <trkpt lat="43.489688" lon="-8.296045">
        <ele>88.319</ele>
        <time>2019-06-20T15:43:13Z</time>
      </trkpt>
      <trkpt lat="43.489578" lon="-8.296154">
        <ele>89.961</ele>
        <time>2019-06-20T15:43:14Z</time>
      </trkpt>
      <trkpt lat="43.489460" lon="-8.296228">
        <ele>92.868</ele>
        <time>2019-06-20T15:43:15Z</time>
      </trkpt>
      <trkpt lat="43.489366" lon="-8.296314">
        <ele>93.792</ele>
        <time>2019-06-20T15:43:16Z</time>
      </trkpt>
      <trkpt lat="43.489250" lon="-8.296402">
        <ele>95.073</ele>
        <time>2019-06-20T15:43:17Z</time>
      </trkpt>
      <trkpt lat="43.489125" lon="-8.296520">
        <ele>96.420</ele>
        <time>2019-06-20T15:43:18Z</time>
      </trkpt>
      <trkpt lat="43.489015" lon="-8.296631">
        <ele>98.008</ele>
        <time>2019-06-20T15:43:19Z</time>
      </trkpt>
      <trkpt lat="43.488884" lon="-8.296723">
        <ele>99.812</ele>
        <time>2019-06-20T15:43:20Z</time>
      </trkpt>
      <trkpt lat="43.488736" lon="-8.296856">
        <ele>102.196</ele>
        <time>2019-06-20T15:43:21Z</time>
      </trkpt>
      <trkpt lat="43.488611" lon="-8.297133">
        <ele>102.317</ele>
        <time>2019-06-20T15:43:22Z</time>
      </trkpt>
      <trkpt lat="43.488464" lon="-8.297409">
        <ele>107.943</ele>
        <time>2019-06-20T15:43:23Z</time>
      </trkpt>
      <trkpt lat="43.488349" lon="-8.297608">
        <ele>111.820</ele>
        <time>2019-06-20T15:43:24Z</time>
      </trkpt>
      <trkpt lat="43.488187" lon="-8.297829">
        <ele>114.531</ele>
        <time>2019-06-20T15:43:25Z</time>
      </trkpt>
      <trkpt lat="43.488099" lon="-8.298006">
        <ele>112.643</ele>
        <time>2019-06-20T15:43:26Z</time>
      </trkpt>
      <trkpt lat="43.487984" lon="-8.298172">
        <ele>111.280</ele>
        <time>2019-06-20T15:43:27Z</time>
      </trkpt>
      <trkpt lat="43.487885" lon="-8.298369">
        <ele>107.844</ele>
        <time>2019-06-20T15:43:28Z</time>
      </trkpt>
      <trkpt lat="43.487824" lon="-8.298512">
        <ele>105.705</ele>
        <time>2019-06-20T15:43:29Z</time>
      </trkpt>
      <trkpt lat="43.487729" lon="-8.298658">
        <ele>104.715</ele>
        <time>2019-06-20T15:43:30Z</time>
      </trkpt>
      <trkpt lat="43.487587" lon="-8.298769">
        <ele>106.308</ele>
        <time>2019-06-20T15:43:31Z</time>
      </trkpt>
      <trkpt lat="43.487464" lon="-8.298864">
        <ele>107.537</ele>
        <time>2019-06-20T15:43:32Z</time>
      </trkpt>
      <trkpt lat="43.487343" lon="-8.298942">
        <ele>111.271</ele>
        <time>2019-06-20T15:43:33Z</time>
      </trkpt>
      <trkpt lat="43.487217" lon="-8.299043">
        <ele>114.452</ele>
        <time>2019-06-20T15:43:34Z</time>
      </trkpt>
      <trkpt lat="43.487107" lon="-8.299167">
        <ele>117.278</ele>
        <time>2019-06-20T15:43:35Z</time>
      </trkpt>
      <trkpt lat="43.487002" lon="-8.299270">
        <ele>121.265</ele>
        <time>2019-06-20T15:43:36Z</time>
      </trkpt>
      <trkpt lat="43.486898" lon="-8.299424">
        <ele>123.286</ele>
        <time>2019-06-20T15:43:37Z</time>
      </trkpt>
      <trkpt lat="43.486838" lon="-8.299567">
        <ele>123.948</ele>
        <time>2019-06-20T15:43:38Z</time>
      </trkpt>
      <trkpt lat="43.486738" lon="-8.299715">
        <ele>126.335</ele>
        <time>2019-06-20T15:43:39Z</time>
      </trkpt>
      <trkpt lat="43.486704" lon="-8.299851">
        <ele>125.371</ele>
        <time>2019-06-20T15:43:40Z</time>
      </trkpt>
      <trkpt lat="43.486621" lon="-8.300084">
        <ele>124.441</ele>
        <time>2019-06-20T15:43:41Z</time>
      </trkpt>
      <trkpt lat="43.486545" lon="-8.300256">
        <ele>124.315</ele>
        <time>2019-06-20T15:43:42Z</time>
      </trkpt>
      <trkpt lat="43.486481" lon="-8.300440">
        <ele>125.008</ele>
        <time>2019-06-20T15:43:43Z</time>
      </trkpt>
      <trkpt lat="43.486420" lon="-8.300620">
        <ele>125.870</ele>
        <time>2019-06-20T15:43:44Z</time>
      </trkpt>
      <trkpt lat="43.486326" lon="-8.300852">
        <ele>127.874</ele>
        <time>2019-06-20T15:43:45Z</time>
      </trkpt>
      <trkpt lat="43.486253" lon="-8.301101">
        <ele>127.545</ele>
        <time>2019-06-20T15:43:46Z</time>
      </trkpt>
      <trkpt lat="43.486152" lon="-8.301286">
        <ele>126.321</ele>
        <time>2019-06-20T15:43:47Z</time>
      </trkpt>
      <trkpt lat="43.486057" lon="-8.301516">
        <ele>123.528</ele>
        <time>2019-06-20T15:43:48Z</time>
      </trkpt>
      <trkpt lat="43.485955" lon="-8.301762">
        <ele>121.119</ele>
        <time>2019-06-20T15:43:49Z</time>
      </trkpt>
      <trkpt lat="43.485842" lon="-8.301994">
        <ele>120.081</ele>
        <time>2019-06-20T15:43:50Z</time>
      </trkpt>
      <trkpt lat="43.485725" lon="-8.302190">
        <ele>121.478</ele>
        <time>2019-06-20T15:43:51Z</time>
      </trkpt>
      <trkpt lat="43.485570" lon="-8.302402">
        <ele>125.786</ele>
        <time>2019-06-20T15:43:52Z</time>
      </trkpt>
      <trkpt lat="43.485479" lon="-8.302623">
        <ele>128.460</ele>
        <time>2019-06-20T15:43:53Z</time>
      </trkpt>
      <trkpt lat="43.485380" lon="-8.302759">
        <ele>130.926</ele>
        <time>2019-06-20T15:43:54Z</time>
      </trkpt>
      <trkpt lat="43.485307" lon="-8.302910">
        <ele>131.508</ele>
        <time>2019-06-20T15:43:55Z</time>
      </trkpt>
      <trkpt lat="43.485204" lon="-8.303109">
        <ele>131.031</ele>
        <time>2019-06-20T15:43:56Z</time>
      </trkpt>
      <trkpt lat="43.485104" lon="-8.303266">
        <ele>130.595</ele>
        <time>2019-06-20T15:43:57Z</time>
      </trkpt>
      <trkpt lat="43.484973" lon="-8.303368">
        <ele>132.166</ele>
        <time>2019-06-20T15:43:58Z</time>
      </trkpt>
      <trkpt lat="43.484864" lon="-8.303491">
        <ele>132.512</ele>
        <time>2019-06-20T15:43:59Z</time>
      </trkpt>
      <trkpt lat="43.484734" lon="-8.303582">
        <ele>133.539</ele>
        <time>2019-06-20T15:44:00Z</time>
      </trkpt>
      <trkpt lat="43.484619" lon="-8.303640">
        <ele>134.570</ele>
        <time>2019-06-20T15:44:01Z</time>
      </trkpt>
      <trkpt lat="43.484498" lon="-8.303666">
        <ele>136.382</ele>
        <time>2019-06-20T15:44:02Z</time>
      </trkpt>
      <trkpt lat="43.484355" lon="-8.303730">
        <ele>137.779</ele>
        <time>2019-06-20T15:44:03Z</time>
      </trkpt>
      <trkpt lat="43.484201" lon="-8.303771">
        <ele>140.832</ele>
        <time>2019-06-20T15:44:04Z</time>
      </trkpt>
      <trkpt lat="43.484060" lon="-8.303825">
        <ele>144.692</ele>
        <time>2019-06-20T15:44:05Z</time>
      </trkpt>
      <trkpt lat="43.484004" lon="-8.303857">
        <ele>146.211</ele>
        <time>2019-06-20T15:44:06Z</time>
      </trkpt>
      <trkpt lat="43.483901" lon="-8.303992">
        <ele>148.408</ele>
        <time>2019-06-20T15:44:07Z</time>
      </trkpt>
      <trkpt lat="43.483876" lon="-8.304201">
        <ele>146.726</ele>
        <time>2019-06-20T15:44:08Z</time>
      </trkpt>
      <trkpt lat="43.483805" lon="-8.304505">
        <ele>143.420</ele>
        <time>2019-06-20T15:44:09Z</time>
      </trkpt>
      <trkpt lat="43.483732" lon="-8.304743">
        <ele>142.551</ele>
        <time>2019-06-20T15:44:10Z</time>
      </trkpt>
      <trkpt lat="43.483655" lon="-8.304959">
        <ele>143.717</ele>
        <time>2019-06-20T15:44:11Z</time>
      </trkpt>
      <trkpt lat="43.483577" lon="-8.305207">
        <ele>144.984</ele>
        <time>2019-06-20T15:44:12Z</time>
      </trkpt>
      <trkpt lat="43.483517" lon="-8.305404">
        <ele>146.345</ele>
        <time>2019-06-20T15:44:13Z</time>
      </trkpt>
      <trkpt lat="43.483449" lon="-8.305625">
        <ele>147.367</ele>
        <time>2019-06-20T15:44:14Z</time>
      </trkpt>
      <trkpt lat="43.483359" lon="-8.305841">
        <ele>148.224</ele>
        <time>2019-06-20T15:44:15Z</time>
      </trkpt>
      <trkpt lat="43.483298" lon="-8.306058">
        <ele>147.657</ele>
        <time>2019-06-20T15:44:16Z</time>
      </trkpt>
      <trkpt lat="43.483229" lon="-8.306267">
        <ele>147.700</ele>
        <time>2019-06-20T15:44:17Z</time>
      </trkpt>
      <trkpt lat="43.483159" lon="-8.306455">
        <ele>147.320</ele>
        <time>2019-06-20T15:44:18Z</time>
      </trkpt>
      <trkpt lat="43.483056" lon="-8.306609">
        <ele>147.008</ele>
        <time>2019-06-20T15:44:19Z</time>
      </trkpt>
      <trkpt lat="43.482978" lon="-8.306768">
        <ele>145.338</ele>
        <time>2019-06-20T15:44:20Z</time>
      </trkpt>
      <trkpt lat="43.482869" lon="-8.306890">
        <ele>144.192</ele>
        <time>2019-06-20T15:44:21Z</time>
      </trkpt>
      <trkpt lat="43.482789" lon="-8.306997">
        <ele>142.343</ele>
        <time>2019-06-20T15:44:22Z</time>
      </trkpt>
      <trkpt lat="43.482693" lon="-8.306988">
        <ele>144.099</ele>
        <time>2019-06-20T15:44:23Z</time>
      </trkpt>
      <trkpt lat="43.482553" lon="-8.307064">
        <ele>144.146</ele>
        <time>2019-06-20T15:44:24Z</time>
      </trkpt>
      <trkpt lat="43.482389" lon="-8.307157">
        <ele>146.187</ele>
        <time>2019-06-20T15:44:25Z</time>
      </trkpt>
      <trkpt lat="43.482236" lon="-8.307233">
        <ele>149.469</ele>
        <time>2019-06-20T15:44:26Z</time>
      </trkpt>
      <trkpt lat="43.482081" lon="-8.307306">
        <ele>152.686</ele>
        <time>2019-06-20T15:44:27Z</time>
      </trkpt>
      <trkpt lat="43.481939" lon="-8.307392">
        <ele>155.142</ele>
        <time>2019-06-20T15:44:28Z</time>
      </trkpt>
      <trkpt lat="43.481779" lon="-8.307471">
        <ele>157.222</ele>
        <time>2019-06-20T15:44:29Z</time>
      </trkpt>
      <trkpt lat="43.481626" lon="-8.307563">
        <ele>158.514</ele>
        <time>2019-06-20T15:44:30Z</time>
      </trkpt>
      <trkpt lat="43.481512" lon="-8.307662">
        <ele>158.808</ele>
        <time>2019-06-20T15:44:31Z</time>
      </trkpt>
      <trkpt lat="43.481423" lon="-8.307758">
        <ele>158.797</ele>
        <time>2019-06-20T15:44:32Z</time>
      </trkpt>
      <trkpt lat="43.481280" lon="-8.307890">
        <ele>158.431</ele>
        <time>2019-06-20T15:44:33Z</time>
      </trkpt>
      <trkpt lat="43.481195" lon="-8.307949">
        <ele>159.172</ele>
        <time>2019-06-20T15:44:34Z</time>
      </trkpt>
      <trkpt lat="43.481023" lon="-8.308138">
        <ele>158.988</ele>
        <time>2019-06-20T15:44:35Z</time>
      </trkpt>
      <trkpt lat="43.480902" lon="-8.308289">
        <ele>158.275</ele>
        <time>2019-06-20T15:44:36Z</time>
      </trkpt>
      <trkpt lat="43.480804" lon="-8.308441">
        <ele>156.896</ele>
        <time>2019-06-20T15:44:37Z</time>
      </trkpt>
      <trkpt lat="43.480698" lon="-8.308616">
        <ele>155.378</ele>
        <time>2019-06-20T15:44:38Z</time>
      </trkpt>
      <trkpt lat="43.480628" lon="-8.308753">
        <ele>154.565</ele>
        <time>2019-06-20T15:44:39Z</time>
      </trkpt>
      <trkpt lat="43.480533" lon="-8.308917">
        <ele>153.287</ele>
        <time>2019-06-20T15:44:40Z</time>
      </trkpt>
      <trkpt lat="43.480427" lon="-8.309073">
        <ele>153.542</ele>
        <time>2019-06-20T15:44:41Z</time>
      </trkpt>
      <trkpt lat="43.480319" lon="-8.309250">
        <ele>153.226</ele>
        <time>2019-06-20T15:44:42Z</time>
      </trkpt>
      <trkpt lat="43.480250" lon="-8.309437">
        <ele>150.708</ele>
        <time>2019-06-20T15:44:43Z</time>
      </trkpt>
      <trkpt lat="43.480222" lon="-8.309620">
        <ele>147.571</ele>
        <time>2019-06-20T15:44:44Z</time>
      </trkpt>
      <trkpt lat="43.480295" lon="-8.309756">
        <ele>144.635</ele>
        <time>2019-06-20T15:44:45Z</time>
      </trkpt>
      <trkpt lat="43.480281" lon="-8.309969">
        <ele>143.266</ele>
        <time>2019-06-20T15:44:46Z</time>
      </trkpt>
      <trkpt lat="43.480240" lon="-8.310186">
        <ele>144.252</ele>
        <time>2019-06-20T15:44:47Z</time>
      </trkpt>
      <trkpt lat="43.480195" lon="-8.310403">
        <ele>147.159</ele>
        <time>2019-06-20T15:44:48Z</time>
      </trkpt>
      <trkpt lat="43.480147" lon="-8.310618">
        <ele>152.180</ele>
        <time>2019-06-20T15:44:49Z</time>
      </trkpt>
      <trkpt lat="43.480115" lon="-8.310843">
        <ele>159.112</ele>
        <time>2019-06-20T15:44:50Z</time>
      </trkpt>
      <trkpt lat="43.480078" lon="-8.311052">
        <ele>164.219</ele>
        <time>2019-06-20T15:44:51Z</time>
      </trkpt>
      <trkpt lat="43.480019" lon="-8.311244">
        <ele>168.344</ele>
        <time>2019-06-20T15:44:52Z</time>
      </trkpt>
      <trkpt lat="43.479939" lon="-8.311424">
        <ele>171.305</ele>
        <time>2019-06-20T15:44:53Z</time>
      </trkpt>
      <trkpt lat="43.479812" lon="-8.311571">
        <ele>171.615</ele>
        <time>2019-06-20T15:44:54Z</time>
      </trkpt>
      <trkpt lat="43.479704" lon="-8.311663">
        <ele>170.508</ele>
        <time>2019-06-20T15:44:55Z</time>
      </trkpt>
      <trkpt lat="43.479589" lon="-8.311776">
        <ele>171.357</ele>
        <time>2019-06-20T15:44:56Z</time>
      </trkpt>
      <trkpt lat="43.479476" lon="-8.311905">
        <ele>170.651</ele>
        <time>2019-06-20T15:44:57Z</time>
      </trkpt>
      <trkpt lat="43.479368" lon="-8.312054">
        <ele>171.652</ele>
        <time>2019-06-20T15:44:58Z</time>
      </trkpt>
      <trkpt lat="43.479275" lon="-8.312172">
        <ele>171.958</ele>
        <time>2019-06-20T15:44:59Z</time>
      </trkpt>
      <trkpt lat="43.479180" lon="-8.312307">
        <ele>171.735</ele>
        <time>2019-06-20T15:45:00Z</time>
      </trkpt>
      <trkpt lat="43.479044" lon="-8.312403">
        <ele>168.736</ele>
        <time>2019-06-20T15:45:01Z</time>
      </trkpt>
      <trkpt lat="43.478924" lon="-8.312589">
        <ele>168.098</ele>
        <time>2019-06-20T15:45:02Z</time>
      </trkpt>
      <trkpt lat="43.478882" lon="-8.312788">
        <ele>169.655</ele>
        <time>2019-06-20T15:45:03Z</time>
      </trkpt>
      <trkpt lat="43.478962" lon="-8.313030">
        <ele>173.649</ele>
        <time>2019-06-20T15:45:04Z</time>
      </trkpt>
      <trkpt lat="43.478952" lon="-8.313271">
        <ele>174.002</ele>
        <time>2019-06-20T15:45:05Z</time>
      </trkpt>
      <trkpt lat="43.479004" lon="-8.313526">
        <ele>176.722</ele>
        <time>2019-06-20T15:45:06Z</time>
      </trkpt>
      <trkpt lat="43.478986" lon="-8.313778">
        <ele>177.808</ele>
        <time>2019-06-20T15:45:07Z</time>
      </trkpt>
      <trkpt lat="43.478948" lon="-8.313997">
        <ele>178.757</ele>
        <time>2019-06-20T15:45:08Z</time>
      </trkpt>
      <trkpt lat="43.478961" lon="-8.314162">
        <ele>181.841</ele>
        <time>2019-06-20T15:45:09Z</time>
      </trkpt>
      <trkpt lat="43.478988" lon="-8.314362">
        <ele>184.652</ele>
        <time>2019-06-20T15:45:10Z</time>
      </trkpt>
      <trkpt lat="43.478960" lon="-8.314478">
        <ele>184.758</ele>
        <time>2019-06-20T15:45:11Z</time>
      </trkpt>
      <trkpt lat="43.478904" lon="-8.314573">
        <ele>184.435</ele>
        <time>2019-06-20T15:45:12Z</time>
      </trkpt>
      <trkpt lat="43.478840" lon="-8.314707">
        <ele>185.186</ele>
        <time>2019-06-20T15:45:13Z</time>
      </trkpt>
      <trkpt lat="43.478759" lon="-8.314876">
        <ele>186.498</ele>
        <time>2019-06-20T15:45:14Z</time>
      </trkpt>
      <trkpt lat="43.478714" lon="-8.315053">
        <ele>188.665</ele>
        <time>2019-06-20T15:45:15Z</time>
      </trkpt>
      <trkpt lat="43.478666" lon="-8.315191">
        <ele>189.344</ele>
        <time>2019-06-20T15:45:16Z</time>
      </trkpt>
      <trkpt lat="43.478618" lon="-8.315340">
        <ele>190.105</ele>
        <time>2019-06-20T15:45:17Z</time>
      </trkpt>
      <trkpt lat="43.478546" lon="-8.315456">
        <ele>189.115</ele>
        <time>2019-06-20T15:45:18Z</time>
      </trkpt>
      <trkpt lat="43.478484" lon="-8.315605">
        <ele>189.208</ele>
        <time>2019-06-20T15:45:19Z</time>
      </trkpt>
      <trkpt lat="43.478435" lon="-8.315765">
        <ele>190.037</ele>
        <time>2019-06-20T15:45:20Z</time>
      </trkpt>
      <trkpt lat="43.478363" lon="-8.315981">
        <ele>190.211</ele>
        <time>2019-06-20T15:45:21Z</time>
      </trkpt>
      <trkpt lat="43.478331" lon="-8.316188">
        <ele>192.022</ele>
        <time>2019-06-20T15:45:22Z</time>
      </trkpt>
      <trkpt lat="43.478272" lon="-8.316393">
        <ele>192.818</ele>
        <time>2019-06-20T15:45:23Z</time>
      </trkpt>
      <trkpt lat="43.478253" lon="-8.316599">
        <ele>194.615</ele>
        <time>2019-06-20T15:45:24Z</time>
      </trkpt>
      <trkpt lat="43.478190" lon="-8.316820">
        <ele>194.756</ele>
        <time>2019-06-20T15:45:25Z</time>
      </trkpt>
      <trkpt lat="43.478146" lon="-8.317037">
        <ele>196.488</ele>
        <time>2019-06-20T15:45:26Z</time>
      </trkpt>
      <trkpt lat="43.478124" lon="-8.317225">
        <ele>199.515</ele>
        <time>2019-06-20T15:45:27Z</time>
      </trkpt>
      <trkpt lat="43.478083" lon="-8.317398">
        <ele>201.194</ele>
        <time>2019-06-20T15:45:28Z</time>
      </trkpt>
      <trkpt lat="43.478052" lon="-8.317588">
        <ele>202.657</ele>
        <time>2019-06-20T15:45:29Z</time>
      </trkpt>
      <trkpt lat="43.478032" lon="-8.317764">
        <ele>203.622</ele>
        <time>2019-06-20T15:45:30Z</time>
      </trkpt>
      <trkpt lat="43.477990" lon="-8.317943">
        <ele>203.108</ele>
        <time>2019-06-20T15:45:31Z</time>
      </trkpt>
      <trkpt lat="43.477961" lon="-8.318061">
        <ele>202.692</ele>
        <time>2019-06-20T15:45:32Z</time>
      </trkpt>
      <trkpt lat="43.477866" lon="-8.318174">
        <ele>201.696</ele>
        <time>2019-06-20T15:45:33Z</time>
      </trkpt>
      <trkpt lat="43.477805" lon="-8.318277">
        <ele>201.127</ele>
        <time>2019-06-20T15:45:34Z</time>
      </trkpt>
      <trkpt lat="43.477727" lon="-8.318335">
        <ele>200.683</ele>
        <time>2019-06-20T15:45:35Z</time>
      </trkpt>
      <trkpt lat="43.477642" lon="-8.318392">
        <ele>199.950</ele>
        <time>2019-06-20T15:45:36Z</time>
      </trkpt>
      <trkpt lat="43.477569" lon="-8.318432">
        <ele>199.221</ele>
        <time>2019-06-20T15:45:37Z</time>
      </trkpt>
      <trkpt lat="43.477476" lon="-8.318483">
        <ele>198.413</ele>
        <time>2019-06-20T15:45:38Z</time>
      </trkpt>
      <trkpt lat="43.477374" lon="-8.318496">
        <ele>198.030</ele>
        <time>2019-06-20T15:45:39Z</time>
      </trkpt>
      <trkpt lat="43.477257" lon="-8.318488">
        <ele>197.734</ele>
        <time>2019-06-20T15:45:40Z</time>
      </trkpt>
      <trkpt lat="43.477174" lon="-8.318409">
        <ele>197.155</ele>
        <time>2019-06-20T15:45:41Z</time>
      </trkpt>
      <trkpt lat="43.477089" lon="-8.318363">
        <ele>196.610</ele>
        <time>2019-06-20T15:45:42Z</time>
      </trkpt>
      <trkpt lat="43.476981" lon="-8.318288">
        <ele>195.708</ele>
        <time>2019-06-20T15:45:43Z</time>
      </trkpt>
      <trkpt lat="43.476907" lon="-8.318159">
        <ele>194.126</ele>
        <time>2019-06-20T15:45:44Z</time>
      </trkpt>
      <trkpt lat="43.476821" lon="-8.318057">
        <ele>193.050</ele>
        <time>2019-06-20T15:45:45Z</time>
      </trkpt>
      <trkpt lat="43.476750" lon="-8.317991">
        <ele>192.281</ele>
        <time>2019-06-20T15:45:46Z</time>
      </trkpt>
      <trkpt lat="43.476652" lon="-8.317901">
        <ele>190.747</ele>
        <time>2019-06-20T15:45:47Z</time>
      </trkpt>
      <trkpt lat="43.476551" lon="-8.317846">
        <ele>189.764</ele>
        <time>2019-06-20T15:45:48Z</time>
      </trkpt>
      <trkpt lat="43.476464" lon="-8.317742">
        <ele>187.725</ele>
        <time>2019-06-20T15:45:49Z</time>
      </trkpt>
      <trkpt lat="43.476364" lon="-8.317687">
        <ele>186.047</ele>
        <time>2019-06-20T15:45:50Z</time>
      </trkpt>
      <trkpt lat="43.476276" lon="-8.317636">
        <ele>183.814</ele>
        <time>2019-06-20T15:45:51Z</time>
      </trkpt>
      <trkpt lat="43.476160" lon="-8.317599">
        <ele>181.283</ele>
        <time>2019-06-20T15:45:52Z</time>
      </trkpt>
      <trkpt lat="43.476050" lon="-8.317580">
        <ele>178.625</ele>
        <time>2019-06-20T15:45:53Z</time>
      </trkpt>
      <trkpt lat="43.475951" lon="-8.317598">
        <ele>176.817</ele>
        <time>2019-06-20T15:45:54Z</time>
      </trkpt>
      <trkpt lat="43.475830" lon="-8.317762">
        <ele>177.608</ele>
        <time>2019-06-20T15:45:55Z</time>
      </trkpt>
      <trkpt lat="43.475721" lon="-8.317832">
        <ele>175.671</ele>
        <time>2019-06-20T15:45:56Z</time>
      </trkpt>
      <trkpt lat="43.475634" lon="-8.317947">
        <ele>175.485</ele>
        <time>2019-06-20T15:45:57Z</time>
      </trkpt>
      <trkpt lat="43.475547" lon="-8.318028">
        <ele>174.266</ele>
        <time>2019-06-20T15:45:58Z</time>
      </trkpt>
      <trkpt lat="43.475442" lon="-8.318150">
        <ele>174.032</ele>
        <time>2019-06-20T15:45:59Z</time>
      </trkpt>
      <trkpt lat="43.475356" lon="-8.318285">
        <ele>174.749</ele>
        <time>2019-06-20T15:46:00Z</time>
      </trkpt>
      <trkpt lat="43.475274" lon="-8.318390">
        <ele>174.950</ele>
        <time>2019-06-20T15:46:01Z</time>
      </trkpt>
      <trkpt lat="43.475213" lon="-8.318472">
        <ele>174.652</ele>
        <time>2019-06-20T15:46:02Z</time>
      </trkpt>
      <trkpt lat="43.475117" lon="-8.318621">
        <ele>174.739</ele>
        <time>2019-06-20T15:46:03Z</time>
      </trkpt>
      <trkpt lat="43.475023" lon="-8.318704">
        <ele>174.373</ele>
        <time>2019-06-20T15:46:04Z</time>
      </trkpt>
      <trkpt lat="43.474920" lon="-8.318773">
        <ele>173.085</ele>
        <time>2019-06-20T15:46:05Z</time>
      </trkpt>
      <trkpt lat="43.474835" lon="-8.318889">
        <ele>173.113</ele>
        <time>2019-06-20T15:46:06Z</time>
      </trkpt>
      <trkpt lat="43.474741" lon="-8.319022">
        <ele>173.508</ele>
        <time>2019-06-20T15:46:07Z</time>
      </trkpt>
      <trkpt lat="43.474621" lon="-8.319112">
        <ele>171.650</ele>
        <time>2019-06-20T15:46:08Z</time>
      </trkpt>
      <trkpt lat="43.474518" lon="-8.319197">
        <ele>169.644</ele>
        <time>2019-06-20T15:46:09Z</time>
      </trkpt>
      <trkpt lat="43.474453" lon="-8.319388">
        <ele>171.125</ele>
        <time>2019-06-20T15:46:10Z</time>
      </trkpt>
      <trkpt lat="43.474357" lon="-8.319549">
        <ele>171.341</ele>
        <time>2019-06-20T15:46:11Z</time>
      </trkpt>
      <trkpt lat="43.474304" lon="-8.319658">
        <ele>172.278</ele>
        <time>2019-06-20T15:46:12Z</time>
      </trkpt>
      <trkpt lat="43.474220" lon="-8.319776">
        <ele>172.429</ele>
        <time>2019-06-20T15:46:13Z</time>
      </trkpt>
      <trkpt lat="43.474098" lon="-8.319852">
        <ele>170.571</ele>
        <time>2019-06-20T15:46:14Z</time>
      </trkpt>
      <trkpt lat="43.474012" lon="-8.319919">
        <ele>169.998</ele>
        <time>2019-06-20T15:46:15Z</time>
      </trkpt>
      <trkpt lat="43.473888" lon="-8.319977">
        <ele>168.135</ele>
        <time>2019-06-20T15:46:16Z</time>
      </trkpt>
      <trkpt lat="43.473738" lon="-8.320043">
        <ele>165.586</ele>
        <time>2019-06-20T15:46:17Z</time>
      </trkpt>
      <trkpt lat="43.473623" lon="-8.320096">
        <ele>163.814</ele>
        <time>2019-06-20T15:46:18Z</time>
      </trkpt>
      <trkpt lat="43.473459" lon="-8.320154">
        <ele>161.208</ele>
        <time>2019-06-20T15:46:19Z</time>
      </trkpt>
      <trkpt lat="43.473310" lon="-8.320192">
        <ele>158.496</ele>
        <time>2019-06-20T15:46:20Z</time>
      </trkpt>
      <trkpt lat="43.473151" lon="-8.320243">
        <ele>157.340</ele>
        <time>2019-06-20T15:46:21Z</time>
      </trkpt>
      <trkpt lat="43.473012" lon="-8.320287">
        <ele>156.841</ele>
        <time>2019-06-20T15:46:22Z</time>
      </trkpt>
      <trkpt lat="43.472874" lon="-8.320323">
        <ele>156.227</ele>
        <time>2019-06-20T15:46:23Z</time>
      </trkpt>
      <trkpt lat="43.472736" lon="-8.320374">
        <ele>155.464</ele>
        <time>2019-06-20T15:46:24Z</time>
      </trkpt>
      <trkpt lat="43.472599" lon="-8.320462">
        <ele>154.345</ele>
        <time>2019-06-20T15:46:25Z</time>
      </trkpt>
      <trkpt lat="43.472451" lon="-8.320524">
        <ele>151.997</ele>
        <time>2019-06-20T15:46:26Z</time>
      </trkpt>
      <trkpt lat="43.472320" lon="-8.320629">
        <ele>151.464</ele>
        <time>2019-06-20T15:46:27Z</time>
      </trkpt>
      <trkpt lat="43.472189" lon="-8.320717">
        <ele>149.448</ele>
        <time>2019-06-20T15:46:28Z</time>
      </trkpt>
      <trkpt lat="43.472137" lon="-8.320790">
        <ele>149.861</ele>
        <time>2019-06-20T15:46:29Z</time>
      </trkpt>
      <trkpt lat="43.472060" lon="-8.320919">
        <ele>151.217</ele>
        <time>2019-06-20T15:46:30Z</time>
      </trkpt>
      <trkpt lat="43.471967" lon="-8.321047">
        <ele>151.708</ele>
        <time>2019-06-20T15:46:31Z</time>
      </trkpt>
      <trkpt lat="43.471898" lon="-8.321219">
        <ele>153.647</ele>
        <time>2019-06-20T15:46:32Z</time>
      </trkpt>
      <trkpt lat="43.471825" lon="-8.321402">
        <ele>155.171</ele>
        <time>2019-06-20T15:46:33Z</time>
      </trkpt>
      <trkpt lat="43.471746" lon="-8.321561">
        <ele>155.112</ele>
        <time>2019-06-20T15:46:34Z</time>
      </trkpt>
      <trkpt lat="43.471665" lon="-8.321720">
        <ele>154.798</ele>
        <time>2019-06-20T15:46:35Z</time>
      </trkpt>
      <trkpt lat="43.471587" lon="-8.321849">
        <ele>152.775</ele>
        <time>2019-06-20T15:46:36Z</time>
      </trkpt>
      <trkpt lat="43.471524" lon="-8.321984">
        <ele>152.056</ele>
        <time>2019-06-20T15:46:37Z</time>
      </trkpt>
      <trkpt lat="43.471435" lon="-8.322034">
        <ele>149.288</ele>
        <time>2019-06-20T15:46:38Z</time>
      </trkpt>
      <trkpt lat="43.471307" lon="-8.322106">
        <ele>146.135</ele>
        <time>2019-06-20T15:46:39Z</time>
      </trkpt>
      <trkpt lat="43.471196" lon="-8.322186">
        <ele>144.189</ele>
        <time>2019-06-20T15:46:40Z</time>
      </trkpt>
      <trkpt lat="43.471103" lon="-8.322271">
        <ele>143.006</ele>
        <time>2019-06-20T15:46:41Z</time>
      </trkpt>
      <trkpt lat="43.471010" lon="-8.322333">
        <ele>141.726</ele>
        <time>2019-06-20T15:46:42Z</time>
      </trkpt>
      <trkpt lat="43.470909" lon="-8.322414">
        <ele>140.508</ele>
        <time>2019-06-20T15:46:43Z</time>
      </trkpt>
      <trkpt lat="43.470802" lon="-8.322473">
        <ele>138.611</ele>
        <time>2019-06-20T15:46:44Z</time>
      </trkpt>
      <trkpt lat="43.470737" lon="-8.322529">
        <ele>138.115</ele>
        <time>2019-06-20T15:46:45Z</time>
      </trkpt>
      <trkpt lat="43.470685" lon="-8.322627">
        <ele>138.516</ele>
        <time>2019-06-20T15:46:46Z</time>
      </trkpt>
      <trkpt lat="43.470613" lon="-8.322748">
        <ele>138.432</ele>
        <time>2019-06-20T15:46:47Z</time>
      </trkpt>
      <trkpt lat="43.470533" lon="-8.322855">
        <ele>137.039</ele>
        <time>2019-06-20T15:46:48Z</time>
      </trkpt>
      <trkpt lat="43.470466" lon="-8.323001">
        <ele>136.160</ele>
        <time>2019-06-20T15:46:49Z</time>
      </trkpt>
      <trkpt lat="43.470424" lon="-8.323172">
        <ele>135.732</ele>
        <time>2019-06-20T15:46:50Z</time>
      </trkpt>
      <trkpt lat="43.470415" lon="-8.323324">
        <ele>135.919</ele>
        <time>2019-06-20T15:46:51Z</time>
      </trkpt>
      <trkpt lat="43.470393" lon="-8.323464">
        <ele>135.351</ele>
        <time>2019-06-20T15:46:52Z</time>
      </trkpt>
      <trkpt lat="43.470406" lon="-8.323619">
        <ele>136.101</ele>
        <time>2019-06-20T15:46:53Z</time>
      </trkpt>
      <trkpt lat="43.470417" lon="-8.323770">
        <ele>137.111</ele>
        <time>2019-06-20T15:46:54Z</time>
      </trkpt>
      <trkpt lat="43.470406" lon="-8.323934">
        <ele>137.508</ele>
        <time>2019-06-20T15:46:55Z</time>
      </trkpt>
      <trkpt lat="43.470411" lon="-8.324081">
        <ele>138.748</ele>
        <time>2019-06-20T15:46:56Z</time>
      </trkpt>
      <trkpt lat="43.470405" lon="-8.324222">
        <ele>139.512</ele>
        <time>2019-06-20T15:46:57Z</time>
      </trkpt>
      <trkpt lat="43.470388" lon="-8.324354">
        <ele>139.963</ele>
        <time>2019-06-20T15:46:58Z</time>
      </trkpt>
      <trkpt lat="43.470407" lon="-8.324564">
        <ele>142.289</ele>
        <time>2019-06-20T15:46:59Z</time>
      </trkpt>
      <trkpt lat="43.470392" lon="-8.324717">
        <ele>143.186</ele>
        <time>2019-06-20T15:47:00Z</time>
      </trkpt>
      <trkpt lat="43.470350" lon="-8.324887">
        <ele>142.847</ele>
        <time>2019-06-20T15:47:01Z</time>
      </trkpt>
      <trkpt lat="43.470238" lon="-8.325135">
        <ele>141.069</ele>
        <time>2019-06-20T15:47:02Z</time>
      </trkpt>
      <trkpt lat="43.470171" lon="-8.325343">
        <ele>140.096</ele>
        <time>2019-06-20T15:47:03Z</time>
      </trkpt>
      <trkpt lat="43.470103" lon="-8.325547">
        <ele>138.049</ele>
        <time>2019-06-20T15:47:04Z</time>
      </trkpt>
      <trkpt lat="43.470009" lon="-8.325694">
        <ele>135.802</ele>
        <time>2019-06-20T15:47:05Z</time>
      </trkpt>
      <trkpt lat="43.469933" lon="-8.325890">
        <ele>134.822</ele>
        <time>2019-06-20T15:47:06Z</time>
      </trkpt>
      <trkpt lat="43.469836" lon="-8.326041">
        <ele>132.308</ele>
        <time>2019-06-20T15:47:07Z</time>
      </trkpt>
      <trkpt lat="43.469796" lon="-8.326256">
        <ele>131.857</ele>
        <time>2019-06-20T15:47:08Z</time>
      </trkpt>
      <trkpt lat="43.469720" lon="-8.326417">
        <ele>129.911</ele>
        <time>2019-06-20T15:47:09Z</time>
      </trkpt>
      <trkpt lat="43.469627" lon="-8.326642">
        <ele>127.232</ele>
        <time>2019-06-20T15:47:10Z</time>
      </trkpt>
      <trkpt lat="43.469545" lon="-8.326839">
        <ele>124.548</ele>
        <time>2019-06-20T15:47:11Z</time>
      </trkpt>
      <trkpt lat="43.469465" lon="-8.327031">
        <ele>122.075</ele>
        <time>2019-06-20T15:47:12Z</time>
      </trkpt>
      <trkpt lat="43.469415" lon="-8.327245">
        <ele>120.916</ele>
        <time>2019-06-20T15:47:13Z</time>
      </trkpt>
      <trkpt lat="43.469366" lon="-8.327408">
        <ele>119.478</ele>
        <time>2019-06-20T15:47:14Z</time>
      </trkpt>
      <trkpt lat="43.469299" lon="-8.327620">
        <ele>117.355</ele>
        <time>2019-06-20T15:47:15Z</time>
      </trkpt>
      <trkpt lat="43.469241" lon="-8.327838">
        <ele>115.077</ele>
        <time>2019-06-20T15:47:16Z</time>
      </trkpt>
      <trkpt lat="43.469253" lon="-8.328031">
        <ele>114.061</ele>
        <time>2019-06-20T15:47:17Z</time>
      </trkpt>
      <trkpt lat="43.469259" lon="-8.328297">
        <ele>111.127</ele>
        <time>2019-06-20T15:47:18Z</time>
      </trkpt>
      <trkpt lat="43.469288" lon="-8.328517">
        <ele>110.908</ele>
        <time>2019-06-20T15:47:19Z</time>
      </trkpt>
      <trkpt lat="43.469294" lon="-8.328700">
        <ele>109.990</ele>
        <time>2019-06-20T15:47:20Z</time>
      </trkpt>
      <trkpt lat="43.469305" lon="-8.328886">
        <ele>109.064</ele>
        <time>2019-06-20T15:47:21Z</time>
      </trkpt>
      <trkpt lat="43.469304" lon="-8.329080">
        <ele>109.025</ele>
        <time>2019-06-20T15:47:22Z</time>
      </trkpt>
      <trkpt lat="43.469302" lon="-8.329204">
        <ele>108.991</ele>
        <time>2019-06-20T15:47:23Z</time>
      </trkpt>
      <trkpt lat="43.469311" lon="-8.329340">
        <ele>109.168</ele>
        <time>2019-06-20T15:47:24Z</time>
      </trkpt>
      <trkpt lat="43.469326" lon="-8.329481">
        <ele>109.559</ele>
        <time>2019-06-20T15:47:25Z</time>
      </trkpt>
      <trkpt lat="43.469300" lon="-8.329608">
        <ele>109.551</ele>
        <time>2019-06-20T15:47:26Z</time>
      </trkpt>
      <trkpt lat="43.469224" lon="-8.329742">
        <ele>109.518</ele>
        <time>2019-06-20T15:47:27Z</time>
      </trkpt>
      <trkpt lat="43.469179" lon="-8.329882">
        <ele>109.679</ele>
        <time>2019-06-20T15:47:28Z</time>
      </trkpt>
      <trkpt lat="43.469136" lon="-8.330002">
        <ele>109.905</ele>
        <time>2019-06-20T15:47:29Z</time>
      </trkpt>
      <trkpt lat="43.468960" lon="-8.330014">
        <ele>109.325</ele>
        <time>2019-06-20T15:47:30Z</time>
      </trkpt>
      <trkpt lat="43.468816" lon="-8.330024">
        <ele>108.308</ele>
        <time>2019-06-20T15:47:31Z</time>
      </trkpt>
      <trkpt lat="43.468689" lon="-8.330097">
        <ele>107.390</ele>
        <time>2019-06-20T15:47:32Z</time>
      </trkpt>
      <trkpt lat="43.468556" lon="-8.330167">
        <ele>106.644</ele>
        <time>2019-06-20T15:47:33Z</time>
      </trkpt>
      <trkpt lat="43.468443" lon="-8.330245">
        <ele>105.915</ele>
        <time>2019-06-20T15:47:34Z</time>
      </trkpt>
      <trkpt lat="43.468343" lon="-8.330330">
        <ele>105.341</ele>
        <time>2019-06-20T15:47:35Z</time>
      </trkpt>
      <trkpt lat="43.468262" lon="-8.330405">
        <ele>104.578</ele>
        <time>2019-06-20T15:47:36Z</time>
      </trkpt>
      <trkpt lat="43.468167" lon="-8.330497">
        <ele>103.999</ele>
        <time>2019-06-20T15:47:37Z</time>
      </trkpt>
      <trkpt lat="43.468091" lon="-8.330615">
        <ele>103.681</ele>
        <time>2019-06-20T15:47:38Z</time>
      </trkpt>
      <trkpt lat="43.468038" lon="-8.330716">
        <ele>103.268</ele>
        <time>2019-06-20T15:47:39Z</time>
      </trkpt>
      <trkpt lat="43.467986" lon="-8.330807">
        <ele>102.444</ele>
        <time>2019-06-20T15:47:40Z</time>
      </trkpt>
      <trkpt lat="43.467940" lon="-8.330924">
        <ele>101.405</ele>
        <time>2019-06-20T15:47:41Z</time>
      </trkpt>
      <trkpt lat="43.467928" lon="-8.331037">
        <ele>100.915</ele>
        <time>2019-06-20T15:47:42Z</time>
      </trkpt>
      <trkpt lat="43.467936" lon="-8.331157">
        <ele>100.808</ele>
        <time>2019-06-20T15:47:43Z</time>
      </trkpt>
      <trkpt lat="43.467936" lon="-8.331283">
        <ele>100.467</ele>
        <time>2019-06-20T15:47:44Z</time>
      </trkpt>
      <trkpt lat="43.467949" lon="-8.331427">
        <ele>100.471</ele>
        <time>2019-06-20T15:47:45Z</time>
      </trkpt>
      <trkpt lat="43.467931" lon="-8.331588">
        <ele>100.242</ele>
        <time>2019-06-20T15:47:46Z</time>
      </trkpt>
      <trkpt lat="43.467915" lon="-8.331688">
        <ele>100.058</ele>
        <time>2019-06-20T15:47:47Z</time>
      </trkpt>
      <trkpt lat="43.467878" lon="-8.331776">
        <ele>99.375</ele>
        <time>2019-06-20T15:47:48Z</time>
      </trkpt>
      <trkpt lat="43.467850" lon="-8.331892">
        <ele>98.886</ele>
        <time>2019-06-20T15:47:49Z</time>
      </trkpt>
      <trkpt lat="43.467820" lon="-8.332015">
        <ele>98.328</ele>
        <time>2019-06-20T15:47:50Z</time>
      </trkpt>
      <trkpt lat="43.467770" lon="-8.332105">
        <ele>97.335</ele>
        <time>2019-06-20T15:47:51Z</time>
      </trkpt>
      <trkpt lat="43.467755" lon="-8.332204">
        <ele>97.249</ele>
        <time>2019-06-20T15:47:52Z</time>
      </trkpt>
      <trkpt lat="43.467734" lon="-8.332271">
        <ele>96.602</ele>
        <time>2019-06-20T15:47:53Z</time>
      </trkpt>
      <trkpt lat="43.467693" lon="-8.332405">
        <ele>95.722</ele>
        <time>2019-06-20T15:47:54Z</time>
      </trkpt>
      <trkpt lat="43.467660" lon="-8.332552">
        <ele>95.308</ele>
        <time>2019-06-20T15:47:55Z</time>
      </trkpt>
      <trkpt lat="43.467609" lon="-8.332691">
        <ele>94.757</ele>
        <time>2019-06-20T15:47:56Z</time>
      </trkpt>
      <trkpt lat="43.467547" lon="-8.332855">
        <ele>93.841</ele>
        <time>2019-06-20T15:47:57Z</time>
      </trkpt>
      <trkpt lat="43.467447" lon="-8.333052">
        <ele>92.682</ele>
        <time>2019-06-20T15:47:58Z</time>
      </trkpt>
      <trkpt lat="43.467319" lon="-8.333196">
        <ele>90.358</ele>
        <time>2019-06-20T15:47:59Z</time>
      </trkpt>
      <trkpt lat="43.467240" lon="-8.333341">
        <ele>89.465</ele>
        <time>2019-06-20T15:48:00Z</time>
      </trkpt>
      <trkpt lat="43.467091" lon="-8.333429">
        <ele>86.226</ele>
        <time>2019-06-20T15:48:01Z</time>
      </trkpt>
      <trkpt lat="43.466959" lon="-8.333536">
        <ele>83.848</ele>
        <time>2019-06-20T15:48:02Z</time>
      </trkpt>
      <trkpt lat="43.466837" lon="-8.333566">
        <ele>82.145</ele>
        <time>2019-06-20T15:48:03Z</time>
      </trkpt>
      <trkpt lat="43.466736" lon="-8.333584">
        <ele>80.717</ele>
        <time>2019-06-20T15:48:04Z</time>
      </trkpt>
      <trkpt lat="43.466570" lon="-8.333640">
        <ele>78.587</ele>
        <time>2019-06-20T15:48:05Z</time>
      </trkpt>
      <trkpt lat="43.466467" lon="-8.333686">
        <ele>77.115</ele>
        <time>2019-06-20T15:48:06Z</time>
      </trkpt>
      <trkpt lat="43.466359" lon="-8.333748">
        <ele>75.708</ele>
        <time>2019-06-20T15:48:07Z</time>
      </trkpt>
      <trkpt lat="43.466299" lon="-8.333829">
        <ele>75.124</ele>
        <time>2019-06-20T15:48:08Z</time>
      </trkpt>
      <trkpt lat="43.466220" lon="-8.333910">
        <ele>73.878</ele>
        <time>2019-06-20T15:48:09Z</time>
      </trkpt>
      <trkpt lat="43.466170" lon="-8.334016">
        <ele>72.939</ele>
        <time>2019-06-20T15:48:10Z</time>
      </trkpt>
      <trkpt lat="43.466118" lon="-8.334166">
        <ele>72.255</ele>
        <time>2019-06-20T15:48:11Z</time>
      </trkpt>
      <trkpt lat="43.466061" lon="-8.334313">
        <ele>70.722</ele>
        <time>2019-06-20T15:48:12Z</time>
      </trkpt>
      <trkpt lat="43.466004" lon="-8.334457">
        <ele>69.343</ele>
        <time>2019-06-20T15:48:13Z</time>
      </trkpt>
      <trkpt lat="43.465961" lon="-8.334596">
        <ele>68.515</ele>
        <time>2019-06-20T15:48:14Z</time>
      </trkpt>
      <trkpt lat="43.465930" lon="-8.334690">
        <ele>68.042</ele>
        <time>2019-06-20T15:48:15Z</time>
      </trkpt>
      <trkpt lat="43.465856" lon="-8.334836">
        <ele>66.511</ele>
        <time>2019-06-20T15:48:16Z</time>
      </trkpt>
      <trkpt lat="43.465796" lon="-8.334954">
        <ele>65.021</ele>
        <time>2019-06-20T15:48:17Z</time>
      </trkpt>
      <trkpt lat="43.465773" lon="-8.335093">
        <ele>65.103</ele>
        <time>2019-06-20T15:48:18Z</time>
      </trkpt>
      <trkpt lat="43.465738" lon="-8.335219">
        <ele>65.208</ele>
        <time>2019-06-20T15:48:19Z</time>
      </trkpt>
      <trkpt lat="43.465785" lon="-8.335338">
        <ele>66.824</ele>
        <time>2019-06-20T15:48:20Z</time>
      </trkpt>
      <trkpt lat="43.465802" lon="-8.335446">
        <ele>67.358</ele>
        <time>2019-06-20T15:48:21Z</time>
      </trkpt>
      <trkpt lat="43.465845" lon="-8.335528">
        <ele>68.369</ele>
        <time>2019-06-20T15:48:22Z</time>
      </trkpt>
      <trkpt lat="43.465864" lon="-8.335624">
        <ele>68.275</ele>
        <time>2019-06-20T15:48:23Z</time>
      </trkpt>
      <trkpt lat="43.465935" lon="-8.335700">
        <ele>69.272</ele>
        <time>2019-06-20T15:48:24Z</time>
      </trkpt>
      <trkpt lat="43.465982" lon="-8.335785">
        <ele>69.633</ele>
        <time>2019-06-20T15:48:25Z</time>
      </trkpt>
      <trkpt lat="43.465989" lon="-8.335901">
        <ele>69.615</ele>
        <time>2019-06-20T15:48:26Z</time>
      </trkpt>
      <trkpt lat="43.465978" lon="-8.336002">
        <ele>69.762</ele>
        <time>2019-06-20T15:48:27Z</time>
      </trkpt>
      <trkpt lat="43.465958" lon="-8.336102">
        <ele>69.757</ele>
        <time>2019-06-20T15:48:28Z</time>
      </trkpt>
      <trkpt lat="43.465847" lon="-8.336198">
        <ele>68.600</ele>
        <time>2019-06-20T15:48:29Z</time>
      </trkpt>
      <trkpt lat="43.465784" lon="-8.336304">
        <ele>68.620</ele>
        <time>2019-06-20T15:48:30Z</time>
      </trkpt>
      <trkpt lat="43.465690" lon="-8.336381">
        <ele>67.308</ele>
        <time>2019-06-20T15:48:31Z</time>
      </trkpt>
      <trkpt lat="43.465598" lon="-8.336458">
        <ele>65.988</ele>
        <time>2019-06-20T15:48:32Z</time>
      </trkpt>
      <trkpt lat="43.465509" lon="-8.336535">
        <ele>64.692</ele>
        <time>2019-06-20T15:48:33Z</time>
      </trkpt>
      <trkpt lat="43.465400" lon="-8.336603">
        <ele>62.683</ele>
        <time>2019-06-20T15:48:34Z</time>
      </trkpt>
      <trkpt lat="43.465311" lon="-8.336666">
        <ele>60.819</ele>
        <time>2019-06-20T15:48:35Z</time>
      </trkpt>
      <trkpt lat="43.465227" lon="-8.336756">
        <ele>59.456</ele>
        <time>2019-06-20T15:48:36Z</time>
      </trkpt>
      <trkpt lat="43.465146" lon="-8.336850">
        <ele>58.027</ele>
        <time>2019-06-20T15:48:37Z</time>
      </trkpt>
      <trkpt lat="43.465067" lon="-8.336938">
        <ele>56.639</ele>
        <time>2019-06-20T15:48:38Z</time>
      </trkpt>
      <trkpt lat="43.465008" lon="-8.337040">
        <ele>55.976</ele>
        <time>2019-06-20T15:48:39Z</time>
      </trkpt>
      <trkpt lat="43.464943" lon="-8.337154">
        <ele>54.641</ele>
        <time>2019-06-20T15:48:40Z</time>
      </trkpt>
      <trkpt lat="43.464881" lon="-8.337298">
        <ele>53.681</ele>
        <time>2019-06-20T15:48:41Z</time>
      </trkpt>
      <trkpt lat="43.464822" lon="-8.337426">
        <ele>52.209</ele>
        <time>2019-06-20T15:48:42Z</time>
      </trkpt>
      <trkpt lat="43.464756" lon="-8.337564">
        <ele>50.608</ele>
        <time>2019-06-20T15:48:43Z</time>
      </trkpt>
      <trkpt lat="43.464709" lon="-8.337687">
        <ele>50.027</ele>
        <time>2019-06-20T15:48:44Z</time>
      </trkpt>
      <trkpt lat="43.464670" lon="-8.337836">
        <ele>49.431</ele>
        <time>2019-06-20T15:48:45Z</time>
      </trkpt>
      <trkpt lat="43.464625" lon="-8.337995">
        <ele>48.082</ele>
        <time>2019-06-20T15:48:46Z</time>
      </trkpt>
      <trkpt lat="43.464580" lon="-8.338135">
        <ele>46.928</ele>
        <time>2019-06-20T15:48:47Z</time>
      </trkpt>
      <trkpt lat="43.464548" lon="-8.338297">
        <ele>46.525</ele>
        <time>2019-06-20T15:48:48Z</time>
      </trkpt>
      <trkpt lat="43.464529" lon="-8.338410">
        <ele>45.916</ele>
        <time>2019-06-20T15:48:49Z</time>
      </trkpt>
      <trkpt lat="43.464479" lon="-8.338548">
        <ele>44.788</ele>
        <time>2019-06-20T15:48:50Z</time>
      </trkpt>
      <trkpt lat="43.464423" lon="-8.338672">
        <ele>43.885</ele>
        <time>2019-06-20T15:48:51Z</time>
      </trkpt>
      <trkpt lat="43.464385" lon="-8.338778">
        <ele>43.651</ele>
        <time>2019-06-20T15:48:52Z</time>
      </trkpt>
      <trkpt lat="43.464333" lon="-8.338866">
        <ele>43.201</ele>
        <time>2019-06-20T15:48:53Z</time>
      </trkpt>
      <trkpt lat="43.464278" lon="-8.338979">
        <ele>43.011</ele>
        <time>2019-06-20T15:48:54Z</time>
      </trkpt>
      <trkpt lat="43.464214" lon="-8.339074">
        <ele>42.908</ele>
        <time>2019-06-20T15:48:55Z</time>
      </trkpt>
      <trkpt lat="43.464169" lon="-8.339165">
        <ele>43.078</ele>
        <time>2019-06-20T15:48:56Z</time>
      </trkpt>
      <trkpt lat="43.464131" lon="-8.339243">
        <ele>43.112</ele>
        <time>2019-06-20T15:48:57Z</time>
      </trkpt>
      <trkpt lat="43.464102" lon="-8.339340">
        <ele>43.343</ele>
        <time>2019-06-20T15:48:58Z</time>
      </trkpt>
      <trkpt lat="43.464059" lon="-8.339430">
        <ele>43.579</ele>
        <time>2019-06-20T15:48:59Z</time>
      </trkpt>
      <trkpt lat="43.464005" lon="-8.339512">
        <ele>43.596</ele>
        <time>2019-06-20T15:49:00Z</time>
      </trkpt>
      <trkpt lat="43.463967" lon="-8.339570">
        <ele>43.277</ele>
        <time>2019-06-20T15:49:01Z</time>
      </trkpt>
      <trkpt lat="43.463919" lon="-8.339619">
        <ele>42.789</ele>
        <time>2019-06-20T15:49:02Z</time>
      </trkpt>
      <trkpt lat="43.463872" lon="-8.339630">
        <ele>42.066</ele>
        <time>2019-06-20T15:49:03Z</time>
      </trkpt>
      <trkpt lat="43.463822" lon="-8.339629">
        <ele>41.251</ele>
        <time>2019-06-20T15:49:04Z</time>
      </trkpt>
      <trkpt lat="43.463741" lon="-8.339584">
        <ele>39.801</ele>
        <time>2019-06-20T15:49:05Z</time>
      </trkpt>
      <trkpt lat="43.463667" lon="-8.339554">
        <ele>38.411</ele>
        <time>2019-06-20T15:49:06Z</time>
      </trkpt>
      <trkpt lat="43.463549" lon="-8.339498">
        <ele>36.008</ele>
        <time>2019-06-20T15:49:07Z</time>
      </trkpt>
      <trkpt lat="43.463456" lon="-8.339442">
        <ele>34.248</ele>
        <time>2019-06-20T15:49:08Z</time>
      </trkpt>
      <trkpt lat="43.463378" lon="-8.339341">
        <ele>32.542</ele>
        <time>2019-06-20T15:49:09Z</time>
      </trkpt>
      <trkpt lat="43.463288" lon="-8.339260">
        <ele>30.593</ele>
        <time>2019-06-20T15:49:10Z</time>
      </trkpt>
      <trkpt lat="43.463200" lon="-8.339152">
        <ele>28.639</ele>
        <time>2019-06-20T15:49:11Z</time>
      </trkpt>
      <trkpt lat="43.463120" lon="-8.339072">
        <ele>27.326</ele>
        <time>2019-06-20T15:49:12Z</time>
      </trkpt>
      <trkpt lat="43.463049" lon="-8.338961">
        <ele>26.737</ele>
        <time>2019-06-20T15:49:13Z</time>
      </trkpt>
      <trkpt lat="43.462985" lon="-8.338863">
        <ele>27.069</ele>
        <time>2019-06-20T15:49:14Z</time>
      </trkpt>
      <trkpt lat="43.462901" lon="-8.338766">
        <ele>27.816</ele>
        <time>2019-06-20T15:49:15Z</time>
      </trkpt>
      <trkpt lat="43.462848" lon="-8.338651">
        <ele>29.272</ele>
        <time>2019-06-20T15:49:16Z</time>
      </trkpt>
      <trkpt lat="43.462785" lon="-8.338640">
        <ele>29.613</ele>
        <time>2019-06-20T15:49:17Z</time>
      </trkpt>
      <trkpt lat="43.462720" lon="-8.338583">
        <ele>30.714</ele>
        <time>2019-06-20T15:49:18Z</time>
      </trkpt>
      <trkpt lat="43.462648" lon="-8.338553">
        <ele>31.608</ele>
        <time>2019-06-20T15:49:19Z</time>
      </trkpt>
      <trkpt lat="43.462608" lon="-8.338516">
        <ele>32.280</ele>
        <time>2019-06-20T15:49:20Z</time>
      </trkpt>
      <trkpt lat="43.462550" lon="-8.338515">
        <ele>32.724</ele>
        <time>2019-06-20T15:49:21Z</time>
      </trkpt>
      <trkpt lat="43.462472" lon="-8.338520">
        <ele>33.015</ele>
        <time>2019-06-20T15:49:22Z</time>
      </trkpt>
      <trkpt lat="43.462391" lon="-8.338494">
        <ele>33.411</ele>
        <time>2019-06-20T15:49:23Z</time>
      </trkpt>
      <trkpt lat="43.462295" lon="-8.338498">
        <ele>33.548</ele>
        <time>2019-06-20T15:49:24Z</time>
      </trkpt>
      <trkpt lat="43.462171" lon="-8.338604">
        <ele>32.739</ele>
        <time>2019-06-20T15:49:25Z</time>
      </trkpt>
      <trkpt lat="43.462060" lon="-8.338661">
        <ele>33.031</ele>
        <time>2019-06-20T15:49:26Z</time>
      </trkpt>
      <trkpt lat="43.461953" lon="-8.338765">
        <ele>32.788</ele>
        <time>2019-06-20T15:49:27Z</time>
      </trkpt>
      <trkpt lat="43.461836" lon="-8.338877">
        <ele>33.199</ele>
        <time>2019-06-20T15:49:28Z</time>
      </trkpt>
      <trkpt lat="43.461744" lon="-8.338960">
        <ele>33.607</ele>
        <time>2019-06-20T15:49:29Z</time>
      </trkpt>
      <trkpt lat="43.461613" lon="-8.339076">
        <ele>34.227</ele>
        <time>2019-06-20T15:49:30Z</time>
      </trkpt>
      <trkpt lat="43.461515" lon="-8.339151">
        <ele>34.508</ele>
        <time>2019-06-20T15:49:31Z</time>
      </trkpt>
      <trkpt lat="43.461410" lon="-8.339250">
        <ele>33.642</ele>
        <time>2019-06-20T15:49:32Z</time>
      </trkpt>
      <trkpt lat="43.461312" lon="-8.339306">
        <ele>33.246</ele>
        <time>2019-06-20T15:49:33Z</time>
      </trkpt>
      <trkpt lat="43.461202" lon="-8.339362">
        <ele>32.697</ele>
        <time>2019-06-20T15:49:34Z</time>
      </trkpt>
      <trkpt lat="43.461110" lon="-8.339391">
        <ele>32.563</ele>
        <time>2019-06-20T15:49:35Z</time>
      </trkpt>
      <trkpt lat="43.461012" lon="-8.339386">
        <ele>33.230</ele>
        <time>2019-06-20T15:49:36Z</time>
      </trkpt>
      <trkpt lat="43.460913" lon="-8.339383">
        <ele>33.991</ele>
        <time>2019-06-20T15:49:37Z</time>
      </trkpt>
      <trkpt lat="43.460790" lon="-8.339362">
        <ele>35.193</ele>
        <time>2019-06-20T15:49:38Z</time>
      </trkpt>
      <trkpt lat="43.460722" lon="-8.339364">
        <ele>35.570</ele>
        <time>2019-06-20T15:49:39Z</time>
      </trkpt>
      <trkpt lat="43.460660" lon="-8.339404">
        <ele>34.864</ele>
        <time>2019-06-20T15:49:40Z</time>
      </trkpt>
      <trkpt lat="43.460566" lon="-8.339470">
        <ele>33.006</ele>
        <time>2019-06-20T15:49:41Z</time>
      </trkpt>
      <trkpt lat="43.460482" lon="-8.339535">
        <ele>31.416</ele>
        <time>2019-06-20T15:49:42Z</time>
      </trkpt>
      <trkpt lat="43.460400" lon="-8.339598">
        <ele>30.208</ele>
        <time>2019-06-20T15:49:43Z</time>
      </trkpt>
      <trkpt lat="43.460284" lon="-8.339690">
        <ele>28.889</ele>
        <time>2019-06-20T15:49:44Z</time>
      </trkpt>
      <trkpt lat="43.460191" lon="-8.339766">
        <ele>26.813</ele>
        <time>2019-06-20T15:49:45Z</time>
      </trkpt>
      <trkpt lat="43.460086" lon="-8.339827">
        <ele>25.234</ele>
        <time>2019-06-20T15:49:46Z</time>
      </trkpt>
      <trkpt lat="43.460000" lon="-8.339885">
        <ele>23.750</ele>
        <time>2019-06-20T15:49:47Z</time>
      </trkpt>
      <trkpt lat="43.459889" lon="-8.339942">
        <ele>23.197</ele>
        <time>2019-06-20T15:49:48Z</time>
      </trkpt>
      <trkpt lat="43.459799" lon="-8.339981">
        <ele>23.348</ele>
        <time>2019-06-20T15:49:49Z</time>
      </trkpt>
      <trkpt lat="43.459713" lon="-8.340017">
        <ele>23.580</ele>
        <time>2019-06-20T15:49:50Z</time>
      </trkpt>
      <trkpt lat="43.459636" lon="-8.340031">
        <ele>22.937</ele>
        <time>2019-06-20T15:49:51Z</time>
      </trkpt>
      <trkpt lat="43.459555" lon="-8.340047">
        <ele>22.224</ele>
        <time>2019-06-20T15:49:52Z</time>
      </trkpt>
      <trkpt lat="43.459469" lon="-8.340079">
        <ele>21.304</ele>
        <time>2019-06-20T15:49:53Z</time>
      </trkpt>
      <trkpt lat="43.459402" lon="-8.340096">
        <ele>20.314</ele>
        <time>2019-06-20T15:49:54Z</time>
      </trkpt>
      <trkpt lat="43.459336" lon="-8.340084">
        <ele>19.508</ele>
        <time>2019-06-20T15:49:58Z</time>
      </trkpt>
      <trkpt lat="43.459289" lon="-8.340014">
        <ele>20.415</ele>
        <time>2019-06-20T15:50:00Z</time>
      </trkpt>
      <trkpt lat="43.459253" lon="-8.339975">
        <ele>20.679</ele>
        <time>2019-06-20T15:50:01Z</time>
      </trkpt>
      <trkpt lat="43.459242" lon="-8.339888">
        <ele>21.760</ele>
        <time>2019-06-20T15:50:02Z</time>
      </trkpt>
      <trkpt lat="43.459228" lon="-8.339826">
        <ele>22.416</ele>
        <time>2019-06-20T15:50:03Z</time>
      </trkpt>
      <trkpt lat="43.459221" lon="-8.339757">
        <ele>23.393</ele>
        <time>2019-06-20T15:50:04Z</time>
      </trkpt>
      <trkpt lat="43.459196" lon="-8.339690">
        <ele>23.594</ele>
        <time>2019-06-20T15:50:05Z</time>
      </trkpt>
      <trkpt lat="43.459229" lon="-8.339605">
        <ele>24.296</ele>
        <time>2019-06-20T15:50:06Z</time>
      </trkpt>
      <trkpt lat="43.459195" lon="-8.339547">
        <ele>23.663</ele>
        <time>2019-06-20T15:50:07Z</time>
      </trkpt>
      <trkpt lat="43.459157" lon="-8.339473">
        <ele>22.863</ele>
        <time>2019-06-20T15:50:10Z</time>
      </trkpt>
      <trkpt lat="43.459165" lon="-8.339387">
        <ele>22.544</ele>
        <time>2019-06-20T15:50:16Z</time>
      </trkpt>
      <trkpt lat="43.459221" lon="-8.339373">
        <ele>24.018</ele>
        <time>2019-06-20T15:50:20Z</time>
      </trkpt>
      <trkpt lat="43.459257" lon="-8.339453">
        <ele>25.208</ele>
        <time>2019-06-20T15:50:22Z</time>
      </trkpt>
      <trkpt lat="43.459277" lon="-8.339510">
        <ele>25.559</ele>
        <time>2019-06-20T15:50:23Z</time>
      </trkpt>
      <trkpt lat="43.459290" lon="-8.339580">
        <ele>25.533</ele>
        <time>2019-06-20T15:50:24Z</time>
      </trkpt>
      <trkpt lat="43.459302" lon="-8.339656">
        <ele>25.394</ele>
        <time>2019-06-20T15:50:25Z</time>
      </trkpt>
      <trkpt lat="43.459310" lon="-8.339725">
        <ele>25.090</ele>
        <time>2019-06-20T15:50:26Z</time>
      </trkpt>
      <trkpt lat="43.459317" lon="-8.339798">
        <ele>24.197</ele>
        <time>2019-06-20T15:50:27Z</time>
      </trkpt>
      <trkpt lat="43.459328" lon="-8.339861">
        <ele>23.318</ele>
        <time>2019-06-20T15:50:28Z</time>
      </trkpt>
      <trkpt lat="43.459335" lon="-8.339930">
        <ele>22.450</ele>
        <time>2019-06-20T15:50:29Z</time>
      </trkpt>
      <trkpt lat="43.459332" lon="-8.340010">
        <ele>21.167</ele>
        <time>2019-06-20T15:50:31Z</time>
      </trkpt>
      <trkpt lat="43.459301" lon="-8.340079">
        <ele>19.179</ele>
        <time>2019-06-20T15:50:33Z</time>
      </trkpt>
      <trkpt lat="43.459250" lon="-8.340121">
        <ele>17.305</ele>
        <time>2019-06-20T15:50:35Z</time>
      </trkpt>
      <trkpt lat="43.459197" lon="-8.340151">
        <ele>15.725</ele>
        <time>2019-06-20T15:50:37Z</time>
      </trkpt>
      <trkpt lat="43.459225" lon="-8.340082">
        <ele>17.808</ele>
        <time>2019-06-20T15:50:44Z</time>
      </trkpt>
      <trkpt lat="43.459258" lon="-8.340009">
        <ele>20.170</ele>
        <time>2019-06-20T15:50:46Z</time>
      </trkpt>
      <trkpt lat="43.459285" lon="-8.339955">
        <ele>21.494</ele>
        <time>2019-06-20T15:50:51Z</time>
      </trkpt>
      <trkpt lat="43.459329" lon="-8.339971">
        <ele>21.865</ele>
        <time>2019-06-20T15:56:31Z</time>
      </trkpt>
      <trkpt lat="43.459264" lon="-8.339962">
        <ele>20.921</ele>
        <time>2019-06-20T16:09:56Z</time>
      </trkpt>
      <trkpt lat="43.459320" lon="-8.339923">
        <ele>22.318</ele>
        <time>2019-06-20T16:11:42Z</time>
      </trkpt>
      <trkpt lat="43.459365" lon="-8.339945">
        <ele>22.669</ele>
        <time>2019-06-20T16:11:43Z</time>
      </trkpt>
      <trkpt lat="43.459417" lon="-8.339982">
        <ele>22.941</ele>
        <time>2019-06-20T16:11:44Z</time>
      </trkpt>
      <trkpt lat="43.459485" lon="-8.340015">
        <ele>22.868</ele>
        <time>2019-06-20T16:11:45Z</time>
      </trkpt>
      <trkpt lat="43.459572" lon="-8.340027">
        <ele>22.838</ele>
        <time>2019-06-20T16:11:46Z</time>
      </trkpt>
      <trkpt lat="43.459696" lon="-8.339973">
        <ele>24.470</ele>
        <time>2019-06-20T16:11:47Z</time>
      </trkpt>
      <trkpt lat="43.459799" lon="-8.339941">
        <ele>24.217</ele>
        <time>2019-06-20T16:11:48Z</time>
      </trkpt>
      <trkpt lat="43.459902" lon="-8.339893">
        <ele>24.308</ele>
        <time>2019-06-20T16:11:49Z</time>
      </trkpt>
      <trkpt lat="43.460006" lon="-8.339840">
        <ele>25.276</ele>
        <time>2019-06-20T16:11:50Z</time>
      </trkpt>
      <trkpt lat="43.460114" lon="-8.339778">
        <ele>26.730</ele>
        <time>2019-06-20T16:11:51Z</time>
      </trkpt>
      <trkpt lat="43.460224" lon="-8.339710">
        <ele>28.621</ele>
        <time>2019-06-20T16:11:52Z</time>
      </trkpt>
      <trkpt lat="43.460327" lon="-8.339632">
        <ele>30.057</ele>
        <time>2019-06-20T16:11:53Z</time>
      </trkpt>
      <trkpt lat="43.460420" lon="-8.339539">
        <ele>31.964</ele>
        <time>2019-06-20T16:11:54Z</time>
      </trkpt>
      <trkpt lat="43.460504" lon="-8.339457">
        <ele>33.925</ele>
        <time>2019-06-20T16:11:55Z</time>
      </trkpt>
      <trkpt lat="43.460601" lon="-8.339393">
        <ele>35.447</ele>
        <time>2019-06-20T16:11:56Z</time>
      </trkpt>
      <trkpt lat="43.460704" lon="-8.339348">
        <ele>36.064</ele>
        <time>2019-06-20T16:11:57Z</time>
      </trkpt>
      <trkpt lat="43.460812" lon="-8.339333">
        <ele>35.675</ele>
        <time>2019-06-20T16:11:58Z</time>
      </trkpt>
      <trkpt lat="43.460919" lon="-8.339328">
        <ele>35.228</ele>
        <time>2019-06-20T16:11:59Z</time>
      </trkpt>
      <trkpt lat="43.461027" lon="-8.339330">
        <ele>34.720</ele>
        <time>2019-06-20T16:12:00Z</time>
      </trkpt>
      <trkpt lat="43.461128" lon="-8.339328">
        <ele>34.208</ele>
        <time>2019-06-20T16:12:01Z</time>
      </trkpt>
      <trkpt lat="43.461227" lon="-8.339322">
        <ele>33.560</ele>
        <time>2019-06-20T16:12:02Z</time>
      </trkpt>
      <trkpt lat="43.461327" lon="-8.339272">
        <ele>33.984</ele>
        <time>2019-06-20T16:12:03Z</time>
      </trkpt>
      <trkpt lat="43.461432" lon="-8.339205">
        <ele>34.485</ele>
        <time>2019-06-20T16:12:04Z</time>
      </trkpt>
      <trkpt lat="43.461540" lon="-8.339143">
        <ele>34.211</ele>
        <time>2019-06-20T16:12:05Z</time>
      </trkpt>
      <trkpt lat="43.461644" lon="-8.339041">
        <ele>34.278</ele>
        <time>2019-06-20T16:12:06Z</time>
      </trkpt>
      <trkpt lat="43.461735" lon="-8.338952">
        <ele>33.999</ele>
        <time>2019-06-20T16:12:07Z</time>
      </trkpt>
      <trkpt lat="43.461813" lon="-8.338884">
        <ele>33.481</ele>
        <time>2019-06-20T16:12:08Z</time>
      </trkpt>
      <trkpt lat="43.461872" lon="-8.338845">
        <ele>32.938</ele>
        <time>2019-06-20T16:12:09Z</time>
      </trkpt>
      <trkpt lat="43.461951" lon="-8.338785">
        <ele>32.496</ele>
        <time>2019-06-20T16:12:11Z</time>
      </trkpt>
      <trkpt lat="43.462001" lon="-8.338742">
        <ele>32.531</ele>
        <time>2019-06-20T16:12:12Z</time>
      </trkpt>
      <trkpt lat="43.462065" lon="-8.338687">
        <ele>32.624</ele>
        <time>2019-06-20T16:12:13Z</time>
      </trkpt>
      <trkpt lat="43.462139" lon="-8.338625">
        <ele>32.708</ele>
        <time>2019-06-20T16:12:14Z</time>
      </trkpt>
      <trkpt lat="43.462223" lon="-8.338569">
        <ele>32.632</ele>
        <time>2019-06-20T16:12:15Z</time>
      </trkpt>
      <trkpt lat="43.462319" lon="-8.338535">
        <ele>33.086</ele>
        <time>2019-06-20T16:12:16Z</time>
      </trkpt>
      <trkpt lat="43.462412" lon="-8.338518">
        <ele>33.167</ele>
        <time>2019-06-20T16:12:17Z</time>
      </trkpt>
      <trkpt lat="43.462506" lon="-8.338521">
        <ele>32.993</ele>
        <time>2019-06-20T16:12:18Z</time>
      </trkpt>
      <trkpt lat="43.462597" lon="-8.338531">
        <ele>32.220</ele>
        <time>2019-06-20T16:12:19Z</time>
      </trkpt>
      <trkpt lat="43.462676" lon="-8.338541">
        <ele>31.551</ele>
        <time>2019-06-20T16:12:20Z</time>
      </trkpt>
      <trkpt lat="43.462753" lon="-8.338568">
        <ele>30.643</ele>
        <time>2019-06-20T16:12:21Z</time>
      </trkpt>
      <trkpt lat="43.462841" lon="-8.338620">
        <ele>29.750</ele>
        <time>2019-06-20T16:12:22Z</time>
      </trkpt>
      <trkpt lat="43.462936" lon="-8.338701">
        <ele>28.516</ele>
        <time>2019-06-20T16:12:23Z</time>
      </trkpt>
      <trkpt lat="43.463036" lon="-8.338811">
        <ele>27.576</ele>
        <time>2019-06-20T16:12:24Z</time>
      </trkpt>
      <trkpt lat="43.463136" lon="-8.338938">
        <ele>27.813</ele>
        <time>2019-06-20T16:12:25Z</time>
      </trkpt>
      <trkpt lat="43.463241" lon="-8.339073">
        <ele>29.208</ele>
        <time>2019-06-20T16:12:26Z</time>
      </trkpt>
      <trkpt lat="43.463354" lon="-8.339189">
        <ele>31.564</ele>
        <time>2019-06-20T16:12:27Z</time>
      </trkpt>
      <trkpt lat="43.463460" lon="-8.339297">
        <ele>34.048</ele>
        <time>2019-06-20T16:12:28Z</time>
      </trkpt>
      <trkpt lat="43.463554" lon="-8.339392">
        <ele>35.969</ele>
        <time>2019-06-20T16:12:29Z</time>
      </trkpt>
      <trkpt lat="43.463631" lon="-8.339467">
        <ele>37.525</ele>
        <time>2019-06-20T16:12:30Z</time>
      </trkpt>
      <trkpt lat="43.463706" lon="-8.339523">
        <ele>39.112</ele>
        <time>2019-06-20T16:12:31Z</time>
      </trkpt>
      <trkpt lat="43.463779" lon="-8.339550">
        <ele>40.513</ele>
        <time>2019-06-20T16:12:32Z</time>
      </trkpt>
      <trkpt lat="43.463853" lon="-8.339545">
        <ele>42.025</ele>
        <time>2019-06-20T16:12:33Z</time>
      </trkpt>
      <trkpt lat="43.463921" lon="-8.339509">
        <ele>43.022</ele>
        <time>2019-06-20T16:12:34Z</time>
      </trkpt>
      <trkpt lat="43.463985" lon="-8.339426">
        <ele>43.299</ele>
        <time>2019-06-20T16:12:35Z</time>
      </trkpt>
      <trkpt lat="43.464051" lon="-8.339314">
        <ele>42.907</ele>
        <time>2019-06-20T16:12:36Z</time>
      </trkpt>
      <trkpt lat="43.464116" lon="-8.339179">
        <ele>42.727</ele>
        <time>2019-06-20T16:12:37Z</time>
      </trkpt>
      <trkpt lat="43.464171" lon="-8.339055">
        <ele>42.608</ele>
        <time>2019-06-20T16:12:38Z</time>
      </trkpt>
      <trkpt lat="43.464234" lon="-8.338929">
        <ele>42.642</ele>
        <time>2019-06-20T16:12:39Z</time>
      </trkpt>
      <trkpt lat="43.464299" lon="-8.338824">
        <ele>43.076</ele>
        <time>2019-06-20T16:12:40Z</time>
      </trkpt>
      <trkpt lat="43.464367" lon="-8.338715">
        <ele>43.427</ele>
        <time>2019-06-20T16:12:41Z</time>
      </trkpt>
      <trkpt lat="43.464438" lon="-8.338593">
        <ele>44.053</ele>
        <time>2019-06-20T16:12:42Z</time>
      </trkpt>
      <trkpt lat="43.464503" lon="-8.338446">
        <ele>45.470</ele>
        <time>2019-06-20T16:12:43Z</time>
      </trkpt>
      <trkpt lat="43.464554" lon="-8.338276">
        <ele>46.531</ele>
        <time>2019-06-20T16:12:44Z</time>
      </trkpt>
      <trkpt lat="43.464598" lon="-8.338088">
        <ele>47.333</ele>
        <time>2019-06-20T16:12:45Z</time>
      </trkpt>
      <trkpt lat="43.464648" lon="-8.337890">
        <ele>48.720</ele>
        <time>2019-06-20T16:12:46Z</time>
      </trkpt>
      <trkpt lat="43.464713" lon="-8.337700">
        <ele>50.244</ele>
        <time>2019-06-20T16:12:47Z</time>
      </trkpt>
      <trkpt lat="43.464789" lon="-8.337517">
        <ele>51.505</ele>
        <time>2019-06-20T16:12:48Z</time>
      </trkpt>
      <trkpt lat="43.464879" lon="-8.337341">
        <ele>53.715</ele>
        <time>2019-06-20T16:12:49Z</time>
      </trkpt>
      <trkpt lat="43.464974" lon="-8.337157">
        <ele>55.708</ele>
        <time>2019-06-20T16:12:50Z</time>
      </trkpt>
      <trkpt lat="43.465067" lon="-8.336993">
        <ele>57.077</ele>
        <time>2019-06-20T16:12:51Z</time>
      </trkpt>
      <trkpt lat="43.465180" lon="-8.336856">
        <ele>58.921</ele>
        <time>2019-06-20T16:12:52Z</time>
      </trkpt>
      <trkpt lat="43.465309" lon="-8.336742">
        <ele>61.452</ele>
        <time>2019-06-20T16:12:53Z</time>
      </trkpt>
      <trkpt lat="43.465441" lon="-8.336650">
        <ele>64.088</ele>
        <time>2019-06-20T16:12:54Z</time>
      </trkpt>
      <trkpt lat="43.465574" lon="-8.336571">
        <ele>66.595</ele>
        <time>2019-06-20T16:12:55Z</time>
      </trkpt>
      <trkpt lat="43.465701" lon="-8.336467">
        <ele>68.856</ele>
        <time>2019-06-20T16:12:56Z</time>
      </trkpt>
      <trkpt lat="43.465811" lon="-8.336355">
        <ele>70.018</ele>
        <time>2019-06-20T16:12:57Z</time>
      </trkpt>
      <trkpt lat="43.465891" lon="-8.336235">
        <ele>70.295</ele>
        <time>2019-06-20T16:12:58Z</time>
      </trkpt>
      <trkpt lat="43.465968" lon="-8.336117">
        <ele>70.093</ele>
        <time>2019-06-20T16:12:59Z</time>
      </trkpt>
      <trkpt lat="43.466021" lon="-8.336009">
        <ele>70.765</ele>
        <time>2019-06-20T16:13:00Z</time>
      </trkpt>
      <trkpt lat="43.466042" lon="-8.335909">
        <ele>70.821</ele>
        <time>2019-06-20T16:13:01Z</time>
      </trkpt>
      <trkpt lat="43.466026" lon="-8.335807">
        <ele>70.408</ele>
        <time>2019-06-20T16:13:02Z</time>
      </trkpt>
      <trkpt lat="43.465988" lon="-8.335713">
        <ele>70.272</ele>
        <time>2019-06-20T16:13:03Z</time>
      </trkpt>
      <trkpt lat="43.465927" lon="-8.335610">
        <ele>69.686</ele>
        <time>2019-06-20T16:13:04Z</time>
      </trkpt>
      <trkpt lat="43.465870" lon="-8.335523">
        <ele>68.857</ele>
        <time>2019-06-20T16:13:05Z</time>
      </trkpt>
      <trkpt lat="43.465818" lon="-8.335399">
        <ele>67.693</ele>
        <time>2019-06-20T16:13:06Z</time>
      </trkpt>
      <trkpt lat="43.465792" lon="-8.335256">
        <ele>66.880</ele>
        <time>2019-06-20T16:13:07Z</time>
      </trkpt>
      <trkpt lat="43.465781" lon="-8.335113">
        <ele>65.591</ele>
        <time>2019-06-20T16:13:08Z</time>
      </trkpt>
      <trkpt lat="43.465789" lon="-8.334965">
        <ele>64.973</ele>
        <time>2019-06-20T16:13:09Z</time>
      </trkpt>
      <trkpt lat="43.465825" lon="-8.334824">
        <ele>65.850</ele>
        <time>2019-06-20T16:13:10Z</time>
      </trkpt>
      <trkpt lat="43.465887" lon="-8.334665">
        <ele>67.085</ele>
        <time>2019-06-20T16:13:11Z</time>
      </trkpt>
      <trkpt lat="43.465962" lon="-8.334475">
        <ele>68.389</ele>
        <time>2019-06-20T16:13:12Z</time>
      </trkpt>
      <trkpt lat="43.466033" lon="-8.334292">
        <ele>69.917</ele>
        <time>2019-06-20T16:13:13Z</time>
      </trkpt>
      <trkpt lat="43.466097" lon="-8.334121">
        <ele>71.408</ele>
        <time>2019-06-20T16:13:14Z</time>
      </trkpt>
      <trkpt lat="43.466164" lon="-8.333985">
        <ele>72.761</ele>
        <time>2019-06-20T16:13:15Z</time>
      </trkpt>
      <trkpt lat="43.466221" lon="-8.333853">
        <ele>73.465</ele>
        <time>2019-06-20T16:13:16Z</time>
      </trkpt>
      <trkpt lat="43.466295" lon="-8.333740">
        <ele>74.076</ele>
        <time>2019-06-20T16:13:17Z</time>
      </trkpt>
      <trkpt lat="43.466377" lon="-8.333648">
        <ele>75.172</ele>
        <time>2019-06-20T16:13:18Z</time>
      </trkpt>
      <trkpt lat="43.466482" lon="-8.333585">
        <ele>76.419</ele>
        <time>2019-06-20T16:13:19Z</time>
      </trkpt>
      <trkpt lat="43.466596" lon="-8.333536">
        <ele>77.960</ele>
        <time>2019-06-20T16:13:20Z</time>
      </trkpt>
      <trkpt lat="43.466721" lon="-8.333497">
        <ele>79.672</ele>
        <time>2019-06-20T16:13:21Z</time>
      </trkpt>
      <trkpt lat="43.466845" lon="-8.333441">
        <ele>81.179</ele>
        <time>2019-06-20T16:13:22Z</time>
      </trkpt>
      <trkpt lat="43.466955" lon="-8.333367">
        <ele>82.532</ele>
        <time>2019-06-20T16:13:23Z</time>
      </trkpt>
      <trkpt lat="43.467072" lon="-8.333281">
        <ele>84.792</ele>
        <time>2019-06-20T16:13:24Z</time>
      </trkpt>
      <trkpt lat="43.467172" lon="-8.333139">
        <ele>86.211</ele>
        <time>2019-06-20T16:13:25Z</time>
      </trkpt>
      <trkpt lat="43.467262" lon="-8.332973">
        <ele>87.708</ele>
        <time>2019-06-20T16:13:26Z</time>
      </trkpt>
      <trkpt lat="43.467337" lon="-8.332807">
        <ele>88.696</ele>
        <time>2019-06-20T16:13:27Z</time>
      </trkpt>
      <trkpt lat="43.467421" lon="-8.332635">
        <ele>89.680</ele>
        <time>2019-06-20T16:13:28Z</time>
      </trkpt>
      <trkpt lat="43.467503" lon="-8.332460">
        <ele>90.851</ele>
        <time>2019-06-20T16:13:29Z</time>
      </trkpt>
      <trkpt lat="43.467580" lon="-8.332288">
        <ele>91.937</ele>
        <time>2019-06-20T16:13:30Z</time>
      </trkpt>
      <trkpt lat="43.467656" lon="-8.332120">
        <ele>94.074</ele>
        <time>2019-06-20T16:13:31Z</time>
      </trkpt>
      <trkpt lat="43.467728" lon="-8.331967">
        <ele>95.885</ele>
        <time>2019-06-20T16:13:32Z</time>
      </trkpt>
      <trkpt lat="43.467792" lon="-8.331828">
        <ele>97.327</ele>
        <time>2019-06-20T16:13:33Z</time>
      </trkpt>
      <trkpt lat="43.467846" lon="-8.331696">
        <ele>98.534</ele>
        <time>2019-06-20T16:13:34Z</time>
      </trkpt>
      <trkpt lat="43.467891" lon="-8.331557">
        <ele>99.248</ele>
        <time>2019-06-20T16:13:35Z</time>
      </trkpt>
      <trkpt lat="43.467901" lon="-8.331426">
        <ele>99.261</ele>
        <time>2019-06-20T16:13:36Z</time>
      </trkpt>
      <trkpt lat="43.467893" lon="-8.331308">
        <ele>99.217</ele>
        <time>2019-06-20T16:13:37Z</time>
      </trkpt>
      <trkpt lat="43.467891" lon="-8.331189">
        <ele>99.608</ele>
        <time>2019-06-20T16:13:38Z</time>
      </trkpt>
      <trkpt lat="43.467892" lon="-8.331062">
        <ele>100.077</ele>
        <time>2019-06-20T16:13:39Z</time>
      </trkpt>
      <trkpt lat="43.467910" lon="-8.330915">
        <ele>100.771</ele>
        <time>2019-06-20T16:13:40Z</time>
      </trkpt>
      <trkpt lat="43.467937" lon="-8.330777">
        <ele>101.322</ele>
        <time>2019-06-20T16:13:41Z</time>
      </trkpt>
      <trkpt lat="43.467988" lon="-8.330651">
        <ele>102.098</ele>
        <time>2019-06-20T16:13:42Z</time>
      </trkpt>
      <trkpt lat="43.468058" lon="-8.330537">
        <ele>102.995</ele>
        <time>2019-06-20T16:13:43Z</time>
      </trkpt>
      <trkpt lat="43.468139" lon="-8.330429">
        <ele>103.196</ele>
        <time>2019-06-20T16:13:44Z</time>
      </trkpt>
      <trkpt lat="43.468237" lon="-8.330327">
        <ele>103.968</ele>
        <time>2019-06-20T16:13:45Z</time>
      </trkpt>
      <trkpt lat="43.468354" lon="-8.330232">
        <ele>104.925</ele>
        <time>2019-06-20T16:13:46Z</time>
      </trkpt>
      <trkpt lat="43.468479" lon="-8.330146">
        <ele>105.686</ele>
        <time>2019-06-20T16:13:47Z</time>
      </trkpt>
      <trkpt lat="43.468611" lon="-8.330057">
        <ele>106.460</ele>
        <time>2019-06-20T16:13:48Z</time>
      </trkpt>
      <trkpt lat="43.468741" lon="-8.329981">
        <ele>107.326</ele>
        <time>2019-06-20T16:13:49Z</time>
      </trkpt>
      <trkpt lat="43.468863" lon="-8.329905">
        <ele>108.008</ele>
        <time>2019-06-20T16:13:50Z</time>
      </trkpt>
      <trkpt lat="43.468958" lon="-8.329845">
        <ele>108.341</ele>
        <time>2019-06-20T16:13:51Z</time>
      </trkpt>
      <trkpt lat="43.469059" lon="-8.329786">
        <ele>108.555</ele>
        <time>2019-06-20T16:13:52Z</time>
      </trkpt>
      <trkpt lat="43.469142" lon="-8.329712">
        <ele>108.716</ele>
        <time>2019-06-20T16:13:53Z</time>
      </trkpt>
      <trkpt lat="43.469203" lon="-8.329622">
        <ele>108.442</ele>
        <time>2019-06-20T16:13:54Z</time>
      </trkpt>
      <trkpt lat="43.469240" lon="-8.329516">
        <ele>108.199</ele>
        <time>2019-06-20T16:13:55Z</time>
      </trkpt>
      <trkpt lat="43.469251" lon="-8.329390">
        <ele>107.750</ele>
        <time>2019-06-20T16:13:56Z</time>
      </trkpt>
      <trkpt lat="43.469243" lon="-8.329243">
        <ele>107.362</ele>
        <time>2019-06-20T16:13:57Z</time>
      </trkpt>
      <trkpt lat="43.469231" lon="-8.329076">
        <ele>106.749</ele>
        <time>2019-06-20T16:13:58Z</time>
      </trkpt>
      <trkpt lat="43.469213" lon="-8.328896">
        <ele>105.734</ele>
        <time>2019-06-20T16:13:59Z</time>
      </trkpt>
      <trkpt lat="43.469198" lon="-8.328703">
        <ele>106.555</ele>
        <time>2019-06-20T16:14:00Z</time>
      </trkpt>
      <trkpt lat="43.469184" lon="-8.328513">
        <ele>107.010</ele>
        <time>2019-06-20T16:14:01Z</time>
      </trkpt>
      <trkpt lat="43.469166" lon="-8.328323">
        <ele>107.108</ele>
        <time>2019-06-20T16:14:02Z</time>
      </trkpt>
      <trkpt lat="43.469149" lon="-8.328137">
        <ele>109.466</ele>
        <time>2019-06-20T16:14:03Z</time>
      </trkpt>
      <trkpt lat="43.469132" lon="-8.327952">
        <ele>110.720</ele>
        <time>2019-06-20T16:14:04Z</time>
      </trkpt>
      <trkpt lat="43.469137" lon="-8.327763">
        <ele>112.031</ele>
        <time>2019-06-20T16:14:05Z</time>
      </trkpt>
      <trkpt lat="43.469162" lon="-8.327578">
        <ele>112.887</ele>
        <time>2019-06-20T16:14:06Z</time>
      </trkpt>
      <trkpt lat="43.469202" lon="-8.327370">
        <ele>113.734</ele>
        <time>2019-06-20T16:14:07Z</time>
      </trkpt>
      <trkpt lat="43.469253" lon="-8.327172">
        <ele>115.195</ele>
        <time>2019-06-20T16:14:08Z</time>
      </trkpt>
      <trkpt lat="43.469314" lon="-8.326968">
        <ele>116.877</ele>
        <time>2019-06-20T16:14:09Z</time>
      </trkpt>
      <trkpt lat="43.469380" lon="-8.326752">
        <ele>119.164</ele>
        <time>2019-06-20T16:14:10Z</time>
      </trkpt>
      <trkpt lat="43.469452" lon="-8.326539">
        <ele>120.989</ele>
        <time>2019-06-20T16:14:11Z</time>
      </trkpt>
      <trkpt lat="43.469537" lon="-8.326315">
        <ele>122.206</ele>
        <time>2019-06-20T16:14:12Z</time>
      </trkpt>
      <trkpt lat="43.469620" lon="-8.326094">
        <ele>124.526</ele>
        <time>2019-06-20T16:14:13Z</time>
      </trkpt>
      <trkpt lat="43.469708" lon="-8.325870">
        <ele>126.708</ele>
        <time>2019-06-20T16:14:14Z</time>
      </trkpt>
      <trkpt lat="43.469792" lon="-8.325640">
        <ele>127.451</ele>
        <time>2019-06-20T16:14:15Z</time>
      </trkpt>
      <trkpt lat="43.469871" lon="-8.325414">
        <ele>128.435</ele>
        <time>2019-06-20T16:14:16Z</time>
      </trkpt>
      <trkpt lat="43.469949" lon="-8.325192">
        <ele>130.446</ele>
        <time>2019-06-20T16:14:17Z</time>
      </trkpt>
      <trkpt lat="43.470021" lon="-8.324969">
        <ele>132.382</ele>
        <time>2019-06-20T16:14:18Z</time>
      </trkpt>
      <trkpt lat="43.470096" lon="-8.324762">
        <ele>132.369</ele>
        <time>2019-06-20T16:14:19Z</time>
      </trkpt>
      <trkpt lat="43.470166" lon="-8.324560">
        <ele>133.640</ele>
        <time>2019-06-20T16:14:20Z</time>
      </trkpt>
      <trkpt lat="43.470234" lon="-8.324358">
        <ele>134.892</ele>
        <time>2019-06-20T16:14:21Z</time>
      </trkpt>
      <trkpt lat="43.470294" lon="-8.324182">
        <ele>135.649</ele>
        <time>2019-06-20T16:14:22Z</time>
      </trkpt>
      <trkpt lat="43.470349" lon="-8.324008">
        <ele>136.294</ele>
        <time>2019-06-20T16:14:23Z</time>
      </trkpt>
      <trkpt lat="43.470369" lon="-8.323866">
        <ele>135.857</ele>
        <time>2019-06-20T16:14:24Z</time>
      </trkpt>
      <trkpt lat="43.470399" lon="-8.323717">
        <ele>136.222</ele>
        <time>2019-06-20T16:14:25Z</time>
      </trkpt>
      <trkpt lat="43.470348" lon="-8.323547">
        <ele>133.708</ele>
        <time>2019-06-20T16:14:26Z</time>
      </trkpt>
      <trkpt lat="43.470348" lon="-8.323398">
        <ele>133.622</ele>
        <time>2019-06-20T16:14:27Z</time>
      </trkpt>
      <trkpt lat="43.470358" lon="-8.323249">
        <ele>133.656</ele>
        <time>2019-06-20T16:14:28Z</time>
      </trkpt>
      <trkpt lat="43.470384" lon="-8.323084">
        <ele>133.937</ele>
        <time>2019-06-20T16:14:29Z</time>
      </trkpt>
      <trkpt lat="43.470432" lon="-8.322932">
        <ele>134.043</ele>
        <time>2019-06-20T16:14:30Z</time>
      </trkpt>
      <trkpt lat="43.470488" lon="-8.322800">
        <ele>134.680</ele>
        <time>2019-06-20T16:14:31Z</time>
      </trkpt>
      <trkpt lat="43.470570" lon="-8.322699">
        <ele>136.391</ele>
        <time>2019-06-20T16:14:32Z</time>
      </trkpt>
      <trkpt lat="43.470670" lon="-8.322591">
        <ele>137.593</ele>
        <time>2019-06-20T16:14:33Z</time>
      </trkpt>
      <trkpt lat="43.470792" lon="-8.322504">
        <ele>139.010</ele>
        <time>2019-06-20T16:14:34Z</time>
      </trkpt>
      <trkpt lat="43.470913" lon="-8.322417">
        <ele>140.727</ele>
        <time>2019-06-20T16:14:35Z</time>
      </trkpt>
      <trkpt lat="43.471041" lon="-8.322343">
        <ele>142.968</ele>
        <time>2019-06-20T16:14:36Z</time>
      </trkpt>
      <trkpt lat="43.471163" lon="-8.322271">
        <ele>145.014</ele>
        <time>2019-06-20T16:14:37Z</time>
      </trkpt>
      <trkpt lat="43.471282" lon="-8.322215">
        <ele>148.008</ele>
        <time>2019-06-20T16:14:38Z</time>
      </trkpt>
      <trkpt lat="43.471384" lon="-8.322157">
        <ele>150.225</ele>
        <time>2019-06-20T16:14:39Z</time>
      </trkpt>
      <trkpt lat="43.471478" lon="-8.322089">
        <ele>152.169</ele>
        <time>2019-06-20T16:14:40Z</time>
      </trkpt>
      <trkpt lat="43.471565" lon="-8.322001">
        <ele>154.250</ele>
        <time>2019-06-20T16:14:41Z</time>
      </trkpt>
      <trkpt lat="43.471632" lon="-8.321808">
        <ele>154.356</ele>
        <time>2019-06-20T16:14:42Z</time>
      </trkpt>
      <trkpt lat="43.471685" lon="-8.321630">
        <ele>154.073</ele>
        <time>2019-06-20T16:14:43Z</time>
      </trkpt>
      <trkpt lat="43.471767" lon="-8.321469">
        <ele>154.194</ele>
        <time>2019-06-20T16:14:44Z</time>
      </trkpt>
      <trkpt lat="43.471840" lon="-8.321305">
        <ele>153.346</ele>
        <time>2019-06-20T16:14:45Z</time>
      </trkpt>
      <trkpt lat="43.471881" lon="-8.321168">
        <ele>151.543</ele>
        <time>2019-06-20T16:14:46Z</time>
      </trkpt>
      <trkpt lat="43.471956" lon="-8.321063">
        <ele>151.816</ele>
        <time>2019-06-20T16:14:47Z</time>
      </trkpt>
      <trkpt lat="43.472040" lon="-8.320936">
        <ele>151.076</ele>
        <time>2019-06-20T16:14:48Z</time>
      </trkpt>
      <trkpt lat="43.472143" lon="-8.320810">
        <ele>150.813</ele>
        <time>2019-06-20T16:14:49Z</time>
      </trkpt>
      <trkpt lat="43.472260" lon="-8.320711">
        <ele>152.208</ele>
        <time>2019-06-20T16:14:50Z</time>
      </trkpt>
      <trkpt lat="43.472394" lon="-8.320628">
        <ele>154.324</ele>
        <time>2019-06-20T16:14:51Z</time>
      </trkpt>
      <trkpt lat="43.472537" lon="-8.320564">
        <ele>156.648</ele>
        <time>2019-06-20T16:14:52Z</time>
      </trkpt>
      <trkpt lat="43.472681" lon="-8.320508">
        <ele>158.999</ele>
        <time>2019-06-20T16:14:53Z</time>
      </trkpt>
      <trkpt lat="43.472838" lon="-8.320443">
        <ele>160.555</ele>
        <time>2019-06-20T16:14:54Z</time>
      </trkpt>
      <trkpt lat="43.473001" lon="-8.320381">
        <ele>160.662</ele>
        <time>2019-06-20T16:14:55Z</time>
      </trkpt>
      <trkpt lat="43.473163" lon="-8.320325">
        <ele>160.963</ele>
        <time>2019-06-20T16:14:56Z</time>
      </trkpt>
      <trkpt lat="43.473323" lon="-8.320264">
        <ele>161.345</ele>
        <time>2019-06-20T16:14:57Z</time>
      </trkpt>
      <trkpt lat="43.473484" lon="-8.320205">
        <ele>163.752</ele>
        <time>2019-06-20T16:14:58Z</time>
      </trkpt>
      <trkpt lat="43.473632" lon="-8.320151">
        <ele>166.094</ele>
        <time>2019-06-20T16:14:59Z</time>
      </trkpt>
      <trkpt lat="43.473782" lon="-8.320097">
        <ele>168.657</ele>
        <time>2019-06-20T16:15:00Z</time>
      </trkpt>
      <trkpt lat="43.473907" lon="-8.320045">
        <ele>170.822</ele>
        <time>2019-06-20T16:15:01Z</time>
      </trkpt>
      <trkpt lat="43.474017" lon="-8.319977">
        <ele>171.908</ele>
        <time>2019-06-20T16:15:02Z</time>
      </trkpt>
      <trkpt lat="43.474110" lon="-8.319881">
        <ele>171.882</ele>
        <time>2019-06-20T16:15:03Z</time>
      </trkpt>
      <trkpt lat="43.474209" lon="-8.319733">
        <ele>170.856</ele>
        <time>2019-06-20T16:15:04Z</time>
      </trkpt>
      <trkpt lat="43.474312" lon="-8.319579">
        <ele>170.457</ele>
        <time>2019-06-20T16:15:05Z</time>
      </trkpt>
      <trkpt lat="43.474403" lon="-8.319421">
        <ele>169.833</ele>
        <time>2019-06-20T16:15:06Z</time>
      </trkpt>
      <trkpt lat="43.474488" lon="-8.319277">
        <ele>170.160</ele>
        <time>2019-06-20T16:15:07Z</time>
      </trkpt>
      <trkpt lat="43.474602" lon="-8.319149">
        <ele>171.831</ele>
        <time>2019-06-20T16:15:08Z</time>
      </trkpt>
      <trkpt lat="43.474719" lon="-8.319033">
        <ele>173.053</ele>
        <time>2019-06-20T16:15:09Z</time>
      </trkpt>
      <trkpt lat="43.474845" lon="-8.318928">
        <ele>174.540</ele>
        <time>2019-06-20T16:15:10Z</time>
      </trkpt>
      <trkpt lat="43.474973" lon="-8.318820">
        <ele>176.198</ele>
        <time>2019-06-20T16:15:11Z</time>
      </trkpt>
      <trkpt lat="43.475052" lon="-8.318681">
        <ele>174.515</ele>
        <time>2019-06-20T16:15:12Z</time>
      </trkpt>
      <trkpt lat="43.475182" lon="-8.318544">
        <ele>175.026</ele>
        <time>2019-06-20T16:15:13Z</time>
      </trkpt>
      <trkpt lat="43.475294" lon="-8.318399">
        <ele>175.508</ele>
        <time>2019-06-20T16:15:14Z</time>
      </trkpt>
      <trkpt lat="43.475410" lon="-8.318269">
        <ele>175.692</ele>
        <time>2019-06-20T16:15:15Z</time>
      </trkpt>
      <trkpt lat="43.475515" lon="-8.318133">
        <ele>175.466</ele>
        <time>2019-06-20T16:15:16Z</time>
      </trkpt>
      <trkpt lat="43.475622" lon="-8.318035">
        <ele>176.967</ele>
        <time>2019-06-20T16:15:17Z</time>
      </trkpt>
      <trkpt lat="43.475746" lon="-8.317923">
        <ele>178.723</ele>
        <time>2019-06-20T16:15:18Z</time>
      </trkpt>
      <trkpt lat="43.475882" lon="-8.317832">
        <ele>180.530</ele>
        <time>2019-06-20T16:15:19Z</time>
      </trkpt>
      <trkpt lat="43.476012" lon="-8.317802">
        <ele>183.091</ele>
        <time>2019-06-20T16:15:20Z</time>
      </trkpt>
      <trkpt lat="43.476146" lon="-8.317744">
        <ele>184.613</ele>
        <time>2019-06-20T16:15:21Z</time>
      </trkpt>
      <trkpt lat="43.476285" lon="-8.317707">
        <ele>185.480</ele>
        <time>2019-06-20T16:15:22Z</time>
      </trkpt>
      <trkpt lat="43.476414" lon="-8.317703">
        <ele>186.871</ele>
        <time>2019-06-20T16:15:23Z</time>
      </trkpt>
      <trkpt lat="43.476546" lon="-8.317738">
        <ele>187.941</ele>
        <time>2019-06-20T16:15:24Z</time>
      </trkpt>
      <trkpt lat="43.476675" lon="-8.317811">
        <ele>189.515</ele>
        <time>2019-06-20T16:15:25Z</time>
      </trkpt>
      <trkpt lat="43.476795" lon="-8.317916">
        <ele>191.508</ele>
        <time>2019-06-20T16:15:26Z</time>
      </trkpt>
      <trkpt lat="43.476904" lon="-8.318045">
        <ele>192.980</ele>
        <time>2019-06-20T16:15:27Z</time>
      </trkpt>
      <trkpt lat="43.477001" lon="-8.318175">
        <ele>194.894</ele>
        <time>2019-06-20T16:15:28Z</time>
      </trkpt>
      <trkpt lat="43.477098" lon="-8.318283">
        <ele>196.385</ele>
        <time>2019-06-20T16:15:29Z</time>
      </trkpt>
      <trkpt lat="43.477203" lon="-8.318355">
        <ele>197.091</ele>
        <time>2019-06-20T16:15:30Z</time>
      </trkpt>
      <trkpt lat="43.477315" lon="-8.318360">
        <ele>197.788</ele>
        <time>2019-06-20T16:15:31Z</time>
      </trkpt>
      <trkpt lat="43.477417" lon="-8.318360">
        <ele>198.419</ele>
        <time>2019-06-20T16:15:32Z</time>
      </trkpt>
      <trkpt lat="43.477505" lon="-8.318351">
        <ele>199.061</ele>
        <time>2019-06-20T16:15:33Z</time>
      </trkpt>
      <trkpt lat="43.477598" lon="-8.318345">
        <ele>199.778</ele>
        <time>2019-06-20T16:15:34Z</time>
      </trkpt>
      <trkpt lat="43.477684" lon="-8.318178">
        <ele>199.855</ele>
        <time>2019-06-20T16:15:35Z</time>
      </trkpt>
      <trkpt lat="43.477802" lon="-8.318099">
        <ele>200.507</ele>
        <time>2019-06-20T16:15:36Z</time>
      </trkpt>
      <trkpt lat="43.477876" lon="-8.318024">
        <ele>201.417</ele>
        <time>2019-06-20T16:15:37Z</time>
      </trkpt>
      <trkpt lat="43.477983" lon="-8.317934">
        <ele>203.008</ele>
        <time>2019-06-20T16:15:38Z</time>
      </trkpt>
      <trkpt lat="43.478072" lon="-8.317826">
        <ele>204.258</ele>
        <time>2019-06-20T16:15:39Z</time>
      </trkpt>
      <trkpt lat="43.478123" lon="-8.317668">
        <ele>204.112</ele>
        <time>2019-06-20T16:15:40Z</time>
      </trkpt>
      <trkpt lat="43.478155" lon="-8.317492">
        <ele>203.783</ele>
        <time>2019-06-20T16:15:41Z</time>
      </trkpt>
      <trkpt lat="43.478188" lon="-8.317306">
        <ele>201.999</ele>
        <time>2019-06-20T16:15:42Z</time>
      </trkpt>
      <trkpt lat="43.478210" lon="-8.317115">
        <ele>199.426</ele>
        <time>2019-06-20T16:15:43Z</time>
      </trkpt>
      <trkpt lat="43.478223" lon="-8.316936">
        <ele>196.827</ele>
        <time>2019-06-20T16:15:44Z</time>
      </trkpt>
      <trkpt lat="43.478248" lon="-8.316747">
        <ele>195.949</ele>
        <time>2019-06-20T16:15:45Z</time>
      </trkpt>
      <trkpt lat="43.478278" lon="-8.316570">
        <ele>195.146</ele>
        <time>2019-06-20T16:15:46Z</time>
      </trkpt>
      <trkpt lat="43.478320" lon="-8.316383">
        <ele>194.483</ele>
        <time>2019-06-20T16:15:47Z</time>
      </trkpt>
      <trkpt lat="43.478355" lon="-8.316205">
        <ele>193.225</ele>
        <time>2019-06-20T16:15:48Z</time>
      </trkpt>
      <trkpt lat="43.478402" lon="-8.316032">
        <ele>192.417</ele>
        <time>2019-06-20T16:15:49Z</time>
      </trkpt>
      <trkpt lat="43.478440" lon="-8.315872">
        <ele>191.708</ele>
        <time>2019-06-20T16:15:50Z</time>
      </trkpt>
      <trkpt lat="43.478482" lon="-8.315719">
        <ele>191.091</ele>
        <time>2019-06-20T16:15:51Z</time>
      </trkpt>
      <trkpt lat="43.478531" lon="-8.315548">
        <ele>190.015</ele>
        <time>2019-06-20T16:15:52Z</time>
      </trkpt>
      <trkpt lat="43.478580" lon="-8.315385">
        <ele>189.426</ele>
        <time>2019-06-20T16:15:53Z</time>
      </trkpt>
      <trkpt lat="43.478645" lon="-8.315214">
        <ele>189.052</ele>
        <time>2019-06-20T16:15:54Z</time>
      </trkpt>
      <trkpt lat="43.478721" lon="-8.315059">
        <ele>188.989</ele>
        <time>2019-06-20T16:15:55Z</time>
      </trkpt>
      <trkpt lat="43.478800" lon="-8.314903">
        <ele>188.510</ele>
        <time>2019-06-20T16:15:56Z</time>
      </trkpt>
      <trkpt lat="43.478877" lon="-8.314749">
        <ele>187.342</ele>
        <time>2019-06-20T16:15:57Z</time>
      </trkpt>
      <trkpt lat="43.478960" lon="-8.314603">
        <ele>187.269</ele>
        <time>2019-06-20T16:15:58Z</time>
      </trkpt>
      <trkpt lat="43.479016" lon="-8.314467">
        <ele>186.931</ele>
        <time>2019-06-20T16:15:59Z</time>
      </trkpt>
      <trkpt lat="43.479061" lon="-8.314315">
        <ele>187.261</ele>
        <time>2019-06-20T16:16:00Z</time>
      </trkpt>
      <trkpt lat="43.479106" lon="-8.314181">
        <ele>187.707</ele>
        <time>2019-06-20T16:16:01Z</time>
      </trkpt>
      <trkpt lat="43.479130" lon="-8.314032">
        <ele>187.408</ele>
        <time>2019-06-20T16:16:02Z</time>
      </trkpt>
      <trkpt lat="43.479124" lon="-8.313845">
        <ele>185.376</ele>
        <time>2019-06-20T16:16:03Z</time>
      </trkpt>
      <trkpt lat="43.479118" lon="-8.313655">
        <ele>182.570</ele>
        <time>2019-06-20T16:16:04Z</time>
      </trkpt>
      <trkpt lat="43.479114" lon="-8.313456">
        <ele>180.861</ele>
        <time>2019-06-20T16:16:05Z</time>
      </trkpt>
      <trkpt lat="43.479111" lon="-8.313263">
        <ele>179.797</ele>
        <time>2019-06-20T16:16:06Z</time>
      </trkpt>
      <trkpt lat="43.479116" lon="-8.313067">
        <ele>179.234</ele>
        <time>2019-06-20T16:16:07Z</time>
      </trkpt>
      <trkpt lat="43.479121" lon="-8.312877">
        <ele>179.235</ele>
        <time>2019-06-20T16:16:08Z</time>
      </trkpt>
      <trkpt lat="43.479137" lon="-8.312694">
        <ele>178.327</ele>
        <time>2019-06-20T16:16:09Z</time>
      </trkpt>
      <trkpt lat="43.479175" lon="-8.312516">
        <ele>176.634</ele>
        <time>2019-06-20T16:16:10Z</time>
      </trkpt>
      <trkpt lat="43.479230" lon="-8.312337">
        <ele>174.582</ele>
        <time>2019-06-20T16:16:11Z</time>
      </trkpt>
      <trkpt lat="43.479300" lon="-8.312167">
        <ele>172.743</ele>
        <time>2019-06-20T16:16:12Z</time>
      </trkpt>
      <trkpt lat="43.479378" lon="-8.311991">
        <ele>169.817</ele>
        <time>2019-06-20T16:16:13Z</time>
      </trkpt>
      <trkpt lat="43.479473" lon="-8.311842">
        <ele>169.208</ele>
        <time>2019-06-20T16:16:14Z</time>
      </trkpt>
      <trkpt lat="43.479572" lon="-8.311705">
        <ele>168.851</ele>
        <time>2019-06-20T16:16:15Z</time>
      </trkpt>
      <trkpt lat="43.479680" lon="-8.311586">
        <ele>168.185</ele>
        <time>2019-06-20T16:16:16Z</time>
      </trkpt>
      <trkpt lat="43.479790" lon="-8.311462">
        <ele>167.996</ele>
        <time>2019-06-20T16:16:17Z</time>
      </trkpt>
      <trkpt lat="43.479894" lon="-8.311330">
        <ele>167.482</ele>
        <time>2019-06-20T16:16:18Z</time>
      </trkpt>
      <trkpt lat="43.479976" lon="-8.311189">
        <ele>165.779</ele>
        <time>2019-06-20T16:16:19Z</time>
      </trkpt>
      <trkpt lat="43.480054" lon="-8.311049">
        <ele>163.730</ele>
        <time>2019-06-20T16:16:20Z</time>
      </trkpt>
      <trkpt lat="43.480116" lon="-8.310908">
        <ele>160.982</ele>
        <time>2019-06-20T16:16:21Z</time>
      </trkpt>
      <trkpt lat="43.480143" lon="-8.310739">
        <ele>156.069</ele>
        <time>2019-06-20T16:16:22Z</time>
      </trkpt>
      <trkpt lat="43.480175" lon="-8.310569">
        <ele>150.749</ele>
        <time>2019-06-20T16:16:23Z</time>
      </trkpt>
      <trkpt lat="43.480201" lon="-8.310385">
        <ele>146.802</ele>
        <time>2019-06-20T16:16:24Z</time>
      </trkpt>
      <trkpt lat="43.480233" lon="-8.310202">
        <ele>144.222</ele>
        <time>2019-06-20T16:16:25Z</time>
      </trkpt>
      <trkpt lat="43.480253" lon="-8.310025">
        <ele>143.208</ele>
        <time>2019-06-20T16:16:26Z</time>
      </trkpt>
      <trkpt lat="43.480275" lon="-8.309845">
        <ele>144.187</ele>
        <time>2019-06-20T16:16:27Z</time>
      </trkpt>
      <trkpt lat="43.480300" lon="-8.309660">
        <ele>145.941</ele>
        <time>2019-06-20T16:16:28Z</time>
      </trkpt>
      <trkpt lat="43.480337" lon="-8.309465">
        <ele>148.822</ele>
        <time>2019-06-20T16:16:29Z</time>
      </trkpt>
      <trkpt lat="43.480400" lon="-8.309294">
        <ele>150.578</ele>
        <time>2019-06-20T16:16:30Z</time>
      </trkpt>
      <trkpt lat="43.480471" lon="-8.309113">
        <ele>151.525</ele>
        <time>2019-06-20T16:16:31Z</time>
      </trkpt>
      <trkpt lat="43.480565" lon="-8.308932">
        <ele>152.066</ele>
        <time>2019-06-20T16:16:32Z</time>
      </trkpt>
      <trkpt lat="43.480663" lon="-8.308761">
        <ele>153.468</ele>
        <time>2019-06-20T16:16:33Z</time>
      </trkpt>
      <trkpt lat="43.480762" lon="-8.308592">
        <ele>153.935</ele>
        <time>2019-06-20T16:16:34Z</time>
      </trkpt>
      <trkpt lat="43.480878" lon="-8.308456">
        <ele>154.334</ele>
        <time>2019-06-20T16:16:35Z</time>
      </trkpt>
      <trkpt lat="43.481016" lon="-8.308299">
        <ele>154.755</ele>
        <time>2019-06-20T16:16:36Z</time>
      </trkpt>
      <trkpt lat="43.481155" lon="-8.308176">
        <ele>154.510</ele>
        <time>2019-06-20T16:16:37Z</time>
      </trkpt>
      <trkpt lat="43.481294" lon="-8.308041">
        <ele>154.108</ele>
        <time>2019-06-20T16:16:38Z</time>
      </trkpt>
      <trkpt lat="43.481403" lon="-8.307892">
        <ele>155.436</ele>
        <time>2019-06-20T16:16:39Z</time>
      </trkpt>
      <trkpt lat="43.481505" lon="-8.307772">
        <ele>156.650</ele>
        <time>2019-06-20T16:16:40Z</time>
      </trkpt>
      <trkpt lat="43.481613" lon="-8.307651">
        <ele>156.961</ele>
        <time>2019-06-20T16:16:41Z</time>
      </trkpt>
      <trkpt lat="43.481742" lon="-8.307550">
        <ele>156.257</ele>
        <time>2019-06-20T16:16:42Z</time>
      </trkpt>
      <trkpt lat="43.481870" lon="-8.307437">
        <ele>155.894</ele>
        <time>2019-06-20T16:16:43Z</time>
      </trkpt>
      <trkpt lat="43.482006" lon="-8.307337">
        <ele>154.245</ele>
        <time>2019-06-20T16:16:44Z</time>
      </trkpt>
      <trkpt lat="43.482149" lon="-8.307250">
        <ele>151.627</ele>
        <time>2019-06-20T16:16:45Z</time>
      </trkpt>
      <trkpt lat="43.482291" lon="-8.307171">
        <ele>148.814</ele>
        <time>2019-06-20T16:16:46Z</time>
      </trkpt>
      <trkpt lat="43.482445" lon="-8.307073">
        <ele>146.315</ele>
        <time>2019-06-20T16:16:47Z</time>
      </trkpt>
      <trkpt lat="43.482595" lon="-8.306991">
        <ele>145.465</ele>
        <time>2019-06-20T16:16:48Z</time>
      </trkpt>
      <trkpt lat="43.482737" lon="-8.306902">
        <ele>145.811</ele>
        <time>2019-06-20T16:16:49Z</time>
      </trkpt>
      <trkpt lat="43.482885" lon="-8.306808">
        <ele>146.008</ele>
        <time>2019-06-20T16:16:50Z</time>
      </trkpt>
      <trkpt lat="43.483012" lon="-8.306698">
        <ele>146.294</ele>
        <time>2019-06-20T16:16:51Z</time>
      </trkpt>
      <trkpt lat="43.483128" lon="-8.306573">
        <ele>146.058</ele>
        <time>2019-06-20T16:16:52Z</time>
      </trkpt>
      <trkpt lat="43.483223" lon="-8.306436">
        <ele>146.079</ele>
        <time>2019-06-20T16:16:53Z</time>
      </trkpt>
      <trkpt lat="43.483328" lon="-8.306272">
        <ele>145.065</ele>
        <time>2019-06-20T16:16:54Z</time>
      </trkpt>
      <trkpt lat="43.483402" lon="-8.306045">
        <ele>145.142</ele>
        <time>2019-06-20T16:16:55Z</time>
      </trkpt>
      <trkpt lat="43.483457" lon="-8.305844">
        <ele>145.433</ele>
        <time>2019-06-20T16:16:56Z</time>
      </trkpt>
      <trkpt lat="43.483531" lon="-8.305612">
        <ele>144.625</ele>
        <time>2019-06-20T16:16:57Z</time>
      </trkpt>
      <trkpt lat="43.483613" lon="-8.305400">
        <ele>142.522</ele>
        <time>2019-06-20T16:16:58Z</time>
      </trkpt>
      <trkpt lat="43.483688" lon="-8.305168">
        <ele>141.471</ele>
        <time>2019-06-20T16:16:59Z</time>
      </trkpt>
      <trkpt lat="43.483769" lon="-8.304963">
        <ele>139.641</ele>
        <time>2019-06-20T16:17:00Z</time>
      </trkpt>
      <trkpt lat="43.483851" lon="-8.304750">
        <ele>138.215</ele>
        <time>2019-06-20T16:17:01Z</time>
      </trkpt>
      <trkpt lat="43.483930" lon="-8.304535">
        <ele>138.308</ele>
        <time>2019-06-20T16:17:02Z</time>
      </trkpt>
      <trkpt lat="43.484014" lon="-8.304338">
        <ele>138.460</ele>
        <time>2019-06-20T16:17:03Z</time>
      </trkpt>
      <trkpt lat="43.484101" lon="-8.304157">
        <ele>138.054</ele>
        <time>2019-06-20T16:17:04Z</time>
      </trkpt>
      <trkpt lat="43.484175" lon="-8.303973">
        <ele>138.295</ele>
        <time>2019-06-20T16:17:05Z</time>
      </trkpt>
      <trkpt lat="43.484247" lon="-8.303865">
        <ele>137.821</ele>
        <time>2019-06-20T16:17:06Z</time>
      </trkpt>
      <trkpt lat="43.484347" lon="-8.303776">
        <ele>136.878</ele>
        <time>2019-06-20T16:17:07Z</time>
      </trkpt>
      <trkpt lat="43.484459" lon="-8.303694">
        <ele>136.369</ele>
        <time>2019-06-20T16:17:08Z</time>
      </trkpt>
      <trkpt lat="43.484590" lon="-8.303634">
        <ele>135.271</ele>
        <time>2019-06-20T16:17:09Z</time>
      </trkpt>
      <trkpt lat="43.484724" lon="-8.303584">
        <ele>133.678</ele>
        <time>2019-06-20T16:17:10Z</time>
      </trkpt>
      <trkpt lat="43.484873" lon="-8.303520">
        <ele>131.754</ele>
        <time>2019-06-20T16:17:11Z</time>
      </trkpt>
      <trkpt lat="43.485012" lon="-8.303466">
        <ele>129.356</ele>
        <time>2019-06-20T16:17:12Z</time>
      </trkpt>
      <trkpt lat="43.485121" lon="-8.303349">
        <ele>128.211</ele>
        <time>2019-06-20T16:17:13Z</time>
      </trkpt>
      <trkpt lat="43.485225" lon="-8.303237">
        <ele>127.608</ele>
        <time>2019-06-20T16:17:14Z</time>
      </trkpt>
      <trkpt lat="43.485331" lon="-8.303122">
        <ele>126.738</ele>
        <time>2019-06-20T16:17:15Z</time>
      </trkpt>
      <trkpt lat="43.485430" lon="-8.302977">
        <ele>125.672</ele>
        <time>2019-06-20T16:17:16Z</time>
      </trkpt>
      <trkpt lat="43.485502" lon="-8.302796">
        <ele>125.123</ele>
        <time>2019-06-20T16:17:17Z</time>
      </trkpt>
      <trkpt lat="43.485588" lon="-8.302602">
        <ele>123.419</ele>
        <time>2019-06-20T16:17:18Z</time>
      </trkpt>
      <trkpt lat="43.485666" lon="-8.302425">
        <ele>121.466</ele>
        <time>2019-06-20T16:17:19Z</time>
      </trkpt>
      <trkpt lat="43.485748" lon="-8.302252">
        <ele>119.757</ele>
        <time>2019-06-20T16:17:20Z</time>
      </trkpt>
      <trkpt lat="43.485825" lon="-8.302102">
        <ele>119.069</ele>
        <time>2019-06-20T16:17:21Z</time>
      </trkpt>
      <trkpt lat="43.485924" lon="-8.301941">
        <ele>118.146</ele>
        <time>2019-06-20T16:17:22Z</time>
      </trkpt>
      <trkpt lat="43.486023" lon="-8.301771">
        <ele>118.486</ele>
        <time>2019-06-20T16:17:23Z</time>
      </trkpt>
      <trkpt lat="43.486106" lon="-8.301600">
        <ele>119.160</ele>
        <time>2019-06-20T16:17:24Z</time>
      </trkpt>
      <trkpt lat="43.486170" lon="-8.301393">
        <ele>123.026</ele>
        <time>2019-06-20T16:17:25Z</time>
      </trkpt>
      <trkpt lat="43.486257" lon="-8.301215">
        <ele>124.708</ele>
        <time>2019-06-20T16:17:26Z</time>
      </trkpt>
      <trkpt lat="43.486355" lon="-8.301035">
        <ele>124.921</ele>
        <time>2019-06-20T16:17:27Z</time>
      </trkpt>
      <trkpt lat="43.486433" lon="-8.300864">
        <ele>124.215</ele>
        <time>2019-06-20T16:17:28Z</time>
      </trkpt>
      <trkpt lat="43.486508" lon="-8.300686">
        <ele>122.996</ele>
        <time>2019-06-20T16:17:29Z</time>
      </trkpt>
      <trkpt lat="43.486583" lon="-8.300504">
        <ele>121.722</ele>
        <time>2019-06-20T16:17:30Z</time>
      </trkpt>
      <trkpt lat="43.486650" lon="-8.300320">
        <ele>120.439</ele>
        <time>2019-06-20T16:17:31Z</time>
      </trkpt>
      <trkpt lat="43.486697" lon="-8.300155">
        <ele>120.790</ele>
        <time>2019-06-20T16:17:32Z</time>
      </trkpt>
      <trkpt lat="43.486776" lon="-8.299996">
        <ele>120.572</ele>
        <time>2019-06-20T16:17:33Z</time>
      </trkpt>
      <trkpt lat="43.486858" lon="-8.299814">
        <ele>120.259</ele>
        <time>2019-06-20T16:17:34Z</time>
      </trkpt>
      <trkpt lat="43.486948" lon="-8.299656">
        <ele>118.613</ele>
        <time>2019-06-20T16:17:35Z</time>
      </trkpt>
      <trkpt lat="43.487039" lon="-8.299498">
        <ele>116.143</ele>
        <time>2019-06-20T16:17:36Z</time>
      </trkpt>
      <trkpt lat="43.487148" lon="-8.299338">
        <ele>112.807</ele>
        <time>2019-06-20T16:17:37Z</time>
      </trkpt>
      <trkpt lat="43.487249" lon="-8.299204">
        <ele>109.508</ele>
        <time>2019-06-20T16:17:38Z</time>
      </trkpt>
      <trkpt lat="43.487359" lon="-8.299063">
        <ele>107.844</ele>
        <time>2019-06-20T16:17:39Z</time>
      </trkpt>
      <trkpt lat="43.487457" lon="-8.298957">
        <ele>105.778</ele>
        <time>2019-06-20T16:17:40Z</time>
      </trkpt>
      <trkpt lat="43.487572" lon="-8.298877">
        <ele>103.569</ele>
        <time>2019-06-20T16:17:41Z</time>
      </trkpt>
      <trkpt lat="43.487695" lon="-8.298790">
        <ele>102.515</ele>
        <time>2019-06-20T16:17:42Z</time>
      </trkpt>
      <trkpt lat="43.487816" lon="-8.298689">
        <ele>101.132</ele>
        <time>2019-06-20T16:17:43Z</time>
      </trkpt>
      <trkpt lat="43.487943" lon="-8.298592">
        <ele>98.643</ele>
        <time>2019-06-20T16:17:44Z</time>
      </trkpt>
      <trkpt lat="43.488050" lon="-8.298466">
        <ele>97.965</ele>
        <time>2019-06-20T16:17:45Z</time>
      </trkpt>
      <trkpt lat="43.488117" lon="-8.298304">
        <ele>99.562</ele>
        <time>2019-06-20T16:17:46Z</time>
      </trkpt>
      <trkpt lat="43.488215" lon="-8.298120">
        <ele>102.077</ele>
        <time>2019-06-20T16:17:47Z</time>
      </trkpt>
      <trkpt lat="43.488286" lon="-8.297934">
        <ele>105.061</ele>
        <time>2019-06-20T16:17:48Z</time>
      </trkpt>
      <trkpt lat="43.488381" lon="-8.297745">
        <ele>105.827</ele>
        <time>2019-06-20T16:17:49Z</time>
      </trkpt>
      <trkpt lat="43.488480" lon="-8.297562">
        <ele>103.908</ele>
        <time>2019-06-20T16:17:50Z</time>
      </trkpt>
      <trkpt lat="43.488577" lon="-8.297364">
        <ele>100.840</ele>
        <time>2019-06-20T16:17:51Z</time>
      </trkpt>
      <trkpt lat="43.488692" lon="-8.297196">
        <ele>97.424</ele>
        <time>2019-06-20T16:17:52Z</time>
      </trkpt>
      <trkpt lat="43.488801" lon="-8.297020">
        <ele>95.835</ele>
        <time>2019-06-20T16:17:53Z</time>
      </trkpt>
      <trkpt lat="43.488907" lon="-8.296868">
        <ele>95.591</ele>
        <time>2019-06-20T16:17:54Z</time>
      </trkpt>
      <trkpt lat="43.489012" lon="-8.296727">
        <ele>96.048</ele>
        <time>2019-06-20T16:17:55Z</time>
      </trkpt>
      <trkpt lat="43.489118" lon="-8.296567">
        <ele>95.939</ele>
        <time>2019-06-20T16:17:56Z</time>
      </trkpt>
      <trkpt lat="43.489237" lon="-8.296428">
        <ele>94.841</ele>
        <time>2019-06-20T16:17:57Z</time>
      </trkpt>
      <trkpt lat="43.489365" lon="-8.296324">
        <ele>93.698</ele>
        <time>2019-06-20T16:17:58Z</time>
      </trkpt>
      <trkpt lat="43.489480" lon="-8.296224">
        <ele>92.137</ele>
        <time>2019-06-20T16:17:59Z</time>
      </trkpt>
      <trkpt lat="43.489602" lon="-8.296108">
        <ele>90.049</ele>
        <time>2019-06-20T16:18:00Z</time>
      </trkpt>
      <trkpt lat="43.489711" lon="-8.295975">
        <ele>88.813</ele>
        <time>2019-06-20T16:18:01Z</time>
      </trkpt>
      <trkpt lat="43.489792" lon="-8.295829">
        <ele>86.308</ele>
        <time>2019-06-20T16:18:02Z</time>
      </trkpt>
      <trkpt lat="43.489872" lon="-8.295683">
        <ele>82.616</ele>
        <time>2019-06-20T16:18:03Z</time>
      </trkpt>
      <trkpt lat="43.489946" lon="-8.295523">
        <ele>79.670</ele>
        <time>2019-06-20T16:18:04Z</time>
      </trkpt>
      <trkpt lat="43.489986" lon="-8.295328">
        <ele>81.021</ele>
        <time>2019-06-20T16:18:05Z</time>
      </trkpt>
      <trkpt lat="43.490058" lon="-8.295141">
        <ele>79.687</ele>
        <time>2019-06-20T16:18:06Z</time>
      </trkpt>
      <trkpt lat="43.490129" lon="-8.294979">
        <ele>77.174</ele>
        <time>2019-06-20T16:18:07Z</time>
      </trkpt>
      <trkpt lat="43.490194" lon="-8.294824">
        <ele>74.685</ele>
        <time>2019-06-20T16:18:08Z</time>
      </trkpt>
      <trkpt lat="43.490306" lon="-8.294717">
        <ele>68.647</ele>
        <time>2019-06-20T16:18:09Z</time>
      </trkpt>
      <trkpt lat="43.490374" lon="-8.294609">
        <ele>66.464</ele>
        <time>2019-06-20T16:18:10Z</time>
      </trkpt>
      <trkpt lat="43.490414" lon="-8.294498">
        <ele>65.988</ele>
        <time>2019-06-20T16:18:11Z</time>
      </trkpt>
      <trkpt lat="43.490430" lon="-8.294424">
        <ele>65.824</ele>
        <time>2019-06-20T16:18:13Z</time>
      </trkpt>
      <trkpt lat="43.490434" lon="-8.294299">
        <ele>66.026</ele>
        <time>2019-06-20T16:18:15Z</time>
      </trkpt>
      <trkpt lat="43.490422" lon="-8.294183">
        <ele>67.108</ele>
        <time>2019-06-20T16:18:16Z</time>
      </trkpt>
      <trkpt lat="43.490406" lon="-8.294040">
        <ele>68.421</ele>
        <time>2019-06-20T16:18:17Z</time>
      </trkpt>
      <trkpt lat="43.490396" lon="-8.293875">
        <ele>69.355</ele>
        <time>2019-06-20T16:18:18Z</time>
      </trkpt>
      <trkpt lat="43.490386" lon="-8.293698">
        <ele>71.126</ele>
        <time>2019-06-20T16:18:19Z</time>
      </trkpt>
      <trkpt lat="43.490378" lon="-8.293502">
        <ele>73.582</ele>
        <time>2019-06-20T16:18:20Z</time>
      </trkpt>
      <trkpt lat="43.490380" lon="-8.293285">
        <ele>75.549</ele>
        <time>2019-06-20T16:18:21Z</time>
      </trkpt>
      <trkpt lat="43.490393" lon="-8.293074">
        <ele>75.340</ele>
        <time>2019-06-20T16:18:22Z</time>
      </trkpt>
      <trkpt lat="43.490422" lon="-8.292858">
        <ele>75.162</ele>
        <time>2019-06-20T16:18:23Z</time>
      </trkpt>
      <trkpt lat="43.490454" lon="-8.292657">
        <ele>74.869</ele>
        <time>2019-06-20T16:18:24Z</time>
      </trkpt>
      <trkpt lat="43.490492" lon="-8.292465">
        <ele>74.471</ele>
        <time>2019-06-20T16:18:25Z</time>
      </trkpt>
      <trkpt lat="43.490525" lon="-8.292306">
        <ele>73.741</ele>
        <time>2019-06-20T16:18:26Z</time>
      </trkpt>
      <trkpt lat="43.490551" lon="-8.292149">
        <ele>73.415</ele>
        <time>2019-06-20T16:18:27Z</time>
      </trkpt>
      <trkpt lat="43.490581" lon="-8.291996">
        <ele>73.208</ele>
        <time>2019-06-20T16:18:28Z</time>
      </trkpt>
      <trkpt lat="43.490616" lon="-8.291856">
        <ele>73.130</ele>
        <time>2019-06-20T16:18:29Z</time>
      </trkpt>
      <trkpt lat="43.490657" lon="-8.291718">
        <ele>73.154</ele>
        <time>2019-06-20T16:18:30Z</time>
      </trkpt>
      <trkpt lat="43.490703" lon="-8.291563">
        <ele>73.255</ele>
        <time>2019-06-20T16:18:31Z</time>
      </trkpt>
      <trkpt lat="43.490756" lon="-8.291407">
        <ele>73.521</ele>
        <time>2019-06-20T16:18:32Z</time>
      </trkpt>
      <trkpt lat="43.490805" lon="-8.291237">
        <ele>74.318</ele>
        <time>2019-06-20T16:18:33Z</time>
      </trkpt>
      <trkpt lat="43.490856" lon="-8.291069">
        <ele>75.489</ele>
        <time>2019-06-20T16:18:34Z</time>
      </trkpt>
      <trkpt lat="43.490901" lon="-8.290909">
        <ele>77.591</ele>
        <time>2019-06-20T16:18:35Z</time>
      </trkpt>
      <trkpt lat="43.490946" lon="-8.290759">
        <ele>78.948</ele>
        <time>2019-06-20T16:18:36Z</time>
      </trkpt>
      <trkpt lat="43.490986" lon="-8.290594">
        <ele>80.269</ele>
        <time>2019-06-20T16:18:37Z</time>
      </trkpt>
      <trkpt lat="43.491030" lon="-8.290418">
        <ele>81.004</ele>
        <time>2019-06-20T16:18:38Z</time>
      </trkpt>
      <trkpt lat="43.491059" lon="-8.290268">
        <ele>81.624</ele>
        <time>2019-06-20T16:18:39Z</time>
      </trkpt>
      <trkpt lat="43.491081" lon="-8.290066">
        <ele>83.908</ele>
        <time>2019-06-20T16:18:40Z</time>
      </trkpt>
      <trkpt lat="43.491091" lon="-8.289854">
        <ele>87.269</ele>
        <time>2019-06-20T16:18:41Z</time>
      </trkpt>
      <trkpt lat="43.491116" lon="-8.289647">
        <ele>91.143</ele>
        <time>2019-06-20T16:18:42Z</time>
      </trkpt>
      <trkpt lat="43.491157" lon="-8.289441">
        <ele>96.164</ele>
        <time>2019-06-20T16:18:43Z</time>
      </trkpt>
      <trkpt lat="43.491225" lon="-8.289243">
        <ele>99.970</ele>
        <time>2019-06-20T16:18:44Z</time>
      </trkpt>
      <trkpt lat="43.491306" lon="-8.289054">
        <ele>103.257</ele>
        <time>2019-06-20T16:18:45Z</time>
      </trkpt>
      <trkpt lat="43.491408" lon="-8.288873">
        <ele>105.738</ele>
        <time>2019-06-20T16:18:46Z</time>
      </trkpt>
      <trkpt lat="43.491526" lon="-8.288735">
        <ele>104.570</ele>
        <time>2019-06-20T16:18:47Z</time>
      </trkpt>
      <trkpt lat="43.491656" lon="-8.288609">
        <ele>103.367</ele>
        <time>2019-06-20T16:18:48Z</time>
      </trkpt>
      <trkpt lat="43.491776" lon="-8.288481">
        <ele>102.039</ele>
        <time>2019-06-20T16:18:49Z</time>
      </trkpt>
      <trkpt lat="43.491878" lon="-8.288368">
        <ele>101.101</ele>
        <time>2019-06-20T16:18:50Z</time>
      </trkpt>
      <trkpt lat="43.491971" lon="-8.288261">
        <ele>100.621</ele>
        <time>2019-06-20T16:18:51Z</time>
      </trkpt>
      <trkpt lat="43.492055" lon="-8.288162">
        <ele>100.508</ele>
        <time>2019-06-20T16:18:52Z</time>
      </trkpt>
      <trkpt lat="43.492114" lon="-8.288069">
        <ele>100.866</ele>
        <time>2019-06-20T16:18:53Z</time>
      </trkpt>
      <trkpt lat="43.492167" lon="-8.287965">
        <ele>102.010</ele>
        <time>2019-06-20T16:18:54Z</time>
      </trkpt>
      <trkpt lat="43.492115" lon="-8.287870">
        <ele>105.211</ele>
        <time>2019-06-20T16:18:55Z</time>
      </trkpt>
      <trkpt lat="43.492106" lon="-8.287771">
        <ele>107.717</ele>
        <time>2019-06-20T16:18:56Z</time>
      </trkpt>
      <trkpt lat="43.492036" lon="-8.287683">
        <ele>111.544</ele>
        <time>2019-06-20T16:18:57Z</time>
      </trkpt>
      <trkpt lat="43.491989" lon="-8.287601">
        <ele>114.695</ele>
        <time>2019-06-20T16:18:58Z</time>
      </trkpt>
      <trkpt lat="43.491930" lon="-8.287542">
        <ele>117.457</ele>
        <time>2019-06-20T16:18:59Z</time>
      </trkpt>
      <trkpt lat="43.491873" lon="-8.287455">
        <ele>121.944</ele>
        <time>2019-06-20T16:19:00Z</time>
      </trkpt>
      <trkpt lat="43.491828" lon="-8.287380">
        <ele>125.552</ele>
        <time>2019-06-20T16:19:01Z</time>
      </trkpt>
      <trkpt lat="43.491795" lon="-8.287308">
        <ele>128.553</ele>
        <time>2019-06-20T16:19:02Z</time>
      </trkpt>
      <trkpt lat="43.491325" lon="-8.287517">
        <ele>134.908</ele>
        <time>2019-06-20T16:19:06Z</time>
      </trkpt>
      <trkpt lat="43.491113" lon="-8.287750">
        <ele>133.708</ele>
        <time>2019-06-20T16:19:07Z</time>
      </trkpt>
      <trkpt lat="43.491005" lon="-8.288168">
        <ele>126.128</ele>
        <time>2019-06-20T16:19:08Z</time>
      </trkpt>
      <trkpt lat="43.490925" lon="-8.288611">
        <ele>118.422</ele>
        <time>2019-06-20T16:19:09Z</time>
      </trkpt>
      <trkpt lat="43.490829" lon="-8.288866">
        <ele>114.633</ele>
        <time>2019-06-20T16:19:10Z</time>
      </trkpt>
      <trkpt lat="43.490724" lon="-8.289074">
        <ele>112.269</ele>
        <time>2019-06-20T16:19:11Z</time>
      </trkpt>
      <trkpt lat="43.490608" lon="-8.289300">
        <ele>110.146</ele>
        <time>2019-06-20T16:19:12Z</time>
      </trkpt>
      <trkpt lat="43.490483" lon="-8.289519">
        <ele>107.447</ele>
        <time>2019-06-20T16:19:13Z</time>
      </trkpt>
      <trkpt lat="43.490348" lon="-8.289721">
        <ele>105.099</ele>
        <time>2019-06-20T16:19:14Z</time>
      </trkpt>
      <trkpt lat="43.490222" lon="-8.289931">
        <ele>103.566</ele>
        <time>2019-06-20T16:19:15Z</time>
      </trkpt>
      <trkpt lat="43.490104" lon="-8.290144">
        <ele>102.972</ele>
        <time>2019-06-20T16:19:16Z</time>
      </trkpt>
      <trkpt lat="43.489983" lon="-8.290391">
        <ele>102.213</ele>
        <time>2019-06-20T16:19:17Z</time>
      </trkpt>
      <trkpt lat="43.489880" lon="-8.290634">
        <ele>101.714</ele>
        <time>2019-06-20T16:19:18Z</time>
      </trkpt>
      <trkpt lat="43.489780" lon="-8.290872">
        <ele>102.208</ele>
        <time>2019-06-20T16:19:19Z</time>
      </trkpt>
      <trkpt lat="43.489691" lon="-8.291117">
        <ele>105.850</ele>
        <time>2019-06-20T16:19:20Z</time>
      </trkpt>
      <trkpt lat="43.489612" lon="-8.291365">
        <ele>110.244</ele>
        <time>2019-06-20T16:19:21Z</time>
      </trkpt>
      <trkpt lat="43.489548" lon="-8.291627">
        <ele>114.455</ele>
        <time>2019-06-20T16:19:22Z</time>
      </trkpt>
      <trkpt lat="43.489491" lon="-8.291890">
        <ele>116.721</ele>
        <time>2019-06-20T16:19:23Z</time>
      </trkpt>
      <trkpt lat="43.489450" lon="-8.292155">
        <ele>115.748</ele>
        <time>2019-06-20T16:19:24Z</time>
      </trkpt>
      <trkpt lat="43.489419" lon="-8.292421">
        <ele>118.019</ele>
        <time>2019-06-20T16:19:25Z</time>
      </trkpt>
      <trkpt lat="43.489399" lon="-8.292669">
        <ele>120.371</ele>
        <time>2019-06-20T16:19:26Z</time>
      </trkpt>
      <trkpt lat="43.489386" lon="-8.292935">
        <ele>121.628</ele>
        <time>2019-06-20T16:19:27Z</time>
      </trkpt>
      <trkpt lat="43.489382" lon="-8.293174">
        <ele>121.063</ele>
        <time>2019-06-20T16:19:28Z</time>
      </trkpt>
      <trkpt lat="43.489384" lon="-8.293394">
        <ele>119.344</ele>
        <time>2019-06-20T16:19:29Z</time>
      </trkpt>
      <trkpt lat="43.489383" lon="-8.293599">
        <ele>118.518</ele>
        <time>2019-06-20T16:19:30Z</time>
      </trkpt>
      <trkpt lat="43.489379" lon="-8.293779">
        <ele>118.608</ele>
        <time>2019-06-20T16:19:31Z</time>
      </trkpt>
      <trkpt lat="43.489366" lon="-8.293951">
        <ele>119.229</ele>
        <time>2019-06-20T16:19:32Z</time>
      </trkpt>
      <trkpt lat="43.489342" lon="-8.294116">
        <ele>120.483</ele>
        <time>2019-06-20T16:19:33Z</time>
      </trkpt>
      <trkpt lat="43.489299" lon="-8.294254">
        <ele>122.654</ele>
        <time>2019-06-20T16:19:34Z</time>
      </trkpt>
      <trkpt lat="43.489235" lon="-8.294375">
        <ele>125.470</ele>
        <time>2019-06-20T16:19:35Z</time>
      </trkpt>
      <trkpt lat="43.489155" lon="-8.294461">
        <ele>128.657</ele>
        <time>2019-06-20T16:19:36Z</time>
      </trkpt>
      <trkpt lat="43.489071" lon="-8.294508">
        <ele>132.298</ele>
        <time>2019-06-20T16:19:37Z</time>
      </trkpt>
      <trkpt lat="43.488986" lon="-8.294527">
        <ele>135.770</ele>
        <time>2019-06-20T16:19:38Z</time>
      </trkpt>
      <trkpt lat="43.488909" lon="-8.294521">
        <ele>138.957</ele>
        <time>2019-06-20T16:19:39Z</time>
      </trkpt>
      <trkpt lat="43.488832" lon="-8.294546">
        <ele>141.782</ele>
        <time>2019-06-20T16:19:40Z</time>
      </trkpt>
      <trkpt lat="43.488766" lon="-8.294574">
        <ele>144.043</ele>
        <time>2019-06-20T16:19:41Z</time>
      </trkpt>
      <trkpt lat="43.488696" lon="-8.294643">
        <ele>146.217</ele>
        <time>2019-06-20T16:19:42Z</time>
      </trkpt>
      <trkpt lat="43.488619" lon="-8.294694">
        <ele>148.808</ele>
        <time>2019-06-20T16:19:43Z</time>
      </trkpt>
      <trkpt lat="43.488545" lon="-8.294730">
        <ele>151.391</ele>
        <time>2019-06-20T16:19:44Z</time>
      </trkpt>
      <trkpt lat="43.488472" lon="-8.294714">
        <ele>154.015</ele>
        <time>2019-06-20T16:19:45Z</time>
      </trkpt>
      <trkpt lat="43.488395" lon="-8.294702">
        <ele>156.996</ele>
        <time>2019-06-20T16:19:46Z</time>
      </trkpt>
      <trkpt lat="43.488332" lon="-8.294619">
        <ele>159.482</ele>
        <time>2019-06-20T16:19:47Z</time>
      </trkpt>
      <trkpt lat="43.488289" lon="-8.294525">
        <ele>161.479</ele>
        <time>2019-06-20T16:19:48Z</time>
      </trkpt>
      <trkpt lat="43.488246" lon="-8.294434">
        <ele>163.230</ele>
        <time>2019-06-20T16:19:49Z</time>
      </trkpt>
      <trkpt lat="43.488262" lon="-8.294318">
        <ele>163.092</ele>
        <time>2019-06-20T16:19:50Z</time>
      </trkpt>
      <trkpt lat="43.488274" lon="-8.294207">
        <ele>163.019</ele>
        <time>2019-06-20T16:19:51Z</time>
      </trkpt>
      <trkpt lat="43.488323" lon="-8.294095">
        <ele>161.153</ele>
        <time>2019-06-20T16:19:52Z</time>
      </trkpt>
      <trkpt lat="43.488381" lon="-8.293975">
        <ele>158.704</ele>
        <time>2019-06-20T16:19:53Z</time>
      </trkpt>
      <trkpt lat="43.488446" lon="-8.293851">
        <ele>156.314</ele>
        <time>2019-06-20T16:19:54Z</time>
      </trkpt>
      <trkpt lat="43.488505" lon="-8.293698">
        <ele>154.008</ele>
        <time>2019-06-20T16:19:55Z</time>
      </trkpt>
      <trkpt lat="43.488550" lon="-8.293521">
        <ele>152.178</ele>
        <time>2019-06-20T16:19:56Z</time>
      </trkpt>
      <trkpt lat="43.488590" lon="-8.293319">
        <ele>150.712</ele>
        <time>2019-06-20T16:19:57Z</time>
      </trkpt>
      <trkpt lat="43.488621" lon="-8.293090">
        <ele>150.623</ele>
        <time>2019-06-20T16:19:58Z</time>
      </trkpt>
      <trkpt lat="43.488659" lon="-8.292860">
        <ele>151.459</ele>
        <time>2019-06-20T16:19:59Z</time>
      </trkpt>
      <trkpt lat="43.488699" lon="-8.292625">
        <ele>151.876</ele>
        <time>2019-06-20T16:20:00Z</time>
      </trkpt>
      <trkpt lat="43.488741" lon="-8.292380">
        <ele>151.357</ele>
        <time>2019-06-20T16:20:01Z</time>
      </trkpt>
      <trkpt lat="43.488786" lon="-8.292121">
        <ele>150.189</ele>
        <time>2019-06-20T16:20:02Z</time>
      </trkpt>
      <trkpt lat="43.488839" lon="-8.291858">
        <ele>148.086</ele>
        <time>2019-06-20T16:20:03Z</time>
      </trkpt>
      <trkpt lat="43.488897" lon="-8.291592">
        <ele>146.234</ele>
        <time>2019-06-20T16:20:04Z</time>
      </trkpt>
      <trkpt lat="43.488960" lon="-8.291311">
        <ele>145.355</ele>
        <time>2019-06-20T16:20:05Z</time>
      </trkpt>
      <trkpt lat="43.489030" lon="-8.291029">
        <ele>144.610</ele>
        <time>2019-06-20T16:20:06Z</time>
      </trkpt>
      <trkpt lat="43.489111" lon="-8.290757">
        <ele>143.508</ele>
        <time>2019-06-20T16:20:07Z</time>
      </trkpt>
      <trkpt lat="43.489196" lon="-8.290486">
        <ele>139.616</ele>
        <time>2019-06-20T16:20:08Z</time>
      </trkpt>
      <trkpt lat="43.489301" lon="-8.290221">
        <ele>131.360</ele>
        <time>2019-06-20T16:20:09Z</time>
      </trkpt>
      <trkpt lat="43.489420" lon="-8.289967">
        <ele>125.041</ele>
        <time>2019-06-20T16:20:10Z</time>
      </trkpt>
      <trkpt lat="43.489548" lon="-8.289711">
        <ele>125.697</ele>
        <time>2019-06-20T16:20:11Z</time>
      </trkpt>
      <trkpt lat="43.489695" lon="-8.289457">
        <ele>128.354</ele>
        <time>2019-06-20T16:20:12Z</time>
      </trkpt>
      <trkpt lat="43.489839" lon="-8.289198">
        <ele>130.575</ele>
        <time>2019-06-20T16:20:13Z</time>
      </trkpt>
      <trkpt lat="43.490000" lon="-8.288934">
        <ele>131.077</ele>
        <time>2019-06-20T16:20:14Z</time>
      </trkpt>
      <trkpt lat="43.490158" lon="-8.288672">
        <ele>133.674</ele>
        <time>2019-06-20T16:20:15Z</time>
      </trkpt>
      <trkpt lat="43.490329" lon="-8.288417">
        <ele>136.313</ele>
        <time>2019-06-20T16:20:16Z</time>
      </trkpt>
      <trkpt lat="43.490505" lon="-8.288166">
        <ele>139.343</ele>
        <time>2019-06-20T16:20:17Z</time>
      </trkpt>
      <trkpt lat="43.490688" lon="-8.287915">
        <ele>139.707</ele>
        <time>2019-06-20T16:20:18Z</time>
      </trkpt>
      <trkpt lat="43.490880" lon="-8.287678">
        <ele>139.708</ele>
        <time>2019-06-20T16:20:19Z</time>
      </trkpt>
      <trkpt lat="43.491080" lon="-8.287444">
        <ele>141.884</ele>
        <time>2019-06-20T16:20:20Z</time>
      </trkpt>
      <trkpt lat="43.491283" lon="-8.287220">
        <ele>142.378</ele>
        <time>2019-06-20T16:20:21Z</time>
      </trkpt>
      <trkpt lat="43.491490" lon="-8.287000">
        <ele>141.539</ele>
        <time>2019-06-20T16:20:22Z</time>
      </trkpt>
      <trkpt lat="43.491691" lon="-8.286771">
        <ele>141.325</ele>
        <time>2019-06-20T16:20:23Z</time>
      </trkpt>
      <trkpt lat="43.491900" lon="-8.286563">
        <ele>141.532</ele>
        <time>2019-06-20T16:20:24Z</time>
      </trkpt>
      <trkpt lat="43.492100" lon="-8.286353">
        <ele>144.383</ele>
        <time>2019-06-20T16:20:25Z</time>
      </trkpt>
      <trkpt lat="43.492299" lon="-8.286141">
        <ele>148.395</ele>
        <time>2019-06-20T16:20:26Z</time>
      </trkpt>
      <trkpt lat="43.492498" lon="-8.285921">
        <ele>151.822</ele>
        <time>2019-06-20T16:20:27Z</time>
      </trkpt>
      <trkpt lat="43.492704" lon="-8.285706">
        <ele>152.268</ele>
        <time>2019-06-20T16:20:28Z</time>
      </trkpt>
      <trkpt lat="43.492908" lon="-8.285494">
        <ele>152.642</ele>
        <time>2019-06-20T16:20:29Z</time>
      </trkpt>
      <trkpt lat="43.493114" lon="-8.285281">
        <ele>151.326</ele>
        <time>2019-06-20T16:20:30Z</time>
      </trkpt>
      <trkpt lat="43.493321" lon="-8.285056">
        <ele>149.408</ele>
        <time>2019-06-20T16:20:31Z</time>
      </trkpt>
      <trkpt lat="43.493527" lon="-8.284845">
        <ele>148.329</ele>
        <time>2019-06-20T16:20:32Z</time>
      </trkpt>
      <trkpt lat="43.493731" lon="-8.284631">
        <ele>146.763</ele>
        <time>2019-06-20T16:20:33Z</time>
      </trkpt>
      <trkpt lat="43.493930" lon="-8.284431">
        <ele>144.744</ele>
        <time>2019-06-20T16:20:34Z</time>
      </trkpt>
      <trkpt lat="43.494129" lon="-8.284216">
        <ele>140.630</ele>
        <time>2019-06-20T16:20:35Z</time>
      </trkpt>
      <trkpt lat="43.494328" lon="-8.284005">
        <ele>131.657</ele>
        <time>2019-06-20T16:20:36Z</time>
      </trkpt>
      <trkpt lat="43.494520" lon="-8.283803">
        <ele>124.268</ele>
        <time>2019-06-20T16:20:37Z</time>
      </trkpt>
      <trkpt lat="43.494720" lon="-8.283597">
        <ele>121.230</ele>
        <time>2019-06-20T16:20:38Z</time>
      </trkpt>
      <trkpt lat="43.494925" lon="-8.283412">
        <ele>115.577</ele>
        <time>2019-06-20T16:20:39Z</time>
      </trkpt>
      <trkpt lat="43.495117" lon="-8.283210">
        <ele>109.447</ele>
        <time>2019-06-20T16:20:40Z</time>
      </trkpt>
      <trkpt lat="43.495313" lon="-8.283010">
        <ele>101.929</ele>
        <time>2019-06-20T16:20:41Z</time>
      </trkpt>
      <trkpt lat="43.495514" lon="-8.282824">
        <ele>96.721</ele>
        <time>2019-06-20T16:20:42Z</time>
      </trkpt>
      <trkpt lat="43.495724" lon="-8.282642">
        <ele>95.608</ele>
        <time>2019-06-20T16:20:43Z</time>
      </trkpt>
      <trkpt lat="43.495935" lon="-8.282473">
        <ele>92.767</ele>
        <time>2019-06-20T16:20:44Z</time>
      </trkpt>
      <trkpt lat="43.496145" lon="-8.282324">
        <ele>86.831</ele>
        <time>2019-06-20T16:20:45Z</time>
      </trkpt>
      <trkpt lat="43.496360" lon="-8.282186">
        <ele>81.452</ele>
        <time>2019-06-20T16:20:46Z</time>
      </trkpt>
      <trkpt lat="43.496579" lon="-8.282060">
        <ele>81.388</ele>
        <time>2019-06-20T16:20:47Z</time>
      </trkpt>
      <trkpt lat="43.496795" lon="-8.281951">
        <ele>85.225</ele>
        <time>2019-06-20T16:20:48Z</time>
      </trkpt>
      <trkpt lat="43.497013" lon="-8.281845">
        <ele>92.116</ele>
        <time>2019-06-20T16:20:49Z</time>
      </trkpt>
      <trkpt lat="43.497236" lon="-8.281776">
        <ele>100.128</ele>
        <time>2019-06-20T16:20:50Z</time>
      </trkpt>
      <trkpt lat="43.497443" lon="-8.281712">
        <ele>107.075</ele>
        <time>2019-06-20T16:20:51Z</time>
      </trkpt>
      <trkpt lat="43.497661" lon="-8.281650">
        <ele>114.393</ele>
        <time>2019-06-20T16:20:52Z</time>
      </trkpt>
      <trkpt lat="43.497881" lon="-8.281595">
        <ele>121.065</ele>
        <time>2019-06-20T16:20:53Z</time>
      </trkpt>
      <trkpt lat="43.498104" lon="-8.281546">
        <ele>127.221</ele>
        <time>2019-06-20T16:20:54Z</time>
      </trkpt>
      <trkpt lat="43.498324" lon="-8.281504">
        <ele>133.308</ele>
        <time>2019-06-20T16:20:55Z</time>
      </trkpt>
      <trkpt lat="43.498545" lon="-8.281473">
        <ele>142.132</ele>
        <time>2019-06-20T16:20:56Z</time>
      </trkpt>
      <trkpt lat="43.498760" lon="-8.281453">
        <ele>152.436</ele>
        <time>2019-06-20T16:20:57Z</time>
      </trkpt>
      <trkpt lat="43.498980" lon="-8.281461">
        <ele>163.827</ele>
        <time>2019-06-20T16:20:58Z</time>
      </trkpt>
      <trkpt lat="43.499197" lon="-8.281466">
        <ele>174.483</ele>
        <time>2019-06-20T16:20:59Z</time>
      </trkpt>
      <trkpt lat="43.499398" lon="-8.281484">
        <ele>179.450</ele>
        <time>2019-06-20T16:21:00Z</time>
      </trkpt>
      <trkpt lat="43.499599" lon="-8.281505">
        <ele>182.511</ele>
        <time>2019-06-20T16:21:01Z</time>
      </trkpt>
      <trkpt lat="43.499802" lon="-8.281526">
        <ele>185.523</ele>
        <time>2019-06-20T16:21:02Z</time>
      </trkpt>
      <trkpt lat="43.500010" lon="-8.281540">
        <ele>189.070</ele>
        <time>2019-06-20T16:21:03Z</time>
      </trkpt>
      <trkpt lat="43.500222" lon="-8.281545">
        <ele>190.574</ele>
        <time>2019-06-20T16:21:04Z</time>
      </trkpt>
      <trkpt lat="43.500432" lon="-8.281551">
        <ele>191.456</ele>
        <time>2019-06-20T16:21:05Z</time>
      </trkpt>
      <trkpt lat="43.500648" lon="-8.281544">
        <ele>193.521</ele>
        <time>2019-06-20T16:21:06Z</time>
      </trkpt>
      <trkpt lat="43.500859" lon="-8.281527">
        <ele>197.608</ele>
        <time>2019-06-20T16:21:07Z</time>
      </trkpt>
      <trkpt lat="43.501074" lon="-8.281497">
        <ele>202.850</ele>
        <time>2019-06-20T16:21:08Z</time>
      </trkpt>
      <trkpt lat="43.501282" lon="-8.281458">
        <ele>205.854</ele>
        <time>2019-06-20T16:21:09Z</time>
      </trkpt>
      <trkpt lat="43.501513" lon="-8.281393">
        <ele>208.875</ele>
        <time>2019-06-20T16:21:10Z</time>
      </trkpt>
      <trkpt lat="43.501736" lon="-8.281323">
        <ele>211.521</ele>
        <time>2019-06-20T16:21:11Z</time>
      </trkpt>
      <trkpt lat="43.501940" lon="-8.281259">
        <ele>213.088</ele>
        <time>2019-06-20T16:21:12Z</time>
      </trkpt>
      <trkpt lat="43.502144" lon="-8.281171">
        <ele>215.069</ele>
        <time>2019-06-20T16:21:13Z</time>
      </trkpt>
      <trkpt lat="43.502351" lon="-8.281073">
        <ele>215.921</ele>
        <time>2019-06-20T16:21:14Z</time>
      </trkpt>
      <trkpt lat="43.502553" lon="-8.280963">
        <ele>215.548</ele>
        <time>2019-06-20T16:21:15Z</time>
      </trkpt>
      <trkpt lat="43.502763" lon="-8.280820">
        <ele>213.136</ele>
        <time>2019-06-20T16:21:16Z</time>
      </trkpt>
      <trkpt lat="43.502959" lon="-8.280664">
        <ele>212.017</ele>
        <time>2019-06-20T16:21:17Z</time>
      </trkpt>
      <trkpt lat="43.503152" lon="-8.280503">
        <ele>210.718</ele>
        <time>2019-06-20T16:21:18Z</time>
      </trkpt>
      <trkpt lat="43.503344" lon="-8.280324">
        <ele>208.508</ele>
        <time>2019-06-20T16:21:19Z</time>
      </trkpt>
      <trkpt lat="43.503524" lon="-8.280137">
        <ele>203.176</ele>
        <time>2019-06-20T16:21:20Z</time>
      </trkpt>
      <trkpt lat="43.503699" lon="-8.279940">
        <ele>198.490</ele>
        <time>2019-06-20T16:21:21Z</time>
      </trkpt>
      <trkpt lat="43.503864" lon="-8.279725">
        <ele>195.061</ele>
        <time>2019-06-20T16:21:22Z</time>
      </trkpt>
      <trkpt lat="43.504038" lon="-8.279506">
        <ele>192.977</ele>
        <time>2019-06-20T16:21:23Z</time>
      </trkpt>
      <trkpt lat="43.504203" lon="-8.279283">
        <ele>192.144</ele>
        <time>2019-06-20T16:21:24Z</time>
      </trkpt>
      <trkpt lat="43.504377" lon="-8.279059">
        <ele>191.975</ele>
        <time>2019-06-20T16:21:25Z</time>
      </trkpt>
      <trkpt lat="43.504550" lon="-8.278847">
        <ele>192.527</ele>
        <time>2019-06-20T16:21:26Z</time>
      </trkpt>
      <trkpt lat="43.504723" lon="-8.278646">
        <ele>193.534</ele>
        <time>2019-06-20T16:21:27Z</time>
      </trkpt>
      <trkpt lat="43.504898" lon="-8.278429">
        <ele>194.194</ele>
        <time>2019-06-20T16:21:28Z</time>
      </trkpt>
      <trkpt lat="43.505079" lon="-8.278198">
        <ele>195.257</ele>
        <time>2019-06-20T16:21:29Z</time>
      </trkpt>
      <trkpt lat="43.505258" lon="-8.277971">
        <ele>195.822</ele>
        <time>2019-06-20T16:21:30Z</time>
      </trkpt>
      <trkpt lat="43.505432" lon="-8.277738">
        <ele>197.308</ele>
        <time>2019-06-20T16:21:31Z</time>
      </trkpt>
      <trkpt lat="43.505611" lon="-8.277506">
        <ele>200.892</ele>
        <time>2019-06-20T16:21:32Z</time>
      </trkpt>
      <trkpt lat="43.505781" lon="-8.277285">
        <ele>202.696</ele>
        <time>2019-06-20T16:21:33Z</time>
      </trkpt>
      <trkpt lat="43.505955" lon="-8.277063">
        <ele>203.667</ele>
        <time>2019-06-20T16:21:34Z</time>
      </trkpt>
      <trkpt lat="43.506131" lon="-8.276842">
        <ele>205.443</ele>
        <time>2019-06-20T16:21:35Z</time>
      </trkpt>
      <trkpt lat="43.506307" lon="-8.276628">
        <ele>206.110</ele>
        <time>2019-06-20T16:21:36Z</time>
      </trkpt>
      <trkpt lat="43.506477" lon="-8.276408">
        <ele>207.121</ele>
        <time>2019-06-20T16:21:37Z</time>
      </trkpt>
      <trkpt lat="43.506648" lon="-8.276187">
        <ele>208.053</ele>
        <time>2019-06-20T16:21:38Z</time>
      </trkpt>
      <trkpt lat="43.506818" lon="-8.275967">
        <ele>208.110</ele>
        <time>2019-06-20T16:21:39Z</time>
      </trkpt>
      <trkpt lat="43.506998" lon="-8.275748">
        <ele>207.728</ele>
        <time>2019-06-20T16:21:40Z</time>
      </trkpt>
      <trkpt lat="43.507175" lon="-8.275519">
        <ele>206.189</ele>
        <time>2019-06-20T16:21:41Z</time>
      </trkpt>
      <trkpt lat="43.507351" lon="-8.275298">
        <ele>205.417</ele>
        <time>2019-06-20T16:21:42Z</time>
      </trkpt>
      <trkpt lat="43.507538" lon="-8.275081">
        <ele>204.108</ele>
        <time>2019-06-20T16:21:43Z</time>
      </trkpt>
      <trkpt lat="43.507723" lon="-8.274861">
        <ele>204.635</ele>
        <time>2019-06-20T16:21:44Z</time>
      </trkpt>
      <trkpt lat="43.507917" lon="-8.274655">
        <ele>206.479</ele>
        <time>2019-06-20T16:21:45Z</time>
      </trkpt>
      <trkpt lat="43.508116" lon="-8.274454">
        <ele>211.210</ele>
        <time>2019-06-20T16:21:46Z</time>
      </trkpt>
      <trkpt lat="43.508309" lon="-8.274242">
        <ele>215.466</ele>
        <time>2019-06-20T16:21:47Z</time>
      </trkpt>
      <trkpt lat="43.508515" lon="-8.274047">
        <ele>215.523</ele>
        <time>2019-06-20T16:21:48Z</time>
      </trkpt>
      <trkpt lat="43.508721" lon="-8.273860">
        <ele>215.314</ele>
        <time>2019-06-20T16:21:49Z</time>
      </trkpt>
      <trkpt lat="43.508927" lon="-8.273654">
        <ele>216.566</ele>
        <time>2019-06-20T16:21:50Z</time>
      </trkpt>
      <trkpt lat="43.509144" lon="-8.273461">
        <ele>215.043</ele>
        <time>2019-06-20T16:21:51Z</time>
      </trkpt>
      <trkpt lat="43.509366" lon="-8.273274">
        <ele>211.129</ele>
        <time>2019-06-20T16:21:52Z</time>
      </trkpt>
      <trkpt lat="43.509584" lon="-8.273094">
        <ele>207.900</ele>
        <time>2019-06-20T16:21:53Z</time>
      </trkpt>
      <trkpt lat="43.509811" lon="-8.272911">
        <ele>204.620</ele>
        <time>2019-06-20T16:21:54Z</time>
      </trkpt>
      <trkpt lat="43.510037" lon="-8.272726">
        <ele>202.908</ele>
        <time>2019-06-20T16:21:55Z</time>
      </trkpt>
      <trkpt lat="43.510269" lon="-8.272542">
        <ele>200.665</ele>
        <time>2019-06-20T16:21:56Z</time>
      </trkpt>
      <trkpt lat="43.510503" lon="-8.272359">
        <ele>197.239</ele>
        <time>2019-06-20T16:21:57Z</time>
      </trkpt>
      <trkpt lat="43.510742" lon="-8.272173">
        <ele>195.130</ele>
        <time>2019-06-20T16:21:58Z</time>
      </trkpt>
      <trkpt lat="43.510977" lon="-8.271990">
        <ele>190.936</ele>
        <time>2019-06-20T16:21:59Z</time>
      </trkpt>
      <trkpt lat="43.511223" lon="-8.271806">
        <ele>185.443</ele>
        <time>2019-06-20T16:22:00Z</time>
      </trkpt>
      <trkpt lat="43.511469" lon="-8.271620">
        <ele>183.944</ele>
        <time>2019-06-20T16:22:01Z</time>
      </trkpt>
      <trkpt lat="43.511707" lon="-8.271428">
        <ele>182.986</ele>
        <time>2019-06-20T16:22:02Z</time>
      </trkpt>
      <trkpt lat="43.511956" lon="-8.271247">
        <ele>179.383</ele>
        <time>2019-06-20T16:22:03Z</time>
      </trkpt>
      <trkpt lat="43.512199" lon="-8.271071">
        <ele>174.728</ele>
        <time>2019-06-20T16:22:04Z</time>
      </trkpt>
      <trkpt lat="43.512447" lon="-8.270888">
        <ele>170.689</ele>
        <time>2019-06-20T16:22:05Z</time>
      </trkpt>
      <trkpt lat="43.512685" lon="-8.270709">
        <ele>170.917</ele>
        <time>2019-06-20T16:22:06Z</time>
      </trkpt>
      <trkpt lat="43.512923" lon="-8.270532">
        <ele>173.608</ele>
        <time>2019-06-20T16:22:07Z</time>
      </trkpt>
      <trkpt lat="43.513160" lon="-8.270359">
        <ele>175.775</ele>
        <time>2019-06-20T16:22:08Z</time>
      </trkpt>
      <trkpt lat="43.513390" lon="-8.270187">
        <ele>175.089</ele>
        <time>2019-06-20T16:22:09Z</time>
      </trkpt>
      <trkpt lat="43.513618" lon="-8.270005">
        <ele>175.970</ele>
        <time>2019-06-20T16:22:10Z</time>
      </trkpt>
      <trkpt lat="43.513846" lon="-8.269818">
        <ele>179.686</ele>
        <time>2019-06-20T16:22:11Z</time>
      </trkpt>
      <trkpt lat="43.514075" lon="-8.269646">
        <ele>179.743</ele>
        <time>2019-06-20T16:22:12Z</time>
      </trkpt>
      <trkpt lat="43.514305" lon="-8.269469">
        <ele>179.794</ele>
        <time>2019-06-20T16:22:13Z</time>
      </trkpt>
      <trkpt lat="43.514535" lon="-8.269303">
        <ele>180.116</ele>
        <time>2019-06-20T16:22:14Z</time>
      </trkpt>
      <trkpt lat="43.514758" lon="-8.269136">
        <ele>180.063</ele>
        <time>2019-06-20T16:22:15Z</time>
      </trkpt>
      <trkpt lat="43.514989" lon="-8.268966">
        <ele>178.656</ele>
        <time>2019-06-20T16:22:16Z</time>
      </trkpt>
      <trkpt lat="43.515214" lon="-8.268798">
        <ele>179.159</ele>
        <time>2019-06-20T16:22:17Z</time>
      </trkpt>
      <trkpt lat="43.515442" lon="-8.268618">
        <ele>179.514</ele>
        <time>2019-06-20T16:22:18Z</time>
      </trkpt>
      <trkpt lat="43.515656" lon="-8.268431">
        <ele>179.908</ele>
        <time>2019-06-20T16:22:19Z</time>
      </trkpt>
      <trkpt lat="43.515867" lon="-8.268233">
        <ele>177.188</ele>
        <time>2019-06-20T16:22:20Z</time>
      </trkpt>
      <trkpt lat="43.516074" lon="-8.268036">
        <ele>173.942</ele>
        <time>2019-06-20T16:22:21Z</time>
      </trkpt>
      <trkpt lat="43.516283" lon="-8.267827">
        <ele>173.933</ele>
        <time>2019-06-20T16:22:22Z</time>
      </trkpt>
      <trkpt lat="43.516488" lon="-8.267611">
        <ele>174.719</ele>
        <time>2019-06-20T16:22:23Z</time>
      </trkpt>
      <trkpt lat="43.516689" lon="-8.267391">
        <ele>173.536</ele>
        <time>2019-06-20T16:22:24Z</time>
      </trkpt>
      <trkpt lat="43.516895" lon="-8.267159">
        <ele>171.897</ele>
        <time>2019-06-20T16:22:25Z</time>
      </trkpt>
      <trkpt lat="43.517085" lon="-8.266927">
        <ele>169.049</ele>
        <time>2019-06-20T16:22:26Z</time>
      </trkpt>
      <trkpt lat="43.517281" lon="-8.266679">
        <ele>167.116</ele>
        <time>2019-06-20T16:22:27Z</time>
      </trkpt>
      <trkpt lat="43.517488" lon="-8.266428">
        <ele>167.644</ele>
        <time>2019-06-20T16:22:28Z</time>
      </trkpt>
      <trkpt lat="43.517681" lon="-8.266170">
        <ele>169.005</ele>
        <time>2019-06-20T16:22:29Z</time>
      </trkpt>
      <trkpt lat="43.517852" lon="-8.265902">
        <ele>169.515</ele>
        <time>2019-06-20T16:22:30Z</time>
      </trkpt>
      <trkpt lat="43.518022" lon="-8.265616">
        <ele>169.208</ele>
        <time>2019-06-20T16:22:31Z</time>
      </trkpt>
      <trkpt lat="43.518182" lon="-8.265340">
        <ele>169.447</ele>
        <time>2019-06-20T16:22:32Z</time>
      </trkpt>
      <trkpt lat="43.518341" lon="-8.265054">
        <ele>171.111</ele>
        <time>2019-06-20T16:22:33Z</time>
      </trkpt>
      <trkpt lat="43.518497" lon="-8.264756">
        <ele>172.842</ele>
        <time>2019-06-20T16:22:34Z</time>
      </trkpt>
      <trkpt lat="43.518644" lon="-8.264460">
        <ele>172.818</ele>
        <time>2019-06-20T16:22:35Z</time>
      </trkpt>
      <trkpt lat="43.518788" lon="-8.264152">
        <ele>173.085</ele>
        <time>2019-06-20T16:22:36Z</time>
      </trkpt>
      <trkpt lat="43.518933" lon="-8.263850">
        <ele>172.176</ele>
        <time>2019-06-20T16:22:37Z</time>
      </trkpt>
      <trkpt lat="43.519076" lon="-8.263528">
        <ele>171.768</ele>
        <time>2019-06-20T16:22:38Z</time>
      </trkpt>
      <trkpt lat="43.519216" lon="-8.263214">
        <ele>170.265</ele>
        <time>2019-06-20T16:22:39Z</time>
      </trkpt>
      <trkpt lat="43.519355" lon="-8.262896">
        <ele>170.073</ele>
        <time>2019-06-20T16:22:40Z</time>
      </trkpt>
      <trkpt lat="43.519502" lon="-8.262589">
        <ele>170.485</ele>
        <time>2019-06-20T16:22:41Z</time>
      </trkpt>
      <trkpt lat="43.519652" lon="-8.262289">
        <ele>170.213</ele>
        <time>2019-06-20T16:22:42Z</time>
      </trkpt>
      <trkpt lat="43.519813" lon="-8.262015">
        <ele>169.908</ele>
        <time>2019-06-20T16:22:43Z</time>
      </trkpt>
      <trkpt lat="43.519980" lon="-8.261741">
        <ele>169.530</ele>
        <time>2019-06-20T16:22:44Z</time>
      </trkpt>
      <trkpt lat="43.520160" lon="-8.261482">
        <ele>171.844</ele>
        <time>2019-06-20T16:22:45Z</time>
      </trkpt>
      <trkpt lat="43.520342" lon="-8.261237">
        <ele>173.015</ele>
        <time>2019-06-20T16:22:46Z</time>
      </trkpt>
      <trkpt lat="43.520538" lon="-8.260999">
        <ele>177.281</ele>
        <time>2019-06-20T16:22:47Z</time>
      </trkpt>
      <trkpt lat="43.520744" lon="-8.260778">
        <ele>183.868</ele>
        <time>2019-06-20T16:22:48Z</time>
      </trkpt>
      <trkpt lat="43.520951" lon="-8.260570">
        <ele>189.369</ele>
        <time>2019-06-20T16:22:49Z</time>
      </trkpt>
      <trkpt lat="43.521161" lon="-8.260369">
        <ele>189.531</ele>
        <time>2019-06-20T16:22:50Z</time>
      </trkpt>
      <trkpt lat="43.521378" lon="-8.260174">
        <ele>186.028</ele>
        <time>2019-06-20T16:22:51Z</time>
      </trkpt>
      <trkpt lat="43.521597" lon="-8.259993">
        <ele>184.941</ele>
        <time>2019-06-20T16:22:52Z</time>
      </trkpt>
      <trkpt lat="43.521816" lon="-8.259819">
        <ele>180.881</ele>
        <time>2019-06-20T16:22:53Z</time>
      </trkpt>
      <trkpt lat="43.522039" lon="-8.259654">
        <ele>174.609</ele>
        <time>2019-06-20T16:22:54Z</time>
      </trkpt>
      <trkpt lat="43.522266" lon="-8.259493">
        <ele>170.608</ele>
        <time>2019-06-20T16:22:55Z</time>
      </trkpt>
      <trkpt lat="43.522490" lon="-8.259326">
        <ele>169.237</ele>
        <time>2019-06-20T16:22:56Z</time>
      </trkpt>
      <trkpt lat="43.522714" lon="-8.259154">
        <ele>168.651</ele>
        <time>2019-06-20T16:22:57Z</time>
      </trkpt>
      <trkpt lat="43.522933" lon="-8.258977">
        <ele>168.452</ele>
        <time>2019-06-20T16:22:58Z</time>
      </trkpt>
      <trkpt lat="43.523144" lon="-8.258791">
        <ele>169.718</ele>
        <time>2019-06-20T16:22:59Z</time>
      </trkpt>
      <trkpt lat="43.523350" lon="-8.258590">
        <ele>173.775</ele>
        <time>2019-06-20T16:23:00Z</time>
      </trkpt>
      <trkpt lat="43.523552" lon="-8.258383">
        <ele>179.266</ele>
        <time>2019-06-20T16:23:01Z</time>
      </trkpt>
      <trkpt lat="43.523742" lon="-8.258169">
        <ele>182.688</ele>
        <time>2019-06-20T16:23:02Z</time>
      </trkpt>
      <trkpt lat="43.523925" lon="-8.257949">
        <ele>184.975</ele>
        <time>2019-06-20T16:23:03Z</time>
      </trkpt>
      <trkpt lat="43.524111" lon="-8.257719">
        <ele>187.631</ele>
        <time>2019-06-20T16:23:04Z</time>
      </trkpt>
      <trkpt lat="43.524279" lon="-8.257484">
        <ele>190.561</ele>
        <time>2019-06-20T16:23:05Z</time>
      </trkpt>
      <trkpt lat="43.524443" lon="-8.257228">
        <ele>193.907</ele>
        <time>2019-06-20T16:23:06Z</time>
      </trkpt>
      <trkpt lat="43.524604" lon="-8.256963">
        <ele>195.908</ele>
        <time>2019-06-20T16:23:07Z</time>
      </trkpt>
      <trkpt lat="43.524762" lon="-8.256698">
        <ele>197.186</ele>
        <time>2019-06-20T16:23:08Z</time>
      </trkpt>
      <trkpt lat="43.524909" lon="-8.256420">
        <ele>195.510</ele>
        <time>2019-06-20T16:23:09Z</time>
      </trkpt>
      <trkpt lat="43.525054" lon="-8.256137">
        <ele>190.611</ele>
        <time>2019-06-20T16:23:10Z</time>
      </trkpt>
      <trkpt lat="43.525190" lon="-8.255860">
        <ele>184.277</ele>
        <time>2019-06-20T16:23:11Z</time>
      </trkpt>
      <trkpt lat="43.525324" lon="-8.255564">
        <ele>179.094</ele>
        <time>2019-06-20T16:23:12Z</time>
      </trkpt>
      <trkpt lat="43.525448" lon="-8.255252">
        <ele>175.385</ele>
        <time>2019-06-20T16:23:13Z</time>
      </trkpt>
      <trkpt lat="43.525551" lon="-8.254935">
        <ele>172.437</ele>
        <time>2019-06-20T16:23:14Z</time>
      </trkpt>
      <trkpt lat="43.525651" lon="-8.254598">
        <ele>172.444</ele>
        <time>2019-06-20T16:23:15Z</time>
      </trkpt>
      <trkpt lat="43.525739" lon="-8.254256">
        <ele>175.237</ele>
        <time>2019-06-20T16:23:16Z</time>
      </trkpt>
      <trkpt lat="43.525823" lon="-8.253913">
        <ele>177.949</ele>
        <time>2019-06-20T16:23:17Z</time>
      </trkpt>
      <trkpt lat="43.525910" lon="-8.253565">
        <ele>179.313</ele>
        <time>2019-06-20T16:23:18Z</time>
      </trkpt>
      <trkpt lat="43.525982" lon="-8.253205">
        <ele>181.108</ele>
        <time>2019-06-20T16:23:19Z</time>
      </trkpt>
      <trkpt lat="43.526046" lon="-8.252841">
        <ele>180.546</ele>
        <time>2019-06-20T16:23:20Z</time>
      </trkpt>
      <trkpt lat="43.526101" lon="-8.252469">
        <ele>181.650</ele>
        <time>2019-06-20T16:23:21Z</time>
      </trkpt>
      <trkpt lat="43.526144" lon="-8.252095">
        <ele>187.781</ele>
        <time>2019-06-20T16:23:22Z</time>
      </trkpt>
      <trkpt lat="43.526178" lon="-8.251721">
        <ele>194.637</ele>
        <time>2019-06-20T16:23:23Z</time>
      </trkpt>
      <trkpt lat="43.526211" lon="-8.251345">
        <ele>198.344</ele>
        <time>2019-06-20T16:23:24Z</time>
      </trkpt>
      <trkpt lat="43.526201" lon="-8.250953">
        <ele>200.475</ele>
        <time>2019-06-20T16:23:25Z</time>
      </trkpt>
      <trkpt lat="43.526203" lon="-8.250570">
        <ele>202.697</ele>
        <time>2019-06-20T16:23:26Z</time>
      </trkpt>
      <trkpt lat="43.526177" lon="-8.250173">
        <ele>203.274</ele>
        <time>2019-06-20T16:23:27Z</time>
      </trkpt>
      <trkpt lat="43.526142" lon="-8.249765">
        <ele>199.086</ele>
        <time>2019-06-20T16:23:28Z</time>
      </trkpt>
      <trkpt lat="43.526106" lon="-8.249390">
        <ele>195.460</ele>
        <time>2019-06-20T16:23:29Z</time>
      </trkpt>
      <trkpt lat="43.526062" lon="-8.249024">
        <ele>192.026</ele>
        <time>2019-06-20T16:23:30Z</time>
      </trkpt>
      <trkpt lat="43.525994" lon="-8.248653">
        <ele>187.608</ele>
        <time>2019-06-20T16:23:31Z</time>
      </trkpt>
      <trkpt lat="43.525936" lon="-8.248293">
        <ele>183.691</ele>
        <time>2019-06-20T16:23:32Z</time>
      </trkpt>
      <trkpt lat="43.525867" lon="-8.247928">
        <ele>179.665</ele>
        <time>2019-06-20T16:23:33Z</time>
      </trkpt>
      <trkpt lat="43.525783" lon="-8.247569">
        <ele>176.016</ele>
        <time>2019-06-20T16:23:34Z</time>
      </trkpt>
      <trkpt lat="43.525688" lon="-8.247216">
        <ele>169.252</ele>
        <time>2019-06-20T16:23:35Z</time>
      </trkpt>
      <trkpt lat="43.525598" lon="-8.246872">
        <ele>158.489</ele>
        <time>2019-06-20T16:23:36Z</time>
      </trkpt>
      <trkpt lat="43.525508" lon="-8.246526">
        <ele>150.220</ele>
        <time>2019-06-20T16:23:37Z</time>
      </trkpt>
      <trkpt lat="43.525422" lon="-8.246181">
        <ele>146.772</ele>
        <time>2019-06-20T16:23:38Z</time>
      </trkpt>
      <trkpt lat="43.525338" lon="-8.245837">
        <ele>148.179</ele>
        <time>2019-06-20T16:23:39Z</time>
      </trkpt>
      <trkpt lat="43.525278" lon="-8.245479">
        <ele>150.272</ele>
        <time>2019-06-20T16:23:40Z</time>
      </trkpt>
      <trkpt lat="43.525226" lon="-8.245112">
        <ele>148.913</ele>
        <time>2019-06-20T16:23:41Z</time>
      </trkpt>
      <trkpt lat="43.525180" lon="-8.244729">
        <ele>145.914</ele>
        <time>2019-06-20T16:23:42Z</time>
      </trkpt>
      <trkpt lat="43.525143" lon="-8.244364">
        <ele>144.208</ele>
        <time>2019-06-20T16:23:43Z</time>
      </trkpt>
      <trkpt lat="43.525119" lon="-8.243999">
        <ele>144.640</ele>
        <time>2019-06-20T16:23:44Z</time>
      </trkpt>
      <trkpt lat="43.525109" lon="-8.243635">
        <ele>143.454</ele>
        <time>2019-06-20T16:23:45Z</time>
      </trkpt>
      <trkpt lat="43.525119" lon="-8.243258">
        <ele>138.915</ele>
        <time>2019-06-20T16:23:46Z</time>
      </trkpt>
      <trkpt lat="43.525136" lon="-8.242892">
        <ele>132.911</ele>
        <time>2019-06-20T16:23:47Z</time>
      </trkpt>
      <trkpt lat="43.525164" lon="-8.242576">
        <ele>125.688</ele>
        <time>2019-06-20T16:23:48Z</time>
      </trkpt>
      <trkpt lat="43.525194" lon="-8.242217">
        <ele>115.449</ele>
        <time>2019-06-20T16:23:49Z</time>
      </trkpt>
      <trkpt lat="43.525231" lon="-8.241862">
        <ele>111.551</ele>
        <time>2019-06-20T16:23:50Z</time>
      </trkpt>
      <trkpt lat="43.525288" lon="-8.241525">
        <ele>110.268</ele>
        <time>2019-06-20T16:23:51Z</time>
      </trkpt>
      <trkpt lat="43.525348" lon="-8.241159">
        <ele>108.722</ele>
        <time>2019-06-20T16:23:52Z</time>
      </trkpt>
      <trkpt lat="43.525420" lon="-8.240816">
        <ele>104.162</ele>
        <time>2019-06-20T16:23:53Z</time>
      </trkpt>
      <trkpt lat="43.525487" lon="-8.240491">
        <ele>96.308</ele>
        <time>2019-06-20T16:23:54Z</time>
      </trkpt>
      <trkpt lat="43.525576" lon="-8.240174">
        <ele>88.608</ele>
        <time>2019-06-20T16:23:55Z</time>
      </trkpt>
      <trkpt lat="43.525665" lon="-8.239842">
        <ele>84.635</ele>
        <time>2019-06-20T16:23:56Z</time>
      </trkpt>
      <trkpt lat="43.525757" lon="-8.239513">
        <ele>82.739</ele>
        <time>2019-06-20T16:23:57Z</time>
      </trkpt>
      <trkpt lat="43.525852" lon="-8.239182">
        <ele>80.220</ele>
        <time>2019-06-20T16:23:58Z</time>
      </trkpt>
      <trkpt lat="43.525946" lon="-8.238836">
        <ele>78.916</ele>
        <time>2019-06-20T16:23:59Z</time>
      </trkpt>
      <trkpt lat="43.526030" lon="-8.238493">
        <ele>78.463</ele>
        <time>2019-06-20T16:24:00Z</time>
      </trkpt>
      <trkpt lat="43.526109" lon="-8.238151">
        <ele>78.024</ele>
        <time>2019-06-20T16:24:01Z</time>
      </trkpt>
      <trkpt lat="43.526169" lon="-8.237784">
        <ele>77.276</ele>
        <time>2019-06-20T16:24:02Z</time>
      </trkpt>
      <trkpt lat="43.526221" lon="-8.237423">
        <ele>76.543</ele>
        <time>2019-06-20T16:24:03Z</time>
      </trkpt>
      <trkpt lat="43.526257" lon="-8.237058">
        <ele>75.774</ele>
        <time>2019-06-20T16:24:04Z</time>
      </trkpt>
      <trkpt lat="43.526284" lon="-8.236694">
        <ele>75.156</ele>
        <time>2019-06-20T16:24:05Z</time>
      </trkpt>
      <trkpt lat="43.526298" lon="-8.236323">
        <ele>74.621</ele>
        <time>2019-06-20T16:24:06Z</time>
      </trkpt>
      <trkpt lat="43.526307" lon="-8.235958">
        <ele>74.408</ele>
        <time>2019-06-20T16:24:07Z</time>
      </trkpt>
      <trkpt lat="43.526293" lon="-8.235595">
        <ele>74.330</ele>
        <time>2019-06-20T16:24:08Z</time>
      </trkpt>
      <trkpt lat="43.526269" lon="-8.235245">
        <ele>72.974</ele>
        <time>2019-06-20T16:24:09Z</time>
      </trkpt>
      <trkpt lat="43.526222" lon="-8.234883">
        <ele>72.025</ele>
        <time>2019-06-20T16:24:10Z</time>
      </trkpt>
      <trkpt lat="43.526177" lon="-8.234516">
        <ele>70.771</ele>
        <time>2019-06-20T16:24:11Z</time>
      </trkpt>
      <trkpt lat="43.526113" lon="-8.234154">
        <ele>69.038</ele>
        <time>2019-06-20T16:24:12Z</time>
      </trkpt>
      <trkpt lat="43.526042" lon="-8.233799">
        <ele>67.819</ele>
        <time>2019-06-20T16:24:13Z</time>
      </trkpt>
      <trkpt lat="43.525963" lon="-8.233450">
        <ele>67.571</ele>
        <time>2019-06-20T16:24:14Z</time>
      </trkpt>
      <trkpt lat="43.525875" lon="-8.233106">
        <ele>67.868</ele>
        <time>2019-06-20T16:24:15Z</time>
      </trkpt>
      <trkpt lat="43.525777" lon="-8.232769">
        <ele>67.072</ele>
        <time>2019-06-20T16:24:16Z</time>
      </trkpt>
      <trkpt lat="43.525667" lon="-8.232436">
        <ele>65.313</ele>
        <time>2019-06-20T16:24:17Z</time>
      </trkpt>
      <trkpt lat="43.525547" lon="-8.232103">
        <ele>64.614</ele>
        <time>2019-06-20T16:24:18Z</time>
      </trkpt>
      <trkpt lat="43.525413" lon="-8.231790">
        <ele>64.008</ele>
        <time>2019-06-20T16:24:19Z</time>
      </trkpt>
      <trkpt lat="43.525269" lon="-8.231485">
        <ele>64.010</ele>
        <time>2019-06-20T16:24:20Z</time>
      </trkpt>
      <trkpt lat="43.525113" lon="-8.231189">
        <ele>64.364</ele>
        <time>2019-06-20T16:24:21Z</time>
      </trkpt>
      <trkpt lat="43.524950" lon="-8.230908">
        <ele>64.955</ele>
        <time>2019-06-20T16:24:22Z</time>
      </trkpt>
      <trkpt lat="43.524774" lon="-8.230635">
        <ele>67.131</ele>
        <time>2019-06-20T16:24:23Z</time>
      </trkpt>
      <trkpt lat="43.524592" lon="-8.230371">
        <ele>70.288</ele>
        <time>2019-06-20T16:24:24Z</time>
      </trkpt>
      <trkpt lat="43.524408" lon="-8.230107">
        <ele>74.439</ele>
        <time>2019-06-20T16:24:25Z</time>
      </trkpt>
      <trkpt lat="43.524223" lon="-8.229836">
        <ele>76.541</ele>
        <time>2019-06-20T16:24:26Z</time>
      </trkpt>
      <trkpt lat="43.524039" lon="-8.229569">
        <ele>75.718</ele>
        <time>2019-06-20T16:24:27Z</time>
      </trkpt>
      <trkpt lat="43.523855" lon="-8.229302">
        <ele>73.382</ele>
        <time>2019-06-20T16:24:28Z</time>
      </trkpt>
      <trkpt lat="43.523672" lon="-8.229042">
        <ele>70.443</ele>
        <time>2019-06-20T16:24:29Z</time>
      </trkpt>
      <trkpt lat="43.523488" lon="-8.228778">
        <ele>69.817</ele>
        <time>2019-06-20T16:24:30Z</time>
      </trkpt>
      <trkpt lat="43.523308" lon="-8.228522">
        <ele>71.908</ele>
        <time>2019-06-20T16:24:31Z</time>
      </trkpt>
      <trkpt lat="43.523127" lon="-8.228269">
        <ele>73.871</ele>
        <time>2019-06-20T16:24:32Z</time>
      </trkpt>
      <trkpt lat="43.522946" lon="-8.228009">
        <ele>74.725</ele>
        <time>2019-06-20T16:24:33Z</time>
      </trkpt>
      <trkpt lat="43.522767" lon="-8.227758">
        <ele>74.066</ele>
        <time>2019-06-20T16:24:34Z</time>
      </trkpt>
      <trkpt lat="43.522589" lon="-8.227503">
        <ele>74.742</ele>
        <time>2019-06-20T16:24:35Z</time>
      </trkpt>
      <trkpt lat="43.522408" lon="-8.227250">
        <ele>76.769</ele>
        <time>2019-06-20T16:24:36Z</time>
      </trkpt>
      <trkpt lat="43.522231" lon="-8.227001">
        <ele>79.150</ele>
        <time>2019-06-20T16:24:37Z</time>
      </trkpt>
      <trkpt lat="43.522054" lon="-8.226745">
        <ele>77.512</ele>
        <time>2019-06-20T16:24:38Z</time>
      </trkpt>
      <trkpt lat="43.521876" lon="-8.226487">
        <ele>75.419</ele>
        <time>2019-06-20T16:24:39Z</time>
      </trkpt>
      <trkpt lat="43.521700" lon="-8.226237">
        <ele>74.146</ele>
        <time>2019-06-20T16:24:40Z</time>
      </trkpt>
      <trkpt lat="43.521529" lon="-8.225976">
        <ele>73.088</ele>
        <time>2019-06-20T16:24:41Z</time>
      </trkpt>
      <trkpt lat="43.521364" lon="-8.225704">
        <ele>72.216</ele>
        <time>2019-06-20T16:24:42Z</time>
      </trkpt>
      <trkpt lat="43.521206" lon="-8.225419">
        <ele>71.508</ele>
        <time>2019-06-20T16:24:43Z</time>
      </trkpt>
      <trkpt lat="43.521055" lon="-8.225129">
        <ele>71.237</ele>
        <time>2019-06-20T16:24:44Z</time>
      </trkpt>
      <trkpt lat="43.520912" lon="-8.224837">
        <ele>71.031</ele>
        <time>2019-06-20T16:24:45Z</time>
      </trkpt>
      <trkpt lat="43.520775" lon="-8.224537">
        <ele>71.162</ele>
        <time>2019-06-20T16:24:46Z</time>
      </trkpt>
      <trkpt lat="43.520649" lon="-8.224235">
        <ele>72.948</ele>
        <time>2019-06-20T16:24:47Z</time>
      </trkpt>
      <trkpt lat="43.520532" lon="-8.223931">
        <ele>74.665</ele>
        <time>2019-06-20T16:24:48Z</time>
      </trkpt>
      <trkpt lat="43.520424" lon="-8.223622">
        <ele>75.556</ele>
        <time>2019-06-20T16:24:49Z</time>
      </trkpt>
      <trkpt lat="43.520328" lon="-8.223317">
        <ele>76.268</ele>
        <time>2019-06-20T16:24:50Z</time>
      </trkpt>
      <trkpt lat="43.520244" lon="-8.223018">
        <ele>76.955</ele>
        <time>2019-06-20T16:24:51Z</time>
      </trkpt>
      <trkpt lat="43.520174" lon="-8.222724">
        <ele>77.317</ele>
        <time>2019-06-20T16:24:52Z</time>
      </trkpt>
      <trkpt lat="43.520109" lon="-8.222435">
        <ele>78.887</ele>
        <time>2019-06-20T16:24:53Z</time>
      </trkpt>
      <trkpt lat="43.520053" lon="-8.222155">
        <ele>80.115</ele>
        <time>2019-06-20T16:24:54Z</time>
      </trkpt>
      <trkpt lat="43.519994" lon="-8.221873">
        <ele>81.508</ele>
        <time>2019-06-20T16:24:55Z</time>
      </trkpt>
      <trkpt lat="43.519952" lon="-8.221599">
        <ele>83.174</ele>
        <time>2019-06-20T16:24:56Z</time>
      </trkpt>
      <trkpt lat="43.519923" lon="-8.221318">
        <ele>83.778</ele>
        <time>2019-06-20T16:24:57Z</time>
      </trkpt>
      <trkpt lat="43.519900" lon="-8.221033">
        <ele>83.629</ele>
        <time>2019-06-20T16:24:58Z</time>
      </trkpt>
      <trkpt lat="43.519874" lon="-8.220754">
        <ele>83.325</ele>
        <time>2019-06-20T16:24:59Z</time>
      </trkpt>
      <trkpt lat="43.519846" lon="-8.220498">
        <ele>82.492</ele>
        <time>2019-06-20T16:25:00Z</time>
      </trkpt>
      <trkpt lat="43.519821" lon="-8.220240">
        <ele>81.893</ele>
        <time>2019-06-20T16:25:01Z</time>
      </trkpt>
      <trkpt lat="43.519796" lon="-8.220022">
        <ele>80.865</ele>
        <time>2019-06-20T16:25:02Z</time>
      </trkpt>
      <trkpt lat="43.519772" lon="-8.219789">
        <ele>79.942</ele>
        <time>2019-06-20T16:25:03Z</time>
      </trkpt>
      <trkpt lat="43.519751" lon="-8.219550">
        <ele>79.245</ele>
        <time>2019-06-20T16:25:04Z</time>
      </trkpt>
      <trkpt lat="43.519725" lon="-8.219328">
        <ele>78.647</ele>
        <time>2019-06-20T16:25:05Z</time>
      </trkpt>
      <trkpt lat="43.519711" lon="-8.219114">
        <ele>77.711</ele>
        <time>2019-06-20T16:25:06Z</time>
      </trkpt>
      <trkpt lat="43.519706" lon="-8.218893">
        <ele>76.108</ele>
        <time>2019-06-20T16:25:07Z</time>
      </trkpt>
      <trkpt lat="43.519715" lon="-8.218698">
        <ele>74.627</ele>
        <time>2019-06-20T16:25:08Z</time>
      </trkpt>
      <trkpt lat="43.519738" lon="-8.218470">
        <ele>73.561</ele>
        <time>2019-06-20T16:25:09Z</time>
      </trkpt>
      <trkpt lat="43.519767" lon="-8.218244">
        <ele>73.572</ele>
        <time>2019-06-20T16:25:10Z</time>
      </trkpt>
      <trkpt lat="43.519807" lon="-8.218017">
        <ele>74.168</ele>
        <time>2019-06-20T16:25:11Z</time>
      </trkpt>
      <trkpt lat="43.519847" lon="-8.217791">
        <ele>73.455</ele>
        <time>2019-06-20T16:25:12Z</time>
      </trkpt>
      <trkpt lat="43.519979" lon="-8.217289">
        <ele>69.416</ele>
        <time>2019-06-20T16:25:14Z</time>
      </trkpt>
      <trkpt lat="43.520185" lon="-8.217130">
        <ele>69.828</ele>
        <time>2019-06-20T16:25:15Z</time>
      </trkpt>
      <trkpt lat="43.520338" lon="-8.216936">
        <ele>67.775</ele>
        <time>2019-06-20T16:25:16Z</time>
      </trkpt>
      <trkpt lat="43.520492" lon="-8.216761">
        <ele>65.174</ele>
        <time>2019-06-20T16:25:17Z</time>
      </trkpt>
      <trkpt lat="43.520660" lon="-8.216636">
        <ele>64.956</ele>
        <time>2019-06-20T16:25:18Z</time>
      </trkpt>
      <trkpt lat="43.520834" lon="-8.216542">
        <ele>66.121</ele>
        <time>2019-06-20T16:25:19Z</time>
      </trkpt>
      <trkpt lat="43.521019" lon="-8.216459">
        <ele>66.708</ele>
        <time>2019-06-20T16:25:20Z</time>
      </trkpt>
      <trkpt lat="43.521207" lon="-8.216403">
        <ele>66.750</ele>
        <time>2019-06-20T16:25:21Z</time>
      </trkpt>
      <trkpt lat="43.521398" lon="-8.216374">
        <ele>66.074</ele>
        <time>2019-06-20T16:25:22Z</time>
      </trkpt>
      <trkpt lat="43.521593" lon="-8.216360">
        <ele>66.095</ele>
        <time>2019-06-20T16:25:23Z</time>
      </trkpt>
      <trkpt lat="43.521793" lon="-8.216351">
        <ele>66.541</ele>
        <time>2019-06-20T16:25:24Z</time>
      </trkpt>
      <trkpt lat="43.521997" lon="-8.216350">
        <ele>67.518</ele>
        <time>2019-06-20T16:25:25Z</time>
      </trkpt>
      <trkpt lat="43.522198" lon="-8.216334">
        <ele>69.669</ele>
        <time>2019-06-20T16:25:26Z</time>
      </trkpt>
      <trkpt lat="43.522390" lon="-8.216294">
        <ele>70.931</ele>
        <time>2019-06-20T16:25:27Z</time>
      </trkpt>
      <trkpt lat="43.522578" lon="-8.216216">
        <ele>72.178</ele>
        <time>2019-06-20T16:25:28Z</time>
      </trkpt>
      <trkpt lat="43.522759" lon="-8.216116">
        <ele>73.877</ele>
        <time>2019-06-20T16:25:29Z</time>
      </trkpt>
      <trkpt lat="43.522923" lon="-8.215996">
        <ele>73.461</ele>
        <time>2019-06-20T16:25:30Z</time>
      </trkpt>
      <trkpt lat="43.523067" lon="-8.215850">
        <ele>72.827</ele>
        <time>2019-06-20T16:25:31Z</time>
      </trkpt>
      <trkpt lat="43.523200" lon="-8.215676">
        <ele>72.308</ele>
        <time>2019-06-20T16:25:32Z</time>
      </trkpt>
      <trkpt lat="43.523336" lon="-8.215488">
        <ele>71.290</ele>
        <time>2019-06-20T16:25:33Z</time>
      </trkpt>
      <trkpt lat="43.523460" lon="-8.215278">
        <ele>70.214</ele>
        <time>2019-06-20T16:25:34Z</time>
      </trkpt>
      <trkpt lat="43.523583" lon="-8.215050">
        <ele>66.835</ele>
        <time>2019-06-20T16:25:35Z</time>
      </trkpt>
      <trkpt lat="43.523703" lon="-8.214808">
        <ele>63.631</ele>
        <time>2019-06-20T16:25:36Z</time>
      </trkpt>
      <trkpt lat="43.523824" lon="-8.214555">
        <ele>60.528</ele>
        <time>2019-06-20T16:25:37Z</time>
      </trkpt>
      <trkpt lat="43.523959" lon="-8.214293">
        <ele>59.059</ele>
        <time>2019-06-20T16:25:38Z</time>
      </trkpt>
      <trkpt lat="43.524106" lon="-8.214033">
        <ele>58.611</ele>
        <time>2019-06-20T16:25:39Z</time>
      </trkpt>
      <trkpt lat="43.524256" lon="-8.213776">
        <ele>57.528</ele>
        <time>2019-06-20T16:25:40Z</time>
      </trkpt>
      <trkpt lat="43.524403" lon="-8.213526">
        <ele>55.897</ele>
        <time>2019-06-20T16:25:41Z</time>
      </trkpt>
      <trkpt lat="43.524567" lon="-8.213273">
        <ele>54.123</ele>
        <time>2019-06-20T16:25:42Z</time>
      </trkpt>
      <trkpt lat="43.524737" lon="-8.213019">
        <ele>52.925</ele>
        <time>2019-06-20T16:25:43Z</time>
      </trkpt>
      <trkpt lat="43.524910" lon="-8.212768">
        <ele>51.708</ele>
        <time>2019-06-20T16:25:44Z</time>
      </trkpt>
      <trkpt lat="43.525093" lon="-8.212522">
        <ele>51.322</ele>
        <time>2019-06-20T16:25:45Z</time>
      </trkpt>
      <trkpt lat="43.525282" lon="-8.212281">
        <ele>49.236</ele>
        <time>2019-06-20T16:25:46Z</time>
      </trkpt>
      <trkpt lat="43.525476" lon="-8.212042">
        <ele>48.727</ele>
        <time>2019-06-20T16:25:47Z</time>
      </trkpt>
      <trkpt lat="43.525674" lon="-8.211805">
        <ele>49.583</ele>
        <time>2019-06-20T16:25:48Z</time>
      </trkpt>
      <trkpt lat="43.525873" lon="-8.211583">
        <ele>50.220</ele>
        <time>2019-06-20T16:25:49Z</time>
      </trkpt>
      <trkpt lat="43.526080" lon="-8.211369">
        <ele>51.121</ele>
        <time>2019-06-20T16:25:50Z</time>
      </trkpt>
      <trkpt lat="43.526287" lon="-8.211161">
        <ele>50.623</ele>
        <time>2019-06-20T16:25:51Z</time>
      </trkpt>
      <trkpt lat="43.526498" lon="-8.210964">
        <ele>49.350</ele>
        <time>2019-06-20T16:25:52Z</time>
      </trkpt>
      <trkpt lat="43.526709" lon="-8.210776">
        <ele>47.038</ele>
        <time>2019-06-20T16:25:53Z</time>
      </trkpt>
      <trkpt lat="43.526920" lon="-8.210595">
        <ele>46.270</ele>
        <time>2019-06-20T16:25:54Z</time>
      </trkpt>
      <trkpt lat="43.527130" lon="-8.210417">
        <ele>46.517</ele>
        <time>2019-06-20T16:25:55Z</time>
      </trkpt>
      <trkpt lat="43.527343" lon="-8.210241">
        <ele>47.108</ele>
        <time>2019-06-20T16:25:56Z</time>
      </trkpt>
      <trkpt lat="43.527553" lon="-8.210063">
        <ele>47.716</ele>
        <time>2019-06-20T16:25:57Z</time>
      </trkpt>
      <trkpt lat="43.527766" lon="-8.209887">
        <ele>48.450</ele>
        <time>2019-06-20T16:25:58Z</time>
      </trkpt>
      <trkpt lat="43.527981" lon="-8.209715">
        <ele>48.361</ele>
        <time>2019-06-20T16:25:59Z</time>
      </trkpt>
      <trkpt lat="43.528205" lon="-8.209558">
        <ele>47.637</ele>
        <time>2019-06-20T16:26:00Z</time>
      </trkpt>
      <trkpt lat="43.528425" lon="-8.209396">
        <ele>46.164</ele>
        <time>2019-06-20T16:26:01Z</time>
      </trkpt>
      <trkpt lat="43.528645" lon="-8.209232">
        <ele>44.375</ele>
        <time>2019-06-20T16:26:02Z</time>
      </trkpt>
      <trkpt lat="43.528866" lon="-8.209069">
        <ele>41.717</ele>
        <time>2019-06-20T16:26:03Z</time>
      </trkpt>
      <trkpt lat="43.529086" lon="-8.208915">
        <ele>38.484</ele>
        <time>2019-06-20T16:26:04Z</time>
      </trkpt>
      <trkpt lat="43.529304" lon="-8.208752">
        <ele>36.524</ele>
        <time>2019-06-20T16:26:05Z</time>
      </trkpt>
      <trkpt lat="43.529523" lon="-8.208588">
        <ele>34.404</ele>
        <time>2019-06-20T16:26:06Z</time>
      </trkpt>
      <trkpt lat="43.529736" lon="-8.208425">
        <ele>33.314</ele>
        <time>2019-06-20T16:26:07Z</time>
      </trkpt>
      <trkpt lat="43.529959" lon="-8.208276">
        <ele>33.208</ele>
        <time>2019-06-20T16:26:08Z</time>
      </trkpt>
      <trkpt lat="43.530174" lon="-8.208084">
        <ele>33.625</ele>
        <time>2019-06-20T16:26:09Z</time>
      </trkpt>
      <trkpt lat="43.530392" lon="-8.207915">
        <ele>33.699</ele>
        <time>2019-06-20T16:26:10Z</time>
      </trkpt>
      <trkpt lat="43.530606" lon="-8.207740">
        <ele>32.780</ele>
        <time>2019-06-20T16:26:11Z</time>
      </trkpt>
      <trkpt lat="43.530814" lon="-8.207559">
        <ele>32.066</ele>
        <time>2019-06-20T16:26:12Z</time>
      </trkpt>
      <trkpt lat="43.531027" lon="-8.207379">
        <ele>31.633</ele>
        <time>2019-06-20T16:26:13Z</time>
      </trkpt>
      <trkpt lat="43.531243" lon="-8.207175">
        <ele>31.434</ele>
        <time>2019-06-20T16:26:14Z</time>
      </trkpt>
      <trkpt lat="43.531450" lon="-8.206984">
        <ele>31.416</ele>
        <time>2019-06-20T16:26:15Z</time>
      </trkpt>
      <trkpt lat="43.531654" lon="-8.206791">
        <ele>32.063</ele>
        <time>2019-06-20T16:26:16Z</time>
      </trkpt>
      <trkpt lat="43.531853" lon="-8.206593">
        <ele>32.897</ele>
        <time>2019-06-20T16:26:17Z</time>
      </trkpt>
      <trkpt lat="43.532047" lon="-8.206390">
        <ele>33.023</ele>
        <time>2019-06-20T16:26:18Z</time>
      </trkpt>
      <trkpt lat="43.532241" lon="-8.206174">
        <ele>33.825</ele>
        <time>2019-06-20T16:26:19Z</time>
      </trkpt>
      <trkpt lat="43.532430" lon="-8.205954">
        <ele>34.008</ele>
        <time>2019-06-20T16:26:20Z</time>
      </trkpt>
      <trkpt lat="43.532613" lon="-8.205734">
        <ele>34.912</ele>
        <time>2019-06-20T16:26:21Z</time>
      </trkpt>
      <trkpt lat="43.532790" lon="-8.205504">
        <ele>37.566</ele>
        <time>2019-06-20T16:26:22Z</time>
      </trkpt>
      <trkpt lat="43.532960" lon="-8.205266">
        <ele>38.157</ele>
        <time>2019-06-20T16:26:23Z</time>
      </trkpt>
      <trkpt lat="43.533115" lon="-8.205025">
        <ele>37.773</ele>
        <time>2019-06-20T16:26:24Z</time>
      </trkpt>
      <trkpt lat="43.533263" lon="-8.204790">
        <ele>36.380</ele>
        <time>2019-06-20T16:26:25Z</time>
      </trkpt>
      <trkpt lat="43.533420" lon="-8.204538">
        <ele>36.381</ele>
        <time>2019-06-20T16:26:26Z</time>
      </trkpt>
      <trkpt lat="43.533562" lon="-8.204298">
        <ele>36.483</ele>
        <time>2019-06-20T16:26:27Z</time>
      </trkpt>
      <trkpt lat="43.533690" lon="-8.204054">
        <ele>36.890</ele>
        <time>2019-06-20T16:26:28Z</time>
      </trkpt>
      <trkpt lat="43.533819" lon="-8.203805">
        <ele>37.018</ele>
        <time>2019-06-20T16:26:29Z</time>
      </trkpt>
      <trkpt lat="43.533960" lon="-8.203555">
        <ele>36.898</ele>
        <time>2019-06-20T16:26:30Z</time>
      </trkpt>
      <trkpt lat="43.534087" lon="-8.203282">
        <ele>36.117</ele>
        <time>2019-06-20T16:26:31Z</time>
      </trkpt>
      <trkpt lat="43.534197" lon="-8.203021">
        <ele>37.108</ele>
        <time>2019-06-20T16:26:32Z</time>
      </trkpt>
      <trkpt lat="43.534305" lon="-8.202760">
        <ele>37.994</ele>
        <time>2019-06-20T16:26:33Z</time>
      </trkpt>
      <trkpt lat="43.534413" lon="-8.202499">
        <ele>37.738</ele>
        <time>2019-06-20T16:26:34Z</time>
      </trkpt>
      <trkpt lat="43.534510" lon="-8.202230">
        <ele>36.519</ele>
        <time>2019-06-20T16:26:35Z</time>
      </trkpt>
      <trkpt lat="43.534614" lon="-8.201967">
        <ele>37.225</ele>
        <time>2019-06-20T16:26:36Z</time>
      </trkpt>
      <trkpt lat="43.534705" lon="-8.201689">
        <ele>37.012</ele>
        <time>2019-06-20T16:26:37Z</time>
      </trkpt>
      <trkpt lat="43.534794" lon="-8.201410">
        <ele>37.383</ele>
        <time>2019-06-20T16:26:38Z</time>
      </trkpt>
      <trkpt lat="43.534873" lon="-8.201131">
        <ele>37.545</ele>
        <time>2019-06-20T16:26:39Z</time>
      </trkpt>
      <trkpt lat="43.534950" lon="-8.200832">
        <ele>37.092</ele>
        <time>2019-06-20T16:26:40Z</time>
      </trkpt>
      <trkpt lat="43.535022" lon="-8.200538">
        <ele>37.211</ele>
        <time>2019-06-20T16:26:41Z</time>
      </trkpt>
      <trkpt lat="43.535090" lon="-8.200260">
        <ele>38.421</ele>
        <time>2019-06-20T16:26:42Z</time>
      </trkpt>
      <trkpt lat="43.535149" lon="-8.199977">
        <ele>39.003</ele>
        <time>2019-06-20T16:26:43Z</time>
      </trkpt>
      <trkpt lat="43.535201" lon="-8.199704">
        <ele>39.708</ele>
        <time>2019-06-20T16:26:44Z</time>
      </trkpt>
      <trkpt lat="43.535241" lon="-8.199436">
        <ele>39.764</ele>
        <time>2019-06-20T16:26:45Z</time>
      </trkpt>
      <trkpt lat="43.535286" lon="-8.199163">
        <ele>39.158</ele>
        <time>2019-06-20T16:26:46Z</time>
      </trkpt>
      <trkpt lat="43.535331" lon="-8.198910">
        <ele>39.219</ele>
        <time>2019-06-20T16:26:47Z</time>
      </trkpt>
      <trkpt lat="43.535374" lon="-8.198667">
        <ele>38.835</ele>
        <time>2019-06-20T16:26:48Z</time>
      </trkpt>
      <trkpt lat="43.535417" lon="-8.198431">
        <ele>37.922</ele>
        <time>2019-06-20T16:26:49Z</time>
      </trkpt>
      <trkpt lat="43.535451" lon="-8.198235">
        <ele>37.663</ele>
        <time>2019-06-20T16:26:50Z</time>
      </trkpt>
      <trkpt lat="43.535488" lon="-8.198033">
        <ele>38.095</ele>
        <time>2019-06-20T16:26:51Z</time>
      </trkpt>
      <trkpt lat="43.535515" lon="-8.197841">
        <ele>38.062</ele>
        <time>2019-06-20T16:26:52Z</time>
      </trkpt>
      <trkpt lat="43.535534" lon="-8.197658">
        <ele>38.445</ele>
        <time>2019-06-20T16:26:53Z</time>
      </trkpt>
      <trkpt lat="43.535546" lon="-8.197479">
        <ele>38.947</ele>
        <time>2019-06-20T16:26:54Z</time>
      </trkpt>
      <trkpt lat="43.535551" lon="-8.197302">
        <ele>38.311</ele>
        <time>2019-06-20T16:26:55Z</time>
      </trkpt>
      <trkpt lat="43.535561" lon="-8.197128">
        <ele>38.008</ele>
        <time>2019-06-20T16:26:56Z</time>
      </trkpt>
      <trkpt lat="43.535558" lon="-8.196953">
        <ele>38.087</ele>
        <time>2019-06-20T16:26:57Z</time>
      </trkpt>
      <trkpt lat="43.535563" lon="-8.196790">
        <ele>38.051</ele>
        <time>2019-06-20T16:26:58Z</time>
      </trkpt>
      <trkpt lat="43.535567" lon="-8.196634">
        <ele>38.152</ele>
        <time>2019-06-20T16:26:59Z</time>
      </trkpt>
      <trkpt lat="43.535579" lon="-8.196485">
        <ele>38.218</ele>
        <time>2019-06-20T16:27:00Z</time>
      </trkpt>
      <trkpt lat="43.535578" lon="-8.196339">
        <ele>38.045</ele>
        <time>2019-06-20T16:27:01Z</time>
      </trkpt>
      <trkpt lat="43.535567" lon="-8.196218">
        <ele>37.586</ele>
        <time>2019-06-20T16:27:02Z</time>
      </trkpt>
      <trkpt lat="43.535534" lon="-8.196102">
        <ele>36.788</ele>
        <time>2019-06-20T16:27:03Z</time>
      </trkpt>
      <trkpt lat="43.535497" lon="-8.196020">
        <ele>36.175</ele>
        <time>2019-06-20T16:27:04Z</time>
      </trkpt>
      <trkpt lat="43.535448" lon="-8.195959">
        <ele>35.547</ele>
        <time>2019-06-20T16:27:05Z</time>
      </trkpt>
      <trkpt lat="43.535385" lon="-8.195918">
        <ele>34.929</ele>
        <time>2019-06-20T16:27:06Z</time>
      </trkpt>
      <trkpt lat="43.535298" lon="-8.195904">
        <ele>34.221</ele>
        <time>2019-06-20T16:27:07Z</time>
      </trkpt>
      <trkpt lat="43.535199" lon="-8.195892">
        <ele>33.808</ele>
        <time>2019-06-20T16:27:08Z</time>
      </trkpt>
      <trkpt lat="43.535093" lon="-8.195890">
        <ele>33.587</ele>
        <time>2019-06-20T16:27:09Z</time>
      </trkpt>
      <trkpt lat="43.534972" lon="-8.195888">
        <ele>33.371</ele>
        <time>2019-06-20T16:27:10Z</time>
      </trkpt>
      <trkpt lat="43.534843" lon="-8.195878">
        <ele>33.792</ele>
        <time>2019-06-20T16:27:11Z</time>
      </trkpt>
      <trkpt lat="43.534706" lon="-8.195883">
        <ele>34.218</ele>
        <time>2019-06-20T16:27:12Z</time>
      </trkpt>
      <trkpt lat="43.534566" lon="-8.195882">
        <ele>34.395</ele>
        <time>2019-06-20T16:27:13Z</time>
      </trkpt>
      <trkpt lat="43.534429" lon="-8.195885">
        <ele>34.476</ele>
        <time>2019-06-20T16:27:14Z</time>
      </trkpt>
      <trkpt lat="43.534300" lon="-8.195882">
        <ele>34.328</ele>
        <time>2019-06-20T16:27:15Z</time>
      </trkpt>
      <trkpt lat="43.534192" lon="-8.195882">
        <ele>34.295</ele>
        <time>2019-06-20T16:27:16Z</time>
      </trkpt>
      <trkpt lat="43.534106" lon="-8.195890">
        <ele>33.969</ele>
        <time>2019-06-20T16:27:17Z</time>
      </trkpt>
      <trkpt lat="43.534039" lon="-8.195918">
        <ele>33.704</ele>
        <time>2019-06-20T16:27:18Z</time>
      </trkpt>
      <trkpt lat="43.533994" lon="-8.195968">
        <ele>33.624</ele>
        <time>2019-06-20T16:27:19Z</time>
      </trkpt>
      <trkpt lat="43.533965" lon="-8.196034">
        <ele>33.508</ele>
        <time>2019-06-20T16:27:20Z</time>
      </trkpt>
      <trkpt lat="43.533951" lon="-8.196112">
        <ele>33.539</ele>
        <time>2019-06-20T16:27:21Z</time>
      </trkpt>
      <trkpt lat="43.533954" lon="-8.196225">
        <ele>33.823</ele>
        <time>2019-06-20T16:27:23Z</time>
      </trkpt>
      <trkpt lat="43.533906" lon="-8.196318">
        <ele>33.894</ele>
        <time>2019-06-20T16:27:25Z</time>
      </trkpt>
      <trkpt lat="43.533841" lon="-8.196340">
        <ele>33.780</ele>
        <time>2019-06-20T16:27:27Z</time>
      </trkpt>
      <trkpt lat="43.533787" lon="-8.196310">
        <ele>33.597</ele>
        <time>2019-06-20T16:27:29Z</time>
      </trkpt>
      <trkpt lat="43.533768" lon="-8.196228">
        <ele>33.288</ele>
        <time>2019-06-20T16:27:31Z</time>
      </trkpt>
      <trkpt lat="43.533795" lon="-8.196128">
        <ele>33.080</ele>
        <time>2019-06-20T16:27:33Z</time>
      </trkpt>
      <trkpt lat="43.533806" lon="-8.196053">
        <ele>33.077</ele>
        <time>2019-06-20T16:27:35Z</time>
      </trkpt>
      <trkpt lat="43.533769" lon="-8.196016">
        <ele>33.088</ele>
        <time>2019-06-20T16:27:46Z</time>
      </trkpt>
      <trkpt lat="43.533737" lon="-8.196062">
        <ele>33.024</ele>
        <time>2019-06-20T16:30:29Z</time>
      </trkpt>
      <trkpt lat="43.533691" lon="-8.196070">
        <ele>33.026</ele>
        <time>2019-06-20T16:30:34Z</time>
      </trkpt>
      <trkpt lat="43.533640" lon="-8.196085">
        <ele>33.008</ele>
        <time>2019-06-20T16:30:45Z</time>
      </trkpt>
      <trkpt lat="43.533586" lon="-8.196100">
        <ele>33.081</ele>
        <time>2019-06-20T16:30:50Z</time>
      </trkpt>
      <trkpt lat="43.533538" lon="-8.196105">
        <ele>33.045</ele>
        <time>2019-06-20T16:30:55Z</time>
      </trkpt>
      <trkpt lat="43.533507" lon="-8.196152">
        <ele>32.926</ele>
        <time>2019-06-20T16:31:09Z</time>
      </trkpt>
      <trkpt lat="43.533501" lon="-8.196089">
        <ele>33.042</ele>
        <time>2019-06-20T16:31:18Z</time>
      </trkpt>
      <trkpt lat="43.533494" lon="-8.196022">
        <ele>33.129</ele>
        <time>2019-06-20T16:31:21Z</time>
      </trkpt>
      <trkpt lat="43.533509" lon="-8.196085">
        <ele>33.050</ele>
        <time>2019-06-20T16:31:27Z</time>
      </trkpt>
      <trkpt lat="43.533549" lon="-8.196114">
        <ele>33.082</ele>
        <time>2019-06-20T16:31:33Z</time>
      </trkpt>
      <trkpt lat="43.533507" lon="-8.196152">
        <ele>32.989</ele>
        <time>2019-06-20T16:31:38Z</time>
      </trkpt>
      <trkpt lat="43.533446" lon="-8.196150">
        <ele>32.993</ele>
        <time>2019-06-20T16:31:41Z</time>
      </trkpt>
      <trkpt lat="43.533406" lon="-8.196071">
        <ele>33.165</ele>
        <time>2019-06-20T16:31:43Z</time>
      </trkpt>
      <trkpt lat="43.533381" lon="-8.196002">
        <ele>33.321</ele>
        <time>2019-06-20T16:31:45Z</time>
      </trkpt>
      <trkpt lat="43.533353" lon="-8.195943">
        <ele>33.608</ele>
        <time>2019-06-20T16:31:48Z</time>
      </trkpt>
      <trkpt lat="43.533335" lon="-8.196000">
        <ele>33.452</ele>
        <time>2019-06-20T16:31:52Z</time>
      </trkpt>
      <trkpt lat="43.533379" lon="-8.196103">
        <ele>33.046</ele>
        <time>2019-06-20T16:31:54Z</time>
      </trkpt>
      <trkpt lat="43.533409" lon="-8.196164">
        <ele>32.927</ele>
        <time>2019-06-20T16:31:56Z</time>
      </trkpt>
      <trkpt lat="43.533463" lon="-8.196118">
        <ele>33.073</ele>
        <time>2019-06-20T16:32:11Z</time>
      </trkpt>
      <trkpt lat="43.533397" lon="-8.196083">
        <ele>33.180</ele>
        <time>2019-06-20T16:33:25Z</time>
      </trkpt>
      <trkpt lat="43.533340" lon="-8.196031">
        <ele>33.351</ele>
        <time>2019-06-20T16:33:27Z</time>
      </trkpt>
      <trkpt lat="43.533343" lon="-8.195954">
        <ele>33.573</ele>
        <time>2019-06-20T16:33:31Z</time>
      </trkpt>
      <trkpt lat="43.533379" lon="-8.195914">
        <ele>33.660</ele>
        <time>2019-06-20T16:33:33Z</time>
      </trkpt>
      <trkpt lat="43.533428" lon="-8.195878">
        <ele>33.618</ele>
        <time>2019-06-20T16:33:36Z</time>
      </trkpt>
      <trkpt lat="43.533447" lon="-8.195816">
        <ele>33.698</ele>
        <time>2019-06-20T16:33:41Z</time>
      </trkpt>
      <trkpt lat="43.533502" lon="-8.195848">
        <ele>33.417</ele>
        <time>2019-06-20T16:33:44Z</time>
      </trkpt>
      <trkpt lat="43.533530" lon="-8.195908">
        <ele>33.208</ele>
        <time>2019-06-20T16:33:46Z</time>
      </trkpt>
      <trkpt lat="43.533739" lon="-8.196061">
        <ele>33.074</ele>
        <time>2019-06-20T16:59:25Z</time>
      </trkpt>
      <trkpt lat="43.533761" lon="-8.196160">
        <ele>33.158</ele>
        <time>2019-06-20T17:01:27Z</time>
      </trkpt>
      <trkpt lat="43.533778" lon="-8.196260">
        <ele>33.329</ele>
        <time>2019-06-20T17:01:29Z</time>
      </trkpt>
      <trkpt lat="43.533802" lon="-8.196323">
        <ele>33.535</ele>
        <time>2019-06-20T17:01:31Z</time>
      </trkpt>
      <trkpt lat="43.533857" lon="-8.196325">
        <ele>33.712</ele>
        <time>2019-06-20T17:01:34Z</time>
      </trkpt>
      <trkpt lat="43.533914" lon="-8.196305">
        <ele>33.883</ele>
        <time>2019-06-20T17:01:49Z</time>
      </trkpt>
      <trkpt lat="43.533945" lon="-8.196356">
        <ele>34.115</ele>
        <time>2019-06-20T17:01:50Z</time>
      </trkpt>
      <trkpt lat="43.533964" lon="-8.196432">
        <ele>34.312</ele>
        <time>2019-06-20T17:01:51Z</time>
      </trkpt>
      <trkpt lat="43.533967" lon="-8.196527">
        <ele>34.384</ele>
        <time>2019-06-20T17:01:52Z</time>
      </trkpt>
      <trkpt lat="43.533958" lon="-8.196617">
        <ele>34.207</ele>
        <time>2019-06-20T17:01:53Z</time>
      </trkpt>
      <trkpt lat="43.533947" lon="-8.196696">
        <ele>34.317</ele>
        <time>2019-06-20T17:01:54Z</time>
      </trkpt>
      <trkpt lat="43.533939" lon="-8.196772">
        <ele>34.608</ele>
        <time>2019-06-20T17:01:55Z</time>
      </trkpt>
      <trkpt lat="43.533931" lon="-8.196841">
        <ele>34.851</ele>
        <time>2019-06-20T17:01:56Z</time>
      </trkpt>
      <trkpt lat="43.533922" lon="-8.196919">
        <ele>35.015</ele>
        <time>2019-06-20T17:01:57Z</time>
      </trkpt>
      <trkpt lat="43.533910" lon="-8.197021">
        <ele>35.136</ele>
        <time>2019-06-20T17:01:58Z</time>
      </trkpt>
      <trkpt lat="43.533895" lon="-8.197137">
        <ele>35.062</ele>
        <time>2019-06-20T17:01:59Z</time>
      </trkpt>
      <trkpt lat="43.533879" lon="-8.197258">
        <ele>35.129</ele>
        <time>2019-06-20T17:02:00Z</time>
      </trkpt>
      <trkpt lat="43.533860" lon="-8.197400">
        <ele>35.620</ele>
        <time>2019-06-20T17:02:01Z</time>
      </trkpt>
      <trkpt lat="43.533839" lon="-8.197509">
        <ele>36.052</ele>
        <time>2019-06-20T17:02:02Z</time>
      </trkpt>
      <trkpt lat="43.533821" lon="-8.197630">
        <ele>36.559</ele>
        <time>2019-06-20T17:02:03Z</time>
      </trkpt>
      <trkpt lat="43.533805" lon="-8.197749">
        <ele>36.976</ele>
        <time>2019-06-20T17:02:04Z</time>
      </trkpt>
      <trkpt lat="43.533785" lon="-8.197865">
        <ele>37.290</ele>
        <time>2019-06-20T17:02:05Z</time>
      </trkpt>
      <trkpt lat="43.533771" lon="-8.198001">
        <ele>37.519</ele>
        <time>2019-06-20T17:02:06Z</time>
      </trkpt>
      <trkpt lat="43.533747" lon="-8.198143">
        <ele>37.308</ele>
        <time>2019-06-20T17:02:07Z</time>
      </trkpt>
      <trkpt lat="43.533720" lon="-8.198289">
        <ele>37.190</ele>
        <time>2019-06-20T17:02:08Z</time>
      </trkpt>
      <trkpt lat="43.533704" lon="-8.198456">
        <ele>37.074</ele>
        <time>2019-06-20T17:02:09Z</time>
      </trkpt>
      <trkpt lat="43.533665" lon="-8.198618">
        <ele>37.045</ele>
        <time>2019-06-20T17:02:10Z</time>
      </trkpt>
      <trkpt lat="43.533633" lon="-8.198775">
        <ele>37.061</ele>
        <time>2019-06-20T17:02:11Z</time>
      </trkpt>
      <trkpt lat="43.533605" lon="-8.198921">
        <ele>37.088</ele>
        <time>2019-06-20T17:02:12Z</time>
      </trkpt>
      <trkpt lat="43.533576" lon="-8.199062">
        <ele>36.989</ele>
        <time>2019-06-20T17:02:13Z</time>
      </trkpt>
      <trkpt lat="43.533556" lon="-8.199198">
        <ele>36.811</ele>
        <time>2019-06-20T17:02:14Z</time>
      </trkpt>
      <trkpt lat="43.533537" lon="-8.199323">
        <ele>36.758</ele>
        <time>2019-06-20T17:02:15Z</time>
      </trkpt>
      <trkpt lat="43.533506" lon="-8.199440">
        <ele>36.694</ele>
        <time>2019-06-20T17:02:16Z</time>
      </trkpt>
      <trkpt lat="43.533460" lon="-8.199533">
        <ele>36.557</ele>
        <time>2019-06-20T17:02:17Z</time>
      </trkpt>
      <trkpt lat="43.533407" lon="-8.199610">
        <ele>36.322</ele>
        <time>2019-06-20T17:02:18Z</time>
      </trkpt>
      <trkpt lat="43.533336" lon="-8.199674">
        <ele>36.008</ele>
        <time>2019-06-20T17:02:19Z</time>
      </trkpt>
      <trkpt lat="43.533261" lon="-8.199710">
        <ele>35.712</ele>
        <time>2019-06-20T17:02:20Z</time>
      </trkpt>
      <trkpt lat="43.533160" lon="-8.199656">
        <ele>35.446</ele>
        <time>2019-06-20T17:02:21Z</time>
      </trkpt>
      <trkpt lat="43.533053" lon="-8.199612">
        <ele>35.067</ele>
        <time>2019-06-20T17:02:22Z</time>
      </trkpt>
      <trkpt lat="43.532937" lon="-8.199574">
        <ele>35.423</ele>
        <time>2019-06-20T17:02:23Z</time>
      </trkpt>
      <trkpt lat="43.532825" lon="-8.199522">
        <ele>35.890</ele>
        <time>2019-06-20T17:02:24Z</time>
      </trkpt>
      <trkpt lat="43.532723" lon="-8.199486">
        <ele>35.841</ele>
        <time>2019-06-20T17:02:25Z</time>
      </trkpt>
      <trkpt lat="43.532625" lon="-8.199447">
        <ele>35.523</ele>
        <time>2019-06-20T17:02:26Z</time>
      </trkpt>
      <trkpt lat="43.532527" lon="-8.199410">
        <ele>35.020</ele>
        <time>2019-06-20T17:02:27Z</time>
      </trkpt>
      <trkpt lat="43.532432" lon="-8.199381">
        <ele>34.359</ele>
        <time>2019-06-20T17:02:28Z</time>
      </trkpt>
      <trkpt lat="43.532359" lon="-8.199357">
        <ele>33.803</ele>
        <time>2019-06-20T17:02:29Z</time>
      </trkpt>
      <trkpt lat="43.532303" lon="-8.199339">
        <ele>33.523</ele>
        <time>2019-06-20T17:02:30Z</time>
      </trkpt>
      <trkpt lat="43.532237" lon="-8.199302">
        <ele>33.108</ele>
        <time>2019-06-20T17:02:32Z</time>
      </trkpt>
      <trkpt lat="43.532181" lon="-8.199243">
        <ele>32.788</ele>
        <time>2019-06-20T17:02:34Z</time>
      </trkpt>
      <trkpt lat="43.532168" lon="-8.199176">
        <ele>32.652</ele>
        <time>2019-06-20T17:02:35Z</time>
      </trkpt>
      <trkpt lat="43.532172" lon="-8.199097">
        <ele>32.463</ele>
        <time>2019-06-20T17:02:36Z</time>
      </trkpt>
      <trkpt lat="43.532184" lon="-8.198988">
        <ele>32.239</ele>
        <time>2019-06-20T17:02:37Z</time>
      </trkpt>
      <trkpt lat="43.532205" lon="-8.198875">
        <ele>31.916</ele>
        <time>2019-06-20T17:02:38Z</time>
      </trkpt>
      <trkpt lat="43.532227" lon="-8.198750">
        <ele>32.067</ele>
        <time>2019-06-20T17:02:39Z</time>
      </trkpt>
      <trkpt lat="43.532250" lon="-8.198611">
        <ele>32.199</ele>
        <time>2019-06-20T17:02:40Z</time>
      </trkpt>
      <trkpt lat="43.532280" lon="-8.198462">
        <ele>32.276</ele>
        <time>2019-06-20T17:02:41Z</time>
      </trkpt>
      <trkpt lat="43.532305" lon="-8.198319">
        <ele>32.387</ele>
        <time>2019-06-20T17:02:42Z</time>
      </trkpt>
      <trkpt lat="43.532326" lon="-8.198181">
        <ele>32.642</ele>
        <time>2019-06-20T17:02:43Z</time>
      </trkpt>
      <trkpt lat="43.532351" lon="-8.198047">
        <ele>32.926</ele>
        <time>2019-06-20T17:02:44Z</time>
      </trkpt>
      <trkpt lat="43.532380" lon="-8.197909">
        <ele>32.808</ele>
        <time>2019-06-20T17:02:45Z</time>
      </trkpt>
      <trkpt lat="43.532400" lon="-8.197768">
        <ele>32.621</ele>
        <time>2019-06-20T17:02:46Z</time>
      </trkpt>
      <trkpt lat="43.532423" lon="-8.197624">
        <ele>32.745</ele>
        <time>2019-06-20T17:02:47Z</time>
      </trkpt>
      <trkpt lat="43.532436" lon="-8.197483">
        <ele>32.776</ele>
        <time>2019-06-20T17:02:48Z</time>
      </trkpt>
      <trkpt lat="43.532450" lon="-8.197341">
        <ele>31.892</ele>
        <time>2019-06-20T17:02:49Z</time>
      </trkpt>
      <trkpt lat="43.532464" lon="-8.197206">
        <ele>31.049</ele>
        <time>2019-06-20T17:02:50Z</time>
      </trkpt>
      <trkpt lat="43.532477" lon="-8.197082">
        <ele>31.020</ele>
        <time>2019-06-20T17:02:51Z</time>
      </trkpt>
      <trkpt lat="43.532491" lon="-8.196967">
        <ele>31.012</ele>
        <time>2019-06-20T17:02:52Z</time>
      </trkpt>
      <trkpt lat="43.532503" lon="-8.196858">
        <ele>31.099</ele>
        <time>2019-06-20T17:02:53Z</time>
      </trkpt>
      <trkpt lat="43.532508" lon="-8.196759">
        <ele>31.036</ele>
        <time>2019-06-20T17:02:54Z</time>
      </trkpt>
      <trkpt lat="43.532515" lon="-8.196663">
        <ele>31.017</ele>
        <time>2019-06-20T17:02:55Z</time>
      </trkpt>
      <trkpt lat="43.532526" lon="-8.196566">
        <ele>30.718</ele>
        <time>2019-06-20T17:02:56Z</time>
      </trkpt>
      <trkpt lat="43.532535" lon="-8.196470">
        <ele>30.408</ele>
        <time>2019-06-20T17:02:57Z</time>
      </trkpt>
      <trkpt lat="43.532546" lon="-8.196379">
        <ele>30.266</ele>
        <time>2019-06-20T17:02:58Z</time>
      </trkpt>
      <trkpt lat="43.532546" lon="-8.196295">
        <ele>30.280</ele>
        <time>2019-06-20T17:02:59Z</time>
      </trkpt>
      <trkpt lat="43.532542" lon="-8.196213">
        <ele>30.211</ele>
        <time>2019-06-20T17:03:00Z</time>
      </trkpt>
      <trkpt lat="43.532540" lon="-8.196151">
        <ele>30.367</ele>
        <time>2019-06-20T17:03:01Z</time>
      </trkpt>
      <trkpt lat="43.532534" lon="-8.196089">
        <ele>30.394</ele>
        <time>2019-06-20T17:03:04Z</time>
      </trkpt>
      <trkpt lat="43.532500" lon="-8.195989">
        <ele>30.465</ele>
        <time>2019-06-20T17:03:11Z</time>
      </trkpt>
      <trkpt lat="43.532469" lon="-8.195931">
        <ele>30.537</ele>
        <time>2019-06-20T17:03:12Z</time>
      </trkpt>
      <trkpt lat="43.532456" lon="-8.195848">
        <ele>30.824</ele>
        <time>2019-06-20T17:03:13Z</time>
      </trkpt>
      <trkpt lat="43.532468" lon="-8.195769">
        <ele>30.911</ele>
        <time>2019-06-20T17:03:14Z</time>
      </trkpt>
      <trkpt lat="43.532491" lon="-8.195674">
        <ele>31.021</ele>
        <time>2019-06-20T17:03:15Z</time>
      </trkpt>
      <trkpt lat="43.532532" lon="-8.195567">
        <ele>30.903</ele>
        <time>2019-06-20T17:03:16Z</time>
      </trkpt>
      <trkpt lat="43.532556" lon="-8.195444">
        <ele>30.508</ele>
        <time>2019-06-20T17:03:17Z</time>
      </trkpt>
      <trkpt lat="43.532566" lon="-8.195316">
        <ele>30.134</ele>
        <time>2019-06-20T17:03:18Z</time>
      </trkpt>
      <trkpt lat="43.532568" lon="-8.195160">
        <ele>29.748</ele>
        <time>2019-06-20T17:03:19Z</time>
      </trkpt>
      <trkpt lat="43.532570" lon="-8.194993">
        <ele>29.319</ele>
        <time>2019-06-20T17:03:20Z</time>
      </trkpt>
      <trkpt lat="43.532572" lon="-8.194815">
        <ele>29.335</ele>
        <time>2019-06-20T17:03:21Z</time>
      </trkpt>
      <trkpt lat="43.532574" lon="-8.194627">
        <ele>29.622</ele>
        <time>2019-06-20T17:03:22Z</time>
      </trkpt>
      <trkpt lat="43.532575" lon="-8.194452">
        <ele>30.233</ele>
        <time>2019-06-20T17:03:23Z</time>
      </trkpt>
      <trkpt lat="43.532574" lon="-8.194287">
        <ele>30.785</ele>
        <time>2019-06-20T17:03:24Z</time>
      </trkpt>
      <trkpt lat="43.532577" lon="-8.194126">
        <ele>31.042</ele>
        <time>2019-06-20T17:03:25Z</time>
      </trkpt>
      <trkpt lat="43.532577" lon="-8.193961">
        <ele>31.044</ele>
        <time>2019-06-20T17:03:26Z</time>
      </trkpt>
      <trkpt lat="43.532574" lon="-8.193795">
        <ele>30.705</ele>
        <time>2019-06-20T17:03:27Z</time>
      </trkpt>
      <trkpt lat="43.532573" lon="-8.193621">
        <ele>30.015</ele>
        <time>2019-06-20T17:03:28Z</time>
      </trkpt>
      <trkpt lat="43.532575" lon="-8.193447">
        <ele>30.008</ele>
        <time>2019-06-20T17:03:29Z</time>
      </trkpt>
      <trkpt lat="43.532576" lon="-8.193285">
        <ele>30.027</ele>
        <time>2019-06-20T17:03:30Z</time>
      </trkpt>
      <trkpt lat="43.532583" lon="-8.193116">
        <ele>30.081</ele>
        <time>2019-06-20T17:03:31Z</time>
      </trkpt>
      <trkpt lat="43.532591" lon="-8.192956">
        <ele>30.252</ele>
        <time>2019-06-20T17:03:32Z</time>
      </trkpt>
      <trkpt lat="43.532604" lon="-8.192814">
        <ele>30.538</ele>
        <time>2019-06-20T17:03:33Z</time>
      </trkpt>
      <trkpt lat="43.532629" lon="-8.192655">
        <ele>30.715</ele>
        <time>2019-06-20T17:03:34Z</time>
      </trkpt>
      <trkpt lat="43.532658" lon="-8.192505">
        <ele>31.026</ele>
        <time>2019-06-20T17:03:35Z</time>
      </trkpt>
      <trkpt lat="43.532712" lon="-8.192371">
        <ele>31.588</ele>
        <time>2019-06-20T17:03:36Z</time>
      </trkpt>
      <trkpt lat="43.532773" lon="-8.192231">
        <ele>32.065</ele>
        <time>2019-06-20T17:03:37Z</time>
      </trkpt>
      <trkpt lat="43.532845" lon="-8.192101">
        <ele>32.755</ele>
        <time>2019-06-20T17:03:38Z</time>
      </trkpt>
      <trkpt lat="43.532917" lon="-8.191972">
        <ele>33.407</ele>
        <time>2019-06-20T17:03:39Z</time>
      </trkpt>
      <trkpt lat="43.533005" lon="-8.191833">
        <ele>33.817</ele>
        <time>2019-06-20T17:03:40Z</time>
      </trkpt>
      <trkpt lat="43.533100" lon="-8.191690">
        <ele>34.308</ele>
        <time>2019-06-20T17:03:41Z</time>
      </trkpt>
      <trkpt lat="43.533202" lon="-8.191551">
        <ele>35.558</ele>
        <time>2019-06-20T17:03:42Z</time>
      </trkpt>
      <trkpt lat="43.533299" lon="-8.191400">
        <ele>36.732</ele>
        <time>2019-06-20T17:03:43Z</time>
      </trkpt>
      <trkpt lat="43.533410" lon="-8.191230">
        <ele>38.183</ele>
        <time>2019-06-20T17:03:44Z</time>
      </trkpt>
      <trkpt lat="43.533516" lon="-8.191059">
        <ele>39.429</ele>
        <time>2019-06-20T17:03:45Z</time>
      </trkpt>
      <trkpt lat="43.533633" lon="-8.190894">
        <ele>40.076</ele>
        <time>2019-06-20T17:03:46Z</time>
      </trkpt>
      <trkpt lat="43.533756" lon="-8.190708">
        <ele>40.267</ele>
        <time>2019-06-20T17:03:47Z</time>
      </trkpt>
      <trkpt lat="43.533881" lon="-8.190525">
        <ele>40.019</ele>
        <time>2019-06-20T17:03:48Z</time>
      </trkpt>
      <trkpt lat="43.533998" lon="-8.190339">
        <ele>40.076</ele>
        <time>2019-06-20T17:03:49Z</time>
      </trkpt>
      <trkpt lat="43.534118" lon="-8.190148">
        <ele>40.421</ele>
        <time>2019-06-20T17:03:50Z</time>
      </trkpt>
      <trkpt lat="43.534239" lon="-8.189965">
        <ele>41.141</ele>
        <time>2019-06-20T17:03:51Z</time>
      </trkpt>
      <trkpt lat="43.534358" lon="-8.189792">
        <ele>41.705</ele>
        <time>2019-06-20T17:03:52Z</time>
      </trkpt>
      <trkpt lat="43.534488" lon="-8.189606">
        <ele>42.308</ele>
        <time>2019-06-20T17:03:53Z</time>
      </trkpt>
      <trkpt lat="43.534579" lon="-8.189477">
        <ele>42.495</ele>
        <time>2019-06-20T17:03:54Z</time>
      </trkpt>
      <trkpt lat="43.534665" lon="-8.189362">
        <ele>42.089</ele>
        <time>2019-06-20T17:03:55Z</time>
      </trkpt>
      <trkpt lat="43.534724" lon="-8.189272">
        <ele>41.430</ele>
        <time>2019-06-20T17:03:56Z</time>
      </trkpt>
      <trkpt lat="43.534769" lon="-8.189202">
        <ele>41.126</ele>
        <time>2019-06-20T17:03:57Z</time>
      </trkpt>
      <trkpt lat="43.534824" lon="-8.189104">
        <ele>41.153</ele>
        <time>2019-06-20T17:03:59Z</time>
      </trkpt>
      <trkpt lat="43.534855" lon="-8.189040">
        <ele>41.264</ele>
        <time>2019-06-20T17:04:00Z</time>
      </trkpt>
      <trkpt lat="43.534894" lon="-8.188960">
        <ele>41.516</ele>
        <time>2019-06-20T17:04:01Z</time>
      </trkpt>
      <trkpt lat="43.534950" lon="-8.188862">
        <ele>41.913</ele>
        <time>2019-06-20T17:04:02Z</time>
      </trkpt>
      <trkpt lat="43.535018" lon="-8.188756">
        <ele>42.577</ele>
        <time>2019-06-20T17:04:03Z</time>
      </trkpt>
      <trkpt lat="43.535098" lon="-8.188645">
        <ele>43.261</ele>
        <time>2019-06-20T17:04:04Z</time>
      </trkpt>
      <trkpt lat="43.535198" lon="-8.188518">
        <ele>43.727</ele>
        <time>2019-06-20T17:04:05Z</time>
      </trkpt>
      <trkpt lat="43.535298" lon="-8.188363">
        <ele>44.008</ele>
        <time>2019-06-20T17:04:06Z</time>
      </trkpt>
      <trkpt lat="43.535401" lon="-8.188208">
        <ele>43.790</ele>
        <time>2019-06-20T17:04:07Z</time>
      </trkpt>
      <trkpt lat="43.535505" lon="-8.188060">
        <ele>43.814</ele>
        <time>2019-06-20T17:04:08Z</time>
      </trkpt>
      <trkpt lat="43.535605" lon="-8.187907">
        <ele>43.585</ele>
        <time>2019-06-20T17:04:09Z</time>
      </trkpt>
      <trkpt lat="43.535690" lon="-8.187766">
        <ele>43.531</ele>
        <time>2019-06-20T17:04:10Z</time>
      </trkpt>
      <trkpt lat="43.535770" lon="-8.187625">
        <ele>43.918</ele>
        <time>2019-06-20T17:04:11Z</time>
      </trkpt>
      <trkpt lat="43.535849" lon="-8.187483">
        <ele>44.229</ele>
        <time>2019-06-20T17:04:12Z</time>
      </trkpt>
      <trkpt lat="43.535924" lon="-8.187346">
        <ele>45.091</ele>
        <time>2019-06-20T17:04:13Z</time>
      </trkpt>
      <trkpt lat="43.535996" lon="-8.187194">
        <ele>45.548</ele>
        <time>2019-06-20T17:04:14Z</time>
      </trkpt>
      <trkpt lat="43.536044" lon="-8.187017">
        <ele>45.216</ele>
        <time>2019-06-20T17:04:15Z</time>
      </trkpt>
      <trkpt lat="43.536108" lon="-8.186848">
        <ele>45.376</ele>
        <time>2019-06-20T17:04:16Z</time>
      </trkpt>
      <trkpt lat="43.536157" lon="-8.186670">
        <ele>46.213</ele>
        <time>2019-06-20T17:04:17Z</time>
      </trkpt>
      <trkpt lat="43.536211" lon="-8.186465">
        <ele>45.908</ele>
        <time>2019-06-20T17:04:18Z</time>
      </trkpt>
      <trkpt lat="43.536258" lon="-8.186263">
        <ele>46.364</ele>
        <time>2019-06-20T17:04:19Z</time>
      </trkpt>
      <trkpt lat="43.536306" lon="-8.186057">
        <ele>46.788</ele>
        <time>2019-06-20T17:04:20Z</time>
      </trkpt>
      <trkpt lat="43.536354" lon="-8.185855">
        <ele>46.999</ele>
        <time>2019-06-20T17:04:21Z</time>
      </trkpt>
      <trkpt lat="43.536396" lon="-8.185649">
        <ele>46.435</ele>
        <time>2019-06-20T17:04:22Z</time>
      </trkpt>
      <trkpt lat="43.536449" lon="-8.185430">
        <ele>46.662</ele>
        <time>2019-06-20T17:04:23Z</time>
      </trkpt>
      <trkpt lat="43.536498" lon="-8.185203">
        <ele>46.413</ele>
        <time>2019-06-20T17:04:24Z</time>
      </trkpt>
      <trkpt lat="43.536546" lon="-8.184978">
        <ele>45.525</ele>
        <time>2019-06-20T17:04:25Z</time>
      </trkpt>
      <trkpt lat="43.536598" lon="-8.184745">
        <ele>44.612</ele>
        <time>2019-06-20T17:04:26Z</time>
      </trkpt>
      <trkpt lat="43.536652" lon="-8.184490">
        <ele>44.193</ele>
        <time>2019-06-20T17:04:27Z</time>
      </trkpt>
      <trkpt lat="43.536724" lon="-8.184220">
        <ele>44.265</ele>
        <time>2019-06-20T17:04:28Z</time>
      </trkpt>
      <trkpt lat="43.536786" lon="-8.183947">
        <ele>44.421</ele>
        <time>2019-06-20T17:04:29Z</time>
      </trkpt>
      <trkpt lat="43.536843" lon="-8.183662">
        <ele>44.108</ele>
        <time>2019-06-20T17:04:30Z</time>
      </trkpt>
      <trkpt lat="43.536894" lon="-8.183364">
        <ele>43.872</ele>
        <time>2019-06-20T17:04:31Z</time>
      </trkpt>
      <trkpt lat="43.536953" lon="-8.183057">
        <ele>43.086</ele>
        <time>2019-06-20T17:04:32Z</time>
      </trkpt>
      <trkpt lat="43.537012" lon="-8.182753">
        <ele>41.417</ele>
        <time>2019-06-20T17:04:33Z</time>
      </trkpt>
      <trkpt lat="43.537060" lon="-8.182470">
        <ele>40.553</ele>
        <time>2019-06-20T17:04:34Z</time>
      </trkpt>
      <trkpt lat="43.537100" lon="-8.182201">
        <ele>41.380</ele>
        <time>2019-06-20T17:04:35Z</time>
      </trkpt>
      <trkpt lat="43.537132" lon="-8.181955">
        <ele>43.921</ele>
        <time>2019-06-20T17:04:36Z</time>
      </trkpt>
      <trkpt lat="43.537167" lon="-8.181723">
        <ele>47.093</ele>
        <time>2019-06-20T17:04:37Z</time>
      </trkpt>
      <trkpt lat="43.537179" lon="-8.181528">
        <ele>49.440</ele>
        <time>2019-06-20T17:04:38Z</time>
      </trkpt>
      <trkpt lat="43.537179" lon="-8.181365">
        <ele>51.241</ele>
        <time>2019-06-20T17:04:39Z</time>
      </trkpt>
      <trkpt lat="43.537169" lon="-8.181237">
        <ele>52.281</ele>
        <time>2019-06-20T17:04:40Z</time>
      </trkpt>
      <trkpt lat="43.537158" lon="-8.181136">
        <ele>53.009</ele>
        <time>2019-06-20T17:04:41Z</time>
      </trkpt>
      <trkpt lat="43.537139" lon="-8.181050">
        <ele>53.508</ele>
        <time>2019-06-20T17:04:43Z</time>
      </trkpt>
      <trkpt lat="43.537128" lon="-8.180963">
        <ele>53.947</ele>
        <time>2019-06-20T17:04:46Z</time>
      </trkpt>
      <trkpt lat="43.537118" lon="-8.180900">
        <ele>54.161</ele>
        <time>2019-06-20T17:04:47Z</time>
      </trkpt>
      <trkpt lat="43.537116" lon="-8.180814">
        <ele>54.532</ele>
        <time>2019-06-20T17:04:48Z</time>
      </trkpt>
      <trkpt lat="43.537119" lon="-8.180724">
        <ele>55.038</ele>
        <time>2019-06-20T17:04:49Z</time>
      </trkpt>
      <trkpt lat="43.537136" lon="-8.180631">
        <ele>55.535</ele>
        <time>2019-06-20T17:04:50Z</time>
      </trkpt>
      <trkpt lat="43.537169" lon="-8.180476">
        <ele>56.516</ele>
        <time>2019-06-20T17:04:51Z</time>
      </trkpt>
      <trkpt lat="43.537180" lon="-8.180333">
        <ele>57.598</ele>
        <time>2019-06-20T17:04:52Z</time>
      </trkpt>
      <trkpt lat="43.537180" lon="-8.180160">
        <ele>58.325</ele>
        <time>2019-06-20T17:04:53Z</time>
      </trkpt>
      <trkpt lat="43.537178" lon="-8.179976">
        <ele>59.254</ele>
        <time>2019-06-20T17:04:54Z</time>
      </trkpt>
      <trkpt lat="43.537176" lon="-8.179767">
        <ele>61.456</ele>
        <time>2019-06-20T17:04:55Z</time>
      </trkpt>
      <trkpt lat="43.537177" lon="-8.179555">
        <ele>62.411</ele>
        <time>2019-06-20T17:04:56Z</time>
      </trkpt>
      <trkpt lat="43.537179" lon="-8.179329">
        <ele>63.308</ele>
        <time>2019-06-20T17:04:57Z</time>
      </trkpt>
      <trkpt lat="43.537175" lon="-8.179103">
        <ele>64.368</ele>
        <time>2019-06-20T17:04:58Z</time>
      </trkpt>
      <trkpt lat="43.537170" lon="-8.178863">
        <ele>66.212</ele>
        <time>2019-06-20T17:04:59Z</time>
      </trkpt>
      <trkpt lat="43.537160" lon="-8.178622">
        <ele>67.973</ele>
        <time>2019-06-20T17:05:00Z</time>
      </trkpt>
      <trkpt lat="43.537146" lon="-8.178378">
        <ele>68.829</ele>
        <time>2019-06-20T17:05:01Z</time>
      </trkpt>
      <trkpt lat="43.537138" lon="-8.178128">
        <ele>69.786</ele>
        <time>2019-06-20T17:05:02Z</time>
      </trkpt>
      <trkpt lat="43.537134" lon="-8.177879">
        <ele>70.417</ele>
        <time>2019-06-20T17:05:03Z</time>
      </trkpt>
      <trkpt lat="43.537137" lon="-8.177632">
        <ele>71.159</ele>
        <time>2019-06-20T17:05:04Z</time>
      </trkpt>
      <trkpt lat="43.537136" lon="-8.177380">
        <ele>71.486</ele>
        <time>2019-06-20T17:05:05Z</time>
      </trkpt>
      <trkpt lat="43.537134" lon="-8.177130">
        <ele>71.451</ele>
        <time>2019-06-20T17:05:06Z</time>
      </trkpt>
      <trkpt lat="43.537130" lon="-8.176883">
        <ele>71.601</ele>
        <time>2019-06-20T17:05:07Z</time>
      </trkpt>
      <trkpt lat="43.537129" lon="-8.176659">
        <ele>72.411</ele>
        <time>2019-06-20T17:05:08Z</time>
      </trkpt>
      <trkpt lat="43.537125" lon="-8.176452">
        <ele>74.108</ele>
        <time>2019-06-20T17:05:09Z</time>
      </trkpt>
      <trkpt lat="43.537120" lon="-8.176250">
        <ele>75.128</ele>
        <time>2019-06-20T17:05:10Z</time>
      </trkpt>
      <trkpt lat="43.537107" lon="-8.176059">
        <ele>75.872</ele>
        <time>2019-06-20T17:05:11Z</time>
      </trkpt>
      <trkpt lat="43.537083" lon="-8.175866">
        <ele>76.493</ele>
        <time>2019-06-20T17:05:12Z</time>
      </trkpt>
      <trkpt lat="43.537046" lon="-8.175671">
        <ele>75.729</ele>
        <time>2019-06-20T17:05:13Z</time>
      </trkpt>
      <trkpt lat="43.536987" lon="-8.175490">
        <ele>74.926</ele>
        <time>2019-06-20T17:05:14Z</time>
      </trkpt>
      <trkpt lat="43.536914" lon="-8.175314">
        <ele>74.077</ele>
        <time>2019-06-20T17:05:15Z</time>
      </trkpt>
      <trkpt lat="43.536777" lon="-8.175168">
        <ele>73.289</ele>
        <time>2019-06-20T17:05:16Z</time>
      </trkpt>
      <trkpt lat="43.536641" lon="-8.175013">
        <ele>73.126</ele>
        <time>2019-06-20T17:05:17Z</time>
      </trkpt>
      <trkpt lat="43.536496" lon="-8.174837">
        <ele>73.895</ele>
        <time>2019-06-20T17:05:18Z</time>
      </trkpt>
      <trkpt lat="43.536353" lon="-8.174648">
        <ele>73.649</ele>
        <time>2019-06-20T17:05:19Z</time>
      </trkpt>
      <trkpt lat="43.536204" lon="-8.174450">
        <ele>73.023</ele>
        <time>2019-06-20T17:05:20Z</time>
      </trkpt>
      <trkpt lat="43.536038" lon="-8.174239">
        <ele>71.508</ele>
        <time>2019-06-20T17:05:21Z</time>
      </trkpt>
      <trkpt lat="43.535883" lon="-8.174034">
        <ele>70.172</ele>
        <time>2019-06-20T17:05:22Z</time>
      </trkpt>
      <trkpt lat="43.535729" lon="-8.173838">
        <ele>68.936</ele>
        <time>2019-06-20T17:05:23Z</time>
      </trkpt>
      <trkpt lat="43.535585" lon="-8.173661">
        <ele>67.537</ele>
        <time>2019-06-20T17:05:24Z</time>
      </trkpt>
      <trkpt lat="43.535442" lon="-8.173473">
        <ele>65.763</ele>
        <time>2019-06-20T17:05:25Z</time>
      </trkpt>
      <trkpt lat="43.535311" lon="-8.173304">
        <ele>64.710</ele>
        <time>2019-06-20T17:05:26Z</time>
      </trkpt>
      <trkpt lat="43.535176" lon="-8.173118">
        <ele>64.161</ele>
        <time>2019-06-20T17:05:27Z</time>
      </trkpt>
      <trkpt lat="43.535042" lon="-8.172946">
        <ele>63.613</ele>
        <time>2019-06-20T17:05:28Z</time>
      </trkpt>
      <trkpt lat="43.534941" lon="-8.172779">
        <ele>61.880</ele>
        <time>2019-06-20T17:05:29Z</time>
      </trkpt>
      <trkpt lat="43.534848" lon="-8.172583">
        <ele>59.312</ele>
        <time>2019-06-20T17:05:30Z</time>
      </trkpt>
      <trkpt lat="43.534747" lon="-8.172379">
        <ele>57.232</ele>
        <time>2019-06-20T17:05:31Z</time>
      </trkpt>
      <trkpt lat="43.534636" lon="-8.172175">
        <ele>56.005</ele>
        <time>2019-06-20T17:05:32Z</time>
      </trkpt>
      <trkpt lat="43.534522" lon="-8.171974">
        <ele>55.608</ele>
        <time>2019-06-20T17:05:33Z</time>
      </trkpt>
      <trkpt lat="43.534401" lon="-8.171768">
        <ele>54.794</ele>
        <time>2019-06-20T17:05:34Z</time>
      </trkpt>
      <trkpt lat="43.534279" lon="-8.171587">
        <ele>53.538</ele>
        <time>2019-06-20T17:05:35Z</time>
      </trkpt>
      <trkpt lat="43.534163" lon="-8.171394">
        <ele>52.049</ele>
        <time>2019-06-20T17:05:36Z</time>
      </trkpt>
      <trkpt lat="43.534044" lon="-8.171219">
        <ele>49.365</ele>
        <time>2019-06-20T17:05:37Z</time>
      </trkpt>
      <trkpt lat="43.533913" lon="-8.171039">
        <ele>46.942</ele>
        <time>2019-06-20T17:05:38Z</time>
      </trkpt>
      <trkpt lat="43.533790" lon="-8.170868">
        <ele>46.173</ele>
        <time>2019-06-20T17:05:39Z</time>
      </trkpt>
      <trkpt lat="43.533674" lon="-8.170678">
        <ele>45.495</ele>
        <time>2019-06-20T17:05:40Z</time>
      </trkpt>
      <trkpt lat="43.533571" lon="-8.170527">
        <ele>44.852</ele>
        <time>2019-06-20T17:05:41Z</time>
      </trkpt>
      <trkpt lat="43.533459" lon="-8.170348">
        <ele>42.796</ele>
        <time>2019-06-20T17:05:42Z</time>
      </trkpt>
      <trkpt lat="43.533371" lon="-8.170171">
        <ele>40.531</ele>
        <time>2019-06-20T17:05:43Z</time>
      </trkpt>
      <trkpt lat="43.533291" lon="-8.169984">
        <ele>38.924</ele>
        <time>2019-06-20T17:05:44Z</time>
      </trkpt>
      <trkpt lat="43.533203" lon="-8.169788">
        <ele>37.908</ele>
        <time>2019-06-20T17:05:45Z</time>
      </trkpt>
      <trkpt lat="43.533108" lon="-8.169588">
        <ele>36.742</ele>
        <time>2019-06-20T17:05:46Z</time>
      </trkpt>
      <trkpt lat="43.533011" lon="-8.169410">
        <ele>36.046</ele>
        <time>2019-06-20T17:05:47Z</time>
      </trkpt>
      <trkpt lat="43.532890" lon="-8.169218">
        <ele>36.097</ele>
        <time>2019-06-20T17:05:48Z</time>
      </trkpt>
      <trkpt lat="43.532754" lon="-8.169049">
        <ele>35.673</ele>
        <time>2019-06-20T17:05:49Z</time>
      </trkpt>
      <trkpt lat="43.532608" lon="-8.168837">
        <ele>34.940</ele>
        <time>2019-06-20T17:05:50Z</time>
      </trkpt>
      <trkpt lat="43.532461" lon="-8.168661">
        <ele>34.521</ele>
        <time>2019-06-20T17:05:51Z</time>
      </trkpt>
      <trkpt lat="43.532315" lon="-8.168490">
        <ele>34.883</ele>
        <time>2019-06-20T17:05:52Z</time>
      </trkpt>
      <trkpt lat="43.532160" lon="-8.168309">
        <ele>33.870</ele>
        <time>2019-06-20T17:05:53Z</time>
      </trkpt>
      <trkpt lat="43.532019" lon="-8.168139">
        <ele>32.645</ele>
        <time>2019-06-20T17:05:54Z</time>
      </trkpt>
      <trkpt lat="43.531886" lon="-8.167967">
        <ele>31.947</ele>
        <time>2019-06-20T17:05:55Z</time>
      </trkpt>
      <trkpt lat="43.531757" lon="-8.167794">
        <ele>31.711</ele>
        <time>2019-06-20T17:05:56Z</time>
      </trkpt>
      <trkpt lat="43.531643" lon="-8.167613">
        <ele>30.808</ele>
        <time>2019-06-20T17:05:57Z</time>
      </trkpt>
      <trkpt lat="43.531533" lon="-8.167448">
        <ele>29.667</ele>
        <time>2019-06-20T17:05:58Z</time>
      </trkpt>
      <trkpt lat="43.531426" lon="-8.167282">
        <ele>28.441</ele>
        <time>2019-06-20T17:05:59Z</time>
      </trkpt>
      <trkpt lat="43.531324" lon="-8.167118">
        <ele>26.642</ele>
        <time>2019-06-20T17:06:00Z</time>
      </trkpt>
      <trkpt lat="43.531225" lon="-8.166972">
        <ele>25.268</ele>
        <time>2019-06-20T17:06:01Z</time>
      </trkpt>
      <trkpt lat="43.531107" lon="-8.166880">
        <ele>24.845</ele>
        <time>2019-06-20T17:06:02Z</time>
      </trkpt>
      <trkpt lat="43.530982" lon="-8.166794">
        <ele>24.246</ele>
        <time>2019-06-20T17:06:03Z</time>
      </trkpt>
      <trkpt lat="43.530869" lon="-8.166718">
        <ele>24.038</ele>
        <time>2019-06-20T17:06:04Z</time>
      </trkpt>
      <trkpt lat="43.530754" lon="-8.166662">
        <ele>23.775</ele>
        <time>2019-06-20T17:06:05Z</time>
      </trkpt>
      <trkpt lat="43.530634" lon="-8.166642">
        <ele>23.346</ele>
        <time>2019-06-20T17:06:06Z</time>
      </trkpt>
      <trkpt lat="43.530503" lon="-8.166644">
        <ele>23.088</ele>
        <time>2019-06-20T17:06:07Z</time>
      </trkpt>
      <trkpt lat="43.530369" lon="-8.166641">
        <ele>22.916</ele>
        <time>2019-06-20T17:06:08Z</time>
      </trkpt>
      <trkpt lat="43.530248" lon="-8.166605">
        <ele>22.708</ele>
        <time>2019-06-20T17:06:09Z</time>
      </trkpt>
      <trkpt lat="43.530118" lon="-8.166497">
        <ele>22.577</ele>
        <time>2019-06-20T17:06:10Z</time>
      </trkpt>
      <trkpt lat="43.529997" lon="-8.166395">
        <ele>23.081</ele>
        <time>2019-06-20T17:06:11Z</time>
      </trkpt>
      <trkpt lat="43.529869" lon="-8.166272">
        <ele>22.582</ele>
        <time>2019-06-20T17:06:12Z</time>
      </trkpt>
      <trkpt lat="43.529747" lon="-8.166134">
        <ele>22.148</ele>
        <time>2019-06-20T17:06:13Z</time>
      </trkpt>
      <trkpt lat="43.529608" lon="-8.166015">
        <ele>22.145</ele>
        <time>2019-06-20T17:06:14Z</time>
      </trkpt>
      <trkpt lat="43.529470" lon="-8.165937">
        <ele>22.346</ele>
        <time>2019-06-20T17:06:15Z</time>
      </trkpt>
      <trkpt lat="43.529333" lon="-8.165875">
        <ele>23.448</ele>
        <time>2019-06-20T17:06:16Z</time>
      </trkpt>
      <trkpt lat="43.529189" lon="-8.165820">
        <ele>25.085</ele>
        <time>2019-06-20T17:06:17Z</time>
      </trkpt>
      <trkpt lat="43.529040" lon="-8.165777">
        <ele>25.558</ele>
        <time>2019-06-20T17:06:18Z</time>
      </trkpt>
      <trkpt lat="43.528879" lon="-8.165737">
        <ele>25.752</ele>
        <time>2019-06-20T17:06:19Z</time>
      </trkpt>
      <trkpt lat="43.528719" lon="-8.165688">
        <ele>25.717</ele>
        <time>2019-06-20T17:06:20Z</time>
      </trkpt>
      <trkpt lat="43.528563" lon="-8.165651">
        <ele>25.608</ele>
        <time>2019-06-20T17:06:21Z</time>
      </trkpt>
      <trkpt lat="43.528383" lon="-8.165583">
        <ele>25.868</ele>
        <time>2019-06-20T17:06:22Z</time>
      </trkpt>
      <trkpt lat="43.528206" lon="-8.165534">
        <ele>25.352</ele>
        <time>2019-06-20T17:06:23Z</time>
      </trkpt>
      <trkpt lat="43.528004" lon="-8.165522">
        <ele>24.033</ele>
        <time>2019-06-20T17:06:24Z</time>
      </trkpt>
      <trkpt lat="43.527814" lon="-8.165510">
        <ele>22.999</ele>
        <time>2019-06-20T17:06:25Z</time>
      </trkpt>
      <trkpt lat="43.527625" lon="-8.165501">
        <ele>22.166</ele>
        <time>2019-06-20T17:06:26Z</time>
      </trkpt>
      <trkpt lat="43.527464" lon="-8.165495">
        <ele>21.727</ele>
        <time>2019-06-20T17:06:27Z</time>
      </trkpt>
      <trkpt lat="43.527288" lon="-8.165483">
        <ele>22.189</ele>
        <time>2019-06-20T17:06:28Z</time>
      </trkpt>
      <trkpt lat="43.527107" lon="-8.165484">
        <ele>22.466</ele>
        <time>2019-06-20T17:06:29Z</time>
      </trkpt>
      <trkpt lat="43.526929" lon="-8.165470">
        <ele>22.685</ele>
        <time>2019-06-20T17:06:30Z</time>
      </trkpt>
      <trkpt lat="43.526763" lon="-8.165464">
        <ele>22.489</ele>
        <time>2019-06-20T17:06:31Z</time>
      </trkpt>
      <trkpt lat="43.526606" lon="-8.165456">
        <ele>22.217</ele>
        <time>2019-06-20T17:06:32Z</time>
      </trkpt>
      <trkpt lat="43.526454" lon="-8.165448">
        <ele>21.808</ele>
        <time>2019-06-20T17:06:33Z</time>
      </trkpt>
      <trkpt lat="43.526306" lon="-8.165423">
        <ele>21.971</ele>
        <time>2019-06-20T17:06:34Z</time>
      </trkpt>
      <trkpt lat="43.526150" lon="-8.165388">
        <ele>22.455</ele>
        <time>2019-06-20T17:06:35Z</time>
      </trkpt>
      <trkpt lat="43.525989" lon="-8.165334">
        <ele>22.476</ele>
        <time>2019-06-20T17:06:36Z</time>
      </trkpt>
      <trkpt lat="43.525818" lon="-8.165255">
        <ele>22.182</ele>
        <time>2019-06-20T17:06:37Z</time>
      </trkpt>
      <trkpt lat="43.525647" lon="-8.165198">
        <ele>20.899</ele>
        <time>2019-06-20T17:06:38Z</time>
      </trkpt>
      <trkpt lat="43.525467" lon="-8.165134">
        <ele>20.440</ele>
        <time>2019-06-20T17:06:39Z</time>
      </trkpt>
      <trkpt lat="43.525299" lon="-8.165061">
        <ele>20.632</ele>
        <time>2019-06-20T17:06:40Z</time>
      </trkpt>
      <trkpt lat="43.525148" lon="-8.164972">
        <ele>21.389</ele>
        <time>2019-06-20T17:06:41Z</time>
      </trkpt>
      <trkpt lat="43.525009" lon="-8.164879">
        <ele>21.966</ele>
        <time>2019-06-20T17:06:42Z</time>
      </trkpt>
      <trkpt lat="43.524867" lon="-8.164774">
        <ele>21.729</ele>
        <time>2019-06-20T17:06:43Z</time>
      </trkpt>
      <trkpt lat="43.524750" lon="-8.164662">
        <ele>21.621</ele>
        <time>2019-06-20T17:06:44Z</time>
      </trkpt>
      <trkpt lat="43.524664" lon="-8.164517">
        <ele>22.308</ele>
        <time>2019-06-20T17:06:45Z</time>
      </trkpt>
      <trkpt lat="43.524567" lon="-8.164366">
        <ele>23.099</ele>
        <time>2019-06-20T17:06:46Z</time>
      </trkpt>
      <trkpt lat="43.524468" lon="-8.164226">
        <ele>23.783</ele>
        <time>2019-06-20T17:06:47Z</time>
      </trkpt>
      <trkpt lat="43.524378" lon="-8.164086">
        <ele>24.044</ele>
        <time>2019-06-20T17:06:48Z</time>
      </trkpt>
      <trkpt lat="43.524271" lon="-8.163968">
        <ele>23.750</ele>
        <time>2019-06-20T17:06:49Z</time>
      </trkpt>
      <trkpt lat="43.524160" lon="-8.163899">
        <ele>22.997</ele>
        <time>2019-06-20T17:06:50Z</time>
      </trkpt>
      <trkpt lat="43.524053" lon="-8.163848">
        <ele>22.948</ele>
        <time>2019-06-20T17:06:51Z</time>
      </trkpt>
      <trkpt lat="43.523934" lon="-8.163852">
        <ele>22.420</ele>
        <time>2019-06-20T17:06:52Z</time>
      </trkpt>
      <trkpt lat="43.523826" lon="-8.163926">
        <ele>21.767</ele>
        <time>2019-06-20T17:06:53Z</time>
      </trkpt>
      <trkpt lat="43.523723" lon="-8.163981">
        <ele>21.157</ele>
        <time>2019-06-20T17:06:54Z</time>
      </trkpt>
      <trkpt lat="43.523604" lon="-8.164001">
        <ele>20.800</ele>
        <time>2019-06-20T17:06:55Z</time>
      </trkpt>
      <trkpt lat="43.523485" lon="-8.164008">
        <ele>21.420</ele>
        <time>2019-06-20T17:06:56Z</time>
      </trkpt>
      <trkpt lat="43.523352" lon="-8.163997">
        <ele>22.108</ele>
        <time>2019-06-20T17:06:57Z</time>
      </trkpt>
      <trkpt lat="43.523220" lon="-8.163958">
        <ele>23.098</ele>
        <time>2019-06-20T17:06:58Z</time>
      </trkpt>
      <trkpt lat="43.523094" lon="-8.163895">
        <ele>23.842</ele>
        <time>2019-06-20T17:06:59Z</time>
      </trkpt>
      <trkpt lat="43.522988" lon="-8.163827">
        <ele>24.623</ele>
        <time>2019-06-20T17:07:00Z</time>
      </trkpt>
      <trkpt lat="43.522874" lon="-8.163780">
        <ele>25.279</ele>
        <time>2019-06-20T17:07:01Z</time>
      </trkpt>
      <trkpt lat="43.522759" lon="-8.163788">
        <ele>25.316</ele>
        <time>2019-06-20T17:07:02Z</time>
      </trkpt>
      <trkpt lat="43.522659" lon="-8.163841">
        <ele>24.727</ele>
        <time>2019-06-20T17:07:03Z</time>
      </trkpt>
      <trkpt lat="43.522551" lon="-8.163922">
        <ele>24.219</ele>
        <time>2019-06-20T17:07:04Z</time>
      </trkpt>
      <trkpt lat="43.522440" lon="-8.164018">
        <ele>23.776</ele>
        <time>2019-06-20T17:07:05Z</time>
      </trkpt>
      <trkpt lat="43.522334" lon="-8.164093">
        <ele>23.036</ele>
        <time>2019-06-20T17:07:06Z</time>
      </trkpt>
      <trkpt lat="43.522216" lon="-8.164103">
        <ele>22.217</ele>
        <time>2019-06-20T17:07:07Z</time>
      </trkpt>
      <trkpt lat="43.522100" lon="-8.164095">
        <ele>22.618</ele>
        <time>2019-06-20T17:07:08Z</time>
      </trkpt>
      <trkpt lat="43.521973" lon="-8.164082">
        <ele>22.908</ele>
        <time>2019-06-20T17:07:09Z</time>
      </trkpt>
      <trkpt lat="43.521846" lon="-8.164044">
        <ele>23.066</ele>
        <time>2019-06-20T17:07:10Z</time>
      </trkpt>
      <trkpt lat="43.521729" lon="-8.164004">
        <ele>23.050</ele>
        <time>2019-06-20T17:07:11Z</time>
      </trkpt>
      <trkpt lat="43.521615" lon="-8.163970">
        <ele>23.121</ele>
        <time>2019-06-20T17:07:12Z</time>
      </trkpt>
      <trkpt lat="43.521506" lon="-8.163935">
        <ele>23.597</ele>
        <time>2019-06-20T17:07:13Z</time>
      </trkpt>
      <trkpt lat="43.521423" lon="-8.163891">
        <ele>23.964</ele>
        <time>2019-06-20T17:07:14Z</time>
      </trkpt>
      <trkpt lat="43.521364" lon="-8.163820">
        <ele>24.255</ele>
        <time>2019-06-20T17:07:15Z</time>
      </trkpt>
      <trkpt lat="43.521336" lon="-8.163728">
        <ele>24.487</ele>
        <time>2019-06-20T17:07:16Z</time>
      </trkpt>
      <trkpt lat="43.521317" lon="-8.163631">
        <ele>24.764</ele>
        <time>2019-06-20T17:07:17Z</time>
      </trkpt>
      <trkpt lat="43.521334" lon="-8.163512">
        <ele>25.282</ele>
        <time>2019-06-20T17:07:18Z</time>
      </trkpt>
      <trkpt lat="43.521346" lon="-8.163370">
        <ele>25.743</ele>
        <time>2019-06-20T17:07:19Z</time>
      </trkpt>
      <trkpt lat="43.521367" lon="-8.163231">
        <ele>26.317</ele>
        <time>2019-06-20T17:07:20Z</time>
      </trkpt>
      <trkpt lat="43.521378" lon="-8.163123">
        <ele>26.708</ele>
        <time>2019-06-20T17:07:21Z</time>
      </trkpt>
      <trkpt lat="43.521342" lon="-8.163018">
        <ele>27.021</ele>
        <time>2019-06-20T17:07:22Z</time>
      </trkpt>
      <trkpt lat="43.521277" lon="-8.162920">
        <ele>27.155</ele>
        <time>2019-06-20T17:07:23Z</time>
      </trkpt>
      <trkpt lat="43.521206" lon="-8.162827">
        <ele>27.216</ele>
        <time>2019-06-20T17:07:24Z</time>
      </trkpt>
      <trkpt lat="43.521087" lon="-8.162767">
        <ele>26.712</ele>
        <time>2019-06-20T17:07:25Z</time>
      </trkpt>
      <trkpt lat="43.520975" lon="-8.162683">
        <ele>25.429</ele>
        <time>2019-06-20T17:07:26Z</time>
      </trkpt>
      <trkpt lat="43.520859" lon="-8.162578">
        <ele>24.210</ele>
        <time>2019-06-20T17:07:27Z</time>
      </trkpt>
      <trkpt lat="43.520750" lon="-8.162457">
        <ele>23.992</ele>
        <time>2019-06-20T17:07:28Z</time>
      </trkpt>
      <trkpt lat="43.520642" lon="-8.162294">
        <ele>24.639</ele>
        <time>2019-06-20T17:07:29Z</time>
      </trkpt>
      <trkpt lat="43.520530" lon="-8.162122">
        <ele>24.853</ele>
        <time>2019-06-20T17:07:30Z</time>
      </trkpt>
      <trkpt lat="43.520437" lon="-8.161951">
        <ele>24.104</ele>
        <time>2019-06-20T17:07:31Z</time>
      </trkpt>
      <trkpt lat="43.520343" lon="-8.161783">
        <ele>23.914</ele>
        <time>2019-06-20T17:07:32Z</time>
      </trkpt>
      <trkpt lat="43.520253" lon="-8.161621">
        <ele>23.808</ele>
        <time>2019-06-20T17:07:33Z</time>
      </trkpt>
      <trkpt lat="43.520192" lon="-8.161434">
        <ele>23.678</ele>
        <time>2019-06-20T17:07:34Z</time>
      </trkpt>
      <trkpt lat="43.520139" lon="-8.161255">
        <ele>24.012</ele>
        <time>2019-06-20T17:07:35Z</time>
      </trkpt>
      <trkpt lat="43.520087" lon="-8.161083">
        <ele>24.463</ele>
        <time>2019-06-20T17:07:36Z</time>
      </trkpt>
      <trkpt lat="43.520040" lon="-8.160936">
        <ele>24.829</ele>
        <time>2019-06-20T17:07:37Z</time>
      </trkpt>
      <trkpt lat="43.519988" lon="-8.160772">
        <ele>25.136</ele>
        <time>2019-06-20T17:07:38Z</time>
      </trkpt>
      <trkpt lat="43.519933" lon="-8.160630">
        <ele>25.427</ele>
        <time>2019-06-20T17:07:39Z</time>
      </trkpt>
      <trkpt lat="43.519877" lon="-8.160497">
        <ele>25.999</ele>
        <time>2019-06-20T17:07:40Z</time>
      </trkpt>
      <trkpt lat="43.519780" lon="-8.160419">
        <ele>26.116</ele>
        <time>2019-06-20T17:07:41Z</time>
      </trkpt>
      <trkpt lat="43.519662" lon="-8.160355">
        <ele>25.978</ele>
        <time>2019-06-20T17:07:42Z</time>
      </trkpt>
      <trkpt lat="43.519525" lon="-8.160322">
        <ele>24.733</ele>
        <time>2019-06-20T17:07:43Z</time>
      </trkpt>
      <trkpt lat="43.519371" lon="-8.160315">
        <ele>23.626</ele>
        <time>2019-06-20T17:07:44Z</time>
      </trkpt>
      <trkpt lat="43.519219" lon="-8.160312">
        <ele>23.108</ele>
        <time>2019-06-20T17:07:45Z</time>
      </trkpt>
      <trkpt lat="43.519066" lon="-8.160311">
        <ele>22.260</ele>
        <time>2019-06-20T17:07:46Z</time>
      </trkpt>
      <trkpt lat="43.518917" lon="-8.160291">
        <ele>21.274</ele>
        <time>2019-06-20T17:07:47Z</time>
      </trkpt>
      <trkpt lat="43.518765" lon="-8.160281">
        <ele>20.145</ele>
        <time>2019-06-20T17:07:48Z</time>
      </trkpt>
      <trkpt lat="43.518614" lon="-8.160267">
        <ele>19.021</ele>
        <time>2019-06-20T17:07:49Z</time>
      </trkpt>
      <trkpt lat="43.518473" lon="-8.160239">
        <ele>18.158</ele>
        <time>2019-06-20T17:07:50Z</time>
      </trkpt>
      <trkpt lat="43.518342" lon="-8.160203">
        <ele>17.689</ele>
        <time>2019-06-20T17:07:51Z</time>
      </trkpt>
      <trkpt lat="43.518214" lon="-8.160167">
        <ele>17.521</ele>
        <time>2019-06-20T17:07:52Z</time>
      </trkpt>
      <trkpt lat="43.518126" lon="-8.160095">
        <ele>17.348</ele>
        <time>2019-06-20T17:07:53Z</time>
      </trkpt>
      <trkpt lat="43.518046" lon="-8.160009">
        <ele>17.064</ele>
        <time>2019-06-20T17:07:54Z</time>
      </trkpt>
      <trkpt lat="43.517979" lon="-8.159899">
        <ele>17.306</ele>
        <time>2019-06-20T17:07:55Z</time>
      </trkpt>
      <trkpt lat="43.517946" lon="-8.159756">
        <ele>17.716</ele>
        <time>2019-06-20T17:07:56Z</time>
      </trkpt>
      <trkpt lat="43.517927" lon="-8.159594">
        <ele>17.608</ele>
        <time>2019-06-20T17:07:57Z</time>
      </trkpt>
      <trkpt lat="43.517919" lon="-8.159426">
        <ele>17.559</ele>
        <time>2019-06-20T17:07:58Z</time>
      </trkpt>
      <trkpt lat="43.517944" lon="-8.159227">
        <ele>17.363</ele>
        <time>2019-06-20T17:07:59Z</time>
      </trkpt>
      <trkpt lat="43.517940" lon="-8.159027">
        <ele>17.294</ele>
        <time>2019-06-20T17:08:00Z</time>
      </trkpt>
      <trkpt lat="43.517941" lon="-8.158845">
        <ele>17.060</ele>
        <time>2019-06-20T17:08:01Z</time>
      </trkpt>
      <trkpt lat="43.517943" lon="-8.158654">
        <ele>16.387</ele>
        <time>2019-06-20T17:08:02Z</time>
      </trkpt>
      <trkpt lat="43.517955" lon="-8.158496">
        <ele>16.318</ele>
        <time>2019-06-20T17:08:03Z</time>
      </trkpt>
      <trkpt lat="43.517974" lon="-8.158325">
        <ele>16.430</ele>
        <time>2019-06-20T17:08:04Z</time>
      </trkpt>
      <trkpt lat="43.517978" lon="-8.158163">
        <ele>17.197</ele>
        <time>2019-06-20T17:08:05Z</time>
      </trkpt>
      <trkpt lat="43.517974" lon="-8.158024">
        <ele>17.317</ele>
        <time>2019-06-20T17:08:06Z</time>
      </trkpt>
      <trkpt lat="43.517946" lon="-8.157877">
        <ele>16.687</ele>
        <time>2019-06-20T17:08:07Z</time>
      </trkpt>
      <trkpt lat="43.517927" lon="-8.157741">
        <ele>15.915</ele>
        <time>2019-06-20T17:08:08Z</time>
      </trkpt>
      <trkpt lat="43.517877" lon="-8.157623">
        <ele>15.208</ele>
        <time>2019-06-20T17:08:09Z</time>
      </trkpt>
      <trkpt lat="43.517813" lon="-8.157545">
        <ele>14.484</ele>
        <time>2019-06-20T17:08:10Z</time>
      </trkpt>
      <trkpt lat="43.517740" lon="-8.157443">
        <ele>13.588</ele>
        <time>2019-06-20T17:08:11Z</time>
      </trkpt>
      <trkpt lat="43.517648" lon="-8.157338">
        <ele>12.579</ele>
        <time>2019-06-20T17:08:12Z</time>
      </trkpt>
      <trkpt lat="43.517560" lon="-8.157254">
        <ele>11.595</ele>
        <time>2019-06-20T17:08:13Z</time>
      </trkpt>
      <trkpt lat="43.517464" lon="-8.157142">
        <ele>10.622</ele>
        <time>2019-06-20T17:08:14Z</time>
      </trkpt>
      <trkpt lat="43.517346" lon="-8.157112">
        <ele>10.353</ele>
        <time>2019-06-20T17:08:15Z</time>
      </trkpt>
      <trkpt lat="43.517238" lon="-8.157073">
        <ele>10.085</ele>
        <time>2019-06-20T17:08:16Z</time>
      </trkpt>
      <trkpt lat="43.517136" lon="-8.157054">
        <ele>9.742</ele>
        <time>2019-06-20T17:08:17Z</time>
      </trkpt>
      <trkpt lat="43.517030" lon="-8.157023">
        <ele>9.378</ele>
        <time>2019-06-20T17:08:18Z</time>
      </trkpt>
      <trkpt lat="43.516939" lon="-8.157008">
        <ele>9.033</ele>
        <time>2019-06-20T17:08:19Z</time>
      </trkpt>
      <trkpt lat="43.516848" lon="-8.156995">
        <ele>9.026</ele>
        <time>2019-06-20T17:08:20Z</time>
      </trkpt>
      <trkpt lat="43.516772" lon="-8.156981">
        <ele>9.008</ele>
        <time>2019-06-20T17:08:21Z</time>
      </trkpt>
      <trkpt lat="43.516710" lon="-8.156980">
        <ele>9.040</ele>
        <time>2019-06-20T17:08:22Z</time>
      </trkpt>
      <trkpt lat="43.516653" lon="-8.156970">
        <ele>9.034</ele>
        <time>2019-06-20T17:08:23Z</time>
      </trkpt>
      <trkpt lat="43.516581" lon="-8.156977">
        <ele>9.065</ele>
        <time>2019-06-20T17:08:25Z</time>
      </trkpt>
      <trkpt lat="43.516524" lon="-8.156977">
        <ele>9.171</ele>
        <time>2019-06-20T17:08:27Z</time>
      </trkpt>
      <trkpt lat="43.516508" lon="-8.156886">
        <ele>8.818</ele>
        <time>2019-06-20T17:08:40Z</time>
      </trkpt>
      <trkpt lat="43.516491" lon="-8.156827">
        <ele>8.549</ele>
        <time>2019-06-20T17:08:41Z</time>
      </trkpt>
      <trkpt lat="43.516469" lon="-8.156755">
        <ele>8.041</ele>
        <time>2019-06-20T17:08:42Z</time>
      </trkpt>
      <trkpt lat="43.516452" lon="-8.156646">
        <ele>7.598</ele>
        <time>2019-06-20T17:08:43Z</time>
      </trkpt>
      <trkpt lat="43.516434" lon="-8.156514">
        <ele>7.324</ele>
        <time>2019-06-20T17:08:44Z</time>
      </trkpt>
      <trkpt lat="43.516428" lon="-8.156360">
        <ele>7.204</ele>
        <time>2019-06-20T17:08:45Z</time>
      </trkpt>
      <trkpt lat="43.516422" lon="-8.156179">
        <ele>6.514</ele>
        <time>2019-06-20T17:08:46Z</time>
      </trkpt>
      <trkpt lat="43.516420" lon="-8.155996">
        <ele>6.608</ele>
        <time>2019-06-20T17:08:47Z</time>
      </trkpt>
      <trkpt lat="43.516426" lon="-8.155801">
        <ele>7.385</ele>
        <time>2019-06-20T17:08:48Z</time>
      </trkpt>
      <trkpt lat="43.516429" lon="-8.155601">
        <ele>7.349</ele>
        <time>2019-06-20T17:08:49Z</time>
      </trkpt>
      <trkpt lat="43.516420" lon="-8.155393">
        <ele>7.770</ele>
        <time>2019-06-20T17:08:50Z</time>
      </trkpt>
      <trkpt lat="43.516416" lon="-8.155208">
        <ele>8.116</ele>
        <time>2019-06-20T17:08:51Z</time>
      </trkpt>
      <trkpt lat="43.516417" lon="-8.155017">
        <ele>8.043</ele>
        <time>2019-06-20T17:08:52Z</time>
      </trkpt>
      <trkpt lat="43.516404" lon="-8.154828">
        <ele>8.074</ele>
        <time>2019-06-20T17:08:53Z</time>
      </trkpt>
      <trkpt lat="43.516409" lon="-8.154634">
        <ele>8.026</ele>
        <time>2019-06-20T17:08:54Z</time>
      </trkpt>
      <trkpt lat="43.516412" lon="-8.154443">
        <ele>8.043</ele>
        <time>2019-06-20T17:08:55Z</time>
      </trkpt>
      <trkpt lat="43.516431" lon="-8.154267">
        <ele>8.161</ele>
        <time>2019-06-20T17:08:56Z</time>
      </trkpt>
      <trkpt lat="43.516448" lon="-8.154093">
        <ele>8.221</ele>
        <time>2019-06-20T17:08:57Z</time>
      </trkpt>
      <trkpt lat="43.516495" lon="-8.153949">
        <ele>8.413</ele>
        <time>2019-06-20T17:08:58Z</time>
      </trkpt>
      <trkpt lat="43.516531" lon="-8.153787">
        <ele>8.508</ele>
        <time>2019-06-20T17:08:59Z</time>
      </trkpt>
      <trkpt lat="43.516567" lon="-8.153621">
        <ele>8.619</ele>
        <time>2019-06-20T17:09:00Z</time>
      </trkpt>
      <trkpt lat="43.516609" lon="-8.153448">
        <ele>8.213</ele>
        <time>2019-06-20T17:09:01Z</time>
      </trkpt>
      <trkpt lat="43.516648" lon="-8.153285">
        <ele>7.874</ele>
        <time>2019-06-20T17:09:02Z</time>
      </trkpt>
      <trkpt lat="43.516677" lon="-8.153128">
        <ele>7.480</ele>
        <time>2019-06-20T17:09:03Z</time>
      </trkpt>
      <trkpt lat="43.516689" lon="-8.152959">
        <ele>7.257</ele>
        <time>2019-06-20T17:09:04Z</time>
      </trkpt>
      <trkpt lat="43.516725" lon="-8.152817">
        <ele>7.598</ele>
        <time>2019-06-20T17:09:05Z</time>
      </trkpt>
      <trkpt lat="43.516749" lon="-8.152669">
        <ele>7.230</ele>
        <time>2019-06-20T17:09:06Z</time>
      </trkpt>
      <trkpt lat="43.516775" lon="-8.152517">
        <ele>6.827</ele>
        <time>2019-06-20T17:09:07Z</time>
      </trkpt>
      <trkpt lat="43.516786" lon="-8.152370">
        <ele>6.925</ele>
        <time>2019-06-20T17:09:08Z</time>
      </trkpt>
      <trkpt lat="43.516791" lon="-8.152220">
        <ele>6.926</ele>
        <time>2019-06-20T17:09:09Z</time>
      </trkpt>
      <trkpt lat="43.516783" lon="-8.152075">
        <ele>6.108</ele>
        <time>2019-06-20T17:09:10Z</time>
      </trkpt>
      <trkpt lat="43.516780" lon="-8.151931">
        <ele>5.408</ele>
        <time>2019-06-20T17:09:11Z</time>
      </trkpt>
      <trkpt lat="43.516775" lon="-8.151818">
        <ele>5.295</ele>
        <time>2019-06-20T17:09:12Z</time>
      </trkpt>
      <trkpt lat="43.516767" lon="-8.151698">
        <ele>5.039</ele>
        <time>2019-06-20T17:09:13Z</time>
      </trkpt>
      <trkpt lat="43.516761" lon="-8.151585">
        <ele>4.890</ele>
        <time>2019-06-20T17:09:14Z</time>
      </trkpt>
      <trkpt lat="43.516762" lon="-8.151478">
        <ele>4.616</ele>
        <time>2019-06-20T17:09:15Z</time>
      </trkpt>
      <trkpt lat="43.516758" lon="-8.151377">
        <ele>4.433</ele>
        <time>2019-06-20T17:09:16Z</time>
      </trkpt>
      <trkpt lat="43.516753" lon="-8.151284">
        <ele>5.164</ele>
        <time>2019-06-20T17:09:17Z</time>
      </trkpt>
      <trkpt lat="43.516735" lon="-8.151198">
        <ele>5.846</ele>
        <time>2019-06-20T17:09:18Z</time>
      </trkpt>
      <trkpt lat="43.516693" lon="-8.151141">
        <ele>6.573</ele>
        <time>2019-06-20T17:09:19Z</time>
      </trkpt>
      <trkpt lat="43.516641" lon="-8.151084">
        <ele>7.141</ele>
        <time>2019-06-20T17:09:20Z</time>
      </trkpt>
      <trkpt lat="43.516579" lon="-8.151049">
        <ele>7.281</ele>
        <time>2019-06-20T17:09:21Z</time>
      </trkpt>
      <trkpt lat="43.516521" lon="-8.151029">
        <ele>7.209</ele>
        <time>2019-06-20T17:09:22Z</time>
      </trkpt>
      <trkpt lat="43.516467" lon="-8.151008">
        <ele>7.308</ele>
        <time>2019-06-20T17:09:23Z</time>
      </trkpt>
      <trkpt lat="43.516399" lon="-8.150985">
        <ele>7.427</ele>
        <time>2019-06-20T17:09:24Z</time>
      </trkpt>
      <trkpt lat="43.516340" lon="-8.150973">
        <ele>7.771</ele>
        <time>2019-06-20T17:09:25Z</time>
      </trkpt>
      <trkpt lat="43.516283" lon="-8.150976">
        <ele>7.872</ele>
        <time>2019-06-20T17:09:26Z</time>
      </trkpt>
      <trkpt lat="43.516212" lon="-8.150971">
        <ele>8.298</ele>
        <time>2019-06-20T17:09:27Z</time>
      </trkpt>
      <trkpt lat="43.516122" lon="-8.150957">
        <ele>8.645</ele>
        <time>2019-06-20T17:09:28Z</time>
      </trkpt>
      <trkpt lat="43.516020" lon="-8.150928">
        <ele>8.866</ele>
        <time>2019-06-20T17:09:29Z</time>
      </trkpt>
      <trkpt lat="43.515912" lon="-8.150898">
        <ele>8.828</ele>
        <time>2019-06-20T17:09:30Z</time>
      </trkpt>
      <trkpt lat="43.515789" lon="-8.150860">
        <ele>9.085</ele>
        <time>2019-06-20T17:09:31Z</time>
      </trkpt>
      <trkpt lat="43.515648" lon="-8.150821">
        <ele>9.852</ele>
        <time>2019-06-20T17:09:32Z</time>
      </trkpt>
      <trkpt lat="43.515505" lon="-8.150780">
        <ele>10.753</ele>
        <time>2019-06-20T17:09:33Z</time>
      </trkpt>
      <trkpt lat="43.515358" lon="-8.150737">
        <ele>12.108</ele>
        <time>2019-06-20T17:09:34Z</time>
      </trkpt>
      <trkpt lat="43.515207" lon="-8.150695">
        <ele>13.308</ele>
        <time>2019-06-20T17:09:35Z</time>
      </trkpt>
      <trkpt lat="43.515056" lon="-8.150650">
        <ele>14.158</ele>
        <time>2019-06-20T17:09:36Z</time>
      </trkpt>
      <trkpt lat="43.514904" lon="-8.150606">
        <ele>14.312</ele>
        <time>2019-06-20T17:09:37Z</time>
      </trkpt>
      <trkpt lat="43.514745" lon="-8.150575">
        <ele>13.993</ele>
        <time>2019-06-20T17:09:38Z</time>
      </trkpt>
      <trkpt lat="43.514591" lon="-8.150570">
        <ele>13.969</ele>
        <time>2019-06-20T17:09:39Z</time>
      </trkpt>
      <trkpt lat="43.514441" lon="-8.150562">
        <ele>13.916</ele>
        <time>2019-06-20T17:09:40Z</time>
      </trkpt>
      <trkpt lat="43.514285" lon="-8.150510">
        <ele>15.137</ele>
        <time>2019-06-20T17:09:41Z</time>
      </trkpt>
      <trkpt lat="43.514131" lon="-8.150467">
        <ele>16.399</ele>
        <time>2019-06-20T17:09:42Z</time>
      </trkpt>
      <trkpt lat="43.514003" lon="-8.150427">
        <ele>17.826</ele>
        <time>2019-06-20T17:09:43Z</time>
      </trkpt>
      <trkpt lat="43.513881" lon="-8.150388">
        <ele>19.497</ele>
        <time>2019-06-20T17:09:44Z</time>
      </trkpt>
      <trkpt lat="43.513767" lon="-8.150357">
        <ele>19.723</ele>
        <time>2019-06-20T17:09:45Z</time>
      </trkpt>
      <trkpt lat="43.513661" lon="-8.150329">
        <ele>20.125</ele>
        <time>2019-06-20T17:09:46Z</time>
      </trkpt>
      <trkpt lat="43.513559" lon="-8.150296">
        <ele>20.908</ele>
        <time>2019-06-20T17:09:47Z</time>
      </trkpt>
      <trkpt lat="43.513465" lon="-8.150280">
        <ele>21.532</ele>
        <time>2019-06-20T17:09:48Z</time>
      </trkpt>
      <trkpt lat="43.513368" lon="-8.150240">
        <ele>22.216</ele>
        <time>2019-06-20T17:09:49Z</time>
      </trkpt>
      <trkpt lat="43.513285" lon="-8.150216">
        <ele>22.457</ele>
        <time>2019-06-20T17:09:50Z</time>
      </trkpt>
      <trkpt lat="43.513230" lon="-8.150236">
        <ele>22.333</ele>
        <time>2019-06-20T17:09:51Z</time>
      </trkpt>
      <trkpt lat="43.513164" lon="-8.150322">
        <ele>21.660</ele>
        <time>2019-06-20T17:09:52Z</time>
      </trkpt>
      <trkpt lat="43.513096" lon="-8.150393">
        <ele>21.151</ele>
        <time>2019-06-20T17:09:53Z</time>
      </trkpt>
      <trkpt lat="43.513022" lon="-8.150484">
        <ele>20.833</ele>
        <time>2019-06-20T17:09:54Z</time>
      </trkpt>
      <trkpt lat="43.512924" lon="-8.150606">
        <ele>20.670</ele>
        <time>2019-06-20T17:09:55Z</time>
      </trkpt>
      <trkpt lat="43.512814" lon="-8.150733">
        <ele>20.567</ele>
        <time>2019-06-20T17:09:56Z</time>
      </trkpt>
      <trkpt lat="43.512700" lon="-8.150866">
        <ele>20.781</ele>
        <time>2019-06-20T17:09:57Z</time>
      </trkpt>
      <trkpt lat="43.512587" lon="-8.151006">
        <ele>21.019</ele>
        <time>2019-06-20T17:09:58Z</time>
      </trkpt>
      <trkpt lat="43.512470" lon="-8.151150">
        <ele>20.908</ele>
        <time>2019-06-20T17:09:59Z</time>
      </trkpt>
      <trkpt lat="43.512354" lon="-8.151291">
        <ele>20.899</ele>
        <time>2019-06-20T17:10:00Z</time>
      </trkpt>
      <trkpt lat="43.512235" lon="-8.151421">
        <ele>20.643</ele>
        <time>2019-06-20T17:10:01Z</time>
      </trkpt>
      <trkpt lat="43.512102" lon="-8.151543">
        <ele>20.044</ele>
        <time>2019-06-20T17:10:02Z</time>
      </trkpt>
      <trkpt lat="43.511969" lon="-8.151646">
        <ele>20.060</ele>
        <time>2019-06-20T17:10:03Z</time>
      </trkpt>
      <trkpt lat="43.511821" lon="-8.151746">
        <ele>19.067</ele>
        <time>2019-06-20T17:10:04Z</time>
      </trkpt>
      <trkpt lat="43.511649" lon="-8.151826">
        <ele>17.938</ele>
        <time>2019-06-20T17:10:05Z</time>
      </trkpt>
      <trkpt lat="43.511465" lon="-8.151906">
        <ele>17.570</ele>
        <time>2019-06-20T17:10:06Z</time>
      </trkpt>
      <trkpt lat="43.511279" lon="-8.151983">
        <ele>17.747</ele>
        <time>2019-06-20T17:10:07Z</time>
      </trkpt>
      <trkpt lat="43.511100" lon="-8.152061">
        <ele>17.948</ele>
        <time>2019-06-20T17:10:08Z</time>
      </trkpt>
      <trkpt lat="43.510922" lon="-8.152139">
        <ele>17.561</ele>
        <time>2019-06-20T17:10:09Z</time>
      </trkpt>
      <trkpt lat="43.510745" lon="-8.152223">
        <ele>17.317</ele>
        <time>2019-06-20T17:10:10Z</time>
      </trkpt>
      <trkpt lat="43.510570" lon="-8.152301">
        <ele>16.808</ele>
        <time>2019-06-20T17:10:11Z</time>
      </trkpt>
      <trkpt lat="43.510393" lon="-8.152386">
        <ele>15.467</ele>
        <time>2019-06-20T17:10:12Z</time>
      </trkpt>
      <trkpt lat="43.510214" lon="-8.152463">
        <ele>14.681</ele>
        <time>2019-06-20T17:10:13Z</time>
      </trkpt>
      <trkpt lat="43.510031" lon="-8.152545">
        <ele>14.632</ele>
        <time>2019-06-20T17:10:14Z</time>
      </trkpt>
      <trkpt lat="43.509856" lon="-8.152630">
        <ele>14.168</ele>
        <time>2019-06-20T17:10:15Z</time>
      </trkpt>
      <trkpt lat="43.509679" lon="-8.152712">
        <ele>13.575</ele>
        <time>2019-06-20T17:10:16Z</time>
      </trkpt>
      <trkpt lat="43.509504" lon="-8.152791">
        <ele>12.996</ele>
        <time>2019-06-20T17:10:17Z</time>
      </trkpt>
      <trkpt lat="43.509330" lon="-8.152869">
        <ele>12.328</ele>
        <time>2019-06-20T17:10:18Z</time>
      </trkpt>
      <trkpt lat="43.509153" lon="-8.152950">
        <ele>11.885</ele>
        <time>2019-06-20T17:10:19Z</time>
      </trkpt>
      <trkpt lat="43.508979" lon="-8.153025">
        <ele>11.816</ele>
        <time>2019-06-20T17:10:20Z</time>
      </trkpt>
      <trkpt lat="43.508810" lon="-8.153106">
        <ele>11.776</ele>
        <time>2019-06-20T17:10:21Z</time>
      </trkpt>
      <trkpt lat="43.508648" lon="-8.153185">
        <ele>11.513</ele>
        <time>2019-06-20T17:10:22Z</time>
      </trkpt>
      <trkpt lat="43.508488" lon="-8.153262">
        <ele>11.308</ele>
        <time>2019-06-20T17:10:23Z</time>
      </trkpt>
      <trkpt lat="43.508330" lon="-8.153336">
        <ele>11.024</ele>
        <time>2019-06-20T17:10:24Z</time>
      </trkpt>
      <trkpt lat="43.508171" lon="-8.153412">
        <ele>10.058</ele>
        <time>2019-06-20T17:10:25Z</time>
      </trkpt>
      <trkpt lat="43.508012" lon="-8.153487">
        <ele>9.229</ele>
        <time>2019-06-20T17:10:26Z</time>
      </trkpt>
      <trkpt lat="43.507848" lon="-8.153566">
        <ele>8.325</ele>
        <time>2019-06-20T17:10:27Z</time>
      </trkpt>
      <trkpt lat="43.507678" lon="-8.153639">
        <ele>8.132</ele>
        <time>2019-06-20T17:10:28Z</time>
      </trkpt>
      <trkpt lat="43.507500" lon="-8.153703">
        <ele>8.363</ele>
        <time>2019-06-20T17:10:29Z</time>
      </trkpt>
      <trkpt lat="43.507320" lon="-8.153756">
        <ele>8.215</ele>
        <time>2019-06-20T17:10:30Z</time>
      </trkpt>
      <trkpt lat="43.507136" lon="-8.153795">
        <ele>7.752</ele>
        <time>2019-06-20T17:10:31Z</time>
      </trkpt>
      <trkpt lat="43.506952" lon="-8.153825">
        <ele>7.018</ele>
        <time>2019-06-20T17:10:32Z</time>
      </trkpt>
      <trkpt lat="43.506773" lon="-8.153852">
        <ele>5.898</ele>
        <time>2019-06-20T17:10:33Z</time>
      </trkpt>
      <trkpt lat="43.506598" lon="-8.153876">
        <ele>4.817</ele>
        <time>2019-06-20T17:10:34Z</time>
      </trkpt>
      <trkpt lat="43.506431" lon="-8.153900">
        <ele>4.208</ele>
        <time>2019-06-20T17:10:35Z</time>
      </trkpt>
      <trkpt lat="43.506268" lon="-8.153921">
        <ele>4.454</ele>
        <time>2019-06-20T17:10:36Z</time>
      </trkpt>
      <trkpt lat="43.506112" lon="-8.153943">
        <ele>5.068</ele>
        <time>2019-06-20T17:10:37Z</time>
      </trkpt>
      <trkpt lat="43.505961" lon="-8.153965">
        <ele>5.469</ele>
        <time>2019-06-20T17:10:38Z</time>
      </trkpt>
      <trkpt lat="43.505809" lon="-8.153991">
        <ele>5.685</ele>
        <time>2019-06-20T17:10:39Z</time>
      </trkpt>
      <trkpt lat="43.505656" lon="-8.154016">
        <ele>5.252</ele>
        <time>2019-06-20T17:10:40Z</time>
      </trkpt>
      <trkpt lat="43.505498" lon="-8.154038">
        <ele>4.963</ele>
        <time>2019-06-20T17:10:41Z</time>
      </trkpt>
      <trkpt lat="43.505343" lon="-8.154059">
        <ele>4.775</ele>
        <time>2019-06-20T17:10:42Z</time>
      </trkpt>
      <trkpt lat="43.505197" lon="-8.154081">
        <ele>4.812</ele>
        <time>2019-06-20T17:10:43Z</time>
      </trkpt>
      <trkpt lat="43.505056" lon="-8.154098">
        <ele>5.073</ele>
        <time>2019-06-20T17:10:44Z</time>
      </trkpt>
      <trkpt lat="43.504928" lon="-8.154117">
        <ele>5.285</ele>
        <time>2019-06-20T17:10:45Z</time>
      </trkpt>
      <trkpt lat="43.504801" lon="-8.154140">
        <ele>5.613</ele>
        <time>2019-06-20T17:10:46Z</time>
      </trkpt>
      <trkpt lat="43.504668" lon="-8.154158">
        <ele>5.808</ele>
        <time>2019-06-20T17:10:47Z</time>
      </trkpt>
      <trkpt lat="43.504539" lon="-8.154171">
        <ele>5.380</ele>
        <time>2019-06-20T17:10:48Z</time>
      </trkpt>
      <trkpt lat="43.504388" lon="-8.154180">
        <ele>4.894</ele>
        <time>2019-06-20T17:10:49Z</time>
      </trkpt>
      <trkpt lat="43.504253" lon="-8.154194">
        <ele>4.375</ele>
        <time>2019-06-20T17:10:50Z</time>
      </trkpt>
      <trkpt lat="43.504121" lon="-8.154206">
        <ele>4.211</ele>
        <time>2019-06-20T17:10:51Z</time>
      </trkpt>
      <trkpt lat="43.503991" lon="-8.154227">
        <ele>4.618</ele>
        <time>2019-06-20T17:10:52Z</time>
      </trkpt>
      <trkpt lat="43.503838" lon="-8.154234">
        <ele>5.389</ele>
        <time>2019-06-20T17:10:53Z</time>
      </trkpt>
      <trkpt lat="43.503693" lon="-8.154253">
        <ele>6.241</ele>
        <time>2019-06-20T17:10:54Z</time>
      </trkpt>
      <trkpt lat="43.503546" lon="-8.154274">
        <ele>6.828</ele>
        <time>2019-06-20T17:10:55Z</time>
      </trkpt>
      <trkpt lat="43.503403" lon="-8.154294">
        <ele>7.354</ele>
        <time>2019-06-20T17:10:56Z</time>
      </trkpt>
      <trkpt lat="43.503268" lon="-8.154303">
        <ele>7.956</ele>
        <time>2019-06-20T17:10:57Z</time>
      </trkpt>
      <trkpt lat="43.503147" lon="-8.154319">
        <ele>8.411</ele>
        <time>2019-06-20T17:10:58Z</time>
      </trkpt>
      <trkpt lat="43.503026" lon="-8.154335">
        <ele>9.008</ele>
        <time>2019-06-20T17:10:59Z</time>
      </trkpt>
      <trkpt lat="43.502909" lon="-8.154357">
        <ele>9.538</ele>
        <time>2019-06-20T17:11:00Z</time>
      </trkpt>
      <trkpt lat="43.502780" lon="-8.154365">
        <ele>10.332</ele>
        <time>2019-06-20T17:11:01Z</time>
      </trkpt>
      <trkpt lat="43.502649" lon="-8.154393">
        <ele>11.913</ele>
        <time>2019-06-20T17:11:02Z</time>
      </trkpt>
      <trkpt lat="43.502529" lon="-8.154422">
        <ele>13.559</ele>
        <time>2019-06-20T17:11:03Z</time>
      </trkpt>
      <trkpt lat="43.502409" lon="-8.154443">
        <ele>14.716</ele>
        <time>2019-06-20T17:11:04Z</time>
      </trkpt>
      <trkpt lat="43.502307" lon="-8.154489">
        <ele>15.467</ele>
        <time>2019-06-20T17:11:05Z</time>
      </trkpt>
      <trkpt lat="43.502197" lon="-8.154607">
        <ele>16.089</ele>
        <time>2019-06-20T17:11:06Z</time>
      </trkpt>
      <trkpt lat="43.502068" lon="-8.154694">
        <ele>16.146</ele>
        <time>2019-06-20T17:11:07Z</time>
      </trkpt>
      <trkpt lat="43.502000" lon="-8.154829">
        <ele>15.618</ele>
        <time>2019-06-20T17:11:08Z</time>
      </trkpt>
      <trkpt lat="43.501970" lon="-8.154982">
        <ele>15.198</ele>
        <time>2019-06-20T17:11:09Z</time>
      </trkpt>
      <trkpt lat="43.501913" lon="-8.155124">
        <ele>15.217</ele>
        <time>2019-06-20T17:11:10Z</time>
      </trkpt>
      <trkpt lat="43.501854" lon="-8.155274">
        <ele>15.308</ele>
        <time>2019-06-20T17:11:11Z</time>
      </trkpt>
      <trkpt lat="43.501765" lon="-8.155406">
        <ele>15.394</ele>
        <time>2019-06-20T17:11:12Z</time>
      </trkpt>
      <trkpt lat="43.501691" lon="-8.155549">
        <ele>15.038</ele>
        <time>2019-06-20T17:11:13Z</time>
      </trkpt>
      <trkpt lat="43.501633" lon="-8.155686">
        <ele>15.739</ele>
        <time>2019-06-20T17:11:14Z</time>
      </trkpt>
      <trkpt lat="43.501560" lon="-8.155826">
        <ele>16.485</ele>
        <time>2019-06-20T17:11:15Z</time>
      </trkpt>
      <trkpt lat="43.501490" lon="-8.155932">
        <ele>16.932</ele>
        <time>2019-06-20T17:11:16Z</time>
      </trkpt>
      <trkpt lat="43.501420" lon="-8.156061">
        <ele>17.673</ele>
        <time>2019-06-20T17:11:17Z</time>
      </trkpt>
      <trkpt lat="43.501360" lon="-8.156178">
        <ele>18.515</ele>
        <time>2019-06-20T17:11:18Z</time>
      </trkpt>
      <trkpt lat="43.501292" lon="-8.156292">
        <ele>19.232</ele>
        <time>2019-06-20T17:11:19Z</time>
      </trkpt>
      <trkpt lat="43.501234" lon="-8.156424">
        <ele>19.367</ele>
        <time>2019-06-20T17:11:20Z</time>
      </trkpt>
      <trkpt lat="43.501157" lon="-8.156566">
        <ele>18.581</ele>
        <time>2019-06-20T17:11:21Z</time>
      </trkpt>
      <trkpt lat="43.501077" lon="-8.156706">
        <ele>18.019</ele>
        <time>2019-06-20T17:11:22Z</time>
      </trkpt>
      <trkpt lat="43.501006" lon="-8.156843">
        <ele>17.708</ele>
        <time>2019-06-20T17:11:23Z</time>
      </trkpt>
      <trkpt lat="43.500936" lon="-8.156996">
        <ele>17.499</ele>
        <time>2019-06-20T17:11:24Z</time>
      </trkpt>
      <trkpt lat="43.500867" lon="-8.157129">
        <ele>17.133</ele>
        <time>2019-06-20T17:11:25Z</time>
      </trkpt>
      <trkpt lat="43.500806" lon="-8.157260">
        <ele>17.354</ele>
        <time>2019-06-20T17:11:26Z</time>
      </trkpt>
      <trkpt lat="43.500733" lon="-8.157393">
        <ele>18.170</ele>
        <time>2019-06-20T17:11:27Z</time>
      </trkpt>
      <trkpt lat="43.500654" lon="-8.157541">
        <ele>18.647</ele>
        <time>2019-06-20T17:11:28Z</time>
      </trkpt>
      <trkpt lat="43.500570" lon="-8.157673">
        <ele>18.928</ele>
        <time>2019-06-20T17:11:29Z</time>
      </trkpt>
      <trkpt lat="43.500493" lon="-8.157791">
        <ele>18.940</ele>
        <time>2019-06-20T17:11:30Z</time>
      </trkpt>
      <trkpt lat="43.500411" lon="-8.157920">
        <ele>18.217</ele>
        <time>2019-06-20T17:11:31Z</time>
      </trkpt>
      <trkpt lat="43.500325" lon="-8.158054">
        <ele>17.833</ele>
        <time>2019-06-20T17:11:32Z</time>
      </trkpt>
      <trkpt lat="43.500234" lon="-8.158183">
        <ele>17.723</ele>
        <time>2019-06-20T17:11:33Z</time>
      </trkpt>
      <trkpt lat="43.500117" lon="-8.158278">
        <ele>17.815</ele>
        <time>2019-06-20T17:11:34Z</time>
      </trkpt>
      <trkpt lat="43.500007" lon="-8.158382">
        <ele>17.808</ele>
        <time>2019-06-20T17:11:35Z</time>
      </trkpt>
      <trkpt lat="43.499895" lon="-8.158453">
        <ele>18.346</ele>
        <time>2019-06-20T17:11:36Z</time>
      </trkpt>
      <trkpt lat="43.499787" lon="-8.158497">
        <ele>18.940</ele>
        <time>2019-06-20T17:11:37Z</time>
      </trkpt>
      <trkpt lat="43.499673" lon="-8.158520">
        <ele>19.671</ele>
        <time>2019-06-20T17:11:38Z</time>
      </trkpt>
      <trkpt lat="43.499558" lon="-8.158520">
        <ele>20.367</ele>
        <time>2019-06-20T17:11:39Z</time>
      </trkpt>
      <trkpt lat="43.499439" lon="-8.158516">
        <ele>21.024</ele>
        <time>2019-06-20T17:11:40Z</time>
      </trkpt>
      <trkpt lat="43.499326" lon="-8.158510">
        <ele>21.055</ele>
        <time>2019-06-20T17:11:41Z</time>
      </trkpt>
      <trkpt lat="43.499231" lon="-8.158455">
        <ele>21.077</ele>
        <time>2019-06-20T17:11:42Z</time>
      </trkpt>
      <trkpt lat="43.499131" lon="-8.158418">
        <ele>20.784</ele>
        <time>2019-06-20T17:11:43Z</time>
      </trkpt>
      <trkpt lat="43.499021" lon="-8.158369">
        <ele>20.073</ele>
        <time>2019-06-20T17:11:44Z</time>
      </trkpt>
      <trkpt lat="43.498899" lon="-8.158311">
        <ele>19.185</ele>
        <time>2019-06-20T17:11:45Z</time>
      </trkpt>
      <trkpt lat="43.498770" lon="-8.158266">
        <ele>17.913</ele>
        <time>2019-06-20T17:11:46Z</time>
      </trkpt>
      <trkpt lat="43.498640" lon="-8.158215">
        <ele>17.108</ele>
        <time>2019-06-20T17:11:47Z</time>
      </trkpt>
      <trkpt lat="43.498504" lon="-8.158170">
        <ele>17.640</ele>
        <time>2019-06-20T17:11:48Z</time>
      </trkpt>
      <trkpt lat="43.498379" lon="-8.158123">
        <ele>18.484</ele>
        <time>2019-06-20T17:11:49Z</time>
      </trkpt>
      <trkpt lat="43.498245" lon="-8.158063">
        <ele>18.955</ele>
        <time>2019-06-20T17:11:50Z</time>
      </trkpt>
      <trkpt lat="43.498112" lon="-8.157996">
        <ele>19.421</ele>
        <time>2019-06-20T17:11:51Z</time>
      </trkpt>
      <trkpt lat="43.497998" lon="-8.157989">
        <ele>19.198</ele>
        <time>2019-06-20T17:11:52Z</time>
      </trkpt>
      <trkpt lat="43.497877" lon="-8.157938">
        <ele>18.839</ele>
        <time>2019-06-20T17:11:53Z</time>
      </trkpt>
      <trkpt lat="43.497738" lon="-8.157840">
        <ele>19.251</ele>
        <time>2019-06-20T17:11:54Z</time>
      </trkpt>
      <trkpt lat="43.497610" lon="-8.157786">
        <ele>19.338</ele>
        <time>2019-06-20T17:11:55Z</time>
      </trkpt>
      <trkpt lat="43.497477" lon="-8.157728">
        <ele>19.256</ele>
        <time>2019-06-20T17:11:56Z</time>
      </trkpt>
      <trkpt lat="43.497357" lon="-8.157708">
        <ele>18.659</ele>
        <time>2019-06-20T17:11:57Z</time>
      </trkpt>
      <trkpt lat="43.497229" lon="-8.157671">
        <ele>18.214</ele>
        <time>2019-06-20T17:11:58Z</time>
      </trkpt>
      <trkpt lat="43.497101" lon="-8.157618">
        <ele>17.208</ele>
        <time>2019-06-20T17:11:59Z</time>
      </trkpt>
      <trkpt lat="43.496947" lon="-8.157571">
        <ele>15.538</ele>
        <time>2019-06-20T17:12:00Z</time>
      </trkpt>
      <trkpt lat="43.496809" lon="-8.157497">
        <ele>15.032</ele>
        <time>2019-06-20T17:12:01Z</time>
      </trkpt>
      <trkpt lat="43.496676" lon="-8.157444">
        <ele>14.393</ele>
        <time>2019-06-20T17:12:02Z</time>
      </trkpt>
      <trkpt lat="43.496545" lon="-8.157397">
        <ele>14.539</ele>
        <time>2019-06-20T17:12:03Z</time>
      </trkpt>
      <trkpt lat="43.496406" lon="-8.157353">
        <ele>15.056</ele>
        <time>2019-06-20T17:12:04Z</time>
      </trkpt>
      <trkpt lat="43.496271" lon="-8.157331">
        <ele>15.277</ele>
        <time>2019-06-20T17:12:05Z</time>
      </trkpt>
      <trkpt lat="43.496133" lon="-8.157313">
        <ele>15.369</ele>
        <time>2019-06-20T17:12:06Z</time>
      </trkpt>
      <trkpt lat="43.496005" lon="-8.157333">
        <ele>15.656</ele>
        <time>2019-06-20T17:12:07Z</time>
      </trkpt>
      <trkpt lat="43.495888" lon="-8.157365">
        <ele>15.897</ele>
        <time>2019-06-20T17:12:08Z</time>
      </trkpt>
      <trkpt lat="43.495772" lon="-8.157410">
        <ele>15.923</ele>
        <time>2019-06-20T17:12:09Z</time>
      </trkpt>
      <trkpt lat="43.495685" lon="-8.157491">
        <ele>15.625</ele>
        <time>2019-06-20T17:12:10Z</time>
      </trkpt>
      <trkpt lat="43.495598" lon="-8.157588">
        <ele>15.308</ele>
        <time>2019-06-20T17:12:11Z</time>
      </trkpt>
      <trkpt lat="43.495504" lon="-8.157697">
        <ele>14.852</ele>
        <time>2019-06-20T17:12:12Z</time>
      </trkpt>
      <trkpt lat="43.495378" lon="-8.157808">
        <ele>14.636</ele>
        <time>2019-06-20T17:12:13Z</time>
      </trkpt>
      <trkpt lat="43.495262" lon="-8.157930">
        <ele>14.517</ele>
        <time>2019-06-20T17:12:14Z</time>
      </trkpt>
      <trkpt lat="43.495131" lon="-8.158071">
        <ele>14.583</ele>
        <time>2019-06-20T17:12:15Z</time>
      </trkpt>
      <trkpt lat="43.494994" lon="-8.158216">
        <ele>15.060</ele>
        <time>2019-06-20T17:12:16Z</time>
      </trkpt>
      <trkpt lat="43.494853" lon="-8.158371">
        <ele>16.011</ele>
        <time>2019-06-20T17:12:17Z</time>
      </trkpt>
      <trkpt lat="43.494703" lon="-8.158524">
        <ele>17.143</ele>
        <time>2019-06-20T17:12:18Z</time>
      </trkpt>
      <trkpt lat="43.494549" lon="-8.158664">
        <ele>18.040</ele>
        <time>2019-06-20T17:12:19Z</time>
      </trkpt>
      <trkpt lat="43.494416" lon="-8.158817">
        <ele>18.618</ele>
        <time>2019-06-20T17:12:20Z</time>
      </trkpt>
      <trkpt lat="43.494273" lon="-8.158963">
        <ele>20.298</ele>
        <time>2019-06-20T17:12:21Z</time>
      </trkpt>
      <trkpt lat="43.494133" lon="-8.159102">
        <ele>21.717</ele>
        <time>2019-06-20T17:12:22Z</time>
      </trkpt>
      <trkpt lat="43.494008" lon="-8.159236">
        <ele>22.608</ele>
        <time>2019-06-20T17:12:23Z</time>
      </trkpt>
      <trkpt lat="43.493889" lon="-8.159361">
        <ele>22.914</ele>
        <time>2019-06-20T17:12:24Z</time>
      </trkpt>
      <trkpt lat="43.493781" lon="-8.159481">
        <ele>22.228</ele>
        <time>2019-06-20T17:12:25Z</time>
      </trkpt>
      <trkpt lat="43.493668" lon="-8.159598">
        <ele>22.149</ele>
        <time>2019-06-20T17:12:26Z</time>
      </trkpt>
      <trkpt lat="43.493552" lon="-8.159714">
        <ele>22.055</ele>
        <time>2019-06-20T17:12:27Z</time>
      </trkpt>
      <trkpt lat="43.493437" lon="-8.159826">
        <ele>21.512</ele>
        <time>2019-06-20T17:12:28Z</time>
      </trkpt>
      <trkpt lat="43.493317" lon="-8.159940">
        <ele>21.473</ele>
        <time>2019-06-20T17:12:29Z</time>
      </trkpt>
      <trkpt lat="43.493191" lon="-8.160035">
        <ele>22.575</ele>
        <time>2019-06-20T17:12:30Z</time>
      </trkpt>
      <trkpt lat="43.493066" lon="-8.160119">
        <ele>23.912</ele>
        <time>2019-06-20T17:12:31Z</time>
      </trkpt>
      <trkpt lat="43.492934" lon="-8.160201">
        <ele>25.666</ele>
        <time>2019-06-20T17:12:32Z</time>
      </trkpt>
      <trkpt lat="43.492806" lon="-8.160287">
        <ele>27.529</ele>
        <time>2019-06-20T17:12:33Z</time>
      </trkpt>
      <trkpt lat="43.492676" lon="-8.160372">
        <ele>27.421</ele>
        <time>2019-06-20T17:12:34Z</time>
      </trkpt>
      <trkpt lat="43.492533" lon="-8.160463">
        <ele>27.308</ele>
        <time>2019-06-20T17:12:35Z</time>
      </trkpt>
      <trkpt lat="43.492385" lon="-8.160561">
        <ele>26.529</ele>
        <time>2019-06-20T17:12:36Z</time>
      </trkpt>
      <trkpt lat="43.492237" lon="-8.160659">
        <ele>24.983</ele>
        <time>2019-06-20T17:12:37Z</time>
      </trkpt>
      <trkpt lat="43.492079" lon="-8.160766">
        <ele>24.654</ele>
        <time>2019-06-20T17:12:38Z</time>
      </trkpt>
      <trkpt lat="43.491913" lon="-8.160870">
        <ele>25.160</ele>
        <time>2019-06-20T17:12:39Z</time>
      </trkpt>
      <trkpt lat="43.491747" lon="-8.160972">
        <ele>26.727</ele>
        <time>2019-06-20T17:12:40Z</time>
      </trkpt>
      <trkpt lat="43.491589" lon="-8.161083">
        <ele>28.038</ele>
        <time>2019-06-20T17:12:41Z</time>
      </trkpt>
      <trkpt lat="43.491428" lon="-8.161190">
        <ele>28.880</ele>
        <time>2019-06-20T17:12:42Z</time>
      </trkpt>
      <trkpt lat="43.491269" lon="-8.161302">
        <ele>28.517</ele>
        <time>2019-06-20T17:12:43Z</time>
      </trkpt>
      <trkpt lat="43.491113" lon="-8.161413">
        <ele>27.798</ele>
        <time>2019-06-20T17:12:44Z</time>
      </trkpt>
      <trkpt lat="43.490956" lon="-8.161526">
        <ele>27.415</ele>
        <time>2019-06-20T17:12:45Z</time>
      </trkpt>
      <trkpt lat="43.490796" lon="-8.161637">
        <ele>26.826</ele>
        <time>2019-06-20T17:12:46Z</time>
      </trkpt>
      <trkpt lat="43.490635" lon="-8.161754">
        <ele>27.308</ele>
        <time>2019-06-20T17:12:47Z</time>
      </trkpt>
      <trkpt lat="43.490474" lon="-8.161865">
        <ele>28.412</ele>
        <time>2019-06-20T17:12:48Z</time>
      </trkpt>
      <trkpt lat="43.490313" lon="-8.161979">
        <ele>29.216</ele>
        <time>2019-06-20T17:12:49Z</time>
      </trkpt>
      <trkpt lat="43.490157" lon="-8.162093">
        <ele>29.587</ele>
        <time>2019-06-20T17:12:50Z</time>
      </trkpt>
      <trkpt lat="43.489997" lon="-8.162203">
        <ele>30.273</ele>
        <time>2019-06-20T17:12:51Z</time>
      </trkpt>
      <trkpt lat="43.489845" lon="-8.162314">
        <ele>30.860</ele>
        <time>2019-06-20T17:12:52Z</time>
      </trkpt>
      <trkpt lat="43.489698" lon="-8.162422">
        <ele>31.051</ele>
        <time>2019-06-20T17:12:53Z</time>
      </trkpt>
      <trkpt lat="43.489555" lon="-8.162531">
        <ele>30.423</ele>
        <time>2019-06-20T17:12:54Z</time>
      </trkpt>
      <trkpt lat="43.489406" lon="-8.162644">
        <ele>29.440</ele>
        <time>2019-06-20T17:12:55Z</time>
      </trkpt>
      <trkpt lat="43.489254" lon="-8.162756">
        <ele>28.227</ele>
        <time>2019-06-20T17:12:56Z</time>
      </trkpt>
      <trkpt lat="43.489095" lon="-8.162871">
        <ele>27.968</ele>
        <time>2019-06-20T17:12:57Z</time>
      </trkpt>
      <trkpt lat="43.488935" lon="-8.162989">
        <ele>27.714</ele>
        <time>2019-06-20T17:12:58Z</time>
      </trkpt>
      <trkpt lat="43.488780" lon="-8.163116">
        <ele>28.408</ele>
        <time>2019-06-20T17:12:59Z</time>
      </trkpt>
      <trkpt lat="43.488635" lon="-8.163261">
        <ele>29.445</ele>
        <time>2019-06-20T17:13:00Z</time>
      </trkpt>
      <trkpt lat="43.488501" lon="-8.163420">
        <ele>29.969</ele>
        <time>2019-06-20T17:13:01Z</time>
      </trkpt>
      <trkpt lat="43.488377" lon="-8.163591">
        <ele>30.650</ele>
        <time>2019-06-20T17:13:02Z</time>
      </trkpt>
      <trkpt lat="43.488254" lon="-8.163758">
        <ele>30.736</ele>
        <time>2019-06-20T17:13:03Z</time>
      </trkpt>
      <trkpt lat="43.488135" lon="-8.163926">
        <ele>30.923</ele>
        <time>2019-06-20T17:13:04Z</time>
      </trkpt>
      <trkpt lat="43.488022" lon="-8.164085">
        <ele>31.344</ele>
        <time>2019-06-20T17:13:05Z</time>
      </trkpt>
      <trkpt lat="43.487915" lon="-8.164237">
        <ele>32.546</ele>
        <time>2019-06-20T17:13:06Z</time>
      </trkpt>
      <trkpt lat="43.487814" lon="-8.164383">
        <ele>33.753</ele>
        <time>2019-06-20T17:13:07Z</time>
      </trkpt>
      <trkpt lat="43.487710" lon="-8.164528">
        <ele>34.469</ele>
        <time>2019-06-20T17:13:08Z</time>
      </trkpt>
      <trkpt lat="43.487606" lon="-8.164665">
        <ele>34.904</ele>
        <time>2019-06-20T17:13:09Z</time>
      </trkpt>
      <trkpt lat="43.487502" lon="-8.164786">
        <ele>35.724</ele>
        <time>2019-06-20T17:13:10Z</time>
      </trkpt>
      <trkpt lat="43.487401" lon="-8.164895">
        <ele>36.808</ele>
        <time>2019-06-20T17:13:11Z</time>
      </trkpt>
      <trkpt lat="43.487301" lon="-8.164984">
        <ele>37.989</ele>
        <time>2019-06-20T17:13:12Z</time>
      </trkpt>
      <trkpt lat="43.487198" lon="-8.165058">
        <ele>38.833</ele>
        <time>2019-06-20T17:13:13Z</time>
      </trkpt>
      <trkpt lat="43.487093" lon="-8.165112">
        <ele>39.184</ele>
        <time>2019-06-20T17:13:14Z</time>
      </trkpt>
      <trkpt lat="43.486985" lon="-8.165164">
        <ele>39.520</ele>
        <time>2019-06-20T17:13:15Z</time>
      </trkpt>
      <trkpt lat="43.486869" lon="-8.165215">
        <ele>39.577</ele>
        <time>2019-06-20T17:13:16Z</time>
      </trkpt>
      <trkpt lat="43.486750" lon="-8.165257">
        <ele>39.118</ele>
        <time>2019-06-20T17:13:17Z</time>
      </trkpt>
      <trkpt lat="43.486626" lon="-8.165299">
        <ele>38.790</ele>
        <time>2019-06-20T17:13:18Z</time>
      </trkpt>
      <trkpt lat="43.486488" lon="-8.165338">
        <ele>38.277</ele>
        <time>2019-06-20T17:13:19Z</time>
      </trkpt>
      <trkpt lat="43.486355" lon="-8.165369">
        <ele>38.034</ele>
        <time>2019-06-20T17:13:20Z</time>
      </trkpt>
      <trkpt lat="43.486212" lon="-8.165387">
        <ele>38.155</ele>
        <time>2019-06-20T17:13:21Z</time>
      </trkpt>
      <trkpt lat="43.486068" lon="-8.165421">
        <ele>38.210</ele>
        <time>2019-06-20T17:13:22Z</time>
      </trkpt>
      <trkpt lat="43.485927" lon="-8.165420">
        <ele>39.008</ele>
        <time>2019-06-20T17:13:23Z</time>
      </trkpt>
      <trkpt lat="43.485792" lon="-8.165422">
        <ele>39.446</ele>
        <time>2019-06-20T17:13:24Z</time>
      </trkpt>
      <trkpt lat="43.485656" lon="-8.165410">
        <ele>39.220</ele>
        <time>2019-06-20T17:13:25Z</time>
      </trkpt>
      <trkpt lat="43.485514" lon="-8.165389">
        <ele>38.891</ele>
        <time>2019-06-20T17:13:26Z</time>
      </trkpt>
      <trkpt lat="43.485382" lon="-8.165361">
        <ele>37.717</ele>
        <time>2019-06-20T17:13:27Z</time>
      </trkpt>
      <trkpt lat="43.485246" lon="-8.165330">
        <ele>36.594</ele>
        <time>2019-06-20T17:13:28Z</time>
      </trkpt>
      <trkpt lat="43.485136" lon="-8.165290">
        <ele>35.435</ele>
        <time>2019-06-20T17:13:29Z</time>
      </trkpt>
      <trkpt lat="43.485013" lon="-8.165227">
        <ele>34.527</ele>
        <time>2019-06-20T17:13:30Z</time>
      </trkpt>
      <trkpt lat="43.484887" lon="-8.165160">
        <ele>33.844</ele>
        <time>2019-06-20T17:13:31Z</time>
      </trkpt>
      <trkpt lat="43.484754" lon="-8.165092">
        <ele>33.342</ele>
        <time>2019-06-20T17:13:32Z</time>
      </trkpt>
      <trkpt lat="43.484624" lon="-8.165038">
        <ele>33.522</ele>
        <time>2019-06-20T17:13:33Z</time>
      </trkpt>
      <trkpt lat="43.484484" lon="-8.164999">
        <ele>34.014</ele>
        <time>2019-06-20T17:13:34Z</time>
      </trkpt>
      <trkpt lat="43.484338" lon="-8.164981">
        <ele>33.308</ele>
        <time>2019-06-20T17:13:35Z</time>
      </trkpt>
      <trkpt lat="43.484221" lon="-8.164962">
        <ele>32.697</ele>
        <time>2019-06-20T17:13:36Z</time>
      </trkpt>
      <trkpt lat="43.484095" lon="-8.164976">
        <ele>33.221</ele>
        <time>2019-06-20T17:13:37Z</time>
      </trkpt>
      <trkpt lat="43.483960" lon="-8.165014">
        <ele>34.942</ele>
        <time>2019-06-20T17:13:38Z</time>
      </trkpt>
      <trkpt lat="43.483831" lon="-8.165069">
        <ele>36.148</ele>
        <time>2019-06-20T17:13:39Z</time>
      </trkpt>
      <trkpt lat="43.483704" lon="-8.165155">
        <ele>36.455</ele>
        <time>2019-06-20T17:13:40Z</time>
      </trkpt>
      <trkpt lat="43.483577" lon="-8.165253">
        <ele>36.446</ele>
        <time>2019-06-20T17:13:41Z</time>
      </trkpt>
      <trkpt lat="43.483455" lon="-8.165358">
        <ele>36.448</ele>
        <time>2019-06-20T17:13:42Z</time>
      </trkpt>
      <trkpt lat="43.483344" lon="-8.165483">
        <ele>36.465</ele>
        <time>2019-06-20T17:13:43Z</time>
      </trkpt>
      <trkpt lat="43.483227" lon="-8.165577">
        <ele>37.231</ele>
        <time>2019-06-20T17:13:44Z</time>
      </trkpt>
      <trkpt lat="43.483093" lon="-8.165676">
        <ele>38.061</ele>
        <time>2019-06-20T17:13:45Z</time>
      </trkpt>
      <trkpt lat="43.482966" lon="-8.165764">
        <ele>38.207</ele>
        <time>2019-06-20T17:13:46Z</time>
      </trkpt>
      <trkpt lat="43.482832" lon="-8.165848">
        <ele>37.508</ele>
        <time>2019-06-20T17:13:47Z</time>
      </trkpt>
      <trkpt lat="43.482702" lon="-8.165935">
        <ele>36.336</ele>
        <time>2019-06-20T17:13:48Z</time>
      </trkpt>
      <trkpt lat="43.482570" lon="-8.166020">
        <ele>35.130</ele>
        <time>2019-06-20T17:13:49Z</time>
      </trkpt>
      <trkpt lat="43.482432" lon="-8.166100">
        <ele>34.491</ele>
        <time>2019-06-20T17:13:50Z</time>
      </trkpt>
      <trkpt lat="43.482294" lon="-8.166174">
        <ele>33.747</ele>
        <time>2019-06-20T17:13:51Z</time>
      </trkpt>
      <trkpt lat="43.482149" lon="-8.166226">
        <ele>33.554</ele>
        <time>2019-06-20T17:13:52Z</time>
      </trkpt>
      <trkpt lat="43.482008" lon="-8.166270">
        <ele>33.245</ele>
        <time>2019-06-20T17:13:53Z</time>
      </trkpt>
      <trkpt lat="43.481856" lon="-8.166301">
        <ele>33.487</ele>
        <time>2019-06-20T17:13:54Z</time>
      </trkpt>
      <trkpt lat="43.481708" lon="-8.166318">
        <ele>34.074</ele>
        <time>2019-06-20T17:13:55Z</time>
      </trkpt>
      <trkpt lat="43.481557" lon="-8.166317">
        <ele>34.441</ele>
        <time>2019-06-20T17:13:56Z</time>
      </trkpt>
      <trkpt lat="43.481414" lon="-8.166312">
        <ele>34.581</ele>
        <time>2019-06-20T17:13:57Z</time>
      </trkpt>
      <trkpt lat="43.481269" lon="-8.166306">
        <ele>34.609</ele>
        <time>2019-06-20T17:13:58Z</time>
      </trkpt>
      <trkpt lat="43.481116" lon="-8.166310">
        <ele>34.608</ele>
        <time>2019-06-20T17:13:59Z</time>
      </trkpt>
      <trkpt lat="43.480977" lon="-8.166298">
        <ele>33.827</ele>
        <time>2019-06-20T17:14:00Z</time>
      </trkpt>
      <trkpt lat="43.480847" lon="-8.166274">
        <ele>33.391</ele>
        <time>2019-06-20T17:14:01Z</time>
      </trkpt>
      <trkpt lat="43.480724" lon="-8.166233">
        <ele>33.542</ele>
        <time>2019-06-20T17:14:02Z</time>
      </trkpt>
      <trkpt lat="43.480583" lon="-8.166228">
        <ele>33.468</ele>
        <time>2019-06-20T17:14:03Z</time>
      </trkpt>
      <trkpt lat="43.480443" lon="-8.166209">
        <ele>34.145</ele>
        <time>2019-06-20T17:14:04Z</time>
      </trkpt>
      <trkpt lat="43.480303" lon="-8.166193">
        <ele>35.036</ele>
        <time>2019-06-20T17:14:05Z</time>
      </trkpt>
      <trkpt lat="43.480165" lon="-8.166166">
        <ele>34.648</ele>
        <time>2019-06-20T17:14:06Z</time>
      </trkpt>
      <trkpt lat="43.480031" lon="-8.166146">
        <ele>33.815</ele>
        <time>2019-06-20T17:14:07Z</time>
      </trkpt>
      <trkpt lat="43.479889" lon="-8.166117">
        <ele>33.116</ele>
        <time>2019-06-20T17:14:08Z</time>
      </trkpt>
      <trkpt lat="43.479755" lon="-8.166069">
        <ele>32.476</ele>
        <time>2019-06-20T17:14:09Z</time>
      </trkpt>
      <trkpt lat="43.479615" lon="-8.166012">
        <ele>32.413</ele>
        <time>2019-06-20T17:14:10Z</time>
      </trkpt>
      <trkpt lat="43.479478" lon="-8.165950">
        <ele>32.608</ele>
        <time>2019-06-20T17:14:11Z</time>
      </trkpt>
      <trkpt lat="43.479310" lon="-8.165866">
        <ele>32.874</ele>
        <time>2019-06-20T17:14:12Z</time>
      </trkpt>
      <trkpt lat="43.479134" lon="-8.165795">
        <ele>33.248</ele>
        <time>2019-06-20T17:14:13Z</time>
      </trkpt>
      <trkpt lat="43.478948" lon="-8.165731">
        <ele>32.559</ele>
        <time>2019-06-20T17:14:14Z</time>
      </trkpt>
      <trkpt lat="43.478764" lon="-8.165654">
        <ele>31.945</ele>
        <time>2019-06-20T17:14:15Z</time>
      </trkpt>
      <trkpt lat="43.478592" lon="-8.165581">
        <ele>31.692</ele>
        <time>2019-06-20T17:14:16Z</time>
      </trkpt>
      <trkpt lat="43.478429" lon="-8.165512">
        <ele>31.763</ele>
        <time>2019-06-20T17:14:17Z</time>
      </trkpt>
      <trkpt lat="43.478290" lon="-8.165456">
        <ele>31.855</ele>
        <time>2019-06-20T17:14:18Z</time>
      </trkpt>
      <trkpt lat="43.478163" lon="-8.165415">
        <ele>32.372</ele>
        <time>2019-06-20T17:14:19Z</time>
      </trkpt>
      <trkpt lat="43.478036" lon="-8.165383">
        <ele>32.661</ele>
        <time>2019-06-20T17:14:20Z</time>
      </trkpt>
      <trkpt lat="43.477926" lon="-8.165373">
        <ele>32.821</ele>
        <time>2019-06-20T17:14:21Z</time>
      </trkpt>
      <trkpt lat="43.477821" lon="-8.165390">
        <ele>32.913</ele>
        <time>2019-06-20T17:14:22Z</time>
      </trkpt>
      <trkpt lat="43.477712" lon="-8.165437">
        <ele>33.008</ele>
        <time>2019-06-20T17:14:23Z</time>
      </trkpt>
      <trkpt lat="43.477612" lon="-8.165497">
        <ele>33.089</ele>
        <time>2019-06-20T17:14:24Z</time>
      </trkpt>
      <trkpt lat="43.477506" lon="-8.165573">
        <ele>32.983</ele>
        <time>2019-06-20T17:14:25Z</time>
      </trkpt>
      <trkpt lat="43.477399" lon="-8.165654">
        <ele>33.124</ele>
        <time>2019-06-20T17:14:26Z</time>
      </trkpt>
      <trkpt lat="43.477298" lon="-8.165736">
        <ele>33.590</ele>
        <time>2019-06-20T17:14:27Z</time>
      </trkpt>
      <trkpt lat="43.477199" lon="-8.165823">
        <ele>34.247</ele>
        <time>2019-06-20T17:14:28Z</time>
      </trkpt>
      <trkpt lat="43.477090" lon="-8.165892">
        <ele>34.678</ele>
        <time>2019-06-20T17:14:29Z</time>
      </trkpt>
      <trkpt lat="43.476981" lon="-8.165966">
        <ele>34.850</ele>
        <time>2019-06-20T17:14:30Z</time>
      </trkpt>
      <trkpt lat="43.476870" lon="-8.166048">
        <ele>34.437</ele>
        <time>2019-06-20T17:14:31Z</time>
      </trkpt>
      <trkpt lat="43.476757" lon="-8.166126">
        <ele>33.963</ele>
        <time>2019-06-20T17:14:32Z</time>
      </trkpt>
      <trkpt lat="43.476653" lon="-8.166188">
        <ele>33.744</ele>
        <time>2019-06-20T17:14:33Z</time>
      </trkpt>
      <trkpt lat="43.476536" lon="-8.166247">
        <ele>33.518</ele>
        <time>2019-06-20T17:14:34Z</time>
      </trkpt>
      <trkpt lat="43.476425" lon="-8.166295">
        <ele>33.308</ele>
        <time>2019-06-20T17:14:35Z</time>
      </trkpt>
      <trkpt lat="43.476310" lon="-8.166337">
        <ele>32.979</ele>
        <time>2019-06-20T17:14:36Z</time>
      </trkpt>
      <trkpt lat="43.476197" lon="-8.166369">
        <ele>32.443</ele>
        <time>2019-06-20T17:14:37Z</time>
      </trkpt>
      <trkpt lat="43.476112" lon="-8.166353">
        <ele>32.184</ele>
        <time>2019-06-20T17:14:38Z</time>
      </trkpt>
      <trkpt lat="43.476023" lon="-8.166352">
        <ele>32.260</ele>
        <time>2019-06-20T17:14:39Z</time>
      </trkpt>
      <trkpt lat="43.475938" lon="-8.166351">
        <ele>32.247</ele>
        <time>2019-06-20T17:14:40Z</time>
      </trkpt>
      <trkpt lat="43.475877" lon="-8.166334">
        <ele>32.488</ele>
        <time>2019-06-20T17:14:41Z</time>
      </trkpt>
      <trkpt lat="43.475800" lon="-8.166313">
        <ele>32.640</ele>
        <time>2019-06-20T17:14:42Z</time>
      </trkpt>
      <trkpt lat="43.475743" lon="-8.166263">
        <ele>33.237</ele>
        <time>2019-06-20T17:14:43Z</time>
      </trkpt>
      <trkpt lat="43.475685" lon="-8.166234">
        <ele>33.788</ele>
        <time>2019-06-20T17:14:44Z</time>
      </trkpt>
      <trkpt lat="43.475620" lon="-8.166242">
        <ele>33.924</ele>
        <time>2019-06-20T17:14:45Z</time>
      </trkpt>
      <trkpt lat="43.475573" lon="-8.166236">
        <ele>34.126</ele>
        <time>2019-06-20T17:14:46Z</time>
      </trkpt>
      <trkpt lat="43.475529" lon="-8.166223">
        <ele>34.108</ele>
        <time>2019-06-20T17:14:47Z</time>
      </trkpt>
      <trkpt lat="43.475486" lon="-8.166179">
        <ele>34.211</ele>
        <time>2019-06-20T17:14:49Z</time>
      </trkpt>
      <trkpt lat="43.475438" lon="-8.166142">
        <ele>34.015</ele>
        <time>2019-06-20T17:15:42Z</time>
      </trkpt>
      <trkpt lat="43.475356" lon="-8.166028">
        <ele>33.966</ele>
        <time>2019-06-20T17:15:44Z</time>
      </trkpt>
      <trkpt lat="43.475313" lon="-8.165949">
        <ele>34.172</ele>
        <time>2019-06-20T17:15:45Z</time>
      </trkpt>
      <trkpt lat="43.475281" lon="-8.165832">
        <ele>35.029</ele>
        <time>2019-06-20T17:15:46Z</time>
      </trkpt>
      <trkpt lat="43.475277" lon="-8.165673">
        <ele>35.630</ele>
        <time>2019-06-20T17:15:47Z</time>
      </trkpt>
      <trkpt lat="43.475242" lon="-8.165510">
        <ele>35.492</ele>
        <time>2019-06-20T17:15:48Z</time>
      </trkpt>
      <trkpt lat="43.475210" lon="-8.165337">
        <ele>34.829</ele>
        <time>2019-06-20T17:15:49Z</time>
      </trkpt>
      <trkpt lat="43.475233" lon="-8.165092">
        <ele>34.648</ele>
        <time>2019-06-20T17:15:50Z</time>
      </trkpt>
      <trkpt lat="43.475178" lon="-8.164893">
        <ele>33.761</ele>
        <time>2019-06-20T17:15:51Z</time>
      </trkpt>
      <trkpt lat="43.475143" lon="-8.164685">
        <ele>33.417</ele>
        <time>2019-06-20T17:15:52Z</time>
      </trkpt>
      <trkpt lat="43.475120" lon="-8.164489">
        <ele>32.508</ele>
        <time>2019-06-20T17:15:53Z</time>
      </trkpt>
      <trkpt lat="43.475090" lon="-8.164291">
        <ele>31.457</ele>
        <time>2019-06-20T17:15:54Z</time>
      </trkpt>
      <trkpt lat="43.475057" lon="-8.164092">
        <ele>30.611</ele>
        <time>2019-06-20T17:15:55Z</time>
      </trkpt>
      <trkpt lat="43.475031" lon="-8.163900">
        <ele>30.222</ele>
        <time>2019-06-20T17:15:56Z</time>
      </trkpt>
      <trkpt lat="43.475002" lon="-8.163710">
        <ele>30.778</ele>
        <time>2019-06-20T17:15:57Z</time>
      </trkpt>
      <trkpt lat="43.474974" lon="-8.163534">
        <ele>30.745</ele>
        <time>2019-06-20T17:15:58Z</time>
      </trkpt>
      <trkpt lat="43.474944" lon="-8.163365">
        <ele>30.476</ele>
        <time>2019-06-20T17:15:59Z</time>
      </trkpt>
      <trkpt lat="43.474922" lon="-8.163198">
        <ele>30.688</ele>
        <time>2019-06-20T17:16:00Z</time>
      </trkpt>
      <trkpt lat="43.474902" lon="-8.163042">
        <ele>31.035</ele>
        <time>2019-06-20T17:16:01Z</time>
      </trkpt>
      <trkpt lat="43.474886" lon="-8.162901">
        <ele>31.678</ele>
        <time>2019-06-20T17:16:02Z</time>
      </trkpt>
      <trkpt lat="43.474859" lon="-8.162784">
        <ele>32.033</ele>
        <time>2019-06-20T17:16:03Z</time>
      </trkpt>
      <trkpt lat="43.474838" lon="-8.162679">
        <ele>32.026</ele>
        <time>2019-06-20T17:16:04Z</time>
      </trkpt>
      <trkpt lat="43.474815" lon="-8.162580">
        <ele>32.108</ele>
        <time>2019-06-20T17:16:05Z</time>
      </trkpt>
      <trkpt lat="43.474796" lon="-8.162486">
        <ele>32.280</ele>
        <time>2019-06-20T17:16:07Z</time>
      </trkpt>
      <trkpt lat="43.474772" lon="-8.162423">
        <ele>32.094</ele>
        <time>2019-06-20T17:16:09Z</time>
      </trkpt>
      <trkpt lat="43.474724" lon="-8.162346">
        <ele>31.515</ele>
        <time>2019-06-20T17:16:42Z</time>
      </trkpt>
      <trkpt lat="43.474702" lon="-8.162185">
        <ele>31.111</ele>
        <time>2019-06-20T17:16:44Z</time>
      </trkpt>
      <trkpt lat="43.474688" lon="-8.162073">
        <ele>31.568</ele>
        <time>2019-06-20T17:16:45Z</time>
      </trkpt>
      <trkpt lat="43.474676" lon="-8.161928">
        <ele>31.999</ele>
        <time>2019-06-20T17:16:46Z</time>
      </trkpt>
      <trkpt lat="43.474643" lon="-8.161770">
        <ele>32.251</ele>
        <time>2019-06-20T17:16:47Z</time>
      </trkpt>
      <trkpt lat="43.474610" lon="-8.161620">
        <ele>32.598</ele>
        <time>2019-06-20T17:16:48Z</time>
      </trkpt>
      <trkpt lat="43.474568" lon="-8.161503">
        <ele>33.199</ele>
        <time>2019-06-20T17:16:49Z</time>
      </trkpt>
      <trkpt lat="43.474505" lon="-8.161396">
        <ele>33.407</ele>
        <time>2019-06-20T17:16:50Z</time>
      </trkpt>
      <trkpt lat="43.474414" lon="-8.161324">
        <ele>33.227</ele>
        <time>2019-06-20T17:16:51Z</time>
      </trkpt>
      <trkpt lat="43.474324" lon="-8.161262">
        <ele>32.808</ele>
        <time>2019-06-20T17:16:52Z</time>
      </trkpt>
      <trkpt lat="43.474222" lon="-8.161241">
        <ele>32.052</ele>
        <time>2019-06-20T17:16:53Z</time>
      </trkpt>
      <trkpt lat="43.474111" lon="-8.161233">
        <ele>31.296</ele>
        <time>2019-06-20T17:16:54Z</time>
      </trkpt>
      <trkpt lat="43.473992" lon="-8.161257">
        <ele>30.517</ele>
        <time>2019-06-20T17:16:55Z</time>
      </trkpt>
      <trkpt lat="43.473870" lon="-8.161297">
        <ele>30.073</ele>
        <time>2019-06-20T17:16:56Z</time>
      </trkpt>
      <trkpt lat="43.473736" lon="-8.161337">
        <ele>30.420</ele>
        <time>2019-06-20T17:16:57Z</time>
      </trkpt>
      <trkpt lat="43.473592" lon="-8.161377">
        <ele>31.171</ele>
        <time>2019-06-20T17:16:58Z</time>
      </trkpt>
      <trkpt lat="43.473444" lon="-8.161420">
        <ele>32.283</ele>
        <time>2019-06-20T17:16:59Z</time>
      </trkpt>
      <trkpt lat="43.473291" lon="-8.161458">
        <ele>33.160</ele>
        <time>2019-06-20T17:17:00Z</time>
      </trkpt>
      <trkpt lat="43.473135" lon="-8.161501">
        <ele>33.457</ele>
        <time>2019-06-20T17:17:01Z</time>
      </trkpt>
      <trkpt lat="43.472964" lon="-8.161545">
        <ele>33.800</ele>
        <time>2019-06-20T17:17:02Z</time>
      </trkpt>
      <trkpt lat="43.472789" lon="-8.161597">
        <ele>34.220</ele>
        <time>2019-06-20T17:17:03Z</time>
      </trkpt>
      <trkpt lat="43.472606" lon="-8.161634">
        <ele>34.308</ele>
        <time>2019-06-20T17:17:04Z</time>
      </trkpt>
      <trkpt lat="43.472418" lon="-8.161670">
        <ele>34.328</ele>
        <time>2019-06-20T17:17:05Z</time>
      </trkpt>
      <trkpt lat="43.472233" lon="-8.161707">
        <ele>35.052</ele>
        <time>2019-06-20T17:17:06Z</time>
      </trkpt>
      <trkpt lat="43.472045" lon="-8.161742">
        <ele>35.963</ele>
        <time>2019-06-20T17:17:07Z</time>
      </trkpt>
      <trkpt lat="43.471854" lon="-8.161777">
        <ele>36.589</ele>
        <time>2019-06-20T17:17:08Z</time>
      </trkpt>
      <trkpt lat="43.471661" lon="-8.161807">
        <ele>37.076</ele>
        <time>2019-06-20T17:17:09Z</time>
      </trkpt>
      <trkpt lat="43.471475" lon="-8.161832">
        <ele>36.437</ele>
        <time>2019-06-20T17:17:10Z</time>
      </trkpt>
      <trkpt lat="43.471296" lon="-8.161859">
        <ele>36.679</ele>
        <time>2019-06-20T17:17:11Z</time>
      </trkpt>
      <trkpt lat="43.471126" lon="-8.161882">
        <ele>37.696</ele>
        <time>2019-06-20T17:17:12Z</time>
      </trkpt>
      <trkpt lat="43.470957" lon="-8.161909">
        <ele>39.677</ele>
        <time>2019-06-20T17:17:13Z</time>
      </trkpt>
      <trkpt lat="43.470780" lon="-8.161943">
        <ele>41.661</ele>
        <time>2019-06-20T17:17:14Z</time>
      </trkpt>
      <trkpt lat="43.470617" lon="-8.161971">
        <ele>43.127</ele>
        <time>2019-06-20T17:17:15Z</time>
      </trkpt>
      <trkpt lat="43.470456" lon="-8.161991">
        <ele>44.008</ele>
        <time>2019-06-20T17:17:16Z</time>
      </trkpt>
      <trkpt lat="43.470297" lon="-8.162015">
        <ele>44.460</ele>
        <time>2019-06-20T17:17:17Z</time>
      </trkpt>
      <trkpt lat="43.470146" lon="-8.162036">
        <ele>44.824</ele>
        <time>2019-06-20T17:17:18Z</time>
      </trkpt>
      <trkpt lat="43.470010" lon="-8.162054">
        <ele>45.295</ele>
        <time>2019-06-20T17:17:19Z</time>
      </trkpt>
      <trkpt lat="43.469880" lon="-8.162073">
        <ele>46.661</ele>
        <time>2019-06-20T17:17:20Z</time>
      </trkpt>
      <trkpt lat="43.469753" lon="-8.162088">
        <ele>48.178</ele>
        <time>2019-06-20T17:17:21Z</time>
      </trkpt>
      <trkpt lat="43.469614" lon="-8.162109">
        <ele>48.879</ele>
        <time>2019-06-20T17:17:22Z</time>
      </trkpt>
      <trkpt lat="43.469470" lon="-8.162130">
        <ele>49.231</ele>
        <time>2019-06-20T17:17:23Z</time>
      </trkpt>
      <trkpt lat="43.469310" lon="-8.162152">
        <ele>49.478</ele>
        <time>2019-06-20T17:17:24Z</time>
      </trkpt>
      <trkpt lat="43.469142" lon="-8.162180">
        <ele>49.497</ele>
        <time>2019-06-20T17:17:25Z</time>
      </trkpt>
      <trkpt lat="43.468970" lon="-8.162199">
        <ele>49.923</ele>
        <time>2019-06-20T17:17:26Z</time>
      </trkpt>
      <trkpt lat="43.468800" lon="-8.162206">
        <ele>50.525</ele>
        <time>2019-06-20T17:17:27Z</time>
      </trkpt>
      <trkpt lat="43.468633" lon="-8.162201">
        <ele>51.108</ele>
        <time>2019-06-20T17:17:28Z</time>
      </trkpt>
      <trkpt lat="43.468469" lon="-8.162180">
        <ele>51.992</ele>
        <time>2019-06-20T17:17:29Z</time>
      </trkpt>
      <trkpt lat="43.468303" lon="-8.162128">
        <ele>52.736</ele>
        <time>2019-06-20T17:17:30Z</time>
      </trkpt>
      <trkpt lat="43.468123" lon="-8.162070">
        <ele>53.157</ele>
        <time>2019-06-20T17:17:31Z</time>
      </trkpt>
      <trkpt lat="43.467935" lon="-8.161995">
        <ele>54.093</ele>
        <time>2019-06-20T17:17:32Z</time>
      </trkpt>
      <trkpt lat="43.467742" lon="-8.161913">
        <ele>55.050</ele>
        <time>2019-06-20T17:17:33Z</time>
      </trkpt>
      <trkpt lat="43.467548" lon="-8.161833">
        <ele>54.881</ele>
        <time>2019-06-20T17:17:34Z</time>
      </trkpt>
      <trkpt lat="43.467350" lon="-8.161747">
        <ele>54.823</ele>
        <time>2019-06-20T17:17:35Z</time>
      </trkpt>
      <trkpt lat="43.467166" lon="-8.161653">
        <ele>55.260</ele>
        <time>2019-06-20T17:17:36Z</time>
      </trkpt>
      <trkpt lat="43.466995" lon="-8.161585">
        <ele>56.291</ele>
        <time>2019-06-20T17:17:37Z</time>
      </trkpt>
      <trkpt lat="43.466829" lon="-8.161518">
        <ele>56.981</ele>
        <time>2019-06-20T17:17:38Z</time>
      </trkpt>
      <trkpt lat="43.466657" lon="-8.161449">
        <ele>57.919</ele>
        <time>2019-06-20T17:17:39Z</time>
      </trkpt>
      <trkpt lat="43.466486" lon="-8.161401">
        <ele>57.608</ele>
        <time>2019-06-20T17:17:40Z</time>
      </trkpt>
      <trkpt lat="43.466341" lon="-8.161335">
        <ele>57.612</ele>
        <time>2019-06-20T17:17:41Z</time>
      </trkpt>
      <trkpt lat="43.466271" lon="-8.161282">
        <ele>58.146</ele>
        <time>2019-06-20T17:17:42Z</time>
      </trkpt>
      <trkpt lat="43.466154" lon="-8.161229">
        <ele>58.577</ele>
        <time>2019-06-20T17:17:43Z</time>
      </trkpt>
      <trkpt lat="43.466065" lon="-8.161185">
        <ele>58.893</ele>
        <time>2019-06-20T17:17:44Z</time>
      </trkpt>
      <trkpt lat="43.465969" lon="-8.161132">
        <ele>59.230</ele>
        <time>2019-06-20T17:17:45Z</time>
      </trkpt>
      <trkpt lat="43.465851" lon="-8.161075">
        <ele>59.721</ele>
        <time>2019-06-20T17:17:46Z</time>
      </trkpt>
      <trkpt lat="43.465735" lon="-8.160984">
        <ele>61.853</ele>
        <time>2019-06-20T17:17:47Z</time>
      </trkpt>
      <trkpt lat="43.465627" lon="-8.160872">
        <ele>64.240</ele>
        <time>2019-06-20T17:17:48Z</time>
      </trkpt>
      <trkpt lat="43.465509" lon="-8.160798">
        <ele>66.163</ele>
        <time>2019-06-20T17:17:49Z</time>
      </trkpt>
      <trkpt lat="43.465411" lon="-8.160700">
        <ele>68.544</ele>
        <time>2019-06-20T17:17:50Z</time>
      </trkpt>
      <trkpt lat="43.465319" lon="-8.160620">
        <ele>70.118</ele>
        <time>2019-06-20T17:17:51Z</time>
      </trkpt>
      <trkpt lat="43.465224" lon="-8.160533">
        <ele>71.308</ele>
        <time>2019-06-20T17:17:52Z</time>
      </trkpt>
      <trkpt lat="43.465121" lon="-8.160438">
        <ele>72.549</ele>
        <time>2019-06-20T17:17:53Z</time>
      </trkpt>
      <trkpt lat="43.465027" lon="-8.160345">
        <ele>74.013</ele>
        <time>2019-06-20T17:17:54Z</time>
      </trkpt>
      <trkpt lat="43.464925" lon="-8.160253">
        <ele>74.814</ele>
        <time>2019-06-20T17:17:55Z</time>
      </trkpt>
      <trkpt lat="43.464829" lon="-8.160158">
        <ele>75.540</ele>
        <time>2019-06-20T17:17:56Z</time>
      </trkpt>
      <trkpt lat="43.464726" lon="-8.160057">
        <ele>76.267</ele>
        <time>2019-06-20T17:17:57Z</time>
      </trkpt>
      <trkpt lat="43.464625" lon="-8.159967">
        <ele>75.888</ele>
        <time>2019-06-20T17:17:58Z</time>
      </trkpt>
      <trkpt lat="43.464516" lon="-8.159878">
        <ele>75.720</ele>
        <time>2019-06-20T17:17:59Z</time>
      </trkpt>
      <trkpt lat="43.464406" lon="-8.159796">
        <ele>76.177</ele>
        <time>2019-06-20T17:18:00Z</time>
      </trkpt>
      <trkpt lat="43.464292" lon="-8.159726">
        <ele>76.812</ele>
        <time>2019-06-20T17:18:01Z</time>
      </trkpt>
      <trkpt lat="43.464159" lon="-8.159684">
        <ele>76.932</ele>
        <time>2019-06-20T17:18:02Z</time>
      </trkpt>
      <trkpt lat="43.464033" lon="-8.159660">
        <ele>77.005</ele>
        <time>2019-06-20T17:18:03Z</time>
      </trkpt>
      <trkpt lat="43.463904" lon="-8.159666">
        <ele>76.308</ele>
        <time>2019-06-20T17:18:04Z</time>
      </trkpt>
      <trkpt lat="43.463776" lon="-8.159700">
        <ele>77.014</ele>
        <time>2019-06-20T17:18:05Z</time>
      </trkpt>
      <trkpt lat="43.463639" lon="-8.159749">
        <ele>78.388</ele>
        <time>2019-06-20T17:18:06Z</time>
      </trkpt>
      <trkpt lat="43.463541" lon="-8.159892">
        <ele>78.059</ele>
        <time>2019-06-20T17:18:07Z</time>
      </trkpt>
      <trkpt lat="43.463457" lon="-8.160064">
        <ele>77.955</ele>
        <time>2019-06-20T17:18:08Z</time>
      </trkpt>
      <trkpt lat="43.463370" lon="-8.160236">
        <ele>79.842</ele>
        <time>2019-06-20T17:18:09Z</time>
      </trkpt>
      <trkpt lat="43.463321" lon="-8.160405">
        <ele>80.693</ele>
        <time>2019-06-20T17:18:10Z</time>
      </trkpt>
      <trkpt lat="43.463391" lon="-8.160608">
        <ele>77.145</ele>
        <time>2019-06-20T17:18:11Z</time>
      </trkpt>
      <trkpt lat="43.463405" lon="-8.160798">
        <ele>76.752</ele>
        <time>2019-06-20T17:18:12Z</time>
      </trkpt>
      <trkpt lat="43.463421" lon="-8.160994">
        <ele>77.743</ele>
        <time>2019-06-20T17:18:13Z</time>
      </trkpt>
      <trkpt lat="43.463444" lon="-8.161190">
        <ele>78.564</ele>
        <time>2019-06-20T17:18:14Z</time>
      </trkpt>
      <trkpt lat="43.463456" lon="-8.161390">
        <ele>79.510</ele>
        <time>2019-06-20T17:18:15Z</time>
      </trkpt>
      <trkpt lat="43.463447" lon="-8.161586">
        <ele>81.608</ele>
        <time>2019-06-20T17:18:16Z</time>
      </trkpt>
      <trkpt lat="43.463442" lon="-8.161787">
        <ele>82.847</ele>
        <time>2019-06-20T17:18:17Z</time>
      </trkpt>
      <trkpt lat="43.463423" lon="-8.161986">
        <ele>83.871</ele>
        <time>2019-06-20T17:18:18Z</time>
      </trkpt>
      <trkpt lat="43.463378" lon="-8.162174">
        <ele>85.062</ele>
        <time>2019-06-20T17:18:19Z</time>
      </trkpt>
      <trkpt lat="43.463321" lon="-8.162377">
        <ele>87.358</ele>
        <time>2019-06-20T17:18:20Z</time>
      </trkpt>
      <trkpt lat="43.463240" lon="-8.162550">
        <ele>89.055</ele>
        <time>2019-06-20T17:18:21Z</time>
      </trkpt>
      <trkpt lat="43.463143" lon="-8.162706">
        <ele>90.116</ele>
        <time>2019-06-20T17:18:22Z</time>
      </trkpt>
      <trkpt lat="43.463045" lon="-8.162855">
        <ele>91.028</ele>
        <time>2019-06-20T17:18:23Z</time>
      </trkpt>
      <trkpt lat="43.462941" lon="-8.163007">
        <ele>91.415</ele>
        <time>2019-06-20T17:18:24Z</time>
      </trkpt>
      <trkpt lat="43.462804" lon="-8.163106">
        <ele>92.175</ele>
        <time>2019-06-20T17:18:25Z</time>
      </trkpt>
      <trkpt lat="43.462660" lon="-8.163181">
        <ele>93.128</ele>
        <time>2019-06-20T17:18:26Z</time>
      </trkpt>
      <trkpt lat="43.462507" lon="-8.163261">
        <ele>94.420</ele>
        <time>2019-06-20T17:18:27Z</time>
      </trkpt>
      <trkpt lat="43.462351" lon="-8.163325">
        <ele>97.108</ele>
        <time>2019-06-20T17:18:28Z</time>
      </trkpt>
      <trkpt lat="43.462193" lon="-8.163389">
        <ele>100.170</ele>
        <time>2019-06-20T17:18:29Z</time>
      </trkpt>
      <trkpt lat="43.462038" lon="-8.163466">
        <ele>102.814</ele>
        <time>2019-06-20T17:18:30Z</time>
      </trkpt>
      <trkpt lat="43.461887" lon="-8.163525">
        <ele>104.185</ele>
        <time>2019-06-20T17:18:31Z</time>
      </trkpt>
      <trkpt lat="43.461724" lon="-8.163583">
        <ele>104.141</ele>
        <time>2019-06-20T17:18:32Z</time>
      </trkpt>
      <trkpt lat="43.461578" lon="-8.163643">
        <ele>104.578</ele>
        <time>2019-06-20T17:18:33Z</time>
      </trkpt>
      <trkpt lat="43.461423" lon="-8.163709">
        <ele>105.499</ele>
        <time>2019-06-20T17:18:34Z</time>
      </trkpt>
      <trkpt lat="43.461270" lon="-8.163784">
        <ele>106.851</ele>
        <time>2019-06-20T17:18:35Z</time>
      </trkpt>
      <trkpt lat="43.461128" lon="-8.163884">
        <ele>107.978</ele>
        <time>2019-06-20T17:18:36Z</time>
      </trkpt>
      <trkpt lat="43.460992" lon="-8.163997">
        <ele>106.742</ele>
        <time>2019-06-20T17:18:37Z</time>
      </trkpt>
      <trkpt lat="43.460862" lon="-8.164120">
        <ele>104.822</ele>
        <time>2019-06-20T17:18:38Z</time>
      </trkpt>
      <trkpt lat="43.460733" lon="-8.164262">
        <ele>102.214</ele>
        <time>2019-06-20T17:18:39Z</time>
      </trkpt>
      <trkpt lat="43.460610" lon="-8.164397">
        <ele>100.408</ele>
        <time>2019-06-20T17:18:40Z</time>
      </trkpt>
      <trkpt lat="43.460459" lon="-8.164551">
        <ele>102.027</ele>
        <time>2019-06-20T17:18:41Z</time>
      </trkpt>
      <trkpt lat="43.460315" lon="-8.164709">
        <ele>104.561</ele>
        <time>2019-06-20T17:18:42Z</time>
      </trkpt>
      <trkpt lat="43.460161" lon="-8.164862">
        <ele>107.552</ele>
        <time>2019-06-20T17:18:43Z</time>
      </trkpt>
      <trkpt lat="43.459998" lon="-8.164997">
        <ele>110.028</ele>
        <time>2019-06-20T17:18:44Z</time>
      </trkpt>
      <trkpt lat="43.459829" lon="-8.165108">
        <ele>108.825</ele>
        <time>2019-06-20T17:18:45Z</time>
      </trkpt>
      <trkpt lat="43.459647" lon="-8.165190">
        <ele>108.016</ele>
        <time>2019-06-20T17:18:46Z</time>
      </trkpt>
      <trkpt lat="43.459452" lon="-8.165249">
        <ele>108.328</ele>
        <time>2019-06-20T17:18:47Z</time>
      </trkpt>
      <trkpt lat="43.459259" lon="-8.165299">
        <ele>107.785</ele>
        <time>2019-06-20T17:18:48Z</time>
      </trkpt>
      <trkpt lat="43.459052" lon="-8.165320">
        <ele>107.076</ele>
        <time>2019-06-20T17:18:49Z</time>
      </trkpt>
      <trkpt lat="43.458829" lon="-8.165351">
        <ele>106.690</ele>
        <time>2019-06-20T17:18:50Z</time>
      </trkpt>
      <trkpt lat="43.458611" lon="-8.165389">
        <ele>107.819</ele>
        <time>2019-06-20T17:18:51Z</time>
      </trkpt>
      <trkpt lat="43.458390" lon="-8.165420">
        <ele>108.708</ele>
        <time>2019-06-20T17:18:52Z</time>
      </trkpt>
      <trkpt lat="43.458154" lon="-8.165449">
        <ele>109.470</ele>
        <time>2019-06-20T17:18:53Z</time>
      </trkpt>
      <trkpt lat="43.457916" lon="-8.165481">
        <ele>109.994</ele>
        <time>2019-06-20T17:18:54Z</time>
      </trkpt>
      <trkpt lat="43.457680" lon="-8.165519">
        <ele>110.265</ele>
        <time>2019-06-20T17:18:55Z</time>
      </trkpt>
      <trkpt lat="43.457439" lon="-8.165553">
        <ele>110.771</ele>
        <time>2019-06-20T17:18:56Z</time>
      </trkpt>
      <trkpt lat="43.457204" lon="-8.165588">
        <ele>113.378</ele>
        <time>2019-06-20T17:18:57Z</time>
      </trkpt>
      <trkpt lat="43.456982" lon="-8.165623">
        <ele>116.219</ele>
        <time>2019-06-20T17:18:58Z</time>
      </trkpt>
      <trkpt lat="43.456774" lon="-8.165663">
        <ele>118.771</ele>
        <time>2019-06-20T17:18:59Z</time>
      </trkpt>
      <trkpt lat="43.456574" lon="-8.165714">
        <ele>120.888</ele>
        <time>2019-06-20T17:19:00Z</time>
      </trkpt>
      <trkpt lat="43.456378" lon="-8.165762">
        <ele>122.378</ele>
        <time>2019-06-20T17:19:01Z</time>
      </trkpt>
      <trkpt lat="43.456206" lon="-8.165816">
        <ele>122.133</ele>
        <time>2019-06-20T17:19:02Z</time>
      </trkpt>
      <trkpt lat="43.456021" lon="-8.165888">
        <ele>122.726</ele>
        <time>2019-06-20T17:19:03Z</time>
      </trkpt>
      <trkpt lat="43.455859" lon="-8.166001">
        <ele>123.608</ele>
        <time>2019-06-20T17:19:04Z</time>
      </trkpt>
      <trkpt lat="43.455693" lon="-8.166117">
        <ele>126.060</ele>
        <time>2019-06-20T17:19:05Z</time>
      </trkpt>
      <trkpt lat="43.455529" lon="-8.166236">
        <ele>129.024</ele>
        <time>2019-06-20T17:19:06Z</time>
      </trkpt>
      <trkpt lat="43.455371" lon="-8.166348">
        <ele>130.445</ele>
        <time>2019-06-20T17:19:07Z</time>
      </trkpt>
      <trkpt lat="43.455207" lon="-8.166441">
        <ele>130.931</ele>
        <time>2019-06-20T17:19:08Z</time>
      </trkpt>
      <trkpt lat="43.455047" lon="-8.166521">
        <ele>130.978</ele>
        <time>2019-06-20T17:19:09Z</time>
      </trkpt>
      <trkpt lat="43.454876" lon="-8.166577">
        <ele>131.299</ele>
        <time>2019-06-20T17:19:10Z</time>
      </trkpt>
      <trkpt lat="43.454704" lon="-8.166604">
        <ele>131.791</ele>
        <time>2019-06-20T17:19:11Z</time>
      </trkpt>
      <trkpt lat="43.454524" lon="-8.166611">
        <ele>132.378</ele>
        <time>2019-06-20T17:19:12Z</time>
      </trkpt>
      <trkpt lat="43.454347" lon="-8.166605">
        <ele>132.313</ele>
        <time>2019-06-20T17:19:13Z</time>
      </trkpt>
      <trkpt lat="43.454161" lon="-8.166560">
        <ele>132.243</ele>
        <time>2019-06-20T17:19:14Z</time>
      </trkpt>
      <trkpt lat="43.453982" lon="-8.166528">
        <ele>134.207</ele>
        <time>2019-06-20T17:19:15Z</time>
      </trkpt>
      <trkpt lat="43.453804" lon="-8.166516">
        <ele>136.108</ele>
        <time>2019-06-20T17:19:16Z</time>
      </trkpt>
      <trkpt lat="43.453641" lon="-8.166487">
        <ele>138.044</ele>
        <time>2019-06-20T17:19:17Z</time>
      </trkpt>
      <trkpt lat="43.453487" lon="-8.166452">
        <ele>139.538</ele>
        <time>2019-06-20T17:19:18Z</time>
      </trkpt>
      <trkpt lat="43.453328" lon="-8.166426">
        <ele>140.819</ele>
        <time>2019-06-20T17:19:19Z</time>
      </trkpt>
      <trkpt lat="43.453144" lon="-8.166384">
        <ele>140.335</ele>
        <time>2019-06-20T17:19:20Z</time>
      </trkpt>
      <trkpt lat="43.452964" lon="-8.166347">
        <ele>140.482</ele>
        <time>2019-06-20T17:19:21Z</time>
      </trkpt>
      <trkpt lat="43.452777" lon="-8.166298">
        <ele>141.773</ele>
        <time>2019-06-20T17:19:22Z</time>
      </trkpt>
      <trkpt lat="43.452574" lon="-8.166277">
        <ele>144.055</ele>
        <time>2019-06-20T17:19:23Z</time>
      </trkpt>
      <trkpt lat="43.452376" lon="-8.166254">
        <ele>145.652</ele>
        <time>2019-06-20T17:19:24Z</time>
      </trkpt>
      <trkpt lat="43.452164" lon="-8.166227">
        <ele>147.288</ele>
        <time>2019-06-20T17:19:25Z</time>
      </trkpt>
      <trkpt lat="43.451943" lon="-8.166200">
        <ele>149.124</ele>
        <time>2019-06-20T17:19:26Z</time>
      </trkpt>
      <trkpt lat="43.451725" lon="-8.166169">
        <ele>151.326</ele>
        <time>2019-06-20T17:19:27Z</time>
      </trkpt>
      <trkpt lat="43.451504" lon="-8.166140">
        <ele>153.108</ele>
        <time>2019-06-20T17:19:28Z</time>
      </trkpt>
      <trkpt lat="43.451284" lon="-8.166105">
        <ele>154.841</ele>
        <time>2019-06-20T17:19:29Z</time>
      </trkpt>
      <trkpt lat="43.451060" lon="-8.166076">
        <ele>156.185</ele>
        <time>2019-06-20T17:19:30Z</time>
      </trkpt>
      <trkpt lat="43.450838" lon="-8.166068">
        <ele>156.526</ele>
        <time>2019-06-20T17:19:31Z</time>
      </trkpt>
      <trkpt lat="43.450615" lon="-8.166090">
        <ele>157.062</ele>
        <time>2019-06-20T17:19:32Z</time>
      </trkpt>
      <trkpt lat="43.450396" lon="-8.166150">
        <ele>156.299</ele>
        <time>2019-06-20T17:19:33Z</time>
      </trkpt>
      <trkpt lat="43.450172" lon="-8.166231">
        <ele>157.190</ele>
        <time>2019-06-20T17:19:34Z</time>
      </trkpt>
      <trkpt lat="43.449953" lon="-8.166330">
        <ele>159.152</ele>
        <time>2019-06-20T17:19:35Z</time>
      </trkpt>
      <trkpt lat="43.449736" lon="-8.166432">
        <ele>160.789</ele>
        <time>2019-06-20T17:19:36Z</time>
      </trkpt>
      <trkpt lat="43.449523" lon="-8.166542">
        <ele>162.565</ele>
        <time>2019-06-20T17:19:37Z</time>
      </trkpt>
      <trkpt lat="43.449307" lon="-8.166650">
        <ele>163.668</ele>
        <time>2019-06-20T17:19:38Z</time>
      </trkpt>
      <trkpt lat="43.449103" lon="-8.166756">
        <ele>165.414</ele>
        <time>2019-06-20T17:19:39Z</time>
      </trkpt>
      <trkpt lat="43.448893" lon="-8.166859">
        <ele>167.908</ele>
        <time>2019-06-20T17:19:40Z</time>
      </trkpt>
      <trkpt lat="43.448681" lon="-8.166964">
        <ele>170.689</ele>
        <time>2019-06-20T17:19:41Z</time>
      </trkpt>
      <trkpt lat="43.448466" lon="-8.167071">
        <ele>170.963</ele>
        <time>2019-06-20T17:19:42Z</time>
      </trkpt>
      <trkpt lat="43.448251" lon="-8.167177">
        <ele>170.994</ele>
        <time>2019-06-20T17:19:43Z</time>
      </trkpt>
      <trkpt lat="43.448040" lon="-8.167280">
        <ele>171.850</ele>
        <time>2019-06-20T17:19:44Z</time>
      </trkpt>
      <trkpt lat="43.447833" lon="-8.167381">
        <ele>173.377</ele>
        <time>2019-06-20T17:19:45Z</time>
      </trkpt>
      <trkpt lat="43.447634" lon="-8.167472">
        <ele>175.248</ele>
        <time>2019-06-20T17:19:46Z</time>
      </trkpt>
      <trkpt lat="43.447437" lon="-8.167563">
        <ele>177.480</ele>
        <time>2019-06-20T17:19:47Z</time>
      </trkpt>
      <trkpt lat="43.447242" lon="-8.167640">
        <ele>178.487</ele>
        <time>2019-06-20T17:19:48Z</time>
      </trkpt>
      <trkpt lat="43.447043" lon="-8.167713">
        <ele>178.178</ele>
        <time>2019-06-20T17:19:49Z</time>
      </trkpt>
      <trkpt lat="43.446833" lon="-8.167744">
        <ele>177.633</ele>
        <time>2019-06-20T17:19:50Z</time>
      </trkpt>
      <trkpt lat="43.446609" lon="-8.167739">
        <ele>176.826</ele>
        <time>2019-06-20T17:19:51Z</time>
      </trkpt>
      <trkpt lat="43.446385" lon="-8.167720">
        <ele>176.008</ele>
        <time>2019-06-20T17:19:52Z</time>
      </trkpt>
      <trkpt lat="43.446166" lon="-8.167698">
        <ele>175.870</ele>
        <time>2019-06-20T17:19:53Z</time>
      </trkpt>
      <trkpt lat="43.445955" lon="-8.167677">
        <ele>175.354</ele>
        <time>2019-06-20T17:19:54Z</time>
      </trkpt>
      <trkpt lat="43.445771" lon="-8.167655">
        <ele>175.255</ele>
        <time>2019-06-20T17:19:55Z</time>
      </trkpt>
      <trkpt lat="43.445601" lon="-8.167630">
        <ele>175.881</ele>
        <time>2019-06-20T17:19:56Z</time>
      </trkpt>
      <trkpt lat="43.445438" lon="-8.167613">
        <ele>176.258</ele>
        <time>2019-06-20T17:19:57Z</time>
      </trkpt>
      <trkpt lat="43.445300" lon="-8.167603">
        <ele>176.369</ele>
        <time>2019-06-20T17:19:58Z</time>
      </trkpt>
      <trkpt lat="43.445135" lon="-8.167574">
        <ele>176.551</ele>
        <time>2019-06-20T17:19:59Z</time>
      </trkpt>
      <trkpt lat="43.444985" lon="-8.167536">
        <ele>176.918</ele>
        <time>2019-06-20T17:20:00Z</time>
      </trkpt>
      <trkpt lat="43.444837" lon="-8.167500">
        <ele>177.059</ele>
        <time>2019-06-20T17:20:01Z</time>
      </trkpt>
      <trkpt lat="43.444725" lon="-8.167450">
        <ele>177.403</ele>
        <time>2019-06-20T17:20:02Z</time>
      </trkpt>
      <trkpt lat="43.444586" lon="-8.167405">
        <ele>178.523</ele>
        <time>2019-06-20T17:20:03Z</time>
      </trkpt>
      <trkpt lat="43.444461" lon="-8.167353">
        <ele>179.408</ele>
        <time>2019-06-20T17:20:04Z</time>
      </trkpt>
      <trkpt lat="43.444326" lon="-8.167304">
        <ele>179.738</ele>
        <time>2019-06-20T17:20:05Z</time>
      </trkpt>
      <trkpt lat="43.444199" lon="-8.167254">
        <ele>179.982</ele>
        <time>2019-06-20T17:20:06Z</time>
      </trkpt>
      <trkpt lat="43.444088" lon="-8.167192">
        <ele>179.953</ele>
        <time>2019-06-20T17:20:07Z</time>
      </trkpt>
      <trkpt lat="43.443983" lon="-8.167103">
        <ele>180.149</ele>
        <time>2019-06-20T17:20:08Z</time>
      </trkpt>
      <trkpt lat="43.443857" lon="-8.167039">
        <ele>180.256</ele>
        <time>2019-06-20T17:20:09Z</time>
      </trkpt>
      <trkpt lat="43.443718" lon="-8.166960">
        <ele>180.397</ele>
        <time>2019-06-20T17:20:10Z</time>
      </trkpt>
      <trkpt lat="43.443594" lon="-8.166892">
        <ele>180.649</ele>
        <time>2019-06-20T17:20:11Z</time>
      </trkpt>
      <trkpt lat="43.443469" lon="-8.166820">
        <ele>181.336</ele>
        <time>2019-06-20T17:20:12Z</time>
      </trkpt>
      <trkpt lat="43.443341" lon="-8.166724">
        <ele>182.478</ele>
        <time>2019-06-20T17:20:13Z</time>
      </trkpt>
      <trkpt lat="43.443209" lon="-8.166641">
        <ele>182.433</ele>
        <time>2019-06-20T17:20:14Z</time>
      </trkpt>
      <trkpt lat="43.443079" lon="-8.166573">
        <ele>182.226</ele>
        <time>2019-06-20T17:20:15Z</time>
      </trkpt>
      <trkpt lat="43.442956" lon="-8.166506">
        <ele>181.908</ele>
        <time>2019-06-20T17:20:16Z</time>
      </trkpt>
      <trkpt lat="43.442838" lon="-8.166434">
        <ele>181.870</ele>
        <time>2019-06-20T17:20:17Z</time>
      </trkpt>
      <trkpt lat="43.442733" lon="-8.166357">
        <ele>181.884</ele>
        <time>2019-06-20T17:20:18Z</time>
      </trkpt>
      <trkpt lat="43.442630" lon="-8.166285">
        <ele>181.535</ele>
        <time>2019-06-20T17:20:19Z</time>
      </trkpt>
      <trkpt lat="43.442524" lon="-8.166212">
        <ele>181.411</ele>
        <time>2019-06-20T17:20:20Z</time>
      </trkpt>
      <trkpt lat="43.442426" lon="-8.166130">
        <ele>181.948</ele>
        <time>2019-06-20T17:20:21Z</time>
      </trkpt>
      <trkpt lat="43.442320" lon="-8.166062">
        <ele>182.089</ele>
        <time>2019-06-20T17:20:22Z</time>
      </trkpt>
      <trkpt lat="43.442206" lon="-8.165983">
        <ele>181.961</ele>
        <time>2019-06-20T17:20:23Z</time>
      </trkpt>
      <trkpt lat="43.442099" lon="-8.165911">
        <ele>181.678</ele>
        <time>2019-06-20T17:20:24Z</time>
      </trkpt>
      <trkpt lat="43.441990" lon="-8.165839">
        <ele>181.297</ele>
        <time>2019-06-20T17:20:25Z</time>
      </trkpt>
      <trkpt lat="43.441893" lon="-8.165758">
        <ele>180.723</ele>
        <time>2019-06-20T17:20:26Z</time>
      </trkpt>
      <trkpt lat="43.441790" lon="-8.165682">
        <ele>180.525</ele>
        <time>2019-06-20T17:20:27Z</time>
      </trkpt>
      <trkpt lat="43.441690" lon="-8.165611">
        <ele>180.208</ele>
        <time>2019-06-20T17:20:28Z</time>
      </trkpt>
      <trkpt lat="43.441580" lon="-8.165534">
        <ele>179.982</ele>
        <time>2019-06-20T17:20:29Z</time>
      </trkpt>
      <trkpt lat="43.441483" lon="-8.165452">
        <ele>179.696</ele>
        <time>2019-06-20T17:20:30Z</time>
      </trkpt>
      <trkpt lat="43.441373" lon="-8.165353">
        <ele>179.357</ele>
        <time>2019-06-20T17:20:31Z</time>
      </trkpt>
      <trkpt lat="43.441274" lon="-8.165252">
        <ele>179.013</ele>
        <time>2019-06-20T17:20:32Z</time>
      </trkpt>
      <trkpt lat="43.441178" lon="-8.165150">
        <ele>179.040</ele>
        <time>2019-06-20T17:20:33Z</time>
      </trkpt>
      <trkpt lat="43.441067" lon="-8.165047">
        <ele>178.721</ele>
        <time>2019-06-20T17:20:34Z</time>
      </trkpt>
      <trkpt lat="43.440980" lon="-8.164911">
        <ele>178.183</ele>
        <time>2019-06-20T17:20:35Z</time>
      </trkpt>
      <trkpt lat="43.440886" lon="-8.164784">
        <ele>177.480</ele>
        <time>2019-06-20T17:20:36Z</time>
      </trkpt>
      <trkpt lat="43.440800" lon="-8.164636">
        <ele>177.346</ele>
        <time>2019-06-20T17:20:37Z</time>
      </trkpt>
      <trkpt lat="43.440706" lon="-8.164476">
        <ele>177.088</ele>
        <time>2019-06-20T17:20:38Z</time>
      </trkpt>
      <trkpt lat="43.440626" lon="-8.164308">
        <ele>176.116</ele>
        <time>2019-06-20T17:20:39Z</time>
      </trkpt>
      <trkpt lat="43.440538" lon="-8.164148">
        <ele>174.808</ele>
        <time>2019-06-20T17:20:40Z</time>
      </trkpt>
      <trkpt lat="43.440468" lon="-8.163981">
        <ele>174.857</ele>
        <time>2019-06-20T17:20:41Z</time>
      </trkpt>
      <trkpt lat="43.440438" lon="-8.163886">
        <ele>174.911</ele>
        <time>2019-06-20T17:20:42Z</time>
      </trkpt>
      <trkpt lat="43.440393" lon="-8.163698">
        <ele>175.272</ele>
        <time>2019-06-20T17:20:43Z</time>
      </trkpt>
      <trkpt lat="43.440353" lon="-8.163485">
        <ele>175.488</ele>
        <time>2019-06-20T17:20:44Z</time>
      </trkpt>
      <trkpt lat="43.440350" lon="-8.163299">
        <ele>175.995</ele>
        <time>2019-06-20T17:20:45Z</time>
      </trkpt>
      <trkpt lat="43.440370" lon="-8.163110">
        <ele>176.586</ele>
        <time>2019-06-20T17:20:46Z</time>
      </trkpt>
      <trkpt lat="43.440386" lon="-8.162908">
        <ele>176.248</ele>
        <time>2019-06-20T17:20:47Z</time>
      </trkpt>
      <trkpt lat="43.440416" lon="-8.162691">
        <ele>175.555</ele>
        <time>2019-06-20T17:20:48Z</time>
      </trkpt>
      <trkpt lat="43.440444" lon="-8.162493">
        <ele>174.742</ele>
        <time>2019-06-20T17:20:49Z</time>
      </trkpt>
      <trkpt lat="43.440470" lon="-8.162293">
        <ele>173.622</ele>
        <time>2019-06-20T17:20:50Z</time>
      </trkpt>
      <trkpt lat="43.440476" lon="-8.162092">
        <ele>171.914</ele>
        <time>2019-06-20T17:20:51Z</time>
      </trkpt>
      <trkpt lat="43.440486" lon="-8.161894">
        <ele>170.608</ele>
        <time>2019-06-20T17:20:52Z</time>
      </trkpt>
      <trkpt lat="43.440474" lon="-8.161704">
        <ele>169.787</ele>
        <time>2019-06-20T17:20:53Z</time>
      </trkpt>
      <trkpt lat="43.440448" lon="-8.161505">
        <ele>168.791</ele>
        <time>2019-06-20T17:20:54Z</time>
      </trkpt>
      <trkpt lat="43.440397" lon="-8.161311">
        <ele>167.732</ele>
        <time>2019-06-20T17:20:55Z</time>
      </trkpt>
      <trkpt lat="43.440320" lon="-8.161131">
        <ele>166.668</ele>
        <time>2019-06-20T17:20:56Z</time>
      </trkpt>
      <trkpt lat="43.440223" lon="-8.160978">
        <ele>166.715</ele>
        <time>2019-06-20T17:20:57Z</time>
      </trkpt>
      <trkpt lat="43.440115" lon="-8.160860">
        <ele>165.946</ele>
        <time>2019-06-20T17:20:58Z</time>
      </trkpt>
      <trkpt lat="43.440003" lon="-8.160729">
        <ele>164.888</ele>
        <time>2019-06-20T17:20:59Z</time>
      </trkpt>
      <trkpt lat="43.439871" lon="-8.160636">
        <ele>163.145</ele>
        <time>2019-06-20T17:21:00Z</time>
      </trkpt>
      <trkpt lat="43.439746" lon="-8.160557">
        <ele>161.458</ele>
        <time>2019-06-20T17:21:01Z</time>
      </trkpt>
      <trkpt lat="43.439638" lon="-8.160504">
        <ele>160.652</ele>
        <time>2019-06-20T17:21:02Z</time>
      </trkpt>
      <trkpt lat="43.439525" lon="-8.160450">
        <ele>160.017</ele>
        <time>2019-06-20T17:21:03Z</time>
      </trkpt>
      <trkpt lat="43.439409" lon="-8.160375">
        <ele>159.308</ele>
        <time>2019-06-20T17:21:04Z</time>
      </trkpt>
      <trkpt lat="43.439301" lon="-8.160283">
        <ele>158.938</ele>
        <time>2019-06-20T17:21:05Z</time>
      </trkpt>
      <trkpt lat="43.439206" lon="-8.160184">
        <ele>158.392</ele>
        <time>2019-06-20T17:21:06Z</time>
      </trkpt>
      <trkpt lat="43.439121" lon="-8.160064">
        <ele>157.273</ele>
        <time>2019-06-20T17:21:07Z</time>
      </trkpt>
      <trkpt lat="43.439042" lon="-8.159934">
        <ele>155.589</ele>
        <time>2019-06-20T17:21:08Z</time>
      </trkpt>
      <trkpt lat="43.438983" lon="-8.159783">
        <ele>154.226</ele>
        <time>2019-06-20T17:21:09Z</time>
      </trkpt>
      <trkpt lat="43.438932" lon="-8.159611">
        <ele>153.187</ele>
        <time>2019-06-20T17:21:10Z</time>
      </trkpt>
      <trkpt lat="43.438898" lon="-8.159424">
        <ele>152.029</ele>
        <time>2019-06-20T17:21:11Z</time>
      </trkpt>
      <trkpt lat="43.438884" lon="-8.159228">
        <ele>151.216</ele>
        <time>2019-06-20T17:21:12Z</time>
      </trkpt>
      <trkpt lat="43.438893" lon="-8.159026">
        <ele>151.547</ele>
        <time>2019-06-20T17:21:13Z</time>
      </trkpt>
      <trkpt lat="43.438928" lon="-8.158852">
        <ele>152.129</ele>
        <time>2019-06-20T17:21:14Z</time>
      </trkpt>
      <trkpt lat="43.438987" lon="-8.158665">
        <ele>151.921</ele>
        <time>2019-06-20T17:21:15Z</time>
      </trkpt>
      <trkpt lat="43.439053" lon="-8.158473">
        <ele>151.208</ele>
        <time>2019-06-20T17:21:16Z</time>
      </trkpt>
      <trkpt lat="43.439150" lon="-8.158297">
        <ele>150.747</ele>
        <time>2019-06-20T17:21:17Z</time>
      </trkpt>
      <trkpt lat="43.439246" lon="-8.158117">
        <ele>151.161</ele>
        <time>2019-06-20T17:21:18Z</time>
      </trkpt>
      <trkpt lat="43.439344" lon="-8.157959">
        <ele>151.142</ele>
        <time>2019-06-20T17:21:19Z</time>
      </trkpt>
      <trkpt lat="43.439441" lon="-8.157782">
        <ele>151.088</ele>
        <time>2019-06-20T17:21:20Z</time>
      </trkpt>
      <trkpt lat="43.439531" lon="-8.157605">
        <ele>150.385</ele>
        <time>2019-06-20T17:21:21Z</time>
      </trkpt>
      <trkpt lat="43.439608" lon="-8.157417">
        <ele>150.176</ele>
        <time>2019-06-20T17:21:22Z</time>
      </trkpt>
      <trkpt lat="43.439678" lon="-8.157232">
        <ele>150.418</ele>
        <time>2019-06-20T17:21:23Z</time>
      </trkpt>
      <trkpt lat="43.439730" lon="-8.157034">
        <ele>151.855</ele>
        <time>2019-06-20T17:21:24Z</time>
      </trkpt>
      <trkpt lat="43.439751" lon="-8.156826">
        <ele>152.049</ele>
        <time>2019-06-20T17:21:25Z</time>
      </trkpt>
      <trkpt lat="43.439741" lon="-8.156594">
        <ele>151.102</ele>
        <time>2019-06-20T17:21:26Z</time>
      </trkpt>
      <trkpt lat="43.439732" lon="-8.156311">
        <ele>149.622</ele>
        <time>2019-06-20T17:21:27Z</time>
      </trkpt>
      <trkpt lat="43.439704" lon="-8.156082">
        <ele>147.408</ele>
        <time>2019-06-20T17:21:28Z</time>
      </trkpt>
      <trkpt lat="43.439569" lon="-8.155858">
        <ele>143.457</ele>
        <time>2019-06-20T17:21:29Z</time>
      </trkpt>
      <trkpt lat="43.439423" lon="-8.155659">
        <ele>138.941</ele>
        <time>2019-06-20T17:21:30Z</time>
      </trkpt>
      <trkpt lat="43.439260" lon="-8.155521">
        <ele>137.372</ele>
        <time>2019-06-20T17:21:31Z</time>
      </trkpt>
      <trkpt lat="43.439122" lon="-8.155346">
        <ele>136.968</ele>
        <time>2019-06-20T17:21:32Z</time>
      </trkpt>
      <trkpt lat="43.438987" lon="-8.155167">
        <ele>137.145</ele>
        <time>2019-06-20T17:21:33Z</time>
      </trkpt>
      <trkpt lat="43.438859" lon="-8.154993">
        <ele>136.686</ele>
        <time>2019-06-20T17:21:34Z</time>
      </trkpt>
      <trkpt lat="43.438731" lon="-8.154806">
        <ele>134.798</ele>
        <time>2019-06-20T17:21:35Z</time>
      </trkpt>
      <trkpt lat="43.438602" lon="-8.154623">
        <ele>133.655</ele>
        <time>2019-06-20T17:21:36Z</time>
      </trkpt>
      <trkpt lat="43.438487" lon="-8.154446">
        <ele>133.681</ele>
        <time>2019-06-20T17:21:37Z</time>
      </trkpt>
      <trkpt lat="43.438363" lon="-8.154282">
        <ele>134.061</ele>
        <time>2019-06-20T17:21:38Z</time>
      </trkpt>
      <trkpt lat="43.438236" lon="-8.154100">
        <ele>133.517</ele>
        <time>2019-06-20T17:21:39Z</time>
      </trkpt>
      <trkpt lat="43.438113" lon="-8.153948">
        <ele>132.308</ele>
        <time>2019-06-20T17:21:40Z</time>
      </trkpt>
      <trkpt lat="43.437993" lon="-8.153809">
        <ele>132.971</ele>
        <time>2019-06-20T17:21:41Z</time>
      </trkpt>
      <trkpt lat="43.437859" lon="-8.153723">
        <ele>134.715</ele>
        <time>2019-06-20T17:21:42Z</time>
      </trkpt>
      <trkpt lat="43.437729" lon="-8.153636">
        <ele>137.356</ele>
        <time>2019-06-20T17:21:43Z</time>
      </trkpt>
      <trkpt lat="43.437592" lon="-8.153573">
        <ele>140.492</ele>
        <time>2019-06-20T17:21:44Z</time>
      </trkpt>
      <trkpt lat="43.437442" lon="-8.153538">
        <ele>142.829</ele>
        <time>2019-06-20T17:21:45Z</time>
      </trkpt>
      <trkpt lat="43.437290" lon="-8.153546">
        <ele>144.060</ele>
        <time>2019-06-20T17:21:46Z</time>
      </trkpt>
      <trkpt lat="43.437149" lon="-8.153570">
        <ele>145.352</ele>
        <time>2019-06-20T17:21:47Z</time>
      </trkpt>
      <trkpt lat="43.436996" lon="-8.153678">
        <ele>145.859</ele>
        <time>2019-06-20T17:21:48Z</time>
      </trkpt>
      <trkpt lat="43.436852" lon="-8.153794">
        <ele>147.951</ele>
        <time>2019-06-20T17:21:49Z</time>
      </trkpt>
      <trkpt lat="43.436728" lon="-8.153971">
        <ele>147.801</ele>
        <time>2019-06-20T17:21:50Z</time>
      </trkpt>
      <trkpt lat="43.436571" lon="-8.154120">
        <ele>148.711</ele>
        <time>2019-06-20T17:21:51Z</time>
      </trkpt>
      <trkpt lat="43.436441" lon="-8.154306">
        <ele>147.208</ele>
        <time>2019-06-20T17:21:52Z</time>
      </trkpt>
      <trkpt lat="43.436311" lon="-8.154503">
        <ele>145.448</ele>
        <time>2019-06-20T17:21:53Z</time>
      </trkpt>
      <trkpt lat="43.436181" lon="-8.154702">
        <ele>144.762</ele>
        <time>2019-06-20T17:21:54Z</time>
      </trkpt>
      <trkpt lat="43.436049" lon="-8.154892">
        <ele>146.223</ele>
        <time>2019-06-20T17:21:55Z</time>
      </trkpt>
      <trkpt lat="43.435922" lon="-8.155095">
        <ele>145.959</ele>
        <time>2019-06-20T17:21:56Z</time>
      </trkpt>
      <trkpt lat="43.435784" lon="-8.155300">
        <ele>145.146</ele>
        <time>2019-06-20T17:21:57Z</time>
      </trkpt>
      <trkpt lat="43.435645" lon="-8.155488">
        <ele>143.627</ele>
        <time>2019-06-20T17:21:58Z</time>
      </trkpt>
      <trkpt lat="43.435518" lon="-8.155666">
        <ele>142.219</ele>
        <time>2019-06-20T17:21:59Z</time>
      </trkpt>
      <trkpt lat="43.435385" lon="-8.155832">
        <ele>141.286</ele>
        <time>2019-06-20T17:22:00Z</time>
      </trkpt>
      <trkpt lat="43.435235" lon="-8.155980">
        <ele>141.314</ele>
        <time>2019-06-20T17:22:01Z</time>
      </trkpt>
      <trkpt lat="43.435069" lon="-8.156107">
        <ele>142.854</ele>
        <time>2019-06-20T17:22:02Z</time>
      </trkpt>
      <trkpt lat="43.434890" lon="-8.156203">
        <ele>144.009</ele>
        <time>2019-06-20T17:22:03Z</time>
      </trkpt>
      <trkpt lat="43.434696" lon="-8.156282">
        <ele>143.308</ele>
        <time>2019-06-20T17:22:04Z</time>
      </trkpt>
      <trkpt lat="43.434499" lon="-8.156346">
        <ele>141.894</ele>
        <time>2019-06-20T17:22:05Z</time>
      </trkpt>
      <trkpt lat="43.434302" lon="-8.156412">
        <ele>141.138</ele>
        <time>2019-06-20T17:22:06Z</time>
      </trkpt>
      <trkpt lat="43.434107" lon="-8.156479">
        <ele>140.649</ele>
        <time>2019-06-20T17:22:07Z</time>
      </trkpt>
      <trkpt lat="43.433915" lon="-8.156539">
        <ele>140.285</ele>
        <time>2019-06-20T17:22:08Z</time>
      </trkpt>
      <trkpt lat="43.433727" lon="-8.156596">
        <ele>139.992</ele>
        <time>2019-06-20T17:22:09Z</time>
      </trkpt>
      <trkpt lat="43.433540" lon="-8.156652">
        <ele>140.093</ele>
        <time>2019-06-20T17:22:10Z</time>
      </trkpt>
      <trkpt lat="43.433346" lon="-8.156712">
        <ele>140.925</ele>
        <time>2019-06-20T17:22:11Z</time>
      </trkpt>
      <trkpt lat="43.433153" lon="-8.156777">
        <ele>140.982</ele>
        <time>2019-06-20T17:22:12Z</time>
      </trkpt>
      <trkpt lat="43.432965" lon="-8.156833">
        <ele>140.378</ele>
        <time>2019-06-20T17:22:13Z</time>
      </trkpt>
      <trkpt lat="43.432780" lon="-8.156898">
        <ele>138.333</ele>
        <time>2019-06-20T17:22:14Z</time>
      </trkpt>
      <trkpt lat="43.432598" lon="-8.156954">
        <ele>138.026</ele>
        <time>2019-06-20T17:22:15Z</time>
      </trkpt>
      <trkpt lat="43.432422" lon="-8.157015">
        <ele>137.608</ele>
        <time>2019-06-20T17:22:16Z</time>
      </trkpt>
      <trkpt lat="43.432252" lon="-8.157072">
        <ele>137.510</ele>
        <time>2019-06-20T17:22:17Z</time>
      </trkpt>
      <trkpt lat="43.432081" lon="-8.157131">
        <ele>137.734</ele>
        <time>2019-06-20T17:22:18Z</time>
      </trkpt>
      <trkpt lat="43.431905" lon="-8.157183">
        <ele>138.035</ele>
        <time>2019-06-20T17:22:19Z</time>
      </trkpt>
      <trkpt lat="43.431717" lon="-8.157228">
        <ele>137.791</ele>
        <time>2019-06-20T17:22:20Z</time>
      </trkpt>
      <trkpt lat="43.431525" lon="-8.157266">
        <ele>137.568</ele>
        <time>2019-06-20T17:22:21Z</time>
      </trkpt>
      <trkpt lat="43.431331" lon="-8.157294">
        <ele>137.769</ele>
        <time>2019-06-20T17:22:22Z</time>
      </trkpt>
      <trkpt lat="43.431134" lon="-8.157315">
        <ele>137.971</ele>
        <time>2019-06-20T17:22:23Z</time>
      </trkpt>
      <trkpt lat="43.430940" lon="-8.157331">
        <ele>136.468</ele>
        <time>2019-06-20T17:22:24Z</time>
      </trkpt>
      <trkpt lat="43.430746" lon="-8.157339">
        <ele>135.228</ele>
        <time>2019-06-20T17:22:25Z</time>
      </trkpt>
      <trkpt lat="43.430549" lon="-8.157335">
        <ele>134.689</ele>
        <time>2019-06-20T17:22:26Z</time>
      </trkpt>
      <trkpt lat="43.430372" lon="-8.157331">
        <ele>135.117</ele>
        <time>2019-06-20T17:22:27Z</time>
      </trkpt>
      <trkpt lat="43.430191" lon="-8.157333">
        <ele>135.808</ele>
        <time>2019-06-20T17:22:28Z</time>
      </trkpt>
      <trkpt lat="43.430017" lon="-8.157336">
        <ele>137.045</ele>
        <time>2019-06-20T17:22:29Z</time>
      </trkpt>
      <trkpt lat="43.429852" lon="-8.157363">
        <ele>139.469</ele>
        <time>2019-06-20T17:22:30Z</time>
      </trkpt>
      <trkpt lat="43.429675" lon="-8.157407">
        <ele>142.640</ele>
        <time>2019-06-20T17:22:31Z</time>
      </trkpt>
      <trkpt lat="43.429512" lon="-8.157464">
        <ele>146.736</ele>
        <time>2019-06-20T17:22:32Z</time>
      </trkpt>
      <trkpt lat="43.429360" lon="-8.157570">
        <ele>149.193</ele>
        <time>2019-06-20T17:22:33Z</time>
      </trkpt>
      <trkpt lat="43.429213" lon="-8.157715">
        <ele>150.774</ele>
        <time>2019-06-20T17:22:34Z</time>
      </trkpt>
      <trkpt lat="43.429084" lon="-8.157900">
        <ele>151.776</ele>
        <time>2019-06-20T17:22:35Z</time>
      </trkpt>
      <trkpt lat="43.428954" lon="-8.158100">
        <ele>151.023</ele>
        <time>2019-06-20T17:22:36Z</time>
      </trkpt>
      <trkpt lat="43.428894" lon="-8.158357">
        <ele>146.588</ele>
        <time>2019-06-20T17:22:37Z</time>
      </trkpt>
      <trkpt lat="43.428812" lon="-8.158590">
        <ele>142.824</ele>
        <time>2019-06-20T17:22:38Z</time>
      </trkpt>
      <trkpt lat="43.428722" lon="-8.158816">
        <ele>139.426</ele>
        <time>2019-06-20T17:22:39Z</time>
      </trkpt>
      <trkpt lat="43.428645" lon="-8.159032">
        <ele>134.508</ele>
        <time>2019-06-20T17:22:40Z</time>
      </trkpt>
      <trkpt lat="43.428565" lon="-8.159243">
        <ele>129.071</ele>
        <time>2019-06-20T17:22:41Z</time>
      </trkpt>
      <trkpt lat="43.428476" lon="-8.159423">
        <ele>124.545</ele>
        <time>2019-06-20T17:22:42Z</time>
      </trkpt>
      <trkpt lat="43.428365" lon="-8.159558">
        <ele>122.796</ele>
        <time>2019-06-20T17:22:43Z</time>
      </trkpt>
      <trkpt lat="43.428241" lon="-8.159690">
        <ele>122.882</ele>
        <time>2019-06-20T17:22:44Z</time>
      </trkpt>
      <trkpt lat="43.428111" lon="-8.159797">
        <ele>123.079</ele>
        <time>2019-06-20T17:22:45Z</time>
      </trkpt>
      <trkpt lat="43.427985" lon="-8.159885">
        <ele>122.710</ele>
        <time>2019-06-20T17:22:46Z</time>
      </trkpt>
      <trkpt lat="43.427839" lon="-8.159961">
        <ele>122.452</ele>
        <time>2019-06-20T17:22:47Z</time>
      </trkpt>
      <trkpt lat="43.427692" lon="-8.160043">
        <ele>122.389</ele>
        <time>2019-06-20T17:22:48Z</time>
      </trkpt>
      <trkpt lat="43.427558" lon="-8.160141">
        <ele>121.732</ele>
        <time>2019-06-20T17:22:49Z</time>
      </trkpt>
      <trkpt lat="43.427418" lon="-8.160285">
        <ele>121.392</ele>
        <time>2019-06-20T17:22:50Z</time>
      </trkpt>
      <trkpt lat="43.427290" lon="-8.160451">
        <ele>121.311</ele>
        <time>2019-06-20T17:22:51Z</time>
      </trkpt>
      <trkpt lat="43.427170" lon="-8.160632">
        <ele>120.708</ele>
        <time>2019-06-20T17:22:52Z</time>
      </trkpt>
      <trkpt lat="43.427064" lon="-8.160817">
        <ele>120.916</ele>
        <time>2019-06-20T17:22:53Z</time>
      </trkpt>
      <trkpt lat="43.426960" lon="-8.160999">
        <ele>120.030</ele>
        <time>2019-06-20T17:22:54Z</time>
      </trkpt>
      <trkpt lat="43.426859" lon="-8.161183">
        <ele>119.081</ele>
        <time>2019-06-20T17:22:55Z</time>
      </trkpt>
      <trkpt lat="43.426761" lon="-8.161354">
        <ele>118.197</ele>
        <time>2019-06-20T17:22:56Z</time>
      </trkpt>
      <trkpt lat="43.426661" lon="-8.161520">
        <ele>117.374</ele>
        <time>2019-06-20T17:22:57Z</time>
      </trkpt>
      <trkpt lat="43.426571" lon="-8.161695">
        <ele>117.245</ele>
        <time>2019-06-20T17:22:58Z</time>
      </trkpt>
      <trkpt lat="43.426485" lon="-8.161872">
        <ele>116.127</ele>
        <time>2019-06-20T17:22:59Z</time>
      </trkpt>
      <trkpt lat="43.426391" lon="-8.162051">
        <ele>115.064</ele>
        <time>2019-06-20T17:23:00Z</time>
      </trkpt>
      <trkpt lat="43.426292" lon="-8.162229">
        <ele>114.751</ele>
        <time>2019-06-20T17:23:01Z</time>
      </trkpt>
      <trkpt lat="43.426206" lon="-8.162396">
        <ele>114.401</ele>
        <time>2019-06-20T17:23:02Z</time>
      </trkpt>
      <trkpt lat="43.426112" lon="-8.162562">
        <ele>114.811</ele>
        <time>2019-06-20T17:23:03Z</time>
      </trkpt>
      <trkpt lat="43.426015" lon="-8.162736">
        <ele>116.708</ele>
        <time>2019-06-20T17:23:04Z</time>
      </trkpt>
      <trkpt lat="43.425931" lon="-8.162904">
        <ele>116.038</ele>
        <time>2019-06-20T17:23:05Z</time>
      </trkpt>
      <trkpt lat="43.425852" lon="-8.163078">
        <ele>114.032</ele>
        <time>2019-06-20T17:23:06Z</time>
      </trkpt>
      <trkpt lat="43.425759" lon="-8.163253">
        <ele>112.483</ele>
        <time>2019-06-20T17:23:07Z</time>
      </trkpt>
      <trkpt lat="43.425676" lon="-8.163422">
        <ele>110.889</ele>
        <time>2019-06-20T17:23:08Z</time>
      </trkpt>
      <trkpt lat="43.425588" lon="-8.163619">
        <ele>108.126</ele>
        <time>2019-06-20T17:23:09Z</time>
      </trkpt>
      <trkpt lat="43.425507" lon="-8.163820">
        <ele>107.827</ele>
        <time>2019-06-20T17:23:10Z</time>
      </trkpt>
      <trkpt lat="43.425432" lon="-8.164015">
        <ele>106.679</ele>
        <time>2019-06-20T17:23:11Z</time>
      </trkpt>
      <trkpt lat="43.425348" lon="-8.164212">
        <ele>105.736</ele>
        <time>2019-06-20T17:23:12Z</time>
      </trkpt>
      <trkpt lat="43.425261" lon="-8.164410">
        <ele>106.344</ele>
        <time>2019-06-20T17:23:13Z</time>
      </trkpt>
      <trkpt lat="43.425175" lon="-8.164626">
        <ele>104.105</ele>
        <time>2019-06-20T17:23:14Z</time>
      </trkpt>
      <trkpt lat="43.425088" lon="-8.164840">
        <ele>103.815</ele>
        <time>2019-06-20T17:23:15Z</time>
      </trkpt>
      <trkpt lat="43.425005" lon="-8.165053">
        <ele>103.208</ele>
        <time>2019-06-20T17:23:16Z</time>
      </trkpt>
      <trkpt lat="43.424923" lon="-8.165253">
        <ele>100.617</ele>
        <time>2019-06-20T17:23:17Z</time>
      </trkpt>
      <trkpt lat="43.424839" lon="-8.165455">
        <ele>98.221</ele>
        <time>2019-06-20T17:23:18Z</time>
      </trkpt>
      <trkpt lat="43.424750" lon="-8.165654">
        <ele>97.772</ele>
        <time>2019-06-20T17:23:19Z</time>
      </trkpt>
      <trkpt lat="43.424658" lon="-8.165852">
        <ele>97.288</ele>
        <time>2019-06-20T17:23:20Z</time>
      </trkpt>
      <trkpt lat="43.424570" lon="-8.166042">
        <ele>96.325</ele>
        <time>2019-06-20T17:23:21Z</time>
      </trkpt>
      <trkpt lat="43.424489" lon="-8.166233">
        <ele>95.586</ele>
        <time>2019-06-20T17:23:22Z</time>
      </trkpt>
      <trkpt lat="43.424403" lon="-8.166419">
        <ele>93.688</ele>
        <time>2019-06-20T17:23:23Z</time>
      </trkpt>
      <trkpt lat="43.424336" lon="-8.166599">
        <ele>91.055</ele>
        <time>2019-06-20T17:23:24Z</time>
      </trkpt>
      <trkpt lat="43.424267" lon="-8.166778">
        <ele>89.293</ele>
        <time>2019-06-20T17:23:25Z</time>
      </trkpt>
      <trkpt lat="43.424217" lon="-8.166954">
        <ele>88.565</ele>
        <time>2019-06-20T17:23:26Z</time>
      </trkpt>
      <trkpt lat="43.424172" lon="-8.167134">
        <ele>88.921</ele>
        <time>2019-06-20T17:23:27Z</time>
      </trkpt>
      <trkpt lat="43.424139" lon="-8.167311">
        <ele>88.608</ele>
        <time>2019-06-20T17:23:28Z</time>
      </trkpt>
      <trkpt lat="43.424118" lon="-8.167485">
        <ele>87.962</ele>
        <time>2019-06-20T17:23:29Z</time>
      </trkpt>
      <trkpt lat="43.424104" lon="-8.167659">
        <ele>87.616</ele>
        <time>2019-06-20T17:23:30Z</time>
      </trkpt>
      <trkpt lat="43.424101" lon="-8.167843">
        <ele>87.187</ele>
        <time>2019-06-20T17:23:31Z</time>
      </trkpt>
      <trkpt lat="43.424108" lon="-8.168028">
        <ele>86.083</ele>
        <time>2019-06-20T17:23:32Z</time>
      </trkpt>
      <trkpt lat="43.424122" lon="-8.168206">
        <ele>85.410</ele>
        <time>2019-06-20T17:23:33Z</time>
      </trkpt>
      <trkpt lat="43.424148" lon="-8.168375">
        <ele>84.941</ele>
        <time>2019-06-20T17:23:34Z</time>
      </trkpt>
      <trkpt lat="43.424180" lon="-8.168545">
        <ele>84.163</ele>
        <time>2019-06-20T17:23:35Z</time>
      </trkpt>
      <trkpt lat="43.424225" lon="-8.168716">
        <ele>82.230</ele>
        <time>2019-06-20T17:23:36Z</time>
      </trkpt>
      <trkpt lat="43.424269" lon="-8.168880">
        <ele>80.323</ele>
        <time>2019-06-20T17:23:37Z</time>
      </trkpt>
      <trkpt lat="43.424324" lon="-8.169022">
        <ele>79.183</ele>
        <time>2019-06-20T17:23:38Z</time>
      </trkpt>
      <trkpt lat="43.424378" lon="-8.169161">
        <ele>77.811</ele>
        <time>2019-06-20T17:23:39Z</time>
      </trkpt>
      <trkpt lat="43.424421" lon="-8.169321">
        <ele>76.708</ele>
        <time>2019-06-20T17:23:40Z</time>
      </trkpt>
      <trkpt lat="43.424463" lon="-8.169487">
        <ele>75.645</ele>
        <time>2019-06-20T17:23:41Z</time>
      </trkpt>
      <trkpt lat="43.424499" lon="-8.169659">
        <ele>74.939</ele>
        <time>2019-06-20T17:23:42Z</time>
      </trkpt>
      <trkpt lat="43.424519" lon="-8.169833">
        <ele>74.850</ele>
        <time>2019-06-20T17:23:43Z</time>
      </trkpt>
      <trkpt lat="43.424515" lon="-8.170009">
        <ele>75.026</ele>
        <time>2019-06-20T17:23:44Z</time>
      </trkpt>
      <trkpt lat="43.424485" lon="-8.170184">
        <ele>75.913</ele>
        <time>2019-06-20T17:23:45Z</time>
      </trkpt>
      <trkpt lat="43.424436" lon="-8.170345">
        <ele>76.524</ele>
        <time>2019-06-20T17:23:46Z</time>
      </trkpt>
      <trkpt lat="43.424373" lon="-8.170495">
        <ele>75.066</ele>
        <time>2019-06-20T17:23:47Z</time>
      </trkpt>
      <trkpt lat="43.424290" lon="-8.170627">
        <ele>73.023</ele>
        <time>2019-06-20T17:23:48Z</time>
      </trkpt>
      <trkpt lat="43.424195" lon="-8.170736">
        <ele>71.272</ele>
        <time>2019-06-20T17:23:49Z</time>
      </trkpt>
      <trkpt lat="43.424096" lon="-8.170831">
        <ele>70.013</ele>
        <time>2019-06-20T17:23:50Z</time>
      </trkpt>
      <trkpt lat="43.423988" lon="-8.170914">
        <ele>69.114</ele>
        <time>2019-06-20T17:23:51Z</time>
      </trkpt>
      <trkpt lat="43.423873" lon="-8.170978">
        <ele>68.408</ele>
        <time>2019-06-20T17:23:52Z</time>
      </trkpt>
      <trkpt lat="43.423756" lon="-8.171024">
        <ele>67.950</ele>
        <time>2019-06-20T17:23:53Z</time>
      </trkpt>
      <trkpt lat="43.423638" lon="-8.171034">
        <ele>67.864</ele>
        <time>2019-06-20T17:23:54Z</time>
      </trkpt>
      <trkpt lat="43.423514" lon="-8.171021">
        <ele>66.945</ele>
        <time>2019-06-20T17:23:55Z</time>
      </trkpt>
      <trkpt lat="43.423393" lon="-8.170988">
        <ele>66.061</ele>
        <time>2019-06-20T17:23:56Z</time>
      </trkpt>
      <trkpt lat="43.423282" lon="-8.170902">
        <ele>65.878</ele>
        <time>2019-06-20T17:23:57Z</time>
      </trkpt>
      <trkpt lat="43.423175" lon="-8.170802">
        <ele>65.579</ele>
        <time>2019-06-20T17:23:58Z</time>
      </trkpt>
      <trkpt lat="43.423077" lon="-8.170681">
        <ele>65.361</ele>
        <time>2019-06-20T17:23:59Z</time>
      </trkpt>
      <trkpt lat="43.422980" lon="-8.170548">
        <ele>64.468</ele>
        <time>2019-06-20T17:24:00Z</time>
      </trkpt>
      <trkpt lat="43.422884" lon="-8.170416">
        <ele>63.357</ele>
        <time>2019-06-20T17:24:01Z</time>
      </trkpt>
      <trkpt lat="43.422789" lon="-8.170282">
        <ele>62.200</ele>
        <time>2019-06-20T17:24:02Z</time>
      </trkpt>
      <trkpt lat="43.422702" lon="-8.170142">
        <ele>60.320</ele>
        <time>2019-06-20T17:24:03Z</time>
      </trkpt>
      <trkpt lat="43.422613" lon="-8.169991">
        <ele>58.308</ele>
        <time>2019-06-20T17:24:04Z</time>
      </trkpt>
      <trkpt lat="43.422524" lon="-8.169837">
        <ele>56.938</ele>
        <time>2019-06-20T17:24:05Z</time>
      </trkpt>
      <trkpt lat="43.422441" lon="-8.169678">
        <ele>55.882</ele>
        <time>2019-06-20T17:24:06Z</time>
      </trkpt>
      <trkpt lat="43.422360" lon="-8.169505">
        <ele>54.653</ele>
        <time>2019-06-20T17:24:07Z</time>
      </trkpt>
      <trkpt lat="43.422265" lon="-8.169243">
        <ele>54.449</ele>
        <time>2019-06-20T17:24:08Z</time>
      </trkpt>
      <trkpt lat="43.422179" lon="-8.169011">
        <ele>53.686</ele>
        <time>2019-06-20T17:24:09Z</time>
      </trkpt>
      <trkpt lat="43.422094" lon="-8.168757">
        <ele>53.217</ele>
        <time>2019-06-20T17:24:10Z</time>
      </trkpt>
      <trkpt lat="43.422004" lon="-8.168490">
        <ele>52.899</ele>
        <time>2019-06-20T17:24:11Z</time>
      </trkpt>
      <trkpt lat="43.421915" lon="-8.168232">
        <ele>51.976</ele>
        <time>2019-06-20T17:24:12Z</time>
      </trkpt>
      <trkpt lat="43.421826" lon="-8.167960">
        <ele>51.371</ele>
        <time>2019-06-20T17:24:13Z</time>
      </trkpt>
      <trkpt lat="43.421741" lon="-8.167689">
        <ele>49.941</ele>
        <time>2019-06-20T17:24:14Z</time>
      </trkpt>
      <trkpt lat="43.421653" lon="-8.167427">
        <ele>48.215</ele>
        <time>2019-06-20T17:24:15Z</time>
      </trkpt>
      <trkpt lat="43.421558" lon="-8.167199">
        <ele>47.808</ele>
        <time>2019-06-20T17:24:16Z</time>
      </trkpt>
      <trkpt lat="43.421457" lon="-8.166986">
        <ele>47.280</ele>
        <time>2019-06-20T17:24:17Z</time>
      </trkpt>
      <trkpt lat="43.421352" lon="-8.166785">
        <ele>45.994</ele>
        <time>2019-06-20T17:24:18Z</time>
      </trkpt>
      <trkpt lat="43.421257" lon="-8.166618">
        <ele>45.125</ele>
        <time>2019-06-20T17:24:19Z</time>
      </trkpt>
      <trkpt lat="43.421164" lon="-8.166453">
        <ele>45.161</ele>
        <time>2019-06-20T17:24:20Z</time>
      </trkpt>
      <trkpt lat="43.421071" lon="-8.166298">
        <ele>45.198</ele>
        <time>2019-06-20T17:24:21Z</time>
      </trkpt>
      <trkpt lat="43.420989" lon="-8.166149">
        <ele>45.049</ele>
        <time>2019-06-20T17:24:22Z</time>
      </trkpt>
      <trkpt lat="43.420895" lon="-8.165994">
        <ele>44.351</ele>
        <time>2019-06-20T17:24:23Z</time>
      </trkpt>
      <trkpt lat="43.420817" lon="-8.165828">
        <ele>43.718</ele>
        <time>2019-06-20T17:24:24Z</time>
      </trkpt>
      <trkpt lat="43.420741" lon="-8.165624">
        <ele>41.877</ele>
        <time>2019-06-20T17:24:25Z</time>
      </trkpt>
      <trkpt lat="43.420680" lon="-8.165409">
        <ele>39.561</ele>
        <time>2019-06-20T17:24:26Z</time>
      </trkpt>
      <trkpt lat="43.420626" lon="-8.165193">
        <ele>37.127</ele>
        <time>2019-06-20T17:24:27Z</time>
      </trkpt>
      <trkpt lat="43.420574" lon="-8.164979">
        <ele>35.208</ele>
        <time>2019-06-20T17:24:28Z</time>
      </trkpt>
      <trkpt lat="43.420517" lon="-8.164791">
        <ele>35.020</ele>
        <time>2019-06-20T17:24:29Z</time>
      </trkpt>
      <trkpt lat="43.420453" lon="-8.164653">
        <ele>35.774</ele>
        <time>2019-06-20T17:24:30Z</time>
      </trkpt>
      <trkpt lat="43.420361" lon="-8.164528">
        <ele>36.695</ele>
        <time>2019-06-20T17:24:31Z</time>
      </trkpt>
      <trkpt lat="43.420252" lon="-8.164377">
        <ele>37.541</ele>
        <time>2019-06-20T17:24:32Z</time>
      </trkpt>
      <trkpt lat="43.420170" lon="-8.164277">
        <ele>38.288</ele>
        <time>2019-06-20T17:24:33Z</time>
      </trkpt>
      <trkpt lat="43.419970" lon="-8.164400">
        <ele>36.949</ele>
        <time>2019-06-20T17:24:34Z</time>
      </trkpt>
      <trkpt lat="43.419823" lon="-8.164446">
        <ele>34.461</ele>
        <time>2019-06-20T17:24:35Z</time>
      </trkpt>
      <trkpt lat="43.419655" lon="-8.164500">
        <ele>32.368</ele>
        <time>2019-06-20T17:24:36Z</time>
      </trkpt>
      <trkpt lat="43.419481" lon="-8.164535">
        <ele>30.723</ele>
        <time>2019-06-20T17:24:37Z</time>
      </trkpt>
      <trkpt lat="43.419299" lon="-8.164555">
        <ele>29.583</ele>
        <time>2019-06-20T17:24:38Z</time>
      </trkpt>
      <trkpt lat="43.419111" lon="-8.164530">
        <ele>28.711</ele>
        <time>2019-06-20T17:24:39Z</time>
      </trkpt>
      <trkpt lat="43.418913" lon="-8.164502">
        <ele>27.708</ele>
        <time>2019-06-20T17:24:40Z</time>
      </trkpt>
      <trkpt lat="43.418720" lon="-8.164462">
        <ele>27.275</ele>
        <time>2019-06-20T17:24:41Z</time>
      </trkpt>
      <trkpt lat="43.418532" lon="-8.164423">
        <ele>25.879</ele>
        <time>2019-06-20T17:24:42Z</time>
      </trkpt>
      <trkpt lat="43.418342" lon="-8.164380">
        <ele>23.130</ele>
        <time>2019-06-20T17:24:43Z</time>
      </trkpt>
      <trkpt lat="43.418157" lon="-8.164334">
        <ele>22.346</ele>
        <time>2019-06-20T17:24:44Z</time>
      </trkpt>
      <trkpt lat="43.417978" lon="-8.164295">
        <ele>22.393</ele>
        <time>2019-06-20T17:24:45Z</time>
      </trkpt>
      <trkpt lat="43.417785" lon="-8.164265">
        <ele>22.964</ele>
        <time>2019-06-20T17:24:46Z</time>
      </trkpt>
      <trkpt lat="43.417608" lon="-8.164239">
        <ele>22.416</ele>
        <time>2019-06-20T17:24:47Z</time>
      </trkpt>
      <trkpt lat="43.417424" lon="-8.164227">
        <ele>21.623</ele>
        <time>2019-06-20T17:24:48Z</time>
      </trkpt>
      <trkpt lat="43.417239" lon="-8.164229">
        <ele>20.212</ele>
        <time>2019-06-20T17:24:49Z</time>
      </trkpt>
      <trkpt lat="43.417060" lon="-8.164241">
        <ele>18.832</ele>
        <time>2019-06-20T17:24:50Z</time>
      </trkpt>
      <trkpt lat="43.416887" lon="-8.164331">
        <ele>16.605</ele>
        <time>2019-06-20T17:24:51Z</time>
      </trkpt>
      <trkpt lat="43.416723" lon="-8.164419">
        <ele>15.408</ele>
        <time>2019-06-20T17:24:52Z</time>
      </trkpt>
      <trkpt lat="43.416559" lon="-8.164520">
        <ele>15.734</ele>
        <time>2019-06-20T17:24:53Z</time>
      </trkpt>
      <trkpt lat="43.416395" lon="-8.164614">
        <ele>16.158</ele>
        <time>2019-06-20T17:24:54Z</time>
      </trkpt>
      <trkpt lat="43.416241" lon="-8.164713">
        <ele>14.619</ele>
        <time>2019-06-20T17:24:55Z</time>
      </trkpt>
      <trkpt lat="43.416091" lon="-8.164818">
        <ele>12.975</ele>
        <time>2019-06-20T17:24:56Z</time>
      </trkpt>
      <trkpt lat="43.415962" lon="-8.164926">
        <ele>11.332</ele>
        <time>2019-06-20T17:24:57Z</time>
      </trkpt>
      <trkpt lat="43.415846" lon="-8.165034">
        <ele>9.973</ele>
        <time>2019-06-20T17:24:58Z</time>
      </trkpt>
      <trkpt lat="43.415733" lon="-8.165173">
        <ele>9.725</ele>
        <time>2019-06-20T17:24:59Z</time>
      </trkpt>
      <trkpt lat="43.415634" lon="-8.165323">
        <ele>9.722</ele>
        <time>2019-06-20T17:25:00Z</time>
      </trkpt>
      <trkpt lat="43.415554" lon="-8.165484">
        <ele>10.086</ele>
        <time>2019-06-20T17:25:01Z</time>
      </trkpt>
      <trkpt lat="43.415453" lon="-8.165655">
        <ele>9.760</ele>
        <time>2019-06-20T17:25:02Z</time>
      </trkpt>
      <trkpt lat="43.415365" lon="-8.165827">
        <ele>8.726</ele>
        <time>2019-06-20T17:25:03Z</time>
      </trkpt>
      <trkpt lat="43.415292" lon="-8.165984">
        <ele>7.908</ele>
        <time>2019-06-20T17:25:04Z</time>
      </trkpt>
      <trkpt lat="43.415223" lon="-8.166125">
        <ele>6.981</ele>
        <time>2019-06-20T17:25:05Z</time>
      </trkpt>
      <trkpt lat="43.415166" lon="-8.166250">
        <ele>6.395</ele>
        <time>2019-06-20T17:25:06Z</time>
      </trkpt>
      <trkpt lat="43.415127" lon="-8.166349">
        <ele>5.736</ele>
        <time>2019-06-20T17:25:07Z</time>
      </trkpt>
      <trkpt lat="43.415083" lon="-8.166422">
        <ele>5.352</ele>
        <time>2019-06-20T17:25:08Z</time>
      </trkpt>
      <trkpt lat="43.415055" lon="-8.166493">
        <ele>5.139</ele>
        <time>2019-06-20T17:25:09Z</time>
      </trkpt>
      <trkpt lat="43.415019" lon="-8.166578">
        <ele>5.090</ele>
        <time>2019-06-20T17:25:11Z</time>
      </trkpt>
      <trkpt lat="43.414996" lon="-8.166646">
        <ele>5.072</ele>
        <time>2019-06-20T17:25:23Z</time>
      </trkpt>
      <trkpt lat="43.414979" lon="-8.166709">
        <ele>5.159</ele>
        <time>2019-06-20T17:25:24Z</time>
      </trkpt>
      <trkpt lat="43.414937" lon="-8.166794">
        <ele>5.283</ele>
        <time>2019-06-20T17:25:25Z</time>
      </trkpt>
      <trkpt lat="43.414893" lon="-8.166893">
        <ele>5.425</ele>
        <time>2019-06-20T17:25:26Z</time>
      </trkpt>
      <trkpt lat="43.414829" lon="-8.167004">
        <ele>5.717</ele>
        <time>2019-06-20T17:25:27Z</time>
      </trkpt>
      <trkpt lat="43.414760" lon="-8.167128">
        <ele>6.008</ele>
        <time>2019-06-20T17:25:28Z</time>
      </trkpt>
      <trkpt lat="43.414696" lon="-8.167254">
        <ele>6.031</ele>
        <time>2019-06-20T17:25:29Z</time>
      </trkpt>
      <trkpt lat="43.414614" lon="-8.167365">
        <ele>6.235</ele>
        <time>2019-06-20T17:25:30Z</time>
      </trkpt>
      <trkpt lat="43.414518" lon="-8.167469">
        <ele>6.776</ele>
        <time>2019-06-20T17:25:31Z</time>
      </trkpt>
      <trkpt lat="43.414417" lon="-8.167573">
        <ele>7.232</ele>
        <time>2019-06-20T17:25:32Z</time>
      </trkpt>
      <trkpt lat="43.414303" lon="-8.167675">
        <ele>7.399</ele>
        <time>2019-06-20T17:25:33Z</time>
      </trkpt>
      <trkpt lat="43.414180" lon="-8.167761">
        <ele>7.090</ele>
        <time>2019-06-20T17:25:34Z</time>
      </trkpt>
      <trkpt lat="43.414027" lon="-8.167822">
        <ele>5.972</ele>
        <time>2019-06-20T17:25:35Z</time>
      </trkpt>
      <trkpt lat="43.413904" lon="-8.167861">
        <ele>4.839</ele>
        <time>2019-06-20T17:25:36Z</time>
      </trkpt>
      <trkpt lat="43.413770" lon="-8.167921">
        <ele>3.828</ele>
        <time>2019-06-20T17:25:37Z</time>
      </trkpt>
      <trkpt lat="43.413636" lon="-8.167970">
        <ele>3.189</ele>
        <time>2019-06-20T17:25:38Z</time>
      </trkpt>
      <trkpt lat="43.413507" lon="-8.168024">
        <ele>3.017</ele>
        <time>2019-06-20T17:25:39Z</time>
      </trkpt>
      <trkpt lat="43.413400" lon="-8.168075">
        <ele>3.008</ele>
        <time>2019-06-20T17:25:40Z</time>
      </trkpt>
      <trkpt lat="43.413291" lon="-8.168131">
        <ele>2.875</ele>
        <time>2019-06-20T17:25:41Z</time>
      </trkpt>
      <trkpt lat="43.413200" lon="-8.168178">
        <ele>2.569</ele>
        <time>2019-06-20T17:25:42Z</time>
      </trkpt>
      <trkpt lat="43.413116" lon="-8.168243">
        <ele>2.230</ele>
        <time>2019-06-20T17:25:43Z</time>
      </trkpt>
      <trkpt lat="43.413040" lon="-8.168318">
        <ele>1.916</ele>
        <time>2019-06-20T17:25:44Z</time>
      </trkpt>
      <trkpt lat="43.412984" lon="-8.168403">
        <ele>1.933</ele>
        <time>2019-06-20T17:25:45Z</time>
      </trkpt>
      <trkpt lat="43.412925" lon="-8.168486">
        <ele>1.864</ele>
        <time>2019-06-20T17:25:46Z</time>
      </trkpt>
      <trkpt lat="43.412862" lon="-8.168561">
        <ele>1.696</ele>
        <time>2019-06-20T17:25:47Z</time>
      </trkpt>
      <trkpt lat="43.412767" lon="-8.168585">
        <ele>1.013</ele>
        <time>2019-06-20T17:25:48Z</time>
      </trkpt>
      <trkpt lat="43.412672" lon="-8.168604">
        <ele>1.042</ele>
        <time>2019-06-20T17:25:49Z</time>
      </trkpt>
      <trkpt lat="43.412562" lon="-8.168599">
        <ele>1.022</ele>
        <time>2019-06-20T17:25:50Z</time>
      </trkpt>
      <trkpt lat="43.412443" lon="-8.168586">
        <ele>0.914</ele>
        <time>2019-06-20T17:25:51Z</time>
      </trkpt>
      <trkpt lat="43.412309" lon="-8.168589">
        <ele>0.908</ele>
        <time>2019-06-20T17:25:52Z</time>
      </trkpt>
      <trkpt lat="43.412163" lon="-8.168611">
        <ele>1.057</ele>
        <time>2019-06-20T17:25:53Z</time>
      </trkpt>
      <trkpt lat="43.412007" lon="-8.168650">
        <ele>0.991</ele>
        <time>2019-06-20T17:25:54Z</time>
      </trkpt>
      <trkpt lat="43.411853" lon="-8.168699">
        <ele>0.732</ele>
        <time>2019-06-20T17:25:55Z</time>
      </trkpt>
      <trkpt lat="43.411699" lon="-8.168747">
        <ele>0.568</ele>
        <time>2019-06-20T17:25:56Z</time>
      </trkpt>
      <trkpt lat="43.411545" lon="-8.168793">
        <ele>0.275</ele>
        <time>2019-06-20T17:25:57Z</time>
      </trkpt>
      <trkpt lat="43.411390" lon="-8.168849">
        <ele>0.056</ele>
        <time>2019-06-20T17:25:58Z</time>
      </trkpt>
      <trkpt lat="43.411228" lon="-8.168899">
        <ele>0.078</ele>
        <time>2019-06-20T17:25:59Z</time>
      </trkpt>
      <trkpt lat="43.411055" lon="-8.168959">
        <ele>0.065</ele>
        <time>2019-06-20T17:26:00Z</time>
      </trkpt>
      <trkpt lat="43.410876" lon="-8.169020">
        <ele>0.097</ele>
        <time>2019-06-20T17:26:01Z</time>
      </trkpt>
      <trkpt lat="43.410701" lon="-8.169076">
        <ele>0.023</ele>
        <time>2019-06-20T17:26:02Z</time>
      </trkpt>
      <trkpt lat="43.410522" lon="-8.169135">
        <ele>0.025</ele>
        <time>2019-06-20T17:26:03Z</time>
      </trkpt>
      <trkpt lat="43.410366" lon="-8.169179">
        <ele>0.008</ele>
        <time>2019-06-20T17:26:04Z</time>
      </trkpt>
      <trkpt lat="43.410197" lon="-8.169234">
        <ele>0.062</ele>
        <time>2019-06-20T17:26:05Z</time>
      </trkpt>
      <trkpt lat="43.410035" lon="-8.169287">
        <ele>0.016</ele>
        <time>2019-06-20T17:26:06Z</time>
      </trkpt>
      <trkpt lat="43.409875" lon="-8.169340">
        <ele>0.037</ele>
        <time>2019-06-20T17:26:07Z</time>
      </trkpt>
      <trkpt lat="43.409722" lon="-8.169390">
        <ele>0.063</ele>
        <time>2019-06-20T17:26:08Z</time>
      </trkpt>
      <trkpt lat="43.409566" lon="-8.169433">
        <ele>0.050</ele>
        <time>2019-06-20T17:26:09Z</time>
      </trkpt>
      <trkpt lat="43.409399" lon="-8.169483">
        <ele>0.041</ele>
        <time>2019-06-20T17:26:10Z</time>
      </trkpt>
      <trkpt lat="43.409241" lon="-8.169524">
        <ele>0.083</ele>
        <time>2019-06-20T17:26:11Z</time>
      </trkpt>
      <trkpt lat="43.409080" lon="-8.169576">
        <ele>0.070</ele>
        <time>2019-06-20T17:26:12Z</time>
      </trkpt>
      <trkpt lat="43.408917" lon="-8.169630">
        <ele>0.053</ele>
        <time>2019-06-20T17:26:13Z</time>
      </trkpt>
      <trkpt lat="43.408758" lon="-8.169684">
        <ele>0.004</ele>
        <time>2019-06-20T17:26:14Z</time>
      </trkpt>
      <trkpt lat="43.408610" lon="-8.169737">
        <ele>0.014</ele>
        <time>2019-06-20T17:26:15Z</time>
      </trkpt>
      <trkpt lat="43.408464" lon="-8.169792">
        <ele>0.008</ele>
        <time>2019-06-20T17:26:16Z</time>
      </trkpt>
      <trkpt lat="43.408317" lon="-8.169840">
        <ele>0.138</ele>
        <time>2019-06-20T17:26:17Z</time>
      </trkpt>
      <trkpt lat="43.408192" lon="-8.169890">
        <ele>0.542</ele>
        <time>2019-06-20T17:26:18Z</time>
      </trkpt>
      <trkpt lat="43.408052" lon="-8.169937">
        <ele>1.023</ele>
        <time>2019-06-20T17:26:19Z</time>
      </trkpt>
      <trkpt lat="43.407955" lon="-8.169966">
        <ele>1.689</ele>
        <time>2019-06-20T17:26:20Z</time>
      </trkpt>
      <trkpt lat="43.407880" lon="-8.169968">
        <ele>2.166</ele>
        <time>2019-06-20T17:26:21Z</time>
      </trkpt>
      <trkpt lat="43.407796" lon="-8.169992">
        <ele>2.857</ele>
        <time>2019-06-20T17:26:22Z</time>
      </trkpt>
      <trkpt lat="43.407697" lon="-8.170010">
        <ele>3.959</ele>
        <time>2019-06-20T17:26:24Z</time>
      </trkpt>
      <trkpt lat="43.407649" lon="-8.170029">
        <ele>4.616</ele>
        <time>2019-06-20T17:26:25Z</time>
      </trkpt>
      <trkpt lat="43.407560" lon="-8.170069">
        <ele>5.889</ele>
        <time>2019-06-20T17:26:27Z</time>
      </trkpt>
      <trkpt lat="43.407511" lon="-8.170077">
        <ele>6.406</ele>
        <time>2019-06-20T17:26:28Z</time>
      </trkpt>
      <trkpt lat="43.407456" lon="-8.170055">
        <ele>7.026</ele>
        <time>2019-06-20T17:26:29Z</time>
      </trkpt>
      <trkpt lat="43.407394" lon="-8.170013">
        <ele>7.608</ele>
        <time>2019-06-20T17:26:30Z</time>
      </trkpt>
      <trkpt lat="43.407320" lon="-8.169962">
        <ele>8.591</ele>
        <time>2019-06-20T17:26:31Z</time>
      </trkpt>
      <trkpt lat="43.407278" lon="-8.169889">
        <ele>8.865</ele>
        <time>2019-06-20T17:26:32Z</time>
      </trkpt>
      <trkpt lat="43.407232" lon="-8.169822">
        <ele>9.296</ele>
        <time>2019-06-20T17:26:33Z</time>
      </trkpt>
      <trkpt lat="43.407167" lon="-8.169756">
        <ele>9.972</ele>
        <time>2019-06-20T17:26:34Z</time>
      </trkpt>
      <trkpt lat="43.407108" lon="-8.169694">
        <ele>10.549</ele>
        <time>2019-06-20T17:26:35Z</time>
      </trkpt>
      <trkpt lat="43.407060" lon="-8.169631">
        <ele>10.680</ele>
        <time>2019-06-20T17:26:36Z</time>
      </trkpt>
      <trkpt lat="43.407000" lon="-8.169564">
        <ele>10.772</ele>
        <time>2019-06-20T17:26:37Z</time>
      </trkpt>
      <trkpt lat="43.406943" lon="-8.169502">
        <ele>10.699</ele>
        <time>2019-06-20T17:26:38Z</time>
      </trkpt>
      <trkpt lat="43.406879" lon="-8.169434">
        <ele>10.296</ele>
        <time>2019-06-20T17:26:39Z</time>
      </trkpt>
      <trkpt lat="43.406816" lon="-8.169374">
        <ele>10.031</ele>
        <time>2019-06-20T17:26:40Z</time>
      </trkpt>
      <trkpt lat="43.406747" lon="-8.169327">
        <ele>9.924</ele>
        <time>2019-06-20T17:26:41Z</time>
      </trkpt>
      <trkpt lat="43.406672" lon="-8.169290">
        <ele>9.908</ele>
        <time>2019-06-20T17:26:42Z</time>
      </trkpt>
      <trkpt lat="43.406606" lon="-8.169249">
        <ele>9.672</ele>
        <time>2019-06-20T17:26:43Z</time>
      </trkpt>
      <trkpt lat="43.406520" lon="-8.169166">
        <ele>9.096</ele>
        <time>2019-06-20T17:26:44Z</time>
      </trkpt>
      <trkpt lat="43.406435" lon="-8.169078">
        <ele>8.997</ele>
        <time>2019-06-20T17:26:45Z</time>
      </trkpt>
      <trkpt lat="43.406346" lon="-8.168995">
        <ele>9.443</ele>
        <time>2019-06-20T17:26:46Z</time>
      </trkpt>
      <trkpt lat="43.406257" lon="-8.168906">
        <ele>10.070</ele>
        <time>2019-06-20T17:26:47Z</time>
      </trkpt>
      <trkpt lat="43.406166" lon="-8.168813">
        <ele>10.391</ele>
        <time>2019-06-20T17:26:48Z</time>
      </trkpt>
      <trkpt lat="43.406088" lon="-8.168733">
        <ele>10.773</ele>
        <time>2019-06-20T17:26:49Z</time>
      </trkpt>
      <trkpt lat="43.406016" lon="-8.168657">
        <ele>11.260</ele>
        <time>2019-06-20T17:26:50Z</time>
      </trkpt>
      <trkpt lat="43.405949" lon="-8.168586">
        <ele>11.773</ele>
        <time>2019-06-20T17:26:51Z</time>
      </trkpt>
      <trkpt lat="43.405885" lon="-8.168525">
        <ele>12.485</ele>
        <time>2019-06-20T17:26:52Z</time>
      </trkpt>
      <trkpt lat="43.405826" lon="-8.168472">
        <ele>13.113</ele>
        <time>2019-06-20T17:26:53Z</time>
      </trkpt>
      <trkpt lat="43.405784" lon="-8.168425">
        <ele>13.808</ele>
        <time>2019-06-20T17:26:54Z</time>
      </trkpt>
      <trkpt lat="43.405729" lon="-8.168369">
        <ele>14.630</ele>
        <time>2019-06-20T17:26:56Z</time>
      </trkpt>
      <trkpt lat="43.405647" lon="-8.168288">
        <ele>15.454</ele>
        <time>2019-06-20T17:26:58Z</time>
      </trkpt>
      <trkpt lat="43.405597" lon="-8.168213">
        <ele>15.555</ele>
        <time>2019-06-20T17:26:59Z</time>
      </trkpt>
      <trkpt lat="43.405531" lon="-8.168125">
        <ele>15.881</ele>
        <time>2019-06-20T17:27:00Z</time>
      </trkpt>
      <trkpt lat="43.405472" lon="-8.168025">
        <ele>16.118</ele>
        <time>2019-06-20T17:27:01Z</time>
      </trkpt>
      <trkpt lat="43.405405" lon="-8.167917">
        <ele>16.489</ele>
        <time>2019-06-20T17:27:02Z</time>
      </trkpt>
      <trkpt lat="43.405340" lon="-8.167788">
        <ele>16.441</ele>
        <time>2019-06-20T17:27:03Z</time>
      </trkpt>
      <trkpt lat="43.405198" lon="-8.167653">
        <ele>17.428</ele>
        <time>2019-06-20T17:27:04Z</time>
      </trkpt>
      <trkpt lat="43.405081" lon="-8.167476">
        <ele>18.574</ele>
        <time>2019-06-20T17:27:05Z</time>
      </trkpt>
      <trkpt lat="43.404973" lon="-8.167308">
        <ele>19.956</ele>
        <time>2019-06-20T17:27:06Z</time>
      </trkpt>
      <trkpt lat="43.404877" lon="-8.167115">
        <ele>21.921</ele>
        <time>2019-06-20T17:27:07Z</time>
      </trkpt>
      <trkpt lat="43.404777" lon="-8.166929">
        <ele>23.408</ele>
        <time>2019-06-20T17:27:08Z</time>
      </trkpt>
      <trkpt lat="43.404705" lon="-8.166726">
        <ele>23.590</ele>
        <time>2019-06-20T17:27:09Z</time>
      </trkpt>
      <trkpt lat="43.404613" lon="-8.166502">
        <ele>24.414</ele>
        <time>2019-06-20T17:27:10Z</time>
      </trkpt>
      <trkpt lat="43.404519" lon="-8.166302">
        <ele>25.385</ele>
        <time>2019-06-20T17:27:11Z</time>
      </trkpt>
      <trkpt lat="43.404410" lon="-8.166107">
        <ele>26.361</ele>
        <time>2019-06-20T17:27:12Z</time>
      </trkpt>
      <trkpt lat="43.404312" lon="-8.165916">
        <ele>26.448</ele>
        <time>2019-06-20T17:27:13Z</time>
      </trkpt>
      <trkpt lat="43.404202" lon="-8.165720">
        <ele>26.759</ele>
        <time>2019-06-20T17:27:14Z</time>
      </trkpt>
      <trkpt lat="43.404085" lon="-8.165546">
        <ele>27.121</ele>
        <time>2019-06-20T17:27:15Z</time>
      </trkpt>
      <trkpt lat="43.403981" lon="-8.165367">
        <ele>27.318</ele>
        <time>2019-06-20T17:27:16Z</time>
      </trkpt>
      <trkpt lat="43.403881" lon="-8.165183">
        <ele>27.884</ele>
        <time>2019-06-20T17:27:17Z</time>
      </trkpt>
      <trkpt lat="43.403787" lon="-8.164982">
        <ele>28.407</ele>
        <time>2019-06-20T17:27:18Z</time>
      </trkpt>
      <trkpt lat="43.403714" lon="-8.164781">
        <ele>28.217</ele>
        <time>2019-06-20T17:27:19Z</time>
      </trkpt>
      <trkpt lat="43.403646" lon="-8.164574">
        <ele>28.008</ele>
        <time>2019-06-20T17:27:20Z</time>
      </trkpt>
      <trkpt lat="43.403582" lon="-8.164334">
        <ele>28.291</ele>
        <time>2019-06-20T17:27:21Z</time>
      </trkpt>
      <trkpt lat="43.403533" lon="-8.164073">
        <ele>29.065</ele>
        <time>2019-06-20T17:27:22Z</time>
      </trkpt>
      <trkpt lat="43.403483" lon="-8.163851">
        <ele>31.266</ele>
        <time>2019-06-20T17:27:23Z</time>
      </trkpt>
      <trkpt lat="43.403440" lon="-8.163622">
        <ele>34.652</ele>
        <time>2019-06-20T17:27:24Z</time>
      </trkpt>
      <trkpt lat="43.403393" lon="-8.163405">
        <ele>36.689</ele>
        <time>2019-06-20T17:27:25Z</time>
      </trkpt>
      <trkpt lat="43.403353" lon="-8.163197">
        <ele>37.260</ele>
        <time>2019-06-20T17:27:26Z</time>
      </trkpt>
      <trkpt lat="43.403320" lon="-8.163002">
        <ele>37.442</ele>
        <time>2019-06-20T17:27:27Z</time>
      </trkpt>
      <trkpt lat="43.403279" lon="-8.162808">
        <ele>38.659</ele>
        <time>2019-06-20T17:27:28Z</time>
      </trkpt>
      <trkpt lat="43.403222" lon="-8.162624">
        <ele>40.126</ele>
        <time>2019-06-20T17:27:29Z</time>
      </trkpt>
      <trkpt lat="43.403154" lon="-8.162459">
        <ele>41.047</ele>
        <time>2019-06-20T17:27:30Z</time>
      </trkpt>
      <trkpt lat="43.403068" lon="-8.162345">
        <ele>41.711</ele>
        <time>2019-06-20T17:27:31Z</time>
      </trkpt>
      <trkpt lat="43.402955" lon="-8.162250">
        <ele>42.008</ele>
        <time>2019-06-20T17:27:32Z</time>
      </trkpt>
      <trkpt lat="43.402835" lon="-8.162206">
        <ele>42.485</ele>
        <time>2019-06-20T17:27:33Z</time>
      </trkpt>
      <trkpt lat="43.402706" lon="-8.162205">
        <ele>42.869</ele>
        <time>2019-06-20T17:27:34Z</time>
      </trkpt>
      <trkpt lat="43.402568" lon="-8.162233">
        <ele>43.150</ele>
        <time>2019-06-20T17:27:35Z</time>
      </trkpt>
      <trkpt lat="43.402424" lon="-8.162291">
        <ele>44.556</ele>
        <time>2019-06-20T17:27:36Z</time>
      </trkpt>
      <trkpt lat="43.402266" lon="-8.162359">
        <ele>46.243</ele>
        <time>2019-06-20T17:27:37Z</time>
      </trkpt>
      <trkpt lat="43.402103" lon="-8.162421">
        <ele>47.524</ele>
        <time>2019-06-20T17:27:38Z</time>
      </trkpt>
      <trkpt lat="43.401940" lon="-8.162484">
        <ele>48.876</ele>
        <time>2019-06-20T17:27:39Z</time>
      </trkpt>
      <trkpt lat="43.401770" lon="-8.162556">
        <ele>49.073</ele>
        <time>2019-06-20T17:27:40Z</time>
      </trkpt>
      <trkpt lat="43.401597" lon="-8.162652">
        <ele>49.612</ele>
        <time>2019-06-20T17:27:41Z</time>
      </trkpt>
      <trkpt lat="43.401424" lon="-8.162776">
        <ele>51.032</ele>
        <time>2019-06-20T17:27:42Z</time>
      </trkpt>
      <trkpt lat="43.401256" lon="-8.162922">
        <ele>52.605</ele>
        <time>2019-06-20T17:27:43Z</time>
      </trkpt>
      <trkpt lat="43.401099" lon="-8.163068">
        <ele>54.108</ele>
        <time>2019-06-20T17:27:44Z</time>
      </trkpt>
      <trkpt lat="43.400937" lon="-8.163230">
        <ele>54.974</ele>
        <time>2019-06-20T17:27:45Z</time>
      </trkpt>
      <trkpt lat="43.400765" lon="-8.163387">
        <ele>54.878</ele>
        <time>2019-06-20T17:27:46Z</time>
      </trkpt>
      <trkpt lat="43.400596" lon="-8.163551">
        <ele>54.159</ele>
        <time>2019-06-20T17:27:47Z</time>
      </trkpt>
      <trkpt lat="43.400426" lon="-8.163706">
        <ele>55.545</ele>
        <time>2019-06-20T17:27:48Z</time>
      </trkpt>
      <trkpt lat="43.400258" lon="-8.163863">
        <ele>57.992</ele>
        <time>2019-06-20T17:27:49Z</time>
      </trkpt>
      <trkpt lat="43.400089" lon="-8.164020">
        <ele>61.173</ele>
        <time>2019-06-20T17:27:50Z</time>
      </trkpt>
      <trkpt lat="43.399927" lon="-8.164169">
        <ele>64.035</ele>
        <time>2019-06-20T17:27:51Z</time>
      </trkpt>
      <trkpt lat="43.399769" lon="-8.164315">
        <ele>65.842</ele>
        <time>2019-06-20T17:27:52Z</time>
      </trkpt>
      <trkpt lat="43.399621" lon="-8.164467">
        <ele>67.265</ele>
        <time>2019-06-20T17:27:53Z</time>
      </trkpt>
      <trkpt lat="43.399472" lon="-8.164618">
        <ele>67.768</ele>
        <time>2019-06-20T17:27:54Z</time>
      </trkpt>
      <trkpt lat="43.399323" lon="-8.164773">
        <ele>67.914</ele>
        <time>2019-06-20T17:27:55Z</time>
      </trkpt>
      <trkpt lat="43.399185" lon="-8.164935">
        <ele>68.608</ele>
        <time>2019-06-20T17:27:56Z</time>
      </trkpt>
      <trkpt lat="43.399050" lon="-8.165101">
        <ele>70.199</ele>
        <time>2019-06-20T17:27:57Z</time>
      </trkpt>
      <trkpt lat="43.398925" lon="-8.165262">
        <ele>71.193</ele>
        <time>2019-06-20T17:27:58Z</time>
      </trkpt>
      <trkpt lat="43.398804" lon="-8.165432">
        <ele>70.944</ele>
        <time>2019-06-20T17:27:59Z</time>
      </trkpt>
      <trkpt lat="43.398681" lon="-8.165606">
        <ele>70.430</ele>
        <time>2019-06-20T17:28:00Z</time>
      </trkpt>
      <trkpt lat="43.398561" lon="-8.165786">
        <ele>70.157</ele>
        <time>2019-06-20T17:28:01Z</time>
      </trkpt>
      <trkpt lat="43.398431" lon="-8.165975">
        <ele>70.128</ele>
        <time>2019-06-20T17:28:02Z</time>
      </trkpt>
      <trkpt lat="43.398302" lon="-8.166159">
        <ele>70.180</ele>
        <time>2019-06-20T17:28:03Z</time>
      </trkpt>
      <trkpt lat="43.398176" lon="-8.166356">
        <ele>70.667</ele>
        <time>2019-06-20T17:28:04Z</time>
      </trkpt>
      <trkpt lat="43.398052" lon="-8.166546">
        <ele>70.517</ele>
        <time>2019-06-20T17:28:05Z</time>
      </trkpt>
      <trkpt lat="43.397936" lon="-8.166740">
        <ele>69.887</ele>
        <time>2019-06-20T17:28:06Z</time>
      </trkpt>
      <trkpt lat="43.397824" lon="-8.166927">
        <ele>69.915</ele>
        <time>2019-06-20T17:28:07Z</time>
      </trkpt>
      <trkpt lat="43.397726" lon="-8.167118">
        <ele>70.708</ele>
        <time>2019-06-20T17:28:08Z</time>
      </trkpt>
      <trkpt lat="43.397643" lon="-8.167317">
        <ele>72.324</ele>
        <time>2019-06-20T17:28:09Z</time>
      </trkpt>
      <trkpt lat="43.397580" lon="-8.167539">
        <ele>74.628</ele>
        <time>2019-06-20T17:28:10Z</time>
      </trkpt>
      <trkpt lat="43.397553" lon="-8.167764">
        <ele>75.619</ele>
        <time>2019-06-20T17:28:11Z</time>
      </trkpt>
      <trkpt lat="43.397549" lon="-8.168000">
        <ele>77.175</ele>
        <time>2019-06-20T17:28:12Z</time>
      </trkpt>
      <trkpt lat="43.397574" lon="-8.168225">
        <ele>78.132</ele>
        <time>2019-06-20T17:28:13Z</time>
      </trkpt>
      <trkpt lat="43.397606" lon="-8.168466">
        <ele>80.593</ele>
        <time>2019-06-20T17:28:14Z</time>
      </trkpt>
      <trkpt lat="43.397672" lon="-8.168683">
        <ele>84.095</ele>
        <time>2019-06-20T17:28:15Z</time>
      </trkpt>
      <trkpt lat="43.397792" lon="-8.168830">
        <ele>86.692</ele>
        <time>2019-06-20T17:28:16Z</time>
      </trkpt>
      <trkpt lat="43.397923" lon="-8.168985">
        <ele>88.838</ele>
        <time>2019-06-20T17:28:17Z</time>
      </trkpt>
      <trkpt lat="43.398081" lon="-8.169101">
        <ele>89.770</ele>
        <time>2019-06-20T17:28:18Z</time>
      </trkpt>
      <trkpt lat="43.398244" lon="-8.169180">
        <ele>90.617</ele>
        <time>2019-06-20T17:28:19Z</time>
      </trkpt>
      <trkpt lat="43.398416" lon="-8.169233">
        <ele>92.008</ele>
        <time>2019-06-20T17:28:20Z</time>
      </trkpt>
      <trkpt lat="43.398588" lon="-8.169265">
        <ele>94.096</ele>
        <time>2019-06-20T17:28:21Z</time>
      </trkpt>
      <trkpt lat="43.398775" lon="-8.169284">
        <ele>96.680</ele>
        <time>2019-06-20T17:28:22Z</time>
      </trkpt>
      <trkpt lat="43.398943" lon="-8.169224">
        <ele>97.421</ele>
        <time>2019-06-20T17:28:23Z</time>
      </trkpt>
      <trkpt lat="43.399119" lon="-8.169070">
        <ele>97.447</ele>
        <time>2019-06-20T17:28:24Z</time>
      </trkpt>
      <trkpt lat="43.399239" lon="-8.168889">
        <ele>96.664</ele>
        <time>2019-06-20T17:28:25Z</time>
      </trkpt>
      <trkpt lat="43.399384" lon="-8.168706">
        <ele>97.745</ele>
        <time>2019-06-20T17:28:26Z</time>
      </trkpt>
      <trkpt lat="43.399494" lon="-8.168430">
        <ele>97.067</ele>
        <time>2019-06-20T17:28:27Z</time>
      </trkpt>
      <trkpt lat="43.399618" lon="-8.168199">
        <ele>97.574</ele>
        <time>2019-06-20T17:28:28Z</time>
      </trkpt>
      <trkpt lat="43.399746" lon="-8.168013">
        <ele>98.188</ele>
        <time>2019-06-20T17:28:29Z</time>
      </trkpt>
      <trkpt lat="43.399862" lon="-8.167807">
        <ele>98.324</ele>
        <time>2019-06-20T17:28:30Z</time>
      </trkpt>
      <trkpt lat="43.399983" lon="-8.167632">
        <ele>98.726</ele>
        <time>2019-06-20T17:28:31Z</time>
      </trkpt>
      <trkpt lat="43.400108" lon="-8.167475">
        <ele>98.608</ele>
        <time>2019-06-20T17:28:32Z</time>
      </trkpt>
      <trkpt lat="43.400246" lon="-8.167377">
        <ele>99.391</ele>
        <time>2019-06-20T17:28:33Z</time>
      </trkpt>
      <trkpt lat="43.400393" lon="-8.167318">
        <ele>100.245</ele>
        <time>2019-06-20T17:28:34Z</time>
      </trkpt>
      <trkpt lat="43.400542" lon="-8.167288">
        <ele>101.176</ele>
        <time>2019-06-20T17:28:35Z</time>
      </trkpt>
      <trkpt lat="43.400675" lon="-8.167323">
        <ele>101.992</ele>
        <time>2019-06-20T17:28:36Z</time>
      </trkpt>
      <trkpt lat="43.400808" lon="-8.167386">
        <ele>103.019</ele>
        <time>2019-06-20T17:28:37Z</time>
      </trkpt>
      <trkpt lat="43.400948" lon="-8.167472">
        <ele>102.610</ele>
        <time>2019-06-20T17:28:38Z</time>
      </trkpt>
      <trkpt lat="43.401046" lon="-8.167622">
        <ele>102.022</ele>
        <time>2019-06-20T17:28:39Z</time>
      </trkpt>
      <trkpt lat="43.401117" lon="-8.167805">
        <ele>102.249</ele>
        <time>2019-06-20T17:28:40Z</time>
      </trkpt>
      <trkpt lat="43.401176" lon="-8.168009">
        <ele>103.461</ele>
        <time>2019-06-20T17:28:41Z</time>
      </trkpt>
      <trkpt lat="43.401190" lon="-8.168216">
        <ele>105.421</ele>
        <time>2019-06-20T17:28:42Z</time>
      </trkpt>
      <trkpt lat="43.401190" lon="-8.168424">
        <ele>107.413</ele>
        <time>2019-06-20T17:28:43Z</time>
      </trkpt>
      <trkpt lat="43.401174" lon="-8.168629">
        <ele>109.108</ele>
        <time>2019-06-20T17:28:44Z</time>
      </trkpt>
      <trkpt lat="43.401151" lon="-8.168824">
        <ele>110.159</ele>
        <time>2019-06-20T17:28:45Z</time>
      </trkpt>
      <trkpt lat="43.401009" lon="-8.168978">
        <ele>111.913</ele>
        <time>2019-06-20T17:28:46Z</time>
      </trkpt>
      <trkpt lat="43.400891" lon="-8.169130">
        <ele>112.864</ele>
        <time>2019-06-20T17:28:47Z</time>
      </trkpt>
      <trkpt lat="43.400762" lon="-8.169283">
        <ele>112.920</ele>
        <time>2019-06-20T17:28:48Z</time>
      </trkpt>
      <trkpt lat="43.400630" lon="-8.169439">
        <ele>112.547</ele>
        <time>2019-06-20T17:28:49Z</time>
      </trkpt>
      <trkpt lat="43.400490" lon="-8.169570">
        <ele>112.478</ele>
        <time>2019-06-20T17:28:50Z</time>
      </trkpt>
      <trkpt lat="43.400356" lon="-8.169699">
        <ele>113.560</ele>
        <time>2019-06-20T17:28:51Z</time>
      </trkpt>
      <trkpt lat="43.400221" lon="-8.169810">
        <ele>115.377</ele>
        <time>2019-06-20T17:28:52Z</time>
      </trkpt>
      <trkpt lat="43.400077" lon="-8.169909">
        <ele>116.727</ele>
        <time>2019-06-20T17:28:53Z</time>
      </trkpt>
      <trkpt lat="43.399932" lon="-8.170006">
        <ele>118.368</ele>
        <time>2019-06-20T17:28:54Z</time>
      </trkpt>
      <trkpt lat="43.399793" lon="-8.170101">
        <ele>120.014</ele>
        <time>2019-06-20T17:28:55Z</time>
      </trkpt>
      <trkpt lat="43.399650" lon="-8.170184">
        <ele>120.708</ele>
        <time>2019-06-20T17:28:56Z</time>
      </trkpt>
      <trkpt lat="43.399501" lon="-8.170274">
        <ele>121.215</ele>
        <time>2019-06-20T17:28:57Z</time>
      </trkpt>
      <trkpt lat="43.399354" lon="-8.170365">
        <ele>121.969</ele>
        <time>2019-06-20T17:28:58Z</time>
      </trkpt>
      <trkpt lat="43.399200" lon="-8.170441">
        <ele>122.530</ele>
        <time>2019-06-20T17:28:59Z</time>
      </trkpt>
      <trkpt lat="43.399058" lon="-8.170545">
        <ele>123.146</ele>
        <time>2019-06-20T17:29:00Z</time>
      </trkpt>
      <trkpt lat="43.398892" lon="-8.170651">
        <ele>124.113</ele>
        <time>2019-06-20T17:29:01Z</time>
      </trkpt>
      <trkpt lat="43.398722" lon="-8.170762">
        <ele>124.894</ele>
        <time>2019-06-20T17:29:02Z</time>
      </trkpt>
      <trkpt lat="43.398552" lon="-8.170875">
        <ele>125.596</ele>
        <time>2019-06-20T17:29:03Z</time>
      </trkpt>
      <trkpt lat="43.398370" lon="-8.170987">
        <ele>126.313</ele>
        <time>2019-06-20T17:29:04Z</time>
      </trkpt>
      <trkpt lat="43.398193" lon="-8.171091">
        <ele>126.969</ele>
        <time>2019-06-20T17:29:05Z</time>
      </trkpt>
      <trkpt lat="43.398019" lon="-8.171189">
        <ele>127.704</ele>
        <time>2019-06-20T17:29:06Z</time>
      </trkpt>
      <trkpt lat="43.397839" lon="-8.171285">
        <ele>129.524</ele>
        <time>2019-06-20T17:29:07Z</time>
      </trkpt>
      <trkpt lat="43.397662" lon="-8.171354">
        <ele>131.408</ele>
        <time>2019-06-20T17:29:08Z</time>
      </trkpt>
      <trkpt lat="43.397489" lon="-8.171396">
        <ele>133.129</ele>
        <time>2019-06-20T17:29:09Z</time>
      </trkpt>
      <trkpt lat="43.397317" lon="-8.171410">
        <ele>132.833</ele>
        <time>2019-06-20T17:29:10Z</time>
      </trkpt>
      <trkpt lat="43.397148" lon="-8.171408">
        <ele>132.424</ele>
        <time>2019-06-20T17:29:11Z</time>
      </trkpt>
      <trkpt lat="43.396981" lon="-8.171399">
        <ele>132.380</ele>
        <time>2019-06-20T17:29:12Z</time>
      </trkpt>
      <trkpt lat="43.396788" lon="-8.171397">
        <ele>135.097</ele>
        <time>2019-06-20T17:29:13Z</time>
      </trkpt>
      <trkpt lat="43.396599" lon="-8.171367">
        <ele>137.278</ele>
        <time>2019-06-20T17:29:14Z</time>
      </trkpt>
      <trkpt lat="43.396408" lon="-8.171357">
        <ele>139.310</ele>
        <time>2019-06-20T17:29:15Z</time>
      </trkpt>
      <trkpt lat="43.396217" lon="-8.171338">
        <ele>139.437</ele>
        <time>2019-06-20T17:29:16Z</time>
      </trkpt>
      <trkpt lat="43.396040" lon="-8.171306">
        <ele>139.663</ele>
        <time>2019-06-20T17:29:17Z</time>
      </trkpt>
      <trkpt lat="43.395863" lon="-8.171280">
        <ele>140.844</ele>
        <time>2019-06-20T17:29:18Z</time>
      </trkpt>
      <trkpt lat="43.395683" lon="-8.171244">
        <ele>142.118</ele>
        <time>2019-06-20T17:29:19Z</time>
      </trkpt>
      <trkpt lat="43.395504" lon="-8.171215">
        <ele>142.908</ele>
        <time>2019-06-20T17:29:20Z</time>
      </trkpt>
      <trkpt lat="43.395325" lon="-8.171190">
        <ele>143.239</ele>
        <time>2019-06-20T17:29:21Z</time>
      </trkpt>
      <trkpt lat="43.395143" lon="-8.171157">
        <ele>143.223</ele>
        <time>2019-06-20T17:29:22Z</time>
      </trkpt>
      <trkpt lat="43.394964" lon="-8.171124">
        <ele>143.244</ele>
        <time>2019-06-20T17:29:23Z</time>
      </trkpt>
      <trkpt lat="43.394792" lon="-8.171097">
        <ele>143.770</ele>
        <time>2019-06-20T17:29:24Z</time>
      </trkpt>
      <trkpt lat="43.394610" lon="-8.171064">
        <ele>144.077</ele>
        <time>2019-06-20T17:29:25Z</time>
      </trkpt>
      <trkpt lat="43.394443" lon="-8.171038">
        <ele>144.048</ele>
        <time>2019-06-20T17:29:26Z</time>
      </trkpt>
      <trkpt lat="43.394268" lon="-8.170999">
        <ele>144.420</ele>
        <time>2019-06-20T17:29:27Z</time>
      </trkpt>
      <trkpt lat="43.394098" lon="-8.170955">
        <ele>144.847</ele>
        <time>2019-06-20T17:29:28Z</time>
      </trkpt>
      <trkpt lat="43.393938" lon="-8.170902">
        <ele>145.739</ele>
        <time>2019-06-20T17:29:29Z</time>
      </trkpt>
      <trkpt lat="43.393801" lon="-8.170852">
        <ele>146.901</ele>
        <time>2019-06-20T17:29:30Z</time>
      </trkpt>
      <trkpt lat="43.393658" lon="-8.170758">
        <ele>148.021</ele>
        <time>2019-06-20T17:29:31Z</time>
      </trkpt>
      <trkpt lat="43.393490" lon="-8.170635">
        <ele>148.308</ele>
        <time>2019-06-20T17:29:32Z</time>
      </trkpt>
      <trkpt lat="43.393325" lon="-8.170510">
        <ele>148.526</ele>
        <time>2019-06-20T17:29:33Z</time>
      </trkpt>
      <trkpt lat="43.393160" lon="-8.170367">
        <ele>148.480</ele>
        <time>2019-06-20T17:29:34Z</time>
      </trkpt>
      <trkpt lat="43.392997" lon="-8.170219">
        <ele>148.831</ele>
        <time>2019-06-20T17:29:35Z</time>
      </trkpt>
      <trkpt lat="43.392816" lon="-8.170068">
        <ele>149.017</ele>
        <time>2019-06-20T17:29:36Z</time>
      </trkpt>
      <trkpt lat="43.392650" lon="-8.169929">
        <ele>149.314</ele>
        <time>2019-06-20T17:29:37Z</time>
      </trkpt>
      <trkpt lat="43.392483" lon="-8.169790">
        <ele>150.175</ele>
        <time>2019-06-20T17:29:38Z</time>
      </trkpt>
      <trkpt lat="43.392315" lon="-8.169651">
        <ele>151.137</ele>
        <time>2019-06-20T17:29:39Z</time>
      </trkpt>
      <trkpt lat="43.392151" lon="-8.169509">
        <ele>152.574</ele>
        <time>2019-06-20T17:29:40Z</time>
      </trkpt>
      <trkpt lat="43.392004" lon="-8.169371">
        <ele>153.585</ele>
        <time>2019-06-20T17:29:41Z</time>
      </trkpt>
      <trkpt lat="43.391852" lon="-8.169233">
        <ele>154.789</ele>
        <time>2019-06-20T17:29:42Z</time>
      </trkpt>
      <trkpt lat="43.391708" lon="-8.169106">
        <ele>155.717</ele>
        <time>2019-06-20T17:29:43Z</time>
      </trkpt>
      <trkpt lat="43.391575" lon="-8.168983">
        <ele>156.408</ele>
        <time>2019-06-20T17:29:44Z</time>
      </trkpt>
      <trkpt lat="43.391458" lon="-8.168879">
        <ele>156.891</ele>
        <time>2019-06-20T17:29:45Z</time>
      </trkpt>
      <trkpt lat="43.391312" lon="-8.168792">
        <ele>157.015</ele>
        <time>2019-06-20T17:29:46Z</time>
      </trkpt>
      <trkpt lat="43.391181" lon="-8.168697">
        <ele>157.066</ele>
        <time>2019-06-20T17:29:47Z</time>
      </trkpt>
      <trkpt lat="43.391051" lon="-8.168638">
        <ele>156.882</ele>
        <time>2019-06-20T17:29:48Z</time>
      </trkpt>
      <trkpt lat="43.390926" lon="-8.168570">
        <ele>156.579</ele>
        <time>2019-06-20T17:29:49Z</time>
      </trkpt>
      <trkpt lat="43.390792" lon="-8.168497">
        <ele>156.390</ele>
        <time>2019-06-20T17:29:50Z</time>
      </trkpt>
      <trkpt lat="43.390647" lon="-8.168422">
        <ele>156.062</ele>
        <time>2019-06-20T17:29:51Z</time>
      </trkpt>
      <trkpt lat="43.390495" lon="-8.168344">
        <ele>155.589</ele>
        <time>2019-06-20T17:29:52Z</time>
      </trkpt>
      <trkpt lat="43.390333" lon="-8.168255">
        <ele>154.931</ele>
        <time>2019-06-20T17:29:53Z</time>
      </trkpt>
      <trkpt lat="43.390171" lon="-8.168163">
        <ele>154.861</ele>
        <time>2019-06-20T17:29:54Z</time>
      </trkpt>
      <trkpt lat="43.389983" lon="-8.168073">
        <ele>154.707</ele>
        <time>2019-06-20T17:29:55Z</time>
      </trkpt>
      <trkpt lat="43.389795" lon="-8.167983">
        <ele>153.208</ele>
        <time>2019-06-20T17:29:56Z</time>
      </trkpt>
      <trkpt lat="43.389600" lon="-8.167886">
        <ele>151.276</ele>
        <time>2019-06-20T17:29:57Z</time>
      </trkpt>
      <trkpt lat="43.389414" lon="-8.167782">
        <ele>148.580</ele>
        <time>2019-06-20T17:29:58Z</time>
      </trkpt>
      <trkpt lat="43.389219" lon="-8.167702">
        <ele>146.111</ele>
        <time>2019-06-20T17:29:59Z</time>
      </trkpt>
      <trkpt lat="43.389007" lon="-8.167638">
        <ele>144.127</ele>
        <time>2019-06-20T17:30:00Z</time>
      </trkpt>
      <trkpt lat="43.388817" lon="-8.167598">
        <ele>142.894</ele>
        <time>2019-06-20T17:30:01Z</time>
      </trkpt>
      <trkpt lat="43.388621" lon="-8.167574">
        <ele>141.545</ele>
        <time>2019-06-20T17:30:02Z</time>
      </trkpt>
      <trkpt lat="43.388414" lon="-8.167565">
        <ele>140.117</ele>
        <time>2019-06-20T17:30:03Z</time>
      </trkpt>
      <trkpt lat="43.388211" lon="-8.167598">
        <ele>139.494</ele>
        <time>2019-06-20T17:30:04Z</time>
      </trkpt>
      <trkpt lat="43.388007" lon="-8.167653">
        <ele>138.833</ele>
        <time>2019-06-20T17:30:05Z</time>
      </trkpt>
      <trkpt lat="43.387801" lon="-8.167736">
        <ele>137.623</ele>
        <time>2019-06-20T17:30:06Z</time>
      </trkpt>
      <trkpt lat="43.387604" lon="-8.167848">
        <ele>135.615</ele>
        <time>2019-06-20T17:30:07Z</time>
      </trkpt>
      <trkpt lat="43.387411" lon="-8.167987">
        <ele>133.308</ele>
        <time>2019-06-20T17:30:08Z</time>
      </trkpt>
      <trkpt lat="43.387223" lon="-8.168151">
        <ele>132.096</ele>
        <time>2019-06-20T17:30:09Z</time>
      </trkpt>
      <trkpt lat="43.387045" lon="-8.168341">
        <ele>131.310</ele>
        <time>2019-06-20T17:30:10Z</time>
      </trkpt>
      <trkpt lat="43.386870" lon="-8.168547">
        <ele>132.631</ele>
        <time>2019-06-20T17:30:11Z</time>
      </trkpt>
      <trkpt lat="43.386710" lon="-8.168764">
        <ele>133.197</ele>
        <time>2019-06-20T17:30:12Z</time>
      </trkpt>
      <trkpt lat="43.386544" lon="-8.168992">
        <ele>132.534</ele>
        <time>2019-06-20T17:30:13Z</time>
      </trkpt>
      <trkpt lat="43.386385" lon="-8.169214">
        <ele>130.385</ele>
        <time>2019-06-20T17:30:14Z</time>
      </trkpt>
      <trkpt lat="43.386219" lon="-8.169442">
        <ele>127.057</ele>
        <time>2019-06-20T17:30:15Z</time>
      </trkpt>
      <trkpt lat="43.386052" lon="-8.169668">
        <ele>125.614</ele>
        <time>2019-06-20T17:30:16Z</time>
      </trkpt>
      <trkpt lat="43.385886" lon="-8.169889">
        <ele>125.855</ele>
        <time>2019-06-20T17:30:17Z</time>
      </trkpt>
      <trkpt lat="43.385718" lon="-8.170105">
        <ele>125.607</ele>
        <time>2019-06-20T17:30:18Z</time>
      </trkpt>
      <trkpt lat="43.385544" lon="-8.170308">
        <ele>124.817</ele>
        <time>2019-06-20T17:30:19Z</time>
      </trkpt>
      <trkpt lat="43.385355" lon="-8.170502">
        <ele>122.808</ele>
        <time>2019-06-20T17:30:20Z</time>
      </trkpt>
      <trkpt lat="43.385155" lon="-8.170684">
        <ele>121.868</ele>
        <time>2019-06-20T17:30:21Z</time>
      </trkpt>
      <trkpt lat="43.384936" lon="-8.170855">
        <ele>120.942</ele>
        <time>2019-06-20T17:30:22Z</time>
      </trkpt>
      <trkpt lat="43.384706" lon="-8.171009">
        <ele>119.153</ele>
        <time>2019-06-20T17:30:23Z</time>
      </trkpt>
      <trkpt lat="43.384460" lon="-8.171159">
        <ele>117.719</ele>
        <time>2019-06-20T17:30:24Z</time>
      </trkpt>
      <trkpt lat="43.384222" lon="-8.171299">
        <ele>116.636</ele>
        <time>2019-06-20T17:30:25Z</time>
      </trkpt>
      <trkpt lat="43.383985" lon="-8.171443">
        <ele>115.817</ele>
        <time>2019-06-20T17:30:26Z</time>
      </trkpt>
      <trkpt lat="43.383745" lon="-8.171588">
        <ele>114.239</ele>
        <time>2019-06-20T17:30:27Z</time>
      </trkpt>
      <trkpt lat="43.383513" lon="-8.171744">
        <ele>112.326</ele>
        <time>2019-06-20T17:30:28Z</time>
      </trkpt>
      <trkpt lat="43.383276" lon="-8.171893">
        <ele>110.893</ele>
        <time>2019-06-20T17:30:29Z</time>
      </trkpt>
      <trkpt lat="43.383044" lon="-8.172043">
        <ele>109.965</ele>
        <time>2019-06-20T17:30:30Z</time>
      </trkpt>
      <trkpt lat="43.382806" lon="-8.172180">
        <ele>108.321</ele>
        <time>2019-06-20T17:30:31Z</time>
      </trkpt>
      <trkpt lat="43.382570" lon="-8.172306">
        <ele>108.108</ele>
        <time>2019-06-20T17:30:32Z</time>
      </trkpt>
      <trkpt lat="43.382344" lon="-8.172416">
        <ele>107.082</ele>
        <time>2019-06-20T17:30:33Z</time>
      </trkpt>
      <trkpt lat="43.382117" lon="-8.172520">
        <ele>105.656</ele>
        <time>2019-06-20T17:30:34Z</time>
      </trkpt>
      <trkpt lat="43.381890" lon="-8.172626">
        <ele>104.747</ele>
        <time>2019-06-20T17:30:35Z</time>
      </trkpt>
      <trkpt lat="43.381668" lon="-8.172729">
        <ele>104.343</ele>
        <time>2019-06-20T17:30:36Z</time>
      </trkpt>
      <trkpt lat="43.381448" lon="-8.172825">
        <ele>104.540</ele>
        <time>2019-06-20T17:30:37Z</time>
      </trkpt>
      <trkpt lat="43.381231" lon="-8.172925">
        <ele>104.591</ele>
        <time>2019-06-20T17:30:38Z</time>
      </trkpt>
      <trkpt lat="43.381009" lon="-8.173026">
        <ele>104.533</ele>
        <time>2019-06-20T17:30:39Z</time>
      </trkpt>
      <trkpt lat="43.380781" lon="-8.173123">
        <ele>104.270</ele>
        <time>2019-06-20T17:30:40Z</time>
      </trkpt>
      <trkpt lat="43.380552" lon="-8.173212">
        <ele>103.449</ele>
        <time>2019-06-20T17:30:41Z</time>
      </trkpt>
      <trkpt lat="43.380320" lon="-8.173310">
        <ele>103.102</ele>
        <time>2019-06-20T17:30:42Z</time>
      </trkpt>
      <trkpt lat="43.380084" lon="-8.173412">
        <ele>102.422</ele>
        <time>2019-06-20T17:30:43Z</time>
      </trkpt>
      <trkpt lat="43.379841" lon="-8.173517">
        <ele>100.908</ele>
        <time>2019-06-20T17:30:44Z</time>
      </trkpt>
      <trkpt lat="43.379600" lon="-8.173620">
        <ele>99.147</ele>
        <time>2019-06-20T17:30:45Z</time>
      </trkpt>
      <trkpt lat="43.379356" lon="-8.173728">
        <ele>97.921</ele>
        <time>2019-06-20T17:30:46Z</time>
      </trkpt>
      <trkpt lat="43.379108" lon="-8.173837">
        <ele>97.112</ele>
        <time>2019-06-20T17:30:47Z</time>
      </trkpt>
      <trkpt lat="43.378868" lon="-8.173944">
        <ele>95.658</ele>
        <time>2019-06-20T17:30:48Z</time>
      </trkpt>
      <trkpt lat="43.378646" lon="-8.174058">
        <ele>94.885</ele>
        <time>2019-06-20T17:30:49Z</time>
      </trkpt>
      <trkpt lat="43.378442" lon="-8.174178">
        <ele>95.216</ele>
        <time>2019-06-20T17:30:50Z</time>
      </trkpt>
      <trkpt lat="43.378247" lon="-8.174324">
        <ele>96.898</ele>
        <time>2019-06-20T17:30:51Z</time>
      </trkpt>
      <trkpt lat="43.378067" lon="-8.174488">
        <ele>98.755</ele>
        <time>2019-06-20T17:30:52Z</time>
      </trkpt>
      <trkpt lat="43.377904" lon="-8.174674">
        <ele>98.847</ele>
        <time>2019-06-20T17:30:53Z</time>
      </trkpt>
      <trkpt lat="43.377752" lon="-8.174876">
        <ele>99.329</ele>
        <time>2019-06-20T17:30:54Z</time>
      </trkpt>
      <trkpt lat="43.377609" lon="-8.175089">
        <ele>100.921</ele>
        <time>2019-06-20T17:30:55Z</time>
      </trkpt>
      <trkpt lat="43.377474" lon="-8.175313">
        <ele>102.408</ele>
        <time>2019-06-20T17:30:56Z</time>
      </trkpt>
      <trkpt lat="43.377335" lon="-8.175535">
        <ele>104.747</ele>
        <time>2019-06-20T17:30:57Z</time>
      </trkpt>
      <trkpt lat="43.377190" lon="-8.175749">
        <ele>108.811</ele>
        <time>2019-06-20T17:30:58Z</time>
      </trkpt>
      <trkpt lat="43.377035" lon="-8.175955">
        <ele>111.132</ele>
        <time>2019-06-20T17:30:59Z</time>
      </trkpt>
      <trkpt lat="43.376866" lon="-8.176149">
        <ele>111.568</ele>
        <time>2019-06-20T17:31:00Z</time>
      </trkpt>
      <trkpt lat="43.376686" lon="-8.176313">
        <ele>110.035</ele>
        <time>2019-06-20T17:31:01Z</time>
      </trkpt>
      <trkpt lat="43.376496" lon="-8.176458">
        <ele>110.366</ele>
        <time>2019-06-20T17:31:02Z</time>
      </trkpt>
      <trkpt lat="43.376298" lon="-8.176574">
        <ele>111.168</ele>
        <time>2019-06-20T17:31:03Z</time>
      </trkpt>
      <trkpt lat="43.376084" lon="-8.176663">
        <ele>113.155</ele>
        <time>2019-06-20T17:31:04Z</time>
      </trkpt>
      <trkpt lat="43.375866" lon="-8.176725">
        <ele>114.543</ele>
        <time>2019-06-20T17:31:05Z</time>
      </trkpt>
      <trkpt lat="43.375645" lon="-8.176759">
        <ele>115.064</ele>
        <time>2019-06-20T17:31:06Z</time>
      </trkpt>
      <trkpt lat="43.375423" lon="-8.176768">
        <ele>114.410</ele>
        <time>2019-06-20T17:31:07Z</time>
      </trkpt>
      <trkpt lat="43.375192" lon="-8.176755">
        <ele>113.808</ele>
        <time>2019-06-20T17:31:08Z</time>
      </trkpt>
      <trkpt lat="43.374953" lon="-8.176726">
        <ele>114.597</ele>
        <time>2019-06-20T17:31:09Z</time>
      </trkpt>
      <trkpt lat="43.374714" lon="-8.176691">
        <ele>115.221</ele>
        <time>2019-06-20T17:31:10Z</time>
      </trkpt>
      <trkpt lat="43.374469" lon="-8.176652">
        <ele>112.282</ele>
        <time>2019-06-20T17:31:11Z</time>
      </trkpt>
      <trkpt lat="43.374229" lon="-8.176617">
        <ele>108.738</ele>
        <time>2019-06-20T17:31:12Z</time>
      </trkpt>
      <trkpt lat="43.373995" lon="-8.176591">
        <ele>107.745</ele>
        <time>2019-06-20T17:31:13Z</time>
      </trkpt>
      <trkpt lat="43.373770" lon="-8.176584">
        <ele>108.166</ele>
        <time>2019-06-20T17:31:14Z</time>
      </trkpt>
      <trkpt lat="43.373555" lon="-8.176610">
        <ele>108.838</ele>
        <time>2019-06-20T17:31:15Z</time>
      </trkpt>
      <trkpt lat="43.373346" lon="-8.176659">
        <ele>109.055</ele>
        <time>2019-06-20T17:31:16Z</time>
      </trkpt>
      <trkpt lat="43.373134" lon="-8.176741">
        <ele>110.692</ele>
        <time>2019-06-20T17:31:17Z</time>
      </trkpt>
      <trkpt lat="43.372924" lon="-8.176832">
        <ele>112.373</ele>
        <time>2019-06-20T17:31:18Z</time>
      </trkpt>
      <trkpt lat="43.372704" lon="-8.176955">
        <ele>113.320</ele>
        <time>2019-06-20T17:31:19Z</time>
      </trkpt>
      <trkpt lat="43.372487" lon="-8.177086">
        <ele>113.908</ele>
        <time>2019-06-20T17:31:20Z</time>
      </trkpt>
      <trkpt lat="43.372295" lon="-8.177233">
        <ele>112.572</ele>
        <time>2019-06-20T17:31:21Z</time>
      </trkpt>
      <trkpt lat="43.372150" lon="-8.177443">
        <ele>112.836</ele>
        <time>2019-06-20T17:31:22Z</time>
      </trkpt>
      <trkpt lat="43.371968" lon="-8.177579">
        <ele>115.157</ele>
        <time>2019-06-20T17:31:23Z</time>
      </trkpt>
      <trkpt lat="43.371785" lon="-8.177706">
        <ele>117.273</ele>
        <time>2019-06-20T17:31:24Z</time>
      </trkpt>
      <trkpt lat="43.371592" lon="-8.177855">
        <ele>118.170</ele>
        <time>2019-06-20T17:31:25Z</time>
      </trkpt>
      <trkpt lat="43.371409" lon="-8.177994">
        <ele>118.771</ele>
        <time>2019-06-20T17:31:26Z</time>
      </trkpt>
      <trkpt lat="43.371210" lon="-8.178119">
        <ele>122.053</ele>
        <time>2019-06-20T17:31:27Z</time>
      </trkpt>
      <trkpt lat="43.371013" lon="-8.178254">
        <ele>125.010</ele>
        <time>2019-06-20T17:31:28Z</time>
      </trkpt>
      <trkpt lat="43.370813" lon="-8.178397">
        <ele>126.771</ele>
        <time>2019-06-20T17:31:29Z</time>
      </trkpt>
      <trkpt lat="43.370622" lon="-8.178539">
        <ele>124.041</ele>
        <time>2019-06-20T17:31:30Z</time>
      </trkpt>
      <trkpt lat="43.370430" lon="-8.178676">
        <ele>121.915</ele>
        <time>2019-06-20T17:31:31Z</time>
      </trkpt>
      <trkpt lat="43.370248" lon="-8.178813">
        <ele>120.508</ele>
        <time>2019-06-20T17:31:32Z</time>
      </trkpt>
      <trkpt lat="43.370075" lon="-8.178946">
        <ele>119.990</ele>
        <time>2019-06-20T17:31:33Z</time>
      </trkpt>
      <trkpt lat="43.369909" lon="-8.179069">
        <ele>119.514</ele>
        <time>2019-06-20T17:31:34Z</time>
      </trkpt>
      <trkpt lat="43.369740" lon="-8.179199">
        <ele>118.535</ele>
        <time>2019-06-20T17:31:35Z</time>
      </trkpt>
      <trkpt lat="43.369578" lon="-8.179325">
        <ele>119.421</ele>
        <time>2019-06-20T17:31:36Z</time>
      </trkpt>
      <trkpt lat="43.369407" lon="-8.179443">
        <ele>120.418</ele>
        <time>2019-06-20T17:31:37Z</time>
      </trkpt>
      <trkpt lat="43.369225" lon="-8.179556">
        <ele>122.599</ele>
        <time>2019-06-20T17:31:38Z</time>
      </trkpt>
      <trkpt lat="43.369048" lon="-8.179655">
        <ele>123.311</ele>
        <time>2019-06-20T17:31:39Z</time>
      </trkpt>
      <trkpt lat="43.368864" lon="-8.179728">
        <ele>123.978</ele>
        <time>2019-06-20T17:31:40Z</time>
      </trkpt>
      <trkpt lat="43.368644" lon="-8.179757">
        <ele>123.268</ele>
        <time>2019-06-20T17:31:41Z</time>
      </trkpt>
      <trkpt lat="43.368453" lon="-8.179778">
        <ele>121.442</ele>
        <time>2019-06-20T17:31:42Z</time>
      </trkpt>
      <trkpt lat="43.368251" lon="-8.179793">
        <ele>118.826</ele>
        <time>2019-06-20T17:31:43Z</time>
      </trkpt>
      <trkpt lat="43.368030" lon="-8.179764">
        <ele>116.008</ele>
        <time>2019-06-20T17:31:44Z</time>
      </trkpt>
      <trkpt lat="43.367817" lon="-8.179725">
        <ele>116.029</ele>
        <time>2019-06-20T17:31:45Z</time>
      </trkpt>
      <trkpt lat="43.367611" lon="-8.179622">
        <ele>115.433</ele>
        <time>2019-06-20T17:31:46Z</time>
      </trkpt>
      <trkpt lat="43.367414" lon="-8.179521">
        <ele>113.514</ele>
        <time>2019-06-20T17:31:47Z</time>
      </trkpt>
      <trkpt lat="43.367214" lon="-8.179408">
        <ele>110.780</ele>
        <time>2019-06-20T17:31:48Z</time>
      </trkpt>
      <trkpt lat="43.367030" lon="-8.179281">
        <ele>107.477</ele>
        <time>2019-06-20T17:31:49Z</time>
      </trkpt>
      <trkpt lat="43.366837" lon="-8.179160">
        <ele>105.238</ele>
        <time>2019-06-20T17:31:50Z</time>
      </trkpt>
      <trkpt lat="43.366641" lon="-8.179053">
        <ele>103.660</ele>
        <time>2019-06-20T17:31:51Z</time>
      </trkpt>
      <trkpt lat="43.366455" lon="-8.178948">
        <ele>103.417</ele>
        <time>2019-06-20T17:31:52Z</time>
      </trkpt>
      <trkpt lat="43.366270" lon="-8.178836">
        <ele>103.329</ele>
        <time>2019-06-20T17:31:53Z</time>
      </trkpt>
      <trkpt lat="43.366082" lon="-8.178722">
        <ele>103.500</ele>
        <time>2019-06-20T17:31:54Z</time>
      </trkpt>
      <trkpt lat="43.365896" lon="-8.178619">
        <ele>103.820</ele>
        <time>2019-06-20T17:31:55Z</time>
      </trkpt>
      <trkpt lat="43.365701" lon="-8.178533">
        <ele>102.608</ele>
        <time>2019-06-20T17:31:56Z</time>
      </trkpt>
      <trkpt lat="43.365505" lon="-8.178475">
        <ele>100.515</ele>
        <time>2019-06-20T17:31:57Z</time>
      </trkpt>
      <trkpt lat="43.365308" lon="-8.178448">
        <ele>98.229</ele>
        <time>2019-06-20T17:31:58Z</time>
      </trkpt>
      <trkpt lat="43.365104" lon="-8.178444">
        <ele>95.520</ele>
        <time>2019-06-20T17:31:59Z</time>
      </trkpt>
      <trkpt lat="43.364898" lon="-8.178472">
        <ele>94.366</ele>
        <time>2019-06-20T17:32:00Z</time>
      </trkpt>
      <trkpt lat="43.364689" lon="-8.178517">
        <ele>94.763</ele>
        <time>2019-06-20T17:32:01Z</time>
      </trkpt>
      <trkpt lat="43.364477" lon="-8.178619">
        <ele>95.354</ele>
        <time>2019-06-20T17:32:02Z</time>
      </trkpt>
      <trkpt lat="43.364260" lon="-8.178716">
        <ele>95.386</ele>
        <time>2019-06-20T17:32:03Z</time>
      </trkpt>
      <trkpt lat="43.364051" lon="-8.178817">
        <ele>95.053</ele>
        <time>2019-06-20T17:32:04Z</time>
      </trkpt>
      <trkpt lat="43.363849" lon="-8.178916">
        <ele>94.824</ele>
        <time>2019-06-20T17:32:05Z</time>
      </trkpt>
      <trkpt lat="43.363663" lon="-8.179003">
        <ele>94.104</ele>
        <time>2019-06-20T17:32:06Z</time>
      </trkpt>
      <trkpt lat="43.363478" lon="-8.179084">
        <ele>93.414</ele>
        <time>2019-06-20T17:32:07Z</time>
      </trkpt>
      <trkpt lat="43.363285" lon="-8.179160">
        <ele>92.408</ele>
        <time>2019-06-20T17:32:08Z</time>
      </trkpt>
      <trkpt lat="43.363086" lon="-8.179218">
        <ele>90.725</ele>
        <time>2019-06-20T17:32:09Z</time>
      </trkpt>
      <trkpt lat="43.362879" lon="-8.179257">
        <ele>88.549</ele>
        <time>2019-06-20T17:32:10Z</time>
      </trkpt>
      <trkpt lat="43.362665" lon="-8.179271">
        <ele>85.950</ele>
        <time>2019-06-20T17:32:11Z</time>
      </trkpt>
      <trkpt lat="43.362446" lon="-8.179271">
        <ele>83.456</ele>
        <time>2019-06-20T17:32:12Z</time>
      </trkpt>
      <trkpt lat="43.362220" lon="-8.179261">
        <ele>82.083</ele>
        <time>2019-06-20T17:32:13Z</time>
      </trkpt>
      <trkpt lat="43.361995" lon="-8.179257">
        <ele>80.964</ele>
        <time>2019-06-20T17:32:14Z</time>
      </trkpt>
      <trkpt lat="43.361768" lon="-8.179245">
        <ele>78.516</ele>
        <time>2019-06-20T17:32:15Z</time>
      </trkpt>
      <trkpt lat="43.361547" lon="-8.179236">
        <ele>76.073</ele>
        <time>2019-06-20T17:32:16Z</time>
      </trkpt>
      <trkpt lat="43.361331" lon="-8.179221">
        <ele>74.052</ele>
        <time>2019-06-20T17:32:17Z</time>
      </trkpt>
      <trkpt lat="43.361116" lon="-8.179210">
        <ele>73.353</ele>
        <time>2019-06-20T17:32:18Z</time>
      </trkpt>
      <trkpt lat="43.360899" lon="-8.179206">
        <ele>73.308</ele>
        <time>2019-06-20T17:32:19Z</time>
      </trkpt>
      <trkpt lat="43.360689" lon="-8.179205">
        <ele>72.808</ele>
        <time>2019-06-20T17:32:20Z</time>
      </trkpt>
      <trkpt lat="43.360481" lon="-8.179210">
        <ele>72.058</ele>
        <time>2019-06-20T17:32:21Z</time>
      </trkpt>
      <trkpt lat="43.360270" lon="-8.179227">
        <ele>71.272</ele>
        <time>2019-06-20T17:32:22Z</time>
      </trkpt>
      <trkpt lat="43.360072" lon="-8.179245">
        <ele>70.053</ele>
        <time>2019-06-20T17:32:23Z</time>
      </trkpt>
      <trkpt lat="43.359879" lon="-8.179266">
        <ele>68.429</ele>
        <time>2019-06-20T17:32:24Z</time>
      </trkpt>
      <trkpt lat="43.359696" lon="-8.179287">
        <ele>66.776</ele>
        <time>2019-06-20T17:32:25Z</time>
      </trkpt>
      <trkpt lat="43.359523" lon="-8.179314">
        <ele>66.077</ele>
        <time>2019-06-20T17:32:26Z</time>
      </trkpt>
      <trkpt lat="43.359360" lon="-8.179355">
        <ele>65.739</ele>
        <time>2019-06-20T17:32:27Z</time>
      </trkpt>
      <trkpt lat="43.359197" lon="-8.179410">
        <ele>65.216</ele>
        <time>2019-06-20T17:32:28Z</time>
      </trkpt>
      <trkpt lat="43.359038" lon="-8.179487">
        <ele>63.786</ele>
        <time>2019-06-20T17:32:29Z</time>
      </trkpt>
      <trkpt lat="43.358892" lon="-8.179594">
        <ele>62.060</ele>
        <time>2019-06-20T17:32:30Z</time>
      </trkpt>
      <trkpt lat="43.358761" lon="-8.179731">
        <ele>60.126</ele>
        <time>2019-06-20T17:32:31Z</time>
      </trkpt>
      <trkpt lat="43.358652" lon="-8.179892">
        <ele>58.008</ele>
        <time>2019-06-20T17:32:32Z</time>
      </trkpt>
      <trkpt lat="43.358561" lon="-8.180072">
        <ele>56.191</ele>
        <time>2019-06-20T17:32:33Z</time>
      </trkpt>
      <trkpt lat="43.358496" lon="-8.180269">
        <ele>54.825</ele>
        <time>2019-06-20T17:32:34Z</time>
      </trkpt>
      <trkpt lat="43.358450" lon="-8.180480">
        <ele>54.086</ele>
        <time>2019-06-20T17:32:35Z</time>
      </trkpt>
      <trkpt lat="43.358418" lon="-8.180715">
        <ele>52.842</ele>
        <time>2019-06-20T17:32:36Z</time>
      </trkpt>
      <trkpt lat="43.358405" lon="-8.180961">
        <ele>51.769</ele>
        <time>2019-06-20T17:32:37Z</time>
      </trkpt>
      <trkpt lat="43.358398" lon="-8.181214">
        <ele>51.280</ele>
        <time>2019-06-20T17:32:38Z</time>
      </trkpt>
      <trkpt lat="43.358392" lon="-8.181468">
        <ele>51.272</ele>
        <time>2019-06-20T17:32:39Z</time>
      </trkpt>
      <trkpt lat="43.358394" lon="-8.181714">
        <ele>51.249</ele>
        <time>2019-06-20T17:32:40Z</time>
      </trkpt>
      <trkpt lat="43.358381" lon="-8.181955">
        <ele>48.849</ele>
        <time>2019-06-20T17:32:41Z</time>
      </trkpt>
      <trkpt lat="43.358361" lon="-8.182191">
        <ele>46.802</ele>
        <time>2019-06-20T17:32:42Z</time>
      </trkpt>
      <trkpt lat="43.358321" lon="-8.182421">
        <ele>46.522</ele>
        <time>2019-06-20T17:32:43Z</time>
      </trkpt>
      <trkpt lat="43.358257" lon="-8.182645">
        <ele>46.708</ele>
        <time>2019-06-20T17:32:44Z</time>
      </trkpt>
      <trkpt lat="43.358188" lon="-8.182847">
        <ele>46.967</ele>
        <time>2019-06-20T17:32:45Z</time>
      </trkpt>
      <trkpt lat="43.358046" lon="-8.183029">
        <ele>45.581</ele>
        <time>2019-06-20T17:32:46Z</time>
      </trkpt>
      <trkpt lat="43.357903" lon="-8.183201">
        <ele>42.732</ele>
        <time>2019-06-20T17:32:47Z</time>
      </trkpt>
      <trkpt lat="43.357770" lon="-8.183369">
        <ele>39.948</ele>
        <time>2019-06-20T17:32:48Z</time>
      </trkpt>
      <trkpt lat="43.357629" lon="-8.183529">
        <ele>36.835</ele>
        <time>2019-06-20T17:32:49Z</time>
      </trkpt>
      <trkpt lat="43.357489" lon="-8.183704">
        <ele>35.256</ele>
        <time>2019-06-20T17:32:50Z</time>
      </trkpt>
      <trkpt lat="43.357360" lon="-8.183890">
        <ele>36.548</ele>
        <time>2019-06-20T17:32:51Z</time>
      </trkpt>
      <trkpt lat="43.357246" lon="-8.184097">
        <ele>37.595</ele>
        <time>2019-06-20T17:32:52Z</time>
      </trkpt>
      <trkpt lat="43.357138" lon="-8.184308">
        <ele>36.883</ele>
        <time>2019-06-20T17:32:53Z</time>
      </trkpt>
      <trkpt lat="43.357041" lon="-8.184531">
        <ele>36.225</ele>
        <time>2019-06-20T17:32:54Z</time>
      </trkpt>
      <trkpt lat="43.356953" lon="-8.184766">
        <ele>36.117</ele>
        <time>2019-06-20T17:32:55Z</time>
      </trkpt>
      <trkpt lat="43.356878" lon="-8.185018">
        <ele>34.608</ele>
        <time>2019-06-20T17:32:56Z</time>
      </trkpt>
      <trkpt lat="43.356824" lon="-8.185290">
        <ele>31.251</ele>
        <time>2019-06-20T17:32:57Z</time>
      </trkpt>
      <trkpt lat="43.356781" lon="-8.185563">
        <ele>28.625</ele>
        <time>2019-06-20T17:32:58Z</time>
      </trkpt>
      <trkpt lat="43.356750" lon="-8.185850">
        <ele>26.186</ele>
        <time>2019-06-20T17:32:59Z</time>
      </trkpt>
      <trkpt lat="43.356740" lon="-8.186169">
        <ele>24.952</ele>
        <time>2019-06-20T17:33:00Z</time>
      </trkpt>
      <trkpt lat="43.356747" lon="-8.186485">
        <ele>25.929</ele>
        <time>2019-06-20T17:33:01Z</time>
      </trkpt>
      <trkpt lat="43.356747" lon="-8.186798">
        <ele>25.990</ele>
        <time>2019-06-20T17:33:02Z</time>
      </trkpt>
      <trkpt lat="43.356772" lon="-8.187123">
        <ele>23.822</ele>
        <time>2019-06-20T17:33:03Z</time>
      </trkpt>
      <trkpt lat="43.356779" lon="-8.187454">
        <ele>19.939</ele>
        <time>2019-06-20T17:33:04Z</time>
      </trkpt>
      <trkpt lat="43.356795" lon="-8.187784">
        <ele>20.813</ele>
        <time>2019-06-20T17:33:05Z</time>
      </trkpt>
      <trkpt lat="43.356808" lon="-8.188110">
        <ele>23.543</ele>
        <time>2019-06-20T17:33:06Z</time>
      </trkpt>
      <trkpt lat="43.356825" lon="-8.188427">
        <ele>22.407</ele>
        <time>2019-06-20T17:33:07Z</time>
      </trkpt>
      <trkpt lat="43.356842" lon="-8.188738">
        <ele>19.608</ele>
        <time>2019-06-20T17:33:08Z</time>
      </trkpt>
      <trkpt lat="43.356850" lon="-8.189072">
        <ele>17.614</ele>
        <time>2019-06-20T17:33:09Z</time>
      </trkpt>
      <trkpt lat="43.356867" lon="-8.189392">
        <ele>17.658</ele>
        <time>2019-06-20T17:33:10Z</time>
      </trkpt>
      <trkpt lat="43.356885" lon="-8.189712">
        <ele>16.669</ele>
        <time>2019-06-20T17:33:11Z</time>
      </trkpt>
      <trkpt lat="43.356899" lon="-8.190047">
        <ele>14.515</ele>
        <time>2019-06-20T17:33:12Z</time>
      </trkpt>
      <trkpt lat="43.356911" lon="-8.190372">
        <ele>12.772</ele>
        <time>2019-06-20T17:33:13Z</time>
      </trkpt>
      <trkpt lat="43.356914" lon="-8.190687">
        <ele>11.633</ele>
        <time>2019-06-20T17:33:14Z</time>
      </trkpt>
      <trkpt lat="43.356919" lon="-8.190995">
        <ele>10.435</ele>
        <time>2019-06-20T17:33:15Z</time>
      </trkpt>
      <trkpt lat="43.356926" lon="-8.191295">
        <ele>8.562</ele>
        <time>2019-06-20T17:33:16Z</time>
      </trkpt>
      <trkpt lat="43.356914" lon="-8.191601">
        <ele>7.887</ele>
        <time>2019-06-20T17:33:17Z</time>
      </trkpt>
      <trkpt lat="43.356881" lon="-8.191897">
        <ele>7.742</ele>
        <time>2019-06-20T17:33:18Z</time>
      </trkpt>
      <trkpt lat="43.356839" lon="-8.192201">
        <ele>8.026</ele>
        <time>2019-06-20T17:33:19Z</time>
      </trkpt>
      <trkpt lat="43.356775" lon="-8.192498">
        <ele>9.608</ele>
        <time>2019-06-20T17:33:20Z</time>
      </trkpt>
      <trkpt lat="43.356684" lon="-8.192790">
        <ele>11.881</ele>
        <time>2019-06-20T17:33:21Z</time>
      </trkpt>
      <trkpt lat="43.356547" lon="-8.193023">
        <ele>13.975</ele>
        <time>2019-06-20T17:33:22Z</time>
      </trkpt>
      <trkpt lat="43.356411" lon="-8.193235">
        <ele>14.216</ele>
        <time>2019-06-20T17:33:23Z</time>
      </trkpt>
      <trkpt lat="43.356269" lon="-8.193448">
        <ele>14.032</ele>
        <time>2019-06-20T17:33:24Z</time>
      </trkpt>
      <trkpt lat="43.356122" lon="-8.193657">
        <ele>14.719</ele>
        <time>2019-06-20T17:33:25Z</time>
      </trkpt>
      <trkpt lat="43.355953" lon="-8.193827">
        <ele>15.910</ele>
        <time>2019-06-20T17:33:26Z</time>
      </trkpt>
      <trkpt lat="43.355762" lon="-8.193958">
        <ele>17.322</ele>
        <time>2019-06-20T17:33:27Z</time>
      </trkpt>
      <trkpt lat="43.355550" lon="-8.194090">
        <ele>18.449</ele>
        <time>2019-06-20T17:33:28Z</time>
      </trkpt>
      <trkpt lat="43.355353" lon="-8.194216">
        <ele>21.139</ele>
        <time>2019-06-20T17:33:29Z</time>
      </trkpt>
      <trkpt lat="43.355134" lon="-8.194321">
        <ele>22.601</ele>
        <time>2019-06-20T17:33:30Z</time>
      </trkpt>
      <trkpt lat="43.354910" lon="-8.194425">
        <ele>22.421</ele>
        <time>2019-06-20T17:33:31Z</time>
      </trkpt>
      <trkpt lat="43.354685" lon="-8.194517">
        <ele>20.908</ele>
        <time>2019-06-20T17:33:32Z</time>
      </trkpt>
      <trkpt lat="43.354467" lon="-8.194629">
        <ele>19.096</ele>
        <time>2019-06-20T17:33:33Z</time>
      </trkpt>
      <trkpt lat="43.354242" lon="-8.194739">
        <ele>19.330</ele>
        <time>2019-06-20T17:33:34Z</time>
      </trkpt>
      <trkpt lat="43.354010" lon="-8.194846">
        <ele>21.521</ele>
        <time>2019-06-20T17:33:35Z</time>
      </trkpt>
      <trkpt lat="43.353793" lon="-8.194966">
        <ele>22.617</ele>
        <time>2019-06-20T17:33:36Z</time>
      </trkpt>
      <trkpt lat="43.353549" lon="-8.195094">
        <ele>23.334</ele>
        <time>2019-06-20T17:33:37Z</time>
      </trkpt>
      <trkpt lat="43.353324" lon="-8.195221">
        <ele>22.475</ele>
        <time>2019-06-20T17:33:38Z</time>
      </trkpt>
      <trkpt lat="43.353095" lon="-8.195333">
        <ele>20.447</ele>
        <time>2019-06-20T17:33:39Z</time>
      </trkpt>
      <trkpt lat="43.352864" lon="-8.195448">
        <ele>17.994</ele>
        <time>2019-06-20T17:33:40Z</time>
      </trkpt>
      <trkpt lat="43.352610" lon="-8.195580">
        <ele>16.335</ele>
        <time>2019-06-20T17:33:41Z</time>
      </trkpt>
      <trkpt lat="43.352388" lon="-8.195684">
        <ele>15.686</ele>
        <time>2019-06-20T17:33:42Z</time>
      </trkpt>
      <trkpt lat="43.352164" lon="-8.195802">
        <ele>15.314</ele>
        <time>2019-06-20T17:33:43Z</time>
      </trkpt>
      <trkpt lat="43.351948" lon="-8.195924">
        <ele>17.308</ele>
        <time>2019-06-20T17:33:44Z</time>
      </trkpt>
      <trkpt lat="43.351734" lon="-8.196063">
        <ele>20.966</ele>
        <time>2019-06-20T17:33:45Z</time>
      </trkpt>
      <trkpt lat="43.351534" lon="-8.196226">
        <ele>22.470</ele>
        <time>2019-06-20T17:33:46Z</time>
      </trkpt>
      <trkpt lat="43.351353" lon="-8.196393">
        <ele>22.011</ele>
        <time>2019-06-20T17:33:47Z</time>
      </trkpt>
      <trkpt lat="43.351212" lon="-8.196579">
        <ele>18.737</ele>
        <time>2019-06-20T17:33:48Z</time>
      </trkpt>
      <trkpt lat="43.351069" lon="-8.196795">
        <ele>17.274</ele>
        <time>2019-06-20T17:33:49Z</time>
      </trkpt>
      <trkpt lat="43.350948" lon="-8.197077">
        <ele>16.415</ele>
        <time>2019-06-20T17:33:50Z</time>
      </trkpt>
      <trkpt lat="43.350837" lon="-8.197332">
        <ele>16.677</ele>
        <time>2019-06-20T17:33:51Z</time>
      </trkpt>
      <trkpt lat="43.350740" lon="-8.197594">
        <ele>18.634</ele>
        <time>2019-06-20T17:33:52Z</time>
      </trkpt>
      <trkpt lat="43.350640" lon="-8.197885">
        <ele>22.316</ele>
        <time>2019-06-20T17:33:53Z</time>
      </trkpt>
      <trkpt lat="43.350562" lon="-8.198212">
        <ele>25.476</ele>
        <time>2019-06-20T17:33:54Z</time>
      </trkpt>
      <trkpt lat="43.350495" lon="-8.198518">
        <ele>28.713</ele>
        <time>2019-06-20T17:33:55Z</time>
      </trkpt>
      <trkpt lat="43.350498" lon="-8.198779">
        <ele>29.208</ele>
        <time>2019-06-20T17:33:56Z</time>
      </trkpt>
      <trkpt lat="43.350462" lon="-8.199050">
        <ele>32.134</ele>
        <time>2019-06-20T17:33:57Z</time>
      </trkpt>
      <trkpt lat="43.350429" lon="-8.199317">
        <ele>33.838</ele>
        <time>2019-06-20T17:33:58Z</time>
      </trkpt>
      <trkpt lat="43.350410" lon="-8.199531">
        <ele>33.929</ele>
        <time>2019-06-20T17:33:59Z</time>
      </trkpt>
      <trkpt lat="43.350381" lon="-8.199791">
        <ele>33.625</ele>
        <time>2019-06-20T17:34:00Z</time>
      </trkpt>
      <trkpt lat="43.350336" lon="-8.200073">
        <ele>34.482</ele>
        <time>2019-06-20T17:34:01Z</time>
      </trkpt>
      <trkpt lat="43.350314" lon="-8.200365">
        <ele>34.983</ele>
        <time>2019-06-20T17:34:02Z</time>
      </trkpt>
      <trkpt lat="43.350280" lon="-8.200639">
        <ele>36.095</ele>
        <time>2019-06-20T17:34:03Z</time>
      </trkpt>
      <trkpt lat="43.350300" lon="-8.200871">
        <ele>35.692</ele>
        <time>2019-06-20T17:34:04Z</time>
      </trkpt>
      <trkpt lat="43.350255" lon="-8.201056">
        <ele>35.574</ele>
        <time>2019-06-20T17:34:05Z</time>
      </trkpt>
      <trkpt lat="43.350166" lon="-8.201301">
        <ele>35.556</ele>
        <time>2019-06-20T17:34:06Z</time>
      </trkpt>
      <trkpt lat="43.350084" lon="-8.201518">
        <ele>36.021</ele>
        <time>2019-06-20T17:34:07Z</time>
      </trkpt>
      <trkpt lat="43.349970" lon="-8.201720">
        <ele>37.208</ele>
        <time>2019-06-20T17:34:08Z</time>
      </trkpt>
      <trkpt lat="43.349839" lon="-8.201902">
        <ele>38.370</ele>
        <time>2019-06-20T17:34:09Z</time>
      </trkpt>
      <trkpt lat="43.349702" lon="-8.202072">
        <ele>39.224</ele>
        <time>2019-06-20T17:34:10Z</time>
      </trkpt>
      <trkpt lat="43.349524" lon="-8.202226">
        <ele>42.035</ele>
        <time>2019-06-20T17:34:11Z</time>
      </trkpt>
      <trkpt lat="43.349352" lon="-8.202356">
        <ele>43.631</ele>
        <time>2019-06-20T17:34:12Z</time>
      </trkpt>
      <trkpt lat="43.349175" lon="-8.202474">
        <ele>44.388</ele>
        <time>2019-06-20T17:34:13Z</time>
      </trkpt>
      <trkpt lat="43.348978" lon="-8.202574">
        <ele>45.269</ele>
        <time>2019-06-20T17:34:14Z</time>
      </trkpt>
      <trkpt lat="43.348786" lon="-8.202653">
        <ele>45.931</ele>
        <time>2019-06-20T17:34:15Z</time>
      </trkpt>
      <trkpt lat="43.348566" lon="-8.202721">
        <ele>46.138</ele>
        <time>2019-06-20T17:34:16Z</time>
      </trkpt>
      <trkpt lat="43.348358" lon="-8.202761">
        <ele>47.045</ele>
        <time>2019-06-20T17:34:17Z</time>
      </trkpt>
      <trkpt lat="43.348147" lon="-8.202804">
        <ele>47.547</ele>
        <time>2019-06-20T17:34:18Z</time>
      </trkpt>
      <trkpt lat="43.347944" lon="-8.202860">
        <ele>47.511</ele>
        <time>2019-06-20T17:34:19Z</time>
      </trkpt>
      <trkpt lat="43.347740" lon="-8.202921">
        <ele>47.808</ele>
        <time>2019-06-20T17:34:20Z</time>
      </trkpt>
      <trkpt lat="43.347525" lon="-8.203009">
        <ele>49.747</ele>
        <time>2019-06-20T17:34:21Z</time>
      </trkpt>
      <trkpt lat="43.347325" lon="-8.203113">
        <ele>52.321</ele>
        <time>2019-06-20T17:34:22Z</time>
      </trkpt>
      <trkpt lat="43.347129" lon="-8.203252">
        <ele>54.572</ele>
        <time>2019-06-20T17:34:23Z</time>
      </trkpt>
      <trkpt lat="43.346941" lon="-8.203413">
        <ele>57.138</ele>
        <time>2019-06-20T17:34:24Z</time>
      </trkpt>
      <trkpt lat="43.346751" lon="-8.203588">
        <ele>59.265</ele>
        <time>2019-06-20T17:34:25Z</time>
      </trkpt>
      <trkpt lat="43.346575" lon="-8.203762">
        <ele>59.786</ele>
        <time>2019-06-20T17:34:26Z</time>
      </trkpt>
      <trkpt lat="43.346399" lon="-8.203933">
        <ele>60.468</ele>
        <time>2019-06-20T17:34:27Z</time>
      </trkpt>
      <trkpt lat="43.346230" lon="-8.204096">
        <ele>62.615</ele>
        <time>2019-06-20T17:34:28Z</time>
      </trkpt>
      <trkpt lat="43.346058" lon="-8.204254">
        <ele>63.673</ele>
        <time>2019-06-20T17:34:29Z</time>
      </trkpt>
      <trkpt lat="43.345884" lon="-8.204388">
        <ele>63.885</ele>
        <time>2019-06-20T17:34:30Z</time>
      </trkpt>
      <trkpt lat="43.345700" lon="-8.204502">
        <ele>63.613</ele>
        <time>2019-06-20T17:34:31Z</time>
      </trkpt>
      <trkpt lat="43.345517" lon="-8.204593">
        <ele>64.508</ele>
        <time>2019-06-20T17:34:32Z</time>
      </trkpt>
      <trkpt lat="43.345321" lon="-8.204667">
        <ele>65.870</ele>
        <time>2019-06-20T17:34:33Z</time>
      </trkpt>
      <trkpt lat="43.345126" lon="-8.204722">
        <ele>65.024</ele>
        <time>2019-06-20T17:34:34Z</time>
      </trkpt>
      <trkpt lat="43.344919" lon="-8.204750">
        <ele>64.985</ele>
        <time>2019-06-20T17:34:35Z</time>
      </trkpt>
      <trkpt lat="43.344709" lon="-8.204759">
        <ele>65.831</ele>
        <time>2019-06-20T17:34:36Z</time>
      </trkpt>
      <trkpt lat="43.344500" lon="-8.204728">
        <ele>66.818</ele>
        <time>2019-06-20T17:34:37Z</time>
      </trkpt>
      <trkpt lat="43.344300" lon="-8.204673">
        <ele>68.049</ele>
        <time>2019-06-20T17:34:38Z</time>
      </trkpt>
      <trkpt lat="43.344095" lon="-8.204618">
        <ele>66.291</ele>
        <time>2019-06-20T17:34:39Z</time>
      </trkpt>
      <trkpt lat="43.343900" lon="-8.204542">
        <ele>62.528</ele>
        <time>2019-06-20T17:34:40Z</time>
      </trkpt>
      <trkpt lat="43.343723" lon="-8.204436">
        <ele>62.266</ele>
        <time>2019-06-20T17:34:41Z</time>
      </trkpt>
      <trkpt lat="43.343531" lon="-8.204310">
        <ele>60.629</ele>
        <time>2019-06-20T17:34:42Z</time>
      </trkpt>
      <trkpt lat="43.343366" lon="-8.204203">
        <ele>57.521</ele>
        <time>2019-06-20T17:34:43Z</time>
      </trkpt>
      <trkpt lat="43.343208" lon="-8.204114">
        <ele>55.108</ele>
        <time>2019-06-20T17:34:44Z</time>
      </trkpt>
      <trkpt lat="43.343038" lon="-8.204024">
        <ele>52.779</ele>
        <time>2019-06-20T17:34:45Z</time>
      </trkpt>
      <trkpt lat="43.342861" lon="-8.203934">
        <ele>50.813</ele>
        <time>2019-06-20T17:34:46Z</time>
      </trkpt>
      <trkpt lat="43.342673" lon="-8.203957">
        <ele>47.554</ele>
        <time>2019-06-20T17:34:47Z</time>
      </trkpt>
      <trkpt lat="43.342468" lon="-8.203945">
        <ele>44.840</ele>
        <time>2019-06-20T17:34:48Z</time>
      </trkpt>
      <trkpt lat="43.342276" lon="-8.203934">
        <ele>42.367</ele>
        <time>2019-06-20T17:34:49Z</time>
      </trkpt>
      <trkpt lat="43.342092" lon="-8.203911">
        <ele>40.448</ele>
        <time>2019-06-20T17:34:50Z</time>
      </trkpt>
      <trkpt lat="43.341897" lon="-8.203845">
        <ele>39.560</ele>
        <time>2019-06-20T17:34:51Z</time>
      </trkpt>
      <trkpt lat="43.341727" lon="-8.203730">
        <ele>40.557</ele>
        <time>2019-06-20T17:34:52Z</time>
      </trkpt>
      <trkpt lat="43.341552" lon="-8.203595">
        <ele>39.327</ele>
        <time>2019-06-20T17:34:53Z</time>
      </trkpt>
      <trkpt lat="43.341388" lon="-8.203447">
        <ele>37.368</ele>
        <time>2019-06-20T17:34:54Z</time>
      </trkpt>
      <trkpt lat="43.341238" lon="-8.203291">
        <ele>36.414</ele>
        <time>2019-06-20T17:34:55Z</time>
      </trkpt>
      <trkpt lat="43.341096" lon="-8.203148">
        <ele>36.208</ele>
        <time>2019-06-20T17:34:56Z</time>
      </trkpt>
      <trkpt lat="43.340943" lon="-8.202998">
        <ele>36.585</ele>
        <time>2019-06-20T17:34:57Z</time>
      </trkpt>
      <trkpt lat="43.340796" lon="-8.202857">
        <ele>36.369</ele>
        <time>2019-06-20T17:34:58Z</time>
      </trkpt>
      <trkpt lat="43.340652" lon="-8.202729">
        <ele>35.470</ele>
        <time>2019-06-20T17:34:59Z</time>
      </trkpt>
      <trkpt lat="43.340514" lon="-8.202601">
        <ele>34.236</ele>
        <time>2019-06-20T17:35:00Z</time>
      </trkpt>
      <trkpt lat="43.340378" lon="-8.202475">
        <ele>33.223</ele>
        <time>2019-06-20T17:35:01Z</time>
      </trkpt>
      <trkpt lat="43.340267" lon="-8.202338">
        <ele>33.044</ele>
        <time>2019-06-20T17:35:02Z</time>
      </trkpt>
      <trkpt lat="43.340134" lon="-8.202201">
        <ele>31.236</ele>
        <time>2019-06-20T17:35:03Z</time>
      </trkpt>
      <trkpt lat="43.340006" lon="-8.202052">
        <ele>30.253</ele>
        <time>2019-06-20T17:35:04Z</time>
      </trkpt>
      <trkpt lat="43.339888" lon="-8.201904">
        <ele>30.195</ele>
        <time>2019-06-20T17:35:05Z</time>
      </trkpt>
      <trkpt lat="43.339780" lon="-8.201751">
        <ele>30.849</ele>
        <time>2019-06-20T17:35:06Z</time>
      </trkpt>
      <trkpt lat="43.339679" lon="-8.201590">
        <ele>31.423</ele>
        <time>2019-06-20T17:35:07Z</time>
      </trkpt>
      <trkpt lat="43.339584" lon="-8.201433">
        <ele>31.608</ele>
        <time>2019-06-20T17:35:08Z</time>
      </trkpt>
      <trkpt lat="43.339495" lon="-8.201272">
        <ele>31.182</ele>
        <time>2019-06-20T17:35:09Z</time>
      </trkpt>
      <trkpt lat="43.339395" lon="-8.201118">
        <ele>29.776</ele>
        <time>2019-06-20T17:35:10Z</time>
      </trkpt>
      <trkpt lat="43.339303" lon="-8.200991">
        <ele>28.777</ele>
        <time>2019-06-20T17:35:11Z</time>
      </trkpt>
      <trkpt lat="43.339215" lon="-8.200871">
        <ele>27.253</ele>
        <time>2019-06-20T17:35:12Z</time>
      </trkpt>
      <trkpt lat="43.339112" lon="-8.200737">
        <ele>26.870</ele>
        <time>2019-06-20T17:35:13Z</time>
      </trkpt>
      <trkpt lat="43.339003" lon="-8.200593">
        <ele>27.451</ele>
        <time>2019-06-20T17:35:14Z</time>
      </trkpt>
      <trkpt lat="43.338891" lon="-8.200489">
        <ele>27.783</ele>
        <time>2019-06-20T17:35:15Z</time>
      </trkpt>
      <trkpt lat="43.338778" lon="-8.200380">
        <ele>30.240</ele>
        <time>2019-06-20T17:35:16Z</time>
      </trkpt>
      <trkpt lat="43.338655" lon="-8.200302">
        <ele>31.664</ele>
        <time>2019-06-20T17:35:17Z</time>
      </trkpt>
      <trkpt lat="43.338528" lon="-8.200225">
        <ele>32.306</ele>
        <time>2019-06-20T17:35:18Z</time>
      </trkpt>
      <trkpt lat="43.338381" lon="-8.200141">
        <ele>32.216</ele>
        <time>2019-06-20T17:35:19Z</time>
      </trkpt>
      <trkpt lat="43.338233" lon="-8.200095">
        <ele>31.608</ele>
        <time>2019-06-20T17:35:20Z</time>
      </trkpt>
      <trkpt lat="43.338082" lon="-8.200082">
        <ele>31.259</ele>
        <time>2019-06-20T17:35:21Z</time>
      </trkpt>
      <trkpt lat="43.337917" lon="-8.200062">
        <ele>30.843</ele>
        <time>2019-06-20T17:35:22Z</time>
      </trkpt>
      <trkpt lat="43.337758" lon="-8.200050">
        <ele>30.614</ele>
        <time>2019-06-20T17:35:23Z</time>
      </trkpt>
      <trkpt lat="43.337601" lon="-8.200118">
        <ele>30.550</ele>
        <time>2019-06-20T17:35:24Z</time>
      </trkpt>
      <trkpt lat="43.337445" lon="-8.200138">
        <ele>30.587</ele>
        <time>2019-06-20T17:35:25Z</time>
      </trkpt>
      <trkpt lat="43.337313" lon="-8.200172">
        <ele>30.118</ele>
        <time>2019-06-20T17:35:26Z</time>
      </trkpt>
      <trkpt lat="43.337160" lon="-8.200196">
        <ele>29.220</ele>
        <time>2019-06-20T17:35:27Z</time>
      </trkpt>
      <trkpt lat="43.337011" lon="-8.200218">
        <ele>27.497</ele>
        <time>2019-06-20T17:35:28Z</time>
      </trkpt>
      <trkpt lat="43.336862" lon="-8.200258">
        <ele>24.738</ele>
        <time>2019-06-20T17:35:29Z</time>
      </trkpt>
      <trkpt lat="43.336702" lon="-8.200286">
        <ele>21.570</ele>
        <time>2019-06-20T17:35:30Z</time>
      </trkpt>
      <trkpt lat="43.336553" lon="-8.200323">
        <ele>19.217</ele>
        <time>2019-06-20T17:35:31Z</time>
      </trkpt>
      <trkpt lat="43.336399" lon="-8.200352">
        <ele>17.308</ele>
        <time>2019-06-20T17:35:32Z</time>
      </trkpt>
      <trkpt lat="43.336248" lon="-8.200388">
        <ele>15.636</ele>
        <time>2019-06-20T17:35:33Z</time>
      </trkpt>
      <trkpt lat="43.336099" lon="-8.200465">
        <ele>13.250</ele>
        <time>2019-06-20T17:35:34Z</time>
      </trkpt>
      <trkpt lat="43.335954" lon="-8.200556">
        <ele>11.411</ele>
        <time>2019-06-20T17:35:35Z</time>
      </trkpt>
      <trkpt lat="43.335811" lon="-8.200672">
        <ele>9.937</ele>
        <time>2019-06-20T17:35:36Z</time>
      </trkpt>
      <trkpt lat="43.335674" lon="-8.200794">
        <ele>7.554</ele>
        <time>2019-06-20T17:35:37Z</time>
      </trkpt>
      <trkpt lat="43.335558" lon="-8.200937">
        <ele>5.325</ele>
        <time>2019-06-20T17:35:38Z</time>
      </trkpt>
      <trkpt lat="43.335446" lon="-8.201103">
        <ele>3.247</ele>
        <time>2019-06-20T17:35:39Z</time>
      </trkpt>
      <trkpt lat="43.335346" lon="-8.201275">
        <ele>2.934</ele>
        <time>2019-06-20T17:35:40Z</time>
      </trkpt>
      <trkpt lat="43.335274" lon="-8.201479">
        <ele>4.396</ele>
        <time>2019-06-20T17:35:41Z</time>
      </trkpt>
      <trkpt lat="43.335213" lon="-8.201685">
        <ele>7.531</ele>
        <time>2019-06-20T17:35:42Z</time>
      </trkpt>
      <trkpt lat="43.335168" lon="-8.201906">
        <ele>11.224</ele>
        <time>2019-06-20T17:35:43Z</time>
      </trkpt>
      <trkpt lat="43.335143" lon="-8.202130">
        <ele>15.308</ele>
        <time>2019-06-20T17:35:44Z</time>
      </trkpt>
      <trkpt lat="43.335132" lon="-8.202359">
        <ele>19.172</ele>
        <time>2019-06-20T17:35:45Z</time>
      </trkpt>
      <trkpt lat="43.335141" lon="-8.202597">
        <ele>22.746</ele>
        <time>2019-06-20T17:35:46Z</time>
      </trkpt>
      <trkpt lat="43.335163" lon="-8.202828">
        <ele>26.437</ele>
        <time>2019-06-20T17:35:47Z</time>
      </trkpt>
      <trkpt lat="43.335227" lon="-8.203083">
        <ele>30.213</ele>
        <time>2019-06-20T17:35:48Z</time>
      </trkpt>
      <trkpt lat="43.335287" lon="-8.203328">
        <ele>34.550</ele>
        <time>2019-06-20T17:35:49Z</time>
      </trkpt>
      <trkpt lat="43.335364" lon="-8.203574">
        <ele>36.341</ele>
        <time>2019-06-20T17:35:50Z</time>
      </trkpt>
      <trkpt lat="43.335441" lon="-8.203831">
        <ele>35.723</ele>
        <time>2019-06-20T17:35:51Z</time>
      </trkpt>
      <trkpt lat="43.335527" lon="-8.204090">
        <ele>33.880</ele>
        <time>2019-06-20T17:35:52Z</time>
      </trkpt>
      <trkpt lat="43.335605" lon="-8.204349">
        <ele>34.425</ele>
        <time>2019-06-20T17:35:53Z</time>
      </trkpt>
      <trkpt lat="43.335692" lon="-8.204607">
        <ele>36.226</ele>
        <time>2019-06-20T17:35:54Z</time>
      </trkpt>
      <trkpt lat="43.335786" lon="-8.204873">
        <ele>38.608</ele>
        <time>2019-06-20T17:35:55Z</time>
      </trkpt>
      <trkpt lat="43.335914" lon="-8.205130">
        <ele>38.708</ele>
        <time>2019-06-20T17:35:56Z</time>
      </trkpt>
      <trkpt lat="43.336032" lon="-8.205378">
        <ele>37.465</ele>
        <time>2019-06-20T17:35:57Z</time>
      </trkpt>
      <trkpt lat="43.336145" lon="-8.205606">
        <ele>36.839</ele>
        <time>2019-06-20T17:35:58Z</time>
      </trkpt>
      <trkpt lat="43.336274" lon="-8.205821">
        <ele>37.770</ele>
        <time>2019-06-20T17:35:59Z</time>
      </trkpt>
      <trkpt lat="43.336378" lon="-8.206022">
        <ele>39.196</ele>
        <time>2019-06-20T17:36:00Z</time>
      </trkpt>
      <trkpt lat="43.336454" lon="-8.206225">
        <ele>39.283</ele>
        <time>2019-06-20T17:36:01Z</time>
      </trkpt>
      <trkpt lat="43.336516" lon="-8.206440">
        <ele>39.234</ele>
        <time>2019-06-20T17:36:02Z</time>
      </trkpt>
      <trkpt lat="43.336574" lon="-8.206675">
        <ele>38.646</ele>
        <time>2019-06-20T17:36:03Z</time>
      </trkpt>
      <trkpt lat="43.336615" lon="-8.206911">
        <ele>36.993</ele>
        <time>2019-06-20T17:36:04Z</time>
      </trkpt>
      <trkpt lat="43.336641" lon="-8.207162">
        <ele>35.536</ele>
        <time>2019-06-20T17:36:05Z</time>
      </trkpt>
      <trkpt lat="43.336623" lon="-8.207411">
        <ele>35.417</ele>
        <time>2019-06-20T17:36:06Z</time>
      </trkpt>
      <trkpt lat="43.336576" lon="-8.207639">
        <ele>35.518</ele>
        <time>2019-06-20T17:36:07Z</time>
      </trkpt>
      <trkpt lat="43.336525" lon="-8.207875">
        <ele>35.908</ele>
        <time>2019-06-20T17:36:08Z</time>
      </trkpt>
      <trkpt lat="43.336443" lon="-8.208080">
        <ele>36.376</ele>
        <time>2019-06-20T17:36:09Z</time>
      </trkpt>
      <trkpt lat="43.336274" lon="-8.208231">
        <ele>38.290</ele>
        <time>2019-06-20T17:36:10Z</time>
      </trkpt>
      <trkpt lat="43.336095" lon="-8.208349">
        <ele>40.261</ele>
        <time>2019-06-20T17:36:11Z</time>
      </trkpt>
      <trkpt lat="43.335949" lon="-8.208452">
        <ele>41.787</ele>
        <time>2019-06-20T17:36:12Z</time>
      </trkpt>
      <trkpt lat="43.335783" lon="-8.208509">
        <ele>43.184</ele>
        <time>2019-06-20T17:36:13Z</time>
      </trkpt>
      <trkpt lat="43.335606" lon="-8.208530">
        <ele>44.255</ele>
        <time>2019-06-20T17:36:14Z</time>
      </trkpt>
      <trkpt lat="43.335431" lon="-8.208513">
        <ele>44.457</ele>
        <time>2019-06-20T17:36:15Z</time>
      </trkpt>
      <trkpt lat="43.335267" lon="-8.208463">
        <ele>44.524</ele>
        <time>2019-06-20T17:36:16Z</time>
      </trkpt>
      <trkpt lat="43.335093" lon="-8.208380">
        <ele>44.392</ele>
        <time>2019-06-20T17:36:17Z</time>
      </trkpt>
      <trkpt lat="43.334919" lon="-8.208282">
        <ele>43.773</ele>
        <time>2019-06-20T17:36:18Z</time>
      </trkpt>
      <trkpt lat="43.334746" lon="-8.208187">
        <ele>42.820</ele>
        <time>2019-06-20T17:36:19Z</time>
      </trkpt>
      <trkpt lat="43.334584" lon="-8.208089">
        <ele>43.108</ele>
        <time>2019-06-20T17:36:20Z</time>
      </trkpt>
      <trkpt lat="43.334419" lon="-8.207977">
        <ele>43.642</ele>
        <time>2019-06-20T17:36:21Z</time>
      </trkpt>
      <trkpt lat="43.334265" lon="-8.207881">
        <ele>43.826</ele>
        <time>2019-06-20T17:36:22Z</time>
      </trkpt>
      <trkpt lat="43.334107" lon="-8.207786">
        <ele>44.267</ele>
        <time>2019-06-20T17:36:23Z</time>
      </trkpt>
      <trkpt lat="43.333954" lon="-8.207704">
        <ele>43.633</ele>
        <time>2019-06-20T17:36:24Z</time>
      </trkpt>
      <trkpt lat="43.333815" lon="-8.207620">
        <ele>43.990</ele>
        <time>2019-06-20T17:36:25Z</time>
      </trkpt>
      <trkpt lat="43.333662" lon="-8.207545">
        <ele>45.041</ele>
        <time>2019-06-20T17:36:26Z</time>
      </trkpt>
      <trkpt lat="43.333513" lon="-8.207480">
        <ele>44.613</ele>
        <time>2019-06-20T17:36:27Z</time>
      </trkpt>
      <trkpt lat="43.333364" lon="-8.207434">
        <ele>42.930</ele>
        <time>2019-06-20T17:36:28Z</time>
      </trkpt>
      <trkpt lat="43.333221" lon="-8.207375">
        <ele>42.192</ele>
        <time>2019-06-20T17:36:29Z</time>
      </trkpt>
      <trkpt lat="43.333078" lon="-8.207301">
        <ele>41.673</ele>
        <time>2019-06-20T17:36:30Z</time>
      </trkpt>
      <trkpt lat="43.332940" lon="-8.207211">
        <ele>41.620</ele>
        <time>2019-06-20T17:36:31Z</time>
      </trkpt>
      <trkpt lat="43.332811" lon="-8.207113">
        <ele>42.108</ele>
        <time>2019-06-20T17:36:32Z</time>
      </trkpt>
      <trkpt lat="43.332692" lon="-8.206985">
        <ele>42.362</ele>
        <time>2019-06-20T17:36:33Z</time>
      </trkpt>
      <trkpt lat="43.332579" lon="-8.206846">
        <ele>41.586</ele>
        <time>2019-06-20T17:36:34Z</time>
      </trkpt>
      <trkpt lat="43.332467" lon="-8.206713">
        <ele>41.337</ele>
        <time>2019-06-20T17:36:35Z</time>
      </trkpt>
      <trkpt lat="43.332365" lon="-8.206581">
        <ele>41.963</ele>
        <time>2019-06-20T17:36:36Z</time>
      </trkpt>
      <trkpt lat="43.332267" lon="-8.206455">
        <ele>43.170</ele>
        <time>2019-06-20T17:36:37Z</time>
      </trkpt>
      <trkpt lat="43.332179" lon="-8.206345">
        <ele>44.421</ele>
        <time>2019-06-20T17:36:38Z</time>
      </trkpt>
      <trkpt lat="43.332096" lon="-8.206247">
        <ele>45.253</ele>
        <time>2019-06-20T17:36:39Z</time>
      </trkpt>
      <trkpt lat="43.332016" lon="-8.206160">
        <ele>45.590</ele>
        <time>2019-06-20T17:36:40Z</time>
      </trkpt>
      <trkpt lat="43.331936" lon="-8.206081">
        <ele>45.365</ele>
        <time>2019-06-20T17:36:41Z</time>
      </trkpt>
      <trkpt lat="43.331857" lon="-8.205994">
        <ele>45.168</ele>
        <time>2019-06-20T17:36:42Z</time>
      </trkpt>
      <trkpt lat="43.331783" lon="-8.205920">
        <ele>44.814</ele>
        <time>2019-06-20T17:36:43Z</time>
      </trkpt>
      <trkpt lat="43.331703" lon="-8.205856">
        <ele>44.308</ele>
        <time>2019-06-20T17:36:44Z</time>
      </trkpt>
      <trkpt lat="43.331616" lon="-8.205799">
        <ele>43.819</ele>
        <time>2019-06-20T17:36:45Z</time>
      </trkpt>
      <trkpt lat="43.331527" lon="-8.205772">
        <ele>42.973</ele>
        <time>2019-06-20T17:36:46Z</time>
      </trkpt>
      <trkpt lat="43.331428" lon="-8.205771">
        <ele>41.594</ele>
        <time>2019-06-20T17:36:47Z</time>
      </trkpt>
      <trkpt lat="43.331322" lon="-8.205795">
        <ele>40.110</ele>
        <time>2019-06-20T17:36:48Z</time>
      </trkpt>
      <trkpt lat="43.331221" lon="-8.205856">
        <ele>38.437</ele>
        <time>2019-06-20T17:36:49Z</time>
      </trkpt>
      <trkpt lat="43.331123" lon="-8.205945">
        <ele>36.168</ele>
        <time>2019-06-20T17:36:50Z</time>
      </trkpt>
      <trkpt lat="43.331027" lon="-8.206054">
        <ele>34.940</ele>
        <time>2019-06-20T17:36:51Z</time>
      </trkpt>
      <trkpt lat="43.330927" lon="-8.206172">
        <ele>33.937</ele>
        <time>2019-06-20T17:36:52Z</time>
      </trkpt>
      <trkpt lat="43.330834" lon="-8.206282">
        <ele>32.984</ele>
        <time>2019-06-20T17:36:53Z</time>
      </trkpt>
      <trkpt lat="43.330740" lon="-8.206389">
        <ele>32.707</ele>
        <time>2019-06-20T17:36:54Z</time>
      </trkpt>
      <trkpt lat="43.330651" lon="-8.206499">
        <ele>32.617</ele>
        <time>2019-06-20T17:36:55Z</time>
      </trkpt>
      <trkpt lat="43.330562" lon="-8.206606">
        <ele>32.008</ele>
        <time>2019-06-20T17:36:56Z</time>
      </trkpt>
      <trkpt lat="43.330453" lon="-8.206706">
        <ele>31.381</ele>
        <time>2019-06-20T17:36:57Z</time>
      </trkpt>
      <trkpt lat="43.330336" lon="-8.206801">
        <ele>30.645</ele>
        <time>2019-06-20T17:36:58Z</time>
      </trkpt>
      <trkpt lat="43.330203" lon="-8.206886">
        <ele>29.386</ele>
        <time>2019-06-20T17:36:59Z</time>
      </trkpt>
      <trkpt lat="43.330073" lon="-8.206962">
        <ele>27.612</ele>
        <time>2019-06-20T17:37:00Z</time>
      </trkpt>
      <trkpt lat="43.329912" lon="-8.207001">
        <ele>26.889</ele>
        <time>2019-06-20T17:37:01Z</time>
      </trkpt>
      <trkpt lat="43.329761" lon="-8.207036">
        <ele>26.350</ele>
        <time>2019-06-20T17:37:02Z</time>
      </trkpt>
      <trkpt lat="43.329606" lon="-8.207065">
        <ele>25.852</ele>
        <time>2019-06-20T17:37:03Z</time>
      </trkpt>
      <trkpt lat="43.329443" lon="-8.207091">
        <ele>25.429</ele>
        <time>2019-06-20T17:37:04Z</time>
      </trkpt>
      <trkpt lat="43.329287" lon="-8.207120">
        <ele>25.826</ele>
        <time>2019-06-20T17:37:05Z</time>
      </trkpt>
      <trkpt lat="43.329150" lon="-8.207142">
        <ele>26.247</ele>
        <time>2019-06-20T17:37:06Z</time>
      </trkpt>
      <trkpt lat="43.329007" lon="-8.207172">
        <ele>26.411</ele>
        <time>2019-06-20T17:37:07Z</time>
      </trkpt>
      <trkpt lat="43.328879" lon="-8.207219">
        <ele>26.008</ele>
        <time>2019-06-20T17:37:08Z</time>
      </trkpt>
      <trkpt lat="43.328759" lon="-8.207288">
        <ele>24.385</ele>
        <time>2019-06-20T17:37:09Z</time>
      </trkpt>
      <trkpt lat="43.328661" lon="-8.207384">
        <ele>23.029</ele>
        <time>2019-06-20T17:37:10Z</time>
      </trkpt>
      <trkpt lat="43.328555" lon="-8.207505">
        <ele>21.810</ele>
        <time>2019-06-20T17:37:11Z</time>
      </trkpt>
      <trkpt lat="43.328473" lon="-8.207647">
        <ele>20.226</ele>
        <time>2019-06-20T17:37:12Z</time>
      </trkpt>
      <trkpt lat="43.328398" lon="-8.207813">
        <ele>18.053</ele>
        <time>2019-06-20T17:37:13Z</time>
      </trkpt>
      <trkpt lat="43.328335" lon="-8.207982">
        <ele>15.864</ele>
        <time>2019-06-20T17:37:14Z</time>
      </trkpt>
      <trkpt lat="43.328278" lon="-8.208138">
        <ele>13.536</ele>
        <time>2019-06-20T17:37:15Z</time>
      </trkpt>
      <trkpt lat="43.328234" lon="-8.208308">
        <ele>11.393</ele>
        <time>2019-06-20T17:37:16Z</time>
      </trkpt>
      <trkpt lat="43.328192" lon="-8.208468">
        <ele>7.376</ele>
        <time>2019-06-20T17:37:17Z</time>
      </trkpt>
      <trkpt lat="43.328150" lon="-8.208623">
        <ele>2.390</ele>
        <time>2019-06-20T17:37:18Z</time>
      </trkpt>
      <trkpt lat="43.328100" lon="-8.208774">
        <ele>0.519</ele>
        <time>2019-06-20T17:37:19Z</time>
      </trkpt>
      <trkpt lat="43.328052" lon="-8.208919">
        <ele>0.008</ele>
        <time>2019-06-20T17:37:20Z</time>
      </trkpt>
      <trkpt lat="43.328000" lon="-8.209069">
        <ele>0.070</ele>
        <time>2019-06-20T17:37:21Z</time>
      </trkpt>
      <trkpt lat="43.327952" lon="-8.209239">
        <ele>0.024</ele>
        <time>2019-06-20T17:37:22Z</time>
      </trkpt>
      <trkpt lat="43.327905" lon="-8.209407">
        <ele>0.015</ele>
        <time>2019-06-20T17:37:23Z</time>
      </trkpt>
      <trkpt lat="43.327851" lon="-8.209570">
        <ele>0.061</ele>
        <time>2019-06-20T17:37:24Z</time>
      </trkpt>
      <trkpt lat="43.327798" lon="-8.209729">
        <ele>0.088</ele>
        <time>2019-06-20T17:37:25Z</time>
      </trkpt>
      <trkpt lat="43.327751" lon="-8.209881">
        <ele>0.019</ele>
        <time>2019-06-20T17:37:26Z</time>
      </trkpt>
      <trkpt lat="43.327704" lon="-8.210036">
        <ele>0.021</ele>
        <time>2019-06-20T17:37:27Z</time>
      </trkpt>
      <trkpt lat="43.327651" lon="-8.210186">
        <ele>0.078</ele>
        <time>2019-06-20T17:37:28Z</time>
      </trkpt>
      <trkpt lat="43.327593" lon="-8.210362">
        <ele>0.075</ele>
        <time>2019-06-20T17:37:29Z</time>
      </trkpt>
      <trkpt lat="43.327549" lon="-8.210516">
        <ele>0.028</ele>
        <time>2019-06-20T17:37:30Z</time>
      </trkpt>
      <trkpt lat="43.327492" lon="-8.210682">
        <ele>0.020</ele>
        <time>2019-06-20T17:37:31Z</time>
      </trkpt>
      <trkpt lat="43.327439" lon="-8.210827">
        <ele>0.008</ele>
        <time>2019-06-20T17:37:32Z</time>
      </trkpt>
      <trkpt lat="43.327395" lon="-8.210976">
        <ele>0.860</ele>
        <time>2019-06-20T17:37:33Z</time>
      </trkpt>
      <trkpt lat="43.327349" lon="-8.211118">
        <ele>2.234</ele>
        <time>2019-06-20T17:37:34Z</time>
      </trkpt>
      <trkpt lat="43.327310" lon="-8.211250">
        <ele>3.245</ele>
        <time>2019-06-20T17:37:35Z</time>
      </trkpt>
      <trkpt lat="43.327265" lon="-8.211392">
        <ele>3.831</ele>
        <time>2019-06-20T17:37:36Z</time>
      </trkpt>
      <trkpt lat="43.327223" lon="-8.211535">
        <ele>4.088</ele>
        <time>2019-06-20T17:37:37Z</time>
      </trkpt>
      <trkpt lat="43.327174" lon="-8.211677">
        <ele>4.079</ele>
        <time>2019-06-20T17:37:38Z</time>
      </trkpt>
      <trkpt lat="43.327127" lon="-8.211822">
        <ele>4.211</ele>
        <time>2019-06-20T17:37:39Z</time>
      </trkpt>
      <trkpt lat="43.327084" lon="-8.211968">
        <ele>4.518</ele>
        <time>2019-06-20T17:37:40Z</time>
      </trkpt>
      <trkpt lat="43.327037" lon="-8.212116">
        <ele>4.976</ele>
        <time>2019-06-20T17:37:41Z</time>
      </trkpt>
      <trkpt lat="43.326993" lon="-8.212265">
        <ele>5.090</ele>
        <time>2019-06-20T17:37:42Z</time>
      </trkpt>
      <trkpt lat="43.326949" lon="-8.212424">
        <ele>5.019</ele>
        <time>2019-06-20T17:37:43Z</time>
      </trkpt>
      <trkpt lat="43.326900" lon="-8.212579">
        <ele>4.808</ele>
        <time>2019-06-20T17:37:44Z</time>
      </trkpt>
      <trkpt lat="43.326853" lon="-8.212725">
        <ele>4.520</ele>
        <time>2019-06-20T17:37:45Z</time>
      </trkpt>
      <trkpt lat="43.326806" lon="-8.212876">
        <ele>4.364</ele>
        <time>2019-06-20T17:37:46Z</time>
      </trkpt>
      <trkpt lat="43.326772" lon="-8.213037">
        <ele>4.055</ele>
        <time>2019-06-20T17:37:47Z</time>
      </trkpt>
      <trkpt lat="43.326712" lon="-8.213214">
        <ele>5.321</ele>
        <time>2019-06-20T17:37:48Z</time>
      </trkpt>
      <trkpt lat="43.326655" lon="-8.213401">
        <ele>7.828</ele>
        <time>2019-06-20T17:37:49Z</time>
      </trkpt>
      <trkpt lat="43.326600" lon="-8.213586">
        <ele>13.169</ele>
        <time>2019-06-20T17:37:50Z</time>
      </trkpt>
      <trkpt lat="43.326546" lon="-8.213774">
        <ele>19.591</ele>
        <time>2019-06-20T17:37:51Z</time>
      </trkpt>
      <trkpt lat="43.326488" lon="-8.213968">
        <ele>26.158</ele>
        <time>2019-06-20T17:37:52Z</time>
      </trkpt>
      <trkpt lat="43.326429" lon="-8.214158">
        <ele>31.933</ele>
        <time>2019-06-20T17:37:53Z</time>
      </trkpt>
      <trkpt lat="43.326383" lon="-8.214338">
        <ele>35.623</ele>
        <time>2019-06-20T17:37:54Z</time>
      </trkpt>
      <trkpt lat="43.326337" lon="-8.214509">
        <ele>38.615</ele>
        <time>2019-06-20T17:37:55Z</time>
      </trkpt>
      <trkpt lat="43.326320" lon="-8.214667">
        <ele>40.108</ele>
        <time>2019-06-20T17:37:56Z</time>
      </trkpt>
      <trkpt lat="43.326334" lon="-8.214806">
        <ele>41.426</ele>
        <time>2019-06-20T17:37:57Z</time>
      </trkpt>
      <trkpt lat="43.326379" lon="-8.214927">
        <ele>42.890</ele>
        <time>2019-06-20T17:37:58Z</time>
      </trkpt>
      <trkpt lat="43.326441" lon="-8.215035">
        <ele>43.671</ele>
        <time>2019-06-20T17:37:59Z</time>
      </trkpt>
      <trkpt lat="43.326530" lon="-8.215100">
        <ele>43.497</ele>
        <time>2019-06-20T17:38:00Z</time>
      </trkpt>
      <trkpt lat="43.326628" lon="-8.215129">
        <ele>43.164</ele>
        <time>2019-06-20T17:38:01Z</time>
      </trkpt>
      <trkpt lat="43.326744" lon="-8.215137">
        <ele>42.795</ele>
        <time>2019-06-20T17:38:02Z</time>
      </trkpt>
      <trkpt lat="43.326837" lon="-8.215132">
        <ele>42.257</ele>
        <time>2019-06-20T17:38:03Z</time>
      </trkpt>
      <trkpt lat="43.326922" lon="-8.215118">
        <ele>41.684</ele>
        <time>2019-06-20T17:38:04Z</time>
      </trkpt>
      <trkpt lat="43.327005" lon="-8.215068">
        <ele>40.984</ele>
        <time>2019-06-20T17:38:05Z</time>
      </trkpt>
      <trkpt lat="43.327081" lon="-8.214881">
        <ele>37.407</ele>
        <time>2019-06-20T17:38:06Z</time>
      </trkpt>
      <trkpt lat="43.327169" lon="-8.214657">
        <ele>34.617</ele>
        <time>2019-06-20T17:38:07Z</time>
      </trkpt>
      <trkpt lat="43.327264" lon="-8.214501">
        <ele>34.208</ele>
        <time>2019-06-20T17:38:08Z</time>
      </trkpt>
      <trkpt lat="43.327387" lon="-8.214397">
        <ele>34.791</ele>
        <time>2019-06-20T17:38:09Z</time>
      </trkpt>
      <trkpt lat="43.327507" lon="-8.214315">
        <ele>34.825</ele>
        <time>2019-06-20T17:38:10Z</time>
      </trkpt>
      <trkpt lat="43.327646" lon="-8.214255">
        <ele>35.356</ele>
        <time>2019-06-20T17:38:11Z</time>
      </trkpt>
      <trkpt lat="43.327780" lon="-8.214218">
        <ele>36.142</ele>
        <time>2019-06-20T17:38:12Z</time>
      </trkpt>
      <trkpt lat="43.327938" lon="-8.214195">
        <ele>36.849</ele>
        <time>2019-06-20T17:38:13Z</time>
      </trkpt>
      <trkpt lat="43.328165" lon="-8.214191">
        <ele>39.670</ele>
        <time>2019-06-20T17:38:14Z</time>
      </trkpt>
      <trkpt lat="43.328361" lon="-8.214182">
        <ele>42.852</ele>
        <time>2019-06-20T17:38:15Z</time>
      </trkpt>
      <trkpt lat="43.328538" lon="-8.214195">
        <ele>45.769</ele>
        <time>2019-06-20T17:38:16Z</time>
      </trkpt>
      <trkpt lat="43.328717" lon="-8.214221">
        <ele>47.158</ele>
        <time>2019-06-20T17:38:17Z</time>
      </trkpt>
      <trkpt lat="43.328923" lon="-8.214276">
        <ele>47.952</ele>
        <time>2019-06-20T17:38:18Z</time>
      </trkpt>
      <trkpt lat="43.329112" lon="-8.214338">
        <ele>48.117</ele>
        <time>2019-06-20T17:38:19Z</time>
      </trkpt>
      <trkpt lat="43.329296" lon="-8.214418">
        <ele>49.908</ele>
        <time>2019-06-20T17:38:20Z</time>
      </trkpt>
      <trkpt lat="43.329460" lon="-8.214524">
        <ele>51.648</ele>
        <time>2019-06-20T17:38:21Z</time>
      </trkpt>
      <trkpt lat="43.329632" lon="-8.214620">
        <ele>49.872</ele>
        <time>2019-06-20T17:38:22Z</time>
      </trkpt>
      <trkpt lat="43.329735" lon="-8.214700">
        <ele>48.333</ele>
        <time>2019-06-20T17:38:23Z</time>
      </trkpt>
      <trkpt lat="43.329849" lon="-8.214769">
        <ele>44.339</ele>
        <time>2019-06-20T17:38:24Z</time>
      </trkpt>
      <trkpt lat="43.329930" lon="-8.214867">
        <ele>42.526</ele>
        <time>2019-06-20T17:38:25Z</time>
      </trkpt>
      <trkpt lat="43.329913" lon="-8.215029">
        <ele>45.627</ele>
        <time>2019-06-20T17:38:26Z</time>
      </trkpt>
      <trkpt lat="43.329924" lon="-8.215165">
        <ele>46.059</ele>
        <time>2019-06-20T17:38:27Z</time>
      </trkpt>
      <trkpt lat="43.329891" lon="-8.215314">
        <ele>47.426</ele>
        <time>2019-06-20T17:38:28Z</time>
      </trkpt>
      <trkpt lat="43.329841" lon="-8.215461">
        <ele>46.693</ele>
        <time>2019-06-20T17:38:29Z</time>
      </trkpt>
      <trkpt lat="43.329752" lon="-8.215579">
        <ele>46.865</ele>
        <time>2019-06-20T17:38:30Z</time>
      </trkpt>
      <trkpt lat="43.329671" lon="-8.215696">
        <ele>46.121</ele>
        <time>2019-06-20T17:38:31Z</time>
      </trkpt>
      <trkpt lat="43.329511" lon="-8.215739">
        <ele>48.408</ele>
        <time>2019-06-20T17:38:32Z</time>
      </trkpt>
      <trkpt lat="43.329368" lon="-8.215806">
        <ele>48.622</ele>
        <time>2019-06-20T17:38:33Z</time>
      </trkpt>
      <trkpt lat="43.329216" lon="-8.215877">
        <ele>48.516</ele>
        <time>2019-06-20T17:38:34Z</time>
      </trkpt>
      <trkpt lat="43.329064" lon="-8.215953">
        <ele>48.297</ele>
        <time>2019-06-20T17:38:35Z</time>
      </trkpt>
      <trkpt lat="43.328920" lon="-8.216020">
        <ele>47.753</ele>
        <time>2019-06-20T17:38:36Z</time>
      </trkpt>
      <trkpt lat="43.328778" lon="-8.216089">
        <ele>47.310</ele>
        <time>2019-06-20T17:38:37Z</time>
      </trkpt>
      <trkpt lat="43.328633" lon="-8.216155">
        <ele>47.131</ele>
        <time>2019-06-20T17:38:38Z</time>
      </trkpt>
      <trkpt lat="43.328470" lon="-8.216219">
        <ele>46.523</ele>
        <time>2019-06-20T17:38:39Z</time>
      </trkpt>
      <trkpt lat="43.328310" lon="-8.216280">
        <ele>46.330</ele>
        <time>2019-06-20T17:38:40Z</time>
      </trkpt>
      <trkpt lat="43.328153" lon="-8.216355">
        <ele>46.625</ele>
        <time>2019-06-20T17:38:41Z</time>
      </trkpt>
      <trkpt lat="43.328003" lon="-8.216437">
        <ele>47.226</ele>
        <time>2019-06-20T17:38:42Z</time>
      </trkpt>
      <trkpt lat="43.327870" lon="-8.216521">
        <ele>47.908</ele>
        <time>2019-06-20T17:38:43Z</time>
      </trkpt>
      <trkpt lat="43.327748" lon="-8.216634">
        <ele>48.308</ele>
        <time>2019-06-20T17:38:44Z</time>
      </trkpt>
      <trkpt lat="43.327634" lon="-8.216772">
        <ele>48.975</ele>
        <time>2019-06-20T17:38:45Z</time>
      </trkpt>
      <trkpt lat="43.327542" lon="-8.216936">
        <ele>49.689</ele>
        <time>2019-06-20T17:38:46Z</time>
      </trkpt>
      <trkpt lat="43.327469" lon="-8.217122">
        <ele>50.420</ele>
        <time>2019-06-20T17:38:47Z</time>
      </trkpt>
      <trkpt lat="43.327416" lon="-8.217326">
        <ele>51.396</ele>
        <time>2019-06-20T17:38:48Z</time>
      </trkpt>
      <trkpt lat="43.327390" lon="-8.217538">
        <ele>52.123</ele>
        <time>2019-06-20T17:38:49Z</time>
      </trkpt>
      <trkpt lat="43.327369" lon="-8.217762">
        <ele>53.434</ele>
        <time>2019-06-20T17:38:50Z</time>
      </trkpt>
      <trkpt lat="43.327346" lon="-8.217987">
        <ele>54.846</ele>
        <time>2019-06-20T17:38:51Z</time>
      </trkpt>
      <trkpt lat="43.327324" lon="-8.218212">
        <ele>56.233</ele>
        <time>2019-06-20T17:38:52Z</time>
      </trkpt>
      <trkpt lat="43.327305" lon="-8.218433">
        <ele>57.437</ele>
        <time>2019-06-20T17:38:53Z</time>
      </trkpt>
      <trkpt lat="43.327283" lon="-8.218655">
        <ele>58.149</ele>
        <time>2019-06-20T17:38:54Z</time>
      </trkpt>
      <trkpt lat="43.327264" lon="-8.218867">
        <ele>58.413</ele>
        <time>2019-06-20T17:38:55Z</time>
      </trkpt>
      <trkpt lat="43.327246" lon="-8.219068">
        <ele>58.108</ele>
        <time>2019-06-20T17:38:56Z</time>
      </trkpt>
      <trkpt lat="43.327228" lon="-8.219272">
        <ele>57.916</ele>
        <time>2019-06-20T17:38:57Z</time>
      </trkpt>
      <trkpt lat="43.327212" lon="-8.219463">
        <ele>58.360</ele>
        <time>2019-06-20T17:38:58Z</time>
      </trkpt>
      <trkpt lat="43.327198" lon="-8.219651">
        <ele>59.981</ele>
        <time>2019-06-20T17:38:59Z</time>
      </trkpt>
      <trkpt lat="43.327180" lon="-8.219853">
        <ele>61.767</ele>
        <time>2019-06-20T17:39:00Z</time>
      </trkpt>
      <trkpt lat="43.327169" lon="-8.220052">
        <ele>63.384</ele>
        <time>2019-06-20T17:39:01Z</time>
      </trkpt>
      <trkpt lat="43.327154" lon="-8.220239">
        <ele>64.785</ele>
        <time>2019-06-20T17:39:02Z</time>
      </trkpt>
      <trkpt lat="43.327131" lon="-8.220380">
        <ele>65.657</ele>
        <time>2019-06-20T17:39:03Z</time>
      </trkpt>
      <trkpt lat="43.327130" lon="-8.220551">
        <ele>66.044</ele>
        <time>2019-06-20T17:39:04Z</time>
      </trkpt>
      <trkpt lat="43.327111" lon="-8.220724">
        <ele>66.026</ele>
        <time>2019-06-20T17:39:05Z</time>
      </trkpt>
      <trkpt lat="43.327101" lon="-8.220893">
        <ele>65.747</ele>
        <time>2019-06-20T17:39:06Z</time>
      </trkpt>
      <trkpt lat="43.327087" lon="-8.221055">
        <ele>65.211</ele>
        <time>2019-06-20T17:39:07Z</time>
      </trkpt>
      <trkpt lat="43.327049" lon="-8.221201">
        <ele>65.108</ele>
        <time>2019-06-20T17:39:08Z</time>
      </trkpt>
      <trkpt lat="43.327036" lon="-8.221354">
        <ele>65.195</ele>
        <time>2019-06-20T17:39:09Z</time>
      </trkpt>
      <trkpt lat="43.327006" lon="-8.221510">
        <ele>65.089</ele>
        <time>2019-06-20T17:39:10Z</time>
      </trkpt>
      <trkpt lat="43.326987" lon="-8.221664">
        <ele>64.770</ele>
        <time>2019-06-20T17:39:11Z</time>
      </trkpt>
      <trkpt lat="43.326953" lon="-8.221819">
        <ele>64.946</ele>
        <time>2019-06-20T17:39:12Z</time>
      </trkpt>
      <trkpt lat="43.326924" lon="-8.221975">
        <ele>65.193</ele>
        <time>2019-06-20T17:39:13Z</time>
      </trkpt>
      <trkpt lat="43.326882" lon="-8.222126">
        <ele>64.534</ele>
        <time>2019-06-20T17:39:14Z</time>
      </trkpt>
      <trkpt lat="43.326846" lon="-8.222281">
        <ele>63.876</ele>
        <time>2019-06-20T17:39:15Z</time>
      </trkpt>
      <trkpt lat="43.326799" lon="-8.222405">
        <ele>63.353</ele>
        <time>2019-06-20T17:39:16Z</time>
      </trkpt>
      <trkpt lat="43.326763" lon="-8.222551">
        <ele>62.445</ele>
        <time>2019-06-20T17:39:17Z</time>
      </trkpt>
      <trkpt lat="43.326726" lon="-8.222686">
        <ele>61.947</ele>
        <time>2019-06-20T17:39:18Z</time>
      </trkpt>
      <trkpt lat="43.326682" lon="-8.222826">
        <ele>61.511</ele>
        <time>2019-06-20T17:39:19Z</time>
      </trkpt>
      <trkpt lat="43.326627" lon="-8.222973">
        <ele>62.108</ele>
        <time>2019-06-20T17:39:20Z</time>
      </trkpt>
      <trkpt lat="43.326536" lon="-8.223138">
        <ele>62.237</ele>
        <time>2019-06-20T17:39:21Z</time>
      </trkpt>
      <trkpt lat="43.326444" lon="-8.223277">
        <ele>61.881</ele>
        <time>2019-06-20T17:39:22Z</time>
      </trkpt>
      <trkpt lat="43.326355" lon="-8.223419">
        <ele>61.132</ele>
        <time>2019-06-20T17:39:23Z</time>
      </trkpt>
      <trkpt lat="43.326274" lon="-8.223551">
        <ele>60.168</ele>
        <time>2019-06-20T17:39:24Z</time>
      </trkpt>
      <trkpt lat="43.326181" lon="-8.223677">
        <ele>59.775</ele>
        <time>2019-06-20T17:39:25Z</time>
      </trkpt>
      <trkpt lat="43.326089" lon="-8.223813">
        <ele>59.576</ele>
        <time>2019-06-20T17:39:26Z</time>
      </trkpt>
      <trkpt lat="43.325961" lon="-8.223942">
        <ele>59.878</ele>
        <time>2019-06-20T17:39:27Z</time>
      </trkpt>
      <trkpt lat="43.325829" lon="-8.224051">
        <ele>60.145</ele>
        <time>2019-06-20T17:39:28Z</time>
      </trkpt>
      <trkpt lat="43.325704" lon="-8.224153">
        <ele>60.538</ele>
        <time>2019-06-20T17:39:29Z</time>
      </trkpt>
      <trkpt lat="43.325563" lon="-8.224237">
        <ele>61.670</ele>
        <time>2019-06-20T17:39:30Z</time>
      </trkpt>
      <trkpt lat="43.325443" lon="-8.224329">
        <ele>62.417</ele>
        <time>2019-06-20T17:39:31Z</time>
      </trkpt>
      <trkpt lat="43.325320" lon="-8.224420">
        <ele>64.208</ele>
        <time>2019-06-20T17:39:32Z</time>
      </trkpt>
      <trkpt lat="43.325183" lon="-8.224517">
        <ele>64.916</ele>
        <time>2019-06-20T17:39:33Z</time>
      </trkpt>
      <trkpt lat="43.325054" lon="-8.224610">
        <ele>65.460</ele>
        <time>2019-06-20T17:39:34Z</time>
      </trkpt>
      <trkpt lat="43.324929" lon="-8.224713">
        <ele>66.141</ele>
        <time>2019-06-20T17:39:35Z</time>
      </trkpt>
      <trkpt lat="43.324814" lon="-8.224818">
        <ele>66.557</ele>
        <time>2019-06-20T17:39:36Z</time>
      </trkpt>
      <trkpt lat="43.324702" lon="-8.224927">
        <ele>67.464</ele>
        <time>2019-06-20T17:39:37Z</time>
      </trkpt>
      <trkpt lat="43.324583" lon="-8.225060">
        <ele>69.545</ele>
        <time>2019-06-20T17:39:38Z</time>
      </trkpt>
      <trkpt lat="43.324468" lon="-8.225188">
        <ele>71.327</ele>
        <time>2019-06-20T17:39:39Z</time>
      </trkpt>
      <trkpt lat="43.324349" lon="-8.225320">
        <ele>75.774</ele>
        <time>2019-06-20T17:39:40Z</time>
      </trkpt>
      <trkpt lat="43.324235" lon="-8.225449">
        <ele>78.441</ele>
        <time>2019-06-20T17:39:41Z</time>
      </trkpt>
      <trkpt lat="43.324130" lon="-8.225557">
        <ele>79.781</ele>
        <time>2019-06-20T17:39:42Z</time>
      </trkpt>
      <trkpt lat="43.324020" lon="-8.225673">
        <ele>82.309</ele>
        <time>2019-06-20T17:39:43Z</time>
      </trkpt>
      <trkpt lat="43.323915" lon="-8.225799">
        <ele>83.808</ele>
        <time>2019-06-20T17:39:44Z</time>
      </trkpt>
      <trkpt lat="43.323807" lon="-8.225918">
        <ele>87.077</ele>
        <time>2019-06-20T17:39:45Z</time>
      </trkpt>
      <trkpt lat="43.323699" lon="-8.226032">
        <ele>90.541</ele>
        <time>2019-06-20T17:39:46Z</time>
      </trkpt>
      <trkpt lat="43.323583" lon="-8.226158">
        <ele>92.742</ele>
        <time>2019-06-20T17:39:47Z</time>
      </trkpt>
      <trkpt lat="43.323475" lon="-8.226297">
        <ele>92.118</ele>
        <time>2019-06-20T17:39:48Z</time>
      </trkpt>
      <trkpt lat="43.323354" lon="-8.226428">
        <ele>91.645</ele>
        <time>2019-06-20T17:39:49Z</time>
      </trkpt>
      <trkpt lat="43.323241" lon="-8.226561">
        <ele>88.846</ele>
        <time>2019-06-20T17:39:50Z</time>
      </trkpt>
      <trkpt lat="43.323131" lon="-8.226693">
        <ele>85.648</ele>
        <time>2019-06-20T17:39:51Z</time>
      </trkpt>
      <trkpt lat="43.323024" lon="-8.226813">
        <ele>84.735</ele>
        <time>2019-06-20T17:39:52Z</time>
      </trkpt>
      <trkpt lat="43.322916" lon="-8.226952">
        <ele>84.592</ele>
        <time>2019-06-20T17:39:53Z</time>
      </trkpt>
      <trkpt lat="43.322823" lon="-8.227107">
        <ele>85.373</ele>
        <time>2019-06-20T17:39:54Z</time>
      </trkpt>
      <trkpt lat="43.322723" lon="-8.227271">
        <ele>86.220</ele>
        <time>2019-06-20T17:39:55Z</time>
      </trkpt>
      <trkpt lat="43.322636" lon="-8.227435">
        <ele>86.508</ele>
        <time>2019-06-20T17:39:56Z</time>
      </trkpt>
      <trkpt lat="43.322541" lon="-8.227614">
        <ele>88.122</ele>
        <time>2019-06-20T17:39:57Z</time>
      </trkpt>
      <trkpt lat="43.322448" lon="-8.227788">
        <ele>90.196</ele>
        <time>2019-06-20T17:39:58Z</time>
      </trkpt>
      <trkpt lat="43.322346" lon="-8.227982">
        <ele>91.587</ele>
        <time>2019-06-20T17:39:59Z</time>
      </trkpt>
      <trkpt lat="43.322246" lon="-8.228176">
        <ele>92.053</ele>
        <time>2019-06-20T17:40:00Z</time>
      </trkpt>
      <trkpt lat="43.322120" lon="-8.228422">
        <ele>92.930</ele>
        <time>2019-06-20T17:40:01Z</time>
      </trkpt>
      <trkpt lat="43.322017" lon="-8.228645">
        <ele>92.571</ele>
        <time>2019-06-20T17:40:02Z</time>
      </trkpt>
      <trkpt lat="43.321914" lon="-8.228837">
        <ele>91.733</ele>
        <time>2019-06-20T17:40:03Z</time>
      </trkpt>
      <trkpt lat="43.321822" lon="-8.229044">
        <ele>92.340</ele>
        <time>2019-06-20T17:40:04Z</time>
      </trkpt>
      <trkpt lat="43.321738" lon="-8.229221">
        <ele>93.023</ele>
        <time>2019-06-20T17:40:05Z</time>
      </trkpt>
      <trkpt lat="43.321644" lon="-8.229402">
        <ele>93.483</ele>
        <time>2019-06-20T17:40:06Z</time>
      </trkpt>
      <trkpt lat="43.321565" lon="-8.229561">
        <ele>93.711</ele>
        <time>2019-06-20T17:40:07Z</time>
      </trkpt>
      <trkpt lat="43.321470" lon="-8.229714">
        <ele>94.208</ele>
        <time>2019-06-20T17:40:08Z</time>
      </trkpt>
      <trkpt lat="43.321393" lon="-8.229885">
        <ele>94.425</ele>
        <time>2019-06-20T17:40:09Z</time>
      </trkpt>
      <trkpt lat="43.321315" lon="-8.230047">
        <ele>94.629</ele>
        <time>2019-06-20T17:40:10Z</time>
      </trkpt>
      <trkpt lat="43.321242" lon="-8.230210">
        <ele>94.430</ele>
        <time>2019-06-20T17:40:11Z</time>
      </trkpt>
      <trkpt lat="43.321167" lon="-8.230362">
        <ele>94.316</ele>
        <time>2019-06-20T17:40:12Z</time>
      </trkpt>
      <trkpt lat="43.321099" lon="-8.230510">
        <ele>94.333</ele>
        <time>2019-06-20T17:40:13Z</time>
      </trkpt>
      <trkpt lat="43.321039" lon="-8.230661">
        <ele>93.834</ele>
        <time>2019-06-20T17:40:14Z</time>
      </trkpt>
      <trkpt lat="43.320979" lon="-8.230800">
        <ele>93.216</ele>
        <time>2019-06-20T17:40:15Z</time>
      </trkpt>
      <trkpt lat="43.320917" lon="-8.230930">
        <ele>93.313</ele>
        <time>2019-06-20T17:40:16Z</time>
      </trkpt>
      <trkpt lat="43.320868" lon="-8.231060">
        <ele>93.669</ele>
        <time>2019-06-20T17:40:17Z</time>
      </trkpt>
      <trkpt lat="43.320808" lon="-8.231182">
        <ele>93.904</ele>
        <time>2019-06-20T17:40:18Z</time>
      </trkpt>
      <trkpt lat="43.320765" lon="-8.231298">
        <ele>93.724</ele>
        <time>2019-06-20T17:40:19Z</time>
      </trkpt>
      <trkpt lat="43.320739" lon="-8.231406">
        <ele>93.308</ele>
        <time>2019-06-20T17:40:20Z</time>
      </trkpt>
      <trkpt lat="43.320713" lon="-8.231507">
        <ele>93.459</ele>
        <time>2019-06-20T17:40:21Z</time>
      </trkpt>
      <trkpt lat="43.320690" lon="-8.231586">
        <ele>93.583</ele>
        <time>2019-06-20T17:40:22Z</time>
      </trkpt>
      <trkpt lat="43.320670" lon="-8.231649">
        <ele>93.654</ele>
        <time>2019-06-20T17:40:23Z</time>
      </trkpt>
      <trkpt lat="43.320642" lon="-8.231777">
        <ele>93.680</ele>
        <time>2019-06-20T17:40:25Z</time>
      </trkpt>
      <trkpt lat="43.320632" lon="-8.231851">
        <ele>93.547</ele>
        <time>2019-06-20T17:40:26Z</time>
      </trkpt>
      <trkpt lat="43.320605" lon="-8.231933">
        <ele>93.728</ele>
        <time>2019-06-20T17:40:27Z</time>
      </trkpt>
      <trkpt lat="43.320557" lon="-8.232014">
        <ele>94.040</ele>
        <time>2019-06-20T17:40:28Z</time>
      </trkpt>
      <trkpt lat="43.320495" lon="-8.232103">
        <ele>94.487</ele>
        <time>2019-06-20T17:40:29Z</time>
      </trkpt>
      <trkpt lat="43.320412" lon="-8.232198">
        <ele>95.093</ele>
        <time>2019-06-20T17:40:30Z</time>
      </trkpt>
      <trkpt lat="43.320317" lon="-8.232313">
        <ele>95.865</ele>
        <time>2019-06-20T17:40:31Z</time>
      </trkpt>
      <trkpt lat="43.320219" lon="-8.232449">
        <ele>96.021</ele>
        <time>2019-06-20T17:40:32Z</time>
      </trkpt>
      <trkpt lat="43.320127" lon="-8.232596">
        <ele>95.808</ele>
        <time>2019-06-20T17:40:33Z</time>
      </trkpt>
      <trkpt lat="43.320035" lon="-8.232755">
        <ele>95.992</ele>
        <time>2019-06-20T17:40:34Z</time>
      </trkpt>
      <trkpt lat="43.319940" lon="-8.232924">
        <ele>96.636</ele>
        <time>2019-06-20T17:40:35Z</time>
      </trkpt>
      <trkpt lat="43.319853" lon="-8.233091">
        <ele>97.687</ele>
        <time>2019-06-20T17:40:36Z</time>
      </trkpt>
      <trkpt lat="43.319777" lon="-8.233254">
        <ele>98.543</ele>
        <time>2019-06-20T17:40:37Z</time>
      </trkpt>
      <trkpt lat="43.319705" lon="-8.233404">
        <ele>99.550</ele>
        <time>2019-06-20T17:40:38Z</time>
      </trkpt>
      <trkpt lat="43.319641" lon="-8.233532">
        <ele>100.551</ele>
        <time>2019-06-20T17:40:39Z</time>
      </trkpt>
      <trkpt lat="43.319579" lon="-8.233652">
        <ele>100.953</ele>
        <time>2019-06-20T17:40:40Z</time>
      </trkpt>
      <trkpt lat="43.319517" lon="-8.233778">
        <ele>100.660</ele>
        <time>2019-06-20T17:40:41Z</time>
      </trkpt>
      <trkpt lat="43.319455" lon="-8.233924">
        <ele>100.163</ele>
        <time>2019-06-20T17:40:42Z</time>
      </trkpt>
      <trkpt lat="43.319386" lon="-8.234072">
        <ele>101.044</ele>
        <time>2019-06-20T17:40:43Z</time>
      </trkpt>
      <trkpt lat="43.319322" lon="-8.234244">
        <ele>101.718</ele>
        <time>2019-06-20T17:40:44Z</time>
      </trkpt>
      <trkpt lat="43.319262" lon="-8.234412">
        <ele>102.508</ele>
        <time>2019-06-20T17:40:45Z</time>
      </trkpt>
      <trkpt lat="43.319215" lon="-8.234613">
        <ele>103.649</ele>
        <time>2019-06-20T17:40:46Z</time>
      </trkpt>
      <trkpt lat="43.319173" lon="-8.234821">
        <ele>104.723</ele>
        <time>2019-06-20T17:40:47Z</time>
      </trkpt>
      <trkpt lat="43.319135" lon="-8.235020">
        <ele>106.364</ele>
        <time>2019-06-20T17:40:48Z</time>
      </trkpt>
      <trkpt lat="43.319097" lon="-8.235228">
        <ele>108.740</ele>
        <time>2019-06-20T17:40:49Z</time>
      </trkpt>
      <trkpt lat="43.319067" lon="-8.235442">
        <ele>110.287</ele>
        <time>2019-06-20T17:40:50Z</time>
      </trkpt>
      <trkpt lat="43.319040" lon="-8.235640">
        <ele>110.838</ele>
        <time>2019-06-20T17:40:51Z</time>
      </trkpt>
      <trkpt lat="43.319008" lon="-8.235824">
        <ele>110.680</ele>
        <time>2019-06-20T17:40:52Z</time>
      </trkpt>
      <trkpt lat="43.318982" lon="-8.236012">
        <ele>110.917</ele>
        <time>2019-06-20T17:40:53Z</time>
      </trkpt>
      <trkpt lat="43.318955" lon="-8.236204">
        <ele>111.262</ele>
        <time>2019-06-20T17:40:54Z</time>
      </trkpt>
      <trkpt lat="43.318927" lon="-8.236398">
        <ele>111.383</ele>
        <time>2019-06-20T17:40:55Z</time>
      </trkpt>
      <trkpt lat="43.318896" lon="-8.236578">
        <ele>112.411</ele>
        <time>2019-06-20T17:40:56Z</time>
      </trkpt>
      <trkpt lat="43.318871" lon="-8.236757">
        <ele>113.908</ele>
        <time>2019-06-20T17:40:57Z</time>
      </trkpt>
      <trkpt lat="43.318840" lon="-8.236946">
        <ele>115.749</ele>
        <time>2019-06-20T17:40:58Z</time>
      </trkpt>
      <trkpt lat="43.318811" lon="-8.237151">
        <ele>117.193</ele>
        <time>2019-06-20T17:40:59Z</time>
      </trkpt>
      <trkpt lat="43.318782" lon="-8.237354">
        <ele>117.684</ele>
        <time>2019-06-20T17:41:00Z</time>
      </trkpt>
      <trkpt lat="43.318749" lon="-8.237554">
        <ele>117.450</ele>
        <time>2019-06-20T17:41:01Z</time>
      </trkpt>
      <trkpt lat="43.318717" lon="-8.237757">
        <ele>116.847</ele>
        <time>2019-06-20T17:41:02Z</time>
      </trkpt>
      <trkpt lat="43.318682" lon="-8.237963">
        <ele>116.588</ele>
        <time>2019-06-20T17:41:03Z</time>
      </trkpt>
      <trkpt lat="43.318662" lon="-8.238176">
        <ele>116.850</ele>
        <time>2019-06-20T17:41:04Z</time>
      </trkpt>
      <trkpt lat="43.318633" lon="-8.238384">
        <ele>117.537</ele>
        <time>2019-06-20T17:41:05Z</time>
      </trkpt>
      <trkpt lat="43.318601" lon="-8.238590">
        <ele>118.848</ele>
        <time>2019-06-20T17:41:06Z</time>
      </trkpt>
      <trkpt lat="43.318577" lon="-8.238788">
        <ele>119.661</ele>
        <time>2019-06-20T17:41:07Z</time>
      </trkpt>
      <trkpt lat="43.318545" lon="-8.239000">
        <ele>120.417</ele>
        <time>2019-06-20T17:41:08Z</time>
      </trkpt>
      <trkpt lat="43.318519" lon="-8.239200">
        <ele>121.108</ele>
        <time>2019-06-20T17:41:09Z</time>
      </trkpt>
      <trkpt lat="43.318490" lon="-8.239422">
        <ele>121.967</ele>
        <time>2019-06-20T17:41:10Z</time>
      </trkpt>
      <trkpt lat="43.318460" lon="-8.239644">
        <ele>122.751</ele>
        <time>2019-06-20T17:41:11Z</time>
      </trkpt>
      <trkpt lat="43.318430" lon="-8.239866">
        <ele>123.322</ele>
        <time>2019-06-20T17:41:12Z</time>
      </trkpt>
      <trkpt lat="43.318395" lon="-8.240094">
        <ele>123.998</ele>
        <time>2019-06-20T17:41:13Z</time>
      </trkpt>
      <trkpt lat="43.318362" lon="-8.240331">
        <ele>124.075</ele>
        <time>2019-06-20T17:41:14Z</time>
      </trkpt>
      <trkpt lat="43.318325" lon="-8.240557">
        <ele>124.076</ele>
        <time>2019-06-20T17:41:15Z</time>
      </trkpt>
      <trkpt lat="43.318293" lon="-8.240785">
        <ele>123.038</ele>
        <time>2019-06-20T17:41:16Z</time>
      </trkpt>
      <trkpt lat="43.318256" lon="-8.241010">
        <ele>122.785</ele>
        <time>2019-06-20T17:41:17Z</time>
      </trkpt>
      <trkpt lat="43.318222" lon="-8.241233">
        <ele>122.392</ele>
        <time>2019-06-20T17:41:18Z</time>
      </trkpt>
      <trkpt lat="43.318177" lon="-8.241462">
        <ele>122.373</ele>
        <time>2019-06-20T17:41:19Z</time>
      </trkpt>
      <trkpt lat="43.318113" lon="-8.241688">
        <ele>123.020</ele>
        <time>2019-06-20T17:41:20Z</time>
      </trkpt>
      <trkpt lat="43.318031" lon="-8.241902">
        <ele>123.208</ele>
        <time>2019-06-20T17:41:21Z</time>
      </trkpt>
      <trkpt lat="43.317930" lon="-8.242140">
        <ele>125.012</ele>
        <time>2019-06-20T17:41:22Z</time>
      </trkpt>
      <trkpt lat="43.317819" lon="-8.242375">
        <ele>127.816</ele>
        <time>2019-06-20T17:41:23Z</time>
      </trkpt>
      <trkpt lat="43.317707" lon="-8.242595">
        <ele>130.857</ele>
        <time>2019-06-20T17:41:24Z</time>
      </trkpt>
      <trkpt lat="43.317596" lon="-8.242806">
        <ele>132.343</ele>
        <time>2019-06-20T17:41:25Z</time>
      </trkpt>
      <trkpt lat="43.317486" lon="-8.243027">
        <ele>132.540</ele>
        <time>2019-06-20T17:41:26Z</time>
      </trkpt>
      <trkpt lat="43.317379" lon="-8.243235">
        <ele>130.791</ele>
        <time>2019-06-20T17:41:27Z</time>
      </trkpt>
      <trkpt lat="43.317280" lon="-8.243427">
        <ele>128.773</ele>
        <time>2019-06-20T17:41:28Z</time>
      </trkpt>
      <trkpt lat="43.317187" lon="-8.243617">
        <ele>126.730</ele>
        <time>2019-06-20T17:41:29Z</time>
      </trkpt>
      <trkpt lat="43.317088" lon="-8.243817">
        <ele>126.484</ele>
        <time>2019-06-20T17:41:30Z</time>
      </trkpt>
      <trkpt lat="43.316992" lon="-8.244022">
        <ele>125.707</ele>
        <time>2019-06-20T17:41:31Z</time>
      </trkpt>
      <trkpt lat="43.316901" lon="-8.244227">
        <ele>125.217</ele>
        <time>2019-06-20T17:41:32Z</time>
      </trkpt>
      <trkpt lat="43.316803" lon="-8.244426">
        <ele>125.908</ele>
        <time>2019-06-20T17:41:33Z</time>
      </trkpt>
      <trkpt lat="43.316703" lon="-8.244633">
        <ele>126.621</ele>
        <time>2019-06-20T17:41:34Z</time>
      </trkpt>
      <trkpt lat="43.316614" lon="-8.244823">
        <ele>126.635</ele>
        <time>2019-06-20T17:41:35Z</time>
      </trkpt>
      <trkpt lat="43.316523" lon="-8.245002">
        <ele>125.446</ele>
        <time>2019-06-20T17:41:36Z</time>
      </trkpt>
      <trkpt lat="43.316426" lon="-8.245174">
        <ele>123.962</ele>
        <time>2019-06-20T17:41:37Z</time>
      </trkpt>
      <trkpt lat="43.316353" lon="-8.245348">
        <ele>122.479</ele>
        <time>2019-06-20T17:41:38Z</time>
      </trkpt>
      <trkpt lat="43.316257" lon="-8.245497">
        <ele>120.830</ele>
        <time>2019-06-20T17:41:39Z</time>
      </trkpt>
      <trkpt lat="43.316173" lon="-8.245654">
        <ele>120.022</ele>
        <time>2019-06-20T17:41:40Z</time>
      </trkpt>
      <trkpt lat="43.316087" lon="-8.245816">
        <ele>119.959</ele>
        <time>2019-06-20T17:41:41Z</time>
      </trkpt>
      <trkpt lat="43.316008" lon="-8.245980">
        <ele>121.027</ele>
        <time>2019-06-20T17:41:42Z</time>
      </trkpt>
      <trkpt lat="43.315920" lon="-8.246152">
        <ele>121.868</ele>
        <time>2019-06-20T17:41:43Z</time>
      </trkpt>
      <trkpt lat="43.315844" lon="-8.246319">
        <ele>121.914</ele>
        <time>2019-06-20T17:41:44Z</time>
      </trkpt>
      <trkpt lat="43.315764" lon="-8.246490">
        <ele>121.308</ele>
        <time>2019-06-20T17:41:45Z</time>
      </trkpt>
      <trkpt lat="43.315681" lon="-8.246661">
        <ele>120.925</ele>
        <time>2019-06-20T17:41:46Z</time>
      </trkpt>
      <trkpt lat="43.315594" lon="-8.246833">
        <ele>120.889</ele>
        <time>2019-06-20T17:41:47Z</time>
      </trkpt>
      <trkpt lat="43.315508" lon="-8.247008">
        <ele>120.730</ele>
        <time>2019-06-20T17:41:48Z</time>
      </trkpt>
      <trkpt lat="43.315421" lon="-8.247177">
        <ele>120.416</ele>
        <time>2019-06-20T17:41:49Z</time>
      </trkpt>
      <trkpt lat="43.315334" lon="-8.247337">
        <ele>120.453</ele>
        <time>2019-06-20T17:41:50Z</time>
      </trkpt>
      <trkpt lat="43.315245" lon="-8.247488">
        <ele>120.754</ele>
        <time>2019-06-20T17:41:51Z</time>
      </trkpt>
      <trkpt lat="43.315149" lon="-8.247634">
        <ele>121.026</ele>
        <time>2019-06-20T17:41:52Z</time>
      </trkpt>
      <trkpt lat="43.315041" lon="-8.247725">
        <ele>120.983</ele>
        <time>2019-06-20T17:41:53Z</time>
      </trkpt>
      <trkpt lat="43.314933" lon="-8.247812">
        <ele>121.088</ele>
        <time>2019-06-20T17:41:54Z</time>
      </trkpt>
      <trkpt lat="43.314813" lon="-8.247874">
        <ele>121.024</ele>
        <time>2019-06-20T17:41:55Z</time>
      </trkpt>
      <trkpt lat="43.314698" lon="-8.247932">
        <ele>121.426</ele>
        <time>2019-06-20T17:41:56Z</time>
      </trkpt>
      <trkpt lat="43.314588" lon="-8.247979">
        <ele>123.008</ele>
        <time>2019-06-20T17:41:57Z</time>
      </trkpt>
      <trkpt lat="43.314483" lon="-8.248020">
        <ele>124.491</ele>
        <time>2019-06-20T17:41:58Z</time>
      </trkpt>
      <trkpt lat="43.314380" lon="-8.248061">
        <ele>125.535</ele>
        <time>2019-06-20T17:41:59Z</time>
      </trkpt>
      <trkpt lat="43.314277" lon="-8.248106">
        <ele>126.196</ele>
        <time>2019-06-20T17:42:00Z</time>
      </trkpt>
      <trkpt lat="43.314185" lon="-8.248150">
        <ele>126.512</ele>
        <time>2019-06-20T17:42:01Z</time>
      </trkpt>
      <trkpt lat="43.314091" lon="-8.248191">
        <ele>126.249</ele>
        <time>2019-06-20T17:42:02Z</time>
      </trkpt>
      <trkpt lat="43.313992" lon="-8.248238">
        <ele>125.950</ele>
        <time>2019-06-20T17:42:03Z</time>
      </trkpt>
      <trkpt lat="43.313894" lon="-8.248281">
        <ele>125.842</ele>
        <time>2019-06-20T17:42:04Z</time>
      </trkpt>
      <trkpt lat="43.313785" lon="-8.248329">
        <ele>124.559</ele>
        <time>2019-06-20T17:42:05Z</time>
      </trkpt>
      <trkpt lat="43.313681" lon="-8.248395">
        <ele>124.868</ele>
        <time>2019-06-20T17:42:06Z</time>
      </trkpt>
      <trkpt lat="43.313579" lon="-8.248490">
        <ele>126.542</ele>
        <time>2019-06-20T17:42:07Z</time>
      </trkpt>
      <trkpt lat="43.313486" lon="-8.248603">
        <ele>128.126</ele>
        <time>2019-06-20T17:42:08Z</time>
      </trkpt>
      <trkpt lat="43.313391" lon="-8.248716">
        <ele>128.408</ele>
        <time>2019-06-20T17:42:09Z</time>
      </trkpt>
      <trkpt lat="43.313310" lon="-8.248831">
        <ele>129.079</ele>
        <time>2019-06-20T17:42:10Z</time>
      </trkpt>
      <trkpt lat="43.313225" lon="-8.249008">
        <ele>128.343</ele>
        <time>2019-06-20T17:42:11Z</time>
      </trkpt>
      <trkpt lat="43.313141" lon="-8.249171">
        <ele>126.854</ele>
        <time>2019-06-20T17:42:12Z</time>
      </trkpt>
      <trkpt lat="43.313049" lon="-8.249339">
        <ele>124.550</ele>
        <time>2019-06-20T17:42:13Z</time>
      </trkpt>
      <trkpt lat="43.312983" lon="-8.249499">
        <ele>124.167</ele>
        <time>2019-06-20T17:42:14Z</time>
      </trkpt>
      <trkpt lat="43.312906" lon="-8.249660">
        <ele>123.958</ele>
        <time>2019-06-20T17:42:15Z</time>
      </trkpt>
      <trkpt lat="43.312826" lon="-8.249812">
        <ele>123.510</ele>
        <time>2019-06-20T17:42:16Z</time>
      </trkpt>
      <trkpt lat="43.312750" lon="-8.249961">
        <ele>123.237</ele>
        <time>2019-06-20T17:42:17Z</time>
      </trkpt>
      <trkpt lat="43.312672" lon="-8.250114">
        <ele>123.154</ele>
        <time>2019-06-20T17:42:18Z</time>
      </trkpt>
      <trkpt lat="43.312595" lon="-8.250251">
        <ele>123.156</ele>
        <time>2019-06-20T17:42:19Z</time>
      </trkpt>
      <trkpt lat="43.312517" lon="-8.250399">
        <ele>123.611</ele>
        <time>2019-06-20T17:42:20Z</time>
      </trkpt>
      <trkpt lat="43.312405" lon="-8.250544">
        <ele>122.908</ele>
        <time>2019-06-20T17:42:21Z</time>
      </trkpt>
      <trkpt lat="43.312288" lon="-8.250710">
        <ele>121.768</ele>
        <time>2019-06-20T17:42:22Z</time>
      </trkpt>
      <trkpt lat="43.312159" lon="-8.250876">
        <ele>120.412</ele>
        <time>2019-06-20T17:42:23Z</time>
      </trkpt>
      <trkpt lat="43.312033" lon="-8.251044">
        <ele>121.293</ele>
        <time>2019-06-20T17:42:24Z</time>
      </trkpt>
      <trkpt lat="43.311902" lon="-8.251208">
        <ele>122.479</ele>
        <time>2019-06-20T17:42:25Z</time>
      </trkpt>
      <trkpt lat="43.311757" lon="-8.251383">
        <ele>122.586</ele>
        <time>2019-06-20T17:42:26Z</time>
      </trkpt>
      <trkpt lat="43.311623" lon="-8.251567">
        <ele>121.657</ele>
        <time>2019-06-20T17:42:27Z</time>
      </trkpt>
      <trkpt lat="43.311491" lon="-8.251745">
        <ele>119.379</ele>
        <time>2019-06-20T17:42:28Z</time>
      </trkpt>
      <trkpt lat="43.311376" lon="-8.251917">
        <ele>117.316</ele>
        <time>2019-06-20T17:42:29Z</time>
      </trkpt>
      <trkpt lat="43.311274" lon="-8.252092">
        <ele>115.478</ele>
        <time>2019-06-20T17:42:30Z</time>
      </trkpt>
      <trkpt lat="43.311189" lon="-8.252281">
        <ele>114.333</ele>
        <time>2019-06-20T17:42:31Z</time>
      </trkpt>
      <trkpt lat="43.311113" lon="-8.252493">
        <ele>114.026</ele>
        <time>2019-06-20T17:42:32Z</time>
      </trkpt>
      <trkpt lat="43.311059" lon="-8.252737">
        <ele>115.808</ele>
        <time>2019-06-20T17:42:33Z</time>
      </trkpt>
      <trkpt lat="43.311022" lon="-8.252981">
        <ele>117.420</ele>
        <time>2019-06-20T17:42:34Z</time>
      </trkpt>
      <trkpt lat="43.310987" lon="-8.253224">
        <ele>118.314</ele>
        <time>2019-06-20T17:42:35Z</time>
      </trkpt>
      <trkpt lat="43.310949" lon="-8.253471">
        <ele>118.845</ele>
        <time>2019-06-20T17:42:36Z</time>
      </trkpt>
      <trkpt lat="43.310911" lon="-8.253711">
        <ele>120.091</ele>
        <time>2019-06-20T17:42:37Z</time>
      </trkpt>
      <trkpt lat="43.310869" lon="-8.253958">
        <ele>121.918</ele>
        <time>2019-06-20T17:42:38Z</time>
      </trkpt>
      <trkpt lat="43.310829" lon="-8.254195">
        <ele>124.969</ele>
        <time>2019-06-20T17:42:39Z</time>
      </trkpt>
      <trkpt lat="43.310806" lon="-8.254403">
        <ele>131.651</ele>
        <time>2019-06-20T17:42:40Z</time>
      </trkpt>
      <trkpt lat="43.310772" lon="-8.254621">
        <ele>136.698</ele>
        <time>2019-06-20T17:42:41Z</time>
      </trkpt>
      <trkpt lat="43.310738" lon="-8.254854">
        <ele>138.859</ele>
        <time>2019-06-20T17:42:42Z</time>
      </trkpt>
      <trkpt lat="43.310693" lon="-8.255103">
        <ele>137.903</ele>
        <time>2019-06-20T17:42:43Z</time>
      </trkpt>
      <trkpt lat="43.310653" lon="-8.255346">
        <ele>136.423</ele>
        <time>2019-06-20T17:42:44Z</time>
      </trkpt>
      <trkpt lat="43.310614" lon="-8.255590">
        <ele>134.508</ele>
        <time>2019-06-20T17:42:45Z</time>
      </trkpt>
      <trkpt lat="43.310567" lon="-8.255841">
        <ele>131.148</ele>
        <time>2019-06-20T17:42:46Z</time>
      </trkpt>
      <trkpt lat="43.310525" lon="-8.256082">
        <ele>126.592</ele>
        <time>2019-06-20T17:42:47Z</time>
      </trkpt>
      <trkpt lat="43.310483" lon="-8.256335">
        <ele>122.913</ele>
        <time>2019-06-20T17:42:48Z</time>
      </trkpt>
      <trkpt lat="43.310445" lon="-8.256589">
        <ele>120.769</ele>
        <time>2019-06-20T17:42:49Z</time>
      </trkpt>
      <trkpt lat="43.310398" lon="-8.256847">
        <ele>120.146</ele>
        <time>2019-06-20T17:42:50Z</time>
      </trkpt>
      <trkpt lat="43.310354" lon="-8.257123">
        <ele>120.627</ele>
        <time>2019-06-20T17:42:51Z</time>
      </trkpt>
      <trkpt lat="43.310323" lon="-8.257377">
        <ele>121.719</ele>
        <time>2019-06-20T17:42:52Z</time>
      </trkpt>
      <trkpt lat="43.310298" lon="-8.257634">
        <ele>122.796</ele>
        <time>2019-06-20T17:42:53Z</time>
      </trkpt>
      <trkpt lat="43.310265" lon="-8.257872">
        <ele>123.234</ele>
        <time>2019-06-20T17:42:54Z</time>
      </trkpt>
      <trkpt lat="43.310235" lon="-8.258108">
        <ele>123.955</ele>
        <time>2019-06-20T17:42:55Z</time>
      </trkpt>
      <trkpt lat="43.310205" lon="-8.258343">
        <ele>124.810</ele>
        <time>2019-06-20T17:42:56Z</time>
      </trkpt>
      <trkpt lat="43.310178" lon="-8.258578">
        <ele>126.408</ele>
        <time>2019-06-20T17:42:57Z</time>
      </trkpt>
      <trkpt lat="43.310149" lon="-8.258810">
        <ele>126.216</ele>
        <time>2019-06-20T17:42:58Z</time>
      </trkpt>
      <trkpt lat="43.310113" lon="-8.259032">
        <ele>124.890</ele>
        <time>2019-06-20T17:42:59Z</time>
      </trkpt>
      <trkpt lat="43.310086" lon="-8.259241">
        <ele>123.071</ele>
        <time>2019-06-20T17:43:00Z</time>
      </trkpt>
      <trkpt lat="43.310049" lon="-8.259448">
        <ele>121.227</ele>
        <time>2019-06-20T17:43:01Z</time>
      </trkpt>
      <trkpt lat="43.310020" lon="-8.259634">
        <ele>120.384</ele>
        <time>2019-06-20T17:43:02Z</time>
      </trkpt>
      <trkpt lat="43.309991" lon="-8.259824">
        <ele>120.185</ele>
        <time>2019-06-20T17:43:03Z</time>
      </trkpt>
      <trkpt lat="43.309958" lon="-8.260017">
        <ele>120.517</ele>
        <time>2019-06-20T17:43:04Z</time>
      </trkpt>
      <trkpt lat="43.309933" lon="-8.260216">
        <ele>120.734</ele>
        <time>2019-06-20T17:43:05Z</time>
      </trkpt>
      <trkpt lat="43.309892" lon="-8.260418">
        <ele>121.728</ele>
        <time>2019-06-20T17:43:06Z</time>
      </trkpt>
      <trkpt lat="43.309843" lon="-8.260615">
        <ele>122.789</ele>
        <time>2019-06-20T17:43:07Z</time>
      </trkpt>
      <trkpt lat="43.309788" lon="-8.260801">
        <ele>123.317</ele>
        <time>2019-06-20T17:43:08Z</time>
      </trkpt>
      <trkpt lat="43.309727" lon="-8.260979">
        <ele>123.908</ele>
        <time>2019-06-20T17:43:09Z</time>
      </trkpt>
      <trkpt lat="43.309663" lon="-8.261146">
        <ele>124.145</ele>
        <time>2019-06-20T17:43:10Z</time>
      </trkpt>
      <trkpt lat="43.309581" lon="-8.261316">
        <ele>123.829</ele>
        <time>2019-06-20T17:43:11Z</time>
      </trkpt>
      <trkpt lat="43.309495" lon="-8.261469">
        <ele>123.510</ele>
        <time>2019-06-20T17:43:12Z</time>
      </trkpt>
      <trkpt lat="43.309404" lon="-8.261608">
        <ele>123.246</ele>
        <time>2019-06-20T17:43:13Z</time>
      </trkpt>
      <trkpt lat="43.309287" lon="-8.261735">
        <ele>122.953</ele>
        <time>2019-06-20T17:43:14Z</time>
      </trkpt>
      <trkpt lat="43.309171" lon="-8.261873">
        <ele>122.384</ele>
        <time>2019-06-20T17:43:15Z</time>
      </trkpt>
      <trkpt lat="43.309045" lon="-8.261983">
        <ele>122.426</ele>
        <time>2019-06-20T17:43:16Z</time>
      </trkpt>
      <trkpt lat="43.308919" lon="-8.262100">
        <ele>122.823</ele>
        <time>2019-06-20T17:43:17Z</time>
      </trkpt>
      <trkpt lat="43.308795" lon="-8.262218">
        <ele>123.781</ele>
        <time>2019-06-20T17:43:18Z</time>
      </trkpt>
      <trkpt lat="43.308676" lon="-8.262329">
        <ele>124.461</ele>
        <time>2019-06-20T17:43:19Z</time>
      </trkpt>
      <trkpt lat="43.308556" lon="-8.262447">
        <ele>125.017</ele>
        <time>2019-06-20T17:43:20Z</time>
      </trkpt>
      <trkpt lat="43.308443" lon="-8.262548">
        <ele>124.808</ele>
        <time>2019-06-20T17:43:21Z</time>
      </trkpt>
      <trkpt lat="43.308322" lon="-8.262663">
        <ele>124.521</ele>
        <time>2019-06-20T17:43:22Z</time>
      </trkpt>
      <trkpt lat="43.308214" lon="-8.262778">
        <ele>124.935</ele>
        <time>2019-06-20T17:43:23Z</time>
      </trkpt>
      <trkpt lat="43.308092" lon="-8.262882">
        <ele>125.036</ele>
        <time>2019-06-20T17:43:24Z</time>
      </trkpt>
      <trkpt lat="43.307962" lon="-8.263001">
        <ele>124.822</ele>
        <time>2019-06-20T17:43:25Z</time>
      </trkpt>
      <trkpt lat="43.307840" lon="-8.263115">
        <ele>124.019</ele>
        <time>2019-06-20T17:43:26Z</time>
      </trkpt>
      <trkpt lat="43.307726" lon="-8.263235">
        <ele>123.060</ele>
        <time>2019-06-20T17:43:27Z</time>
      </trkpt>
      <trkpt lat="43.307601" lon="-8.263358">
        <ele>123.362</ele>
        <time>2019-06-20T17:43:28Z</time>
      </trkpt>
      <trkpt lat="43.307475" lon="-8.263469">
        <ele>123.339</ele>
        <time>2019-06-20T17:43:29Z</time>
      </trkpt>
      <trkpt lat="43.307351" lon="-8.263578">
        <ele>123.012</ele>
        <time>2019-06-20T17:43:30Z</time>
      </trkpt>
      <trkpt lat="43.307230" lon="-8.263683">
        <ele>123.132</ele>
        <time>2019-06-20T17:43:31Z</time>
      </trkpt>
      <trkpt lat="43.307104" lon="-8.263788">
        <ele>123.405</ele>
        <time>2019-06-20T17:43:32Z</time>
      </trkpt>
      <trkpt lat="43.306978" lon="-8.263887">
        <ele>123.708</ele>
        <time>2019-06-20T17:43:33Z</time>
      </trkpt>
      <trkpt lat="43.306845" lon="-8.263971">
        <ele>125.254</ele>
        <time>2019-06-20T17:43:34Z</time>
      </trkpt>
      <trkpt lat="43.306709" lon="-8.264035">
        <ele>126.788</ele>
        <time>2019-06-20T17:43:35Z</time>
      </trkpt>
      <trkpt lat="43.306563" lon="-8.264083">
        <ele>127.519</ele>
        <time>2019-06-20T17:43:36Z</time>
      </trkpt>
      <trkpt lat="43.306410" lon="-8.264104">
        <ele>128.745</ele>
        <time>2019-06-20T17:43:37Z</time>
      </trkpt>
      <trkpt lat="43.306257" lon="-8.264102">
        <ele>129.092</ele>
        <time>2019-06-20T17:43:38Z</time>
      </trkpt>
      <trkpt lat="43.306100" lon="-8.264078">
        <ele>129.623</ele>
        <time>2019-06-20T17:43:39Z</time>
      </trkpt>
      <trkpt lat="43.305938" lon="-8.264070">
        <ele>130.425</ele>
        <time>2019-06-20T17:43:40Z</time>
      </trkpt>
      <trkpt lat="43.305762" lon="-8.264064">
        <ele>130.822</ele>
        <time>2019-06-20T17:43:41Z</time>
      </trkpt>
      <trkpt lat="43.305645" lon="-8.264062">
        <ele>130.949</ele>
        <time>2019-06-20T17:43:42Z</time>
      </trkpt>
      <trkpt lat="43.305492" lon="-8.264093">
        <ele>130.802</ele>
        <time>2019-06-20T17:43:43Z</time>
      </trkpt>
      <trkpt lat="43.305356" lon="-8.264120">
        <ele>131.422</ele>
        <time>2019-06-20T17:43:44Z</time>
      </trkpt>
      <trkpt lat="43.305225" lon="-8.264178">
        <ele>131.808</ele>
        <time>2019-06-20T17:43:45Z</time>
      </trkpt>
      <trkpt lat="43.305093" lon="-8.264252">
        <ele>133.187</ele>
        <time>2019-06-20T17:43:46Z</time>
      </trkpt>
      <trkpt lat="43.304987" lon="-8.264347">
        <ele>132.971</ele>
        <time>2019-06-20T17:43:47Z</time>
      </trkpt>
      <trkpt lat="43.304898" lon="-8.264529">
        <ele>131.262</ele>
        <time>2019-06-20T17:43:48Z</time>
      </trkpt>
      <trkpt lat="43.304811" lon="-8.264702">
        <ele>130.338</ele>
        <time>2019-06-20T17:43:49Z</time>
      </trkpt>
      <trkpt lat="43.304740" lon="-8.264894">
        <ele>130.295</ele>
        <time>2019-06-20T17:43:50Z</time>
      </trkpt>
      <trkpt lat="43.304683" lon="-8.265082">
        <ele>131.476</ele>
        <time>2019-06-20T17:43:51Z</time>
      </trkpt>
      <trkpt lat="43.304643" lon="-8.265267">
        <ele>133.538</ele>
        <time>2019-06-20T17:43:52Z</time>
      </trkpt>
      <trkpt lat="43.304596" lon="-8.265445">
        <ele>136.085</ele>
        <time>2019-06-20T17:43:53Z</time>
      </trkpt>
      <trkpt lat="43.304549" lon="-8.265612">
        <ele>138.318</ele>
        <time>2019-06-20T17:43:54Z</time>
      </trkpt>
      <trkpt lat="43.304510" lon="-8.265788">
        <ele>139.898</ele>
        <time>2019-06-20T17:43:55Z</time>
      </trkpt>
      <trkpt lat="43.304461" lon="-8.265971">
        <ele>141.517</ele>
        <time>2019-06-20T17:43:56Z</time>
      </trkpt>
      <trkpt lat="43.304416" lon="-8.266165">
        <ele>142.308</ele>
        <time>2019-06-20T17:43:57Z</time>
      </trkpt>
      <trkpt lat="43.304374" lon="-8.266362">
        <ele>142.094</ele>
        <time>2019-06-20T17:43:58Z</time>
      </trkpt>
      <trkpt lat="43.304336" lon="-8.266566">
        <ele>142.448</ele>
        <time>2019-06-20T17:43:59Z</time>
      </trkpt>
      <trkpt lat="43.304312" lon="-8.266758">
        <ele>143.269</ele>
        <time>2019-06-20T17:44:00Z</time>
      </trkpt>
      <trkpt lat="43.304295" lon="-8.266969">
        <ele>145.165</ele>
        <time>2019-06-20T17:44:01Z</time>
      </trkpt>
      <trkpt lat="43.304291" lon="-8.267191">
        <ele>145.242</ele>
        <time>2019-06-20T17:44:02Z</time>
      </trkpt>
      <trkpt lat="43.304301" lon="-8.267401">
        <ele>145.163</ele>
        <time>2019-06-20T17:44:03Z</time>
      </trkpt>
      <trkpt lat="43.304309" lon="-8.267603">
        <ele>145.455</ele>
        <time>2019-06-20T17:44:04Z</time>
      </trkpt>
      <trkpt lat="43.304320" lon="-8.267797">
        <ele>145.842</ele>
        <time>2019-06-20T17:44:05Z</time>
      </trkpt>
      <trkpt lat="43.304321" lon="-8.268002">
        <ele>145.518</ele>
        <time>2019-06-20T17:44:06Z</time>
      </trkpt>
      <trkpt lat="43.304314" lon="-8.268195">
        <ele>145.298</ele>
        <time>2019-06-20T17:44:07Z</time>
      </trkpt>
      <trkpt lat="43.304317" lon="-8.268406">
        <ele>144.917</ele>
        <time>2019-06-20T17:44:08Z</time>
      </trkpt>
      <trkpt lat="43.304325" lon="-8.268609">
        <ele>145.708</ele>
        <time>2019-06-20T17:44:09Z</time>
      </trkpt>
      <trkpt lat="43.304328" lon="-8.268810">
        <ele>147.494</ele>
        <time>2019-06-20T17:44:10Z</time>
      </trkpt>
      <trkpt lat="43.304324" lon="-8.269010">
        <ele>148.498</ele>
        <time>2019-06-20T17:44:11Z</time>
      </trkpt>
      <trkpt lat="43.304324" lon="-8.269209">
        <ele>148.979</ele>
        <time>2019-06-20T17:44:12Z</time>
      </trkpt>
      <trkpt lat="43.304324" lon="-8.269412">
        <ele>149.995</ele>
        <time>2019-06-20T17:44:13Z</time>
      </trkpt>
      <trkpt lat="43.304331" lon="-8.269595">
        <ele>149.882</ele>
        <time>2019-06-20T17:44:14Z</time>
      </trkpt>
      <trkpt lat="43.304326" lon="-8.269791">
        <ele>149.623</ele>
        <time>2019-06-20T17:44:15Z</time>
      </trkpt>
      <trkpt lat="43.304328" lon="-8.269977">
        <ele>149.625</ele>
        <time>2019-06-20T17:44:16Z</time>
      </trkpt>
      <trkpt lat="43.304330" lon="-8.270172">
        <ele>150.262</ele>
        <time>2019-06-20T17:44:17Z</time>
      </trkpt>
      <trkpt lat="43.304335" lon="-8.270353">
        <ele>151.023</ele>
        <time>2019-06-20T17:44:18Z</time>
      </trkpt>
      <trkpt lat="43.304339" lon="-8.270544">
        <ele>151.983</ele>
        <time>2019-06-20T17:44:19Z</time>
      </trkpt>
      <trkpt lat="43.304346" lon="-8.270718">
        <ele>152.411</ele>
        <time>2019-06-20T17:44:20Z</time>
      </trkpt>
      <trkpt lat="43.304348" lon="-8.270881">
        <ele>152.708</ele>
        <time>2019-06-20T17:44:21Z</time>
      </trkpt>
      <trkpt lat="43.304354" lon="-8.271020">
        <ele>152.955</ele>
        <time>2019-06-20T17:44:22Z</time>
      </trkpt>
      <trkpt lat="43.304370" lon="-8.271149">
        <ele>153.169</ele>
        <time>2019-06-20T17:44:23Z</time>
      </trkpt>
      <trkpt lat="43.304393" lon="-8.271287">
        <ele>152.810</ele>
        <time>2019-06-20T17:44:24Z</time>
      </trkpt>
      <trkpt lat="43.304423" lon="-8.271420">
        <ele>152.576</ele>
        <time>2019-06-20T17:44:25Z</time>
      </trkpt>
      <trkpt lat="43.304454" lon="-8.271553">
        <ele>152.063</ele>
        <time>2019-06-20T17:44:26Z</time>
      </trkpt>
      <trkpt lat="43.304493" lon="-8.271675">
        <ele>151.734</ele>
        <time>2019-06-20T17:44:27Z</time>
      </trkpt>
      <trkpt lat="43.304536" lon="-8.271797">
        <ele>152.636</ele>
        <time>2019-06-20T17:44:28Z</time>
      </trkpt>
      <trkpt lat="43.304586" lon="-8.271923">
        <ele>153.523</ele>
        <time>2019-06-20T17:44:29Z</time>
      </trkpt>
      <trkpt lat="43.304638" lon="-8.272047">
        <ele>154.626</ele>
        <time>2019-06-20T17:44:30Z</time>
      </trkpt>
      <trkpt lat="43.304691" lon="-8.272182">
        <ele>155.647</ele>
        <time>2019-06-20T17:44:31Z</time>
      </trkpt>
      <trkpt lat="43.304751" lon="-8.272331">
        <ele>156.311</ele>
        <time>2019-06-20T17:44:32Z</time>
      </trkpt>
      <trkpt lat="43.304819" lon="-8.272492">
        <ele>157.008</ele>
        <time>2019-06-20T17:44:33Z</time>
      </trkpt>
      <trkpt lat="43.304896" lon="-8.272667">
        <ele>157.915</ele>
        <time>2019-06-20T17:44:34Z</time>
      </trkpt>
      <trkpt lat="43.304977" lon="-8.272839">
        <ele>158.529</ele>
        <time>2019-06-20T17:44:35Z</time>
      </trkpt>
      <trkpt lat="43.305060" lon="-8.273023">
        <ele>159.340</ele>
        <time>2019-06-20T17:44:36Z</time>
      </trkpt>
      <trkpt lat="43.305138" lon="-8.273202">
        <ele>161.536</ele>
        <time>2019-06-20T17:44:37Z</time>
      </trkpt>
      <trkpt lat="43.305221" lon="-8.273381">
        <ele>164.253</ele>
        <time>2019-06-20T17:44:38Z</time>
      </trkpt>
      <trkpt lat="43.305314" lon="-8.273558">
        <ele>165.464</ele>
        <time>2019-06-20T17:44:39Z</time>
      </trkpt>
      <trkpt lat="43.305403" lon="-8.273738">
        <ele>167.986</ele>
        <time>2019-06-20T17:44:40Z</time>
      </trkpt>
      <trkpt lat="43.305496" lon="-8.273916">
        <ele>170.163</ele>
        <time>2019-06-20T17:44:41Z</time>
      </trkpt>
      <trkpt lat="43.305599" lon="-8.274101">
        <ele>173.084</ele>
        <time>2019-06-20T17:44:42Z</time>
      </trkpt>
      <trkpt lat="43.305705" lon="-8.274289">
        <ele>175.307</ele>
        <time>2019-06-20T17:44:43Z</time>
      </trkpt>
      <trkpt lat="43.305841" lon="-8.274452">
        <ele>177.017</ele>
        <time>2019-06-20T17:44:44Z</time>
      </trkpt>
      <trkpt lat="43.305977" lon="-8.274612">
        <ele>177.208</ele>
        <time>2019-06-20T17:44:45Z</time>
      </trkpt>
      <trkpt lat="43.306121" lon="-8.274753">
        <ele>176.941</ele>
        <time>2019-06-20T17:44:46Z</time>
      </trkpt>
      <trkpt lat="43.306278" lon="-8.274879">
        <ele>177.035</ele>
        <time>2019-06-20T17:44:47Z</time>
      </trkpt>
      <trkpt lat="43.306441" lon="-8.274983">
        <ele>177.336</ele>
        <time>2019-06-20T17:44:48Z</time>
      </trkpt>
      <trkpt lat="43.306608" lon="-8.275068">
        <ele>177.522</ele>
        <time>2019-06-20T17:44:49Z</time>
      </trkpt>
      <trkpt lat="43.306785" lon="-8.275138">
        <ele>177.949</ele>
        <time>2019-06-20T17:44:50Z</time>
      </trkpt>
      <trkpt lat="43.306959" lon="-8.275203">
        <ele>178.230</ele>
        <time>2019-06-20T17:44:51Z</time>
      </trkpt>
      <trkpt lat="43.307125" lon="-8.275262">
        <ele>177.522</ele>
        <time>2019-06-20T17:44:52Z</time>
      </trkpt>
      <trkpt lat="43.307293" lon="-8.275329">
        <ele>177.359</ele>
        <time>2019-06-20T17:44:53Z</time>
      </trkpt>
      <trkpt lat="43.307457" lon="-8.275400">
        <ele>177.937</ele>
        <time>2019-06-20T17:44:54Z</time>
      </trkpt>
      <trkpt lat="43.307609" lon="-8.275477">
        <ele>178.349</ele>
        <time>2019-06-20T17:44:55Z</time>
      </trkpt>
      <trkpt lat="43.307764" lon="-8.275558">
        <ele>178.913</ele>
        <time>2019-06-20T17:44:56Z</time>
      </trkpt>
      <trkpt lat="43.307908" lon="-8.275684">
        <ele>180.208</ele>
        <time>2019-06-20T17:44:57Z</time>
      </trkpt>
      <trkpt lat="43.308056" lon="-8.275802">
        <ele>181.226</ele>
        <time>2019-06-20T17:44:58Z</time>
      </trkpt>
      <trkpt lat="43.308197" lon="-8.275940">
        <ele>181.490</ele>
        <time>2019-06-20T17:44:59Z</time>
      </trkpt>
      <trkpt lat="43.308333" lon="-8.276088">
        <ele>182.141</ele>
        <time>2019-06-20T17:45:00Z</time>
      </trkpt>
      <trkpt lat="43.308463" lon="-8.276250">
        <ele>182.557</ele>
        <time>2019-06-20T17:45:01Z</time>
      </trkpt>
      <trkpt lat="43.308590" lon="-8.276416">
        <ele>183.124</ele>
        <time>2019-06-20T17:45:02Z</time>
      </trkpt>
      <trkpt lat="43.308716" lon="-8.276576">
        <ele>184.075</ele>
        <time>2019-06-20T17:45:03Z</time>
      </trkpt>
      <trkpt lat="43.308844" lon="-8.276739">
        <ele>183.277</ele>
        <time>2019-06-20T17:45:04Z</time>
      </trkpt>
      <trkpt lat="43.308965" lon="-8.276894">
        <ele>183.014</ele>
        <time>2019-06-20T17:45:05Z</time>
      </trkpt>
      <trkpt lat="43.309084" lon="-8.277049">
        <ele>182.667</ele>
        <time>2019-06-20T17:45:06Z</time>
      </trkpt>
      <trkpt lat="43.309200" lon="-8.277196">
        <ele>182.181</ele>
        <time>2019-06-20T17:45:07Z</time>
      </trkpt>
      <trkpt lat="43.309319" lon="-8.277347">
        <ele>182.019</ele>
        <time>2019-06-20T17:45:08Z</time>
      </trkpt>
      <trkpt lat="43.309428" lon="-8.277487">
        <ele>182.008</ele>
        <time>2019-06-20T17:45:09Z</time>
      </trkpt>
      <trkpt lat="43.309545" lon="-8.277638">
        <ele>181.619</ele>
        <time>2019-06-20T17:45:10Z</time>
      </trkpt>
      <trkpt lat="43.309659" lon="-8.277788">
        <ele>181.283</ele>
        <time>2019-06-20T17:45:11Z</time>
      </trkpt>
      <trkpt lat="43.309767" lon="-8.277933">
        <ele>180.134</ele>
        <time>2019-06-20T17:45:12Z</time>
      </trkpt>
      <trkpt lat="43.309879" lon="-8.278077">
        <ele>178.810</ele>
        <time>2019-06-20T17:45:13Z</time>
      </trkpt>
      <trkpt lat="43.309986" lon="-8.278221">
        <ele>177.547</ele>
        <time>2019-06-20T17:45:14Z</time>
      </trkpt>
      <trkpt lat="43.310093" lon="-8.278370">
        <ele>176.578</ele>
        <time>2019-06-20T17:45:15Z</time>
      </trkpt>
      <trkpt lat="43.310194" lon="-8.278504">
        <ele>176.230</ele>
        <time>2019-06-20T17:45:16Z</time>
      </trkpt>
      <trkpt lat="43.310299" lon="-8.278651">
        <ele>175.957</ele>
        <time>2019-06-20T17:45:17Z</time>
      </trkpt>
      <trkpt lat="43.310407" lon="-8.278795">
        <ele>175.456</ele>
        <time>2019-06-20T17:45:18Z</time>
      </trkpt>
      <trkpt lat="43.310519" lon="-8.278941">
        <ele>175.159</ele>
        <time>2019-06-20T17:45:19Z</time>
      </trkpt>
      <trkpt lat="43.310633" lon="-8.279088">
        <ele>174.614</ele>
        <time>2019-06-20T17:45:20Z</time>
      </trkpt>
      <trkpt lat="43.310747" lon="-8.279237">
        <ele>174.508</ele>
        <time>2019-06-20T17:45:21Z</time>
      </trkpt>
      <trkpt lat="43.310862" lon="-8.279389">
        <ele>174.988</ele>
        <time>2019-06-20T17:45:22Z</time>
      </trkpt>
      <trkpt lat="43.310977" lon="-8.279545">
        <ele>176.192</ele>
        <time>2019-06-20T17:45:23Z</time>
      </trkpt>
      <trkpt lat="43.311092" lon="-8.279699">
        <ele>177.793</ele>
        <time>2019-06-20T17:45:24Z</time>
      </trkpt>
      <trkpt lat="43.311204" lon="-8.279854">
        <ele>178.029</ele>
        <time>2019-06-20T17:45:25Z</time>
      </trkpt>
      <trkpt lat="43.311316" lon="-8.280011">
        <ele>178.446</ele>
        <time>2019-06-20T17:45:26Z</time>
      </trkpt>
      <trkpt lat="43.311427" lon="-8.280158">
        <ele>178.687</ele>
        <time>2019-06-20T17:45:27Z</time>
      </trkpt>
      <trkpt lat="43.311531" lon="-8.280301">
        <ele>178.229</ele>
        <time>2019-06-20T17:45:28Z</time>
      </trkpt>
      <trkpt lat="43.311634" lon="-8.280441">
        <ele>176.626</ele>
        <time>2019-06-20T17:45:29Z</time>
      </trkpt>
      <trkpt lat="43.311737" lon="-8.280574">
        <ele>175.059</ele>
        <time>2019-06-20T17:45:30Z</time>
      </trkpt>
      <trkpt lat="43.311836" lon="-8.280709">
        <ele>173.603</ele>
        <time>2019-06-20T17:45:31Z</time>
      </trkpt>
      <trkpt lat="43.311934" lon="-8.280838">
        <ele>172.023</ele>
        <time>2019-06-20T17:45:32Z</time>
      </trkpt>
      <trkpt lat="43.312037" lon="-8.280970">
        <ele>170.908</ele>
        <time>2019-06-20T17:45:33Z</time>
      </trkpt>
      <trkpt lat="43.312140" lon="-8.281102">
        <ele>169.448</ele>
        <time>2019-06-20T17:45:34Z</time>
      </trkpt>
      <trkpt lat="43.312237" lon="-8.281226">
        <ele>168.512</ele>
        <time>2019-06-20T17:45:35Z</time>
      </trkpt>
      <trkpt lat="43.312340" lon="-8.281359">
        <ele>167.473</ele>
        <time>2019-06-20T17:45:36Z</time>
      </trkpt>
      <trkpt lat="43.312438" lon="-8.281497">
        <ele>166.099</ele>
        <time>2019-06-20T17:45:37Z</time>
      </trkpt>
      <trkpt lat="43.312538" lon="-8.281634">
        <ele>165.026</ele>
        <time>2019-06-20T17:45:38Z</time>
      </trkpt>
      <trkpt lat="43.312640" lon="-8.281775">
        <ele>164.187</ele>
        <time>2019-06-20T17:45:39Z</time>
      </trkpt>
      <trkpt lat="43.312726" lon="-8.281885">
        <ele>163.469</ele>
        <time>2019-06-20T17:45:40Z</time>
      </trkpt>
      <trkpt lat="43.312819" lon="-8.282010">
        <ele>163.016</ele>
        <time>2019-06-20T17:45:41Z</time>
      </trkpt>
      <trkpt lat="43.312912" lon="-8.282135">
        <ele>162.763</ele>
        <time>2019-06-20T17:45:42Z</time>
      </trkpt>
      <trkpt lat="43.313004" lon="-8.282272">
        <ele>162.244</ele>
        <time>2019-06-20T17:45:43Z</time>
      </trkpt>
      <trkpt lat="43.313103" lon="-8.282406">
        <ele>162.018</ele>
        <time>2019-06-20T17:45:44Z</time>
      </trkpt>
      <trkpt lat="43.313204" lon="-8.282545">
        <ele>162.008</ele>
        <time>2019-06-20T17:45:45Z</time>
      </trkpt>
      <trkpt lat="43.313298" lon="-8.282684">
        <ele>162.049</ele>
        <time>2019-06-20T17:45:46Z</time>
      </trkpt>
      <trkpt lat="43.313390" lon="-8.282822">
        <ele>161.773</ele>
        <time>2019-06-20T17:45:47Z</time>
      </trkpt>
      <trkpt lat="43.313479" lon="-8.282976">
        <ele>161.164</ele>
        <time>2019-06-20T17:45:48Z</time>
      </trkpt>
      <trkpt lat="43.313564" lon="-8.283151">
        <ele>160.380</ele>
        <time>2019-06-20T17:45:49Z</time>
      </trkpt>
      <trkpt lat="43.313658" lon="-8.283337">
        <ele>159.147</ele>
        <time>2019-06-20T17:45:50Z</time>
      </trkpt>
      <trkpt lat="43.313741" lon="-8.283514">
        <ele>158.228</ele>
        <time>2019-06-20T17:45:51Z</time>
      </trkpt>
      <trkpt lat="43.313795" lon="-8.283700">
        <ele>157.010</ele>
        <time>2019-06-20T17:45:52Z</time>
      </trkpt>
      <trkpt lat="43.313851" lon="-8.283878">
        <ele>155.917</ele>
        <time>2019-06-20T17:45:53Z</time>
      </trkpt>
      <trkpt lat="43.313907" lon="-8.284045">
        <ele>154.933</ele>
        <time>2019-06-20T17:45:54Z</time>
      </trkpt>
      <trkpt lat="43.313962" lon="-8.284204">
        <ele>153.923</ele>
        <time>2019-06-20T17:45:55Z</time>
      </trkpt>
      <trkpt lat="43.314029" lon="-8.284372">
        <ele>152.315</ele>
        <time>2019-06-20T17:45:56Z</time>
      </trkpt>
      <trkpt lat="43.314087" lon="-8.284541">
        <ele>151.008</ele>
        <time>2019-06-20T17:45:57Z</time>
      </trkpt>
      <trkpt lat="43.314144" lon="-8.284701">
        <ele>150.186</ele>
        <time>2019-06-20T17:45:58Z</time>
      </trkpt>
      <trkpt lat="43.314197" lon="-8.284880">
        <ele>150.260</ele>
        <time>2019-06-20T17:45:59Z</time>
      </trkpt>
      <trkpt lat="43.314259" lon="-8.285078">
        <ele>150.991</ele>
        <time>2019-06-20T17:46:00Z</time>
      </trkpt>
      <trkpt lat="43.314325" lon="-8.285268">
        <ele>152.117</ele>
        <time>2019-06-20T17:46:01Z</time>
      </trkpt>
      <trkpt lat="43.314390" lon="-8.285462">
        <ele>152.684</ele>
        <time>2019-06-20T17:46:02Z</time>
      </trkpt>
      <trkpt lat="43.314458" lon="-8.285655">
        <ele>152.315</ele>
        <time>2019-06-20T17:46:03Z</time>
      </trkpt>
      <trkpt lat="43.314496" lon="-8.285802">
        <ele>151.467</ele>
        <time>2019-06-20T17:46:04Z</time>
      </trkpt>
      <trkpt lat="43.314556" lon="-8.285969">
        <ele>150.984</ele>
        <time>2019-06-20T17:46:05Z</time>
      </trkpt>
      <trkpt lat="43.314615" lon="-8.286136">
        <ele>150.788</ele>
        <time>2019-06-20T17:46:06Z</time>
      </trkpt>
      <trkpt lat="43.314675" lon="-8.286312">
        <ele>151.424</ele>
        <time>2019-06-20T17:46:07Z</time>
      </trkpt>
      <trkpt lat="43.314735" lon="-8.286483">
        <ele>152.526</ele>
        <time>2019-06-20T17:46:08Z</time>
      </trkpt>
      <trkpt lat="43.314770" lon="-8.286658">
        <ele>153.508</ele>
        <time>2019-06-20T17:46:09Z</time>
      </trkpt>
      <trkpt lat="43.314809" lon="-8.286818">
        <ele>153.961</ele>
        <time>2019-06-20T17:46:10Z</time>
      </trkpt>
      <trkpt lat="43.314871" lon="-8.286995">
        <ele>154.395</ele>
        <time>2019-06-20T17:46:11Z</time>
      </trkpt>
      <trkpt lat="43.314927" lon="-8.287166">
        <ele>154.216</ele>
        <time>2019-06-20T17:46:12Z</time>
      </trkpt>
      <trkpt lat="43.314975" lon="-8.287339">
        <ele>153.852</ele>
        <time>2019-06-20T17:46:13Z</time>
      </trkpt>
      <trkpt lat="43.315009" lon="-8.287517">
        <ele>153.079</ele>
        <time>2019-06-20T17:46:14Z</time>
      </trkpt>
      <trkpt lat="43.315043" lon="-8.287710">
        <ele>152.440</ele>
        <time>2019-06-20T17:46:15Z</time>
      </trkpt>
      <trkpt lat="43.315048" lon="-8.287913">
        <ele>151.822</ele>
        <time>2019-06-20T17:46:16Z</time>
      </trkpt>
      <trkpt lat="43.315039" lon="-8.288124">
        <ele>151.549</ele>
        <time>2019-06-20T17:46:17Z</time>
      </trkpt>
      <trkpt lat="43.315029" lon="-8.288342">
        <ele>152.214</ele>
        <time>2019-06-20T17:46:18Z</time>
      </trkpt>
      <trkpt lat="43.315005" lon="-8.288558">
        <ele>152.154</ele>
        <time>2019-06-20T17:46:19Z</time>
      </trkpt>
      <trkpt lat="43.314973" lon="-8.288776">
        <ele>151.909</ele>
        <time>2019-06-20T17:46:20Z</time>
      </trkpt>
      <trkpt lat="43.314948" lon="-8.288989">
        <ele>152.508</ele>
        <time>2019-06-20T17:46:21Z</time>
      </trkpt>
      <trkpt lat="43.314919" lon="-8.289202">
        <ele>153.594</ele>
        <time>2019-06-20T17:46:22Z</time>
      </trkpt>
      <trkpt lat="43.314882" lon="-8.289415">
        <ele>153.928</ele>
        <time>2019-06-20T17:46:23Z</time>
      </trkpt>
      <trkpt lat="43.314855" lon="-8.289624">
        <ele>154.089</ele>
        <time>2019-06-20T17:46:24Z</time>
      </trkpt>
      <trkpt lat="43.314819" lon="-8.289846">
        <ele>153.765</ele>
        <time>2019-06-20T17:46:25Z</time>
      </trkpt>
      <trkpt lat="43.314792" lon="-8.290057">
        <ele>153.362</ele>
        <time>2019-06-20T17:46:26Z</time>
      </trkpt>
      <trkpt lat="43.314766" lon="-8.290272">
        <ele>153.343</ele>
        <time>2019-06-20T17:46:27Z</time>
      </trkpt>
      <trkpt lat="43.314750" lon="-8.290489">
        <ele>154.055</ele>
        <time>2019-06-20T17:46:28Z</time>
      </trkpt>
      <trkpt lat="43.314756" lon="-8.290706">
        <ele>155.842</ele>
        <time>2019-06-20T17:46:29Z</time>
      </trkpt>
      <trkpt lat="43.314760" lon="-8.290928">
        <ele>157.536</ele>
        <time>2019-06-20T17:46:30Z</time>
      </trkpt>
      <trkpt lat="43.314780" lon="-8.291119">
        <ele>158.217</ele>
        <time>2019-06-20T17:46:31Z</time>
      </trkpt>
      <trkpt lat="43.314855" lon="-8.291317">
        <ele>158.518</ele>
        <time>2019-06-20T17:46:32Z</time>
      </trkpt>
      <trkpt lat="43.314917" lon="-8.291503">
        <ele>157.708</ele>
        <time>2019-06-20T17:46:33Z</time>
      </trkpt>
      <trkpt lat="43.314993" lon="-8.291696">
        <ele>156.026</ele>
        <time>2019-06-20T17:46:34Z</time>
      </trkpt>
      <trkpt lat="43.315089" lon="-8.291877">
        <ele>155.570</ele>
        <time>2019-06-20T17:46:35Z</time>
      </trkpt>
      <trkpt lat="43.315209" lon="-8.292035">
        <ele>154.711</ele>
        <time>2019-06-20T17:46:36Z</time>
      </trkpt>
      <trkpt lat="43.315333" lon="-8.292191">
        <ele>154.987</ele>
        <time>2019-06-20T17:46:37Z</time>
      </trkpt>
      <trkpt lat="43.315463" lon="-8.292341">
        <ele>154.974</ele>
        <time>2019-06-20T17:46:38Z</time>
      </trkpt>
      <trkpt lat="43.315612" lon="-8.292498">
        <ele>153.665</ele>
        <time>2019-06-20T17:46:39Z</time>
      </trkpt>
      <trkpt lat="43.315765" lon="-8.292620">
        <ele>152.237</ele>
        <time>2019-06-20T17:46:40Z</time>
      </trkpt>
      <trkpt lat="43.315908" lon="-8.292773">
        <ele>151.064</ele>
        <time>2019-06-20T17:46:41Z</time>
      </trkpt>
      <trkpt lat="43.316061" lon="-8.292926">
        <ele>151.024</ele>
        <time>2019-06-20T17:46:42Z</time>
      </trkpt>
      <trkpt lat="43.316198" lon="-8.293078">
        <ele>151.004</ele>
        <time>2019-06-20T17:46:43Z</time>
      </trkpt>
      <trkpt lat="43.316346" lon="-8.293238">
        <ele>148.914</ele>
        <time>2019-06-20T17:46:44Z</time>
      </trkpt>
      <trkpt lat="43.316481" lon="-8.293388">
        <ele>145.108</ele>
        <time>2019-06-20T17:46:45Z</time>
      </trkpt>
      <trkpt lat="43.316615" lon="-8.293545">
        <ele>141.515</ele>
        <time>2019-06-20T17:46:46Z</time>
      </trkpt>
      <trkpt lat="43.316745" lon="-8.293715">
        <ele>140.029</ele>
        <time>2019-06-20T17:46:47Z</time>
      </trkpt>
      <trkpt lat="43.316882" lon="-8.293880">
        <ele>139.670</ele>
        <time>2019-06-20T17:46:48Z</time>
      </trkpt>
      <trkpt lat="43.317016" lon="-8.294042">
        <ele>139.866</ele>
        <time>2019-06-20T17:46:49Z</time>
      </trkpt>
      <trkpt lat="43.317158" lon="-8.294218">
        <ele>139.493</ele>
        <time>2019-06-20T17:46:50Z</time>
      </trkpt>
      <trkpt lat="43.317295" lon="-8.294383">
        <ele>138.414</ele>
        <time>2019-06-20T17:46:51Z</time>
      </trkpt>
      <trkpt lat="43.317441" lon="-8.294565">
        <ele>137.136</ele>
        <time>2019-06-20T17:46:52Z</time>
      </trkpt>
      <trkpt lat="43.317576" lon="-8.294737">
        <ele>136.043</ele>
        <time>2019-06-20T17:46:53Z</time>
      </trkpt>
      <trkpt lat="43.317713" lon="-8.294912">
        <ele>135.824</ele>
        <time>2019-06-20T17:46:54Z</time>
      </trkpt>
      <trkpt lat="43.317853" lon="-8.295090">
        <ele>136.204</ele>
        <time>2019-06-20T17:46:55Z</time>
      </trkpt>
      <trkpt lat="43.317988" lon="-8.295256">
        <ele>136.114</ele>
        <time>2019-06-20T17:46:56Z</time>
      </trkpt>
      <trkpt lat="43.318124" lon="-8.295427">
        <ele>136.008</ele>
        <time>2019-06-20T17:46:57Z</time>
      </trkpt>
      <trkpt lat="43.318259" lon="-8.295582">
        <ele>136.095</ele>
        <time>2019-06-20T17:46:58Z</time>
      </trkpt>
      <trkpt lat="43.318398" lon="-8.295743">
        <ele>135.829</ele>
        <time>2019-06-20T17:46:59Z</time>
      </trkpt>
      <trkpt lat="43.318527" lon="-8.295911">
        <ele>135.280</ele>
        <time>2019-06-20T17:47:00Z</time>
      </trkpt>
      <trkpt lat="43.318652" lon="-8.296070">
        <ele>134.936</ele>
        <time>2019-06-20T17:47:01Z</time>
      </trkpt>
      <trkpt lat="43.318773" lon="-8.296221">
        <ele>134.653</ele>
        <time>2019-06-20T17:47:02Z</time>
      </trkpt>
      <trkpt lat="43.318890" lon="-8.296371">
        <ele>134.984</ele>
        <time>2019-06-20T17:47:03Z</time>
      </trkpt>
      <trkpt lat="43.319009" lon="-8.296516">
        <ele>134.346</ele>
        <time>2019-06-20T17:47:04Z</time>
      </trkpt>
      <trkpt lat="43.319130" lon="-8.296651">
        <ele>134.123</ele>
        <time>2019-06-20T17:47:05Z</time>
      </trkpt>
      <trkpt lat="43.319239" lon="-8.296798">
        <ele>133.618</ele>
        <time>2019-06-20T17:47:06Z</time>
      </trkpt>
      <trkpt lat="43.319348" lon="-8.296929">
        <ele>132.798</ele>
        <time>2019-06-20T17:47:07Z</time>
      </trkpt>
      <trkpt lat="43.319454" lon="-8.297060">
        <ele>131.517</ele>
        <time>2019-06-20T17:47:08Z</time>
      </trkpt>
      <trkpt lat="43.319572" lon="-8.297181">
        <ele>130.208</ele>
        <time>2019-06-20T17:47:09Z</time>
      </trkpt>
      <trkpt lat="43.319647" lon="-8.297269">
        <ele>129.544</ele>
        <time>2019-06-20T17:47:10Z</time>
      </trkpt>
      <trkpt lat="43.319739" lon="-8.297411">
        <ele>129.078</ele>
        <time>2019-06-20T17:47:11Z</time>
      </trkpt>
      <trkpt lat="43.319838" lon="-8.297536">
        <ele>128.789</ele>
        <time>2019-06-20T17:47:12Z</time>
      </trkpt>
      <trkpt lat="43.319941" lon="-8.297655">
        <ele>128.835</ele>
        <time>2019-06-20T17:47:13Z</time>
      </trkpt>
      <trkpt lat="43.320036" lon="-8.297772">
        <ele>128.942</ele>
        <time>2019-06-20T17:47:14Z</time>
      </trkpt>
      <trkpt lat="43.320123" lon="-8.297872">
        <ele>128.663</ele>
        <time>2019-06-20T17:47:15Z</time>
      </trkpt>
      <trkpt lat="43.320187" lon="-8.297952">
        <ele>128.355</ele>
        <time>2019-06-20T17:47:16Z</time>
      </trkpt>
      <trkpt lat="43.320252" lon="-8.298021">
        <ele>128.132</ele>
        <time>2019-06-20T17:47:17Z</time>
      </trkpt>
      <trkpt lat="43.320314" lon="-8.298108">
        <ele>127.621</ele>
        <time>2019-06-20T17:47:18Z</time>
      </trkpt>
      <trkpt lat="43.320381" lon="-8.298184">
        <ele>127.041</ele>
        <time>2019-06-20T17:47:19Z</time>
      </trkpt>
      <trkpt lat="43.320452" lon="-8.298259">
        <ele>126.505</ele>
        <time>2019-06-20T17:47:20Z</time>
      </trkpt>
      <trkpt lat="43.320522" lon="-8.298377">
        <ele>126.108</ele>
        <time>2019-06-20T17:47:21Z</time>
      </trkpt>
      <trkpt lat="43.320592" lon="-8.298508">
        <ele>125.915</ele>
        <time>2019-06-20T17:47:22Z</time>
      </trkpt>
      <trkpt lat="43.320662" lon="-8.298623">
        <ele>125.649</ele>
        <time>2019-06-20T17:47:23Z</time>
      </trkpt>
      <trkpt lat="43.320735" lon="-8.298705">
        <ele>125.180</ele>
        <time>2019-06-20T17:47:24Z</time>
      </trkpt>
      <trkpt lat="43.320806" lon="-8.298772">
        <ele>124.656</ele>
        <time>2019-06-20T17:47:25Z</time>
      </trkpt>
      <trkpt lat="43.320885" lon="-8.298835">
        <ele>124.293</ele>
        <time>2019-06-20T17:47:26Z</time>
      </trkpt>
      <trkpt lat="43.320957" lon="-8.298884">
        <ele>124.014</ele>
        <time>2019-06-20T17:47:27Z</time>
      </trkpt>
      <trkpt lat="43.321033" lon="-8.298960">
        <ele>123.626</ele>
        <time>2019-06-20T17:47:28Z</time>
      </trkpt>
      <trkpt lat="43.321085" lon="-8.299050">
        <ele>122.993</ele>
        <time>2019-06-20T17:47:29Z</time>
      </trkpt>
      <trkpt lat="43.321105" lon="-8.299146">
        <ele>122.253</ele>
        <time>2019-06-20T17:47:30Z</time>
      </trkpt>
      <trkpt lat="43.321091" lon="-8.299246">
        <ele>121.004</ele>
        <time>2019-06-20T17:47:31Z</time>
      </trkpt>
      <trkpt lat="43.321072" lon="-8.299366">
        <ele>119.414</ele>
        <time>2019-06-20T17:47:32Z</time>
      </trkpt>
      <trkpt lat="43.321074" lon="-8.299498">
        <ele>117.708</ele>
        <time>2019-06-20T17:47:33Z</time>
      </trkpt>
      <trkpt lat="43.321068" lon="-8.299641">
        <ele>116.498</ele>
        <time>2019-06-20T17:47:34Z</time>
      </trkpt>
      <trkpt lat="43.321071" lon="-8.299776">
        <ele>115.422</ele>
        <time>2019-06-20T17:47:35Z</time>
      </trkpt>
      <trkpt lat="43.321093" lon="-8.299904">
        <ele>114.623</ele>
        <time>2019-06-20T17:47:36Z</time>
      </trkpt>
      <trkpt lat="43.321130" lon="-8.300035">
        <ele>113.619</ele>
        <time>2019-06-20T17:47:37Z</time>
      </trkpt>
      <trkpt lat="43.321189" lon="-8.300152">
        <ele>112.566</ele>
        <time>2019-06-20T17:47:38Z</time>
      </trkpt>
      <trkpt lat="43.321256" lon="-8.300263">
        <ele>111.787</ele>
        <time>2019-06-20T17:47:39Z</time>
      </trkpt>
      <trkpt lat="43.321353" lon="-8.300360">
        <ele>111.589</ele>
        <time>2019-06-20T17:47:40Z</time>
      </trkpt>
      <trkpt lat="43.321460" lon="-8.300440">
        <ele>112.496</ele>
        <time>2019-06-20T17:47:41Z</time>
      </trkpt>
      <trkpt lat="43.321589" lon="-8.300502">
        <ele>114.192</ele>
        <time>2019-06-20T17:47:42Z</time>
      </trkpt>
      <trkpt lat="43.321735" lon="-8.300554">
        <ele>115.573</ele>
        <time>2019-06-20T17:47:43Z</time>
      </trkpt>
      <trkpt lat="43.321900" lon="-8.300615">
        <ele>115.520</ele>
        <time>2019-06-20T17:47:44Z</time>
      </trkpt>
      <trkpt lat="43.322072" lon="-8.300691">
        <ele>114.308</ele>
        <time>2019-06-20T17:47:45Z</time>
      </trkpt>
      <trkpt lat="43.322249" lon="-8.300781">
        <ele>112.752</ele>
        <time>2019-06-20T17:47:46Z</time>
      </trkpt>
      <trkpt lat="43.322434" lon="-8.300889">
        <ele>109.126</ele>
        <time>2019-06-20T17:47:47Z</time>
      </trkpt>
      <trkpt lat="43.322626" lon="-8.301004">
        <ele>106.257</ele>
        <time>2019-06-20T17:47:48Z</time>
      </trkpt>
      <trkpt lat="43.322826" lon="-8.301121">
        <ele>105.013</ele>
        <time>2019-06-20T17:47:49Z</time>
      </trkpt>
      <trkpt lat="43.323027" lon="-8.301239">
        <ele>104.630</ele>
        <time>2019-06-20T17:47:50Z</time>
      </trkpt>
      <trkpt lat="43.323223" lon="-8.301351">
        <ele>103.521</ele>
        <time>2019-06-20T17:47:51Z</time>
      </trkpt>
      <trkpt lat="43.323419" lon="-8.301448">
        <ele>103.663</ele>
        <time>2019-06-20T17:47:52Z</time>
      </trkpt>
      <trkpt lat="43.323609" lon="-8.301539">
        <ele>105.140</ele>
        <time>2019-06-20T17:47:53Z</time>
      </trkpt>
      <trkpt lat="43.323787" lon="-8.301644">
        <ele>105.365</ele>
        <time>2019-06-20T17:47:54Z</time>
      </trkpt>
      <trkpt lat="43.323950" lon="-8.301757">
        <ele>106.368</ele>
        <time>2019-06-20T17:47:55Z</time>
      </trkpt>
      <trkpt lat="43.324110" lon="-8.301864">
        <ele>107.514</ele>
        <time>2019-06-20T17:47:56Z</time>
      </trkpt>
      <trkpt lat="43.324253" lon="-8.301984">
        <ele>106.808</ele>
        <time>2019-06-20T17:47:57Z</time>
      </trkpt>
      <trkpt lat="43.324397" lon="-8.302089">
        <ele>103.099</ele>
        <time>2019-06-20T17:47:58Z</time>
      </trkpt>
      <trkpt lat="43.324532" lon="-8.302193">
        <ele>101.053</ele>
        <time>2019-06-20T17:47:59Z</time>
      </trkpt>
      <trkpt lat="43.324662" lon="-8.302297">
        <ele>100.114</ele>
        <time>2019-06-20T17:48:00Z</time>
      </trkpt>
      <trkpt lat="43.324798" lon="-8.302412">
        <ele>101.690</ele>
        <time>2019-06-20T17:48:01Z</time>
      </trkpt>
      <trkpt lat="43.324940" lon="-8.302519">
        <ele>105.417</ele>
        <time>2019-06-20T17:48:02Z</time>
      </trkpt>
      <trkpt lat="43.325082" lon="-8.302628">
        <ele>111.318</ele>
        <time>2019-06-20T17:48:03Z</time>
      </trkpt>
      <trkpt lat="43.325234" lon="-8.302739">
        <ele>117.310</ele>
        <time>2019-06-20T17:48:04Z</time>
      </trkpt>
      <trkpt lat="43.325388" lon="-8.302854">
        <ele>122.497</ele>
        <time>2019-06-20T17:48:05Z</time>
      </trkpt>
      <trkpt lat="43.325553" lon="-8.302933">
        <ele>126.186</ele>
        <time>2019-06-20T17:48:06Z</time>
      </trkpt>
      <trkpt lat="43.325732" lon="-8.303010">
        <ele>127.560</ele>
        <time>2019-06-20T17:48:07Z</time>
      </trkpt>
      <trkpt lat="43.325903" lon="-8.303086">
        <ele>127.426</ele>
        <time>2019-06-20T17:48:08Z</time>
      </trkpt>
      <trkpt lat="43.326069" lon="-8.303148">
        <ele>126.008</ele>
        <time>2019-06-20T17:48:09Z</time>
      </trkpt>
      <trkpt lat="43.326240" lon="-8.303195">
        <ele>122.921</ele>
        <time>2019-06-20T17:48:10Z</time>
      </trkpt>
      <trkpt lat="43.326405" lon="-8.303227">
        <ele>119.995</ele>
        <time>2019-06-20T17:48:11Z</time>
      </trkpt>
      <trkpt lat="43.326586" lon="-8.303254">
        <ele>119.376</ele>
        <time>2019-06-20T17:48:12Z</time>
      </trkpt>
      <trkpt lat="43.326766" lon="-8.303274">
        <ele>119.672</ele>
        <time>2019-06-20T17:48:13Z</time>
      </trkpt>
      <trkpt lat="43.326949" lon="-8.303281">
        <ele>120.899</ele>
        <time>2019-06-20T17:48:14Z</time>
      </trkpt>
      <trkpt lat="43.327136" lon="-8.303280">
        <ele>120.460</ele>
        <time>2019-06-20T17:48:15Z</time>
      </trkpt>
      <trkpt lat="43.327318" lon="-8.303264">
        <ele>120.252</ele>
        <time>2019-06-20T17:48:16Z</time>
      </trkpt>
      <trkpt lat="43.327498" lon="-8.303238">
        <ele>120.389</ele>
        <time>2019-06-20T17:48:17Z</time>
      </trkpt>
      <trkpt lat="43.327675" lon="-8.303196">
        <ele>123.093</ele>
        <time>2019-06-20T17:48:18Z</time>
      </trkpt>
      <trkpt lat="43.327849" lon="-8.303147">
        <ele>125.765</ele>
        <time>2019-06-20T17:48:19Z</time>
      </trkpt>
      <trkpt lat="43.328009" lon="-8.303106">
        <ele>128.121</ele>
        <time>2019-06-20T17:48:20Z</time>
      </trkpt>
      <trkpt lat="43.328169" lon="-8.303006">
        <ele>129.108</ele>
        <time>2019-06-20T17:48:21Z</time>
      </trkpt>
      <trkpt lat="43.328341" lon="-8.302938">
        <ele>129.472</ele>
        <time>2019-06-20T17:48:22Z</time>
      </trkpt>
      <trkpt lat="43.328499" lon="-8.302860">
        <ele>129.496</ele>
        <time>2019-06-20T17:48:23Z</time>
      </trkpt>
      <trkpt lat="43.328654" lon="-8.302772">
        <ele>129.937</ele>
        <time>2019-06-20T17:48:24Z</time>
      </trkpt>
      <trkpt lat="43.328810" lon="-8.302687">
        <ele>129.823</ele>
        <time>2019-06-20T17:48:25Z</time>
      </trkpt>
      <trkpt lat="43.328964" lon="-8.302610">
        <ele>129.870</ele>
        <time>2019-06-20T17:48:26Z</time>
      </trkpt>
      <trkpt lat="43.329128" lon="-8.302539">
        <ele>129.731</ele>
        <time>2019-06-20T17:48:27Z</time>
      </trkpt>
      <trkpt lat="43.329284" lon="-8.302474">
        <ele>128.593</ele>
        <time>2019-06-20T17:48:28Z</time>
      </trkpt>
      <trkpt lat="43.329442" lon="-8.302419">
        <ele>126.960</ele>
        <time>2019-06-20T17:48:29Z</time>
      </trkpt>
      <trkpt lat="43.329602" lon="-8.302387">
        <ele>125.677</ele>
        <time>2019-06-20T17:48:30Z</time>
      </trkpt>
      <trkpt lat="43.329761" lon="-8.302363">
        <ele>125.261</ele>
        <time>2019-06-20T17:48:31Z</time>
      </trkpt>
      <trkpt lat="43.329932" lon="-8.302351">
        <ele>126.327</ele>
        <time>2019-06-20T17:48:32Z</time>
      </trkpt>
      <trkpt lat="43.330130" lon="-8.302363">
        <ele>126.908</ele>
        <time>2019-06-20T17:48:33Z</time>
      </trkpt>
      <trkpt lat="43.330323" lon="-8.302386">
        <ele>127.030</ele>
        <time>2019-06-20T17:48:34Z</time>
      </trkpt>
      <trkpt lat="43.330519" lon="-8.302423">
        <ele>126.194</ele>
        <time>2019-06-20T17:48:35Z</time>
      </trkpt>
      <trkpt lat="43.330722" lon="-8.302471">
        <ele>127.235</ele>
        <time>2019-06-20T17:48:36Z</time>
      </trkpt>
      <trkpt lat="43.330924" lon="-8.302533">
        <ele>129.821</ele>
        <time>2019-06-20T17:48:37Z</time>
      </trkpt>
      <trkpt lat="43.331126" lon="-8.302595">
        <ele>133.598</ele>
        <time>2019-06-20T17:48:38Z</time>
      </trkpt>
      <trkpt lat="43.331308" lon="-8.302648">
        <ele>135.739</ele>
        <time>2019-06-20T17:48:39Z</time>
      </trkpt>
      <trkpt lat="43.331507" lon="-8.302709">
        <ele>138.351</ele>
        <time>2019-06-20T17:48:40Z</time>
      </trkpt>
      <trkpt lat="43.331705" lon="-8.302762">
        <ele>141.428</ele>
        <time>2019-06-20T17:48:41Z</time>
      </trkpt>
      <trkpt lat="43.331890" lon="-8.302822">
        <ele>144.465</ele>
        <time>2019-06-20T17:48:42Z</time>
      </trkpt>
      <trkpt lat="43.332078" lon="-8.302878">
        <ele>146.868</ele>
        <time>2019-06-20T17:48:43Z</time>
      </trkpt>
      <trkpt lat="43.332260" lon="-8.302942">
        <ele>148.914</ele>
        <time>2019-06-20T17:48:44Z</time>
      </trkpt>
      <trkpt lat="43.332446" lon="-8.303003">
        <ele>150.608</ele>
        <time>2019-06-20T17:48:45Z</time>
      </trkpt>
      <trkpt lat="43.332637" lon="-8.303059">
        <ele>151.519</ele>
        <time>2019-06-20T17:48:46Z</time>
      </trkpt>
      <trkpt lat="43.332825" lon="-8.303117">
        <ele>152.313</ele>
        <time>2019-06-20T17:48:47Z</time>
      </trkpt>
      <trkpt lat="43.332999" lon="-8.303175">
        <ele>153.694</ele>
        <time>2019-06-20T17:48:48Z</time>
      </trkpt>
      <trkpt lat="43.333177" lon="-8.303233">
        <ele>154.440</ele>
        <time>2019-06-20T17:48:49Z</time>
      </trkpt>
      <trkpt lat="43.333367" lon="-8.303298">
        <ele>155.127</ele>
        <time>2019-06-20T17:48:50Z</time>
      </trkpt>
      <trkpt lat="43.333560" lon="-8.303356">
        <ele>155.728</ele>
        <time>2019-06-20T17:48:51Z</time>
      </trkpt>
      <trkpt lat="43.333746" lon="-8.303415">
        <ele>155.820</ele>
        <time>2019-06-20T17:48:52Z</time>
      </trkpt>
      <trkpt lat="43.333921" lon="-8.303463">
        <ele>156.027</ele>
        <time>2019-06-20T17:48:53Z</time>
      </trkpt>
      <trkpt lat="43.334093" lon="-8.303519">
        <ele>156.048</ele>
        <time>2019-06-20T17:48:54Z</time>
      </trkpt>
      <trkpt lat="43.334281" lon="-8.303570">
        <ele>156.461</ele>
        <time>2019-06-20T17:48:55Z</time>
      </trkpt>
      <trkpt lat="43.334468" lon="-8.303622">
        <ele>157.317</ele>
        <time>2019-06-20T17:48:56Z</time>
      </trkpt>
      <trkpt lat="43.334612" lon="-8.303656">
        <ele>158.808</ele>
        <time>2019-06-20T17:48:57Z</time>
      </trkpt>
      <trkpt lat="43.334791" lon="-8.303723">
        <ele>160.567</ele>
        <time>2019-06-20T17:48:58Z</time>
      </trkpt>
      <trkpt lat="43.334967" lon="-8.303780">
        <ele>161.631</ele>
        <time>2019-06-20T17:48:59Z</time>
      </trkpt>
      <trkpt lat="43.335133" lon="-8.303836">
        <ele>161.962</ele>
        <time>2019-06-20T17:49:00Z</time>
      </trkpt>
      <trkpt lat="43.335307" lon="-8.303856">
        <ele>162.248</ele>
        <time>2019-06-20T17:49:01Z</time>
      </trkpt>
      <trkpt lat="43.335487" lon="-8.303875">
        <ele>162.175</ele>
        <time>2019-06-20T17:49:02Z</time>
      </trkpt>
      <trkpt lat="43.335666" lon="-8.303866">
        <ele>161.726</ele>
        <time>2019-06-20T17:49:03Z</time>
      </trkpt>
      <trkpt lat="43.335844" lon="-8.303837">
        <ele>161.058</ele>
        <time>2019-06-20T17:49:04Z</time>
      </trkpt>
      <trkpt lat="43.336025" lon="-8.303790">
        <ele>160.365</ele>
        <time>2019-06-20T17:49:05Z</time>
      </trkpt>
      <trkpt lat="43.336200" lon="-8.303732">
        <ele>160.187</ele>
        <time>2019-06-20T17:49:06Z</time>
      </trkpt>
      <trkpt lat="43.336376" lon="-8.303629">
        <ele>160.142</ele>
        <time>2019-06-20T17:49:07Z</time>
      </trkpt>
      <trkpt lat="43.336527" lon="-8.303527">
        <ele>161.326</ele>
        <time>2019-06-20T17:49:08Z</time>
      </trkpt>
      <trkpt lat="43.336681" lon="-8.303401">
        <ele>162.808</ele>
        <time>2019-06-20T17:49:09Z</time>
      </trkpt>
      <trkpt lat="43.336826" lon="-8.303253">
        <ele>163.261</ele>
        <time>2019-06-20T17:49:10Z</time>
      </trkpt>
      <trkpt lat="43.336945" lon="-8.303090">
        <ele>163.955</ele>
        <time>2019-06-20T17:49:11Z</time>
      </trkpt>
      <trkpt lat="43.337080" lon="-8.302918">
        <ele>166.446</ele>
        <time>2019-06-20T17:49:12Z</time>
      </trkpt>
      <trkpt lat="43.337210" lon="-8.302732">
        <ele>168.922</ele>
        <time>2019-06-20T17:49:13Z</time>
      </trkpt>
      <trkpt lat="43.337337" lon="-8.302549">
        <ele>171.929</ele>
        <time>2019-06-20T17:49:14Z</time>
      </trkpt>
      <trkpt lat="43.337465" lon="-8.302372">
        <ele>174.450</ele>
        <time>2019-06-20T17:49:15Z</time>
      </trkpt>
      <trkpt lat="43.337601" lon="-8.302199">
        <ele>175.672</ele>
        <time>2019-06-20T17:49:16Z</time>
      </trkpt>
      <trkpt lat="43.337746" lon="-8.302037">
        <ele>176.199</ele>
        <time>2019-06-20T17:49:17Z</time>
      </trkpt>
      <trkpt lat="43.337898" lon="-8.301878">
        <ele>176.412</ele>
        <time>2019-06-20T17:49:18Z</time>
      </trkpt>
      <trkpt lat="43.338055" lon="-8.301732">
        <ele>177.232</ele>
        <time>2019-06-20T17:49:19Z</time>
      </trkpt>
      <trkpt lat="43.338221" lon="-8.301596">
        <ele>176.805</ele>
        <time>2019-06-20T17:49:20Z</time>
      </trkpt>
      <trkpt lat="43.338394" lon="-8.301472">
        <ele>177.608</ele>
        <time>2019-06-20T17:49:21Z</time>
      </trkpt>
      <trkpt lat="43.338574" lon="-8.301359">
        <ele>180.084</ele>
        <time>2019-06-20T17:49:22Z</time>
      </trkpt>
      <trkpt lat="43.338762" lon="-8.301258">
        <ele>181.218</ele>
        <time>2019-06-20T17:49:23Z</time>
      </trkpt>
      <trkpt lat="43.338948" lon="-8.301179">
        <ele>180.279</ele>
        <time>2019-06-20T17:49:24Z</time>
      </trkpt>
      <trkpt lat="43.339127" lon="-8.301121">
        <ele>175.975</ele>
        <time>2019-06-20T17:49:25Z</time>
      </trkpt>
      <trkpt lat="43.339318" lon="-8.301076">
        <ele>172.882</ele>
        <time>2019-06-20T17:49:26Z</time>
      </trkpt>
      <trkpt lat="43.339511" lon="-8.301047">
        <ele>171.353</ele>
        <time>2019-06-20T17:49:27Z</time>
      </trkpt>
      <trkpt lat="43.339699" lon="-8.301031">
        <ele>171.875</ele>
        <time>2019-06-20T17:49:28Z</time>
      </trkpt>
      <trkpt lat="43.339876" lon="-8.301023">
        <ele>172.592</ele>
        <time>2019-06-20T17:49:29Z</time>
      </trkpt>
      <trkpt lat="43.340046" lon="-8.301022">
        <ele>173.539</ele>
        <time>2019-06-20T17:49:30Z</time>
      </trkpt>
      <trkpt lat="43.340207" lon="-8.301031">
        <ele>175.201</ele>
        <time>2019-06-20T17:49:31Z</time>
      </trkpt>
      <trkpt lat="43.340358" lon="-8.301049">
        <ele>176.321</ele>
        <time>2019-06-20T17:49:32Z</time>
      </trkpt>
      <trkpt lat="43.340505" lon="-8.301062">
        <ele>177.008</ele>
        <time>2019-06-20T17:49:33Z</time>
      </trkpt>
      <trkpt lat="43.340642" lon="-8.301081">
        <ele>178.496</ele>
        <time>2019-06-20T17:49:34Z</time>
      </trkpt>
      <trkpt lat="43.340769" lon="-8.301097">
        <ele>180.010</ele>
        <time>2019-06-20T17:49:35Z</time>
      </trkpt>
      <trkpt lat="43.340899" lon="-8.301111">
        <ele>181.711</ele>
        <time>2019-06-20T17:49:36Z</time>
      </trkpt>
      <trkpt lat="43.341031" lon="-8.301126">
        <ele>183.217</ele>
        <time>2019-06-20T17:49:37Z</time>
      </trkpt>
      <trkpt lat="43.341161" lon="-8.301147">
        <ele>184.794</ele>
        <time>2019-06-20T17:49:38Z</time>
      </trkpt>
      <trkpt lat="43.341292" lon="-8.301170">
        <ele>186.535</ele>
        <time>2019-06-20T17:49:39Z</time>
      </trkpt>
      <trkpt lat="43.341425" lon="-8.301184">
        <ele>187.747</ele>
        <time>2019-06-20T17:49:40Z</time>
      </trkpt>
      <trkpt lat="43.341549" lon="-8.301167">
        <ele>187.894</ele>
        <time>2019-06-20T17:49:41Z</time>
      </trkpt>
      <trkpt lat="43.341679" lon="-8.301148">
        <ele>187.717</ele>
        <time>2019-06-20T17:49:42Z</time>
      </trkpt>
      <trkpt lat="43.341798" lon="-8.301101">
        <ele>186.187</ele>
        <time>2019-06-20T17:49:43Z</time>
      </trkpt>
      <trkpt lat="43.341918" lon="-8.301039">
        <ele>184.415</ele>
        <time>2019-06-20T17:49:44Z</time>
      </trkpt>
      <trkpt lat="43.342006" lon="-8.300952">
        <ele>183.208</ele>
        <time>2019-06-20T17:49:45Z</time>
      </trkpt>
      <trkpt lat="43.342080" lon="-8.300880">
        <ele>182.524</ele>
        <time>2019-06-20T17:49:46Z</time>
      </trkpt>
      <trkpt lat="43.342128" lon="-8.300810">
        <ele>181.728</ele>
        <time>2019-06-20T17:49:47Z</time>
      </trkpt>
      <trkpt lat="43.342164" lon="-8.300727">
        <ele>180.079</ele>
        <time>2019-06-20T17:49:48Z</time>
      </trkpt>
      <trkpt lat="43.342198" lon="-8.300634">
        <ele>178.335</ele>
        <time>2019-06-20T17:49:49Z</time>
      </trkpt>
      <trkpt lat="43.342206" lon="-8.300488">
        <ele>175.772</ele>
        <time>2019-06-20T17:49:50Z</time>
      </trkpt>
      <trkpt lat="43.342186" lon="-8.300365">
        <ele>173.153</ele>
        <time>2019-06-20T17:49:51Z</time>
      </trkpt>
      <trkpt lat="43.342155" lon="-8.300248">
        <ele>171.145</ele>
        <time>2019-06-20T17:49:52Z</time>
      </trkpt>
      <trkpt lat="43.342108" lon="-8.300117">
        <ele>169.592</ele>
        <time>2019-06-20T17:49:53Z</time>
      </trkpt>
      <trkpt lat="43.342062" lon="-8.299972">
        <ele>167.914</ele>
        <time>2019-06-20T17:49:54Z</time>
      </trkpt>
      <trkpt lat="43.342027" lon="-8.299810">
        <ele>166.654</ele>
        <time>2019-06-20T17:49:55Z</time>
      </trkpt>
      <trkpt lat="43.341988" lon="-8.299651">
        <ele>165.609</ele>
        <time>2019-06-20T17:49:56Z</time>
      </trkpt>
      <trkpt lat="43.341947" lon="-8.299509">
        <ele>165.208</ele>
        <time>2019-06-20T17:49:57Z</time>
      </trkpt>
      <trkpt lat="43.341903" lon="-8.299374">
        <ele>165.444</ele>
        <time>2019-06-20T17:49:58Z</time>
      </trkpt>
      <trkpt lat="43.341861" lon="-8.299235">
        <ele>165.798</ele>
        <time>2019-06-20T17:49:59Z</time>
      </trkpt>
      <trkpt lat="43.341787" lon="-8.299121">
        <ele>166.499</ele>
        <time>2019-06-20T17:50:00Z</time>
      </trkpt>
      <trkpt lat="43.341703" lon="-8.299021">
        <ele>167.415</ele>
        <time>2019-06-20T17:50:01Z</time>
      </trkpt>
      <trkpt lat="43.341600" lon="-8.298938">
        <ele>167.772</ele>
        <time>2019-06-20T17:50:02Z</time>
      </trkpt>
      <trkpt lat="43.341498" lon="-8.298820">
        <ele>167.663</ele>
        <time>2019-06-20T17:50:03Z</time>
      </trkpt>
      <trkpt lat="43.341393" lon="-8.298722">
        <ele>167.655</ele>
        <time>2019-06-20T17:50:04Z</time>
      </trkpt>
      <trkpt lat="43.341292" lon="-8.298631">
        <ele>167.392</ele>
        <time>2019-06-20T17:50:05Z</time>
      </trkpt>
      <trkpt lat="43.341193" lon="-8.298529">
        <ele>167.386</ele>
        <time>2019-06-20T17:50:06Z</time>
      </trkpt>
      <trkpt lat="43.341075" lon="-8.298429">
        <ele>167.760</ele>
        <time>2019-06-20T17:50:07Z</time>
      </trkpt>
      <trkpt lat="43.340986" lon="-8.298332">
        <ele>167.726</ele>
        <time>2019-06-20T17:50:08Z</time>
      </trkpt>
      <trkpt lat="43.340906" lon="-8.298231">
        <ele>166.908</ele>
        <time>2019-06-20T17:50:09Z</time>
      </trkpt>
      <trkpt lat="43.340838" lon="-8.298129">
        <ele>166.121</ele>
        <time>2019-06-20T17:50:10Z</time>
      </trkpt>
      <trkpt lat="43.340770" lon="-8.298029">
        <ele>164.735</ele>
        <time>2019-06-20T17:50:11Z</time>
      </trkpt>
      <trkpt lat="43.340702" lon="-8.297937">
        <ele>162.866</ele>
        <time>2019-06-20T17:50:12Z</time>
      </trkpt>
      <trkpt lat="43.340636" lon="-8.297849">
        <ele>161.052</ele>
        <time>2019-06-20T17:50:13Z</time>
      </trkpt>
      <trkpt lat="43.340566" lon="-8.297776">
        <ele>159.299</ele>
        <time>2019-06-20T17:50:14Z</time>
      </trkpt>
      <trkpt lat="43.340483" lon="-8.297716">
        <ele>157.040</ele>
        <time>2019-06-20T17:50:15Z</time>
      </trkpt>
      <trkpt lat="43.340397" lon="-8.297666">
        <ele>154.962</ele>
        <time>2019-06-20T17:50:16Z</time>
      </trkpt>
      <trkpt lat="43.340271" lon="-8.297647">
        <ele>152.569</ele>
        <time>2019-06-20T17:50:17Z</time>
      </trkpt>
      <trkpt lat="43.340164" lon="-8.297613">
        <ele>150.759</ele>
        <time>2019-06-20T17:50:18Z</time>
      </trkpt>
      <trkpt lat="43.340039" lon="-8.297584">
        <ele>148.803</ele>
        <time>2019-06-20T17:50:19Z</time>
      </trkpt>
      <trkpt lat="43.339919" lon="-8.297529">
        <ele>147.523</ele>
        <time>2019-06-20T17:50:20Z</time>
      </trkpt>
      <trkpt lat="43.339790" lon="-8.297463">
        <ele>146.308</ele>
        <time>2019-06-20T17:50:21Z</time>
      </trkpt>
      <trkpt lat="43.339660" lon="-8.297406">
        <ele>145.688</ele>
        <time>2019-06-20T17:50:22Z</time>
      </trkpt>
      <trkpt lat="43.339518" lon="-8.297368">
        <ele>145.262</ele>
        <time>2019-06-20T17:50:23Z</time>
      </trkpt>
      <trkpt lat="43.339385" lon="-8.297338">
        <ele>144.453</ele>
        <time>2019-06-20T17:50:24Z</time>
      </trkpt>
      <trkpt lat="43.339251" lon="-8.297332">
        <ele>143.489</ele>
        <time>2019-06-20T17:50:25Z</time>
      </trkpt>
      <trkpt lat="43.339118" lon="-8.297351">
        <ele>142.786</ele>
        <time>2019-06-20T17:50:26Z</time>
      </trkpt>
      <trkpt lat="43.338987" lon="-8.297397">
        <ele>142.297</ele>
        <time>2019-06-20T17:50:27Z</time>
      </trkpt>
      <trkpt lat="43.338861" lon="-8.297465">
        <ele>141.999</ele>
        <time>2019-06-20T17:50:28Z</time>
      </trkpt>
      <trkpt lat="43.338739" lon="-8.297549">
        <ele>142.336</ele>
        <time>2019-06-20T17:50:29Z</time>
      </trkpt>
      <trkpt lat="43.338631" lon="-8.297652">
        <ele>142.623</ele>
        <time>2019-06-20T17:50:30Z</time>
      </trkpt>
      <trkpt lat="43.338535" lon="-8.297786">
        <ele>142.283</ele>
        <time>2019-06-20T17:50:31Z</time>
      </trkpt>
      <trkpt lat="43.338441" lon="-8.297933">
        <ele>141.511</ele>
        <time>2019-06-20T17:50:32Z</time>
      </trkpt>
      <trkpt lat="43.338336" lon="-8.298075">
        <ele>141.208</ele>
        <time>2019-06-20T17:50:33Z</time>
      </trkpt>
      <trkpt lat="43.338228" lon="-8.298205">
        <ele>141.385</ele>
        <time>2019-06-20T17:50:34Z</time>
      </trkpt>
      <trkpt lat="43.338117" lon="-8.298316">
        <ele>141.369</ele>
        <time>2019-06-20T17:50:35Z</time>
      </trkpt>
      <trkpt lat="43.338010" lon="-8.298402">
        <ele>142.020</ele>
        <time>2019-06-20T17:50:36Z</time>
      </trkpt>
      <trkpt lat="43.337908" lon="-8.298470">
        <ele>143.356</ele>
        <time>2019-06-20T17:50:37Z</time>
      </trkpt>
      <trkpt lat="43.337809" lon="-8.298530">
        <ele>144.373</ele>
        <time>2019-06-20T17:50:38Z</time>
      </trkpt>
      <trkpt lat="43.337714" lon="-8.298589">
        <ele>144.834</ele>
        <time>2019-06-20T17:50:39Z</time>
      </trkpt>
      <trkpt lat="43.337627" lon="-8.298666">
        <ele>145.386</ele>
        <time>2019-06-20T17:50:40Z</time>
      </trkpt>
      <trkpt lat="43.337537" lon="-8.298764">
        <ele>145.683</ele>
        <time>2019-06-20T17:50:41Z</time>
      </trkpt>
      <trkpt lat="43.337448" lon="-8.298886">
        <ele>145.237</ele>
        <time>2019-06-20T17:50:42Z</time>
      </trkpt>
      <trkpt lat="43.337339" lon="-8.299011">
        <ele>144.649</ele>
        <time>2019-06-20T17:50:43Z</time>
      </trkpt>
      <trkpt lat="43.337217" lon="-8.299116">
        <ele>144.413</ele>
        <time>2019-06-20T17:50:44Z</time>
      </trkpt>
      <trkpt lat="43.337102" lon="-8.299217">
        <ele>145.108</ele>
        <time>2019-06-20T17:50:45Z</time>
      </trkpt>
      <trkpt lat="43.336986" lon="-8.299329">
        <ele>145.996</ele>
        <time>2019-06-20T17:50:46Z</time>
      </trkpt>
      <trkpt lat="43.336868" lon="-8.299449">
        <ele>146.550</ele>
        <time>2019-06-20T17:50:47Z</time>
      </trkpt>
      <trkpt lat="43.336766" lon="-8.299591">
        <ele>146.641</ele>
        <time>2019-06-20T17:50:48Z</time>
      </trkpt>
      <trkpt lat="43.336668" lon="-8.299744">
        <ele>147.287</ele>
        <time>2019-06-20T17:50:49Z</time>
      </trkpt>
      <trkpt lat="43.336602" lon="-8.299916">
        <ele>148.064</ele>
        <time>2019-06-20T17:50:50Z</time>
      </trkpt>
      <trkpt lat="43.336521" lon="-8.300068">
        <ele>148.235</ele>
        <time>2019-06-20T17:50:51Z</time>
      </trkpt>
      <trkpt lat="43.336436" lon="-8.300206">
        <ele>148.117</ele>
        <time>2019-06-20T17:50:52Z</time>
      </trkpt>
      <trkpt lat="43.336333" lon="-8.300300">
        <ele>148.184</ele>
        <time>2019-06-20T17:50:53Z</time>
      </trkpt>
      <trkpt lat="43.336218" lon="-8.300362">
        <ele>148.416</ele>
        <time>2019-06-20T17:50:54Z</time>
      </trkpt>
      <trkpt lat="43.336104" lon="-8.300385">
        <ele>148.576</ele>
        <time>2019-06-20T17:50:55Z</time>
      </trkpt>
      <trkpt lat="43.335978" lon="-8.300407">
        <ele>149.713</ele>
        <time>2019-06-20T17:50:56Z</time>
      </trkpt>
      <trkpt lat="43.335854" lon="-8.300442">
        <ele>150.808</ele>
        <time>2019-06-20T17:50:57Z</time>
      </trkpt>
      <trkpt lat="43.335745" lon="-8.300502">
        <ele>151.784</ele>
        <time>2019-06-20T17:50:58Z</time>
      </trkpt>
      <trkpt lat="43.335670" lon="-8.300588">
        <ele>152.388</ele>
        <time>2019-06-20T17:50:59Z</time>
      </trkpt>
      <trkpt lat="43.335614" lon="-8.300695">
        <ele>153.159</ele>
        <time>2019-06-20T17:51:00Z</time>
      </trkpt>
      <trkpt lat="43.335563" lon="-8.300832">
        <ele>153.955</ele>
        <time>2019-06-20T17:51:01Z</time>
      </trkpt>
      <trkpt lat="43.335517" lon="-8.300966">
        <ele>154.842</ele>
        <time>2019-06-20T17:51:02Z</time>
      </trkpt>
      <trkpt lat="43.335459" lon="-8.301132">
        <ele>155.743</ele>
        <time>2019-06-20T17:51:03Z</time>
      </trkpt>
      <trkpt lat="43.335394" lon="-8.301304">
        <ele>156.535</ele>
        <time>2019-06-20T17:51:04Z</time>
      </trkpt>
      <trkpt lat="43.335336" lon="-8.301486">
        <ele>156.812</ele>
        <time>2019-06-20T17:51:05Z</time>
      </trkpt>
      <trkpt lat="43.335275" lon="-8.301672">
        <ele>157.081</ele>
        <time>2019-06-20T17:51:06Z</time>
      </trkpt>
      <trkpt lat="43.335204" lon="-8.301888">
        <ele>157.361</ele>
        <time>2019-06-20T17:51:07Z</time>
      </trkpt>
      <trkpt lat="43.335128" lon="-8.302102">
        <ele>158.117</ele>
        <time>2019-06-20T17:51:08Z</time>
      </trkpt>
      <trkpt lat="43.335056" lon="-8.302323">
        <ele>158.908</ele>
        <time>2019-06-20T17:51:09Z</time>
      </trkpt>
      <trkpt lat="43.334995" lon="-8.302536">
        <ele>159.171</ele>
        <time>2019-06-20T17:51:10Z</time>
      </trkpt>
      <trkpt lat="43.334935" lon="-8.302735">
        <ele>159.415</ele>
        <time>2019-06-20T17:51:11Z</time>
      </trkpt>
      <trkpt lat="43.334875" lon="-8.302947">
        <ele>160.366</ele>
        <time>2019-06-20T17:51:12Z</time>
      </trkpt>
      <trkpt lat="43.334813" lon="-8.303128">
        <ele>160.952</ele>
        <time>2019-06-20T17:51:13Z</time>
      </trkpt>
      <trkpt lat="43.334764" lon="-8.303322">
        <ele>161.329</ele>
        <time>2019-06-20T17:51:14Z</time>
      </trkpt>
      <trkpt lat="43.334724" lon="-8.303505">
        <ele>160.430</ele>
        <time>2019-06-20T17:51:15Z</time>
      </trkpt>
      <trkpt lat="43.334681" lon="-8.303687">
        <ele>159.672</ele>
        <time>2019-06-20T17:51:16Z</time>
      </trkpt>
      <trkpt lat="43.334629" lon="-8.303864">
        <ele>159.019</ele>
        <time>2019-06-20T17:51:17Z</time>
      </trkpt>
      <trkpt lat="43.334565" lon="-8.304028">
        <ele>157.751</ele>
        <time>2019-06-20T17:51:18Z</time>
      </trkpt>
      <trkpt lat="43.334483" lon="-8.304186">
        <ele>156.901</ele>
        <time>2019-06-20T17:51:19Z</time>
      </trkpt>
      <trkpt lat="43.334394" lon="-8.304333">
        <ele>156.111</ele>
        <time>2019-06-20T17:51:20Z</time>
      </trkpt>
      <trkpt lat="43.334290" lon="-8.304468">
        <ele>154.708</ele>
        <time>2019-06-20T17:51:21Z</time>
      </trkpt>
      <trkpt lat="43.334180" lon="-8.304597">
        <ele>153.578</ele>
        <time>2019-06-20T17:51:22Z</time>
      </trkpt>
      <trkpt lat="43.334067" lon="-8.304722">
        <ele>153.032</ele>
        <time>2019-06-20T17:51:23Z</time>
      </trkpt>
      <trkpt lat="43.333951" lon="-8.304859">
        <ele>152.583</ele>
        <time>2019-06-20T17:51:24Z</time>
      </trkpt>
      <trkpt lat="43.333847" lon="-8.305003">
        <ele>152.029</ele>
        <time>2019-06-20T17:51:25Z</time>
      </trkpt>
      <trkpt lat="43.333756" lon="-8.305155">
        <ele>151.766</ele>
        <time>2019-06-20T17:51:26Z</time>
      </trkpt>
      <trkpt lat="43.333671" lon="-8.305332">
        <ele>151.437</ele>
        <time>2019-06-20T17:51:27Z</time>
      </trkpt>
      <trkpt lat="43.333598" lon="-8.305511">
        <ele>151.869</ele>
        <time>2019-06-20T17:51:28Z</time>
      </trkpt>
      <trkpt lat="43.333540" lon="-8.305704">
        <ele>151.766</ele>
        <time>2019-06-20T17:51:29Z</time>
      </trkpt>
      <trkpt lat="43.333468" lon="-8.305904">
        <ele>151.545</ele>
        <time>2019-06-20T17:51:30Z</time>
      </trkpt>
      <trkpt lat="43.333401" lon="-8.306078">
        <ele>151.247</ele>
        <time>2019-06-20T17:51:31Z</time>
      </trkpt>
      <trkpt lat="43.333331" lon="-8.306252">
        <ele>150.511</ele>
        <time>2019-06-20T17:51:32Z</time>
      </trkpt>
      <trkpt lat="43.333269" lon="-8.306408">
        <ele>149.308</ele>
        <time>2019-06-20T17:51:33Z</time>
      </trkpt>
      <trkpt lat="43.333213" lon="-8.306555">
        <ele>147.367</ele>
        <time>2019-06-20T17:51:34Z</time>
      </trkpt>
      <trkpt lat="43.333167" lon="-8.306687">
        <ele>145.691</ele>
        <time>2019-06-20T17:51:35Z</time>
      </trkpt>
      <trkpt lat="43.333121" lon="-8.306807">
        <ele>144.342</ele>
        <time>2019-06-20T17:51:36Z</time>
      </trkpt>
      <trkpt lat="43.333075" lon="-8.306926">
        <ele>143.258</ele>
        <time>2019-06-20T17:51:37Z</time>
      </trkpt>
      <trkpt lat="43.333040" lon="-8.307044">
        <ele>142.645</ele>
        <time>2019-06-20T17:51:38Z</time>
      </trkpt>
      <trkpt lat="43.333014" lon="-8.307149">
        <ele>142.336</ele>
        <time>2019-06-20T17:51:39Z</time>
      </trkpt>
      <trkpt lat="43.332998" lon="-8.307252">
        <ele>142.038</ele>
        <time>2019-06-20T17:51:40Z</time>
      </trkpt>
      <trkpt lat="43.332982" lon="-8.307345">
        <ele>141.925</ele>
        <time>2019-06-20T17:51:41Z</time>
      </trkpt>
      <trkpt lat="43.332973" lon="-8.307433">
        <ele>141.836</ele>
        <time>2019-06-20T17:51:42Z</time>
      </trkpt>
      <trkpt lat="43.332969" lon="-8.307530">
        <ele>141.417</ele>
        <time>2019-06-20T17:51:43Z</time>
      </trkpt>
      <trkpt lat="43.332969" lon="-8.307638">
        <ele>140.418</ele>
        <time>2019-06-20T17:51:44Z</time>
      </trkpt>
      <trkpt lat="43.332982" lon="-8.307749">
        <ele>139.308</ele>
        <time>2019-06-20T17:51:45Z</time>
      </trkpt>
      <trkpt lat="43.333001" lon="-8.307866">
        <ele>137.976</ele>
        <time>2019-06-20T17:51:46Z</time>
      </trkpt>
      <trkpt lat="43.333021" lon="-8.308017">
        <ele>135.890</ele>
        <time>2019-06-20T17:51:47Z</time>
      </trkpt>
      <trkpt lat="43.333038" lon="-8.308153">
        <ele>134.451</ele>
        <time>2019-06-20T17:51:48Z</time>
      </trkpt>
      <trkpt lat="43.333052" lon="-8.308298">
        <ele>133.347</ele>
        <time>2019-06-20T17:51:49Z</time>
      </trkpt>
      <trkpt lat="43.333052" lon="-8.308456">
        <ele>133.074</ele>
        <time>2019-06-20T17:51:50Z</time>
      </trkpt>
      <trkpt lat="43.333050" lon="-8.308625">
        <ele>133.035</ele>
        <time>2019-06-20T17:51:51Z</time>
      </trkpt>
      <trkpt lat="43.333048" lon="-8.308793">
        <ele>132.447</ele>
        <time>2019-06-20T17:51:52Z</time>
      </trkpt>
      <trkpt lat="43.333043" lon="-8.308961">
        <ele>131.874</ele>
        <time>2019-06-20T17:51:53Z</time>
      </trkpt>
      <trkpt lat="43.333033" lon="-8.309122">
        <ele>131.378</ele>
        <time>2019-06-20T17:51:54Z</time>
      </trkpt>
      <trkpt lat="43.333022" lon="-8.309279">
        <ele>131.233</ele>
        <time>2019-06-20T17:51:55Z</time>
      </trkpt>
      <trkpt lat="43.333013" lon="-8.309433">
        <ele>131.326</ele>
        <time>2019-06-20T17:51:56Z</time>
      </trkpt>
      <trkpt lat="43.333005" lon="-8.309578">
        <ele>131.808</ele>
        <time>2019-06-20T17:51:57Z</time>
      </trkpt>
      <trkpt lat="43.332995" lon="-8.309717">
        <ele>132.280</ele>
        <time>2019-06-20T17:51:58Z</time>
      </trkpt>
      <trkpt lat="43.332989" lon="-8.309851">
        <ele>132.194</ele>
        <time>2019-06-20T17:51:59Z</time>
      </trkpt>
      <trkpt lat="43.332988" lon="-8.309983">
        <ele>132.065</ele>
        <time>2019-06-20T17:52:00Z</time>
      </trkpt>
      <trkpt lat="43.332982" lon="-8.310107">
        <ele>131.231</ele>
        <time>2019-06-20T17:52:01Z</time>
      </trkpt>
      <trkpt lat="43.332982" lon="-8.310219">
        <ele>130.448</ele>
        <time>2019-06-20T17:52:02Z</time>
      </trkpt>
      <trkpt lat="43.332978" lon="-8.310331">
        <ele>129.729</ele>
        <time>2019-06-20T17:52:03Z</time>
      </trkpt>
      <trkpt lat="43.332974" lon="-8.310443">
        <ele>129.071</ele>
        <time>2019-06-20T17:52:04Z</time>
      </trkpt>
      <trkpt lat="43.332968" lon="-8.310545">
        <ele>128.498</ele>
        <time>2019-06-20T17:52:05Z</time>
      </trkpt>
      <trkpt lat="43.332962" lon="-8.310638">
        <ele>128.367</ele>
        <time>2019-06-20T17:52:06Z</time>
      </trkpt>
      <trkpt lat="43.332957" lon="-8.310721">
        <ele>128.481</ele>
        <time>2019-06-20T17:52:07Z</time>
      </trkpt>
      <trkpt lat="43.332929" lon="-8.310803">
        <ele>128.519</ele>
        <time>2019-06-20T17:52:17Z</time>
      </trkpt>
      <trkpt lat="43.332928" lon="-8.310928">
        <ele>128.808</ele>
        <time>2019-06-20T17:52:30Z</time>
      </trkpt>
      <trkpt lat="43.332933" lon="-8.311005">
        <ele>129.159</ele>
        <time>2019-06-20T17:52:31Z</time>
      </trkpt>
      <trkpt lat="43.332949" lon="-8.311076">
        <ele>129.383</ele>
        <time>2019-06-20T17:52:32Z</time>
      </trkpt>
      <trkpt lat="43.332989" lon="-8.311153">
        <ele>129.474</ele>
        <time>2019-06-20T17:52:33Z</time>
      </trkpt>
      <trkpt lat="43.333063" lon="-8.311255">
        <ele>129.550</ele>
        <time>2019-06-20T17:52:34Z</time>
      </trkpt>
      <trkpt lat="43.333119" lon="-8.311340">
        <ele>129.637</ele>
        <time>2019-06-20T17:52:35Z</time>
      </trkpt>
      <trkpt lat="43.333174" lon="-8.311434">
        <ele>129.668</ele>
        <time>2019-06-20T17:52:36Z</time>
      </trkpt>
      <trkpt lat="43.333236" lon="-8.311529">
        <ele>129.380</ele>
        <time>2019-06-20T17:52:37Z</time>
      </trkpt>
      <trkpt lat="43.333316" lon="-8.311621">
        <ele>129.197</ele>
        <time>2019-06-20T17:52:38Z</time>
      </trkpt>
      <trkpt lat="43.333391" lon="-8.311709">
        <ele>128.591</ele>
        <time>2019-06-20T17:52:39Z</time>
      </trkpt>
      <trkpt lat="43.333467" lon="-8.311768">
        <ele>128.081</ele>
        <time>2019-06-20T17:52:40Z</time>
      </trkpt>
      <trkpt lat="43.333551" lon="-8.311817">
        <ele>127.619</ele>
        <time>2019-06-20T17:52:41Z</time>
      </trkpt>
      <trkpt lat="43.333636" lon="-8.311871">
        <ele>127.108</ele>
        <time>2019-06-20T17:52:42Z</time>
      </trkpt>
      <trkpt lat="43.333702" lon="-8.311907">
        <ele>126.532</ele>
        <time>2019-06-20T17:52:43Z</time>
      </trkpt>
      <trkpt lat="43.333780" lon="-8.311953">
        <ele>125.786</ele>
        <time>2019-06-20T17:52:44Z</time>
      </trkpt>
      <trkpt lat="43.333860" lon="-8.312018">
        <ele>124.737</ele>
        <time>2019-06-20T17:52:45Z</time>
      </trkpt>
      <trkpt lat="43.333916" lon="-8.312162">
        <ele>123.113</ele>
        <time>2019-06-20T17:52:46Z</time>
      </trkpt>
      <trkpt lat="43.333915" lon="-8.312331">
        <ele>122.360</ele>
        <time>2019-06-20T17:52:47Z</time>
      </trkpt>
      <trkpt lat="43.333958" lon="-8.312494">
        <ele>121.371</ele>
        <time>2019-06-20T17:52:48Z</time>
      </trkpt>
      <trkpt lat="43.334003" lon="-8.312661">
        <ele>120.873</ele>
        <time>2019-06-20T17:52:49Z</time>
      </trkpt>
      <trkpt lat="43.334049" lon="-8.312816">
        <ele>120.380</ele>
        <time>2019-06-20T17:52:50Z</time>
      </trkpt>
      <trkpt lat="43.334083" lon="-8.312960">
        <ele>119.933</ele>
        <time>2019-06-20T17:52:51Z</time>
      </trkpt>
      <trkpt lat="43.334122" lon="-8.313104">
        <ele>119.523</ele>
        <time>2019-06-20T17:52:52Z</time>
      </trkpt>
      <trkpt lat="43.334152" lon="-8.313236">
        <ele>119.115</ele>
        <time>2019-06-20T17:52:53Z</time>
      </trkpt>
      <trkpt lat="43.334186" lon="-8.313360">
        <ele>118.608</ele>
        <time>2019-06-20T17:52:54Z</time>
      </trkpt>
      <trkpt lat="43.334220" lon="-8.313478">
        <ele>117.626</ele>
        <time>2019-06-20T17:52:55Z</time>
      </trkpt>
      <trkpt lat="43.334243" lon="-8.313578">
        <ele>116.890</ele>
        <time>2019-06-20T17:52:56Z</time>
      </trkpt>
      <trkpt lat="43.334253" lon="-8.313661">
        <ele>116.581</ele>
        <time>2019-06-20T17:52:57Z</time>
      </trkpt>
      <trkpt lat="43.334265" lon="-8.313732">
        <ele>116.417</ele>
        <time>2019-06-20T17:52:58Z</time>
      </trkpt>
      <trkpt lat="43.334277" lon="-8.313794">
        <ele>116.184</ele>
        <time>2019-06-20T17:52:59Z</time>
      </trkpt>
      <trkpt lat="43.334294" lon="-8.313882">
        <ele>115.885</ele>
        <time>2019-06-20T17:53:01Z</time>
      </trkpt>
      <trkpt lat="43.334301" lon="-8.313971">
        <ele>115.747</ele>
        <time>2019-06-20T17:53:03Z</time>
      </trkpt>
      <trkpt lat="43.334298" lon="-8.314051">
        <ele>115.974</ele>
        <time>2019-06-20T17:53:04Z</time>
      </trkpt>
      <trkpt lat="43.334284" lon="-8.314147">
        <ele>116.343</ele>
        <time>2019-06-20T17:53:05Z</time>
      </trkpt>
      <trkpt lat="43.334274" lon="-8.314260">
        <ele>116.564</ele>
        <time>2019-06-20T17:53:06Z</time>
      </trkpt>
      <trkpt lat="43.334266" lon="-8.314380">
        <ele>116.610</ele>
        <time>2019-06-20T17:53:07Z</time>
      </trkpt>
      <trkpt lat="43.334258" lon="-8.314508">
        <ele>116.808</ele>
        <time>2019-06-20T17:53:08Z</time>
      </trkpt>
      <trkpt lat="43.334246" lon="-8.314653">
        <ele>117.127</ele>
        <time>2019-06-20T17:53:09Z</time>
      </trkpt>
      <trkpt lat="43.334234" lon="-8.314797">
        <ele>117.361</ele>
        <time>2019-06-20T17:53:10Z</time>
      </trkpt>
      <trkpt lat="43.334226" lon="-8.314948">
        <ele>117.522</ele>
        <time>2019-06-20T17:53:11Z</time>
      </trkpt>
      <trkpt lat="43.334224" lon="-8.315097">
        <ele>117.798</ele>
        <time>2019-06-20T17:53:12Z</time>
      </trkpt>
      <trkpt lat="43.334232" lon="-8.315254">
        <ele>117.715</ele>
        <time>2019-06-20T17:53:13Z</time>
      </trkpt>
      <trkpt lat="43.334245" lon="-8.315415">
        <ele>117.766</ele>
        <time>2019-06-20T17:53:14Z</time>
      </trkpt>
      <trkpt lat="43.334264" lon="-8.315564">
        <ele>117.798</ele>
        <time>2019-06-20T17:53:15Z</time>
      </trkpt>
      <trkpt lat="43.334285" lon="-8.315696">
        <ele>118.425</ele>
        <time>2019-06-20T17:53:16Z</time>
      </trkpt>
      <trkpt lat="43.334318" lon="-8.315815">
        <ele>118.817</ele>
        <time>2019-06-20T17:53:17Z</time>
      </trkpt>
      <trkpt lat="43.334343" lon="-8.315928">
        <ele>118.787</ele>
        <time>2019-06-20T17:53:18Z</time>
      </trkpt>
      <trkpt lat="43.334381" lon="-8.316041">
        <ele>118.515</ele>
        <time>2019-06-20T17:53:19Z</time>
      </trkpt>
      <trkpt lat="43.334439" lon="-8.316140">
        <ele>117.808</ele>
        <time>2019-06-20T17:53:20Z</time>
      </trkpt>
      <trkpt lat="43.334501" lon="-8.316244">
        <ele>116.564</ele>
        <time>2019-06-20T17:53:21Z</time>
      </trkpt>
      <trkpt lat="43.334563" lon="-8.316344">
        <ele>115.788</ele>
        <time>2019-06-20T17:53:22Z</time>
      </trkpt>
      <trkpt lat="43.334623" lon="-8.316458">
        <ele>115.299</ele>
        <time>2019-06-20T17:53:23Z</time>
      </trkpt>
      <trkpt lat="43.334664" lon="-8.316567">
        <ele>114.755</ele>
        <time>2019-06-20T17:53:24Z</time>
      </trkpt>
      <trkpt lat="43.334702" lon="-8.316689">
        <ele>114.192</ele>
        <time>2019-06-20T17:53:25Z</time>
      </trkpt>
      <trkpt lat="43.334731" lon="-8.316823">
        <ele>113.433</ele>
        <time>2019-06-20T17:53:26Z</time>
      </trkpt>
      <trkpt lat="43.334745" lon="-8.316964">
        <ele>112.825</ele>
        <time>2019-06-20T17:53:27Z</time>
      </trkpt>
      <trkpt lat="43.334741" lon="-8.317106">
        <ele>112.312</ele>
        <time>2019-06-20T17:53:28Z</time>
      </trkpt>
      <trkpt lat="43.334735" lon="-8.317236">
        <ele>112.015</ele>
        <time>2019-06-20T17:53:29Z</time>
      </trkpt>
      <trkpt lat="43.334755" lon="-8.317368">
        <ele>111.865</ele>
        <time>2019-06-20T17:53:30Z</time>
      </trkpt>
      <trkpt lat="43.334795" lon="-8.317496">
        <ele>111.511</ele>
        <time>2019-06-20T17:53:31Z</time>
      </trkpt>
      <trkpt lat="43.334853" lon="-8.317621">
        <ele>110.408</ele>
        <time>2019-06-20T17:53:32Z</time>
      </trkpt>
      <trkpt lat="43.334910" lon="-8.317746">
        <ele>109.284</ele>
        <time>2019-06-20T17:53:33Z</time>
      </trkpt>
      <trkpt lat="43.334962" lon="-8.317873">
        <ele>108.588</ele>
        <time>2019-06-20T17:53:34Z</time>
      </trkpt>
      <trkpt lat="43.335001" lon="-8.318016">
        <ele>108.039</ele>
        <time>2019-06-20T17:53:35Z</time>
      </trkpt>
      <trkpt lat="43.335018" lon="-8.318170">
        <ele>107.765</ele>
        <time>2019-06-20T17:53:36Z</time>
      </trkpt>
      <trkpt lat="43.335030" lon="-8.318347">
        <ele>107.632</ele>
        <time>2019-06-20T17:53:37Z</time>
      </trkpt>
      <trkpt lat="43.335039" lon="-8.318531">
        <ele>108.063</ele>
        <time>2019-06-20T17:53:38Z</time>
      </trkpt>
      <trkpt lat="43.335052" lon="-8.318716">
        <ele>107.515</ele>
        <time>2019-06-20T17:53:39Z</time>
      </trkpt>
      <trkpt lat="43.335088" lon="-8.318899">
        <ele>106.012</ele>
        <time>2019-06-20T17:53:40Z</time>
      </trkpt>
      <trkpt lat="43.335134" lon="-8.319081">
        <ele>104.933</ele>
        <time>2019-06-20T17:53:41Z</time>
      </trkpt>
      <trkpt lat="43.335170" lon="-8.319261">
        <ele>103.823</ele>
        <time>2019-06-20T17:53:42Z</time>
      </trkpt>
      <trkpt lat="43.335195" lon="-8.319446">
        <ele>102.915</ele>
        <time>2019-06-20T17:53:43Z</time>
      </trkpt>
      <trkpt lat="43.335192" lon="-8.319617">
        <ele>101.908</ele>
        <time>2019-06-20T17:53:44Z</time>
      </trkpt>
      <trkpt lat="43.335181" lon="-8.319792">
        <ele>101.196</ele>
        <time>2019-06-20T17:53:45Z</time>
      </trkpt>
      <trkpt lat="43.335146" lon="-8.319960">
        <ele>101.060</ele>
        <time>2019-06-20T17:53:46Z</time>
      </trkpt>
      <trkpt lat="43.335087" lon="-8.320123">
        <ele>101.931</ele>
        <time>2019-06-20T17:53:47Z</time>
      </trkpt>
      <trkpt lat="43.335021" lon="-8.320277">
        <ele>103.547</ele>
        <time>2019-06-20T17:53:48Z</time>
      </trkpt>
      <trkpt lat="43.334963" lon="-8.320418">
        <ele>105.214</ele>
        <time>2019-06-20T17:53:49Z</time>
      </trkpt>
      <trkpt lat="43.334916" lon="-8.320548">
        <ele>106.545</ele>
        <time>2019-06-20T17:53:50Z</time>
      </trkpt>
      <trkpt lat="43.334881" lon="-8.320672">
        <ele>107.027</ele>
        <time>2019-06-20T17:53:51Z</time>
      </trkpt>
      <trkpt lat="43.334865" lon="-8.320807">
        <ele>107.084</ele>
        <time>2019-06-20T17:53:52Z</time>
      </trkpt>
      <trkpt lat="43.334874" lon="-8.320938">
        <ele>106.648</ele>
        <time>2019-06-20T17:53:53Z</time>
      </trkpt>
      <trkpt lat="43.334895" lon="-8.321082">
        <ele>106.261</ele>
        <time>2019-06-20T17:53:54Z</time>
      </trkpt>
      <trkpt lat="43.334934" lon="-8.321227">
        <ele>106.017</ele>
        <time>2019-06-20T17:53:55Z</time>
      </trkpt>
      <trkpt lat="43.335005" lon="-8.321362">
        <ele>105.908</ele>
        <time>2019-06-20T17:53:56Z</time>
      </trkpt>
      <trkpt lat="43.335072" lon="-8.321480">
        <ele>105.827</ele>
        <time>2019-06-20T17:53:57Z</time>
      </trkpt>
      <trkpt lat="43.335154" lon="-8.321598">
        <ele>105.641</ele>
        <time>2019-06-20T17:53:58Z</time>
      </trkpt>
      <trkpt lat="43.335236" lon="-8.321715">
        <ele>105.622</ele>
        <time>2019-06-20T17:53:59Z</time>
      </trkpt>
      <trkpt lat="43.335323" lon="-8.321841">
        <ele>106.118</ele>
        <time>2019-06-20T17:54:00Z</time>
      </trkpt>
      <trkpt lat="43.335409" lon="-8.321953">
        <ele>106.655</ele>
        <time>2019-06-20T17:54:01Z</time>
      </trkpt>
      <trkpt lat="43.335487" lon="-8.322055">
        <ele>106.886</ele>
        <time>2019-06-20T17:54:02Z</time>
      </trkpt>
      <trkpt lat="43.335557" lon="-8.322149">
        <ele>106.738</ele>
        <time>2019-06-20T17:54:03Z</time>
      </trkpt>
      <trkpt lat="43.335619" lon="-8.322260">
        <ele>106.835</ele>
        <time>2019-06-20T17:54:04Z</time>
      </trkpt>
      <trkpt lat="43.335655" lon="-8.322387">
        <ele>107.372</ele>
        <time>2019-06-20T17:54:05Z</time>
      </trkpt>
      <trkpt lat="43.335668" lon="-8.322528">
        <ele>107.913</ele>
        <time>2019-06-20T17:54:06Z</time>
      </trkpt>
      <trkpt lat="43.335668" lon="-8.322673">
        <ele>108.414</ele>
        <time>2019-06-20T17:54:07Z</time>
      </trkpt>
      <trkpt lat="43.335632" lon="-8.322827">
        <ele>109.008</ele>
        <time>2019-06-20T17:54:08Z</time>
      </trkpt>
      <trkpt lat="43.335603" lon="-8.322980">
        <ele>108.850</ele>
        <time>2019-06-20T17:54:09Z</time>
      </trkpt>
      <trkpt lat="43.335574" lon="-8.323127">
        <ele>108.654</ele>
        <time>2019-06-20T17:54:10Z</time>
      </trkpt>
      <trkpt lat="43.335556" lon="-8.323276">
        <ele>108.225</ele>
        <time>2019-06-20T17:54:11Z</time>
      </trkpt>
      <trkpt lat="43.335548" lon="-8.323430">
        <ele>108.041</ele>
        <time>2019-06-20T17:54:12Z</time>
      </trkpt>
      <trkpt lat="43.335554" lon="-8.323596">
        <ele>108.098</ele>
        <time>2019-06-20T17:54:13Z</time>
      </trkpt>
      <trkpt lat="43.335564" lon="-8.323770">
        <ele>106.729</ele>
        <time>2019-06-20T17:54:14Z</time>
      </trkpt>
      <trkpt lat="43.335575" lon="-8.323933">
        <ele>105.361</ele>
        <time>2019-06-20T17:54:15Z</time>
      </trkpt>
      <trkpt lat="43.335582" lon="-8.324093">
        <ele>103.538</ele>
        <time>2019-06-20T17:54:16Z</time>
      </trkpt>
      <trkpt lat="43.335583" lon="-8.324258">
        <ele>102.135</ele>
        <time>2019-06-20T17:54:17Z</time>
      </trkpt>
      <trkpt lat="43.335597" lon="-8.324425">
        <ele>100.886</ele>
        <time>2019-06-20T17:54:18Z</time>
      </trkpt>
      <trkpt lat="43.335617" lon="-8.324602">
        <ele>99.114</ele>
        <time>2019-06-20T17:54:19Z</time>
      </trkpt>
      <trkpt lat="43.335661" lon="-8.324759">
        <ele>97.908</ele>
        <time>2019-06-20T17:54:20Z</time>
      </trkpt>
      <trkpt lat="43.335727" lon="-8.324894">
        <ele>97.476</ele>
        <time>2019-06-20T17:54:21Z</time>
      </trkpt>
      <trkpt lat="43.335789" lon="-8.325038">
        <ele>96.920</ele>
        <time>2019-06-20T17:54:22Z</time>
      </trkpt>
      <trkpt lat="43.335862" lon="-8.325147">
        <ele>96.511</ele>
        <time>2019-06-20T17:54:23Z</time>
      </trkpt>
      <trkpt lat="43.335942" lon="-8.325258">
        <ele>96.197</ele>
        <time>2019-06-20T17:54:24Z</time>
      </trkpt>
      <trkpt lat="43.336014" lon="-8.325361">
        <ele>95.874</ele>
        <time>2019-06-20T17:54:25Z</time>
      </trkpt>
      <trkpt lat="43.336099" lon="-8.325458">
        <ele>95.445</ele>
        <time>2019-06-20T17:54:26Z</time>
      </trkpt>
      <trkpt lat="43.336206" lon="-8.325553">
        <ele>94.747</ele>
        <time>2019-06-20T17:54:27Z</time>
      </trkpt>
      <trkpt lat="43.336309" lon="-8.325660">
        <ele>94.244</ele>
        <time>2019-06-20T17:54:28Z</time>
      </trkpt>
      <trkpt lat="43.336411" lon="-8.325759">
        <ele>93.878</ele>
        <time>2019-06-20T17:54:29Z</time>
      </trkpt>
      <trkpt lat="43.336513" lon="-8.325871">
        <ele>92.633</ele>
        <time>2019-06-20T17:54:30Z</time>
      </trkpt>
      <trkpt lat="43.336601" lon="-8.325979">
        <ele>92.026</ele>
        <time>2019-06-20T17:54:31Z</time>
      </trkpt>
      <trkpt lat="43.336675" lon="-8.326111">
        <ele>91.908</ele>
        <time>2019-06-20T17:54:32Z</time>
      </trkpt>
      <trkpt lat="43.336740" lon="-8.326271">
        <ele>91.670</ele>
        <time>2019-06-20T17:54:33Z</time>
      </trkpt>
      <trkpt lat="43.336791" lon="-8.326449">
        <ele>91.864</ele>
        <time>2019-06-20T17:54:34Z</time>
      </trkpt>
      <trkpt lat="43.336850" lon="-8.326641">
        <ele>92.215</ele>
        <time>2019-06-20T17:54:35Z</time>
      </trkpt>
      <trkpt lat="43.336916" lon="-8.326841">
        <ele>92.111</ele>
        <time>2019-06-20T17:54:36Z</time>
      </trkpt>
      <trkpt lat="43.336986" lon="-8.327048">
        <ele>92.348</ele>
        <time>2019-06-20T17:54:37Z</time>
      </trkpt>
      <trkpt lat="43.337068" lon="-8.327263">
        <ele>92.679</ele>
        <time>2019-06-20T17:54:38Z</time>
      </trkpt>
      <trkpt lat="43.337145" lon="-8.327482">
        <ele>92.381</ele>
        <time>2019-06-20T17:54:39Z</time>
      </trkpt>
      <trkpt lat="43.337232" lon="-8.327708">
        <ele>92.078</ele>
        <time>2019-06-20T17:54:40Z</time>
      </trkpt>
      <trkpt lat="43.337324" lon="-8.327936">
        <ele>91.464</ele>
        <time>2019-06-20T17:54:41Z</time>
      </trkpt>
      <trkpt lat="43.337399" lon="-8.328148">
        <ele>90.706</ele>
        <time>2019-06-20T17:54:42Z</time>
      </trkpt>
      <trkpt lat="43.337479" lon="-8.328360">
        <ele>90.316</ele>
        <time>2019-06-20T17:54:43Z</time>
      </trkpt>
      <trkpt lat="43.337551" lon="-8.328577">
        <ele>91.808</ele>
        <time>2019-06-20T17:54:44Z</time>
      </trkpt>
      <trkpt lat="43.337629" lon="-8.328786">
        <ele>92.359</ele>
        <time>2019-06-20T17:54:45Z</time>
      </trkpt>
      <trkpt lat="43.337703" lon="-8.328996">
        <ele>92.443</ele>
        <time>2019-06-20T17:54:46Z</time>
      </trkpt>
      <trkpt lat="43.337775" lon="-8.329201">
        <ele>92.094</ele>
        <time>2019-06-20T17:54:47Z</time>
      </trkpt>
      <trkpt lat="43.337850" lon="-8.329407">
        <ele>92.080</ele>
        <time>2019-06-20T17:54:48Z</time>
      </trkpt>
      <trkpt lat="43.337927" lon="-8.329613">
        <ele>91.777</ele>
        <time>2019-06-20T17:54:49Z</time>
      </trkpt>
      <trkpt lat="43.337985" lon="-8.329823">
        <ele>91.568</ele>
        <time>2019-06-20T17:54:50Z</time>
      </trkpt>
      <trkpt lat="43.338040" lon="-8.330044">
        <ele>90.860</ele>
        <time>2019-06-20T17:54:51Z</time>
      </trkpt>
      <trkpt lat="43.338107" lon="-8.330275">
        <ele>90.267</ele>
        <time>2019-06-20T17:54:52Z</time>
      </trkpt>
      <trkpt lat="43.338171" lon="-8.330492">
        <ele>90.353</ele>
        <time>2019-06-20T17:54:53Z</time>
      </trkpt>
      <trkpt lat="43.338243" lon="-8.330736">
        <ele>91.504</ele>
        <time>2019-06-20T17:54:54Z</time>
      </trkpt>
      <trkpt lat="43.338267" lon="-8.330971">
        <ele>92.014</ele>
        <time>2019-06-20T17:54:55Z</time>
      </trkpt>
      <trkpt lat="43.338301" lon="-8.331206">
        <ele>91.908</ele>
        <time>2019-06-20T17:54:56Z</time>
      </trkpt>
      <trkpt lat="43.338342" lon="-8.331444">
        <ele>90.938</ele>
        <time>2019-06-20T17:54:57Z</time>
      </trkpt>
      <trkpt lat="43.338378" lon="-8.331668">
        <ele>90.532</ele>
        <time>2019-06-20T17:54:58Z</time>
      </trkpt>
      <trkpt lat="43.338403" lon="-8.331891">
        <ele>90.563</ele>
        <time>2019-06-20T17:54:59Z</time>
      </trkpt>
      <trkpt lat="43.338424" lon="-8.332101">
        <ele>89.929</ele>
        <time>2019-06-20T17:55:00Z</time>
      </trkpt>
      <trkpt lat="43.338438" lon="-8.332287">
        <ele>89.126</ele>
        <time>2019-06-20T17:55:01Z</time>
      </trkpt>
      <trkpt lat="43.338451" lon="-8.332493">
        <ele>88.077</ele>
        <time>2019-06-20T17:55:02Z</time>
      </trkpt>
      <trkpt lat="43.338476" lon="-8.332701">
        <ele>86.219</ele>
        <time>2019-06-20T17:55:03Z</time>
      </trkpt>
      <trkpt lat="43.338498" lon="-8.332910">
        <ele>84.486</ele>
        <time>2019-06-20T17:55:04Z</time>
      </trkpt>
      <trkpt lat="43.338523" lon="-8.333124">
        <ele>83.256</ele>
        <time>2019-06-20T17:55:05Z</time>
      </trkpt>
      <trkpt lat="43.338565" lon="-8.333345">
        <ele>83.359</ele>
        <time>2019-06-20T17:55:06Z</time>
      </trkpt>
      <trkpt lat="43.338616" lon="-8.333546">
        <ele>82.514</ele>
        <time>2019-06-20T17:55:07Z</time>
      </trkpt>
      <trkpt lat="43.338674" lon="-8.333767">
        <ele>81.008</ele>
        <time>2019-06-20T17:55:08Z</time>
      </trkpt>
      <trkpt lat="43.338731" lon="-8.333994">
        <ele>79.358</ele>
        <time>2019-06-20T17:55:09Z</time>
      </trkpt>
      <trkpt lat="43.338785" lon="-8.334214">
        <ele>77.722</ele>
        <time>2019-06-20T17:55:10Z</time>
      </trkpt>
      <trkpt lat="43.338844" lon="-8.334426">
        <ele>76.793</ele>
        <time>2019-06-20T17:55:11Z</time>
      </trkpt>
      <trkpt lat="43.338893" lon="-8.334641">
        <ele>75.919</ele>
        <time>2019-06-20T17:55:12Z</time>
      </trkpt>
      <trkpt lat="43.338942" lon="-8.334848">
        <ele>75.266</ele>
        <time>2019-06-20T17:55:13Z</time>
      </trkpt>
      <trkpt lat="43.338991" lon="-8.335053">
        <ele>74.437</ele>
        <time>2019-06-20T17:55:14Z</time>
      </trkpt>
      <trkpt lat="43.339042" lon="-8.335244">
        <ele>73.459</ele>
        <time>2019-06-20T17:55:15Z</time>
      </trkpt>
      <trkpt lat="43.339093" lon="-8.335434">
        <ele>72.216</ele>
        <time>2019-06-20T17:55:16Z</time>
      </trkpt>
      <trkpt lat="43.339159" lon="-8.335601">
        <ele>71.174</ele>
        <time>2019-06-20T17:55:17Z</time>
      </trkpt>
      <trkpt lat="43.339242" lon="-8.335769">
        <ele>70.756</ele>
        <time>2019-06-20T17:55:18Z</time>
      </trkpt>
      <trkpt lat="43.339369" lon="-8.335936">
        <ele>69.921</ele>
        <time>2019-06-20T17:55:19Z</time>
      </trkpt>
      <trkpt lat="43.339475" lon="-8.336085">
        <ele>69.008</ele>
        <time>2019-06-20T17:55:20Z</time>
      </trkpt>
      <trkpt lat="43.339590" lon="-8.336234">
        <ele>68.030</ele>
        <time>2019-06-20T17:55:21Z</time>
      </trkpt>
      <trkpt lat="43.339694" lon="-8.336380">
        <ele>67.164</ele>
        <time>2019-06-20T17:55:22Z</time>
      </trkpt>
      <trkpt lat="43.339797" lon="-8.336536">
        <ele>67.045</ele>
        <time>2019-06-20T17:55:23Z</time>
      </trkpt>
      <trkpt lat="43.339891" lon="-8.336691">
        <ele>67.031</ele>
        <time>2019-06-20T17:55:24Z</time>
      </trkpt>
      <trkpt lat="43.339969" lon="-8.336878">
        <ele>66.948</ele>
        <time>2019-06-20T17:55:25Z</time>
      </trkpt>
      <trkpt lat="43.340019" lon="-8.337074">
        <ele>66.529</ele>
        <time>2019-06-20T17:55:26Z</time>
      </trkpt>
      <trkpt lat="43.340077" lon="-8.337279">
        <ele>65.881</ele>
        <time>2019-06-20T17:55:27Z</time>
      </trkpt>
      <trkpt lat="43.340136" lon="-8.337483">
        <ele>65.168</ele>
        <time>2019-06-20T17:55:28Z</time>
      </trkpt>
      <trkpt lat="43.340196" lon="-8.337702">
        <ele>64.895</ele>
        <time>2019-06-20T17:55:29Z</time>
      </trkpt>
      <trkpt lat="43.340287" lon="-8.337919">
        <ele>65.049</ele>
        <time>2019-06-20T17:55:30Z</time>
      </trkpt>
      <trkpt lat="43.340374" lon="-8.338122">
        <ele>65.223</ele>
        <time>2019-06-20T17:55:31Z</time>
      </trkpt>
      <trkpt lat="43.340477" lon="-8.338336">
        <ele>65.308</ele>
        <time>2019-06-20T17:55:32Z</time>
      </trkpt>
      <trkpt lat="43.340582" lon="-8.338545">
        <ele>64.912</ele>
        <time>2019-06-20T17:55:33Z</time>
      </trkpt>
      <trkpt lat="43.340695" lon="-8.338761">
        <ele>63.796</ele>
        <time>2019-06-20T17:55:34Z</time>
      </trkpt>
      <trkpt lat="43.340793" lon="-8.338966">
        <ele>62.417</ele>
        <time>2019-06-20T17:55:35Z</time>
      </trkpt>
      <trkpt lat="43.340887" lon="-8.339168">
        <ele>61.863</ele>
        <time>2019-06-20T17:55:36Z</time>
      </trkpt>
      <trkpt lat="43.340984" lon="-8.339372">
        <ele>61.840</ele>
        <time>2019-06-20T17:55:37Z</time>
      </trkpt>
      <trkpt lat="43.341080" lon="-8.339578">
        <ele>61.231</ele>
        <time>2019-06-20T17:55:38Z</time>
      </trkpt>
      <trkpt lat="43.341157" lon="-8.339779">
        <ele>60.783</ele>
        <time>2019-06-20T17:55:39Z</time>
      </trkpt>
      <trkpt lat="43.341235" lon="-8.339961">
        <ele>60.170</ele>
        <time>2019-06-20T17:55:40Z</time>
      </trkpt>
      <trkpt lat="43.341308" lon="-8.340148">
        <ele>59.653</ele>
        <time>2019-06-20T17:55:41Z</time>
      </trkpt>
      <trkpt lat="43.341387" lon="-8.340339">
        <ele>58.804</ele>
        <time>2019-06-20T17:55:42Z</time>
      </trkpt>
      <trkpt lat="43.341454" lon="-8.340509">
        <ele>57.914</ele>
        <time>2019-06-20T17:55:43Z</time>
      </trkpt>
      <trkpt lat="43.341522" lon="-8.340674">
        <ele>56.708</ele>
        <time>2019-06-20T17:55:44Z</time>
      </trkpt>
      <trkpt lat="43.341593" lon="-8.340838">
        <ele>55.318</ele>
        <time>2019-06-20T17:55:45Z</time>
      </trkpt>
      <trkpt lat="43.341667" lon="-8.341006">
        <ele>55.012</ele>
        <time>2019-06-20T17:55:46Z</time>
      </trkpt>
      <trkpt lat="43.341726" lon="-8.341146">
        <ele>55.373</ele>
        <time>2019-06-20T17:55:47Z</time>
      </trkpt>
      <trkpt lat="43.341795" lon="-8.341289">
        <ele>55.839</ele>
        <time>2019-06-20T17:55:48Z</time>
      </trkpt>
      <trkpt lat="43.341838" lon="-8.341419">
        <ele>56.036</ele>
        <time>2019-06-20T17:55:49Z</time>
      </trkpt>
      <trkpt lat="43.341892" lon="-8.341551">
        <ele>56.027</ele>
        <time>2019-06-20T17:55:50Z</time>
      </trkpt>
      <trkpt lat="43.341942" lon="-8.341669">
        <ele>56.099</ele>
        <time>2019-06-20T17:55:51Z</time>
      </trkpt>
      <trkpt lat="43.341987" lon="-8.341777">
        <ele>55.716</ele>
        <time>2019-06-20T17:55:52Z</time>
      </trkpt>
      <trkpt lat="43.342035" lon="-8.341881">
        <ele>55.326</ele>
        <time>2019-06-20T17:55:53Z</time>
      </trkpt>
      <trkpt lat="43.342075" lon="-8.342007">
        <ele>55.247</ele>
        <time>2019-06-20T17:55:55Z</time>
      </trkpt>
      <trkpt lat="43.342082" lon="-8.342072">
        <ele>55.211</ele>
        <time>2019-06-20T17:55:56Z</time>
      </trkpt>
      <trkpt lat="43.342071" lon="-8.342137">
        <ele>55.408</ele>
        <time>2019-06-20T17:55:57Z</time>
      </trkpt>
      <trkpt lat="43.342010" lon="-8.342214">
        <ele>55.825</ele>
        <time>2019-06-20T17:55:58Z</time>
      </trkpt>
      <trkpt lat="43.341994" lon="-8.342337">
        <ele>55.569</ele>
        <time>2019-06-20T17:55:59Z</time>
      </trkpt>
      <trkpt lat="43.341977" lon="-8.342480">
        <ele>55.180</ele>
        <time>2019-06-20T17:56:00Z</time>
      </trkpt>
      <trkpt lat="43.341952" lon="-8.342640">
        <ele>54.566</ele>
        <time>2019-06-20T17:56:01Z</time>
      </trkpt>
      <trkpt lat="43.341938" lon="-8.342803">
        <ele>53.953</ele>
        <time>2019-06-20T17:56:02Z</time>
      </trkpt>
      <trkpt lat="43.341918" lon="-8.342949">
        <ele>53.424</ele>
        <time>2019-06-20T17:56:03Z</time>
      </trkpt>
      <trkpt lat="43.341910" lon="-8.343102">
        <ele>52.886</ele>
        <time>2019-06-20T17:56:04Z</time>
      </trkpt>
      <trkpt lat="43.341897" lon="-8.343256">
        <ele>52.333</ele>
        <time>2019-06-20T17:56:05Z</time>
      </trkpt>
      <trkpt lat="43.341870" lon="-8.343410">
        <ele>52.127</ele>
        <time>2019-06-20T17:56:06Z</time>
      </trkpt>
      <trkpt lat="43.341845" lon="-8.343548">
        <ele>52.268</ele>
        <time>2019-06-20T17:56:07Z</time>
      </trkpt>
      <trkpt lat="43.341818" lon="-8.343678">
        <ele>51.814</ele>
        <time>2019-06-20T17:56:08Z</time>
      </trkpt>
      <trkpt lat="43.341774" lon="-8.343798">
        <ele>51.108</ele>
        <time>2019-06-20T17:56:09Z</time>
      </trkpt>
      <trkpt lat="43.341734" lon="-8.343917">
        <ele>50.485</ele>
        <time>2019-06-20T17:56:10Z</time>
      </trkpt>
      <trkpt lat="43.341683" lon="-8.344008">
        <ele>49.759</ele>
        <time>2019-06-20T17:56:11Z</time>
      </trkpt>
      <trkpt lat="43.341637" lon="-8.344103">
        <ele>49.110</ele>
        <time>2019-06-20T17:56:12Z</time>
      </trkpt>
      <trkpt lat="43.341593" lon="-8.344196">
        <ele>48.656</ele>
        <time>2019-06-20T17:56:13Z</time>
      </trkpt>
      <trkpt lat="43.341608" lon="-8.344290">
        <ele>48.313</ele>
        <time>2019-06-20T17:56:14Z</time>
      </trkpt>
      <trkpt lat="43.341632" lon="-8.344362">
        <ele>48.234</ele>
        <time>2019-06-20T17:56:15Z</time>
      </trkpt>
      <trkpt lat="43.341669" lon="-8.344449">
        <ele>48.016</ele>
        <time>2019-06-20T17:56:16Z</time>
      </trkpt>
      <trkpt lat="43.341710" lon="-8.344546">
        <ele>47.973</ele>
        <time>2019-06-20T17:56:17Z</time>
      </trkpt>
      <trkpt lat="43.341728" lon="-8.344662">
        <ele>47.572</ele>
        <time>2019-06-20T17:56:18Z</time>
      </trkpt>
      <trkpt lat="43.341762" lon="-8.344772">
        <ele>47.313</ele>
        <time>2019-06-20T17:56:19Z</time>
      </trkpt>
      <trkpt lat="43.341785" lon="-8.344862">
        <ele>47.214</ele>
        <time>2019-06-20T17:56:20Z</time>
      </trkpt>
      <trkpt lat="43.341815" lon="-8.344937">
        <ele>47.108</ele>
        <time>2019-06-20T17:56:21Z</time>
      </trkpt>
      <trkpt lat="43.341842" lon="-8.345008">
        <ele>47.020</ele>
        <time>2019-06-20T17:56:22Z</time>
      </trkpt>
      <trkpt lat="43.341853" lon="-8.345076">
        <ele>47.214</ele>
        <time>2019-06-20T17:56:23Z</time>
      </trkpt>
      <trkpt lat="43.341864" lon="-8.345139">
        <ele>47.475</ele>
        <time>2019-06-20T17:56:24Z</time>
      </trkpt>
      <trkpt lat="43.341801" lon="-8.345206">
        <ele>47.461</ele>
        <time>2019-06-20T17:56:26Z</time>
      </trkpt>
      <trkpt lat="43.341725" lon="-8.345225">
        <ele>47.238</ele>
        <time>2019-06-20T17:56:28Z</time>
      </trkpt>
      <trkpt lat="43.341662" lon="-8.345243">
        <ele>47.059</ele>
        <time>2019-06-20T17:56:29Z</time>
      </trkpt>
      <trkpt lat="43.341601" lon="-8.345274">
        <ele>46.381</ele>
        <time>2019-06-20T17:56:30Z</time>
      </trkpt>
      <trkpt lat="43.341536" lon="-8.345330">
        <ele>45.698</ele>
        <time>2019-06-20T17:56:31Z</time>
      </trkpt>
      <trkpt lat="43.341478" lon="-8.345397">
        <ele>45.056</ele>
        <time>2019-06-20T17:56:32Z</time>
      </trkpt>
      <trkpt lat="43.341391" lon="-8.345477">
        <ele>44.059</ele>
        <time>2019-06-20T17:56:33Z</time>
      </trkpt>
      <trkpt lat="43.341324" lon="-8.345587">
        <ele>43.414</ele>
        <time>2019-06-20T17:56:34Z</time>
      </trkpt>
      <trkpt lat="43.341246" lon="-8.345691">
        <ele>42.708</ele>
        <time>2019-06-20T17:56:35Z</time>
      </trkpt>
      <trkpt lat="43.341167" lon="-8.345797">
        <ele>41.818</ele>
        <time>2019-06-20T17:56:36Z</time>
      </trkpt>
      <trkpt lat="43.341084" lon="-8.345900">
        <ele>40.712</ele>
        <time>2019-06-20T17:56:37Z</time>
      </trkpt>
      <trkpt lat="43.341003" lon="-8.345996">
        <ele>39.853</ele>
        <time>2019-06-20T17:56:38Z</time>
      </trkpt>
      <trkpt lat="43.340926" lon="-8.346073">
        <ele>39.089</ele>
        <time>2019-06-20T17:56:39Z</time>
      </trkpt>
      <trkpt lat="43.340853" lon="-8.346151">
        <ele>38.216</ele>
        <time>2019-06-20T17:56:40Z</time>
      </trkpt>
      <trkpt lat="43.340799" lon="-8.346212">
        <ele>37.927</ele>
        <time>2019-06-20T17:56:41Z</time>
      </trkpt>
      <trkpt lat="43.340754" lon="-8.346274">
        <ele>37.929</ele>
        <time>2019-06-20T17:56:42Z</time>
      </trkpt>
      <trkpt lat="43.340716" lon="-8.346335">
        <ele>37.946</ele>
        <time>2019-06-20T17:56:43Z</time>
      </trkpt>
      <trkpt lat="43.340695" lon="-8.346401">
        <ele>38.086</ele>
        <time>2019-06-20T17:56:44Z</time>
      </trkpt>
      <trkpt lat="43.340674" lon="-8.346475">
        <ele>38.160</ele>
        <time>2019-06-20T17:56:45Z</time>
      </trkpt>
      <trkpt lat="43.340679" lon="-8.346590">
        <ele>38.326</ele>
        <time>2019-06-20T17:56:46Z</time>
      </trkpt>
      <trkpt lat="43.340702" lon="-8.346672">
        <ele>38.508</ele>
        <time>2019-06-20T17:56:47Z</time>
      </trkpt>
      <trkpt lat="43.340742" lon="-8.346749">
        <ele>38.921</ele>
        <time>2019-06-20T17:56:48Z</time>
      </trkpt>
      <trkpt lat="43.340792" lon="-8.346824">
        <ele>39.315</ele>
        <time>2019-06-20T17:56:49Z</time>
      </trkpt>
      <trkpt lat="43.340870" lon="-8.346910">
        <ele>40.366</ele>
        <time>2019-06-20T17:56:50Z</time>
      </trkpt>
      <trkpt lat="43.340936" lon="-8.347013">
        <ele>41.322</ele>
        <time>2019-06-20T17:56:51Z</time>
      </trkpt>
      <trkpt lat="43.341000" lon="-8.347080">
        <ele>42.069</ele>
        <time>2019-06-20T17:56:52Z</time>
      </trkpt>
      <trkpt lat="43.341064" lon="-8.347134">
        <ele>42.650</ele>
        <time>2019-06-20T17:56:53Z</time>
      </trkpt>
      <trkpt lat="43.341137" lon="-8.347156">
        <ele>43.282</ele>
        <time>2019-06-20T17:56:55Z</time>
      </trkpt>
      <trkpt lat="43.341195" lon="-8.347155">
        <ele>43.679</ele>
        <time>2019-06-20T17:56:56Z</time>
      </trkpt>
      <trkpt lat="43.341261" lon="-8.347141">
        <ele>44.116</ele>
        <time>2019-06-20T17:56:57Z</time>
      </trkpt>
      <trkpt lat="43.341330" lon="-8.347149">
        <ele>44.676</ele>
        <time>2019-06-20T17:56:58Z</time>
      </trkpt>
      <trkpt lat="43.341391" lon="-8.347172">
        <ele>45.013</ele>
        <time>2019-06-20T17:56:59Z</time>
      </trkpt>
      <trkpt lat="43.341452" lon="-8.347217">
        <ele>45.508</ele>
        <time>2019-06-20T17:57:00Z</time>
      </trkpt>
      <trkpt lat="43.341487" lon="-8.347280">
        <ele>45.654</ele>
        <time>2019-06-20T17:57:01Z</time>
      </trkpt>
      <trkpt lat="43.341519" lon="-8.347353">
        <ele>45.768</ele>
        <time>2019-06-20T17:57:02Z</time>
      </trkpt>
      <trkpt lat="43.341512" lon="-8.347433">
        <ele>45.529</ele>
        <time>2019-06-20T17:57:03Z</time>
      </trkpt>
      <trkpt lat="43.341503" lon="-8.347521">
        <ele>45.445</ele>
        <time>2019-06-20T17:57:04Z</time>
      </trkpt>
      <trkpt lat="43.341483" lon="-8.347623">
        <ele>45.392</ele>
        <time>2019-06-20T17:57:05Z</time>
      </trkpt>
      <trkpt lat="43.341390" lon="-8.347660">
        <ele>45.063</ele>
        <time>2019-06-20T17:57:06Z</time>
      </trkpt>
      <trkpt lat="43.341326" lon="-8.347733">
        <ele>44.515</ele>
        <time>2019-06-20T17:57:07Z</time>
      </trkpt>
      <trkpt lat="43.341261" lon="-8.347810">
        <ele>44.122</ele>
        <time>2019-06-20T17:57:08Z</time>
      </trkpt>
      <trkpt lat="43.341218" lon="-8.347929">
        <ele>44.121</ele>
        <time>2019-06-20T17:57:09Z</time>
      </trkpt>
      <trkpt lat="43.341179" lon="-8.348040">
        <ele>44.241</ele>
        <time>2019-06-20T17:57:10Z</time>
      </trkpt>
      <trkpt lat="43.341143" lon="-8.348180">
        <ele>44.505</ele>
        <time>2019-06-20T17:57:11Z</time>
      </trkpt>
      <trkpt lat="43.341109" lon="-8.348298">
        <ele>44.908</ele>
        <time>2019-06-20T17:57:12Z</time>
      </trkpt>
      <trkpt lat="43.341075" lon="-8.348424">
        <ele>44.695</ele>
        <time>2019-06-20T17:57:13Z</time>
      </trkpt>
      <trkpt lat="43.341046" lon="-8.348563">
        <ele>44.399</ele>
        <time>2019-06-20T17:57:14Z</time>
      </trkpt>
      <trkpt lat="43.341010" lon="-8.348690">
        <ele>43.690</ele>
        <time>2019-06-20T17:57:15Z</time>
      </trkpt>
      <trkpt lat="43.340989" lon="-8.348826">
        <ele>42.986</ele>
        <time>2019-06-20T17:57:16Z</time>
      </trkpt>
      <trkpt lat="43.340942" lon="-8.348966">
        <ele>42.343</ele>
        <time>2019-06-20T17:57:17Z</time>
      </trkpt>
      <trkpt lat="43.340880" lon="-8.349103">
        <ele>42.124</ele>
        <time>2019-06-20T17:57:18Z</time>
      </trkpt>
      <trkpt lat="43.340847" lon="-8.349239">
        <ele>42.346</ele>
        <time>2019-06-20T17:57:19Z</time>
      </trkpt>
      <trkpt lat="43.340813" lon="-8.349384">
        <ele>42.543</ele>
        <time>2019-06-20T17:57:20Z</time>
      </trkpt>
      <trkpt lat="43.340775" lon="-8.349514">
        <ele>42.333</ele>
        <time>2019-06-20T17:57:21Z</time>
      </trkpt>
      <trkpt lat="43.340741" lon="-8.349647">
        <ele>41.823</ele>
        <time>2019-06-20T17:57:22Z</time>
      </trkpt>
      <trkpt lat="43.340722" lon="-8.349792">
        <ele>41.115</ele>
        <time>2019-06-20T17:57:23Z</time>
      </trkpt>
      <trkpt lat="43.340706" lon="-8.349916">
        <ele>40.508</ele>
        <time>2019-06-20T17:57:24Z</time>
      </trkpt>
      <trkpt lat="43.340687" lon="-8.350061">
        <ele>39.876</ele>
        <time>2019-06-20T17:57:25Z</time>
      </trkpt>
      <trkpt lat="43.340666" lon="-8.350192">
        <ele>39.330</ele>
        <time>2019-06-20T17:57:26Z</time>
      </trkpt>
      <trkpt lat="43.340661" lon="-8.350324">
        <ele>39.151</ele>
        <time>2019-06-20T17:57:27Z</time>
      </trkpt>
      <trkpt lat="43.340627" lon="-8.350429">
        <ele>38.867</ele>
        <time>2019-06-20T17:57:28Z</time>
      </trkpt>
      <trkpt lat="43.340614" lon="-8.350552">
        <ele>38.694</ele>
        <time>2019-06-20T17:57:29Z</time>
      </trkpt>
      <trkpt lat="43.340600" lon="-8.350671">
        <ele>38.465</ele>
        <time>2019-06-20T17:57:30Z</time>
      </trkpt>
      <trkpt lat="43.340590" lon="-8.350782">
        <ele>38.317</ele>
        <time>2019-06-20T17:57:31Z</time>
      </trkpt>
      <trkpt lat="43.340575" lon="-8.350902">
        <ele>37.994</ele>
        <time>2019-06-20T17:57:32Z</time>
      </trkpt>
      <trkpt lat="43.340560" lon="-8.351018">
        <ele>37.474</ele>
        <time>2019-06-20T17:57:33Z</time>
      </trkpt>
      <trkpt lat="43.340550" lon="-8.351137">
        <ele>37.056</ele>
        <time>2019-06-20T17:57:34Z</time>
      </trkpt>
      <trkpt lat="43.340530" lon="-8.351250">
        <ele>36.821</ele>
        <time>2019-06-20T17:57:35Z</time>
      </trkpt>
      <trkpt lat="43.340513" lon="-8.351356">
        <ele>36.708</ele>
        <time>2019-06-20T17:57:36Z</time>
      </trkpt>
      <trkpt lat="43.340496" lon="-8.351453">
        <ele>36.440</ele>
        <time>2019-06-20T17:57:37Z</time>
      </trkpt>
      <trkpt lat="43.340491" lon="-8.351523">
        <ele>36.224</ele>
        <time>2019-06-20T17:57:38Z</time>
      </trkpt>
      <trkpt lat="43.340533" lon="-8.351644">
        <ele>36.015</ele>
        <time>2019-06-20T17:57:40Z</time>
      </trkpt>
      <trkpt lat="43.340570" lon="-8.351689">
        <ele>35.921</ele>
        <time>2019-06-20T17:57:41Z</time>
      </trkpt>
      <trkpt lat="43.340615" lon="-8.351730">
        <ele>35.898</ele>
        <time>2019-06-20T17:57:42Z</time>
      </trkpt>
      <trkpt lat="43.340672" lon="-8.351779">
        <ele>35.699</ele>
        <time>2019-06-20T17:57:43Z</time>
      </trkpt>
      <trkpt lat="43.340731" lon="-8.351816">
        <ele>35.521</ele>
        <time>2019-06-20T17:57:44Z</time>
      </trkpt>
      <trkpt lat="43.340809" lon="-8.351861">
        <ele>35.338</ele>
        <time>2019-06-20T17:57:45Z</time>
      </trkpt>
      <trkpt lat="43.340892" lon="-8.351908">
        <ele>35.184</ele>
        <time>2019-06-20T17:57:46Z</time>
      </trkpt>
      <trkpt lat="43.340978" lon="-8.351956">
        <ele>35.007</ele>
        <time>2019-06-20T17:57:47Z</time>
      </trkpt>
      <trkpt lat="43.341059" lon="-8.352004">
        <ele>34.817</ele>
        <time>2019-06-20T17:57:48Z</time>
      </trkpt>
      <trkpt lat="43.341140" lon="-8.352056">
        <ele>34.708</ele>
        <time>2019-06-20T17:57:49Z</time>
      </trkpt>
      <trkpt lat="43.341220" lon="-8.352109">
        <ele>34.821</ele>
        <time>2019-06-20T17:57:50Z</time>
      </trkpt>
      <trkpt lat="43.341298" lon="-8.352161">
        <ele>34.975</ele>
        <time>2019-06-20T17:57:51Z</time>
      </trkpt>
      <trkpt lat="43.341382" lon="-8.352216">
        <ele>35.086</ele>
        <time>2019-06-20T17:57:52Z</time>
      </trkpt>
      <trkpt lat="43.341459" lon="-8.352268">
        <ele>35.132</ele>
        <time>2019-06-20T17:57:53Z</time>
      </trkpt>
      <trkpt lat="43.341528" lon="-8.352325">
        <ele>35.159</ele>
        <time>2019-06-20T17:57:54Z</time>
      </trkpt>
      <trkpt lat="43.341589" lon="-8.352367">
        <ele>35.250</ele>
        <time>2019-06-20T17:57:55Z</time>
      </trkpt>
      <trkpt lat="43.341647" lon="-8.352420">
        <ele>35.242</ele>
        <time>2019-06-20T17:57:56Z</time>
      </trkpt>
      <trkpt lat="43.341708" lon="-8.352464">
        <ele>35.389</ele>
        <time>2019-06-20T17:57:57Z</time>
      </trkpt>
      <trkpt lat="43.341757" lon="-8.352516">
        <ele>35.317</ele>
        <time>2019-06-20T17:57:58Z</time>
      </trkpt>
      <trkpt lat="43.341822" lon="-8.352582">
        <ele>35.687</ele>
        <time>2019-06-20T17:58:00Z</time>
      </trkpt>
      <trkpt lat="43.341835" lon="-8.352649">
        <ele>35.615</ele>
        <time>2019-06-20T17:58:01Z</time>
      </trkpt>
      <trkpt lat="43.341848" lon="-8.352724">
        <ele>35.708</ele>
        <time>2019-06-20T17:58:02Z</time>
      </trkpt>
      <trkpt lat="43.341844" lon="-8.352836">
        <ele>35.584</ele>
        <time>2019-06-20T17:58:04Z</time>
      </trkpt>
      <trkpt lat="43.341798" lon="-8.352883">
        <ele>35.348</ele>
        <time>2019-06-20T17:58:06Z</time>
      </trkpt>
      <trkpt lat="43.341750" lon="-8.352875">
        <ele>35.249</ele>
        <time>2019-06-20T17:58:08Z</time>
      </trkpt>
      <trkpt lat="43.341713" lon="-8.352831">
        <ele>35.175</ele>
        <time>2019-06-20T17:58:10Z</time>
      </trkpt>
      <trkpt lat="43.341677" lon="-8.352783">
        <ele>35.092</ele>
        <time>2019-06-20T17:58:13Z</time>
      </trkpt>
      <trkpt lat="43.341639" lon="-8.352730">
        <ele>34.833</ele>
        <time>2019-06-20T17:58:25Z</time>
      </trkpt>
      <trkpt lat="43.341598" lon="-8.352806">
        <ele>34.515</ele>
        <time>2019-06-20T17:58:29Z</time>
      </trkpt>
      <trkpt lat="43.341540" lon="-8.352859">
        <ele>34.152</ele>
        <time>2019-06-20T17:58:32Z</time>
      </trkpt>
      <trkpt lat="43.341486" lon="-8.352881">
        <ele>33.741</ele>
        <time>2019-06-20T17:58:34Z</time>
      </trkpt>
      <trkpt lat="43.341503" lon="-8.352949">
        <ele>33.881</ele>
        <time>2019-06-20T17:58:51Z</time>
      </trkpt>
      <trkpt lat="43.341542" lon="-8.353003">
        <ele>34.109</ele>
        <time>2019-06-20T17:59:07Z</time>
      </trkpt>
      <trkpt lat="43.341563" lon="-8.352944">
        <ele>34.308</ele>
        <time>2019-06-20T17:59:30Z</time>
      </trkpt>
      <trkpt lat="43.341606" lon="-8.352977">
        <ele>34.647</ele>
        <time>2019-06-20T17:59:38Z</time>
      </trkpt>
      <trkpt lat="43.341557" lon="-8.352970">
        <ele>34.291</ele>
        <time>2019-06-20T17:59:43Z</time>
      </trkpt>
      <trkpt lat="43.341510" lon="-8.352978">
        <ele>33.912</ele>
        <time>2019-06-20T17:59:47Z</time>
      </trkpt>
      <trkpt lat="43.341563" lon="-8.352990">
        <ele>34.358</ele>
        <time>2019-06-20T18:00:10Z</time>
      </trkpt>
      <trkpt lat="43.341641" lon="-8.352982">
        <ele>34.815</ele>
        <time>2019-06-20T18:00:18Z</time>
      </trkpt>
      <trkpt lat="43.341608" lon="-8.352939">
        <ele>34.646</ele>
        <time>2019-06-20T18:01:01Z</time>
      </trkpt>
      <trkpt lat="43.341563" lon="-8.352956">
        <ele>34.398</ele>
        <time>2019-06-20T18:01:07Z</time>
      </trkpt>
      <trkpt lat="43.341550" lon="-8.353021">
        <ele>34.295</ele>
        <time>2019-06-20T18:01:31Z</time>
      </trkpt>
      <trkpt lat="43.341602" lon="-8.352991">
        <ele>34.571</ele>
        <time>2019-06-20T18:01:57Z</time>
      </trkpt>
      <trkpt lat="43.341612" lon="-8.352918">
        <ele>34.641</ele>
        <time>2019-06-20T18:02:03Z</time>
      </trkpt>
      <trkpt lat="43.341595" lon="-8.352859">
        <ele>34.515</ele>
        <time>2019-06-20T18:02:12Z</time>
      </trkpt>
      <trkpt lat="43.347884" lon="-8.347366">
        <ele>5.811</ele>
        <time>2019-06-21T10:22:28Z</time>
      </trkpt>
      <trkpt lat="43.347936" lon="-8.347399">
        <ele>5.021</ele>
        <time>2019-06-21T10:22:35Z</time>
      </trkpt>
      <trkpt lat="43.347878" lon="-8.347415">
        <ele>5.503</ele>
        <time>2019-06-21T10:22:56Z</time>
      </trkpt>
      <trkpt lat="43.347926" lon="-8.347395">
        <ele>5.208</ele>
        <time>2019-06-21T10:24:43Z</time>
      </trkpt>
      <trkpt lat="43.347931" lon="-8.347309">
        <ele>5.764</ele>
        <time>2019-06-21T10:24:46Z</time>
      </trkpt>
      <trkpt lat="43.347851" lon="-8.347235">
        <ele>7.178</ele>
        <time>2019-06-21T10:24:48Z</time>
      </trkpt>
      <trkpt lat="43.347792" lon="-8.347202">
        <ele>7.860</ele>
        <time>2019-06-21T10:24:49Z</time>
      </trkpt>
      <trkpt lat="43.347727" lon="-8.347165">
        <ele>8.482</ele>
        <time>2019-06-21T10:24:50Z</time>
      </trkpt>
      <trkpt lat="43.347660" lon="-8.347125">
        <ele>9.069</ele>
        <time>2019-06-21T10:24:51Z</time>
      </trkpt>
      <trkpt lat="43.347576" lon="-8.347087">
        <ele>9.875</ele>
        <time>2019-06-21T10:24:52Z</time>
      </trkpt>
      <trkpt lat="43.347506" lon="-8.347054">
        <ele>10.529</ele>
        <time>2019-06-21T10:24:53Z</time>
      </trkpt>
      <trkpt lat="43.347456" lon="-8.347028">
        <ele>10.921</ele>
        <time>2019-06-21T10:24:54Z</time>
      </trkpt>
      <trkpt lat="43.347414" lon="-8.346995">
        <ele>11.245</ele>
        <time>2019-06-21T10:24:55Z</time>
      </trkpt>
      <trkpt lat="43.347376" lon="-8.346934">
        <ele>11.447</ele>
        <time>2019-06-21T10:24:56Z</time>
      </trkpt>
      <trkpt lat="43.347331" lon="-8.346869">
        <ele>11.311</ele>
        <time>2019-06-21T10:24:57Z</time>
      </trkpt>
      <trkpt lat="43.347297" lon="-8.346799">
        <ele>11.208</ele>
        <time>2019-06-21T10:24:58Z</time>
      </trkpt>
      <trkpt lat="43.347253" lon="-8.346728">
        <ele>11.187</ele>
        <time>2019-06-21T10:24:59Z</time>
      </trkpt>
      <trkpt lat="43.347210" lon="-8.346652">
        <ele>11.181</ele>
        <time>2019-06-21T10:25:00Z</time>
      </trkpt>
      <trkpt lat="43.347166" lon="-8.346578">
        <ele>11.653</ele>
        <time>2019-06-21T10:25:01Z</time>
      </trkpt>
      <trkpt lat="43.347119" lon="-8.346496">
        <ele>12.165</ele>
        <time>2019-06-21T10:25:02Z</time>
      </trkpt>
      <trkpt lat="43.347068" lon="-8.346412">
        <ele>12.772</ele>
        <time>2019-06-21T10:25:03Z</time>
      </trkpt>
      <trkpt lat="43.347022" lon="-8.346335">
        <ele>13.348</ele>
        <time>2019-06-21T10:25:04Z</time>
      </trkpt>
      <trkpt lat="43.346980" lon="-8.346265">
        <ele>14.082</ele>
        <time>2019-06-21T10:25:05Z</time>
      </trkpt>
      <trkpt lat="43.346935" lon="-8.346189">
        <ele>14.824</ele>
        <time>2019-06-21T10:25:06Z</time>
      </trkpt>
      <trkpt lat="43.346893" lon="-8.346133">
        <ele>15.146</ele>
        <time>2019-06-21T10:25:07Z</time>
      </trkpt>
      <trkpt lat="43.346853" lon="-8.346060">
        <ele>15.288</ele>
        <time>2019-06-21T10:25:08Z</time>
      </trkpt>
      <trkpt lat="43.346826" lon="-8.346003">
        <ele>15.216</ele>
        <time>2019-06-21T10:25:09Z</time>
      </trkpt>
      <trkpt lat="43.346796" lon="-8.345945">
        <ele>15.308</ele>
        <time>2019-06-21T10:25:10Z</time>
      </trkpt>
      <trkpt lat="43.346766" lon="-8.345895">
        <ele>15.427</ele>
        <time>2019-06-21T10:25:11Z</time>
      </trkpt>
      <trkpt lat="43.346748" lon="-8.345832">
        <ele>15.481</ele>
        <time>2019-06-21T10:25:12Z</time>
      </trkpt>
      <trkpt lat="43.346701" lon="-8.345734">
        <ele>15.763</ele>
        <time>2019-06-21T10:25:14Z</time>
      </trkpt>
      <trkpt lat="43.346662" lon="-8.345679">
        <ele>16.095</ele>
        <time>2019-06-21T10:25:16Z</time>
      </trkpt>
      <trkpt lat="43.346566" lon="-8.345628">
        <ele>16.142</ele>
        <time>2019-06-21T10:25:18Z</time>
      </trkpt>
      <trkpt lat="43.346497" lon="-8.345596">
        <ele>16.198</ele>
        <time>2019-06-21T10:25:19Z</time>
      </trkpt>
      <trkpt lat="43.346416" lon="-8.345562">
        <ele>16.092</ele>
        <time>2019-06-21T10:25:20Z</time>
      </trkpt>
      <trkpt lat="43.346317" lon="-8.345536">
        <ele>16.624</ele>
        <time>2019-06-21T10:25:21Z</time>
      </trkpt>
      <trkpt lat="43.346207" lon="-8.345501">
        <ele>17.679</ele>
        <time>2019-06-21T10:25:22Z</time>
      </trkpt>
      <trkpt lat="43.346095" lon="-8.345470">
        <ele>18.405</ele>
        <time>2019-06-21T10:25:23Z</time>
      </trkpt>
      <trkpt lat="43.345980" lon="-8.345445">
        <ele>19.525</ele>
        <time>2019-06-21T10:25:24Z</time>
      </trkpt>
      <trkpt lat="43.345861" lon="-8.345421">
        <ele>20.708</ele>
        <time>2019-06-21T10:25:25Z</time>
      </trkpt>
      <trkpt lat="43.345744" lon="-8.345393">
        <ele>21.630</ele>
        <time>2019-06-21T10:25:26Z</time>
      </trkpt>
      <trkpt lat="43.345623" lon="-8.345385">
        <ele>22.314</ele>
        <time>2019-06-21T10:25:27Z</time>
      </trkpt>
      <trkpt lat="43.345489" lon="-8.345367">
        <ele>22.876</ele>
        <time>2019-06-21T10:25:28Z</time>
      </trkpt>
      <trkpt lat="43.345347" lon="-8.345347">
        <ele>23.388</ele>
        <time>2019-06-21T10:25:29Z</time>
      </trkpt>
      <trkpt lat="43.345208" lon="-8.345324">
        <ele>23.895</ele>
        <time>2019-06-21T10:25:30Z</time>
      </trkpt>
      <trkpt lat="43.345045" lon="-8.345295">
        <ele>24.071</ele>
        <time>2019-06-21T10:25:31Z</time>
      </trkpt>
      <trkpt lat="43.344887" lon="-8.345266">
        <ele>25.275</ele>
        <time>2019-06-21T10:25:32Z</time>
      </trkpt>
      <trkpt lat="43.344731" lon="-8.345227">
        <ele>26.957</ele>
        <time>2019-06-21T10:25:33Z</time>
      </trkpt>
      <trkpt lat="43.344555" lon="-8.345203">
        <ele>29.683</ele>
        <time>2019-06-21T10:25:34Z</time>
      </trkpt>
      <trkpt lat="43.344399" lon="-8.345169">
        <ele>32.025</ele>
        <time>2019-06-21T10:25:35Z</time>
      </trkpt>
      <trkpt lat="43.344240" lon="-8.345148">
        <ele>34.117</ele>
        <time>2019-06-21T10:25:36Z</time>
      </trkpt>
      <trkpt lat="43.344086" lon="-8.345124">
        <ele>35.308</ele>
        <time>2019-06-21T10:25:37Z</time>
      </trkpt>
      <trkpt lat="43.343934" lon="-8.345086">
        <ele>35.821</ele>
        <time>2019-06-21T10:25:38Z</time>
      </trkpt>
      <trkpt lat="43.343788" lon="-8.345057">
        <ele>36.485</ele>
        <time>2019-06-21T10:25:39Z</time>
      </trkpt>
      <trkpt lat="43.343628" lon="-8.345039">
        <ele>37.117</ele>
        <time>2019-06-21T10:25:40Z</time>
      </trkpt>
      <trkpt lat="43.343478" lon="-8.345011">
        <ele>37.569</ele>
        <time>2019-06-21T10:25:41Z</time>
      </trkpt>
      <trkpt lat="43.343333" lon="-8.344976">
        <ele>38.196</ele>
        <time>2019-06-21T10:25:42Z</time>
      </trkpt>
      <trkpt lat="43.343193" lon="-8.344955">
        <ele>39.762</ele>
        <time>2019-06-21T10:25:43Z</time>
      </trkpt>
      <trkpt lat="43.343057" lon="-8.344938">
        <ele>41.276</ele>
        <time>2019-06-21T10:25:44Z</time>
      </trkpt>
      <trkpt lat="43.342917" lon="-8.344922">
        <ele>43.888</ele>
        <time>2019-06-21T10:25:45Z</time>
      </trkpt>
      <trkpt lat="43.342797" lon="-8.344917">
        <ele>46.053</ele>
        <time>2019-06-21T10:25:46Z</time>
      </trkpt>
      <trkpt lat="43.342678" lon="-8.344928">
        <ele>46.604</ele>
        <time>2019-06-21T10:25:47Z</time>
      </trkpt>
      <trkpt lat="43.342578" lon="-8.344998">
        <ele>46.714</ele>
        <time>2019-06-21T10:25:48Z</time>
      </trkpt>
      <trkpt lat="43.342490" lon="-8.345074">
        <ele>47.008</ele>
        <time>2019-06-21T10:25:49Z</time>
      </trkpt>
      <trkpt lat="43.342398" lon="-8.345193">
        <ele>47.488</ele>
        <time>2019-06-21T10:25:50Z</time>
      </trkpt>
      <trkpt lat="43.342312" lon="-8.345332">
        <ele>47.542</ele>
        <time>2019-06-21T10:25:51Z</time>
      </trkpt>
      <trkpt lat="43.342226" lon="-8.345481">
        <ele>47.344</ele>
        <time>2019-06-21T10:25:52Z</time>
      </trkpt>
      <trkpt lat="43.342126" lon="-8.345616">
        <ele>47.136</ele>
        <time>2019-06-21T10:25:53Z</time>
      </trkpt>
      <trkpt lat="43.342030" lon="-8.345760">
        <ele>47.093</ele>
        <time>2019-06-21T10:25:54Z</time>
      </trkpt>
      <trkpt lat="43.341936" lon="-8.345908">
        <ele>46.759</ele>
        <time>2019-06-21T10:25:55Z</time>
      </trkpt>
      <trkpt lat="43.341840" lon="-8.346057">
        <ele>46.263</ele>
        <time>2019-06-21T10:25:56Z</time>
      </trkpt>
      <trkpt lat="43.341753" lon="-8.346198">
        <ele>46.315</ele>
        <time>2019-06-21T10:25:57Z</time>
      </trkpt>
      <trkpt lat="43.341673" lon="-8.346335">
        <ele>46.885</ele>
        <time>2019-06-21T10:25:58Z</time>
      </trkpt>
      <trkpt lat="43.341612" lon="-8.346426">
        <ele>46.689</ele>
        <time>2019-06-21T10:25:59Z</time>
      </trkpt>
      <trkpt lat="43.341555" lon="-8.346528">
        <ele>46.217</ele>
        <time>2019-06-21T10:26:00Z</time>
      </trkpt>
      <trkpt lat="43.341517" lon="-8.346620">
        <ele>45.908</ele>
        <time>2019-06-21T10:26:01Z</time>
      </trkpt>
      <trkpt lat="43.341488" lon="-8.346701">
        <ele>45.891</ele>
        <time>2019-06-21T10:26:02Z</time>
      </trkpt>
      <trkpt lat="43.341462" lon="-8.346781">
        <ele>45.655</ele>
        <time>2019-06-21T10:26:03Z</time>
      </trkpt>
      <trkpt lat="43.341440" lon="-8.346866">
        <ele>45.567</ele>
        <time>2019-06-21T10:26:04Z</time>
      </trkpt>
      <trkpt lat="43.341423" lon="-8.346941">
        <ele>45.489</ele>
        <time>2019-06-21T10:26:05Z</time>
      </trkpt>
      <trkpt lat="43.341414" lon="-8.347011">
        <ele>45.276</ele>
        <time>2019-06-21T10:26:06Z</time>
      </trkpt>
      <trkpt lat="43.341404" lon="-8.347079">
        <ele>45.182</ele>
        <time>2019-06-21T10:26:07Z</time>
      </trkpt>
      <trkpt lat="43.341442" lon="-8.347163">
        <ele>45.436</ele>
        <time>2019-06-21T10:26:08Z</time>
      </trkpt>
      <trkpt lat="43.341459" lon="-8.347247">
        <ele>45.548</ele>
        <time>2019-06-21T10:26:09Z</time>
      </trkpt>
      <trkpt lat="43.341458" lon="-8.347347">
        <ele>45.496</ele>
        <time>2019-06-21T10:26:10Z</time>
      </trkpt>
      <trkpt lat="43.341456" lon="-8.347435">
        <ele>45.331</ele>
        <time>2019-06-21T10:26:11Z</time>
      </trkpt>
      <trkpt lat="43.341425" lon="-8.347510">
        <ele>45.124</ele>
        <time>2019-06-21T10:26:12Z</time>
      </trkpt>
      <trkpt lat="43.341378" lon="-8.347589">
        <ele>44.908</ele>
        <time>2019-06-21T10:26:13Z</time>
      </trkpt>
      <trkpt lat="43.341319" lon="-8.347661">
        <ele>44.562</ele>
        <time>2019-06-21T10:26:14Z</time>
      </trkpt>
      <trkpt lat="43.341259" lon="-8.347741">
        <ele>44.166</ele>
        <time>2019-06-21T10:26:15Z</time>
      </trkpt>
      <trkpt lat="43.341204" lon="-8.347831">
        <ele>43.848</ele>
        <time>2019-06-21T10:26:16Z</time>
      </trkpt>
      <trkpt lat="43.341170" lon="-8.347926">
        <ele>43.870</ele>
        <time>2019-06-21T10:26:17Z</time>
      </trkpt>
      <trkpt lat="43.341132" lon="-8.348050">
        <ele>44.147</ele>
        <time>2019-06-21T10:26:18Z</time>
      </trkpt>
      <trkpt lat="43.341096" lon="-8.348167">
        <ele>44.223</ele>
        <time>2019-06-21T10:26:19Z</time>
      </trkpt>
      <trkpt lat="43.341064" lon="-8.348269">
        <ele>44.357</ele>
        <time>2019-06-21T10:26:20Z</time>
      </trkpt>
      <trkpt lat="43.341035" lon="-8.348363">
        <ele>44.249</ele>
        <time>2019-06-21T10:26:21Z</time>
      </trkpt>
      <trkpt lat="43.341011" lon="-8.348462">
        <ele>43.938</ele>
        <time>2019-06-21T10:26:22Z</time>
      </trkpt>
      <trkpt lat="43.340995" lon="-8.348543">
        <ele>43.770</ele>
        <time>2019-06-21T10:26:23Z</time>
      </trkpt>
      <trkpt lat="43.340967" lon="-8.348627">
        <ele>43.417</ele>
        <time>2019-06-21T10:26:24Z</time>
      </trkpt>
      <trkpt lat="43.340941" lon="-8.348711">
        <ele>42.808</ele>
        <time>2019-06-21T10:26:25Z</time>
      </trkpt>
      <trkpt lat="43.340915" lon="-8.348805">
        <ele>42.276</ele>
        <time>2019-06-21T10:26:26Z</time>
      </trkpt>
      <trkpt lat="43.340890" lon="-8.348909">
        <ele>41.710</ele>
        <time>2019-06-21T10:26:27Z</time>
      </trkpt>
      <trkpt lat="43.340864" lon="-8.349015">
        <ele>41.742</ele>
        <time>2019-06-21T10:26:28Z</time>
      </trkpt>
      <trkpt lat="43.340822" lon="-8.349144">
        <ele>41.884</ele>
        <time>2019-06-21T10:26:29Z</time>
      </trkpt>
      <trkpt lat="43.340790" lon="-8.349268">
        <ele>41.891</ele>
        <time>2019-06-21T10:26:30Z</time>
      </trkpt>
      <trkpt lat="43.340756" lon="-8.349425">
        <ele>42.157</ele>
        <time>2019-06-21T10:26:31Z</time>
      </trkpt>
      <trkpt lat="43.340726" lon="-8.349560">
        <ele>41.741</ele>
        <time>2019-06-21T10:26:32Z</time>
      </trkpt>
      <trkpt lat="43.340701" lon="-8.349701">
        <ele>41.183</ele>
        <time>2019-06-21T10:26:33Z</time>
      </trkpt>
      <trkpt lat="43.340677" lon="-8.349846">
        <ele>40.353</ele>
        <time>2019-06-21T10:26:34Z</time>
      </trkpt>
      <trkpt lat="43.340651" lon="-8.349985">
        <ele>39.404</ele>
        <time>2019-06-21T10:26:35Z</time>
      </trkpt>
      <trkpt lat="43.340631" lon="-8.350108">
        <ele>39.014</ele>
        <time>2019-06-21T10:26:36Z</time>
      </trkpt>
      <trkpt lat="43.340605" lon="-8.350250">
        <ele>38.608</ele>
        <time>2019-06-21T10:26:37Z</time>
      </trkpt>
      <trkpt lat="43.340585" lon="-8.350401">
        <ele>38.398</ele>
        <time>2019-06-21T10:26:38Z</time>
      </trkpt>
      <trkpt lat="43.340571" lon="-8.350535">
        <ele>38.282</ele>
        <time>2019-06-21T10:26:39Z</time>
      </trkpt>
      <trkpt lat="43.340549" lon="-8.350686">
        <ele>37.954</ele>
        <time>2019-06-21T10:26:40Z</time>
      </trkpt>
      <trkpt lat="43.340531" lon="-8.350824">
        <ele>37.796</ele>
        <time>2019-06-21T10:26:41Z</time>
      </trkpt>
      <trkpt lat="43.340516" lon="-8.350974">
        <ele>37.193</ele>
        <time>2019-06-21T10:26:42Z</time>
      </trkpt>
      <trkpt lat="43.340494" lon="-8.351119">
        <ele>36.649</ele>
        <time>2019-06-21T10:26:43Z</time>
      </trkpt>
      <trkpt lat="43.340478" lon="-8.351269">
        <ele>36.413</ele>
        <time>2019-06-21T10:26:44Z</time>
      </trkpt>
      <trkpt lat="43.340461" lon="-8.351419">
        <ele>36.285</ele>
        <time>2019-06-21T10:26:45Z</time>
      </trkpt>
      <trkpt lat="43.340436" lon="-8.351569">
        <ele>35.866</ele>
        <time>2019-06-21T10:26:46Z</time>
      </trkpt>
      <trkpt lat="43.340412" lon="-8.351723">
        <ele>35.329</ele>
        <time>2019-06-21T10:26:47Z</time>
      </trkpt>
      <trkpt lat="43.340382" lon="-8.351898">
        <ele>34.521</ele>
        <time>2019-06-21T10:26:48Z</time>
      </trkpt>
      <trkpt lat="43.340363" lon="-8.352070">
        <ele>33.708</ele>
        <time>2019-06-21T10:26:49Z</time>
      </trkpt>
      <trkpt lat="43.340342" lon="-8.352233">
        <ele>33.069</ele>
        <time>2019-06-21T10:26:50Z</time>
      </trkpt>
      <trkpt lat="43.340316" lon="-8.352383">
        <ele>32.453</ele>
        <time>2019-06-21T10:26:51Z</time>
      </trkpt>
      <trkpt lat="43.340303" lon="-8.352539">
        <ele>31.945</ele>
        <time>2019-06-21T10:26:52Z</time>
      </trkpt>
      <trkpt lat="43.340284" lon="-8.352705">
        <ele>31.377</ele>
        <time>2019-06-21T10:26:53Z</time>
      </trkpt>
      <trkpt lat="43.340265" lon="-8.352861">
        <ele>31.094</ele>
        <time>2019-06-21T10:26:54Z</time>
      </trkpt>
      <trkpt lat="43.340242" lon="-8.353022">
        <ele>30.980</ele>
        <time>2019-06-21T10:26:55Z</time>
      </trkpt>
      <trkpt lat="43.340215" lon="-8.353176">
        <ele>30.364</ele>
        <time>2019-06-21T10:26:56Z</time>
      </trkpt>
      <trkpt lat="43.340200" lon="-8.353312">
        <ele>29.886</ele>
        <time>2019-06-21T10:26:57Z</time>
      </trkpt>
      <trkpt lat="43.340179" lon="-8.353483">
        <ele>30.094</ele>
        <time>2019-06-21T10:26:58Z</time>
      </trkpt>
      <trkpt lat="43.340159" lon="-8.353652">
        <ele>30.157</ele>
        <time>2019-06-21T10:26:59Z</time>
      </trkpt>
      <trkpt lat="43.340139" lon="-8.353822">
        <ele>30.022</ele>
        <time>2019-06-21T10:27:00Z</time>
      </trkpt>
      <trkpt lat="43.340119" lon="-8.353974">
        <ele>30.008</ele>
        <time>2019-06-21T10:27:01Z</time>
      </trkpt>
      <trkpt lat="43.340098" lon="-8.354131">
        <ele>30.322</ele>
        <time>2019-06-21T10:27:02Z</time>
      </trkpt>
      <trkpt lat="43.340068" lon="-8.354289">
        <ele>30.446</ele>
        <time>2019-06-21T10:27:03Z</time>
      </trkpt>
      <trkpt lat="43.340051" lon="-8.354454">
        <ele>30.398</ele>
        <time>2019-06-21T10:27:04Z</time>
      </trkpt>
      <trkpt lat="43.340028" lon="-8.354612">
        <ele>29.720</ele>
        <time>2019-06-21T10:27:05Z</time>
      </trkpt>
      <trkpt lat="43.340007" lon="-8.354766">
        <ele>29.197</ele>
        <time>2019-06-21T10:27:06Z</time>
      </trkpt>
      <trkpt lat="43.339990" lon="-8.354905">
        <ele>29.043</ele>
        <time>2019-06-21T10:27:07Z</time>
      </trkpt>
      <trkpt lat="43.339971" lon="-8.355067">
        <ele>28.497</ele>
        <time>2019-06-21T10:27:08Z</time>
      </trkpt>
      <trkpt lat="43.339946" lon="-8.355237">
        <ele>27.199</ele>
        <time>2019-06-21T10:27:09Z</time>
      </trkpt>
      <trkpt lat="43.339928" lon="-8.355400">
        <ele>26.663</ele>
        <time>2019-06-21T10:27:10Z</time>
      </trkpt>
      <trkpt lat="43.339913" lon="-8.355548">
        <ele>26.444</ele>
        <time>2019-06-21T10:27:11Z</time>
      </trkpt>
      <trkpt lat="43.339891" lon="-8.355715">
        <ele>25.918</ele>
        <time>2019-06-21T10:27:12Z</time>
      </trkpt>
      <trkpt lat="43.339874" lon="-8.355858">
        <ele>25.608</ele>
        <time>2019-06-21T10:27:13Z</time>
      </trkpt>
      <trkpt lat="43.339848" lon="-8.356030">
        <ele>26.279</ele>
        <time>2019-06-21T10:27:14Z</time>
      </trkpt>
      <trkpt lat="43.339835" lon="-8.356180">
        <ele>26.513</ele>
        <time>2019-06-21T10:27:15Z</time>
      </trkpt>
      <trkpt lat="43.339814" lon="-8.356335">
        <ele>26.645</ele>
        <time>2019-06-21T10:27:16Z</time>
      </trkpt>
      <trkpt lat="43.339788" lon="-8.356480">
        <ele>26.197</ele>
        <time>2019-06-21T10:27:17Z</time>
      </trkpt>
      <trkpt lat="43.339769" lon="-8.356625">
        <ele>25.514</ele>
        <time>2019-06-21T10:27:18Z</time>
      </trkpt>
      <trkpt lat="43.339746" lon="-8.356781">
        <ele>24.890</ele>
        <time>2019-06-21T10:27:19Z</time>
      </trkpt>
      <trkpt lat="43.339724" lon="-8.356935">
        <ele>24.074</ele>
        <time>2019-06-21T10:27:20Z</time>
      </trkpt>
      <trkpt lat="43.339704" lon="-8.357080">
        <ele>23.496</ele>
        <time>2019-06-21T10:27:21Z</time>
      </trkpt>
      <trkpt lat="43.339687" lon="-8.357229">
        <ele>22.848</ele>
        <time>2019-06-21T10:27:22Z</time>
      </trkpt>
      <trkpt lat="43.339673" lon="-8.357373">
        <ele>21.861</ele>
        <time>2019-06-21T10:27:23Z</time>
      </trkpt>
      <trkpt lat="43.339653" lon="-8.357519">
        <ele>20.917</ele>
        <time>2019-06-21T10:27:24Z</time>
      </trkpt>
      <trkpt lat="43.339641" lon="-8.357671">
        <ele>20.208</ele>
        <time>2019-06-21T10:27:25Z</time>
      </trkpt>
      <trkpt lat="43.339626" lon="-8.357803">
        <ele>19.697</ele>
        <time>2019-06-21T10:27:26Z</time>
      </trkpt>
      <trkpt lat="43.339601" lon="-8.357951">
        <ele>18.981</ele>
        <time>2019-06-21T10:27:27Z</time>
      </trkpt>
      <trkpt lat="43.339576" lon="-8.358091">
        <ele>18.583</ele>
        <time>2019-06-21T10:27:28Z</time>
      </trkpt>
      <trkpt lat="43.339558" lon="-8.358220">
        <ele>18.465</ele>
        <time>2019-06-21T10:27:29Z</time>
      </trkpt>
      <trkpt lat="43.339550" lon="-8.358344">
        <ele>18.372</ele>
        <time>2019-06-21T10:27:30Z</time>
      </trkpt>
      <trkpt lat="43.339554" lon="-8.358439">
        <ele>18.078</ele>
        <time>2019-06-21T10:27:31Z</time>
      </trkpt>
      <trkpt lat="43.339545" lon="-8.358519">
        <ele>17.782</ele>
        <time>2019-06-21T10:27:32Z</time>
      </trkpt>
      <trkpt lat="43.339541" lon="-8.358581">
        <ele>17.544</ele>
        <time>2019-06-21T10:27:33Z</time>
      </trkpt>
      <trkpt lat="43.339548" lon="-8.358670">
        <ele>17.321</ele>
        <time>2019-06-21T10:27:35Z</time>
      </trkpt>
      <trkpt lat="43.339566" lon="-8.358768">
        <ele>17.241</ele>
        <time>2019-06-21T10:27:37Z</time>
      </trkpt>
      <trkpt lat="43.339584" lon="-8.358827">
        <ele>17.105</ele>
        <time>2019-06-21T10:27:38Z</time>
      </trkpt>
      <trkpt lat="43.339606" lon="-8.358903">
        <ele>17.008</ele>
        <time>2019-06-21T10:27:39Z</time>
      </trkpt>
      <trkpt lat="43.339615" lon="-8.358996">
        <ele>16.925</ele>
        <time>2019-06-21T10:27:40Z</time>
      </trkpt>
      <trkpt lat="43.339632" lon="-8.359095">
        <ele>16.869</ele>
        <time>2019-06-21T10:27:41Z</time>
      </trkpt>
      <trkpt lat="43.339629" lon="-8.359184">
        <ele>16.651</ele>
        <time>2019-06-21T10:27:42Z</time>
      </trkpt>
      <trkpt lat="43.339597" lon="-8.359277">
        <ele>16.323</ele>
        <time>2019-06-21T10:27:43Z</time>
      </trkpt>
      <trkpt lat="43.339553" lon="-8.359365">
        <ele>16.190</ele>
        <time>2019-06-21T10:27:44Z</time>
      </trkpt>
      <trkpt lat="43.339487" lon="-8.359444">
        <ele>16.026</ele>
        <time>2019-06-21T10:27:45Z</time>
      </trkpt>
      <trkpt lat="43.339432" lon="-8.359516">
        <ele>15.770</ele>
        <time>2019-06-21T10:27:46Z</time>
      </trkpt>
      <trkpt lat="43.339382" lon="-8.359596">
        <ele>15.052</ele>
        <time>2019-06-21T10:27:47Z</time>
      </trkpt>
      <trkpt lat="43.339358" lon="-8.359725">
        <ele>14.427</ele>
        <time>2019-06-21T10:27:48Z</time>
      </trkpt>
      <trkpt lat="43.339337" lon="-8.359863">
        <ele>13.968</ele>
        <time>2019-06-21T10:27:49Z</time>
      </trkpt>
      <trkpt lat="43.339316" lon="-8.360012">
        <ele>13.514</ele>
        <time>2019-06-21T10:27:50Z</time>
      </trkpt>
      <trkpt lat="43.339289" lon="-8.360172">
        <ele>12.808</ele>
        <time>2019-06-21T10:27:51Z</time>
      </trkpt>
      <trkpt lat="43.339270" lon="-8.360328">
        <ele>12.145</ele>
        <time>2019-06-21T10:27:52Z</time>
      </trkpt>
      <trkpt lat="43.339253" lon="-8.360480">
        <ele>11.469</ele>
        <time>2019-06-21T10:27:53Z</time>
      </trkpt>
      <trkpt lat="43.339236" lon="-8.360636">
        <ele>10.981</ele>
        <time>2019-06-21T10:27:54Z</time>
      </trkpt>
      <trkpt lat="43.339212" lon="-8.360776">
        <ele>10.913</ele>
        <time>2019-06-21T10:27:55Z</time>
      </trkpt>
      <trkpt lat="43.339183" lon="-8.360932">
        <ele>10.670</ele>
        <time>2019-06-21T10:27:56Z</time>
      </trkpt>
      <trkpt lat="43.339162" lon="-8.361092">
        <ele>10.156</ele>
        <time>2019-06-21T10:27:57Z</time>
      </trkpt>
      <trkpt lat="43.339140" lon="-8.361247">
        <ele>11.450</ele>
        <time>2019-06-21T10:27:58Z</time>
      </trkpt>
      <trkpt lat="43.339119" lon="-8.361404">
        <ele>12.832</ele>
        <time>2019-06-21T10:27:59Z</time>
      </trkpt>
      <trkpt lat="43.339104" lon="-8.361563">
        <ele>13.962</ele>
        <time>2019-06-21T10:28:00Z</time>
      </trkpt>
      <trkpt lat="43.339085" lon="-8.361727">
        <ele>15.083</ele>
        <time>2019-06-21T10:28:01Z</time>
      </trkpt>
      <trkpt lat="43.339061" lon="-8.361910">
        <ele>16.511</ele>
        <time>2019-06-21T10:28:02Z</time>
      </trkpt>
      <trkpt lat="43.339036" lon="-8.362081">
        <ele>17.208</ele>
        <time>2019-06-21T10:28:03Z</time>
      </trkpt>
      <trkpt lat="43.339019" lon="-8.362258">
        <ele>17.569</ele>
        <time>2019-06-21T10:28:04Z</time>
      </trkpt>
      <trkpt lat="43.339001" lon="-8.362438">
        <ele>17.683</ele>
        <time>2019-06-21T10:28:05Z</time>
      </trkpt>
      <trkpt lat="43.338980" lon="-8.362629">
        <ele>17.775</ele>
        <time>2019-06-21T10:28:06Z</time>
      </trkpt>
      <trkpt lat="43.338951" lon="-8.362820">
        <ele>18.177</ele>
        <time>2019-06-21T10:28:07Z</time>
      </trkpt>
      <trkpt lat="43.338938" lon="-8.363005">
        <ele>18.284</ele>
        <time>2019-06-21T10:28:08Z</time>
      </trkpt>
      <trkpt lat="43.338933" lon="-8.363197">
        <ele>17.860</ele>
        <time>2019-06-21T10:28:09Z</time>
      </trkpt>
      <trkpt lat="43.338939" lon="-8.363365">
        <ele>17.124</ele>
        <time>2019-06-21T10:28:10Z</time>
      </trkpt>
      <trkpt lat="43.338958" lon="-8.363527">
        <ele>16.086</ele>
        <time>2019-06-21T10:28:11Z</time>
      </trkpt>
      <trkpt lat="43.338981" lon="-8.363685">
        <ele>15.083</ele>
        <time>2019-06-21T10:28:12Z</time>
      </trkpt>
      <trkpt lat="43.339013" lon="-8.363844">
        <ele>14.325</ele>
        <time>2019-06-21T10:28:13Z</time>
      </trkpt>
      <trkpt lat="43.339049" lon="-8.364003">
        <ele>14.017</ele>
        <time>2019-06-21T10:28:14Z</time>
      </trkpt>
      <trkpt lat="43.339083" lon="-8.364170">
        <ele>14.208</ele>
        <time>2019-06-21T10:28:15Z</time>
      </trkpt>
      <trkpt lat="43.339133" lon="-8.364336">
        <ele>14.751</ele>
        <time>2019-06-21T10:28:16Z</time>
      </trkpt>
      <trkpt lat="43.339193" lon="-8.364498">
        <ele>15.385</ele>
        <time>2019-06-21T10:28:17Z</time>
      </trkpt>
      <trkpt lat="43.339254" lon="-8.364617">
        <ele>15.737</ele>
        <time>2019-06-21T10:28:18Z</time>
      </trkpt>
      <trkpt lat="43.339328" lon="-8.364766">
        <ele>16.259</ele>
        <time>2019-06-21T10:28:19Z</time>
      </trkpt>
      <trkpt lat="43.339407" lon="-8.364925">
        <ele>16.356</ele>
        <time>2019-06-21T10:28:20Z</time>
      </trkpt>
      <trkpt lat="43.339493" lon="-8.365072">
        <ele>17.812</ele>
        <time>2019-06-21T10:28:21Z</time>
      </trkpt>
      <trkpt lat="43.339576" lon="-8.365228">
        <ele>21.756</ele>
        <time>2019-06-21T10:28:22Z</time>
      </trkpt>
      <trkpt lat="43.339666" lon="-8.365383">
        <ele>26.048</ele>
        <time>2019-06-21T10:28:23Z</time>
      </trkpt>
      <trkpt lat="43.339754" lon="-8.365538">
        <ele>30.347</ele>
        <time>2019-06-21T10:28:24Z</time>
      </trkpt>
      <trkpt lat="43.339844" lon="-8.365695">
        <ele>31.729</ele>
        <time>2019-06-21T10:28:25Z</time>
      </trkpt>
      <trkpt lat="43.339934" lon="-8.365861">
        <ele>31.921</ele>
        <time>2019-06-21T10:28:26Z</time>
      </trkpt>
      <trkpt lat="43.340018" lon="-8.366016">
        <ele>30.108</ele>
        <time>2019-06-21T10:28:27Z</time>
      </trkpt>
      <trkpt lat="43.340117" lon="-8.366161">
        <ele>28.777</ele>
        <time>2019-06-21T10:28:28Z</time>
      </trkpt>
      <trkpt lat="43.340205" lon="-8.366323">
        <ele>27.241</ele>
        <time>2019-06-21T10:28:29Z</time>
      </trkpt>
      <trkpt lat="43.340298" lon="-8.366481">
        <ele>26.223</ele>
        <time>2019-06-21T10:28:30Z</time>
      </trkpt>
      <trkpt lat="43.340388" lon="-8.366646">
        <ele>26.275</ele>
        <time>2019-06-21T10:28:31Z</time>
      </trkpt>
      <trkpt lat="43.340478" lon="-8.366802">
        <ele>25.752</ele>
        <time>2019-06-21T10:28:32Z</time>
      </trkpt>
      <trkpt lat="43.340574" lon="-8.366967">
        <ele>25.138</ele>
        <time>2019-06-21T10:28:33Z</time>
      </trkpt>
      <trkpt lat="43.340665" lon="-8.367132">
        <ele>25.722</ele>
        <time>2019-06-21T10:28:34Z</time>
      </trkpt>
      <trkpt lat="43.340756" lon="-8.367293">
        <ele>26.144</ele>
        <time>2019-06-21T10:28:35Z</time>
      </trkpt>
      <trkpt lat="43.340844" lon="-8.367458">
        <ele>27.553</ele>
        <time>2019-06-21T10:28:36Z</time>
      </trkpt>
      <trkpt lat="43.340930" lon="-8.367616">
        <ele>28.804</ele>
        <time>2019-06-21T10:28:37Z</time>
      </trkpt>
      <trkpt lat="43.341018" lon="-8.367758">
        <ele>30.414</ele>
        <time>2019-06-21T10:28:38Z</time>
      </trkpt>
      <trkpt lat="43.341099" lon="-8.367918">
        <ele>32.508</ele>
        <time>2019-06-21T10:28:39Z</time>
      </trkpt>
      <trkpt lat="43.341179" lon="-8.368073">
        <ele>33.478</ele>
        <time>2019-06-21T10:28:40Z</time>
      </trkpt>
      <trkpt lat="43.341267" lon="-8.368225">
        <ele>33.692</ele>
        <time>2019-06-21T10:28:41Z</time>
      </trkpt>
      <trkpt lat="43.341346" lon="-8.368367">
        <ele>34.234</ele>
        <time>2019-06-21T10:28:42Z</time>
      </trkpt>
      <trkpt lat="43.341423" lon="-8.368506">
        <ele>33.866</ele>
        <time>2019-06-21T10:28:43Z</time>
      </trkpt>
      <trkpt lat="43.341478" lon="-8.368635">
        <ele>33.763</ele>
        <time>2019-06-21T10:28:44Z</time>
      </trkpt>
      <trkpt lat="43.341525" lon="-8.368754">
        <ele>33.839</ele>
        <time>2019-06-21T10:28:45Z</time>
      </trkpt>
      <trkpt lat="43.341551" lon="-8.368861">
        <ele>33.973</ele>
        <time>2019-06-21T10:28:46Z</time>
      </trkpt>
      <trkpt lat="43.341570" lon="-8.368965">
        <ele>34.055</ele>
        <time>2019-06-21T10:28:47Z</time>
      </trkpt>
      <trkpt lat="43.341561" lon="-8.369030">
        <ele>34.015</ele>
        <time>2019-06-21T10:28:48Z</time>
      </trkpt>
      <trkpt lat="43.341569" lon="-8.369171">
        <ele>34.065</ele>
        <time>2019-06-21T10:28:50Z</time>
      </trkpt>
      <trkpt lat="43.341576" lon="-8.369246">
        <ele>34.011</ele>
        <time>2019-06-21T10:28:51Z</time>
      </trkpt>
      <trkpt lat="43.341573" lon="-8.369348">
        <ele>34.008</ele>
        <time>2019-06-21T10:28:52Z</time>
      </trkpt>
      <trkpt lat="43.341557" lon="-8.369448">
        <ele>34.054</ele>
        <time>2019-06-21T10:28:53Z</time>
      </trkpt>
      <trkpt lat="43.341536" lon="-8.369543">
        <ele>34.048</ele>
        <time>2019-06-21T10:28:54Z</time>
      </trkpt>
      <trkpt lat="43.341480" lon="-8.369652">
        <ele>34.060</ele>
        <time>2019-06-21T10:28:55Z</time>
      </trkpt>
      <trkpt lat="43.341434" lon="-8.369753">
        <ele>33.912</ele>
        <time>2019-06-21T10:28:56Z</time>
      </trkpt>
      <trkpt lat="43.341356" lon="-8.369871">
        <ele>33.659</ele>
        <time>2019-06-21T10:28:57Z</time>
      </trkpt>
      <trkpt lat="43.341274" lon="-8.369981">
        <ele>33.585</ele>
        <time>2019-06-21T10:28:58Z</time>
      </trkpt>
      <trkpt lat="43.341188" lon="-8.370089">
        <ele>33.379</ele>
        <time>2019-06-21T10:28:59Z</time>
      </trkpt>
      <trkpt lat="43.341090" lon="-8.370200">
        <ele>33.471</ele>
        <time>2019-06-21T10:29:00Z</time>
      </trkpt>
      <trkpt lat="43.340999" lon="-8.370312">
        <ele>33.786</ele>
        <time>2019-06-21T10:29:01Z</time>
      </trkpt>
      <trkpt lat="43.340905" lon="-8.370425">
        <ele>34.060</ele>
        <time>2019-06-21T10:29:02Z</time>
      </trkpt>
      <trkpt lat="43.340811" lon="-8.370541">
        <ele>34.326</ele>
        <time>2019-06-21T10:29:03Z</time>
      </trkpt>
      <trkpt lat="43.340719" lon="-8.370650">
        <ele>34.608</ele>
        <time>2019-06-21T10:29:04Z</time>
      </trkpt>
      <trkpt lat="43.340620" lon="-8.370756">
        <ele>34.941</ele>
        <time>2019-06-21T10:29:05Z</time>
      </trkpt>
      <trkpt lat="43.340522" lon="-8.370868">
        <ele>35.145</ele>
        <time>2019-06-21T10:29:06Z</time>
      </trkpt>
      <trkpt lat="43.340419" lon="-8.370989">
        <ele>35.377</ele>
        <time>2019-06-21T10:29:07Z</time>
      </trkpt>
      <trkpt lat="43.340331" lon="-8.371101">
        <ele>35.389</ele>
        <time>2019-06-21T10:29:08Z</time>
      </trkpt>
      <trkpt lat="43.340236" lon="-8.371198">
        <ele>35.776</ele>
        <time>2019-06-21T10:29:09Z</time>
      </trkpt>
      <trkpt lat="43.340137" lon="-8.371306">
        <ele>35.972</ele>
        <time>2019-06-21T10:29:10Z</time>
      </trkpt>
      <trkpt lat="43.340039" lon="-8.371421">
        <ele>36.236</ele>
        <time>2019-06-21T10:29:11Z</time>
      </trkpt>
      <trkpt lat="43.339940" lon="-8.371529">
        <ele>36.428</ele>
        <time>2019-06-21T10:29:12Z</time>
      </trkpt>
      <trkpt lat="43.339842" lon="-8.371626">
        <ele>36.466</ele>
        <time>2019-06-21T10:29:13Z</time>
      </trkpt>
      <trkpt lat="43.339742" lon="-8.371708">
        <ele>36.429</ele>
        <time>2019-06-21T10:29:14Z</time>
      </trkpt>
      <trkpt lat="43.339637" lon="-8.371781">
        <ele>36.621</ele>
        <time>2019-06-21T10:29:15Z</time>
      </trkpt>
      <trkpt lat="43.339520" lon="-8.371858">
        <ele>36.608</ele>
        <time>2019-06-21T10:29:16Z</time>
      </trkpt>
      <trkpt lat="43.339403" lon="-8.371930">
        <ele>36.469</ele>
        <time>2019-06-21T10:29:17Z</time>
      </trkpt>
      <trkpt lat="43.339293" lon="-8.371993">
        <ele>35.853</ele>
        <time>2019-06-21T10:29:18Z</time>
      </trkpt>
      <trkpt lat="43.339192" lon="-8.372050">
        <ele>35.455</ele>
        <time>2019-06-21T10:29:19Z</time>
      </trkpt>
      <trkpt lat="43.339094" lon="-8.372092">
        <ele>35.447</ele>
        <time>2019-06-21T10:29:20Z</time>
      </trkpt>
      <trkpt lat="43.338996" lon="-8.372135">
        <ele>35.524</ele>
        <time>2019-06-21T10:29:21Z</time>
      </trkpt>
      <trkpt lat="43.338898" lon="-8.372169">
        <ele>35.740</ele>
        <time>2019-06-21T10:29:22Z</time>
      </trkpt>
      <trkpt lat="43.338798" lon="-8.372210">
        <ele>35.534</ele>
        <time>2019-06-21T10:29:23Z</time>
      </trkpt>
      <trkpt lat="43.338701" lon="-8.372263">
        <ele>34.986</ele>
        <time>2019-06-21T10:29:24Z</time>
      </trkpt>
      <trkpt lat="43.338596" lon="-8.372311">
        <ele>34.418</ele>
        <time>2019-06-21T10:29:25Z</time>
      </trkpt>
      <trkpt lat="43.338497" lon="-8.372355">
        <ele>33.698</ele>
        <time>2019-06-21T10:29:26Z</time>
      </trkpt>
      <trkpt lat="43.338415" lon="-8.372402">
        <ele>33.017</ele>
        <time>2019-06-21T10:29:27Z</time>
      </trkpt>
      <trkpt lat="43.338339" lon="-8.372436">
        <ele>32.708</ele>
        <time>2019-06-21T10:29:28Z</time>
      </trkpt>
      <trkpt lat="43.338285" lon="-8.372464">
        <ele>32.244</ele>
        <time>2019-06-21T10:29:29Z</time>
      </trkpt>
      <trkpt lat="43.338225" lon="-8.372483">
        <ele>31.868</ele>
        <time>2019-06-21T10:29:31Z</time>
      </trkpt>
      <trkpt lat="43.338148" lon="-8.372492">
        <ele>31.440</ele>
        <time>2019-06-21T10:29:34Z</time>
      </trkpt>
      <trkpt lat="43.338092" lon="-8.372516">
        <ele>31.012</ele>
        <time>2019-06-21T10:29:35Z</time>
      </trkpt>
      <trkpt lat="43.338044" lon="-8.372539">
        <ele>30.599</ele>
        <time>2019-06-21T10:29:36Z</time>
      </trkpt>
      <trkpt lat="43.338001" lon="-8.372570">
        <ele>30.115</ele>
        <time>2019-06-21T10:29:37Z</time>
      </trkpt>
      <trkpt lat="43.337944" lon="-8.372589">
        <ele>29.899</ele>
        <time>2019-06-21T10:29:39Z</time>
      </trkpt>
      <trkpt lat="43.337907" lon="-8.372630">
        <ele>29.311</ele>
        <time>2019-06-21T10:29:46Z</time>
      </trkpt>
      <trkpt lat="43.337851" lon="-8.372652">
        <ele>29.047</ele>
        <time>2019-06-21T10:29:48Z</time>
      </trkpt>
      <trkpt lat="43.337780" lon="-8.372711">
        <ele>28.529</ele>
        <time>2019-06-21T10:29:50Z</time>
      </trkpt>
      <trkpt lat="43.337731" lon="-8.372738">
        <ele>28.521</ele>
        <time>2019-06-21T10:29:51Z</time>
      </trkpt>
      <trkpt lat="43.337689" lon="-8.372779">
        <ele>28.308</ele>
        <time>2019-06-21T10:29:52Z</time>
      </trkpt>
      <trkpt lat="43.337644" lon="-8.372826">
        <ele>28.217</ele>
        <time>2019-06-21T10:29:53Z</time>
      </trkpt>
      <trkpt lat="43.337600" lon="-8.372871">
        <ele>28.271</ele>
        <time>2019-06-21T10:29:54Z</time>
      </trkpt>
      <trkpt lat="43.337557" lon="-8.372919">
        <ele>28.263</ele>
        <time>2019-06-21T10:29:55Z</time>
      </trkpt>
      <trkpt lat="43.337523" lon="-8.372966">
        <ele>28.215</ele>
        <time>2019-06-21T10:29:56Z</time>
      </trkpt>
      <trkpt lat="43.337485" lon="-8.373027">
        <ele>28.292</ele>
        <time>2019-06-21T10:29:57Z</time>
      </trkpt>
      <trkpt lat="43.337444" lon="-8.373095">
        <ele>28.448</ele>
        <time>2019-06-21T10:29:58Z</time>
      </trkpt>
      <trkpt lat="43.337399" lon="-8.373170">
        <ele>28.712</ele>
        <time>2019-06-21T10:29:59Z</time>
      </trkpt>
      <trkpt lat="43.337355" lon="-8.373256">
        <ele>29.024</ele>
        <time>2019-06-21T10:30:00Z</time>
      </trkpt>
      <trkpt lat="43.337313" lon="-8.373344">
        <ele>29.338</ele>
        <time>2019-06-21T10:30:01Z</time>
      </trkpt>
      <trkpt lat="43.337267" lon="-8.373433">
        <ele>29.670</ele>
        <time>2019-06-21T10:30:02Z</time>
      </trkpt>
      <trkpt lat="43.337222" lon="-8.373533">
        <ele>30.017</ele>
        <time>2019-06-21T10:30:03Z</time>
      </trkpt>
      <trkpt lat="43.337177" lon="-8.373632">
        <ele>30.308</ele>
        <time>2019-06-21T10:30:04Z</time>
      </trkpt>
      <trkpt lat="43.337136" lon="-8.373716">
        <ele>30.416</ele>
        <time>2019-06-21T10:30:05Z</time>
      </trkpt>
      <trkpt lat="43.337077" lon="-8.373811">
        <ele>30.760</ele>
        <time>2019-06-21T10:30:06Z</time>
      </trkpt>
      <trkpt lat="43.337025" lon="-8.373906">
        <ele>31.192</ele>
        <time>2019-06-21T10:30:07Z</time>
      </trkpt>
      <trkpt lat="43.336971" lon="-8.374004">
        <ele>31.394</ele>
        <time>2019-06-21T10:30:08Z</time>
      </trkpt>
      <trkpt lat="43.336920" lon="-8.374091">
        <ele>31.461</ele>
        <time>2019-06-21T10:30:09Z</time>
      </trkpt>
      <trkpt lat="43.336863" lon="-8.374191">
        <ele>31.137</ele>
        <time>2019-06-21T10:30:10Z</time>
      </trkpt>
      <trkpt lat="43.336804" lon="-8.374303">
        <ele>30.561</ele>
        <time>2019-06-21T10:30:11Z</time>
      </trkpt>
      <trkpt lat="43.336756" lon="-8.374421">
        <ele>29.843</ele>
        <time>2019-06-21T10:30:12Z</time>
      </trkpt>
      <trkpt lat="43.336697" lon="-8.374541">
        <ele>29.261</ele>
        <time>2019-06-21T10:30:13Z</time>
      </trkpt>
      <trkpt lat="43.336635" lon="-8.374656">
        <ele>28.621</ele>
        <time>2019-06-21T10:30:14Z</time>
      </trkpt>
      <trkpt lat="43.336574" lon="-8.374771">
        <ele>28.113</ele>
        <time>2019-06-21T10:30:15Z</time>
      </trkpt>
      <trkpt lat="43.336508" lon="-8.374877">
        <ele>27.708</ele>
        <time>2019-06-21T10:30:16Z</time>
      </trkpt>
      <trkpt lat="43.336449" lon="-8.374987">
        <ele>27.169</ele>
        <time>2019-06-21T10:30:17Z</time>
      </trkpt>
      <trkpt lat="43.336394" lon="-8.375094">
        <ele>26.783</ele>
        <time>2019-06-21T10:30:18Z</time>
      </trkpt>
      <trkpt lat="43.336330" lon="-8.375194">
        <ele>26.235</ele>
        <time>2019-06-21T10:30:19Z</time>
      </trkpt>
      <trkpt lat="43.336275" lon="-8.375287">
        <ele>25.577</ele>
        <time>2019-06-21T10:30:20Z</time>
      </trkpt>
      <trkpt lat="43.336224" lon="-8.375386">
        <ele>24.654</ele>
        <time>2019-06-21T10:30:21Z</time>
      </trkpt>
      <trkpt lat="43.336173" lon="-8.375476">
        <ele>23.850</ele>
        <time>2019-06-21T10:30:22Z</time>
      </trkpt>
      <trkpt lat="43.336129" lon="-8.375566">
        <ele>23.074</ele>
        <time>2019-06-21T10:30:23Z</time>
      </trkpt>
      <trkpt lat="43.336080" lon="-8.375645">
        <ele>22.846</ele>
        <time>2019-06-21T10:30:24Z</time>
      </trkpt>
      <trkpt lat="43.336033" lon="-8.375727">
        <ele>22.896</ele>
        <time>2019-06-21T10:30:25Z</time>
      </trkpt>
      <trkpt lat="43.335989" lon="-8.375805">
        <ele>22.931</ele>
        <time>2019-06-21T10:30:26Z</time>
      </trkpt>
      <trkpt lat="43.335945" lon="-8.375881">
        <ele>23.024</ele>
        <time>2019-06-21T10:30:27Z</time>
      </trkpt>
      <trkpt lat="43.335921" lon="-8.375976">
        <ele>22.708</ele>
        <time>2019-06-21T10:30:29Z</time>
      </trkpt>
      <trkpt lat="43.335872" lon="-8.376058">
        <ele>22.832</ele>
        <time>2019-06-21T10:30:31Z</time>
      </trkpt>
      <trkpt lat="43.335838" lon="-8.376103">
        <ele>23.056</ele>
        <time>2019-06-21T10:30:33Z</time>
      </trkpt>
      <trkpt lat="43.335787" lon="-8.376132">
        <ele>23.598</ele>
        <time>2019-06-21T10:30:40Z</time>
      </trkpt>
      <trkpt lat="43.335741" lon="-8.376207">
        <ele>23.630</ele>
        <time>2019-06-21T10:30:42Z</time>
      </trkpt>
      <trkpt lat="43.335705" lon="-8.376266">
        <ele>23.777</ele>
        <time>2019-06-21T10:30:43Z</time>
      </trkpt>
      <trkpt lat="43.335673" lon="-8.376326">
        <ele>23.863</ele>
        <time>2019-06-21T10:30:44Z</time>
      </trkpt>
      <trkpt lat="43.335642" lon="-8.376372">
        <ele>23.987</ele>
        <time>2019-06-21T10:30:45Z</time>
      </trkpt>
      <trkpt lat="43.335609" lon="-8.376420">
        <ele>23.919</ele>
        <time>2019-06-21T10:30:46Z</time>
      </trkpt>
      <trkpt lat="43.335539" lon="-8.376493">
        <ele>23.959</ele>
        <time>2019-06-21T10:30:48Z</time>
      </trkpt>
      <trkpt lat="43.335497" lon="-8.376554">
        <ele>23.303</ele>
        <time>2019-06-21T10:30:49Z</time>
      </trkpt>
      <trkpt lat="43.335446" lon="-8.376629">
        <ele>22.523</ele>
        <time>2019-06-21T10:30:50Z</time>
      </trkpt>
      <trkpt lat="43.335389" lon="-8.376719">
        <ele>21.408</ele>
        <time>2019-06-21T10:30:51Z</time>
      </trkpt>
      <trkpt lat="43.335331" lon="-8.376804">
        <ele>20.528</ele>
        <time>2019-06-21T10:30:52Z</time>
      </trkpt>
      <trkpt lat="43.335269" lon="-8.376884">
        <ele>19.732</ele>
        <time>2019-06-21T10:30:53Z</time>
      </trkpt>
      <trkpt lat="43.335199" lon="-8.376971">
        <ele>19.544</ele>
        <time>2019-06-21T10:30:54Z</time>
      </trkpt>
      <trkpt lat="43.335131" lon="-8.377067">
        <ele>19.656</ele>
        <time>2019-06-21T10:30:55Z</time>
      </trkpt>
      <trkpt lat="43.335058" lon="-8.377166">
        <ele>19.813</ele>
        <time>2019-06-21T10:30:56Z</time>
      </trkpt>
      <trkpt lat="43.334990" lon="-8.377254">
        <ele>20.089</ele>
        <time>2019-06-21T10:30:57Z</time>
      </trkpt>
      <trkpt lat="43.334932" lon="-8.377339">
        <ele>20.113</ele>
        <time>2019-06-21T10:30:58Z</time>
      </trkpt>
      <trkpt lat="43.334884" lon="-8.377415">
        <ele>20.135</ele>
        <time>2019-06-21T10:30:59Z</time>
      </trkpt>
      <trkpt lat="43.334844" lon="-8.377467">
        <ele>20.258</ele>
        <time>2019-06-21T10:31:00Z</time>
      </trkpt>
      <trkpt lat="43.334807" lon="-8.377516">
        <ele>20.352</ele>
        <time>2019-06-21T10:31:01Z</time>
      </trkpt>
      <trkpt lat="43.334769" lon="-8.377581">
        <ele>20.417</ele>
        <time>2019-06-21T10:31:03Z</time>
      </trkpt>
      <trkpt lat="43.334749" lon="-8.377643">
        <ele>20.308</ele>
        <time>2019-06-21T10:31:11Z</time>
      </trkpt>
      <trkpt lat="43.334728" lon="-8.377704">
        <ele>20.288</ele>
        <time>2019-06-21T10:31:16Z</time>
      </trkpt>
      <trkpt lat="43.334684" lon="-8.377791">
        <ele>19.922</ele>
        <time>2019-06-21T10:31:18Z</time>
      </trkpt>
      <trkpt lat="43.334657" lon="-8.377879">
        <ele>19.454</ele>
        <time>2019-06-21T10:31:20Z</time>
      </trkpt>
      <trkpt lat="43.334646" lon="-8.377942">
        <ele>19.036</ele>
        <time>2019-06-21T10:31:25Z</time>
      </trkpt>
      <trkpt lat="43.334644" lon="-8.378013">
        <ele>18.593</ele>
        <time>2019-06-21T10:31:27Z</time>
      </trkpt>
      <trkpt lat="43.334652" lon="-8.378102">
        <ele>18.099</ele>
        <time>2019-06-21T10:31:28Z</time>
      </trkpt>
      <trkpt lat="43.334644" lon="-8.378173">
        <ele>17.623</ele>
        <time>2019-06-21T10:31:29Z</time>
      </trkpt>
      <trkpt lat="43.334606" lon="-8.378236">
        <ele>17.495</ele>
        <time>2019-06-21T10:31:30Z</time>
      </trkpt>
      <trkpt lat="43.334572" lon="-8.378301">
        <ele>17.388</ele>
        <time>2019-06-21T10:31:31Z</time>
      </trkpt>
      <trkpt lat="43.334501" lon="-8.378317">
        <ele>17.724</ele>
        <time>2019-06-21T10:31:32Z</time>
      </trkpt>
      <trkpt lat="43.334431" lon="-8.378320">
        <ele>18.026</ele>
        <time>2019-06-21T10:31:33Z</time>
      </trkpt>
      <trkpt lat="43.334353" lon="-8.378343">
        <ele>18.008</ele>
        <time>2019-06-21T10:31:34Z</time>
      </trkpt>
      <trkpt lat="43.334266" lon="-8.378371">
        <ele>17.951</ele>
        <time>2019-06-21T10:31:35Z</time>
      </trkpt>
      <trkpt lat="43.334178" lon="-8.378408">
        <ele>18.085</ele>
        <time>2019-06-21T10:31:36Z</time>
      </trkpt>
      <trkpt lat="43.334095" lon="-8.378446">
        <ele>18.147</ele>
        <time>2019-06-21T10:31:37Z</time>
      </trkpt>
      <trkpt lat="43.334002" lon="-8.378491">
        <ele>18.379</ele>
        <time>2019-06-21T10:31:38Z</time>
      </trkpt>
      <trkpt lat="43.333914" lon="-8.378534">
        <ele>18.736</ele>
        <time>2019-06-21T10:31:39Z</time>
      </trkpt>
      <trkpt lat="43.333790" lon="-8.378579">
        <ele>19.022</ele>
        <time>2019-06-21T10:31:40Z</time>
      </trkpt>
      <trkpt lat="43.333682" lon="-8.378621">
        <ele>19.046</ele>
        <time>2019-06-21T10:31:41Z</time>
      </trkpt>
      <trkpt lat="43.333571" lon="-8.378675">
        <ele>18.948</ele>
        <time>2019-06-21T10:31:42Z</time>
      </trkpt>
      <trkpt lat="43.333455" lon="-8.378731">
        <ele>18.784</ele>
        <time>2019-06-21T10:31:43Z</time>
      </trkpt>
      <trkpt lat="43.333347" lon="-8.378782">
        <ele>18.607</ele>
        <time>2019-06-21T10:31:44Z</time>
      </trkpt>
      <trkpt lat="43.333252" lon="-8.378851">
        <ele>18.117</ele>
        <time>2019-06-21T10:31:45Z</time>
      </trkpt>
      <trkpt lat="43.333172" lon="-8.378922">
        <ele>17.208</ele>
        <time>2019-06-21T10:31:46Z</time>
      </trkpt>
      <trkpt lat="43.333089" lon="-8.378992">
        <ele>16.041</ele>
        <time>2019-06-21T10:31:47Z</time>
      </trkpt>
      <trkpt lat="43.333017" lon="-8.379070">
        <ele>15.545</ele>
        <time>2019-06-21T10:31:48Z</time>
      </trkpt>
      <trkpt lat="43.332951" lon="-8.379166">
        <ele>15.447</ele>
        <time>2019-06-21T10:31:49Z</time>
      </trkpt>
      <trkpt lat="43.332877" lon="-8.379282">
        <ele>14.769</ele>
        <time>2019-06-21T10:31:50Z</time>
      </trkpt>
      <trkpt lat="43.332813" lon="-8.379397">
        <ele>13.686</ele>
        <time>2019-06-21T10:31:51Z</time>
      </trkpt>
      <trkpt lat="43.332744" lon="-8.379514">
        <ele>13.132</ele>
        <time>2019-06-21T10:31:52Z</time>
      </trkpt>
      <trkpt lat="43.332675" lon="-8.379633">
        <ele>12.796</ele>
        <time>2019-06-21T10:31:53Z</time>
      </trkpt>
      <trkpt lat="43.332608" lon="-8.379785">
        <ele>11.398</ele>
        <time>2019-06-21T10:31:54Z</time>
      </trkpt>
      <trkpt lat="43.332555" lon="-8.379951">
        <ele>9.786</ele>
        <time>2019-06-21T10:31:55Z</time>
      </trkpt>
      <trkpt lat="43.332498" lon="-8.380147">
        <ele>7.960</ele>
        <time>2019-06-21T10:31:56Z</time>
      </trkpt>
      <trkpt lat="43.332448" lon="-8.380350">
        <ele>4.226</ele>
        <time>2019-06-21T10:31:57Z</time>
      </trkpt>
      <trkpt lat="43.332403" lon="-8.380543">
        <ele>0.208</ele>
        <time>2019-06-21T10:31:58Z</time>
      </trkpt>
      <trkpt lat="43.332363" lon="-8.380736">
        <ele>0.011</ele>
        <time>2019-06-21T10:31:59Z</time>
      </trkpt>
      <trkpt lat="43.332322" lon="-8.380931">
        <ele>0.015</ele>
        <time>2019-06-21T10:32:00Z</time>
      </trkpt>
      <trkpt lat="43.332282" lon="-8.381127">
        <ele>0.077</ele>
        <time>2019-06-21T10:32:01Z</time>
      </trkpt>
      <trkpt lat="43.332241" lon="-8.381327">
        <ele>0.079</ele>
        <time>2019-06-21T10:32:02Z</time>
      </trkpt>
      <trkpt lat="43.332196" lon="-8.381540">
        <ele>0.056</ele>
        <time>2019-06-21T10:32:03Z</time>
      </trkpt>
      <trkpt lat="43.332149" lon="-8.381757">
        <ele>0.092</ele>
        <time>2019-06-21T10:32:04Z</time>
      </trkpt>
      <trkpt lat="43.332106" lon="-8.381972">
        <ele>0.096</ele>
        <time>2019-06-21T10:32:05Z</time>
      </trkpt>
      <trkpt lat="43.332063" lon="-8.382191">
        <ele>0.078</ele>
        <time>2019-06-21T10:32:06Z</time>
      </trkpt>
      <trkpt lat="43.332012" lon="-8.382421">
        <ele>0.024</ele>
        <time>2019-06-21T10:32:07Z</time>
      </trkpt>
      <trkpt lat="43.331965" lon="-8.382652">
        <ele>3.304</ele>
        <time>2019-06-21T10:32:08Z</time>
      </trkpt>
      <trkpt lat="43.331916" lon="-8.382888">
        <ele>6.314</ele>
        <time>2019-06-21T10:32:09Z</time>
      </trkpt>
      <trkpt lat="43.331869" lon="-8.383130">
        <ele>7.308</ele>
        <time>2019-06-21T10:32:10Z</time>
      </trkpt>
      <trkpt lat="43.331821" lon="-8.383374">
        <ele>8.255</ele>
        <time>2019-06-21T10:32:11Z</time>
      </trkpt>
      <trkpt lat="43.331775" lon="-8.383622">
        <ele>9.729</ele>
        <time>2019-06-21T10:32:12Z</time>
      </trkpt>
      <trkpt lat="43.331726" lon="-8.383877">
        <ele>11.571</ele>
        <time>2019-06-21T10:32:13Z</time>
      </trkpt>
      <trkpt lat="43.331673" lon="-8.384139">
        <ele>13.793</ele>
        <time>2019-06-21T10:32:14Z</time>
      </trkpt>
      <trkpt lat="43.331625" lon="-8.384384">
        <ele>15.070</ele>
        <time>2019-06-21T10:32:15Z</time>
      </trkpt>
      <trkpt lat="43.331584" lon="-8.384613">
        <ele>16.036</ele>
        <time>2019-06-21T10:32:16Z</time>
      </trkpt>
      <trkpt lat="43.331540" lon="-8.384842">
        <ele>16.310</ele>
        <time>2019-06-21T10:32:17Z</time>
      </trkpt>
      <trkpt lat="43.331491" lon="-8.385073">
        <ele>16.042</ele>
        <time>2019-06-21T10:32:18Z</time>
      </trkpt>
      <trkpt lat="43.331442" lon="-8.385300">
        <ele>16.183</ele>
        <time>2019-06-21T10:32:19Z</time>
      </trkpt>
      <trkpt lat="43.331396" lon="-8.385518">
        <ele>16.825</ele>
        <time>2019-06-21T10:32:20Z</time>
      </trkpt>
      <trkpt lat="43.331353" lon="-8.385730">
        <ele>18.617</ele>
        <time>2019-06-21T10:32:21Z</time>
      </trkpt>
      <trkpt lat="43.331308" lon="-8.385951">
        <ele>19.908</ele>
        <time>2019-06-21T10:32:22Z</time>
      </trkpt>
      <trkpt lat="43.331265" lon="-8.386178">
        <ele>20.651</ele>
        <time>2019-06-21T10:32:23Z</time>
      </trkpt>
      <trkpt lat="43.331221" lon="-8.386400">
        <ele>21.055</ele>
        <time>2019-06-21T10:32:24Z</time>
      </trkpt>
      <trkpt lat="43.331180" lon="-8.386610">
        <ele>21.027</ele>
        <time>2019-06-21T10:32:25Z</time>
      </trkpt>
      <trkpt lat="43.331139" lon="-8.386813">
        <ele>22.699</ele>
        <time>2019-06-21T10:32:26Z</time>
      </trkpt>
      <trkpt lat="43.331098" lon="-8.387011">
        <ele>24.926</ele>
        <time>2019-06-21T10:32:27Z</time>
      </trkpt>
      <trkpt lat="43.331059" lon="-8.387210">
        <ele>27.592</ele>
        <time>2019-06-21T10:32:28Z</time>
      </trkpt>
      <trkpt lat="43.331018" lon="-8.387413">
        <ele>29.686</ele>
        <time>2019-06-21T10:32:29Z</time>
      </trkpt>
      <trkpt lat="43.330973" lon="-8.387623">
        <ele>31.328</ele>
        <time>2019-06-21T10:32:30Z</time>
      </trkpt>
      <trkpt lat="43.330930" lon="-8.387832">
        <ele>32.694</ele>
        <time>2019-06-21T10:32:31Z</time>
      </trkpt>
      <trkpt lat="43.330887" lon="-8.388041">
        <ele>34.257</ele>
        <time>2019-06-21T10:32:32Z</time>
      </trkpt>
      <trkpt lat="43.330849" lon="-8.388241">
        <ele>34.122</ele>
        <time>2019-06-21T10:32:33Z</time>
      </trkpt>
      <trkpt lat="43.330812" lon="-8.388432">
        <ele>34.208</ele>
        <time>2019-06-21T10:32:34Z</time>
      </trkpt>
      <trkpt lat="43.330777" lon="-8.388604">
        <ele>34.822</ele>
        <time>2019-06-21T10:32:35Z</time>
      </trkpt>
      <trkpt lat="43.330739" lon="-8.388782">
        <ele>35.976</ele>
        <time>2019-06-21T10:32:36Z</time>
      </trkpt>
      <trkpt lat="43.330702" lon="-8.388960">
        <ele>37.188</ele>
        <time>2019-06-21T10:32:37Z</time>
      </trkpt>
      <trkpt lat="43.330664" lon="-8.389137">
        <ele>38.080</ele>
        <time>2019-06-21T10:32:38Z</time>
      </trkpt>
      <trkpt lat="43.330625" lon="-8.389319">
        <ele>38.727</ele>
        <time>2019-06-21T10:32:39Z</time>
      </trkpt>
      <trkpt lat="43.330587" lon="-8.389504">
        <ele>39.313</ele>
        <time>2019-06-21T10:32:40Z</time>
      </trkpt>
      <trkpt lat="43.330552" lon="-8.389688">
        <ele>39.037</ele>
        <time>2019-06-21T10:32:41Z</time>
      </trkpt>
      <trkpt lat="43.330519" lon="-8.389867">
        <ele>39.299</ele>
        <time>2019-06-21T10:32:42Z</time>
      </trkpt>
      <trkpt lat="43.330484" lon="-8.390053">
        <ele>39.316</ele>
        <time>2019-06-21T10:32:43Z</time>
      </trkpt>
      <trkpt lat="43.330453" lon="-8.390248">
        <ele>39.276</ele>
        <time>2019-06-21T10:32:44Z</time>
      </trkpt>
      <trkpt lat="43.330424" lon="-8.390444">
        <ele>39.313</ele>
        <time>2019-06-21T10:32:45Z</time>
      </trkpt>
      <trkpt lat="43.330387" lon="-8.390687">
        <ele>39.608</ele>
        <time>2019-06-21T10:32:46Z</time>
      </trkpt>
      <trkpt lat="43.330352" lon="-8.390914">
        <ele>39.524</ele>
        <time>2019-06-21T10:32:47Z</time>
      </trkpt>
      <trkpt lat="43.330312" lon="-8.391152">
        <ele>39.198</ele>
        <time>2019-06-21T10:32:48Z</time>
      </trkpt>
      <trkpt lat="43.330277" lon="-8.391395">
        <ele>39.080</ele>
        <time>2019-06-21T10:32:49Z</time>
      </trkpt>
      <trkpt lat="43.330236" lon="-8.391644">
        <ele>38.982</ele>
        <time>2019-06-21T10:32:50Z</time>
      </trkpt>
      <trkpt lat="43.330195" lon="-8.391889">
        <ele>38.169</ele>
        <time>2019-06-21T10:32:51Z</time>
      </trkpt>
      <trkpt lat="43.330152" lon="-8.392127">
        <ele>38.455</ele>
        <time>2019-06-21T10:32:52Z</time>
      </trkpt>
      <trkpt lat="43.330104" lon="-8.392367">
        <ele>38.999</ele>
        <time>2019-06-21T10:32:53Z</time>
      </trkpt>
      <trkpt lat="43.330060" lon="-8.392607">
        <ele>39.671</ele>
        <time>2019-06-21T10:32:54Z</time>
      </trkpt>
      <trkpt lat="43.330031" lon="-8.392830">
        <ele>40.186</ele>
        <time>2019-06-21T10:32:55Z</time>
      </trkpt>
      <trkpt lat="43.329996" lon="-8.393053">
        <ele>40.060</ele>
        <time>2019-06-21T10:32:56Z</time>
      </trkpt>
      <trkpt lat="43.329965" lon="-8.393273">
        <ele>40.626</ele>
        <time>2019-06-21T10:32:57Z</time>
      </trkpt>
      <trkpt lat="43.329938" lon="-8.393492">
        <ele>41.108</ele>
        <time>2019-06-21T10:32:58Z</time>
      </trkpt>
      <trkpt lat="43.329913" lon="-8.393709">
        <ele>41.621</ele>
        <time>2019-06-21T10:32:59Z</time>
      </trkpt>
      <trkpt lat="43.329894" lon="-8.393923">
        <ele>42.155</ele>
        <time>2019-06-21T10:33:00Z</time>
      </trkpt>
      <trkpt lat="43.329884" lon="-8.394128">
        <ele>42.977</ele>
        <time>2019-06-21T10:33:01Z</time>
      </trkpt>
      <trkpt lat="43.329888" lon="-8.394310">
        <ele>43.099</ele>
        <time>2019-06-21T10:33:02Z</time>
      </trkpt>
      <trkpt lat="43.329906" lon="-8.394473">
        <ele>43.116</ele>
        <time>2019-06-21T10:33:03Z</time>
      </trkpt>
      <trkpt lat="43.329937" lon="-8.394651">
        <ele>43.972</ele>
        <time>2019-06-21T10:33:04Z</time>
      </trkpt>
      <trkpt lat="43.329972" lon="-8.394836">
        <ele>44.556</ele>
        <time>2019-06-21T10:33:05Z</time>
      </trkpt>
      <trkpt lat="43.330007" lon="-8.395018">
        <ele>45.158</ele>
        <time>2019-06-21T10:33:06Z</time>
      </trkpt>
      <trkpt lat="43.330043" lon="-8.395205">
        <ele>46.274</ele>
        <time>2019-06-21T10:33:07Z</time>
      </trkpt>
      <trkpt lat="43.330080" lon="-8.395391">
        <ele>47.156</ele>
        <time>2019-06-21T10:33:08Z</time>
      </trkpt>
      <trkpt lat="43.330119" lon="-8.395576">
        <ele>47.921</ele>
        <time>2019-06-21T10:33:09Z</time>
      </trkpt>
      <trkpt lat="43.330153" lon="-8.395777">
        <ele>49.708</ele>
        <time>2019-06-21T10:33:10Z</time>
      </trkpt>
      <trkpt lat="43.330186" lon="-8.395984">
        <ele>51.670</ele>
        <time>2019-06-21T10:33:11Z</time>
      </trkpt>
      <trkpt lat="43.330221" lon="-8.396185">
        <ele>53.364</ele>
        <time>2019-06-21T10:33:12Z</time>
      </trkpt>
      <trkpt lat="43.330260" lon="-8.396391">
        <ele>55.156</ele>
        <time>2019-06-21T10:33:13Z</time>
      </trkpt>
      <trkpt lat="43.330301" lon="-8.396603">
        <ele>54.848</ele>
        <time>2019-06-21T10:33:14Z</time>
      </trkpt>
      <trkpt lat="43.330345" lon="-8.396816">
        <ele>54.915</ele>
        <time>2019-06-21T10:33:15Z</time>
      </trkpt>
      <trkpt lat="43.330388" lon="-8.397034">
        <ele>54.931</ele>
        <time>2019-06-21T10:33:16Z</time>
      </trkpt>
      <trkpt lat="43.330434" lon="-8.397255">
        <ele>55.295</ele>
        <time>2019-06-21T10:33:17Z</time>
      </trkpt>
      <trkpt lat="43.330475" lon="-8.397440">
        <ele>56.957</ele>
        <time>2019-06-21T10:33:18Z</time>
      </trkpt>
      <trkpt lat="43.330531" lon="-8.397645">
        <ele>58.755</ele>
        <time>2019-06-21T10:33:19Z</time>
      </trkpt>
      <trkpt lat="43.330578" lon="-8.397866">
        <ele>59.907</ele>
        <time>2019-06-21T10:33:20Z</time>
      </trkpt>
      <trkpt lat="43.330619" lon="-8.398087">
        <ele>60.017</ele>
        <time>2019-06-21T10:33:21Z</time>
      </trkpt>
      <trkpt lat="43.330666" lon="-8.398320">
        <ele>60.408</ele>
        <time>2019-06-21T10:33:22Z</time>
      </trkpt>
      <trkpt lat="43.330731" lon="-8.398534">
        <ele>61.888</ele>
        <time>2019-06-21T10:33:23Z</time>
      </trkpt>
      <trkpt lat="43.330805" lon="-8.398726">
        <ele>63.712</ele>
        <time>2019-06-21T10:33:24Z</time>
      </trkpt>
      <trkpt lat="43.330881" lon="-8.398933">
        <ele>65.174</ele>
        <time>2019-06-21T10:33:25Z</time>
      </trkpt>
      <trkpt lat="43.330960" lon="-8.399126">
        <ele>65.536</ele>
        <time>2019-06-21T10:33:26Z</time>
      </trkpt>
      <trkpt lat="43.331053" lon="-8.399316">
        <ele>65.633</ele>
        <time>2019-06-21T10:33:27Z</time>
      </trkpt>
      <trkpt lat="43.331156" lon="-8.399508">
        <ele>65.749</ele>
        <time>2019-06-21T10:33:28Z</time>
      </trkpt>
      <trkpt lat="43.331266" lon="-8.399690">
        <ele>65.493</ele>
        <time>2019-06-21T10:33:29Z</time>
      </trkpt>
      <trkpt lat="43.331377" lon="-8.399865">
        <ele>65.565</ele>
        <time>2019-06-21T10:33:30Z</time>
      </trkpt>
      <trkpt lat="43.331488" lon="-8.400031">
        <ele>66.093</ele>
        <time>2019-06-21T10:33:31Z</time>
      </trkpt>
      <trkpt lat="43.331612" lon="-8.400183">
        <ele>66.065</ele>
        <time>2019-06-21T10:33:32Z</time>
      </trkpt>
      <trkpt lat="43.331731" lon="-8.400336">
        <ele>66.021</ele>
        <time>2019-06-21T10:33:33Z</time>
      </trkpt>
      <trkpt lat="43.331860" lon="-8.400483">
        <ele>66.008</ele>
        <time>2019-06-21T10:33:34Z</time>
      </trkpt>
      <trkpt lat="43.331992" lon="-8.400626">
        <ele>66.052</ele>
        <time>2019-06-21T10:33:35Z</time>
      </trkpt>
      <trkpt lat="43.332126" lon="-8.400744">
        <ele>66.476</ele>
        <time>2019-06-21T10:33:36Z</time>
      </trkpt>
      <trkpt lat="43.332263" lon="-8.400850">
        <ele>67.038</ele>
        <time>2019-06-21T10:33:37Z</time>
      </trkpt>
      <trkpt lat="43.332398" lon="-8.400946">
        <ele>67.020</ele>
        <time>2019-06-21T10:33:38Z</time>
      </trkpt>
      <trkpt lat="43.332538" lon="-8.401047">
        <ele>67.197</ele>
        <time>2019-06-21T10:33:39Z</time>
      </trkpt>
      <trkpt lat="43.332675" lon="-8.401152">
        <ele>67.513</ele>
        <time>2019-06-21T10:33:40Z</time>
      </trkpt>
      <trkpt lat="43.332816" lon="-8.401255">
        <ele>67.677</ele>
        <time>2019-06-21T10:33:41Z</time>
      </trkpt>
      <trkpt lat="43.332957" lon="-8.401362">
        <ele>67.729</ele>
        <time>2019-06-21T10:33:42Z</time>
      </trkpt>
      <trkpt lat="43.333105" lon="-8.401472">
        <ele>67.816</ele>
        <time>2019-06-21T10:33:43Z</time>
      </trkpt>
      <trkpt lat="43.333256" lon="-8.401580">
        <ele>68.176</ele>
        <time>2019-06-21T10:33:44Z</time>
      </trkpt>
      <trkpt lat="43.333405" lon="-8.401683">
        <ele>68.613</ele>
        <time>2019-06-21T10:33:45Z</time>
      </trkpt>
      <trkpt lat="43.333552" lon="-8.401795">
        <ele>68.608</ele>
        <time>2019-06-21T10:33:46Z</time>
      </trkpt>
      <trkpt lat="43.333702" lon="-8.401899">
        <ele>68.324</ele>
        <time>2019-06-21T10:33:47Z</time>
      </trkpt>
      <trkpt lat="43.333851" lon="-8.402009">
        <ele>67.868</ele>
        <time>2019-06-21T10:33:48Z</time>
      </trkpt>
      <trkpt lat="43.334000" lon="-8.402122">
        <ele>67.080</ele>
        <time>2019-06-21T10:33:49Z</time>
      </trkpt>
      <trkpt lat="43.334143" lon="-8.402225">
        <ele>65.962</ele>
        <time>2019-06-21T10:33:50Z</time>
      </trkpt>
      <trkpt lat="43.334285" lon="-8.402327">
        <ele>66.069</ele>
        <time>2019-06-21T10:33:51Z</time>
      </trkpt>
      <trkpt lat="43.334421" lon="-8.402414">
        <ele>66.035</ele>
        <time>2019-06-21T10:33:52Z</time>
      </trkpt>
      <trkpt lat="43.334555" lon="-8.402514">
        <ele>65.639</ele>
        <time>2019-06-21T10:33:53Z</time>
      </trkpt>
      <trkpt lat="43.334688" lon="-8.402610">
        <ele>65.281</ele>
        <time>2019-06-21T10:33:54Z</time>
      </trkpt>
      <trkpt lat="43.334813" lon="-8.402696">
        <ele>64.033</ele>
        <time>2019-06-21T10:33:55Z</time>
      </trkpt>
      <trkpt lat="43.334942" lon="-8.402790">
        <ele>62.023</ele>
        <time>2019-06-21T10:33:56Z</time>
      </trkpt>
      <trkpt lat="43.335075" lon="-8.402879">
        <ele>60.515</ele>
        <time>2019-06-21T10:33:57Z</time>
      </trkpt>
      <trkpt lat="43.335196" lon="-8.402974">
        <ele>59.208</ele>
        <time>2019-06-21T10:33:58Z</time>
      </trkpt>
      <trkpt lat="43.335331" lon="-8.403061">
        <ele>57.956</ele>
        <time>2019-06-21T10:33:59Z</time>
      </trkpt>
      <trkpt lat="43.335465" lon="-8.403147">
        <ele>57.250</ele>
        <time>2019-06-21T10:34:00Z</time>
      </trkpt>
      <trkpt lat="43.335603" lon="-8.403241">
        <ele>56.762</ele>
        <time>2019-06-21T10:34:01Z</time>
      </trkpt>
      <trkpt lat="43.335734" lon="-8.403331">
        <ele>56.064</ele>
        <time>2019-06-21T10:34:02Z</time>
      </trkpt>
      <trkpt lat="43.335868" lon="-8.403413">
        <ele>56.051</ele>
        <time>2019-06-21T10:34:03Z</time>
      </trkpt>
      <trkpt lat="43.335996" lon="-8.403491">
        <ele>55.737</ele>
        <time>2019-06-21T10:34:04Z</time>
      </trkpt>
      <trkpt lat="43.336115" lon="-8.403565">
        <ele>55.231</ele>
        <time>2019-06-21T10:34:05Z</time>
      </trkpt>
      <trkpt lat="43.336231" lon="-8.403643">
        <ele>54.463</ele>
        <time>2019-06-21T10:34:06Z</time>
      </trkpt>
      <trkpt lat="43.336354" lon="-8.403726">
        <ele>53.488</ele>
        <time>2019-06-21T10:34:07Z</time>
      </trkpt>
      <trkpt lat="43.336468" lon="-8.403807">
        <ele>52.224</ele>
        <time>2019-06-21T10:34:08Z</time>
      </trkpt>
      <trkpt lat="43.336591" lon="-8.403893">
        <ele>51.226</ele>
        <time>2019-06-21T10:34:09Z</time>
      </trkpt>
      <trkpt lat="43.336708" lon="-8.403970">
        <ele>50.108</ele>
        <time>2019-06-21T10:34:10Z</time>
      </trkpt>
      <trkpt lat="43.336831" lon="-8.404059">
        <ele>48.621</ele>
        <time>2019-06-21T10:34:11Z</time>
      </trkpt>
      <trkpt lat="43.336944" lon="-8.404156">
        <ele>47.135</ele>
        <time>2019-06-21T10:34:12Z</time>
      </trkpt>
      <trkpt lat="43.337074" lon="-8.404242">
        <ele>45.957</ele>
        <time>2019-06-21T10:34:13Z</time>
      </trkpt>
      <trkpt lat="43.337203" lon="-8.404341">
        <ele>45.139</ele>
        <time>2019-06-21T10:34:14Z</time>
      </trkpt>
      <trkpt lat="43.337324" lon="-8.404432">
        <ele>43.996</ele>
        <time>2019-06-21T10:34:15Z</time>
      </trkpt>
      <trkpt lat="43.337450" lon="-8.404522">
        <ele>42.732</ele>
        <time>2019-06-21T10:34:16Z</time>
      </trkpt>
      <trkpt lat="43.337584" lon="-8.404611">
        <ele>41.076</ele>
        <time>2019-06-21T10:34:17Z</time>
      </trkpt>
      <trkpt lat="43.337715" lon="-8.404701">
        <ele>38.458</ele>
        <time>2019-06-21T10:34:18Z</time>
      </trkpt>
      <trkpt lat="43.337850" lon="-8.404789">
        <ele>36.645</ele>
        <time>2019-06-21T10:34:19Z</time>
      </trkpt>
      <trkpt lat="43.337980" lon="-8.404878">
        <ele>35.347</ele>
        <time>2019-06-21T10:34:20Z</time>
      </trkpt>
      <trkpt lat="43.338101" lon="-8.404957">
        <ele>34.311</ele>
        <time>2019-06-21T10:34:21Z</time>
      </trkpt>
      <trkpt lat="43.338224" lon="-8.405039">
        <ele>34.508</ele>
        <time>2019-06-21T10:34:22Z</time>
      </trkpt>
      <trkpt lat="43.338346" lon="-8.405114">
        <ele>34.567</ele>
        <time>2019-06-21T10:34:23Z</time>
      </trkpt>
      <trkpt lat="43.338447" lon="-8.405175">
        <ele>33.461</ele>
        <time>2019-06-21T10:34:24Z</time>
      </trkpt>
      <trkpt lat="43.338554" lon="-8.405228">
        <ele>32.453</ele>
        <time>2019-06-21T10:34:25Z</time>
      </trkpt>
      <trkpt lat="43.338650" lon="-8.405272">
        <ele>31.625</ele>
        <time>2019-06-21T10:34:26Z</time>
      </trkpt>
      <trkpt lat="43.338735" lon="-8.405298">
        <ele>30.622</ele>
        <time>2019-06-21T10:34:27Z</time>
      </trkpt>
      <trkpt lat="43.338821" lon="-8.405298">
        <ele>29.728</ele>
        <time>2019-06-21T10:34:28Z</time>
      </trkpt>
      <trkpt lat="43.338911" lon="-8.405262">
        <ele>28.812</ele>
        <time>2019-06-21T10:34:29Z</time>
      </trkpt>
      <trkpt lat="43.338991" lon="-8.405201">
        <ele>28.124</ele>
        <time>2019-06-21T10:34:30Z</time>
      </trkpt>
      <trkpt lat="43.339024" lon="-8.405106">
        <ele>27.783</ele>
        <time>2019-06-21T10:34:31Z</time>
      </trkpt>
      <trkpt lat="43.339055" lon="-8.404986">
        <ele>27.425</ele>
        <time>2019-06-21T10:34:32Z</time>
      </trkpt>
      <trkpt lat="43.339069" lon="-8.404870">
        <ele>27.717</ele>
        <time>2019-06-21T10:34:33Z</time>
      </trkpt>
      <trkpt lat="43.339068" lon="-8.404753">
        <ele>27.908</ele>
        <time>2019-06-21T10:34:34Z</time>
      </trkpt>
      <trkpt lat="43.339027" lon="-8.404644">
        <ele>28.191</ele>
        <time>2019-06-21T10:34:35Z</time>
      </trkpt>
      <trkpt lat="43.338970" lon="-8.404559">
        <ele>28.275</ele>
        <time>2019-06-21T10:34:36Z</time>
      </trkpt>
      <trkpt lat="43.338848" lon="-8.404535">
        <ele>28.567</ele>
        <time>2019-06-21T10:34:37Z</time>
      </trkpt>
      <trkpt lat="43.338762" lon="-8.404526">
        <ele>29.559</ele>
        <time>2019-06-21T10:34:38Z</time>
      </trkpt>
      <trkpt lat="43.338663" lon="-8.404587">
        <ele>30.946</ele>
        <time>2019-06-21T10:34:39Z</time>
      </trkpt>
      <trkpt lat="43.338581" lon="-8.404637">
        <ele>31.952</ele>
        <time>2019-06-21T10:34:40Z</time>
      </trkpt>
      <trkpt lat="43.338503" lon="-8.404753">
        <ele>32.866</ele>
        <time>2019-06-21T10:34:41Z</time>
      </trkpt>
      <trkpt lat="43.338424" lon="-8.404897">
        <ele>33.828</ele>
        <time>2019-06-21T10:34:42Z</time>
      </trkpt>
      <trkpt lat="43.338347" lon="-8.405045">
        <ele>34.756</ele>
        <time>2019-06-21T10:34:43Z</time>
      </trkpt>
      <trkpt lat="43.338269" lon="-8.405197">
        <ele>34.159</ele>
        <time>2019-06-21T10:34:44Z</time>
      </trkpt>
      <trkpt lat="43.338134" lon="-8.405565">
        <ele>32.614</ele>
        <time>2019-06-21T10:34:46Z</time>
      </trkpt>
      <trkpt lat="43.338096" lon="-8.405763">
        <ele>31.408</ele>
        <time>2019-06-21T10:34:47Z</time>
      </trkpt>
      <trkpt lat="43.337985" lon="-8.405950">
        <ele>31.058</ele>
        <time>2019-06-21T10:34:48Z</time>
      </trkpt>
      <trkpt lat="43.337917" lon="-8.406111">
        <ele>30.592</ele>
        <time>2019-06-21T10:34:49Z</time>
      </trkpt>
      <trkpt lat="43.337836" lon="-8.406289">
        <ele>30.934</ele>
        <time>2019-06-21T10:34:50Z</time>
      </trkpt>
      <trkpt lat="43.337753" lon="-8.406458">
        <ele>31.946</ele>
        <time>2019-06-21T10:34:51Z</time>
      </trkpt>
      <trkpt lat="43.337686" lon="-8.406619">
        <ele>33.923</ele>
        <time>2019-06-21T10:34:52Z</time>
      </trkpt>
      <trkpt lat="43.337590" lon="-8.406796">
        <ele>35.489</ele>
        <time>2019-06-21T10:34:53Z</time>
      </trkpt>
      <trkpt lat="43.337498" lon="-8.406980">
        <ele>36.553</ele>
        <time>2019-06-21T10:34:54Z</time>
      </trkpt>
      <trkpt lat="43.337384" lon="-8.407176">
        <ele>36.585</ele>
        <time>2019-06-21T10:34:55Z</time>
      </trkpt>
      <trkpt lat="43.337264" lon="-8.407378">
        <ele>35.962</ele>
        <time>2019-06-21T10:34:56Z</time>
      </trkpt>
      <trkpt lat="43.337132" lon="-8.407578">
        <ele>33.583</ele>
        <time>2019-06-21T10:34:57Z</time>
      </trkpt>
      <trkpt lat="43.336987" lon="-8.407781">
        <ele>31.811</ele>
        <time>2019-06-21T10:34:58Z</time>
      </trkpt>
      <trkpt lat="43.336839" lon="-8.407968">
        <ele>31.708</ele>
        <time>2019-06-21T10:34:59Z</time>
      </trkpt>
      <trkpt lat="43.336700" lon="-8.408130">
        <ele>31.229</ele>
        <time>2019-06-21T10:35:00Z</time>
      </trkpt>
      <trkpt lat="43.336520" lon="-8.408303">
        <ele>30.543</ele>
        <time>2019-06-21T10:35:01Z</time>
      </trkpt>
      <trkpt lat="43.336356" lon="-8.408466">
        <ele>29.575</ele>
        <time>2019-06-21T10:35:02Z</time>
      </trkpt>
      <trkpt lat="43.336194" lon="-8.408627">
        <ele>28.967</ele>
        <time>2019-06-21T10:35:03Z</time>
      </trkpt>
      <trkpt lat="43.336033" lon="-8.408788">
        <ele>27.674</ele>
        <time>2019-06-21T10:35:04Z</time>
      </trkpt>
      <trkpt lat="43.335880" lon="-8.408953">
        <ele>26.790</ele>
        <time>2019-06-21T10:35:05Z</time>
      </trkpt>
      <trkpt lat="43.335755" lon="-8.409106">
        <ele>26.574</ele>
        <time>2019-06-21T10:35:06Z</time>
      </trkpt>
      <trkpt lat="43.335635" lon="-8.409287">
        <ele>26.646</ele>
        <time>2019-06-21T10:35:07Z</time>
      </trkpt>
      <trkpt lat="43.335531" lon="-8.409486">
        <ele>27.176</ele>
        <time>2019-06-21T10:35:08Z</time>
      </trkpt>
      <trkpt lat="43.335448" lon="-8.409706">
        <ele>27.490</ele>
        <time>2019-06-21T10:35:09Z</time>
      </trkpt>
      <trkpt lat="43.335380" lon="-8.409921">
        <ele>28.319</ele>
        <time>2019-06-21T10:35:10Z</time>
      </trkpt>
      <trkpt lat="43.335335" lon="-8.410168">
        <ele>28.808</ele>
        <time>2019-06-21T10:35:11Z</time>
      </trkpt>
      <trkpt lat="43.335313" lon="-8.410420">
        <ele>28.470</ele>
        <time>2019-06-21T10:35:12Z</time>
      </trkpt>
      <trkpt lat="43.335313" lon="-8.410674">
        <ele>27.964</ele>
        <time>2019-06-21T10:35:13Z</time>
      </trkpt>
      <trkpt lat="43.335327" lon="-8.410936">
        <ele>28.026</ele>
        <time>2019-06-21T10:35:14Z</time>
      </trkpt>
      <trkpt lat="43.335351" lon="-8.411194">
        <ele>27.948</ele>
        <time>2019-06-21T10:35:15Z</time>
      </trkpt>
      <trkpt lat="43.335417" lon="-8.411452">
        <ele>27.025</ele>
        <time>2019-06-21T10:35:16Z</time>
      </trkpt>
      <trkpt lat="43.335495" lon="-8.411708">
        <ele>26.051</ele>
        <time>2019-06-21T10:35:17Z</time>
      </trkpt>
      <trkpt lat="43.335573" lon="-8.411968">
        <ele>26.015</ele>
        <time>2019-06-21T10:35:18Z</time>
      </trkpt>
      <trkpt lat="43.335660" lon="-8.412222">
        <ele>26.987</ele>
        <time>2019-06-21T10:35:19Z</time>
      </trkpt>
      <trkpt lat="43.335747" lon="-8.412479">
        <ele>27.889</ele>
        <time>2019-06-21T10:35:20Z</time>
      </trkpt>
      <trkpt lat="43.335830" lon="-8.412734">
        <ele>28.706</ele>
        <time>2019-06-21T10:35:21Z</time>
      </trkpt>
      <trkpt lat="43.335910" lon="-8.413001">
        <ele>28.826</ele>
        <time>2019-06-21T10:35:22Z</time>
      </trkpt>
      <trkpt lat="43.335979" lon="-8.413273">
        <ele>30.208</ele>
        <time>2019-06-21T10:35:23Z</time>
      </trkpt>
      <trkpt lat="43.336043" lon="-8.413550">
        <ele>33.561</ele>
        <time>2019-06-21T10:35:24Z</time>
      </trkpt>
      <trkpt lat="43.336094" lon="-8.413831">
        <ele>35.765</ele>
        <time>2019-06-21T10:35:25Z</time>
      </trkpt>
      <trkpt lat="43.336145" lon="-8.414107">
        <ele>37.087</ele>
        <time>2019-06-21T10:35:26Z</time>
      </trkpt>
      <trkpt lat="43.336187" lon="-8.414367">
        <ele>37.479</ele>
        <time>2019-06-21T10:35:27Z</time>
      </trkpt>
      <trkpt lat="43.336222" lon="-8.414616">
        <ele>37.556</ele>
        <time>2019-06-21T10:35:28Z</time>
      </trkpt>
      <trkpt lat="43.336248" lon="-8.414851">
        <ele>38.062</ele>
        <time>2019-06-21T10:35:29Z</time>
      </trkpt>
      <trkpt lat="43.336263" lon="-8.415075">
        <ele>38.886</ele>
        <time>2019-06-21T10:35:30Z</time>
      </trkpt>
      <trkpt lat="43.336276" lon="-8.415293">
        <ele>39.818</ele>
        <time>2019-06-21T10:35:31Z</time>
      </trkpt>
      <trkpt lat="43.336283" lon="-8.415502">
        <ele>41.973</ele>
        <time>2019-06-21T10:35:32Z</time>
      </trkpt>
      <trkpt lat="43.336277" lon="-8.415737">
        <ele>45.685</ele>
        <time>2019-06-21T10:35:33Z</time>
      </trkpt>
      <trkpt lat="43.336267" lon="-8.415971">
        <ele>49.113</ele>
        <time>2019-06-21T10:35:34Z</time>
      </trkpt>
      <trkpt lat="43.336251" lon="-8.416213">
        <ele>52.108</ele>
        <time>2019-06-21T10:35:35Z</time>
      </trkpt>
      <trkpt lat="43.336225" lon="-8.416441">
        <ele>54.350</ele>
        <time>2019-06-21T10:35:36Z</time>
      </trkpt>
      <trkpt lat="43.336205" lon="-8.416669">
        <ele>55.764</ele>
        <time>2019-06-21T10:35:37Z</time>
      </trkpt>
      <trkpt lat="43.336178" lon="-8.416895">
        <ele>56.286</ele>
        <time>2019-06-21T10:35:38Z</time>
      </trkpt>
      <trkpt lat="43.336145" lon="-8.417117">
        <ele>57.278</ele>
        <time>2019-06-21T10:35:39Z</time>
      </trkpt>
      <trkpt lat="43.336110" lon="-8.417348">
        <ele>57.635</ele>
        <time>2019-06-21T10:35:40Z</time>
      </trkpt>
      <trkpt lat="43.336083" lon="-8.417539">
        <ele>57.361</ele>
        <time>2019-06-21T10:35:41Z</time>
      </trkpt>
      <trkpt lat="43.336062" lon="-8.417723">
        <ele>56.295</ele>
        <time>2019-06-21T10:35:42Z</time>
      </trkpt>
      <trkpt lat="43.336039" lon="-8.417902">
        <ele>54.257</ele>
        <time>2019-06-21T10:35:43Z</time>
      </trkpt>
      <trkpt lat="43.336023" lon="-8.418072">
        <ele>52.124</ele>
        <time>2019-06-21T10:35:44Z</time>
      </trkpt>
      <trkpt lat="43.336012" lon="-8.418217">
        <ele>51.104</ele>
        <time>2019-06-21T10:35:45Z</time>
      </trkpt>
      <trkpt lat="43.336021" lon="-8.418331">
        <ele>50.014</ele>
        <time>2019-06-21T10:35:46Z</time>
      </trkpt>
      <trkpt lat="43.336038" lon="-8.418424">
        <ele>49.408</ele>
        <time>2019-06-21T10:35:47Z</time>
      </trkpt>
      <trkpt lat="43.336087" lon="-8.418530">
        <ele>48.565</ele>
        <time>2019-06-21T10:35:48Z</time>
      </trkpt>
      <trkpt lat="43.336133" lon="-8.418630">
        <ele>47.769</ele>
        <time>2019-06-21T10:35:49Z</time>
      </trkpt>
      <trkpt lat="43.336167" lon="-8.418728">
        <ele>46.881</ele>
        <time>2019-06-21T10:35:50Z</time>
      </trkpt>
      <trkpt lat="43.336185" lon="-8.418816">
        <ele>46.253</ele>
        <time>2019-06-21T10:35:51Z</time>
      </trkpt>
      <trkpt lat="43.336181" lon="-8.418928">
        <ele>45.690</ele>
        <time>2019-06-21T10:35:52Z</time>
      </trkpt>
      <trkpt lat="43.336179" lon="-8.419056">
        <ele>45.256</ele>
        <time>2019-06-21T10:35:53Z</time>
      </trkpt>
      <trkpt lat="43.336170" lon="-8.419186">
        <ele>44.850</ele>
        <time>2019-06-21T10:35:54Z</time>
      </trkpt>
      <trkpt lat="43.336188" lon="-8.419310">
        <ele>44.832</ele>
        <time>2019-06-21T10:35:55Z</time>
      </trkpt>
      <trkpt lat="43.336220" lon="-8.419432">
        <ele>44.429</ele>
        <time>2019-06-21T10:35:56Z</time>
      </trkpt>
      <trkpt lat="43.336256" lon="-8.419577">
        <ele>43.700</ele>
        <time>2019-06-21T10:35:57Z</time>
      </trkpt>
      <trkpt lat="43.336287" lon="-8.419727">
        <ele>43.120</ele>
        <time>2019-06-21T10:35:58Z</time>
      </trkpt>
      <trkpt lat="43.336328" lon="-8.419876">
        <ele>42.808</ele>
        <time>2019-06-21T10:35:59Z</time>
      </trkpt>
      <trkpt lat="43.336362" lon="-8.420022">
        <ele>42.555</ele>
        <time>2019-06-21T10:36:00Z</time>
      </trkpt>
      <trkpt lat="43.336391" lon="-8.420160">
        <ele>42.639</ele>
        <time>2019-06-21T10:36:01Z</time>
      </trkpt>
      <trkpt lat="43.336423" lon="-8.420285">
        <ele>42.731</ele>
        <time>2019-06-21T10:36:02Z</time>
      </trkpt>
      <trkpt lat="43.336451" lon="-8.420415">
        <ele>42.753</ele>
        <time>2019-06-21T10:36:03Z</time>
      </trkpt>
      <trkpt lat="43.336475" lon="-8.420536">
        <ele>42.790</ele>
        <time>2019-06-21T10:36:04Z</time>
      </trkpt>
      <trkpt lat="43.336489" lon="-8.420663">
        <ele>42.556</ele>
        <time>2019-06-21T10:36:05Z</time>
      </trkpt>
      <trkpt lat="43.336504" lon="-8.420785">
        <ele>42.280</ele>
        <time>2019-06-21T10:36:06Z</time>
      </trkpt>
      <trkpt lat="43.336521" lon="-8.420917">
        <ele>41.642</ele>
        <time>2019-06-21T10:36:07Z</time>
      </trkpt>
      <trkpt lat="43.336533" lon="-8.421039">
        <ele>40.965</ele>
        <time>2019-06-21T10:36:08Z</time>
      </trkpt>
      <trkpt lat="43.336534" lon="-8.421116">
        <ele>40.468</ele>
        <time>2019-06-21T10:36:09Z</time>
      </trkpt>
      <trkpt lat="43.336548" lon="-8.421215">
        <ele>39.514</ele>
        <time>2019-06-21T10:36:10Z</time>
      </trkpt>
      <trkpt lat="43.336578" lon="-8.421304">
        <ele>38.708</ele>
        <time>2019-06-21T10:36:11Z</time>
      </trkpt>
      <trkpt lat="43.336623" lon="-8.421382">
        <ele>38.169</ele>
        <time>2019-06-21T10:36:12Z</time>
      </trkpt>
      <trkpt lat="43.336664" lon="-8.421436">
        <ele>38.053</ele>
        <time>2019-06-21T10:36:13Z</time>
      </trkpt>
      <trkpt lat="43.336715" lon="-8.421477">
        <ele>38.285</ele>
        <time>2019-06-21T10:36:14Z</time>
      </trkpt>
      <trkpt lat="43.336772" lon="-8.421493">
        <ele>38.437</ele>
        <time>2019-06-21T10:36:15Z</time>
      </trkpt>
      <trkpt lat="43.336843" lon="-8.421447">
        <ele>38.644</ele>
        <time>2019-06-21T10:36:16Z</time>
      </trkpt>
      <trkpt lat="43.336920" lon="-8.421406">
        <ele>38.950</ele>
        <time>2019-06-21T10:36:17Z</time>
      </trkpt>
      <trkpt lat="43.337038" lon="-8.421351">
        <ele>38.964</ele>
        <time>2019-06-21T10:36:18Z</time>
      </trkpt>
      <trkpt lat="43.337122" lon="-8.421305">
        <ele>38.976</ele>
        <time>2019-06-21T10:36:19Z</time>
      </trkpt>
      <trkpt lat="43.337212" lon="-8.421267">
        <ele>39.058</ele>
        <time>2019-06-21T10:36:20Z</time>
      </trkpt>
      <trkpt lat="43.337313" lon="-8.421256">
        <ele>39.052</ele>
        <time>2019-06-21T10:36:21Z</time>
      </trkpt>
      <trkpt lat="43.337410" lon="-8.421280">
        <ele>39.017</ele>
        <time>2019-06-21T10:36:22Z</time>
      </trkpt>
      <trkpt lat="43.337504" lon="-8.421320">
        <ele>39.008</ele>
        <time>2019-06-21T10:36:23Z</time>
      </trkpt>
      <trkpt lat="43.337593" lon="-8.421356">
        <ele>38.388</ele>
        <time>2019-06-21T10:36:24Z</time>
      </trkpt>
      <trkpt lat="43.337670" lon="-8.421423">
        <ele>37.942</ele>
        <time>2019-06-21T10:36:25Z</time>
      </trkpt>
      <trkpt lat="43.337735" lon="-8.421489">
        <ele>37.664</ele>
        <time>2019-06-21T10:36:26Z</time>
      </trkpt>
      <trkpt lat="43.337801" lon="-8.421547">
        <ele>37.656</ele>
        <time>2019-06-21T10:36:27Z</time>
      </trkpt>
      <trkpt lat="43.337857" lon="-8.421598">
        <ele>37.843</ele>
        <time>2019-06-21T10:36:28Z</time>
      </trkpt>
      <trkpt lat="43.337918" lon="-8.421626">
        <ele>37.919</ele>
        <time>2019-06-21T10:36:29Z</time>
      </trkpt>
      <trkpt lat="43.337977" lon="-8.421651">
        <ele>37.923</ele>
        <time>2019-06-21T10:36:30Z</time>
      </trkpt>
      <trkpt lat="43.338035" lon="-8.421666">
        <ele>38.055</ele>
        <time>2019-06-21T10:36:31Z</time>
      </trkpt>
      <trkpt lat="43.338087" lon="-8.421688">
        <ele>38.167</ele>
        <time>2019-06-21T10:36:32Z</time>
      </trkpt>
      <trkpt lat="43.338172" lon="-8.421720">
        <ele>38.381</ele>
        <time>2019-06-21T10:36:34Z</time>
      </trkpt>
      <trkpt lat="43.338230" lon="-8.421752">
        <ele>38.519</ele>
        <time>2019-06-21T10:36:35Z</time>
      </trkpt>
      <trkpt lat="43.338303" lon="-8.421803">
        <ele>38.908</ele>
        <time>2019-06-21T10:36:36Z</time>
      </trkpt>
      <trkpt lat="43.338386" lon="-8.421827">
        <ele>39.379</ele>
        <time>2019-06-21T10:36:37Z</time>
      </trkpt>
      <trkpt lat="43.338466" lon="-8.421826">
        <ele>39.423</ele>
        <time>2019-06-21T10:36:38Z</time>
      </trkpt>
      <trkpt lat="43.338555" lon="-8.421810">
        <ele>39.485</ele>
        <time>2019-06-21T10:36:39Z</time>
      </trkpt>
      <trkpt lat="43.338650" lon="-8.421778">
        <ele>39.547</ele>
        <time>2019-06-21T10:36:40Z</time>
      </trkpt>
      <trkpt lat="43.338748" lon="-8.421750">
        <ele>39.934</ele>
        <time>2019-06-21T10:36:41Z</time>
      </trkpt>
      <trkpt lat="43.338849" lon="-8.421707">
        <ele>40.170</ele>
        <time>2019-06-21T10:36:42Z</time>
      </trkpt>
      <trkpt lat="43.338953" lon="-8.421650">
        <ele>40.684</ele>
        <time>2019-06-21T10:36:43Z</time>
      </trkpt>
      <trkpt lat="43.339057" lon="-8.421571">
        <ele>41.356</ele>
        <time>2019-06-21T10:36:44Z</time>
      </trkpt>
      <trkpt lat="43.339144" lon="-8.421475">
        <ele>42.042</ele>
        <time>2019-06-21T10:36:45Z</time>
      </trkpt>
      <trkpt lat="43.339216" lon="-8.421372">
        <ele>42.522</ele>
        <time>2019-06-21T10:36:46Z</time>
      </trkpt>
      <trkpt lat="43.339272" lon="-8.421279">
        <ele>43.014</ele>
        <time>2019-06-21T10:36:47Z</time>
      </trkpt>
      <trkpt lat="43.339325" lon="-8.421229">
        <ele>43.408</ele>
        <time>2019-06-21T10:36:48Z</time>
      </trkpt>
      <trkpt lat="43.339386" lon="-8.421206">
        <ele>43.857</ele>
        <time>2019-06-21T10:36:49Z</time>
      </trkpt>
      <trkpt lat="43.339442" lon="-8.421198">
        <ele>44.391</ele>
        <time>2019-06-21T10:36:50Z</time>
      </trkpt>
      <trkpt lat="43.339506" lon="-8.421214">
        <ele>44.023</ele>
        <time>2019-06-21T10:36:51Z</time>
      </trkpt>
      <trkpt lat="43.339565" lon="-8.421272">
        <ele>44.065</ele>
        <time>2019-06-21T10:36:52Z</time>
      </trkpt>
      <trkpt lat="43.339611" lon="-8.421361">
        <ele>44.292</ele>
        <time>2019-06-21T10:36:53Z</time>
      </trkpt>
      <trkpt lat="43.339648" lon="-8.421471">
        <ele>44.798</ele>
        <time>2019-06-21T10:36:54Z</time>
      </trkpt>
      <trkpt lat="43.339683" lon="-8.421573">
        <ele>45.392</ele>
        <time>2019-06-21T10:36:55Z</time>
      </trkpt>
      <trkpt lat="43.339700" lon="-8.421674">
        <ele>45.954</ele>
        <time>2019-06-21T10:36:56Z</time>
      </trkpt>
      <trkpt lat="43.339749" lon="-8.421795">
        <ele>46.476</ele>
        <time>2019-06-21T10:36:57Z</time>
      </trkpt>
      <trkpt lat="43.339801" lon="-8.421920">
        <ele>46.990</ele>
        <time>2019-06-21T10:36:58Z</time>
      </trkpt>
      <trkpt lat="43.339866" lon="-8.422031">
        <ele>47.619</ele>
        <time>2019-06-21T10:36:59Z</time>
      </trkpt>
      <trkpt lat="43.339937" lon="-8.422127">
        <ele>48.708</ele>
        <time>2019-06-21T10:37:00Z</time>
      </trkpt>
      <trkpt lat="43.340006" lon="-8.422204">
        <ele>49.850</ele>
        <time>2019-06-21T10:37:01Z</time>
      </trkpt>
      <trkpt lat="43.340081" lon="-8.422266">
        <ele>50.014</ele>
        <time>2019-06-21T10:37:02Z</time>
      </trkpt>
      <trkpt lat="43.340176" lon="-8.422282">
        <ele>49.746</ele>
        <time>2019-06-21T10:37:03Z</time>
      </trkpt>
      <trkpt lat="43.340262" lon="-8.422271">
        <ele>49.248</ele>
        <time>2019-06-21T10:37:04Z</time>
      </trkpt>
      <trkpt lat="43.340351" lon="-8.422248">
        <ele>48.915</ele>
        <time>2019-06-21T10:37:05Z</time>
      </trkpt>
      <trkpt lat="43.340428" lon="-8.422197">
        <ele>48.341</ele>
        <time>2019-06-21T10:37:06Z</time>
      </trkpt>
      <trkpt lat="43.340506" lon="-8.422141">
        <ele>47.855</ele>
        <time>2019-06-21T10:37:07Z</time>
      </trkpt>
      <trkpt lat="43.340582" lon="-8.422112">
        <ele>47.757</ele>
        <time>2019-06-21T10:37:08Z</time>
      </trkpt>
      <trkpt lat="43.340665" lon="-8.422121">
        <ele>48.063</ele>
        <time>2019-06-21T10:37:09Z</time>
      </trkpt>
      <trkpt lat="43.340743" lon="-8.422146">
        <ele>48.444</ele>
        <time>2019-06-21T10:37:10Z</time>
      </trkpt>
      <trkpt lat="43.340816" lon="-8.422188">
        <ele>48.818</ele>
        <time>2019-06-21T10:37:11Z</time>
      </trkpt>
      <trkpt lat="43.340904" lon="-8.422263">
        <ele>49.808</ele>
        <time>2019-06-21T10:37:12Z</time>
      </trkpt>
      <trkpt lat="43.341398" lon="-8.422720">
        <ele>53.989</ele>
        <time>2019-06-21T10:37:17Z</time>
      </trkpt>
      <trkpt lat="43.341469" lon="-8.422910">
        <ele>55.283</ele>
        <time>2019-06-21T10:37:18Z</time>
      </trkpt>
      <trkpt lat="43.341541" lon="-8.423059">
        <ele>56.115</ele>
        <time>2019-06-21T10:37:19Z</time>
      </trkpt>
      <trkpt lat="43.341619" lon="-8.423225">
        <ele>56.927</ele>
        <time>2019-06-21T10:37:20Z</time>
      </trkpt>
      <trkpt lat="43.341689" lon="-8.423402">
        <ele>57.874</ele>
        <time>2019-06-21T10:37:21Z</time>
      </trkpt>
      <trkpt lat="43.341764" lon="-8.423583">
        <ele>59.470</ele>
        <time>2019-06-21T10:37:22Z</time>
      </trkpt>
      <trkpt lat="43.341832" lon="-8.423775">
        <ele>60.914</ele>
        <time>2019-06-21T10:37:23Z</time>
      </trkpt>
      <trkpt lat="43.341898" lon="-8.423973">
        <ele>62.086</ele>
        <time>2019-06-21T10:37:24Z</time>
      </trkpt>
      <trkpt lat="43.341948" lon="-8.424170">
        <ele>62.049</ele>
        <time>2019-06-21T10:37:25Z</time>
      </trkpt>
      <trkpt lat="43.341988" lon="-8.424370">
        <ele>61.002</ele>
        <time>2019-06-21T10:37:26Z</time>
      </trkpt>
      <trkpt lat="43.342013" lon="-8.424583">
        <ele>60.022</ele>
        <time>2019-06-21T10:37:27Z</time>
      </trkpt>
      <trkpt lat="43.342019" lon="-8.424793">
        <ele>59.508</ele>
        <time>2019-06-21T10:37:28Z</time>
      </trkpt>
      <trkpt lat="43.342019" lon="-8.425006">
        <ele>59.547</ele>
        <time>2019-06-21T10:37:29Z</time>
      </trkpt>
      <trkpt lat="43.341971" lon="-8.425188">
        <ele>59.861</ele>
        <time>2019-06-21T10:37:30Z</time>
      </trkpt>
      <trkpt lat="43.341917" lon="-8.425367">
        <ele>59.863</ele>
        <time>2019-06-21T10:37:31Z</time>
      </trkpt>
      <trkpt lat="43.341852" lon="-8.425555">
        <ele>59.725</ele>
        <time>2019-06-21T10:37:32Z</time>
      </trkpt>
      <trkpt lat="43.341787" lon="-8.425736">
        <ele>62.132</ele>
        <time>2019-06-21T10:37:33Z</time>
      </trkpt>
      <trkpt lat="43.341729" lon="-8.425922">
        <ele>64.368</ele>
        <time>2019-06-21T10:37:34Z</time>
      </trkpt>
      <trkpt lat="43.341681" lon="-8.426105">
        <ele>65.972</ele>
        <time>2019-06-21T10:37:35Z</time>
      </trkpt>
      <trkpt lat="43.341647" lon="-8.426273">
        <ele>65.934</ele>
        <time>2019-06-21T10:37:36Z</time>
      </trkpt>
      <trkpt lat="43.341625" lon="-8.426425">
        <ele>66.051</ele>
        <time>2019-06-21T10:37:37Z</time>
      </trkpt>
      <trkpt lat="43.341605" lon="-8.426560">
        <ele>65.901</ele>
        <time>2019-06-21T10:37:38Z</time>
      </trkpt>
      <trkpt lat="43.341566" lon="-8.426696">
        <ele>65.511</ele>
        <time>2019-06-21T10:37:39Z</time>
      </trkpt>
      <trkpt lat="43.341526" lon="-8.426838">
        <ele>64.908</ele>
        <time>2019-06-21T10:37:40Z</time>
      </trkpt>
      <trkpt lat="43.341480" lon="-8.426977">
        <ele>64.268</ele>
        <time>2019-06-21T10:37:41Z</time>
      </trkpt>
      <trkpt lat="43.341434" lon="-8.427106">
        <ele>63.642</ele>
        <time>2019-06-21T10:37:42Z</time>
      </trkpt>
      <trkpt lat="43.341380" lon="-8.427209">
        <ele>63.134</ele>
        <time>2019-06-21T10:37:43Z</time>
      </trkpt>
      <trkpt lat="43.341338" lon="-8.427310">
        <ele>62.756</ele>
        <time>2019-06-21T10:37:44Z</time>
      </trkpt>
      <trkpt lat="43.341309" lon="-8.427402">
        <ele>62.473</ele>
        <time>2019-06-21T10:37:45Z</time>
      </trkpt>
      <trkpt lat="43.341297" lon="-8.427504">
        <ele>62.089</ele>
        <time>2019-06-21T10:37:46Z</time>
      </trkpt>
      <trkpt lat="43.341306" lon="-8.427617">
        <ele>61.733</ele>
        <time>2019-06-21T10:37:47Z</time>
      </trkpt>
      <trkpt lat="43.341340" lon="-8.427737">
        <ele>61.025</ele>
        <time>2019-06-21T10:37:48Z</time>
      </trkpt>
      <trkpt lat="43.341396" lon="-8.427865">
        <ele>60.361</ele>
        <time>2019-06-21T10:37:49Z</time>
      </trkpt>
      <trkpt lat="43.341463" lon="-8.428027">
        <ele>60.721</ele>
        <time>2019-06-21T10:37:50Z</time>
      </trkpt>
      <trkpt lat="43.341537" lon="-8.428202">
        <ele>61.213</ele>
        <time>2019-06-21T10:37:51Z</time>
      </trkpt>
      <trkpt lat="43.341616" lon="-8.428364">
        <ele>60.608</ele>
        <time>2019-06-21T10:37:52Z</time>
      </trkpt>
      <trkpt lat="43.341697" lon="-8.428546">
        <ele>57.869</ele>
        <time>2019-06-21T10:37:53Z</time>
      </trkpt>
      <trkpt lat="43.341783" lon="-8.428720">
        <ele>55.643</ele>
        <time>2019-06-21T10:37:54Z</time>
      </trkpt>
      <trkpt lat="43.341864" lon="-8.428898">
        <ele>53.395</ele>
        <time>2019-06-21T10:37:55Z</time>
      </trkpt>
      <trkpt lat="43.341950" lon="-8.429064">
        <ele>50.267</ele>
        <time>2019-06-21T10:37:56Z</time>
      </trkpt>
      <trkpt lat="43.342031" lon="-8.429226">
        <ele>48.124</ele>
        <time>2019-06-21T10:37:57Z</time>
      </trkpt>
      <trkpt lat="43.342119" lon="-8.429382">
        <ele>46.980</ele>
        <time>2019-06-21T10:37:58Z</time>
      </trkpt>
      <trkpt lat="43.342202" lon="-8.429532">
        <ele>46.444</ele>
        <time>2019-06-21T10:37:59Z</time>
      </trkpt>
      <trkpt lat="43.342282" lon="-8.429677">
        <ele>46.026</ele>
        <time>2019-06-21T10:38:00Z</time>
      </trkpt>
      <trkpt lat="43.342351" lon="-8.429806">
        <ele>46.315</ele>
        <time>2019-06-21T10:38:01Z</time>
      </trkpt>
      <trkpt lat="43.342421" lon="-8.429929">
        <ele>46.165</ele>
        <time>2019-06-21T10:38:02Z</time>
      </trkpt>
      <trkpt lat="43.342493" lon="-8.430048">
        <ele>45.111</ele>
        <time>2019-06-21T10:38:03Z</time>
      </trkpt>
      <trkpt lat="43.342565" lon="-8.430163">
        <ele>45.308</ele>
        <time>2019-06-21T10:38:04Z</time>
      </trkpt>
      <trkpt lat="43.342629" lon="-8.430271">
        <ele>45.254</ele>
        <time>2019-06-21T10:38:05Z</time>
      </trkpt>
      <trkpt lat="43.342691" lon="-8.430371">
        <ele>44.638</ele>
        <time>2019-06-21T10:38:06Z</time>
      </trkpt>
      <trkpt lat="43.342753" lon="-8.430462">
        <ele>43.820</ele>
        <time>2019-06-21T10:38:07Z</time>
      </trkpt>
      <trkpt lat="43.342819" lon="-8.430531">
        <ele>42.662</ele>
        <time>2019-06-21T10:38:08Z</time>
      </trkpt>
      <trkpt lat="43.342885" lon="-8.430588">
        <ele>41.169</ele>
        <time>2019-06-21T10:38:09Z</time>
      </trkpt>
      <trkpt lat="43.342958" lon="-8.430613">
        <ele>39.225</ele>
        <time>2019-06-21T10:38:10Z</time>
      </trkpt>
      <trkpt lat="43.343044" lon="-8.430603">
        <ele>36.729</ele>
        <time>2019-06-21T10:38:11Z</time>
      </trkpt>
      <trkpt lat="43.343119" lon="-8.430566">
        <ele>35.491</ele>
        <time>2019-06-21T10:38:12Z</time>
      </trkpt>
      <trkpt lat="43.343162" lon="-8.430522">
        <ele>34.812</ele>
        <time>2019-06-21T10:38:13Z</time>
      </trkpt>
      <trkpt lat="43.343186" lon="-8.430463">
        <ele>34.632</ele>
        <time>2019-06-21T10:38:14Z</time>
      </trkpt>
      <trkpt lat="43.343216" lon="-8.430394">
        <ele>34.405</ele>
        <time>2019-06-21T10:38:16Z</time>
      </trkpt>
      <trkpt lat="43.343234" lon="-8.430329">
        <ele>34.308</ele>
        <time>2019-06-21T10:38:19Z</time>
      </trkpt>
      <trkpt lat="43.343271" lon="-8.430240">
        <ele>34.114</ele>
        <time>2019-06-21T10:38:21Z</time>
      </trkpt>
      <trkpt lat="43.343301" lon="-8.430192">
        <ele>33.828</ele>
        <time>2019-06-21T10:38:22Z</time>
      </trkpt>
      <trkpt lat="43.343377" lon="-8.430158">
        <ele>33.180</ele>
        <time>2019-06-21T10:38:24Z</time>
      </trkpt>
      <trkpt lat="43.343422" lon="-8.430170">
        <ele>32.722</ele>
        <time>2019-06-21T10:38:25Z</time>
      </trkpt>
      <trkpt lat="43.343465" lon="-8.430214">
        <ele>32.389</ele>
        <time>2019-06-21T10:38:26Z</time>
      </trkpt>
      <trkpt lat="43.343489" lon="-8.430271">
        <ele>32.315</ele>
        <time>2019-06-21T10:38:27Z</time>
      </trkpt>
      <trkpt lat="43.343493" lon="-8.430336">
        <ele>32.479</ele>
        <time>2019-06-21T10:38:28Z</time>
      </trkpt>
      <trkpt lat="43.343482" lon="-8.430407">
        <ele>32.761</ele>
        <time>2019-06-21T10:38:29Z</time>
      </trkpt>
      <trkpt lat="43.343450" lon="-8.430488">
        <ele>32.982</ele>
        <time>2019-06-21T10:38:30Z</time>
      </trkpt>
      <trkpt lat="43.343430" lon="-8.430573">
        <ele>33.143</ele>
        <time>2019-06-21T10:38:31Z</time>
      </trkpt>
      <trkpt lat="43.343439" lon="-8.430656">
        <ele>33.417</ele>
        <time>2019-06-21T10:38:32Z</time>
      </trkpt>
      <trkpt lat="43.343465" lon="-8.430725">
        <ele>33.608</ele>
        <time>2019-06-21T10:38:33Z</time>
      </trkpt>
      <trkpt lat="43.343494" lon="-8.430808">
        <ele>33.951</ele>
        <time>2019-06-21T10:38:34Z</time>
      </trkpt>
      <trkpt lat="43.343535" lon="-8.430882">
        <ele>34.375</ele>
        <time>2019-06-21T10:38:35Z</time>
      </trkpt>
      <trkpt lat="43.343615" lon="-8.430975">
        <ele>34.517</ele>
        <time>2019-06-21T10:38:36Z</time>
      </trkpt>
      <trkpt lat="43.343698" lon="-8.431076">
        <ele>34.639</ele>
        <time>2019-06-21T10:38:37Z</time>
      </trkpt>
      <trkpt lat="43.343787" lon="-8.431191">
        <ele>35.046</ele>
        <time>2019-06-21T10:38:38Z</time>
      </trkpt>
      <trkpt lat="43.343881" lon="-8.431318">
        <ele>35.512</ele>
        <time>2019-06-21T10:38:39Z</time>
      </trkpt>
      <trkpt lat="43.343979" lon="-8.431428">
        <ele>35.936</ele>
        <time>2019-06-21T10:38:40Z</time>
      </trkpt>
      <trkpt lat="43.344073" lon="-8.431559">
        <ele>36.268</ele>
        <time>2019-06-21T10:38:41Z</time>
      </trkpt>
      <trkpt lat="43.344158" lon="-8.431679">
        <ele>36.144</ele>
        <time>2019-06-21T10:38:42Z</time>
      </trkpt>
      <trkpt lat="43.344236" lon="-8.431788">
        <ele>36.005</ele>
        <time>2019-06-21T10:38:43Z</time>
      </trkpt>
      <trkpt lat="43.344304" lon="-8.431888">
        <ele>36.015</ele>
        <time>2019-06-21T10:38:44Z</time>
      </trkpt>
      <trkpt lat="43.344364" lon="-8.431983">
        <ele>36.008</ele>
        <time>2019-06-21T10:38:45Z</time>
      </trkpt>
      <trkpt lat="43.344426" lon="-8.432066">
        <ele>36.027</ele>
        <time>2019-06-21T10:38:46Z</time>
      </trkpt>
      <trkpt lat="43.344484" lon="-8.432133">
        <ele>35.951</ele>
        <time>2019-06-21T10:38:47Z</time>
      </trkpt>
      <trkpt lat="43.344530" lon="-8.432183">
        <ele>35.733</ele>
        <time>2019-06-21T10:38:48Z</time>
      </trkpt>
      <trkpt lat="43.344588" lon="-8.432217">
        <ele>35.575</ele>
        <time>2019-06-21T10:38:50Z</time>
      </trkpt>
      <trkpt lat="43.344635" lon="-8.432245">
        <ele>35.472</ele>
        <time>2019-06-21T10:38:54Z</time>
      </trkpt>
      <trkpt lat="43.344735" lon="-8.432235">
        <ele>35.178</ele>
        <time>2019-06-21T10:38:58Z</time>
      </trkpt>
      <trkpt lat="43.344799" lon="-8.432235">
        <ele>35.392</ele>
        <time>2019-06-21T10:38:59Z</time>
      </trkpt>
      <trkpt lat="43.344875" lon="-8.432255">
        <ele>35.654</ele>
        <time>2019-06-21T10:39:00Z</time>
      </trkpt>
      <trkpt lat="43.344946" lon="-8.432291">
        <ele>35.939</ele>
        <time>2019-06-21T10:39:01Z</time>
      </trkpt>
      <trkpt lat="43.345018" lon="-8.432328">
        <ele>36.101</ele>
        <time>2019-06-21T10:39:02Z</time>
      </trkpt>
      <trkpt lat="43.345088" lon="-8.432391">
        <ele>36.421</ele>
        <time>2019-06-21T10:39:03Z</time>
      </trkpt>
      <trkpt lat="43.345143" lon="-8.432470">
        <ele>36.608</ele>
        <time>2019-06-21T10:39:04Z</time>
      </trkpt>
      <trkpt lat="43.345179" lon="-8.432565">
        <ele>36.716</ele>
        <time>2019-06-21T10:39:05Z</time>
      </trkpt>
      <trkpt lat="43.345213" lon="-8.432665">
        <ele>36.920</ele>
        <time>2019-06-21T10:39:06Z</time>
      </trkpt>
      <trkpt lat="43.345229" lon="-8.432789">
        <ele>37.092</ele>
        <time>2019-06-21T10:39:07Z</time>
      </trkpt>
      <trkpt lat="43.345238" lon="-8.432910">
        <ele>37.594</ele>
        <time>2019-06-21T10:39:08Z</time>
      </trkpt>
      <trkpt lat="43.345226" lon="-8.433019">
        <ele>37.911</ele>
        <time>2019-06-21T10:39:09Z</time>
      </trkpt>
      <trkpt lat="43.345151" lon="-8.433117">
        <ele>38.477</ele>
        <time>2019-06-21T10:39:10Z</time>
      </trkpt>
      <trkpt lat="43.345080" lon="-8.433219">
        <ele>39.281</ele>
        <time>2019-06-21T10:39:11Z</time>
      </trkpt>
      <trkpt lat="43.345012" lon="-8.433297">
        <ele>39.733</ele>
        <time>2019-06-21T10:39:12Z</time>
      </trkpt>
      <trkpt lat="43.344947" lon="-8.433363">
        <ele>39.919</ele>
        <time>2019-06-21T10:39:13Z</time>
      </trkpt>
      <trkpt lat="43.344892" lon="-8.433430">
        <ele>40.109</ele>
        <time>2019-06-21T10:39:14Z</time>
      </trkpt>
      <trkpt lat="43.344841" lon="-8.433523">
        <ele>40.519</ele>
        <time>2019-06-21T10:39:15Z</time>
      </trkpt>
      <trkpt lat="43.344796" lon="-8.433637">
        <ele>41.208</ele>
        <time>2019-06-21T10:39:16Z</time>
      </trkpt>
      <trkpt lat="43.344760" lon="-8.433783">
        <ele>42.244</ele>
        <time>2019-06-21T10:39:17Z</time>
      </trkpt>
      <trkpt lat="43.344731" lon="-8.433934">
        <ele>43.198</ele>
        <time>2019-06-21T10:39:18Z</time>
      </trkpt>
      <trkpt lat="43.344719" lon="-8.434142">
        <ele>43.940</ele>
        <time>2019-06-21T10:39:19Z</time>
      </trkpt>
      <trkpt lat="43.344707" lon="-8.434346">
        <ele>44.122</ele>
        <time>2019-06-21T10:39:20Z</time>
      </trkpt>
      <trkpt lat="43.344702" lon="-8.434561">
        <ele>43.889</ele>
        <time>2019-06-21T10:39:21Z</time>
      </trkpt>
      <trkpt lat="43.344699" lon="-8.434784">
        <ele>43.175</ele>
        <time>2019-06-21T10:39:22Z</time>
      </trkpt>
      <trkpt lat="43.344699" lon="-8.435008">
        <ele>42.229</ele>
        <time>2019-06-21T10:39:23Z</time>
      </trkpt>
      <trkpt lat="43.344709" lon="-8.435235">
        <ele>41.341</ele>
        <time>2019-06-21T10:39:24Z</time>
      </trkpt>
      <trkpt lat="43.344708" lon="-8.435453">
        <ele>41.116</ele>
        <time>2019-06-21T10:39:25Z</time>
      </trkpt>
      <trkpt lat="43.344710" lon="-8.435665">
        <ele>41.476</ele>
        <time>2019-06-21T10:39:26Z</time>
      </trkpt>
      <trkpt lat="43.344709" lon="-8.435847">
        <ele>42.113</ele>
        <time>2019-06-21T10:39:27Z</time>
      </trkpt>
      <trkpt lat="43.344706" lon="-8.436065">
        <ele>43.708</ele>
        <time>2019-06-21T10:39:28Z</time>
      </trkpt>
      <trkpt lat="43.344708" lon="-8.436281">
        <ele>44.714</ele>
        <time>2019-06-21T10:39:29Z</time>
      </trkpt>
      <trkpt lat="43.344707" lon="-8.436495">
        <ele>46.248</ele>
        <time>2019-06-21T10:39:30Z</time>
      </trkpt>
      <trkpt lat="43.344709" lon="-8.436706">
        <ele>48.420</ele>
        <time>2019-06-21T10:39:31Z</time>
      </trkpt>
      <trkpt lat="43.344710" lon="-8.436938">
        <ele>50.872</ele>
        <time>2019-06-21T10:39:32Z</time>
      </trkpt>
      <trkpt lat="43.344705" lon="-8.437177">
        <ele>51.789</ele>
        <time>2019-06-21T10:39:33Z</time>
      </trkpt>
      <trkpt lat="43.344693" lon="-8.437426">
        <ele>50.995</ele>
        <time>2019-06-21T10:39:34Z</time>
      </trkpt>
      <trkpt lat="43.344669" lon="-8.437685">
        <ele>47.819</ele>
        <time>2019-06-21T10:39:35Z</time>
      </trkpt>
      <trkpt lat="43.344636" lon="-8.437937">
        <ele>45.091</ele>
        <time>2019-06-21T10:39:36Z</time>
      </trkpt>
      <trkpt lat="43.344596" lon="-8.438207">
        <ele>44.044</ele>
        <time>2019-06-21T10:39:37Z</time>
      </trkpt>
      <trkpt lat="43.344555" lon="-8.438483">
        <ele>44.405</ele>
        <time>2019-06-21T10:39:38Z</time>
      </trkpt>
      <trkpt lat="43.344505" lon="-8.438761">
        <ele>46.915</ele>
        <time>2019-06-21T10:39:39Z</time>
      </trkpt>
      <trkpt lat="43.344460" lon="-8.439034">
        <ele>49.408</ele>
        <time>2019-06-21T10:39:40Z</time>
      </trkpt>
      <trkpt lat="43.344399" lon="-8.439301">
        <ele>50.687</ele>
        <time>2019-06-21T10:39:41Z</time>
      </trkpt>
      <trkpt lat="43.344326" lon="-8.439564">
        <ele>51.481</ele>
        <time>2019-06-21T10:39:42Z</time>
      </trkpt>
      <trkpt lat="43.344246" lon="-8.439816">
        <ele>52.153</ele>
        <time>2019-06-21T10:39:43Z</time>
      </trkpt>
      <trkpt lat="43.344155" lon="-8.440058">
        <ele>53.925</ele>
        <time>2019-06-21T10:39:44Z</time>
      </trkpt>
      <trkpt lat="43.344050" lon="-8.440312">
        <ele>54.772</ele>
        <time>2019-06-21T10:39:45Z</time>
      </trkpt>
      <trkpt lat="43.343938" lon="-8.440540">
        <ele>54.328</ele>
        <time>2019-06-21T10:39:46Z</time>
      </trkpt>
      <trkpt lat="43.343815" lon="-8.440769">
        <ele>53.672</ele>
        <time>2019-06-21T10:39:47Z</time>
      </trkpt>
      <trkpt lat="43.343682" lon="-8.440995">
        <ele>55.014</ele>
        <time>2019-06-21T10:39:48Z</time>
      </trkpt>
      <trkpt lat="43.343547" lon="-8.441225">
        <ele>58.133</ele>
        <time>2019-06-21T10:39:49Z</time>
      </trkpt>
      <trkpt lat="43.343407" lon="-8.441460">
        <ele>60.923</ele>
        <time>2019-06-21T10:39:50Z</time>
      </trkpt>
      <trkpt lat="43.343266" lon="-8.441695">
        <ele>63.215</ele>
        <time>2019-06-21T10:39:51Z</time>
      </trkpt>
      <trkpt lat="43.343129" lon="-8.441957">
        <ele>61.408</ele>
        <time>2019-06-21T10:39:52Z</time>
      </trkpt>
      <trkpt lat="43.343010" lon="-8.442222">
        <ele>63.186</ele>
        <time>2019-06-21T10:39:53Z</time>
      </trkpt>
      <trkpt lat="43.342916" lon="-8.442483">
        <ele>62.210</ele>
        <time>2019-06-21T10:39:54Z</time>
      </trkpt>
      <trkpt lat="43.342831" lon="-8.442758">
        <ele>62.062</ele>
        <time>2019-06-21T10:39:55Z</time>
      </trkpt>
      <trkpt lat="43.342764" lon="-8.443041">
        <ele>63.264</ele>
        <time>2019-06-21T10:39:56Z</time>
      </trkpt>
      <trkpt lat="43.342704" lon="-8.443322">
        <ele>63.521</ele>
        <time>2019-06-21T10:39:57Z</time>
      </trkpt>
      <trkpt lat="43.342659" lon="-8.443605">
        <ele>63.497</ele>
        <time>2019-06-21T10:39:58Z</time>
      </trkpt>
      <trkpt lat="43.342631" lon="-8.443897">
        <ele>60.971</ele>
        <time>2019-06-21T10:39:59Z</time>
      </trkpt>
      <trkpt lat="43.342619" lon="-8.444181">
        <ele>59.053</ele>
        <time>2019-06-21T10:40:00Z</time>
      </trkpt>
      <trkpt lat="43.342612" lon="-8.444476">
        <ele>59.063</ele>
        <time>2019-06-21T10:40:01Z</time>
      </trkpt>
      <trkpt lat="43.342611" lon="-8.444763">
        <ele>58.844</ele>
        <time>2019-06-21T10:40:02Z</time>
      </trkpt>
      <trkpt lat="43.342605" lon="-8.445052">
        <ele>57.218</ele>
        <time>2019-06-21T10:40:03Z</time>
      </trkpt>
      <trkpt lat="43.342598" lon="-8.445329">
        <ele>55.408</ele>
        <time>2019-06-21T10:40:04Z</time>
      </trkpt>
      <trkpt lat="43.342588" lon="-8.445604">
        <ele>54.629</ele>
        <time>2019-06-21T10:40:05Z</time>
      </trkpt>
      <trkpt lat="43.342574" lon="-8.445861">
        <ele>55.893</ele>
        <time>2019-06-21T10:40:06Z</time>
      </trkpt>
      <trkpt lat="43.342544" lon="-8.446145">
        <ele>56.015</ele>
        <time>2019-06-21T10:40:07Z</time>
      </trkpt>
      <trkpt lat="43.342511" lon="-8.446427">
        <ele>56.067</ele>
        <time>2019-06-21T10:40:08Z</time>
      </trkpt>
      <trkpt lat="43.342444" lon="-8.446730">
        <ele>56.464</ele>
        <time>2019-06-21T10:40:09Z</time>
      </trkpt>
      <trkpt lat="43.342372" lon="-8.447026">
        <ele>57.310</ele>
        <time>2019-06-21T10:40:10Z</time>
      </trkpt>
      <trkpt lat="43.342285" lon="-8.447318">
        <ele>58.314</ele>
        <time>2019-06-21T10:40:11Z</time>
      </trkpt>
      <trkpt lat="43.342179" lon="-8.447612">
        <ele>59.826</ele>
        <time>2019-06-21T10:40:12Z</time>
      </trkpt>
      <trkpt lat="43.342069" lon="-8.447898">
        <ele>62.152</ele>
        <time>2019-06-21T10:40:13Z</time>
      </trkpt>
      <trkpt lat="43.341946" lon="-8.448187">
        <ele>63.553</ele>
        <time>2019-06-21T10:40:14Z</time>
      </trkpt>
      <trkpt lat="43.341788" lon="-8.448447">
        <ele>62.708</ele>
        <time>2019-06-21T10:40:15Z</time>
      </trkpt>
      <trkpt lat="43.341630" lon="-8.448684">
        <ele>61.808</ele>
        <time>2019-06-21T10:40:16Z</time>
      </trkpt>
      <trkpt lat="43.341458" lon="-8.448928">
        <ele>61.868</ele>
        <time>2019-06-21T10:40:17Z</time>
      </trkpt>
      <trkpt lat="43.341282" lon="-8.449130">
        <ele>62.082</ele>
        <time>2019-06-21T10:40:18Z</time>
      </trkpt>
      <trkpt lat="43.341102" lon="-8.449331">
        <ele>62.774</ele>
        <time>2019-06-21T10:40:19Z</time>
      </trkpt>
      <trkpt lat="43.340916" lon="-8.449523">
        <ele>64.196</ele>
        <time>2019-06-21T10:40:20Z</time>
      </trkpt>
      <trkpt lat="43.340732" lon="-8.449705">
        <ele>65.823</ele>
        <time>2019-06-21T10:40:21Z</time>
      </trkpt>
      <trkpt lat="43.340554" lon="-8.449893">
        <ele>70.979</ele>
        <time>2019-06-21T10:40:22Z</time>
      </trkpt>
      <trkpt lat="43.340373" lon="-8.450081">
        <ele>77.163</ele>
        <time>2019-06-21T10:40:23Z</time>
      </trkpt>
      <trkpt lat="43.340192" lon="-8.450262">
        <ele>81.535</ele>
        <time>2019-06-21T10:40:24Z</time>
      </trkpt>
      <trkpt lat="43.340024" lon="-8.450461">
        <ele>82.769</ele>
        <time>2019-06-21T10:40:25Z</time>
      </trkpt>
      <trkpt lat="43.339875" lon="-8.450688">
        <ele>83.504</ele>
        <time>2019-06-21T10:40:26Z</time>
      </trkpt>
      <trkpt lat="43.339736" lon="-8.450923">
        <ele>84.424</ele>
        <time>2019-06-21T10:40:27Z</time>
      </trkpt>
      <trkpt lat="43.339605" lon="-8.451169">
        <ele>86.508</ele>
        <time>2019-06-21T10:40:28Z</time>
      </trkpt>
      <trkpt lat="43.339490" lon="-8.451423">
        <ele>84.959</ele>
        <time>2019-06-21T10:40:29Z</time>
      </trkpt>
      <trkpt lat="43.339389" lon="-8.451696">
        <ele>86.333</ele>
        <time>2019-06-21T10:40:30Z</time>
      </trkpt>
      <trkpt lat="43.339303" lon="-8.451969">
        <ele>88.835</ele>
        <time>2019-06-21T10:40:31Z</time>
      </trkpt>
      <trkpt lat="43.339230" lon="-8.452252">
        <ele>92.567</ele>
        <time>2019-06-21T10:40:32Z</time>
      </trkpt>
      <trkpt lat="43.339163" lon="-8.452532">
        <ele>96.084</ele>
        <time>2019-06-21T10:40:33Z</time>
      </trkpt>
      <trkpt lat="43.339095" lon="-8.452807">
        <ele>97.050</ele>
        <time>2019-06-21T10:40:34Z</time>
      </trkpt>
      <trkpt lat="43.339028" lon="-8.453079">
        <ele>97.754</ele>
        <time>2019-06-21T10:40:35Z</time>
      </trkpt>
      <trkpt lat="43.338949" lon="-8.453346">
        <ele>101.586</ele>
        <time>2019-06-21T10:40:36Z</time>
      </trkpt>
      <trkpt lat="43.338880" lon="-8.453623">
        <ele>103.192</ele>
        <time>2019-06-21T10:40:37Z</time>
      </trkpt>
      <trkpt lat="43.338784" lon="-8.453881">
        <ele>102.573</ele>
        <time>2019-06-21T10:40:38Z</time>
      </trkpt>
      <trkpt lat="43.338674" lon="-8.454114">
        <ele>102.320</ele>
        <time>2019-06-21T10:40:39Z</time>
      </trkpt>
      <trkpt lat="43.338525" lon="-8.454336">
        <ele>102.608</ele>
        <time>2019-06-21T10:40:40Z</time>
      </trkpt>
      <trkpt lat="43.338336" lon="-8.454556">
        <ele>103.872</ele>
        <time>2019-06-21T10:40:41Z</time>
      </trkpt>
      <trkpt lat="43.338176" lon="-8.454744">
        <ele>103.476</ele>
        <time>2019-06-21T10:40:42Z</time>
      </trkpt>
      <trkpt lat="43.337994" lon="-8.454912">
        <ele>102.968</ele>
        <time>2019-06-21T10:40:43Z</time>
      </trkpt>
      <trkpt lat="43.337806" lon="-8.455056">
        <ele>103.150</ele>
        <time>2019-06-21T10:40:44Z</time>
      </trkpt>
      <trkpt lat="43.337607" lon="-8.455176">
        <ele>103.727</ele>
        <time>2019-06-21T10:40:45Z</time>
      </trkpt>
      <trkpt lat="43.337401" lon="-8.455278">
        <ele>103.683</ele>
        <time>2019-06-21T10:40:46Z</time>
      </trkpt>
      <trkpt lat="43.337190" lon="-8.455357">
        <ele>102.297</ele>
        <time>2019-06-21T10:40:47Z</time>
      </trkpt>
      <trkpt lat="43.336981" lon="-8.455428">
        <ele>101.879</ele>
        <time>2019-06-21T10:40:48Z</time>
      </trkpt>
      <trkpt lat="43.336764" lon="-8.455432">
        <ele>103.769</ele>
        <time>2019-06-21T10:40:49Z</time>
      </trkpt>
      <trkpt lat="43.336555" lon="-8.455425">
        <ele>105.504</ele>
        <time>2019-06-21T10:40:50Z</time>
      </trkpt>
      <trkpt lat="43.336350" lon="-8.455384">
        <ele>107.024</ele>
        <time>2019-06-21T10:40:51Z</time>
      </trkpt>
      <trkpt lat="43.336129" lon="-8.455316">
        <ele>108.108</ele>
        <time>2019-06-21T10:40:52Z</time>
      </trkpt>
      <trkpt lat="43.335918" lon="-8.455230">
        <ele>110.489</ele>
        <time>2019-06-21T10:40:53Z</time>
      </trkpt>
      <trkpt lat="43.335710" lon="-8.455109">
        <ele>113.593</ele>
        <time>2019-06-21T10:40:54Z</time>
      </trkpt>
      <trkpt lat="43.335494" lon="-8.454991">
        <ele>114.555</ele>
        <time>2019-06-21T10:40:55Z</time>
      </trkpt>
      <trkpt lat="43.335275" lon="-8.454887">
        <ele>114.497</ele>
        <time>2019-06-21T10:40:56Z</time>
      </trkpt>
      <trkpt lat="43.335060" lon="-8.454783">
        <ele>114.954</ele>
        <time>2019-06-21T10:40:57Z</time>
      </trkpt>
      <trkpt lat="43.334825" lon="-8.454715">
        <ele>114.370</ele>
        <time>2019-06-21T10:40:58Z</time>
      </trkpt>
      <trkpt lat="43.334601" lon="-8.454681">
        <ele>113.514</ele>
        <time>2019-06-21T10:40:59Z</time>
      </trkpt>
      <trkpt lat="43.334375" lon="-8.454680">
        <ele>114.356</ele>
        <time>2019-06-21T10:41:00Z</time>
      </trkpt>
      <trkpt lat="43.334163" lon="-8.454714">
        <ele>117.166</ele>
        <time>2019-06-21T10:41:01Z</time>
      </trkpt>
      <trkpt lat="43.333943" lon="-8.454775">
        <ele>117.929</ele>
        <time>2019-06-21T10:41:02Z</time>
      </trkpt>
      <trkpt lat="43.333731" lon="-8.454858">
        <ele>119.321</ele>
        <time>2019-06-21T10:41:03Z</time>
      </trkpt>
      <trkpt lat="43.333528" lon="-8.454965">
        <ele>122.208</ele>
        <time>2019-06-21T10:41:04Z</time>
      </trkpt>
      <trkpt lat="43.333336" lon="-8.455081">
        <ele>126.539</ele>
        <time>2019-06-21T10:41:05Z</time>
      </trkpt>
      <trkpt lat="43.333146" lon="-8.455200">
        <ele>128.213</ele>
        <time>2019-06-21T10:41:06Z</time>
      </trkpt>
      <trkpt lat="43.332953" lon="-8.455320">
        <ele>127.425</ele>
        <time>2019-06-21T10:41:07Z</time>
      </trkpt>
      <trkpt lat="43.332760" lon="-8.455444">
        <ele>126.487</ele>
        <time>2019-06-21T10:41:08Z</time>
      </trkpt>
      <trkpt lat="43.332560" lon="-8.455552">
        <ele>128.054</ele>
        <time>2019-06-21T10:41:09Z</time>
      </trkpt>
      <trkpt lat="43.332351" lon="-8.455653">
        <ele>135.360</ele>
        <time>2019-06-21T10:41:10Z</time>
      </trkpt>
      <trkpt lat="43.332153" lon="-8.455740">
        <ele>142.754</ele>
        <time>2019-06-21T10:41:11Z</time>
      </trkpt>
      <trkpt lat="43.331943" lon="-8.455834">
        <ele>149.016</ele>
        <time>2019-06-21T10:41:12Z</time>
      </trkpt>
      <trkpt lat="43.331734" lon="-8.455915">
        <ele>150.227</ele>
        <time>2019-06-21T10:41:13Z</time>
      </trkpt>
      <trkpt lat="43.331537" lon="-8.455989">
        <ele>151.068</ele>
        <time>2019-06-21T10:41:14Z</time>
      </trkpt>
      <trkpt lat="43.331342" lon="-8.456092">
        <ele>152.014</ele>
        <time>2019-06-21T10:41:15Z</time>
      </trkpt>
      <trkpt lat="43.331149" lon="-8.456211">
        <ele>154.608</ele>
        <time>2019-06-21T10:41:16Z</time>
      </trkpt>
      <trkpt lat="43.330961" lon="-8.456365">
        <ele>157.045</ele>
        <time>2019-06-21T10:41:17Z</time>
      </trkpt>
      <trkpt lat="43.330788" lon="-8.456540">
        <ele>158.679</ele>
        <time>2019-06-21T10:41:18Z</time>
      </trkpt>
      <trkpt lat="43.330617" lon="-8.456747">
        <ele>159.291</ele>
        <time>2019-06-21T10:41:19Z</time>
      </trkpt>
      <trkpt lat="43.330462" lon="-8.456975">
        <ele>160.033</ele>
        <time>2019-06-21T10:41:20Z</time>
      </trkpt>
      <trkpt lat="43.330316" lon="-8.457226">
        <ele>161.330</ele>
        <time>2019-06-21T10:41:21Z</time>
      </trkpt>
      <trkpt lat="43.330191" lon="-8.457489">
        <ele>161.246</ele>
        <time>2019-06-21T10:41:22Z</time>
      </trkpt>
      <trkpt lat="43.330070" lon="-8.457767">
        <ele>155.610</ele>
        <time>2019-06-21T10:41:23Z</time>
      </trkpt>
      <trkpt lat="43.329940" lon="-8.458041">
        <ele>150.092</ele>
        <time>2019-06-21T10:41:24Z</time>
      </trkpt>
      <trkpt lat="43.329812" lon="-8.458293">
        <ele>147.677</ele>
        <time>2019-06-21T10:41:25Z</time>
      </trkpt>
      <trkpt lat="43.329680" lon="-8.458539">
        <ele>147.561</ele>
        <time>2019-06-21T10:41:26Z</time>
      </trkpt>
      <trkpt lat="43.329544" lon="-8.458773">
        <ele>146.227</ele>
        <time>2019-06-21T10:41:27Z</time>
      </trkpt>
      <trkpt lat="43.329405" lon="-8.458992">
        <ele>142.708</ele>
        <time>2019-06-21T10:41:28Z</time>
      </trkpt>
      <trkpt lat="43.329237" lon="-8.459241">
        <ele>139.370</ele>
        <time>2019-06-21T10:41:29Z</time>
      </trkpt>
      <trkpt lat="43.329094" lon="-8.459444">
        <ele>136.724</ele>
        <time>2019-06-21T10:41:30Z</time>
      </trkpt>
      <trkpt lat="43.328946" lon="-8.459615">
        <ele>134.586</ele>
        <time>2019-06-21T10:41:31Z</time>
      </trkpt>
      <trkpt lat="43.328792" lon="-8.459800">
        <ele>132.858</ele>
        <time>2019-06-21T10:41:32Z</time>
      </trkpt>
      <trkpt lat="43.328634" lon="-8.459965">
        <ele>132.285</ele>
        <time>2019-06-21T10:41:33Z</time>
      </trkpt>
      <trkpt lat="43.328482" lon="-8.460122">
        <ele>131.881</ele>
        <time>2019-06-21T10:41:34Z</time>
      </trkpt>
      <trkpt lat="43.328334" lon="-8.460263">
        <ele>132.065</ele>
        <time>2019-06-21T10:41:35Z</time>
      </trkpt>
      <trkpt lat="43.328190" lon="-8.460392">
        <ele>131.447</ele>
        <time>2019-06-21T10:41:36Z</time>
      </trkpt>
      <trkpt lat="43.328055" lon="-8.460507">
        <ele>131.284</ele>
        <time>2019-06-21T10:41:37Z</time>
      </trkpt>
      <trkpt lat="43.327931" lon="-8.460610">
        <ele>130.907</ele>
        <time>2019-06-21T10:41:38Z</time>
      </trkpt>
      <trkpt lat="43.327809" lon="-8.460713">
        <ele>130.217</ele>
        <time>2019-06-21T10:41:39Z</time>
      </trkpt>
      <trkpt lat="43.327689" lon="-8.460809">
        <ele>129.508</ele>
        <time>2019-06-21T10:41:40Z</time>
      </trkpt>
      <trkpt lat="43.327581" lon="-8.460911">
        <ele>129.031</ele>
        <time>2019-06-21T10:41:41Z</time>
      </trkpt>
      <trkpt lat="43.327481" lon="-8.461009">
        <ele>128.835</ele>
        <time>2019-06-21T10:41:42Z</time>
      </trkpt>
      <trkpt lat="43.327387" lon="-8.461106">
        <ele>128.427</ele>
        <time>2019-06-21T10:41:43Z</time>
      </trkpt>
      <trkpt lat="43.327300" lon="-8.461199">
        <ele>127.949</ele>
        <time>2019-06-21T10:41:44Z</time>
      </trkpt>
      <trkpt lat="43.327222" lon="-8.461296">
        <ele>127.786</ele>
        <time>2019-06-21T10:41:45Z</time>
      </trkpt>
      <trkpt lat="43.327151" lon="-8.461397">
        <ele>126.972</ele>
        <time>2019-06-21T10:41:46Z</time>
      </trkpt>
      <trkpt lat="43.327081" lon="-8.461488">
        <ele>126.196</ele>
        <time>2019-06-21T10:41:47Z</time>
      </trkpt>
      <trkpt lat="43.327020" lon="-8.461579">
        <ele>125.888</ele>
        <time>2019-06-21T10:41:48Z</time>
      </trkpt>
      <trkpt lat="43.326965" lon="-8.461621">
        <ele>126.047</ele>
        <time>2019-06-21T10:41:49Z</time>
      </trkpt>
      <trkpt lat="43.326921" lon="-8.461660">
        <ele>126.129</ele>
        <time>2019-06-21T10:41:50Z</time>
      </trkpt>
      <trkpt lat="43.326872" lon="-8.461673">
        <ele>126.221</ele>
        <time>2019-06-21T10:41:51Z</time>
      </trkpt>
      <trkpt lat="43.326796" lon="-8.461697">
        <ele>126.308</ele>
        <time>2019-06-21T10:41:53Z</time>
      </trkpt>
      <trkpt lat="43.326719" lon="-8.461743">
        <ele>126.427</ele>
        <time>2019-06-21T10:41:55Z</time>
      </trkpt>
      <trkpt lat="43.326679" lon="-8.461789">
        <ele>126.521</ele>
        <time>2019-06-21T10:41:58Z</time>
      </trkpt>
      <trkpt lat="43.326687" lon="-8.461727">
        <ele>126.753</ele>
        <time>2019-06-21T10:42:12Z</time>
      </trkpt>
      <trkpt lat="43.326722" lon="-8.461683">
        <ele>126.715</ele>
        <time>2019-06-21T10:42:21Z</time>
      </trkpt>
      <trkpt lat="43.326775" lon="-8.461708">
        <ele>126.332</ele>
        <time>2019-06-21T10:42:27Z</time>
      </trkpt>
      <trkpt lat="43.326838" lon="-8.461782">
        <ele>125.588</ele>
        <time>2019-06-21T10:42:29Z</time>
      </trkpt>
      <trkpt lat="43.326873" lon="-8.461859">
        <ele>124.532</ele>
        <time>2019-06-21T10:42:31Z</time>
      </trkpt>
      <trkpt lat="43.326842" lon="-8.461927">
        <ele>124.274</ele>
        <time>2019-06-21T10:42:34Z</time>
      </trkpt>
      <trkpt lat="43.326795" lon="-8.461896">
        <ele>125.058</ele>
        <time>2019-06-21T10:42:47Z</time>
      </trkpt>
      <trkpt lat="43.326750" lon="-8.461844">
        <ele>125.752</ele>
        <time>2019-06-21T10:42:53Z</time>
      </trkpt>
      <trkpt lat="43.326699" lon="-8.461810">
        <ele>126.217</ele>
        <time>2019-06-21T10:42:55Z</time>
      </trkpt>
      <trkpt lat="43.326712" lon="-8.461871">
        <ele>125.908</ele>
        <time>2019-06-21T10:43:06Z</time>
      </trkpt>
      <trkpt lat="43.326655" lon="-8.462024">
        <ele>125.268</ele>
        <time>2019-06-21T10:43:08Z</time>
      </trkpt>
      <trkpt lat="43.326570" lon="-8.462146">
        <ele>124.142</ele>
        <time>2019-06-21T10:43:09Z</time>
      </trkpt>
      <trkpt lat="43.326470" lon="-8.462268">
        <ele>122.924</ele>
        <time>2019-06-21T10:43:10Z</time>
      </trkpt>
      <trkpt lat="43.326363" lon="-8.462392">
        <ele>121.776</ele>
        <time>2019-06-21T10:43:11Z</time>
      </trkpt>
      <trkpt lat="43.326241" lon="-8.462536">
        <ele>121.073</ele>
        <time>2019-06-21T10:43:12Z</time>
      </trkpt>
      <trkpt lat="43.326110" lon="-8.462697">
        <ele>120.919</ele>
        <time>2019-06-21T10:43:13Z</time>
      </trkpt>
      <trkpt lat="43.325978" lon="-8.462873">
        <ele>120.563</ele>
        <time>2019-06-21T10:43:14Z</time>
      </trkpt>
      <trkpt lat="43.325831" lon="-8.463161">
        <ele>119.225</ele>
        <time>2019-06-21T10:43:15Z</time>
      </trkpt>
      <trkpt lat="43.325724" lon="-8.463393">
        <ele>118.447</ele>
        <time>2019-06-21T10:43:16Z</time>
      </trkpt>
      <trkpt lat="43.325614" lon="-8.463638">
        <ele>118.429</ele>
        <time>2019-06-21T10:43:17Z</time>
      </trkpt>
      <trkpt lat="43.325498" lon="-8.463884">
        <ele>121.321</ele>
        <time>2019-06-21T10:43:18Z</time>
      </trkpt>
      <trkpt lat="43.325387" lon="-8.464136">
        <ele>123.908</ele>
        <time>2019-06-21T10:43:19Z</time>
      </trkpt>
      <trkpt lat="43.325278" lon="-8.464395">
        <ele>125.587</ele>
        <time>2019-06-21T10:43:20Z</time>
      </trkpt>
      <trkpt lat="43.325163" lon="-8.464652">
        <ele>125.291</ele>
        <time>2019-06-21T10:43:21Z</time>
      </trkpt>
      <trkpt lat="43.325036" lon="-8.464900">
        <ele>126.193</ele>
        <time>2019-06-21T10:43:22Z</time>
      </trkpt>
      <trkpt lat="43.324905" lon="-8.465151">
        <ele>125.945</ele>
        <time>2019-06-21T10:43:23Z</time>
      </trkpt>
      <trkpt lat="43.324763" lon="-8.465393">
        <ele>124.832</ele>
        <time>2019-06-21T10:43:24Z</time>
      </trkpt>
      <trkpt lat="43.324614" lon="-8.465624">
        <ele>124.688</ele>
        <time>2019-06-21T10:43:25Z</time>
      </trkpt>
      <trkpt lat="43.324452" lon="-8.465855">
        <ele>123.772</ele>
        <time>2019-06-21T10:43:26Z</time>
      </trkpt>
      <trkpt lat="43.324283" lon="-8.466069">
        <ele>123.554</ele>
        <time>2019-06-21T10:43:27Z</time>
      </trkpt>
      <trkpt lat="43.324100" lon="-8.466285">
        <ele>122.329</ele>
        <time>2019-06-21T10:43:28Z</time>
      </trkpt>
      <trkpt lat="43.323905" lon="-8.466468">
        <ele>122.300</ele>
        <time>2019-06-21T10:43:29Z</time>
      </trkpt>
      <trkpt lat="43.323706" lon="-8.466643">
        <ele>122.520</ele>
        <time>2019-06-21T10:43:30Z</time>
      </trkpt>
      <trkpt lat="43.323501" lon="-8.466815">
        <ele>122.708</ele>
        <time>2019-06-21T10:43:31Z</time>
      </trkpt>
      <trkpt lat="43.323286" lon="-8.466972">
        <ele>121.725</ele>
        <time>2019-06-21T10:43:32Z</time>
      </trkpt>
      <trkpt lat="43.323059" lon="-8.467108">
        <ele>119.819</ele>
        <time>2019-06-21T10:43:33Z</time>
      </trkpt>
      <trkpt lat="43.322837" lon="-8.467237">
        <ele>117.551</ele>
        <time>2019-06-21T10:43:34Z</time>
      </trkpt>
      <trkpt lat="43.322602" lon="-8.467365">
        <ele>117.423</ele>
        <time>2019-06-21T10:43:35Z</time>
      </trkpt>
      <trkpt lat="43.322372" lon="-8.467480">
        <ele>115.770</ele>
        <time>2019-06-21T10:43:36Z</time>
      </trkpt>
      <trkpt lat="43.322140" lon="-8.467593">
        <ele>112.786</ele>
        <time>2019-06-21T10:43:37Z</time>
      </trkpt>
      <trkpt lat="43.321921" lon="-8.467717">
        <ele>109.050</ele>
        <time>2019-06-21T10:43:38Z</time>
      </trkpt>
      <trkpt lat="43.321704" lon="-8.467847">
        <ele>104.282</ele>
        <time>2019-06-21T10:43:39Z</time>
      </trkpt>
      <trkpt lat="43.321490" lon="-8.468000">
        <ele>99.635</ele>
        <time>2019-06-21T10:43:40Z</time>
      </trkpt>
      <trkpt lat="43.321296" lon="-8.468171">
        <ele>96.286</ele>
        <time>2019-06-21T10:43:41Z</time>
      </trkpt>
      <trkpt lat="43.321097" lon="-8.468353">
        <ele>92.714</ele>
        <time>2019-06-21T10:43:42Z</time>
      </trkpt>
      <trkpt lat="43.320895" lon="-8.468537">
        <ele>90.408</ele>
        <time>2019-06-21T10:43:43Z</time>
      </trkpt>
      <trkpt lat="43.320695" lon="-8.468729">
        <ele>91.176</ele>
        <time>2019-06-21T10:43:44Z</time>
      </trkpt>
      <trkpt lat="43.320505" lon="-8.468938">
        <ele>93.710</ele>
        <time>2019-06-21T10:43:45Z</time>
      </trkpt>
      <trkpt lat="43.320324" lon="-8.469152">
        <ele>94.562</ele>
        <time>2019-06-21T10:43:46Z</time>
      </trkpt>
      <trkpt lat="43.320146" lon="-8.469352">
        <ele>93.184</ele>
        <time>2019-06-21T10:43:47Z</time>
      </trkpt>
      <trkpt lat="43.319962" lon="-8.469520">
        <ele>92.651</ele>
        <time>2019-06-21T10:43:48Z</time>
      </trkpt>
      <trkpt lat="43.319775" lon="-8.469700">
        <ele>92.637</ele>
        <time>2019-06-21T10:43:49Z</time>
      </trkpt>
      <trkpt lat="43.319568" lon="-8.469842">
        <ele>92.921</ele>
        <time>2019-06-21T10:43:50Z</time>
      </trkpt>
      <trkpt lat="43.319366" lon="-8.469965">
        <ele>93.183</ele>
        <time>2019-06-21T10:43:51Z</time>
      </trkpt>
      <trkpt lat="43.319152" lon="-8.470063">
        <ele>95.218</ele>
        <time>2019-06-21T10:43:52Z</time>
      </trkpt>
      <trkpt lat="43.318943" lon="-8.470155">
        <ele>95.498</ele>
        <time>2019-06-21T10:43:53Z</time>
      </trkpt>
      <trkpt lat="43.318685" lon="-8.470157">
        <ele>93.217</ele>
        <time>2019-06-21T10:43:54Z</time>
      </trkpt>
      <trkpt lat="43.318453" lon="-8.470149">
        <ele>88.708</ele>
        <time>2019-06-21T10:43:55Z</time>
      </trkpt>
      <trkpt lat="43.318219" lon="-8.470153">
        <ele>84.264</ele>
        <time>2019-06-21T10:43:56Z</time>
      </trkpt>
      <trkpt lat="43.317995" lon="-8.470171">
        <ele>81.188</ele>
        <time>2019-06-21T10:43:57Z</time>
      </trkpt>
      <trkpt lat="43.317773" lon="-8.470192">
        <ele>79.290</ele>
        <time>2019-06-21T10:43:58Z</time>
      </trkpt>
      <trkpt lat="43.317547" lon="-8.470224">
        <ele>78.882</ele>
        <time>2019-06-21T10:43:59Z</time>
      </trkpt>
      <trkpt lat="43.317327" lon="-8.470287">
        <ele>79.139</ele>
        <time>2019-06-21T10:44:00Z</time>
      </trkpt>
      <trkpt lat="43.317109" lon="-8.470382">
        <ele>79.425</ele>
        <time>2019-06-21T10:44:01Z</time>
      </trkpt>
      <trkpt lat="43.316893" lon="-8.470501">
        <ele>79.519</ele>
        <time>2019-06-21T10:44:02Z</time>
      </trkpt>
      <trkpt lat="43.316699" lon="-8.470653">
        <ele>81.521</ele>
        <time>2019-06-21T10:44:03Z</time>
      </trkpt>
      <trkpt lat="43.316509" lon="-8.470829">
        <ele>84.281</ele>
        <time>2019-06-21T10:44:04Z</time>
      </trkpt>
      <trkpt lat="43.316324" lon="-8.471023">
        <ele>87.061</ele>
        <time>2019-06-21T10:44:05Z</time>
      </trkpt>
      <trkpt lat="43.316138" lon="-8.471203">
        <ele>87.717</ele>
        <time>2019-06-21T10:44:06Z</time>
      </trkpt>
      <trkpt lat="43.315947" lon="-8.471391">
        <ele>85.408</ele>
        <time>2019-06-21T10:44:07Z</time>
      </trkpt>
      <trkpt lat="43.315752" lon="-8.471566">
        <ele>83.481</ele>
        <time>2019-06-21T10:44:08Z</time>
      </trkpt>
      <trkpt lat="43.315547" lon="-8.471722">
        <ele>82.075</ele>
        <time>2019-06-21T10:44:09Z</time>
      </trkpt>
      <trkpt lat="43.315342" lon="-8.471871">
        <ele>80.557</ele>
        <time>2019-06-21T10:44:10Z</time>
      </trkpt>
      <trkpt lat="43.315141" lon="-8.472015">
        <ele>77.559</ele>
        <time>2019-06-21T10:44:11Z</time>
      </trkpt>
      <trkpt lat="43.314928" lon="-8.472151">
        <ele>73.226</ele>
        <time>2019-06-21T10:44:12Z</time>
      </trkpt>
      <trkpt lat="43.314722" lon="-8.472294">
        <ele>70.572</ele>
        <time>2019-06-21T10:44:13Z</time>
      </trkpt>
      <trkpt lat="43.314528" lon="-8.472465">
        <ele>69.356</ele>
        <time>2019-06-21T10:44:14Z</time>
      </trkpt>
      <trkpt lat="43.314346" lon="-8.472657">
        <ele>68.718</ele>
        <time>2019-06-21T10:44:15Z</time>
      </trkpt>
      <trkpt lat="43.314187" lon="-8.472875">
        <ele>68.256</ele>
        <time>2019-06-21T10:44:16Z</time>
      </trkpt>
      <trkpt lat="43.314039" lon="-8.473115">
        <ele>69.859</ele>
        <time>2019-06-21T10:44:17Z</time>
      </trkpt>
      <trkpt lat="43.313907" lon="-8.473374">
        <ele>69.514</ele>
        <time>2019-06-21T10:44:18Z</time>
      </trkpt>
      <trkpt lat="43.313777" lon="-8.473648">
        <ele>68.908</ele>
        <time>2019-06-21T10:44:19Z</time>
      </trkpt>
      <trkpt lat="43.313663" lon="-8.473923">
        <ele>67.338</ele>
        <time>2019-06-21T10:44:20Z</time>
      </trkpt>
      <trkpt lat="43.313543" lon="-8.474202">
        <ele>64.212</ele>
        <time>2019-06-21T10:44:21Z</time>
      </trkpt>
      <trkpt lat="43.313405" lon="-8.474481">
        <ele>59.914</ele>
        <time>2019-06-21T10:44:22Z</time>
      </trkpt>
      <trkpt lat="43.313251" lon="-8.474736">
        <ele>56.876</ele>
        <time>2019-06-21T10:44:23Z</time>
      </trkpt>
      <trkpt lat="43.313085" lon="-8.474972">
        <ele>55.093</ele>
        <time>2019-06-21T10:44:24Z</time>
      </trkpt>
      <trkpt lat="43.312905" lon="-8.475191">
        <ele>50.339</ele>
        <time>2019-06-21T10:44:25Z</time>
      </trkpt>
      <trkpt lat="43.312712" lon="-8.475401">
        <ele>47.573</ele>
        <time>2019-06-21T10:44:26Z</time>
      </trkpt>
      <trkpt lat="43.312522" lon="-8.475570">
        <ele>47.845</ele>
        <time>2019-06-21T10:44:27Z</time>
      </trkpt>
      <trkpt lat="43.312313" lon="-8.475726">
        <ele>48.763</ele>
        <time>2019-06-21T10:44:28Z</time>
      </trkpt>
      <trkpt lat="43.312105" lon="-8.475843">
        <ele>49.344</ele>
        <time>2019-06-21T10:44:29Z</time>
      </trkpt>
      <trkpt lat="43.311896" lon="-8.475934">
        <ele>48.318</ele>
        <time>2019-06-21T10:44:30Z</time>
      </trkpt>
      <trkpt lat="43.311687" lon="-8.476008">
        <ele>47.408</ele>
        <time>2019-06-21T10:44:31Z</time>
      </trkpt>
      <trkpt lat="43.311467" lon="-8.476062">
        <ele>47.249</ele>
        <time>2019-06-21T10:44:32Z</time>
      </trkpt>
      <trkpt lat="43.311263" lon="-8.476079">
        <ele>46.453</ele>
        <time>2019-06-21T10:44:33Z</time>
      </trkpt>
      <trkpt lat="43.311049" lon="-8.476086">
        <ele>45.095</ele>
        <time>2019-06-21T10:44:34Z</time>
      </trkpt>
      <trkpt lat="43.310829" lon="-8.476070">
        <ele>44.537</ele>
        <time>2019-06-21T10:44:35Z</time>
      </trkpt>
      <trkpt lat="43.310626" lon="-8.476032">
        <ele>45.264</ele>
        <time>2019-06-21T10:44:36Z</time>
      </trkpt>
      <trkpt lat="43.310424" lon="-8.475969">
        <ele>44.670</ele>
        <time>2019-06-21T10:44:37Z</time>
      </trkpt>
      <trkpt lat="43.310239" lon="-8.475884">
        <ele>43.384</ele>
        <time>2019-06-21T10:44:38Z</time>
      </trkpt>
      <trkpt lat="43.310064" lon="-8.475794">
        <ele>41.196</ele>
        <time>2019-06-21T10:44:39Z</time>
      </trkpt>
      <trkpt lat="43.309889" lon="-8.475686">
        <ele>39.593</ele>
        <time>2019-06-21T10:44:40Z</time>
      </trkpt>
      <trkpt lat="43.309717" lon="-8.475582">
        <ele>38.065</ele>
        <time>2019-06-21T10:44:41Z</time>
      </trkpt>
      <trkpt lat="43.309557" lon="-8.475477">
        <ele>37.821</ele>
        <time>2019-06-21T10:44:42Z</time>
      </trkpt>
      <trkpt lat="43.309406" lon="-8.475381">
        <ele>37.408</ele>
        <time>2019-06-21T10:44:43Z</time>
      </trkpt>
      <trkpt lat="43.309261" lon="-8.475301">
        <ele>37.292</ele>
        <time>2019-06-21T10:44:44Z</time>
      </trkpt>
      <trkpt lat="43.309115" lon="-8.475236">
        <ele>36.836</ele>
        <time>2019-06-21T10:44:45Z</time>
      </trkpt>
      <trkpt lat="43.308963" lon="-8.475178">
        <ele>35.848</ele>
        <time>2019-06-21T10:44:46Z</time>
      </trkpt>
      <trkpt lat="43.308807" lon="-8.475147">
        <ele>34.740</ele>
        <time>2019-06-21T10:44:47Z</time>
      </trkpt>
      <trkpt lat="43.308647" lon="-8.475143">
        <ele>33.357</ele>
        <time>2019-06-21T10:44:48Z</time>
      </trkpt>
      <trkpt lat="43.308487" lon="-8.475168">
        <ele>32.513</ele>
        <time>2019-06-21T10:44:49Z</time>
      </trkpt>
      <trkpt lat="43.308324" lon="-8.475242">
        <ele>31.497</ele>
        <time>2019-06-21T10:44:50Z</time>
      </trkpt>
      <trkpt lat="43.308173" lon="-8.475351">
        <ele>31.299</ele>
        <time>2019-06-21T10:44:51Z</time>
      </trkpt>
      <trkpt lat="43.308035" lon="-8.475490">
        <ele>30.632</ele>
        <time>2019-06-21T10:44:52Z</time>
      </trkpt>
      <trkpt lat="43.307918" lon="-8.475665">
        <ele>30.292</ele>
        <time>2019-06-21T10:44:53Z</time>
      </trkpt>
      <trkpt lat="43.307824" lon="-8.475863">
        <ele>28.111</ele>
        <time>2019-06-21T10:44:54Z</time>
      </trkpt>
      <trkpt lat="43.307754" lon="-8.476077">
        <ele>26.208</ele>
        <time>2019-06-21T10:44:55Z</time>
      </trkpt>
      <trkpt lat="43.307712" lon="-8.476301">
        <ele>25.266</ele>
        <time>2019-06-21T10:44:56Z</time>
      </trkpt>
      <trkpt lat="43.307696" lon="-8.476535">
        <ele>25.380</ele>
        <time>2019-06-21T10:44:57Z</time>
      </trkpt>
      <trkpt lat="43.307715" lon="-8.476762">
        <ele>26.552</ele>
        <time>2019-06-21T10:44:58Z</time>
      </trkpt>
      <trkpt lat="43.307753" lon="-8.476992">
        <ele>28.774</ele>
        <time>2019-06-21T10:44:59Z</time>
      </trkpt>
      <trkpt lat="43.307821" lon="-8.477213">
        <ele>30.391</ele>
        <time>2019-06-21T10:45:00Z</time>
      </trkpt>
      <trkpt lat="43.307921" lon="-8.477421">
        <ele>30.417</ele>
        <time>2019-06-21T10:45:01Z</time>
      </trkpt>
      <trkpt lat="43.308040" lon="-8.477598">
        <ele>30.231</ele>
        <time>2019-06-21T10:45:02Z</time>
      </trkpt>
      <trkpt lat="43.308180" lon="-8.477771">
        <ele>30.683</ele>
        <time>2019-06-21T10:45:03Z</time>
      </trkpt>
      <trkpt lat="43.308326" lon="-8.477941">
        <ele>30.228</ele>
        <time>2019-06-21T10:45:04Z</time>
      </trkpt>
      <trkpt lat="43.308471" lon="-8.478119">
        <ele>30.489</ele>
        <time>2019-06-21T10:45:05Z</time>
      </trkpt>
      <trkpt lat="43.308607" lon="-8.478281">
        <ele>30.617</ele>
        <time>2019-06-21T10:45:06Z</time>
      </trkpt>
      <trkpt lat="43.308732" lon="-8.478428">
        <ele>29.808</ele>
        <time>2019-06-21T10:45:07Z</time>
      </trkpt>
      <trkpt lat="43.308843" lon="-8.478575">
        <ele>29.265</ele>
        <time>2019-06-21T10:45:08Z</time>
      </trkpt>
      <trkpt lat="43.308944" lon="-8.478736">
        <ele>29.569</ele>
        <time>2019-06-21T10:45:09Z</time>
      </trkpt>
      <trkpt lat="43.309040" lon="-8.478910">
        <ele>30.661</ele>
        <time>2019-06-21T10:45:10Z</time>
      </trkpt>
      <trkpt lat="43.309144" lon="-8.479098">
        <ele>31.713</ele>
        <time>2019-06-21T10:45:11Z</time>
      </trkpt>
      <trkpt lat="43.309243" lon="-8.479290">
        <ele>33.460</ele>
        <time>2019-06-21T10:45:12Z</time>
      </trkpt>
      <trkpt lat="43.309340" lon="-8.479485">
        <ele>35.566</ele>
        <time>2019-06-21T10:45:13Z</time>
      </trkpt>
      <trkpt lat="43.309435" lon="-8.479675">
        <ele>37.660</ele>
        <time>2019-06-21T10:45:14Z</time>
      </trkpt>
      <trkpt lat="43.309529" lon="-8.479867">
        <ele>39.432</ele>
        <time>2019-06-21T10:45:15Z</time>
      </trkpt>
      <trkpt lat="43.309623" lon="-8.480065">
        <ele>41.263</ele>
        <time>2019-06-21T10:45:16Z</time>
      </trkpt>
      <trkpt lat="43.309717" lon="-8.480249">
        <ele>42.844</ele>
        <time>2019-06-21T10:45:17Z</time>
      </trkpt>
      <trkpt lat="43.309813" lon="-8.480436">
        <ele>43.818</ele>
        <time>2019-06-21T10:45:18Z</time>
      </trkpt>
      <trkpt lat="43.309904" lon="-8.480611">
        <ele>45.208</ele>
        <time>2019-06-21T10:45:19Z</time>
      </trkpt>
      <trkpt lat="43.309998" lon="-8.480780">
        <ele>46.239</ele>
        <time>2019-06-21T10:45:20Z</time>
      </trkpt>
      <trkpt lat="43.310101" lon="-8.480946">
        <ele>47.183</ele>
        <time>2019-06-21T10:45:21Z</time>
      </trkpt>
      <trkpt lat="43.310214" lon="-8.481109">
        <ele>47.375</ele>
        <time>2019-06-21T10:45:22Z</time>
      </trkpt>
      <trkpt lat="43.310327" lon="-8.481270">
        <ele>46.547</ele>
        <time>2019-06-21T10:45:23Z</time>
      </trkpt>
      <trkpt lat="43.310444" lon="-8.481437">
        <ele>45.144</ele>
        <time>2019-06-21T10:45:24Z</time>
      </trkpt>
      <trkpt lat="43.310555" lon="-8.481591">
        <ele>43.890</ele>
        <time>2019-06-21T10:45:25Z</time>
      </trkpt>
      <trkpt lat="43.310672" lon="-8.481718">
        <ele>42.874</ele>
        <time>2019-06-21T10:45:26Z</time>
      </trkpt>
      <trkpt lat="43.310790" lon="-8.481854">
        <ele>41.726</ele>
        <time>2019-06-21T10:45:27Z</time>
      </trkpt>
      <trkpt lat="43.310921" lon="-8.481973">
        <ele>40.268</ele>
        <time>2019-06-21T10:45:28Z</time>
      </trkpt>
      <trkpt lat="43.311051" lon="-8.482106">
        <ele>38.242</ele>
        <time>2019-06-21T10:45:29Z</time>
      </trkpt>
      <trkpt lat="43.311181" lon="-8.482219">
        <ele>36.826</ele>
        <time>2019-06-21T10:45:30Z</time>
      </trkpt>
      <trkpt lat="43.311323" lon="-8.482351">
        <ele>35.208</ele>
        <time>2019-06-21T10:45:31Z</time>
      </trkpt>
      <trkpt lat="43.311451" lon="-8.482461">
        <ele>34.079</ele>
        <time>2019-06-21T10:45:32Z</time>
      </trkpt>
      <trkpt lat="43.311589" lon="-8.482562">
        <ele>33.673</ele>
        <time>2019-06-21T10:45:33Z</time>
      </trkpt>
      <trkpt lat="43.311729" lon="-8.482659">
        <ele>33.965</ele>
        <time>2019-06-21T10:45:34Z</time>
      </trkpt>
      <trkpt lat="43.311872" lon="-8.482754">
        <ele>34.137</ele>
        <time>2019-06-21T10:45:35Z</time>
      </trkpt>
      <trkpt lat="43.312018" lon="-8.482858">
        <ele>34.034</ele>
        <time>2019-06-21T10:45:36Z</time>
      </trkpt>
      <trkpt lat="43.312155" lon="-8.482969">
        <ele>33.950</ele>
        <time>2019-06-21T10:45:37Z</time>
      </trkpt>
      <trkpt lat="43.312305" lon="-8.483087">
        <ele>33.784</ele>
        <time>2019-06-21T10:45:38Z</time>
      </trkpt>
      <trkpt lat="43.312453" lon="-8.483208">
        <ele>33.996</ele>
        <time>2019-06-21T10:45:39Z</time>
      </trkpt>
      <trkpt lat="43.312604" lon="-8.483333">
        <ele>33.524</ele>
        <time>2019-06-21T10:45:40Z</time>
      </trkpt>
      <trkpt lat="43.312759" lon="-8.483465">
        <ele>32.204</ele>
        <time>2019-06-21T10:45:41Z</time>
      </trkpt>
      <trkpt lat="43.312910" lon="-8.483596">
        <ele>31.014</ele>
        <time>2019-06-21T10:45:42Z</time>
      </trkpt>
      <trkpt lat="43.313052" lon="-8.483720">
        <ele>29.808</ele>
        <time>2019-06-21T10:45:43Z</time>
      </trkpt>
      <trkpt lat="43.313200" lon="-8.483869">
        <ele>30.485</ele>
        <time>2019-06-21T10:45:44Z</time>
      </trkpt>
      <trkpt lat="43.313360" lon="-8.484023">
        <ele>30.659</ele>
        <time>2019-06-21T10:45:45Z</time>
      </trkpt>
      <trkpt lat="43.313522" lon="-8.484181">
        <ele>29.321</ele>
        <time>2019-06-21T10:45:46Z</time>
      </trkpt>
      <trkpt lat="43.313683" lon="-8.484342">
        <ele>27.423</ele>
        <time>2019-06-21T10:45:47Z</time>
      </trkpt>
      <trkpt lat="43.313840" lon="-8.484511">
        <ele>24.930</ele>
        <time>2019-06-21T10:45:48Z</time>
      </trkpt>
      <trkpt lat="43.313992" lon="-8.484687">
        <ele>23.376</ele>
        <time>2019-06-21T10:45:49Z</time>
      </trkpt>
      <trkpt lat="43.314138" lon="-8.484868">
        <ele>22.220</ele>
        <time>2019-06-21T10:45:50Z</time>
      </trkpt>
      <trkpt lat="43.314278" lon="-8.485045">
        <ele>21.992</ele>
        <time>2019-06-21T10:45:51Z</time>
      </trkpt>
      <trkpt lat="43.314415" lon="-8.485219">
        <ele>21.377</ele>
        <time>2019-06-21T10:45:52Z</time>
      </trkpt>
      <trkpt lat="43.314552" lon="-8.485404">
        <ele>20.661</ele>
        <time>2019-06-21T10:45:53Z</time>
      </trkpt>
      <trkpt lat="43.314680" lon="-8.485587">
        <ele>19.327</ele>
        <time>2019-06-21T10:45:54Z</time>
      </trkpt>
      <trkpt lat="43.314809" lon="-8.485787">
        <ele>19.708</ele>
        <time>2019-06-21T10:45:55Z</time>
      </trkpt>
      <trkpt lat="43.314939" lon="-8.485980">
        <ele>20.650</ele>
        <time>2019-06-21T10:45:56Z</time>
      </trkpt>
      <trkpt lat="43.315063" lon="-8.486181">
        <ele>21.164</ele>
        <time>2019-06-21T10:45:57Z</time>
      </trkpt>
      <trkpt lat="43.315182" lon="-8.486386">
        <ele>20.746</ele>
        <time>2019-06-21T10:45:58Z</time>
      </trkpt>
      <trkpt lat="43.315302" lon="-8.486598">
        <ele>19.698</ele>
        <time>2019-06-21T10:45:59Z</time>
      </trkpt>
      <trkpt lat="43.315416" lon="-8.486821">
        <ele>19.465</ele>
        <time>2019-06-21T10:46:00Z</time>
      </trkpt>
      <trkpt lat="43.315532" lon="-8.487040">
        <ele>19.851</ele>
        <time>2019-06-21T10:46:01Z</time>
      </trkpt>
      <trkpt lat="43.315651" lon="-8.487266">
        <ele>19.835</ele>
        <time>2019-06-21T10:46:02Z</time>
      </trkpt>
      <trkpt lat="43.315763" lon="-8.487485">
        <ele>19.167</ele>
        <time>2019-06-21T10:46:03Z</time>
      </trkpt>
      <trkpt lat="43.315871" lon="-8.487704">
        <ele>18.244</ele>
        <time>2019-06-21T10:46:04Z</time>
      </trkpt>
      <trkpt lat="43.315966" lon="-8.487925">
        <ele>18.005</ele>
        <time>2019-06-21T10:46:05Z</time>
      </trkpt>
      <trkpt lat="43.316063" lon="-8.488118">
        <ele>17.815</ele>
        <time>2019-06-21T10:46:06Z</time>
      </trkpt>
      <trkpt lat="43.316164" lon="-8.488318">
        <ele>17.608</ele>
        <time>2019-06-21T10:46:07Z</time>
      </trkpt>
      <trkpt lat="43.316256" lon="-8.488505">
        <ele>18.267</ele>
        <time>2019-06-21T10:46:08Z</time>
      </trkpt>
      <trkpt lat="43.316350" lon="-8.488682">
        <ele>18.581</ele>
        <time>2019-06-21T10:46:09Z</time>
      </trkpt>
      <trkpt lat="43.316437" lon="-8.488855">
        <ele>18.563</ele>
        <time>2019-06-21T10:46:10Z</time>
      </trkpt>
      <trkpt lat="43.316526" lon="-8.489018">
        <ele>19.065</ele>
        <time>2019-06-21T10:46:11Z</time>
      </trkpt>
      <trkpt lat="43.316607" lon="-8.489160">
        <ele>19.012</ele>
        <time>2019-06-21T10:46:12Z</time>
      </trkpt>
      <trkpt lat="43.316687" lon="-8.489283">
        <ele>19.548</ele>
        <time>2019-06-21T10:46:13Z</time>
      </trkpt>
      <trkpt lat="43.316758" lon="-8.489392">
        <ele>20.242</ele>
        <time>2019-06-21T10:46:14Z</time>
      </trkpt>
      <trkpt lat="43.316832" lon="-8.489473">
        <ele>20.694</ele>
        <time>2019-06-21T10:46:15Z</time>
      </trkpt>
      <trkpt lat="43.316891" lon="-8.489543">
        <ele>20.877</ele>
        <time>2019-06-21T10:46:16Z</time>
      </trkpt>
      <trkpt lat="43.316947" lon="-8.489594">
        <ele>21.061</ele>
        <time>2019-06-21T10:46:17Z</time>
      </trkpt>
      <trkpt lat="43.317007" lon="-8.489644">
        <ele>21.627</ele>
        <time>2019-06-21T10:46:19Z</time>
      </trkpt>
      <trkpt lat="43.317058" lon="-8.489660">
        <ele>22.108</ele>
        <time>2019-06-21T10:46:21Z</time>
      </trkpt>
      <trkpt lat="43.317151" lon="-8.489682">
        <ele>23.110</ele>
        <time>2019-06-21T10:46:23Z</time>
      </trkpt>
      <trkpt lat="43.317211" lon="-8.489686">
        <ele>23.854</ele>
        <time>2019-06-21T10:46:24Z</time>
      </trkpt>
      <trkpt lat="43.317272" lon="-8.489691">
        <ele>24.186</ele>
        <time>2019-06-21T10:46:25Z</time>
      </trkpt>
      <trkpt lat="43.317359" lon="-8.489735">
        <ele>24.538</ele>
        <time>2019-06-21T10:46:26Z</time>
      </trkpt>
      <trkpt lat="43.317427" lon="-8.489773">
        <ele>24.665</ele>
        <time>2019-06-21T10:46:27Z</time>
      </trkpt>
      <trkpt lat="43.317479" lon="-8.489852">
        <ele>24.511</ele>
        <time>2019-06-21T10:46:28Z</time>
      </trkpt>
      <trkpt lat="43.317519" lon="-8.489955">
        <ele>24.135</ele>
        <time>2019-06-21T10:46:29Z</time>
      </trkpt>
      <trkpt lat="43.317550" lon="-8.490029">
        <ele>23.767</ele>
        <time>2019-06-21T10:46:30Z</time>
      </trkpt>
      <trkpt lat="43.317555" lon="-8.490140">
        <ele>23.331</ele>
        <time>2019-06-21T10:46:31Z</time>
      </trkpt>
      <trkpt lat="43.317540" lon="-8.490237">
        <ele>23.061</ele>
        <time>2019-06-21T10:46:32Z</time>
      </trkpt>
      <trkpt lat="43.317506" lon="-8.490334">
        <ele>22.607</ele>
        <time>2019-06-21T10:46:33Z</time>
      </trkpt>
      <trkpt lat="43.317451" lon="-8.490425">
        <ele>22.108</ele>
        <time>2019-06-21T10:46:34Z</time>
      </trkpt>
      <trkpt lat="43.317381" lon="-8.490513">
        <ele>21.716</ele>
        <time>2019-06-21T10:46:35Z</time>
      </trkpt>
      <trkpt lat="43.317306" lon="-8.490572">
        <ele>21.620</ele>
        <time>2019-06-21T10:46:36Z</time>
      </trkpt>
      <trkpt lat="43.317206" lon="-8.490611">
        <ele>21.882</ele>
        <time>2019-06-21T10:46:37Z</time>
      </trkpt>
      <trkpt lat="43.317089" lon="-8.490658">
        <ele>21.824</ele>
        <time>2019-06-21T10:46:38Z</time>
      </trkpt>
      <trkpt lat="43.316970" lon="-8.490711">
        <ele>21.951</ele>
        <time>2019-06-21T10:46:39Z</time>
      </trkpt>
      <trkpt lat="43.316859" lon="-8.490782">
        <ele>22.047</ele>
        <time>2019-06-21T10:46:40Z</time>
      </trkpt>
      <trkpt lat="43.316744" lon="-8.490875">
        <ele>21.721</ele>
        <time>2019-06-21T10:46:41Z</time>
      </trkpt>
      <trkpt lat="43.316634" lon="-8.490982">
        <ele>21.013</ele>
        <time>2019-06-21T10:46:42Z</time>
      </trkpt>
      <trkpt lat="43.316534" lon="-8.491124">
        <ele>20.417</ele>
        <time>2019-06-21T10:46:43Z</time>
      </trkpt>
      <trkpt lat="43.316448" lon="-8.491291">
        <ele>20.087</ele>
        <time>2019-06-21T10:46:44Z</time>
      </trkpt>
      <trkpt lat="43.316363" lon="-8.491465">
        <ele>19.715</ele>
        <time>2019-06-21T10:46:45Z</time>
      </trkpt>
      <trkpt lat="43.316280" lon="-8.491656">
        <ele>20.008</ele>
        <time>2019-06-21T10:46:46Z</time>
      </trkpt>
      <trkpt lat="43.316205" lon="-8.491849">
        <ele>21.154</ele>
        <time>2019-06-21T10:46:47Z</time>
      </trkpt>
      <trkpt lat="43.316135" lon="-8.492033">
        <ele>22.238</ele>
        <time>2019-06-21T10:46:48Z</time>
      </trkpt>
      <trkpt lat="43.316056" lon="-8.492219">
        <ele>23.020</ele>
        <time>2019-06-21T10:46:49Z</time>
      </trkpt>
      <trkpt lat="43.315975" lon="-8.492401">
        <ele>24.162</ele>
        <time>2019-06-21T10:46:50Z</time>
      </trkpt>
      <trkpt lat="43.315899" lon="-8.492573">
        <ele>25.119</ele>
        <time>2019-06-21T10:46:51Z</time>
      </trkpt>
      <trkpt lat="43.315823" lon="-8.492751">
        <ele>26.145</ele>
        <time>2019-06-21T10:46:52Z</time>
      </trkpt>
      <trkpt lat="43.315773" lon="-8.492939">
        <ele>25.689</ele>
        <time>2019-06-21T10:46:53Z</time>
      </trkpt>
      <trkpt lat="43.315743" lon="-8.493141">
        <ele>24.831</ele>
        <time>2019-06-21T10:46:54Z</time>
      </trkpt>
      <trkpt lat="43.315733" lon="-8.493337">
        <ele>23.738</ele>
        <time>2019-06-21T10:46:55Z</time>
      </trkpt>
      <trkpt lat="43.315747" lon="-8.493544">
        <ele>23.670</ele>
        <time>2019-06-21T10:46:56Z</time>
      </trkpt>
      <trkpt lat="43.315772" lon="-8.493766">
        <ele>24.017</ele>
        <time>2019-06-21T10:46:57Z</time>
      </trkpt>
      <trkpt lat="43.315799" lon="-8.493992">
        <ele>25.108</ele>
        <time>2019-06-21T10:46:58Z</time>
      </trkpt>
      <trkpt lat="43.315842" lon="-8.494217">
        <ele>26.476</ele>
        <time>2019-06-21T10:46:59Z</time>
      </trkpt>
      <trkpt lat="43.315883" lon="-8.494422">
        <ele>27.910</ele>
        <time>2019-06-21T10:47:00Z</time>
      </trkpt>
      <trkpt lat="43.315925" lon="-8.494666">
        <ele>28.462</ele>
        <time>2019-06-21T10:47:01Z</time>
      </trkpt>
      <trkpt lat="43.315960" lon="-8.494889">
        <ele>28.724</ele>
        <time>2019-06-21T10:47:02Z</time>
      </trkpt>
      <trkpt lat="43.315992" lon="-8.495137">
        <ele>28.811</ele>
        <time>2019-06-21T10:47:03Z</time>
      </trkpt>
      <trkpt lat="43.316015" lon="-8.495390">
        <ele>28.767</ele>
        <time>2019-06-21T10:47:04Z</time>
      </trkpt>
      <trkpt lat="43.316028" lon="-8.495637">
        <ele>28.621</ele>
        <time>2019-06-21T10:47:05Z</time>
      </trkpt>
      <trkpt lat="43.316040" lon="-8.495888">
        <ele>28.853</ele>
        <time>2019-06-21T10:47:06Z</time>
      </trkpt>
      <trkpt lat="43.316055" lon="-8.496133">
        <ele>29.715</ele>
        <time>2019-06-21T10:47:07Z</time>
      </trkpt>
      <trkpt lat="43.316064" lon="-8.496380">
        <ele>30.865</ele>
        <time>2019-06-21T10:47:08Z</time>
      </trkpt>
      <trkpt lat="43.316080" lon="-8.496589">
        <ele>31.411</ele>
        <time>2019-06-21T10:47:09Z</time>
      </trkpt>
      <trkpt lat="43.316090" lon="-8.496828">
        <ele>32.608</ele>
        <time>2019-06-21T10:47:10Z</time>
      </trkpt>
      <trkpt lat="43.316090" lon="-8.497051">
        <ele>34.264</ele>
        <time>2019-06-21T10:47:11Z</time>
      </trkpt>
      <trkpt lat="43.316092" lon="-8.497264">
        <ele>35.758</ele>
        <time>2019-06-21T10:47:12Z</time>
      </trkpt>
      <trkpt lat="43.316087" lon="-8.497494">
        <ele>37.630</ele>
        <time>2019-06-21T10:47:13Z</time>
      </trkpt>
      <trkpt lat="43.316060" lon="-8.497715">
        <ele>39.642</ele>
        <time>2019-06-21T10:47:14Z</time>
      </trkpt>
      <trkpt lat="43.316013" lon="-8.497931">
        <ele>41.119</ele>
        <time>2019-06-21T10:47:15Z</time>
      </trkpt>
      <trkpt lat="43.315945" lon="-8.498136">
        <ele>42.145</ele>
        <time>2019-06-21T10:47:16Z</time>
      </trkpt>
      <trkpt lat="43.315860" lon="-8.498335">
        <ele>42.639</ele>
        <time>2019-06-21T10:47:17Z</time>
      </trkpt>
      <trkpt lat="43.315764" lon="-8.498518">
        <ele>44.061</ele>
        <time>2019-06-21T10:47:18Z</time>
      </trkpt>
      <trkpt lat="43.315657" lon="-8.498703">
        <ele>45.254</ele>
        <time>2019-06-21T10:47:19Z</time>
      </trkpt>
      <trkpt lat="43.315548" lon="-8.498886">
        <ele>46.156</ele>
        <time>2019-06-21T10:47:20Z</time>
      </trkpt>
      <trkpt lat="43.315436" lon="-8.499072">
        <ele>46.211</ele>
        <time>2019-06-21T10:47:21Z</time>
      </trkpt>
      <trkpt lat="43.315322" lon="-8.499255">
        <ele>46.308</ele>
        <time>2019-06-21T10:47:22Z</time>
      </trkpt>
      <trkpt lat="43.315203" lon="-8.499415">
        <ele>46.458</ele>
        <time>2019-06-21T10:47:23Z</time>
      </trkpt>
      <trkpt lat="43.315098" lon="-8.499561">
        <ele>46.122</ele>
        <time>2019-06-21T10:47:24Z</time>
      </trkpt>
      <trkpt lat="43.314993" lon="-8.499695">
        <ele>46.124</ele>
        <time>2019-06-21T10:47:25Z</time>
      </trkpt>
      <trkpt lat="43.314908" lon="-8.499815">
        <ele>47.046</ele>
        <time>2019-06-21T10:47:26Z</time>
      </trkpt>
      <trkpt lat="43.314843" lon="-8.499921">
        <ele>47.873</ele>
        <time>2019-06-21T10:47:27Z</time>
      </trkpt>
      <trkpt lat="43.314774" lon="-8.500039">
        <ele>48.619</ele>
        <time>2019-06-21T10:47:28Z</time>
      </trkpt>
      <trkpt lat="43.314697" lon="-8.500152">
        <ele>49.253</ele>
        <time>2019-06-21T10:47:29Z</time>
      </trkpt>
      <trkpt lat="43.314591" lon="-8.500245">
        <ele>50.025</ele>
        <time>2019-06-21T10:47:30Z</time>
      </trkpt>
      <trkpt lat="43.314476" lon="-8.500335">
        <ele>50.419</ele>
        <time>2019-06-21T10:47:31Z</time>
      </trkpt>
      <trkpt lat="43.314354" lon="-8.500436">
        <ele>50.209</ele>
        <time>2019-06-21T10:47:32Z</time>
      </trkpt>
      <trkpt lat="43.314231" lon="-8.500549">
        <ele>49.819</ele>
        <time>2019-06-21T10:47:33Z</time>
      </trkpt>
      <trkpt lat="43.314114" lon="-8.500666">
        <ele>49.208</ele>
        <time>2019-06-21T10:47:34Z</time>
      </trkpt>
      <trkpt lat="43.313974" lon="-8.500789">
        <ele>48.324</ele>
        <time>2019-06-21T10:47:35Z</time>
      </trkpt>
      <trkpt lat="43.313837" lon="-8.500901">
        <ele>47.748</ele>
        <time>2019-06-21T10:47:36Z</time>
      </trkpt>
      <trkpt lat="43.313698" lon="-8.501005">
        <ele>47.560</ele>
        <time>2019-06-21T10:47:37Z</time>
      </trkpt>
      <trkpt lat="43.313562" lon="-8.501087">
        <ele>47.212</ele>
        <time>2019-06-21T10:47:38Z</time>
      </trkpt>
      <trkpt lat="43.313425" lon="-8.501153">
        <ele>46.639</ele>
        <time>2019-06-21T10:47:39Z</time>
      </trkpt>
      <trkpt lat="43.313283" lon="-8.501202">
        <ele>45.825</ele>
        <time>2019-06-21T10:47:40Z</time>
      </trkpt>
      <trkpt lat="43.313150" lon="-8.501217">
        <ele>45.259</ele>
        <time>2019-06-21T10:47:41Z</time>
      </trkpt>
      <trkpt lat="43.313004" lon="-8.501220">
        <ele>44.531</ele>
        <time>2019-06-21T10:47:42Z</time>
      </trkpt>
      <trkpt lat="43.312865" lon="-8.501204">
        <ele>43.923</ele>
        <time>2019-06-21T10:47:43Z</time>
      </trkpt>
      <trkpt lat="43.312720" lon="-8.501182">
        <ele>43.483</ele>
        <time>2019-06-21T10:47:44Z</time>
      </trkpt>
      <trkpt lat="43.312572" lon="-8.501140">
        <ele>43.611</ele>
        <time>2019-06-21T10:47:45Z</time>
      </trkpt>
      <trkpt lat="43.312420" lon="-8.501102">
        <ele>43.808</ele>
        <time>2019-06-21T10:47:46Z</time>
      </trkpt>
      <trkpt lat="43.312272" lon="-8.501058">
        <ele>43.625</ele>
        <time>2019-06-21T10:47:47Z</time>
      </trkpt>
      <trkpt lat="43.312124" lon="-8.501014">
        <ele>43.689</ele>
        <time>2019-06-21T10:47:48Z</time>
      </trkpt>
      <trkpt lat="43.311984" lon="-8.500973">
        <ele>43.611</ele>
        <time>2019-06-21T10:47:49Z</time>
      </trkpt>
      <trkpt lat="43.311845" lon="-8.500948">
        <ele>43.913</ele>
        <time>2019-06-21T10:47:50Z</time>
      </trkpt>
      <trkpt lat="43.311704" lon="-8.500946">
        <ele>44.560</ele>
        <time>2019-06-21T10:47:51Z</time>
      </trkpt>
      <trkpt lat="43.311568" lon="-8.500977">
        <ele>45.096</ele>
        <time>2019-06-21T10:47:52Z</time>
      </trkpt>
      <trkpt lat="43.311437" lon="-8.501037">
        <ele>45.370</ele>
        <time>2019-06-21T10:47:53Z</time>
      </trkpt>
      <trkpt lat="43.311314" lon="-8.501132">
        <ele>45.042</ele>
        <time>2019-06-21T10:47:54Z</time>
      </trkpt>
      <trkpt lat="43.311187" lon="-8.501252">
        <ele>44.259</ele>
        <time>2019-06-21T10:47:55Z</time>
      </trkpt>
      <trkpt lat="43.311067" lon="-8.501381">
        <ele>43.403</ele>
        <time>2019-06-21T10:47:56Z</time>
      </trkpt>
      <trkpt lat="43.310946" lon="-8.501507">
        <ele>42.523</ele>
        <time>2019-06-21T10:47:57Z</time>
      </trkpt>
      <trkpt lat="43.310820" lon="-8.501644">
        <ele>41.308</ele>
        <time>2019-06-21T10:47:58Z</time>
      </trkpt>
      <trkpt lat="43.310693" lon="-8.501777">
        <ele>39.268</ele>
        <time>2019-06-21T10:47:59Z</time>
      </trkpt>
      <trkpt lat="43.310580" lon="-8.501903">
        <ele>37.512</ele>
        <time>2019-06-21T10:48:00Z</time>
      </trkpt>
      <trkpt lat="43.310467" lon="-8.502036">
        <ele>36.394</ele>
        <time>2019-06-21T10:48:01Z</time>
      </trkpt>
      <trkpt lat="43.310352" lon="-8.502166">
        <ele>35.496</ele>
        <time>2019-06-21T10:48:02Z</time>
      </trkpt>
      <trkpt lat="43.310238" lon="-8.502296">
        <ele>34.363</ele>
        <time>2019-06-21T10:48:03Z</time>
      </trkpt>
      <trkpt lat="43.310121" lon="-8.502437">
        <ele>32.979</ele>
        <time>2019-06-21T10:48:04Z</time>
      </trkpt>
      <trkpt lat="43.310004" lon="-8.502569">
        <ele>31.533</ele>
        <time>2019-06-21T10:48:05Z</time>
      </trkpt>
      <trkpt lat="43.309881" lon="-8.502695">
        <ele>32.145</ele>
        <time>2019-06-21T10:48:06Z</time>
      </trkpt>
      <trkpt lat="43.309768" lon="-8.502841">
        <ele>33.124</ele>
        <time>2019-06-21T10:48:07Z</time>
      </trkpt>
      <trkpt lat="43.309654" lon="-8.502982">
        <ele>33.904</ele>
        <time>2019-06-21T10:48:08Z</time>
      </trkpt>
      <trkpt lat="43.309540" lon="-8.503112">
        <ele>34.314</ele>
        <time>2019-06-21T10:48:09Z</time>
      </trkpt>
      <trkpt lat="43.309430" lon="-8.503234">
        <ele>34.108</ele>
        <time>2019-06-21T10:48:10Z</time>
      </trkpt>
      <trkpt lat="43.309327" lon="-8.503357">
        <ele>33.265</ele>
        <time>2019-06-21T10:48:11Z</time>
      </trkpt>
      <trkpt lat="43.309220" lon="-8.503480">
        <ele>32.229</ele>
        <time>2019-06-21T10:48:12Z</time>
      </trkpt>
      <trkpt lat="43.309131" lon="-8.503590">
        <ele>31.461</ele>
        <time>2019-06-21T10:48:13Z</time>
      </trkpt>
      <trkpt lat="43.309045" lon="-8.503696">
        <ele>30.463</ele>
        <time>2019-06-21T10:48:14Z</time>
      </trkpt>
      <trkpt lat="43.308997" lon="-8.503778">
        <ele>29.470</ele>
        <time>2019-06-21T10:48:15Z</time>
      </trkpt>
      <trkpt lat="43.308942" lon="-8.503851">
        <ele>28.516</ele>
        <time>2019-06-21T10:48:16Z</time>
      </trkpt>
      <trkpt lat="43.308900" lon="-8.503890">
        <ele>28.050</ele>
        <time>2019-06-21T10:48:17Z</time>
      </trkpt>
      <trkpt lat="43.308863" lon="-8.503937">
        <ele>27.872</ele>
        <time>2019-06-21T10:48:18Z</time>
      </trkpt>
      <trkpt lat="43.308800" lon="-8.504011">
        <ele>27.684</ele>
        <time>2019-06-21T10:48:39Z</time>
      </trkpt>
      <trkpt lat="43.308756" lon="-8.504071">
        <ele>27.507</ele>
        <time>2019-06-21T10:48:40Z</time>
      </trkpt>
      <trkpt lat="43.308690" lon="-8.504114">
        <ele>27.717</ele>
        <time>2019-06-21T10:48:41Z</time>
      </trkpt>
      <trkpt lat="43.308624" lon="-8.504187">
        <ele>27.808</ele>
        <time>2019-06-21T10:48:42Z</time>
      </trkpt>
      <trkpt lat="43.308540" lon="-8.504274">
        <ele>27.871</ele>
        <time>2019-06-21T10:48:43Z</time>
      </trkpt>
      <trkpt lat="43.308460" lon="-8.504359">
        <ele>28.135</ele>
        <time>2019-06-21T10:48:44Z</time>
      </trkpt>
      <trkpt lat="43.308388" lon="-8.504439">
        <ele>28.477</ele>
        <time>2019-06-21T10:48:45Z</time>
      </trkpt>
      <trkpt lat="43.308314" lon="-8.504508">
        <ele>28.629</ele>
        <time>2019-06-21T10:48:46Z</time>
      </trkpt>
      <trkpt lat="43.308251" lon="-8.504580">
        <ele>28.576</ele>
        <time>2019-06-21T10:48:47Z</time>
      </trkpt>
      <trkpt lat="43.308207" lon="-8.504660">
        <ele>28.392</ele>
        <time>2019-06-21T10:48:48Z</time>
      </trkpt>
      <trkpt lat="43.308172" lon="-8.504740">
        <ele>27.996</ele>
        <time>2019-06-21T10:48:49Z</time>
      </trkpt>
      <trkpt lat="43.308116" lon="-8.504801">
        <ele>27.468</ele>
        <time>2019-06-21T10:48:50Z</time>
      </trkpt>
      <trkpt lat="43.308056" lon="-8.504831">
        <ele>27.474</ele>
        <time>2019-06-21T10:48:51Z</time>
      </trkpt>
      <trkpt lat="43.307982" lon="-8.504857">
        <ele>26.456</ele>
        <time>2019-06-21T10:48:52Z</time>
      </trkpt>
      <trkpt lat="43.307891" lon="-8.504874">
        <ele>25.421</ele>
        <time>2019-06-21T10:48:53Z</time>
      </trkpt>
      <trkpt lat="43.307806" lon="-8.504890">
        <ele>24.408</ele>
        <time>2019-06-21T10:48:54Z</time>
      </trkpt>
      <trkpt lat="43.307708" lon="-8.504931">
        <ele>23.480</ele>
        <time>2019-06-21T10:48:55Z</time>
      </trkpt>
      <trkpt lat="43.307609" lon="-8.504991">
        <ele>22.584</ele>
        <time>2019-06-21T10:48:56Z</time>
      </trkpt>
      <trkpt lat="43.307504" lon="-8.505082">
        <ele>21.486</ele>
        <time>2019-06-21T10:48:57Z</time>
      </trkpt>
      <trkpt lat="43.307397" lon="-8.505164">
        <ele>21.218</ele>
        <time>2019-06-21T10:48:58Z</time>
      </trkpt>
      <trkpt lat="43.307302" lon="-8.505274">
        <ele>20.775</ele>
        <time>2019-06-21T10:48:59Z</time>
      </trkpt>
      <trkpt lat="43.307219" lon="-8.505426">
        <ele>21.081</ele>
        <time>2019-06-21T10:49:00Z</time>
      </trkpt>
      <trkpt lat="43.307132" lon="-8.505590">
        <ele>20.485</ele>
        <time>2019-06-21T10:49:01Z</time>
      </trkpt>
      <trkpt lat="43.307050" lon="-8.505764">
        <ele>19.817</ele>
        <time>2019-06-21T10:49:02Z</time>
      </trkpt>
      <trkpt lat="43.306960" lon="-8.505940">
        <ele>18.325</ele>
        <time>2019-06-21T10:49:03Z</time>
      </trkpt>
      <trkpt lat="43.306872" lon="-8.506133">
        <ele>16.326</ele>
        <time>2019-06-21T10:49:04Z</time>
      </trkpt>
      <trkpt lat="43.306785" lon="-8.506312">
        <ele>14.808</ele>
        <time>2019-06-21T10:49:05Z</time>
      </trkpt>
      <trkpt lat="43.306696" lon="-8.506505">
        <ele>13.708</ele>
        <time>2019-06-21T10:49:06Z</time>
      </trkpt>
      <trkpt lat="43.306613" lon="-8.506690">
        <ele>13.765</ele>
        <time>2019-06-21T10:49:07Z</time>
      </trkpt>
      <trkpt lat="43.306549" lon="-8.506857">
        <ele>15.449</ele>
        <time>2019-06-21T10:49:08Z</time>
      </trkpt>
      <trkpt lat="43.306487" lon="-8.507013">
        <ele>16.761</ele>
        <time>2019-06-21T10:49:09Z</time>
      </trkpt>
      <trkpt lat="43.306437" lon="-8.507126">
        <ele>17.893</ele>
        <time>2019-06-21T10:49:10Z</time>
      </trkpt>
      <trkpt lat="43.306386" lon="-8.507244">
        <ele>19.040</ele>
        <time>2019-06-21T10:49:11Z</time>
      </trkpt>
      <trkpt lat="43.306341" lon="-8.507351">
        <ele>19.496</ele>
        <time>2019-06-21T10:49:12Z</time>
      </trkpt>
      <trkpt lat="43.306311" lon="-8.507431">
        <ele>19.890</ele>
        <time>2019-06-21T10:49:13Z</time>
      </trkpt>
      <trkpt lat="43.306280" lon="-8.507489">
        <ele>20.262</ele>
        <time>2019-06-21T10:49:14Z</time>
      </trkpt>
      <trkpt lat="43.306242" lon="-8.507558">
        <ele>20.766</ele>
        <time>2019-06-21T10:49:16Z</time>
      </trkpt>
      <trkpt lat="43.306244" lon="-8.507621">
        <ele>20.829</ele>
        <time>2019-06-21T10:49:32Z</time>
      </trkpt>
      <trkpt lat="43.306185" lon="-8.507660">
        <ele>21.421</ele>
        <time>2019-06-21T10:49:43Z</time>
      </trkpt>
      <trkpt lat="43.306146" lon="-8.507777">
        <ele>21.708</ele>
        <time>2019-06-21T10:49:44Z</time>
      </trkpt>
      <trkpt lat="43.306100" lon="-8.507873">
        <ele>22.199</ele>
        <time>2019-06-21T10:49:45Z</time>
      </trkpt>
      <trkpt lat="43.306040" lon="-8.507985">
        <ele>22.613</ele>
        <time>2019-06-21T10:49:46Z</time>
      </trkpt>
      <trkpt lat="43.305982" lon="-8.508106">
        <ele>22.835</ele>
        <time>2019-06-21T10:49:47Z</time>
      </trkpt>
      <trkpt lat="43.305931" lon="-8.508225">
        <ele>22.947</ele>
        <time>2019-06-21T10:49:48Z</time>
      </trkpt>
      <trkpt lat="43.305870" lon="-8.508333">
        <ele>22.974</ele>
        <time>2019-06-21T10:49:49Z</time>
      </trkpt>
      <trkpt lat="43.305818" lon="-8.508459">
        <ele>23.040</ele>
        <time>2019-06-21T10:49:50Z</time>
      </trkpt>
      <trkpt lat="43.305771" lon="-8.508576">
        <ele>23.054</ele>
        <time>2019-06-21T10:49:51Z</time>
      </trkpt>
      <trkpt lat="43.305712" lon="-8.508680">
        <ele>23.236</ele>
        <time>2019-06-21T10:49:52Z</time>
      </trkpt>
      <trkpt lat="43.305662" lon="-8.508779">
        <ele>23.635</ele>
        <time>2019-06-21T10:49:53Z</time>
      </trkpt>
      <trkpt lat="43.305627" lon="-8.508868">
        <ele>23.986</ele>
        <time>2019-06-21T10:49:54Z</time>
      </trkpt>
      <trkpt lat="43.305601" lon="-8.508955">
        <ele>24.514</ele>
        <time>2019-06-21T10:49:55Z</time>
      </trkpt>
      <trkpt lat="43.305596" lon="-8.509052">
        <ele>25.208</ele>
        <time>2019-06-21T10:49:56Z</time>
      </trkpt>
      <trkpt lat="43.305600" lon="-8.509160">
        <ele>26.056</ele>
        <time>2019-06-21T10:49:57Z</time>
      </trkpt>
      <trkpt lat="43.305612" lon="-8.509269">
        <ele>26.760</ele>
        <time>2019-06-21T10:49:58Z</time>
      </trkpt>
      <trkpt lat="43.305664" lon="-8.509386">
        <ele>27.382</ele>
        <time>2019-06-21T10:49:59Z</time>
      </trkpt>
      <trkpt lat="43.305731" lon="-8.509491">
        <ele>27.554</ele>
        <time>2019-06-21T10:50:00Z</time>
      </trkpt>
      <trkpt lat="43.305806" lon="-8.509615">
        <ele>27.271</ele>
        <time>2019-06-21T10:50:01Z</time>
      </trkpt>
      <trkpt lat="43.305900" lon="-8.509719">
        <ele>27.017</ele>
        <time>2019-06-21T10:50:02Z</time>
      </trkpt>
      <trkpt lat="43.305976" lon="-8.509847">
        <ele>27.231</ele>
        <time>2019-06-21T10:50:03Z</time>
      </trkpt>
      <trkpt lat="43.306049" lon="-8.509969">
        <ele>27.253</ele>
        <time>2019-06-21T10:50:04Z</time>
      </trkpt>
      <trkpt lat="43.306117" lon="-8.510084">
        <ele>26.736</ele>
        <time>2019-06-21T10:50:05Z</time>
      </trkpt>
      <trkpt lat="43.306192" lon="-8.510209">
        <ele>26.017</ele>
        <time>2019-06-21T10:50:06Z</time>
      </trkpt>
      <trkpt lat="43.306282" lon="-8.510342">
        <ele>25.218</ele>
        <time>2019-06-21T10:50:07Z</time>
      </trkpt>
      <trkpt lat="43.306369" lon="-8.510502">
        <ele>24.308</ele>
        <time>2019-06-21T10:50:08Z</time>
      </trkpt>
      <trkpt lat="43.306459" lon="-8.510669">
        <ele>23.886</ele>
        <time>2019-06-21T10:50:09Z</time>
      </trkpt>
      <trkpt lat="43.306548" lon="-8.510842">
        <ele>23.840</ele>
        <time>2019-06-21T10:50:10Z</time>
      </trkpt>
      <trkpt lat="43.306638" lon="-8.511014">
        <ele>25.042</ele>
        <time>2019-06-21T10:50:11Z</time>
      </trkpt>
      <trkpt lat="43.306728" lon="-8.511179">
        <ele>26.284</ele>
        <time>2019-06-21T10:50:12Z</time>
      </trkpt>
      <trkpt lat="43.306817" lon="-8.511329">
        <ele>26.741</ele>
        <time>2019-06-21T10:50:13Z</time>
      </trkpt>
      <trkpt lat="43.306901" lon="-8.511454">
        <ele>26.197</ele>
        <time>2019-06-21T10:50:14Z</time>
      </trkpt>
      <trkpt lat="43.306975" lon="-8.511567">
        <ele>25.541</ele>
        <time>2019-06-21T10:50:15Z</time>
      </trkpt>
      <trkpt lat="43.307043" lon="-8.511622">
        <ele>25.413</ele>
        <time>2019-06-21T10:50:16Z</time>
      </trkpt>
      <trkpt lat="43.307097" lon="-8.511705">
        <ele>25.684</ele>
        <time>2019-06-21T10:50:17Z</time>
      </trkpt>
      <trkpt lat="43.307145" lon="-8.511801">
        <ele>25.807</ele>
        <time>2019-06-21T10:50:18Z</time>
      </trkpt>
      <trkpt lat="43.307196" lon="-8.511876">
        <ele>25.817</ele>
        <time>2019-06-21T10:50:19Z</time>
      </trkpt>
      <trkpt lat="43.307231" lon="-8.511976">
        <ele>25.908</ele>
        <time>2019-06-21T10:50:20Z</time>
      </trkpt>
      <trkpt lat="43.307261" lon="-8.512097">
        <ele>25.711</ele>
        <time>2019-06-21T10:50:21Z</time>
      </trkpt>
      <trkpt lat="43.307269" lon="-8.512231">
        <ele>25.925</ele>
        <time>2019-06-21T10:50:22Z</time>
      </trkpt>
      <trkpt lat="43.307269" lon="-8.512376">
        <ele>26.997</ele>
        <time>2019-06-21T10:50:23Z</time>
      </trkpt>
      <trkpt lat="43.307261" lon="-8.512528">
        <ele>28.279</ele>
        <time>2019-06-21T10:50:24Z</time>
      </trkpt>
      <trkpt lat="43.307258" lon="-8.512689">
        <ele>29.966</ele>
        <time>2019-06-21T10:50:25Z</time>
      </trkpt>
      <trkpt lat="43.307244" lon="-8.512843">
        <ele>32.362</ele>
        <time>2019-06-21T10:50:26Z</time>
      </trkpt>
      <trkpt lat="43.307239" lon="-8.513003">
        <ele>35.896</ele>
        <time>2019-06-21T10:50:27Z</time>
      </trkpt>
      <trkpt lat="43.307228" lon="-8.513165">
        <ele>38.138</ele>
        <time>2019-06-21T10:50:28Z</time>
      </trkpt>
      <trkpt lat="43.307225" lon="-8.513330">
        <ele>40.053</ele>
        <time>2019-06-21T10:50:29Z</time>
      </trkpt>
      <trkpt lat="43.307231" lon="-8.513514">
        <ele>40.604</ele>
        <time>2019-06-21T10:50:30Z</time>
      </trkpt>
      <trkpt lat="43.307234" lon="-8.513685">
        <ele>41.014</ele>
        <time>2019-06-21T10:50:31Z</time>
      </trkpt>
      <trkpt lat="43.307244" lon="-8.513855">
        <ele>40.908</ele>
        <time>2019-06-21T10:50:32Z</time>
      </trkpt>
      <trkpt lat="43.307254" lon="-8.514002">
        <ele>40.948</ele>
        <time>2019-06-21T10:50:33Z</time>
      </trkpt>
      <trkpt lat="43.307275" lon="-8.514150">
        <ele>40.832</ele>
        <time>2019-06-21T10:50:34Z</time>
      </trkpt>
      <trkpt lat="43.307290" lon="-8.514280">
        <ele>41.714</ele>
        <time>2019-06-21T10:50:35Z</time>
      </trkpt>
      <trkpt lat="43.307323" lon="-8.514431">
        <ele>42.986</ele>
        <time>2019-06-21T10:50:36Z</time>
      </trkpt>
      <trkpt lat="43.307353" lon="-8.514567">
        <ele>43.613</ele>
        <time>2019-06-21T10:50:37Z</time>
      </trkpt>
      <trkpt lat="43.307407" lon="-8.514687">
        <ele>44.519</ele>
        <time>2019-06-21T10:50:38Z</time>
      </trkpt>
      <trkpt lat="43.307464" lon="-8.514786">
        <ele>44.973</ele>
        <time>2019-06-21T10:50:39Z</time>
      </trkpt>
      <trkpt lat="43.307521" lon="-8.514870">
        <ele>45.015</ele>
        <time>2019-06-21T10:50:40Z</time>
      </trkpt>
      <trkpt lat="43.307567" lon="-8.514941">
        <ele>45.286</ele>
        <time>2019-06-21T10:50:41Z</time>
      </trkpt>
      <trkpt lat="43.307609" lon="-8.515010">
        <ele>45.460</ele>
        <time>2019-06-21T10:50:42Z</time>
      </trkpt>
      <trkpt lat="43.307649" lon="-8.515080">
        <ele>45.526</ele>
        <time>2019-06-21T10:50:43Z</time>
      </trkpt>
      <trkpt lat="43.307684" lon="-8.515171">
        <ele>45.708</ele>
        <time>2019-06-21T10:50:44Z</time>
      </trkpt>
      <trkpt lat="43.307713" lon="-8.515311">
        <ele>45.721</ele>
        <time>2019-06-21T10:50:45Z</time>
      </trkpt>
      <trkpt lat="43.307765" lon="-8.515451">
        <ele>45.415</ele>
        <time>2019-06-21T10:50:46Z</time>
      </trkpt>
      <trkpt lat="43.307806" lon="-8.515599">
        <ele>45.277</ele>
        <time>2019-06-21T10:50:47Z</time>
      </trkpt>
      <trkpt lat="43.307859" lon="-8.515757">
        <ele>45.489</ele>
        <time>2019-06-21T10:50:48Z</time>
      </trkpt>
      <trkpt lat="43.307913" lon="-8.515927">
        <ele>45.816</ele>
        <time>2019-06-21T10:50:49Z</time>
      </trkpt>
      <trkpt lat="43.307972" lon="-8.516107">
        <ele>46.752</ele>
        <time>2019-06-21T10:50:50Z</time>
      </trkpt>
      <trkpt lat="43.308020" lon="-8.516297">
        <ele>47.576</ele>
        <time>2019-06-21T10:50:51Z</time>
      </trkpt>
      <trkpt lat="43.308068" lon="-8.516482">
        <ele>49.278</ele>
        <time>2019-06-21T10:50:52Z</time>
      </trkpt>
      <trkpt lat="43.308124" lon="-8.516685">
        <ele>51.729</ele>
        <time>2019-06-21T10:50:53Z</time>
      </trkpt>
      <trkpt lat="43.308190" lon="-8.516888">
        <ele>54.700</ele>
        <time>2019-06-21T10:50:54Z</time>
      </trkpt>
      <trkpt lat="43.308261" lon="-8.517046">
        <ele>57.720</ele>
        <time>2019-06-21T10:50:55Z</time>
      </trkpt>
      <trkpt lat="43.308315" lon="-8.517244">
        <ele>61.108</ele>
        <time>2019-06-21T10:50:56Z</time>
      </trkpt>
      <trkpt lat="43.308379" lon="-8.517453">
        <ele>64.785</ele>
        <time>2019-06-21T10:50:57Z</time>
      </trkpt>
      <trkpt lat="43.308437" lon="-8.517655">
        <ele>66.969</ele>
        <time>2019-06-21T10:50:58Z</time>
      </trkpt>
      <trkpt lat="43.308491" lon="-8.517849">
        <ele>68.251</ele>
        <time>2019-06-21T10:50:59Z</time>
      </trkpt>
      <trkpt lat="43.308547" lon="-8.518046">
        <ele>68.863</ele>
        <time>2019-06-21T10:51:00Z</time>
      </trkpt>
      <trkpt lat="43.308601" lon="-8.518232">
        <ele>70.950</ele>
        <time>2019-06-21T10:51:01Z</time>
      </trkpt>
      <trkpt lat="43.308655" lon="-8.518418">
        <ele>72.926</ele>
        <time>2019-06-21T10:51:02Z</time>
      </trkpt>
      <trkpt lat="43.308708" lon="-8.518603">
        <ele>74.920</ele>
        <time>2019-06-21T10:51:03Z</time>
      </trkpt>
      <trkpt lat="43.308762" lon="-8.518780">
        <ele>76.512</ele>
        <time>2019-06-21T10:51:04Z</time>
      </trkpt>
      <trkpt lat="43.308809" lon="-8.518947">
        <ele>78.013</ele>
        <time>2019-06-21T10:51:05Z</time>
      </trkpt>
      <trkpt lat="43.308855" lon="-8.519109">
        <ele>78.843</ele>
        <time>2019-06-21T10:51:06Z</time>
      </trkpt>
      <trkpt lat="43.308895" lon="-8.519252">
        <ele>79.307</ele>
        <time>2019-06-21T10:51:07Z</time>
      </trkpt>
      <trkpt lat="43.308927" lon="-8.519383">
        <ele>79.808</ele>
        <time>2019-06-21T10:51:08Z</time>
      </trkpt>
      <trkpt lat="43.308960" lon="-8.519520">
        <ele>80.444</ele>
        <time>2019-06-21T10:51:09Z</time>
      </trkpt>
      <trkpt lat="43.308987" lon="-8.519663">
        <ele>81.098</ele>
        <time>2019-06-21T10:51:10Z</time>
      </trkpt>
      <trkpt lat="43.309004" lon="-8.519804">
        <ele>81.310</ele>
        <time>2019-06-21T10:51:11Z</time>
      </trkpt>
      <trkpt lat="43.308998" lon="-8.519938">
        <ele>81.592</ele>
        <time>2019-06-21T10:51:12Z</time>
      </trkpt>
      <trkpt lat="43.308977" lon="-8.520077">
        <ele>82.159</ele>
        <time>2019-06-21T10:51:13Z</time>
      </trkpt>
      <trkpt lat="43.308958" lon="-8.520232">
        <ele>83.235</ele>
        <time>2019-06-21T10:51:14Z</time>
      </trkpt>
      <trkpt lat="43.308943" lon="-8.520397">
        <ele>83.339</ele>
        <time>2019-06-21T10:51:15Z</time>
      </trkpt>
      <trkpt lat="43.308935" lon="-8.520573">
        <ele>82.951</ele>
        <time>2019-06-21T10:51:16Z</time>
      </trkpt>
      <trkpt lat="43.308924" lon="-8.520748">
        <ele>82.431</ele>
        <time>2019-06-21T10:51:17Z</time>
      </trkpt>
      <trkpt lat="43.308924" lon="-8.520929">
        <ele>81.461</ele>
        <time>2019-06-21T10:51:18Z</time>
      </trkpt>
      <trkpt lat="43.308933" lon="-8.521119">
        <ele>80.007</ele>
        <time>2019-06-21T10:51:19Z</time>
      </trkpt>
      <trkpt lat="43.308943" lon="-8.521305">
        <ele>79.608</ele>
        <time>2019-06-21T10:51:20Z</time>
      </trkpt>
      <trkpt lat="43.308950" lon="-8.521494">
        <ele>79.726</ele>
        <time>2019-06-21T10:51:21Z</time>
      </trkpt>
      <trkpt lat="43.308956" lon="-8.521688">
        <ele>80.420</ele>
        <time>2019-06-21T10:51:22Z</time>
      </trkpt>
      <trkpt lat="43.308963" lon="-8.521884">
        <ele>81.622</ele>
        <time>2019-06-21T10:51:23Z</time>
      </trkpt>
      <trkpt lat="43.308970" lon="-8.522079">
        <ele>82.774</ele>
        <time>2019-06-21T10:51:24Z</time>
      </trkpt>
      <trkpt lat="43.308990" lon="-8.522275">
        <ele>83.211</ele>
        <time>2019-06-21T10:51:25Z</time>
      </trkpt>
      <trkpt lat="43.309017" lon="-8.522471">
        <ele>83.137</ele>
        <time>2019-06-21T10:51:26Z</time>
      </trkpt>
      <trkpt lat="43.309067" lon="-8.522679">
        <ele>83.791</ele>
        <time>2019-06-21T10:51:27Z</time>
      </trkpt>
      <trkpt lat="43.309121" lon="-8.522865">
        <ele>84.083</ele>
        <time>2019-06-21T10:51:28Z</time>
      </trkpt>
      <trkpt lat="43.309185" lon="-8.523048">
        <ele>83.679</ele>
        <time>2019-06-21T10:51:29Z</time>
      </trkpt>
      <trkpt lat="43.309256" lon="-8.523235">
        <ele>83.005</ele>
        <time>2019-06-21T10:51:30Z</time>
      </trkpt>
      <trkpt lat="43.309331" lon="-8.523428">
        <ele>82.325</ele>
        <time>2019-06-21T10:51:31Z</time>
      </trkpt>
      <trkpt lat="43.309409" lon="-8.523625">
        <ele>81.008</ele>
        <time>2019-06-21T10:51:32Z</time>
      </trkpt>
      <trkpt lat="43.309492" lon="-8.523832">
        <ele>80.920</ele>
        <time>2019-06-21T10:51:33Z</time>
      </trkpt>
      <trkpt lat="43.309578" lon="-8.524050">
        <ele>80.194</ele>
        <time>2019-06-21T10:51:34Z</time>
      </trkpt>
      <trkpt lat="43.309656" lon="-8.524266">
        <ele>79.526</ele>
        <time>2019-06-21T10:51:35Z</time>
      </trkpt>
      <trkpt lat="43.309739" lon="-8.524487">
        <ele>79.198</ele>
        <time>2019-06-21T10:51:36Z</time>
      </trkpt>
      <trkpt lat="43.309823" lon="-8.524708">
        <ele>79.815</ele>
        <time>2019-06-21T10:51:37Z</time>
      </trkpt>
      <trkpt lat="43.309909" lon="-8.524928">
        <ele>80.761</ele>
        <time>2019-06-21T10:51:38Z</time>
      </trkpt>
      <trkpt lat="43.309984" lon="-8.525138">
        <ele>81.315</ele>
        <time>2019-06-21T10:51:39Z</time>
      </trkpt>
      <trkpt lat="43.310052" lon="-8.525370">
        <ele>82.237</ele>
        <time>2019-06-21T10:51:40Z</time>
      </trkpt>
      <trkpt lat="43.310113" lon="-8.525608">
        <ele>83.467</ele>
        <time>2019-06-21T10:51:41Z</time>
      </trkpt>
      <trkpt lat="43.310169" lon="-8.525837">
        <ele>83.881</ele>
        <time>2019-06-21T10:51:42Z</time>
      </trkpt>
      <trkpt lat="43.310221" lon="-8.526069">
        <ele>83.819</ele>
        <time>2019-06-21T10:51:43Z</time>
      </trkpt>
      <trkpt lat="43.310270" lon="-8.526302">
        <ele>83.108</ele>
        <time>2019-06-21T10:51:44Z</time>
      </trkpt>
      <trkpt lat="43.310329" lon="-8.526526">
        <ele>82.129</ele>
        <time>2019-06-21T10:51:45Z</time>
      </trkpt>
      <trkpt lat="43.310390" lon="-8.526730">
        <ele>80.453</ele>
        <time>2019-06-21T10:51:46Z</time>
      </trkpt>
      <trkpt lat="43.310456" lon="-8.526940">
        <ele>77.935</ele>
        <time>2019-06-21T10:51:47Z</time>
      </trkpt>
      <trkpt lat="43.310532" lon="-8.527157">
        <ele>76.437</ele>
        <time>2019-06-21T10:51:48Z</time>
      </trkpt>
      <trkpt lat="43.310622" lon="-8.527375">
        <ele>75.894</ele>
        <time>2019-06-21T10:51:49Z</time>
      </trkpt>
      <trkpt lat="43.310720" lon="-8.527597">
        <ele>77.370</ele>
        <time>2019-06-21T10:51:50Z</time>
      </trkpt>
      <trkpt lat="43.310820" lon="-8.527816">
        <ele>80.574</ele>
        <time>2019-06-21T10:51:51Z</time>
      </trkpt>
      <trkpt lat="43.310920" lon="-8.528032">
        <ele>84.866</ele>
        <time>2019-06-21T10:51:52Z</time>
      </trkpt>
      <trkpt lat="43.311024" lon="-8.528248">
        <ele>84.824</ele>
        <time>2019-06-21T10:51:53Z</time>
      </trkpt>
      <trkpt lat="43.311134" lon="-8.528461">
        <ele>83.804</ele>
        <time>2019-06-21T10:51:54Z</time>
      </trkpt>
      <trkpt lat="43.311235" lon="-8.528689">
        <ele>82.114</ele>
        <time>2019-06-21T10:51:55Z</time>
      </trkpt>
      <trkpt lat="43.311337" lon="-8.528897">
        <ele>80.708</ele>
        <time>2019-06-21T10:51:56Z</time>
      </trkpt>
      <trkpt lat="43.311435" lon="-8.529123">
        <ele>79.635</ele>
        <time>2019-06-21T10:51:57Z</time>
      </trkpt>
      <trkpt lat="43.311520" lon="-8.529333">
        <ele>80.069</ele>
        <time>2019-06-21T10:51:58Z</time>
      </trkpt>
      <trkpt lat="43.311608" lon="-8.529554">
        <ele>79.991</ele>
        <time>2019-06-21T10:51:59Z</time>
      </trkpt>
      <trkpt lat="43.311689" lon="-8.529771">
        <ele>79.133</ele>
        <time>2019-06-21T10:52:00Z</time>
      </trkpt>
      <trkpt lat="43.311761" lon="-8.529984">
        <ele>79.210</ele>
        <time>2019-06-21T10:52:01Z</time>
      </trkpt>
      <trkpt lat="43.311834" lon="-8.530206">
        <ele>78.746</ele>
        <time>2019-06-21T10:52:02Z</time>
      </trkpt>
      <trkpt lat="43.311897" lon="-8.530431">
        <ele>78.420</ele>
        <time>2019-06-21T10:52:03Z</time>
      </trkpt>
      <trkpt lat="43.311956" lon="-8.530668">
        <ele>78.512</ele>
        <time>2019-06-21T10:52:04Z</time>
      </trkpt>
      <trkpt lat="43.312006" lon="-8.530907">
        <ele>78.432</ele>
        <time>2019-06-21T10:52:05Z</time>
      </trkpt>
      <trkpt lat="43.312050" lon="-8.531141">
        <ele>78.792</ele>
        <time>2019-06-21T10:52:06Z</time>
      </trkpt>
      <trkpt lat="43.312099" lon="-8.531371">
        <ele>79.811</ele>
        <time>2019-06-21T10:52:07Z</time>
      </trkpt>
      <trkpt lat="43.312145" lon="-8.531601">
        <ele>80.008</ele>
        <time>2019-06-21T10:52:08Z</time>
      </trkpt>
      <trkpt lat="43.312188" lon="-8.531824">
        <ele>79.776</ele>
        <time>2019-06-21T10:52:09Z</time>
      </trkpt>
      <trkpt lat="43.312243" lon="-8.532053">
        <ele>79.560</ele>
        <time>2019-06-21T10:52:10Z</time>
      </trkpt>
      <trkpt lat="43.312295" lon="-8.532274">
        <ele>80.222</ele>
        <time>2019-06-21T10:52:11Z</time>
      </trkpt>
      <trkpt lat="43.312352" lon="-8.532488">
        <ele>81.634</ele>
        <time>2019-06-21T10:52:12Z</time>
      </trkpt>
      <trkpt lat="43.312401" lon="-8.532685">
        <ele>83.151</ele>
        <time>2019-06-21T10:52:13Z</time>
      </trkpt>
      <trkpt lat="43.312452" lon="-8.532878">
        <ele>84.087</ele>
        <time>2019-06-21T10:52:14Z</time>
      </trkpt>
      <trkpt lat="43.312510" lon="-8.533074">
        <ele>83.821</ele>
        <time>2019-06-21T10:52:15Z</time>
      </trkpt>
      <trkpt lat="43.312569" lon="-8.533270">
        <ele>83.253</ele>
        <time>2019-06-21T10:52:16Z</time>
      </trkpt>
      <trkpt lat="43.312617" lon="-8.533485">
        <ele>82.756</ele>
        <time>2019-06-21T10:52:17Z</time>
      </trkpt>
      <trkpt lat="43.312651" lon="-8.533705">
        <ele>82.659</ele>
        <time>2019-06-21T10:52:18Z</time>
      </trkpt>
      <trkpt lat="43.312680" lon="-8.533913">
        <ele>83.014</ele>
        <time>2019-06-21T10:52:19Z</time>
      </trkpt>
      <trkpt lat="43.312680" lon="-8.534127">
        <ele>85.008</ele>
        <time>2019-06-21T10:52:20Z</time>
      </trkpt>
      <trkpt lat="43.312676" lon="-8.534340">
        <ele>86.158</ele>
        <time>2019-06-21T10:52:21Z</time>
      </trkpt>
      <trkpt lat="43.312671" lon="-8.534551">
        <ele>86.282</ele>
        <time>2019-06-21T10:52:22Z</time>
      </trkpt>
      <trkpt lat="43.312695" lon="-8.534748">
        <ele>85.184</ele>
        <time>2019-06-21T10:52:23Z</time>
      </trkpt>
      <trkpt lat="43.312742" lon="-8.534925">
        <ele>83.876</ele>
        <time>2019-06-21T10:52:24Z</time>
      </trkpt>
      <trkpt lat="43.312813" lon="-8.535092">
        <ele>83.053</ele>
        <time>2019-06-21T10:52:25Z</time>
      </trkpt>
      <trkpt lat="43.312900" lon="-8.535224">
        <ele>82.149</ele>
        <time>2019-06-21T10:52:26Z</time>
      </trkpt>
      <trkpt lat="43.313002" lon="-8.535362">
        <ele>81.173</ele>
        <time>2019-06-21T10:52:27Z</time>
      </trkpt>
      <trkpt lat="43.313112" lon="-8.535517">
        <ele>80.495</ele>
        <time>2019-06-21T10:52:28Z</time>
      </trkpt>
      <trkpt lat="43.313220" lon="-8.535646">
        <ele>79.243</ele>
        <time>2019-06-21T10:52:29Z</time>
      </trkpt>
      <trkpt lat="43.313313" lon="-8.535801">
        <ele>78.364</ele>
        <time>2019-06-21T10:52:30Z</time>
      </trkpt>
      <trkpt lat="43.313410" lon="-8.535963">
        <ele>79.010</ele>
        <time>2019-06-21T10:52:31Z</time>
      </trkpt>
      <trkpt lat="43.313504" lon="-8.536121">
        <ele>79.908</ele>
        <time>2019-06-21T10:52:32Z</time>
      </trkpt>
      <trkpt lat="43.313582" lon="-8.536293">
        <ele>81.047</ele>
        <time>2019-06-21T10:52:33Z</time>
      </trkpt>
      <trkpt lat="43.313649" lon="-8.536484">
        <ele>81.411</ele>
        <time>2019-06-21T10:52:34Z</time>
      </trkpt>
      <trkpt lat="43.313701" lon="-8.536673">
        <ele>80.873</ele>
        <time>2019-06-21T10:52:35Z</time>
      </trkpt>
      <trkpt lat="43.313738" lon="-8.536867">
        <ele>79.895</ele>
        <time>2019-06-21T10:52:36Z</time>
      </trkpt>
      <trkpt lat="43.313766" lon="-8.537069">
        <ele>79.442</ele>
        <time>2019-06-21T10:52:37Z</time>
      </trkpt>
      <trkpt lat="43.313761" lon="-8.537270">
        <ele>80.298</ele>
        <time>2019-06-21T10:52:38Z</time>
      </trkpt>
      <trkpt lat="43.313747" lon="-8.537457">
        <ele>81.012</ele>
        <time>2019-06-21T10:52:39Z</time>
      </trkpt>
      <trkpt lat="43.313730" lon="-8.537627">
        <ele>81.584</ele>
        <time>2019-06-21T10:52:40Z</time>
      </trkpt>
      <trkpt lat="43.313717" lon="-8.537790">
        <ele>81.582</ele>
        <time>2019-06-21T10:52:41Z</time>
      </trkpt>
      <trkpt lat="43.313715" lon="-8.537902">
        <ele>81.243</ele>
        <time>2019-06-21T10:52:42Z</time>
      </trkpt>
      <trkpt lat="43.313707" lon="-8.537990">
        <ele>81.117</ele>
        <time>2019-06-21T10:52:43Z</time>
      </trkpt>
      <trkpt lat="43.313695" lon="-8.538056">
        <ele>81.308</ele>
        <time>2019-06-21T10:52:45Z</time>
      </trkpt>
      <trkpt lat="43.313700" lon="-8.537990">
        <ele>81.431</ele>
        <time>2019-06-21T10:52:58Z</time>
      </trkpt>
      <trkpt lat="43.313669" lon="-8.538082">
        <ele>82.085</ele>
        <time>2019-06-21T10:53:03Z</time>
      </trkpt>
      <trkpt lat="43.313648" lon="-8.538175">
        <ele>82.477</ele>
        <time>2019-06-21T10:53:04Z</time>
      </trkpt>
      <trkpt lat="43.313624" lon="-8.538297">
        <ele>82.789</ele>
        <time>2019-06-21T10:53:05Z</time>
      </trkpt>
      <trkpt lat="43.313591" lon="-8.538430">
        <ele>83.586</ele>
        <time>2019-06-21T10:53:06Z</time>
      </trkpt>
      <trkpt lat="43.313548" lon="-8.538560">
        <ele>84.482</ele>
        <time>2019-06-21T10:53:07Z</time>
      </trkpt>
      <trkpt lat="43.313507" lon="-8.538710">
        <ele>84.326</ele>
        <time>2019-06-21T10:53:08Z</time>
      </trkpt>
      <trkpt lat="43.313465" lon="-8.538860">
        <ele>83.968</ele>
        <time>2019-06-21T10:53:09Z</time>
      </trkpt>
      <trkpt lat="43.313428" lon="-8.538990">
        <ele>82.893</ele>
        <time>2019-06-21T10:53:10Z</time>
      </trkpt>
      <trkpt lat="43.313389" lon="-8.539126">
        <ele>81.365</ele>
        <time>2019-06-21T10:53:11Z</time>
      </trkpt>
      <trkpt lat="43.313356" lon="-8.539249">
        <ele>79.721</ele>
        <time>2019-06-21T10:53:12Z</time>
      </trkpt>
      <trkpt lat="43.313328" lon="-8.539349">
        <ele>78.208</ele>
        <time>2019-06-21T10:53:13Z</time>
      </trkpt>
      <trkpt lat="43.313304" lon="-8.539426">
        <ele>77.022</ele>
        <time>2019-06-21T10:53:14Z</time>
      </trkpt>
      <trkpt lat="43.313282" lon="-8.539481">
        <ele>76.316</ele>
        <time>2019-06-21T10:53:15Z</time>
      </trkpt>
      <trkpt lat="43.313234" lon="-8.539519">
        <ele>76.548</ele>
        <time>2019-06-21T10:53:18Z</time>
      </trkpt>
      <trkpt lat="43.313231" lon="-8.539581">
        <ele>75.340</ele>
        <time>2019-06-21T10:54:13Z</time>
      </trkpt>
      <trkpt lat="43.313177" lon="-8.539621">
        <ele>75.637</ele>
        <time>2019-06-21T10:54:59Z</time>
      </trkpt>
      <trkpt lat="43.313127" lon="-8.539680">
        <ele>75.423</ele>
        <time>2019-06-21T10:55:00Z</time>
      </trkpt>
      <trkpt lat="43.313071" lon="-8.539743">
        <ele>75.267</ele>
        <time>2019-06-21T10:55:01Z</time>
      </trkpt>
      <trkpt lat="43.312997" lon="-8.539809">
        <ele>74.419</ele>
        <time>2019-06-21T10:55:02Z</time>
      </trkpt>
      <trkpt lat="43.312914" lon="-8.539892">
        <ele>73.261</ele>
        <time>2019-06-21T10:55:03Z</time>
      </trkpt>
      <trkpt lat="43.312823" lon="-8.539976">
        <ele>72.121</ele>
        <time>2019-06-21T10:55:04Z</time>
      </trkpt>
      <trkpt lat="43.312732" lon="-8.540069">
        <ele>71.013</ele>
        <time>2019-06-21T10:55:05Z</time>
      </trkpt>
      <trkpt lat="43.312641" lon="-8.540163">
        <ele>70.208</ele>
        <time>2019-06-21T10:55:06Z</time>
      </trkpt>
      <trkpt lat="43.312562" lon="-8.540262">
        <ele>69.269</ele>
        <time>2019-06-21T10:55:07Z</time>
      </trkpt>
      <trkpt lat="43.312478" lon="-8.540368">
        <ele>68.853</ele>
        <time>2019-06-21T10:55:08Z</time>
      </trkpt>
      <trkpt lat="43.312394" lon="-8.540476">
        <ele>68.455</ele>
        <time>2019-06-21T10:55:09Z</time>
      </trkpt>
      <trkpt lat="43.312311" lon="-8.540589">
        <ele>67.877</ele>
        <time>2019-06-21T10:55:10Z</time>
      </trkpt>
      <trkpt lat="43.312224" lon="-8.540701">
        <ele>67.384</ele>
        <time>2019-06-21T10:55:11Z</time>
      </trkpt>
      <trkpt lat="43.312142" lon="-8.540818">
        <ele>66.570</ele>
        <time>2019-06-21T10:55:12Z</time>
      </trkpt>
      <trkpt lat="43.312052" lon="-8.540944">
        <ele>65.264</ele>
        <time>2019-06-21T10:55:13Z</time>
      </trkpt>
      <trkpt lat="43.311964" lon="-8.541076">
        <ele>64.236</ele>
        <time>2019-06-21T10:55:14Z</time>
      </trkpt>
      <trkpt lat="43.311885" lon="-8.541219">
        <ele>63.657</ele>
        <time>2019-06-21T10:55:15Z</time>
      </trkpt>
      <trkpt lat="43.311809" lon="-8.541380">
        <ele>62.600</ele>
        <time>2019-06-21T10:55:16Z</time>
      </trkpt>
      <trkpt lat="43.311741" lon="-8.541549">
        <ele>61.720</ele>
        <time>2019-06-21T10:55:17Z</time>
      </trkpt>
      <trkpt lat="43.311677" lon="-8.541713">
        <ele>60.708</ele>
        <time>2019-06-21T10:55:18Z</time>
      </trkpt>
      <trkpt lat="43.311612" lon="-8.541878">
        <ele>58.858</ele>
        <time>2019-06-21T10:55:19Z</time>
      </trkpt>
      <trkpt lat="43.311544" lon="-8.542036">
        <ele>57.382</ele>
        <time>2019-06-21T10:55:20Z</time>
      </trkpt>
      <trkpt lat="43.311484" lon="-8.542178">
        <ele>56.184</ele>
        <time>2019-06-21T10:55:21Z</time>
      </trkpt>
      <trkpt lat="43.311413" lon="-8.542331">
        <ele>55.016</ele>
        <time>2019-06-21T10:55:22Z</time>
      </trkpt>
      <trkpt lat="43.311330" lon="-8.542469">
        <ele>54.163</ele>
        <time>2019-06-21T10:55:23Z</time>
      </trkpt>
      <trkpt lat="43.311240" lon="-8.542609">
        <ele>53.639</ele>
        <time>2019-06-21T10:55:24Z</time>
      </trkpt>
      <trkpt lat="43.311165" lon="-8.542747">
        <ele>53.033</ele>
        <time>2019-06-21T10:55:25Z</time>
      </trkpt>
      <trkpt lat="43.311100" lon="-8.542880">
        <ele>52.565</ele>
        <time>2019-06-21T10:55:26Z</time>
      </trkpt>
      <trkpt lat="43.311037" lon="-8.543010">
        <ele>52.499</ele>
        <time>2019-06-21T10:55:27Z</time>
      </trkpt>
      <trkpt lat="43.310992" lon="-8.543153">
        <ele>52.207</ele>
        <time>2019-06-21T10:55:28Z</time>
      </trkpt>
      <trkpt lat="43.310966" lon="-8.543291">
        <ele>51.727</ele>
        <time>2019-06-21T10:55:29Z</time>
      </trkpt>
      <trkpt lat="43.310971" lon="-8.543438">
        <ele>50.108</ele>
        <time>2019-06-21T10:55:30Z</time>
      </trkpt>
      <trkpt lat="43.311002" lon="-8.543588">
        <ele>47.712</ele>
        <time>2019-06-21T10:55:31Z</time>
      </trkpt>
      <trkpt lat="43.311045" lon="-8.543749">
        <ele>45.586</ele>
        <time>2019-06-21T10:55:32Z</time>
      </trkpt>
      <trkpt lat="43.311096" lon="-8.543909">
        <ele>43.318</ele>
        <time>2019-06-21T10:55:33Z</time>
      </trkpt>
      <trkpt lat="43.311146" lon="-8.544019">
        <ele>40.860</ele>
        <time>2019-06-21T10:55:34Z</time>
      </trkpt>
      <trkpt lat="43.311222" lon="-8.544160">
        <ele>37.127</ele>
        <time>2019-06-21T10:55:35Z</time>
      </trkpt>
      <trkpt lat="43.311296" lon="-8.544293">
        <ele>34.633</ele>
        <time>2019-06-21T10:55:36Z</time>
      </trkpt>
      <trkpt lat="43.311367" lon="-8.544418">
        <ele>32.647</ele>
        <time>2019-06-21T10:55:37Z</time>
      </trkpt>
      <trkpt lat="43.311424" lon="-8.544556">
        <ele>31.639</ele>
        <time>2019-06-21T10:55:38Z</time>
      </trkpt>
      <trkpt lat="43.311473" lon="-8.544704">
        <ele>31.125</ele>
        <time>2019-06-21T10:55:39Z</time>
      </trkpt>
      <trkpt lat="43.311527" lon="-8.544844">
        <ele>29.926</ele>
        <time>2019-06-21T10:55:40Z</time>
      </trkpt>
      <trkpt lat="43.311557" lon="-8.544980">
        <ele>29.808</ele>
        <time>2019-06-21T10:55:41Z</time>
      </trkpt>
      <trkpt lat="43.311588" lon="-8.545112">
        <ele>29.308</ele>
        <time>2019-06-21T10:55:42Z</time>
      </trkpt>
      <trkpt lat="43.311618" lon="-8.545241">
        <ele>29.055</ele>
        <time>2019-06-21T10:55:43Z</time>
      </trkpt>
      <trkpt lat="43.311651" lon="-8.545339">
        <ele>28.669</ele>
        <time>2019-06-21T10:55:44Z</time>
      </trkpt>
      <trkpt lat="43.311679" lon="-8.545430">
        <ele>28.131</ele>
        <time>2019-06-21T10:55:45Z</time>
      </trkpt>
      <trkpt lat="43.311695" lon="-8.545506">
        <ele>27.833</ele>
        <time>2019-06-21T10:55:46Z</time>
      </trkpt>
      <trkpt lat="43.311710" lon="-8.545576">
        <ele>27.660</ele>
        <time>2019-06-21T10:55:47Z</time>
      </trkpt>
      <trkpt lat="43.311712" lon="-8.545679">
        <ele>27.316</ele>
        <time>2019-06-21T10:55:49Z</time>
      </trkpt>
      <trkpt lat="43.311693" lon="-8.545771">
        <ele>27.660</ele>
        <time>2019-06-21T10:55:51Z</time>
      </trkpt>
      <trkpt lat="43.311672" lon="-8.545873">
        <ele>27.562</ele>
        <time>2019-06-21T10:55:53Z</time>
      </trkpt>
      <trkpt lat="43.311643" lon="-8.545959">
        <ele>26.855</ele>
        <time>2019-06-21T10:55:55Z</time>
      </trkpt>
      <trkpt lat="43.311607" lon="-8.546004">
        <ele>26.507</ele>
        <time>2019-06-21T10:55:58Z</time>
      </trkpt>
      <trkpt lat="43.311576" lon="-8.546059">
        <ele>26.217</ele>
        <time>2019-06-21T10:56:37Z</time>
      </trkpt>
      <trkpt lat="43.311543" lon="-8.546107">
        <ele>25.908</ele>
        <time>2019-06-21T10:57:27Z</time>
      </trkpt>
      <trkpt lat="43.311483" lon="-8.546175">
        <ele>25.528</ele>
        <time>2019-06-21T10:57:29Z</time>
      </trkpt>
      <trkpt lat="43.311442" lon="-8.546201">
        <ele>25.552</ele>
        <time>2019-06-21T10:57:30Z</time>
      </trkpt>
      <trkpt lat="43.311397" lon="-8.546246">
        <ele>25.514</ele>
        <time>2019-06-21T10:57:31Z</time>
      </trkpt>
      <trkpt lat="43.311334" lon="-8.546307">
        <ele>25.016</ele>
        <time>2019-06-21T10:57:32Z</time>
      </trkpt>
      <trkpt lat="43.311264" lon="-8.546383">
        <ele>24.553</ele>
        <time>2019-06-21T10:57:33Z</time>
      </trkpt>
      <trkpt lat="43.311189" lon="-8.546475">
        <ele>24.129</ele>
        <time>2019-06-21T10:57:34Z</time>
      </trkpt>
      <trkpt lat="43.311105" lon="-8.546579">
        <ele>24.343</ele>
        <time>2019-06-21T10:57:35Z</time>
      </trkpt>
      <trkpt lat="43.311011" lon="-8.546689">
        <ele>24.215</ele>
        <time>2019-06-21T10:57:36Z</time>
      </trkpt>
      <trkpt lat="43.310917" lon="-8.546791">
        <ele>24.144</ele>
        <time>2019-06-21T10:57:37Z</time>
      </trkpt>
      <trkpt lat="43.310821" lon="-8.546897">
        <ele>24.205</ele>
        <time>2019-06-21T10:57:38Z</time>
      </trkpt>
      <trkpt lat="43.310724" lon="-8.546997">
        <ele>23.515</ele>
        <time>2019-06-21T10:57:39Z</time>
      </trkpt>
      <trkpt lat="43.310619" lon="-8.547099">
        <ele>22.808</ele>
        <time>2019-06-21T10:57:40Z</time>
      </trkpt>
      <trkpt lat="43.310513" lon="-8.547201">
        <ele>22.237</ele>
        <time>2019-06-21T10:57:41Z</time>
      </trkpt>
      <trkpt lat="43.310405" lon="-8.547298">
        <ele>21.131</ele>
        <time>2019-06-21T10:57:42Z</time>
      </trkpt>
      <trkpt lat="43.310301" lon="-8.547397">
        <ele>20.193</ele>
        <time>2019-06-21T10:57:43Z</time>
      </trkpt>
      <trkpt lat="43.310186" lon="-8.547496">
        <ele>19.085</ele>
        <time>2019-06-21T10:57:44Z</time>
      </trkpt>
      <trkpt lat="43.310083" lon="-8.547595">
        <ele>17.682</ele>
        <time>2019-06-21T10:57:45Z</time>
      </trkpt>
      <trkpt lat="43.309976" lon="-8.547693">
        <ele>16.218</ele>
        <time>2019-06-21T10:57:46Z</time>
      </trkpt>
      <trkpt lat="43.309870" lon="-8.547788">
        <ele>14.932</ele>
        <time>2019-06-21T10:57:47Z</time>
      </trkpt>
      <trkpt lat="43.309770" lon="-8.547888">
        <ele>13.724</ele>
        <time>2019-06-21T10:57:48Z</time>
      </trkpt>
      <trkpt lat="43.309661" lon="-8.547981">
        <ele>12.984</ele>
        <time>2019-06-21T10:57:49Z</time>
      </trkpt>
      <trkpt lat="43.309575" lon="-8.548108">
        <ele>11.507</ele>
        <time>2019-06-21T10:57:50Z</time>
      </trkpt>
      <trkpt lat="43.309507" lon="-8.548248">
        <ele>10.517</ele>
        <time>2019-06-21T10:57:51Z</time>
      </trkpt>
      <trkpt lat="43.309447" lon="-8.548406">
        <ele>9.508</ele>
        <time>2019-06-21T10:57:52Z</time>
      </trkpt>
      <trkpt lat="43.309399" lon="-8.548590">
        <ele>8.311</ele>
        <time>2019-06-21T10:57:53Z</time>
      </trkpt>
      <trkpt lat="43.309355" lon="-8.548793">
        <ele>7.525</ele>
        <time>2019-06-21T10:57:54Z</time>
      </trkpt>
      <trkpt lat="43.309313" lon="-8.549020">
        <ele>6.597</ele>
        <time>2019-06-21T10:57:55Z</time>
      </trkpt>
      <trkpt lat="43.309267" lon="-8.549251">
        <ele>6.099</ele>
        <time>2019-06-21T10:57:56Z</time>
      </trkpt>
      <trkpt lat="43.309226" lon="-8.549489">
        <ele>6.086</ele>
        <time>2019-06-21T10:57:57Z</time>
      </trkpt>
      <trkpt lat="43.309183" lon="-8.549732">
        <ele>6.062</ele>
        <time>2019-06-21T10:57:58Z</time>
      </trkpt>
      <trkpt lat="43.309142" lon="-8.549968">
        <ele>4.936</ele>
        <time>2019-06-21T10:57:59Z</time>
      </trkpt>
      <trkpt lat="43.309102" lon="-8.550205">
        <ele>4.738</ele>
        <time>2019-06-21T10:58:00Z</time>
      </trkpt>
      <trkpt lat="43.309063" lon="-8.550438">
        <ele>4.852</ele>
        <time>2019-06-21T10:58:01Z</time>
      </trkpt>
      <trkpt lat="43.309026" lon="-8.550665">
        <ele>5.053</ele>
        <time>2019-06-21T10:58:02Z</time>
      </trkpt>
      <trkpt lat="43.308982" lon="-8.550887">
        <ele>5.108</ele>
        <time>2019-06-21T10:58:03Z</time>
      </trkpt>
      <trkpt lat="43.308946" lon="-8.551114">
        <ele>5.208</ele>
        <time>2019-06-21T10:58:04Z</time>
      </trkpt>
      <trkpt lat="43.308905" lon="-8.551316">
        <ele>5.048</ele>
        <time>2019-06-21T10:58:05Z</time>
      </trkpt>
      <trkpt lat="43.308864" lon="-8.551528">
        <ele>4.412</ele>
        <time>2019-06-21T10:58:06Z</time>
      </trkpt>
      <trkpt lat="43.308831" lon="-8.551740">
        <ele>3.864</ele>
        <time>2019-06-21T10:58:07Z</time>
      </trkpt>
      <trkpt lat="43.308799" lon="-8.551938">
        <ele>3.736</ele>
        <time>2019-06-21T10:58:08Z</time>
      </trkpt>
      <trkpt lat="43.308762" lon="-8.552141">
        <ele>3.553</ele>
        <time>2019-06-21T10:58:09Z</time>
      </trkpt>
      <trkpt lat="43.308731" lon="-8.552338">
        <ele>3.759</ele>
        <time>2019-06-21T10:58:10Z</time>
      </trkpt>
      <trkpt lat="43.308701" lon="-8.552523">
        <ele>4.143</ele>
        <time>2019-06-21T10:58:11Z</time>
      </trkpt>
      <trkpt lat="43.308675" lon="-8.552692">
        <ele>4.595</ele>
        <time>2019-06-21T10:58:12Z</time>
      </trkpt>
      <trkpt lat="43.308652" lon="-8.552840">
        <ele>4.954</ele>
        <time>2019-06-21T10:58:13Z</time>
      </trkpt>
      <trkpt lat="43.308630" lon="-8.552964">
        <ele>4.956</ele>
        <time>2019-06-21T10:58:14Z</time>
      </trkpt>
      <trkpt lat="43.308611" lon="-8.553062">
        <ele>5.011</ele>
        <time>2019-06-21T10:58:15Z</time>
      </trkpt>
      <trkpt lat="43.308611" lon="-8.553141">
        <ele>5.008</ele>
        <time>2019-06-21T10:58:16Z</time>
      </trkpt>
      <trkpt lat="43.308626" lon="-8.553217">
        <ele>4.918</ele>
        <time>2019-06-21T10:58:17Z</time>
      </trkpt>
      <trkpt lat="43.308698" lon="-8.553308">
        <ele>4.712</ele>
        <time>2019-06-21T10:58:19Z</time>
      </trkpt>
      <trkpt lat="43.308755" lon="-8.553352">
        <ele>4.584</ele>
        <time>2019-06-21T10:58:20Z</time>
      </trkpt>
      <trkpt lat="43.308819" lon="-8.553432">
        <ele>4.396</ele>
        <time>2019-06-21T10:58:21Z</time>
      </trkpt>
      <trkpt lat="43.308879" lon="-8.553546">
        <ele>4.093</ele>
        <time>2019-06-21T10:58:22Z</time>
      </trkpt>
      <trkpt lat="43.308935" lon="-8.553689">
        <ele>3.829</ele>
        <time>2019-06-21T10:58:23Z</time>
      </trkpt>
      <trkpt lat="43.308997" lon="-8.553850">
        <ele>3.633</ele>
        <time>2019-06-21T10:58:24Z</time>
      </trkpt>
      <trkpt lat="43.309061" lon="-8.554018">
        <ele>3.545</ele>
        <time>2019-06-21T10:58:25Z</time>
      </trkpt>
      <trkpt lat="43.309129" lon="-8.554192">
        <ele>3.957</ele>
        <time>2019-06-21T10:58:26Z</time>
      </trkpt>
      <trkpt lat="43.309186" lon="-8.554365">
        <ele>4.000</ele>
        <time>2019-06-21T10:58:27Z</time>
      </trkpt>
      <trkpt lat="43.309230" lon="-8.554552">
        <ele>4.320</ele>
        <time>2019-06-21T10:58:28Z</time>
      </trkpt>
      <trkpt lat="43.309269" lon="-8.554727">
        <ele>4.608</ele>
        <time>2019-06-21T10:58:29Z</time>
      </trkpt>
      <trkpt lat="43.309283" lon="-8.554917">
        <ele>4.338</ele>
        <time>2019-06-21T10:58:30Z</time>
      </trkpt>
      <trkpt lat="43.309276" lon="-8.555122">
        <ele>3.922</ele>
        <time>2019-06-21T10:58:31Z</time>
      </trkpt>
      <trkpt lat="43.309270" lon="-8.555330">
        <ele>3.624</ele>
        <time>2019-06-21T10:58:32Z</time>
      </trkpt>
      <trkpt lat="43.309240" lon="-8.555521">
        <ele>3.756</ele>
        <time>2019-06-21T10:58:33Z</time>
      </trkpt>
      <trkpt lat="43.309195" lon="-8.555702">
        <ele>3.933</ele>
        <time>2019-06-21T10:58:34Z</time>
      </trkpt>
      <trkpt lat="43.309141" lon="-8.555873">
        <ele>4.059</ele>
        <time>2019-06-21T10:58:35Z</time>
      </trkpt>
      <trkpt lat="43.309081" lon="-8.556045">
        <ele>4.083</ele>
        <time>2019-06-21T10:58:36Z</time>
      </trkpt>
      <trkpt lat="43.309025" lon="-8.556210">
        <ele>4.095</ele>
        <time>2019-06-21T10:58:37Z</time>
      </trkpt>
      <trkpt lat="43.308979" lon="-8.556367">
        <ele>4.071</ele>
        <time>2019-06-21T10:58:38Z</time>
      </trkpt>
      <trkpt lat="43.308951" lon="-8.556511">
        <ele>4.341</ele>
        <time>2019-06-21T10:58:39Z</time>
      </trkpt>
      <trkpt lat="43.308953" lon="-8.556662">
        <ele>4.815</ele>
        <time>2019-06-21T10:58:40Z</time>
      </trkpt>
      <trkpt lat="43.308978" lon="-8.556812">
        <ele>5.208</ele>
        <time>2019-06-21T10:58:41Z</time>
      </trkpt>
      <trkpt lat="43.309019" lon="-8.556954">
        <ele>5.660</ele>
        <time>2019-06-21T10:58:42Z</time>
      </trkpt>
      <trkpt lat="43.309071" lon="-8.557081">
        <ele>5.884</ele>
        <time>2019-06-21T10:58:43Z</time>
      </trkpt>
      <trkpt lat="43.309140" lon="-8.557202">
        <ele>6.066</ele>
        <time>2019-06-21T10:58:44Z</time>
      </trkpt>
      <trkpt lat="43.309216" lon="-8.557283">
        <ele>6.468</ele>
        <time>2019-06-21T10:58:45Z</time>
      </trkpt>
      <trkpt lat="43.309303" lon="-8.557342">
        <ele>6.985</ele>
        <time>2019-06-21T10:58:46Z</time>
      </trkpt>
      <trkpt lat="43.309401" lon="-8.557373">
        <ele>7.111</ele>
        <time>2019-06-21T10:58:47Z</time>
      </trkpt>
      <trkpt lat="43.309500" lon="-8.557399">
        <ele>7.485</ele>
        <time>2019-06-21T10:58:48Z</time>
      </trkpt>
      <trkpt lat="43.309625" lon="-8.557360">
        <ele>7.357</ele>
        <time>2019-06-21T10:58:49Z</time>
      </trkpt>
      <trkpt lat="43.309743" lon="-8.557329">
        <ele>7.217</ele>
        <time>2019-06-21T10:58:50Z</time>
      </trkpt>
      <trkpt lat="43.309851" lon="-8.557297">
        <ele>7.187</ele>
        <time>2019-06-21T10:58:51Z</time>
      </trkpt>
      <trkpt lat="43.309953" lon="-8.557252">
        <ele>7.115</ele>
        <time>2019-06-21T10:58:52Z</time>
      </trkpt>
      <trkpt lat="43.310052" lon="-8.557214">
        <ele>7.208</ele>
        <time>2019-06-21T10:58:53Z</time>
      </trkpt>
      <trkpt lat="43.310138" lon="-8.557174">
        <ele>7.434</ele>
        <time>2019-06-21T10:58:54Z</time>
      </trkpt>
      <trkpt lat="43.310204" lon="-8.557151">
        <ele>7.598</ele>
        <time>2019-06-21T10:58:55Z</time>
      </trkpt>
      <trkpt lat="43.310267" lon="-8.557156">
        <ele>7.780</ele>
        <time>2019-06-21T10:58:56Z</time>
      </trkpt>
      <trkpt lat="43.310360" lon="-8.557188">
        <ele>7.972</ele>
        <time>2019-06-21T10:58:58Z</time>
      </trkpt>
      <trkpt lat="43.310379" lon="-8.557249">
        <ele>8.279</ele>
        <time>2019-06-21T10:58:59Z</time>
      </trkpt>
      <trkpt lat="43.310398" lon="-8.557332">
        <ele>9.055</ele>
        <time>2019-06-21T10:59:00Z</time>
      </trkpt>
      <trkpt lat="43.310392" lon="-8.557437">
        <ele>9.949</ele>
        <time>2019-06-21T10:59:01Z</time>
      </trkpt>
      <trkpt lat="43.310404" lon="-8.557555">
        <ele>11.091</ele>
        <time>2019-06-21T10:59:02Z</time>
      </trkpt>
      <trkpt lat="43.310401" lon="-8.557680">
        <ele>12.453</ele>
        <time>2019-06-21T10:59:03Z</time>
      </trkpt>
      <trkpt lat="43.310417" lon="-8.557822">
        <ele>13.704</ele>
        <time>2019-06-21T10:59:04Z</time>
      </trkpt>
      <trkpt lat="43.310433" lon="-8.557964">
        <ele>14.514</ele>
        <time>2019-06-21T10:59:05Z</time>
      </trkpt>
      <trkpt lat="43.310454" lon="-8.558099">
        <ele>15.208</ele>
        <time>2019-06-21T10:59:06Z</time>
      </trkpt>
      <trkpt lat="43.310484" lon="-8.558245">
        <ele>15.798</ele>
        <time>2019-06-21T10:59:07Z</time>
      </trkpt>
      <trkpt lat="43.310545" lon="-8.558406">
        <ele>16.032</ele>
        <time>2019-06-21T10:59:08Z</time>
      </trkpt>
      <trkpt lat="43.310591" lon="-8.558563">
        <ele>16.064</ele>
        <time>2019-06-21T10:59:09Z</time>
      </trkpt>
      <trkpt lat="43.310640" lon="-8.558726">
        <ele>15.996</ele>
        <time>2019-06-21T10:59:10Z</time>
      </trkpt>
      <trkpt lat="43.310692" lon="-8.558886">
        <ele>15.543</ele>
        <time>2019-06-21T10:59:11Z</time>
      </trkpt>
      <trkpt lat="43.310741" lon="-8.559034">
        <ele>14.529</ele>
        <time>2019-06-21T10:59:12Z</time>
      </trkpt>
      <trkpt lat="43.310788" lon="-8.559176">
        <ele>13.353</ele>
        <time>2019-06-21T10:59:13Z</time>
      </trkpt>
      <trkpt lat="43.310850" lon="-8.559321">
        <ele>12.455</ele>
        <time>2019-06-21T10:59:14Z</time>
      </trkpt>
      <trkpt lat="43.310900" lon="-8.559487">
        <ele>11.471</ele>
        <time>2019-06-21T10:59:15Z</time>
      </trkpt>
      <trkpt lat="43.310963" lon="-8.559659">
        <ele>10.341</ele>
        <time>2019-06-21T10:59:16Z</time>
      </trkpt>
      <trkpt lat="43.311025" lon="-8.559831">
        <ele>9.515</ele>
        <time>2019-06-21T10:59:17Z</time>
      </trkpt>
      <trkpt lat="43.311089" lon="-8.560020">
        <ele>9.108</ele>
        <time>2019-06-21T10:59:18Z</time>
      </trkpt>
      <trkpt lat="43.311148" lon="-8.560204">
        <ele>9.550</ele>
        <time>2019-06-21T10:59:19Z</time>
      </trkpt>
      <trkpt lat="43.311198" lon="-8.560388">
        <ele>9.574</ele>
        <time>2019-06-21T10:59:20Z</time>
      </trkpt>
      <trkpt lat="43.311243" lon="-8.560573">
        <ele>9.616</ele>
        <time>2019-06-21T10:59:21Z</time>
      </trkpt>
      <trkpt lat="43.311281" lon="-8.560751">
        <ele>9.788</ele>
        <time>2019-06-21T10:59:22Z</time>
      </trkpt>
      <trkpt lat="43.311317" lon="-8.560916">
        <ele>10.335</ele>
        <time>2019-06-21T10:59:23Z</time>
      </trkpt>
      <trkpt lat="43.311357" lon="-8.561067">
        <ele>11.721</ele>
        <time>2019-06-21T10:59:24Z</time>
      </trkpt>
      <trkpt lat="43.311408" lon="-8.561198">
        <ele>13.925</ele>
        <time>2019-06-21T10:59:25Z</time>
      </trkpt>
      <trkpt lat="43.311476" lon="-8.561276">
        <ele>15.737</ele>
        <time>2019-06-21T10:59:26Z</time>
      </trkpt>
      <trkpt lat="43.311548" lon="-8.561336">
        <ele>17.338</ele>
        <time>2019-06-21T10:59:27Z</time>
      </trkpt>
      <trkpt lat="43.311621" lon="-8.561380">
        <ele>18.670</ele>
        <time>2019-06-21T10:59:28Z</time>
      </trkpt>
      <trkpt lat="43.311676" lon="-8.561390">
        <ele>19.117</ele>
        <time>2019-06-21T10:59:29Z</time>
      </trkpt>
      <trkpt lat="43.311725" lon="-8.561424">
        <ele>20.208</ele>
        <time>2019-06-21T10:59:30Z</time>
      </trkpt>
      <trkpt lat="43.311800" lon="-8.561440">
        <ele>20.986</ele>
        <time>2019-06-21T10:59:31Z</time>
      </trkpt>
      <trkpt lat="43.311872" lon="-8.561461">
        <ele>21.650</ele>
        <time>2019-06-21T10:59:32Z</time>
      </trkpt>
      <trkpt lat="43.311955" lon="-8.561485">
        <ele>22.492</ele>
        <time>2019-06-21T10:59:33Z</time>
      </trkpt>
      <trkpt lat="43.312041" lon="-8.561498">
        <ele>22.384</ele>
        <time>2019-06-21T10:59:34Z</time>
      </trkpt>
      <trkpt lat="43.312139" lon="-8.561491">
        <ele>21.661</ele>
        <time>2019-06-21T10:59:35Z</time>
      </trkpt>
      <trkpt lat="43.312242" lon="-8.561474">
        <ele>20.627</ele>
        <time>2019-06-21T10:59:36Z</time>
      </trkpt>
      <trkpt lat="43.312330" lon="-8.561448">
        <ele>19.081</ele>
        <time>2019-06-21T10:59:37Z</time>
      </trkpt>
      <trkpt lat="43.312408" lon="-8.561429">
        <ele>17.863</ele>
        <time>2019-06-21T10:59:38Z</time>
      </trkpt>
      <trkpt lat="43.312474" lon="-8.561409">
        <ele>16.691</ele>
        <time>2019-06-21T10:59:39Z</time>
      </trkpt>
      <trkpt lat="43.312530" lon="-8.561387">
        <ele>15.881</ele>
        <time>2019-06-21T10:59:40Z</time>
      </trkpt>
      <trkpt lat="43.312583" lon="-8.561378">
        <ele>15.219</ele>
        <time>2019-06-21T10:59:42Z</time>
      </trkpt>
      <trkpt lat="43.312630" lon="-8.561375">
        <ele>14.908</ele>
        <time>2019-06-21T11:00:34Z</time>
      </trkpt>
      <trkpt lat="43.312679" lon="-8.561438">
        <ele>15.342</ele>
        <time>2019-06-21T11:00:35Z</time>
      </trkpt>
      <trkpt lat="43.312711" lon="-8.561485">
        <ele>15.496</ele>
        <time>2019-06-21T11:00:36Z</time>
      </trkpt>
      <trkpt lat="43.312756" lon="-8.561578">
        <ele>15.788</ele>
        <time>2019-06-21T11:00:38Z</time>
      </trkpt>
      <trkpt lat="43.312777" lon="-8.561638">
        <ele>15.850</ele>
        <time>2019-06-21T11:00:39Z</time>
      </trkpt>
      <trkpt lat="43.312792" lon="-8.561708">
        <ele>15.897</ele>
        <time>2019-06-21T11:00:40Z</time>
      </trkpt>
      <trkpt lat="43.312795" lon="-8.561777">
        <ele>15.933</ele>
        <time>2019-06-21T11:00:41Z</time>
      </trkpt>
      <trkpt lat="43.312792" lon="-8.561847">
        <ele>16.257</ele>
        <time>2019-06-21T11:00:42Z</time>
      </trkpt>
      <trkpt lat="43.312780" lon="-8.561935">
        <ele>16.929</ele>
        <time>2019-06-21T11:00:43Z</time>
      </trkpt>
      <trkpt lat="43.312766" lon="-8.562035">
        <ele>17.428</ele>
        <time>2019-06-21T11:00:44Z</time>
      </trkpt>
      <trkpt lat="43.312748" lon="-8.562135">
        <ele>18.189</ele>
        <time>2019-06-21T11:00:45Z</time>
      </trkpt>
      <trkpt lat="43.312731" lon="-8.562251">
        <ele>18.717</ele>
        <time>2019-06-21T11:00:46Z</time>
      </trkpt>
      <trkpt lat="43.312706" lon="-8.562371">
        <ele>19.308</ele>
        <time>2019-06-21T11:00:47Z</time>
      </trkpt>
      <trkpt lat="43.312668" lon="-8.562482">
        <ele>20.445</ele>
        <time>2019-06-21T11:00:48Z</time>
      </trkpt>
      <trkpt lat="43.312644" lon="-8.562591">
        <ele>20.519</ele>
        <time>2019-06-21T11:00:49Z</time>
      </trkpt>
      <trkpt lat="43.312626" lon="-8.562702">
        <ele>20.281</ele>
        <time>2019-06-21T11:00:50Z</time>
      </trkpt>
      <trkpt lat="43.312618" lon="-8.562824">
        <ele>19.673</ele>
        <time>2019-06-21T11:00:51Z</time>
      </trkpt>
      <trkpt lat="43.312610" lon="-8.562958">
        <ele>19.320</ele>
        <time>2019-06-21T11:00:52Z</time>
      </trkpt>
      <trkpt lat="43.312607" lon="-8.563079">
        <ele>18.816</ele>
        <time>2019-06-21T11:00:53Z</time>
      </trkpt>
      <trkpt lat="43.312597" lon="-8.563225">
        <ele>18.480</ele>
        <time>2019-06-21T11:00:54Z</time>
      </trkpt>
      <trkpt lat="43.312599" lon="-8.563383">
        <ele>17.972</ele>
        <time>2019-06-21T11:00:55Z</time>
      </trkpt>
      <trkpt lat="43.312592" lon="-8.563541">
        <ele>18.032</ele>
        <time>2019-06-21T11:00:56Z</time>
      </trkpt>
      <trkpt lat="43.312576" lon="-8.563703">
        <ele>18.092</ele>
        <time>2019-06-21T11:00:57Z</time>
      </trkpt>
      <trkpt lat="43.312542" lon="-8.563876">
        <ele>18.111</ele>
        <time>2019-06-21T11:00:58Z</time>
      </trkpt>
      <trkpt lat="43.312491" lon="-8.564057">
        <ele>18.608</ele>
        <time>2019-06-21T11:00:59Z</time>
      </trkpt>
      <trkpt lat="43.312433" lon="-8.564234">
        <ele>19.446</ele>
        <time>2019-06-21T11:01:00Z</time>
      </trkpt>
      <trkpt lat="43.312370" lon="-8.564400">
        <ele>20.140</ele>
        <time>2019-06-21T11:01:01Z</time>
      </trkpt>
      <trkpt lat="43.312303" lon="-8.564568">
        <ele>20.342</ele>
        <time>2019-06-21T11:01:02Z</time>
      </trkpt>
      <trkpt lat="43.312244" lon="-8.564724">
        <ele>20.414</ele>
        <time>2019-06-21T11:01:03Z</time>
      </trkpt>
      <trkpt lat="43.312209" lon="-8.564874">
        <ele>21.571</ele>
        <time>2019-06-21T11:01:04Z</time>
      </trkpt>
      <trkpt lat="43.312189" lon="-8.565017">
        <ele>22.237</ele>
        <time>2019-06-21T11:01:05Z</time>
      </trkpt>
      <trkpt lat="43.312175" lon="-8.565143">
        <ele>22.651</ele>
        <time>2019-06-21T11:01:06Z</time>
      </trkpt>
      <trkpt lat="43.312159" lon="-8.565249">
        <ele>23.183</ele>
        <time>2019-06-21T11:01:07Z</time>
      </trkpt>
      <trkpt lat="43.312146" lon="-8.565354">
        <ele>23.286</ele>
        <time>2019-06-21T11:01:08Z</time>
      </trkpt>
      <trkpt lat="43.312133" lon="-8.565459">
        <ele>23.360</ele>
        <time>2019-06-21T11:01:09Z</time>
      </trkpt>
      <trkpt lat="43.312118" lon="-8.565613">
        <ele>22.526</ele>
        <time>2019-06-21T11:01:10Z</time>
      </trkpt>
      <trkpt lat="43.312087" lon="-8.565739">
        <ele>21.608</ele>
        <time>2019-06-21T11:01:11Z</time>
      </trkpt>
      <trkpt lat="43.312073" lon="-8.565873">
        <ele>20.381</ele>
        <time>2019-06-21T11:01:12Z</time>
      </trkpt>
      <trkpt lat="43.312057" lon="-8.566012">
        <ele>19.245</ele>
        <time>2019-06-21T11:01:13Z</time>
      </trkpt>
      <trkpt lat="43.312044" lon="-8.566140">
        <ele>18.217</ele>
        <time>2019-06-21T11:01:14Z</time>
      </trkpt>
      <trkpt lat="43.312031" lon="-8.566265">
        <ele>17.389</ele>
        <time>2019-06-21T11:01:15Z</time>
      </trkpt>
      <trkpt lat="43.312021" lon="-8.566370">
        <ele>16.586</ele>
        <time>2019-06-21T11:01:16Z</time>
      </trkpt>
      <trkpt lat="43.312002" lon="-8.566495">
        <ele>15.842</ele>
        <time>2019-06-21T11:01:17Z</time>
      </trkpt>
      <trkpt lat="43.311960" lon="-8.566611">
        <ele>15.496</ele>
        <time>2019-06-21T11:01:18Z</time>
      </trkpt>
      <trkpt lat="43.311900" lon="-8.566714">
        <ele>15.518</ele>
        <time>2019-06-21T11:01:19Z</time>
      </trkpt>
      <trkpt lat="43.311828" lon="-8.566836">
        <ele>15.983</ele>
        <time>2019-06-21T11:01:20Z</time>
      </trkpt>
      <trkpt lat="43.311745" lon="-8.566944">
        <ele>16.625</ele>
        <time>2019-06-21T11:01:21Z</time>
      </trkpt>
      <trkpt lat="43.311664" lon="-8.567066">
        <ele>16.817</ele>
        <time>2019-06-21T11:01:22Z</time>
      </trkpt>
      <trkpt lat="43.311584" lon="-8.567196">
        <ele>17.908</ele>
        <time>2019-06-21T11:01:23Z</time>
      </trkpt>
      <trkpt lat="43.311519" lon="-8.567322">
        <ele>18.361</ele>
        <time>2019-06-21T11:01:24Z</time>
      </trkpt>
      <trkpt lat="43.311459" lon="-8.567427">
        <ele>18.835</ele>
        <time>2019-06-21T11:01:25Z</time>
      </trkpt>
      <trkpt lat="43.311404" lon="-8.567519">
        <ele>19.247</ele>
        <time>2019-06-21T11:01:26Z</time>
      </trkpt>
      <trkpt lat="43.311361" lon="-8.567622">
        <ele>18.769</ele>
        <time>2019-06-21T11:01:27Z</time>
      </trkpt>
      <trkpt lat="43.311344" lon="-8.567726">
        <ele>17.436</ele>
        <time>2019-06-21T11:01:28Z</time>
      </trkpt>
      <trkpt lat="43.311339" lon="-8.567815">
        <ele>16.342</ele>
        <time>2019-06-21T11:01:29Z</time>
      </trkpt>
      <trkpt lat="43.311351" lon="-8.567922">
        <ele>15.116</ele>
        <time>2019-06-21T11:01:30Z</time>
      </trkpt>
      <trkpt lat="43.311365" lon="-8.568057">
        <ele>13.788</ele>
        <time>2019-06-21T11:01:31Z</time>
      </trkpt>
      <trkpt lat="43.311378" lon="-8.568184">
        <ele>12.899</ele>
        <time>2019-06-21T11:01:32Z</time>
      </trkpt>
      <trkpt lat="43.311396" lon="-8.568302">
        <ele>12.007</ele>
        <time>2019-06-21T11:01:33Z</time>
      </trkpt>
      <trkpt lat="43.311392" lon="-8.568436">
        <ele>11.227</ele>
        <time>2019-06-21T11:01:34Z</time>
      </trkpt>
      <trkpt lat="43.311380" lon="-8.568577">
        <ele>10.408</ele>
        <time>2019-06-21T11:01:35Z</time>
      </trkpt>
      <trkpt lat="43.311353" lon="-8.568708">
        <ele>11.082</ele>
        <time>2019-06-21T11:01:36Z</time>
      </trkpt>
      <trkpt lat="43.311328" lon="-8.568837">
        <ele>11.676</ele>
        <time>2019-06-21T11:01:37Z</time>
      </trkpt>
      <trkpt lat="43.311294" lon="-8.568952">
        <ele>11.968</ele>
        <time>2019-06-21T11:01:38Z</time>
      </trkpt>
      <trkpt lat="43.311246" lon="-8.569027">
        <ele>12.030</ele>
        <time>2019-06-21T11:01:39Z</time>
      </trkpt>
      <trkpt lat="43.311205" lon="-8.569093">
        <ele>12.027</ele>
        <time>2019-06-21T11:01:40Z</time>
      </trkpt>
      <trkpt lat="43.311175" lon="-8.569157">
        <ele>11.893</ele>
        <time>2019-06-21T11:01:41Z</time>
      </trkpt>
      <trkpt lat="43.311188" lon="-8.569263">
        <ele>11.197</ele>
        <time>2019-06-21T11:01:43Z</time>
      </trkpt>
      <trkpt lat="43.311268" lon="-8.569311">
        <ele>10.719</ele>
        <time>2019-06-21T11:01:45Z</time>
      </trkpt>
      <trkpt lat="43.311320" lon="-8.569312">
        <ele>10.656</ele>
        <time>2019-06-21T11:01:46Z</time>
      </trkpt>
      <trkpt lat="43.311393" lon="-8.569296">
        <ele>10.559</ele>
        <time>2019-06-21T11:01:47Z</time>
      </trkpt>
      <trkpt lat="43.311470" lon="-8.569283">
        <ele>10.114</ele>
        <time>2019-06-21T11:01:48Z</time>
      </trkpt>
      <trkpt lat="43.311536" lon="-8.569262">
        <ele>9.608</ele>
        <time>2019-06-21T11:01:49Z</time>
      </trkpt>
      <trkpt lat="43.311595" lon="-8.569238">
        <ele>9.138</ele>
        <time>2019-06-21T11:01:50Z</time>
      </trkpt>
      <trkpt lat="43.311653" lon="-8.569217">
        <ele>8.512</ele>
        <time>2019-06-21T11:01:51Z</time>
      </trkpt>
      <trkpt lat="43.311717" lon="-8.569178">
        <ele>7.984</ele>
        <time>2019-06-21T11:01:53Z</time>
      </trkpt>
      <trkpt lat="43.311760" lon="-8.569126">
        <ele>7.336</ele>
        <time>2019-06-21T11:01:56Z</time>
      </trkpt>
      <trkpt lat="43.311808" lon="-8.569158">
        <ele>7.443</ele>
        <time>2019-06-21T11:02:06Z</time>
      </trkpt>
      <trkpt lat="43.311762" lon="-8.569190">
        <ele>7.969</ele>
        <time>2019-06-21T11:02:52Z</time>
      </trkpt>
      <trkpt lat="43.311763" lon="-8.569126">
        <ele>7.323</ele>
        <time>2019-06-21T11:03:07Z</time>
      </trkpt>
      <trkpt lat="43.311803" lon="-8.569170">
        <ele>7.515</ele>
        <time>2019-06-21T11:03:35Z</time>
      </trkpt>
      <trkpt lat="43.311842" lon="-8.569288">
        <ele>8.526</ele>
        <time>2019-06-21T11:03:37Z</time>
      </trkpt>
      <trkpt lat="43.311873" lon="-8.569376">
        <ele>9.347</ele>
        <time>2019-06-21T11:03:38Z</time>
      </trkpt>
      <trkpt lat="43.311902" lon="-8.569475">
        <ele>10.411</ele>
        <time>2019-06-21T11:03:39Z</time>
      </trkpt>
      <trkpt lat="43.311925" lon="-8.569562">
        <ele>11.608</ele>
        <time>2019-06-21T11:03:40Z</time>
      </trkpt>
      <trkpt lat="43.311949" lon="-8.569649">
        <ele>13.095</ele>
        <time>2019-06-21T11:03:41Z</time>
      </trkpt>
      <trkpt lat="43.311982" lon="-8.569743">
        <ele>14.599</ele>
        <time>2019-06-21T11:03:42Z</time>
      </trkpt>
      <trkpt lat="43.312022" lon="-8.569824">
        <ele>15.761</ele>
        <time>2019-06-21T11:03:43Z</time>
      </trkpt>
      <trkpt lat="43.312074" lon="-8.569896">
        <ele>16.843</ele>
        <time>2019-06-21T11:03:44Z</time>
      </trkpt>
      <trkpt lat="43.312134" lon="-8.569954">
        <ele>17.980</ele>
        <time>2019-06-21T11:03:45Z</time>
      </trkpt>
      <trkpt lat="43.312201" lon="-8.570010">
        <ele>18.976</ele>
        <time>2019-06-21T11:03:46Z</time>
      </trkpt>
      <trkpt lat="43.312268" lon="-8.570075">
        <ele>19.510</ele>
        <time>2019-06-21T11:03:47Z</time>
      </trkpt>
      <trkpt lat="43.312341" lon="-8.570149">
        <ele>20.242</ele>
        <time>2019-06-21T11:03:48Z</time>
      </trkpt>
      <trkpt lat="43.312409" lon="-8.570217">
        <ele>21.014</ele>
        <time>2019-06-21T11:03:49Z</time>
      </trkpt>
      <trkpt lat="43.312467" lon="-8.570286">
        <ele>21.954</ele>
        <time>2019-06-21T11:03:50Z</time>
      </trkpt>
      <trkpt lat="43.312513" lon="-8.570334">
        <ele>22.709</ele>
        <time>2019-06-21T11:03:51Z</time>
      </trkpt>
      <trkpt lat="43.312598" lon="-8.570388">
        <ele>23.508</ele>
        <time>2019-06-21T11:03:53Z</time>
      </trkpt>
      <trkpt lat="43.312659" lon="-8.570399">
        <ele>23.914</ele>
        <time>2019-06-21T11:03:54Z</time>
      </trkpt>
      <trkpt lat="43.312726" lon="-8.570397">
        <ele>24.188</ele>
        <time>2019-06-21T11:03:55Z</time>
      </trkpt>
      <trkpt lat="43.312806" lon="-8.570394">
        <ele>24.280</ele>
        <time>2019-06-21T11:03:56Z</time>
      </trkpt>
      <trkpt lat="43.312881" lon="-8.570410">
        <ele>24.352</ele>
        <time>2019-06-21T11:03:57Z</time>
      </trkpt>
      <trkpt lat="43.312949" lon="-8.570442">
        <ele>24.449</ele>
        <time>2019-06-21T11:03:58Z</time>
      </trkpt>
      <trkpt lat="43.313011" lon="-8.570503">
        <ele>24.885</ele>
        <time>2019-06-21T11:03:59Z</time>
      </trkpt>
      <trkpt lat="43.313056" lon="-8.570581">
        <ele>25.169</ele>
        <time>2019-06-21T11:04:00Z</time>
      </trkpt>
      <trkpt lat="43.313092" lon="-8.570671">
        <ele>25.061</ele>
        <time>2019-06-21T11:04:01Z</time>
      </trkpt>
      <trkpt lat="43.313106" lon="-8.570783">
        <ele>25.356</ele>
        <time>2019-06-21T11:04:02Z</time>
      </trkpt>
      <trkpt lat="43.313106" lon="-8.570901">
        <ele>26.159</ele>
        <time>2019-06-21T11:04:03Z</time>
      </trkpt>
      <trkpt lat="43.313097" lon="-8.571021">
        <ele>27.514</ele>
        <time>2019-06-21T11:04:04Z</time>
      </trkpt>
      <trkpt lat="43.313085" lon="-8.571155">
        <ele>29.208</ele>
        <time>2019-06-21T11:04:05Z</time>
      </trkpt>
      <trkpt lat="43.313083" lon="-8.571291">
        <ele>31.218</ele>
        <time>2019-06-21T11:04:06Z</time>
      </trkpt>
      <trkpt lat="43.313095" lon="-8.571425">
        <ele>33.032</ele>
        <time>2019-06-21T11:04:07Z</time>
      </trkpt>
      <trkpt lat="43.313123" lon="-8.571551">
        <ele>34.444</ele>
        <time>2019-06-21T11:04:08Z</time>
      </trkpt>
      <trkpt lat="43.313184" lon="-8.571674">
        <ele>35.266</ele>
        <time>2019-06-21T11:04:09Z</time>
      </trkpt>
      <trkpt lat="43.313252" lon="-8.571771">
        <ele>35.673</ele>
        <time>2019-06-21T11:04:10Z</time>
      </trkpt>
      <trkpt lat="43.313326" lon="-8.571884">
        <ele>36.289</ele>
        <time>2019-06-21T11:04:11Z</time>
      </trkpt>
      <trkpt lat="43.313402" lon="-8.571991">
        <ele>37.393</ele>
        <time>2019-06-21T11:04:12Z</time>
      </trkpt>
      <trkpt lat="43.313481" lon="-8.572105">
        <ele>38.835</ele>
        <time>2019-06-21T11:04:13Z</time>
      </trkpt>
      <trkpt lat="43.313551" lon="-8.572199">
        <ele>40.014</ele>
        <time>2019-06-21T11:04:14Z</time>
      </trkpt>
      <trkpt lat="43.313564" lon="-8.572308">
        <ele>42.554</ele>
        <time>2019-06-21T11:04:15Z</time>
      </trkpt>
      <trkpt lat="43.313596" lon="-8.572400">
        <ele>44.609</ele>
        <time>2019-06-21T11:04:16Z</time>
      </trkpt>
      <trkpt lat="43.313611" lon="-8.572459">
        <ele>46.008</ele>
        <time>2019-06-21T11:04:17Z</time>
      </trkpt>
      <trkpt lat="43.313618" lon="-8.572523">
        <ele>47.884</ele>
        <time>2019-06-21T11:04:18Z</time>
      </trkpt>
      <trkpt lat="43.313532" lon="-8.572636">
        <ele>51.658</ele>
        <time>2019-06-21T11:04:20Z</time>
      </trkpt>
      <trkpt lat="43.313470" lon="-8.572692">
        <ele>53.230</ele>
        <time>2019-06-21T11:04:21Z</time>
      </trkpt>
      <trkpt lat="43.313363" lon="-8.572715">
        <ele>53.752</ele>
        <time>2019-06-21T11:04:22Z</time>
      </trkpt>
      <trkpt lat="43.313274" lon="-8.572774">
        <ele>54.589</ele>
        <time>2019-06-21T11:04:23Z</time>
      </trkpt>
      <trkpt lat="43.313202" lon="-8.572830">
        <ele>54.955</ele>
        <time>2019-06-21T11:04:24Z</time>
      </trkpt>
      <trkpt lat="43.313136" lon="-8.572885">
        <ele>55.199</ele>
        <time>2019-06-21T11:04:25Z</time>
      </trkpt>
      <trkpt lat="43.313082" lon="-8.572954">
        <ele>55.341</ele>
        <time>2019-06-21T11:04:26Z</time>
      </trkpt>
      <trkpt lat="43.313026" lon="-8.573028">
        <ele>55.488</ele>
        <time>2019-06-21T11:04:27Z</time>
      </trkpt>
      <trkpt lat="43.312981" lon="-8.573116">
        <ele>56.124</ele>
        <time>2019-06-21T11:04:28Z</time>
      </trkpt>
      <trkpt lat="43.312925" lon="-8.573219">
        <ele>56.926</ele>
        <time>2019-06-21T11:04:29Z</time>
      </trkpt>
      <trkpt lat="43.312882" lon="-8.573357">
        <ele>58.508</ele>
        <time>2019-06-21T11:04:30Z</time>
      </trkpt>
      <trkpt lat="43.312837" lon="-8.573505">
        <ele>60.431</ele>
        <time>2019-06-21T11:04:31Z</time>
      </trkpt>
      <trkpt lat="43.312796" lon="-8.573672">
        <ele>62.245</ele>
        <time>2019-06-21T11:04:32Z</time>
      </trkpt>
      <trkpt lat="43.312751" lon="-8.573830">
        <ele>63.467</ele>
        <time>2019-06-21T11:04:33Z</time>
      </trkpt>
      <trkpt lat="43.312708" lon="-8.573998">
        <ele>65.069</ele>
        <time>2019-06-21T11:04:34Z</time>
      </trkpt>
      <trkpt lat="43.312662" lon="-8.574175">
        <ele>66.976</ele>
        <time>2019-06-21T11:04:35Z</time>
      </trkpt>
      <trkpt lat="43.312620" lon="-8.574357">
        <ele>70.092</ele>
        <time>2019-06-21T11:04:36Z</time>
      </trkpt>
      <trkpt lat="43.312587" lon="-8.574537">
        <ele>72.586</ele>
        <time>2019-06-21T11:04:37Z</time>
      </trkpt>
      <trkpt lat="43.312540" lon="-8.574694">
        <ele>73.648</ele>
        <time>2019-06-21T11:04:38Z</time>
      </trkpt>
      <trkpt lat="43.312514" lon="-8.574861">
        <ele>73.481</ele>
        <time>2019-06-21T11:04:39Z</time>
      </trkpt>
      <trkpt lat="43.312484" lon="-8.575026">
        <ele>72.661</ele>
        <time>2019-06-21T11:04:40Z</time>
      </trkpt>
      <trkpt lat="43.312457" lon="-8.575178">
        <ele>72.417</ele>
        <time>2019-06-21T11:04:41Z</time>
      </trkpt>
      <trkpt lat="43.312443" lon="-8.575321">
        <ele>72.708</ele>
        <time>2019-06-21T11:04:42Z</time>
      </trkpt>
      <trkpt lat="43.312435" lon="-8.575466">
        <ele>73.541</ele>
        <time>2019-06-21T11:04:43Z</time>
      </trkpt>
      <trkpt lat="43.312419" lon="-8.575608">
        <ele>73.765</ele>
        <time>2019-06-21T11:04:44Z</time>
      </trkpt>
      <trkpt lat="43.312404" lon="-8.575720">
        <ele>73.297</ele>
        <time>2019-06-21T11:04:45Z</time>
      </trkpt>
      <trkpt lat="43.312385" lon="-8.575820">
        <ele>72.759</ele>
        <time>2019-06-21T11:04:46Z</time>
      </trkpt>
      <trkpt lat="43.312368" lon="-8.575911">
        <ele>72.366</ele>
        <time>2019-06-21T11:04:47Z</time>
      </trkpt>
      <trkpt lat="43.312371" lon="-8.576008">
        <ele>72.582</ele>
        <time>2019-06-21T11:04:49Z</time>
      </trkpt>
      <trkpt lat="43.312430" lon="-8.576043">
        <ele>73.876</ele>
        <time>2019-06-21T11:04:51Z</time>
      </trkpt>
      <trkpt lat="43.312492" lon="-8.576015">
        <ele>75.258</ele>
        <time>2019-06-21T11:04:53Z</time>
      </trkpt>
      <trkpt lat="43.312547" lon="-8.575960">
        <ele>76.729</ele>
        <time>2019-06-21T11:04:54Z</time>
      </trkpt>
      <trkpt lat="43.312591" lon="-8.575910">
        <ele>77.900</ele>
        <time>2019-06-21T11:04:55Z</time>
      </trkpt>
      <trkpt lat="43.312643" lon="-8.575855">
        <ele>79.520</ele>
        <time>2019-06-21T11:04:56Z</time>
      </trkpt>
      <trkpt lat="43.312711" lon="-8.575848">
        <ele>81.208</ele>
        <time>2019-06-21T11:04:57Z</time>
      </trkpt>
      <trkpt lat="43.312770" lon="-8.575833">
        <ele>82.885</ele>
        <time>2019-06-21T11:04:58Z</time>
      </trkpt>
      <trkpt lat="43.312820" lon="-8.575838">
        <ele>83.779</ele>
        <time>2019-06-21T11:04:59Z</time>
      </trkpt>
      <trkpt lat="43.312855" lon="-8.575888">
        <ele>84.031</ele>
        <time>2019-06-21T11:05:00Z</time>
      </trkpt>
      <trkpt lat="43.312886" lon="-8.575957">
        <ele>84.123</ele>
        <time>2019-06-21T11:05:01Z</time>
      </trkpt>
      <trkpt lat="43.312911" lon="-8.576042">
        <ele>83.970</ele>
        <time>2019-06-21T11:05:02Z</time>
      </trkpt>
      <trkpt lat="43.312934" lon="-8.576132">
        <ele>83.796</ele>
        <time>2019-06-21T11:05:03Z</time>
      </trkpt>
      <trkpt lat="43.312958" lon="-8.576231">
        <ele>83.330</ele>
        <time>2019-06-21T11:05:04Z</time>
      </trkpt>
      <trkpt lat="43.312982" lon="-8.576319">
        <ele>82.852</ele>
        <time>2019-06-21T11:05:05Z</time>
      </trkpt>
      <trkpt lat="43.313002" lon="-8.576404">
        <ele>82.469</ele>
        <time>2019-06-21T11:05:06Z</time>
      </trkpt>
      <trkpt lat="43.312991" lon="-8.576507">
        <ele>81.904</ele>
        <time>2019-06-21T11:05:07Z</time>
      </trkpt>
      <trkpt lat="43.312971" lon="-8.576616">
        <ele>81.324</ele>
        <time>2019-06-21T11:05:08Z</time>
      </trkpt>
      <trkpt lat="43.312942" lon="-8.576742">
        <ele>80.308</ele>
        <time>2019-06-21T11:05:09Z</time>
      </trkpt>
      <trkpt lat="43.312911" lon="-8.576878">
        <ele>79.399</ele>
        <time>2019-06-21T11:05:10Z</time>
      </trkpt>
      <trkpt lat="43.312872" lon="-8.577009">
        <ele>78.683</ele>
        <time>2019-06-21T11:05:11Z</time>
      </trkpt>
      <trkpt lat="43.312843" lon="-8.577125">
        <ele>78.385</ele>
        <time>2019-06-21T11:05:12Z</time>
      </trkpt>
      <trkpt lat="43.312817" lon="-8.577242">
        <ele>78.247</ele>
        <time>2019-06-21T11:05:13Z</time>
      </trkpt>
      <trkpt lat="43.312792" lon="-8.577353">
        <ele>78.554</ele>
        <time>2019-06-21T11:05:14Z</time>
      </trkpt>
      <trkpt lat="43.312766" lon="-8.577465">
        <ele>78.860</ele>
        <time>2019-06-21T11:05:15Z</time>
      </trkpt>
      <trkpt lat="43.312724" lon="-8.577559">
        <ele>79.154</ele>
        <time>2019-06-21T11:05:16Z</time>
      </trkpt>
      <trkpt lat="43.312690" lon="-8.577660">
        <ele>79.756</ele>
        <time>2019-06-21T11:05:17Z</time>
      </trkpt>
      <trkpt lat="43.312651" lon="-8.577745">
        <ele>80.371</ele>
        <time>2019-06-21T11:05:18Z</time>
      </trkpt>
      <trkpt lat="43.312608" lon="-8.577786">
        <ele>80.541</ele>
        <time>2019-06-21T11:05:19Z</time>
      </trkpt>
      <trkpt lat="43.312555" lon="-8.577843">
        <ele>81.115</ele>
        <time>2019-06-21T11:05:20Z</time>
      </trkpt>
      <trkpt lat="43.312482" lon="-8.577852">
        <ele>80.908</ele>
        <time>2019-06-21T11:05:21Z</time>
      </trkpt>
      <trkpt lat="43.312411" lon="-8.577870">
        <ele>80.550</ele>
        <time>2019-06-21T11:05:22Z</time>
      </trkpt>
      <trkpt lat="43.312343" lon="-8.577865">
        <ele>79.714</ele>
        <time>2019-06-21T11:05:23Z</time>
      </trkpt>
      <trkpt lat="43.312272" lon="-8.577902">
        <ele>79.776</ele>
        <time>2019-06-21T11:05:24Z</time>
      </trkpt>
      <trkpt lat="43.312200" lon="-8.577952">
        <ele>79.948</ele>
        <time>2019-06-21T11:05:25Z</time>
      </trkpt>
      <trkpt lat="43.312122" lon="-8.578013">
        <ele>80.245</ele>
        <time>2019-06-21T11:05:26Z</time>
      </trkpt>
      <trkpt lat="43.312060" lon="-8.578106">
        <ele>81.111</ele>
        <time>2019-06-21T11:05:27Z</time>
      </trkpt>
      <trkpt lat="43.311992" lon="-8.578202">
        <ele>82.165</ele>
        <time>2019-06-21T11:05:28Z</time>
      </trkpt>
      <trkpt lat="43.311925" lon="-8.578299">
        <ele>83.027</ele>
        <time>2019-06-21T11:05:29Z</time>
      </trkpt>
      <trkpt lat="43.311860" lon="-8.578411">
        <ele>82.789</ele>
        <time>2019-06-21T11:05:30Z</time>
      </trkpt>
      <trkpt lat="43.311796" lon="-8.578514">
        <ele>82.106</ele>
        <time>2019-06-21T11:05:31Z</time>
      </trkpt>
      <trkpt lat="43.311744" lon="-8.578615">
        <ele>81.726</ele>
        <time>2019-06-21T11:05:32Z</time>
      </trkpt>
      <trkpt lat="43.311710" lon="-8.578713">
        <ele>81.708</ele>
        <time>2019-06-21T11:05:33Z</time>
      </trkpt>
      <trkpt lat="43.311696" lon="-8.578801">
        <ele>82.111</ele>
        <time>2019-06-21T11:05:34Z</time>
      </trkpt>
      <trkpt lat="43.311685" lon="-8.578881">
        <ele>82.415</ele>
        <time>2019-06-21T11:05:35Z</time>
      </trkpt>
      <trkpt lat="43.311691" lon="-8.578987">
        <ele>83.697</ele>
        <time>2019-06-21T11:05:36Z</time>
      </trkpt>
      <trkpt lat="43.311701" lon="-8.579101">
        <ele>85.129</ele>
        <time>2019-06-21T11:05:37Z</time>
      </trkpt>
      <trkpt lat="43.311706" lon="-8.579214">
        <ele>86.716</ele>
        <time>2019-06-21T11:05:38Z</time>
      </trkpt>
      <trkpt lat="43.311688" lon="-8.579331">
        <ele>88.422</ele>
        <time>2019-06-21T11:05:39Z</time>
      </trkpt>
      <trkpt lat="43.311665" lon="-8.579448">
        <ele>90.036</ele>
        <time>2019-06-21T11:05:40Z</time>
      </trkpt>
      <trkpt lat="43.311605" lon="-8.579558">
        <ele>90.818</ele>
        <time>2019-06-21T11:05:41Z</time>
      </trkpt>
      <trkpt lat="43.311532" lon="-8.579660">
        <ele>91.381</ele>
        <time>2019-06-21T11:05:42Z</time>
      </trkpt>
      <trkpt lat="43.311471" lon="-8.579781">
        <ele>92.561</ele>
        <time>2019-06-21T11:05:43Z</time>
      </trkpt>
      <trkpt lat="43.311402" lon="-8.579902">
        <ele>93.517</ele>
        <time>2019-06-21T11:05:44Z</time>
      </trkpt>
      <trkpt lat="43.311329" lon="-8.580037">
        <ele>94.408</ele>
        <time>2019-06-21T11:05:45Z</time>
      </trkpt>
      <trkpt lat="43.311259" lon="-8.580166">
        <ele>94.861</ele>
        <time>2019-06-21T11:05:46Z</time>
      </trkpt>
      <trkpt lat="43.311184" lon="-8.580295">
        <ele>94.985</ele>
        <time>2019-06-21T11:05:47Z</time>
      </trkpt>
      <trkpt lat="43.311109" lon="-8.580422">
        <ele>96.117</ele>
        <time>2019-06-21T11:05:48Z</time>
      </trkpt>
      <trkpt lat="43.311042" lon="-8.580544">
        <ele>97.589</ele>
        <time>2019-06-21T11:05:49Z</time>
      </trkpt>
      <trkpt lat="43.310973" lon="-8.580646">
        <ele>98.816</ele>
        <time>2019-06-21T11:05:50Z</time>
      </trkpt>
      <trkpt lat="43.310919" lon="-8.580754">
        <ele>100.562</ele>
        <time>2019-06-21T11:05:51Z</time>
      </trkpt>
      <trkpt lat="43.310875" lon="-8.580853">
        <ele>102.046</ele>
        <time>2019-06-21T11:05:52Z</time>
      </trkpt>
      <trkpt lat="43.310831" lon="-8.580958">
        <ele>102.368</ele>
        <time>2019-06-21T11:05:53Z</time>
      </trkpt>
      <trkpt lat="43.310784" lon="-8.581067">
        <ele>102.151</ele>
        <time>2019-06-21T11:05:54Z</time>
      </trkpt>
      <trkpt lat="43.310741" lon="-8.581181">
        <ele>101.601</ele>
        <time>2019-06-21T11:05:55Z</time>
      </trkpt>
      <trkpt lat="43.310729" lon="-8.581307">
        <ele>101.711</ele>
        <time>2019-06-21T11:05:56Z</time>
      </trkpt>
      <trkpt lat="43.310700" lon="-8.581426">
        <ele>101.408</ele>
        <time>2019-06-21T11:05:57Z</time>
      </trkpt>
      <trkpt lat="43.310688" lon="-8.581552">
        <ele>102.098</ele>
        <time>2019-06-21T11:05:58Z</time>
      </trkpt>
      <trkpt lat="43.310674" lon="-8.581686">
        <ele>102.662</ele>
        <time>2019-06-21T11:05:59Z</time>
      </trkpt>
      <trkpt lat="43.310660" lon="-8.581816">
        <ele>103.644</ele>
        <time>2019-06-21T11:06:00Z</time>
      </trkpt>
      <trkpt lat="43.310638" lon="-8.581957">
        <ele>104.696</ele>
        <time>2019-06-21T11:06:01Z</time>
      </trkpt>
      <trkpt lat="43.310623" lon="-8.582093">
        <ele>106.183</ele>
        <time>2019-06-21T11:06:02Z</time>
      </trkpt>
      <trkpt lat="43.310613" lon="-8.582242">
        <ele>107.849</ele>
        <time>2019-06-21T11:06:03Z</time>
      </trkpt>
      <trkpt lat="43.310588" lon="-8.582380">
        <ele>107.753</ele>
        <time>2019-06-21T11:06:04Z</time>
      </trkpt>
      <trkpt lat="43.310577" lon="-8.582530">
        <ele>108.115</ele>
        <time>2019-06-21T11:06:05Z</time>
      </trkpt>
      <trkpt lat="43.310564" lon="-8.582678">
        <ele>108.642</ele>
        <time>2019-06-21T11:06:06Z</time>
      </trkpt>
      <trkpt lat="43.310549" lon="-8.582818">
        <ele>108.722</ele>
        <time>2019-06-21T11:06:07Z</time>
      </trkpt>
      <trkpt lat="43.310527" lon="-8.582963">
        <ele>107.714</ele>
        <time>2019-06-21T11:06:08Z</time>
      </trkpt>
      <trkpt lat="43.310507" lon="-8.583104">
        <ele>107.608</ele>
        <time>2019-06-21T11:06:09Z</time>
      </trkpt>
      <trkpt lat="43.310488" lon="-8.583233">
        <ele>108.537</ele>
        <time>2019-06-21T11:06:10Z</time>
      </trkpt>
      <trkpt lat="43.310468" lon="-8.583365">
        <ele>109.471</ele>
        <time>2019-06-21T11:06:11Z</time>
      </trkpt>
      <trkpt lat="43.310452" lon="-8.583492">
        <ele>110.573</ele>
        <time>2019-06-21T11:06:12Z</time>
      </trkpt>
      <trkpt lat="43.310441" lon="-8.583610">
        <ele>111.825</ele>
        <time>2019-06-21T11:06:13Z</time>
      </trkpt>
      <trkpt lat="43.310429" lon="-8.583725">
        <ele>114.062</ele>
        <time>2019-06-21T11:06:14Z</time>
      </trkpt>
      <trkpt lat="43.310424" lon="-8.583838">
        <ele>116.468</ele>
        <time>2019-06-21T11:06:15Z</time>
      </trkpt>
      <trkpt lat="43.310440" lon="-8.583919">
        <ele>118.062</ele>
        <time>2019-06-21T11:06:16Z</time>
      </trkpt>
      <trkpt lat="43.310468" lon="-8.584017">
        <ele>119.754</ele>
        <time>2019-06-21T11:06:17Z</time>
      </trkpt>
      <trkpt lat="43.310516" lon="-8.584115">
        <ele>120.924</ele>
        <time>2019-06-21T11:06:18Z</time>
      </trkpt>
      <trkpt lat="43.310582" lon="-8.584209">
        <ele>121.204</ele>
        <time>2019-06-21T11:06:19Z</time>
      </trkpt>
      <trkpt lat="43.310653" lon="-8.584288">
        <ele>121.214</ele>
        <time>2019-06-21T11:06:20Z</time>
      </trkpt>
      <trkpt lat="43.310735" lon="-8.584361">
        <ele>120.808</ele>
        <time>2019-06-21T11:06:21Z</time>
      </trkpt>
      <trkpt lat="43.310814" lon="-8.584436">
        <ele>120.375</ele>
        <time>2019-06-21T11:06:22Z</time>
      </trkpt>
      <trkpt lat="43.310875" lon="-8.584507">
        <ele>120.099</ele>
        <time>2019-06-21T11:06:23Z</time>
      </trkpt>
      <trkpt lat="43.310942" lon="-8.584582">
        <ele>119.971</ele>
        <time>2019-06-21T11:06:24Z</time>
      </trkpt>
      <trkpt lat="43.310997" lon="-8.584671">
        <ele>119.783</ele>
        <time>2019-06-21T11:06:25Z</time>
      </trkpt>
      <trkpt lat="43.311039" lon="-8.584777">
        <ele>119.810</ele>
        <time>2019-06-21T11:06:26Z</time>
      </trkpt>
      <trkpt lat="43.311072" lon="-8.584901">
        <ele>120.066</ele>
        <time>2019-06-21T11:06:27Z</time>
      </trkpt>
      <trkpt lat="43.311090" lon="-8.585034">
        <ele>120.520</ele>
        <time>2019-06-21T11:06:28Z</time>
      </trkpt>
      <trkpt lat="43.311105" lon="-8.585172">
        <ele>121.382</ele>
        <time>2019-06-21T11:06:29Z</time>
      </trkpt>
      <trkpt lat="43.311079" lon="-8.585295">
        <ele>122.342</ele>
        <time>2019-06-21T11:06:30Z</time>
      </trkpt>
      <trkpt lat="43.311060" lon="-8.585422">
        <ele>123.022</ele>
        <time>2019-06-21T11:06:31Z</time>
      </trkpt>
      <trkpt lat="43.311006" lon="-8.585540">
        <ele>124.114</ele>
        <time>2019-06-21T11:06:32Z</time>
      </trkpt>
      <trkpt lat="43.310959" lon="-8.585665">
        <ele>124.608</ele>
        <time>2019-06-21T11:06:33Z</time>
      </trkpt>
      <trkpt lat="43.310917" lon="-8.585756">
        <ele>125.127</ele>
        <time>2019-06-21T11:06:34Z</time>
      </trkpt>
      <trkpt lat="43.310864" lon="-8.585852">
        <ele>125.791</ele>
        <time>2019-06-21T11:06:35Z</time>
      </trkpt>
      <trkpt lat="43.310809" lon="-8.585917">
        <ele>126.283</ele>
        <time>2019-06-21T11:06:36Z</time>
      </trkpt>
      <trkpt lat="43.310754" lon="-8.585957">
        <ele>126.725</ele>
        <time>2019-06-21T11:06:37Z</time>
      </trkpt>
      <trkpt lat="43.310694" lon="-8.585981">
        <ele>127.262</ele>
        <time>2019-06-21T11:06:38Z</time>
      </trkpt>
      <trkpt lat="43.310627" lon="-8.585986">
        <ele>127.828</ele>
        <time>2019-06-21T11:06:39Z</time>
      </trkpt>
      <trkpt lat="43.310562" lon="-8.585992">
        <ele>128.492</ele>
        <time>2019-06-21T11:06:40Z</time>
      </trkpt>
      <trkpt lat="43.310471" lon="-8.585949">
        <ele>129.444</ele>
        <time>2019-06-21T11:06:41Z</time>
      </trkpt>
      <trkpt lat="43.310380" lon="-8.585944">
        <ele>130.225</ele>
        <time>2019-06-21T11:06:42Z</time>
      </trkpt>
      <trkpt lat="43.310298" lon="-8.585946">
        <ele>131.026</ele>
        <time>2019-06-21T11:06:43Z</time>
      </trkpt>
      <trkpt lat="43.310214" lon="-8.585991">
        <ele>131.208</ele>
        <time>2019-06-21T11:06:44Z</time>
      </trkpt>
      <trkpt lat="43.310125" lon="-8.586046">
        <ele>131.108</ele>
        <time>2019-06-21T11:06:45Z</time>
      </trkpt>
      <trkpt lat="43.310035" lon="-8.586109">
        <ele>130.995</ele>
        <time>2019-06-21T11:06:46Z</time>
      </trkpt>
      <trkpt lat="43.309969" lon="-8.586177">
        <ele>130.599</ele>
        <time>2019-06-21T11:06:47Z</time>
      </trkpt>
      <trkpt lat="43.309894" lon="-8.586239">
        <ele>130.421</ele>
        <time>2019-06-21T11:06:48Z</time>
      </trkpt>
      <trkpt lat="43.309831" lon="-8.586314">
        <ele>130.373</ele>
        <time>2019-06-21T11:06:49Z</time>
      </trkpt>
      <trkpt lat="43.309781" lon="-8.586364">
        <ele>130.590</ele>
        <time>2019-06-21T11:06:50Z</time>
      </trkpt>
      <trkpt lat="43.309742" lon="-8.586420">
        <ele>130.776</ele>
        <time>2019-06-21T11:06:51Z</time>
      </trkpt>
      <trkpt lat="43.309708" lon="-8.586470">
        <ele>130.850</ele>
        <time>2019-06-21T11:06:52Z</time>
      </trkpt>
      <trkpt lat="43.309664" lon="-8.586528">
        <ele>130.942</ele>
        <time>2019-06-21T11:06:54Z</time>
      </trkpt>
      <trkpt lat="43.309619" lon="-8.586568">
        <ele>131.258</ele>
        <time>2019-06-21T11:07:08Z</time>
      </trkpt>
      <trkpt lat="43.309569" lon="-8.586625">
        <ele>131.652</ele>
        <time>2019-06-21T11:07:23Z</time>
      </trkpt>
      <trkpt lat="43.309521" lon="-8.586698">
        <ele>132.517</ele>
        <time>2019-06-21T11:07:24Z</time>
      </trkpt>
      <trkpt lat="43.309460" lon="-8.586771">
        <ele>133.908</ele>
        <time>2019-06-21T11:07:25Z</time>
      </trkpt>
      <trkpt lat="43.309400" lon="-8.586849">
        <ele>135.518</ele>
        <time>2019-06-21T11:07:26Z</time>
      </trkpt>
      <trkpt lat="43.309327" lon="-8.586979">
        <ele>138.342</ele>
        <time>2019-06-21T11:07:27Z</time>
      </trkpt>
      <trkpt lat="43.309244" lon="-8.587085">
        <ele>141.454</ele>
        <time>2019-06-21T11:07:28Z</time>
      </trkpt>
      <trkpt lat="43.309165" lon="-8.587185">
        <ele>144.386</ele>
        <time>2019-06-21T11:07:29Z</time>
      </trkpt>
      <trkpt lat="43.309095" lon="-8.587277">
        <ele>146.613</ele>
        <time>2019-06-21T11:07:30Z</time>
      </trkpt>
      <trkpt lat="43.309023" lon="-8.587372">
        <ele>148.759</ele>
        <time>2019-06-21T11:07:31Z</time>
      </trkpt>
      <trkpt lat="43.308923" lon="-8.587442">
        <ele>150.843</ele>
        <time>2019-06-21T11:07:32Z</time>
      </trkpt>
      <trkpt lat="43.308824" lon="-8.587509">
        <ele>152.835</ele>
        <time>2019-06-21T11:07:33Z</time>
      </trkpt>
      <trkpt lat="43.308731" lon="-8.587565">
        <ele>154.583</ele>
        <time>2019-06-21T11:07:34Z</time>
      </trkpt>
      <trkpt lat="43.308638" lon="-8.587611">
        <ele>155.925</ele>
        <time>2019-06-21T11:07:35Z</time>
      </trkpt>
      <trkpt lat="43.308535" lon="-8.587664">
        <ele>157.017</ele>
        <time>2019-06-21T11:07:36Z</time>
      </trkpt>
      <trkpt lat="43.308456" lon="-8.587738">
        <ele>158.108</ele>
        <time>2019-06-21T11:07:37Z</time>
      </trkpt>
      <trkpt lat="43.308383" lon="-8.587817">
        <ele>159.131</ele>
        <time>2019-06-21T11:07:38Z</time>
      </trkpt>
      <trkpt lat="43.308322" lon="-8.587925">
        <ele>160.125</ele>
        <time>2019-06-21T11:07:39Z</time>
      </trkpt>
      <trkpt lat="43.308267" lon="-8.588042">
        <ele>161.157</ele>
        <time>2019-06-21T11:07:40Z</time>
      </trkpt>
      <trkpt lat="43.308232" lon="-8.588157">
        <ele>161.089</ele>
        <time>2019-06-21T11:07:41Z</time>
      </trkpt>
      <trkpt lat="43.308198" lon="-8.588278">
        <ele>160.796</ele>
        <time>2019-06-21T11:07:42Z</time>
      </trkpt>
      <trkpt lat="43.308188" lon="-8.588368">
        <ele>160.452</ele>
        <time>2019-06-21T11:07:43Z</time>
      </trkpt>
      <trkpt lat="43.308190" lon="-8.588452">
        <ele>160.196</ele>
        <time>2019-06-21T11:07:44Z</time>
      </trkpt>
      <trkpt lat="43.308199" lon="-8.588523">
        <ele>159.898</ele>
        <time>2019-06-21T11:07:45Z</time>
      </trkpt>
      <trkpt lat="43.308223" lon="-8.588587">
        <ele>159.528</ele>
        <time>2019-06-21T11:07:46Z</time>
      </trkpt>
      <trkpt lat="43.308318" lon="-8.588606">
        <ele>159.189</ele>
        <time>2019-06-21T11:07:48Z</time>
      </trkpt>
      <trkpt lat="43.308392" lon="-8.588605">
        <ele>158.617</ele>
        <time>2019-06-21T11:07:49Z</time>
      </trkpt>
      <trkpt lat="43.308467" lon="-8.588605">
        <ele>158.108</ele>
        <time>2019-06-21T11:07:50Z</time>
      </trkpt>
      <trkpt lat="43.308552" lon="-8.588618">
        <ele>157.425</ele>
        <time>2019-06-21T11:07:51Z</time>
      </trkpt>
      <trkpt lat="43.308641" lon="-8.588641">
        <ele>156.689</ele>
        <time>2019-06-21T11:07:52Z</time>
      </trkpt>
      <trkpt lat="43.308725" lon="-8.588688">
        <ele>155.521</ele>
        <time>2019-06-21T11:07:53Z</time>
      </trkpt>
      <trkpt lat="43.308802" lon="-8.588733">
        <ele>154.553</ele>
        <time>2019-06-21T11:07:54Z</time>
      </trkpt>
      <trkpt lat="43.308865" lon="-8.588830">
        <ele>153.520</ele>
        <time>2019-06-21T11:07:55Z</time>
      </trkpt>
      <trkpt lat="43.308906" lon="-8.588939">
        <ele>152.736</ele>
        <time>2019-06-21T11:07:56Z</time>
      </trkpt>
      <trkpt lat="43.308951" lon="-8.589075">
        <ele>151.790</ele>
        <time>2019-06-21T11:07:57Z</time>
      </trkpt>
      <trkpt lat="43.308993" lon="-8.589215">
        <ele>150.952</ele>
        <time>2019-06-21T11:07:58Z</time>
      </trkpt>
      <trkpt lat="43.309034" lon="-8.589363">
        <ele>150.028</ele>
        <time>2019-06-21T11:07:59Z</time>
      </trkpt>
      <trkpt lat="43.309066" lon="-8.589520">
        <ele>149.089</ele>
        <time>2019-06-21T11:08:00Z</time>
      </trkpt>
      <trkpt lat="43.309096" lon="-8.589699">
        <ele>147.817</ele>
        <time>2019-06-21T11:08:01Z</time>
      </trkpt>
      <trkpt lat="43.309126" lon="-8.589877">
        <ele>146.108</ele>
        <time>2019-06-21T11:08:02Z</time>
      </trkpt>
      <trkpt lat="43.309155" lon="-8.590061">
        <ele>143.925</ele>
        <time>2019-06-21T11:08:03Z</time>
      </trkpt>
      <trkpt lat="43.309181" lon="-8.590246">
        <ele>141.859</ele>
        <time>2019-06-21T11:08:04Z</time>
      </trkpt>
      <trkpt lat="43.309197" lon="-8.590426">
        <ele>138.971</ele>
        <time>2019-06-21T11:08:05Z</time>
      </trkpt>
      <trkpt lat="43.309206" lon="-8.590589">
        <ele>136.343</ele>
        <time>2019-06-21T11:08:06Z</time>
      </trkpt>
      <trkpt lat="43.309188" lon="-8.590754">
        <ele>134.510</ele>
        <time>2019-06-21T11:08:07Z</time>
      </trkpt>
      <trkpt lat="43.309148" lon="-8.590904">
        <ele>133.976</ele>
        <time>2019-06-21T11:08:08Z</time>
      </trkpt>
      <trkpt lat="43.309088" lon="-8.591040">
        <ele>134.840</ele>
        <time>2019-06-21T11:08:09Z</time>
      </trkpt>
      <trkpt lat="43.309010" lon="-8.591172">
        <ele>136.542</ele>
        <time>2019-06-21T11:08:10Z</time>
      </trkpt>
      <trkpt lat="43.308924" lon="-8.591297">
        <ele>138.174</ele>
        <time>2019-06-21T11:08:11Z</time>
      </trkpt>
      <trkpt lat="43.308847" lon="-8.591423">
        <ele>138.256</ele>
        <time>2019-06-21T11:08:12Z</time>
      </trkpt>
      <trkpt lat="43.308780" lon="-8.591544">
        <ele>137.521</ele>
        <time>2019-06-21T11:08:13Z</time>
      </trkpt>
      <trkpt lat="43.308748" lon="-8.591688">
        <ele>136.008</ele>
        <time>2019-06-21T11:08:14Z</time>
      </trkpt>
      <trkpt lat="43.308733" lon="-8.591842">
        <ele>135.860</ele>
        <time>2019-06-21T11:08:15Z</time>
      </trkpt>
      <trkpt lat="43.308744" lon="-8.591995">
        <ele>135.174</ele>
        <time>2019-06-21T11:08:16Z</time>
      </trkpt>
      <trkpt lat="43.308779" lon="-8.592146">
        <ele>133.766</ele>
        <time>2019-06-21T11:08:17Z</time>
      </trkpt>
      <trkpt lat="43.308835" lon="-8.592289">
        <ele>131.978</ele>
        <time>2019-06-21T11:08:18Z</time>
      </trkpt>
      <trkpt lat="43.308916" lon="-8.592424">
        <ele>129.275</ele>
        <time>2019-06-21T11:08:19Z</time>
      </trkpt>
      <trkpt lat="43.309010" lon="-8.592561">
        <ele>126.631</ele>
        <time>2019-06-21T11:08:20Z</time>
      </trkpt>
      <trkpt lat="43.309116" lon="-8.592694">
        <ele>124.015</ele>
        <time>2019-06-21T11:08:21Z</time>
      </trkpt>
      <trkpt lat="43.309228" lon="-8.592835">
        <ele>122.857</ele>
        <time>2019-06-21T11:08:22Z</time>
      </trkpt>
      <trkpt lat="43.309336" lon="-8.592984">
        <ele>122.738</ele>
        <time>2019-06-21T11:08:23Z</time>
      </trkpt>
      <trkpt lat="43.309447" lon="-8.593127">
        <ele>122.570</ele>
        <time>2019-06-21T11:08:24Z</time>
      </trkpt>
      <trkpt lat="43.309561" lon="-8.593280">
        <ele>121.917</ele>
        <time>2019-06-21T11:08:25Z</time>
      </trkpt>
      <trkpt lat="43.309675" lon="-8.593421">
        <ele>121.308</ele>
        <time>2019-06-21T11:08:26Z</time>
      </trkpt>
      <trkpt lat="43.309790" lon="-8.593535">
        <ele>119.846</ele>
        <time>2019-06-21T11:08:27Z</time>
      </trkpt>
      <trkpt lat="43.309912" lon="-8.593645">
        <ele>117.860</ele>
        <time>2019-06-21T11:08:28Z</time>
      </trkpt>
      <trkpt lat="43.310033" lon="-8.593746">
        <ele>116.872</ele>
        <time>2019-06-21T11:08:29Z</time>
      </trkpt>
      <trkpt lat="43.310149" lon="-8.593855">
        <ele>116.234</ele>
        <time>2019-06-21T11:08:30Z</time>
      </trkpt>
      <trkpt lat="43.310273" lon="-8.593914">
        <ele>114.611</ele>
        <time>2019-06-21T11:08:31Z</time>
      </trkpt>
      <trkpt lat="43.310403" lon="-8.593959">
        <ele>113.817</ele>
        <time>2019-06-21T11:08:32Z</time>
      </trkpt>
      <trkpt lat="43.310536" lon="-8.593959">
        <ele>112.261</ele>
        <time>2019-06-21T11:08:33Z</time>
      </trkpt>
      <trkpt lat="43.310665" lon="-8.593947">
        <ele>110.323</ele>
        <time>2019-06-21T11:08:34Z</time>
      </trkpt>
      <trkpt lat="43.310788" lon="-8.593920">
        <ele>108.134</ele>
        <time>2019-06-21T11:08:35Z</time>
      </trkpt>
      <trkpt lat="43.310911" lon="-8.593918">
        <ele>106.855</ele>
        <time>2019-06-21T11:08:36Z</time>
      </trkpt>
      <trkpt lat="43.311007" lon="-8.593928">
        <ele>106.110</ele>
        <time>2019-06-21T11:08:37Z</time>
      </trkpt>
      <trkpt lat="43.311102" lon="-8.593990">
        <ele>105.808</ele>
        <time>2019-06-21T11:08:38Z</time>
      </trkpt>
      <trkpt lat="43.311174" lon="-8.594084">
        <ele>105.786</ele>
        <time>2019-06-21T11:08:39Z</time>
      </trkpt>
      <trkpt lat="43.311231" lon="-8.594205">
        <ele>106.130</ele>
        <time>2019-06-21T11:08:40Z</time>
      </trkpt>
      <trkpt lat="43.311289" lon="-8.594341">
        <ele>107.032</ele>
        <time>2019-06-21T11:08:41Z</time>
      </trkpt>
      <trkpt lat="43.311355" lon="-8.594490">
        <ele>107.844</ele>
        <time>2019-06-21T11:08:42Z</time>
      </trkpt>
      <trkpt lat="43.311445" lon="-8.594639">
        <ele>108.551</ele>
        <time>2019-06-21T11:08:43Z</time>
      </trkpt>
      <trkpt lat="43.311540" lon="-8.594770">
        <ele>108.867</ele>
        <time>2019-06-21T11:08:44Z</time>
      </trkpt>
      <trkpt lat="43.311639" lon="-8.594877">
        <ele>108.941</ele>
        <time>2019-06-21T11:08:45Z</time>
      </trkpt>
      <trkpt lat="43.311742" lon="-8.594966">
        <ele>109.433</ele>
        <time>2019-06-21T11:08:46Z</time>
      </trkpt>
      <trkpt lat="43.311844" lon="-8.595034">
        <ele>109.879</ele>
        <time>2019-06-21T11:08:47Z</time>
      </trkpt>
      <trkpt lat="43.311952" lon="-8.595084">
        <ele>109.905</ele>
        <time>2019-06-21T11:08:48Z</time>
      </trkpt>
      <trkpt lat="43.312041" lon="-8.595090">
        <ele>110.225</ele>
        <time>2019-06-21T11:08:49Z</time>
      </trkpt>
      <trkpt lat="43.312125" lon="-8.595067">
        <ele>110.208</ele>
        <time>2019-06-21T11:08:50Z</time>
      </trkpt>
      <trkpt lat="43.312202" lon="-8.594968">
        <ele>109.710</ele>
        <time>2019-06-21T11:08:51Z</time>
      </trkpt>
      <trkpt lat="43.312310" lon="-8.594899">
        <ele>109.994</ele>
        <time>2019-06-21T11:08:52Z</time>
      </trkpt>
      <trkpt lat="43.312412" lon="-8.594817">
        <ele>110.096</ele>
        <time>2019-06-21T11:08:53Z</time>
      </trkpt>
      <trkpt lat="43.312530" lon="-8.594734">
        <ele>110.188</ele>
        <time>2019-06-21T11:08:54Z</time>
      </trkpt>
      <trkpt lat="43.312646" lon="-8.594685">
        <ele>109.735</ele>
        <time>2019-06-21T11:08:55Z</time>
      </trkpt>
      <trkpt lat="43.312767" lon="-8.594634">
        <ele>109.411</ele>
        <time>2019-06-21T11:08:56Z</time>
      </trkpt>
      <trkpt lat="43.312868" lon="-8.594579">
        <ele>108.515</ele>
        <time>2019-06-21T11:08:57Z</time>
      </trkpt>
      <trkpt lat="43.312984" lon="-8.594525">
        <ele>107.677</ele>
        <time>2019-06-21T11:08:58Z</time>
      </trkpt>
      <trkpt lat="43.313090" lon="-8.594472">
        <ele>106.839</ele>
        <time>2019-06-21T11:08:59Z</time>
      </trkpt>
      <trkpt lat="43.313197" lon="-8.594444">
        <ele>106.001</ele>
        <time>2019-06-21T11:09:00Z</time>
      </trkpt>
      <trkpt lat="43.313287" lon="-8.594424">
        <ele>105.321</ele>
        <time>2019-06-21T11:09:01Z</time>
      </trkpt>
      <trkpt lat="43.313373" lon="-8.594441">
        <ele>104.808</ele>
        <time>2019-06-21T11:09:02Z</time>
      </trkpt>
      <trkpt lat="43.313457" lon="-8.594502">
        <ele>104.686</ele>
        <time>2019-06-21T11:09:03Z</time>
      </trkpt>
      <trkpt lat="43.313534" lon="-8.594589">
        <ele>104.380</ele>
        <time>2019-06-21T11:09:04Z</time>
      </trkpt>
      <trkpt lat="43.313593" lon="-8.594707">
        <ele>104.112</ele>
        <time>2019-06-21T11:09:05Z</time>
      </trkpt>
      <trkpt lat="43.313665" lon="-8.594836">
        <ele>103.194</ele>
        <time>2019-06-21T11:09:06Z</time>
      </trkpt>
      <trkpt lat="43.313729" lon="-8.594988">
        <ele>101.861</ele>
        <time>2019-06-21T11:09:07Z</time>
      </trkpt>
      <trkpt lat="43.313828" lon="-8.595131">
        <ele>100.177</ele>
        <time>2019-06-21T11:09:08Z</time>
      </trkpt>
      <trkpt lat="43.313935" lon="-8.595246">
        <ele>98.921</ele>
        <time>2019-06-21T11:09:09Z</time>
      </trkpt>
      <trkpt lat="43.314045" lon="-8.595384">
        <ele>98.463</ele>
        <time>2019-06-21T11:09:10Z</time>
      </trkpt>
      <trkpt lat="43.314171" lon="-8.595509">
        <ele>98.055</ele>
        <time>2019-06-21T11:09:11Z</time>
      </trkpt>
      <trkpt lat="43.314311" lon="-8.595598">
        <ele>98.307</ele>
        <time>2019-06-21T11:09:12Z</time>
      </trkpt>
      <trkpt lat="43.314452" lon="-8.595646">
        <ele>98.617</ele>
        <time>2019-06-21T11:09:13Z</time>
      </trkpt>
      <trkpt lat="43.314606" lon="-8.595668">
        <ele>98.708</ele>
        <time>2019-06-21T11:09:14Z</time>
      </trkpt>
      <trkpt lat="43.314757" lon="-8.595668">
        <ele>98.768</ele>
        <time>2019-06-21T11:09:15Z</time>
      </trkpt>
      <trkpt lat="43.314897" lon="-8.595658">
        <ele>99.122</ele>
        <time>2019-06-21T11:09:16Z</time>
      </trkpt>
      <trkpt lat="43.315026" lon="-8.595635">
        <ele>99.354</ele>
        <time>2019-06-21T11:09:17Z</time>
      </trkpt>
      <trkpt lat="43.315146" lon="-8.595583">
        <ele>99.446</ele>
        <time>2019-06-21T11:09:18Z</time>
      </trkpt>
      <trkpt lat="43.315271" lon="-8.595504">
        <ele>99.493</ele>
        <time>2019-06-21T11:09:19Z</time>
      </trkpt>
      <trkpt lat="43.315396" lon="-8.595410">
        <ele>99.139</ele>
        <time>2019-06-21T11:09:20Z</time>
      </trkpt>
      <trkpt lat="43.315511" lon="-8.595327">
        <ele>98.533</ele>
        <time>2019-06-21T11:09:21Z</time>
      </trkpt>
      <trkpt lat="43.315617" lon="-8.595259">
        <ele>97.545</ele>
        <time>2019-06-21T11:09:22Z</time>
      </trkpt>
      <trkpt lat="43.315711" lon="-8.595205">
        <ele>96.569</ele>
        <time>2019-06-21T11:09:23Z</time>
      </trkpt>
      <trkpt lat="43.315793" lon="-8.595186">
        <ele>96.104</ele>
        <time>2019-06-21T11:09:24Z</time>
      </trkpt>
      <trkpt lat="43.315866" lon="-8.595198">
        <ele>96.024</ele>
        <time>2019-06-21T11:09:25Z</time>
      </trkpt>
      <trkpt lat="43.315928" lon="-8.595252">
        <ele>96.408</ele>
        <time>2019-06-21T11:09:26Z</time>
      </trkpt>
      <trkpt lat="43.315964" lon="-8.595331">
        <ele>97.239</ele>
        <time>2019-06-21T11:09:27Z</time>
      </trkpt>
      <trkpt lat="43.316020" lon="-8.595458">
        <ele>98.543</ele>
        <time>2019-06-21T11:09:28Z</time>
      </trkpt>
      <trkpt lat="43.316068" lon="-8.595587">
        <ele>99.545</ele>
        <time>2019-06-21T11:09:29Z</time>
      </trkpt>
      <trkpt lat="43.316129" lon="-8.595702">
        <ele>99.897</ele>
        <time>2019-06-21T11:09:30Z</time>
      </trkpt>
      <trkpt lat="43.316208" lon="-8.595795">
        <ele>99.064</ele>
        <time>2019-06-21T11:09:31Z</time>
      </trkpt>
      <trkpt lat="43.316294" lon="-8.595861">
        <ele>97.820</ele>
        <time>2019-06-21T11:09:32Z</time>
      </trkpt>
      <trkpt lat="43.316390" lon="-8.595910">
        <ele>96.314</ele>
        <time>2019-06-21T11:09:33Z</time>
      </trkpt>
      <trkpt lat="43.316488" lon="-8.595970">
        <ele>95.266</ele>
        <time>2019-06-21T11:09:34Z</time>
      </trkpt>
      <trkpt lat="43.316574" lon="-8.596054">
        <ele>94.366</ele>
        <time>2019-06-21T11:09:35Z</time>
      </trkpt>
      <trkpt lat="43.316631" lon="-8.596156">
        <ele>93.529</ele>
        <time>2019-06-21T11:09:36Z</time>
      </trkpt>
      <trkpt lat="43.316662" lon="-8.596280">
        <ele>93.121</ele>
        <time>2019-06-21T11:09:37Z</time>
      </trkpt>
      <trkpt lat="43.316677" lon="-8.596429">
        <ele>92.508</ele>
        <time>2019-06-21T11:09:38Z</time>
      </trkpt>
      <trkpt lat="43.316677" lon="-8.596593">
        <ele>91.439</ele>
        <time>2019-06-21T11:09:39Z</time>
      </trkpt>
      <trkpt lat="43.316653" lon="-8.596767">
        <ele>90.243</ele>
        <time>2019-06-21T11:09:40Z</time>
      </trkpt>
      <trkpt lat="43.316626" lon="-8.596960">
        <ele>88.945</ele>
        <time>2019-06-21T11:09:41Z</time>
      </trkpt>
      <trkpt lat="43.316602" lon="-8.597157">
        <ele>88.337</ele>
        <time>2019-06-21T11:09:42Z</time>
      </trkpt>
      <trkpt lat="43.316612" lon="-8.597362">
        <ele>87.294</ele>
        <time>2019-06-21T11:09:43Z</time>
      </trkpt>
      <trkpt lat="43.316612" lon="-8.597551">
        <ele>86.880</ele>
        <time>2019-06-21T11:09:44Z</time>
      </trkpt>
      <trkpt lat="43.316625" lon="-8.597741">
        <ele>86.534</ele>
        <time>2019-06-21T11:09:45Z</time>
      </trkpt>
      <trkpt lat="43.316634" lon="-8.597907">
        <ele>85.876</ele>
        <time>2019-06-21T11:09:46Z</time>
      </trkpt>
      <trkpt lat="43.316628" lon="-8.598074">
        <ele>85.344</ele>
        <time>2019-06-21T11:09:47Z</time>
      </trkpt>
      <trkpt lat="43.316621" lon="-8.598233">
        <ele>83.405</ele>
        <time>2019-06-21T11:09:48Z</time>
      </trkpt>
      <trkpt lat="43.316610" lon="-8.598376">
        <ele>81.915</ele>
        <time>2019-06-21T11:09:49Z</time>
      </trkpt>
      <trkpt lat="43.316590" lon="-8.598508">
        <ele>81.008</ele>
        <time>2019-06-21T11:09:50Z</time>
      </trkpt>
      <trkpt lat="43.316572" lon="-8.598634">
        <ele>80.117</ele>
        <time>2019-06-21T11:09:51Z</time>
      </trkpt>
      <trkpt lat="43.316564" lon="-8.598741">
        <ele>78.831</ele>
        <time>2019-06-21T11:09:52Z</time>
      </trkpt>
      <trkpt lat="43.316555" lon="-8.598826">
        <ele>78.043</ele>
        <time>2019-06-21T11:09:53Z</time>
      </trkpt>
      <trkpt lat="43.316547" lon="-8.598913">
        <ele>77.225</ele>
        <time>2019-06-21T11:09:55Z</time>
      </trkpt>
      <trkpt lat="43.316514" lon="-8.598980">
        <ele>78.122</ele>
        <time>2019-06-21T11:10:59Z</time>
      </trkpt>
      <trkpt lat="43.316501" lon="-8.599068">
        <ele>77.658</ele>
        <time>2019-06-21T11:11:00Z</time>
      </trkpt>
      <trkpt lat="43.316482" lon="-8.599172">
        <ele>77.342</ele>
        <time>2019-06-21T11:11:01Z</time>
      </trkpt>
      <trkpt lat="43.316469" lon="-8.599295">
        <ele>77.574</ele>
        <time>2019-06-21T11:11:02Z</time>
      </trkpt>
      <trkpt lat="43.316453" lon="-8.599440">
        <ele>77.878</ele>
        <time>2019-06-21T11:11:03Z</time>
      </trkpt>
      <trkpt lat="43.316432" lon="-8.599599">
        <ele>77.833</ele>
        <time>2019-06-21T11:11:04Z</time>
      </trkpt>
      <trkpt lat="43.316406" lon="-8.599752">
        <ele>77.826</ele>
        <time>2019-06-21T11:11:05Z</time>
      </trkpt>
      <trkpt lat="43.316384" lon="-8.599909">
        <ele>76.508</ele>
        <time>2019-06-21T11:11:06Z</time>
      </trkpt>
      <trkpt lat="43.316358" lon="-8.600054">
        <ele>75.650</ele>
        <time>2019-06-21T11:11:07Z</time>
      </trkpt>
      <trkpt lat="43.316331" lon="-8.600203">
        <ele>74.664</ele>
        <time>2019-06-21T11:11:08Z</time>
      </trkpt>
      <trkpt lat="43.316296" lon="-8.600349">
        <ele>73.966</ele>
        <time>2019-06-21T11:11:09Z</time>
      </trkpt>
      <trkpt lat="43.316265" lon="-8.600510">
        <ele>72.968</ele>
        <time>2019-06-21T11:11:10Z</time>
      </trkpt>
      <trkpt lat="43.316251" lon="-8.600674">
        <ele>72.575</ele>
        <time>2019-06-21T11:11:11Z</time>
      </trkpt>
      <trkpt lat="43.316248" lon="-8.600830">
        <ele>72.191</ele>
        <time>2019-06-21T11:11:12Z</time>
      </trkpt>
      <trkpt lat="43.316256" lon="-8.600998">
        <ele>72.345</ele>
        <time>2019-06-21T11:11:13Z</time>
      </trkpt>
      <trkpt lat="43.316266" lon="-8.601165">
        <ele>72.537</ele>
        <time>2019-06-21T11:11:14Z</time>
      </trkpt>
      <trkpt lat="43.316287" lon="-8.601321">
        <ele>72.499</ele>
        <time>2019-06-21T11:11:15Z</time>
      </trkpt>
      <trkpt lat="43.316324" lon="-8.601460">
        <ele>71.507</ele>
        <time>2019-06-21T11:11:16Z</time>
      </trkpt>
      <trkpt lat="43.316382" lon="-8.601600">
        <ele>69.827</ele>
        <time>2019-06-21T11:11:17Z</time>
      </trkpt>
      <trkpt lat="43.316446" lon="-8.601714">
        <ele>68.108</ele>
        <time>2019-06-21T11:11:18Z</time>
      </trkpt>
      <trkpt lat="43.316514" lon="-8.601833">
        <ele>66.212</ele>
        <time>2019-06-21T11:11:19Z</time>
      </trkpt>
      <trkpt lat="43.316579" lon="-8.601963">
        <ele>64.676</ele>
        <time>2019-06-21T11:11:20Z</time>
      </trkpt>
      <trkpt lat="43.316624" lon="-8.602093">
        <ele>63.778</ele>
        <time>2019-06-21T11:11:21Z</time>
      </trkpt>
      <trkpt lat="43.316680" lon="-8.602247">
        <ele>62.490</ele>
        <time>2019-06-21T11:11:22Z</time>
      </trkpt>
      <trkpt lat="43.316712" lon="-8.602409">
        <ele>61.297</ele>
        <time>2019-06-21T11:11:23Z</time>
      </trkpt>
      <trkpt lat="43.316741" lon="-8.602573">
        <ele>59.933</ele>
        <time>2019-06-21T11:11:24Z</time>
      </trkpt>
      <trkpt lat="43.316780" lon="-8.602732">
        <ele>58.497</ele>
        <time>2019-06-21T11:11:25Z</time>
      </trkpt>
      <trkpt lat="43.316811" lon="-8.602897">
        <ele>58.029</ele>
        <time>2019-06-21T11:11:26Z</time>
      </trkpt>
      <trkpt lat="43.316830" lon="-8.603057">
        <ele>58.324</ele>
        <time>2019-06-21T11:11:27Z</time>
      </trkpt>
      <trkpt lat="43.316866" lon="-8.603232">
        <ele>57.504</ele>
        <time>2019-06-21T11:11:28Z</time>
      </trkpt>
      <trkpt lat="43.316873" lon="-8.603388">
        <ele>57.414</ele>
        <time>2019-06-21T11:11:29Z</time>
      </trkpt>
      <trkpt lat="43.316879" lon="-8.603533">
        <ele>56.908</ele>
        <time>2019-06-21T11:11:30Z</time>
      </trkpt>
      <trkpt lat="43.316879" lon="-8.603676">
        <ele>56.225</ele>
        <time>2019-06-21T11:11:31Z</time>
      </trkpt>
      <trkpt lat="43.316874" lon="-8.603816">
        <ele>55.579</ele>
        <time>2019-06-21T11:11:32Z</time>
      </trkpt>
      <trkpt lat="43.316872" lon="-8.603952">
        <ele>54.481</ele>
        <time>2019-06-21T11:11:33Z</time>
      </trkpt>
      <trkpt lat="43.316873" lon="-8.604082">
        <ele>53.023</ele>
        <time>2019-06-21T11:11:34Z</time>
      </trkpt>
      <trkpt lat="43.316865" lon="-8.604201">
        <ele>52.080</ele>
        <time>2019-06-21T11:11:35Z</time>
      </trkpt>
      <trkpt lat="43.316847" lon="-8.604331">
        <ele>51.236</ele>
        <time>2019-06-21T11:11:36Z</time>
      </trkpt>
      <trkpt lat="43.316819" lon="-8.604451">
        <ele>51.080</ele>
        <time>2019-06-21T11:11:37Z</time>
      </trkpt>
      <trkpt lat="43.316792" lon="-8.604575">
        <ele>49.832</ele>
        <time>2019-06-21T11:11:38Z</time>
      </trkpt>
      <trkpt lat="43.316727" lon="-8.604669">
        <ele>50.631</ele>
        <time>2019-06-21T11:11:39Z</time>
      </trkpt>
      <trkpt lat="43.316692" lon="-8.604772">
        <ele>50.061</ele>
        <time>2019-06-21T11:11:40Z</time>
      </trkpt>
      <trkpt lat="43.316645" lon="-8.604880">
        <ele>49.207</ele>
        <time>2019-06-21T11:11:41Z</time>
      </trkpt>
      <trkpt lat="43.316584" lon="-8.604972">
        <ele>49.008</ele>
        <time>2019-06-21T11:11:42Z</time>
      </trkpt>
      <trkpt lat="43.316515" lon="-8.605068">
        <ele>48.666</ele>
        <time>2019-06-21T11:11:43Z</time>
      </trkpt>
      <trkpt lat="43.316433" lon="-8.605155">
        <ele>48.440</ele>
        <time>2019-06-21T11:11:44Z</time>
      </trkpt>
      <trkpt lat="43.316339" lon="-8.605240">
        <ele>48.322</ele>
        <time>2019-06-21T11:11:45Z</time>
      </trkpt>
      <trkpt lat="43.316241" lon="-8.605317">
        <ele>48.754</ele>
        <time>2019-06-21T11:11:46Z</time>
      </trkpt>
      <trkpt lat="43.316137" lon="-8.605393">
        <ele>49.131</ele>
        <time>2019-06-21T11:11:47Z</time>
      </trkpt>
      <trkpt lat="43.316046" lon="-8.605495">
        <ele>48.487</ele>
        <time>2019-06-21T11:11:48Z</time>
      </trkpt>
      <trkpt lat="43.315954" lon="-8.605601">
        <ele>48.041</ele>
        <time>2019-06-21T11:11:49Z</time>
      </trkpt>
      <trkpt lat="43.315866" lon="-8.605713">
        <ele>47.893</ele>
        <time>2019-06-21T11:11:50Z</time>
      </trkpt>
      <trkpt lat="43.315783" lon="-8.605823">
        <ele>47.115</ele>
        <time>2019-06-21T11:11:51Z</time>
      </trkpt>
      <trkpt lat="43.315708" lon="-8.605937">
        <ele>45.665</ele>
        <time>2019-06-21T11:11:52Z</time>
      </trkpt>
      <trkpt lat="43.315626" lon="-8.606034">
        <ele>44.711</ele>
        <time>2019-06-21T11:11:53Z</time>
      </trkpt>
      <trkpt lat="43.315553" lon="-8.606127">
        <ele>43.708</ele>
        <time>2019-06-21T11:11:54Z</time>
      </trkpt>
      <trkpt lat="43.315471" lon="-8.606216">
        <ele>43.144</ele>
        <time>2019-06-21T11:11:55Z</time>
      </trkpt>
      <trkpt lat="43.315400" lon="-8.606298">
        <ele>42.668</ele>
        <time>2019-06-21T11:11:56Z</time>
      </trkpt>
      <trkpt lat="43.315322" lon="-8.606356">
        <ele>42.830</ele>
        <time>2019-06-21T11:11:57Z</time>
      </trkpt>
      <trkpt lat="43.315245" lon="-8.606421">
        <ele>42.842</ele>
        <time>2019-06-21T11:11:58Z</time>
      </trkpt>
      <trkpt lat="43.315160" lon="-8.606477">
        <ele>42.699</ele>
        <time>2019-06-21T11:11:59Z</time>
      </trkpt>
      <trkpt lat="43.315070" lon="-8.606506">
        <ele>42.845</ele>
        <time>2019-06-21T11:12:00Z</time>
      </trkpt>
      <trkpt lat="43.314982" lon="-8.606524">
        <ele>43.289</ele>
        <time>2019-06-21T11:12:01Z</time>
      </trkpt>
      <trkpt lat="43.314899" lon="-8.606535">
        <ele>43.661</ele>
        <time>2019-06-21T11:12:02Z</time>
      </trkpt>
      <trkpt lat="43.314822" lon="-8.606546">
        <ele>43.889</ele>
        <time>2019-06-21T11:12:03Z</time>
      </trkpt>
      <trkpt lat="43.314757" lon="-8.606556">
        <ele>44.006</ele>
        <time>2019-06-21T11:12:04Z</time>
      </trkpt>
      <trkpt lat="43.314694" lon="-8.606587">
        <ele>43.526</ele>
        <time>2019-06-21T11:12:05Z</time>
      </trkpt>
      <trkpt lat="43.314651" lon="-8.606631">
        <ele>42.308</ele>
        <time>2019-06-21T11:12:06Z</time>
      </trkpt>
      <trkpt lat="43.314627" lon="-8.606685">
        <ele>40.961</ele>
        <time>2019-06-21T11:12:07Z</time>
      </trkpt>
      <trkpt lat="43.314617" lon="-8.606757">
        <ele>39.465</ele>
        <time>2019-06-21T11:12:08Z</time>
      </trkpt>
      <trkpt lat="43.314640" lon="-8.606811">
        <ele>38.297</ele>
        <time>2019-06-21T11:12:09Z</time>
      </trkpt>
      <trkpt lat="43.314692" lon="-8.606849">
        <ele>37.269</ele>
        <time>2019-06-21T11:12:10Z</time>
      </trkpt>
      <trkpt lat="43.314761" lon="-8.606868">
        <ele>36.466</ele>
        <time>2019-06-21T11:12:11Z</time>
      </trkpt>
      <trkpt lat="43.314832" lon="-8.606879">
        <ele>35.742</ele>
        <time>2019-06-21T11:12:12Z</time>
      </trkpt>
      <trkpt lat="43.314908" lon="-8.606874">
        <ele>35.466</ele>
        <time>2019-06-21T11:12:13Z</time>
      </trkpt>
      <trkpt lat="43.314988" lon="-8.606875">
        <ele>34.878</ele>
        <time>2019-06-21T11:12:14Z</time>
      </trkpt>
      <trkpt lat="43.315066" lon="-8.606857">
        <ele>35.189</ele>
        <time>2019-06-21T11:12:15Z</time>
      </trkpt>
      <trkpt lat="43.315151" lon="-8.606852">
        <ele>35.006</ele>
        <time>2019-06-21T11:12:16Z</time>
      </trkpt>
      <trkpt lat="43.315237" lon="-8.606850">
        <ele>34.826</ele>
        <time>2019-06-21T11:12:17Z</time>
      </trkpt>
      <trkpt lat="43.315325" lon="-8.606842">
        <ele>34.508</ele>
        <time>2019-06-21T11:12:18Z</time>
      </trkpt>
      <trkpt lat="43.315410" lon="-8.606835">
        <ele>33.911</ele>
        <time>2019-06-21T11:12:19Z</time>
      </trkpt>
      <trkpt lat="43.315497" lon="-8.606825">
        <ele>33.335</ele>
        <time>2019-06-21T11:12:20Z</time>
      </trkpt>
      <trkpt lat="43.315571" lon="-8.606818">
        <ele>32.827</ele>
        <time>2019-06-21T11:12:21Z</time>
      </trkpt>
      <trkpt lat="43.315638" lon="-8.606826">
        <ele>32.139</ele>
        <time>2019-06-21T11:12:22Z</time>
      </trkpt>
      <trkpt lat="43.315692" lon="-8.606825">
        <ele>31.746</ele>
        <time>2019-06-21T11:12:23Z</time>
      </trkpt>
      <trkpt lat="43.315744" lon="-8.606847">
        <ele>31.182</ele>
        <time>2019-06-21T11:12:25Z</time>
      </trkpt>
      <trkpt lat="43.315746" lon="-8.606921">
        <ele>30.756</ele>
        <time>2019-06-21T11:12:27Z</time>
      </trkpt>
      <trkpt lat="43.315681" lon="-8.606976">
        <ele>30.878</ele>
        <time>2019-06-21T11:12:29Z</time>
      </trkpt>
      <trkpt lat="43.315622" lon="-8.607021">
        <ele>30.978</ele>
        <time>2019-06-21T11:12:30Z</time>
      </trkpt>
      <trkpt lat="43.315550" lon="-8.607063">
        <ele>31.133</ele>
        <time>2019-06-21T11:12:31Z</time>
      </trkpt>
      <trkpt lat="43.315474" lon="-8.607120">
        <ele>30.526</ele>
        <time>2019-06-21T11:12:32Z</time>
      </trkpt>
      <trkpt lat="43.315405" lon="-8.607177">
        <ele>29.508</ele>
        <time>2019-06-21T11:12:33Z</time>
      </trkpt>
      <trkpt lat="43.315341" lon="-8.607252">
        <ele>28.020</ele>
        <time>2019-06-21T11:12:34Z</time>
      </trkpt>
      <trkpt lat="43.315276" lon="-8.607333">
        <ele>26.424</ele>
        <time>2019-06-21T11:12:35Z</time>
      </trkpt>
      <trkpt lat="43.315206" lon="-8.607405">
        <ele>25.356</ele>
        <time>2019-06-21T11:12:36Z</time>
      </trkpt>
      <trkpt lat="43.315147" lon="-8.607487">
        <ele>24.298</ele>
        <time>2019-06-21T11:12:37Z</time>
      </trkpt>
      <trkpt lat="43.315101" lon="-8.607569">
        <ele>23.455</ele>
        <time>2019-06-21T11:12:38Z</time>
      </trkpt>
      <trkpt lat="43.315056" lon="-8.607643">
        <ele>22.981</ele>
        <time>2019-06-21T11:12:39Z</time>
      </trkpt>
      <trkpt lat="43.315030" lon="-8.607718">
        <ele>22.365</ele>
        <time>2019-06-21T11:12:40Z</time>
      </trkpt>
      <trkpt lat="43.315021" lon="-8.607795">
        <ele>21.977</ele>
        <time>2019-06-21T11:12:41Z</time>
      </trkpt>
      <trkpt lat="43.315020" lon="-8.607878">
        <ele>21.523</ele>
        <time>2019-06-21T11:12:42Z</time>
      </trkpt>
      <trkpt lat="43.315017" lon="-8.607958">
        <ele>21.283</ele>
        <time>2019-06-21T11:12:43Z</time>
      </trkpt>
      <trkpt lat="43.314986" lon="-8.608036">
        <ele>21.211</ele>
        <time>2019-06-21T11:12:44Z</time>
      </trkpt>
      <trkpt lat="43.314936" lon="-8.608100">
        <ele>21.008</ele>
        <time>2019-06-21T11:12:45Z</time>
      </trkpt>
      <trkpt lat="43.314870" lon="-8.608142">
        <ele>21.115</ele>
        <time>2019-06-21T11:12:46Z</time>
      </trkpt>
      <trkpt lat="43.314804" lon="-8.608206">
        <ele>21.249</ele>
        <time>2019-06-21T11:12:47Z</time>
      </trkpt>
      <trkpt lat="43.314721" lon="-8.608252">
        <ele>21.611</ele>
        <time>2019-06-21T11:12:48Z</time>
      </trkpt>
      <trkpt lat="43.314654" lon="-8.608310">
        <ele>21.223</ele>
        <time>2019-06-21T11:12:49Z</time>
      </trkpt>
      <trkpt lat="43.314591" lon="-8.608372">
        <ele>20.610</ele>
        <time>2019-06-21T11:12:50Z</time>
      </trkpt>
      <trkpt lat="43.314542" lon="-8.608442">
        <ele>20.156</ele>
        <time>2019-06-21T11:12:51Z</time>
      </trkpt>
      <trkpt lat="43.314508" lon="-8.608513">
        <ele>19.610</ele>
        <time>2019-06-21T11:12:52Z</time>
      </trkpt>
      <trkpt lat="43.314464" lon="-8.608565">
        <ele>19.342</ele>
        <time>2019-06-21T11:12:53Z</time>
      </trkpt>
      <trkpt lat="43.314396" lon="-8.608630">
        <ele>19.036</ele>
        <time>2019-06-21T11:12:55Z</time>
      </trkpt>
      <trkpt lat="43.314321" lon="-8.608672">
        <ele>18.917</ele>
        <time>2019-06-21T11:12:57Z</time>
      </trkpt>
      <trkpt lat="43.314261" lon="-8.608723">
        <ele>18.718</ele>
        <time>2019-06-21T11:12:59Z</time>
      </trkpt>
      <trkpt lat="43.314199" lon="-8.608758">
        <ele>18.808</ele>
        <time>2019-06-21T11:13:01Z</time>
      </trkpt>
      <trkpt lat="43.314173" lon="-8.608813">
        <ele>18.526</ele>
        <time>2019-06-21T11:14:08Z</time>
      </trkpt>
      <trkpt lat="43.314126" lon="-8.608826">
        <ele>18.640</ele>
        <time>2019-06-21T11:14:18Z</time>
      </trkpt>
      <trkpt lat="43.314161" lon="-8.608776">
        <ele>18.862</ele>
        <time>2019-06-21T11:14:46Z</time>
      </trkpt>
      <trkpt lat="43.314183" lon="-8.608720">
        <ele>19.114</ele>
        <time>2019-06-21T11:15:11Z</time>
      </trkpt>
      <trkpt lat="43.314106" lon="-8.608772">
        <ele>19.151</ele>
        <time>2019-06-21T11:15:16Z</time>
      </trkpt>
      <trkpt lat="43.314052" lon="-8.608823">
        <ele>18.997</ele>
        <time>2019-06-21T11:15:17Z</time>
      </trkpt>
      <trkpt lat="43.313987" lon="-8.608889">
        <ele>18.641</ele>
        <time>2019-06-21T11:15:18Z</time>
      </trkpt>
      <trkpt lat="43.313916" lon="-8.608973">
        <ele>18.563</ele>
        <time>2019-06-21T11:15:19Z</time>
      </trkpt>
      <trkpt lat="43.313852" lon="-8.609068">
        <ele>18.742</ele>
        <time>2019-06-21T11:15:20Z</time>
      </trkpt>
      <trkpt lat="43.313792" lon="-8.609158">
        <ele>19.122</ele>
        <time>2019-06-21T11:15:21Z</time>
      </trkpt>
      <trkpt lat="43.313730" lon="-8.609227">
        <ele>19.414</ele>
        <time>2019-06-21T11:15:22Z</time>
      </trkpt>
      <trkpt lat="43.313655" lon="-8.609275">
        <ele>20.108</ele>
        <time>2019-06-21T11:15:23Z</time>
      </trkpt>
      <trkpt lat="43.313567" lon="-8.609301">
        <ele>21.047</ele>
        <time>2019-06-21T11:15:24Z</time>
      </trkpt>
      <trkpt lat="43.313491" lon="-8.609318">
        <ele>21.811</ele>
        <time>2019-06-21T11:15:25Z</time>
      </trkpt>
      <trkpt lat="43.313417" lon="-8.609328">
        <ele>22.673</ele>
        <time>2019-06-21T11:15:26Z</time>
      </trkpt>
      <trkpt lat="43.313340" lon="-8.609321">
        <ele>23.555</ele>
        <time>2019-06-21T11:15:27Z</time>
      </trkpt>
      <trkpt lat="43.313279" lon="-8.609339">
        <ele>24.482</ele>
        <time>2019-06-21T11:15:28Z</time>
      </trkpt>
      <trkpt lat="43.313230" lon="-8.609350">
        <ele>25.158</ele>
        <time>2019-06-21T11:15:29Z</time>
      </trkpt>
      <trkpt lat="43.313161" lon="-8.609391">
        <ele>26.332</ele>
        <time>2019-06-21T11:15:31Z</time>
      </trkpt>
      <trkpt lat="43.313099" lon="-8.609366">
        <ele>27.144</ele>
        <time>2019-06-21T11:15:33Z</time>
      </trkpt>
      <trkpt lat="43.313011" lon="-8.609246">
        <ele>28.151</ele>
        <time>2019-06-21T11:15:35Z</time>
      </trkpt>
      <trkpt lat="43.312982" lon="-8.609148">
        <ele>28.301</ele>
        <time>2019-06-21T11:15:36Z</time>
      </trkpt>
      <trkpt lat="43.312953" lon="-8.609022">
        <ele>28.811</ele>
        <time>2019-06-21T11:15:37Z</time>
      </trkpt>
      <trkpt lat="43.312918" lon="-8.608903">
        <ele>29.508</ele>
        <time>2019-06-21T11:15:38Z</time>
      </trkpt>
      <trkpt lat="43.312893" lon="-8.608758">
        <ele>30.588</ele>
        <time>2019-06-21T11:15:39Z</time>
      </trkpt>
      <trkpt lat="43.312885" lon="-8.608631">
        <ele>31.222</ele>
        <time>2019-06-21T11:15:40Z</time>
      </trkpt>
      <trkpt lat="43.312863" lon="-8.608510">
        <ele>32.024</ele>
        <time>2019-06-21T11:15:41Z</time>
      </trkpt>
      <trkpt lat="43.312833" lon="-8.608395">
        <ele>32.886</ele>
        <time>2019-06-21T11:15:42Z</time>
      </trkpt>
      <trkpt lat="43.312782" lon="-8.608277">
        <ele>33.953</ele>
        <time>2019-06-21T11:15:43Z</time>
      </trkpt>
      <trkpt lat="43.312723" lon="-8.608160">
        <ele>35.679</ele>
        <time>2019-06-21T11:15:44Z</time>
      </trkpt>
      <trkpt lat="43.312677" lon="-8.608031">
        <ele>37.143</ele>
        <time>2019-06-21T11:15:45Z</time>
      </trkpt>
      <trkpt lat="43.312645" lon="-8.607896">
        <ele>39.025</ele>
        <time>2019-06-21T11:15:46Z</time>
      </trkpt>
      <trkpt lat="43.312620" lon="-8.607783">
        <ele>40.493</ele>
        <time>2019-06-21T11:15:47Z</time>
      </trkpt>
      <trkpt lat="43.312607" lon="-8.607659">
        <ele>42.165</ele>
        <time>2019-06-21T11:15:48Z</time>
      </trkpt>
      <trkpt lat="43.312611" lon="-8.607548">
        <ele>43.421</ele>
        <time>2019-06-21T11:15:49Z</time>
      </trkpt>
      <trkpt lat="43.312631" lon="-8.607450">
        <ele>44.108</ele>
        <time>2019-06-21T11:15:50Z</time>
      </trkpt>
      <trkpt lat="43.312660" lon="-8.607380">
        <ele>44.262</ele>
        <time>2019-06-21T11:15:51Z</time>
      </trkpt>
      <trkpt lat="43.312675" lon="-8.607310">
        <ele>44.646</ele>
        <time>2019-06-21T11:15:52Z</time>
      </trkpt>
      <trkpt lat="43.312648" lon="-8.607238">
        <ele>45.728</ele>
        <time>2019-06-21T11:15:55Z</time>
      </trkpt>
      <trkpt lat="43.312578" lon="-8.607303">
        <ele>46.250</ele>
        <time>2019-06-21T11:15:57Z</time>
      </trkpt>
      <trkpt lat="43.312523" lon="-8.607363">
        <ele>46.687</ele>
        <time>2019-06-21T11:15:58Z</time>
      </trkpt>
      <trkpt lat="43.312458" lon="-8.607437">
        <ele>47.713</ele>
        <time>2019-06-21T11:15:59Z</time>
      </trkpt>
      <trkpt lat="43.312391" lon="-8.607531">
        <ele>48.897</ele>
        <time>2019-06-21T11:16:00Z</time>
      </trkpt>
      <trkpt lat="43.312325" lon="-8.607614">
        <ele>50.119</ele>
        <time>2019-06-21T11:16:01Z</time>
      </trkpt>
      <trkpt lat="43.312274" lon="-8.607726">
        <ele>50.745</ele>
        <time>2019-06-21T11:16:02Z</time>
      </trkpt>
      <trkpt lat="43.312212" lon="-8.607820">
        <ele>52.147</ele>
        <time>2019-06-21T11:16:03Z</time>
      </trkpt>
      <trkpt lat="43.312150" lon="-8.607912">
        <ele>53.911</ele>
        <time>2019-06-21T11:16:04Z</time>
      </trkpt>
      <trkpt lat="43.312065" lon="-8.607997">
        <ele>56.308</ele>
        <time>2019-06-21T11:16:05Z</time>
      </trkpt>
      <trkpt lat="43.311973" lon="-8.608087">
        <ele>58.497</ele>
        <time>2019-06-21T11:16:06Z</time>
      </trkpt>
      <trkpt lat="43.311867" lon="-8.608168">
        <ele>62.211</ele>
        <time>2019-06-21T11:16:07Z</time>
      </trkpt>
      <trkpt lat="43.311771" lon="-8.608259">
        <ele>65.733</ele>
        <time>2019-06-21T11:16:08Z</time>
      </trkpt>
      <trkpt lat="43.311684" lon="-8.608363">
        <ele>68.475</ele>
        <time>2019-06-21T11:16:09Z</time>
      </trkpt>
      <trkpt lat="43.311607" lon="-8.608480">
        <ele>69.342</ele>
        <time>2019-06-21T11:16:10Z</time>
      </trkpt>
      <trkpt lat="43.311531" lon="-8.608626">
        <ele>69.788</ele>
        <time>2019-06-21T11:16:11Z</time>
      </trkpt>
      <trkpt lat="43.311462" lon="-8.608773">
        <ele>70.632</ele>
        <time>2019-06-21T11:16:12Z</time>
      </trkpt>
      <trkpt lat="43.311398" lon="-8.608917">
        <ele>70.674</ele>
        <time>2019-06-21T11:16:13Z</time>
      </trkpt>
      <trkpt lat="43.311333" lon="-8.609067">
        <ele>72.779</ele>
        <time>2019-06-21T11:16:14Z</time>
      </trkpt>
      <trkpt lat="43.311257" lon="-8.609215">
        <ele>74.805</ele>
        <time>2019-06-21T11:16:15Z</time>
      </trkpt>
      <trkpt lat="43.311188" lon="-8.609349">
        <ele>76.225</ele>
        <time>2019-06-21T11:16:16Z</time>
      </trkpt>
      <trkpt lat="43.311117" lon="-8.609478">
        <ele>77.708</ele>
        <time>2019-06-21T11:16:17Z</time>
      </trkpt>
      <trkpt lat="43.311055" lon="-8.609601">
        <ele>79.420</ele>
        <time>2019-06-21T11:16:18Z</time>
      </trkpt>
      <trkpt lat="43.311006" lon="-8.609707">
        <ele>80.574</ele>
        <time>2019-06-21T11:16:19Z</time>
      </trkpt>
      <trkpt lat="43.310941" lon="-8.609786">
        <ele>82.176</ele>
        <time>2019-06-21T11:16:20Z</time>
      </trkpt>
      <trkpt lat="43.310869" lon="-8.609854">
        <ele>84.048</ele>
        <time>2019-06-21T11:16:21Z</time>
      </trkpt>
      <trkpt lat="43.310792" lon="-8.609907">
        <ele>85.935</ele>
        <time>2019-06-21T11:16:22Z</time>
      </trkpt>
      <trkpt lat="43.310716" lon="-8.609974">
        <ele>87.671</ele>
        <time>2019-06-21T11:16:23Z</time>
      </trkpt>
      <trkpt lat="43.310632" lon="-8.610033">
        <ele>89.775</ele>
        <time>2019-06-21T11:16:24Z</time>
      </trkpt>
      <trkpt lat="43.310563" lon="-8.610097">
        <ele>91.457</ele>
        <time>2019-06-21T11:16:25Z</time>
      </trkpt>
      <trkpt lat="43.310499" lon="-8.610144">
        <ele>93.682</ele>
        <time>2019-06-21T11:16:26Z</time>
      </trkpt>
      <trkpt lat="43.310441" lon="-8.610185">
        <ele>95.643</ele>
        <time>2019-06-21T11:16:28Z</time>
      </trkpt>
      <trkpt lat="43.310406" lon="-8.610235">
        <ele>96.617</ele>
        <time>2019-06-21T11:16:33Z</time>
      </trkpt>
      <trkpt lat="43.310376" lon="-8.610292">
        <ele>97.408</ele>
        <time>2019-06-21T11:16:34Z</time>
      </trkpt>
      <trkpt lat="43.310335" lon="-8.610368">
        <ele>98.551</ele>
        <time>2019-06-21T11:16:35Z</time>
      </trkpt>
      <trkpt lat="43.310285" lon="-8.610455">
        <ele>99.575</ele>
        <time>2019-06-21T11:16:36Z</time>
      </trkpt>
      <trkpt lat="43.310234" lon="-8.610549">
        <ele>100.817</ele>
        <time>2019-06-21T11:16:37Z</time>
      </trkpt>
      <trkpt lat="43.310198" lon="-8.610660">
        <ele>102.389</ele>
        <time>2019-06-21T11:16:38Z</time>
      </trkpt>
      <trkpt lat="43.310169" lon="-8.610771">
        <ele>103.516</ele>
        <time>2019-06-21T11:16:39Z</time>
      </trkpt>
      <trkpt lat="43.310147" lon="-8.610893">
        <ele>104.652</ele>
        <time>2019-06-21T11:16:40Z</time>
      </trkpt>
      <trkpt lat="43.310136" lon="-8.611031">
        <ele>105.766</ele>
        <time>2019-06-21T11:16:41Z</time>
      </trkpt>
      <trkpt lat="43.310126" lon="-8.611182">
        <ele>107.198</ele>
        <time>2019-06-21T11:16:42Z</time>
      </trkpt>
      <trkpt lat="43.310125" lon="-8.611334">
        <ele>108.561</ele>
        <time>2019-06-21T11:16:43Z</time>
      </trkpt>
      <trkpt lat="43.310112" lon="-8.611495">
        <ele>110.621</ele>
        <time>2019-06-21T11:16:44Z</time>
      </trkpt>
      <trkpt lat="43.310091" lon="-8.611667">
        <ele>113.113</ele>
        <time>2019-06-21T11:16:45Z</time>
      </trkpt>
      <trkpt lat="43.310060" lon="-8.611842">
        <ele>114.008</ele>
        <time>2019-06-21T11:16:46Z</time>
      </trkpt>
      <trkpt lat="43.310038" lon="-8.612003">
        <ele>114.469</ele>
        <time>2019-06-21T11:16:47Z</time>
      </trkpt>
      <trkpt lat="43.310013" lon="-8.612152">
        <ele>114.813</ele>
        <time>2019-06-21T11:16:48Z</time>
      </trkpt>
      <trkpt lat="43.309990" lon="-8.612295">
        <ele>115.545</ele>
        <time>2019-06-21T11:16:49Z</time>
      </trkpt>
      <trkpt lat="43.309967" lon="-8.612443">
        <ele>116.717</ele>
        <time>2019-06-21T11:16:50Z</time>
      </trkpt>
      <trkpt lat="43.309957" lon="-8.612576">
        <ele>117.144</ele>
        <time>2019-06-21T11:16:51Z</time>
      </trkpt>
      <trkpt lat="43.309947" lon="-8.612699">
        <ele>117.560</ele>
        <time>2019-06-21T11:16:52Z</time>
      </trkpt>
      <trkpt lat="43.309926" lon="-8.612797">
        <ele>118.384</ele>
        <time>2019-06-21T11:16:53Z</time>
      </trkpt>
      <trkpt lat="43.309932" lon="-8.612920">
        <ele>118.976</ele>
        <time>2019-06-21T11:16:54Z</time>
      </trkpt>
      <trkpt lat="43.309933" lon="-8.613073">
        <ele>119.898</ele>
        <time>2019-06-21T11:16:55Z</time>
      </trkpt>
      <trkpt lat="43.309930" lon="-8.613244">
        <ele>121.115</ele>
        <time>2019-06-21T11:16:56Z</time>
      </trkpt>
      <trkpt lat="43.309927" lon="-8.613421">
        <ele>121.926</ele>
        <time>2019-06-21T11:16:57Z</time>
      </trkpt>
      <trkpt lat="43.309918" lon="-8.613611">
        <ele>122.408</ele>
        <time>2019-06-21T11:16:58Z</time>
      </trkpt>
      <trkpt lat="43.309896" lon="-8.613808">
        <ele>123.082</ele>
        <time>2019-06-21T11:16:59Z</time>
      </trkpt>
      <trkpt lat="43.309863" lon="-8.614022">
        <ele>123.756</ele>
        <time>2019-06-21T11:17:00Z</time>
      </trkpt>
      <trkpt lat="43.309811" lon="-8.614232">
        <ele>124.588</ele>
        <time>2019-06-21T11:17:01Z</time>
      </trkpt>
      <trkpt lat="43.309748" lon="-8.614450">
        <ele>125.390</ele>
        <time>2019-06-21T11:17:02Z</time>
      </trkpt>
      <trkpt lat="43.309671" lon="-8.614656">
        <ele>126.527</ele>
        <time>2019-06-21T11:17:03Z</time>
      </trkpt>
      <trkpt lat="43.309580" lon="-8.614851">
        <ele>128.123</ele>
        <time>2019-06-21T11:17:04Z</time>
      </trkpt>
      <trkpt lat="43.309480" lon="-8.615046">
        <ele>129.527</ele>
        <time>2019-06-21T11:17:05Z</time>
      </trkpt>
      <trkpt lat="43.309357" lon="-8.615226">
        <ele>129.039</ele>
        <time>2019-06-21T11:17:06Z</time>
      </trkpt>
      <trkpt lat="43.309217" lon="-8.615405">
        <ele>128.421</ele>
        <time>2019-06-21T11:17:07Z</time>
      </trkpt>
      <trkpt lat="43.309057" lon="-8.615577">
        <ele>128.341</ele>
        <time>2019-06-21T11:17:08Z</time>
      </trkpt>
      <trkpt lat="43.308895" lon="-8.615748">
        <ele>128.805</ele>
        <time>2019-06-21T11:17:09Z</time>
      </trkpt>
      <trkpt lat="43.308730" lon="-8.615921">
        <ele>129.208</ele>
        <time>2019-06-21T11:17:10Z</time>
      </trkpt>
      <trkpt lat="43.308573" lon="-8.616100">
        <ele>129.815</ele>
        <time>2019-06-21T11:17:11Z</time>
      </trkpt>
      <trkpt lat="43.308414" lon="-8.616271">
        <ele>130.849</ele>
        <time>2019-06-21T11:17:12Z</time>
      </trkpt>
      <trkpt lat="43.308254" lon="-8.616447">
        <ele>131.481</ele>
        <time>2019-06-21T11:17:13Z</time>
      </trkpt>
      <trkpt lat="43.308087" lon="-8.616618">
        <ele>132.733</ele>
        <time>2019-06-21T11:17:14Z</time>
      </trkpt>
      <trkpt lat="43.307929" lon="-8.616795">
        <ele>134.620</ele>
        <time>2019-06-21T11:17:15Z</time>
      </trkpt>
      <trkpt lat="43.307772" lon="-8.616976">
        <ele>136.986</ele>
        <time>2019-06-21T11:17:16Z</time>
      </trkpt>
      <trkpt lat="43.307618" lon="-8.617149">
        <ele>139.050</ele>
        <time>2019-06-21T11:17:17Z</time>
      </trkpt>
      <trkpt lat="43.307468" lon="-8.617323">
        <ele>140.672</ele>
        <time>2019-06-21T11:17:18Z</time>
      </trkpt>
      <trkpt lat="43.307351" lon="-8.617497">
        <ele>140.722</ele>
        <time>2019-06-21T11:17:19Z</time>
      </trkpt>
      <trkpt lat="43.307242" lon="-8.617686">
        <ele>140.062</ele>
        <time>2019-06-21T11:17:20Z</time>
      </trkpt>
      <trkpt lat="43.307148" lon="-8.617878">
        <ele>139.308</ele>
        <time>2019-06-21T11:17:21Z</time>
      </trkpt>
      <trkpt lat="43.307073" lon="-8.618096">
        <ele>138.308</ele>
        <time>2019-06-21T11:17:22Z</time>
      </trkpt>
      <trkpt lat="43.307029" lon="-8.618323">
        <ele>137.585</ele>
        <time>2019-06-21T11:17:23Z</time>
      </trkpt>
      <trkpt lat="43.306985" lon="-8.618559">
        <ele>139.059</ele>
        <time>2019-06-21T11:17:24Z</time>
      </trkpt>
      <trkpt lat="43.306964" lon="-8.618809">
        <ele>140.381</ele>
        <time>2019-06-21T11:17:25Z</time>
      </trkpt>
      <trkpt lat="43.306929" lon="-8.619060">
        <ele>142.243</ele>
        <time>2019-06-21T11:17:26Z</time>
      </trkpt>
      <trkpt lat="43.306904" lon="-8.619320">
        <ele>144.410</ele>
        <time>2019-06-21T11:17:27Z</time>
      </trkpt>
      <trkpt lat="43.306872" lon="-8.619579">
        <ele>146.416</ele>
        <time>2019-06-21T11:17:28Z</time>
      </trkpt>
      <trkpt lat="43.306841" lon="-8.619833">
        <ele>148.090</ele>
        <time>2019-06-21T11:17:29Z</time>
      </trkpt>
      <trkpt lat="43.306812" lon="-8.620084">
        <ele>149.572</ele>
        <time>2019-06-21T11:17:30Z</time>
      </trkpt>
      <trkpt lat="43.306778" lon="-8.620330">
        <ele>150.764</ele>
        <time>2019-06-21T11:17:31Z</time>
      </trkpt>
      <trkpt lat="43.306737" lon="-8.620580">
        <ele>152.006</ele>
        <time>2019-06-21T11:17:32Z</time>
      </trkpt>
      <trkpt lat="43.306690" lon="-8.620822">
        <ele>151.916</ele>
        <time>2019-06-21T11:17:33Z</time>
      </trkpt>
      <trkpt lat="43.306630" lon="-8.621065">
        <ele>152.608</ele>
        <time>2019-06-21T11:17:34Z</time>
      </trkpt>
      <trkpt lat="43.306559" lon="-8.621291">
        <ele>153.769</ele>
        <time>2019-06-21T11:17:35Z</time>
      </trkpt>
      <trkpt lat="43.306482" lon="-8.621515">
        <ele>154.033</ele>
        <time>2019-06-21T11:17:36Z</time>
      </trkpt>
      <trkpt lat="43.306406" lon="-8.621729">
        <ele>153.755</ele>
        <time>2019-06-21T11:17:37Z</time>
      </trkpt>
      <trkpt lat="43.306317" lon="-8.621947">
        <ele>154.387</ele>
        <time>2019-06-21T11:17:38Z</time>
      </trkpt>
      <trkpt lat="43.306228" lon="-8.622150">
        <ele>155.334</ele>
        <time>2019-06-21T11:17:39Z</time>
      </trkpt>
      <trkpt lat="43.306134" lon="-8.622356">
        <ele>155.440</ele>
        <time>2019-06-21T11:17:40Z</time>
      </trkpt>
      <trkpt lat="43.306009" lon="-8.622538">
        <ele>155.144</ele>
        <time>2019-06-21T11:17:41Z</time>
      </trkpt>
      <trkpt lat="43.305883" lon="-8.622719">
        <ele>154.236</ele>
        <time>2019-06-21T11:17:42Z</time>
      </trkpt>
      <trkpt lat="43.305751" lon="-8.622897">
        <ele>154.384</ele>
        <time>2019-06-21T11:17:43Z</time>
      </trkpt>
      <trkpt lat="43.305610" lon="-8.623070">
        <ele>155.007</ele>
        <time>2019-06-21T11:17:44Z</time>
      </trkpt>
      <trkpt lat="43.305449" lon="-8.623210">
        <ele>154.817</ele>
        <time>2019-06-21T11:17:45Z</time>
      </trkpt>
      <trkpt lat="43.305282" lon="-8.623341">
        <ele>154.808</ele>
        <time>2019-06-21T11:17:46Z</time>
      </trkpt>
      <trkpt lat="43.305107" lon="-8.623448">
        <ele>155.161</ele>
        <time>2019-06-21T11:17:47Z</time>
      </trkpt>
      <trkpt lat="43.304919" lon="-8.623528">
        <ele>155.595</ele>
        <time>2019-06-21T11:17:48Z</time>
      </trkpt>
      <trkpt lat="43.304728" lon="-8.623582">
        <ele>155.787</ele>
        <time>2019-06-21T11:17:49Z</time>
      </trkpt>
      <trkpt lat="43.304517" lon="-8.623622">
        <ele>155.459</ele>
        <time>2019-06-21T11:17:50Z</time>
      </trkpt>
      <trkpt lat="43.304316" lon="-8.623642">
        <ele>155.166</ele>
        <time>2019-06-21T11:17:51Z</time>
      </trkpt>
      <trkpt lat="43.304114" lon="-8.623656">
        <ele>155.122</ele>
        <time>2019-06-21T11:17:52Z</time>
      </trkpt>
      <trkpt lat="43.303923" lon="-8.623672">
        <ele>155.846</ele>
        <time>2019-06-21T11:17:53Z</time>
      </trkpt>
      <trkpt lat="43.303732" lon="-8.623715">
        <ele>155.838</ele>
        <time>2019-06-21T11:17:54Z</time>
      </trkpt>
      <trkpt lat="43.303553" lon="-8.623777">
        <ele>155.998</ele>
        <time>2019-06-21T11:17:55Z</time>
      </trkpt>
      <trkpt lat="43.303380" lon="-8.623861">
        <ele>155.915</ele>
        <time>2019-06-21T11:17:56Z</time>
      </trkpt>
      <trkpt lat="43.303219" lon="-8.623989">
        <ele>156.826</ele>
        <time>2019-06-21T11:17:57Z</time>
      </trkpt>
      <trkpt lat="43.303088" lon="-8.624145">
        <ele>157.508</ele>
        <time>2019-06-21T11:17:58Z</time>
      </trkpt>
      <trkpt lat="43.302961" lon="-8.624328">
        <ele>157.952</ele>
        <time>2019-06-21T11:17:59Z</time>
      </trkpt>
      <trkpt lat="43.302849" lon="-8.624531">
        <ele>158.436</ele>
        <time>2019-06-21T11:18:00Z</time>
      </trkpt>
      <trkpt lat="43.302749" lon="-8.624751">
        <ele>160.478</ele>
        <time>2019-06-21T11:18:01Z</time>
      </trkpt>
      <trkpt lat="43.302657" lon="-8.624993">
        <ele>160.650</ele>
        <time>2019-06-21T11:18:02Z</time>
      </trkpt>
      <trkpt lat="43.302558" lon="-8.625226">
        <ele>161.017</ele>
        <time>2019-06-21T11:18:03Z</time>
      </trkpt>
      <trkpt lat="43.302463" lon="-8.625448">
        <ele>159.363</ele>
        <time>2019-06-21T11:18:04Z</time>
      </trkpt>
      <trkpt lat="43.302368" lon="-8.625671">
        <ele>156.267</ele>
        <time>2019-06-21T11:18:05Z</time>
      </trkpt>
      <trkpt lat="43.302271" lon="-8.625892">
        <ele>153.899</ele>
        <time>2019-06-21T11:18:06Z</time>
      </trkpt>
      <trkpt lat="43.302171" lon="-8.626110">
        <ele>153.236</ele>
        <time>2019-06-21T11:18:07Z</time>
      </trkpt>
      <trkpt lat="43.302070" lon="-8.626321">
        <ele>153.017</ele>
        <time>2019-06-21T11:18:08Z</time>
      </trkpt>
      <trkpt lat="43.301971" lon="-8.626531">
        <ele>152.918</ele>
        <time>2019-06-21T11:18:09Z</time>
      </trkpt>
      <trkpt lat="43.301845" lon="-8.626722">
        <ele>154.508</ele>
        <time>2019-06-21T11:18:10Z</time>
      </trkpt>
      <trkpt lat="43.301732" lon="-8.626916">
        <ele>154.546</ele>
        <time>2019-06-21T11:18:11Z</time>
      </trkpt>
      <trkpt lat="43.301622" lon="-8.627104">
        <ele>153.460</ele>
        <time>2019-06-21T11:18:12Z</time>
      </trkpt>
      <trkpt lat="43.301502" lon="-8.627271">
        <ele>152.752</ele>
        <time>2019-06-21T11:18:13Z</time>
      </trkpt>
      <trkpt lat="43.301376" lon="-8.627429">
        <ele>152.544</ele>
        <time>2019-06-21T11:18:14Z</time>
      </trkpt>
      <trkpt lat="43.301248" lon="-8.627582">
        <ele>151.711</ele>
        <time>2019-06-21T11:18:15Z</time>
      </trkpt>
      <trkpt lat="43.301132" lon="-8.627713">
        <ele>151.657</ele>
        <time>2019-06-21T11:18:16Z</time>
      </trkpt>
      <trkpt lat="43.301014" lon="-8.627833">
        <ele>150.381</ele>
        <time>2019-06-21T11:18:17Z</time>
      </trkpt>
      <trkpt lat="43.300911" lon="-8.627946">
        <ele>149.073</ele>
        <time>2019-06-21T11:18:18Z</time>
      </trkpt>
      <trkpt lat="43.300816" lon="-8.628058">
        <ele>147.972</ele>
        <time>2019-06-21T11:18:19Z</time>
      </trkpt>
      <trkpt lat="43.300734" lon="-8.628137">
        <ele>147.113</ele>
        <time>2019-06-21T11:18:20Z</time>
      </trkpt>
      <trkpt lat="43.300662" lon="-8.628187">
        <ele>146.414</ele>
        <time>2019-06-21T11:18:21Z</time>
      </trkpt>
      <trkpt lat="43.300589" lon="-8.628213">
        <ele>146.008</ele>
        <time>2019-06-21T11:18:22Z</time>
      </trkpt>
      <trkpt lat="43.300530" lon="-8.628199">
        <ele>145.950</ele>
        <time>2019-06-21T11:18:23Z</time>
      </trkpt>
      <trkpt lat="43.300468" lon="-8.628150">
        <ele>145.974</ele>
        <time>2019-06-21T11:18:24Z</time>
      </trkpt>
      <trkpt lat="43.300399" lon="-8.628078">
        <ele>145.816</ele>
        <time>2019-06-21T11:18:25Z</time>
      </trkpt>
      <trkpt lat="43.300313" lon="-8.627995">
        <ele>145.598</ele>
        <time>2019-06-21T11:18:26Z</time>
      </trkpt>
      <trkpt lat="43.300206" lon="-8.627922">
        <ele>144.685</ele>
        <time>2019-06-21T11:18:27Z</time>
      </trkpt>
      <trkpt lat="43.300085" lon="-8.627830">
        <ele>143.271</ele>
        <time>2019-06-21T11:18:28Z</time>
      </trkpt>
      <trkpt lat="43.299954" lon="-8.627718">
        <ele>141.665</ele>
        <time>2019-06-21T11:18:29Z</time>
      </trkpt>
      <trkpt lat="43.299824" lon="-8.627579">
        <ele>139.957</ele>
        <time>2019-06-21T11:18:30Z</time>
      </trkpt>
      <trkpt lat="43.299696" lon="-8.627397">
        <ele>138.441</ele>
        <time>2019-06-21T11:18:31Z</time>
      </trkpt>
      <trkpt lat="43.299566" lon="-8.627196">
        <ele>137.281</ele>
        <time>2019-06-21T11:18:32Z</time>
      </trkpt>
      <trkpt lat="43.299425" lon="-8.626979">
        <ele>134.709</ele>
        <time>2019-06-21T11:18:33Z</time>
      </trkpt>
      <trkpt lat="43.299292" lon="-8.626762">
        <ele>132.908</ele>
        <time>2019-06-21T11:18:34Z</time>
      </trkpt>
      <trkpt lat="43.299147" lon="-8.626554">
        <ele>131.517</ele>
        <time>2019-06-21T11:18:35Z</time>
      </trkpt>
      <trkpt lat="43.299006" lon="-8.626346">
        <ele>131.381</ele>
        <time>2019-06-21T11:18:36Z</time>
      </trkpt>
      <trkpt lat="43.298845" lon="-8.626155">
        <ele>132.233</ele>
        <time>2019-06-21T11:18:37Z</time>
      </trkpt>
      <trkpt lat="43.298676" lon="-8.625969">
        <ele>134.865</ele>
        <time>2019-06-21T11:18:38Z</time>
      </trkpt>
      <trkpt lat="43.298499" lon="-8.625802">
        <ele>136.372</ele>
        <time>2019-06-21T11:18:39Z</time>
      </trkpt>
      <trkpt lat="43.298323" lon="-8.625664">
        <ele>136.218</ele>
        <time>2019-06-21T11:18:40Z</time>
      </trkpt>
      <trkpt lat="43.298142" lon="-8.625534">
        <ele>134.212</ele>
        <time>2019-06-21T11:18:41Z</time>
      </trkpt>
      <trkpt lat="43.297950" lon="-8.625471">
        <ele>130.684</ele>
        <time>2019-06-21T11:18:42Z</time>
      </trkpt>
      <trkpt lat="43.297755" lon="-8.625379">
        <ele>127.141</ele>
        <time>2019-06-21T11:18:43Z</time>
      </trkpt>
      <trkpt lat="43.297555" lon="-8.625342">
        <ele>123.781</ele>
        <time>2019-06-21T11:18:44Z</time>
      </trkpt>
      <trkpt lat="43.297373" lon="-8.625304">
        <ele>120.709</ele>
        <time>2019-06-21T11:18:45Z</time>
      </trkpt>
      <trkpt lat="43.297178" lon="-8.625259">
        <ele>117.908</ele>
        <time>2019-06-21T11:18:46Z</time>
      </trkpt>
      <trkpt lat="43.296992" lon="-8.625212">
        <ele>116.927</ele>
        <time>2019-06-21T11:18:47Z</time>
      </trkpt>
      <trkpt lat="43.296840" lon="-8.625116">
        <ele>117.651</ele>
        <time>2019-06-21T11:18:48Z</time>
      </trkpt>
      <trkpt lat="43.296670" lon="-8.625048">
        <ele>118.573</ele>
        <time>2019-06-21T11:18:49Z</time>
      </trkpt>
      <trkpt lat="43.296519" lon="-8.624963">
        <ele>118.965</ele>
        <time>2019-06-21T11:18:50Z</time>
      </trkpt>
      <trkpt lat="43.296392" lon="-8.624850">
        <ele>119.382</ele>
        <time>2019-06-21T11:18:51Z</time>
      </trkpt>
      <trkpt lat="43.296269" lon="-8.624721">
        <ele>118.198</ele>
        <time>2019-06-21T11:18:52Z</time>
      </trkpt>
      <trkpt lat="43.296152" lon="-8.624528">
        <ele>115.382</ele>
        <time>2019-06-21T11:18:53Z</time>
      </trkpt>
      <trkpt lat="43.296106" lon="-8.624315">
        <ele>114.314</ele>
        <time>2019-06-21T11:18:54Z</time>
      </trkpt>
      <trkpt lat="43.296021" lon="-8.624121">
        <ele>112.654</ele>
        <time>2019-06-21T11:18:55Z</time>
      </trkpt>
      <trkpt lat="43.295935" lon="-8.623941">
        <ele>111.756</ele>
        <time>2019-06-21T11:18:56Z</time>
      </trkpt>
      <trkpt lat="43.295841" lon="-8.623803">
        <ele>110.211</ele>
        <time>2019-06-21T11:18:57Z</time>
      </trkpt>
      <trkpt lat="43.295741" lon="-8.623664">
        <ele>108.808</ele>
        <time>2019-06-21T11:18:58Z</time>
      </trkpt>
      <trkpt lat="43.295632" lon="-8.623549">
        <ele>106.918</ele>
        <time>2019-06-21T11:18:59Z</time>
      </trkpt>
      <trkpt lat="43.295510" lon="-8.623447">
        <ele>104.832</ele>
        <time>2019-06-21T11:19:00Z</time>
      </trkpt>
      <trkpt lat="43.295363" lon="-8.623372">
        <ele>101.974</ele>
        <time>2019-06-21T11:19:01Z</time>
      </trkpt>
      <trkpt lat="43.295202" lon="-8.623357">
        <ele>98.666</ele>
        <time>2019-06-21T11:19:02Z</time>
      </trkpt>
      <trkpt lat="43.295053" lon="-8.623299">
        <ele>96.423</ele>
        <time>2019-06-21T11:19:03Z</time>
      </trkpt>
      <trkpt lat="43.294901" lon="-8.623266">
        <ele>94.589</ele>
        <time>2019-06-21T11:19:04Z</time>
      </trkpt>
      <trkpt lat="43.294739" lon="-8.623215">
        <ele>92.543</ele>
        <time>2019-06-21T11:19:05Z</time>
      </trkpt>
      <trkpt lat="43.294573" lon="-8.623151">
        <ele>91.565</ele>
        <time>2019-06-21T11:19:06Z</time>
      </trkpt>
      <trkpt lat="43.294418" lon="-8.623056">
        <ele>91.576</ele>
        <time>2019-06-21T11:19:07Z</time>
      </trkpt>
      <trkpt lat="43.294271" lon="-8.622944">
        <ele>90.390</ele>
        <time>2019-06-21T11:19:08Z</time>
      </trkpt>
      <trkpt lat="43.294121" lon="-8.622813">
        <ele>89.219</ele>
        <time>2019-06-21T11:19:09Z</time>
      </trkpt>
      <trkpt lat="43.293963" lon="-8.622672">
        <ele>85.808</ele>
        <time>2019-06-21T11:19:10Z</time>
      </trkpt>
      <trkpt lat="43.293826" lon="-8.622517">
        <ele>83.840</ele>
        <time>2019-06-21T11:19:11Z</time>
      </trkpt>
      <trkpt lat="43.293689" lon="-8.622375">
        <ele>81.914</ele>
        <time>2019-06-21T11:19:12Z</time>
      </trkpt>
      <trkpt lat="43.293558" lon="-8.622265">
        <ele>80.316</ele>
        <time>2019-06-21T11:19:13Z</time>
      </trkpt>
      <trkpt lat="43.293437" lon="-8.622186">
        <ele>79.228</ele>
        <time>2019-06-21T11:19:14Z</time>
      </trkpt>
      <trkpt lat="43.293320" lon="-8.622153">
        <ele>78.295</ele>
        <time>2019-06-21T11:19:15Z</time>
      </trkpt>
      <trkpt lat="43.293173" lon="-8.622161">
        <ele>77.471</ele>
        <time>2019-06-21T11:19:16Z</time>
      </trkpt>
      <trkpt lat="43.293033" lon="-8.622215">
        <ele>76.865</ele>
        <time>2019-06-21T11:19:17Z</time>
      </trkpt>
      <trkpt lat="43.292899" lon="-8.622322">
        <ele>75.587</ele>
        <time>2019-06-21T11:19:18Z</time>
      </trkpt>
      <trkpt lat="43.292767" lon="-8.622461">
        <ele>74.187</ele>
        <time>2019-06-21T11:19:19Z</time>
      </trkpt>
      <trkpt lat="43.292640" lon="-8.622634">
        <ele>73.542</ele>
        <time>2019-06-21T11:19:20Z</time>
      </trkpt>
      <trkpt lat="43.292507" lon="-8.622827">
        <ele>73.026</ele>
        <time>2019-06-21T11:19:21Z</time>
      </trkpt>
      <trkpt lat="43.292379" lon="-8.623038">
        <ele>73.008</ele>
        <time>2019-06-21T11:19:22Z</time>
      </trkpt>
      <trkpt lat="43.292269" lon="-8.623265">
        <ele>72.271</ele>
        <time>2019-06-21T11:19:23Z</time>
      </trkpt>
      <trkpt lat="43.292160" lon="-8.623474">
        <ele>71.645</ele>
        <time>2019-06-21T11:19:24Z</time>
      </trkpt>
      <trkpt lat="43.292043" lon="-8.623679">
        <ele>70.897</ele>
        <time>2019-06-21T11:19:25Z</time>
      </trkpt>
      <trkpt lat="43.291934" lon="-8.623869">
        <ele>70.119</ele>
        <time>2019-06-21T11:19:26Z</time>
      </trkpt>
      <trkpt lat="43.291815" lon="-8.624055">
        <ele>69.156</ele>
        <time>2019-06-21T11:19:27Z</time>
      </trkpt>
      <trkpt lat="43.291711" lon="-8.624242">
        <ele>67.992</ele>
        <time>2019-06-21T11:19:28Z</time>
      </trkpt>
      <trkpt lat="43.291607" lon="-8.624422">
        <ele>66.416</ele>
        <time>2019-06-21T11:19:29Z</time>
      </trkpt>
      <trkpt lat="43.291516" lon="-8.624600">
        <ele>64.638</ele>
        <time>2019-06-21T11:19:30Z</time>
      </trkpt>
      <trkpt lat="43.291417" lon="-8.624764">
        <ele>63.073</ele>
        <time>2019-06-21T11:19:31Z</time>
      </trkpt>
      <trkpt lat="43.291334" lon="-8.624931">
        <ele>62.085</ele>
        <time>2019-06-21T11:19:32Z</time>
      </trkpt>
      <trkpt lat="43.291235" lon="-8.625094">
        <ele>61.413</ele>
        <time>2019-06-21T11:19:33Z</time>
      </trkpt>
      <trkpt lat="43.291135" lon="-8.625244">
        <ele>61.108</ele>
        <time>2019-06-21T11:19:34Z</time>
      </trkpt>
      <trkpt lat="43.291048" lon="-8.625393">
        <ele>60.470</ele>
        <time>2019-06-21T11:19:35Z</time>
      </trkpt>
      <trkpt lat="43.290956" lon="-8.625550">
        <ele>59.584</ele>
        <time>2019-06-21T11:19:36Z</time>
      </trkpt>
      <trkpt lat="43.290878" lon="-8.625712">
        <ele>58.156</ele>
        <time>2019-06-21T11:19:37Z</time>
      </trkpt>
      <trkpt lat="43.290799" lon="-8.625870">
        <ele>56.718</ele>
        <time>2019-06-21T11:19:38Z</time>
      </trkpt>
      <trkpt lat="43.290717" lon="-8.626037">
        <ele>55.875</ele>
        <time>2019-06-21T11:19:39Z</time>
      </trkpt>
      <trkpt lat="43.290640" lon="-8.626210">
        <ele>54.841</ele>
        <time>2019-06-21T11:19:40Z</time>
      </trkpt>
      <trkpt lat="43.290558" lon="-8.626400">
        <ele>53.915</ele>
        <time>2019-06-21T11:19:41Z</time>
      </trkpt>
      <trkpt lat="43.290469" lon="-8.626582">
        <ele>52.827</ele>
        <time>2019-06-21T11:19:42Z</time>
      </trkpt>
      <trkpt lat="43.290387" lon="-8.626783">
        <ele>51.847</ele>
        <time>2019-06-21T11:19:43Z</time>
      </trkpt>
      <trkpt lat="43.290312" lon="-8.626990">
        <ele>50.529</ele>
        <time>2019-06-21T11:19:44Z</time>
      </trkpt>
      <trkpt lat="43.290248" lon="-8.627203">
        <ele>49.421</ele>
        <time>2019-06-21T11:19:45Z</time>
      </trkpt>
      <trkpt lat="43.290187" lon="-8.627402">
        <ele>49.308</ele>
        <time>2019-06-21T11:19:46Z</time>
      </trkpt>
      <trkpt lat="43.290139" lon="-8.627616">
        <ele>49.127</ele>
        <time>2019-06-21T11:19:47Z</time>
      </trkpt>
      <trkpt lat="43.290092" lon="-8.627810">
        <ele>48.991</ele>
        <time>2019-06-21T11:19:48Z</time>
      </trkpt>
      <trkpt lat="43.290031" lon="-8.628001">
        <ele>48.913</ele>
        <time>2019-06-21T11:19:49Z</time>
      </trkpt>
      <trkpt lat="43.289965" lon="-8.628180">
        <ele>48.785</ele>
        <time>2019-06-21T11:19:50Z</time>
      </trkpt>
      <trkpt lat="43.289883" lon="-8.628356">
        <ele>48.382</ele>
        <time>2019-06-21T11:19:51Z</time>
      </trkpt>
      <trkpt lat="43.289782" lon="-8.628518">
        <ele>48.038</ele>
        <time>2019-06-21T11:19:52Z</time>
      </trkpt>
      <trkpt lat="43.289687" lon="-8.628705">
        <ele>47.352</ele>
        <time>2019-06-21T11:19:53Z</time>
      </trkpt>
      <trkpt lat="43.289598" lon="-8.628900">
        <ele>45.944</ele>
        <time>2019-06-21T11:19:54Z</time>
      </trkpt>
      <trkpt lat="43.289522" lon="-8.629099">
        <ele>44.878</ele>
        <time>2019-06-21T11:19:55Z</time>
      </trkpt>
      <trkpt lat="43.289430" lon="-8.629288">
        <ele>43.733</ele>
        <time>2019-06-21T11:19:56Z</time>
      </trkpt>
      <trkpt lat="43.289337" lon="-8.629479">
        <ele>41.726</ele>
        <time>2019-06-21T11:19:57Z</time>
      </trkpt>
      <trkpt lat="43.289239" lon="-8.629659">
        <ele>40.308</ele>
        <time>2019-06-21T11:19:58Z</time>
      </trkpt>
      <trkpt lat="43.289139" lon="-8.629813">
        <ele>39.260</ele>
        <time>2019-06-21T11:19:59Z</time>
      </trkpt>
      <trkpt lat="43.289034" lon="-8.629980">
        <ele>37.744</ele>
        <time>2019-06-21T11:20:00Z</time>
      </trkpt>
      <trkpt lat="43.288910" lon="-8.630137">
        <ele>36.546</ele>
        <time>2019-06-21T11:20:01Z</time>
      </trkpt>
      <trkpt lat="43.288756" lon="-8.630285">
        <ele>35.988</ele>
        <time>2019-06-21T11:20:02Z</time>
      </trkpt>
      <trkpt lat="43.288594" lon="-8.630431">
        <ele>34.845</ele>
        <time>2019-06-21T11:20:03Z</time>
      </trkpt>
      <trkpt lat="43.288429" lon="-8.630567">
        <ele>33.341</ele>
        <time>2019-06-21T11:20:04Z</time>
      </trkpt>
      <trkpt lat="43.288268" lon="-8.630694">
        <ele>32.755</ele>
        <time>2019-06-21T11:20:05Z</time>
      </trkpt>
      <trkpt lat="43.288113" lon="-8.630820">
        <ele>32.837</ele>
        <time>2019-06-21T11:20:06Z</time>
      </trkpt>
      <trkpt lat="43.287963" lon="-8.630933">
        <ele>33.011</ele>
        <time>2019-06-21T11:20:07Z</time>
      </trkpt>
      <trkpt lat="43.287818" lon="-8.631014">
        <ele>33.221</ele>
        <time>2019-06-21T11:20:08Z</time>
      </trkpt>
      <trkpt lat="43.287694" lon="-8.631085">
        <ele>32.803</ele>
        <time>2019-06-21T11:20:09Z</time>
      </trkpt>
      <trkpt lat="43.287577" lon="-8.631138">
        <ele>32.208</ele>
        <time>2019-06-21T11:20:10Z</time>
      </trkpt>
      <trkpt lat="43.287459" lon="-8.631165">
        <ele>31.564</ele>
        <time>2019-06-21T11:20:11Z</time>
      </trkpt>
      <trkpt lat="43.287344" lon="-8.631169">
        <ele>30.748</ele>
        <time>2019-06-21T11:20:12Z</time>
      </trkpt>
      <trkpt lat="43.287218" lon="-8.631176">
        <ele>29.730</ele>
        <time>2019-06-21T11:20:13Z</time>
      </trkpt>
      <trkpt lat="43.287095" lon="-8.631193">
        <ele>28.882</ele>
        <time>2019-06-21T11:20:14Z</time>
      </trkpt>
      <trkpt lat="43.286970" lon="-8.631232">
        <ele>27.769</ele>
        <time>2019-06-21T11:20:15Z</time>
      </trkpt>
      <trkpt lat="43.286839" lon="-8.631294">
        <ele>26.875</ele>
        <time>2019-06-21T11:20:16Z</time>
      </trkpt>
      <trkpt lat="43.286711" lon="-8.631374">
        <ele>26.229</ele>
        <time>2019-06-21T11:20:17Z</time>
      </trkpt>
      <trkpt lat="43.286587" lon="-8.631479">
        <ele>25.451</ele>
        <time>2019-06-21T11:20:18Z</time>
      </trkpt>
      <trkpt lat="43.286471" lon="-8.631593">
        <ele>24.651</ele>
        <time>2019-06-21T11:20:19Z</time>
      </trkpt>
      <trkpt lat="43.286367" lon="-8.631728">
        <ele>23.801</ele>
        <time>2019-06-21T11:20:20Z</time>
      </trkpt>
      <trkpt lat="43.286274" lon="-8.631848">
        <ele>23.611</ele>
        <time>2019-06-21T11:20:21Z</time>
      </trkpt>
      <trkpt lat="43.286172" lon="-8.631970">
        <ele>23.808</ele>
        <time>2019-06-21T11:20:22Z</time>
      </trkpt>
      <trkpt lat="43.286038" lon="-8.632070">
        <ele>24.488</ele>
        <time>2019-06-21T11:20:23Z</time>
      </trkpt>
      <trkpt lat="43.285895" lon="-8.632154">
        <ele>25.462</ele>
        <time>2019-06-21T11:20:24Z</time>
      </trkpt>
      <trkpt lat="43.285716" lon="-8.632218">
        <ele>26.814</ele>
        <time>2019-06-21T11:20:25Z</time>
      </trkpt>
      <trkpt lat="43.285535" lon="-8.632281">
        <ele>28.736</ele>
        <time>2019-06-21T11:20:26Z</time>
      </trkpt>
      <trkpt lat="43.285346" lon="-8.632353">
        <ele>30.953</ele>
        <time>2019-06-21T11:20:27Z</time>
      </trkpt>
      <trkpt lat="43.285155" lon="-8.632415">
        <ele>32.219</ele>
        <time>2019-06-21T11:20:28Z</time>
      </trkpt>
      <trkpt lat="43.284966" lon="-8.632478">
        <ele>32.633</ele>
        <time>2019-06-21T11:20:29Z</time>
      </trkpt>
      <trkpt lat="43.284775" lon="-8.632542">
        <ele>32.655</ele>
        <time>2019-06-21T11:20:30Z</time>
      </trkpt>
      <trkpt lat="43.284595" lon="-8.632629">
        <ele>33.177</ele>
        <time>2019-06-21T11:20:31Z</time>
      </trkpt>
      <trkpt lat="43.284399" lon="-8.632731">
        <ele>34.661</ele>
        <time>2019-06-21T11:20:32Z</time>
      </trkpt>
      <trkpt lat="43.284202" lon="-8.632836">
        <ele>38.027</ele>
        <time>2019-06-21T11:20:33Z</time>
      </trkpt>
      <trkpt lat="43.284005" lon="-8.632975">
        <ele>41.608</ele>
        <time>2019-06-21T11:20:34Z</time>
      </trkpt>
      <trkpt lat="43.283809" lon="-8.633109">
        <ele>42.660</ele>
        <time>2019-06-21T11:20:35Z</time>
      </trkpt>
      <trkpt lat="43.283621" lon="-8.633280">
        <ele>41.694</ele>
        <time>2019-06-21T11:20:36Z</time>
      </trkpt>
      <trkpt lat="43.283448" lon="-8.633463">
        <ele>41.866</ele>
        <time>2019-06-21T11:20:37Z</time>
      </trkpt>
      <trkpt lat="43.283270" lon="-8.633635">
        <ele>41.868</ele>
        <time>2019-06-21T11:20:38Z</time>
      </trkpt>
      <trkpt lat="43.283070" lon="-8.633811">
        <ele>41.695</ele>
        <time>2019-06-21T11:20:39Z</time>
      </trkpt>
      <trkpt lat="43.282888" lon="-8.634005">
        <ele>41.521</ele>
        <time>2019-06-21T11:20:40Z</time>
      </trkpt>
      <trkpt lat="43.282694" lon="-8.634194">
        <ele>41.575</ele>
        <time>2019-06-21T11:20:41Z</time>
      </trkpt>
      <trkpt lat="43.282507" lon="-8.634397">
        <ele>41.747</ele>
        <time>2019-06-21T11:20:42Z</time>
      </trkpt>
      <trkpt lat="43.282309" lon="-8.634595">
        <ele>41.089</ele>
        <time>2019-06-21T11:20:43Z</time>
      </trkpt>
      <trkpt lat="43.282129" lon="-8.634807">
        <ele>41.006</ele>
        <time>2019-06-21T11:20:44Z</time>
      </trkpt>
      <trkpt lat="43.281940" lon="-8.635006">
        <ele>42.026</ele>
        <time>2019-06-21T11:20:45Z</time>
      </trkpt>
      <trkpt lat="43.281748" lon="-8.635201">
        <ele>42.008</ele>
        <time>2019-06-21T11:20:46Z</time>
      </trkpt>
      <trkpt lat="43.281553" lon="-8.635399">
        <ele>42.721</ele>
        <time>2019-06-21T11:20:47Z</time>
      </trkpt>
      <trkpt lat="43.281366" lon="-8.635603">
        <ele>43.455</ele>
        <time>2019-06-21T11:20:48Z</time>
      </trkpt>
      <trkpt lat="43.281182" lon="-8.635817">
        <ele>44.967</ele>
        <time>2019-06-21T11:20:49Z</time>
      </trkpt>
      <trkpt lat="43.280986" lon="-8.636026">
        <ele>46.139</ele>
        <time>2019-06-21T11:20:50Z</time>
      </trkpt>
      <trkpt lat="43.280790" lon="-8.636235">
        <ele>47.456</ele>
        <time>2019-06-21T11:20:51Z</time>
      </trkpt>
      <trkpt lat="43.280599" lon="-8.636445">
        <ele>48.442</ele>
        <time>2019-06-21T11:20:52Z</time>
      </trkpt>
      <trkpt lat="43.280407" lon="-8.636653">
        <ele>49.916</ele>
        <time>2019-06-21T11:20:53Z</time>
      </trkpt>
      <trkpt lat="43.280218" lon="-8.636857">
        <ele>50.248</ele>
        <time>2019-06-21T11:20:54Z</time>
      </trkpt>
      <trkpt lat="43.280032" lon="-8.637058">
        <ele>51.324</ele>
        <time>2019-06-21T11:20:55Z</time>
      </trkpt>
      <trkpt lat="43.279852" lon="-8.637248">
        <ele>52.004</ele>
        <time>2019-06-21T11:20:56Z</time>
      </trkpt>
      <trkpt lat="43.279677" lon="-8.637437">
        <ele>52.914</ele>
        <time>2019-06-21T11:20:57Z</time>
      </trkpt>
      <trkpt lat="43.279512" lon="-8.637615">
        <ele>54.208</ele>
        <time>2019-06-21T11:20:58Z</time>
      </trkpt>
      <trkpt lat="43.279359" lon="-8.637780">
        <ele>55.375</ele>
        <time>2019-06-21T11:20:59Z</time>
      </trkpt>
      <trkpt lat="43.279217" lon="-8.637933">
        <ele>55.839</ele>
        <time>2019-06-21T11:21:00Z</time>
      </trkpt>
      <trkpt lat="43.279067" lon="-8.638079">
        <ele>56.461</ele>
        <time>2019-06-21T11:21:01Z</time>
      </trkpt>
      <trkpt lat="43.278914" lon="-8.638210">
        <ele>57.413</ele>
        <time>2019-06-21T11:21:02Z</time>
      </trkpt>
      <trkpt lat="43.278748" lon="-8.638324">
        <ele>59.060</ele>
        <time>2019-06-21T11:21:03Z</time>
      </trkpt>
      <trkpt lat="43.278568" lon="-8.638410">
        <ele>61.066</ele>
        <time>2019-06-21T11:21:04Z</time>
      </trkpt>
      <trkpt lat="43.278388" lon="-8.638478">
        <ele>63.020</ele>
        <time>2019-06-21T11:21:05Z</time>
      </trkpt>
      <trkpt lat="43.278220" lon="-8.638534">
        <ele>64.882</ele>
        <time>2019-06-21T11:21:06Z</time>
      </trkpt>
      <trkpt lat="43.278065" lon="-8.638587">
        <ele>66.768</ele>
        <time>2019-06-21T11:21:07Z</time>
      </trkpt>
      <trkpt lat="43.277922" lon="-8.638648">
        <ele>67.642</ele>
        <time>2019-06-21T11:21:08Z</time>
      </trkpt>
      <trkpt lat="43.277785" lon="-8.638737">
        <ele>68.926</ele>
        <time>2019-06-21T11:21:09Z</time>
      </trkpt>
      <trkpt lat="43.277645" lon="-8.638849">
        <ele>70.208</ele>
        <time>2019-06-21T11:21:10Z</time>
      </trkpt>
      <trkpt lat="43.277508" lon="-8.638983">
        <ele>71.359</ele>
        <time>2019-06-21T11:21:11Z</time>
      </trkpt>
      <trkpt lat="43.277384" lon="-8.639139">
        <ele>72.313</ele>
        <time>2019-06-21T11:21:12Z</time>
      </trkpt>
      <trkpt lat="43.277241" lon="-8.639295">
        <ele>72.995</ele>
        <time>2019-06-21T11:21:13Z</time>
      </trkpt>
      <trkpt lat="43.277113" lon="-8.639459">
        <ele>74.347</ele>
        <time>2019-06-21T11:21:14Z</time>
      </trkpt>
      <trkpt lat="43.276992" lon="-8.639610">
        <ele>76.214</ele>
        <time>2019-06-21T11:21:15Z</time>
      </trkpt>
      <trkpt lat="43.276871" lon="-8.639773">
        <ele>78.280</ele>
        <time>2019-06-21T11:21:16Z</time>
      </trkpt>
      <trkpt lat="43.276760" lon="-8.639926">
        <ele>80.444</ele>
        <time>2019-06-21T11:21:17Z</time>
      </trkpt>
      <trkpt lat="43.276645" lon="-8.640088">
        <ele>82.756</ele>
        <time>2019-06-21T11:21:18Z</time>
      </trkpt>
      <trkpt lat="43.276552" lon="-8.640284">
        <ele>85.198</ele>
        <time>2019-06-21T11:21:19Z</time>
      </trkpt>
      <trkpt lat="43.276458" lon="-8.640492">
        <ele>86.815</ele>
        <time>2019-06-21T11:21:20Z</time>
      </trkpt>
      <trkpt lat="43.276377" lon="-8.640685">
        <ele>88.226</ele>
        <time>2019-06-21T11:21:21Z</time>
      </trkpt>
      <trkpt lat="43.276307" lon="-8.640862">
        <ele>89.808</ele>
        <time>2019-06-21T11:21:22Z</time>
      </trkpt>
      <trkpt lat="43.276253" lon="-8.641032">
        <ele>91.392</ele>
        <time>2019-06-21T11:21:23Z</time>
      </trkpt>
      <trkpt lat="43.276204" lon="-8.641196">
        <ele>92.856</ele>
        <time>2019-06-21T11:21:24Z</time>
      </trkpt>
      <trkpt lat="43.276202" lon="-8.641367">
        <ele>93.088</ele>
        <time>2019-06-21T11:21:25Z</time>
      </trkpt>
      <trkpt lat="43.276215" lon="-8.641541">
        <ele>93.950</ele>
        <time>2019-06-21T11:21:26Z</time>
      </trkpt>
      <trkpt lat="43.276246" lon="-8.641721">
        <ele>94.797</ele>
        <time>2019-06-21T11:21:27Z</time>
      </trkpt>
      <trkpt lat="43.276305" lon="-8.641899">
        <ele>95.333</ele>
        <time>2019-06-21T11:21:28Z</time>
      </trkpt>
      <trkpt lat="43.276378" lon="-8.642078">
        <ele>96.157</ele>
        <time>2019-06-21T11:21:29Z</time>
      </trkpt>
      <trkpt lat="43.276472" lon="-8.642270">
        <ele>96.589</ele>
        <time>2019-06-21T11:21:30Z</time>
      </trkpt>
      <trkpt lat="43.276568" lon="-8.642466">
        <ele>96.714</ele>
        <time>2019-06-21T11:21:31Z</time>
      </trkpt>
      <trkpt lat="43.276665" lon="-8.642662">
        <ele>96.854</ele>
        <time>2019-06-21T11:21:32Z</time>
      </trkpt>
      <trkpt lat="43.276766" lon="-8.642862">
        <ele>97.509</ele>
        <time>2019-06-21T11:21:33Z</time>
      </trkpt>
      <trkpt lat="43.276867" lon="-8.643065">
        <ele>97.908</ele>
        <time>2019-06-21T11:21:34Z</time>
      </trkpt>
      <trkpt lat="43.276963" lon="-8.643263">
        <ele>99.054</ele>
        <time>2019-06-21T11:21:35Z</time>
      </trkpt>
      <trkpt lat="43.277060" lon="-8.643465">
        <ele>99.758</ele>
        <time>2019-06-21T11:21:36Z</time>
      </trkpt>
      <trkpt lat="43.277156" lon="-8.643671">
        <ele>100.280</ele>
        <time>2019-06-21T11:21:37Z</time>
      </trkpt>
      <trkpt lat="43.277254" lon="-8.643890">
        <ele>100.992</ele>
        <time>2019-06-21T11:21:38Z</time>
      </trkpt>
      <trkpt lat="43.277356" lon="-8.644112">
        <ele>101.739</ele>
        <time>2019-06-21T11:21:39Z</time>
      </trkpt>
      <trkpt lat="43.277460" lon="-8.644338">
        <ele>100.855</ele>
        <time>2019-06-21T11:21:40Z</time>
      </trkpt>
      <trkpt lat="43.277559" lon="-8.644562">
        <ele>99.549</ele>
        <time>2019-06-21T11:21:41Z</time>
      </trkpt>
      <trkpt lat="43.277677" lon="-8.644802">
        <ele>99.231</ele>
        <time>2019-06-21T11:21:42Z</time>
      </trkpt>
      <trkpt lat="43.277786" lon="-8.645035">
        <ele>100.256</ele>
        <time>2019-06-21T11:21:43Z</time>
      </trkpt>
      <trkpt lat="43.277897" lon="-8.645270">
        <ele>99.959</ele>
        <time>2019-06-21T11:21:44Z</time>
      </trkpt>
      <trkpt lat="43.278004" lon="-8.645501">
        <ele>98.914</ele>
        <time>2019-06-21T11:21:45Z</time>
      </trkpt>
      <trkpt lat="43.278110" lon="-8.645732">
        <ele>98.408</ele>
        <time>2019-06-21T11:21:46Z</time>
      </trkpt>
      <trkpt lat="43.278213" lon="-8.645955">
        <ele>99.178</ele>
        <time>2019-06-21T11:21:47Z</time>
      </trkpt>
      <trkpt lat="43.278314" lon="-8.646171">
        <ele>101.442</ele>
        <time>2019-06-21T11:21:48Z</time>
      </trkpt>
      <trkpt lat="43.278411" lon="-8.646377">
        <ele>103.024</ele>
        <time>2019-06-21T11:21:49Z</time>
      </trkpt>
      <trkpt lat="43.278505" lon="-8.646573">
        <ele>103.556</ele>
        <time>2019-06-21T11:21:50Z</time>
      </trkpt>
      <trkpt lat="43.278592" lon="-8.646762">
        <ele>103.723</ele>
        <time>2019-06-21T11:21:51Z</time>
      </trkpt>
      <trkpt lat="43.278674" lon="-8.646945">
        <ele>101.649</ele>
        <time>2019-06-21T11:21:52Z</time>
      </trkpt>
      <trkpt lat="43.278749" lon="-8.647125">
        <ele>100.553</ele>
        <time>2019-06-21T11:21:53Z</time>
      </trkpt>
      <trkpt lat="43.278805" lon="-8.647326">
        <ele>99.595</ele>
        <time>2019-06-21T11:21:54Z</time>
      </trkpt>
      <trkpt lat="43.278843" lon="-8.647552">
        <ele>99.256</ele>
        <time>2019-06-21T11:21:55Z</time>
      </trkpt>
      <trkpt lat="43.278858" lon="-8.647788">
        <ele>99.459</ele>
        <time>2019-06-21T11:21:56Z</time>
      </trkpt>
      <trkpt lat="43.278855" lon="-8.648028">
        <ele>100.914</ele>
        <time>2019-06-21T11:21:57Z</time>
      </trkpt>
      <trkpt lat="43.278829" lon="-8.648256">
        <ele>101.608</ele>
        <time>2019-06-21T11:21:58Z</time>
      </trkpt>
      <trkpt lat="43.278767" lon="-8.648469">
        <ele>103.398</ele>
        <time>2019-06-21T11:21:59Z</time>
      </trkpt>
      <trkpt lat="43.278687" lon="-8.648677">
        <ele>105.662</ele>
        <time>2019-06-21T11:22:00Z</time>
      </trkpt>
      <trkpt lat="43.278589" lon="-8.648866">
        <ele>107.374</ele>
        <time>2019-06-21T11:22:01Z</time>
      </trkpt>
      <trkpt lat="43.278461" lon="-8.649019">
        <ele>109.376</ele>
        <time>2019-06-21T11:22:02Z</time>
      </trkpt>
      <trkpt lat="43.278339" lon="-8.649167">
        <ele>110.043</ele>
        <time>2019-06-21T11:22:03Z</time>
      </trkpt>
      <trkpt lat="43.278165" lon="-8.649242">
        <ele>109.779</ele>
        <time>2019-06-21T11:22:04Z</time>
      </trkpt>
      <trkpt lat="43.277991" lon="-8.649309">
        <ele>109.433</ele>
        <time>2019-06-21T11:22:05Z</time>
      </trkpt>
      <trkpt lat="43.277825" lon="-8.649358">
        <ele>108.715</ele>
        <time>2019-06-21T11:22:06Z</time>
      </trkpt>
      <trkpt lat="43.277631" lon="-8.649361">
        <ele>109.772</ele>
        <time>2019-06-21T11:22:07Z</time>
      </trkpt>
      <trkpt lat="43.277451" lon="-8.649359">
        <ele>111.013</ele>
        <time>2019-06-21T11:22:08Z</time>
      </trkpt>
      <trkpt lat="43.277263" lon="-8.649353">
        <ele>112.614</ele>
        <time>2019-06-21T11:22:09Z</time>
      </trkpt>
      <trkpt lat="43.277072" lon="-8.649347">
        <ele>114.908</ele>
        <time>2019-06-21T11:22:10Z</time>
      </trkpt>
      <trkpt lat="43.276880" lon="-8.649334">
        <ele>117.570</ele>
        <time>2019-06-21T11:22:11Z</time>
      </trkpt>
      <trkpt lat="43.276694" lon="-8.649323">
        <ele>120.484</ele>
        <time>2019-06-21T11:22:12Z</time>
      </trkpt>
      <trkpt lat="43.276500" lon="-8.649310">
        <ele>122.716</ele>
        <time>2019-06-21T11:22:13Z</time>
      </trkpt>
      <trkpt lat="43.276298" lon="-8.649294">
        <ele>124.398</ele>
        <time>2019-06-21T11:22:14Z</time>
      </trkpt>
      <trkpt lat="43.276104" lon="-8.649271">
        <ele>125.195</ele>
        <time>2019-06-21T11:22:15Z</time>
      </trkpt>
      <trkpt lat="43.275912" lon="-8.649248">
        <ele>126.351</ele>
        <time>2019-06-21T11:22:16Z</time>
      </trkpt>
      <trkpt lat="43.275713" lon="-8.649209">
        <ele>128.135</ele>
        <time>2019-06-21T11:22:17Z</time>
      </trkpt>
      <trkpt lat="43.275522" lon="-8.649163">
        <ele>130.227</ele>
        <time>2019-06-21T11:22:18Z</time>
      </trkpt>
      <trkpt lat="43.275338" lon="-8.649055">
        <ele>133.537</ele>
        <time>2019-06-21T11:22:19Z</time>
      </trkpt>
      <trkpt lat="43.275161" lon="-8.648952">
        <ele>136.149</ele>
        <time>2019-06-21T11:22:20Z</time>
      </trkpt>
      <trkpt lat="43.274997" lon="-8.648824">
        <ele>137.913</ele>
        <time>2019-06-21T11:22:21Z</time>
      </trkpt>
      <trkpt lat="43.274835" lon="-8.648712">
        <ele>137.008</ele>
        <time>2019-06-21T11:22:22Z</time>
      </trkpt>
      <trkpt lat="43.274706" lon="-8.648579">
        <ele>137.136</ele>
        <time>2019-06-21T11:22:23Z</time>
      </trkpt>
      <trkpt lat="43.274576" lon="-8.648451">
        <ele>136.690</ele>
        <time>2019-06-21T11:22:24Z</time>
      </trkpt>
      <trkpt lat="43.274451" lon="-8.648344">
        <ele>136.032</ele>
        <time>2019-06-21T11:22:25Z</time>
      </trkpt>
      <trkpt lat="43.274330" lon="-8.648243">
        <ele>135.844</ele>
        <time>2019-06-21T11:22:26Z</time>
      </trkpt>
      <trkpt lat="43.274200" lon="-8.648156">
        <ele>135.591</ele>
        <time>2019-06-21T11:22:27Z</time>
      </trkpt>
      <trkpt lat="43.274064" lon="-8.648091">
        <ele>135.477</ele>
        <time>2019-06-21T11:22:28Z</time>
      </trkpt>
      <trkpt lat="43.273919" lon="-8.648040">
        <ele>135.331</ele>
        <time>2019-06-21T11:22:29Z</time>
      </trkpt>
      <trkpt lat="43.273769" lon="-8.648021">
        <ele>135.493</ele>
        <time>2019-06-21T11:22:30Z</time>
      </trkpt>
      <trkpt lat="43.273623" lon="-8.648030">
        <ele>135.335</ele>
        <time>2019-06-21T11:22:31Z</time>
      </trkpt>
      <trkpt lat="43.273473" lon="-8.648091">
        <ele>135.886</ele>
        <time>2019-06-21T11:22:32Z</time>
      </trkpt>
      <trkpt lat="43.273329" lon="-8.648174">
        <ele>136.614</ele>
        <time>2019-06-21T11:22:33Z</time>
      </trkpt>
      <trkpt lat="43.273190" lon="-8.648285">
        <ele>138.208</ele>
        <time>2019-06-21T11:22:34Z</time>
      </trkpt>
      <trkpt lat="43.273055" lon="-8.648432">
        <ele>139.396</ele>
        <time>2019-06-21T11:22:35Z</time>
      </trkpt>
      <trkpt lat="43.272938" lon="-8.648618">
        <ele>140.950</ele>
        <time>2019-06-21T11:22:36Z</time>
      </trkpt>
      <trkpt lat="43.272822" lon="-8.648812">
        <ele>140.472</ele>
        <time>2019-06-21T11:22:37Z</time>
      </trkpt>
      <trkpt lat="43.272695" lon="-8.649016">
        <ele>140.184</ele>
        <time>2019-06-21T11:22:38Z</time>
      </trkpt>
      <trkpt lat="43.272558" lon="-8.649222">
        <ele>139.791</ele>
        <time>2019-06-21T11:22:39Z</time>
      </trkpt>
      <trkpt lat="43.272414" lon="-8.649425">
        <ele>140.487</ele>
        <time>2019-06-21T11:22:40Z</time>
      </trkpt>
      <trkpt lat="43.272259" lon="-8.649618">
        <ele>142.881</ele>
        <time>2019-06-21T11:22:41Z</time>
      </trkpt>
      <trkpt lat="43.272096" lon="-8.649810">
        <ele>146.153</ele>
        <time>2019-06-21T11:22:42Z</time>
      </trkpt>
      <trkpt lat="43.271931" lon="-8.649986">
        <ele>149.526</ele>
        <time>2019-06-21T11:22:43Z</time>
      </trkpt>
      <trkpt lat="43.271764" lon="-8.650169">
        <ele>150.147</ele>
        <time>2019-06-21T11:22:44Z</time>
      </trkpt>
      <trkpt lat="43.271595" lon="-8.650351">
        <ele>150.211</ele>
        <time>2019-06-21T11:22:45Z</time>
      </trkpt>
      <trkpt lat="43.271424" lon="-8.650536">
        <ele>150.608</ele>
        <time>2019-06-21T11:22:46Z</time>
      </trkpt>
      <trkpt lat="43.271258" lon="-8.650734">
        <ele>151.375</ele>
        <time>2019-06-21T11:22:47Z</time>
      </trkpt>
      <trkpt lat="43.271090" lon="-8.650934">
        <ele>151.989</ele>
        <time>2019-06-21T11:22:48Z</time>
      </trkpt>
      <trkpt lat="43.270945" lon="-8.651149">
        <ele>152.711</ele>
        <time>2019-06-21T11:22:49Z</time>
      </trkpt>
      <trkpt lat="43.270803" lon="-8.651366">
        <ele>153.683</ele>
        <time>2019-06-21T11:22:50Z</time>
      </trkpt>
      <trkpt lat="43.270669" lon="-8.651601">
        <ele>158.280</ele>
        <time>2019-06-21T11:22:51Z</time>
      </trkpt>
      <trkpt lat="43.270544" lon="-8.651854">
        <ele>162.116</ele>
        <time>2019-06-21T11:22:52Z</time>
      </trkpt>
      <trkpt lat="43.270422" lon="-8.652109">
        <ele>165.520</ele>
        <time>2019-06-21T11:22:53Z</time>
      </trkpt>
      <trkpt lat="43.270310" lon="-8.652374">
        <ele>167.982</ele>
        <time>2019-06-21T11:22:54Z</time>
      </trkpt>
      <trkpt lat="43.270214" lon="-8.652644">
        <ele>167.646</ele>
        <time>2019-06-21T11:22:55Z</time>
      </trkpt>
      <trkpt lat="43.270120" lon="-8.652896">
        <ele>166.788</ele>
        <time>2019-06-21T11:22:56Z</time>
      </trkpt>
      <trkpt lat="43.270028" lon="-8.653159">
        <ele>166.716</ele>
        <time>2019-06-21T11:22:57Z</time>
      </trkpt>
      <trkpt lat="43.269939" lon="-8.653419">
        <ele>170.408</ele>
        <time>2019-06-21T11:22:58Z</time>
      </trkpt>
      <trkpt lat="43.269845" lon="-8.653675">
        <ele>175.887</ele>
        <time>2019-06-21T11:22:59Z</time>
      </trkpt>
      <trkpt lat="43.269746" lon="-8.653931">
        <ele>179.311</ele>
        <time>2019-06-21T11:23:00Z</time>
      </trkpt>
      <trkpt lat="43.269623" lon="-8.654167">
        <ele>181.523</ele>
        <time>2019-06-21T11:23:01Z</time>
      </trkpt>
      <trkpt lat="43.269492" lon="-8.654408">
        <ele>183.165</ele>
        <time>2019-06-21T11:23:02Z</time>
      </trkpt>
      <trkpt lat="43.269357" lon="-8.654637">
        <ele>184.422</ele>
        <time>2019-06-21T11:23:03Z</time>
      </trkpt>
      <trkpt lat="43.269216" lon="-8.654868">
        <ele>185.348</ele>
        <time>2019-06-21T11:23:04Z</time>
      </trkpt>
      <trkpt lat="43.269081" lon="-8.655102">
        <ele>185.262</ele>
        <time>2019-06-21T11:23:05Z</time>
      </trkpt>
      <trkpt lat="43.268956" lon="-8.655332">
        <ele>186.034</ele>
        <time>2019-06-21T11:23:06Z</time>
      </trkpt>
      <trkpt lat="43.268841" lon="-8.655574">
        <ele>187.819</ele>
        <time>2019-06-21T11:23:07Z</time>
      </trkpt>
      <trkpt lat="43.268733" lon="-8.655817">
        <ele>190.809</ele>
        <time>2019-06-21T11:23:08Z</time>
      </trkpt>
      <trkpt lat="43.268631" lon="-8.656061">
        <ele>195.219</ele>
        <time>2019-06-21T11:23:09Z</time>
      </trkpt>
      <trkpt lat="43.268539" lon="-8.656308">
        <ele>197.208</ele>
        <time>2019-06-21T11:23:10Z</time>
      </trkpt>
      <trkpt lat="43.268471" lon="-8.656569">
        <ele>198.194</ele>
        <time>2019-06-21T11:23:11Z</time>
      </trkpt>
      <trkpt lat="43.268410" lon="-8.656824">
        <ele>198.378</ele>
        <time>2019-06-21T11:23:12Z</time>
      </trkpt>
      <trkpt lat="43.268356" lon="-8.657085">
        <ele>198.060</ele>
        <time>2019-06-21T11:23:13Z</time>
      </trkpt>
      <trkpt lat="43.268334" lon="-8.657342">
        <ele>198.082</ele>
        <time>2019-06-21T11:23:14Z</time>
      </trkpt>
      <trkpt lat="43.268294" lon="-8.657579">
        <ele>198.129</ele>
        <time>2019-06-21T11:23:15Z</time>
      </trkpt>
      <trkpt lat="43.268253" lon="-8.657808">
        <ele>197.125</ele>
        <time>2019-06-21T11:23:16Z</time>
      </trkpt>
      <trkpt lat="43.268221" lon="-8.658028">
        <ele>196.139</ele>
        <time>2019-06-21T11:23:17Z</time>
      </trkpt>
      <trkpt lat="43.268187" lon="-8.658241">
        <ele>195.481</ele>
        <time>2019-06-21T11:23:18Z</time>
      </trkpt>
      <trkpt lat="43.268150" lon="-8.658476">
        <ele>195.354</ele>
        <time>2019-06-21T11:23:19Z</time>
      </trkpt>
      <trkpt lat="43.268100" lon="-8.658701">
        <ele>196.056</ele>
        <time>2019-06-21T11:23:20Z</time>
      </trkpt>
      <trkpt lat="43.268047" lon="-8.658937">
        <ele>197.111</ele>
        <time>2019-06-21T11:23:21Z</time>
      </trkpt>
      <trkpt lat="43.267953" lon="-8.659182">
        <ele>197.808</ele>
        <time>2019-06-21T11:23:22Z</time>
      </trkpt>
      <trkpt lat="43.267868" lon="-8.659416">
        <ele>198.938</ele>
        <time>2019-06-21T11:23:23Z</time>
      </trkpt>
      <trkpt lat="43.267778" lon="-8.659646">
        <ele>199.012</ele>
        <time>2019-06-21T11:23:24Z</time>
      </trkpt>
      <trkpt lat="43.267675" lon="-8.659858">
        <ele>200.594</ele>
        <time>2019-06-21T11:23:25Z</time>
      </trkpt>
      <trkpt lat="43.267566" lon="-8.660077">
        <ele>202.466</ele>
        <time>2019-06-21T11:23:26Z</time>
      </trkpt>
      <trkpt lat="43.267451" lon="-8.660298">
        <ele>204.283</ele>
        <time>2019-06-21T11:23:27Z</time>
      </trkpt>
      <trkpt lat="43.267341" lon="-8.660529">
        <ele>206.259</ele>
        <time>2019-06-21T11:23:28Z</time>
      </trkpt>
      <trkpt lat="43.267235" lon="-8.660762">
        <ele>209.073</ele>
        <time>2019-06-21T11:23:29Z</time>
      </trkpt>
      <trkpt lat="43.267121" lon="-8.661004">
        <ele>212.275</ele>
        <time>2019-06-21T11:23:30Z</time>
      </trkpt>
      <trkpt lat="43.267013" lon="-8.661251">
        <ele>213.979</ele>
        <time>2019-06-21T11:23:31Z</time>
      </trkpt>
      <trkpt lat="43.266906" lon="-8.661500">
        <ele>214.205</ele>
        <time>2019-06-21T11:23:32Z</time>
      </trkpt>
      <trkpt lat="43.266811" lon="-8.661769">
        <ele>214.225</ele>
        <time>2019-06-21T11:23:33Z</time>
      </trkpt>
      <trkpt lat="43.266718" lon="-8.662034">
        <ele>214.508</ele>
        <time>2019-06-21T11:23:34Z</time>
      </trkpt>
      <trkpt lat="43.266588" lon="-8.662292">
        <ele>214.970</ele>
        <time>2019-06-21T11:23:35Z</time>
      </trkpt>
      <trkpt lat="43.266470" lon="-8.662543">
        <ele>214.214</ele>
        <time>2019-06-21T11:23:36Z</time>
      </trkpt>
      <trkpt lat="43.266359" lon="-8.662794">
        <ele>212.896</ele>
        <time>2019-06-21T11:23:37Z</time>
      </trkpt>
      <trkpt lat="43.266229" lon="-8.663011">
        <ele>212.768</ele>
        <time>2019-06-21T11:23:38Z</time>
      </trkpt>
      <trkpt lat="43.266099" lon="-8.663213">
        <ele>213.145</ele>
        <time>2019-06-21T11:23:39Z</time>
      </trkpt>
      <trkpt lat="43.265963" lon="-8.663412">
        <ele>214.071</ele>
        <time>2019-06-21T11:23:40Z</time>
      </trkpt>
      <trkpt lat="43.265825" lon="-8.663594">
        <ele>214.855</ele>
        <time>2019-06-21T11:23:41Z</time>
      </trkpt>
      <trkpt lat="43.265693" lon="-8.663794">
        <ele>215.217</ele>
        <time>2019-06-21T11:23:42Z</time>
      </trkpt>
      <trkpt lat="43.265552" lon="-8.663977">
        <ele>215.369</ele>
        <time>2019-06-21T11:23:43Z</time>
      </trkpt>
      <trkpt lat="43.265413" lon="-8.664158">
        <ele>216.004</ele>
        <time>2019-06-21T11:23:44Z</time>
      </trkpt>
      <trkpt lat="43.265260" lon="-8.664317">
        <ele>215.924</ele>
        <time>2019-06-21T11:23:45Z</time>
      </trkpt>
      <trkpt lat="43.265095" lon="-8.664470">
        <ele>214.808</ele>
        <time>2019-06-21T11:23:46Z</time>
      </trkpt>
      <trkpt lat="43.264923" lon="-8.664621">
        <ele>213.679</ele>
        <time>2019-06-21T11:23:47Z</time>
      </trkpt>
      <trkpt lat="43.264722" lon="-8.664757">
        <ele>211.433</ele>
        <time>2019-06-21T11:23:48Z</time>
      </trkpt>
      <trkpt lat="43.264524" lon="-8.664881">
        <ele>212.125</ele>
        <time>2019-06-21T11:23:49Z</time>
      </trkpt>
      <trkpt lat="43.264341" lon="-8.664986">
        <ele>214.197</ele>
        <time>2019-06-21T11:23:50Z</time>
      </trkpt>
      <trkpt lat="43.264135" lon="-8.665052">
        <ele>216.664</ele>
        <time>2019-06-21T11:23:51Z</time>
      </trkpt>
      <trkpt lat="43.263934" lon="-8.665105">
        <ele>221.360</ele>
        <time>2019-06-21T11:23:52Z</time>
      </trkpt>
      <trkpt lat="43.263744" lon="-8.665167">
        <ele>225.694</ele>
        <time>2019-06-21T11:23:53Z</time>
      </trkpt>
      <trkpt lat="43.263510" lon="-8.665106">
        <ele>229.156</ele>
        <time>2019-06-21T11:23:54Z</time>
      </trkpt>
      <trkpt lat="43.263303" lon="-8.665086">
        <ele>231.488</ele>
        <time>2019-06-21T11:23:55Z</time>
      </trkpt>
      <trkpt lat="43.263092" lon="-8.665041">
        <ele>231.824</ele>
        <time>2019-06-21T11:23:56Z</time>
      </trkpt>
      <trkpt lat="43.262888" lon="-8.664994">
        <ele>232.626</ele>
        <time>2019-06-21T11:23:57Z</time>
      </trkpt>
      <trkpt lat="43.262682" lon="-8.664926">
        <ele>233.408</ele>
        <time>2019-06-21T11:23:58Z</time>
      </trkpt>
      <trkpt lat="43.262478" lon="-8.664854">
        <ele>234.071</ele>
        <time>2019-06-21T11:23:59Z</time>
      </trkpt>
      <trkpt lat="43.262278" lon="-8.664763">
        <ele>234.045</ele>
        <time>2019-06-21T11:24:00Z</time>
      </trkpt>
      <trkpt lat="43.262061" lon="-8.664663">
        <ele>235.677</ele>
        <time>2019-06-21T11:24:01Z</time>
      </trkpt>
      <trkpt lat="43.261859" lon="-8.664574">
        <ele>238.159</ele>
        <time>2019-06-21T11:24:02Z</time>
      </trkpt>
      <trkpt lat="43.261670" lon="-8.664500">
        <ele>240.856</ele>
        <time>2019-06-21T11:24:03Z</time>
      </trkpt>
      <trkpt lat="43.261464" lon="-8.664425">
        <ele>243.972</ele>
        <time>2019-06-21T11:24:04Z</time>
      </trkpt>
      <trkpt lat="43.261258" lon="-8.664342">
        <ele>246.526</ele>
        <time>2019-06-21T11:24:05Z</time>
      </trkpt>
      <trkpt lat="43.261047" lon="-8.664258">
        <ele>248.628</ele>
        <time>2019-06-21T11:24:06Z</time>
      </trkpt>
      <trkpt lat="43.260849" lon="-8.664169">
        <ele>249.097</ele>
        <time>2019-06-21T11:24:07Z</time>
      </trkpt>
      <trkpt lat="43.260638" lon="-8.664088">
        <ele>248.923</ele>
        <time>2019-06-21T11:24:08Z</time>
      </trkpt>
      <trkpt lat="43.260448" lon="-8.664004">
        <ele>248.625</ele>
        <time>2019-06-21T11:24:09Z</time>
      </trkpt>
      <trkpt lat="43.260266" lon="-8.663915">
        <ele>248.308</ele>
        <time>2019-06-21T11:24:10Z</time>
      </trkpt>
      <trkpt lat="43.260098" lon="-8.663833">
        <ele>247.712</ele>
        <time>2019-06-21T11:24:11Z</time>
      </trkpt>
      <trkpt lat="43.259928" lon="-8.663753">
        <ele>247.516</ele>
        <time>2019-06-21T11:24:12Z</time>
      </trkpt>
      <trkpt lat="43.259747" lon="-8.663671">
        <ele>247.288</ele>
        <time>2019-06-21T11:24:13Z</time>
      </trkpt>
      <trkpt lat="43.259575" lon="-8.663591">
        <ele>246.470</ele>
        <time>2019-06-21T11:24:14Z</time>
      </trkpt>
      <trkpt lat="43.259408" lon="-8.663513">
        <ele>245.667</ele>
        <time>2019-06-21T11:24:15Z</time>
      </trkpt>
      <trkpt lat="43.259237" lon="-8.663438">
        <ele>244.953</ele>
        <time>2019-06-21T11:24:16Z</time>
      </trkpt>
      <trkpt lat="43.259061" lon="-8.663382">
        <ele>244.377</ele>
        <time>2019-06-21T11:24:17Z</time>
      </trkpt>
      <trkpt lat="43.258911" lon="-8.663335">
        <ele>244.069</ele>
        <time>2019-06-21T11:24:18Z</time>
      </trkpt>
      <trkpt lat="43.258753" lon="-8.663297">
        <ele>242.268</ele>
        <time>2019-06-21T11:24:19Z</time>
      </trkpt>
      <trkpt lat="43.258586" lon="-8.663291">
        <ele>240.242</ele>
        <time>2019-06-21T11:24:20Z</time>
      </trkpt>
      <trkpt lat="43.258419" lon="-8.663287">
        <ele>237.726</ele>
        <time>2019-06-21T11:24:21Z</time>
      </trkpt>
      <trkpt lat="43.258239" lon="-8.663291">
        <ele>235.208</ele>
        <time>2019-06-21T11:24:22Z</time>
      </trkpt>
      <trkpt lat="43.258051" lon="-8.663315">
        <ele>232.899</ele>
        <time>2019-06-21T11:24:23Z</time>
      </trkpt>
      <trkpt lat="43.257859" lon="-8.663345">
        <ele>231.763</ele>
        <time>2019-06-21T11:24:24Z</time>
      </trkpt>
      <trkpt lat="43.257671" lon="-8.663384">
        <ele>230.035</ele>
        <time>2019-06-21T11:24:25Z</time>
      </trkpt>
      <trkpt lat="43.257471" lon="-8.663419">
        <ele>228.157</ele>
        <time>2019-06-21T11:24:26Z</time>
      </trkpt>
      <trkpt lat="43.257288" lon="-8.663442">
        <ele>227.294</ele>
        <time>2019-06-21T11:24:27Z</time>
      </trkpt>
      <trkpt lat="43.257124" lon="-8.663466">
        <ele>226.210</ele>
        <time>2019-06-21T11:24:28Z</time>
      </trkpt>
      <trkpt lat="43.256977" lon="-8.663498">
        <ele>225.424</ele>
        <time>2019-06-21T11:24:29Z</time>
      </trkpt>
      <trkpt lat="43.256865" lon="-8.663523">
        <ele>224.676</ele>
        <time>2019-06-21T11:24:30Z</time>
      </trkpt>
      <trkpt lat="43.256764" lon="-8.663557">
        <ele>223.852</ele>
        <time>2019-06-21T11:24:31Z</time>
      </trkpt>
      <trkpt lat="43.256685" lon="-8.663577">
        <ele>223.153</ele>
        <time>2019-06-21T11:24:32Z</time>
      </trkpt>
      <trkpt lat="43.256640" lon="-8.663598">
        <ele>222.808</ele>
        <time>2019-06-21T11:24:33Z</time>
      </trkpt>
      <trkpt lat="43.256593" lon="-8.663609">
        <ele>222.508</ele>
        <time>2019-06-21T11:24:35Z</time>
      </trkpt>
      <trkpt lat="43.256546" lon="-8.663571">
        <ele>222.068</ele>
        <time>2019-06-21T11:24:38Z</time>
      </trkpt>
      <trkpt lat="43.256613" lon="-8.663547">
        <ele>222.422</ele>
        <time>2019-06-21T11:24:40Z</time>
      </trkpt>
      <trkpt lat="43.256691" lon="-8.663543">
        <ele>223.034</ele>
        <time>2019-06-21T11:24:41Z</time>
      </trkpt>
      <trkpt lat="43.256776" lon="-8.663524">
        <ele>223.736</ele>
        <time>2019-06-21T11:24:42Z</time>
      </trkpt>
      <trkpt lat="43.256861" lon="-8.663505">
        <ele>224.413</ele>
        <time>2019-06-21T11:24:43Z</time>
      </trkpt>
      <trkpt lat="43.256960" lon="-8.663498">
        <ele>225.369</ele>
        <time>2019-06-21T11:24:44Z</time>
      </trkpt>
      <trkpt lat="43.257031" lon="-8.663497">
        <ele>225.873</ele>
        <time>2019-06-21T11:24:45Z</time>
      </trkpt>
      <trkpt lat="43.257094" lon="-8.663515">
        <ele>226.465</ele>
        <time>2019-06-21T11:24:46Z</time>
      </trkpt>
      <trkpt lat="43.257147" lon="-8.663569">
        <ele>227.256</ele>
        <time>2019-06-21T11:24:47Z</time>
      </trkpt>
      <trkpt lat="43.257172" lon="-8.663632">
        <ele>228.059</ele>
        <time>2019-06-21T11:24:48Z</time>
      </trkpt>
      <trkpt lat="43.257188" lon="-8.663704">
        <ele>229.414</ele>
        <time>2019-06-21T11:24:49Z</time>
      </trkpt>
      <trkpt lat="43.257159" lon="-8.663810">
        <ele>231.008</ele>
        <time>2019-06-21T11:24:50Z</time>
      </trkpt>
      <trkpt lat="43.257127" lon="-8.663942">
        <ele>233.118</ele>
        <time>2019-06-21T11:24:51Z</time>
      </trkpt>
      <trkpt lat="43.257092" lon="-8.664095">
        <ele>236.012</ele>
        <time>2019-06-21T11:24:52Z</time>
      </trkpt>
      <trkpt lat="43.257058" lon="-8.664256">
        <ele>238.394</ele>
        <time>2019-06-21T11:24:53Z</time>
      </trkpt>
      <trkpt lat="43.257024" lon="-8.664423">
        <ele>239.956</ele>
        <time>2019-06-21T11:24:54Z</time>
      </trkpt>
      <trkpt lat="43.256981" lon="-8.664593">
        <ele>240.233</ele>
        <time>2019-06-21T11:24:55Z</time>
      </trkpt>
      <trkpt lat="43.256950" lon="-8.664766">
        <ele>240.139</ele>
        <time>2019-06-21T11:24:56Z</time>
      </trkpt>
      <trkpt lat="43.256921" lon="-8.664936">
        <ele>239.693</ele>
        <time>2019-06-21T11:24:57Z</time>
      </trkpt>
      <trkpt lat="43.256893" lon="-8.665106">
        <ele>239.175</ele>
        <time>2019-06-21T11:24:58Z</time>
      </trkpt>
      <trkpt lat="43.256857" lon="-8.665262">
        <ele>238.464</ele>
        <time>2019-06-21T11:24:59Z</time>
      </trkpt>
      <trkpt lat="43.256831" lon="-8.665422">
        <ele>238.406</ele>
        <time>2019-06-21T11:25:00Z</time>
      </trkpt>
      <trkpt lat="43.256814" lon="-8.665597">
        <ele>238.616</ele>
        <time>2019-06-21T11:25:01Z</time>
      </trkpt>
      <trkpt lat="43.256806" lon="-8.665769">
        <ele>238.508</ele>
        <time>2019-06-21T11:25:02Z</time>
      </trkpt>
      <trkpt lat="43.256800" lon="-8.665931">
        <ele>238.539</ele>
        <time>2019-06-21T11:25:03Z</time>
      </trkpt>
      <trkpt lat="43.256817" lon="-8.666101">
        <ele>238.573</ele>
        <time>2019-06-21T11:25:04Z</time>
      </trkpt>
      <trkpt lat="43.256841" lon="-8.666260">
        <ele>237.815</ele>
        <time>2019-06-21T11:25:05Z</time>
      </trkpt>
      <trkpt lat="43.256859" lon="-8.666414">
        <ele>237.177</ele>
        <time>2019-06-21T11:25:06Z</time>
      </trkpt>
      <trkpt lat="43.256879" lon="-8.666565">
        <ele>236.074</ele>
        <time>2019-06-21T11:25:07Z</time>
      </trkpt>
      <trkpt lat="43.256899" lon="-8.666722">
        <ele>234.870</ele>
        <time>2019-06-21T11:25:08Z</time>
      </trkpt>
      <trkpt lat="43.256945" lon="-8.666854">
        <ele>233.784</ele>
        <time>2019-06-21T11:25:09Z</time>
      </trkpt>
      <trkpt lat="43.257009" lon="-8.666997">
        <ele>232.886</ele>
        <time>2019-06-21T11:25:10Z</time>
      </trkpt>
      <trkpt lat="43.257090" lon="-8.667154">
        <ele>231.638</ele>
        <time>2019-06-21T11:25:11Z</time>
      </trkpt>
      <trkpt lat="43.257177" lon="-8.667316">
        <ele>230.770</ele>
        <time>2019-06-21T11:25:12Z</time>
      </trkpt>
      <trkpt lat="43.257247" lon="-8.667466">
        <ele>230.217</ele>
        <time>2019-06-21T11:25:13Z</time>
      </trkpt>
      <trkpt lat="43.257332" lon="-8.667619">
        <ele>230.508</ele>
        <time>2019-06-21T11:25:14Z</time>
      </trkpt>
      <trkpt lat="43.257408" lon="-8.667769">
        <ele>230.316</ele>
        <time>2019-06-21T11:25:15Z</time>
      </trkpt>
      <trkpt lat="43.257475" lon="-8.667926">
        <ele>230.120</ele>
        <time>2019-06-21T11:25:16Z</time>
      </trkpt>
      <trkpt lat="43.257533" lon="-8.668098">
        <ele>230.292</ele>
        <time>2019-06-21T11:25:17Z</time>
      </trkpt>
      <trkpt lat="43.257588" lon="-8.668283">
        <ele>230.454</ele>
        <time>2019-06-21T11:25:18Z</time>
      </trkpt>
      <trkpt lat="43.257638" lon="-8.668472">
        <ele>230.561</ele>
        <time>2019-06-21T11:25:19Z</time>
      </trkpt>
      <trkpt lat="43.257690" lon="-8.668667">
        <ele>230.447</ele>
        <time>2019-06-21T11:25:20Z</time>
      </trkpt>
      <trkpt lat="43.257746" lon="-8.668863">
        <ele>229.331</ele>
        <time>2019-06-21T11:25:21Z</time>
      </trkpt>
      <trkpt lat="43.257802" lon="-8.669045">
        <ele>226.783</ele>
        <time>2019-06-21T11:25:22Z</time>
      </trkpt>
      <trkpt lat="43.257875" lon="-8.669231">
        <ele>224.268</ele>
        <time>2019-06-21T11:25:23Z</time>
      </trkpt>
      <trkpt lat="43.257950" lon="-8.669403">
        <ele>222.142</ele>
        <time>2019-06-21T11:25:24Z</time>
      </trkpt>
      <trkpt lat="43.258053" lon="-8.669570">
        <ele>221.126</ele>
        <time>2019-06-21T11:25:25Z</time>
      </trkpt>
      <trkpt lat="43.258147" lon="-8.669747">
        <ele>220.508</ele>
        <time>2019-06-21T11:25:26Z</time>
      </trkpt>
      <trkpt lat="43.258245" lon="-8.669908">
        <ele>220.039</ele>
        <time>2019-06-21T11:25:27Z</time>
      </trkpt>
      <trkpt lat="43.258340" lon="-8.670063">
        <ele>219.993</ele>
        <time>2019-06-21T11:25:28Z</time>
      </trkpt>
      <trkpt lat="43.258431" lon="-8.670199">
        <ele>220.465</ele>
        <time>2019-06-21T11:25:29Z</time>
      </trkpt>
      <trkpt lat="43.258506" lon="-8.670343">
        <ele>220.417</ele>
        <time>2019-06-21T11:25:30Z</time>
      </trkpt>
      <trkpt lat="43.258560" lon="-8.670490">
        <ele>219.944</ele>
        <time>2019-06-21T11:25:31Z</time>
      </trkpt>
      <trkpt lat="43.258605" lon="-8.670659">
        <ele>219.950</ele>
        <time>2019-06-21T11:25:32Z</time>
      </trkpt>
      <trkpt lat="43.258631" lon="-8.670844">
        <ele>220.494</ele>
        <time>2019-06-21T11:25:33Z</time>
      </trkpt>
      <trkpt lat="43.258644" lon="-8.671048">
        <ele>220.596</ele>
        <time>2019-06-21T11:25:34Z</time>
      </trkpt>
      <trkpt lat="43.258651" lon="-8.671248">
        <ele>220.131</ele>
        <time>2019-06-21T11:25:35Z</time>
      </trkpt>
      <trkpt lat="43.258661" lon="-8.671447">
        <ele>219.361</ele>
        <time>2019-06-21T11:25:36Z</time>
      </trkpt>
      <trkpt lat="43.258658" lon="-8.671650">
        <ele>218.007</ele>
        <time>2019-06-21T11:25:37Z</time>
      </trkpt>
      <trkpt lat="43.258634" lon="-8.671856">
        <ele>216.708</ele>
        <time>2019-06-21T11:25:38Z</time>
      </trkpt>
      <trkpt lat="43.258597" lon="-8.672069">
        <ele>215.456</ele>
        <time>2019-06-21T11:25:39Z</time>
      </trkpt>
      <trkpt lat="43.258556" lon="-8.672271">
        <ele>214.830</ele>
        <time>2019-06-21T11:25:40Z</time>
      </trkpt>
      <trkpt lat="43.258512" lon="-8.672467">
        <ele>215.722</ele>
        <time>2019-06-21T11:25:41Z</time>
      </trkpt>
      <trkpt lat="43.258475" lon="-8.672655">
        <ele>217.264</ele>
        <time>2019-06-21T11:25:42Z</time>
      </trkpt>
      <trkpt lat="43.258458" lon="-8.672835">
        <ele>218.791</ele>
        <time>2019-06-21T11:25:43Z</time>
      </trkpt>
      <trkpt lat="43.258455" lon="-8.673005">
        <ele>219.687</ele>
        <time>2019-06-21T11:25:44Z</time>
      </trkpt>
      <trkpt lat="43.258456" lon="-8.673168">
        <ele>220.591</ele>
        <time>2019-06-21T11:25:45Z</time>
      </trkpt>
      <trkpt lat="43.258461" lon="-8.673348">
        <ele>221.523</ele>
        <time>2019-06-21T11:25:46Z</time>
      </trkpt>
      <trkpt lat="43.258455" lon="-8.673530">
        <ele>221.877</ele>
        <time>2019-06-21T11:25:47Z</time>
      </trkpt>
      <trkpt lat="43.258444" lon="-8.673731">
        <ele>222.061</ele>
        <time>2019-06-21T11:25:48Z</time>
      </trkpt>
      <trkpt lat="43.258421" lon="-8.673934">
        <ele>221.927</ele>
        <time>2019-06-21T11:25:49Z</time>
      </trkpt>
      <trkpt lat="43.258385" lon="-8.674138">
        <ele>221.308</ele>
        <time>2019-06-21T11:25:50Z</time>
      </trkpt>
      <trkpt lat="43.258344" lon="-8.674339">
        <ele>220.480</ele>
        <time>2019-06-21T11:25:51Z</time>
      </trkpt>
      <trkpt lat="43.258296" lon="-8.674544">
        <ele>219.764</ele>
        <time>2019-06-21T11:25:52Z</time>
      </trkpt>
      <trkpt lat="43.258234" lon="-8.674746">
        <ele>219.026</ele>
        <time>2019-06-21T11:25:53Z</time>
      </trkpt>
      <trkpt lat="43.258164" lon="-8.674952">
        <ele>218.578</ele>
        <time>2019-06-21T11:25:54Z</time>
      </trkpt>
      <trkpt lat="43.258085" lon="-8.675150">
        <ele>217.465</ele>
        <time>2019-06-21T11:25:55Z</time>
      </trkpt>
      <trkpt lat="43.258004" lon="-8.675344">
        <ele>216.691</ele>
        <time>2019-06-21T11:25:56Z</time>
      </trkpt>
      <trkpt lat="43.257927" lon="-8.675525">
        <ele>216.155</ele>
        <time>2019-06-21T11:25:57Z</time>
      </trkpt>
      <trkpt lat="43.257859" lon="-8.675727">
        <ele>215.817</ele>
        <time>2019-06-21T11:25:58Z</time>
      </trkpt>
      <trkpt lat="43.257790" lon="-8.675913">
        <ele>215.483</ele>
        <time>2019-06-21T11:25:59Z</time>
      </trkpt>
      <trkpt lat="43.257710" lon="-8.676086">
        <ele>215.425</ele>
        <time>2019-06-21T11:26:00Z</time>
      </trkpt>
      <trkpt lat="43.257646" lon="-8.676245">
        <ele>215.517</ele>
        <time>2019-06-21T11:26:01Z</time>
      </trkpt>
      <trkpt lat="43.257583" lon="-8.676402">
        <ele>216.108</ele>
        <time>2019-06-21T11:26:02Z</time>
      </trkpt>
      <trkpt lat="43.257523" lon="-8.676539">
        <ele>216.621</ele>
        <time>2019-06-21T11:26:03Z</time>
      </trkpt>
      <trkpt lat="43.257466" lon="-8.676669">
        <ele>216.995</ele>
        <time>2019-06-21T11:26:04Z</time>
      </trkpt>
      <trkpt lat="43.257413" lon="-8.676786">
        <ele>217.497</ele>
        <time>2019-06-21T11:26:05Z</time>
      </trkpt>
      <trkpt lat="43.257358" lon="-8.676884">
        <ele>217.739</ele>
        <time>2019-06-21T11:26:06Z</time>
      </trkpt>
      <trkpt lat="43.257324" lon="-8.676980">
        <ele>217.716</ele>
        <time>2019-06-21T11:26:07Z</time>
      </trkpt>
      <trkpt lat="43.257301" lon="-8.677077">
        <ele>217.662</ele>
        <time>2019-06-21T11:26:08Z</time>
      </trkpt>
      <trkpt lat="43.257289" lon="-8.677180">
        <ele>217.576</ele>
        <time>2019-06-21T11:26:09Z</time>
      </trkpt>
      <trkpt lat="43.257280" lon="-8.677270">
        <ele>217.558</ele>
        <time>2019-06-21T11:26:10Z</time>
      </trkpt>
      <trkpt lat="43.257263" lon="-8.677347">
        <ele>217.479</ele>
        <time>2019-06-21T11:26:11Z</time>
      </trkpt>
      <trkpt lat="43.257231" lon="-8.677396">
        <ele>217.105</ele>
        <time>2019-06-21T11:26:12Z</time>
      </trkpt>
      <trkpt lat="43.257190" lon="-8.677443">
        <ele>217.025</ele>
        <time>2019-06-21T11:26:13Z</time>
      </trkpt>
      <trkpt lat="43.257112" lon="-8.677468">
        <ele>217.008</ele>
        <time>2019-06-21T11:26:14Z</time>
      </trkpt>
      <trkpt lat="43.256996" lon="-8.677505">
        <ele>217.080</ele>
        <time>2019-06-21T11:26:15Z</time>
      </trkpt>
      <trkpt lat="43.256882" lon="-8.677539">
        <ele>217.084</ele>
        <time>2019-06-21T11:26:16Z</time>
      </trkpt>
      <trkpt lat="43.256761" lon="-8.677580">
        <ele>217.046</ele>
        <time>2019-06-21T11:26:17Z</time>
      </trkpt>
      <trkpt lat="43.256645" lon="-8.677626">
        <ele>217.028</ele>
        <time>2019-06-21T11:26:18Z</time>
      </trkpt>
      <trkpt lat="43.256521" lon="-8.677660">
        <ele>217.255</ele>
        <time>2019-06-21T11:26:19Z</time>
      </trkpt>
      <trkpt lat="43.256400" lon="-8.677708">
        <ele>217.241</ele>
        <time>2019-06-21T11:26:20Z</time>
      </trkpt>
      <trkpt lat="43.256286" lon="-8.677756">
        <ele>217.425</ele>
        <time>2019-06-21T11:26:21Z</time>
      </trkpt>
      <trkpt lat="43.256170" lon="-8.677808">
        <ele>217.767</ele>
        <time>2019-06-21T11:26:22Z</time>
      </trkpt>
      <trkpt lat="43.256060" lon="-8.677839">
        <ele>217.787</ele>
        <time>2019-06-21T11:26:23Z</time>
      </trkpt>
      <trkpt lat="43.255949" lon="-8.677871">
        <ele>217.342</ele>
        <time>2019-06-21T11:26:24Z</time>
      </trkpt>
      <trkpt lat="43.255842" lon="-8.677906">
        <ele>216.626</ele>
        <time>2019-06-21T11:26:25Z</time>
      </trkpt>
      <trkpt lat="43.255735" lon="-8.677934">
        <ele>215.608</ele>
        <time>2019-06-21T11:26:26Z</time>
      </trkpt>
      <trkpt lat="43.255619" lon="-8.677983">
        <ele>214.291</ele>
        <time>2019-06-21T11:26:27Z</time>
      </trkpt>
      <trkpt lat="43.255516" lon="-8.678035">
        <ele>213.135</ele>
        <time>2019-06-21T11:26:28Z</time>
      </trkpt>
      <trkpt lat="43.255413" lon="-8.678096">
        <ele>211.887</ele>
        <time>2019-06-21T11:26:29Z</time>
      </trkpt>
      <trkpt lat="43.255322" lon="-8.678165">
        <ele>210.359</ele>
        <time>2019-06-21T11:26:30Z</time>
      </trkpt>
      <trkpt lat="43.255222" lon="-8.678242">
        <ele>209.056</ele>
        <time>2019-06-21T11:26:31Z</time>
      </trkpt>
      <trkpt lat="43.255121" lon="-8.678322">
        <ele>208.382</ele>
        <time>2019-06-21T11:26:32Z</time>
      </trkpt>
      <trkpt lat="43.255022" lon="-8.678396">
        <ele>208.046</ele>
        <time>2019-06-21T11:26:33Z</time>
      </trkpt>
      <trkpt lat="43.254935" lon="-8.678474">
        <ele>206.918</ele>
        <time>2019-06-21T11:26:34Z</time>
      </trkpt>
      <trkpt lat="43.254851" lon="-8.678564">
        <ele>205.685</ele>
        <time>2019-06-21T11:26:35Z</time>
      </trkpt>
      <trkpt lat="43.254769" lon="-8.678660">
        <ele>204.389</ele>
        <time>2019-06-21T11:26:36Z</time>
      </trkpt>
      <trkpt lat="43.254691" lon="-8.678756">
        <ele>202.617</ele>
        <time>2019-06-21T11:26:37Z</time>
      </trkpt>
      <trkpt lat="43.254640" lon="-8.678895">
        <ele>200.308</ele>
        <time>2019-06-21T11:26:38Z</time>
      </trkpt>
      <trkpt lat="43.254581" lon="-8.679036">
        <ele>197.911</ele>
        <time>2019-06-21T11:26:39Z</time>
      </trkpt>
      <trkpt lat="43.254527" lon="-8.679183">
        <ele>195.535</ele>
        <time>2019-06-21T11:26:40Z</time>
      </trkpt>
      <trkpt lat="43.254471" lon="-8.679338">
        <ele>194.067</ele>
        <time>2019-06-21T11:26:41Z</time>
      </trkpt>
      <trkpt lat="43.254421" lon="-8.679509">
        <ele>193.089</ele>
        <time>2019-06-21T11:26:42Z</time>
      </trkpt>
      <trkpt lat="43.254371" lon="-8.679694">
        <ele>193.126</ele>
        <time>2019-06-21T11:26:43Z</time>
      </trkpt>
      <trkpt lat="43.254315" lon="-8.679892">
        <ele>193.592</ele>
        <time>2019-06-21T11:26:44Z</time>
      </trkpt>
      <trkpt lat="43.254260" lon="-8.680082">
        <ele>193.866</ele>
        <time>2019-06-21T11:26:45Z</time>
      </trkpt>
      <trkpt lat="43.254200" lon="-8.680278">
        <ele>194.418</ele>
        <time>2019-06-21T11:26:46Z</time>
      </trkpt>
      <trkpt lat="43.254131" lon="-8.680465">
        <ele>194.286</ele>
        <time>2019-06-21T11:26:47Z</time>
      </trkpt>
      <trkpt lat="43.254072" lon="-8.680662">
        <ele>194.360</ele>
        <time>2019-06-21T11:26:48Z</time>
      </trkpt>
      <trkpt lat="43.254001" lon="-8.680841">
        <ele>194.026</ele>
        <time>2019-06-21T11:26:49Z</time>
      </trkpt>
      <trkpt lat="43.253942" lon="-8.681035">
        <ele>193.508</ele>
        <time>2019-06-21T11:26:50Z</time>
      </trkpt>
      <trkpt lat="43.253888" lon="-8.681239">
        <ele>193.031</ele>
        <time>2019-06-21T11:26:51Z</time>
      </trkpt>
      <trkpt lat="43.253843" lon="-8.681444">
        <ele>192.045</ele>
        <time>2019-06-21T11:26:52Z</time>
      </trkpt>
      <trkpt lat="43.253800" lon="-8.681645">
        <ele>190.877</ele>
        <time>2019-06-21T11:26:53Z</time>
      </trkpt>
      <trkpt lat="43.253765" lon="-8.681842">
        <ele>190.639</ele>
        <time>2019-06-21T11:26:54Z</time>
      </trkpt>
      <trkpt lat="43.253754" lon="-8.682040">
        <ele>191.156</ele>
        <time>2019-06-21T11:26:55Z</time>
      </trkpt>
      <trkpt lat="43.253732" lon="-8.682227">
        <ele>191.792</ele>
        <time>2019-06-21T11:26:56Z</time>
      </trkpt>
      <trkpt lat="43.253700" lon="-8.682408">
        <ele>191.376</ele>
        <time>2019-06-21T11:26:57Z</time>
      </trkpt>
      <trkpt lat="43.253672" lon="-8.682592">
        <ele>190.688</ele>
        <time>2019-06-21T11:26:58Z</time>
      </trkpt>
      <trkpt lat="43.253638" lon="-8.682767">
        <ele>189.521</ele>
        <time>2019-06-21T11:26:59Z</time>
      </trkpt>
      <trkpt lat="43.253610" lon="-8.682950">
        <ele>188.441</ele>
        <time>2019-06-21T11:27:00Z</time>
      </trkpt>
      <trkpt lat="43.253592" lon="-8.683127">
        <ele>187.705</ele>
        <time>2019-06-21T11:27:01Z</time>
      </trkpt>
      <trkpt lat="43.253586" lon="-8.683313">
        <ele>187.608</ele>
        <time>2019-06-21T11:27:02Z</time>
      </trkpt>
      <trkpt lat="43.253592" lon="-8.683498">
        <ele>187.265</ele>
        <time>2019-06-21T11:27:03Z</time>
      </trkpt>
      <trkpt lat="43.253568" lon="-8.683673">
        <ele>186.559</ele>
        <time>2019-06-21T11:27:04Z</time>
      </trkpt>
      <trkpt lat="43.253545" lon="-8.683849">
        <ele>186.131</ele>
        <time>2019-06-21T11:27:05Z</time>
      </trkpt>
      <trkpt lat="43.253515" lon="-8.684008">
        <ele>185.313</ele>
        <time>2019-06-21T11:27:06Z</time>
      </trkpt>
      <trkpt lat="43.253511" lon="-8.684181">
        <ele>184.940</ele>
        <time>2019-06-21T11:27:07Z</time>
      </trkpt>
      <trkpt lat="43.253492" lon="-8.684333">
        <ele>184.846</ele>
        <time>2019-06-21T11:27:08Z</time>
      </trkpt>
      <trkpt lat="43.253500" lon="-8.684503">
        <ele>184.910</ele>
        <time>2019-06-21T11:27:09Z</time>
      </trkpt>
      <trkpt lat="43.253525" lon="-8.684666">
        <ele>184.912</ele>
        <time>2019-06-21T11:27:10Z</time>
      </trkpt>
      <trkpt lat="43.253553" lon="-8.684827">
        <ele>184.953</ele>
        <time>2019-06-21T11:27:11Z</time>
      </trkpt>
      <trkpt lat="43.253586" lon="-8.684982">
        <ele>184.904</ele>
        <time>2019-06-21T11:27:12Z</time>
      </trkpt>
      <trkpt lat="43.253607" lon="-8.685127">
        <ele>184.514</ele>
        <time>2019-06-21T11:27:13Z</time>
      </trkpt>
      <trkpt lat="43.253631" lon="-8.685263">
        <ele>184.308</ele>
        <time>2019-06-21T11:27:14Z</time>
      </trkpt>
      <trkpt lat="43.253639" lon="-8.685396">
        <ele>183.898</ele>
        <time>2019-06-21T11:27:15Z</time>
      </trkpt>
      <trkpt lat="43.253629" lon="-8.685536">
        <ele>183.252</ele>
        <time>2019-06-21T11:27:16Z</time>
      </trkpt>
      <trkpt lat="43.253613" lon="-8.685682">
        <ele>182.654</ele>
        <time>2019-06-21T11:27:17Z</time>
      </trkpt>
      <trkpt lat="43.253589" lon="-8.685816">
        <ele>182.016</ele>
        <time>2019-06-21T11:27:18Z</time>
      </trkpt>
      <trkpt lat="43.253561" lon="-8.685952">
        <ele>181.553</ele>
        <time>2019-06-21T11:27:19Z</time>
      </trkpt>
      <trkpt lat="43.253537" lon="-8.686076">
        <ele>181.179</ele>
        <time>2019-06-21T11:27:20Z</time>
      </trkpt>
      <trkpt lat="43.253497" lon="-8.686198">
        <ele>181.093</ele>
        <time>2019-06-21T11:27:21Z</time>
      </trkpt>
      <trkpt lat="43.253439" lon="-8.686324">
        <ele>181.095</ele>
        <time>2019-06-21T11:27:22Z</time>
      </trkpt>
      <trkpt lat="43.253367" lon="-8.686447">
        <ele>181.089</ele>
        <time>2019-06-21T11:27:23Z</time>
      </trkpt>
      <trkpt lat="43.253270" lon="-8.686568">
        <ele>180.706</ele>
        <time>2019-06-21T11:27:24Z</time>
      </trkpt>
      <trkpt lat="43.253163" lon="-8.686685">
        <ele>180.526</ele>
        <time>2019-06-21T11:27:25Z</time>
      </trkpt>
      <trkpt lat="43.253037" lon="-8.686784">
        <ele>180.408</ele>
        <time>2019-06-21T11:27:26Z</time>
      </trkpt>
      <trkpt lat="43.252906" lon="-8.686892">
        <ele>180.311</ele>
        <time>2019-06-21T11:27:27Z</time>
      </trkpt>
      <trkpt lat="43.252769" lon="-8.687008">
        <ele>180.245</ele>
        <time>2019-06-21T11:27:28Z</time>
      </trkpt>
      <trkpt lat="43.252633" lon="-8.687116">
        <ele>180.687</ele>
        <time>2019-06-21T11:27:29Z</time>
      </trkpt>
      <trkpt lat="43.252504" lon="-8.687232">
        <ele>181.149</ele>
        <time>2019-06-21T11:27:30Z</time>
      </trkpt>
      <trkpt lat="43.252367" lon="-8.687348">
        <ele>182.296</ele>
        <time>2019-06-21T11:27:31Z</time>
      </trkpt>
      <trkpt lat="43.252243" lon="-8.687472">
        <ele>182.982</ele>
        <time>2019-06-21T11:27:32Z</time>
      </trkpt>
      <trkpt lat="43.252115" lon="-8.687592">
        <ele>183.346</ele>
        <time>2019-06-21T11:27:33Z</time>
      </trkpt>
      <trkpt lat="43.252003" lon="-8.687704">
        <ele>183.728</ele>
        <time>2019-06-21T11:27:34Z</time>
      </trkpt>
      <trkpt lat="43.251900" lon="-8.687817">
        <ele>184.156</ele>
        <time>2019-06-21T11:27:35Z</time>
      </trkpt>
      <trkpt lat="43.251799" lon="-8.687923">
        <ele>184.859</ele>
        <time>2019-06-21T11:27:36Z</time>
      </trkpt>
      <trkpt lat="43.251702" lon="-8.688025">
        <ele>185.714</ele>
        <time>2019-06-21T11:27:37Z</time>
      </trkpt>
      <trkpt lat="43.251615" lon="-8.688117">
        <ele>186.408</ele>
        <time>2019-06-21T11:27:38Z</time>
      </trkpt>
      <trkpt lat="43.251549" lon="-8.688221">
        <ele>187.238</ele>
        <time>2019-06-21T11:27:39Z</time>
      </trkpt>
      <trkpt lat="43.251478" lon="-8.688315">
        <ele>187.952</ele>
        <time>2019-06-21T11:27:40Z</time>
      </trkpt>
      <trkpt lat="43.251394" lon="-8.688372">
        <ele>188.174</ele>
        <time>2019-06-21T11:27:41Z</time>
      </trkpt>
      <trkpt lat="43.251308" lon="-8.688416">
        <ele>188.336</ele>
        <time>2019-06-21T11:27:42Z</time>
      </trkpt>
      <trkpt lat="43.251232" lon="-8.688452">
        <ele>188.443</ele>
        <time>2019-06-21T11:27:43Z</time>
      </trkpt>
      <trkpt lat="43.251160" lon="-8.688499">
        <ele>188.669</ele>
        <time>2019-06-21T11:27:44Z</time>
      </trkpt>
      <trkpt lat="43.251091" lon="-8.688559">
        <ele>188.953</ele>
        <time>2019-06-21T11:27:45Z</time>
      </trkpt>
      <trkpt lat="43.251037" lon="-8.688640">
        <ele>189.445</ele>
        <time>2019-06-21T11:27:46Z</time>
      </trkpt>
      <trkpt lat="43.250981" lon="-8.688729">
        <ele>189.998</ele>
        <time>2019-06-21T11:27:47Z</time>
      </trkpt>
      <trkpt lat="43.250919" lon="-8.688831">
        <ele>190.515</ele>
        <time>2019-06-21T11:27:48Z</time>
      </trkpt>
      <trkpt lat="43.250835" lon="-8.688925">
        <ele>191.026</ele>
        <time>2019-06-21T11:27:49Z</time>
      </trkpt>
      <trkpt lat="43.250763" lon="-8.689017">
        <ele>191.108</ele>
        <time>2019-06-21T11:27:50Z</time>
      </trkpt>
      <trkpt lat="43.250699" lon="-8.689112">
        <ele>191.412</ele>
        <time>2019-06-21T11:27:51Z</time>
      </trkpt>
      <trkpt lat="43.250638" lon="-8.689212">
        <ele>191.956</ele>
        <time>2019-06-21T11:27:52Z</time>
      </trkpt>
      <trkpt lat="43.250584" lon="-8.689322">
        <ele>192.568</ele>
        <time>2019-06-21T11:27:53Z</time>
      </trkpt>
      <trkpt lat="43.250520" lon="-8.689426">
        <ele>192.730</ele>
        <time>2019-06-21T11:27:54Z</time>
      </trkpt>
      <trkpt lat="43.250467" lon="-8.689539">
        <ele>192.777</ele>
        <time>2019-06-21T11:27:55Z</time>
      </trkpt>
      <trkpt lat="43.250416" lon="-8.689643">
        <ele>192.733</ele>
        <time>2019-06-21T11:27:56Z</time>
      </trkpt>
      <trkpt lat="43.250363" lon="-8.689743">
        <ele>192.627</ele>
        <time>2019-06-21T11:27:57Z</time>
      </trkpt>
      <trkpt lat="43.250314" lon="-8.689841">
        <ele>192.319</ele>
        <time>2019-06-21T11:27:58Z</time>
      </trkpt>
      <trkpt lat="43.250264" lon="-8.689933">
        <ele>191.947</ele>
        <time>2019-06-21T11:27:59Z</time>
      </trkpt>
      <trkpt lat="43.250205" lon="-8.690028">
        <ele>191.429</ele>
        <time>2019-06-21T11:28:00Z</time>
      </trkpt>
      <trkpt lat="43.250163" lon="-8.690136">
        <ele>190.921</ele>
        <time>2019-06-21T11:28:01Z</time>
      </trkpt>
      <trkpt lat="43.250100" lon="-8.690234">
        <ele>190.408</ele>
        <time>2019-06-21T11:28:02Z</time>
      </trkpt>
      <trkpt lat="43.250056" lon="-8.690354">
        <ele>190.267</ele>
        <time>2019-06-21T11:28:03Z</time>
      </trkpt>
      <trkpt lat="43.249982" lon="-8.690489">
        <ele>189.891</ele>
        <time>2019-06-21T11:28:04Z</time>
      </trkpt>
      <trkpt lat="43.249903" lon="-8.690608">
        <ele>188.613</ele>
        <time>2019-06-21T11:28:05Z</time>
      </trkpt>
      <trkpt lat="43.249827" lon="-8.690780">
        <ele>187.075</ele>
        <time>2019-06-21T11:28:06Z</time>
      </trkpt>
      <trkpt lat="43.249754" lon="-8.690958">
        <ele>185.772</ele>
        <time>2019-06-21T11:28:07Z</time>
      </trkpt>
      <trkpt lat="43.249674" lon="-8.691118">
        <ele>184.888</ele>
        <time>2019-06-21T11:28:08Z</time>
      </trkpt>
      <trkpt lat="43.249585" lon="-8.691287">
        <ele>183.992</ele>
        <time>2019-06-21T11:28:09Z</time>
      </trkpt>
      <trkpt lat="43.249516" lon="-8.691470">
        <ele>183.084</ele>
        <time>2019-06-21T11:28:10Z</time>
      </trkpt>
      <trkpt lat="43.249442" lon="-8.691646">
        <ele>182.157</ele>
        <time>2019-06-21T11:28:11Z</time>
      </trkpt>
      <trkpt lat="43.249360" lon="-8.691815">
        <ele>181.800</ele>
        <time>2019-06-21T11:28:12Z</time>
      </trkpt>
      <trkpt lat="43.249280" lon="-8.691995">
        <ele>181.320</ele>
        <time>2019-06-21T11:28:13Z</time>
      </trkpt>
      <trkpt lat="43.249201" lon="-8.692173">
        <ele>181.008</ele>
        <time>2019-06-21T11:28:14Z</time>
      </trkpt>
      <trkpt lat="43.249124" lon="-8.692346">
        <ele>180.168</ele>
        <time>2019-06-21T11:28:15Z</time>
      </trkpt>
      <trkpt lat="43.249051" lon="-8.692520">
        <ele>179.362</ele>
        <time>2019-06-21T11:28:16Z</time>
      </trkpt>
      <trkpt lat="43.248971" lon="-8.692688">
        <ele>178.674</ele>
        <time>2019-06-21T11:28:17Z</time>
      </trkpt>
      <trkpt lat="43.248898" lon="-8.692852">
        <ele>177.776</ele>
        <time>2019-06-21T11:28:18Z</time>
      </trkpt>
      <trkpt lat="43.248825" lon="-8.693015">
        <ele>177.163</ele>
        <time>2019-06-21T11:28:19Z</time>
      </trkpt>
      <trkpt lat="43.248752" lon="-8.693168">
        <ele>176.889</ele>
        <time>2019-06-21T11:28:20Z</time>
      </trkpt>
      <trkpt lat="43.248690" lon="-8.693314">
        <ele>176.763</ele>
        <time>2019-06-21T11:28:21Z</time>
      </trkpt>
      <trkpt lat="43.248628" lon="-8.693458">
        <ele>176.985</ele>
        <time>2019-06-21T11:28:22Z</time>
      </trkpt>
      <trkpt lat="43.248563" lon="-8.693595">
        <ele>177.063</ele>
        <time>2019-06-21T11:28:23Z</time>
      </trkpt>
      <trkpt lat="43.248511" lon="-8.693733">
        <ele>177.244</ele>
        <time>2019-06-21T11:28:24Z</time>
      </trkpt>
      <trkpt lat="43.248466" lon="-8.693872">
        <ele>177.518</ele>
        <time>2019-06-21T11:28:25Z</time>
      </trkpt>
      <trkpt lat="43.248451" lon="-8.694010">
        <ele>177.808</ele>
        <time>2019-06-21T11:28:26Z</time>
      </trkpt>
      <trkpt lat="43.248439" lon="-8.694143">
        <ele>178.019</ele>
        <time>2019-06-21T11:28:27Z</time>
      </trkpt>
      <trkpt lat="43.248426" lon="-8.694262">
        <ele>178.273</ele>
        <time>2019-06-21T11:28:28Z</time>
      </trkpt>
      <trkpt lat="43.248401" lon="-8.694377">
        <ele>178.635</ele>
        <time>2019-06-21T11:28:29Z</time>
      </trkpt>
      <trkpt lat="43.248347" lon="-8.694483">
        <ele>179.097</ele>
        <time>2019-06-21T11:28:30Z</time>
      </trkpt>
      <trkpt lat="43.248288" lon="-8.694590">
        <ele>179.114</ele>
        <time>2019-06-21T11:28:31Z</time>
      </trkpt>
      <trkpt lat="43.248198" lon="-8.694704">
        <ele>179.590</ele>
        <time>2019-06-21T11:28:32Z</time>
      </trkpt>
      <trkpt lat="43.248101" lon="-8.694812">
        <ele>180.254</ele>
        <time>2019-06-21T11:28:33Z</time>
      </trkpt>
      <trkpt lat="43.248010" lon="-8.694919">
        <ele>181.146</ele>
        <time>2019-06-21T11:28:34Z</time>
      </trkpt>
      <trkpt lat="43.247913" lon="-8.695021">
        <ele>182.044</ele>
        <time>2019-06-21T11:28:35Z</time>
      </trkpt>
      <trkpt lat="43.247809" lon="-8.695115">
        <ele>182.805</ele>
        <time>2019-06-21T11:28:36Z</time>
      </trkpt>
      <trkpt lat="43.247709" lon="-8.695204">
        <ele>183.315</ele>
        <time>2019-06-21T11:28:37Z</time>
      </trkpt>
      <trkpt lat="43.247619" lon="-8.695284">
        <ele>183.508</ele>
        <time>2019-06-21T11:28:38Z</time>
      </trkpt>
      <trkpt lat="43.247533" lon="-8.695352">
        <ele>183.347</ele>
        <time>2019-06-21T11:28:39Z</time>
      </trkpt>
      <trkpt lat="43.247454" lon="-8.695402">
        <ele>183.061</ele>
        <time>2019-06-21T11:28:40Z</time>
      </trkpt>
      <trkpt lat="43.247385" lon="-8.695448">
        <ele>182.643</ele>
        <time>2019-06-21T11:28:41Z</time>
      </trkpt>
      <trkpt lat="43.247338" lon="-8.695478">
        <ele>182.425</ele>
        <time>2019-06-21T11:28:42Z</time>
      </trkpt>
      <trkpt lat="43.247287" lon="-8.695512">
        <ele>182.272</ele>
        <time>2019-06-21T11:28:47Z</time>
      </trkpt>
      <trkpt lat="43.247213" lon="-8.695570">
        <ele>182.048</ele>
        <time>2019-06-21T11:28:49Z</time>
      </trkpt>
      <trkpt lat="43.247145" lon="-8.695602">
        <ele>182.182</ele>
        <time>2019-06-21T11:28:50Z</time>
      </trkpt>
      <trkpt lat="43.247050" lon="-8.695627">
        <ele>182.364</ele>
        <time>2019-06-21T11:28:51Z</time>
      </trkpt>
      <trkpt lat="43.246944" lon="-8.695652">
        <ele>182.712</ele>
        <time>2019-06-21T11:28:52Z</time>
      </trkpt>
      <trkpt lat="43.246837" lon="-8.695688">
        <ele>183.032</ele>
        <time>2019-06-21T11:28:53Z</time>
      </trkpt>
      <trkpt lat="43.246722" lon="-8.695729">
        <ele>183.205</ele>
        <time>2019-06-21T11:28:54Z</time>
      </trkpt>
      <trkpt lat="43.246606" lon="-8.695760">
        <ele>183.508</ele>
        <time>2019-06-21T11:28:55Z</time>
      </trkpt>
      <trkpt lat="43.246478" lon="-8.695781">
        <ele>183.634</ele>
        <time>2019-06-21T11:28:56Z</time>
      </trkpt>
      <trkpt lat="43.246347" lon="-8.695776">
        <ele>183.668</ele>
        <time>2019-06-21T11:28:57Z</time>
      </trkpt>
      <trkpt lat="43.246200" lon="-8.695765">
        <ele>183.770</ele>
        <time>2019-06-21T11:28:58Z</time>
      </trkpt>
      <trkpt lat="43.246045" lon="-8.695754">
        <ele>183.372</ele>
        <time>2019-06-21T11:28:59Z</time>
      </trkpt>
      <trkpt lat="43.245886" lon="-8.695740">
        <ele>182.389</ele>
        <time>2019-06-21T11:29:00Z</time>
      </trkpt>
      <trkpt lat="43.245717" lon="-8.695723">
        <ele>181.495</ele>
        <time>2019-06-21T11:29:01Z</time>
      </trkpt>
      <trkpt lat="43.245538" lon="-8.695699">
        <ele>180.449</ele>
        <time>2019-06-21T11:29:02Z</time>
      </trkpt>
      <trkpt lat="43.245349" lon="-8.695688">
        <ele>178.681</ele>
        <time>2019-06-21T11:29:03Z</time>
      </trkpt>
      <trkpt lat="43.245165" lon="-8.695682">
        <ele>176.661</ele>
        <time>2019-06-21T11:29:04Z</time>
      </trkpt>
      <trkpt lat="43.244976" lon="-8.695694">
        <ele>174.421</ele>
        <time>2019-06-21T11:29:05Z</time>
      </trkpt>
      <trkpt lat="43.244795" lon="-8.695706">
        <ele>173.813</ele>
        <time>2019-06-21T11:29:06Z</time>
      </trkpt>
      <trkpt lat="43.244608" lon="-8.695717">
        <ele>173.608</ele>
        <time>2019-06-21T11:29:07Z</time>
      </trkpt>
      <trkpt lat="43.244427" lon="-8.695741">
        <ele>173.649</ele>
        <time>2019-06-21T11:29:08Z</time>
      </trkpt>
      <trkpt lat="43.244244" lon="-8.695753">
        <ele>173.013</ele>
        <time>2019-06-21T11:29:09Z</time>
      </trkpt>
      <trkpt lat="43.244058" lon="-8.695799">
        <ele>172.155</ele>
        <time>2019-06-21T11:29:10Z</time>
      </trkpt>
      <trkpt lat="43.243886" lon="-8.695842">
        <ele>171.097</ele>
        <time>2019-06-21T11:29:11Z</time>
      </trkpt>
      <trkpt lat="43.243712" lon="-8.695894">
        <ele>170.964</ele>
        <time>2019-06-21T11:29:12Z</time>
      </trkpt>
      <trkpt lat="43.243545" lon="-8.695934">
        <ele>170.970</ele>
        <time>2019-06-21T11:29:13Z</time>
      </trkpt>
      <trkpt lat="43.243383" lon="-8.695972">
        <ele>171.314</ele>
        <time>2019-06-21T11:29:14Z</time>
      </trkpt>
      <trkpt lat="43.243231" lon="-8.695980">
        <ele>171.526</ele>
        <time>2019-06-21T11:29:15Z</time>
      </trkpt>
      <trkpt lat="43.243059" lon="-8.695993">
        <ele>171.427</ele>
        <time>2019-06-21T11:29:16Z</time>
      </trkpt>
      <trkpt lat="43.242885" lon="-8.695988">
        <ele>171.168</ele>
        <time>2019-06-21T11:29:17Z</time>
      </trkpt>
      <trkpt lat="43.242721" lon="-8.695967">
        <ele>170.814</ele>
        <time>2019-06-21T11:29:18Z</time>
      </trkpt>
      <trkpt lat="43.242556" lon="-8.695942">
        <ele>170.208</ele>
        <time>2019-06-21T11:29:19Z</time>
      </trkpt>
      <trkpt lat="43.242408" lon="-8.695928">
        <ele>169.415</ele>
        <time>2019-06-21T11:29:20Z</time>
      </trkpt>
      <trkpt lat="43.242275" lon="-8.695934">
        <ele>168.719</ele>
        <time>2019-06-21T11:29:21Z</time>
      </trkpt>
      <trkpt lat="43.242152" lon="-8.695973">
        <ele>168.131</ele>
        <time>2019-06-21T11:29:22Z</time>
      </trkpt>
      <trkpt lat="43.242026" lon="-8.696020">
        <ele>167.713</ele>
        <time>2019-06-21T11:29:23Z</time>
      </trkpt>
      <trkpt lat="43.241892" lon="-8.696072">
        <ele>167.760</ele>
        <time>2019-06-21T11:29:24Z</time>
      </trkpt>
      <trkpt lat="43.241745" lon="-8.696122">
        <ele>168.176</ele>
        <time>2019-06-21T11:29:25Z</time>
      </trkpt>
      <trkpt lat="43.241588" lon="-8.696165">
        <ele>168.150</ele>
        <time>2019-06-21T11:29:26Z</time>
      </trkpt>
      <trkpt lat="43.241419" lon="-8.696181">
        <ele>167.432</ele>
        <time>2019-06-21T11:29:27Z</time>
      </trkpt>
      <trkpt lat="43.241243" lon="-8.696179">
        <ele>165.915</ele>
        <time>2019-06-21T11:29:28Z</time>
      </trkpt>
      <trkpt lat="43.241066" lon="-8.696178">
        <ele>164.565</ele>
        <time>2019-06-21T11:29:29Z</time>
      </trkpt>
      <trkpt lat="43.240890" lon="-8.696184">
        <ele>163.811</ele>
        <time>2019-06-21T11:29:30Z</time>
      </trkpt>
      <trkpt lat="43.240717" lon="-8.696191">
        <ele>162.608</ele>
        <time>2019-06-21T11:29:31Z</time>
      </trkpt>
      <trkpt lat="43.240548" lon="-8.696207">
        <ele>161.334</ele>
        <time>2019-06-21T11:29:32Z</time>
      </trkpt>
      <trkpt lat="43.240382" lon="-8.696238">
        <ele>159.688</ele>
        <time>2019-06-21T11:29:33Z</time>
      </trkpt>
      <trkpt lat="43.240228" lon="-8.696256">
        <ele>158.150</ele>
        <time>2019-06-21T11:29:34Z</time>
      </trkpt>
      <trkpt lat="43.240069" lon="-8.696289">
        <ele>156.912</ele>
        <time>2019-06-21T11:29:35Z</time>
      </trkpt>
      <trkpt lat="43.239907" lon="-8.696308">
        <ele>156.149</ele>
        <time>2019-06-21T11:29:36Z</time>
      </trkpt>
      <trkpt lat="43.239728" lon="-8.696372">
        <ele>155.975</ele>
        <time>2019-06-21T11:29:37Z</time>
      </trkpt>
      <trkpt lat="43.239557" lon="-8.696455">
        <ele>155.449</ele>
        <time>2019-06-21T11:29:38Z</time>
      </trkpt>
      <trkpt lat="43.239379" lon="-8.696547">
        <ele>154.881</ele>
        <time>2019-06-21T11:29:39Z</time>
      </trkpt>
      <trkpt lat="43.239228" lon="-8.696657">
        <ele>155.114</ele>
        <time>2019-06-21T11:29:40Z</time>
      </trkpt>
      <trkpt lat="43.239054" lon="-8.696743">
        <ele>155.154</ele>
        <time>2019-06-21T11:29:41Z</time>
      </trkpt>
      <trkpt lat="43.238867" lon="-8.696818">
        <ele>154.909</ele>
        <time>2019-06-21T11:29:42Z</time>
      </trkpt>
      <trkpt lat="43.238694" lon="-8.696914">
        <ele>154.408</ele>
        <time>2019-06-21T11:29:43Z</time>
      </trkpt>
      <trkpt lat="43.238516" lon="-8.696995">
        <ele>153.744</ele>
        <time>2019-06-21T11:29:44Z</time>
      </trkpt>
      <trkpt lat="43.238362" lon="-8.697082">
        <ele>153.178</ele>
        <time>2019-06-21T11:29:45Z</time>
      </trkpt>
      <trkpt lat="43.238219" lon="-8.697160">
        <ele>151.730</ele>
        <time>2019-06-21T11:29:46Z</time>
      </trkpt>
      <trkpt lat="43.238072" lon="-8.697236">
        <ele>150.212</ele>
        <time>2019-06-21T11:29:47Z</time>
      </trkpt>
      <trkpt lat="43.237946" lon="-8.697305">
        <ele>149.179</ele>
        <time>2019-06-21T11:29:48Z</time>
      </trkpt>
      <trkpt lat="43.237827" lon="-8.697366">
        <ele>148.085</ele>
        <time>2019-06-21T11:29:49Z</time>
      </trkpt>
      <trkpt lat="43.237714" lon="-8.697408">
        <ele>147.499</ele>
        <time>2019-06-21T11:29:50Z</time>
      </trkpt>
      <trkpt lat="43.237609" lon="-8.697434">
        <ele>147.281</ele>
        <time>2019-06-21T11:29:51Z</time>
      </trkpt>
      <trkpt lat="43.237516" lon="-8.697453">
        <ele>146.951</ele>
        <time>2019-06-21T11:29:52Z</time>
      </trkpt>
      <trkpt lat="43.237429" lon="-8.697469">
        <ele>146.901</ele>
        <time>2019-06-21T11:29:53Z</time>
      </trkpt>
      <trkpt lat="43.237348" lon="-8.697501">
        <ele>147.011</ele>
        <time>2019-06-21T11:29:54Z</time>
      </trkpt>
      <trkpt lat="43.237279" lon="-8.697544">
        <ele>147.008</ele>
        <time>2019-06-21T11:29:55Z</time>
      </trkpt>
      <trkpt lat="43.237210" lon="-8.697593">
        <ele>147.048</ele>
        <time>2019-06-21T11:29:56Z</time>
      </trkpt>
      <trkpt lat="43.237110" lon="-8.697633">
        <ele>146.612</ele>
        <time>2019-06-21T11:29:57Z</time>
      </trkpt>
      <trkpt lat="43.237019" lon="-8.697657">
        <ele>146.384</ele>
        <time>2019-06-21T11:29:58Z</time>
      </trkpt>
      <trkpt lat="43.236928" lon="-8.697652">
        <ele>145.986</ele>
        <time>2019-06-21T11:29:59Z</time>
      </trkpt>
      <trkpt lat="43.236814" lon="-8.697643">
        <ele>145.163</ele>
        <time>2019-06-21T11:30:00Z</time>
      </trkpt>
      <trkpt lat="43.236713" lon="-8.697631">
        <ele>144.359</ele>
        <time>2019-06-21T11:30:01Z</time>
      </trkpt>
      <trkpt lat="43.236630" lon="-8.697574">
        <ele>143.833</ele>
        <time>2019-06-21T11:30:02Z</time>
      </trkpt>
      <trkpt lat="43.236548" lon="-8.697525">
        <ele>143.255</ele>
        <time>2019-06-21T11:30:03Z</time>
      </trkpt>
      <trkpt lat="43.236439" lon="-8.697482">
        <ele>142.472</ele>
        <time>2019-06-21T11:30:04Z</time>
      </trkpt>
      <trkpt lat="43.236316" lon="-8.697497">
        <ele>141.713</ele>
        <time>2019-06-21T11:30:05Z</time>
      </trkpt>
      <trkpt lat="43.236191" lon="-8.697506">
        <ele>141.314</ele>
        <time>2019-06-21T11:30:06Z</time>
      </trkpt>
      <trkpt lat="43.236069" lon="-8.697520">
        <ele>141.208</ele>
        <time>2019-06-21T11:30:07Z</time>
      </trkpt>
      <trkpt lat="43.235954" lon="-8.697534">
        <ele>141.680</ele>
        <time>2019-06-21T11:30:08Z</time>
      </trkpt>
      <trkpt lat="43.235845" lon="-8.697549">
        <ele>142.094</ele>
        <time>2019-06-21T11:30:09Z</time>
      </trkpt>
      <trkpt lat="43.235740" lon="-8.697554">
        <ele>141.966</ele>
        <time>2019-06-21T11:30:10Z</time>
      </trkpt>
      <trkpt lat="43.235647" lon="-8.697568">
        <ele>141.878</ele>
        <time>2019-06-21T11:30:11Z</time>
      </trkpt>
      <trkpt lat="43.235565" lon="-8.697579">
        <ele>141.735</ele>
        <time>2019-06-21T11:30:12Z</time>
      </trkpt>
      <trkpt lat="43.235509" lon="-8.697606">
        <ele>141.121</ele>
        <time>2019-06-21T11:30:13Z</time>
      </trkpt>
      <trkpt lat="43.235496" lon="-8.697709">
        <ele>140.615</ele>
        <time>2019-06-21T11:30:15Z</time>
      </trkpt>
      <trkpt lat="43.235506" lon="-8.697788">
        <ele>140.577</ele>
        <time>2019-06-21T11:30:16Z</time>
      </trkpt>
      <trkpt lat="43.235546" lon="-8.697899">
        <ele>140.966</ele>
        <time>2019-06-21T11:30:17Z</time>
      </trkpt>
      <trkpt lat="43.235595" lon="-8.698022">
        <ele>141.329</ele>
        <time>2019-06-21T11:30:18Z</time>
      </trkpt>
      <trkpt lat="43.235643" lon="-8.698154">
        <ele>142.021</ele>
        <time>2019-06-21T11:30:19Z</time>
      </trkpt>
      <trkpt lat="43.235687" lon="-8.698292">
        <ele>142.808</ele>
        <time>2019-06-21T11:30:20Z</time>
      </trkpt>
      <trkpt lat="43.235709" lon="-8.698426">
        <ele>143.699</ele>
        <time>2019-06-21T11:30:21Z</time>
      </trkpt>
      <trkpt lat="43.235725" lon="-8.698544">
        <ele>144.483</ele>
        <time>2019-06-21T11:30:22Z</time>
      </trkpt>
      <trkpt lat="43.235734" lon="-8.698662">
        <ele>145.265</ele>
        <time>2019-06-21T11:30:23Z</time>
      </trkpt>
      <trkpt lat="43.235728" lon="-8.698779">
        <ele>145.827</ele>
        <time>2019-06-21T11:30:24Z</time>
      </trkpt>
      <trkpt lat="43.235700" lon="-8.698895">
        <ele>146.114</ele>
        <time>2019-06-21T11:30:25Z</time>
      </trkpt>
      <trkpt lat="43.235652" lon="-8.698981">
        <ele>145.610</ele>
        <time>2019-06-21T11:30:26Z</time>
      </trkpt>
      <trkpt lat="43.235598" lon="-8.699088">
        <ele>145.224</ele>
        <time>2019-06-21T11:30:27Z</time>
      </trkpt>
      <trkpt lat="43.235533" lon="-8.699193">
        <ele>144.996</ele>
        <time>2019-06-21T11:30:28Z</time>
      </trkpt>
      <trkpt lat="43.235474" lon="-8.699294">
        <ele>144.721</ele>
        <time>2019-06-21T11:30:29Z</time>
      </trkpt>
      <trkpt lat="43.235438" lon="-8.699408">
        <ele>144.741</ele>
        <time>2019-06-21T11:30:30Z</time>
      </trkpt>
      <trkpt lat="43.235409" lon="-8.699534">
        <ele>144.105</ele>
        <time>2019-06-21T11:30:31Z</time>
      </trkpt>
      <trkpt lat="43.235392" lon="-8.699677">
        <ele>143.508</ele>
        <time>2019-06-21T11:30:32Z</time>
      </trkpt>
      <trkpt lat="43.235371" lon="-8.699827">
        <ele>142.665</ele>
        <time>2019-06-21T11:30:33Z</time>
      </trkpt>
      <trkpt lat="43.235366" lon="-8.699988">
        <ele>141.469</ele>
        <time>2019-06-21T11:30:34Z</time>
      </trkpt>
      <trkpt lat="43.235372" lon="-8.700153">
        <ele>140.621</ele>
        <time>2019-06-21T11:30:35Z</time>
      </trkpt>
      <trkpt lat="43.235371" lon="-8.700328">
        <ele>139.853</ele>
        <time>2019-06-21T11:30:36Z</time>
      </trkpt>
      <trkpt lat="43.235374" lon="-8.700500">
        <ele>139.220</ele>
        <time>2019-06-21T11:30:37Z</time>
      </trkpt>
      <trkpt lat="43.235368" lon="-8.700684">
        <ele>138.576</ele>
        <time>2019-06-21T11:30:38Z</time>
      </trkpt>
      <trkpt lat="43.235363" lon="-8.700861">
        <ele>138.090</ele>
        <time>2019-06-21T11:30:39Z</time>
      </trkpt>
      <trkpt lat="43.235320" lon="-8.701005">
        <ele>138.062</ele>
        <time>2019-06-21T11:30:40Z</time>
      </trkpt>
      <trkpt lat="43.235300" lon="-8.701165">
        <ele>137.817</ele>
        <time>2019-06-21T11:30:41Z</time>
      </trkpt>
      <trkpt lat="43.235296" lon="-8.701293">
        <ele>137.387</ele>
        <time>2019-06-21T11:30:42Z</time>
      </trkpt>
      <trkpt lat="43.235278" lon="-8.701454">
        <ele>137.015</ele>
        <time>2019-06-21T11:30:43Z</time>
      </trkpt>
      <trkpt lat="43.235254" lon="-8.701619">
        <ele>137.108</ele>
        <time>2019-06-21T11:30:44Z</time>
      </trkpt>
      <trkpt lat="43.235221" lon="-8.701776">
        <ele>136.734</ele>
        <time>2019-06-21T11:30:45Z</time>
      </trkpt>
      <trkpt lat="43.235174" lon="-8.701943">
        <ele>136.018</ele>
        <time>2019-06-21T11:30:46Z</time>
      </trkpt>
      <trkpt lat="43.235092" lon="-8.702065">
        <ele>135.640</ele>
        <time>2019-06-21T11:30:47Z</time>
      </trkpt>
      <trkpt lat="43.235043" lon="-8.702204">
        <ele>135.112</ele>
        <time>2019-06-21T11:30:48Z</time>
      </trkpt>
      <trkpt lat="43.234983" lon="-8.702338">
        <ele>134.559</ele>
        <time>2019-06-21T11:30:49Z</time>
      </trkpt>
      <trkpt lat="43.234946" lon="-8.702500">
        <ele>133.645</ele>
        <time>2019-06-21T11:30:50Z</time>
      </trkpt>
      <trkpt lat="43.234915" lon="-8.702646">
        <ele>133.019</ele>
        <time>2019-06-21T11:30:51Z</time>
      </trkpt>
      <trkpt lat="43.234875" lon="-8.702805">
        <ele>132.521</ele>
        <time>2019-06-21T11:30:52Z</time>
      </trkpt>
      <trkpt lat="43.234832" lon="-8.702957">
        <ele>131.863</ele>
        <time>2019-06-21T11:30:53Z</time>
      </trkpt>
      <trkpt lat="43.234790" lon="-8.703106">
        <ele>130.944</ele>
        <time>2019-06-21T11:30:54Z</time>
      </trkpt>
      <trkpt lat="43.234765" lon="-8.703255">
        <ele>129.718</ele>
        <time>2019-06-21T11:30:55Z</time>
      </trkpt>
      <trkpt lat="43.234726" lon="-8.703399">
        <ele>128.808</ele>
        <time>2019-06-21T11:30:56Z</time>
      </trkpt>
      <trkpt lat="43.234679" lon="-8.703547">
        <ele>128.159</ele>
        <time>2019-06-21T11:30:57Z</time>
      </trkpt>
      <trkpt lat="43.234572" lon="-8.703679">
        <ele>127.323</ele>
        <time>2019-06-21T11:30:58Z</time>
      </trkpt>
      <trkpt lat="43.234498" lon="-8.703801">
        <ele>127.155</ele>
        <time>2019-06-21T11:30:59Z</time>
      </trkpt>
      <trkpt lat="43.234410" lon="-8.703932">
        <ele>127.227</ele>
        <time>2019-06-21T11:31:00Z</time>
      </trkpt>
      <trkpt lat="43.234325" lon="-8.704063">
        <ele>127.634</ele>
        <time>2019-06-21T11:31:01Z</time>
      </trkpt>
      <trkpt lat="43.234222" lon="-8.704179">
        <ele>128.040</ele>
        <time>2019-06-21T11:31:02Z</time>
      </trkpt>
      <trkpt lat="43.234118" lon="-8.704292">
        <ele>128.134</ele>
        <time>2019-06-21T11:31:03Z</time>
      </trkpt>
      <trkpt lat="43.234013" lon="-8.704409">
        <ele>128.536</ele>
        <time>2019-06-21T11:31:04Z</time>
      </trkpt>
      <trkpt lat="43.233906" lon="-8.704504">
        <ele>129.289</ele>
        <time>2019-06-21T11:31:05Z</time>
      </trkpt>
      <trkpt lat="43.233805" lon="-8.704595">
        <ele>129.806</ele>
        <time>2019-06-21T11:31:06Z</time>
      </trkpt>
      <trkpt lat="43.233713" lon="-8.704694">
        <ele>130.526</ele>
        <time>2019-06-21T11:31:07Z</time>
      </trkpt>
      <trkpt lat="43.233622" lon="-8.704795">
        <ele>131.208</ele>
        <time>2019-06-21T11:31:08Z</time>
      </trkpt>
      <trkpt lat="43.233552" lon="-8.704927">
        <ele>131.931</ele>
        <time>2019-06-21T11:31:09Z</time>
      </trkpt>
      <trkpt lat="43.233486" lon="-8.705070">
        <ele>132.645</ele>
        <time>2019-06-21T11:31:10Z</time>
      </trkpt>
      <trkpt lat="43.233419" lon="-8.705227">
        <ele>132.987</ele>
        <time>2019-06-21T11:31:11Z</time>
      </trkpt>
      <trkpt lat="43.233366" lon="-8.705384">
        <ele>133.079</ele>
        <time>2019-06-21T11:31:12Z</time>
      </trkpt>
      <trkpt lat="43.233318" lon="-8.705529">
        <ele>132.976</ele>
        <time>2019-06-21T11:31:13Z</time>
      </trkpt>
      <trkpt lat="43.233267" lon="-8.705683">
        <ele>132.892</ele>
        <time>2019-06-21T11:31:14Z</time>
      </trkpt>
      <trkpt lat="43.233222" lon="-8.705823">
        <ele>132.686</ele>
        <time>2019-06-21T11:31:15Z</time>
      </trkpt>
      <trkpt lat="43.233178" lon="-8.705959">
        <ele>132.788</ele>
        <time>2019-06-21T11:31:16Z</time>
      </trkpt>
      <trkpt lat="43.233132" lon="-8.706082">
        <ele>132.959</ele>
        <time>2019-06-21T11:31:17Z</time>
      </trkpt>
      <trkpt lat="43.233092" lon="-8.706188">
        <ele>133.303</ele>
        <time>2019-06-21T11:31:18Z</time>
      </trkpt>
      <trkpt lat="43.233047" lon="-8.706289">
        <ele>133.723</ele>
        <time>2019-06-21T11:31:19Z</time>
      </trkpt>
      <trkpt lat="43.232989" lon="-8.706392">
        <ele>134.308</ele>
        <time>2019-06-21T11:31:20Z</time>
      </trkpt>
      <trkpt lat="43.232911" lon="-8.706487">
        <ele>135.128</ele>
        <time>2019-06-21T11:31:21Z</time>
      </trkpt>
      <trkpt lat="43.232826" lon="-8.706571">
        <ele>136.072</ele>
        <time>2019-06-21T11:31:22Z</time>
      </trkpt>
      <trkpt lat="43.232727" lon="-8.706648">
        <ele>136.944</ele>
        <time>2019-06-21T11:31:23Z</time>
      </trkpt>
      <trkpt lat="43.232626" lon="-8.706732">
        <ele>137.436</ele>
        <time>2019-06-21T11:31:24Z</time>
      </trkpt>
      <trkpt lat="43.232520" lon="-8.706821">
        <ele>138.143</ele>
        <time>2019-06-21T11:31:25Z</time>
      </trkpt>
      <trkpt lat="43.232420" lon="-8.706927">
        <ele>138.319</ele>
        <time>2019-06-21T11:31:26Z</time>
      </trkpt>
      <trkpt lat="43.232327" lon="-8.707037">
        <ele>137.883</ele>
        <time>2019-06-21T11:31:27Z</time>
      </trkpt>
      <trkpt lat="43.232243" lon="-8.707149">
        <ele>137.245</ele>
        <time>2019-06-21T11:31:28Z</time>
      </trkpt>
      <trkpt lat="43.232152" lon="-8.707259">
        <ele>136.798</ele>
        <time>2019-06-21T11:31:29Z</time>
      </trkpt>
      <trkpt lat="43.232066" lon="-8.707372">
        <ele>136.415</ele>
        <time>2019-06-21T11:31:30Z</time>
      </trkpt>
      <trkpt lat="43.231989" lon="-8.707486">
        <ele>136.226</ele>
        <time>2019-06-21T11:31:31Z</time>
      </trkpt>
      <trkpt lat="43.231920" lon="-8.707612">
        <ele>136.708</ele>
        <time>2019-06-21T11:31:32Z</time>
      </trkpt>
      <trkpt lat="43.231858" lon="-8.707748">
        <ele>137.582</ele>
        <time>2019-06-21T11:31:33Z</time>
      </trkpt>
      <trkpt lat="43.231800" lon="-8.707898">
        <ele>137.936</ele>
        <time>2019-06-21T11:31:34Z</time>
      </trkpt>
      <trkpt lat="43.231745" lon="-8.708063">
        <ele>138.338</ele>
        <time>2019-06-21T11:31:35Z</time>
      </trkpt>
      <trkpt lat="43.231684" lon="-8.708229">
        <ele>138.790</ele>
        <time>2019-06-21T11:31:36Z</time>
      </trkpt>
      <trkpt lat="43.231631" lon="-8.708386">
        <ele>138.787</ele>
        <time>2019-06-21T11:31:37Z</time>
      </trkpt>
      <trkpt lat="43.231577" lon="-8.708559">
        <ele>138.493</ele>
        <time>2019-06-21T11:31:38Z</time>
      </trkpt>
      <trkpt lat="43.231524" lon="-8.708737">
        <ele>138.037</ele>
        <time>2019-06-21T11:31:39Z</time>
      </trkpt>
      <trkpt lat="43.231472" lon="-8.708915">
        <ele>137.719</ele>
        <time>2019-06-21T11:31:40Z</time>
      </trkpt>
      <trkpt lat="43.231409" lon="-8.709072">
        <ele>137.838</ele>
        <time>2019-06-21T11:31:41Z</time>
      </trkpt>
      <trkpt lat="43.231346" lon="-8.709222">
        <ele>137.670</ele>
        <time>2019-06-21T11:31:42Z</time>
      </trkpt>
      <trkpt lat="43.231280" lon="-8.709362">
        <ele>137.117</ele>
        <time>2019-06-21T11:31:43Z</time>
      </trkpt>
      <trkpt lat="43.231215" lon="-8.709499">
        <ele>136.708</ele>
        <time>2019-06-21T11:31:44Z</time>
      </trkpt>
      <trkpt lat="43.231161" lon="-8.709618">
        <ele>136.246</ele>
        <time>2019-06-21T11:31:45Z</time>
      </trkpt>
      <trkpt lat="43.231117" lon="-8.709736">
        <ele>136.180</ele>
        <time>2019-06-21T11:31:46Z</time>
      </trkpt>
      <trkpt lat="43.231070" lon="-8.709856">
        <ele>136.562</ele>
        <time>2019-06-21T11:31:47Z</time>
      </trkpt>
      <trkpt lat="43.231071" lon="-8.710010">
        <ele>137.024</ele>
        <time>2019-06-21T11:31:48Z</time>
      </trkpt>
      <trkpt lat="43.231053" lon="-8.710165">
        <ele>137.011</ele>
        <time>2019-06-21T11:31:49Z</time>
      </trkpt>
      <trkpt lat="43.231047" lon="-8.710342">
        <ele>136.887</ele>
        <time>2019-06-21T11:31:50Z</time>
      </trkpt>
      <trkpt lat="43.231044" lon="-8.710529">
        <ele>136.361</ele>
        <time>2019-06-21T11:31:51Z</time>
      </trkpt>
      <trkpt lat="43.231035" lon="-8.710718">
        <ele>136.723</ele>
        <time>2019-06-21T11:31:52Z</time>
      </trkpt>
      <trkpt lat="43.231026" lon="-8.710902">
        <ele>137.218</ele>
        <time>2019-06-21T11:31:53Z</time>
      </trkpt>
      <trkpt lat="43.231024" lon="-8.711083">
        <ele>137.698</ele>
        <time>2019-06-21T11:31:54Z</time>
      </trkpt>
      <trkpt lat="43.231039" lon="-8.711250">
        <ele>138.517</ele>
        <time>2019-06-21T11:31:55Z</time>
      </trkpt>
      <trkpt lat="43.231043" lon="-8.711412">
        <ele>139.408</ele>
        <time>2019-06-21T11:31:56Z</time>
      </trkpt>
      <trkpt lat="43.231065" lon="-8.711555">
        <ele>140.624</ele>
        <time>2019-06-21T11:31:57Z</time>
      </trkpt>
      <trkpt lat="43.231093" lon="-8.711688">
        <ele>141.748</ele>
        <time>2019-06-21T11:31:58Z</time>
      </trkpt>
      <trkpt lat="43.231123" lon="-8.711804">
        <ele>142.090</ele>
        <time>2019-06-21T11:31:59Z</time>
      </trkpt>
      <trkpt lat="43.231165" lon="-8.711905">
        <ele>142.082</ele>
        <time>2019-06-21T11:32:00Z</time>
      </trkpt>
      <trkpt lat="43.231222" lon="-8.712011">
        <ele>141.899</ele>
        <time>2019-06-21T11:32:01Z</time>
      </trkpt>
      <trkpt lat="43.231281" lon="-8.712114">
        <ele>141.475</ele>
        <time>2019-06-21T11:32:02Z</time>
      </trkpt>
      <trkpt lat="43.231311" lon="-8.712224">
        <ele>141.029</ele>
        <time>2019-06-21T11:32:03Z</time>
      </trkpt>
      <trkpt lat="43.231353" lon="-8.712369">
        <ele>140.971</ele>
        <time>2019-06-21T11:32:04Z</time>
      </trkpt>
      <trkpt lat="43.231404" lon="-8.712525">
        <ele>141.066</ele>
        <time>2019-06-21T11:32:05Z</time>
      </trkpt>
      <trkpt lat="43.231445" lon="-8.712701">
        <ele>141.129</ele>
        <time>2019-06-21T11:32:06Z</time>
      </trkpt>
      <trkpt lat="43.231474" lon="-8.712882">
        <ele>141.021</ele>
        <time>2019-06-21T11:32:07Z</time>
      </trkpt>
      <trkpt lat="43.231509" lon="-8.713061">
        <ele>140.908</ele>
        <time>2019-06-21T11:32:08Z</time>
      </trkpt>
      <trkpt lat="43.231556" lon="-8.713237">
        <ele>141.259</ele>
        <time>2019-06-21T11:32:09Z</time>
      </trkpt>
      <trkpt lat="43.231584" lon="-8.713400">
        <ele>141.473</ele>
        <time>2019-06-21T11:32:10Z</time>
      </trkpt>
      <trkpt lat="43.231616" lon="-8.713545">
        <ele>141.685</ele>
        <time>2019-06-21T11:32:11Z</time>
      </trkpt>
      <trkpt lat="43.231640" lon="-8.713681">
        <ele>142.177</ele>
        <time>2019-06-21T11:32:12Z</time>
      </trkpt>
      <trkpt lat="43.231662" lon="-8.713811">
        <ele>142.754</ele>
        <time>2019-06-21T11:32:13Z</time>
      </trkpt>
      <trkpt lat="43.231677" lon="-8.713937">
        <ele>142.920</ele>
        <time>2019-06-21T11:32:14Z</time>
      </trkpt>
      <trkpt lat="43.231691" lon="-8.714061">
        <ele>142.624</ele>
        <time>2019-06-21T11:32:15Z</time>
      </trkpt>
      <trkpt lat="43.231705" lon="-8.714193">
        <ele>142.436</ele>
        <time>2019-06-21T11:32:16Z</time>
      </trkpt>
      <trkpt lat="43.231727" lon="-8.714323">
        <ele>142.872</ele>
        <time>2019-06-21T11:32:17Z</time>
      </trkpt>
      <trkpt lat="43.231752" lon="-8.714455">
        <ele>143.313</ele>
        <time>2019-06-21T11:32:18Z</time>
      </trkpt>
      <trkpt lat="43.231774" lon="-8.714570">
        <ele>144.014</ele>
        <time>2019-06-21T11:32:19Z</time>
      </trkpt>
      <trkpt lat="43.231807" lon="-8.714682">
        <ele>144.908</ele>
        <time>2019-06-21T11:32:20Z</time>
      </trkpt>
      <trkpt lat="43.231865" lon="-8.714767">
        <ele>145.930</ele>
        <time>2019-06-21T11:32:21Z</time>
      </trkpt>
      <trkpt lat="43.231938" lon="-8.714837">
        <ele>146.964</ele>
        <time>2019-06-21T11:32:22Z</time>
      </trkpt>
      <trkpt lat="43.232019" lon="-8.714887">
        <ele>147.556</ele>
        <time>2019-06-21T11:32:23Z</time>
      </trkpt>
      <trkpt lat="43.232106" lon="-8.714942">
        <ele>148.238</ele>
        <time>2019-06-21T11:32:24Z</time>
      </trkpt>
      <trkpt lat="43.232191" lon="-8.714994">
        <ele>148.855</ele>
        <time>2019-06-21T11:32:25Z</time>
      </trkpt>
      <trkpt lat="43.232283" lon="-8.715048">
        <ele>149.581</ele>
        <time>2019-06-21T11:32:26Z</time>
      </trkpt>
      <trkpt lat="43.232373" lon="-8.715100">
        <ele>150.345</ele>
        <time>2019-06-21T11:32:27Z</time>
      </trkpt>
      <trkpt lat="43.232461" lon="-8.715154">
        <ele>151.247</ele>
        <time>2019-06-21T11:32:28Z</time>
      </trkpt>
      <trkpt lat="43.232551" lon="-8.715198">
        <ele>152.186</ele>
        <time>2019-06-21T11:32:29Z</time>
      </trkpt>
      <trkpt lat="43.232613" lon="-8.715265">
        <ele>152.860</ele>
        <time>2019-06-21T11:32:30Z</time>
      </trkpt>
      <trkpt lat="43.232686" lon="-8.715324">
        <ele>153.326</ele>
        <time>2019-06-21T11:32:31Z</time>
      </trkpt>
      <trkpt lat="43.232757" lon="-8.715370">
        <ele>153.808</ele>
        <time>2019-06-21T11:32:32Z</time>
      </trkpt>
      <trkpt lat="43.232825" lon="-8.715397">
        <ele>154.271</ele>
        <time>2019-06-21T11:32:33Z</time>
      </trkpt>
      <trkpt lat="43.232886" lon="-8.715425">
        <ele>154.675</ele>
        <time>2019-06-21T11:32:34Z</time>
      </trkpt>
      <trkpt lat="43.232951" lon="-8.715459">
        <ele>155.057</ele>
        <time>2019-06-21T11:32:35Z</time>
      </trkpt>
      <trkpt lat="43.233005" lon="-8.715493">
        <ele>155.519</ele>
        <time>2019-06-21T11:32:36Z</time>
      </trkpt>
      <trkpt lat="43.233057" lon="-8.715578">
        <ele>156.276</ele>
        <time>2019-06-21T11:32:37Z</time>
      </trkpt>
      <trkpt lat="43.233102" lon="-8.715691">
        <ele>157.352</ele>
        <time>2019-06-21T11:32:39Z</time>
      </trkpt>
      <trkpt lat="43.233130" lon="-8.715764">
        <ele>158.056</ele>
        <time>2019-06-21T11:32:40Z</time>
      </trkpt>
      <trkpt lat="43.233121" lon="-8.715846">
        <ele>158.618</ele>
        <time>2019-06-21T11:32:41Z</time>
      </trkpt>
      <trkpt lat="43.233107" lon="-8.715947">
        <ele>159.145</ele>
        <time>2019-06-21T11:32:42Z</time>
      </trkpt>
      <trkpt lat="43.233119" lon="-8.716041">
        <ele>159.847</ele>
        <time>2019-06-21T11:32:43Z</time>
      </trkpt>
      <trkpt lat="43.233137" lon="-8.716130">
        <ele>160.211</ele>
        <time>2019-06-21T11:32:44Z</time>
      </trkpt>
      <trkpt lat="43.233168" lon="-8.716206">
        <ele>160.108</ele>
        <time>2019-06-21T11:32:45Z</time>
      </trkpt>
      <trkpt lat="43.233197" lon="-8.716275">
        <ele>159.947</ele>
        <time>2019-06-21T11:32:46Z</time>
      </trkpt>
      <trkpt lat="43.233231" lon="-8.716338">
        <ele>159.881</ele>
        <time>2019-06-21T11:32:47Z</time>
      </trkpt>
      <trkpt lat="43.233259" lon="-8.716396">
        <ele>159.723</ele>
        <time>2019-06-21T11:32:48Z</time>
      </trkpt>
      <trkpt lat="43.233307" lon="-8.716445">
        <ele>159.755</ele>
        <time>2019-06-21T11:32:49Z</time>
      </trkpt>
      <trkpt lat="43.233355" lon="-8.716507">
        <ele>159.712</ele>
        <time>2019-06-21T11:32:50Z</time>
      </trkpt>
      <trkpt lat="43.233398" lon="-8.716561">
        <ele>159.648</ele>
        <time>2019-06-21T11:32:51Z</time>
      </trkpt>
      <trkpt lat="43.233465" lon="-8.716599">
        <ele>159.532</ele>
        <time>2019-06-21T11:32:52Z</time>
      </trkpt>
      <trkpt lat="43.233524" lon="-8.716648">
        <ele>159.274</ele>
        <time>2019-06-21T11:32:53Z</time>
      </trkpt>
      <trkpt lat="43.233578" lon="-8.716730">
        <ele>158.651</ele>
        <time>2019-06-21T11:32:54Z</time>
      </trkpt>
      <trkpt lat="43.233615" lon="-8.716771">
        <ele>158.301</ele>
        <time>2019-06-21T11:32:55Z</time>
      </trkpt>
      <trkpt lat="43.233671" lon="-8.716839">
        <ele>158.311</ele>
        <time>2019-06-21T11:32:56Z</time>
      </trkpt>
      <trkpt lat="43.233724" lon="-8.716929">
        <ele>158.308</ele>
        <time>2019-06-21T11:32:57Z</time>
      </trkpt>
      <trkpt lat="43.233797" lon="-8.717026">
        <ele>158.868</ele>
        <time>2019-06-21T11:32:58Z</time>
      </trkpt>
      <trkpt lat="43.233819" lon="-8.717117">
        <ele>158.872</ele>
        <time>2019-06-21T11:32:59Z</time>
      </trkpt>
      <trkpt lat="43.233854" lon="-8.717222">
        <ele>158.724</ele>
        <time>2019-06-21T11:33:00Z</time>
      </trkpt>
      <trkpt lat="43.233901" lon="-8.717353">
        <ele>159.696</ele>
        <time>2019-06-21T11:33:01Z</time>
      </trkpt>
      <trkpt lat="43.233948" lon="-8.717476">
        <ele>160.213</ele>
        <time>2019-06-21T11:33:02Z</time>
      </trkpt>
      <trkpt lat="43.233983" lon="-8.717604">
        <ele>160.059</ele>
        <time>2019-06-21T11:33:03Z</time>
      </trkpt>
      <trkpt lat="43.234004" lon="-8.717718">
        <ele>159.683</ele>
        <time>2019-06-21T11:33:04Z</time>
      </trkpt>
      <trkpt lat="43.234028" lon="-8.717841">
        <ele>159.235</ele>
        <time>2019-06-21T11:33:05Z</time>
      </trkpt>
      <trkpt lat="43.234047" lon="-8.717963">
        <ele>158.598</ele>
        <time>2019-06-21T11:33:06Z</time>
      </trkpt>
      <trkpt lat="43.234060" lon="-8.718094">
        <ele>157.815</ele>
        <time>2019-06-21T11:33:07Z</time>
      </trkpt>
      <trkpt lat="43.234063" lon="-8.718218">
        <ele>157.226</ele>
        <time>2019-06-21T11:33:08Z</time>
      </trkpt>
      <trkpt lat="43.234041" lon="-8.718342">
        <ele>156.508</ele>
        <time>2019-06-21T11:33:09Z</time>
      </trkpt>
      <trkpt lat="43.234015" lon="-8.718470">
        <ele>156.052</ele>
        <time>2019-06-21T11:33:10Z</time>
      </trkpt>
      <trkpt lat="43.233975" lon="-8.718601">
        <ele>155.316</ele>
        <time>2019-06-21T11:33:11Z</time>
      </trkpt>
      <trkpt lat="43.233930" lon="-8.718734">
        <ele>155.158</ele>
        <time>2019-06-21T11:33:12Z</time>
      </trkpt>
      <trkpt lat="43.233899" lon="-8.718873">
        <ele>155.030</ele>
        <time>2019-06-21T11:33:13Z</time>
      </trkpt>
      <trkpt lat="43.233882" lon="-8.719008">
        <ele>155.467</ele>
        <time>2019-06-21T11:33:14Z</time>
      </trkpt>
      <trkpt lat="43.233881" lon="-8.719144">
        <ele>155.913</ele>
        <time>2019-06-21T11:33:15Z</time>
      </trkpt>
      <trkpt lat="43.233897" lon="-8.719294">
        <ele>156.597</ele>
        <time>2019-06-21T11:33:16Z</time>
      </trkpt>
      <trkpt lat="43.233920" lon="-8.719461">
        <ele>157.199</ele>
        <time>2019-06-21T11:33:17Z</time>
      </trkpt>
      <trkpt lat="43.233956" lon="-8.719618">
        <ele>157.634</ele>
        <time>2019-06-21T11:33:18Z</time>
      </trkpt>
      <trkpt lat="43.233974" lon="-8.719781">
        <ele>158.255</ele>
        <time>2019-06-21T11:33:19Z</time>
      </trkpt>
      <trkpt lat="43.233987" lon="-8.719944">
        <ele>158.810</ele>
        <time>2019-06-21T11:33:20Z</time>
      </trkpt>
      <trkpt lat="43.233981" lon="-8.720105">
        <ele>159.308</ele>
        <time>2019-06-21T11:33:21Z</time>
      </trkpt>
      <trkpt lat="43.233976" lon="-8.720245">
        <ele>159.696</ele>
        <time>2019-06-21T11:33:22Z</time>
      </trkpt>
      <trkpt lat="43.233969" lon="-8.720377">
        <ele>160.170</ele>
        <time>2019-06-21T11:33:23Z</time>
      </trkpt>
      <trkpt lat="43.233962" lon="-8.720500">
        <ele>160.572</ele>
        <time>2019-06-21T11:33:24Z</time>
      </trkpt>
      <trkpt lat="43.233959" lon="-8.720603">
        <ele>160.734</ele>
        <time>2019-06-21T11:33:25Z</time>
      </trkpt>
      <trkpt lat="43.233964" lon="-8.720678">
        <ele>160.721</ele>
        <time>2019-06-21T11:33:26Z</time>
      </trkpt>
      <trkpt lat="43.233984" lon="-8.720770">
        <ele>160.737</ele>
        <time>2019-06-21T11:33:28Z</time>
      </trkpt>
      <trkpt lat="43.234022" lon="-8.720820">
        <ele>160.571</ele>
        <time>2019-06-21T11:33:29Z</time>
      </trkpt>
      <trkpt lat="43.234066" lon="-8.720903">
        <ele>160.653</ele>
        <time>2019-06-21T11:33:30Z</time>
      </trkpt>
      <trkpt lat="43.234133" lon="-8.721000">
        <ele>160.784</ele>
        <time>2019-06-21T11:33:31Z</time>
      </trkpt>
      <trkpt lat="43.234213" lon="-8.721113">
        <ele>160.807</ele>
        <time>2019-06-21T11:33:32Z</time>
      </trkpt>
      <trkpt lat="43.234301" lon="-8.721245">
        <ele>160.517</ele>
        <time>2019-06-21T11:33:33Z</time>
      </trkpt>
      <trkpt lat="43.234402" lon="-8.721385">
        <ele>160.208</ele>
        <time>2019-06-21T11:33:34Z</time>
      </trkpt>
      <trkpt lat="43.234506" lon="-8.721515">
        <ele>159.651</ele>
        <time>2019-06-21T11:33:35Z</time>
      </trkpt>
      <trkpt lat="43.234604" lon="-8.721667">
        <ele>158.935</ele>
        <time>2019-06-21T11:33:36Z</time>
      </trkpt>
      <trkpt lat="43.234705" lon="-8.721806">
        <ele>158.657</ele>
        <time>2019-06-21T11:33:37Z</time>
      </trkpt>
      <trkpt lat="43.234807" lon="-8.721949">
        <ele>158.749</ele>
        <time>2019-06-21T11:33:38Z</time>
      </trkpt>
      <trkpt lat="43.234920" lon="-8.722090">
        <ele>159.046</ele>
        <time>2019-06-21T11:33:39Z</time>
      </trkpt>
      <trkpt lat="43.235029" lon="-8.722238">
        <ele>159.282</ele>
        <time>2019-06-21T11:33:40Z</time>
      </trkpt>
      <trkpt lat="43.235139" lon="-8.722378">
        <ele>159.826</ele>
        <time>2019-06-21T11:33:41Z</time>
      </trkpt>
      <trkpt lat="43.235257" lon="-8.722504">
        <ele>159.238</ele>
        <time>2019-06-21T11:33:42Z</time>
      </trkpt>
      <trkpt lat="43.235378" lon="-8.722635">
        <ele>157.999</ele>
        <time>2019-06-21T11:33:43Z</time>
      </trkpt>
      <trkpt lat="43.235502" lon="-8.722768">
        <ele>156.607</ele>
        <time>2019-06-21T11:33:44Z</time>
      </trkpt>
      <trkpt lat="43.235643" lon="-8.722899">
        <ele>155.127</ele>
        <time>2019-06-21T11:33:45Z</time>
      </trkpt>
      <trkpt lat="43.235776" lon="-8.723029">
        <ele>153.608</ele>
        <time>2019-06-21T11:33:46Z</time>
      </trkpt>
      <trkpt lat="43.235912" lon="-8.723149">
        <ele>153.112</ele>
        <time>2019-06-21T11:33:47Z</time>
      </trkpt>
      <trkpt lat="43.236054" lon="-8.723249">
        <ele>153.666</ele>
        <time>2019-06-21T11:33:48Z</time>
      </trkpt>
      <trkpt lat="43.236194" lon="-8.723355">
        <ele>153.548</ele>
        <time>2019-06-21T11:33:49Z</time>
      </trkpt>
      <trkpt lat="43.236332" lon="-8.723450">
        <ele>152.540</ele>
        <time>2019-06-21T11:33:50Z</time>
      </trkpt>
      <trkpt lat="43.236458" lon="-8.723554">
        <ele>151.397</ele>
        <time>2019-06-21T11:33:51Z</time>
      </trkpt>
      <trkpt lat="43.236591" lon="-8.723647">
        <ele>149.973</ele>
        <time>2019-06-21T11:33:52Z</time>
      </trkpt>
      <trkpt lat="43.236709" lon="-8.723725">
        <ele>149.677</ele>
        <time>2019-06-21T11:33:53Z</time>
      </trkpt>
      <trkpt lat="43.236857" lon="-8.723802">
        <ele>150.849</ele>
        <time>2019-06-21T11:33:54Z</time>
      </trkpt>
      <trkpt lat="43.236985" lon="-8.723876">
        <ele>151.869</ele>
        <time>2019-06-21T11:33:55Z</time>
      </trkpt>
      <trkpt lat="43.237090" lon="-8.723949">
        <ele>151.904</ele>
        <time>2019-06-21T11:33:56Z</time>
      </trkpt>
      <trkpt lat="43.237181" lon="-8.724002">
        <ele>152.024</ele>
        <time>2019-06-21T11:33:57Z</time>
      </trkpt>
      <trkpt lat="43.237246" lon="-8.724056">
        <ele>151.808</ele>
        <time>2019-06-21T11:33:58Z</time>
      </trkpt>
      <trkpt lat="43.237324" lon="-8.724098">
        <ele>150.849</ele>
        <time>2019-06-21T11:33:59Z</time>
      </trkpt>
      <trkpt lat="43.237403" lon="-8.724159">
        <ele>149.773</ele>
        <time>2019-06-21T11:34:00Z</time>
      </trkpt>
      <trkpt lat="43.237478" lon="-8.724218">
        <ele>148.855</ele>
        <time>2019-06-21T11:34:01Z</time>
      </trkpt>
      <trkpt lat="43.237532" lon="-8.724281">
        <ele>148.457</ele>
        <time>2019-06-21T11:34:02Z</time>
      </trkpt>
      <trkpt lat="43.237573" lon="-8.724355">
        <ele>148.314</ele>
        <time>2019-06-21T11:34:03Z</time>
      </trkpt>
      <trkpt lat="43.237627" lon="-8.724451">
        <ele>148.320</ele>
        <time>2019-06-21T11:34:04Z</time>
      </trkpt>
      <trkpt lat="43.237708" lon="-8.724571">
        <ele>148.744</ele>
        <time>2019-06-21T11:34:05Z</time>
      </trkpt>
      <trkpt lat="43.237783" lon="-8.724705">
        <ele>149.746</ele>
        <time>2019-06-21T11:34:06Z</time>
      </trkpt>
      <trkpt lat="43.237881" lon="-8.724847">
        <ele>149.557</ele>
        <time>2019-06-21T11:34:07Z</time>
      </trkpt>
      <trkpt lat="43.237997" lon="-8.725004">
        <ele>149.100</ele>
        <time>2019-06-21T11:34:08Z</time>
      </trkpt>
      <trkpt lat="43.238130" lon="-8.725151">
        <ele>147.320</ele>
        <time>2019-06-21T11:34:09Z</time>
      </trkpt>
      <trkpt lat="43.238267" lon="-8.725315">
        <ele>146.308</ele>
        <time>2019-06-21T11:34:10Z</time>
      </trkpt>
      <trkpt lat="43.238406" lon="-8.725483">
        <ele>146.158</ele>
        <time>2019-06-21T11:34:11Z</time>
      </trkpt>
      <trkpt lat="43.238535" lon="-8.725652">
        <ele>146.762</ele>
        <time>2019-06-21T11:34:12Z</time>
      </trkpt>
      <trkpt lat="43.238662" lon="-8.725813">
        <ele>146.584</ele>
        <time>2019-06-21T11:34:13Z</time>
      </trkpt>
      <trkpt lat="43.238796" lon="-8.725953">
        <ele>146.176</ele>
        <time>2019-06-21T11:34:14Z</time>
      </trkpt>
      <trkpt lat="43.238904" lon="-8.726087">
        <ele>145.763</ele>
        <time>2019-06-21T11:34:15Z</time>
      </trkpt>
      <trkpt lat="43.239009" lon="-8.726212">
        <ele>145.959</ele>
        <time>2019-06-21T11:34:16Z</time>
      </trkpt>
      <trkpt lat="43.239114" lon="-8.726347">
        <ele>146.843</ele>
        <time>2019-06-21T11:34:17Z</time>
      </trkpt>
      <trkpt lat="43.239224" lon="-8.726487">
        <ele>148.675</ele>
        <time>2019-06-21T11:34:18Z</time>
      </trkpt>
      <trkpt lat="43.239343" lon="-8.726625">
        <ele>150.346</ele>
        <time>2019-06-21T11:34:19Z</time>
      </trkpt>
      <trkpt lat="43.239482" lon="-8.726779">
        <ele>152.088</ele>
        <time>2019-06-21T11:34:20Z</time>
      </trkpt>
      <trkpt lat="43.239628" lon="-8.726916">
        <ele>152.816</ele>
        <time>2019-06-21T11:34:21Z</time>
      </trkpt>
      <trkpt lat="43.239765" lon="-8.727043">
        <ele>152.108</ele>
        <time>2019-06-21T11:34:22Z</time>
      </trkpt>
      <trkpt lat="43.239904" lon="-8.727169">
        <ele>149.587</ele>
        <time>2019-06-21T11:34:23Z</time>
      </trkpt>
      <trkpt lat="43.240035" lon="-8.727280">
        <ele>147.331</ele>
        <time>2019-06-21T11:34:24Z</time>
      </trkpt>
      <trkpt lat="43.240165" lon="-8.727394">
        <ele>146.223</ele>
        <time>2019-06-21T11:34:25Z</time>
      </trkpt>
      <trkpt lat="43.240293" lon="-8.727499">
        <ele>144.865</ele>
        <time>2019-06-21T11:34:26Z</time>
      </trkpt>
      <trkpt lat="43.240417" lon="-8.727609">
        <ele>144.222</ele>
        <time>2019-06-21T11:34:27Z</time>
      </trkpt>
      <trkpt lat="43.240548" lon="-8.727717">
        <ele>143.538</ele>
        <time>2019-06-21T11:34:28Z</time>
      </trkpt>
      <trkpt lat="43.240677" lon="-8.727826">
        <ele>142.932</ele>
        <time>2019-06-21T11:34:29Z</time>
      </trkpt>
      <trkpt lat="43.240798" lon="-8.727928">
        <ele>142.724</ele>
        <time>2019-06-21T11:34:30Z</time>
      </trkpt>
      <trkpt lat="43.240915" lon="-8.728031">
        <ele>142.588</ele>
        <time>2019-06-21T11:34:31Z</time>
      </trkpt>
      <trkpt lat="43.241051" lon="-8.728141">
        <ele>142.324</ele>
        <time>2019-06-21T11:34:32Z</time>
      </trkpt>
      <trkpt lat="43.241186" lon="-8.728250">
        <ele>141.526</ele>
        <time>2019-06-21T11:34:33Z</time>
      </trkpt>
      <trkpt lat="43.241329" lon="-8.728372">
        <ele>140.708</ele>
        <time>2019-06-21T11:34:34Z</time>
      </trkpt>
      <trkpt lat="43.241477" lon="-8.728495">
        <ele>139.911</ele>
        <time>2019-06-21T11:34:35Z</time>
      </trkpt>
      <trkpt lat="43.241656" lon="-8.728626">
        <ele>138.445</ele>
        <time>2019-06-21T11:34:36Z</time>
      </trkpt>
      <trkpt lat="43.241832" lon="-8.728739">
        <ele>137.867</ele>
        <time>2019-06-21T11:34:37Z</time>
      </trkpt>
      <trkpt lat="43.242028" lon="-8.728831">
        <ele>136.869</ele>
        <time>2019-06-21T11:34:38Z</time>
      </trkpt>
      <trkpt lat="43.242242" lon="-8.728907">
        <ele>135.776</ele>
        <time>2019-06-21T11:34:39Z</time>
      </trkpt>
      <trkpt lat="43.242456" lon="-8.728970">
        <ele>133.432</ele>
        <time>2019-06-21T11:34:40Z</time>
      </trkpt>
      <trkpt lat="43.242698" lon="-8.728997">
        <ele>132.386</ele>
        <time>2019-06-21T11:34:41Z</time>
      </trkpt>
      <trkpt lat="43.242893" lon="-8.729033">
        <ele>131.458</ele>
        <time>2019-06-21T11:34:42Z</time>
      </trkpt>
      <trkpt lat="43.243086" lon="-8.729062">
        <ele>130.414</ele>
        <time>2019-06-21T11:34:43Z</time>
      </trkpt>
      <trkpt lat="43.243296" lon="-8.729106">
        <ele>130.254</ele>
        <time>2019-06-21T11:34:44Z</time>
      </trkpt>
      <trkpt lat="43.243512" lon="-8.729138">
        <ele>130.109</ele>
        <time>2019-06-21T11:34:45Z</time>
      </trkpt>
      <trkpt lat="43.243735" lon="-8.729170">
        <ele>130.408</ele>
        <time>2019-06-21T11:34:46Z</time>
      </trkpt>
      <trkpt lat="43.243957" lon="-8.729213">
        <ele>130.994</ele>
        <time>2019-06-21T11:34:47Z</time>
      </trkpt>
      <trkpt lat="43.244211" lon="-8.729268">
        <ele>131.098</ele>
        <time>2019-06-21T11:34:48Z</time>
      </trkpt>
      <trkpt lat="43.244422" lon="-8.729294">
        <ele>131.090</ele>
        <time>2019-06-21T11:34:49Z</time>
      </trkpt>
      <trkpt lat="43.244652" lon="-8.729331">
        <ele>131.052</ele>
        <time>2019-06-21T11:34:50Z</time>
      </trkpt>
      <trkpt lat="43.244891" lon="-8.729360">
        <ele>131.279</ele>
        <time>2019-06-21T11:34:51Z</time>
      </trkpt>
      <trkpt lat="43.245153" lon="-8.729400">
        <ele>131.635</ele>
        <time>2019-06-21T11:34:52Z</time>
      </trkpt>
      <trkpt lat="43.245381" lon="-8.729449">
        <ele>132.859</ele>
        <time>2019-06-21T11:34:53Z</time>
      </trkpt>
      <trkpt lat="43.245637" lon="-8.729509">
        <ele>134.381</ele>
        <time>2019-06-21T11:34:54Z</time>
      </trkpt>
      <trkpt lat="43.245881" lon="-8.729577">
        <ele>135.032</ele>
        <time>2019-06-21T11:34:55Z</time>
      </trkpt>
      <trkpt lat="43.246129" lon="-8.729659">
        <ele>135.192</ele>
        <time>2019-06-21T11:34:56Z</time>
      </trkpt>
      <trkpt lat="43.246366" lon="-8.729744">
        <ele>136.011</ele>
        <time>2019-06-21T11:34:57Z</time>
      </trkpt>
      <trkpt lat="43.246607" lon="-8.729852">
        <ele>136.508</ele>
        <time>2019-06-21T11:34:58Z</time>
      </trkpt>
      <trkpt lat="43.246849" lon="-8.729970">
        <ele>138.186</ele>
        <time>2019-06-21T11:34:59Z</time>
      </trkpt>
      <trkpt lat="43.247085" lon="-8.730098">
        <ele>140.010</ele>
        <time>2019-06-21T11:35:00Z</time>
      </trkpt>
      <trkpt lat="43.247310" lon="-8.730243">
        <ele>142.192</ele>
        <time>2019-06-21T11:35:01Z</time>
      </trkpt>
      <trkpt lat="43.247526" lon="-8.730387">
        <ele>143.134</ele>
        <time>2019-06-21T11:35:02Z</time>
      </trkpt>
      <trkpt lat="43.247736" lon="-8.730565">
        <ele>143.011</ele>
        <time>2019-06-21T11:35:03Z</time>
      </trkpt>
      <trkpt lat="43.247944" lon="-8.730763">
        <ele>143.987</ele>
        <time>2019-06-21T11:35:04Z</time>
      </trkpt>
      <trkpt lat="43.248142" lon="-8.730976">
        <ele>144.851</ele>
        <time>2019-06-21T11:35:05Z</time>
      </trkpt>
      <trkpt lat="43.248332" lon="-8.731200">
        <ele>146.043</ele>
        <time>2019-06-21T11:35:06Z</time>
      </trkpt>
      <trkpt lat="43.248512" lon="-8.731428">
        <ele>146.763</ele>
        <time>2019-06-21T11:35:07Z</time>
      </trkpt>
      <trkpt lat="43.248691" lon="-8.731668">
        <ele>147.344</ele>
        <time>2019-06-21T11:35:08Z</time>
      </trkpt>
      <trkpt lat="43.248857" lon="-8.731926">
        <ele>148.918</ele>
        <time>2019-06-21T11:35:09Z</time>
      </trkpt>
      <trkpt lat="43.249000" lon="-8.732204">
        <ele>151.308</ele>
        <time>2019-06-21T11:35:10Z</time>
      </trkpt>
      <trkpt lat="43.249139" lon="-8.732479">
        <ele>152.839</ele>
        <time>2019-06-21T11:35:11Z</time>
      </trkpt>
      <trkpt lat="43.249279" lon="-8.732776">
        <ele>154.443</ele>
        <time>2019-06-21T11:35:12Z</time>
      </trkpt>
      <trkpt lat="43.249397" lon="-8.733074">
        <ele>156.175</ele>
        <time>2019-06-21T11:35:13Z</time>
      </trkpt>
      <trkpt lat="43.249517" lon="-8.733385">
        <ele>158.247</ele>
        <time>2019-06-21T11:35:14Z</time>
      </trkpt>
      <trkpt lat="43.249635" lon="-8.733699">
        <ele>160.374</ele>
        <time>2019-06-21T11:35:15Z</time>
      </trkpt>
      <trkpt lat="43.249750" lon="-8.734016">
        <ele>163.090</ele>
        <time>2019-06-21T11:35:16Z</time>
      </trkpt>
      <trkpt lat="43.249838" lon="-8.734343">
        <ele>164.874</ele>
        <time>2019-06-21T11:35:17Z</time>
      </trkpt>
      <trkpt lat="43.249942" lon="-8.734687">
        <ele>163.626</ele>
        <time>2019-06-21T11:35:18Z</time>
      </trkpt>
      <trkpt lat="43.250037" lon="-8.735026">
        <ele>160.914</ele>
        <time>2019-06-21T11:35:19Z</time>
      </trkpt>
      <trkpt lat="43.250105" lon="-8.735368">
        <ele>160.454</ele>
        <time>2019-06-21T11:35:20Z</time>
      </trkpt>
      <trkpt lat="43.250181" lon="-8.735716">
        <ele>160.409</ele>
        <time>2019-06-21T11:35:21Z</time>
      </trkpt>
      <trkpt lat="43.250258" lon="-8.736066">
        <ele>160.908</ele>
        <time>2019-06-21T11:35:22Z</time>
      </trkpt>
      <trkpt lat="43.250341" lon="-8.736410">
        <ele>160.434</ele>
        <time>2019-06-21T11:35:23Z</time>
      </trkpt>
      <trkpt lat="43.250411" lon="-8.736761">
        <ele>159.648</ele>
        <time>2019-06-21T11:35:24Z</time>
      </trkpt>
      <trkpt lat="43.250484" lon="-8.737112">
        <ele>158.940</ele>
        <time>2019-06-21T11:35:25Z</time>
      </trkpt>
      <trkpt lat="43.250568" lon="-8.737466">
        <ele>159.142</ele>
        <time>2019-06-21T11:35:26Z</time>
      </trkpt>
      <trkpt lat="43.250646" lon="-8.737829">
        <ele>158.769</ele>
        <time>2019-06-21T11:35:27Z</time>
      </trkpt>
      <trkpt lat="43.250728" lon="-8.738189">
        <ele>158.965</ele>
        <time>2019-06-21T11:35:28Z</time>
      </trkpt>
      <trkpt lat="43.250810" lon="-8.738553">
        <ele>161.229</ele>
        <time>2019-06-21T11:35:29Z</time>
      </trkpt>
      <trkpt lat="43.250912" lon="-8.738909">
        <ele>165.551</ele>
        <time>2019-06-21T11:35:30Z</time>
      </trkpt>
      <trkpt lat="43.250995" lon="-8.739281">
        <ele>167.521</ele>
        <time>2019-06-21T11:35:31Z</time>
      </trkpt>
      <trkpt lat="43.251078" lon="-8.739653">
        <ele>166.241</ele>
        <time>2019-06-21T11:35:32Z</time>
      </trkpt>
      <trkpt lat="43.251156" lon="-8.740024">
        <ele>162.205</ele>
        <time>2019-06-21T11:35:33Z</time>
      </trkpt>
      <trkpt lat="43.251236" lon="-8.740394">
        <ele>160.508</ele>
        <time>2019-06-21T11:35:34Z</time>
      </trkpt>
      <trkpt lat="43.251304" lon="-8.740748">
        <ele>158.625</ele>
        <time>2019-06-21T11:35:35Z</time>
      </trkpt>
      <trkpt lat="43.251398" lon="-8.741090">
        <ele>156.129</ele>
        <time>2019-06-21T11:35:36Z</time>
      </trkpt>
      <trkpt lat="43.251465" lon="-8.741424">
        <ele>154.991</ele>
        <time>2019-06-21T11:35:37Z</time>
      </trkpt>
      <trkpt lat="43.251542" lon="-8.741752">
        <ele>153.933</ele>
        <time>2019-06-21T11:35:38Z</time>
      </trkpt>
      <trkpt lat="43.251614" lon="-8.742073">
        <ele>153.320</ele>
        <time>2019-06-21T11:35:39Z</time>
      </trkpt>
      <trkpt lat="43.251683" lon="-8.742402">
        <ele>152.446</ele>
        <time>2019-06-21T11:35:40Z</time>
      </trkpt>
      <trkpt lat="43.251749" lon="-8.742742">
        <ele>152.330</ele>
        <time>2019-06-21T11:35:41Z</time>
      </trkpt>
      <trkpt lat="43.251818" lon="-8.743076">
        <ele>153.622</ele>
        <time>2019-06-21T11:35:42Z</time>
      </trkpt>
      <trkpt lat="43.251887" lon="-8.743404">
        <ele>155.039</ele>
        <time>2019-06-21T11:35:43Z</time>
      </trkpt>
      <trkpt lat="43.251956" lon="-8.743726">
        <ele>156.401</ele>
        <time>2019-06-21T11:35:44Z</time>
      </trkpt>
      <trkpt lat="43.252036" lon="-8.744053">
        <ele>156.421</ele>
        <time>2019-06-21T11:35:45Z</time>
      </trkpt>
      <trkpt lat="43.252100" lon="-8.744374">
        <ele>155.708</ele>
        <time>2019-06-21T11:35:46Z</time>
      </trkpt>
      <trkpt lat="43.252173" lon="-8.744690">
        <ele>155.146</ele>
        <time>2019-06-21T11:35:47Z</time>
      </trkpt>
      <trkpt lat="43.252240" lon="-8.745004">
        <ele>155.130</ele>
        <time>2019-06-21T11:35:48Z</time>
      </trkpt>
      <trkpt lat="43.252316" lon="-8.745318">
        <ele>155.592</ele>
        <time>2019-06-21T11:35:49Z</time>
      </trkpt>
      <trkpt lat="43.252389" lon="-8.745632">
        <ele>155.044</ele>
        <time>2019-06-21T11:35:50Z</time>
      </trkpt>
      <trkpt lat="43.252454" lon="-8.745941">
        <ele>154.551</ele>
        <time>2019-06-21T11:35:51Z</time>
      </trkpt>
      <trkpt lat="43.252544" lon="-8.746247">
        <ele>153.657</ele>
        <time>2019-06-21T11:35:52Z</time>
      </trkpt>
      <trkpt lat="43.252639" lon="-8.746548">
        <ele>152.971</ele>
        <time>2019-06-21T11:35:53Z</time>
      </trkpt>
      <trkpt lat="43.252750" lon="-8.746837">
        <ele>152.323</ele>
        <time>2019-06-21T11:35:54Z</time>
      </trkpt>
      <trkpt lat="43.252868" lon="-8.747111">
        <ele>152.761</ele>
        <time>2019-06-21T11:35:55Z</time>
      </trkpt>
      <trkpt lat="43.252998" lon="-8.747361">
        <ele>154.121</ele>
        <time>2019-06-21T11:35:56Z</time>
      </trkpt>
      <trkpt lat="43.253139" lon="-8.747614">
        <ele>155.713</ele>
        <time>2019-06-21T11:35:57Z</time>
      </trkpt>
      <trkpt lat="43.253298" lon="-8.747853">
        <ele>157.108</ele>
        <time>2019-06-21T11:35:58Z</time>
      </trkpt>
      <trkpt lat="43.253454" lon="-8.748073">
        <ele>158.159</ele>
        <time>2019-06-21T11:35:59Z</time>
      </trkpt>
      <trkpt lat="43.253618" lon="-8.748299">
        <ele>159.813</ele>
        <time>2019-06-21T11:36:00Z</time>
      </trkpt>
      <trkpt lat="43.253767" lon="-8.748528">
        <ele>160.785</ele>
        <time>2019-06-21T11:36:01Z</time>
      </trkpt>
      <trkpt lat="43.253926" lon="-8.748747">
        <ele>161.577</ele>
        <time>2019-06-21T11:36:02Z</time>
      </trkpt>
      <trkpt lat="43.254080" lon="-8.748977">
        <ele>162.564</ele>
        <time>2019-06-21T11:36:03Z</time>
      </trkpt>
      <trkpt lat="43.254235" lon="-8.749194">
        <ele>164.180</ele>
        <time>2019-06-21T11:36:04Z</time>
      </trkpt>
      <trkpt lat="43.254387" lon="-8.749417">
        <ele>164.294</ele>
        <time>2019-06-21T11:36:05Z</time>
      </trkpt>
      <trkpt lat="43.254545" lon="-8.749635">
        <ele>166.136</ele>
        <time>2019-06-21T11:36:06Z</time>
      </trkpt>
      <trkpt lat="43.254700" lon="-8.749853">
        <ele>168.413</ele>
        <time>2019-06-21T11:36:07Z</time>
      </trkpt>
      <trkpt lat="43.254852" lon="-8.750071">
        <ele>169.743</ele>
        <time>2019-06-21T11:36:08Z</time>
      </trkpt>
      <trkpt lat="43.254981" lon="-8.750288">
        <ele>170.107</ele>
        <time>2019-06-21T11:36:09Z</time>
      </trkpt>
      <trkpt lat="43.255111" lon="-8.750513">
        <ele>170.008</ele>
        <time>2019-06-21T11:36:10Z</time>
      </trkpt>
      <trkpt lat="43.255241" lon="-8.750752">
        <ele>171.324</ele>
        <time>2019-06-21T11:36:11Z</time>
      </trkpt>
      <trkpt lat="43.255360" lon="-8.750993">
        <ele>171.548</ele>
        <time>2019-06-21T11:36:12Z</time>
      </trkpt>
      <trkpt lat="43.255473" lon="-8.751244">
        <ele>170.610</ele>
        <time>2019-06-21T11:36:13Z</time>
      </trkpt>
      <trkpt lat="43.255592" lon="-8.751506">
        <ele>169.252</ele>
        <time>2019-06-21T11:36:14Z</time>
      </trkpt>
      <trkpt lat="43.255710" lon="-8.751765">
        <ele>167.849</ele>
        <time>2019-06-21T11:36:15Z</time>
      </trkpt>
      <trkpt lat="43.255823" lon="-8.752025">
        <ele>166.495</ele>
        <time>2019-06-21T11:36:16Z</time>
      </trkpt>
      <trkpt lat="43.255936" lon="-8.752283">
        <ele>166.469</ele>
        <time>2019-06-21T11:36:17Z</time>
      </trkpt>
      <trkpt lat="43.256052" lon="-8.752537">
        <ele>165.921</ele>
        <time>2019-06-21T11:36:18Z</time>
      </trkpt>
      <trkpt lat="43.256152" lon="-8.752802">
        <ele>166.479</ele>
        <time>2019-06-21T11:36:19Z</time>
      </trkpt>
      <trkpt lat="43.256273" lon="-8.753073">
        <ele>165.105</ele>
        <time>2019-06-21T11:36:20Z</time>
      </trkpt>
      <trkpt lat="43.256387" lon="-8.753345">
        <ele>166.225</ele>
        <time>2019-06-21T11:36:21Z</time>
      </trkpt>
      <trkpt lat="43.256499" lon="-8.753617">
        <ele>169.508</ele>
        <time>2019-06-21T11:36:22Z</time>
      </trkpt>
      <trkpt lat="43.256612" lon="-8.753882">
        <ele>170.930</ele>
        <time>2019-06-21T11:36:23Z</time>
      </trkpt>
      <trkpt lat="43.256729" lon="-8.754147">
        <ele>171.414</ele>
        <time>2019-06-21T11:36:24Z</time>
      </trkpt>
      <trkpt lat="43.256853" lon="-8.754408">
        <ele>173.636</ele>
        <time>2019-06-21T11:36:25Z</time>
      </trkpt>
      <trkpt lat="43.256983" lon="-8.754669">
        <ele>175.288</ele>
        <time>2019-06-21T11:36:26Z</time>
      </trkpt>
      <trkpt lat="43.257116" lon="-8.754918">
        <ele>175.085</ele>
        <time>2019-06-21T11:36:27Z</time>
      </trkpt>
      <trkpt lat="43.257267" lon="-8.755164">
        <ele>173.411</ele>
        <time>2019-06-21T11:36:28Z</time>
      </trkpt>
      <trkpt lat="43.257427" lon="-8.755394">
        <ele>171.545</ele>
        <time>2019-06-21T11:36:29Z</time>
      </trkpt>
      <trkpt lat="43.257577" lon="-8.755619">
        <ele>169.217</ele>
        <time>2019-06-21T11:36:30Z</time>
      </trkpt>
      <trkpt lat="43.257735" lon="-8.755839">
        <ele>167.872</ele>
        <time>2019-06-21T11:36:31Z</time>
      </trkpt>
      <trkpt lat="43.257907" lon="-8.756057">
        <ele>168.013</ele>
        <time>2019-06-21T11:36:32Z</time>
      </trkpt>
      <trkpt lat="43.258096" lon="-8.756243">
        <ele>169.814</ele>
        <time>2019-06-21T11:36:33Z</time>
      </trkpt>
      <trkpt lat="43.258278" lon="-8.756433">
        <ele>171.708</ele>
        <time>2019-06-21T11:36:34Z</time>
      </trkpt>
      <trkpt lat="43.258458" lon="-8.756622">
        <ele>171.070</ele>
        <time>2019-06-21T11:36:35Z</time>
      </trkpt>
      <trkpt lat="43.258648" lon="-8.756809">
        <ele>167.164</ele>
        <time>2019-06-21T11:36:36Z</time>
      </trkpt>
      <trkpt lat="43.258837" lon="-8.756994">
        <ele>162.646</ele>
        <time>2019-06-21T11:36:37Z</time>
      </trkpt>
      <trkpt lat="43.259025" lon="-8.757193">
        <ele>160.438</ele>
        <time>2019-06-21T11:36:38Z</time>
      </trkpt>
      <trkpt lat="43.259209" lon="-8.757384">
        <ele>161.735</ele>
        <time>2019-06-21T11:36:39Z</time>
      </trkpt>
      <trkpt lat="43.259410" lon="-8.757586">
        <ele>162.531</ele>
        <time>2019-06-21T11:36:40Z</time>
      </trkpt>
      <trkpt lat="43.259605" lon="-8.757780">
        <ele>159.645</ele>
        <time>2019-06-21T11:36:41Z</time>
      </trkpt>
      <trkpt lat="43.259791" lon="-8.757969">
        <ele>157.677</ele>
        <time>2019-06-21T11:36:42Z</time>
      </trkpt>
      <trkpt lat="43.259987" lon="-8.758143">
        <ele>157.978</ele>
        <time>2019-06-21T11:36:43Z</time>
      </trkpt>
      <trkpt lat="43.260170" lon="-8.758322">
        <ele>159.133</ele>
        <time>2019-06-21T11:36:44Z</time>
      </trkpt>
      <trkpt lat="43.260355" lon="-8.758505">
        <ele>159.126</ele>
        <time>2019-06-21T11:36:45Z</time>
      </trkpt>
      <trkpt lat="43.260527" lon="-8.758680">
        <ele>158.508</ele>
        <time>2019-06-21T11:36:46Z</time>
      </trkpt>
      <trkpt lat="43.260692" lon="-8.758853">
        <ele>159.410</ele>
        <time>2019-06-21T11:36:47Z</time>
      </trkpt>
      <trkpt lat="43.260866" lon="-8.759031">
        <ele>159.674</ele>
        <time>2019-06-21T11:36:48Z</time>
      </trkpt>
      <trkpt lat="43.261024" lon="-8.759200">
        <ele>156.866</ele>
        <time>2019-06-21T11:36:49Z</time>
      </trkpt>
      <trkpt lat="43.261209" lon="-8.759371">
        <ele>153.448</ele>
        <time>2019-06-21T11:36:50Z</time>
      </trkpt>
      <trkpt lat="43.261373" lon="-8.759549">
        <ele>150.575</ele>
        <time>2019-06-21T11:36:51Z</time>
      </trkpt>
      <trkpt lat="43.261523" lon="-8.759729">
        <ele>149.911</ele>
        <time>2019-06-21T11:36:52Z</time>
      </trkpt>
      <trkpt lat="43.261681" lon="-8.759904">
        <ele>149.985</ele>
        <time>2019-06-21T11:36:53Z</time>
      </trkpt>
      <trkpt lat="43.261826" lon="-8.760089">
        <ele>153.217</ele>
        <time>2019-06-21T11:36:54Z</time>
      </trkpt>
      <trkpt lat="43.261959" lon="-8.760285">
        <ele>156.689</ele>
        <time>2019-06-21T11:36:55Z</time>
      </trkpt>
      <trkpt lat="43.262077" lon="-8.760495">
        <ele>155.706</ele>
        <time>2019-06-21T11:36:56Z</time>
      </trkpt>
      <trkpt lat="43.262196" lon="-8.760702">
        <ele>153.326</ele>
        <time>2019-06-21T11:36:57Z</time>
      </trkpt>
      <trkpt lat="43.262312" lon="-8.760912">
        <ele>150.808</ele>
        <time>2019-06-21T11:36:58Z</time>
      </trkpt>
      <trkpt lat="43.262349" lon="-8.761153">
        <ele>151.111</ele>
        <time>2019-06-21T11:36:59Z</time>
      </trkpt>
      <trkpt lat="43.262396" lon="-8.761378">
        <ele>150.355</ele>
        <time>2019-06-21T11:37:00Z</time>
      </trkpt>
      <trkpt lat="43.262436" lon="-8.761615">
        <ele>149.767</ele>
        <time>2019-06-21T11:37:01Z</time>
      </trkpt>
      <trkpt lat="43.262481" lon="-8.761842">
        <ele>148.059</ele>
        <time>2019-06-21T11:37:02Z</time>
      </trkpt>
      <trkpt lat="43.262533" lon="-8.762064">
        <ele>146.376</ele>
        <time>2019-06-21T11:37:03Z</time>
      </trkpt>
      <trkpt lat="43.262595" lon="-8.762273">
        <ele>145.312</ele>
        <time>2019-06-21T11:37:04Z</time>
      </trkpt>
      <trkpt lat="43.262645" lon="-8.762467">
        <ele>144.946</ele>
        <time>2019-06-21T11:37:05Z</time>
      </trkpt>
      <trkpt lat="43.262692" lon="-8.762664">
        <ele>144.638</ele>
        <time>2019-06-21T11:37:06Z</time>
      </trkpt>
      <trkpt lat="43.262732" lon="-8.762865">
        <ele>144.144</ele>
        <time>2019-06-21T11:37:07Z</time>
      </trkpt>
      <trkpt lat="43.262778" lon="-8.763076">
        <ele>142.905</ele>
        <time>2019-06-21T11:37:08Z</time>
      </trkpt>
      <trkpt lat="43.262839" lon="-8.763303">
        <ele>141.515</ele>
        <time>2019-06-21T11:37:09Z</time>
      </trkpt>
      <trkpt lat="43.262903" lon="-8.763534">
        <ele>139.608</ele>
        <time>2019-06-21T11:37:10Z</time>
      </trkpt>
      <trkpt lat="43.262984" lon="-8.763773">
        <ele>136.947</ele>
        <time>2019-06-21T11:37:11Z</time>
      </trkpt>
      <trkpt lat="43.263077" lon="-8.764009">
        <ele>134.411</ele>
        <time>2019-06-21T11:37:12Z</time>
      </trkpt>
      <trkpt lat="43.263193" lon="-8.764231">
        <ele>133.683</ele>
        <time>2019-06-21T11:37:13Z</time>
      </trkpt>
      <trkpt lat="43.263306" lon="-8.764453">
        <ele>133.385</ele>
        <time>2019-06-21T11:37:14Z</time>
      </trkpt>
      <trkpt lat="43.263435" lon="-8.764636">
        <ele>133.862</ele>
        <time>2019-06-21T11:37:15Z</time>
      </trkpt>
      <trkpt lat="43.263587" lon="-8.764840">
        <ele>133.618</ele>
        <time>2019-06-21T11:37:16Z</time>
      </trkpt>
      <trkpt lat="43.263730" lon="-8.765024">
        <ele>133.172</ele>
        <time>2019-06-21T11:37:17Z</time>
      </trkpt>
      <trkpt lat="43.263901" lon="-8.765194">
        <ele>132.094</ele>
        <time>2019-06-21T11:37:18Z</time>
      </trkpt>
      <trkpt lat="43.264084" lon="-8.765332">
        <ele>131.577</ele>
        <time>2019-06-21T11:37:19Z</time>
      </trkpt>
      <trkpt lat="43.264273" lon="-8.765464">
        <ele>131.061</ele>
        <time>2019-06-21T11:37:20Z</time>
      </trkpt>
      <trkpt lat="43.264474" lon="-8.765586">
        <ele>130.027</ele>
        <time>2019-06-21T11:37:21Z</time>
      </trkpt>
      <trkpt lat="43.264683" lon="-8.765696">
        <ele>129.608</ele>
        <time>2019-06-21T11:37:22Z</time>
      </trkpt>
      <trkpt lat="43.264895" lon="-8.765803">
        <ele>129.970</ele>
        <time>2019-06-21T11:37:23Z</time>
      </trkpt>
      <trkpt lat="43.265106" lon="-8.765894">
        <ele>129.834</ele>
        <time>2019-06-21T11:37:24Z</time>
      </trkpt>
      <trkpt lat="43.265314" lon="-8.765987">
        <ele>129.786</ele>
        <time>2019-06-21T11:37:25Z</time>
      </trkpt>
      <trkpt lat="43.265530" lon="-8.766072">
        <ele>130.858</ele>
        <time>2019-06-21T11:37:26Z</time>
      </trkpt>
      <trkpt lat="43.265742" lon="-8.766171">
        <ele>129.815</ele>
        <time>2019-06-21T11:37:27Z</time>
      </trkpt>
      <trkpt lat="43.265954" lon="-8.766264">
        <ele>128.461</ele>
        <time>2019-06-21T11:37:28Z</time>
      </trkpt>
      <trkpt lat="43.266160" lon="-8.766350">
        <ele>127.065</ele>
        <time>2019-06-21T11:37:29Z</time>
      </trkpt>
      <trkpt lat="43.266360" lon="-8.766437">
        <ele>127.267</ele>
        <time>2019-06-21T11:37:30Z</time>
      </trkpt>
      <trkpt lat="43.266571" lon="-8.766515">
        <ele>128.433</ele>
        <time>2019-06-21T11:37:31Z</time>
      </trkpt>
      <trkpt lat="43.266760" lon="-8.766594">
        <ele>129.223</ele>
        <time>2019-06-21T11:37:32Z</time>
      </trkpt>
      <trkpt lat="43.266957" lon="-8.766681">
        <ele>129.015</ele>
        <time>2019-06-21T11:37:33Z</time>
      </trkpt>
      <trkpt lat="43.267150" lon="-8.766756">
        <ele>127.708</ele>
        <time>2019-06-21T11:37:34Z</time>
      </trkpt>
      <trkpt lat="43.267334" lon="-8.766833">
        <ele>126.236</ele>
        <time>2019-06-21T11:37:35Z</time>
      </trkpt>
      <trkpt lat="43.267511" lon="-8.766905">
        <ele>125.030</ele>
        <time>2019-06-21T11:37:36Z</time>
      </trkpt>
      <trkpt lat="43.267681" lon="-8.766967">
        <ele>125.012</ele>
        <time>2019-06-21T11:37:37Z</time>
      </trkpt>
      <trkpt lat="43.267839" lon="-8.767044">
        <ele>125.294</ele>
        <time>2019-06-21T11:37:38Z</time>
      </trkpt>
      <trkpt lat="43.268012" lon="-8.767111">
        <ele>125.841</ele>
        <time>2019-06-21T11:37:39Z</time>
      </trkpt>
      <trkpt lat="43.268181" lon="-8.767183">
        <ele>126.557</ele>
        <time>2019-06-21T11:37:40Z</time>
      </trkpt>
      <trkpt lat="43.268351" lon="-8.767242">
        <ele>126.971</ele>
        <time>2019-06-21T11:37:41Z</time>
      </trkpt>
      <trkpt lat="43.268505" lon="-8.767320">
        <ele>126.983</ele>
        <time>2019-06-21T11:37:42Z</time>
      </trkpt>
      <trkpt lat="43.268670" lon="-8.767392">
        <ele>126.953</ele>
        <time>2019-06-21T11:37:43Z</time>
      </trkpt>
      <trkpt lat="43.268826" lon="-8.767478">
        <ele>126.304</ele>
        <time>2019-06-21T11:37:44Z</time>
      </trkpt>
      <trkpt lat="43.268986" lon="-8.767564">
        <ele>125.114</ele>
        <time>2019-06-21T11:37:45Z</time>
      </trkpt>
      <trkpt lat="43.269142" lon="-8.767650">
        <ele>123.608</ele>
        <time>2019-06-21T11:37:46Z</time>
      </trkpt>
      <trkpt lat="43.269292" lon="-8.767736">
        <ele>123.298</ele>
        <time>2019-06-21T11:37:47Z</time>
      </trkpt>
      <trkpt lat="43.269443" lon="-8.767826">
        <ele>122.892</ele>
        <time>2019-06-21T11:37:48Z</time>
      </trkpt>
      <trkpt lat="43.269599" lon="-8.767918">
        <ele>123.674</ele>
        <time>2019-06-21T11:37:49Z</time>
      </trkpt>
      <trkpt lat="43.269742" lon="-8.768018">
        <ele>124.356</ele>
        <time>2019-06-21T11:37:50Z</time>
      </trkpt>
      <trkpt lat="43.269892" lon="-8.768121">
        <ele>125.733</ele>
        <time>2019-06-21T11:37:51Z</time>
      </trkpt>
      <trkpt lat="43.270038" lon="-8.768229">
        <ele>126.689</ele>
        <time>2019-06-21T11:37:52Z</time>
      </trkpt>
      <trkpt lat="43.270189" lon="-8.768342">
        <ele>127.433</ele>
        <time>2019-06-21T11:37:53Z</time>
      </trkpt>
      <trkpt lat="43.270333" lon="-8.768456">
        <ele>128.325</ele>
        <time>2019-06-21T11:37:54Z</time>
      </trkpt>
      <trkpt lat="43.270476" lon="-8.768575">
        <ele>128.828</ele>
        <time>2019-06-21T11:37:55Z</time>
      </trkpt>
      <trkpt lat="43.270617" lon="-8.768703">
        <ele>128.689</ele>
        <time>2019-06-21T11:37:56Z</time>
      </trkpt>
      <trkpt lat="43.270755" lon="-8.768841">
        <ele>127.617</ele>
        <time>2019-06-21T11:37:57Z</time>
      </trkpt>
      <trkpt lat="43.270888" lon="-8.768982">
        <ele>126.708</ele>
        <time>2019-06-21T11:37:58Z</time>
      </trkpt>
      <trkpt lat="43.271016" lon="-8.769130">
        <ele>126.115</ele>
        <time>2019-06-21T11:37:59Z</time>
      </trkpt>
      <trkpt lat="43.271152" lon="-8.769270">
        <ele>126.189</ele>
        <time>2019-06-21T11:38:00Z</time>
      </trkpt>
      <trkpt lat="43.271277" lon="-8.769443">
        <ele>126.621</ele>
        <time>2019-06-21T11:38:01Z</time>
      </trkpt>
      <trkpt lat="43.271410" lon="-8.769616">
        <ele>127.043</ele>
        <time>2019-06-21T11:38:02Z</time>
      </trkpt>
      <trkpt lat="43.271532" lon="-8.769805">
        <ele>126.710</ele>
        <time>2019-06-21T11:38:03Z</time>
      </trkpt>
      <trkpt lat="43.271650" lon="-8.769999">
        <ele>126.056</ele>
        <time>2019-06-21T11:38:04Z</time>
      </trkpt>
      <trkpt lat="43.271759" lon="-8.770202">
        <ele>125.820</ele>
        <time>2019-06-21T11:38:05Z</time>
      </trkpt>
      <trkpt lat="43.271870" lon="-8.770408">
        <ele>125.172</ele>
        <time>2019-06-21T11:38:06Z</time>
      </trkpt>
      <trkpt lat="43.271979" lon="-8.770618">
        <ele>124.971</ele>
        <time>2019-06-21T11:38:07Z</time>
      </trkpt>
      <trkpt lat="43.272079" lon="-8.770838">
        <ele>124.541</ele>
        <time>2019-06-21T11:38:08Z</time>
      </trkpt>
      <trkpt lat="43.272169" lon="-8.771039">
        <ele>122.915</ele>
        <time>2019-06-21T11:38:09Z</time>
      </trkpt>
      <trkpt lat="43.272267" lon="-8.771259">
        <ele>120.608</ele>
        <time>2019-06-21T11:38:10Z</time>
      </trkpt>
      <trkpt lat="43.272347" lon="-8.771483">
        <ele>118.640</ele>
        <time>2019-06-21T11:38:11Z</time>
      </trkpt>
      <trkpt lat="43.272422" lon="-8.771709">
        <ele>117.414</ele>
        <time>2019-06-21T11:38:12Z</time>
      </trkpt>
      <trkpt lat="43.272502" lon="-8.771945">
        <ele>118.056</ele>
        <time>2019-06-21T11:38:13Z</time>
      </trkpt>
      <trkpt lat="43.272581" lon="-8.772180">
        <ele>118.088</ele>
        <time>2019-06-21T11:38:14Z</time>
      </trkpt>
      <trkpt lat="43.272660" lon="-8.772419">
        <ele>117.735</ele>
        <time>2019-06-21T11:38:15Z</time>
      </trkpt>
      <trkpt lat="43.272735" lon="-8.772666">
        <ele>118.461</ele>
        <time>2019-06-21T11:38:16Z</time>
      </trkpt>
      <trkpt lat="43.272806" lon="-8.772916">
        <ele>119.565</ele>
        <time>2019-06-21T11:38:17Z</time>
      </trkpt>
      <trkpt lat="43.272884" lon="-8.773171">
        <ele>119.687</ele>
        <time>2019-06-21T11:38:18Z</time>
      </trkpt>
      <trkpt lat="43.272949" lon="-8.773435">
        <ele>119.293</ele>
        <time>2019-06-21T11:38:19Z</time>
      </trkpt>
      <trkpt lat="43.273014" lon="-8.773716">
        <ele>118.665</ele>
        <time>2019-06-21T11:38:20Z</time>
      </trkpt>
      <trkpt lat="43.273073" lon="-8.774012">
        <ele>117.521</ele>
        <time>2019-06-21T11:38:21Z</time>
      </trkpt>
      <trkpt lat="43.273138" lon="-8.774312">
        <ele>116.608</ele>
        <time>2019-06-21T11:38:22Z</time>
      </trkpt>
      <trkpt lat="43.273206" lon="-8.774623">
        <ele>117.512</ele>
        <time>2019-06-21T11:38:23Z</time>
      </trkpt>
      <trkpt lat="43.273280" lon="-8.774929">
        <ele>119.286</ele>
        <time>2019-06-21T11:38:24Z</time>
      </trkpt>
      <trkpt lat="43.273356" lon="-8.775239">
        <ele>120.248</ele>
        <time>2019-06-21T11:38:25Z</time>
      </trkpt>
      <trkpt lat="43.273442" lon="-8.775549">
        <ele>119.870</ele>
        <time>2019-06-21T11:38:26Z</time>
      </trkpt>
      <trkpt lat="43.273527" lon="-8.775866">
        <ele>118.937</ele>
        <time>2019-06-21T11:38:27Z</time>
      </trkpt>
      <trkpt lat="43.273592" lon="-8.776174">
        <ele>117.613</ele>
        <time>2019-06-21T11:38:28Z</time>
      </trkpt>
      <trkpt lat="43.273666" lon="-8.776481">
        <ele>115.357</ele>
        <time>2019-06-21T11:38:29Z</time>
      </trkpt>
      <trkpt lat="43.273739" lon="-8.776780">
        <ele>113.439</ele>
        <time>2019-06-21T11:38:30Z</time>
      </trkpt>
      <trkpt lat="43.273806" lon="-8.777059">
        <ele>112.794</ele>
        <time>2019-06-21T11:38:31Z</time>
      </trkpt>
      <trkpt lat="43.273871" lon="-8.777331">
        <ele>113.357</ele>
        <time>2019-06-21T11:38:32Z</time>
      </trkpt>
      <trkpt lat="43.273937" lon="-8.777606">
        <ele>114.722</ele>
        <time>2019-06-21T11:38:33Z</time>
      </trkpt>
      <trkpt lat="43.274000" lon="-8.777874">
        <ele>116.308</ele>
        <time>2019-06-21T11:38:34Z</time>
      </trkpt>
      <trkpt lat="43.274063" lon="-8.778152">
        <ele>117.412</ele>
        <time>2019-06-21T11:38:35Z</time>
      </trkpt>
      <trkpt lat="43.274127" lon="-8.778427">
        <ele>116.516</ele>
        <time>2019-06-21T11:38:36Z</time>
      </trkpt>
      <trkpt lat="43.274196" lon="-8.778707">
        <ele>115.248</ele>
        <time>2019-06-21T11:38:37Z</time>
      </trkpt>
      <trkpt lat="43.274259" lon="-8.778979">
        <ele>113.170</ele>
        <time>2019-06-21T11:38:38Z</time>
      </trkpt>
      <trkpt lat="43.274324" lon="-8.779246">
        <ele>111.977</ele>
        <time>2019-06-21T11:38:39Z</time>
      </trkpt>
      <trkpt lat="43.274391" lon="-8.779498">
        <ele>111.663</ele>
        <time>2019-06-21T11:38:40Z</time>
      </trkpt>
      <trkpt lat="43.274459" lon="-8.779745">
        <ele>111.087</ele>
        <time>2019-06-21T11:38:41Z</time>
      </trkpt>
      <trkpt lat="43.274529" lon="-8.779987">
        <ele>110.629</ele>
        <time>2019-06-21T11:38:42Z</time>
      </trkpt>
      <trkpt lat="43.274594" lon="-8.780210">
        <ele>111.146</ele>
        <time>2019-06-21T11:38:43Z</time>
      </trkpt>
      <trkpt lat="43.274665" lon="-8.780422">
        <ele>111.688</ele>
        <time>2019-06-21T11:38:44Z</time>
      </trkpt>
      <trkpt lat="43.274749" lon="-8.780625">
        <ele>112.116</ele>
        <time>2019-06-21T11:38:45Z</time>
      </trkpt>
      <trkpt lat="43.274822" lon="-8.780822">
        <ele>112.008</ele>
        <time>2019-06-21T11:38:46Z</time>
      </trkpt>
      <trkpt lat="43.274908" lon="-8.781003">
        <ele>111.487</ele>
        <time>2019-06-21T11:38:47Z</time>
      </trkpt>
      <trkpt lat="43.274991" lon="-8.781172">
        <ele>111.081</ele>
        <time>2019-06-21T11:38:48Z</time>
      </trkpt>
      <trkpt lat="43.275059" lon="-8.781318">
        <ele>110.993</ele>
        <time>2019-06-21T11:38:49Z</time>
      </trkpt>
      <trkpt lat="43.275146" lon="-8.781442">
        <ele>111.045</ele>
        <time>2019-06-21T11:38:50Z</time>
      </trkpt>
      <trkpt lat="43.275227" lon="-8.781543">
        <ele>111.012</ele>
        <time>2019-06-21T11:38:51Z</time>
      </trkpt>
      <trkpt lat="43.275307" lon="-8.781624">
        <ele>111.058</ele>
        <time>2019-06-21T11:38:52Z</time>
      </trkpt>
      <trkpt lat="43.275395" lon="-8.781684">
        <ele>111.092</ele>
        <time>2019-06-21T11:38:53Z</time>
      </trkpt>
      <trkpt lat="43.275486" lon="-8.781741">
        <ele>110.834</ele>
        <time>2019-06-21T11:38:54Z</time>
      </trkpt>
      <trkpt lat="43.275556" lon="-8.781802">
        <ele>110.553</ele>
        <time>2019-06-21T11:38:55Z</time>
      </trkpt>
      <trkpt lat="43.275599" lon="-8.781886">
        <ele>110.104</ele>
        <time>2019-06-21T11:38:56Z</time>
      </trkpt>
      <trkpt lat="43.275622" lon="-8.781988">
        <ele>109.614</ele>
        <time>2019-06-21T11:38:57Z</time>
      </trkpt>
      <trkpt lat="43.275652" lon="-8.782122">
        <ele>109.208</ele>
        <time>2019-06-21T11:38:58Z</time>
      </trkpt>
      <trkpt lat="43.275686" lon="-8.782262">
        <ele>108.938</ele>
        <time>2019-06-21T11:38:59Z</time>
      </trkpt>
      <trkpt lat="43.275739" lon="-8.782399">
        <ele>108.482</ele>
        <time>2019-06-21T11:39:00Z</time>
      </trkpt>
      <trkpt lat="43.275845" lon="-8.782540">
        <ele>108.044</ele>
        <time>2019-06-21T11:39:01Z</time>
      </trkpt>
      <trkpt lat="43.275953" lon="-8.782674">
        <ele>108.086</ele>
        <time>2019-06-21T11:39:02Z</time>
      </trkpt>
      <trkpt lat="43.276078" lon="-8.782796">
        <ele>108.193</ele>
        <time>2019-06-21T11:39:03Z</time>
      </trkpt>
      <trkpt lat="43.276222" lon="-8.782898">
        <ele>108.449</ele>
        <time>2019-06-21T11:39:04Z</time>
      </trkpt>
      <trkpt lat="43.276365" lon="-8.783017">
        <ele>108.943</ele>
        <time>2019-06-21T11:39:05Z</time>
      </trkpt>
      <trkpt lat="43.276516" lon="-8.783134">
        <ele>109.365</ele>
        <time>2019-06-21T11:39:06Z</time>
      </trkpt>
      <trkpt lat="43.276680" lon="-8.783253">
        <ele>109.731</ele>
        <time>2019-06-21T11:39:07Z</time>
      </trkpt>
      <trkpt lat="43.276849" lon="-8.783372">
        <ele>110.361</ele>
        <time>2019-06-21T11:39:08Z</time>
      </trkpt>
      <trkpt lat="43.277014" lon="-8.783477">
        <ele>110.707</ele>
        <time>2019-06-21T11:39:09Z</time>
      </trkpt>
      <trkpt lat="43.277188" lon="-8.783581">
        <ele>110.108</ele>
        <time>2019-06-21T11:39:10Z</time>
      </trkpt>
      <trkpt lat="43.277377" lon="-8.783688">
        <ele>110.316</ele>
        <time>2019-06-21T11:39:11Z</time>
      </trkpt>
      <trkpt lat="43.277573" lon="-8.783797">
        <ele>110.580</ele>
        <time>2019-06-21T11:39:12Z</time>
      </trkpt>
      <trkpt lat="43.277773" lon="-8.783913">
        <ele>109.982</ele>
        <time>2019-06-21T11:39:13Z</time>
      </trkpt>
      <trkpt lat="43.277963" lon="-8.784025">
        <ele>108.254</ele>
        <time>2019-06-21T11:39:14Z</time>
      </trkpt>
      <trkpt lat="43.278167" lon="-8.784143">
        <ele>107.161</ele>
        <time>2019-06-21T11:39:15Z</time>
      </trkpt>
      <trkpt lat="43.278381" lon="-8.784257">
        <ele>107.847</ele>
        <time>2019-06-21T11:39:16Z</time>
      </trkpt>
      <trkpt lat="43.278571" lon="-8.784365">
        <ele>110.381</ele>
        <time>2019-06-21T11:39:17Z</time>
      </trkpt>
      <trkpt lat="43.278765" lon="-8.784469">
        <ele>113.463</ele>
        <time>2019-06-21T11:39:18Z</time>
      </trkpt>
      <trkpt lat="43.278974" lon="-8.784589">
        <ele>116.498</ele>
        <time>2019-06-21T11:39:19Z</time>
      </trkpt>
      <trkpt lat="43.279182" lon="-8.784701">
        <ele>119.115</ele>
        <time>2019-06-21T11:39:20Z</time>
      </trkpt>
      <trkpt lat="43.279376" lon="-8.784811">
        <ele>121.526</ele>
        <time>2019-06-21T11:39:21Z</time>
      </trkpt>
      <trkpt lat="43.279575" lon="-8.784923">
        <ele>123.308</ele>
        <time>2019-06-21T11:39:22Z</time>
      </trkpt>
      <trkpt lat="43.279770" lon="-8.785043">
        <ele>124.872</ele>
        <time>2019-06-21T11:39:23Z</time>
      </trkpt>
      <trkpt lat="43.279935" lon="-8.785170">
        <ele>124.976</ele>
        <time>2019-06-21T11:39:24Z</time>
      </trkpt>
      <trkpt lat="43.280090" lon="-8.785321">
        <ele>123.918</ele>
        <time>2019-06-21T11:39:25Z</time>
      </trkpt>
      <trkpt lat="43.280265" lon="-8.785482">
        <ele>122.850</ele>
        <time>2019-06-21T11:39:26Z</time>
      </trkpt>
      <trkpt lat="43.280418" lon="-8.785660">
        <ele>122.477</ele>
        <time>2019-06-21T11:39:27Z</time>
      </trkpt>
      <trkpt lat="43.280574" lon="-8.785847">
        <ele>123.053</ele>
        <time>2019-06-21T11:39:28Z</time>
      </trkpt>
      <trkpt lat="43.280720" lon="-8.786024">
        <ele>122.727</ele>
        <time>2019-06-21T11:39:29Z</time>
      </trkpt>
      <trkpt lat="43.280864" lon="-8.786196">
        <ele>121.839</ele>
        <time>2019-06-21T11:39:30Z</time>
      </trkpt>
      <trkpt lat="43.281006" lon="-8.786383">
        <ele>120.838</ele>
        <time>2019-06-21T11:39:31Z</time>
      </trkpt>
      <trkpt lat="43.281148" lon="-8.786556">
        <ele>120.070</ele>
        <time>2019-06-21T11:39:32Z</time>
      </trkpt>
      <trkpt lat="43.281279" lon="-8.786729">
        <ele>120.017</ele>
        <time>2019-06-21T11:39:33Z</time>
      </trkpt>
      <trkpt lat="43.281410" lon="-8.786908">
        <ele>119.108</ele>
        <time>2019-06-21T11:39:34Z</time>
      </trkpt>
      <trkpt lat="43.281543" lon="-8.787089">
        <ele>118.786</ele>
        <time>2019-06-21T11:39:35Z</time>
      </trkpt>
      <trkpt lat="43.281670" lon="-8.787252">
        <ele>118.030</ele>
        <time>2019-06-21T11:39:36Z</time>
      </trkpt>
      <trkpt lat="43.281789" lon="-8.787420">
        <ele>118.022</ele>
        <time>2019-06-21T11:39:37Z</time>
      </trkpt>
      <trkpt lat="43.281904" lon="-8.787581">
        <ele>118.384</ele>
        <time>2019-06-21T11:39:38Z</time>
      </trkpt>
      <trkpt lat="43.282023" lon="-8.787735">
        <ele>118.651</ele>
        <time>2019-06-21T11:39:39Z</time>
      </trkpt>
      <trkpt lat="43.282128" lon="-8.787876">
        <ele>118.237</ele>
        <time>2019-06-21T11:39:40Z</time>
      </trkpt>
      <trkpt lat="43.282224" lon="-8.788022">
        <ele>117.191</ele>
        <time>2019-06-21T11:39:41Z</time>
      </trkpt>
      <trkpt lat="43.282326" lon="-8.788176">
        <ele>116.563</ele>
        <time>2019-06-21T11:39:42Z</time>
      </trkpt>
      <trkpt lat="43.282430" lon="-8.788339">
        <ele>115.522</ele>
        <time>2019-06-21T11:39:43Z</time>
      </trkpt>
      <trkpt lat="43.282550" lon="-8.788511">
        <ele>115.262</ele>
        <time>2019-06-21T11:39:44Z</time>
      </trkpt>
      <trkpt lat="43.282675" lon="-8.788681">
        <ele>115.408</ele>
        <time>2019-06-21T11:39:45Z</time>
      </trkpt>
      <trkpt lat="43.282804" lon="-8.788851">
        <ele>114.408</ele>
        <time>2019-06-21T11:39:46Z</time>
      </trkpt>
      <trkpt lat="43.282935" lon="-8.789031">
        <ele>114.335</ele>
        <time>2019-06-21T11:39:47Z</time>
      </trkpt>
      <trkpt lat="43.283066" lon="-8.789222">
        <ele>113.969</ele>
        <time>2019-06-21T11:39:48Z</time>
      </trkpt>
      <trkpt lat="43.283209" lon="-8.789422">
        <ele>114.251</ele>
        <time>2019-06-21T11:39:49Z</time>
      </trkpt>
      <trkpt lat="43.283345" lon="-8.789622">
        <ele>114.323</ele>
        <time>2019-06-21T11:39:50Z</time>
      </trkpt>
      <trkpt lat="43.283477" lon="-8.789843">
        <ele>112.380</ele>
        <time>2019-06-21T11:39:51Z</time>
      </trkpt>
      <trkpt lat="43.283612" lon="-8.790056">
        <ele>109.626</ele>
        <time>2019-06-21T11:39:52Z</time>
      </trkpt>
      <trkpt lat="43.283753" lon="-8.790268">
        <ele>107.510</ele>
        <time>2019-06-21T11:39:53Z</time>
      </trkpt>
      <trkpt lat="43.283873" lon="-8.790493">
        <ele>107.842</ele>
        <time>2019-06-21T11:39:54Z</time>
      </trkpt>
      <trkpt lat="43.283996" lon="-8.790737">
        <ele>107.456</ele>
        <time>2019-06-21T11:39:55Z</time>
      </trkpt>
      <trkpt lat="43.284116" lon="-8.790972">
        <ele>105.859</ele>
        <time>2019-06-21T11:39:56Z</time>
      </trkpt>
      <trkpt lat="43.284239" lon="-8.791212">
        <ele>104.414</ele>
        <time>2019-06-21T11:39:57Z</time>
      </trkpt>
      <trkpt lat="43.284359" lon="-8.791447">
        <ele>103.108</ele>
        <time>2019-06-21T11:39:58Z</time>
      </trkpt>
      <trkpt lat="43.284489" lon="-8.791675">
        <ele>101.828</ele>
        <time>2019-06-21T11:39:59Z</time>
      </trkpt>
      <trkpt lat="43.284610" lon="-8.791903">
        <ele>101.942</ele>
        <time>2019-06-21T11:40:00Z</time>
      </trkpt>
      <trkpt lat="43.284725" lon="-8.792126">
        <ele>102.044</ele>
        <time>2019-06-21T11:40:01Z</time>
      </trkpt>
      <trkpt lat="43.284843" lon="-8.792353">
        <ele>102.796</ele>
        <time>2019-06-21T11:40:02Z</time>
      </trkpt>
      <trkpt lat="43.284960" lon="-8.792573">
        <ele>103.033</ele>
        <time>2019-06-21T11:40:03Z</time>
      </trkpt>
      <trkpt lat="43.285076" lon="-8.792785">
        <ele>103.079</ele>
        <time>2019-06-21T11:40:04Z</time>
      </trkpt>
      <trkpt lat="43.285198" lon="-8.793005">
        <ele>103.273</ele>
        <time>2019-06-21T11:40:05Z</time>
      </trkpt>
      <trkpt lat="43.285320" lon="-8.793218">
        <ele>103.635</ele>
        <time>2019-06-21T11:40:06Z</time>
      </trkpt>
      <trkpt lat="43.285440" lon="-8.793437">
        <ele>103.686</ele>
        <time>2019-06-21T11:40:07Z</time>
      </trkpt>
      <trkpt lat="43.285570" lon="-8.793669">
        <ele>103.060</ele>
        <time>2019-06-21T11:40:08Z</time>
      </trkpt>
      <trkpt lat="43.285690" lon="-8.793882">
        <ele>103.026</ele>
        <time>2019-06-21T11:40:09Z</time>
      </trkpt>
      <trkpt lat="43.285801" lon="-8.794104">
        <ele>103.008</ele>
        <time>2019-06-21T11:40:10Z</time>
      </trkpt>
      <trkpt lat="43.285908" lon="-8.794314">
        <ele>103.491</ele>
        <time>2019-06-21T11:40:11Z</time>
      </trkpt>
      <trkpt lat="43.286016" lon="-8.794514">
        <ele>103.725</ele>
        <time>2019-06-21T11:40:12Z</time>
      </trkpt>
      <trkpt lat="43.286108" lon="-8.794704">
        <ele>104.077</ele>
        <time>2019-06-21T11:40:13Z</time>
      </trkpt>
      <trkpt lat="43.286200" lon="-8.794897">
        <ele>104.059</ele>
        <time>2019-06-21T11:40:14Z</time>
      </trkpt>
      <trkpt lat="43.286306" lon="-8.795090">
        <ele>103.816</ele>
        <time>2019-06-21T11:40:15Z</time>
      </trkpt>
      <trkpt lat="43.286403" lon="-8.795276">
        <ele>103.032</ele>
        <time>2019-06-21T11:40:16Z</time>
      </trkpt>
      <trkpt lat="43.286508" lon="-8.795474">
        <ele>103.496</ele>
        <time>2019-06-21T11:40:17Z</time>
      </trkpt>
      <trkpt lat="43.286612" lon="-8.795681">
        <ele>103.648</ele>
        <time>2019-06-21T11:40:18Z</time>
      </trkpt>
      <trkpt lat="43.286713" lon="-8.795897">
        <ele>104.059</ele>
        <time>2019-06-21T11:40:19Z</time>
      </trkpt>
      <trkpt lat="43.286823" lon="-8.796124">
        <ele>104.103</ele>
        <time>2019-06-21T11:40:20Z</time>
      </trkpt>
      <trkpt lat="43.286930" lon="-8.796362">
        <ele>105.023</ele>
        <time>2019-06-21T11:40:21Z</time>
      </trkpt>
      <trkpt lat="43.287031" lon="-8.796609">
        <ele>103.508</ele>
        <time>2019-06-21T11:40:22Z</time>
      </trkpt>
      <trkpt lat="43.287141" lon="-8.796874">
        <ele>100.718</ele>
        <time>2019-06-21T11:40:23Z</time>
      </trkpt>
      <trkpt lat="43.287247" lon="-8.797149">
        <ele>98.622</ele>
        <time>2019-06-21T11:40:24Z</time>
      </trkpt>
      <trkpt lat="43.287355" lon="-8.797416">
        <ele>96.684</ele>
        <time>2019-06-21T11:40:25Z</time>
      </trkpt>
      <trkpt lat="43.287469" lon="-8.797706">
        <ele>94.526</ele>
        <time>2019-06-21T11:40:26Z</time>
      </trkpt>
      <trkpt lat="43.287578" lon="-8.797993">
        <ele>92.923</ele>
        <time>2019-06-21T11:40:27Z</time>
      </trkpt>
      <trkpt lat="43.287692" lon="-8.798288">
        <ele>91.869</ele>
        <time>2019-06-21T11:40:28Z</time>
      </trkpt>
      <trkpt lat="43.287800" lon="-8.798578">
        <ele>90.973</ele>
        <time>2019-06-21T11:40:29Z</time>
      </trkpt>
      <trkpt lat="43.287921" lon="-8.798868">
        <ele>91.465</ele>
        <time>2019-06-21T11:40:30Z</time>
      </trkpt>
      <trkpt lat="43.288035" lon="-8.799167">
        <ele>92.123</ele>
        <time>2019-06-21T11:40:31Z</time>
      </trkpt>
      <trkpt lat="43.288144" lon="-8.799449">
        <ele>92.783</ele>
        <time>2019-06-21T11:40:32Z</time>
      </trkpt>
      <trkpt lat="43.288249" lon="-8.799735">
        <ele>94.011</ele>
        <time>2019-06-21T11:40:33Z</time>
      </trkpt>
      <trkpt lat="43.288366" lon="-8.800022">
        <ele>93.808</ele>
        <time>2019-06-21T11:40:34Z</time>
      </trkpt>
      <trkpt lat="43.288478" lon="-8.800295">
        <ele>92.545</ele>
        <time>2019-06-21T11:40:35Z</time>
      </trkpt>
      <trkpt lat="43.288594" lon="-8.800550">
        <ele>91.239</ele>
        <time>2019-06-21T11:40:36Z</time>
      </trkpt>
      <trkpt lat="43.288717" lon="-8.800793">
        <ele>90.791</ele>
        <time>2019-06-21T11:40:37Z</time>
      </trkpt>
      <trkpt lat="43.288858" lon="-8.801029">
        <ele>89.313</ele>
        <time>2019-06-21T11:40:38Z</time>
      </trkpt>
      <trkpt lat="43.289005" lon="-8.801250">
        <ele>87.270</ele>
        <time>2019-06-21T11:40:39Z</time>
      </trkpt>
      <trkpt lat="43.289168" lon="-8.801461">
        <ele>85.076</ele>
        <time>2019-06-21T11:40:40Z</time>
      </trkpt>
      <trkpt lat="43.289338" lon="-8.801635">
        <ele>84.960</ele>
        <time>2019-06-21T11:40:41Z</time>
      </trkpt>
      <trkpt lat="43.289520" lon="-8.801775">
        <ele>86.232</ele>
        <time>2019-06-21T11:40:42Z</time>
      </trkpt>
      <trkpt lat="43.289717" lon="-8.801909">
        <ele>88.686</ele>
        <time>2019-06-21T11:40:43Z</time>
      </trkpt>
      <trkpt lat="43.289912" lon="-8.802031">
        <ele>89.760</ele>
        <time>2019-06-21T11:40:44Z</time>
      </trkpt>
      <trkpt lat="43.290097" lon="-8.802151">
        <ele>89.926</ele>
        <time>2019-06-21T11:40:45Z</time>
      </trkpt>
      <trkpt lat="43.290275" lon="-8.802260">
        <ele>89.208</ele>
        <time>2019-06-21T11:40:46Z</time>
      </trkpt>
      <trkpt lat="43.290454" lon="-8.802377">
        <ele>89.831</ele>
        <time>2019-06-21T11:40:47Z</time>
      </trkpt>
      <trkpt lat="43.290633" lon="-8.802490">
        <ele>90.555</ele>
        <time>2019-06-21T11:40:48Z</time>
      </trkpt>
      <trkpt lat="43.290814" lon="-8.802599">
        <ele>91.987</ele>
        <time>2019-06-21T11:40:49Z</time>
      </trkpt>
      <trkpt lat="43.290991" lon="-8.802701">
        <ele>93.529</ele>
        <time>2019-06-21T11:40:50Z</time>
      </trkpt>
      <trkpt lat="43.291168" lon="-8.802811">
        <ele>94.776</ele>
        <time>2019-06-21T11:40:51Z</time>
      </trkpt>
      <trkpt lat="43.291345" lon="-8.802907">
        <ele>94.192</ele>
        <time>2019-06-21T11:40:52Z</time>
      </trkpt>
      <trkpt lat="43.291526" lon="-8.803002">
        <ele>92.556</ele>
        <time>2019-06-21T11:40:53Z</time>
      </trkpt>
      <trkpt lat="43.291700" lon="-8.803111">
        <ele>91.538</ele>
        <time>2019-06-21T11:40:54Z</time>
      </trkpt>
      <trkpt lat="43.291877" lon="-8.803219">
        <ele>93.456</ele>
        <time>2019-06-21T11:40:55Z</time>
      </trkpt>
      <trkpt lat="43.292050" lon="-8.803327">
        <ele>96.159</ele>
        <time>2019-06-21T11:40:56Z</time>
      </trkpt>
      <trkpt lat="43.292218" lon="-8.803421">
        <ele>98.614</ele>
        <time>2019-06-21T11:40:57Z</time>
      </trkpt>
      <trkpt lat="43.292390" lon="-8.803542">
        <ele>99.708</ele>
        <time>2019-06-21T11:40:58Z</time>
      </trkpt>
      <trkpt lat="43.292554" lon="-8.803679">
        <ele>100.668</ele>
        <time>2019-06-21T11:40:59Z</time>
      </trkpt>
      <trkpt lat="43.292701" lon="-8.803821">
        <ele>101.712</ele>
        <time>2019-06-21T11:41:00Z</time>
      </trkpt>
      <trkpt lat="43.292862" lon="-8.803972">
        <ele>104.094</ele>
        <time>2019-06-21T11:41:01Z</time>
      </trkpt>
      <trkpt lat="43.293006" lon="-8.804132">
        <ele>107.246</ele>
        <time>2019-06-21T11:41:02Z</time>
      </trkpt>
      <trkpt lat="43.293123" lon="-8.804301">
        <ele>110.683</ele>
        <time>2019-06-21T11:41:03Z</time>
      </trkpt>
      <trkpt lat="43.293251" lon="-8.804494">
        <ele>113.169</ele>
        <time>2019-06-21T11:41:04Z</time>
      </trkpt>
      <trkpt lat="43.293369" lon="-8.804695">
        <ele>116.893</ele>
        <time>2019-06-21T11:41:05Z</time>
      </trkpt>
      <trkpt lat="43.293481" lon="-8.804908">
        <ele>121.165</ele>
        <time>2019-06-21T11:41:06Z</time>
      </trkpt>
      <trkpt lat="43.293576" lon="-8.805126">
        <ele>123.459</ele>
        <time>2019-06-21T11:41:07Z</time>
      </trkpt>
      <trkpt lat="43.293676" lon="-8.805337">
        <ele>123.703</ele>
        <time>2019-06-21T11:41:08Z</time>
      </trkpt>
      <trkpt lat="43.293782" lon="-8.805549">
        <ele>123.123</ele>
        <time>2019-06-21T11:41:09Z</time>
      </trkpt>
      <trkpt lat="43.293875" lon="-8.805758">
        <ele>122.908</ele>
        <time>2019-06-21T11:41:10Z</time>
      </trkpt>
      <trkpt lat="43.293975" lon="-8.805967">
        <ele>121.978</ele>
        <time>2019-06-21T11:41:11Z</time>
      </trkpt>
      <trkpt lat="43.294089" lon="-8.806197">
        <ele>120.152</ele>
        <time>2019-06-21T11:41:12Z</time>
      </trkpt>
      <trkpt lat="43.294199" lon="-8.806429">
        <ele>117.024</ele>
        <time>2019-06-21T11:41:13Z</time>
      </trkpt>
      <trkpt lat="43.294310" lon="-8.806649">
        <ele>113.646</ele>
        <time>2019-06-21T11:41:14Z</time>
      </trkpt>
      <trkpt lat="43.294396" lon="-8.806858">
        <ele>111.893</ele>
        <time>2019-06-21T11:41:15Z</time>
      </trkpt>
      <trkpt lat="43.294495" lon="-8.807061">
        <ele>110.959</ele>
        <time>2019-06-21T11:41:16Z</time>
      </trkpt>
      <trkpt lat="43.294592" lon="-8.807272">
        <ele>110.283</ele>
        <time>2019-06-21T11:41:17Z</time>
      </trkpt>
      <trkpt lat="43.294697" lon="-8.807491">
        <ele>109.045</ele>
        <time>2019-06-21T11:41:18Z</time>
      </trkpt>
      <trkpt lat="43.294816" lon="-8.807703">
        <ele>107.389</ele>
        <time>2019-06-21T11:41:19Z</time>
      </trkpt>
      <trkpt lat="43.294955" lon="-8.807899">
        <ele>105.106</ele>
        <time>2019-06-21T11:41:20Z</time>
      </trkpt>
      <trkpt lat="43.295102" lon="-8.808085">
        <ele>102.926</ele>
        <time>2019-06-21T11:41:21Z</time>
      </trkpt>
      <trkpt lat="43.295255" lon="-8.808258">
        <ele>101.908</ele>
        <time>2019-06-21T11:41:22Z</time>
      </trkpt>
      <trkpt lat="43.295422" lon="-8.808388">
        <ele>101.251</ele>
        <time>2019-06-21T11:41:23Z</time>
      </trkpt>
      <trkpt lat="43.295603" lon="-8.808526">
        <ele>100.515</ele>
        <time>2019-06-21T11:41:24Z</time>
      </trkpt>
      <trkpt lat="43.295791" lon="-8.808642">
        <ele>100.377</ele>
        <time>2019-06-21T11:41:25Z</time>
      </trkpt>
      <trkpt lat="43.295993" lon="-8.808755">
        <ele>99.639</ele>
        <time>2019-06-21T11:41:26Z</time>
      </trkpt>
      <trkpt lat="43.296191" lon="-8.808845">
        <ele>98.726</ele>
        <time>2019-06-21T11:41:27Z</time>
      </trkpt>
      <trkpt lat="43.296383" lon="-8.808930">
        <ele>98.222</ele>
        <time>2019-06-21T11:41:28Z</time>
      </trkpt>
      <trkpt lat="43.296565" lon="-8.809028">
        <ele>98.286</ele>
        <time>2019-06-21T11:41:29Z</time>
      </trkpt>
      <trkpt lat="43.296757" lon="-8.809118">
        <ele>98.358</ele>
        <time>2019-06-21T11:41:30Z</time>
      </trkpt>
      <trkpt lat="43.296943" lon="-8.809194">
        <ele>99.192</ele>
        <time>2019-06-21T11:41:31Z</time>
      </trkpt>
      <trkpt lat="43.297125" lon="-8.809272">
        <ele>99.473</ele>
        <time>2019-06-21T11:41:32Z</time>
      </trkpt>
      <trkpt lat="43.297306" lon="-8.809352">
        <ele>100.520</ele>
        <time>2019-06-21T11:41:33Z</time>
      </trkpt>
      <trkpt lat="43.297489" lon="-8.809427">
        <ele>102.808</ele>
        <time>2019-06-21T11:41:34Z</time>
      </trkpt>
      <trkpt lat="43.297674" lon="-8.809503">
        <ele>105.162</ele>
        <time>2019-06-21T11:41:35Z</time>
      </trkpt>
      <trkpt lat="43.297858" lon="-8.809582">
        <ele>107.146</ele>
        <time>2019-06-21T11:41:36Z</time>
      </trkpt>
      <trkpt lat="43.298048" lon="-8.809650">
        <ele>108.268</ele>
        <time>2019-06-21T11:41:37Z</time>
      </trkpt>
      <trkpt lat="43.298233" lon="-8.809728">
        <ele>108.060</ele>
        <time>2019-06-21T11:41:38Z</time>
      </trkpt>
      <trkpt lat="43.298418" lon="-8.809801">
        <ele>108.167</ele>
        <time>2019-06-21T11:41:39Z</time>
      </trkpt>
      <trkpt lat="43.298609" lon="-8.809878">
        <ele>109.033</ele>
        <time>2019-06-21T11:41:40Z</time>
      </trkpt>
      <trkpt lat="43.298809" lon="-8.809940">
        <ele>110.457</ele>
        <time>2019-06-21T11:41:41Z</time>
      </trkpt>
      <trkpt lat="43.299006" lon="-8.810021">
        <ele>111.019</ele>
        <time>2019-06-21T11:41:42Z</time>
      </trkpt>
      <trkpt lat="43.299195" lon="-8.810099">
        <ele>110.874</ele>
        <time>2019-06-21T11:41:43Z</time>
      </trkpt>
      <trkpt lat="43.299395" lon="-8.810186">
        <ele>109.456</ele>
        <time>2019-06-21T11:41:44Z</time>
      </trkpt>
      <trkpt lat="43.299583" lon="-8.810267">
        <ele>107.021</ele>
        <time>2019-06-21T11:41:45Z</time>
      </trkpt>
      <trkpt lat="43.299780" lon="-8.810340">
        <ele>105.008</ele>
        <time>2019-06-21T11:41:46Z</time>
      </trkpt>
      <trkpt lat="43.299963" lon="-8.810414">
        <ele>105.060</ele>
        <time>2019-06-21T11:41:47Z</time>
      </trkpt>
      <trkpt lat="43.300149" lon="-8.810474">
        <ele>105.954</ele>
        <time>2019-06-21T11:41:48Z</time>
      </trkpt>
      <trkpt lat="43.300342" lon="-8.810523">
        <ele>107.146</ele>
        <time>2019-06-21T11:41:49Z</time>
      </trkpt>
      <trkpt lat="43.300535" lon="-8.810563">
        <ele>108.058</ele>
        <time>2019-06-21T11:41:50Z</time>
      </trkpt>
      <trkpt lat="43.300709" lon="-8.810558">
        <ele>106.465</ele>
        <time>2019-06-21T11:41:51Z</time>
      </trkpt>
      <trkpt lat="43.300883" lon="-8.810575">
        <ele>105.071</ele>
        <time>2019-06-21T11:41:52Z</time>
      </trkpt>
      <trkpt lat="43.301061" lon="-8.810574">
        <ele>104.325</ele>
        <time>2019-06-21T11:41:53Z</time>
      </trkpt>
      <trkpt lat="43.301257" lon="-8.810569">
        <ele>103.037</ele>
        <time>2019-06-21T11:41:54Z</time>
      </trkpt>
      <trkpt lat="43.301447" lon="-8.810560">
        <ele>101.678</ele>
        <time>2019-06-21T11:41:55Z</time>
      </trkpt>
      <trkpt lat="43.301640" lon="-8.810542">
        <ele>100.233</ele>
        <time>2019-06-21T11:41:56Z</time>
      </trkpt>
      <trkpt lat="43.301843" lon="-8.810531">
        <ele>99.426</ele>
        <time>2019-06-21T11:41:57Z</time>
      </trkpt>
      <trkpt lat="43.302044" lon="-8.810521">
        <ele>98.308</ele>
        <time>2019-06-21T11:41:58Z</time>
      </trkpt>
      <trkpt lat="43.302248" lon="-8.810531">
        <ele>96.950</ele>
        <time>2019-06-21T11:41:59Z</time>
      </trkpt>
      <trkpt lat="43.302456" lon="-8.810531">
        <ele>95.344</ele>
        <time>2019-06-21T11:42:00Z</time>
      </trkpt>
      <trkpt lat="43.302655" lon="-8.810537">
        <ele>93.956</ele>
        <time>2019-06-21T11:42:01Z</time>
      </trkpt>
      <trkpt lat="43.302861" lon="-8.810535">
        <ele>93.048</ele>
        <time>2019-06-21T11:42:02Z</time>
      </trkpt>
      <trkpt lat="43.303080" lon="-8.810527">
        <ele>92.845</ele>
        <time>2019-06-21T11:42:03Z</time>
      </trkpt>
      <trkpt lat="43.303292" lon="-8.810523">
        <ele>92.181</ele>
        <time>2019-06-21T11:42:04Z</time>
      </trkpt>
      <trkpt lat="43.303497" lon="-8.810523">
        <ele>92.025</ele>
        <time>2019-06-21T11:42:05Z</time>
      </trkpt>
      <trkpt lat="43.303707" lon="-8.810542">
        <ele>91.727</ele>
        <time>2019-06-21T11:42:06Z</time>
      </trkpt>
      <trkpt lat="43.303914" lon="-8.810567">
        <ele>91.095</ele>
        <time>2019-06-21T11:42:07Z</time>
      </trkpt>
      <trkpt lat="43.304115" lon="-8.810610">
        <ele>90.849</ele>
        <time>2019-06-21T11:42:08Z</time>
      </trkpt>
      <trkpt lat="43.304305" lon="-8.810672">
        <ele>90.823</ele>
        <time>2019-06-21T11:42:09Z</time>
      </trkpt>
      <trkpt lat="43.304499" lon="-8.810738">
        <ele>91.108</ele>
        <time>2019-06-21T11:42:10Z</time>
      </trkpt>
      <trkpt lat="43.304693" lon="-8.810841">
        <ele>91.022</ele>
        <time>2019-06-21T11:42:11Z</time>
      </trkpt>
      <trkpt lat="43.304869" lon="-8.810953">
        <ele>90.046</ele>
        <time>2019-06-21T11:42:12Z</time>
      </trkpt>
      <trkpt lat="43.305045" lon="-8.811090">
        <ele>89.298</ele>
        <time>2019-06-21T11:42:13Z</time>
      </trkpt>
      <trkpt lat="43.305230" lon="-8.811238">
        <ele>89.070</ele>
        <time>2019-06-21T11:42:14Z</time>
      </trkpt>
      <trkpt lat="43.305397" lon="-8.811399">
        <ele>87.927</ele>
        <time>2019-06-21T11:42:15Z</time>
      </trkpt>
      <trkpt lat="43.305583" lon="-8.811563">
        <ele>86.573</ele>
        <time>2019-06-21T11:42:16Z</time>
      </trkpt>
      <trkpt lat="43.305769" lon="-8.811739">
        <ele>83.227</ele>
        <time>2019-06-21T11:42:17Z</time>
      </trkpt>
      <trkpt lat="43.305963" lon="-8.811924">
        <ele>80.229</ele>
        <time>2019-06-21T11:42:18Z</time>
      </trkpt>
      <trkpt lat="43.306168" lon="-8.812110">
        <ele>79.071</ele>
        <time>2019-06-21T11:42:19Z</time>
      </trkpt>
      <trkpt lat="43.306375" lon="-8.812303">
        <ele>78.741</ele>
        <time>2019-06-21T11:42:20Z</time>
      </trkpt>
      <trkpt lat="43.306581" lon="-8.812501">
        <ele>77.315</ele>
        <time>2019-06-21T11:42:21Z</time>
      </trkpt>
      <trkpt lat="43.306806" lon="-8.812704">
        <ele>75.808</ele>
        <time>2019-06-21T11:42:22Z</time>
      </trkpt>
      <trkpt lat="43.307024" lon="-8.812907">
        <ele>74.880</ele>
        <time>2019-06-21T11:42:23Z</time>
      </trkpt>
      <trkpt lat="43.307239" lon="-8.813109">
        <ele>74.994</ele>
        <time>2019-06-21T11:42:24Z</time>
      </trkpt>
      <trkpt lat="43.307456" lon="-8.813303">
        <ele>75.086</ele>
        <time>2019-06-21T11:42:25Z</time>
      </trkpt>
      <trkpt lat="43.307677" lon="-8.813495">
        <ele>75.048</ele>
        <time>2019-06-21T11:42:26Z</time>
      </trkpt>
      <trkpt lat="43.307895" lon="-8.813679">
        <ele>73.155</ele>
        <time>2019-06-21T11:42:27Z</time>
      </trkpt>
      <trkpt lat="43.308113" lon="-8.813866">
        <ele>71.431</ele>
        <time>2019-06-21T11:42:28Z</time>
      </trkpt>
      <trkpt lat="43.308327" lon="-8.814060">
        <ele>71.435</ele>
        <time>2019-06-21T11:42:29Z</time>
      </trkpt>
      <trkpt lat="43.308541" lon="-8.814242">
        <ele>71.697</ele>
        <time>2019-06-21T11:42:30Z</time>
      </trkpt>
      <trkpt lat="43.308747" lon="-8.814406">
        <ele>71.216</ele>
        <time>2019-06-21T11:42:31Z</time>
      </trkpt>
      <trkpt lat="43.308951" lon="-8.814587">
        <ele>70.276</ele>
        <time>2019-06-21T11:42:32Z</time>
      </trkpt>
      <trkpt lat="43.309152" lon="-8.814767">
        <ele>69.613</ele>
        <time>2019-06-21T11:42:33Z</time>
      </trkpt>
      <trkpt lat="43.309348" lon="-8.814951">
        <ele>68.908</ele>
        <time>2019-06-21T11:42:34Z</time>
      </trkpt>
      <trkpt lat="43.309544" lon="-8.815129">
        <ele>68.214</ele>
        <time>2019-06-21T11:42:35Z</time>
      </trkpt>
      <trkpt lat="43.309742" lon="-8.815307">
        <ele>67.928</ele>
        <time>2019-06-21T11:42:36Z</time>
      </trkpt>
      <trkpt lat="43.309944" lon="-8.815485">
        <ele>67.320</ele>
        <time>2019-06-21T11:42:37Z</time>
      </trkpt>
      <trkpt lat="43.310139" lon="-8.815666">
        <ele>66.412</ele>
        <time>2019-06-21T11:42:38Z</time>
      </trkpt>
      <trkpt lat="43.310338" lon="-8.815841">
        <ele>66.249</ele>
        <time>2019-06-21T11:42:39Z</time>
      </trkpt>
      <trkpt lat="43.310531" lon="-8.816012">
        <ele>65.695</ele>
        <time>2019-06-21T11:42:40Z</time>
      </trkpt>
      <trkpt lat="43.310729" lon="-8.816183">
        <ele>65.269</ele>
        <time>2019-06-21T11:42:41Z</time>
      </trkpt>
      <trkpt lat="43.310930" lon="-8.816358">
        <ele>64.891</ele>
        <time>2019-06-21T11:42:42Z</time>
      </trkpt>
      <trkpt lat="43.311119" lon="-8.816537">
        <ele>66.127</ele>
        <time>2019-06-21T11:42:43Z</time>
      </trkpt>
      <trkpt lat="43.311310" lon="-8.816716">
        <ele>68.768</ele>
        <time>2019-06-21T11:42:44Z</time>
      </trkpt>
      <trkpt lat="43.311496" lon="-8.816892">
        <ele>70.314</ele>
        <time>2019-06-21T11:42:45Z</time>
      </trkpt>
      <trkpt lat="43.311679" lon="-8.817069">
        <ele>71.808</ele>
        <time>2019-06-21T11:42:46Z</time>
      </trkpt>
      <trkpt lat="43.311878" lon="-8.817233">
        <ele>75.515</ele>
        <time>2019-06-21T11:42:47Z</time>
      </trkpt>
      <trkpt lat="43.312060" lon="-8.817405">
        <ele>78.559</ele>
        <time>2019-06-21T11:42:48Z</time>
      </trkpt>
      <trkpt lat="43.312239" lon="-8.817578">
        <ele>81.841</ele>
        <time>2019-06-21T11:42:49Z</time>
      </trkpt>
      <trkpt lat="43.312409" lon="-8.817735">
        <ele>84.383</ele>
        <time>2019-06-21T11:42:50Z</time>
      </trkpt>
      <trkpt lat="43.312572" lon="-8.817873">
        <ele>85.720</ele>
        <time>2019-06-21T11:42:51Z</time>
      </trkpt>
      <trkpt lat="43.312734" lon="-8.818017">
        <ele>85.296</ele>
        <time>2019-06-21T11:42:52Z</time>
      </trkpt>
      <trkpt lat="43.312854" lon="-8.818156">
        <ele>84.140</ele>
        <time>2019-06-21T11:42:53Z</time>
      </trkpt>
      <trkpt lat="43.313004" lon="-8.818290">
        <ele>83.962</ele>
        <time>2019-06-21T11:42:54Z</time>
      </trkpt>
      <trkpt lat="43.313159" lon="-8.818423">
        <ele>83.524</ele>
        <time>2019-06-21T11:42:55Z</time>
      </trkpt>
      <trkpt lat="43.313314" lon="-8.818552">
        <ele>82.404</ele>
        <time>2019-06-21T11:42:56Z</time>
      </trkpt>
      <trkpt lat="43.313472" lon="-8.818682">
        <ele>81.114</ele>
        <time>2019-06-21T11:42:57Z</time>
      </trkpt>
      <trkpt lat="43.313641" lon="-8.818811">
        <ele>79.508</ele>
        <time>2019-06-21T11:42:58Z</time>
      </trkpt>
      <trkpt lat="43.313798" lon="-8.818933">
        <ele>78.145</ele>
        <time>2019-06-21T11:42:59Z</time>
      </trkpt>
      <trkpt lat="43.313955" lon="-8.819048">
        <ele>77.889</ele>
        <time>2019-06-21T11:43:00Z</time>
      </trkpt>
      <trkpt lat="43.314107" lon="-8.819147">
        <ele>78.411</ele>
        <time>2019-06-21T11:43:01Z</time>
      </trkpt>
      <trkpt lat="43.314256" lon="-8.819250">
        <ele>78.513</ele>
        <time>2019-06-21T11:43:02Z</time>
      </trkpt>
      <trkpt lat="43.314409" lon="-8.819358">
        <ele>78.430</ele>
        <time>2019-06-21T11:43:03Z</time>
      </trkpt>
      <trkpt lat="43.314536" lon="-8.819471">
        <ele>77.676</ele>
        <time>2019-06-21T11:43:04Z</time>
      </trkpt>
      <trkpt lat="43.314665" lon="-8.819598">
        <ele>77.590</ele>
        <time>2019-06-21T11:43:05Z</time>
      </trkpt>
      <trkpt lat="43.314782" lon="-8.819741">
        <ele>77.462</ele>
        <time>2019-06-21T11:43:06Z</time>
      </trkpt>
      <trkpt lat="43.314878" lon="-8.819879">
        <ele>76.479</ele>
        <time>2019-06-21T11:43:07Z</time>
      </trkpt>
      <trkpt lat="43.314975" lon="-8.820028">
        <ele>75.405</ele>
        <time>2019-06-21T11:43:08Z</time>
      </trkpt>
      <trkpt lat="43.315067" lon="-8.820173">
        <ele>74.925</ele>
        <time>2019-06-21T11:43:09Z</time>
      </trkpt>
      <trkpt lat="43.315149" lon="-8.820308">
        <ele>74.208</ele>
        <time>2019-06-21T11:43:10Z</time>
      </trkpt>
      <trkpt lat="43.315233" lon="-8.820431">
        <ele>73.390</ele>
        <time>2019-06-21T11:43:11Z</time>
      </trkpt>
      <trkpt lat="43.315320" lon="-8.820537">
        <ele>72.924</ele>
        <time>2019-06-21T11:43:12Z</time>
      </trkpt>
      <trkpt lat="43.315404" lon="-8.820640">
        <ele>72.696</ele>
        <time>2019-06-21T11:43:13Z</time>
      </trkpt>
      <trkpt lat="43.315507" lon="-8.820722">
        <ele>72.988</ele>
        <time>2019-06-21T11:43:14Z</time>
      </trkpt>
      <trkpt lat="43.315623" lon="-8.820778">
        <ele>73.265</ele>
        <time>2019-06-21T11:43:15Z</time>
      </trkpt>
      <trkpt lat="43.315744" lon="-8.820817">
        <ele>73.641</ele>
        <time>2019-06-21T11:43:16Z</time>
      </trkpt>
      <trkpt lat="43.315884" lon="-8.820852">
        <ele>74.165</ele>
        <time>2019-06-21T11:43:17Z</time>
      </trkpt>
      <trkpt lat="43.316006" lon="-8.820875">
        <ele>74.747</ele>
        <time>2019-06-21T11:43:18Z</time>
      </trkpt>
      <trkpt lat="43.316117" lon="-8.820902">
        <ele>75.422</ele>
        <time>2019-06-21T11:43:19Z</time>
      </trkpt>
      <trkpt lat="43.316231" lon="-8.820930">
        <ele>76.862</ele>
        <time>2019-06-21T11:43:20Z</time>
      </trkpt>
      <trkpt lat="43.316345" lon="-8.820953">
        <ele>78.208</ele>
        <time>2019-06-21T11:43:21Z</time>
      </trkpt>
      <trkpt lat="43.316462" lon="-8.820971">
        <ele>78.508</ele>
        <time>2019-06-21T11:43:22Z</time>
      </trkpt>
      <trkpt lat="43.316576" lon="-8.820974">
        <ele>78.555</ele>
        <time>2019-06-21T11:43:23Z</time>
      </trkpt>
      <trkpt lat="43.316688" lon="-8.820950">
        <ele>78.769</ele>
        <time>2019-06-21T11:43:24Z</time>
      </trkpt>
      <trkpt lat="43.316799" lon="-8.820909">
        <ele>78.331</ele>
        <time>2019-06-21T11:43:25Z</time>
      </trkpt>
      <trkpt lat="43.316908" lon="-8.820850">
        <ele>78.193</ele>
        <time>2019-06-21T11:43:26Z</time>
      </trkpt>
      <trkpt lat="43.317019" lon="-8.820787">
        <ele>77.910</ele>
        <time>2019-06-21T11:43:27Z</time>
      </trkpt>
      <trkpt lat="43.317129" lon="-8.820727">
        <ele>77.516</ele>
        <time>2019-06-21T11:43:28Z</time>
      </trkpt>
      <trkpt lat="43.317239" lon="-8.820656">
        <ele>77.410</ele>
        <time>2019-06-21T11:43:29Z</time>
      </trkpt>
      <trkpt lat="43.317341" lon="-8.820583">
        <ele>77.412</ele>
        <time>2019-06-21T11:43:30Z</time>
      </trkpt>
      <trkpt lat="43.317447" lon="-8.820521">
        <ele>76.974</ele>
        <time>2019-06-21T11:43:31Z</time>
      </trkpt>
      <trkpt lat="43.317555" lon="-8.820454">
        <ele>76.856</ele>
        <time>2019-06-21T11:43:32Z</time>
      </trkpt>
      <trkpt lat="43.317661" lon="-8.820394">
        <ele>76.521</ele>
        <time>2019-06-21T11:43:33Z</time>
      </trkpt>
      <trkpt lat="43.317775" lon="-8.820340">
        <ele>75.808</ele>
        <time>2019-06-21T11:43:34Z</time>
      </trkpt>
      <trkpt lat="43.317878" lon="-8.820287">
        <ele>75.640</ele>
        <time>2019-06-21T11:43:35Z</time>
      </trkpt>
      <trkpt lat="43.317992" lon="-8.820256">
        <ele>75.354</ele>
        <time>2019-06-21T11:43:36Z</time>
      </trkpt>
      <trkpt lat="43.318102" lon="-8.820203">
        <ele>75.196</ele>
        <time>2019-06-21T11:43:37Z</time>
      </trkpt>
      <trkpt lat="43.318207" lon="-8.820154">
        <ele>75.178</ele>
        <time>2019-06-21T11:43:38Z</time>
      </trkpt>
      <trkpt lat="43.318309" lon="-8.820104">
        <ele>75.325</ele>
        <time>2019-06-21T11:43:39Z</time>
      </trkpt>
      <trkpt lat="43.318414" lon="-8.820059">
        <ele>75.381</ele>
        <time>2019-06-21T11:43:40Z</time>
      </trkpt>
      <trkpt lat="43.318526" lon="-8.820015">
        <ele>75.295</ele>
        <time>2019-06-21T11:43:41Z</time>
      </trkpt>
      <trkpt lat="43.318627" lon="-8.819968">
        <ele>75.087</ele>
        <time>2019-06-21T11:43:42Z</time>
      </trkpt>
      <trkpt lat="43.318732" lon="-8.819933">
        <ele>74.633</ele>
        <time>2019-06-21T11:43:43Z</time>
      </trkpt>
      <trkpt lat="43.318838" lon="-8.819896">
        <ele>74.423</ele>
        <time>2019-06-21T11:43:44Z</time>
      </trkpt>
      <trkpt lat="43.318967" lon="-8.819871">
        <ele>74.515</ele>
        <time>2019-06-21T11:43:45Z</time>
      </trkpt>
      <trkpt lat="43.319059" lon="-8.819851">
        <ele>74.908</ele>
        <time>2019-06-21T11:43:46Z</time>
      </trkpt>
      <trkpt lat="43.319163" lon="-8.819830">
        <ele>75.266</ele>
        <time>2019-06-21T11:43:47Z</time>
      </trkpt>
      <trkpt lat="43.319277" lon="-8.819811">
        <ele>75.010</ele>
        <time>2019-06-21T11:43:48Z</time>
      </trkpt>
      <trkpt lat="43.319383" lon="-8.819790">
        <ele>74.782</ele>
        <time>2019-06-21T11:43:49Z</time>
      </trkpt>
      <trkpt lat="43.319473" lon="-8.819782">
        <ele>74.474</ele>
        <time>2019-06-21T11:43:50Z</time>
      </trkpt>
      <trkpt lat="43.319564" lon="-8.819768">
        <ele>73.931</ele>
        <time>2019-06-21T11:43:51Z</time>
      </trkpt>
      <trkpt lat="43.319657" lon="-8.819755">
        <ele>73.377</ele>
        <time>2019-06-21T11:43:52Z</time>
      </trkpt>
      <trkpt lat="43.319746" lon="-8.819736">
        <ele>72.661</ele>
        <time>2019-06-21T11:43:53Z</time>
      </trkpt>
      <trkpt lat="43.319818" lon="-8.819725">
        <ele>71.663</ele>
        <time>2019-06-21T11:43:54Z</time>
      </trkpt>
      <trkpt lat="43.319865" lon="-8.819727">
        <ele>70.947</ele>
        <time>2019-06-21T11:43:55Z</time>
      </trkpt>
      <trkpt lat="43.319913" lon="-8.819727">
        <ele>70.229</ele>
        <time>2019-06-21T11:43:56Z</time>
      </trkpt>
      <trkpt lat="43.319964" lon="-8.819730">
        <ele>69.521</ele>
        <time>2019-06-21T11:43:57Z</time>
      </trkpt>
      <trkpt lat="43.320018" lon="-8.819743">
        <ele>68.708</ele>
        <time>2019-06-21T11:43:58Z</time>
      </trkpt>
      <trkpt lat="43.320038" lon="-8.819845">
        <ele>68.157</ele>
        <time>2019-06-21T11:44:01Z</time>
      </trkpt>
      <trkpt lat="43.319983" lon="-8.819911">
        <ele>68.651</ele>
        <time>2019-06-21T11:44:02Z</time>
      </trkpt>
      <trkpt lat="43.319960" lon="-8.819970">
        <ele>68.733</ele>
        <time>2019-06-21T11:44:03Z</time>
      </trkpt>
      <trkpt lat="43.319913" lon="-8.820098">
        <ele>69.445</ele>
        <time>2019-06-21T11:44:04Z</time>
      </trkpt>
      <trkpt lat="43.319844" lon="-8.820220">
        <ele>70.172</ele>
        <time>2019-06-21T11:44:05Z</time>
      </trkpt>
      <trkpt lat="43.319765" lon="-8.820332">
        <ele>70.338</ele>
        <time>2019-06-21T11:44:06Z</time>
      </trkpt>
      <trkpt lat="43.319673" lon="-8.820453">
        <ele>69.612</ele>
        <time>2019-06-21T11:44:07Z</time>
      </trkpt>
      <trkpt lat="43.319585" lon="-8.820592">
        <ele>68.264</ele>
        <time>2019-06-21T11:44:08Z</time>
      </trkpt>
      <trkpt lat="43.319494" lon="-8.820725">
        <ele>66.877</ele>
        <time>2019-06-21T11:44:09Z</time>
      </trkpt>
      <trkpt lat="43.319377" lon="-8.820847">
        <ele>66.561</ele>
        <time>2019-06-21T11:44:10Z</time>
      </trkpt>
      <trkpt lat="43.319256" lon="-8.820967">
        <ele>67.027</ele>
        <time>2019-06-21T11:44:11Z</time>
      </trkpt>
      <trkpt lat="43.319137" lon="-8.821093">
        <ele>67.308</ele>
        <time>2019-06-21T11:44:12Z</time>
      </trkpt>
      <trkpt lat="43.319026" lon="-8.821216">
        <ele>68.080</ele>
        <time>2019-06-21T11:44:13Z</time>
      </trkpt>
      <trkpt lat="43.318919" lon="-8.821337">
        <ele>68.174</ele>
        <time>2019-06-21T11:44:14Z</time>
      </trkpt>
      <trkpt lat="43.318820" lon="-8.821450">
        <ele>67.996</ele>
        <time>2019-06-21T11:44:15Z</time>
      </trkpt>
      <trkpt lat="43.318724" lon="-8.821567">
        <ele>67.238</ele>
        <time>2019-06-21T11:44:16Z</time>
      </trkpt>
      <trkpt lat="43.318632" lon="-8.821689">
        <ele>66.245</ele>
        <time>2019-06-21T11:44:17Z</time>
      </trkpt>
      <trkpt lat="43.318551" lon="-8.821820">
        <ele>65.891</ele>
        <time>2019-06-21T11:44:18Z</time>
      </trkpt>
      <trkpt lat="43.318473" lon="-8.821959">
        <ele>65.585</ele>
        <time>2019-06-21T11:44:19Z</time>
      </trkpt>
      <trkpt lat="43.318406" lon="-8.822108">
        <ele>65.317</ele>
        <time>2019-06-21T11:44:20Z</time>
      </trkpt>
      <trkpt lat="43.318341" lon="-8.822263">
        <ele>65.295</ele>
        <time>2019-06-21T11:44:21Z</time>
      </trkpt>
      <trkpt lat="43.318270" lon="-8.822411">
        <ele>65.249</ele>
        <time>2019-06-21T11:44:22Z</time>
      </trkpt>
      <trkpt lat="43.318204" lon="-8.822558">
        <ele>65.323</ele>
        <time>2019-06-21T11:44:23Z</time>
      </trkpt>
      <trkpt lat="43.318130" lon="-8.822698">
        <ele>64.908</ele>
        <time>2019-06-21T11:44:24Z</time>
      </trkpt>
      <trkpt lat="43.318083" lon="-8.822841">
        <ele>64.492</ele>
        <time>2019-06-21T11:44:25Z</time>
      </trkpt>
      <trkpt lat="43.318013" lon="-8.822984">
        <ele>63.516</ele>
        <time>2019-06-21T11:44:26Z</time>
      </trkpt>
      <trkpt lat="43.317949" lon="-8.823128">
        <ele>63.028</ele>
        <time>2019-06-21T11:44:27Z</time>
      </trkpt>
      <trkpt lat="43.317888" lon="-8.823269">
        <ele>62.570</ele>
        <time>2019-06-21T11:44:28Z</time>
      </trkpt>
      <trkpt lat="43.317837" lon="-8.823408">
        <ele>62.167</ele>
        <time>2019-06-21T11:44:29Z</time>
      </trkpt>
      <trkpt lat="43.317789" lon="-8.823544">
        <ele>61.913</ele>
        <time>2019-06-21T11:44:30Z</time>
      </trkpt>
      <trkpt lat="43.317753" lon="-8.823691">
        <ele>61.777</ele>
        <time>2019-06-21T11:44:31Z</time>
      </trkpt>
      <trkpt lat="43.317736" lon="-8.823833">
        <ele>61.559</ele>
        <time>2019-06-21T11:44:32Z</time>
      </trkpt>
      <trkpt lat="43.317745" lon="-8.823989">
        <ele>61.282</ele>
        <time>2019-06-21T11:44:33Z</time>
      </trkpt>
      <trkpt lat="43.317775" lon="-8.824133">
        <ele>61.143</ele>
        <time>2019-06-21T11:44:34Z</time>
      </trkpt>
      <trkpt lat="43.317818" lon="-8.824276">
        <ele>59.617</ele>
        <time>2019-06-21T11:44:35Z</time>
      </trkpt>
      <trkpt lat="43.317861" lon="-8.824412">
        <ele>58.008</ele>
        <time>2019-06-21T11:44:36Z</time>
      </trkpt>
      <trkpt lat="43.317969" lon="-8.824549">
        <ele>57.441</ele>
        <time>2019-06-21T11:44:37Z</time>
      </trkpt>
      <trkpt lat="43.318032" lon="-8.824691">
        <ele>56.245</ele>
        <time>2019-06-21T11:44:38Z</time>
      </trkpt>
      <trkpt lat="43.318104" lon="-8.824841">
        <ele>55.177</ele>
        <time>2019-06-21T11:44:39Z</time>
      </trkpt>
      <trkpt lat="43.318161" lon="-8.824986">
        <ele>54.199</ele>
        <time>2019-06-21T11:44:40Z</time>
      </trkpt>
      <trkpt lat="43.318226" lon="-8.825112">
        <ele>53.686</ele>
        <time>2019-06-21T11:44:41Z</time>
      </trkpt>
      <trkpt lat="43.318257" lon="-8.825270">
        <ele>53.032</ele>
        <time>2019-06-21T11:44:42Z</time>
      </trkpt>
      <trkpt lat="43.318298" lon="-8.825446">
        <ele>51.986</ele>
        <time>2019-06-21T11:44:43Z</time>
      </trkpt>
      <trkpt lat="43.318332" lon="-8.825616">
        <ele>50.838</ele>
        <time>2019-06-21T11:44:44Z</time>
      </trkpt>
      <trkpt lat="43.318364" lon="-8.825787">
        <ele>50.319</ele>
        <time>2019-06-21T11:44:45Z</time>
      </trkpt>
      <trkpt lat="43.318394" lon="-8.825948">
        <ele>49.809</ele>
        <time>2019-06-21T11:44:46Z</time>
      </trkpt>
      <trkpt lat="43.318432" lon="-8.826108">
        <ele>49.419</ele>
        <time>2019-06-21T11:44:47Z</time>
      </trkpt>
      <trkpt lat="43.318461" lon="-8.826261">
        <ele>48.908</ele>
        <time>2019-06-21T11:44:48Z</time>
      </trkpt>
      <trkpt lat="43.318491" lon="-8.826419">
        <ele>48.564</ele>
        <time>2019-06-21T11:44:49Z</time>
      </trkpt>
      <trkpt lat="43.318534" lon="-8.826583">
        <ele>48.038</ele>
        <time>2019-06-21T11:44:50Z</time>
      </trkpt>
      <trkpt lat="43.318573" lon="-8.826753">
        <ele>47.690</ele>
        <time>2019-06-21T11:44:51Z</time>
      </trkpt>
      <trkpt lat="43.318630" lon="-8.826916">
        <ele>47.172</ele>
        <time>2019-06-21T11:44:52Z</time>
      </trkpt>
      <trkpt lat="43.318694" lon="-8.827084">
        <ele>46.529</ele>
        <time>2019-06-21T11:44:53Z</time>
      </trkpt>
      <trkpt lat="43.318772" lon="-8.827237">
        <ele>45.995</ele>
        <time>2019-06-21T11:44:54Z</time>
      </trkpt>
      <trkpt lat="43.318852" lon="-8.827385">
        <ele>45.459</ele>
        <time>2019-06-21T11:44:55Z</time>
      </trkpt>
      <trkpt lat="43.318922" lon="-8.827527">
        <ele>44.951</ele>
        <time>2019-06-21T11:44:56Z</time>
      </trkpt>
      <trkpt lat="43.318969" lon="-8.827669">
        <ele>44.485</ele>
        <time>2019-06-21T11:44:57Z</time>
      </trkpt>
      <trkpt lat="43.318999" lon="-8.827817">
        <ele>43.989</ele>
        <time>2019-06-21T11:44:58Z</time>
      </trkpt>
      <trkpt lat="43.319006" lon="-8.827959">
        <ele>43.617</ele>
        <time>2019-06-21T11:44:59Z</time>
      </trkpt>
      <trkpt lat="43.318992" lon="-8.828108">
        <ele>43.208</ele>
        <time>2019-06-21T11:45:00Z</time>
      </trkpt>
      <trkpt lat="43.318960" lon="-8.828256">
        <ele>42.531</ele>
        <time>2019-06-21T11:45:01Z</time>
      </trkpt>
      <trkpt lat="43.318899" lon="-8.828401">
        <ele>41.835</ele>
        <time>2019-06-21T11:45:02Z</time>
      </trkpt>
      <trkpt lat="43.318824" lon="-8.828538">
        <ele>41.387</ele>
        <time>2019-06-21T11:45:03Z</time>
      </trkpt>
      <trkpt lat="43.318735" lon="-8.828666">
        <ele>40.819</ele>
        <time>2019-06-21T11:45:04Z</time>
      </trkpt>
      <trkpt lat="43.318638" lon="-8.828787">
        <ele>40.476</ele>
        <time>2019-06-21T11:45:05Z</time>
      </trkpt>
      <trkpt lat="43.318550" lon="-8.828912">
        <ele>39.932</ele>
        <time>2019-06-21T11:45:06Z</time>
      </trkpt>
      <trkpt lat="43.318477" lon="-8.829050">
        <ele>39.186</ele>
        <time>2019-06-21T11:45:07Z</time>
      </trkpt>
      <trkpt lat="43.318423" lon="-8.829194">
        <ele>38.628</ele>
        <time>2019-06-21T11:45:08Z</time>
      </trkpt>
      <trkpt lat="43.318394" lon="-8.829356">
        <ele>38.192</ele>
        <time>2019-06-21T11:45:09Z</time>
      </trkpt>
      <trkpt lat="43.318392" lon="-8.829523">
        <ele>37.873</ele>
        <time>2019-06-21T11:45:10Z</time>
      </trkpt>
      <trkpt lat="43.318404" lon="-8.829704">
        <ele>37.720</ele>
        <time>2019-06-21T11:45:11Z</time>
      </trkpt>
      <trkpt lat="43.318411" lon="-8.829874">
        <ele>37.708</ele>
        <time>2019-06-21T11:45:12Z</time>
      </trkpt>
      <trkpt lat="43.318421" lon="-8.830035">
        <ele>37.792</ele>
        <time>2019-06-21T11:45:13Z</time>
      </trkpt>
      <trkpt lat="43.318431" lon="-8.830191">
        <ele>37.976</ele>
        <time>2019-06-21T11:45:14Z</time>
      </trkpt>
      <trkpt lat="43.318434" lon="-8.830335">
        <ele>38.238</ele>
        <time>2019-06-21T11:45:15Z</time>
      </trkpt>
      <trkpt lat="43.318439" lon="-8.830462">
        <ele>38.710</ele>
        <time>2019-06-21T11:45:16Z</time>
      </trkpt>
      <trkpt lat="43.318443" lon="-8.830572">
        <ele>39.057</ele>
        <time>2019-06-21T11:45:17Z</time>
      </trkpt>
      <trkpt lat="43.318451" lon="-8.830652">
        <ele>39.113</ele>
        <time>2019-06-21T11:45:18Z</time>
      </trkpt>
      <trkpt lat="43.318480" lon="-8.830763">
        <ele>39.457</ele>
        <time>2019-06-21T11:45:20Z</time>
      </trkpt>
      <trkpt lat="43.318576" lon="-8.830805">
        <ele>39.839</ele>
        <time>2019-06-21T11:45:22Z</time>
      </trkpt>
      <trkpt lat="43.318649" lon="-8.830811">
        <ele>39.948</ele>
        <time>2019-06-21T11:45:23Z</time>
      </trkpt>
      <trkpt lat="43.318736" lon="-8.830809">
        <ele>39.961</ele>
        <time>2019-06-21T11:45:24Z</time>
      </trkpt>
      <trkpt lat="43.318826" lon="-8.830796">
        <ele>39.917</ele>
        <time>2019-06-21T11:45:25Z</time>
      </trkpt>
      <trkpt lat="43.318926" lon="-8.830777">
        <ele>39.708</ele>
        <time>2019-06-21T11:45:26Z</time>
      </trkpt>
      <trkpt lat="43.319031" lon="-8.830752">
        <ele>39.267</ele>
        <time>2019-06-21T11:45:27Z</time>
      </trkpt>
      <trkpt lat="43.319140" lon="-8.830735">
        <ele>38.771</ele>
        <time>2019-06-21T11:45:28Z</time>
      </trkpt>
      <trkpt lat="43.319251" lon="-8.830707">
        <ele>38.593</ele>
        <time>2019-06-21T11:45:29Z</time>
      </trkpt>
      <trkpt lat="43.319364" lon="-8.830679">
        <ele>38.425</ele>
        <time>2019-06-21T11:45:30Z</time>
      </trkpt>
      <trkpt lat="43.319473" lon="-8.830652">
        <ele>38.392</ele>
        <time>2019-06-21T11:45:31Z</time>
      </trkpt>
      <trkpt lat="43.319583" lon="-8.830635">
        <ele>38.158</ele>
        <time>2019-06-21T11:45:32Z</time>
      </trkpt>
      <trkpt lat="43.319691" lon="-8.830618">
        <ele>38.052</ele>
        <time>2019-06-21T11:45:33Z</time>
      </trkpt>
      <trkpt lat="43.319794" lon="-8.830598">
        <ele>37.824</ele>
        <time>2019-06-21T11:45:34Z</time>
      </trkpt>
      <trkpt lat="43.319892" lon="-8.830586">
        <ele>37.546</ele>
        <time>2019-06-21T11:45:35Z</time>
      </trkpt>
      <trkpt lat="43.320008" lon="-8.830582">
        <ele>37.188</ele>
        <time>2019-06-21T11:45:36Z</time>
      </trkpt>
      <trkpt lat="43.320104" lon="-8.830591">
        <ele>37.116</ele>
        <time>2019-06-21T11:45:37Z</time>
      </trkpt>
      <trkpt lat="43.320193" lon="-8.830601">
        <ele>37.008</ele>
        <time>2019-06-21T11:45:38Z</time>
      </trkpt>
      <trkpt lat="43.320305" lon="-8.830652">
        <ele>36.967</ele>
        <time>2019-06-21T11:45:39Z</time>
      </trkpt>
      <trkpt lat="43.320424" lon="-8.830723">
        <ele>36.231</ele>
        <time>2019-06-21T11:45:40Z</time>
      </trkpt>
      <trkpt lat="43.320543" lon="-8.830799">
        <ele>35.293</ele>
        <time>2019-06-21T11:45:41Z</time>
      </trkpt>
      <trkpt lat="43.320673" lon="-8.830883">
        <ele>34.695</ele>
        <time>2019-06-21T11:45:42Z</time>
      </trkpt>
      <trkpt lat="43.320809" lon="-8.830979">
        <ele>34.132</ele>
        <time>2019-06-21T11:45:43Z</time>
      </trkpt>
      <trkpt lat="43.320954" lon="-8.831087">
        <ele>34.018</ele>
        <time>2019-06-21T11:45:44Z</time>
      </trkpt>
      <trkpt lat="43.321090" lon="-8.831196">
        <ele>34.042</ele>
        <time>2019-06-21T11:45:45Z</time>
      </trkpt>
      <trkpt lat="43.321255" lon="-8.831307">
        <ele>34.014</ele>
        <time>2019-06-21T11:45:46Z</time>
      </trkpt>
      <trkpt lat="43.321404" lon="-8.831417">
        <ele>34.034</ele>
        <time>2019-06-21T11:45:47Z</time>
      </trkpt>
      <trkpt lat="43.321551" lon="-8.831521">
        <ele>34.355</ele>
        <time>2019-06-21T11:45:48Z</time>
      </trkpt>
      <trkpt lat="43.321694" lon="-8.831624">
        <ele>34.210</ele>
        <time>2019-06-21T11:45:49Z</time>
      </trkpt>
      <trkpt lat="43.321837" lon="-8.831725">
        <ele>34.008</ele>
        <time>2019-06-21T11:45:50Z</time>
      </trkpt>
      <trkpt lat="43.321982" lon="-8.831830">
        <ele>34.166</ele>
        <time>2019-06-21T11:45:51Z</time>
      </trkpt>
      <trkpt lat="43.322132" lon="-8.831935">
        <ele>34.750</ele>
        <time>2019-06-21T11:45:52Z</time>
      </trkpt>
      <trkpt lat="43.322287" lon="-8.832040">
        <ele>35.972</ele>
        <time>2019-06-21T11:45:53Z</time>
      </trkpt>
      <trkpt lat="43.322446" lon="-8.832148">
        <ele>37.364</ele>
        <time>2019-06-21T11:45:54Z</time>
      </trkpt>
      <trkpt lat="43.322605" lon="-8.832257">
        <ele>38.281</ele>
        <time>2019-06-21T11:45:55Z</time>
      </trkpt>
      <trkpt lat="43.322766" lon="-8.832369">
        <ele>39.027</ele>
        <time>2019-06-21T11:45:56Z</time>
      </trkpt>
      <trkpt lat="43.322931" lon="-8.832475">
        <ele>40.341</ele>
        <time>2019-06-21T11:45:57Z</time>
      </trkpt>
      <trkpt lat="43.323079" lon="-8.832577">
        <ele>41.733</ele>
        <time>2019-06-21T11:45:58Z</time>
      </trkpt>
      <trkpt lat="43.323198" lon="-8.832678">
        <ele>43.121</ele>
        <time>2019-06-21T11:45:59Z</time>
      </trkpt>
      <trkpt lat="43.323335" lon="-8.832773">
        <ele>44.941</ele>
        <time>2019-06-21T11:46:00Z</time>
      </trkpt>
      <trkpt lat="43.323463" lon="-8.832858">
        <ele>45.605</ele>
        <time>2019-06-21T11:46:01Z</time>
      </trkpt>
      <trkpt lat="43.323588" lon="-8.832944">
        <ele>46.208</ele>
        <time>2019-06-21T11:46:02Z</time>
      </trkpt>
      <trkpt lat="43.323709" lon="-8.833001">
        <ele>46.545</ele>
        <time>2019-06-21T11:46:03Z</time>
      </trkpt>
      <trkpt lat="43.323829" lon="-8.833055">
        <ele>47.039</ele>
        <time>2019-06-21T11:46:04Z</time>
      </trkpt>
      <trkpt lat="43.323947" lon="-8.833079">
        <ele>47.031</ele>
        <time>2019-06-21T11:46:05Z</time>
      </trkpt>
      <trkpt lat="43.324078" lon="-8.833090">
        <ele>46.613</ele>
        <time>2019-06-21T11:46:06Z</time>
      </trkpt>
      <trkpt lat="43.324197" lon="-8.833091">
        <ele>46.430</ele>
        <time>2019-06-21T11:46:07Z</time>
      </trkpt>
      <trkpt lat="43.324340" lon="-8.833079">
        <ele>46.886</ele>
        <time>2019-06-21T11:46:08Z</time>
      </trkpt>
      <trkpt lat="43.324466" lon="-8.833071">
        <ele>47.380</ele>
        <time>2019-06-21T11:46:09Z</time>
      </trkpt>
      <trkpt lat="43.324580" lon="-8.833063">
        <ele>48.082</ele>
        <time>2019-06-21T11:46:10Z</time>
      </trkpt>
      <trkpt lat="43.324692" lon="-8.833067">
        <ele>48.852</ele>
        <time>2019-06-21T11:46:11Z</time>
      </trkpt>
      <trkpt lat="43.324813" lon="-8.833087">
        <ele>49.453</ele>
        <time>2019-06-21T11:46:12Z</time>
      </trkpt>
      <trkpt lat="43.324933" lon="-8.833109">
        <ele>50.008</ele>
        <time>2019-06-21T11:46:13Z</time>
      </trkpt>
      <trkpt lat="43.325055" lon="-8.833128">
        <ele>50.108</ele>
        <time>2019-06-21T11:46:14Z</time>
      </trkpt>
      <trkpt lat="43.325180" lon="-8.833133">
        <ele>49.688</ele>
        <time>2019-06-21T11:46:15Z</time>
      </trkpt>
      <trkpt lat="43.325312" lon="-8.833134">
        <ele>49.422</ele>
        <time>2019-06-21T11:46:16Z</time>
      </trkpt>
      <trkpt lat="43.325452" lon="-8.833139">
        <ele>50.164</ele>
        <time>2019-06-21T11:46:17Z</time>
      </trkpt>
      <trkpt lat="43.325581" lon="-8.833130">
        <ele>50.766</ele>
        <time>2019-06-21T11:46:18Z</time>
      </trkpt>
      <trkpt lat="43.325742" lon="-8.833140">
        <ele>51.523</ele>
        <time>2019-06-21T11:46:19Z</time>
      </trkpt>
      <trkpt lat="43.325892" lon="-8.833130">
        <ele>52.139</ele>
        <time>2019-06-21T11:46:20Z</time>
      </trkpt>
      <trkpt lat="43.326037" lon="-8.833125">
        <ele>52.723</ele>
        <time>2019-06-21T11:46:21Z</time>
      </trkpt>
      <trkpt lat="43.326181" lon="-8.833082">
        <ele>52.445</ele>
        <time>2019-06-21T11:46:22Z</time>
      </trkpt>
      <trkpt lat="43.326327" lon="-8.833028">
        <ele>51.584</ele>
        <time>2019-06-21T11:46:23Z</time>
      </trkpt>
      <trkpt lat="43.326480" lon="-8.832947">
        <ele>50.707</ele>
        <time>2019-06-21T11:46:24Z</time>
      </trkpt>
      <trkpt lat="43.326644" lon="-8.832867">
        <ele>50.417</ele>
        <time>2019-06-21T11:46:25Z</time>
      </trkpt>
      <trkpt lat="43.326799" lon="-8.832785">
        <ele>51.008</ele>
        <time>2019-06-21T11:46:26Z</time>
      </trkpt>
      <trkpt lat="43.326946" lon="-8.832703">
        <ele>51.971</ele>
        <time>2019-06-21T11:46:27Z</time>
      </trkpt>
      <trkpt lat="43.327081" lon="-8.832625">
        <ele>52.395</ele>
        <time>2019-06-21T11:46:28Z</time>
      </trkpt>
      <trkpt lat="43.327211" lon="-8.832543">
        <ele>52.577</ele>
        <time>2019-06-21T11:46:29Z</time>
      </trkpt>
      <trkpt lat="43.327337" lon="-8.832439">
        <ele>53.139</ele>
        <time>2019-06-21T11:46:30Z</time>
      </trkpt>
      <trkpt lat="43.327457" lon="-8.832316">
        <ele>54.096</ele>
        <time>2019-06-21T11:46:31Z</time>
      </trkpt>
      <trkpt lat="43.327576" lon="-8.832174">
        <ele>55.192</ele>
        <time>2019-06-21T11:46:32Z</time>
      </trkpt>
      <trkpt lat="43.327673" lon="-8.832018">
        <ele>55.186</ele>
        <time>2019-06-21T11:46:33Z</time>
      </trkpt>
      <trkpt lat="43.327769" lon="-8.831879">
        <ele>55.168</ele>
        <time>2019-06-21T11:46:34Z</time>
      </trkpt>
      <trkpt lat="43.327859" lon="-8.831749">
        <ele>55.411</ele>
        <time>2019-06-21T11:46:35Z</time>
      </trkpt>
      <trkpt lat="43.327955" lon="-8.831624">
        <ele>55.621</ele>
        <time>2019-06-21T11:46:36Z</time>
      </trkpt>
      <trkpt lat="43.328060" lon="-8.831509">
        <ele>55.803</ele>
        <time>2019-06-21T11:46:37Z</time>
      </trkpt>
      <trkpt lat="43.328175" lon="-8.831410">
        <ele>56.008</ele>
        <time>2019-06-21T11:46:38Z</time>
      </trkpt>
      <trkpt lat="43.328298" lon="-8.831338">
        <ele>56.974</ele>
        <time>2019-06-21T11:46:39Z</time>
      </trkpt>
      <trkpt lat="43.328434" lon="-8.831284">
        <ele>58.318</ele>
        <time>2019-06-21T11:46:40Z</time>
      </trkpt>
      <trkpt lat="43.328578" lon="-8.831249">
        <ele>60.070</ele>
        <time>2019-06-21T11:46:41Z</time>
      </trkpt>
      <trkpt lat="43.328727" lon="-8.831209">
        <ele>61.382</ele>
        <time>2019-06-21T11:46:42Z</time>
      </trkpt>
      <trkpt lat="43.328877" lon="-8.831173">
        <ele>62.519</ele>
        <time>2019-06-21T11:46:43Z</time>
      </trkpt>
      <trkpt lat="43.329015" lon="-8.831167">
        <ele>62.865</ele>
        <time>2019-06-21T11:46:44Z</time>
      </trkpt>
      <trkpt lat="43.329161" lon="-8.831157">
        <ele>62.899</ele>
        <time>2019-06-21T11:46:45Z</time>
      </trkpt>
      <trkpt lat="43.329302" lon="-8.831147">
        <ele>62.291</ele>
        <time>2019-06-21T11:46:46Z</time>
      </trkpt>
      <trkpt lat="43.329460" lon="-8.831183">
        <ele>62.379</ele>
        <time>2019-06-21T11:46:47Z</time>
      </trkpt>
      <trkpt lat="43.329622" lon="-8.831233">
        <ele>61.405</ele>
        <time>2019-06-21T11:46:48Z</time>
      </trkpt>
      <trkpt lat="43.329784" lon="-8.831289">
        <ele>61.225</ele>
        <time>2019-06-21T11:46:49Z</time>
      </trkpt>
      <trkpt lat="43.329944" lon="-8.831361">
        <ele>62.408</ele>
        <time>2019-06-21T11:46:50Z</time>
      </trkpt>
      <trkpt lat="43.330115" lon="-8.831429">
        <ele>64.580</ele>
        <time>2019-06-21T11:46:51Z</time>
      </trkpt>
      <trkpt lat="43.330280" lon="-8.831492">
        <ele>66.634</ele>
        <time>2019-06-21T11:46:52Z</time>
      </trkpt>
      <trkpt lat="43.330440" lon="-8.831556">
        <ele>68.866</ele>
        <time>2019-06-21T11:46:53Z</time>
      </trkpt>
      <trkpt lat="43.330610" lon="-8.831616">
        <ele>70.998</ele>
        <time>2019-06-21T11:46:54Z</time>
      </trkpt>
      <trkpt lat="43.330780" lon="-8.831671">
        <ele>72.965</ele>
        <time>2019-06-21T11:46:55Z</time>
      </trkpt>
      <trkpt lat="43.330944" lon="-8.831722">
        <ele>74.021</ele>
        <time>2019-06-21T11:46:56Z</time>
      </trkpt>
      <trkpt lat="43.331115" lon="-8.831771">
        <ele>75.435</ele>
        <time>2019-06-21T11:46:57Z</time>
      </trkpt>
      <trkpt lat="43.331294" lon="-8.831812">
        <ele>78.067</ele>
        <time>2019-06-21T11:46:58Z</time>
      </trkpt>
      <trkpt lat="43.331469" lon="-8.831838">
        <ele>79.778</ele>
        <time>2019-06-21T11:46:59Z</time>
      </trkpt>
      <trkpt lat="43.331640" lon="-8.831850">
        <ele>80.533</ele>
        <time>2019-06-21T11:47:00Z</time>
      </trkpt>
      <trkpt lat="43.331823" lon="-8.831848">
        <ele>80.926</ele>
        <time>2019-06-21T11:47:01Z</time>
      </trkpt>
      <trkpt lat="43.332000" lon="-8.831830">
        <ele>81.008</ele>
        <time>2019-06-21T11:47:02Z</time>
      </trkpt>
      <trkpt lat="43.332171" lon="-8.831802">
        <ele>81.870</ele>
        <time>2019-06-21T11:47:03Z</time>
      </trkpt>
      <trkpt lat="43.332337" lon="-8.831774">
        <ele>83.134</ele>
        <time>2019-06-21T11:47:04Z</time>
      </trkpt>
      <trkpt lat="43.332499" lon="-8.831726">
        <ele>83.936</ele>
        <time>2019-06-21T11:47:05Z</time>
      </trkpt>
      <trkpt lat="43.332668" lon="-8.831684">
        <ele>84.448</ele>
        <time>2019-06-21T11:47:06Z</time>
      </trkpt>
      <trkpt lat="43.332847" lon="-8.831640">
        <ele>86.055</ele>
        <time>2019-06-21T11:47:07Z</time>
      </trkpt>
      <trkpt lat="43.333017" lon="-8.831597">
        <ele>88.841</ele>
        <time>2019-06-21T11:47:08Z</time>
      </trkpt>
      <trkpt lat="43.333183" lon="-8.831542">
        <ele>90.095</ele>
        <time>2019-06-21T11:47:09Z</time>
      </trkpt>
      <trkpt lat="43.333352" lon="-8.831490">
        <ele>91.257</ele>
        <time>2019-06-21T11:47:10Z</time>
      </trkpt>
      <trkpt lat="43.333521" lon="-8.831436">
        <ele>91.616</ele>
        <time>2019-06-21T11:47:11Z</time>
      </trkpt>
      <trkpt lat="43.333689" lon="-8.831386">
        <ele>92.376</ele>
        <time>2019-06-21T11:47:12Z</time>
      </trkpt>
      <trkpt lat="43.333837" lon="-8.831345">
        <ele>93.413</ele>
        <time>2019-06-21T11:47:13Z</time>
      </trkpt>
      <trkpt lat="43.333988" lon="-8.831307">
        <ele>94.308</ele>
        <time>2019-06-21T11:47:14Z</time>
      </trkpt>
      <trkpt lat="43.334124" lon="-8.831273">
        <ele>95.234</ele>
        <time>2019-06-21T11:47:15Z</time>
      </trkpt>
      <trkpt lat="43.334250" lon="-8.831239">
        <ele>95.558</ele>
        <time>2019-06-21T11:47:16Z</time>
      </trkpt>
      <trkpt lat="43.334371" lon="-8.831214">
        <ele>95.910</ele>
        <time>2019-06-21T11:47:17Z</time>
      </trkpt>
      <trkpt lat="43.334483" lon="-8.831196">
        <ele>96.252</ele>
        <time>2019-06-21T11:47:18Z</time>
      </trkpt>
      <trkpt lat="43.334594" lon="-8.831191">
        <ele>96.499</ele>
        <time>2019-06-21T11:47:19Z</time>
      </trkpt>
      <trkpt lat="43.334708" lon="-8.831211">
        <ele>97.565</ele>
        <time>2019-06-21T11:47:20Z</time>
      </trkpt>
      <trkpt lat="43.334820" lon="-8.831243">
        <ele>98.039</ele>
        <time>2019-06-21T11:47:21Z</time>
      </trkpt>
      <trkpt lat="43.334936" lon="-8.831303">
        <ele>99.441</ele>
        <time>2019-06-21T11:47:22Z</time>
      </trkpt>
      <trkpt lat="43.335049" lon="-8.831368">
        <ele>101.121</ele>
        <time>2019-06-21T11:47:23Z</time>
      </trkpt>
      <trkpt lat="43.335163" lon="-8.831432">
        <ele>102.641</ele>
        <time>2019-06-21T11:47:24Z</time>
      </trkpt>
      <trkpt lat="43.335295" lon="-8.831491">
        <ele>103.405</ele>
        <time>2019-06-21T11:47:25Z</time>
      </trkpt>
      <trkpt lat="43.335416" lon="-8.831554">
        <ele>103.808</ele>
        <time>2019-06-21T11:47:26Z</time>
      </trkpt>
      <trkpt lat="43.335528" lon="-8.831605">
        <ele>104.255</ele>
        <time>2019-06-21T11:47:27Z</time>
      </trkpt>
      <trkpt lat="43.335660" lon="-8.831651">
        <ele>104.429</ele>
        <time>2019-06-21T11:47:28Z</time>
      </trkpt>
      <trkpt lat="43.335778" lon="-8.831712">
        <ele>104.551</ele>
        <time>2019-06-21T11:47:29Z</time>
      </trkpt>
      <trkpt lat="43.335884" lon="-8.831757">
        <ele>104.883</ele>
        <time>2019-06-21T11:47:30Z</time>
      </trkpt>
      <trkpt lat="43.335977" lon="-8.831806">
        <ele>105.560</ele>
        <time>2019-06-21T11:47:31Z</time>
      </trkpt>
      <trkpt lat="43.336067" lon="-8.831854">
        <ele>106.286</ele>
        <time>2019-06-21T11:47:32Z</time>
      </trkpt>
      <trkpt lat="43.336135" lon="-8.831888">
        <ele>106.780</ele>
        <time>2019-06-21T11:47:33Z</time>
      </trkpt>
      <trkpt lat="43.336205" lon="-8.831926">
        <ele>107.282</ele>
        <time>2019-06-21T11:47:34Z</time>
      </trkpt>
      <trkpt lat="43.336255" lon="-8.831938">
        <ele>107.345</ele>
        <time>2019-06-21T11:47:35Z</time>
      </trkpt>
      <trkpt lat="43.336312" lon="-8.831959">
        <ele>107.447</ele>
        <time>2019-06-21T11:47:36Z</time>
      </trkpt>
      <trkpt lat="43.336357" lon="-8.831974">
        <ele>107.411</ele>
        <time>2019-06-21T11:47:37Z</time>
      </trkpt>
      <trkpt lat="43.336427" lon="-8.831994">
        <ele>106.908</ele>
        <time>2019-06-21T11:47:39Z</time>
      </trkpt>
      <trkpt lat="43.336465" lon="-8.832036">
        <ele>107.097</ele>
        <time>2019-06-21T11:48:23Z</time>
      </trkpt>
      <trkpt lat="43.336530" lon="-8.832069">
        <ele>106.781</ele>
        <time>2019-06-21T11:48:24Z</time>
      </trkpt>
      <trkpt lat="43.336609" lon="-8.832110">
        <ele>106.733</ele>
        <time>2019-06-21T11:48:25Z</time>
      </trkpt>
      <trkpt lat="43.336725" lon="-8.832146">
        <ele>106.025</ele>
        <time>2019-06-21T11:48:26Z</time>
      </trkpt>
      <trkpt lat="43.336818" lon="-8.832171">
        <ele>104.912</ele>
        <time>2019-06-21T11:48:27Z</time>
      </trkpt>
      <trkpt lat="43.336909" lon="-8.832201">
        <ele>104.098</ele>
        <time>2019-06-21T11:48:28Z</time>
      </trkpt>
      <trkpt lat="43.337001" lon="-8.832211">
        <ele>102.762</ele>
        <time>2019-06-21T11:48:29Z</time>
      </trkpt>
      <trkpt lat="43.337096" lon="-8.832222">
        <ele>101.344</ele>
        <time>2019-06-21T11:48:30Z</time>
      </trkpt>
      <trkpt lat="43.337197" lon="-8.832243">
        <ele>100.198</ele>
        <time>2019-06-21T11:48:31Z</time>
      </trkpt>
      <trkpt lat="43.337304" lon="-8.832250">
        <ele>99.315</ele>
        <time>2019-06-21T11:48:32Z</time>
      </trkpt>
      <trkpt lat="43.337414" lon="-8.832255">
        <ele>98.626</ele>
        <time>2019-06-21T11:48:33Z</time>
      </trkpt>
      <trkpt lat="43.337510" lon="-8.832253">
        <ele>97.808</ele>
        <time>2019-06-21T11:48:34Z</time>
      </trkpt>
      <trkpt lat="43.337614" lon="-8.832253">
        <ele>97.052</ele>
        <time>2019-06-21T11:48:35Z</time>
      </trkpt>
      <trkpt lat="43.337705" lon="-8.832259">
        <ele>96.546</ele>
        <time>2019-06-21T11:48:36Z</time>
      </trkpt>
      <trkpt lat="43.337799" lon="-8.832259">
        <ele>95.818</ele>
        <time>2019-06-21T11:48:37Z</time>
      </trkpt>
      <trkpt lat="43.337897" lon="-8.832280">
        <ele>95.680</ele>
        <time>2019-06-21T11:48:38Z</time>
      </trkpt>
      <trkpt lat="43.337988" lon="-8.832295">
        <ele>95.347</ele>
        <time>2019-06-21T11:48:39Z</time>
      </trkpt>
      <trkpt lat="43.338088" lon="-8.832323">
        <ele>95.333</ele>
        <time>2019-06-21T11:48:40Z</time>
      </trkpt>
      <trkpt lat="43.338185" lon="-8.832356">
        <ele>95.417</ele>
        <time>2019-06-21T11:48:41Z</time>
      </trkpt>
      <trkpt lat="43.338283" lon="-8.832395">
        <ele>95.739</ele>
        <time>2019-06-21T11:48:42Z</time>
      </trkpt>
      <trkpt lat="43.338373" lon="-8.832430">
        <ele>95.588</ele>
        <time>2019-06-21T11:48:43Z</time>
      </trkpt>
      <trkpt lat="43.338469" lon="-8.832458">
        <ele>94.524</ele>
        <time>2019-06-21T11:48:44Z</time>
      </trkpt>
      <trkpt lat="43.338552" lon="-8.832482">
        <ele>93.626</ele>
        <time>2019-06-21T11:48:45Z</time>
      </trkpt>
      <trkpt lat="43.338629" lon="-8.832502">
        <ele>92.708</ele>
        <time>2019-06-21T11:48:46Z</time>
      </trkpt>
      <trkpt lat="43.338685" lon="-8.832513">
        <ele>92.061</ele>
        <time>2019-06-21T11:48:47Z</time>
      </trkpt>
      <trkpt lat="43.338729" lon="-8.832528">
        <ele>91.575</ele>
        <time>2019-06-21T11:48:48Z</time>
      </trkpt>
      <trkpt lat="43.338785" lon="-8.832555">
        <ele>91.277</ele>
        <time>2019-06-21T11:48:50Z</time>
      </trkpt>
      <trkpt lat="43.338745" lon="-8.832591">
        <ele>92.799</ele>
        <time>2019-06-21T11:49:16Z</time>
      </trkpt>
      <trkpt lat="43.338799" lon="-8.832608">
        <ele>92.226</ele>
        <time>2019-06-21T11:49:23Z</time>
      </trkpt>
      <trkpt lat="43.338863" lon="-8.832613">
        <ele>91.352</ele>
        <time>2019-06-21T11:49:24Z</time>
      </trkpt>
      <trkpt lat="43.338913" lon="-8.832637">
        <ele>91.396</ele>
        <time>2019-06-21T11:49:25Z</time>
      </trkpt>
      <trkpt lat="43.338967" lon="-8.832641">
        <ele>91.078</ele>
        <time>2019-06-21T11:49:26Z</time>
      </trkpt>
      <trkpt lat="43.339041" lon="-8.832615">
        <ele>89.879</ele>
        <time>2019-06-21T11:49:27Z</time>
      </trkpt>
      <trkpt lat="43.339102" lon="-8.832584">
        <ele>88.605</ele>
        <time>2019-06-21T11:49:28Z</time>
      </trkpt>
      <trkpt lat="43.339157" lon="-8.832548">
        <ele>87.325</ele>
        <time>2019-06-21T11:49:29Z</time>
      </trkpt>
      <trkpt lat="43.339212" lon="-8.832508">
        <ele>86.408</ele>
        <time>2019-06-21T11:49:30Z</time>
      </trkpt>
      <trkpt lat="43.339285" lon="-8.832425">
        <ele>85.230</ele>
        <time>2019-06-21T11:49:32Z</time>
      </trkpt>
      <trkpt lat="43.339357" lon="-8.832336">
        <ele>84.174</ele>
        <time>2019-06-21T11:49:34Z</time>
      </trkpt>
      <trkpt lat="43.339409" lon="-8.832273">
        <ele>83.526</ele>
        <time>2019-06-21T11:49:36Z</time>
      </trkpt>
      <trkpt lat="43.339468" lon="-8.832202">
        <ele>82.768</ele>
        <time>2019-06-21T11:49:38Z</time>
      </trkpt>
      <trkpt lat="43.339513" lon="-8.832148">
        <ele>81.995</ele>
        <time>2019-06-21T11:49:40Z</time>
      </trkpt>
      <trkpt lat="43.339588" lon="-8.832128">
        <ele>81.611</ele>
        <time>2019-06-21T11:49:42Z</time>
      </trkpt>
      <trkpt lat="43.339652" lon="-8.832100">
        <ele>81.285</ele>
        <time>2019-06-21T11:49:44Z</time>
      </trkpt>
      <trkpt lat="43.339700" lon="-8.832083">
        <ele>81.057</ele>
        <time>2019-06-21T11:49:46Z</time>
      </trkpt>
      <trkpt lat="43.339749" lon="-8.832057">
        <ele>80.435</ele>
        <time>2019-06-21T11:49:49Z</time>
      </trkpt>
      <trkpt lat="43.339797" lon="-8.832068">
        <ele>80.286</ele>
        <time>2019-06-21T11:49:52Z</time>
      </trkpt>
      <trkpt lat="43.339756" lon="-8.832141">
        <ele>81.614</ele>
        <time>2019-06-21T11:49:59Z</time>
      </trkpt>
      <trkpt lat="43.339672" lon="-8.832115">
        <ele>81.508</ele>
        <time>2019-06-21T11:50:01Z</time>
      </trkpt>
      <trkpt lat="43.339592" lon="-8.832074">
        <ele>80.986</ele>
        <time>2019-06-21T11:50:03Z</time>
      </trkpt>
      <trkpt lat="43.339541" lon="-8.832077">
        <ele>80.990</ele>
        <time>2019-06-21T11:50:06Z</time>
      </trkpt>
      <trkpt lat="43.339470" lon="-8.832089">
        <ele>81.142</ele>
        <time>2019-06-21T11:50:16Z</time>
      </trkpt>
      <trkpt lat="43.339420" lon="-8.832108">
        <ele>81.144</ele>
        <time>2019-06-21T11:50:42Z</time>
      </trkpt>
      <trkpt lat="43.339447" lon="-8.832159">
        <ele>82.151</ele>
        <time>2019-06-21T11:51:40Z</time>
      </trkpt>
      <trkpt lat="43.339404" lon="-8.832120">
        <ele>81.287</ele>
        <time>2019-06-21T11:52:30Z</time>
      </trkpt>
      <trkpt lat="43.339440" lon="-8.832160">
        <ele>82.191</ele>
        <time>2019-06-21T12:02:03Z</time>
      </trkpt>
      <trkpt lat="43.339425" lon="-8.832219">
        <ele>82.813</ele>
        <time>2019-06-21T12:02:52Z</time>
      </trkpt>
      <trkpt lat="43.339389" lon="-8.832277">
        <ele>83.422</ele>
        <time>2019-06-21T12:02:53Z</time>
      </trkpt>
      <trkpt lat="43.339349" lon="-8.832331">
        <ele>84.062</ele>
        <time>2019-06-21T12:02:54Z</time>
      </trkpt>
      <trkpt lat="43.339311" lon="-8.832381">
        <ele>84.608</ele>
        <time>2019-06-21T12:02:55Z</time>
      </trkpt>
      <trkpt lat="43.339266" lon="-8.832440">
        <ele>85.408</ele>
        <time>2019-06-21T12:02:56Z</time>
      </trkpt>
      <trkpt lat="43.339198" lon="-8.832511">
        <ele>86.425</ele>
        <time>2019-06-21T12:02:57Z</time>
      </trkpt>
      <trkpt lat="43.339132" lon="-8.832554">
        <ele>87.619</ele>
        <time>2019-06-21T12:02:58Z</time>
      </trkpt>
      <trkpt lat="43.339053" lon="-8.832589">
        <ele>89.151</ele>
        <time>2019-06-21T12:02:59Z</time>
      </trkpt>
      <trkpt lat="43.338977" lon="-8.832616">
        <ele>90.363</ele>
        <time>2019-06-21T12:03:00Z</time>
      </trkpt>
      <trkpt lat="43.338899" lon="-8.832622">
        <ele>91.070</ele>
        <time>2019-06-21T12:03:01Z</time>
      </trkpt>
      <trkpt lat="43.338840" lon="-8.832591">
        <ele>91.186</ele>
        <time>2019-06-21T12:03:02Z</time>
      </trkpt>
      <trkpt lat="43.338771" lon="-8.832568">
        <ele>91.750</ele>
        <time>2019-06-21T12:03:03Z</time>
      </trkpt>
      <trkpt lat="43.338691" lon="-8.832545">
        <ele>92.662</ele>
        <time>2019-06-21T12:03:04Z</time>
      </trkpt>
      <trkpt lat="43.338615" lon="-8.832527">
        <ele>93.552</ele>
        <time>2019-06-21T12:03:05Z</time>
      </trkpt>
      <trkpt lat="43.338525" lon="-8.832498">
        <ele>94.553</ele>
        <time>2019-06-21T12:03:06Z</time>
      </trkpt>
      <trkpt lat="43.338445" lon="-8.832470">
        <ele>95.208</ele>
        <time>2019-06-21T12:03:07Z</time>
      </trkpt>
      <trkpt lat="43.338369" lon="-8.832427">
        <ele>95.508</ele>
        <time>2019-06-21T12:03:08Z</time>
      </trkpt>
      <trkpt lat="43.338289" lon="-8.832384">
        <ele>95.438</ele>
        <time>2019-06-21T12:03:09Z</time>
      </trkpt>
      <trkpt lat="43.338198" lon="-8.832336">
        <ele>94.822</ele>
        <time>2019-06-21T12:03:10Z</time>
      </trkpt>
      <trkpt lat="43.338099" lon="-8.832298">
        <ele>94.634</ele>
        <time>2019-06-21T12:03:11Z</time>
      </trkpt>
      <trkpt lat="43.338000" lon="-8.832277">
        <ele>94.896</ele>
        <time>2019-06-21T12:03:12Z</time>
      </trkpt>
      <trkpt lat="43.337898" lon="-8.832271">
        <ele>95.463</ele>
        <time>2019-06-21T12:03:13Z</time>
      </trkpt>
      <trkpt lat="43.337788" lon="-8.832264">
        <ele>96.069</ele>
        <time>2019-06-21T12:03:14Z</time>
      </trkpt>
      <trkpt lat="43.337669" lon="-8.832267">
        <ele>97.083</ele>
        <time>2019-06-21T12:03:15Z</time>
      </trkpt>
      <trkpt lat="43.337552" lon="-8.832261">
        <ele>97.725</ele>
        <time>2019-06-21T12:03:16Z</time>
      </trkpt>
      <trkpt lat="43.337440" lon="-8.832245">
        <ele>98.192</ele>
        <time>2019-06-21T12:03:17Z</time>
      </trkpt>
      <trkpt lat="43.337322" lon="-8.832224">
        <ele>98.373</ele>
        <time>2019-06-21T12:03:18Z</time>
      </trkpt>
      <trkpt lat="43.337204" lon="-8.832204">
        <ele>98.920</ele>
        <time>2019-06-21T12:03:19Z</time>
      </trkpt>
      <trkpt lat="43.337075" lon="-8.832194">
        <ele>100.908</ele>
        <time>2019-06-21T12:03:20Z</time>
      </trkpt>
      <trkpt lat="43.336946" lon="-8.832178">
        <ele>102.732</ele>
        <time>2019-06-21T12:03:21Z</time>
      </trkpt>
      <trkpt lat="43.336823" lon="-8.832142">
        <ele>104.086</ele>
        <time>2019-06-21T12:03:22Z</time>
      </trkpt>
      <trkpt lat="43.336698" lon="-8.832102">
        <ele>105.468</ele>
        <time>2019-06-21T12:03:23Z</time>
      </trkpt>
      <trkpt lat="43.336589" lon="-8.832055">
        <ele>105.760</ele>
        <time>2019-06-21T12:03:24Z</time>
      </trkpt>
      <trkpt lat="43.336480" lon="-8.832007">
        <ele>106.327</ele>
        <time>2019-06-21T12:03:25Z</time>
      </trkpt>
      <trkpt lat="43.336377" lon="-8.831963">
        <ele>107.213</ele>
        <time>2019-06-21T12:03:26Z</time>
      </trkpt>
      <trkpt lat="43.336295" lon="-8.831934">
        <ele>107.197</ele>
        <time>2019-06-21T12:03:27Z</time>
      </trkpt>
      <trkpt lat="43.336221" lon="-8.831907">
        <ele>106.729</ele>
        <time>2019-06-21T12:03:28Z</time>
      </trkpt>
      <trkpt lat="43.336139" lon="-8.831876">
        <ele>106.449</ele>
        <time>2019-06-21T12:03:29Z</time>
      </trkpt>
      <trkpt lat="43.336057" lon="-8.831833">
        <ele>105.802</ele>
        <time>2019-06-21T12:03:30Z</time>
      </trkpt>
      <trkpt lat="43.335948" lon="-8.831785">
        <ele>105.122</ele>
        <time>2019-06-21T12:03:31Z</time>
      </trkpt>
      <trkpt lat="43.335835" lon="-8.831728">
        <ele>104.308</ele>
        <time>2019-06-21T12:03:32Z</time>
      </trkpt>
      <trkpt lat="43.335716" lon="-8.831676">
        <ele>104.447</ele>
        <time>2019-06-21T12:03:33Z</time>
      </trkpt>
      <trkpt lat="43.335599" lon="-8.831621">
        <ele>104.111</ele>
        <time>2019-06-21T12:03:34Z</time>
      </trkpt>
      <trkpt lat="43.335486" lon="-8.831563">
        <ele>103.393</ele>
        <time>2019-06-21T12:03:35Z</time>
      </trkpt>
      <trkpt lat="43.335378" lon="-8.831508">
        <ele>102.915</ele>
        <time>2019-06-21T12:03:36Z</time>
      </trkpt>
      <trkpt lat="43.335277" lon="-8.831448">
        <ele>102.572</ele>
        <time>2019-06-21T12:03:37Z</time>
      </trkpt>
      <trkpt lat="43.335179" lon="-8.831394">
        <ele>101.588</ele>
        <time>2019-06-21T12:03:38Z</time>
      </trkpt>
      <trkpt lat="43.335088" lon="-8.831347">
        <ele>100.282</ele>
        <time>2019-06-21T12:03:39Z</time>
      </trkpt>
      <trkpt lat="43.334992" lon="-8.831302">
        <ele>98.974</ele>
        <time>2019-06-21T12:03:40Z</time>
      </trkpt>
      <trkpt lat="43.334899" lon="-8.831261">
        <ele>98.134</ele>
        <time>2019-06-21T12:03:41Z</time>
      </trkpt>
      <trkpt lat="43.334806" lon="-8.831227">
        <ele>97.655</ele>
        <time>2019-06-21T12:03:42Z</time>
      </trkpt>
      <trkpt lat="43.334697" lon="-8.831211">
        <ele>97.510</ele>
        <time>2019-06-21T12:03:43Z</time>
      </trkpt>
      <trkpt lat="43.334592" lon="-8.831193">
        <ele>96.508</ele>
        <time>2019-06-21T12:03:44Z</time>
      </trkpt>
      <trkpt lat="43.334483" lon="-8.831196">
        <ele>96.296</ele>
        <time>2019-06-21T12:03:45Z</time>
      </trkpt>
      <trkpt lat="43.334343" lon="-8.831215">
        <ele>95.610</ele>
        <time>2019-06-21T12:03:46Z</time>
      </trkpt>
      <trkpt lat="43.334201" lon="-8.831248">
        <ele>95.342</ele>
        <time>2019-06-21T12:03:47Z</time>
      </trkpt>
      <trkpt lat="43.334059" lon="-8.831277">
        <ele>94.374</ele>
        <time>2019-06-21T12:03:48Z</time>
      </trkpt>
      <trkpt lat="43.333911" lon="-8.831318">
        <ele>93.541</ele>
        <time>2019-06-21T12:03:49Z</time>
      </trkpt>
      <trkpt lat="43.333770" lon="-8.831362">
        <ele>92.967</ele>
        <time>2019-06-21T12:03:50Z</time>
      </trkpt>
      <trkpt lat="43.333608" lon="-8.831408">
        <ele>91.731</ele>
        <time>2019-06-21T12:03:51Z</time>
      </trkpt>
      <trkpt lat="43.333455" lon="-8.831453">
        <ele>91.433</ele>
        <time>2019-06-21T12:03:52Z</time>
      </trkpt>
      <trkpt lat="43.333294" lon="-8.831497">
        <ele>90.592</ele>
        <time>2019-06-21T12:03:53Z</time>
      </trkpt>
      <trkpt lat="43.333143" lon="-8.831537">
        <ele>89.273</ele>
        <time>2019-06-21T12:03:54Z</time>
      </trkpt>
      <trkpt lat="43.332979" lon="-8.831583">
        <ele>87.420</ele>
        <time>2019-06-21T12:03:55Z</time>
      </trkpt>
      <trkpt lat="43.332823" lon="-8.831625">
        <ele>84.908</ele>
        <time>2019-06-21T12:03:56Z</time>
      </trkpt>
      <trkpt lat="43.332659" lon="-8.831668">
        <ele>83.812</ele>
        <time>2019-06-21T12:03:57Z</time>
      </trkpt>
      <trkpt lat="43.332503" lon="-8.831703">
        <ele>83.266</ele>
        <time>2019-06-21T12:03:58Z</time>
      </trkpt>
      <trkpt lat="43.332342" lon="-8.831732">
        <ele>81.878</ele>
        <time>2019-06-21T12:03:59Z</time>
      </trkpt>
      <trkpt lat="43.332188" lon="-8.831774">
        <ele>81.120</ele>
        <time>2019-06-21T12:04:00Z</time>
      </trkpt>
      <trkpt lat="43.332030" lon="-8.831798">
        <ele>80.147</ele>
        <time>2019-06-21T12:04:01Z</time>
      </trkpt>
      <trkpt lat="43.331871" lon="-8.831823">
        <ele>80.093</ele>
        <time>2019-06-21T12:04:02Z</time>
      </trkpt>
      <trkpt lat="43.331704" lon="-8.831815">
        <ele>79.497</ele>
        <time>2019-06-21T12:04:03Z</time>
      </trkpt>
      <trkpt lat="43.331539" lon="-8.831810">
        <ele>78.969</ele>
        <time>2019-06-21T12:04:04Z</time>
      </trkpt>
      <trkpt lat="43.331389" lon="-8.831799">
        <ele>78.318</ele>
        <time>2019-06-21T12:04:05Z</time>
      </trkpt>
      <trkpt lat="43.331231" lon="-8.831781">
        <ele>76.698</ele>
        <time>2019-06-21T12:04:06Z</time>
      </trkpt>
      <trkpt lat="43.331070" lon="-8.831741">
        <ele>74.417</ele>
        <time>2019-06-21T12:04:07Z</time>
      </trkpt>
      <trkpt lat="43.330910" lon="-8.831698">
        <ele>73.508</ele>
        <time>2019-06-21T12:04:08Z</time>
      </trkpt>
      <trkpt lat="43.330755" lon="-8.831636">
        <ele>71.974</ele>
        <time>2019-06-21T12:04:09Z</time>
      </trkpt>
      <trkpt lat="43.330596" lon="-8.831584">
        <ele>70.088</ele>
        <time>2019-06-21T12:04:10Z</time>
      </trkpt>
      <trkpt lat="43.330436" lon="-8.831546">
        <ele>68.560</ele>
        <time>2019-06-21T12:04:11Z</time>
      </trkpt>
      <trkpt lat="43.330287" lon="-8.831485">
        <ele>66.572</ele>
        <time>2019-06-21T12:04:12Z</time>
      </trkpt>
      <trkpt lat="43.330143" lon="-8.831432">
        <ele>64.779</ele>
        <time>2019-06-21T12:04:13Z</time>
      </trkpt>
      <trkpt lat="43.329999" lon="-8.831381">
        <ele>62.895</ele>
        <time>2019-06-21T12:04:14Z</time>
      </trkpt>
      <trkpt lat="43.329862" lon="-8.831318">
        <ele>61.659</ele>
        <time>2019-06-21T12:04:15Z</time>
      </trkpt>
      <trkpt lat="43.329731" lon="-8.831271">
        <ele>61.041</ele>
        <time>2019-06-21T12:04:16Z</time>
      </trkpt>
      <trkpt lat="43.329605" lon="-8.831232">
        <ele>61.683</ele>
        <time>2019-06-21T12:04:17Z</time>
      </trkpt>
      <trkpt lat="43.329476" lon="-8.831190">
        <ele>62.325</ele>
        <time>2019-06-21T12:04:18Z</time>
      </trkpt>
      <trkpt lat="43.329336" lon="-8.831154">
        <ele>62.317</ele>
        <time>2019-06-21T12:04:19Z</time>
      </trkpt>
      <trkpt lat="43.329186" lon="-8.831137">
        <ele>62.408</ele>
        <time>2019-06-21T12:04:20Z</time>
      </trkpt>
      <trkpt lat="43.329031" lon="-8.831143">
        <ele>62.591</ele>
        <time>2019-06-21T12:04:21Z</time>
      </trkpt>
      <trkpt lat="43.328873" lon="-8.831166">
        <ele>62.425</ele>
        <time>2019-06-21T12:04:22Z</time>
      </trkpt>
      <trkpt lat="43.328726" lon="-8.831194">
        <ele>61.127</ele>
        <time>2019-06-21T12:04:23Z</time>
      </trkpt>
      <trkpt lat="43.328577" lon="-8.831229">
        <ele>59.849</ele>
        <time>2019-06-21T12:04:24Z</time>
      </trkpt>
      <trkpt lat="43.328431" lon="-8.831271">
        <ele>58.156</ele>
        <time>2019-06-21T12:04:25Z</time>
      </trkpt>
      <trkpt lat="43.328297" lon="-8.831322">
        <ele>56.842</ele>
        <time>2019-06-21T12:04:26Z</time>
      </trkpt>
      <trkpt lat="43.328170" lon="-8.831386">
        <ele>55.676</ele>
        <time>2019-06-21T12:04:27Z</time>
      </trkpt>
      <trkpt lat="43.328048" lon="-8.831473">
        <ele>55.148</ele>
        <time>2019-06-21T12:04:28Z</time>
      </trkpt>
      <trkpt lat="43.327922" lon="-8.831593">
        <ele>54.782</ele>
        <time>2019-06-21T12:04:29Z</time>
      </trkpt>
      <trkpt lat="43.327810" lon="-8.831736">
        <ele>54.443</ele>
        <time>2019-06-21T12:04:30Z</time>
      </trkpt>
      <trkpt lat="43.327693" lon="-8.831895">
        <ele>53.917</ele>
        <time>2019-06-21T12:04:31Z</time>
      </trkpt>
      <trkpt lat="43.327567" lon="-8.832070">
        <ele>53.708</ele>
        <time>2019-06-21T12:04:32Z</time>
      </trkpt>
      <trkpt lat="43.327440" lon="-8.832239">
        <ele>53.141</ele>
        <time>2019-06-21T12:04:33Z</time>
      </trkpt>
      <trkpt lat="43.327307" lon="-8.832394">
        <ele>52.275</ele>
        <time>2019-06-21T12:04:34Z</time>
      </trkpt>
      <trkpt lat="43.327161" lon="-8.832520">
        <ele>51.617</ele>
        <time>2019-06-21T12:04:35Z</time>
      </trkpt>
      <trkpt lat="43.326998" lon="-8.832639">
        <ele>51.699</ele>
        <time>2019-06-21T12:04:36Z</time>
      </trkpt>
      <trkpt lat="43.326840" lon="-8.832741">
        <ele>51.016</ele>
        <time>2019-06-21T12:04:37Z</time>
      </trkpt>
      <trkpt lat="43.326679" lon="-8.832831">
        <ele>50.112</ele>
        <time>2019-06-21T12:04:38Z</time>
      </trkpt>
      <trkpt lat="43.326515" lon="-8.832917">
        <ele>50.496</ele>
        <time>2019-06-21T12:04:39Z</time>
      </trkpt>
      <trkpt lat="43.326371" lon="-8.833005">
        <ele>51.138</ele>
        <time>2019-06-21T12:04:40Z</time>
      </trkpt>
      <trkpt lat="43.326226" lon="-8.833074">
        <ele>52.399</ele>
        <time>2019-06-21T12:04:41Z</time>
      </trkpt>
      <trkpt lat="43.326076" lon="-8.833131">
        <ele>52.907</ele>
        <time>2019-06-21T12:04:42Z</time>
      </trkpt>
      <trkpt lat="43.325922" lon="-8.833155">
        <ele>52.527</ele>
        <time>2019-06-21T12:04:43Z</time>
      </trkpt>
      <trkpt lat="43.325764" lon="-8.833154">
        <ele>51.708</ele>
        <time>2019-06-21T12:04:44Z</time>
      </trkpt>
      <trkpt lat="43.325599" lon="-8.833151">
        <ele>50.922</ele>
        <time>2019-06-21T12:04:45Z</time>
      </trkpt>
      <trkpt lat="43.325440" lon="-8.833152">
        <ele>50.186</ele>
        <time>2019-06-21T12:04:46Z</time>
      </trkpt>
      <trkpt lat="43.325289" lon="-8.833151">
        <ele>49.438</ele>
        <time>2019-06-21T12:04:47Z</time>
      </trkpt>
      <trkpt lat="43.325141" lon="-8.833152">
        <ele>49.890</ele>
        <time>2019-06-21T12:04:48Z</time>
      </trkpt>
      <trkpt lat="43.325003" lon="-8.833143">
        <ele>50.347</ele>
        <time>2019-06-21T12:04:49Z</time>
      </trkpt>
      <trkpt lat="43.324869" lon="-8.833132">
        <ele>49.853</ele>
        <time>2019-06-21T12:04:50Z</time>
      </trkpt>
      <trkpt lat="43.324748" lon="-8.833119">
        <ele>49.337</ele>
        <time>2019-06-21T12:04:51Z</time>
      </trkpt>
      <trkpt lat="43.324611" lon="-8.833109">
        <ele>48.569</ele>
        <time>2019-06-21T12:04:52Z</time>
      </trkpt>
      <trkpt lat="43.324474" lon="-8.833101">
        <ele>47.589</ele>
        <time>2019-06-21T12:04:53Z</time>
      </trkpt>
      <trkpt lat="43.324335" lon="-8.833109">
        <ele>47.006</ele>
        <time>2019-06-21T12:04:54Z</time>
      </trkpt>
      <trkpt lat="43.324203" lon="-8.833121">
        <ele>46.626</ele>
        <time>2019-06-21T12:04:55Z</time>
      </trkpt>
      <trkpt lat="43.324077" lon="-8.833119">
        <ele>46.908</ele>
        <time>2019-06-21T12:04:56Z</time>
      </trkpt>
      <trkpt lat="43.323959" lon="-8.833112">
        <ele>47.351</ele>
        <time>2019-06-21T12:04:57Z</time>
      </trkpt>
      <trkpt lat="43.323828" lon="-8.833093">
        <ele>47.445</ele>
        <time>2019-06-21T12:04:58Z</time>
      </trkpt>
      <trkpt lat="43.323714" lon="-8.833058">
        <ele>47.087</ele>
        <time>2019-06-21T12:04:59Z</time>
      </trkpt>
      <trkpt lat="43.323590" lon="-8.833000">
        <ele>46.639</ele>
        <time>2019-06-21T12:05:00Z</time>
      </trkpt>
      <trkpt lat="43.323468" lon="-8.832918">
        <ele>46.026</ele>
        <time>2019-06-21T12:05:01Z</time>
      </trkpt>
      <trkpt lat="43.323337" lon="-8.832826">
        <ele>45.322</ele>
        <time>2019-06-21T12:05:02Z</time>
      </trkpt>
      <trkpt lat="43.323207" lon="-8.832716">
        <ele>43.536</ele>
        <time>2019-06-21T12:05:03Z</time>
      </trkpt>
      <trkpt lat="43.323068" lon="-8.832610">
        <ele>41.978</ele>
        <time>2019-06-21T12:05:04Z</time>
      </trkpt>
      <trkpt lat="43.322926" lon="-8.832503">
        <ele>40.694</ele>
        <time>2019-06-21T12:05:05Z</time>
      </trkpt>
      <trkpt lat="43.322781" lon="-8.832408">
        <ele>39.357</ele>
        <time>2019-06-21T12:05:06Z</time>
      </trkpt>
      <trkpt lat="43.322644" lon="-8.832314">
        <ele>38.522</ele>
        <time>2019-06-21T12:05:07Z</time>
      </trkpt>
      <trkpt lat="43.322509" lon="-8.832222">
        <ele>38.008</ele>
        <time>2019-06-21T12:05:08Z</time>
      </trkpt>
      <trkpt lat="43.322383" lon="-8.832136">
        <ele>37.062</ele>
        <time>2019-06-21T12:05:09Z</time>
      </trkpt>
      <trkpt lat="43.322251" lon="-8.832039">
        <ele>35.856</ele>
        <time>2019-06-21T12:05:10Z</time>
      </trkpt>
      <trkpt lat="43.322123" lon="-8.831954">
        <ele>34.738</ele>
        <time>2019-06-21T12:05:11Z</time>
      </trkpt>
      <trkpt lat="43.321996" lon="-8.831875">
        <ele>34.180</ele>
        <time>2019-06-21T12:05:12Z</time>
      </trkpt>
      <trkpt lat="43.321862" lon="-8.831787">
        <ele>34.017</ele>
        <time>2019-06-21T12:05:13Z</time>
      </trkpt>
      <trkpt lat="43.321730" lon="-8.831685">
        <ele>34.033</ele>
        <time>2019-06-21T12:05:14Z</time>
      </trkpt>
      <trkpt lat="43.321599" lon="-8.831585">
        <ele>34.227</ele>
        <time>2019-06-21T12:05:15Z</time>
      </trkpt>
      <trkpt lat="43.321463" lon="-8.831491">
        <ele>34.279</ele>
        <time>2019-06-21T12:05:16Z</time>
      </trkpt>
      <trkpt lat="43.321326" lon="-8.831402">
        <ele>34.045</ele>
        <time>2019-06-21T12:05:17Z</time>
      </trkpt>
      <trkpt lat="43.321185" lon="-8.831304">
        <ele>34.047</ele>
        <time>2019-06-21T12:05:18Z</time>
      </trkpt>
      <trkpt lat="43.321056" lon="-8.831215">
        <ele>34.011</ele>
        <time>2019-06-21T12:05:19Z</time>
      </trkpt>
      <trkpt lat="43.320929" lon="-8.831125">
        <ele>34.008</ele>
        <time>2019-06-21T12:05:20Z</time>
      </trkpt>
      <trkpt lat="43.320811" lon="-8.831043">
        <ele>34.117</ele>
        <time>2019-06-21T12:05:21Z</time>
      </trkpt>
      <trkpt lat="43.320700" lon="-8.830965">
        <ele>34.571</ele>
        <time>2019-06-21T12:05:22Z</time>
      </trkpt>
      <trkpt lat="43.320603" lon="-8.830877">
        <ele>34.843</ele>
        <time>2019-06-21T12:05:23Z</time>
      </trkpt>
      <trkpt lat="43.320508" lon="-8.830808">
        <ele>35.455</ele>
        <time>2019-06-21T12:05:24Z</time>
      </trkpt>
      <trkpt lat="43.320421" lon="-8.830749">
        <ele>36.112</ele>
        <time>2019-06-21T12:05:25Z</time>
      </trkpt>
      <trkpt lat="43.320341" lon="-8.830693">
        <ele>36.758</ele>
        <time>2019-06-21T12:05:26Z</time>
      </trkpt>
      <trkpt lat="43.320265" lon="-8.830649">
        <ele>37.092</ele>
        <time>2019-06-21T12:05:27Z</time>
      </trkpt>
      <trkpt lat="43.320184" lon="-8.830616">
        <ele>37.174</ele>
        <time>2019-06-21T12:05:28Z</time>
      </trkpt>
      <trkpt lat="43.320093" lon="-8.830594">
        <ele>37.135</ele>
        <time>2019-06-21T12:05:29Z</time>
      </trkpt>
      <trkpt lat="43.319993" lon="-8.830584">
        <ele>37.186</ele>
        <time>2019-06-21T12:05:30Z</time>
      </trkpt>
      <trkpt lat="43.319880" lon="-8.830591">
        <ele>37.514</ele>
        <time>2019-06-21T12:05:31Z</time>
      </trkpt>
      <trkpt lat="43.319762" lon="-8.830608">
        <ele>37.908</ele>
        <time>2019-06-21T12:05:32Z</time>
      </trkpt>
      <trkpt lat="43.319642" lon="-8.830621">
        <ele>38.156</ele>
        <time>2019-06-21T12:05:33Z</time>
      </trkpt>
      <trkpt lat="43.319531" lon="-8.830645">
        <ele>38.270</ele>
        <time>2019-06-21T12:05:34Z</time>
      </trkpt>
      <trkpt lat="43.319417" lon="-8.830662">
        <ele>38.482</ele>
        <time>2019-06-21T12:05:35Z</time>
      </trkpt>
      <trkpt lat="43.319300" lon="-8.830685">
        <ele>38.594</ele>
        <time>2019-06-21T12:05:36Z</time>
      </trkpt>
      <trkpt lat="43.319186" lon="-8.830713">
        <ele>38.651</ele>
        <time>2019-06-21T12:05:37Z</time>
      </trkpt>
      <trkpt lat="43.319081" lon="-8.830738">
        <ele>39.097</ele>
        <time>2019-06-21T12:05:38Z</time>
      </trkpt>
      <trkpt lat="43.318976" lon="-8.830764">
        <ele>39.411</ele>
        <time>2019-06-21T12:05:39Z</time>
      </trkpt>
      <trkpt lat="43.318873" lon="-8.830781">
        <ele>39.823</ele>
        <time>2019-06-21T12:05:40Z</time>
      </trkpt>
      <trkpt lat="43.318776" lon="-8.830801">
        <ele>39.969</ele>
        <time>2019-06-21T12:05:41Z</time>
      </trkpt>
      <trkpt lat="43.318687" lon="-8.830820">
        <ele>40.004</ele>
        <time>2019-06-21T12:05:42Z</time>
      </trkpt>
      <trkpt lat="43.318613" lon="-8.830826">
        <ele>40.024</ele>
        <time>2019-06-21T12:05:43Z</time>
      </trkpt>
      <trkpt lat="43.318552" lon="-8.830829">
        <ele>39.808</ele>
        <time>2019-06-21T12:05:44Z</time>
      </trkpt>
      <trkpt lat="43.318499" lon="-8.830822">
        <ele>39.689</ele>
        <time>2019-06-21T12:05:45Z</time>
      </trkpt>
      <trkpt lat="43.318445" lon="-8.830799">
        <ele>39.413</ele>
        <time>2019-06-21T12:05:47Z</time>
      </trkpt>
      <trkpt lat="43.318405" lon="-8.830742">
        <ele>39.235</ele>
        <time>2019-06-21T12:05:55Z</time>
      </trkpt>
      <trkpt lat="43.318374" lon="-8.830679">
        <ele>39.127</ele>
        <time>2019-06-21T12:05:56Z</time>
      </trkpt>
      <trkpt lat="43.318351" lon="-8.830587">
        <ele>39.094</ele>
        <time>2019-06-21T12:05:57Z</time>
      </trkpt>
      <trkpt lat="43.318360" lon="-8.830440">
        <ele>38.640</ele>
        <time>2019-06-21T12:05:58Z</time>
      </trkpt>
      <trkpt lat="43.318358" lon="-8.830286">
        <ele>38.014</ele>
        <time>2019-06-21T12:05:59Z</time>
      </trkpt>
      <trkpt lat="43.318349" lon="-8.830122">
        <ele>38.016</ele>
        <time>2019-06-21T12:06:00Z</time>
      </trkpt>
      <trkpt lat="43.318343" lon="-8.829947">
        <ele>38.079</ele>
        <time>2019-06-21T12:06:01Z</time>
      </trkpt>
      <trkpt lat="43.318344" lon="-8.829790">
        <ele>38.005</ele>
        <time>2019-06-21T12:06:02Z</time>
      </trkpt>
      <trkpt lat="43.318336" lon="-8.829615">
        <ele>38.025</ele>
        <time>2019-06-21T12:06:03Z</time>
      </trkpt>
      <trkpt lat="43.318342" lon="-8.829450">
        <ele>38.008</ele>
        <time>2019-06-21T12:06:04Z</time>
      </trkpt>
      <trkpt lat="43.318349" lon="-8.829279">
        <ele>38.590</ele>
        <time>2019-06-21T12:06:05Z</time>
      </trkpt>
      <trkpt lat="43.318371" lon="-8.829111">
        <ele>39.114</ele>
        <time>2019-06-21T12:06:06Z</time>
      </trkpt>
      <trkpt lat="43.318426" lon="-8.828954">
        <ele>39.796</ele>
        <time>2019-06-21T12:06:07Z</time>
      </trkpt>
      <trkpt lat="43.318508" lon="-8.828840">
        <ele>40.298</ele>
        <time>2019-06-21T12:06:08Z</time>
      </trkpt>
      <trkpt lat="43.318594" lon="-8.828712">
        <ele>40.655</ele>
        <time>2019-06-21T12:06:09Z</time>
      </trkpt>
      <trkpt lat="43.318685" lon="-8.828594">
        <ele>41.191</ele>
        <time>2019-06-21T12:06:10Z</time>
      </trkpt>
      <trkpt lat="43.318763" lon="-8.828473">
        <ele>41.555</ele>
        <time>2019-06-21T12:06:11Z</time>
      </trkpt>
      <trkpt lat="43.318829" lon="-8.828343">
        <ele>42.017</ele>
        <time>2019-06-21T12:06:12Z</time>
      </trkpt>
      <trkpt lat="43.318871" lon="-8.828197">
        <ele>42.512</ele>
        <time>2019-06-21T12:06:13Z</time>
      </trkpt>
      <trkpt lat="43.318913" lon="-8.828055">
        <ele>43.132</ele>
        <time>2019-06-21T12:06:14Z</time>
      </trkpt>
      <trkpt lat="43.318910" lon="-8.827898">
        <ele>43.605</ele>
        <time>2019-06-21T12:06:15Z</time>
      </trkpt>
      <trkpt lat="43.318898" lon="-8.827753">
        <ele>44.108</ele>
        <time>2019-06-21T12:06:16Z</time>
      </trkpt>
      <trkpt lat="43.318864" lon="-8.827611">
        <ele>44.634</ele>
        <time>2019-06-21T12:06:17Z</time>
      </trkpt>
      <trkpt lat="43.318798" lon="-8.827469">
        <ele>45.158</ele>
        <time>2019-06-21T12:06:18Z</time>
      </trkpt>
      <trkpt lat="43.318725" lon="-8.827321">
        <ele>45.660</ele>
        <time>2019-06-21T12:06:19Z</time>
      </trkpt>
      <trkpt lat="43.318646" lon="-8.827149">
        <ele>46.312</ele>
        <time>2019-06-21T12:06:20Z</time>
      </trkpt>
      <trkpt lat="43.318574" lon="-8.826969">
        <ele>46.979</ele>
        <time>2019-06-21T12:06:21Z</time>
      </trkpt>
      <trkpt lat="43.318508" lon="-8.826778">
        <ele>47.475</ele>
        <time>2019-06-21T12:06:22Z</time>
      </trkpt>
      <trkpt lat="43.318458" lon="-8.826580">
        <ele>47.869</ele>
        <time>2019-06-21T12:06:23Z</time>
      </trkpt>
      <trkpt lat="43.318423" lon="-8.826392">
        <ele>48.381</ele>
        <time>2019-06-21T12:06:24Z</time>
      </trkpt>
      <trkpt lat="43.318392" lon="-8.826198">
        <ele>48.942</ele>
        <time>2019-06-21T12:06:25Z</time>
      </trkpt>
      <trkpt lat="43.318349" lon="-8.826011">
        <ele>49.422</ele>
        <time>2019-06-21T12:06:26Z</time>
      </trkpt>
      <trkpt lat="43.318307" lon="-8.825820">
        <ele>50.114</ele>
        <time>2019-06-21T12:06:27Z</time>
      </trkpt>
      <trkpt lat="43.318262" lon="-8.825621">
        <ele>51.008</ele>
        <time>2019-06-21T12:06:28Z</time>
      </trkpt>
      <trkpt lat="43.318219" lon="-8.825430">
        <ele>52.147</ele>
        <time>2019-06-21T12:06:29Z</time>
      </trkpt>
      <trkpt lat="43.318171" lon="-8.825248">
        <ele>53.111</ele>
        <time>2019-06-21T12:06:30Z</time>
      </trkpt>
      <trkpt lat="43.318123" lon="-8.825066">
        <ele>53.863</ele>
        <time>2019-06-21T12:06:31Z</time>
      </trkpt>
      <trkpt lat="43.318075" lon="-8.824888">
        <ele>54.825</ele>
        <time>2019-06-21T12:06:32Z</time>
      </trkpt>
      <trkpt lat="43.318025" lon="-8.824714">
        <ele>56.022</ele>
        <time>2019-06-21T12:06:33Z</time>
      </trkpt>
      <trkpt lat="43.317911" lon="-8.824547">
        <ele>57.028</ele>
        <time>2019-06-21T12:06:34Z</time>
      </trkpt>
      <trkpt lat="43.317838" lon="-8.824397">
        <ele>58.182</ele>
        <time>2019-06-21T12:06:35Z</time>
      </trkpt>
      <trkpt lat="43.317769" lon="-8.824234">
        <ele>59.954</ele>
        <time>2019-06-21T12:06:36Z</time>
      </trkpt>
      <trkpt lat="43.317718" lon="-8.824084">
        <ele>60.582</ele>
        <time>2019-06-21T12:06:37Z</time>
      </trkpt>
      <trkpt lat="43.317677" lon="-8.823937">
        <ele>60.743</ele>
        <time>2019-06-21T12:06:38Z</time>
      </trkpt>
      <trkpt lat="43.317681" lon="-8.823805">
        <ele>60.917</ele>
        <time>2019-06-21T12:06:39Z</time>
      </trkpt>
      <trkpt lat="43.317692" lon="-8.823678">
        <ele>60.808</ele>
        <time>2019-06-21T12:06:40Z</time>
      </trkpt>
      <trkpt lat="43.317720" lon="-8.823530">
        <ele>60.971</ele>
        <time>2019-06-21T12:06:41Z</time>
      </trkpt>
      <trkpt lat="43.317755" lon="-8.823388">
        <ele>60.995</ele>
        <time>2019-06-21T12:06:42Z</time>
      </trkpt>
      <trkpt lat="43.317809" lon="-8.823240">
        <ele>61.417</ele>
        <time>2019-06-21T12:06:43Z</time>
      </trkpt>
      <trkpt lat="43.317882" lon="-8.823081">
        <ele>62.279</ele>
        <time>2019-06-21T12:06:44Z</time>
      </trkpt>
      <trkpt lat="43.317960" lon="-8.822924">
        <ele>63.026</ele>
        <time>2019-06-21T12:06:45Z</time>
      </trkpt>
      <trkpt lat="43.318032" lon="-8.822763">
        <ele>63.712</ele>
        <time>2019-06-21T12:06:46Z</time>
      </trkpt>
      <trkpt lat="43.318113" lon="-8.822605">
        <ele>64.696</ele>
        <time>2019-06-21T12:06:47Z</time>
      </trkpt>
      <trkpt lat="43.318189" lon="-8.822438">
        <ele>64.788</ele>
        <time>2019-06-21T12:06:48Z</time>
      </trkpt>
      <trkpt lat="43.318262" lon="-8.822277">
        <ele>64.745</ele>
        <time>2019-06-21T12:06:49Z</time>
      </trkpt>
      <trkpt lat="43.318341" lon="-8.822138">
        <ele>65.047</ele>
        <time>2019-06-21T12:06:50Z</time>
      </trkpt>
      <trkpt lat="43.318410" lon="-8.821999">
        <ele>65.311</ele>
        <time>2019-06-21T12:06:51Z</time>
      </trkpt>
      <trkpt lat="43.318488" lon="-8.821864">
        <ele>65.608</ele>
        <time>2019-06-21T12:06:52Z</time>
      </trkpt>
      <trkpt lat="43.318572" lon="-8.821733">
        <ele>65.977</ele>
        <time>2019-06-21T12:06:53Z</time>
      </trkpt>
      <trkpt lat="43.318676" lon="-8.821604">
        <ele>66.841</ele>
        <time>2019-06-21T12:06:54Z</time>
      </trkpt>
      <trkpt lat="43.318799" lon="-8.821476">
        <ele>67.873</ele>
        <time>2019-06-21T12:06:55Z</time>
      </trkpt>
      <trkpt lat="43.318895" lon="-8.821344">
        <ele>68.225</ele>
        <time>2019-06-21T12:06:56Z</time>
      </trkpt>
      <trkpt lat="43.319009" lon="-8.821212">
        <ele>68.112</ele>
        <time>2019-06-21T12:06:57Z</time>
      </trkpt>
      <trkpt lat="43.319122" lon="-8.821080">
        <ele>67.468</ele>
        <time>2019-06-21T12:06:58Z</time>
      </trkpt>
      <trkpt lat="43.319238" lon="-8.820948">
        <ele>67.252</ele>
        <time>2019-06-21T12:06:59Z</time>
      </trkpt>
      <trkpt lat="43.319359" lon="-8.820821">
        <ele>66.794</ele>
        <time>2019-06-21T12:07:00Z</time>
      </trkpt>
      <trkpt lat="43.319464" lon="-8.820699">
        <ele>67.042</ele>
        <time>2019-06-21T12:07:01Z</time>
      </trkpt>
      <trkpt lat="43.319566" lon="-8.820570">
        <ele>68.322</ele>
        <time>2019-06-21T12:07:02Z</time>
      </trkpt>
      <trkpt lat="43.319659" lon="-8.820438">
        <ele>69.714</ele>
        <time>2019-06-21T12:07:03Z</time>
      </trkpt>
      <trkpt lat="43.319736" lon="-8.820293">
        <ele>70.808</ele>
        <time>2019-06-21T12:07:04Z</time>
      </trkpt>
      <trkpt lat="43.319804" lon="-8.820147">
        <ele>70.687</ele>
        <time>2019-06-21T12:07:05Z</time>
      </trkpt>
      <trkpt lat="43.319876" lon="-8.820009">
        <ele>69.861</ele>
        <time>2019-06-21T12:07:06Z</time>
      </trkpt>
      <trkpt lat="43.319921" lon="-8.819913">
        <ele>69.543</ele>
        <time>2019-06-21T12:07:07Z</time>
      </trkpt>
      <trkpt lat="43.319964" lon="-8.819833">
        <ele>69.155</ele>
        <time>2019-06-21T12:07:08Z</time>
      </trkpt>
      <trkpt lat="43.319980" lon="-8.819766">
        <ele>69.142</ele>
        <time>2019-06-21T12:07:09Z</time>
      </trkpt>
      <trkpt lat="43.320006" lon="-8.819709">
        <ele>69.098</ele>
        <time>2019-06-21T12:07:10Z</time>
      </trkpt>
      <trkpt lat="43.320027" lon="-8.819651">
        <ele>69.062</ele>
        <time>2019-06-21T12:07:11Z</time>
      </trkpt>
      <trkpt lat="43.320078" lon="-8.819583">
        <ele>68.754</ele>
        <time>2019-06-21T12:07:12Z</time>
      </trkpt>
      <trkpt lat="43.320187" lon="-8.819492">
        <ele>67.883</ele>
        <time>2019-06-21T12:07:13Z</time>
      </trkpt>
      <trkpt lat="43.320242" lon="-8.819396">
        <ele>67.425</ele>
        <time>2019-06-21T12:07:14Z</time>
      </trkpt>
      <trkpt lat="43.320302" lon="-8.819296">
        <ele>66.717</ele>
        <time>2019-06-21T12:07:15Z</time>
      </trkpt>
      <trkpt lat="43.320376" lon="-8.819188">
        <ele>65.908</ele>
        <time>2019-06-21T12:07:16Z</time>
      </trkpt>
      <trkpt lat="43.320440" lon="-8.819077">
        <ele>65.121</ele>
        <time>2019-06-21T12:07:17Z</time>
      </trkpt>
      <trkpt lat="43.320514" lon="-8.818982">
        <ele>63.985</ele>
        <time>2019-06-21T12:07:18Z</time>
      </trkpt>
      <trkpt lat="43.320588" lon="-8.818883">
        <ele>62.647</ele>
        <time>2019-06-21T12:07:19Z</time>
      </trkpt>
      <trkpt lat="43.320673" lon="-8.818769">
        <ele>61.629</ele>
        <time>2019-06-21T12:07:20Z</time>
      </trkpt>
      <trkpt lat="43.320740" lon="-8.818666">
        <ele>60.636</ele>
        <time>2019-06-21T12:07:21Z</time>
      </trkpt>
      <trkpt lat="43.320817" lon="-8.818557">
        <ele>59.962</ele>
        <time>2019-06-21T12:07:22Z</time>
      </trkpt>
      <trkpt lat="43.320898" lon="-8.818443">
        <ele>59.826</ele>
        <time>2019-06-21T12:07:23Z</time>
      </trkpt>
      <trkpt lat="43.320999" lon="-8.818355">
        <ele>58.988</ele>
        <time>2019-06-21T12:07:24Z</time>
      </trkpt>
      <trkpt lat="43.321089" lon="-8.818231">
        <ele>58.513</ele>
        <time>2019-06-21T12:07:25Z</time>
      </trkpt>
      <trkpt lat="43.321189" lon="-8.818103">
        <ele>58.443</ele>
        <time>2019-06-21T12:07:26Z</time>
      </trkpt>
      <trkpt lat="43.321284" lon="-8.817977">
        <ele>58.407</ele>
        <time>2019-06-21T12:07:27Z</time>
      </trkpt>
      <trkpt lat="43.321388" lon="-8.817851">
        <ele>58.208</ele>
        <time>2019-06-21T12:07:28Z</time>
      </trkpt>
      <trkpt lat="43.321491" lon="-8.817734">
        <ele>58.434</ele>
        <time>2019-06-21T12:07:29Z</time>
      </trkpt>
      <trkpt lat="43.321595" lon="-8.817617">
        <ele>58.938</ele>
        <time>2019-06-21T12:07:30Z</time>
      </trkpt>
      <trkpt lat="43.321695" lon="-8.817501">
        <ele>59.360</ele>
        <time>2019-06-21T12:07:31Z</time>
      </trkpt>
      <trkpt lat="43.321795" lon="-8.817387">
        <ele>57.722</ele>
        <time>2019-06-21T12:07:32Z</time>
      </trkpt>
      <trkpt lat="43.321896" lon="-8.817264">
        <ele>57.219</ele>
        <time>2019-06-21T12:07:33Z</time>
      </trkpt>
      <trkpt lat="43.321993" lon="-8.817161">
        <ele>55.435</ele>
        <time>2019-06-21T12:07:34Z</time>
      </trkpt>
      <trkpt lat="43.322083" lon="-8.817057">
        <ele>53.239</ele>
        <time>2019-06-21T12:07:35Z</time>
      </trkpt>
      <trkpt lat="43.322171" lon="-8.816935">
        <ele>52.111</ele>
        <time>2019-06-21T12:07:36Z</time>
      </trkpt>
      <trkpt lat="43.322233" lon="-8.816823">
        <ele>50.772</ele>
        <time>2019-06-21T12:07:37Z</time>
      </trkpt>
      <trkpt lat="43.322315" lon="-8.816723">
        <ele>48.913</ele>
        <time>2019-06-21T12:07:38Z</time>
      </trkpt>
      <trkpt lat="43.322279" lon="-8.816594">
        <ele>49.014</ele>
        <time>2019-06-21T12:07:39Z</time>
      </trkpt>
      <trkpt lat="43.322315" lon="-8.816473">
        <ele>47.108</ele>
        <time>2019-06-21T12:07:40Z</time>
      </trkpt>
      <trkpt lat="43.322291" lon="-8.816324">
        <ele>45.980</ele>
        <time>2019-06-21T12:07:41Z</time>
      </trkpt>
      <trkpt lat="43.322276" lon="-8.816181">
        <ele>44.254</ele>
        <time>2019-06-21T12:07:42Z</time>
      </trkpt>
      <trkpt lat="43.322247" lon="-8.816011">
        <ele>42.936</ele>
        <time>2019-06-21T12:07:43Z</time>
      </trkpt>
      <trkpt lat="43.322232" lon="-8.815851">
        <ele>42.038</ele>
        <time>2019-06-21T12:07:44Z</time>
      </trkpt>
      <trkpt lat="43.322214" lon="-8.815676">
        <ele>43.655</ele>
        <time>2019-06-21T12:07:45Z</time>
      </trkpt>
      <trkpt lat="43.322227" lon="-8.815515">
        <ele>44.181</ele>
        <time>2019-06-21T12:07:46Z</time>
      </trkpt>
      <trkpt lat="43.322237" lon="-8.815341">
        <ele>45.085</ele>
        <time>2019-06-21T12:07:47Z</time>
      </trkpt>
      <trkpt lat="43.322255" lon="-8.815159">
        <ele>45.187</ele>
        <time>2019-06-21T12:07:48Z</time>
      </trkpt>
      <trkpt lat="43.322275" lon="-8.814969">
        <ele>44.377</ele>
        <time>2019-06-21T12:07:49Z</time>
      </trkpt>
      <trkpt lat="43.322289" lon="-8.814820">
        <ele>41.861</ele>
        <time>2019-06-21T12:07:50Z</time>
      </trkpt>
      <trkpt lat="43.322300" lon="-8.814654">
        <ele>39.927</ele>
        <time>2019-06-21T12:07:51Z</time>
      </trkpt>
      <trkpt lat="43.322312" lon="-8.814506">
        <ele>38.508</ele>
        <time>2019-06-21T12:07:53Z</time>
      </trkpt>
      <trkpt lat="43.322310" lon="-8.814426">
        <ele>38.140</ele>
        <time>2019-06-21T12:07:55Z</time>
      </trkpt>
      <trkpt lat="43.322290" lon="-8.814369">
        <ele>38.654</ele>
        <time>2019-06-21T12:07:57Z</time>
      </trkpt>
      <trkpt lat="43.322308" lon="-8.814301">
        <ele>37.186</ele>
        <time>2019-06-21T12:07:58Z</time>
      </trkpt>
      <trkpt lat="43.322312" lon="-8.814171">
        <ele>35.878</ele>
        <time>2019-06-21T12:07:59Z</time>
      </trkpt>
      <trkpt lat="43.322333" lon="-8.814041">
        <ele>35.245</ele>
        <time>2019-06-21T12:08:00Z</time>
      </trkpt>
      <trkpt lat="43.322333" lon="-8.813915">
        <ele>35.421</ele>
        <time>2019-06-21T12:08:01Z</time>
      </trkpt>
      <trkpt lat="43.322346" lon="-8.813783">
        <ele>34.785</ele>
        <time>2019-06-21T12:08:02Z</time>
      </trkpt>
      <trkpt lat="43.322358" lon="-8.813653">
        <ele>34.167</ele>
        <time>2019-06-21T12:08:03Z</time>
      </trkpt>
      <trkpt lat="43.322373" lon="-8.813520">
        <ele>33.788</ele>
        <time>2019-06-21T12:08:04Z</time>
      </trkpt>
      <trkpt lat="43.322404" lon="-8.813400">
        <ele>33.124</ele>
        <time>2019-06-21T12:08:05Z</time>
      </trkpt>
      <trkpt lat="43.322437" lon="-8.813289">
        <ele>32.326</ele>
        <time>2019-06-21T12:08:06Z</time>
      </trkpt>
      <trkpt lat="43.322471" lon="-8.813245">
        <ele>31.608</ele>
        <time>2019-06-21T12:08:07Z</time>
      </trkpt>
      <trkpt lat="43.322469" lon="-8.813139">
        <ele>31.671</ele>
        <time>2019-06-21T12:08:09Z</time>
      </trkpt>
      <trkpt lat="43.322486" lon="-8.813073">
        <ele>31.345</ele>
        <time>2019-06-21T12:08:12Z</time>
      </trkpt>
      <trkpt lat="43.322534" lon="-8.813054">
        <ele>30.417</ele>
        <time>2019-06-21T12:08:17Z</time>
      </trkpt>
      <trkpt lat="43.322574" lon="-8.812980">
        <ele>29.639</ele>
        <time>2019-06-21T12:08:20Z</time>
      </trkpt>
      <trkpt lat="43.322605" lon="-8.812892">
        <ele>28.986</ele>
        <time>2019-06-21T12:08:21Z</time>
      </trkpt>
      <trkpt lat="43.322644" lon="-8.812798">
        <ele>27.952</ele>
        <time>2019-06-21T12:08:23Z</time>
      </trkpt>
      <trkpt lat="43.322661" lon="-8.812708">
        <ele>27.346</ele>
        <time>2019-06-21T12:08:25Z</time>
      </trkpt>
      <trkpt lat="43.322681" lon="-8.812609">
        <ele>26.578</ele>
        <time>2019-06-21T12:08:27Z</time>
      </trkpt>
      <trkpt lat="43.322698" lon="-8.812549">
        <ele>25.841</ele>
        <time>2019-06-21T12:08:28Z</time>
      </trkpt>
      <trkpt lat="43.322714" lon="-8.812481">
        <ele>25.181</ele>
        <time>2019-06-21T12:08:29Z</time>
      </trkpt>
      <trkpt lat="43.322735" lon="-8.812388">
        <ele>24.309</ele>
        <time>2019-06-21T12:08:30Z</time>
      </trkpt>
      <trkpt lat="43.322736" lon="-8.812308">
        <ele>24.208</ele>
        <time>2019-06-21T12:08:31Z</time>
      </trkpt>
      <trkpt lat="43.322751" lon="-8.812223">
        <ele>23.897</ele>
        <time>2019-06-21T12:08:32Z</time>
      </trkpt>
      <trkpt lat="43.322743" lon="-8.812142">
        <ele>23.441</ele>
        <time>2019-06-21T12:08:33Z</time>
      </trkpt>
      <trkpt lat="43.322737" lon="-8.812058">
        <ele>22.963</ele>
        <time>2019-06-21T12:08:34Z</time>
      </trkpt>
      <trkpt lat="43.322726" lon="-8.811978">
        <ele>22.695</ele>
        <time>2019-06-21T12:08:35Z</time>
      </trkpt>
      <trkpt lat="43.322730" lon="-8.811873">
        <ele>21.972</ele>
        <time>2019-06-21T12:08:36Z</time>
      </trkpt>
      <trkpt lat="43.322741" lon="-8.811771">
        <ele>21.288</ele>
        <time>2019-06-21T12:08:37Z</time>
      </trkpt>
      <trkpt lat="43.322749" lon="-8.811671">
        <ele>20.672</ele>
        <time>2019-06-21T12:08:38Z</time>
      </trkpt>
      <trkpt lat="43.322757" lon="-8.811577">
        <ele>20.124</ele>
        <time>2019-06-21T12:08:39Z</time>
      </trkpt>
      <trkpt lat="43.322763" lon="-8.811491">
        <ele>19.776</ele>
        <time>2019-06-21T12:08:40Z</time>
      </trkpt>
      <trkpt lat="43.322784" lon="-8.811426">
        <ele>19.190</ele>
        <time>2019-06-21T12:08:41Z</time>
      </trkpt>
      <trkpt lat="43.322798" lon="-8.811357">
        <ele>19.019</ele>
        <time>2019-06-21T12:08:42Z</time>
      </trkpt>
      <trkpt lat="43.322814" lon="-8.811249">
        <ele>19.308</ele>
        <time>2019-06-21T12:08:44Z</time>
      </trkpt>
      <trkpt lat="43.322860" lon="-8.811157">
        <ele>19.550</ele>
        <time>2019-06-21T12:08:46Z</time>
      </trkpt>
      <trkpt lat="43.322873" lon="-8.811097">
        <ele>19.714</ele>
        <time>2019-06-21T12:08:47Z</time>
      </trkpt>
      <trkpt lat="43.322886" lon="-8.811025">
        <ele>20.096</ele>
        <time>2019-06-21T12:08:48Z</time>
      </trkpt>
      <trkpt lat="43.322924" lon="-8.810980">
        <ele>20.238</ele>
        <time>2019-06-21T12:08:49Z</time>
      </trkpt>
      <trkpt lat="43.322940" lon="-8.810907">
        <ele>20.665</ele>
        <time>2019-06-21T12:08:50Z</time>
      </trkpt>
      <trkpt lat="43.322975" lon="-8.810842">
        <ele>20.951</ele>
        <time>2019-06-21T12:08:51Z</time>
      </trkpt>
      <trkpt lat="43.322990" lon="-8.810745">
        <ele>21.135</ele>
        <time>2019-06-21T12:08:53Z</time>
      </trkpt>
      <trkpt lat="43.323040" lon="-8.810669">
        <ele>21.087</ele>
        <time>2019-06-21T12:08:55Z</time>
      </trkpt>
      <trkpt lat="43.323074" lon="-8.810628">
        <ele>21.045</ele>
        <time>2019-06-21T12:08:56Z</time>
      </trkpt>
      <trkpt lat="43.323125" lon="-8.810561">
        <ele>21.247</ele>
        <time>2019-06-21T12:08:58Z</time>
      </trkpt>
      <trkpt lat="43.323168" lon="-8.810506">
        <ele>21.411</ele>
        <time>2019-06-21T12:09:00Z</time>
      </trkpt>
      <trkpt lat="43.323235" lon="-8.810467">
        <ele>21.608</ele>
        <time>2019-06-21T12:09:02Z</time>
      </trkpt>
      <trkpt lat="43.323282" lon="-8.810485">
        <ele>21.737</ele>
        <time>2019-06-21T12:09:13Z</time>
      </trkpt>
      <trkpt lat="43.323232" lon="-8.810434">
        <ele>21.561</ele>
        <time>2019-06-21T12:09:33Z</time>
      </trkpt>
      <trkpt lat="43.323178" lon="-8.810475">
        <ele>21.593</ele>
        <time>2019-06-21T12:13:48Z</time>
      </trkpt>
      <trkpt lat="43.323146" lon="-8.810522">
        <ele>21.495</ele>
        <time>2019-06-21T12:13:49Z</time>
      </trkpt>
      <trkpt lat="43.323110" lon="-8.810569">
        <ele>21.262</ele>
        <time>2019-06-21T12:13:50Z</time>
      </trkpt>
      <trkpt lat="43.323061" lon="-8.810618">
        <ele>21.098</ele>
        <time>2019-06-21T12:13:52Z</time>
      </trkpt>
      <trkpt lat="43.323030" lon="-8.810689">
        <ele>21.012</ele>
        <time>2019-06-21T12:13:57Z</time>
      </trkpt>
      <trkpt lat="43.323000" lon="-8.810755">
        <ele>21.144</ele>
        <time>2019-06-21T12:13:58Z</time>
      </trkpt>
      <trkpt lat="43.322963" lon="-8.810844">
        <ele>20.971</ele>
        <time>2019-06-21T12:13:59Z</time>
      </trkpt>
      <trkpt lat="43.322926" lon="-8.810941">
        <ele>20.441</ele>
        <time>2019-06-21T12:14:00Z</time>
      </trkpt>
      <trkpt lat="43.322889" lon="-8.811047">
        <ele>19.915</ele>
        <time>2019-06-21T12:14:01Z</time>
      </trkpt>
      <trkpt lat="43.322854" lon="-8.811155">
        <ele>19.508</ele>
        <time>2019-06-21T12:14:02Z</time>
      </trkpt>
      <trkpt lat="43.322821" lon="-8.811262">
        <ele>19.210</ele>
        <time>2019-06-21T12:14:03Z</time>
      </trkpt>
      <trkpt lat="43.322791" lon="-8.811376">
        <ele>19.054</ele>
        <time>2019-06-21T12:14:04Z</time>
      </trkpt>
      <trkpt lat="43.322761" lon="-8.811491">
        <ele>19.736</ele>
        <time>2019-06-21T12:14:05Z</time>
      </trkpt>
      <trkpt lat="43.322733" lon="-8.811623">
        <ele>20.848</ele>
        <time>2019-06-21T12:14:06Z</time>
      </trkpt>
      <trkpt lat="43.322705" lon="-8.811734">
        <ele>21.975</ele>
        <time>2019-06-21T12:14:07Z</time>
      </trkpt>
      <trkpt lat="43.322680" lon="-8.811851">
        <ele>23.081</ele>
        <time>2019-06-21T12:14:08Z</time>
      </trkpt>
      <trkpt lat="43.322661" lon="-8.811960">
        <ele>24.195</ele>
        <time>2019-06-21T12:14:09Z</time>
      </trkpt>
      <trkpt lat="43.322643" lon="-8.812090">
        <ele>25.727</ele>
        <time>2019-06-21T12:14:10Z</time>
      </trkpt>
      <trkpt lat="43.322619" lon="-8.812209">
        <ele>27.414</ele>
        <time>2019-06-21T12:14:11Z</time>
      </trkpt>
      <trkpt lat="43.322652" lon="-8.812437">
        <ele>27.054</ele>
        <time>2019-06-21T12:14:12Z</time>
      </trkpt>
      <trkpt lat="43.322624" lon="-8.812569">
        <ele>28.109</ele>
        <time>2019-06-21T12:14:13Z</time>
      </trkpt>
      <trkpt lat="43.322601" lon="-8.812720">
        <ele>28.808</ele>
        <time>2019-06-21T12:14:14Z</time>
      </trkpt>
      <trkpt lat="43.322553" lon="-8.812904">
        <ele>29.934</ele>
        <time>2019-06-21T12:14:15Z</time>
      </trkpt>
      <trkpt lat="43.322519" lon="-8.813067">
        <ele>30.778</ele>
        <time>2019-06-21T12:14:16Z</time>
      </trkpt>
      <trkpt lat="43.322481" lon="-8.813228">
        <ele>31.480</ele>
        <time>2019-06-21T12:14:17Z</time>
      </trkpt>
      <trkpt lat="43.322462" lon="-8.813366">
        <ele>31.882</ele>
        <time>2019-06-21T12:14:18Z</time>
      </trkpt>
      <trkpt lat="43.322444" lon="-8.813498">
        <ele>32.289</ele>
        <time>2019-06-21T12:14:19Z</time>
      </trkpt>
      <trkpt lat="43.322407" lon="-8.813651">
        <ele>33.055</ele>
        <time>2019-06-21T12:14:20Z</time>
      </trkpt>
      <trkpt lat="43.322422" lon="-8.813859">
        <ele>32.589</ele>
        <time>2019-06-21T12:14:21Z</time>
      </trkpt>
      <trkpt lat="43.322426" lon="-8.814062">
        <ele>31.961</ele>
        <time>2019-06-21T12:14:22Z</time>
      </trkpt>
      <trkpt lat="43.322416" lon="-8.814275">
        <ele>32.262</ele>
        <time>2019-06-21T12:14:23Z</time>
      </trkpt>
      <trkpt lat="43.322400" lon="-8.814476">
        <ele>33.883</ele>
        <time>2019-06-21T12:14:24Z</time>
      </trkpt>
      <trkpt lat="43.322357" lon="-8.814660">
        <ele>37.611</ele>
        <time>2019-06-21T12:14:25Z</time>
      </trkpt>
      <trkpt lat="43.322339" lon="-8.814880">
        <ele>40.608</ele>
        <time>2019-06-21T12:14:26Z</time>
      </trkpt>
      <trkpt lat="43.322327" lon="-8.815109">
        <ele>42.419</ele>
        <time>2019-06-21T12:14:27Z</time>
      </trkpt>
      <trkpt lat="43.322321" lon="-8.815294">
        <ele>42.473</ele>
        <time>2019-06-21T12:14:28Z</time>
      </trkpt>
      <trkpt lat="43.322286" lon="-8.815491">
        <ele>42.555</ele>
        <time>2019-06-21T12:14:29Z</time>
      </trkpt>
      <trkpt lat="43.322284" lon="-8.815667">
        <ele>41.727</ele>
        <time>2019-06-21T12:14:30Z</time>
      </trkpt>
      <trkpt lat="43.322302" lon="-8.815837">
        <ele>40.694</ele>
        <time>2019-06-21T12:14:31Z</time>
      </trkpt>
      <trkpt lat="43.322331" lon="-8.816025">
        <ele>41.780</ele>
        <time>2019-06-21T12:14:32Z</time>
      </trkpt>
      <trkpt lat="43.322338" lon="-8.816176">
        <ele>43.284</ele>
        <time>2019-06-21T12:14:33Z</time>
      </trkpt>
      <trkpt lat="43.322360" lon="-8.816328">
        <ele>44.846</ele>
        <time>2019-06-21T12:14:34Z</time>
      </trkpt>
      <trkpt lat="43.322371" lon="-8.816474">
        <ele>46.143</ele>
        <time>2019-06-21T12:14:35Z</time>
      </trkpt>
      <trkpt lat="43.322339" lon="-8.816609">
        <ele>47.964</ele>
        <time>2019-06-21T12:14:36Z</time>
      </trkpt>
      <trkpt lat="43.322311" lon="-8.816743">
        <ele>49.010</ele>
        <time>2019-06-21T12:14:37Z</time>
      </trkpt>
      <trkpt lat="43.322252" lon="-8.816865">
        <ele>50.308</ele>
        <time>2019-06-21T12:14:38Z</time>
      </trkpt>
      <trkpt lat="43.322201" lon="-8.816996">
        <ele>50.857</ele>
        <time>2019-06-21T12:14:39Z</time>
      </trkpt>
      <trkpt lat="43.322069" lon="-8.817120">
        <ele>53.271</ele>
        <time>2019-06-21T12:14:40Z</time>
      </trkpt>
      <trkpt lat="43.321958" lon="-8.817260">
        <ele>56.023</ele>
        <time>2019-06-21T12:14:41Z</time>
      </trkpt>
      <trkpt lat="43.321853" lon="-8.817399">
        <ele>56.435</ele>
        <time>2019-06-21T12:14:42Z</time>
      </trkpt>
      <trkpt lat="43.321724" lon="-8.817535">
        <ele>58.122</ele>
        <time>2019-06-21T12:14:43Z</time>
      </trkpt>
      <trkpt lat="43.321607" lon="-8.817667">
        <ele>58.268</ele>
        <time>2019-06-21T12:14:44Z</time>
      </trkpt>
      <trkpt lat="43.321489" lon="-8.817806">
        <ele>57.692</ele>
        <time>2019-06-21T12:14:45Z</time>
      </trkpt>
      <trkpt lat="43.321365" lon="-8.817950">
        <ele>57.564</ele>
        <time>2019-06-21T12:14:46Z</time>
      </trkpt>
      <trkpt lat="43.321247" lon="-8.818105">
        <ele>57.655</ele>
        <time>2019-06-21T12:14:47Z</time>
      </trkpt>
      <trkpt lat="43.321130" lon="-8.818268">
        <ele>57.507</ele>
        <time>2019-06-21T12:14:48Z</time>
      </trkpt>
      <trkpt lat="43.321009" lon="-8.818439">
        <ele>58.217</ele>
        <time>2019-06-21T12:14:49Z</time>
      </trkpt>
      <trkpt lat="43.320891" lon="-8.818597">
        <ele>58.508</ele>
        <time>2019-06-21T12:14:50Z</time>
      </trkpt>
      <trkpt lat="43.320775" lon="-8.818756">
        <ele>59.928</ele>
        <time>2019-06-21T12:14:51Z</time>
      </trkpt>
      <trkpt lat="43.320660" lon="-8.818911">
        <ele>61.522</ele>
        <time>2019-06-21T12:14:52Z</time>
      </trkpt>
      <trkpt lat="43.320553" lon="-8.819069">
        <ele>63.734</ele>
        <time>2019-06-21T12:14:53Z</time>
      </trkpt>
      <trkpt lat="43.320447" lon="-8.819221">
        <ele>65.186</ele>
        <time>2019-06-21T12:14:54Z</time>
      </trkpt>
      <trkpt lat="43.320348" lon="-8.819367">
        <ele>66.193</ele>
        <time>2019-06-21T12:14:55Z</time>
      </trkpt>
      <trkpt lat="43.320262" lon="-8.819484">
        <ele>67.049</ele>
        <time>2019-06-21T12:14:56Z</time>
      </trkpt>
      <trkpt lat="43.320171" lon="-8.819599">
        <ele>67.673</ele>
        <time>2019-06-21T12:14:57Z</time>
      </trkpt>
      <trkpt lat="43.320091" lon="-8.819721">
        <ele>68.085</ele>
        <time>2019-06-21T12:14:58Z</time>
      </trkpt>
      <trkpt lat="43.320005" lon="-8.819843">
        <ele>68.572</ele>
        <time>2019-06-21T12:14:59Z</time>
      </trkpt>
      <trkpt lat="43.319933" lon="-8.819971">
        <ele>69.113</ele>
        <time>2019-06-21T12:15:00Z</time>
      </trkpt>
      <trkpt lat="43.319856" lon="-8.820124">
        <ele>70.114</ele>
        <time>2019-06-21T12:15:01Z</time>
      </trkpt>
      <trkpt lat="43.319788" lon="-8.820263">
        <ele>70.608</ele>
        <time>2019-06-21T12:15:02Z</time>
      </trkpt>
      <trkpt lat="43.319684" lon="-8.820427">
        <ele>69.910</ele>
        <time>2019-06-21T12:15:03Z</time>
      </trkpt>
      <trkpt lat="43.319583" lon="-8.820593">
        <ele>68.224</ele>
        <time>2019-06-21T12:15:04Z</time>
      </trkpt>
      <trkpt lat="43.319474" lon="-8.820737">
        <ele>66.766</ele>
        <time>2019-06-21T12:15:05Z</time>
      </trkpt>
      <trkpt lat="43.319346" lon="-8.820898">
        <ele>66.668</ele>
        <time>2019-06-21T12:15:06Z</time>
      </trkpt>
      <trkpt lat="43.319232" lon="-8.821026">
        <ele>67.065</ele>
        <time>2019-06-21T12:15:07Z</time>
      </trkpt>
      <trkpt lat="43.319095" lon="-8.821176">
        <ele>67.681</ele>
        <time>2019-06-21T12:15:08Z</time>
      </trkpt>
      <trkpt lat="43.318959" lon="-8.821312">
        <ele>68.115</ele>
        <time>2019-06-21T12:15:09Z</time>
      </trkpt>
      <trkpt lat="43.318841" lon="-8.821450">
        <ele>67.987</ele>
        <time>2019-06-21T12:15:10Z</time>
      </trkpt>
      <trkpt lat="43.318729" lon="-8.821587">
        <ele>67.289</ele>
        <time>2019-06-21T12:15:11Z</time>
      </trkpt>
      <trkpt lat="43.318622" lon="-8.821722">
        <ele>66.106</ele>
        <time>2019-06-21T12:15:12Z</time>
      </trkpt>
      <trkpt lat="43.318509" lon="-8.821873">
        <ele>65.626</ele>
        <time>2019-06-21T12:15:13Z</time>
      </trkpt>
      <trkpt lat="43.318413" lon="-8.822037">
        <ele>65.308</ele>
        <time>2019-06-21T12:15:14Z</time>
      </trkpt>
      <trkpt lat="43.318331" lon="-8.822215">
        <ele>65.021</ele>
        <time>2019-06-21T12:15:15Z</time>
      </trkpt>
      <trkpt lat="43.318246" lon="-8.822391">
        <ele>65.015</ele>
        <time>2019-06-21T12:15:16Z</time>
      </trkpt>
      <trkpt lat="43.318165" lon="-8.822565">
        <ele>65.037</ele>
        <time>2019-06-21T12:15:17Z</time>
      </trkpt>
      <trkpt lat="43.318107" lon="-8.822734">
        <ele>64.749</ele>
        <time>2019-06-21T12:15:18Z</time>
      </trkpt>
      <trkpt lat="43.318038" lon="-8.822901">
        <ele>63.826</ele>
        <time>2019-06-21T12:15:19Z</time>
      </trkpt>
      <trkpt lat="43.317976" lon="-8.823053">
        <ele>63.172</ele>
        <time>2019-06-21T12:15:20Z</time>
      </trkpt>
      <trkpt lat="43.317911" lon="-8.823210">
        <ele>62.796</ele>
        <time>2019-06-21T12:15:21Z</time>
      </trkpt>
      <trkpt lat="43.317849" lon="-8.823368">
        <ele>62.188</ele>
        <time>2019-06-21T12:15:22Z</time>
      </trkpt>
      <trkpt lat="43.317796" lon="-8.823521">
        <ele>61.956</ele>
        <time>2019-06-21T12:15:23Z</time>
      </trkpt>
      <trkpt lat="43.317767" lon="-8.823675">
        <ele>61.959</ele>
        <time>2019-06-21T12:15:24Z</time>
      </trkpt>
      <trkpt lat="43.317723" lon="-8.823833">
        <ele>61.414</ele>
        <time>2019-06-21T12:15:25Z</time>
      </trkpt>
      <trkpt lat="43.317687" lon="-8.823987">
        <ele>60.608</ele>
        <time>2019-06-21T12:15:26Z</time>
      </trkpt>
      <trkpt lat="43.317749" lon="-8.824142">
        <ele>60.718</ele>
        <time>2019-06-21T12:15:27Z</time>
      </trkpt>
      <trkpt lat="43.317803" lon="-8.824272">
        <ele>59.622</ele>
        <time>2019-06-21T12:15:28Z</time>
      </trkpt>
      <trkpt lat="43.317870" lon="-8.824416">
        <ele>58.034</ele>
        <time>2019-06-21T12:15:29Z</time>
      </trkpt>
      <trkpt lat="43.317943" lon="-8.824555">
        <ele>57.286</ele>
        <time>2019-06-21T12:15:30Z</time>
      </trkpt>
      <trkpt lat="43.318038" lon="-8.824698">
        <ele>56.213</ele>
        <time>2019-06-21T12:15:31Z</time>
      </trkpt>
      <trkpt lat="43.318117" lon="-8.824870">
        <ele>54.969</ele>
        <time>2019-06-21T12:15:32Z</time>
      </trkpt>
      <trkpt lat="43.318191" lon="-8.825042">
        <ele>53.863</ele>
        <time>2019-06-21T12:15:33Z</time>
      </trkpt>
      <trkpt lat="43.318258" lon="-8.825217">
        <ele>53.225</ele>
        <time>2019-06-21T12:15:34Z</time>
      </trkpt>
      <trkpt lat="43.318303" lon="-8.825407">
        <ele>52.161</ele>
        <time>2019-06-21T12:15:35Z</time>
      </trkpt>
      <trkpt lat="43.318344" lon="-8.825608">
        <ele>50.821</ele>
        <time>2019-06-21T12:15:36Z</time>
      </trkpt>
      <trkpt lat="43.318386" lon="-8.825824">
        <ele>50.213</ele>
        <time>2019-06-21T12:15:37Z</time>
      </trkpt>
      <trkpt lat="43.318426" lon="-8.826040">
        <ele>49.608</ele>
        <time>2019-06-21T12:15:38Z</time>
      </trkpt>
      <trkpt lat="43.318467" lon="-8.826250">
        <ele>49.079</ele>
        <time>2019-06-21T12:15:39Z</time>
      </trkpt>
      <trkpt lat="43.318507" lon="-8.826456">
        <ele>48.423</ele>
        <time>2019-06-21T12:15:40Z</time>
      </trkpt>
      <trkpt lat="43.318557" lon="-8.826651">
        <ele>47.975</ele>
        <time>2019-06-21T12:15:41Z</time>
      </trkpt>
      <trkpt lat="43.318612" lon="-8.826846">
        <ele>47.417</ele>
        <time>2019-06-21T12:15:42Z</time>
      </trkpt>
      <trkpt lat="43.318681" lon="-8.827031">
        <ele>46.794</ele>
        <time>2019-06-21T12:15:43Z</time>
      </trkpt>
      <trkpt lat="43.318756" lon="-8.827190">
        <ele>46.180</ele>
        <time>2019-06-21T12:15:44Z</time>
      </trkpt>
      <trkpt lat="43.318833" lon="-8.827355">
        <ele>45.574</ele>
        <time>2019-06-21T12:15:45Z</time>
      </trkpt>
      <trkpt lat="43.318901" lon="-8.827514">
        <ele>45.096</ele>
        <time>2019-06-21T12:15:46Z</time>
      </trkpt>
      <trkpt lat="43.318956" lon="-8.827682">
        <ele>44.311</ele>
        <time>2019-06-21T12:15:47Z</time>
      </trkpt>
      <trkpt lat="43.318984" lon="-8.827841">
        <ele>43.921</ele>
        <time>2019-06-21T12:15:48Z</time>
      </trkpt>
      <trkpt lat="43.318997" lon="-8.828013">
        <ele>43.503</ele>
        <time>2019-06-21T12:15:49Z</time>
      </trkpt>
      <trkpt lat="43.318994" lon="-8.828178">
        <ele>42.908</ele>
        <time>2019-06-21T12:15:50Z</time>
      </trkpt>
      <trkpt lat="43.318931" lon="-8.828318">
        <ele>42.274</ele>
        <time>2019-06-21T12:15:51Z</time>
      </trkpt>
      <trkpt lat="43.318858" lon="-8.828457">
        <ele>41.638</ele>
        <time>2019-06-21T12:15:52Z</time>
      </trkpt>
      <trkpt lat="43.318768" lon="-8.828610">
        <ele>41.070</ele>
        <time>2019-06-21T12:15:53Z</time>
      </trkpt>
      <trkpt lat="43.318669" lon="-8.828742">
        <ele>40.552</ele>
        <time>2019-06-21T12:15:54Z</time>
      </trkpt>
      <trkpt lat="43.318568" lon="-8.828872">
        <ele>40.199</ele>
        <time>2019-06-21T12:15:55Z</time>
      </trkpt>
      <trkpt lat="43.318482" lon="-8.829015">
        <ele>39.325</ele>
        <time>2019-06-21T12:15:56Z</time>
      </trkpt>
      <trkpt lat="43.318416" lon="-8.829174">
        <ele>38.729</ele>
        <time>2019-06-21T12:15:57Z</time>
      </trkpt>
      <trkpt lat="43.318379" lon="-8.829341">
        <ele>38.241</ele>
        <time>2019-06-21T12:15:58Z</time>
      </trkpt>
      <trkpt lat="43.318366" lon="-8.829528">
        <ele>37.963</ele>
        <time>2019-06-21T12:15:59Z</time>
      </trkpt>
      <trkpt lat="43.318372" lon="-8.829736">
        <ele>37.944</ele>
        <time>2019-06-21T12:16:00Z</time>
      </trkpt>
      <trkpt lat="43.318379" lon="-8.829955">
        <ele>37.818</ele>
        <time>2019-06-21T12:16:01Z</time>
      </trkpt>
      <trkpt lat="43.318393" lon="-8.830192">
        <ele>37.908</ele>
        <time>2019-06-21T12:16:02Z</time>
      </trkpt>
      <trkpt lat="43.318405" lon="-8.830441">
        <ele>38.639</ele>
        <time>2019-06-21T12:16:03Z</time>
      </trkpt>
      <trkpt lat="43.318407" lon="-8.830692">
        <ele>39.123</ele>
        <time>2019-06-21T12:16:04Z</time>
      </trkpt>
      <trkpt lat="43.318396" lon="-8.830942">
        <ele>39.185</ele>
        <time>2019-06-21T12:16:05Z</time>
      </trkpt>
      <trkpt lat="43.318375" lon="-8.831198">
        <ele>38.797</ele>
        <time>2019-06-21T12:16:06Z</time>
      </trkpt>
      <trkpt lat="43.318349" lon="-8.831467">
        <ele>37.764</ele>
        <time>2019-06-21T12:16:07Z</time>
      </trkpt>
      <trkpt lat="43.318315" lon="-8.831737">
        <ele>36.830</ele>
        <time>2019-06-21T12:16:08Z</time>
      </trkpt>
      <trkpt lat="43.318288" lon="-8.832016">
        <ele>36.174</ele>
        <time>2019-06-21T12:16:09Z</time>
      </trkpt>
      <trkpt lat="43.318262" lon="-8.832293">
        <ele>35.956</ele>
        <time>2019-06-21T12:16:10Z</time>
      </trkpt>
      <trkpt lat="43.318233" lon="-8.832571">
        <ele>35.678</ele>
        <time>2019-06-21T12:16:11Z</time>
      </trkpt>
      <trkpt lat="43.318208" lon="-8.832844">
        <ele>35.433</ele>
        <time>2019-06-21T12:16:12Z</time>
      </trkpt>
      <trkpt lat="43.318174" lon="-8.833118">
        <ele>35.126</ele>
        <time>2019-06-21T12:16:13Z</time>
      </trkpt>
      <trkpt lat="43.318165" lon="-8.833376">
        <ele>35.508</ele>
        <time>2019-06-21T12:16:14Z</time>
      </trkpt>
      <trkpt lat="43.318159" lon="-8.833637">
        <ele>35.040</ele>
        <time>2019-06-21T12:16:15Z</time>
      </trkpt>
      <trkpt lat="43.318172" lon="-8.833898">
        <ele>35.044</ele>
        <time>2019-06-21T12:16:16Z</time>
      </trkpt>
      <trkpt lat="43.318209" lon="-8.834164">
        <ele>35.596</ele>
        <time>2019-06-21T12:16:17Z</time>
      </trkpt>
      <trkpt lat="43.318264" lon="-8.834423">
        <ele>36.028</ele>
        <time>2019-06-21T12:16:18Z</time>
      </trkpt>
      <trkpt lat="43.318323" lon="-8.834682">
        <ele>36.045</ele>
        <time>2019-06-21T12:16:19Z</time>
      </trkpt>
      <trkpt lat="43.318380" lon="-8.834921">
        <ele>36.211</ele>
        <time>2019-06-21T12:16:20Z</time>
      </trkpt>
      <trkpt lat="43.318423" lon="-8.835163">
        <ele>36.345</ele>
        <time>2019-06-21T12:16:21Z</time>
      </trkpt>
      <trkpt lat="43.318448" lon="-8.835427">
        <ele>37.027</ele>
        <time>2019-06-21T12:16:22Z</time>
      </trkpt>
      <trkpt lat="43.318459" lon="-8.835692">
        <ele>37.983</ele>
        <time>2019-06-21T12:16:23Z</time>
      </trkpt>
      <trkpt lat="43.318457" lon="-8.835960">
        <ele>38.725</ele>
        <time>2019-06-21T12:16:24Z</time>
      </trkpt>
      <trkpt lat="43.318448" lon="-8.836226">
        <ele>39.417</ele>
        <time>2019-06-21T12:16:25Z</time>
      </trkpt>
      <trkpt lat="43.318437" lon="-8.836481">
        <ele>40.508</ele>
        <time>2019-06-21T12:16:26Z</time>
      </trkpt>
      <trkpt lat="43.318424" lon="-8.836726">
        <ele>41.641</ele>
        <time>2019-06-21T12:16:27Z</time>
      </trkpt>
      <trkpt lat="43.318378" lon="-8.836921">
        <ele>42.265</ele>
        <time>2019-06-21T12:16:28Z</time>
      </trkpt>
      <trkpt lat="43.318323" lon="-8.837107">
        <ele>42.697</ele>
        <time>2019-06-21T12:16:29Z</time>
      </trkpt>
      <trkpt lat="43.318259" lon="-8.837273">
        <ele>42.769</ele>
        <time>2019-06-21T12:16:30Z</time>
      </trkpt>
      <trkpt lat="43.318186" lon="-8.837425">
        <ele>42.576</ele>
        <time>2019-06-21T12:16:31Z</time>
      </trkpt>
      <trkpt lat="43.318124" lon="-8.837579">
        <ele>42.222</ele>
        <time>2019-06-21T12:16:32Z</time>
      </trkpt>
      <trkpt lat="43.318081" lon="-8.837741">
        <ele>42.196</ele>
        <time>2019-06-21T12:16:33Z</time>
      </trkpt>
      <trkpt lat="43.318065" lon="-8.837914">
        <ele>41.668</ele>
        <time>2019-06-21T12:16:34Z</time>
      </trkpt>
      <trkpt lat="43.318063" lon="-8.838078">
        <ele>41.148</ele>
        <time>2019-06-21T12:16:35Z</time>
      </trkpt>
      <trkpt lat="43.318049" lon="-8.838259">
        <ele>41.761</ele>
        <time>2019-06-21T12:16:36Z</time>
      </trkpt>
      <trkpt lat="43.318049" lon="-8.838444">
        <ele>42.417</ele>
        <time>2019-06-21T12:16:37Z</time>
      </trkpt>
      <trkpt lat="43.318044" lon="-8.838638">
        <ele>42.908</ele>
        <time>2019-06-21T12:16:38Z</time>
      </trkpt>
      <trkpt lat="43.318042" lon="-8.838836">
        <ele>42.967</ele>
        <time>2019-06-21T12:16:39Z</time>
      </trkpt>
      <trkpt lat="43.318032" lon="-8.839047">
        <ele>42.931</ele>
        <time>2019-06-21T12:16:40Z</time>
      </trkpt>
      <trkpt lat="43.318040" lon="-8.839273">
        <ele>42.953</ele>
        <time>2019-06-21T12:16:41Z</time>
      </trkpt>
      <trkpt lat="43.318039" lon="-8.839497">
        <ele>42.735</ele>
        <time>2019-06-21T12:16:42Z</time>
      </trkpt>
      <trkpt lat="43.318038" lon="-8.839737">
        <ele>42.092</ele>
        <time>2019-06-21T12:16:43Z</time>
      </trkpt>
      <trkpt lat="43.318026" lon="-8.839974">
        <ele>42.078</ele>
        <time>2019-06-21T12:16:44Z</time>
      </trkpt>
      <trkpt lat="43.318002" lon="-8.840196">
        <ele>42.092</ele>
        <time>2019-06-21T12:16:45Z</time>
      </trkpt>
      <trkpt lat="43.317956" lon="-8.840424">
        <ele>42.074</ele>
        <time>2019-06-21T12:16:46Z</time>
      </trkpt>
      <trkpt lat="43.317908" lon="-8.840650">
        <ele>42.239</ele>
        <time>2019-06-21T12:16:47Z</time>
      </trkpt>
      <trkpt lat="43.317851" lon="-8.840877">
        <ele>42.301</ele>
        <time>2019-06-21T12:16:48Z</time>
      </trkpt>
      <trkpt lat="43.317806" lon="-8.841092">
        <ele>42.121</ele>
        <time>2019-06-21T12:16:49Z</time>
      </trkpt>
      <trkpt lat="43.317760" lon="-8.841295">
        <ele>41.308</ele>
        <time>2019-06-21T12:16:50Z</time>
      </trkpt>
      <trkpt lat="43.317712" lon="-8.841494">
        <ele>40.826</ele>
        <time>2019-06-21T12:16:51Z</time>
      </trkpt>
      <trkpt lat="43.317666" lon="-8.841687">
        <ele>40.660</ele>
        <time>2019-06-21T12:16:52Z</time>
      </trkpt>
      <trkpt lat="43.317629" lon="-8.841861">
        <ele>40.142</ele>
        <time>2019-06-21T12:16:53Z</time>
      </trkpt>
      <trkpt lat="43.317584" lon="-8.842030">
        <ele>39.944</ele>
        <time>2019-06-21T12:16:54Z</time>
      </trkpt>
      <trkpt lat="43.317539" lon="-8.842167">
        <ele>39.951</ele>
        <time>2019-06-21T12:16:55Z</time>
      </trkpt>
      <trkpt lat="43.317489" lon="-8.842293">
        <ele>39.797</ele>
        <time>2019-06-21T12:16:56Z</time>
      </trkpt>
      <trkpt lat="43.317418" lon="-8.842390">
        <ele>39.381</ele>
        <time>2019-06-21T12:16:57Z</time>
      </trkpt>
      <trkpt lat="43.317330" lon="-8.842464">
        <ele>39.063</ele>
        <time>2019-06-21T12:16:58Z</time>
      </trkpt>
      <trkpt lat="43.317212" lon="-8.842547">
        <ele>39.074</ele>
        <time>2019-06-21T12:16:59Z</time>
      </trkpt>
      <trkpt lat="43.317086" lon="-8.842628">
        <ele>38.756</ele>
        <time>2019-06-21T12:17:00Z</time>
      </trkpt>
      <trkpt lat="43.316947" lon="-8.842713">
        <ele>38.821</ele>
        <time>2019-06-21T12:17:01Z</time>
      </trkpt>
      <trkpt lat="43.316798" lon="-8.842798">
        <ele>38.508</ele>
        <time>2019-06-21T12:17:02Z</time>
      </trkpt>
      <trkpt lat="43.316649" lon="-8.842888">
        <ele>38.320</ele>
        <time>2019-06-21T12:17:03Z</time>
      </trkpt>
      <trkpt lat="43.316505" lon="-8.842970">
        <ele>38.134</ele>
        <time>2019-06-21T12:17:04Z</time>
      </trkpt>
      <trkpt lat="43.316362" lon="-8.843053">
        <ele>37.736</ele>
        <time>2019-06-21T12:17:05Z</time>
      </trkpt>
      <trkpt lat="43.316222" lon="-8.843130">
        <ele>36.538</ele>
        <time>2019-06-21T12:17:06Z</time>
      </trkpt>
      <trkpt lat="43.316100" lon="-8.843228">
        <ele>36.285</ele>
        <time>2019-06-21T12:17:07Z</time>
      </trkpt>
      <trkpt lat="43.315962" lon="-8.843306">
        <ele>35.821</ele>
        <time>2019-06-21T12:17:08Z</time>
      </trkpt>
      <trkpt lat="43.315842" lon="-8.843394">
        <ele>35.375</ele>
        <time>2019-06-21T12:17:09Z</time>
      </trkpt>
      <trkpt lat="43.315732" lon="-8.843506">
        <ele>35.667</ele>
        <time>2019-06-21T12:17:10Z</time>
      </trkpt>
      <trkpt lat="43.315633" lon="-8.843621">
        <ele>36.019</ele>
        <time>2019-06-21T12:17:11Z</time>
      </trkpt>
      <trkpt lat="43.315547" lon="-8.843750">
        <ele>36.409</ele>
        <time>2019-06-21T12:17:12Z</time>
      </trkpt>
      <trkpt lat="43.315470" lon="-8.843896">
        <ele>36.419</ele>
        <time>2019-06-21T12:17:13Z</time>
      </trkpt>
      <trkpt lat="43.315388" lon="-8.844056">
        <ele>36.008</ele>
        <time>2019-06-21T12:17:14Z</time>
      </trkpt>
      <trkpt lat="43.315303" lon="-8.844214">
        <ele>35.334</ele>
        <time>2019-06-21T12:17:15Z</time>
      </trkpt>
      <trkpt lat="43.315213" lon="-8.844369">
        <ele>34.598</ele>
        <time>2019-06-21T12:17:16Z</time>
      </trkpt>
      <trkpt lat="43.315113" lon="-8.844518">
        <ele>33.970</ele>
        <time>2019-06-21T12:17:17Z</time>
      </trkpt>
      <trkpt lat="43.314999" lon="-8.844653">
        <ele>33.012</ele>
        <time>2019-06-21T12:17:18Z</time>
      </trkpt>
      <trkpt lat="43.314878" lon="-8.844776">
        <ele>32.349</ele>
        <time>2019-06-21T12:17:19Z</time>
      </trkpt>
      <trkpt lat="43.314750" lon="-8.844883">
        <ele>31.835</ele>
        <time>2019-06-21T12:17:20Z</time>
      </trkpt>
      <trkpt lat="43.314624" lon="-8.844976">
        <ele>31.239</ele>
        <time>2019-06-21T12:17:21Z</time>
      </trkpt>
      <trkpt lat="43.314501" lon="-8.845057">
        <ele>30.651</ele>
        <time>2019-06-21T12:17:22Z</time>
      </trkpt>
      <trkpt lat="43.314375" lon="-8.845134">
        <ele>30.272</ele>
        <time>2019-06-21T12:17:23Z</time>
      </trkpt>
      <trkpt lat="43.314256" lon="-8.845192">
        <ele>30.013</ele>
        <time>2019-06-21T12:17:24Z</time>
      </trkpt>
      <trkpt lat="43.314133" lon="-8.845236">
        <ele>29.714</ele>
        <time>2019-06-21T12:17:25Z</time>
      </trkpt>
      <trkpt lat="43.314012" lon="-8.845273">
        <ele>29.408</ele>
        <time>2019-06-21T12:17:26Z</time>
      </trkpt>
      <trkpt lat="43.313895" lon="-8.845303">
        <ele>29.140</ele>
        <time>2019-06-21T12:17:27Z</time>
      </trkpt>
      <trkpt lat="43.313786" lon="-8.845352">
        <ele>29.234</ele>
        <time>2019-06-21T12:17:28Z</time>
      </trkpt>
      <trkpt lat="43.313686" lon="-8.845395">
        <ele>29.146</ele>
        <time>2019-06-21T12:17:29Z</time>
      </trkpt>
      <trkpt lat="43.313587" lon="-8.845449">
        <ele>28.928</ele>
        <time>2019-06-21T12:17:30Z</time>
      </trkpt>
      <trkpt lat="43.313497" lon="-8.845504">
        <ele>28.665</ele>
        <time>2019-06-21T12:17:31Z</time>
      </trkpt>
      <trkpt lat="43.313393" lon="-8.845575">
        <ele>28.241</ele>
        <time>2019-06-21T12:17:32Z</time>
      </trkpt>
      <trkpt lat="43.313281" lon="-8.845669">
        <ele>27.825</ele>
        <time>2019-06-21T12:17:33Z</time>
      </trkpt>
      <trkpt lat="43.313165" lon="-8.845784">
        <ele>27.447</ele>
        <time>2019-06-21T12:17:34Z</time>
      </trkpt>
      <trkpt lat="43.313053" lon="-8.845911">
        <ele>27.016</ele>
        <time>2019-06-21T12:17:35Z</time>
      </trkpt>
      <trkpt lat="43.312928" lon="-8.846052">
        <ele>27.076</ele>
        <time>2019-06-21T12:17:36Z</time>
      </trkpt>
      <trkpt lat="43.312808" lon="-8.846199">
        <ele>26.713</ele>
        <time>2019-06-21T12:17:37Z</time>
      </trkpt>
      <trkpt lat="43.312689" lon="-8.846333">
        <ele>26.508</ele>
        <time>2019-06-21T12:17:38Z</time>
      </trkpt>
      <trkpt lat="43.312575" lon="-8.846467">
        <ele>26.594</ele>
        <time>2019-06-21T12:17:39Z</time>
      </trkpt>
      <trkpt lat="43.312461" lon="-8.846579">
        <ele>26.498</ele>
        <time>2019-06-21T12:17:40Z</time>
      </trkpt>
      <trkpt lat="43.312357" lon="-8.846695">
        <ele>26.510</ele>
        <time>2019-06-21T12:17:41Z</time>
      </trkpt>
      <trkpt lat="43.312231" lon="-8.846778">
        <ele>27.072</ele>
        <time>2019-06-21T12:17:42Z</time>
      </trkpt>
      <trkpt lat="43.312097" lon="-8.846826">
        <ele>26.869</ele>
        <time>2019-06-21T12:17:43Z</time>
      </trkpt>
      <trkpt lat="43.311957" lon="-8.846850">
        <ele>26.745</ele>
        <time>2019-06-21T12:17:44Z</time>
      </trkpt>
      <trkpt lat="43.311812" lon="-8.846866">
        <ele>26.279</ele>
        <time>2019-06-21T12:17:45Z</time>
      </trkpt>
      <trkpt lat="43.311667" lon="-8.846882">
        <ele>25.871</ele>
        <time>2019-06-21T12:17:46Z</time>
      </trkpt>
      <trkpt lat="43.311517" lon="-8.846904">
        <ele>24.978</ele>
        <time>2019-06-21T12:17:47Z</time>
      </trkpt>
      <trkpt lat="43.311362" lon="-8.846938">
        <ele>23.933</ele>
        <time>2019-06-21T12:17:48Z</time>
      </trkpt>
      <trkpt lat="43.311201" lon="-8.847001">
        <ele>23.226</ele>
        <time>2019-06-21T12:17:49Z</time>
      </trkpt>
      <trkpt lat="43.311029" lon="-8.847074">
        <ele>22.108</ele>
        <time>2019-06-21T12:17:50Z</time>
      </trkpt>
      <trkpt lat="43.310864" lon="-8.847160">
        <ele>21.140</ele>
        <time>2019-06-21T12:17:51Z</time>
      </trkpt>
      <trkpt lat="43.310705" lon="-8.847255">
        <ele>19.934</ele>
        <time>2019-06-21T12:17:52Z</time>
      </trkpt>
      <trkpt lat="43.310559" lon="-8.847361">
        <ele>18.556</ele>
        <time>2019-06-21T12:17:53Z</time>
      </trkpt>
      <trkpt lat="43.310425" lon="-8.847495">
        <ele>18.088</ele>
        <time>2019-06-21T12:17:54Z</time>
      </trkpt>
      <trkpt lat="43.310302" lon="-8.847649">
        <ele>17.515</ele>
        <time>2019-06-21T12:17:55Z</time>
      </trkpt>
      <trkpt lat="43.310191" lon="-8.847832">
        <ele>17.041</ele>
        <time>2019-06-21T12:17:56Z</time>
      </trkpt>
      <trkpt lat="43.310093" lon="-8.848025">
        <ele>17.015</ele>
        <time>2019-06-21T12:17:57Z</time>
      </trkpt>
      <trkpt lat="43.310009" lon="-8.848213">
        <ele>17.067</ele>
        <time>2019-06-21T12:17:58Z</time>
      </trkpt>
      <trkpt lat="43.309943" lon="-8.848400">
        <ele>16.671</ele>
        <time>2019-06-21T12:17:59Z</time>
      </trkpt>
      <trkpt lat="43.309905" lon="-8.848593">
        <ele>16.341</ele>
        <time>2019-06-21T12:18:00Z</time>
      </trkpt>
      <trkpt lat="43.309898" lon="-8.848789">
        <ele>15.915</ele>
        <time>2019-06-21T12:18:01Z</time>
      </trkpt>
      <trkpt lat="43.309907" lon="-8.849014">
        <ele>15.208</ele>
        <time>2019-06-21T12:18:02Z</time>
      </trkpt>
      <trkpt lat="43.309927" lon="-8.849253">
        <ele>14.220</ele>
        <time>2019-06-21T12:18:03Z</time>
      </trkpt>
      <trkpt lat="43.309940" lon="-8.849505">
        <ele>12.794</ele>
        <time>2019-06-21T12:18:04Z</time>
      </trkpt>
      <trkpt lat="43.309956" lon="-8.849761">
        <ele>11.756</ele>
        <time>2019-06-21T12:18:05Z</time>
      </trkpt>
      <trkpt lat="43.309966" lon="-8.850015">
        <ele>10.868</ele>
        <time>2019-06-21T12:18:06Z</time>
      </trkpt>
      <trkpt lat="43.309985" lon="-8.850266">
        <ele>9.155</ele>
        <time>2019-06-21T12:18:07Z</time>
      </trkpt>
      <trkpt lat="43.309992" lon="-8.850505">
        <ele>8.231</ele>
        <time>2019-06-21T12:18:08Z</time>
      </trkpt>
      <trkpt lat="43.310000" lon="-8.850730">
        <ele>7.475</ele>
        <time>2019-06-21T12:18:09Z</time>
      </trkpt>
      <trkpt lat="43.310006" lon="-8.850953">
        <ele>6.697</ele>
        <time>2019-06-21T12:18:10Z</time>
      </trkpt>
      <trkpt lat="43.310011" lon="-8.851151">
        <ele>6.089</ele>
        <time>2019-06-21T12:18:11Z</time>
      </trkpt>
      <trkpt lat="43.309997" lon="-8.851324">
        <ele>6.006</ele>
        <time>2019-06-21T12:18:12Z</time>
      </trkpt>
      <trkpt lat="43.309958" lon="-8.851481">
        <ele>6.726</ele>
        <time>2019-06-21T12:18:13Z</time>
      </trkpt>
      <trkpt lat="43.309913" lon="-8.851617">
        <ele>7.908</ele>
        <time>2019-06-21T12:18:14Z</time>
      </trkpt>
      <trkpt lat="43.309851" lon="-8.851725">
        <ele>9.151</ele>
        <time>2019-06-21T12:18:15Z</time>
      </trkpt>
      <trkpt lat="43.309728" lon="-8.851757">
        <ele>9.655</ele>
        <time>2019-06-21T12:18:16Z</time>
      </trkpt>
      <trkpt lat="43.309619" lon="-8.851787">
        <ele>10.847</ele>
        <time>2019-06-21T12:18:17Z</time>
      </trkpt>
      <trkpt lat="43.309494" lon="-8.851791">
        <ele>11.969</ele>
        <time>2019-06-21T12:18:18Z</time>
      </trkpt>
      <trkpt lat="43.309370" lon="-8.851780">
        <ele>12.486</ele>
        <time>2019-06-21T12:18:19Z</time>
      </trkpt>
      <trkpt lat="43.309248" lon="-8.851829">
        <ele>13.032</ele>
        <time>2019-06-21T12:18:20Z</time>
      </trkpt>
      <trkpt lat="43.309131" lon="-8.851877">
        <ele>13.356</ele>
        <time>2019-06-21T12:18:21Z</time>
      </trkpt>
      <trkpt lat="43.309031" lon="-8.851987">
        <ele>13.368</ele>
        <time>2019-06-21T12:18:22Z</time>
      </trkpt>
      <trkpt lat="43.308939" lon="-8.852139">
        <ele>13.811</ele>
        <time>2019-06-21T12:18:23Z</time>
      </trkpt>
      <trkpt lat="43.308841" lon="-8.852307">
        <ele>14.421</ele>
        <time>2019-06-21T12:18:24Z</time>
      </trkpt>
      <trkpt lat="43.308749" lon="-8.852496">
        <ele>15.503</ele>
        <time>2019-06-21T12:18:25Z</time>
      </trkpt>
      <trkpt lat="43.308641" lon="-8.852691">
        <ele>16.608</ele>
        <time>2019-06-21T12:18:26Z</time>
      </trkpt>
      <trkpt lat="43.308533" lon="-8.852880">
        <ele>16.824</ele>
        <time>2019-06-21T12:18:27Z</time>
      </trkpt>
      <trkpt lat="43.308389" lon="-8.853017">
        <ele>16.918</ele>
        <time>2019-06-21T12:18:28Z</time>
      </trkpt>
      <trkpt lat="43.308249" lon="-8.853174">
        <ele>16.850</ele>
        <time>2019-06-21T12:18:29Z</time>
      </trkpt>
      <trkpt lat="43.308107" lon="-8.853341">
        <ele>17.082</ele>
        <time>2019-06-21T12:18:30Z</time>
      </trkpt>
      <trkpt lat="43.307971" lon="-8.853498">
        <ele>16.649</ele>
        <time>2019-06-21T12:18:31Z</time>
      </trkpt>
      <trkpt lat="43.307839" lon="-8.853654">
        <ele>16.845</ele>
        <time>2019-06-21T12:18:32Z</time>
      </trkpt>
      <trkpt lat="43.307717" lon="-8.853792">
        <ele>17.449</ele>
        <time>2019-06-21T12:18:33Z</time>
      </trkpt>
      <trkpt lat="43.307626" lon="-8.853956">
        <ele>18.521</ele>
        <time>2019-06-21T12:18:34Z</time>
      </trkpt>
      <trkpt lat="43.307535" lon="-8.854121">
        <ele>20.391</ele>
        <time>2019-06-21T12:18:35Z</time>
      </trkpt>
      <trkpt lat="43.307455" lon="-8.854281">
        <ele>21.681</ele>
        <time>2019-06-21T12:18:36Z</time>
      </trkpt>
      <trkpt lat="43.307472" lon="-8.854484">
        <ele>22.319</ele>
        <time>2019-06-21T12:18:37Z</time>
      </trkpt>
      <trkpt lat="43.307457" lon="-8.854676">
        <ele>23.008</ele>
        <time>2019-06-21T12:18:38Z</time>
      </trkpt>
      <trkpt lat="43.307490" lon="-8.854901">
        <ele>24.312</ele>
        <time>2019-06-21T12:18:39Z</time>
      </trkpt>
      <trkpt lat="43.307498" lon="-8.855099">
        <ele>25.446</ele>
        <time>2019-06-21T12:18:40Z</time>
      </trkpt>
      <trkpt lat="43.307500" lon="-8.855275">
        <ele>26.038</ele>
        <time>2019-06-21T12:18:41Z</time>
      </trkpt>
      <trkpt lat="43.307490" lon="-8.855464">
        <ele>26.050</ele>
        <time>2019-06-21T12:18:42Z</time>
      </trkpt>
      <trkpt lat="43.307476" lon="-8.855657">
        <ele>25.447</ele>
        <time>2019-06-21T12:18:43Z</time>
      </trkpt>
      <trkpt lat="43.307370" lon="-8.855805">
        <ele>24.793</ele>
        <time>2019-06-21T12:18:44Z</time>
      </trkpt>
      <trkpt lat="43.307299" lon="-8.855978">
        <ele>24.237</ele>
        <time>2019-06-21T12:18:45Z</time>
      </trkpt>
      <trkpt lat="43.307199" lon="-8.856120">
        <ele>24.169</ele>
        <time>2019-06-21T12:18:46Z</time>
      </trkpt>
      <trkpt lat="43.307113" lon="-8.856285">
        <ele>23.219</ele>
        <time>2019-06-21T12:18:47Z</time>
      </trkpt>
      <trkpt lat="43.307046" lon="-8.856431">
        <ele>22.409</ele>
        <time>2019-06-21T12:18:48Z</time>
      </trkpt>
      <trkpt lat="43.306983" lon="-8.856572">
        <ele>21.619</ele>
        <time>2019-06-21T12:18:49Z</time>
      </trkpt>
      <trkpt lat="43.306928" lon="-8.856694">
        <ele>21.108</ele>
        <time>2019-06-21T12:18:50Z</time>
      </trkpt>
      <trkpt lat="43.306865" lon="-8.856792">
        <ele>21.424</ele>
        <time>2019-06-21T12:18:51Z</time>
      </trkpt>
      <trkpt lat="43.306831" lon="-8.856887">
        <ele>21.158</ele>
        <time>2019-06-21T12:18:52Z</time>
      </trkpt>
      <trkpt lat="43.306841" lon="-8.856990">
        <ele>20.150</ele>
        <time>2019-06-21T12:18:53Z</time>
      </trkpt>
      <trkpt lat="43.306866" lon="-8.857110">
        <ele>18.862</ele>
        <time>2019-06-21T12:18:54Z</time>
      </trkpt>
      <trkpt lat="43.306912" lon="-8.857237">
        <ele>17.389</ele>
        <time>2019-06-21T12:18:55Z</time>
      </trkpt>
      <trkpt lat="43.306975" lon="-8.857368">
        <ele>16.835</ele>
        <time>2019-06-21T12:18:56Z</time>
      </trkpt>
      <trkpt lat="43.307058" lon="-8.857536">
        <ele>16.219</ele>
        <time>2019-06-21T12:18:57Z</time>
      </trkpt>
      <trkpt lat="43.307143" lon="-8.857695">
        <ele>15.631</ele>
        <time>2019-06-21T12:18:58Z</time>
      </trkpt>
      <trkpt lat="43.307235" lon="-8.857870">
        <ele>15.389</ele>
        <time>2019-06-21T12:18:59Z</time>
      </trkpt>
      <trkpt lat="43.307335" lon="-8.858054">
        <ele>15.606</ele>
        <time>2019-06-21T12:19:00Z</time>
      </trkpt>
      <trkpt lat="43.307443" lon="-8.858249">
        <ele>17.026</ele>
        <time>2019-06-21T12:19:01Z</time>
      </trkpt>
      <trkpt lat="43.307548" lon="-8.858455">
        <ele>18.908</ele>
        <time>2019-06-21T12:19:02Z</time>
      </trkpt>
      <trkpt lat="43.307657" lon="-8.858670">
        <ele>20.181</ele>
        <time>2019-06-21T12:19:03Z</time>
      </trkpt>
      <trkpt lat="43.307766" lon="-8.858880">
        <ele>20.025</ele>
        <time>2019-06-21T12:19:04Z</time>
      </trkpt>
      <trkpt lat="43.307866" lon="-8.859083">
        <ele>21.287</ele>
        <time>2019-06-21T12:19:05Z</time>
      </trkpt>
      <trkpt lat="43.307965" lon="-8.859283">
        <ele>23.099</ele>
        <time>2019-06-21T12:19:06Z</time>
      </trkpt>
      <trkpt lat="43.308074" lon="-8.859477">
        <ele>24.216</ele>
        <time>2019-06-21T12:19:07Z</time>
      </trkpt>
      <trkpt lat="43.308185" lon="-8.859646">
        <ele>25.522</ele>
        <time>2019-06-21T12:19:08Z</time>
      </trkpt>
      <trkpt lat="43.308303" lon="-8.859791">
        <ele>26.576</ele>
        <time>2019-06-21T12:19:09Z</time>
      </trkpt>
      <trkpt lat="43.308445" lon="-8.859919">
        <ele>28.068</ele>
        <time>2019-06-21T12:19:10Z</time>
      </trkpt>
      <trkpt lat="43.308599" lon="-8.860018">
        <ele>30.251</ele>
        <time>2019-06-21T12:19:11Z</time>
      </trkpt>
      <trkpt lat="43.308742" lon="-8.860099">
        <ele>31.901</ele>
        <time>2019-06-21T12:19:12Z</time>
      </trkpt>
      <trkpt lat="43.308886" lon="-8.860173">
        <ele>33.511</ele>
        <time>2019-06-21T12:19:13Z</time>
      </trkpt>
      <trkpt lat="43.309025" lon="-8.860244">
        <ele>34.508</ele>
        <time>2019-06-21T12:19:14Z</time>
      </trkpt>
      <trkpt lat="43.309165" lon="-8.860306">
        <ele>35.338</ele>
        <time>2019-06-21T12:19:15Z</time>
      </trkpt>
      <trkpt lat="43.309299" lon="-8.860369">
        <ele>36.162</ele>
        <time>2019-06-21T12:19:16Z</time>
      </trkpt>
      <trkpt lat="43.309415" lon="-8.860422">
        <ele>37.074</ele>
        <time>2019-06-21T12:19:17Z</time>
      </trkpt>
      <trkpt lat="43.309525" lon="-8.860481">
        <ele>38.276</ele>
        <time>2019-06-21T12:19:18Z</time>
      </trkpt>
      <trkpt lat="43.309632" lon="-8.860530">
        <ele>39.323</ele>
        <time>2019-06-21T12:19:19Z</time>
      </trkpt>
      <trkpt lat="43.309730" lon="-8.860585">
        <ele>40.339</ele>
        <time>2019-06-21T12:19:20Z</time>
      </trkpt>
      <trkpt lat="43.309825" lon="-8.860653">
        <ele>40.613</ele>
        <time>2019-06-21T12:19:21Z</time>
      </trkpt>
      <trkpt lat="43.309918" lon="-8.860738">
        <ele>40.875</ele>
        <time>2019-06-21T12:19:22Z</time>
      </trkpt>
      <trkpt lat="43.309983" lon="-8.860839">
        <ele>41.292</ele>
        <time>2019-06-21T12:19:23Z</time>
      </trkpt>
      <trkpt lat="43.310027" lon="-8.860945">
        <ele>42.473</ele>
        <time>2019-06-21T12:19:24Z</time>
      </trkpt>
      <trkpt lat="43.310056" lon="-8.861080">
        <ele>44.020</ele>
        <time>2019-06-21T12:19:25Z</time>
      </trkpt>
      <trkpt lat="43.310070" lon="-8.861214">
        <ele>45.108</ele>
        <time>2019-06-21T12:19:26Z</time>
      </trkpt>
      <trkpt lat="43.310065" lon="-8.861346">
        <ele>46.222</ele>
        <time>2019-06-21T12:19:27Z</time>
      </trkpt>
      <trkpt lat="43.310047" lon="-8.861482">
        <ele>47.186</ele>
        <time>2019-06-21T12:19:28Z</time>
      </trkpt>
      <trkpt lat="43.309986" lon="-8.861582">
        <ele>47.788</ele>
        <time>2019-06-21T12:19:29Z</time>
      </trkpt>
      <trkpt lat="43.309919" lon="-8.861672">
        <ele>48.390</ele>
        <time>2019-06-21T12:19:30Z</time>
      </trkpt>
      <trkpt lat="43.309831" lon="-8.861750">
        <ele>49.277</ele>
        <time>2019-06-21T12:19:31Z</time>
      </trkpt>
      <trkpt lat="43.309731" lon="-8.861807">
        <ele>50.013</ele>
        <time>2019-06-21T12:19:32Z</time>
      </trkpt>
      <trkpt lat="43.309608" lon="-8.861866">
        <ele>50.637</ele>
        <time>2019-06-21T12:19:33Z</time>
      </trkpt>
      <trkpt lat="43.309474" lon="-8.861927">
        <ele>50.989</ele>
        <time>2019-06-21T12:19:34Z</time>
      </trkpt>
      <trkpt lat="43.309337" lon="-8.861991">
        <ele>51.544</ele>
        <time>2019-06-21T12:19:35Z</time>
      </trkpt>
      <trkpt lat="43.309193" lon="-8.862055">
        <ele>52.205</ele>
        <time>2019-06-21T12:19:36Z</time>
      </trkpt>
      <trkpt lat="43.309052" lon="-8.862122">
        <ele>52.815</ele>
        <time>2019-06-21T12:19:37Z</time>
      </trkpt>
      <trkpt lat="43.308907" lon="-8.862196">
        <ele>53.608</ele>
        <time>2019-06-21T12:19:38Z</time>
      </trkpt>
      <trkpt lat="43.308759" lon="-8.862272">
        <ele>53.857</ele>
        <time>2019-06-21T12:19:39Z</time>
      </trkpt>
      <trkpt lat="43.308611" lon="-8.862355">
        <ele>53.931</ele>
        <time>2019-06-21T12:19:40Z</time>
      </trkpt>
      <trkpt lat="43.308462" lon="-8.862452">
        <ele>54.953</ele>
        <time>2019-06-21T12:19:41Z</time>
      </trkpt>
      <trkpt lat="43.308322" lon="-8.862552">
        <ele>55.745</ele>
        <time>2019-06-21T12:19:42Z</time>
      </trkpt>
      <trkpt lat="43.308189" lon="-8.862656">
        <ele>56.712</ele>
        <time>2019-06-21T12:19:43Z</time>
      </trkpt>
      <trkpt lat="43.308057" lon="-8.862759">
        <ele>56.978</ele>
        <time>2019-06-21T12:19:44Z</time>
      </trkpt>
      <trkpt lat="43.307925" lon="-8.862861">
        <ele>58.442</ele>
        <time>2019-06-21T12:19:45Z</time>
      </trkpt>
      <trkpt lat="43.307801" lon="-8.862954">
        <ele>59.384</ele>
        <time>2019-06-21T12:19:46Z</time>
      </trkpt>
      <trkpt lat="43.307686" lon="-8.863041">
        <ele>60.287</ele>
        <time>2019-06-21T12:19:47Z</time>
      </trkpt>
      <trkpt lat="43.307588" lon="-8.863130">
        <ele>61.242</ele>
        <time>2019-06-21T12:19:48Z</time>
      </trkpt>
      <trkpt lat="43.307504" lon="-8.863218">
        <ele>62.226</ele>
        <time>2019-06-21T12:19:49Z</time>
      </trkpt>
      <trkpt lat="43.307451" lon="-8.863315">
        <ele>62.908</ele>
        <time>2019-06-21T12:19:50Z</time>
      </trkpt>
      <trkpt lat="43.307431" lon="-8.863422">
        <ele>63.481</ele>
        <time>2019-06-21T12:19:51Z</time>
      </trkpt>
      <trkpt lat="43.307429" lon="-8.863535">
        <ele>63.975</ele>
        <time>2019-06-21T12:19:52Z</time>
      </trkpt>
      <trkpt lat="43.307453" lon="-8.863668">
        <ele>64.417</ele>
        <time>2019-06-21T12:19:53Z</time>
      </trkpt>
      <trkpt lat="43.307493" lon="-8.863798">
        <ele>64.779</ele>
        <time>2019-06-21T12:19:54Z</time>
      </trkpt>
      <trkpt lat="43.307539" lon="-8.863939">
        <ele>65.046</ele>
        <time>2019-06-21T12:19:55Z</time>
      </trkpt>
      <trkpt lat="43.307580" lon="-8.864072">
        <ele>65.422</ele>
        <time>2019-06-21T12:19:56Z</time>
      </trkpt>
      <trkpt lat="43.307632" lon="-8.864193">
        <ele>65.596</ele>
        <time>2019-06-21T12:19:57Z</time>
      </trkpt>
      <trkpt lat="43.307692" lon="-8.864304">
        <ele>65.028</ele>
        <time>2019-06-21T12:19:58Z</time>
      </trkpt>
      <trkpt lat="43.307765" lon="-8.864397">
        <ele>64.342</ele>
        <time>2019-06-21T12:19:59Z</time>
      </trkpt>
      <trkpt lat="43.307830" lon="-8.864482">
        <ele>63.522</ele>
        <time>2019-06-21T12:20:00Z</time>
      </trkpt>
      <trkpt lat="43.307917" lon="-8.864553">
        <ele>62.614</ele>
        <time>2019-06-21T12:20:01Z</time>
      </trkpt>
      <trkpt lat="43.308011" lon="-8.864619">
        <ele>61.708</ele>
        <time>2019-06-21T12:20:02Z</time>
      </trkpt>
      <trkpt lat="43.308108" lon="-8.864673">
        <ele>61.287</ele>
        <time>2019-06-21T12:20:03Z</time>
      </trkpt>
      <trkpt lat="43.308196" lon="-8.864729">
        <ele>61.091</ele>
        <time>2019-06-21T12:20:04Z</time>
      </trkpt>
      <trkpt lat="43.308287" lon="-8.864771">
        <ele>60.673</ele>
        <time>2019-06-21T12:20:05Z</time>
      </trkpt>
      <trkpt lat="43.308363" lon="-8.864820">
        <ele>60.355</ele>
        <time>2019-06-21T12:20:06Z</time>
      </trkpt>
      <trkpt lat="43.308426" lon="-8.864863">
        <ele>60.242</ele>
        <time>2019-06-21T12:20:07Z</time>
      </trkpt>
      <trkpt lat="43.308480" lon="-8.864911">
        <ele>60.018</ele>
        <time>2019-06-21T12:20:08Z</time>
      </trkpt>
      <trkpt lat="43.308523" lon="-8.864958">
        <ele>59.972</ele>
        <time>2019-06-21T12:20:09Z</time>
      </trkpt>
      <trkpt lat="43.308556" lon="-8.865006">
        <ele>59.874</ele>
        <time>2019-06-21T12:20:10Z</time>
      </trkpt>
      <trkpt lat="43.308539" lon="-8.865103">
        <ele>59.433</ele>
        <time>2019-06-21T12:20:12Z</time>
      </trkpt>
      <trkpt lat="43.308503" lon="-8.865158">
        <ele>59.023</ele>
        <time>2019-06-21T12:20:13Z</time>
      </trkpt>
      <trkpt lat="43.308450" lon="-8.865212">
        <ele>58.715</ele>
        <time>2019-06-21T12:20:14Z</time>
      </trkpt>
      <trkpt lat="43.308378" lon="-8.865248">
        <ele>58.308</ele>
        <time>2019-06-21T12:20:15Z</time>
      </trkpt>
      <trkpt lat="43.308298" lon="-8.865263">
        <ele>57.936</ele>
        <time>2019-06-21T12:20:16Z</time>
      </trkpt>
      <trkpt lat="43.308219" lon="-8.865260">
        <ele>57.780</ele>
        <time>2019-06-21T12:20:17Z</time>
      </trkpt>
      <trkpt lat="43.308144" lon="-8.865250">
        <ele>57.582</ele>
        <time>2019-06-21T12:20:18Z</time>
      </trkpt>
      <trkpt lat="43.308062" lon="-8.865236">
        <ele>57.374</ele>
        <time>2019-06-21T12:20:19Z</time>
      </trkpt>
      <trkpt lat="43.307997" lon="-8.865285">
        <ele>57.431</ele>
        <time>2019-06-21T12:20:20Z</time>
      </trkpt>
      <trkpt lat="43.307930" lon="-8.865364">
        <ele>57.167</ele>
        <time>2019-06-21T12:20:21Z</time>
      </trkpt>
      <trkpt lat="43.307852" lon="-8.865444">
        <ele>56.821</ele>
        <time>2019-06-21T12:20:22Z</time>
      </trkpt>
      <trkpt lat="43.307756" lon="-8.865522">
        <ele>56.553</ele>
        <time>2019-06-21T12:20:23Z</time>
      </trkpt>
      <trkpt lat="43.307667" lon="-8.865588">
        <ele>56.097</ele>
        <time>2019-06-21T12:20:24Z</time>
      </trkpt>
      <trkpt lat="43.307571" lon="-8.865654">
        <ele>55.623</ele>
        <time>2019-06-21T12:20:25Z</time>
      </trkpt>
      <trkpt lat="43.307475" lon="-8.865703">
        <ele>55.625</ele>
        <time>2019-06-21T12:20:26Z</time>
      </trkpt>
      <trkpt lat="43.307378" lon="-8.865740">
        <ele>55.908</ele>
        <time>2019-06-21T12:20:27Z</time>
      </trkpt>
      <trkpt lat="43.307287" lon="-8.865769">
        <ele>56.272</ele>
        <time>2019-06-21T12:20:28Z</time>
      </trkpt>
      <trkpt lat="43.307202" lon="-8.865775">
        <ele>56.656</ele>
        <time>2019-06-21T12:20:29Z</time>
      </trkpt>
      <trkpt lat="43.307122" lon="-8.865772">
        <ele>56.478</ele>
        <time>2019-06-21T12:20:30Z</time>
      </trkpt>
      <trkpt lat="43.307057" lon="-8.865773">
        <ele>56.210</ele>
        <time>2019-06-21T12:20:31Z</time>
      </trkpt>
      <trkpt lat="43.307002" lon="-8.865789">
        <ele>55.887</ele>
        <time>2019-06-21T12:20:32Z</time>
      </trkpt>
      <trkpt lat="43.306947" lon="-8.865834">
        <ele>55.023</ele>
        <time>2019-06-21T12:20:33Z</time>
      </trkpt>
      <trkpt lat="43.306902" lon="-8.865892">
        <ele>54.137</ele>
        <time>2019-06-21T12:20:34Z</time>
      </trkpt>
      <trkpt lat="43.306854" lon="-8.865935">
        <ele>53.429</ele>
        <time>2019-06-21T12:20:35Z</time>
      </trkpt>
      <trkpt lat="43.306813" lon="-8.865982">
        <ele>52.678</ele>
        <time>2019-06-21T12:20:36Z</time>
      </trkpt>
      <trkpt lat="43.306770" lon="-8.866042">
        <ele>51.533</ele>
        <time>2019-06-21T12:20:37Z</time>
      </trkpt>
      <trkpt lat="43.306729" lon="-8.866107">
        <ele>50.326</ele>
        <time>2019-06-21T12:20:38Z</time>
      </trkpt>
      <trkpt lat="43.306698" lon="-8.866199">
        <ele>49.408</ele>
        <time>2019-06-21T12:20:39Z</time>
      </trkpt>
      <trkpt lat="43.306678" lon="-8.866293">
        <ele>48.710</ele>
        <time>2019-06-21T12:20:40Z</time>
      </trkpt>
      <trkpt lat="43.306662" lon="-8.866408">
        <ele>48.044</ele>
        <time>2019-06-21T12:20:41Z</time>
      </trkpt>
      <trkpt lat="43.306671" lon="-8.866507">
        <ele>47.646</ele>
        <time>2019-06-21T12:20:42Z</time>
      </trkpt>
      <trkpt lat="43.306689" lon="-8.866606">
        <ele>47.288</ele>
        <time>2019-06-21T12:20:43Z</time>
      </trkpt>
      <trkpt lat="43.306726" lon="-8.866696">
        <ele>46.665</ele>
        <time>2019-06-21T12:20:44Z</time>
      </trkpt>
      <trkpt lat="43.306761" lon="-8.866801">
        <ele>45.751</ele>
        <time>2019-06-21T12:20:45Z</time>
      </trkpt>
      <trkpt lat="43.306785" lon="-8.866908">
        <ele>44.875</ele>
        <time>2019-06-21T12:20:46Z</time>
      </trkpt>
      <trkpt lat="43.306815" lon="-8.867023">
        <ele>43.537</ele>
        <time>2019-06-21T12:20:47Z</time>
      </trkpt>
      <trkpt lat="43.306839" lon="-8.867126">
        <ele>42.225</ele>
        <time>2019-06-21T12:20:48Z</time>
      </trkpt>
      <trkpt lat="43.306883" lon="-8.867231">
        <ele>40.926</ele>
        <time>2019-06-21T12:20:49Z</time>
      </trkpt>
      <trkpt lat="43.306945" lon="-8.867335">
        <ele>39.808</ele>
        <time>2019-06-21T12:20:50Z</time>
      </trkpt>
      <trkpt lat="43.307020" lon="-8.867439">
        <ele>38.408</ele>
        <time>2019-06-21T12:20:51Z</time>
      </trkpt>
      <trkpt lat="43.307108" lon="-8.867531">
        <ele>37.185</ele>
        <time>2019-06-21T12:20:52Z</time>
      </trkpt>
      <trkpt lat="43.307175" lon="-8.867629">
        <ele>35.919</ele>
        <time>2019-06-21T12:20:53Z</time>
      </trkpt>
      <trkpt lat="43.307268" lon="-8.867713">
        <ele>34.591</ele>
        <time>2019-06-21T12:20:54Z</time>
      </trkpt>
      <trkpt lat="43.307361" lon="-8.867791">
        <ele>33.453</ele>
        <time>2019-06-21T12:20:55Z</time>
      </trkpt>
      <trkpt lat="43.307457" lon="-8.867870">
        <ele>32.580</ele>
        <time>2019-06-21T12:20:56Z</time>
      </trkpt>
      <trkpt lat="43.307559" lon="-8.867932">
        <ele>31.826</ele>
        <time>2019-06-21T12:20:57Z</time>
      </trkpt>
      <trkpt lat="43.307661" lon="-8.867985">
        <ele>31.140</ele>
        <time>2019-06-21T12:20:58Z</time>
      </trkpt>
      <trkpt lat="43.307754" lon="-8.868033">
        <ele>30.312</ele>
        <time>2019-06-21T12:20:59Z</time>
      </trkpt>
      <trkpt lat="43.307836" lon="-8.868101">
        <ele>30.014</ele>
        <time>2019-06-21T12:21:00Z</time>
      </trkpt>
      <trkpt lat="43.307901" lon="-8.868186">
        <ele>29.654</ele>
        <time>2019-06-21T12:21:01Z</time>
      </trkpt>
      <trkpt lat="43.307951" lon="-8.868287">
        <ele>28.809</ele>
        <time>2019-06-21T12:21:02Z</time>
      </trkpt>
      <trkpt lat="43.307974" lon="-8.868395">
        <ele>28.108</ele>
        <time>2019-06-21T12:21:03Z</time>
      </trkpt>
      <trkpt lat="43.307966" lon="-8.868533">
        <ele>27.694</ele>
        <time>2019-06-21T12:21:04Z</time>
      </trkpt>
      <trkpt lat="43.307956" lon="-8.868678">
        <ele>27.438</ele>
        <time>2019-06-21T12:21:05Z</time>
      </trkpt>
      <trkpt lat="43.307926" lon="-8.868830">
        <ele>27.580</ele>
        <time>2019-06-21T12:21:06Z</time>
      </trkpt>
      <trkpt lat="43.307909" lon="-8.868984">
        <ele>28.452</ele>
        <time>2019-06-21T12:21:07Z</time>
      </trkpt>
      <trkpt lat="43.307901" lon="-8.869128">
        <ele>29.839</ele>
        <time>2019-06-21T12:21:08Z</time>
      </trkpt>
      <trkpt lat="43.307915" lon="-8.869261">
        <ele>31.235</ele>
        <time>2019-06-21T12:21:09Z</time>
      </trkpt>
      <trkpt lat="43.307943" lon="-8.869383">
        <ele>32.679</ele>
        <time>2019-06-21T12:21:10Z</time>
      </trkpt>
      <trkpt lat="43.307986" lon="-8.869491">
        <ele>34.011</ele>
        <time>2019-06-21T12:21:11Z</time>
      </trkpt>
      <trkpt lat="43.308053" lon="-8.869568">
        <ele>35.297</ele>
        <time>2019-06-21T12:21:12Z</time>
      </trkpt>
      <trkpt lat="43.308142" lon="-8.869625">
        <ele>35.823</ele>
        <time>2019-06-21T12:21:13Z</time>
      </trkpt>
      <trkpt lat="43.308235" lon="-8.869682">
        <ele>36.525</ele>
        <time>2019-06-21T12:21:14Z</time>
      </trkpt>
      <trkpt lat="43.308318" lon="-8.869741">
        <ele>37.308</ele>
        <time>2019-06-21T12:21:15Z</time>
      </trkpt>
      <trkpt lat="43.308393" lon="-8.869788">
        <ele>37.422</ele>
        <time>2019-06-21T12:21:16Z</time>
      </trkpt>
      <trkpt lat="43.308470" lon="-8.869842">
        <ele>37.566</ele>
        <time>2019-06-21T12:21:17Z</time>
      </trkpt>
      <trkpt lat="43.308519" lon="-8.869913">
        <ele>38.258</ele>
        <time>2019-06-21T12:21:18Z</time>
      </trkpt>
      <trkpt lat="43.308545" lon="-8.869966">
        <ele>38.920</ele>
        <time>2019-06-21T12:21:19Z</time>
      </trkpt>
      <trkpt lat="43.308560" lon="-8.870029">
        <ele>39.667</ele>
        <time>2019-06-21T12:21:20Z</time>
      </trkpt>
      <trkpt lat="43.308572" lon="-8.870092">
        <ele>40.083</ele>
        <time>2019-06-21T12:21:21Z</time>
      </trkpt>
      <trkpt lat="43.308571" lon="-8.870165">
        <ele>40.637</ele>
        <time>2019-06-21T12:21:22Z</time>
      </trkpt>
      <trkpt lat="43.308557" lon="-8.870265">
        <ele>41.529</ele>
        <time>2019-06-21T12:21:23Z</time>
      </trkpt>
      <trkpt lat="43.308544" lon="-8.870385">
        <ele>42.733</ele>
        <time>2019-06-21T12:21:24Z</time>
      </trkpt>
      <trkpt lat="43.308523" lon="-8.870504">
        <ele>44.123</ele>
        <time>2019-06-21T12:21:25Z</time>
      </trkpt>
      <trkpt lat="43.308492" lon="-8.870627">
        <ele>45.615</ele>
        <time>2019-06-21T12:21:26Z</time>
      </trkpt>
      <trkpt lat="43.308468" lon="-8.870738">
        <ele>46.908</ele>
        <time>2019-06-21T12:21:27Z</time>
      </trkpt>
      <trkpt lat="43.308427" lon="-8.870830">
        <ele>48.676</ele>
        <time>2019-06-21T12:21:28Z</time>
      </trkpt>
      <trkpt lat="43.308375" lon="-8.870894">
        <ele>50.810</ele>
        <time>2019-06-21T12:21:29Z</time>
      </trkpt>
      <trkpt lat="43.308316" lon="-8.870919">
        <ele>52.532</ele>
        <time>2019-06-21T12:21:30Z</time>
      </trkpt>
      <trkpt lat="43.308250" lon="-8.870921">
        <ele>53.624</ele>
        <time>2019-06-21T12:21:31Z</time>
      </trkpt>
      <trkpt lat="43.308169" lon="-8.870901">
        <ele>54.511</ele>
        <time>2019-06-21T12:21:32Z</time>
      </trkpt>
      <trkpt lat="43.308084" lon="-8.870886">
        <ele>55.577</ele>
        <time>2019-06-21T12:21:33Z</time>
      </trkpt>
      <trkpt lat="43.307992" lon="-8.870869">
        <ele>56.791</ele>
        <time>2019-06-21T12:21:34Z</time>
      </trkpt>
      <trkpt lat="43.307898" lon="-8.870849">
        <ele>57.743</ele>
        <time>2019-06-21T12:21:35Z</time>
      </trkpt>
      <trkpt lat="43.307801" lon="-8.870837">
        <ele>58.839</ele>
        <time>2019-06-21T12:21:36Z</time>
      </trkpt>
      <trkpt lat="43.307709" lon="-8.870814">
        <ele>60.301</ele>
        <time>2019-06-21T12:21:37Z</time>
      </trkpt>
      <trkpt lat="43.307622" lon="-8.870799">
        <ele>62.021</ele>
        <time>2019-06-21T12:21:38Z</time>
      </trkpt>
      <trkpt lat="43.307548" lon="-8.870790">
        <ele>63.608</ele>
        <time>2019-06-21T12:21:39Z</time>
      </trkpt>
      <trkpt lat="43.307482" lon="-8.870777">
        <ele>64.816</ele>
        <time>2019-06-21T12:21:40Z</time>
      </trkpt>
      <trkpt lat="43.307408" lon="-8.870777">
        <ele>66.670</ele>
        <time>2019-06-21T12:21:41Z</time>
      </trkpt>
      <trkpt lat="43.307333" lon="-8.870770">
        <ele>68.122</ele>
        <time>2019-06-21T12:21:42Z</time>
      </trkpt>
      <trkpt lat="43.307252" lon="-8.870750">
        <ele>69.314</ele>
        <time>2019-06-21T12:21:43Z</time>
      </trkpt>
      <trkpt lat="43.307156" lon="-8.870715">
        <ele>69.511</ele>
        <time>2019-06-21T12:21:44Z</time>
      </trkpt>
      <trkpt lat="43.307064" lon="-8.870681">
        <ele>69.227</ele>
        <time>2019-06-21T12:21:45Z</time>
      </trkpt>
      <trkpt lat="43.306988" lon="-8.870659">
        <ele>69.061</ele>
        <time>2019-06-21T12:21:46Z</time>
      </trkpt>
      <trkpt lat="43.306920" lon="-8.870657">
        <ele>69.433</ele>
        <time>2019-06-21T12:21:47Z</time>
      </trkpt>
      <trkpt lat="43.306861" lon="-8.870687">
        <ele>70.735</ele>
        <time>2019-06-21T12:21:48Z</time>
      </trkpt>
      <trkpt lat="43.306804" lon="-8.870734">
        <ele>72.786</ele>
        <time>2019-06-21T12:21:49Z</time>
      </trkpt>
      <trkpt lat="43.306741" lon="-8.870787">
        <ele>75.014</ele>
        <time>2019-06-21T12:21:50Z</time>
      </trkpt>
      <trkpt lat="43.306685" lon="-8.870823">
        <ele>76.608</ele>
        <time>2019-06-21T12:21:51Z</time>
      </trkpt>
      <trkpt lat="43.306614" lon="-8.870834">
        <ele>77.016</ele>
        <time>2019-06-21T12:21:52Z</time>
      </trkpt>
      <trkpt lat="43.306529" lon="-8.870873">
        <ele>78.360</ele>
        <time>2019-06-21T12:21:53Z</time>
      </trkpt>
      <trkpt lat="43.306448" lon="-8.870908">
        <ele>79.372</ele>
        <time>2019-06-21T12:21:54Z</time>
      </trkpt>
      <trkpt lat="43.306359" lon="-8.870962">
        <ele>80.394</ele>
        <time>2019-06-21T12:21:55Z</time>
      </trkpt>
      <trkpt lat="43.306281" lon="-8.871027">
        <ele>81.051</ele>
        <time>2019-06-21T12:21:56Z</time>
      </trkpt>
      <trkpt lat="43.306198" lon="-8.871113">
        <ele>82.337</ele>
        <time>2019-06-21T12:21:57Z</time>
      </trkpt>
      <trkpt lat="43.306119" lon="-8.871205">
        <ele>83.811</ele>
        <time>2019-06-21T12:21:58Z</time>
      </trkpt>
      <trkpt lat="43.306040" lon="-8.871308">
        <ele>85.573</ele>
        <time>2019-06-21T12:21:59Z</time>
      </trkpt>
      <trkpt lat="43.305954" lon="-8.871395">
        <ele>86.399</ele>
        <time>2019-06-21T12:22:00Z</time>
      </trkpt>
      <trkpt lat="43.305863" lon="-8.871478">
        <ele>86.407</ele>
        <time>2019-06-21T12:22:01Z</time>
      </trkpt>
      <trkpt lat="43.305764" lon="-8.871551">
        <ele>86.427</ele>
        <time>2019-06-21T12:22:02Z</time>
      </trkpt>
      <trkpt lat="43.305678" lon="-8.871643">
        <ele>87.208</ele>
        <time>2019-06-21T12:22:03Z</time>
      </trkpt>
      <trkpt lat="43.305603" lon="-8.871756">
        <ele>88.362</ele>
        <time>2019-06-21T12:22:04Z</time>
      </trkpt>
      <trkpt lat="43.305531" lon="-8.871885">
        <ele>89.676</ele>
        <time>2019-06-21T12:22:05Z</time>
      </trkpt>
      <trkpt lat="43.305456" lon="-8.872011">
        <ele>90.598</ele>
        <time>2019-06-21T12:22:06Z</time>
      </trkpt>
      <trkpt lat="43.305383" lon="-8.872129">
        <ele>91.210</ele>
        <time>2019-06-21T12:22:07Z</time>
      </trkpt>
      <trkpt lat="43.305311" lon="-8.872244">
        <ele>91.787</ele>
        <time>2019-06-21T12:22:08Z</time>
      </trkpt>
      <trkpt lat="43.305253" lon="-8.872365">
        <ele>92.273</ele>
        <time>2019-06-21T12:22:09Z</time>
      </trkpt>
      <trkpt lat="43.305195" lon="-8.872490">
        <ele>92.767</ele>
        <time>2019-06-21T12:22:10Z</time>
      </trkpt>
      <trkpt lat="43.305142" lon="-8.872615">
        <ele>92.579</ele>
        <time>2019-06-21T12:22:11Z</time>
      </trkpt>
      <trkpt lat="43.305117" lon="-8.872771">
        <ele>92.728</ele>
        <time>2019-06-21T12:22:12Z</time>
      </trkpt>
      <trkpt lat="43.305100" lon="-8.872920">
        <ele>93.389</ele>
        <time>2019-06-21T12:22:13Z</time>
      </trkpt>
      <trkpt lat="43.305088" lon="-8.873065">
        <ele>94.017</ele>
        <time>2019-06-21T12:22:14Z</time>
      </trkpt>
      <trkpt lat="43.305084" lon="-8.873209">
        <ele>95.508</ele>
        <time>2019-06-21T12:22:15Z</time>
      </trkpt>
      <trkpt lat="43.305092" lon="-8.873341">
        <ele>97.135</ele>
        <time>2019-06-21T12:22:16Z</time>
      </trkpt>
      <trkpt lat="43.305100" lon="-8.873451">
        <ele>98.399</ele>
        <time>2019-06-21T12:22:17Z</time>
      </trkpt>
      <trkpt lat="43.305109" lon="-8.873560">
        <ele>99.561</ele>
        <time>2019-06-21T12:22:18Z</time>
      </trkpt>
      <trkpt lat="43.305077" lon="-8.873634">
        <ele>99.623</ele>
        <time>2019-06-21T12:22:19Z</time>
      </trkpt>
      <trkpt lat="43.305037" lon="-8.873753">
        <ele>99.770</ele>
        <time>2019-06-21T12:22:20Z</time>
      </trkpt>
      <trkpt lat="43.304998" lon="-8.873876">
        <ele>99.916</ele>
        <time>2019-06-21T12:22:21Z</time>
      </trkpt>
      <trkpt lat="43.304954" lon="-8.873995">
        <ele>100.310</ele>
        <time>2019-06-21T12:22:22Z</time>
      </trkpt>
      <trkpt lat="43.304912" lon="-8.874151">
        <ele>101.262</ele>
        <time>2019-06-21T12:22:23Z</time>
      </trkpt>
      <trkpt lat="43.304873" lon="-8.874331">
        <ele>102.976</ele>
        <time>2019-06-21T12:22:24Z</time>
      </trkpt>
      <trkpt lat="43.304820" lon="-8.874537">
        <ele>104.790</ele>
        <time>2019-06-21T12:22:25Z</time>
      </trkpt>
      <trkpt lat="43.304781" lon="-8.874715">
        <ele>106.319</ele>
        <time>2019-06-21T12:22:26Z</time>
      </trkpt>
      <trkpt lat="43.304738" lon="-8.874887">
        <ele>107.908</ele>
        <time>2019-06-21T12:22:27Z</time>
      </trkpt>
      <trkpt lat="43.304693" lon="-8.875072">
        <ele>109.940</ele>
        <time>2019-06-21T12:22:28Z</time>
      </trkpt>
      <trkpt lat="43.304646" lon="-8.875249">
        <ele>111.814</ele>
        <time>2019-06-21T12:22:29Z</time>
      </trkpt>
      <trkpt lat="43.304607" lon="-8.875410">
        <ele>113.246</ele>
        <time>2019-06-21T12:22:30Z</time>
      </trkpt>
      <trkpt lat="43.304576" lon="-8.875557">
        <ele>114.468</ele>
        <time>2019-06-21T12:22:31Z</time>
      </trkpt>
      <trkpt lat="43.304558" lon="-8.875684">
        <ele>115.515</ele>
        <time>2019-06-21T12:22:32Z</time>
      </trkpt>
      <trkpt lat="43.304558" lon="-8.875795">
        <ele>116.761</ele>
        <time>2019-06-21T12:22:33Z</time>
      </trkpt>
      <trkpt lat="43.304564" lon="-8.875886">
        <ele>118.015</ele>
        <time>2019-06-21T12:22:34Z</time>
      </trkpt>
      <trkpt lat="43.304583" lon="-8.875973">
        <ele>119.887</ele>
        <time>2019-06-21T12:22:35Z</time>
      </trkpt>
      <trkpt lat="43.304612" lon="-8.876065">
        <ele>121.942</ele>
        <time>2019-06-21T12:22:36Z</time>
      </trkpt>
      <trkpt lat="43.304633" lon="-8.876153">
        <ele>123.622</ele>
        <time>2019-06-21T12:22:37Z</time>
      </trkpt>
      <trkpt lat="43.304651" lon="-8.876249">
        <ele>125.114</ele>
        <time>2019-06-21T12:22:38Z</time>
      </trkpt>
      <trkpt lat="43.304624" lon="-8.876367">
        <ele>126.008</ele>
        <time>2019-06-21T12:22:39Z</time>
      </trkpt>
      <trkpt lat="43.304603" lon="-8.876489">
        <ele>127.127</ele>
        <time>2019-06-21T12:22:40Z</time>
      </trkpt>
      <trkpt lat="43.304560" lon="-8.876609">
        <ele>127.921</ele>
        <time>2019-06-21T12:22:41Z</time>
      </trkpt>
      <trkpt lat="43.304507" lon="-8.876737">
        <ele>128.943</ele>
        <time>2019-06-21T12:22:42Z</time>
      </trkpt>
      <trkpt lat="43.304451" lon="-8.876865">
        <ele>129.935</ele>
        <time>2019-06-21T12:22:43Z</time>
      </trkpt>
      <trkpt lat="43.304389" lon="-8.876993">
        <ele>131.372</ele>
        <time>2019-06-21T12:22:44Z</time>
      </trkpt>
      <trkpt lat="43.304325" lon="-8.877124">
        <ele>132.758</ele>
        <time>2019-06-21T12:22:45Z</time>
      </trkpt>
      <trkpt lat="43.304260" lon="-8.877254">
        <ele>134.242</ele>
        <time>2019-06-21T12:22:46Z</time>
      </trkpt>
      <trkpt lat="43.304201" lon="-8.877381">
        <ele>136.074</ele>
        <time>2019-06-21T12:22:47Z</time>
      </trkpt>
      <trkpt lat="43.304153" lon="-8.877494">
        <ele>137.846</ele>
        <time>2019-06-21T12:22:48Z</time>
      </trkpt>
      <trkpt lat="43.304127" lon="-8.877614">
        <ele>139.488</ele>
        <time>2019-06-21T12:22:49Z</time>
      </trkpt>
      <trkpt lat="43.304112" lon="-8.877730">
        <ele>141.116</ele>
        <time>2019-06-21T12:22:50Z</time>
      </trkpt>
      <trkpt lat="43.304121" lon="-8.877848">
        <ele>142.408</ele>
        <time>2019-06-21T12:22:51Z</time>
      </trkpt>
      <trkpt lat="43.304148" lon="-8.877969">
        <ele>143.437</ele>
        <time>2019-06-21T12:22:52Z</time>
      </trkpt>
      <trkpt lat="43.304199" lon="-8.878091">
        <ele>144.681</ele>
        <time>2019-06-21T12:22:53Z</time>
      </trkpt>
      <trkpt lat="43.304261" lon="-8.878199">
        <ele>146.283</ele>
        <time>2019-06-21T12:22:54Z</time>
      </trkpt>
      <trkpt lat="43.304345" lon="-8.878306">
        <ele>148.035</ele>
        <time>2019-06-21T12:22:55Z</time>
      </trkpt>
      <trkpt lat="43.304429" lon="-8.878416">
        <ele>149.822</ele>
        <time>2019-06-21T12:22:56Z</time>
      </trkpt>
      <trkpt lat="43.304503" lon="-8.878541">
        <ele>151.518</ele>
        <time>2019-06-21T12:22:57Z</time>
      </trkpt>
      <trkpt lat="43.304559" lon="-8.878682">
        <ele>152.922</ele>
        <time>2019-06-21T12:22:58Z</time>
      </trkpt>
      <trkpt lat="43.304615" lon="-8.878832">
        <ele>154.274</ele>
        <time>2019-06-21T12:22:59Z</time>
      </trkpt>
      <trkpt lat="43.304669" lon="-8.878986">
        <ele>155.513</ele>
        <time>2019-06-21T12:23:00Z</time>
      </trkpt>
      <trkpt lat="43.304714" lon="-8.879132">
        <ele>156.743</ele>
        <time>2019-06-21T12:23:01Z</time>
      </trkpt>
      <trkpt lat="43.304744" lon="-8.879277">
        <ele>157.407</ele>
        <time>2019-06-21T12:23:02Z</time>
      </trkpt>
      <trkpt lat="43.304771" lon="-8.879427">
        <ele>157.908</ele>
        <time>2019-06-21T12:23:03Z</time>
      </trkpt>
      <trkpt lat="43.304790" lon="-8.879590">
        <ele>158.064</ele>
        <time>2019-06-21T12:23:04Z</time>
      </trkpt>
      <trkpt lat="43.304796" lon="-8.879755">
        <ele>158.198</ele>
        <time>2019-06-21T12:23:05Z</time>
      </trkpt>
      <trkpt lat="43.304806" lon="-8.879924">
        <ele>158.570</ele>
        <time>2019-06-21T12:23:06Z</time>
      </trkpt>
      <trkpt lat="43.304819" lon="-8.880090">
        <ele>158.852</ele>
        <time>2019-06-21T12:23:07Z</time>
      </trkpt>
      <trkpt lat="43.304834" lon="-8.880259">
        <ele>159.089</ele>
        <time>2019-06-21T12:23:08Z</time>
      </trkpt>
      <trkpt lat="43.304847" lon="-8.880424">
        <ele>159.325</ele>
        <time>2019-06-21T12:23:09Z</time>
      </trkpt>
      <trkpt lat="43.304863" lon="-8.880593">
        <ele>159.869</ele>
        <time>2019-06-21T12:23:10Z</time>
      </trkpt>
      <trkpt lat="43.304879" lon="-8.880756">
        <ele>160.881</ele>
        <time>2019-06-21T12:23:11Z</time>
      </trkpt>
      <trkpt lat="43.304903" lon="-8.880915">
        <ele>161.387</ele>
        <time>2019-06-21T12:23:12Z</time>
      </trkpt>
      <trkpt lat="43.304930" lon="-8.881060">
        <ele>161.642</ele>
        <time>2019-06-21T12:23:13Z</time>
      </trkpt>
      <trkpt lat="43.304985" lon="-8.881197">
        <ele>161.526</ele>
        <time>2019-06-21T12:23:14Z</time>
      </trkpt>
      <trkpt lat="43.305054" lon="-8.881325">
        <ele>161.208</ele>
        <time>2019-06-21T12:23:15Z</time>
      </trkpt>
      <trkpt lat="43.305137" lon="-8.881435">
        <ele>161.041</ele>
        <time>2019-06-21T12:23:16Z</time>
      </trkpt>
      <trkpt lat="43.305218" lon="-8.881524">
        <ele>161.145</ele>
        <time>2019-06-21T12:23:17Z</time>
      </trkpt>
      <trkpt lat="43.305281" lon="-8.881618">
        <ele>161.537</ele>
        <time>2019-06-21T12:23:18Z</time>
      </trkpt>
      <trkpt lat="43.305345" lon="-8.881712">
        <ele>162.059</ele>
        <time>2019-06-21T12:23:19Z</time>
      </trkpt>
      <trkpt lat="43.305402" lon="-8.881803">
        <ele>162.416</ele>
        <time>2019-06-21T12:23:20Z</time>
      </trkpt>
      <trkpt lat="43.305451" lon="-8.881917">
        <ele>162.932</ele>
        <time>2019-06-21T12:23:21Z</time>
      </trkpt>
      <trkpt lat="43.305494" lon="-8.882050">
        <ele>162.596</ele>
        <time>2019-06-21T12:23:22Z</time>
      </trkpt>
      <trkpt lat="43.305522" lon="-8.882211">
        <ele>161.638</ele>
        <time>2019-06-21T12:23:23Z</time>
      </trkpt>
      <trkpt lat="43.305550" lon="-8.882397">
        <ele>161.179</ele>
        <time>2019-06-21T12:23:24Z</time>
      </trkpt>
      <trkpt lat="43.305574" lon="-8.882597">
        <ele>160.405</ele>
        <time>2019-06-21T12:23:25Z</time>
      </trkpt>
      <trkpt lat="43.305597" lon="-8.882797">
        <ele>159.825</ele>
        <time>2019-06-21T12:23:26Z</time>
      </trkpt>
      <trkpt lat="43.305616" lon="-8.882998">
        <ele>161.308</ele>
        <time>2019-06-21T12:23:27Z</time>
      </trkpt>
      <trkpt lat="43.305663" lon="-8.883195">
        <ele>162.730</ele>
        <time>2019-06-21T12:23:28Z</time>
      </trkpt>
      <trkpt lat="43.305715" lon="-8.883405">
        <ele>164.844</ele>
        <time>2019-06-21T12:23:29Z</time>
      </trkpt>
      <trkpt lat="43.305763" lon="-8.883616">
        <ele>167.326</ele>
        <time>2019-06-21T12:23:30Z</time>
      </trkpt>
      <trkpt lat="43.305799" lon="-8.883816">
        <ele>169.818</ele>
        <time>2019-06-21T12:23:31Z</time>
      </trkpt>
      <trkpt lat="43.305836" lon="-8.883997">
        <ele>171.875</ele>
        <time>2019-06-21T12:23:32Z</time>
      </trkpt>
      <trkpt lat="43.305877" lon="-8.884180">
        <ele>173.421</ele>
        <time>2019-06-21T12:23:33Z</time>
      </trkpt>
      <trkpt lat="43.305910" lon="-8.884356">
        <ele>174.215</ele>
        <time>2019-06-21T12:23:34Z</time>
      </trkpt>
      <trkpt lat="43.305938" lon="-8.884523">
        <ele>175.037</ele>
        <time>2019-06-21T12:23:35Z</time>
      </trkpt>
      <trkpt lat="43.305958" lon="-8.884685">
        <ele>175.827</ele>
        <time>2019-06-21T12:23:36Z</time>
      </trkpt>
      <trkpt lat="43.305978" lon="-8.884849">
        <ele>176.568</ele>
        <time>2019-06-21T12:23:37Z</time>
      </trkpt>
      <trkpt lat="43.305910" lon="-8.885027">
        <ele>176.814</ele>
        <time>2019-06-21T12:23:38Z</time>
      </trkpt>
      <trkpt lat="43.305888" lon="-8.885207">
        <ele>178.008</ele>
        <time>2019-06-21T12:23:39Z</time>
      </trkpt>
      <trkpt lat="43.305830" lon="-8.885374">
        <ele>178.715</ele>
        <time>2019-06-21T12:23:40Z</time>
      </trkpt>
      <trkpt lat="43.305798" lon="-8.885543">
        <ele>179.549</ele>
        <time>2019-06-21T12:23:41Z</time>
      </trkpt>
      <trkpt lat="43.305740" lon="-8.885633">
        <ele>179.661</ele>
        <time>2019-06-21T12:23:42Z</time>
      </trkpt>
      <trkpt lat="43.305702" lon="-8.885785">
        <ele>180.223</ele>
        <time>2019-06-21T12:23:43Z</time>
      </trkpt>
      <trkpt lat="43.305693" lon="-8.885916">
        <ele>181.110</ele>
        <time>2019-06-21T12:23:44Z</time>
      </trkpt>
      <trkpt lat="43.305715" lon="-8.886053">
        <ele>182.276</ele>
        <time>2019-06-21T12:23:45Z</time>
      </trkpt>
      <trkpt lat="43.305748" lon="-8.886189">
        <ele>183.380</ele>
        <time>2019-06-21T12:23:46Z</time>
      </trkpt>
      <trkpt lat="43.305781" lon="-8.886329">
        <ele>184.422</ele>
        <time>2019-06-21T12:23:47Z</time>
      </trkpt>
      <trkpt lat="43.305841" lon="-8.886449">
        <ele>185.527</ele>
        <time>2019-06-21T12:23:48Z</time>
      </trkpt>
      <trkpt lat="43.305918" lon="-8.886552">
        <ele>186.668</ele>
        <time>2019-06-21T12:23:49Z</time>
      </trkpt>
      <trkpt lat="43.306005" lon="-8.886634">
        <ele>187.514</ele>
        <time>2019-06-21T12:23:50Z</time>
      </trkpt>
      <trkpt lat="43.306096" lon="-8.886704">
        <ele>188.208</ele>
        <time>2019-06-21T12:23:51Z</time>
      </trkpt>
      <trkpt lat="43.306191" lon="-8.886771">
        <ele>189.035</ele>
        <time>2019-06-21T12:23:52Z</time>
      </trkpt>
      <trkpt lat="43.306319" lon="-8.886820">
        <ele>189.939</ele>
        <time>2019-06-21T12:23:53Z</time>
      </trkpt>
      <trkpt lat="43.306444" lon="-8.886867">
        <ele>190.371</ele>
        <time>2019-06-21T12:23:54Z</time>
      </trkpt>
      <trkpt lat="43.306569" lon="-8.886920">
        <ele>190.283</ele>
        <time>2019-06-21T12:23:55Z</time>
      </trkpt>
      <trkpt lat="43.306687" lon="-8.886981">
        <ele>190.080</ele>
        <time>2019-06-21T12:23:56Z</time>
      </trkpt>
      <trkpt lat="43.306796" lon="-8.887049">
        <ele>189.686</ele>
        <time>2019-06-21T12:23:57Z</time>
      </trkpt>
      <trkpt lat="43.306886" lon="-8.887105">
        <ele>189.550</ele>
        <time>2019-06-21T12:23:58Z</time>
      </trkpt>
      <trkpt lat="43.306981" lon="-8.887172">
        <ele>189.562</ele>
        <time>2019-06-21T12:23:59Z</time>
      </trkpt>
      <trkpt lat="43.307079" lon="-8.887232">
        <ele>189.614</ele>
        <time>2019-06-21T12:24:00Z</time>
      </trkpt>
      <trkpt lat="43.307161" lon="-8.887310">
        <ele>189.554</ele>
        <time>2019-06-21T12:24:01Z</time>
      </trkpt>
      <trkpt lat="43.307247" lon="-8.887394">
        <ele>189.509</ele>
        <time>2019-06-21T12:24:02Z</time>
      </trkpt>
      <trkpt lat="43.307303" lon="-8.887488">
        <ele>189.708</ele>
        <time>2019-06-21T12:24:03Z</time>
      </trkpt>
      <trkpt lat="43.307365" lon="-8.887595">
        <ele>189.334</ele>
        <time>2019-06-21T12:24:04Z</time>
      </trkpt>
      <trkpt lat="43.307411" lon="-8.887731">
        <ele>188.898</ele>
        <time>2019-06-21T12:24:05Z</time>
      </trkpt>
      <trkpt lat="43.307447" lon="-8.887878">
        <ele>187.760</ele>
        <time>2019-06-21T12:24:06Z</time>
      </trkpt>
      <trkpt lat="43.307482" lon="-8.888037">
        <ele>186.352</ele>
        <time>2019-06-21T12:24:07Z</time>
      </trkpt>
      <trkpt lat="43.307500" lon="-8.888196">
        <ele>186.019</ele>
        <time>2019-06-21T12:24:08Z</time>
      </trkpt>
      <trkpt lat="43.307512" lon="-8.888357">
        <ele>185.875</ele>
        <time>2019-06-21T12:24:09Z</time>
      </trkpt>
      <trkpt lat="43.307516" lon="-8.888512">
        <ele>185.789</ele>
        <time>2019-06-21T12:24:10Z</time>
      </trkpt>
      <trkpt lat="43.307529" lon="-8.888655">
        <ele>185.711</ele>
        <time>2019-06-21T12:24:11Z</time>
      </trkpt>
      <trkpt lat="43.307571" lon="-8.888800">
        <ele>185.783</ele>
        <time>2019-06-21T12:24:12Z</time>
      </trkpt>
      <trkpt lat="43.307619" lon="-8.888939">
        <ele>185.625</ele>
        <time>2019-06-21T12:24:13Z</time>
      </trkpt>
      <trkpt lat="43.307682" lon="-8.889077">
        <ele>185.717</ele>
        <time>2019-06-21T12:24:14Z</time>
      </trkpt>
      <trkpt lat="43.307761" lon="-8.889218">
        <ele>185.608</ele>
        <time>2019-06-21T12:24:15Z</time>
      </trkpt>
      <trkpt lat="43.307858" lon="-8.889361">
        <ele>185.621</ele>
        <time>2019-06-21T12:24:16Z</time>
      </trkpt>
      <trkpt lat="43.307955" lon="-8.889490">
        <ele>186.285</ele>
        <time>2019-06-21T12:24:17Z</time>
      </trkpt>
      <trkpt lat="43.308059" lon="-8.889608">
        <ele>186.767</ele>
        <time>2019-06-21T12:24:18Z</time>
      </trkpt>
      <trkpt lat="43.308162" lon="-8.889716">
        <ele>187.599</ele>
        <time>2019-06-21T12:24:19Z</time>
      </trkpt>
      <trkpt lat="43.308270" lon="-8.889830">
        <ele>188.786</ele>
        <time>2019-06-21T12:24:20Z</time>
      </trkpt>
      <trkpt lat="43.308380" lon="-8.889947">
        <ele>189.992</ele>
        <time>2019-06-21T12:24:21Z</time>
      </trkpt>
      <trkpt lat="43.308463" lon="-8.890052">
        <ele>190.686</ele>
        <time>2019-06-21T12:24:22Z</time>
      </trkpt>
      <trkpt lat="43.308557" lon="-8.890135">
        <ele>190.898</ele>
        <time>2019-06-21T12:24:23Z</time>
      </trkpt>
      <trkpt lat="43.308630" lon="-8.890218">
        <ele>191.222</ele>
        <time>2019-06-21T12:24:24Z</time>
      </trkpt>
      <trkpt lat="43.308690" lon="-8.890297">
        <ele>191.662</ele>
        <time>2019-06-21T12:24:25Z</time>
      </trkpt>
      <trkpt lat="43.308739" lon="-8.890386">
        <ele>192.108</ele>
        <time>2019-06-21T12:24:26Z</time>
      </trkpt>
      <trkpt lat="43.308776" lon="-8.890492">
        <ele>192.708</ele>
        <time>2019-06-21T12:24:27Z</time>
      </trkpt>
      <trkpt lat="43.308804" lon="-8.890610">
        <ele>193.335</ele>
        <time>2019-06-21T12:24:28Z</time>
      </trkpt>
      <trkpt lat="43.308822" lon="-8.890748">
        <ele>194.169</ele>
        <time>2019-06-21T12:24:29Z</time>
      </trkpt>
      <trkpt lat="43.308833" lon="-8.890904">
        <ele>194.921</ele>
        <time>2019-06-21T12:24:30Z</time>
      </trkpt>
      <trkpt lat="43.308850" lon="-8.891061">
        <ele>195.283</ele>
        <time>2019-06-21T12:24:31Z</time>
      </trkpt>
      <trkpt lat="43.308870" lon="-8.891233">
        <ele>195.240</ele>
        <time>2019-06-21T12:24:32Z</time>
      </trkpt>
      <trkpt lat="43.308885" lon="-8.891398">
        <ele>195.056</ele>
        <time>2019-06-21T12:24:33Z</time>
      </trkpt>
      <trkpt lat="43.308895" lon="-8.891555">
        <ele>194.440</ele>
        <time>2019-06-21T12:24:34Z</time>
      </trkpt>
      <trkpt lat="43.308908" lon="-8.891707">
        <ele>193.822</ele>
        <time>2019-06-21T12:24:35Z</time>
      </trkpt>
      <trkpt lat="43.308917" lon="-8.891856">
        <ele>193.235</ele>
        <time>2019-06-21T12:24:36Z</time>
      </trkpt>
      <trkpt lat="43.308936" lon="-8.892002">
        <ele>192.486</ele>
        <time>2019-06-21T12:24:37Z</time>
      </trkpt>
      <trkpt lat="43.308957" lon="-8.892155">
        <ele>191.114</ele>
        <time>2019-06-21T12:24:38Z</time>
      </trkpt>
      <trkpt lat="43.308991" lon="-8.892306">
        <ele>189.608</ele>
        <time>2019-06-21T12:24:39Z</time>
      </trkpt>
      <trkpt lat="43.309021" lon="-8.892444">
        <ele>188.456</ele>
        <time>2019-06-21T12:24:40Z</time>
      </trkpt>
      <trkpt lat="43.309063" lon="-8.892583">
        <ele>187.740</ele>
        <time>2019-06-21T12:24:41Z</time>
      </trkpt>
      <trkpt lat="43.309105" lon="-8.892725">
        <ele>187.292</ele>
        <time>2019-06-21T12:24:42Z</time>
      </trkpt>
      <trkpt lat="43.309144" lon="-8.892866">
        <ele>186.324</ele>
        <time>2019-06-21T12:24:43Z</time>
      </trkpt>
      <trkpt lat="43.309196" lon="-8.893006">
        <ele>185.661</ele>
        <time>2019-06-21T12:24:44Z</time>
      </trkpt>
      <trkpt lat="43.309246" lon="-8.893138">
        <ele>184.647</ele>
        <time>2019-06-21T12:24:45Z</time>
      </trkpt>
      <trkpt lat="43.309298" lon="-8.893261">
        <ele>183.441</ele>
        <time>2019-06-21T12:24:46Z</time>
      </trkpt>
      <trkpt lat="43.309352" lon="-8.893379">
        <ele>182.093</ele>
        <time>2019-06-21T12:24:47Z</time>
      </trkpt>
      <trkpt lat="43.309421" lon="-8.893479">
        <ele>180.841</ele>
        <time>2019-06-21T12:24:48Z</time>
      </trkpt>
      <trkpt lat="43.309491" lon="-8.893576">
        <ele>180.081</ele>
        <time>2019-06-21T12:24:49Z</time>
      </trkpt>
      <trkpt lat="43.309583" lon="-8.893649">
        <ele>179.809</ele>
        <time>2019-06-21T12:24:50Z</time>
      </trkpt>
      <trkpt lat="43.309690" lon="-8.893717">
        <ele>179.708</ele>
        <time>2019-06-21T12:24:51Z</time>
      </trkpt>
      <trkpt lat="43.309791" lon="-8.893781">
        <ele>179.177</ele>
        <time>2019-06-21T12:24:52Z</time>
      </trkpt>
      <trkpt lat="43.309895" lon="-8.893849">
        <ele>177.911</ele>
        <time>2019-06-21T12:24:53Z</time>
      </trkpt>
      <trkpt lat="43.309992" lon="-8.893910">
        <ele>176.723</ele>
        <time>2019-06-21T12:24:54Z</time>
      </trkpt>
      <trkpt lat="43.310086" lon="-8.893962">
        <ele>176.235</ele>
        <time>2019-06-21T12:24:55Z</time>
      </trkpt>
      <trkpt lat="43.310183" lon="-8.894010">
        <ele>175.622</ele>
        <time>2019-06-21T12:24:56Z</time>
      </trkpt>
      <trkpt lat="43.310276" lon="-8.894071">
        <ele>174.728</ele>
        <time>2019-06-21T12:24:57Z</time>
      </trkpt>
      <trkpt lat="43.310366" lon="-8.894116">
        <ele>174.132</ele>
        <time>2019-06-21T12:24:58Z</time>
      </trkpt>
      <trkpt lat="43.310433" lon="-8.894185">
        <ele>173.424</ele>
        <time>2019-06-21T12:24:59Z</time>
      </trkpt>
      <trkpt lat="43.310525" lon="-8.894254">
        <ele>173.289</ele>
        <time>2019-06-21T12:25:00Z</time>
      </trkpt>
      <trkpt lat="43.310614" lon="-8.894325">
        <ele>172.906</ele>
        <time>2019-06-21T12:25:01Z</time>
      </trkpt>
      <trkpt lat="43.310698" lon="-8.894400">
        <ele>172.426</ele>
        <time>2019-06-21T12:25:02Z</time>
      </trkpt>
      <trkpt lat="43.310787" lon="-8.894481">
        <ele>171.808</ele>
        <time>2019-06-21T12:25:03Z</time>
      </trkpt>
      <trkpt lat="43.310880" lon="-8.894565">
        <ele>171.141</ele>
        <time>2019-06-21T12:25:04Z</time>
      </trkpt>
      <trkpt lat="43.310966" lon="-8.894649">
        <ele>170.275</ele>
        <time>2019-06-21T12:25:05Z</time>
      </trkpt>
      <trkpt lat="43.311054" lon="-8.894730">
        <ele>169.157</ele>
        <time>2019-06-21T12:25:06Z</time>
      </trkpt>
      <trkpt lat="43.311140" lon="-8.894824">
        <ele>167.279</ele>
        <time>2019-06-21T12:25:07Z</time>
      </trkpt>
      <trkpt lat="43.311227" lon="-8.894920">
        <ele>164.726</ele>
        <time>2019-06-21T12:25:08Z</time>
      </trkpt>
      <trkpt lat="43.311323" lon="-8.895033">
        <ele>161.442</ele>
        <time>2019-06-21T12:25:09Z</time>
      </trkpt>
      <trkpt lat="43.311417" lon="-8.895142">
        <ele>158.456</ele>
        <time>2019-06-21T12:25:10Z</time>
      </trkpt>
      <trkpt lat="43.311511" lon="-8.895253">
        <ele>156.128</ele>
        <time>2019-06-21T12:25:11Z</time>
      </trkpt>
      <trkpt lat="43.311610" lon="-8.895373">
        <ele>153.529</ele>
        <time>2019-06-21T12:25:12Z</time>
      </trkpt>
      <trkpt lat="43.311724" lon="-8.895504">
        <ele>151.300</ele>
        <time>2019-06-21T12:25:13Z</time>
      </trkpt>
      <trkpt lat="43.311839" lon="-8.895639">
        <ele>150.020</ele>
        <time>2019-06-21T12:25:14Z</time>
      </trkpt>
      <trkpt lat="43.311963" lon="-8.895774">
        <ele>148.908</ele>
        <time>2019-06-21T12:25:15Z</time>
      </trkpt>
      <trkpt lat="43.312095" lon="-8.895903">
        <ele>147.255</ele>
        <time>2019-06-21T12:25:16Z</time>
      </trkpt>
      <trkpt lat="43.312225" lon="-8.896042">
        <ele>144.529</ele>
        <time>2019-06-21T12:25:17Z</time>
      </trkpt>
      <trkpt lat="43.312358" lon="-8.896189">
        <ele>141.231</ele>
        <time>2019-06-21T12:25:18Z</time>
      </trkpt>
      <trkpt lat="43.312493" lon="-8.896330">
        <ele>138.973</ele>
        <time>2019-06-21T12:25:19Z</time>
      </trkpt>
      <trkpt lat="43.312627" lon="-8.896468">
        <ele>137.960</ele>
        <time>2019-06-21T12:25:20Z</time>
      </trkpt>
      <trkpt lat="43.312756" lon="-8.896598">
        <ele>137.496</ele>
        <time>2019-06-21T12:25:21Z</time>
      </trkpt>
      <trkpt lat="43.312887" lon="-8.896722">
        <ele>136.450</ele>
        <time>2019-06-21T12:25:22Z</time>
      </trkpt>
      <trkpt lat="43.313015" lon="-8.896846">
        <ele>135.592</ele>
        <time>2019-06-21T12:25:23Z</time>
      </trkpt>
      <trkpt lat="43.313139" lon="-8.896972">
        <ele>135.145</ele>
        <time>2019-06-21T12:25:24Z</time>
      </trkpt>
      <trkpt lat="43.313260" lon="-8.897110">
        <ele>135.247</ele>
        <time>2019-06-21T12:25:25Z</time>
      </trkpt>
      <trkpt lat="43.313377" lon="-8.897255">
        <ele>135.011</ele>
        <time>2019-06-21T12:25:26Z</time>
      </trkpt>
      <trkpt lat="43.313484" lon="-8.897409">
        <ele>135.008</ele>
        <time>2019-06-21T12:25:27Z</time>
      </trkpt>
      <trkpt lat="43.313590" lon="-8.897565">
        <ele>135.077</ele>
        <time>2019-06-21T12:25:28Z</time>
      </trkpt>
      <trkpt lat="43.313690" lon="-8.897724">
        <ele>134.741</ele>
        <time>2019-06-21T12:25:29Z</time>
      </trkpt>
      <trkpt lat="43.313792" lon="-8.897884">
        <ele>133.713</ele>
        <time>2019-06-21T12:25:30Z</time>
      </trkpt>
      <trkpt lat="43.313888" lon="-8.898044">
        <ele>132.155</ele>
        <time>2019-06-21T12:25:31Z</time>
      </trkpt>
      <trkpt lat="43.313984" lon="-8.898208">
        <ele>129.912</ele>
        <time>2019-06-21T12:25:32Z</time>
      </trkpt>
      <trkpt lat="43.314076" lon="-8.898366">
        <ele>128.128</ele>
        <time>2019-06-21T12:25:33Z</time>
      </trkpt>
      <trkpt lat="43.314162" lon="-8.898516">
        <ele>126.732</ele>
        <time>2019-06-21T12:25:34Z</time>
      </trkpt>
      <trkpt lat="43.314244" lon="-8.898654">
        <ele>125.964</ele>
        <time>2019-06-21T12:25:35Z</time>
      </trkpt>
      <trkpt lat="43.314337" lon="-8.898768">
        <ele>125.159</ele>
        <time>2019-06-21T12:25:36Z</time>
      </trkpt>
      <trkpt lat="43.314433" lon="-8.898884">
        <ele>124.103</ele>
        <time>2019-06-21T12:25:37Z</time>
      </trkpt>
      <trkpt lat="43.314542" lon="-8.898987">
        <ele>122.923</ele>
        <time>2019-06-21T12:25:38Z</time>
      </trkpt>
      <trkpt lat="43.314657" lon="-8.899074">
        <ele>122.008</ele>
        <time>2019-06-21T12:25:39Z</time>
      </trkpt>
      <trkpt lat="43.314761" lon="-8.899162">
        <ele>120.838</ele>
        <time>2019-06-21T12:25:40Z</time>
      </trkpt>
      <trkpt lat="43.314881" lon="-8.899241">
        <ele>119.182</ele>
        <time>2019-06-21T12:25:41Z</time>
      </trkpt>
      <trkpt lat="43.314998" lon="-8.899292">
        <ele>117.724</ele>
        <time>2019-06-21T12:25:42Z</time>
      </trkpt>
      <trkpt lat="43.315124" lon="-8.899343">
        <ele>116.526</ele>
        <time>2019-06-21T12:25:43Z</time>
      </trkpt>
      <trkpt lat="43.315262" lon="-8.899348">
        <ele>115.813</ele>
        <time>2019-06-21T12:25:44Z</time>
      </trkpt>
      <trkpt lat="43.315405" lon="-8.899347">
        <ele>115.169</ele>
        <time>2019-06-21T12:25:45Z</time>
      </trkpt>
      <trkpt lat="43.315540" lon="-8.899325">
        <ele>114.513</ele>
        <time>2019-06-21T12:25:46Z</time>
      </trkpt>
      <trkpt lat="43.315668" lon="-8.899304">
        <ele>114.535</ele>
        <time>2019-06-21T12:25:47Z</time>
      </trkpt>
      <trkpt lat="43.315795" lon="-8.899288">
        <ele>114.655</ele>
        <time>2019-06-21T12:25:48Z</time>
      </trkpt>
      <trkpt lat="43.315920" lon="-8.899290">
        <ele>114.707</ele>
        <time>2019-06-21T12:25:49Z</time>
      </trkpt>
      <trkpt lat="43.316049" lon="-8.899313">
        <ele>114.917</ele>
        <time>2019-06-21T12:25:50Z</time>
      </trkpt>
      <trkpt lat="43.316178" lon="-8.899362">
        <ele>115.008</ele>
        <time>2019-06-21T12:25:51Z</time>
      </trkpt>
      <trkpt lat="43.316305" lon="-8.899426">
        <ele>115.098</ele>
        <time>2019-06-21T12:25:52Z</time>
      </trkpt>
      <trkpt lat="43.316431" lon="-8.899486">
        <ele>114.792</ele>
        <time>2019-06-21T12:25:53Z</time>
      </trkpt>
      <trkpt lat="43.316559" lon="-8.899539">
        <ele>114.034</ele>
        <time>2019-06-21T12:25:54Z</time>
      </trkpt>
      <trkpt lat="43.316686" lon="-8.899571">
        <ele>113.466</ele>
        <time>2019-06-21T12:25:55Z</time>
      </trkpt>
      <trkpt lat="43.316818" lon="-8.899598">
        <ele>112.623</ele>
        <time>2019-06-21T12:25:56Z</time>
      </trkpt>
      <trkpt lat="43.316947" lon="-8.899622">
        <ele>111.799</ele>
        <time>2019-06-21T12:25:57Z</time>
      </trkpt>
      <trkpt lat="43.317067" lon="-8.899635">
        <ele>110.983</ele>
        <time>2019-06-21T12:25:58Z</time>
      </trkpt>
      <trkpt lat="43.317188" lon="-8.899651">
        <ele>110.065</ele>
        <time>2019-06-21T12:25:59Z</time>
      </trkpt>
      <trkpt lat="43.317299" lon="-8.899686">
        <ele>109.159</ele>
        <time>2019-06-21T12:26:00Z</time>
      </trkpt>
      <trkpt lat="43.317409" lon="-8.899745">
        <ele>108.103</ele>
        <time>2019-06-21T12:26:01Z</time>
      </trkpt>
      <trkpt lat="43.317515" lon="-8.899831">
        <ele>106.723</ele>
        <time>2019-06-21T12:26:02Z</time>
      </trkpt>
      <trkpt lat="43.317606" lon="-8.899940">
        <ele>104.708</ele>
        <time>2019-06-21T12:26:03Z</time>
      </trkpt>
      <trkpt lat="43.317690" lon="-8.900082">
        <ele>102.258</ele>
        <time>2019-06-21T12:26:04Z</time>
      </trkpt>
      <trkpt lat="43.317770" lon="-8.900245">
        <ele>99.582</ele>
        <time>2019-06-21T12:26:05Z</time>
      </trkpt>
      <trkpt lat="43.317849" lon="-8.900415">
        <ele>96.914</ele>
        <time>2019-06-21T12:26:06Z</time>
      </trkpt>
      <trkpt lat="43.317931" lon="-8.900587">
        <ele>94.146</ele>
        <time>2019-06-21T12:26:07Z</time>
      </trkpt>
      <trkpt lat="43.318015" lon="-8.900762">
        <ele>91.313</ele>
        <time>2019-06-21T12:26:08Z</time>
      </trkpt>
      <trkpt lat="43.318100" lon="-8.900931">
        <ele>89.489</ele>
        <time>2019-06-21T12:26:09Z</time>
      </trkpt>
      <trkpt lat="43.318184" lon="-8.901102">
        <ele>87.733</ele>
        <time>2019-06-21T12:26:10Z</time>
      </trkpt>
      <trkpt lat="43.318268" lon="-8.901275">
        <ele>85.255</ele>
        <time>2019-06-21T12:26:11Z</time>
      </trkpt>
      <trkpt lat="43.318352" lon="-8.901443">
        <ele>82.913</ele>
        <time>2019-06-21T12:26:12Z</time>
      </trkpt>
      <trkpt lat="43.318439" lon="-8.901611">
        <ele>82.343</ele>
        <time>2019-06-21T12:26:13Z</time>
      </trkpt>
      <trkpt lat="43.318522" lon="-8.901777">
        <ele>82.407</ele>
        <time>2019-06-21T12:26:14Z</time>
      </trkpt>
      <trkpt lat="43.318605" lon="-8.901946">
        <ele>82.108</ele>
        <time>2019-06-21T12:26:15Z</time>
      </trkpt>
      <trkpt lat="43.318686" lon="-8.902115">
        <ele>81.014</ele>
        <time>2019-06-21T12:26:16Z</time>
      </trkpt>
      <trkpt lat="43.318759" lon="-8.902278">
        <ele>79.268</ele>
        <time>2019-06-21T12:26:17Z</time>
      </trkpt>
      <trkpt lat="43.318822" lon="-8.902431">
        <ele>76.980</ele>
        <time>2019-06-21T12:26:18Z</time>
      </trkpt>
      <trkpt lat="43.318873" lon="-8.902573">
        <ele>74.622</ele>
        <time>2019-06-21T12:26:19Z</time>
      </trkpt>
      <trkpt lat="43.318910" lon="-8.902710">
        <ele>73.299</ele>
        <time>2019-06-21T12:26:20Z</time>
      </trkpt>
      <trkpt lat="43.318931" lon="-8.902846">
        <ele>71.985</ele>
        <time>2019-06-21T12:26:21Z</time>
      </trkpt>
      <trkpt lat="43.318930" lon="-8.902993">
        <ele>71.149</ele>
        <time>2019-06-21T12:26:22Z</time>
      </trkpt>
      <trkpt lat="43.318906" lon="-8.903153">
        <ele>70.491</ele>
        <time>2019-06-21T12:26:23Z</time>
      </trkpt>
      <trkpt lat="43.318868" lon="-8.903330">
        <ele>69.724</ele>
        <time>2019-06-21T12:26:24Z</time>
      </trkpt>
      <trkpt lat="43.318829" lon="-8.903507">
        <ele>68.904</ele>
        <time>2019-06-21T12:26:25Z</time>
      </trkpt>
      <trkpt lat="43.318788" lon="-8.903680">
        <ele>68.614</ele>
        <time>2019-06-21T12:26:26Z</time>
      </trkpt>
      <trkpt lat="43.318757" lon="-8.903855">
        <ele>68.508</ele>
        <time>2019-06-21T12:26:27Z</time>
      </trkpt>
      <trkpt lat="43.318746" lon="-8.904018">
        <ele>68.845</ele>
        <time>2019-06-21T12:26:28Z</time>
      </trkpt>
      <trkpt lat="43.318766" lon="-8.904163">
        <ele>68.829</ele>
        <time>2019-06-21T12:26:29Z</time>
      </trkpt>
      <trkpt lat="43.318802" lon="-8.904306">
        <ele>68.991</ele>
        <time>2019-06-21T12:26:30Z</time>
      </trkpt>
      <trkpt lat="43.318857" lon="-8.904453">
        <ele>68.763</ele>
        <time>2019-06-21T12:26:31Z</time>
      </trkpt>
      <trkpt lat="43.318925" lon="-8.904594">
        <ele>69.390</ele>
        <time>2019-06-21T12:26:32Z</time>
      </trkpt>
      <trkpt lat="43.319005" lon="-8.904711">
        <ele>69.386</ele>
        <time>2019-06-21T12:26:33Z</time>
      </trkpt>
      <trkpt lat="43.319084" lon="-8.904814">
        <ele>68.680</ele>
        <time>2019-06-21T12:26:34Z</time>
      </trkpt>
      <trkpt lat="43.319164" lon="-8.904904">
        <ele>67.782</ele>
        <time>2019-06-21T12:26:35Z</time>
      </trkpt>
      <trkpt lat="43.319242" lon="-8.904999">
        <ele>67.261</ele>
        <time>2019-06-21T12:26:36Z</time>
      </trkpt>
      <trkpt lat="43.319319" lon="-8.905092">
        <ele>66.321</ele>
        <time>2019-06-21T12:26:37Z</time>
      </trkpt>
      <trkpt lat="43.319393" lon="-8.905189">
        <ele>65.113</ele>
        <time>2019-06-21T12:26:38Z</time>
      </trkpt>
      <trkpt lat="43.319463" lon="-8.905291">
        <ele>63.908</ele>
        <time>2019-06-21T12:26:39Z</time>
      </trkpt>
      <trkpt lat="43.319530" lon="-8.905399">
        <ele>63.359</ele>
        <time>2019-06-21T12:26:40Z</time>
      </trkpt>
      <trkpt lat="43.319589" lon="-8.905511">
        <ele>62.623</ele>
        <time>2019-06-21T12:26:41Z</time>
      </trkpt>
      <trkpt lat="43.319647" lon="-8.905636">
        <ele>62.035</ele>
        <time>2019-06-21T12:26:42Z</time>
      </trkpt>
      <trkpt lat="43.319701" lon="-8.905765">
        <ele>61.397</ele>
        <time>2019-06-21T12:26:43Z</time>
      </trkpt>
      <trkpt lat="43.319738" lon="-8.905897">
        <ele>60.844</ele>
        <time>2019-06-21T12:26:44Z</time>
      </trkpt>
      <trkpt lat="43.319758" lon="-8.906036">
        <ele>60.250</ele>
        <time>2019-06-21T12:26:45Z</time>
      </trkpt>
      <trkpt lat="43.319766" lon="-8.906170">
        <ele>59.684</ele>
        <time>2019-06-21T12:26:46Z</time>
      </trkpt>
      <trkpt lat="43.319763" lon="-8.906304">
        <ele>59.186</ele>
        <time>2019-06-21T12:26:47Z</time>
      </trkpt>
      <trkpt lat="43.319759" lon="-8.906444">
        <ele>58.369</ele>
        <time>2019-06-21T12:26:48Z</time>
      </trkpt>
      <trkpt lat="43.319756" lon="-8.906591">
        <ele>57.204</ele>
        <time>2019-06-21T12:26:49Z</time>
      </trkpt>
      <trkpt lat="43.319750" lon="-8.906750">
        <ele>56.124</ele>
        <time>2019-06-21T12:26:50Z</time>
      </trkpt>
      <trkpt lat="43.319741" lon="-8.906916">
        <ele>55.008</ele>
        <time>2019-06-21T12:26:51Z</time>
      </trkpt>
      <trkpt lat="43.319730" lon="-8.907083">
        <ele>54.419</ele>
        <time>2019-06-21T12:26:52Z</time>
      </trkpt>
      <trkpt lat="43.319719" lon="-8.907242">
        <ele>54.183</ele>
        <time>2019-06-21T12:26:53Z</time>
      </trkpt>
      <trkpt lat="43.319709" lon="-8.907402">
        <ele>54.255</ele>
        <time>2019-06-21T12:26:54Z</time>
      </trkpt>
      <trkpt lat="43.319702" lon="-8.907553">
        <ele>54.487</ele>
        <time>2019-06-21T12:26:55Z</time>
      </trkpt>
      <trkpt lat="43.319695" lon="-8.907701">
        <ele>54.534</ele>
        <time>2019-06-21T12:26:56Z</time>
      </trkpt>
      <trkpt lat="43.319690" lon="-8.907848">
        <ele>54.650</ele>
        <time>2019-06-21T12:26:57Z</time>
      </trkpt>
      <trkpt lat="43.319681" lon="-8.907992">
        <ele>54.664</ele>
        <time>2019-06-21T12:26:58Z</time>
      </trkpt>
      <trkpt lat="43.319676" lon="-8.908129">
        <ele>54.376</ele>
        <time>2019-06-21T12:26:59Z</time>
      </trkpt>
      <trkpt lat="43.319671" lon="-8.908260">
        <ele>53.773</ele>
        <time>2019-06-21T12:27:00Z</time>
      </trkpt>
      <trkpt lat="43.319666" lon="-8.908383">
        <ele>53.085</ele>
        <time>2019-06-21T12:27:01Z</time>
      </trkpt>
      <trkpt lat="43.319662" lon="-8.908499">
        <ele>52.113</ele>
        <time>2019-06-21T12:27:02Z</time>
      </trkpt>
      <trkpt lat="43.319658" lon="-8.908607">
        <ele>51.308</ele>
        <time>2019-06-21T12:27:03Z</time>
      </trkpt>
      <trkpt lat="43.319655" lon="-8.908705">
        <ele>50.180</ele>
        <time>2019-06-21T12:27:04Z</time>
      </trkpt>
      <trkpt lat="43.319664" lon="-8.908802">
        <ele>49.014</ele>
        <time>2019-06-21T12:27:05Z</time>
      </trkpt>
      <trkpt lat="43.319686" lon="-8.908887">
        <ele>48.016</ele>
        <time>2019-06-21T12:27:06Z</time>
      </trkpt>
      <trkpt lat="43.319712" lon="-8.908972">
        <ele>46.838</ele>
        <time>2019-06-21T12:27:07Z</time>
      </trkpt>
      <trkpt lat="43.319743" lon="-8.909055">
        <ele>45.575</ele>
        <time>2019-06-21T12:27:08Z</time>
      </trkpt>
      <trkpt lat="43.319772" lon="-8.909137">
        <ele>44.111</ele>
        <time>2019-06-21T12:27:09Z</time>
      </trkpt>
      <trkpt lat="43.319806" lon="-8.909218">
        <ele>42.635</ele>
        <time>2019-06-21T12:27:10Z</time>
      </trkpt>
      <trkpt lat="43.319843" lon="-8.909283">
        <ele>41.427</ele>
        <time>2019-06-21T12:27:11Z</time>
      </trkpt>
      <trkpt lat="43.319876" lon="-8.909347">
        <ele>40.463</ele>
        <time>2019-06-21T12:27:12Z</time>
      </trkpt>
      <trkpt lat="43.319915" lon="-8.909406">
        <ele>39.544</ele>
        <time>2019-06-21T12:27:13Z</time>
      </trkpt>
      <trkpt lat="43.319949" lon="-8.909462">
        <ele>38.718</ele>
        <time>2019-06-21T12:27:14Z</time>
      </trkpt>
      <trkpt lat="43.319989" lon="-8.909514">
        <ele>38.008</ele>
        <time>2019-06-21T12:27:15Z</time>
      </trkpt>
      <trkpt lat="43.320028" lon="-8.909567">
        <ele>37.289</ele>
        <time>2019-06-21T12:27:16Z</time>
      </trkpt>
      <trkpt lat="43.320074" lon="-8.909619">
        <ele>36.673</ele>
        <time>2019-06-21T12:27:17Z</time>
      </trkpt>
      <trkpt lat="43.320110" lon="-8.909676">
        <ele>36.295</ele>
        <time>2019-06-21T12:27:18Z</time>
      </trkpt>
      <trkpt lat="43.320153" lon="-8.909710">
        <ele>36.247</ele>
        <time>2019-06-21T12:27:19Z</time>
      </trkpt>
      <trkpt lat="43.320194" lon="-8.909742">
        <ele>36.254</ele>
        <time>2019-06-21T12:27:20Z</time>
      </trkpt>
      <trkpt lat="43.320256" lon="-8.909770">
        <ele>36.490</ele>
        <time>2019-06-21T12:27:22Z</time>
      </trkpt>
      <trkpt lat="43.320210" lon="-8.909776">
        <ele>35.984</ele>
        <time>2019-06-21T12:27:46Z</time>
      </trkpt>
      <trkpt lat="43.320256" lon="-8.909804">
        <ele>36.226</ele>
        <time>2019-06-21T12:28:45Z</time>
      </trkpt>
      <trkpt lat="43.320273" lon="-8.909864">
        <ele>35.939</ele>
        <time>2019-06-21T12:28:50Z</time>
      </trkpt>
      <trkpt lat="43.320186" lon="-8.909824">
        <ele>35.101</ele>
        <time>2019-06-21T12:31:53Z</time>
      </trkpt>
      <trkpt lat="43.320166" lon="-8.909765">
        <ele>35.621</ele>
        <time>2019-06-21T12:33:26Z</time>
      </trkpt>
      <trkpt lat="43.320123" lon="-8.909712">
        <ele>36.008</ele>
        <time>2019-06-21T12:33:27Z</time>
      </trkpt>
      <trkpt lat="43.320060" lon="-8.909643">
        <ele>36.316</ele>
        <time>2019-06-21T12:33:28Z</time>
      </trkpt>
      <trkpt lat="43.319981" lon="-8.909553">
        <ele>37.410</ele>
        <time>2019-06-21T12:33:29Z</time>
      </trkpt>
      <trkpt lat="43.319914" lon="-8.909450">
        <ele>38.952</ele>
        <time>2019-06-21T12:33:30Z</time>
      </trkpt>
      <trkpt lat="43.319843" lon="-8.909346">
        <ele>40.534</ele>
        <time>2019-06-21T12:33:31Z</time>
      </trkpt>
      <trkpt lat="43.319775" lon="-8.909237">
        <ele>42.561</ele>
        <time>2019-06-21T12:33:32Z</time>
      </trkpt>
      <trkpt lat="43.319717" lon="-8.909121">
        <ele>44.797</ele>
        <time>2019-06-21T12:33:33Z</time>
      </trkpt>
      <trkpt lat="43.319672" lon="-8.909006">
        <ele>46.331</ele>
        <time>2019-06-21T12:33:34Z</time>
      </trkpt>
      <trkpt lat="43.319650" lon="-8.908881">
        <ele>48.153</ele>
        <time>2019-06-21T12:33:35Z</time>
      </trkpt>
      <trkpt lat="43.319632" lon="-8.908760">
        <ele>49.573</ele>
        <time>2019-06-21T12:33:36Z</time>
      </trkpt>
      <trkpt lat="43.319623" lon="-8.908649">
        <ele>50.985</ele>
        <time>2019-06-21T12:33:37Z</time>
      </trkpt>
      <trkpt lat="43.319627" lon="-8.908541">
        <ele>51.913</ele>
        <time>2019-06-21T12:33:38Z</time>
      </trkpt>
      <trkpt lat="43.319634" lon="-8.908434">
        <ele>52.808</ele>
        <time>2019-06-21T12:33:39Z</time>
      </trkpt>
      <trkpt lat="43.319629" lon="-8.908326">
        <ele>53.730</ele>
        <time>2019-06-21T12:33:40Z</time>
      </trkpt>
      <trkpt lat="43.319639" lon="-8.908211">
        <ele>54.354</ele>
        <time>2019-06-21T12:33:41Z</time>
      </trkpt>
      <trkpt lat="43.319649" lon="-8.908086">
        <ele>54.996</ele>
        <time>2019-06-21T12:33:42Z</time>
      </trkpt>
      <trkpt lat="43.319664" lon="-8.907958">
        <ele>54.968</ele>
        <time>2019-06-21T12:33:43Z</time>
      </trkpt>
      <trkpt lat="43.319671" lon="-8.907814">
        <ele>54.945</ele>
        <time>2019-06-21T12:33:44Z</time>
      </trkpt>
      <trkpt lat="43.319682" lon="-8.907679">
        <ele>54.751</ele>
        <time>2019-06-21T12:33:45Z</time>
      </trkpt>
      <trkpt lat="43.319692" lon="-8.907531">
        <ele>54.525</ele>
        <time>2019-06-21T12:33:46Z</time>
      </trkpt>
      <trkpt lat="43.319703" lon="-8.907372">
        <ele>54.327</ele>
        <time>2019-06-21T12:33:47Z</time>
      </trkpt>
      <trkpt lat="43.319719" lon="-8.907215">
        <ele>54.135</ele>
        <time>2019-06-21T12:33:48Z</time>
      </trkpt>
      <trkpt lat="43.319731" lon="-8.907055">
        <ele>54.586</ele>
        <time>2019-06-21T12:33:49Z</time>
      </trkpt>
      <trkpt lat="43.319742" lon="-8.906890">
        <ele>55.214</ele>
        <time>2019-06-21T12:33:50Z</time>
      </trkpt>
      <trkpt lat="43.319749" lon="-8.906722">
        <ele>56.308</ele>
        <time>2019-06-21T12:33:51Z</time>
      </trkpt>
      <trkpt lat="43.319752" lon="-8.906539">
        <ele>57.626</ele>
        <time>2019-06-21T12:33:52Z</time>
      </trkpt>
      <trkpt lat="43.319748" lon="-8.906370">
        <ele>58.980</ele>
        <time>2019-06-21T12:33:53Z</time>
      </trkpt>
      <trkpt lat="43.319740" lon="-8.906209">
        <ele>59.642</ele>
        <time>2019-06-21T12:33:54Z</time>
      </trkpt>
      <trkpt lat="43.319732" lon="-8.906067">
        <ele>60.154</ele>
        <time>2019-06-21T12:33:55Z</time>
      </trkpt>
      <trkpt lat="43.319716" lon="-8.905950">
        <ele>60.621</ele>
        <time>2019-06-21T12:33:56Z</time>
      </trkpt>
      <trkpt lat="43.319696" lon="-8.905842">
        <ele>61.137</ele>
        <time>2019-06-21T12:33:57Z</time>
      </trkpt>
      <trkpt lat="43.319664" lon="-8.905747">
        <ele>61.531</ele>
        <time>2019-06-21T12:33:58Z</time>
      </trkpt>
      <trkpt lat="43.319627" lon="-8.905648">
        <ele>62.053</ele>
        <time>2019-06-21T12:33:59Z</time>
      </trkpt>
      <trkpt lat="43.319577" lon="-8.905550">
        <ele>62.581</ele>
        <time>2019-06-21T12:34:00Z</time>
      </trkpt>
      <trkpt lat="43.319519" lon="-8.905448">
        <ele>63.161</ele>
        <time>2019-06-21T12:34:01Z</time>
      </trkpt>
      <trkpt lat="43.319457" lon="-8.905347">
        <ele>63.717</ele>
        <time>2019-06-21T12:34:02Z</time>
      </trkpt>
      <trkpt lat="43.319377" lon="-8.905236">
        <ele>65.308</ele>
        <time>2019-06-21T12:34:03Z</time>
      </trkpt>
      <trkpt lat="43.319281" lon="-8.905118">
        <ele>66.871</ele>
        <time>2019-06-21T12:34:04Z</time>
      </trkpt>
      <trkpt lat="43.319182" lon="-8.905000">
        <ele>67.845</ele>
        <time>2019-06-21T12:34:05Z</time>
      </trkpt>
      <trkpt lat="43.319094" lon="-8.904890">
        <ele>68.857</ele>
        <time>2019-06-21T12:34:06Z</time>
      </trkpt>
      <trkpt lat="43.319010" lon="-8.904797">
        <ele>69.749</ele>
        <time>2019-06-21T12:34:07Z</time>
      </trkpt>
      <trkpt lat="43.318941" lon="-8.904691">
        <ele>70.036</ele>
        <time>2019-06-21T12:34:08Z</time>
      </trkpt>
      <trkpt lat="43.318870" lon="-8.904576">
        <ele>69.882</ele>
        <time>2019-06-21T12:34:09Z</time>
      </trkpt>
      <trkpt lat="43.318829" lon="-8.904422">
        <ele>69.056</ele>
        <time>2019-06-21T12:34:10Z</time>
      </trkpt>
      <trkpt lat="43.318791" lon="-8.904269">
        <ele>68.988</ele>
        <time>2019-06-21T12:34:11Z</time>
      </trkpt>
      <trkpt lat="43.318767" lon="-8.904114">
        <ele>68.657</ele>
        <time>2019-06-21T12:34:12Z</time>
      </trkpt>
      <trkpt lat="43.318754" lon="-8.903951">
        <ele>68.500</ele>
        <time>2019-06-21T12:34:13Z</time>
      </trkpt>
      <trkpt lat="43.318765" lon="-8.903787">
        <ele>68.720</ele>
        <time>2019-06-21T12:34:14Z</time>
      </trkpt>
      <trkpt lat="43.318806" lon="-8.903617">
        <ele>68.408</ele>
        <time>2019-06-21T12:34:15Z</time>
      </trkpt>
      <trkpt lat="43.318839" lon="-8.903451">
        <ele>69.328</ele>
        <time>2019-06-21T12:34:16Z</time>
      </trkpt>
      <trkpt lat="43.318867" lon="-8.903290">
        <ele>70.272</ele>
        <time>2019-06-21T12:34:17Z</time>
      </trkpt>
      <trkpt lat="43.318901" lon="-8.903127">
        <ele>70.984</ele>
        <time>2019-06-21T12:34:18Z</time>
      </trkpt>
      <trkpt lat="43.318915" lon="-8.902965">
        <ele>71.776</ele>
        <time>2019-06-21T12:34:19Z</time>
      </trkpt>
      <trkpt lat="43.318919" lon="-8.902817">
        <ele>72.663</ele>
        <time>2019-06-21T12:34:20Z</time>
      </trkpt>
      <trkpt lat="43.318896" lon="-8.902666">
        <ele>73.749</ele>
        <time>2019-06-21T12:34:21Z</time>
      </trkpt>
      <trkpt lat="43.318850" lon="-8.902518">
        <ele>75.553</ele>
        <time>2019-06-21T12:34:22Z</time>
      </trkpt>
      <trkpt lat="43.318786" lon="-8.902363">
        <ele>78.355</ele>
        <time>2019-06-21T12:34:23Z</time>
      </trkpt>
      <trkpt lat="43.318711" lon="-8.902188">
        <ele>80.519</ele>
        <time>2019-06-21T12:34:24Z</time>
      </trkpt>
      <trkpt lat="43.318630" lon="-8.902008">
        <ele>81.909</ele>
        <time>2019-06-21T12:34:25Z</time>
      </trkpt>
      <trkpt lat="43.318546" lon="-8.901844">
        <ele>82.619</ele>
        <time>2019-06-21T12:34:26Z</time>
      </trkpt>
      <trkpt lat="43.318456" lon="-8.901660">
        <ele>82.108</ele>
        <time>2019-06-21T12:34:27Z</time>
      </trkpt>
      <trkpt lat="43.318357" lon="-8.901477">
        <ele>82.984</ele>
        <time>2019-06-21T12:34:28Z</time>
      </trkpt>
      <trkpt lat="43.318258" lon="-8.901292">
        <ele>85.288</ele>
        <time>2019-06-21T12:34:29Z</time>
      </trkpt>
      <trkpt lat="43.318163" lon="-8.901111">
        <ele>87.810</ele>
        <time>2019-06-21T12:34:30Z</time>
      </trkpt>
      <trkpt lat="43.318078" lon="-8.900931">
        <ele>89.592</ele>
        <time>2019-06-21T12:34:31Z</time>
      </trkpt>
      <trkpt lat="43.317988" lon="-8.900750">
        <ele>91.819</ele>
        <time>2019-06-21T12:34:32Z</time>
      </trkpt>
      <trkpt lat="43.317895" lon="-8.900567">
        <ele>94.615</ele>
        <time>2019-06-21T12:34:33Z</time>
      </trkpt>
      <trkpt lat="43.317812" lon="-8.900399">
        <ele>97.499</ele>
        <time>2019-06-21T12:34:34Z</time>
      </trkpt>
      <trkpt lat="43.317744" lon="-8.900250">
        <ele>99.981</ele>
        <time>2019-06-21T12:34:35Z</time>
      </trkpt>
      <trkpt lat="43.317666" lon="-8.900108">
        <ele>102.441</ele>
        <time>2019-06-21T12:34:36Z</time>
      </trkpt>
      <trkpt lat="43.317575" lon="-8.899971">
        <ele>104.681</ele>
        <time>2019-06-21T12:34:37Z</time>
      </trkpt>
      <trkpt lat="43.317476" lon="-8.899866">
        <ele>106.609</ele>
        <time>2019-06-21T12:34:38Z</time>
      </trkpt>
      <trkpt lat="43.317359" lon="-8.899794">
        <ele>108.008</ele>
        <time>2019-06-21T12:34:39Z</time>
      </trkpt>
      <trkpt lat="43.317232" lon="-8.899754">
        <ele>108.867</ele>
        <time>2019-06-21T12:34:40Z</time>
      </trkpt>
      <trkpt lat="43.317100" lon="-8.899731">
        <ele>109.921</ele>
        <time>2019-06-21T12:34:41Z</time>
      </trkpt>
      <trkpt lat="43.316958" lon="-8.899713">
        <ele>111.033</ele>
        <time>2019-06-21T12:34:42Z</time>
      </trkpt>
      <trkpt lat="43.316818" lon="-8.899698">
        <ele>112.095</ele>
        <time>2019-06-21T12:34:43Z</time>
      </trkpt>
      <trkpt lat="43.316678" lon="-8.899669">
        <ele>113.152</ele>
        <time>2019-06-21T12:34:44Z</time>
      </trkpt>
      <trkpt lat="43.316538" lon="-8.899621">
        <ele>113.888</ele>
        <time>2019-06-21T12:34:45Z</time>
      </trkpt>
      <trkpt lat="43.316395" lon="-8.899563">
        <ele>114.682</ele>
        <time>2019-06-21T12:34:46Z</time>
      </trkpt>
      <trkpt lat="43.316261" lon="-8.899501">
        <ele>114.894</ele>
        <time>2019-06-21T12:34:47Z</time>
      </trkpt>
      <trkpt lat="43.316126" lon="-8.899446">
        <ele>115.012</ele>
        <time>2019-06-21T12:34:48Z</time>
      </trkpt>
      <trkpt lat="43.315998" lon="-8.899391">
        <ele>114.732</ele>
        <time>2019-06-21T12:34:49Z</time>
      </trkpt>
      <trkpt lat="43.315860" lon="-8.899368">
        <ele>114.305</ele>
        <time>2019-06-21T12:34:50Z</time>
      </trkpt>
      <trkpt lat="43.315709" lon="-8.899368">
        <ele>114.308</ele>
        <time>2019-06-21T12:34:51Z</time>
      </trkpt>
      <trkpt lat="43.315555" lon="-8.899391">
        <ele>114.254</ele>
        <time>2019-06-21T12:34:52Z</time>
      </trkpt>
      <trkpt lat="43.315396" lon="-8.899411">
        <ele>114.838</ele>
        <time>2019-06-21T12:34:53Z</time>
      </trkpt>
      <trkpt lat="43.315238" lon="-8.899408">
        <ele>115.470</ele>
        <time>2019-06-21T12:34:54Z</time>
      </trkpt>
      <trkpt lat="43.315084" lon="-8.899389">
        <ele>116.212</ele>
        <time>2019-06-21T12:34:55Z</time>
      </trkpt>
      <trkpt lat="43.314936" lon="-8.899348">
        <ele>117.539</ele>
        <time>2019-06-21T12:34:56Z</time>
      </trkpt>
      <trkpt lat="43.314798" lon="-8.899274">
        <ele>119.365</ele>
        <time>2019-06-21T12:34:57Z</time>
      </trkpt>
      <trkpt lat="43.314671" lon="-8.899183">
        <ele>120.899</ele>
        <time>2019-06-21T12:34:58Z</time>
      </trkpt>
      <trkpt lat="43.314557" lon="-8.899081">
        <ele>121.971</ele>
        <time>2019-06-21T12:34:59Z</time>
      </trkpt>
      <trkpt lat="43.314446" lon="-8.898967">
        <ele>123.241</ele>
        <time>2019-06-21T12:35:00Z</time>
      </trkpt>
      <trkpt lat="43.314327" lon="-8.898833">
        <ele>124.581</ele>
        <time>2019-06-21T12:35:01Z</time>
      </trkpt>
      <trkpt lat="43.314212" lon="-8.898679">
        <ele>125.609</ele>
        <time>2019-06-21T12:35:02Z</time>
      </trkpt>
      <trkpt lat="43.314104" lon="-8.898513">
        <ele>126.908</ele>
        <time>2019-06-21T12:35:03Z</time>
      </trkpt>
      <trkpt lat="43.313998" lon="-8.898340">
        <ele>128.637</ele>
        <time>2019-06-21T12:35:04Z</time>
      </trkpt>
      <trkpt lat="43.313892" lon="-8.898164">
        <ele>130.881</ele>
        <time>2019-06-21T12:35:05Z</time>
      </trkpt>
      <trkpt lat="43.313787" lon="-8.897983">
        <ele>133.263</ele>
        <time>2019-06-21T12:35:06Z</time>
      </trkpt>
      <trkpt lat="43.313686" lon="-8.897810">
        <ele>134.685</ele>
        <time>2019-06-21T12:35:07Z</time>
      </trkpt>
      <trkpt lat="43.313584" lon="-8.897650">
        <ele>135.062</ele>
        <time>2019-06-21T12:35:08Z</time>
      </trkpt>
      <trkpt lat="43.313476" lon="-8.897491">
        <ele>135.038</ele>
        <time>2019-06-21T12:35:09Z</time>
      </trkpt>
      <trkpt lat="43.313364" lon="-8.897331">
        <ele>135.062</ele>
        <time>2019-06-21T12:35:10Z</time>
      </trkpt>
      <trkpt lat="43.313236" lon="-8.897158">
        <ele>135.364</ele>
        <time>2019-06-21T12:35:11Z</time>
      </trkpt>
      <trkpt lat="43.313092" lon="-8.897000">
        <ele>135.232</ele>
        <time>2019-06-21T12:35:12Z</time>
      </trkpt>
      <trkpt lat="43.312945" lon="-8.896842">
        <ele>135.892</ele>
        <time>2019-06-21T12:35:13Z</time>
      </trkpt>
      <trkpt lat="43.312785" lon="-8.896700">
        <ele>136.911</ele>
        <time>2019-06-21T12:35:14Z</time>
      </trkpt>
      <trkpt lat="43.312620" lon="-8.896547">
        <ele>137.308</ele>
        <time>2019-06-21T12:35:15Z</time>
      </trkpt>
      <trkpt lat="43.312458" lon="-8.896399">
        <ele>137.996</ele>
        <time>2019-06-21T12:35:16Z</time>
      </trkpt>
      <trkpt lat="43.312296" lon="-8.896227">
        <ele>140.860</ele>
        <time>2019-06-21T12:35:17Z</time>
      </trkpt>
      <trkpt lat="43.312140" lon="-8.896062">
        <ele>144.022</ele>
        <time>2019-06-21T12:35:18Z</time>
      </trkpt>
      <trkpt lat="43.311983" lon="-8.895904">
        <ele>146.874</ele>
        <time>2019-06-21T12:35:19Z</time>
      </trkpt>
      <trkpt lat="43.311829" lon="-8.895748">
        <ele>148.441</ele>
        <time>2019-06-21T12:35:20Z</time>
      </trkpt>
      <trkpt lat="43.311687" lon="-8.895594">
        <ele>149.667</ele>
        <time>2019-06-21T12:35:21Z</time>
      </trkpt>
      <trkpt lat="43.311543" lon="-8.895441">
        <ele>152.511</ele>
        <time>2019-06-21T12:35:22Z</time>
      </trkpt>
      <trkpt lat="43.311421" lon="-8.895306">
        <ele>155.463</ele>
        <time>2019-06-21T12:35:23Z</time>
      </trkpt>
      <trkpt lat="43.311291" lon="-8.895171">
        <ele>159.381</ele>
        <time>2019-06-21T12:35:24Z</time>
      </trkpt>
      <trkpt lat="43.311164" lon="-8.895043">
        <ele>163.561</ele>
        <time>2019-06-21T12:35:25Z</time>
      </trkpt>
      <trkpt lat="43.311043" lon="-8.894923">
        <ele>166.917</ele>
        <time>2019-06-21T12:35:26Z</time>
      </trkpt>
      <trkpt lat="43.310926" lon="-8.894816">
        <ele>169.008</ele>
        <time>2019-06-21T12:35:27Z</time>
      </trkpt>
      <trkpt lat="43.310807" lon="-8.894712">
        <ele>170.271</ele>
        <time>2019-06-21T12:35:28Z</time>
      </trkpt>
      <trkpt lat="43.310694" lon="-8.894615">
        <ele>171.185</ele>
        <time>2019-06-21T12:35:29Z</time>
      </trkpt>
      <trkpt lat="43.310579" lon="-8.894519">
        <ele>171.777</ele>
        <time>2019-06-21T12:35:30Z</time>
      </trkpt>
      <trkpt lat="43.310460" lon="-8.894434">
        <ele>171.489</ele>
        <time>2019-06-21T12:35:31Z</time>
      </trkpt>
      <trkpt lat="43.310333" lon="-8.894351">
        <ele>171.396</ele>
        <time>2019-06-21T12:35:32Z</time>
      </trkpt>
      <trkpt lat="43.310205" lon="-8.894272">
        <ele>171.892</ele>
        <time>2019-06-21T12:35:33Z</time>
      </trkpt>
      <trkpt lat="43.310072" lon="-8.894200">
        <ele>172.636</ele>
        <time>2019-06-21T12:35:34Z</time>
      </trkpt>
      <trkpt lat="43.309947" lon="-8.894122">
        <ele>173.518</ele>
        <time>2019-06-21T12:35:35Z</time>
      </trkpt>
      <trkpt lat="43.309840" lon="-8.894025">
        <ele>174.858</ele>
        <time>2019-06-21T12:35:36Z</time>
      </trkpt>
      <trkpt lat="43.309735" lon="-8.893943">
        <ele>176.052</ele>
        <time>2019-06-21T12:35:37Z</time>
      </trkpt>
      <trkpt lat="43.309635" lon="-8.893863">
        <ele>176.517</ele>
        <time>2019-06-21T12:35:38Z</time>
      </trkpt>
      <trkpt lat="43.309529" lon="-8.893791">
        <ele>176.708</ele>
        <time>2019-06-21T12:35:39Z</time>
      </trkpt>
      <trkpt lat="43.309439" lon="-8.893686">
        <ele>177.668</ele>
        <time>2019-06-21T12:35:40Z</time>
      </trkpt>
      <trkpt lat="43.309358" lon="-8.893561">
        <ele>179.252</ele>
        <time>2019-06-21T12:35:41Z</time>
      </trkpt>
      <trkpt lat="43.309291" lon="-8.893420">
        <ele>181.034</ele>
        <time>2019-06-21T12:35:42Z</time>
      </trkpt>
      <trkpt lat="43.309226" lon="-8.893261">
        <ele>183.126</ele>
        <time>2019-06-21T12:35:43Z</time>
      </trkpt>
      <trkpt lat="43.309163" lon="-8.893095">
        <ele>184.663</ele>
        <time>2019-06-21T12:35:44Z</time>
      </trkpt>
      <trkpt lat="43.309102" lon="-8.892920">
        <ele>185.919</ele>
        <time>2019-06-21T12:35:45Z</time>
      </trkpt>
      <trkpt lat="43.309047" lon="-8.892737">
        <ele>187.143</ele>
        <time>2019-06-21T12:35:46Z</time>
      </trkpt>
      <trkpt lat="43.308997" lon="-8.892545">
        <ele>187.835</ele>
        <time>2019-06-21T12:35:47Z</time>
      </trkpt>
      <trkpt lat="43.308954" lon="-8.892346">
        <ele>189.494</ele>
        <time>2019-06-21T12:35:48Z</time>
      </trkpt>
      <trkpt lat="43.308924" lon="-8.892140">
        <ele>191.457</ele>
        <time>2019-06-21T12:35:49Z</time>
      </trkpt>
      <trkpt lat="43.308897" lon="-8.891926">
        <ele>193.022</ele>
        <time>2019-06-21T12:35:50Z</time>
      </trkpt>
      <trkpt lat="43.308873" lon="-8.891710">
        <ele>194.008</ele>
        <time>2019-06-21T12:35:51Z</time>
      </trkpt>
      <trkpt lat="43.308849" lon="-8.891493">
        <ele>195.062</ele>
        <time>2019-06-21T12:35:52Z</time>
      </trkpt>
      <trkpt lat="43.308828" lon="-8.891274">
        <ele>195.776</ele>
        <time>2019-06-21T12:35:53Z</time>
      </trkpt>
      <trkpt lat="43.308811" lon="-8.891068">
        <ele>195.788</ele>
        <time>2019-06-21T12:35:54Z</time>
      </trkpt>
      <trkpt lat="43.308795" lon="-8.890872">
        <ele>195.270</ele>
        <time>2019-06-21T12:35:55Z</time>
      </trkpt>
      <trkpt lat="43.308770" lon="-8.890753">
        <ele>194.717</ele>
        <time>2019-06-21T12:35:56Z</time>
      </trkpt>
      <trkpt lat="43.308737" lon="-8.890626">
        <ele>194.163</ele>
        <time>2019-06-21T12:35:57Z</time>
      </trkpt>
      <trkpt lat="43.308684" lon="-8.890504">
        <ele>193.747</ele>
        <time>2019-06-21T12:35:58Z</time>
      </trkpt>
      <trkpt lat="43.308620" lon="-8.890388">
        <ele>193.129</ele>
        <time>2019-06-21T12:35:59Z</time>
      </trkpt>
      <trkpt lat="43.308585" lon="-8.890265">
        <ele>192.169</ele>
        <time>2019-06-21T12:36:00Z</time>
      </trkpt>
      <trkpt lat="43.308485" lon="-8.890156">
        <ele>191.604</ele>
        <time>2019-06-21T12:36:01Z</time>
      </trkpt>
      <trkpt lat="43.308293" lon="-8.889981">
        <ele>190.724</ele>
        <time>2019-06-21T12:36:02Z</time>
      </trkpt>
      <trkpt lat="43.308154" lon="-8.889838">
        <ele>189.008</ele>
        <time>2019-06-21T12:36:03Z</time>
      </trkpt>
      <trkpt lat="43.308024" lon="-8.889702">
        <ele>187.959</ele>
        <time>2019-06-21T12:36:04Z</time>
      </trkpt>
      <trkpt lat="43.307896" lon="-8.889560">
        <ele>187.223</ele>
        <time>2019-06-21T12:36:05Z</time>
      </trkpt>
      <trkpt lat="43.307792" lon="-8.889417">
        <ele>186.775</ele>
        <time>2019-06-21T12:36:06Z</time>
      </trkpt>
      <trkpt lat="43.307706" lon="-8.889258">
        <ele>186.617</ele>
        <time>2019-06-21T12:36:07Z</time>
      </trkpt>
      <trkpt lat="43.307624" lon="-8.889111">
        <ele>186.874</ele>
        <time>2019-06-21T12:36:08Z</time>
      </trkpt>
      <trkpt lat="43.307591" lon="-8.888970">
        <ele>186.350</ele>
        <time>2019-06-21T12:36:09Z</time>
      </trkpt>
      <trkpt lat="43.307563" lon="-8.888801">
        <ele>185.884</ele>
        <time>2019-06-21T12:36:10Z</time>
      </trkpt>
      <trkpt lat="43.307552" lon="-8.888633">
        <ele>185.346</ele>
        <time>2019-06-21T12:36:11Z</time>
      </trkpt>
      <trkpt lat="43.307550" lon="-8.888468">
        <ele>185.232</ele>
        <time>2019-06-21T12:36:12Z</time>
      </trkpt>
      <trkpt lat="43.307538" lon="-8.888301">
        <ele>185.392</ele>
        <time>2019-06-21T12:36:13Z</time>
      </trkpt>
      <trkpt lat="43.307520" lon="-8.888138">
        <ele>185.711</ele>
        <time>2019-06-21T12:36:14Z</time>
      </trkpt>
      <trkpt lat="43.307460" lon="-8.887977">
        <ele>187.008</ele>
        <time>2019-06-21T12:36:15Z</time>
      </trkpt>
      <trkpt lat="43.307402" lon="-8.887818">
        <ele>188.586</ele>
        <time>2019-06-21T12:36:16Z</time>
      </trkpt>
      <trkpt lat="43.307343" lon="-8.887662">
        <ele>189.310</ele>
        <time>2019-06-21T12:36:17Z</time>
      </trkpt>
      <trkpt lat="43.307234" lon="-8.887540">
        <ele>190.022</ele>
        <time>2019-06-21T12:36:18Z</time>
      </trkpt>
      <trkpt lat="43.307129" lon="-8.887435">
        <ele>190.114</ele>
        <time>2019-06-21T12:36:19Z</time>
      </trkpt>
      <trkpt lat="43.307005" lon="-8.887345">
        <ele>190.241</ele>
        <time>2019-06-21T12:36:20Z</time>
      </trkpt>
      <trkpt lat="43.306876" lon="-8.887256">
        <ele>190.497</ele>
        <time>2019-06-21T12:36:21Z</time>
      </trkpt>
      <trkpt lat="43.306747" lon="-8.887177">
        <ele>190.551</ele>
        <time>2019-06-21T12:36:22Z</time>
      </trkpt>
      <trkpt lat="43.306620" lon="-8.887104">
        <ele>190.823</ele>
        <time>2019-06-21T12:36:23Z</time>
      </trkpt>
      <trkpt lat="43.306498" lon="-8.887042">
        <ele>191.278</ele>
        <time>2019-06-21T12:36:24Z</time>
      </trkpt>
      <trkpt lat="43.306382" lon="-8.886983">
        <ele>191.333</ele>
        <time>2019-06-21T12:36:25Z</time>
      </trkpt>
      <trkpt lat="43.306266" lon="-8.886942">
        <ele>190.526</ele>
        <time>2019-06-21T12:36:26Z</time>
      </trkpt>
      <trkpt lat="43.306154" lon="-8.886897">
        <ele>189.808</ele>
        <time>2019-06-21T12:36:27Z</time>
      </trkpt>
      <trkpt lat="43.306049" lon="-8.886813">
        <ele>188.840</ele>
        <time>2019-06-21T12:36:28Z</time>
      </trkpt>
      <trkpt lat="43.305957" lon="-8.886736">
        <ele>187.944</ele>
        <time>2019-06-21T12:36:29Z</time>
      </trkpt>
      <trkpt lat="43.305874" lon="-8.886639">
        <ele>187.056</ele>
        <time>2019-06-21T12:36:30Z</time>
      </trkpt>
      <trkpt lat="43.305805" lon="-8.886524">
        <ele>185.988</ele>
        <time>2019-06-21T12:36:31Z</time>
      </trkpt>
      <trkpt lat="43.305741" lon="-8.886403">
        <ele>184.825</ele>
        <time>2019-06-21T12:36:32Z</time>
      </trkpt>
      <trkpt lat="43.305702" lon="-8.886224">
        <ele>183.351</ele>
        <time>2019-06-21T12:36:33Z</time>
      </trkpt>
      <trkpt lat="43.305670" lon="-8.886056">
        <ele>182.015</ele>
        <time>2019-06-21T12:36:34Z</time>
      </trkpt>
      <trkpt lat="43.305674" lon="-8.885873">
        <ele>180.697</ele>
        <time>2019-06-21T12:36:35Z</time>
      </trkpt>
      <trkpt lat="43.305676" lon="-8.885697">
        <ele>179.347</ele>
        <time>2019-06-21T12:36:36Z</time>
      </trkpt>
      <trkpt lat="43.305743" lon="-8.885514">
        <ele>178.829</ele>
        <time>2019-06-21T12:36:37Z</time>
      </trkpt>
      <trkpt lat="43.305789" lon="-8.885339">
        <ele>178.121</ele>
        <time>2019-06-21T12:36:38Z</time>
      </trkpt>
      <trkpt lat="43.305840" lon="-8.885170">
        <ele>177.308</ele>
        <time>2019-06-21T12:36:39Z</time>
      </trkpt>
      <trkpt lat="43.305864" lon="-8.885005">
        <ele>176.377</ele>
        <time>2019-06-21T12:36:40Z</time>
      </trkpt>
      <trkpt lat="43.305887" lon="-8.884828">
        <ele>175.861</ele>
        <time>2019-06-21T12:36:41Z</time>
      </trkpt>
      <trkpt lat="43.305892" lon="-8.884641">
        <ele>175.123</ele>
        <time>2019-06-21T12:36:42Z</time>
      </trkpt>
      <trkpt lat="43.305889" lon="-8.884453">
        <ele>174.425</ele>
        <time>2019-06-21T12:36:43Z</time>
      </trkpt>
      <trkpt lat="43.305850" lon="-8.884257">
        <ele>173.442</ele>
        <time>2019-06-21T12:36:44Z</time>
      </trkpt>
      <trkpt lat="43.305802" lon="-8.884047">
        <ele>171.788</ele>
        <time>2019-06-21T12:36:45Z</time>
      </trkpt>
      <trkpt lat="43.305747" lon="-8.883823">
        <ele>169.132</ele>
        <time>2019-06-21T12:36:46Z</time>
      </trkpt>
      <trkpt lat="43.305698" lon="-8.883589">
        <ele>166.374</ele>
        <time>2019-06-21T12:36:47Z</time>
      </trkpt>
      <trkpt lat="43.305655" lon="-8.883346">
        <ele>163.838</ele>
        <time>2019-06-21T12:36:48Z</time>
      </trkpt>
      <trkpt lat="43.305616" lon="-8.883109">
        <ele>162.170</ele>
        <time>2019-06-21T12:36:49Z</time>
      </trkpt>
      <trkpt lat="43.305577" lon="-8.882874">
        <ele>160.617</ele>
        <time>2019-06-21T12:36:50Z</time>
      </trkpt>
      <trkpt lat="43.305547" lon="-8.882652">
        <ele>160.608</ele>
        <time>2019-06-21T12:36:51Z</time>
      </trkpt>
      <trkpt lat="43.305510" lon="-8.882438">
        <ele>161.816</ele>
        <time>2019-06-21T12:36:52Z</time>
      </trkpt>
      <trkpt lat="43.305480" lon="-8.882249">
        <ele>162.480</ele>
        <time>2019-06-21T12:36:53Z</time>
      </trkpt>
      <trkpt lat="43.305451" lon="-8.882076">
        <ele>163.052</ele>
        <time>2019-06-21T12:36:54Z</time>
      </trkpt>
      <trkpt lat="43.305397" lon="-8.881937">
        <ele>163.674</ele>
        <time>2019-06-21T12:36:55Z</time>
      </trkpt>
      <trkpt lat="43.305347" lon="-8.881805">
        <ele>162.931</ele>
        <time>2019-06-21T12:36:56Z</time>
      </trkpt>
      <trkpt lat="43.305257" lon="-8.881695">
        <ele>162.597</ele>
        <time>2019-06-21T12:36:57Z</time>
      </trkpt>
      <trkpt lat="43.305180" lon="-8.881581">
        <ele>162.141</ele>
        <time>2019-06-21T12:36:58Z</time>
      </trkpt>
      <trkpt lat="43.305093" lon="-8.881467">
        <ele>161.843</ele>
        <time>2019-06-21T12:36:59Z</time>
      </trkpt>
      <trkpt lat="43.305005" lon="-8.881349">
        <ele>161.877</ele>
        <time>2019-06-21T12:37:00Z</time>
      </trkpt>
      <trkpt lat="43.304932" lon="-8.881216">
        <ele>162.061</ele>
        <time>2019-06-21T12:37:01Z</time>
      </trkpt>
      <trkpt lat="43.304875" lon="-8.881060">
        <ele>162.227</ele>
        <time>2019-06-21T12:37:02Z</time>
      </trkpt>
      <trkpt lat="43.304843" lon="-8.880876">
        <ele>161.808</ele>
        <time>2019-06-21T12:37:03Z</time>
      </trkpt>
      <trkpt lat="43.304818" lon="-8.880679">
        <ele>160.760</ele>
        <time>2019-06-21T12:37:04Z</time>
      </trkpt>
      <trkpt lat="43.304801" lon="-8.880493">
        <ele>159.674</ele>
        <time>2019-06-21T12:37:05Z</time>
      </trkpt>
      <trkpt lat="43.304786" lon="-8.880277">
        <ele>159.026</ele>
        <time>2019-06-21T12:37:06Z</time>
      </trkpt>
      <trkpt lat="43.304775" lon="-8.880058">
        <ele>158.898</ele>
        <time>2019-06-21T12:37:07Z</time>
      </trkpt>
      <trkpt lat="43.304758" lon="-8.879846">
        <ele>158.475</ele>
        <time>2019-06-21T12:37:08Z</time>
      </trkpt>
      <trkpt lat="43.304741" lon="-8.879648">
        <ele>158.061</ele>
        <time>2019-06-21T12:37:09Z</time>
      </trkpt>
      <trkpt lat="43.304719" lon="-8.879465">
        <ele>158.055</ele>
        <time>2019-06-21T12:37:10Z</time>
      </trkpt>
      <trkpt lat="43.304685" lon="-8.879281">
        <ele>157.337</ele>
        <time>2019-06-21T12:37:11Z</time>
      </trkpt>
      <trkpt lat="43.304636" lon="-8.879106">
        <ele>156.394</ele>
        <time>2019-06-21T12:37:12Z</time>
      </trkpt>
      <trkpt lat="43.304580" lon="-8.878938">
        <ele>154.857</ele>
        <time>2019-06-21T12:37:13Z</time>
      </trkpt>
      <trkpt lat="43.304516" lon="-8.878777">
        <ele>153.522</ele>
        <time>2019-06-21T12:37:14Z</time>
      </trkpt>
      <trkpt lat="43.304443" lon="-8.878622">
        <ele>152.108</ele>
        <time>2019-06-21T12:37:15Z</time>
      </trkpt>
      <trkpt lat="43.304352" lon="-8.878503">
        <ele>150.442</ele>
        <time>2019-06-21T12:37:16Z</time>
      </trkpt>
      <trkpt lat="43.304263" lon="-8.878403">
        <ele>148.636</ele>
        <time>2019-06-21T12:37:17Z</time>
      </trkpt>
      <trkpt lat="43.304177" lon="-8.878294">
        <ele>146.758</ele>
        <time>2019-06-21T12:37:18Z</time>
      </trkpt>
      <trkpt lat="43.304108" lon="-8.878239">
        <ele>146.110</ele>
        <time>2019-06-21T12:37:19Z</time>
      </trkpt>
      <trkpt lat="43.304041" lon="-8.878145">
        <ele>145.167</ele>
        <time>2019-06-21T12:37:20Z</time>
      </trkpt>
      <trkpt lat="43.304023" lon="-8.878042">
        <ele>143.933</ele>
        <time>2019-06-21T12:37:21Z</time>
      </trkpt>
      <trkpt lat="43.303984" lon="-8.877944">
        <ele>142.917</ele>
        <time>2019-06-21T12:37:22Z</time>
      </trkpt>
      <trkpt lat="43.304009" lon="-8.877877">
        <ele>142.359</ele>
        <time>2019-06-21T12:37:23Z</time>
      </trkpt>
      <trkpt lat="43.304052" lon="-8.877740">
        <ele>141.039</ele>
        <time>2019-06-21T12:37:24Z</time>
      </trkpt>
      <trkpt lat="43.304112" lon="-8.877622">
        <ele>139.401</ele>
        <time>2019-06-21T12:37:25Z</time>
      </trkpt>
      <trkpt lat="43.304173" lon="-8.877481">
        <ele>137.721</ele>
        <time>2019-06-21T12:37:26Z</time>
      </trkpt>
      <trkpt lat="43.304235" lon="-8.877339">
        <ele>135.508</ele>
        <time>2019-06-21T12:37:27Z</time>
      </trkpt>
      <trkpt lat="43.304287" lon="-8.877197">
        <ele>133.566</ele>
        <time>2019-06-21T12:37:28Z</time>
      </trkpt>
      <trkpt lat="43.304344" lon="-8.877033">
        <ele>131.680</ele>
        <time>2019-06-21T12:37:29Z</time>
      </trkpt>
      <trkpt lat="43.304413" lon="-8.876885">
        <ele>129.942</ele>
        <time>2019-06-21T12:37:30Z</time>
      </trkpt>
      <trkpt lat="43.304467" lon="-8.876746">
        <ele>128.514</ele>
        <time>2019-06-21T12:37:31Z</time>
      </trkpt>
      <trkpt lat="43.304522" lon="-8.876609">
        <ele>127.351</ele>
        <time>2019-06-21T12:37:32Z</time>
      </trkpt>
      <trkpt lat="43.304564" lon="-8.876486">
        <ele>126.457</ele>
        <time>2019-06-21T12:37:33Z</time>
      </trkpt>
      <trkpt lat="43.304592" lon="-8.876362">
        <ele>125.381</ele>
        <time>2019-06-21T12:37:34Z</time>
      </trkpt>
      <trkpt lat="43.304590" lon="-8.876252">
        <ele>123.943</ele>
        <time>2019-06-21T12:37:35Z</time>
      </trkpt>
      <trkpt lat="43.304574" lon="-8.876152">
        <ele>122.338</ele>
        <time>2019-06-21T12:37:36Z</time>
      </trkpt>
      <trkpt lat="43.304552" lon="-8.876059">
        <ele>120.570</ele>
        <time>2019-06-21T12:37:37Z</time>
      </trkpt>
      <trkpt lat="43.304508" lon="-8.876023">
        <ele>119.017</ele>
        <time>2019-06-21T12:37:38Z</time>
      </trkpt>
      <trkpt lat="43.304454" lon="-8.876001">
        <ele>117.608</ele>
        <time>2019-06-21T12:37:39Z</time>
      </trkpt>
      <trkpt lat="43.304405" lon="-8.875958">
        <ele>116.516</ele>
        <time>2019-06-21T12:37:40Z</time>
      </trkpt>
      <trkpt lat="43.304343" lon="-8.875946">
        <ele>115.920</ele>
        <time>2019-06-21T12:37:41Z</time>
      </trkpt>
      <trkpt lat="43.304283" lon="-8.875931">
        <ele>115.222</ele>
        <time>2019-06-21T12:37:42Z</time>
      </trkpt>
      <trkpt lat="43.304220" lon="-8.875943">
        <ele>115.044</ele>
        <time>2019-06-21T12:37:43Z</time>
      </trkpt>
      <trkpt lat="43.304161" lon="-8.875946">
        <ele>114.691</ele>
        <time>2019-06-21T12:37:44Z</time>
      </trkpt>
      <trkpt lat="43.304114" lon="-8.875971">
        <ele>114.657</ele>
        <time>2019-06-21T12:37:46Z</time>
      </trkpt>
      <trkpt lat="43.304143" lon="-8.875904">
        <ele>113.811</ele>
        <time>2019-06-21T12:37:57Z</time>
      </trkpt>
      <trkpt lat="43.304194" lon="-8.875881">
        <ele>113.993</ele>
        <time>2019-06-21T12:37:59Z</time>
      </trkpt>
      <trkpt lat="43.304313" lon="-8.875945">
        <ele>115.752</ele>
        <time>2019-06-21T12:38:00Z</time>
      </trkpt>
      <trkpt lat="43.304377" lon="-8.875978">
        <ele>116.653</ele>
        <time>2019-06-21T12:38:01Z</time>
      </trkpt>
      <trkpt lat="43.304435" lon="-8.875996">
        <ele>117.308</ele>
        <time>2019-06-21T12:38:02Z</time>
      </trkpt>
      <trkpt lat="43.304492" lon="-8.875918">
        <ele>117.108</ele>
        <time>2019-06-21T12:38:04Z</time>
      </trkpt>
      <trkpt lat="43.304507" lon="-8.875814">
        <ele>116.078</ele>
        <time>2019-06-21T12:38:05Z</time>
      </trkpt>
      <trkpt lat="43.304534" lon="-8.875692">
        <ele>115.312</ele>
        <time>2019-06-21T12:38:06Z</time>
      </trkpt>
      <trkpt lat="43.304554" lon="-8.875552">
        <ele>114.174</ele>
        <time>2019-06-21T12:38:07Z</time>
      </trkpt>
      <trkpt lat="43.304583" lon="-8.875418">
        <ele>113.066</ele>
        <time>2019-06-21T12:38:08Z</time>
      </trkpt>
      <trkpt lat="43.304616" lon="-8.875281">
        <ele>111.943</ele>
        <time>2019-06-21T12:38:09Z</time>
      </trkpt>
      <trkpt lat="43.304648" lon="-8.875146">
        <ele>110.679</ele>
        <time>2019-06-21T12:38:10Z</time>
      </trkpt>
      <trkpt lat="43.304676" lon="-8.875017">
        <ele>109.133</ele>
        <time>2019-06-21T12:38:11Z</time>
      </trkpt>
      <trkpt lat="43.304711" lon="-8.874878">
        <ele>107.675</ele>
        <time>2019-06-21T12:38:12Z</time>
      </trkpt>
      <trkpt lat="43.304742" lon="-8.874735">
        <ele>106.368</ele>
        <time>2019-06-21T12:38:13Z</time>
      </trkpt>
      <trkpt lat="43.304777" lon="-8.874592">
        <ele>105.042</ele>
        <time>2019-06-21T12:38:14Z</time>
      </trkpt>
      <trkpt lat="43.304814" lon="-8.874453">
        <ele>103.826</ele>
        <time>2019-06-21T12:38:15Z</time>
      </trkpt>
      <trkpt lat="43.304849" lon="-8.874301">
        <ele>102.408</ele>
        <time>2019-06-21T12:38:16Z</time>
      </trkpt>
      <trkpt lat="43.304885" lon="-8.874146">
        <ele>101.019</ele>
        <time>2019-06-21T12:38:17Z</time>
      </trkpt>
      <trkpt lat="43.304933" lon="-8.874001">
        <ele>100.243</ele>
        <time>2019-06-21T12:38:18Z</time>
      </trkpt>
      <trkpt lat="43.304985" lon="-8.873869">
        <ele>99.775</ele>
        <time>2019-06-21T12:38:19Z</time>
      </trkpt>
      <trkpt lat="43.305029" lon="-8.873751">
        <ele>99.527</ele>
        <time>2019-06-21T12:38:20Z</time>
      </trkpt>
      <trkpt lat="43.305071" lon="-8.873630">
        <ele>99.474</ele>
        <time>2019-06-21T12:38:21Z</time>
      </trkpt>
      <trkpt lat="43.305072" lon="-8.873503">
        <ele>98.220</ele>
        <time>2019-06-21T12:38:22Z</time>
      </trkpt>
      <trkpt lat="43.305064" lon="-8.873353">
        <ele>96.684</ele>
        <time>2019-06-21T12:38:23Z</time>
      </trkpt>
      <trkpt lat="43.305044" lon="-8.873211">
        <ele>94.626</ele>
        <time>2019-06-21T12:38:24Z</time>
      </trkpt>
      <trkpt lat="43.305038" lon="-8.873066">
        <ele>92.963</ele>
        <time>2019-06-21T12:38:25Z</time>
      </trkpt>
      <trkpt lat="43.305061" lon="-8.872926">
        <ele>92.644</ele>
        <time>2019-06-21T12:38:26Z</time>
      </trkpt>
      <trkpt lat="43.305076" lon="-8.872780">
        <ele>92.118</ele>
        <time>2019-06-21T12:38:27Z</time>
      </trkpt>
      <trkpt lat="43.305110" lon="-8.872646">
        <ele>92.108</ele>
        <time>2019-06-21T12:38:28Z</time>
      </trkpt>
      <trkpt lat="43.305150" lon="-8.872525">
        <ele>92.259</ele>
        <time>2019-06-21T12:38:29Z</time>
      </trkpt>
      <trkpt lat="43.305197" lon="-8.872393">
        <ele>91.793</ele>
        <time>2019-06-21T12:38:30Z</time>
      </trkpt>
      <trkpt lat="43.305247" lon="-8.872278">
        <ele>91.215</ele>
        <time>2019-06-21T12:38:31Z</time>
      </trkpt>
      <trkpt lat="43.305313" lon="-8.872165">
        <ele>90.777</ele>
        <time>2019-06-21T12:38:32Z</time>
      </trkpt>
      <trkpt lat="43.305377" lon="-8.872046">
        <ele>89.944</ele>
        <time>2019-06-21T12:38:33Z</time>
      </trkpt>
      <trkpt lat="43.305434" lon="-8.871934">
        <ele>89.190</ele>
        <time>2019-06-21T12:38:34Z</time>
      </trkpt>
      <trkpt lat="43.305502" lon="-8.871813">
        <ele>88.044</ele>
        <time>2019-06-21T12:38:35Z</time>
      </trkpt>
      <trkpt lat="43.305564" lon="-8.871698">
        <ele>86.736</ele>
        <time>2019-06-21T12:38:36Z</time>
      </trkpt>
      <trkpt lat="43.305629" lon="-8.871615">
        <ele>85.835</ele>
        <time>2019-06-21T12:38:37Z</time>
      </trkpt>
      <trkpt lat="43.305700" lon="-8.871517">
        <ele>84.686</ele>
        <time>2019-06-21T12:38:38Z</time>
      </trkpt>
      <trkpt lat="43.305793" lon="-8.871456">
        <ele>84.814</ele>
        <time>2019-06-21T12:38:39Z</time>
      </trkpt>
      <trkpt lat="43.305876" lon="-8.871372">
        <ele>84.308</ele>
        <time>2019-06-21T12:38:40Z</time>
      </trkpt>
      <trkpt lat="43.305952" lon="-8.871281">
        <ele>83.356</ele>
        <time>2019-06-21T12:38:41Z</time>
      </trkpt>
      <trkpt lat="43.306042" lon="-8.871191">
        <ele>82.280</ele>
        <time>2019-06-21T12:38:42Z</time>
      </trkpt>
      <trkpt lat="43.306100" lon="-8.871089">
        <ele>80.212</ele>
        <time>2019-06-21T12:38:43Z</time>
      </trkpt>
      <trkpt lat="43.306177" lon="-8.870988">
        <ele>78.434</ele>
        <time>2019-06-21T12:38:44Z</time>
      </trkpt>
      <trkpt lat="43.306245" lon="-8.870910">
        <ele>77.111</ele>
        <time>2019-06-21T12:38:45Z</time>
      </trkpt>
      <trkpt lat="43.306338" lon="-8.870847">
        <ele>76.727</ele>
        <time>2019-06-21T12:38:46Z</time>
      </trkpt>
      <trkpt lat="43.306430" lon="-8.870809">
        <ele>76.031</ele>
        <time>2019-06-21T12:38:47Z</time>
      </trkpt>
      <trkpt lat="43.306516" lon="-8.870766">
        <ele>74.263</ele>
        <time>2019-06-21T12:38:48Z</time>
      </trkpt>
      <trkpt lat="43.306592" lon="-8.870744">
        <ele>73.227</ele>
        <time>2019-06-21T12:38:49Z</time>
      </trkpt>
      <trkpt lat="43.306652" lon="-8.870709">
        <ele>71.768</ele>
        <time>2019-06-21T12:38:50Z</time>
      </trkpt>
      <trkpt lat="43.306710" lon="-8.870676">
        <ele>70.214</ele>
        <time>2019-06-21T12:38:51Z</time>
      </trkpt>
      <trkpt lat="43.306768" lon="-8.870638">
        <ele>68.608</ele>
        <time>2019-06-21T12:38:52Z</time>
      </trkpt>
      <trkpt lat="43.306814" lon="-8.870609">
        <ele>67.385</ele>
        <time>2019-06-21T12:38:53Z</time>
      </trkpt>
      <trkpt lat="43.306799" lon="-8.870549">
        <ele>64.899</ele>
        <time>2019-06-21T12:38:55Z</time>
      </trkpt>
      <trkpt lat="43.306762" lon="-8.870493">
        <ele>62.821</ele>
        <time>2019-06-21T12:38:57Z</time>
      </trkpt>
      <trkpt lat="43.306714" lon="-8.870474">
        <ele>62.333</ele>
        <time>2019-06-21T12:38:58Z</time>
      </trkpt>
      <trkpt lat="43.306639" lon="-8.870463">
        <ele>62.110</ele>
        <time>2019-06-21T12:38:59Z</time>
      </trkpt>
      <trkpt lat="43.306552" lon="-8.870460">
        <ele>62.586</ele>
        <time>2019-06-21T12:39:00Z</time>
      </trkpt>
      <trkpt lat="43.306418" lon="-8.870506">
        <ele>64.480</ele>
        <time>2019-06-21T12:39:01Z</time>
      </trkpt>
      <trkpt lat="43.306329" lon="-8.870504">
        <ele>64.582</ele>
        <time>2019-06-21T12:39:02Z</time>
      </trkpt>
      <trkpt lat="43.306240" lon="-8.870504">
        <ele>64.516</ele>
        <time>2019-06-21T12:39:03Z</time>
      </trkpt>
      <trkpt lat="43.306154" lon="-8.870513">
        <ele>64.876</ele>
        <time>2019-06-21T12:39:04Z</time>
      </trkpt>
      <trkpt lat="43.306069" lon="-8.870535">
        <ele>65.313</ele>
        <time>2019-06-21T12:39:05Z</time>
      </trkpt>
      <trkpt lat="43.305979" lon="-8.870558">
        <ele>65.608</ele>
        <time>2019-06-21T12:39:06Z</time>
      </trkpt>
      <trkpt lat="43.305886" lon="-8.870608">
        <ele>66.424</ele>
        <time>2019-06-21T12:39:07Z</time>
      </trkpt>
      <trkpt lat="43.305811" lon="-8.870668">
        <ele>67.318</ele>
        <time>2019-06-21T12:39:08Z</time>
      </trkpt>
      <trkpt lat="43.305722" lon="-8.870718">
        <ele>67.660</ele>
        <time>2019-06-21T12:39:09Z</time>
      </trkpt>
      <trkpt lat="43.305634" lon="-8.870772">
        <ele>67.862</ele>
        <time>2019-06-21T12:39:10Z</time>
      </trkpt>
      <trkpt lat="43.305548" lon="-8.870825">
        <ele>67.919</ele>
        <time>2019-06-21T12:39:11Z</time>
      </trkpt>
      <trkpt lat="43.305496" lon="-8.870877">
        <ele>68.735</ele>
        <time>2019-06-21T12:39:12Z</time>
      </trkpt>
      <trkpt lat="43.305433" lon="-8.870915">
        <ele>69.369</ele>
        <time>2019-06-21T12:39:13Z</time>
      </trkpt>
      <trkpt lat="43.305370" lon="-8.870936">
        <ele>69.541</ele>
        <time>2019-06-21T12:39:14Z</time>
      </trkpt>
      <trkpt lat="43.305310" lon="-8.870867">
        <ele>67.823</ele>
        <time>2019-06-21T12:39:15Z</time>
      </trkpt>
      <trkpt lat="43.305282" lon="-8.870801">
        <ele>66.583</ele>
        <time>2019-06-21T12:39:16Z</time>
      </trkpt>
      <trkpt lat="43.305262" lon="-8.870705">
        <ele>65.311</ele>
        <time>2019-06-21T12:39:17Z</time>
      </trkpt>
      <trkpt lat="43.305260" lon="-8.870595">
        <ele>63.808</ele>
        <time>2019-06-21T12:39:18Z</time>
      </trkpt>
      <trkpt lat="43.305275" lon="-8.870490">
        <ele>62.885</ele>
        <time>2019-06-21T12:39:19Z</time>
      </trkpt>
      <trkpt lat="43.305298" lon="-8.870385">
        <ele>62.489</ele>
        <time>2019-06-21T12:39:20Z</time>
      </trkpt>
      <trkpt lat="43.305320" lon="-8.870279">
        <ele>61.961</ele>
        <time>2019-06-21T12:39:21Z</time>
      </trkpt>
      <trkpt lat="43.305343" lon="-8.870177">
        <ele>61.273</ele>
        <time>2019-06-21T12:39:22Z</time>
      </trkpt>
      <trkpt lat="43.305362" lon="-8.870089">
        <ele>60.610</ele>
        <time>2019-06-21T12:39:23Z</time>
      </trkpt>
      <trkpt lat="43.305368" lon="-8.869997">
        <ele>60.026</ele>
        <time>2019-06-21T12:39:24Z</time>
      </trkpt>
      <trkpt lat="43.305355" lon="-8.869902">
        <ele>59.720</ele>
        <time>2019-06-21T12:39:25Z</time>
      </trkpt>
      <trkpt lat="43.305340" lon="-8.869792">
        <ele>59.452</ele>
        <time>2019-06-21T12:39:26Z</time>
      </trkpt>
      <trkpt lat="43.305318" lon="-8.869686">
        <ele>59.371</ele>
        <time>2019-06-21T12:39:27Z</time>
      </trkpt>
      <trkpt lat="43.305296" lon="-8.869601">
        <ele>59.241</ele>
        <time>2019-06-21T12:39:28Z</time>
      </trkpt>
      <trkpt lat="43.305276" lon="-8.869508">
        <ele>59.215</ele>
        <time>2019-06-21T12:39:29Z</time>
      </trkpt>
      <trkpt lat="43.305270" lon="-8.869419">
        <ele>59.008</ele>
        <time>2019-06-21T12:39:30Z</time>
      </trkpt>
      <trkpt lat="43.305278" lon="-8.869313">
        <ele>58.510</ele>
        <time>2019-06-21T12:39:31Z</time>
      </trkpt>
      <trkpt lat="43.305291" lon="-8.869212">
        <ele>57.964</ele>
        <time>2019-06-21T12:39:32Z</time>
      </trkpt>
      <trkpt lat="43.305305" lon="-8.869107">
        <ele>57.286</ele>
        <time>2019-06-21T12:39:33Z</time>
      </trkpt>
      <trkpt lat="43.305320" lon="-8.869013">
        <ele>56.688</ele>
        <time>2019-06-21T12:39:34Z</time>
      </trkpt>
      <trkpt lat="43.305337" lon="-8.868929">
        <ele>56.065</ele>
        <time>2019-06-21T12:39:35Z</time>
      </trkpt>
      <trkpt lat="43.305354" lon="-8.868859">
        <ele>55.571</ele>
        <time>2019-06-21T12:39:36Z</time>
      </trkpt>
      <trkpt lat="43.305362" lon="-8.868792">
        <ele>55.295</ele>
        <time>2019-06-21T12:39:37Z</time>
      </trkpt>
      <trkpt lat="43.305364" lon="-8.868723">
        <ele>55.097</ele>
        <time>2019-06-21T12:39:38Z</time>
      </trkpt>
      <trkpt lat="43.305367" lon="-8.868648">
        <ele>54.857</ele>
        <time>2019-06-21T12:39:39Z</time>
      </trkpt>
      <trkpt lat="43.305354" lon="-8.868572">
        <ele>54.700</ele>
        <time>2019-06-21T12:39:40Z</time>
      </trkpt>
      <trkpt lat="43.305331" lon="-8.868496">
        <ele>54.520</ele>
        <time>2019-06-21T12:39:41Z</time>
      </trkpt>
      <trkpt lat="43.305305" lon="-8.868423">
        <ele>54.308</ele>
        <time>2019-06-21T12:39:42Z</time>
      </trkpt>
      <trkpt lat="43.305239" lon="-8.868352">
        <ele>54.448</ele>
        <time>2019-06-21T12:39:44Z</time>
      </trkpt>
      <trkpt lat="43.305207" lon="-8.868307">
        <ele>54.282</ele>
        <time>2019-06-21T12:39:58Z</time>
      </trkpt>
      <trkpt lat="43.305123" lon="-8.868265">
        <ele>54.224</ele>
        <time>2019-06-21T12:40:19Z</time>
      </trkpt>
      <trkpt lat="43.305029" lon="-8.868252">
        <ele>54.786</ele>
        <time>2019-06-21T12:40:20Z</time>
      </trkpt>
      <trkpt lat="43.304938" lon="-8.868249">
        <ele>54.933</ele>
        <time>2019-06-21T12:40:21Z</time>
      </trkpt>
      <trkpt lat="43.304854" lon="-8.868225">
        <ele>54.649</ele>
        <time>2019-06-21T12:40:22Z</time>
      </trkpt>
      <trkpt lat="43.304772" lon="-8.868200">
        <ele>54.563</ele>
        <time>2019-06-21T12:40:23Z</time>
      </trkpt>
      <trkpt lat="43.304694" lon="-8.868194">
        <ele>54.545</ele>
        <time>2019-06-21T12:40:24Z</time>
      </trkpt>
      <trkpt lat="43.304644" lon="-8.868163">
        <ele>54.286</ele>
        <time>2019-06-21T12:40:25Z</time>
      </trkpt>
      <trkpt lat="43.304589" lon="-8.868152">
        <ele>54.260</ele>
        <time>2019-06-21T12:40:26Z</time>
      </trkpt>
      <trkpt lat="43.304541" lon="-8.868172">
        <ele>54.426</ele>
        <time>2019-06-21T12:40:27Z</time>
      </trkpt>
      <trkpt lat="43.304498" lon="-8.868209">
        <ele>54.608</ele>
        <time>2019-06-21T12:40:28Z</time>
      </trkpt>
      <trkpt lat="43.304444" lon="-8.868273">
        <ele>54.851</ele>
        <time>2019-06-21T12:40:29Z</time>
      </trkpt>
      <trkpt lat="43.304377" lon="-8.868332">
        <ele>55.215</ele>
        <time>2019-06-21T12:40:30Z</time>
      </trkpt>
      <trkpt lat="43.304289" lon="-8.868378">
        <ele>56.097</ele>
        <time>2019-06-21T12:40:31Z</time>
      </trkpt>
      <trkpt lat="43.304190" lon="-8.868402">
        <ele>56.479</ele>
        <time>2019-06-21T12:40:32Z</time>
      </trkpt>
      <trkpt lat="43.304080" lon="-8.868418">
        <ele>57.226</ele>
        <time>2019-06-21T12:40:33Z</time>
      </trkpt>
      <trkpt lat="43.303957" lon="-8.868421">
        <ele>58.192</ele>
        <time>2019-06-21T12:40:34Z</time>
      </trkpt>
      <trkpt lat="43.303833" lon="-8.868415">
        <ele>59.046</ele>
        <time>2019-06-21T12:40:35Z</time>
      </trkpt>
      <trkpt lat="43.303719" lon="-8.868402">
        <ele>59.718</ele>
        <time>2019-06-21T12:40:36Z</time>
      </trkpt>
      <trkpt lat="43.303600" lon="-8.868397">
        <ele>60.555</ele>
        <time>2019-06-21T12:40:37Z</time>
      </trkpt>
      <trkpt lat="43.303482" lon="-8.868391">
        <ele>61.407</ele>
        <time>2019-06-21T12:40:38Z</time>
      </trkpt>
      <trkpt lat="43.303368" lon="-8.868396">
        <ele>62.417</ele>
        <time>2019-06-21T12:40:39Z</time>
      </trkpt>
      <trkpt lat="43.303247" lon="-8.868416">
        <ele>63.508</ele>
        <time>2019-06-21T12:40:40Z</time>
      </trkpt>
      <trkpt lat="43.303128" lon="-8.868450">
        <ele>64.768</ele>
        <time>2019-06-21T12:40:41Z</time>
      </trkpt>
      <trkpt lat="43.303015" lon="-8.868500">
        <ele>66.022</ele>
        <time>2019-06-21T12:40:42Z</time>
      </trkpt>
      <trkpt lat="43.302890" lon="-8.868564">
        <ele>67.254</ele>
        <time>2019-06-21T12:40:43Z</time>
      </trkpt>
      <trkpt lat="43.302784" lon="-8.868606">
        <ele>67.976</ele>
        <time>2019-06-21T12:40:44Z</time>
      </trkpt>
      <trkpt lat="43.302689" lon="-8.868653">
        <ele>68.483</ele>
        <time>2019-06-21T12:40:45Z</time>
      </trkpt>
      <trkpt lat="43.302604" lon="-8.868698">
        <ele>68.569</ele>
        <time>2019-06-21T12:40:46Z</time>
      </trkpt>
      <trkpt lat="43.302524" lon="-8.868750">
        <ele>68.563</ele>
        <time>2019-06-21T12:40:47Z</time>
      </trkpt>
      <trkpt lat="43.302455" lon="-8.868807">
        <ele>68.265</ele>
        <time>2019-06-21T12:40:48Z</time>
      </trkpt>
      <trkpt lat="43.302405" lon="-8.868885">
        <ele>68.068</ele>
        <time>2019-06-21T12:40:49Z</time>
      </trkpt>
      <trkpt lat="43.302356" lon="-8.868996">
        <ele>68.242</ele>
        <time>2019-06-21T12:40:50Z</time>
      </trkpt>
      <trkpt lat="43.302316" lon="-8.869116">
        <ele>68.326</ele>
        <time>2019-06-21T12:40:51Z</time>
      </trkpt>
      <trkpt lat="43.302278" lon="-8.869237">
        <ele>68.508</ele>
        <time>2019-06-21T12:40:52Z</time>
      </trkpt>
      <trkpt lat="43.302213" lon="-8.869343">
        <ele>68.669</ele>
        <time>2019-06-21T12:40:53Z</time>
      </trkpt>
      <trkpt lat="43.302130" lon="-8.869444">
        <ele>68.713</ele>
        <time>2019-06-21T12:40:54Z</time>
      </trkpt>
      <trkpt lat="43.302032" lon="-8.869518">
        <ele>68.775</ele>
        <time>2019-06-21T12:40:55Z</time>
      </trkpt>
      <trkpt lat="43.301932" lon="-8.869578">
        <ele>68.487</ele>
        <time>2019-06-21T12:40:56Z</time>
      </trkpt>
      <trkpt lat="43.301834" lon="-8.869636">
        <ele>68.034</ele>
        <time>2019-06-21T12:40:57Z</time>
      </trkpt>
      <trkpt lat="43.301744" lon="-8.869713">
        <ele>67.590</ele>
        <time>2019-06-21T12:40:58Z</time>
      </trkpt>
      <trkpt lat="43.301658" lon="-8.869805">
        <ele>67.564</ele>
        <time>2019-06-21T12:40:59Z</time>
      </trkpt>
      <trkpt lat="43.301572" lon="-8.869879">
        <ele>67.476</ele>
        <time>2019-06-21T12:41:00Z</time>
      </trkpt>
      <trkpt lat="43.301490" lon="-8.869942">
        <ele>67.381</ele>
        <time>2019-06-21T12:41:01Z</time>
      </trkpt>
      <trkpt lat="43.301409" lon="-8.869994">
        <ele>67.161</ele>
        <time>2019-06-21T12:41:02Z</time>
      </trkpt>
      <trkpt lat="43.301326" lon="-8.869982">
        <ele>66.417</ele>
        <time>2019-06-21T12:41:03Z</time>
      </trkpt>
      <trkpt lat="43.301254" lon="-8.869971">
        <ele>65.908</ele>
        <time>2019-06-21T12:41:04Z</time>
      </trkpt>
      <trkpt lat="43.301191" lon="-8.869963">
        <ele>65.471</ele>
        <time>2019-06-21T12:41:05Z</time>
      </trkpt>
      <trkpt lat="43.301131" lon="-8.869927">
        <ele>64.935</ele>
        <time>2019-06-21T12:41:06Z</time>
      </trkpt>
      <trkpt lat="43.301055" lon="-8.869883">
        <ele>64.517</ele>
        <time>2019-06-21T12:41:07Z</time>
      </trkpt>
      <trkpt lat="43.300970" lon="-8.869814">
        <ele>64.089</ele>
        <time>2019-06-21T12:41:08Z</time>
      </trkpt>
      <trkpt lat="43.300873" lon="-8.869747">
        <ele>63.366</ele>
        <time>2019-06-21T12:41:09Z</time>
      </trkpt>
      <trkpt lat="43.300765" lon="-8.869669">
        <ele>62.762</ele>
        <time>2019-06-21T12:41:10Z</time>
      </trkpt>
      <trkpt lat="43.300667" lon="-8.869601">
        <ele>62.126</ele>
        <time>2019-06-21T12:41:11Z</time>
      </trkpt>
      <trkpt lat="43.300569" lon="-8.869531">
        <ele>61.448</ele>
        <time>2019-06-21T12:41:12Z</time>
      </trkpt>
      <trkpt lat="43.300478" lon="-8.869460">
        <ele>60.599</ele>
        <time>2019-06-21T12:41:13Z</time>
      </trkpt>
      <trkpt lat="43.300425" lon="-8.869358">
        <ele>60.107</ele>
        <time>2019-06-21T12:41:14Z</time>
      </trkpt>
      <trkpt lat="43.300377" lon="-8.869259">
        <ele>59.727</ele>
        <time>2019-06-21T12:41:15Z</time>
      </trkpt>
      <trkpt lat="43.300328" lon="-8.869158">
        <ele>59.308</ele>
        <time>2019-06-21T12:41:16Z</time>
      </trkpt>
      <trkpt lat="43.300282" lon="-8.869099">
        <ele>58.832</ele>
        <time>2019-06-21T12:41:17Z</time>
      </trkpt>
      <trkpt lat="43.300231" lon="-8.869057">
        <ele>58.436</ele>
        <time>2019-06-21T12:41:18Z</time>
      </trkpt>
      <trkpt lat="43.300165" lon="-8.869046">
        <ele>58.248</ele>
        <time>2019-06-21T12:41:19Z</time>
      </trkpt>
      <trkpt lat="43.300088" lon="-8.869047">
        <ele>57.940</ele>
        <time>2019-06-21T12:41:20Z</time>
      </trkpt>
      <trkpt lat="43.300010" lon="-8.869092">
        <ele>57.877</ele>
        <time>2019-06-21T12:41:21Z</time>
      </trkpt>
      <trkpt lat="43.299956" lon="-8.869122">
        <ele>57.773</ele>
        <time>2019-06-21T12:41:22Z</time>
      </trkpt>
      <trkpt lat="43.299916" lon="-8.869155">
        <ele>57.737</ele>
        <time>2019-06-21T12:41:23Z</time>
      </trkpt>
      <trkpt lat="43.299865" lon="-8.869136">
        <ele>57.449</ele>
        <time>2019-06-21T12:41:24Z</time>
      </trkpt>
      <trkpt lat="43.299822" lon="-8.869117">
        <ele>57.252</ele>
        <time>2019-06-21T12:41:25Z</time>
      </trkpt>
      <trkpt lat="43.299794" lon="-8.869037">
        <ele>56.853</ele>
        <time>2019-06-21T12:41:26Z</time>
      </trkpt>
      <trkpt lat="43.299750" lon="-8.868944">
        <ele>56.308</ele>
        <time>2019-06-21T12:41:27Z</time>
      </trkpt>
      <trkpt lat="43.299706" lon="-8.868857">
        <ele>56.008</ele>
        <time>2019-06-21T12:41:28Z</time>
      </trkpt>
      <trkpt lat="43.299662" lon="-8.868773">
        <ele>56.058</ele>
        <time>2019-06-21T12:41:29Z</time>
      </trkpt>
      <trkpt lat="43.299619" lon="-8.868675">
        <ele>56.062</ele>
        <time>2019-06-21T12:41:30Z</time>
      </trkpt>
      <trkpt lat="43.299575" lon="-8.868588">
        <ele>55.914</ele>
        <time>2019-06-21T12:41:31Z</time>
      </trkpt>
      <trkpt lat="43.299530" lon="-8.868520">
        <ele>55.456</ele>
        <time>2019-06-21T12:41:32Z</time>
      </trkpt>
      <trkpt lat="43.299490" lon="-8.868457">
        <ele>55.033</ele>
        <time>2019-06-21T12:41:33Z</time>
      </trkpt>
      <trkpt lat="43.299467" lon="-8.868382">
        <ele>54.479</ele>
        <time>2019-06-21T12:41:34Z</time>
      </trkpt>
      <trkpt lat="43.299456" lon="-8.868310">
        <ele>54.043</ele>
        <time>2019-06-21T12:41:35Z</time>
      </trkpt>
      <trkpt lat="43.299452" lon="-8.868230">
        <ele>53.685</ele>
        <time>2019-06-21T12:41:36Z</time>
      </trkpt>
      <trkpt lat="43.299448" lon="-8.868136">
        <ele>53.381</ele>
        <time>2019-06-21T12:41:37Z</time>
      </trkpt>
      <trkpt lat="43.299443" lon="-8.868048">
        <ele>52.961</ele>
        <time>2019-06-21T12:41:38Z</time>
      </trkpt>
      <trkpt lat="43.299415" lon="-8.867982">
        <ele>52.217</ele>
        <time>2019-06-21T12:41:39Z</time>
      </trkpt>
      <trkpt lat="43.299378" lon="-8.867901">
        <ele>51.308</ele>
        <time>2019-06-21T12:41:40Z</time>
      </trkpt>
      <trkpt lat="43.299342" lon="-8.867831">
        <ele>50.691</ele>
        <time>2019-06-21T12:41:41Z</time>
      </trkpt>
      <trkpt lat="43.299317" lon="-8.867756">
        <ele>49.775</ele>
        <time>2019-06-21T12:41:42Z</time>
      </trkpt>
      <trkpt lat="43.299257" lon="-8.867683">
        <ele>48.797</ele>
        <time>2019-06-21T12:41:44Z</time>
      </trkpt>
      <trkpt lat="43.299203" lon="-8.867632">
        <ele>48.059</ele>
        <time>2019-06-21T12:41:46Z</time>
      </trkpt>
      <trkpt lat="43.299172" lon="-8.867539">
        <ele>46.636</ele>
        <time>2019-06-21T12:41:48Z</time>
      </trkpt>
      <trkpt lat="43.299107" lon="-8.867553">
        <ele>46.332</ele>
        <time>2019-06-21T12:41:49Z</time>
      </trkpt>
      <trkpt lat="43.299061" lon="-8.867544">
        <ele>45.846</ele>
        <time>2019-06-21T12:41:50Z</time>
      </trkpt>
      <trkpt lat="43.298976" lon="-8.867583">
        <ele>45.658</ele>
        <time>2019-06-21T12:41:51Z</time>
      </trkpt>
      <trkpt lat="43.298905" lon="-8.867603">
        <ele>45.217</ele>
        <time>2019-06-21T12:41:52Z</time>
      </trkpt>
      <trkpt lat="43.298845" lon="-8.867609">
        <ele>44.787</ele>
        <time>2019-06-21T12:41:53Z</time>
      </trkpt>
      <trkpt lat="43.298783" lon="-8.867623">
        <ele>44.215</ele>
        <time>2019-06-21T12:41:54Z</time>
      </trkpt>
      <trkpt lat="43.298710" lon="-8.867603">
        <ele>43.308</ele>
        <time>2019-06-21T12:41:56Z</time>
      </trkpt>
      <trkpt lat="43.298711" lon="-8.867535">
        <ele>42.964</ele>
        <time>2019-06-21T12:41:58Z</time>
      </trkpt>
      <trkpt lat="43.298721" lon="-8.867470">
        <ele>42.638</ele>
        <time>2019-06-21T12:41:59Z</time>
      </trkpt>
      <trkpt lat="43.298729" lon="-8.867400">
        <ele>42.130</ele>
        <time>2019-06-21T12:42:00Z</time>
      </trkpt>
      <trkpt lat="43.298723" lon="-8.867324">
        <ele>41.542</ele>
        <time>2019-06-21T12:42:01Z</time>
      </trkpt>
      <trkpt lat="43.298708" lon="-8.867246">
        <ele>40.959</ele>
        <time>2019-06-21T12:42:02Z</time>
      </trkpt>
      <trkpt lat="43.298650" lon="-8.867165">
        <ele>39.815</ele>
        <time>2019-06-21T12:42:03Z</time>
      </trkpt>
      <trkpt lat="43.298584" lon="-8.867097">
        <ele>38.939</ele>
        <time>2019-06-21T12:42:04Z</time>
      </trkpt>
      <trkpt lat="43.298497" lon="-8.867030">
        <ele>38.121</ele>
        <time>2019-06-21T12:42:05Z</time>
      </trkpt>
      <trkpt lat="43.298408" lon="-8.866945">
        <ele>37.373</ele>
        <time>2019-06-21T12:42:06Z</time>
      </trkpt>
      <trkpt lat="43.298315" lon="-8.866857">
        <ele>36.385</ele>
        <time>2019-06-21T12:42:07Z</time>
      </trkpt>
      <trkpt lat="43.298225" lon="-8.866750">
        <ele>35.113</ele>
        <time>2019-06-21T12:42:08Z</time>
      </trkpt>
      <trkpt lat="43.298138" lon="-8.866639">
        <ele>34.208</ele>
        <time>2019-06-21T12:42:09Z</time>
      </trkpt>
      <trkpt lat="43.298063" lon="-8.866515">
        <ele>33.520</ele>
        <time>2019-06-21T12:42:10Z</time>
      </trkpt>
      <trkpt lat="43.297983" lon="-8.866387">
        <ele>33.314</ele>
        <time>2019-06-21T12:42:11Z</time>
      </trkpt>
      <trkpt lat="43.297920" lon="-8.866277">
        <ele>33.186</ele>
        <time>2019-06-21T12:42:12Z</time>
      </trkpt>
      <trkpt lat="43.297858" lon="-8.866180">
        <ele>33.028</ele>
        <time>2019-06-21T12:42:13Z</time>
      </trkpt>
      <trkpt lat="43.297804" lon="-8.866103">
        <ele>32.925</ele>
        <time>2019-06-21T12:42:14Z</time>
      </trkpt>
      <trkpt lat="43.297759" lon="-8.866047">
        <ele>32.871</ele>
        <time>2019-06-21T12:42:15Z</time>
      </trkpt>
      <trkpt lat="43.297718" lon="-8.866001">
        <ele>32.675</ele>
        <time>2019-06-21T12:42:16Z</time>
      </trkpt>
      <trkpt lat="43.297661" lon="-8.865987">
        <ele>32.657</ele>
        <time>2019-06-21T12:42:17Z</time>
      </trkpt>
      <trkpt lat="43.297592" lon="-8.865970">
        <ele>32.535</ele>
        <time>2019-06-21T12:42:18Z</time>
      </trkpt>
      <trkpt lat="43.297493" lon="-8.865950">
        <ele>32.486</ele>
        <time>2019-06-21T12:42:19Z</time>
      </trkpt>
      <trkpt lat="43.297383" lon="-8.865946">
        <ele>32.214</ele>
        <time>2019-06-21T12:42:20Z</time>
      </trkpt>
      <trkpt lat="43.297256" lon="-8.865930">
        <ele>32.008</ele>
        <time>2019-06-21T12:42:21Z</time>
      </trkpt>
      <trkpt lat="43.297121" lon="-8.865903">
        <ele>32.476</ele>
        <time>2019-06-21T12:42:22Z</time>
      </trkpt>
      <trkpt lat="43.296975" lon="-8.865872">
        <ele>32.960</ele>
        <time>2019-06-21T12:42:23Z</time>
      </trkpt>
      <trkpt lat="43.296822" lon="-8.865848">
        <ele>34.362</ele>
        <time>2019-06-21T12:42:24Z</time>
      </trkpt>
      <trkpt lat="43.296657" lon="-8.865827">
        <ele>36.084</ele>
        <time>2019-06-21T12:42:25Z</time>
      </trkpt>
      <trkpt lat="43.296492" lon="-8.865798">
        <ele>36.051</ele>
        <time>2019-06-21T12:42:26Z</time>
      </trkpt>
      <trkpt lat="43.296328" lon="-8.865764">
        <ele>35.737</ele>
        <time>2019-06-21T12:42:27Z</time>
      </trkpt>
      <trkpt lat="43.296171" lon="-8.865729">
        <ele>34.941</ele>
        <time>2019-06-21T12:42:28Z</time>
      </trkpt>
      <trkpt lat="43.296013" lon="-8.865702">
        <ele>34.073</ele>
        <time>2019-06-21T12:42:29Z</time>
      </trkpt>
      <trkpt lat="43.295865" lon="-8.865667">
        <ele>33.224</ele>
        <time>2019-06-21T12:42:30Z</time>
      </trkpt>
      <trkpt lat="43.295713" lon="-8.865604">
        <ele>33.104</ele>
        <time>2019-06-21T12:42:31Z</time>
      </trkpt>
      <trkpt lat="43.295557" lon="-8.865531">
        <ele>32.914</ele>
        <time>2019-06-21T12:42:32Z</time>
      </trkpt>
      <trkpt lat="43.295398" lon="-8.865454">
        <ele>33.008</ele>
        <time>2019-06-21T12:42:33Z</time>
      </trkpt>
      <trkpt lat="43.295233" lon="-8.865368">
        <ele>32.565</ele>
        <time>2019-06-21T12:42:34Z</time>
      </trkpt>
      <trkpt lat="43.295078" lon="-8.865279">
        <ele>31.329</ele>
        <time>2019-06-21T12:42:35Z</time>
      </trkpt>
      <trkpt lat="43.294929" lon="-8.865209">
        <ele>30.271</ele>
        <time>2019-06-21T12:42:36Z</time>
      </trkpt>
      <trkpt lat="43.294780" lon="-8.865132">
        <ele>29.213</ele>
        <time>2019-06-21T12:42:37Z</time>
      </trkpt>
      <trkpt lat="43.294637" lon="-8.865057">
        <ele>28.710</ele>
        <time>2019-06-21T12:42:38Z</time>
      </trkpt>
      <trkpt lat="43.294487" lon="-8.864989">
        <ele>28.816</ele>
        <time>2019-06-21T12:42:39Z</time>
      </trkpt>
      <trkpt lat="43.294341" lon="-8.864916">
        <ele>28.770</ele>
        <time>2019-06-21T12:42:40Z</time>
      </trkpt>
      <trkpt lat="43.294173" lon="-8.864867">
        <ele>28.552</ele>
        <time>2019-06-21T12:42:41Z</time>
      </trkpt>
      <trkpt lat="43.293997" lon="-8.864825">
        <ele>28.121</ele>
        <time>2019-06-21T12:42:42Z</time>
      </trkpt>
      <trkpt lat="43.293803" lon="-8.864789">
        <ele>27.741</ele>
        <time>2019-06-21T12:42:43Z</time>
      </trkpt>
      <trkpt lat="43.293604" lon="-8.864747">
        <ele>27.005</ele>
        <time>2019-06-21T12:42:44Z</time>
      </trkpt>
      <trkpt lat="43.293402" lon="-8.864712">
        <ele>26.208</ele>
        <time>2019-06-21T12:42:45Z</time>
      </trkpt>
      <trkpt lat="43.293183" lon="-8.864677">
        <ele>25.835</ele>
        <time>2019-06-21T12:42:46Z</time>
      </trkpt>
      <trkpt lat="43.292948" lon="-8.864651">
        <ele>25.749</ele>
        <time>2019-06-21T12:42:47Z</time>
      </trkpt>
      <trkpt lat="43.292707" lon="-8.864640">
        <ele>25.351</ele>
        <time>2019-06-21T12:42:48Z</time>
      </trkpt>
      <trkpt lat="43.292468" lon="-8.864629">
        <ele>23.973</ele>
        <time>2019-06-21T12:42:49Z</time>
      </trkpt>
      <trkpt lat="43.292239" lon="-8.864617">
        <ele>23.170</ele>
        <time>2019-06-21T12:42:50Z</time>
      </trkpt>
      <trkpt lat="43.292007" lon="-8.864602">
        <ele>23.436</ele>
        <time>2019-06-21T12:42:51Z</time>
      </trkpt>
      <trkpt lat="43.291794" lon="-8.864593">
        <ele>23.840</ele>
        <time>2019-06-21T12:42:52Z</time>
      </trkpt>
      <trkpt lat="43.291588" lon="-8.864583">
        <ele>24.352</ele>
        <time>2019-06-21T12:42:53Z</time>
      </trkpt>
      <trkpt lat="43.291381" lon="-8.864571">
        <ele>25.095</ele>
        <time>2019-06-21T12:42:54Z</time>
      </trkpt>
      <trkpt lat="43.291166" lon="-8.864570">
        <ele>26.249</ele>
        <time>2019-06-21T12:42:55Z</time>
      </trkpt>
      <trkpt lat="43.290942" lon="-8.864587">
        <ele>26.523</ele>
        <time>2019-06-21T12:42:56Z</time>
      </trkpt>
      <trkpt lat="43.290716" lon="-8.864601">
        <ele>27.008</ele>
        <time>2019-06-21T12:42:57Z</time>
      </trkpt>
      <trkpt lat="43.290477" lon="-8.864636">
        <ele>27.732</ele>
        <time>2019-06-21T12:42:58Z</time>
      </trkpt>
      <trkpt lat="43.290228" lon="-8.864678">
        <ele>27.736</ele>
        <time>2019-06-21T12:42:59Z</time>
      </trkpt>
      <trkpt lat="43.289988" lon="-8.864703">
        <ele>27.048</ele>
        <time>2019-06-21T12:43:00Z</time>
      </trkpt>
      <trkpt lat="43.289745" lon="-8.864726">
        <ele>27.070</ele>
        <time>2019-06-21T12:43:01Z</time>
      </trkpt>
      <trkpt lat="43.289501" lon="-8.864749">
        <ele>27.087</ele>
        <time>2019-06-21T12:43:02Z</time>
      </trkpt>
      <trkpt lat="43.289269" lon="-8.864769">
        <ele>27.043</ele>
        <time>2019-06-21T12:43:03Z</time>
      </trkpt>
      <trkpt lat="43.289041" lon="-8.864793">
        <ele>27.617</ele>
        <time>2019-06-21T12:43:04Z</time>
      </trkpt>
      <trkpt lat="43.288829" lon="-8.864806">
        <ele>28.759</ele>
        <time>2019-06-21T12:43:05Z</time>
      </trkpt>
      <trkpt lat="43.288630" lon="-8.864818">
        <ele>30.213</ele>
        <time>2019-06-21T12:43:06Z</time>
      </trkpt>
      <trkpt lat="43.288440" lon="-8.864821">
        <ele>30.443</ele>
        <time>2019-06-21T12:43:07Z</time>
      </trkpt>
      <trkpt lat="43.288264" lon="-8.864813">
        <ele>30.507</ele>
        <time>2019-06-21T12:43:08Z</time>
      </trkpt>
      <trkpt lat="43.288083" lon="-8.864785">
        <ele>30.908</ele>
        <time>2019-06-21T12:43:09Z</time>
      </trkpt>
      <trkpt lat="43.287890" lon="-8.864761">
        <ele>31.044</ele>
        <time>2019-06-21T12:43:10Z</time>
      </trkpt>
      <trkpt lat="43.287700" lon="-8.864720">
        <ele>30.728</ele>
        <time>2019-06-21T12:43:11Z</time>
      </trkpt>
      <trkpt lat="43.287501" lon="-8.864695">
        <ele>29.990</ele>
        <time>2019-06-21T12:43:12Z</time>
      </trkpt>
      <trkpt lat="43.287307" lon="-8.864643">
        <ele>29.092</ele>
        <time>2019-06-21T12:43:13Z</time>
      </trkpt>
      <trkpt lat="43.287110" lon="-8.864576">
        <ele>28.369</ele>
        <time>2019-06-21T12:43:14Z</time>
      </trkpt>
      <trkpt lat="43.286909" lon="-8.864505">
        <ele>27.825</ele>
        <time>2019-06-21T12:43:15Z</time>
      </trkpt>
      <trkpt lat="43.286713" lon="-8.864428">
        <ele>29.429</ele>
        <time>2019-06-21T12:43:16Z</time>
      </trkpt>
      <trkpt lat="43.286527" lon="-8.864358">
        <ele>31.591</ele>
        <time>2019-06-21T12:43:17Z</time>
      </trkpt>
      <trkpt lat="43.286364" lon="-8.864290">
        <ele>33.871</ele>
        <time>2019-06-21T12:43:18Z</time>
      </trkpt>
      <trkpt lat="43.286210" lon="-8.864223">
        <ele>35.641</ele>
        <time>2019-06-21T12:43:19Z</time>
      </trkpt>
      <trkpt lat="43.286063" lon="-8.864161">
        <ele>37.315</ele>
        <time>2019-06-21T12:43:20Z</time>
      </trkpt>
      <trkpt lat="43.285924" lon="-8.864100">
        <ele>37.908</ele>
        <time>2019-06-21T12:43:21Z</time>
      </trkpt>
      <trkpt lat="43.285796" lon="-8.864050">
        <ele>38.330</ele>
        <time>2019-06-21T12:43:22Z</time>
      </trkpt>
      <trkpt lat="43.285675" lon="-8.864020">
        <ele>38.524</ele>
        <time>2019-06-21T12:43:23Z</time>
      </trkpt>
      <trkpt lat="43.285565" lon="-8.864018">
        <ele>39.036</ele>
        <time>2019-06-21T12:43:24Z</time>
      </trkpt>
      <trkpt lat="43.285470" lon="-8.864036">
        <ele>39.278</ele>
        <time>2019-06-21T12:43:25Z</time>
      </trkpt>
      <trkpt lat="43.285381" lon="-8.864096">
        <ele>39.515</ele>
        <time>2019-06-21T12:43:26Z</time>
      </trkpt>
      <trkpt lat="43.285283" lon="-8.864180">
        <ele>40.041</ele>
        <time>2019-06-21T12:43:27Z</time>
      </trkpt>
      <trkpt lat="43.285185" lon="-8.864299">
        <ele>40.225</ele>
        <time>2019-06-21T12:43:28Z</time>
      </trkpt>
      <trkpt lat="43.285083" lon="-8.864443">
        <ele>40.757</ele>
        <time>2019-06-21T12:43:29Z</time>
      </trkpt>
      <trkpt lat="43.284974" lon="-8.864580">
        <ele>41.118</ele>
        <time>2019-06-21T12:43:30Z</time>
      </trkpt>
      <trkpt lat="43.284860" lon="-8.864735">
        <ele>41.598</ele>
        <time>2019-06-21T12:43:31Z</time>
      </trkpt>
      <trkpt lat="43.284745" lon="-8.864909">
        <ele>41.917</ele>
        <time>2019-06-21T12:43:32Z</time>
      </trkpt>
      <trkpt lat="43.284623" lon="-8.865076">
        <ele>42.908</ele>
        <time>2019-06-21T12:43:33Z</time>
      </trkpt>
      <trkpt lat="43.284497" lon="-8.865255">
        <ele>43.864</ele>
        <time>2019-06-21T12:43:34Z</time>
      </trkpt>
      <trkpt lat="43.284367" lon="-8.865426">
        <ele>44.938</ele>
        <time>2019-06-21T12:43:35Z</time>
      </trkpt>
      <trkpt lat="43.284237" lon="-8.865603">
        <ele>45.720</ele>
        <time>2019-06-21T12:43:36Z</time>
      </trkpt>
      <trkpt lat="43.284112" lon="-8.865787">
        <ele>46.452</ele>
        <time>2019-06-21T12:43:37Z</time>
      </trkpt>
      <trkpt lat="43.283977" lon="-8.865955">
        <ele>47.559</ele>
        <time>2019-06-21T12:43:38Z</time>
      </trkpt>
      <trkpt lat="43.283847" lon="-8.866119">
        <ele>48.245</ele>
        <time>2019-06-21T12:43:39Z</time>
      </trkpt>
      <trkpt lat="43.283718" lon="-8.866279">
        <ele>48.689</ele>
        <time>2019-06-21T12:43:40Z</time>
      </trkpt>
      <trkpt lat="43.283576" lon="-8.866424">
        <ele>49.081</ele>
        <time>2019-06-21T12:43:41Z</time>
      </trkpt>
      <trkpt lat="43.283434" lon="-8.866555">
        <ele>49.099</ele>
        <time>2019-06-21T12:43:42Z</time>
      </trkpt>
      <trkpt lat="43.283299" lon="-8.866684">
        <ele>49.007</ele>
        <time>2019-06-21T12:43:43Z</time>
      </trkpt>
      <trkpt lat="43.283156" lon="-8.866806">
        <ele>49.027</ele>
        <time>2019-06-21T12:43:44Z</time>
      </trkpt>
      <trkpt lat="43.283021" lon="-8.866921">
        <ele>49.108</ele>
        <time>2019-06-21T12:43:45Z</time>
      </trkpt>
      <trkpt lat="43.282889" lon="-8.867039">
        <ele>49.612</ele>
        <time>2019-06-21T12:43:46Z</time>
      </trkpt>
      <trkpt lat="43.282749" lon="-8.867171">
        <ele>50.146</ele>
        <time>2019-06-21T12:43:47Z</time>
      </trkpt>
      <trkpt lat="43.282621" lon="-8.867305">
        <ele>50.668</ele>
        <time>2019-06-21T12:43:48Z</time>
      </trkpt>
      <trkpt lat="43.282499" lon="-8.867449">
        <ele>51.020</ele>
        <time>2019-06-21T12:43:49Z</time>
      </trkpt>
      <trkpt lat="43.282370" lon="-8.867612">
        <ele>51.077</ele>
        <time>2019-06-21T12:43:50Z</time>
      </trkpt>
      <trkpt lat="43.282242" lon="-8.867795">
        <ele>51.193</ele>
        <time>2019-06-21T12:43:51Z</time>
      </trkpt>
      <trkpt lat="43.282111" lon="-8.867981">
        <ele>51.487</ele>
        <time>2019-06-21T12:43:52Z</time>
      </trkpt>
      <trkpt lat="43.281991" lon="-8.868172">
        <ele>51.489</ele>
        <time>2019-06-21T12:43:53Z</time>
      </trkpt>
      <trkpt lat="43.281868" lon="-8.868352">
        <ele>52.336</ele>
        <time>2019-06-21T12:43:54Z</time>
      </trkpt>
      <trkpt lat="43.281749" lon="-8.868527">
        <ele>52.717</ele>
        <time>2019-06-21T12:43:55Z</time>
      </trkpt>
      <trkpt lat="43.281631" lon="-8.868694">
        <ele>53.118</ele>
        <time>2019-06-21T12:43:56Z</time>
      </trkpt>
      <trkpt lat="43.281529" lon="-8.868846">
        <ele>53.108</ele>
        <time>2019-06-21T12:43:57Z</time>
      </trkpt>
      <trkpt lat="43.281431" lon="-8.868983">
        <ele>52.986</ele>
        <time>2019-06-21T12:43:58Z</time>
      </trkpt>
      <trkpt lat="43.281343" lon="-8.869116">
        <ele>53.070</ele>
        <time>2019-06-21T12:43:59Z</time>
      </trkpt>
      <trkpt lat="43.281269" lon="-8.869225">
        <ele>52.932</ele>
        <time>2019-06-21T12:44:00Z</time>
      </trkpt>
      <trkpt lat="43.281206" lon="-8.869314">
        <ele>52.814</ele>
        <time>2019-06-21T12:44:01Z</time>
      </trkpt>
      <trkpt lat="43.281150" lon="-8.869383">
        <ele>52.911</ele>
        <time>2019-06-21T12:44:02Z</time>
      </trkpt>
      <trkpt lat="43.281100" lon="-8.869423">
        <ele>53.177</ele>
        <time>2019-06-21T12:44:03Z</time>
      </trkpt>
      <trkpt lat="43.281055" lon="-8.869435">
        <ele>53.431</ele>
        <time>2019-06-21T12:44:04Z</time>
      </trkpt>
      <trkpt lat="43.281005" lon="-8.869422">
        <ele>53.863</ele>
        <time>2019-06-21T12:44:05Z</time>
      </trkpt>
      <trkpt lat="43.280970" lon="-8.869383">
        <ele>54.083</ele>
        <time>2019-06-21T12:44:06Z</time>
      </trkpt>
      <trkpt lat="43.280933" lon="-8.869321">
        <ele>54.325</ele>
        <time>2019-06-21T12:44:07Z</time>
      </trkpt>
      <trkpt lat="43.280888" lon="-8.869224">
        <ele>54.617</ele>
        <time>2019-06-21T12:44:08Z</time>
      </trkpt>
      <trkpt lat="43.280837" lon="-8.869129">
        <ele>54.808</ele>
        <time>2019-06-21T12:44:09Z</time>
      </trkpt>
      <trkpt lat="43.280781" lon="-8.869023">
        <ele>54.821</ele>
        <time>2019-06-21T12:44:10Z</time>
      </trkpt>
      <trkpt lat="43.280722" lon="-8.868909">
        <ele>54.865</ele>
        <time>2019-06-21T12:44:11Z</time>
      </trkpt>
      <trkpt lat="43.280655" lon="-8.868798">
        <ele>55.567</ele>
        <time>2019-06-21T12:44:12Z</time>
      </trkpt>
      <trkpt lat="43.280590" lon="-8.868685">
        <ele>56.419</ele>
        <time>2019-06-21T12:44:13Z</time>
      </trkpt>
      <trkpt lat="43.280524" lon="-8.868566">
        <ele>57.476</ele>
        <time>2019-06-21T12:44:14Z</time>
      </trkpt>
      <trkpt lat="43.280465" lon="-8.868463">
        <ele>58.272</ele>
        <time>2019-06-21T12:44:15Z</time>
      </trkpt>
      <trkpt lat="43.280415" lon="-8.868356">
        <ele>59.046</ele>
        <time>2019-06-21T12:44:16Z</time>
      </trkpt>
      <trkpt lat="43.280362" lon="-8.868253">
        <ele>59.638</ele>
        <time>2019-06-21T12:44:17Z</time>
      </trkpt>
      <trkpt lat="43.280313" lon="-8.868165">
        <ele>60.015</ele>
        <time>2019-06-21T12:44:18Z</time>
      </trkpt>
      <trkpt lat="43.280263" lon="-8.868080">
        <ele>60.265</ele>
        <time>2019-06-21T12:44:19Z</time>
      </trkpt>
      <trkpt lat="43.280220" lon="-8.868008">
        <ele>60.011</ele>
        <time>2019-06-21T12:44:20Z</time>
      </trkpt>
      <trkpt lat="43.280173" lon="-8.867944">
        <ele>59.808</ele>
        <time>2019-06-21T12:44:21Z</time>
      </trkpt>
      <trkpt lat="43.280114" lon="-8.867920">
        <ele>59.924</ele>
        <time>2019-06-21T12:44:22Z</time>
      </trkpt>
      <trkpt lat="43.280073" lon="-8.867883">
        <ele>59.818</ele>
        <time>2019-06-21T12:44:23Z</time>
      </trkpt>
      <trkpt lat="43.280019" lon="-8.867873">
        <ele>59.980</ele>
        <time>2019-06-21T12:44:24Z</time>
      </trkpt>
      <trkpt lat="43.279943" lon="-8.867859">
        <ele>59.892</ele>
        <time>2019-06-21T12:44:26Z</time>
      </trkpt>
      <trkpt lat="43.279881" lon="-8.867868">
        <ele>59.819</ele>
        <time>2019-06-21T12:44:28Z</time>
      </trkpt>
      <trkpt lat="43.279831" lon="-8.867851">
        <ele>59.645</ele>
        <time>2019-06-21T12:44:30Z</time>
      </trkpt>
      <trkpt lat="43.279822" lon="-8.867787">
        <ele>59.139</ele>
        <time>2019-06-21T12:44:33Z</time>
      </trkpt>
      <trkpt lat="43.279865" lon="-8.867757">
        <ele>58.951</ele>
        <time>2019-06-21T12:44:40Z</time>
      </trkpt>
      <trkpt lat="43.279920" lon="-8.867762">
        <ele>58.982</ele>
        <time>2019-06-21T12:44:47Z</time>
      </trkpt>
      <trkpt lat="43.279965" lon="-8.867796">
        <ele>59.243</ele>
        <time>2019-06-21T12:46:34Z</time>
      </trkpt>
      <trkpt lat="43.279918" lon="-8.867804">
        <ele>59.317</ele>
        <time>2019-06-21T12:46:54Z</time>
      </trkpt>
      <trkpt lat="43.279869" lon="-8.867792">
        <ele>59.108</ele>
        <time>2019-06-21T12:47:00Z</time>
      </trkpt>
      <trkpt lat="43.279854" lon="-8.867721">
        <ele>58.641</ele>
        <time>2019-06-21T12:47:06Z</time>
      </trkpt>
      <trkpt lat="43.279880" lon="-8.867664">
        <ele>58.265</ele>
        <time>2019-06-21T12:47:11Z</time>
      </trkpt>
      <trkpt lat="43.279926" lon="-8.867641">
        <ele>58.057</ele>
        <time>2019-06-21T12:47:13Z</time>
      </trkpt>
      <trkpt lat="43.279942" lon="-8.867562">
        <ele>57.429</ele>
        <time>2019-06-21T12:47:18Z</time>
      </trkpt>
      <trkpt lat="43.279894" lon="-8.867545">
        <ele>57.366</ele>
        <time>2019-06-21T12:47:24Z</time>
      </trkpt>
      <trkpt lat="43.279839" lon="-8.867556">
        <ele>57.432</ele>
        <time>2019-06-21T12:47:29Z</time>
      </trkpt>
      <trkpt lat="43.279787" lon="-8.867591">
        <ele>57.766</ele>
        <time>2019-06-21T12:47:32Z</time>
      </trkpt>
      <trkpt lat="43.279829" lon="-8.867564">
        <ele>57.548</ele>
        <time>2019-06-21T12:47:39Z</time>
      </trkpt>
      <trkpt lat="43.279887" lon="-8.867592">
        <ele>57.796</ele>
        <time>2019-06-21T12:47:44Z</time>
      </trkpt>
      <trkpt lat="43.279934" lon="-8.867581">
        <ele>57.631</ele>
        <time>2019-06-21T12:47:46Z</time>
      </trkpt>
      <trkpt lat="43.280009" lon="-8.867561">
        <ele>57.424</ele>
        <time>2019-06-21T12:47:52Z</time>
      </trkpt>
      <trkpt lat="43.279965" lon="-8.867586">
        <ele>57.608</ele>
        <time>2019-06-21T12:47:59Z</time>
      </trkpt>
      <trkpt lat="43.279916" lon="-8.867598">
        <ele>57.782</ele>
        <time>2019-06-21T12:48:06Z</time>
      </trkpt>
      <trkpt lat="43.279899" lon="-8.867662">
        <ele>58.286</ele>
        <time>2019-06-21T12:48:23Z</time>
      </trkpt>
      <trkpt lat="43.279952" lon="-8.867681">
        <ele>58.358</ele>
        <time>2019-06-21T12:48:26Z</time>
      </trkpt>
      <trkpt lat="43.279916" lon="-8.867751">
        <ele>58.830</ele>
        <time>2019-06-21T12:48:31Z</time>
      </trkpt>
      <trkpt lat="43.279951" lon="-8.867707">
        <ele>58.547</ele>
        <time>2019-06-21T12:48:59Z</time>
      </trkpt>
      <trkpt lat="43.279988" lon="-8.867660">
        <ele>58.233</ele>
        <time>2019-06-21T12:49:02Z</time>
      </trkpt>
      <trkpt lat="43.279940" lon="-8.867659">
        <ele>58.167</ele>
        <time>2019-06-21T12:49:57Z</time>
      </trkpt>
      <trkpt lat="43.279898" lon="-8.867700">
        <ele>58.419</ele>
        <time>2019-06-21T12:50:01Z</time>
      </trkpt>
      <trkpt lat="43.279900" lon="-8.867772">
        <ele>59.054</ele>
        <time>2019-06-21T12:50:05Z</time>
      </trkpt>
      <trkpt lat="43.279914" lon="-8.867833">
        <ele>59.556</ele>
        <time>2019-06-21T12:50:10Z</time>
      </trkpt>
      <trkpt lat="43.279858" lon="-8.867792">
        <ele>59.111</ele>
        <time>2019-06-21T12:50:16Z</time>
      </trkpt>
      <trkpt lat="43.279811" lon="-8.867735">
        <ele>58.708</ele>
        <time>2019-06-21T12:50:18Z</time>
      </trkpt>
      <trkpt lat="43.279772" lon="-8.867703">
        <ele>58.528</ele>
        <time>2019-06-21T12:50:22Z</time>
      </trkpt>
      <trkpt lat="43.279723" lon="-8.867661">
        <ele>58.242</ele>
        <time>2019-06-21T12:50:24Z</time>
      </trkpt>
      <trkpt lat="43.279688" lon="-8.867609">
        <ele>57.744</ele>
        <time>2019-06-21T12:50:27Z</time>
      </trkpt>
      <trkpt lat="43.279705" lon="-8.867544">
        <ele>57.366</ele>
        <time>2019-06-21T12:50:30Z</time>
      </trkpt>
      <trkpt lat="43.279721" lon="-8.867618">
        <ele>57.893</ele>
        <time>2019-06-21T12:51:33Z</time>
      </trkpt>
      <trkpt lat="43.279714" lon="-8.867683">
        <ele>58.349</ele>
        <time>2019-06-21T12:51:38Z</time>
      </trkpt>
      <trkpt lat="43.279957" lon="-8.867555">
        <ele>57.433</ele>
        <time>2019-06-21T12:51:39Z</time>
      </trkpt>
      <trkpt lat="43.279929" lon="-8.867624">
        <ele>57.995</ele>
        <time>2019-06-21T12:51:45Z</time>
      </trkpt>
      <trkpt lat="43.279932" lon="-8.867686">
        <ele>58.325</ele>
        <time>2019-06-21T12:51:48Z</time>
      </trkpt>
      <trkpt lat="43.279949" lon="-8.867755">
        <ele>58.826</ele>
        <time>2019-06-21T12:51:52Z</time>
      </trkpt>
      <trkpt lat="43.279907" lon="-8.867806">
        <ele>59.308</ele>
        <time>2019-06-21T12:51:59Z</time>
      </trkpt>
      <trkpt lat="43.279867" lon="-8.867859">
        <ele>59.708</ele>
        <time>2019-06-21T12:52:09Z</time>
      </trkpt>
      <trkpt lat="43.279807" lon="-8.867837">
        <ele>59.515</ele>
        <time>2019-06-21T12:52:52Z</time>
      </trkpt>
      <trkpt lat="43.279795" lon="-8.867749">
        <ele>58.879</ele>
        <time>2019-06-21T12:53:19Z</time>
      </trkpt>
      <trkpt lat="43.279847" lon="-8.867711">
        <ele>58.591</ele>
        <time>2019-06-21T12:54:02Z</time>
      </trkpt>
      <trkpt lat="43.279898" lon="-8.867664">
        <ele>58.213</ele>
        <time>2019-06-21T12:54:04Z</time>
      </trkpt>
      <trkpt lat="43.279910" lon="-8.867589">
        <ele>57.650</ele>
        <time>2019-06-21T12:54:06Z</time>
      </trkpt>
      <trkpt lat="43.279889" lon="-8.867528">
        <ele>57.236</ele>
        <time>2019-06-21T12:54:07Z</time>
      </trkpt>
      <trkpt lat="43.279862" lon="-8.867468">
        <ele>56.940</ele>
        <time>2019-06-21T12:54:08Z</time>
      </trkpt>
      <trkpt lat="43.279835" lon="-8.867403">
        <ele>56.762</ele>
        <time>2019-06-21T12:54:09Z</time>
      </trkpt>
      <trkpt lat="43.279821" lon="-8.867337">
        <ele>56.462</ele>
        <time>2019-06-21T12:54:11Z</time>
      </trkpt>
      <trkpt lat="43.279886" lon="-8.867342">
        <ele>56.483</ele>
        <time>2019-06-21T12:54:13Z</time>
      </trkpt>
      <trkpt lat="43.279943" lon="-8.867397">
        <ele>56.611</ele>
        <time>2019-06-21T12:54:14Z</time>
      </trkpt>
      <trkpt lat="43.280029" lon="-8.867562">
        <ele>57.308</ele>
        <time>2019-06-21T12:54:15Z</time>
      </trkpt>
      <trkpt lat="43.280086" lon="-8.867679">
        <ele>57.949</ele>
        <time>2019-06-21T12:54:16Z</time>
      </trkpt>
      <trkpt lat="43.280145" lon="-8.867791">
        <ele>58.683</ele>
        <time>2019-06-21T12:54:17Z</time>
      </trkpt>
      <trkpt lat="43.280210" lon="-8.867908">
        <ele>59.325</ele>
        <time>2019-06-21T12:54:18Z</time>
      </trkpt>
      <trkpt lat="43.280276" lon="-8.868036">
        <ele>59.957</ele>
        <time>2019-06-21T12:54:19Z</time>
      </trkpt>
      <trkpt lat="43.280345" lon="-8.868163">
        <ele>59.624</ele>
        <time>2019-06-21T12:54:20Z</time>
      </trkpt>
      <trkpt lat="43.280411" lon="-8.868278">
        <ele>59.030</ele>
        <time>2019-06-21T12:54:21Z</time>
      </trkpt>
      <trkpt lat="43.280476" lon="-8.868399">
        <ele>58.124</ele>
        <time>2019-06-21T12:54:22Z</time>
      </trkpt>
      <trkpt lat="43.280539" lon="-8.868511">
        <ele>57.276</ele>
        <time>2019-06-21T12:54:23Z</time>
      </trkpt>
      <trkpt lat="43.280605" lon="-8.868633">
        <ele>56.462</ele>
        <time>2019-06-21T12:54:24Z</time>
      </trkpt>
      <trkpt lat="43.280682" lon="-8.868750">
        <ele>55.483</ele>
        <time>2019-06-21T12:54:25Z</time>
      </trkpt>
      <trkpt lat="43.280747" lon="-8.868861">
        <ele>54.711</ele>
        <time>2019-06-21T12:54:26Z</time>
      </trkpt>
      <trkpt lat="43.280798" lon="-8.868957">
        <ele>54.508</ele>
        <time>2019-06-21T12:54:27Z</time>
      </trkpt>
      <trkpt lat="43.280850" lon="-8.869054">
        <ele>54.529</ele>
        <time>2019-06-21T12:54:28Z</time>
      </trkpt>
      <trkpt lat="43.280900" lon="-8.869151">
        <ele>54.573</ele>
        <time>2019-06-21T12:54:29Z</time>
      </trkpt>
      <trkpt lat="43.280949" lon="-8.869228">
        <ele>54.285</ele>
        <time>2019-06-21T12:54:30Z</time>
      </trkpt>
      <trkpt lat="43.280992" lon="-8.869291">
        <ele>53.937</ele>
        <time>2019-06-21T12:54:31Z</time>
      </trkpt>
      <trkpt lat="43.281029" lon="-8.869346">
        <ele>53.664</ele>
        <time>2019-06-21T12:54:32Z</time>
      </trkpt>
      <trkpt lat="43.281060" lon="-8.869408">
        <ele>53.450</ele>
        <time>2019-06-21T12:54:34Z</time>
      </trkpt>
      <trkpt lat="43.281046" lon="-8.869513">
        <ele>53.764</ele>
        <time>2019-06-21T12:54:36Z</time>
      </trkpt>
      <trkpt lat="43.281026" lon="-8.869596">
        <ele>54.086</ele>
        <time>2019-06-21T12:54:37Z</time>
      </trkpt>
      <trkpt lat="43.280977" lon="-8.869683">
        <ele>54.466</ele>
        <time>2019-06-21T12:54:38Z</time>
      </trkpt>
      <trkpt lat="43.280911" lon="-8.869779">
        <ele>54.929</ele>
        <time>2019-06-21T12:54:39Z</time>
      </trkpt>
      <trkpt lat="43.280835" lon="-8.869894">
        <ele>55.621</ele>
        <time>2019-06-21T12:54:40Z</time>
      </trkpt>
      <trkpt lat="43.280755" lon="-8.870022">
        <ele>56.008</ele>
        <time>2019-06-21T12:54:41Z</time>
      </trkpt>
      <trkpt lat="43.280673" lon="-8.870173">
        <ele>56.459</ele>
        <time>2019-06-21T12:54:42Z</time>
      </trkpt>
      <trkpt lat="43.280586" lon="-8.870322">
        <ele>56.923</ele>
        <time>2019-06-21T12:54:43Z</time>
      </trkpt>
      <trkpt lat="43.280503" lon="-8.870468">
        <ele>57.195</ele>
        <time>2019-06-21T12:54:44Z</time>
      </trkpt>
      <trkpt lat="43.280423" lon="-8.870600">
        <ele>57.637</ele>
        <time>2019-06-21T12:54:45Z</time>
      </trkpt>
      <trkpt lat="43.280360" lon="-8.870727">
        <ele>58.174</ele>
        <time>2019-06-21T12:54:46Z</time>
      </trkpt>
      <trkpt lat="43.280314" lon="-8.870870">
        <ele>58.890</ele>
        <time>2019-06-21T12:54:47Z</time>
      </trkpt>
      <trkpt lat="43.280281" lon="-8.871029">
        <ele>59.024</ele>
        <time>2019-06-21T12:54:48Z</time>
      </trkpt>
      <trkpt lat="43.280262" lon="-8.871206">
        <ele>59.036</ele>
        <time>2019-06-21T12:54:49Z</time>
      </trkpt>
      <trkpt lat="43.280243" lon="-8.871379">
        <ele>59.049</ele>
        <time>2019-06-21T12:54:50Z</time>
      </trkpt>
      <trkpt lat="43.280239" lon="-8.871540">
        <ele>59.002</ele>
        <time>2019-06-21T12:54:51Z</time>
      </trkpt>
      <trkpt lat="43.280222" lon="-8.871702">
        <ele>59.022</ele>
        <time>2019-06-21T12:54:52Z</time>
      </trkpt>
      <trkpt lat="43.280238" lon="-8.871805">
        <ele>59.008</ele>
        <time>2019-06-21T12:54:53Z</time>
      </trkpt>
      <trkpt lat="43.280272" lon="-8.871903">
        <ele>59.047</ele>
        <time>2019-06-21T12:54:54Z</time>
      </trkpt>
      <trkpt lat="43.280316" lon="-8.872008">
        <ele>58.771</ele>
        <time>2019-06-21T12:54:55Z</time>
      </trkpt>
      <trkpt lat="43.280382" lon="-8.872109">
        <ele>58.343</ele>
        <time>2019-06-21T12:54:56Z</time>
      </trkpt>
      <trkpt lat="43.280466" lon="-8.872237">
        <ele>58.015</ele>
        <time>2019-06-21T12:54:57Z</time>
      </trkpt>
      <trkpt lat="43.280570" lon="-8.872374">
        <ele>58.042</ele>
        <time>2019-06-21T12:54:58Z</time>
      </trkpt>
      <trkpt lat="43.280682" lon="-8.872533">
        <ele>58.088</ele>
        <time>2019-06-21T12:54:59Z</time>
      </trkpt>
      <trkpt lat="43.280793" lon="-8.872703">
        <ele>58.022</ele>
        <time>2019-06-21T12:55:00Z</time>
      </trkpt>
      <trkpt lat="43.280909" lon="-8.872876">
        <ele>57.794</ele>
        <time>2019-06-21T12:55:01Z</time>
      </trkpt>
      <trkpt lat="43.281034" lon="-8.873045">
        <ele>57.311</ele>
        <time>2019-06-21T12:55:02Z</time>
      </trkpt>
      <trkpt lat="43.281158" lon="-8.873228">
        <ele>56.721</ele>
        <time>2019-06-21T12:55:03Z</time>
      </trkpt>
      <trkpt lat="43.281285" lon="-8.873414">
        <ele>56.003</ele>
        <time>2019-06-21T12:55:04Z</time>
      </trkpt>
      <trkpt lat="43.281411" lon="-8.873602">
        <ele>55.908</ele>
        <time>2019-06-21T12:55:05Z</time>
      </trkpt>
      <trkpt lat="43.281549" lon="-8.873805">
        <ele>57.294</ele>
        <time>2019-06-21T12:55:06Z</time>
      </trkpt>
      <trkpt lat="43.281675" lon="-8.874017">
        <ele>59.858</ele>
        <time>2019-06-21T12:55:07Z</time>
      </trkpt>
      <trkpt lat="43.281804" lon="-8.874226">
        <ele>62.330</ele>
        <time>2019-06-21T12:55:08Z</time>
      </trkpt>
      <trkpt lat="43.281926" lon="-8.874449">
        <ele>65.072</ele>
        <time>2019-06-21T12:55:09Z</time>
      </trkpt>
      <trkpt lat="43.282058" lon="-8.874678">
        <ele>65.969</ele>
        <time>2019-06-21T12:55:10Z</time>
      </trkpt>
      <trkpt lat="43.282186" lon="-8.874910">
        <ele>65.965</ele>
        <time>2019-06-21T12:55:11Z</time>
      </trkpt>
      <trkpt lat="43.282319" lon="-8.875125">
        <ele>65.779</ele>
        <time>2019-06-21T12:55:12Z</time>
      </trkpt>
      <trkpt lat="43.282435" lon="-8.875356">
        <ele>66.961</ele>
        <time>2019-06-21T12:55:13Z</time>
      </trkpt>
      <trkpt lat="43.282542" lon="-8.875566">
        <ele>69.913</ele>
        <time>2019-06-21T12:55:14Z</time>
      </trkpt>
      <trkpt lat="43.282642" lon="-8.875777">
        <ele>72.643</ele>
        <time>2019-06-21T12:55:15Z</time>
      </trkpt>
      <trkpt lat="43.282720" lon="-8.875976">
        <ele>74.507</ele>
        <time>2019-06-21T12:55:16Z</time>
      </trkpt>
      <trkpt lat="43.282781" lon="-8.876172">
        <ele>76.208</ele>
        <time>2019-06-21T12:55:17Z</time>
      </trkpt>
      <trkpt lat="43.282845" lon="-8.876376">
        <ele>77.294</ele>
        <time>2019-06-21T12:55:18Z</time>
      </trkpt>
      <trkpt lat="43.282891" lon="-8.876587">
        <ele>77.858</ele>
        <time>2019-06-21T12:55:19Z</time>
      </trkpt>
      <trkpt lat="43.282938" lon="-8.876811">
        <ele>77.790</ele>
        <time>2019-06-21T12:55:20Z</time>
      </trkpt>
      <trkpt lat="43.282982" lon="-8.877039">
        <ele>76.942</ele>
        <time>2019-06-21T12:55:21Z</time>
      </trkpt>
      <trkpt lat="43.283017" lon="-8.877288">
        <ele>75.989</ele>
        <time>2019-06-21T12:55:22Z</time>
      </trkpt>
      <trkpt lat="43.283046" lon="-8.877542">
        <ele>74.985</ele>
        <time>2019-06-21T12:55:23Z</time>
      </trkpt>
      <trkpt lat="43.283075" lon="-8.877807">
        <ele>74.049</ele>
        <time>2019-06-21T12:55:24Z</time>
      </trkpt>
      <trkpt lat="43.283094" lon="-8.878074">
        <ele>74.961</ele>
        <time>2019-06-21T12:55:25Z</time>
      </trkpt>
      <trkpt lat="43.283104" lon="-8.878349">
        <ele>76.814</ele>
        <time>2019-06-21T12:55:26Z</time>
      </trkpt>
      <trkpt lat="43.283115" lon="-8.878613">
        <ele>78.454</ele>
        <time>2019-06-21T12:55:27Z</time>
      </trkpt>
      <trkpt lat="43.283122" lon="-8.878880">
        <ele>79.209</ele>
        <time>2019-06-21T12:55:28Z</time>
      </trkpt>
      <trkpt lat="43.283127" lon="-8.879129">
        <ele>79.508</ele>
        <time>2019-06-21T12:55:29Z</time>
      </trkpt>
      <trkpt lat="43.283134" lon="-8.879361">
        <ele>79.664</ele>
        <time>2019-06-21T12:55:30Z</time>
      </trkpt>
      <trkpt lat="43.283134" lon="-8.879570">
        <ele>80.328</ele>
        <time>2019-06-21T12:55:31Z</time>
      </trkpt>
      <trkpt lat="43.283138" lon="-8.879771">
        <ele>81.530</ele>
        <time>2019-06-21T12:55:32Z</time>
      </trkpt>
      <trkpt lat="43.283139" lon="-8.879965">
        <ele>83.642</ele>
        <time>2019-06-21T12:55:33Z</time>
      </trkpt>
      <trkpt lat="43.283145" lon="-8.880130">
        <ele>85.159</ele>
        <time>2019-06-21T12:55:34Z</time>
      </trkpt>
      <trkpt lat="43.283148" lon="-8.880307">
        <ele>86.615</ele>
        <time>2019-06-21T12:55:35Z</time>
      </trkpt>
      <trkpt lat="43.283146" lon="-8.880505">
        <ele>88.269</ele>
        <time>2019-06-21T12:55:36Z</time>
      </trkpt>
      <trkpt lat="43.283145" lon="-8.880698">
        <ele>89.321</ele>
        <time>2019-06-21T12:55:37Z</time>
      </trkpt>
      <trkpt lat="43.283159" lon="-8.880910">
        <ele>89.949</ele>
        <time>2019-06-21T12:55:38Z</time>
      </trkpt>
      <trkpt lat="43.283169" lon="-8.881133">
        <ele>89.602</ele>
        <time>2019-06-21T12:55:39Z</time>
      </trkpt>
      <trkpt lat="43.283176" lon="-8.881353">
        <ele>89.622</ele>
        <time>2019-06-21T12:55:40Z</time>
      </trkpt>
      <trkpt lat="43.283199" lon="-8.881615">
        <ele>88.208</ele>
        <time>2019-06-21T12:55:41Z</time>
      </trkpt>
      <trkpt lat="43.283222" lon="-8.881864">
        <ele>87.177</ele>
        <time>2019-06-21T12:55:42Z</time>
      </trkpt>
      <trkpt lat="43.283236" lon="-8.882126">
        <ele>85.741</ele>
        <time>2019-06-21T12:55:43Z</time>
      </trkpt>
      <trkpt lat="43.283254" lon="-8.882383">
        <ele>83.773</ele>
        <time>2019-06-21T12:55:44Z</time>
      </trkpt>
      <trkpt lat="43.283245" lon="-8.882669">
        <ele>83.275</ele>
        <time>2019-06-21T12:55:45Z</time>
      </trkpt>
      <trkpt lat="43.283264" lon="-8.882938">
        <ele>82.282</ele>
        <time>2019-06-21T12:55:46Z</time>
      </trkpt>
      <trkpt lat="43.283290" lon="-8.883207">
        <ele>80.818</ele>
        <time>2019-06-21T12:55:47Z</time>
      </trkpt>
      <trkpt lat="43.283305" lon="-8.883475">
        <ele>79.982</ele>
        <time>2019-06-21T12:55:48Z</time>
      </trkpt>
      <trkpt lat="43.283328" lon="-8.883749">
        <ele>79.144</ele>
        <time>2019-06-21T12:55:49Z</time>
      </trkpt>
      <trkpt lat="43.283347" lon="-8.884025">
        <ele>78.914</ele>
        <time>2019-06-21T12:55:50Z</time>
      </trkpt>
      <trkpt lat="43.283356" lon="-8.884292">
        <ele>79.354</ele>
        <time>2019-06-21T12:55:51Z</time>
      </trkpt>
      <trkpt lat="43.283366" lon="-8.884561">
        <ele>80.409</ele>
        <time>2019-06-21T12:55:52Z</time>
      </trkpt>
      <trkpt lat="43.283379" lon="-8.884845">
        <ele>82.008</ele>
        <time>2019-06-21T12:55:53Z</time>
      </trkpt>
      <trkpt lat="43.283385" lon="-8.885118">
        <ele>82.544</ele>
        <time>2019-06-21T12:55:54Z</time>
      </trkpt>
      <trkpt lat="43.283383" lon="-8.885409">
        <ele>81.258</ele>
        <time>2019-06-21T12:55:55Z</time>
      </trkpt>
      <trkpt lat="43.283390" lon="-8.885674">
        <ele>80.580</ele>
        <time>2019-06-21T12:55:56Z</time>
      </trkpt>
      <trkpt lat="43.283399" lon="-8.885949">
        <ele>81.482</ele>
        <time>2019-06-21T12:55:57Z</time>
      </trkpt>
      <trkpt lat="43.283403" lon="-8.886233">
        <ele>82.069</ele>
        <time>2019-06-21T12:55:58Z</time>
      </trkpt>
      <trkpt lat="43.283410" lon="-8.886520">
        <ele>80.845</ele>
        <time>2019-06-21T12:55:59Z</time>
      </trkpt>
      <trkpt lat="43.283418" lon="-8.886821">
        <ele>77.959</ele>
        <time>2019-06-21T12:56:00Z</time>
      </trkpt>
      <trkpt lat="43.283430" lon="-8.887114">
        <ele>74.371</ele>
        <time>2019-06-21T12:56:01Z</time>
      </trkpt>
      <trkpt lat="43.283435" lon="-8.887406">
        <ele>71.687</ele>
        <time>2019-06-21T12:56:02Z</time>
      </trkpt>
      <trkpt lat="43.283436" lon="-8.887693">
        <ele>69.542</ele>
        <time>2019-06-21T12:56:03Z</time>
      </trkpt>
      <trkpt lat="43.283435" lon="-8.887986">
        <ele>67.426</ele>
        <time>2019-06-21T12:56:04Z</time>
      </trkpt>
      <trkpt lat="43.283436" lon="-8.888274">
        <ele>66.108</ele>
        <time>2019-06-21T12:56:05Z</time>
      </trkpt>
      <trkpt lat="43.283443" lon="-8.888551">
        <ele>64.911</ele>
        <time>2019-06-21T12:56:06Z</time>
      </trkpt>
      <trkpt lat="43.283441" lon="-8.888839">
        <ele>63.875</ele>
        <time>2019-06-21T12:56:07Z</time>
      </trkpt>
      <trkpt lat="43.283442" lon="-8.889117">
        <ele>63.317</ele>
        <time>2019-06-21T12:56:08Z</time>
      </trkpt>
      <trkpt lat="43.283444" lon="-8.889385">
        <ele>62.499</ele>
        <time>2019-06-21T12:56:09Z</time>
      </trkpt>
      <trkpt lat="43.283456" lon="-8.889640">
        <ele>61.726</ele>
        <time>2019-06-21T12:56:10Z</time>
      </trkpt>
      <trkpt lat="43.283463" lon="-8.889886">
        <ele>61.822</ele>
        <time>2019-06-21T12:56:11Z</time>
      </trkpt>
      <trkpt lat="43.283468" lon="-8.890105">
        <ele>62.086</ele>
        <time>2019-06-21T12:56:12Z</time>
      </trkpt>
      <trkpt lat="43.283460" lon="-8.890312">
        <ele>62.098</ele>
        <time>2019-06-21T12:56:13Z</time>
      </trkpt>
      <trkpt lat="43.283445" lon="-8.890519">
        <ele>61.765</ele>
        <time>2019-06-21T12:56:14Z</time>
      </trkpt>
      <trkpt lat="43.283422" lon="-8.890725">
        <ele>61.168</ele>
        <time>2019-06-21T12:56:15Z</time>
      </trkpt>
      <trkpt lat="43.283365" lon="-8.890920">
        <ele>60.614</ele>
        <time>2019-06-21T12:56:16Z</time>
      </trkpt>
      <trkpt lat="43.283293" lon="-8.891103">
        <ele>60.308</ele>
        <time>2019-06-21T12:56:17Z</time>
      </trkpt>
      <trkpt lat="43.283214" lon="-8.891295">
        <ele>59.939</ele>
        <time>2019-06-21T12:56:18Z</time>
      </trkpt>
      <trkpt lat="43.283129" lon="-8.891487">
        <ele>59.173</ele>
        <time>2019-06-21T12:56:19Z</time>
      </trkpt>
      <trkpt lat="43.283056" lon="-8.891683">
        <ele>57.875</ele>
        <time>2019-06-21T12:56:20Z</time>
      </trkpt>
      <trkpt lat="43.282980" lon="-8.891877">
        <ele>56.537</ele>
        <time>2019-06-21T12:56:21Z</time>
      </trkpt>
      <trkpt lat="43.282891" lon="-8.892062">
        <ele>56.374</ele>
        <time>2019-06-21T12:56:22Z</time>
      </trkpt>
      <trkpt lat="43.282819" lon="-8.892230">
        <ele>55.830</ele>
        <time>2019-06-21T12:56:23Z</time>
      </trkpt>
      <trkpt lat="43.282745" lon="-8.892406">
        <ele>55.534</ele>
        <time>2019-06-21T12:56:24Z</time>
      </trkpt>
      <trkpt lat="43.282685" lon="-8.892602">
        <ele>54.856</ele>
        <time>2019-06-21T12:56:25Z</time>
      </trkpt>
      <trkpt lat="43.282652" lon="-8.892811">
        <ele>54.127</ele>
        <time>2019-06-21T12:56:26Z</time>
      </trkpt>
      <trkpt lat="43.282639" lon="-8.893028">
        <ele>54.568</ele>
        <time>2019-06-21T12:56:27Z</time>
      </trkpt>
      <trkpt lat="43.282641" lon="-8.893265">
        <ele>54.914</ele>
        <time>2019-06-21T12:56:28Z</time>
      </trkpt>
      <trkpt lat="43.282650" lon="-8.893510">
        <ele>55.608</ele>
        <time>2019-06-21T12:56:29Z</time>
      </trkpt>
      <trkpt lat="43.282652" lon="-8.893765">
        <ele>56.615</ele>
        <time>2019-06-21T12:56:30Z</time>
      </trkpt>
      <trkpt lat="43.282653" lon="-8.894023">
        <ele>57.069</ele>
        <time>2019-06-21T12:56:31Z</time>
      </trkpt>
      <trkpt lat="43.282660" lon="-8.894282">
        <ele>57.471</ele>
        <time>2019-06-21T12:56:32Z</time>
      </trkpt>
      <trkpt lat="43.282661" lon="-8.894536">
        <ele>57.793</ele>
        <time>2019-06-21T12:56:33Z</time>
      </trkpt>
      <trkpt lat="43.282662" lon="-8.894786">
        <ele>58.030</ele>
        <time>2019-06-21T12:56:34Z</time>
      </trkpt>
      <trkpt lat="43.282667" lon="-8.895019">
        <ele>58.816</ele>
        <time>2019-06-21T12:56:35Z</time>
      </trkpt>
      <trkpt lat="43.282659" lon="-8.895248">
        <ele>59.180</ele>
        <time>2019-06-21T12:56:36Z</time>
      </trkpt>
      <trkpt lat="43.282643" lon="-8.895455">
        <ele>60.052</ele>
        <time>2019-06-21T12:56:37Z</time>
      </trkpt>
      <trkpt lat="43.282630" lon="-8.895658">
        <ele>60.864</ele>
        <time>2019-06-21T12:56:38Z</time>
      </trkpt>
      <trkpt lat="43.282631" lon="-8.895860">
        <ele>61.506</ele>
        <time>2019-06-21T12:56:39Z</time>
      </trkpt>
      <trkpt lat="43.282642" lon="-8.896050">
        <ele>62.316</ele>
        <time>2019-06-21T12:56:40Z</time>
      </trkpt>
      <trkpt lat="43.282664" lon="-8.896234">
        <ele>63.208</ele>
        <time>2019-06-21T12:56:41Z</time>
      </trkpt>
      <trkpt lat="43.282697" lon="-8.896419">
        <ele>64.239</ele>
        <time>2019-06-21T12:56:42Z</time>
      </trkpt>
      <trkpt lat="43.282732" lon="-8.896592">
        <ele>65.133</ele>
        <time>2019-06-21T12:56:43Z</time>
      </trkpt>
      <trkpt lat="43.282810" lon="-8.896717">
        <ele>66.325</ele>
        <time>2019-06-21T12:56:44Z</time>
      </trkpt>
      <trkpt lat="43.282892" lon="-8.896855">
        <ele>67.267</ele>
        <time>2019-06-21T12:56:45Z</time>
      </trkpt>
      <trkpt lat="43.283001" lon="-8.896961">
        <ele>68.454</ele>
        <time>2019-06-21T12:56:46Z</time>
      </trkpt>
      <trkpt lat="43.283111" lon="-8.897076">
        <ele>68.790</ele>
        <time>2019-06-21T12:56:47Z</time>
      </trkpt>
      <trkpt lat="43.283235" lon="-8.897186">
        <ele>68.824</ele>
        <time>2019-06-21T12:56:48Z</time>
      </trkpt>
      <trkpt lat="43.283370" lon="-8.897288">
        <ele>69.726</ele>
        <time>2019-06-21T12:56:49Z</time>
      </trkpt>
      <trkpt lat="43.283508" lon="-8.897396">
        <ele>71.762</ele>
        <time>2019-06-21T12:56:50Z</time>
      </trkpt>
      <trkpt lat="43.283637" lon="-8.897489">
        <ele>73.383</ele>
        <time>2019-06-21T12:56:51Z</time>
      </trkpt>
      <trkpt lat="43.283749" lon="-8.897558">
        <ele>74.211</ele>
        <time>2019-06-21T12:56:52Z</time>
      </trkpt>
      <trkpt lat="43.283864" lon="-8.897609">
        <ele>75.008</ele>
        <time>2019-06-21T12:56:53Z</time>
      </trkpt>
      <trkpt lat="43.283974" lon="-8.897640">
        <ele>75.659</ele>
        <time>2019-06-21T12:56:54Z</time>
      </trkpt>
      <trkpt lat="43.284097" lon="-8.897621">
        <ele>76.623</ele>
        <time>2019-06-21T12:56:55Z</time>
      </trkpt>
      <trkpt lat="43.284221" lon="-8.897578">
        <ele>77.455</ele>
        <time>2019-06-21T12:56:56Z</time>
      </trkpt>
      <trkpt lat="43.284350" lon="-8.897524">
        <ele>77.837</ele>
        <time>2019-06-21T12:56:57Z</time>
      </trkpt>
      <trkpt lat="43.284490" lon="-8.897456">
        <ele>78.294</ele>
        <time>2019-06-21T12:56:58Z</time>
      </trkpt>
      <trkpt lat="43.284632" lon="-8.897383">
        <ele>78.280</ele>
        <time>2019-06-21T12:56:59Z</time>
      </trkpt>
      <trkpt lat="43.284765" lon="-8.897303">
        <ele>78.424</ele>
        <time>2019-06-21T12:57:00Z</time>
      </trkpt>
      <trkpt lat="43.284894" lon="-8.897231">
        <ele>78.966</ele>
        <time>2019-06-21T12:57:01Z</time>
      </trkpt>
      <trkpt lat="43.285027" lon="-8.897186">
        <ele>79.361</ele>
        <time>2019-06-21T12:57:02Z</time>
      </trkpt>
      <trkpt lat="43.285156" lon="-8.897176">
        <ele>80.221</ele>
        <time>2019-06-21T12:57:03Z</time>
      </trkpt>
      <trkpt lat="43.285287" lon="-8.897199">
        <ele>81.013</ele>
        <time>2019-06-21T12:57:04Z</time>
      </trkpt>
      <trkpt lat="43.285419" lon="-8.897259">
        <ele>81.408</ele>
        <time>2019-06-21T12:57:05Z</time>
      </trkpt>
      <trkpt lat="43.285542" lon="-8.897351">
        <ele>81.999</ele>
        <time>2019-06-21T12:57:06Z</time>
      </trkpt>
      <trkpt lat="43.285651" lon="-8.897462">
        <ele>82.063</ele>
        <time>2019-06-21T12:57:07Z</time>
      </trkpt>
      <trkpt lat="43.285748" lon="-8.897595">
        <ele>82.245</ele>
        <time>2019-06-21T12:57:08Z</time>
      </trkpt>
      <trkpt lat="43.285813" lon="-8.897770">
        <ele>82.947</ele>
        <time>2019-06-21T12:57:09Z</time>
      </trkpt>
      <trkpt lat="43.285854" lon="-8.897970">
        <ele>84.594</ele>
        <time>2019-06-21T12:57:10Z</time>
      </trkpt>
      <trkpt lat="43.285874" lon="-8.898185">
        <ele>86.310</ele>
        <time>2019-06-21T12:57:11Z</time>
      </trkpt>
      <trkpt lat="43.285899" lon="-8.898407">
        <ele>88.734</ele>
        <time>2019-06-21T12:57:12Z</time>
      </trkpt>
      <trkpt lat="43.285916" lon="-8.898626">
        <ele>91.886</ele>
        <time>2019-06-21T12:57:13Z</time>
      </trkpt>
      <trkpt lat="43.285931" lon="-8.898843">
        <ele>94.275</ele>
        <time>2019-06-21T12:57:14Z</time>
      </trkpt>
      <trkpt lat="43.285873" lon="-8.899020">
        <ele>95.628</ele>
        <time>2019-06-21T12:57:15Z</time>
      </trkpt>
      <trkpt lat="43.285845" lon="-8.899210">
        <ele>97.520</ele>
        <time>2019-06-21T12:57:16Z</time>
      </trkpt>
      <trkpt lat="43.285811" lon="-8.899370">
        <ele>99.308</ele>
        <time>2019-06-21T12:57:17Z</time>
      </trkpt>
      <trkpt lat="43.285782" lon="-8.899546">
        <ele>101.320</ele>
        <time>2019-06-21T12:57:18Z</time>
      </trkpt>
      <trkpt lat="43.285462" lon="-8.899521">
        <ele>102.294</ele>
        <time>2019-06-21T12:57:19Z</time>
      </trkpt>
      <trkpt lat="43.285335" lon="-8.899630">
        <ele>104.266</ele>
        <time>2019-06-21T12:57:20Z</time>
      </trkpt>
      <trkpt lat="43.285163" lon="-8.899770">
        <ele>105.978</ele>
        <time>2019-06-21T12:57:21Z</time>
      </trkpt>
      <trkpt lat="43.285017" lon="-8.899890">
        <ele>107.165</ele>
        <time>2019-06-21T12:57:22Z</time>
      </trkpt>
      <trkpt lat="43.284859" lon="-8.900016">
        <ele>107.821</ele>
        <time>2019-06-21T12:57:23Z</time>
      </trkpt>
      <trkpt lat="43.284691" lon="-8.900149">
        <ele>109.595</ele>
        <time>2019-06-21T12:57:24Z</time>
      </trkpt>
      <trkpt lat="43.284508" lon="-8.900279">
        <ele>112.397</ele>
        <time>2019-06-21T12:57:25Z</time>
      </trkpt>
      <trkpt lat="43.284325" lon="-8.900395">
        <ele>113.789</ele>
        <time>2019-06-21T12:57:26Z</time>
      </trkpt>
      <trkpt lat="43.284147" lon="-8.900520">
        <ele>114.806</ele>
        <time>2019-06-21T12:57:27Z</time>
      </trkpt>
      <trkpt lat="43.283966" lon="-8.900611">
        <ele>114.826</ele>
        <time>2019-06-21T12:57:28Z</time>
      </trkpt>
      <trkpt lat="43.283779" lon="-8.900711">
        <ele>115.408</ele>
        <time>2019-06-21T12:57:29Z</time>
      </trkpt>
      <trkpt lat="43.283587" lon="-8.900795">
        <ele>116.311</ele>
        <time>2019-06-21T12:57:30Z</time>
      </trkpt>
      <trkpt lat="43.283392" lon="-8.900888">
        <ele>118.175</ele>
        <time>2019-06-21T12:57:31Z</time>
      </trkpt>
      <trkpt lat="43.283199" lon="-8.900980">
        <ele>118.217</ele>
        <time>2019-06-21T12:57:32Z</time>
      </trkpt>
      <trkpt lat="43.283022" lon="-8.901088">
        <ele>118.339</ele>
        <time>2019-06-21T12:57:33Z</time>
      </trkpt>
      <trkpt lat="43.282853" lon="-8.901209">
        <ele>119.716</ele>
        <time>2019-06-21T12:57:34Z</time>
      </trkpt>
      <trkpt lat="43.282674" lon="-8.901307">
        <ele>120.242</ele>
        <time>2019-06-21T12:57:35Z</time>
      </trkpt>
      <trkpt lat="43.282495" lon="-8.901411">
        <ele>120.396</ele>
        <time>2019-06-21T12:57:36Z</time>
      </trkpt>
      <trkpt lat="43.282302" lon="-8.901476">
        <ele>119.248</ele>
        <time>2019-06-21T12:57:37Z</time>
      </trkpt>
      <trkpt lat="43.282117" lon="-8.901563">
        <ele>119.471</ele>
        <time>2019-06-21T12:57:38Z</time>
      </trkpt>
      <trkpt lat="43.281937" lon="-8.901653">
        <ele>120.841</ele>
        <time>2019-06-21T12:57:39Z</time>
      </trkpt>
      <trkpt lat="43.281766" lon="-8.901716">
        <ele>121.815</ele>
        <time>2019-06-21T12:57:40Z</time>
      </trkpt>
      <trkpt lat="43.281614" lon="-8.901780">
        <ele>122.708</ele>
        <time>2019-06-21T12:57:41Z</time>
      </trkpt>
      <trkpt lat="43.281457" lon="-8.901845">
        <ele>123.420</ele>
        <time>2019-06-21T12:57:42Z</time>
      </trkpt>
      <trkpt lat="43.281331" lon="-8.901934">
        <ele>123.754</ele>
        <time>2019-06-21T12:57:43Z</time>
      </trkpt>
      <trkpt lat="43.281200" lon="-8.902033">
        <ele>124.526</ele>
        <time>2019-06-21T12:57:44Z</time>
      </trkpt>
      <trkpt lat="43.281039" lon="-8.902169">
        <ele>125.718</ele>
        <time>2019-06-21T12:57:45Z</time>
      </trkpt>
      <trkpt lat="43.280907" lon="-8.902289">
        <ele>126.375</ele>
        <time>2019-06-21T12:57:46Z</time>
      </trkpt>
      <trkpt lat="43.280844" lon="-8.902533">
        <ele>128.441</ele>
        <time>2019-06-21T12:57:47Z</time>
      </trkpt>
      <trkpt lat="43.280744" lon="-8.902720">
        <ele>129.965</ele>
        <time>2019-06-21T12:57:48Z</time>
      </trkpt>
      <trkpt lat="43.280638" lon="-8.902889">
        <ele>132.227</ele>
        <time>2019-06-21T12:57:49Z</time>
      </trkpt>
      <trkpt lat="43.280534" lon="-8.903064">
        <ele>134.816</ele>
        <time>2019-06-21T12:57:50Z</time>
      </trkpt>
      <trkpt lat="43.280422" lon="-8.903244">
        <ele>136.176</ele>
        <time>2019-06-21T12:57:51Z</time>
      </trkpt>
      <trkpt lat="43.280313" lon="-8.903437">
        <ele>137.113</ele>
        <time>2019-06-21T12:57:52Z</time>
      </trkpt>
      <trkpt lat="43.280209" lon="-8.903628">
        <ele>136.808</ele>
        <time>2019-06-21T12:57:53Z</time>
      </trkpt>
      <trkpt lat="43.280106" lon="-8.903843">
        <ele>136.384</ele>
        <time>2019-06-21T12:57:54Z</time>
      </trkpt>
      <trkpt lat="43.280018" lon="-8.904026">
        <ele>136.798</ele>
        <time>2019-06-21T12:57:55Z</time>
      </trkpt>
      <trkpt lat="43.279926" lon="-8.904228">
        <ele>138.010</ele>
        <time>2019-06-21T12:57:56Z</time>
      </trkpt>
      <trkpt lat="43.279845" lon="-8.904416">
        <ele>138.912</ele>
        <time>2019-06-21T12:57:57Z</time>
      </trkpt>
      <trkpt lat="43.279758" lon="-8.904628">
        <ele>139.729</ele>
        <time>2019-06-21T12:57:58Z</time>
      </trkpt>
      <trkpt lat="43.279668" lon="-8.904856">
        <ele>141.135</ele>
        <time>2019-06-21T12:57:59Z</time>
      </trkpt>
      <trkpt lat="43.279577" lon="-8.905083">
        <ele>143.159</ele>
        <time>2019-06-21T12:58:00Z</time>
      </trkpt>
      <trkpt lat="43.279496" lon="-8.905274">
        <ele>145.881</ele>
        <time>2019-06-21T12:58:01Z</time>
      </trkpt>
      <trkpt lat="43.279395" lon="-8.905516">
        <ele>148.816</ele>
        <time>2019-06-21T12:58:02Z</time>
      </trkpt>
      <trkpt lat="43.279302" lon="-8.905752">
        <ele>150.976</ele>
        <time>2019-06-21T12:58:03Z</time>
      </trkpt>
      <trkpt lat="43.279212" lon="-8.905971">
        <ele>152.213</ele>
        <time>2019-06-21T12:58:04Z</time>
      </trkpt>
      <trkpt lat="43.279123" lon="-8.906184">
        <ele>154.008</ele>
        <time>2019-06-21T12:58:05Z</time>
      </trkpt>
      <trkpt lat="43.279037" lon="-8.906384">
        <ele>157.094</ele>
        <time>2019-06-21T12:58:06Z</time>
      </trkpt>
      <trkpt lat="43.278938" lon="-8.906552">
        <ele>158.888</ele>
        <time>2019-06-21T12:58:07Z</time>
      </trkpt>
      <trkpt lat="43.278826" lon="-8.906729">
        <ele>160.220</ele>
        <time>2019-06-21T12:58:08Z</time>
      </trkpt>
      <trkpt lat="43.278697" lon="-8.906874">
        <ele>160.482</ele>
        <time>2019-06-21T12:58:09Z</time>
      </trkpt>
      <trkpt lat="43.278578" lon="-8.907018">
        <ele>160.469</ele>
        <time>2019-06-21T12:58:10Z</time>
      </trkpt>
      <trkpt lat="43.278468" lon="-8.907168">
        <ele>160.985</ele>
        <time>2019-06-21T12:58:11Z</time>
      </trkpt>
      <trkpt lat="43.278364" lon="-8.907319">
        <ele>160.729</ele>
        <time>2019-06-21T12:58:12Z</time>
      </trkpt>
      <trkpt lat="43.278263" lon="-8.907473">
        <ele>160.141</ele>
        <time>2019-06-21T12:58:13Z</time>
      </trkpt>
      <trkpt lat="43.278209" lon="-8.907689">
        <ele>161.395</ele>
        <time>2019-06-21T12:58:14Z</time>
      </trkpt>
      <trkpt lat="43.278150" lon="-8.907884">
        <ele>162.749</ele>
        <time>2019-06-21T12:58:15Z</time>
      </trkpt>
      <trkpt lat="43.278133" lon="-8.908046">
        <ele>164.223</ele>
        <time>2019-06-21T12:58:16Z</time>
      </trkpt>
      <trkpt lat="43.278100" lon="-8.908119">
        <ele>164.808</ele>
        <time>2019-06-21T12:58:17Z</time>
      </trkpt>
      <trkpt lat="43.278064" lon="-8.908271">
        <ele>166.422</ele>
        <time>2019-06-21T12:58:18Z</time>
      </trkpt>
      <trkpt lat="43.278021" lon="-8.908409">
        <ele>167.146</ele>
        <time>2019-06-21T12:58:19Z</time>
      </trkpt>
      <trkpt lat="43.277985" lon="-8.908553">
        <ele>167.558</ele>
        <time>2019-06-21T12:58:20Z</time>
      </trkpt>
      <trkpt lat="43.277882" lon="-8.908702">
        <ele>167.270</ele>
        <time>2019-06-21T12:58:21Z</time>
      </trkpt>
      <trkpt lat="43.277795" lon="-8.908835">
        <ele>166.397</ele>
        <time>2019-06-21T12:58:22Z</time>
      </trkpt>
      <trkpt lat="43.277721" lon="-8.908935">
        <ele>166.573</ele>
        <time>2019-06-21T12:58:23Z</time>
      </trkpt>
      <trkpt lat="43.277646" lon="-8.909088">
        <ele>167.067</ele>
        <time>2019-06-21T12:58:24Z</time>
      </trkpt>
      <trkpt lat="43.277585" lon="-8.909246">
        <ele>167.259</ele>
        <time>2019-06-21T12:58:25Z</time>
      </trkpt>
      <trkpt lat="43.277517" lon="-8.909404">
        <ele>167.862</ele>
        <time>2019-06-21T12:58:26Z</time>
      </trkpt>
      <trkpt lat="43.277559" lon="-8.909722">
        <ele>168.083</ele>
        <time>2019-06-21T12:58:27Z</time>
      </trkpt>
      <trkpt lat="43.277540" lon="-8.909958">
        <ele>165.711</ele>
        <time>2019-06-21T12:58:28Z</time>
      </trkpt>
      <trkpt lat="43.277523" lon="-8.910155">
        <ele>164.008</ele>
        <time>2019-06-21T12:58:29Z</time>
      </trkpt>
      <trkpt lat="43.277506" lon="-8.910387">
        <ele>161.989</ele>
        <time>2019-06-21T12:58:30Z</time>
      </trkpt>
      <trkpt lat="43.277493" lon="-8.910599">
        <ele>159.673</ele>
        <time>2019-06-21T12:58:31Z</time>
      </trkpt>
      <trkpt lat="43.277469" lon="-8.910819">
        <ele>157.995</ele>
        <time>2019-06-21T12:58:32Z</time>
      </trkpt>
      <trkpt lat="43.277446" lon="-8.911027">
        <ele>157.197</ele>
        <time>2019-06-21T12:58:33Z</time>
      </trkpt>
      <trkpt lat="43.277421" lon="-8.911217">
        <ele>157.044</ele>
        <time>2019-06-21T12:58:34Z</time>
      </trkpt>
      <trkpt lat="43.277379" lon="-8.911390">
        <ele>157.110</ele>
        <time>2019-06-21T12:58:35Z</time>
      </trkpt>
      <trkpt lat="43.277331" lon="-8.911580">
        <ele>158.494</ele>
        <time>2019-06-21T12:58:36Z</time>
      </trkpt>
      <trkpt lat="43.277239" lon="-8.911771">
        <ele>158.926</ele>
        <time>2019-06-21T12:58:37Z</time>
      </trkpt>
      <trkpt lat="43.277150" lon="-8.911954">
        <ele>159.876</ele>
        <time>2019-06-21T12:58:38Z</time>
      </trkpt>
      <trkpt lat="43.277047" lon="-8.912147">
        <ele>161.690</ele>
        <time>2019-06-21T12:58:39Z</time>
      </trkpt>
      <trkpt lat="43.276957" lon="-8.912315">
        <ele>163.019</ele>
        <time>2019-06-21T12:58:40Z</time>
      </trkpt>
      <trkpt lat="43.276866" lon="-8.912481">
        <ele>163.708</ele>
        <time>2019-06-21T12:58:41Z</time>
      </trkpt>
      <trkpt lat="43.276775" lon="-8.912641">
        <ele>163.480</ele>
        <time>2019-06-21T12:58:42Z</time>
      </trkpt>
      <trkpt lat="43.276724" lon="-8.912777">
        <ele>163.684</ele>
        <time>2019-06-21T12:58:43Z</time>
      </trkpt>
      <trkpt lat="43.276654" lon="-8.912931">
        <ele>164.056</ele>
        <time>2019-06-21T12:58:44Z</time>
      </trkpt>
      <trkpt lat="43.276634" lon="-8.913104">
        <ele>164.768</ele>
        <time>2019-06-21T12:58:45Z</time>
      </trkpt>
      <trkpt lat="43.276604" lon="-8.913299">
        <ele>164.515</ele>
        <time>2019-06-21T12:58:46Z</time>
      </trkpt>
      <trkpt lat="43.276624" lon="-8.913537">
        <ele>164.131</ele>
        <time>2019-06-21T12:58:47Z</time>
      </trkpt>
      <trkpt lat="43.276625" lon="-8.913759">
        <ele>163.875</ele>
        <time>2019-06-21T12:58:48Z</time>
      </trkpt>
      <trkpt lat="43.276629" lon="-8.914020">
        <ele>163.567</ele>
        <time>2019-06-21T12:58:49Z</time>
      </trkpt>
      <trkpt lat="43.276621" lon="-8.914296">
        <ele>162.943</ele>
        <time>2019-06-21T12:58:50Z</time>
      </trkpt>
      <trkpt lat="43.276617" lon="-8.914571">
        <ele>162.964</ele>
        <time>2019-06-21T12:58:51Z</time>
      </trkpt>
      <trkpt lat="43.276621" lon="-8.914844">
        <ele>163.010</ele>
        <time>2019-06-21T12:58:52Z</time>
      </trkpt>
      <trkpt lat="43.276624" lon="-8.915129">
        <ele>163.008</ele>
        <time>2019-06-21T12:58:53Z</time>
      </trkpt>
      <trkpt lat="43.276628" lon="-8.915400">
        <ele>162.777</ele>
        <time>2019-06-21T12:58:54Z</time>
      </trkpt>
      <trkpt lat="43.276626" lon="-8.915650">
        <ele>162.071</ele>
        <time>2019-06-21T12:58:55Z</time>
      </trkpt>
      <trkpt lat="43.276628" lon="-8.915910">
        <ele>161.083</ele>
        <time>2019-06-21T12:58:56Z</time>
      </trkpt>
      <trkpt lat="43.276627" lon="-8.916144">
        <ele>160.565</ele>
        <time>2019-06-21T12:58:57Z</time>
      </trkpt>
      <trkpt lat="43.276628" lon="-8.916382">
        <ele>161.472</ele>
        <time>2019-06-21T12:58:58Z</time>
      </trkpt>
      <trkpt lat="43.276612" lon="-8.916619">
        <ele>162.698</ele>
        <time>2019-06-21T12:58:59Z</time>
      </trkpt>
      <trkpt lat="43.276605" lon="-8.916851">
        <ele>162.432</ele>
        <time>2019-06-21T12:59:00Z</time>
      </trkpt>
      <trkpt lat="43.276590" lon="-8.917057">
        <ele>161.374</ele>
        <time>2019-06-21T12:59:01Z</time>
      </trkpt>
      <trkpt lat="43.276558" lon="-8.917267">
        <ele>159.943</ele>
        <time>2019-06-21T12:59:02Z</time>
      </trkpt>
      <trkpt lat="43.276507" lon="-8.917458">
        <ele>158.864</ele>
        <time>2019-06-21T12:59:03Z</time>
      </trkpt>
      <trkpt lat="43.276444" lon="-8.917640">
        <ele>157.110</ele>
        <time>2019-06-21T12:59:04Z</time>
      </trkpt>
      <trkpt lat="43.276380" lon="-8.917811">
        <ele>155.308</ele>
        <time>2019-06-21T12:59:05Z</time>
      </trkpt>
      <trkpt lat="43.276304" lon="-8.917989">
        <ele>152.257</ele>
        <time>2019-06-21T12:59:06Z</time>
      </trkpt>
      <trkpt lat="43.276211" lon="-8.918162">
        <ele>150.451</ele>
        <time>2019-06-21T12:59:07Z</time>
      </trkpt>
      <trkpt lat="43.276113" lon="-8.918309">
        <ele>149.313</ele>
        <time>2019-06-21T12:59:08Z</time>
      </trkpt>
      <trkpt lat="43.275999" lon="-8.918468">
        <ele>146.615</ele>
        <time>2019-06-21T12:59:09Z</time>
      </trkpt>
      <trkpt lat="43.275896" lon="-8.918542">
        <ele>145.262</ele>
        <time>2019-06-21T12:59:10Z</time>
      </trkpt>
      <trkpt lat="43.275783" lon="-8.918639">
        <ele>143.598</ele>
        <time>2019-06-21T12:59:11Z</time>
      </trkpt>
      <trkpt lat="43.275634" lon="-8.918613">
        <ele>144.052</ele>
        <time>2019-06-21T12:59:12Z</time>
      </trkpt>
      <trkpt lat="43.275506" lon="-8.918632">
        <ele>143.874</ele>
        <time>2019-06-21T12:59:13Z</time>
      </trkpt>
      <trkpt lat="43.275375" lon="-8.918632">
        <ele>144.249</ele>
        <time>2019-06-21T12:59:14Z</time>
      </trkpt>
      <trkpt lat="43.275255" lon="-8.918612">
        <ele>145.102</ele>
        <time>2019-06-21T12:59:15Z</time>
      </trkpt>
      <trkpt lat="43.275125" lon="-8.918589">
        <ele>146.722</ele>
        <time>2019-06-21T12:59:16Z</time>
      </trkpt>
      <trkpt lat="43.275016" lon="-8.918498">
        <ele>149.808</ele>
        <time>2019-06-21T12:59:17Z</time>
      </trkpt>
      <trkpt lat="43.274912" lon="-8.918421">
        <ele>151.737</ele>
        <time>2019-06-21T12:59:18Z</time>
      </trkpt>
      <trkpt lat="43.274796" lon="-8.918354">
        <ele>152.931</ele>
        <time>2019-06-21T12:59:19Z</time>
      </trkpt>
      <trkpt lat="43.274684" lon="-8.918311">
        <ele>153.523</ele>
        <time>2019-06-21T12:59:20Z</time>
      </trkpt>
      <trkpt lat="43.274601" lon="-8.918301">
        <ele>153.975</ele>
        <time>2019-06-21T12:59:21Z</time>
      </trkpt>
      <trkpt lat="43.274513" lon="-8.918314">
        <ele>154.022</ele>
        <time>2019-06-21T12:59:22Z</time>
      </trkpt>
      <trkpt lat="43.274453" lon="-8.918352">
        <ele>153.688</ele>
        <time>2019-06-21T12:59:23Z</time>
      </trkpt>
      <trkpt lat="43.274424" lon="-8.918475">
        <ele>151.292</ele>
        <time>2019-06-21T12:59:25Z</time>
      </trkpt>
      <trkpt lat="43.274445" lon="-8.918587">
        <ele>148.544</ele>
        <time>2019-06-21T12:59:27Z</time>
      </trkpt>
      <trkpt lat="43.274535" lon="-8.918642">
        <ele>147.176</ele>
        <time>2019-06-21T12:59:29Z</time>
      </trkpt>
      <trkpt lat="43.274596" lon="-8.918653">
        <ele>146.790</ele>
        <time>2019-06-21T12:59:30Z</time>
      </trkpt>
      <trkpt lat="43.274691" lon="-8.918675">
        <ele>145.819</ele>
        <time>2019-06-21T12:59:31Z</time>
      </trkpt>
      <trkpt lat="43.274802" lon="-8.918679">
        <ele>145.408</ele>
        <time>2019-06-21T12:59:32Z</time>
      </trkpt>
      <trkpt lat="43.274925" lon="-8.918690">
        <ele>144.840</ele>
        <time>2019-06-21T12:59:33Z</time>
      </trkpt>
      <trkpt lat="43.275066" lon="-8.918709">
        <ele>143.814</ele>
        <time>2019-06-21T12:59:34Z</time>
      </trkpt>
      <trkpt lat="43.275216" lon="-8.918758">
        <ele>141.686</ele>
        <time>2019-06-21T12:59:35Z</time>
      </trkpt>
      <trkpt lat="43.275374" lon="-8.918813">
        <ele>140.118</ele>
        <time>2019-06-21T12:59:36Z</time>
      </trkpt>
      <trkpt lat="43.275529" lon="-8.918892">
        <ele>138.875</ele>
        <time>2019-06-21T12:59:37Z</time>
      </trkpt>
      <trkpt lat="43.275697" lon="-8.918982">
        <ele>137.071</ele>
        <time>2019-06-21T12:59:38Z</time>
      </trkpt>
      <trkpt lat="43.275860" lon="-8.919092">
        <ele>134.715</ele>
        <time>2019-06-21T12:59:39Z</time>
      </trkpt>
      <trkpt lat="43.276027" lon="-8.919244">
        <ele>132.097</ele>
        <time>2019-06-21T12:59:40Z</time>
      </trkpt>
      <trkpt lat="43.276191" lon="-8.919392">
        <ele>129.083</ele>
        <time>2019-06-21T12:59:41Z</time>
      </trkpt>
      <trkpt lat="43.276347" lon="-8.919580">
        <ele>126.525</ele>
        <time>2019-06-21T12:59:42Z</time>
      </trkpt>
      <trkpt lat="43.276496" lon="-8.919777">
        <ele>123.517</ele>
        <time>2019-06-21T12:59:43Z</time>
      </trkpt>
      <trkpt lat="43.276628" lon="-8.919988">
        <ele>120.308</ele>
        <time>2019-06-21T12:59:44Z</time>
      </trkpt>
      <trkpt lat="43.276749" lon="-8.920222">
        <ele>117.661</ele>
        <time>2019-06-21T12:59:45Z</time>
      </trkpt>
      <trkpt lat="43.276855" lon="-8.920454">
        <ele>116.475</ele>
        <time>2019-06-21T12:59:46Z</time>
      </trkpt>
      <trkpt lat="43.276944" lon="-8.920712">
        <ele>115.327</ele>
        <time>2019-06-21T12:59:47Z</time>
      </trkpt>
      <trkpt lat="43.277020" lon="-8.920985">
        <ele>113.639</ele>
        <time>2019-06-21T12:59:48Z</time>
      </trkpt>
      <trkpt lat="43.277078" lon="-8.921258">
        <ele>111.366</ele>
        <time>2019-06-21T12:59:49Z</time>
      </trkpt>
      <trkpt lat="43.277116" lon="-8.921548">
        <ele>110.172</ele>
        <time>2019-06-21T12:59:50Z</time>
      </trkpt>
      <trkpt lat="43.277138" lon="-8.921834">
        <ele>110.766</ele>
        <time>2019-06-21T12:59:51Z</time>
      </trkpt>
      <trkpt lat="43.277141" lon="-8.922125">
        <ele>111.338</ele>
        <time>2019-06-21T12:59:52Z</time>
      </trkpt>
      <trkpt lat="43.277125" lon="-8.922415">
        <ele>113.234</ele>
        <time>2019-06-21T12:59:53Z</time>
      </trkpt>
      <trkpt lat="43.277090" lon="-8.922707">
        <ele>117.455</ele>
        <time>2019-06-21T12:59:54Z</time>
      </trkpt>
      <trkpt lat="43.277036" lon="-8.922998">
        <ele>121.510</ele>
        <time>2019-06-21T12:59:55Z</time>
      </trkpt>
      <trkpt lat="43.276964" lon="-8.923284">
        <ele>124.608</ele>
        <time>2019-06-21T12:59:56Z</time>
      </trkpt>
      <trkpt lat="43.276888" lon="-8.923571">
        <ele>127.256</ele>
        <time>2019-06-21T12:59:57Z</time>
      </trkpt>
      <trkpt lat="43.276777" lon="-8.923867">
        <ele>128.390</ele>
        <time>2019-06-21T12:59:58Z</time>
      </trkpt>
      <trkpt lat="43.276675" lon="-8.924161">
        <ele>127.182</ele>
        <time>2019-06-21T12:59:59Z</time>
      </trkpt>
      <trkpt lat="43.276579" lon="-8.924467">
        <ele>123.514</ele>
        <time>2019-06-21T13:00:00Z</time>
      </trkpt>
      <trkpt lat="43.276510" lon="-8.924792">
        <ele>119.791</ele>
        <time>2019-06-21T13:00:01Z</time>
      </trkpt>
      <trkpt lat="43.276426" lon="-8.925105">
        <ele>116.647</ele>
        <time>2019-06-21T13:00:02Z</time>
      </trkpt>
      <trkpt lat="43.276386" lon="-8.925379">
        <ele>113.951</ele>
        <time>2019-06-21T13:00:03Z</time>
      </trkpt>
      <trkpt lat="43.276386" lon="-8.925667">
        <ele>110.893</ele>
        <time>2019-06-21T13:00:04Z</time>
      </trkpt>
      <trkpt lat="43.276363" lon="-8.925981">
        <ele>108.524</ele>
        <time>2019-06-21T13:00:05Z</time>
      </trkpt>
      <trkpt lat="43.276334" lon="-8.926279">
        <ele>107.304</ele>
        <time>2019-06-21T13:00:06Z</time>
      </trkpt>
      <trkpt lat="43.276302" lon="-8.926569">
        <ele>105.214</ele>
        <time>2019-06-21T13:00:07Z</time>
      </trkpt>
      <trkpt lat="43.276278" lon="-8.926847">
        <ele>102.608</ele>
        <time>2019-06-21T13:00:08Z</time>
      </trkpt>
      <trkpt lat="43.276227" lon="-8.927097">
        <ele>100.625</ele>
        <time>2019-06-21T13:00:09Z</time>
      </trkpt>
      <trkpt lat="43.276163" lon="-8.927334">
        <ele>98.619</ele>
        <time>2019-06-21T13:00:10Z</time>
      </trkpt>
      <trkpt lat="43.276106" lon="-8.927518">
        <ele>96.991</ele>
        <time>2019-06-21T13:00:11Z</time>
      </trkpt>
      <trkpt lat="43.276007" lon="-8.927763">
        <ele>95.553</ele>
        <time>2019-06-21T13:00:12Z</time>
      </trkpt>
      <trkpt lat="43.275903" lon="-8.928001">
        <ele>95.810</ele>
        <time>2019-06-21T13:00:13Z</time>
      </trkpt>
      <trkpt lat="43.275787" lon="-8.928237">
        <ele>96.976</ele>
        <time>2019-06-21T13:00:14Z</time>
      </trkpt>
      <trkpt lat="43.275647" lon="-8.928461">
        <ele>97.290</ele>
        <time>2019-06-21T13:00:15Z</time>
      </trkpt>
      <trkpt lat="43.275509" lon="-8.928690">
        <ele>96.652</ele>
        <time>2019-06-21T13:00:16Z</time>
      </trkpt>
      <trkpt lat="43.275371" lon="-8.928912">
        <ele>95.291</ele>
        <time>2019-06-21T13:00:17Z</time>
      </trkpt>
      <trkpt lat="43.275237" lon="-8.929137">
        <ele>94.181</ele>
        <time>2019-06-21T13:00:18Z</time>
      </trkpt>
      <trkpt lat="43.275104" lon="-8.929360">
        <ele>93.819</ele>
        <time>2019-06-21T13:00:19Z</time>
      </trkpt>
      <trkpt lat="43.274981" lon="-8.929568">
        <ele>92.908</ele>
        <time>2019-06-21T13:00:20Z</time>
      </trkpt>
      <trkpt lat="43.274861" lon="-8.929791">
        <ele>92.662</ele>
        <time>2019-06-21T13:00:21Z</time>
      </trkpt>
      <trkpt lat="43.274726" lon="-8.930017">
        <ele>92.546</ele>
        <time>2019-06-21T13:00:22Z</time>
      </trkpt>
      <trkpt lat="43.274597" lon="-8.930253">
        <ele>93.558</ele>
        <time>2019-06-21T13:00:23Z</time>
      </trkpt>
      <trkpt lat="43.274468" lon="-8.930477">
        <ele>94.590</ele>
        <time>2019-06-21T13:00:24Z</time>
      </trkpt>
      <trkpt lat="43.274343" lon="-8.930693">
        <ele>94.127</ele>
        <time>2019-06-21T13:00:25Z</time>
      </trkpt>
      <trkpt lat="43.274224" lon="-8.930906">
        <ele>92.923</ele>
        <time>2019-06-21T13:00:26Z</time>
      </trkpt>
      <trkpt lat="43.274108" lon="-8.931104">
        <ele>90.867</ele>
        <time>2019-06-21T13:00:27Z</time>
      </trkpt>
      <trkpt lat="43.273990" lon="-8.931293">
        <ele>88.469</ele>
        <time>2019-06-21T13:00:28Z</time>
      </trkpt>
      <trkpt lat="43.273869" lon="-8.931498">
        <ele>87.182</ele>
        <time>2019-06-21T13:00:29Z</time>
      </trkpt>
      <trkpt lat="43.273753" lon="-8.931678">
        <ele>86.743</ele>
        <time>2019-06-21T13:00:30Z</time>
      </trkpt>
      <trkpt lat="43.273611" lon="-8.931847">
        <ele>85.617</ele>
        <time>2019-06-21T13:00:31Z</time>
      </trkpt>
      <trkpt lat="43.273479" lon="-8.932021">
        <ele>85.008</ele>
        <time>2019-06-21T13:00:32Z</time>
      </trkpt>
      <trkpt lat="43.273346" lon="-8.932193">
        <ele>84.871</ele>
        <time>2019-06-21T13:00:33Z</time>
      </trkpt>
      <trkpt lat="43.273209" lon="-8.932352">
        <ele>83.345</ele>
        <time>2019-06-21T13:00:34Z</time>
      </trkpt>
      <trkpt lat="43.273071" lon="-8.932510">
        <ele>80.737</ele>
        <time>2019-06-21T13:00:35Z</time>
      </trkpt>
      <trkpt lat="43.272945" lon="-8.932657">
        <ele>79.499</ele>
        <time>2019-06-21T13:00:36Z</time>
      </trkpt>
      <trkpt lat="43.272816" lon="-8.932813">
        <ele>77.526</ele>
        <time>2019-06-21T13:00:37Z</time>
      </trkpt>
      <trkpt lat="43.272704" lon="-8.932998">
        <ele>76.662</ele>
        <time>2019-06-21T13:00:38Z</time>
      </trkpt>
      <trkpt lat="43.272585" lon="-8.933196">
        <ele>75.296</ele>
        <time>2019-06-21T13:00:39Z</time>
      </trkpt>
      <trkpt lat="43.272472" lon="-8.933414">
        <ele>74.068</ele>
        <time>2019-06-21T13:00:40Z</time>
      </trkpt>
      <trkpt lat="43.272374" lon="-8.933641">
        <ele>73.666</ele>
        <time>2019-06-21T13:00:41Z</time>
      </trkpt>
      <trkpt lat="43.272279" lon="-8.933857">
        <ele>73.929</ele>
        <time>2019-06-21T13:00:42Z</time>
      </trkpt>
      <trkpt lat="43.272213" lon="-8.934101">
        <ele>74.321</ele>
        <time>2019-06-21T13:00:43Z</time>
      </trkpt>
      <trkpt lat="43.272143" lon="-8.934358">
        <ele>74.208</ele>
        <time>2019-06-21T13:00:44Z</time>
      </trkpt>
      <trkpt lat="43.272086" lon="-8.934620">
        <ele>73.769</ele>
        <time>2019-06-21T13:00:45Z</time>
      </trkpt>
      <trkpt lat="43.272056" lon="-8.934848">
        <ele>74.043</ele>
        <time>2019-06-21T13:00:46Z</time>
      </trkpt>
      <trkpt lat="43.272028" lon="-8.935081">
        <ele>74.775</ele>
        <time>2019-06-21T13:00:47Z</time>
      </trkpt>
      <trkpt lat="43.271990" lon="-8.935323">
        <ele>74.857</ele>
        <time>2019-06-21T13:00:48Z</time>
      </trkpt>
      <trkpt lat="43.271943" lon="-8.935564">
        <ele>72.924</ele>
        <time>2019-06-21T13:00:49Z</time>
      </trkpt>
      <trkpt lat="43.271887" lon="-8.935815">
        <ele>71.390</ele>
        <time>2019-06-21T13:00:50Z</time>
      </trkpt>
      <trkpt lat="43.271817" lon="-8.936063">
        <ele>71.084</ele>
        <time>2019-06-21T13:00:51Z</time>
      </trkpt>
      <trkpt lat="43.271741" lon="-8.936303">
        <ele>70.066</ele>
        <time>2019-06-21T13:00:52Z</time>
      </trkpt>
      <trkpt lat="43.271655" lon="-8.936523">
        <ele>69.275</ele>
        <time>2019-06-21T13:00:53Z</time>
      </trkpt>
      <trkpt lat="43.271567" lon="-8.936735">
        <ele>69.528</ele>
        <time>2019-06-21T13:00:54Z</time>
      </trkpt>
      <trkpt lat="43.271482" lon="-8.936959">
        <ele>69.420</ele>
        <time>2019-06-21T13:00:55Z</time>
      </trkpt>
      <trkpt lat="43.271405" lon="-8.937191">
        <ele>68.308</ele>
        <time>2019-06-21T13:00:56Z</time>
      </trkpt>
      <trkpt lat="43.271342" lon="-8.937430">
        <ele>66.740</ele>
        <time>2019-06-21T13:00:57Z</time>
      </trkpt>
      <trkpt lat="43.271296" lon="-8.937676">
        <ele>64.984</ele>
        <time>2019-06-21T13:00:58Z</time>
      </trkpt>
      <trkpt lat="43.271275" lon="-8.937926">
        <ele>63.656</ele>
        <time>2019-06-21T13:00:59Z</time>
      </trkpt>
      <trkpt lat="43.271270" lon="-8.938175">
        <ele>62.838</ele>
        <time>2019-06-21T13:01:00Z</time>
      </trkpt>
      <trkpt lat="43.271274" lon="-8.938425">
        <ele>62.515</ele>
        <time>2019-06-21T13:01:01Z</time>
      </trkpt>
      <trkpt lat="43.271282" lon="-8.938656">
        <ele>62.821</ele>
        <time>2019-06-21T13:01:02Z</time>
      </trkpt>
      <trkpt lat="43.271295" lon="-8.938898">
        <ele>63.685</ele>
        <time>2019-06-21T13:01:03Z</time>
      </trkpt>
      <trkpt lat="43.271314" lon="-8.939136">
        <ele>64.447</ele>
        <time>2019-06-21T13:01:04Z</time>
      </trkpt>
      <trkpt lat="43.271330" lon="-8.939350">
        <ele>64.779</ele>
        <time>2019-06-21T13:01:05Z</time>
      </trkpt>
      <trkpt lat="43.271343" lon="-8.939584">
        <ele>64.105</ele>
        <time>2019-06-21T13:01:06Z</time>
      </trkpt>
      <trkpt lat="43.271366" lon="-8.939788">
        <ele>62.925</ele>
        <time>2019-06-21T13:01:07Z</time>
      </trkpt>
      <trkpt lat="43.271384" lon="-8.940019">
        <ele>60.908</ele>
        <time>2019-06-21T13:01:08Z</time>
      </trkpt>
      <trkpt lat="43.271394" lon="-8.940245">
        <ele>60.220</ele>
        <time>2019-06-21T13:01:09Z</time>
      </trkpt>
      <trkpt lat="43.271393" lon="-8.940468">
        <ele>60.734</ele>
        <time>2019-06-21T13:01:10Z</time>
      </trkpt>
      <trkpt lat="43.271410" lon="-8.940680">
        <ele>61.566</ele>
        <time>2019-06-21T13:01:11Z</time>
      </trkpt>
      <trkpt lat="43.271400" lon="-8.940890">
        <ele>62.058</ele>
        <time>2019-06-21T13:01:12Z</time>
      </trkpt>
      <trkpt lat="43.271397" lon="-8.941097">
        <ele>62.065</ele>
        <time>2019-06-21T13:01:13Z</time>
      </trkpt>
      <trkpt lat="43.271389" lon="-8.941308">
        <ele>61.371</ele>
        <time>2019-06-21T13:01:14Z</time>
      </trkpt>
      <trkpt lat="43.271370" lon="-8.941520">
        <ele>60.335</ele>
        <time>2019-06-21T13:01:15Z</time>
      </trkpt>
      <trkpt lat="43.271350" lon="-8.941735">
        <ele>59.537</ele>
        <time>2019-06-21T13:01:16Z</time>
      </trkpt>
      <trkpt lat="43.271318" lon="-8.941937">
        <ele>59.655</ele>
        <time>2019-06-21T13:01:17Z</time>
      </trkpt>
      <trkpt lat="43.271288" lon="-8.942135">
        <ele>59.107</ele>
        <time>2019-06-21T13:01:18Z</time>
      </trkpt>
      <trkpt lat="43.271263" lon="-8.942334">
        <ele>58.417</ele>
        <time>2019-06-21T13:01:19Z</time>
      </trkpt>
      <trkpt lat="43.271247" lon="-8.942521">
        <ele>57.408</ele>
        <time>2019-06-21T13:01:20Z</time>
      </trkpt>
      <trkpt lat="43.271237" lon="-8.942710">
        <ele>56.028</ele>
        <time>2019-06-21T13:01:21Z</time>
      </trkpt>
      <trkpt lat="43.271238" lon="-8.942906">
        <ele>54.652</ele>
        <time>2019-06-21T13:01:22Z</time>
      </trkpt>
      <trkpt lat="43.271214" lon="-8.943104">
        <ele>53.944</ele>
        <time>2019-06-21T13:01:23Z</time>
      </trkpt>
      <trkpt lat="43.271183" lon="-8.943309">
        <ele>52.766</ele>
        <time>2019-06-21T13:01:24Z</time>
      </trkpt>
      <trkpt lat="43.271148" lon="-8.943487">
        <ele>51.073</ele>
        <time>2019-06-21T13:01:25Z</time>
      </trkpt>
      <trkpt lat="43.271099" lon="-8.943680">
        <ele>49.029</ele>
        <time>2019-06-21T13:01:26Z</time>
      </trkpt>
      <trkpt lat="43.271033" lon="-8.943870">
        <ele>46.823</ele>
        <time>2019-06-21T13:01:27Z</time>
      </trkpt>
      <trkpt lat="43.270971" lon="-8.944063">
        <ele>45.365</ele>
        <time>2019-06-21T13:01:28Z</time>
      </trkpt>
      <trkpt lat="43.270904" lon="-8.944247">
        <ele>44.417</ele>
        <time>2019-06-21T13:01:29Z</time>
      </trkpt>
      <trkpt lat="43.270846" lon="-8.944435">
        <ele>43.987</ele>
        <time>2019-06-21T13:01:30Z</time>
      </trkpt>
      <trkpt lat="43.270813" lon="-8.944632">
        <ele>43.015</ele>
        <time>2019-06-21T13:01:31Z</time>
      </trkpt>
      <trkpt lat="43.270794" lon="-8.944831">
        <ele>41.608</ele>
        <time>2019-06-21T13:01:32Z</time>
      </trkpt>
      <trkpt lat="43.270774" lon="-8.945046">
        <ele>40.174</ele>
        <time>2019-06-21T13:01:33Z</time>
      </trkpt>
      <trkpt lat="43.270731" lon="-8.945275">
        <ele>39.918</ele>
        <time>2019-06-21T13:01:34Z</time>
      </trkpt>
      <trkpt lat="43.270684" lon="-8.945499">
        <ele>39.160</ele>
        <time>2019-06-21T13:01:35Z</time>
      </trkpt>
      <trkpt lat="43.270631" lon="-8.945725">
        <ele>38.072</ele>
        <time>2019-06-21T13:01:36Z</time>
      </trkpt>
      <trkpt lat="43.270570" lon="-8.945960">
        <ele>36.929</ele>
        <time>2019-06-21T13:01:37Z</time>
      </trkpt>
      <trkpt lat="43.270516" lon="-8.946199">
        <ele>35.375</ele>
        <time>2019-06-21T13:01:38Z</time>
      </trkpt>
      <trkpt lat="43.270470" lon="-8.946450">
        <ele>33.069</ele>
        <time>2019-06-21T13:01:39Z</time>
      </trkpt>
      <trkpt lat="43.270436" lon="-8.946679">
        <ele>30.951</ele>
        <time>2019-06-21T13:01:40Z</time>
      </trkpt>
      <trkpt lat="43.270404" lon="-8.946917">
        <ele>29.663</ele>
        <time>2019-06-21T13:01:41Z</time>
      </trkpt>
      <trkpt lat="43.270365" lon="-8.947154">
        <ele>28.844</ele>
        <time>2019-06-21T13:01:42Z</time>
      </trkpt>
      <trkpt lat="43.270328" lon="-8.947386">
        <ele>27.218</ele>
        <time>2019-06-21T13:01:43Z</time>
      </trkpt>
      <trkpt lat="43.270287" lon="-8.947601">
        <ele>25.708</ele>
        <time>2019-06-21T13:01:44Z</time>
      </trkpt>
      <trkpt lat="43.270239" lon="-8.947823">
        <ele>25.089</ele>
        <time>2019-06-21T13:01:45Z</time>
      </trkpt>
      <trkpt lat="43.270183" lon="-8.948050">
        <ele>24.383</ele>
        <time>2019-06-21T13:01:46Z</time>
      </trkpt>
      <trkpt lat="43.270106" lon="-8.948276">
        <ele>23.835</ele>
        <time>2019-06-21T13:01:47Z</time>
      </trkpt>
      <trkpt lat="43.270001" lon="-8.948487">
        <ele>23.637</ele>
        <time>2019-06-21T13:01:48Z</time>
      </trkpt>
      <trkpt lat="43.269903" lon="-8.948699">
        <ele>24.544</ele>
        <time>2019-06-21T13:01:49Z</time>
      </trkpt>
      <trkpt lat="43.269799" lon="-8.948904">
        <ele>25.470</ele>
        <time>2019-06-21T13:01:50Z</time>
      </trkpt>
      <trkpt lat="43.269672" lon="-8.949123">
        <ele>25.834</ele>
        <time>2019-06-21T13:01:51Z</time>
      </trkpt>
      <trkpt lat="43.269550" lon="-8.949341">
        <ele>27.126</ele>
        <time>2019-06-21T13:01:52Z</time>
      </trkpt>
      <trkpt lat="43.269445" lon="-8.949551">
        <ele>27.456</ele>
        <time>2019-06-21T13:01:53Z</time>
      </trkpt>
      <trkpt lat="43.269347" lon="-8.949746">
        <ele>27.359</ele>
        <time>2019-06-21T13:01:54Z</time>
      </trkpt>
      <trkpt lat="43.269248" lon="-8.949938">
        <ele>26.314</ele>
        <time>2019-06-21T13:01:55Z</time>
      </trkpt>
      <trkpt lat="43.269150" lon="-8.950113">
        <ele>25.008</ele>
        <time>2019-06-21T13:01:56Z</time>
      </trkpt>
      <trkpt lat="43.269044" lon="-8.950283">
        <ele>24.648</ele>
        <time>2019-06-21T13:01:57Z</time>
      </trkpt>
      <trkpt lat="43.268928" lon="-8.950448">
        <ele>23.632</ele>
        <time>2019-06-21T13:01:58Z</time>
      </trkpt>
      <trkpt lat="43.268801" lon="-8.950618">
        <ele>22.974</ele>
        <time>2019-06-21T13:01:59Z</time>
      </trkpt>
      <trkpt lat="43.268656" lon="-8.950798">
        <ele>22.326</ele>
        <time>2019-06-21T13:02:00Z</time>
      </trkpt>
      <trkpt lat="43.268517" lon="-8.950971">
        <ele>22.093</ele>
        <time>2019-06-21T13:02:01Z</time>
      </trkpt>
      <trkpt lat="43.268383" lon="-8.951144">
        <ele>21.749</ele>
        <time>2019-06-21T13:02:02Z</time>
      </trkpt>
      <trkpt lat="43.268248" lon="-8.951307">
        <ele>22.693</ele>
        <time>2019-06-21T13:02:03Z</time>
      </trkpt>
      <trkpt lat="43.268132" lon="-8.951446">
        <ele>23.275</ele>
        <time>2019-06-21T13:02:04Z</time>
      </trkpt>
      <trkpt lat="43.268030" lon="-8.951586">
        <ele>23.942</ele>
        <time>2019-06-21T13:02:05Z</time>
      </trkpt>
      <trkpt lat="43.267943" lon="-8.951714">
        <ele>24.222</ele>
        <time>2019-06-21T13:02:06Z</time>
      </trkpt>
      <trkpt lat="43.267859" lon="-8.951847">
        <ele>23.914</ele>
        <time>2019-06-21T13:02:07Z</time>
      </trkpt>
      <trkpt lat="43.267812" lon="-8.951977">
        <ele>23.508</ele>
        <time>2019-06-21T13:02:08Z</time>
      </trkpt>
      <trkpt lat="43.267751" lon="-8.952113">
        <ele>21.827</ele>
        <time>2019-06-21T13:02:09Z</time>
      </trkpt>
      <trkpt lat="43.267712" lon="-8.952288">
        <ele>21.021</ele>
        <time>2019-06-21T13:02:10Z</time>
      </trkpt>
      <trkpt lat="43.267667" lon="-8.952455">
        <ele>20.973</ele>
        <time>2019-06-21T13:02:11Z</time>
      </trkpt>
      <trkpt lat="43.267609" lon="-8.952655">
        <ele>21.375</ele>
        <time>2019-06-21T13:02:12Z</time>
      </trkpt>
      <trkpt lat="43.267555" lon="-8.952877">
        <ele>23.042</ele>
        <time>2019-06-21T13:02:13Z</time>
      </trkpt>
      <trkpt lat="43.267492" lon="-8.953112">
        <ele>25.118</ele>
        <time>2019-06-21T13:02:14Z</time>
      </trkpt>
      <trkpt lat="43.267428" lon="-8.953343">
        <ele>25.512</ele>
        <time>2019-06-21T13:02:15Z</time>
      </trkpt>
      <trkpt lat="43.267375" lon="-8.953572">
        <ele>26.444</ele>
        <time>2019-06-21T13:02:16Z</time>
      </trkpt>
      <trkpt lat="43.267326" lon="-8.953780">
        <ele>27.198</ele>
        <time>2019-06-21T13:02:17Z</time>
      </trkpt>
      <trkpt lat="43.267274" lon="-8.954002">
        <ele>27.915</ele>
        <time>2019-06-21T13:02:18Z</time>
      </trkpt>
      <trkpt lat="43.267213" lon="-8.954231">
        <ele>28.026</ele>
        <time>2019-06-21T13:02:19Z</time>
      </trkpt>
      <trkpt lat="43.267149" lon="-8.954465">
        <ele>27.508</ele>
        <time>2019-06-21T13:02:20Z</time>
      </trkpt>
      <trkpt lat="43.267088" lon="-8.954695">
        <ele>27.092</ele>
        <time>2019-06-21T13:02:21Z</time>
      </trkpt>
      <trkpt lat="43.267031" lon="-8.954924">
        <ele>26.556</ele>
        <time>2019-06-21T13:02:22Z</time>
      </trkpt>
      <trkpt lat="43.266977" lon="-8.955150">
        <ele>25.258</ele>
        <time>2019-06-21T13:02:23Z</time>
      </trkpt>
      <trkpt lat="43.266919" lon="-8.955369">
        <ele>23.150</ele>
        <time>2019-06-21T13:02:24Z</time>
      </trkpt>
      <trkpt lat="43.266858" lon="-8.955600">
        <ele>21.657</ele>
        <time>2019-06-21T13:02:25Z</time>
      </trkpt>
      <trkpt lat="43.266801" lon="-8.955819">
        <ele>21.013</ele>
        <time>2019-06-21T13:02:26Z</time>
      </trkpt>
      <trkpt lat="43.266742" lon="-8.956044">
        <ele>20.187</ele>
        <time>2019-06-21T13:02:27Z</time>
      </trkpt>
      <trkpt lat="43.266680" lon="-8.956261">
        <ele>19.539</ele>
        <time>2019-06-21T13:02:28Z</time>
      </trkpt>
      <trkpt lat="43.266618" lon="-8.956479">
        <ele>18.471</ele>
        <time>2019-06-21T13:02:29Z</time>
      </trkpt>
      <trkpt lat="43.266564" lon="-8.956687">
        <ele>17.641</ele>
        <time>2019-06-21T13:02:30Z</time>
      </trkpt>
      <trkpt lat="43.266508" lon="-8.956890">
        <ele>17.115</ele>
        <time>2019-06-21T13:02:31Z</time>
      </trkpt>
      <trkpt lat="43.266457" lon="-8.957113">
        <ele>17.308</ele>
        <time>2019-06-21T13:02:32Z</time>
      </trkpt>
      <trkpt lat="43.266400" lon="-8.957317">
        <ele>17.940</ele>
        <time>2019-06-21T13:02:33Z</time>
      </trkpt>
      <trkpt lat="43.266345" lon="-8.957521">
        <ele>18.114</ele>
        <time>2019-06-21T13:02:34Z</time>
      </trkpt>
      <trkpt lat="43.266288" lon="-8.957728">
        <ele>17.516</ele>
        <time>2019-06-21T13:02:35Z</time>
      </trkpt>
      <trkpt lat="43.266234" lon="-8.957932">
        <ele>17.338</ele>
        <time>2019-06-21T13:02:36Z</time>
      </trkpt>
      <trkpt lat="43.266191" lon="-8.958117">
        <ele>16.825</ele>
        <time>2019-06-21T13:02:37Z</time>
      </trkpt>
      <trkpt lat="43.266160" lon="-8.958273">
        <ele>15.491</ele>
        <time>2019-06-21T13:02:38Z</time>
      </trkpt>
      <trkpt lat="43.266143" lon="-8.958412">
        <ele>14.135</ele>
        <time>2019-06-21T13:02:39Z</time>
      </trkpt>
      <trkpt lat="43.266148" lon="-8.958496">
        <ele>13.267</ele>
        <time>2019-06-21T13:02:40Z</time>
      </trkpt>
      <trkpt lat="43.266153" lon="-8.958606">
        <ele>12.131</ele>
        <time>2019-06-21T13:02:41Z</time>
      </trkpt>
      <trkpt lat="43.266221" lon="-8.958655">
        <ele>11.861</ele>
        <time>2019-06-21T13:02:42Z</time>
      </trkpt>
      <trkpt lat="43.266289" lon="-8.958724">
        <ele>11.607</ele>
        <time>2019-06-21T13:02:43Z</time>
      </trkpt>
      <trkpt lat="43.266358" lon="-8.958794">
        <ele>11.308</ele>
        <time>2019-06-21T13:02:44Z</time>
      </trkpt>
      <trkpt lat="43.266417" lon="-8.958875">
        <ele>11.386</ele>
        <time>2019-06-21T13:02:45Z</time>
      </trkpt>
      <trkpt lat="43.266470" lon="-8.958968">
        <ele>12.190</ele>
        <time>2019-06-21T13:02:46Z</time>
      </trkpt>
      <trkpt lat="43.266503" lon="-8.959053">
        <ele>12.662</ele>
        <time>2019-06-21T13:02:47Z</time>
      </trkpt>
      <trkpt lat="43.266537" lon="-8.959131">
        <ele>13.034</ele>
        <time>2019-06-21T13:02:48Z</time>
      </trkpt>
      <trkpt lat="43.266485" lon="-8.959227">
        <ele>12.931</ele>
        <time>2019-06-21T13:02:49Z</time>
      </trkpt>
      <trkpt lat="43.266474" lon="-8.959315">
        <ele>13.177</ele>
        <time>2019-06-21T13:02:50Z</time>
      </trkpt>
      <trkpt lat="43.266472" lon="-8.959395">
        <ele>13.461</ele>
        <time>2019-06-21T13:02:51Z</time>
      </trkpt>
      <trkpt lat="43.266334" lon="-8.959511">
        <ele>13.333</ele>
        <time>2019-06-21T13:02:52Z</time>
      </trkpt>
      <trkpt lat="43.266243" lon="-8.959675">
        <ele>14.166</ele>
        <time>2019-06-21T13:02:53Z</time>
      </trkpt>
      <trkpt lat="43.266154" lon="-8.959781">
        <ele>15.029</ele>
        <time>2019-06-21T13:02:54Z</time>
      </trkpt>
      <trkpt lat="43.266045" lon="-8.959900">
        <ele>16.021</ele>
        <time>2019-06-21T13:02:55Z</time>
      </trkpt>
      <trkpt lat="43.265936" lon="-8.960011">
        <ele>16.308</ele>
        <time>2019-06-21T13:02:56Z</time>
      </trkpt>
      <trkpt lat="43.265854" lon="-8.960125">
        <ele>16.619</ele>
        <time>2019-06-21T13:02:57Z</time>
      </trkpt>
      <trkpt lat="43.265771" lon="-8.960224">
        <ele>16.433</ele>
        <time>2019-06-21T13:02:58Z</time>
      </trkpt>
      <trkpt lat="43.265668" lon="-8.960318">
        <ele>15.765</ele>
        <time>2019-06-21T13:02:59Z</time>
      </trkpt>
      <trkpt lat="43.265577" lon="-8.960404">
        <ele>15.617</ele>
        <time>2019-06-21T13:03:00Z</time>
      </trkpt>
      <trkpt lat="43.265495" lon="-8.960521">
        <ele>17.254</ele>
        <time>2019-06-21T13:03:01Z</time>
      </trkpt>
      <trkpt lat="43.265433" lon="-8.960641">
        <ele>19.060</ele>
        <time>2019-06-21T13:03:02Z</time>
      </trkpt>
      <trkpt lat="43.265368" lon="-8.960744">
        <ele>20.044</ele>
        <time>2019-06-21T13:03:03Z</time>
      </trkpt>
      <trkpt lat="43.265291" lon="-8.960856">
        <ele>20.486</ele>
        <time>2019-06-21T13:03:04Z</time>
      </trkpt>
      <trkpt lat="43.265209" lon="-8.960940">
        <ele>19.533</ele>
        <time>2019-06-21T13:03:05Z</time>
      </trkpt>
      <trkpt lat="43.265132" lon="-8.961039">
        <ele>18.023</ele>
        <time>2019-06-21T13:03:06Z</time>
      </trkpt>
      <trkpt lat="43.265123" lon="-8.961142">
        <ele>18.115</ele>
        <time>2019-06-21T13:03:07Z</time>
      </trkpt>
      <trkpt lat="43.265057" lon="-8.961320">
        <ele>17.008</ele>
        <time>2019-06-21T13:03:08Z</time>
      </trkpt>
      <trkpt lat="43.265065" lon="-8.961483">
        <ele>18.586</ele>
        <time>2019-06-21T13:03:09Z</time>
      </trkpt>
      <trkpt lat="43.265061" lon="-8.961630">
        <ele>19.840</ele>
        <time>2019-06-21T13:03:10Z</time>
      </trkpt>
      <trkpt lat="43.265042" lon="-8.961748">
        <ele>20.342</ele>
        <time>2019-06-21T13:03:11Z</time>
      </trkpt>
      <trkpt lat="43.265022" lon="-8.961884">
        <ele>20.974</ele>
        <time>2019-06-21T13:03:12Z</time>
      </trkpt>
      <trkpt lat="43.265025" lon="-8.961974">
        <ele>21.571</ele>
        <time>2019-06-21T13:03:13Z</time>
      </trkpt>
      <trkpt lat="43.265026" lon="-8.962078">
        <ele>21.887</ele>
        <time>2019-06-21T13:03:14Z</time>
      </trkpt>
      <trkpt lat="43.265037" lon="-8.962168">
        <ele>22.241</ele>
        <time>2019-06-21T13:03:15Z</time>
      </trkpt>
      <trkpt lat="43.265017" lon="-8.962272">
        <ele>22.243</ele>
        <time>2019-06-21T13:03:16Z</time>
      </trkpt>
      <trkpt lat="43.265004" lon="-8.962383">
        <ele>22.047</ele>
        <time>2019-06-21T13:03:17Z</time>
      </trkpt>
      <trkpt lat="43.264994" lon="-8.962480">
        <ele>21.929</ele>
        <time>2019-06-21T13:03:18Z</time>
      </trkpt>
      <trkpt lat="43.264988" lon="-8.962577">
        <ele>21.821</ele>
        <time>2019-06-21T13:03:19Z</time>
      </trkpt>
      <trkpt lat="43.264980" lon="-8.962671">
        <ele>21.708</ele>
        <time>2019-06-21T13:03:20Z</time>
      </trkpt>
      <trkpt lat="43.264960" lon="-8.962760">
        <ele>21.487</ele>
        <time>2019-06-21T13:03:22Z</time>
      </trkpt>
      <trkpt lat="43.264930" lon="-8.962836">
        <ele>20.611</ele>
        <time>2019-06-21T13:03:24Z</time>
      </trkpt>
      <trkpt lat="43.264886" lon="-8.962865">
        <ele>19.793</ele>
        <time>2019-06-21T13:03:25Z</time>
      </trkpt>
      <trkpt lat="43.264780" lon="-8.962829">
        <ele>18.525</ele>
        <time>2019-06-21T13:03:27Z</time>
      </trkpt>
      <trkpt lat="43.264715" lon="-8.962806">
        <ele>17.772</ele>
        <time>2019-06-21T13:03:28Z</time>
      </trkpt>
      <trkpt lat="43.264639" lon="-8.962773">
        <ele>16.518</ele>
        <time>2019-06-21T13:03:29Z</time>
      </trkpt>
      <trkpt lat="43.264572" lon="-8.962731">
        <ele>15.172</ele>
        <time>2019-06-21T13:03:30Z</time>
      </trkpt>
      <trkpt lat="43.264505" lon="-8.962693">
        <ele>13.874</ele>
        <time>2019-06-21T13:03:31Z</time>
      </trkpt>
      <trkpt lat="43.264438" lon="-8.962658">
        <ele>12.528</ele>
        <time>2019-06-21T13:03:32Z</time>
      </trkpt>
      <trkpt lat="43.264365" lon="-8.962633">
        <ele>11.589</ele>
        <time>2019-06-21T13:03:33Z</time>
      </trkpt>
      <trkpt lat="43.264289" lon="-8.962626">
        <ele>10.517</ele>
        <time>2019-06-21T13:03:34Z</time>
      </trkpt>
      <trkpt lat="43.264218" lon="-8.962637">
        <ele>9.608</ele>
        <time>2019-06-21T13:03:35Z</time>
      </trkpt>
      <trkpt lat="43.264147" lon="-8.962660">
        <ele>8.875</ele>
        <time>2019-06-21T13:03:36Z</time>
      </trkpt>
      <trkpt lat="43.264071" lon="-8.962701">
        <ele>8.049</ele>
        <time>2019-06-21T13:03:37Z</time>
      </trkpt>
      <trkpt lat="43.264012" lon="-8.962742">
        <ele>7.391</ele>
        <time>2019-06-21T13:03:38Z</time>
      </trkpt>
      <trkpt lat="43.263950" lon="-8.962797">
        <ele>6.713</ele>
        <time>2019-06-21T13:03:39Z</time>
      </trkpt>
      <trkpt lat="43.263899" lon="-8.962852">
        <ele>6.420</ele>
        <time>2019-06-21T13:03:40Z</time>
      </trkpt>
      <trkpt lat="43.263892" lon="-8.962953">
        <ele>6.716</ele>
        <time>2019-06-21T13:03:41Z</time>
      </trkpt>
      <trkpt lat="43.263877" lon="-8.963050">
        <ele>6.930</ele>
        <time>2019-06-21T13:03:42Z</time>
      </trkpt>
      <trkpt lat="43.263854" lon="-8.963170">
        <ele>6.442</ele>
        <time>2019-06-21T13:03:43Z</time>
      </trkpt>
      <trkpt lat="43.263838" lon="-8.963304">
        <ele>6.163</ele>
        <time>2019-06-21T13:03:44Z</time>
      </trkpt>
      <trkpt lat="43.263813" lon="-8.963436">
        <ele>5.844</ele>
        <time>2019-06-21T13:03:45Z</time>
      </trkpt>
      <trkpt lat="43.263818" lon="-8.963580">
        <ele>5.518</ele>
        <time>2019-06-21T13:03:46Z</time>
      </trkpt>
      <trkpt lat="43.263813" lon="-8.963699">
        <ele>5.508</ele>
        <time>2019-06-21T13:03:47Z</time>
      </trkpt>
      <trkpt lat="43.263798" lon="-8.963820">
        <ele>5.399</ele>
        <time>2019-06-21T13:03:48Z</time>
      </trkpt>
      <trkpt lat="43.263797" lon="-8.963938">
        <ele>5.583</ele>
        <time>2019-06-21T13:03:49Z</time>
      </trkpt>
      <trkpt lat="43.263796" lon="-8.964049">
        <ele>5.765</ele>
        <time>2019-06-21T13:03:50Z</time>
      </trkpt>
      <trkpt lat="43.263802" lon="-8.964158">
        <ele>6.087</ele>
        <time>2019-06-21T13:03:51Z</time>
      </trkpt>
      <trkpt lat="43.263816" lon="-8.964242">
        <ele>6.574</ele>
        <time>2019-06-21T13:03:52Z</time>
      </trkpt>
      <trkpt lat="43.263846" lon="-8.964323">
        <ele>7.040</ele>
        <time>2019-06-21T13:03:53Z</time>
      </trkpt>
      <trkpt lat="43.263881" lon="-8.964394">
        <ele>7.644</ele>
        <time>2019-06-21T13:03:54Z</time>
      </trkpt>
      <trkpt lat="43.263947" lon="-8.964445">
        <ele>8.056</ele>
        <time>2019-06-21T13:03:55Z</time>
      </trkpt>
      <trkpt lat="43.264011" lon="-8.964488">
        <ele>8.263</ele>
        <time>2019-06-21T13:03:56Z</time>
      </trkpt>
      <trkpt lat="43.264076" lon="-8.964517">
        <ele>8.344</ele>
        <time>2019-06-21T13:03:57Z</time>
      </trkpt>
      <trkpt lat="43.264145" lon="-8.964527">
        <ele>8.318</ele>
        <time>2019-06-21T13:03:58Z</time>
      </trkpt>
      <trkpt lat="43.264211" lon="-8.964541">
        <ele>8.808</ele>
        <time>2019-06-21T13:03:59Z</time>
      </trkpt>
      <trkpt lat="43.264267" lon="-8.964562">
        <ele>9.539</ele>
        <time>2019-06-21T13:04:00Z</time>
      </trkpt>
      <trkpt lat="43.264334" lon="-8.964562">
        <ele>10.293</ele>
        <time>2019-06-21T13:04:01Z</time>
      </trkpt>
      <trkpt lat="43.264375" lon="-8.964590">
        <ele>10.845</ele>
        <time>2019-06-21T13:04:02Z</time>
      </trkpt>
      <trkpt lat="43.264428" lon="-8.964674">
        <ele>11.617</ele>
        <time>2019-06-21T13:04:04Z</time>
      </trkpt>
      <trkpt lat="43.264435" lon="-8.964745">
        <ele>12.174</ele>
        <time>2019-06-21T13:04:05Z</time>
      </trkpt>
      <trkpt lat="43.264431" lon="-8.964825">
        <ele>12.620</ele>
        <time>2019-06-21T13:04:06Z</time>
      </trkpt>
      <trkpt lat="43.264423" lon="-8.964900">
        <ele>12.994</ele>
        <time>2019-06-21T13:04:07Z</time>
      </trkpt>
      <trkpt lat="43.264405" lon="-8.964977">
        <ele>13.126</ele>
        <time>2019-06-21T13:04:08Z</time>
      </trkpt>
      <trkpt lat="43.264385" lon="-8.965059">
        <ele>13.244</ele>
        <time>2019-06-21T13:04:09Z</time>
      </trkpt>
      <trkpt lat="43.264365" lon="-8.965136">
        <ele>13.305</ele>
        <time>2019-06-21T13:04:10Z</time>
      </trkpt>
      <trkpt lat="43.264307" lon="-8.965186">
        <ele>12.915</ele>
        <time>2019-06-21T13:04:11Z</time>
      </trkpt>
      <trkpt lat="43.264268" lon="-8.965242">
        <ele>12.808</ele>
        <time>2019-06-21T13:04:12Z</time>
      </trkpt>
      <trkpt lat="43.264164" lon="-8.965211">
        <ele>11.357</ele>
        <time>2019-06-21T13:04:13Z</time>
      </trkpt>
      <trkpt lat="43.264090" lon="-8.965191">
        <ele>11.021</ele>
        <time>2019-06-21T13:04:14Z</time>
      </trkpt>
      <trkpt lat="43.264009" lon="-8.965179">
        <ele>10.833</ele>
        <time>2019-06-21T13:04:15Z</time>
      </trkpt>
      <trkpt lat="43.263920" lon="-8.965154">
        <ele>10.665</ele>
        <time>2019-06-21T13:04:16Z</time>
      </trkpt>
      <trkpt lat="43.263854" lon="-8.965143">
        <ele>10.382</ele>
        <time>2019-06-21T13:04:17Z</time>
      </trkpt>
      <trkpt lat="43.263784" lon="-8.965153">
        <ele>9.878</ele>
        <time>2019-06-21T13:04:18Z</time>
      </trkpt>
      <trkpt lat="43.263722" lon="-8.965166">
        <ele>9.592</ele>
        <time>2019-06-21T13:04:19Z</time>
      </trkpt>
      <trkpt lat="43.263667" lon="-8.965211">
        <ele>9.624</ele>
        <time>2019-06-21T13:04:20Z</time>
      </trkpt>
      <trkpt lat="43.263609" lon="-8.965269">
        <ele>9.958</ele>
        <time>2019-06-21T13:04:21Z</time>
      </trkpt>
      <trkpt lat="43.263547" lon="-8.965342">
        <ele>10.852</ele>
        <time>2019-06-21T13:04:22Z</time>
      </trkpt>
      <trkpt lat="43.263465" lon="-8.965419">
        <ele>11.517</ele>
        <time>2019-06-21T13:04:23Z</time>
      </trkpt>
      <trkpt lat="43.263377" lon="-8.965496">
        <ele>11.708</ele>
        <time>2019-06-21T13:04:24Z</time>
      </trkpt>
      <trkpt lat="43.263284" lon="-8.965572">
        <ele>11.978</ele>
        <time>2019-06-21T13:04:25Z</time>
      </trkpt>
      <trkpt lat="43.263185" lon="-8.965654">
        <ele>12.962</ele>
        <time>2019-06-21T13:04:26Z</time>
      </trkpt>
      <trkpt lat="43.263087" lon="-8.965760">
        <ele>13.974</ele>
        <time>2019-06-21T13:04:27Z</time>
      </trkpt>
      <trkpt lat="43.262987" lon="-8.965850">
        <ele>13.816</ele>
        <time>2019-06-21T13:04:28Z</time>
      </trkpt>
      <trkpt lat="43.262887" lon="-8.965925">
        <ele>12.823</ele>
        <time>2019-06-21T13:04:29Z</time>
      </trkpt>
      <trkpt lat="43.262791" lon="-8.966003">
        <ele>11.879</ele>
        <time>2019-06-21T13:04:30Z</time>
      </trkpt>
      <trkpt lat="43.262710" lon="-8.966085">
        <ele>10.773</ele>
        <time>2019-06-21T13:04:31Z</time>
      </trkpt>
      <trkpt lat="43.262637" lon="-8.966173">
        <ele>9.415</ele>
        <time>2019-06-21T13:04:32Z</time>
      </trkpt>
      <trkpt lat="43.262601" lon="-8.966270">
        <ele>9.165</ele>
        <time>2019-06-21T13:04:33Z</time>
      </trkpt>
      <trkpt lat="43.262566" lon="-8.966388">
        <ele>8.968</ele>
        <time>2019-06-21T13:04:34Z</time>
      </trkpt>
      <trkpt lat="43.262559" lon="-8.966518">
        <ele>10.014</ele>
        <time>2019-06-21T13:04:35Z</time>
      </trkpt>
      <trkpt lat="43.262578" lon="-8.966650">
        <ele>11.808</ele>
        <time>2019-06-21T13:04:36Z</time>
      </trkpt>
      <trkpt lat="43.262600" lon="-8.966801">
        <ele>13.049</ele>
        <time>2019-06-21T13:04:37Z</time>
      </trkpt>
      <trkpt lat="43.262652" lon="-8.966957">
        <ele>14.863</ele>
        <time>2019-06-21T13:04:38Z</time>
      </trkpt>
      <trkpt lat="43.262702" lon="-8.967123">
        <ele>15.015</ele>
        <time>2019-06-21T13:04:39Z</time>
      </trkpt>
      <trkpt lat="43.262753" lon="-8.967282">
        <ele>15.137</ele>
        <time>2019-06-21T13:04:40Z</time>
      </trkpt>
      <trkpt lat="43.262802" lon="-8.967427">
        <ele>15.424</ele>
        <time>2019-06-21T13:04:41Z</time>
      </trkpt>
      <trkpt lat="43.262839" lon="-8.967562">
        <ele>15.840</ele>
        <time>2019-06-21T13:04:42Z</time>
      </trkpt>
      <trkpt lat="43.262872" lon="-8.967692">
        <ele>16.274</ele>
        <time>2019-06-21T13:04:43Z</time>
      </trkpt>
      <trkpt lat="43.262904" lon="-8.967813">
        <ele>17.216</ele>
        <time>2019-06-21T13:04:44Z</time>
      </trkpt>
      <trkpt lat="43.262908" lon="-8.967942">
        <ele>18.074</ele>
        <time>2019-06-21T13:04:45Z</time>
      </trkpt>
      <trkpt lat="43.262913" lon="-8.968067">
        <ele>19.056</ele>
        <time>2019-06-21T13:04:46Z</time>
      </trkpt>
      <trkpt lat="43.262903" lon="-8.968190">
        <ele>19.921</ele>
        <time>2019-06-21T13:04:47Z</time>
      </trkpt>
      <trkpt lat="43.262867" lon="-8.968292">
        <ele>19.408</ele>
        <time>2019-06-21T13:04:48Z</time>
      </trkpt>
      <trkpt lat="43.262796" lon="-8.968417">
        <ele>16.810</ele>
        <time>2019-06-21T13:04:49Z</time>
      </trkpt>
      <trkpt lat="43.262695" lon="-8.968529">
        <ele>13.834</ele>
        <time>2019-06-21T13:04:50Z</time>
      </trkpt>
      <trkpt lat="43.262627" lon="-8.968646">
        <ele>12.316</ele>
        <time>2019-06-21T13:04:51Z</time>
      </trkpt>
      <trkpt lat="43.262572" lon="-8.968767">
        <ele>11.078</ele>
        <time>2019-06-21T13:04:52Z</time>
      </trkpt>
      <trkpt lat="43.262528" lon="-8.968886">
        <ele>9.885</ele>
        <time>2019-06-21T13:04:53Z</time>
      </trkpt>
      <trkpt lat="43.262516" lon="-8.969022">
        <ele>9.921</ele>
        <time>2019-06-21T13:04:54Z</time>
      </trkpt>
      <trkpt lat="43.262527" lon="-8.969163">
        <ele>10.785</ele>
        <time>2019-06-21T13:04:55Z</time>
      </trkpt>
      <trkpt lat="43.262546" lon="-8.969302">
        <ele>11.677</ele>
        <time>2019-06-21T13:04:56Z</time>
      </trkpt>
      <trkpt lat="43.262568" lon="-8.969463">
        <ele>12.577</ele>
        <time>2019-06-21T13:04:57Z</time>
      </trkpt>
      <trkpt lat="43.262601" lon="-8.969622">
        <ele>12.961</ele>
        <time>2019-06-21T13:04:58Z</time>
      </trkpt>
      <trkpt lat="43.262660" lon="-8.969794">
        <ele>13.227</ele>
        <time>2019-06-21T13:04:59Z</time>
      </trkpt>
      <trkpt lat="43.262731" lon="-8.969972">
        <ele>12.608</ele>
        <time>2019-06-21T13:05:00Z</time>
      </trkpt>
      <trkpt lat="43.262796" lon="-8.970127">
        <ele>12.090</ele>
        <time>2019-06-21T13:05:01Z</time>
      </trkpt>
      <trkpt lat="43.262870" lon="-8.970285">
        <ele>11.614</ele>
        <time>2019-06-21T13:05:02Z</time>
      </trkpt>
      <trkpt lat="43.262930" lon="-8.970437">
        <ele>11.036</ele>
        <time>2019-06-21T13:05:03Z</time>
      </trkpt>
      <trkpt lat="43.263007" lon="-8.970562">
        <ele>10.478</ele>
        <time>2019-06-21T13:05:04Z</time>
      </trkpt>
      <trkpt lat="43.263094" lon="-8.970668">
        <ele>10.135</ele>
        <time>2019-06-21T13:05:05Z</time>
      </trkpt>
      <trkpt lat="43.263213" lon="-8.970785">
        <ele>9.371</ele>
        <time>2019-06-21T13:05:06Z</time>
      </trkpt>
      <trkpt lat="43.263349" lon="-8.970907">
        <ele>8.545</ele>
        <time>2019-06-21T13:05:07Z</time>
      </trkpt>
      <trkpt lat="43.263487" lon="-8.971029">
        <ele>8.177</ele>
        <time>2019-06-21T13:05:08Z</time>
      </trkpt>
      <trkpt lat="43.263625" lon="-8.971155">
        <ele>8.258</ele>
        <time>2019-06-21T13:05:09Z</time>
      </trkpt>
      <trkpt lat="43.263761" lon="-8.971261">
        <ele>10.252</ele>
        <time>2019-06-21T13:05:10Z</time>
      </trkpt>
      <trkpt lat="43.263900" lon="-8.971336">
        <ele>12.817</ele>
        <time>2019-06-21T13:05:11Z</time>
      </trkpt>
      <trkpt lat="43.264019" lon="-8.971381">
        <ele>14.808</ele>
        <time>2019-06-21T13:05:12Z</time>
      </trkpt>
      <trkpt lat="43.264123" lon="-8.971438">
        <ele>16.748</ele>
        <time>2019-06-21T13:05:13Z</time>
      </trkpt>
      <trkpt lat="43.264208" lon="-8.971512">
        <ele>18.592</ele>
        <time>2019-06-21T13:05:14Z</time>
      </trkpt>
      <trkpt lat="43.264275" lon="-8.971607">
        <ele>20.124</ele>
        <time>2019-06-21T13:05:15Z</time>
      </trkpt>
      <trkpt lat="43.264321" lon="-8.971719">
        <ele>21.356</ele>
        <time>2019-06-21T13:05:16Z</time>
      </trkpt>
      <trkpt lat="43.264342" lon="-8.971848">
        <ele>21.823</ele>
        <time>2019-06-21T13:05:17Z</time>
      </trkpt>
      <trkpt lat="43.264358" lon="-8.972005">
        <ele>22.359</ele>
        <time>2019-06-21T13:05:18Z</time>
      </trkpt>
      <trkpt lat="43.264373" lon="-8.972182">
        <ele>23.143</ele>
        <time>2019-06-21T13:05:19Z</time>
      </trkpt>
      <trkpt lat="43.264382" lon="-8.972353">
        <ele>22.935</ele>
        <time>2019-06-21T13:05:20Z</time>
      </trkpt>
      <trkpt lat="43.264390" lon="-8.972528">
        <ele>22.432</ele>
        <time>2019-06-21T13:05:21Z</time>
      </trkpt>
      <trkpt lat="43.264387" lon="-8.972702">
        <ele>22.492</ele>
        <time>2019-06-21T13:05:22Z</time>
      </trkpt>
      <trkpt lat="43.264371" lon="-8.972877">
        <ele>22.111</ele>
        <time>2019-06-21T13:05:23Z</time>
      </trkpt>
      <trkpt lat="43.264353" lon="-8.973044">
        <ele>21.708</ele>
        <time>2019-06-21T13:05:24Z</time>
      </trkpt>
      <trkpt lat="43.264321" lon="-8.973258">
        <ele>20.516</ele>
        <time>2019-06-21T13:05:25Z</time>
      </trkpt>
      <trkpt lat="43.264276" lon="-8.973484">
        <ele>18.710</ele>
        <time>2019-06-21T13:05:26Z</time>
      </trkpt>
      <trkpt lat="43.264233" lon="-8.973710">
        <ele>17.632</ele>
        <time>2019-06-21T13:05:27Z</time>
      </trkpt>
      <trkpt lat="43.264191" lon="-8.973939">
        <ele>17.814</ele>
        <time>2019-06-21T13:05:28Z</time>
      </trkpt>
      <trkpt lat="43.264120" lon="-8.974145">
        <ele>17.941</ele>
        <time>2019-06-21T13:05:29Z</time>
      </trkpt>
      <trkpt lat="43.264058" lon="-8.974346">
        <ele>18.327</ele>
        <time>2019-06-21T13:05:30Z</time>
      </trkpt>
      <trkpt lat="43.263981" lon="-8.974535">
        <ele>18.261</ele>
        <time>2019-06-21T13:05:31Z</time>
      </trkpt>
      <trkpt lat="43.263887" lon="-8.974686">
        <ele>16.753</ele>
        <time>2019-06-21T13:05:32Z</time>
      </trkpt>
      <trkpt lat="43.263796" lon="-8.974862">
        <ele>17.093</ele>
        <time>2019-06-21T13:05:33Z</time>
      </trkpt>
      <trkpt lat="43.263710" lon="-8.975032">
        <ele>17.665</ele>
        <time>2019-06-21T13:05:34Z</time>
      </trkpt>
      <trkpt lat="43.263637" lon="-8.975191">
        <ele>18.321</ele>
        <time>2019-06-21T13:05:35Z</time>
      </trkpt>
      <trkpt lat="43.263588" lon="-8.975339">
        <ele>18.808</ele>
        <time>2019-06-21T13:05:36Z</time>
      </trkpt>
      <trkpt lat="43.263561" lon="-8.975464">
        <ele>18.962</ele>
        <time>2019-06-21T13:05:37Z</time>
      </trkpt>
      <trkpt lat="43.263562" lon="-8.975575">
        <ele>19.326</ele>
        <time>2019-06-21T13:05:38Z</time>
      </trkpt>
      <trkpt lat="43.263593" lon="-8.975675">
        <ele>19.738</ele>
        <time>2019-06-21T13:05:39Z</time>
      </trkpt>
      <trkpt lat="43.263636" lon="-8.975781">
        <ele>20.410</ele>
        <time>2019-06-21T13:05:40Z</time>
      </trkpt>
      <trkpt lat="43.263709" lon="-8.975896">
        <ele>21.077</ele>
        <time>2019-06-21T13:05:41Z</time>
      </trkpt>
      <trkpt lat="43.263787" lon="-8.976002">
        <ele>21.353</ele>
        <time>2019-06-21T13:05:42Z</time>
      </trkpt>
      <trkpt lat="43.263878" lon="-8.976151">
        <ele>21.327</ele>
        <time>2019-06-21T13:05:43Z</time>
      </trkpt>
      <trkpt lat="43.263952" lon="-8.976309">
        <ele>20.219</ele>
        <time>2019-06-21T13:05:44Z</time>
      </trkpt>
      <trkpt lat="43.264025" lon="-8.976487">
        <ele>19.264</ele>
        <time>2019-06-21T13:05:45Z</time>
      </trkpt>
      <trkpt lat="43.264102" lon="-8.976680">
        <ele>18.406</ele>
        <time>2019-06-21T13:05:46Z</time>
      </trkpt>
      <trkpt lat="43.264168" lon="-8.976878">
        <ele>17.716</ele>
        <time>2019-06-21T13:05:47Z</time>
      </trkpt>
      <trkpt lat="43.264217" lon="-8.977080">
        <ele>16.608</ele>
        <time>2019-06-21T13:05:48Z</time>
      </trkpt>
      <trkpt lat="43.264261" lon="-8.977273">
        <ele>15.719</ele>
        <time>2019-06-21T13:05:49Z</time>
      </trkpt>
      <trkpt lat="43.264290" lon="-8.977460">
        <ele>15.053</ele>
        <time>2019-06-21T13:05:50Z</time>
      </trkpt>
      <trkpt lat="43.264314" lon="-8.977631">
        <ele>13.835</ele>
        <time>2019-06-21T13:05:51Z</time>
      </trkpt>
      <trkpt lat="43.264336" lon="-8.977804">
        <ele>12.587</ele>
        <time>2019-06-21T13:05:52Z</time>
      </trkpt>
      <trkpt lat="43.264355" lon="-8.977965">
        <ele>12.244</ele>
        <time>2019-06-21T13:05:53Z</time>
      </trkpt>
      <trkpt lat="43.264375" lon="-8.978096">
        <ele>12.120</ele>
        <time>2019-06-21T13:05:54Z</time>
      </trkpt>
      <trkpt lat="43.264402" lon="-8.978215">
        <ele>12.424</ele>
        <time>2019-06-21T13:05:55Z</time>
      </trkpt>
      <trkpt lat="43.264445" lon="-8.978327">
        <ele>13.036</ele>
        <time>2019-06-21T13:05:56Z</time>
      </trkpt>
      <trkpt lat="43.264511" lon="-8.978400">
        <ele>11.979</ele>
        <time>2019-06-21T13:05:57Z</time>
      </trkpt>
      <trkpt lat="43.264567" lon="-8.978470">
        <ele>10.805</ele>
        <time>2019-06-21T13:05:58Z</time>
      </trkpt>
      <trkpt lat="43.264666" lon="-8.978482">
        <ele>10.525</ele>
        <time>2019-06-21T13:05:59Z</time>
      </trkpt>
      <trkpt lat="43.264763" lon="-8.978476">
        <ele>10.308</ele>
        <time>2019-06-21T13:06:00Z</time>
      </trkpt>
      <trkpt lat="43.264866" lon="-8.978434">
        <ele>10.540</ele>
        <time>2019-06-21T13:06:01Z</time>
      </trkpt>
      <trkpt lat="43.264973" lon="-8.978364">
        <ele>11.594</ele>
        <time>2019-06-21T13:06:02Z</time>
      </trkpt>
      <trkpt lat="43.265066" lon="-8.978276">
        <ele>12.376</ele>
        <time>2019-06-21T13:06:03Z</time>
      </trkpt>
      <trkpt lat="43.265145" lon="-8.978164">
        <ele>13.568</ele>
        <time>2019-06-21T13:06:04Z</time>
      </trkpt>
      <trkpt lat="43.265238" lon="-8.978101">
        <ele>13.695</ele>
        <time>2019-06-21T13:06:05Z</time>
      </trkpt>
      <trkpt lat="43.265324" lon="-8.978039">
        <ele>14.481</ele>
        <time>2019-06-21T13:06:06Z</time>
      </trkpt>
      <trkpt lat="43.265400" lon="-8.977987">
        <ele>15.695</ele>
        <time>2019-06-21T13:06:07Z</time>
      </trkpt>
      <trkpt lat="43.265467" lon="-8.977988">
        <ele>15.587</ele>
        <time>2019-06-21T13:06:08Z</time>
      </trkpt>
      <trkpt lat="43.265526" lon="-8.978005">
        <ele>15.138</ele>
        <time>2019-06-21T13:06:09Z</time>
      </trkpt>
      <trkpt lat="43.265571" lon="-8.978063">
        <ele>14.470</ele>
        <time>2019-06-21T13:06:10Z</time>
      </trkpt>
      <trkpt lat="43.265612" lon="-8.978157">
        <ele>14.717</ele>
        <time>2019-06-21T13:06:11Z</time>
      </trkpt>
      <trkpt lat="43.265647" lon="-8.978265">
        <ele>14.708</ele>
        <time>2019-06-21T13:06:12Z</time>
      </trkpt>
      <trkpt lat="43.265692" lon="-8.978398">
        <ele>15.196</ele>
        <time>2019-06-21T13:06:13Z</time>
      </trkpt>
      <trkpt lat="43.265736" lon="-8.978530">
        <ele>15.730</ele>
        <time>2019-06-21T13:06:14Z</time>
      </trkpt>
      <trkpt lat="43.265784" lon="-8.978670">
        <ele>16.422</ele>
        <time>2019-06-21T13:06:15Z</time>
      </trkpt>
      <trkpt lat="43.265837" lon="-8.978806">
        <ele>17.454</ele>
        <time>2019-06-21T13:06:16Z</time>
      </trkpt>
      <trkpt lat="43.265904" lon="-8.978925">
        <ele>18.711</ele>
        <time>2019-06-21T13:06:17Z</time>
      </trkpt>
      <trkpt lat="43.265978" lon="-8.979036">
        <ele>20.167</ele>
        <time>2019-06-21T13:06:18Z</time>
      </trkpt>
      <trkpt lat="43.266081" lon="-8.979139">
        <ele>21.621</ele>
        <time>2019-06-21T13:06:19Z</time>
      </trkpt>
      <trkpt lat="43.266191" lon="-8.979242">
        <ele>22.063</ele>
        <time>2019-06-21T13:06:20Z</time>
      </trkpt>
      <trkpt lat="43.266304" lon="-8.979351">
        <ele>21.617</ele>
        <time>2019-06-21T13:06:21Z</time>
      </trkpt>
      <trkpt lat="43.266436" lon="-8.979456">
        <ele>21.487</ele>
        <time>2019-06-21T13:06:22Z</time>
      </trkpt>
      <trkpt lat="43.266572" lon="-8.979563">
        <ele>21.415</ele>
        <time>2019-06-21T13:06:23Z</time>
      </trkpt>
      <trkpt lat="43.266709" lon="-8.979662">
        <ele>21.508</ele>
        <time>2019-06-21T13:06:24Z</time>
      </trkpt>
      <trkpt lat="43.266855" lon="-8.979746">
        <ele>22.514</ele>
        <time>2019-06-21T13:06:25Z</time>
      </trkpt>
      <trkpt lat="43.267011" lon="-8.979790">
        <ele>23.748</ele>
        <time>2019-06-21T13:06:26Z</time>
      </trkpt>
      <trkpt lat="43.267165" lon="-8.979844">
        <ele>23.940</ele>
        <time>2019-06-21T13:06:27Z</time>
      </trkpt>
      <trkpt lat="43.267331" lon="-8.979877">
        <ele>24.622</ele>
        <time>2019-06-21T13:06:28Z</time>
      </trkpt>
      <trkpt lat="43.267510" lon="-8.979938">
        <ele>25.049</ele>
        <time>2019-06-21T13:06:29Z</time>
      </trkpt>
      <trkpt lat="43.267687" lon="-8.980027">
        <ele>25.245</ele>
        <time>2019-06-21T13:06:30Z</time>
      </trkpt>
      <trkpt lat="43.267867" lon="-8.980130">
        <ele>25.639</ele>
        <time>2019-06-21T13:06:31Z</time>
      </trkpt>
      <trkpt lat="43.268036" lon="-8.980268">
        <ele>25.051</ele>
        <time>2019-06-21T13:06:32Z</time>
      </trkpt>
      <trkpt lat="43.268202" lon="-8.980402">
        <ele>24.769</ele>
        <time>2019-06-21T13:06:33Z</time>
      </trkpt>
      <trkpt lat="43.268384" lon="-8.980532">
        <ele>24.504</ele>
        <time>2019-06-21T13:06:34Z</time>
      </trkpt>
      <trkpt lat="43.268556" lon="-8.980655">
        <ele>24.024</ele>
        <time>2019-06-21T13:06:35Z</time>
      </trkpt>
      <trkpt lat="43.268728" lon="-8.980778">
        <ele>23.908</ele>
        <time>2019-06-21T13:06:36Z</time>
      </trkpt>
      <trkpt lat="43.268905" lon="-8.980893">
        <ele>23.619</ele>
        <time>2019-06-21T13:06:37Z</time>
      </trkpt>
      <trkpt lat="43.269074" lon="-8.981012">
        <ele>23.433</ele>
        <time>2019-06-21T13:06:38Z</time>
      </trkpt>
      <trkpt lat="43.269224" lon="-8.981120">
        <ele>23.545</ele>
        <time>2019-06-21T13:06:39Z</time>
      </trkpt>
      <trkpt lat="43.269364" lon="-8.981212">
        <ele>24.127</ele>
        <time>2019-06-21T13:06:40Z</time>
      </trkpt>
      <trkpt lat="43.269508" lon="-8.981304">
        <ele>24.174</ele>
        <time>2019-06-21T13:06:41Z</time>
      </trkpt>
      <trkpt lat="43.269643" lon="-8.981404">
        <ele>23.580</ele>
        <time>2019-06-21T13:06:42Z</time>
      </trkpt>
      <trkpt lat="43.269776" lon="-8.981503">
        <ele>22.484</ele>
        <time>2019-06-21T13:06:43Z</time>
      </trkpt>
      <trkpt lat="43.269926" lon="-8.981611">
        <ele>21.486</ele>
        <time>2019-06-21T13:06:44Z</time>
      </trkpt>
      <trkpt lat="43.270086" lon="-8.981716">
        <ele>20.421</ele>
        <time>2019-06-21T13:06:45Z</time>
      </trkpt>
      <trkpt lat="43.270257" lon="-8.981813">
        <ele>19.941</ele>
        <time>2019-06-21T13:06:46Z</time>
      </trkpt>
      <trkpt lat="43.270431" lon="-8.981912">
        <ele>20.305</ele>
        <time>2019-06-21T13:06:47Z</time>
      </trkpt>
      <trkpt lat="43.270587" lon="-8.982031">
        <ele>20.608</ele>
        <time>2019-06-21T13:06:48Z</time>
      </trkpt>
      <trkpt lat="43.270752" lon="-8.982176">
        <ele>20.755</ele>
        <time>2019-06-21T13:06:49Z</time>
      </trkpt>
      <trkpt lat="43.270903" lon="-8.982337">
        <ele>20.569</ele>
        <time>2019-06-21T13:06:50Z</time>
      </trkpt>
      <trkpt lat="43.271061" lon="-8.982504">
        <ele>20.421</ele>
        <time>2019-06-21T13:06:51Z</time>
      </trkpt>
      <trkpt lat="43.271217" lon="-8.982662">
        <ele>21.483</ele>
        <time>2019-06-21T13:06:52Z</time>
      </trkpt>
      <trkpt lat="43.271365" lon="-8.982810">
        <ele>23.060</ele>
        <time>2019-06-21T13:06:53Z</time>
      </trkpt>
      <trkpt lat="43.271511" lon="-8.982963">
        <ele>24.086</ele>
        <time>2019-06-21T13:06:54Z</time>
      </trkpt>
      <trkpt lat="43.271649" lon="-8.983126">
        <ele>24.940</ele>
        <time>2019-06-21T13:06:55Z</time>
      </trkpt>
      <trkpt lat="43.271784" lon="-8.983299">
        <ele>25.032</ele>
        <time>2019-06-21T13:06:56Z</time>
      </trkpt>
      <trkpt lat="43.271914" lon="-8.983466">
        <ele>25.634</ele>
        <time>2019-06-21T13:06:57Z</time>
      </trkpt>
      <trkpt lat="43.272040" lon="-8.983624">
        <ele>25.955</ele>
        <time>2019-06-21T13:06:58Z</time>
      </trkpt>
      <trkpt lat="43.272162" lon="-8.983772">
        <ele>25.610</ele>
        <time>2019-06-21T13:06:59Z</time>
      </trkpt>
      <trkpt lat="43.272299" lon="-8.983911">
        <ele>25.208</ele>
        <time>2019-06-21T13:07:00Z</time>
      </trkpt>
      <trkpt lat="43.272416" lon="-8.984021">
        <ele>24.066</ele>
        <time>2019-06-21T13:07:01Z</time>
      </trkpt>
      <trkpt lat="43.272547" lon="-8.984123">
        <ele>23.350</ele>
        <time>2019-06-21T13:07:02Z</time>
      </trkpt>
      <trkpt lat="43.272659" lon="-8.984196">
        <ele>23.292</ele>
        <time>2019-06-21T13:07:03Z</time>
      </trkpt>
      <trkpt lat="43.272782" lon="-8.984247">
        <ele>23.694</ele>
        <time>2019-06-21T13:07:04Z</time>
      </trkpt>
      <trkpt lat="43.272912" lon="-8.984281">
        <ele>23.981</ele>
        <time>2019-06-21T13:07:05Z</time>
      </trkpt>
      <trkpt lat="43.273040" lon="-8.984328">
        <ele>24.047</ele>
        <time>2019-06-21T13:07:06Z</time>
      </trkpt>
      <trkpt lat="43.273169" lon="-8.984378">
        <ele>24.431</ele>
        <time>2019-06-21T13:07:07Z</time>
      </trkpt>
      <trkpt lat="43.273277" lon="-8.984426">
        <ele>24.763</ele>
        <time>2019-06-21T13:07:08Z</time>
      </trkpt>
      <trkpt lat="43.273373" lon="-8.984486">
        <ele>25.482</ele>
        <time>2019-06-21T13:07:09Z</time>
      </trkpt>
      <trkpt lat="43.273463" lon="-8.984549">
        <ele>26.843</ele>
        <time>2019-06-21T13:07:10Z</time>
      </trkpt>
      <trkpt lat="43.273493" lon="-8.984668">
        <ele>26.717</ele>
        <time>2019-06-21T13:07:11Z</time>
      </trkpt>
      <trkpt lat="43.273517" lon="-8.984765">
        <ele>27.108</ele>
        <time>2019-06-21T13:07:12Z</time>
      </trkpt>
      <trkpt lat="43.273527" lon="-8.984863">
        <ele>27.531</ele>
        <time>2019-06-21T13:07:13Z</time>
      </trkpt>
      <trkpt lat="43.273460" lon="-8.984973">
        <ele>26.145</ele>
        <time>2019-06-21T13:07:14Z</time>
      </trkpt>
      <trkpt lat="43.273404" lon="-8.985097">
        <ele>24.877</ele>
        <time>2019-06-21T13:07:15Z</time>
      </trkpt>
      <trkpt lat="43.273348" lon="-8.985220">
        <ele>23.479</ele>
        <time>2019-06-21T13:07:16Z</time>
      </trkpt>
      <trkpt lat="43.273296" lon="-8.985349">
        <ele>22.456</ele>
        <time>2019-06-21T13:07:17Z</time>
      </trkpt>
      <trkpt lat="43.273265" lon="-8.985482">
        <ele>22.242</ele>
        <time>2019-06-21T13:07:18Z</time>
      </trkpt>
      <trkpt lat="43.273247" lon="-8.985637">
        <ele>22.456</ele>
        <time>2019-06-21T13:07:19Z</time>
      </trkpt>
      <trkpt lat="43.273245" lon="-8.985804">
        <ele>23.028</ele>
        <time>2019-06-21T13:07:20Z</time>
      </trkpt>
      <trkpt lat="43.273268" lon="-8.985963">
        <ele>23.214</ele>
        <time>2019-06-21T13:07:21Z</time>
      </trkpt>
      <trkpt lat="43.273319" lon="-8.986145">
        <ele>23.454</ele>
        <time>2019-06-21T13:07:22Z</time>
      </trkpt>
      <trkpt lat="43.273373" lon="-8.986325">
        <ele>22.209</ele>
        <time>2019-06-21T13:07:23Z</time>
      </trkpt>
      <trkpt lat="43.273427" lon="-8.986502">
        <ele>21.108</ele>
        <time>2019-06-21T13:07:24Z</time>
      </trkpt>
      <trkpt lat="43.273473" lon="-8.986686">
        <ele>19.884</ele>
        <time>2019-06-21T13:07:25Z</time>
      </trkpt>
      <trkpt lat="43.273517" lon="-8.986862">
        <ele>18.328</ele>
        <time>2019-06-21T13:07:26Z</time>
      </trkpt>
      <trkpt lat="43.273565" lon="-8.987032">
        <ele>17.470</ele>
        <time>2019-06-21T13:07:27Z</time>
      </trkpt>
      <trkpt lat="43.273616" lon="-8.987195">
        <ele>17.382</ele>
        <time>2019-06-21T13:07:28Z</time>
      </trkpt>
      <trkpt lat="43.273656" lon="-8.987350">
        <ele>17.479</ele>
        <time>2019-06-21T13:07:29Z</time>
      </trkpt>
      <trkpt lat="43.273699" lon="-8.987498">
        <ele>17.935</ele>
        <time>2019-06-21T13:07:30Z</time>
      </trkpt>
      <trkpt lat="43.273745" lon="-8.987645">
        <ele>17.569</ele>
        <time>2019-06-21T13:07:31Z</time>
      </trkpt>
      <trkpt lat="43.273800" lon="-8.987780">
        <ele>17.421</ele>
        <time>2019-06-21T13:07:32Z</time>
      </trkpt>
      <trkpt lat="43.273859" lon="-8.987905">
        <ele>16.985</ele>
        <time>2019-06-21T13:07:33Z</time>
      </trkpt>
      <trkpt lat="43.273924" lon="-8.988029">
        <ele>16.489</ele>
        <time>2019-06-21T13:07:34Z</time>
      </trkpt>
      <trkpt lat="43.273976" lon="-8.988149">
        <ele>15.417</ele>
        <time>2019-06-21T13:07:35Z</time>
      </trkpt>
      <trkpt lat="43.274044" lon="-8.988269">
        <ele>14.608</ele>
        <time>2019-06-21T13:07:36Z</time>
      </trkpt>
      <trkpt lat="43.274112" lon="-8.988383">
        <ele>14.051</ele>
        <time>2019-06-21T13:07:37Z</time>
      </trkpt>
      <trkpt lat="43.274170" lon="-8.988487">
        <ele>13.395</ele>
        <time>2019-06-21T13:07:38Z</time>
      </trkpt>
      <trkpt lat="43.274241" lon="-8.988609">
        <ele>12.187</ele>
        <time>2019-06-21T13:07:39Z</time>
      </trkpt>
      <trkpt lat="43.274324" lon="-8.988698">
        <ele>12.029</ele>
        <time>2019-06-21T13:07:40Z</time>
      </trkpt>
      <trkpt lat="43.274376" lon="-8.988775">
        <ele>11.416</ele>
        <time>2019-06-21T13:07:41Z</time>
      </trkpt>
      <trkpt lat="43.274416" lon="-8.988819">
        <ele>11.092</ele>
        <time>2019-06-21T13:07:42Z</time>
      </trkpt>
      <trkpt lat="43.274412" lon="-8.988882">
        <ele>9.986</ele>
        <time>2019-06-21T13:07:52Z</time>
      </trkpt>
      <trkpt lat="43.274469" lon="-8.988921">
        <ele>9.688</ele>
        <time>2019-06-21T13:08:28Z</time>
      </trkpt>
      <trkpt lat="43.274503" lon="-8.988962">
        <ele>9.294</ele>
        <time>2019-06-21T13:08:29Z</time>
      </trkpt>
      <trkpt lat="43.274552" lon="-8.989022">
        <ele>8.557</ele>
        <time>2019-06-21T13:08:30Z</time>
      </trkpt>
      <trkpt lat="43.274610" lon="-8.989085">
        <ele>7.822</ele>
        <time>2019-06-21T13:08:31Z</time>
      </trkpt>
      <trkpt lat="43.274660" lon="-8.989140">
        <ele>7.208</ele>
        <time>2019-06-21T13:08:32Z</time>
      </trkpt>
      <trkpt lat="43.274716" lon="-8.989200">
        <ele>6.742</ele>
        <time>2019-06-21T13:08:33Z</time>
      </trkpt>
      <trkpt lat="43.274761" lon="-8.989270">
        <ele>6.326</ele>
        <time>2019-06-21T13:08:34Z</time>
      </trkpt>
      <trkpt lat="43.274811" lon="-8.989343">
        <ele>5.968</ele>
        <time>2019-06-21T13:08:35Z</time>
      </trkpt>
      <trkpt lat="43.274851" lon="-8.989428">
        <ele>5.670</ele>
        <time>2019-06-21T13:08:36Z</time>
      </trkpt>
      <trkpt lat="43.274880" lon="-8.989526">
        <ele>5.687</ele>
        <time>2019-06-21T13:08:37Z</time>
      </trkpt>
      <trkpt lat="43.274905" lon="-8.989642">
        <ele>5.793</ele>
        <time>2019-06-21T13:08:38Z</time>
      </trkpt>
      <trkpt lat="43.274925" lon="-8.989764">
        <ele>5.767</ele>
        <time>2019-06-21T13:08:39Z</time>
      </trkpt>
      <trkpt lat="43.274932" lon="-8.989883">
        <ele>5.879</ele>
        <time>2019-06-21T13:08:40Z</time>
      </trkpt>
      <trkpt lat="43.274944" lon="-8.989990">
        <ele>5.826</ele>
        <time>2019-06-21T13:08:41Z</time>
      </trkpt>
      <trkpt lat="43.274951" lon="-8.990096">
        <ele>5.547</ele>
        <time>2019-06-21T13:08:42Z</time>
      </trkpt>
      <trkpt lat="43.274946" lon="-8.990205">
        <ele>5.111</ele>
        <time>2019-06-21T13:08:43Z</time>
      </trkpt>
      <trkpt lat="43.274941" lon="-8.990304">
        <ele>4.708</ele>
        <time>2019-06-21T13:08:44Z</time>
      </trkpt>
      <trkpt lat="43.274929" lon="-8.990379">
        <ele>4.485</ele>
        <time>2019-06-21T13:08:45Z</time>
      </trkpt>
      <trkpt lat="43.274909" lon="-8.990469">
        <ele>4.039</ele>
        <time>2019-06-21T13:08:47Z</time>
      </trkpt>
      <trkpt lat="43.274878" lon="-8.990424">
        <ele>4.041</ele>
        <time>2019-06-21T13:09:55Z</time>
      </trkpt>
      <trkpt lat="43.274895" lon="-8.990360">
        <ele>4.353</ele>
        <time>2019-06-21T13:10:00Z</time>
      </trkpt>
      <trkpt lat="43.274942" lon="-8.990378">
        <ele>4.460</ele>
        <time>2019-06-21T13:10:33Z</time>
      </trkpt>
      <trkpt lat="43.274916" lon="-8.990433">
        <ele>4.166</ele>
        <time>2019-06-21T13:11:04Z</time>
      </trkpt>
      <trkpt lat="43.274917" lon="-8.990365">
        <ele>4.480</ele>
        <time>2019-06-21T13:18:26Z</time>
      </trkpt>
      <trkpt lat="43.274933" lon="-8.990283">
        <ele>4.742</ele>
        <time>2019-06-21T13:18:28Z</time>
      </trkpt>
      <trkpt lat="43.274944" lon="-8.990183">
        <ele>5.194</ele>
        <time>2019-06-21T13:18:30Z</time>
      </trkpt>
      <trkpt lat="43.274949" lon="-8.990073">
        <ele>5.657</ele>
        <time>2019-06-21T13:18:32Z</time>
      </trkpt>
      <trkpt lat="43.274937" lon="-8.989959">
        <ele>5.822</ele>
        <time>2019-06-21T13:18:34Z</time>
      </trkpt>
      <trkpt lat="43.274910" lon="-8.989860">
        <ele>5.708</ele>
        <time>2019-06-21T13:18:36Z</time>
      </trkpt>
      <trkpt lat="43.274871" lon="-8.989795">
        <ele>5.562</ele>
        <time>2019-06-21T13:18:38Z</time>
      </trkpt>
      <trkpt lat="43.274816" lon="-8.989756">
        <ele>5.366</ele>
        <time>2019-06-21T13:18:40Z</time>
      </trkpt>
      <trkpt lat="43.274758" lon="-8.989734">
        <ele>5.168</ele>
        <time>2019-06-21T13:18:42Z</time>
      </trkpt>
      <trkpt lat="43.274751" lon="-8.989672">
        <ele>5.190</ele>
        <time>2019-06-21T13:20:23Z</time>
      </trkpt>
      <trkpt lat="43.274702" lon="-8.989540">
        <ele>4.987</ele>
        <time>2019-06-21T13:20:25Z</time>
      </trkpt>
      <trkpt lat="43.274649" lon="-8.989424">
        <ele>4.973</ele>
        <time>2019-06-21T13:20:26Z</time>
      </trkpt>
      <trkpt lat="43.274601" lon="-8.989309">
        <ele>5.557</ele>
        <time>2019-06-21T13:20:27Z</time>
      </trkpt>
      <trkpt lat="43.274540" lon="-8.989186">
        <ele>6.229</ele>
        <time>2019-06-21T13:20:28Z</time>
      </trkpt>
      <trkpt lat="43.274470" lon="-8.989060">
        <ele>7.658</ele>
        <time>2019-06-21T13:20:29Z</time>
      </trkpt>
      <trkpt lat="43.274392" lon="-8.988929">
        <ele>9.152</ele>
        <time>2019-06-21T13:20:30Z</time>
      </trkpt>
      <trkpt lat="43.274322" lon="-8.988797">
        <ele>10.517</ele>
        <time>2019-06-21T13:20:31Z</time>
      </trkpt>
      <trkpt lat="43.274239" lon="-8.988658">
        <ele>11.408</ele>
        <time>2019-06-21T13:20:32Z</time>
      </trkpt>
      <trkpt lat="43.274159" lon="-8.988520">
        <ele>12.598</ele>
        <time>2019-06-21T13:20:33Z</time>
      </trkpt>
      <trkpt lat="43.274083" lon="-8.988375">
        <ele>13.542</ele>
        <time>2019-06-21T13:20:34Z</time>
      </trkpt>
      <trkpt lat="43.274006" lon="-8.988238">
        <ele>14.464</ele>
        <time>2019-06-21T13:20:35Z</time>
      </trkpt>
      <trkpt lat="43.273928" lon="-8.988097">
        <ele>15.216</ele>
        <time>2019-06-21T13:20:36Z</time>
      </trkpt>
      <trkpt lat="43.273857" lon="-8.987945">
        <ele>16.173</ele>
        <time>2019-06-21T13:20:37Z</time>
      </trkpt>
      <trkpt lat="43.273792" lon="-8.987776">
        <ele>17.269</ele>
        <time>2019-06-21T13:20:38Z</time>
      </trkpt>
      <trkpt lat="43.273723" lon="-8.987592">
        <ele>17.513</ele>
        <time>2019-06-21T13:20:39Z</time>
      </trkpt>
      <trkpt lat="43.273661" lon="-8.987390">
        <ele>17.335</ele>
        <time>2019-06-21T13:20:40Z</time>
      </trkpt>
      <trkpt lat="43.273601" lon="-8.987188">
        <ele>17.082</ele>
        <time>2019-06-21T13:20:41Z</time>
      </trkpt>
      <trkpt lat="43.273535" lon="-8.986972">
        <ele>17.443</ele>
        <time>2019-06-21T13:20:42Z</time>
      </trkpt>
      <trkpt lat="43.273476" lon="-8.986767">
        <ele>18.817</ele>
        <time>2019-06-21T13:20:43Z</time>
      </trkpt>
      <trkpt lat="43.273415" lon="-8.986553">
        <ele>20.408</ele>
        <time>2019-06-21T13:20:44Z</time>
      </trkpt>
      <trkpt lat="43.273356" lon="-8.986343">
        <ele>21.861</ele>
        <time>2019-06-21T13:20:45Z</time>
      </trkpt>
      <trkpt lat="43.273310" lon="-8.986154">
        <ele>23.195</ele>
        <time>2019-06-21T13:20:46Z</time>
      </trkpt>
      <trkpt lat="43.273270" lon="-8.985977">
        <ele>23.257</ele>
        <time>2019-06-21T13:20:47Z</time>
      </trkpt>
      <trkpt lat="43.273244" lon="-8.985807">
        <ele>23.079</ele>
        <time>2019-06-21T13:20:48Z</time>
      </trkpt>
      <trkpt lat="43.273231" lon="-8.985638">
        <ele>22.116</ele>
        <time>2019-06-21T13:20:49Z</time>
      </trkpt>
      <trkpt lat="43.273241" lon="-8.985466">
        <ele>21.642</ele>
        <time>2019-06-21T13:20:50Z</time>
      </trkpt>
      <trkpt lat="43.273275" lon="-8.985304">
        <ele>21.676</ele>
        <time>2019-06-21T13:20:51Z</time>
      </trkpt>
      <trkpt lat="43.273323" lon="-8.985149">
        <ele>22.878</ele>
        <time>2019-06-21T13:20:52Z</time>
      </trkpt>
      <trkpt lat="43.273373" lon="-8.985011">
        <ele>24.059</ele>
        <time>2019-06-21T13:20:53Z</time>
      </trkpt>
      <trkpt lat="43.273418" lon="-8.984883">
        <ele>25.003</ele>
        <time>2019-06-21T13:20:54Z</time>
      </trkpt>
      <trkpt lat="43.273444" lon="-8.984767">
        <ele>25.523</ele>
        <time>2019-06-21T13:20:55Z</time>
      </trkpt>
      <trkpt lat="43.273438" lon="-8.984669">
        <ele>25.608</ele>
        <time>2019-06-21T13:20:56Z</time>
      </trkpt>
      <trkpt lat="43.273407" lon="-8.984585">
        <ele>25.468</ele>
        <time>2019-06-21T13:20:57Z</time>
      </trkpt>
      <trkpt lat="43.273338" lon="-8.984521">
        <ele>24.542</ele>
        <time>2019-06-21T13:20:58Z</time>
      </trkpt>
      <trkpt lat="43.273245" lon="-8.984462">
        <ele>23.924</ele>
        <time>2019-06-21T13:20:59Z</time>
      </trkpt>
      <trkpt lat="43.273136" lon="-8.984425">
        <ele>23.276</ele>
        <time>2019-06-21T13:21:00Z</time>
      </trkpt>
      <trkpt lat="43.273012" lon="-8.984392">
        <ele>22.633</ele>
        <time>2019-06-21T13:21:01Z</time>
      </trkpt>
      <trkpt lat="43.272884" lon="-8.984343">
        <ele>22.679</ele>
        <time>2019-06-21T13:21:02Z</time>
      </trkpt>
      <trkpt lat="43.272749" lon="-8.984297">
        <ele>22.493</ele>
        <time>2019-06-21T13:21:03Z</time>
      </trkpt>
      <trkpt lat="43.272619" lon="-8.984238">
        <ele>22.155</ele>
        <time>2019-06-21T13:21:04Z</time>
      </trkpt>
      <trkpt lat="43.272479" lon="-8.984154">
        <ele>22.123</ele>
        <time>2019-06-21T13:21:05Z</time>
      </trkpt>
      <trkpt lat="43.272339" lon="-8.984040">
        <ele>23.183</ele>
        <time>2019-06-21T13:21:06Z</time>
      </trkpt>
      <trkpt lat="43.272207" lon="-8.983910">
        <ele>24.511</ele>
        <time>2019-06-21T13:21:07Z</time>
      </trkpt>
      <trkpt lat="43.272069" lon="-8.983740">
        <ele>25.008</ele>
        <time>2019-06-21T13:21:08Z</time>
      </trkpt>
      <trkpt lat="43.271932" lon="-8.983559">
        <ele>25.255</ele>
        <time>2019-06-21T13:21:09Z</time>
      </trkpt>
      <trkpt lat="43.271792" lon="-8.983364">
        <ele>24.599</ele>
        <time>2019-06-21T13:21:10Z</time>
      </trkpt>
      <trkpt lat="43.271641" lon="-8.983171">
        <ele>24.221</ele>
        <time>2019-06-21T13:21:11Z</time>
      </trkpt>
      <trkpt lat="43.271483" lon="-8.982983">
        <ele>23.183</ele>
        <time>2019-06-21T13:21:12Z</time>
      </trkpt>
      <trkpt lat="43.271326" lon="-8.982804">
        <ele>22.360</ele>
        <time>2019-06-21T13:21:13Z</time>
      </trkpt>
      <trkpt lat="43.271167" lon="-8.982642">
        <ele>20.616</ele>
        <time>2019-06-21T13:21:14Z</time>
      </trkpt>
      <trkpt lat="43.271015" lon="-8.982490">
        <ele>20.120</ele>
        <time>2019-06-21T13:21:15Z</time>
      </trkpt>
      <trkpt lat="43.270875" lon="-8.982336">
        <ele>20.272</ele>
        <time>2019-06-21T13:21:16Z</time>
      </trkpt>
      <trkpt lat="43.270747" lon="-8.982188">
        <ele>20.613</ele>
        <time>2019-06-21T13:21:17Z</time>
      </trkpt>
      <trkpt lat="43.270599" lon="-8.982038">
        <ele>20.643</ele>
        <time>2019-06-21T13:21:18Z</time>
      </trkpt>
      <trkpt lat="43.270442" lon="-8.981917">
        <ele>20.307</ele>
        <time>2019-06-21T13:21:19Z</time>
      </trkpt>
      <trkpt lat="43.270256" lon="-8.981814">
        <ele>19.908</ele>
        <time>2019-06-21T13:21:20Z</time>
      </trkpt>
      <trkpt lat="43.270092" lon="-8.981736">
        <ele>20.254</ele>
        <time>2019-06-21T13:21:21Z</time>
      </trkpt>
      <trkpt lat="43.269913" lon="-8.981632">
        <ele>21.168</ele>
        <time>2019-06-21T13:21:22Z</time>
      </trkpt>
      <trkpt lat="43.269743" lon="-8.981521">
        <ele>22.150</ele>
        <time>2019-06-21T13:21:23Z</time>
      </trkpt>
      <trkpt lat="43.269573" lon="-8.981406">
        <ele>23.292</ele>
        <time>2019-06-21T13:21:24Z</time>
      </trkpt>
      <trkpt lat="43.269391" lon="-8.981288">
        <ele>23.659</ele>
        <time>2019-06-21T13:21:25Z</time>
      </trkpt>
      <trkpt lat="43.269215" lon="-8.981168">
        <ele>23.175</ele>
        <time>2019-06-21T13:21:26Z</time>
      </trkpt>
      <trkpt lat="43.269032" lon="-8.981028">
        <ele>23.139</ele>
        <time>2019-06-21T13:21:27Z</time>
      </trkpt>
      <trkpt lat="43.268850" lon="-8.980906">
        <ele>23.391</ele>
        <time>2019-06-21T13:21:28Z</time>
      </trkpt>
      <trkpt lat="43.268660" lon="-8.980778">
        <ele>23.657</ele>
        <time>2019-06-21T13:21:29Z</time>
      </trkpt>
      <trkpt lat="43.268462" lon="-8.980640">
        <ele>23.700</ele>
        <time>2019-06-21T13:21:30Z</time>
      </trkpt>
      <trkpt lat="43.268279" lon="-8.980503">
        <ele>24.220</ele>
        <time>2019-06-21T13:21:31Z</time>
      </trkpt>
      <trkpt lat="43.268093" lon="-8.980376">
        <ele>24.208</ele>
        <time>2019-06-21T13:21:32Z</time>
      </trkpt>
      <trkpt lat="43.267915" lon="-8.980255">
        <ele>24.738</ele>
        <time>2019-06-21T13:21:33Z</time>
      </trkpt>
      <trkpt lat="43.267749" lon="-8.980148">
        <ele>24.892</ele>
        <time>2019-06-21T13:21:34Z</time>
      </trkpt>
      <trkpt lat="43.267571" lon="-8.980053">
        <ele>24.354</ele>
        <time>2019-06-21T13:21:35Z</time>
      </trkpt>
      <trkpt lat="43.267400" lon="-8.979978">
        <ele>23.636</ele>
        <time>2019-06-21T13:21:36Z</time>
      </trkpt>
      <trkpt lat="43.267235" lon="-8.979909">
        <ele>23.463</ele>
        <time>2019-06-21T13:21:37Z</time>
      </trkpt>
      <trkpt lat="43.267057" lon="-8.979853">
        <ele>23.249</ele>
        <time>2019-06-21T13:21:38Z</time>
      </trkpt>
      <trkpt lat="43.266893" lon="-8.979777">
        <ele>22.763</ele>
        <time>2019-06-21T13:21:39Z</time>
      </trkpt>
      <trkpt lat="43.266719" lon="-8.979682">
        <ele>21.435</ele>
        <time>2019-06-21T13:21:40Z</time>
      </trkpt>
      <trkpt lat="43.266553" lon="-8.979567">
        <ele>21.296</ele>
        <time>2019-06-21T13:21:41Z</time>
      </trkpt>
      <trkpt lat="43.266383" lon="-8.979439">
        <ele>21.031</ele>
        <time>2019-06-21T13:21:42Z</time>
      </trkpt>
      <trkpt lat="43.266227" lon="-8.979310">
        <ele>21.524</ele>
        <time>2019-06-21T13:21:43Z</time>
      </trkpt>
      <trkpt lat="43.266088" lon="-8.979186">
        <ele>21.408</ele>
        <time>2019-06-21T13:21:44Z</time>
      </trkpt>
      <trkpt lat="43.265973" lon="-8.979058">
        <ele>19.922</ele>
        <time>2019-06-21T13:21:45Z</time>
      </trkpt>
      <trkpt lat="43.265872" lon="-8.978925">
        <ele>17.976</ele>
        <time>2019-06-21T13:21:46Z</time>
      </trkpt>
      <trkpt lat="43.265804" lon="-8.978762">
        <ele>16.618</ele>
        <time>2019-06-21T13:21:47Z</time>
      </trkpt>
      <trkpt lat="43.265740" lon="-8.978593">
        <ele>15.440</ele>
        <time>2019-06-21T13:21:48Z</time>
      </trkpt>
      <trkpt lat="43.265680" lon="-8.978435">
        <ele>14.577</ele>
        <time>2019-06-21T13:21:49Z</time>
      </trkpt>
      <trkpt lat="43.265632" lon="-8.978278">
        <ele>14.153</ele>
        <time>2019-06-21T13:21:50Z</time>
      </trkpt>
      <trkpt lat="43.265585" lon="-8.978141">
        <ele>14.037</ele>
        <time>2019-06-21T13:21:51Z</time>
      </trkpt>
      <trkpt lat="43.265530" lon="-8.978044">
        <ele>14.319</ele>
        <time>2019-06-21T13:21:52Z</time>
      </trkpt>
      <trkpt lat="43.265460" lon="-8.977987">
        <ele>15.652</ele>
        <time>2019-06-21T13:21:53Z</time>
      </trkpt>
      <trkpt lat="43.265379" lon="-8.977968">
        <ele>16.153</ele>
        <time>2019-06-21T13:21:54Z</time>
      </trkpt>
      <trkpt lat="43.265298" lon="-8.977978">
        <ele>15.908</ele>
        <time>2019-06-21T13:21:55Z</time>
      </trkpt>
      <trkpt lat="43.265209" lon="-8.978085">
        <ele>14.208</ele>
        <time>2019-06-21T13:21:56Z</time>
      </trkpt>
      <trkpt lat="43.265128" lon="-8.978179">
        <ele>13.458</ele>
        <time>2019-06-21T13:21:57Z</time>
      </trkpt>
      <trkpt lat="43.265018" lon="-8.978313">
        <ele>12.292</ele>
        <time>2019-06-21T13:21:58Z</time>
      </trkpt>
      <trkpt lat="43.264916" lon="-8.978405">
        <ele>10.934</ele>
        <time>2019-06-21T13:21:59Z</time>
      </trkpt>
      <trkpt lat="43.264818" lon="-8.978470">
        <ele>10.226</ele>
        <time>2019-06-21T13:22:00Z</time>
      </trkpt>
      <trkpt lat="43.264703" lon="-8.978514">
        <ele>10.153</ele>
        <time>2019-06-21T13:22:01Z</time>
      </trkpt>
      <trkpt lat="43.264599" lon="-8.978510">
        <ele>10.359</ele>
        <time>2019-06-21T13:22:02Z</time>
      </trkpt>
      <trkpt lat="43.264499" lon="-8.978486">
        <ele>10.793</ele>
        <time>2019-06-21T13:22:03Z</time>
      </trkpt>
      <trkpt lat="43.264417" lon="-8.978424">
        <ele>11.255</ele>
        <time>2019-06-21T13:22:04Z</time>
      </trkpt>
      <trkpt lat="43.264372" lon="-8.978307">
        <ele>11.534</ele>
        <time>2019-06-21T13:22:05Z</time>
      </trkpt>
      <trkpt lat="43.264347" lon="-8.978166">
        <ele>11.355</ele>
        <time>2019-06-21T13:22:06Z</time>
      </trkpt>
      <trkpt lat="43.264323" lon="-8.978004">
        <ele>11.210</ele>
        <time>2019-06-21T13:22:07Z</time>
      </trkpt>
      <trkpt lat="43.264303" lon="-8.977821">
        <ele>11.708</ele>
        <time>2019-06-21T13:22:08Z</time>
      </trkpt>
      <trkpt lat="43.264273" lon="-8.977625">
        <ele>12.946</ele>
        <time>2019-06-21T13:22:09Z</time>
      </trkpt>
      <trkpt lat="43.264233" lon="-8.977424">
        <ele>14.010</ele>
        <time>2019-06-21T13:22:10Z</time>
      </trkpt>
      <trkpt lat="43.264187" lon="-8.977215">
        <ele>14.572</ele>
        <time>2019-06-21T13:22:11Z</time>
      </trkpt>
      <trkpt lat="43.264135" lon="-8.976994">
        <ele>15.724</ele>
        <time>2019-06-21T13:22:12Z</time>
      </trkpt>
      <trkpt lat="43.264072" lon="-8.976771">
        <ele>16.761</ele>
        <time>2019-06-21T13:22:13Z</time>
      </trkpt>
      <trkpt lat="43.263988" lon="-8.976554">
        <ele>17.647</ele>
        <time>2019-06-21T13:22:14Z</time>
      </trkpt>
      <trkpt lat="43.263895" lon="-8.976356">
        <ele>18.631</ele>
        <time>2019-06-21T13:22:15Z</time>
      </trkpt>
      <trkpt lat="43.263797" lon="-8.976182">
        <ele>19.773</ele>
        <time>2019-06-21T13:22:16Z</time>
      </trkpt>
      <trkpt lat="43.263705" lon="-8.976026">
        <ele>20.034</ele>
        <time>2019-06-21T13:22:17Z</time>
      </trkpt>
      <trkpt lat="43.263623" lon="-8.975902">
        <ele>19.755</ele>
        <time>2019-06-21T13:22:18Z</time>
      </trkpt>
      <trkpt lat="43.263559" lon="-8.975758">
        <ele>19.210</ele>
        <time>2019-06-21T13:22:19Z</time>
      </trkpt>
      <trkpt lat="43.263517" lon="-8.975621">
        <ele>18.608</ele>
        <time>2019-06-21T13:22:20Z</time>
      </trkpt>
      <trkpt lat="43.263493" lon="-8.975497">
        <ele>18.016</ele>
        <time>2019-06-21T13:22:21Z</time>
      </trkpt>
      <trkpt lat="43.263530" lon="-8.975335">
        <ele>17.840</ele>
        <time>2019-06-21T13:22:22Z</time>
      </trkpt>
      <trkpt lat="43.263572" lon="-8.975199">
        <ele>17.242</ele>
        <time>2019-06-21T13:22:23Z</time>
      </trkpt>
      <trkpt lat="43.263624" lon="-8.975048">
        <ele>16.024</ele>
        <time>2019-06-21T13:22:24Z</time>
      </trkpt>
      <trkpt lat="43.263727" lon="-8.974868">
        <ele>15.641</ele>
        <time>2019-06-21T13:22:25Z</time>
      </trkpt>
      <trkpt lat="43.263836" lon="-8.974669">
        <ele>15.457</ele>
        <time>2019-06-21T13:22:26Z</time>
      </trkpt>
      <trkpt lat="43.263936" lon="-8.974480">
        <ele>16.571</ele>
        <time>2019-06-21T13:22:27Z</time>
      </trkpt>
      <trkpt lat="43.264022" lon="-8.974235">
        <ele>16.513</ele>
        <time>2019-06-21T13:22:28Z</time>
      </trkpt>
      <trkpt lat="43.264109" lon="-8.973998">
        <ele>16.845</ele>
        <time>2019-06-21T13:22:29Z</time>
      </trkpt>
      <trkpt lat="43.264171" lon="-8.973742">
        <ele>16.547</ele>
        <time>2019-06-21T13:22:30Z</time>
      </trkpt>
      <trkpt lat="43.264220" lon="-8.973517">
        <ele>17.611</ele>
        <time>2019-06-21T13:22:31Z</time>
      </trkpt>
      <trkpt lat="43.264262" lon="-8.973302">
        <ele>19.508</ele>
        <time>2019-06-21T13:22:32Z</time>
      </trkpt>
      <trkpt lat="43.264296" lon="-8.973102">
        <ele>20.797</ele>
        <time>2019-06-21T13:22:33Z</time>
      </trkpt>
      <trkpt lat="43.264323" lon="-8.972938">
        <ele>21.441</ele>
        <time>2019-06-21T13:22:34Z</time>
      </trkpt>
      <trkpt lat="43.264339" lon="-8.972769">
        <ele>21.993</ele>
        <time>2019-06-21T13:22:35Z</time>
      </trkpt>
      <trkpt lat="43.264354" lon="-8.972598">
        <ele>22.035</ele>
        <time>2019-06-21T13:22:36Z</time>
      </trkpt>
      <trkpt lat="43.264348" lon="-8.972411">
        <ele>22.372</ele>
        <time>2019-06-21T13:22:37Z</time>
      </trkpt>
      <trkpt lat="43.264345" lon="-8.972231">
        <ele>22.918</ele>
        <time>2019-06-21T13:22:38Z</time>
      </trkpt>
      <trkpt lat="43.264335" lon="-8.972045">
        <ele>22.232</ele>
        <time>2019-06-21T13:22:39Z</time>
      </trkpt>
      <trkpt lat="43.264319" lon="-8.971876">
        <ele>21.524</ele>
        <time>2019-06-21T13:22:40Z</time>
      </trkpt>
      <trkpt lat="43.264293" lon="-8.971715">
        <ele>20.956</ele>
        <time>2019-06-21T13:22:41Z</time>
      </trkpt>
      <trkpt lat="43.264257" lon="-8.971578">
        <ele>19.759</ele>
        <time>2019-06-21T13:22:42Z</time>
      </trkpt>
      <trkpt lat="43.264187" lon="-8.971493">
        <ele>18.014</ele>
        <time>2019-06-21T13:22:43Z</time>
      </trkpt>
      <trkpt lat="43.264116" lon="-8.971398">
        <ele>16.308</ele>
        <time>2019-06-21T13:22:44Z</time>
      </trkpt>
      <trkpt lat="43.264008" lon="-8.971363">
        <ele>14.578</ele>
        <time>2019-06-21T13:22:45Z</time>
      </trkpt>
      <trkpt lat="43.263892" lon="-8.971327">
        <ele>12.622</ele>
        <time>2019-06-21T13:22:46Z</time>
      </trkpt>
      <trkpt lat="43.263766" lon="-8.971268">
        <ele>10.334</ele>
        <time>2019-06-21T13:22:47Z</time>
      </trkpt>
      <trkpt lat="43.263648" lon="-8.971180">
        <ele>8.516</ele>
        <time>2019-06-21T13:22:48Z</time>
      </trkpt>
      <trkpt lat="43.263515" lon="-8.971093">
        <ele>7.843</ele>
        <time>2019-06-21T13:22:49Z</time>
      </trkpt>
      <trkpt lat="43.263393" lon="-8.970985">
        <ele>8.129</ele>
        <time>2019-06-21T13:22:50Z</time>
      </trkpt>
      <trkpt lat="43.263286" lon="-8.970884">
        <ele>8.523</ele>
        <time>2019-06-21T13:22:51Z</time>
      </trkpt>
      <trkpt lat="43.263186" lon="-8.970801">
        <ele>8.985</ele>
        <time>2019-06-21T13:22:52Z</time>
      </trkpt>
      <trkpt lat="43.263091" lon="-8.970703">
        <ele>9.768</ele>
        <time>2019-06-21T13:22:53Z</time>
      </trkpt>
      <trkpt lat="43.262997" lon="-8.970585">
        <ele>10.142</ele>
        <time>2019-06-21T13:22:54Z</time>
      </trkpt>
      <trkpt lat="43.262917" lon="-8.970447">
        <ele>10.726</ele>
        <time>2019-06-21T13:22:55Z</time>
      </trkpt>
      <trkpt lat="43.262839" lon="-8.970286">
        <ele>11.008</ele>
        <time>2019-06-21T13:22:56Z</time>
      </trkpt>
      <trkpt lat="43.262758" lon="-8.970118">
        <ele>11.529</ele>
        <time>2019-06-21T13:22:57Z</time>
      </trkpt>
      <trkpt lat="43.262697" lon="-8.969957">
        <ele>12.393</ele>
        <time>2019-06-21T13:22:58Z</time>
      </trkpt>
      <trkpt lat="43.262633" lon="-8.969799">
        <ele>12.755</ele>
        <time>2019-06-21T13:22:59Z</time>
      </trkpt>
      <trkpt lat="43.262578" lon="-8.969642">
        <ele>12.587</ele>
        <time>2019-06-21T13:23:00Z</time>
      </trkpt>
      <trkpt lat="43.262536" lon="-8.969464">
        <ele>11.824</ele>
        <time>2019-06-21T13:23:01Z</time>
      </trkpt>
      <trkpt lat="43.262512" lon="-8.969285">
        <ele>10.790</ele>
        <time>2019-06-21T13:23:02Z</time>
      </trkpt>
      <trkpt lat="43.262501" lon="-8.969113">
        <ele>9.834</ele>
        <time>2019-06-21T13:23:03Z</time>
      </trkpt>
      <trkpt lat="43.262508" lon="-8.968951">
        <ele>9.416</ele>
        <time>2019-06-21T13:23:04Z</time>
      </trkpt>
      <trkpt lat="43.262541" lon="-8.968814">
        <ele>10.134</ele>
        <time>2019-06-21T13:23:05Z</time>
      </trkpt>
      <trkpt lat="43.262594" lon="-8.968683">
        <ele>11.555</ele>
        <time>2019-06-21T13:23:06Z</time>
      </trkpt>
      <trkpt lat="43.262657" lon="-8.968552">
        <ele>12.910</ele>
        <time>2019-06-21T13:23:07Z</time>
      </trkpt>
      <trkpt lat="43.262742" lon="-8.968424">
        <ele>15.008</ele>
        <time>2019-06-21T13:23:08Z</time>
      </trkpt>
      <trkpt lat="43.262822" lon="-8.968297">
        <ele>17.536</ele>
        <time>2019-06-21T13:23:09Z</time>
      </trkpt>
      <trkpt lat="43.262848" lon="-8.968170">
        <ele>17.310</ele>
        <time>2019-06-21T13:23:10Z</time>
      </trkpt>
      <trkpt lat="43.262875" lon="-8.968043">
        <ele>17.142</ele>
        <time>2019-06-21T13:23:11Z</time>
      </trkpt>
      <trkpt lat="43.262894" lon="-8.967917">
        <ele>17.364</ele>
        <time>2019-06-21T13:23:12Z</time>
      </trkpt>
      <trkpt lat="43.262908" lon="-8.967788">
        <ele>17.251</ele>
        <time>2019-06-21T13:23:13Z</time>
      </trkpt>
      <trkpt lat="43.262817" lon="-8.967648">
        <ele>14.497</ele>
        <time>2019-06-21T13:23:14Z</time>
      </trkpt>
      <trkpt lat="43.262769" lon="-8.967499">
        <ele>13.811</ele>
        <time>2019-06-21T13:23:15Z</time>
      </trkpt>
      <trkpt lat="43.262719" lon="-8.967344">
        <ele>13.943</ele>
        <time>2019-06-21T13:23:16Z</time>
      </trkpt>
      <trkpt lat="43.262676" lon="-8.967192">
        <ele>14.036</ele>
        <time>2019-06-21T13:23:17Z</time>
      </trkpt>
      <trkpt lat="43.262631" lon="-8.967047">
        <ele>13.817</ele>
        <time>2019-06-21T13:23:18Z</time>
      </trkpt>
      <trkpt lat="43.262586" lon="-8.966890">
        <ele>13.018</ele>
        <time>2019-06-21T13:23:19Z</time>
      </trkpt>
      <trkpt lat="43.262549" lon="-8.966746">
        <ele>11.508</ele>
        <time>2019-06-21T13:23:20Z</time>
      </trkpt>
      <trkpt lat="43.262534" lon="-8.966611">
        <ele>10.316</ele>
        <time>2019-06-21T13:23:21Z</time>
      </trkpt>
      <trkpt lat="43.262520" lon="-8.966466">
        <ele>8.430</ele>
        <time>2019-06-21T13:23:22Z</time>
      </trkpt>
      <trkpt lat="43.262540" lon="-8.966370">
        <ele>8.012</ele>
        <time>2019-06-21T13:23:23Z</time>
      </trkpt>
      <trkpt lat="43.262568" lon="-8.966258">
        <ele>8.064</ele>
        <time>2019-06-21T13:23:24Z</time>
      </trkpt>
      <trkpt lat="43.262617" lon="-8.966138">
        <ele>8.621</ele>
        <time>2019-06-21T13:23:25Z</time>
      </trkpt>
      <trkpt lat="43.262670" lon="-8.966053">
        <ele>9.297</ele>
        <time>2019-06-21T13:23:26Z</time>
      </trkpt>
      <trkpt lat="43.262758" lon="-8.965963">
        <ele>10.491</ele>
        <time>2019-06-21T13:23:27Z</time>
      </trkpt>
      <trkpt lat="43.262878" lon="-8.965876">
        <ele>11.853</ele>
        <time>2019-06-21T13:23:28Z</time>
      </trkpt>
      <trkpt lat="43.262998" lon="-8.965776">
        <ele>12.656</ele>
        <time>2019-06-21T13:23:29Z</time>
      </trkpt>
      <trkpt lat="43.263117" lon="-8.965674">
        <ele>12.459</ele>
        <time>2019-06-21T13:23:30Z</time>
      </trkpt>
      <trkpt lat="43.263226" lon="-8.965588">
        <ele>11.714</ele>
        <time>2019-06-21T13:23:31Z</time>
      </trkpt>
      <trkpt lat="43.263323" lon="-8.965502">
        <ele>11.108</ele>
        <time>2019-06-21T13:23:32Z</time>
      </trkpt>
      <trkpt lat="43.263407" lon="-8.965421">
        <ele>10.938</ele>
        <time>2019-06-21T13:23:33Z</time>
      </trkpt>
      <trkpt lat="43.263482" lon="-8.965358">
        <ele>10.572</ele>
        <time>2019-06-21T13:23:34Z</time>
      </trkpt>
      <trkpt lat="43.263559" lon="-8.965288">
        <ele>9.834</ele>
        <time>2019-06-21T13:23:35Z</time>
      </trkpt>
      <trkpt lat="43.263617" lon="-8.965210">
        <ele>9.356</ele>
        <time>2019-06-21T13:23:36Z</time>
      </trkpt>
      <trkpt lat="43.263680" lon="-8.965148">
        <ele>9.163</ele>
        <time>2019-06-21T13:23:37Z</time>
      </trkpt>
      <trkpt lat="43.263755" lon="-8.965119">
        <ele>9.489</ele>
        <time>2019-06-21T13:23:38Z</time>
      </trkpt>
      <trkpt lat="43.263819" lon="-8.965089">
        <ele>9.753</ele>
        <time>2019-06-21T13:23:39Z</time>
      </trkpt>
      <trkpt lat="43.263891" lon="-8.965094">
        <ele>10.395</ele>
        <time>2019-06-21T13:23:40Z</time>
      </trkpt>
      <trkpt lat="43.263962" lon="-8.965117">
        <ele>10.428</ele>
        <time>2019-06-21T13:23:41Z</time>
      </trkpt>
      <trkpt lat="43.264030" lon="-8.965143">
        <ele>10.589</ele>
        <time>2019-06-21T13:23:42Z</time>
      </trkpt>
      <trkpt lat="43.264097" lon="-8.965162">
        <ele>10.717</ele>
        <time>2019-06-21T13:23:43Z</time>
      </trkpt>
      <trkpt lat="43.264173" lon="-8.965186">
        <ele>11.108</ele>
        <time>2019-06-21T13:23:44Z</time>
      </trkpt>
      <trkpt lat="43.264231" lon="-8.965200">
        <ele>12.035</ele>
        <time>2019-06-21T13:23:45Z</time>
      </trkpt>
      <trkpt lat="43.264290" lon="-8.965203">
        <ele>12.829</ele>
        <time>2019-06-21T13:23:46Z</time>
      </trkpt>
      <trkpt lat="43.264343" lon="-8.965174">
        <ele>13.371</ele>
        <time>2019-06-21T13:23:47Z</time>
      </trkpt>
      <trkpt lat="43.264382" lon="-8.965119">
        <ele>13.593</ele>
        <time>2019-06-21T13:23:48Z</time>
      </trkpt>
      <trkpt lat="43.264404" lon="-8.965039">
        <ele>13.550</ele>
        <time>2019-06-21T13:23:49Z</time>
      </trkpt>
      <trkpt lat="43.264422" lon="-8.964958">
        <ele>13.376</ele>
        <time>2019-06-21T13:23:50Z</time>
      </trkpt>
      <trkpt lat="43.264435" lon="-8.964878">
        <ele>13.070</ele>
        <time>2019-06-21T13:23:51Z</time>
      </trkpt>
      <trkpt lat="43.264442" lon="-8.964787">
        <ele>12.432</ele>
        <time>2019-06-21T13:23:52Z</time>
      </trkpt>
      <trkpt lat="43.264442" lon="-8.964717">
        <ele>12.041</ele>
        <time>2019-06-21T13:23:53Z</time>
      </trkpt>
      <trkpt lat="43.264435" lon="-8.964649">
        <ele>11.681</ele>
        <time>2019-06-21T13:23:54Z</time>
      </trkpt>
      <trkpt lat="43.264387" lon="-8.964610">
        <ele>11.009</ele>
        <time>2019-06-21T13:23:55Z</time>
      </trkpt>
      <trkpt lat="43.264344" lon="-8.964587">
        <ele>10.408</ele>
        <time>2019-06-21T13:23:56Z</time>
      </trkpt>
      <trkpt lat="43.264291" lon="-8.964587">
        <ele>9.987</ele>
        <time>2019-06-21T13:23:57Z</time>
      </trkpt>
      <trkpt lat="43.264221" lon="-8.964584">
        <ele>9.161</ele>
        <time>2019-06-21T13:23:58Z</time>
      </trkpt>
      <trkpt lat="43.264144" lon="-8.964563">
        <ele>8.463</ele>
        <time>2019-06-21T13:23:59Z</time>
      </trkpt>
      <trkpt lat="43.264070" lon="-8.964522">
        <ele>8.375</ele>
        <time>2019-06-21T13:24:00Z</time>
      </trkpt>
      <trkpt lat="43.263997" lon="-8.964487">
        <ele>8.292</ele>
        <time>2019-06-21T13:24:01Z</time>
      </trkpt>
      <trkpt lat="43.263940" lon="-8.964467">
        <ele>8.158</ele>
        <time>2019-06-21T13:24:02Z</time>
      </trkpt>
      <trkpt lat="43.263889" lon="-8.964434">
        <ele>7.932</ele>
        <time>2019-06-21T13:24:03Z</time>
      </trkpt>
      <trkpt lat="43.263834" lon="-8.964374">
        <ele>7.324</ele>
        <time>2019-06-21T13:24:04Z</time>
      </trkpt>
      <trkpt lat="43.263791" lon="-8.964314">
        <ele>6.946</ele>
        <time>2019-06-21T13:24:05Z</time>
      </trkpt>
      <trkpt lat="43.263779" lon="-8.964214">
        <ele>6.388</ele>
        <time>2019-06-21T13:24:06Z</time>
      </trkpt>
      <trkpt lat="43.263768" lon="-8.964105">
        <ele>5.816</ele>
        <time>2019-06-21T13:24:07Z</time>
      </trkpt>
      <trkpt lat="43.263766" lon="-8.963982">
        <ele>5.408</ele>
        <time>2019-06-21T13:24:08Z</time>
      </trkpt>
      <trkpt lat="43.263782" lon="-8.963865">
        <ele>5.277</ele>
        <time>2019-06-21T13:24:09Z</time>
      </trkpt>
      <trkpt lat="43.263794" lon="-8.963751">
        <ele>5.381</ele>
        <time>2019-06-21T13:24:10Z</time>
      </trkpt>
      <trkpt lat="43.263809" lon="-8.963645">
        <ele>5.473</ele>
        <time>2019-06-21T13:24:11Z</time>
      </trkpt>
      <trkpt lat="43.263824" lon="-8.963547">
        <ele>5.625</ele>
        <time>2019-06-21T13:24:12Z</time>
      </trkpt>
      <trkpt lat="43.263832" lon="-8.963449">
        <ele>5.892</ele>
        <time>2019-06-21T13:24:13Z</time>
      </trkpt>
      <trkpt lat="43.263841" lon="-8.963345">
        <ele>6.048</ele>
        <time>2019-06-21T13:24:14Z</time>
      </trkpt>
      <trkpt lat="43.263854" lon="-8.963231">
        <ele>6.352</ele>
        <time>2019-06-21T13:24:15Z</time>
      </trkpt>
      <trkpt lat="43.263863" lon="-8.963117">
        <ele>6.614</ele>
        <time>2019-06-21T13:24:16Z</time>
      </trkpt>
      <trkpt lat="43.263873" lon="-8.963000">
        <ele>6.782</ele>
        <time>2019-06-21T13:24:17Z</time>
      </trkpt>
      <trkpt lat="43.263900" lon="-8.962926">
        <ele>6.643</ele>
        <time>2019-06-21T13:24:18Z</time>
      </trkpt>
      <trkpt lat="43.263932" lon="-8.962842">
        <ele>6.617</ele>
        <time>2019-06-21T13:24:19Z</time>
      </trkpt>
      <trkpt lat="43.263985" lon="-8.962772">
        <ele>7.008</ele>
        <time>2019-06-21T13:24:20Z</time>
      </trkpt>
      <trkpt lat="43.264041" lon="-8.962708">
        <ele>7.621</ele>
        <time>2019-06-21T13:24:21Z</time>
      </trkpt>
      <trkpt lat="43.264110" lon="-8.962661">
        <ele>8.435</ele>
        <time>2019-06-21T13:24:22Z</time>
      </trkpt>
      <trkpt lat="43.264190" lon="-8.962618">
        <ele>9.367</ele>
        <time>2019-06-21T13:24:23Z</time>
      </trkpt>
      <trkpt lat="43.264275" lon="-8.962612">
        <ele>10.399</ele>
        <time>2019-06-21T13:24:24Z</time>
      </trkpt>
      <trkpt lat="43.264360" lon="-8.962598">
        <ele>11.316</ele>
        <time>2019-06-21T13:24:25Z</time>
      </trkpt>
      <trkpt lat="43.264462" lon="-8.962634">
        <ele>12.832</ele>
        <time>2019-06-21T13:24:26Z</time>
      </trkpt>
      <trkpt lat="43.264566" lon="-8.962671">
        <ele>14.826</ele>
        <time>2019-06-21T13:24:27Z</time>
      </trkpt>
      <trkpt lat="43.264662" lon="-8.962699">
        <ele>16.638</ele>
        <time>2019-06-21T13:24:28Z</time>
      </trkpt>
      <trkpt lat="43.264756" lon="-8.962736">
        <ele>18.495</ele>
        <time>2019-06-21T13:24:29Z</time>
      </trkpt>
      <trkpt lat="43.264824" lon="-8.962760">
        <ele>19.449</ele>
        <time>2019-06-21T13:24:30Z</time>
      </trkpt>
      <trkpt lat="43.264879" lon="-8.962783">
        <ele>20.223</ele>
        <time>2019-06-21T13:24:31Z</time>
      </trkpt>
      <trkpt lat="43.264946" lon="-8.962752">
        <ele>21.208</ele>
        <time>2019-06-21T13:24:33Z</time>
      </trkpt>
      <trkpt lat="43.264971" lon="-8.962826">
        <ele>21.282</ele>
        <time>2019-06-21T13:24:34Z</time>
      </trkpt>
      <trkpt lat="43.264993" lon="-8.962711">
        <ele>21.996</ele>
        <time>2019-06-21T13:24:36Z</time>
      </trkpt>
      <trkpt lat="43.265016" lon="-8.962611">
        <ele>22.298</ele>
        <time>2019-06-21T13:24:37Z</time>
      </trkpt>
      <trkpt lat="43.265012" lon="-8.962503">
        <ele>22.130</ele>
        <time>2019-06-21T13:24:38Z</time>
      </trkpt>
      <trkpt lat="43.265014" lon="-8.962412">
        <ele>22.247</ele>
        <time>2019-06-21T13:24:39Z</time>
      </trkpt>
      <trkpt lat="43.265032" lon="-8.962322">
        <ele>22.383</ele>
        <time>2019-06-21T13:24:40Z</time>
      </trkpt>
      <trkpt lat="43.265017" lon="-8.962192">
        <ele>22.147</ele>
        <time>2019-06-21T13:24:41Z</time>
      </trkpt>
      <trkpt lat="43.265031" lon="-8.962052">
        <ele>21.849</ele>
        <time>2019-06-21T13:24:42Z</time>
      </trkpt>
      <trkpt lat="43.265035" lon="-8.961927">
        <ele>21.418</ele>
        <time>2019-06-21T13:24:43Z</time>
      </trkpt>
      <trkpt lat="43.265041" lon="-8.961809">
        <ele>20.798</ele>
        <time>2019-06-21T13:24:44Z</time>
      </trkpt>
      <trkpt lat="43.265074" lon="-8.961712">
        <ele>20.617</ele>
        <time>2019-06-21T13:24:45Z</time>
      </trkpt>
      <trkpt lat="43.265111" lon="-8.961558">
        <ele>20.108</ele>
        <time>2019-06-21T13:24:46Z</time>
      </trkpt>
      <trkpt lat="43.265123" lon="-8.961416">
        <ele>19.364</ele>
        <time>2019-06-21T13:24:47Z</time>
      </trkpt>
      <trkpt lat="43.265147" lon="-8.961281">
        <ele>19.378</ele>
        <time>2019-06-21T13:24:48Z</time>
      </trkpt>
      <trkpt lat="43.265161" lon="-8.961156">
        <ele>19.460</ele>
        <time>2019-06-21T13:24:49Z</time>
      </trkpt>
      <trkpt lat="43.265167" lon="-8.961015">
        <ele>18.992</ele>
        <time>2019-06-21T13:24:50Z</time>
      </trkpt>
      <trkpt lat="43.265180" lon="-8.960896">
        <ele>18.649</ele>
        <time>2019-06-21T13:24:51Z</time>
      </trkpt>
      <trkpt lat="43.265270" lon="-8.960803">
        <ele>19.515</ele>
        <time>2019-06-21T13:24:52Z</time>
      </trkpt>
      <trkpt lat="43.265346" lon="-8.960701">
        <ele>19.219</ele>
        <time>2019-06-21T13:24:53Z</time>
      </trkpt>
      <trkpt lat="43.265406" lon="-8.960607">
        <ele>18.331</ele>
        <time>2019-06-21T13:24:54Z</time>
      </trkpt>
      <trkpt lat="43.265451" lon="-8.960511">
        <ele>16.817</ele>
        <time>2019-06-21T13:24:55Z</time>
      </trkpt>
      <trkpt lat="43.265504" lon="-8.960418">
        <ele>15.387</ele>
        <time>2019-06-21T13:24:56Z</time>
      </trkpt>
      <trkpt lat="43.265543" lon="-8.960322">
        <ele>13.815</ele>
        <time>2019-06-21T13:24:57Z</time>
      </trkpt>
      <trkpt lat="43.265603" lon="-8.960237">
        <ele>13.808</ele>
        <time>2019-06-21T13:24:58Z</time>
      </trkpt>
      <trkpt lat="43.265691" lon="-8.960156">
        <ele>14.854</ele>
        <time>2019-06-21T13:24:59Z</time>
      </trkpt>
      <trkpt lat="43.265767" lon="-8.960085">
        <ele>15.218</ele>
        <time>2019-06-21T13:25:00Z</time>
      </trkpt>
      <trkpt lat="43.265869" lon="-8.959996">
        <ele>15.430</ele>
        <time>2019-06-21T13:25:01Z</time>
      </trkpt>
      <trkpt lat="43.265955" lon="-8.959898">
        <ele>15.372</ele>
        <time>2019-06-21T13:25:02Z</time>
      </trkpt>
      <trkpt lat="43.266027" lon="-8.959799">
        <ele>14.689</ele>
        <time>2019-06-21T13:25:03Z</time>
      </trkpt>
      <trkpt lat="43.266120" lon="-8.959688">
        <ele>13.855</ele>
        <time>2019-06-21T13:25:04Z</time>
      </trkpt>
      <trkpt lat="43.266200" lon="-8.959574">
        <ele>13.399</ele>
        <time>2019-06-21T13:25:05Z</time>
      </trkpt>
      <trkpt lat="43.266278" lon="-8.959459">
        <ele>12.731</ele>
        <time>2019-06-21T13:25:06Z</time>
      </trkpt>
      <trkpt lat="43.266346" lon="-8.959344">
        <ele>12.573</ele>
        <time>2019-06-21T13:25:07Z</time>
      </trkpt>
      <trkpt lat="43.266424" lon="-8.959231">
        <ele>12.585</ele>
        <time>2019-06-21T13:25:08Z</time>
      </trkpt>
      <trkpt lat="43.266490" lon="-8.959125">
        <ele>12.613</ele>
        <time>2019-06-21T13:25:09Z</time>
      </trkpt>
      <trkpt lat="43.266524" lon="-8.959006">
        <ele>12.708</ele>
        <time>2019-06-21T13:25:10Z</time>
      </trkpt>
      <trkpt lat="43.266462" lon="-8.958889">
        <ele>11.820</ele>
        <time>2019-06-21T13:25:11Z</time>
      </trkpt>
      <trkpt lat="43.266437" lon="-8.958776">
        <ele>11.914</ele>
        <time>2019-06-21T13:25:12Z</time>
      </trkpt>
      <trkpt lat="43.266409" lon="-8.958640">
        <ele>12.066</ele>
        <time>2019-06-21T13:25:13Z</time>
      </trkpt>
      <trkpt lat="43.266332" lon="-8.958551">
        <ele>12.578</ele>
        <time>2019-06-21T13:25:14Z</time>
      </trkpt>
      <trkpt lat="43.266243" lon="-8.958475">
        <ele>13.225</ele>
        <time>2019-06-21T13:25:15Z</time>
      </trkpt>
      <trkpt lat="43.266174" lon="-8.958393">
        <ele>14.241</ele>
        <time>2019-06-21T13:25:16Z</time>
      </trkpt>
      <trkpt lat="43.266128" lon="-8.958302">
        <ele>15.365</ele>
        <time>2019-06-21T13:25:17Z</time>
      </trkpt>
      <trkpt lat="43.266108" lon="-8.958191">
        <ele>16.547</ele>
        <time>2019-06-21T13:25:18Z</time>
      </trkpt>
      <trkpt lat="43.266118" lon="-8.958077">
        <ele>17.729</ele>
        <time>2019-06-21T13:25:19Z</time>
      </trkpt>
      <trkpt lat="43.266156" lon="-8.957974">
        <ele>17.700</ele>
        <time>2019-06-21T13:25:20Z</time>
      </trkpt>
      <trkpt lat="43.266182" lon="-8.957855">
        <ele>17.720</ele>
        <time>2019-06-21T13:25:21Z</time>
      </trkpt>
      <trkpt lat="43.266266" lon="-8.957646">
        <ele>17.908</ele>
        <time>2019-06-21T13:25:22Z</time>
      </trkpt>
      <trkpt lat="43.266317" lon="-8.957477">
        <ele>18.215</ele>
        <time>2019-06-21T13:25:23Z</time>
      </trkpt>
      <trkpt lat="43.266377" lon="-8.957287">
        <ele>18.049</ele>
        <time>2019-06-21T13:25:24Z</time>
      </trkpt>
      <trkpt lat="43.266429" lon="-8.957091">
        <ele>17.481</ele>
        <time>2019-06-21T13:25:25Z</time>
      </trkpt>
      <trkpt lat="43.266483" lon="-8.956886">
        <ele>17.123</ele>
        <time>2019-06-21T13:25:26Z</time>
      </trkpt>
      <trkpt lat="43.266539" lon="-8.956670">
        <ele>17.580</ele>
        <time>2019-06-21T13:25:27Z</time>
      </trkpt>
      <trkpt lat="43.266589" lon="-8.956455">
        <ele>18.326</ele>
        <time>2019-06-21T13:25:28Z</time>
      </trkpt>
      <trkpt lat="43.266647" lon="-8.956239">
        <ele>19.480</ele>
        <time>2019-06-21T13:25:29Z</time>
      </trkpt>
      <trkpt lat="43.266704" lon="-8.956029">
        <ele>20.192</ele>
        <time>2019-06-21T13:25:30Z</time>
      </trkpt>
      <trkpt lat="43.266764" lon="-8.955824">
        <ele>20.725</ele>
        <time>2019-06-21T13:25:31Z</time>
      </trkpt>
      <trkpt lat="43.266823" lon="-8.955613">
        <ele>21.526</ele>
        <time>2019-06-21T13:25:32Z</time>
      </trkpt>
      <trkpt lat="43.266880" lon="-8.955402">
        <ele>22.608</ele>
        <time>2019-06-21T13:25:33Z</time>
      </trkpt>
      <trkpt lat="43.266936" lon="-8.955188">
        <ele>24.508</ele>
        <time>2019-06-21T13:25:34Z</time>
      </trkpt>
      <trkpt lat="43.266992" lon="-8.954975">
        <ele>26.315</ele>
        <time>2019-06-21T13:25:35Z</time>
      </trkpt>
      <trkpt lat="43.267053" lon="-8.954739">
        <ele>26.629</ele>
        <time>2019-06-21T13:25:36Z</time>
      </trkpt>
      <trkpt lat="43.267116" lon="-8.954518">
        <ele>26.941</ele>
        <time>2019-06-21T13:25:37Z</time>
      </trkpt>
      <trkpt lat="43.267175" lon="-8.954302">
        <ele>27.443</ele>
        <time>2019-06-21T13:25:38Z</time>
      </trkpt>
      <trkpt lat="43.267232" lon="-8.954085">
        <ele>27.870</ele>
        <time>2019-06-21T13:25:39Z</time>
      </trkpt>
      <trkpt lat="43.267292" lon="-8.953863">
        <ele>27.326</ele>
        <time>2019-06-21T13:25:40Z</time>
      </trkpt>
      <trkpt lat="43.267340" lon="-8.953619">
        <ele>26.350</ele>
        <time>2019-06-21T13:25:41Z</time>
      </trkpt>
      <trkpt lat="43.267417" lon="-8.953378">
        <ele>25.792</ele>
        <time>2019-06-21T13:25:42Z</time>
      </trkpt>
      <trkpt lat="43.267487" lon="-8.953128">
        <ele>25.135</ele>
        <time>2019-06-21T13:25:43Z</time>
      </trkpt>
      <trkpt lat="43.267557" lon="-8.952883">
        <ele>23.186</ele>
        <time>2019-06-21T13:25:44Z</time>
      </trkpt>
      <trkpt lat="43.267630" lon="-8.952644">
        <ele>21.614</ele>
        <time>2019-06-21T13:25:45Z</time>
      </trkpt>
      <trkpt lat="43.267688" lon="-8.952419">
        <ele>21.208</ele>
        <time>2019-06-21T13:25:46Z</time>
      </trkpt>
      <trkpt lat="43.267732" lon="-8.952223">
        <ele>21.026</ele>
        <time>2019-06-21T13:25:47Z</time>
      </trkpt>
      <trkpt lat="43.267801" lon="-8.952027">
        <ele>23.210</ele>
        <time>2019-06-21T13:25:48Z</time>
      </trkpt>
      <trkpt lat="43.267865" lon="-8.951854">
        <ele>24.082</ele>
        <time>2019-06-21T13:25:49Z</time>
      </trkpt>
      <trkpt lat="43.267952" lon="-8.951688">
        <ele>24.154</ele>
        <time>2019-06-21T13:25:50Z</time>
      </trkpt>
      <trkpt lat="43.268051" lon="-8.951529">
        <ele>23.541</ele>
        <time>2019-06-21T13:25:51Z</time>
      </trkpt>
      <trkpt lat="43.268168" lon="-8.951362">
        <ele>22.627</ele>
        <time>2019-06-21T13:25:52Z</time>
      </trkpt>
      <trkpt lat="43.268303" lon="-8.951211">
        <ele>21.921</ele>
        <time>2019-06-21T13:25:53Z</time>
      </trkpt>
      <trkpt lat="43.268443" lon="-8.951034">
        <ele>21.723</ele>
        <time>2019-06-21T13:25:54Z</time>
      </trkpt>
      <trkpt lat="43.268587" lon="-8.950851">
        <ele>22.067</ele>
        <time>2019-06-21T13:25:55Z</time>
      </trkpt>
      <trkpt lat="43.268734" lon="-8.950670">
        <ele>22.881</ele>
        <time>2019-06-21T13:25:56Z</time>
      </trkpt>
      <trkpt lat="43.268877" lon="-8.950486">
        <ele>23.319</ele>
        <time>2019-06-21T13:25:57Z</time>
      </trkpt>
      <trkpt lat="43.269007" lon="-8.950296">
        <ele>24.408</ele>
        <time>2019-06-21T13:25:58Z</time>
      </trkpt>
      <trkpt lat="43.269126" lon="-8.950103">
        <ele>24.939</ele>
        <time>2019-06-21T13:25:59Z</time>
      </trkpt>
      <trkpt lat="43.269238" lon="-8.949898">
        <ele>26.293</ele>
        <time>2019-06-21T13:26:00Z</time>
      </trkpt>
      <trkpt lat="43.269344" lon="-8.949696">
        <ele>27.315</ele>
        <time>2019-06-21T13:26:01Z</time>
      </trkpt>
      <trkpt lat="43.269449" lon="-8.949496">
        <ele>27.257</ele>
        <time>2019-06-21T13:26:02Z</time>
      </trkpt>
      <trkpt lat="43.269561" lon="-8.949306">
        <ele>26.964</ele>
        <time>2019-06-21T13:26:03Z</time>
      </trkpt>
      <trkpt lat="43.269669" lon="-8.949100">
        <ele>25.820</ele>
        <time>2019-06-21T13:26:04Z</time>
      </trkpt>
      <trkpt lat="43.269775" lon="-8.948888">
        <ele>25.254</ele>
        <time>2019-06-21T13:26:05Z</time>
      </trkpt>
      <trkpt lat="43.269872" lon="-8.948686">
        <ele>24.476</ele>
        <time>2019-06-21T13:26:06Z</time>
      </trkpt>
      <trkpt lat="43.269976" lon="-8.948478">
        <ele>23.639</ele>
        <time>2019-06-21T13:26:07Z</time>
      </trkpt>
      <trkpt lat="43.270066" lon="-8.948285">
        <ele>23.501</ele>
        <time>2019-06-21T13:26:08Z</time>
      </trkpt>
      <trkpt lat="43.270154" lon="-8.948066">
        <ele>24.121</ele>
        <time>2019-06-21T13:26:09Z</time>
      </trkpt>
      <trkpt lat="43.270225" lon="-8.947829">
        <ele>24.908</ele>
        <time>2019-06-21T13:26:10Z</time>
      </trkpt>
      <trkpt lat="43.270282" lon="-8.947585">
        <ele>25.726</ele>
        <time>2019-06-21T13:26:11Z</time>
      </trkpt>
      <trkpt lat="43.270338" lon="-8.947343">
        <ele>27.640</ele>
        <time>2019-06-21T13:26:12Z</time>
      </trkpt>
      <trkpt lat="43.270389" lon="-8.947098">
        <ele>29.182</ele>
        <time>2019-06-21T13:26:13Z</time>
      </trkpt>
      <trkpt lat="43.270433" lon="-8.946839">
        <ele>30.124</ele>
        <time>2019-06-21T13:26:14Z</time>
      </trkpt>
      <trkpt lat="43.270467" lon="-8.946577">
        <ele>31.961</ele>
        <time>2019-06-21T13:26:15Z</time>
      </trkpt>
      <trkpt lat="43.270502" lon="-8.946322">
        <ele>34.197</ele>
        <time>2019-06-21T13:26:16Z</time>
      </trkpt>
      <trkpt lat="43.270546" lon="-8.946068">
        <ele>36.461</ele>
        <time>2019-06-21T13:26:17Z</time>
      </trkpt>
      <trkpt lat="43.270602" lon="-8.945853">
        <ele>37.213</ele>
        <time>2019-06-21T13:26:18Z</time>
      </trkpt>
      <trkpt lat="43.270652" lon="-8.945630">
        <ele>38.623</ele>
        <time>2019-06-21T13:26:19Z</time>
      </trkpt>
      <trkpt lat="43.270704" lon="-8.945411">
        <ele>39.483</ele>
        <time>2019-06-21T13:26:20Z</time>
      </trkpt>
      <trkpt lat="43.270744" lon="-8.945212">
        <ele>39.911</ele>
        <time>2019-06-21T13:26:21Z</time>
      </trkpt>
      <trkpt lat="43.270768" lon="-8.945019">
        <ele>40.308</ele>
        <time>2019-06-21T13:26:22Z</time>
      </trkpt>
      <trkpt lat="43.270789" lon="-8.944828">
        <ele>41.775</ele>
        <time>2019-06-21T13:26:23Z</time>
      </trkpt>
      <trkpt lat="43.270805" lon="-8.944639">
        <ele>43.169</ele>
        <time>2019-06-21T13:26:24Z</time>
      </trkpt>
      <trkpt lat="43.270837" lon="-8.944436">
        <ele>44.091</ele>
        <time>2019-06-21T13:26:25Z</time>
      </trkpt>
      <trkpt lat="43.270895" lon="-8.944249">
        <ele>44.593</ele>
        <time>2019-06-21T13:26:26Z</time>
      </trkpt>
      <trkpt lat="43.270953" lon="-8.944072">
        <ele>45.510</ele>
        <time>2019-06-21T13:26:27Z</time>
      </trkpt>
      <trkpt lat="43.271012" lon="-8.943894">
        <ele>46.726</ele>
        <time>2019-06-21T13:26:28Z</time>
      </trkpt>
      <trkpt lat="43.271065" lon="-8.943720">
        <ele>49.090</ele>
        <time>2019-06-21T13:26:29Z</time>
      </trkpt>
      <trkpt lat="43.271116" lon="-8.943540">
        <ele>50.992</ele>
        <time>2019-06-21T13:26:30Z</time>
      </trkpt>
      <trkpt lat="43.271164" lon="-8.943367">
        <ele>52.489</ele>
        <time>2019-06-21T13:26:31Z</time>
      </trkpt>
      <trkpt lat="43.271195" lon="-8.943193">
        <ele>53.606</ele>
        <time>2019-06-21T13:26:32Z</time>
      </trkpt>
      <trkpt lat="43.271197" lon="-8.943015">
        <ele>55.126</ele>
        <time>2019-06-21T13:26:33Z</time>
      </trkpt>
      <trkpt lat="43.271202" lon="-8.942847">
        <ele>56.008</ele>
        <time>2019-06-21T13:26:34Z</time>
      </trkpt>
      <trkpt lat="43.271200" lon="-8.942691">
        <ele>57.211</ele>
        <time>2019-06-21T13:26:35Z</time>
      </trkpt>
      <trkpt lat="43.271197" lon="-8.942558">
        <ele>58.465</ele>
        <time>2019-06-21T13:26:36Z</time>
      </trkpt>
      <trkpt lat="43.271200" lon="-8.942432">
        <ele>59.237</ele>
        <time>2019-06-21T13:26:37Z</time>
      </trkpt>
      <trkpt lat="43.271215" lon="-8.942303">
        <ele>59.899</ele>
        <time>2019-06-21T13:26:38Z</time>
      </trkpt>
      <trkpt lat="43.271229" lon="-8.942179">
        <ele>60.336</ele>
        <time>2019-06-21T13:26:39Z</time>
      </trkpt>
      <trkpt lat="43.271243" lon="-8.942046">
        <ele>60.682</ele>
        <time>2019-06-21T13:26:40Z</time>
      </trkpt>
      <trkpt lat="43.271260" lon="-8.941916">
        <ele>60.826</ele>
        <time>2019-06-21T13:26:41Z</time>
      </trkpt>
      <trkpt lat="43.271276" lon="-8.941783">
        <ele>60.868</ele>
        <time>2019-06-21T13:26:42Z</time>
      </trkpt>
      <trkpt lat="43.271307" lon="-8.941631">
        <ele>60.641</ele>
        <time>2019-06-21T13:26:43Z</time>
      </trkpt>
      <trkpt lat="43.271337" lon="-8.941469">
        <ele>61.081</ele>
        <time>2019-06-21T13:26:44Z</time>
      </trkpt>
      <trkpt lat="43.271345" lon="-8.941299">
        <ele>61.609</ele>
        <time>2019-06-21T13:26:45Z</time>
      </trkpt>
      <trkpt lat="43.271349" lon="-8.941118">
        <ele>62.108</ele>
        <time>2019-06-21T13:26:46Z</time>
      </trkpt>
      <trkpt lat="43.271348" lon="-8.940961">
        <ele>62.187</ele>
        <time>2019-06-21T13:26:47Z</time>
      </trkpt>
      <trkpt lat="43.271347" lon="-8.940815">
        <ele>61.971</ele>
        <time>2019-06-21T13:26:48Z</time>
      </trkpt>
      <trkpt lat="43.271338" lon="-8.940681">
        <ele>61.583</ele>
        <time>2019-06-21T13:26:49Z</time>
      </trkpt>
      <trkpt lat="43.271333" lon="-8.940565">
        <ele>61.035</ele>
        <time>2019-06-21T13:26:50Z</time>
      </trkpt>
      <trkpt lat="43.271344" lon="-8.940452">
        <ele>60.632</ele>
        <time>2019-06-21T13:26:51Z</time>
      </trkpt>
      <trkpt lat="43.271357" lon="-8.940330">
        <ele>60.248</ele>
        <time>2019-06-21T13:26:52Z</time>
      </trkpt>
      <trkpt lat="43.271377" lon="-8.940179">
        <ele>60.382</ele>
        <time>2019-06-21T13:26:53Z</time>
      </trkpt>
      <trkpt lat="43.271374" lon="-8.940008">
        <ele>60.924</ele>
        <time>2019-06-21T13:26:54Z</time>
      </trkpt>
      <trkpt lat="43.271362" lon="-8.939809">
        <ele>62.723</ele>
        <time>2019-06-21T13:26:55Z</time>
      </trkpt>
      <trkpt lat="43.271359" lon="-8.939603">
        <ele>64.383</ele>
        <time>2019-06-21T13:26:56Z</time>
      </trkpt>
      <trkpt lat="43.271350" lon="-8.939388">
        <ele>65.211</ele>
        <time>2019-06-21T13:26:57Z</time>
      </trkpt>
      <trkpt lat="43.271338" lon="-8.939170">
        <ele>64.908</ele>
        <time>2019-06-21T13:26:58Z</time>
      </trkpt>
      <trkpt lat="43.271327" lon="-8.938941">
        <ele>64.595</ele>
        <time>2019-06-21T13:26:59Z</time>
      </trkpt>
      <trkpt lat="43.271318" lon="-8.938721">
        <ele>63.819</ele>
        <time>2019-06-21T13:27:00Z</time>
      </trkpt>
      <trkpt lat="43.271311" lon="-8.938490">
        <ele>63.321</ele>
        <time>2019-06-21T13:27:01Z</time>
      </trkpt>
      <trkpt lat="43.271312" lon="-8.938268">
        <ele>63.533</ele>
        <time>2019-06-21T13:27:02Z</time>
      </trkpt>
      <trkpt lat="43.271315" lon="-8.938037">
        <ele>64.290</ele>
        <time>2019-06-21T13:27:03Z</time>
      </trkpt>
      <trkpt lat="43.271325" lon="-8.937796">
        <ele>65.326</ele>
        <time>2019-06-21T13:27:04Z</time>
      </trkpt>
      <trkpt lat="43.271352" lon="-8.937556">
        <ele>66.890</ele>
        <time>2019-06-21T13:27:05Z</time>
      </trkpt>
      <trkpt lat="43.271397" lon="-8.937316">
        <ele>68.282</ele>
        <time>2019-06-21T13:27:06Z</time>
      </trkpt>
      <trkpt lat="43.271464" lon="-8.937079">
        <ele>69.439</ele>
        <time>2019-06-21T13:27:07Z</time>
      </trkpt>
      <trkpt lat="43.271551" lon="-8.936851">
        <ele>70.201</ele>
        <time>2019-06-21T13:27:08Z</time>
      </trkpt>
      <trkpt lat="43.271638" lon="-8.936625">
        <ele>70.021</ele>
        <time>2019-06-21T13:27:09Z</time>
      </trkpt>
      <trkpt lat="43.271727" lon="-8.936387">
        <ele>69.908</ele>
        <time>2019-06-21T13:27:10Z</time>
      </trkpt>
      <trkpt lat="43.271811" lon="-8.936138">
        <ele>71.326</ele>
        <time>2019-06-21T13:27:11Z</time>
      </trkpt>
      <trkpt lat="43.271884" lon="-8.935881">
        <ele>71.640</ele>
        <time>2019-06-21T13:27:12Z</time>
      </trkpt>
      <trkpt lat="43.271943" lon="-8.935620">
        <ele>73.092</ele>
        <time>2019-06-21T13:27:13Z</time>
      </trkpt>
      <trkpt lat="43.271990" lon="-8.935353">
        <ele>74.814</ele>
        <time>2019-06-21T13:27:14Z</time>
      </trkpt>
      <trkpt lat="43.272031" lon="-8.935090">
        <ele>74.921</ele>
        <time>2019-06-21T13:27:15Z</time>
      </trkpt>
      <trkpt lat="43.272064" lon="-8.934825">
        <ele>74.197</ele>
        <time>2019-06-21T13:27:16Z</time>
      </trkpt>
      <trkpt lat="43.272099" lon="-8.934568">
        <ele>73.971</ele>
        <time>2019-06-21T13:27:17Z</time>
      </trkpt>
      <trkpt lat="43.272151" lon="-8.934298">
        <ele>74.023</ele>
        <time>2019-06-21T13:27:18Z</time>
      </trkpt>
      <trkpt lat="43.272203" lon="-8.934045">
        <ele>73.625</ele>
        <time>2019-06-21T13:27:19Z</time>
      </trkpt>
      <trkpt lat="43.272290" lon="-8.933812">
        <ele>73.626</ele>
        <time>2019-06-21T13:27:20Z</time>
      </trkpt>
      <trkpt lat="43.272375" lon="-8.933581">
        <ele>73.108</ele>
        <time>2019-06-21T13:27:21Z</time>
      </trkpt>
      <trkpt lat="43.272475" lon="-8.933363">
        <ele>73.708</ele>
        <time>2019-06-21T13:27:22Z</time>
      </trkpt>
      <trkpt lat="43.272590" lon="-8.933152">
        <ele>75.065</ele>
        <time>2019-06-21T13:27:23Z</time>
      </trkpt>
      <trkpt lat="43.272721" lon="-8.932971">
        <ele>76.869</ele>
        <time>2019-06-21T13:27:24Z</time>
      </trkpt>
      <trkpt lat="43.272871" lon="-8.932789">
        <ele>78.881</ele>
        <time>2019-06-21T13:27:25Z</time>
      </trkpt>
      <trkpt lat="43.273021" lon="-8.932605">
        <ele>80.713</ele>
        <time>2019-06-21T13:27:26Z</time>
      </trkpt>
      <trkpt lat="43.273192" lon="-8.932429">
        <ele>83.980</ele>
        <time>2019-06-21T13:27:27Z</time>
      </trkpt>
      <trkpt lat="43.273355" lon="-8.932241">
        <ele>85.926</ele>
        <time>2019-06-21T13:27:28Z</time>
      </trkpt>
      <trkpt lat="43.273516" lon="-8.932062">
        <ele>86.780</ele>
        <time>2019-06-21T13:27:29Z</time>
      </trkpt>
      <trkpt lat="43.273635" lon="-8.931868">
        <ele>86.572</ele>
        <time>2019-06-21T13:27:30Z</time>
      </trkpt>
      <trkpt lat="43.273764" lon="-8.931708">
        <ele>87.497</ele>
        <time>2019-06-21T13:27:31Z</time>
      </trkpt>
      <trkpt lat="43.273872" lon="-8.931520">
        <ele>87.523</ele>
        <time>2019-06-21T13:27:32Z</time>
      </trkpt>
      <trkpt lat="43.273979" lon="-8.931348">
        <ele>88.525</ele>
        <time>2019-06-21T13:27:33Z</time>
      </trkpt>
      <trkpt lat="43.274076" lon="-8.931188">
        <ele>90.408</ele>
        <time>2019-06-21T13:27:34Z</time>
      </trkpt>
      <trkpt lat="43.274172" lon="-8.931022">
        <ele>92.272</ele>
        <time>2019-06-21T13:27:35Z</time>
      </trkpt>
      <trkpt lat="43.274261" lon="-8.930867">
        <ele>93.816</ele>
        <time>2019-06-21T13:27:36Z</time>
      </trkpt>
      <trkpt lat="43.274361" lon="-8.930696">
        <ele>94.928</ele>
        <time>2019-06-21T13:27:37Z</time>
      </trkpt>
      <trkpt lat="43.274466" lon="-8.930525">
        <ele>95.810</ele>
        <time>2019-06-21T13:27:38Z</time>
      </trkpt>
      <trkpt lat="43.274573" lon="-8.930353">
        <ele>95.027</ele>
        <time>2019-06-21T13:27:39Z</time>
      </trkpt>
      <trkpt lat="43.274688" lon="-8.930139">
        <ele>94.363</ele>
        <time>2019-06-21T13:27:40Z</time>
      </trkpt>
      <trkpt lat="43.274804" lon="-8.929941">
        <ele>93.447</ele>
        <time>2019-06-21T13:27:41Z</time>
      </trkpt>
      <trkpt lat="43.274929" lon="-8.929714">
        <ele>93.119</ele>
        <time>2019-06-21T13:27:42Z</time>
      </trkpt>
      <trkpt lat="43.275042" lon="-8.929508">
        <ele>93.842</ele>
        <time>2019-06-21T13:27:43Z</time>
      </trkpt>
      <trkpt lat="43.275168" lon="-8.929324">
        <ele>94.822</ele>
        <time>2019-06-21T13:27:44Z</time>
      </trkpt>
      <trkpt lat="43.275276" lon="-8.929111">
        <ele>94.614</ele>
        <time>2019-06-21T13:27:45Z</time>
      </trkpt>
      <trkpt lat="43.275399" lon="-8.928912">
        <ele>95.908</ele>
        <time>2019-06-21T13:27:46Z</time>
      </trkpt>
      <trkpt lat="43.275517" lon="-8.928706">
        <ele>96.847</ele>
        <time>2019-06-21T13:27:47Z</time>
      </trkpt>
      <trkpt lat="43.275635" lon="-8.928502">
        <ele>97.491</ele>
        <time>2019-06-21T13:27:48Z</time>
      </trkpt>
      <trkpt lat="43.275759" lon="-8.928294">
        <ele>97.293</ele>
        <time>2019-06-21T13:27:49Z</time>
      </trkpt>
      <trkpt lat="43.275877" lon="-8.928071">
        <ele>96.015</ele>
        <time>2019-06-21T13:27:50Z</time>
      </trkpt>
      <trkpt lat="43.275985" lon="-8.927840">
        <ele>95.842</ele>
        <time>2019-06-21T13:27:51Z</time>
      </trkpt>
      <trkpt lat="43.276081" lon="-8.927592">
        <ele>96.628</ele>
        <time>2019-06-21T13:27:52Z</time>
      </trkpt>
      <trkpt lat="43.276163" lon="-8.927333">
        <ele>98.632</ele>
        <time>2019-06-21T13:27:53Z</time>
      </trkpt>
      <trkpt lat="43.276242" lon="-8.927078">
        <ele>100.944</ele>
        <time>2019-06-21T13:27:54Z</time>
      </trkpt>
      <trkpt lat="43.276298" lon="-8.926775">
        <ele>103.453</ele>
        <time>2019-06-21T13:27:55Z</time>
      </trkpt>
      <trkpt lat="43.276311" lon="-8.926484">
        <ele>105.904</ele>
        <time>2019-06-21T13:27:56Z</time>
      </trkpt>
      <trkpt lat="43.276338" lon="-8.926191">
        <ele>107.714</ele>
        <time>2019-06-21T13:27:57Z</time>
      </trkpt>
      <trkpt lat="43.276351" lon="-8.925889">
        <ele>108.908</ele>
        <time>2019-06-21T13:27:58Z</time>
      </trkpt>
      <trkpt lat="43.276366" lon="-8.925590">
        <ele>111.688</ele>
        <time>2019-06-21T13:27:59Z</time>
      </trkpt>
      <trkpt lat="43.276400" lon="-8.925275">
        <ele>115.152</ele>
        <time>2019-06-21T13:28:00Z</time>
      </trkpt>
      <trkpt lat="43.276437" lon="-8.924978">
        <ele>117.644</ele>
        <time>2019-06-21T13:28:01Z</time>
      </trkpt>
      <trkpt lat="43.276492" lon="-8.924681">
        <ele>120.276</ele>
        <time>2019-06-21T13:28:02Z</time>
      </trkpt>
      <trkpt lat="43.276575" lon="-8.924388">
        <ele>124.083</ele>
        <time>2019-06-21T13:28:03Z</time>
      </trkpt>
      <trkpt lat="43.276665" lon="-8.924112">
        <ele>127.079</ele>
        <time>2019-06-21T13:28:04Z</time>
      </trkpt>
      <trkpt lat="43.276772" lon="-8.923860">
        <ele>128.233</ele>
        <time>2019-06-21T13:28:05Z</time>
      </trkpt>
      <trkpt lat="43.276837" lon="-8.923611">
        <ele>126.775</ele>
        <time>2019-06-21T13:28:06Z</time>
      </trkpt>
      <trkpt lat="43.276917" lon="-8.923342">
        <ele>124.696</ele>
        <time>2019-06-21T13:28:07Z</time>
      </trkpt>
      <trkpt lat="43.277004" lon="-8.923095">
        <ele>122.431</ele>
        <time>2019-06-21T13:28:08Z</time>
      </trkpt>
      <trkpt lat="43.277017" lon="-8.922809">
        <ele>118.724</ele>
        <time>2019-06-21T13:28:09Z</time>
      </trkpt>
      <trkpt lat="43.277068" lon="-8.922516">
        <ele>114.308</ele>
        <time>2019-06-21T13:28:10Z</time>
      </trkpt>
      <trkpt lat="43.277101" lon="-8.922240">
        <ele>111.382</ele>
        <time>2019-06-21T13:28:11Z</time>
      </trkpt>
      <trkpt lat="43.277095" lon="-8.921950">
        <ele>110.666</ele>
        <time>2019-06-21T13:28:12Z</time>
      </trkpt>
      <trkpt lat="43.277071" lon="-8.921663">
        <ele>109.488</ele>
        <time>2019-06-21T13:28:13Z</time>
      </trkpt>
      <trkpt lat="43.277046" lon="-8.921379">
        <ele>109.610</ele>
        <time>2019-06-21T13:28:14Z</time>
      </trkpt>
      <trkpt lat="43.276974" lon="-8.921075">
        <ele>111.887</ele>
        <time>2019-06-21T13:28:15Z</time>
      </trkpt>
      <trkpt lat="43.276889" lon="-8.920800">
        <ele>113.293</ele>
        <time>2019-06-21T13:28:16Z</time>
      </trkpt>
      <trkpt lat="43.276788" lon="-8.920518">
        <ele>114.617</ele>
        <time>2019-06-21T13:28:17Z</time>
      </trkpt>
      <trkpt lat="43.276672" lon="-8.920244">
        <ele>116.559</ele>
        <time>2019-06-21T13:28:18Z</time>
      </trkpt>
      <trkpt lat="43.276559" lon="-8.920002">
        <ele>120.427</ele>
        <time>2019-06-21T13:28:19Z</time>
      </trkpt>
      <trkpt lat="43.276439" lon="-8.919745">
        <ele>124.368</ele>
        <time>2019-06-21T13:28:20Z</time>
      </trkpt>
      <trkpt lat="43.276243" lon="-8.919560">
        <ele>126.514</ele>
        <time>2019-06-21T13:28:21Z</time>
      </trkpt>
      <trkpt lat="43.276076" lon="-8.919353">
        <ele>129.808</ele>
        <time>2019-06-21T13:28:22Z</time>
      </trkpt>
      <trkpt lat="43.275904" lon="-8.919145">
        <ele>133.715</ele>
        <time>2019-06-21T13:28:23Z</time>
      </trkpt>
      <trkpt lat="43.275729" lon="-8.918949">
        <ele>137.759</ele>
        <time>2019-06-21T13:28:24Z</time>
      </trkpt>
      <trkpt lat="43.275521" lon="-8.918855">
        <ele>139.511</ele>
        <time>2019-06-21T13:28:25Z</time>
      </trkpt>
      <trkpt lat="43.275316" lon="-8.918733">
        <ele>141.993</ele>
        <time>2019-06-21T13:28:26Z</time>
      </trkpt>
      <trkpt lat="43.275093" lon="-8.918676">
        <ele>144.540</ele>
        <time>2019-06-21T13:28:27Z</time>
      </trkpt>
      <trkpt lat="43.274868" lon="-8.918725">
        <ele>143.866</ele>
        <time>2019-06-21T13:28:28Z</time>
      </trkpt>
      <trkpt lat="43.274645" lon="-8.918693">
        <ele>145.320</ele>
        <time>2019-06-21T13:28:29Z</time>
      </trkpt>
      <trkpt lat="43.274412" lon="-8.918712">
        <ele>146.012</ele>
        <time>2019-06-21T13:28:30Z</time>
      </trkpt>
      <trkpt lat="43.274182" lon="-8.918764">
        <ele>148.437</ele>
        <time>2019-06-21T13:28:31Z</time>
      </trkpt>
      <trkpt lat="43.273935" lon="-8.918831">
        <ele>155.649</ele>
        <time>2019-06-21T13:28:32Z</time>
      </trkpt>
      <trkpt lat="43.273703" lon="-8.918876">
        <ele>161.713</ele>
        <time>2019-06-21T13:28:33Z</time>
      </trkpt>
      <trkpt lat="43.273520" lon="-8.919005">
        <ele>162.308</ele>
        <time>2019-06-21T13:28:34Z</time>
      </trkpt>
      <trkpt lat="43.273315" lon="-8.919077">
        <ele>164.766</ele>
        <time>2019-06-21T13:28:35Z</time>
      </trkpt>
      <trkpt lat="43.273095" lon="-8.919112">
        <ele>165.040</ele>
        <time>2019-06-21T13:28:36Z</time>
      </trkpt>
      <trkpt lat="43.272857" lon="-8.919144">
        <ele>163.052</ele>
        <time>2019-06-21T13:28:37Z</time>
      </trkpt>
      <trkpt lat="43.272621" lon="-8.919144">
        <ele>161.844</ele>
        <time>2019-06-21T13:28:38Z</time>
      </trkpt>
      <trkpt lat="43.272375" lon="-8.919114">
        <ele>162.051</ele>
        <time>2019-06-21T13:28:39Z</time>
      </trkpt>
      <trkpt lat="43.272135" lon="-8.919083">
        <ele>164.147</ele>
        <time>2019-06-21T13:28:40Z</time>
      </trkpt>
      <trkpt lat="43.271894" lon="-8.919027">
        <ele>167.541</ele>
        <time>2019-06-21T13:28:41Z</time>
      </trkpt>
      <trkpt lat="43.271662" lon="-8.918976">
        <ele>169.293</ele>
        <time>2019-06-21T13:28:42Z</time>
      </trkpt>
      <trkpt lat="43.271420" lon="-8.918909">
        <ele>169.723</ele>
        <time>2019-06-21T13:28:43Z</time>
      </trkpt>
      <trkpt lat="43.271180" lon="-8.918855">
        <ele>169.883</ele>
        <time>2019-06-21T13:28:44Z</time>
      </trkpt>
      <trkpt lat="43.270939" lon="-8.918799">
        <ele>170.111</ele>
        <time>2019-06-21T13:28:45Z</time>
      </trkpt>
      <trkpt lat="43.270693" lon="-8.918743">
        <ele>169.808</ele>
        <time>2019-06-21T13:28:46Z</time>
      </trkpt>
      <trkpt lat="43.270436" lon="-8.918708">
        <ele>170.335</ele>
        <time>2019-06-21T13:28:47Z</time>
      </trkpt>
      <trkpt lat="43.270176" lon="-8.918671">
        <ele>172.429</ele>
        <time>2019-06-21T13:28:48Z</time>
      </trkpt>
      <trkpt lat="43.269923" lon="-8.918626">
        <ele>174.251</ele>
        <time>2019-06-21T13:28:49Z</time>
      </trkpt>
      <trkpt lat="43.269672" lon="-8.918578">
        <ele>174.783</ele>
        <time>2019-06-21T13:28:50Z</time>
      </trkpt>
      <trkpt lat="43.269430" lon="-8.918544">
        <ele>173.810</ele>
        <time>2019-06-21T13:28:51Z</time>
      </trkpt>
      <trkpt lat="43.269182" lon="-8.918487">
        <ele>174.076</ele>
        <time>2019-06-21T13:28:52Z</time>
      </trkpt>
      <trkpt lat="43.268939" lon="-8.918439">
        <ele>175.340</ele>
        <time>2019-06-21T13:28:53Z</time>
      </trkpt>
      <trkpt lat="43.268690" lon="-8.918388">
        <ele>178.162</ele>
        <time>2019-06-21T13:28:54Z</time>
      </trkpt>
      <trkpt lat="43.268438" lon="-8.918332">
        <ele>180.244</ele>
        <time>2019-06-21T13:28:55Z</time>
      </trkpt>
      <trkpt lat="43.268199" lon="-8.918273">
        <ele>181.005</ele>
        <time>2019-06-21T13:28:56Z</time>
      </trkpt>
      <trkpt lat="43.267958" lon="-8.918201">
        <ele>180.815</ele>
        <time>2019-06-21T13:28:57Z</time>
      </trkpt>
      <trkpt lat="43.267718" lon="-8.918136">
        <ele>180.208</ele>
        <time>2019-06-21T13:28:58Z</time>
      </trkpt>
      <trkpt lat="43.267485" lon="-8.918041">
        <ele>180.057</ele>
        <time>2019-06-21T13:28:59Z</time>
      </trkpt>
      <trkpt lat="43.267241" lon="-8.917933">
        <ele>180.081</ele>
        <time>2019-06-21T13:29:00Z</time>
      </trkpt>
      <trkpt lat="43.266987" lon="-8.917812">
        <ele>180.113</ele>
        <time>2019-06-21T13:29:01Z</time>
      </trkpt>
      <trkpt lat="43.266727" lon="-8.917698">
        <ele>177.975</ele>
        <time>2019-06-21T13:29:02Z</time>
      </trkpt>
      <trkpt lat="43.266469" lon="-8.917546">
        <ele>175.572</ele>
        <time>2019-06-21T13:29:03Z</time>
      </trkpt>
      <trkpt lat="43.266204" lon="-8.917396">
        <ele>174.438</ele>
        <time>2019-06-21T13:29:04Z</time>
      </trkpt>
      <trkpt lat="43.265932" lon="-8.917243">
        <ele>172.642</ele>
        <time>2019-06-21T13:29:05Z</time>
      </trkpt>
      <trkpt lat="43.265648" lon="-8.917080">
        <ele>171.324</ele>
        <time>2019-06-21T13:29:06Z</time>
      </trkpt>
      <trkpt lat="43.265372" lon="-8.916919">
        <ele>170.734</ele>
        <time>2019-06-21T13:29:07Z</time>
      </trkpt>
      <trkpt lat="43.265096" lon="-8.916757">
        <ele>167.055</ele>
        <time>2019-06-21T13:29:08Z</time>
      </trkpt>
      <trkpt lat="43.264870" lon="-8.916637">
        <ele>164.010</ele>
        <time>2019-06-21T13:29:09Z</time>
      </trkpt>
      <trkpt lat="43.264627" lon="-8.916498">
        <ele>160.608</ele>
        <time>2019-06-21T13:29:10Z</time>
      </trkpt>
      <trkpt lat="43.264400" lon="-8.916361">
        <ele>158.616</ele>
        <time>2019-06-21T13:29:11Z</time>
      </trkpt>
      <trkpt lat="43.264164" lon="-8.916238">
        <ele>157.150</ele>
        <time>2019-06-21T13:29:12Z</time>
      </trkpt>
      <trkpt lat="43.263918" lon="-8.916092">
        <ele>155.412</ele>
        <time>2019-06-21T13:29:13Z</time>
      </trkpt>
      <trkpt lat="43.263672" lon="-8.915950">
        <ele>153.284</ele>
        <time>2019-06-21T13:29:14Z</time>
      </trkpt>
      <trkpt lat="43.263440" lon="-8.915813">
        <ele>152.421</ele>
        <time>2019-06-21T13:29:15Z</time>
      </trkpt>
      <trkpt lat="43.263200" lon="-8.915670">
        <ele>151.097</ele>
        <time>2019-06-21T13:29:16Z</time>
      </trkpt>
      <trkpt lat="43.262984" lon="-8.915556">
        <ele>149.721</ele>
        <time>2019-06-21T13:29:17Z</time>
      </trkpt>
      <trkpt lat="43.262752" lon="-8.915426">
        <ele>148.443</ele>
        <time>2019-06-21T13:29:18Z</time>
      </trkpt>
      <trkpt lat="43.262505" lon="-8.915303">
        <ele>147.164</ele>
        <time>2019-06-21T13:29:19Z</time>
      </trkpt>
      <trkpt lat="43.262259" lon="-8.915178">
        <ele>147.506</ele>
        <time>2019-06-21T13:29:20Z</time>
      </trkpt>
      <trkpt lat="43.262024" lon="-8.915060">
        <ele>147.216</ele>
        <time>2019-06-21T13:29:21Z</time>
      </trkpt>
      <trkpt lat="43.261792" lon="-8.914957">
        <ele>146.808</ele>
        <time>2019-06-21T13:29:22Z</time>
      </trkpt>
      <trkpt lat="43.261544" lon="-8.914843">
        <ele>145.799</ele>
        <time>2019-06-21T13:29:23Z</time>
      </trkpt>
      <trkpt lat="43.261284" lon="-8.914786">
        <ele>145.993</ele>
        <time>2019-06-21T13:29:24Z</time>
      </trkpt>
      <trkpt lat="43.261033" lon="-8.914741">
        <ele>146.975</ele>
        <time>2019-06-21T13:29:25Z</time>
      </trkpt>
      <trkpt lat="43.260784" lon="-8.914682">
        <ele>148.317</ele>
        <time>2019-06-21T13:29:26Z</time>
      </trkpt>
      <trkpt lat="43.260558" lon="-8.914625">
        <ele>150.264</ele>
        <time>2019-06-21T13:29:27Z</time>
      </trkpt>
      <trkpt lat="43.260315" lon="-8.914559">
        <ele>151.560</ele>
        <time>2019-06-21T13:29:28Z</time>
      </trkpt>
      <trkpt lat="43.260083" lon="-8.914479">
        <ele>150.794</ele>
        <time>2019-06-21T13:29:29Z</time>
      </trkpt>
      <trkpt lat="43.259882" lon="-8.914401">
        <ele>147.566</ele>
        <time>2019-06-21T13:29:30Z</time>
      </trkpt>
      <trkpt lat="43.259659" lon="-8.914268">
        <ele>142.428</ele>
        <time>2019-06-21T13:29:31Z</time>
      </trkpt>
      <trkpt lat="43.259441" lon="-8.914111">
        <ele>139.389</ele>
        <time>2019-06-21T13:29:32Z</time>
      </trkpt>
      <trkpt lat="43.259232" lon="-8.913919">
        <ele>140.317</ele>
        <time>2019-06-21T13:29:33Z</time>
      </trkpt>
      <trkpt lat="43.259036" lon="-8.913701">
        <ele>141.908</ele>
        <time>2019-06-21T13:29:34Z</time>
      </trkpt>
      <trkpt lat="43.258844" lon="-8.913481">
        <ele>141.895</ele>
        <time>2019-06-21T13:29:35Z</time>
      </trkpt>
      <trkpt lat="43.258686" lon="-8.913267">
        <ele>139.759</ele>
        <time>2019-06-21T13:29:36Z</time>
      </trkpt>
      <trkpt lat="43.258518" lon="-8.913048">
        <ele>136.931</ele>
        <time>2019-06-21T13:29:37Z</time>
      </trkpt>
      <trkpt lat="43.258351" lon="-8.912835">
        <ele>133.493</ele>
        <time>2019-06-21T13:29:38Z</time>
      </trkpt>
      <trkpt lat="43.258168" lon="-8.912641">
        <ele>130.840</ele>
        <time>2019-06-21T13:29:39Z</time>
      </trkpt>
      <trkpt lat="43.257981" lon="-8.912468">
        <ele>128.466</ele>
        <time>2019-06-21T13:29:40Z</time>
      </trkpt>
      <trkpt lat="43.257786" lon="-8.912300">
        <ele>127.410</ele>
        <time>2019-06-21T13:29:41Z</time>
      </trkpt>
      <trkpt lat="43.257589" lon="-8.912133">
        <ele>124.562</ele>
        <time>2019-06-21T13:29:42Z</time>
      </trkpt>
      <trkpt lat="43.257345" lon="-8.912020">
        <ele>121.812</ele>
        <time>2019-06-21T13:29:43Z</time>
      </trkpt>
      <trkpt lat="43.257120" lon="-8.911916">
        <ele>119.232</ele>
        <time>2019-06-21T13:29:44Z</time>
      </trkpt>
      <trkpt lat="43.256907" lon="-8.911806">
        <ele>118.105</ele>
        <time>2019-06-21T13:29:45Z</time>
      </trkpt>
      <trkpt lat="43.256668" lon="-8.911802">
        <ele>118.508</ele>
        <time>2019-06-21T13:29:46Z</time>
      </trkpt>
      <trkpt lat="43.256428" lon="-8.911815">
        <ele>114.754</ele>
        <time>2019-06-21T13:29:47Z</time>
      </trkpt>
      <trkpt lat="43.256187" lon="-8.911857">
        <ele>108.338</ele>
        <time>2019-06-21T13:29:48Z</time>
      </trkpt>
      <trkpt lat="43.255954" lon="-8.911912">
        <ele>102.180</ele>
        <time>2019-06-21T13:29:49Z</time>
      </trkpt>
      <trkpt lat="43.255721" lon="-8.911941">
        <ele>95.792</ele>
        <time>2019-06-21T13:29:50Z</time>
      </trkpt>
      <trkpt lat="43.255479" lon="-8.912040">
        <ele>90.429</ele>
        <time>2019-06-21T13:29:51Z</time>
      </trkpt>
      <trkpt lat="43.255278" lon="-8.912185">
        <ele>88.115</ele>
        <time>2019-06-21T13:29:52Z</time>
      </trkpt>
      <trkpt lat="43.255075" lon="-8.912307">
        <ele>84.549</ele>
        <time>2019-06-21T13:29:53Z</time>
      </trkpt>
      <trkpt lat="43.254911" lon="-8.912580">
        <ele>87.461</ele>
        <time>2019-06-21T13:29:54Z</time>
      </trkpt>
      <trkpt lat="43.254713" lon="-8.912730">
        <ele>87.542</ele>
        <time>2019-06-21T13:29:55Z</time>
      </trkpt>
      <trkpt lat="43.254497" lon="-8.912843">
        <ele>89.522</ele>
        <time>2019-06-21T13:29:56Z</time>
      </trkpt>
      <trkpt lat="43.254255" lon="-8.912906">
        <ele>90.114</ele>
        <time>2019-06-21T13:29:57Z</time>
      </trkpt>
      <trkpt lat="43.254023" lon="-8.912971">
        <ele>91.708</ele>
        <time>2019-06-21T13:29:58Z</time>
      </trkpt>
      <trkpt lat="43.253776" lon="-8.912967">
        <ele>88.887</ele>
        <time>2019-06-21T13:29:59Z</time>
      </trkpt>
      <trkpt lat="43.253552" lon="-8.912958">
        <ele>86.451</ele>
        <time>2019-06-21T13:30:00Z</time>
      </trkpt>
      <trkpt lat="43.253308" lon="-8.912944">
        <ele>87.133</ele>
        <time>2019-06-21T13:30:01Z</time>
      </trkpt>
      <trkpt lat="43.253071" lon="-8.912931">
        <ele>89.725</ele>
        <time>2019-06-21T13:30:02Z</time>
      </trkpt>
      <trkpt lat="43.252847" lon="-8.912925">
        <ele>87.882</ele>
        <time>2019-06-21T13:30:03Z</time>
      </trkpt>
      <trkpt lat="43.252611" lon="-8.912933">
        <ele>83.448</ele>
        <time>2019-06-21T13:30:04Z</time>
      </trkpt>
      <trkpt lat="43.252378" lon="-8.912938">
        <ele>79.432</ele>
        <time>2019-06-21T13:30:05Z</time>
      </trkpt>
      <trkpt lat="43.252149" lon="-8.912993">
        <ele>77.364</ele>
        <time>2019-06-21T13:30:06Z</time>
      </trkpt>
      <trkpt lat="43.251941" lon="-8.913082">
        <ele>75.595</ele>
        <time>2019-06-21T13:30:07Z</time>
      </trkpt>
      <trkpt lat="43.251721" lon="-8.913152">
        <ele>71.749</ele>
        <time>2019-06-21T13:30:08Z</time>
      </trkpt>
      <trkpt lat="43.251502" lon="-8.913288">
        <ele>70.523</ele>
        <time>2019-06-21T13:30:09Z</time>
      </trkpt>
      <trkpt lat="43.251275" lon="-8.913397">
        <ele>67.308</ele>
        <time>2019-06-21T13:30:10Z</time>
      </trkpt>
      <trkpt lat="43.251097" lon="-8.913652">
        <ele>67.412</ele>
        <time>2019-06-21T13:30:11Z</time>
      </trkpt>
      <trkpt lat="43.250893" lon="-8.913828">
        <ele>65.156</ele>
        <time>2019-06-21T13:30:12Z</time>
      </trkpt>
      <trkpt lat="43.250712" lon="-8.914014">
        <ele>62.278</ele>
        <time>2019-06-21T13:30:13Z</time>
      </trkpt>
      <trkpt lat="43.250531" lon="-8.914176">
        <ele>58.440</ele>
        <time>2019-06-21T13:30:14Z</time>
      </trkpt>
      <trkpt lat="43.250357" lon="-8.914324">
        <ele>55.697</ele>
        <time>2019-06-21T13:30:15Z</time>
      </trkpt>
      <trkpt lat="43.250190" lon="-8.914442">
        <ele>51.513</ele>
        <time>2019-06-21T13:30:16Z</time>
      </trkpt>
      <trkpt lat="43.250027" lon="-8.914560">
        <ele>48.437</ele>
        <time>2019-06-21T13:30:17Z</time>
      </trkpt>
      <trkpt lat="43.249889" lon="-8.914692">
        <ele>48.449</ele>
        <time>2019-06-21T13:30:18Z</time>
      </trkpt>
      <trkpt lat="43.249762" lon="-8.914821">
        <ele>48.248</ele>
        <time>2019-06-21T13:30:19Z</time>
      </trkpt>
      <trkpt lat="43.249640" lon="-8.914943">
        <ele>47.861</ele>
        <time>2019-06-21T13:30:20Z</time>
      </trkpt>
      <trkpt lat="43.249548" lon="-8.915020">
        <ele>47.117</ele>
        <time>2019-06-21T13:30:21Z</time>
      </trkpt>
      <trkpt lat="43.249531" lon="-8.915092">
        <ele>48.508</ele>
        <time>2019-06-21T13:30:22Z</time>
      </trkpt>
      <trkpt lat="43.249464" lon="-8.915153">
        <ele>47.977</ele>
        <time>2019-06-21T13:30:23Z</time>
      </trkpt>
      <trkpt lat="43.249395" lon="-8.915214">
        <ele>46.911</ele>
        <time>2019-06-21T13:30:24Z</time>
      </trkpt>
      <trkpt lat="43.249324" lon="-8.915246">
        <ele>45.163</ele>
        <time>2019-06-21T13:30:25Z</time>
      </trkpt>
      <trkpt lat="43.249239" lon="-8.915310">
        <ele>43.475</ele>
        <time>2019-06-21T13:30:26Z</time>
      </trkpt>
      <trkpt lat="43.249167" lon="-8.915387">
        <ele>42.892</ele>
        <time>2019-06-21T13:30:27Z</time>
      </trkpt>
      <trkpt lat="43.249110" lon="-8.915476">
        <ele>43.618</ele>
        <time>2019-06-21T13:30:28Z</time>
      </trkpt>
      <trkpt lat="43.249050" lon="-8.915556">
        <ele>44.172</ele>
        <time>2019-06-21T13:30:29Z</time>
      </trkpt>
      <trkpt lat="43.249051" lon="-8.915662">
        <ele>47.444</ele>
        <time>2019-06-21T13:30:30Z</time>
      </trkpt>
      <trkpt lat="43.249018" lon="-8.915750">
        <ele>49.284</ele>
        <time>2019-06-21T13:30:31Z</time>
      </trkpt>
      <trkpt lat="43.248978" lon="-8.915870">
        <ele>51.707</ele>
        <time>2019-06-21T13:30:32Z</time>
      </trkpt>
      <trkpt lat="43.248945" lon="-8.915972">
        <ele>53.717</ele>
        <time>2019-06-21T13:30:33Z</time>
      </trkpt>
      <trkpt lat="43.248906" lon="-8.916076">
        <ele>55.508</ele>
        <time>2019-06-21T13:30:34Z</time>
      </trkpt>
      <trkpt lat="43.248864" lon="-8.916173">
        <ele>56.241</ele>
        <time>2019-06-21T13:30:35Z</time>
      </trkpt>
      <trkpt lat="43.248828" lon="-8.916275">
        <ele>56.675</ele>
        <time>2019-06-21T13:30:36Z</time>
      </trkpt>
      <trkpt lat="43.248805" lon="-8.916362">
        <ele>57.297</ele>
        <time>2019-06-21T13:30:37Z</time>
      </trkpt>
      <trkpt lat="43.248777" lon="-8.916439">
        <ele>57.119</ele>
        <time>2019-06-21T13:30:38Z</time>
      </trkpt>
      <trkpt lat="43.248764" lon="-8.916500">
        <ele>57.356</ele>
        <time>2019-06-21T13:30:40Z</time>
      </trkpt>
      <trkpt lat="43.248751" lon="-8.916419">
        <ele>55.982</ele>
        <time>2019-06-21T13:30:47Z</time>
      </trkpt>
      <trkpt lat="43.248781" lon="-8.916331">
        <ele>55.846</ele>
        <time>2019-06-21T13:30:48Z</time>
      </trkpt>
      <trkpt lat="43.248815" lon="-8.916238">
        <ele>55.578</ele>
        <time>2019-06-21T13:30:49Z</time>
      </trkpt>
      <trkpt lat="43.248865" lon="-8.916119">
        <ele>55.351</ele>
        <time>2019-06-21T13:30:50Z</time>
      </trkpt>
      <trkpt lat="43.248946" lon="-8.915973">
        <ele>53.801</ele>
        <time>2019-06-21T13:30:51Z</time>
      </trkpt>
      <trkpt lat="43.249007" lon="-8.915839">
        <ele>51.611</ele>
        <time>2019-06-21T13:30:52Z</time>
      </trkpt>
      <trkpt lat="43.249059" lon="-8.915706">
        <ele>49.008</ele>
        <time>2019-06-21T13:30:53Z</time>
      </trkpt>
      <trkpt lat="43.249120" lon="-8.915575">
        <ele>46.448</ele>
        <time>2019-06-21T13:30:54Z</time>
      </trkpt>
      <trkpt lat="43.249166" lon="-8.915466">
        <ele>44.742</ele>
        <time>2019-06-21T13:30:55Z</time>
      </trkpt>
      <trkpt lat="43.249221" lon="-8.915358">
        <ele>44.054</ele>
        <time>2019-06-21T13:30:56Z</time>
      </trkpt>
      <trkpt lat="43.249281" lon="-8.915244">
        <ele>43.516</ele>
        <time>2019-06-21T13:30:57Z</time>
      </trkpt>
      <trkpt lat="43.249327" lon="-8.915129">
        <ele>43.023</ele>
        <time>2019-06-21T13:30:58Z</time>
      </trkpt>
      <trkpt lat="43.249362" lon="-8.914999">
        <ele>41.649</ele>
        <time>2019-06-21T13:30:59Z</time>
      </trkpt>
      <trkpt lat="43.249392" lon="-8.914880">
        <ele>40.543</ele>
        <time>2019-06-21T13:31:00Z</time>
      </trkpt>
      <trkpt lat="43.249426" lon="-8.914752">
        <ele>39.195</ele>
        <time>2019-06-21T13:31:01Z</time>
      </trkpt>
      <trkpt lat="43.249466" lon="-8.914622">
        <ele>37.356</ele>
        <time>2019-06-21T13:31:02Z</time>
      </trkpt>
      <trkpt lat="43.249537" lon="-8.914509">
        <ele>36.459</ele>
        <time>2019-06-21T13:31:03Z</time>
      </trkpt>
      <trkpt lat="43.249609" lon="-8.914393">
        <ele>35.614</ele>
        <time>2019-06-21T13:31:04Z</time>
      </trkpt>
      <trkpt lat="43.249681" lon="-8.914274">
        <ele>34.608</ele>
        <time>2019-06-21T13:31:05Z</time>
      </trkpt>
      <trkpt lat="43.249750" lon="-8.914150">
        <ele>33.438</ele>
        <time>2019-06-21T13:31:06Z</time>
      </trkpt>
      <trkpt lat="43.249812" lon="-8.914035">
        <ele>33.412</ele>
        <time>2019-06-21T13:31:07Z</time>
      </trkpt>
      <trkpt lat="43.249868" lon="-8.913905">
        <ele>32.884</ele>
        <time>2019-06-21T13:31:08Z</time>
      </trkpt>
      <trkpt lat="43.249902" lon="-8.913763">
        <ele>32.516</ele>
        <time>2019-06-21T13:31:09Z</time>
      </trkpt>
      <trkpt lat="43.249927" lon="-8.913613">
        <ele>32.023</ele>
        <time>2019-06-21T13:31:10Z</time>
      </trkpt>
      <trkpt lat="43.249903" lon="-8.913493">
        <ele>31.199</ele>
        <time>2019-06-21T13:31:11Z</time>
      </trkpt>
      <trkpt lat="43.249874" lon="-8.913364">
        <ele>30.243</ele>
        <time>2019-06-21T13:31:12Z</time>
      </trkpt>
      <trkpt lat="43.249774" lon="-8.913264">
        <ele>29.175</ele>
        <time>2019-06-21T13:31:13Z</time>
      </trkpt>
      <trkpt lat="43.249678" lon="-8.913187">
        <ele>28.246</ele>
        <time>2019-06-21T13:31:14Z</time>
      </trkpt>
      <trkpt lat="43.249566" lon="-8.913120">
        <ele>27.188</ele>
        <time>2019-06-21T13:31:15Z</time>
      </trkpt>
      <trkpt lat="43.249440" lon="-8.913054">
        <ele>25.916</ele>
        <time>2019-06-21T13:31:16Z</time>
      </trkpt>
      <trkpt lat="43.249312" lon="-8.912987">
        <ele>24.608</ele>
        <time>2019-06-21T13:31:17Z</time>
      </trkpt>
      <trkpt lat="43.249179" lon="-8.912913">
        <ele>23.677</ele>
        <time>2019-06-21T13:31:18Z</time>
      </trkpt>
      <trkpt lat="43.249061" lon="-8.912855">
        <ele>22.831</ele>
        <time>2019-06-21T13:31:19Z</time>
      </trkpt>
      <trkpt lat="43.248932" lon="-8.912783">
        <ele>22.353</ele>
        <time>2019-06-21T13:31:20Z</time>
      </trkpt>
      <trkpt lat="43.248801" lon="-8.912710">
        <ele>21.055</ele>
        <time>2019-06-21T13:31:21Z</time>
      </trkpt>
      <trkpt lat="43.248663" lon="-8.912630">
        <ele>19.382</ele>
        <time>2019-06-21T13:31:22Z</time>
      </trkpt>
      <trkpt lat="43.248524" lon="-8.912556">
        <ele>17.868</ele>
        <time>2019-06-21T13:31:23Z</time>
      </trkpt>
      <trkpt lat="43.248379" lon="-8.912497">
        <ele>16.542</ele>
        <time>2019-06-21T13:31:24Z</time>
      </trkpt>
      <trkpt lat="43.248247" lon="-8.912421">
        <ele>15.714</ele>
        <time>2019-06-21T13:31:25Z</time>
      </trkpt>
      <trkpt lat="43.248115" lon="-8.912346">
        <ele>15.031</ele>
        <time>2019-06-21T13:31:26Z</time>
      </trkpt>
      <trkpt lat="43.247992" lon="-8.912265">
        <ele>14.261</ele>
        <time>2019-06-21T13:31:27Z</time>
      </trkpt>
      <trkpt lat="43.247864" lon="-8.912155">
        <ele>12.907</ele>
        <time>2019-06-21T13:31:28Z</time>
      </trkpt>
      <trkpt lat="43.247740" lon="-8.912026">
        <ele>11.708</ele>
        <time>2019-06-21T13:31:29Z</time>
      </trkpt>
      <trkpt lat="43.247609" lon="-8.911867">
        <ele>10.846</ele>
        <time>2019-06-21T13:31:30Z</time>
      </trkpt>
      <trkpt lat="43.247493" lon="-8.911677">
        <ele>9.910</ele>
        <time>2019-06-21T13:31:31Z</time>
      </trkpt>
      <trkpt lat="43.247358" lon="-8.911484">
        <ele>8.072</ele>
        <time>2019-06-21T13:31:32Z</time>
      </trkpt>
      <trkpt lat="43.247215" lon="-8.911265">
        <ele>5.584</ele>
        <time>2019-06-21T13:31:33Z</time>
      </trkpt>
      <trkpt lat="43.247066" lon="-8.911043">
        <ele>3.091</ele>
        <time>2019-06-21T13:31:34Z</time>
      </trkpt>
      <trkpt lat="43.246919" lon="-8.910802">
        <ele>1.127</ele>
        <time>2019-06-21T13:31:35Z</time>
      </trkpt>
      <trkpt lat="43.246772" lon="-8.910553">
        <ele>2.091</ele>
        <time>2019-06-21T13:31:36Z</time>
      </trkpt>
      <trkpt lat="43.246622" lon="-8.910302">
        <ele>2.873</ele>
        <time>2019-06-21T13:31:37Z</time>
      </trkpt>
      <trkpt lat="43.246466" lon="-8.910053">
        <ele>2.366</ele>
        <time>2019-06-21T13:31:38Z</time>
      </trkpt>
      <trkpt lat="43.246294" lon="-8.909795">
        <ele>1.929</ele>
        <time>2019-06-21T13:31:39Z</time>
      </trkpt>
      <trkpt lat="43.246121" lon="-8.909552">
        <ele>2.021</ele>
        <time>2019-06-21T13:31:40Z</time>
      </trkpt>
      <trkpt lat="43.245961" lon="-8.909311">
        <ele>2.008</ele>
        <time>2019-06-21T13:31:41Z</time>
      </trkpt>
      <trkpt lat="43.245798" lon="-8.909053">
        <ele>2.029</ele>
        <time>2019-06-21T13:31:42Z</time>
      </trkpt>
      <trkpt lat="43.245637" lon="-8.908804">
        <ele>2.033</ele>
        <time>2019-06-21T13:31:43Z</time>
      </trkpt>
      <trkpt lat="43.245474" lon="-8.908577">
        <ele>2.125</ele>
        <time>2019-06-21T13:31:44Z</time>
      </trkpt>
      <trkpt lat="43.245310" lon="-8.908316">
        <ele>2.217</ele>
        <time>2019-06-21T13:31:45Z</time>
      </trkpt>
      <trkpt lat="43.245145" lon="-8.908076">
        <ele>2.514</ele>
        <time>2019-06-21T13:31:46Z</time>
      </trkpt>
      <trkpt lat="43.244981" lon="-8.907831">
        <ele>2.890</ele>
        <time>2019-06-21T13:31:47Z</time>
      </trkpt>
      <trkpt lat="43.244826" lon="-8.907586">
        <ele>3.414</ele>
        <time>2019-06-21T13:31:48Z</time>
      </trkpt>
      <trkpt lat="43.244678" lon="-8.907359">
        <ele>4.676</ele>
        <time>2019-06-21T13:31:49Z</time>
      </trkpt>
      <trkpt lat="43.244538" lon="-8.907138">
        <ele>6.375</ele>
        <time>2019-06-21T13:31:50Z</time>
      </trkpt>
      <trkpt lat="43.244408" lon="-8.906939">
        <ele>8.128</ele>
        <time>2019-06-21T13:31:51Z</time>
      </trkpt>
      <trkpt lat="43.244286" lon="-8.906752">
        <ele>8.920</ele>
        <time>2019-06-21T13:31:52Z</time>
      </trkpt>
      <trkpt lat="43.244185" lon="-8.906582">
        <ele>9.008</ele>
        <time>2019-06-21T13:31:53Z</time>
      </trkpt>
      <trkpt lat="43.244091" lon="-8.906426">
        <ele>9.320</ele>
        <time>2019-06-21T13:31:54Z</time>
      </trkpt>
      <trkpt lat="43.244013" lon="-8.906256">
        <ele>9.364</ele>
        <time>2019-06-21T13:31:55Z</time>
      </trkpt>
      <trkpt lat="43.243952" lon="-8.906074">
        <ele>8.976</ele>
        <time>2019-06-21T13:31:56Z</time>
      </trkpt>
      <trkpt lat="43.243910" lon="-8.905888">
        <ele>8.398</ele>
        <time>2019-06-21T13:31:57Z</time>
      </trkpt>
      <trkpt lat="43.243886" lon="-8.905696">
        <ele>8.015</ele>
        <time>2019-06-21T13:31:58Z</time>
      </trkpt>
      <trkpt lat="43.243856" lon="-8.905513">
        <ele>7.821</ele>
        <time>2019-06-21T13:31:59Z</time>
      </trkpt>
      <trkpt lat="43.243801" lon="-8.905342">
        <ele>7.685</ele>
        <time>2019-06-21T13:32:00Z</time>
      </trkpt>
      <trkpt lat="43.243725" lon="-8.905185">
        <ele>6.877</ele>
        <time>2019-06-21T13:32:01Z</time>
      </trkpt>
      <trkpt lat="43.243622" lon="-8.905047">
        <ele>6.024</ele>
        <time>2019-06-21T13:32:02Z</time>
      </trkpt>
      <trkpt lat="43.243509" lon="-8.904934">
        <ele>5.704</ele>
        <time>2019-06-21T13:32:03Z</time>
      </trkpt>
      <trkpt lat="43.243383" lon="-8.904823">
        <ele>5.114</ele>
        <time>2019-06-21T13:32:04Z</time>
      </trkpt>
      <trkpt lat="43.243221" lon="-8.904738">
        <ele>4.508</ele>
        <time>2019-06-21T13:32:05Z</time>
      </trkpt>
      <trkpt lat="43.243088" lon="-8.904655">
        <ele>4.695</ele>
        <time>2019-06-21T13:32:06Z</time>
      </trkpt>
      <trkpt lat="43.242953" lon="-8.904572">
        <ele>4.769</ele>
        <time>2019-06-21T13:32:07Z</time>
      </trkpt>
      <trkpt lat="43.242825" lon="-8.904469">
        <ele>5.071</ele>
        <time>2019-06-21T13:32:08Z</time>
      </trkpt>
      <trkpt lat="43.242709" lon="-8.904376">
        <ele>5.223</ele>
        <time>2019-06-21T13:32:09Z</time>
      </trkpt>
      <trkpt lat="43.242620" lon="-8.904274">
        <ele>5.420</ele>
        <time>2019-06-21T13:32:10Z</time>
      </trkpt>
      <trkpt lat="43.242559" lon="-8.904141">
        <ele>5.826</ele>
        <time>2019-06-21T13:32:11Z</time>
      </trkpt>
      <trkpt lat="43.242522" lon="-8.904000">
        <ele>5.980</ele>
        <time>2019-06-21T13:32:12Z</time>
      </trkpt>
      <trkpt lat="43.242494" lon="-8.903861">
        <ele>5.932</ele>
        <time>2019-06-21T13:32:13Z</time>
      </trkpt>
      <trkpt lat="43.242540" lon="-8.903648">
        <ele>6.817</ele>
        <time>2019-06-21T13:32:14Z</time>
      </trkpt>
      <trkpt lat="43.242554" lon="-8.903459">
        <ele>7.287</ele>
        <time>2019-06-21T13:32:15Z</time>
      </trkpt>
      <trkpt lat="43.242569" lon="-8.903254">
        <ele>7.615</ele>
        <time>2019-06-21T13:32:16Z</time>
      </trkpt>
      <trkpt lat="43.242566" lon="-8.903050">
        <ele>8.008</ele>
        <time>2019-06-21T13:32:17Z</time>
      </trkpt>
      <trkpt lat="43.242538" lon="-8.902848">
        <ele>8.364</ele>
        <time>2019-06-21T13:32:18Z</time>
      </trkpt>
      <trkpt lat="43.242517" lon="-8.902676">
        <ele>9.058</ele>
        <time>2019-06-21T13:32:19Z</time>
      </trkpt>
      <trkpt lat="43.242480" lon="-8.902521">
        <ele>9.520</ele>
        <time>2019-06-21T13:32:20Z</time>
      </trkpt>
      <trkpt lat="43.242430" lon="-8.902351">
        <ele>8.732</ele>
        <time>2019-06-21T13:32:21Z</time>
      </trkpt>
      <trkpt lat="43.242400" lon="-8.902202">
        <ele>8.269</ele>
        <time>2019-06-21T13:32:22Z</time>
      </trkpt>
      <trkpt lat="43.242378" lon="-8.902028">
        <ele>8.115</ele>
        <time>2019-06-21T13:32:23Z</time>
      </trkpt>
      <trkpt lat="43.242367" lon="-8.901857">
        <ele>7.699</ele>
        <time>2019-06-21T13:32:24Z</time>
      </trkpt>
      <trkpt lat="43.242370" lon="-8.901687">
        <ele>6.711</ele>
        <time>2019-06-21T13:32:25Z</time>
      </trkpt>
      <trkpt lat="43.242398" lon="-8.901545">
        <ele>7.238</ele>
        <time>2019-06-21T13:32:26Z</time>
      </trkpt>
      <trkpt lat="43.242431" lon="-8.901424">
        <ele>7.970</ele>
        <time>2019-06-21T13:32:27Z</time>
      </trkpt>
      <trkpt lat="43.242471" lon="-8.901359">
        <ele>8.517</ele>
        <time>2019-06-21T13:32:28Z</time>
      </trkpt>
      <trkpt lat="43.242475" lon="-8.901288">
        <ele>8.308</ele>
        <time>2019-06-21T13:32:29Z</time>
      </trkpt>
      <trkpt lat="43.242479" lon="-8.901225">
        <ele>8.276</ele>
        <time>2019-06-21T13:32:30Z</time>
      </trkpt>
      <trkpt lat="43.242361" lon="-8.901231">
        <ele>6.770</ele>
        <time>2019-06-21T13:32:32Z</time>
      </trkpt>
      <trkpt lat="43.242287" lon="-8.901250">
        <ele>5.822</ele>
        <time>2019-06-21T13:32:33Z</time>
      </trkpt>
      <trkpt lat="43.242194" lon="-8.901275">
        <ele>4.864</ele>
        <time>2019-06-21T13:32:34Z</time>
      </trkpt>
      <trkpt lat="43.242081" lon="-8.901301">
        <ele>4.161</ele>
        <time>2019-06-21T13:32:35Z</time>
      </trkpt>
      <trkpt lat="43.241969" lon="-8.901339">
        <ele>3.397</ele>
        <time>2019-06-21T13:32:36Z</time>
      </trkpt>
      <trkpt lat="43.241830" lon="-8.901384">
        <ele>1.831</ele>
        <time>2019-06-21T13:32:37Z</time>
      </trkpt>
      <trkpt lat="43.241683" lon="-8.901423">
        <ele>0.263</ele>
        <time>2019-06-21T13:32:38Z</time>
      </trkpt>
      <trkpt lat="43.241513" lon="-8.901471">
        <ele>0.044</ele>
        <time>2019-06-21T13:32:39Z</time>
      </trkpt>
      <trkpt lat="43.241336" lon="-8.901521">
        <ele>0.005</ele>
        <time>2019-06-21T13:32:40Z</time>
      </trkpt>
      <trkpt lat="43.241148" lon="-8.901574">
        <ele>0.015</ele>
        <time>2019-06-21T13:32:41Z</time>
      </trkpt>
      <trkpt lat="43.240953" lon="-8.901620">
        <ele>0.008</ele>
        <time>2019-06-21T13:32:42Z</time>
      </trkpt>
      <trkpt lat="43.240751" lon="-8.901648">
        <ele>0.057</ele>
        <time>2019-06-21T13:32:43Z</time>
      </trkpt>
      <trkpt lat="43.240547" lon="-8.901667">
        <ele>0.081</ele>
        <time>2019-06-21T13:32:44Z</time>
      </trkpt>
      <trkpt lat="43.240338" lon="-8.901690">
        <ele>0.883</ele>
        <time>2019-06-21T13:32:45Z</time>
      </trkpt>
      <trkpt lat="43.240125" lon="-8.901713">
        <ele>1.195</ele>
        <time>2019-06-21T13:32:46Z</time>
      </trkpt>
      <trkpt lat="43.239910" lon="-8.901733">
        <ele>1.542</ele>
        <time>2019-06-21T13:32:47Z</time>
      </trkpt>
      <trkpt lat="43.239701" lon="-8.901753">
        <ele>2.058</ele>
        <time>2019-06-21T13:32:48Z</time>
      </trkpt>
      <trkpt lat="43.239502" lon="-8.901778">
        <ele>2.042</ele>
        <time>2019-06-21T13:32:49Z</time>
      </trkpt>
      <trkpt lat="43.239307" lon="-8.901793">
        <ele>2.024</ele>
        <time>2019-06-21T13:32:50Z</time>
      </trkpt>
      <trkpt lat="43.239119" lon="-8.901811">
        <ele>2.312</ele>
        <time>2019-06-21T13:32:51Z</time>
      </trkpt>
      <trkpt lat="43.238939" lon="-8.901860">
        <ele>3.132</ele>
        <time>2019-06-21T13:32:52Z</time>
      </trkpt>
      <trkpt lat="43.238757" lon="-8.901908">
        <ele>4.505</ele>
        <time>2019-06-21T13:32:53Z</time>
      </trkpt>
      <trkpt lat="43.238571" lon="-8.901991">
        <ele>6.608</ele>
        <time>2019-06-21T13:32:54Z</time>
      </trkpt>
      <trkpt lat="43.238405" lon="-8.902113">
        <ele>8.834</ele>
        <time>2019-06-21T13:32:55Z</time>
      </trkpt>
      <trkpt lat="43.238257" lon="-8.902295">
        <ele>10.968</ele>
        <time>2019-06-21T13:32:56Z</time>
      </trkpt>
      <trkpt lat="43.238099" lon="-8.902452">
        <ele>13.280</ele>
        <time>2019-06-21T13:32:57Z</time>
      </trkpt>
      <trkpt lat="43.237929" lon="-8.902603">
        <ele>14.812</ele>
        <time>2019-06-21T13:32:58Z</time>
      </trkpt>
      <trkpt lat="43.237760" lon="-8.902762">
        <ele>15.989</ele>
        <time>2019-06-21T13:32:59Z</time>
      </trkpt>
      <trkpt lat="43.237588" lon="-8.902915">
        <ele>16.535</ele>
        <time>2019-06-21T13:33:00Z</time>
      </trkpt>
      <trkpt lat="43.237399" lon="-8.903054">
        <ele>17.749</ele>
        <time>2019-06-21T13:33:01Z</time>
      </trkpt>
      <trkpt lat="43.237207" lon="-8.903184">
        <ele>18.671</ele>
        <time>2019-06-21T13:33:02Z</time>
      </trkpt>
      <trkpt lat="43.237019" lon="-8.903311">
        <ele>18.918</ele>
        <time>2019-06-21T13:33:03Z</time>
      </trkpt>
      <trkpt lat="43.236836" lon="-8.903428">
        <ele>19.298</ele>
        <time>2019-06-21T13:33:04Z</time>
      </trkpt>
      <trkpt lat="43.236650" lon="-8.903543">
        <ele>20.117</ele>
        <time>2019-06-21T13:33:05Z</time>
      </trkpt>
      <trkpt lat="43.236472" lon="-8.903654">
        <ele>21.208</ele>
        <time>2019-06-21T13:33:06Z</time>
      </trkpt>
      <trkpt lat="43.236305" lon="-8.903742">
        <ele>21.594</ele>
        <time>2019-06-21T13:33:07Z</time>
      </trkpt>
      <trkpt lat="43.236129" lon="-8.903814">
        <ele>21.728</ele>
        <time>2019-06-21T13:33:08Z</time>
      </trkpt>
      <trkpt lat="43.235958" lon="-8.903859">
        <ele>23.580</ele>
        <time>2019-06-21T13:33:09Z</time>
      </trkpt>
      <trkpt lat="43.235782" lon="-8.903900">
        <ele>25.412</ele>
        <time>2019-06-21T13:33:10Z</time>
      </trkpt>
      <trkpt lat="43.235622" lon="-8.903924">
        <ele>26.959</ele>
        <time>2019-06-21T13:33:11Z</time>
      </trkpt>
      <trkpt lat="43.235472" lon="-8.903945">
        <ele>27.785</ele>
        <time>2019-06-21T13:33:12Z</time>
      </trkpt>
      <trkpt lat="43.235327" lon="-8.904010">
        <ele>27.559</ele>
        <time>2019-06-21T13:33:13Z</time>
      </trkpt>
      <trkpt lat="43.235180" lon="-8.904096">
        <ele>26.541</ele>
        <time>2019-06-21T13:33:14Z</time>
      </trkpt>
      <trkpt lat="43.235046" lon="-8.904184">
        <ele>25.021</ele>
        <time>2019-06-21T13:33:15Z</time>
      </trkpt>
      <trkpt lat="43.234918" lon="-8.904281">
        <ele>24.241</ele>
        <time>2019-06-21T13:33:16Z</time>
      </trkpt>
      <trkpt lat="43.234796" lon="-8.904374">
        <ele>24.005</ele>
        <time>2019-06-21T13:33:17Z</time>
      </trkpt>
      <trkpt lat="43.234677" lon="-8.904463">
        <ele>24.308</ele>
        <time>2019-06-21T13:33:18Z</time>
      </trkpt>
      <trkpt lat="43.234563" lon="-8.904537">
        <ele>24.865</ele>
        <time>2019-06-21T13:33:19Z</time>
      </trkpt>
      <trkpt lat="43.234452" lon="-8.904608">
        <ele>25.449</ele>
        <time>2019-06-21T13:33:20Z</time>
      </trkpt>
      <trkpt lat="43.234347" lon="-8.904679">
        <ele>25.861</ele>
        <time>2019-06-21T13:33:21Z</time>
      </trkpt>
      <trkpt lat="43.234260" lon="-8.904756">
        <ele>26.243</ele>
        <time>2019-06-21T13:33:22Z</time>
      </trkpt>
      <trkpt lat="43.234171" lon="-8.904839">
        <ele>26.560</ele>
        <time>2019-06-21T13:33:23Z</time>
      </trkpt>
      <trkpt lat="43.234089" lon="-8.904942">
        <ele>26.236</ele>
        <time>2019-06-21T13:33:24Z</time>
      </trkpt>
      <trkpt lat="43.234000" lon="-8.905067">
        <ele>25.740</ele>
        <time>2019-06-21T13:33:25Z</time>
      </trkpt>
      <trkpt lat="43.233920" lon="-8.905189">
        <ele>25.242</ele>
        <time>2019-06-21T13:33:26Z</time>
      </trkpt>
      <trkpt lat="43.233846" lon="-8.905324">
        <ele>25.275</ele>
        <time>2019-06-21T13:33:27Z</time>
      </trkpt>
      <trkpt lat="43.233780" lon="-8.905452">
        <ele>25.628</ele>
        <time>2019-06-21T13:33:28Z</time>
      </trkpt>
      <trkpt lat="43.233715" lon="-8.905573">
        <ele>26.320</ele>
        <time>2019-06-21T13:33:29Z</time>
      </trkpt>
      <trkpt lat="43.233654" lon="-8.905697">
        <ele>26.708</ele>
        <time>2019-06-21T13:33:30Z</time>
      </trkpt>
      <trkpt lat="43.233590" lon="-8.905821">
        <ele>27.340</ele>
        <time>2019-06-21T13:33:31Z</time>
      </trkpt>
      <trkpt lat="43.233527" lon="-8.905950">
        <ele>28.534</ele>
        <time>2019-06-21T13:33:32Z</time>
      </trkpt>
      <trkpt lat="43.233467" lon="-8.906083">
        <ele>29.546</ele>
        <time>2019-06-21T13:33:33Z</time>
      </trkpt>
      <trkpt lat="43.233397" lon="-8.906222">
        <ele>30.098</ele>
        <time>2019-06-21T13:33:34Z</time>
      </trkpt>
      <trkpt lat="43.233326" lon="-8.906376">
        <ele>30.295</ele>
        <time>2019-06-21T13:33:35Z</time>
      </trkpt>
      <trkpt lat="43.233261" lon="-8.906519">
        <ele>30.991</ele>
        <time>2019-06-21T13:33:36Z</time>
      </trkpt>
      <trkpt lat="43.233214" lon="-8.906684">
        <ele>31.325</ele>
        <time>2019-06-21T13:33:37Z</time>
      </trkpt>
      <trkpt lat="43.233177" lon="-8.906851">
        <ele>32.117</ele>
        <time>2019-06-21T13:33:38Z</time>
      </trkpt>
      <trkpt lat="43.233156" lon="-8.907036">
        <ele>33.736</ele>
        <time>2019-06-21T13:33:39Z</time>
      </trkpt>
      <trkpt lat="43.233166" lon="-8.907188">
        <ele>35.417</ele>
        <time>2019-06-21T13:33:40Z</time>
      </trkpt>
      <trkpt lat="43.233184" lon="-8.907358">
        <ele>37.318</ele>
        <time>2019-06-21T13:33:41Z</time>
      </trkpt>
      <trkpt lat="43.233220" lon="-8.907534">
        <ele>39.108</ele>
        <time>2019-06-21T13:33:42Z</time>
      </trkpt>
      <trkpt lat="43.233257" lon="-8.907713">
        <ele>40.166</ele>
        <time>2019-06-21T13:33:43Z</time>
      </trkpt>
      <trkpt lat="43.233304" lon="-8.907910">
        <ele>41.340</ele>
        <time>2019-06-21T13:33:44Z</time>
      </trkpt>
      <trkpt lat="43.233344" lon="-8.908089">
        <ele>42.152</ele>
        <time>2019-06-21T13:33:45Z</time>
      </trkpt>
      <trkpt lat="43.233382" lon="-8.908270">
        <ele>42.664</ele>
        <time>2019-06-21T13:33:46Z</time>
      </trkpt>
      <trkpt lat="43.233408" lon="-8.908471">
        <ele>43.771</ele>
        <time>2019-06-21T13:33:47Z</time>
      </trkpt>
      <trkpt lat="43.233436" lon="-8.908671">
        <ele>45.037</ele>
        <time>2019-06-21T13:33:48Z</time>
      </trkpt>
      <trkpt lat="43.233447" lon="-8.908878">
        <ele>46.691</ele>
        <time>2019-06-21T13:33:49Z</time>
      </trkpt>
      <trkpt lat="43.233415" lon="-8.909064">
        <ele>47.843</ele>
        <time>2019-06-21T13:33:50Z</time>
      </trkpt>
      <trkpt lat="43.233368" lon="-8.909247">
        <ele>48.629</ele>
        <time>2019-06-21T13:33:51Z</time>
      </trkpt>
      <trkpt lat="43.233310" lon="-8.909427">
        <ele>48.700</ele>
        <time>2019-06-21T13:33:52Z</time>
      </trkpt>
      <trkpt lat="43.233241" lon="-8.909596">
        <ele>49.820</ele>
        <time>2019-06-21T13:33:53Z</time>
      </trkpt>
      <trkpt lat="43.233160" lon="-8.909722">
        <ele>51.408</ele>
        <time>2019-06-21T13:33:54Z</time>
      </trkpt>
      <trkpt lat="43.233076" lon="-8.909814">
        <ele>53.235</ele>
        <time>2019-06-21T13:33:55Z</time>
      </trkpt>
      <trkpt lat="43.232992" lon="-8.909910">
        <ele>54.259</ele>
        <time>2019-06-21T13:33:56Z</time>
      </trkpt>
      <trkpt lat="43.232886" lon="-8.909979">
        <ele>55.591</ele>
        <time>2019-06-21T13:33:57Z</time>
      </trkpt>
      <trkpt lat="43.232789" lon="-8.910073">
        <ele>56.323</ele>
        <time>2019-06-21T13:33:58Z</time>
      </trkpt>
      <trkpt lat="43.232689" lon="-8.910165">
        <ele>56.830</ele>
        <time>2019-06-21T13:33:59Z</time>
      </trkpt>
      <trkpt lat="43.232587" lon="-8.910260">
        <ele>57.236</ele>
        <time>2019-06-21T13:34:00Z</time>
      </trkpt>
      <trkpt lat="43.232494" lon="-8.910345">
        <ele>57.660</ele>
        <time>2019-06-21T13:34:01Z</time>
      </trkpt>
      <trkpt lat="43.232408" lon="-8.910425">
        <ele>57.992</ele>
        <time>2019-06-21T13:34:02Z</time>
      </trkpt>
      <trkpt lat="43.232337" lon="-8.910494">
        <ele>58.279</ele>
        <time>2019-06-21T13:34:03Z</time>
      </trkpt>
      <trkpt lat="43.232270" lon="-8.910554">
        <ele>58.505</ele>
        <time>2019-06-21T13:34:04Z</time>
      </trkpt>
      <trkpt lat="43.232231" lon="-8.910618">
        <ele>58.525</ele>
        <time>2019-06-21T13:34:05Z</time>
      </trkpt>
      <trkpt lat="43.232188" lon="-8.910649">
        <ele>58.608</ele>
        <time>2019-06-21T13:34:06Z</time>
      </trkpt>
      <trkpt lat="43.232161" lon="-8.910728">
        <ele>58.350</ele>
        <time>2019-06-21T13:34:08Z</time>
      </trkpt>
      <trkpt lat="43.232113" lon="-8.910751">
        <ele>58.784</ele>
        <time>2019-06-21T13:34:09Z</time>
      </trkpt>
      <trkpt lat="43.232057" lon="-8.910798">
        <ele>59.096</ele>
        <time>2019-06-21T13:34:10Z</time>
      </trkpt>
      <trkpt lat="43.231991" lon="-8.910855">
        <ele>59.358</ele>
        <time>2019-06-21T13:34:11Z</time>
      </trkpt>
      <trkpt lat="43.231925" lon="-8.910932">
        <ele>59.025</ele>
        <time>2019-06-21T13:34:12Z</time>
      </trkpt>
      <trkpt lat="43.231857" lon="-8.910993">
        <ele>58.561</ele>
        <time>2019-06-21T13:34:13Z</time>
      </trkpt>
      <trkpt lat="43.231796" lon="-8.911046">
        <ele>58.125</ele>
        <time>2019-06-21T13:34:14Z</time>
      </trkpt>
      <trkpt lat="43.231737" lon="-8.911089">
        <ele>57.987</ele>
        <time>2019-06-21T13:34:15Z</time>
      </trkpt>
      <trkpt lat="43.231688" lon="-8.911124">
        <ele>57.874</ele>
        <time>2019-06-21T13:34:16Z</time>
      </trkpt>
      <trkpt lat="43.231646" lon="-8.911187">
        <ele>57.356</ele>
        <time>2019-06-21T13:34:17Z</time>
      </trkpt>
      <trkpt lat="43.231582" lon="-8.911235">
        <ele>57.121</ele>
        <time>2019-06-21T13:34:19Z</time>
      </trkpt>
      <trkpt lat="43.231481" lon="-8.911251">
        <ele>57.508</ele>
        <time>2019-06-21T13:34:28Z</time>
      </trkpt>
      <trkpt lat="43.231415" lon="-8.911305">
        <ele>57.470</ele>
        <time>2019-06-21T13:34:29Z</time>
      </trkpt>
      <trkpt lat="43.231337" lon="-8.911383">
        <ele>57.494</ele>
        <time>2019-06-21T13:34:30Z</time>
      </trkpt>
      <trkpt lat="43.231233" lon="-8.911471">
        <ele>57.516</ele>
        <time>2019-06-21T13:34:31Z</time>
      </trkpt>
      <trkpt lat="43.231124" lon="-8.911567">
        <ele>57.628</ele>
        <time>2019-06-21T13:34:32Z</time>
      </trkpt>
      <trkpt lat="43.231005" lon="-8.911674">
        <ele>57.335</ele>
        <time>2019-06-21T13:34:33Z</time>
      </trkpt>
      <trkpt lat="43.230889" lon="-8.911782">
        <ele>57.011</ele>
        <time>2019-06-21T13:34:34Z</time>
      </trkpt>
      <trkpt lat="43.230771" lon="-8.911897">
        <ele>56.615</ele>
        <time>2019-06-21T13:34:35Z</time>
      </trkpt>
      <trkpt lat="43.230649" lon="-8.912021">
        <ele>55.727</ele>
        <time>2019-06-21T13:34:36Z</time>
      </trkpt>
      <trkpt lat="43.230528" lon="-8.912153">
        <ele>55.094</ele>
        <time>2019-06-21T13:34:37Z</time>
      </trkpt>
      <trkpt lat="43.230403" lon="-8.912276">
        <ele>55.157</ele>
        <time>2019-06-21T13:34:38Z</time>
      </trkpt>
      <trkpt lat="43.230277" lon="-8.912405">
        <ele>55.022</ele>
        <time>2019-06-21T13:34:39Z</time>
      </trkpt>
      <trkpt lat="43.230155" lon="-8.912529">
        <ele>55.008</ele>
        <time>2019-06-21T13:34:40Z</time>
      </trkpt>
      <trkpt lat="43.230035" lon="-8.912665">
        <ele>55.312</ele>
        <time>2019-06-21T13:34:41Z</time>
      </trkpt>
      <trkpt lat="43.229911" lon="-8.912788">
        <ele>56.226</ele>
        <time>2019-06-21T13:34:42Z</time>
      </trkpt>
      <trkpt lat="43.229796" lon="-8.912912">
        <ele>56.648</ele>
        <time>2019-06-21T13:34:43Z</time>
      </trkpt>
      <trkpt lat="43.229684" lon="-8.913034">
        <ele>56.870</ele>
        <time>2019-06-21T13:34:44Z</time>
      </trkpt>
      <trkpt lat="43.229568" lon="-8.913155">
        <ele>57.317</ele>
        <time>2019-06-21T13:34:45Z</time>
      </trkpt>
      <trkpt lat="43.229456" lon="-8.913276">
        <ele>57.563</ele>
        <time>2019-06-21T13:34:46Z</time>
      </trkpt>
      <trkpt lat="43.229344" lon="-8.913384">
        <ele>57.027</ele>
        <time>2019-06-21T13:34:47Z</time>
      </trkpt>
      <trkpt lat="43.229233" lon="-8.913498">
        <ele>56.239</ele>
        <time>2019-06-21T13:34:48Z</time>
      </trkpt>
      <trkpt lat="43.229126" lon="-8.913614">
        <ele>55.346</ele>
        <time>2019-06-21T13:34:49Z</time>
      </trkpt>
      <trkpt lat="43.229017" lon="-8.913733">
        <ele>54.588</ele>
        <time>2019-06-21T13:34:50Z</time>
      </trkpt>
      <trkpt lat="43.228904" lon="-8.913843">
        <ele>53.616</ele>
        <time>2019-06-21T13:34:51Z</time>
      </trkpt>
      <trkpt lat="43.228792" lon="-8.913955">
        <ele>53.008</ele>
        <time>2019-06-21T13:34:52Z</time>
      </trkpt>
      <trkpt lat="43.228674" lon="-8.914057">
        <ele>52.757</ele>
        <time>2019-06-21T13:34:53Z</time>
      </trkpt>
      <trkpt lat="43.228546" lon="-8.914149">
        <ele>52.771</ele>
        <time>2019-06-21T13:34:54Z</time>
      </trkpt>
      <trkpt lat="43.228415" lon="-8.914213">
        <ele>52.623</ele>
        <time>2019-06-21T13:34:55Z</time>
      </trkpt>
      <trkpt lat="43.228277" lon="-8.914260">
        <ele>52.765</ele>
        <time>2019-06-21T13:34:56Z</time>
      </trkpt>
      <trkpt lat="43.228142" lon="-8.914309">
        <ele>52.862</ele>
        <time>2019-06-21T13:34:57Z</time>
      </trkpt>
      <trkpt lat="43.228011" lon="-8.914344">
        <ele>52.928</ele>
        <time>2019-06-21T13:34:58Z</time>
      </trkpt>
      <trkpt lat="43.227878" lon="-8.914383">
        <ele>52.552</ele>
        <time>2019-06-21T13:34:59Z</time>
      </trkpt>
      <trkpt lat="43.227744" lon="-8.914428">
        <ele>52.234</ele>
        <time>2019-06-21T13:35:00Z</time>
      </trkpt>
      <trkpt lat="43.227618" lon="-8.914525">
        <ele>51.365</ele>
        <time>2019-06-21T13:35:01Z</time>
      </trkpt>
      <trkpt lat="43.227490" lon="-8.914616">
        <ele>50.868</ele>
        <time>2019-06-21T13:35:02Z</time>
      </trkpt>
      <trkpt lat="43.227377" lon="-8.914719">
        <ele>50.914</ele>
        <time>2019-06-21T13:35:03Z</time>
      </trkpt>
      <trkpt lat="43.227266" lon="-8.914842">
        <ele>50.808</ele>
        <time>2019-06-21T13:35:04Z</time>
      </trkpt>
      <trkpt lat="43.227157" lon="-8.914981">
        <ele>50.689</ele>
        <time>2019-06-21T13:35:05Z</time>
      </trkpt>
      <trkpt lat="43.227045" lon="-8.915136">
        <ele>50.373</ele>
        <time>2019-06-21T13:35:06Z</time>
      </trkpt>
      <trkpt lat="43.226934" lon="-8.915296">
        <ele>50.065</ele>
        <time>2019-06-21T13:35:07Z</time>
      </trkpt>
      <trkpt lat="43.226833" lon="-8.915521">
        <ele>49.627</ele>
        <time>2019-06-21T13:35:08Z</time>
      </trkpt>
      <trkpt lat="43.226737" lon="-8.915738">
        <ele>48.844</ele>
        <time>2019-06-21T13:35:09Z</time>
      </trkpt>
      <trkpt lat="43.226637" lon="-8.915963">
        <ele>48.910</ele>
        <time>2019-06-21T13:35:10Z</time>
      </trkpt>
      <trkpt lat="43.226534" lon="-8.916189">
        <ele>49.054</ele>
        <time>2019-06-21T13:35:11Z</time>
      </trkpt>
      <trkpt lat="43.226430" lon="-8.916414">
        <ele>49.316</ele>
        <time>2019-06-21T13:35:12Z</time>
      </trkpt>
      <trkpt lat="43.226334" lon="-8.916646">
        <ele>49.569</ele>
        <time>2019-06-21T13:35:13Z</time>
      </trkpt>
      <trkpt lat="43.226224" lon="-8.916886">
        <ele>48.604</ele>
        <time>2019-06-21T13:35:14Z</time>
      </trkpt>
      <trkpt lat="43.226122" lon="-8.917101">
        <ele>48.324</ele>
        <time>2019-06-21T13:35:15Z</time>
      </trkpt>
      <trkpt lat="43.226016" lon="-8.917314">
        <ele>48.008</ele>
        <time>2019-06-21T13:35:16Z</time>
      </trkpt>
      <trkpt lat="43.225920" lon="-8.917527">
        <ele>47.639</ele>
        <time>2019-06-21T13:35:17Z</time>
      </trkpt>
      <trkpt lat="43.225822" lon="-8.917737">
        <ele>47.233</ele>
        <time>2019-06-21T13:35:18Z</time>
      </trkpt>
      <trkpt lat="43.225724" lon="-8.917931">
        <ele>47.855</ele>
        <time>2019-06-21T13:35:19Z</time>
      </trkpt>
      <trkpt lat="43.225629" lon="-8.918120">
        <ele>48.347</ele>
        <time>2019-06-21T13:35:20Z</time>
      </trkpt>
      <trkpt lat="43.225535" lon="-8.918308">
        <ele>48.274</ele>
        <time>2019-06-21T13:35:21Z</time>
      </trkpt>
      <trkpt lat="43.225452" lon="-8.918469">
        <ele>47.410</ele>
        <time>2019-06-21T13:35:22Z</time>
      </trkpt>
      <trkpt lat="43.225364" lon="-8.918637">
        <ele>46.654</ele>
        <time>2019-06-21T13:35:23Z</time>
      </trkpt>
      <trkpt lat="43.225267" lon="-8.918798">
        <ele>46.446</ele>
        <time>2019-06-21T13:35:24Z</time>
      </trkpt>
      <trkpt lat="43.225153" lon="-8.918931">
        <ele>46.151</ele>
        <time>2019-06-21T13:35:25Z</time>
      </trkpt>
      <trkpt lat="43.225027" lon="-8.919072">
        <ele>45.601</ele>
        <time>2019-06-21T13:35:26Z</time>
      </trkpt>
      <trkpt lat="43.224878" lon="-8.919177">
        <ele>44.911</ele>
        <time>2019-06-21T13:35:27Z</time>
      </trkpt>
      <trkpt lat="43.224707" lon="-8.919266">
        <ele>43.708</ele>
        <time>2019-06-21T13:35:28Z</time>
      </trkpt>
      <trkpt lat="43.224528" lon="-8.919355">
        <ele>40.468</ele>
        <time>2019-06-21T13:35:29Z</time>
      </trkpt>
      <trkpt lat="43.224345" lon="-8.919433">
        <ele>37.522</ele>
        <time>2019-06-21T13:35:30Z</time>
      </trkpt>
      <trkpt lat="43.224159" lon="-8.919476">
        <ele>35.544</ele>
        <time>2019-06-21T13:35:31Z</time>
      </trkpt>
      <trkpt lat="43.223969" lon="-8.919558">
        <ele>33.976</ele>
        <time>2019-06-21T13:35:32Z</time>
      </trkpt>
      <trkpt lat="43.223793" lon="-8.919664">
        <ele>32.693</ele>
        <time>2019-06-21T13:35:33Z</time>
      </trkpt>
      <trkpt lat="43.223622" lon="-8.919802">
        <ele>31.489</ele>
        <time>2019-06-21T13:35:34Z</time>
      </trkpt>
      <trkpt lat="43.223452" lon="-8.919951">
        <ele>31.543</ele>
        <time>2019-06-21T13:35:35Z</time>
      </trkpt>
      <trkpt lat="43.223324" lon="-8.920141">
        <ele>31.165</ele>
        <time>2019-06-21T13:35:36Z</time>
      </trkpt>
      <trkpt lat="43.223196" lon="-8.920341">
        <ele>31.142</ele>
        <time>2019-06-21T13:35:37Z</time>
      </trkpt>
      <trkpt lat="43.223075" lon="-8.920541">
        <ele>31.022</ele>
        <time>2019-06-21T13:35:38Z</time>
      </trkpt>
      <trkpt lat="43.222984" lon="-8.920800">
        <ele>30.714</ele>
        <time>2019-06-21T13:35:39Z</time>
      </trkpt>
      <trkpt lat="43.222908" lon="-8.921055">
        <ele>30.708</ele>
        <time>2019-06-21T13:35:40Z</time>
      </trkpt>
      <trkpt lat="43.222856" lon="-8.921324">
        <ele>30.697</ele>
        <time>2019-06-21T13:35:41Z</time>
      </trkpt>
      <trkpt lat="43.222806" lon="-8.921601">
        <ele>30.051</ele>
        <time>2019-06-21T13:35:42Z</time>
      </trkpt>
      <trkpt lat="43.222759" lon="-8.921873">
        <ele>29.423</ele>
        <time>2019-06-21T13:35:43Z</time>
      </trkpt>
      <trkpt lat="43.222682" lon="-8.922142">
        <ele>28.745</ele>
        <time>2019-06-21T13:35:44Z</time>
      </trkpt>
      <trkpt lat="43.222602" lon="-8.922415">
        <ele>27.772</ele>
        <time>2019-06-21T13:35:45Z</time>
      </trkpt>
      <trkpt lat="43.222515" lon="-8.922679">
        <ele>27.268</ele>
        <time>2019-06-21T13:35:46Z</time>
      </trkpt>
      <trkpt lat="43.222410" lon="-8.922928">
        <ele>26.912</ele>
        <time>2019-06-21T13:35:47Z</time>
      </trkpt>
      <trkpt lat="43.222272" lon="-8.923194">
        <ele>25.634</ele>
        <time>2019-06-21T13:35:48Z</time>
      </trkpt>
      <trkpt lat="43.222136" lon="-8.923464">
        <ele>24.962</ele>
        <time>2019-06-21T13:35:49Z</time>
      </trkpt>
      <trkpt lat="43.222002" lon="-8.923742">
        <ele>25.783</ele>
        <time>2019-06-21T13:35:50Z</time>
      </trkpt>
      <trkpt lat="43.221882" lon="-8.924018">
        <ele>26.311</ele>
        <time>2019-06-21T13:35:51Z</time>
      </trkpt>
      <trkpt lat="43.221752" lon="-8.924299">
        <ele>26.108</ele>
        <time>2019-06-21T13:35:52Z</time>
      </trkpt>
      <trkpt lat="43.221623" lon="-8.924570">
        <ele>26.779</ele>
        <time>2019-06-21T13:35:53Z</time>
      </trkpt>
      <trkpt lat="43.221503" lon="-8.924830">
        <ele>27.813</ele>
        <time>2019-06-21T13:35:54Z</time>
      </trkpt>
      <trkpt lat="43.221379" lon="-8.925083">
        <ele>28.355</ele>
        <time>2019-06-21T13:35:55Z</time>
      </trkpt>
      <trkpt lat="43.221249" lon="-8.925328">
        <ele>28.367</ele>
        <time>2019-06-21T13:35:56Z</time>
      </trkpt>
      <trkpt lat="43.221109" lon="-8.925568">
        <ele>27.014</ele>
        <time>2019-06-21T13:35:57Z</time>
      </trkpt>
      <trkpt lat="43.220961" lon="-8.925791">
        <ele>27.820</ele>
        <time>2019-06-21T13:35:58Z</time>
      </trkpt>
      <trkpt lat="43.220793" lon="-8.926004">
        <ele>27.994</ele>
        <time>2019-06-21T13:35:59Z</time>
      </trkpt>
      <trkpt lat="43.220618" lon="-8.926206">
        <ele>27.796</ele>
        <time>2019-06-21T13:36:00Z</time>
      </trkpt>
      <trkpt lat="43.220439" lon="-8.926382">
        <ele>28.242</ele>
        <time>2019-06-21T13:36:01Z</time>
      </trkpt>
      <trkpt lat="43.220257" lon="-8.926545">
        <ele>27.822</ele>
        <time>2019-06-21T13:36:02Z</time>
      </trkpt>
      <trkpt lat="43.220077" lon="-8.926705">
        <ele>26.114</ele>
        <time>2019-06-21T13:36:03Z</time>
      </trkpt>
      <trkpt lat="43.219901" lon="-8.926859">
        <ele>22.708</ele>
        <time>2019-06-21T13:36:04Z</time>
      </trkpt>
      <trkpt lat="43.219731" lon="-8.926996">
        <ele>20.867</ele>
        <time>2019-06-21T13:36:05Z</time>
      </trkpt>
      <trkpt lat="43.219567" lon="-8.927148">
        <ele>19.211</ele>
        <time>2019-06-21T13:36:06Z</time>
      </trkpt>
      <trkpt lat="43.219406" lon="-8.927324">
        <ele>19.263</ele>
        <time>2019-06-21T13:36:07Z</time>
      </trkpt>
      <trkpt lat="43.219256" lon="-8.927499">
        <ele>18.445</ele>
        <time>2019-06-21T13:36:08Z</time>
      </trkpt>
      <trkpt lat="43.219113" lon="-8.927689">
        <ele>17.282</ele>
        <time>2019-06-21T13:36:09Z</time>
      </trkpt>
      <trkpt lat="43.219013" lon="-8.927927">
        <ele>16.138</ele>
        <time>2019-06-21T13:36:10Z</time>
      </trkpt>
      <trkpt lat="43.218912" lon="-8.928177">
        <ele>16.222</ele>
        <time>2019-06-21T13:36:11Z</time>
      </trkpt>
      <trkpt lat="43.218829" lon="-8.928435">
        <ele>16.164</ele>
        <time>2019-06-21T13:36:12Z</time>
      </trkpt>
      <trkpt lat="43.218742" lon="-8.928702">
        <ele>15.949</ele>
        <time>2019-06-21T13:36:13Z</time>
      </trkpt>
      <trkpt lat="43.218658" lon="-8.928916">
        <ele>16.502</ele>
        <time>2019-06-21T13:36:14Z</time>
      </trkpt>
      <trkpt lat="43.218578" lon="-8.929177">
        <ele>17.522</ele>
        <time>2019-06-21T13:36:15Z</time>
      </trkpt>
      <trkpt lat="43.218499" lon="-8.929418">
        <ele>18.208</ele>
        <time>2019-06-21T13:36:16Z</time>
      </trkpt>
      <trkpt lat="43.218438" lon="-8.929639">
        <ele>17.377</ele>
        <time>2019-06-21T13:36:17Z</time>
      </trkpt>
      <trkpt lat="43.218365" lon="-8.929868">
        <ele>15.991</ele>
        <time>2019-06-21T13:36:18Z</time>
      </trkpt>
      <trkpt lat="43.218311" lon="-8.930057">
        <ele>14.923</ele>
        <time>2019-06-21T13:36:19Z</time>
      </trkpt>
      <trkpt lat="43.218250" lon="-8.930241">
        <ele>14.215</ele>
        <time>2019-06-21T13:36:20Z</time>
      </trkpt>
      <trkpt lat="43.218294" lon="-8.930100">
        <ele>14.762</ele>
        <time>2019-06-21T13:36:21Z</time>
      </trkpt>
      <trkpt lat="43.218281" lon="-8.930179">
        <ele>14.418</ele>
        <time>2019-06-21T13:36:23Z</time>
      </trkpt>
      <trkpt lat="43.218263" lon="-8.930255">
        <ele>14.192</ele>
        <time>2019-06-21T13:36:24Z</time>
      </trkpt>
      <trkpt lat="43.218238" lon="-8.930358">
        <ele>13.534</ele>
        <time>2019-06-21T13:36:25Z</time>
      </trkpt>
      <trkpt lat="43.218209" lon="-8.930486">
        <ele>12.817</ele>
        <time>2019-06-21T13:36:26Z</time>
      </trkpt>
      <trkpt lat="43.218166" lon="-8.930626">
        <ele>12.387</ele>
        <time>2019-06-21T13:36:27Z</time>
      </trkpt>
      <trkpt lat="43.218119" lon="-8.930790">
        <ele>11.915</ele>
        <time>2019-06-21T13:36:28Z</time>
      </trkpt>
      <trkpt lat="43.218084" lon="-8.930932">
        <ele>11.908</ele>
        <time>2019-06-21T13:36:29Z</time>
      </trkpt>
      <trkpt lat="43.218032" lon="-8.931115">
        <ele>12.184</ele>
        <time>2019-06-21T13:36:30Z</time>
      </trkpt>
      <trkpt lat="43.217987" lon="-8.931311">
        <ele>11.998</ele>
        <time>2019-06-21T13:36:31Z</time>
      </trkpt>
      <trkpt lat="43.217938" lon="-8.931508">
        <ele>12.630</ele>
        <time>2019-06-21T13:36:32Z</time>
      </trkpt>
      <trkpt lat="43.217910" lon="-8.931710">
        <ele>13.712</ele>
        <time>2019-06-21T13:36:33Z</time>
      </trkpt>
      <trkpt lat="43.217906" lon="-8.931889">
        <ele>14.159</ele>
        <time>2019-06-21T13:36:34Z</time>
      </trkpt>
      <trkpt lat="43.217902" lon="-8.932096">
        <ele>14.995</ele>
        <time>2019-06-21T13:36:35Z</time>
      </trkpt>
      <trkpt lat="43.217918" lon="-8.932321">
        <ele>15.999</ele>
        <time>2019-06-21T13:36:36Z</time>
      </trkpt>
      <trkpt lat="43.217954" lon="-8.932545">
        <ele>16.951</ele>
        <time>2019-06-21T13:36:37Z</time>
      </trkpt>
      <trkpt lat="43.218008" lon="-8.932779">
        <ele>17.498</ele>
        <time>2019-06-21T13:36:38Z</time>
      </trkpt>
      <trkpt lat="43.218077" lon="-8.933005">
        <ele>17.315</ele>
        <time>2019-06-21T13:36:39Z</time>
      </trkpt>
      <trkpt lat="43.218138" lon="-8.933234">
        <ele>17.026</ele>
        <time>2019-06-21T13:36:40Z</time>
      </trkpt>
      <trkpt lat="43.218186" lon="-8.933468">
        <ele>16.208</ele>
        <time>2019-06-21T13:36:41Z</time>
      </trkpt>
      <trkpt lat="43.218219" lon="-8.933707">
        <ele>15.512</ele>
        <time>2019-06-21T13:36:42Z</time>
      </trkpt>
      <trkpt lat="43.218246" lon="-8.933942">
        <ele>15.316</ele>
        <time>2019-06-21T13:36:43Z</time>
      </trkpt>
      <trkpt lat="43.218250" lon="-8.934180">
        <ele>15.538</ele>
        <time>2019-06-21T13:36:44Z</time>
      </trkpt>
      <trkpt lat="43.218239" lon="-8.934407">
        <ele>15.760</ele>
        <time>2019-06-21T13:36:45Z</time>
      </trkpt>
      <trkpt lat="43.218205" lon="-8.934630">
        <ele>16.497</ele>
        <time>2019-06-21T13:36:46Z</time>
      </trkpt>
      <trkpt lat="43.218161" lon="-8.934868">
        <ele>16.373</ele>
        <time>2019-06-21T13:36:47Z</time>
      </trkpt>
      <trkpt lat="43.218110" lon="-8.935042">
        <ele>16.147</ele>
        <time>2019-06-21T13:36:48Z</time>
      </trkpt>
      <trkpt lat="43.218053" lon="-8.935298">
        <ele>15.099</ele>
        <time>2019-06-21T13:36:49Z</time>
      </trkpt>
      <trkpt lat="43.217988" lon="-8.935539">
        <ele>15.027</ele>
        <time>2019-06-21T13:36:50Z</time>
      </trkpt>
      <trkpt lat="43.217914" lon="-8.935792">
        <ele>14.868</ele>
        <time>2019-06-21T13:36:51Z</time>
      </trkpt>
      <trkpt lat="43.217847" lon="-8.936031">
        <ele>15.314</ele>
        <time>2019-06-21T13:36:52Z</time>
      </trkpt>
      <trkpt lat="43.217801" lon="-8.936263">
        <ele>15.808</ele>
        <time>2019-06-21T13:36:53Z</time>
      </trkpt>
      <trkpt lat="43.217781" lon="-8.936481">
        <ele>16.655</ele>
        <time>2019-06-21T13:36:54Z</time>
      </trkpt>
      <trkpt lat="43.217780" lon="-8.936706">
        <ele>18.199</ele>
        <time>2019-06-21T13:36:55Z</time>
      </trkpt>
      <trkpt lat="43.217783" lon="-8.936910">
        <ele>18.821</ele>
        <time>2019-06-21T13:36:56Z</time>
      </trkpt>
      <trkpt lat="43.217809" lon="-8.937125">
        <ele>19.323</ele>
        <time>2019-06-21T13:36:57Z</time>
      </trkpt>
      <trkpt lat="43.217838" lon="-8.937349">
        <ele>20.380</ele>
        <time>2019-06-21T13:36:58Z</time>
      </trkpt>
      <trkpt lat="43.217869" lon="-8.937579">
        <ele>21.546</ele>
        <time>2019-06-21T13:36:59Z</time>
      </trkpt>
      <trkpt lat="43.217894" lon="-8.937817">
        <ele>22.540</ele>
        <time>2019-06-21T13:37:00Z</time>
      </trkpt>
      <trkpt lat="43.217925" lon="-8.938030">
        <ele>23.342</ele>
        <time>2019-06-21T13:37:01Z</time>
      </trkpt>
      <trkpt lat="43.217950" lon="-8.938236">
        <ele>23.887</ele>
        <time>2019-06-21T13:37:02Z</time>
      </trkpt>
      <trkpt lat="43.217971" lon="-8.938435">
        <ele>24.342</ele>
        <time>2019-06-21T13:37:03Z</time>
      </trkpt>
      <trkpt lat="43.217978" lon="-8.938645">
        <ele>25.026</ele>
        <time>2019-06-21T13:37:04Z</time>
      </trkpt>
      <trkpt lat="43.217971" lon="-8.938855">
        <ele>26.408</ele>
        <time>2019-06-21T13:37:05Z</time>
      </trkpt>
      <trkpt lat="43.217951" lon="-8.939063">
        <ele>26.821</ele>
        <time>2019-06-21T13:37:06Z</time>
      </trkpt>
      <trkpt lat="43.217903" lon="-8.939307">
        <ele>27.155</ele>
        <time>2019-06-21T13:37:07Z</time>
      </trkpt>
      <trkpt lat="43.217829" lon="-8.939543">
        <ele>26.947</ele>
        <time>2019-06-21T13:37:08Z</time>
      </trkpt>
      <trkpt lat="43.217739" lon="-8.939763">
        <ele>25.859</ele>
        <time>2019-06-21T13:37:09Z</time>
      </trkpt>
      <trkpt lat="43.217643" lon="-8.939987">
        <ele>24.166</ele>
        <time>2019-06-21T13:37:10Z</time>
      </trkpt>
      <trkpt lat="43.217543" lon="-8.940218">
        <ele>22.222</ele>
        <time>2019-06-21T13:37:11Z</time>
      </trkpt>
      <trkpt lat="43.217446" lon="-8.940446">
        <ele>22.946</ele>
        <time>2019-06-21T13:37:12Z</time>
      </trkpt>
      <trkpt lat="43.217344" lon="-8.940652">
        <ele>24.168</ele>
        <time>2019-06-21T13:37:13Z</time>
      </trkpt>
      <trkpt lat="43.217249" lon="-8.940865">
        <ele>24.586</ele>
        <time>2019-06-21T13:37:14Z</time>
      </trkpt>
      <trkpt lat="43.217156" lon="-8.941076">
        <ele>24.060</ele>
        <time>2019-06-21T13:37:15Z</time>
      </trkpt>
      <trkpt lat="43.217061" lon="-8.941298">
        <ele>24.126</ele>
        <time>2019-06-21T13:37:16Z</time>
      </trkpt>
      <trkpt lat="43.216960" lon="-8.941505">
        <ele>24.008</ele>
        <time>2019-06-21T13:37:17Z</time>
      </trkpt>
      <trkpt lat="43.216851" lon="-8.941701">
        <ele>23.611</ele>
        <time>2019-06-21T13:37:18Z</time>
      </trkpt>
      <trkpt lat="43.216755" lon="-8.941884">
        <ele>23.895</ele>
        <time>2019-06-21T13:37:19Z</time>
      </trkpt>
      <trkpt lat="43.216650" lon="-8.942060">
        <ele>23.787</ele>
        <time>2019-06-21T13:37:20Z</time>
      </trkpt>
      <trkpt lat="43.216556" lon="-8.942212">
        <ele>23.539</ele>
        <time>2019-06-21T13:37:21Z</time>
      </trkpt>
      <trkpt lat="43.216461" lon="-8.942352">
        <ele>22.876</ele>
        <time>2019-06-21T13:37:22Z</time>
      </trkpt>
      <trkpt lat="43.216362" lon="-8.942494">
        <ele>22.142</ele>
        <time>2019-06-21T13:37:23Z</time>
      </trkpt>
      <trkpt lat="43.216261" lon="-8.942625">
        <ele>21.436</ele>
        <time>2019-06-21T13:37:24Z</time>
      </trkpt>
      <trkpt lat="43.216148" lon="-8.942726">
        <ele>20.528</ele>
        <time>2019-06-21T13:37:25Z</time>
      </trkpt>
      <trkpt lat="43.216048" lon="-8.942825">
        <ele>19.489</ele>
        <time>2019-06-21T13:37:26Z</time>
      </trkpt>
      <trkpt lat="43.215941" lon="-8.942917">
        <ele>18.606</ele>
        <time>2019-06-21T13:37:27Z</time>
      </trkpt>
      <trkpt lat="43.215836" lon="-8.943010">
        <ele>18.326</ele>
        <time>2019-06-21T13:37:28Z</time>
      </trkpt>
      <trkpt lat="43.215732" lon="-8.943102">
        <ele>17.908</ele>
        <time>2019-06-21T13:37:29Z</time>
      </trkpt>
      <trkpt lat="43.215632" lon="-8.943208">
        <ele>17.551</ele>
        <time>2019-06-21T13:37:30Z</time>
      </trkpt>
      <trkpt lat="43.215542" lon="-8.943327">
        <ele>17.245</ele>
        <time>2019-06-21T13:37:31Z</time>
      </trkpt>
      <trkpt lat="43.215470" lon="-8.943456">
        <ele>17.047</ele>
        <time>2019-06-21T13:37:32Z</time>
      </trkpt>
      <trkpt lat="43.215400" lon="-8.943589">
        <ele>16.889</ele>
        <time>2019-06-21T13:37:33Z</time>
      </trkpt>
      <trkpt lat="43.215366" lon="-8.943793">
        <ele>16.646</ele>
        <time>2019-06-21T13:37:34Z</time>
      </trkpt>
      <trkpt lat="43.215308" lon="-8.944004">
        <ele>16.322</ele>
        <time>2019-06-21T13:37:35Z</time>
      </trkpt>
      <trkpt lat="43.215257" lon="-8.944236">
        <ele>15.686</ele>
        <time>2019-06-21T13:37:36Z</time>
      </trkpt>
      <trkpt lat="43.215213" lon="-8.944468">
        <ele>14.198</ele>
        <time>2019-06-21T13:37:37Z</time>
      </trkpt>
      <trkpt lat="43.215167" lon="-8.944697">
        <ele>12.987</ele>
        <time>2019-06-21T13:37:38Z</time>
      </trkpt>
      <trkpt lat="43.215114" lon="-8.944918">
        <ele>11.842</ele>
        <time>2019-06-21T13:37:39Z</time>
      </trkpt>
      <trkpt lat="43.215061" lon="-8.945135">
        <ele>10.726</ele>
        <time>2019-06-21T13:37:40Z</time>
      </trkpt>
      <trkpt lat="43.215008" lon="-8.945359">
        <ele>9.708</ele>
        <time>2019-06-21T13:37:41Z</time>
      </trkpt>
      <trkpt lat="43.214955" lon="-8.945582">
        <ele>9.171</ele>
        <time>2019-06-21T13:37:42Z</time>
      </trkpt>
      <trkpt lat="43.214901" lon="-8.945808">
        <ele>9.095</ele>
        <time>2019-06-21T13:37:43Z</time>
      </trkpt>
      <trkpt lat="43.214851" lon="-8.946031">
        <ele>8.367</ele>
        <time>2019-06-21T13:37:44Z</time>
      </trkpt>
      <trkpt lat="43.214813" lon="-8.946258">
        <ele>7.879</ele>
        <time>2019-06-21T13:37:45Z</time>
      </trkpt>
      <trkpt lat="43.214792" lon="-8.946482">
        <ele>7.226</ele>
        <time>2019-06-21T13:37:46Z</time>
      </trkpt>
      <trkpt lat="43.214784" lon="-8.946719">
        <ele>6.612</ele>
        <time>2019-06-21T13:37:47Z</time>
      </trkpt>
      <trkpt lat="43.214789" lon="-8.946954">
        <ele>6.546</ele>
        <time>2019-06-21T13:37:48Z</time>
      </trkpt>
      <trkpt lat="43.214821" lon="-8.947202">
        <ele>6.358</ele>
        <time>2019-06-21T13:37:49Z</time>
      </trkpt>
      <trkpt lat="43.214847" lon="-8.947417">
        <ele>5.493</ele>
        <time>2019-06-21T13:37:50Z</time>
      </trkpt>
      <trkpt lat="43.214878" lon="-8.947626">
        <ele>4.965</ele>
        <time>2019-06-21T13:37:51Z</time>
      </trkpt>
      <trkpt lat="43.214912" lon="-8.947826">
        <ele>4.621</ele>
        <time>2019-06-21T13:37:52Z</time>
      </trkpt>
      <trkpt lat="43.214954" lon="-8.948005">
        <ele>4.308</ele>
        <time>2019-06-21T13:37:53Z</time>
      </trkpt>
      <trkpt lat="43.215005" lon="-8.948160">
        <ele>4.472</ele>
        <time>2019-06-21T13:37:54Z</time>
      </trkpt>
      <trkpt lat="43.215054" lon="-8.948335">
        <ele>4.826</ele>
        <time>2019-06-21T13:37:55Z</time>
      </trkpt>
      <trkpt lat="43.215130" lon="-8.948507">
        <ele>4.818</ele>
        <time>2019-06-21T13:37:56Z</time>
      </trkpt>
      <trkpt lat="43.215188" lon="-8.948656">
        <ele>5.330</ele>
        <time>2019-06-21T13:37:57Z</time>
      </trkpt>
      <trkpt lat="43.215257" lon="-8.948806">
        <ele>6.447</ele>
        <time>2019-06-21T13:37:58Z</time>
      </trkpt>
      <trkpt lat="43.215329" lon="-8.948965">
        <ele>7.123</ele>
        <time>2019-06-21T13:37:59Z</time>
      </trkpt>
      <trkpt lat="43.215410" lon="-8.949125">
        <ele>7.447</ele>
        <time>2019-06-21T13:38:00Z</time>
      </trkpt>
      <trkpt lat="43.215514" lon="-8.949282">
        <ele>7.679</ele>
        <time>2019-06-21T13:38:01Z</time>
      </trkpt>
      <trkpt lat="43.215642" lon="-8.949377">
        <ele>7.879</ele>
        <time>2019-06-21T13:38:02Z</time>
      </trkpt>
      <trkpt lat="43.215769" lon="-8.949485">
        <ele>8.105</ele>
        <time>2019-06-21T13:38:03Z</time>
      </trkpt>
      <trkpt lat="43.215910" lon="-8.949561">
        <ele>8.525</ele>
        <time>2019-06-21T13:38:04Z</time>
      </trkpt>
      <trkpt lat="43.216057" lon="-8.949651">
        <ele>9.308</ele>
        <time>2019-06-21T13:38:05Z</time>
      </trkpt>
      <trkpt lat="43.216208" lon="-8.949725">
        <ele>10.010</ele>
        <time>2019-06-21T13:38:06Z</time>
      </trkpt>
      <trkpt lat="43.216356" lon="-8.949803">
        <ele>10.324</ele>
        <time>2019-06-21T13:38:07Z</time>
      </trkpt>
      <trkpt lat="43.216507" lon="-8.949887">
        <ele>10.416</ele>
        <time>2019-06-21T13:38:08Z</time>
      </trkpt>
      <trkpt lat="43.216659" lon="-8.949989">
        <ele>10.948</ele>
        <time>2019-06-21T13:38:09Z</time>
      </trkpt>
      <trkpt lat="43.216800" lon="-8.950078">
        <ele>12.055</ele>
        <time>2019-06-21T13:38:10Z</time>
      </trkpt>
      <trkpt lat="43.216933" lon="-8.950169">
        <ele>13.211</ele>
        <time>2019-06-21T13:38:11Z</time>
      </trkpt>
      <trkpt lat="43.217080" lon="-8.950259">
        <ele>13.945</ele>
        <time>2019-06-21T13:38:12Z</time>
      </trkpt>
      <trkpt lat="43.217227" lon="-8.950344">
        <ele>14.217</ele>
        <time>2019-06-21T13:38:13Z</time>
      </trkpt>
      <trkpt lat="43.217366" lon="-8.950432">
        <ele>14.648</ele>
        <time>2019-06-21T13:38:14Z</time>
      </trkpt>
      <trkpt lat="43.217519" lon="-8.950518">
        <ele>14.961</ele>
        <time>2019-06-21T13:38:15Z</time>
      </trkpt>
      <trkpt lat="43.217674" lon="-8.950614">
        <ele>15.917</ele>
        <time>2019-06-21T13:38:16Z</time>
      </trkpt>
      <trkpt lat="43.217833" lon="-8.950712">
        <ele>16.608</ele>
        <time>2019-06-21T13:38:17Z</time>
      </trkpt>
      <trkpt lat="43.217984" lon="-8.950802">
        <ele>16.937</ele>
        <time>2019-06-21T13:38:18Z</time>
      </trkpt>
      <trkpt lat="43.218132" lon="-8.950894">
        <ele>17.471</ele>
        <time>2019-06-21T13:38:19Z</time>
      </trkpt>
      <trkpt lat="43.218278" lon="-8.950979">
        <ele>17.943</ele>
        <time>2019-06-21T13:38:20Z</time>
      </trkpt>
      <trkpt lat="43.218420" lon="-8.951054">
        <ele>18.635</ele>
        <time>2019-06-21T13:38:21Z</time>
      </trkpt>
      <trkpt lat="43.218558" lon="-8.951131">
        <ele>19.692</ele>
        <time>2019-06-21T13:38:22Z</time>
      </trkpt>
      <trkpt lat="43.218694" lon="-8.951208">
        <ele>19.918</ele>
        <time>2019-06-21T13:38:23Z</time>
      </trkpt>
      <trkpt lat="43.218833" lon="-8.951291">
        <ele>20.272</ele>
        <time>2019-06-21T13:38:24Z</time>
      </trkpt>
      <trkpt lat="43.218982" lon="-8.951375">
        <ele>20.464</ele>
        <time>2019-06-21T13:38:25Z</time>
      </trkpt>
      <trkpt lat="43.219127" lon="-8.951460">
        <ele>21.122</ele>
        <time>2019-06-21T13:38:26Z</time>
      </trkpt>
      <trkpt lat="43.219266" lon="-8.951564">
        <ele>22.062</ele>
        <time>2019-06-21T13:38:27Z</time>
      </trkpt>
      <trkpt lat="43.219398" lon="-8.951670">
        <ele>22.908</ele>
        <time>2019-06-21T13:38:28Z</time>
      </trkpt>
      <trkpt lat="43.219512" lon="-8.951803">
        <ele>24.308</ele>
        <time>2019-06-21T13:38:29Z</time>
      </trkpt>
      <trkpt lat="43.219607" lon="-8.951975">
        <ele>25.865</ele>
        <time>2019-06-21T13:38:30Z</time>
      </trkpt>
      <trkpt lat="43.219688" lon="-8.952166">
        <ele>28.139</ele>
        <time>2019-06-21T13:38:31Z</time>
      </trkpt>
      <trkpt lat="43.219765" lon="-8.952370">
        <ele>29.921</ele>
        <time>2019-06-21T13:38:32Z</time>
      </trkpt>
      <trkpt lat="43.219822" lon="-8.952597">
        <ele>31.863</ele>
        <time>2019-06-21T13:38:33Z</time>
      </trkpt>
      <trkpt lat="43.219871" lon="-8.952812">
        <ele>33.810</ele>
        <time>2019-06-21T13:38:34Z</time>
      </trkpt>
      <trkpt lat="43.219922" lon="-8.953021">
        <ele>35.786</ele>
        <time>2019-06-21T13:38:35Z</time>
      </trkpt>
      <trkpt lat="43.219978" lon="-8.953226">
        <ele>37.910</ele>
        <time>2019-06-21T13:38:36Z</time>
      </trkpt>
      <trkpt lat="43.220034" lon="-8.953418">
        <ele>40.362</ele>
        <time>2019-06-21T13:38:37Z</time>
      </trkpt>
      <trkpt lat="43.220084" lon="-8.953638">
        <ele>42.737</ele>
        <time>2019-06-21T13:38:38Z</time>
      </trkpt>
      <trkpt lat="43.220114" lon="-8.953842">
        <ele>45.149</ele>
        <time>2019-06-21T13:38:39Z</time>
      </trkpt>
      <trkpt lat="43.220146" lon="-8.954048">
        <ele>47.913</ele>
        <time>2019-06-21T13:38:40Z</time>
      </trkpt>
      <trkpt lat="43.220177" lon="-8.954256">
        <ele>50.508</ele>
        <time>2019-06-21T13:38:41Z</time>
      </trkpt>
      <trkpt lat="43.220191" lon="-8.954452">
        <ele>51.866</ele>
        <time>2019-06-21T13:38:42Z</time>
      </trkpt>
      <trkpt lat="43.220208" lon="-8.954660">
        <ele>51.770</ele>
        <time>2019-06-21T13:38:43Z</time>
      </trkpt>
      <trkpt lat="43.220233" lon="-8.954868">
        <ele>51.272</ele>
        <time>2019-06-21T13:38:44Z</time>
      </trkpt>
      <trkpt lat="43.220245" lon="-8.955063">
        <ele>50.884</ele>
        <time>2019-06-21T13:38:45Z</time>
      </trkpt>
      <trkpt lat="43.220261" lon="-8.955245">
        <ele>51.611</ele>
        <time>2019-06-21T13:38:46Z</time>
      </trkpt>
      <trkpt lat="43.220270" lon="-8.955440">
        <ele>53.027</ele>
        <time>2019-06-21T13:38:47Z</time>
      </trkpt>
      <trkpt lat="43.220293" lon="-8.955649">
        <ele>55.051</ele>
        <time>2019-06-21T13:38:48Z</time>
      </trkpt>
      <trkpt lat="43.220310" lon="-8.955846">
        <ele>56.713</ele>
        <time>2019-06-21T13:38:49Z</time>
      </trkpt>
      <trkpt lat="43.220335" lon="-8.956042">
        <ele>58.214</ele>
        <time>2019-06-21T13:38:50Z</time>
      </trkpt>
      <trkpt lat="43.220364" lon="-8.956241">
        <ele>59.454</ele>
        <time>2019-06-21T13:38:51Z</time>
      </trkpt>
      <trkpt lat="43.220396" lon="-8.956429">
        <ele>60.509</ele>
        <time>2019-06-21T13:38:52Z</time>
      </trkpt>
      <trkpt lat="43.220437" lon="-8.956610">
        <ele>62.008</ele>
        <time>2019-06-21T13:38:53Z</time>
      </trkpt>
      <trkpt lat="43.220479" lon="-8.956801">
        <ele>63.274</ele>
        <time>2019-06-21T13:38:54Z</time>
      </trkpt>
      <trkpt lat="43.220524" lon="-8.956982">
        <ele>64.458</ele>
        <time>2019-06-21T13:38:55Z</time>
      </trkpt>
      <trkpt lat="43.220570" lon="-8.957157">
        <ele>65.180</ele>
        <time>2019-06-21T13:38:56Z</time>
      </trkpt>
      <trkpt lat="43.220612" lon="-8.957327">
        <ele>66.072</ele>
        <time>2019-06-21T13:38:57Z</time>
      </trkpt>
      <trkpt lat="43.220662" lon="-8.957494">
        <ele>67.149</ele>
        <time>2019-06-21T13:38:58Z</time>
      </trkpt>
      <trkpt lat="43.220707" lon="-8.957660">
        <ele>68.535</ele>
        <time>2019-06-21T13:38:59Z</time>
      </trkpt>
      <trkpt lat="43.220747" lon="-8.957866">
        <ele>70.349</ele>
        <time>2019-06-21T13:39:00Z</time>
      </trkpt>
      <trkpt lat="43.220753" lon="-8.958034">
        <ele>71.361</ele>
        <time>2019-06-21T13:39:01Z</time>
      </trkpt>
      <trkpt lat="43.220784" lon="-8.958217">
        <ele>72.852</ele>
        <time>2019-06-21T13:39:02Z</time>
      </trkpt>
      <trkpt lat="43.220811" lon="-8.958393">
        <ele>73.953</ele>
        <time>2019-06-21T13:39:03Z</time>
      </trkpt>
      <trkpt lat="43.220823" lon="-8.958549">
        <ele>74.008</ele>
        <time>2019-06-21T13:39:04Z</time>
      </trkpt>
      <trkpt lat="43.220822" lon="-8.958699">
        <ele>74.608</ele>
        <time>2019-06-21T13:39:05Z</time>
      </trkpt>
      <trkpt lat="43.220826" lon="-8.958852">
        <ele>75.738</ele>
        <time>2019-06-21T13:39:06Z</time>
      </trkpt>
      <trkpt lat="43.220832" lon="-8.958994">
        <ele>76.432</ele>
        <time>2019-06-21T13:39:07Z</time>
      </trkpt>
      <trkpt lat="43.220834" lon="-8.959139">
        <ele>76.934</ele>
        <time>2019-06-21T13:39:08Z</time>
      </trkpt>
      <trkpt lat="43.220838" lon="-8.959280">
        <ele>77.466</ele>
        <time>2019-06-21T13:39:09Z</time>
      </trkpt>
      <trkpt lat="43.220833" lon="-8.959446">
        <ele>78.093</ele>
        <time>2019-06-21T13:39:10Z</time>
      </trkpt>
      <trkpt lat="43.220838" lon="-8.959624">
        <ele>78.639</ele>
        <time>2019-06-21T13:39:11Z</time>
      </trkpt>
      <trkpt lat="43.220845" lon="-8.959828">
        <ele>80.053</ele>
        <time>2019-06-21T13:39:12Z</time>
      </trkpt>
      <trkpt lat="43.220858" lon="-8.960050">
        <ele>81.855</ele>
        <time>2019-06-21T13:39:13Z</time>
      </trkpt>
      <trkpt lat="43.220867" lon="-8.960282">
        <ele>83.058</ele>
        <time>2019-06-21T13:39:14Z</time>
      </trkpt>
      <trkpt lat="43.220883" lon="-8.960529">
        <ele>83.252</ele>
        <time>2019-06-21T13:39:15Z</time>
      </trkpt>
      <trkpt lat="43.220900" lon="-8.960788">
        <ele>82.417</ele>
        <time>2019-06-21T13:39:16Z</time>
      </trkpt>
      <trkpt lat="43.220918" lon="-8.961053">
        <ele>82.108</ele>
        <time>2019-06-21T13:39:17Z</time>
      </trkpt>
      <trkpt lat="43.220955" lon="-8.961313">
        <ele>81.448</ele>
        <time>2019-06-21T13:39:18Z</time>
      </trkpt>
      <trkpt lat="43.221008" lon="-8.961585">
        <ele>80.462</ele>
        <time>2019-06-21T13:39:19Z</time>
      </trkpt>
      <trkpt lat="43.221075" lon="-8.961854">
        <ele>80.884</ele>
        <time>2019-06-21T13:39:20Z</time>
      </trkpt>
      <trkpt lat="43.221157" lon="-8.962118">
        <ele>81.356</ele>
        <time>2019-06-21T13:39:21Z</time>
      </trkpt>
      <trkpt lat="43.221257" lon="-8.962361">
        <ele>81.843</ele>
        <time>2019-06-21T13:39:22Z</time>
      </trkpt>
      <trkpt lat="43.221351" lon="-8.962620">
        <ele>84.189</ele>
        <time>2019-06-21T13:39:23Z</time>
      </trkpt>
      <trkpt lat="43.221445" lon="-8.962868">
        <ele>86.953</ele>
        <time>2019-06-21T13:39:24Z</time>
      </trkpt>
      <trkpt lat="43.221555" lon="-8.963103">
        <ele>89.565</ele>
        <time>2019-06-21T13:39:25Z</time>
      </trkpt>
      <trkpt lat="43.221649" lon="-8.963346">
        <ele>92.812</ele>
        <time>2019-06-21T13:39:26Z</time>
      </trkpt>
      <trkpt lat="43.221743" lon="-8.963580">
        <ele>93.632</ele>
        <time>2019-06-21T13:39:27Z</time>
      </trkpt>
      <trkpt lat="43.221801" lon="-8.963806">
        <ele>96.005</ele>
        <time>2019-06-21T13:39:28Z</time>
      </trkpt>
      <trkpt lat="43.221866" lon="-8.964053">
        <ele>95.708</ele>
        <time>2019-06-21T13:39:29Z</time>
      </trkpt>
      <trkpt lat="43.221906" lon="-8.964311">
        <ele>94.534</ele>
        <time>2019-06-21T13:39:30Z</time>
      </trkpt>
      <trkpt lat="43.221946" lon="-8.964567">
        <ele>92.538</ele>
        <time>2019-06-21T13:39:31Z</time>
      </trkpt>
      <trkpt lat="43.221969" lon="-8.964886">
        <ele>90.910</ele>
        <time>2019-06-21T13:39:32Z</time>
      </trkpt>
      <trkpt lat="43.221996" lon="-8.965163">
        <ele>90.852</ele>
        <time>2019-06-21T13:39:33Z</time>
      </trkpt>
      <trkpt lat="43.222035" lon="-8.965441">
        <ele>91.529</ele>
        <time>2019-06-21T13:39:34Z</time>
      </trkpt>
      <trkpt lat="43.222074" lon="-8.965709">
        <ele>91.955</ele>
        <time>2019-06-21T13:39:35Z</time>
      </trkpt>
      <trkpt lat="43.222107" lon="-8.965973">
        <ele>91.619</ele>
        <time>2019-06-21T13:39:36Z</time>
      </trkpt>
      <trkpt lat="43.222136" lon="-8.966228">
        <ele>90.151</ele>
        <time>2019-06-21T13:39:37Z</time>
      </trkpt>
      <trkpt lat="43.222171" lon="-8.966477">
        <ele>88.332</ele>
        <time>2019-06-21T13:39:38Z</time>
      </trkpt>
      <trkpt lat="43.222186" lon="-8.966681">
        <ele>87.892</ele>
        <time>2019-06-21T13:39:39Z</time>
      </trkpt>
      <trkpt lat="43.222193" lon="-8.966916">
        <ele>86.411</ele>
        <time>2019-06-21T13:39:40Z</time>
      </trkpt>
      <trkpt lat="43.222187" lon="-8.967118">
        <ele>85.208</ele>
        <time>2019-06-21T13:39:41Z</time>
      </trkpt>
      <trkpt lat="43.222133" lon="-8.967338">
        <ele>85.046</ele>
        <time>2019-06-21T13:39:42Z</time>
      </trkpt>
      <trkpt lat="43.222065" lon="-8.967546">
        <ele>84.350</ele>
        <time>2019-06-21T13:39:43Z</time>
      </trkpt>
      <trkpt lat="43.221997" lon="-8.967756">
        <ele>82.352</ele>
        <time>2019-06-21T13:39:44Z</time>
      </trkpt>
      <trkpt lat="43.221867" lon="-8.967966">
        <ele>82.914</ele>
        <time>2019-06-21T13:39:45Z</time>
      </trkpt>
      <trkpt lat="43.221760" lon="-8.968174">
        <ele>83.391</ele>
        <time>2019-06-21T13:39:46Z</time>
      </trkpt>
      <trkpt lat="43.221593" lon="-8.968431">
        <ele>84.287</ele>
        <time>2019-06-21T13:39:47Z</time>
      </trkpt>
      <trkpt lat="43.221433" lon="-8.968631">
        <ele>83.821</ele>
        <time>2019-06-21T13:39:48Z</time>
      </trkpt>
      <trkpt lat="43.221282" lon="-8.968839">
        <ele>83.543</ele>
        <time>2019-06-21T13:39:49Z</time>
      </trkpt>
      <trkpt lat="43.221123" lon="-8.969029">
        <ele>82.895</ele>
        <time>2019-06-21T13:39:50Z</time>
      </trkpt>
      <trkpt lat="43.220949" lon="-8.969239">
        <ele>87.349</ele>
        <time>2019-06-21T13:39:51Z</time>
      </trkpt>
      <trkpt lat="43.220802" lon="-8.969441">
        <ele>91.123</ele>
        <time>2019-06-21T13:39:52Z</time>
      </trkpt>
      <trkpt lat="43.220672" lon="-8.969659">
        <ele>90.508</ele>
        <time>2019-06-21T13:39:53Z</time>
      </trkpt>
      <trkpt lat="43.220562" lon="-8.969895">
        <ele>89.462</ele>
        <time>2019-06-21T13:39:54Z</time>
      </trkpt>
      <trkpt lat="43.220469" lon="-8.970144">
        <ele>87.436</ele>
        <time>2019-06-21T13:39:55Z</time>
      </trkpt>
      <trkpt lat="43.220395" lon="-8.970398">
        <ele>86.828</ele>
        <time>2019-06-21T13:39:56Z</time>
      </trkpt>
      <trkpt lat="43.220329" lon="-8.970664">
        <ele>87.050</ele>
        <time>2019-06-21T13:39:57Z</time>
      </trkpt>
      <trkpt lat="43.220280" lon="-8.970945">
        <ele>87.417</ele>
        <time>2019-06-21T13:39:58Z</time>
      </trkpt>
      <trkpt lat="43.220224" lon="-8.971228">
        <ele>89.093</ele>
        <time>2019-06-21T13:39:59Z</time>
      </trkpt>
      <trkpt lat="43.220164" lon="-8.971505">
        <ele>91.077</ele>
        <time>2019-06-21T13:40:00Z</time>
      </trkpt>
      <trkpt lat="43.220099" lon="-8.971781">
        <ele>92.749</ele>
        <time>2019-06-21T13:40:01Z</time>
      </trkpt>
      <trkpt lat="43.220045" lon="-8.972034">
        <ele>93.445</ele>
        <time>2019-06-21T13:40:02Z</time>
      </trkpt>
      <trkpt lat="43.219998" lon="-8.972287">
        <ele>94.147</ele>
        <time>2019-06-21T13:40:03Z</time>
      </trkpt>
      <trkpt lat="43.219960" lon="-8.972532">
        <ele>95.711</ele>
        <time>2019-06-21T13:40:04Z</time>
      </trkpt>
      <trkpt lat="43.219939" lon="-8.972773">
        <ele>95.708</ele>
        <time>2019-06-21T13:40:05Z</time>
      </trkpt>
      <trkpt lat="43.219916" lon="-8.973014">
        <ele>95.987</ele>
        <time>2019-06-21T13:40:06Z</time>
      </trkpt>
      <trkpt lat="43.219918" lon="-8.973258">
        <ele>95.791</ele>
        <time>2019-06-21T13:40:07Z</time>
      </trkpt>
      <trkpt lat="43.219924" lon="-8.973485">
        <ele>96.493</ele>
        <time>2019-06-21T13:40:08Z</time>
      </trkpt>
      <trkpt lat="43.219951" lon="-8.973723">
        <ele>98.155</ele>
        <time>2019-06-21T13:40:09Z</time>
      </trkpt>
      <trkpt lat="43.219973" lon="-8.973961">
        <ele>100.932</ele>
        <time>2019-06-21T13:40:10Z</time>
      </trkpt>
      <trkpt lat="43.220114" lon="-8.974232">
        <ele>101.538</ele>
        <time>2019-06-21T13:40:11Z</time>
      </trkpt>
      <trkpt lat="43.220183" lon="-8.974481">
        <ele>103.452</ele>
        <time>2019-06-21T13:40:12Z</time>
      </trkpt>
      <trkpt lat="43.220258" lon="-8.974711">
        <ele>104.354</ele>
        <time>2019-06-21T13:40:13Z</time>
      </trkpt>
      <trkpt lat="43.220319" lon="-8.974931">
        <ele>104.874</ele>
        <time>2019-06-21T13:40:14Z</time>
      </trkpt>
      <trkpt lat="43.220378" lon="-8.975159">
        <ele>104.856</ele>
        <time>2019-06-21T13:40:15Z</time>
      </trkpt>
      <trkpt lat="43.220396" lon="-8.975384">
        <ele>104.721</ele>
        <time>2019-06-21T13:40:16Z</time>
      </trkpt>
      <trkpt lat="43.220414" lon="-8.975612">
        <ele>103.808</ele>
        <time>2019-06-21T13:40:17Z</time>
      </trkpt>
      <trkpt lat="43.220423" lon="-8.975870">
        <ele>102.650</ele>
        <time>2019-06-21T13:40:18Z</time>
      </trkpt>
      <trkpt lat="43.220396" lon="-8.976148">
        <ele>99.654</ele>
        <time>2019-06-21T13:40:19Z</time>
      </trkpt>
      <trkpt lat="43.220375" lon="-8.976435">
        <ele>96.796</ele>
        <time>2019-06-21T13:40:20Z</time>
      </trkpt>
      <trkpt lat="43.220347" lon="-8.976732">
        <ele>95.418</ele>
        <time>2019-06-21T13:40:21Z</time>
      </trkpt>
      <trkpt lat="43.220313" lon="-8.977023">
        <ele>95.875</ele>
        <time>2019-06-21T13:40:22Z</time>
      </trkpt>
      <trkpt lat="43.220281" lon="-8.977336">
        <ele>96.021</ele>
        <time>2019-06-21T13:40:23Z</time>
      </trkpt>
      <trkpt lat="43.220253" lon="-8.977638">
        <ele>95.685</ele>
        <time>2019-06-21T13:40:24Z</time>
      </trkpt>
      <trkpt lat="43.220222" lon="-8.977956">
        <ele>94.327</ele>
        <time>2019-06-21T13:40:25Z</time>
      </trkpt>
      <trkpt lat="43.220165" lon="-8.978263">
        <ele>92.958</ele>
        <time>2019-06-21T13:40:26Z</time>
      </trkpt>
      <trkpt lat="43.220121" lon="-8.978575">
        <ele>89.952</ele>
        <time>2019-06-21T13:40:27Z</time>
      </trkpt>
      <trkpt lat="43.220086" lon="-8.978883">
        <ele>86.517</ele>
        <time>2019-06-21T13:40:28Z</time>
      </trkpt>
      <trkpt lat="43.220052" lon="-8.979184">
        <ele>83.208</ele>
        <time>2019-06-21T13:40:29Z</time>
      </trkpt>
      <trkpt lat="43.220016" lon="-8.979496">
        <ele>79.628</ele>
        <time>2019-06-21T13:40:30Z</time>
      </trkpt>
      <trkpt lat="43.219962" lon="-8.979791">
        <ele>77.992</ele>
        <time>2019-06-21T13:40:31Z</time>
      </trkpt>
      <trkpt lat="43.219900" lon="-8.980108">
        <ele>76.264</ele>
        <time>2019-06-21T13:40:32Z</time>
      </trkpt>
      <trkpt lat="43.219831" lon="-8.980419">
        <ele>75.726</ele>
        <time>2019-06-21T13:40:33Z</time>
      </trkpt>
      <trkpt lat="43.219761" lon="-8.980726">
        <ele>76.613</ele>
        <time>2019-06-21T13:40:34Z</time>
      </trkpt>
      <trkpt lat="43.219719" lon="-8.981032">
        <ele>76.479</ele>
        <time>2019-06-21T13:40:35Z</time>
      </trkpt>
      <trkpt lat="43.219685" lon="-8.981360">
        <ele>75.043</ele>
        <time>2019-06-21T13:40:36Z</time>
      </trkpt>
      <trkpt lat="43.219666" lon="-8.981670">
        <ele>72.255</ele>
        <time>2019-06-21T13:40:37Z</time>
      </trkpt>
      <trkpt lat="43.219654" lon="-8.981976">
        <ele>70.027</ele>
        <time>2019-06-21T13:40:38Z</time>
      </trkpt>
      <trkpt lat="43.219644" lon="-8.982270">
        <ele>68.168</ele>
        <time>2019-06-21T13:40:39Z</time>
      </trkpt>
      <trkpt lat="43.219643" lon="-8.982533">
        <ele>66.314</ele>
        <time>2019-06-21T13:40:40Z</time>
      </trkpt>
      <trkpt lat="43.219645" lon="-8.982808">
        <ele>65.508</ele>
        <time>2019-06-21T13:40:41Z</time>
      </trkpt>
      <trkpt lat="43.219663" lon="-8.983094">
        <ele>63.655</ele>
        <time>2019-06-21T13:40:42Z</time>
      </trkpt>
      <trkpt lat="43.219693" lon="-8.983375">
        <ele>63.419</ele>
        <time>2019-06-21T13:40:43Z</time>
      </trkpt>
      <trkpt lat="43.219715" lon="-8.983655">
        <ele>64.861</ele>
        <time>2019-06-21T13:40:44Z</time>
      </trkpt>
      <trkpt lat="43.219793" lon="-8.983865">
        <ele>64.573</ele>
        <time>2019-06-21T13:40:45Z</time>
      </trkpt>
      <trkpt lat="43.219853" lon="-8.984097">
        <ele>63.110</ele>
        <time>2019-06-21T13:40:46Z</time>
      </trkpt>
      <trkpt lat="43.219927" lon="-8.984259">
        <ele>60.866</ele>
        <time>2019-06-21T13:40:47Z</time>
      </trkpt>
      <trkpt lat="43.219990" lon="-8.984453">
        <ele>58.380</ele>
        <time>2019-06-21T13:40:48Z</time>
      </trkpt>
      <trkpt lat="43.219994" lon="-8.984703">
        <ele>57.282</ele>
        <time>2019-06-21T13:40:49Z</time>
      </trkpt>
      <trkpt lat="43.220016" lon="-8.984963">
        <ele>55.739</ele>
        <time>2019-06-21T13:40:50Z</time>
      </trkpt>
      <trkpt lat="43.220024" lon="-8.985228">
        <ele>54.601</ele>
        <time>2019-06-21T13:40:51Z</time>
      </trkpt>
      <trkpt lat="43.220060" lon="-8.985474">
        <ele>53.921</ele>
        <time>2019-06-21T13:40:52Z</time>
      </trkpt>
      <trkpt lat="43.220049" lon="-8.985732">
        <ele>52.808</ele>
        <time>2019-06-21T13:40:53Z</time>
      </trkpt>
      <trkpt lat="43.220021" lon="-8.985989">
        <ele>50.996</ele>
        <time>2019-06-21T13:40:54Z</time>
      </trkpt>
      <trkpt lat="43.219948" lon="-8.986237">
        <ele>49.870</ele>
        <time>2019-06-21T13:40:55Z</time>
      </trkpt>
      <trkpt lat="43.219879" lon="-8.986483">
        <ele>48.592</ele>
        <time>2019-06-21T13:40:56Z</time>
      </trkpt>
      <trkpt lat="43.219787" lon="-8.986722">
        <ele>48.554</ele>
        <time>2019-06-21T13:40:57Z</time>
      </trkpt>
      <trkpt lat="43.219675" lon="-8.986988">
        <ele>48.381</ele>
        <time>2019-06-21T13:40:58Z</time>
      </trkpt>
      <trkpt lat="43.219511" lon="-8.987165">
        <ele>48.227</ele>
        <time>2019-06-21T13:40:59Z</time>
      </trkpt>
      <trkpt lat="43.219369" lon="-8.987390">
        <ele>45.881</ele>
        <time>2019-06-21T13:41:00Z</time>
      </trkpt>
      <trkpt lat="43.219228" lon="-8.987593">
        <ele>43.983</ele>
        <time>2019-06-21T13:41:01Z</time>
      </trkpt>
      <trkpt lat="43.219087" lon="-8.987803">
        <ele>42.826</ele>
        <time>2019-06-21T13:41:02Z</time>
      </trkpt>
      <trkpt lat="43.218954" lon="-8.988002">
        <ele>42.047</ele>
        <time>2019-06-21T13:41:03Z</time>
      </trkpt>
      <trkpt lat="43.218825" lon="-8.988207">
        <ele>40.811</ele>
        <time>2019-06-21T13:41:04Z</time>
      </trkpt>
      <trkpt lat="43.218701" lon="-8.988424">
        <ele>39.608</ele>
        <time>2019-06-21T13:41:05Z</time>
      </trkpt>
      <trkpt lat="43.218593" lon="-8.988634">
        <ele>39.055</ele>
        <time>2019-06-21T13:41:06Z</time>
      </trkpt>
      <trkpt lat="43.218483" lon="-8.988815">
        <ele>38.299</ele>
        <time>2019-06-21T13:41:07Z</time>
      </trkpt>
      <trkpt lat="43.218364" lon="-8.989001">
        <ele>36.741</ele>
        <time>2019-06-21T13:41:08Z</time>
      </trkpt>
      <trkpt lat="43.218248" lon="-8.989180">
        <ele>35.143</ele>
        <time>2019-06-21T13:41:09Z</time>
      </trkpt>
      <trkpt lat="43.218138" lon="-8.989346">
        <ele>33.190</ele>
        <time>2019-06-21T13:41:10Z</time>
      </trkpt>
      <trkpt lat="43.218032" lon="-8.989500">
        <ele>31.126</ele>
        <time>2019-06-21T13:41:11Z</time>
      </trkpt>
      <trkpt lat="43.217917" lon="-8.989652">
        <ele>29.560</ele>
        <time>2019-06-21T13:41:12Z</time>
      </trkpt>
      <trkpt lat="43.217793" lon="-8.989806">
        <ele>28.642</ele>
        <time>2019-06-21T13:41:13Z</time>
      </trkpt>
      <trkpt lat="43.217670" lon="-8.989959">
        <ele>26.652</ele>
        <time>2019-06-21T13:41:14Z</time>
      </trkpt>
      <trkpt lat="43.217531" lon="-8.990047">
        <ele>25.353</ele>
        <time>2019-06-21T13:41:15Z</time>
      </trkpt>
      <trkpt lat="43.217394" lon="-8.990139">
        <ele>23.808</ele>
        <time>2019-06-21T13:41:16Z</time>
      </trkpt>
      <trkpt lat="43.217270" lon="-8.990185">
        <ele>22.808</ele>
        <time>2019-06-21T13:41:17Z</time>
      </trkpt>
      <trkpt lat="43.217137" lon="-8.990305">
        <ele>20.938</ele>
        <time>2019-06-21T13:41:18Z</time>
      </trkpt>
      <trkpt lat="43.217008" lon="-8.990439">
        <ele>19.912</ele>
        <time>2019-06-21T13:41:19Z</time>
      </trkpt>
      <trkpt lat="43.216886" lon="-8.990585">
        <ele>19.454</ele>
        <time>2019-06-21T13:41:20Z</time>
      </trkpt>
      <trkpt lat="43.216803" lon="-8.990743">
        <ele>18.356</ele>
        <time>2019-06-21T13:41:21Z</time>
      </trkpt>
      <trkpt lat="43.216723" lon="-8.990878">
        <ele>17.133</ele>
        <time>2019-06-21T13:41:22Z</time>
      </trkpt>
      <trkpt lat="43.216654" lon="-8.991017">
        <ele>14.669</ele>
        <time>2019-06-21T13:41:23Z</time>
      </trkpt>
      <trkpt lat="43.216592" lon="-8.991127">
        <ele>12.933</ele>
        <time>2019-06-21T13:41:24Z</time>
      </trkpt>
      <trkpt lat="43.216543" lon="-8.991230">
        <ele>11.265</ele>
        <time>2019-06-21T13:41:25Z</time>
      </trkpt>
      <trkpt lat="43.216504" lon="-8.991294">
        <ele>10.459</ele>
        <time>2019-06-21T13:41:26Z</time>
      </trkpt>
      <trkpt lat="43.216471" lon="-8.991339">
        <ele>10.103</ele>
        <time>2019-06-21T13:41:27Z</time>
      </trkpt>
      <trkpt lat="43.216460" lon="-8.991237">
        <ele>12.823</ele>
        <time>2019-06-21T13:41:35Z</time>
      </trkpt>
      <trkpt lat="43.216464" lon="-8.991166">
        <ele>14.408</ele>
        <time>2019-06-21T13:41:45Z</time>
      </trkpt>
      <trkpt lat="43.216398" lon="-8.991238">
        <ele>14.188</ele>
        <time>2019-06-21T13:42:30Z</time>
      </trkpt>
      <trkpt lat="43.216343" lon="-8.991296">
        <ele>13.782</ele>
        <time>2019-06-21T13:42:31Z</time>
      </trkpt>
      <trkpt lat="43.216268" lon="-8.991369">
        <ele>13.294</ele>
        <time>2019-06-21T13:42:32Z</time>
      </trkpt>
      <trkpt lat="43.216176" lon="-8.991447">
        <ele>12.786</ele>
        <time>2019-06-21T13:42:33Z</time>
      </trkpt>
      <trkpt lat="43.216071" lon="-8.991532">
        <ele>12.223</ele>
        <time>2019-06-21T13:42:34Z</time>
      </trkpt>
      <trkpt lat="43.215956" lon="-8.991607">
        <ele>11.419</ele>
        <time>2019-06-21T13:42:35Z</time>
      </trkpt>
      <trkpt lat="43.215820" lon="-8.991694">
        <ele>10.483</ele>
        <time>2019-06-21T13:42:36Z</time>
      </trkpt>
      <trkpt lat="43.215678" lon="-8.991781">
        <ele>8.115</ele>
        <time>2019-06-21T13:42:37Z</time>
      </trkpt>
      <trkpt lat="43.215532" lon="-8.991868">
        <ele>6.267</ele>
        <time>2019-06-21T13:42:38Z</time>
      </trkpt>
      <trkpt lat="43.215376" lon="-8.991941">
        <ele>5.781</ele>
        <time>2019-06-21T13:42:39Z</time>
      </trkpt>
      <trkpt lat="43.215222" lon="-8.992014">
        <ele>5.919</ele>
        <time>2019-06-21T13:42:40Z</time>
      </trkpt>
      <trkpt lat="43.215098" lon="-8.992037">
        <ele>6.608</ele>
        <time>2019-06-21T13:42:41Z</time>
      </trkpt>
      <trkpt lat="43.214956" lon="-8.992125">
        <ele>7.379</ele>
        <time>2019-06-21T13:42:42Z</time>
      </trkpt>
      <trkpt lat="43.214825" lon="-8.992224">
        <ele>7.993</ele>
        <time>2019-06-21T13:42:43Z</time>
      </trkpt>
      <trkpt lat="43.214688" lon="-8.992321">
        <ele>8.055</ele>
        <time>2019-06-21T13:42:44Z</time>
      </trkpt>
      <trkpt lat="43.214566" lon="-8.992452">
        <ele>6.677</ele>
        <time>2019-06-21T13:42:45Z</time>
      </trkpt>
      <trkpt lat="43.214445" lon="-8.992655">
        <ele>4.314</ele>
        <time>2019-06-21T13:42:46Z</time>
      </trkpt>
      <trkpt lat="43.214337" lon="-8.992840">
        <ele>3.080</ele>
        <time>2019-06-21T13:42:47Z</time>
      </trkpt>
      <trkpt lat="43.214221" lon="-8.993035">
        <ele>3.074</ele>
        <time>2019-06-21T13:42:48Z</time>
      </trkpt>
      <trkpt lat="43.214101" lon="-8.993222">
        <ele>3.166</ele>
        <time>2019-06-21T13:42:49Z</time>
      </trkpt>
      <trkpt lat="43.213984" lon="-8.993416">
        <ele>3.732</ele>
        <time>2019-06-21T13:42:50Z</time>
      </trkpt>
      <trkpt lat="43.213884" lon="-8.993616">
        <ele>4.092</ele>
        <time>2019-06-21T13:42:51Z</time>
      </trkpt>
      <trkpt lat="43.213792" lon="-8.993814">
        <ele>4.811</ele>
        <time>2019-06-21T13:42:52Z</time>
      </trkpt>
      <trkpt lat="43.213699" lon="-8.994051">
        <ele>4.408</ele>
        <time>2019-06-21T13:42:53Z</time>
      </trkpt>
      <trkpt lat="43.213638" lon="-8.994288">
        <ele>3.256</ele>
        <time>2019-06-21T13:42:54Z</time>
      </trkpt>
      <trkpt lat="43.213586" lon="-8.994540">
        <ele>1.710</ele>
        <time>2019-06-21T13:42:55Z</time>
      </trkpt>
      <trkpt lat="43.213554" lon="-8.994797">
        <ele>0.842</ele>
        <time>2019-06-21T13:42:56Z</time>
      </trkpt>
      <trkpt lat="43.213541" lon="-8.995049">
        <ele>0.394</ele>
        <time>2019-06-21T13:42:57Z</time>
      </trkpt>
      <trkpt lat="43.213535" lon="-8.995330">
        <ele>0.481</ele>
        <time>2019-06-21T13:42:58Z</time>
      </trkpt>
      <trkpt lat="43.213554" lon="-8.995613">
        <ele>1.487</ele>
        <time>2019-06-21T13:42:59Z</time>
      </trkpt>
      <trkpt lat="43.213572" lon="-8.995920">
        <ele>3.211</ele>
        <time>2019-06-21T13:43:00Z</time>
      </trkpt>
      <trkpt lat="43.213581" lon="-8.996227">
        <ele>3.973</ele>
        <time>2019-06-21T13:43:01Z</time>
      </trkpt>
      <trkpt lat="43.213602" lon="-8.996546">
        <ele>4.055</ele>
        <time>2019-06-21T13:43:02Z</time>
      </trkpt>
      <trkpt lat="43.213623" lon="-8.996862">
        <ele>4.007</ele>
        <time>2019-06-21T13:43:03Z</time>
      </trkpt>
      <trkpt lat="43.213649" lon="-8.997180">
        <ele>4.717</ele>
        <time>2019-06-21T13:43:04Z</time>
      </trkpt>
      <trkpt lat="43.213680" lon="-8.997487">
        <ele>4.808</ele>
        <time>2019-06-21T13:43:05Z</time>
      </trkpt>
      <trkpt lat="43.213698" lon="-8.997812">
        <ele>3.678</ele>
        <time>2019-06-21T13:43:06Z</time>
      </trkpt>
      <trkpt lat="43.213719" lon="-8.998136">
        <ele>3.722</ele>
        <time>2019-06-21T13:43:07Z</time>
      </trkpt>
      <trkpt lat="43.213742" lon="-8.998453">
        <ele>4.714</ele>
        <time>2019-06-21T13:43:08Z</time>
      </trkpt>
      <trkpt lat="43.213763" lon="-8.998764">
        <ele>5.996</ele>
        <time>2019-06-21T13:43:09Z</time>
      </trkpt>
      <trkpt lat="43.213783" lon="-8.999062">
        <ele>7.253</ele>
        <time>2019-06-21T13:43:10Z</time>
      </trkpt>
      <trkpt lat="43.213795" lon="-8.999353">
        <ele>8.339</ele>
        <time>2019-06-21T13:43:11Z</time>
      </trkpt>
      <trkpt lat="43.213813" lon="-8.999627">
        <ele>9.473</ele>
        <time>2019-06-21T13:43:12Z</time>
      </trkpt>
      <trkpt lat="43.213836" lon="-8.999893">
        <ele>10.455</ele>
        <time>2019-06-21T13:43:13Z</time>
      </trkpt>
      <trkpt lat="43.213862" lon="-9.000150">
        <ele>11.496</ele>
        <time>2019-06-21T13:43:14Z</time>
      </trkpt>
      <trkpt lat="43.213898" lon="-9.000390">
        <ele>12.431</ele>
        <time>2019-06-21T13:43:15Z</time>
      </trkpt>
      <trkpt lat="43.213931" lon="-9.000644">
        <ele>13.324</ele>
        <time>2019-06-21T13:43:16Z</time>
      </trkpt>
      <trkpt lat="43.214000" lon="-9.000889">
        <ele>14.208</ele>
        <time>2019-06-21T13:43:17Z</time>
      </trkpt>
      <trkpt lat="43.214048" lon="-9.001118">
        <ele>15.052</ele>
        <time>2019-06-21T13:43:18Z</time>
      </trkpt>
      <trkpt lat="43.214097" lon="-9.001343">
        <ele>16.056</ele>
        <time>2019-06-21T13:43:19Z</time>
      </trkpt>
      <trkpt lat="43.214147" lon="-9.001566">
        <ele>17.978</ele>
        <time>2019-06-21T13:43:20Z</time>
      </trkpt>
      <trkpt lat="43.214205" lon="-9.001796">
        <ele>19.850</ele>
        <time>2019-06-21T13:43:21Z</time>
      </trkpt>
      <trkpt lat="43.214256" lon="-9.002018">
        <ele>20.987</ele>
        <time>2019-06-21T13:43:22Z</time>
      </trkpt>
      <trkpt lat="43.214315" lon="-9.002268">
        <ele>21.663</ele>
        <time>2019-06-21T13:43:23Z</time>
      </trkpt>
      <trkpt lat="43.214366" lon="-9.002504">
        <ele>22.397</ele>
        <time>2019-06-21T13:43:24Z</time>
      </trkpt>
      <trkpt lat="43.214401" lon="-9.002749">
        <ele>22.339</ele>
        <time>2019-06-21T13:43:25Z</time>
      </trkpt>
      <trkpt lat="43.214456" lon="-9.002981">
        <ele>21.975</ele>
        <time>2019-06-21T13:43:26Z</time>
      </trkpt>
      <trkpt lat="43.214454" lon="-9.003222">
        <ele>21.928</ele>
        <time>2019-06-21T13:43:27Z</time>
      </trkpt>
      <trkpt lat="43.214462" lon="-9.003461">
        <ele>23.120</ele>
        <time>2019-06-21T13:43:28Z</time>
      </trkpt>
      <trkpt lat="43.214428" lon="-9.003661">
        <ele>25.508</ele>
        <time>2019-06-21T13:43:29Z</time>
      </trkpt>
      <trkpt lat="43.214404" lon="-9.003865">
        <ele>27.330</ele>
        <time>2019-06-21T13:43:30Z</time>
      </trkpt>
      <trkpt lat="43.214402" lon="-9.004048">
        <ele>27.594</ele>
        <time>2019-06-21T13:43:31Z</time>
      </trkpt>
      <trkpt lat="43.214404" lon="-9.004207">
        <ele>27.646</ele>
        <time>2019-06-21T13:43:32Z</time>
      </trkpt>
      <trkpt lat="43.214402" lon="-9.004364">
        <ele>28.168</ele>
        <time>2019-06-21T13:43:33Z</time>
      </trkpt>
      <trkpt lat="43.214429" lon="-9.004495">
        <ele>28.325</ele>
        <time>2019-06-21T13:43:34Z</time>
      </trkpt>
      <trkpt lat="43.214477" lon="-9.004650">
        <ele>28.511</ele>
        <time>2019-06-21T13:43:35Z</time>
      </trkpt>
      <trkpt lat="43.214530" lon="-9.004788">
        <ele>28.885</ele>
        <time>2019-06-21T13:43:36Z</time>
      </trkpt>
      <trkpt lat="43.214585" lon="-9.004908">
        <ele>29.067</ele>
        <time>2019-06-21T13:43:37Z</time>
      </trkpt>
      <trkpt lat="43.214653" lon="-9.005026">
        <ele>28.984</ele>
        <time>2019-06-21T13:43:38Z</time>
      </trkpt>
      <trkpt lat="43.214725" lon="-9.005142">
        <ele>28.507</ele>
        <time>2019-06-21T13:43:39Z</time>
      </trkpt>
      <trkpt lat="43.214802" lon="-9.005252">
        <ele>28.917</ele>
        <time>2019-06-21T13:43:40Z</time>
      </trkpt>
      <trkpt lat="43.214862" lon="-9.005362">
        <ele>30.208</ele>
        <time>2019-06-21T13:43:41Z</time>
      </trkpt>
      <trkpt lat="43.214920" lon="-9.005446">
        <ele>31.411</ele>
        <time>2019-06-21T13:43:42Z</time>
      </trkpt>
      <trkpt lat="43.215001" lon="-9.005454">
        <ele>31.625</ele>
        <time>2019-06-21T13:43:43Z</time>
      </trkpt>
      <trkpt lat="43.215102" lon="-9.005393">
        <ele>32.147</ele>
        <time>2019-06-21T13:43:44Z</time>
      </trkpt>
      <trkpt lat="43.215179" lon="-9.005422">
        <ele>33.779</ele>
        <time>2019-06-21T13:43:45Z</time>
      </trkpt>
      <trkpt lat="43.215385" lon="-9.005267">
        <ele>33.796</ele>
        <time>2019-06-21T13:43:46Z</time>
      </trkpt>
      <trkpt lat="43.215516" lon="-9.005212">
        <ele>34.252</ele>
        <time>2019-06-21T13:43:47Z</time>
      </trkpt>
      <trkpt lat="43.215626" lon="-9.005162">
        <ele>34.076</ele>
        <time>2019-06-21T13:43:48Z</time>
      </trkpt>
      <trkpt lat="43.215718" lon="-9.005117">
        <ele>33.698</ele>
        <time>2019-06-21T13:43:49Z</time>
      </trkpt>
      <trkpt lat="43.215836" lon="-9.005094">
        <ele>33.348</ele>
        <time>2019-06-21T13:43:50Z</time>
      </trkpt>
      <trkpt lat="43.215934" lon="-9.005083">
        <ele>32.761</ele>
        <time>2019-06-21T13:43:51Z</time>
      </trkpt>
      <trkpt lat="43.216066" lon="-9.005070">
        <ele>31.817</ele>
        <time>2019-06-21T13:43:52Z</time>
      </trkpt>
      <trkpt lat="43.216182" lon="-9.005022">
        <ele>30.908</ele>
        <time>2019-06-21T13:43:53Z</time>
      </trkpt>
      <trkpt lat="43.216290" lon="-9.005004">
        <ele>30.437</ele>
        <time>2019-06-21T13:43:54Z</time>
      </trkpt>
      <trkpt lat="43.216395" lon="-9.004969">
        <ele>29.311</ele>
        <time>2019-06-21T13:43:55Z</time>
      </trkpt>
      <trkpt lat="43.216489" lon="-9.004947">
        <ele>28.493</ele>
        <time>2019-06-21T13:43:56Z</time>
      </trkpt>
      <trkpt lat="43.216572" lon="-9.004940">
        <ele>27.935</ele>
        <time>2019-06-21T13:43:57Z</time>
      </trkpt>
      <trkpt lat="43.216649" lon="-9.004902">
        <ele>26.632</ele>
        <time>2019-06-21T13:43:58Z</time>
      </trkpt>
      <trkpt lat="43.216758" lon="-9.004853">
        <ele>25.058</ele>
        <time>2019-06-21T13:43:59Z</time>
      </trkpt>
      <trkpt lat="43.216828" lon="-9.004831">
        <ele>24.412</ele>
        <time>2019-06-21T13:44:00Z</time>
      </trkpt>
      <trkpt lat="43.216926" lon="-9.004809">
        <ele>24.044</ele>
        <time>2019-06-21T13:44:01Z</time>
      </trkpt>
      <trkpt lat="43.217045" lon="-9.004753">
        <ele>23.061</ele>
        <time>2019-06-21T13:44:02Z</time>
      </trkpt>
      <trkpt lat="43.217133" lon="-9.004720">
        <ele>22.321</ele>
        <time>2019-06-21T13:44:03Z</time>
      </trkpt>
      <trkpt lat="43.217190" lon="-9.004770">
        <ele>22.613</ele>
        <time>2019-06-21T13:44:04Z</time>
      </trkpt>
      <trkpt lat="43.217261" lon="-9.004778">
        <ele>22.308</ele>
        <time>2019-06-21T13:44:05Z</time>
      </trkpt>
      <trkpt lat="43.217263" lon="-9.004848">
        <ele>23.019</ele>
        <time>2019-06-21T13:44:06Z</time>
      </trkpt>
      <trkpt lat="43.217332" lon="-9.004911">
        <ele>23.043</ele>
        <time>2019-06-21T13:44:07Z</time>
      </trkpt>
      <trkpt lat="43.217417" lon="-9.004980">
        <ele>22.755</ele>
        <time>2019-06-21T13:44:08Z</time>
      </trkpt>
      <trkpt lat="43.217489" lon="-9.005024">
        <ele>22.567</ele>
        <time>2019-06-21T13:44:09Z</time>
      </trkpt>
      <trkpt lat="43.217561" lon="-9.005065">
        <ele>22.444</ele>
        <time>2019-06-21T13:44:10Z</time>
      </trkpt>
      <trkpt lat="43.217632" lon="-9.005109">
        <ele>22.460</ele>
        <time>2019-06-21T13:44:11Z</time>
      </trkpt>
      <trkpt lat="43.217722" lon="-9.005152">
        <ele>22.274</ele>
        <time>2019-06-21T13:44:12Z</time>
      </trkpt>
      <trkpt lat="43.217799" lon="-9.005197">
        <ele>21.916</ele>
        <time>2019-06-21T13:44:13Z</time>
      </trkpt>
      <trkpt lat="43.217870" lon="-9.005227">
        <ele>21.465</ele>
        <time>2019-06-21T13:44:14Z</time>
      </trkpt>
      <trkpt lat="43.217946" lon="-9.005244">
        <ele>20.768</ele>
        <time>2019-06-21T13:44:15Z</time>
      </trkpt>
      <trkpt lat="43.218100" lon="-9.005175">
        <ele>17.914</ele>
        <time>2019-06-21T13:44:16Z</time>
      </trkpt>
      <trkpt lat="43.218172" lon="-9.005163">
        <ele>16.808</ele>
        <time>2019-06-21T13:44:17Z</time>
      </trkpt>
      <trkpt lat="43.218241" lon="-9.005169">
        <ele>16.079</ele>
        <time>2019-06-21T13:44:18Z</time>
      </trkpt>
      <trkpt lat="43.218330" lon="-9.005149">
        <ele>14.793</ele>
        <time>2019-06-21T13:44:19Z</time>
      </trkpt>
      <trkpt lat="43.218420" lon="-9.005111">
        <ele>14.335</ele>
        <time>2019-06-21T13:44:20Z</time>
      </trkpt>
      <trkpt lat="43.218496" lon="-9.005087">
        <ele>14.117</ele>
        <time>2019-06-21T13:44:21Z</time>
      </trkpt>
      <trkpt lat="43.218597" lon="-9.005060">
        <ele>13.964</ele>
        <time>2019-06-21T13:44:22Z</time>
      </trkpt>
      <trkpt lat="43.218679" lon="-9.005038">
        <ele>13.580</ele>
        <time>2019-06-21T13:44:23Z</time>
      </trkpt>
      <trkpt lat="43.218755" lon="-9.005028">
        <ele>13.434</ele>
        <time>2019-06-21T13:44:24Z</time>
      </trkpt>
      <trkpt lat="43.218827" lon="-9.005013">
        <ele>13.226</ele>
        <time>2019-06-21T13:44:25Z</time>
      </trkpt>
      <trkpt lat="43.218930" lon="-9.005044">
        <ele>13.482</ele>
        <time>2019-06-21T13:44:26Z</time>
      </trkpt>
      <trkpt lat="43.219022" lon="-9.005116">
        <ele>13.843</ele>
        <time>2019-06-21T13:44:28Z</time>
      </trkpt>
      <trkpt lat="43.219087" lon="-9.005151">
        <ele>13.717</ele>
        <time>2019-06-21T13:44:29Z</time>
      </trkpt>
      <trkpt lat="43.219175" lon="-9.005206">
        <ele>13.408</ele>
        <time>2019-06-21T13:44:30Z</time>
      </trkpt>
      <trkpt lat="43.219248" lon="-9.005243">
        <ele>13.151</ele>
        <time>2019-06-21T13:44:31Z</time>
      </trkpt>
      <trkpt lat="43.219317" lon="-9.005272">
        <ele>12.925</ele>
        <time>2019-06-21T13:44:32Z</time>
      </trkpt>
      <trkpt lat="43.219325" lon="-9.005354">
        <ele>13.557</ele>
        <time>2019-06-21T13:44:33Z</time>
      </trkpt>
      <trkpt lat="43.219402" lon="-9.005389">
        <ele>13.269</ele>
        <time>2019-06-21T13:44:34Z</time>
      </trkpt>
      <trkpt lat="43.219474" lon="-9.005413">
        <ele>12.846</ele>
        <time>2019-06-21T13:44:35Z</time>
      </trkpt>
      <trkpt lat="43.219558" lon="-9.005436">
        <ele>12.332</ele>
        <time>2019-06-21T13:44:36Z</time>
      </trkpt>
      <trkpt lat="43.219638" lon="-9.005454">
        <ele>11.936</ele>
        <time>2019-06-21T13:44:37Z</time>
      </trkpt>
      <trkpt lat="43.219709" lon="-9.005478">
        <ele>11.558</ele>
        <time>2019-06-21T13:44:38Z</time>
      </trkpt>
      <trkpt lat="43.219800" lon="-9.005500">
        <ele>11.192</ele>
        <time>2019-06-21T13:44:39Z</time>
      </trkpt>
      <trkpt lat="43.219861" lon="-9.005525">
        <ele>10.873</ele>
        <time>2019-06-21T13:44:40Z</time>
      </trkpt>
      <trkpt lat="43.219936" lon="-9.005554">
        <ele>10.520</ele>
        <time>2019-06-21T13:44:41Z</time>
      </trkpt>
      <trkpt lat="43.220013" lon="-9.005589">
        <ele>10.108</ele>
        <time>2019-06-21T13:44:42Z</time>
      </trkpt>
      <trkpt lat="43.220088" lon="-9.005618">
        <ele>9.962</ele>
        <time>2019-06-21T13:44:43Z</time>
      </trkpt>
      <trkpt lat="43.220157" lon="-9.005652">
        <ele>9.856</ele>
        <time>2019-06-21T13:44:44Z</time>
      </trkpt>
      <trkpt lat="43.220222" lon="-9.005681">
        <ele>9.748</ele>
        <time>2019-06-21T13:44:45Z</time>
      </trkpt>
      <trkpt lat="43.220282" lon="-9.005700">
        <ele>9.510</ele>
        <time>2019-06-21T13:44:46Z</time>
      </trkpt>
      <trkpt lat="43.220332" lon="-9.005709">
        <ele>9.787</ele>
        <time>2019-06-21T13:44:47Z</time>
      </trkpt>
      <trkpt lat="43.220373" lon="-9.005744">
        <ele>9.973</ele>
        <time>2019-06-21T13:44:53Z</time>
      </trkpt>
      <trkpt lat="43.220442" lon="-9.005769">
        <ele>10.247</ele>
        <time>2019-06-21T13:44:54Z</time>
      </trkpt>
      <trkpt lat="43.220510" lon="-9.005789">
        <ele>10.579</ele>
        <time>2019-06-21T13:44:55Z</time>
      </trkpt>
      <trkpt lat="43.220602" lon="-9.005804">
        <ele>10.598</ele>
        <time>2019-06-21T13:44:56Z</time>
      </trkpt>
      <trkpt lat="43.220705" lon="-9.005789">
        <ele>9.615</ele>
        <time>2019-06-21T13:44:57Z</time>
      </trkpt>
      <trkpt lat="43.220826" lon="-9.005755">
        <ele>8.526</ele>
        <time>2019-06-21T13:44:58Z</time>
      </trkpt>
      <trkpt lat="43.220915" lon="-9.005719">
        <ele>8.308</ele>
        <time>2019-06-21T13:44:59Z</time>
      </trkpt>
      <trkpt lat="43.221016" lon="-9.005692">
        <ele>8.392</ele>
        <time>2019-06-21T13:45:00Z</time>
      </trkpt>
      <trkpt lat="43.221113" lon="-9.005656">
        <ele>8.196</ele>
        <time>2019-06-21T13:45:01Z</time>
      </trkpt>
      <trkpt lat="43.221176" lon="-9.005638">
        <ele>8.198</ele>
        <time>2019-06-21T13:45:02Z</time>
      </trkpt>
      <trkpt lat="43.221246" lon="-9.005598">
        <ele>7.930</ele>
        <time>2019-06-21T13:45:03Z</time>
      </trkpt>
      <trkpt lat="43.221332" lon="-9.005596">
        <ele>8.257</ele>
        <time>2019-06-21T13:45:04Z</time>
      </trkpt>
      <trkpt lat="43.221406" lon="-9.005548">
        <ele>7.913</ele>
        <time>2019-06-21T13:45:06Z</time>
      </trkpt>
      <trkpt lat="43.221446" lon="-9.005587">
        <ele>8.277</ele>
        <time>2019-06-21T13:45:09Z</time>
      </trkpt>
      <trkpt lat="43.221472" lon="-9.005680">
        <ele>9.239</ele>
        <time>2019-06-21T13:45:11Z</time>
      </trkpt>
      <trkpt lat="43.221491" lon="-9.005739">
        <ele>9.971</ele>
        <time>2019-06-21T13:45:12Z</time>
      </trkpt>
      <trkpt lat="43.221517" lon="-9.005818">
        <ele>10.841</ele>
        <time>2019-06-21T13:45:14Z</time>
      </trkpt>
      <trkpt lat="43.221569" lon="-9.005822">
        <ele>10.915</ele>
        <time>2019-06-21T13:45:16Z</time>
      </trkpt>
      <trkpt lat="43.221670" lon="-9.005815">
        <ele>10.708</ele>
        <time>2019-06-21T13:45:18Z</time>
      </trkpt>
      <trkpt lat="43.221730" lon="-9.005819">
        <ele>11.020</ele>
        <time>2019-06-21T13:45:19Z</time>
      </trkpt>
      <trkpt lat="43.221790" lon="-9.005817">
        <ele>11.254</ele>
        <time>2019-06-21T13:45:20Z</time>
      </trkpt>
      <trkpt lat="43.221850" lon="-9.005815">
        <ele>11.446</ele>
        <time>2019-06-21T13:45:21Z</time>
      </trkpt>
      <trkpt lat="43.221932" lon="-9.005805">
        <ele>11.568</ele>
        <time>2019-06-21T13:45:22Z</time>
      </trkpt>
      <trkpt lat="43.221987" lon="-9.005791">
        <ele>11.895</ele>
        <time>2019-06-21T13:45:23Z</time>
      </trkpt>
      <trkpt lat="43.222048" lon="-9.005759">
        <ele>11.961</ele>
        <time>2019-06-21T13:45:24Z</time>
      </trkpt>
      <trkpt lat="43.222064" lon="-9.005637">
        <ele>10.295</ele>
        <time>2019-06-21T13:45:25Z</time>
      </trkpt>
      <trkpt lat="43.222124" lon="-9.005567">
        <ele>9.537</ele>
        <time>2019-06-21T13:45:26Z</time>
      </trkpt>
      <trkpt lat="43.222192" lon="-9.005435">
        <ele>8.558</ele>
        <time>2019-06-21T13:45:28Z</time>
      </trkpt>
      <trkpt lat="43.222221" lon="-9.005368">
        <ele>8.052</ele>
        <time>2019-06-21T13:45:29Z</time>
      </trkpt>
      <trkpt lat="43.222286" lon="-9.005299">
        <ele>8.217</ele>
        <time>2019-06-21T13:45:30Z</time>
      </trkpt>
      <trkpt lat="43.222320" lon="-9.005243">
        <ele>8.208</ele>
        <time>2019-06-21T13:45:32Z</time>
      </trkpt>
      <trkpt lat="43.222375" lon="-9.005162">
        <ele>8.478</ele>
        <time>2019-06-21T13:45:35Z</time>
      </trkpt>
      <trkpt lat="43.222425" lon="-9.005111">
        <ele>8.782</ele>
        <time>2019-06-21T13:45:36Z</time>
      </trkpt>
      <trkpt lat="43.222476" lon="-9.005094">
        <ele>9.364</ele>
        <time>2019-06-21T13:45:37Z</time>
      </trkpt>
      <trkpt lat="43.222536" lon="-9.005056">
        <ele>9.966</ele>
        <time>2019-06-21T13:45:38Z</time>
      </trkpt>
      <trkpt lat="43.222592" lon="-9.005039">
        <ele>10.683</ele>
        <time>2019-06-21T13:45:39Z</time>
      </trkpt>
      <trkpt lat="43.222644" lon="-9.005016">
        <ele>11.249</ele>
        <time>2019-06-21T13:45:40Z</time>
      </trkpt>
      <trkpt lat="43.222724" lon="-9.004997">
        <ele>12.213</ele>
        <time>2019-06-21T13:45:42Z</time>
      </trkpt>
      <trkpt lat="43.222788" lon="-9.005000">
        <ele>13.165</ele>
        <time>2019-06-21T13:45:43Z</time>
      </trkpt>
      <trkpt lat="43.222777" lon="-9.005073">
        <ele>13.582</ele>
        <time>2019-06-21T13:45:45Z</time>
      </trkpt>
      <trkpt lat="43.222782" lon="-9.005170">
        <ele>14.343</ele>
        <time>2019-06-21T13:45:47Z</time>
      </trkpt>
      <trkpt lat="43.222766" lon="-9.005243">
        <ele>14.617</ele>
        <time>2019-06-21T13:45:49Z</time>
      </trkpt>
      <trkpt lat="43.222760" lon="-9.005323">
        <ele>15.108</ele>
        <time>2019-06-21T13:45:53Z</time>
      </trkpt>
      <trkpt lat="43.222759" lon="-9.005410">
        <ele>15.711</ele>
        <time>2019-06-21T13:45:55Z</time>
      </trkpt>
      <trkpt lat="43.222774" lon="-9.005578">
        <ele>17.225</ele>
        <time>2019-06-21T13:45:57Z</time>
      </trkpt>
      <trkpt lat="43.222784" lon="-9.005657">
        <ele>18.177</ele>
        <time>2019-06-21T13:45:58Z</time>
      </trkpt>
      <trkpt lat="43.222776" lon="-9.005773">
        <ele>19.329</ele>
        <time>2019-06-21T13:45:59Z</time>
      </trkpt>
      <trkpt lat="43.222754" lon="-9.005847">
        <ele>19.846</ele>
        <time>2019-06-21T13:46:00Z</time>
      </trkpt>
      <trkpt lat="43.222733" lon="-9.005929">
        <ele>20.312</ele>
        <time>2019-06-21T13:46:01Z</time>
      </trkpt>
      <trkpt lat="43.222736" lon="-9.006011">
        <ele>20.976</ele>
        <time>2019-06-21T13:46:02Z</time>
      </trkpt>
      <trkpt lat="43.222728" lon="-9.006083">
        <ele>21.488</ele>
        <time>2019-06-21T13:46:03Z</time>
      </trkpt>
      <trkpt lat="43.222703" lon="-9.006151">
        <ele>21.666</ele>
        <time>2019-06-21T13:46:04Z</time>
      </trkpt>
      <trkpt lat="43.222705" lon="-9.006240">
        <ele>22.129</ele>
        <time>2019-06-21T13:46:06Z</time>
      </trkpt>
      <trkpt lat="43.222735" lon="-9.006343">
        <ele>22.721</ele>
        <time>2019-06-21T13:46:08Z</time>
      </trkpt>
      <trkpt lat="43.222774" lon="-9.006451">
        <ele>23.408</ele>
        <time>2019-06-21T13:46:10Z</time>
      </trkpt>
      <trkpt lat="43.222825" lon="-9.006527">
        <ele>24.249</ele>
        <time>2019-06-21T13:46:12Z</time>
      </trkpt>
      <trkpt lat="43.222895" lon="-9.006499">
        <ele>24.553</ele>
        <time>2019-06-21T13:46:13Z</time>
      </trkpt>
      <trkpt lat="43.223051" lon="-9.006518">
        <ele>25.495</ele>
        <time>2019-06-21T13:46:15Z</time>
      </trkpt>
      <trkpt lat="43.223137" lon="-9.006533">
        <ele>26.387</ele>
        <time>2019-06-21T13:46:16Z</time>
      </trkpt>
      <trkpt lat="43.223266" lon="-9.006502">
        <ele>27.254</ele>
        <time>2019-06-21T13:46:17Z</time>
      </trkpt>
      <trkpt lat="43.223355" lon="-9.006479">
        <ele>27.890</ele>
        <time>2019-06-21T13:46:18Z</time>
      </trkpt>
      <trkpt lat="43.223418" lon="-9.006468">
        <ele>28.274</ele>
        <time>2019-06-21T13:46:19Z</time>
      </trkpt>
      <trkpt lat="43.223526" lon="-9.006451">
        <ele>28.846</ele>
        <time>2019-06-21T13:46:20Z</time>
      </trkpt>
      <trkpt lat="43.223640" lon="-9.006435">
        <ele>29.538</ele>
        <time>2019-06-21T13:46:21Z</time>
      </trkpt>
      <trkpt lat="43.223733" lon="-9.006435">
        <ele>30.270</ele>
        <time>2019-06-21T13:46:22Z</time>
      </trkpt>
      <trkpt lat="43.223846" lon="-9.006421">
        <ele>30.917</ele>
        <time>2019-06-21T13:46:23Z</time>
      </trkpt>
      <trkpt lat="43.223939" lon="-9.006435">
        <ele>31.408</ele>
        <time>2019-06-21T13:46:24Z</time>
      </trkpt>
      <trkpt lat="43.224060" lon="-9.006424">
        <ele>31.386</ele>
        <time>2019-06-21T13:46:25Z</time>
      </trkpt>
      <trkpt lat="43.224169" lon="-9.006430">
        <ele>31.560</ele>
        <time>2019-06-21T13:46:26Z</time>
      </trkpt>
      <trkpt lat="43.224281" lon="-9.006454">
        <ele>32.532</ele>
        <time>2019-06-21T13:46:27Z</time>
      </trkpt>
      <trkpt lat="43.224378" lon="-9.006496">
        <ele>33.794</ele>
        <time>2019-06-21T13:46:28Z</time>
      </trkpt>
      <trkpt lat="43.224504" lon="-9.006534">
        <ele>34.941</ele>
        <time>2019-06-21T13:46:29Z</time>
      </trkpt>
      <trkpt lat="43.224616" lon="-9.006584">
        <ele>35.987</ele>
        <time>2019-06-21T13:46:30Z</time>
      </trkpt>
      <trkpt lat="43.224746" lon="-9.006616">
        <ele>36.671</ele>
        <time>2019-06-21T13:46:31Z</time>
      </trkpt>
      <trkpt lat="43.224864" lon="-9.006649">
        <ele>36.943</ele>
        <time>2019-06-21T13:46:32Z</time>
      </trkpt>
      <trkpt lat="43.224972" lon="-9.006681">
        <ele>37.159</ele>
        <time>2019-06-21T13:46:33Z</time>
      </trkpt>
      <trkpt lat="43.225082" lon="-9.006715">
        <ele>37.403</ele>
        <time>2019-06-21T13:46:34Z</time>
      </trkpt>
      <trkpt lat="43.225206" lon="-9.006751">
        <ele>37.623</ele>
        <time>2019-06-21T13:46:35Z</time>
      </trkpt>
      <trkpt lat="43.225320" lon="-9.006767">
        <ele>37.808</ele>
        <time>2019-06-21T13:46:36Z</time>
      </trkpt>
      <trkpt lat="43.225425" lon="-9.006773">
        <ele>38.488</ele>
        <time>2019-06-21T13:46:37Z</time>
      </trkpt>
      <trkpt lat="43.225535" lon="-9.006776">
        <ele>38.952</ele>
        <time>2019-06-21T13:46:38Z</time>
      </trkpt>
      <trkpt lat="43.225642" lon="-9.006786">
        <ele>39.324</ele>
        <time>2019-06-21T13:46:39Z</time>
      </trkpt>
      <trkpt lat="43.225725" lon="-9.006790">
        <ele>39.656</ele>
        <time>2019-06-21T13:46:40Z</time>
      </trkpt>
      <trkpt lat="43.225805" lon="-9.006794">
        <ele>39.943</ele>
        <time>2019-06-21T13:46:41Z</time>
      </trkpt>
      <trkpt lat="43.225872" lon="-9.006787">
        <ele>40.179</ele>
        <time>2019-06-21T13:46:42Z</time>
      </trkpt>
      <trkpt lat="43.225940" lon="-9.006772">
        <ele>40.173</ele>
        <time>2019-06-21T13:46:43Z</time>
      </trkpt>
      <trkpt lat="43.226015" lon="-9.006754">
        <ele>40.265</ele>
        <time>2019-06-21T13:46:44Z</time>
      </trkpt>
      <trkpt lat="43.226087" lon="-9.006739">
        <ele>40.253</ele>
        <time>2019-06-21T13:46:45Z</time>
      </trkpt>
      <trkpt lat="43.226169" lon="-9.006750">
        <ele>40.704</ele>
        <time>2019-06-21T13:46:46Z</time>
      </trkpt>
      <trkpt lat="43.226255" lon="-9.006767">
        <ele>41.214</ele>
        <time>2019-06-21T13:46:47Z</time>
      </trkpt>
      <trkpt lat="43.226356" lon="-9.006831">
        <ele>41.808</ele>
        <time>2019-06-21T13:46:48Z</time>
      </trkpt>
      <trkpt lat="43.226449" lon="-9.006898">
        <ele>42.758</ele>
        <time>2019-06-21T13:46:49Z</time>
      </trkpt>
      <trkpt lat="43.226536" lon="-9.006961">
        <ele>43.532</ele>
        <time>2019-06-21T13:46:50Z</time>
      </trkpt>
      <trkpt lat="43.226622" lon="-9.007012">
        <ele>44.164</ele>
        <time>2019-06-21T13:46:51Z</time>
      </trkpt>
      <trkpt lat="43.226741" lon="-9.007047">
        <ele>45.376</ele>
        <time>2019-06-21T13:46:52Z</time>
      </trkpt>
      <trkpt lat="43.226860" lon="-9.007074">
        <ele>46.983</ele>
        <time>2019-06-21T13:46:53Z</time>
      </trkpt>
      <trkpt lat="43.226990" lon="-9.007106">
        <ele>48.489</ele>
        <time>2019-06-21T13:46:54Z</time>
      </trkpt>
      <trkpt lat="43.227111" lon="-9.007127">
        <ele>49.973</ele>
        <time>2019-06-21T13:46:55Z</time>
      </trkpt>
      <trkpt lat="43.227235" lon="-9.007158">
        <ele>51.595</ele>
        <time>2019-06-21T13:46:56Z</time>
      </trkpt>
      <trkpt lat="43.227366" lon="-9.007170">
        <ele>54.085</ele>
        <time>2019-06-21T13:46:57Z</time>
      </trkpt>
      <trkpt lat="43.227494" lon="-9.007182">
        <ele>56.689</ele>
        <time>2019-06-21T13:46:58Z</time>
      </trkpt>
      <trkpt lat="43.227609" lon="-9.007163">
        <ele>58.117</ele>
        <time>2019-06-21T13:46:59Z</time>
      </trkpt>
      <trkpt lat="43.227703" lon="-9.007128">
        <ele>59.208</ele>
        <time>2019-06-21T13:47:00Z</time>
      </trkpt>
      <trkpt lat="43.227801" lon="-9.007076">
        <ele>60.261</ele>
        <time>2019-06-21T13:47:01Z</time>
      </trkpt>
      <trkpt lat="43.227901" lon="-9.007021">
        <ele>60.985</ele>
        <time>2019-06-21T13:47:02Z</time>
      </trkpt>
      <trkpt lat="43.228004" lon="-9.006964">
        <ele>61.667</ele>
        <time>2019-06-21T13:47:03Z</time>
      </trkpt>
      <trkpt lat="43.228121" lon="-9.006930">
        <ele>62.329</ele>
        <time>2019-06-21T13:47:04Z</time>
      </trkpt>
      <trkpt lat="43.228232" lon="-9.006906">
        <ele>62.856</ele>
        <time>2019-06-21T13:47:05Z</time>
      </trkpt>
      <trkpt lat="43.228338" lon="-9.006896">
        <ele>63.362</ele>
        <time>2019-06-21T13:47:06Z</time>
      </trkpt>
      <trkpt lat="43.228444" lon="-9.006896">
        <ele>63.736</ele>
        <time>2019-06-21T13:47:07Z</time>
      </trkpt>
      <trkpt lat="43.228551" lon="-9.006917">
        <ele>64.438</ele>
        <time>2019-06-21T13:47:08Z</time>
      </trkpt>
      <trkpt lat="43.228665" lon="-9.006959">
        <ele>65.124</ele>
        <time>2019-06-21T13:47:09Z</time>
      </trkpt>
      <trkpt lat="43.228781" lon="-9.007029">
        <ele>65.504</ele>
        <time>2019-06-21T13:47:10Z</time>
      </trkpt>
      <trkpt lat="43.228891" lon="-9.007111">
        <ele>65.614</ele>
        <time>2019-06-21T13:47:11Z</time>
      </trkpt>
      <trkpt lat="43.228993" lon="-9.007195">
        <ele>65.508</ele>
        <time>2019-06-21T13:47:12Z</time>
      </trkpt>
      <trkpt lat="43.229085" lon="-9.007278">
        <ele>65.465</ele>
        <time>2019-06-21T13:47:13Z</time>
      </trkpt>
      <trkpt lat="43.229186" lon="-9.007363">
        <ele>65.079</ele>
        <time>2019-06-21T13:47:14Z</time>
      </trkpt>
      <trkpt lat="43.229324" lon="-9.007443">
        <ele>65.041</ele>
        <time>2019-06-21T13:47:15Z</time>
      </trkpt>
      <trkpt lat="43.229412" lon="-9.007560">
        <ele>65.013</ele>
        <time>2019-06-21T13:47:16Z</time>
      </trkpt>
      <trkpt lat="43.229507" lon="-9.007664">
        <ele>65.210</ele>
        <time>2019-06-21T13:47:17Z</time>
      </trkpt>
      <trkpt lat="43.229580" lon="-9.007770">
        <ele>65.596</ele>
        <time>2019-06-21T13:47:18Z</time>
      </trkpt>
      <trkpt lat="43.229654" lon="-9.007860">
        <ele>65.820</ele>
        <time>2019-06-21T13:47:19Z</time>
      </trkpt>
      <trkpt lat="43.229736" lon="-9.007956">
        <ele>66.032</ele>
        <time>2019-06-21T13:47:20Z</time>
      </trkpt>
      <trkpt lat="43.229793" lon="-9.008075">
        <ele>66.367</ele>
        <time>2019-06-21T13:47:21Z</time>
      </trkpt>
      <trkpt lat="43.229803" lon="-9.008185">
        <ele>66.381</ele>
        <time>2019-06-21T13:47:22Z</time>
      </trkpt>
      <trkpt lat="43.229816" lon="-9.008304">
        <ele>66.319</ele>
        <time>2019-06-21T13:47:23Z</time>
      </trkpt>
      <trkpt lat="43.229820" lon="-9.008433">
        <ele>66.408</ele>
        <time>2019-06-21T13:47:24Z</time>
      </trkpt>
      <trkpt lat="43.229805" lon="-9.008589">
        <ele>66.329</ele>
        <time>2019-06-21T13:47:25Z</time>
      </trkpt>
      <trkpt lat="43.229802" lon="-9.008759">
        <ele>66.163</ele>
        <time>2019-06-21T13:47:26Z</time>
      </trkpt>
      <trkpt lat="43.229788" lon="-9.008949">
        <ele>65.885</ele>
        <time>2019-06-21T13:47:27Z</time>
      </trkpt>
      <trkpt lat="43.229775" lon="-9.009134">
        <ele>65.337</ele>
        <time>2019-06-21T13:47:28Z</time>
      </trkpt>
      <trkpt lat="43.229755" lon="-9.009316">
        <ele>65.164</ele>
        <time>2019-06-21T13:47:29Z</time>
      </trkpt>
      <trkpt lat="43.229749" lon="-9.009478">
        <ele>65.050</ele>
        <time>2019-06-21T13:47:30Z</time>
      </trkpt>
      <trkpt lat="43.229729" lon="-9.009630">
        <ele>64.444</ele>
        <time>2019-06-21T13:47:31Z</time>
      </trkpt>
      <trkpt lat="43.229735" lon="-9.009784">
        <ele>64.046</ele>
        <time>2019-06-21T13:47:32Z</time>
      </trkpt>
      <trkpt lat="43.229749" lon="-9.009938">
        <ele>64.124</ele>
        <time>2019-06-21T13:47:33Z</time>
      </trkpt>
      <trkpt lat="43.229783" lon="-9.010075">
        <ele>64.204</ele>
        <time>2019-06-21T13:47:34Z</time>
      </trkpt>
      <trkpt lat="43.229821" lon="-9.010202">
        <ele>64.414</ele>
        <time>2019-06-21T13:47:35Z</time>
      </trkpt>
      <trkpt lat="43.229868" lon="-9.010307">
        <ele>64.608</ele>
        <time>2019-06-21T13:47:36Z</time>
      </trkpt>
      <trkpt lat="43.229913" lon="-9.010402">
        <ele>65.035</ele>
        <time>2019-06-21T13:47:37Z</time>
      </trkpt>
      <trkpt lat="43.229967" lon="-9.010494">
        <ele>65.159</ele>
        <time>2019-06-21T13:47:38Z</time>
      </trkpt>
      <trkpt lat="43.230023" lon="-9.010561">
        <ele>65.011</ele>
        <time>2019-06-21T13:47:39Z</time>
      </trkpt>
      <trkpt lat="43.230095" lon="-9.010607">
        <ele>64.993</ele>
        <time>2019-06-21T13:47:40Z</time>
      </trkpt>
      <trkpt lat="43.230160" lon="-9.010648">
        <ele>64.660</ele>
        <time>2019-06-21T13:47:41Z</time>
      </trkpt>
      <trkpt lat="43.230218" lon="-9.010683">
        <ele>64.326</ele>
        <time>2019-06-21T13:47:42Z</time>
      </trkpt>
      <trkpt lat="43.230275" lon="-9.010714">
        <ele>63.910</ele>
        <time>2019-06-21T13:47:43Z</time>
      </trkpt>
      <trkpt lat="43.230320" lon="-9.010741">
        <ele>63.782</ele>
        <time>2019-06-21T13:47:44Z</time>
      </trkpt>
      <trkpt lat="43.230366" lon="-9.010770">
        <ele>63.469</ele>
        <time>2019-06-21T13:47:45Z</time>
      </trkpt>
      <trkpt lat="43.230425" lon="-9.010803">
        <ele>62.904</ele>
        <time>2019-06-21T13:47:47Z</time>
      </trkpt>
      <trkpt lat="43.230476" lon="-9.010828">
        <ele>62.424</ele>
        <time>2019-06-21T13:47:49Z</time>
      </trkpt>
      <trkpt lat="43.230542" lon="-9.010826">
        <ele>62.208</ele>
        <time>2019-06-21T13:47:56Z</time>
      </trkpt>
      <trkpt lat="43.230526" lon="-9.010886">
        <ele>61.459</ele>
        <time>2019-06-21T13:48:23Z</time>
      </trkpt>
      <trkpt lat="43.230604" lon="-9.010926">
        <ele>60.413</ele>
        <time>2019-06-21T13:48:28Z</time>
      </trkpt>
      <trkpt lat="43.230650" lon="-9.010943">
        <ele>59.935</ele>
        <time>2019-06-21T13:48:29Z</time>
      </trkpt>
      <trkpt lat="43.230724" lon="-9.010982">
        <ele>58.937</ele>
        <time>2019-06-21T13:48:30Z</time>
      </trkpt>
      <trkpt lat="43.230774" lon="-9.010997">
        <ele>58.414</ele>
        <time>2019-06-21T13:48:31Z</time>
      </trkpt>
      <trkpt lat="43.230822" lon="-9.011017">
        <ele>57.850</ele>
        <time>2019-06-21T13:48:32Z</time>
      </trkpt>
      <trkpt lat="43.230868" lon="-9.011045">
        <ele>56.884</ele>
        <time>2019-06-21T13:48:33Z</time>
      </trkpt>
      <trkpt lat="43.230916" lon="-9.011075">
        <ele>55.846</ele>
        <time>2019-06-21T13:48:34Z</time>
      </trkpt>
      <trkpt lat="43.231013" lon="-9.011118">
        <ele>54.081</ele>
        <time>2019-06-21T13:48:36Z</time>
      </trkpt>
      <trkpt lat="43.231076" lon="-9.011161">
        <ele>52.861</ele>
        <time>2019-06-21T13:48:37Z</time>
      </trkpt>
      <trkpt lat="43.231156" lon="-9.011193">
        <ele>51.617</ele>
        <time>2019-06-21T13:48:38Z</time>
      </trkpt>
      <trkpt lat="43.231225" lon="-9.011214">
        <ele>50.708</ele>
        <time>2019-06-21T13:48:39Z</time>
      </trkpt>
      <trkpt lat="43.231294" lon="-9.011239">
        <ele>49.671</ele>
        <time>2019-06-21T13:48:40Z</time>
      </trkpt>
      <trkpt lat="43.231361" lon="-9.011259">
        <ele>48.775</ele>
        <time>2019-06-21T13:48:41Z</time>
      </trkpt>
      <trkpt lat="43.231423" lon="-9.011271">
        <ele>48.047</ele>
        <time>2019-06-21T13:48:42Z</time>
      </trkpt>
      <trkpt lat="43.231486" lon="-9.011284">
        <ele>47.489</ele>
        <time>2019-06-21T13:48:43Z</time>
      </trkpt>
      <trkpt lat="43.231554" lon="-9.011286">
        <ele>46.996</ele>
        <time>2019-06-21T13:48:44Z</time>
      </trkpt>
      <trkpt lat="43.231608" lon="-9.011280">
        <ele>46.612</ele>
        <time>2019-06-21T13:48:45Z</time>
      </trkpt>
      <trkpt lat="43.231674" lon="-9.011225">
        <ele>46.766</ele>
        <time>2019-06-21T13:48:47Z</time>
      </trkpt>
      <trkpt lat="43.231715" lon="-9.011160">
        <ele>46.818</ele>
        <time>2019-06-21T13:48:49Z</time>
      </trkpt>
      <trkpt lat="43.231773" lon="-9.011118">
        <ele>46.438</ele>
        <time>2019-06-21T13:48:51Z</time>
      </trkpt>
      <trkpt lat="43.231819" lon="-9.011134">
        <ele>45.670</ele>
        <time>2019-06-21T13:48:53Z</time>
      </trkpt>
      <trkpt lat="43.231809" lon="-9.011219">
        <ele>45.017</ele>
        <time>2019-06-21T13:48:56Z</time>
      </trkpt>
      <trkpt lat="43.231744" lon="-9.011225">
        <ele>45.808</ele>
        <time>2019-06-21T14:05:25Z</time>
      </trkpt>
      <trkpt lat="43.231666" lon="-9.011260">
        <ele>46.486</ele>
        <time>2019-06-21T14:05:27Z</time>
      </trkpt>
      <trkpt lat="43.231611" lon="-9.011287">
        <ele>46.510</ele>
        <time>2019-06-21T14:05:28Z</time>
      </trkpt>
      <trkpt lat="43.231535" lon="-9.011296">
        <ele>47.042</ele>
        <time>2019-06-21T14:05:29Z</time>
      </trkpt>
      <trkpt lat="43.231454" lon="-9.011287">
        <ele>47.614</ele>
        <time>2019-06-21T14:05:30Z</time>
      </trkpt>
      <trkpt lat="43.231352" lon="-9.011254">
        <ele>48.961</ele>
        <time>2019-06-21T14:05:31Z</time>
      </trkpt>
      <trkpt lat="43.231254" lon="-9.011222">
        <ele>50.317</ele>
        <time>2019-06-21T14:05:32Z</time>
      </trkpt>
      <trkpt lat="43.231158" lon="-9.011173">
        <ele>51.831</ele>
        <time>2019-06-21T14:05:33Z</time>
      </trkpt>
      <trkpt lat="43.231053" lon="-9.011122">
        <ele>53.563</ele>
        <time>2019-06-21T14:05:34Z</time>
      </trkpt>
      <trkpt lat="43.230948" lon="-9.011077">
        <ele>55.486</ele>
        <time>2019-06-21T14:05:35Z</time>
      </trkpt>
      <trkpt lat="43.230855" lon="-9.011024">
        <ele>57.360</ele>
        <time>2019-06-21T14:05:36Z</time>
      </trkpt>
      <trkpt lat="43.230743" lon="-9.010977">
        <ele>58.926</ele>
        <time>2019-06-21T14:05:37Z</time>
      </trkpt>
      <trkpt lat="43.230631" lon="-9.010930">
        <ele>60.208</ele>
        <time>2019-06-21T14:05:38Z</time>
      </trkpt>
      <trkpt lat="43.230532" lon="-9.010876">
        <ele>61.541</ele>
        <time>2019-06-21T14:05:39Z</time>
      </trkpt>
      <trkpt lat="43.230437" lon="-9.010831">
        <ele>62.515</ele>
        <time>2019-06-21T14:05:40Z</time>
      </trkpt>
      <trkpt lat="43.230345" lon="-9.010786">
        <ele>63.277</ele>
        <time>2019-06-21T14:05:41Z</time>
      </trkpt>
      <trkpt lat="43.230250" lon="-9.010734">
        <ele>63.869</ele>
        <time>2019-06-21T14:05:42Z</time>
      </trkpt>
      <trkpt lat="43.230157" lon="-9.010680">
        <ele>64.526</ele>
        <time>2019-06-21T14:05:43Z</time>
      </trkpt>
      <trkpt lat="43.230069" lon="-9.010608">
        <ele>64.952</ele>
        <time>2019-06-21T14:05:44Z</time>
      </trkpt>
      <trkpt lat="43.229995" lon="-9.010531">
        <ele>65.076</ele>
        <time>2019-06-21T14:05:45Z</time>
      </trkpt>
      <trkpt lat="43.229909" lon="-9.010434">
        <ele>65.028</ele>
        <time>2019-06-21T14:05:46Z</time>
      </trkpt>
      <trkpt lat="43.229859" lon="-9.010330">
        <ele>64.789</ele>
        <time>2019-06-21T14:05:47Z</time>
      </trkpt>
      <trkpt lat="43.229809" lon="-9.010216">
        <ele>64.306</ele>
        <time>2019-06-21T14:05:48Z</time>
      </trkpt>
      <trkpt lat="43.229760" lon="-9.010105">
        <ele>64.126</ele>
        <time>2019-06-21T14:05:49Z</time>
      </trkpt>
      <trkpt lat="43.229726" lon="-9.010003">
        <ele>64.008</ele>
        <time>2019-06-21T14:05:50Z</time>
      </trkpt>
      <trkpt lat="43.229710" lon="-9.009945">
        <ele>63.911</ele>
        <time>2019-06-21T14:06:12Z</time>
      </trkpt>
      <trkpt lat="43.229713" lon="-9.009878">
        <ele>63.975</ele>
        <time>2019-06-21T14:06:32Z</time>
      </trkpt>
      <trkpt lat="43.229698" lon="-9.009739">
        <ele>63.987</ele>
        <time>2019-06-21T14:06:34Z</time>
      </trkpt>
      <trkpt lat="43.229693" lon="-9.009646">
        <ele>64.199</ele>
        <time>2019-06-21T14:06:35Z</time>
      </trkpt>
      <trkpt lat="43.229711" lon="-9.009495">
        <ele>64.796</ele>
        <time>2019-06-21T14:06:36Z</time>
      </trkpt>
      <trkpt lat="43.229729" lon="-9.009339">
        <ele>65.082</ele>
        <time>2019-06-21T14:06:37Z</time>
      </trkpt>
      <trkpt lat="43.229744" lon="-9.009183">
        <ele>65.176</ele>
        <time>2019-06-21T14:06:38Z</time>
      </trkpt>
      <trkpt lat="43.229758" lon="-9.009028">
        <ele>65.618</ele>
        <time>2019-06-21T14:06:39Z</time>
      </trkpt>
      <trkpt lat="43.229776" lon="-9.008873">
        <ele>66.031</ele>
        <time>2019-06-21T14:06:40Z</time>
      </trkpt>
      <trkpt lat="43.229786" lon="-9.008731">
        <ele>66.161</ele>
        <time>2019-06-21T14:06:41Z</time>
      </trkpt>
      <trkpt lat="43.229793" lon="-9.008580">
        <ele>66.307</ele>
        <time>2019-06-21T14:06:42Z</time>
      </trkpt>
      <trkpt lat="43.229796" lon="-9.008444">
        <ele>66.308</ele>
        <time>2019-06-21T14:06:43Z</time>
      </trkpt>
      <trkpt lat="43.229797" lon="-9.008323">
        <ele>66.356</ele>
        <time>2019-06-21T14:06:44Z</time>
      </trkpt>
      <trkpt lat="43.229783" lon="-9.008206">
        <ele>66.250</ele>
        <time>2019-06-21T14:06:45Z</time>
      </trkpt>
      <trkpt lat="43.229766" lon="-9.008116">
        <ele>66.252</ele>
        <time>2019-06-21T14:06:46Z</time>
      </trkpt>
      <trkpt lat="43.229728" lon="-9.007999">
        <ele>66.044</ele>
        <time>2019-06-21T14:06:47Z</time>
      </trkpt>
      <trkpt lat="43.229691" lon="-9.007889">
        <ele>65.991</ele>
        <time>2019-06-21T14:06:48Z</time>
      </trkpt>
      <trkpt lat="43.229581" lon="-9.007802">
        <ele>65.527</ele>
        <time>2019-06-21T14:06:49Z</time>
      </trkpt>
      <trkpt lat="43.229491" lon="-9.007706">
        <ele>65.291</ele>
        <time>2019-06-21T14:06:50Z</time>
      </trkpt>
      <trkpt lat="43.229397" lon="-9.007629">
        <ele>65.113</ele>
        <time>2019-06-21T14:06:51Z</time>
      </trkpt>
      <trkpt lat="43.229318" lon="-9.007543">
        <ele>65.188</ele>
        <time>2019-06-21T14:06:52Z</time>
      </trkpt>
      <trkpt lat="43.229238" lon="-9.007465">
        <ele>65.024</ele>
        <time>2019-06-21T14:06:53Z</time>
      </trkpt>
      <trkpt lat="43.229151" lon="-9.007401">
        <ele>65.126</ele>
        <time>2019-06-21T14:06:54Z</time>
      </trkpt>
      <trkpt lat="43.229082" lon="-9.007330">
        <ele>65.408</ele>
        <time>2019-06-21T14:06:55Z</time>
      </trkpt>
      <trkpt lat="43.228997" lon="-9.007261">
        <ele>65.761</ele>
        <time>2019-06-21T14:06:56Z</time>
      </trkpt>
      <trkpt lat="43.228909" lon="-9.007190">
        <ele>65.825</ele>
        <time>2019-06-21T14:06:57Z</time>
      </trkpt>
      <trkpt lat="43.228820" lon="-9.007101">
        <ele>65.877</ele>
        <time>2019-06-21T14:06:58Z</time>
      </trkpt>
      <trkpt lat="43.228732" lon="-9.007030">
        <ele>65.739</ele>
        <time>2019-06-21T14:06:59Z</time>
      </trkpt>
      <trkpt lat="43.228658" lon="-9.006962">
        <ele>65.256</ele>
        <time>2019-06-21T14:07:00Z</time>
      </trkpt>
      <trkpt lat="43.228566" lon="-9.006907">
        <ele>64.322</ele>
        <time>2019-06-21T14:07:01Z</time>
      </trkpt>
      <trkpt lat="43.228465" lon="-9.006869">
        <ele>63.426</ele>
        <time>2019-06-21T14:07:02Z</time>
      </trkpt>
      <trkpt lat="43.228349" lon="-9.006839">
        <ele>62.588</ele>
        <time>2019-06-21T14:07:03Z</time>
      </trkpt>
      <trkpt lat="43.228239" lon="-9.006846">
        <ele>62.042</ele>
        <time>2019-06-21T14:07:04Z</time>
      </trkpt>
      <trkpt lat="43.228146" lon="-9.006864">
        <ele>61.722</ele>
        <time>2019-06-21T14:07:05Z</time>
      </trkpt>
      <trkpt lat="43.228061" lon="-9.006882">
        <ele>61.414</ele>
        <time>2019-06-21T14:07:06Z</time>
      </trkpt>
      <trkpt lat="43.227961" lon="-9.006916">
        <ele>60.708</ele>
        <time>2019-06-21T14:07:07Z</time>
      </trkpt>
      <trkpt lat="43.227865" lon="-9.006965">
        <ele>60.137</ele>
        <time>2019-06-21T14:07:08Z</time>
      </trkpt>
      <trkpt lat="43.227768" lon="-9.007024">
        <ele>59.461</ele>
        <time>2019-06-21T14:07:09Z</time>
      </trkpt>
      <trkpt lat="43.227672" lon="-9.007073">
        <ele>58.443</ele>
        <time>2019-06-21T14:07:10Z</time>
      </trkpt>
      <trkpt lat="43.227568" lon="-9.007099">
        <ele>57.185</ele>
        <time>2019-06-21T14:07:11Z</time>
      </trkpt>
      <trkpt lat="43.227457" lon="-9.007120">
        <ele>55.542</ele>
        <time>2019-06-21T14:07:12Z</time>
      </trkpt>
      <trkpt lat="43.227342" lon="-9.007124">
        <ele>53.578</ele>
        <time>2019-06-21T14:07:13Z</time>
      </trkpt>
      <trkpt lat="43.227228" lon="-9.007119">
        <ele>51.552</ele>
        <time>2019-06-21T14:07:14Z</time>
      </trkpt>
      <trkpt lat="43.227122" lon="-9.007113">
        <ele>50.124</ele>
        <time>2019-06-21T14:07:15Z</time>
      </trkpt>
      <trkpt lat="43.227022" lon="-9.007093">
        <ele>48.967</ele>
        <time>2019-06-21T14:07:16Z</time>
      </trkpt>
      <trkpt lat="43.226905" lon="-9.007078">
        <ele>47.581</ele>
        <time>2019-06-21T14:07:17Z</time>
      </trkpt>
      <trkpt lat="43.226792" lon="-9.007060">
        <ele>46.019</ele>
        <time>2019-06-21T14:07:18Z</time>
      </trkpt>
      <trkpt lat="43.226692" lon="-9.007057">
        <ele>44.608</ele>
        <time>2019-06-21T14:07:19Z</time>
      </trkpt>
      <trkpt lat="43.226594" lon="-9.007018">
        <ele>43.879</ele>
        <time>2019-06-21T14:07:20Z</time>
      </trkpt>
      <trkpt lat="43.226500" lon="-9.006970">
        <ele>43.133</ele>
        <time>2019-06-21T14:07:21Z</time>
      </trkpt>
      <trkpt lat="43.226414" lon="-9.006911">
        <ele>42.365</ele>
        <time>2019-06-21T14:07:22Z</time>
      </trkpt>
      <trkpt lat="43.226337" lon="-9.006852">
        <ele>41.857</ele>
        <time>2019-06-21T14:07:23Z</time>
      </trkpt>
      <trkpt lat="43.226259" lon="-9.006802">
        <ele>41.394</ele>
        <time>2019-06-21T14:07:24Z</time>
      </trkpt>
      <trkpt lat="43.226177" lon="-9.006761">
        <ele>40.760</ele>
        <time>2019-06-21T14:07:25Z</time>
      </trkpt>
      <trkpt lat="43.226095" lon="-9.006749">
        <ele>40.334</ele>
        <time>2019-06-21T14:07:26Z</time>
      </trkpt>
      <trkpt lat="43.226013" lon="-9.006756">
        <ele>40.256</ele>
        <time>2019-06-21T14:07:27Z</time>
      </trkpt>
      <trkpt lat="43.225935" lon="-9.006782">
        <ele>40.216</ele>
        <time>2019-06-21T14:07:28Z</time>
      </trkpt>
      <trkpt lat="43.225851" lon="-9.006801">
        <ele>40.076</ele>
        <time>2019-06-21T14:07:29Z</time>
      </trkpt>
      <trkpt lat="43.225758" lon="-9.006833">
        <ele>39.713</ele>
        <time>2019-06-21T14:07:30Z</time>
      </trkpt>
      <trkpt lat="43.225651" lon="-9.006847">
        <ele>39.308</ele>
        <time>2019-06-21T14:07:31Z</time>
      </trkpt>
      <trkpt lat="43.225538" lon="-9.006856">
        <ele>38.934</ele>
        <time>2019-06-21T14:07:32Z</time>
      </trkpt>
      <trkpt lat="43.225424" lon="-9.006843">
        <ele>38.268</ele>
        <time>2019-06-21T14:07:33Z</time>
      </trkpt>
      <trkpt lat="43.225317" lon="-9.006824">
        <ele>37.780</ele>
        <time>2019-06-21T14:07:34Z</time>
      </trkpt>
      <trkpt lat="43.225213" lon="-9.006793">
        <ele>37.532</ele>
        <time>2019-06-21T14:07:35Z</time>
      </trkpt>
      <trkpt lat="43.225107" lon="-9.006761">
        <ele>37.599</ele>
        <time>2019-06-21T14:07:36Z</time>
      </trkpt>
      <trkpt lat="43.225010" lon="-9.006725">
        <ele>37.245</ele>
        <time>2019-06-21T14:07:37Z</time>
      </trkpt>
      <trkpt lat="43.224912" lon="-9.006690">
        <ele>37.189</ele>
        <time>2019-06-21T14:07:38Z</time>
      </trkpt>
      <trkpt lat="43.224822" lon="-9.006667">
        <ele>37.021</ele>
        <time>2019-06-21T14:07:39Z</time>
      </trkpt>
      <trkpt lat="43.224724" lon="-9.006634">
        <ele>36.859</ele>
        <time>2019-06-21T14:07:40Z</time>
      </trkpt>
      <trkpt lat="43.224631" lon="-9.006618">
        <ele>36.303</ele>
        <time>2019-06-21T14:07:41Z</time>
      </trkpt>
      <trkpt lat="43.224556" lon="-9.006590">
        <ele>35.723</ele>
        <time>2019-06-21T14:07:42Z</time>
      </trkpt>
      <trkpt lat="43.224464" lon="-9.006566">
        <ele>35.008</ele>
        <time>2019-06-21T14:07:43Z</time>
      </trkpt>
      <trkpt lat="43.224378" lon="-9.006530">
        <ele>34.018</ele>
        <time>2019-06-21T14:07:44Z</time>
      </trkpt>
      <trkpt lat="43.224285" lon="-9.006495">
        <ele>33.082</ele>
        <time>2019-06-21T14:07:45Z</time>
      </trkpt>
      <trkpt lat="43.224205" lon="-9.006456">
        <ele>32.034</ele>
        <time>2019-06-21T14:07:46Z</time>
      </trkpt>
      <trkpt lat="43.224123" lon="-9.006420">
        <ele>31.336</ele>
        <time>2019-06-21T14:07:47Z</time>
      </trkpt>
      <trkpt lat="43.224043" lon="-9.006398">
        <ele>31.193</ele>
        <time>2019-06-21T14:07:48Z</time>
      </trkpt>
      <trkpt lat="43.223965" lon="-9.006390">
        <ele>31.089</ele>
        <time>2019-06-21T14:07:49Z</time>
      </trkpt>
      <trkpt lat="43.223905" lon="-9.006420">
        <ele>31.213</ele>
        <time>2019-06-21T14:07:50Z</time>
      </trkpt>
      <trkpt lat="43.223838" lon="-9.006418">
        <ele>30.885</ele>
        <time>2019-06-21T14:07:52Z</time>
      </trkpt>
      <trkpt lat="43.223810" lon="-9.006321">
        <ele>29.391</ele>
        <time>2019-06-21T14:07:56Z</time>
      </trkpt>
      <trkpt lat="43.223805" lon="-9.006235">
        <ele>28.081</ele>
        <time>2019-06-21T14:07:57Z</time>
      </trkpt>
      <trkpt lat="43.223786" lon="-9.006131">
        <ele>26.319</ele>
        <time>2019-06-21T14:07:58Z</time>
      </trkpt>
      <trkpt lat="43.223758" lon="-9.006023">
        <ele>24.708</ele>
        <time>2019-06-21T14:07:59Z</time>
      </trkpt>
      <trkpt lat="43.223728" lon="-9.005910">
        <ele>23.162</ele>
        <time>2019-06-21T14:08:00Z</time>
      </trkpt>
      <trkpt lat="43.223702" lon="-9.005783">
        <ele>21.556</ele>
        <time>2019-06-21T14:08:01Z</time>
      </trkpt>
      <trkpt lat="43.223667" lon="-9.005672">
        <ele>20.418</ele>
        <time>2019-06-21T14:08:02Z</time>
      </trkpt>
      <trkpt lat="43.223631" lon="-9.005563">
        <ele>19.170</ele>
        <time>2019-06-21T14:08:03Z</time>
      </trkpt>
      <trkpt lat="43.223604" lon="-9.005485">
        <ele>19.047</ele>
        <time>2019-06-21T14:08:04Z</time>
      </trkpt>
      <trkpt lat="43.223576" lon="-9.005370">
        <ele>18.933</ele>
        <time>2019-06-21T14:08:05Z</time>
      </trkpt>
      <trkpt lat="43.223542" lon="-9.005262">
        <ele>18.797</ele>
        <time>2019-06-21T14:08:06Z</time>
      </trkpt>
      <trkpt lat="43.223534" lon="-9.005170">
        <ele>18.329</ele>
        <time>2019-06-21T14:08:07Z</time>
      </trkpt>
      <trkpt lat="43.223507" lon="-9.005088">
        <ele>17.954</ele>
        <time>2019-06-21T14:08:08Z</time>
      </trkpt>
      <trkpt lat="43.223479" lon="-9.005005">
        <ele>17.556</ele>
        <time>2019-06-21T14:08:09Z</time>
      </trkpt>
      <trkpt lat="43.223428" lon="-9.004916">
        <ele>16.711</ele>
        <time>2019-06-21T14:08:12Z</time>
      </trkpt>
      <trkpt lat="43.223385" lon="-9.004878">
        <ele>16.308</ele>
        <time>2019-06-21T14:08:13Z</time>
      </trkpt>
      <trkpt lat="43.223298" lon="-9.004889">
        <ele>16.138</ele>
        <time>2019-06-21T14:08:15Z</time>
      </trkpt>
      <trkpt lat="43.223185" lon="-9.004923">
        <ele>15.912</ele>
        <time>2019-06-21T14:08:17Z</time>
      </trkpt>
      <trkpt lat="43.223115" lon="-9.004929">
        <ele>15.774</ele>
        <time>2019-06-21T14:08:18Z</time>
      </trkpt>
      <trkpt lat="43.223044" lon="-9.004937">
        <ele>15.456</ele>
        <time>2019-06-21T14:08:19Z</time>
      </trkpt>
      <trkpt lat="43.222972" lon="-9.004950">
        <ele>14.783</ele>
        <time>2019-06-21T14:08:20Z</time>
      </trkpt>
      <trkpt lat="43.222920" lon="-9.004965">
        <ele>14.369</ele>
        <time>2019-06-21T14:08:21Z</time>
      </trkpt>
      <trkpt lat="43.222856" lon="-9.004967">
        <ele>13.663</ele>
        <time>2019-06-21T14:08:22Z</time>
      </trkpt>
      <trkpt lat="43.222807" lon="-9.004973">
        <ele>13.155</ele>
        <time>2019-06-21T14:08:23Z</time>
      </trkpt>
      <trkpt lat="43.222751" lon="-9.005014">
        <ele>12.745</ele>
        <time>2019-06-21T14:08:24Z</time>
      </trkpt>
      <trkpt lat="43.222694" lon="-9.005025">
        <ele>12.047</ele>
        <time>2019-06-21T14:08:25Z</time>
      </trkpt>
      <trkpt lat="43.222617" lon="-9.004975">
        <ele>10.511</ele>
        <time>2019-06-21T14:08:27Z</time>
      </trkpt>
      <trkpt lat="43.222557" lon="-9.004988">
        <ele>9.708</ele>
        <time>2019-06-21T14:08:28Z</time>
      </trkpt>
      <trkpt lat="43.222505" lon="-9.005022">
        <ele>9.287</ele>
        <time>2019-06-21T14:08:29Z</time>
      </trkpt>
      <trkpt lat="43.222459" lon="-9.005041">
        <ele>8.731</ele>
        <time>2019-06-21T14:08:30Z</time>
      </trkpt>
      <trkpt lat="43.222390" lon="-9.005097">
        <ele>8.193</ele>
        <time>2019-06-21T14:08:32Z</time>
      </trkpt>
      <trkpt lat="43.222396" lon="-9.005167">
        <ele>8.785</ele>
        <time>2019-06-21T14:08:33Z</time>
      </trkpt>
      <trkpt lat="43.222357" lon="-9.005215">
        <ele>8.512</ele>
        <time>2019-06-21T14:08:35Z</time>
      </trkpt>
      <trkpt lat="43.222326" lon="-9.005309">
        <ele>8.988</ele>
        <time>2019-06-21T14:08:36Z</time>
      </trkpt>
      <trkpt lat="43.222289" lon="-9.005370">
        <ele>9.052</ele>
        <time>2019-06-21T14:08:37Z</time>
      </trkpt>
      <trkpt lat="43.222221" lon="-9.005463">
        <ele>9.094</ele>
        <time>2019-06-21T14:08:39Z</time>
      </trkpt>
      <trkpt lat="43.222226" lon="-9.005544">
        <ele>9.915</ele>
        <time>2019-06-21T14:08:47Z</time>
      </trkpt>
      <trkpt lat="43.222190" lon="-9.005621">
        <ele>10.965</ele>
        <time>2019-06-21T14:08:49Z</time>
      </trkpt>
      <trkpt lat="43.222248" lon="-9.005691">
        <ele>12.811</ele>
        <time>2019-06-21T14:09:10Z</time>
      </trkpt>
      <trkpt lat="43.222201" lon="-9.005795">
        <ele>14.108</ele>
        <time>2019-06-21T14:09:12Z</time>
      </trkpt>
      <trkpt lat="43.222128" lon="-9.005860">
        <ele>14.264</ele>
        <time>2019-06-21T14:09:13Z</time>
      </trkpt>
      <trkpt lat="43.222084" lon="-9.005902">
        <ele>14.128</ele>
        <time>2019-06-21T14:09:14Z</time>
      </trkpt>
      <trkpt lat="43.222031" lon="-9.005981">
        <ele>14.450</ele>
        <time>2019-06-21T14:09:16Z</time>
      </trkpt>
      <trkpt lat="43.221981" lon="-9.005992">
        <ele>14.022</ele>
        <time>2019-06-21T14:09:17Z</time>
      </trkpt>
      <trkpt lat="43.221961" lon="-9.006068">
        <ele>14.789</ele>
        <time>2019-06-21T14:09:18Z</time>
      </trkpt>
      <trkpt lat="43.221893" lon="-9.006092">
        <ele>14.635</ele>
        <time>2019-06-21T14:09:19Z</time>
      </trkpt>
      <trkpt lat="43.221800" lon="-9.006159">
        <ele>14.879</ele>
        <time>2019-06-21T14:09:21Z</time>
      </trkpt>
      <trkpt lat="43.221747" lon="-9.006179">
        <ele>14.811</ele>
        <time>2019-06-21T14:09:22Z</time>
      </trkpt>
      <trkpt lat="43.221701" lon="-9.006200">
        <ele>14.854</ele>
        <time>2019-06-21T14:09:23Z</time>
      </trkpt>
      <trkpt lat="43.221628" lon="-9.006255">
        <ele>15.056</ele>
        <time>2019-06-21T14:09:25Z</time>
      </trkpt>
      <trkpt lat="43.221570" lon="-9.006258">
        <ele>15.111</ele>
        <time>2019-06-21T14:09:27Z</time>
      </trkpt>
      <trkpt lat="43.221505" lon="-9.006196">
        <ele>14.608</ele>
        <time>2019-06-21T14:09:28Z</time>
      </trkpt>
      <trkpt lat="43.221450" lon="-9.006194">
        <ele>14.618</ele>
        <time>2019-06-21T14:09:31Z</time>
      </trkpt>
      <trkpt lat="43.221432" lon="-9.006110">
        <ele>14.082</ele>
        <time>2019-06-21T14:09:38Z</time>
      </trkpt>
      <trkpt lat="43.221408" lon="-9.006031">
        <ele>13.174</ele>
        <time>2019-06-21T14:09:40Z</time>
      </trkpt>
      <trkpt lat="43.221379" lon="-9.005922">
        <ele>11.996</ele>
        <time>2019-06-21T14:09:42Z</time>
      </trkpt>
      <trkpt lat="43.221367" lon="-9.005847">
        <ele>11.123</ele>
        <time>2019-06-21T14:09:44Z</time>
      </trkpt>
      <trkpt lat="43.221315" lon="-9.005842">
        <ele>10.869</ele>
        <time>2019-06-21T14:09:53Z</time>
      </trkpt>
      <trkpt lat="43.221239" lon="-9.005884">
        <ele>11.153</ele>
        <time>2019-06-21T14:09:55Z</time>
      </trkpt>
      <trkpt lat="43.221195" lon="-9.005907">
        <ele>11.355</ele>
        <time>2019-06-21T14:09:56Z</time>
      </trkpt>
      <trkpt lat="43.221150" lon="-9.005929">
        <ele>11.514</ele>
        <time>2019-06-21T14:09:57Z</time>
      </trkpt>
      <trkpt lat="43.221095" lon="-9.005881">
        <ele>10.654</ele>
        <time>2019-06-21T14:09:59Z</time>
      </trkpt>
      <trkpt lat="43.221065" lon="-9.005795">
        <ele>9.409</ele>
        <time>2019-06-21T14:10:01Z</time>
      </trkpt>
      <trkpt lat="43.220985" lon="-9.005743">
        <ele>8.708</ele>
        <time>2019-06-21T14:10:03Z</time>
      </trkpt>
      <trkpt lat="43.220918" lon="-9.005761">
        <ele>8.714</ele>
        <time>2019-06-21T14:10:04Z</time>
      </trkpt>
      <trkpt lat="43.220840" lon="-9.005783">
        <ele>8.758</ele>
        <time>2019-06-21T14:10:05Z</time>
      </trkpt>
      <trkpt lat="43.220757" lon="-9.005801">
        <ele>9.340</ele>
        <time>2019-06-21T14:10:06Z</time>
      </trkpt>
      <trkpt lat="43.220678" lon="-9.005826">
        <ele>10.142</ele>
        <time>2019-06-21T14:10:07Z</time>
      </trkpt>
      <trkpt lat="43.220590" lon="-9.005841">
        <ele>10.899</ele>
        <time>2019-06-21T14:10:08Z</time>
      </trkpt>
      <trkpt lat="43.220489" lon="-9.005860">
        <ele>11.135</ele>
        <time>2019-06-21T14:10:09Z</time>
      </trkpt>
      <trkpt lat="43.220387" lon="-9.005836">
        <ele>10.439</ele>
        <time>2019-06-21T14:10:10Z</time>
      </trkpt>
      <trkpt lat="43.220306" lon="-9.005800">
        <ele>10.041</ele>
        <time>2019-06-21T14:10:11Z</time>
      </trkpt>
      <trkpt lat="43.220223" lon="-9.005763">
        <ele>9.945</ele>
        <time>2019-06-21T14:10:12Z</time>
      </trkpt>
      <trkpt lat="43.220147" lon="-9.005736">
        <ele>10.147</ele>
        <time>2019-06-21T14:10:13Z</time>
      </trkpt>
      <trkpt lat="43.220073" lon="-9.005691">
        <ele>10.211</ele>
        <time>2019-06-21T14:10:14Z</time>
      </trkpt>
      <trkpt lat="43.219997" lon="-9.005656">
        <ele>10.408</ele>
        <time>2019-06-21T14:10:15Z</time>
      </trkpt>
      <trkpt lat="43.219910" lon="-9.005611">
        <ele>10.927</ele>
        <time>2019-06-21T14:10:16Z</time>
      </trkpt>
      <trkpt lat="43.219823" lon="-9.005567">
        <ele>11.311</ele>
        <time>2019-06-21T14:10:17Z</time>
      </trkpt>
      <trkpt lat="43.219712" lon="-9.005519">
        <ele>11.843</ele>
        <time>2019-06-21T14:10:18Z</time>
      </trkpt>
      <trkpt lat="43.219612" lon="-9.005474">
        <ele>12.255</ele>
        <time>2019-06-21T14:10:19Z</time>
      </trkpt>
      <trkpt lat="43.219517" lon="-9.005450">
        <ele>12.792</ele>
        <time>2019-06-21T14:10:20Z</time>
      </trkpt>
      <trkpt lat="43.219443" lon="-9.005407">
        <ele>12.968</ele>
        <time>2019-06-21T14:10:21Z</time>
      </trkpt>
      <trkpt lat="43.219359" lon="-9.005366">
        <ele>13.332</ele>
        <time>2019-06-21T14:10:22Z</time>
      </trkpt>
      <trkpt lat="43.219274" lon="-9.005317">
        <ele>13.634</ele>
        <time>2019-06-21T14:10:23Z</time>
      </trkpt>
      <trkpt lat="43.219181" lon="-9.005279">
        <ele>13.971</ele>
        <time>2019-06-21T14:10:24Z</time>
      </trkpt>
      <trkpt lat="43.219082" lon="-9.005240">
        <ele>14.641</ele>
        <time>2019-06-21T14:10:25Z</time>
      </trkpt>
      <trkpt lat="43.218983" lon="-9.005208">
        <ele>15.115</ele>
        <time>2019-06-21T14:10:26Z</time>
      </trkpt>
      <trkpt lat="43.218882" lon="-9.005177">
        <ele>15.508</ele>
        <time>2019-06-21T14:10:27Z</time>
      </trkpt>
      <trkpt lat="43.218782" lon="-9.005141">
        <ele>15.070</ele>
        <time>2019-06-21T14:10:28Z</time>
      </trkpt>
      <trkpt lat="43.218678" lon="-9.005110">
        <ele>14.694</ele>
        <time>2019-06-21T14:10:29Z</time>
      </trkpt>
      <trkpt lat="43.218575" lon="-9.005133">
        <ele>14.926</ele>
        <time>2019-06-21T14:10:30Z</time>
      </trkpt>
      <trkpt lat="43.218458" lon="-9.005155">
        <ele>14.978</ele>
        <time>2019-06-21T14:10:31Z</time>
      </trkpt>
      <trkpt lat="43.218329" lon="-9.005159">
        <ele>14.815</ele>
        <time>2019-06-21T14:10:32Z</time>
      </trkpt>
      <trkpt lat="43.218217" lon="-9.005213">
        <ele>16.951</ele>
        <time>2019-06-21T14:10:33Z</time>
      </trkpt>
      <trkpt lat="43.218105" lon="-9.005257">
        <ele>19.015</ele>
        <time>2019-06-21T14:10:34Z</time>
      </trkpt>
      <trkpt lat="43.217986" lon="-9.005267">
        <ele>20.677</ele>
        <time>2019-06-21T14:10:35Z</time>
      </trkpt>
      <trkpt lat="43.217866" lon="-9.005262">
        <ele>21.922</ele>
        <time>2019-06-21T14:10:36Z</time>
      </trkpt>
      <trkpt lat="43.217739" lon="-9.005223">
        <ele>22.862</ele>
        <time>2019-06-21T14:10:37Z</time>
      </trkpt>
      <trkpt lat="43.217630" lon="-9.005176">
        <ele>23.308</ele>
        <time>2019-06-21T14:10:38Z</time>
      </trkpt>
      <trkpt lat="43.217522" lon="-9.005133">
        <ele>23.708</ele>
        <time>2019-06-21T14:10:39Z</time>
      </trkpt>
      <trkpt lat="43.217409" lon="-9.005028">
        <ele>23.455</ele>
        <time>2019-06-21T14:10:40Z</time>
      </trkpt>
      <trkpt lat="43.217309" lon="-9.004953">
        <ele>23.689</ele>
        <time>2019-06-21T14:10:41Z</time>
      </trkpt>
      <trkpt lat="43.217213" lon="-9.004878">
        <ele>23.771</ele>
        <time>2019-06-21T14:10:42Z</time>
      </trkpt>
      <trkpt lat="43.217111" lon="-9.004825">
        <ele>23.573</ele>
        <time>2019-06-21T14:10:43Z</time>
      </trkpt>
      <trkpt lat="43.217017" lon="-9.004778">
        <ele>23.320</ele>
        <time>2019-06-21T14:10:44Z</time>
      </trkpt>
      <trkpt lat="43.216918" lon="-9.004793">
        <ele>23.826</ele>
        <time>2019-06-21T14:10:45Z</time>
      </trkpt>
      <trkpt lat="43.216808" lon="-9.004832">
        <ele>24.530</ele>
        <time>2019-06-21T14:10:46Z</time>
      </trkpt>
      <trkpt lat="43.216686" lon="-9.004881">
        <ele>25.922</ele>
        <time>2019-06-21T14:10:47Z</time>
      </trkpt>
      <trkpt lat="43.216567" lon="-9.004925">
        <ele>27.695</ele>
        <time>2019-06-21T14:10:48Z</time>
      </trkpt>
      <trkpt lat="43.216452" lon="-9.004969">
        <ele>29.149</ele>
        <time>2019-06-21T14:10:49Z</time>
      </trkpt>
      <trkpt lat="43.216337" lon="-9.005005">
        <ele>30.323</ele>
        <time>2019-06-21T14:10:50Z</time>
      </trkpt>
      <trkpt lat="43.216220" lon="-9.005024">
        <ele>30.808</ele>
        <time>2019-06-21T14:10:51Z</time>
      </trkpt>
      <trkpt lat="43.216107" lon="-9.005031">
        <ele>31.322</ele>
        <time>2019-06-21T14:10:52Z</time>
      </trkpt>
      <trkpt lat="43.215989" lon="-9.005039">
        <ele>32.156</ele>
        <time>2019-06-21T14:10:53Z</time>
      </trkpt>
      <trkpt lat="43.215871" lon="-9.005054">
        <ele>33.028</ele>
        <time>2019-06-21T14:10:54Z</time>
      </trkpt>
      <trkpt lat="43.215749" lon="-9.005080">
        <ele>33.450</ele>
        <time>2019-06-21T14:10:55Z</time>
      </trkpt>
      <trkpt lat="43.215623" lon="-9.005088">
        <ele>33.637</ele>
        <time>2019-06-21T14:10:56Z</time>
      </trkpt>
      <trkpt lat="43.215497" lon="-9.005122">
        <ele>33.563</ele>
        <time>2019-06-21T14:10:57Z</time>
      </trkpt>
      <trkpt lat="43.215372" lon="-9.005165">
        <ele>32.997</ele>
        <time>2019-06-21T14:10:58Z</time>
      </trkpt>
      <trkpt lat="43.215253" lon="-9.005210">
        <ele>32.249</ele>
        <time>2019-06-21T14:10:59Z</time>
      </trkpt>
      <trkpt lat="43.215134" lon="-9.005267">
        <ele>30.911</ele>
        <time>2019-06-21T14:11:00Z</time>
      </trkpt>
      <trkpt lat="43.215030" lon="-9.005319">
        <ele>30.021</ele>
        <time>2019-06-21T14:11:01Z</time>
      </trkpt>
      <trkpt lat="43.214923" lon="-9.005336">
        <ele>29.803</ele>
        <time>2019-06-21T14:11:02Z</time>
      </trkpt>
      <trkpt lat="43.214816" lon="-9.005274">
        <ele>29.008</ele>
        <time>2019-06-21T14:11:03Z</time>
      </trkpt>
      <trkpt lat="43.214727" lon="-9.005249">
        <ele>28.944</ele>
        <time>2019-06-21T14:11:04Z</time>
      </trkpt>
      <trkpt lat="43.214627" lon="-9.005193">
        <ele>30.088</ele>
        <time>2019-06-21T14:11:05Z</time>
      </trkpt>
      <trkpt lat="43.214570" lon="-9.005112">
        <ele>30.320</ele>
        <time>2019-06-21T14:11:06Z</time>
      </trkpt>
      <trkpt lat="43.214506" lon="-9.005004">
        <ele>30.462</ele>
        <time>2019-06-21T14:11:07Z</time>
      </trkpt>
      <trkpt lat="43.214451" lon="-9.004892">
        <ele>30.269</ele>
        <time>2019-06-21T14:11:08Z</time>
      </trkpt>
      <trkpt lat="43.214379" lon="-9.004790">
        <ele>30.515</ele>
        <time>2019-06-21T14:11:09Z</time>
      </trkpt>
      <trkpt lat="43.214307" lon="-9.004673">
        <ele>30.659</ele>
        <time>2019-06-21T14:11:10Z</time>
      </trkpt>
      <trkpt lat="43.214227" lon="-9.004556">
        <ele>30.611</ele>
        <time>2019-06-21T14:11:11Z</time>
      </trkpt>
      <trkpt lat="43.214149" lon="-9.004428">
        <ele>30.392</ele>
        <time>2019-06-21T14:11:12Z</time>
      </trkpt>
      <trkpt lat="43.214080" lon="-9.004291">
        <ele>31.273</ele>
        <time>2019-06-21T14:11:13Z</time>
      </trkpt>
      <trkpt lat="43.214058" lon="-9.004110">
        <ele>31.220</ele>
        <time>2019-06-21T14:11:14Z</time>
      </trkpt>
      <trkpt lat="43.214049" lon="-9.003947">
        <ele>31.308</ele>
        <time>2019-06-21T14:11:15Z</time>
      </trkpt>
      <trkpt lat="43.214056" lon="-9.003803">
        <ele>30.662</ele>
        <time>2019-06-21T14:11:16Z</time>
      </trkpt>
      <trkpt lat="43.214072" lon="-9.003651">
        <ele>29.316</ele>
        <time>2019-06-21T14:11:17Z</time>
      </trkpt>
      <trkpt lat="43.214048" lon="-9.003498">
        <ele>28.978</ele>
        <time>2019-06-21T14:11:18Z</time>
      </trkpt>
      <trkpt lat="43.214001" lon="-9.003376">
        <ele>28.910</ele>
        <time>2019-06-21T14:11:19Z</time>
      </trkpt>
      <trkpt lat="43.213940" lon="-9.003240">
        <ele>28.897</ele>
        <time>2019-06-21T14:11:20Z</time>
      </trkpt>
      <trkpt lat="43.213840" lon="-9.003140">
        <ele>29.083</ele>
        <time>2019-06-21T14:11:21Z</time>
      </trkpt>
      <trkpt lat="43.213734" lon="-9.003024">
        <ele>29.147</ele>
        <time>2019-06-21T14:11:22Z</time>
      </trkpt>
      <trkpt lat="43.213615" lon="-9.002922">
        <ele>30.089</ele>
        <time>2019-06-21T14:11:23Z</time>
      </trkpt>
      <trkpt lat="43.213488" lon="-9.002813">
        <ele>30.052</ele>
        <time>2019-06-21T14:11:24Z</time>
      </trkpt>
      <trkpt lat="43.213360" lon="-9.002699">
        <ele>29.753</ele>
        <time>2019-06-21T14:11:25Z</time>
      </trkpt>
      <trkpt lat="43.213236" lon="-9.002593">
        <ele>29.708</ele>
        <time>2019-06-21T14:11:26Z</time>
      </trkpt>
      <trkpt lat="43.213105" lon="-9.002478">
        <ele>29.708</ele>
        <time>2019-06-21T14:11:27Z</time>
      </trkpt>
      <trkpt lat="43.212969" lon="-9.002367">
        <ele>29.898</ele>
        <time>2019-06-21T14:11:28Z</time>
      </trkpt>
      <trkpt lat="43.212839" lon="-9.002259">
        <ele>29.972</ele>
        <time>2019-06-21T14:11:29Z</time>
      </trkpt>
      <trkpt lat="43.212708" lon="-9.002151">
        <ele>29.534</ele>
        <time>2019-06-21T14:11:30Z</time>
      </trkpt>
      <trkpt lat="43.212576" lon="-9.002056">
        <ele>28.856</ele>
        <time>2019-06-21T14:11:31Z</time>
      </trkpt>
      <trkpt lat="43.212455" lon="-9.001980">
        <ele>28.363</ele>
        <time>2019-06-21T14:11:32Z</time>
      </trkpt>
      <trkpt lat="43.212327" lon="-9.001921">
        <ele>27.869</ele>
        <time>2019-06-21T14:11:33Z</time>
      </trkpt>
      <trkpt lat="43.212204" lon="-9.001922">
        <ele>27.833</ele>
        <time>2019-06-21T14:11:34Z</time>
      </trkpt>
      <trkpt lat="43.212065" lon="-9.001913">
        <ele>27.865</ele>
        <time>2019-06-21T14:11:35Z</time>
      </trkpt>
      <trkpt lat="43.211927" lon="-9.001939">
        <ele>28.027</ele>
        <time>2019-06-21T14:11:36Z</time>
      </trkpt>
      <trkpt lat="43.211791" lon="-9.001988">
        <ele>28.568</ele>
        <time>2019-06-21T14:11:37Z</time>
      </trkpt>
      <trkpt lat="43.211662" lon="-9.002054">
        <ele>29.214</ele>
        <time>2019-06-21T14:11:38Z</time>
      </trkpt>
      <trkpt lat="43.211530" lon="-9.002137">
        <ele>29.208</ele>
        <time>2019-06-21T14:11:39Z</time>
      </trkpt>
      <trkpt lat="43.211390" lon="-9.002237">
        <ele>29.325</ele>
        <time>2019-06-21T14:11:40Z</time>
      </trkpt>
      <trkpt lat="43.211251" lon="-9.002352">
        <ele>31.119</ele>
        <time>2019-06-21T14:11:41Z</time>
      </trkpt>
      <trkpt lat="43.211120" lon="-9.002461">
        <ele>32.421</ele>
        <time>2019-06-21T14:11:42Z</time>
      </trkpt>
      <trkpt lat="43.210978" lon="-9.002558">
        <ele>33.543</ele>
        <time>2019-06-21T14:11:43Z</time>
      </trkpt>
      <trkpt lat="43.210834" lon="-9.002644">
        <ele>34.670</ele>
        <time>2019-06-21T14:11:44Z</time>
      </trkpt>
      <trkpt lat="43.210689" lon="-9.002698">
        <ele>35.676</ele>
        <time>2019-06-21T14:11:45Z</time>
      </trkpt>
      <trkpt lat="43.210541" lon="-9.002734">
        <ele>36.240</ele>
        <time>2019-06-21T14:11:46Z</time>
      </trkpt>
      <trkpt lat="43.210381" lon="-9.002748">
        <ele>36.542</ele>
        <time>2019-06-21T14:11:47Z</time>
      </trkpt>
      <trkpt lat="43.210225" lon="-9.002771">
        <ele>36.514</ele>
        <time>2019-06-21T14:11:48Z</time>
      </trkpt>
      <trkpt lat="43.210062" lon="-9.002787">
        <ele>35.654</ele>
        <time>2019-06-21T14:11:49Z</time>
      </trkpt>
      <trkpt lat="43.209895" lon="-9.002805">
        <ele>35.109</ele>
        <time>2019-06-21T14:11:50Z</time>
      </trkpt>
      <trkpt lat="43.209737" lon="-9.002818">
        <ele>34.608</ele>
        <time>2019-06-21T14:11:51Z</time>
      </trkpt>
      <trkpt lat="43.209573" lon="-9.002831">
        <ele>34.324</ele>
        <time>2019-06-21T14:11:52Z</time>
      </trkpt>
      <trkpt lat="43.209409" lon="-9.002842">
        <ele>34.118</ele>
        <time>2019-06-21T14:11:53Z</time>
      </trkpt>
      <trkpt lat="43.209256" lon="-9.002844">
        <ele>33.910</ele>
        <time>2019-06-21T14:11:54Z</time>
      </trkpt>
      <trkpt lat="43.209106" lon="-9.002852">
        <ele>33.892</ele>
        <time>2019-06-21T14:11:55Z</time>
      </trkpt>
      <trkpt lat="43.208955" lon="-9.002856">
        <ele>33.829</ele>
        <time>2019-06-21T14:11:56Z</time>
      </trkpt>
      <trkpt lat="43.208807" lon="-9.002866">
        <ele>33.475</ele>
        <time>2019-06-21T14:11:57Z</time>
      </trkpt>
      <trkpt lat="43.208661" lon="-9.002884">
        <ele>32.569</ele>
        <time>2019-06-21T14:11:58Z</time>
      </trkpt>
      <trkpt lat="43.208521" lon="-9.002907">
        <ele>31.921</ele>
        <time>2019-06-21T14:11:59Z</time>
      </trkpt>
      <trkpt lat="43.208386" lon="-9.002952">
        <ele>31.629</ele>
        <time>2019-06-21T14:12:00Z</time>
      </trkpt>
      <trkpt lat="43.208266" lon="-9.003014">
        <ele>31.500</ele>
        <time>2019-06-21T14:12:01Z</time>
      </trkpt>
      <trkpt lat="43.208144" lon="-9.003112">
        <ele>32.020</ele>
        <time>2019-06-21T14:12:02Z</time>
      </trkpt>
      <trkpt lat="43.208023" lon="-9.003238">
        <ele>32.608</ele>
        <time>2019-06-21T14:12:03Z</time>
      </trkpt>
      <trkpt lat="43.207896" lon="-9.003375">
        <ele>33.135</ele>
        <time>2019-06-21T14:12:04Z</time>
      </trkpt>
      <trkpt lat="43.207771" lon="-9.003493">
        <ele>34.469</ele>
        <time>2019-06-21T14:12:05Z</time>
      </trkpt>
      <trkpt lat="43.207639" lon="-9.003607">
        <ele>35.971</ele>
        <time>2019-06-21T14:12:06Z</time>
      </trkpt>
      <trkpt lat="43.207508" lon="-9.003700">
        <ele>37.633</ele>
        <time>2019-06-21T14:12:07Z</time>
      </trkpt>
      <trkpt lat="43.207359" lon="-9.003765">
        <ele>39.250</ele>
        <time>2019-06-21T14:12:08Z</time>
      </trkpt>
      <trkpt lat="43.207208" lon="-9.003786">
        <ele>39.526</ele>
        <time>2019-06-21T14:12:09Z</time>
      </trkpt>
      <trkpt lat="43.207051" lon="-9.003787">
        <ele>40.970</ele>
        <time>2019-06-21T14:12:10Z</time>
      </trkpt>
      <trkpt lat="43.206898" lon="-9.003762">
        <ele>41.472</ele>
        <time>2019-06-21T14:12:11Z</time>
      </trkpt>
      <trkpt lat="43.206736" lon="-9.003712">
        <ele>41.141</ele>
        <time>2019-06-21T14:12:12Z</time>
      </trkpt>
      <trkpt lat="43.206548" lon="-9.003649">
        <ele>41.081</ele>
        <time>2019-06-21T14:12:13Z</time>
      </trkpt>
      <trkpt lat="43.206363" lon="-9.003592">
        <ele>41.409</ele>
        <time>2019-06-21T14:12:14Z</time>
      </trkpt>
      <trkpt lat="43.206172" lon="-9.003538">
        <ele>45.708</ele>
        <time>2019-06-21T14:12:15Z</time>
      </trkpt>
      <trkpt lat="43.205986" lon="-9.003477">
        <ele>52.257</ele>
        <time>2019-06-21T14:12:16Z</time>
      </trkpt>
      <trkpt lat="43.205804" lon="-9.003415">
        <ele>58.721</ele>
        <time>2019-06-21T14:12:17Z</time>
      </trkpt>
      <trkpt lat="43.205631" lon="-9.003359">
        <ele>62.443</ele>
        <time>2019-06-21T14:12:18Z</time>
      </trkpt>
      <trkpt lat="43.205455" lon="-9.003324">
        <ele>64.225</ele>
        <time>2019-06-21T14:12:19Z</time>
      </trkpt>
      <trkpt lat="43.205252" lon="-9.003281">
        <ele>64.242</ele>
        <time>2019-06-21T14:12:20Z</time>
      </trkpt>
      <trkpt lat="43.205056" lon="-9.003248">
        <ele>63.328</ele>
        <time>2019-06-21T14:12:21Z</time>
      </trkpt>
      <trkpt lat="43.204867" lon="-9.003211">
        <ele>61.282</ele>
        <time>2019-06-21T14:12:22Z</time>
      </trkpt>
      <trkpt lat="43.204670" lon="-9.003169">
        <ele>58.724</ele>
        <time>2019-06-21T14:12:23Z</time>
      </trkpt>
      <trkpt lat="43.204471" lon="-9.003152">
        <ele>57.534</ele>
        <time>2019-06-21T14:12:24Z</time>
      </trkpt>
      <trkpt lat="43.204274" lon="-9.003126">
        <ele>58.655</ele>
        <time>2019-06-21T14:12:25Z</time>
      </trkpt>
      <trkpt lat="43.204076" lon="-9.003097">
        <ele>60.010</ele>
        <time>2019-06-21T14:12:26Z</time>
      </trkpt>
      <trkpt lat="43.203866" lon="-9.003088">
        <ele>62.208</ele>
        <time>2019-06-21T14:12:27Z</time>
      </trkpt>
      <trkpt lat="43.203658" lon="-9.003085">
        <ele>66.476</ele>
        <time>2019-06-21T14:12:28Z</time>
      </trkpt>
      <trkpt lat="43.203451" lon="-9.003072">
        <ele>70.010</ele>
        <time>2019-06-21T14:12:29Z</time>
      </trkpt>
      <trkpt lat="43.203245" lon="-9.003072">
        <ele>71.532</ele>
        <time>2019-06-21T14:12:30Z</time>
      </trkpt>
      <trkpt lat="43.203040" lon="-9.003075">
        <ele>70.034</ele>
        <time>2019-06-21T14:12:31Z</time>
      </trkpt>
      <trkpt lat="43.202849" lon="-9.003080">
        <ele>68.691</ele>
        <time>2019-06-21T14:12:32Z</time>
      </trkpt>
      <trkpt lat="43.202647" lon="-9.003085">
        <ele>66.367</ele>
        <time>2019-06-21T14:12:33Z</time>
      </trkpt>
      <trkpt lat="43.202462" lon="-9.003091">
        <ele>63.831</ele>
        <time>2019-06-21T14:12:34Z</time>
      </trkpt>
      <trkpt lat="43.202267" lon="-9.003108">
        <ele>61.553</ele>
        <time>2019-06-21T14:12:35Z</time>
      </trkpt>
      <trkpt lat="43.202069" lon="-9.003121">
        <ele>60.149</ele>
        <time>2019-06-21T14:12:36Z</time>
      </trkpt>
      <trkpt lat="43.201881" lon="-9.003133">
        <ele>58.902</ele>
        <time>2019-06-21T14:12:37Z</time>
      </trkpt>
      <trkpt lat="43.201693" lon="-9.003150">
        <ele>57.622</ele>
        <time>2019-06-21T14:12:38Z</time>
      </trkpt>
      <trkpt lat="43.201493" lon="-9.003163">
        <ele>53.008</ele>
        <time>2019-06-21T14:12:39Z</time>
      </trkpt>
      <trkpt lat="43.201304" lon="-9.003192">
        <ele>48.827</ele>
        <time>2019-06-21T14:12:40Z</time>
      </trkpt>
      <trkpt lat="43.201147" lon="-9.003257">
        <ele>45.911</ele>
        <time>2019-06-21T14:12:41Z</time>
      </trkpt>
      <trkpt lat="43.200958" lon="-9.003323">
        <ele>43.113</ele>
        <time>2019-06-21T14:12:42Z</time>
      </trkpt>
      <trkpt lat="43.200764" lon="-9.003424">
        <ele>41.625</ele>
        <time>2019-06-21T14:12:43Z</time>
      </trkpt>
      <trkpt lat="43.200558" lon="-9.003527">
        <ele>40.872</ele>
        <time>2019-06-21T14:12:44Z</time>
      </trkpt>
      <trkpt lat="43.200361" lon="-9.003630">
        <ele>42.468</ele>
        <time>2019-06-21T14:12:45Z</time>
      </trkpt>
      <trkpt lat="43.200157" lon="-9.003762">
        <ele>44.072</ele>
        <time>2019-06-21T14:12:46Z</time>
      </trkpt>
      <trkpt lat="43.199964" lon="-9.003875">
        <ele>44.814</ele>
        <time>2019-06-21T14:12:47Z</time>
      </trkpt>
      <trkpt lat="43.199780" lon="-9.004009">
        <ele>47.427</ele>
        <time>2019-06-21T14:12:48Z</time>
      </trkpt>
      <trkpt lat="43.199587" lon="-9.004145">
        <ele>49.168</ele>
        <time>2019-06-21T14:12:49Z</time>
      </trkpt>
      <trkpt lat="43.199406" lon="-9.004269">
        <ele>50.514</ele>
        <time>2019-06-21T14:12:50Z</time>
      </trkpt>
      <trkpt lat="43.199210" lon="-9.004387">
        <ele>51.808</ele>
        <time>2019-06-21T14:12:51Z</time>
      </trkpt>
      <trkpt lat="43.199018" lon="-9.004512">
        <ele>54.685</ele>
        <time>2019-06-21T14:12:52Z</time>
      </trkpt>
      <trkpt lat="43.198826" lon="-9.004621">
        <ele>56.699</ele>
        <time>2019-06-21T14:12:53Z</time>
      </trkpt>
      <trkpt lat="43.198639" lon="-9.004752">
        <ele>58.991</ele>
        <time>2019-06-21T14:12:54Z</time>
      </trkpt>
      <trkpt lat="43.198457" lon="-9.004872">
        <ele>60.433</ele>
        <time>2019-06-21T14:12:55Z</time>
      </trkpt>
      <trkpt lat="43.198285" lon="-9.004987">
        <ele>61.410</ele>
        <time>2019-06-21T14:12:56Z</time>
      </trkpt>
      <trkpt lat="43.198125" lon="-9.005094">
        <ele>63.526</ele>
        <time>2019-06-21T14:12:57Z</time>
      </trkpt>
      <trkpt lat="43.197967" lon="-9.005193">
        <ele>66.510</ele>
        <time>2019-06-21T14:12:58Z</time>
      </trkpt>
      <trkpt lat="43.197806" lon="-9.005293">
        <ele>69.442</ele>
        <time>2019-06-21T14:12:59Z</time>
      </trkpt>
      <trkpt lat="43.197672" lon="-9.005394">
        <ele>70.795</ele>
        <time>2019-06-21T14:13:00Z</time>
      </trkpt>
      <trkpt lat="43.197527" lon="-9.005480">
        <ele>70.349</ele>
        <time>2019-06-21T14:13:01Z</time>
      </trkpt>
      <trkpt lat="43.197372" lon="-9.005578">
        <ele>69.123</ele>
        <time>2019-06-21T14:13:02Z</time>
      </trkpt>
      <trkpt lat="43.197223" lon="-9.005676">
        <ele>68.608</ele>
        <time>2019-06-21T14:13:03Z</time>
      </trkpt>
      <trkpt lat="43.197062" lon="-9.005769">
        <ele>69.362</ele>
        <time>2019-06-21T14:13:04Z</time>
      </trkpt>
      <trkpt lat="43.196908" lon="-9.005850">
        <ele>69.316</ele>
        <time>2019-06-21T14:13:05Z</time>
      </trkpt>
      <trkpt lat="43.196756" lon="-9.005923">
        <ele>70.118</ele>
        <time>2019-06-21T14:13:06Z</time>
      </trkpt>
      <trkpt lat="43.196597" lon="-9.005992">
        <ele>70.290</ele>
        <time>2019-06-21T14:13:07Z</time>
      </trkpt>
      <trkpt lat="43.196428" lon="-9.006055">
        <ele>69.697</ele>
        <time>2019-06-21T14:13:08Z</time>
      </trkpt>
      <trkpt lat="43.196256" lon="-9.006108">
        <ele>69.013</ele>
        <time>2019-06-21T14:13:09Z</time>
      </trkpt>
      <trkpt lat="43.196091" lon="-9.006131">
        <ele>68.497</ele>
        <time>2019-06-21T14:13:10Z</time>
      </trkpt>
      <trkpt lat="43.195912" lon="-9.006158">
        <ele>68.759</ele>
        <time>2019-06-21T14:13:11Z</time>
      </trkpt>
      <trkpt lat="43.195728" lon="-9.006187">
        <ele>68.315</ele>
        <time>2019-06-21T14:13:12Z</time>
      </trkpt>
      <trkpt lat="43.195545" lon="-9.006210">
        <ele>67.765</ele>
        <time>2019-06-21T14:13:13Z</time>
      </trkpt>
      <trkpt lat="43.195366" lon="-9.006230">
        <ele>68.211</ele>
        <time>2019-06-21T14:13:14Z</time>
      </trkpt>
      <trkpt lat="43.195189" lon="-9.006248">
        <ele>68.808</ele>
        <time>2019-06-21T14:13:15Z</time>
      </trkpt>
      <trkpt lat="43.195009" lon="-9.006273">
        <ele>69.584</ele>
        <time>2019-06-21T14:13:16Z</time>
      </trkpt>
      <trkpt lat="43.194826" lon="-9.006291">
        <ele>70.558</ele>
        <time>2019-06-21T14:13:17Z</time>
      </trkpt>
      <trkpt lat="43.194643" lon="-9.006313">
        <ele>71.680</ele>
        <time>2019-06-21T14:13:18Z</time>
      </trkpt>
      <trkpt lat="43.194462" lon="-9.006338">
        <ele>73.032</ele>
        <time>2019-06-21T14:13:19Z</time>
      </trkpt>
      <trkpt lat="43.194288" lon="-9.006356">
        <ele>73.789</ele>
        <time>2019-06-21T14:13:20Z</time>
      </trkpt>
      <trkpt lat="43.194110" lon="-9.006383">
        <ele>74.245</ele>
        <time>2019-06-21T14:13:21Z</time>
      </trkpt>
      <trkpt lat="43.193944" lon="-9.006416">
        <ele>74.879</ele>
        <time>2019-06-21T14:13:22Z</time>
      </trkpt>
      <trkpt lat="43.193806" lon="-9.006462">
        <ele>75.381</ele>
        <time>2019-06-21T14:13:23Z</time>
      </trkpt>
      <trkpt lat="43.193686" lon="-9.006528">
        <ele>75.746</ele>
        <time>2019-06-21T14:13:24Z</time>
      </trkpt>
      <trkpt lat="43.193623" lon="-9.006613">
        <ele>76.088</ele>
        <time>2019-06-21T14:13:25Z</time>
      </trkpt>
      <trkpt lat="43.193575" lon="-9.006699">
        <ele>76.416</ele>
        <time>2019-06-21T14:13:26Z</time>
      </trkpt>
      <trkpt lat="43.193536" lon="-9.006798">
        <ele>76.908</ele>
        <time>2019-06-21T14:13:27Z</time>
      </trkpt>
      <trkpt lat="43.193506" lon="-9.006884">
        <ele>77.247</ele>
        <time>2019-06-21T14:13:28Z</time>
      </trkpt>
      <trkpt lat="43.193495" lon="-9.006977">
        <ele>77.331</ele>
        <time>2019-06-21T14:13:29Z</time>
      </trkpt>
      <trkpt lat="43.193498" lon="-9.007093">
        <ele>76.913</ele>
        <time>2019-06-21T14:13:30Z</time>
      </trkpt>
      <trkpt lat="43.193470" lon="-9.007177">
        <ele>76.765</ele>
        <time>2019-06-21T14:13:31Z</time>
      </trkpt>
      <trkpt lat="43.193441" lon="-9.007261">
        <ele>76.562</ele>
        <time>2019-06-21T14:13:32Z</time>
      </trkpt>
      <trkpt lat="43.193395" lon="-9.007360">
        <ele>76.498</ele>
        <time>2019-06-21T14:13:33Z</time>
      </trkpt>
      <trkpt lat="43.193361" lon="-9.007481">
        <ele>76.182</ele>
        <time>2019-06-21T14:13:34Z</time>
      </trkpt>
      <trkpt lat="43.193340" lon="-9.007626">
        <ele>76.034</ele>
        <time>2019-06-21T14:13:35Z</time>
      </trkpt>
      <trkpt lat="43.193327" lon="-9.007785">
        <ele>76.025</ele>
        <time>2019-06-21T14:13:36Z</time>
      </trkpt>
      <trkpt lat="43.193309" lon="-9.007967">
        <ele>75.326</ele>
        <time>2019-06-21T14:13:37Z</time>
      </trkpt>
      <trkpt lat="43.193282" lon="-9.008163">
        <ele>74.608</ele>
        <time>2019-06-21T14:13:38Z</time>
      </trkpt>
      <trkpt lat="43.193256" lon="-9.008377">
        <ele>73.808</ele>
        <time>2019-06-21T14:13:39Z</time>
      </trkpt>
      <trkpt lat="43.193235" lon="-9.008592">
        <ele>73.195</ele>
        <time>2019-06-21T14:13:40Z</time>
      </trkpt>
      <trkpt lat="43.193212" lon="-9.008823">
        <ele>72.699</ele>
        <time>2019-06-21T14:13:41Z</time>
      </trkpt>
      <trkpt lat="43.193192" lon="-9.009035">
        <ele>72.511</ele>
        <time>2019-06-21T14:13:42Z</time>
      </trkpt>
      <trkpt lat="43.193167" lon="-9.009254">
        <ele>72.423</ele>
        <time>2019-06-21T14:13:43Z</time>
      </trkpt>
      <trkpt lat="43.193146" lon="-9.009465">
        <ele>71.930</ele>
        <time>2019-06-21T14:13:44Z</time>
      </trkpt>
      <trkpt lat="43.193122" lon="-9.009669">
        <ele>70.436</ele>
        <time>2019-06-21T14:13:45Z</time>
      </trkpt>
      <trkpt lat="43.193099" lon="-9.009872">
        <ele>68.940</ele>
        <time>2019-06-21T14:13:46Z</time>
      </trkpt>
      <trkpt lat="43.193080" lon="-9.010066">
        <ele>67.572</ele>
        <time>2019-06-21T14:13:47Z</time>
      </trkpt>
      <trkpt lat="43.193056" lon="-9.010275">
        <ele>66.049</ele>
        <time>2019-06-21T14:13:48Z</time>
      </trkpt>
      <trkpt lat="43.193015" lon="-9.010490">
        <ele>65.902</ele>
        <time>2019-06-21T14:13:49Z</time>
      </trkpt>
      <trkpt lat="43.192966" lon="-9.010715">
        <ele>64.722</ele>
        <time>2019-06-21T14:13:50Z</time>
      </trkpt>
      <trkpt lat="43.192891" lon="-9.010944">
        <ele>63.408</ele>
        <time>2019-06-21T14:13:51Z</time>
      </trkpt>
      <trkpt lat="43.192802" lon="-9.011183">
        <ele>62.137</ele>
        <time>2019-06-21T14:13:52Z</time>
      </trkpt>
      <trkpt lat="43.192663" lon="-9.011441">
        <ele>62.171</ele>
        <time>2019-06-21T14:13:53Z</time>
      </trkpt>
      <trkpt lat="43.192527" lon="-9.011667">
        <ele>62.983</ele>
        <time>2019-06-21T14:13:54Z</time>
      </trkpt>
      <trkpt lat="43.192392" lon="-9.011912">
        <ele>65.885</ele>
        <time>2019-06-21T14:13:55Z</time>
      </trkpt>
      <trkpt lat="43.192242" lon="-9.012125">
        <ele>70.422</ele>
        <time>2019-06-21T14:13:56Z</time>
      </trkpt>
      <trkpt lat="43.192074" lon="-9.012263">
        <ele>75.538</ele>
        <time>2019-06-21T14:13:57Z</time>
      </trkpt>
      <trkpt lat="43.191874" lon="-9.012371">
        <ele>80.672</ele>
        <time>2019-06-21T14:13:58Z</time>
      </trkpt>
      <trkpt lat="43.191664" lon="-9.012431">
        <ele>83.814</ele>
        <time>2019-06-21T14:13:59Z</time>
      </trkpt>
      <trkpt lat="43.191440" lon="-9.012476">
        <ele>85.215</ele>
        <time>2019-06-21T14:14:00Z</time>
      </trkpt>
      <trkpt lat="43.191227" lon="-9.012492">
        <ele>86.965</ele>
        <time>2019-06-21T14:14:01Z</time>
      </trkpt>
      <trkpt lat="43.191011" lon="-9.012470">
        <ele>88.111</ele>
        <time>2019-06-21T14:14:02Z</time>
      </trkpt>
      <trkpt lat="43.190794" lon="-9.012390">
        <ele>87.308</ele>
        <time>2019-06-21T14:14:03Z</time>
      </trkpt>
      <trkpt lat="43.190574" lon="-9.012328">
        <ele>86.124</ele>
        <time>2019-06-21T14:14:04Z</time>
      </trkpt>
      <trkpt lat="43.190372" lon="-9.012301">
        <ele>87.128</ele>
        <time>2019-06-21T14:14:05Z</time>
      </trkpt>
      <trkpt lat="43.190181" lon="-9.012280">
        <ele>88.680</ele>
        <time>2019-06-21T14:14:06Z</time>
      </trkpt>
      <trkpt lat="43.189988" lon="-9.012292">
        <ele>91.622</ele>
        <time>2019-06-21T14:14:07Z</time>
      </trkpt>
      <trkpt lat="43.189805" lon="-9.012307">
        <ele>93.089</ele>
        <time>2019-06-21T14:14:08Z</time>
      </trkpt>
      <trkpt lat="43.189656" lon="-9.012384">
        <ele>96.045</ele>
        <time>2019-06-21T14:14:09Z</time>
      </trkpt>
      <trkpt lat="43.189501" lon="-9.012420">
        <ele>96.129</ele>
        <time>2019-06-21T14:14:10Z</time>
      </trkpt>
      <trkpt lat="43.189356" lon="-9.012439">
        <ele>96.031</ele>
        <time>2019-06-21T14:14:11Z</time>
      </trkpt>
      <trkpt lat="43.189226" lon="-9.012434">
        <ele>95.548</ele>
        <time>2019-06-21T14:14:12Z</time>
      </trkpt>
      <trkpt lat="43.189076" lon="-9.012412">
        <ele>96.161</ele>
        <time>2019-06-21T14:14:13Z</time>
      </trkpt>
      <trkpt lat="43.188941" lon="-9.012336">
        <ele>96.117</ele>
        <time>2019-06-21T14:14:14Z</time>
      </trkpt>
      <trkpt lat="43.188808" lon="-9.012279">
        <ele>96.908</ele>
        <time>2019-06-21T14:14:15Z</time>
      </trkpt>
      <trkpt lat="43.188651" lon="-9.012221">
        <ele>98.217</ele>
        <time>2019-06-21T14:14:16Z</time>
      </trkpt>
      <trkpt lat="43.188487" lon="-9.012186">
        <ele>100.151</ele>
        <time>2019-06-21T14:14:17Z</time>
      </trkpt>
      <trkpt lat="43.188311" lon="-9.012178">
        <ele>102.633</ele>
        <time>2019-06-21T14:14:18Z</time>
      </trkpt>
      <trkpt lat="43.188139" lon="-9.012158">
        <ele>103.215</ele>
        <time>2019-06-21T14:14:19Z</time>
      </trkpt>
      <trkpt lat="43.187972" lon="-9.012147">
        <ele>103.322</ele>
        <time>2019-06-21T14:14:20Z</time>
      </trkpt>
      <trkpt lat="43.187793" lon="-9.012145">
        <ele>102.818</ele>
        <time>2019-06-21T14:14:21Z</time>
      </trkpt>
      <trkpt lat="43.187617" lon="-9.012196">
        <ele>103.392</ele>
        <time>2019-06-21T14:14:22Z</time>
      </trkpt>
      <trkpt lat="43.187439" lon="-9.012322">
        <ele>104.524</ele>
        <time>2019-06-21T14:14:23Z</time>
      </trkpt>
      <trkpt lat="43.187291" lon="-9.012430">
        <ele>105.445</ele>
        <time>2019-06-21T14:14:24Z</time>
      </trkpt>
      <trkpt lat="43.187141" lon="-9.012568">
        <ele>106.647</ele>
        <time>2019-06-21T14:14:25Z</time>
      </trkpt>
      <trkpt lat="43.187005" lon="-9.012702">
        <ele>107.611</ele>
        <time>2019-06-21T14:14:26Z</time>
      </trkpt>
      <trkpt lat="43.186861" lon="-9.012851">
        <ele>108.308</ele>
        <time>2019-06-21T14:14:27Z</time>
      </trkpt>
      <trkpt lat="43.186728" lon="-9.013062">
        <ele>110.057</ele>
        <time>2019-06-21T14:14:28Z</time>
      </trkpt>
      <trkpt lat="43.186596" lon="-9.013227">
        <ele>111.681</ele>
        <time>2019-06-21T14:14:29Z</time>
      </trkpt>
      <trkpt lat="43.186468" lon="-9.013382">
        <ele>112.643</ele>
        <time>2019-06-21T14:14:30Z</time>
      </trkpt>
      <trkpt lat="43.186343" lon="-9.013505">
        <ele>113.865</ele>
        <time>2019-06-21T14:14:31Z</time>
      </trkpt>
      <trkpt lat="43.186219" lon="-9.013625">
        <ele>115.512</ele>
        <time>2019-06-21T14:14:32Z</time>
      </trkpt>
      <trkpt lat="43.186096" lon="-9.013728">
        <ele>117.358</ele>
        <time>2019-06-21T14:14:33Z</time>
      </trkpt>
      <trkpt lat="43.185964" lon="-9.013818">
        <ele>119.362</ele>
        <time>2019-06-21T14:14:34Z</time>
      </trkpt>
      <trkpt lat="43.185833" lon="-9.013872">
        <ele>120.514</ele>
        <time>2019-06-21T14:14:35Z</time>
      </trkpt>
      <trkpt lat="43.185681" lon="-9.013892">
        <ele>122.748</ele>
        <time>2019-06-21T14:14:36Z</time>
      </trkpt>
      <trkpt lat="43.185517" lon="-9.013905">
        <ele>125.061</ele>
        <time>2019-06-21T14:14:37Z</time>
      </trkpt>
      <trkpt lat="43.185330" lon="-9.013919">
        <ele>127.917</ele>
        <time>2019-06-21T14:14:38Z</time>
      </trkpt>
      <trkpt lat="43.185189" lon="-9.013811">
        <ele>127.108</ele>
        <time>2019-06-21T14:14:39Z</time>
      </trkpt>
      <trkpt lat="43.185055" lon="-9.013757">
        <ele>127.577</ele>
        <time>2019-06-21T14:14:40Z</time>
      </trkpt>
      <trkpt lat="43.184909" lon="-9.013724">
        <ele>128.211</ele>
        <time>2019-06-21T14:14:41Z</time>
      </trkpt>
      <trkpt lat="43.184757" lon="-9.013752">
        <ele>130.253</ele>
        <time>2019-06-21T14:14:42Z</time>
      </trkpt>
      <trkpt lat="43.184635" lon="-9.013867">
        <ele>133.275</ele>
        <time>2019-06-21T14:14:43Z</time>
      </trkpt>
      <trkpt lat="43.184496" lon="-9.013906">
        <ele>133.582</ele>
        <time>2019-06-21T14:14:44Z</time>
      </trkpt>
      <trkpt lat="43.184346" lon="-9.013979">
        <ele>133.698</ele>
        <time>2019-06-21T14:14:45Z</time>
      </trkpt>
      <trkpt lat="43.184186" lon="-9.014048">
        <ele>133.142</ele>
        <time>2019-06-21T14:14:46Z</time>
      </trkpt>
      <trkpt lat="43.184017" lon="-9.014144">
        <ele>133.134</ele>
        <time>2019-06-21T14:14:47Z</time>
      </trkpt>
      <trkpt lat="43.183843" lon="-9.014215">
        <ele>132.933</ele>
        <time>2019-06-21T14:14:48Z</time>
      </trkpt>
      <trkpt lat="43.183682" lon="-9.014283">
        <ele>134.123</ele>
        <time>2019-06-21T14:14:49Z</time>
      </trkpt>
      <trkpt lat="43.183534" lon="-9.014355">
        <ele>135.815</ele>
        <time>2019-06-21T14:14:50Z</time>
      </trkpt>
      <trkpt lat="43.183384" lon="-9.014429">
        <ele>137.608</ele>
        <time>2019-06-21T14:14:51Z</time>
      </trkpt>
      <trkpt lat="43.183237" lon="-9.014524">
        <ele>139.126</ele>
        <time>2019-06-21T14:14:52Z</time>
      </trkpt>
      <trkpt lat="43.183106" lon="-9.014627">
        <ele>139.920</ele>
        <time>2019-06-21T14:14:53Z</time>
      </trkpt>
      <trkpt lat="43.182991" lon="-9.014730">
        <ele>140.562</ele>
        <time>2019-06-21T14:14:54Z</time>
      </trkpt>
      <trkpt lat="43.182874" lon="-9.014893">
        <ele>140.574</ele>
        <time>2019-06-21T14:14:55Z</time>
      </trkpt>
      <trkpt lat="43.182759" lon="-9.015052">
        <ele>139.941</ele>
        <time>2019-06-21T14:14:56Z</time>
      </trkpt>
      <trkpt lat="43.182652" lon="-9.015206">
        <ele>139.457</ele>
        <time>2019-06-21T14:14:57Z</time>
      </trkpt>
      <trkpt lat="43.182537" lon="-9.015361">
        <ele>138.491</ele>
        <time>2019-06-21T14:14:58Z</time>
      </trkpt>
      <trkpt lat="43.182492" lon="-9.015479">
        <ele>137.543</ele>
        <time>2019-06-21T14:14:59Z</time>
      </trkpt>
      <trkpt lat="43.182398" lon="-9.015589">
        <ele>136.519</ele>
        <time>2019-06-21T14:15:00Z</time>
      </trkpt>
      <trkpt lat="43.182310" lon="-9.015712">
        <ele>135.409</ele>
        <time>2019-06-21T14:15:01Z</time>
      </trkpt>
      <trkpt lat="43.182209" lon="-9.015767">
        <ele>134.419</ele>
        <time>2019-06-21T14:15:02Z</time>
      </trkpt>
      <trkpt lat="43.182112" lon="-9.015798">
        <ele>133.908</ele>
        <time>2019-06-21T14:15:03Z</time>
      </trkpt>
      <trkpt lat="43.181990" lon="-9.015823">
        <ele>133.254</ele>
        <time>2019-06-21T14:15:04Z</time>
      </trkpt>
      <trkpt lat="43.181885" lon="-9.015837">
        <ele>133.298</ele>
        <time>2019-06-21T14:15:05Z</time>
      </trkpt>
      <trkpt lat="43.181710" lon="-9.015831">
        <ele>133.930</ele>
        <time>2019-06-21T14:15:06Z</time>
      </trkpt>
      <trkpt lat="43.181555" lon="-9.015823">
        <ele>134.112</ele>
        <time>2019-06-21T14:15:07Z</time>
      </trkpt>
      <trkpt lat="43.181364" lon="-9.015787">
        <ele>134.599</ele>
        <time>2019-06-21T14:15:08Z</time>
      </trkpt>
      <trkpt lat="43.181217" lon="-9.015775">
        <ele>133.625</ele>
        <time>2019-06-21T14:15:09Z</time>
      </trkpt>
      <trkpt lat="43.181052" lon="-9.015766">
        <ele>132.229</ele>
        <time>2019-06-21T14:15:10Z</time>
      </trkpt>
      <trkpt lat="43.180903" lon="-9.015744">
        <ele>130.521</ele>
        <time>2019-06-21T14:15:11Z</time>
      </trkpt>
      <trkpt lat="43.180755" lon="-9.015729">
        <ele>129.499</ele>
        <time>2019-06-21T14:15:12Z</time>
      </trkpt>
      <trkpt lat="43.180615" lon="-9.015751">
        <ele>128.107</ele>
        <time>2019-06-21T14:15:13Z</time>
      </trkpt>
      <trkpt lat="43.180475" lon="-9.015793">
        <ele>127.227</ele>
        <time>2019-06-21T14:15:14Z</time>
      </trkpt>
      <trkpt lat="43.180347" lon="-9.015919">
        <ele>125.508</ele>
        <time>2019-06-21T14:15:15Z</time>
      </trkpt>
      <trkpt lat="43.180198" lon="-9.016053">
        <ele>124.592</ele>
        <time>2019-06-21T14:15:16Z</time>
      </trkpt>
      <trkpt lat="43.180082" lon="-9.016224">
        <ele>123.246</ele>
        <time>2019-06-21T14:15:17Z</time>
      </trkpt>
      <trkpt lat="43.179969" lon="-9.016344">
        <ele>122.698</ele>
        <time>2019-06-21T14:15:18Z</time>
      </trkpt>
      <trkpt lat="43.179851" lon="-9.016523">
        <ele>120.950</ele>
        <time>2019-06-21T14:15:19Z</time>
      </trkpt>
      <trkpt lat="43.179733" lon="-9.016713">
        <ele>119.447</ele>
        <time>2019-06-21T14:15:20Z</time>
      </trkpt>
      <trkpt lat="43.179635" lon="-9.016892">
        <ele>117.963</ele>
        <time>2019-06-21T14:15:21Z</time>
      </trkpt>
      <trkpt lat="43.179544" lon="-9.017082">
        <ele>115.857</ele>
        <time>2019-06-21T14:15:22Z</time>
      </trkpt>
      <trkpt lat="43.179448" lon="-9.017262">
        <ele>113.699</ele>
        <time>2019-06-21T14:15:23Z</time>
      </trkpt>
      <trkpt lat="43.179358" lon="-9.017423">
        <ele>112.963</ele>
        <time>2019-06-21T14:15:24Z</time>
      </trkpt>
      <trkpt lat="43.179238" lon="-9.017568">
        <ele>112.044</ele>
        <time>2019-06-21T14:15:25Z</time>
      </trkpt>
      <trkpt lat="43.179117" lon="-9.017698">
        <ele>111.118</ele>
        <time>2019-06-21T14:15:26Z</time>
      </trkpt>
      <trkpt lat="43.179000" lon="-9.017822">
        <ele>110.508</ele>
        <time>2019-06-21T14:15:27Z</time>
      </trkpt>
      <trkpt lat="43.178861" lon="-9.017932">
        <ele>109.859</ele>
        <time>2019-06-21T14:15:28Z</time>
      </trkpt>
      <trkpt lat="43.178716" lon="-9.018032">
        <ele>108.783</ele>
        <time>2019-06-21T14:15:29Z</time>
      </trkpt>
      <trkpt lat="43.178573" lon="-9.018130">
        <ele>108.125</ele>
        <time>2019-06-21T14:15:30Z</time>
      </trkpt>
      <trkpt lat="43.178430" lon="-9.018225">
        <ele>108.387</ele>
        <time>2019-06-21T14:15:31Z</time>
      </trkpt>
      <trkpt lat="43.178311" lon="-9.018304">
        <ele>108.554</ele>
        <time>2019-06-21T14:15:32Z</time>
      </trkpt>
      <trkpt lat="43.178196" lon="-9.018386">
        <ele>107.750</ele>
        <time>2019-06-21T14:15:33Z</time>
      </trkpt>
      <trkpt lat="43.178065" lon="-9.018458">
        <ele>107.224</ele>
        <time>2019-06-21T14:15:34Z</time>
      </trkpt>
      <trkpt lat="43.177934" lon="-9.018493">
        <ele>105.426</ele>
        <time>2019-06-21T14:15:35Z</time>
      </trkpt>
      <trkpt lat="43.177815" lon="-9.018529">
        <ele>103.618</ele>
        <time>2019-06-21T14:15:36Z</time>
      </trkpt>
      <trkpt lat="43.177688" lon="-9.018564">
        <ele>102.098</ele>
        <time>2019-06-21T14:15:37Z</time>
      </trkpt>
      <trkpt lat="43.177582" lon="-9.018466">
        <ele>102.317</ele>
        <time>2019-06-21T14:15:38Z</time>
      </trkpt>
      <trkpt lat="43.177448" lon="-9.018423">
        <ele>101.808</ele>
        <time>2019-06-21T14:15:39Z</time>
      </trkpt>
      <trkpt lat="43.177309" lon="-9.018385">
        <ele>101.694</ele>
        <time>2019-06-21T14:15:40Z</time>
      </trkpt>
      <trkpt lat="43.177170" lon="-9.018341">
        <ele>101.938</ele>
        <time>2019-06-21T14:15:41Z</time>
      </trkpt>
      <trkpt lat="43.177039" lon="-9.018312">
        <ele>102.480</ele>
        <time>2019-06-21T14:15:42Z</time>
      </trkpt>
      <trkpt lat="43.176951" lon="-9.018430">
        <ele>100.972</ele>
        <time>2019-06-21T14:15:43Z</time>
      </trkpt>
      <trkpt lat="43.176852" lon="-9.018498">
        <ele>101.229</ele>
        <time>2019-06-21T14:15:44Z</time>
      </trkpt>
      <trkpt lat="43.176755" lon="-9.018566">
        <ele>101.175</ele>
        <time>2019-06-21T14:15:45Z</time>
      </trkpt>
      <trkpt lat="43.176682" lon="-9.018692">
        <ele>98.929</ele>
        <time>2019-06-21T14:15:46Z</time>
      </trkpt>
      <trkpt lat="43.176601" lon="-9.018809">
        <ele>96.261</ele>
        <time>2019-06-21T14:15:47Z</time>
      </trkpt>
      <trkpt lat="43.176522" lon="-9.018929">
        <ele>93.934</ele>
        <time>2019-06-21T14:15:48Z</time>
      </trkpt>
      <trkpt lat="43.176438" lon="-9.019052">
        <ele>92.955</ele>
        <time>2019-06-21T14:15:49Z</time>
      </trkpt>
      <trkpt lat="43.176355" lon="-9.019202">
        <ele>92.010</ele>
        <time>2019-06-21T14:15:50Z</time>
      </trkpt>
      <trkpt lat="43.176268" lon="-9.019307">
        <ele>91.508</ele>
        <time>2019-06-21T14:15:51Z</time>
      </trkpt>
      <trkpt lat="43.176174" lon="-9.019431">
        <ele>90.646</ele>
        <time>2019-06-21T14:15:52Z</time>
      </trkpt>
      <trkpt lat="43.176021" lon="-9.019518">
        <ele>89.940</ele>
        <time>2019-06-21T14:15:53Z</time>
      </trkpt>
      <trkpt lat="43.175885" lon="-9.019650">
        <ele>87.582</ele>
        <time>2019-06-21T14:15:54Z</time>
      </trkpt>
      <trkpt lat="43.175755" lon="-9.019763">
        <ele>85.774</ele>
        <time>2019-06-21T14:15:55Z</time>
      </trkpt>
      <trkpt lat="43.175641" lon="-9.019980">
        <ele>82.381</ele>
        <time>2019-06-21T14:15:56Z</time>
      </trkpt>
      <trkpt lat="43.175426" lon="-9.019870">
        <ele>84.387</ele>
        <time>2019-06-21T14:15:57Z</time>
      </trkpt>
      <trkpt lat="43.175243" lon="-9.019855">
        <ele>84.611</ele>
        <time>2019-06-21T14:15:58Z</time>
      </trkpt>
      <trkpt lat="43.175071" lon="-9.019921">
        <ele>83.193</ele>
        <time>2019-06-21T14:15:59Z</time>
      </trkpt>
      <trkpt lat="43.174905" lon="-9.019923">
        <ele>82.536</ele>
        <time>2019-06-21T14:16:00Z</time>
      </trkpt>
      <trkpt lat="43.174733" lon="-9.019938">
        <ele>81.417</ele>
        <time>2019-06-21T14:16:01Z</time>
      </trkpt>
      <trkpt lat="43.174572" lon="-9.019962">
        <ele>79.118</ele>
        <time>2019-06-21T14:16:02Z</time>
      </trkpt>
      <trkpt lat="43.174407" lon="-9.019961">
        <ele>77.708</ele>
        <time>2019-06-21T14:16:03Z</time>
      </trkpt>
      <trkpt lat="43.174251" lon="-9.019968">
        <ele>77.646</ele>
        <time>2019-06-21T14:16:04Z</time>
      </trkpt>
      <trkpt lat="43.174100" lon="-9.020000">
        <ele>77.070</ele>
        <time>2019-06-21T14:16:05Z</time>
      </trkpt>
      <trkpt lat="43.173931" lon="-9.020021">
        <ele>76.692</ele>
        <time>2019-06-21T14:16:06Z</time>
      </trkpt>
      <trkpt lat="43.173783" lon="-9.020029">
        <ele>76.184</ele>
        <time>2019-06-21T14:16:07Z</time>
      </trkpt>
      <trkpt lat="43.173621" lon="-9.020012">
        <ele>75.831</ele>
        <time>2019-06-21T14:16:08Z</time>
      </trkpt>
      <trkpt lat="43.173491" lon="-9.020011">
        <ele>75.827</ele>
        <time>2019-06-21T14:16:09Z</time>
      </trkpt>
      <trkpt lat="43.173370" lon="-9.020003">
        <ele>75.951</ele>
        <time>2019-06-21T14:16:10Z</time>
      </trkpt>
      <trkpt lat="43.173236" lon="-9.020009">
        <ele>76.293</ele>
        <time>2019-06-21T14:16:11Z</time>
      </trkpt>
      <trkpt lat="43.173131" lon="-9.019976">
        <ele>77.119</ele>
        <time>2019-06-21T14:16:12Z</time>
      </trkpt>
      <trkpt lat="43.173025" lon="-9.020012">
        <ele>77.209</ele>
        <time>2019-06-21T14:16:13Z</time>
      </trkpt>
      <trkpt lat="43.172937" lon="-9.020076">
        <ele>77.519</ele>
        <time>2019-06-21T14:16:14Z</time>
      </trkpt>
      <trkpt lat="43.172851" lon="-9.020145">
        <ele>78.308</ele>
        <time>2019-06-21T14:16:15Z</time>
      </trkpt>
      <trkpt lat="43.172840" lon="-9.020296">
        <ele>77.634</ele>
        <time>2019-06-21T14:16:16Z</time>
      </trkpt>
      <trkpt lat="43.172800" lon="-9.020435">
        <ele>78.418</ele>
        <time>2019-06-21T14:16:17Z</time>
      </trkpt>
      <trkpt lat="43.172761" lon="-9.020590">
        <ele>79.780</ele>
        <time>2019-06-21T14:16:18Z</time>
      </trkpt>
      <trkpt lat="43.172747" lon="-9.020771">
        <ele>80.462</ele>
        <time>2019-06-21T14:16:19Z</time>
      </trkpt>
      <trkpt lat="43.172729" lon="-9.021001">
        <ele>82.449</ele>
        <time>2019-06-21T14:16:20Z</time>
      </trkpt>
      <trkpt lat="43.172717" lon="-9.021248">
        <ele>84.155</ele>
        <time>2019-06-21T14:16:21Z</time>
      </trkpt>
      <trkpt lat="43.172854" lon="-9.021530">
        <ele>78.429</ele>
        <time>2019-06-21T14:16:22Z</time>
      </trkpt>
      <trkpt lat="43.172914" lon="-9.021779">
        <ele>75.381</ele>
        <time>2019-06-21T14:16:23Z</time>
      </trkpt>
      <trkpt lat="43.172954" lon="-9.022034">
        <ele>74.676</ele>
        <time>2019-06-21T14:16:24Z</time>
      </trkpt>
      <trkpt lat="43.173024" lon="-9.022281">
        <ele>73.990</ele>
        <time>2019-06-21T14:16:25Z</time>
      </trkpt>
      <trkpt lat="43.173098" lon="-9.022507">
        <ele>73.719</ele>
        <time>2019-06-21T14:16:26Z</time>
      </trkpt>
      <trkpt lat="43.173172" lon="-9.022721">
        <ele>72.008</ele>
        <time>2019-06-21T14:16:27Z</time>
      </trkpt>
      <trkpt lat="43.173262" lon="-9.022900">
        <ele>70.270</ele>
        <time>2019-06-21T14:16:28Z</time>
      </trkpt>
      <trkpt lat="43.173317" lon="-9.023088">
        <ele>69.774</ele>
        <time>2019-06-21T14:16:29Z</time>
      </trkpt>
      <trkpt lat="43.173386" lon="-9.023260">
        <ele>69.066</ele>
        <time>2019-06-21T14:16:30Z</time>
      </trkpt>
      <trkpt lat="43.173443" lon="-9.023432">
        <ele>68.028</ele>
        <time>2019-06-21T14:16:31Z</time>
      </trkpt>
      <trkpt lat="43.173490" lon="-9.023605">
        <ele>67.085</ele>
        <time>2019-06-21T14:16:32Z</time>
      </trkpt>
      <trkpt lat="43.173512" lon="-9.023784">
        <ele>65.791</ele>
        <time>2019-06-21T14:16:33Z</time>
      </trkpt>
      <trkpt lat="43.173550" lon="-9.023950">
        <ele>64.025</ele>
        <time>2019-06-21T14:16:34Z</time>
      </trkpt>
      <trkpt lat="43.173483" lon="-9.024139">
        <ele>64.817</ele>
        <time>2019-06-21T14:16:35Z</time>
      </trkpt>
      <trkpt lat="43.173449" lon="-9.024325">
        <ele>65.734</ele>
        <time>2019-06-21T14:16:36Z</time>
      </trkpt>
      <trkpt lat="43.173413" lon="-9.024536">
        <ele>66.455</ele>
        <time>2019-06-21T14:16:37Z</time>
      </trkpt>
      <trkpt lat="43.173424" lon="-9.024732">
        <ele>65.310</ele>
        <time>2019-06-21T14:16:38Z</time>
      </trkpt>
      <trkpt lat="43.173418" lon="-9.024951">
        <ele>64.408</ele>
        <time>2019-06-21T14:16:39Z</time>
      </trkpt>
      <trkpt lat="43.173421" lon="-9.025157">
        <ele>64.146</ele>
        <time>2019-06-21T14:16:40Z</time>
      </trkpt>
      <trkpt lat="43.173420" lon="-9.025353">
        <ele>64.290</ele>
        <time>2019-06-21T14:16:41Z</time>
      </trkpt>
      <trkpt lat="43.173429" lon="-9.025548">
        <ele>64.312</ele>
        <time>2019-06-21T14:16:42Z</time>
      </trkpt>
      <trkpt lat="43.173439" lon="-9.025739">
        <ele>63.954</ele>
        <time>2019-06-21T14:16:43Z</time>
      </trkpt>
      <trkpt lat="43.173452" lon="-9.025915">
        <ele>64.161</ele>
        <time>2019-06-21T14:16:44Z</time>
      </trkpt>
      <trkpt lat="43.173456" lon="-9.026095">
        <ele>64.717</ele>
        <time>2019-06-21T14:16:45Z</time>
      </trkpt>
      <trkpt lat="43.173528" lon="-9.026264">
        <ele>66.241</ele>
        <time>2019-06-21T14:16:46Z</time>
      </trkpt>
      <trkpt lat="43.173612" lon="-9.026420">
        <ele>67.763</ele>
        <time>2019-06-21T14:16:47Z</time>
      </trkpt>
      <trkpt lat="43.173776" lon="-9.026469">
        <ele>66.879</ele>
        <time>2019-06-21T14:16:48Z</time>
      </trkpt>
      <trkpt lat="43.173886" lon="-9.026593">
        <ele>67.705</ele>
        <time>2019-06-21T14:16:49Z</time>
      </trkpt>
      <trkpt lat="43.173986" lon="-9.026700">
        <ele>66.525</ele>
        <time>2019-06-21T14:16:50Z</time>
      </trkpt>
      <trkpt lat="43.174095" lon="-9.026803">
        <ele>64.808</ele>
        <time>2019-06-21T14:16:51Z</time>
      </trkpt>
      <trkpt lat="43.174245" lon="-9.026857">
        <ele>61.670</ele>
        <time>2019-06-21T14:16:52Z</time>
      </trkpt>
      <trkpt lat="43.174394" lon="-9.026906">
        <ele>59.374</ele>
        <time>2019-06-21T14:16:53Z</time>
      </trkpt>
      <trkpt lat="43.174536" lon="-9.026916">
        <ele>58.976</ele>
        <time>2019-06-21T14:16:54Z</time>
      </trkpt>
      <trkpt lat="43.174667" lon="-9.026922">
        <ele>59.938</ele>
        <time>2019-06-21T14:16:55Z</time>
      </trkpt>
      <trkpt lat="43.174793" lon="-9.026920">
        <ele>59.435</ele>
        <time>2019-06-21T14:16:56Z</time>
      </trkpt>
      <trkpt lat="43.174921" lon="-9.026928">
        <ele>58.421</ele>
        <time>2019-06-21T14:16:57Z</time>
      </trkpt>
      <trkpt lat="43.175051" lon="-9.026970">
        <ele>57.475</ele>
        <time>2019-06-21T14:16:58Z</time>
      </trkpt>
      <trkpt lat="43.175181" lon="-9.027004">
        <ele>55.237</ele>
        <time>2019-06-21T14:16:59Z</time>
      </trkpt>
      <trkpt lat="43.175331" lon="-9.027050">
        <ele>52.193</ele>
        <time>2019-06-21T14:17:00Z</time>
      </trkpt>
      <trkpt lat="43.175406" lon="-9.027183">
        <ele>51.765</ele>
        <time>2019-06-21T14:17:01Z</time>
      </trkpt>
      <trkpt lat="43.175507" lon="-9.027315">
        <ele>50.121</ele>
        <time>2019-06-21T14:17:02Z</time>
      </trkpt>
      <trkpt lat="43.175590" lon="-9.027475">
        <ele>49.008</ele>
        <time>2019-06-21T14:17:03Z</time>
      </trkpt>
      <trkpt lat="43.175640" lon="-9.027671">
        <ele>48.522</ele>
        <time>2019-06-21T14:17:04Z</time>
      </trkpt>
      <trkpt lat="43.175682" lon="-9.027872">
        <ele>48.596</ele>
        <time>2019-06-21T14:17:05Z</time>
      </trkpt>
      <trkpt lat="43.175681" lon="-9.028091">
        <ele>50.588</ele>
        <time>2019-06-21T14:17:06Z</time>
      </trkpt>
      <trkpt lat="43.175705" lon="-9.028285">
        <ele>50.190</ele>
        <time>2019-06-21T14:17:07Z</time>
      </trkpt>
      <trkpt lat="43.175742" lon="-9.028458">
        <ele>48.167</ele>
        <time>2019-06-21T14:17:08Z</time>
      </trkpt>
      <trkpt lat="43.175766" lon="-9.028628">
        <ele>46.073</ele>
        <time>2019-06-21T14:17:09Z</time>
      </trkpt>
      <trkpt lat="43.175783" lon="-9.028811">
        <ele>43.517</ele>
        <time>2019-06-21T14:17:10Z</time>
      </trkpt>
      <trkpt lat="43.175762" lon="-9.028960">
        <ele>42.439</ele>
        <time>2019-06-21T14:17:11Z</time>
      </trkpt>
      <trkpt lat="43.175686" lon="-9.029145">
        <ele>42.072</ele>
        <time>2019-06-21T14:17:12Z</time>
      </trkpt>
      <trkpt lat="43.175604" lon="-9.029318">
        <ele>42.213</ele>
        <time>2019-06-21T14:17:13Z</time>
      </trkpt>
      <trkpt lat="43.175536" lon="-9.029494">
        <ele>42.414</ele>
        <time>2019-06-21T14:17:14Z</time>
      </trkpt>
      <trkpt lat="43.175477" lon="-9.029673">
        <ele>43.408</ele>
        <time>2019-06-21T14:17:15Z</time>
      </trkpt>
      <trkpt lat="43.175409" lon="-9.029855">
        <ele>47.080</ele>
        <time>2019-06-21T14:17:16Z</time>
      </trkpt>
      <trkpt lat="43.175445" lon="-9.030039">
        <ele>47.224</ele>
        <time>2019-06-21T14:17:17Z</time>
      </trkpt>
      <trkpt lat="43.175508" lon="-9.030216">
        <ele>46.046</ele>
        <time>2019-06-21T14:17:18Z</time>
      </trkpt>
      <trkpt lat="43.175574" lon="-9.030376">
        <ele>45.038</ele>
        <time>2019-06-21T14:17:19Z</time>
      </trkpt>
      <trkpt lat="43.175680" lon="-9.030501">
        <ele>42.445</ele>
        <time>2019-06-21T14:17:20Z</time>
      </trkpt>
      <trkpt lat="43.175780" lon="-9.030637">
        <ele>40.311</ele>
        <time>2019-06-21T14:17:21Z</time>
      </trkpt>
      <trkpt lat="43.175899" lon="-9.030788">
        <ele>39.085</ele>
        <time>2019-06-21T14:17:22Z</time>
      </trkpt>
      <trkpt lat="43.176006" lon="-9.030903">
        <ele>37.827</ele>
        <time>2019-06-21T14:17:23Z</time>
      </trkpt>
      <trkpt lat="43.176112" lon="-9.031077">
        <ele>37.478</ele>
        <time>2019-06-21T14:17:24Z</time>
      </trkpt>
      <trkpt lat="43.176224" lon="-9.031249">
        <ele>37.733</ele>
        <time>2019-06-21T14:17:25Z</time>
      </trkpt>
      <trkpt lat="43.176332" lon="-9.031415">
        <ele>37.526</ele>
        <time>2019-06-21T14:17:26Z</time>
      </trkpt>
      <trkpt lat="43.176439" lon="-9.031582">
        <ele>38.208</ele>
        <time>2019-06-21T14:17:27Z</time>
      </trkpt>
      <trkpt lat="43.176545" lon="-9.031738">
        <ele>38.120</ele>
        <time>2019-06-21T14:17:28Z</time>
      </trkpt>
      <trkpt lat="43.176640" lon="-9.031880">
        <ele>38.364</ele>
        <time>2019-06-21T14:17:29Z</time>
      </trkpt>
      <trkpt lat="43.176715" lon="-9.032030">
        <ele>39.136</ele>
        <time>2019-06-21T14:17:30Z</time>
      </trkpt>
      <trkpt lat="43.176796" lon="-9.032195">
        <ele>39.478</ele>
        <time>2019-06-21T14:17:31Z</time>
      </trkpt>
      <trkpt lat="43.176885" lon="-9.032361">
        <ele>37.385</ele>
        <time>2019-06-21T14:17:32Z</time>
      </trkpt>
      <trkpt lat="43.176965" lon="-9.032553">
        <ele>35.671</ele>
        <time>2019-06-21T14:17:33Z</time>
      </trkpt>
      <trkpt lat="43.177030" lon="-9.032769">
        <ele>34.845</ele>
        <time>2019-06-21T14:17:34Z</time>
      </trkpt>
      <trkpt lat="43.177091" lon="-9.033041">
        <ele>35.347</ele>
        <time>2019-06-21T14:17:35Z</time>
      </trkpt>
      <trkpt lat="43.177165" lon="-9.033253">
        <ele>37.211</ele>
        <time>2019-06-21T14:17:36Z</time>
      </trkpt>
      <trkpt lat="43.177201" lon="-9.033470">
        <ele>39.921</ele>
        <time>2019-06-21T14:17:37Z</time>
      </trkpt>
      <trkpt lat="43.177247" lon="-9.033687">
        <ele>42.603</ele>
        <time>2019-06-21T14:17:38Z</time>
      </trkpt>
      <trkpt lat="43.177301" lon="-9.033888">
        <ele>44.108</ele>
        <time>2019-06-21T14:17:39Z</time>
      </trkpt>
      <trkpt lat="43.177342" lon="-9.034090">
        <ele>44.824</ele>
        <time>2019-06-21T14:17:40Z</time>
      </trkpt>
      <trkpt lat="43.177398" lon="-9.034300">
        <ele>45.358</ele>
        <time>2019-06-21T14:17:41Z</time>
      </trkpt>
      <trkpt lat="43.177421" lon="-9.034517">
        <ele>46.320</ele>
        <time>2019-06-21T14:17:42Z</time>
      </trkpt>
      <trkpt lat="43.177439" lon="-9.034734">
        <ele>45.912</ele>
        <time>2019-06-21T14:17:43Z</time>
      </trkpt>
      <trkpt lat="43.177442" lon="-9.034941">
        <ele>46.229</ele>
        <time>2019-06-21T14:17:44Z</time>
      </trkpt>
      <trkpt lat="43.177444" lon="-9.035133">
        <ele>47.695</ele>
        <time>2019-06-21T14:17:45Z</time>
      </trkpt>
      <trkpt lat="43.177457" lon="-9.035315">
        <ele>49.829</ele>
        <time>2019-06-21T14:17:46Z</time>
      </trkpt>
      <trkpt lat="43.177487" lon="-9.035468">
        <ele>52.491</ele>
        <time>2019-06-21T14:17:47Z</time>
      </trkpt>
      <trkpt lat="43.177509" lon="-9.035643">
        <ele>56.353</ele>
        <time>2019-06-21T14:17:48Z</time>
      </trkpt>
      <trkpt lat="43.177552" lon="-9.035796">
        <ele>59.404</ele>
        <time>2019-06-21T14:17:49Z</time>
      </trkpt>
      <trkpt lat="43.177607" lon="-9.035923">
        <ele>61.414</ele>
        <time>2019-06-21T14:17:50Z</time>
      </trkpt>
      <trkpt lat="43.177677" lon="-9.036078">
        <ele>63.408</ele>
        <time>2019-06-21T14:17:51Z</time>
      </trkpt>
      <trkpt lat="43.177824" lon="-9.036242">
        <ele>61.748</ele>
        <time>2019-06-21T14:17:52Z</time>
      </trkpt>
      <trkpt lat="43.177916" lon="-9.036426">
        <ele>60.352</ele>
        <time>2019-06-21T14:17:53Z</time>
      </trkpt>
      <trkpt lat="43.177987" lon="-9.036626">
        <ele>60.264</ele>
        <time>2019-06-21T14:17:54Z</time>
      </trkpt>
      <trkpt lat="43.178051" lon="-9.036823">
        <ele>59.536</ele>
        <time>2019-06-21T14:17:55Z</time>
      </trkpt>
      <trkpt lat="43.178120" lon="-9.037028">
        <ele>57.623</ele>
        <time>2019-06-21T14:17:56Z</time>
      </trkpt>
      <trkpt lat="43.178160" lon="-9.037243">
        <ele>57.799</ele>
        <time>2019-06-21T14:17:57Z</time>
      </trkpt>
      <trkpt lat="43.178184" lon="-9.037464">
        <ele>57.883</ele>
        <time>2019-06-21T14:17:58Z</time>
      </trkpt>
      <trkpt lat="43.178184" lon="-9.037694">
        <ele>58.465</ele>
        <time>2019-06-21T14:17:59Z</time>
      </trkpt>
      <trkpt lat="43.178191" lon="-9.037928">
        <ele>59.581</ele>
        <time>2019-06-21T14:18:00Z</time>
      </trkpt>
      <trkpt lat="43.178208" lon="-9.038155">
        <ele>60.761</ele>
        <time>2019-06-21T14:18:01Z</time>
      </trkpt>
      <trkpt lat="43.178220" lon="-9.038367">
        <ele>61.917</ele>
        <time>2019-06-21T14:18:02Z</time>
      </trkpt>
      <trkpt lat="43.178238" lon="-9.038556">
        <ele>62.408</ele>
        <time>2019-06-21T14:18:03Z</time>
      </trkpt>
      <trkpt lat="43.178259" lon="-9.038739">
        <ele>61.541</ele>
        <time>2019-06-21T14:18:04Z</time>
      </trkpt>
      <trkpt lat="43.178268" lon="-9.038924">
        <ele>60.375</ele>
        <time>2019-06-21T14:18:05Z</time>
      </trkpt>
      <trkpt lat="43.178221" lon="-9.039106">
        <ele>60.627</ele>
        <time>2019-06-21T14:18:06Z</time>
      </trkpt>
      <trkpt lat="43.178162" lon="-9.039290">
        <ele>60.299</ele>
        <time>2019-06-21T14:18:07Z</time>
      </trkpt>
      <trkpt lat="43.178083" lon="-9.039462">
        <ele>60.656</ele>
        <time>2019-06-21T14:18:08Z</time>
      </trkpt>
      <trkpt lat="43.177990" lon="-9.039622">
        <ele>59.622</ele>
        <time>2019-06-21T14:18:09Z</time>
      </trkpt>
      <trkpt lat="43.177903" lon="-9.039766">
        <ele>58.446</ele>
        <time>2019-06-21T14:18:10Z</time>
      </trkpt>
      <trkpt lat="43.177806" lon="-9.039909">
        <ele>57.438</ele>
        <time>2019-06-21T14:18:11Z</time>
      </trkpt>
      <trkpt lat="43.177708" lon="-9.039920">
        <ele>58.488</ele>
        <time>2019-06-21T14:18:12Z</time>
      </trkpt>
      <trkpt lat="43.177605" lon="-9.039981">
        <ele>58.224</ele>
        <time>2019-06-21T14:18:13Z</time>
      </trkpt>
      <trkpt lat="43.177502" lon="-9.040042">
        <ele>58.426</ele>
        <time>2019-06-21T14:18:14Z</time>
      </trkpt>
      <trkpt lat="43.177389" lon="-9.040092">
        <ele>58.508</ele>
        <time>2019-06-21T14:18:15Z</time>
      </trkpt>
      <trkpt lat="43.177240" lon="-9.040032">
        <ele>60.421</ele>
        <time>2019-06-21T14:18:16Z</time>
      </trkpt>
      <trkpt lat="43.177105" lon="-9.040008">
        <ele>62.665</ele>
        <time>2019-06-21T14:18:17Z</time>
      </trkpt>
      <trkpt lat="43.176972" lon="-9.040003">
        <ele>64.547</ele>
        <time>2019-06-21T14:18:18Z</time>
      </trkpt>
      <trkpt lat="43.176839" lon="-9.040025">
        <ele>66.459</ele>
        <time>2019-06-21T14:18:19Z</time>
      </trkpt>
      <trkpt lat="43.176722" lon="-9.040147">
        <ele>66.416</ele>
        <time>2019-06-21T14:18:20Z</time>
      </trkpt>
      <trkpt lat="43.176604" lon="-9.040257">
        <ele>66.352</ele>
        <time>2019-06-21T14:18:21Z</time>
      </trkpt>
      <trkpt lat="43.176467" lon="-9.040388">
        <ele>66.976</ele>
        <time>2019-06-21T14:18:22Z</time>
      </trkpt>
      <trkpt lat="43.176337" lon="-9.040514">
        <ele>67.968</ele>
        <time>2019-06-21T14:18:23Z</time>
      </trkpt>
      <trkpt lat="43.176201" lon="-9.040657">
        <ele>68.597</ele>
        <time>2019-06-21T14:18:24Z</time>
      </trkpt>
      <trkpt lat="43.176077" lon="-9.040786">
        <ele>69.423</ele>
        <time>2019-06-21T14:18:25Z</time>
      </trkpt>
      <trkpt lat="43.175943" lon="-9.040929">
        <ele>70.325</ele>
        <time>2019-06-21T14:18:26Z</time>
      </trkpt>
      <trkpt lat="43.175816" lon="-9.041033">
        <ele>72.108</ele>
        <time>2019-06-21T14:18:27Z</time>
      </trkpt>
      <trkpt lat="43.175694" lon="-9.041144">
        <ele>74.652</ele>
        <time>2019-06-21T14:18:28Z</time>
      </trkpt>
      <trkpt lat="43.175588" lon="-9.041257">
        <ele>76.576</ele>
        <time>2019-06-21T14:18:29Z</time>
      </trkpt>
      <trkpt lat="43.175476" lon="-9.041353">
        <ele>79.498</ele>
        <time>2019-06-21T14:18:30Z</time>
      </trkpt>
      <trkpt lat="43.175445" lon="-9.041487">
        <ele>79.940</ele>
        <time>2019-06-21T14:18:31Z</time>
      </trkpt>
      <trkpt lat="43.175390" lon="-9.041621">
        <ele>80.847</ele>
        <time>2019-06-21T14:18:32Z</time>
      </trkpt>
      <trkpt lat="43.175359" lon="-9.041782">
        <ele>80.443</ele>
        <time>2019-06-21T14:18:33Z</time>
      </trkpt>
      <trkpt lat="43.175382" lon="-9.041934">
        <ele>78.857</ele>
        <time>2019-06-21T14:18:34Z</time>
      </trkpt>
      <trkpt lat="43.175371" lon="-9.042095">
        <ele>78.479</ele>
        <time>2019-06-21T14:18:35Z</time>
      </trkpt>
      <trkpt lat="43.175333" lon="-9.042237">
        <ele>78.781</ele>
        <time>2019-06-21T14:18:36Z</time>
      </trkpt>
      <trkpt lat="43.175276" lon="-9.042374">
        <ele>78.461</ele>
        <time>2019-06-21T14:18:37Z</time>
      </trkpt>
      <trkpt lat="43.175197" lon="-9.042490">
        <ele>78.317</ele>
        <time>2019-06-21T14:18:38Z</time>
      </trkpt>
      <trkpt lat="43.175118" lon="-9.042609">
        <ele>77.308</ele>
        <time>2019-06-21T14:18:39Z</time>
      </trkpt>
      <trkpt lat="43.174949" lon="-9.042728">
        <ele>77.951</ele>
        <time>2019-06-21T14:18:40Z</time>
      </trkpt>
      <trkpt lat="43.174817" lon="-9.042841">
        <ele>77.575</ele>
        <time>2019-06-21T14:18:41Z</time>
      </trkpt>
      <trkpt lat="43.174669" lon="-9.042986">
        <ele>75.677</ele>
        <time>2019-06-21T14:18:42Z</time>
      </trkpt>
      <trkpt lat="43.174528" lon="-9.043086">
        <ele>74.119</ele>
        <time>2019-06-21T14:18:43Z</time>
      </trkpt>
      <trkpt lat="43.174400" lon="-9.043179">
        <ele>71.336</ele>
        <time>2019-06-21T14:18:44Z</time>
      </trkpt>
      <trkpt lat="43.174264" lon="-9.043259">
        <ele>67.942</ele>
        <time>2019-06-21T14:18:45Z</time>
      </trkpt>
      <trkpt lat="43.174119" lon="-9.043323">
        <ele>65.356</ele>
        <time>2019-06-21T14:18:46Z</time>
      </trkpt>
      <trkpt lat="43.173972" lon="-9.043353">
        <ele>64.638</ele>
        <time>2019-06-21T14:18:47Z</time>
      </trkpt>
      <trkpt lat="43.173803" lon="-9.043343">
        <ele>64.544</ele>
        <time>2019-06-21T14:18:48Z</time>
      </trkpt>
      <trkpt lat="43.173639" lon="-9.043338">
        <ele>64.005</ele>
        <time>2019-06-21T14:18:49Z</time>
      </trkpt>
      <trkpt lat="43.173483" lon="-9.043333">
        <ele>63.515</ele>
        <time>2019-06-21T14:18:50Z</time>
      </trkpt>
      <trkpt lat="43.173325" lon="-9.043219">
        <ele>65.808</ele>
        <time>2019-06-21T14:18:51Z</time>
      </trkpt>
      <trkpt lat="43.173198" lon="-9.043148">
        <ele>66.917</ele>
        <time>2019-06-21T14:18:52Z</time>
      </trkpt>
      <trkpt lat="43.173025" lon="-9.043053">
        <ele>67.271</ele>
        <time>2019-06-21T14:18:53Z</time>
      </trkpt>
      <trkpt lat="43.172862" lon="-9.042968">
        <ele>64.113</ele>
        <time>2019-06-21T14:18:54Z</time>
      </trkpt>
      <trkpt lat="43.172682" lon="-9.042815">
        <ele>62.875</ele>
        <time>2019-06-21T14:18:55Z</time>
      </trkpt>
      <trkpt lat="43.172514" lon="-9.042716">
        <ele>60.772</ele>
        <time>2019-06-21T14:18:56Z</time>
      </trkpt>
      <trkpt lat="43.172345" lon="-9.042584">
        <ele>61.588</ele>
        <time>2019-06-21T14:18:57Z</time>
      </trkpt>
      <trkpt lat="43.172172" lon="-9.042452">
        <ele>62.152</ele>
        <time>2019-06-21T14:18:58Z</time>
      </trkpt>
      <trkpt lat="43.172004" lon="-9.042320">
        <ele>62.034</ele>
        <time>2019-06-21T14:18:59Z</time>
      </trkpt>
      <trkpt lat="43.171855" lon="-9.042199">
        <ele>62.312</ele>
        <time>2019-06-21T14:19:00Z</time>
      </trkpt>
      <trkpt lat="43.171705" lon="-9.042075">
        <ele>62.832</ele>
        <time>2019-06-21T14:19:01Z</time>
      </trkpt>
      <trkpt lat="43.171547" lon="-9.041961">
        <ele>61.605</ele>
        <time>2019-06-21T14:19:02Z</time>
      </trkpt>
      <trkpt lat="43.171402" lon="-9.041838">
        <ele>61.008</ele>
        <time>2019-06-21T14:19:03Z</time>
      </trkpt>
      <trkpt lat="43.171256" lon="-9.041727">
        <ele>61.624</ele>
        <time>2019-06-21T14:19:04Z</time>
      </trkpt>
      <trkpt lat="43.171114" lon="-9.041623">
        <ele>62.578</ele>
        <time>2019-06-21T14:19:05Z</time>
      </trkpt>
      <trkpt lat="43.171007" lon="-9.041573">
        <ele>63.470</ele>
        <time>2019-06-21T14:19:06Z</time>
      </trkpt>
      <trkpt lat="43.170878" lon="-9.041472">
        <ele>66.232</ele>
        <time>2019-06-21T14:19:07Z</time>
      </trkpt>
      <trkpt lat="43.170754" lon="-9.041382">
        <ele>67.599</ele>
        <time>2019-06-21T14:19:08Z</time>
      </trkpt>
      <trkpt lat="43.170625" lon="-9.041280">
        <ele>68.345</ele>
        <time>2019-06-21T14:19:09Z</time>
      </trkpt>
      <trkpt lat="43.170507" lon="-9.041203">
        <ele>69.389</ele>
        <time>2019-06-21T14:19:10Z</time>
      </trkpt>
      <trkpt lat="43.170384" lon="-9.041106">
        <ele>71.331</ele>
        <time>2019-06-21T14:19:11Z</time>
      </trkpt>
      <trkpt lat="43.170273" lon="-9.041116">
        <ele>70.091</ele>
        <time>2019-06-21T14:19:12Z</time>
      </trkpt>
      <trkpt lat="43.170167" lon="-9.041123">
        <ele>72.581</ele>
        <time>2019-06-21T14:19:13Z</time>
      </trkpt>
      <trkpt lat="43.170042" lon="-9.041266">
        <ele>72.019</ele>
        <time>2019-06-21T14:19:14Z</time>
      </trkpt>
      <trkpt lat="43.169917" lon="-9.041397">
        <ele>72.808</ele>
        <time>2019-06-21T14:19:15Z</time>
      </trkpt>
      <trkpt lat="43.169968" lon="-9.041692">
        <ele>66.522</ele>
        <time>2019-06-21T14:19:16Z</time>
      </trkpt>
      <trkpt lat="43.169905" lon="-9.041848">
        <ele>65.876</ele>
        <time>2019-06-21T14:19:17Z</time>
      </trkpt>
      <trkpt lat="43.169856" lon="-9.041945">
        <ele>65.128</ele>
        <time>2019-06-21T14:19:18Z</time>
      </trkpt>
      <trkpt lat="43.169780" lon="-9.042068">
        <ele>64.050</ele>
        <time>2019-06-21T14:19:19Z</time>
      </trkpt>
      <trkpt lat="43.169684" lon="-9.042193">
        <ele>62.437</ele>
        <time>2019-06-21T14:19:20Z</time>
      </trkpt>
      <trkpt lat="43.169505" lon="-9.042195">
        <ele>61.953</ele>
        <time>2019-06-21T14:19:21Z</time>
      </trkpt>
      <trkpt lat="43.169364" lon="-9.042248">
        <ele>61.487</ele>
        <time>2019-06-21T14:19:22Z</time>
      </trkpt>
      <trkpt lat="43.169211" lon="-9.042273">
        <ele>63.149</ele>
        <time>2019-06-21T14:19:23Z</time>
      </trkpt>
      <trkpt lat="43.169065" lon="-9.042310">
        <ele>64.564</ele>
        <time>2019-06-21T14:19:24Z</time>
      </trkpt>
      <trkpt lat="43.168921" lon="-9.042361">
        <ele>65.506</ele>
        <time>2019-06-21T14:19:25Z</time>
      </trkpt>
      <trkpt lat="43.168783" lon="-9.042394">
        <ele>65.116</ele>
        <time>2019-06-21T14:19:26Z</time>
      </trkpt>
      <trkpt lat="43.168655" lon="-9.042423">
        <ele>64.108</ele>
        <time>2019-06-21T14:19:27Z</time>
      </trkpt>
      <trkpt lat="43.168528" lon="-9.042408">
        <ele>64.529</ele>
        <time>2019-06-21T14:19:28Z</time>
      </trkpt>
      <trkpt lat="43.168415" lon="-9.042387">
        <ele>65.293</ele>
        <time>2019-06-21T14:19:29Z</time>
      </trkpt>
      <trkpt lat="43.168306" lon="-9.042329">
        <ele>67.115</ele>
        <time>2019-06-21T14:19:30Z</time>
      </trkpt>
      <trkpt lat="43.168190" lon="-9.042194">
        <ele>70.397</ele>
        <time>2019-06-21T14:19:31Z</time>
      </trkpt>
      <trkpt lat="43.168090" lon="-9.042102">
        <ele>71.654</ele>
        <time>2019-06-21T14:19:32Z</time>
      </trkpt>
      <trkpt lat="43.167978" lon="-9.042012">
        <ele>73.340</ele>
        <time>2019-06-21T14:19:33Z</time>
      </trkpt>
      <trkpt lat="43.167868" lon="-9.041956">
        <ele>74.194</ele>
        <time>2019-06-21T14:19:34Z</time>
      </trkpt>
      <trkpt lat="43.167753" lon="-9.041943">
        <ele>74.486</ele>
        <time>2019-06-21T14:19:35Z</time>
      </trkpt>
      <trkpt lat="43.167639" lon="-9.042067">
        <ele>75.374</ele>
        <time>2019-06-21T14:19:36Z</time>
      </trkpt>
      <trkpt lat="43.167538" lon="-9.042086">
        <ele>77.256</ele>
        <time>2019-06-21T14:19:37Z</time>
      </trkpt>
      <trkpt lat="43.167442" lon="-9.042136">
        <ele>80.021</ele>
        <time>2019-06-21T14:19:38Z</time>
      </trkpt>
      <trkpt lat="43.167377" lon="-9.042329">
        <ele>83.308</ele>
        <time>2019-06-21T14:19:39Z</time>
      </trkpt>
      <trkpt lat="43.167318" lon="-9.042476">
        <ele>85.670</ele>
        <time>2019-06-21T14:19:40Z</time>
      </trkpt>
      <trkpt lat="43.167262" lon="-9.042625">
        <ele>86.514</ele>
        <time>2019-06-21T14:19:41Z</time>
      </trkpt>
      <trkpt lat="43.167224" lon="-9.042810">
        <ele>86.796</ele>
        <time>2019-06-21T14:19:42Z</time>
      </trkpt>
      <trkpt lat="43.167143" lon="-9.042979">
        <ele>88.448</ele>
        <time>2019-06-21T14:19:43Z</time>
      </trkpt>
      <trkpt lat="43.167091" lon="-9.043141">
        <ele>88.825</ele>
        <time>2019-06-21T14:19:44Z</time>
      </trkpt>
      <trkpt lat="43.167038" lon="-9.043295">
        <ele>89.091</ele>
        <time>2019-06-21T14:19:45Z</time>
      </trkpt>
      <trkpt lat="43.166991" lon="-9.043425">
        <ele>88.975</ele>
        <time>2019-06-21T14:19:46Z</time>
      </trkpt>
      <trkpt lat="43.166941" lon="-9.043555">
        <ele>88.937</ele>
        <time>2019-06-21T14:19:47Z</time>
      </trkpt>
      <trkpt lat="43.166848" lon="-9.043670">
        <ele>88.638</ele>
        <time>2019-06-21T14:19:48Z</time>
      </trkpt>
      <trkpt lat="43.166714" lon="-9.043769">
        <ele>89.070</ele>
        <time>2019-06-21T14:19:49Z</time>
      </trkpt>
      <trkpt lat="43.166615" lon="-9.043863">
        <ele>88.217</ele>
        <time>2019-06-21T14:19:50Z</time>
      </trkpt>
      <trkpt lat="43.166494" lon="-9.043919">
        <ele>88.008</ele>
        <time>2019-06-21T14:19:51Z</time>
      </trkpt>
      <trkpt lat="43.166345" lon="-9.043941">
        <ele>88.846</ele>
        <time>2019-06-21T14:19:52Z</time>
      </trkpt>
      <trkpt lat="43.166205" lon="-9.043910">
        <ele>90.160</ele>
        <time>2019-06-21T14:19:53Z</time>
      </trkpt>
      <trkpt lat="43.166050" lon="-9.043930">
        <ele>90.352</ele>
        <time>2019-06-21T14:19:54Z</time>
      </trkpt>
      <trkpt lat="43.165901" lon="-9.043938">
        <ele>91.184</ele>
        <time>2019-06-21T14:19:55Z</time>
      </trkpt>
      <trkpt lat="43.165757" lon="-9.043938">
        <ele>92.441</ele>
        <time>2019-06-21T14:19:56Z</time>
      </trkpt>
      <trkpt lat="43.165593" lon="-9.043888">
        <ele>95.627</ele>
        <time>2019-06-21T14:19:57Z</time>
      </trkpt>
      <trkpt lat="43.165435" lon="-9.043823">
        <ele>97.851</ele>
        <time>2019-06-21T14:19:58Z</time>
      </trkpt>
      <trkpt lat="43.165284" lon="-9.043766">
        <ele>99.183</ele>
        <time>2019-06-21T14:19:59Z</time>
      </trkpt>
      <trkpt lat="43.165146" lon="-9.043733">
        <ele>100.489</ele>
        <time>2019-06-21T14:20:00Z</time>
      </trkpt>
      <trkpt lat="43.165005" lon="-9.043705">
        <ele>101.606</ele>
        <time>2019-06-21T14:20:01Z</time>
      </trkpt>
      <trkpt lat="43.164864" lon="-9.043707">
        <ele>104.026</ele>
        <time>2019-06-21T14:20:02Z</time>
      </trkpt>
      <trkpt lat="43.164723" lon="-9.043787">
        <ele>104.608</ele>
        <time>2019-06-21T14:20:03Z</time>
      </trkpt>
      <trkpt lat="43.164566" lon="-9.043831">
        <ele>105.811</ele>
        <time>2019-06-21T14:20:04Z</time>
      </trkpt>
      <trkpt lat="43.164395" lon="-9.043908">
        <ele>105.995</ele>
        <time>2019-06-21T14:20:05Z</time>
      </trkpt>
      <trkpt lat="43.164234" lon="-9.043981">
        <ele>105.267</ele>
        <time>2019-06-21T14:20:06Z</time>
      </trkpt>
      <trkpt lat="43.164070" lon="-9.044027">
        <ele>105.669</ele>
        <time>2019-06-21T14:20:07Z</time>
      </trkpt>
      <trkpt lat="43.163901" lon="-9.044108">
        <ele>105.346</ele>
        <time>2019-06-21T14:20:08Z</time>
      </trkpt>
      <trkpt lat="43.163721" lon="-9.044157">
        <ele>108.522</ele>
        <time>2019-06-21T14:20:09Z</time>
      </trkpt>
      <trkpt lat="43.163539" lon="-9.044219">
        <ele>111.056</ele>
        <time>2019-06-21T14:20:10Z</time>
      </trkpt>
      <trkpt lat="43.163366" lon="-9.044289">
        <ele>112.758</ele>
        <time>2019-06-21T14:20:11Z</time>
      </trkpt>
      <trkpt lat="43.163190" lon="-9.044336">
        <ele>113.816</ele>
        <time>2019-06-21T14:20:12Z</time>
      </trkpt>
      <trkpt lat="43.163002" lon="-9.044363">
        <ele>114.876</ele>
        <time>2019-06-21T14:20:13Z</time>
      </trkpt>
      <trkpt lat="43.162818" lon="-9.044382">
        <ele>116.013</ele>
        <time>2019-06-21T14:20:14Z</time>
      </trkpt>
      <trkpt lat="43.162636" lon="-9.044387">
        <ele>117.408</ele>
        <time>2019-06-21T14:20:15Z</time>
      </trkpt>
      <trkpt lat="43.162457" lon="-9.044386">
        <ele>118.884</ele>
        <time>2019-06-21T14:20:16Z</time>
      </trkpt>
      <trkpt lat="43.162269" lon="-9.044360">
        <ele>120.648</ele>
        <time>2019-06-21T14:20:17Z</time>
      </trkpt>
      <trkpt lat="43.162091" lon="-9.044327">
        <ele>123.250</ele>
        <time>2019-06-21T14:20:18Z</time>
      </trkpt>
      <trkpt lat="43.161924" lon="-9.044301">
        <ele>125.712</ele>
        <time>2019-06-21T14:20:19Z</time>
      </trkpt>
      <trkpt lat="43.161758" lon="-9.044276">
        <ele>126.889</ele>
        <time>2019-06-21T14:20:20Z</time>
      </trkpt>
      <trkpt lat="43.161587" lon="-9.044232">
        <ele>127.435</ele>
        <time>2019-06-21T14:20:21Z</time>
      </trkpt>
      <trkpt lat="43.161425" lon="-9.044212">
        <ele>127.299</ele>
        <time>2019-06-21T14:20:22Z</time>
      </trkpt>
      <trkpt lat="43.161253" lon="-9.044184">
        <ele>128.021</ele>
        <time>2019-06-21T14:20:23Z</time>
      </trkpt>
      <trkpt lat="43.161082" lon="-9.044181">
        <ele>129.415</ele>
        <time>2019-06-21T14:20:24Z</time>
      </trkpt>
      <trkpt lat="43.160915" lon="-9.044219">
        <ele>131.265</ele>
        <time>2019-06-21T14:20:25Z</time>
      </trkpt>
      <trkpt lat="43.160772" lon="-9.044302">
        <ele>132.211</ele>
        <time>2019-06-21T14:20:26Z</time>
      </trkpt>
      <trkpt lat="43.160613" lon="-9.044476">
        <ele>132.808</ele>
        <time>2019-06-21T14:20:27Z</time>
      </trkpt>
      <trkpt lat="43.160456" lon="-9.044607">
        <ele>132.994</ele>
        <time>2019-06-21T14:20:28Z</time>
      </trkpt>
      <trkpt lat="43.160293" lon="-9.044733">
        <ele>133.178</ele>
        <time>2019-06-21T14:20:29Z</time>
      </trkpt>
      <trkpt lat="43.160122" lon="-9.044856">
        <ele>134.010</ele>
        <time>2019-06-21T14:20:30Z</time>
      </trkpt>
      <trkpt lat="43.159949" lon="-9.044996">
        <ele>134.452</ele>
        <time>2019-06-21T14:20:31Z</time>
      </trkpt>
      <trkpt lat="43.159768" lon="-9.045118">
        <ele>132.969</ele>
        <time>2019-06-21T14:20:32Z</time>
      </trkpt>
      <trkpt lat="43.159584" lon="-9.045246">
        <ele>131.485</ele>
        <time>2019-06-21T14:20:33Z</time>
      </trkpt>
      <trkpt lat="43.159394" lon="-9.045389">
        <ele>130.649</ele>
        <time>2019-06-21T14:20:34Z</time>
      </trkpt>
      <trkpt lat="43.159211" lon="-9.045523">
        <ele>131.741</ele>
        <time>2019-06-21T14:20:35Z</time>
      </trkpt>
      <trkpt lat="43.159021" lon="-9.045655">
        <ele>134.585</ele>
        <time>2019-06-21T14:20:36Z</time>
      </trkpt>
      <trkpt lat="43.158843" lon="-9.045790">
        <ele>137.689</ele>
        <time>2019-06-21T14:20:37Z</time>
      </trkpt>
      <trkpt lat="43.158663" lon="-9.045928">
        <ele>141.117</ele>
        <time>2019-06-21T14:20:38Z</time>
      </trkpt>
      <trkpt lat="43.158479" lon="-9.046063">
        <ele>142.008</ele>
        <time>2019-06-21T14:20:39Z</time>
      </trkpt>
      <trkpt lat="43.158293" lon="-9.046205">
        <ele>141.611</ele>
        <time>2019-06-21T14:20:40Z</time>
      </trkpt>
      <trkpt lat="43.158115" lon="-9.046338">
        <ele>140.515</ele>
        <time>2019-06-21T14:20:41Z</time>
      </trkpt>
      <trkpt lat="43.157943" lon="-9.046466">
        <ele>140.187</ele>
        <time>2019-06-21T14:20:42Z</time>
      </trkpt>
      <trkpt lat="43.157758" lon="-9.046611">
        <ele>140.129</ele>
        <time>2019-06-21T14:20:43Z</time>
      </trkpt>
      <trkpt lat="43.157570" lon="-9.046760">
        <ele>138.886</ele>
        <time>2019-06-21T14:20:44Z</time>
      </trkpt>
      <trkpt lat="43.157382" lon="-9.046902">
        <ele>137.672</ele>
        <time>2019-06-21T14:20:45Z</time>
      </trkpt>
      <trkpt lat="43.157184" lon="-9.047058">
        <ele>136.676</ele>
        <time>2019-06-21T14:20:46Z</time>
      </trkpt>
      <trkpt lat="43.156986" lon="-9.047193">
        <ele>135.438</ele>
        <time>2019-06-21T14:20:47Z</time>
      </trkpt>
      <trkpt lat="43.156795" lon="-9.047335">
        <ele>135.731</ele>
        <time>2019-06-21T14:20:48Z</time>
      </trkpt>
      <trkpt lat="43.156609" lon="-9.047484">
        <ele>135.061</ele>
        <time>2019-06-21T14:20:49Z</time>
      </trkpt>
      <trkpt lat="43.156425" lon="-9.047632">
        <ele>135.107</ele>
        <time>2019-06-21T14:20:50Z</time>
      </trkpt>
      <trkpt lat="43.156245" lon="-9.047791">
        <ele>135.508</ele>
        <time>2019-06-21T14:20:51Z</time>
      </trkpt>
      <trkpt lat="43.156066" lon="-9.047966">
        <ele>135.446</ele>
        <time>2019-06-21T14:20:52Z</time>
      </trkpt>
      <trkpt lat="43.155889" lon="-9.048164">
        <ele>136.770</ele>
        <time>2019-06-21T14:20:53Z</time>
      </trkpt>
      <trkpt lat="43.155725" lon="-9.048376">
        <ele>140.652</ele>
        <time>2019-06-21T14:20:54Z</time>
      </trkpt>
      <trkpt lat="43.155568" lon="-9.048589">
        <ele>144.694</ele>
        <time>2019-06-21T14:20:55Z</time>
      </trkpt>
      <trkpt lat="43.155418" lon="-9.048808">
        <ele>146.721</ele>
        <time>2019-06-21T14:20:56Z</time>
      </trkpt>
      <trkpt lat="43.155253" lon="-9.049015">
        <ele>149.177</ele>
        <time>2019-06-21T14:20:57Z</time>
      </trkpt>
      <trkpt lat="43.155087" lon="-9.049227">
        <ele>150.811</ele>
        <time>2019-06-21T14:20:58Z</time>
      </trkpt>
      <trkpt lat="43.154922" lon="-9.049453">
        <ele>151.673</ele>
        <time>2019-06-21T14:20:59Z</time>
      </trkpt>
      <trkpt lat="43.154752" lon="-9.049681">
        <ele>153.617</ele>
        <time>2019-06-21T14:21:00Z</time>
      </trkpt>
      <trkpt lat="43.154585" lon="-9.049893">
        <ele>155.387</ele>
        <time>2019-06-21T14:21:01Z</time>
      </trkpt>
      <trkpt lat="43.154435" lon="-9.050105">
        <ele>156.015</ele>
        <time>2019-06-21T14:21:02Z</time>
      </trkpt>
      <trkpt lat="43.154266" lon="-9.050297">
        <ele>155.408</ele>
        <time>2019-06-21T14:21:03Z</time>
      </trkpt>
      <trkpt lat="43.154113" lon="-9.050502">
        <ele>154.844</ele>
        <time>2019-06-21T14:21:04Z</time>
      </trkpt>
      <trkpt lat="43.153956" lon="-9.050699">
        <ele>154.238</ele>
        <time>2019-06-21T14:21:05Z</time>
      </trkpt>
      <trkpt lat="43.153827" lon="-9.050889">
        <ele>154.090</ele>
        <time>2019-06-21T14:21:06Z</time>
      </trkpt>
      <trkpt lat="43.153696" lon="-9.051111">
        <ele>154.392</ele>
        <time>2019-06-21T14:21:07Z</time>
      </trkpt>
      <trkpt lat="43.153598" lon="-9.051266">
        <ele>154.579</ele>
        <time>2019-06-21T14:21:08Z</time>
      </trkpt>
      <trkpt lat="43.153472" lon="-9.051432">
        <ele>154.855</ele>
        <time>2019-06-21T14:21:09Z</time>
      </trkpt>
      <trkpt lat="43.153329" lon="-9.051608">
        <ele>155.679</ele>
        <time>2019-06-21T14:21:10Z</time>
      </trkpt>
      <trkpt lat="43.153197" lon="-9.051798">
        <ele>158.211</ele>
        <time>2019-06-21T14:21:11Z</time>
      </trkpt>
      <trkpt lat="43.153062" lon="-9.051993">
        <ele>160.347</ele>
        <time>2019-06-21T14:21:12Z</time>
      </trkpt>
      <trkpt lat="43.152930" lon="-9.052174">
        <ele>161.829</ele>
        <time>2019-06-21T14:21:13Z</time>
      </trkpt>
      <trkpt lat="43.152792" lon="-9.052350">
        <ele>162.021</ele>
        <time>2019-06-21T14:21:14Z</time>
      </trkpt>
      <trkpt lat="43.152657" lon="-9.052536">
        <ele>161.408</ele>
        <time>2019-06-21T14:21:15Z</time>
      </trkpt>
      <trkpt lat="43.152522" lon="-9.052736">
        <ele>160.217</ele>
        <time>2019-06-21T14:21:16Z</time>
      </trkpt>
      <trkpt lat="43.152389" lon="-9.052947">
        <ele>160.611</ele>
        <time>2019-06-21T14:21:17Z</time>
      </trkpt>
      <trkpt lat="43.152265" lon="-9.053172">
        <ele>161.423</ele>
        <time>2019-06-21T14:21:18Z</time>
      </trkpt>
      <trkpt lat="43.152153" lon="-9.053403">
        <ele>160.835</ele>
        <time>2019-06-21T14:21:19Z</time>
      </trkpt>
      <trkpt lat="43.152038" lon="-9.053638">
        <ele>160.222</ele>
        <time>2019-06-21T14:21:20Z</time>
      </trkpt>
      <trkpt lat="43.151918" lon="-9.053876">
        <ele>159.048</ele>
        <time>2019-06-21T14:21:21Z</time>
      </trkpt>
      <trkpt lat="43.151805" lon="-9.054121">
        <ele>156.872</ele>
        <time>2019-06-21T14:21:22Z</time>
      </trkpt>
      <trkpt lat="43.151669" lon="-9.054372">
        <ele>153.854</ele>
        <time>2019-06-21T14:21:23Z</time>
      </trkpt>
      <trkpt lat="43.151528" lon="-9.054669">
        <ele>150.354</ele>
        <time>2019-06-21T14:21:24Z</time>
      </trkpt>
      <trkpt lat="43.151399" lon="-9.054948">
        <ele>148.356</ele>
        <time>2019-06-21T14:21:25Z</time>
      </trkpt>
      <trkpt lat="43.151254" lon="-9.055246">
        <ele>146.111</ele>
        <time>2019-06-21T14:21:26Z</time>
      </trkpt>
      <trkpt lat="43.151120" lon="-9.055522">
        <ele>143.208</ele>
        <time>2019-06-21T14:21:27Z</time>
      </trkpt>
      <trkpt lat="43.150982" lon="-9.055810">
        <ele>140.718</ele>
        <time>2019-06-21T14:21:28Z</time>
      </trkpt>
      <trkpt lat="43.150847" lon="-9.056096">
        <ele>139.172</ele>
        <time>2019-06-21T14:21:29Z</time>
      </trkpt>
      <trkpt lat="43.150712" lon="-9.056389">
        <ele>139.084</ele>
        <time>2019-06-21T14:21:30Z</time>
      </trkpt>
      <trkpt lat="43.150572" lon="-9.056686">
        <ele>138.956</ele>
        <time>2019-06-21T14:21:31Z</time>
      </trkpt>
      <trkpt lat="43.150430" lon="-9.056982">
        <ele>137.923</ele>
        <time>2019-06-21T14:21:32Z</time>
      </trkpt>
      <trkpt lat="43.150293" lon="-9.057283">
        <ele>136.859</ele>
        <time>2019-06-21T14:21:33Z</time>
      </trkpt>
      <trkpt lat="43.150149" lon="-9.057580">
        <ele>136.053</ele>
        <time>2019-06-21T14:21:34Z</time>
      </trkpt>
      <trkpt lat="43.150020" lon="-9.057887">
        <ele>135.675</ele>
        <time>2019-06-21T14:21:35Z</time>
      </trkpt>
      <trkpt lat="43.149863" lon="-9.058206">
        <ele>134.585</ele>
        <time>2019-06-21T14:21:36Z</time>
      </trkpt>
      <trkpt lat="43.149719" lon="-9.058497">
        <ele>134.089</ele>
        <time>2019-06-21T14:21:37Z</time>
      </trkpt>
      <trkpt lat="43.149578" lon="-9.058789">
        <ele>133.517</ele>
        <time>2019-06-21T14:21:38Z</time>
      </trkpt>
      <trkpt lat="43.149431" lon="-9.059102">
        <ele>133.808</ele>
        <time>2019-06-21T14:21:39Z</time>
      </trkpt>
      <trkpt lat="43.149290" lon="-9.059407">
        <ele>135.211</ele>
        <time>2019-06-21T14:21:40Z</time>
      </trkpt>
      <trkpt lat="43.149141" lon="-9.059703">
        <ele>136.135</ele>
        <time>2019-06-21T14:21:41Z</time>
      </trkpt>
      <trkpt lat="43.149012" lon="-9.059992">
        <ele>138.067</ele>
        <time>2019-06-21T14:21:42Z</time>
      </trkpt>
      <trkpt lat="43.148913" lon="-9.060226">
        <ele>138.959</ele>
        <time>2019-06-21T14:21:43Z</time>
      </trkpt>
      <trkpt lat="43.148786" lon="-9.060506">
        <ele>140.366</ele>
        <time>2019-06-21T14:21:44Z</time>
      </trkpt>
      <trkpt lat="43.148643" lon="-9.060795">
        <ele>141.842</ele>
        <time>2019-06-21T14:21:45Z</time>
      </trkpt>
      <trkpt lat="43.148563" lon="-9.061047">
        <ele>143.496</ele>
        <time>2019-06-21T14:21:46Z</time>
      </trkpt>
      <trkpt lat="43.148459" lon="-9.061317">
        <ele>144.698</ele>
        <time>2019-06-21T14:21:47Z</time>
      </trkpt>
      <trkpt lat="43.148380" lon="-9.061596">
        <ele>145.127</ele>
        <time>2019-06-21T14:21:48Z</time>
      </trkpt>
      <trkpt lat="43.148310" lon="-9.061868">
        <ele>144.368</ele>
        <time>2019-06-21T14:21:49Z</time>
      </trkpt>
      <trkpt lat="43.148260" lon="-9.062154">
        <ele>143.714</ele>
        <time>2019-06-21T14:21:50Z</time>
      </trkpt>
      <trkpt lat="43.148215" lon="-9.062437">
        <ele>144.608</ele>
        <time>2019-06-21T14:21:51Z</time>
      </trkpt>
      <trkpt lat="43.148189" lon="-9.062758">
        <ele>146.465</ele>
        <time>2019-06-21T14:21:52Z</time>
      </trkpt>
      <trkpt lat="43.148149" lon="-9.063069">
        <ele>147.059</ele>
        <time>2019-06-21T14:21:53Z</time>
      </trkpt>
      <trkpt lat="43.148115" lon="-9.063382">
        <ele>147.711</ele>
        <time>2019-06-21T14:21:54Z</time>
      </trkpt>
      <trkpt lat="43.148096" lon="-9.063714">
        <ele>147.423</ele>
        <time>2019-06-21T14:21:55Z</time>
      </trkpt>
      <trkpt lat="43.148054" lon="-9.064049">
        <ele>145.320</ele>
        <time>2019-06-21T14:21:56Z</time>
      </trkpt>
      <trkpt lat="43.148020" lon="-9.064388">
        <ele>141.796</ele>
        <time>2019-06-21T14:21:57Z</time>
      </trkpt>
      <trkpt lat="43.147986" lon="-9.064725">
        <ele>138.730</ele>
        <time>2019-06-21T14:21:58Z</time>
      </trkpt>
      <trkpt lat="43.147954" lon="-9.065068">
        <ele>137.962</ele>
        <time>2019-06-21T14:21:59Z</time>
      </trkpt>
      <trkpt lat="43.147922" lon="-9.065419">
        <ele>135.551</ele>
        <time>2019-06-21T14:22:00Z</time>
      </trkpt>
      <trkpt lat="43.147892" lon="-9.065768">
        <ele>132.901</ele>
        <time>2019-06-21T14:22:01Z</time>
      </trkpt>
      <trkpt lat="43.147869" lon="-9.066118">
        <ele>132.311</ele>
        <time>2019-06-21T14:22:02Z</time>
      </trkpt>
      <trkpt lat="43.147835" lon="-9.066464">
        <ele>132.808</ele>
        <time>2019-06-21T14:22:03Z</time>
      </trkpt>
      <trkpt lat="43.147794" lon="-9.066800">
        <ele>131.628</ele>
        <time>2019-06-21T14:22:04Z</time>
      </trkpt>
      <trkpt lat="43.147772" lon="-9.067128">
        <ele>129.022</ele>
        <time>2019-06-21T14:22:05Z</time>
      </trkpt>
      <trkpt lat="43.147751" lon="-9.067454">
        <ele>126.174</ele>
        <time>2019-06-21T14:22:06Z</time>
      </trkpt>
      <trkpt lat="43.147743" lon="-9.067758">
        <ele>123.996</ele>
        <time>2019-06-21T14:22:07Z</time>
      </trkpt>
      <trkpt lat="43.147731" lon="-9.068067">
        <ele>122.773</ele>
        <time>2019-06-21T14:22:08Z</time>
      </trkpt>
      <trkpt lat="43.147740" lon="-9.068383">
        <ele>122.759</ele>
        <time>2019-06-21T14:22:09Z</time>
      </trkpt>
      <trkpt lat="43.147761" lon="-9.068701">
        <ele>122.373</ele>
        <time>2019-06-21T14:22:10Z</time>
      </trkpt>
      <trkpt lat="43.147773" lon="-9.069020">
        <ele>123.015</ele>
        <time>2019-06-21T14:22:11Z</time>
      </trkpt>
      <trkpt lat="43.147796" lon="-9.069344">
        <ele>123.274</ele>
        <time>2019-06-21T14:22:12Z</time>
      </trkpt>
      <trkpt lat="43.147809" lon="-9.069662">
        <ele>123.356</ele>
        <time>2019-06-21T14:22:13Z</time>
      </trkpt>
      <trkpt lat="43.147825" lon="-9.069991">
        <ele>123.821</ele>
        <time>2019-06-21T14:22:14Z</time>
      </trkpt>
      <trkpt lat="43.147849" lon="-9.070308">
        <ele>126.108</ele>
        <time>2019-06-21T14:22:15Z</time>
      </trkpt>
      <trkpt lat="43.147876" lon="-9.070607">
        <ele>127.240</ele>
        <time>2019-06-21T14:22:16Z</time>
      </trkpt>
      <trkpt lat="43.147907" lon="-9.070886">
        <ele>128.494</ele>
        <time>2019-06-21T14:22:17Z</time>
      </trkpt>
      <trkpt lat="43.147928" lon="-9.071155">
        <ele>128.756</ele>
        <time>2019-06-21T14:22:18Z</time>
      </trkpt>
      <trkpt lat="43.147940" lon="-9.071405">
        <ele>129.228</ele>
        <time>2019-06-21T14:22:19Z</time>
      </trkpt>
      <trkpt lat="43.147974" lon="-9.071623">
        <ele>129.495</ele>
        <time>2019-06-21T14:22:20Z</time>
      </trkpt>
      <trkpt lat="43.147985" lon="-9.071838">
        <ele>128.981</ele>
        <time>2019-06-21T14:22:21Z</time>
      </trkpt>
      <trkpt lat="43.148035" lon="-9.072004">
        <ele>128.765</ele>
        <time>2019-06-21T14:22:22Z</time>
      </trkpt>
      <trkpt lat="43.148047" lon="-9.072229">
        <ele>128.097</ele>
        <time>2019-06-21T14:22:23Z</time>
      </trkpt>
      <trkpt lat="43.148058" lon="-9.072444">
        <ele>128.069</ele>
        <time>2019-06-21T14:22:24Z</time>
      </trkpt>
      <trkpt lat="43.148078" lon="-9.072666">
        <ele>128.204</ele>
        <time>2019-06-21T14:22:25Z</time>
      </trkpt>
      <trkpt lat="43.148108" lon="-9.072893">
        <ele>128.324</ele>
        <time>2019-06-21T14:22:26Z</time>
      </trkpt>
      <trkpt lat="43.148126" lon="-9.073120">
        <ele>128.308</ele>
        <time>2019-06-21T14:22:27Z</time>
      </trkpt>
      <trkpt lat="43.148141" lon="-9.073350">
        <ele>128.239</ele>
        <time>2019-06-21T14:22:28Z</time>
      </trkpt>
      <trkpt lat="43.148157" lon="-9.073601">
        <ele>127.433</ele>
        <time>2019-06-21T14:22:29Z</time>
      </trkpt>
      <trkpt lat="43.148175" lon="-9.073849">
        <ele>125.875</ele>
        <time>2019-06-21T14:22:30Z</time>
      </trkpt>
      <trkpt lat="43.148191" lon="-9.074101">
        <ele>124.047</ele>
        <time>2019-06-21T14:22:31Z</time>
      </trkpt>
      <trkpt lat="43.148206" lon="-9.074348">
        <ele>122.084</ele>
        <time>2019-06-21T14:22:32Z</time>
      </trkpt>
      <trkpt lat="43.148211" lon="-9.074570">
        <ele>120.510</ele>
        <time>2019-06-21T14:22:33Z</time>
      </trkpt>
      <trkpt lat="43.148203" lon="-9.074805">
        <ele>118.844</ele>
        <time>2019-06-21T14:22:34Z</time>
      </trkpt>
      <trkpt lat="43.148169" lon="-9.075040">
        <ele>116.556</ele>
        <time>2019-06-21T14:22:35Z</time>
      </trkpt>
      <trkpt lat="43.148122" lon="-9.075286">
        <ele>114.743</ele>
        <time>2019-06-21T14:22:36Z</time>
      </trkpt>
      <trkpt lat="43.148048" lon="-9.075495">
        <ele>113.464</ele>
        <time>2019-06-21T14:22:37Z</time>
      </trkpt>
      <trkpt lat="43.147962" lon="-9.075716">
        <ele>111.810</ele>
        <time>2019-06-21T14:22:38Z</time>
      </trkpt>
      <trkpt lat="43.147864" lon="-9.075929">
        <ele>110.808</ele>
        <time>2019-06-21T14:22:39Z</time>
      </trkpt>
      <trkpt lat="43.147760" lon="-9.076133">
        <ele>110.877</ele>
        <time>2019-06-21T14:22:40Z</time>
      </trkpt>
      <trkpt lat="43.147666" lon="-9.076330">
        <ele>109.391</ele>
        <time>2019-06-21T14:22:41Z</time>
      </trkpt>
      <trkpt lat="43.147578" lon="-9.076510">
        <ele>108.983</ele>
        <time>2019-06-21T14:22:42Z</time>
      </trkpt>
      <trkpt lat="43.147498" lon="-9.076697">
        <ele>108.995</ele>
        <time>2019-06-21T14:22:43Z</time>
      </trkpt>
      <trkpt lat="43.147420" lon="-9.076871">
        <ele>108.742</ele>
        <time>2019-06-21T14:22:44Z</time>
      </trkpt>
      <trkpt lat="43.147368" lon="-9.077028">
        <ele>108.888</ele>
        <time>2019-06-21T14:22:45Z</time>
      </trkpt>
      <trkpt lat="43.147329" lon="-9.077179">
        <ele>108.792</ele>
        <time>2019-06-21T14:22:46Z</time>
      </trkpt>
      <trkpt lat="43.147307" lon="-9.077321">
        <ele>108.024</ele>
        <time>2019-06-21T14:22:47Z</time>
      </trkpt>
      <trkpt lat="43.147300" lon="-9.077457">
        <ele>107.064</ele>
        <time>2019-06-21T14:22:48Z</time>
      </trkpt>
      <trkpt lat="43.147296" lon="-9.077619">
        <ele>106.606</ele>
        <time>2019-06-21T14:22:49Z</time>
      </trkpt>
      <trkpt lat="43.147301" lon="-9.077802">
        <ele>106.316</ele>
        <time>2019-06-21T14:22:50Z</time>
      </trkpt>
      <trkpt lat="43.147305" lon="-9.078009">
        <ele>105.308</ele>
        <time>2019-06-21T14:22:51Z</time>
      </trkpt>
      <trkpt lat="43.147301" lon="-9.078222">
        <ele>104.039</ele>
        <time>2019-06-21T14:22:52Z</time>
      </trkpt>
      <trkpt lat="43.147301" lon="-9.078430">
        <ele>102.733</ele>
        <time>2019-06-21T14:22:53Z</time>
      </trkpt>
      <trkpt lat="43.147291" lon="-9.078663">
        <ele>101.885</ele>
        <time>2019-06-21T14:22:54Z</time>
      </trkpt>
      <trkpt lat="43.147287" lon="-9.078906">
        <ele>101.047</ele>
        <time>2019-06-21T14:22:55Z</time>
      </trkpt>
      <trkpt lat="43.147279" lon="-9.079140">
        <ele>100.354</ele>
        <time>2019-06-21T14:22:56Z</time>
      </trkpt>
      <trkpt lat="43.147266" lon="-9.079372">
        <ele>100.320</ele>
        <time>2019-06-21T14:22:57Z</time>
      </trkpt>
      <trkpt lat="43.147252" lon="-9.079590">
        <ele>99.944</ele>
        <time>2019-06-21T14:22:58Z</time>
      </trkpt>
      <trkpt lat="43.147237" lon="-9.079817">
        <ele>98.716</ele>
        <time>2019-06-21T14:22:59Z</time>
      </trkpt>
      <trkpt lat="43.147214" lon="-9.080053">
        <ele>96.583</ele>
        <time>2019-06-21T14:23:00Z</time>
      </trkpt>
      <trkpt lat="43.147152" lon="-9.080279">
        <ele>95.025</ele>
        <time>2019-06-21T14:23:01Z</time>
      </trkpt>
      <trkpt lat="43.147094" lon="-9.080537">
        <ele>94.417</ele>
        <time>2019-06-21T14:23:02Z</time>
      </trkpt>
      <trkpt lat="43.147033" lon="-9.080766">
        <ele>93.908</ele>
        <time>2019-06-21T14:23:03Z</time>
      </trkpt>
      <trkpt lat="43.146939" lon="-9.080981">
        <ele>93.961</ele>
        <time>2019-06-21T14:23:04Z</time>
      </trkpt>
      <trkpt lat="43.146819" lon="-9.081182">
        <ele>92.015</ele>
        <time>2019-06-21T14:23:05Z</time>
      </trkpt>
      <trkpt lat="43.146676" lon="-9.081379">
        <ele>89.167</ele>
        <time>2019-06-21T14:23:06Z</time>
      </trkpt>
      <trkpt lat="43.146531" lon="-9.081563">
        <ele>88.559</ele>
        <time>2019-06-21T14:23:07Z</time>
      </trkpt>
      <trkpt lat="43.146380" lon="-9.081741">
        <ele>87.366</ele>
        <time>2019-06-21T14:23:08Z</time>
      </trkpt>
      <trkpt lat="43.146219" lon="-9.081885">
        <ele>86.582</ele>
        <time>2019-06-21T14:23:09Z</time>
      </trkpt>
      <trkpt lat="43.146085" lon="-9.081974">
        <ele>85.746</ele>
        <time>2019-06-21T14:23:10Z</time>
      </trkpt>
      <trkpt lat="43.145899" lon="-9.082060">
        <ele>84.448</ele>
        <time>2019-06-21T14:23:11Z</time>
      </trkpt>
      <trkpt lat="43.145714" lon="-9.082151">
        <ele>82.759</ele>
        <time>2019-06-21T14:23:12Z</time>
      </trkpt>
      <trkpt lat="43.145538" lon="-9.082250">
        <ele>80.903</ele>
        <time>2019-06-21T14:23:13Z</time>
      </trkpt>
      <trkpt lat="43.145358" lon="-9.082361">
        <ele>81.423</ele>
        <time>2019-06-21T14:23:14Z</time>
      </trkpt>
      <trkpt lat="43.145199" lon="-9.082499">
        <ele>82.108</ele>
        <time>2019-06-21T14:23:15Z</time>
      </trkpt>
      <trkpt lat="43.145055" lon="-9.082644">
        <ele>83.828</ele>
        <time>2019-06-21T14:23:16Z</time>
      </trkpt>
      <trkpt lat="43.144890" lon="-9.082851">
        <ele>86.342</ele>
        <time>2019-06-21T14:23:17Z</time>
      </trkpt>
      <trkpt lat="43.144846" lon="-9.083077">
        <ele>86.764</ele>
        <time>2019-06-21T14:23:18Z</time>
      </trkpt>
      <trkpt lat="43.144747" lon="-9.083298">
        <ele>88.476</ele>
        <time>2019-06-21T14:23:19Z</time>
      </trkpt>
      <trkpt lat="43.144636" lon="-9.083522">
        <ele>88.413</ele>
        <time>2019-06-21T14:23:20Z</time>
      </trkpt>
      <trkpt lat="43.144530" lon="-9.083749">
        <ele>88.629</ele>
        <time>2019-06-21T14:23:21Z</time>
      </trkpt>
      <trkpt lat="43.144431" lon="-9.083998">
        <ele>88.343</ele>
        <time>2019-06-21T14:23:22Z</time>
      </trkpt>
      <trkpt lat="43.144320" lon="-9.084225">
        <ele>87.435</ele>
        <time>2019-06-21T14:23:23Z</time>
      </trkpt>
      <trkpt lat="43.144256" lon="-9.084412">
        <ele>87.718</ele>
        <time>2019-06-21T14:23:24Z</time>
      </trkpt>
      <trkpt lat="43.144156" lon="-9.084649">
        <ele>88.098</ele>
        <time>2019-06-21T14:23:25Z</time>
      </trkpt>
      <trkpt lat="43.144083" lon="-9.084886">
        <ele>88.017</ele>
        <time>2019-06-21T14:23:26Z</time>
      </trkpt>
      <trkpt lat="43.144021" lon="-9.085141">
        <ele>88.208</ele>
        <time>2019-06-21T14:23:27Z</time>
      </trkpt>
      <trkpt lat="43.143997" lon="-9.085395">
        <ele>88.464</ele>
        <time>2019-06-21T14:23:28Z</time>
      </trkpt>
      <trkpt lat="43.144009" lon="-9.085646">
        <ele>88.638</ele>
        <time>2019-06-21T14:23:29Z</time>
      </trkpt>
      <trkpt lat="43.143992" lon="-9.085918">
        <ele>89.150</ele>
        <time>2019-06-21T14:23:30Z</time>
      </trkpt>
      <trkpt lat="43.143983" lon="-9.086180">
        <ele>89.362</ele>
        <time>2019-06-21T14:23:31Z</time>
      </trkpt>
      <trkpt lat="43.143952" lon="-9.086447">
        <ele>89.229</ele>
        <time>2019-06-21T14:23:32Z</time>
      </trkpt>
      <trkpt lat="43.143913" lon="-9.086694">
        <ele>88.925</ele>
        <time>2019-06-21T14:23:33Z</time>
      </trkpt>
      <trkpt lat="43.143866" lon="-9.086940">
        <ele>87.079</ele>
        <time>2019-06-21T14:23:34Z</time>
      </trkpt>
      <trkpt lat="43.143803" lon="-9.087197">
        <ele>86.731</ele>
        <time>2019-06-21T14:23:35Z</time>
      </trkpt>
      <trkpt lat="43.143737" lon="-9.087439">
        <ele>86.583</ele>
        <time>2019-06-21T14:23:36Z</time>
      </trkpt>
      <trkpt lat="43.143672" lon="-9.087673">
        <ele>85.725</ele>
        <time>2019-06-21T14:23:37Z</time>
      </trkpt>
      <trkpt lat="43.143612" lon="-9.087891">
        <ele>85.017</ele>
        <time>2019-06-21T14:23:38Z</time>
      </trkpt>
      <trkpt lat="43.143560" lon="-9.088103">
        <ele>84.608</ele>
        <time>2019-06-21T14:23:39Z</time>
      </trkpt>
      <trkpt lat="43.143513" lon="-9.088301">
        <ele>83.541</ele>
        <time>2019-06-21T14:23:40Z</time>
      </trkpt>
      <trkpt lat="43.143478" lon="-9.088509">
        <ele>82.165</ele>
        <time>2019-06-21T14:23:41Z</time>
      </trkpt>
      <trkpt lat="43.143475" lon="-9.088718">
        <ele>81.197</ele>
        <time>2019-06-21T14:23:42Z</time>
      </trkpt>
      <trkpt lat="43.143482" lon="-9.088931">
        <ele>80.529</ele>
        <time>2019-06-21T14:23:43Z</time>
      </trkpt>
      <trkpt lat="43.143519" lon="-9.089148">
        <ele>80.036</ele>
        <time>2019-06-21T14:23:44Z</time>
      </trkpt>
      <trkpt lat="43.143573" lon="-9.089349">
        <ele>79.962</ele>
        <time>2019-06-21T14:23:45Z</time>
      </trkpt>
      <trkpt lat="43.143673" lon="-9.089521">
        <ele>79.416</ele>
        <time>2019-06-21T14:23:46Z</time>
      </trkpt>
      <trkpt lat="43.143780" lon="-9.089691">
        <ele>78.218</ele>
        <time>2019-06-21T14:23:47Z</time>
      </trkpt>
      <trkpt lat="43.143885" lon="-9.089855">
        <ele>77.074</ele>
        <time>2019-06-21T14:23:48Z</time>
      </trkpt>
      <trkpt lat="43.143988" lon="-9.090030">
        <ele>74.856</ele>
        <time>2019-06-21T14:23:49Z</time>
      </trkpt>
      <trkpt lat="43.144101" lon="-9.090191">
        <ele>71.621</ele>
        <time>2019-06-21T14:23:50Z</time>
      </trkpt>
      <trkpt lat="43.144191" lon="-9.090375">
        <ele>68.208</ele>
        <time>2019-06-21T14:23:51Z</time>
      </trkpt>
      <trkpt lat="43.144249" lon="-9.090564">
        <ele>64.960</ele>
        <time>2019-06-21T14:23:52Z</time>
      </trkpt>
      <trkpt lat="43.144289" lon="-9.090758">
        <ele>62.784</ele>
        <time>2019-06-21T14:23:53Z</time>
      </trkpt>
      <trkpt lat="43.144330" lon="-9.090953">
        <ele>61.886</ele>
        <time>2019-06-21T14:23:54Z</time>
      </trkpt>
      <trkpt lat="43.144329" lon="-9.091173">
        <ele>61.388</ele>
        <time>2019-06-21T14:23:55Z</time>
      </trkpt>
      <trkpt lat="43.144302" lon="-9.091396">
        <ele>60.465</ele>
        <time>2019-06-21T14:23:56Z</time>
      </trkpt>
      <trkpt lat="43.144237" lon="-9.091613">
        <ele>59.031</ele>
        <time>2019-06-21T14:23:57Z</time>
      </trkpt>
      <trkpt lat="43.144159" lon="-9.091842">
        <ele>57.585</ele>
        <time>2019-06-21T14:23:58Z</time>
      </trkpt>
      <trkpt lat="43.144063" lon="-9.092057">
        <ele>56.557</ele>
        <time>2019-06-21T14:23:59Z</time>
      </trkpt>
      <trkpt lat="43.143976" lon="-9.092279">
        <ele>55.676</ele>
        <time>2019-06-21T14:24:00Z</time>
      </trkpt>
      <trkpt lat="43.143888" lon="-9.092495">
        <ele>54.090</ele>
        <time>2019-06-21T14:24:01Z</time>
      </trkpt>
      <trkpt lat="43.143791" lon="-9.092714">
        <ele>52.319</ele>
        <time>2019-06-21T14:24:02Z</time>
      </trkpt>
      <trkpt lat="43.143720" lon="-9.092890">
        <ele>51.008</ele>
        <time>2019-06-21T14:24:03Z</time>
      </trkpt>
      <trkpt lat="43.143638" lon="-9.093103">
        <ele>50.350</ele>
        <time>2019-06-21T14:24:04Z</time>
      </trkpt>
      <trkpt lat="43.143563" lon="-9.093293">
        <ele>49.634</ele>
        <time>2019-06-21T14:24:05Z</time>
      </trkpt>
      <trkpt lat="43.143481" lon="-9.093488">
        <ele>49.196</ele>
        <time>2019-06-21T14:24:06Z</time>
      </trkpt>
      <trkpt lat="43.143397" lon="-9.093681">
        <ele>48.538</ele>
        <time>2019-06-21T14:24:07Z</time>
      </trkpt>
      <trkpt lat="43.143310" lon="-9.093868">
        <ele>47.785</ele>
        <time>2019-06-21T14:24:08Z</time>
      </trkpt>
      <trkpt lat="43.143233" lon="-9.094051">
        <ele>46.691</ele>
        <time>2019-06-21T14:24:09Z</time>
      </trkpt>
      <trkpt lat="43.143154" lon="-9.094222">
        <ele>45.515</ele>
        <time>2019-06-21T14:24:10Z</time>
      </trkpt>
      <trkpt lat="43.143076" lon="-9.094402">
        <ele>45.197</ele>
        <time>2019-06-21T14:24:11Z</time>
      </trkpt>
      <trkpt lat="43.142992" lon="-9.094606">
        <ele>43.949</ele>
        <time>2019-06-21T14:24:12Z</time>
      </trkpt>
      <trkpt lat="43.142889" lon="-9.094793">
        <ele>43.602</ele>
        <time>2019-06-21T14:24:13Z</time>
      </trkpt>
      <trkpt lat="43.142785" lon="-9.094983">
        <ele>43.922</ele>
        <time>2019-06-21T14:24:14Z</time>
      </trkpt>
      <trkpt lat="43.142682" lon="-9.095071">
        <ele>43.708</ele>
        <time>2019-06-21T14:24:15Z</time>
      </trkpt>
      <trkpt lat="43.142544" lon="-9.095225">
        <ele>43.867</ele>
        <time>2019-06-21T14:24:16Z</time>
      </trkpt>
      <trkpt lat="43.142376" lon="-9.095352">
        <ele>43.631</ele>
        <time>2019-06-21T14:24:17Z</time>
      </trkpt>
      <trkpt lat="43.142213" lon="-9.095480">
        <ele>43.863</ele>
        <time>2019-06-21T14:24:18Z</time>
      </trkpt>
      <trkpt lat="43.142071" lon="-9.095638">
        <ele>42.845</ele>
        <time>2019-06-21T14:24:19Z</time>
      </trkpt>
      <trkpt lat="43.141929" lon="-9.095791">
        <ele>40.572</ele>
        <time>2019-06-21T14:24:20Z</time>
      </trkpt>
      <trkpt lat="43.141804" lon="-9.095979">
        <ele>38.528</ele>
        <time>2019-06-21T14:24:21Z</time>
      </trkpt>
      <trkpt lat="43.141721" lon="-9.096189">
        <ele>37.492</ele>
        <time>2019-06-21T14:24:22Z</time>
      </trkpt>
      <trkpt lat="43.141663" lon="-9.096428">
        <ele>37.184</ele>
        <time>2019-06-21T14:24:23Z</time>
      </trkpt>
      <trkpt lat="43.141614" lon="-9.096684">
        <ele>37.246</ele>
        <time>2019-06-21T14:24:24Z</time>
      </trkpt>
      <trkpt lat="43.141559" lon="-9.096949">
        <ele>36.588</ele>
        <time>2019-06-21T14:24:25Z</time>
      </trkpt>
      <trkpt lat="43.141481" lon="-9.097203">
        <ele>37.216</ele>
        <time>2019-06-21T14:24:26Z</time>
      </trkpt>
      <trkpt lat="43.141408" lon="-9.097459">
        <ele>36.308</ele>
        <time>2019-06-21T14:24:27Z</time>
      </trkpt>
      <trkpt lat="43.141301" lon="-9.097701">
        <ele>34.717</ele>
        <time>2019-06-21T14:24:28Z</time>
      </trkpt>
      <trkpt lat="43.141183" lon="-9.097945">
        <ele>33.991</ele>
        <time>2019-06-21T14:24:29Z</time>
      </trkpt>
      <trkpt lat="43.141068" lon="-9.098182">
        <ele>35.453</ele>
        <time>2019-06-21T14:24:30Z</time>
      </trkpt>
      <trkpt lat="43.140904" lon="-9.098370">
        <ele>37.465</ele>
        <time>2019-06-21T14:24:31Z</time>
      </trkpt>
      <trkpt lat="43.140736" lon="-9.098568">
        <ele>39.562</ele>
        <time>2019-06-21T14:24:32Z</time>
      </trkpt>
      <trkpt lat="43.140630" lon="-9.098742">
        <ele>41.158</ele>
        <time>2019-06-21T14:24:33Z</time>
      </trkpt>
      <trkpt lat="43.140529" lon="-9.098953">
        <ele>41.812</ele>
        <time>2019-06-21T14:24:34Z</time>
      </trkpt>
      <trkpt lat="43.140443" lon="-9.099169">
        <ele>41.474</ele>
        <time>2019-06-21T14:24:35Z</time>
      </trkpt>
      <trkpt lat="43.140376" lon="-9.099413">
        <ele>41.644</ele>
        <time>2019-06-21T14:24:36Z</time>
      </trkpt>
      <trkpt lat="43.140319" lon="-9.099675">
        <ele>42.305</ele>
        <time>2019-06-21T14:24:37Z</time>
      </trkpt>
      <trkpt lat="43.140262" lon="-9.099937">
        <ele>43.415</ele>
        <time>2019-06-21T14:24:38Z</time>
      </trkpt>
      <trkpt lat="43.140216" lon="-9.100193">
        <ele>44.708</ele>
        <time>2019-06-21T14:24:39Z</time>
      </trkpt>
      <trkpt lat="43.140155" lon="-9.100469">
        <ele>46.167</ele>
        <time>2019-06-21T14:24:40Z</time>
      </trkpt>
      <trkpt lat="43.140109" lon="-9.100746">
        <ele>47.541</ele>
        <time>2019-06-21T14:24:41Z</time>
      </trkpt>
      <trkpt lat="43.140053" lon="-9.101012">
        <ele>48.563</ele>
        <time>2019-06-21T14:24:42Z</time>
      </trkpt>
      <trkpt lat="43.139996" lon="-9.101264">
        <ele>49.155</ele>
        <time>2019-06-21T14:24:43Z</time>
      </trkpt>
      <trkpt lat="43.139946" lon="-9.101526">
        <ele>50.362</ele>
        <time>2019-06-21T14:24:44Z</time>
      </trkpt>
      <trkpt lat="43.139897" lon="-9.101767">
        <ele>51.128</ele>
        <time>2019-06-21T14:24:45Z</time>
      </trkpt>
      <trkpt lat="43.139852" lon="-9.102014">
        <ele>51.682</ele>
        <time>2019-06-21T14:24:46Z</time>
      </trkpt>
      <trkpt lat="43.139791" lon="-9.102273">
        <ele>51.494</ele>
        <time>2019-06-21T14:24:47Z</time>
      </trkpt>
      <trkpt lat="43.139738" lon="-9.102517">
        <ele>51.421</ele>
        <time>2019-06-21T14:24:48Z</time>
      </trkpt>
      <trkpt lat="43.139686" lon="-9.102770">
        <ele>53.941</ele>
        <time>2019-06-21T14:24:49Z</time>
      </trkpt>
      <trkpt lat="43.139634" lon="-9.103022">
        <ele>53.705</ele>
        <time>2019-06-21T14:24:50Z</time>
      </trkpt>
      <trkpt lat="43.139584" lon="-9.103255">
        <ele>54.408</ele>
        <time>2019-06-21T14:24:51Z</time>
      </trkpt>
      <trkpt lat="43.139556" lon="-9.103464">
        <ele>54.645</ele>
        <time>2019-06-21T14:24:52Z</time>
      </trkpt>
      <trkpt lat="43.139517" lon="-9.103680">
        <ele>55.189</ele>
        <time>2019-06-21T14:24:53Z</time>
      </trkpt>
      <trkpt lat="43.139488" lon="-9.103904">
        <ele>56.191</ele>
        <time>2019-06-21T14:24:54Z</time>
      </trkpt>
      <trkpt lat="43.139470" lon="-9.104119">
        <ele>56.873</ele>
        <time>2019-06-21T14:24:55Z</time>
      </trkpt>
      <trkpt lat="43.139473" lon="-9.104331">
        <ele>56.510</ele>
        <time>2019-06-21T14:24:56Z</time>
      </trkpt>
      <trkpt lat="43.139488" lon="-9.104542">
        <ele>55.856</ele>
        <time>2019-06-21T14:24:57Z</time>
      </trkpt>
      <trkpt lat="43.139536" lon="-9.104739">
        <ele>55.240</ele>
        <time>2019-06-21T14:24:58Z</time>
      </trkpt>
      <trkpt lat="43.139596" lon="-9.104932">
        <ele>54.492</ele>
        <time>2019-06-21T14:24:59Z</time>
      </trkpt>
      <trkpt lat="43.139673" lon="-9.105125">
        <ele>53.054</ele>
        <time>2019-06-21T14:25:00Z</time>
      </trkpt>
      <trkpt lat="43.139800" lon="-9.105305">
        <ele>51.856</ele>
        <time>2019-06-21T14:25:01Z</time>
      </trkpt>
      <trkpt lat="43.139951" lon="-9.105466">
        <ele>48.911</ele>
        <time>2019-06-21T14:25:02Z</time>
      </trkpt>
      <trkpt lat="43.140108" lon="-9.105616">
        <ele>45.708</ele>
        <time>2019-06-21T14:25:03Z</time>
      </trkpt>
      <trkpt lat="43.140279" lon="-9.105756">
        <ele>43.798</ele>
        <time>2019-06-21T14:25:04Z</time>
      </trkpt>
      <trkpt lat="43.140458" lon="-9.105911">
        <ele>44.462</ele>
        <time>2019-06-21T14:25:05Z</time>
      </trkpt>
      <trkpt lat="43.140676" lon="-9.106053">
        <ele>47.164</ele>
        <time>2019-06-21T14:25:06Z</time>
      </trkpt>
      <trkpt lat="43.140868" lon="-9.106215">
        <ele>46.796</ele>
        <time>2019-06-21T14:25:07Z</time>
      </trkpt>
      <trkpt lat="43.141057" lon="-9.106384">
        <ele>44.533</ele>
        <time>2019-06-21T14:25:08Z</time>
      </trkpt>
      <trkpt lat="43.141211" lon="-9.106535">
        <ele>42.619</ele>
        <time>2019-06-21T14:25:09Z</time>
      </trkpt>
      <trkpt lat="43.141382" lon="-9.106680">
        <ele>41.623</ele>
        <time>2019-06-21T14:25:10Z</time>
      </trkpt>
      <trkpt lat="43.141567" lon="-9.106821">
        <ele>41.465</ele>
        <time>2019-06-21T14:25:11Z</time>
      </trkpt>
      <trkpt lat="43.141746" lon="-9.106973">
        <ele>41.631</ele>
        <time>2019-06-21T14:25:12Z</time>
      </trkpt>
      <trkpt lat="43.141925" lon="-9.107119">
        <ele>41.261</ele>
        <time>2019-06-21T14:25:13Z</time>
      </trkpt>
      <trkpt lat="43.142059" lon="-9.107280">
        <ele>39.607</ele>
        <time>2019-06-21T14:25:14Z</time>
      </trkpt>
      <trkpt lat="43.142208" lon="-9.107436">
        <ele>39.608</ele>
        <time>2019-06-21T14:25:15Z</time>
      </trkpt>
      <trkpt lat="43.142312" lon="-9.107640">
        <ele>36.546</ele>
        <time>2019-06-21T14:25:16Z</time>
      </trkpt>
      <trkpt lat="43.142420" lon="-9.107843">
        <ele>34.250</ele>
        <time>2019-06-21T14:25:17Z</time>
      </trkpt>
      <trkpt lat="43.142514" lon="-9.108072">
        <ele>34.112</ele>
        <time>2019-06-21T14:25:18Z</time>
      </trkpt>
      <trkpt lat="43.142577" lon="-9.108319">
        <ele>34.724</ele>
        <time>2019-06-21T14:25:19Z</time>
      </trkpt>
      <trkpt lat="43.142638" lon="-9.108576">
        <ele>35.591</ele>
        <time>2019-06-21T14:25:20Z</time>
      </trkpt>
      <trkpt lat="43.142582" lon="-9.108829">
        <ele>33.987</ele>
        <time>2019-06-21T14:25:21Z</time>
      </trkpt>
      <trkpt lat="43.142541" lon="-9.109069">
        <ele>31.741</ele>
        <time>2019-06-21T14:25:22Z</time>
      </trkpt>
      <trkpt lat="43.142479" lon="-9.109290">
        <ele>29.963</ele>
        <time>2019-06-21T14:25:23Z</time>
      </trkpt>
      <trkpt lat="43.142393" lon="-9.109519">
        <ele>29.819</ele>
        <time>2019-06-21T14:25:24Z</time>
      </trkpt>
      <trkpt lat="43.142288" lon="-9.109743">
        <ele>29.509</ele>
        <time>2019-06-21T14:25:25Z</time>
      </trkpt>
      <trkpt lat="43.142188" lon="-9.109968">
        <ele>29.419</ele>
        <time>2019-06-21T14:25:26Z</time>
      </trkpt>
      <trkpt lat="43.142059" lon="-9.110197">
        <ele>29.208</ele>
        <time>2019-06-21T14:25:27Z</time>
      </trkpt>
      <trkpt lat="43.141955" lon="-9.110422">
        <ele>29.194</ele>
        <time>2019-06-21T14:25:28Z</time>
      </trkpt>
      <trkpt lat="43.141848" lon="-9.110654">
        <ele>27.778</ele>
        <time>2019-06-21T14:25:29Z</time>
      </trkpt>
      <trkpt lat="43.141741" lon="-9.110864">
        <ele>26.550</ele>
        <time>2019-06-21T14:25:30Z</time>
      </trkpt>
      <trkpt lat="43.141651" lon="-9.111051">
        <ele>25.982</ele>
        <time>2019-06-21T14:25:31Z</time>
      </trkpt>
      <trkpt lat="43.141544" lon="-9.111235">
        <ele>25.689</ele>
        <time>2019-06-21T14:25:32Z</time>
      </trkpt>
      <trkpt lat="43.141460" lon="-9.111398">
        <ele>25.585</ele>
        <time>2019-06-21T14:25:33Z</time>
      </trkpt>
      <trkpt lat="43.141377" lon="-9.111557">
        <ele>24.999</ele>
        <time>2019-06-21T14:25:34Z</time>
      </trkpt>
      <trkpt lat="43.141295" lon="-9.111722">
        <ele>24.211</ele>
        <time>2019-06-21T14:25:35Z</time>
      </trkpt>
      <trkpt lat="43.141207" lon="-9.111886">
        <ele>23.421</ele>
        <time>2019-06-21T14:25:36Z</time>
      </trkpt>
      <trkpt lat="43.141108" lon="-9.112051">
        <ele>22.241</ele>
        <time>2019-06-21T14:25:37Z</time>
      </trkpt>
      <trkpt lat="43.141004" lon="-9.112223">
        <ele>21.405</ele>
        <time>2019-06-21T14:25:38Z</time>
      </trkpt>
      <trkpt lat="43.140914" lon="-9.112380">
        <ele>21.108</ele>
        <time>2019-06-21T14:25:39Z</time>
      </trkpt>
      <trkpt lat="43.140820" lon="-9.112530">
        <ele>20.945</ele>
        <time>2019-06-21T14:25:40Z</time>
      </trkpt>
      <trkpt lat="43.140709" lon="-9.112702">
        <ele>20.369</ele>
        <time>2019-06-21T14:25:41Z</time>
      </trkpt>
      <trkpt lat="43.140601" lon="-9.112865">
        <ele>19.721</ele>
        <time>2019-06-21T14:25:42Z</time>
      </trkpt>
      <trkpt lat="43.140492" lon="-9.113033">
        <ele>19.153</ele>
        <time>2019-06-21T14:25:43Z</time>
      </trkpt>
      <trkpt lat="43.140387" lon="-9.113193">
        <ele>18.270</ele>
        <time>2019-06-21T14:25:44Z</time>
      </trkpt>
      <trkpt lat="43.140280" lon="-9.113374">
        <ele>16.996</ele>
        <time>2019-06-21T14:25:45Z</time>
      </trkpt>
      <trkpt lat="43.140176" lon="-9.113539">
        <ele>15.530</ele>
        <time>2019-06-21T14:25:46Z</time>
      </trkpt>
      <trkpt lat="43.140086" lon="-9.113692">
        <ele>14.452</ele>
        <time>2019-06-21T14:25:47Z</time>
      </trkpt>
      <trkpt lat="43.139991" lon="-9.113853">
        <ele>14.031</ele>
        <time>2019-06-21T14:25:48Z</time>
      </trkpt>
      <trkpt lat="43.139897" lon="-9.113997">
        <ele>13.661</ele>
        <time>2019-06-21T14:25:49Z</time>
      </trkpt>
      <trkpt lat="43.139829" lon="-9.114130">
        <ele>13.107</ele>
        <time>2019-06-21T14:25:50Z</time>
      </trkpt>
      <trkpt lat="43.139743" lon="-9.114252">
        <ele>12.708</ele>
        <time>2019-06-21T14:25:51Z</time>
      </trkpt>
      <trkpt lat="43.139626" lon="-9.114407">
        <ele>12.126</ele>
        <time>2019-06-21T14:25:52Z</time>
      </trkpt>
      <trkpt lat="43.139527" lon="-9.114564">
        <ele>11.310</ele>
        <time>2019-06-21T14:25:53Z</time>
      </trkpt>
      <trkpt lat="43.139427" lon="-9.114723">
        <ele>9.992</ele>
        <time>2019-06-21T14:25:54Z</time>
      </trkpt>
      <trkpt lat="43.139313" lon="-9.114880">
        <ele>8.784</ele>
        <time>2019-06-21T14:25:55Z</time>
      </trkpt>
      <trkpt lat="43.139209" lon="-9.115026">
        <ele>8.081</ele>
        <time>2019-06-21T14:25:56Z</time>
      </trkpt>
      <trkpt lat="43.139114" lon="-9.115156">
        <ele>7.987</ele>
        <time>2019-06-21T14:25:57Z</time>
      </trkpt>
      <trkpt lat="43.139013" lon="-9.115291">
        <ele>7.581</ele>
        <time>2019-06-21T14:25:58Z</time>
      </trkpt>
      <trkpt lat="43.138915" lon="-9.115422">
        <ele>7.523</ele>
        <time>2019-06-21T14:25:59Z</time>
      </trkpt>
      <trkpt lat="43.138821" lon="-9.115560">
        <ele>8.029</ele>
        <time>2019-06-21T14:26:00Z</time>
      </trkpt>
      <trkpt lat="43.138726" lon="-9.115647">
        <ele>8.400</ele>
        <time>2019-06-21T14:26:01Z</time>
      </trkpt>
      <trkpt lat="43.138633" lon="-9.115734">
        <ele>9.220</ele>
        <time>2019-06-21T14:26:02Z</time>
      </trkpt>
      <trkpt lat="43.138564" lon="-9.115785">
        <ele>9.708</ele>
        <time>2019-06-21T14:26:03Z</time>
      </trkpt>
      <trkpt lat="43.138467" lon="-9.115856">
        <ele>10.225</ele>
        <time>2019-06-21T14:26:04Z</time>
      </trkpt>
      <trkpt lat="43.138339" lon="-9.115820">
        <ele>9.949</ele>
        <time>2019-06-21T14:26:05Z</time>
      </trkpt>
      <trkpt lat="43.138238" lon="-9.115854">
        <ele>9.821</ele>
        <time>2019-06-21T14:26:06Z</time>
      </trkpt>
      <trkpt lat="43.138122" lon="-9.115912">
        <ele>9.893</ele>
        <time>2019-06-21T14:26:07Z</time>
      </trkpt>
      <trkpt lat="43.138038" lon="-9.115944">
        <ele>9.860</ele>
        <time>2019-06-21T14:26:08Z</time>
      </trkpt>
      <trkpt lat="43.137942" lon="-9.115985">
        <ele>10.156</ele>
        <time>2019-06-21T14:26:09Z</time>
      </trkpt>
      <trkpt lat="43.137850" lon="-9.116040">
        <ele>10.550</ele>
        <time>2019-06-21T14:26:10Z</time>
      </trkpt>
      <trkpt lat="43.137770" lon="-9.116110">
        <ele>11.072</ele>
        <time>2019-06-21T14:26:11Z</time>
      </trkpt>
      <trkpt lat="43.137727" lon="-9.116254">
        <ele>11.993</ele>
        <time>2019-06-21T14:26:12Z</time>
      </trkpt>
      <trkpt lat="43.137665" lon="-9.116410">
        <ele>12.665</ele>
        <time>2019-06-21T14:26:13Z</time>
      </trkpt>
      <trkpt lat="43.137600" lon="-9.116500">
        <ele>12.521</ele>
        <time>2019-06-21T14:26:14Z</time>
      </trkpt>
      <trkpt lat="43.137546" lon="-9.116614">
        <ele>12.308</ele>
        <time>2019-06-21T14:26:15Z</time>
      </trkpt>
      <trkpt lat="43.137535" lon="-9.116735">
        <ele>12.742</ele>
        <time>2019-06-21T14:26:16Z</time>
      </trkpt>
      <trkpt lat="43.137541" lon="-9.116850">
        <ele>13.576</ele>
        <time>2019-06-21T14:26:17Z</time>
      </trkpt>
      <trkpt lat="43.137523" lon="-9.116942">
        <ele>14.138</ele>
        <time>2019-06-21T14:26:18Z</time>
      </trkpt>
      <trkpt lat="43.137535" lon="-9.117068">
        <ele>14.550</ele>
        <time>2019-06-21T14:26:19Z</time>
      </trkpt>
      <trkpt lat="43.137555" lon="-9.117179">
        <ele>14.717</ele>
        <time>2019-06-21T14:26:20Z</time>
      </trkpt>
      <trkpt lat="43.137652" lon="-9.117267">
        <ele>14.343</ele>
        <time>2019-06-21T14:26:21Z</time>
      </trkpt>
      <trkpt lat="43.137709" lon="-9.117311">
        <ele>13.917</ele>
        <time>2019-06-21T14:26:22Z</time>
      </trkpt>
      <trkpt lat="43.137764" lon="-9.117371">
        <ele>13.529</ele>
        <time>2019-06-21T14:26:23Z</time>
      </trkpt>
      <trkpt lat="43.137814" lon="-9.117456">
        <ele>12.952</ele>
        <time>2019-06-21T14:26:24Z</time>
      </trkpt>
      <trkpt lat="43.137871" lon="-9.117553">
        <ele>12.253</ele>
        <time>2019-06-21T14:26:25Z</time>
      </trkpt>
      <trkpt lat="43.137943" lon="-9.117662">
        <ele>11.608</ele>
        <time>2019-06-21T14:26:26Z</time>
      </trkpt>
      <trkpt lat="43.138025" lon="-9.117797">
        <ele>11.108</ele>
        <time>2019-06-21T14:26:27Z</time>
      </trkpt>
      <trkpt lat="43.138111" lon="-9.117953">
        <ele>10.868</ele>
        <time>2019-06-21T14:26:28Z</time>
      </trkpt>
      <trkpt lat="43.138224" lon="-9.118124">
        <ele>10.582</ele>
        <time>2019-06-21T14:26:29Z</time>
      </trkpt>
      <trkpt lat="43.138313" lon="-9.118317">
        <ele>10.914</ele>
        <time>2019-06-21T14:26:30Z</time>
      </trkpt>
      <trkpt lat="43.138389" lon="-9.118506">
        <ele>10.916</ele>
        <time>2019-06-21T14:26:31Z</time>
      </trkpt>
      <trkpt lat="43.138458" lon="-9.118728">
        <ele>10.313</ele>
        <time>2019-06-21T14:26:32Z</time>
      </trkpt>
      <trkpt lat="43.138515" lon="-9.118962">
        <ele>9.729</ele>
        <time>2019-06-21T14:26:33Z</time>
      </trkpt>
      <trkpt lat="43.138552" lon="-9.119205">
        <ele>9.093</ele>
        <time>2019-06-21T14:26:34Z</time>
      </trkpt>
      <trkpt lat="43.138586" lon="-9.119465">
        <ele>9.195</ele>
        <time>2019-06-21T14:26:35Z</time>
      </trkpt>
      <trkpt lat="43.138615" lon="-9.119717">
        <ele>10.013</ele>
        <time>2019-06-21T14:26:36Z</time>
      </trkpt>
      <trkpt lat="43.138653" lon="-9.119956">
        <ele>10.743</ele>
        <time>2019-06-21T14:26:37Z</time>
      </trkpt>
      <trkpt lat="43.138689" lon="-9.120206">
        <ele>11.507</ele>
        <time>2019-06-21T14:26:38Z</time>
      </trkpt>
      <trkpt lat="43.138707" lon="-9.120439">
        <ele>12.408</ele>
        <time>2019-06-21T14:26:39Z</time>
      </trkpt>
      <trkpt lat="43.138720" lon="-9.120682">
        <ele>13.074</ele>
        <time>2019-06-21T14:26:40Z</time>
      </trkpt>
      <trkpt lat="43.138683" lon="-9.120901">
        <ele>13.038</ele>
        <time>2019-06-21T14:26:41Z</time>
      </trkpt>
      <trkpt lat="43.138645" lon="-9.121141">
        <ele>13.170</ele>
        <time>2019-06-21T14:26:42Z</time>
      </trkpt>
      <trkpt lat="43.138578" lon="-9.121378">
        <ele>14.042</ele>
        <time>2019-06-21T14:26:43Z</time>
      </trkpt>
      <trkpt lat="43.138497" lon="-9.121627">
        <ele>15.259</ele>
        <time>2019-06-21T14:26:44Z</time>
      </trkpt>
      <trkpt lat="43.138427" lon="-9.121872">
        <ele>16.925</ele>
        <time>2019-06-21T14:26:45Z</time>
      </trkpt>
      <trkpt lat="43.138354" lon="-9.122113">
        <ele>19.029</ele>
        <time>2019-06-21T14:26:46Z</time>
      </trkpt>
      <trkpt lat="43.138285" lon="-9.122358">
        <ele>21.241</ele>
        <time>2019-06-21T14:26:47Z</time>
      </trkpt>
      <trkpt lat="43.138213" lon="-9.122598">
        <ele>22.888</ele>
        <time>2019-06-21T14:26:48Z</time>
      </trkpt>
      <trkpt lat="43.138140" lon="-9.122835">
        <ele>23.324</ele>
        <time>2019-06-21T14:26:49Z</time>
      </trkpt>
      <trkpt lat="43.138071" lon="-9.123088">
        <ele>23.026</ele>
        <time>2019-06-21T14:26:50Z</time>
      </trkpt>
      <trkpt lat="43.138001" lon="-9.123346">
        <ele>23.008</ele>
        <time>2019-06-21T14:26:51Z</time>
      </trkpt>
      <trkpt lat="43.137932" lon="-9.123597">
        <ele>23.911</ele>
        <time>2019-06-21T14:26:52Z</time>
      </trkpt>
      <trkpt lat="43.137850" lon="-9.123859">
        <ele>24.965</ele>
        <time>2019-06-21T14:26:53Z</time>
      </trkpt>
      <trkpt lat="43.137767" lon="-9.124128">
        <ele>25.867</ele>
        <time>2019-06-21T14:26:54Z</time>
      </trkpt>
      <trkpt lat="43.137692" lon="-9.124374">
        <ele>25.749</ele>
        <time>2019-06-21T14:26:55Z</time>
      </trkpt>
      <trkpt lat="43.137620" lon="-9.124639">
        <ele>25.496</ele>
        <time>2019-06-21T14:26:56Z</time>
      </trkpt>
      <trkpt lat="43.137540" lon="-9.124896">
        <ele>25.132</ele>
        <time>2019-06-21T14:26:57Z</time>
      </trkpt>
      <trkpt lat="43.137473" lon="-9.125155">
        <ele>24.856</ele>
        <time>2019-06-21T14:26:58Z</time>
      </trkpt>
      <trkpt lat="43.137402" lon="-9.125419">
        <ele>24.888</ele>
        <time>2019-06-21T14:26:59Z</time>
      </trkpt>
      <trkpt lat="43.137320" lon="-9.125687">
        <ele>25.561</ele>
        <time>2019-06-21T14:27:00Z</time>
      </trkpt>
      <trkpt lat="43.137239" lon="-9.125955">
        <ele>26.121</ele>
        <time>2019-06-21T14:27:01Z</time>
      </trkpt>
      <trkpt lat="43.137162" lon="-9.126220">
        <ele>25.613</ele>
        <time>2019-06-21T14:27:02Z</time>
      </trkpt>
      <trkpt lat="43.137079" lon="-9.126486">
        <ele>24.608</ele>
        <time>2019-06-21T14:27:03Z</time>
      </trkpt>
      <trkpt lat="43.137005" lon="-9.126743">
        <ele>23.159</ele>
        <time>2019-06-21T14:27:04Z</time>
      </trkpt>
      <trkpt lat="43.136932" lon="-9.126985">
        <ele>21.933</ele>
        <time>2019-06-21T14:27:05Z</time>
      </trkpt>
      <trkpt lat="43.136864" lon="-9.127230">
        <ele>21.025</ele>
        <time>2019-06-21T14:27:06Z</time>
      </trkpt>
      <trkpt lat="43.136794" lon="-9.127462">
        <ele>20.197</ele>
        <time>2019-06-21T14:27:07Z</time>
      </trkpt>
      <trkpt lat="43.136730" lon="-9.127684">
        <ele>20.294</ele>
        <time>2019-06-21T14:27:08Z</time>
      </trkpt>
      <trkpt lat="43.136677" lon="-9.127896">
        <ele>20.170</ele>
        <time>2019-06-21T14:27:09Z</time>
      </trkpt>
      <trkpt lat="43.136634" lon="-9.128117">
        <ele>20.144</ele>
        <time>2019-06-21T14:27:10Z</time>
      </trkpt>
      <trkpt lat="43.136616" lon="-9.128357">
        <ele>20.896</ele>
        <time>2019-06-21T14:27:11Z</time>
      </trkpt>
      <trkpt lat="43.136608" lon="-9.128607">
        <ele>20.812</ele>
        <time>2019-06-21T14:27:12Z</time>
      </trkpt>
      <trkpt lat="43.136633" lon="-9.128863">
        <ele>20.932</ele>
        <time>2019-06-21T14:27:13Z</time>
      </trkpt>
      <trkpt lat="43.136660" lon="-9.129114">
        <ele>20.205</ele>
        <time>2019-06-21T14:27:14Z</time>
      </trkpt>
      <trkpt lat="43.136725" lon="-9.129342">
        <ele>19.408</ele>
        <time>2019-06-21T14:27:15Z</time>
      </trkpt>
      <trkpt lat="43.136827" lon="-9.129564">
        <ele>18.494</ele>
        <time>2019-06-21T14:27:16Z</time>
      </trkpt>
      <trkpt lat="43.136942" lon="-9.129776">
        <ele>17.478</ele>
        <time>2019-06-21T14:27:17Z</time>
      </trkpt>
      <trkpt lat="43.137059" lon="-9.129992">
        <ele>15.120</ele>
        <time>2019-06-21T14:27:18Z</time>
      </trkpt>
      <trkpt lat="43.137191" lon="-9.130204">
        <ele>13.482</ele>
        <time>2019-06-21T14:27:19Z</time>
      </trkpt>
      <trkpt lat="43.137330" lon="-9.130415">
        <ele>12.029</ele>
        <time>2019-06-21T14:27:20Z</time>
      </trkpt>
      <trkpt lat="43.137455" lon="-9.130640">
        <ele>10.675</ele>
        <time>2019-06-21T14:27:21Z</time>
      </trkpt>
      <trkpt lat="43.137575" lon="-9.130869">
        <ele>10.439</ele>
        <time>2019-06-21T14:27:22Z</time>
      </trkpt>
      <trkpt lat="43.137660" lon="-9.131120">
        <ele>9.531</ele>
        <time>2019-06-21T14:27:23Z</time>
      </trkpt>
      <trkpt lat="43.137721" lon="-9.131380">
        <ele>8.661</ele>
        <time>2019-06-21T14:27:24Z</time>
      </trkpt>
      <trkpt lat="43.137756" lon="-9.131644">
        <ele>8.821</ele>
        <time>2019-06-21T14:27:25Z</time>
      </trkpt>
      <trkpt lat="43.137773" lon="-9.131910">
        <ele>9.013</ele>
        <time>2019-06-21T14:27:26Z</time>
      </trkpt>
      <trkpt lat="43.137762" lon="-9.132188">
        <ele>9.808</ele>
        <time>2019-06-21T14:27:27Z</time>
      </trkpt>
      <trkpt lat="43.137733" lon="-9.132467">
        <ele>11.229</ele>
        <time>2019-06-21T14:27:28Z</time>
      </trkpt>
      <trkpt lat="43.137699" lon="-9.132767">
        <ele>11.833</ele>
        <time>2019-06-21T14:27:29Z</time>
      </trkpt>
      <trkpt lat="43.137652" lon="-9.133059">
        <ele>12.255</ele>
        <time>2019-06-21T14:27:30Z</time>
      </trkpt>
      <trkpt lat="43.137602" lon="-9.133370">
        <ele>13.017</ele>
        <time>2019-06-21T14:27:31Z</time>
      </trkpt>
      <trkpt lat="43.137544" lon="-9.133689">
        <ele>12.764</ele>
        <time>2019-06-21T14:27:32Z</time>
      </trkpt>
      <trkpt lat="43.137503" lon="-9.133984">
        <ele>11.730</ele>
        <time>2019-06-21T14:27:33Z</time>
      </trkpt>
      <trkpt lat="43.137460" lon="-9.134291">
        <ele>10.634</ele>
        <time>2019-06-21T14:27:34Z</time>
      </trkpt>
      <trkpt lat="43.137417" lon="-9.134584">
        <ele>10.376</ele>
        <time>2019-06-21T14:27:35Z</time>
      </trkpt>
      <trkpt lat="43.137369" lon="-9.134911">
        <ele>10.489</ele>
        <time>2019-06-21T14:27:36Z</time>
      </trkpt>
      <trkpt lat="43.137322" lon="-9.135232">
        <ele>10.306</ele>
        <time>2019-06-21T14:27:37Z</time>
      </trkpt>
      <trkpt lat="43.137280" lon="-9.135540">
        <ele>10.226</ele>
        <time>2019-06-21T14:27:38Z</time>
      </trkpt>
      <trkpt lat="43.137227" lon="-9.135852">
        <ele>10.108</ele>
        <time>2019-06-21T14:27:39Z</time>
      </trkpt>
      <trkpt lat="43.137177" lon="-9.136148">
        <ele>10.861</ele>
        <time>2019-06-21T14:27:40Z</time>
      </trkpt>
      <trkpt lat="43.137122" lon="-9.136458">
        <ele>11.885</ele>
        <time>2019-06-21T14:27:41Z</time>
      </trkpt>
      <trkpt lat="43.137049" lon="-9.136763">
        <ele>12.977</ele>
        <time>2019-06-21T14:27:42Z</time>
      </trkpt>
      <trkpt lat="43.136957" lon="-9.137060">
        <ele>12.299</ele>
        <time>2019-06-21T14:27:43Z</time>
      </trkpt>
      <trkpt lat="43.136854" lon="-9.137346">
        <ele>12.566</ele>
        <time>2019-06-21T14:27:44Z</time>
      </trkpt>
      <trkpt lat="43.136738" lon="-9.137625">
        <ele>13.752</ele>
        <time>2019-06-21T14:27:45Z</time>
      </trkpt>
      <trkpt lat="43.136621" lon="-9.137906">
        <ele>15.066</ele>
        <time>2019-06-21T14:27:46Z</time>
      </trkpt>
      <trkpt lat="43.136500" lon="-9.138181">
        <ele>16.628</ele>
        <time>2019-06-21T14:27:47Z</time>
      </trkpt>
      <trkpt lat="43.136391" lon="-9.138437">
        <ele>17.556</ele>
        <time>2019-06-21T14:27:48Z</time>
      </trkpt>
      <trkpt lat="43.136288" lon="-9.138680">
        <ele>19.159</ele>
        <time>2019-06-21T14:27:49Z</time>
      </trkpt>
      <trkpt lat="43.136230" lon="-9.138904">
        <ele>20.714</ele>
        <time>2019-06-21T14:27:50Z</time>
      </trkpt>
      <trkpt lat="43.136164" lon="-9.139158">
        <ele>20.908</ele>
        <time>2019-06-21T14:27:51Z</time>
      </trkpt>
      <trkpt lat="43.136131" lon="-9.139418">
        <ele>22.078</ele>
        <time>2019-06-21T14:27:52Z</time>
      </trkpt>
      <trkpt lat="43.136119" lon="-9.139674">
        <ele>22.982</ele>
        <time>2019-06-21T14:27:53Z</time>
      </trkpt>
      <trkpt lat="43.136116" lon="-9.139933">
        <ele>23.194</ele>
        <time>2019-06-21T14:27:54Z</time>
      </trkpt>
      <trkpt lat="43.136154" lon="-9.140195">
        <ele>22.996</ele>
        <time>2019-06-21T14:27:55Z</time>
      </trkpt>
      <trkpt lat="43.136198" lon="-9.140447">
        <ele>22.443</ele>
        <time>2019-06-21T14:27:56Z</time>
      </trkpt>
      <trkpt lat="43.136213" lon="-9.140718">
        <ele>22.279</ele>
        <time>2019-06-21T14:27:57Z</time>
      </trkpt>
      <trkpt lat="43.136202" lon="-9.140987">
        <ele>23.623</ele>
        <time>2019-06-21T14:27:58Z</time>
      </trkpt>
      <trkpt lat="43.136169" lon="-9.141253">
        <ele>25.685</ele>
        <time>2019-06-21T14:27:59Z</time>
      </trkpt>
      <trkpt lat="43.136123" lon="-9.141517">
        <ele>28.011</ele>
        <time>2019-06-21T14:28:00Z</time>
      </trkpt>
      <trkpt lat="43.136055" lon="-9.141775">
        <ele>30.221</ele>
        <time>2019-06-21T14:28:01Z</time>
      </trkpt>
      <trkpt lat="43.135950" lon="-9.141995">
        <ele>31.303</ele>
        <time>2019-06-21T14:28:02Z</time>
      </trkpt>
      <trkpt lat="43.135839" lon="-9.142204">
        <ele>32.808</ele>
        <time>2019-06-21T14:28:03Z</time>
      </trkpt>
      <trkpt lat="43.135721" lon="-9.142405">
        <ele>35.284</ele>
        <time>2019-06-21T14:28:04Z</time>
      </trkpt>
      <trkpt lat="43.135588" lon="-9.142613">
        <ele>37.838</ele>
        <time>2019-06-21T14:28:05Z</time>
      </trkpt>
      <trkpt lat="43.135469" lon="-9.142800">
        <ele>39.570</ele>
        <time>2019-06-21T14:28:06Z</time>
      </trkpt>
      <trkpt lat="43.135368" lon="-9.143010">
        <ele>41.672</ele>
        <time>2019-06-21T14:28:07Z</time>
      </trkpt>
      <trkpt lat="43.135280" lon="-9.143248">
        <ele>43.499</ele>
        <time>2019-06-21T14:28:08Z</time>
      </trkpt>
      <trkpt lat="43.135210" lon="-9.143483">
        <ele>44.965</ele>
        <time>2019-06-21T14:28:09Z</time>
      </trkpt>
      <trkpt lat="43.135145" lon="-9.143715">
        <ele>45.339</ele>
        <time>2019-06-21T14:28:10Z</time>
      </trkpt>
      <trkpt lat="43.135174" lon="-9.143968">
        <ele>45.421</ele>
        <time>2019-06-21T14:28:11Z</time>
      </trkpt>
      <trkpt lat="43.135191" lon="-9.144219">
        <ele>42.999</ele>
        <time>2019-06-21T14:28:12Z</time>
      </trkpt>
      <trkpt lat="43.135251" lon="-9.144479">
        <ele>39.107</ele>
        <time>2019-06-21T14:28:13Z</time>
      </trkpt>
      <trkpt lat="43.135333" lon="-9.144747">
        <ele>35.627</ele>
        <time>2019-06-21T14:28:14Z</time>
      </trkpt>
      <trkpt lat="43.135383" lon="-9.145014">
        <ele>32.708</ele>
        <time>2019-06-21T14:28:15Z</time>
      </trkpt>
      <trkpt lat="43.135449" lon="-9.145281">
        <ele>30.082</ele>
        <time>2019-06-21T14:28:16Z</time>
      </trkpt>
      <trkpt lat="43.135521" lon="-9.145542">
        <ele>27.856</ele>
        <time>2019-06-21T14:28:17Z</time>
      </trkpt>
      <trkpt lat="43.135587" lon="-9.145808">
        <ele>25.728</ele>
        <time>2019-06-21T14:28:18Z</time>
      </trkpt>
      <trkpt lat="43.135657" lon="-9.146061">
        <ele>24.220</ele>
        <time>2019-06-21T14:28:19Z</time>
      </trkpt>
      <trkpt lat="43.135728" lon="-9.146306">
        <ele>23.377</ele>
        <time>2019-06-21T14:28:20Z</time>
      </trkpt>
      <trkpt lat="43.135802" lon="-9.146543">
        <ele>23.113</ele>
        <time>2019-06-21T14:28:21Z</time>
      </trkpt>
      <trkpt lat="43.135874" lon="-9.146764">
        <ele>23.287</ele>
        <time>2019-06-21T14:28:22Z</time>
      </trkpt>
      <trkpt lat="43.135937" lon="-9.146967">
        <ele>23.329</ele>
        <time>2019-06-21T14:28:23Z</time>
      </trkpt>
      <trkpt lat="43.136005" lon="-9.147149">
        <ele>22.954</ele>
        <time>2019-06-21T14:28:24Z</time>
      </trkpt>
      <trkpt lat="43.136088" lon="-9.147324">
        <ele>22.256</ele>
        <time>2019-06-21T14:28:25Z</time>
      </trkpt>
      <trkpt lat="43.136181" lon="-9.147489">
        <ele>20.811</ele>
        <time>2019-06-21T14:28:26Z</time>
      </trkpt>
      <trkpt lat="43.136293" lon="-9.147614">
        <ele>19.508</ele>
        <time>2019-06-21T14:28:27Z</time>
      </trkpt>
      <trkpt lat="43.136412" lon="-9.147720">
        <ele>18.538</ele>
        <time>2019-06-21T14:28:28Z</time>
      </trkpt>
      <trkpt lat="43.136533" lon="-9.147800">
        <ele>17.712</ele>
        <time>2019-06-21T14:28:29Z</time>
      </trkpt>
      <trkpt lat="43.136657" lon="-9.147879">
        <ele>16.914</ele>
        <time>2019-06-21T14:28:30Z</time>
      </trkpt>
      <trkpt lat="43.136786" lon="-9.147967">
        <ele>16.516</ele>
        <time>2019-06-21T14:28:31Z</time>
      </trkpt>
      <trkpt lat="43.136924" lon="-9.148045">
        <ele>16.133</ele>
        <time>2019-06-21T14:28:32Z</time>
      </trkpt>
      <trkpt lat="43.137061" lon="-9.148123">
        <ele>15.489</ele>
        <time>2019-06-21T14:28:33Z</time>
      </trkpt>
      <trkpt lat="43.137200" lon="-9.148199">
        <ele>14.543</ele>
        <time>2019-06-21T14:28:34Z</time>
      </trkpt>
      <trkpt lat="43.137332" lon="-9.148264">
        <ele>13.765</ele>
        <time>2019-06-21T14:28:35Z</time>
      </trkpt>
      <trkpt lat="43.137470" lon="-9.148336">
        <ele>13.092</ele>
        <time>2019-06-21T14:28:36Z</time>
      </trkpt>
      <trkpt lat="43.137585" lon="-9.148427">
        <ele>12.173</ele>
        <time>2019-06-21T14:28:37Z</time>
      </trkpt>
      <trkpt lat="43.137706" lon="-9.148493">
        <ele>11.520</ele>
        <time>2019-06-21T14:28:38Z</time>
      </trkpt>
      <trkpt lat="43.137799" lon="-9.148560">
        <ele>11.108</ele>
        <time>2019-06-21T14:28:39Z</time>
      </trkpt>
      <trkpt lat="43.137910" lon="-9.148617">
        <ele>10.542</ele>
        <time>2019-06-21T14:28:40Z</time>
      </trkpt>
      <trkpt lat="43.137999" lon="-9.148665">
        <ele>10.076</ele>
        <time>2019-06-21T14:28:41Z</time>
      </trkpt>
      <trkpt lat="43.138083" lon="-9.148703">
        <ele>9.628</ele>
        <time>2019-06-21T14:28:42Z</time>
      </trkpt>
      <trkpt lat="43.138160" lon="-9.148744">
        <ele>9.390</ele>
        <time>2019-06-21T14:28:43Z</time>
      </trkpt>
      <trkpt lat="43.138240" lon="-9.148784">
        <ele>9.057</ele>
        <time>2019-06-21T14:28:44Z</time>
      </trkpt>
      <trkpt lat="43.138341" lon="-9.148813">
        <ele>8.533</ele>
        <time>2019-06-21T14:28:45Z</time>
      </trkpt>
      <trkpt lat="43.138448" lon="-9.148837">
        <ele>8.027</ele>
        <time>2019-06-21T14:28:46Z</time>
      </trkpt>
      <trkpt lat="43.138575" lon="-9.148852">
        <ele>7.469</ele>
        <time>2019-06-21T14:28:47Z</time>
      </trkpt>
      <trkpt lat="43.138709" lon="-9.148871">
        <ele>7.483</ele>
        <time>2019-06-21T14:28:48Z</time>
      </trkpt>
      <trkpt lat="43.138855" lon="-9.148904">
        <ele>7.825</ele>
        <time>2019-06-21T14:28:49Z</time>
      </trkpt>
      <trkpt lat="43.139007" lon="-9.148944">
        <ele>7.917</ele>
        <time>2019-06-21T14:28:50Z</time>
      </trkpt>
      <trkpt lat="43.139159" lon="-9.148976">
        <ele>8.008</ele>
        <time>2019-06-21T14:28:51Z</time>
      </trkpt>
      <trkpt lat="43.139314" lon="-9.148999">
        <ele>7.371</ele>
        <time>2019-06-21T14:28:52Z</time>
      </trkpt>
      <trkpt lat="43.139468" lon="-9.149032">
        <ele>6.475</ele>
        <time>2019-06-21T14:28:53Z</time>
      </trkpt>
      <trkpt lat="43.139622" lon="-9.149060">
        <ele>5.787</ele>
        <time>2019-06-21T14:28:54Z</time>
      </trkpt>
      <trkpt lat="43.139769" lon="-9.149089">
        <ele>5.649</ele>
        <time>2019-06-21T14:28:55Z</time>
      </trkpt>
      <trkpt lat="43.139913" lon="-9.149118">
        <ele>6.476</ele>
        <time>2019-06-21T14:28:56Z</time>
      </trkpt>
      <trkpt lat="43.140058" lon="-9.149144">
        <ele>7.682</ele>
        <time>2019-06-21T14:28:57Z</time>
      </trkpt>
      <trkpt lat="43.140203" lon="-9.149166">
        <ele>9.256</ele>
        <time>2019-06-21T14:28:58Z</time>
      </trkpt>
      <trkpt lat="43.140350" lon="-9.149192">
        <ele>10.188</ele>
        <time>2019-06-21T14:28:59Z</time>
      </trkpt>
      <trkpt lat="43.140511" lon="-9.149213">
        <ele>10.089</ele>
        <time>2019-06-21T14:29:00Z</time>
      </trkpt>
      <trkpt lat="43.140671" lon="-9.149248">
        <ele>10.006</ele>
        <time>2019-06-21T14:29:01Z</time>
      </trkpt>
      <trkpt lat="43.140831" lon="-9.149287">
        <ele>10.026</ele>
        <time>2019-06-21T14:29:02Z</time>
      </trkpt>
      <trkpt lat="43.140996" lon="-9.149314">
        <ele>10.308</ele>
        <time>2019-06-21T14:29:03Z</time>
      </trkpt>
      <trkpt lat="43.141157" lon="-9.149356">
        <ele>10.631</ele>
        <time>2019-06-21T14:29:04Z</time>
      </trkpt>
      <trkpt lat="43.141325" lon="-9.149389">
        <ele>11.655</ele>
        <time>2019-06-21T14:29:05Z</time>
      </trkpt>
      <trkpt lat="43.141487" lon="-9.149427">
        <ele>11.787</ele>
        <time>2019-06-21T14:29:06Z</time>
      </trkpt>
      <trkpt lat="43.141652" lon="-9.149467">
        <ele>11.089</ele>
        <time>2019-06-21T14:29:07Z</time>
      </trkpt>
      <trkpt lat="43.141825" lon="-9.149492">
        <ele>11.336</ele>
        <time>2019-06-21T14:29:08Z</time>
      </trkpt>
      <trkpt lat="43.141997" lon="-9.149533">
        <ele>11.742</ele>
        <time>2019-06-21T14:29:09Z</time>
      </trkpt>
      <trkpt lat="43.142178" lon="-9.149567">
        <ele>12.846</ele>
        <time>2019-06-21T14:29:10Z</time>
      </trkpt>
      <trkpt lat="43.142343" lon="-9.149599">
        <ele>13.318</ele>
        <time>2019-06-21T14:29:11Z</time>
      </trkpt>
      <trkpt lat="43.142502" lon="-9.149622">
        <ele>13.761</ele>
        <time>2019-06-21T14:29:12Z</time>
      </trkpt>
      <trkpt lat="43.142656" lon="-9.149655">
        <ele>13.521</ele>
        <time>2019-06-21T14:29:13Z</time>
      </trkpt>
      <trkpt lat="43.142820" lon="-9.149679">
        <ele>13.413</ele>
        <time>2019-06-21T14:29:14Z</time>
      </trkpt>
      <trkpt lat="43.142986" lon="-9.149709">
        <ele>13.808</ele>
        <time>2019-06-21T14:29:15Z</time>
      </trkpt>
      <trkpt lat="43.143136" lon="-9.149734">
        <ele>14.299</ele>
        <time>2019-06-21T14:29:16Z</time>
      </trkpt>
      <trkpt lat="43.143284" lon="-9.149770">
        <ele>14.713</ele>
        <time>2019-06-21T14:29:17Z</time>
      </trkpt>
      <trkpt lat="43.143434" lon="-9.149798">
        <ele>14.595</ele>
        <time>2019-06-21T14:29:18Z</time>
      </trkpt>
      <trkpt lat="43.143580" lon="-9.149829">
        <ele>14.137</ele>
        <time>2019-06-21T14:29:19Z</time>
      </trkpt>
      <trkpt lat="43.143718" lon="-9.149858">
        <ele>14.624</ele>
        <time>2019-06-21T14:29:20Z</time>
      </trkpt>
      <trkpt lat="43.143863" lon="-9.149879">
        <ele>15.350</ele>
        <time>2019-06-21T14:29:21Z</time>
      </trkpt>
      <trkpt lat="43.144009" lon="-9.149904">
        <ele>16.234</ele>
        <time>2019-06-21T14:29:22Z</time>
      </trkpt>
      <trkpt lat="43.144143" lon="-9.149933">
        <ele>17.116</ele>
        <time>2019-06-21T14:29:23Z</time>
      </trkpt>
      <trkpt lat="43.144291" lon="-9.149975">
        <ele>17.598</ele>
        <time>2019-06-21T14:29:24Z</time>
      </trkpt>
      <trkpt lat="43.144413" lon="-9.149997">
        <ele>17.915</ele>
        <time>2019-06-21T14:29:25Z</time>
      </trkpt>
      <trkpt lat="43.144523" lon="-9.150028">
        <ele>17.626</ele>
        <time>2019-06-21T14:29:26Z</time>
      </trkpt>
      <trkpt lat="43.144638" lon="-9.150047">
        <ele>17.308</ele>
        <time>2019-06-21T14:29:27Z</time>
      </trkpt>
      <trkpt lat="43.144750" lon="-9.150071">
        <ele>17.062</ele>
        <time>2019-06-21T14:29:28Z</time>
      </trkpt>
      <trkpt lat="43.144852" lon="-9.150092">
        <ele>16.876</ele>
        <time>2019-06-21T14:29:29Z</time>
      </trkpt>
      <trkpt lat="43.144952" lon="-9.150114">
        <ele>16.768</ele>
        <time>2019-06-21T14:29:30Z</time>
      </trkpt>
      <trkpt lat="43.145046" lon="-9.150124">
        <ele>16.760</ele>
        <time>2019-06-21T14:29:31Z</time>
      </trkpt>
      <trkpt lat="43.145140" lon="-9.150138">
        <ele>17.027</ele>
        <time>2019-06-21T14:29:32Z</time>
      </trkpt>
      <trkpt lat="43.145215" lon="-9.150154">
        <ele>17.273</ele>
        <time>2019-06-21T14:29:33Z</time>
      </trkpt>
      <trkpt lat="43.145288" lon="-9.150168">
        <ele>17.467</ele>
        <time>2019-06-21T14:29:34Z</time>
      </trkpt>
      <trkpt lat="43.145383" lon="-9.150180">
        <ele>17.759</ele>
        <time>2019-06-21T14:29:35Z</time>
      </trkpt>
      <trkpt lat="43.145497" lon="-9.150196">
        <ele>18.168</ele>
        <time>2019-06-21T14:29:36Z</time>
      </trkpt>
      <trkpt lat="43.145613" lon="-9.150222">
        <ele>18.242</ele>
        <time>2019-06-21T14:29:37Z</time>
      </trkpt>
      <trkpt lat="43.145729" lon="-9.150245">
        <ele>18.026</ele>
        <time>2019-06-21T14:29:38Z</time>
      </trkpt>
      <trkpt lat="43.145857" lon="-9.150278">
        <ele>18.008</ele>
        <time>2019-06-21T14:29:39Z</time>
      </trkpt>
      <trkpt lat="43.145989" lon="-9.150315">
        <ele>17.959</ele>
        <time>2019-06-21T14:29:40Z</time>
      </trkpt>
      <trkpt lat="43.146136" lon="-9.150335">
        <ele>17.983</ele>
        <time>2019-06-21T14:29:41Z</time>
      </trkpt>
      <trkpt lat="43.146274" lon="-9.150365">
        <ele>18.315</ele>
        <time>2019-06-21T14:29:42Z</time>
      </trkpt>
      <trkpt lat="43.146395" lon="-9.150397">
        <ele>18.627</ele>
        <time>2019-06-21T14:29:43Z</time>
      </trkpt>
      <trkpt lat="43.146520" lon="-9.150416">
        <ele>18.774</ele>
        <time>2019-06-21T14:29:44Z</time>
      </trkpt>
      <trkpt lat="43.146654" lon="-9.150444">
        <ele>18.850</ele>
        <time>2019-06-21T14:29:45Z</time>
      </trkpt>
      <trkpt lat="43.146799" lon="-9.150488">
        <ele>18.654</ele>
        <time>2019-06-21T14:29:46Z</time>
      </trkpt>
      <trkpt lat="43.146933" lon="-9.150514">
        <ele>18.476</ele>
        <time>2019-06-21T14:29:47Z</time>
      </trkpt>
      <trkpt lat="43.147053" lon="-9.150521">
        <ele>19.062</ele>
        <time>2019-06-21T14:29:48Z</time>
      </trkpt>
      <trkpt lat="43.147180" lon="-9.150544">
        <ele>19.183</ele>
        <time>2019-06-21T14:29:49Z</time>
      </trkpt>
      <trkpt lat="43.147298" lon="-9.150572">
        <ele>19.911</ele>
        <time>2019-06-21T14:29:50Z</time>
      </trkpt>
      <trkpt lat="43.147403" lon="-9.150581">
        <ele>21.308</ele>
        <time>2019-06-21T14:29:51Z</time>
      </trkpt>
      <trkpt lat="43.147511" lon="-9.150593">
        <ele>22.589</ele>
        <time>2019-06-21T14:29:52Z</time>
      </trkpt>
      <trkpt lat="43.147593" lon="-9.150624">
        <ele>22.013</ele>
        <time>2019-06-21T14:29:53Z</time>
      </trkpt>
      <trkpt lat="43.147672" lon="-9.150644">
        <ele>21.795</ele>
        <time>2019-06-21T14:29:54Z</time>
      </trkpt>
      <trkpt lat="43.147751" lon="-9.150622">
        <ele>22.047</ele>
        <time>2019-06-21T14:29:55Z</time>
      </trkpt>
      <trkpt lat="43.147841" lon="-9.150592">
        <ele>22.574</ele>
        <time>2019-06-21T14:29:56Z</time>
      </trkpt>
      <trkpt lat="43.147962" lon="-9.150529">
        <ele>23.660</ele>
        <time>2019-06-21T14:29:57Z</time>
      </trkpt>
      <trkpt lat="43.148076" lon="-9.150475">
        <ele>24.634</ele>
        <time>2019-06-21T14:29:58Z</time>
      </trkpt>
      <trkpt lat="43.148205" lon="-9.150401">
        <ele>25.276</ele>
        <time>2019-06-21T14:29:59Z</time>
      </trkpt>
      <trkpt lat="43.148341" lon="-9.150338">
        <ele>25.059</ele>
        <time>2019-06-21T14:30:00Z</time>
      </trkpt>
      <trkpt lat="43.148472" lon="-9.150286">
        <ele>23.903</ele>
        <time>2019-06-21T14:30:01Z</time>
      </trkpt>
      <trkpt lat="43.148613" lon="-9.150223">
        <ele>22.823</ele>
        <time>2019-06-21T14:30:02Z</time>
      </trkpt>
      <trkpt lat="43.148758" lon="-9.150168">
        <ele>21.808</ele>
        <time>2019-06-21T14:30:03Z</time>
      </trkpt>
      <trkpt lat="43.148890" lon="-9.150112">
        <ele>20.858</ele>
        <time>2019-06-21T14:30:04Z</time>
      </trkpt>
      <trkpt lat="43.149028" lon="-9.150049">
        <ele>22.132</ele>
        <time>2019-06-21T14:30:05Z</time>
      </trkpt>
      <trkpt lat="43.149158" lon="-9.149992">
        <ele>23.184</ele>
        <time>2019-06-21T14:30:06Z</time>
      </trkpt>
      <trkpt lat="43.149278" lon="-9.149920">
        <ele>25.146</ele>
        <time>2019-06-21T14:30:07Z</time>
      </trkpt>
      <trkpt lat="43.149398" lon="-9.149850">
        <ele>26.863</ele>
        <time>2019-06-21T14:30:08Z</time>
      </trkpt>
      <trkpt lat="43.149521" lon="-9.149762">
        <ele>28.029</ele>
        <time>2019-06-21T14:30:09Z</time>
      </trkpt>
      <trkpt lat="43.149622" lon="-9.149665">
        <ele>29.133</ele>
        <time>2019-06-21T14:30:10Z</time>
      </trkpt>
      <trkpt lat="43.149720" lon="-9.149511">
        <ele>30.575</ele>
        <time>2019-06-21T14:30:11Z</time>
      </trkpt>
      <trkpt lat="43.149805" lon="-9.149354">
        <ele>31.742</ele>
        <time>2019-06-21T14:30:12Z</time>
      </trkpt>
      <trkpt lat="43.149894" lon="-9.149196">
        <ele>32.822</ele>
        <time>2019-06-21T14:30:13Z</time>
      </trkpt>
      <trkpt lat="43.149975" lon="-9.149043">
        <ele>33.914</ele>
        <time>2019-06-21T14:30:14Z</time>
      </trkpt>
      <trkpt lat="43.150062" lon="-9.148906">
        <ele>34.708</ele>
        <time>2019-06-21T14:30:15Z</time>
      </trkpt>
      <trkpt lat="43.150152" lon="-9.148769">
        <ele>34.967</ele>
        <time>2019-06-21T14:30:16Z</time>
      </trkpt>
      <trkpt lat="43.150272" lon="-9.148657">
        <ele>34.991</ele>
        <time>2019-06-21T14:30:17Z</time>
      </trkpt>
      <trkpt lat="43.150386" lon="-9.148564">
        <ele>35.173</ele>
        <time>2019-06-21T14:30:18Z</time>
      </trkpt>
      <trkpt lat="43.150532" lon="-9.148501">
        <ele>35.415</ele>
        <time>2019-06-21T14:30:19Z</time>
      </trkpt>
      <trkpt lat="43.150691" lon="-9.148452">
        <ele>36.152</ele>
        <time>2019-06-21T14:30:20Z</time>
      </trkpt>
      <trkpt lat="43.150861" lon="-9.148396">
        <ele>36.788</ele>
        <time>2019-06-21T14:30:21Z</time>
      </trkpt>
      <trkpt lat="43.151041" lon="-9.148339">
        <ele>36.262</ele>
        <time>2019-06-21T14:30:22Z</time>
      </trkpt>
      <trkpt lat="43.151226" lon="-9.148281">
        <ele>35.514</ele>
        <time>2019-06-21T14:30:23Z</time>
      </trkpt>
      <trkpt lat="43.151418" lon="-9.148216">
        <ele>34.266</ele>
        <time>2019-06-21T14:30:24Z</time>
      </trkpt>
      <trkpt lat="43.151617" lon="-9.148155">
        <ele>33.029</ele>
        <time>2019-06-21T14:30:25Z</time>
      </trkpt>
      <trkpt lat="43.151812" lon="-9.148086">
        <ele>33.421</ele>
        <time>2019-06-21T14:30:26Z</time>
      </trkpt>
      <trkpt lat="43.152003" lon="-9.148023">
        <ele>34.408</ele>
        <time>2019-06-21T14:30:27Z</time>
      </trkpt>
      <trkpt lat="43.152194" lon="-9.147964">
        <ele>35.379</ele>
        <time>2019-06-21T14:30:28Z</time>
      </trkpt>
      <trkpt lat="43.152384" lon="-9.147901">
        <ele>35.293</ele>
        <time>2019-06-21T14:30:29Z</time>
      </trkpt>
      <trkpt lat="43.152573" lon="-9.147836">
        <ele>34.785</ele>
        <time>2019-06-21T14:30:30Z</time>
      </trkpt>
      <trkpt lat="43.152768" lon="-9.147780">
        <ele>34.047</ele>
        <time>2019-06-21T14:30:31Z</time>
      </trkpt>
      <trkpt lat="43.152973" lon="-9.147723">
        <ele>33.264</ele>
        <time>2019-06-21T14:30:32Z</time>
      </trkpt>
      <trkpt lat="43.153178" lon="-9.147660">
        <ele>32.510</ele>
        <time>2019-06-21T14:30:33Z</time>
      </trkpt>
      <trkpt lat="43.153379" lon="-9.147595">
        <ele>32.884</ele>
        <time>2019-06-21T14:30:34Z</time>
      </trkpt>
      <trkpt lat="43.153572" lon="-9.147541">
        <ele>33.736</ele>
        <time>2019-06-21T14:30:35Z</time>
      </trkpt>
      <trkpt lat="43.153764" lon="-9.147476">
        <ele>34.171</ele>
        <time>2019-06-21T14:30:36Z</time>
      </trkpt>
      <trkpt lat="43.153953" lon="-9.147434">
        <ele>34.041</ele>
        <time>2019-06-21T14:30:37Z</time>
      </trkpt>
      <trkpt lat="43.154144" lon="-9.147379">
        <ele>33.515</ele>
        <time>2019-06-21T14:30:38Z</time>
      </trkpt>
      <trkpt lat="43.154337" lon="-9.147303">
        <ele>33.108</ele>
        <time>2019-06-21T14:30:39Z</time>
      </trkpt>
      <trkpt lat="43.154539" lon="-9.147226">
        <ele>32.690</ele>
        <time>2019-06-21T14:30:40Z</time>
      </trkpt>
      <trkpt lat="43.154740" lon="-9.147157">
        <ele>32.334</ele>
        <time>2019-06-21T14:30:41Z</time>
      </trkpt>
      <trkpt lat="43.154942" lon="-9.147094">
        <ele>33.786</ele>
        <time>2019-06-21T14:30:42Z</time>
      </trkpt>
      <trkpt lat="43.155147" lon="-9.147022">
        <ele>34.598</ele>
        <time>2019-06-21T14:30:43Z</time>
      </trkpt>
      <trkpt lat="43.155343" lon="-9.146959">
        <ele>35.225</ele>
        <time>2019-06-21T14:30:44Z</time>
      </trkpt>
      <trkpt lat="43.155538" lon="-9.146899">
        <ele>35.991</ele>
        <time>2019-06-21T14:30:45Z</time>
      </trkpt>
      <trkpt lat="43.155729" lon="-9.146838">
        <ele>36.635</ele>
        <time>2019-06-21T14:30:46Z</time>
      </trkpt>
      <trkpt lat="43.155922" lon="-9.146772">
        <ele>37.697</ele>
        <time>2019-06-21T14:30:47Z</time>
      </trkpt>
      <trkpt lat="43.156116" lon="-9.146704">
        <ele>39.037</ele>
        <time>2019-06-21T14:30:48Z</time>
      </trkpt>
      <trkpt lat="43.156299" lon="-9.146638">
        <ele>40.549</ele>
        <time>2019-06-21T14:30:49Z</time>
      </trkpt>
      <trkpt lat="43.156479" lon="-9.146576">
        <ele>42.013</ele>
        <time>2019-06-21T14:30:50Z</time>
      </trkpt>
      <trkpt lat="43.156641" lon="-9.146521">
        <ele>43.308</ele>
        <time>2019-06-21T14:30:51Z</time>
      </trkpt>
      <trkpt lat="43.156766" lon="-9.146468">
        <ele>44.476</ele>
        <time>2019-06-21T14:30:52Z</time>
      </trkpt>
      <trkpt lat="43.156902" lon="-9.146419">
        <ele>45.620</ele>
        <time>2019-06-21T14:30:53Z</time>
      </trkpt>
      <trkpt lat="43.157038" lon="-9.146382">
        <ele>46.022</ele>
        <time>2019-06-21T14:30:54Z</time>
      </trkpt>
      <trkpt lat="43.157181" lon="-9.146330">
        <ele>46.044</ele>
        <time>2019-06-21T14:30:55Z</time>
      </trkpt>
      <trkpt lat="43.157317" lon="-9.146289">
        <ele>46.161</ele>
        <time>2019-06-21T14:30:56Z</time>
      </trkpt>
      <trkpt lat="43.157450" lon="-9.146244">
        <ele>46.447</ele>
        <time>2019-06-21T14:30:57Z</time>
      </trkpt>
      <trkpt lat="43.157579" lon="-9.146209">
        <ele>46.581</ele>
        <time>2019-06-21T14:30:58Z</time>
      </trkpt>
      <trkpt lat="43.157712" lon="-9.146163">
        <ele>46.743</ele>
        <time>2019-06-21T14:30:59Z</time>
      </trkpt>
      <trkpt lat="43.157844" lon="-9.146118">
        <ele>46.725</ele>
        <time>2019-06-21T14:31:00Z</time>
      </trkpt>
      <trkpt lat="43.157978" lon="-9.146071">
        <ele>46.426</ele>
        <time>2019-06-21T14:31:01Z</time>
      </trkpt>
      <trkpt lat="43.158115" lon="-9.146023">
        <ele>46.308</ele>
        <time>2019-06-21T14:31:02Z</time>
      </trkpt>
      <trkpt lat="43.158253" lon="-9.145977">
        <ele>46.508</ele>
        <time>2019-06-21T14:31:03Z</time>
      </trkpt>
      <trkpt lat="43.158402" lon="-9.145930">
        <ele>46.985</ele>
        <time>2019-06-21T14:31:04Z</time>
      </trkpt>
      <trkpt lat="43.158558" lon="-9.145886">
        <ele>47.629</ele>
        <time>2019-06-21T14:31:05Z</time>
      </trkpt>
      <trkpt lat="43.158709" lon="-9.145827">
        <ele>48.471</ele>
        <time>2019-06-21T14:31:06Z</time>
      </trkpt>
      <trkpt lat="43.158850" lon="-9.145782">
        <ele>49.043</ele>
        <time>2019-06-21T14:31:07Z</time>
      </trkpt>
      <trkpt lat="43.158997" lon="-9.145731">
        <ele>49.880</ele>
        <time>2019-06-21T14:31:08Z</time>
      </trkpt>
      <trkpt lat="43.159141" lon="-9.145686">
        <ele>50.416</ele>
        <time>2019-06-21T14:31:09Z</time>
      </trkpt>
      <trkpt lat="43.159289" lon="-9.145625">
        <ele>50.970</ele>
        <time>2019-06-21T14:31:10Z</time>
      </trkpt>
      <trkpt lat="43.159449" lon="-9.145580">
        <ele>51.062</ele>
        <time>2019-06-21T14:31:11Z</time>
      </trkpt>
      <trkpt lat="43.159594" lon="-9.145547">
        <ele>51.083</ele>
        <time>2019-06-21T14:31:12Z</time>
      </trkpt>
      <trkpt lat="43.159732" lon="-9.145536">
        <ele>51.125</ele>
        <time>2019-06-21T14:31:13Z</time>
      </trkpt>
      <trkpt lat="43.159875" lon="-9.145545">
        <ele>51.017</ele>
        <time>2019-06-21T14:31:14Z</time>
      </trkpt>
      <trkpt lat="43.160001" lon="-9.145570">
        <ele>50.908</ele>
        <time>2019-06-21T14:31:15Z</time>
      </trkpt>
      <trkpt lat="43.160126" lon="-9.145581">
        <ele>51.021</ele>
        <time>2019-06-21T14:31:16Z</time>
      </trkpt>
      <trkpt lat="43.160232" lon="-9.145609">
        <ele>51.075</ele>
        <time>2019-06-21T14:31:17Z</time>
      </trkpt>
      <trkpt lat="43.160328" lon="-9.145632">
        <ele>51.277</ele>
        <time>2019-06-21T14:31:18Z</time>
      </trkpt>
      <trkpt lat="43.160408" lon="-9.145654">
        <ele>51.569</ele>
        <time>2019-06-21T14:31:19Z</time>
      </trkpt>
      <trkpt lat="43.160490" lon="-9.145667">
        <ele>51.856</ele>
        <time>2019-06-21T14:31:20Z</time>
      </trkpt>
      <trkpt lat="43.160576" lon="-9.145660">
        <ele>52.062</ele>
        <time>2019-06-21T14:31:21Z</time>
      </trkpt>
      <trkpt lat="43.160681" lon="-9.145648">
        <ele>52.316</ele>
        <time>2019-06-21T14:31:22Z</time>
      </trkpt>
      <trkpt lat="43.160775" lon="-9.145628">
        <ele>52.648</ele>
        <time>2019-06-21T14:31:23Z</time>
      </trkpt>
      <trkpt lat="43.160870" lon="-9.145454">
        <ele>53.261</ele>
        <time>2019-06-21T14:31:24Z</time>
      </trkpt>
      <trkpt lat="43.160960" lon="-9.145359">
        <ele>53.821</ele>
        <time>2019-06-21T14:31:25Z</time>
      </trkpt>
      <trkpt lat="43.161033" lon="-9.145223">
        <ele>54.713</ele>
        <time>2019-06-21T14:31:26Z</time>
      </trkpt>
      <trkpt lat="43.161103" lon="-9.145118">
        <ele>55.508</ele>
        <time>2019-06-21T14:31:27Z</time>
      </trkpt>
      <trkpt lat="43.161188" lon="-9.145032">
        <ele>56.459</ele>
        <time>2019-06-21T14:31:28Z</time>
      </trkpt>
      <trkpt lat="43.161277" lon="-9.144964">
        <ele>57.523</ele>
        <time>2019-06-21T14:31:29Z</time>
      </trkpt>
      <trkpt lat="43.161398" lon="-9.144928">
        <ele>58.645</ele>
        <time>2019-06-21T14:31:30Z</time>
      </trkpt>
      <trkpt lat="43.161520" lon="-9.144922">
        <ele>59.687</ele>
        <time>2019-06-21T14:31:31Z</time>
      </trkpt>
      <trkpt lat="43.161639" lon="-9.144925">
        <ele>60.694</ele>
        <time>2019-06-21T14:31:32Z</time>
      </trkpt>
      <trkpt lat="43.161768" lon="-9.144935">
        <ele>62.270</ele>
        <time>2019-06-21T14:31:33Z</time>
      </trkpt>
      <trkpt lat="43.161900" lon="-9.144970">
        <ele>63.714</ele>
        <time>2019-06-21T14:31:34Z</time>
      </trkpt>
      <trkpt lat="43.162026" lon="-9.145039">
        <ele>64.976</ele>
        <time>2019-06-21T14:31:35Z</time>
      </trkpt>
      <trkpt lat="43.162150" lon="-9.145112">
        <ele>66.143</ele>
        <time>2019-06-21T14:31:36Z</time>
      </trkpt>
      <trkpt lat="43.162269" lon="-9.145217">
        <ele>66.964</ele>
        <time>2019-06-21T14:31:37Z</time>
      </trkpt>
      <trkpt lat="43.162387" lon="-9.145329">
        <ele>67.910</ele>
        <time>2019-06-21T14:31:38Z</time>
      </trkpt>
      <trkpt lat="43.162519" lon="-9.145449">
        <ele>68.908</ele>
        <time>2019-06-21T14:31:39Z</time>
      </trkpt>
      <trkpt lat="43.162648" lon="-9.145566">
        <ele>69.517</ele>
        <time>2019-06-21T14:31:40Z</time>
      </trkpt>
      <trkpt lat="43.162789" lon="-9.145675">
        <ele>70.031</ele>
        <time>2019-06-21T14:31:41Z</time>
      </trkpt>
      <trkpt lat="43.162943" lon="-9.145767">
        <ele>70.693</ele>
        <time>2019-06-21T14:31:42Z</time>
      </trkpt>
      <trkpt lat="43.163097" lon="-9.145849">
        <ele>71.715</ele>
        <time>2019-06-21T14:31:43Z</time>
      </trkpt>
      <trkpt lat="43.163256" lon="-9.145932">
        <ele>73.882</ele>
        <time>2019-06-21T14:31:44Z</time>
      </trkpt>
      <trkpt lat="43.163410" lon="-9.146020">
        <ele>74.538</ele>
        <time>2019-06-21T14:31:45Z</time>
      </trkpt>
      <trkpt lat="43.163565" lon="-9.146109">
        <ele>74.482</ele>
        <time>2019-06-21T14:31:46Z</time>
      </trkpt>
      <trkpt lat="43.163710" lon="-9.146200">
        <ele>73.454</ele>
        <time>2019-06-21T14:31:47Z</time>
      </trkpt>
      <trkpt lat="43.163849" lon="-9.146259">
        <ele>72.752</ele>
        <time>2019-06-21T14:31:48Z</time>
      </trkpt>
      <trkpt lat="43.163990" lon="-9.146310">
        <ele>73.253</ele>
        <time>2019-06-21T14:31:49Z</time>
      </trkpt>
      <trkpt lat="43.164136" lon="-9.146363">
        <ele>74.108</ele>
        <time>2019-06-21T14:31:50Z</time>
      </trkpt>
      <trkpt lat="43.164310" lon="-9.146416">
        <ele>74.208</ele>
        <time>2019-06-21T14:31:51Z</time>
      </trkpt>
      <trkpt lat="43.164472" lon="-9.146455">
        <ele>74.428</ele>
        <time>2019-06-21T14:31:52Z</time>
      </trkpt>
      <trkpt lat="43.164629" lon="-9.146490">
        <ele>74.832</ele>
        <time>2019-06-21T14:31:53Z</time>
      </trkpt>
      <trkpt lat="43.164806" lon="-9.146502">
        <ele>75.394</ele>
        <time>2019-06-21T14:31:54Z</time>
      </trkpt>
      <trkpt lat="43.164964" lon="-9.146515">
        <ele>75.686</ele>
        <time>2019-06-21T14:31:55Z</time>
      </trkpt>
      <trkpt lat="43.165158" lon="-9.146510">
        <ele>77.313</ele>
        <time>2019-06-21T14:31:56Z</time>
      </trkpt>
      <trkpt lat="43.165299" lon="-9.146528">
        <ele>78.139</ele>
        <time>2019-06-21T14:31:57Z</time>
      </trkpt>
      <trkpt lat="43.165481" lon="-9.146561">
        <ele>78.993</ele>
        <time>2019-06-21T14:31:58Z</time>
      </trkpt>
      <trkpt lat="43.165635" lon="-9.146600">
        <ele>79.795</ele>
        <time>2019-06-21T14:31:59Z</time>
      </trkpt>
      <trkpt lat="43.165784" lon="-9.146636">
        <ele>80.897</ele>
        <time>2019-06-21T14:32:00Z</time>
      </trkpt>
      <trkpt lat="43.165925" lon="-9.146678">
        <ele>81.323</ele>
        <time>2019-06-21T14:32:01Z</time>
      </trkpt>
      <trkpt lat="43.166056" lon="-9.146711">
        <ele>81.625</ele>
        <time>2019-06-21T14:32:02Z</time>
      </trkpt>
      <trkpt lat="43.166193" lon="-9.146746">
        <ele>81.008</ele>
        <time>2019-06-21T14:32:03Z</time>
      </trkpt>
      <trkpt lat="43.166330" lon="-9.146771">
        <ele>79.852</ele>
        <time>2019-06-21T14:32:04Z</time>
      </trkpt>
      <trkpt lat="43.166466" lon="-9.146786">
        <ele>79.086</ele>
        <time>2019-06-21T14:32:05Z</time>
      </trkpt>
      <trkpt lat="43.166600" lon="-9.146809">
        <ele>78.648</ele>
        <time>2019-06-21T14:32:06Z</time>
      </trkpt>
      <trkpt lat="43.166719" lon="-9.146849">
        <ele>78.770</ele>
        <time>2019-06-21T14:32:07Z</time>
      </trkpt>
      <trkpt lat="43.166847" lon="-9.146909">
        <ele>79.917</ele>
        <time>2019-06-21T14:32:08Z</time>
      </trkpt>
      <trkpt lat="43.166978" lon="-9.146962">
        <ele>81.453</ele>
        <time>2019-06-21T14:32:09Z</time>
      </trkpt>
      <trkpt lat="43.167109" lon="-9.147031">
        <ele>82.827</ele>
        <time>2019-06-21T14:32:10Z</time>
      </trkpt>
      <trkpt lat="43.167241" lon="-9.147081">
        <ele>84.019</ele>
        <time>2019-06-21T14:32:11Z</time>
      </trkpt>
      <trkpt lat="43.167365" lon="-9.147131">
        <ele>83.835</ele>
        <time>2019-06-21T14:32:12Z</time>
      </trkpt>
      <trkpt lat="43.167506" lon="-9.147193">
        <ele>83.286</ele>
        <time>2019-06-21T14:32:13Z</time>
      </trkpt>
      <trkpt lat="43.167610" lon="-9.147280">
        <ele>82.414</ele>
        <time>2019-06-21T14:32:14Z</time>
      </trkpt>
      <trkpt lat="43.167696" lon="-9.147354">
        <ele>81.808</ele>
        <time>2019-06-21T14:32:15Z</time>
      </trkpt>
      <trkpt lat="43.167791" lon="-9.147447">
        <ele>81.356</ele>
        <time>2019-06-21T14:32:16Z</time>
      </trkpt>
      <trkpt lat="43.167864" lon="-9.147578">
        <ele>81.480</ele>
        <time>2019-06-21T14:32:17Z</time>
      </trkpt>
      <trkpt lat="43.167946" lon="-9.147717">
        <ele>81.362</ele>
        <time>2019-06-21T14:32:18Z</time>
      </trkpt>
      <trkpt lat="43.168012" lon="-9.147865">
        <ele>80.414</ele>
        <time>2019-06-21T14:32:19Z</time>
      </trkpt>
      <trkpt lat="43.168083" lon="-9.148008">
        <ele>79.531</ele>
        <time>2019-06-21T14:32:20Z</time>
      </trkpt>
      <trkpt lat="43.168144" lon="-9.148142">
        <ele>78.717</ele>
        <time>2019-06-21T14:32:21Z</time>
      </trkpt>
      <trkpt lat="43.168212" lon="-9.148278">
        <ele>78.031</ele>
        <time>2019-06-21T14:32:22Z</time>
      </trkpt>
      <trkpt lat="43.168285" lon="-9.148422">
        <ele>77.653</ele>
        <time>2019-06-21T14:32:23Z</time>
      </trkpt>
      <trkpt lat="43.168355" lon="-9.148553">
        <ele>77.478</ele>
        <time>2019-06-21T14:32:24Z</time>
      </trkpt>
      <trkpt lat="43.168423" lon="-9.148674">
        <ele>77.633</ele>
        <time>2019-06-21T14:32:25Z</time>
      </trkpt>
      <trkpt lat="43.168480" lon="-9.148802">
        <ele>78.126</ele>
        <time>2019-06-21T14:32:26Z</time>
      </trkpt>
      <trkpt lat="43.168540" lon="-9.148908">
        <ele>78.408</ele>
        <time>2019-06-21T14:32:27Z</time>
      </trkpt>
      <trkpt lat="43.168592" lon="-9.149036">
        <ele>78.470</ele>
        <time>2019-06-21T14:32:28Z</time>
      </trkpt>
      <trkpt lat="43.168639" lon="-9.149166">
        <ele>78.424</ele>
        <time>2019-06-21T14:32:29Z</time>
      </trkpt>
      <trkpt lat="43.168668" lon="-9.149285">
        <ele>79.536</ele>
        <time>2019-06-21T14:32:30Z</time>
      </trkpt>
      <trkpt lat="43.168702" lon="-9.149388">
        <ele>80.468</ele>
        <time>2019-06-21T14:32:31Z</time>
      </trkpt>
      <trkpt lat="43.168763" lon="-9.149474">
        <ele>81.125</ele>
        <time>2019-06-21T14:32:32Z</time>
      </trkpt>
      <trkpt lat="43.168818" lon="-9.149525">
        <ele>81.631</ele>
        <time>2019-06-21T14:32:33Z</time>
      </trkpt>
      <trkpt lat="43.168893" lon="-9.149554">
        <ele>82.035</ele>
        <time>2019-06-21T14:32:34Z</time>
      </trkpt>
      <trkpt lat="43.168978" lon="-9.149554">
        <ele>83.067</ele>
        <time>2019-06-21T14:32:35Z</time>
      </trkpt>
      <trkpt lat="43.169055" lon="-9.149556">
        <ele>83.859</ele>
        <time>2019-06-21T14:32:36Z</time>
      </trkpt>
      <trkpt lat="43.169148" lon="-9.149536">
        <ele>84.803</ele>
        <time>2019-06-21T14:32:37Z</time>
      </trkpt>
      <trkpt lat="43.169246" lon="-9.149513">
        <ele>86.023</ele>
        <time>2019-06-21T14:32:38Z</time>
      </trkpt>
      <trkpt lat="43.169341" lon="-9.149491">
        <ele>87.308</ele>
        <time>2019-06-21T14:32:39Z</time>
      </trkpt>
      <trkpt lat="43.169444" lon="-9.149466">
        <ele>88.858</ele>
        <time>2019-06-21T14:32:40Z</time>
      </trkpt>
      <trkpt lat="43.169537" lon="-9.149435">
        <ele>90.162</ele>
        <time>2019-06-21T14:32:41Z</time>
      </trkpt>
      <trkpt lat="43.169624" lon="-9.149408">
        <ele>91.334</ele>
        <time>2019-06-21T14:32:42Z</time>
      </trkpt>
      <trkpt lat="43.169704" lon="-9.149375">
        <ele>92.566</ele>
        <time>2019-06-21T14:32:43Z</time>
      </trkpt>
      <trkpt lat="43.169776" lon="-9.149333">
        <ele>94.053</ele>
        <time>2019-06-21T14:32:44Z</time>
      </trkpt>
      <trkpt lat="43.169853" lon="-9.149270">
        <ele>95.879</ele>
        <time>2019-06-21T14:32:45Z</time>
      </trkpt>
      <trkpt lat="43.169920" lon="-9.149186">
        <ele>97.653</ele>
        <time>2019-06-21T14:32:46Z</time>
      </trkpt>
      <trkpt lat="43.169968" lon="-9.149119">
        <ele>98.975</ele>
        <time>2019-06-21T14:32:47Z</time>
      </trkpt>
      <trkpt lat="43.170024" lon="-9.149057">
        <ele>100.169</ele>
        <time>2019-06-21T14:32:48Z</time>
      </trkpt>
      <trkpt lat="43.170067" lon="-9.149037">
        <ele>100.904</ele>
        <time>2019-06-21T14:32:50Z</time>
      </trkpt>
      <trkpt lat="43.170113" lon="-9.149029">
        <ele>101.624</ele>
        <time>2019-06-21T14:33:32Z</time>
      </trkpt>
      <trkpt lat="43.170140" lon="-9.149092">
        <ele>101.308</ele>
        <time>2019-06-21T14:34:54Z</time>
      </trkpt>
      <trkpt lat="43.170177" lon="-9.149136">
        <ele>101.379</ele>
        <time>2019-06-21T14:34:55Z</time>
      </trkpt>
      <trkpt lat="43.170222" lon="-9.149177">
        <ele>101.383</ele>
        <time>2019-06-21T14:34:56Z</time>
      </trkpt>
      <trkpt lat="43.170270" lon="-9.149216">
        <ele>101.225</ele>
        <time>2019-06-21T14:34:57Z</time>
      </trkpt>
      <trkpt lat="43.170320" lon="-9.149261">
        <ele>101.267</ele>
        <time>2019-06-21T14:34:58Z</time>
      </trkpt>
      <trkpt lat="43.170370" lon="-9.149316">
        <ele>101.224</ele>
        <time>2019-06-21T14:34:59Z</time>
      </trkpt>
      <trkpt lat="43.170426" lon="-9.149381">
        <ele>101.050</ele>
        <time>2019-06-21T14:35:00Z</time>
      </trkpt>
      <trkpt lat="43.170482" lon="-9.149442">
        <ele>101.014</ele>
        <time>2019-06-21T14:35:01Z</time>
      </trkpt>
      <trkpt lat="43.170535" lon="-9.149514">
        <ele>100.776</ele>
        <time>2019-06-21T14:35:02Z</time>
      </trkpt>
      <trkpt lat="43.170594" lon="-9.149593">
        <ele>100.499</ele>
        <time>2019-06-21T14:35:03Z</time>
      </trkpt>
      <trkpt lat="43.170654" lon="-9.149674">
        <ele>100.107</ele>
        <time>2019-06-21T14:35:04Z</time>
      </trkpt>
      <trkpt lat="43.170724" lon="-9.149760">
        <ele>100.127</ele>
        <time>2019-06-21T14:35:05Z</time>
      </trkpt>
      <trkpt lat="43.170787" lon="-9.149857">
        <ele>100.008</ele>
        <time>2019-06-21T14:35:06Z</time>
      </trkpt>
      <trkpt lat="43.170862" lon="-9.149956">
        <ele>100.072</ele>
        <time>2019-06-21T14:35:07Z</time>
      </trkpt>
      <trkpt lat="43.170957" lon="-9.150069">
        <ele>100.346</ele>
        <time>2019-06-21T14:35:08Z</time>
      </trkpt>
      <trkpt lat="43.171022" lon="-9.150176">
        <ele>100.318</ele>
        <time>2019-06-21T14:35:09Z</time>
      </trkpt>
      <trkpt lat="43.171119" lon="-9.150282">
        <ele>101.070</ele>
        <time>2019-06-21T14:35:10Z</time>
      </trkpt>
      <trkpt lat="43.171208" lon="-9.150404">
        <ele>101.047</ele>
        <time>2019-06-21T14:35:11Z</time>
      </trkpt>
      <trkpt lat="43.171293" lon="-9.150516">
        <ele>101.543</ele>
        <time>2019-06-21T14:35:12Z</time>
      </trkpt>
      <trkpt lat="43.171385" lon="-9.150640">
        <ele>102.627</ele>
        <time>2019-06-21T14:35:13Z</time>
      </trkpt>
      <trkpt lat="43.171483" lon="-9.150766">
        <ele>102.479</ele>
        <time>2019-06-21T14:35:14Z</time>
      </trkpt>
      <trkpt lat="43.171561" lon="-9.150892">
        <ele>101.663</ele>
        <time>2019-06-21T14:35:15Z</time>
      </trkpt>
      <trkpt lat="43.171644" lon="-9.151016">
        <ele>101.244</ele>
        <time>2019-06-21T14:35:16Z</time>
      </trkpt>
      <trkpt lat="43.171734" lon="-9.151140">
        <ele>101.118</ele>
        <time>2019-06-21T14:35:17Z</time>
      </trkpt>
      <trkpt lat="43.171817" lon="-9.151274">
        <ele>100.608</ele>
        <time>2019-06-21T14:35:18Z</time>
      </trkpt>
      <trkpt lat="43.171901" lon="-9.151406">
        <ele>99.939</ele>
        <time>2019-06-21T14:35:19Z</time>
      </trkpt>
      <trkpt lat="43.171981" lon="-9.151539">
        <ele>98.943</ele>
        <time>2019-06-21T14:35:20Z</time>
      </trkpt>
      <trkpt lat="43.172071" lon="-9.151677">
        <ele>98.085</ele>
        <time>2019-06-21T14:35:21Z</time>
      </trkpt>
      <trkpt lat="43.172158" lon="-9.151816">
        <ele>97.997</ele>
        <time>2019-06-21T14:35:22Z</time>
      </trkpt>
      <trkpt lat="43.172242" lon="-9.151945">
        <ele>97.934</ele>
        <time>2019-06-21T14:35:23Z</time>
      </trkpt>
      <trkpt lat="43.172330" lon="-9.152081">
        <ele>97.840</ele>
        <time>2019-06-21T14:35:24Z</time>
      </trkpt>
      <trkpt lat="43.172398" lon="-9.152198">
        <ele>97.914</ele>
        <time>2019-06-21T14:35:25Z</time>
      </trkpt>
      <trkpt lat="43.172497" lon="-9.152282">
        <ele>98.436</ele>
        <time>2019-06-21T14:35:26Z</time>
      </trkpt>
      <trkpt lat="43.172560" lon="-9.152400">
        <ele>99.076</ele>
        <time>2019-06-21T14:35:27Z</time>
      </trkpt>
      <trkpt lat="43.172608" lon="-9.152517">
        <ele>99.490</ele>
        <time>2019-06-21T14:35:28Z</time>
      </trkpt>
      <trkpt lat="43.172685" lon="-9.152592">
        <ele>99.619</ele>
        <time>2019-06-21T14:35:29Z</time>
      </trkpt>
      <trkpt lat="43.172765" lon="-9.152674">
        <ele>99.908</ele>
        <time>2019-06-21T14:35:30Z</time>
      </trkpt>
      <trkpt lat="43.172863" lon="-9.152735">
        <ele>100.570</ele>
        <time>2019-06-21T14:35:31Z</time>
      </trkpt>
      <trkpt lat="43.172955" lon="-9.152792">
        <ele>101.254</ele>
        <time>2019-06-21T14:35:32Z</time>
      </trkpt>
      <trkpt lat="43.173059" lon="-9.152852">
        <ele>101.856</ele>
        <time>2019-06-21T14:35:33Z</time>
      </trkpt>
      <trkpt lat="43.173167" lon="-9.152902">
        <ele>103.068</ele>
        <time>2019-06-21T14:35:34Z</time>
      </trkpt>
      <trkpt lat="43.173271" lon="-9.152951">
        <ele>103.915</ele>
        <time>2019-06-21T14:35:35Z</time>
      </trkpt>
      <trkpt lat="43.173391" lon="-9.152988">
        <ele>104.821</ele>
        <time>2019-06-21T14:35:36Z</time>
      </trkpt>
      <trkpt lat="43.173518" lon="-9.153030">
        <ele>105.555</ele>
        <time>2019-06-21T14:35:37Z</time>
      </trkpt>
      <trkpt lat="43.173624" lon="-9.153062">
        <ele>106.087</ele>
        <time>2019-06-21T14:35:38Z</time>
      </trkpt>
      <trkpt lat="43.173735" lon="-9.153122">
        <ele>105.758</ele>
        <time>2019-06-21T14:35:39Z</time>
      </trkpt>
      <trkpt lat="43.173833" lon="-9.153193">
        <ele>105.652</ele>
        <time>2019-06-21T14:35:40Z</time>
      </trkpt>
      <trkpt lat="43.173917" lon="-9.153280">
        <ele>105.817</ele>
        <time>2019-06-21T14:35:41Z</time>
      </trkpt>
      <trkpt lat="43.174024" lon="-9.153373">
        <ele>106.108</ele>
        <time>2019-06-21T14:35:42Z</time>
      </trkpt>
      <trkpt lat="43.174097" lon="-9.153456">
        <ele>106.468</ele>
        <time>2019-06-21T14:35:43Z</time>
      </trkpt>
      <trkpt lat="43.174175" lon="-9.153531">
        <ele>106.792</ele>
        <time>2019-06-21T14:35:44Z</time>
      </trkpt>
      <trkpt lat="43.174251" lon="-9.153612">
        <ele>107.044</ele>
        <time>2019-06-21T14:35:45Z</time>
      </trkpt>
      <trkpt lat="43.174314" lon="-9.153711">
        <ele>107.476</ele>
        <time>2019-06-21T14:35:46Z</time>
      </trkpt>
      <trkpt lat="43.174376" lon="-9.153808">
        <ele>107.793</ele>
        <time>2019-06-21T14:35:47Z</time>
      </trkpt>
      <trkpt lat="43.174419" lon="-9.153902">
        <ele>108.029</ele>
        <time>2019-06-21T14:35:48Z</time>
      </trkpt>
      <trkpt lat="43.174478" lon="-9.154003">
        <ele>107.573</ele>
        <time>2019-06-21T14:35:49Z</time>
      </trkpt>
      <trkpt lat="43.174534" lon="-9.154089">
        <ele>107.025</ele>
        <time>2019-06-21T14:35:50Z</time>
      </trkpt>
      <trkpt lat="43.174620" lon="-9.154163">
        <ele>106.462</ele>
        <time>2019-06-21T14:35:51Z</time>
      </trkpt>
      <trkpt lat="43.174689" lon="-9.154217">
        <ele>105.983</ele>
        <time>2019-06-21T14:35:52Z</time>
      </trkpt>
      <trkpt lat="43.174766" lon="-9.154286">
        <ele>105.511</ele>
        <time>2019-06-21T14:35:53Z</time>
      </trkpt>
      <trkpt lat="43.174824" lon="-9.154342">
        <ele>105.108</ele>
        <time>2019-06-21T14:35:54Z</time>
      </trkpt>
      <trkpt lat="43.174901" lon="-9.154385">
        <ele>104.729</ele>
        <time>2019-06-21T14:35:55Z</time>
      </trkpt>
      <trkpt lat="43.174962" lon="-9.154417">
        <ele>104.313</ele>
        <time>2019-06-21T14:35:56Z</time>
      </trkpt>
      <trkpt lat="43.175018" lon="-9.154443">
        <ele>103.955</ele>
        <time>2019-06-21T14:35:57Z</time>
      </trkpt>
      <trkpt lat="43.175090" lon="-9.154459">
        <ele>103.627</ele>
        <time>2019-06-21T14:35:58Z</time>
      </trkpt>
      <trkpt lat="43.175142" lon="-9.154470">
        <ele>103.424</ele>
        <time>2019-06-21T14:35:59Z</time>
      </trkpt>
      <trkpt lat="43.175191" lon="-9.154472">
        <ele>103.280</ele>
        <time>2019-06-21T14:36:01Z</time>
      </trkpt>
      <trkpt lat="43.175238" lon="-9.154474">
        <ele>103.084</ele>
        <time>2019-06-21T14:36:02Z</time>
      </trkpt>
      <trkpt lat="43.175312" lon="-9.154491">
        <ele>102.756</ele>
        <time>2019-06-21T14:36:04Z</time>
      </trkpt>
      <trkpt lat="43.175370" lon="-9.154477">
        <ele>102.659</ele>
        <time>2019-06-21T14:36:06Z</time>
      </trkpt>
      <trkpt lat="43.175428" lon="-9.154534">
        <ele>102.103</ele>
        <time>2019-06-21T14:36:17Z</time>
      </trkpt>
      <trkpt lat="43.175456" lon="-9.154590">
        <ele>101.823</ele>
        <time>2019-06-21T14:36:18Z</time>
      </trkpt>
      <trkpt lat="43.175496" lon="-9.154653">
        <ele>101.508</ele>
        <time>2019-06-21T14:36:19Z</time>
      </trkpt>
      <trkpt lat="43.175530" lon="-9.154716">
        <ele>101.158</ele>
        <time>2019-06-21T14:36:20Z</time>
      </trkpt>
      <trkpt lat="43.175576" lon="-9.154779">
        <ele>100.682</ele>
        <time>2019-06-21T14:36:21Z</time>
      </trkpt>
      <trkpt lat="43.175604" lon="-9.154851">
        <ele>100.044</ele>
        <time>2019-06-21T14:36:22Z</time>
      </trkpt>
      <trkpt lat="43.175689" lon="-9.154918">
        <ele>99.316</ele>
        <time>2019-06-21T14:36:23Z</time>
      </trkpt>
      <trkpt lat="43.175730" lon="-9.155024">
        <ele>98.463</ele>
        <time>2019-06-21T14:36:25Z</time>
      </trkpt>
      <trkpt lat="43.175762" lon="-9.155092">
        <ele>98.359</ele>
        <time>2019-06-21T14:36:26Z</time>
      </trkpt>
      <trkpt lat="43.175797" lon="-9.155177">
        <ele>98.213</ele>
        <time>2019-06-21T14:36:27Z</time>
      </trkpt>
      <trkpt lat="43.175823" lon="-9.155263">
        <ele>98.125</ele>
        <time>2019-06-21T14:36:28Z</time>
      </trkpt>
      <trkpt lat="43.175849" lon="-9.155352">
        <ele>98.799</ele>
        <time>2019-06-21T14:36:29Z</time>
      </trkpt>
      <trkpt lat="43.175881" lon="-9.155433">
        <ele>99.307</ele>
        <time>2019-06-21T14:36:30Z</time>
      </trkpt>
      <trkpt lat="43.175919" lon="-9.155520">
        <ele>99.827</ele>
        <time>2019-06-21T14:36:31Z</time>
      </trkpt>
      <trkpt lat="43.175958" lon="-9.155580">
        <ele>100.108</ele>
        <time>2019-06-21T14:36:32Z</time>
      </trkpt>
      <trkpt lat="43.176022" lon="-9.155698">
        <ele>101.742</ele>
        <time>2019-06-21T14:36:33Z</time>
      </trkpt>
      <trkpt lat="43.176071" lon="-9.155778">
        <ele>102.646</ele>
        <time>2019-06-21T14:36:34Z</time>
      </trkpt>
      <trkpt lat="43.176132" lon="-9.155864">
        <ele>103.198</ele>
        <time>2019-06-21T14:36:35Z</time>
      </trkpt>
      <trkpt lat="43.176156" lon="-9.155936">
        <ele>103.880</ele>
        <time>2019-06-21T14:36:36Z</time>
      </trkpt>
      <trkpt lat="43.176209" lon="-9.156017">
        <ele>103.777</ele>
        <time>2019-06-21T14:36:37Z</time>
      </trkpt>
      <trkpt lat="43.176271" lon="-9.156092">
        <ele>103.153</ele>
        <time>2019-06-21T14:36:38Z</time>
      </trkpt>
      <trkpt lat="43.176341" lon="-9.156175">
        <ele>102.457</ele>
        <time>2019-06-21T14:36:39Z</time>
      </trkpt>
      <trkpt lat="43.176401" lon="-9.156263">
        <ele>101.929</ele>
        <time>2019-06-21T14:36:40Z</time>
      </trkpt>
      <trkpt lat="43.176462" lon="-9.156353">
        <ele>101.723</ele>
        <time>2019-06-21T14:36:41Z</time>
      </trkpt>
      <trkpt lat="43.176554" lon="-9.156433">
        <ele>100.983</ele>
        <time>2019-06-21T14:36:42Z</time>
      </trkpt>
      <trkpt lat="43.176613" lon="-9.156527">
        <ele>101.411</ele>
        <time>2019-06-21T14:36:43Z</time>
      </trkpt>
      <trkpt lat="43.176650" lon="-9.156630">
        <ele>102.708</ele>
        <time>2019-06-21T14:36:44Z</time>
      </trkpt>
      <trkpt lat="43.176710" lon="-9.156732">
        <ele>103.455</ele>
        <time>2019-06-21T14:36:45Z</time>
      </trkpt>
      <trkpt lat="43.176757" lon="-9.156833">
        <ele>104.799</ele>
        <time>2019-06-21T14:36:46Z</time>
      </trkpt>
      <trkpt lat="43.176825" lon="-9.156926">
        <ele>104.891</ele>
        <time>2019-06-21T14:36:47Z</time>
      </trkpt>
      <trkpt lat="43.176874" lon="-9.157011">
        <ele>105.523</ele>
        <time>2019-06-21T14:36:48Z</time>
      </trkpt>
      <trkpt lat="43.176924" lon="-9.157092">
        <ele>106.060</ele>
        <time>2019-06-21T14:36:49Z</time>
      </trkpt>
      <trkpt lat="43.176967" lon="-9.157186">
        <ele>107.136</ele>
        <time>2019-06-21T14:36:50Z</time>
      </trkpt>
      <trkpt lat="43.177026" lon="-9.157269">
        <ele>106.920</ele>
        <time>2019-06-21T14:36:51Z</time>
      </trkpt>
      <trkpt lat="43.177086" lon="-9.157347">
        <ele>106.572</ele>
        <time>2019-06-21T14:36:52Z</time>
      </trkpt>
      <trkpt lat="43.177149" lon="-9.157433">
        <ele>106.244</ele>
        <time>2019-06-21T14:36:53Z</time>
      </trkpt>
      <trkpt lat="43.177210" lon="-9.157516">
        <ele>105.905</ele>
        <time>2019-06-21T14:36:54Z</time>
      </trkpt>
      <trkpt lat="43.177251" lon="-9.157627">
        <ele>107.615</ele>
        <time>2019-06-21T14:36:55Z</time>
      </trkpt>
      <trkpt lat="43.177304" lon="-9.157721">
        <ele>108.208</ele>
        <time>2019-06-21T14:36:56Z</time>
      </trkpt>
      <trkpt lat="43.177351" lon="-9.157819">
        <ele>109.337</ele>
        <time>2019-06-21T14:36:57Z</time>
      </trkpt>
      <trkpt lat="43.177394" lon="-9.157920">
        <ele>111.041</ele>
        <time>2019-06-21T14:36:58Z</time>
      </trkpt>
      <trkpt lat="43.177447" lon="-9.158021">
        <ele>112.183</ele>
        <time>2019-06-21T14:36:59Z</time>
      </trkpt>
      <trkpt lat="43.177499" lon="-9.158126">
        <ele>113.675</ele>
        <time>2019-06-21T14:37:00Z</time>
      </trkpt>
      <trkpt lat="43.177572" lon="-9.158220">
        <ele>113.652</ele>
        <time>2019-06-21T14:37:01Z</time>
      </trkpt>
      <trkpt lat="43.177629" lon="-9.158307">
        <ele>113.738</ele>
        <time>2019-06-21T14:37:02Z</time>
      </trkpt>
      <trkpt lat="43.177667" lon="-9.158397">
        <ele>114.182</ele>
        <time>2019-06-21T14:37:03Z</time>
      </trkpt>
      <trkpt lat="43.177712" lon="-9.158477">
        <ele>113.874</ele>
        <time>2019-06-21T14:37:04Z</time>
      </trkpt>
      <trkpt lat="43.177768" lon="-9.158543">
        <ele>112.858</ele>
        <time>2019-06-21T14:37:05Z</time>
      </trkpt>
      <trkpt lat="43.177809" lon="-9.158615">
        <ele>112.452</ele>
        <time>2019-06-21T14:37:06Z</time>
      </trkpt>
      <trkpt lat="43.177857" lon="-9.158695">
        <ele>111.317</ele>
        <time>2019-06-21T14:37:07Z</time>
      </trkpt>
      <trkpt lat="43.177876" lon="-9.158789">
        <ele>112.108</ele>
        <time>2019-06-21T14:37:08Z</time>
      </trkpt>
      <trkpt lat="43.177889" lon="-9.158880">
        <ele>113.288</ele>
        <time>2019-06-21T14:37:09Z</time>
      </trkpt>
      <trkpt lat="43.177904" lon="-9.158986">
        <ele>113.312</ele>
        <time>2019-06-21T14:37:10Z</time>
      </trkpt>
      <trkpt lat="43.177918" lon="-9.159090">
        <ele>113.434</ele>
        <time>2019-06-21T14:37:11Z</time>
      </trkpt>
      <trkpt lat="43.177920" lon="-9.159197">
        <ele>113.946</ele>
        <time>2019-06-21T14:37:12Z</time>
      </trkpt>
      <trkpt lat="43.177921" lon="-9.159309">
        <ele>114.113</ele>
        <time>2019-06-21T14:37:13Z</time>
      </trkpt>
      <trkpt lat="43.177909" lon="-9.159423">
        <ele>114.879</ele>
        <time>2019-06-21T14:37:14Z</time>
      </trkpt>
      <trkpt lat="43.177897" lon="-9.159531">
        <ele>115.013</ele>
        <time>2019-06-21T14:37:15Z</time>
      </trkpt>
      <trkpt lat="43.177866" lon="-9.159668">
        <ele>115.755</ele>
        <time>2019-06-21T14:37:16Z</time>
      </trkpt>
      <trkpt lat="43.177839" lon="-9.159798">
        <ele>116.634</ele>
        <time>2019-06-21T14:37:17Z</time>
      </trkpt>
      <trkpt lat="43.177826" lon="-9.159918">
        <ele>117.155</ele>
        <time>2019-06-21T14:37:18Z</time>
      </trkpt>
      <trkpt lat="43.177813" lon="-9.160058">
        <ele>117.610</ele>
        <time>2019-06-21T14:37:19Z</time>
      </trkpt>
      <trkpt lat="43.177812" lon="-9.160203">
        <ele>117.608</ele>
        <time>2019-06-21T14:37:20Z</time>
      </trkpt>
      <trkpt lat="43.177815" lon="-9.160331">
        <ele>117.726</ele>
        <time>2019-06-21T14:37:21Z</time>
      </trkpt>
      <trkpt lat="43.177826" lon="-9.160464">
        <ele>117.870</ele>
        <time>2019-06-21T14:37:22Z</time>
      </trkpt>
      <trkpt lat="43.177833" lon="-9.160571">
        <ele>117.922</ele>
        <time>2019-06-21T14:37:23Z</time>
      </trkpt>
      <trkpt lat="43.177849" lon="-9.160694">
        <ele>118.224</ele>
        <time>2019-06-21T14:37:24Z</time>
      </trkpt>
      <trkpt lat="43.177855" lon="-9.160835">
        <ele>118.981</ele>
        <time>2019-06-21T14:37:25Z</time>
      </trkpt>
      <trkpt lat="43.177873" lon="-9.160961">
        <ele>117.667</ele>
        <time>2019-06-21T14:37:26Z</time>
      </trkpt>
      <trkpt lat="43.177875" lon="-9.161082">
        <ele>117.051</ele>
        <time>2019-06-21T14:37:27Z</time>
      </trkpt>
      <trkpt lat="43.177888" lon="-9.161190">
        <ele>116.093</ele>
        <time>2019-06-21T14:37:28Z</time>
      </trkpt>
      <trkpt lat="43.177905" lon="-9.161292">
        <ele>114.969</ele>
        <time>2019-06-21T14:37:29Z</time>
      </trkpt>
      <trkpt lat="43.177933" lon="-9.161383">
        <ele>113.604</ele>
        <time>2019-06-21T14:37:30Z</time>
      </trkpt>
      <trkpt lat="43.177935" lon="-9.161477">
        <ele>113.524</ele>
        <time>2019-06-21T14:37:31Z</time>
      </trkpt>
      <trkpt lat="43.177925" lon="-9.161576">
        <ele>113.808</ele>
        <time>2019-06-21T14:37:32Z</time>
      </trkpt>
      <trkpt lat="43.177926" lon="-9.161674">
        <ele>113.779</ele>
        <time>2019-06-21T14:37:33Z</time>
      </trkpt>
      <trkpt lat="43.177912" lon="-9.161778">
        <ele>114.133</ele>
        <time>2019-06-21T14:37:34Z</time>
      </trkpt>
      <trkpt lat="43.177909" lon="-9.161871">
        <ele>114.255</ele>
        <time>2019-06-21T14:37:35Z</time>
      </trkpt>
      <trkpt lat="43.177923" lon="-9.161959">
        <ele>113.837</ele>
        <time>2019-06-21T14:37:36Z</time>
      </trkpt>
      <trkpt lat="43.177921" lon="-9.162050">
        <ele>113.794</ele>
        <time>2019-06-21T14:37:37Z</time>
      </trkpt>
      <trkpt lat="43.177915" lon="-9.162143">
        <ele>113.790</ele>
        <time>2019-06-21T14:37:38Z</time>
      </trkpt>
      <trkpt lat="43.177881" lon="-9.162222">
        <ele>114.164</ele>
        <time>2019-06-21T14:37:39Z</time>
      </trkpt>
      <trkpt lat="43.177857" lon="-9.162303">
        <ele>114.626</ele>
        <time>2019-06-21T14:37:40Z</time>
      </trkpt>
      <trkpt lat="43.177822" lon="-9.162385">
        <ele>115.257</ele>
        <time>2019-06-21T14:37:41Z</time>
      </trkpt>
      <trkpt lat="43.177776" lon="-9.162466">
        <ele>116.000</ele>
        <time>2019-06-21T14:37:42Z</time>
      </trkpt>
      <trkpt lat="43.177704" lon="-9.162551">
        <ele>116.320</ele>
        <time>2019-06-21T14:37:43Z</time>
      </trkpt>
      <trkpt lat="43.177648" lon="-9.162623">
        <ele>116.308</ele>
        <time>2019-06-21T14:37:44Z</time>
      </trkpt>
      <trkpt lat="43.177587" lon="-9.162693">
        <ele>116.258</ele>
        <time>2019-06-21T14:37:45Z</time>
      </trkpt>
      <trkpt lat="43.177522" lon="-9.162739">
        <ele>116.222</ele>
        <time>2019-06-21T14:37:46Z</time>
      </trkpt>
      <trkpt lat="43.177459" lon="-9.162768">
        <ele>116.264</ele>
        <time>2019-06-21T14:37:47Z</time>
      </trkpt>
      <trkpt lat="43.177395" lon="-9.162797">
        <ele>116.356</ele>
        <time>2019-06-21T14:37:48Z</time>
      </trkpt>
      <trkpt lat="43.177329" lon="-9.162832">
        <ele>116.483</ele>
        <time>2019-06-21T14:37:49Z</time>
      </trkpt>
      <trkpt lat="43.177262" lon="-9.162864">
        <ele>116.539</ele>
        <time>2019-06-21T14:37:50Z</time>
      </trkpt>
      <trkpt lat="43.177198" lon="-9.162896">
        <ele>116.513</ele>
        <time>2019-06-21T14:37:51Z</time>
      </trkpt>
      <trkpt lat="43.177133" lon="-9.162918">
        <ele>116.365</ele>
        <time>2019-06-21T14:37:52Z</time>
      </trkpt>
      <trkpt lat="43.177070" lon="-9.162955">
        <ele>116.068</ele>
        <time>2019-06-21T14:37:53Z</time>
      </trkpt>
      <trkpt lat="43.177011" lon="-9.162992">
        <ele>115.642</ele>
        <time>2019-06-21T14:37:54Z</time>
      </trkpt>
      <trkpt lat="43.176948" lon="-9.163030">
        <ele>115.226</ele>
        <time>2019-06-21T14:37:55Z</time>
      </trkpt>
      <trkpt lat="43.176891" lon="-9.163084">
        <ele>114.508</ele>
        <time>2019-06-21T14:37:56Z</time>
      </trkpt>
      <trkpt lat="43.176836" lon="-9.163146">
        <ele>114.059</ele>
        <time>2019-06-21T14:37:57Z</time>
      </trkpt>
      <trkpt lat="43.176797" lon="-9.163216">
        <ele>113.743</ele>
        <time>2019-06-21T14:37:58Z</time>
      </trkpt>
      <trkpt lat="43.176756" lon="-9.163296">
        <ele>113.495</ele>
        <time>2019-06-21T14:37:59Z</time>
      </trkpt>
      <trkpt lat="43.176746" lon="-9.163418">
        <ele>113.287</ele>
        <time>2019-06-21T14:38:00Z</time>
      </trkpt>
      <trkpt lat="43.176728" lon="-9.163530">
        <ele>113.114</ele>
        <time>2019-06-21T14:38:01Z</time>
      </trkpt>
      <trkpt lat="43.176720" lon="-9.163637">
        <ele>112.970</ele>
        <time>2019-06-21T14:38:02Z</time>
      </trkpt>
      <trkpt lat="43.176725" lon="-9.163768">
        <ele>112.454</ele>
        <time>2019-06-21T14:38:03Z</time>
      </trkpt>
      <trkpt lat="43.176730" lon="-9.163890">
        <ele>112.086</ele>
        <time>2019-06-21T14:38:04Z</time>
      </trkpt>
      <trkpt lat="43.176751" lon="-9.163988">
        <ele>111.972</ele>
        <time>2019-06-21T14:38:05Z</time>
      </trkpt>
      <trkpt lat="43.176766" lon="-9.164080">
        <ele>111.813</ele>
        <time>2019-06-21T14:38:06Z</time>
      </trkpt>
      <trkpt lat="43.176796" lon="-9.164156">
        <ele>111.614</ele>
        <time>2019-06-21T14:38:07Z</time>
      </trkpt>
      <trkpt lat="43.176838" lon="-9.164209">
        <ele>111.308</ele>
        <time>2019-06-21T14:38:08Z</time>
      </trkpt>
      <trkpt lat="43.176877" lon="-9.164262">
        <ele>111.280</ele>
        <time>2019-06-21T14:38:09Z</time>
      </trkpt>
      <trkpt lat="43.176922" lon="-9.164320">
        <ele>111.054</ele>
        <time>2019-06-21T14:38:10Z</time>
      </trkpt>
      <trkpt lat="43.176974" lon="-9.164378">
        <ele>111.226</ele>
        <time>2019-06-21T14:38:11Z</time>
      </trkpt>
      <trkpt lat="43.177032" lon="-9.164427">
        <ele>111.658</ele>
        <time>2019-06-21T14:38:12Z</time>
      </trkpt>
      <trkpt lat="43.177092" lon="-9.164472">
        <ele>112.065</ele>
        <time>2019-06-21T14:38:13Z</time>
      </trkpt>
      <trkpt lat="43.177153" lon="-9.164508">
        <ele>112.361</ele>
        <time>2019-06-21T14:38:14Z</time>
      </trkpt>
      <trkpt lat="43.177217" lon="-9.164548">
        <ele>112.675</ele>
        <time>2019-06-21T14:38:15Z</time>
      </trkpt>
      <trkpt lat="43.177279" lon="-9.164580">
        <ele>112.617</ele>
        <time>2019-06-21T14:38:16Z</time>
      </trkpt>
      <trkpt lat="43.177332" lon="-9.164612">
        <ele>112.655</ele>
        <time>2019-06-21T14:38:17Z</time>
      </trkpt>
      <trkpt lat="43.177394" lon="-9.164650">
        <ele>112.707</ele>
        <time>2019-06-21T14:38:18Z</time>
      </trkpt>
      <trkpt lat="43.177457" lon="-9.164680">
        <ele>112.917</ele>
        <time>2019-06-21T14:38:19Z</time>
      </trkpt>
      <trkpt lat="43.177519" lon="-9.164698">
        <ele>112.908</ele>
        <time>2019-06-21T14:38:20Z</time>
      </trkpt>
      <trkpt lat="43.177587" lon="-9.164717">
        <ele>112.798</ele>
        <time>2019-06-21T14:38:21Z</time>
      </trkpt>
      <trkpt lat="43.177653" lon="-9.164744">
        <ele>112.422</ele>
        <time>2019-06-21T14:38:22Z</time>
      </trkpt>
      <trkpt lat="43.177710" lon="-9.164775">
        <ele>112.194</ele>
        <time>2019-06-21T14:38:23Z</time>
      </trkpt>
      <trkpt lat="43.177775" lon="-9.164794">
        <ele>111.896</ele>
        <time>2019-06-21T14:38:24Z</time>
      </trkpt>
      <trkpt lat="43.177823" lon="-9.164826">
        <ele>111.453</ele>
        <time>2019-06-21T14:38:25Z</time>
      </trkpt>
      <trkpt lat="43.177879" lon="-9.164857">
        <ele>111.099</ele>
        <time>2019-06-21T14:38:26Z</time>
      </trkpt>
      <trkpt lat="43.177940" lon="-9.164891">
        <ele>110.663</ele>
        <time>2019-06-21T14:38:27Z</time>
      </trkpt>
      <trkpt lat="43.177992" lon="-9.164938">
        <ele>110.395</ele>
        <time>2019-06-21T14:38:28Z</time>
      </trkpt>
      <trkpt lat="43.178042" lon="-9.164988">
        <ele>110.194</ele>
        <time>2019-06-21T14:38:29Z</time>
      </trkpt>
      <trkpt lat="43.178081" lon="-9.165021">
        <ele>109.657</ele>
        <time>2019-06-21T14:38:30Z</time>
      </trkpt>
      <trkpt lat="43.178124" lon="-9.165071">
        <ele>108.822</ele>
        <time>2019-06-21T14:38:31Z</time>
      </trkpt>
      <trkpt lat="43.178157" lon="-9.165122">
        <ele>108.308</ele>
        <time>2019-06-21T14:38:32Z</time>
      </trkpt>
      <trkpt lat="43.178207" lon="-9.165153">
        <ele>107.652</ele>
        <time>2019-06-21T14:38:33Z</time>
      </trkpt>
      <trkpt lat="43.178252" lon="-9.165188">
        <ele>107.086</ele>
        <time>2019-06-21T14:38:34Z</time>
      </trkpt>
      <trkpt lat="43.178292" lon="-9.165242">
        <ele>106.538</ele>
        <time>2019-06-21T14:38:35Z</time>
      </trkpt>
      <trkpt lat="43.178336" lon="-9.165286">
        <ele>106.040</ele>
        <time>2019-06-21T14:38:36Z</time>
      </trkpt>
      <trkpt lat="43.178385" lon="-9.165316">
        <ele>105.587</ele>
        <time>2019-06-21T14:38:37Z</time>
      </trkpt>
      <trkpt lat="43.178425" lon="-9.165347">
        <ele>105.283</ele>
        <time>2019-06-21T14:38:38Z</time>
      </trkpt>
      <trkpt lat="43.178468" lon="-9.165378">
        <ele>104.897</ele>
        <time>2019-06-21T14:38:39Z</time>
      </trkpt>
      <trkpt lat="43.178548" lon="-9.165447">
        <ele>104.179</ele>
        <time>2019-06-21T14:38:41Z</time>
      </trkpt>
      <trkpt lat="43.178596" lon="-9.165474">
        <ele>103.666</ele>
        <time>2019-06-21T14:38:42Z</time>
      </trkpt>
      <trkpt lat="43.178645" lon="-9.165509">
        <ele>102.829</ele>
        <time>2019-06-21T14:38:43Z</time>
      </trkpt>
      <trkpt lat="43.178709" lon="-9.165564">
        <ele>101.621</ele>
        <time>2019-06-21T14:38:45Z</time>
      </trkpt>
      <trkpt lat="43.178772" lon="-9.165603">
        <ele>100.508</ele>
        <time>2019-06-21T14:38:46Z</time>
      </trkpt>
      <trkpt lat="43.178811" lon="-9.165635">
        <ele>99.959</ele>
        <time>2019-06-21T14:38:47Z</time>
      </trkpt>
      <trkpt lat="43.178861" lon="-9.165676">
        <ele>99.063</ele>
        <time>2019-06-21T14:38:48Z</time>
      </trkpt>
      <trkpt lat="43.178910" lon="-9.165728">
        <ele>98.435</ele>
        <time>2019-06-21T14:38:49Z</time>
      </trkpt>
      <trkpt lat="43.178952" lon="-9.165765">
        <ele>97.897</ele>
        <time>2019-06-21T14:38:50Z</time>
      </trkpt>
      <trkpt lat="43.178996" lon="-9.165803">
        <ele>97.344</ele>
        <time>2019-06-21T14:38:51Z</time>
      </trkpt>
      <trkpt lat="43.179040" lon="-9.165854">
        <ele>97.130</ele>
        <time>2019-06-21T14:38:52Z</time>
      </trkpt>
      <trkpt lat="43.179087" lon="-9.165893">
        <ele>96.624</ele>
        <time>2019-06-21T14:38:53Z</time>
      </trkpt>
      <trkpt lat="43.179128" lon="-9.165932">
        <ele>96.396</ele>
        <time>2019-06-21T14:38:54Z</time>
      </trkpt>
      <trkpt lat="43.179164" lon="-9.165984">
        <ele>96.258</ele>
        <time>2019-06-21T14:38:55Z</time>
      </trkpt>
      <trkpt lat="43.179203" lon="-9.166017">
        <ele>95.552</ele>
        <time>2019-06-21T14:38:56Z</time>
      </trkpt>
      <trkpt lat="43.179248" lon="-9.166061">
        <ele>94.717</ele>
        <time>2019-06-21T14:38:57Z</time>
      </trkpt>
      <trkpt lat="43.179319" lon="-9.166150">
        <ele>93.508</ele>
        <time>2019-06-21T14:38:59Z</time>
      </trkpt>
      <trkpt lat="43.179361" lon="-9.166202">
        <ele>92.848</ele>
        <time>2019-06-21T14:39:00Z</time>
      </trkpt>
      <trkpt lat="43.179417" lon="-9.166266">
        <ele>91.662</ele>
        <time>2019-06-21T14:39:02Z</time>
      </trkpt>
      <trkpt lat="43.179458" lon="-9.166319">
        <ele>90.824</ele>
        <time>2019-06-21T14:39:03Z</time>
      </trkpt>
      <trkpt lat="43.179495" lon="-9.166379">
        <ele>90.246</ele>
        <time>2019-06-21T14:39:04Z</time>
      </trkpt>
      <trkpt lat="43.179525" lon="-9.166442">
        <ele>90.233</ele>
        <time>2019-06-21T14:39:05Z</time>
      </trkpt>
      <trkpt lat="43.179601" lon="-9.166517">
        <ele>89.019</ele>
        <time>2019-06-21T14:39:07Z</time>
      </trkpt>
      <trkpt lat="43.179638" lon="-9.166560">
        <ele>88.653</ele>
        <time>2019-06-21T14:39:08Z</time>
      </trkpt>
      <trkpt lat="43.179671" lon="-9.166612">
        <ele>88.535</ele>
        <time>2019-06-21T14:39:09Z</time>
      </trkpt>
      <trkpt lat="43.179728" lon="-9.166691">
        <ele>88.089</ele>
        <time>2019-06-21T14:39:11Z</time>
      </trkpt>
      <trkpt lat="43.179758" lon="-9.166766">
        <ele>87.706</ele>
        <time>2019-06-21T14:39:13Z</time>
      </trkpt>
      <trkpt lat="43.179787" lon="-9.166817">
        <ele>87.226</ele>
        <time>2019-06-21T14:39:15Z</time>
      </trkpt>
      <trkpt lat="43.179839" lon="-9.166861">
        <ele>85.908</ele>
        <time>2019-06-21T14:39:55Z</time>
      </trkpt>
      <trkpt lat="43.179873" lon="-9.166936">
        <ele>86.081</ele>
        <time>2019-06-21T14:40:16Z</time>
      </trkpt>
      <trkpt lat="43.179915" lon="-9.167002">
        <ele>85.655</ele>
        <time>2019-06-21T14:40:18Z</time>
      </trkpt>
      <trkpt lat="43.179963" lon="-9.167078">
        <ele>85.137</ele>
        <time>2019-06-21T14:40:20Z</time>
      </trkpt>
      <trkpt lat="43.180006" lon="-9.167152">
        <ele>84.819</ele>
        <time>2019-06-21T14:40:22Z</time>
      </trkpt>
      <trkpt lat="43.180048" lon="-9.167234">
        <ele>84.736</ele>
        <time>2019-06-21T14:40:24Z</time>
      </trkpt>
      <trkpt lat="43.180095" lon="-9.167325">
        <ele>84.922</ele>
        <time>2019-06-21T14:40:26Z</time>
      </trkpt>
      <trkpt lat="43.180163" lon="-9.167387">
        <ele>83.686</ele>
        <time>2019-06-21T14:40:28Z</time>
      </trkpt>
      <trkpt lat="43.180236" lon="-9.167450">
        <ele>81.958</ele>
        <time>2019-06-21T14:40:30Z</time>
      </trkpt>
      <trkpt lat="43.180305" lon="-9.167513">
        <ele>80.458</ele>
        <time>2019-06-21T14:40:32Z</time>
      </trkpt>
      <trkpt lat="43.180365" lon="-9.167598">
        <ele>80.152</ele>
        <time>2019-06-21T14:40:34Z</time>
      </trkpt>
      <trkpt lat="43.180406" lon="-9.167692">
        <ele>80.417</ele>
        <time>2019-06-21T14:40:36Z</time>
      </trkpt>
      <trkpt lat="43.180451" lon="-9.167741">
        <ele>79.508</ele>
        <time>2019-06-21T14:40:37Z</time>
      </trkpt>
      <trkpt lat="43.180503" lon="-9.167796">
        <ele>78.548</ele>
        <time>2019-06-21T14:40:39Z</time>
      </trkpt>
      <trkpt lat="43.180541" lon="-9.167842">
        <ele>78.042</ele>
        <time>2019-06-21T14:40:40Z</time>
      </trkpt>
      <trkpt lat="43.180578" lon="-9.167886">
        <ele>77.564</ele>
        <time>2019-06-21T14:40:41Z</time>
      </trkpt>
      <trkpt lat="43.180626" lon="-9.167935">
        <ele>76.956</ele>
        <time>2019-06-21T14:40:42Z</time>
      </trkpt>
      <trkpt lat="43.180665" lon="-9.167974">
        <ele>76.323</ele>
        <time>2019-06-21T14:40:43Z</time>
      </trkpt>
      <trkpt lat="43.180708" lon="-9.168009">
        <ele>75.569</ele>
        <time>2019-06-21T14:40:44Z</time>
      </trkpt>
      <trkpt lat="43.180753" lon="-9.168047">
        <ele>74.733</ele>
        <time>2019-06-21T14:40:45Z</time>
      </trkpt>
      <trkpt lat="43.180804" lon="-9.168074">
        <ele>73.615</ele>
        <time>2019-06-21T14:40:46Z</time>
      </trkpt>
      <trkpt lat="43.180855" lon="-9.168106">
        <ele>73.286</ele>
        <time>2019-06-21T14:40:47Z</time>
      </trkpt>
      <trkpt lat="43.180902" lon="-9.168134">
        <ele>73.260</ele>
        <time>2019-06-21T14:40:48Z</time>
      </trkpt>
      <trkpt lat="43.180949" lon="-9.168157">
        <ele>73.126</ele>
        <time>2019-06-21T14:40:49Z</time>
      </trkpt>
      <trkpt lat="43.181002" lon="-9.168170">
        <ele>72.408</ele>
        <time>2019-06-21T14:40:50Z</time>
      </trkpt>
      <trkpt lat="43.181051" lon="-9.168192">
        <ele>72.161</ele>
        <time>2019-06-21T14:40:51Z</time>
      </trkpt>
      <trkpt lat="43.181099" lon="-9.168205">
        <ele>71.545</ele>
        <time>2019-06-21T14:40:52Z</time>
      </trkpt>
      <trkpt lat="43.181150" lon="-9.168227">
        <ele>71.297</ele>
        <time>2019-06-21T14:40:53Z</time>
      </trkpt>
      <trkpt lat="43.181200" lon="-9.168260">
        <ele>71.189</ele>
        <time>2019-06-21T14:40:54Z</time>
      </trkpt>
      <trkpt lat="43.181256" lon="-9.168277">
        <ele>70.456</ele>
        <time>2019-06-21T14:40:55Z</time>
      </trkpt>
      <trkpt lat="43.181307" lon="-9.168285">
        <ele>69.512</ele>
        <time>2019-06-21T14:40:56Z</time>
      </trkpt>
      <trkpt lat="43.181352" lon="-9.168294">
        <ele>68.876</ele>
        <time>2019-06-21T14:40:57Z</time>
      </trkpt>
      <trkpt lat="43.181409" lon="-9.168303">
        <ele>67.818</ele>
        <time>2019-06-21T14:40:58Z</time>
      </trkpt>
      <trkpt lat="43.181455" lon="-9.168306">
        <ele>66.877</ele>
        <time>2019-06-21T14:40:59Z</time>
      </trkpt>
      <trkpt lat="43.181518" lon="-9.168280">
        <ele>64.761</ele>
        <time>2019-06-21T14:41:01Z</time>
      </trkpt>
      <trkpt lat="43.181572" lon="-9.168275">
        <ele>63.327</ele>
        <time>2019-06-21T14:41:04Z</time>
      </trkpt>
      <trkpt lat="43.181553" lon="-9.168215">
        <ele>62.008</ele>
        <time>2019-06-21T14:41:30Z</time>
      </trkpt>
      <trkpt lat="43.181575" lon="-9.168274">
        <ele>63.280</ele>
        <time>2019-06-21T14:42:59Z</time>
      </trkpt>
      <trkpt lat="43.181621" lon="-9.168287">
        <ele>62.514</ele>
        <time>2019-06-21T14:43:04Z</time>
      </trkpt>
      <trkpt lat="43.181666" lon="-9.168269">
        <ele>60.916</ele>
        <time>2019-06-21T14:43:46Z</time>
      </trkpt>
      <trkpt lat="43.181610" lon="-9.168242">
        <ele>61.438</ele>
        <time>2019-06-21T14:43:53Z</time>
      </trkpt>
      <trkpt lat="43.181560" lon="-9.168223">
        <ele>62.015</ele>
        <time>2019-06-21T14:43:56Z</time>
      </trkpt>
      <trkpt lat="43.181519" lon="-9.168194">
        <ele>62.221</ele>
        <time>2019-06-21T14:44:01Z</time>
      </trkpt>
      <trkpt lat="43.181559" lon="-9.168225">
        <ele>62.145</ele>
        <time>2019-06-21T14:44:08Z</time>
      </trkpt>
      <trkpt lat="43.181597" lon="-9.168259">
        <ele>62.217</ele>
        <time>2019-06-21T14:44:17Z</time>
      </trkpt>
      <trkpt lat="43.181644" lon="-9.168266">
        <ele>61.355</ele>
        <time>2019-06-21T14:44:22Z</time>
      </trkpt>
      <trkpt lat="43.181694" lon="-9.168251">
        <ele>59.707</ele>
        <time>2019-06-21T14:44:52Z</time>
      </trkpt>
      <trkpt lat="43.181734" lon="-9.168306">
        <ele>60.717</ele>
        <time>2019-06-21T14:46:05Z</time>
      </trkpt>
      <trkpt lat="43.181789" lon="-9.168323">
        <ele>60.008</ele>
        <time>2019-06-21T14:46:07Z</time>
      </trkpt>
      <trkpt lat="43.181844" lon="-9.168341">
        <ele>59.548</ele>
        <time>2019-06-21T14:46:09Z</time>
      </trkpt>
      <trkpt lat="43.181917" lon="-9.168370">
        <ele>58.982</ele>
        <time>2019-06-21T14:46:11Z</time>
      </trkpt>
      <trkpt lat="43.181992" lon="-9.168401">
        <ele>58.344</ele>
        <time>2019-06-21T14:46:13Z</time>
      </trkpt>
      <trkpt lat="43.182076" lon="-9.168446">
        <ele>57.986</ele>
        <time>2019-06-21T14:46:15Z</time>
      </trkpt>
      <trkpt lat="43.182118" lon="-9.168469">
        <ele>57.893</ele>
        <time>2019-06-21T14:46:16Z</time>
      </trkpt>
      <trkpt lat="43.182162" lon="-9.168495">
        <ele>57.899</ele>
        <time>2019-06-21T14:46:17Z</time>
      </trkpt>
      <trkpt lat="43.182205" lon="-9.168523">
        <ele>57.973</ele>
        <time>2019-06-21T14:46:18Z</time>
      </trkpt>
      <trkpt lat="43.182266" lon="-9.168589">
        <ele>58.485</ele>
        <time>2019-06-21T14:46:20Z</time>
      </trkpt>
      <trkpt lat="43.182337" lon="-9.168633">
        <ele>57.219</ele>
        <time>2019-06-21T14:46:22Z</time>
      </trkpt>
      <trkpt lat="43.182406" lon="-9.168678">
        <ele>55.909</ele>
        <time>2019-06-21T14:46:24Z</time>
      </trkpt>
      <trkpt lat="43.182481" lon="-9.168737">
        <ele>54.819</ele>
        <time>2019-06-21T14:46:26Z</time>
      </trkpt>
      <trkpt lat="43.182524" lon="-9.168771">
        <ele>54.308</ele>
        <time>2019-06-21T14:46:27Z</time>
      </trkpt>
      <trkpt lat="43.182600" lon="-9.168829">
        <ele>53.354</ele>
        <time>2019-06-21T14:46:29Z</time>
      </trkpt>
      <trkpt lat="43.182645" lon="-9.168861">
        <ele>52.528</ele>
        <time>2019-06-21T14:46:30Z</time>
      </trkpt>
      <trkpt lat="43.182715" lon="-9.168930">
        <ele>51.970</ele>
        <time>2019-06-21T14:46:32Z</time>
      </trkpt>
      <trkpt lat="43.182747" lon="-9.168974">
        <ele>52.092</ele>
        <time>2019-06-21T14:46:33Z</time>
      </trkpt>
      <trkpt lat="43.182811" lon="-9.168992">
        <ele>50.169</ele>
        <time>2019-06-21T14:46:35Z</time>
      </trkpt>
      <trkpt lat="43.182852" lon="-9.169040">
        <ele>49.935</ele>
        <time>2019-06-21T14:46:36Z</time>
      </trkpt>
      <trkpt lat="43.182894" lon="-9.169070">
        <ele>49.149</ele>
        <time>2019-06-21T14:46:37Z</time>
      </trkpt>
      <trkpt lat="43.182936" lon="-9.169109">
        <ele>48.561</ele>
        <time>2019-06-21T14:46:38Z</time>
      </trkpt>
      <trkpt lat="43.182979" lon="-9.169144">
        <ele>47.771</ele>
        <time>2019-06-21T14:46:39Z</time>
      </trkpt>
      <trkpt lat="43.183022" lon="-9.169164">
        <ele>46.441</ele>
        <time>2019-06-21T14:46:40Z</time>
      </trkpt>
      <trkpt lat="43.183065" lon="-9.169194">
        <ele>45.715</ele>
        <time>2019-06-21T14:46:41Z</time>
      </trkpt>
      <trkpt lat="43.183134" lon="-9.169244">
        <ele>45.608</ele>
        <time>2019-06-21T14:46:43Z</time>
      </trkpt>
      <trkpt lat="43.183175" lon="-9.169283">
        <ele>45.670</ele>
        <time>2019-06-21T14:46:44Z</time>
      </trkpt>
      <trkpt lat="43.183246" lon="-9.169314">
        <ele>44.634</ele>
        <time>2019-06-21T14:46:46Z</time>
      </trkpt>
      <trkpt lat="43.183320" lon="-9.169370">
        <ele>43.826</ele>
        <time>2019-06-21T14:46:48Z</time>
      </trkpt>
      <trkpt lat="43.183382" lon="-9.169417">
        <ele>43.418</ele>
        <time>2019-06-21T14:46:50Z</time>
      </trkpt>
      <trkpt lat="43.183427" lon="-9.169451">
        <ele>43.195</ele>
        <time>2019-06-21T14:46:51Z</time>
      </trkpt>
      <trkpt lat="43.183507" lon="-9.169497">
        <ele>42.451</ele>
        <time>2019-06-21T14:46:53Z</time>
      </trkpt>
      <trkpt lat="43.183549" lon="-9.169529">
        <ele>42.145</ele>
        <time>2019-06-21T14:46:54Z</time>
      </trkpt>
      <trkpt lat="43.183591" lon="-9.169561">
        <ele>41.637</ele>
        <time>2019-06-21T14:46:55Z</time>
      </trkpt>
      <trkpt lat="43.183671" lon="-9.169607">
        <ele>39.992</ele>
        <time>2019-06-21T14:46:57Z</time>
      </trkpt>
      <trkpt lat="43.183753" lon="-9.169661">
        <ele>37.973</ele>
        <time>2019-06-21T14:46:59Z</time>
      </trkpt>
      <trkpt lat="43.183817" lon="-9.169703">
        <ele>36.320</ele>
        <time>2019-06-21T14:47:01Z</time>
      </trkpt>
      <trkpt lat="43.183891" lon="-9.169760">
        <ele>35.008</ele>
        <time>2019-06-21T14:47:03Z</time>
      </trkpt>
      <trkpt lat="43.183946" lon="-9.169818">
        <ele>34.882</ele>
        <time>2019-06-21T14:47:05Z</time>
      </trkpt>
      <trkpt lat="43.184008" lon="-9.169880">
        <ele>34.216</ele>
        <time>2019-06-21T14:47:07Z</time>
      </trkpt>
      <trkpt lat="43.184075" lon="-9.169942">
        <ele>33.298</ele>
        <time>2019-06-21T14:47:09Z</time>
      </trkpt>
      <trkpt lat="43.184139" lon="-9.170006">
        <ele>32.350</ele>
        <time>2019-06-21T14:47:11Z</time>
      </trkpt>
      <trkpt lat="43.184195" lon="-9.170071">
        <ele>32.327</ele>
        <time>2019-06-21T14:47:13Z</time>
      </trkpt>
      <trkpt lat="43.184241" lon="-9.170102">
        <ele>31.983</ele>
        <time>2019-06-21T14:47:14Z</time>
      </trkpt>
      <trkpt lat="43.184302" lon="-9.170165">
        <ele>31.767</ele>
        <time>2019-06-21T14:47:16Z</time>
      </trkpt>
      <trkpt lat="43.184377" lon="-9.170217">
        <ele>30.379</ele>
        <time>2019-06-21T14:47:18Z</time>
      </trkpt>
      <trkpt lat="43.184459" lon="-9.170245">
        <ele>28.278</ele>
        <time>2019-06-21T14:47:20Z</time>
      </trkpt>
      <trkpt lat="43.184504" lon="-9.170262">
        <ele>27.533</ele>
        <time>2019-06-21T14:47:21Z</time>
      </trkpt>
      <trkpt lat="43.184569" lon="-9.170317">
        <ele>26.926</ele>
        <time>2019-06-21T14:47:23Z</time>
      </trkpt>
      <trkpt lat="43.184613" lon="-9.170351">
        <ele>26.408</ele>
        <time>2019-06-21T14:47:24Z</time>
      </trkpt>
      <trkpt lat="43.184659" lon="-9.170369">
        <ele>25.590</ele>
        <time>2019-06-21T14:47:25Z</time>
      </trkpt>
      <trkpt lat="43.184710" lon="-9.170436">
        <ele>25.024</ele>
        <time>2019-06-21T14:47:27Z</time>
      </trkpt>
      <trkpt lat="43.184768" lon="-9.170507">
        <ele>24.526</ele>
        <time>2019-06-21T14:47:29Z</time>
      </trkpt>
      <trkpt lat="43.184821" lon="-9.170590">
        <ele>23.958</ele>
        <time>2019-06-21T14:47:31Z</time>
      </trkpt>
      <trkpt lat="43.184897" lon="-9.170658">
        <ele>22.535</ele>
        <time>2019-06-21T14:47:33Z</time>
      </trkpt>
      <trkpt lat="43.184972" lon="-9.170707">
        <ele>21.191</ele>
        <time>2019-06-21T14:47:35Z</time>
      </trkpt>
      <trkpt lat="43.185051" lon="-9.170754">
        <ele>20.435</ele>
        <time>2019-06-21T14:47:37Z</time>
      </trkpt>
      <trkpt lat="43.185110" lon="-9.170801">
        <ele>20.447</ele>
        <time>2019-06-21T14:47:39Z</time>
      </trkpt>
      <trkpt lat="43.185145" lon="-9.170851">
        <ele>20.514</ele>
        <time>2019-06-21T14:50:31Z</time>
      </trkpt>
      <trkpt lat="43.185171" lon="-9.170798">
        <ele>20.154</ele>
        <time>2019-06-21T14:50:46Z</time>
      </trkpt>
      <trkpt lat="43.185126" lon="-9.170817">
        <ele>20.409</ele>
        <time>2019-06-21T14:51:00Z</time>
      </trkpt>
      <trkpt lat="43.184760" lon="-9.172115">
        <ele>18.208</ele>
        <time>2019-06-21T15:15:26Z</time>
      </trkpt>
      <trkpt lat="43.184747" lon="-9.172220">
        <ele>17.724</ele>
        <time>2019-06-21T15:15:46Z</time>
      </trkpt>
      <trkpt lat="43.184727" lon="-9.172304">
        <ele>16.878</ele>
        <time>2019-06-21T15:15:47Z</time>
      </trkpt>
      <trkpt lat="43.184708" lon="-9.172403">
        <ele>15.730</ele>
        <time>2019-06-21T15:15:48Z</time>
      </trkpt>
      <trkpt lat="43.184693" lon="-9.172502">
        <ele>14.612</ele>
        <time>2019-06-21T15:15:49Z</time>
      </trkpt>
      <trkpt lat="43.184684" lon="-9.172596">
        <ele>14.349</ele>
        <time>2019-06-21T15:15:50Z</time>
      </trkpt>
      <trkpt lat="43.184677" lon="-9.172684">
        <ele>14.095</ele>
        <time>2019-06-21T15:15:51Z</time>
      </trkpt>
      <trkpt lat="43.184672" lon="-9.172769">
        <ele>13.619</ele>
        <time>2019-06-21T15:15:52Z</time>
      </trkpt>
      <trkpt lat="43.184672" lon="-9.172847">
        <ele>13.041</ele>
        <time>2019-06-21T15:15:53Z</time>
      </trkpt>
      <trkpt lat="43.184661" lon="-9.172926">
        <ele>12.531</ele>
        <time>2019-06-21T15:15:54Z</time>
      </trkpt>
      <trkpt lat="43.184645" lon="-9.172996">
        <ele>12.061</ele>
        <time>2019-06-21T15:15:55Z</time>
      </trkpt>
      <trkpt lat="43.184630" lon="-9.173076">
        <ele>11.507</ele>
        <time>2019-06-21T15:15:56Z</time>
      </trkpt>
      <trkpt lat="43.184591" lon="-9.173153">
        <ele>11.308</ele>
        <time>2019-06-21T15:15:57Z</time>
      </trkpt>
      <trkpt lat="43.184561" lon="-9.173230">
        <ele>10.896</ele>
        <time>2019-06-21T15:15:58Z</time>
      </trkpt>
      <trkpt lat="43.184528" lon="-9.173299">
        <ele>10.320</ele>
        <time>2019-06-21T15:15:59Z</time>
      </trkpt>
      <trkpt lat="43.184489" lon="-9.173372">
        <ele>9.752</ele>
        <time>2019-06-21T15:16:00Z</time>
      </trkpt>
      <trkpt lat="43.184436" lon="-9.173451">
        <ele>9.224</ele>
        <time>2019-06-21T15:16:01Z</time>
      </trkpt>
      <trkpt lat="43.184396" lon="-9.173510">
        <ele>8.951</ele>
        <time>2019-06-21T15:16:02Z</time>
      </trkpt>
      <trkpt lat="43.184349" lon="-9.173561">
        <ele>8.767</ele>
        <time>2019-06-21T15:16:03Z</time>
      </trkpt>
      <trkpt lat="43.184296" lon="-9.173621">
        <ele>8.541</ele>
        <time>2019-06-21T15:16:04Z</time>
      </trkpt>
      <trkpt lat="43.184248" lon="-9.173669">
        <ele>8.463</ele>
        <time>2019-06-21T15:16:05Z</time>
      </trkpt>
      <trkpt lat="43.184200" lon="-9.173730">
        <ele>8.435</ele>
        <time>2019-06-21T15:16:06Z</time>
      </trkpt>
      <trkpt lat="43.184152" lon="-9.173790">
        <ele>8.586</ele>
        <time>2019-06-21T15:16:07Z</time>
      </trkpt>
      <trkpt lat="43.184105" lon="-9.173867">
        <ele>8.714</ele>
        <time>2019-06-21T15:16:08Z</time>
      </trkpt>
      <trkpt lat="43.184066" lon="-9.173939">
        <ele>9.008</ele>
        <time>2019-06-21T15:16:09Z</time>
      </trkpt>
      <trkpt lat="43.184028" lon="-9.174008">
        <ele>9.376</ele>
        <time>2019-06-21T15:16:10Z</time>
      </trkpt>
      <trkpt lat="43.183993" lon="-9.174072">
        <ele>9.630</ele>
        <time>2019-06-21T15:16:11Z</time>
      </trkpt>
      <trkpt lat="43.183962" lon="-9.174141">
        <ele>10.062</ele>
        <time>2019-06-21T15:16:12Z</time>
      </trkpt>
      <trkpt lat="43.183944" lon="-9.174211">
        <ele>10.344</ele>
        <time>2019-06-21T15:16:13Z</time>
      </trkpt>
      <trkpt lat="43.183931" lon="-9.174299">
        <ele>10.811</ele>
        <time>2019-06-21T15:16:14Z</time>
      </trkpt>
      <trkpt lat="43.183918" lon="-9.174379">
        <ele>11.327</ele>
        <time>2019-06-21T15:16:15Z</time>
      </trkpt>
      <trkpt lat="43.183926" lon="-9.174468">
        <ele>11.381</ele>
        <time>2019-06-21T15:16:16Z</time>
      </trkpt>
      <trkpt lat="43.183922" lon="-9.174561">
        <ele>11.453</ele>
        <time>2019-06-21T15:16:17Z</time>
      </trkpt>
      <trkpt lat="43.183926" lon="-9.174656">
        <ele>11.383</ele>
        <time>2019-06-21T15:16:18Z</time>
      </trkpt>
      <trkpt lat="43.183933" lon="-9.174750">
        <ele>11.225</ele>
        <time>2019-06-21T15:16:19Z</time>
      </trkpt>
      <trkpt lat="43.183943" lon="-9.174843">
        <ele>10.917</ele>
        <time>2019-06-21T15:16:20Z</time>
      </trkpt>
      <trkpt lat="43.183952" lon="-9.174940">
        <ele>10.708</ele>
        <time>2019-06-21T15:16:21Z</time>
      </trkpt>
      <trkpt lat="43.183966" lon="-9.175048">
        <ele>10.431</ele>
        <time>2019-06-21T15:16:22Z</time>
      </trkpt>
      <trkpt lat="43.183985" lon="-9.175148">
        <ele>10.135</ele>
        <time>2019-06-21T15:16:23Z</time>
      </trkpt>
      <trkpt lat="43.183998" lon="-9.175248">
        <ele>10.027</ele>
        <time>2019-06-21T15:16:24Z</time>
      </trkpt>
      <trkpt lat="43.184024" lon="-9.175314">
        <ele>9.799</ele>
        <time>2019-06-21T15:16:25Z</time>
      </trkpt>
      <trkpt lat="43.184044" lon="-9.175406">
        <ele>9.796</ele>
        <time>2019-06-21T15:16:26Z</time>
      </trkpt>
      <trkpt lat="43.184053" lon="-9.175492">
        <ele>10.082</ele>
        <time>2019-06-21T15:16:27Z</time>
      </trkpt>
      <trkpt lat="43.184053" lon="-9.175587">
        <ele>10.276</ele>
        <time>2019-06-21T15:16:28Z</time>
      </trkpt>
      <trkpt lat="43.184052" lon="-9.175682">
        <ele>10.188</ele>
        <time>2019-06-21T15:16:29Z</time>
      </trkpt>
      <trkpt lat="43.184048" lon="-9.175775">
        <ele>9.943</ele>
        <time>2019-06-21T15:16:30Z</time>
      </trkpt>
      <trkpt lat="43.184030" lon="-9.175854">
        <ele>9.964</ele>
        <time>2019-06-21T15:16:31Z</time>
      </trkpt>
      <trkpt lat="43.184011" lon="-9.175937">
        <ele>10.010</ele>
        <time>2019-06-21T15:16:32Z</time>
      </trkpt>
      <trkpt lat="43.183980" lon="-9.176016">
        <ele>10.108</ele>
        <time>2019-06-21T15:16:33Z</time>
      </trkpt>
      <trkpt lat="43.183944" lon="-9.176096">
        <ele>10.457</ele>
        <time>2019-06-21T15:16:34Z</time>
      </trkpt>
      <trkpt lat="43.183902" lon="-9.176172">
        <ele>10.691</ele>
        <time>2019-06-21T15:16:35Z</time>
      </trkpt>
      <trkpt lat="43.183855" lon="-9.176247">
        <ele>10.793</ele>
        <time>2019-06-21T15:16:36Z</time>
      </trkpt>
      <trkpt lat="43.183811" lon="-9.176326">
        <ele>10.665</ele>
        <time>2019-06-21T15:16:37Z</time>
      </trkpt>
      <trkpt lat="43.183763" lon="-9.176400">
        <ele>10.492</ele>
        <time>2019-06-21T15:16:38Z</time>
      </trkpt>
      <trkpt lat="43.183715" lon="-9.176468">
        <ele>10.188</ele>
        <time>2019-06-21T15:16:39Z</time>
      </trkpt>
      <trkpt lat="43.183665" lon="-9.176526">
        <ele>9.892</ele>
        <time>2019-06-21T15:16:40Z</time>
      </trkpt>
      <trkpt lat="43.183609" lon="-9.176583">
        <ele>9.694</ele>
        <time>2019-06-21T15:16:41Z</time>
      </trkpt>
      <trkpt lat="43.183556" lon="-9.176642">
        <ele>9.489</ele>
        <time>2019-06-21T15:16:42Z</time>
      </trkpt>
      <trkpt lat="43.183502" lon="-9.176713">
        <ele>8.906</ele>
        <time>2019-06-21T15:16:43Z</time>
      </trkpt>
      <trkpt lat="43.183443" lon="-9.176777">
        <ele>8.426</ele>
        <time>2019-06-21T15:16:44Z</time>
      </trkpt>
      <trkpt lat="43.183384" lon="-9.176846">
        <ele>7.908</ele>
        <time>2019-06-21T15:16:45Z</time>
      </trkpt>
      <trkpt lat="43.183314" lon="-9.176918">
        <ele>7.441</ele>
        <time>2019-06-21T15:16:46Z</time>
      </trkpt>
      <trkpt lat="43.183249" lon="-9.176978">
        <ele>6.975</ele>
        <time>2019-06-21T15:16:47Z</time>
      </trkpt>
      <trkpt lat="43.183181" lon="-9.177026">
        <ele>6.747</ele>
        <time>2019-06-21T15:16:48Z</time>
      </trkpt>
      <trkpt lat="43.183119" lon="-9.177057">
        <ele>6.659</ele>
        <time>2019-06-21T15:16:49Z</time>
      </trkpt>
      <trkpt lat="43.183049" lon="-9.177078">
        <ele>6.676</ele>
        <time>2019-06-21T15:16:50Z</time>
      </trkpt>
      <trkpt lat="43.182974" lon="-9.177099">
        <ele>6.882</ele>
        <time>2019-06-21T15:16:51Z</time>
      </trkpt>
      <trkpt lat="43.182905" lon="-9.177121">
        <ele>6.846</ele>
        <time>2019-06-21T15:16:52Z</time>
      </trkpt>
      <trkpt lat="43.182822" lon="-9.177136">
        <ele>7.098</ele>
        <time>2019-06-21T15:16:53Z</time>
      </trkpt>
      <trkpt lat="43.182738" lon="-9.177149">
        <ele>7.242</ele>
        <time>2019-06-21T15:16:54Z</time>
      </trkpt>
      <trkpt lat="43.182664" lon="-9.177151">
        <ele>7.422</ele>
        <time>2019-06-21T15:16:55Z</time>
      </trkpt>
      <trkpt lat="43.182587" lon="-9.177159">
        <ele>7.614</ele>
        <time>2019-06-21T15:16:56Z</time>
      </trkpt>
      <trkpt lat="43.182511" lon="-9.177167">
        <ele>7.808</ele>
        <time>2019-06-21T15:16:57Z</time>
      </trkpt>
      <trkpt lat="43.182441" lon="-9.177173">
        <ele>8.117</ele>
        <time>2019-06-21T15:16:58Z</time>
      </trkpt>
      <trkpt lat="43.182366" lon="-9.177185">
        <ele>8.471</ele>
        <time>2019-06-21T15:16:59Z</time>
      </trkpt>
      <trkpt lat="43.182285" lon="-9.177192">
        <ele>8.973</ele>
        <time>2019-06-21T15:17:00Z</time>
      </trkpt>
      <trkpt lat="43.182211" lon="-9.177197">
        <ele>9.315</ele>
        <time>2019-06-21T15:17:01Z</time>
      </trkpt>
      <trkpt lat="43.182126" lon="-9.177206">
        <ele>9.282</ele>
        <time>2019-06-21T15:17:02Z</time>
      </trkpt>
      <trkpt lat="43.182039" lon="-9.177228">
        <ele>9.088</ele>
        <time>2019-06-21T15:17:03Z</time>
      </trkpt>
      <trkpt lat="43.181956" lon="-9.177240">
        <ele>8.962</ele>
        <time>2019-06-21T15:17:04Z</time>
      </trkpt>
      <trkpt lat="43.181872" lon="-9.177254">
        <ele>8.784</ele>
        <time>2019-06-21T15:17:05Z</time>
      </trkpt>
      <trkpt lat="43.181786" lon="-9.177244">
        <ele>8.883</ele>
        <time>2019-06-21T15:17:06Z</time>
      </trkpt>
      <trkpt lat="43.181699" lon="-9.177248">
        <ele>8.725</ele>
        <time>2019-06-21T15:17:07Z</time>
      </trkpt>
      <trkpt lat="43.181610" lon="-9.177249">
        <ele>8.717</ele>
        <time>2019-06-21T15:17:08Z</time>
      </trkpt>
      <trkpt lat="43.181519" lon="-9.177244">
        <ele>8.808</ele>
        <time>2019-06-21T15:17:09Z</time>
      </trkpt>
      <trkpt lat="43.181430" lon="-9.177231">
        <ele>8.911</ele>
        <time>2019-06-21T15:17:10Z</time>
      </trkpt>
      <trkpt lat="43.181342" lon="-9.177221">
        <ele>9.055</ele>
        <time>2019-06-21T15:17:11Z</time>
      </trkpt>
      <trkpt lat="43.181257" lon="-9.177217">
        <ele>9.057</ele>
        <time>2019-06-21T15:17:12Z</time>
      </trkpt>
      <trkpt lat="43.181165" lon="-9.177212">
        <ele>9.199</ele>
        <time>2019-06-21T15:17:13Z</time>
      </trkpt>
      <trkpt lat="43.181075" lon="-9.177204">
        <ele>9.626</ele>
        <time>2019-06-21T15:17:14Z</time>
      </trkpt>
      <trkpt lat="43.180981" lon="-9.177196">
        <ele>10.782</ele>
        <time>2019-06-21T15:17:15Z</time>
      </trkpt>
      <trkpt lat="43.180884" lon="-9.177190">
        <ele>11.816</ele>
        <time>2019-06-21T15:17:16Z</time>
      </trkpt>
      <trkpt lat="43.180792" lon="-9.177184">
        <ele>12.638</ele>
        <time>2019-06-21T15:17:17Z</time>
      </trkpt>
      <trkpt lat="43.180698" lon="-9.177175">
        <ele>13.021</ele>
        <time>2019-06-21T15:17:18Z</time>
      </trkpt>
      <trkpt lat="43.180614" lon="-9.177167">
        <ele>13.441</ele>
        <time>2019-06-21T15:17:19Z</time>
      </trkpt>
      <trkpt lat="43.180546" lon="-9.177158">
        <ele>13.705</ele>
        <time>2019-06-21T15:17:20Z</time>
      </trkpt>
      <trkpt lat="43.180476" lon="-9.177147">
        <ele>13.808</ele>
        <time>2019-06-21T15:17:21Z</time>
      </trkpt>
      <trkpt lat="43.180407" lon="-9.177138">
        <ele>13.945</ele>
        <time>2019-06-21T15:17:22Z</time>
      </trkpt>
      <trkpt lat="43.180345" lon="-9.177132">
        <ele>14.069</ele>
        <time>2019-06-21T15:17:23Z</time>
      </trkpt>
      <trkpt lat="43.180288" lon="-9.177124">
        <ele>14.151</ele>
        <time>2019-06-21T15:17:24Z</time>
      </trkpt>
      <trkpt lat="43.180207" lon="-9.177115">
        <ele>14.163</ele>
        <time>2019-06-21T15:17:26Z</time>
      </trkpt>
      <trkpt lat="43.180118" lon="-9.177086">
        <ele>14.260</ele>
        <time>2019-06-21T15:18:50Z</time>
      </trkpt>
      <trkpt lat="43.180057" lon="-9.177087">
        <ele>14.186</ele>
        <time>2019-06-21T15:18:51Z</time>
      </trkpt>
      <trkpt lat="43.179994" lon="-9.177097">
        <ele>13.980</ele>
        <time>2019-06-21T15:18:52Z</time>
      </trkpt>
      <trkpt lat="43.179933" lon="-9.177124">
        <ele>13.942</ele>
        <time>2019-06-21T15:18:53Z</time>
      </trkpt>
      <trkpt lat="43.179873" lon="-9.177153">
        <ele>14.033</ele>
        <time>2019-06-21T15:18:54Z</time>
      </trkpt>
      <trkpt lat="43.179816" lon="-9.177182">
        <ele>14.023</ele>
        <time>2019-06-21T15:18:55Z</time>
      </trkpt>
      <trkpt lat="43.179753" lon="-9.177223">
        <ele>13.915</ele>
        <time>2019-06-21T15:18:56Z</time>
      </trkpt>
      <trkpt lat="43.179695" lon="-9.177261">
        <ele>13.608</ele>
        <time>2019-06-21T15:18:57Z</time>
      </trkpt>
      <trkpt lat="43.179631" lon="-9.177309">
        <ele>13.316</ele>
        <time>2019-06-21T15:18:58Z</time>
      </trkpt>
      <trkpt lat="43.179565" lon="-9.177363">
        <ele>13.180</ele>
        <time>2019-06-21T15:18:59Z</time>
      </trkpt>
      <trkpt lat="43.179496" lon="-9.177424">
        <ele>13.052</ele>
        <time>2019-06-21T15:19:00Z</time>
      </trkpt>
      <trkpt lat="43.179432" lon="-9.177492">
        <ele>13.094</ele>
        <time>2019-06-21T15:19:01Z</time>
      </trkpt>
      <trkpt lat="43.179388" lon="-9.177538">
        <ele>12.921</ele>
        <time>2019-06-21T15:19:02Z</time>
      </trkpt>
      <trkpt lat="43.179324" lon="-9.177599">
        <ele>12.867</ele>
        <time>2019-06-21T15:19:03Z</time>
      </trkpt>
      <trkpt lat="43.179263" lon="-9.177662">
        <ele>12.891</ele>
        <time>2019-06-21T15:19:04Z</time>
      </trkpt>
      <trkpt lat="43.179203" lon="-9.177719">
        <ele>12.983</ele>
        <time>2019-06-21T15:19:05Z</time>
      </trkpt>
      <trkpt lat="43.179145" lon="-9.177782">
        <ele>13.038</ele>
        <time>2019-06-21T15:19:06Z</time>
      </trkpt>
      <trkpt lat="43.179100" lon="-9.177837">
        <ele>12.870</ele>
        <time>2019-06-21T15:19:07Z</time>
      </trkpt>
      <trkpt lat="43.179049" lon="-9.177885">
        <ele>12.617</ele>
        <time>2019-06-21T15:19:08Z</time>
      </trkpt>
      <trkpt lat="43.179006" lon="-9.177922">
        <ele>12.508</ele>
        <time>2019-06-21T15:19:09Z</time>
      </trkpt>
      <trkpt lat="43.178959" lon="-9.177981">
        <ele>12.336</ele>
        <time>2019-06-21T15:19:11Z</time>
      </trkpt>
      <trkpt lat="43.178910" lon="-9.177977">
        <ele>12.390</ele>
        <time>2019-06-21T15:19:19Z</time>
      </trkpt>
      <trkpt lat="43.178993" lon="-9.177889">
        <ele>12.652</ele>
        <time>2019-06-21T15:19:22Z</time>
      </trkpt>
      <trkpt lat="43.179045" lon="-9.177828">
        <ele>12.894</ele>
        <time>2019-06-21T15:19:23Z</time>
      </trkpt>
      <trkpt lat="43.179082" lon="-9.177781">
        <ele>13.051</ele>
        <time>2019-06-21T15:19:24Z</time>
      </trkpt>
      <trkpt lat="43.179120" lon="-9.177740">
        <ele>13.057</ele>
        <time>2019-06-21T15:19:25Z</time>
      </trkpt>
      <trkpt lat="43.179172" lon="-9.177724">
        <ele>13.061</ele>
        <time>2019-06-21T15:19:27Z</time>
      </trkpt>
      <trkpt lat="43.179170" lon="-9.177808">
        <ele>12.973</ele>
        <time>2019-06-21T15:19:30Z</time>
      </trkpt>
      <trkpt lat="43.179126" lon="-9.177869">
        <ele>12.742</ele>
        <time>2019-06-21T15:19:32Z</time>
      </trkpt>
      <trkpt lat="43.179071" lon="-9.177887">
        <ele>12.622</ele>
        <time>2019-06-21T15:20:43Z</time>
      </trkpt>
      <trkpt lat="43.178997" lon="-9.177904">
        <ele>12.514</ele>
        <time>2019-06-21T15:20:45Z</time>
      </trkpt>
      <trkpt lat="43.178949" lon="-9.177981">
        <ele>12.308</ele>
        <time>2019-06-21T15:20:46Z</time>
      </trkpt>
      <trkpt lat="43.178904" lon="-9.178029">
        <ele>12.127</ele>
        <time>2019-06-21T15:20:47Z</time>
      </trkpt>
      <trkpt lat="43.178848" lon="-9.178075">
        <ele>12.051</ele>
        <time>2019-06-21T15:20:48Z</time>
      </trkpt>
      <trkpt lat="43.178801" lon="-9.178115">
        <ele>11.853</ele>
        <time>2019-06-21T15:20:49Z</time>
      </trkpt>
      <trkpt lat="43.178759" lon="-9.178156">
        <ele>11.485</ele>
        <time>2019-06-21T15:20:50Z</time>
      </trkpt>
      <trkpt lat="43.178705" lon="-9.178193">
        <ele>11.012</ele>
        <time>2019-06-21T15:20:51Z</time>
      </trkpt>
      <trkpt lat="43.178651" lon="-9.178226">
        <ele>10.698</ele>
        <time>2019-06-21T15:20:52Z</time>
      </trkpt>
      <trkpt lat="43.178589" lon="-9.178258">
        <ele>10.242</ele>
        <time>2019-06-21T15:20:53Z</time>
      </trkpt>
      <trkpt lat="43.178519" lon="-9.178298">
        <ele>9.944</ele>
        <time>2019-06-21T15:20:54Z</time>
      </trkpt>
      <trkpt lat="43.178455" lon="-9.178329">
        <ele>9.697</ele>
        <time>2019-06-21T15:20:55Z</time>
      </trkpt>
      <trkpt lat="43.178390" lon="-9.178358">
        <ele>9.423</ele>
        <time>2019-06-21T15:20:56Z</time>
      </trkpt>
      <trkpt lat="43.178323" lon="-9.178384">
        <ele>9.125</ele>
        <time>2019-06-21T15:20:57Z</time>
      </trkpt>
      <trkpt lat="43.178261" lon="-9.178409">
        <ele>9.008</ele>
        <time>2019-06-21T15:20:58Z</time>
      </trkpt>
      <trkpt lat="43.178193" lon="-9.178434">
        <ele>8.942</ele>
        <time>2019-06-21T15:20:59Z</time>
      </trkpt>
      <trkpt lat="43.178126" lon="-9.178451">
        <ele>8.966</ele>
        <time>2019-06-21T15:21:00Z</time>
      </trkpt>
      <trkpt lat="43.178041" lon="-9.178484">
        <ele>8.828</ele>
        <time>2019-06-21T15:21:01Z</time>
      </trkpt>
      <trkpt lat="43.177979" lon="-9.178487">
        <ele>8.860</ele>
        <time>2019-06-21T15:21:02Z</time>
      </trkpt>
      <trkpt lat="43.177911" lon="-9.178514">
        <ele>8.477</ele>
        <time>2019-06-21T15:21:03Z</time>
      </trkpt>
      <trkpt lat="43.177830" lon="-9.178537">
        <ele>8.183</ele>
        <time>2019-06-21T15:21:04Z</time>
      </trkpt>
      <trkpt lat="43.177755" lon="-9.178562">
        <ele>7.687</ele>
        <time>2019-06-21T15:21:05Z</time>
      </trkpt>
      <trkpt lat="43.177680" lon="-9.178582">
        <ele>6.839</ele>
        <time>2019-06-21T15:21:06Z</time>
      </trkpt>
      <trkpt lat="43.177605" lon="-9.178601">
        <ele>5.964</ele>
        <time>2019-06-21T15:21:07Z</time>
      </trkpt>
      <trkpt lat="43.177534" lon="-9.178608">
        <ele>5.306</ele>
        <time>2019-06-21T15:21:08Z</time>
      </trkpt>
      <trkpt lat="43.177461" lon="-9.178608">
        <ele>5.116</ele>
        <time>2019-06-21T15:21:09Z</time>
      </trkpt>
      <trkpt lat="43.177386" lon="-9.178590">
        <ele>5.408</ele>
        <time>2019-06-21T15:21:10Z</time>
      </trkpt>
      <trkpt lat="43.177304" lon="-9.178571">
        <ele>5.779</ele>
        <time>2019-06-21T15:21:11Z</time>
      </trkpt>
      <trkpt lat="43.177222" lon="-9.178546">
        <ele>6.273</ele>
        <time>2019-06-21T15:21:12Z</time>
      </trkpt>
      <trkpt lat="43.177134" lon="-9.178493">
        <ele>7.095</ele>
        <time>2019-06-21T15:21:13Z</time>
      </trkpt>
      <trkpt lat="43.177046" lon="-9.178449">
        <ele>7.527</ele>
        <time>2019-06-21T15:21:14Z</time>
      </trkpt>
      <trkpt lat="43.176959" lon="-9.178396">
        <ele>8.134</ele>
        <time>2019-06-21T15:21:15Z</time>
      </trkpt>
      <trkpt lat="43.176872" lon="-9.178343">
        <ele>8.970</ele>
        <time>2019-06-21T15:21:16Z</time>
      </trkpt>
      <trkpt lat="43.176781" lon="-9.178290">
        <ele>9.514</ele>
        <time>2019-06-21T15:21:17Z</time>
      </trkpt>
      <trkpt lat="43.176687" lon="-9.178240">
        <ele>10.076</ele>
        <time>2019-06-21T15:21:18Z</time>
      </trkpt>
      <trkpt lat="43.176592" lon="-9.178197">
        <ele>10.163</ele>
        <time>2019-06-21T15:21:19Z</time>
      </trkpt>
      <trkpt lat="43.176493" lon="-9.178158">
        <ele>9.944</ele>
        <time>2019-06-21T15:21:20Z</time>
      </trkpt>
      <trkpt lat="43.176403" lon="-9.178122">
        <ele>9.618</ele>
        <time>2019-06-21T15:21:21Z</time>
      </trkpt>
      <trkpt lat="43.176305" lon="-9.178075">
        <ele>9.808</ele>
        <time>2019-06-21T15:21:22Z</time>
      </trkpt>
      <trkpt lat="43.176211" lon="-9.178037">
        <ele>10.259</ele>
        <time>2019-06-21T15:21:23Z</time>
      </trkpt>
      <trkpt lat="43.176119" lon="-9.178003">
        <ele>10.613</ele>
        <time>2019-06-21T15:21:24Z</time>
      </trkpt>
      <trkpt lat="43.176028" lon="-9.177978">
        <ele>10.585</ele>
        <time>2019-06-21T15:21:25Z</time>
      </trkpt>
      <trkpt lat="43.175936" lon="-9.177958">
        <ele>10.447</ele>
        <time>2019-06-21T15:21:26Z</time>
      </trkpt>
      <trkpt lat="43.175852" lon="-9.177938">
        <ele>10.334</ele>
        <time>2019-06-21T15:21:27Z</time>
      </trkpt>
      <trkpt lat="43.175764" lon="-9.177900">
        <ele>10.350</ele>
        <time>2019-06-21T15:21:28Z</time>
      </trkpt>
      <trkpt lat="43.175683" lon="-9.177866">
        <ele>10.394</ele>
        <time>2019-06-21T15:21:29Z</time>
      </trkpt>
      <trkpt lat="43.175604" lon="-9.177833">
        <ele>10.446</ele>
        <time>2019-06-21T15:21:30Z</time>
      </trkpt>
      <trkpt lat="43.175519" lon="-9.177777">
        <ele>11.063</ele>
        <time>2019-06-21T15:21:31Z</time>
      </trkpt>
      <trkpt lat="43.175432" lon="-9.177732">
        <ele>11.744</ele>
        <time>2019-06-21T15:21:32Z</time>
      </trkpt>
      <trkpt lat="43.175346" lon="-9.177694">
        <ele>12.218</ele>
        <time>2019-06-21T15:21:33Z</time>
      </trkpt>
      <trkpt lat="43.175292" lon="-9.177697">
        <ele>12.208</ele>
        <time>2019-06-21T15:21:34Z</time>
      </trkpt>
      <trkpt lat="43.175202" lon="-9.177700">
        <ele>11.749</ele>
        <time>2019-06-21T15:21:35Z</time>
      </trkpt>
      <trkpt lat="43.175107" lon="-9.177717">
        <ele>10.853</ele>
        <time>2019-06-21T15:21:36Z</time>
      </trkpt>
      <trkpt lat="43.175006" lon="-9.177729">
        <ele>9.915</ele>
        <time>2019-06-21T15:21:37Z</time>
      </trkpt>
      <trkpt lat="43.174900" lon="-9.177725">
        <ele>9.777</ele>
        <time>2019-06-21T15:21:38Z</time>
      </trkpt>
      <trkpt lat="43.174806" lon="-9.177719">
        <ele>9.524</ele>
        <time>2019-06-21T15:21:39Z</time>
      </trkpt>
      <trkpt lat="43.174718" lon="-9.177731">
        <ele>9.020</ele>
        <time>2019-06-21T15:21:40Z</time>
      </trkpt>
      <trkpt lat="43.174622" lon="-9.177746">
        <ele>9.054</ele>
        <time>2019-06-21T15:21:41Z</time>
      </trkpt>
      <trkpt lat="43.174529" lon="-9.177760">
        <ele>9.176</ele>
        <time>2019-06-21T15:21:42Z</time>
      </trkpt>
      <trkpt lat="43.174433" lon="-9.177763">
        <ele>9.426</ele>
        <time>2019-06-21T15:21:43Z</time>
      </trkpt>
      <trkpt lat="43.174336" lon="-9.177767">
        <ele>10.047</ele>
        <time>2019-06-21T15:21:44Z</time>
      </trkpt>
      <trkpt lat="43.174226" lon="-9.177788">
        <ele>10.411</ele>
        <time>2019-06-21T15:21:45Z</time>
      </trkpt>
      <trkpt lat="43.174130" lon="-9.177790">
        <ele>10.808</ele>
        <time>2019-06-21T15:21:46Z</time>
      </trkpt>
      <trkpt lat="43.174038" lon="-9.177791">
        <ele>10.855</ele>
        <time>2019-06-21T15:21:47Z</time>
      </trkpt>
      <trkpt lat="43.173954" lon="-9.177794">
        <ele>10.889</ele>
        <time>2019-06-21T15:21:48Z</time>
      </trkpt>
      <trkpt lat="43.173866" lon="-9.177802">
        <ele>10.661</ele>
        <time>2019-06-21T15:21:49Z</time>
      </trkpt>
      <trkpt lat="43.173785" lon="-9.177818">
        <ele>10.193</ele>
        <time>2019-06-21T15:21:50Z</time>
      </trkpt>
      <trkpt lat="43.173700" lon="-9.177846">
        <ele>9.560</ele>
        <time>2019-06-21T15:21:51Z</time>
      </trkpt>
      <trkpt lat="43.173608" lon="-9.177894">
        <ele>8.776</ele>
        <time>2019-06-21T15:21:52Z</time>
      </trkpt>
      <trkpt lat="43.173526" lon="-9.177942">
        <ele>8.460</ele>
        <time>2019-06-21T15:21:53Z</time>
      </trkpt>
      <trkpt lat="43.173444" lon="-9.177986">
        <ele>8.222</ele>
        <time>2019-06-21T15:21:54Z</time>
      </trkpt>
      <trkpt lat="43.173385" lon="-9.178012">
        <ele>8.237</ele>
        <time>2019-06-21T15:21:55Z</time>
      </trkpt>
      <trkpt lat="43.173311" lon="-9.178041">
        <ele>8.149</ele>
        <time>2019-06-21T15:21:56Z</time>
      </trkpt>
      <trkpt lat="43.173259" lon="-9.178057">
        <ele>8.013</ele>
        <time>2019-06-21T15:21:57Z</time>
      </trkpt>
      <trkpt lat="43.173202" lon="-9.178045">
        <ele>8.108</ele>
        <time>2019-06-21T15:21:58Z</time>
      </trkpt>
      <trkpt lat="43.173119" lon="-9.178051">
        <ele>8.046</ele>
        <time>2019-06-21T15:21:59Z</time>
      </trkpt>
      <trkpt lat="43.173036" lon="-9.178047">
        <ele>8.050</ele>
        <time>2019-06-21T15:22:00Z</time>
      </trkpt>
      <trkpt lat="43.172942" lon="-9.178060">
        <ele>7.582</ele>
        <time>2019-06-21T15:22:01Z</time>
      </trkpt>
      <trkpt lat="43.172863" lon="-9.178061">
        <ele>7.344</ele>
        <time>2019-06-21T15:22:02Z</time>
      </trkpt>
      <trkpt lat="43.172780" lon="-9.178052">
        <ele>7.081</ele>
        <time>2019-06-21T15:22:03Z</time>
      </trkpt>
      <trkpt lat="43.172711" lon="-9.178044">
        <ele>7.177</ele>
        <time>2019-06-21T15:22:04Z</time>
      </trkpt>
      <trkpt lat="43.172626" lon="-9.178037">
        <ele>7.111</ele>
        <time>2019-06-21T15:22:05Z</time>
      </trkpt>
      <trkpt lat="43.172539" lon="-9.178032">
        <ele>7.213</ele>
        <time>2019-06-21T15:22:06Z</time>
      </trkpt>
      <trkpt lat="43.172447" lon="-9.178042">
        <ele>7.336</ele>
        <time>2019-06-21T15:22:07Z</time>
      </trkpt>
      <trkpt lat="43.172364" lon="-9.178053">
        <ele>7.517</ele>
        <time>2019-06-21T15:22:08Z</time>
      </trkpt>
      <trkpt lat="43.172283" lon="-9.178057">
        <ele>7.818</ele>
        <time>2019-06-21T15:22:09Z</time>
      </trkpt>
      <trkpt lat="43.172196" lon="-9.178066">
        <ele>8.108</ele>
        <time>2019-06-21T15:22:10Z</time>
      </trkpt>
      <trkpt lat="43.172108" lon="-9.178071">
        <ele>8.776</ele>
        <time>2019-06-21T15:22:11Z</time>
      </trkpt>
      <trkpt lat="43.172017" lon="-9.178068">
        <ele>9.410</ele>
        <time>2019-06-21T15:22:12Z</time>
      </trkpt>
      <trkpt lat="43.171925" lon="-9.178063">
        <ele>10.032</ele>
        <time>2019-06-21T15:22:13Z</time>
      </trkpt>
      <trkpt lat="43.171836" lon="-9.178065">
        <ele>10.314</ele>
        <time>2019-06-21T15:22:14Z</time>
      </trkpt>
      <trkpt lat="43.171733" lon="-9.178057">
        <ele>10.731</ele>
        <time>2019-06-21T15:22:15Z</time>
      </trkpt>
      <trkpt lat="43.171629" lon="-9.178056">
        <ele>10.977</ele>
        <time>2019-06-21T15:22:16Z</time>
      </trkpt>
      <trkpt lat="43.171524" lon="-9.178058">
        <ele>10.531</ele>
        <time>2019-06-21T15:22:17Z</time>
      </trkpt>
      <trkpt lat="43.171432" lon="-9.178050">
        <ele>10.243</ele>
        <time>2019-06-21T15:22:18Z</time>
      </trkpt>
      <trkpt lat="43.171318" lon="-9.178061">
        <ele>10.281</ele>
        <time>2019-06-21T15:22:19Z</time>
      </trkpt>
      <trkpt lat="43.171206" lon="-9.178060">
        <ele>10.661</ele>
        <time>2019-06-21T15:22:20Z</time>
      </trkpt>
      <trkpt lat="43.171091" lon="-9.178056">
        <ele>11.017</ele>
        <time>2019-06-21T15:22:21Z</time>
      </trkpt>
      <trkpt lat="43.170975" lon="-9.178050">
        <ele>11.108</ele>
        <time>2019-06-21T15:22:22Z</time>
      </trkpt>
      <trkpt lat="43.170852" lon="-9.178039">
        <ele>11.281</ele>
        <time>2019-06-21T15:22:23Z</time>
      </trkpt>
      <trkpt lat="43.170729" lon="-9.178031">
        <ele>10.925</ele>
        <time>2019-06-21T15:22:24Z</time>
      </trkpt>
      <trkpt lat="43.170628" lon="-9.178034">
        <ele>10.517</ele>
        <time>2019-06-21T15:22:25Z</time>
      </trkpt>
      <trkpt lat="43.170526" lon="-9.178038">
        <ele>10.059</ele>
        <time>2019-06-21T15:22:26Z</time>
      </trkpt>
      <trkpt lat="43.170417" lon="-9.178048">
        <ele>9.696</ele>
        <time>2019-06-21T15:22:27Z</time>
      </trkpt>
      <trkpt lat="43.170301" lon="-9.178053">
        <ele>9.112</ele>
        <time>2019-06-21T15:22:28Z</time>
      </trkpt>
      <trkpt lat="43.170189" lon="-9.178054">
        <ele>9.386</ele>
        <time>2019-06-21T15:22:29Z</time>
      </trkpt>
      <trkpt lat="43.170082" lon="-9.178046">
        <ele>9.868</ele>
        <time>2019-06-21T15:22:30Z</time>
      </trkpt>
      <trkpt lat="43.169971" lon="-9.178049">
        <ele>9.949</ele>
        <time>2019-06-21T15:22:31Z</time>
      </trkpt>
      <trkpt lat="43.169855" lon="-9.178049">
        <ele>9.502</ele>
        <time>2019-06-21T15:22:32Z</time>
      </trkpt>
      <trkpt lat="43.169744" lon="-9.178050">
        <ele>9.122</ele>
        <time>2019-06-21T15:22:33Z</time>
      </trkpt>
      <trkpt lat="43.169629" lon="-9.178039">
        <ele>8.908</ele>
        <time>2019-06-21T15:22:34Z</time>
      </trkpt>
      <trkpt lat="43.169509" lon="-9.178032">
        <ele>8.657</ele>
        <time>2019-06-21T15:22:35Z</time>
      </trkpt>
      <trkpt lat="43.169394" lon="-9.178036">
        <ele>8.691</ele>
        <time>2019-06-21T15:22:36Z</time>
      </trkpt>
      <trkpt lat="43.169279" lon="-9.178055">
        <ele>9.283</ele>
        <time>2019-06-21T15:22:37Z</time>
      </trkpt>
      <trkpt lat="43.169181" lon="-9.178067">
        <ele>9.845</ele>
        <time>2019-06-21T15:22:38Z</time>
      </trkpt>
      <trkpt lat="43.169092" lon="-9.178075">
        <ele>10.742</ele>
        <time>2019-06-21T15:22:39Z</time>
      </trkpt>
      <trkpt lat="43.168996" lon="-9.178087">
        <ele>11.668</ele>
        <time>2019-06-21T15:22:40Z</time>
      </trkpt>
      <trkpt lat="43.168912" lon="-9.178113">
        <ele>12.312</ele>
        <time>2019-06-21T15:22:41Z</time>
      </trkpt>
      <trkpt lat="43.168820" lon="-9.178153">
        <ele>13.234</ele>
        <time>2019-06-21T15:22:42Z</time>
      </trkpt>
      <trkpt lat="43.168734" lon="-9.178203">
        <ele>13.962</ele>
        <time>2019-06-21T15:22:43Z</time>
      </trkpt>
      <trkpt lat="43.168669" lon="-9.178277">
        <ele>13.983</ele>
        <time>2019-06-21T15:22:44Z</time>
      </trkpt>
      <trkpt lat="43.168589" lon="-9.178360">
        <ele>14.011</ele>
        <time>2019-06-21T15:22:45Z</time>
      </trkpt>
      <trkpt lat="43.168516" lon="-9.178444">
        <ele>14.008</ele>
        <time>2019-06-21T15:22:46Z</time>
      </trkpt>
      <trkpt lat="43.168443" lon="-9.178533">
        <ele>13.769</ele>
        <time>2019-06-21T15:22:47Z</time>
      </trkpt>
      <trkpt lat="43.168362" lon="-9.178620">
        <ele>13.483</ele>
        <time>2019-06-21T15:22:48Z</time>
      </trkpt>
      <trkpt lat="43.168285" lon="-9.178686">
        <ele>13.155</ele>
        <time>2019-06-21T15:22:49Z</time>
      </trkpt>
      <trkpt lat="43.168201" lon="-9.178753">
        <ele>12.847</ele>
        <time>2019-06-21T15:22:50Z</time>
      </trkpt>
      <trkpt lat="43.168121" lon="-9.178810">
        <ele>12.864</ele>
        <time>2019-06-21T15:22:51Z</time>
      </trkpt>
      <trkpt lat="43.168031" lon="-9.178861">
        <ele>13.150</ele>
        <time>2019-06-21T15:22:52Z</time>
      </trkpt>
      <trkpt lat="43.167934" lon="-9.178917">
        <ele>13.624</ele>
        <time>2019-06-21T15:22:53Z</time>
      </trkpt>
      <trkpt lat="43.167837" lon="-9.178967">
        <ele>14.386</ele>
        <time>2019-06-21T15:22:54Z</time>
      </trkpt>
      <trkpt lat="43.167737" lon="-9.179016">
        <ele>14.767</ele>
        <time>2019-06-21T15:22:55Z</time>
      </trkpt>
      <trkpt lat="43.167655" lon="-9.179062">
        <ele>14.681</ele>
        <time>2019-06-21T15:22:56Z</time>
      </trkpt>
      <trkpt lat="43.167570" lon="-9.179100">
        <ele>14.719</ele>
        <time>2019-06-21T15:22:57Z</time>
      </trkpt>
      <trkpt lat="43.167486" lon="-9.179135">
        <ele>14.808</ele>
        <time>2019-06-21T15:22:58Z</time>
      </trkpt>
      <trkpt lat="43.167380" lon="-9.179157">
        <ele>15.189</ele>
        <time>2019-06-21T15:22:59Z</time>
      </trkpt>
      <trkpt lat="43.167300" lon="-9.179164">
        <ele>15.583</ele>
        <time>2019-06-21T15:23:00Z</time>
      </trkpt>
      <trkpt lat="43.167216" lon="-9.179160">
        <ele>16.145</ele>
        <time>2019-06-21T15:23:01Z</time>
      </trkpt>
      <trkpt lat="43.167122" lon="-9.179164">
        <ele>15.757</ele>
        <time>2019-06-21T15:23:02Z</time>
      </trkpt>
      <trkpt lat="43.167012" lon="-9.179163">
        <ele>15.334</ele>
        <time>2019-06-21T15:23:03Z</time>
      </trkpt>
      <trkpt lat="43.166904" lon="-9.179150">
        <ele>14.920</ele>
        <time>2019-06-21T15:23:04Z</time>
      </trkpt>
      <trkpt lat="43.166803" lon="-9.179126">
        <ele>14.524</ele>
        <time>2019-06-21T15:23:05Z</time>
      </trkpt>
      <trkpt lat="43.166704" lon="-9.179094">
        <ele>14.176</ele>
        <time>2019-06-21T15:23:06Z</time>
      </trkpt>
      <trkpt lat="43.166595" lon="-9.179067">
        <ele>13.681</ele>
        <time>2019-06-21T15:23:07Z</time>
      </trkpt>
      <trkpt lat="43.166481" lon="-9.179038">
        <ele>13.161</ele>
        <time>2019-06-21T15:23:08Z</time>
      </trkpt>
      <trkpt lat="43.166379" lon="-9.179009">
        <ele>12.717</ele>
        <time>2019-06-21T15:23:09Z</time>
      </trkpt>
      <trkpt lat="43.166276" lon="-9.178971">
        <ele>12.708</ele>
        <time>2019-06-21T15:23:10Z</time>
      </trkpt>
      <trkpt lat="43.166171" lon="-9.178946">
        <ele>12.691</ele>
        <time>2019-06-21T15:23:11Z</time>
      </trkpt>
      <trkpt lat="43.166086" lon="-9.178909">
        <ele>12.885</ele>
        <time>2019-06-21T15:23:12Z</time>
      </trkpt>
      <trkpt lat="43.166004" lon="-9.178888">
        <ele>13.097</ele>
        <time>2019-06-21T15:23:13Z</time>
      </trkpt>
      <trkpt lat="43.165921" lon="-9.178869">
        <ele>13.329</ele>
        <time>2019-06-21T15:23:14Z</time>
      </trkpt>
      <trkpt lat="43.165864" lon="-9.178860">
        <ele>13.316</ele>
        <time>2019-06-21T15:23:15Z</time>
      </trkpt>
      <trkpt lat="43.165792" lon="-9.178862">
        <ele>13.312</ele>
        <time>2019-06-21T15:23:16Z</time>
      </trkpt>
      <trkpt lat="43.165685" lon="-9.178887">
        <ele>13.066</ele>
        <time>2019-06-21T15:23:18Z</time>
      </trkpt>
      <trkpt lat="43.165620" lon="-9.178927">
        <ele>12.818</ele>
        <time>2019-06-21T15:23:19Z</time>
      </trkpt>
      <trkpt lat="43.165568" lon="-9.178981">
        <ele>12.747</ele>
        <time>2019-06-21T15:23:20Z</time>
      </trkpt>
      <trkpt lat="43.165514" lon="-9.179064">
        <ele>12.529</ele>
        <time>2019-06-21T15:23:21Z</time>
      </trkpt>
      <trkpt lat="43.165466" lon="-9.179169">
        <ele>12.321</ele>
        <time>2019-06-21T15:23:22Z</time>
      </trkpt>
      <trkpt lat="43.165422" lon="-9.179271">
        <ele>12.508</ele>
        <time>2019-06-21T15:23:23Z</time>
      </trkpt>
      <trkpt lat="43.165358" lon="-9.179385">
        <ele>13.067</ele>
        <time>2019-06-21T15:23:24Z</time>
      </trkpt>
      <trkpt lat="43.165288" lon="-9.179507">
        <ele>13.931</ele>
        <time>2019-06-21T15:23:25Z</time>
      </trkpt>
      <trkpt lat="43.165234" lon="-9.179598">
        <ele>14.213</ele>
        <time>2019-06-21T15:23:26Z</time>
      </trkpt>
      <trkpt lat="43.165177" lon="-9.179714">
        <ele>14.465</ele>
        <time>2019-06-21T15:23:27Z</time>
      </trkpt>
      <trkpt lat="43.165118" lon="-9.179827">
        <ele>14.422</ele>
        <time>2019-06-21T15:23:28Z</time>
      </trkpt>
      <trkpt lat="43.165073" lon="-9.179939">
        <ele>14.258</ele>
        <time>2019-06-21T15:23:29Z</time>
      </trkpt>
      <trkpt lat="43.165012" lon="-9.180060">
        <ele>13.812</ele>
        <time>2019-06-21T15:23:30Z</time>
      </trkpt>
      <trkpt lat="43.164950" lon="-9.180178">
        <ele>13.544</ele>
        <time>2019-06-21T15:23:31Z</time>
      </trkpt>
      <trkpt lat="43.164897" lon="-9.180295">
        <ele>13.443</ele>
        <time>2019-06-21T15:23:32Z</time>
      </trkpt>
      <trkpt lat="43.164837" lon="-9.180403">
        <ele>13.664</ele>
        <time>2019-06-21T15:23:33Z</time>
      </trkpt>
      <trkpt lat="43.164785" lon="-9.180515">
        <ele>13.810</ele>
        <time>2019-06-21T15:23:34Z</time>
      </trkpt>
      <trkpt lat="43.164732" lon="-9.180633">
        <ele>14.008</ele>
        <time>2019-06-21T15:23:35Z</time>
      </trkpt>
      <trkpt lat="43.164677" lon="-9.180750">
        <ele>14.577</ele>
        <time>2019-06-21T15:23:36Z</time>
      </trkpt>
      <trkpt lat="43.164611" lon="-9.180875">
        <ele>15.141</ele>
        <time>2019-06-21T15:23:37Z</time>
      </trkpt>
      <trkpt lat="43.164567" lon="-9.180986">
        <ele>15.493</ele>
        <time>2019-06-21T15:23:38Z</time>
      </trkpt>
      <trkpt lat="43.164521" lon="-9.181103">
        <ele>15.575</ele>
        <time>2019-06-21T15:23:39Z</time>
      </trkpt>
      <trkpt lat="43.164445" lon="-9.181198">
        <ele>15.452</ele>
        <time>2019-06-21T15:23:40Z</time>
      </trkpt>
      <trkpt lat="43.164388" lon="-9.181334">
        <ele>14.638</ele>
        <time>2019-06-21T15:23:41Z</time>
      </trkpt>
      <trkpt lat="43.164325" lon="-9.181453">
        <ele>14.222</ele>
        <time>2019-06-21T15:23:42Z</time>
      </trkpt>
      <trkpt lat="43.164273" lon="-9.181563">
        <ele>14.044</ele>
        <time>2019-06-21T15:23:43Z</time>
      </trkpt>
      <trkpt lat="43.164229" lon="-9.181648">
        <ele>13.898</ele>
        <time>2019-06-21T15:23:44Z</time>
      </trkpt>
      <trkpt lat="43.164177" lon="-9.181737">
        <ele>13.715</ele>
        <time>2019-06-21T15:23:45Z</time>
      </trkpt>
      <trkpt lat="43.164135" lon="-9.181824">
        <ele>13.526</ele>
        <time>2019-06-21T15:23:46Z</time>
      </trkpt>
      <trkpt lat="43.164099" lon="-9.181900">
        <ele>13.408</ele>
        <time>2019-06-21T15:23:47Z</time>
      </trkpt>
      <trkpt lat="43.164060" lon="-9.182004">
        <ele>13.422</ele>
        <time>2019-06-21T15:23:49Z</time>
      </trkpt>
      <trkpt lat="43.164030" lon="-9.182051">
        <ele>13.586</ele>
        <time>2019-06-21T15:23:58Z</time>
      </trkpt>
      <trkpt lat="43.163928" lon="-9.182154">
        <ele>13.958</ele>
        <time>2019-06-21T15:25:19Z</time>
      </trkpt>
      <trkpt lat="43.163874" lon="-9.182225">
        <ele>14.110</ele>
        <time>2019-06-21T15:25:20Z</time>
      </trkpt>
      <trkpt lat="43.163821" lon="-9.182302">
        <ele>14.267</ele>
        <time>2019-06-21T15:25:21Z</time>
      </trkpt>
      <trkpt lat="43.163757" lon="-9.182379">
        <ele>14.613</ele>
        <time>2019-06-21T15:25:22Z</time>
      </trkpt>
      <trkpt lat="43.163699" lon="-9.182459">
        <ele>14.987</ele>
        <time>2019-06-21T15:25:23Z</time>
      </trkpt>
      <trkpt lat="43.163643" lon="-9.182542">
        <ele>15.129</ele>
        <time>2019-06-21T15:25:24Z</time>
      </trkpt>
      <trkpt lat="43.163582" lon="-9.182629">
        <ele>14.842</ele>
        <time>2019-06-21T15:25:25Z</time>
      </trkpt>
      <trkpt lat="43.163520" lon="-9.182712">
        <ele>14.522</ele>
        <time>2019-06-21T15:25:26Z</time>
      </trkpt>
      <trkpt lat="43.163460" lon="-9.182797">
        <ele>14.514</ele>
        <time>2019-06-21T15:25:27Z</time>
      </trkpt>
      <trkpt lat="43.163398" lon="-9.182885">
        <ele>14.508</ele>
        <time>2019-06-21T15:25:28Z</time>
      </trkpt>
      <trkpt lat="43.163339" lon="-9.182973">
        <ele>14.537</ele>
        <time>2019-06-21T15:25:29Z</time>
      </trkpt>
      <trkpt lat="43.163280" lon="-9.183062">
        <ele>14.551</ele>
        <time>2019-06-21T15:25:30Z</time>
      </trkpt>
      <trkpt lat="43.163219" lon="-9.183150">
        <ele>14.663</ele>
        <time>2019-06-21T15:25:31Z</time>
      </trkpt>
      <trkpt lat="43.163159" lon="-9.183232">
        <ele>14.655</ele>
        <time>2019-06-21T15:25:32Z</time>
      </trkpt>
      <trkpt lat="43.163100" lon="-9.183314">
        <ele>14.782</ele>
        <time>2019-06-21T15:25:33Z</time>
      </trkpt>
      <trkpt lat="43.163038" lon="-9.183398">
        <ele>14.418</ele>
        <time>2019-06-21T15:25:34Z</time>
      </trkpt>
      <trkpt lat="43.162973" lon="-9.183479">
        <ele>14.282</ele>
        <time>2019-06-21T15:25:35Z</time>
      </trkpt>
      <trkpt lat="43.162909" lon="-9.183564">
        <ele>14.064</ele>
        <time>2019-06-21T15:25:36Z</time>
      </trkpt>
      <trkpt lat="43.162849" lon="-9.183644">
        <ele>14.083</ele>
        <time>2019-06-21T15:25:37Z</time>
      </trkpt>
      <trkpt lat="43.162791" lon="-9.183727">
        <ele>14.025</ele>
        <time>2019-06-21T15:25:38Z</time>
      </trkpt>
      <trkpt lat="43.162744" lon="-9.183798">
        <ele>14.017</ele>
        <time>2019-06-21T15:25:39Z</time>
      </trkpt>
      <trkpt lat="43.162695" lon="-9.183871">
        <ele>14.008</ele>
        <time>2019-06-21T15:25:40Z</time>
      </trkpt>
      <trkpt lat="43.162641" lon="-9.183952">
        <ele>14.131</ele>
        <time>2019-06-21T15:25:41Z</time>
      </trkpt>
      <trkpt lat="43.162584" lon="-9.184030">
        <ele>14.435</ele>
        <time>2019-06-21T15:25:42Z</time>
      </trkpt>
      <trkpt lat="43.162528" lon="-9.184109">
        <ele>14.857</ele>
        <time>2019-06-21T15:25:43Z</time>
      </trkpt>
      <trkpt lat="43.162470" lon="-9.184193">
        <ele>15.179</ele>
        <time>2019-06-21T15:25:44Z</time>
      </trkpt>
      <trkpt lat="43.162410" lon="-9.184276">
        <ele>15.276</ele>
        <time>2019-06-21T15:25:45Z</time>
      </trkpt>
      <trkpt lat="43.162346" lon="-9.184362">
        <ele>15.392</ele>
        <time>2019-06-21T15:25:46Z</time>
      </trkpt>
      <trkpt lat="43.162290" lon="-9.184443">
        <ele>15.326</ele>
        <time>2019-06-21T15:25:47Z</time>
      </trkpt>
      <trkpt lat="43.162229" lon="-9.184524">
        <ele>15.498</ele>
        <time>2019-06-21T15:25:48Z</time>
      </trkpt>
      <trkpt lat="43.162167" lon="-9.184614">
        <ele>15.214</ele>
        <time>2019-06-21T15:25:49Z</time>
      </trkpt>
      <trkpt lat="43.162105" lon="-9.184701">
        <ele>15.054</ele>
        <time>2019-06-21T15:25:50Z</time>
      </trkpt>
      <trkpt lat="43.162038" lon="-9.184784">
        <ele>15.009</ele>
        <time>2019-06-21T15:25:51Z</time>
      </trkpt>
      <trkpt lat="43.161969" lon="-9.184872">
        <ele>15.208</ele>
        <time>2019-06-21T15:25:52Z</time>
      </trkpt>
      <trkpt lat="43.161904" lon="-9.184964">
        <ele>15.474</ele>
        <time>2019-06-21T15:25:53Z</time>
      </trkpt>
      <trkpt lat="43.161847" lon="-9.185058">
        <ele>15.698</ele>
        <time>2019-06-21T15:25:54Z</time>
      </trkpt>
      <trkpt lat="43.161789" lon="-9.185147">
        <ele>15.990</ele>
        <time>2019-06-21T15:25:55Z</time>
      </trkpt>
      <trkpt lat="43.161734" lon="-9.185231">
        <ele>16.312</ele>
        <time>2019-06-21T15:25:56Z</time>
      </trkpt>
      <trkpt lat="43.161679" lon="-9.185309">
        <ele>16.629</ele>
        <time>2019-06-21T15:25:57Z</time>
      </trkpt>
      <trkpt lat="43.161625" lon="-9.185388">
        <ele>16.585</ele>
        <time>2019-06-21T15:25:58Z</time>
      </trkpt>
      <trkpt lat="43.161568" lon="-9.185472">
        <ele>16.339</ele>
        <time>2019-06-21T15:25:59Z</time>
      </trkpt>
      <trkpt lat="43.161511" lon="-9.185551">
        <ele>16.211</ele>
        <time>2019-06-21T15:26:00Z</time>
      </trkpt>
      <trkpt lat="43.161463" lon="-9.185618">
        <ele>15.446</ele>
        <time>2019-06-21T15:26:01Z</time>
      </trkpt>
      <trkpt lat="43.161408" lon="-9.185686">
        <ele>14.588</ele>
        <time>2019-06-21T15:26:02Z</time>
      </trkpt>
      <trkpt lat="43.161349" lon="-9.185759">
        <ele>13.516</ele>
        <time>2019-06-21T15:26:03Z</time>
      </trkpt>
      <trkpt lat="43.161283" lon="-9.185815">
        <ele>13.008</ele>
        <time>2019-06-21T15:26:04Z</time>
      </trkpt>
      <trkpt lat="43.161208" lon="-9.185871">
        <ele>12.917</ele>
        <time>2019-06-21T15:26:05Z</time>
      </trkpt>
      <trkpt lat="43.161128" lon="-9.185915">
        <ele>13.061</ele>
        <time>2019-06-21T15:26:06Z</time>
      </trkpt>
      <trkpt lat="43.161041" lon="-9.185955">
        <ele>12.953</ele>
        <time>2019-06-21T15:26:07Z</time>
      </trkpt>
      <trkpt lat="43.160946" lon="-9.185993">
        <ele>12.965</ele>
        <time>2019-06-21T15:26:08Z</time>
      </trkpt>
      <trkpt lat="43.160847" lon="-9.186032">
        <ele>12.832</ele>
        <time>2019-06-21T15:26:09Z</time>
      </trkpt>
      <trkpt lat="43.160748" lon="-9.186064">
        <ele>13.118</ele>
        <time>2019-06-21T15:26:10Z</time>
      </trkpt>
      <trkpt lat="43.160653" lon="-9.186088">
        <ele>13.522</ele>
        <time>2019-06-21T15:26:11Z</time>
      </trkpt>
      <trkpt lat="43.160553" lon="-9.186123">
        <ele>13.954</ele>
        <time>2019-06-21T15:26:12Z</time>
      </trkpt>
      <trkpt lat="43.160451" lon="-9.186165">
        <ele>14.232</ele>
        <time>2019-06-21T15:26:13Z</time>
      </trkpt>
      <trkpt lat="43.160367" lon="-9.186199">
        <ele>14.492</ele>
        <time>2019-06-21T15:26:14Z</time>
      </trkpt>
      <trkpt lat="43.160276" lon="-9.186257">
        <ele>14.411</ele>
        <time>2019-06-21T15:26:15Z</time>
      </trkpt>
      <trkpt lat="43.160190" lon="-9.186325">
        <ele>14.008</ele>
        <time>2019-06-21T15:26:16Z</time>
      </trkpt>
      <trkpt lat="43.160104" lon="-9.186398">
        <ele>13.566</ele>
        <time>2019-06-21T15:26:17Z</time>
      </trkpt>
      <trkpt lat="43.160015" lon="-9.186462">
        <ele>13.210</ele>
        <time>2019-06-21T15:26:18Z</time>
      </trkpt>
      <trkpt lat="43.159931" lon="-9.186527">
        <ele>12.942</ele>
        <time>2019-06-21T15:26:19Z</time>
      </trkpt>
      <trkpt lat="43.159846" lon="-9.186587">
        <ele>12.644</ele>
        <time>2019-06-21T15:26:20Z</time>
      </trkpt>
      <trkpt lat="43.159763" lon="-9.186636">
        <ele>12.341</ele>
        <time>2019-06-21T15:26:21Z</time>
      </trkpt>
      <trkpt lat="43.159677" lon="-9.186685">
        <ele>12.177</ele>
        <time>2019-06-21T15:26:22Z</time>
      </trkpt>
      <trkpt lat="43.159596" lon="-9.186732">
        <ele>12.161</ele>
        <time>2019-06-21T15:26:23Z</time>
      </trkpt>
      <trkpt lat="43.159522" lon="-9.186775">
        <ele>12.233</ele>
        <time>2019-06-21T15:26:24Z</time>
      </trkpt>
      <trkpt lat="43.159450" lon="-9.186824">
        <ele>12.212</ele>
        <time>2019-06-21T15:26:25Z</time>
      </trkpt>
      <trkpt lat="43.159377" lon="-9.186876">
        <ele>12.732</ele>
        <time>2019-06-21T15:26:26Z</time>
      </trkpt>
      <trkpt lat="43.159307" lon="-9.186928">
        <ele>13.205</ele>
        <time>2019-06-21T15:26:27Z</time>
      </trkpt>
      <trkpt lat="43.159239" lon="-9.186980">
        <ele>13.908</ele>
        <time>2019-06-21T15:26:28Z</time>
      </trkpt>
      <trkpt lat="43.159191" lon="-9.187029">
        <ele>14.444</ele>
        <time>2019-06-21T15:26:29Z</time>
      </trkpt>
      <trkpt lat="43.159148" lon="-9.187077">
        <ele>14.768</ele>
        <time>2019-06-21T15:26:30Z</time>
      </trkpt>
      <trkpt lat="43.159120" lon="-9.187137">
        <ele>14.750</ele>
        <time>2019-06-21T15:26:31Z</time>
      </trkpt>
      <trkpt lat="43.159111" lon="-9.187199">
        <ele>14.582</ele>
        <time>2019-06-21T15:26:32Z</time>
      </trkpt>
      <trkpt lat="43.159110" lon="-9.187276">
        <ele>14.619</ele>
        <time>2019-06-21T15:26:33Z</time>
      </trkpt>
      <trkpt lat="43.159119" lon="-9.187353">
        <ele>14.775</ele>
        <time>2019-06-21T15:26:34Z</time>
      </trkpt>
      <trkpt lat="43.159135" lon="-9.187427">
        <ele>14.949</ele>
        <time>2019-06-21T15:26:35Z</time>
      </trkpt>
      <trkpt lat="43.159165" lon="-9.187498">
        <ele>15.071</ele>
        <time>2019-06-21T15:26:36Z</time>
      </trkpt>
      <trkpt lat="43.159196" lon="-9.187572">
        <ele>15.162</ele>
        <time>2019-06-21T15:26:37Z</time>
      </trkpt>
      <trkpt lat="43.159236" lon="-9.187648">
        <ele>15.283</ele>
        <time>2019-06-21T15:26:38Z</time>
      </trkpt>
      <trkpt lat="43.159270" lon="-9.187731">
        <ele>15.411</ele>
        <time>2019-06-21T15:26:39Z</time>
      </trkpt>
      <trkpt lat="43.159301" lon="-9.187813">
        <ele>15.608</ele>
        <time>2019-06-21T15:26:40Z</time>
      </trkpt>
      <trkpt lat="43.159328" lon="-9.187893">
        <ele>15.579</ele>
        <time>2019-06-21T15:26:41Z</time>
      </trkpt>
      <trkpt lat="43.159330" lon="-9.187967">
        <ele>15.693</ele>
        <time>2019-06-21T15:26:42Z</time>
      </trkpt>
      <trkpt lat="43.159327" lon="-9.188035">
        <ele>15.765</ele>
        <time>2019-06-21T15:26:43Z</time>
      </trkpt>
      <trkpt lat="43.159303" lon="-9.188116">
        <ele>16.067</ele>
        <time>2019-06-21T15:26:44Z</time>
      </trkpt>
      <trkpt lat="43.159278" lon="-9.188191">
        <ele>16.454</ele>
        <time>2019-06-21T15:26:45Z</time>
      </trkpt>
      <trkpt lat="43.159242" lon="-9.188268">
        <ele>16.950</ele>
        <time>2019-06-21T15:26:46Z</time>
      </trkpt>
      <trkpt lat="43.159193" lon="-9.188334">
        <ele>17.644</ele>
        <time>2019-06-21T15:26:47Z</time>
      </trkpt>
      <trkpt lat="43.159133" lon="-9.188394">
        <ele>18.226</ele>
        <time>2019-06-21T15:26:48Z</time>
      </trkpt>
      <trkpt lat="43.159076" lon="-9.188451">
        <ele>18.758</ele>
        <time>2019-06-21T15:26:49Z</time>
      </trkpt>
      <trkpt lat="43.159003" lon="-9.188502">
        <ele>19.552</ele>
        <time>2019-06-21T15:26:50Z</time>
      </trkpt>
      <trkpt lat="43.158940" lon="-9.188552">
        <ele>20.317</ele>
        <time>2019-06-21T15:26:51Z</time>
      </trkpt>
      <trkpt lat="43.158870" lon="-9.188611">
        <ele>21.108</ele>
        <time>2019-06-21T15:26:52Z</time>
      </trkpt>
      <trkpt lat="43.158800" lon="-9.188679">
        <ele>20.958</ele>
        <time>2019-06-21T15:26:53Z</time>
      </trkpt>
      <trkpt lat="43.158722" lon="-9.188727">
        <ele>21.072</ele>
        <time>2019-06-21T15:26:54Z</time>
      </trkpt>
      <trkpt lat="43.158642" lon="-9.188784">
        <ele>21.264</ele>
        <time>2019-06-21T15:26:55Z</time>
      </trkpt>
      <trkpt lat="43.158560" lon="-9.188818">
        <ele>21.926</ele>
        <time>2019-06-21T15:26:56Z</time>
      </trkpt>
      <trkpt lat="43.158470" lon="-9.188855">
        <ele>22.853</ele>
        <time>2019-06-21T15:26:57Z</time>
      </trkpt>
      <trkpt lat="43.158380" lon="-9.188877">
        <ele>23.629</ele>
        <time>2019-06-21T15:26:58Z</time>
      </trkpt>
      <trkpt lat="43.158286" lon="-9.188905">
        <ele>24.313</ele>
        <time>2019-06-21T15:26:59Z</time>
      </trkpt>
      <trkpt lat="43.158201" lon="-9.188928">
        <ele>24.985</ele>
        <time>2019-06-21T15:27:00Z</time>
      </trkpt>
      <trkpt lat="43.158104" lon="-9.188945">
        <ele>25.749</ele>
        <time>2019-06-21T15:27:01Z</time>
      </trkpt>
      <trkpt lat="43.158001" lon="-9.188959">
        <ele>26.402</ele>
        <time>2019-06-21T15:27:02Z</time>
      </trkpt>
      <trkpt lat="43.157904" lon="-9.188971">
        <ele>26.922</ele>
        <time>2019-06-21T15:27:03Z</time>
      </trkpt>
      <trkpt lat="43.157804" lon="-9.188976">
        <ele>27.608</ele>
        <time>2019-06-21T15:27:04Z</time>
      </trkpt>
      <trkpt lat="43.157720" lon="-9.188969">
        <ele>28.517</ele>
        <time>2019-06-21T15:27:05Z</time>
      </trkpt>
      <trkpt lat="43.157635" lon="-9.188953">
        <ele>29.651</ele>
        <time>2019-06-21T15:27:06Z</time>
      </trkpt>
      <trkpt lat="43.157554" lon="-9.188933">
        <ele>30.883</ele>
        <time>2019-06-21T15:27:07Z</time>
      </trkpt>
      <trkpt lat="43.157489" lon="-9.188900">
        <ele>31.885</ele>
        <time>2019-06-21T15:27:08Z</time>
      </trkpt>
      <trkpt lat="43.157414" lon="-9.188860">
        <ele>32.492</ele>
        <time>2019-06-21T15:27:09Z</time>
      </trkpt>
      <trkpt lat="43.157351" lon="-9.188803">
        <ele>33.158</ele>
        <time>2019-06-21T15:27:10Z</time>
      </trkpt>
      <trkpt lat="43.157273" lon="-9.188752">
        <ele>33.672</ele>
        <time>2019-06-21T15:27:11Z</time>
      </trkpt>
      <trkpt lat="43.157198" lon="-9.188697">
        <ele>33.964</ele>
        <time>2019-06-21T15:27:12Z</time>
      </trkpt>
      <trkpt lat="43.157127" lon="-9.188641">
        <ele>34.064</ele>
        <time>2019-06-21T15:27:13Z</time>
      </trkpt>
      <trkpt lat="43.157059" lon="-9.188598">
        <ele>33.906</ele>
        <time>2019-06-21T15:27:14Z</time>
      </trkpt>
      <trkpt lat="43.156994" lon="-9.188539">
        <ele>33.916</ele>
        <time>2019-06-21T15:27:15Z</time>
      </trkpt>
      <trkpt lat="43.156933" lon="-9.188474">
        <ele>34.008</ele>
        <time>2019-06-21T15:27:16Z</time>
      </trkpt>
      <trkpt lat="43.156868" lon="-9.188421">
        <ele>34.639</ele>
        <time>2019-06-21T15:27:17Z</time>
      </trkpt>
      <trkpt lat="43.156810" lon="-9.188385">
        <ele>35.043</ele>
        <time>2019-06-21T15:27:18Z</time>
      </trkpt>
      <trkpt lat="43.156733" lon="-9.188362">
        <ele>35.565</ele>
        <time>2019-06-21T15:27:19Z</time>
      </trkpt>
      <trkpt lat="43.156659" lon="-9.188313">
        <ele>36.187</ele>
        <time>2019-06-21T15:27:20Z</time>
      </trkpt>
      <trkpt lat="43.156594" lon="-9.188285">
        <ele>36.434</ele>
        <time>2019-06-21T15:27:21Z</time>
      </trkpt>
      <trkpt lat="43.156550" lon="-9.188268">
        <ele>36.640</ele>
        <time>2019-06-21T15:27:22Z</time>
      </trkpt>
      <trkpt lat="43.156492" lon="-9.188269">
        <ele>36.674</ele>
        <time>2019-06-21T15:27:23Z</time>
      </trkpt>
      <trkpt lat="43.156441" lon="-9.188268">
        <ele>36.776</ele>
        <time>2019-06-21T15:27:24Z</time>
      </trkpt>
      <trkpt lat="43.156394" lon="-9.188296">
        <ele>36.473</ele>
        <time>2019-06-21T15:27:25Z</time>
      </trkpt>
      <trkpt lat="43.156307" lon="-9.188349">
        <ele>37.185</ele>
        <time>2019-06-21T15:27:26Z</time>
      </trkpt>
      <trkpt lat="43.156243" lon="-9.188388">
        <ele>37.813</ele>
        <time>2019-06-21T15:27:27Z</time>
      </trkpt>
      <trkpt lat="43.156165" lon="-9.188464">
        <ele>38.408</ele>
        <time>2019-06-21T15:27:28Z</time>
      </trkpt>
      <trkpt lat="43.156077" lon="-9.188535">
        <ele>39.090</ele>
        <time>2019-06-21T15:27:29Z</time>
      </trkpt>
      <trkpt lat="43.155987" lon="-9.188606">
        <ele>39.854</ele>
        <time>2019-06-21T15:27:30Z</time>
      </trkpt>
      <trkpt lat="43.155893" lon="-9.188669">
        <ele>40.846</ele>
        <time>2019-06-21T15:27:31Z</time>
      </trkpt>
      <trkpt lat="43.155834" lon="-9.188731">
        <ele>41.168</ele>
        <time>2019-06-21T15:27:32Z</time>
      </trkpt>
      <trkpt lat="43.155752" lon="-9.188795">
        <ele>41.845</ele>
        <time>2019-06-21T15:27:33Z</time>
      </trkpt>
      <trkpt lat="43.155664" lon="-9.188855">
        <ele>42.781</ele>
        <time>2019-06-21T15:27:34Z</time>
      </trkpt>
      <trkpt lat="43.155584" lon="-9.188907">
        <ele>43.595</ele>
        <time>2019-06-21T15:27:35Z</time>
      </trkpt>
      <trkpt lat="43.155502" lon="-9.188954">
        <ele>44.377</ele>
        <time>2019-06-21T15:27:36Z</time>
      </trkpt>
      <trkpt lat="43.155412" lon="-9.189030">
        <ele>45.182</ele>
        <time>2019-06-21T15:27:37Z</time>
      </trkpt>
      <trkpt lat="43.155348" lon="-9.189100">
        <ele>45.543</ele>
        <time>2019-06-21T15:27:38Z</time>
      </trkpt>
      <trkpt lat="43.155307" lon="-9.189182">
        <ele>45.617</ele>
        <time>2019-06-21T15:27:39Z</time>
      </trkpt>
      <trkpt lat="43.155252" lon="-9.189265">
        <ele>46.608</ele>
        <time>2019-06-21T15:27:40Z</time>
      </trkpt>
      <trkpt lat="43.155242" lon="-9.189379">
        <ele>46.911</ele>
        <time>2019-06-21T15:27:41Z</time>
      </trkpt>
      <trkpt lat="43.155220" lon="-9.189489">
        <ele>47.445</ele>
        <time>2019-06-21T15:27:42Z</time>
      </trkpt>
      <trkpt lat="43.155183" lon="-9.189611">
        <ele>48.277</ele>
        <time>2019-06-21T15:27:43Z</time>
      </trkpt>
      <trkpt lat="43.155170" lon="-9.189724">
        <ele>48.349</ele>
        <time>2019-06-21T15:27:44Z</time>
      </trkpt>
      <trkpt lat="43.155113" lon="-9.189824">
        <ele>49.686</ele>
        <time>2019-06-21T15:27:45Z</time>
      </trkpt>
      <trkpt lat="43.155074" lon="-9.189928">
        <ele>50.442</ele>
        <time>2019-06-21T15:27:46Z</time>
      </trkpt>
      <trkpt lat="43.155016" lon="-9.190012">
        <ele>51.786</ele>
        <time>2019-06-21T15:27:47Z</time>
      </trkpt>
      <trkpt lat="43.154945" lon="-9.190089">
        <ele>53.458</ele>
        <time>2019-06-21T15:27:48Z</time>
      </trkpt>
      <trkpt lat="43.154914" lon="-9.190139">
        <ele>54.242</ele>
        <time>2019-06-21T15:27:49Z</time>
      </trkpt>
      <trkpt lat="43.154894" lon="-9.190211">
        <ele>54.822</ele>
        <time>2019-06-21T15:27:50Z</time>
      </trkpt>
      <trkpt lat="43.154885" lon="-9.190293">
        <ele>55.214</ele>
        <time>2019-06-21T15:27:51Z</time>
      </trkpt>
      <trkpt lat="43.154914" lon="-9.190371">
        <ele>55.608</ele>
        <time>2019-06-21T15:27:52Z</time>
      </trkpt>
      <trkpt lat="43.154943" lon="-9.190473">
        <ele>56.157</ele>
        <time>2019-06-21T15:27:53Z</time>
      </trkpt>
      <trkpt lat="43.155005" lon="-9.190559">
        <ele>56.051</ele>
        <time>2019-06-21T15:27:54Z</time>
      </trkpt>
      <trkpt lat="43.155068" lon="-9.190662">
        <ele>56.863</ele>
        <time>2019-06-21T15:27:55Z</time>
      </trkpt>
      <trkpt lat="43.155132" lon="-9.190753">
        <ele>57.475</ele>
        <time>2019-06-21T15:27:56Z</time>
      </trkpt>
      <trkpt lat="43.155188" lon="-9.190832">
        <ele>58.092</ele>
        <time>2019-06-21T15:27:57Z</time>
      </trkpt>
      <trkpt lat="43.155254" lon="-9.190899">
        <ele>58.018</ele>
        <time>2019-06-21T15:27:58Z</time>
      </trkpt>
      <trkpt lat="43.155325" lon="-9.190946">
        <ele>57.462</ele>
        <time>2019-06-21T15:27:59Z</time>
      </trkpt>
      <trkpt lat="43.155424" lon="-9.190950">
        <ele>55.834</ele>
        <time>2019-06-21T15:28:00Z</time>
      </trkpt>
      <trkpt lat="43.155500" lon="-9.190962">
        <ele>54.868</ele>
        <time>2019-06-21T15:28:01Z</time>
      </trkpt>
      <trkpt lat="43.155568" lon="-9.190976">
        <ele>53.942</ele>
        <time>2019-06-21T15:28:02Z</time>
      </trkpt>
      <trkpt lat="43.155637" lon="-9.190992">
        <ele>53.326</ele>
        <time>2019-06-21T15:28:03Z</time>
      </trkpt>
      <trkpt lat="43.155682" lon="-9.191019">
        <ele>53.208</ele>
        <time>2019-06-21T15:28:04Z</time>
      </trkpt>
      <trkpt lat="43.155733" lon="-9.191058">
        <ele>53.299</ele>
        <time>2019-06-21T15:28:05Z</time>
      </trkpt>
      <trkpt lat="43.155810" lon="-9.191103">
        <ele>53.173</ele>
        <time>2019-06-21T15:28:06Z</time>
      </trkpt>
      <trkpt lat="43.155879" lon="-9.191142">
        <ele>53.215</ele>
        <time>2019-06-21T15:28:07Z</time>
      </trkpt>
      <trkpt lat="43.155941" lon="-9.191212">
        <ele>54.017</ele>
        <time>2019-06-21T15:28:08Z</time>
      </trkpt>
      <trkpt lat="43.155995" lon="-9.191292">
        <ele>55.184</ele>
        <time>2019-06-21T15:28:09Z</time>
      </trkpt>
      <trkpt lat="43.156052" lon="-9.191394">
        <ele>56.560</ele>
        <time>2019-06-21T15:28:10Z</time>
      </trkpt>
      <trkpt lat="43.156112" lon="-9.191492">
        <ele>57.574</ele>
        <time>2019-06-21T15:28:11Z</time>
      </trkpt>
      <trkpt lat="43.156166" lon="-9.191595">
        <ele>58.026</ele>
        <time>2019-06-21T15:28:12Z</time>
      </trkpt>
      <trkpt lat="43.156217" lon="-9.191691">
        <ele>58.456</ele>
        <time>2019-06-21T15:28:13Z</time>
      </trkpt>
      <trkpt lat="43.156265" lon="-9.191774">
        <ele>58.659</ele>
        <time>2019-06-21T15:28:14Z</time>
      </trkpt>
      <trkpt lat="43.156304" lon="-9.191859">
        <ele>58.814</ele>
        <time>2019-06-21T15:28:15Z</time>
      </trkpt>
      <trkpt lat="43.156317" lon="-9.191938">
        <ele>59.508</ele>
        <time>2019-06-21T15:28:16Z</time>
      </trkpt>
      <trkpt lat="43.156319" lon="-9.192030">
        <ele>60.418</ele>
        <time>2019-06-21T15:28:17Z</time>
      </trkpt>
      <trkpt lat="43.156316" lon="-9.192117">
        <ele>61.442</ele>
        <time>2019-06-21T15:28:18Z</time>
      </trkpt>
      <trkpt lat="43.156299" lon="-9.192219">
        <ele>62.924</ele>
        <time>2019-06-21T15:28:19Z</time>
      </trkpt>
      <trkpt lat="43.156287" lon="-9.192306">
        <ele>64.026</ele>
        <time>2019-06-21T15:28:20Z</time>
      </trkpt>
      <trkpt lat="43.156265" lon="-9.192420">
        <ele>65.523</ele>
        <time>2019-06-21T15:28:21Z</time>
      </trkpt>
      <trkpt lat="43.156250" lon="-9.192539">
        <ele>67.069</ele>
        <time>2019-06-21T15:28:22Z</time>
      </trkpt>
      <trkpt lat="43.156220" lon="-9.192650">
        <ele>68.813</ele>
        <time>2019-06-21T15:28:23Z</time>
      </trkpt>
      <trkpt lat="43.156176" lon="-9.192747">
        <ele>70.295</ele>
        <time>2019-06-21T15:28:24Z</time>
      </trkpt>
      <trkpt lat="43.156122" lon="-9.192834">
        <ele>71.373</ele>
        <time>2019-06-21T15:28:25Z</time>
      </trkpt>
      <trkpt lat="43.156055" lon="-9.192906">
        <ele>72.085</ele>
        <time>2019-06-21T15:28:26Z</time>
      </trkpt>
      <trkpt lat="43.155985" lon="-9.192970">
        <ele>72.513</ele>
        <time>2019-06-21T15:28:27Z</time>
      </trkpt>
      <trkpt lat="43.155905" lon="-9.193035">
        <ele>72.908</ele>
        <time>2019-06-21T15:28:28Z</time>
      </trkpt>
      <trkpt lat="43.155830" lon="-9.193096">
        <ele>72.890</ele>
        <time>2019-06-21T15:28:29Z</time>
      </trkpt>
      <trkpt lat="43.155777" lon="-9.193162">
        <ele>72.454</ele>
        <time>2019-06-21T15:28:30Z</time>
      </trkpt>
      <trkpt lat="43.155712" lon="-9.193238">
        <ele>71.996</ele>
        <time>2019-06-21T15:28:31Z</time>
      </trkpt>
      <trkpt lat="43.155654" lon="-9.193316">
        <ele>71.478</ele>
        <time>2019-06-21T15:28:32Z</time>
      </trkpt>
      <trkpt lat="43.155604" lon="-9.193404">
        <ele>71.155</ele>
        <time>2019-06-21T15:28:33Z</time>
      </trkpt>
      <trkpt lat="43.155554" lon="-9.193483">
        <ele>71.091</ele>
        <time>2019-06-21T15:28:34Z</time>
      </trkpt>
      <trkpt lat="43.155509" lon="-9.193567">
        <ele>71.075</ele>
        <time>2019-06-21T15:28:35Z</time>
      </trkpt>
      <trkpt lat="43.155481" lon="-9.193648">
        <ele>70.997</ele>
        <time>2019-06-21T15:28:36Z</time>
      </trkpt>
      <trkpt lat="43.155446" lon="-9.193724">
        <ele>70.826</ele>
        <time>2019-06-21T15:28:37Z</time>
      </trkpt>
      <trkpt lat="43.155418" lon="-9.193780">
        <ele>70.747</ele>
        <time>2019-06-21T15:28:38Z</time>
      </trkpt>
      <trkpt lat="43.155397" lon="-9.193838">
        <ele>70.611</ele>
        <time>2019-06-21T15:28:40Z</time>
      </trkpt>
      <trkpt lat="43.155464" lon="-9.193900">
        <ele>70.308</ele>
        <time>2019-06-21T15:28:44Z</time>
      </trkpt>
      <trkpt lat="43.155534" lon="-9.193956">
        <ele>69.865</ele>
        <time>2019-06-21T15:28:46Z</time>
      </trkpt>
      <trkpt lat="43.155534" lon="-9.194028">
        <ele>69.669</ele>
        <time>2019-06-21T15:29:15Z</time>
      </trkpt>
      <trkpt lat="43.155585" lon="-9.194029">
        <ele>69.511</ele>
        <time>2019-06-21T15:30:48Z</time>
      </trkpt>
      <trkpt lat="43.155580" lon="-9.193934">
        <ele>69.983</ele>
        <time>2019-06-21T15:30:51Z</time>
      </trkpt>
      <trkpt lat="43.155507" lon="-9.193875">
        <ele>70.290</ele>
        <time>2019-06-21T15:30:53Z</time>
      </trkpt>
      <trkpt lat="43.155460" lon="-9.193867">
        <ele>70.426</ele>
        <time>2019-06-21T15:30:54Z</time>
      </trkpt>
      <trkpt lat="43.155386" lon="-9.193902">
        <ele>70.630</ele>
        <time>2019-06-21T15:30:56Z</time>
      </trkpt>
      <trkpt lat="43.155326" lon="-9.193996">
        <ele>70.432</ele>
        <time>2019-06-21T15:30:58Z</time>
      </trkpt>
      <trkpt lat="43.155295" lon="-9.194066">
        <ele>70.375</ele>
        <time>2019-06-21T15:30:59Z</time>
      </trkpt>
      <trkpt lat="43.155261" lon="-9.194147">
        <ele>70.128</ele>
        <time>2019-06-21T15:31:00Z</time>
      </trkpt>
      <trkpt lat="43.155229" lon="-9.194254">
        <ele>70.220</ele>
        <time>2019-06-21T15:31:01Z</time>
      </trkpt>
      <trkpt lat="43.155221" lon="-9.194346">
        <ele>70.308</ele>
        <time>2019-06-21T15:31:02Z</time>
      </trkpt>
      <trkpt lat="43.155223" lon="-9.194443">
        <ele>70.440</ele>
        <time>2019-06-21T15:31:03Z</time>
      </trkpt>
      <trkpt lat="43.155236" lon="-9.194543">
        <ele>70.724</ele>
        <time>2019-06-21T15:31:04Z</time>
      </trkpt>
      <trkpt lat="43.155256" lon="-9.194647">
        <ele>70.916</ele>
        <time>2019-06-21T15:31:05Z</time>
      </trkpt>
      <trkpt lat="43.155279" lon="-9.194758">
        <ele>71.138</ele>
        <time>2019-06-21T15:31:06Z</time>
      </trkpt>
      <trkpt lat="43.155304" lon="-9.194871">
        <ele>71.225</ele>
        <time>2019-06-21T15:31:07Z</time>
      </trkpt>
      <trkpt lat="43.155345" lon="-9.194976">
        <ele>71.081</ele>
        <time>2019-06-21T15:31:08Z</time>
      </trkpt>
      <trkpt lat="43.155381" lon="-9.195086">
        <ele>70.565</ele>
        <time>2019-06-21T15:31:09Z</time>
      </trkpt>
      <trkpt lat="43.155425" lon="-9.195189">
        <ele>69.997</ele>
        <time>2019-06-21T15:31:10Z</time>
      </trkpt>
      <trkpt lat="43.155460" lon="-9.195304">
        <ele>69.475</ele>
        <time>2019-06-21T15:31:11Z</time>
      </trkpt>
      <trkpt lat="43.155494" lon="-9.195418">
        <ele>68.928</ele>
        <time>2019-06-21T15:31:12Z</time>
      </trkpt>
      <trkpt lat="43.155523" lon="-9.195529">
        <ele>68.520</ele>
        <time>2019-06-21T15:31:13Z</time>
      </trkpt>
      <trkpt lat="43.155546" lon="-9.195640">
        <ele>68.408</ele>
        <time>2019-06-21T15:31:14Z</time>
      </trkpt>
      <trkpt lat="43.155569" lon="-9.195749">
        <ele>68.270</ele>
        <time>2019-06-21T15:31:15Z</time>
      </trkpt>
      <trkpt lat="43.155582" lon="-9.195849">
        <ele>67.974</ele>
        <time>2019-06-21T15:31:16Z</time>
      </trkpt>
      <trkpt lat="43.155589" lon="-9.195929">
        <ele>67.686</ele>
        <time>2019-06-21T15:31:17Z</time>
      </trkpt>
      <trkpt lat="43.155583" lon="-9.196027">
        <ele>67.818</ele>
        <time>2019-06-21T15:31:18Z</time>
      </trkpt>
      <trkpt lat="43.155580" lon="-9.196140">
        <ele>67.725</ele>
        <time>2019-06-21T15:31:19Z</time>
      </trkpt>
      <trkpt lat="43.155572" lon="-9.196252">
        <ele>67.341</ele>
        <time>2019-06-21T15:31:20Z</time>
      </trkpt>
      <trkpt lat="43.155554" lon="-9.196356">
        <ele>67.375</ele>
        <time>2019-06-21T15:31:21Z</time>
      </trkpt>
      <trkpt lat="43.155532" lon="-9.196465">
        <ele>65.867</ele>
        <time>2019-06-21T15:31:22Z</time>
      </trkpt>
      <trkpt lat="43.155495" lon="-9.196557">
        <ele>64.615</ele>
        <time>2019-06-21T15:31:23Z</time>
      </trkpt>
      <trkpt lat="43.155459" lon="-9.196646">
        <ele>63.565</ele>
        <time>2019-06-21T15:31:24Z</time>
      </trkpt>
      <trkpt lat="43.155402" lon="-9.196719">
        <ele>63.111</ele>
        <time>2019-06-21T15:31:25Z</time>
      </trkpt>
      <trkpt lat="43.155342" lon="-9.196795">
        <ele>62.508</ele>
        <time>2019-06-21T15:31:26Z</time>
      </trkpt>
      <trkpt lat="43.155285" lon="-9.196864">
        <ele>61.934</ele>
        <time>2019-06-21T15:31:27Z</time>
      </trkpt>
      <trkpt lat="43.155228" lon="-9.196934">
        <ele>61.558</ele>
        <time>2019-06-21T15:31:28Z</time>
      </trkpt>
      <trkpt lat="43.155171" lon="-9.197007">
        <ele>61.330</ele>
        <time>2019-06-21T15:31:29Z</time>
      </trkpt>
      <trkpt lat="43.155130" lon="-9.197079">
        <ele>60.872</ele>
        <time>2019-06-21T15:31:30Z</time>
      </trkpt>
      <trkpt lat="43.155078" lon="-9.197168">
        <ele>60.259</ele>
        <time>2019-06-21T15:31:31Z</time>
      </trkpt>
      <trkpt lat="43.155025" lon="-9.197259">
        <ele>59.685</ele>
        <time>2019-06-21T15:31:32Z</time>
      </trkpt>
      <trkpt lat="43.154972" lon="-9.197338">
        <ele>59.199</ele>
        <time>2019-06-21T15:31:33Z</time>
      </trkpt>
      <trkpt lat="43.154920" lon="-9.197407">
        <ele>58.791</ele>
        <time>2019-06-21T15:31:34Z</time>
      </trkpt>
      <trkpt lat="43.154869" lon="-9.197464">
        <ele>58.638</ele>
        <time>2019-06-21T15:31:35Z</time>
      </trkpt>
      <trkpt lat="43.154813" lon="-9.197540">
        <ele>57.970</ele>
        <time>2019-06-21T15:31:36Z</time>
      </trkpt>
      <trkpt lat="43.154755" lon="-9.197611">
        <ele>57.117</ele>
        <time>2019-06-21T15:31:37Z</time>
      </trkpt>
      <trkpt lat="43.154679" lon="-9.197677">
        <ele>56.408</ele>
        <time>2019-06-21T15:31:38Z</time>
      </trkpt>
      <trkpt lat="43.154592" lon="-9.197732">
        <ele>55.796</ele>
        <time>2019-06-21T15:31:39Z</time>
      </trkpt>
      <trkpt lat="43.154506" lon="-9.197781">
        <ele>55.230</ele>
        <time>2019-06-21T15:31:40Z</time>
      </trkpt>
      <trkpt lat="43.154416" lon="-9.197833">
        <ele>54.052</ele>
        <time>2019-06-21T15:31:41Z</time>
      </trkpt>
      <trkpt lat="43.154335" lon="-9.197880">
        <ele>52.944</ele>
        <time>2019-06-21T15:31:42Z</time>
      </trkpt>
      <trkpt lat="43.154247" lon="-9.197929">
        <ele>52.361</ele>
        <time>2019-06-21T15:31:43Z</time>
      </trkpt>
      <trkpt lat="43.154157" lon="-9.197993">
        <ele>51.727</ele>
        <time>2019-06-21T15:31:44Z</time>
      </trkpt>
      <trkpt lat="43.154075" lon="-9.198046">
        <ele>51.291</ele>
        <time>2019-06-21T15:31:45Z</time>
      </trkpt>
      <trkpt lat="43.153987" lon="-9.198102">
        <ele>50.513</ele>
        <time>2019-06-21T15:31:46Z</time>
      </trkpt>
      <trkpt lat="43.153903" lon="-9.198153">
        <ele>50.032</ele>
        <time>2019-06-21T15:31:47Z</time>
      </trkpt>
      <trkpt lat="43.153824" lon="-9.198224">
        <ele>48.592</ele>
        <time>2019-06-21T15:31:48Z</time>
      </trkpt>
      <trkpt lat="43.153735" lon="-9.198288">
        <ele>47.311</ele>
        <time>2019-06-21T15:31:49Z</time>
      </trkpt>
      <trkpt lat="43.153653" lon="-9.198344">
        <ele>46.408</ele>
        <time>2019-06-21T15:31:50Z</time>
      </trkpt>
      <trkpt lat="43.153579" lon="-9.198408">
        <ele>45.136</ele>
        <time>2019-06-21T15:31:51Z</time>
      </trkpt>
      <trkpt lat="43.153497" lon="-9.198469">
        <ele>44.320</ele>
        <time>2019-06-21T15:31:52Z</time>
      </trkpt>
      <trkpt lat="43.153409" lon="-9.198536">
        <ele>43.762</ele>
        <time>2019-06-21T15:31:53Z</time>
      </trkpt>
      <trkpt lat="43.153327" lon="-9.198592">
        <ele>43.594</ele>
        <time>2019-06-21T15:31:54Z</time>
      </trkpt>
      <trkpt lat="43.153237" lon="-9.198645">
        <ele>43.431</ele>
        <time>2019-06-21T15:31:55Z</time>
      </trkpt>
      <trkpt lat="43.153158" lon="-9.198683">
        <ele>43.597</ele>
        <time>2019-06-21T15:31:56Z</time>
      </trkpt>
      <trkpt lat="43.153068" lon="-9.198722">
        <ele>43.911</ele>
        <time>2019-06-21T15:31:57Z</time>
      </trkpt>
      <trkpt lat="43.152990" lon="-9.198749">
        <ele>43.933</ele>
        <time>2019-06-21T15:31:58Z</time>
      </trkpt>
      <trkpt lat="43.152914" lon="-9.198765">
        <ele>44.168</ele>
        <time>2019-06-21T15:31:59Z</time>
      </trkpt>
      <trkpt lat="43.152853" lon="-9.198750">
        <ele>44.642</ele>
        <time>2019-06-21T15:32:00Z</time>
      </trkpt>
      <trkpt lat="43.152783" lon="-9.198730">
        <ele>45.126</ele>
        <time>2019-06-21T15:32:01Z</time>
      </trkpt>
      <trkpt lat="43.152719" lon="-9.198703">
        <ele>45.508</ele>
        <time>2019-06-21T15:32:02Z</time>
      </trkpt>
      <trkpt lat="43.152655" lon="-9.198678">
        <ele>45.819</ele>
        <time>2019-06-21T15:32:03Z</time>
      </trkpt>
      <trkpt lat="43.152600" lon="-9.198647">
        <ele>46.063</ele>
        <time>2019-06-21T15:32:04Z</time>
      </trkpt>
      <trkpt lat="43.152549" lon="-9.198642">
        <ele>46.115</ele>
        <time>2019-06-21T15:32:05Z</time>
      </trkpt>
      <trkpt lat="43.152501" lon="-9.198656">
        <ele>46.227</ele>
        <time>2019-06-21T15:32:06Z</time>
      </trkpt>
      <trkpt lat="43.152454" lon="-9.198692">
        <ele>47.024</ele>
        <time>2019-06-21T15:32:07Z</time>
      </trkpt>
      <trkpt lat="43.152425" lon="-9.198751">
        <ele>47.950</ele>
        <time>2019-06-21T15:32:08Z</time>
      </trkpt>
      <trkpt lat="43.152409" lon="-9.198821">
        <ele>48.614</ele>
        <time>2019-06-21T15:32:09Z</time>
      </trkpt>
      <trkpt lat="43.152407" lon="-9.198902">
        <ele>49.116</ele>
        <time>2019-06-21T15:32:10Z</time>
      </trkpt>
      <trkpt lat="43.152420" lon="-9.198996">
        <ele>49.615</ele>
        <time>2019-06-21T15:32:11Z</time>
      </trkpt>
      <trkpt lat="43.152455" lon="-9.199065">
        <ele>49.365</ele>
        <time>2019-06-21T15:32:12Z</time>
      </trkpt>
      <trkpt lat="43.152492" lon="-9.199163">
        <ele>49.211</ele>
        <time>2019-06-21T15:32:13Z</time>
      </trkpt>
      <trkpt lat="43.152532" lon="-9.199259">
        <ele>49.708</ele>
        <time>2019-06-21T15:32:14Z</time>
      </trkpt>
      <trkpt lat="43.152583" lon="-9.199358">
        <ele>50.194</ele>
        <time>2019-06-21T15:32:15Z</time>
      </trkpt>
      <trkpt lat="43.152653" lon="-9.199440">
        <ele>49.698</ele>
        <time>2019-06-21T15:32:16Z</time>
      </trkpt>
      <trkpt lat="43.152730" lon="-9.199508">
        <ele>49.480</ele>
        <time>2019-06-21T15:32:17Z</time>
      </trkpt>
      <trkpt lat="43.152804" lon="-9.199558">
        <ele>49.072</ele>
        <time>2019-06-21T15:32:18Z</time>
      </trkpt>
      <trkpt lat="43.152893" lon="-9.199597">
        <ele>48.279</ele>
        <time>2019-06-21T15:32:19Z</time>
      </trkpt>
      <trkpt lat="43.152969" lon="-9.199643">
        <ele>47.825</ele>
        <time>2019-06-21T15:32:20Z</time>
      </trkpt>
      <trkpt lat="43.153058" lon="-9.199689">
        <ele>47.229</ele>
        <time>2019-06-21T15:32:21Z</time>
      </trkpt>
      <trkpt lat="43.153147" lon="-9.199735">
        <ele>47.091</ele>
        <time>2019-06-21T15:32:22Z</time>
      </trkpt>
      <trkpt lat="43.153227" lon="-9.199799">
        <ele>47.358</ele>
        <time>2019-06-21T15:32:23Z</time>
      </trkpt>
      <trkpt lat="43.153307" lon="-9.199859">
        <ele>47.452</ele>
        <time>2019-06-21T15:32:24Z</time>
      </trkpt>
      <trkpt lat="43.153391" lon="-9.199913">
        <ele>47.117</ele>
        <time>2019-06-21T15:32:25Z</time>
      </trkpt>
      <trkpt lat="43.153469" lon="-9.199972">
        <ele>47.008</ele>
        <time>2019-06-21T15:32:26Z</time>
      </trkpt>
      <trkpt lat="43.153537" lon="-9.200040">
        <ele>47.188</ele>
        <time>2019-06-21T15:32:27Z</time>
      </trkpt>
      <trkpt lat="43.153603" lon="-9.200119">
        <ele>47.342</ele>
        <time>2019-06-21T15:32:28Z</time>
      </trkpt>
      <trkpt lat="43.153658" lon="-9.200218">
        <ele>47.694</ele>
        <time>2019-06-21T15:32:29Z</time>
      </trkpt>
      <trkpt lat="43.153709" lon="-9.200327">
        <ele>47.796</ele>
        <time>2019-06-21T15:32:30Z</time>
      </trkpt>
      <trkpt lat="43.153761" lon="-9.200448">
        <ele>47.653</ele>
        <time>2019-06-21T15:32:31Z</time>
      </trkpt>
      <trkpt lat="43.153806" lon="-9.200563">
        <ele>47.939</ele>
        <time>2019-06-21T15:32:32Z</time>
      </trkpt>
      <trkpt lat="43.153856" lon="-9.200684">
        <ele>48.143</ele>
        <time>2019-06-21T15:32:33Z</time>
      </trkpt>
      <trkpt lat="43.153896" lon="-9.200804">
        <ele>48.575</ele>
        <time>2019-06-21T15:32:34Z</time>
      </trkpt>
      <trkpt lat="43.153934" lon="-9.200930">
        <ele>48.355</ele>
        <time>2019-06-21T15:32:35Z</time>
      </trkpt>
      <trkpt lat="43.153964" lon="-9.201057">
        <ele>48.607</ele>
        <time>2019-06-21T15:32:36Z</time>
      </trkpt>
      <trkpt lat="43.153992" lon="-9.201162">
        <ele>48.817</ele>
        <time>2019-06-21T15:32:37Z</time>
      </trkpt>
      <trkpt lat="43.154021" lon="-9.201272">
        <ele>49.108</ele>
        <time>2019-06-21T15:32:38Z</time>
      </trkpt>
      <trkpt lat="43.154052" lon="-9.201374">
        <ele>49.328</ele>
        <time>2019-06-21T15:32:39Z</time>
      </trkpt>
      <trkpt lat="43.154095" lon="-9.201474">
        <ele>49.122</ele>
        <time>2019-06-21T15:32:40Z</time>
      </trkpt>
      <trkpt lat="43.154141" lon="-9.201554">
        <ele>48.784</ele>
        <time>2019-06-21T15:32:41Z</time>
      </trkpt>
      <trkpt lat="43.154187" lon="-9.201634">
        <ele>48.176</ele>
        <time>2019-06-21T15:32:42Z</time>
      </trkpt>
      <trkpt lat="43.154233" lon="-9.201701">
        <ele>47.153</ele>
        <time>2019-06-21T15:32:43Z</time>
      </trkpt>
      <trkpt lat="43.154283" lon="-9.201778">
        <ele>46.299</ele>
        <time>2019-06-21T15:32:44Z</time>
      </trkpt>
      <trkpt lat="43.154326" lon="-9.201863">
        <ele>45.713</ele>
        <time>2019-06-21T15:32:45Z</time>
      </trkpt>
      <trkpt lat="43.154366" lon="-9.201949">
        <ele>45.375</ele>
        <time>2019-06-21T15:32:46Z</time>
      </trkpt>
      <trkpt lat="43.154399" lon="-9.202030">
        <ele>45.198</ele>
        <time>2019-06-21T15:32:47Z</time>
      </trkpt>
      <trkpt lat="43.154412" lon="-9.202098">
        <ele>45.515</ele>
        <time>2019-06-21T15:32:48Z</time>
      </trkpt>
      <trkpt lat="43.154433" lon="-9.202181">
        <ele>45.826</ele>
        <time>2019-06-21T15:32:49Z</time>
      </trkpt>
      <trkpt lat="43.154453" lon="-9.202241">
        <ele>45.708</ele>
        <time>2019-06-21T15:32:50Z</time>
      </trkpt>
      <trkpt lat="43.154483" lon="-9.202350">
        <ele>44.722</ele>
        <time>2019-06-21T15:32:52Z</time>
      </trkpt>
      <trkpt lat="43.154506" lon="-9.202415">
        <ele>44.076</ele>
        <time>2019-06-21T15:32:54Z</time>
      </trkpt>
      <trkpt lat="43.154510" lon="-9.202496">
        <ele>44.128</ele>
        <time>2019-06-21T15:34:10Z</time>
      </trkpt>
      <trkpt lat="43.154499" lon="-9.202575">
        <ele>44.260</ele>
        <time>2019-06-21T15:34:11Z</time>
      </trkpt>
      <trkpt lat="43.154477" lon="-9.202654">
        <ele>44.557</ele>
        <time>2019-06-21T15:34:12Z</time>
      </trkpt>
      <trkpt lat="43.154450" lon="-9.202731">
        <ele>45.043</ele>
        <time>2019-06-21T15:34:13Z</time>
      </trkpt>
      <trkpt lat="43.154407" lon="-9.202799">
        <ele>45.627</ele>
        <time>2019-06-21T15:34:14Z</time>
      </trkpt>
      <trkpt lat="43.154363" lon="-9.202856">
        <ele>46.189</ele>
        <time>2019-06-21T15:34:15Z</time>
      </trkpt>
      <trkpt lat="43.154324" lon="-9.202923">
        <ele>46.583</ele>
        <time>2019-06-21T15:34:16Z</time>
      </trkpt>
      <trkpt lat="43.154276" lon="-9.202967">
        <ele>47.425</ele>
        <time>2019-06-21T15:34:17Z</time>
      </trkpt>
      <trkpt lat="43.154228" lon="-9.203034">
        <ele>48.317</ele>
        <time>2019-06-21T15:34:18Z</time>
      </trkpt>
      <trkpt lat="43.154204" lon="-9.203096">
        <ele>49.108</ele>
        <time>2019-06-21T15:34:19Z</time>
      </trkpt>
      <trkpt lat="43.154175" lon="-9.203164">
        <ele>50.521</ele>
        <time>2019-06-21T15:34:20Z</time>
      </trkpt>
      <trkpt lat="43.154150" lon="-9.203248">
        <ele>52.165</ele>
        <time>2019-06-21T15:34:21Z</time>
      </trkpt>
      <trkpt lat="43.154152" lon="-9.203325">
        <ele>52.627</ele>
        <time>2019-06-21T15:34:22Z</time>
      </trkpt>
      <trkpt lat="43.154161" lon="-9.203416">
        <ele>52.879</ele>
        <time>2019-06-21T15:34:23Z</time>
      </trkpt>
      <trkpt lat="43.154170" lon="-9.203503">
        <ele>53.086</ele>
        <time>2019-06-21T15:34:24Z</time>
      </trkpt>
      <trkpt lat="43.154172" lon="-9.203594">
        <ele>53.612</ele>
        <time>2019-06-21T15:34:25Z</time>
      </trkpt>
      <trkpt lat="43.154173" lon="-9.203685">
        <ele>54.276</ele>
        <time>2019-06-21T15:34:26Z</time>
      </trkpt>
      <trkpt lat="43.154175" lon="-9.203770">
        <ele>54.758</ele>
        <time>2019-06-21T15:34:27Z</time>
      </trkpt>
      <trkpt lat="43.154185" lon="-9.203865">
        <ele>54.837</ele>
        <time>2019-06-21T15:34:28Z</time>
      </trkpt>
      <trkpt lat="43.154208" lon="-9.203957">
        <ele>54.549</ele>
        <time>2019-06-21T15:34:29Z</time>
      </trkpt>
      <trkpt lat="43.154237" lon="-9.204062">
        <ele>54.513</ele>
        <time>2019-06-21T15:34:30Z</time>
      </trkpt>
      <trkpt lat="43.154283" lon="-9.204154">
        <ele>53.808</ele>
        <time>2019-06-21T15:34:31Z</time>
      </trkpt>
      <trkpt lat="43.154336" lon="-9.204240">
        <ele>52.966</ele>
        <time>2019-06-21T15:34:32Z</time>
      </trkpt>
      <trkpt lat="43.154397" lon="-9.204320">
        <ele>52.030</ele>
        <time>2019-06-21T15:34:33Z</time>
      </trkpt>
      <trkpt lat="43.154464" lon="-9.204412">
        <ele>51.352</ele>
        <time>2019-06-21T15:34:34Z</time>
      </trkpt>
      <trkpt lat="43.154528" lon="-9.204507">
        <ele>49.674</ele>
        <time>2019-06-21T15:34:35Z</time>
      </trkpt>
      <trkpt lat="43.154571" lon="-9.204607">
        <ele>48.941</ele>
        <time>2019-06-21T15:34:36Z</time>
      </trkpt>
      <trkpt lat="43.154625" lon="-9.204704">
        <ele>47.977</ele>
        <time>2019-06-21T15:34:37Z</time>
      </trkpt>
      <trkpt lat="43.154676" lon="-9.204801">
        <ele>47.371</ele>
        <time>2019-06-21T15:34:38Z</time>
      </trkpt>
      <trkpt lat="43.154710" lon="-9.204904">
        <ele>47.763</ele>
        <time>2019-06-21T15:34:39Z</time>
      </trkpt>
      <trkpt lat="43.154743" lon="-9.205011">
        <ele>48.049</ele>
        <time>2019-06-21T15:34:40Z</time>
      </trkpt>
      <trkpt lat="43.154776" lon="-9.205118">
        <ele>47.302</ele>
        <time>2019-06-21T15:34:41Z</time>
      </trkpt>
      <trkpt lat="43.154808" lon="-9.205224">
        <ele>47.022</ele>
        <time>2019-06-21T15:34:42Z</time>
      </trkpt>
      <trkpt lat="43.154828" lon="-9.205338">
        <ele>47.208</ele>
        <time>2019-06-21T15:34:43Z</time>
      </trkpt>
      <trkpt lat="43.154858" lon="-9.205440">
        <ele>46.837</ele>
        <time>2019-06-21T15:34:44Z</time>
      </trkpt>
      <trkpt lat="43.154887" lon="-9.205537">
        <ele>46.311</ele>
        <time>2019-06-21T15:34:45Z</time>
      </trkpt>
      <trkpt lat="43.154896" lon="-9.205646">
        <ele>46.163</ele>
        <time>2019-06-21T15:34:46Z</time>
      </trkpt>
      <trkpt lat="43.154909" lon="-9.205715">
        <ele>45.625</ele>
        <time>2019-06-21T15:34:47Z</time>
      </trkpt>
      <trkpt lat="43.154887" lon="-9.205821">
        <ele>46.512</ele>
        <time>2019-06-21T15:34:48Z</time>
      </trkpt>
      <trkpt lat="43.154855" lon="-9.205924">
        <ele>47.158</ele>
        <time>2019-06-21T15:34:49Z</time>
      </trkpt>
      <trkpt lat="43.154834" lon="-9.206022">
        <ele>47.192</ele>
        <time>2019-06-21T15:34:50Z</time>
      </trkpt>
      <trkpt lat="43.154821" lon="-9.206136">
        <ele>46.424</ele>
        <time>2019-06-21T15:34:51Z</time>
      </trkpt>
      <trkpt lat="43.154800" lon="-9.206245">
        <ele>45.628</ele>
        <time>2019-06-21T15:34:52Z</time>
      </trkpt>
      <trkpt lat="43.154786" lon="-9.206351">
        <ele>44.589</ele>
        <time>2019-06-21T15:34:53Z</time>
      </trkpt>
      <trkpt lat="43.154763" lon="-9.206438">
        <ele>43.817</ele>
        <time>2019-06-21T15:34:54Z</time>
      </trkpt>
      <trkpt lat="43.154733" lon="-9.206523">
        <ele>43.308</ele>
        <time>2019-06-21T15:34:55Z</time>
      </trkpt>
      <trkpt lat="43.154694" lon="-9.206608">
        <ele>42.755</ele>
        <time>2019-06-21T15:34:56Z</time>
      </trkpt>
      <trkpt lat="43.154646" lon="-9.206683">
        <ele>42.479</ele>
        <time>2019-06-21T15:34:57Z</time>
      </trkpt>
      <trkpt lat="43.154600" lon="-9.206778">
        <ele>41.681</ele>
        <time>2019-06-21T15:34:58Z</time>
      </trkpt>
      <trkpt lat="43.154549" lon="-9.206866">
        <ele>41.253</ele>
        <time>2019-06-21T15:34:59Z</time>
      </trkpt>
      <trkpt lat="43.154504" lon="-9.206950">
        <ele>40.640</ele>
        <time>2019-06-21T15:35:00Z</time>
      </trkpt>
      <trkpt lat="43.154455" lon="-9.207030">
        <ele>40.626</ele>
        <time>2019-06-21T15:35:01Z</time>
      </trkpt>
      <trkpt lat="43.154415" lon="-9.207109">
        <ele>40.380</ele>
        <time>2019-06-21T15:35:02Z</time>
      </trkpt>
      <trkpt lat="43.154375" lon="-9.207183">
        <ele>40.122</ele>
        <time>2019-06-21T15:35:03Z</time>
      </trkpt>
      <trkpt lat="43.154339" lon="-9.207277">
        <ele>39.799</ele>
        <time>2019-06-21T15:35:04Z</time>
      </trkpt>
      <trkpt lat="43.154308" lon="-9.207373">
        <ele>39.307</ele>
        <time>2019-06-21T15:35:05Z</time>
      </trkpt>
      <trkpt lat="43.154293" lon="-9.207473">
        <ele>38.527</ele>
        <time>2019-06-21T15:35:06Z</time>
      </trkpt>
      <trkpt lat="43.154288" lon="-9.207553">
        <ele>37.808</ele>
        <time>2019-06-21T15:35:07Z</time>
      </trkpt>
      <trkpt lat="43.154297" lon="-9.207651">
        <ele>36.742</ele>
        <time>2019-06-21T15:35:08Z</time>
      </trkpt>
      <trkpt lat="43.154301" lon="-9.207758">
        <ele>35.756</ele>
        <time>2019-06-21T15:35:09Z</time>
      </trkpt>
      <trkpt lat="43.154299" lon="-9.207866">
        <ele>35.358</ele>
        <time>2019-06-21T15:35:10Z</time>
      </trkpt>
      <trkpt lat="43.154288" lon="-9.207958">
        <ele>35.070</ele>
        <time>2019-06-21T15:35:11Z</time>
      </trkpt>
      <trkpt lat="43.154273" lon="-9.208049">
        <ele>34.927</ele>
        <time>2019-06-21T15:35:12Z</time>
      </trkpt>
      <trkpt lat="43.154239" lon="-9.208143">
        <ele>34.623</ele>
        <time>2019-06-21T15:35:13Z</time>
      </trkpt>
      <trkpt lat="43.154189" lon="-9.208231">
        <ele>34.587</ele>
        <time>2019-06-21T15:35:14Z</time>
      </trkpt>
      <trkpt lat="43.154138" lon="-9.208324">
        <ele>34.389</ele>
        <time>2019-06-21T15:35:15Z</time>
      </trkpt>
      <trkpt lat="43.154088" lon="-9.208406">
        <ele>33.966</ele>
        <time>2019-06-21T15:35:16Z</time>
      </trkpt>
      <trkpt lat="43.154027" lon="-9.208492">
        <ele>33.629</ele>
        <time>2019-06-21T15:35:17Z</time>
      </trkpt>
      <trkpt lat="43.153965" lon="-9.208563">
        <ele>33.621</ele>
        <time>2019-06-21T15:35:18Z</time>
      </trkpt>
      <trkpt lat="43.153900" lon="-9.208638">
        <ele>33.708</ele>
        <time>2019-06-21T15:35:19Z</time>
      </trkpt>
      <trkpt lat="43.153832" lon="-9.208699">
        <ele>33.689</ele>
        <time>2019-06-21T15:35:20Z</time>
      </trkpt>
      <trkpt lat="43.153754" lon="-9.208731">
        <ele>33.663</ele>
        <time>2019-06-21T15:35:21Z</time>
      </trkpt>
      <trkpt lat="43.153673" lon="-9.208732">
        <ele>33.965</ele>
        <time>2019-06-21T15:35:22Z</time>
      </trkpt>
      <trkpt lat="43.153598" lon="-9.208719">
        <ele>34.227</ele>
        <time>2019-06-21T15:35:23Z</time>
      </trkpt>
      <trkpt lat="43.153512" lon="-9.208707">
        <ele>34.364</ele>
        <time>2019-06-21T15:35:24Z</time>
      </trkpt>
      <trkpt lat="43.153418" lon="-9.208692">
        <ele>34.470</ele>
        <time>2019-06-21T15:35:25Z</time>
      </trkpt>
      <trkpt lat="43.153324" lon="-9.208686">
        <ele>34.464</ele>
        <time>2019-06-21T15:35:26Z</time>
      </trkpt>
      <trkpt lat="43.153225" lon="-9.208684">
        <ele>34.266</ele>
        <time>2019-06-21T15:35:27Z</time>
      </trkpt>
      <trkpt lat="43.153124" lon="-9.208693">
        <ele>33.921</ele>
        <time>2019-06-21T15:35:28Z</time>
      </trkpt>
      <trkpt lat="43.153032" lon="-9.208690">
        <ele>33.741</ele>
        <time>2019-06-21T15:35:29Z</time>
      </trkpt>
      <trkpt lat="43.152928" lon="-9.208694">
        <ele>33.605</ele>
        <time>2019-06-21T15:35:30Z</time>
      </trkpt>
      <trkpt lat="43.152834" lon="-9.208696">
        <ele>33.508</ele>
        <time>2019-06-21T15:35:31Z</time>
      </trkpt>
      <trkpt lat="43.152745" lon="-9.208695">
        <ele>33.245</ele>
        <time>2019-06-21T15:35:32Z</time>
      </trkpt>
      <trkpt lat="43.152658" lon="-9.208689">
        <ele>32.879</ele>
        <time>2019-06-21T15:35:33Z</time>
      </trkpt>
      <trkpt lat="43.152584" lon="-9.208687">
        <ele>32.431</ele>
        <time>2019-06-21T15:35:34Z</time>
      </trkpt>
      <trkpt lat="43.152512" lon="-9.208677">
        <ele>32.123</ele>
        <time>2019-06-21T15:35:35Z</time>
      </trkpt>
      <trkpt lat="43.152448" lon="-9.208689">
        <ele>31.840</ele>
        <time>2019-06-21T15:35:36Z</time>
      </trkpt>
      <trkpt lat="43.152401" lon="-9.208709">
        <ele>31.516</ele>
        <time>2019-06-21T15:35:37Z</time>
      </trkpt>
      <trkpt lat="43.152342" lon="-9.208789">
        <ele>31.170</ele>
        <time>2019-06-21T15:35:39Z</time>
      </trkpt>
      <trkpt lat="43.152321" lon="-9.208931">
        <ele>30.642</ele>
        <time>2019-06-21T15:35:41Z</time>
      </trkpt>
      <trkpt lat="43.152300" lon="-9.209038">
        <ele>30.027</ele>
        <time>2019-06-21T15:35:42Z</time>
      </trkpt>
      <trkpt lat="43.152287" lon="-9.209150">
        <ele>29.568</ele>
        <time>2019-06-21T15:35:43Z</time>
      </trkpt>
      <trkpt lat="43.152263" lon="-9.209261">
        <ele>29.314</ele>
        <time>2019-06-21T15:35:44Z</time>
      </trkpt>
      <trkpt lat="43.152244" lon="-9.209363">
        <ele>29.208</ele>
        <time>2019-06-21T15:35:45Z</time>
      </trkpt>
      <trkpt lat="43.152227" lon="-9.209465">
        <ele>29.065</ele>
        <time>2019-06-21T15:35:46Z</time>
      </trkpt>
      <trkpt lat="43.152214" lon="-9.209565">
        <ele>28.589</ele>
        <time>2019-06-21T15:35:47Z</time>
      </trkpt>
      <trkpt lat="43.152199" lon="-9.209655">
        <ele>28.161</ele>
        <time>2019-06-21T15:35:48Z</time>
      </trkpt>
      <trkpt lat="43.152195" lon="-9.209742">
        <ele>27.793</ele>
        <time>2019-06-21T15:35:49Z</time>
      </trkpt>
      <trkpt lat="43.152207" lon="-9.209830">
        <ele>27.120</ele>
        <time>2019-06-21T15:35:50Z</time>
      </trkpt>
      <trkpt lat="43.152222" lon="-9.209901">
        <ele>26.716</ele>
        <time>2019-06-21T15:35:51Z</time>
      </trkpt>
      <trkpt lat="43.152256" lon="-9.209968">
        <ele>26.480</ele>
        <time>2019-06-21T15:35:52Z</time>
      </trkpt>
      <trkpt lat="43.152295" lon="-9.210014">
        <ele>26.162</ele>
        <time>2019-06-21T15:35:53Z</time>
      </trkpt>
      <trkpt lat="43.152335" lon="-9.210062">
        <ele>25.647</ele>
        <time>2019-06-21T15:35:54Z</time>
      </trkpt>
      <trkpt lat="43.152403" lon="-9.210079">
        <ele>25.629</ele>
        <time>2019-06-21T15:35:55Z</time>
      </trkpt>
      <trkpt lat="43.152475" lon="-9.210108">
        <ele>25.421</ele>
        <time>2019-06-21T15:35:56Z</time>
      </trkpt>
      <trkpt lat="43.152553" lon="-9.210129">
        <ele>25.008</ele>
        <time>2019-06-21T15:35:57Z</time>
      </trkpt>
      <trkpt lat="43.152631" lon="-9.210155">
        <ele>24.347</ele>
        <time>2019-06-21T15:35:58Z</time>
      </trkpt>
      <trkpt lat="43.152712" lon="-9.210178">
        <ele>23.711</ele>
        <time>2019-06-21T15:35:59Z</time>
      </trkpt>
      <trkpt lat="43.152794" lon="-9.210179">
        <ele>23.453</ele>
        <time>2019-06-21T15:36:00Z</time>
      </trkpt>
      <trkpt lat="43.152887" lon="-9.210166">
        <ele>23.285</ele>
        <time>2019-06-21T15:36:01Z</time>
      </trkpt>
      <trkpt lat="43.152982" lon="-9.210156">
        <ele>23.072</ele>
        <time>2019-06-21T15:36:02Z</time>
      </trkpt>
      <trkpt lat="43.153072" lon="-9.210129">
        <ele>23.188</ele>
        <time>2019-06-21T15:36:03Z</time>
      </trkpt>
      <trkpt lat="43.153175" lon="-9.210109">
        <ele>22.752</ele>
        <time>2019-06-21T15:36:04Z</time>
      </trkpt>
      <trkpt lat="43.153285" lon="-9.210076">
        <ele>22.584</ele>
        <time>2019-06-21T15:36:05Z</time>
      </trkpt>
      <trkpt lat="43.153392" lon="-9.210053">
        <ele>22.358</ele>
        <time>2019-06-21T15:36:06Z</time>
      </trkpt>
      <trkpt lat="43.153499" lon="-9.210006">
        <ele>22.452</ele>
        <time>2019-06-21T15:36:07Z</time>
      </trkpt>
      <trkpt lat="43.153609" lon="-9.209982">
        <ele>22.217</ele>
        <time>2019-06-21T15:36:08Z</time>
      </trkpt>
      <trkpt lat="43.153719" lon="-9.209943">
        <ele>22.608</ele>
        <time>2019-06-21T15:36:09Z</time>
      </trkpt>
      <trkpt lat="43.153825" lon="-9.209908">
        <ele>23.018</ele>
        <time>2019-06-21T15:36:10Z</time>
      </trkpt>
      <trkpt lat="43.153928" lon="-9.209890">
        <ele>22.922</ele>
        <time>2019-06-21T15:36:11Z</time>
      </trkpt>
      <trkpt lat="43.154030" lon="-9.209856">
        <ele>22.344</ele>
        <time>2019-06-21T15:36:12Z</time>
      </trkpt>
      <trkpt lat="43.154131" lon="-9.209834">
        <ele>21.526</ele>
        <time>2019-06-21T15:36:13Z</time>
      </trkpt>
      <trkpt lat="43.154224" lon="-9.209819">
        <ele>20.913</ele>
        <time>2019-06-21T15:36:14Z</time>
      </trkpt>
      <trkpt lat="43.154308" lon="-9.209793">
        <ele>20.579</ele>
        <time>2019-06-21T15:36:15Z</time>
      </trkpt>
      <trkpt lat="43.154394" lon="-9.209778">
        <ele>20.083</ele>
        <time>2019-06-21T15:36:16Z</time>
      </trkpt>
      <trkpt lat="43.154485" lon="-9.209772">
        <ele>19.425</ele>
        <time>2019-06-21T15:36:17Z</time>
      </trkpt>
      <trkpt lat="43.154569" lon="-9.209783">
        <ele>18.856</ele>
        <time>2019-06-21T15:36:18Z</time>
      </trkpt>
      <trkpt lat="43.154672" lon="-9.209784">
        <ele>18.159</ele>
        <time>2019-06-21T15:36:19Z</time>
      </trkpt>
      <trkpt lat="43.154779" lon="-9.209809">
        <ele>17.314</ele>
        <time>2019-06-21T15:36:20Z</time>
      </trkpt>
      <trkpt lat="43.154902" lon="-9.209822">
        <ele>16.608</ele>
        <time>2019-06-21T15:36:21Z</time>
      </trkpt>
      <trkpt lat="43.155026" lon="-9.209823">
        <ele>15.888</ele>
        <time>2019-06-21T15:36:22Z</time>
      </trkpt>
      <trkpt lat="43.155155" lon="-9.209822">
        <ele>14.922</ele>
        <time>2019-06-21T15:36:23Z</time>
      </trkpt>
      <trkpt lat="43.155269" lon="-9.209821">
        <ele>14.144</ele>
        <time>2019-06-21T15:36:24Z</time>
      </trkpt>
      <trkpt lat="43.155381" lon="-9.209832">
        <ele>13.846</ele>
        <time>2019-06-21T15:36:25Z</time>
      </trkpt>
      <trkpt lat="43.155495" lon="-9.209827">
        <ele>13.543</ele>
        <time>2019-06-21T15:36:26Z</time>
      </trkpt>
      <trkpt lat="43.155601" lon="-9.209809">
        <ele>13.589</ele>
        <time>2019-06-21T15:36:27Z</time>
      </trkpt>
      <trkpt lat="43.155714" lon="-9.209770">
        <ele>13.713</ele>
        <time>2019-06-21T15:36:28Z</time>
      </trkpt>
      <trkpt lat="43.155837" lon="-9.209707">
        <ele>14.055</ele>
        <time>2019-06-21T15:36:29Z</time>
      </trkpt>
      <trkpt lat="43.155941" lon="-9.209643">
        <ele>14.827</ele>
        <time>2019-06-21T15:36:30Z</time>
      </trkpt>
      <trkpt lat="43.156050" lon="-9.209567">
        <ele>15.668</ele>
        <time>2019-06-21T15:36:31Z</time>
      </trkpt>
      <trkpt lat="43.156168" lon="-9.209487">
        <ele>17.014</ele>
        <time>2019-06-21T15:36:32Z</time>
      </trkpt>
      <trkpt lat="43.156274" lon="-9.209401">
        <ele>18.708</ele>
        <time>2019-06-21T15:36:33Z</time>
      </trkpt>
      <trkpt lat="43.156377" lon="-9.209318">
        <ele>19.925</ele>
        <time>2019-06-21T15:36:34Z</time>
      </trkpt>
      <trkpt lat="43.156484" lon="-9.209186">
        <ele>21.249</ele>
        <time>2019-06-21T15:36:35Z</time>
      </trkpt>
      <trkpt lat="43.156572" lon="-9.209077">
        <ele>21.041</ele>
        <time>2019-06-21T15:36:36Z</time>
      </trkpt>
      <trkpt lat="43.156657" lon="-9.208975">
        <ele>20.053</ele>
        <time>2019-06-21T15:36:37Z</time>
      </trkpt>
      <trkpt lat="43.156737" lon="-9.208882">
        <ele>19.350</ele>
        <time>2019-06-21T15:36:38Z</time>
      </trkpt>
      <trkpt lat="43.156803" lon="-9.208805">
        <ele>18.736</ele>
        <time>2019-06-21T15:36:39Z</time>
      </trkpt>
      <trkpt lat="43.156876" lon="-9.208746">
        <ele>18.580</ele>
        <time>2019-06-21T15:36:40Z</time>
      </trkpt>
      <trkpt lat="43.156961" lon="-9.208725">
        <ele>19.412</ele>
        <time>2019-06-21T15:36:41Z</time>
      </trkpt>
      <trkpt lat="43.157046" lon="-9.208736">
        <ele>20.488</ele>
        <time>2019-06-21T15:36:42Z</time>
      </trkpt>
      <trkpt lat="43.157111" lon="-9.208793">
        <ele>22.324</ele>
        <time>2019-06-21T15:36:43Z</time>
      </trkpt>
      <trkpt lat="43.157174" lon="-9.208869">
        <ele>24.426</ele>
        <time>2019-06-21T15:36:44Z</time>
      </trkpt>
      <trkpt lat="43.157230" lon="-9.208971">
        <ele>26.008</ele>
        <time>2019-06-21T15:36:45Z</time>
      </trkpt>
      <trkpt lat="43.157261" lon="-9.209076">
        <ele>27.481</ele>
        <time>2019-06-21T15:36:46Z</time>
      </trkpt>
      <trkpt lat="43.157239" lon="-9.209194">
        <ele>28.575</ele>
        <time>2019-06-21T15:36:47Z</time>
      </trkpt>
      <trkpt lat="43.157200" lon="-9.209304">
        <ele>29.457</ele>
        <time>2019-06-21T15:36:48Z</time>
      </trkpt>
      <trkpt lat="43.157132" lon="-9.209390">
        <ele>30.199</ele>
        <time>2019-06-21T15:36:49Z</time>
      </trkpt>
      <trkpt lat="43.157046" lon="-9.209481">
        <ele>31.026</ele>
        <time>2019-06-21T15:36:50Z</time>
      </trkpt>
      <trkpt lat="43.156969" lon="-9.209581">
        <ele>32.512</ele>
        <time>2019-06-21T15:36:51Z</time>
      </trkpt>
      <trkpt lat="43.156910" lon="-9.209676">
        <ele>33.426</ele>
        <time>2019-06-21T15:36:52Z</time>
      </trkpt>
      <trkpt lat="43.156867" lon="-9.209770">
        <ele>33.018</ele>
        <time>2019-06-21T15:36:53Z</time>
      </trkpt>
      <trkpt lat="43.156859" lon="-9.209879">
        <ele>32.734</ele>
        <time>2019-06-21T15:36:54Z</time>
      </trkpt>
      <trkpt lat="43.156870" lon="-9.209989">
        <ele>32.955</ele>
        <time>2019-06-21T15:36:55Z</time>
      </trkpt>
      <trkpt lat="43.156914" lon="-9.210085">
        <ele>33.510</ele>
        <time>2019-06-21T15:36:56Z</time>
      </trkpt>
      <trkpt lat="43.156975" lon="-9.210179">
        <ele>34.208</ele>
        <time>2019-06-21T15:36:57Z</time>
      </trkpt>
      <trkpt lat="43.157045" lon="-9.210232">
        <ele>34.856</ele>
        <time>2019-06-21T15:36:58Z</time>
      </trkpt>
      <trkpt lat="43.157118" lon="-9.210267">
        <ele>35.680</ele>
        <time>2019-06-21T15:36:59Z</time>
      </trkpt>
      <trkpt lat="43.157216" lon="-9.210260">
        <ele>37.042</ele>
        <time>2019-06-21T15:37:00Z</time>
      </trkpt>
      <trkpt lat="43.157314" lon="-9.210237">
        <ele>37.914</ele>
        <time>2019-06-21T15:37:01Z</time>
      </trkpt>
      <trkpt lat="43.157426" lon="-9.210211">
        <ele>38.681</ele>
        <time>2019-06-21T15:37:02Z</time>
      </trkpt>
      <trkpt lat="43.157547" lon="-9.210202">
        <ele>39.597</ele>
        <time>2019-06-21T15:37:03Z</time>
      </trkpt>
      <trkpt lat="43.157669" lon="-9.210180">
        <ele>40.611</ele>
        <time>2019-06-21T15:37:04Z</time>
      </trkpt>
      <trkpt lat="43.157793" lon="-9.210163">
        <ele>41.973</ele>
        <time>2019-06-21T15:37:05Z</time>
      </trkpt>
      <trkpt lat="43.157920" lon="-9.210133">
        <ele>44.056</ele>
        <time>2019-06-21T15:37:06Z</time>
      </trkpt>
      <trkpt lat="43.158046" lon="-9.210117">
        <ele>46.259</ele>
        <time>2019-06-21T15:37:07Z</time>
      </trkpt>
      <trkpt lat="43.158168" lon="-9.210089">
        <ele>46.714</ele>
        <time>2019-06-21T15:37:08Z</time>
      </trkpt>
      <trkpt lat="43.158283" lon="-9.210078">
        <ele>47.008</ele>
        <time>2019-06-21T15:37:09Z</time>
      </trkpt>
      <trkpt lat="43.158395" lon="-9.210060">
        <ele>46.818</ele>
        <time>2019-06-21T15:37:10Z</time>
      </trkpt>
      <trkpt lat="43.158515" lon="-9.210050">
        <ele>46.452</ele>
        <time>2019-06-21T15:37:11Z</time>
      </trkpt>
      <trkpt lat="43.158634" lon="-9.210059">
        <ele>46.514</ele>
        <time>2019-06-21T15:37:12Z</time>
      </trkpt>
      <trkpt lat="43.158743" lon="-9.210079">
        <ele>46.996</ele>
        <time>2019-06-21T15:37:13Z</time>
      </trkpt>
      <trkpt lat="43.158854" lon="-9.210107">
        <ele>47.893</ele>
        <time>2019-06-21T15:37:14Z</time>
      </trkpt>
      <trkpt lat="43.158956" lon="-9.210133">
        <ele>48.939</ele>
        <time>2019-06-21T15:37:15Z</time>
      </trkpt>
      <trkpt lat="43.159043" lon="-9.210162">
        <ele>50.293</ele>
        <time>2019-06-21T15:37:16Z</time>
      </trkpt>
      <trkpt lat="43.159139" lon="-9.210185">
        <ele>51.685</ele>
        <time>2019-06-21T15:37:17Z</time>
      </trkpt>
      <trkpt lat="43.159225" lon="-9.210206">
        <ele>50.498</ele>
        <time>2019-06-21T15:37:18Z</time>
      </trkpt>
      <trkpt lat="43.159294" lon="-9.210265">
        <ele>50.415</ele>
        <time>2019-06-21T15:37:19Z</time>
      </trkpt>
      <trkpt lat="43.159360" lon="-9.210328">
        <ele>49.626</ele>
        <time>2019-06-21T15:37:20Z</time>
      </trkpt>
      <trkpt lat="43.159414" lon="-9.210402">
        <ele>49.608</ele>
        <time>2019-06-21T15:37:21Z</time>
      </trkpt>
      <trkpt lat="43.159451" lon="-9.210465">
        <ele>50.262</ele>
        <time>2019-06-21T15:37:22Z</time>
      </trkpt>
      <trkpt lat="43.159483" lon="-9.210508">
        <ele>50.316</ele>
        <time>2019-06-21T15:37:23Z</time>
      </trkpt>
      <trkpt lat="43.159521" lon="-9.210572">
        <ele>50.648</ele>
        <time>2019-06-21T15:37:25Z</time>
      </trkpt>
      <trkpt lat="43.159541" lon="-9.210642">
        <ele>50.530</ele>
        <time>2019-06-21T15:37:28Z</time>
      </trkpt>
      <trkpt lat="43.159497" lon="-9.210673">
        <ele>51.867</ele>
        <time>2019-06-21T15:37:37Z</time>
      </trkpt>
      <trkpt lat="43.159532" lon="-9.210721">
        <ele>51.373</ele>
        <time>2019-06-21T15:37:53Z</time>
      </trkpt>
      <trkpt lat="43.159546" lon="-9.210661">
        <ele>50.587</ele>
        <time>2019-06-21T15:39:20Z</time>
      </trkpt>
      <trkpt lat="43.159529" lon="-9.210721">
        <ele>51.359</ele>
        <time>2019-06-21T15:42:37Z</time>
      </trkpt>
      <trkpt lat="43.157695" lon="-9.210232">
        <ele>41.062</ele>
        <time>2019-06-21T15:59:10Z</time>
      </trkpt>
      <trkpt lat="43.157599" lon="-9.210238">
        <ele>40.083</ele>
        <time>2019-06-21T15:59:28Z</time>
      </trkpt>
      <trkpt lat="43.157530" lon="-9.210255">
        <ele>39.311</ele>
        <time>2019-06-21T15:59:29Z</time>
      </trkpt>
      <trkpt lat="43.157451" lon="-9.210271">
        <ele>38.708</ele>
        <time>2019-06-21T15:59:30Z</time>
      </trkpt>
      <trkpt lat="43.157381" lon="-9.210289">
        <ele>38.079</ele>
        <time>2019-06-21T15:59:31Z</time>
      </trkpt>
      <trkpt lat="43.157305" lon="-9.210303">
        <ele>37.373</ele>
        <time>2019-06-21T15:59:32Z</time>
      </trkpt>
      <trkpt lat="43.157234" lon="-9.210315">
        <ele>36.635</ele>
        <time>2019-06-21T15:59:33Z</time>
      </trkpt>
      <trkpt lat="43.157171" lon="-9.210312">
        <ele>35.777</ele>
        <time>2019-06-21T15:59:34Z</time>
      </trkpt>
      <trkpt lat="43.157110" lon="-9.210296">
        <ele>35.194</ele>
        <time>2019-06-21T15:59:35Z</time>
      </trkpt>
      <trkpt lat="43.157042" lon="-9.210262">
        <ele>34.510</ele>
        <time>2019-06-21T15:59:36Z</time>
      </trkpt>
      <trkpt lat="43.156982" lon="-9.210222">
        <ele>33.964</ele>
        <time>2019-06-21T15:59:37Z</time>
      </trkpt>
      <trkpt lat="43.156925" lon="-9.210155">
        <ele>33.346</ele>
        <time>2019-06-21T15:59:38Z</time>
      </trkpt>
      <trkpt lat="43.156888" lon="-9.210066">
        <ele>32.996</ele>
        <time>2019-06-21T15:59:39Z</time>
      </trkpt>
      <trkpt lat="43.156857" lon="-9.209973">
        <ele>32.531</ele>
        <time>2019-06-21T15:59:40Z</time>
      </trkpt>
      <trkpt lat="43.156849" lon="-9.209872">
        <ele>32.424</ele>
        <time>2019-06-21T15:59:41Z</time>
      </trkpt>
      <trkpt lat="43.156871" lon="-9.209790">
        <ele>33.108</ele>
        <time>2019-06-21T15:59:42Z</time>
      </trkpt>
      <trkpt lat="43.156902" lon="-9.209698">
        <ele>33.592</ele>
        <time>2019-06-21T15:59:43Z</time>
      </trkpt>
      <trkpt lat="43.156956" lon="-9.209614">
        <ele>33.136</ele>
        <time>2019-06-21T15:59:44Z</time>
      </trkpt>
      <trkpt lat="43.157019" lon="-9.209536">
        <ele>31.888</ele>
        <time>2019-06-21T15:59:45Z</time>
      </trkpt>
      <trkpt lat="43.157075" lon="-9.209480">
        <ele>31.160</ele>
        <time>2019-06-21T15:59:46Z</time>
      </trkpt>
      <trkpt lat="43.157137" lon="-9.209406">
        <ele>30.387</ele>
        <time>2019-06-21T15:59:47Z</time>
      </trkpt>
      <trkpt lat="43.157182" lon="-9.209338">
        <ele>29.733</ele>
        <time>2019-06-21T15:59:48Z</time>
      </trkpt>
      <trkpt lat="43.157212" lon="-9.209250">
        <ele>28.937</ele>
        <time>2019-06-21T15:59:49Z</time>
      </trkpt>
      <trkpt lat="43.157224" lon="-9.209151">
        <ele>27.919</ele>
        <time>2019-06-21T15:59:50Z</time>
      </trkpt>
      <trkpt lat="43.157223" lon="-9.209045">
        <ele>26.729</ele>
        <time>2019-06-21T15:59:51Z</time>
      </trkpt>
      <trkpt lat="43.157190" lon="-9.208952">
        <ele>25.600</ele>
        <time>2019-06-21T15:59:52Z</time>
      </trkpt>
      <trkpt lat="43.157133" lon="-9.208872">
        <ele>24.320</ele>
        <time>2019-06-21T15:59:53Z</time>
      </trkpt>
      <trkpt lat="43.157063" lon="-9.208812">
        <ele>22.408</ele>
        <time>2019-06-21T15:59:54Z</time>
      </trkpt>
      <trkpt lat="43.156986" lon="-9.208780">
        <ele>21.195</ele>
        <time>2019-06-21T15:59:55Z</time>
      </trkpt>
      <trkpt lat="43.156903" lon="-9.208780">
        <ele>20.019</ele>
        <time>2019-06-21T15:59:56Z</time>
      </trkpt>
      <trkpt lat="43.156830" lon="-9.208819">
        <ele>19.641</ele>
        <time>2019-06-21T15:59:57Z</time>
      </trkpt>
      <trkpt lat="43.156758" lon="-9.208890">
        <ele>20.093</ele>
        <time>2019-06-21T15:59:58Z</time>
      </trkpt>
      <trkpt lat="43.156680" lon="-9.208984">
        <ele>20.670</ele>
        <time>2019-06-21T15:59:59Z</time>
      </trkpt>
      <trkpt lat="43.156593" lon="-9.209084">
        <ele>21.616</ele>
        <time>2019-06-21T16:00:00Z</time>
      </trkpt>
      <trkpt lat="43.156498" lon="-9.209195">
        <ele>21.640</ele>
        <time>2019-06-21T16:00:01Z</time>
      </trkpt>
      <trkpt lat="43.156388" lon="-9.209306">
        <ele>20.032</ele>
        <time>2019-06-21T16:00:02Z</time>
      </trkpt>
      <trkpt lat="43.156277" lon="-9.209414">
        <ele>18.878</ele>
        <time>2019-06-21T16:00:03Z</time>
      </trkpt>
      <trkpt lat="43.156168" lon="-9.209503">
        <ele>17.033</ele>
        <time>2019-06-21T16:00:04Z</time>
      </trkpt>
      <trkpt lat="43.156050" lon="-9.209592">
        <ele>15.626</ele>
        <time>2019-06-21T16:00:05Z</time>
      </trkpt>
      <trkpt lat="43.155930" lon="-9.209670">
        <ele>14.708</ele>
        <time>2019-06-21T16:00:06Z</time>
      </trkpt>
      <trkpt lat="43.155810" lon="-9.209747">
        <ele>14.020</ele>
        <time>2019-06-21T16:00:07Z</time>
      </trkpt>
      <trkpt lat="43.155694" lon="-9.209794">
        <ele>13.844</ele>
        <time>2019-06-21T16:00:08Z</time>
      </trkpt>
      <trkpt lat="43.155563" lon="-9.209838">
        <ele>13.486</ele>
        <time>2019-06-21T16:00:09Z</time>
      </trkpt>
      <trkpt lat="43.155420" lon="-9.209855">
        <ele>13.788</ele>
        <time>2019-06-21T16:00:10Z</time>
      </trkpt>
      <trkpt lat="43.155268" lon="-9.209854">
        <ele>14.115</ele>
        <time>2019-06-21T16:00:11Z</time>
      </trkpt>
      <trkpt lat="43.155114" lon="-9.209840">
        <ele>15.221</ele>
        <time>2019-06-21T16:00:12Z</time>
      </trkpt>
      <trkpt lat="43.154962" lon="-9.209837">
        <ele>16.295</ele>
        <time>2019-06-21T16:00:13Z</time>
      </trkpt>
      <trkpt lat="43.154802" lon="-9.209835">
        <ele>17.197</ele>
        <time>2019-06-21T16:00:14Z</time>
      </trkpt>
      <trkpt lat="43.154660" lon="-9.209811">
        <ele>18.111</ele>
        <time>2019-06-21T16:00:15Z</time>
      </trkpt>
      <trkpt lat="43.154493" lon="-9.209804">
        <ele>19.121</ele>
        <time>2019-06-21T16:00:16Z</time>
      </trkpt>
      <trkpt lat="43.154328" lon="-9.209810">
        <ele>20.203</ele>
        <time>2019-06-21T16:00:17Z</time>
      </trkpt>
      <trkpt lat="43.154159" lon="-9.209837">
        <ele>21.208</ele>
        <time>2019-06-21T16:00:18Z</time>
      </trkpt>
      <trkpt lat="43.153991" lon="-9.209882">
        <ele>22.424</ele>
        <time>2019-06-21T16:00:19Z</time>
      </trkpt>
      <trkpt lat="43.153824" lon="-9.209933">
        <ele>22.748</ele>
        <time>2019-06-21T16:00:20Z</time>
      </trkpt>
      <trkpt lat="43.153652" lon="-9.209987">
        <ele>22.110</ele>
        <time>2019-06-21T16:00:21Z</time>
      </trkpt>
      <trkpt lat="43.153491" lon="-9.210035">
        <ele>22.112</ele>
        <time>2019-06-21T16:00:22Z</time>
      </trkpt>
      <trkpt lat="43.153337" lon="-9.210089">
        <ele>22.019</ele>
        <time>2019-06-21T16:00:23Z</time>
      </trkpt>
      <trkpt lat="43.153186" lon="-9.210136">
        <ele>22.325</ele>
        <time>2019-06-21T16:00:24Z</time>
      </trkpt>
      <trkpt lat="43.153040" lon="-9.210170">
        <ele>22.629</ele>
        <time>2019-06-21T16:00:25Z</time>
      </trkpt>
      <trkpt lat="43.152908" lon="-9.210159">
        <ele>23.271</ele>
        <time>2019-06-21T16:00:26Z</time>
      </trkpt>
      <trkpt lat="43.152762" lon="-9.210144">
        <ele>24.071</ele>
        <time>2019-06-21T16:00:27Z</time>
      </trkpt>
      <trkpt lat="43.152632" lon="-9.210115">
        <ele>24.941</ele>
        <time>2019-06-21T16:00:28Z</time>
      </trkpt>
      <trkpt lat="43.152520" lon="-9.210068">
        <ele>25.915</ele>
        <time>2019-06-21T16:00:29Z</time>
      </trkpt>
      <trkpt lat="43.152415" lon="-9.210014">
        <ele>26.508</ele>
        <time>2019-06-21T16:00:30Z</time>
      </trkpt>
      <trkpt lat="43.152343" lon="-9.209944">
        <ele>26.960</ele>
        <time>2019-06-21T16:00:31Z</time>
      </trkpt>
      <trkpt lat="43.152290" lon="-9.209856">
        <ele>27.494</ele>
        <time>2019-06-21T16:00:32Z</time>
      </trkpt>
      <trkpt lat="43.152258" lon="-9.209770">
        <ele>27.966</ele>
        <time>2019-06-21T16:00:33Z</time>
      </trkpt>
      <trkpt lat="43.152248" lon="-9.209678">
        <ele>28.318</ele>
        <time>2019-06-21T16:00:34Z</time>
      </trkpt>
      <trkpt lat="43.152246" lon="-9.209555">
        <ele>28.855</ele>
        <time>2019-06-21T16:00:35Z</time>
      </trkpt>
      <trkpt lat="43.152258" lon="-9.209421">
        <ele>29.361</ele>
        <time>2019-06-21T16:00:36Z</time>
      </trkpt>
      <trkpt lat="43.152276" lon="-9.209285">
        <ele>29.435</ele>
        <time>2019-06-21T16:00:37Z</time>
      </trkpt>
      <trkpt lat="43.152293" lon="-9.209132">
        <ele>29.687</ele>
        <time>2019-06-21T16:00:38Z</time>
      </trkpt>
      <trkpt lat="43.152324" lon="-9.208969">
        <ele>30.492</ele>
        <time>2019-06-21T16:00:39Z</time>
      </trkpt>
      <trkpt lat="43.152346" lon="-9.208804">
        <ele>31.173</ele>
        <time>2019-06-21T16:00:40Z</time>
      </trkpt>
      <trkpt lat="43.152360" lon="-9.208666">
        <ele>31.420</ele>
        <time>2019-06-21T16:00:41Z</time>
      </trkpt>
      <trkpt lat="43.152361" lon="-9.208516">
        <ele>32.008</ele>
        <time>2019-06-21T16:00:42Z</time>
      </trkpt>
      <trkpt lat="43.152345" lon="-9.208373">
        <ele>32.722</ele>
        <time>2019-06-21T16:00:43Z</time>
      </trkpt>
      <trkpt lat="43.152308" lon="-9.208221">
        <ele>33.886</ele>
        <time>2019-06-21T16:00:44Z</time>
      </trkpt>
      <trkpt lat="43.152248" lon="-9.208076">
        <ele>35.098</ele>
        <time>2019-06-21T16:00:45Z</time>
      </trkpt>
      <trkpt lat="43.152169" lon="-9.207935">
        <ele>36.330</ele>
        <time>2019-06-21T16:00:46Z</time>
      </trkpt>
      <trkpt lat="43.152065" lon="-9.207807">
        <ele>36.947</ele>
        <time>2019-06-21T16:00:47Z</time>
      </trkpt>
      <trkpt lat="43.151947" lon="-9.207692">
        <ele>37.343</ele>
        <time>2019-06-21T16:00:48Z</time>
      </trkpt>
      <trkpt lat="43.151832" lon="-9.207572">
        <ele>38.257</ele>
        <time>2019-06-21T16:00:49Z</time>
      </trkpt>
      <trkpt lat="43.151713" lon="-9.207452">
        <ele>39.069</ele>
        <time>2019-06-21T16:00:50Z</time>
      </trkpt>
      <trkpt lat="43.151596" lon="-9.207340">
        <ele>39.581</ele>
        <time>2019-06-21T16:00:51Z</time>
      </trkpt>
      <trkpt lat="43.151489" lon="-9.207225">
        <ele>40.061</ele>
        <time>2019-06-21T16:00:52Z</time>
      </trkpt>
      <trkpt lat="43.151405" lon="-9.207089">
        <ele>40.617</ele>
        <time>2019-06-21T16:00:53Z</time>
      </trkpt>
      <trkpt lat="43.151328" lon="-9.206935">
        <ele>41.708</ele>
        <time>2019-06-21T16:00:54Z</time>
      </trkpt>
      <trkpt lat="43.151266" lon="-9.206775">
        <ele>43.081</ele>
        <time>2019-06-21T16:00:55Z</time>
      </trkpt>
      <trkpt lat="43.151213" lon="-9.206613">
        <ele>44.085</ele>
        <time>2019-06-21T16:00:56Z</time>
      </trkpt>
      <trkpt lat="43.151147" lon="-9.206462">
        <ele>44.727</ele>
        <time>2019-06-21T16:00:57Z</time>
      </trkpt>
      <trkpt lat="43.151068" lon="-9.206316">
        <ele>45.619</ele>
        <time>2019-06-21T16:00:58Z</time>
      </trkpt>
      <trkpt lat="43.150969" lon="-9.206204">
        <ele>46.186</ele>
        <time>2019-06-21T16:00:59Z</time>
      </trkpt>
      <trkpt lat="43.150864" lon="-9.206092">
        <ele>46.722</ele>
        <time>2019-06-21T16:01:00Z</time>
      </trkpt>
      <trkpt lat="43.150723" lon="-9.206032">
        <ele>46.656</ele>
        <time>2019-06-21T16:01:01Z</time>
      </trkpt>
      <trkpt lat="43.150574" lon="-9.205973">
        <ele>46.678</ele>
        <time>2019-06-21T16:01:02Z</time>
      </trkpt>
      <trkpt lat="43.150419" lon="-9.205911">
        <ele>46.657</ele>
        <time>2019-06-21T16:01:03Z</time>
      </trkpt>
      <trkpt lat="43.150260" lon="-9.205842">
        <ele>46.900</ele>
        <time>2019-06-21T16:01:04Z</time>
      </trkpt>
      <trkpt lat="43.150107" lon="-9.205779">
        <ele>48.620</ele>
        <time>2019-06-21T16:01:05Z</time>
      </trkpt>
      <trkpt lat="43.149964" lon="-9.205716">
        <ele>50.108</ele>
        <time>2019-06-21T16:01:06Z</time>
      </trkpt>
      <trkpt lat="43.149827" lon="-9.205669">
        <ele>50.898</ele>
        <time>2019-06-21T16:01:07Z</time>
      </trkpt>
      <trkpt lat="43.149694" lon="-9.205646">
        <ele>51.222</ele>
        <time>2019-06-21T16:01:08Z</time>
      </trkpt>
      <trkpt lat="43.149570" lon="-9.205636">
        <ele>52.134</ele>
        <time>2019-06-21T16:01:09Z</time>
      </trkpt>
      <trkpt lat="43.149457" lon="-9.205617">
        <ele>53.066</ele>
        <time>2019-06-21T16:01:10Z</time>
      </trkpt>
      <trkpt lat="43.149346" lon="-9.205584">
        <ele>54.013</ele>
        <time>2019-06-21T16:01:11Z</time>
      </trkpt>
      <trkpt lat="43.149254" lon="-9.205520">
        <ele>55.169</ele>
        <time>2019-06-21T16:01:12Z</time>
      </trkpt>
      <trkpt lat="43.149159" lon="-9.205437">
        <ele>56.283</ele>
        <time>2019-06-21T16:01:13Z</time>
      </trkpt>
      <trkpt lat="43.149062" lon="-9.205328">
        <ele>56.375</ele>
        <time>2019-06-21T16:01:14Z</time>
      </trkpt>
      <trkpt lat="43.148970" lon="-9.205189">
        <ele>56.711</ele>
        <time>2019-06-21T16:01:15Z</time>
      </trkpt>
      <trkpt lat="43.148873" lon="-9.205056">
        <ele>57.121</ele>
        <time>2019-06-21T16:01:16Z</time>
      </trkpt>
      <trkpt lat="43.148781" lon="-9.204903">
        <ele>56.903</ele>
        <time>2019-06-21T16:01:17Z</time>
      </trkpt>
      <trkpt lat="43.148697" lon="-9.204737">
        <ele>57.108</ele>
        <time>2019-06-21T16:01:18Z</time>
      </trkpt>
      <trkpt lat="43.148621" lon="-9.204566">
        <ele>57.284</ele>
        <time>2019-06-21T16:01:19Z</time>
      </trkpt>
      <trkpt lat="43.148547" lon="-9.204401">
        <ele>57.958</ele>
        <time>2019-06-21T16:01:20Z</time>
      </trkpt>
      <trkpt lat="43.148473" lon="-9.204256">
        <ele>58.760</ele>
        <time>2019-06-21T16:01:21Z</time>
      </trkpt>
      <trkpt lat="43.148391" lon="-9.204131">
        <ele>59.552</ele>
        <time>2019-06-21T16:01:22Z</time>
      </trkpt>
      <trkpt lat="43.148282" lon="-9.204019">
        <ele>59.929</ele>
        <time>2019-06-21T16:01:23Z</time>
      </trkpt>
      <trkpt lat="43.148158" lon="-9.203929">
        <ele>60.525</ele>
        <time>2019-06-21T16:01:24Z</time>
      </trkpt>
      <trkpt lat="43.148023" lon="-9.203856">
        <ele>61.419</ele>
        <time>2019-06-21T16:01:25Z</time>
      </trkpt>
      <trkpt lat="43.147877" lon="-9.203788">
        <ele>61.851</ele>
        <time>2019-06-21T16:01:26Z</time>
      </trkpt>
      <trkpt lat="43.147722" lon="-9.203721">
        <ele>62.545</ele>
        <time>2019-06-21T16:01:27Z</time>
      </trkpt>
      <trkpt lat="43.147569" lon="-9.203644">
        <ele>63.647</ele>
        <time>2019-06-21T16:01:28Z</time>
      </trkpt>
      <trkpt lat="43.147413" lon="-9.203567">
        <ele>64.411</ele>
        <time>2019-06-21T16:01:29Z</time>
      </trkpt>
      <trkpt lat="43.147254" lon="-9.203487">
        <ele>65.308</ele>
        <time>2019-06-21T16:01:30Z</time>
      </trkpt>
      <trkpt lat="43.147092" lon="-9.203405">
        <ele>67.267</ele>
        <time>2019-06-21T16:01:31Z</time>
      </trkpt>
      <trkpt lat="43.146934" lon="-9.203338">
        <ele>68.971</ele>
        <time>2019-06-21T16:01:32Z</time>
      </trkpt>
      <trkpt lat="43.146774" lon="-9.203271">
        <ele>69.333</ele>
        <time>2019-06-21T16:01:33Z</time>
      </trkpt>
      <trkpt lat="43.146614" lon="-9.203194">
        <ele>70.075</ele>
        <time>2019-06-21T16:01:34Z</time>
      </trkpt>
      <trkpt lat="43.146452" lon="-9.203119">
        <ele>71.172</ele>
        <time>2019-06-21T16:01:35Z</time>
      </trkpt>
      <trkpt lat="43.146294" lon="-9.203112">
        <ele>71.538</ele>
        <time>2019-06-21T16:01:36Z</time>
      </trkpt>
      <trkpt lat="43.146152" lon="-9.203071">
        <ele>72.662</ele>
        <time>2019-06-21T16:01:37Z</time>
      </trkpt>
      <trkpt lat="43.146019" lon="-9.203043">
        <ele>72.214</ele>
        <time>2019-06-21T16:01:38Z</time>
      </trkpt>
      <trkpt lat="43.145892" lon="-9.202970">
        <ele>71.691</ele>
        <time>2019-06-21T16:01:39Z</time>
      </trkpt>
      <trkpt lat="43.145768" lon="-9.202875">
        <ele>71.581</ele>
        <time>2019-06-21T16:01:40Z</time>
      </trkpt>
      <trkpt lat="43.145647" lon="-9.202764">
        <ele>71.819</ele>
        <time>2019-06-21T16:01:41Z</time>
      </trkpt>
      <trkpt lat="43.145522" lon="-9.202642">
        <ele>72.308</ele>
        <time>2019-06-21T16:01:42Z</time>
      </trkpt>
      <trkpt lat="43.145389" lon="-9.202526">
        <ele>73.152</ele>
        <time>2019-06-21T16:01:43Z</time>
      </trkpt>
      <trkpt lat="43.145256" lon="-9.202405">
        <ele>74.016</ele>
        <time>2019-06-21T16:01:44Z</time>
      </trkpt>
      <trkpt lat="43.145131" lon="-9.202308">
        <ele>74.988</ele>
        <time>2019-06-21T16:01:45Z</time>
      </trkpt>
      <trkpt lat="43.145016" lon="-9.202210">
        <ele>76.130</ele>
        <time>2019-06-21T16:01:46Z</time>
      </trkpt>
      <trkpt lat="43.144910" lon="-9.202114">
        <ele>76.527</ele>
        <time>2019-06-21T16:01:47Z</time>
      </trkpt>
      <trkpt lat="43.144808" lon="-9.202022">
        <ele>76.873</ele>
        <time>2019-06-21T16:01:48Z</time>
      </trkpt>
      <trkpt lat="43.144721" lon="-9.201934">
        <ele>77.127</ele>
        <time>2019-06-21T16:01:49Z</time>
      </trkpt>
      <trkpt lat="43.144638" lon="-9.201847">
        <ele>76.949</ele>
        <time>2019-06-21T16:01:50Z</time>
      </trkpt>
      <trkpt lat="43.144567" lon="-9.201752">
        <ele>77.191</ele>
        <time>2019-06-21T16:01:51Z</time>
      </trkpt>
      <trkpt lat="43.144519" lon="-9.201636">
        <ele>77.881</ele>
        <time>2019-06-21T16:01:52Z</time>
      </trkpt>
      <trkpt lat="43.144475" lon="-9.201499">
        <ele>78.419</ele>
        <time>2019-06-21T16:01:53Z</time>
      </trkpt>
      <trkpt lat="43.144435" lon="-9.201348">
        <ele>79.008</ele>
        <time>2019-06-21T16:01:54Z</time>
      </trkpt>
      <trkpt lat="43.144394" lon="-9.201189">
        <ele>79.372</ele>
        <time>2019-06-21T16:01:55Z</time>
      </trkpt>
      <trkpt lat="43.144335" lon="-9.201021">
        <ele>79.516</ele>
        <time>2019-06-21T16:01:56Z</time>
      </trkpt>
      <trkpt lat="43.144259" lon="-9.200853">
        <ele>79.678</ele>
        <time>2019-06-21T16:01:57Z</time>
      </trkpt>
      <trkpt lat="43.144176" lon="-9.200678">
        <ele>78.590</ele>
        <time>2019-06-21T16:01:58Z</time>
      </trkpt>
      <trkpt lat="43.144100" lon="-9.200509">
        <ele>77.257</ele>
        <time>2019-06-21T16:01:59Z</time>
      </trkpt>
      <trkpt lat="43.144016" lon="-9.200333">
        <ele>75.373</ele>
        <time>2019-06-21T16:02:00Z</time>
      </trkpt>
      <trkpt lat="43.143934" lon="-9.200159">
        <ele>74.317</ele>
        <time>2019-06-21T16:02:01Z</time>
      </trkpt>
      <trkpt lat="43.143855" lon="-9.199989">
        <ele>73.819</ele>
        <time>2019-06-21T16:02:02Z</time>
      </trkpt>
      <trkpt lat="43.143783" lon="-9.199836">
        <ele>73.891</ele>
        <time>2019-06-21T16:02:03Z</time>
      </trkpt>
      <trkpt lat="43.143711" lon="-9.199685">
        <ele>73.981</ele>
        <time>2019-06-21T16:02:04Z</time>
      </trkpt>
      <trkpt lat="43.143641" lon="-9.199533">
        <ele>74.019</ele>
        <time>2019-06-21T16:02:05Z</time>
      </trkpt>
      <trkpt lat="43.143574" lon="-9.199396">
        <ele>73.908</ele>
        <time>2019-06-21T16:02:06Z</time>
      </trkpt>
      <trkpt lat="43.143499" lon="-9.199271">
        <ele>73.682</ele>
        <time>2019-06-21T16:02:07Z</time>
      </trkpt>
      <trkpt lat="43.143414" lon="-9.199153">
        <ele>72.996</ele>
        <time>2019-06-21T16:02:08Z</time>
      </trkpt>
      <trkpt lat="43.143318" lon="-9.199026">
        <ele>72.038</ele>
        <time>2019-06-21T16:02:09Z</time>
      </trkpt>
      <trkpt lat="43.143199" lon="-9.198904">
        <ele>72.010</ele>
        <time>2019-06-21T16:02:10Z</time>
      </trkpt>
      <trkpt lat="43.143070" lon="-9.198780">
        <ele>72.437</ele>
        <time>2019-06-21T16:02:11Z</time>
      </trkpt>
      <trkpt lat="43.142933" lon="-9.198677">
        <ele>72.893</ele>
        <time>2019-06-21T16:02:12Z</time>
      </trkpt>
      <trkpt lat="43.142793" lon="-9.198560">
        <ele>73.427</ele>
        <time>2019-06-21T16:02:13Z</time>
      </trkpt>
      <trkpt lat="43.142656" lon="-9.198450">
        <ele>72.499</ele>
        <time>2019-06-21T16:02:14Z</time>
      </trkpt>
      <trkpt lat="43.142514" lon="-9.198341">
        <ele>71.129</ele>
        <time>2019-06-21T16:02:15Z</time>
      </trkpt>
      <trkpt lat="43.142374" lon="-9.198234">
        <ele>69.600</ele>
        <time>2019-06-21T16:02:16Z</time>
      </trkpt>
      <trkpt lat="43.142238" lon="-9.198127">
        <ele>68.520</ele>
        <time>2019-06-21T16:02:17Z</time>
      </trkpt>
      <trkpt lat="43.142113" lon="-9.198024">
        <ele>68.608</ele>
        <time>2019-06-21T16:02:18Z</time>
      </trkpt>
      <trkpt lat="43.141986" lon="-9.197928">
        <ele>68.775</ele>
        <time>2019-06-21T16:02:19Z</time>
      </trkpt>
      <trkpt lat="43.141856" lon="-9.197839">
        <ele>68.489</ele>
        <time>2019-06-21T16:02:20Z</time>
      </trkpt>
      <trkpt lat="43.141731" lon="-9.197757">
        <ele>67.991</ele>
        <time>2019-06-21T16:02:21Z</time>
      </trkpt>
      <trkpt lat="43.141606" lon="-9.197675">
        <ele>67.123</ele>
        <time>2019-06-21T16:02:22Z</time>
      </trkpt>
      <trkpt lat="43.141494" lon="-9.197576">
        <ele>66.670</ele>
        <time>2019-06-21T16:02:23Z</time>
      </trkpt>
      <trkpt lat="43.141380" lon="-9.197475">
        <ele>66.026</ele>
        <time>2019-06-21T16:02:24Z</time>
      </trkpt>
      <trkpt lat="43.141266" lon="-9.197380">
        <ele>65.590</ele>
        <time>2019-06-21T16:02:25Z</time>
      </trkpt>
      <trkpt lat="43.141154" lon="-9.197300">
        <ele>65.072</ele>
        <time>2019-06-21T16:02:26Z</time>
      </trkpt>
      <trkpt lat="43.141043" lon="-9.197212">
        <ele>64.815</ele>
        <time>2019-06-21T16:02:27Z</time>
      </trkpt>
      <trkpt lat="43.140931" lon="-9.197112">
        <ele>64.465</ele>
        <time>2019-06-21T16:02:28Z</time>
      </trkpt>
      <trkpt lat="43.140822" lon="-9.196997">
        <ele>64.011</ele>
        <time>2019-06-21T16:02:29Z</time>
      </trkpt>
      <trkpt lat="43.140720" lon="-9.196864">
        <ele>64.008</ele>
        <time>2019-06-21T16:02:30Z</time>
      </trkpt>
      <trkpt lat="43.140629" lon="-9.196716">
        <ele>64.034</ele>
        <time>2019-06-21T16:02:31Z</time>
      </trkpt>
      <trkpt lat="43.140542" lon="-9.196569">
        <ele>63.338</ele>
        <time>2019-06-21T16:02:32Z</time>
      </trkpt>
      <trkpt lat="43.140464" lon="-9.196425">
        <ele>62.570</ele>
        <time>2019-06-21T16:02:33Z</time>
      </trkpt>
      <trkpt lat="43.140395" lon="-9.196296">
        <ele>62.012</ele>
        <time>2019-06-21T16:02:34Z</time>
      </trkpt>
      <trkpt lat="43.140329" lon="-9.196181">
        <ele>61.579</ele>
        <time>2019-06-21T16:02:35Z</time>
      </trkpt>
      <trkpt lat="43.140280" lon="-9.196086">
        <ele>60.995</ele>
        <time>2019-06-21T16:02:36Z</time>
      </trkpt>
      <trkpt lat="43.140256" lon="-9.195997">
        <ele>60.539</ele>
        <time>2019-06-21T16:02:37Z</time>
      </trkpt>
      <trkpt lat="43.140230" lon="-9.195910">
        <ele>60.081</ele>
        <time>2019-06-21T16:02:38Z</time>
      </trkpt>
      <trkpt lat="43.140213" lon="-9.195818">
        <ele>59.461</ele>
        <time>2019-06-21T16:02:39Z</time>
      </trkpt>
      <trkpt lat="43.140199" lon="-9.195723">
        <ele>58.621</ele>
        <time>2019-06-21T16:02:40Z</time>
      </trkpt>
      <trkpt lat="43.140188" lon="-9.195624">
        <ele>57.813</ele>
        <time>2019-06-21T16:02:41Z</time>
      </trkpt>
      <trkpt lat="43.140175" lon="-9.195510">
        <ele>57.008</ele>
        <time>2019-06-21T16:02:42Z</time>
      </trkpt>
      <trkpt lat="43.140165" lon="-9.195400">
        <ele>56.419</ele>
        <time>2019-06-21T16:02:43Z</time>
      </trkpt>
      <trkpt lat="43.140147" lon="-9.195293">
        <ele>55.793</ele>
        <time>2019-06-21T16:02:44Z</time>
      </trkpt>
      <trkpt lat="43.140127" lon="-9.195181">
        <ele>55.725</ele>
        <time>2019-06-21T16:02:45Z</time>
      </trkpt>
      <trkpt lat="43.140110" lon="-9.195063">
        <ele>56.077</ele>
        <time>2019-06-21T16:02:46Z</time>
      </trkpt>
      <trkpt lat="43.140094" lon="-9.194955">
        <ele>56.034</ele>
        <time>2019-06-21T16:02:47Z</time>
      </trkpt>
      <trkpt lat="43.140087" lon="-9.194838">
        <ele>55.940</ele>
        <time>2019-06-21T16:02:48Z</time>
      </trkpt>
      <trkpt lat="43.140079" lon="-9.194739">
        <ele>55.984</ele>
        <time>2019-06-21T16:02:49Z</time>
      </trkpt>
      <trkpt lat="43.140056" lon="-9.194638">
        <ele>55.336</ele>
        <time>2019-06-21T16:02:50Z</time>
      </trkpt>
      <trkpt lat="43.140025" lon="-9.194561">
        <ele>54.733</ele>
        <time>2019-06-21T16:02:51Z</time>
      </trkpt>
      <trkpt lat="43.140001" lon="-9.194460">
        <ele>54.123</ele>
        <time>2019-06-21T16:02:52Z</time>
      </trkpt>
      <trkpt lat="43.139964" lon="-9.194360">
        <ele>53.715</ele>
        <time>2019-06-21T16:02:53Z</time>
      </trkpt>
      <trkpt lat="43.139937" lon="-9.194233">
        <ele>53.508</ele>
        <time>2019-06-21T16:02:54Z</time>
      </trkpt>
      <trkpt lat="43.139909" lon="-9.194108">
        <ele>53.536</ele>
        <time>2019-06-21T16:02:55Z</time>
      </trkpt>
      <trkpt lat="43.139881" lon="-9.193988">
        <ele>53.780</ele>
        <time>2019-06-21T16:02:56Z</time>
      </trkpt>
      <trkpt lat="43.139849" lon="-9.193866">
        <ele>54.132</ele>
        <time>2019-06-21T16:02:57Z</time>
      </trkpt>
      <trkpt lat="43.139815" lon="-9.193742">
        <ele>54.564</ele>
        <time>2019-06-21T16:02:58Z</time>
      </trkpt>
      <trkpt lat="43.139779" lon="-9.193631">
        <ele>54.931</ele>
        <time>2019-06-21T16:02:59Z</time>
      </trkpt>
      <trkpt lat="43.139748" lon="-9.193514">
        <ele>55.077</ele>
        <time>2019-06-21T16:03:00Z</time>
      </trkpt>
      <trkpt lat="43.139707" lon="-9.193409">
        <ele>54.941</ele>
        <time>2019-06-21T16:03:01Z</time>
      </trkpt>
      <trkpt lat="43.139675" lon="-9.193320">
        <ele>54.823</ele>
        <time>2019-06-21T16:03:02Z</time>
      </trkpt>
      <trkpt lat="43.139644" lon="-9.193223">
        <ele>54.498</ele>
        <time>2019-06-21T16:03:03Z</time>
      </trkpt>
      <trkpt lat="43.139617" lon="-9.193126">
        <ele>54.215</ele>
        <time>2019-06-21T16:03:04Z</time>
      </trkpt>
      <trkpt lat="43.139583" lon="-9.193034">
        <ele>53.926</ele>
        <time>2019-06-21T16:03:05Z</time>
      </trkpt>
      <trkpt lat="43.139536" lon="-9.192934">
        <ele>53.708</ele>
        <time>2019-06-21T16:03:06Z</time>
      </trkpt>
      <trkpt lat="43.139487" lon="-9.192842">
        <ele>53.872</ele>
        <time>2019-06-21T16:03:07Z</time>
      </trkpt>
      <trkpt lat="43.139434" lon="-9.192758">
        <ele>54.016</ele>
        <time>2019-06-21T16:03:08Z</time>
      </trkpt>
      <trkpt lat="43.139383" lon="-9.192661">
        <ele>54.348</ele>
        <time>2019-06-21T16:03:09Z</time>
      </trkpt>
      <trkpt lat="43.139329" lon="-9.192565">
        <ele>55.050</ele>
        <time>2019-06-21T16:03:10Z</time>
      </trkpt>
      <trkpt lat="43.139303" lon="-9.192447">
        <ele>55.427</ele>
        <time>2019-06-21T16:03:11Z</time>
      </trkpt>
      <trkpt lat="43.139255" lon="-9.192350">
        <ele>55.713</ele>
        <time>2019-06-21T16:03:12Z</time>
      </trkpt>
      <trkpt lat="43.139206" lon="-9.192278">
        <ele>55.917</ele>
        <time>2019-06-21T16:03:13Z</time>
      </trkpt>
      <trkpt lat="43.139143" lon="-9.192203">
        <ele>56.159</ele>
        <time>2019-06-21T16:03:14Z</time>
      </trkpt>
      <trkpt lat="43.139082" lon="-9.192136">
        <ele>56.396</ele>
        <time>2019-06-21T16:03:15Z</time>
      </trkpt>
      <trkpt lat="43.139014" lon="-9.192105">
        <ele>56.831</ele>
        <time>2019-06-21T16:03:16Z</time>
      </trkpt>
      <trkpt lat="43.138952" lon="-9.192058">
        <ele>57.124</ele>
        <time>2019-06-21T16:03:17Z</time>
      </trkpt>
      <trkpt lat="43.138926" lon="-9.191984">
        <ele>56.908</ele>
        <time>2019-06-21T16:03:18Z</time>
      </trkpt>
      <trkpt lat="43.138898" lon="-9.191907">
        <ele>56.862</ele>
        <time>2019-06-21T16:03:19Z</time>
      </trkpt>
      <trkpt lat="43.138903" lon="-9.191809">
        <ele>56.326</ele>
        <time>2019-06-21T16:03:20Z</time>
      </trkpt>
      <trkpt lat="43.138907" lon="-9.191692">
        <ele>55.898</ele>
        <time>2019-06-21T16:03:21Z</time>
      </trkpt>
      <trkpt lat="43.138916" lon="-9.191560">
        <ele>55.910</ele>
        <time>2019-06-21T16:03:22Z</time>
      </trkpt>
      <trkpt lat="43.138922" lon="-9.191427">
        <ele>56.257</ele>
        <time>2019-06-21T16:03:23Z</time>
      </trkpt>
      <trkpt lat="43.138933" lon="-9.191299">
        <ele>56.053</ele>
        <time>2019-06-21T16:03:24Z</time>
      </trkpt>
      <trkpt lat="43.138943" lon="-9.191173">
        <ele>55.897</ele>
        <time>2019-06-21T16:03:25Z</time>
      </trkpt>
      <trkpt lat="43.138940" lon="-9.191047">
        <ele>55.829</ele>
        <time>2019-06-21T16:03:26Z</time>
      </trkpt>
      <trkpt lat="43.138931" lon="-9.190920">
        <ele>55.692</ele>
        <time>2019-06-21T16:03:27Z</time>
      </trkpt>
      <trkpt lat="43.138920" lon="-9.190797">
        <ele>55.373</ele>
        <time>2019-06-21T16:03:28Z</time>
      </trkpt>
      <trkpt lat="43.138907" lon="-9.190682">
        <ele>54.720</ele>
        <time>2019-06-21T16:03:29Z</time>
      </trkpt>
      <trkpt lat="43.138916" lon="-9.190589">
        <ele>53.908</ele>
        <time>2019-06-21T16:03:30Z</time>
      </trkpt>
      <trkpt lat="43.138934" lon="-9.190485">
        <ele>52.882</ele>
        <time>2019-06-21T16:03:31Z</time>
      </trkpt>
      <trkpt lat="43.138967" lon="-9.190402">
        <ele>51.826</ele>
        <time>2019-06-21T16:03:32Z</time>
      </trkpt>
      <trkpt lat="43.139032" lon="-9.190316">
        <ele>50.888</ele>
        <time>2019-06-21T16:03:33Z</time>
      </trkpt>
      <trkpt lat="43.139098" lon="-9.190227">
        <ele>50.150</ele>
        <time>2019-06-21T16:03:34Z</time>
      </trkpt>
      <trkpt lat="43.139164" lon="-9.190136">
        <ele>49.517</ele>
        <time>2019-06-21T16:03:35Z</time>
      </trkpt>
      <trkpt lat="43.139214" lon="-9.190028">
        <ele>48.723</ele>
        <time>2019-06-21T16:03:36Z</time>
      </trkpt>
      <trkpt lat="43.139255" lon="-9.189949">
        <ele>48.167</ele>
        <time>2019-06-21T16:03:37Z</time>
      </trkpt>
      <trkpt lat="43.139309" lon="-9.189861">
        <ele>47.529</ele>
        <time>2019-06-21T16:03:38Z</time>
      </trkpt>
      <trkpt lat="43.139339" lon="-9.189764">
        <ele>47.174</ele>
        <time>2019-06-21T16:03:39Z</time>
      </trkpt>
      <trkpt lat="43.139373" lon="-9.189665">
        <ele>46.756</ele>
        <time>2019-06-21T16:03:40Z</time>
      </trkpt>
      <trkpt lat="43.139382" lon="-9.189562">
        <ele>46.321</ele>
        <time>2019-06-21T16:03:41Z</time>
      </trkpt>
      <trkpt lat="43.139367" lon="-9.189459">
        <ele>45.808</ele>
        <time>2019-06-21T16:03:42Z</time>
      </trkpt>
      <trkpt lat="43.139351" lon="-9.189353">
        <ele>45.250</ele>
        <time>2019-06-21T16:03:43Z</time>
      </trkpt>
      <trkpt lat="43.139342" lon="-9.189222">
        <ele>44.534</ele>
        <time>2019-06-21T16:03:44Z</time>
      </trkpt>
      <trkpt lat="43.139307" lon="-9.189100">
        <ele>43.996</ele>
        <time>2019-06-21T16:03:45Z</time>
      </trkpt>
      <trkpt lat="43.139269" lon="-9.188986">
        <ele>43.548</ele>
        <time>2019-06-21T16:03:46Z</time>
      </trkpt>
      <trkpt lat="43.139239" lon="-9.188873">
        <ele>43.315</ele>
        <time>2019-06-21T16:03:47Z</time>
      </trkpt>
      <trkpt lat="43.139215" lon="-9.188772">
        <ele>43.551</ele>
        <time>2019-06-21T16:03:48Z</time>
      </trkpt>
      <trkpt lat="43.139151" lon="-9.188662">
        <ele>43.895</ele>
        <time>2019-06-21T16:03:50Z</time>
      </trkpt>
      <trkpt lat="43.139135" lon="-9.188588">
        <ele>44.027</ele>
        <time>2019-06-21T16:03:51Z</time>
      </trkpt>
      <trkpt lat="43.139112" lon="-9.188524">
        <ele>44.188</ele>
        <time>2019-06-21T16:03:52Z</time>
      </trkpt>
      <trkpt lat="43.139095" lon="-9.188462">
        <ele>44.124</ele>
        <time>2019-06-21T16:03:53Z</time>
      </trkpt>
      <trkpt lat="43.139068" lon="-9.188386">
        <ele>44.326</ele>
        <time>2019-06-21T16:03:54Z</time>
      </trkpt>
      <trkpt lat="43.139046" lon="-9.188295">
        <ele>44.608</ele>
        <time>2019-06-21T16:03:55Z</time>
      </trkpt>
      <trkpt lat="43.139024" lon="-9.188210">
        <ele>45.011</ele>
        <time>2019-06-21T16:03:56Z</time>
      </trkpt>
      <trkpt lat="43.139007" lon="-9.188121">
        <ele>45.385</ele>
        <time>2019-06-21T16:03:57Z</time>
      </trkpt>
      <trkpt lat="43.138995" lon="-9.188038">
        <ele>45.627</ele>
        <time>2019-06-21T16:03:58Z</time>
      </trkpt>
      <trkpt lat="43.138989" lon="-9.187956">
        <ele>45.689</ele>
        <time>2019-06-21T16:03:59Z</time>
      </trkpt>
      <trkpt lat="43.138990" lon="-9.187879">
        <ele>45.696</ele>
        <time>2019-06-21T16:04:00Z</time>
      </trkpt>
      <trkpt lat="43.138993" lon="-9.187804">
        <ele>45.672</ele>
        <time>2019-06-21T16:04:01Z</time>
      </trkpt>
      <trkpt lat="43.138998" lon="-9.187728">
        <ele>45.696</ele>
        <time>2019-06-21T16:04:02Z</time>
      </trkpt>
      <trkpt lat="43.138997" lon="-9.187636">
        <ele>45.678</ele>
        <time>2019-06-21T16:04:03Z</time>
      </trkpt>
      <trkpt lat="43.139002" lon="-9.187534">
        <ele>45.658</ele>
        <time>2019-06-21T16:04:04Z</time>
      </trkpt>
      <trkpt lat="43.139001" lon="-9.187450">
        <ele>45.552</ele>
        <time>2019-06-21T16:04:05Z</time>
      </trkpt>
      <trkpt lat="43.139001" lon="-9.187349">
        <ele>45.317</ele>
        <time>2019-06-21T16:04:06Z</time>
      </trkpt>
      <trkpt lat="43.139010" lon="-9.187254">
        <ele>45.108</ele>
        <time>2019-06-21T16:04:07Z</time>
      </trkpt>
      <trkpt lat="43.139012" lon="-9.187138">
        <ele>45.168</ele>
        <time>2019-06-21T16:04:08Z</time>
      </trkpt>
      <trkpt lat="43.139019" lon="-9.187021">
        <ele>45.312</ele>
        <time>2019-06-21T16:04:09Z</time>
      </trkpt>
      <trkpt lat="43.139027" lon="-9.186902">
        <ele>45.534</ele>
        <time>2019-06-21T16:04:10Z</time>
      </trkpt>
      <trkpt lat="43.139032" lon="-9.186784">
        <ele>45.546</ele>
        <time>2019-06-21T16:04:11Z</time>
      </trkpt>
      <trkpt lat="43.139039" lon="-9.186657">
        <ele>45.693</ele>
        <time>2019-06-21T16:04:12Z</time>
      </trkpt>
      <trkpt lat="43.139051" lon="-9.186543">
        <ele>45.889</ele>
        <time>2019-06-21T16:04:13Z</time>
      </trkpt>
      <trkpt lat="43.139064" lon="-9.186442">
        <ele>46.183</ele>
        <time>2019-06-21T16:04:14Z</time>
      </trkpt>
      <trkpt lat="43.139077" lon="-9.186347">
        <ele>46.395</ele>
        <time>2019-06-21T16:04:15Z</time>
      </trkpt>
      <trkpt lat="43.139081" lon="-9.186270">
        <ele>46.133</ele>
        <time>2019-06-21T16:04:16Z</time>
      </trkpt>
      <trkpt lat="43.139077" lon="-9.186182">
        <ele>45.923</ele>
        <time>2019-06-21T16:04:18Z</time>
      </trkpt>
      <trkpt lat="43.139065" lon="-9.186123">
        <ele>45.715</ele>
        <time>2019-06-21T16:04:20Z</time>
      </trkpt>
      <trkpt lat="43.138987" lon="-9.186083">
        <ele>45.308</ele>
        <time>2019-06-21T16:04:29Z</time>
      </trkpt>
      <trkpt lat="43.138912" lon="-9.186080">
        <ele>45.026</ele>
        <time>2019-06-21T16:04:30Z</time>
      </trkpt>
      <trkpt lat="43.138810" lon="-9.186080">
        <ele>44.490</ele>
        <time>2019-06-21T16:04:31Z</time>
      </trkpt>
      <trkpt lat="43.138706" lon="-9.186085">
        <ele>43.742</ele>
        <time>2019-06-21T16:04:32Z</time>
      </trkpt>
      <trkpt lat="43.138595" lon="-9.186099">
        <ele>43.094</ele>
        <time>2019-06-21T16:04:33Z</time>
      </trkpt>
      <trkpt lat="43.138482" lon="-9.186104">
        <ele>43.021</ele>
        <time>2019-06-21T16:04:34Z</time>
      </trkpt>
      <trkpt lat="43.138367" lon="-9.186113">
        <ele>43.037</ele>
        <time>2019-06-21T16:04:35Z</time>
      </trkpt>
      <trkpt lat="43.138251" lon="-9.186118">
        <ele>42.721</ele>
        <time>2019-06-21T16:04:36Z</time>
      </trkpt>
      <trkpt lat="43.138139" lon="-9.186113">
        <ele>42.313</ele>
        <time>2019-06-21T16:04:37Z</time>
      </trkpt>
      <trkpt lat="43.138037" lon="-9.186094">
        <ele>41.882</ele>
        <time>2019-06-21T16:04:38Z</time>
      </trkpt>
      <trkpt lat="43.137918" lon="-9.186062">
        <ele>40.843</ele>
        <time>2019-06-21T16:04:39Z</time>
      </trkpt>
      <trkpt lat="43.137802" lon="-9.186019">
        <ele>39.817</ele>
        <time>2019-06-21T16:04:40Z</time>
      </trkpt>
      <trkpt lat="43.137683" lon="-9.185963">
        <ele>39.108</ele>
        <time>2019-06-21T16:04:41Z</time>
      </trkpt>
      <trkpt lat="43.137567" lon="-9.185888">
        <ele>38.421</ele>
        <time>2019-06-21T16:04:42Z</time>
      </trkpt>
      <trkpt lat="43.137453" lon="-9.185813">
        <ele>37.885</ele>
        <time>2019-06-21T16:04:43Z</time>
      </trkpt>
      <trkpt lat="43.137350" lon="-9.185748">
        <ele>37.337</ele>
        <time>2019-06-21T16:04:44Z</time>
      </trkpt>
      <trkpt lat="43.137246" lon="-9.185685">
        <ele>37.079</ele>
        <time>2019-06-21T16:04:45Z</time>
      </trkpt>
      <trkpt lat="43.137146" lon="-9.185634">
        <ele>37.056</ele>
        <time>2019-06-21T16:04:46Z</time>
      </trkpt>
      <trkpt lat="43.137048" lon="-9.185558">
        <ele>37.022</ele>
        <time>2019-06-21T16:04:47Z</time>
      </trkpt>
      <trkpt lat="43.136943" lon="-9.185485">
        <ele>37.026</ele>
        <time>2019-06-21T16:04:48Z</time>
      </trkpt>
      <trkpt lat="43.136832" lon="-9.185400">
        <ele>37.048</ele>
        <time>2019-06-21T16:04:49Z</time>
      </trkpt>
      <trkpt lat="43.136728" lon="-9.185329">
        <ele>37.018</ele>
        <time>2019-06-21T16:04:50Z</time>
      </trkpt>
      <trkpt lat="43.136637" lon="-9.185263">
        <ele>36.798</ele>
        <time>2019-06-21T16:04:51Z</time>
      </trkpt>
      <trkpt lat="43.136532" lon="-9.185210">
        <ele>35.817</ele>
        <time>2019-06-21T16:04:52Z</time>
      </trkpt>
      <trkpt lat="43.136452" lon="-9.185149">
        <ele>35.008</ele>
        <time>2019-06-21T16:04:53Z</time>
      </trkpt>
      <trkpt lat="43.136358" lon="-9.185103">
        <ele>34.174</ele>
        <time>2019-06-21T16:04:54Z</time>
      </trkpt>
      <trkpt lat="43.136280" lon="-9.185056">
        <ele>33.318</ele>
        <time>2019-06-21T16:04:55Z</time>
      </trkpt>
      <trkpt lat="43.136200" lon="-9.185004">
        <ele>32.610</ele>
        <time>2019-06-21T16:04:56Z</time>
      </trkpt>
      <trkpt lat="43.136114" lon="-9.184948">
        <ele>32.072</ele>
        <time>2019-06-21T16:04:57Z</time>
      </trkpt>
      <trkpt lat="43.136033" lon="-9.184876">
        <ele>31.429</ele>
        <time>2019-06-21T16:04:58Z</time>
      </trkpt>
      <trkpt lat="43.135957" lon="-9.184788">
        <ele>30.935</ele>
        <time>2019-06-21T16:04:59Z</time>
      </trkpt>
      <trkpt lat="43.135884" lon="-9.184691">
        <ele>30.349</ele>
        <time>2019-06-21T16:05:00Z</time>
      </trkpt>
      <trkpt lat="43.135816" lon="-9.184578">
        <ele>29.881</ele>
        <time>2019-06-21T16:05:01Z</time>
      </trkpt>
      <trkpt lat="43.135758" lon="-9.184460">
        <ele>29.275</ele>
        <time>2019-06-21T16:05:02Z</time>
      </trkpt>
      <trkpt lat="43.135703" lon="-9.184351">
        <ele>28.328</ele>
        <time>2019-06-21T16:05:03Z</time>
      </trkpt>
      <trkpt lat="43.135649" lon="-9.184249">
        <ele>27.320</ele>
        <time>2019-06-21T16:05:04Z</time>
      </trkpt>
      <trkpt lat="43.135594" lon="-9.184147">
        <ele>26.408</ele>
        <time>2019-06-21T16:05:05Z</time>
      </trkpt>
      <trkpt lat="43.135536" lon="-9.184070">
        <ele>25.630</ele>
        <time>2019-06-21T16:05:06Z</time>
      </trkpt>
      <trkpt lat="43.135465" lon="-9.184008">
        <ele>25.154</ele>
        <time>2019-06-21T16:05:07Z</time>
      </trkpt>
      <trkpt lat="43.135388" lon="-9.183967">
        <ele>24.756</ele>
        <time>2019-06-21T16:05:08Z</time>
      </trkpt>
      <trkpt lat="43.135301" lon="-9.183940">
        <ele>24.348</ele>
        <time>2019-06-21T16:05:09Z</time>
      </trkpt>
      <trkpt lat="43.135225" lon="-9.183907">
        <ele>24.175</ele>
        <time>2019-06-21T16:05:10Z</time>
      </trkpt>
      <trkpt lat="43.135131" lon="-9.183891">
        <ele>24.051</ele>
        <time>2019-06-21T16:05:11Z</time>
      </trkpt>
      <trkpt lat="43.135040" lon="-9.183865">
        <ele>24.175</ele>
        <time>2019-06-21T16:05:12Z</time>
      </trkpt>
      <trkpt lat="43.134955" lon="-9.183853">
        <ele>24.267</ele>
        <time>2019-06-21T16:05:13Z</time>
      </trkpt>
      <trkpt lat="43.134870" lon="-9.183858">
        <ele>24.212</ele>
        <time>2019-06-21T16:05:14Z</time>
      </trkpt>
      <trkpt lat="43.134801" lon="-9.183853">
        <ele>24.232</ele>
        <time>2019-06-21T16:05:15Z</time>
      </trkpt>
      <trkpt lat="43.134745" lon="-9.183849">
        <ele>24.205</ele>
        <time>2019-06-21T16:05:16Z</time>
      </trkpt>
      <trkpt lat="43.134675" lon="-9.183795">
        <ele>24.008</ele>
        <time>2019-06-21T16:05:18Z</time>
      </trkpt>
      <trkpt lat="43.134651" lon="-9.183698">
        <ele>24.284</ele>
        <time>2019-06-21T16:05:20Z</time>
      </trkpt>
      <trkpt lat="43.134661" lon="-9.183626">
        <ele>24.588</ele>
        <time>2019-06-21T16:05:21Z</time>
      </trkpt>
      <trkpt lat="43.134679" lon="-9.183535">
        <ele>25.230</ele>
        <time>2019-06-21T16:05:22Z</time>
      </trkpt>
      <trkpt lat="43.134697" lon="-9.183431">
        <ele>26.172</ele>
        <time>2019-06-21T16:05:23Z</time>
      </trkpt>
      <trkpt lat="43.134712" lon="-9.183325">
        <ele>26.969</ele>
        <time>2019-06-21T16:05:24Z</time>
      </trkpt>
      <trkpt lat="43.134721" lon="-9.183210">
        <ele>27.055</ele>
        <time>2019-06-21T16:05:25Z</time>
      </trkpt>
      <trkpt lat="43.134703" lon="-9.183074">
        <ele>26.839</ele>
        <time>2019-06-21T16:05:26Z</time>
      </trkpt>
      <trkpt lat="43.134687" lon="-9.182941">
        <ele>26.281</ele>
        <time>2019-06-21T16:05:27Z</time>
      </trkpt>
      <trkpt lat="43.134667" lon="-9.182821">
        <ele>25.482</ele>
        <time>2019-06-21T16:05:28Z</time>
      </trkpt>
      <trkpt lat="43.134639" lon="-9.182702">
        <ele>24.443</ele>
        <time>2019-06-21T16:05:29Z</time>
      </trkpt>
      <trkpt lat="43.134611" lon="-9.182587">
        <ele>23.617</ele>
        <time>2019-06-21T16:05:30Z</time>
      </trkpt>
      <trkpt lat="43.134586" lon="-9.182493">
        <ele>23.008</ele>
        <time>2019-06-21T16:05:31Z</time>
      </trkpt>
      <trkpt lat="43.134560" lon="-9.182405">
        <ele>22.571</ele>
        <time>2019-06-21T16:05:32Z</time>
      </trkpt>
      <trkpt lat="43.134525" lon="-9.182323">
        <ele>21.975</ele>
        <time>2019-06-21T16:05:33Z</time>
      </trkpt>
      <trkpt lat="43.134474" lon="-9.182256">
        <ele>21.387</ele>
        <time>2019-06-21T16:05:34Z</time>
      </trkpt>
      <trkpt lat="43.134429" lon="-9.182193">
        <ele>20.969</ele>
        <time>2019-06-21T16:05:35Z</time>
      </trkpt>
      <trkpt lat="43.134387" lon="-9.182119">
        <ele>20.746</ele>
        <time>2019-06-21T16:05:36Z</time>
      </trkpt>
      <trkpt lat="43.134374" lon="-9.182035">
        <ele>20.792</ele>
        <time>2019-06-21T16:05:37Z</time>
      </trkpt>
      <trkpt lat="43.134376" lon="-9.181947">
        <ele>20.896</ele>
        <time>2019-06-21T16:05:38Z</time>
      </trkpt>
      <trkpt lat="43.134390" lon="-9.181856">
        <ele>20.778</ele>
        <time>2019-06-21T16:05:39Z</time>
      </trkpt>
      <trkpt lat="43.134426" lon="-9.181745">
        <ele>20.925</ele>
        <time>2019-06-21T16:05:40Z</time>
      </trkpt>
      <trkpt lat="43.134465" lon="-9.181641">
        <ele>20.826</ele>
        <time>2019-06-21T16:05:41Z</time>
      </trkpt>
      <trkpt lat="43.134498" lon="-9.181522">
        <ele>20.008</ele>
        <time>2019-06-21T16:05:42Z</time>
      </trkpt>
      <trkpt lat="43.134519" lon="-9.181394">
        <ele>19.008</ele>
        <time>2019-06-21T16:05:43Z</time>
      </trkpt>
      <trkpt lat="43.134545" lon="-9.181272">
        <ele>17.585</ele>
        <time>2019-06-21T16:05:44Z</time>
      </trkpt>
      <trkpt lat="43.134569" lon="-9.181140">
        <ele>15.819</ele>
        <time>2019-06-21T16:05:45Z</time>
      </trkpt>
      <trkpt lat="43.134586" lon="-9.181012">
        <ele>14.431</ele>
        <time>2019-06-21T16:05:46Z</time>
      </trkpt>
      <trkpt lat="43.134590" lon="-9.180869">
        <ele>12.923</ele>
        <time>2019-06-21T16:05:47Z</time>
      </trkpt>
      <trkpt lat="43.134601" lon="-9.180758">
        <ele>11.980</ele>
        <time>2019-06-21T16:05:48Z</time>
      </trkpt>
      <trkpt lat="43.134606" lon="-9.180661">
        <ele>11.136</ele>
        <time>2019-06-21T16:05:49Z</time>
      </trkpt>
      <trkpt lat="43.134604" lon="-9.180571">
        <ele>10.340</ele>
        <time>2019-06-21T16:05:50Z</time>
      </trkpt>
      <trkpt lat="43.134608" lon="-9.180501">
        <ele>10.162</ele>
        <time>2019-06-21T16:05:51Z</time>
      </trkpt>
      <trkpt lat="43.134603" lon="-9.180403">
        <ele>9.824</ele>
        <time>2019-06-21T16:05:53Z</time>
      </trkpt>
      <trkpt lat="43.134605" lon="-9.180338">
        <ele>9.704</ele>
        <time>2019-06-21T16:05:56Z</time>
      </trkpt>
      <trkpt lat="43.134634" lon="-9.180275">
        <ele>9.714</ele>
        <time>2019-06-21T16:05:57Z</time>
      </trkpt>
      <trkpt lat="43.134676" lon="-9.180198">
        <ele>10.108</ele>
        <time>2019-06-21T16:05:58Z</time>
      </trkpt>
      <trkpt lat="43.134748" lon="-9.180118">
        <ele>10.985</ele>
        <time>2019-06-21T16:05:59Z</time>
      </trkpt>
      <trkpt lat="43.134830" lon="-9.180042">
        <ele>12.099</ele>
        <time>2019-06-21T16:06:00Z</time>
      </trkpt>
      <trkpt lat="43.134922" lon="-9.179948">
        <ele>13.361</ele>
        <time>2019-06-21T16:06:01Z</time>
      </trkpt>
      <trkpt lat="43.135028" lon="-9.179838">
        <ele>14.743</ele>
        <time>2019-06-21T16:06:02Z</time>
      </trkpt>
      <trkpt lat="43.135147" lon="-9.179724">
        <ele>15.550</ele>
        <time>2019-06-21T16:06:03Z</time>
      </trkpt>
      <trkpt lat="43.135274" lon="-9.179609">
        <ele>16.426</ele>
        <time>2019-06-21T16:06:04Z</time>
      </trkpt>
      <trkpt lat="43.135401" lon="-9.179499">
        <ele>16.850</ele>
        <time>2019-06-21T16:06:05Z</time>
      </trkpt>
      <trkpt lat="43.135525" lon="-9.179393">
        <ele>17.092</ele>
        <time>2019-06-21T16:06:06Z</time>
      </trkpt>
      <trkpt lat="43.135657" lon="-9.179271">
        <ele>16.556</ele>
        <time>2019-06-21T16:06:07Z</time>
      </trkpt>
      <trkpt lat="43.135785" lon="-9.179162">
        <ele>16.259</ele>
        <time>2019-06-21T16:06:08Z</time>
      </trkpt>
      <trkpt lat="43.135907" lon="-9.179045">
        <ele>15.914</ele>
        <time>2019-06-21T16:06:09Z</time>
      </trkpt>
      <trkpt lat="43.136022" lon="-9.178934">
        <ele>15.508</ele>
        <time>2019-06-21T16:06:10Z</time>
      </trkpt>
      <trkpt lat="43.136125" lon="-9.178832">
        <ele>14.918</ele>
        <time>2019-06-21T16:06:11Z</time>
      </trkpt>
      <trkpt lat="43.136233" lon="-9.178766">
        <ele>13.932</ele>
        <time>2019-06-21T16:06:12Z</time>
      </trkpt>
      <trkpt lat="43.136336" lon="-9.178737">
        <ele>13.064</ele>
        <time>2019-06-21T16:06:13Z</time>
      </trkpt>
      <trkpt lat="43.136440" lon="-9.178740">
        <ele>12.026</ele>
        <time>2019-06-21T16:06:14Z</time>
      </trkpt>
      <trkpt lat="43.136599" lon="-9.178742">
        <ele>10.263</ele>
        <time>2019-06-21T16:06:15Z</time>
      </trkpt>
      <trkpt lat="43.136731" lon="-9.178774">
        <ele>9.379</ele>
        <time>2019-06-21T16:06:16Z</time>
      </trkpt>
      <trkpt lat="43.136880" lon="-9.178817">
        <ele>8.883</ele>
        <time>2019-06-21T16:06:17Z</time>
      </trkpt>
      <trkpt lat="43.137029" lon="-9.178855">
        <ele>7.895</ele>
        <time>2019-06-21T16:06:18Z</time>
      </trkpt>
      <trkpt lat="43.137175" lon="-9.178886">
        <ele>6.572</ele>
        <time>2019-06-21T16:06:19Z</time>
      </trkpt>
      <trkpt lat="43.137322" lon="-9.178921">
        <ele>5.513</ele>
        <time>2019-06-21T16:06:20Z</time>
      </trkpt>
      <trkpt lat="43.137465" lon="-9.178941">
        <ele>4.614</ele>
        <time>2019-06-21T16:06:21Z</time>
      </trkpt>
      <trkpt lat="43.137604" lon="-9.178946">
        <ele>4.708</ele>
        <time>2019-06-21T16:06:22Z</time>
      </trkpt>
      <trkpt lat="43.137736" lon="-9.178927">
        <ele>5.070</ele>
        <time>2019-06-21T16:06:23Z</time>
      </trkpt>
      <trkpt lat="43.137874" lon="-9.178896">
        <ele>4.734</ele>
        <time>2019-06-21T16:06:24Z</time>
      </trkpt>
      <trkpt lat="43.138025" lon="-9.178808">
        <ele>4.196</ele>
        <time>2019-06-21T16:06:25Z</time>
      </trkpt>
      <trkpt lat="43.138164" lon="-9.178711">
        <ele>3.848</ele>
        <time>2019-06-21T16:06:26Z</time>
      </trkpt>
      <trkpt lat="43.138322" lon="-9.178606">
        <ele>3.165</ele>
        <time>2019-06-21T16:06:27Z</time>
      </trkpt>
      <trkpt lat="43.138479" lon="-9.178487">
        <ele>4.081</ele>
        <time>2019-06-21T16:06:28Z</time>
      </trkpt>
      <trkpt lat="43.138637" lon="-9.178372">
        <ele>5.075</ele>
        <time>2019-06-21T16:06:29Z</time>
      </trkpt>
      <trkpt lat="43.138801" lon="-9.178262">
        <ele>5.857</ele>
        <time>2019-06-21T16:06:30Z</time>
      </trkpt>
      <trkpt lat="43.138973" lon="-9.178131">
        <ele>6.291</ele>
        <time>2019-06-21T16:06:31Z</time>
      </trkpt>
      <trkpt lat="43.139171" lon="-9.177994">
        <ele>6.881</ele>
        <time>2019-06-21T16:06:32Z</time>
      </trkpt>
      <trkpt lat="43.139347" lon="-9.177860">
        <ele>6.819</ele>
        <time>2019-06-21T16:06:33Z</time>
      </trkpt>
      <trkpt lat="43.139521" lon="-9.177737">
        <ele>7.408</ele>
        <time>2019-06-21T16:06:34Z</time>
      </trkpt>
      <trkpt lat="43.139700" lon="-9.177614">
        <ele>8.032</ele>
        <time>2019-06-21T16:06:35Z</time>
      </trkpt>
      <trkpt lat="43.139876" lon="-9.177471">
        <ele>8.786</ele>
        <time>2019-06-21T16:06:36Z</time>
      </trkpt>
      <trkpt lat="43.140055" lon="-9.177327">
        <ele>9.948</ele>
        <time>2019-06-21T16:06:37Z</time>
      </trkpt>
      <trkpt lat="43.140249" lon="-9.177181">
        <ele>11.060</ele>
        <time>2019-06-21T16:06:38Z</time>
      </trkpt>
      <trkpt lat="43.140431" lon="-9.177043">
        <ele>12.987</ele>
        <time>2019-06-21T16:06:39Z</time>
      </trkpt>
      <trkpt lat="43.140630" lon="-9.176909">
        <ele>14.483</ele>
        <time>2019-06-21T16:06:40Z</time>
      </trkpt>
      <trkpt lat="43.140812" lon="-9.176779">
        <ele>15.327</ele>
        <time>2019-06-21T16:06:41Z</time>
      </trkpt>
      <trkpt lat="43.141009" lon="-9.176647">
        <ele>16.299</ele>
        <time>2019-06-21T16:06:42Z</time>
      </trkpt>
      <trkpt lat="43.141199" lon="-9.176511">
        <ele>16.934</ele>
        <time>2019-06-21T16:06:43Z</time>
      </trkpt>
      <trkpt lat="43.141382" lon="-9.176374">
        <ele>17.955</ele>
        <time>2019-06-21T16:06:44Z</time>
      </trkpt>
      <trkpt lat="43.141563" lon="-9.176251">
        <ele>19.910</ele>
        <time>2019-06-21T16:06:45Z</time>
      </trkpt>
      <trkpt lat="43.141749" lon="-9.176127">
        <ele>22.208</ele>
        <time>2019-06-21T16:06:46Z</time>
      </trkpt>
      <trkpt lat="43.141937" lon="-9.175994">
        <ele>24.556</ele>
        <time>2019-06-21T16:06:47Z</time>
      </trkpt>
      <trkpt lat="43.142118" lon="-9.175858">
        <ele>26.080</ele>
        <time>2019-06-21T16:06:48Z</time>
      </trkpt>
      <trkpt lat="43.142292" lon="-9.175709">
        <ele>27.692</ele>
        <time>2019-06-21T16:06:49Z</time>
      </trkpt>
      <trkpt lat="43.142459" lon="-9.175548">
        <ele>29.494</ele>
        <time>2019-06-21T16:06:50Z</time>
      </trkpt>
      <trkpt lat="43.142610" lon="-9.175355">
        <ele>30.131</ele>
        <time>2019-06-21T16:06:51Z</time>
      </trkpt>
      <trkpt lat="43.142751" lon="-9.175134">
        <ele>31.477</ele>
        <time>2019-06-21T16:06:52Z</time>
      </trkpt>
      <trkpt lat="43.142892" lon="-9.174903">
        <ele>33.271</ele>
        <time>2019-06-21T16:06:53Z</time>
      </trkpt>
      <trkpt lat="43.143027" lon="-9.174671">
        <ele>34.233</ele>
        <time>2019-06-21T16:06:54Z</time>
      </trkpt>
      <trkpt lat="43.143149" lon="-9.174469">
        <ele>35.321</ele>
        <time>2019-06-21T16:06:55Z</time>
      </trkpt>
      <trkpt lat="43.143274" lon="-9.174247">
        <ele>36.841</ele>
        <time>2019-06-21T16:06:56Z</time>
      </trkpt>
      <trkpt lat="43.143394" lon="-9.174045">
        <ele>38.105</ele>
        <time>2019-06-21T16:06:57Z</time>
      </trkpt>
      <trkpt lat="43.143508" lon="-9.173853">
        <ele>39.008</ele>
        <time>2019-06-21T16:06:58Z</time>
      </trkpt>
      <trkpt lat="43.143641" lon="-9.173678">
        <ele>39.165</ele>
        <time>2019-06-21T16:06:59Z</time>
      </trkpt>
      <trkpt lat="43.143780" lon="-9.173521">
        <ele>39.419</ele>
        <time>2019-06-21T16:07:00Z</time>
      </trkpt>
      <trkpt lat="43.143939" lon="-9.173371">
        <ele>39.131</ele>
        <time>2019-06-21T16:07:01Z</time>
      </trkpt>
      <trkpt lat="43.144113" lon="-9.173259">
        <ele>38.713</ele>
        <time>2019-06-21T16:07:02Z</time>
      </trkpt>
      <trkpt lat="43.144296" lon="-9.173174">
        <ele>38.650</ele>
        <time>2019-06-21T16:07:03Z</time>
      </trkpt>
      <trkpt lat="43.144489" lon="-9.173078">
        <ele>38.056</ele>
        <time>2019-06-21T16:07:04Z</time>
      </trkpt>
      <trkpt lat="43.144693" lon="-9.172984">
        <ele>36.450</ele>
        <time>2019-06-21T16:07:05Z</time>
      </trkpt>
      <trkpt lat="43.144904" lon="-9.172905">
        <ele>34.132</ele>
        <time>2019-06-21T16:07:06Z</time>
      </trkpt>
      <trkpt lat="43.145094" lon="-9.172832">
        <ele>32.337</ele>
        <time>2019-06-21T16:07:07Z</time>
      </trkpt>
      <trkpt lat="43.145314" lon="-9.172751">
        <ele>30.649</ele>
        <time>2019-06-21T16:07:08Z</time>
      </trkpt>
      <trkpt lat="43.145487" lon="-9.172673">
        <ele>29.113</ele>
        <time>2019-06-21T16:07:09Z</time>
      </trkpt>
      <trkpt lat="43.145673" lon="-9.172615">
        <ele>28.108</ele>
        <time>2019-06-21T16:07:10Z</time>
      </trkpt>
      <trkpt lat="43.145869" lon="-9.172572">
        <ele>27.426</ele>
        <time>2019-06-21T16:07:11Z</time>
      </trkpt>
      <trkpt lat="43.146069" lon="-9.172550">
        <ele>26.520</ele>
        <time>2019-06-21T16:07:12Z</time>
      </trkpt>
      <trkpt lat="43.146266" lon="-9.172570">
        <ele>25.962</ele>
        <time>2019-06-21T16:07:13Z</time>
      </trkpt>
      <trkpt lat="43.146468" lon="-9.172608">
        <ele>25.634</ele>
        <time>2019-06-21T16:07:14Z</time>
      </trkpt>
      <trkpt lat="43.146671" lon="-9.172650">
        <ele>25.671</ele>
        <time>2019-06-21T16:07:15Z</time>
      </trkpt>
      <trkpt lat="43.146870" lon="-9.172684">
        <ele>24.567</ele>
        <time>2019-06-21T16:07:16Z</time>
      </trkpt>
      <trkpt lat="43.147070" lon="-9.172711">
        <ele>23.851</ele>
        <time>2019-06-21T16:07:17Z</time>
      </trkpt>
      <trkpt lat="43.147250" lon="-9.172670">
        <ele>22.963</ele>
        <time>2019-06-21T16:07:18Z</time>
      </trkpt>
      <trkpt lat="43.147438" lon="-9.172625">
        <ele>23.169</ele>
        <time>2019-06-21T16:07:19Z</time>
      </trkpt>
      <trkpt lat="43.147624" lon="-9.172538">
        <ele>23.304</ele>
        <time>2019-06-21T16:07:20Z</time>
      </trkpt>
      <trkpt lat="43.147802" lon="-9.172423">
        <ele>23.924</ele>
        <time>2019-06-21T16:07:21Z</time>
      </trkpt>
      <trkpt lat="43.147987" lon="-9.172274">
        <ele>25.508</ele>
        <time>2019-06-21T16:07:22Z</time>
      </trkpt>
      <trkpt lat="43.148153" lon="-9.172100">
        <ele>25.729</ele>
        <time>2019-06-21T16:07:23Z</time>
      </trkpt>
      <trkpt lat="43.148262" lon="-9.171805">
        <ele>24.213</ele>
        <time>2019-06-21T16:07:24Z</time>
      </trkpt>
      <trkpt lat="43.148377" lon="-9.171581">
        <ele>23.435</ele>
        <time>2019-06-21T16:07:25Z</time>
      </trkpt>
      <trkpt lat="43.148488" lon="-9.171336">
        <ele>21.697</ele>
        <time>2019-06-21T16:07:26Z</time>
      </trkpt>
      <trkpt lat="43.148607" lon="-9.171073">
        <ele>20.764</ele>
        <time>2019-06-21T16:07:27Z</time>
      </trkpt>
      <trkpt lat="43.148743" lon="-9.170855">
        <ele>20.140</ele>
        <time>2019-06-21T16:07:28Z</time>
      </trkpt>
      <trkpt lat="43.148887" lon="-9.170606">
        <ele>18.584</ele>
        <time>2019-06-21T16:07:29Z</time>
      </trkpt>
      <trkpt lat="43.149022" lon="-9.170340">
        <ele>16.926</ele>
        <time>2019-06-21T16:07:30Z</time>
      </trkpt>
      <trkpt lat="43.149167" lon="-9.170080">
        <ele>14.962</ele>
        <time>2019-06-21T16:07:31Z</time>
      </trkpt>
      <trkpt lat="43.149312" lon="-9.169838">
        <ele>13.783</ele>
        <time>2019-06-21T16:07:32Z</time>
      </trkpt>
      <trkpt lat="43.149451" lon="-9.169574">
        <ele>13.511</ele>
        <time>2019-06-21T16:07:33Z</time>
      </trkpt>
      <trkpt lat="43.149595" lon="-9.169314">
        <ele>13.408</ele>
        <time>2019-06-21T16:07:34Z</time>
      </trkpt>
      <trkpt lat="43.149742" lon="-9.169055">
        <ele>12.229</ele>
        <time>2019-06-21T16:07:35Z</time>
      </trkpt>
      <trkpt lat="43.149897" lon="-9.168801">
        <ele>11.083</ele>
        <time>2019-06-21T16:07:36Z</time>
      </trkpt>
      <trkpt lat="43.150047" lon="-9.168555">
        <ele>9.985</ele>
        <time>2019-06-21T16:07:37Z</time>
      </trkpt>
      <trkpt lat="43.150200" lon="-9.168305">
        <ele>8.847</ele>
        <time>2019-06-21T16:07:38Z</time>
      </trkpt>
      <trkpt lat="43.150333" lon="-9.168055">
        <ele>7.614</ele>
        <time>2019-06-21T16:07:39Z</time>
      </trkpt>
      <trkpt lat="43.150470" lon="-9.167839">
        <ele>5.180</ele>
        <time>2019-06-21T16:07:40Z</time>
      </trkpt>
      <trkpt lat="43.150616" lon="-9.167618">
        <ele>2.494</ele>
        <time>2019-06-21T16:07:41Z</time>
      </trkpt>
      <trkpt lat="43.150754" lon="-9.167420">
        <ele>1.276</ele>
        <time>2019-06-21T16:07:42Z</time>
      </trkpt>
      <trkpt lat="43.150890" lon="-9.167224">
        <ele>1.263</ele>
        <time>2019-06-21T16:07:43Z</time>
      </trkpt>
      <trkpt lat="43.151033" lon="-9.167062">
        <ele>2.144</ele>
        <time>2019-06-21T16:07:44Z</time>
      </trkpt>
      <trkpt lat="43.151182" lon="-9.166904">
        <ele>3.718</ele>
        <time>2019-06-21T16:07:45Z</time>
      </trkpt>
      <trkpt lat="43.151327" lon="-9.166762">
        <ele>5.708</ele>
        <time>2019-06-21T16:07:46Z</time>
      </trkpt>
      <trkpt lat="43.151459" lon="-9.166678">
        <ele>7.279</ele>
        <time>2019-06-21T16:07:47Z</time>
      </trkpt>
      <trkpt lat="43.151632" lon="-9.166606">
        <ele>7.983</ele>
        <time>2019-06-21T16:07:48Z</time>
      </trkpt>
      <trkpt lat="43.151815" lon="-9.166549">
        <ele>8.825</ele>
        <time>2019-06-21T16:07:49Z</time>
      </trkpt>
      <trkpt lat="43.151996" lon="-9.166495">
        <ele>9.337</ele>
        <time>2019-06-21T16:07:50Z</time>
      </trkpt>
      <trkpt lat="43.152189" lon="-9.166442">
        <ele>8.584</ele>
        <time>2019-06-21T16:07:51Z</time>
      </trkpt>
      <trkpt lat="43.152374" lon="-9.166404">
        <ele>7.650</ele>
        <time>2019-06-21T16:07:52Z</time>
      </trkpt>
      <trkpt lat="43.152549" lon="-9.166359">
        <ele>7.144</ele>
        <time>2019-06-21T16:07:53Z</time>
      </trkpt>
      <trkpt lat="43.152673" lon="-9.166284">
        <ele>7.086</ele>
        <time>2019-06-21T16:07:54Z</time>
      </trkpt>
      <trkpt lat="43.152808" lon="-9.166194">
        <ele>6.546</ele>
        <time>2019-06-21T16:07:55Z</time>
      </trkpt>
      <trkpt lat="43.152928" lon="-9.166084">
        <ele>6.588</ele>
        <time>2019-06-21T16:07:56Z</time>
      </trkpt>
      <trkpt lat="43.153014" lon="-9.165936">
        <ele>6.416</ele>
        <time>2019-06-21T16:07:57Z</time>
      </trkpt>
      <trkpt lat="43.153025" lon="-9.165717">
        <ele>5.408</ele>
        <time>2019-06-21T16:07:58Z</time>
      </trkpt>
      <trkpt lat="43.153047" lon="-9.165530">
        <ele>5.047</ele>
        <time>2019-06-21T16:07:59Z</time>
      </trkpt>
      <trkpt lat="43.153060" lon="-9.165323">
        <ele>5.111</ele>
        <time>2019-06-21T16:08:00Z</time>
      </trkpt>
      <trkpt lat="43.153035" lon="-9.165117">
        <ele>5.463</ele>
        <time>2019-06-21T16:08:01Z</time>
      </trkpt>
      <trkpt lat="43.152986" lon="-9.164915">
        <ele>5.755</ele>
        <time>2019-06-21T16:08:02Z</time>
      </trkpt>
      <trkpt lat="43.152907" lon="-9.164761">
        <ele>5.322</ele>
        <time>2019-06-21T16:08:03Z</time>
      </trkpt>
      <trkpt lat="43.152788" lon="-9.164600">
        <ele>4.188</ele>
        <time>2019-06-21T16:08:04Z</time>
      </trkpt>
      <trkpt lat="43.152669" lon="-9.164434">
        <ele>4.032</ele>
        <time>2019-06-21T16:08:05Z</time>
      </trkpt>
      <trkpt lat="43.152534" lon="-9.164280">
        <ele>4.584</ele>
        <time>2019-06-21T16:08:06Z</time>
      </trkpt>
      <trkpt lat="43.152400" lon="-9.164096">
        <ele>5.678</ele>
        <time>2019-06-21T16:08:07Z</time>
      </trkpt>
      <trkpt lat="43.152262" lon="-9.163914">
        <ele>6.833</ele>
        <time>2019-06-21T16:08:08Z</time>
      </trkpt>
      <trkpt lat="43.152119" lon="-9.163734">
        <ele>7.626</ele>
        <time>2019-06-21T16:08:09Z</time>
      </trkpt>
      <trkpt lat="43.151971" lon="-9.163553">
        <ele>8.808</ele>
        <time>2019-06-21T16:08:10Z</time>
      </trkpt>
      <trkpt lat="43.151823" lon="-9.163365">
        <ele>10.340</ele>
        <time>2019-06-21T16:08:11Z</time>
      </trkpt>
      <trkpt lat="43.151674" lon="-9.163181">
        <ele>12.524</ele>
        <time>2019-06-21T16:08:12Z</time>
      </trkpt>
      <trkpt lat="43.151523" lon="-9.162997">
        <ele>14.036</ele>
        <time>2019-06-21T16:08:13Z</time>
      </trkpt>
      <trkpt lat="43.151380" lon="-9.162817">
        <ele>15.788</ele>
        <time>2019-06-21T16:08:14Z</time>
      </trkpt>
      <trkpt lat="43.151234" lon="-9.162639">
        <ele>16.295</ele>
        <time>2019-06-21T16:08:15Z</time>
      </trkpt>
      <trkpt lat="43.151082" lon="-9.162459">
        <ele>16.321</ele>
        <time>2019-06-21T16:08:16Z</time>
      </trkpt>
      <trkpt lat="43.150928" lon="-9.162285">
        <ele>17.285</ele>
        <time>2019-06-21T16:08:17Z</time>
      </trkpt>
      <trkpt lat="43.150775" lon="-9.162116">
        <ele>18.337</ele>
        <time>2019-06-21T16:08:18Z</time>
      </trkpt>
      <trkpt lat="43.150618" lon="-9.161943">
        <ele>20.251</ele>
        <time>2019-06-21T16:08:19Z</time>
      </trkpt>
      <trkpt lat="43.150468" lon="-9.161780">
        <ele>21.301</ele>
        <time>2019-06-21T16:08:20Z</time>
      </trkpt>
      <trkpt lat="43.150322" lon="-9.161603">
        <ele>22.811</ele>
        <time>2019-06-21T16:08:21Z</time>
      </trkpt>
      <trkpt lat="43.150187" lon="-9.161409">
        <ele>24.508</ele>
        <time>2019-06-21T16:08:22Z</time>
      </trkpt>
      <trkpt lat="43.150059" lon="-9.161209">
        <ele>26.228</ele>
        <time>2019-06-21T16:08:23Z</time>
      </trkpt>
      <trkpt lat="43.149945" lon="-9.161010">
        <ele>28.462</ele>
        <time>2019-06-21T16:08:24Z</time>
      </trkpt>
      <trkpt lat="43.149829" lon="-9.160808">
        <ele>30.724</ele>
        <time>2019-06-21T16:08:25Z</time>
      </trkpt>
      <trkpt lat="43.149717" lon="-9.160621">
        <ele>32.296</ele>
        <time>2019-06-21T16:08:26Z</time>
      </trkpt>
      <trkpt lat="43.149592" lon="-9.160450">
        <ele>32.793</ele>
        <time>2019-06-21T16:08:27Z</time>
      </trkpt>
      <trkpt lat="43.149453" lon="-9.160282">
        <ele>33.089</ele>
        <time>2019-06-21T16:08:28Z</time>
      </trkpt>
      <trkpt lat="43.149300" lon="-9.160165">
        <ele>35.043</ele>
        <time>2019-06-21T16:08:29Z</time>
      </trkpt>
      <trkpt lat="43.149139" lon="-9.160052">
        <ele>36.255</ele>
        <time>2019-06-21T16:08:30Z</time>
      </trkpt>
      <trkpt lat="43.148961" lon="-9.159979">
        <ele>37.271</ele>
        <time>2019-06-21T16:08:31Z</time>
      </trkpt>
      <trkpt lat="43.148781" lon="-9.159898">
        <ele>37.241</ele>
        <time>2019-06-21T16:08:32Z</time>
      </trkpt>
      <trkpt lat="43.148603" lon="-9.159816">
        <ele>37.615</ele>
        <time>2019-06-21T16:08:33Z</time>
      </trkpt>
      <trkpt lat="43.148428" lon="-9.159709">
        <ele>37.808</ele>
        <time>2019-06-21T16:08:34Z</time>
      </trkpt>
      <trkpt lat="43.148263" lon="-9.159588">
        <ele>38.590</ele>
        <time>2019-06-21T16:08:35Z</time>
      </trkpt>
      <trkpt lat="43.148104" lon="-9.159449">
        <ele>40.054</ele>
        <time>2019-06-21T16:08:36Z</time>
      </trkpt>
      <trkpt lat="43.147976" lon="-9.159284">
        <ele>41.236</ele>
        <time>2019-06-21T16:08:37Z</time>
      </trkpt>
      <trkpt lat="43.147854" lon="-9.159104">
        <ele>42.428</ele>
        <time>2019-06-21T16:08:38Z</time>
      </trkpt>
      <trkpt lat="43.147741" lon="-9.158932">
        <ele>43.875</ele>
        <time>2019-06-21T16:08:39Z</time>
      </trkpt>
      <trkpt lat="43.147631" lon="-9.158768">
        <ele>44.551</ele>
        <time>2019-06-21T16:08:40Z</time>
      </trkpt>
      <trkpt lat="43.147524" lon="-9.158600">
        <ele>44.845</ele>
        <time>2019-06-21T16:08:41Z</time>
      </trkpt>
      <trkpt lat="43.147425" lon="-9.158444">
        <ele>44.067</ele>
        <time>2019-06-21T16:08:42Z</time>
      </trkpt>
      <trkpt lat="43.147326" lon="-9.158295">
        <ele>43.599</ele>
        <time>2019-06-21T16:08:43Z</time>
      </trkpt>
      <trkpt lat="43.147233" lon="-9.158156">
        <ele>43.307</ele>
        <time>2019-06-21T16:08:44Z</time>
      </trkpt>
      <trkpt lat="43.147139" lon="-9.158028">
        <ele>42.727</ele>
        <time>2019-06-21T16:08:45Z</time>
      </trkpt>
      <trkpt lat="43.147042" lon="-9.157901">
        <ele>41.308</ele>
        <time>2019-06-21T16:08:46Z</time>
      </trkpt>
      <trkpt lat="43.146918" lon="-9.157771">
        <ele>40.152</ele>
        <time>2019-06-21T16:08:47Z</time>
      </trkpt>
      <trkpt lat="43.146777" lon="-9.157637">
        <ele>39.156</ele>
        <time>2019-06-21T16:08:48Z</time>
      </trkpt>
      <trkpt lat="43.146626" lon="-9.157499">
        <ele>37.418</ele>
        <time>2019-06-21T16:08:49Z</time>
      </trkpt>
      <trkpt lat="43.146467" lon="-9.157345">
        <ele>36.720</ele>
        <time>2019-06-21T16:08:50Z</time>
      </trkpt>
      <trkpt lat="43.146300" lon="-9.157194">
        <ele>35.937</ele>
        <time>2019-06-21T16:08:51Z</time>
      </trkpt>
      <trkpt lat="43.146143" lon="-9.157056">
        <ele>35.213</ele>
        <time>2019-06-21T16:08:52Z</time>
      </trkpt>
      <trkpt lat="43.146003" lon="-9.156942">
        <ele>33.787</ele>
        <time>2019-06-21T16:08:53Z</time>
      </trkpt>
      <trkpt lat="43.145844" lon="-9.156785">
        <ele>32.659</ele>
        <time>2019-06-21T16:08:54Z</time>
      </trkpt>
      <trkpt lat="43.145677" lon="-9.156631">
        <ele>31.319</ele>
        <time>2019-06-21T16:08:55Z</time>
      </trkpt>
      <trkpt lat="43.145510" lon="-9.156477">
        <ele>30.809</ele>
        <time>2019-06-21T16:08:56Z</time>
      </trkpt>
      <trkpt lat="43.145343" lon="-9.156311">
        <ele>30.519</ele>
        <time>2019-06-21T16:08:57Z</time>
      </trkpt>
      <trkpt lat="43.145162" lon="-9.156158">
        <ele>29.808</ele>
        <time>2019-06-21T16:08:58Z</time>
      </trkpt>
      <trkpt lat="43.144985" lon="-9.155988">
        <ele>28.114</ele>
        <time>2019-06-21T16:08:59Z</time>
      </trkpt>
      <trkpt lat="43.144800" lon="-9.155820">
        <ele>27.728</ele>
        <time>2019-06-21T16:09:00Z</time>
      </trkpt>
      <trkpt lat="43.144617" lon="-9.155653">
        <ele>27.440</ele>
        <time>2019-06-21T16:09:01Z</time>
      </trkpt>
      <trkpt lat="43.144430" lon="-9.155491">
        <ele>27.042</ele>
        <time>2019-06-21T16:09:02Z</time>
      </trkpt>
      <trkpt lat="43.144246" lon="-9.155331">
        <ele>27.089</ele>
        <time>2019-06-21T16:09:03Z</time>
      </trkpt>
      <trkpt lat="43.144044" lon="-9.155151">
        <ele>26.155</ele>
        <time>2019-06-21T16:09:04Z</time>
      </trkpt>
      <trkpt lat="43.143839" lon="-9.154972">
        <ele>25.029</ele>
        <time>2019-06-21T16:09:05Z</time>
      </trkpt>
      <trkpt lat="43.143644" lon="-9.154788">
        <ele>24.441</ele>
        <time>2019-06-21T16:09:06Z</time>
      </trkpt>
      <trkpt lat="43.143453" lon="-9.154613">
        <ele>24.046</ele>
        <time>2019-06-21T16:09:07Z</time>
      </trkpt>
      <trkpt lat="43.143267" lon="-9.154437">
        <ele>23.488</ele>
        <time>2019-06-21T16:09:08Z</time>
      </trkpt>
      <trkpt lat="43.143081" lon="-9.154268">
        <ele>21.716</ele>
        <time>2019-06-21T16:09:09Z</time>
      </trkpt>
      <trkpt lat="43.142888" lon="-9.154095">
        <ele>19.708</ele>
        <time>2019-06-21T16:09:10Z</time>
      </trkpt>
      <trkpt lat="43.142696" lon="-9.153923">
        <ele>19.297</ele>
        <time>2019-06-21T16:09:11Z</time>
      </trkpt>
      <trkpt lat="43.142491" lon="-9.153758">
        <ele>20.691</ele>
        <time>2019-06-21T16:09:12Z</time>
      </trkpt>
      <trkpt lat="43.142294" lon="-9.153563">
        <ele>20.413</ele>
        <time>2019-06-21T16:09:13Z</time>
      </trkpt>
      <trkpt lat="43.142082" lon="-9.153402">
        <ele>19.555</ele>
        <time>2019-06-21T16:09:14Z</time>
      </trkpt>
      <trkpt lat="43.141875" lon="-9.153223">
        <ele>18.612</ele>
        <time>2019-06-21T16:09:15Z</time>
      </trkpt>
      <trkpt lat="43.141682" lon="-9.153029">
        <ele>18.818</ele>
        <time>2019-06-21T16:09:16Z</time>
      </trkpt>
      <trkpt lat="43.141485" lon="-9.152840">
        <ele>19.042</ele>
        <time>2019-06-21T16:09:17Z</time>
      </trkpt>
      <trkpt lat="43.141290" lon="-9.152653">
        <ele>18.644</ele>
        <time>2019-06-21T16:09:18Z</time>
      </trkpt>
      <trkpt lat="43.141088" lon="-9.152465">
        <ele>17.942</ele>
        <time>2019-06-21T16:09:19Z</time>
      </trkpt>
      <trkpt lat="43.140892" lon="-9.152277">
        <ele>16.622</ele>
        <time>2019-06-21T16:09:20Z</time>
      </trkpt>
      <trkpt lat="43.140704" lon="-9.152100">
        <ele>16.814</ele>
        <time>2019-06-21T16:09:21Z</time>
      </trkpt>
      <trkpt lat="43.140505" lon="-9.151925">
        <ele>17.308</ele>
        <time>2019-06-21T16:09:22Z</time>
      </trkpt>
      <trkpt lat="43.140302" lon="-9.151755">
        <ele>17.587</ele>
        <time>2019-06-21T16:09:23Z</time>
      </trkpt>
      <trkpt lat="43.140107" lon="-9.151577">
        <ele>16.571</ele>
        <time>2019-06-21T16:09:24Z</time>
      </trkpt>
      <trkpt lat="43.139922" lon="-9.151404">
        <ele>14.663</ele>
        <time>2019-06-21T16:09:25Z</time>
      </trkpt>
      <trkpt lat="43.139741" lon="-9.151244">
        <ele>12.675</ele>
        <time>2019-06-21T16:09:26Z</time>
      </trkpt>
      <trkpt lat="43.139574" lon="-9.151083">
        <ele>11.492</ele>
        <time>2019-06-21T16:09:27Z</time>
      </trkpt>
      <trkpt lat="43.139401" lon="-9.150918">
        <ele>10.588</ele>
        <time>2019-06-21T16:09:28Z</time>
      </trkpt>
      <trkpt lat="43.139245" lon="-9.150751">
        <ele>10.522</ele>
        <time>2019-06-21T16:09:29Z</time>
      </trkpt>
      <trkpt lat="43.139085" lon="-9.150589">
        <ele>10.154</ele>
        <time>2019-06-21T16:09:30Z</time>
      </trkpt>
      <trkpt lat="43.138939" lon="-9.150421">
        <ele>10.093</ele>
        <time>2019-06-21T16:09:31Z</time>
      </trkpt>
      <trkpt lat="43.138811" lon="-9.150239">
        <ele>9.465</ele>
        <time>2019-06-21T16:09:32Z</time>
      </trkpt>
      <trkpt lat="43.138698" lon="-9.150044">
        <ele>8.621</ele>
        <time>2019-06-21T16:09:33Z</time>
      </trkpt>
      <trkpt lat="43.138589" lon="-9.149841">
        <ele>6.608</ele>
        <time>2019-06-21T16:09:34Z</time>
      </trkpt>
      <trkpt lat="43.138500" lon="-9.149623">
        <ele>5.362</ele>
        <time>2019-06-21T16:09:35Z</time>
      </trkpt>
      <trkpt lat="43.138415" lon="-9.149414">
        <ele>5.446</ele>
        <time>2019-06-21T16:09:36Z</time>
      </trkpt>
      <trkpt lat="43.138312" lon="-9.149195">
        <ele>6.028</ele>
        <time>2019-06-21T16:09:37Z</time>
      </trkpt>
      <trkpt lat="43.138197" lon="-9.149007">
        <ele>7.670</ele>
        <time>2019-06-21T16:09:38Z</time>
      </trkpt>
      <trkpt lat="43.138065" lon="-9.148852">
        <ele>9.127</ele>
        <time>2019-06-21T16:09:39Z</time>
      </trkpt>
      <trkpt lat="43.137915" lon="-9.148711">
        <ele>10.173</ele>
        <time>2019-06-21T16:09:40Z</time>
      </trkpt>
      <trkpt lat="43.137737" lon="-9.148605">
        <ele>11.067</ele>
        <time>2019-06-21T16:09:41Z</time>
      </trkpt>
      <trkpt lat="43.137553" lon="-9.148508">
        <ele>11.779</ele>
        <time>2019-06-21T16:09:42Z</time>
      </trkpt>
      <trkpt lat="43.137358" lon="-9.148407">
        <ele>12.611</ele>
        <time>2019-06-21T16:09:43Z</time>
      </trkpt>
      <trkpt lat="43.137176" lon="-9.148301">
        <ele>13.521</ele>
        <time>2019-06-21T16:09:44Z</time>
      </trkpt>
      <trkpt lat="43.136990" lon="-9.148200">
        <ele>14.903</ele>
        <time>2019-06-21T16:09:45Z</time>
      </trkpt>
      <trkpt lat="43.136800" lon="-9.148105">
        <ele>15.008</ele>
        <time>2019-06-21T16:09:46Z</time>
      </trkpt>
      <trkpt lat="43.136625" lon="-9.147999">
        <ele>15.544</ele>
        <time>2019-06-21T16:09:47Z</time>
      </trkpt>
      <trkpt lat="43.136458" lon="-9.147894">
        <ele>16.468</ele>
        <time>2019-06-21T16:09:48Z</time>
      </trkpt>
      <trkpt lat="43.136307" lon="-9.147768">
        <ele>18.450</ele>
        <time>2019-06-21T16:09:49Z</time>
      </trkpt>
      <trkpt lat="43.136170" lon="-9.147624">
        <ele>19.952</ele>
        <time>2019-06-21T16:09:50Z</time>
      </trkpt>
      <trkpt lat="43.136036" lon="-9.147456">
        <ele>21.339</ele>
        <time>2019-06-21T16:09:51Z</time>
      </trkpt>
      <trkpt lat="43.135932" lon="-9.147246">
        <ele>22.265</ele>
        <time>2019-06-21T16:09:52Z</time>
      </trkpt>
      <trkpt lat="43.135847" lon="-9.147018">
        <ele>22.869</ele>
        <time>2019-06-21T16:09:53Z</time>
      </trkpt>
      <trkpt lat="43.135771" lon="-9.146781">
        <ele>22.241</ele>
        <time>2019-06-21T16:09:54Z</time>
      </trkpt>
      <trkpt lat="43.135698" lon="-9.146539">
        <ele>22.045</ele>
        <time>2019-06-21T16:09:55Z</time>
      </trkpt>
      <trkpt lat="43.135627" lon="-9.146284">
        <ele>22.447</ele>
        <time>2019-06-21T16:09:56Z</time>
      </trkpt>
      <trkpt lat="43.135553" lon="-9.146025">
        <ele>23.611</ele>
        <time>2019-06-21T16:09:57Z</time>
      </trkpt>
      <trkpt lat="43.135477" lon="-9.145767">
        <ele>24.908</ele>
        <time>2019-06-21T16:09:58Z</time>
      </trkpt>
      <trkpt lat="43.135407" lon="-9.145518">
        <ele>26.827</ele>
        <time>2019-06-21T16:09:59Z</time>
      </trkpt>
      <trkpt lat="43.135337" lon="-9.145281">
        <ele>28.031</ele>
        <time>2019-06-21T16:10:00Z</time>
      </trkpt>
      <trkpt lat="43.135277" lon="-9.145053">
        <ele>30.213</ele>
        <time>2019-06-21T16:10:01Z</time>
      </trkpt>
      <trkpt lat="43.135218" lon="-9.144819">
        <ele>33.315</ele>
        <time>2019-06-21T16:10:02Z</time>
      </trkpt>
      <trkpt lat="43.135165" lon="-9.144597">
        <ele>36.512</ele>
        <time>2019-06-21T16:10:03Z</time>
      </trkpt>
      <trkpt lat="43.135127" lon="-9.144366">
        <ele>39.628</ele>
        <time>2019-06-21T16:10:04Z</time>
      </trkpt>
      <trkpt lat="43.135105" lon="-9.144134">
        <ele>42.842</ele>
        <time>2019-06-21T16:10:05Z</time>
      </trkpt>
      <trkpt lat="43.135097" lon="-9.143889">
        <ele>44.794</ele>
        <time>2019-06-21T16:10:06Z</time>
      </trkpt>
      <trkpt lat="43.135113" lon="-9.143657">
        <ele>44.771</ele>
        <time>2019-06-21T16:10:07Z</time>
      </trkpt>
      <trkpt lat="43.135151" lon="-9.143447">
        <ele>43.941</ele>
        <time>2019-06-21T16:10:08Z</time>
      </trkpt>
      <trkpt lat="43.135196" lon="-9.143250">
        <ele>42.915</ele>
        <time>2019-06-21T16:10:09Z</time>
      </trkpt>
      <trkpt lat="43.135258" lon="-9.143072">
        <ele>42.008</ele>
        <time>2019-06-21T16:10:10Z</time>
      </trkpt>
      <trkpt lat="43.135354" lon="-9.142911">
        <ele>40.860</ele>
        <time>2019-06-21T16:10:11Z</time>
      </trkpt>
      <trkpt lat="43.135429" lon="-9.142774">
        <ele>39.414</ele>
        <time>2019-06-21T16:10:12Z</time>
      </trkpt>
      <trkpt lat="43.135497" lon="-9.142640">
        <ele>38.226</ele>
        <time>2019-06-21T16:10:13Z</time>
      </trkpt>
      <trkpt lat="43.135583" lon="-9.142488">
        <ele>36.798</ele>
        <time>2019-06-21T16:10:14Z</time>
      </trkpt>
      <trkpt lat="43.135669" lon="-9.142345">
        <ele>34.625</ele>
        <time>2019-06-21T16:10:15Z</time>
      </trkpt>
      <trkpt lat="43.135748" lon="-9.142212">
        <ele>32.831</ele>
        <time>2019-06-21T16:10:16Z</time>
      </trkpt>
      <trkpt lat="43.135831" lon="-9.142071">
        <ele>30.825</ele>
        <time>2019-06-21T16:10:17Z</time>
      </trkpt>
      <trkpt lat="43.135907" lon="-9.141919">
        <ele>29.787</ele>
        <time>2019-06-21T16:10:18Z</time>
      </trkpt>
      <trkpt lat="43.135984" lon="-9.141777">
        <ele>29.167</ele>
        <time>2019-06-21T16:10:19Z</time>
      </trkpt>
      <trkpt lat="43.136034" lon="-9.141612">
        <ele>27.981</ele>
        <time>2019-06-21T16:10:20Z</time>
      </trkpt>
      <trkpt lat="43.136077" lon="-9.141436">
        <ele>26.219</ele>
        <time>2019-06-21T16:10:21Z</time>
      </trkpt>
      <trkpt lat="43.136110" lon="-9.141244">
        <ele>24.908</ele>
        <time>2019-06-21T16:10:22Z</time>
      </trkpt>
      <trkpt lat="43.136139" lon="-9.141043">
        <ele>23.489</ele>
        <time>2019-06-21T16:10:23Z</time>
      </trkpt>
      <trkpt lat="43.136147" lon="-9.140852">
        <ele>21.013</ele>
        <time>2019-06-21T16:10:24Z</time>
      </trkpt>
      <trkpt lat="43.136153" lon="-9.140657">
        <ele>20.935</ele>
        <time>2019-06-21T16:10:25Z</time>
      </trkpt>
      <trkpt lat="43.136133" lon="-9.140465">
        <ele>21.157</ele>
        <time>2019-06-21T16:10:26Z</time>
      </trkpt>
      <trkpt lat="43.136112" lon="-9.140281">
        <ele>22.014</ele>
        <time>2019-06-21T16:10:27Z</time>
      </trkpt>
      <trkpt lat="43.136085" lon="-9.140107">
        <ele>22.480</ele>
        <time>2019-06-21T16:10:28Z</time>
      </trkpt>
      <trkpt lat="43.136067" lon="-9.139945">
        <ele>22.784</ele>
        <time>2019-06-21T16:10:29Z</time>
      </trkpt>
      <trkpt lat="43.136054" lon="-9.139801">
        <ele>22.676</ele>
        <time>2019-06-21T16:10:30Z</time>
      </trkpt>
      <trkpt lat="43.136049" lon="-9.139645">
        <ele>22.351</ele>
        <time>2019-06-21T16:10:31Z</time>
      </trkpt>
      <trkpt lat="43.136049" lon="-9.139491">
        <ele>21.701</ele>
        <time>2019-06-21T16:10:32Z</time>
      </trkpt>
      <trkpt lat="43.136059" lon="-9.139346">
        <ele>20.911</ele>
        <time>2019-06-21T16:10:33Z</time>
      </trkpt>
      <trkpt lat="43.136077" lon="-9.139192">
        <ele>19.908</ele>
        <time>2019-06-21T16:10:34Z</time>
      </trkpt>
      <trkpt lat="43.136113" lon="-9.139032">
        <ele>19.128</ele>
        <time>2019-06-21T16:10:35Z</time>
      </trkpt>
      <trkpt lat="43.136168" lon="-9.138863">
        <ele>18.942</ele>
        <time>2019-06-21T16:10:36Z</time>
      </trkpt>
      <trkpt lat="43.136232" lon="-9.138680">
        <ele>18.024</ele>
        <time>2019-06-21T16:10:37Z</time>
      </trkpt>
      <trkpt lat="43.136316" lon="-9.138497">
        <ele>17.266</ele>
        <time>2019-06-21T16:10:38Z</time>
      </trkpt>
      <trkpt lat="43.136393" lon="-9.138292">
        <ele>15.873</ele>
        <time>2019-06-21T16:10:39Z</time>
      </trkpt>
      <trkpt lat="43.136479" lon="-9.138095">
        <ele>15.419</ele>
        <time>2019-06-21T16:10:40Z</time>
      </trkpt>
      <trkpt lat="43.136553" lon="-9.137888">
        <ele>14.273</ele>
        <time>2019-06-21T16:10:41Z</time>
      </trkpt>
      <trkpt lat="43.136638" lon="-9.137686">
        <ele>13.195</ele>
        <time>2019-06-21T16:10:42Z</time>
      </trkpt>
      <trkpt lat="43.136729" lon="-9.137469">
        <ele>12.455</ele>
        <time>2019-06-21T16:10:43Z</time>
      </trkpt>
      <trkpt lat="43.136820" lon="-9.137238">
        <ele>11.207</ele>
        <time>2019-06-21T16:10:44Z</time>
      </trkpt>
      <trkpt lat="43.136921" lon="-9.136997">
        <ele>11.817</ele>
        <time>2019-06-21T16:10:45Z</time>
      </trkpt>
      <trkpt lat="43.137003" lon="-9.136747">
        <ele>12.508</ele>
        <time>2019-06-21T16:10:46Z</time>
      </trkpt>
      <trkpt lat="43.137067" lon="-9.136496">
        <ele>11.718</ele>
        <time>2019-06-21T16:10:47Z</time>
      </trkpt>
      <trkpt lat="43.137111" lon="-9.136256">
        <ele>10.772</ele>
        <time>2019-06-21T16:10:48Z</time>
      </trkpt>
      <trkpt lat="43.137146" lon="-9.136001">
        <ele>10.114</ele>
        <time>2019-06-21T16:10:49Z</time>
      </trkpt>
      <trkpt lat="43.137190" lon="-9.135742">
        <ele>9.876</ele>
        <time>2019-06-21T16:10:50Z</time>
      </trkpt>
      <trkpt lat="43.137241" lon="-9.135494">
        <ele>10.193</ele>
        <time>2019-06-21T16:10:51Z</time>
      </trkpt>
      <trkpt lat="43.137287" lon="-9.135240">
        <ele>10.289</ele>
        <time>2019-06-21T16:10:52Z</time>
      </trkpt>
      <trkpt lat="43.137329" lon="-9.134976">
        <ele>10.163</ele>
        <time>2019-06-21T16:10:53Z</time>
      </trkpt>
      <trkpt lat="43.137372" lon="-9.134705">
        <ele>10.165</ele>
        <time>2019-06-21T16:10:54Z</time>
      </trkpt>
      <trkpt lat="43.137414" lon="-9.134435">
        <ele>10.178</ele>
        <time>2019-06-21T16:10:55Z</time>
      </trkpt>
      <trkpt lat="43.137454" lon="-9.134162">
        <ele>10.733</ele>
        <time>2019-06-21T16:10:56Z</time>
      </trkpt>
      <trkpt lat="43.137495" lon="-9.133893">
        <ele>11.926</ele>
        <time>2019-06-21T16:10:57Z</time>
      </trkpt>
      <trkpt lat="43.137530" lon="-9.133624">
        <ele>12.508</ele>
        <time>2019-06-21T16:10:58Z</time>
      </trkpt>
      <trkpt lat="43.137549" lon="-9.133381">
        <ele>12.170</ele>
        <time>2019-06-21T16:10:59Z</time>
      </trkpt>
      <trkpt lat="43.137589" lon="-9.133137">
        <ele>11.714</ele>
        <time>2019-06-21T16:11:00Z</time>
      </trkpt>
      <trkpt lat="43.137630" lon="-9.132899">
        <ele>11.356</ele>
        <time>2019-06-21T16:11:01Z</time>
      </trkpt>
      <trkpt lat="43.137664" lon="-9.132662">
        <ele>10.998</ele>
        <time>2019-06-21T16:11:02Z</time>
      </trkpt>
      <trkpt lat="43.137698" lon="-9.132423">
        <ele>10.535</ele>
        <time>2019-06-21T16:11:03Z</time>
      </trkpt>
      <trkpt lat="43.137706" lon="-9.132180">
        <ele>9.471</ele>
        <time>2019-06-21T16:11:04Z</time>
      </trkpt>
      <trkpt lat="43.137710" lon="-9.131940">
        <ele>8.845</ele>
        <time>2019-06-21T16:11:05Z</time>
      </trkpt>
      <trkpt lat="43.137690" lon="-9.131695">
        <ele>8.497</ele>
        <time>2019-06-21T16:11:06Z</time>
      </trkpt>
      <trkpt lat="43.137654" lon="-9.131455">
        <ele>8.143</ele>
        <time>2019-06-21T16:11:07Z</time>
      </trkpt>
      <trkpt lat="43.137605" lon="-9.131202">
        <ele>8.864</ele>
        <time>2019-06-21T16:11:08Z</time>
      </trkpt>
      <trkpt lat="43.137526" lon="-9.130955">
        <ele>9.710</ele>
        <time>2019-06-21T16:11:09Z</time>
      </trkpt>
      <trkpt lat="43.137421" lon="-9.130725">
        <ele>10.208</ele>
        <time>2019-06-21T16:11:10Z</time>
      </trkpt>
      <trkpt lat="43.137300" lon="-9.130507">
        <ele>11.317</ele>
        <time>2019-06-21T16:11:11Z</time>
      </trkpt>
      <trkpt lat="43.137167" lon="-9.130289">
        <ele>12.751</ele>
        <time>2019-06-21T16:11:12Z</time>
      </trkpt>
      <trkpt lat="43.137035" lon="-9.130092">
        <ele>14.173</ele>
        <time>2019-06-21T16:11:13Z</time>
      </trkpt>
      <trkpt lat="43.136917" lon="-9.129895">
        <ele>16.065</ele>
        <time>2019-06-21T16:11:14Z</time>
      </trkpt>
      <trkpt lat="43.136807" lon="-9.129701">
        <ele>17.662</ele>
        <time>2019-06-21T16:11:15Z</time>
      </trkpt>
      <trkpt lat="43.136717" lon="-9.129507">
        <ele>18.678</ele>
        <time>2019-06-21T16:11:16Z</time>
      </trkpt>
      <trkpt lat="43.136660" lon="-9.129326">
        <ele>19.442</ele>
        <time>2019-06-21T16:11:17Z</time>
      </trkpt>
      <trkpt lat="43.136613" lon="-9.129122">
        <ele>20.084</ele>
        <time>2019-06-21T16:11:18Z</time>
      </trkpt>
      <trkpt lat="43.136584" lon="-9.128945">
        <ele>20.573</ele>
        <time>2019-06-21T16:11:19Z</time>
      </trkpt>
      <trkpt lat="43.136562" lon="-9.128761">
        <ele>20.685</ele>
        <time>2019-06-21T16:11:20Z</time>
      </trkpt>
      <trkpt lat="43.136554" lon="-9.128586">
        <ele>20.613</ele>
        <time>2019-06-21T16:11:21Z</time>
      </trkpt>
      <trkpt lat="43.136561" lon="-9.128405">
        <ele>20.608</ele>
        <time>2019-06-21T16:11:22Z</time>
      </trkpt>
      <trkpt lat="43.136569" lon="-9.128226">
        <ele>20.390</ele>
        <time>2019-06-21T16:11:23Z</time>
      </trkpt>
      <trkpt lat="43.136588" lon="-9.128061">
        <ele>19.764</ele>
        <time>2019-06-21T16:11:24Z</time>
      </trkpt>
      <trkpt lat="43.136609" lon="-9.127909">
        <ele>19.866</ele>
        <time>2019-06-21T16:11:25Z</time>
      </trkpt>
      <trkpt lat="43.136621" lon="-9.127798">
        <ele>19.818</ele>
        <time>2019-06-21T16:11:26Z</time>
      </trkpt>
      <trkpt lat="43.136642" lon="-9.127695">
        <ele>19.995</ele>
        <time>2019-06-21T16:11:27Z</time>
      </trkpt>
      <trkpt lat="43.136668" lon="-9.127609">
        <ele>20.091</ele>
        <time>2019-06-21T16:11:28Z</time>
      </trkpt>
      <trkpt lat="43.136682" lon="-9.127544">
        <ele>20.065</ele>
        <time>2019-06-21T16:11:29Z</time>
      </trkpt>
      <trkpt lat="43.136692" lon="-9.127452">
        <ele>20.257</ele>
        <time>2019-06-21T16:11:31Z</time>
      </trkpt>
      <trkpt lat="43.136722" lon="-9.127358">
        <ele>20.523</ele>
        <time>2019-06-21T16:12:06Z</time>
      </trkpt>
      <trkpt lat="43.136753" lon="-9.127287">
        <ele>20.883</ele>
        <time>2019-06-21T16:12:07Z</time>
      </trkpt>
      <trkpt lat="43.136793" lon="-9.127183">
        <ele>21.111</ele>
        <time>2019-06-21T16:12:08Z</time>
      </trkpt>
      <trkpt lat="43.136827" lon="-9.127069">
        <ele>21.608</ele>
        <time>2019-06-21T16:12:09Z</time>
      </trkpt>
      <trkpt lat="43.136879" lon="-9.126936">
        <ele>22.075</ele>
        <time>2019-06-21T16:12:10Z</time>
      </trkpt>
      <trkpt lat="43.136929" lon="-9.126795">
        <ele>22.599</ele>
        <time>2019-06-21T16:12:11Z</time>
      </trkpt>
      <trkpt lat="43.136979" lon="-9.126637">
        <ele>23.461</ele>
        <time>2019-06-21T16:12:12Z</time>
      </trkpt>
      <trkpt lat="43.137031" lon="-9.126477">
        <ele>24.373</ele>
        <time>2019-06-21T16:12:13Z</time>
      </trkpt>
      <trkpt lat="43.137078" lon="-9.126290">
        <ele>25.050</ele>
        <time>2019-06-21T16:12:14Z</time>
      </trkpt>
      <trkpt lat="43.137131" lon="-9.126096">
        <ele>25.316</ele>
        <time>2019-06-21T16:12:15Z</time>
      </trkpt>
      <trkpt lat="43.137187" lon="-9.125894">
        <ele>25.610</ele>
        <time>2019-06-21T16:12:16Z</time>
      </trkpt>
      <trkpt lat="43.137250" lon="-9.125685">
        <ele>25.132</ele>
        <time>2019-06-21T16:12:17Z</time>
      </trkpt>
      <trkpt lat="43.137317" lon="-9.125470">
        <ele>24.491</ele>
        <time>2019-06-21T16:12:18Z</time>
      </trkpt>
      <trkpt lat="43.137383" lon="-9.125251">
        <ele>24.281</ele>
        <time>2019-06-21T16:12:19Z</time>
      </trkpt>
      <trkpt lat="43.137441" lon="-9.125032">
        <ele>24.619</ele>
        <time>2019-06-21T16:12:20Z</time>
      </trkpt>
      <trkpt lat="43.137508" lon="-9.124806">
        <ele>25.008</ele>
        <time>2019-06-21T16:12:21Z</time>
      </trkpt>
      <trkpt lat="43.137577" lon="-9.124573">
        <ele>25.312</ele>
        <time>2019-06-21T16:12:22Z</time>
      </trkpt>
      <trkpt lat="43.137653" lon="-9.124337">
        <ele>25.656</ele>
        <time>2019-06-21T16:12:23Z</time>
      </trkpt>
      <trkpt lat="43.137724" lon="-9.124105">
        <ele>25.678</ele>
        <time>2019-06-21T16:12:24Z</time>
      </trkpt>
      <trkpt lat="43.137795" lon="-9.123862">
        <ele>24.920</ele>
        <time>2019-06-21T16:12:25Z</time>
      </trkpt>
      <trkpt lat="43.137870" lon="-9.123623">
        <ele>24.057</ele>
        <time>2019-06-21T16:12:26Z</time>
      </trkpt>
      <trkpt lat="43.137946" lon="-9.123386">
        <ele>23.283</ele>
        <time>2019-06-21T16:12:27Z</time>
      </trkpt>
      <trkpt lat="43.138013" lon="-9.123150">
        <ele>22.987</ele>
        <time>2019-06-21T16:12:28Z</time>
      </trkpt>
      <trkpt lat="43.138076" lon="-9.122930">
        <ele>23.159</ele>
        <time>2019-06-21T16:12:29Z</time>
      </trkpt>
      <trkpt lat="43.138135" lon="-9.122726">
        <ele>23.299</ele>
        <time>2019-06-21T16:12:30Z</time>
      </trkpt>
      <trkpt lat="43.138192" lon="-9.122516">
        <ele>22.607</ele>
        <time>2019-06-21T16:12:31Z</time>
      </trkpt>
      <trkpt lat="43.138241" lon="-9.122307">
        <ele>21.227</ele>
        <time>2019-06-21T16:12:32Z</time>
      </trkpt>
      <trkpt lat="43.138301" lon="-9.122100">
        <ele>19.408</ele>
        <time>2019-06-21T16:12:33Z</time>
      </trkpt>
      <trkpt lat="43.138360" lon="-9.121892">
        <ele>17.482</ele>
        <time>2019-06-21T16:12:34Z</time>
      </trkpt>
      <trkpt lat="43.138418" lon="-9.121701">
        <ele>15.976</ele>
        <time>2019-06-21T16:12:35Z</time>
      </trkpt>
      <trkpt lat="43.138479" lon="-9.121500">
        <ele>14.628</ele>
        <time>2019-06-21T16:12:36Z</time>
      </trkpt>
      <trkpt lat="43.138541" lon="-9.121306">
        <ele>13.840</ele>
        <time>2019-06-21T16:12:37Z</time>
      </trkpt>
      <trkpt lat="43.138593" lon="-9.121114">
        <ele>13.197</ele>
        <time>2019-06-21T16:12:38Z</time>
      </trkpt>
      <trkpt lat="43.138636" lon="-9.120922">
        <ele>13.023</ele>
        <time>2019-06-21T16:12:39Z</time>
      </trkpt>
      <trkpt lat="43.138651" lon="-9.120734">
        <ele>13.057</ele>
        <time>2019-06-21T16:12:40Z</time>
      </trkpt>
      <trkpt lat="43.138656" lon="-9.120531">
        <ele>12.919</ele>
        <time>2019-06-21T16:12:41Z</time>
      </trkpt>
      <trkpt lat="43.138641" lon="-9.120318">
        <ele>12.146</ele>
        <time>2019-06-21T16:12:42Z</time>
      </trkpt>
      <trkpt lat="43.138617" lon="-9.120090">
        <ele>11.388</ele>
        <time>2019-06-21T16:12:43Z</time>
      </trkpt>
      <trkpt lat="43.138585" lon="-9.119863">
        <ele>10.516</ele>
        <time>2019-06-21T16:12:44Z</time>
      </trkpt>
      <trkpt lat="43.138549" lon="-9.119641">
        <ele>9.708</ele>
        <time>2019-06-21T16:12:45Z</time>
      </trkpt>
      <trkpt lat="43.138523" lon="-9.119430">
        <ele>9.077</ele>
        <time>2019-06-21T16:12:46Z</time>
      </trkpt>
      <trkpt lat="43.138493" lon="-9.119218">
        <ele>9.071</ele>
        <time>2019-06-21T16:12:47Z</time>
      </trkpt>
      <trkpt lat="43.138454" lon="-9.119002">
        <ele>9.623</ele>
        <time>2019-06-21T16:12:48Z</time>
      </trkpt>
      <trkpt lat="43.138398" lon="-9.118807">
        <ele>10.295</ele>
        <time>2019-06-21T16:12:49Z</time>
      </trkpt>
      <trkpt lat="43.138341" lon="-9.118616">
        <ele>11.062</ele>
        <time>2019-06-21T16:12:50Z</time>
      </trkpt>
      <trkpt lat="43.138262" lon="-9.118417">
        <ele>11.028</ele>
        <time>2019-06-21T16:12:51Z</time>
      </trkpt>
      <trkpt lat="43.138179" lon="-9.118229">
        <ele>10.892</ele>
        <time>2019-06-21T16:12:52Z</time>
      </trkpt>
      <trkpt lat="43.138072" lon="-9.118069">
        <ele>10.964</ele>
        <time>2019-06-21T16:12:53Z</time>
      </trkpt>
      <trkpt lat="43.137985" lon="-9.117903">
        <ele>11.394</ele>
        <time>2019-06-21T16:12:54Z</time>
      </trkpt>
      <trkpt lat="43.137897" lon="-9.117744">
        <ele>11.657</ele>
        <time>2019-06-21T16:12:55Z</time>
      </trkpt>
      <trkpt lat="43.137809" lon="-9.117634">
        <ele>12.322</ele>
        <time>2019-06-21T16:12:56Z</time>
      </trkpt>
      <trkpt lat="43.137727" lon="-9.117514">
        <ele>13.108</ele>
        <time>2019-06-21T16:12:57Z</time>
      </trkpt>
      <trkpt lat="43.137656" lon="-9.117406">
        <ele>13.852</ele>
        <time>2019-06-21T16:12:58Z</time>
      </trkpt>
      <trkpt lat="43.137590" lon="-9.117313">
        <ele>14.316</ele>
        <time>2019-06-21T16:12:59Z</time>
      </trkpt>
      <trkpt lat="43.137544" lon="-9.117210">
        <ele>14.898</ele>
        <time>2019-06-21T16:13:00Z</time>
      </trkpt>
      <trkpt lat="43.137495" lon="-9.117109">
        <ele>14.520</ele>
        <time>2019-06-21T16:13:01Z</time>
      </trkpt>
      <trkpt lat="43.137488" lon="-9.116990">
        <ele>14.087</ele>
        <time>2019-06-21T16:13:02Z</time>
      </trkpt>
      <trkpt lat="43.137487" lon="-9.116883">
        <ele>13.323</ele>
        <time>2019-06-21T16:13:03Z</time>
      </trkpt>
      <trkpt lat="43.137515" lon="-9.116770">
        <ele>12.817</ele>
        <time>2019-06-21T16:13:04Z</time>
      </trkpt>
      <trkpt lat="43.137546" lon="-9.116659">
        <ele>12.389</ele>
        <time>2019-06-21T16:13:05Z</time>
      </trkpt>
      <trkpt lat="43.137576" lon="-9.116539">
        <ele>12.458</ele>
        <time>2019-06-21T16:13:06Z</time>
      </trkpt>
      <trkpt lat="43.137668" lon="-9.116390">
        <ele>12.652</ele>
        <time>2019-06-21T16:13:07Z</time>
      </trkpt>
      <trkpt lat="43.137724" lon="-9.116271">
        <ele>12.017</ele>
        <time>2019-06-21T16:13:08Z</time>
      </trkpt>
      <trkpt lat="43.137793" lon="-9.116128">
        <ele>11.108</ele>
        <time>2019-06-21T16:13:09Z</time>
      </trkpt>
      <trkpt lat="43.137860" lon="-9.116062">
        <ele>10.668</ele>
        <time>2019-06-21T16:13:10Z</time>
      </trkpt>
      <trkpt lat="43.137889" lon="-9.115980">
        <ele>10.112</ele>
        <time>2019-06-21T16:13:11Z</time>
      </trkpt>
      <trkpt lat="43.137950" lon="-9.115905">
        <ele>9.594</ele>
        <time>2019-06-21T16:13:12Z</time>
      </trkpt>
      <trkpt lat="43.137975" lon="-9.115840">
        <ele>9.096</ele>
        <time>2019-06-21T16:13:13Z</time>
      </trkpt>
      <trkpt lat="43.137978" lon="-9.115764">
        <ele>7.873</ele>
        <time>2019-06-21T16:13:14Z</time>
      </trkpt>
      <trkpt lat="43.137972" lon="-9.115683">
        <ele>6.379</ele>
        <time>2019-06-21T16:13:15Z</time>
      </trkpt>
      <trkpt lat="43.137930" lon="-9.115558">
        <ele>4.083</ele>
        <time>2019-06-21T16:13:16Z</time>
      </trkpt>
      <trkpt lat="43.137902" lon="-9.115454">
        <ele>2.755</ele>
        <time>2019-06-21T16:13:17Z</time>
      </trkpt>
      <trkpt lat="43.137862" lon="-9.115341">
        <ele>0.865</ele>
        <time>2019-06-21T16:13:18Z</time>
      </trkpt>
      <trkpt lat="43.137816" lon="-9.115234">
        <ele>-0.668</ele>
        <time>2019-06-21T16:13:19Z</time>
      </trkpt>
      <trkpt lat="43.137796" lon="-9.115141">
        <ele>-0.814</ele>
        <time>2019-06-21T16:13:20Z</time>
      </trkpt>
      <trkpt lat="43.137755" lon="-9.115045">
        <ele>-0.808</ele>
        <time>2019-06-21T16:13:21Z</time>
      </trkpt>
      <trkpt lat="43.137707" lon="-9.114953">
        <ele>-0.269</ele>
        <time>2019-06-21T16:13:22Z</time>
      </trkpt>
      <trkpt lat="43.137655" lon="-9.114867">
        <ele>0.533</ele>
        <time>2019-06-21T16:13:23Z</time>
      </trkpt>
      <trkpt lat="43.137597" lon="-9.114813">
        <ele>1.425</ele>
        <time>2019-06-21T16:13:24Z</time>
      </trkpt>
      <trkpt lat="43.137519" lon="-9.114788">
        <ele>2.537</ele>
        <time>2019-06-21T16:13:25Z</time>
      </trkpt>
      <trkpt lat="43.137453" lon="-9.114781">
        <ele>3.174</ele>
        <time>2019-06-21T16:13:26Z</time>
      </trkpt>
      <trkpt lat="43.137384" lon="-9.114777">
        <ele>3.610</ele>
        <time>2019-06-21T16:13:27Z</time>
      </trkpt>
      <trkpt lat="43.137334" lon="-9.114813">
        <ele>3.714</ele>
        <time>2019-06-21T16:13:28Z</time>
      </trkpt>
      <trkpt lat="43.137260" lon="-9.114908">
        <ele>3.546</ele>
        <time>2019-06-21T16:13:29Z</time>
      </trkpt>
      <trkpt lat="43.137166" lon="-9.115017">
        <ele>3.429</ele>
        <time>2019-06-21T16:13:30Z</time>
      </trkpt>
      <trkpt lat="43.137088" lon="-9.115067">
        <ele>3.900</ele>
        <time>2019-06-21T16:13:31Z</time>
      </trkpt>
      <trkpt lat="43.137017" lon="-9.115143">
        <ele>4.120</ele>
        <time>2019-06-21T16:13:32Z</time>
      </trkpt>
      <trkpt lat="43.136917" lon="-9.115246">
        <ele>4.308</ele>
        <time>2019-06-21T16:13:33Z</time>
      </trkpt>
      <trkpt lat="43.136835" lon="-9.115337">
        <ele>4.735</ele>
        <time>2019-06-21T16:13:34Z</time>
      </trkpt>
      <trkpt lat="43.136754" lon="-9.115424">
        <ele>5.019</ele>
        <time>2019-06-21T16:13:35Z</time>
      </trkpt>
      <trkpt lat="43.136667" lon="-9.115522">
        <ele>5.191</ele>
        <time>2019-06-21T16:13:36Z</time>
      </trkpt>
      <trkpt lat="43.136580" lon="-9.115625">
        <ele>5.223</ele>
        <time>2019-06-21T16:13:37Z</time>
      </trkpt>
      <trkpt lat="43.136504" lon="-9.115715">
        <ele>5.210</ele>
        <time>2019-06-21T16:13:38Z</time>
      </trkpt>
      <trkpt lat="43.136420" lon="-9.115806">
        <ele>5.176</ele>
        <time>2019-06-21T16:13:39Z</time>
      </trkpt>
      <trkpt lat="43.136326" lon="-9.115902">
        <ele>4.950</ele>
        <time>2019-06-21T16:13:40Z</time>
      </trkpt>
      <trkpt lat="43.136240" lon="-9.115995">
        <ele>4.612</ele>
        <time>2019-06-21T16:13:41Z</time>
      </trkpt>
      <trkpt lat="43.136168" lon="-9.116087">
        <ele>4.285</ele>
        <time>2019-06-21T16:13:42Z</time>
      </trkpt>
      <trkpt lat="43.136094" lon="-9.116200">
        <ele>3.489</ele>
        <time>2019-06-21T16:13:43Z</time>
      </trkpt>
      <trkpt lat="43.136023" lon="-9.116321">
        <ele>3.017</ele>
        <time>2019-06-21T16:13:44Z</time>
      </trkpt>
      <trkpt lat="43.135967" lon="-9.116460">
        <ele>3.008</ele>
        <time>2019-06-21T16:13:45Z</time>
      </trkpt>
      <trkpt lat="43.135907" lon="-9.116581">
        <ele>3.521</ele>
        <time>2019-06-21T16:13:46Z</time>
      </trkpt>
      <trkpt lat="43.135856" lon="-9.116721">
        <ele>3.965</ele>
        <time>2019-06-21T16:13:47Z</time>
      </trkpt>
      <trkpt lat="43.135803" lon="-9.116863">
        <ele>4.077</ele>
        <time>2019-06-21T16:13:48Z</time>
      </trkpt>
      <trkpt lat="43.135741" lon="-9.117019">
        <ele>4.059</ele>
        <time>2019-06-21T16:13:49Z</time>
      </trkpt>
      <trkpt lat="43.135689" lon="-9.117182">
        <ele>4.056</ele>
        <time>2019-06-21T16:13:50Z</time>
      </trkpt>
      <trkpt lat="43.135641" lon="-9.117349">
        <ele>3.552</ele>
        <time>2019-06-21T16:13:51Z</time>
      </trkpt>
      <trkpt lat="43.135604" lon="-9.117519">
        <ele>2.976</ele>
        <time>2019-06-21T16:13:52Z</time>
      </trkpt>
      <trkpt lat="43.135553" lon="-9.117695">
        <ele>1.618</ele>
        <time>2019-06-21T16:13:53Z</time>
      </trkpt>
      <trkpt lat="43.135492" lon="-9.117865">
        <ele>0.766</ele>
        <time>2019-06-21T16:13:54Z</time>
      </trkpt>
      <trkpt lat="43.135428" lon="-9.118043">
        <ele>-0.029</ele>
        <time>2019-06-21T16:13:55Z</time>
      </trkpt>
      <trkpt lat="43.135367" lon="-9.118216">
        <ele>0.221</ele>
        <time>2019-06-21T16:13:56Z</time>
      </trkpt>
      <trkpt lat="43.135319" lon="-9.118394">
        <ele>0.608</ele>
        <time>2019-06-21T16:13:57Z</time>
      </trkpt>
      <trkpt lat="43.135258" lon="-9.118562">
        <ele>1.299</ele>
        <time>2019-06-21T16:13:58Z</time>
      </trkpt>
      <trkpt lat="43.135183" lon="-9.118745">
        <ele>1.513</ele>
        <time>2019-06-21T16:13:59Z</time>
      </trkpt>
      <trkpt lat="43.135094" lon="-9.118924">
        <ele>1.935</ele>
        <time>2019-06-21T16:14:00Z</time>
      </trkpt>
      <trkpt lat="43.134992" lon="-9.119096">
        <ele>1.647</ele>
        <time>2019-06-21T16:14:01Z</time>
      </trkpt>
      <trkpt lat="43.134913" lon="-9.119256">
        <ele>1.884</ele>
        <time>2019-06-21T16:14:02Z</time>
      </trkpt>
      <trkpt lat="43.134815" lon="-9.119431">
        <ele>2.440</ele>
        <time>2019-06-21T16:14:03Z</time>
      </trkpt>
      <trkpt lat="43.134719" lon="-9.119608">
        <ele>2.464</ele>
        <time>2019-06-21T16:14:04Z</time>
      </trkpt>
      <trkpt lat="43.134628" lon="-9.119782">
        <ele>2.956</ele>
        <time>2019-06-21T16:14:05Z</time>
      </trkpt>
      <trkpt lat="43.134525" lon="-9.119956">
        <ele>2.952</ele>
        <time>2019-06-21T16:14:06Z</time>
      </trkpt>
      <trkpt lat="43.134426" lon="-9.120125">
        <ele>2.653</ele>
        <time>2019-06-21T16:14:07Z</time>
      </trkpt>
      <trkpt lat="43.134330" lon="-9.120292">
        <ele>2.808</ele>
        <time>2019-06-21T16:14:08Z</time>
      </trkpt>
      <trkpt lat="43.134235" lon="-9.120456">
        <ele>3.008</ele>
        <time>2019-06-21T16:14:09Z</time>
      </trkpt>
      <trkpt lat="43.134135" lon="-9.120619">
        <ele>3.548</ele>
        <time>2019-06-21T16:14:10Z</time>
      </trkpt>
      <trkpt lat="43.134039" lon="-9.120777">
        <ele>4.842</ele>
        <time>2019-06-21T16:14:11Z</time>
      </trkpt>
      <trkpt lat="43.133951" lon="-9.120928">
        <ele>5.354</ele>
        <time>2019-06-21T16:14:12Z</time>
      </trkpt>
      <trkpt lat="43.133868" lon="-9.121078">
        <ele>5.376</ele>
        <time>2019-06-21T16:14:13Z</time>
      </trkpt>
      <trkpt lat="43.133776" lon="-9.121233">
        <ele>5.083</ele>
        <time>2019-06-21T16:14:14Z</time>
      </trkpt>
      <trkpt lat="43.133695" lon="-9.121393">
        <ele>4.099</ele>
        <time>2019-06-21T16:14:15Z</time>
      </trkpt>
      <trkpt lat="43.133610" lon="-9.121563">
        <ele>2.873</ele>
        <time>2019-06-21T16:14:16Z</time>
      </trkpt>
      <trkpt lat="43.133526" lon="-9.121740">
        <ele>1.845</ele>
        <time>2019-06-21T16:14:17Z</time>
      </trkpt>
      <trkpt lat="43.133443" lon="-9.121921">
        <ele>0.555</ele>
        <time>2019-06-21T16:14:18Z</time>
      </trkpt>
      <trkpt lat="43.133363" lon="-9.122105">
        <ele>0.107</ele>
        <time>2019-06-21T16:14:19Z</time>
      </trkpt>
      <trkpt lat="43.133289" lon="-9.122291">
        <ele>0.517</ele>
        <time>2019-06-21T16:14:20Z</time>
      </trkpt>
      <trkpt lat="43.133216" lon="-9.122477">
        <ele>1.708</ele>
        <time>2019-06-21T16:14:21Z</time>
      </trkpt>
      <trkpt lat="43.133144" lon="-9.122657">
        <ele>3.578</ele>
        <time>2019-06-21T16:14:22Z</time>
      </trkpt>
      <trkpt lat="43.133069" lon="-9.122835">
        <ele>5.132</ele>
        <time>2019-06-21T16:14:23Z</time>
      </trkpt>
      <trkpt lat="43.132994" lon="-9.123026">
        <ele>7.434</ele>
        <time>2019-06-21T16:14:24Z</time>
      </trkpt>
      <trkpt lat="43.132915" lon="-9.123206">
        <ele>10.126</ele>
        <time>2019-06-21T16:14:25Z</time>
      </trkpt>
      <trkpt lat="43.132836" lon="-9.123378">
        <ele>12.443</ele>
        <time>2019-06-21T16:14:26Z</time>
      </trkpt>
      <trkpt lat="43.132765" lon="-9.123547">
        <ele>13.589</ele>
        <time>2019-06-21T16:14:27Z</time>
      </trkpt>
      <trkpt lat="43.132696" lon="-9.123711">
        <ele>12.573</ele>
        <time>2019-06-21T16:14:28Z</time>
      </trkpt>
      <trkpt lat="43.132631" lon="-9.123867">
        <ele>11.155</ele>
        <time>2019-06-21T16:14:29Z</time>
      </trkpt>
      <trkpt lat="43.132563" lon="-9.124016">
        <ele>9.824</ele>
        <time>2019-06-21T16:14:30Z</time>
      </trkpt>
      <trkpt lat="43.132505" lon="-9.124164">
        <ele>7.904</ele>
        <time>2019-06-21T16:14:31Z</time>
      </trkpt>
      <trkpt lat="43.132448" lon="-9.124315">
        <ele>7.014</ele>
        <time>2019-06-21T16:14:32Z</time>
      </trkpt>
      <trkpt lat="43.132384" lon="-9.124456">
        <ele>6.308</ele>
        <time>2019-06-21T16:14:33Z</time>
      </trkpt>
      <trkpt lat="43.132352" lon="-9.124602">
        <ele>6.685</ele>
        <time>2019-06-21T16:14:34Z</time>
      </trkpt>
      <trkpt lat="43.132321" lon="-9.124755">
        <ele>7.179</ele>
        <time>2019-06-21T16:14:35Z</time>
      </trkpt>
      <trkpt lat="43.132288" lon="-9.124880">
        <ele>7.931</ele>
        <time>2019-06-21T16:14:36Z</time>
      </trkpt>
      <trkpt lat="43.132246" lon="-9.125002">
        <ele>8.773</ele>
        <time>2019-06-21T16:14:37Z</time>
      </trkpt>
      <trkpt lat="43.132201" lon="-9.125112">
        <ele>9.180</ele>
        <time>2019-06-21T16:14:38Z</time>
      </trkpt>
      <trkpt lat="43.132144" lon="-9.125208">
        <ele>9.466</ele>
        <time>2019-06-21T16:14:39Z</time>
      </trkpt>
      <trkpt lat="43.132100" lon="-9.125296">
        <ele>9.420</ele>
        <time>2019-06-21T16:14:40Z</time>
      </trkpt>
      <trkpt lat="43.132052" lon="-9.125366">
        <ele>9.662</ele>
        <time>2019-06-21T16:14:41Z</time>
      </trkpt>
      <trkpt lat="43.131988" lon="-9.125414">
        <ele>9.893</ele>
        <time>2019-06-21T16:14:42Z</time>
      </trkpt>
      <trkpt lat="43.131918" lon="-9.125450">
        <ele>10.065</ele>
        <time>2019-06-21T16:14:43Z</time>
      </trkpt>
      <trkpt lat="43.131847" lon="-9.125477">
        <ele>10.121</ele>
        <time>2019-06-21T16:14:44Z</time>
      </trkpt>
      <trkpt lat="43.131793" lon="-9.125532">
        <ele>10.008</ele>
        <time>2019-06-21T16:14:45Z</time>
      </trkpt>
      <trkpt lat="43.131744" lon="-9.125607">
        <ele>9.912</ele>
        <time>2019-06-21T16:14:46Z</time>
      </trkpt>
      <trkpt lat="43.131693" lon="-9.125683">
        <ele>10.086</ele>
        <time>2019-06-21T16:14:47Z</time>
      </trkpt>
      <trkpt lat="43.131647" lon="-9.125768">
        <ele>10.088</ele>
        <time>2019-06-21T16:14:48Z</time>
      </trkpt>
      <trkpt lat="43.131601" lon="-9.125848">
        <ele>10.020</ele>
        <time>2019-06-21T16:14:49Z</time>
      </trkpt>
      <trkpt lat="43.131557" lon="-9.125953">
        <ele>10.057</ele>
        <time>2019-06-21T16:14:50Z</time>
      </trkpt>
      <trkpt lat="43.131544" lon="-9.126057">
        <ele>10.033</ele>
        <time>2019-06-21T16:14:51Z</time>
      </trkpt>
      <trkpt lat="43.131511" lon="-9.126165">
        <ele>9.847</ele>
        <time>2019-06-21T16:14:52Z</time>
      </trkpt>
      <trkpt lat="43.131490" lon="-9.126281">
        <ele>9.469</ele>
        <time>2019-06-21T16:14:53Z</time>
      </trkpt>
      <trkpt lat="43.131466" lon="-9.126375">
        <ele>9.118</ele>
        <time>2019-06-21T16:14:54Z</time>
      </trkpt>
      <trkpt lat="43.131442" lon="-9.126476">
        <ele>8.498</ele>
        <time>2019-06-21T16:14:55Z</time>
      </trkpt>
      <trkpt lat="43.131413" lon="-9.126567">
        <ele>7.817</ele>
        <time>2019-06-21T16:14:56Z</time>
      </trkpt>
      <trkpt lat="43.131390" lon="-9.126653">
        <ele>7.108</ele>
        <time>2019-06-21T16:14:57Z</time>
      </trkpt>
      <trkpt lat="43.131374" lon="-9.126745">
        <ele>7.044</ele>
        <time>2019-06-21T16:14:58Z</time>
      </trkpt>
      <trkpt lat="43.131389" lon="-9.126880">
        <ele>7.018</ele>
        <time>2019-06-21T16:14:59Z</time>
      </trkpt>
      <trkpt lat="43.131393" lon="-9.127012">
        <ele>7.370</ele>
        <time>2019-06-21T16:15:00Z</time>
      </trkpt>
      <trkpt lat="43.131390" lon="-9.127134">
        <ele>7.712</ele>
        <time>2019-06-21T16:15:01Z</time>
      </trkpt>
      <trkpt lat="43.131371" lon="-9.127256">
        <ele>8.479</ele>
        <time>2019-06-21T16:15:02Z</time>
      </trkpt>
      <trkpt lat="43.131340" lon="-9.127368">
        <ele>9.895</ele>
        <time>2019-06-21T16:15:03Z</time>
      </trkpt>
      <trkpt lat="43.131300" lon="-9.127454">
        <ele>11.119</ele>
        <time>2019-06-21T16:15:04Z</time>
      </trkpt>
      <trkpt lat="43.131237" lon="-9.127529">
        <ele>12.691</ele>
        <time>2019-06-21T16:15:05Z</time>
      </trkpt>
      <trkpt lat="43.131170" lon="-9.127553">
        <ele>13.547</ele>
        <time>2019-06-21T16:15:06Z</time>
      </trkpt>
      <trkpt lat="43.131081" lon="-9.127550">
        <ele>14.129</ele>
        <time>2019-06-21T16:15:07Z</time>
      </trkpt>
      <trkpt lat="43.130988" lon="-9.127551">
        <ele>14.821</ele>
        <time>2019-06-21T16:15:08Z</time>
      </trkpt>
      <trkpt lat="43.130890" lon="-9.127566">
        <ele>15.808</ele>
        <time>2019-06-21T16:15:09Z</time>
      </trkpt>
      <trkpt lat="43.130781" lon="-9.127611">
        <ele>17.247</ele>
        <time>2019-06-21T16:15:10Z</time>
      </trkpt>
      <trkpt lat="43.130667" lon="-9.127659">
        <ele>18.541</ele>
        <time>2019-06-21T16:15:11Z</time>
      </trkpt>
      <trkpt lat="43.130543" lon="-9.127695">
        <ele>19.653</ele>
        <time>2019-06-21T16:15:12Z</time>
      </trkpt>
      <trkpt lat="43.130406" lon="-9.127724">
        <ele>21.275</ele>
        <time>2019-06-21T16:15:13Z</time>
      </trkpt>
      <trkpt lat="43.130268" lon="-9.127744">
        <ele>22.722</ele>
        <time>2019-06-21T16:15:14Z</time>
      </trkpt>
      <trkpt lat="43.130125" lon="-9.127768">
        <ele>26.258</ele>
        <time>2019-06-21T16:15:15Z</time>
      </trkpt>
      <trkpt lat="43.129965" lon="-9.127807">
        <ele>29.592</ele>
        <time>2019-06-21T16:15:16Z</time>
      </trkpt>
      <trkpt lat="43.129824" lon="-9.127827">
        <ele>31.114</ele>
        <time>2019-06-21T16:15:17Z</time>
      </trkpt>
      <trkpt lat="43.129682" lon="-9.127839">
        <ele>32.292</ele>
        <time>2019-06-21T16:15:18Z</time>
      </trkpt>
      <trkpt lat="43.129542" lon="-9.127862">
        <ele>32.373</ele>
        <time>2019-06-21T16:15:19Z</time>
      </trkpt>
      <trkpt lat="43.129396" lon="-9.127899">
        <ele>32.120</ele>
        <time>2019-06-21T16:15:20Z</time>
      </trkpt>
      <trkpt lat="43.129267" lon="-9.127954">
        <ele>31.508</ele>
        <time>2019-06-21T16:15:21Z</time>
      </trkpt>
      <trkpt lat="43.129140" lon="-9.128037">
        <ele>31.822</ele>
        <time>2019-06-21T16:15:22Z</time>
      </trkpt>
      <trkpt lat="43.129007" lon="-9.128128">
        <ele>33.126</ele>
        <time>2019-06-21T16:15:23Z</time>
      </trkpt>
      <trkpt lat="43.128873" lon="-9.128207">
        <ele>34.898</ele>
        <time>2019-06-21T16:15:24Z</time>
      </trkpt>
      <trkpt lat="43.128728" lon="-9.128290">
        <ele>37.380</ele>
        <time>2019-06-21T16:15:25Z</time>
      </trkpt>
      <trkpt lat="43.128575" lon="-9.128351">
        <ele>39.417</ele>
        <time>2019-06-21T16:15:26Z</time>
      </trkpt>
      <trkpt lat="43.128403" lon="-9.128394">
        <ele>40.673</ele>
        <time>2019-06-21T16:15:27Z</time>
      </trkpt>
      <trkpt lat="43.128245" lon="-9.128414">
        <ele>42.047</ele>
        <time>2019-06-21T16:15:28Z</time>
      </trkpt>
      <trkpt lat="43.128081" lon="-9.128416">
        <ele>43.599</ele>
        <time>2019-06-21T16:15:29Z</time>
      </trkpt>
      <trkpt lat="43.127920" lon="-9.128413">
        <ele>46.085</ele>
        <time>2019-06-21T16:15:30Z</time>
      </trkpt>
      <trkpt lat="43.127781" lon="-9.128388">
        <ele>47.989</ele>
        <time>2019-06-21T16:15:31Z</time>
      </trkpt>
      <trkpt lat="43.127642" lon="-9.128340">
        <ele>49.517</ele>
        <time>2019-06-21T16:15:32Z</time>
      </trkpt>
      <trkpt lat="43.127513" lon="-9.128276">
        <ele>50.508</ele>
        <time>2019-06-21T16:15:33Z</time>
      </trkpt>
      <trkpt lat="43.127388" lon="-9.128186">
        <ele>49.841</ele>
        <time>2019-06-21T16:15:34Z</time>
      </trkpt>
      <trkpt lat="43.127262" lon="-9.128058">
        <ele>48.615</ele>
        <time>2019-06-21T16:15:35Z</time>
      </trkpt>
      <trkpt lat="43.127136" lon="-9.127935">
        <ele>47.327</ele>
        <time>2019-06-21T16:15:36Z</time>
      </trkpt>
      <trkpt lat="43.127016" lon="-9.127782">
        <ele>45.549</ele>
        <time>2019-06-21T16:15:37Z</time>
      </trkpt>
      <trkpt lat="43.126894" lon="-9.127650">
        <ele>44.936</ele>
        <time>2019-06-21T16:15:38Z</time>
      </trkpt>
      <trkpt lat="43.126783" lon="-9.127525">
        <ele>44.462</ele>
        <time>2019-06-21T16:15:39Z</time>
      </trkpt>
      <trkpt lat="43.126664" lon="-9.127446">
        <ele>44.446</ele>
        <time>2019-06-21T16:15:40Z</time>
      </trkpt>
      <trkpt lat="43.126541" lon="-9.127405">
        <ele>44.438</ele>
        <time>2019-06-21T16:15:41Z</time>
      </trkpt>
      <trkpt lat="43.126410" lon="-9.127351">
        <ele>44.342</ele>
        <time>2019-06-21T16:15:42Z</time>
      </trkpt>
      <trkpt lat="43.126274" lon="-9.127320">
        <ele>44.122</ele>
        <time>2019-06-21T16:15:43Z</time>
      </trkpt>
      <trkpt lat="43.126130" lon="-9.127306">
        <ele>43.914</ele>
        <time>2019-06-21T16:15:44Z</time>
      </trkpt>
      <trkpt lat="43.125984" lon="-9.127323">
        <ele>43.608</ele>
        <time>2019-06-21T16:15:45Z</time>
      </trkpt>
      <trkpt lat="43.125833" lon="-9.127361">
        <ele>43.567</ele>
        <time>2019-06-21T16:15:46Z</time>
      </trkpt>
      <trkpt lat="43.125667" lon="-9.127412">
        <ele>42.481</ele>
        <time>2019-06-21T16:15:47Z</time>
      </trkpt>
      <trkpt lat="43.125493" lon="-9.127457">
        <ele>41.513</ele>
        <time>2019-06-21T16:15:48Z</time>
      </trkpt>
      <trkpt lat="43.125302" lon="-9.127515">
        <ele>41.235</ele>
        <time>2019-06-21T16:15:49Z</time>
      </trkpt>
      <trkpt lat="43.125111" lon="-9.127562">
        <ele>40.672</ele>
        <time>2019-06-21T16:15:50Z</time>
      </trkpt>
      <trkpt lat="43.124909" lon="-9.127619">
        <ele>40.758</ele>
        <time>2019-06-21T16:15:51Z</time>
      </trkpt>
      <trkpt lat="43.124716" lon="-9.127679">
        <ele>41.692</ele>
        <time>2019-06-21T16:15:52Z</time>
      </trkpt>
      <trkpt lat="43.124525" lon="-9.127734">
        <ele>43.254</ele>
        <time>2019-06-21T16:15:53Z</time>
      </trkpt>
      <trkpt lat="43.124341" lon="-9.127790">
        <ele>44.696</ele>
        <time>2019-06-21T16:15:54Z</time>
      </trkpt>
      <trkpt lat="43.124166" lon="-9.127834">
        <ele>46.031</ele>
        <time>2019-06-21T16:15:55Z</time>
      </trkpt>
      <trkpt lat="43.124007" lon="-9.127861">
        <ele>47.124</ele>
        <time>2019-06-21T16:15:56Z</time>
      </trkpt>
      <trkpt lat="43.123865" lon="-9.127879">
        <ele>48.108</ele>
        <time>2019-06-21T16:15:57Z</time>
      </trkpt>
      <trkpt lat="43.123726" lon="-9.127871">
        <ele>50.272</ele>
        <time>2019-06-21T16:15:58Z</time>
      </trkpt>
      <trkpt lat="43.123591" lon="-9.127811">
        <ele>51.686</ele>
        <time>2019-06-21T16:15:59Z</time>
      </trkpt>
      <trkpt lat="43.123460" lon="-9.127724">
        <ele>52.368</ele>
        <time>2019-06-21T16:16:00Z</time>
      </trkpt>
      <trkpt lat="43.123339" lon="-9.127635">
        <ele>52.950</ele>
        <time>2019-06-21T16:16:01Z</time>
      </trkpt>
      <trkpt lat="43.123223" lon="-9.127564">
        <ele>52.647</ele>
        <time>2019-06-21T16:16:02Z</time>
      </trkpt>
      <trkpt lat="43.123102" lon="-9.127521">
        <ele>52.273</ele>
        <time>2019-06-21T16:16:03Z</time>
      </trkpt>
      <trkpt lat="43.122978" lon="-9.127516">
        <ele>52.267</ele>
        <time>2019-06-21T16:16:04Z</time>
      </trkpt>
      <trkpt lat="43.122850" lon="-9.127546">
        <ele>52.629</ele>
        <time>2019-06-21T16:16:05Z</time>
      </trkpt>
      <trkpt lat="43.122727" lon="-9.127621">
        <ele>54.215</ele>
        <time>2019-06-21T16:16:06Z</time>
      </trkpt>
      <trkpt lat="43.122597" lon="-9.127718">
        <ele>56.665</ele>
        <time>2019-06-21T16:16:07Z</time>
      </trkpt>
      <trkpt lat="43.122462" lon="-9.127828">
        <ele>58.911</ele>
        <time>2019-06-21T16:16:08Z</time>
      </trkpt>
      <trkpt lat="43.122332" lon="-9.127913">
        <ele>60.108</ele>
        <time>2019-06-21T16:16:09Z</time>
      </trkpt>
      <trkpt lat="43.122215" lon="-9.128013">
        <ele>61.374</ele>
        <time>2019-06-21T16:16:10Z</time>
      </trkpt>
      <trkpt lat="43.122106" lon="-9.128125">
        <ele>61.958</ele>
        <time>2019-06-21T16:16:11Z</time>
      </trkpt>
      <trkpt lat="43.122004" lon="-9.128244">
        <ele>62.540</ele>
        <time>2019-06-21T16:16:12Z</time>
      </trkpt>
      <trkpt lat="43.121920" lon="-9.128420">
        <ele>63.272</ele>
        <time>2019-06-21T16:16:13Z</time>
      </trkpt>
      <trkpt lat="43.121831" lon="-9.128597">
        <ele>63.599</ele>
        <time>2019-06-21T16:16:14Z</time>
      </trkpt>
      <trkpt lat="43.121747" lon="-9.128765">
        <ele>63.855</ele>
        <time>2019-06-21T16:16:15Z</time>
      </trkpt>
      <trkpt lat="43.121648" lon="-9.128936">
        <ele>64.399</ele>
        <time>2019-06-21T16:16:16Z</time>
      </trkpt>
      <trkpt lat="43.121545" lon="-9.129103">
        <ele>65.581</ele>
        <time>2019-06-21T16:16:17Z</time>
      </trkpt>
      <trkpt lat="43.121445" lon="-9.129253">
        <ele>66.673</ele>
        <time>2019-06-21T16:16:18Z</time>
      </trkpt>
      <trkpt lat="43.121355" lon="-9.129393">
        <ele>67.785</ele>
        <time>2019-06-21T16:16:19Z</time>
      </trkpt>
      <trkpt lat="43.121252" lon="-9.129525">
        <ele>68.613</ele>
        <time>2019-06-21T16:16:20Z</time>
      </trkpt>
      <trkpt lat="43.121149" lon="-9.129631">
        <ele>69.308</ele>
        <time>2019-06-21T16:16:21Z</time>
      </trkpt>
      <trkpt lat="43.121038" lon="-9.129742">
        <ele>70.190</ele>
        <time>2019-06-21T16:16:22Z</time>
      </trkpt>
      <trkpt lat="43.120915" lon="-9.129835">
        <ele>70.794</ele>
        <time>2019-06-21T16:16:23Z</time>
      </trkpt>
      <trkpt lat="43.120780" lon="-9.129891">
        <ele>71.576</ele>
        <time>2019-06-21T16:16:24Z</time>
      </trkpt>
      <trkpt lat="43.120629" lon="-9.129950">
        <ele>73.058</ele>
        <time>2019-06-21T16:16:25Z</time>
      </trkpt>
      <trkpt lat="43.120479" lon="-9.130010">
        <ele>73.855</ele>
        <time>2019-06-21T16:16:26Z</time>
      </trkpt>
      <trkpt lat="43.120344" lon="-9.130068">
        <ele>73.591</ele>
        <time>2019-06-21T16:16:27Z</time>
      </trkpt>
      <trkpt lat="43.120217" lon="-9.130130">
        <ele>73.255</ele>
        <time>2019-06-21T16:16:28Z</time>
      </trkpt>
      <trkpt lat="43.120091" lon="-9.130205">
        <ele>73.197</ele>
        <time>2019-06-21T16:16:29Z</time>
      </trkpt>
      <trkpt lat="43.119962" lon="-9.130298">
        <ele>73.138</ele>
        <time>2019-06-21T16:16:30Z</time>
      </trkpt>
      <trkpt lat="43.119819" lon="-9.130387">
        <ele>73.570</ele>
        <time>2019-06-21T16:16:31Z</time>
      </trkpt>
      <trkpt lat="43.119666" lon="-9.130456">
        <ele>73.817</ele>
        <time>2019-06-21T16:16:32Z</time>
      </trkpt>
      <trkpt lat="43.119494" lon="-9.130520">
        <ele>74.608</ele>
        <time>2019-06-21T16:16:33Z</time>
      </trkpt>
      <trkpt lat="43.119322" lon="-9.130572">
        <ele>75.686</ele>
        <time>2019-06-21T16:16:34Z</time>
      </trkpt>
      <trkpt lat="43.119151" lon="-9.130606">
        <ele>76.590</ele>
        <time>2019-06-21T16:16:35Z</time>
      </trkpt>
      <trkpt lat="43.118990" lon="-9.130629">
        <ele>77.892</ele>
        <time>2019-06-21T16:16:36Z</time>
      </trkpt>
      <trkpt lat="43.118834" lon="-9.130626">
        <ele>78.884</ele>
        <time>2019-06-21T16:16:37Z</time>
      </trkpt>
      <trkpt lat="43.118682" lon="-9.130602">
        <ele>79.271</ele>
        <time>2019-06-21T16:16:38Z</time>
      </trkpt>
      <trkpt lat="43.118519" lon="-9.130556">
        <ele>80.737</ele>
        <time>2019-06-21T16:16:39Z</time>
      </trkpt>
      <trkpt lat="43.118352" lon="-9.130506">
        <ele>83.031</ele>
        <time>2019-06-21T16:16:40Z</time>
      </trkpt>
      <trkpt lat="43.118186" lon="-9.130447">
        <ele>85.113</ele>
        <time>2019-06-21T16:16:41Z</time>
      </trkpt>
      <trkpt lat="43.118008" lon="-9.130389">
        <ele>87.056</ele>
        <time>2019-06-21T16:16:42Z</time>
      </trkpt>
      <trkpt lat="43.117833" lon="-9.130333">
        <ele>88.059</ele>
        <time>2019-06-21T16:16:43Z</time>
      </trkpt>
      <trkpt lat="43.117662" lon="-9.130272">
        <ele>89.214</ele>
        <time>2019-06-21T16:16:44Z</time>
      </trkpt>
      <trkpt lat="43.117489" lon="-9.130203">
        <ele>90.908</ele>
        <time>2019-06-21T16:16:45Z</time>
      </trkpt>
      <trkpt lat="43.117315" lon="-9.130142">
        <ele>92.858</ele>
        <time>2019-06-21T16:16:46Z</time>
      </trkpt>
      <trkpt lat="43.117147" lon="-9.130083">
        <ele>94.152</ele>
        <time>2019-06-21T16:16:47Z</time>
      </trkpt>
      <trkpt lat="43.116983" lon="-9.130029">
        <ele>94.864</ele>
        <time>2019-06-21T16:16:48Z</time>
      </trkpt>
      <trkpt lat="43.116824" lon="-9.129998">
        <ele>95.956</ele>
        <time>2019-06-21T16:16:49Z</time>
      </trkpt>
      <trkpt lat="43.116670" lon="-9.129995">
        <ele>97.073</ele>
        <time>2019-06-21T16:16:50Z</time>
      </trkpt>
      <trkpt lat="43.116515" lon="-9.129986">
        <ele>99.299</ele>
        <time>2019-06-21T16:16:51Z</time>
      </trkpt>
      <trkpt lat="43.116350" lon="-9.130002">
        <ele>101.183</ele>
        <time>2019-06-21T16:16:52Z</time>
      </trkpt>
      <trkpt lat="43.116186" lon="-9.130011">
        <ele>101.755</ele>
        <time>2019-06-21T16:16:53Z</time>
      </trkpt>
      <trkpt lat="43.116027" lon="-9.130014">
        <ele>102.626</ele>
        <time>2019-06-21T16:16:54Z</time>
      </trkpt>
      <trkpt lat="43.115862" lon="-9.130044">
        <ele>103.547</ele>
        <time>2019-06-21T16:16:55Z</time>
      </trkpt>
      <trkpt lat="43.115699" lon="-9.130055">
        <ele>104.311</ele>
        <time>2019-06-21T16:16:56Z</time>
      </trkpt>
      <trkpt lat="43.115532" lon="-9.130061">
        <ele>105.308</ele>
        <time>2019-06-21T16:16:57Z</time>
      </trkpt>
      <trkpt lat="43.115373" lon="-9.130084">
        <ele>107.295</ele>
        <time>2019-06-21T16:16:58Z</time>
      </trkpt>
      <trkpt lat="43.115216" lon="-9.130109">
        <ele>108.929</ele>
        <time>2019-06-21T16:16:59Z</time>
      </trkpt>
      <trkpt lat="43.115056" lon="-9.130156">
        <ele>110.651</ele>
        <time>2019-06-21T16:17:00Z</time>
      </trkpt>
      <trkpt lat="43.114905" lon="-9.130222">
        <ele>111.053</ele>
        <time>2019-06-21T16:17:01Z</time>
      </trkpt>
      <trkpt lat="43.114739" lon="-9.130299">
        <ele>110.390</ele>
        <time>2019-06-21T16:17:02Z</time>
      </trkpt>
      <trkpt lat="43.114575" lon="-9.130389">
        <ele>110.656</ele>
        <time>2019-06-21T16:17:03Z</time>
      </trkpt>
      <trkpt lat="43.114404" lon="-9.130488">
        <ele>110.790</ele>
        <time>2019-06-21T16:17:04Z</time>
      </trkpt>
      <trkpt lat="43.114229" lon="-9.130589">
        <ele>111.082</ele>
        <time>2019-06-21T16:17:05Z</time>
      </trkpt>
      <trkpt lat="43.114074" lon="-9.130677">
        <ele>111.122</ele>
        <time>2019-06-21T16:17:06Z</time>
      </trkpt>
      <trkpt lat="43.113918" lon="-9.130763">
        <ele>111.762</ele>
        <time>2019-06-21T16:17:07Z</time>
      </trkpt>
      <trkpt lat="43.113754" lon="-9.130852">
        <ele>111.608</ele>
        <time>2019-06-21T16:17:08Z</time>
      </trkpt>
      <trkpt lat="43.113590" lon="-9.130948">
        <ele>111.808</ele>
        <time>2019-06-21T16:17:09Z</time>
      </trkpt>
      <trkpt lat="43.113420" lon="-9.131050">
        <ele>111.925</ele>
        <time>2019-06-21T16:17:10Z</time>
      </trkpt>
      <trkpt lat="43.113235" lon="-9.131166">
        <ele>111.119</ele>
        <time>2019-06-21T16:17:11Z</time>
      </trkpt>
      <trkpt lat="43.113049" lon="-9.131275">
        <ele>109.521</ele>
        <time>2019-06-21T16:17:12Z</time>
      </trkpt>
      <trkpt lat="43.112856" lon="-9.131385">
        <ele>107.173</ele>
        <time>2019-06-21T16:17:13Z</time>
      </trkpt>
      <trkpt lat="43.112646" lon="-9.131505">
        <ele>104.850</ele>
        <time>2019-06-21T16:17:14Z</time>
      </trkpt>
      <trkpt lat="43.112427" lon="-9.131639">
        <ele>103.946</ele>
        <time>2019-06-21T16:17:15Z</time>
      </trkpt>
      <trkpt lat="43.112211" lon="-9.131740">
        <ele>103.730</ele>
        <time>2019-06-21T16:17:16Z</time>
      </trkpt>
      <trkpt lat="43.111983" lon="-9.131870">
        <ele>103.942</ele>
        <time>2019-06-21T16:17:17Z</time>
      </trkpt>
      <trkpt lat="43.111750" lon="-9.132010">
        <ele>103.235</ele>
        <time>2019-06-21T16:17:18Z</time>
      </trkpt>
      <trkpt lat="43.111522" lon="-9.132147">
        <ele>102.986</ele>
        <time>2019-06-21T16:17:19Z</time>
      </trkpt>
      <trkpt lat="43.111289" lon="-9.132283">
        <ele>103.014</ele>
        <time>2019-06-21T16:17:20Z</time>
      </trkpt>
      <trkpt lat="43.111063" lon="-9.132419">
        <ele>102.808</ele>
        <time>2019-06-21T16:17:21Z</time>
      </trkpt>
      <trkpt lat="43.110830" lon="-9.132559">
        <ele>102.046</ele>
        <time>2019-06-21T16:17:22Z</time>
      </trkpt>
      <trkpt lat="43.110592" lon="-9.132700">
        <ele>101.140</ele>
        <time>2019-06-21T16:17:23Z</time>
      </trkpt>
      <trkpt lat="43.110361" lon="-9.132839">
        <ele>101.092</ele>
        <time>2019-06-21T16:17:24Z</time>
      </trkpt>
      <trkpt lat="43.110133" lon="-9.132975">
        <ele>102.014</ele>
        <time>2019-06-21T16:17:25Z</time>
      </trkpt>
      <trkpt lat="43.109917" lon="-9.133114">
        <ele>103.361</ele>
        <time>2019-06-21T16:17:26Z</time>
      </trkpt>
      <trkpt lat="43.109705" lon="-9.133241">
        <ele>104.177</ele>
        <time>2019-06-21T16:17:27Z</time>
      </trkpt>
      <trkpt lat="43.109495" lon="-9.133366">
        <ele>105.521</ele>
        <time>2019-06-21T16:17:28Z</time>
      </trkpt>
      <trkpt lat="43.109303" lon="-9.133482">
        <ele>107.513</ele>
        <time>2019-06-21T16:17:29Z</time>
      </trkpt>
      <trkpt lat="43.109115" lon="-9.133595">
        <ele>109.814</ele>
        <time>2019-06-21T16:17:30Z</time>
      </trkpt>
      <trkpt lat="43.108930" lon="-9.133709">
        <ele>112.454</ele>
        <time>2019-06-21T16:17:31Z</time>
      </trkpt>
      <trkpt lat="43.108774" lon="-9.133807">
        <ele>113.809</ele>
        <time>2019-06-21T16:17:32Z</time>
      </trkpt>
      <trkpt lat="43.108624" lon="-9.133914">
        <ele>114.908</ele>
        <time>2019-06-21T16:17:33Z</time>
      </trkpt>
      <trkpt lat="43.108475" lon="-9.134037">
        <ele>114.754</ele>
        <time>2019-06-21T16:17:34Z</time>
      </trkpt>
      <trkpt lat="43.108346" lon="-9.134172">
        <ele>114.178</ele>
        <time>2019-06-21T16:17:35Z</time>
      </trkpt>
      <trkpt lat="43.108213" lon="-9.134331">
        <ele>115.120</ele>
        <time>2019-06-21T16:17:36Z</time>
      </trkpt>
      <trkpt lat="43.108081" lon="-9.134482">
        <ele>114.972</ele>
        <time>2019-06-21T16:17:37Z</time>
      </trkpt>
      <trkpt lat="43.107962" lon="-9.134638">
        <ele>115.749</ele>
        <time>2019-06-21T16:17:38Z</time>
      </trkpt>
      <trkpt lat="43.107851" lon="-9.134768">
        <ele>116.865</ele>
        <time>2019-06-21T16:17:39Z</time>
      </trkpt>
      <trkpt lat="43.107727" lon="-9.134884">
        <ele>118.369</ele>
        <time>2019-06-21T16:17:40Z</time>
      </trkpt>
      <trkpt lat="43.107596" lon="-9.134977">
        <ele>120.411</ele>
        <time>2019-06-21T16:17:41Z</time>
      </trkpt>
      <trkpt lat="43.107431" lon="-9.135078">
        <ele>121.752</ele>
        <time>2019-06-21T16:17:42Z</time>
      </trkpt>
      <trkpt lat="43.107266" lon="-9.135160">
        <ele>122.053</ele>
        <time>2019-06-21T16:17:43Z</time>
      </trkpt>
      <trkpt lat="43.107075" lon="-9.135247">
        <ele>121.908</ele>
        <time>2019-06-21T16:17:44Z</time>
      </trkpt>
      <trkpt lat="43.106887" lon="-9.135329">
        <ele>121.708</ele>
        <time>2019-06-21T16:17:45Z</time>
      </trkpt>
      <trkpt lat="43.106697" lon="-9.135411">
        <ele>121.568</ele>
        <time>2019-06-21T16:17:46Z</time>
      </trkpt>
      <trkpt lat="43.106492" lon="-9.135468">
        <ele>120.532</ele>
        <time>2019-06-21T16:17:47Z</time>
      </trkpt>
      <trkpt lat="43.106280" lon="-9.135529">
        <ele>120.414</ele>
        <time>2019-06-21T16:17:48Z</time>
      </trkpt>
      <trkpt lat="43.106064" lon="-9.135587">
        <ele>121.176</ele>
        <time>2019-06-21T16:17:49Z</time>
      </trkpt>
      <trkpt lat="43.105847" lon="-9.135656">
        <ele>121.443</ele>
        <time>2019-06-21T16:17:50Z</time>
      </trkpt>
      <trkpt lat="43.105642" lon="-9.135717">
        <ele>122.629</ele>
        <time>2019-06-21T16:17:51Z</time>
      </trkpt>
      <trkpt lat="43.105442" lon="-9.135773">
        <ele>123.523</ele>
        <time>2019-06-21T16:17:52Z</time>
      </trkpt>
      <trkpt lat="43.105248" lon="-9.135824">
        <ele>124.465</ele>
        <time>2019-06-21T16:17:53Z</time>
      </trkpt>
      <trkpt lat="43.105061" lon="-9.135877">
        <ele>126.236</ele>
        <time>2019-06-21T16:17:54Z</time>
      </trkpt>
      <trkpt lat="43.104884" lon="-9.135917">
        <ele>126.817</ele>
        <time>2019-06-21T16:17:55Z</time>
      </trkpt>
      <trkpt lat="43.104715" lon="-9.135963">
        <ele>127.018</ele>
        <time>2019-06-21T16:17:56Z</time>
      </trkpt>
      <trkpt lat="43.104561" lon="-9.136004">
        <ele>126.408</ele>
        <time>2019-06-21T16:17:57Z</time>
      </trkpt>
      <trkpt lat="43.104415" lon="-9.136046">
        <ele>125.976</ele>
        <time>2019-06-21T16:17:58Z</time>
      </trkpt>
      <trkpt lat="43.104280" lon="-9.136089">
        <ele>125.460</ele>
        <time>2019-06-21T16:17:59Z</time>
      </trkpt>
      <trkpt lat="43.104141" lon="-9.136140">
        <ele>125.042</ele>
        <time>2019-06-21T16:18:00Z</time>
      </trkpt>
      <trkpt lat="43.104011" lon="-9.136211">
        <ele>124.824</ele>
        <time>2019-06-21T16:18:01Z</time>
      </trkpt>
      <trkpt lat="43.103874" lon="-9.136307">
        <ele>124.711</ele>
        <time>2019-06-21T16:18:02Z</time>
      </trkpt>
      <trkpt lat="43.103743" lon="-9.136418">
        <ele>124.627</ele>
        <time>2019-06-21T16:18:03Z</time>
      </trkpt>
      <trkpt lat="43.103616" lon="-9.136566">
        <ele>124.791</ele>
        <time>2019-06-21T16:18:04Z</time>
      </trkpt>
      <trkpt lat="43.103491" lon="-9.136712">
        <ele>125.693</ele>
        <time>2019-06-21T16:18:05Z</time>
      </trkpt>
      <trkpt lat="43.103356" lon="-9.136864">
        <ele>126.696</ele>
        <time>2019-06-21T16:18:06Z</time>
      </trkpt>
      <trkpt lat="43.103199" lon="-9.137009">
        <ele>126.531</ele>
        <time>2019-06-21T16:18:07Z</time>
      </trkpt>
      <trkpt lat="43.103038" lon="-9.137168">
        <ele>125.924</ele>
        <time>2019-06-21T16:18:08Z</time>
      </trkpt>
      <trkpt lat="43.102881" lon="-9.137313">
        <ele>124.708</ele>
        <time>2019-06-21T16:18:09Z</time>
      </trkpt>
      <trkpt lat="43.102719" lon="-9.137442">
        <ele>124.012</ele>
        <time>2019-06-21T16:18:10Z</time>
      </trkpt>
      <trkpt lat="43.102548" lon="-9.137579">
        <ele>124.016</ele>
        <time>2019-06-21T16:18:11Z</time>
      </trkpt>
      <trkpt lat="43.102382" lon="-9.137707">
        <ele>123.678</ele>
        <time>2019-06-21T16:18:12Z</time>
      </trkpt>
      <trkpt lat="43.102237" lon="-9.137831">
        <ele>123.450</ele>
        <time>2019-06-21T16:18:13Z</time>
      </trkpt>
      <trkpt lat="43.102090" lon="-9.137945">
        <ele>123.947</ele>
        <time>2019-06-21T16:18:14Z</time>
      </trkpt>
      <trkpt lat="43.101940" lon="-9.138076">
        <ele>124.153</ele>
        <time>2019-06-21T16:18:15Z</time>
      </trkpt>
      <trkpt lat="43.101794" lon="-9.138186">
        <ele>124.527</ele>
        <time>2019-06-21T16:18:16Z</time>
      </trkpt>
      <trkpt lat="43.101646" lon="-9.138282">
        <ele>124.859</ele>
        <time>2019-06-21T16:18:17Z</time>
      </trkpt>
      <trkpt lat="43.101509" lon="-9.138358">
        <ele>125.125</ele>
        <time>2019-06-21T16:18:18Z</time>
      </trkpt>
      <trkpt lat="43.101370" lon="-9.138431">
        <ele>125.426</ele>
        <time>2019-06-21T16:18:19Z</time>
      </trkpt>
      <trkpt lat="43.101211" lon="-9.138406">
        <ele>125.308</ele>
        <time>2019-06-21T16:18:20Z</time>
      </trkpt>
      <trkpt lat="43.101069" lon="-9.138376">
        <ele>125.308</ele>
        <time>2019-06-21T16:18:21Z</time>
      </trkpt>
      <trkpt lat="43.100919" lon="-9.138363">
        <ele>125.895</ele>
        <time>2019-06-21T16:18:22Z</time>
      </trkpt>
      <trkpt lat="43.100778" lon="-9.138355">
        <ele>125.749</ele>
        <time>2019-06-21T16:18:23Z</time>
      </trkpt>
      <trkpt lat="43.100632" lon="-9.138341">
        <ele>124.681</ele>
        <time>2019-06-21T16:18:24Z</time>
      </trkpt>
      <trkpt lat="43.100484" lon="-9.138360">
        <ele>124.063</ele>
        <time>2019-06-21T16:18:25Z</time>
      </trkpt>
      <trkpt lat="43.100328" lon="-9.138398">
        <ele>123.740</ele>
        <time>2019-06-21T16:18:26Z</time>
      </trkpt>
      <trkpt lat="43.100173" lon="-9.138453">
        <ele>124.136</ele>
        <time>2019-06-21T16:18:27Z</time>
      </trkpt>
      <trkpt lat="43.100014" lon="-9.138510">
        <ele>124.610</ele>
        <time>2019-06-21T16:18:28Z</time>
      </trkpt>
      <trkpt lat="43.099861" lon="-9.138580">
        <ele>125.432</ele>
        <time>2019-06-21T16:18:29Z</time>
      </trkpt>
      <trkpt lat="43.099714" lon="-9.138647">
        <ele>126.419</ele>
        <time>2019-06-21T16:18:30Z</time>
      </trkpt>
      <trkpt lat="43.099578" lon="-9.138706">
        <ele>127.209</ele>
        <time>2019-06-21T16:18:31Z</time>
      </trkpt>
      <trkpt lat="43.099442" lon="-9.138761">
        <ele>127.619</ele>
        <time>2019-06-21T16:18:32Z</time>
      </trkpt>
      <trkpt lat="43.099293" lon="-9.138826">
        <ele>128.408</ele>
        <time>2019-06-21T16:18:33Z</time>
      </trkpt>
      <trkpt lat="43.099159" lon="-9.138884">
        <ele>129.124</ele>
        <time>2019-06-21T16:18:34Z</time>
      </trkpt>
      <trkpt lat="43.099008" lon="-9.138927">
        <ele>130.238</ele>
        <time>2019-06-21T16:18:35Z</time>
      </trkpt>
      <trkpt lat="43.098833" lon="-9.138938">
        <ele>131.270</ele>
        <time>2019-06-21T16:18:36Z</time>
      </trkpt>
      <trkpt lat="43.098655" lon="-9.138933">
        <ele>131.882</ele>
        <time>2019-06-21T16:18:37Z</time>
      </trkpt>
      <trkpt lat="43.098476" lon="-9.138934">
        <ele>131.799</ele>
        <time>2019-06-21T16:18:38Z</time>
      </trkpt>
      <trkpt lat="43.098313" lon="-9.138920">
        <ele>131.125</ele>
        <time>2019-06-21T16:18:39Z</time>
      </trkpt>
      <trkpt lat="43.098142" lon="-9.138915">
        <ele>130.439</ele>
        <time>2019-06-21T16:18:40Z</time>
      </trkpt>
      <trkpt lat="43.097979" lon="-9.138899">
        <ele>130.031</ele>
        <time>2019-06-21T16:18:41Z</time>
      </trkpt>
      <trkpt lat="43.097819" lon="-9.138906">
        <ele>130.076</ele>
        <time>2019-06-21T16:18:42Z</time>
      </trkpt>
      <trkpt lat="43.097657" lon="-9.138905">
        <ele>129.190</ele>
        <time>2019-06-21T16:18:43Z</time>
      </trkpt>
      <trkpt lat="43.097490" lon="-9.138889">
        <ele>128.019</ele>
        <time>2019-06-21T16:18:44Z</time>
      </trkpt>
      <trkpt lat="43.097317" lon="-9.138870">
        <ele>127.308</ele>
        <time>2019-06-21T16:18:45Z</time>
      </trkpt>
      <trkpt lat="43.097152" lon="-9.138859">
        <ele>126.920</ele>
        <time>2019-06-21T16:18:46Z</time>
      </trkpt>
      <trkpt lat="43.096988" lon="-9.138859">
        <ele>126.844</ele>
        <time>2019-06-21T16:18:47Z</time>
      </trkpt>
      <trkpt lat="43.096847" lon="-9.138825">
        <ele>126.696</ele>
        <time>2019-06-21T16:18:48Z</time>
      </trkpt>
      <trkpt lat="43.096697" lon="-9.138823">
        <ele>126.798</ele>
        <time>2019-06-21T16:18:49Z</time>
      </trkpt>
      <trkpt lat="43.096544" lon="-9.138820">
        <ele>125.945</ele>
        <time>2019-06-21T16:18:50Z</time>
      </trkpt>
      <trkpt lat="43.096392" lon="-9.138818">
        <ele>124.881</ele>
        <time>2019-06-21T16:18:51Z</time>
      </trkpt>
      <trkpt lat="43.096240" lon="-9.138811">
        <ele>124.265</ele>
        <time>2019-06-21T16:18:52Z</time>
      </trkpt>
      <trkpt lat="43.096079" lon="-9.138803">
        <ele>123.637</ele>
        <time>2019-06-21T16:18:53Z</time>
      </trkpt>
      <trkpt lat="43.095916" lon="-9.138805">
        <ele>123.288</ele>
        <time>2019-06-21T16:18:54Z</time>
      </trkpt>
      <trkpt lat="43.095766" lon="-9.138832">
        <ele>123.024</ele>
        <time>2019-06-21T16:18:55Z</time>
      </trkpt>
      <trkpt lat="43.095623" lon="-9.138854">
        <ele>122.926</ele>
        <time>2019-06-21T16:18:56Z</time>
      </trkpt>
      <trkpt lat="43.095487" lon="-9.138902">
        <ele>123.508</ele>
        <time>2019-06-21T16:18:57Z</time>
      </trkpt>
      <trkpt lat="43.095366" lon="-9.138973">
        <ele>124.511</ele>
        <time>2019-06-21T16:18:58Z</time>
      </trkpt>
      <trkpt lat="43.095272" lon="-9.139086">
        <ele>125.155</ele>
        <time>2019-06-21T16:18:59Z</time>
      </trkpt>
      <trkpt lat="43.095192" lon="-9.139228">
        <ele>126.937</ele>
        <time>2019-06-21T16:19:00Z</time>
      </trkpt>
      <trkpt lat="43.095135" lon="-9.139383">
        <ele>128.169</ele>
        <time>2019-06-21T16:19:01Z</time>
      </trkpt>
      <trkpt lat="43.095084" lon="-9.139545">
        <ele>127.996</ele>
        <time>2019-06-21T16:19:02Z</time>
      </trkpt>
      <trkpt lat="43.095000" lon="-9.139683">
        <ele>127.492</ele>
        <time>2019-06-21T16:19:03Z</time>
      </trkpt>
      <trkpt lat="43.094904" lon="-9.139811">
        <ele>127.596</ele>
        <time>2019-06-21T16:19:04Z</time>
      </trkpt>
      <trkpt lat="43.094786" lon="-9.139923">
        <ele>128.038</ele>
        <time>2019-06-21T16:19:05Z</time>
      </trkpt>
      <trkpt lat="43.094654" lon="-9.140007">
        <ele>129.123</ele>
        <time>2019-06-21T16:19:06Z</time>
      </trkpt>
      <trkpt lat="43.094506" lon="-9.140072">
        <ele>130.383</ele>
        <time>2019-06-21T16:19:07Z</time>
      </trkpt>
      <trkpt lat="43.094352" lon="-9.140110">
        <ele>131.411</ele>
        <time>2019-06-21T16:19:08Z</time>
      </trkpt>
      <trkpt lat="43.094193" lon="-9.140144">
        <ele>132.208</ele>
        <time>2019-06-21T16:19:09Z</time>
      </trkpt>
      <trkpt lat="43.094037" lon="-9.140164">
        <ele>132.235</ele>
        <time>2019-06-21T16:19:10Z</time>
      </trkpt>
      <trkpt lat="43.093871" lon="-9.140171">
        <ele>132.269</ele>
        <time>2019-06-21T16:19:11Z</time>
      </trkpt>
      <trkpt lat="43.093713" lon="-9.140188">
        <ele>133.381</ele>
        <time>2019-06-21T16:19:12Z</time>
      </trkpt>
      <trkpt lat="43.093549" lon="-9.140183">
        <ele>135.223</ele>
        <time>2019-06-21T16:19:13Z</time>
      </trkpt>
      <trkpt lat="43.093391" lon="-9.140175">
        <ele>137.570</ele>
        <time>2019-06-21T16:19:14Z</time>
      </trkpt>
      <trkpt lat="43.093239" lon="-9.140173">
        <ele>140.346</ele>
        <time>2019-06-21T16:19:15Z</time>
      </trkpt>
      <trkpt lat="43.093086" lon="-9.140190">
        <ele>143.260</ele>
        <time>2019-06-21T16:19:16Z</time>
      </trkpt>
      <trkpt lat="43.092933" lon="-9.140213">
        <ele>142.862</ele>
        <time>2019-06-21T16:19:17Z</time>
      </trkpt>
      <trkpt lat="43.092785" lon="-9.140239">
        <ele>141.392</ele>
        <time>2019-06-21T16:19:18Z</time>
      </trkpt>
      <trkpt lat="43.092637" lon="-9.140269">
        <ele>140.873</ele>
        <time>2019-06-21T16:19:19Z</time>
      </trkpt>
      <trkpt lat="43.092494" lon="-9.140294">
        <ele>140.620</ele>
        <time>2019-06-21T16:19:20Z</time>
      </trkpt>
      <trkpt lat="43.092352" lon="-9.140313">
        <ele>141.508</ele>
        <time>2019-06-21T16:19:21Z</time>
      </trkpt>
      <trkpt lat="43.092211" lon="-9.140332">
        <ele>142.372</ele>
        <time>2019-06-21T16:19:22Z</time>
      </trkpt>
      <trkpt lat="43.092072" lon="-9.140345">
        <ele>142.026</ele>
        <time>2019-06-21T16:19:23Z</time>
      </trkpt>
      <trkpt lat="43.091932" lon="-9.140360">
        <ele>141.678</ele>
        <time>2019-06-21T16:19:24Z</time>
      </trkpt>
      <trkpt lat="43.091801" lon="-9.140362">
        <ele>141.740</ele>
        <time>2019-06-21T16:19:25Z</time>
      </trkpt>
      <trkpt lat="43.091674" lon="-9.140362">
        <ele>141.977</ele>
        <time>2019-06-21T16:19:26Z</time>
      </trkpt>
      <trkpt lat="43.091561" lon="-9.140371">
        <ele>141.573</ele>
        <time>2019-06-21T16:19:27Z</time>
      </trkpt>
      <trkpt lat="43.091426" lon="-9.140377">
        <ele>141.317</ele>
        <time>2019-06-21T16:19:28Z</time>
      </trkpt>
      <trkpt lat="43.091288" lon="-9.140376">
        <ele>141.539</ele>
        <time>2019-06-21T16:19:29Z</time>
      </trkpt>
      <trkpt lat="43.091154" lon="-9.140367">
        <ele>141.931</ele>
        <time>2019-06-21T16:19:30Z</time>
      </trkpt>
      <trkpt lat="43.090987" lon="-9.140367">
        <ele>142.361</ele>
        <time>2019-06-21T16:19:31Z</time>
      </trkpt>
      <trkpt lat="43.090809" lon="-9.140372">
        <ele>142.707</ele>
        <time>2019-06-21T16:19:32Z</time>
      </trkpt>
      <trkpt lat="43.090636" lon="-9.140385">
        <ele>142.708</ele>
        <time>2019-06-21T16:19:33Z</time>
      </trkpt>
      <trkpt lat="43.090445" lon="-9.140397">
        <ele>143.176</ele>
        <time>2019-06-21T16:19:34Z</time>
      </trkpt>
      <trkpt lat="43.090253" lon="-9.140409">
        <ele>143.740</ele>
        <time>2019-06-21T16:19:35Z</time>
      </trkpt>
      <trkpt lat="43.090071" lon="-9.140424">
        <ele>144.292</ele>
        <time>2019-06-21T16:19:36Z</time>
      </trkpt>
      <trkpt lat="43.089902" lon="-9.140444">
        <ele>144.234</ele>
        <time>2019-06-21T16:19:37Z</time>
      </trkpt>
      <trkpt lat="43.089723" lon="-9.140475">
        <ele>143.671</ele>
        <time>2019-06-21T16:19:38Z</time>
      </trkpt>
      <trkpt lat="43.089560" lon="-9.140457">
        <ele>143.587</ele>
        <time>2019-06-21T16:19:39Z</time>
      </trkpt>
      <trkpt lat="43.089399" lon="-9.140470">
        <ele>142.821</ele>
        <time>2019-06-21T16:19:40Z</time>
      </trkpt>
      <trkpt lat="43.089241" lon="-9.140476">
        <ele>141.153</ele>
        <time>2019-06-21T16:19:41Z</time>
      </trkpt>
      <trkpt lat="43.089102" lon="-9.140470">
        <ele>139.628</ele>
        <time>2019-06-21T16:19:42Z</time>
      </trkpt>
      <trkpt lat="43.088962" lon="-9.140452">
        <ele>138.289</ele>
        <time>2019-06-21T16:19:43Z</time>
      </trkpt>
      <trkpt lat="43.088835" lon="-9.140392">
        <ele>137.617</ele>
        <time>2019-06-21T16:19:44Z</time>
      </trkpt>
      <trkpt lat="43.088709" lon="-9.140292">
        <ele>137.908</ele>
        <time>2019-06-21T16:19:45Z</time>
      </trkpt>
      <trkpt lat="43.088595" lon="-9.140139">
        <ele>137.995</ele>
        <time>2019-06-21T16:19:46Z</time>
      </trkpt>
      <trkpt lat="43.088488" lon="-9.139971">
        <ele>136.629</ele>
        <time>2019-06-21T16:19:47Z</time>
      </trkpt>
      <trkpt lat="43.088387" lon="-9.139787">
        <ele>134.841</ele>
        <time>2019-06-21T16:19:48Z</time>
      </trkpt>
      <trkpt lat="43.088280" lon="-9.139604">
        <ele>133.013</ele>
        <time>2019-06-21T16:19:49Z</time>
      </trkpt>
      <trkpt lat="43.088154" lon="-9.139465">
        <ele>130.650</ele>
        <time>2019-06-21T16:19:50Z</time>
      </trkpt>
      <trkpt lat="43.088029" lon="-9.139296">
        <ele>128.146</ele>
        <time>2019-06-21T16:19:51Z</time>
      </trkpt>
      <trkpt lat="43.087922" lon="-9.139120">
        <ele>125.550</ele>
        <time>2019-06-21T16:19:52Z</time>
      </trkpt>
      <trkpt lat="43.087822" lon="-9.138952">
        <ele>123.162</ele>
        <time>2019-06-21T16:19:53Z</time>
      </trkpt>
      <trkpt lat="43.087729" lon="-9.138789">
        <ele>120.767</ele>
        <time>2019-06-21T16:19:54Z</time>
      </trkpt>
      <trkpt lat="43.087613" lon="-9.138643">
        <ele>117.381</ele>
        <time>2019-06-21T16:19:55Z</time>
      </trkpt>
      <trkpt lat="43.087490" lon="-9.138532">
        <ele>113.919</ele>
        <time>2019-06-21T16:19:56Z</time>
      </trkpt>
      <trkpt lat="43.087366" lon="-9.138437">
        <ele>112.108</ele>
        <time>2019-06-21T16:19:57Z</time>
      </trkpt>
      <trkpt lat="43.087232" lon="-9.138368">
        <ele>110.119</ele>
        <time>2019-06-21T16:19:58Z</time>
      </trkpt>
      <trkpt lat="43.087079" lon="-9.138306">
        <ele>109.543</ele>
        <time>2019-06-21T16:19:59Z</time>
      </trkpt>
      <trkpt lat="43.086919" lon="-9.138321">
        <ele>109.225</ele>
        <time>2019-06-21T16:20:00Z</time>
      </trkpt>
      <trkpt lat="43.086764" lon="-9.138320">
        <ele>110.267</ele>
        <time>2019-06-21T16:20:01Z</time>
      </trkpt>
      <trkpt lat="43.086595" lon="-9.138383">
        <ele>111.794</ele>
        <time>2019-06-21T16:20:02Z</time>
      </trkpt>
      <trkpt lat="43.086439" lon="-9.138454">
        <ele>112.780</ele>
        <time>2019-06-21T16:20:03Z</time>
      </trkpt>
      <trkpt lat="43.086281" lon="-9.138499">
        <ele>112.664</ele>
        <time>2019-06-21T16:20:04Z</time>
      </trkpt>
      <trkpt lat="43.086124" lon="-9.138525">
        <ele>111.676</ele>
        <time>2019-06-21T16:20:05Z</time>
      </trkpt>
      <trkpt lat="43.085967" lon="-9.138526">
        <ele>110.412</ele>
        <time>2019-06-21T16:20:06Z</time>
      </trkpt>
      <trkpt lat="43.085825" lon="-9.138521">
        <ele>109.332</ele>
        <time>2019-06-21T16:20:07Z</time>
      </trkpt>
      <trkpt lat="43.085668" lon="-9.138532">
        <ele>107.805</ele>
        <time>2019-06-21T16:20:08Z</time>
      </trkpt>
      <trkpt lat="43.085516" lon="-9.138538">
        <ele>106.208</ele>
        <time>2019-06-21T16:20:09Z</time>
      </trkpt>
      <trkpt lat="43.085416" lon="-9.138681">
        <ele>106.164</ele>
        <time>2019-06-21T16:20:10Z</time>
      </trkpt>
      <trkpt lat="43.085282" lon="-9.138762">
        <ele>105.858</ele>
        <time>2019-06-21T16:20:11Z</time>
      </trkpt>
      <trkpt lat="43.085164" lon="-9.138871">
        <ele>104.590</ele>
        <time>2019-06-21T16:20:12Z</time>
      </trkpt>
      <trkpt lat="43.085043" lon="-9.138969">
        <ele>102.952</ele>
        <time>2019-06-21T16:20:13Z</time>
      </trkpt>
      <trkpt lat="43.084922" lon="-9.139010">
        <ele>101.659</ele>
        <time>2019-06-21T16:20:14Z</time>
      </trkpt>
      <trkpt lat="43.084796" lon="-9.139044">
        <ele>100.265</ele>
        <time>2019-06-21T16:20:15Z</time>
      </trkpt>
      <trkpt lat="43.084675" lon="-9.139045">
        <ele>99.049</ele>
        <time>2019-06-21T16:20:16Z</time>
      </trkpt>
      <trkpt lat="43.084551" lon="-9.139061">
        <ele>98.611</ele>
        <time>2019-06-21T16:20:17Z</time>
      </trkpt>
      <trkpt lat="43.084470" lon="-9.138969">
        <ele>97.733</ele>
        <time>2019-06-21T16:20:18Z</time>
      </trkpt>
      <trkpt lat="43.084365" lon="-9.138956">
        <ele>97.223</ele>
        <time>2019-06-21T16:20:19Z</time>
      </trkpt>
      <trkpt lat="43.084244" lon="-9.138990">
        <ele>97.015</ele>
        <time>2019-06-21T16:20:20Z</time>
      </trkpt>
      <trkpt lat="43.084098" lon="-9.139048">
        <ele>97.008</ele>
        <time>2019-06-21T16:20:21Z</time>
      </trkpt>
      <trkpt lat="43.083957" lon="-9.139106">
        <ele>97.056</ele>
        <time>2019-06-21T16:20:22Z</time>
      </trkpt>
      <trkpt lat="43.083813" lon="-9.139184">
        <ele>96.780</ele>
        <time>2019-06-21T16:20:23Z</time>
      </trkpt>
      <trkpt lat="43.083654" lon="-9.139299">
        <ele>96.662</ele>
        <time>2019-06-21T16:20:24Z</time>
      </trkpt>
      <trkpt lat="43.083494" lon="-9.139402">
        <ele>97.494</ele>
        <time>2019-06-21T16:20:25Z</time>
      </trkpt>
      <trkpt lat="43.083338" lon="-9.139506">
        <ele>98.021</ele>
        <time>2019-06-21T16:20:26Z</time>
      </trkpt>
      <trkpt lat="43.083178" lon="-9.139601">
        <ele>98.757</ele>
        <time>2019-06-21T16:20:27Z</time>
      </trkpt>
      <trkpt lat="43.083020" lon="-9.139694">
        <ele>98.431</ele>
        <time>2019-06-21T16:20:28Z</time>
      </trkpt>
      <trkpt lat="43.082879" lon="-9.139790">
        <ele>98.263</ele>
        <time>2019-06-21T16:20:29Z</time>
      </trkpt>
      <trkpt lat="43.082742" lon="-9.139862">
        <ele>98.025</ele>
        <time>2019-06-21T16:20:30Z</time>
      </trkpt>
      <trkpt lat="43.082603" lon="-9.139948">
        <ele>97.426</ele>
        <time>2019-06-21T16:20:31Z</time>
      </trkpt>
      <trkpt lat="43.082472" lon="-9.140044">
        <ele>96.508</ele>
        <time>2019-06-21T16:20:32Z</time>
      </trkpt>
      <trkpt lat="43.082336" lon="-9.140127">
        <ele>95.408</ele>
        <time>2019-06-21T16:20:33Z</time>
      </trkpt>
      <trkpt lat="43.082202" lon="-9.140204">
        <ele>94.965</ele>
        <time>2019-06-21T16:20:34Z</time>
      </trkpt>
      <trkpt lat="43.082064" lon="-9.140288">
        <ele>93.999</ele>
        <time>2019-06-21T16:20:35Z</time>
      </trkpt>
      <trkpt lat="43.081938" lon="-9.140373">
        <ele>92.911</ele>
        <time>2019-06-21T16:20:36Z</time>
      </trkpt>
      <trkpt lat="43.081866" lon="-9.140423">
        <ele>92.323</ele>
        <time>2019-06-21T16:20:37Z</time>
      </trkpt>
      <trkpt lat="43.081785" lon="-9.140504">
        <ele>91.440</ele>
        <time>2019-06-21T16:20:38Z</time>
      </trkpt>
      <trkpt lat="43.081713" lon="-9.140595">
        <ele>90.516</ele>
        <time>2019-06-21T16:20:39Z</time>
      </trkpt>
      <trkpt lat="43.081648" lon="-9.140725">
        <ele>89.980</ele>
        <time>2019-06-21T16:20:40Z</time>
      </trkpt>
      <trkpt lat="43.081586" lon="-9.140888">
        <ele>89.592</ele>
        <time>2019-06-21T16:20:41Z</time>
      </trkpt>
      <trkpt lat="43.081533" lon="-9.141077">
        <ele>89.513</ele>
        <time>2019-06-21T16:20:42Z</time>
      </trkpt>
      <trkpt lat="43.081480" lon="-9.141288">
        <ele>90.043</ele>
        <time>2019-06-21T16:20:43Z</time>
      </trkpt>
      <trkpt lat="43.081425" lon="-9.141512">
        <ele>91.407</ele>
        <time>2019-06-21T16:20:44Z</time>
      </trkpt>
      <trkpt lat="43.081370" lon="-9.141732">
        <ele>93.408</ele>
        <time>2019-06-21T16:20:45Z</time>
      </trkpt>
      <trkpt lat="43.081310" lon="-9.141959">
        <ele>95.184</ele>
        <time>2019-06-21T16:20:46Z</time>
      </trkpt>
      <trkpt lat="43.081259" lon="-9.142206">
        <ele>95.438</ele>
        <time>2019-06-21T16:20:47Z</time>
      </trkpt>
      <trkpt lat="43.081192" lon="-9.142443">
        <ele>94.180</ele>
        <time>2019-06-21T16:20:48Z</time>
      </trkpt>
      <trkpt lat="43.081128" lon="-9.142700">
        <ele>90.422</ele>
        <time>2019-06-21T16:20:49Z</time>
      </trkpt>
      <trkpt lat="43.081062" lon="-9.142943">
        <ele>87.359</ele>
        <time>2019-06-21T16:20:50Z</time>
      </trkpt>
      <trkpt lat="43.080985" lon="-9.143195">
        <ele>86.055</ele>
        <time>2019-06-21T16:20:51Z</time>
      </trkpt>
      <trkpt lat="43.080895" lon="-9.143435">
        <ele>85.979</ele>
        <time>2019-06-21T16:20:52Z</time>
      </trkpt>
      <trkpt lat="43.080797" lon="-9.143666">
        <ele>84.631</ele>
        <time>2019-06-21T16:20:53Z</time>
      </trkpt>
      <trkpt lat="43.080698" lon="-9.143898">
        <ele>82.431</ele>
        <time>2019-06-21T16:20:54Z</time>
      </trkpt>
      <trkpt lat="43.080596" lon="-9.144101">
        <ele>81.461</ele>
        <time>2019-06-21T16:20:55Z</time>
      </trkpt>
      <trkpt lat="43.080498" lon="-9.144313">
        <ele>79.407</ele>
        <time>2019-06-21T16:20:56Z</time>
      </trkpt>
      <trkpt lat="43.080399" lon="-9.144536">
        <ele>77.008</ele>
        <time>2019-06-21T16:20:57Z</time>
      </trkpt>
      <trkpt lat="43.080308" lon="-9.144761">
        <ele>74.236</ele>
        <time>2019-06-21T16:20:58Z</time>
      </trkpt>
      <trkpt lat="43.080235" lon="-9.145023">
        <ele>70.560</ele>
        <time>2019-06-21T16:20:59Z</time>
      </trkpt>
      <trkpt lat="43.080181" lon="-9.145289">
        <ele>69.752</ele>
        <time>2019-06-21T16:21:00Z</time>
      </trkpt>
      <trkpt lat="43.080169" lon="-9.145563">
        <ele>68.394</ele>
        <time>2019-06-21T16:21:01Z</time>
      </trkpt>
      <trkpt lat="43.080174" lon="-9.145842">
        <ele>65.891</ele>
        <time>2019-06-21T16:21:02Z</time>
      </trkpt>
      <trkpt lat="43.080179" lon="-9.146128">
        <ele>65.087</ele>
        <time>2019-06-21T16:21:03Z</time>
      </trkpt>
      <trkpt lat="43.080193" lon="-9.146413">
        <ele>63.921</ele>
        <time>2019-06-21T16:21:04Z</time>
      </trkpt>
      <trkpt lat="43.080212" lon="-9.146714">
        <ele>63.473</ele>
        <time>2019-06-21T16:21:05Z</time>
      </trkpt>
      <trkpt lat="43.080235" lon="-9.147015">
        <ele>62.968</ele>
        <time>2019-06-21T16:21:06Z</time>
      </trkpt>
      <trkpt lat="43.080256" lon="-9.147299">
        <ele>63.042</ele>
        <time>2019-06-21T16:21:07Z</time>
      </trkpt>
      <trkpt lat="43.080280" lon="-9.147592">
        <ele>63.026</ele>
        <time>2019-06-21T16:21:08Z</time>
      </trkpt>
      <trkpt lat="43.080294" lon="-9.147876">
        <ele>63.708</ele>
        <time>2019-06-21T16:21:09Z</time>
      </trkpt>
      <trkpt lat="43.080316" lon="-9.148160">
        <ele>66.239</ele>
        <time>2019-06-21T16:21:10Z</time>
      </trkpt>
      <trkpt lat="43.080339" lon="-9.148415">
        <ele>69.093</ele>
        <time>2019-06-21T16:21:11Z</time>
      </trkpt>
      <trkpt lat="43.080370" lon="-9.148664">
        <ele>71.645</ele>
        <time>2019-06-21T16:21:12Z</time>
      </trkpt>
      <trkpt lat="43.080414" lon="-9.148900">
        <ele>74.727</ele>
        <time>2019-06-21T16:21:13Z</time>
      </trkpt>
      <trkpt lat="43.080460" lon="-9.149142">
        <ele>77.134</ele>
        <time>2019-06-21T16:21:14Z</time>
      </trkpt>
      <trkpt lat="43.080514" lon="-9.149373">
        <ele>79.590</ele>
        <time>2019-06-21T16:21:15Z</time>
      </trkpt>
      <trkpt lat="43.080629" lon="-9.149584">
        <ele>80.814</ele>
        <time>2019-06-21T16:21:16Z</time>
      </trkpt>
      <trkpt lat="43.080747" lon="-9.149784">
        <ele>81.426</ele>
        <time>2019-06-21T16:21:17Z</time>
      </trkpt>
      <trkpt lat="43.080865" lon="-9.149942">
        <ele>82.011</ele>
        <time>2019-06-21T16:21:18Z</time>
      </trkpt>
      <trkpt lat="43.081002" lon="-9.150094">
        <ele>82.621</ele>
        <time>2019-06-21T16:21:19Z</time>
      </trkpt>
      <trkpt lat="43.081152" lon="-9.150215">
        <ele>82.503</ele>
        <time>2019-06-21T16:21:20Z</time>
      </trkpt>
      <trkpt lat="43.081306" lon="-9.150324">
        <ele>83.308</ele>
        <time>2019-06-21T16:21:21Z</time>
      </trkpt>
      <trkpt lat="43.081456" lon="-9.150416">
        <ele>84.254</ele>
        <time>2019-06-21T16:21:22Z</time>
      </trkpt>
      <trkpt lat="43.081607" lon="-9.150500">
        <ele>85.488</ele>
        <time>2019-06-21T16:21:23Z</time>
      </trkpt>
      <trkpt lat="43.081735" lon="-9.150549">
        <ele>86.250</ele>
        <time>2019-06-21T16:21:24Z</time>
      </trkpt>
      <trkpt lat="43.081865" lon="-9.150617">
        <ele>86.912</ele>
        <time>2019-06-21T16:21:25Z</time>
      </trkpt>
      <trkpt lat="43.081994" lon="-9.150680">
        <ele>87.319</ele>
        <time>2019-06-21T16:21:26Z</time>
      </trkpt>
      <trkpt lat="43.082134" lon="-9.150741">
        <ele>87.415</ele>
        <time>2019-06-21T16:21:27Z</time>
      </trkpt>
      <trkpt lat="43.082256" lon="-9.150828">
        <ele>88.089</ele>
        <time>2019-06-21T16:21:28Z</time>
      </trkpt>
      <trkpt lat="43.082386" lon="-9.150906">
        <ele>88.491</ele>
        <time>2019-06-21T16:21:29Z</time>
      </trkpt>
      <trkpt lat="43.082511" lon="-9.150981">
        <ele>88.593</ele>
        <time>2019-06-21T16:21:30Z</time>
      </trkpt>
      <trkpt lat="43.082632" lon="-9.151060">
        <ele>88.765</ele>
        <time>2019-06-21T16:21:31Z</time>
      </trkpt>
      <trkpt lat="43.082749" lon="-9.151142">
        <ele>89.021</ele>
        <time>2019-06-21T16:21:32Z</time>
      </trkpt>
      <trkpt lat="43.082851" lon="-9.151236">
        <ele>88.708</ele>
        <time>2019-06-21T16:21:33Z</time>
      </trkpt>
      <trkpt lat="43.082935" lon="-9.151357">
        <ele>88.492</ele>
        <time>2019-06-21T16:21:34Z</time>
      </trkpt>
      <trkpt lat="43.082990" lon="-9.151459">
        <ele>88.316</ele>
        <time>2019-06-21T16:21:35Z</time>
      </trkpt>
      <trkpt lat="43.083056" lon="-9.151552">
        <ele>88.048</ele>
        <time>2019-06-21T16:21:36Z</time>
      </trkpt>
      <trkpt lat="43.083112" lon="-9.151641">
        <ele>87.820</ele>
        <time>2019-06-21T16:21:37Z</time>
      </trkpt>
      <trkpt lat="43.083152" lon="-9.151716">
        <ele>87.957</ele>
        <time>2019-06-21T16:21:38Z</time>
      </trkpt>
      <trkpt lat="43.083190" lon="-9.151807">
        <ele>88.323</ele>
        <time>2019-06-21T16:21:39Z</time>
      </trkpt>
      <trkpt lat="43.083219" lon="-9.151894">
        <ele>88.637</ele>
        <time>2019-06-21T16:21:40Z</time>
      </trkpt>
      <trkpt lat="43.083258" lon="-9.152007">
        <ele>88.849</ele>
        <time>2019-06-21T16:21:41Z</time>
      </trkpt>
      <trkpt lat="43.083300" lon="-9.152117">
        <ele>88.982</ele>
        <time>2019-06-21T16:21:42Z</time>
      </trkpt>
      <trkpt lat="43.083352" lon="-9.152248">
        <ele>89.043</ele>
        <time>2019-06-21T16:21:43Z</time>
      </trkpt>
      <trkpt lat="43.083391" lon="-9.152374">
        <ele>89.217</ele>
        <time>2019-06-21T16:21:44Z</time>
      </trkpt>
      <trkpt lat="43.083406" lon="-9.152515">
        <ele>89.508</ele>
        <time>2019-06-21T16:21:45Z</time>
      </trkpt>
      <trkpt lat="43.083405" lon="-9.152675">
        <ele>89.521</ele>
        <time>2019-06-21T16:21:46Z</time>
      </trkpt>
      <trkpt lat="43.083393" lon="-9.152862">
        <ele>89.395</ele>
        <time>2019-06-21T16:21:47Z</time>
      </trkpt>
      <trkpt lat="43.083372" lon="-9.153060">
        <ele>88.897</ele>
        <time>2019-06-21T16:21:48Z</time>
      </trkpt>
      <trkpt lat="43.083337" lon="-9.153263">
        <ele>88.249</ele>
        <time>2019-06-21T16:21:49Z</time>
      </trkpt>
      <trkpt lat="43.083321" lon="-9.153479">
        <ele>87.586</ele>
        <time>2019-06-21T16:21:50Z</time>
      </trkpt>
      <trkpt lat="43.083288" lon="-9.153707">
        <ele>86.352</ele>
        <time>2019-06-21T16:21:51Z</time>
      </trkpt>
      <trkpt lat="43.083265" lon="-9.153958">
        <ele>84.656</ele>
        <time>2019-06-21T16:21:52Z</time>
      </trkpt>
      <trkpt lat="43.083241" lon="-9.154203">
        <ele>83.718</ele>
        <time>2019-06-21T16:21:53Z</time>
      </trkpt>
      <trkpt lat="43.083213" lon="-9.154459">
        <ele>83.917</ele>
        <time>2019-06-21T16:21:54Z</time>
      </trkpt>
      <trkpt lat="43.083186" lon="-9.154721">
        <ele>84.587</ele>
        <time>2019-06-21T16:21:55Z</time>
      </trkpt>
      <trkpt lat="43.083170" lon="-9.154981">
        <ele>84.615</ele>
        <time>2019-06-21T16:21:56Z</time>
      </trkpt>
      <trkpt lat="43.083143" lon="-9.155255">
        <ele>84.408</ele>
        <time>2019-06-21T16:21:57Z</time>
      </trkpt>
      <trkpt lat="43.083125" lon="-9.155521">
        <ele>84.754</ele>
        <time>2019-06-21T16:21:58Z</time>
      </trkpt>
      <trkpt lat="43.083108" lon="-9.155774">
        <ele>87.048</ele>
        <time>2019-06-21T16:21:59Z</time>
      </trkpt>
      <trkpt lat="43.083096" lon="-9.156028">
        <ele>89.750</ele>
        <time>2019-06-21T16:22:00Z</time>
      </trkpt>
      <trkpt lat="43.083081" lon="-9.156259">
        <ele>90.812</ele>
        <time>2019-06-21T16:22:01Z</time>
      </trkpt>
      <trkpt lat="43.083081" lon="-9.156489">
        <ele>90.559</ele>
        <time>2019-06-21T16:22:02Z</time>
      </trkpt>
      <trkpt lat="43.083079" lon="-9.156714">
        <ele>89.895</ele>
        <time>2019-06-21T16:22:03Z</time>
      </trkpt>
      <trkpt lat="43.083082" lon="-9.156925">
        <ele>89.859</ele>
        <time>2019-06-21T16:22:04Z</time>
      </trkpt>
      <trkpt lat="43.083084" lon="-9.157114">
        <ele>89.821</ele>
        <time>2019-06-21T16:22:05Z</time>
      </trkpt>
      <trkpt lat="43.083082" lon="-9.157316">
        <ele>89.892</ele>
        <time>2019-06-21T16:22:06Z</time>
      </trkpt>
      <trkpt lat="43.083059" lon="-9.157493">
        <ele>90.073</ele>
        <time>2019-06-21T16:22:07Z</time>
      </trkpt>
      <trkpt lat="43.083034" lon="-9.157679">
        <ele>89.520</ele>
        <time>2019-06-21T16:22:08Z</time>
      </trkpt>
      <trkpt lat="43.082994" lon="-9.157881">
        <ele>88.708</ele>
        <time>2019-06-21T16:22:09Z</time>
      </trkpt>
      <trkpt lat="43.082920" lon="-9.158085">
        <ele>87.722</ele>
        <time>2019-06-21T16:22:10Z</time>
      </trkpt>
      <trkpt lat="43.082827" lon="-9.158274">
        <ele>86.956</ele>
        <time>2019-06-21T16:22:11Z</time>
      </trkpt>
      <trkpt lat="43.082720" lon="-9.158439">
        <ele>86.458</ele>
        <time>2019-06-21T16:22:12Z</time>
      </trkpt>
      <trkpt lat="43.082621" lon="-9.158607">
        <ele>85.730</ele>
        <time>2019-06-21T16:22:13Z</time>
      </trkpt>
      <trkpt lat="43.082520" lon="-9.158797">
        <ele>86.117</ele>
        <time>2019-06-21T16:22:14Z</time>
      </trkpt>
      <trkpt lat="43.082428" lon="-9.158976">
        <ele>86.073</ele>
        <time>2019-06-21T16:22:15Z</time>
      </trkpt>
      <trkpt lat="43.082342" lon="-9.159167">
        <ele>85.797</ele>
        <time>2019-06-21T16:22:16Z</time>
      </trkpt>
      <trkpt lat="43.082280" lon="-9.159356">
        <ele>85.039</ele>
        <time>2019-06-21T16:22:17Z</time>
      </trkpt>
      <trkpt lat="43.082247" lon="-9.159542">
        <ele>83.738</ele>
        <time>2019-06-21T16:22:18Z</time>
      </trkpt>
      <trkpt lat="43.082242" lon="-9.159743">
        <ele>81.770</ele>
        <time>2019-06-21T16:22:19Z</time>
      </trkpt>
      <trkpt lat="43.082267" lon="-9.159944">
        <ele>80.217</ele>
        <time>2019-06-21T16:22:20Z</time>
      </trkpt>
      <trkpt lat="43.082320" lon="-9.160145">
        <ele>79.308</ele>
        <time>2019-06-21T16:22:21Z</time>
      </trkpt>
      <trkpt lat="43.082395" lon="-9.160348">
        <ele>77.966</ele>
        <time>2019-06-21T16:22:22Z</time>
      </trkpt>
      <trkpt lat="43.082483" lon="-9.160546">
        <ele>76.260</ele>
        <time>2019-06-21T16:22:23Z</time>
      </trkpt>
      <trkpt lat="43.082574" lon="-9.160739">
        <ele>75.742</ele>
        <time>2019-06-21T16:22:24Z</time>
      </trkpt>
      <trkpt lat="43.082666" lon="-9.160926">
        <ele>75.464</ele>
        <time>2019-06-21T16:22:25Z</time>
      </trkpt>
      <trkpt lat="43.082744" lon="-9.161111">
        <ele>75.191</ele>
        <time>2019-06-21T16:22:26Z</time>
      </trkpt>
      <trkpt lat="43.082812" lon="-9.161296">
        <ele>75.077</ele>
        <time>2019-06-21T16:22:27Z</time>
      </trkpt>
      <trkpt lat="43.082865" lon="-9.161496">
        <ele>75.391</ele>
        <time>2019-06-21T16:22:28Z</time>
      </trkpt>
      <trkpt lat="43.082907" lon="-9.161705">
        <ele>75.113</ele>
        <time>2019-06-21T16:22:29Z</time>
      </trkpt>
      <trkpt lat="43.082929" lon="-9.161931">
        <ele>73.193</ele>
        <time>2019-06-21T16:22:30Z</time>
      </trkpt>
      <trkpt lat="43.082933" lon="-9.162168">
        <ele>70.565</ele>
        <time>2019-06-21T16:22:31Z</time>
      </trkpt>
      <trkpt lat="43.082919" lon="-9.162413">
        <ele>68.621</ele>
        <time>2019-06-21T16:22:32Z</time>
      </trkpt>
      <trkpt lat="43.082871" lon="-9.162645">
        <ele>67.808</ele>
        <time>2019-06-21T16:22:33Z</time>
      </trkpt>
      <trkpt lat="43.082811" lon="-9.162903">
        <ele>67.312</ele>
        <time>2019-06-21T16:22:34Z</time>
      </trkpt>
      <trkpt lat="43.082748" lon="-9.163166">
        <ele>66.426</ele>
        <time>2019-06-21T16:22:35Z</time>
      </trkpt>
      <trkpt lat="43.082689" lon="-9.163433">
        <ele>65.278</ele>
        <time>2019-06-21T16:22:36Z</time>
      </trkpt>
      <trkpt lat="43.082623" lon="-9.163696">
        <ele>63.820</ele>
        <time>2019-06-21T16:22:37Z</time>
      </trkpt>
      <trkpt lat="43.082565" lon="-9.163959">
        <ele>61.557</ele>
        <time>2019-06-21T16:22:38Z</time>
      </trkpt>
      <trkpt lat="43.082509" lon="-9.164212">
        <ele>59.793</ele>
        <time>2019-06-21T16:22:39Z</time>
      </trkpt>
      <trkpt lat="43.082461" lon="-9.164467">
        <ele>58.147</ele>
        <time>2019-06-21T16:22:40Z</time>
      </trkpt>
      <trkpt lat="43.082403" lon="-9.164677">
        <ele>56.439</ele>
        <time>2019-06-21T16:22:41Z</time>
      </trkpt>
      <trkpt lat="43.082348" lon="-9.164918">
        <ele>53.216</ele>
        <time>2019-06-21T16:22:42Z</time>
      </trkpt>
      <trkpt lat="43.082297" lon="-9.165150">
        <ele>50.876</ele>
        <time>2019-06-21T16:22:43Z</time>
      </trkpt>
      <trkpt lat="43.082253" lon="-9.165377">
        <ele>49.513</ele>
        <time>2019-06-21T16:22:44Z</time>
      </trkpt>
      <trkpt lat="43.082239" lon="-9.165608">
        <ele>49.408</ele>
        <time>2019-06-21T16:22:45Z</time>
      </trkpt>
      <trkpt lat="43.082240" lon="-9.165829">
        <ele>51.764</ele>
        <time>2019-06-21T16:22:46Z</time>
      </trkpt>
      <trkpt lat="43.082260" lon="-9.166026">
        <ele>53.628</ele>
        <time>2019-06-21T16:22:47Z</time>
      </trkpt>
      <trkpt lat="43.082332" lon="-9.166199">
        <ele>54.640</ele>
        <time>2019-06-21T16:22:48Z</time>
      </trkpt>
      <trkpt lat="43.082396" lon="-9.166382">
        <ele>55.442</ele>
        <time>2019-06-21T16:22:49Z</time>
      </trkpt>
      <trkpt lat="43.082483" lon="-9.166570">
        <ele>56.259</ele>
        <time>2019-06-21T16:22:50Z</time>
      </trkpt>
      <trkpt lat="43.082645" lon="-9.166685">
        <ele>56.255</ele>
        <time>2019-06-21T16:22:51Z</time>
      </trkpt>
      <trkpt lat="43.082782" lon="-9.166818">
        <ele>57.259</ele>
        <time>2019-06-21T16:22:52Z</time>
      </trkpt>
      <trkpt lat="43.082932" lon="-9.166948">
        <ele>59.031</ele>
        <time>2019-06-21T16:22:53Z</time>
      </trkpt>
      <trkpt lat="43.083085" lon="-9.167079">
        <ele>60.695</ele>
        <time>2019-06-21T16:22:54Z</time>
      </trkpt>
      <trkpt lat="43.083246" lon="-9.167221">
        <ele>63.449</ele>
        <time>2019-06-21T16:22:55Z</time>
      </trkpt>
      <trkpt lat="43.083402" lon="-9.167366">
        <ele>65.923</ele>
        <time>2019-06-21T16:22:56Z</time>
      </trkpt>
      <trkpt lat="43.083549" lon="-9.167500">
        <ele>67.808</ele>
        <time>2019-06-21T16:22:57Z</time>
      </trkpt>
      <trkpt lat="43.083687" lon="-9.167634">
        <ele>68.832</ele>
        <time>2019-06-21T16:22:58Z</time>
      </trkpt>
      <trkpt lat="43.083818" lon="-9.167743">
        <ele>69.156</ele>
        <time>2019-06-21T16:22:59Z</time>
      </trkpt>
      <trkpt lat="43.083941" lon="-9.167856">
        <ele>69.348</ele>
        <time>2019-06-21T16:23:00Z</time>
      </trkpt>
      <trkpt lat="43.084052" lon="-9.167989">
        <ele>70.240</ele>
        <time>2019-06-21T16:23:01Z</time>
      </trkpt>
      <trkpt lat="43.084153" lon="-9.168140">
        <ele>71.937</ele>
        <time>2019-06-21T16:23:02Z</time>
      </trkpt>
      <trkpt lat="43.084248" lon="-9.168302">
        <ele>74.093</ele>
        <time>2019-06-21T16:23:03Z</time>
      </trkpt>
      <trkpt lat="43.084320" lon="-9.168468">
        <ele>76.287</ele>
        <time>2019-06-21T16:23:04Z</time>
      </trkpt>
      <trkpt lat="43.084303" lon="-9.168645">
        <ele>78.149</ele>
        <time>2019-06-21T16:23:05Z</time>
      </trkpt>
      <trkpt lat="43.084302" lon="-9.168821">
        <ele>78.824</ele>
        <time>2019-06-21T16:23:06Z</time>
      </trkpt>
      <trkpt lat="43.084272" lon="-9.168994">
        <ele>79.204</ele>
        <time>2019-06-21T16:23:07Z</time>
      </trkpt>
      <trkpt lat="43.084208" lon="-9.169165">
        <ele>79.814</ele>
        <time>2019-06-21T16:23:08Z</time>
      </trkpt>
      <trkpt lat="43.084111" lon="-9.169342">
        <ele>81.208</ele>
        <time>2019-06-21T16:23:09Z</time>
      </trkpt>
      <trkpt lat="43.084004" lon="-9.169508">
        <ele>83.045</ele>
        <time>2019-06-21T16:23:10Z</time>
      </trkpt>
      <trkpt lat="43.083898" lon="-9.169679">
        <ele>84.759</ele>
        <time>2019-06-21T16:23:11Z</time>
      </trkpt>
      <trkpt lat="43.083801" lon="-9.169852">
        <ele>86.651</ele>
        <time>2019-06-21T16:23:12Z</time>
      </trkpt>
      <trkpt lat="43.083693" lon="-9.170024">
        <ele>88.553</ele>
        <time>2019-06-21T16:23:13Z</time>
      </trkpt>
      <trkpt lat="43.083600" lon="-9.170192">
        <ele>89.770</ele>
        <time>2019-06-21T16:23:14Z</time>
      </trkpt>
      <trkpt lat="43.083503" lon="-9.170367">
        <ele>90.166</ele>
        <time>2019-06-21T16:23:15Z</time>
      </trkpt>
      <trkpt lat="43.083415" lon="-9.170538">
        <ele>90.770</ele>
        <time>2019-06-21T16:23:16Z</time>
      </trkpt>
      <trkpt lat="43.083331" lon="-9.170729">
        <ele>91.012</ele>
        <time>2019-06-21T16:23:17Z</time>
      </trkpt>
      <trkpt lat="43.083250" lon="-9.170935">
        <ele>91.749</ele>
        <time>2019-06-21T16:23:18Z</time>
      </trkpt>
      <trkpt lat="43.083183" lon="-9.171156">
        <ele>92.802</ele>
        <time>2019-06-21T16:23:19Z</time>
      </trkpt>
      <trkpt lat="43.083103" lon="-9.171387">
        <ele>94.022</ele>
        <time>2019-06-21T16:23:20Z</time>
      </trkpt>
      <trkpt lat="43.083019" lon="-9.171625">
        <ele>94.708</ele>
        <time>2019-06-21T16:23:21Z</time>
      </trkpt>
      <trkpt lat="43.082947" lon="-9.171855">
        <ele>95.317</ele>
        <time>2019-06-21T16:23:22Z</time>
      </trkpt>
      <trkpt lat="43.082871" lon="-9.172098">
        <ele>95.561</ele>
        <time>2019-06-21T16:23:23Z</time>
      </trkpt>
      <trkpt lat="43.082793" lon="-9.172346">
        <ele>95.683</ele>
        <time>2019-06-21T16:23:24Z</time>
      </trkpt>
      <trkpt lat="43.082712" lon="-9.172596">
        <ele>96.745</ele>
        <time>2019-06-21T16:23:25Z</time>
      </trkpt>
      <trkpt lat="43.082638" lon="-9.172845">
        <ele>98.782</ele>
        <time>2019-06-21T16:23:26Z</time>
      </trkpt>
      <trkpt lat="43.082558" lon="-9.173097">
        <ele>101.278</ele>
        <time>2019-06-21T16:23:27Z</time>
      </trkpt>
      <trkpt lat="43.082469" lon="-9.173343">
        <ele>104.972</ele>
        <time>2019-06-21T16:23:28Z</time>
      </trkpt>
      <trkpt lat="43.082430" lon="-9.173609">
        <ele>107.764</ele>
        <time>2019-06-21T16:23:29Z</time>
      </trkpt>
      <trkpt lat="43.082378" lon="-9.173861">
        <ele>109.994</ele>
        <time>2019-06-21T16:23:30Z</time>
      </trkpt>
      <trkpt lat="43.082328" lon="-9.174124">
        <ele>112.157</ele>
        <time>2019-06-21T16:23:31Z</time>
      </trkpt>
      <trkpt lat="43.082279" lon="-9.174368">
        <ele>112.722</ele>
        <time>2019-06-21T16:23:32Z</time>
      </trkpt>
      <trkpt lat="43.082240" lon="-9.174603">
        <ele>112.908</ele>
        <time>2019-06-21T16:23:33Z</time>
      </trkpt>
      <trkpt lat="43.082212" lon="-9.174846">
        <ele>112.972</ele>
        <time>2019-06-21T16:23:34Z</time>
      </trkpt>
      <trkpt lat="43.082178" lon="-9.175089">
        <ele>112.036</ele>
        <time>2019-06-21T16:23:35Z</time>
      </trkpt>
      <trkpt lat="43.082156" lon="-9.175343">
        <ele>111.328</ele>
        <time>2019-06-21T16:23:36Z</time>
      </trkpt>
      <trkpt lat="43.082143" lon="-9.175585">
        <ele>112.480</ele>
        <time>2019-06-21T16:23:37Z</time>
      </trkpt>
      <trkpt lat="43.082132" lon="-9.175803">
        <ele>114.197</ele>
        <time>2019-06-21T16:23:38Z</time>
      </trkpt>
      <trkpt lat="43.082119" lon="-9.176027">
        <ele>116.253</ele>
        <time>2019-06-21T16:23:39Z</time>
      </trkpt>
      <trkpt lat="43.082116" lon="-9.176239">
        <ele>117.827</ele>
        <time>2019-06-21T16:23:40Z</time>
      </trkpt>
      <trkpt lat="43.082127" lon="-9.176448">
        <ele>119.259</ele>
        <time>2019-06-21T16:23:41Z</time>
      </trkpt>
      <trkpt lat="43.082139" lon="-9.176660">
        <ele>120.828</ele>
        <time>2019-06-21T16:23:42Z</time>
      </trkpt>
      <trkpt lat="43.082157" lon="-9.176887">
        <ele>122.989</ele>
        <time>2019-06-21T16:23:43Z</time>
      </trkpt>
      <trkpt lat="43.082180" lon="-9.177109">
        <ele>124.917</ele>
        <time>2019-06-21T16:23:44Z</time>
      </trkpt>
      <trkpt lat="43.082210" lon="-9.177343">
        <ele>126.508</ele>
        <time>2019-06-21T16:23:45Z</time>
      </trkpt>
      <trkpt lat="43.082251" lon="-9.177589">
        <ele>127.395</ele>
        <time>2019-06-21T16:23:46Z</time>
      </trkpt>
      <trkpt lat="43.082284" lon="-9.177839">
        <ele>128.219</ele>
        <time>2019-06-21T16:23:47Z</time>
      </trkpt>
      <trkpt lat="43.082317" lon="-9.178098">
        <ele>129.141</ele>
        <time>2019-06-21T16:23:48Z</time>
      </trkpt>
      <trkpt lat="43.082347" lon="-9.178348">
        <ele>129.583</ele>
        <time>2019-06-21T16:23:49Z</time>
      </trkpt>
      <trkpt lat="43.082386" lon="-9.178596">
        <ele>131.190</ele>
        <time>2019-06-21T16:23:50Z</time>
      </trkpt>
      <trkpt lat="43.082421" lon="-9.178839">
        <ele>131.736</ele>
        <time>2019-06-21T16:23:51Z</time>
      </trkpt>
      <trkpt lat="43.082454" lon="-9.179075">
        <ele>130.220</ele>
        <time>2019-06-21T16:23:52Z</time>
      </trkpt>
      <trkpt lat="43.082487" lon="-9.179301">
        <ele>127.712</ele>
        <time>2019-06-21T16:23:53Z</time>
      </trkpt>
      <trkpt lat="43.082518" lon="-9.179525">
        <ele>125.886</ele>
        <time>2019-06-21T16:23:54Z</time>
      </trkpt>
      <trkpt lat="43.082549" lon="-9.179730">
        <ele>125.060</ele>
        <time>2019-06-21T16:23:55Z</time>
      </trkpt>
      <trkpt lat="43.082598" lon="-9.179937">
        <ele>124.226</ele>
        <time>2019-06-21T16:23:56Z</time>
      </trkpt>
      <trkpt lat="43.082655" lon="-9.180148">
        <ele>123.408</ele>
        <time>2019-06-21T16:23:57Z</time>
      </trkpt>
      <trkpt lat="43.082719" lon="-9.180353">
        <ele>122.241</ele>
        <time>2019-06-21T16:23:58Z</time>
      </trkpt>
      <trkpt lat="43.082793" lon="-9.180551">
        <ele>121.075</ele>
        <time>2019-06-21T16:23:59Z</time>
      </trkpt>
      <trkpt lat="43.082922" lon="-9.180733">
        <ele>119.787</ele>
        <time>2019-06-21T16:24:00Z</time>
      </trkpt>
      <trkpt lat="43.083046" lon="-9.180903">
        <ele>117.859</ele>
        <time>2019-06-21T16:24:01Z</time>
      </trkpt>
      <trkpt lat="43.083194" lon="-9.181039">
        <ele>116.296</ele>
        <time>2019-06-21T16:24:02Z</time>
      </trkpt>
      <trkpt lat="43.083360" lon="-9.181199">
        <ele>113.112</ele>
        <time>2019-06-21T16:24:03Z</time>
      </trkpt>
      <trkpt lat="43.083509" lon="-9.181360">
        <ele>110.366</ele>
        <time>2019-06-21T16:24:04Z</time>
      </trkpt>
      <trkpt lat="43.083631" lon="-9.181461">
        <ele>108.468</ele>
        <time>2019-06-21T16:24:05Z</time>
      </trkpt>
      <trkpt lat="43.083766" lon="-9.181591">
        <ele>106.681</ele>
        <time>2019-06-21T16:24:06Z</time>
      </trkpt>
      <trkpt lat="43.083901" lon="-9.181755">
        <ele>103.761</ele>
        <time>2019-06-21T16:24:07Z</time>
      </trkpt>
      <trkpt lat="43.083995" lon="-9.181951">
        <ele>100.517</ele>
        <time>2019-06-21T16:24:08Z</time>
      </trkpt>
      <trkpt lat="43.084064" lon="-9.182125">
        <ele>97.408</ele>
        <time>2019-06-21T16:24:09Z</time>
      </trkpt>
      <trkpt lat="43.084055" lon="-9.182362">
        <ele>94.241</ele>
        <time>2019-06-21T16:24:10Z</time>
      </trkpt>
      <trkpt lat="43.084050" lon="-9.182565">
        <ele>91.725</ele>
        <time>2019-06-21T16:24:11Z</time>
      </trkpt>
      <trkpt lat="43.084032" lon="-9.182811">
        <ele>88.877</ele>
        <time>2019-06-21T16:24:12Z</time>
      </trkpt>
      <trkpt lat="43.083975" lon="-9.183007">
        <ele>86.799</ele>
        <time>2019-06-21T16:24:13Z</time>
      </trkpt>
      <trkpt lat="43.083903" lon="-9.183240">
        <ele>83.716</ele>
        <time>2019-06-21T16:24:14Z</time>
      </trkpt>
      <trkpt lat="43.083815" lon="-9.183443">
        <ele>81.182</ele>
        <time>2019-06-21T16:24:15Z</time>
      </trkpt>
      <trkpt lat="43.083709" lon="-9.183629">
        <ele>79.456</ele>
        <time>2019-06-21T16:24:16Z</time>
      </trkpt>
      <trkpt lat="43.083578" lon="-9.183839">
        <ele>78.988</ele>
        <time>2019-06-21T16:24:17Z</time>
      </trkpt>
      <trkpt lat="43.083433" lon="-9.184034">
        <ele>77.825</ele>
        <time>2019-06-21T16:24:18Z</time>
      </trkpt>
      <trkpt lat="43.083302" lon="-9.184223">
        <ele>76.326</ele>
        <time>2019-06-21T16:24:19Z</time>
      </trkpt>
      <trkpt lat="43.083184" lon="-9.184432">
        <ele>73.808</ele>
        <time>2019-06-21T16:24:20Z</time>
      </trkpt>
      <trkpt lat="43.083064" lon="-9.184643">
        <ele>72.108</ele>
        <time>2019-06-21T16:24:21Z</time>
      </trkpt>
      <trkpt lat="43.082939" lon="-9.184866">
        <ele>68.665</ele>
        <time>2019-06-21T16:24:22Z</time>
      </trkpt>
      <trkpt lat="43.082831" lon="-9.185105">
        <ele>64.729</ele>
        <time>2019-06-21T16:24:23Z</time>
      </trkpt>
      <trkpt lat="43.082723" lon="-9.185333">
        <ele>62.621</ele>
        <time>2019-06-21T16:24:24Z</time>
      </trkpt>
      <trkpt lat="43.082623" lon="-9.185554">
        <ele>61.933</ele>
        <time>2019-06-21T16:24:25Z</time>
      </trkpt>
      <trkpt lat="43.082531" lon="-9.185770">
        <ele>61.320</ele>
        <time>2019-06-21T16:24:26Z</time>
      </trkpt>
      <trkpt lat="43.082448" lon="-9.185970">
        <ele>60.056</ele>
        <time>2019-06-21T16:24:27Z</time>
      </trkpt>
      <trkpt lat="43.082371" lon="-9.186149">
        <ele>58.990</ele>
        <time>2019-06-21T16:24:28Z</time>
      </trkpt>
      <trkpt lat="43.082313" lon="-9.186323">
        <ele>57.692</ele>
        <time>2019-06-21T16:24:29Z</time>
      </trkpt>
      <trkpt lat="43.082267" lon="-9.186496">
        <ele>56.776</ele>
        <time>2019-06-21T16:24:30Z</time>
      </trkpt>
      <trkpt lat="43.082247" lon="-9.186663">
        <ele>56.090</ele>
        <time>2019-06-21T16:24:31Z</time>
      </trkpt>
      <trkpt lat="43.082254" lon="-9.186817">
        <ele>55.419</ele>
        <time>2019-06-21T16:24:32Z</time>
      </trkpt>
      <trkpt lat="43.082288" lon="-9.186976">
        <ele>54.608</ele>
        <time>2019-06-21T16:24:33Z</time>
      </trkpt>
      <trkpt lat="43.082350" lon="-9.187135">
        <ele>53.510</ele>
        <time>2019-06-21T16:24:34Z</time>
      </trkpt>
      <trkpt lat="43.082431" lon="-9.187247">
        <ele>52.854</ele>
        <time>2019-06-21T16:24:35Z</time>
      </trkpt>
      <trkpt lat="43.082511" lon="-9.187403">
        <ele>51.786</ele>
        <time>2019-06-21T16:24:36Z</time>
      </trkpt>
      <trkpt lat="43.082590" lon="-9.187560">
        <ele>50.328</ele>
        <time>2019-06-21T16:24:37Z</time>
      </trkpt>
      <trkpt lat="43.082676" lon="-9.187709">
        <ele>49.325</ele>
        <time>2019-06-21T16:24:38Z</time>
      </trkpt>
      <trkpt lat="43.082762" lon="-9.187863">
        <ele>48.711</ele>
        <time>2019-06-21T16:24:39Z</time>
      </trkpt>
      <trkpt lat="43.082841" lon="-9.188019">
        <ele>48.175</ele>
        <time>2019-06-21T16:24:40Z</time>
      </trkpt>
      <trkpt lat="43.082915" lon="-9.188165">
        <ele>47.857</ele>
        <time>2019-06-21T16:24:41Z</time>
      </trkpt>
      <trkpt lat="43.082983" lon="-9.188306">
        <ele>47.324</ele>
        <time>2019-06-21T16:24:42Z</time>
      </trkpt>
      <trkpt lat="43.083033" lon="-9.188447">
        <ele>46.304</ele>
        <time>2019-06-21T16:24:43Z</time>
      </trkpt>
      <trkpt lat="43.083073" lon="-9.188587">
        <ele>45.114</ele>
        <time>2019-06-21T16:24:44Z</time>
      </trkpt>
      <trkpt lat="43.083089" lon="-9.188724">
        <ele>44.108</ele>
        <time>2019-06-21T16:24:45Z</time>
      </trkpt>
      <trkpt lat="43.083051" lon="-9.188856">
        <ele>43.335</ele>
        <time>2019-06-21T16:24:46Z</time>
      </trkpt>
      <trkpt lat="43.083005" lon="-9.188997">
        <ele>42.889</ele>
        <time>2019-06-21T16:24:47Z</time>
      </trkpt>
      <trkpt lat="43.082963" lon="-9.189121">
        <ele>42.371</ele>
        <time>2019-06-21T16:24:48Z</time>
      </trkpt>
      <trkpt lat="43.082913" lon="-9.189256">
        <ele>41.943</ele>
        <time>2019-06-21T16:24:49Z</time>
      </trkpt>
      <trkpt lat="43.082883" lon="-9.189399">
        <ele>41.020</ele>
        <time>2019-06-21T16:24:50Z</time>
      </trkpt>
      <trkpt lat="43.082870" lon="-9.189556">
        <ele>40.496</ele>
        <time>2019-06-21T16:24:51Z</time>
      </trkpt>
      <trkpt lat="43.082876" lon="-9.189705">
        <ele>40.020</ele>
        <time>2019-06-21T16:24:52Z</time>
      </trkpt>
      <trkpt lat="43.082920" lon="-9.189869">
        <ele>40.352</ele>
        <time>2019-06-21T16:24:53Z</time>
      </trkpt>
      <trkpt lat="43.082972" lon="-9.190024">
        <ele>40.852</ele>
        <time>2019-06-21T16:24:54Z</time>
      </trkpt>
      <trkpt lat="43.083019" lon="-9.190203">
        <ele>41.753</ele>
        <time>2019-06-21T16:24:55Z</time>
      </trkpt>
      <trkpt lat="43.083072" lon="-9.190378">
        <ele>42.408</ele>
        <time>2019-06-21T16:24:56Z</time>
      </trkpt>
      <trkpt lat="43.083112" lon="-9.190538">
        <ele>42.808</ele>
        <time>2019-06-21T16:24:57Z</time>
      </trkpt>
      <trkpt lat="43.083154" lon="-9.190675">
        <ele>42.138</ele>
        <time>2019-06-21T16:24:58Z</time>
      </trkpt>
      <trkpt lat="43.083164" lon="-9.190799">
        <ele>41.412</ele>
        <time>2019-06-21T16:24:59Z</time>
      </trkpt>
      <trkpt lat="43.083164" lon="-9.190918">
        <ele>40.574</ele>
        <time>2019-06-21T16:25:00Z</time>
      </trkpt>
      <trkpt lat="43.083137" lon="-9.191025">
        <ele>39.826</ele>
        <time>2019-06-21T16:25:01Z</time>
      </trkpt>
      <trkpt lat="43.083095" lon="-9.191122">
        <ele>39.583</ele>
        <time>2019-06-21T16:25:02Z</time>
      </trkpt>
      <trkpt lat="43.083040" lon="-9.191217">
        <ele>39.449</ele>
        <time>2019-06-21T16:25:03Z</time>
      </trkpt>
      <trkpt lat="43.082979" lon="-9.191309">
        <ele>39.173</ele>
        <time>2019-06-21T16:25:04Z</time>
      </trkpt>
      <trkpt lat="43.082912" lon="-9.191419">
        <ele>38.895</ele>
        <time>2019-06-21T16:25:05Z</time>
      </trkpt>
      <trkpt lat="43.082835" lon="-9.191528">
        <ele>38.659</ele>
        <time>2019-06-21T16:25:06Z</time>
      </trkpt>
      <trkpt lat="43.082756" lon="-9.191647">
        <ele>38.403</ele>
        <time>2019-06-21T16:25:07Z</time>
      </trkpt>
      <trkpt lat="43.082690" lon="-9.191793">
        <ele>38.223</ele>
        <time>2019-06-21T16:25:08Z</time>
      </trkpt>
      <trkpt lat="43.082641" lon="-9.191939">
        <ele>38.008</ele>
        <time>2019-06-21T16:25:09Z</time>
      </trkpt>
      <trkpt lat="43.082600" lon="-9.192090">
        <ele>37.858</ele>
        <time>2019-06-21T16:25:10Z</time>
      </trkpt>
      <trkpt lat="43.082620" lon="-9.192254">
        <ele>36.872</ele>
        <time>2019-06-21T16:25:11Z</time>
      </trkpt>
      <trkpt lat="43.082658" lon="-9.192411">
        <ele>36.264</ele>
        <time>2019-06-21T16:25:12Z</time>
      </trkpt>
      <trkpt lat="43.082728" lon="-9.192506">
        <ele>34.936</ele>
        <time>2019-06-21T16:25:13Z</time>
      </trkpt>
      <trkpt lat="43.082791" lon="-9.192665">
        <ele>34.453</ele>
        <time>2019-06-21T16:25:14Z</time>
      </trkpt>
      <trkpt lat="43.082864" lon="-9.192843">
        <ele>34.199</ele>
        <time>2019-06-21T16:25:15Z</time>
      </trkpt>
      <trkpt lat="43.082923" lon="-9.193020">
        <ele>34.093</ele>
        <time>2019-06-21T16:25:16Z</time>
      </trkpt>
      <trkpt lat="43.082976" lon="-9.193202">
        <ele>33.985</ele>
        <time>2019-06-21T16:25:17Z</time>
      </trkpt>
      <trkpt lat="43.083009" lon="-9.193409">
        <ele>34.433</ele>
        <time>2019-06-21T16:25:18Z</time>
      </trkpt>
      <trkpt lat="43.083026" lon="-9.193629">
        <ele>35.223</ele>
        <time>2019-06-21T16:25:19Z</time>
      </trkpt>
      <trkpt lat="43.083032" lon="-9.193854">
        <ele>34.815</ele>
        <time>2019-06-21T16:25:20Z</time>
      </trkpt>
      <trkpt lat="43.083003" lon="-9.194114">
        <ele>34.108</ele>
        <time>2019-06-21T16:25:21Z</time>
      </trkpt>
      <trkpt lat="43.082981" lon="-9.194366">
        <ele>34.076</ele>
        <time>2019-06-21T16:25:22Z</time>
      </trkpt>
      <trkpt lat="43.082964" lon="-9.194620">
        <ele>33.530</ele>
        <time>2019-06-21T16:25:23Z</time>
      </trkpt>
      <trkpt lat="43.082950" lon="-9.194867">
        <ele>33.442</ele>
        <time>2019-06-21T16:25:24Z</time>
      </trkpt>
      <trkpt lat="43.082938" lon="-9.195114">
        <ele>34.884</ele>
        <time>2019-06-21T16:25:25Z</time>
      </trkpt>
      <trkpt lat="43.082926" lon="-9.195366">
        <ele>36.781</ele>
        <time>2019-06-21T16:25:26Z</time>
      </trkpt>
      <trkpt lat="43.082909" lon="-9.195615">
        <ele>37.417</ele>
        <time>2019-06-21T16:25:27Z</time>
      </trkpt>
      <trkpt lat="43.082896" lon="-9.195856">
        <ele>36.611</ele>
        <time>2019-06-21T16:25:28Z</time>
      </trkpt>
      <trkpt lat="43.082886" lon="-9.196110">
        <ele>35.283</ele>
        <time>2019-06-21T16:25:29Z</time>
      </trkpt>
      <trkpt lat="43.082877" lon="-9.196368">
        <ele>35.087</ele>
        <time>2019-06-21T16:25:30Z</time>
      </trkpt>
      <trkpt lat="43.082863" lon="-9.196599">
        <ele>34.642</ele>
        <time>2019-06-21T16:25:31Z</time>
      </trkpt>
      <trkpt lat="43.082811" lon="-9.196805">
        <ele>34.826</ele>
        <time>2019-06-21T16:25:32Z</time>
      </trkpt>
      <trkpt lat="43.082806" lon="-9.197058">
        <ele>34.408</ele>
        <time>2019-06-21T16:25:33Z</time>
      </trkpt>
      <trkpt lat="43.082808" lon="-9.197301">
        <ele>33.231</ele>
        <time>2019-06-21T16:25:34Z</time>
      </trkpt>
      <trkpt lat="43.082796" lon="-9.197542">
        <ele>31.535</ele>
        <time>2019-06-21T16:25:35Z</time>
      </trkpt>
      <trkpt lat="43.082791" lon="-9.197788">
        <ele>29.747</ele>
        <time>2019-06-21T16:25:36Z</time>
      </trkpt>
      <trkpt lat="43.082795" lon="-9.198031">
        <ele>27.919</ele>
        <time>2019-06-21T16:25:37Z</time>
      </trkpt>
      <trkpt lat="43.082816" lon="-9.198260">
        <ele>26.216</ele>
        <time>2019-06-21T16:25:38Z</time>
      </trkpt>
      <trkpt lat="43.082861" lon="-9.198473">
        <ele>25.792</ele>
        <time>2019-06-21T16:25:39Z</time>
      </trkpt>
      <trkpt lat="43.082916" lon="-9.198656">
        <ele>26.226</ele>
        <time>2019-06-21T16:25:40Z</time>
      </trkpt>
      <trkpt lat="43.083001" lon="-9.198831">
        <ele>26.838</ele>
        <time>2019-06-21T16:25:41Z</time>
      </trkpt>
      <trkpt lat="43.083099" lon="-9.198997">
        <ele>27.032</ele>
        <time>2019-06-21T16:25:42Z</time>
      </trkpt>
      <trkpt lat="43.083219" lon="-9.199118">
        <ele>27.492</ele>
        <time>2019-06-21T16:25:43Z</time>
      </trkpt>
      <trkpt lat="43.083375" lon="-9.199217">
        <ele>28.311</ele>
        <time>2019-06-21T16:25:44Z</time>
      </trkpt>
      <trkpt lat="43.083521" lon="-9.199273">
        <ele>29.608</ele>
        <time>2019-06-21T16:25:45Z</time>
      </trkpt>
      <trkpt lat="43.083654" lon="-9.199316">
        <ele>31.126</ele>
        <time>2019-06-21T16:25:46Z</time>
      </trkpt>
      <trkpt lat="43.083826" lon="-9.199330">
        <ele>33.420</ele>
        <time>2019-06-21T16:25:47Z</time>
      </trkpt>
      <trkpt lat="43.083992" lon="-9.199260">
        <ele>35.282</ele>
        <time>2019-06-21T16:25:48Z</time>
      </trkpt>
      <trkpt lat="43.084156" lon="-9.199210">
        <ele>37.254</ele>
        <time>2019-06-21T16:25:49Z</time>
      </trkpt>
      <trkpt lat="43.084307" lon="-9.199109">
        <ele>39.871</ele>
        <time>2019-06-21T16:25:50Z</time>
      </trkpt>
      <trkpt lat="43.084459" lon="-9.198956">
        <ele>41.347</ele>
        <time>2019-06-21T16:25:51Z</time>
      </trkpt>
      <trkpt lat="43.084615" lon="-9.198827">
        <ele>42.411</ele>
        <time>2019-06-21T16:25:52Z</time>
      </trkpt>
      <trkpt lat="43.084750" lon="-9.198734">
        <ele>43.143</ele>
        <time>2019-06-21T16:25:53Z</time>
      </trkpt>
      <trkpt lat="43.084906" lon="-9.198648">
        <ele>44.539</ele>
        <time>2019-06-21T16:25:54Z</time>
      </trkpt>
      <trkpt lat="43.085048" lon="-9.198558">
        <ele>45.801</ele>
        <time>2019-06-21T16:25:55Z</time>
      </trkpt>
      <trkpt lat="43.085187" lon="-9.198478">
        <ele>46.121</ele>
        <time>2019-06-21T16:25:56Z</time>
      </trkpt>
      <trkpt lat="43.085351" lon="-9.198428">
        <ele>46.908</ele>
        <time>2019-06-21T16:25:57Z</time>
      </trkpt>
      <trkpt lat="43.085528" lon="-9.198379">
        <ele>47.526</ele>
        <time>2019-06-21T16:25:58Z</time>
      </trkpt>
      <trkpt lat="43.085698" lon="-9.198339">
        <ele>49.140</ele>
        <time>2019-06-21T16:25:59Z</time>
      </trkpt>
      <trkpt lat="43.085894" lon="-9.198347">
        <ele>51.362</ele>
        <time>2019-06-21T16:26:00Z</time>
      </trkpt>
      <trkpt lat="43.086076" lon="-9.198335">
        <ele>51.924</ele>
        <time>2019-06-21T16:26:01Z</time>
      </trkpt>
      <trkpt lat="43.086236" lon="-9.198422">
        <ele>53.791</ele>
        <time>2019-06-21T16:26:02Z</time>
      </trkpt>
      <trkpt lat="43.086412" lon="-9.198470">
        <ele>55.197</ele>
        <time>2019-06-21T16:26:03Z</time>
      </trkpt>
      <trkpt lat="43.086591" lon="-9.198536">
        <ele>57.241</ele>
        <time>2019-06-21T16:26:04Z</time>
      </trkpt>
      <trkpt lat="43.086800" lon="-9.198605">
        <ele>59.843</ele>
        <time>2019-06-21T16:26:05Z</time>
      </trkpt>
      <trkpt lat="43.086977" lon="-9.198663">
        <ele>62.698</ele>
        <time>2019-06-21T16:26:06Z</time>
      </trkpt>
      <trkpt lat="43.087171" lon="-9.198707">
        <ele>64.015</ele>
        <time>2019-06-21T16:26:07Z</time>
      </trkpt>
      <trkpt lat="43.087382" lon="-9.198723">
        <ele>65.026</ele>
        <time>2019-06-21T16:26:08Z</time>
      </trkpt>
      <trkpt lat="43.087554" lon="-9.198756">
        <ele>66.608</ele>
        <time>2019-06-21T16:26:09Z</time>
      </trkpt>
      <trkpt lat="43.087736" lon="-9.198747">
        <ele>68.162</ele>
        <time>2019-06-21T16:26:10Z</time>
      </trkpt>
      <trkpt lat="43.087913" lon="-9.198728">
        <ele>68.456</ele>
        <time>2019-06-21T16:26:11Z</time>
      </trkpt>
      <trkpt lat="43.088041" lon="-9.198694">
        <ele>68.258</ele>
        <time>2019-06-21T16:26:12Z</time>
      </trkpt>
      <trkpt lat="43.088207" lon="-9.198686">
        <ele>68.620</ele>
        <time>2019-06-21T16:26:13Z</time>
      </trkpt>
      <trkpt lat="43.088356" lon="-9.198700">
        <ele>69.257</ele>
        <time>2019-06-21T16:26:14Z</time>
      </trkpt>
      <trkpt lat="43.088487" lon="-9.198761">
        <ele>69.913</ele>
        <time>2019-06-21T16:26:15Z</time>
      </trkpt>
      <trkpt lat="43.088619" lon="-9.198852">
        <ele>71.497</ele>
        <time>2019-06-21T16:26:16Z</time>
      </trkpt>
      <trkpt lat="43.088711" lon="-9.198952">
        <ele>73.499</ele>
        <time>2019-06-21T16:26:17Z</time>
      </trkpt>
      <trkpt lat="43.088804" lon="-9.199116">
        <ele>77.177</ele>
        <time>2019-06-21T16:26:18Z</time>
      </trkpt>
      <trkpt lat="43.088863" lon="-9.199304">
        <ele>80.861</ele>
        <time>2019-06-21T16:26:19Z</time>
      </trkpt>
      <trkpt lat="43.088887" lon="-9.199493">
        <ele>83.927</ele>
        <time>2019-06-21T16:26:20Z</time>
      </trkpt>
      <trkpt lat="43.088878" lon="-9.199701">
        <ele>87.508</ele>
        <time>2019-06-21T16:26:21Z</time>
      </trkpt>
      <trkpt lat="43.088834" lon="-9.199896">
        <ele>90.120</ele>
        <time>2019-06-21T16:26:22Z</time>
      </trkpt>
      <trkpt lat="43.088752" lon="-9.200087">
        <ele>92.354</ele>
        <time>2019-06-21T16:26:23Z</time>
      </trkpt>
      <trkpt lat="43.088653" lon="-9.200280">
        <ele>93.636</ele>
        <time>2019-06-21T16:26:24Z</time>
      </trkpt>
      <trkpt lat="43.088542" lon="-9.200460">
        <ele>93.128</ele>
        <time>2019-06-21T16:26:25Z</time>
      </trkpt>
      <trkpt lat="43.088423" lon="-9.200635">
        <ele>93.215</ele>
        <time>2019-06-21T16:26:26Z</time>
      </trkpt>
      <trkpt lat="43.088302" lon="-9.200808">
        <ele>93.591</ele>
        <time>2019-06-21T16:26:27Z</time>
      </trkpt>
      <trkpt lat="43.088194" lon="-9.200992">
        <ele>93.945</ele>
        <time>2019-06-21T16:26:28Z</time>
      </trkpt>
      <trkpt lat="43.088105" lon="-9.201178">
        <ele>94.347</ele>
        <time>2019-06-21T16:26:29Z</time>
      </trkpt>
      <trkpt lat="43.088013" lon="-9.201360">
        <ele>94.076</ele>
        <time>2019-06-21T16:26:30Z</time>
      </trkpt>
      <trkpt lat="43.087945" lon="-9.201545">
        <ele>94.190</ele>
        <time>2019-06-21T16:26:31Z</time>
      </trkpt>
      <trkpt lat="43.087882" lon="-9.201725">
        <ele>94.219</ele>
        <time>2019-06-21T16:26:32Z</time>
      </trkpt>
      <trkpt lat="43.087971" lon="-9.202030">
        <ele>97.208</ele>
        <time>2019-06-21T16:26:33Z</time>
      </trkpt>
      <trkpt lat="43.087984" lon="-9.202246">
        <ele>98.370</ele>
        <time>2019-06-21T16:26:34Z</time>
      </trkpt>
      <trkpt lat="43.088032" lon="-9.202452">
        <ele>99.644</ele>
        <time>2019-06-21T16:26:35Z</time>
      </trkpt>
      <trkpt lat="43.088090" lon="-9.202661">
        <ele>100.876</ele>
        <time>2019-06-21T16:26:36Z</time>
      </trkpt>
      <trkpt lat="43.088182" lon="-9.202878">
        <ele>102.198</ele>
        <time>2019-06-21T16:26:37Z</time>
      </trkpt>
      <trkpt lat="43.088319" lon="-9.203035">
        <ele>102.925</ele>
        <time>2019-06-21T16:26:38Z</time>
      </trkpt>
      <trkpt lat="43.088404" lon="-9.203227">
        <ele>103.351</ele>
        <time>2019-06-21T16:26:39Z</time>
      </trkpt>
      <trkpt lat="43.088487" lon="-9.203405">
        <ele>103.455</ele>
        <time>2019-06-21T16:26:40Z</time>
      </trkpt>
      <trkpt lat="43.088562" lon="-9.203579">
        <ele>102.547</ele>
        <time>2019-06-21T16:26:41Z</time>
      </trkpt>
      <trkpt lat="43.088638" lon="-9.203745">
        <ele>101.165</ele>
        <time>2019-06-21T16:26:42Z</time>
      </trkpt>
      <trkpt lat="43.088720" lon="-9.203902">
        <ele>99.968</ele>
        <time>2019-06-21T16:26:43Z</time>
      </trkpt>
      <trkpt lat="43.088810" lon="-9.204050">
        <ele>98.414</ele>
        <time>2019-06-21T16:26:44Z</time>
      </trkpt>
      <trkpt lat="43.088902" lon="-9.204190">
        <ele>97.008</ele>
        <time>2019-06-21T16:26:45Z</time>
      </trkpt>
      <trkpt lat="43.089004" lon="-9.204319">
        <ele>96.689</ele>
        <time>2019-06-21T16:26:46Z</time>
      </trkpt>
      <trkpt lat="43.089121" lon="-9.204439">
        <ele>95.253</ele>
        <time>2019-06-21T16:26:47Z</time>
      </trkpt>
      <trkpt lat="43.089250" lon="-9.204523">
        <ele>93.585</ele>
        <time>2019-06-21T16:26:48Z</time>
      </trkpt>
      <trkpt lat="43.089390" lon="-9.204600">
        <ele>91.317</ele>
        <time>2019-06-21T16:26:49Z</time>
      </trkpt>
      <trkpt lat="43.089536" lon="-9.204677">
        <ele>89.744</ele>
        <time>2019-06-21T16:26:50Z</time>
      </trkpt>
      <trkpt lat="43.089678" lon="-9.204756">
        <ele>88.380</ele>
        <time>2019-06-21T16:26:51Z</time>
      </trkpt>
      <trkpt lat="43.089815" lon="-9.204837">
        <ele>86.714</ele>
        <time>2019-06-21T16:26:52Z</time>
      </trkpt>
      <trkpt lat="43.089953" lon="-9.204916">
        <ele>85.166</ele>
        <time>2019-06-21T16:26:53Z</time>
      </trkpt>
      <trkpt lat="43.090089" lon="-9.204991">
        <ele>83.233</ele>
        <time>2019-06-21T16:26:54Z</time>
      </trkpt>
      <trkpt lat="43.090220" lon="-9.205064">
        <ele>81.623</ele>
        <time>2019-06-21T16:26:55Z</time>
      </trkpt>
      <trkpt lat="43.090344" lon="-9.205128">
        <ele>80.315</ele>
        <time>2019-06-21T16:26:56Z</time>
      </trkpt>
      <trkpt lat="43.090461" lon="-9.205185">
        <ele>79.408</ele>
        <time>2019-06-21T16:26:57Z</time>
      </trkpt>
      <trkpt lat="43.090607" lon="-9.205241">
        <ele>78.736</ele>
        <time>2019-06-21T16:26:58Z</time>
      </trkpt>
      <trkpt lat="43.090747" lon="-9.205302">
        <ele>77.510</ele>
        <time>2019-06-21T16:26:59Z</time>
      </trkpt>
      <trkpt lat="43.090881" lon="-9.205358">
        <ele>76.012</ele>
        <time>2019-06-21T16:27:00Z</time>
      </trkpt>
      <trkpt lat="43.091049" lon="-9.205405">
        <ele>74.164</ele>
        <time>2019-06-21T16:27:01Z</time>
      </trkpt>
      <trkpt lat="43.091207" lon="-9.205447">
        <ele>72.991</ele>
        <time>2019-06-21T16:27:02Z</time>
      </trkpt>
      <trkpt lat="43.091369" lon="-9.205481">
        <ele>72.627</ele>
        <time>2019-06-21T16:27:03Z</time>
      </trkpt>
      <trkpt lat="43.091519" lon="-9.205519">
        <ele>72.351</ele>
        <time>2019-06-21T16:27:04Z</time>
      </trkpt>
      <trkpt lat="43.091667" lon="-9.205558">
        <ele>72.033</ele>
        <time>2019-06-21T16:27:05Z</time>
      </trkpt>
      <trkpt lat="43.091819" lon="-9.205607">
        <ele>71.945</ele>
        <time>2019-06-21T16:27:06Z</time>
      </trkpt>
      <trkpt lat="43.091951" lon="-9.205652">
        <ele>71.647</ele>
        <time>2019-06-21T16:27:07Z</time>
      </trkpt>
      <trkpt lat="43.092049" lon="-9.205753">
        <ele>70.211</ele>
        <time>2019-06-21T16:27:08Z</time>
      </trkpt>
      <trkpt lat="43.092147" lon="-9.205865">
        <ele>68.708</ele>
        <time>2019-06-21T16:27:09Z</time>
      </trkpt>
      <trkpt lat="43.092246" lon="-9.206006">
        <ele>68.147</ele>
        <time>2019-06-21T16:27:10Z</time>
      </trkpt>
      <trkpt lat="43.092327" lon="-9.206178">
        <ele>68.231</ele>
        <time>2019-06-21T16:27:11Z</time>
      </trkpt>
      <trkpt lat="43.092384" lon="-9.206365">
        <ele>68.253</ele>
        <time>2019-06-21T16:27:12Z</time>
      </trkpt>
      <trkpt lat="43.092435" lon="-9.206572">
        <ele>67.425</ele>
        <time>2019-06-21T16:27:13Z</time>
      </trkpt>
      <trkpt lat="43.092468" lon="-9.206787">
        <ele>65.132</ele>
        <time>2019-06-21T16:27:14Z</time>
      </trkpt>
      <trkpt lat="43.092497" lon="-9.206995">
        <ele>62.018</ele>
        <time>2019-06-21T16:27:15Z</time>
      </trkpt>
      <trkpt lat="43.092523" lon="-9.207207">
        <ele>58.722</ele>
        <time>2019-06-21T16:27:16Z</time>
      </trkpt>
      <trkpt lat="43.092561" lon="-9.207408">
        <ele>56.964</ele>
        <time>2019-06-21T16:27:17Z</time>
      </trkpt>
      <trkpt lat="43.092604" lon="-9.207592">
        <ele>55.767</ele>
        <time>2019-06-21T16:27:18Z</time>
      </trkpt>
      <trkpt lat="43.092656" lon="-9.207771">
        <ele>54.781</ele>
        <time>2019-06-21T16:27:19Z</time>
      </trkpt>
      <trkpt lat="43.092719" lon="-9.207928">
        <ele>54.719</ele>
        <time>2019-06-21T16:27:20Z</time>
      </trkpt>
      <trkpt lat="43.092779" lon="-9.208089">
        <ele>54.708</ele>
        <time>2019-06-21T16:27:21Z</time>
      </trkpt>
      <trkpt lat="43.092874" lon="-9.208213">
        <ele>54.529</ele>
        <time>2019-06-21T16:27:22Z</time>
      </trkpt>
      <trkpt lat="43.092969" lon="-9.208305">
        <ele>55.033</ele>
        <time>2019-06-21T16:27:23Z</time>
      </trkpt>
      <trkpt lat="43.093073" lon="-9.208395">
        <ele>55.745</ele>
        <time>2019-06-21T16:27:24Z</time>
      </trkpt>
      <trkpt lat="43.093198" lon="-9.208466">
        <ele>56.117</ele>
        <time>2019-06-21T16:27:25Z</time>
      </trkpt>
      <trkpt lat="43.093384" lon="-9.208569">
        <ele>56.014</ele>
        <time>2019-06-21T16:27:26Z</time>
      </trkpt>
      <trkpt lat="43.093504" lon="-9.208662">
        <ele>54.210</ele>
        <time>2019-06-21T16:27:27Z</time>
      </trkpt>
      <trkpt lat="43.093699" lon="-9.208737">
        <ele>50.934</ele>
        <time>2019-06-21T16:27:28Z</time>
      </trkpt>
      <trkpt lat="43.093953" lon="-9.208727">
        <ele>47.546</ele>
        <time>2019-06-21T16:27:29Z</time>
      </trkpt>
      <trkpt lat="43.094168" lon="-9.208729">
        <ele>44.955</ele>
        <time>2019-06-21T16:27:30Z</time>
      </trkpt>
      <trkpt lat="43.094332" lon="-9.208761">
        <ele>43.107</ele>
        <time>2019-06-21T16:27:31Z</time>
      </trkpt>
      <trkpt lat="43.094493" lon="-9.208800">
        <ele>41.617</ele>
        <time>2019-06-21T16:27:32Z</time>
      </trkpt>
      <trkpt lat="43.094678" lon="-9.208866">
        <ele>40.408</ele>
        <time>2019-06-21T16:27:33Z</time>
      </trkpt>
      <trkpt lat="43.094834" lon="-9.208904">
        <ele>40.538</ele>
        <time>2019-06-21T16:27:34Z</time>
      </trkpt>
      <trkpt lat="43.094979" lon="-9.208991">
        <ele>39.792</ele>
        <time>2019-06-21T16:27:35Z</time>
      </trkpt>
      <trkpt lat="43.095151" lon="-9.209087">
        <ele>37.634</ele>
        <time>2019-06-21T16:27:36Z</time>
      </trkpt>
      <trkpt lat="43.095315" lon="-9.209193">
        <ele>35.626</ele>
        <time>2019-06-21T16:27:37Z</time>
      </trkpt>
      <trkpt lat="43.095482" lon="-9.209282">
        <ele>34.023</ele>
        <time>2019-06-21T16:27:38Z</time>
      </trkpt>
      <trkpt lat="43.095643" lon="-9.209391">
        <ele>33.299</ele>
        <time>2019-06-21T16:27:39Z</time>
      </trkpt>
      <trkpt lat="43.095791" lon="-9.209504">
        <ele>33.413</ele>
        <time>2019-06-21T16:27:40Z</time>
      </trkpt>
      <trkpt lat="43.095946" lon="-9.209605">
        <ele>32.115</ele>
        <time>2019-06-21T16:27:41Z</time>
      </trkpt>
      <trkpt lat="43.096101" lon="-9.209692">
        <ele>30.551</ele>
        <time>2019-06-21T16:27:42Z</time>
      </trkpt>
      <trkpt lat="43.096226" lon="-9.209785">
        <ele>29.201</ele>
        <time>2019-06-21T16:27:43Z</time>
      </trkpt>
      <trkpt lat="43.096364" lon="-9.209856">
        <ele>28.511</ele>
        <time>2019-06-21T16:27:44Z</time>
      </trkpt>
      <trkpt lat="43.096515" lon="-9.209936">
        <ele>27.208</ele>
        <time>2019-06-21T16:27:45Z</time>
      </trkpt>
      <trkpt lat="43.096656" lon="-9.210021">
        <ele>25.918</ele>
        <time>2019-06-21T16:27:46Z</time>
      </trkpt>
      <trkpt lat="43.096809" lon="-9.210130">
        <ele>24.622</ele>
        <time>2019-06-21T16:27:47Z</time>
      </trkpt>
      <trkpt lat="43.096925" lon="-9.210247">
        <ele>23.324</ele>
        <time>2019-06-21T16:27:48Z</time>
      </trkpt>
      <trkpt lat="43.097015" lon="-9.210371">
        <ele>22.536</ele>
        <time>2019-06-21T16:27:49Z</time>
      </trkpt>
      <trkpt lat="43.097108" lon="-9.210510">
        <ele>21.413</ele>
        <time>2019-06-21T16:27:50Z</time>
      </trkpt>
      <trkpt lat="43.097198" lon="-9.210670">
        <ele>19.839</ele>
        <time>2019-06-21T16:27:51Z</time>
      </trkpt>
      <trkpt lat="43.097264" lon="-9.210850">
        <ele>18.293</ele>
        <time>2019-06-21T16:27:52Z</time>
      </trkpt>
      <trkpt lat="43.097347" lon="-9.211036">
        <ele>17.885</ele>
        <time>2019-06-21T16:27:53Z</time>
      </trkpt>
      <trkpt lat="43.097416" lon="-9.211218">
        <ele>17.457</ele>
        <time>2019-06-21T16:27:54Z</time>
      </trkpt>
      <trkpt lat="43.097490" lon="-9.211400">
        <ele>17.000</ele>
        <time>2019-06-21T16:27:55Z</time>
      </trkpt>
      <trkpt lat="43.097567" lon="-9.211571">
        <ele>15.820</ele>
        <time>2019-06-21T16:27:56Z</time>
      </trkpt>
      <trkpt lat="43.097642" lon="-9.211740">
        <ele>13.808</ele>
        <time>2019-06-21T16:27:57Z</time>
      </trkpt>
      <trkpt lat="43.097708" lon="-9.211909">
        <ele>12.218</ele>
        <time>2019-06-21T16:27:58Z</time>
      </trkpt>
      <trkpt lat="43.097772" lon="-9.212080">
        <ele>10.562</ele>
        <time>2019-06-21T16:27:59Z</time>
      </trkpt>
      <trkpt lat="43.097844" lon="-9.212259">
        <ele>8.684</ele>
        <time>2019-06-21T16:28:00Z</time>
      </trkpt>
      <trkpt lat="43.097917" lon="-9.212427">
        <ele>7.266</ele>
        <time>2019-06-21T16:28:01Z</time>
      </trkpt>
      <trkpt lat="43.098003" lon="-9.212578">
        <ele>6.293</ele>
        <time>2019-06-21T16:28:02Z</time>
      </trkpt>
      <trkpt lat="43.098114" lon="-9.212718">
        <ele>5.889</ele>
        <time>2019-06-21T16:28:03Z</time>
      </trkpt>
      <trkpt lat="43.098225" lon="-9.212856">
        <ele>5.983</ele>
        <time>2019-06-21T16:28:04Z</time>
      </trkpt>
      <trkpt lat="43.098362" lon="-9.212892">
        <ele>6.525</ele>
        <time>2019-06-21T16:28:05Z</time>
      </trkpt>
      <trkpt lat="43.098493" lon="-9.212975">
        <ele>5.915</ele>
        <time>2019-06-21T16:28:06Z</time>
      </trkpt>
      <trkpt lat="43.098659" lon="-9.213005">
        <ele>5.365</ele>
        <time>2019-06-21T16:28:07Z</time>
      </trkpt>
      <trkpt lat="43.098842" lon="-9.213032">
        <ele>5.111</ele>
        <time>2019-06-21T16:28:08Z</time>
      </trkpt>
      <trkpt lat="43.099034" lon="-9.213073">
        <ele>4.508</ele>
        <time>2019-06-21T16:28:09Z</time>
      </trkpt>
      <trkpt lat="43.099210" lon="-9.213106">
        <ele>4.514</ele>
        <time>2019-06-21T16:28:10Z</time>
      </trkpt>
      <trkpt lat="43.099389" lon="-9.213146">
        <ele>4.948</ele>
        <time>2019-06-21T16:28:11Z</time>
      </trkpt>
      <trkpt lat="43.099570" lon="-9.213184">
        <ele>5.220</ele>
        <time>2019-06-21T16:28:12Z</time>
      </trkpt>
      <trkpt lat="43.099772" lon="-9.213212">
        <ele>5.632</ele>
        <time>2019-06-21T16:28:13Z</time>
      </trkpt>
      <trkpt lat="43.099961" lon="-9.213242">
        <ele>6.519</ele>
        <time>2019-06-21T16:28:14Z</time>
      </trkpt>
      <trkpt lat="43.100144" lon="-9.213263">
        <ele>7.165</ele>
        <time>2019-06-21T16:28:15Z</time>
      </trkpt>
      <trkpt lat="43.100330" lon="-9.213314">
        <ele>7.899</ele>
        <time>2019-06-21T16:28:16Z</time>
      </trkpt>
      <trkpt lat="43.100505" lon="-9.213350">
        <ele>8.361</ele>
        <time>2019-06-21T16:28:17Z</time>
      </trkpt>
      <trkpt lat="43.100680" lon="-9.213384">
        <ele>9.521</ele>
        <time>2019-06-21T16:28:18Z</time>
      </trkpt>
      <trkpt lat="43.100835" lon="-9.213414">
        <ele>11.041</ele>
        <time>2019-06-21T16:28:19Z</time>
      </trkpt>
      <trkpt lat="43.100995" lon="-9.213446">
        <ele>11.405</ele>
        <time>2019-06-21T16:28:20Z</time>
      </trkpt>
      <trkpt lat="43.101152" lon="-9.213487">
        <ele>11.308</ele>
        <time>2019-06-21T16:28:21Z</time>
      </trkpt>
      <trkpt lat="43.101297" lon="-9.213540">
        <ele>10.785</ele>
        <time>2019-06-21T16:28:22Z</time>
      </trkpt>
      <trkpt lat="43.101451" lon="-9.213594">
        <ele>10.739</ele>
        <time>2019-06-21T16:28:23Z</time>
      </trkpt>
      <trkpt lat="43.101592" lon="-9.213649">
        <ele>11.671</ele>
        <time>2019-06-21T16:28:24Z</time>
      </trkpt>
      <trkpt lat="43.101737" lon="-9.213707">
        <ele>12.043</ele>
        <time>2019-06-21T16:28:25Z</time>
      </trkpt>
      <trkpt lat="43.101854" lon="-9.213785">
        <ele>12.470</ele>
        <time>2019-06-21T16:28:26Z</time>
      </trkpt>
      <trkpt lat="43.101953" lon="-9.213847">
        <ele>12.586</ele>
        <time>2019-06-21T16:28:27Z</time>
      </trkpt>
      <trkpt lat="43.102075" lon="-9.213902">
        <ele>11.790</ele>
        <time>2019-06-21T16:28:28Z</time>
      </trkpt>
      <trkpt lat="43.102101" lon="-9.213971">
        <ele>12.232</ele>
        <time>2019-06-21T16:28:29Z</time>
      </trkpt>
      <trkpt lat="43.102189" lon="-9.214024">
        <ele>11.823</ele>
        <time>2019-06-21T16:28:30Z</time>
      </trkpt>
      <trkpt lat="43.102285" lon="-9.214078">
        <ele>11.283</ele>
        <time>2019-06-21T16:28:31Z</time>
      </trkpt>
      <trkpt lat="43.102314" lon="-9.214155">
        <ele>12.411</ele>
        <time>2019-06-21T16:28:32Z</time>
      </trkpt>
      <trkpt lat="43.102383" lon="-9.214251">
        <ele>12.908</ele>
        <time>2019-06-21T16:28:33Z</time>
      </trkpt>
      <trkpt lat="43.102499" lon="-9.214359">
        <ele>12.785</ele>
        <time>2019-06-21T16:28:34Z</time>
      </trkpt>
      <trkpt lat="43.102589" lon="-9.214474">
        <ele>12.549</ele>
        <time>2019-06-21T16:28:35Z</time>
      </trkpt>
      <trkpt lat="43.102673" lon="-9.214576">
        <ele>12.241</ele>
        <time>2019-06-21T16:28:36Z</time>
      </trkpt>
      <trkpt lat="43.102761" lon="-9.214684">
        <ele>12.023</ele>
        <time>2019-06-21T16:28:37Z</time>
      </trkpt>
      <trkpt lat="43.102813" lon="-9.214802">
        <ele>11.840</ele>
        <time>2019-06-21T16:28:38Z</time>
      </trkpt>
      <trkpt lat="43.102896" lon="-9.214916">
        <ele>11.326</ele>
        <time>2019-06-21T16:28:39Z</time>
      </trkpt>
      <trkpt lat="43.102967" lon="-9.215023">
        <ele>10.910</ele>
        <time>2019-06-21T16:28:40Z</time>
      </trkpt>
      <trkpt lat="43.103048" lon="-9.215153">
        <ele>10.152</ele>
        <time>2019-06-21T16:28:41Z</time>
      </trkpt>
      <trkpt lat="43.103137" lon="-9.215281">
        <ele>10.311</ele>
        <time>2019-06-21T16:28:42Z</time>
      </trkpt>
      <trkpt lat="43.103226" lon="-9.215411">
        <ele>9.521</ele>
        <time>2019-06-21T16:28:43Z</time>
      </trkpt>
      <trkpt lat="43.103310" lon="-9.215543">
        <ele>8.203</ele>
        <time>2019-06-21T16:28:44Z</time>
      </trkpt>
      <trkpt lat="43.103400" lon="-9.215667">
        <ele>7.108</ele>
        <time>2019-06-21T16:28:45Z</time>
      </trkpt>
      <trkpt lat="43.103496" lon="-9.215785">
        <ele>6.044</ele>
        <time>2019-06-21T16:28:46Z</time>
      </trkpt>
      <trkpt lat="43.103587" lon="-9.215894">
        <ele>5.428</ele>
        <time>2019-06-21T16:28:47Z</time>
      </trkpt>
      <trkpt lat="43.103670" lon="-9.216017">
        <ele>6.170</ele>
        <time>2019-06-21T16:28:48Z</time>
      </trkpt>
      <trkpt lat="43.103759" lon="-9.216151">
        <ele>7.232</ele>
        <time>2019-06-21T16:28:49Z</time>
      </trkpt>
      <trkpt lat="43.103861" lon="-9.216269">
        <ele>8.439</ele>
        <time>2019-06-21T16:28:50Z</time>
      </trkpt>
      <trkpt lat="43.103962" lon="-9.216362">
        <ele>8.935</ele>
        <time>2019-06-21T16:28:51Z</time>
      </trkpt>
      <trkpt lat="43.104047" lon="-9.216452">
        <ele>9.059</ele>
        <time>2019-06-21T16:28:52Z</time>
      </trkpt>
      <trkpt lat="43.104153" lon="-9.216524">
        <ele>9.021</ele>
        <time>2019-06-21T16:28:53Z</time>
      </trkpt>
      <trkpt lat="43.104254" lon="-9.216582">
        <ele>8.364</ele>
        <time>2019-06-21T16:28:54Z</time>
      </trkpt>
      <trkpt lat="43.104358" lon="-9.216626">
        <ele>7.506</ele>
        <time>2019-06-21T16:28:55Z</time>
      </trkpt>
      <trkpt lat="43.104462" lon="-9.216666">
        <ele>7.016</ele>
        <time>2019-06-21T16:28:56Z</time>
      </trkpt>
      <trkpt lat="43.104586" lon="-9.216698">
        <ele>7.108</ele>
        <time>2019-06-21T16:28:57Z</time>
      </trkpt>
      <trkpt lat="43.104696" lon="-9.216740">
        <ele>7.389</ele>
        <time>2019-06-21T16:28:58Z</time>
      </trkpt>
      <trkpt lat="43.104795" lon="-9.216783">
        <ele>7.593</ele>
        <time>2019-06-21T16:28:59Z</time>
      </trkpt>
      <trkpt lat="43.104893" lon="-9.216815">
        <ele>7.995</ele>
        <time>2019-06-21T16:29:00Z</time>
      </trkpt>
      <trkpt lat="43.104956" lon="-9.216860">
        <ele>8.377</ele>
        <time>2019-06-21T16:29:01Z</time>
      </trkpt>
      <trkpt lat="43.105037" lon="-9.216904">
        <ele>8.694</ele>
        <time>2019-06-21T16:29:02Z</time>
      </trkpt>
      <trkpt lat="43.105097" lon="-9.216948">
        <ele>8.780</ele>
        <time>2019-06-21T16:29:03Z</time>
      </trkpt>
      <trkpt lat="43.105155" lon="-9.216994">
        <ele>8.844</ele>
        <time>2019-06-21T16:29:04Z</time>
      </trkpt>
      <trkpt lat="43.105221" lon="-9.217043">
        <ele>9.126</ele>
        <time>2019-06-21T16:29:05Z</time>
      </trkpt>
      <trkpt lat="43.105264" lon="-9.217020">
        <ele>8.851</ele>
        <time>2019-06-21T16:29:06Z</time>
      </trkpt>
      <trkpt lat="43.105333" lon="-9.217030">
        <ele>8.901</ele>
        <time>2019-06-21T16:29:07Z</time>
      </trkpt>
      <trkpt lat="43.105392" lon="-9.217031">
        <ele>8.811</ele>
        <time>2019-06-21T16:29:08Z</time>
      </trkpt>
      <trkpt lat="43.105442" lon="-9.217028">
        <ele>8.708</ele>
        <time>2019-06-21T16:29:09Z</time>
      </trkpt>
      <trkpt lat="43.105500" lon="-9.217002">
        <ele>8.548</ele>
        <time>2019-06-21T16:29:10Z</time>
      </trkpt>
      <trkpt lat="43.105555" lon="-9.216982">
        <ele>8.372</ele>
        <time>2019-06-21T16:29:11Z</time>
      </trkpt>
      <trkpt lat="43.105606" lon="-9.216948">
        <ele>7.874</ele>
        <time>2019-06-21T16:29:12Z</time>
      </trkpt>
      <trkpt lat="43.105666" lon="-9.216898">
        <ele>7.176</ele>
        <time>2019-06-21T16:29:13Z</time>
      </trkpt>
      <trkpt lat="43.105719" lon="-9.216882">
        <ele>6.853</ele>
        <time>2019-06-21T16:29:14Z</time>
      </trkpt>
      <trkpt lat="43.105764" lon="-9.216854">
        <ele>6.469</ele>
        <time>2019-06-21T16:29:15Z</time>
      </trkpt>
      <trkpt lat="43.105801" lon="-9.216811">
        <ele>6.043</ele>
        <time>2019-06-21T16:29:16Z</time>
      </trkpt>
      <trkpt lat="43.105838" lon="-9.216771">
        <ele>5.865</ele>
        <time>2019-06-21T16:29:18Z</time>
      </trkpt>
      <trkpt lat="43.105897" lon="-9.216744">
        <ele>5.885</ele>
        <time>2019-06-21T16:29:21Z</time>
      </trkpt>
      <trkpt lat="43.105944" lon="-9.216760">
        <ele>6.189</ele>
        <time>2019-06-21T16:29:24Z</time>
      </trkpt>
      <trkpt lat="43.105993" lon="-9.216795">
        <ele>6.517</ele>
        <time>2019-06-21T16:29:26Z</time>
      </trkpt>
      <trkpt lat="43.106039" lon="-9.216859">
        <ele>7.108</ele>
        <time>2019-06-21T16:29:28Z</time>
      </trkpt>
      <trkpt lat="43.106084" lon="-9.216937">
        <ele>7.841</ele>
        <time>2019-06-21T16:29:30Z</time>
      </trkpt>
      <trkpt lat="43.106128" lon="-9.217017">
        <ele>8.545</ele>
        <time>2019-06-21T16:29:32Z</time>
      </trkpt>
      <trkpt lat="43.106175" lon="-9.217109">
        <ele>9.237</ele>
        <time>2019-06-21T16:29:34Z</time>
      </trkpt>
      <trkpt lat="43.106220" lon="-9.217203">
        <ele>9.939</ele>
        <time>2019-06-21T16:29:36Z</time>
      </trkpt>
      <trkpt lat="43.106278" lon="-9.217264">
        <ele>10.396</ele>
        <time>2019-06-21T16:29:38Z</time>
      </trkpt>
      <trkpt lat="43.106354" lon="-9.217216">
        <ele>10.012</ele>
        <time>2019-06-21T16:29:39Z</time>
      </trkpt>
      <trkpt lat="43.106401" lon="-9.217202">
        <ele>9.926</ele>
        <time>2019-06-21T16:29:40Z</time>
      </trkpt>
      <trkpt lat="43.106445" lon="-9.217179">
        <ele>10.168</ele>
        <time>2019-06-21T16:29:41Z</time>
      </trkpt>
      <trkpt lat="43.106502" lon="-9.217154">
        <ele>10.345</ele>
        <time>2019-06-21T16:29:42Z</time>
      </trkpt>
      <trkpt lat="43.106544" lon="-9.217185">
        <ele>10.847</ele>
        <time>2019-06-21T16:29:43Z</time>
      </trkpt>
      <trkpt lat="43.106590" lon="-9.217208">
        <ele>11.311</ele>
        <time>2019-06-21T16:29:44Z</time>
      </trkpt>
      <trkpt lat="43.106644" lon="-9.217219">
        <ele>11.808</ele>
        <time>2019-06-21T16:29:45Z</time>
      </trkpt>
      <trkpt lat="43.106724" lon="-9.217229">
        <ele>12.087</ele>
        <time>2019-06-21T16:29:47Z</time>
      </trkpt>
      <trkpt lat="43.106772" lon="-9.217236">
        <ele>12.151</ele>
        <time>2019-06-21T16:29:48Z</time>
      </trkpt>
      <trkpt lat="43.106825" lon="-9.217270">
        <ele>12.333</ele>
        <time>2019-06-21T16:29:49Z</time>
      </trkpt>
      <trkpt lat="43.106876" lon="-9.217280">
        <ele>12.465</ele>
        <time>2019-06-21T16:29:50Z</time>
      </trkpt>
      <trkpt lat="43.106919" lon="-9.217257">
        <ele>12.282</ele>
        <time>2019-06-21T16:29:51Z</time>
      </trkpt>
      <trkpt lat="43.106977" lon="-9.217245">
        <ele>12.298</ele>
        <time>2019-06-21T16:29:52Z</time>
      </trkpt>
      <trkpt lat="43.107043" lon="-9.217254">
        <ele>12.222</ele>
        <time>2019-06-21T16:29:53Z</time>
      </trkpt>
      <trkpt lat="43.107108" lon="-9.217252">
        <ele>12.294</ele>
        <time>2019-06-21T16:29:54Z</time>
      </trkpt>
      <trkpt lat="43.107172" lon="-9.217244">
        <ele>12.231</ele>
        <time>2019-06-21T16:29:55Z</time>
      </trkpt>
      <trkpt lat="43.107256" lon="-9.217236">
        <ele>12.261</ele>
        <time>2019-06-21T16:29:57Z</time>
      </trkpt>
      <trkpt lat="43.107336" lon="-9.217237">
        <ele>12.507</ele>
        <time>2019-06-21T16:29:58Z</time>
      </trkpt>
      <trkpt lat="43.107393" lon="-9.217225">
        <ele>12.608</ele>
        <time>2019-06-21T16:29:59Z</time>
      </trkpt>
      <trkpt lat="43.107482" lon="-9.217226">
        <ele>13.076</ele>
        <time>2019-06-21T16:30:01Z</time>
      </trkpt>
      <trkpt lat="43.107554" lon="-9.217203">
        <ele>13.250</ele>
        <time>2019-06-21T16:30:02Z</time>
      </trkpt>
      <trkpt lat="43.107609" lon="-9.217187">
        <ele>13.572</ele>
        <time>2019-06-21T16:30:03Z</time>
      </trkpt>
      <trkpt lat="43.107685" lon="-9.217125">
        <ele>13.634</ele>
        <time>2019-06-21T16:30:06Z</time>
      </trkpt>
      <trkpt lat="43.107727" lon="-9.217094">
        <ele>13.721</ele>
        <time>2019-06-21T16:30:07Z</time>
      </trkpt>
      <trkpt lat="43.107771" lon="-9.216994">
        <ele>13.397</ele>
        <time>2019-06-21T16:30:09Z</time>
      </trkpt>
      <trkpt lat="43.107834" lon="-9.216922">
        <ele>13.411</ele>
        <time>2019-06-21T16:30:11Z</time>
      </trkpt>
      <trkpt lat="43.107901" lon="-9.216881">
        <ele>13.723</ele>
        <time>2019-06-21T16:30:12Z</time>
      </trkpt>
      <trkpt lat="43.107946" lon="-9.216850">
        <ele>13.762</ele>
        <time>2019-06-21T16:30:13Z</time>
      </trkpt>
      <trkpt lat="43.107994" lon="-9.216823">
        <ele>13.883</ele>
        <time>2019-06-21T16:30:14Z</time>
      </trkpt>
      <trkpt lat="43.108046" lon="-9.216796">
        <ele>13.811</ele>
        <time>2019-06-21T16:30:15Z</time>
      </trkpt>
      <trkpt lat="43.108104" lon="-9.216783">
        <ele>14.008</ele>
        <time>2019-06-21T16:30:16Z</time>
      </trkpt>
      <trkpt lat="43.108174" lon="-9.216769">
        <ele>14.289</ele>
        <time>2019-06-21T16:30:17Z</time>
      </trkpt>
      <trkpt lat="43.108248" lon="-9.216758">
        <ele>14.523</ele>
        <time>2019-06-21T16:30:18Z</time>
      </trkpt>
      <trkpt lat="43.108322" lon="-9.216744">
        <ele>14.685</ele>
        <time>2019-06-21T16:30:19Z</time>
      </trkpt>
      <trkpt lat="43.108402" lon="-9.216727">
        <ele>15.017</ele>
        <time>2019-06-21T16:30:20Z</time>
      </trkpt>
      <trkpt lat="43.108478" lon="-9.216725">
        <ele>15.844</ele>
        <time>2019-06-21T16:30:21Z</time>
      </trkpt>
      <trkpt lat="43.108561" lon="-9.216728">
        <ele>16.840</ele>
        <time>2019-06-21T16:30:22Z</time>
      </trkpt>
      <trkpt lat="43.108640" lon="-9.216727">
        <ele>17.144</ele>
        <time>2019-06-21T16:30:23Z</time>
      </trkpt>
      <trkpt lat="43.108719" lon="-9.216735">
        <ele>16.926</ele>
        <time>2019-06-21T16:30:24Z</time>
      </trkpt>
      <trkpt lat="43.108804" lon="-9.216746">
        <ele>16.752</ele>
        <time>2019-06-21T16:30:25Z</time>
      </trkpt>
      <trkpt lat="43.108896" lon="-9.216756">
        <ele>16.553</ele>
        <time>2019-06-21T16:30:26Z</time>
      </trkpt>
      <trkpt lat="43.108990" lon="-9.216769">
        <ele>16.408</ele>
        <time>2019-06-21T16:30:27Z</time>
      </trkpt>
      <trkpt lat="43.109086" lon="-9.216779">
        <ele>16.208</ele>
        <time>2019-06-21T16:30:28Z</time>
      </trkpt>
      <trkpt lat="43.109182" lon="-9.216791">
        <ele>16.328</ele>
        <time>2019-06-21T16:30:29Z</time>
      </trkpt>
      <trkpt lat="43.109274" lon="-9.216797">
        <ele>17.232</ele>
        <time>2019-06-21T16:30:30Z</time>
      </trkpt>
      <trkpt lat="43.109364" lon="-9.216803">
        <ele>18.214</ele>
        <time>2019-06-21T16:30:31Z</time>
      </trkpt>
      <trkpt lat="43.109456" lon="-9.216815">
        <ele>19.456</ele>
        <time>2019-06-21T16:30:32Z</time>
      </trkpt>
      <trkpt lat="43.109554" lon="-9.216826">
        <ele>20.593</ele>
        <time>2019-06-21T16:30:33Z</time>
      </trkpt>
      <trkpt lat="43.109646" lon="-9.216835">
        <ele>21.429</ele>
        <time>2019-06-21T16:30:34Z</time>
      </trkpt>
      <trkpt lat="43.109746" lon="-9.216857">
        <ele>22.373</ele>
        <time>2019-06-21T16:30:35Z</time>
      </trkpt>
      <trkpt lat="43.109838" lon="-9.216887">
        <ele>22.525</ele>
        <time>2019-06-21T16:30:36Z</time>
      </trkpt>
      <trkpt lat="43.109922" lon="-9.216912">
        <ele>22.648</ele>
        <time>2019-06-21T16:30:37Z</time>
      </trkpt>
      <trkpt lat="43.110010" lon="-9.216943">
        <ele>22.861</ele>
        <time>2019-06-21T16:30:38Z</time>
      </trkpt>
      <trkpt lat="43.110104" lon="-9.216980">
        <ele>22.117</ele>
        <time>2019-06-21T16:30:39Z</time>
      </trkpt>
      <trkpt lat="43.110197" lon="-9.217030">
        <ele>21.608</ele>
        <time>2019-06-21T16:30:40Z</time>
      </trkpt>
      <trkpt lat="43.110280" lon="-9.217082">
        <ele>21.597</ele>
        <time>2019-06-21T16:30:41Z</time>
      </trkpt>
      <trkpt lat="43.110369" lon="-9.217143">
        <ele>21.671</ele>
        <time>2019-06-21T16:30:42Z</time>
      </trkpt>
      <trkpt lat="43.110454" lon="-9.217197">
        <ele>21.663</ele>
        <time>2019-06-21T16:30:43Z</time>
      </trkpt>
      <trkpt lat="43.110529" lon="-9.217245">
        <ele>21.665</ele>
        <time>2019-06-21T16:30:44Z</time>
      </trkpt>
      <trkpt lat="43.110619" lon="-9.217304">
        <ele>21.352</ele>
        <time>2019-06-21T16:30:45Z</time>
      </trkpt>
      <trkpt lat="43.110697" lon="-9.217358">
        <ele>20.968</ele>
        <time>2019-06-21T16:30:46Z</time>
      </trkpt>
      <trkpt lat="43.110778" lon="-9.217411">
        <ele>20.552</ele>
        <time>2019-06-21T16:30:47Z</time>
      </trkpt>
      <trkpt lat="43.110865" lon="-9.217477">
        <ele>20.064</ele>
        <time>2019-06-21T16:30:48Z</time>
      </trkpt>
      <trkpt lat="43.110939" lon="-9.217551">
        <ele>19.634</ele>
        <time>2019-06-21T16:30:49Z</time>
      </trkpt>
      <trkpt lat="43.111035" lon="-9.217625">
        <ele>19.155</ele>
        <time>2019-06-21T16:30:50Z</time>
      </trkpt>
      <trkpt lat="43.111099" lon="-9.217708">
        <ele>19.710</ele>
        <time>2019-06-21T16:30:51Z</time>
      </trkpt>
      <trkpt lat="43.111190" lon="-9.217772">
        <ele>18.908</ele>
        <time>2019-06-21T16:30:52Z</time>
      </trkpt>
      <trkpt lat="43.111276" lon="-9.217841">
        <ele>17.926</ele>
        <time>2019-06-21T16:30:53Z</time>
      </trkpt>
      <trkpt lat="43.111363" lon="-9.217915">
        <ele>17.590</ele>
        <time>2019-06-21T16:30:54Z</time>
      </trkpt>
      <trkpt lat="43.111436" lon="-9.217982">
        <ele>17.622</ele>
        <time>2019-06-21T16:30:55Z</time>
      </trkpt>
      <trkpt lat="43.111514" lon="-9.218046">
        <ele>17.554</ele>
        <time>2019-06-21T16:30:56Z</time>
      </trkpt>
      <trkpt lat="43.111583" lon="-9.218101">
        <ele>17.511</ele>
        <time>2019-06-21T16:30:57Z</time>
      </trkpt>
      <trkpt lat="43.111638" lon="-9.218153">
        <ele>17.637</ele>
        <time>2019-06-21T16:30:58Z</time>
      </trkpt>
      <trkpt lat="43.111702" lon="-9.218215">
        <ele>17.711</ele>
        <time>2019-06-21T16:30:59Z</time>
      </trkpt>
      <trkpt lat="43.111763" lon="-9.218275">
        <ele>17.733</ele>
        <time>2019-06-21T16:31:00Z</time>
      </trkpt>
      <trkpt lat="43.111821" lon="-9.218332">
        <ele>17.654</ele>
        <time>2019-06-21T16:31:01Z</time>
      </trkpt>
      <trkpt lat="43.111875" lon="-9.218378">
        <ele>17.156</ele>
        <time>2019-06-21T16:31:02Z</time>
      </trkpt>
      <trkpt lat="43.111924" lon="-9.218415">
        <ele>16.611</ele>
        <time>2019-06-21T16:31:03Z</time>
      </trkpt>
      <trkpt lat="43.111962" lon="-9.218461">
        <ele>16.508</ele>
        <time>2019-06-21T16:31:04Z</time>
      </trkpt>
      <trkpt lat="43.111999" lon="-9.218504">
        <ele>16.458</ele>
        <time>2019-06-21T16:31:05Z</time>
      </trkpt>
      <trkpt lat="43.112038" lon="-9.218556">
        <ele>16.392</ele>
        <time>2019-06-21T16:31:06Z</time>
      </trkpt>
      <trkpt lat="43.112068" lon="-9.218609">
        <ele>16.384</ele>
        <time>2019-06-21T16:31:07Z</time>
      </trkpt>
      <trkpt lat="43.112104" lon="-9.218693">
        <ele>15.926</ele>
        <time>2019-06-21T16:31:09Z</time>
      </trkpt>
      <trkpt lat="43.112126" lon="-9.218757">
        <ele>15.873</ele>
        <time>2019-06-21T16:31:11Z</time>
      </trkpt>
      <trkpt lat="43.112129" lon="-9.218847">
        <ele>16.119</ele>
        <time>2019-06-21T16:31:14Z</time>
      </trkpt>
      <trkpt lat="43.112132" lon="-9.218935">
        <ele>16.263</ele>
        <time>2019-06-21T16:31:17Z</time>
      </trkpt>
      <trkpt lat="43.112121" lon="-9.219033">
        <ele>16.155</ele>
        <time>2019-06-21T16:31:20Z</time>
      </trkpt>
      <trkpt lat="43.112116" lon="-9.219133">
        <ele>16.043</ele>
        <time>2019-06-21T16:31:22Z</time>
      </trkpt>
      <trkpt lat="43.112121" lon="-9.219211">
        <ele>15.764</ele>
        <time>2019-06-21T16:31:24Z</time>
      </trkpt>
      <trkpt lat="43.112138" lon="-9.219273">
        <ele>15.310</ele>
        <time>2019-06-21T16:31:29Z</time>
      </trkpt>
      <trkpt lat="43.112153" lon="-9.219337">
        <ele>14.908</ele>
        <time>2019-06-21T16:31:33Z</time>
      </trkpt>
      <trkpt lat="43.112206" lon="-9.219373">
        <ele>14.227</ele>
        <time>2019-06-21T16:31:36Z</time>
      </trkpt>
      <trkpt lat="43.112273" lon="-9.219377">
        <ele>13.131</ele>
        <time>2019-06-21T16:31:39Z</time>
      </trkpt>
      <trkpt lat="43.112329" lon="-9.219402">
        <ele>12.123</ele>
        <time>2019-06-21T16:31:42Z</time>
      </trkpt>
      <trkpt lat="43.112379" lon="-9.219434">
        <ele>11.265</ele>
        <time>2019-06-21T16:31:44Z</time>
      </trkpt>
      <trkpt lat="43.112442" lon="-9.219443">
        <ele>10.072</ele>
        <time>2019-06-21T16:31:46Z</time>
      </trkpt>
      <trkpt lat="43.112498" lon="-9.219442">
        <ele>9.038</ele>
        <time>2019-06-21T16:31:48Z</time>
      </trkpt>
      <trkpt lat="43.112545" lon="-9.219462">
        <ele>8.712</ele>
        <time>2019-06-21T16:31:51Z</time>
      </trkpt>
      <trkpt lat="43.112584" lon="-9.219402">
        <ele>8.374</ele>
        <time>2019-06-21T16:32:18Z</time>
      </trkpt>
      <trkpt lat="43.112548" lon="-9.219445">
        <ele>8.794</ele>
        <time>2019-06-21T16:33:14Z</time>
      </trkpt>
      <trkpt lat="43.112534" lon="-9.219385">
        <ele>8.757</ele>
        <time>2019-06-21T16:34:16Z</time>
      </trkpt>
      <trkpt lat="43.112566" lon="-9.219443">
        <ele>8.522</ele>
        <time>2019-06-21T16:35:19Z</time>
      </trkpt>
      <trkpt lat="43.112547" lon="-9.219506">
        <ele>8.608</ele>
        <time>2019-06-21T16:36:38Z</time>
      </trkpt>
      <trkpt lat="43.112563" lon="-9.219567">
        <ele>8.462</ele>
        <time>2019-06-21T16:36:54Z</time>
      </trkpt>
      <trkpt lat="43.112054" lon="-9.219605">
        <ele>14.946</ele>
        <time>2019-06-21T16:40:38Z</time>
      </trkpt>
      <trkpt lat="43.112045" lon="-9.219678">
        <ele>14.558</ele>
        <time>2019-06-21T16:40:59Z</time>
      </trkpt>
      <trkpt lat="43.112048" lon="-9.219744">
        <ele>14.050</ele>
        <time>2019-06-21T16:41:03Z</time>
      </trkpt>
      <trkpt lat="43.112045" lon="-9.219813">
        <ele>13.427</ele>
        <time>2019-06-21T16:41:07Z</time>
      </trkpt>
      <trkpt lat="43.112037" lon="-9.219883">
        <ele>12.843</ele>
        <time>2019-06-21T16:41:11Z</time>
      </trkpt>
      <trkpt lat="43.112025" lon="-9.219952">
        <ele>12.247</ele>
        <time>2019-06-21T16:41:15Z</time>
      </trkpt>
      <trkpt lat="43.112008" lon="-9.220022">
        <ele>11.529</ele>
        <time>2019-06-21T16:41:20Z</time>
      </trkpt>
      <trkpt lat="43.111971" lon="-9.220063">
        <ele>11.016</ele>
        <time>2019-06-21T16:41:25Z</time>
      </trkpt>
      <trkpt lat="43.112001" lon="-9.220009">
        <ele>11.776</ele>
        <time>2019-06-21T16:41:42Z</time>
      </trkpt>
      <trkpt lat="43.112044" lon="-9.220026">
        <ele>11.313</ele>
        <time>2019-06-21T16:41:47Z</time>
      </trkpt>
      <trkpt lat="43.111999" lon="-9.219984">
        <ele>12.008</ele>
        <time>2019-06-21T16:42:57Z</time>
      </trkpt>
      <trkpt lat="43.111957" lon="-9.219946">
        <ele>12.524</ele>
        <time>2019-06-21T16:43:03Z</time>
      </trkpt>
      <trkpt lat="43.111950" lon="-9.219883">
        <ele>13.228</ele>
        <time>2019-06-21T16:43:08Z</time>
      </trkpt>
      <trkpt lat="43.111958" lon="-9.219947">
        <ele>12.510</ele>
        <time>2019-06-21T16:43:14Z</time>
      </trkpt>
      <trkpt lat="43.111990" lon="-9.219893">
        <ele>12.942</ele>
        <time>2019-06-21T16:43:32Z</time>
      </trkpt>
      <trkpt lat="43.112021" lon="-9.219836">
        <ele>13.399</ele>
        <time>2019-06-21T16:43:55Z</time>
      </trkpt>
      <trkpt lat="43.112004" lon="-9.219778">
        <ele>14.075</ele>
        <time>2019-06-21T16:43:59Z</time>
      </trkpt>
      <trkpt lat="43.112036" lon="-9.219722">
        <ele>14.379</ele>
        <time>2019-06-21T16:44:03Z</time>
      </trkpt>
      <trkpt lat="43.112070" lon="-9.219671">
        <ele>14.421</ele>
        <time>2019-06-21T16:44:07Z</time>
      </trkpt>
      <trkpt lat="43.112085" lon="-9.219593">
        <ele>14.751</ele>
        <time>2019-06-21T16:44:12Z</time>
      </trkpt>
      <trkpt lat="43.112100" lon="-9.219526">
        <ele>14.901</ele>
        <time>2019-06-21T16:44:16Z</time>
      </trkpt>
      <trkpt lat="43.112105" lon="-9.219460">
        <ele>15.211</ele>
        <time>2019-06-21T16:44:20Z</time>
      </trkpt>
      <trkpt lat="43.112134" lon="-9.219406">
        <ele>15.008</ele>
        <time>2019-06-21T16:44:24Z</time>
      </trkpt>
      <trkpt lat="43.112184" lon="-9.219388">
        <ele>14.588</ele>
        <time>2019-06-21T16:44:28Z</time>
      </trkpt>
      <trkpt lat="43.112233" lon="-9.219399">
        <ele>13.872</ele>
        <time>2019-06-21T16:44:32Z</time>
      </trkpt>
      <trkpt lat="43.112281" lon="-9.219400">
        <ele>12.984</ele>
        <time>2019-06-21T16:44:37Z</time>
      </trkpt>
      <trkpt lat="43.112333" lon="-9.219394">
        <ele>12.096</ele>
        <time>2019-06-21T16:45:27Z</time>
      </trkpt>
      <trkpt lat="43.112384" lon="-9.219401">
        <ele>11.133</ele>
        <time>2019-06-21T16:45:31Z</time>
      </trkpt>
      <trkpt lat="43.112435" lon="-9.219413">
        <ele>10.269</ele>
        <time>2019-06-21T16:45:35Z</time>
      </trkpt>
      <trkpt lat="43.112488" lon="-9.219410">
        <ele>9.293</ele>
        <time>2019-06-21T16:45:40Z</time>
      </trkpt>
      <trkpt lat="43.112536" lon="-9.219404">
        <ele>8.775</ele>
        <time>2019-06-21T16:45:44Z</time>
      </trkpt>
      <trkpt lat="43.112584" lon="-9.219405">
        <ele>8.469</ele>
        <time>2019-06-21T16:45:49Z</time>
      </trkpt>
      <trkpt lat="43.112545" lon="-9.219465">
        <ele>8.704</ele>
        <time>2019-06-21T16:49:10Z</time>
      </trkpt>
      <trkpt lat="43.112484" lon="-9.219495">
        <ele>9.324</ele>
        <time>2019-06-21T16:49:12Z</time>
      </trkpt>
      <trkpt lat="43.112391" lon="-9.219476">
        <ele>10.908</ele>
        <time>2019-06-21T16:49:14Z</time>
      </trkpt>
      <trkpt lat="43.112343" lon="-9.219454">
        <ele>11.819</ele>
        <time>2019-06-21T16:49:15Z</time>
      </trkpt>
      <trkpt lat="43.112291" lon="-9.219413">
        <ele>12.873</ele>
        <time>2019-06-21T16:49:16Z</time>
      </trkpt>
      <trkpt lat="43.112248" lon="-9.219395">
        <ele>13.585</ele>
        <time>2019-06-21T16:49:17Z</time>
      </trkpt>
      <trkpt lat="43.112178" lon="-9.219383">
        <ele>14.557</ele>
        <time>2019-06-21T16:49:19Z</time>
      </trkpt>
      <trkpt lat="43.112118" lon="-9.219358">
        <ele>15.434</ele>
        <time>2019-06-21T16:49:21Z</time>
      </trkpt>
      <trkpt lat="43.112081" lon="-9.219293">
        <ele>16.120</ele>
        <time>2019-06-21T16:49:23Z</time>
      </trkpt>
      <trkpt lat="43.112066" lon="-9.219174">
        <ele>16.824</ele>
        <time>2019-06-21T16:49:25Z</time>
      </trkpt>
      <trkpt lat="43.112075" lon="-9.219091">
        <ele>16.846</ele>
        <time>2019-06-21T16:49:26Z</time>
      </trkpt>
      <trkpt lat="43.112088" lon="-9.219011">
        <ele>16.764</ele>
        <time>2019-06-21T16:49:27Z</time>
      </trkpt>
      <trkpt lat="43.112097" lon="-9.218936">
        <ele>16.706</ele>
        <time>2019-06-21T16:49:28Z</time>
      </trkpt>
      <trkpt lat="43.112099" lon="-9.218852">
        <ele>16.616</ele>
        <time>2019-06-21T16:49:29Z</time>
      </trkpt>
      <trkpt lat="43.112091" lon="-9.218779">
        <ele>16.508</ele>
        <time>2019-06-21T16:49:30Z</time>
      </trkpt>
      <trkpt lat="43.112066" lon="-9.218703">
        <ele>16.729</ele>
        <time>2019-06-21T16:49:31Z</time>
      </trkpt>
      <trkpt lat="43.112026" lon="-9.218633">
        <ele>17.333</ele>
        <time>2019-06-21T16:49:32Z</time>
      </trkpt>
      <trkpt lat="43.111977" lon="-9.218564">
        <ele>17.775</ele>
        <time>2019-06-21T16:49:33Z</time>
      </trkpt>
      <trkpt lat="43.111914" lon="-9.218503">
        <ele>18.037</ele>
        <time>2019-06-21T16:49:34Z</time>
      </trkpt>
      <trkpt lat="43.111845" lon="-9.218444">
        <ele>18.634</ele>
        <time>2019-06-21T16:49:35Z</time>
      </trkpt>
      <trkpt lat="43.111768" lon="-9.218378">
        <ele>19.420</ele>
        <time>2019-06-21T16:49:36Z</time>
      </trkpt>
      <trkpt lat="43.111687" lon="-9.218302">
        <ele>19.934</ele>
        <time>2019-06-21T16:49:37Z</time>
      </trkpt>
      <trkpt lat="43.111598" lon="-9.218221">
        <ele>19.896</ele>
        <time>2019-06-21T16:49:38Z</time>
      </trkpt>
      <trkpt lat="43.111504" lon="-9.218150">
        <ele>20.064</ele>
        <time>2019-06-21T16:49:39Z</time>
      </trkpt>
      <trkpt lat="43.111409" lon="-9.218069">
        <ele>19.906</ele>
        <time>2019-06-21T16:49:40Z</time>
      </trkpt>
      <trkpt lat="43.111321" lon="-9.217989">
        <ele>19.716</ele>
        <time>2019-06-21T16:49:41Z</time>
      </trkpt>
      <trkpt lat="43.111234" lon="-9.217910">
        <ele>20.008</ele>
        <time>2019-06-21T16:49:42Z</time>
      </trkpt>
      <trkpt lat="43.111154" lon="-9.217856">
        <ele>20.919</ele>
        <time>2019-06-21T16:49:43Z</time>
      </trkpt>
      <trkpt lat="43.111068" lon="-9.217800">
        <ele>21.993</ele>
        <time>2019-06-21T16:49:44Z</time>
      </trkpt>
      <trkpt lat="43.110990" lon="-9.217731">
        <ele>21.955</ele>
        <time>2019-06-21T16:49:45Z</time>
      </trkpt>
      <trkpt lat="43.110915" lon="-9.217663">
        <ele>21.937</ele>
        <time>2019-06-21T16:49:46Z</time>
      </trkpt>
      <trkpt lat="43.110844" lon="-9.217602">
        <ele>22.314</ele>
        <time>2019-06-21T16:49:47Z</time>
      </trkpt>
      <trkpt lat="43.110766" lon="-9.217535">
        <ele>22.520</ele>
        <time>2019-06-21T16:49:48Z</time>
      </trkpt>
      <trkpt lat="43.110692" lon="-9.217456">
        <ele>22.424</ele>
        <time>2019-06-21T16:49:49Z</time>
      </trkpt>
      <trkpt lat="43.110613" lon="-9.217390">
        <ele>22.626</ele>
        <time>2019-06-21T16:49:50Z</time>
      </trkpt>
      <trkpt lat="43.110533" lon="-9.217327">
        <ele>22.816</ele>
        <time>2019-06-21T16:49:51Z</time>
      </trkpt>
      <trkpt lat="43.110456" lon="-9.217274">
        <ele>22.976</ele>
        <time>2019-06-21T16:49:52Z</time>
      </trkpt>
      <trkpt lat="43.110380" lon="-9.217223">
        <ele>22.913</ele>
        <time>2019-06-21T16:49:53Z</time>
      </trkpt>
      <trkpt lat="43.110305" lon="-9.217176">
        <ele>22.908</ele>
        <time>2019-06-21T16:49:54Z</time>
      </trkpt>
      <trkpt lat="43.110242" lon="-9.217136">
        <ele>22.994</ele>
        <time>2019-06-21T16:49:55Z</time>
      </trkpt>
      <trkpt lat="43.110170" lon="-9.217089">
        <ele>23.058</ele>
        <time>2019-06-21T16:49:56Z</time>
      </trkpt>
      <trkpt lat="43.110093" lon="-9.217046">
        <ele>23.260</ele>
        <time>2019-06-21T16:49:57Z</time>
      </trkpt>
      <trkpt lat="43.110011" lon="-9.217005">
        <ele>23.772</ele>
        <time>2019-06-21T16:49:58Z</time>
      </trkpt>
      <trkpt lat="43.109926" lon="-9.216985">
        <ele>23.929</ele>
        <time>2019-06-21T16:49:59Z</time>
      </trkpt>
      <trkpt lat="43.109848" lon="-9.216957">
        <ele>23.865</ele>
        <time>2019-06-21T16:50:00Z</time>
      </trkpt>
      <trkpt lat="43.109770" lon="-9.216934">
        <ele>23.689</ele>
        <time>2019-06-21T16:50:01Z</time>
      </trkpt>
      <trkpt lat="43.109693" lon="-9.216910">
        <ele>23.251</ele>
        <time>2019-06-21T16:50:02Z</time>
      </trkpt>
      <trkpt lat="43.109614" lon="-9.216895">
        <ele>22.571</ele>
        <time>2019-06-21T16:50:03Z</time>
      </trkpt>
      <trkpt lat="43.109536" lon="-9.216883">
        <ele>21.841</ele>
        <time>2019-06-21T16:50:04Z</time>
      </trkpt>
      <trkpt lat="43.109442" lon="-9.216870">
        <ele>20.815</ele>
        <time>2019-06-21T16:50:05Z</time>
      </trkpt>
      <trkpt lat="43.109355" lon="-9.216863">
        <ele>19.808</ele>
        <time>2019-06-21T16:50:06Z</time>
      </trkpt>
      <trkpt lat="43.109269" lon="-9.216859">
        <ele>18.830</ele>
        <time>2019-06-21T16:50:07Z</time>
      </trkpt>
      <trkpt lat="43.109178" lon="-9.216849">
        <ele>17.754</ele>
        <time>2019-06-21T16:50:08Z</time>
      </trkpt>
      <trkpt lat="43.109080" lon="-9.216838">
        <ele>17.866</ele>
        <time>2019-06-21T16:50:09Z</time>
      </trkpt>
      <trkpt lat="43.108981" lon="-9.216831">
        <ele>18.218</ele>
        <time>2019-06-21T16:50:10Z</time>
      </trkpt>
      <trkpt lat="43.108881" lon="-9.216819">
        <ele>18.465</ele>
        <time>2019-06-21T16:50:11Z</time>
      </trkpt>
      <trkpt lat="43.108780" lon="-9.216818">
        <ele>18.721</ele>
        <time>2019-06-21T16:50:12Z</time>
      </trkpt>
      <trkpt lat="43.108681" lon="-9.216810">
        <ele>18.995</ele>
        <time>2019-06-21T16:50:13Z</time>
      </trkpt>
      <trkpt lat="43.108593" lon="-9.216804">
        <ele>18.827</ele>
        <time>2019-06-21T16:50:14Z</time>
      </trkpt>
      <trkpt lat="43.108507" lon="-9.216797">
        <ele>17.784</ele>
        <time>2019-06-21T16:50:15Z</time>
      </trkpt>
      <trkpt lat="43.108424" lon="-9.216800">
        <ele>16.907</ele>
        <time>2019-06-21T16:50:16Z</time>
      </trkpt>
      <trkpt lat="43.108335" lon="-9.216818">
        <ele>16.317</ele>
        <time>2019-06-21T16:50:17Z</time>
      </trkpt>
      <trkpt lat="43.108256" lon="-9.216824">
        <ele>15.808</ele>
        <time>2019-06-21T16:50:18Z</time>
      </trkpt>
      <trkpt lat="43.108182" lon="-9.216840">
        <ele>15.571</ele>
        <time>2019-06-21T16:50:19Z</time>
      </trkpt>
      <trkpt lat="43.108104" lon="-9.216864">
        <ele>15.345</ele>
        <time>2019-06-21T16:50:20Z</time>
      </trkpt>
      <trkpt lat="43.108026" lon="-9.216881">
        <ele>14.827</ele>
        <time>2019-06-21T16:50:21Z</time>
      </trkpt>
      <trkpt lat="43.107959" lon="-9.216919">
        <ele>14.789</ele>
        <time>2019-06-21T16:50:22Z</time>
      </trkpt>
      <trkpt lat="43.107890" lon="-9.216951">
        <ele>14.356</ele>
        <time>2019-06-21T16:50:23Z</time>
      </trkpt>
      <trkpt lat="43.107818" lon="-9.217003">
        <ele>13.932</ele>
        <time>2019-06-21T16:50:24Z</time>
      </trkpt>
      <trkpt lat="43.107750" lon="-9.217059">
        <ele>13.676</ele>
        <time>2019-06-21T16:50:25Z</time>
      </trkpt>
      <trkpt lat="43.107663" lon="-9.217105">
        <ele>13.318</ele>
        <time>2019-06-21T16:50:26Z</time>
      </trkpt>
      <trkpt lat="43.107584" lon="-9.217149">
        <ele>13.173</ele>
        <time>2019-06-21T16:50:27Z</time>
      </trkpt>
      <trkpt lat="43.107513" lon="-9.217181">
        <ele>12.885</ele>
        <time>2019-06-21T16:50:28Z</time>
      </trkpt>
      <trkpt lat="43.107442" lon="-9.217195">
        <ele>12.613</ele>
        <time>2019-06-21T16:50:29Z</time>
      </trkpt>
      <trkpt lat="43.107370" lon="-9.217208">
        <ele>12.408</ele>
        <time>2019-06-21T16:50:30Z</time>
      </trkpt>
      <trkpt lat="43.107298" lon="-9.217213">
        <ele>12.240</ele>
        <time>2019-06-21T16:50:31Z</time>
      </trkpt>
      <trkpt lat="43.107234" lon="-9.217238">
        <ele>12.264</ele>
        <time>2019-06-21T16:50:32Z</time>
      </trkpt>
      <trkpt lat="43.107170" lon="-9.217246">
        <ele>12.296</ele>
        <time>2019-06-21T16:50:33Z</time>
      </trkpt>
      <trkpt lat="43.107124" lon="-9.217256">
        <ele>12.288</ele>
        <time>2019-06-21T16:50:34Z</time>
      </trkpt>
      <trkpt lat="43.107078" lon="-9.217262">
        <ele>12.335</ele>
        <time>2019-06-21T16:50:35Z</time>
      </trkpt>
      <trkpt lat="43.107032" lon="-9.217236">
        <ele>12.171</ele>
        <time>2019-06-21T16:50:37Z</time>
      </trkpt>
      <trkpt lat="43.107008" lon="-9.217155">
        <ele>11.755</ele>
        <time>2019-06-21T16:50:39Z</time>
      </trkpt>
      <trkpt lat="43.106992" lon="-9.217061">
        <ele>11.337</ele>
        <time>2019-06-21T16:50:41Z</time>
      </trkpt>
      <trkpt lat="43.106956" lon="-9.217018">
        <ele>11.222</ele>
        <time>2019-06-21T16:50:42Z</time>
      </trkpt>
      <trkpt lat="43.106938" lon="-9.216928">
        <ele>10.962</ele>
        <time>2019-06-21T16:50:44Z</time>
      </trkpt>
      <trkpt lat="43.106917" lon="-9.216860">
        <ele>10.308</ele>
        <time>2019-06-21T16:50:46Z</time>
      </trkpt>
      <trkpt lat="43.106862" lon="-9.216799">
        <ele>9.708</ele>
        <time>2019-06-21T16:50:48Z</time>
      </trkpt>
      <trkpt lat="43.106806" lon="-9.216749">
        <ele>9.145</ele>
        <time>2019-06-21T16:50:49Z</time>
      </trkpt>
      <trkpt lat="43.106741" lon="-9.216699">
        <ele>8.599</ele>
        <time>2019-06-21T16:50:50Z</time>
      </trkpt>
      <trkpt lat="43.106677" lon="-9.216642">
        <ele>7.981</ele>
        <time>2019-06-21T16:50:51Z</time>
      </trkpt>
      <trkpt lat="43.106608" lon="-9.216612">
        <ele>7.553</ele>
        <time>2019-06-21T16:50:52Z</time>
      </trkpt>
      <trkpt lat="43.106553" lon="-9.216592">
        <ele>7.290</ele>
        <time>2019-06-21T16:50:53Z</time>
      </trkpt>
      <trkpt lat="43.106486" lon="-9.216578">
        <ele>6.866</ele>
        <time>2019-06-21T16:50:54Z</time>
      </trkpt>
      <trkpt lat="43.106422" lon="-9.216560">
        <ele>6.430</ele>
        <time>2019-06-21T16:50:55Z</time>
      </trkpt>
      <trkpt lat="43.106362" lon="-9.216569">
        <ele>6.212</ele>
        <time>2019-06-21T16:50:56Z</time>
      </trkpt>
      <trkpt lat="43.106305" lon="-9.216564">
        <ele>6.129</ele>
        <time>2019-06-21T16:50:57Z</time>
      </trkpt>
      <trkpt lat="43.106223" lon="-9.216591">
        <ele>6.000</ele>
        <time>2019-06-21T16:50:59Z</time>
      </trkpt>
      <trkpt lat="43.106137" lon="-9.216639">
        <ele>6.020</ele>
        <time>2019-06-21T16:51:01Z</time>
      </trkpt>
      <trkpt lat="43.106080" lon="-9.216657">
        <ele>5.808</ele>
        <time>2019-06-21T16:51:03Z</time>
      </trkpt>
      <trkpt lat="43.106032" lon="-9.216695">
        <ele>5.975</ele>
        <time>2019-06-21T16:51:05Z</time>
      </trkpt>
      <trkpt lat="43.105981" lon="-9.216755">
        <ele>6.299</ele>
        <time>2019-06-21T16:51:07Z</time>
      </trkpt>
      <trkpt lat="43.105936" lon="-9.216789">
        <ele>6.251</ele>
        <time>2019-06-21T16:51:08Z</time>
      </trkpt>
      <trkpt lat="43.105849" lon="-9.216840">
        <ele>6.333</ele>
        <time>2019-06-21T16:51:10Z</time>
      </trkpt>
      <trkpt lat="43.105798" lon="-9.216875">
        <ele>6.640</ele>
        <time>2019-06-21T16:51:11Z</time>
      </trkpt>
      <trkpt lat="43.105751" lon="-9.216909">
        <ele>7.076</ele>
        <time>2019-06-21T16:51:12Z</time>
      </trkpt>
      <trkpt lat="43.105700" lon="-9.216942">
        <ele>7.540</ele>
        <time>2019-06-21T16:51:13Z</time>
      </trkpt>
      <trkpt lat="43.105655" lon="-9.216965">
        <ele>7.872</ele>
        <time>2019-06-21T16:51:14Z</time>
      </trkpt>
      <trkpt lat="43.105611" lon="-9.216999">
        <ele>8.216</ele>
        <time>2019-06-21T16:51:15Z</time>
      </trkpt>
      <trkpt lat="43.105565" lon="-9.217024">
        <ele>8.576</ele>
        <time>2019-06-21T16:51:16Z</time>
      </trkpt>
      <trkpt lat="43.105492" lon="-9.217075">
        <ele>9.013</ele>
        <time>2019-06-21T16:51:18Z</time>
      </trkpt>
      <trkpt lat="43.105439" lon="-9.217106">
        <ele>9.408</ele>
        <time>2019-06-21T16:51:20Z</time>
      </trkpt>
      <trkpt lat="43.105370" lon="-9.217110">
        <ele>9.694</ele>
        <time>2019-06-21T16:51:23Z</time>
      </trkpt>
      <trkpt lat="43.105323" lon="-9.217136">
        <ele>10.088</ele>
        <time>2019-06-21T16:51:28Z</time>
      </trkpt>
      <trkpt lat="43.105363" lon="-9.217171">
        <ele>10.240</ele>
        <time>2019-06-21T16:54:17Z</time>
      </trkpt>
      <trkpt lat="43.105378" lon="-9.217102">
        <ele>9.532</ele>
        <time>2019-06-21T16:54:27Z</time>
      </trkpt>
      <trkpt lat="43.105367" lon="-9.217041">
        <ele>8.959</ele>
        <time>2019-06-21T16:54:32Z</time>
      </trkpt>
      <trkpt lat="43.104984" lon="-9.216691">
        <ele>7.245</ele>
        <time>2019-06-21T16:54:36Z</time>
      </trkpt>
      <trkpt lat="43.104969" lon="-9.216572">
        <ele>6.349</ele>
        <time>2019-06-21T16:54:37Z</time>
      </trkpt>
      <trkpt lat="43.105031" lon="-9.216561">
        <ele>6.241</ele>
        <time>2019-06-21T16:54:39Z</time>
      </trkpt>
      <trkpt lat="43.105111" lon="-9.216885">
        <ele>8.213</ele>
        <time>2019-06-21T16:54:40Z</time>
      </trkpt>
      <trkpt lat="43.105146" lon="-9.216949">
        <ele>8.543</ele>
        <time>2019-06-21T16:54:44Z</time>
      </trkpt>
      <trkpt lat="43.105173" lon="-9.217001">
        <ele>8.807</ele>
        <time>2019-06-21T16:54:47Z</time>
      </trkpt>
      <trkpt lat="43.105184" lon="-9.217069">
        <ele>9.408</ele>
        <time>2019-06-21T16:54:49Z</time>
      </trkpt>
      <trkpt lat="43.105210" lon="-9.217155">
        <ele>10.144</ele>
        <time>2019-06-21T16:54:52Z</time>
      </trkpt>
      <trkpt lat="43.105259" lon="-9.217185">
        <ele>10.588</ele>
        <time>2019-06-21T16:55:00Z</time>
      </trkpt>
      <trkpt lat="43.105305" lon="-9.217150">
        <ele>10.130</ele>
        <time>2019-06-21T16:55:13Z</time>
      </trkpt>
      <trkpt lat="43.103817" lon="-9.216295">
        <ele>8.162</ele>
        <time>2019-06-21T17:57:29Z</time>
      </trkpt>
      <trkpt lat="43.103778" lon="-9.216241">
        <ele>7.749</ele>
        <time>2019-06-21T18:01:01Z</time>
      </trkpt>
      <trkpt lat="43.103728" lon="-9.216179">
        <ele>7.115</ele>
        <time>2019-06-21T18:01:02Z</time>
      </trkpt>
      <trkpt lat="43.103664" lon="-9.216097">
        <ele>6.379</ele>
        <time>2019-06-21T18:01:03Z</time>
      </trkpt>
      <trkpt lat="43.103589" lon="-9.216004">
        <ele>5.781</ele>
        <time>2019-06-21T18:01:04Z</time>
      </trkpt>
      <trkpt lat="43.103528" lon="-9.215904">
        <ele>5.716</ele>
        <time>2019-06-21T18:01:05Z</time>
      </trkpt>
      <trkpt lat="43.103465" lon="-9.215816">
        <ele>6.176</ele>
        <time>2019-06-21T18:01:06Z</time>
      </trkpt>
      <trkpt lat="43.103410" lon="-9.215728">
        <ele>6.813</ele>
        <time>2019-06-21T18:01:07Z</time>
      </trkpt>
      <trkpt lat="43.103366" lon="-9.215652">
        <ele>7.408</ele>
        <time>2019-06-21T18:01:08Z</time>
      </trkpt>
      <trkpt lat="43.103319" lon="-9.215596">
        <ele>7.944</ele>
        <time>2019-06-21T18:01:09Z</time>
      </trkpt>
      <trkpt lat="43.103263" lon="-9.215500">
        <ele>8.818</ele>
        <time>2019-06-21T18:01:10Z</time>
      </trkpt>
      <trkpt lat="43.103201" lon="-9.215380">
        <ele>9.870</ele>
        <time>2019-06-21T18:01:11Z</time>
      </trkpt>
      <trkpt lat="43.103124" lon="-9.215260">
        <ele>10.342</ele>
        <time>2019-06-21T18:01:12Z</time>
      </trkpt>
      <trkpt lat="43.103041" lon="-9.215144">
        <ele>10.149</ele>
        <time>2019-06-21T18:01:13Z</time>
      </trkpt>
      <trkpt lat="43.102966" lon="-9.215019">
        <ele>10.925</ele>
        <time>2019-06-21T18:01:14Z</time>
      </trkpt>
      <trkpt lat="43.102889" lon="-9.214903">
        <ele>11.379</ele>
        <time>2019-06-21T18:01:15Z</time>
      </trkpt>
      <trkpt lat="43.102819" lon="-9.214807">
        <ele>11.831</ele>
        <time>2019-06-21T18:01:16Z</time>
      </trkpt>
      <trkpt lat="43.102755" lon="-9.214709">
        <ele>12.132</ele>
        <time>2019-06-21T18:01:17Z</time>
      </trkpt>
      <trkpt lat="43.102689" lon="-9.214618">
        <ele>12.392</ele>
        <time>2019-06-21T18:01:18Z</time>
      </trkpt>
      <trkpt lat="43.102622" lon="-9.214528">
        <ele>12.411</ele>
        <time>2019-06-21T18:01:19Z</time>
      </trkpt>
      <trkpt lat="43.102552" lon="-9.214423">
        <ele>12.508</ele>
        <time>2019-06-21T18:01:20Z</time>
      </trkpt>
      <trkpt lat="43.102494" lon="-9.214307">
        <ele>12.566</ele>
        <time>2019-06-21T18:01:21Z</time>
      </trkpt>
      <trkpt lat="43.102431" lon="-9.214212">
        <ele>12.530</ele>
        <time>2019-06-21T18:01:22Z</time>
      </trkpt>
      <trkpt lat="43.102361" lon="-9.214133">
        <ele>11.672</ele>
        <time>2019-06-21T18:01:23Z</time>
      </trkpt>
      <trkpt lat="43.102298" lon="-9.214079">
        <ele>11.044</ele>
        <time>2019-06-21T18:01:24Z</time>
      </trkpt>
      <trkpt lat="43.102243" lon="-9.214051">
        <ele>11.481</ele>
        <time>2019-06-21T18:01:25Z</time>
      </trkpt>
      <trkpt lat="43.102179" lon="-9.214010">
        <ele>11.867</ele>
        <time>2019-06-21T18:01:27Z</time>
      </trkpt>
      <trkpt lat="43.102126" lon="-9.214074">
        <ele>13.021</ele>
        <time>2019-06-21T18:02:25Z</time>
      </trkpt>
      <trkpt lat="43.102133" lon="-9.214156">
        <ele>13.843</ele>
        <time>2019-06-21T18:02:35Z</time>
      </trkpt>
      <trkpt lat="43.102070" lon="-9.214093">
        <ele>13.884</ele>
        <time>2019-06-21T18:08:30Z</time>
      </trkpt>
      <trkpt lat="43.102027" lon="-9.214050">
        <ele>13.807</ele>
        <time>2019-06-21T18:08:31Z</time>
      </trkpt>
      <trkpt lat="43.101961" lon="-9.213999">
        <ele>14.017</ele>
        <time>2019-06-21T18:08:32Z</time>
      </trkpt>
      <trkpt lat="43.101853" lon="-9.213934">
        <ele>14.108</ele>
        <time>2019-06-21T18:08:33Z</time>
      </trkpt>
      <trkpt lat="43.101749" lon="-9.213871">
        <ele>14.241</ele>
        <time>2019-06-21T18:08:34Z</time>
      </trkpt>
      <trkpt lat="43.101641" lon="-9.213814">
        <ele>14.045</ele>
        <time>2019-06-21T18:08:35Z</time>
      </trkpt>
      <trkpt lat="43.101535" lon="-9.213748">
        <ele>13.257</ele>
        <time>2019-06-21T18:08:36Z</time>
      </trkpt>
      <trkpt lat="43.101426" lon="-9.213699">
        <ele>12.549</ele>
        <time>2019-06-21T18:08:37Z</time>
      </trkpt>
      <trkpt lat="43.101293" lon="-9.213651">
        <ele>12.846</ele>
        <time>2019-06-21T18:08:38Z</time>
      </trkpt>
      <trkpt lat="43.101154" lon="-9.213602">
        <ele>13.492</ele>
        <time>2019-06-21T18:08:39Z</time>
      </trkpt>
      <trkpt lat="43.101004" lon="-9.213549">
        <ele>13.536</ele>
        <time>2019-06-21T18:08:40Z</time>
      </trkpt>
      <trkpt lat="43.100843" lon="-9.213519">
        <ele>13.688</ele>
        <time>2019-06-21T18:08:41Z</time>
      </trkpt>
      <trkpt lat="43.100672" lon="-9.213480">
        <ele>11.554</ele>
        <time>2019-06-21T18:08:42Z</time>
      </trkpt>
      <trkpt lat="43.100507" lon="-9.213437">
        <ele>9.756</ele>
        <time>2019-06-21T18:08:43Z</time>
      </trkpt>
      <trkpt lat="43.100351" lon="-9.213403">
        <ele>8.711</ele>
        <time>2019-06-21T18:08:44Z</time>
      </trkpt>
      <trkpt lat="43.100182" lon="-9.213365">
        <ele>7.808</ele>
        <time>2019-06-21T18:08:45Z</time>
      </trkpt>
      <trkpt lat="43.100011" lon="-9.213320">
        <ele>7.038</ele>
        <time>2019-06-21T18:08:46Z</time>
      </trkpt>
      <trkpt lat="43.099839" lon="-9.213286">
        <ele>5.972</ele>
        <time>2019-06-21T18:08:47Z</time>
      </trkpt>
      <trkpt lat="43.099657" lon="-9.213245">
        <ele>5.254</ele>
        <time>2019-06-21T18:08:48Z</time>
      </trkpt>
      <trkpt lat="43.099475" lon="-9.213205">
        <ele>5.136</ele>
        <time>2019-06-21T18:08:49Z</time>
      </trkpt>
      <trkpt lat="43.099285" lon="-9.213167">
        <ele>4.963</ele>
        <time>2019-06-21T18:08:50Z</time>
      </trkpt>
      <trkpt lat="43.099096" lon="-9.213128">
        <ele>4.699</ele>
        <time>2019-06-21T18:08:51Z</time>
      </trkpt>
      <trkpt lat="43.098903" lon="-9.213088">
        <ele>5.093</ele>
        <time>2019-06-21T18:08:52Z</time>
      </trkpt>
      <trkpt lat="43.098718" lon="-9.213050">
        <ele>5.025</ele>
        <time>2019-06-21T18:08:53Z</time>
      </trkpt>
      <trkpt lat="43.098544" lon="-9.213008">
        <ele>5.572</ele>
        <time>2019-06-21T18:08:54Z</time>
      </trkpt>
      <trkpt lat="43.098387" lon="-9.212951">
        <ele>6.313</ele>
        <time>2019-06-21T18:08:55Z</time>
      </trkpt>
      <trkpt lat="43.098244" lon="-9.212876">
        <ele>6.014</ele>
        <time>2019-06-21T18:08:56Z</time>
      </trkpt>
      <trkpt lat="43.098119" lon="-9.212785">
        <ele>5.408</ele>
        <time>2019-06-21T18:08:57Z</time>
      </trkpt>
      <trkpt lat="43.098013" lon="-9.212659">
        <ele>5.710</ele>
        <time>2019-06-21T18:08:58Z</time>
      </trkpt>
      <trkpt lat="43.097914" lon="-9.212520">
        <ele>6.334</ele>
        <time>2019-06-21T18:08:59Z</time>
      </trkpt>
      <trkpt lat="43.097837" lon="-9.212346">
        <ele>7.856</ele>
        <time>2019-06-21T18:09:00Z</time>
      </trkpt>
      <trkpt lat="43.097758" lon="-9.212147">
        <ele>9.878</ele>
        <time>2019-06-21T18:09:01Z</time>
      </trkpt>
      <trkpt lat="43.097668" lon="-9.211941">
        <ele>12.015</ele>
        <time>2019-06-21T18:09:02Z</time>
      </trkpt>
      <trkpt lat="43.097572" lon="-9.211746">
        <ele>14.331</ele>
        <time>2019-06-21T18:09:03Z</time>
      </trkpt>
      <trkpt lat="43.097476" lon="-9.211532">
        <ele>16.425</ele>
        <time>2019-06-21T18:09:04Z</time>
      </trkpt>
      <trkpt lat="43.097386" lon="-9.211310">
        <ele>17.267</ele>
        <time>2019-06-21T18:09:05Z</time>
      </trkpt>
      <trkpt lat="43.097299" lon="-9.211099">
        <ele>17.391</ele>
        <time>2019-06-21T18:09:06Z</time>
      </trkpt>
      <trkpt lat="43.097223" lon="-9.210882">
        <ele>17.881</ele>
        <time>2019-06-21T18:09:07Z</time>
      </trkpt>
      <trkpt lat="43.097124" lon="-9.210682">
        <ele>19.619</ele>
        <time>2019-06-21T18:09:08Z</time>
      </trkpt>
      <trkpt lat="43.097021" lon="-9.210494">
        <ele>21.508</ele>
        <time>2019-06-21T18:09:09Z</time>
      </trkpt>
      <trkpt lat="43.096892" lon="-9.210331">
        <ele>22.832</ele>
        <time>2019-06-21T18:09:10Z</time>
      </trkpt>
      <trkpt lat="43.096755" lon="-9.210202">
        <ele>24.296</ele>
        <time>2019-06-21T18:09:11Z</time>
      </trkpt>
      <trkpt lat="43.096607" lon="-9.210084">
        <ele>25.528</ele>
        <time>2019-06-21T18:09:12Z</time>
      </trkpt>
      <trkpt lat="43.096445" lon="-9.209967">
        <ele>27.210</ele>
        <time>2019-06-21T18:09:13Z</time>
      </trkpt>
      <trkpt lat="43.096277" lon="-9.209859">
        <ele>28.337</ele>
        <time>2019-06-21T18:09:14Z</time>
      </trkpt>
      <trkpt lat="43.096113" lon="-9.209741">
        <ele>29.713</ele>
        <time>2019-06-21T18:09:15Z</time>
      </trkpt>
      <trkpt lat="43.095950" lon="-9.209625">
        <ele>31.877</ele>
        <time>2019-06-21T18:09:16Z</time>
      </trkpt>
      <trkpt lat="43.095780" lon="-9.209515">
        <ele>33.179</ele>
        <time>2019-06-21T18:09:17Z</time>
      </trkpt>
      <trkpt lat="43.095608" lon="-9.209396">
        <ele>32.661</ele>
        <time>2019-06-21T18:09:18Z</time>
      </trkpt>
      <trkpt lat="43.095449" lon="-9.209267">
        <ele>34.321</ele>
        <time>2019-06-21T18:09:19Z</time>
      </trkpt>
      <trkpt lat="43.095290" lon="-9.209158">
        <ele>36.213</ele>
        <time>2019-06-21T18:09:20Z</time>
      </trkpt>
      <trkpt lat="43.095137" lon="-9.209058">
        <ele>38.208</ele>
        <time>2019-06-21T18:09:21Z</time>
      </trkpt>
      <trkpt lat="43.094998" lon="-9.208959">
        <ele>40.589</ele>
        <time>2019-06-21T18:09:22Z</time>
      </trkpt>
      <trkpt lat="43.094860" lon="-9.208870">
        <ele>41.313</ele>
        <time>2019-06-21T18:09:23Z</time>
      </trkpt>
      <trkpt lat="43.094719" lon="-9.208787">
        <ele>41.885</ele>
        <time>2019-06-21T18:09:24Z</time>
      </trkpt>
      <trkpt lat="43.094559" lon="-9.208725">
        <ele>43.047</ele>
        <time>2019-06-21T18:09:25Z</time>
      </trkpt>
      <trkpt lat="43.094386" lon="-9.208677">
        <ele>44.234</ele>
        <time>2019-06-21T18:09:26Z</time>
      </trkpt>
      <trkpt lat="43.094201" lon="-9.208638">
        <ele>46.320</ele>
        <time>2019-06-21T18:09:27Z</time>
      </trkpt>
      <trkpt lat="43.094031" lon="-9.208617">
        <ele>48.474</ele>
        <time>2019-06-21T18:09:28Z</time>
      </trkpt>
      <trkpt lat="43.093843" lon="-9.208598">
        <ele>50.966</ele>
        <time>2019-06-21T18:09:29Z</time>
      </trkpt>
      <trkpt lat="43.093675" lon="-9.208583">
        <ele>53.528</ele>
        <time>2019-06-21T18:09:30Z</time>
      </trkpt>
      <trkpt lat="43.093512" lon="-9.208539">
        <ele>55.689</ele>
        <time>2019-06-21T18:09:31Z</time>
      </trkpt>
      <trkpt lat="43.093347" lon="-9.208494">
        <ele>56.817</ele>
        <time>2019-06-21T18:09:32Z</time>
      </trkpt>
      <trkpt lat="43.093180" lon="-9.208401">
        <ele>56.408</ele>
        <time>2019-06-21T18:09:33Z</time>
      </trkpt>
      <trkpt lat="43.093035" lon="-9.208301">
        <ele>55.975</ele>
        <time>2019-06-21T18:09:34Z</time>
      </trkpt>
      <trkpt lat="43.092892" lon="-9.208196">
        <ele>54.959</ele>
        <time>2019-06-21T18:09:35Z</time>
      </trkpt>
      <trkpt lat="43.092781" lon="-9.208059">
        <ele>55.041</ele>
        <time>2019-06-21T18:09:36Z</time>
      </trkpt>
      <trkpt lat="43.092675" lon="-9.207927">
        <ele>54.273</ele>
        <time>2019-06-21T18:09:37Z</time>
      </trkpt>
      <trkpt lat="43.092602" lon="-9.207768">
        <ele>54.250</ele>
        <time>2019-06-21T18:09:38Z</time>
      </trkpt>
      <trkpt lat="43.092537" lon="-9.207587">
        <ele>54.936</ele>
        <time>2019-06-21T18:09:39Z</time>
      </trkpt>
      <trkpt lat="43.092499" lon="-9.207398">
        <ele>56.120</ele>
        <time>2019-06-21T18:09:40Z</time>
      </trkpt>
      <trkpt lat="43.092464" lon="-9.207184">
        <ele>58.372</ele>
        <time>2019-06-21T18:09:41Z</time>
      </trkpt>
      <trkpt lat="43.092435" lon="-9.206957">
        <ele>61.644</ele>
        <time>2019-06-21T18:09:42Z</time>
      </trkpt>
      <trkpt lat="43.092403" lon="-9.206725">
        <ele>64.705</ele>
        <time>2019-06-21T18:09:43Z</time>
      </trkpt>
      <trkpt lat="43.092357" lon="-9.206509">
        <ele>66.115</ele>
        <time>2019-06-21T18:09:44Z</time>
      </trkpt>
      <trkpt lat="43.092295" lon="-9.206287">
        <ele>66.608</ele>
        <time>2019-06-21T18:09:45Z</time>
      </trkpt>
      <trkpt lat="43.092212" lon="-9.206086">
        <ele>66.247</ele>
        <time>2019-06-21T18:09:46Z</time>
      </trkpt>
      <trkpt lat="43.092113" lon="-9.205926">
        <ele>67.241</ele>
        <time>2019-06-21T18:09:47Z</time>
      </trkpt>
      <trkpt lat="43.091987" lon="-9.205788">
        <ele>68.693</ele>
        <time>2019-06-21T18:09:48Z</time>
      </trkpt>
      <trkpt lat="43.091856" lon="-9.205684">
        <ele>70.335</ele>
        <time>2019-06-21T18:09:49Z</time>
      </trkpt>
      <trkpt lat="43.091699" lon="-9.205603">
        <ele>71.232</ele>
        <time>2019-06-21T18:09:50Z</time>
      </trkpt>
      <trkpt lat="43.091537" lon="-9.205556">
        <ele>71.578</ele>
        <time>2019-06-21T18:09:51Z</time>
      </trkpt>
      <trkpt lat="43.091365" lon="-9.205530">
        <ele>71.542</ele>
        <time>2019-06-21T18:09:52Z</time>
      </trkpt>
      <trkpt lat="43.091178" lon="-9.205495">
        <ele>71.784</ele>
        <time>2019-06-21T18:09:53Z</time>
      </trkpt>
      <trkpt lat="43.090992" lon="-9.205441">
        <ele>73.675</ele>
        <time>2019-06-21T18:09:54Z</time>
      </trkpt>
      <trkpt lat="43.090809" lon="-9.205384">
        <ele>75.728</ele>
        <time>2019-06-21T18:09:55Z</time>
      </trkpt>
      <trkpt lat="43.090626" lon="-9.205315">
        <ele>77.220</ele>
        <time>2019-06-21T18:09:56Z</time>
      </trkpt>
      <trkpt lat="43.090439" lon="-9.205237">
        <ele>78.408</ele>
        <time>2019-06-21T18:09:57Z</time>
      </trkpt>
      <trkpt lat="43.090245" lon="-9.205153">
        <ele>79.760</ele>
        <time>2019-06-21T18:09:58Z</time>
      </trkpt>
      <trkpt lat="43.090055" lon="-9.205055">
        <ele>81.834</ele>
        <time>2019-06-21T18:09:59Z</time>
      </trkpt>
      <trkpt lat="43.089875" lon="-9.204963">
        <ele>83.926</ele>
        <time>2019-06-21T18:10:00Z</time>
      </trkpt>
      <trkpt lat="43.089688" lon="-9.204863">
        <ele>86.188</ele>
        <time>2019-06-21T18:10:01Z</time>
      </trkpt>
      <trkpt lat="43.089498" lon="-9.204769">
        <ele>88.345</ele>
        <time>2019-06-21T18:10:02Z</time>
      </trkpt>
      <trkpt lat="43.089330" lon="-9.204675">
        <ele>90.831</ele>
        <time>2019-06-21T18:10:03Z</time>
      </trkpt>
      <trkpt lat="43.089168" lon="-9.204573">
        <ele>93.665</ele>
        <time>2019-06-21T18:10:04Z</time>
      </trkpt>
      <trkpt lat="43.089016" lon="-9.204457">
        <ele>95.457</ele>
        <time>2019-06-21T18:10:05Z</time>
      </trkpt>
      <trkpt lat="43.088873" lon="-9.204299">
        <ele>96.649</ele>
        <time>2019-06-21T18:10:06Z</time>
      </trkpt>
      <trkpt lat="43.088745" lon="-9.204129">
        <ele>97.902</ele>
        <time>2019-06-21T18:10:07Z</time>
      </trkpt>
      <trkpt lat="43.088622" lon="-9.203950">
        <ele>99.622</ele>
        <time>2019-06-21T18:10:08Z</time>
      </trkpt>
      <trkpt lat="43.088515" lon="-9.203759">
        <ele>101.808</ele>
        <time>2019-06-21T18:10:09Z</time>
      </trkpt>
      <trkpt lat="43.088411" lon="-9.203562">
        <ele>103.457</ele>
        <time>2019-06-21T18:10:10Z</time>
      </trkpt>
      <trkpt lat="43.088312" lon="-9.203380">
        <ele>103.291</ele>
        <time>2019-06-21T18:10:11Z</time>
      </trkpt>
      <trkpt lat="43.088220" lon="-9.203207">
        <ele>102.893</ele>
        <time>2019-06-21T18:10:12Z</time>
      </trkpt>
      <trkpt lat="43.088137" lon="-9.203041">
        <ele>102.345</ele>
        <time>2019-06-21T18:10:13Z</time>
      </trkpt>
      <trkpt lat="43.088066" lon="-9.202878">
        <ele>101.432</ele>
        <time>2019-06-21T18:10:14Z</time>
      </trkpt>
      <trkpt lat="43.088001" lon="-9.202716">
        <ele>100.228</ele>
        <time>2019-06-21T18:10:15Z</time>
      </trkpt>
      <trkpt lat="43.087948" lon="-9.202549">
        <ele>99.012</ele>
        <time>2019-06-21T18:10:16Z</time>
      </trkpt>
      <trkpt lat="43.087900" lon="-9.202369">
        <ele>97.814</ele>
        <time>2019-06-21T18:10:17Z</time>
      </trkpt>
      <trkpt lat="43.087874" lon="-9.202184">
        <ele>96.824</ele>
        <time>2019-06-21T18:10:18Z</time>
      </trkpt>
      <trkpt lat="43.087859" lon="-9.201987">
        <ele>95.404</ele>
        <time>2019-06-21T18:10:19Z</time>
      </trkpt>
      <trkpt lat="43.087866" lon="-9.201784">
        <ele>94.314</ele>
        <time>2019-06-21T18:10:20Z</time>
      </trkpt>
      <trkpt lat="43.087884" lon="-9.201565">
        <ele>93.208</ele>
        <time>2019-06-21T18:10:21Z</time>
      </trkpt>
      <trkpt lat="43.087928" lon="-9.201364">
        <ele>92.545</ele>
        <time>2019-06-21T18:10:22Z</time>
      </trkpt>
      <trkpt lat="43.087991" lon="-9.201166">
        <ele>92.279</ele>
        <time>2019-06-21T18:10:23Z</time>
      </trkpt>
      <trkpt lat="43.088075" lon="-9.200988">
        <ele>92.451</ele>
        <time>2019-06-21T18:10:24Z</time>
      </trkpt>
      <trkpt lat="43.088173" lon="-9.200826">
        <ele>92.243</ele>
        <time>2019-06-21T18:10:25Z</time>
      </trkpt>
      <trkpt lat="43.088286" lon="-9.200661">
        <ele>92.250</ele>
        <time>2019-06-21T18:10:26Z</time>
      </trkpt>
      <trkpt lat="43.088405" lon="-9.200502">
        <ele>92.226</ele>
        <time>2019-06-21T18:10:27Z</time>
      </trkpt>
      <trkpt lat="43.088505" lon="-9.200343">
        <ele>92.220</ele>
        <time>2019-06-21T18:10:28Z</time>
      </trkpt>
      <trkpt lat="43.088595" lon="-9.200180">
        <ele>91.842</ele>
        <time>2019-06-21T18:10:29Z</time>
      </trkpt>
      <trkpt lat="43.088674" lon="-9.200005">
        <ele>90.558</ele>
        <time>2019-06-21T18:10:30Z</time>
      </trkpt>
      <trkpt lat="43.088729" lon="-9.199815">
        <ele>88.252</ele>
        <time>2019-06-21T18:10:31Z</time>
      </trkpt>
      <trkpt lat="43.088772" lon="-9.199627">
        <ele>85.617</ele>
        <time>2019-06-21T18:10:32Z</time>
      </trkpt>
      <trkpt lat="43.088780" lon="-9.199449">
        <ele>82.708</ele>
        <time>2019-06-21T18:10:33Z</time>
      </trkpt>
      <trkpt lat="43.088747" lon="-9.199271">
        <ele>79.458</ele>
        <time>2019-06-21T18:10:34Z</time>
      </trkpt>
      <trkpt lat="43.088681" lon="-9.199102">
        <ele>75.782</ele>
        <time>2019-06-21T18:10:35Z</time>
      </trkpt>
      <trkpt lat="43.088592" lon="-9.198971">
        <ele>73.234</ele>
        <time>2019-06-21T18:10:36Z</time>
      </trkpt>
      <trkpt lat="43.088476" lon="-9.198865">
        <ele>71.666</ele>
        <time>2019-06-21T18:10:37Z</time>
      </trkpt>
      <trkpt lat="43.088335" lon="-9.198793">
        <ele>70.633</ele>
        <time>2019-06-21T18:10:38Z</time>
      </trkpt>
      <trkpt lat="43.088183" lon="-9.198753">
        <ele>69.589</ele>
        <time>2019-06-21T18:10:39Z</time>
      </trkpt>
      <trkpt lat="43.088014" lon="-9.198761">
        <ele>69.113</ele>
        <time>2019-06-21T18:10:40Z</time>
      </trkpt>
      <trkpt lat="43.087836" lon="-9.198788">
        <ele>69.345</ele>
        <time>2019-06-21T18:10:41Z</time>
      </trkpt>
      <trkpt lat="43.087645" lon="-9.198818">
        <ele>68.648</ele>
        <time>2019-06-21T18:10:42Z</time>
      </trkpt>
      <trkpt lat="43.087468" lon="-9.198849">
        <ele>68.061</ele>
        <time>2019-06-21T18:10:43Z</time>
      </trkpt>
      <trkpt lat="43.087286" lon="-9.198842">
        <ele>67.217</ele>
        <time>2019-06-21T18:10:44Z</time>
      </trkpt>
      <trkpt lat="43.087097" lon="-9.198806">
        <ele>66.408</ele>
        <time>2019-06-21T18:10:45Z</time>
      </trkpt>
      <trkpt lat="43.086910" lon="-9.198754">
        <ele>64.947</ele>
        <time>2019-06-21T18:10:46Z</time>
      </trkpt>
      <trkpt lat="43.086751" lon="-9.198698">
        <ele>62.171</ele>
        <time>2019-06-21T18:10:47Z</time>
      </trkpt>
      <trkpt lat="43.086579" lon="-9.198611">
        <ele>58.493</ele>
        <time>2019-06-21T18:10:48Z</time>
      </trkpt>
      <trkpt lat="43.086401" lon="-9.198544">
        <ele>56.165</ele>
        <time>2019-06-21T18:10:49Z</time>
      </trkpt>
      <trkpt lat="43.086221" lon="-9.198481">
        <ele>54.592</ele>
        <time>2019-06-21T18:10:50Z</time>
      </trkpt>
      <trkpt lat="43.086040" lon="-9.198438">
        <ele>53.198</ele>
        <time>2019-06-21T18:10:51Z</time>
      </trkpt>
      <trkpt lat="43.085862" lon="-9.198416">
        <ele>51.872</ele>
        <time>2019-06-21T18:10:52Z</time>
      </trkpt>
      <trkpt lat="43.085687" lon="-9.198418">
        <ele>49.884</ele>
        <time>2019-06-21T18:10:53Z</time>
      </trkpt>
      <trkpt lat="43.085522" lon="-9.198434">
        <ele>48.268</ele>
        <time>2019-06-21T18:10:54Z</time>
      </trkpt>
      <trkpt lat="43.085348" lon="-9.198479">
        <ele>47.642</ele>
        <time>2019-06-21T18:10:55Z</time>
      </trkpt>
      <trkpt lat="43.085182" lon="-9.198544">
        <ele>47.026</ele>
        <time>2019-06-21T18:10:56Z</time>
      </trkpt>
      <trkpt lat="43.085012" lon="-9.198623">
        <ele>46.308</ele>
        <time>2019-06-21T18:10:57Z</time>
      </trkpt>
      <trkpt lat="43.084845" lon="-9.198722">
        <ele>44.569</ele>
        <time>2019-06-21T18:10:58Z</time>
      </trkpt>
      <trkpt lat="43.084676" lon="-9.198827">
        <ele>43.743</ele>
        <time>2019-06-21T18:10:59Z</time>
      </trkpt>
      <trkpt lat="43.084522" lon="-9.198935">
        <ele>42.385</ele>
        <time>2019-06-21T18:11:00Z</time>
      </trkpt>
      <trkpt lat="43.084368" lon="-9.199047">
        <ele>40.567</ele>
        <time>2019-06-21T18:11:01Z</time>
      </trkpt>
      <trkpt lat="43.084237" lon="-9.199137">
        <ele>38.464</ele>
        <time>2019-06-21T18:11:02Z</time>
      </trkpt>
      <trkpt lat="43.084117" lon="-9.199214">
        <ele>36.690</ele>
        <time>2019-06-21T18:11:03Z</time>
      </trkpt>
      <trkpt lat="43.084010" lon="-9.199274">
        <ele>35.584</ele>
        <time>2019-06-21T18:11:04Z</time>
      </trkpt>
      <trkpt lat="43.083915" lon="-9.199346">
        <ele>34.756</ele>
        <time>2019-06-21T18:11:05Z</time>
      </trkpt>
      <trkpt lat="43.083830" lon="-9.199414">
        <ele>34.066</ele>
        <time>2019-06-21T18:11:06Z</time>
      </trkpt>
      <trkpt lat="43.083752" lon="-9.199491">
        <ele>33.229</ele>
        <time>2019-06-21T18:11:07Z</time>
      </trkpt>
      <trkpt lat="43.083678" lon="-9.199567">
        <ele>32.421</ele>
        <time>2019-06-21T18:11:08Z</time>
      </trkpt>
      <trkpt lat="43.083602" lon="-9.199641">
        <ele>31.608</ele>
        <time>2019-06-21T18:11:09Z</time>
      </trkpt>
      <trkpt lat="43.083527" lon="-9.199682">
        <ele>30.969</ele>
        <time>2019-06-21T18:11:10Z</time>
      </trkpt>
      <trkpt lat="43.083448" lon="-9.199707">
        <ele>30.223</ele>
        <time>2019-06-21T18:11:11Z</time>
      </trkpt>
      <trkpt lat="43.083373" lon="-9.199714">
        <ele>29.425</ele>
        <time>2019-06-21T18:11:12Z</time>
      </trkpt>
      <trkpt lat="43.083316" lon="-9.199705">
        <ele>28.867</ele>
        <time>2019-06-21T18:11:13Z</time>
      </trkpt>
      <trkpt lat="43.083269" lon="-9.199686">
        <ele>28.414</ele>
        <time>2019-06-21T18:11:14Z</time>
      </trkpt>
      <trkpt lat="43.083215" lon="-9.199704">
        <ele>28.150</ele>
        <time>2019-06-21T18:11:16Z</time>
      </trkpt>
      <trkpt lat="43.083165" lon="-9.199779">
        <ele>28.124</ele>
        <time>2019-06-21T18:11:18Z</time>
      </trkpt>
      <trkpt lat="43.083141" lon="-9.199849">
        <ele>28.276</ele>
        <time>2019-06-21T18:11:19Z</time>
      </trkpt>
      <trkpt lat="43.083107" lon="-9.199941">
        <ele>28.347</ele>
        <time>2019-06-21T18:11:20Z</time>
      </trkpt>
      <trkpt lat="43.083058" lon="-9.200048">
        <ele>28.429</ele>
        <time>2019-06-21T18:11:21Z</time>
      </trkpt>
      <trkpt lat="43.083015" lon="-9.200169">
        <ele>29.221</ele>
        <time>2019-06-21T18:11:22Z</time>
      </trkpt>
      <trkpt lat="43.082961" lon="-9.200302">
        <ele>30.208</ele>
        <time>2019-06-21T18:11:23Z</time>
      </trkpt>
      <trkpt lat="43.082903" lon="-9.200444">
        <ele>31.587</ele>
        <time>2019-06-21T18:11:24Z</time>
      </trkpt>
      <trkpt lat="43.082853" lon="-9.200585">
        <ele>32.911</ele>
        <time>2019-06-21T18:11:25Z</time>
      </trkpt>
      <trkpt lat="43.082798" lon="-9.200720">
        <ele>34.173</ele>
        <time>2019-06-21T18:11:26Z</time>
      </trkpt>
      <trkpt lat="43.082758" lon="-9.200878">
        <ele>35.085</ele>
        <time>2019-06-21T18:11:27Z</time>
      </trkpt>
      <trkpt lat="43.082727" lon="-9.201048">
        <ele>35.182</ele>
        <time>2019-06-21T18:11:28Z</time>
      </trkpt>
      <trkpt lat="43.082687" lon="-9.201227">
        <ele>35.878</ele>
        <time>2019-06-21T18:11:29Z</time>
      </trkpt>
      <trkpt lat="43.082655" lon="-9.201425">
        <ele>36.232</ele>
        <time>2019-06-21T18:11:30Z</time>
      </trkpt>
      <trkpt lat="43.082616" lon="-9.201615">
        <ele>36.624</ele>
        <time>2019-06-21T18:11:31Z</time>
      </trkpt>
      <trkpt lat="43.082580" lon="-9.201819">
        <ele>37.727</ele>
        <time>2019-06-21T18:11:32Z</time>
      </trkpt>
      <trkpt lat="43.082534" lon="-9.202013">
        <ele>38.568</ele>
        <time>2019-06-21T18:11:33Z</time>
      </trkpt>
      <trkpt lat="43.082495" lon="-9.202192">
        <ele>38.914</ele>
        <time>2019-06-21T18:11:34Z</time>
      </trkpt>
      <trkpt lat="43.082459" lon="-9.202376">
        <ele>39.008</ele>
        <time>2019-06-21T18:11:35Z</time>
      </trkpt>
      <trkpt lat="43.082425" lon="-9.202554">
        <ele>39.625</ele>
        <time>2019-06-21T18:11:36Z</time>
      </trkpt>
      <trkpt lat="43.082393" lon="-9.202717">
        <ele>40.329</ele>
        <time>2019-06-21T18:11:37Z</time>
      </trkpt>
      <trkpt lat="43.082365" lon="-9.202862">
        <ele>41.111</ele>
        <time>2019-06-21T18:11:38Z</time>
      </trkpt>
      <trkpt lat="43.082340" lon="-9.203008">
        <ele>42.173</ele>
        <time>2019-06-21T18:11:39Z</time>
      </trkpt>
      <trkpt lat="43.082307" lon="-9.203160">
        <ele>42.980</ele>
        <time>2019-06-21T18:11:40Z</time>
      </trkpt>
      <trkpt lat="43.082236" lon="-9.203318">
        <ele>43.186</ele>
        <time>2019-06-21T18:11:41Z</time>
      </trkpt>
      <trkpt lat="43.082165" lon="-9.203485">
        <ele>44.870</ele>
        <time>2019-06-21T18:11:42Z</time>
      </trkpt>
      <trkpt lat="43.082085" lon="-9.203651">
        <ele>47.142</ele>
        <time>2019-06-21T18:11:43Z</time>
      </trkpt>
      <trkpt lat="43.082001" lon="-9.203815">
        <ele>50.363</ele>
        <time>2019-06-21T18:11:44Z</time>
      </trkpt>
      <trkpt lat="43.081920" lon="-9.203988">
        <ele>53.944</ele>
        <time>2019-06-21T18:11:45Z</time>
      </trkpt>
      <trkpt lat="43.081837" lon="-9.204156">
        <ele>57.218</ele>
        <time>2019-06-21T18:11:46Z</time>
      </trkpt>
      <trkpt lat="43.081757" lon="-9.204330">
        <ele>59.008</ele>
        <time>2019-06-21T18:11:47Z</time>
      </trkpt>
      <trkpt lat="43.081674" lon="-9.204496">
        <ele>60.489</ele>
        <time>2019-06-21T18:11:48Z</time>
      </trkpt>
      <trkpt lat="43.081598" lon="-9.204654">
        <ele>61.043</ele>
        <time>2019-06-21T18:11:49Z</time>
      </trkpt>
      <trkpt lat="43.081536" lon="-9.204791">
        <ele>61.775</ele>
        <time>2019-06-21T18:11:50Z</time>
      </trkpt>
      <trkpt lat="43.081484" lon="-9.204909">
        <ele>62.577</ele>
        <time>2019-06-21T18:11:51Z</time>
      </trkpt>
      <trkpt lat="43.081432" lon="-9.205015">
        <ele>63.394</ele>
        <time>2019-06-21T18:11:52Z</time>
      </trkpt>
      <trkpt lat="43.081384" lon="-9.205109">
        <ele>64.190</ele>
        <time>2019-06-21T18:11:53Z</time>
      </trkpt>
      <trkpt lat="43.081329" lon="-9.205204">
        <ele>64.354</ele>
        <time>2019-06-21T18:11:54Z</time>
      </trkpt>
      <trkpt lat="43.081280" lon="-9.205313">
        <ele>64.726</ele>
        <time>2019-06-21T18:11:55Z</time>
      </trkpt>
      <trkpt lat="43.081222" lon="-9.205424">
        <ele>64.798</ele>
        <time>2019-06-21T18:11:56Z</time>
      </trkpt>
      <trkpt lat="43.081158" lon="-9.205545">
        <ele>64.615</ele>
        <time>2019-06-21T18:11:57Z</time>
      </trkpt>
      <trkpt lat="43.081092" lon="-9.205678">
        <ele>64.226</ele>
        <time>2019-06-21T18:11:58Z</time>
      </trkpt>
      <trkpt lat="43.081023" lon="-9.205815">
        <ele>63.708</ele>
        <time>2019-06-21T18:11:59Z</time>
      </trkpt>
      <trkpt lat="43.080952" lon="-9.205931">
        <ele>62.852</ele>
        <time>2019-06-21T18:12:00Z</time>
      </trkpt>
      <trkpt lat="43.080883" lon="-9.206069">
        <ele>62.356</ele>
        <time>2019-06-21T18:12:01Z</time>
      </trkpt>
      <trkpt lat="43.080816" lon="-9.206204">
        <ele>62.248</ele>
        <time>2019-06-21T18:12:02Z</time>
      </trkpt>
      <trkpt lat="43.080744" lon="-9.206342">
        <ele>62.220</ele>
        <time>2019-06-21T18:12:03Z</time>
      </trkpt>
      <trkpt lat="43.080676" lon="-9.206485">
        <ele>62.237</ele>
        <time>2019-06-21T18:12:04Z</time>
      </trkpt>
      <trkpt lat="43.080606" lon="-9.206625">
        <ele>62.223</ele>
        <time>2019-06-21T18:12:05Z</time>
      </trkpt>
      <trkpt lat="43.080535" lon="-9.206770">
        <ele>62.637</ele>
        <time>2019-06-21T18:12:06Z</time>
      </trkpt>
      <trkpt lat="43.080468" lon="-9.206914">
        <ele>62.969</ele>
        <time>2019-06-21T18:12:07Z</time>
      </trkpt>
      <trkpt lat="43.080398" lon="-9.207055">
        <ele>63.131</ele>
        <time>2019-06-21T18:12:08Z</time>
      </trkpt>
      <trkpt lat="43.080331" lon="-9.207190">
        <ele>63.361</ele>
        <time>2019-06-21T18:12:09Z</time>
      </trkpt>
      <trkpt lat="43.080267" lon="-9.207314">
        <ele>63.507</ele>
        <time>2019-06-21T18:12:10Z</time>
      </trkpt>
      <trkpt lat="43.080206" lon="-9.207431">
        <ele>63.708</ele>
        <time>2019-06-21T18:12:11Z</time>
      </trkpt>
      <trkpt lat="43.080151" lon="-9.207533">
        <ele>63.836</ele>
        <time>2019-06-21T18:12:12Z</time>
      </trkpt>
      <trkpt lat="43.080099" lon="-9.207630">
        <ele>63.840</ele>
        <time>2019-06-21T18:12:13Z</time>
      </trkpt>
      <trkpt lat="43.080055" lon="-9.207719">
        <ele>64.092</ele>
        <time>2019-06-21T18:12:14Z</time>
      </trkpt>
      <trkpt lat="43.080014" lon="-9.207799">
        <ele>64.284</ele>
        <time>2019-06-21T18:12:15Z</time>
      </trkpt>
      <trkpt lat="43.079982" lon="-9.207868">
        <ele>64.631</ele>
        <time>2019-06-21T18:12:16Z</time>
      </trkpt>
      <trkpt lat="43.079958" lon="-9.207922">
        <ele>64.857</ele>
        <time>2019-06-21T18:12:17Z</time>
      </trkpt>
      <trkpt lat="43.079940" lon="-9.208008">
        <ele>65.331</ele>
        <time>2019-06-21T18:12:19Z</time>
      </trkpt>
      <trkpt lat="43.079954" lon="-9.208116">
        <ele>65.743</ele>
        <time>2019-06-21T18:12:21Z</time>
      </trkpt>
      <trkpt lat="43.079984" lon="-9.208183">
        <ele>65.996</ele>
        <time>2019-06-21T18:12:22Z</time>
      </trkpt>
      <trkpt lat="43.080071" lon="-9.208258">
        <ele>66.031</ele>
        <time>2019-06-21T18:12:23Z</time>
      </trkpt>
      <trkpt lat="43.080144" lon="-9.208350">
        <ele>66.024</ele>
        <time>2019-06-21T18:12:24Z</time>
      </trkpt>
      <trkpt lat="43.080221" lon="-9.208456">
        <ele>66.008</ele>
        <time>2019-06-21T18:12:25Z</time>
      </trkpt>
      <trkpt lat="43.080300" lon="-9.208571">
        <ele>66.122</ele>
        <time>2019-06-21T18:12:26Z</time>
      </trkpt>
      <trkpt lat="43.080389" lon="-9.208684">
        <ele>66.646</ele>
        <time>2019-06-21T18:12:27Z</time>
      </trkpt>
      <trkpt lat="43.080468" lon="-9.208782">
        <ele>66.918</ele>
        <time>2019-06-21T18:12:28Z</time>
      </trkpt>
      <trkpt lat="43.080549" lon="-9.208894">
        <ele>67.050</ele>
        <time>2019-06-21T18:12:29Z</time>
      </trkpt>
      <trkpt lat="43.080637" lon="-9.209000">
        <ele>68.337</ele>
        <time>2019-06-21T18:12:30Z</time>
      </trkpt>
      <trkpt lat="43.080739" lon="-9.209132">
        <ele>69.553</ele>
        <time>2019-06-21T18:12:31Z</time>
      </trkpt>
      <trkpt lat="43.080842" lon="-9.209282">
        <ele>70.537</ele>
        <time>2019-06-21T18:12:32Z</time>
      </trkpt>
      <trkpt lat="43.080943" lon="-9.209432">
        <ele>71.419</ele>
        <time>2019-06-21T18:12:33Z</time>
      </trkpt>
      <trkpt lat="43.081057" lon="-9.209544">
        <ele>71.898</ele>
        <time>2019-06-21T18:12:34Z</time>
      </trkpt>
      <trkpt lat="43.081167" lon="-9.209689">
        <ele>72.015</ele>
        <time>2019-06-21T18:12:35Z</time>
      </trkpt>
      <trkpt lat="43.081281" lon="-9.209836">
        <ele>71.426</ele>
        <time>2019-06-21T18:12:36Z</time>
      </trkpt>
      <trkpt lat="43.081396" lon="-9.209997">
        <ele>71.008</ele>
        <time>2019-06-21T18:12:37Z</time>
      </trkpt>
      <trkpt lat="43.081503" lon="-9.210157">
        <ele>69.572</ele>
        <time>2019-06-21T18:12:38Z</time>
      </trkpt>
      <trkpt lat="43.081619" lon="-9.210318">
        <ele>68.776</ele>
        <time>2019-06-21T18:12:39Z</time>
      </trkpt>
      <trkpt lat="43.081726" lon="-9.210473">
        <ele>69.318</ele>
        <time>2019-06-21T18:12:40Z</time>
      </trkpt>
      <trkpt lat="43.081830" lon="-9.210633">
        <ele>70.830</ele>
        <time>2019-06-21T18:12:41Z</time>
      </trkpt>
      <trkpt lat="43.081948" lon="-9.210797">
        <ele>73.117</ele>
        <time>2019-06-21T18:12:42Z</time>
      </trkpt>
      <trkpt lat="43.082061" lon="-9.210968">
        <ele>74.583</ele>
        <time>2019-06-21T18:12:43Z</time>
      </trkpt>
      <trkpt lat="43.082164" lon="-9.211145">
        <ele>75.477</ele>
        <time>2019-06-21T18:12:44Z</time>
      </trkpt>
      <trkpt lat="43.082266" lon="-9.211321">
        <ele>75.729</ele>
        <time>2019-06-21T18:12:45Z</time>
      </trkpt>
      <trkpt lat="43.082336" lon="-9.211518">
        <ele>74.099</ele>
        <time>2019-06-21T18:12:46Z</time>
      </trkpt>
      <trkpt lat="43.082382" lon="-9.211679">
        <ele>72.407</ele>
        <time>2019-06-21T18:12:47Z</time>
      </trkpt>
      <trkpt lat="43.082448" lon="-9.211858">
        <ele>71.127</ele>
        <time>2019-06-21T18:12:48Z</time>
      </trkpt>
      <trkpt lat="43.082509" lon="-9.212035">
        <ele>69.708</ele>
        <time>2019-06-21T18:12:49Z</time>
      </trkpt>
      <trkpt lat="43.082570" lon="-9.212208">
        <ele>68.382</ele>
        <time>2019-06-21T18:12:50Z</time>
      </trkpt>
      <trkpt lat="43.082621" lon="-9.212369">
        <ele>67.186</ele>
        <time>2019-06-21T18:12:51Z</time>
      </trkpt>
      <trkpt lat="43.082681" lon="-9.212532">
        <ele>65.958</ele>
        <time>2019-06-21T18:12:52Z</time>
      </trkpt>
      <trkpt lat="43.082739" lon="-9.212691">
        <ele>64.010</ele>
        <time>2019-06-21T18:12:53Z</time>
      </trkpt>
      <trkpt lat="43.082803" lon="-9.212845">
        <ele>61.517</ele>
        <time>2019-06-21T18:12:54Z</time>
      </trkpt>
      <trkpt lat="43.082859" lon="-9.212990">
        <ele>58.573</ele>
        <time>2019-06-21T18:12:55Z</time>
      </trkpt>
      <trkpt lat="43.082905" lon="-9.213135">
        <ele>55.827</ele>
        <time>2019-06-21T18:12:56Z</time>
      </trkpt>
      <trkpt lat="43.082947" lon="-9.213265">
        <ele>53.739</ele>
        <time>2019-06-21T18:12:57Z</time>
      </trkpt>
      <trkpt lat="43.082973" lon="-9.213400">
        <ele>51.589</ele>
        <time>2019-06-21T18:12:58Z</time>
      </trkpt>
      <trkpt lat="43.083006" lon="-9.213535">
        <ele>49.706</ele>
        <time>2019-06-21T18:12:59Z</time>
      </trkpt>
      <trkpt lat="43.083030" lon="-9.213661">
        <ele>48.226</ele>
        <time>2019-06-21T18:13:00Z</time>
      </trkpt>
      <trkpt lat="43.083026" lon="-9.213787">
        <ele>46.908</ele>
        <time>2019-06-21T18:13:01Z</time>
      </trkpt>
      <trkpt lat="43.083013" lon="-9.213886">
        <ele>45.971</ele>
        <time>2019-06-21T18:13:02Z</time>
      </trkpt>
      <trkpt lat="43.082984" lon="-9.213988">
        <ele>45.625</ele>
        <time>2019-06-21T18:13:03Z</time>
      </trkpt>
      <trkpt lat="43.082931" lon="-9.214076">
        <ele>45.537</ele>
        <time>2019-06-21T18:13:04Z</time>
      </trkpt>
      <trkpt lat="43.082872" lon="-9.214149">
        <ele>45.639</ele>
        <time>2019-06-21T18:13:05Z</time>
      </trkpt>
      <trkpt lat="43.082799" lon="-9.214216">
        <ele>46.166</ele>
        <time>2019-06-21T18:13:06Z</time>
      </trkpt>
      <trkpt lat="43.082723" lon="-9.214275">
        <ele>47.752</ele>
        <time>2019-06-21T18:13:07Z</time>
      </trkpt>
      <trkpt lat="43.082640" lon="-9.214336">
        <ele>50.216</ele>
        <time>2019-06-21T18:13:08Z</time>
      </trkpt>
      <trkpt lat="43.082571" lon="-9.214426">
        <ele>52.838</ele>
        <time>2019-06-21T18:13:09Z</time>
      </trkpt>
      <trkpt lat="43.082520" lon="-9.214534">
        <ele>55.362</ele>
        <time>2019-06-21T18:13:10Z</time>
      </trkpt>
      <trkpt lat="43.082488" lon="-9.214669">
        <ele>57.883</ele>
        <time>2019-06-21T18:13:11Z</time>
      </trkpt>
      <trkpt lat="43.082472" lon="-9.214818">
        <ele>59.411</ele>
        <time>2019-06-21T18:13:12Z</time>
      </trkpt>
      <trkpt lat="43.082468" lon="-9.214981">
        <ele>60.308</ele>
        <time>2019-06-21T18:13:13Z</time>
      </trkpt>
      <trkpt lat="43.082474" lon="-9.215164">
        <ele>61.379</ele>
        <time>2019-06-21T18:13:14Z</time>
      </trkpt>
      <trkpt lat="43.082474" lon="-9.215355">
        <ele>63.333</ele>
        <time>2019-06-21T18:13:15Z</time>
      </trkpt>
      <trkpt lat="43.082479" lon="-9.215566">
        <ele>66.195</ele>
        <time>2019-06-21T18:13:16Z</time>
      </trkpt>
      <trkpt lat="43.082486" lon="-9.215779">
        <ele>69.017</ele>
        <time>2019-06-21T18:13:17Z</time>
      </trkpt>
      <trkpt lat="43.082494" lon="-9.215991">
        <ele>70.524</ele>
        <time>2019-06-21T18:13:18Z</time>
      </trkpt>
      <trkpt lat="43.082504" lon="-9.216204">
        <ele>71.570</ele>
        <time>2019-06-21T18:13:19Z</time>
      </trkpt>
      <trkpt lat="43.082515" lon="-9.216429">
        <ele>72.384</ele>
        <time>2019-06-21T18:13:20Z</time>
      </trkpt>
      <trkpt lat="43.082515" lon="-9.216656">
        <ele>72.326</ele>
        <time>2019-06-21T18:13:21Z</time>
      </trkpt>
      <trkpt lat="43.082522" lon="-9.216904">
        <ele>69.519</ele>
        <time>2019-06-21T18:13:22Z</time>
      </trkpt>
      <trkpt lat="43.082528" lon="-9.217161">
        <ele>67.509</ele>
        <time>2019-06-21T18:13:23Z</time>
      </trkpt>
      <trkpt lat="43.082537" lon="-9.217425">
        <ele>67.319</ele>
        <time>2019-06-21T18:13:24Z</time>
      </trkpt>
      <trkpt lat="43.082562" lon="-9.217658">
        <ele>66.008</ele>
        <time>2019-06-21T18:13:25Z</time>
      </trkpt>
      <trkpt lat="43.082591" lon="-9.217923">
        <ele>64.294</ele>
        <time>2019-06-21T18:13:26Z</time>
      </trkpt>
      <trkpt lat="43.082637" lon="-9.218176">
        <ele>62.598</ele>
        <time>2019-06-21T18:13:27Z</time>
      </trkpt>
      <trkpt lat="43.082683" lon="-9.218421">
        <ele>61.350</ele>
        <time>2019-06-21T18:13:28Z</time>
      </trkpt>
      <trkpt lat="43.082730" lon="-9.218659">
        <ele>60.462</ele>
        <time>2019-06-21T18:13:29Z</time>
      </trkpt>
      <trkpt lat="43.082765" lon="-9.218899">
        <ele>61.519</ele>
        <time>2019-06-21T18:13:30Z</time>
      </trkpt>
      <trkpt lat="43.082783" lon="-9.219140">
        <ele>62.635</ele>
        <time>2019-06-21T18:13:31Z</time>
      </trkpt>
      <trkpt lat="43.082784" lon="-9.219383">
        <ele>63.529</ele>
        <time>2019-06-21T18:13:32Z</time>
      </trkpt>
      <trkpt lat="43.082776" lon="-9.219638">
        <ele>65.551</ele>
        <time>2019-06-21T18:13:33Z</time>
      </trkpt>
      <trkpt lat="43.082739" lon="-9.219893">
        <ele>67.956</ele>
        <time>2019-06-21T18:13:34Z</time>
      </trkpt>
      <trkpt lat="43.082699" lon="-9.220156">
        <ele>69.559</ele>
        <time>2019-06-21T18:13:35Z</time>
      </trkpt>
      <trkpt lat="43.082657" lon="-9.220424">
        <ele>70.114</ele>
        <time>2019-06-21T18:13:36Z</time>
      </trkpt>
      <trkpt lat="43.082624" lon="-9.220690">
        <ele>69.108</ele>
        <time>2019-06-21T18:13:37Z</time>
      </trkpt>
      <trkpt lat="43.082599" lon="-9.220967">
        <ele>67.038</ele>
        <time>2019-06-21T18:13:38Z</time>
      </trkpt>
      <trkpt lat="43.082600" lon="-9.221243">
        <ele>66.512</ele>
        <time>2019-06-21T18:13:39Z</time>
      </trkpt>
      <trkpt lat="43.082624" lon="-9.221524">
        <ele>67.744</ele>
        <time>2019-06-21T18:13:40Z</time>
      </trkpt>
      <trkpt lat="43.082652" lon="-9.221810">
        <ele>69.216</ele>
        <time>2019-06-21T18:13:41Z</time>
      </trkpt>
      <trkpt lat="43.082665" lon="-9.222079">
        <ele>71.523</ele>
        <time>2019-06-21T18:13:42Z</time>
      </trkpt>
      <trkpt lat="43.082683" lon="-9.222342">
        <ele>73.569</ele>
        <time>2019-06-21T18:13:43Z</time>
      </trkpt>
      <trkpt lat="43.082678" lon="-9.222599">
        <ele>75.653</ele>
        <time>2019-06-21T18:13:44Z</time>
      </trkpt>
      <trkpt lat="43.082659" lon="-9.222854">
        <ele>77.355</ele>
        <time>2019-06-21T18:13:45Z</time>
      </trkpt>
      <trkpt lat="43.082632" lon="-9.223086">
        <ele>79.273</ele>
        <time>2019-06-21T18:13:46Z</time>
      </trkpt>
      <trkpt lat="43.082578" lon="-9.223312">
        <ele>81.285</ele>
        <time>2019-06-21T18:13:47Z</time>
      </trkpt>
      <trkpt lat="43.082507" lon="-9.223524">
        <ele>83.013</ele>
        <time>2019-06-21T18:13:48Z</time>
      </trkpt>
      <trkpt lat="43.082407" lon="-9.223734">
        <ele>84.308</ele>
        <time>2019-06-21T18:13:49Z</time>
      </trkpt>
      <trkpt lat="43.082296" lon="-9.223943">
        <ele>84.880</ele>
        <time>2019-06-21T18:13:50Z</time>
      </trkpt>
      <trkpt lat="43.082178" lon="-9.224156">
        <ele>84.394</ele>
        <time>2019-06-21T18:13:51Z</time>
      </trkpt>
      <trkpt lat="43.082061" lon="-9.224376">
        <ele>85.376</ele>
        <time>2019-06-21T18:13:52Z</time>
      </trkpt>
      <trkpt lat="43.081951" lon="-9.224596">
        <ele>85.558</ele>
        <time>2019-06-21T18:13:53Z</time>
      </trkpt>
      <trkpt lat="43.081838" lon="-9.224793">
        <ele>85.735</ele>
        <time>2019-06-21T18:13:54Z</time>
      </trkpt>
      <trkpt lat="43.081748" lon="-9.225000">
        <ele>85.471</ele>
        <time>2019-06-21T18:13:55Z</time>
      </trkpt>
      <trkpt lat="43.081672" lon="-9.225202">
        <ele>85.075</ele>
        <time>2019-06-21T18:13:56Z</time>
      </trkpt>
      <trkpt lat="43.081617" lon="-9.225409">
        <ele>85.347</ele>
        <time>2019-06-21T18:13:57Z</time>
      </trkpt>
      <trkpt lat="43.081575" lon="-9.225632">
        <ele>86.815</ele>
        <time>2019-06-21T18:13:58Z</time>
      </trkpt>
      <trkpt lat="43.081558" lon="-9.225846">
        <ele>88.565</ele>
        <time>2019-06-21T18:13:59Z</time>
      </trkpt>
      <trkpt lat="43.081563" lon="-9.226068">
        <ele>91.011</ele>
        <time>2019-06-21T18:14:00Z</time>
      </trkpt>
      <trkpt lat="43.081582" lon="-9.226297">
        <ele>93.208</ele>
        <time>2019-06-21T18:14:01Z</time>
      </trkpt>
      <trkpt lat="43.081629" lon="-9.226523">
        <ele>94.964</ele>
        <time>2019-06-21T18:14:02Z</time>
      </trkpt>
      <trkpt lat="43.081691" lon="-9.226744">
        <ele>96.758</ele>
        <time>2019-06-21T18:14:03Z</time>
      </trkpt>
      <trkpt lat="43.081772" lon="-9.226950">
        <ele>99.120</ele>
        <time>2019-06-21T18:14:04Z</time>
      </trkpt>
      <trkpt lat="43.081887" lon="-9.227152">
        <ele>102.022</ele>
        <time>2019-06-21T18:14:05Z</time>
      </trkpt>
      <trkpt lat="43.081992" lon="-9.227341">
        <ele>104.629</ele>
        <time>2019-06-21T18:14:06Z</time>
      </trkpt>
      <trkpt lat="43.082114" lon="-9.227498">
        <ele>107.245</ele>
        <time>2019-06-21T18:14:07Z</time>
      </trkpt>
      <trkpt lat="43.082226" lon="-9.227628">
        <ele>108.039</ele>
        <time>2019-06-21T18:14:08Z</time>
      </trkpt>
      <trkpt lat="43.082298" lon="-9.227741">
        <ele>107.731</ele>
        <time>2019-06-21T18:14:09Z</time>
      </trkpt>
      <trkpt lat="43.082349" lon="-9.227861">
        <ele>107.864</ele>
        <time>2019-06-21T18:14:10Z</time>
      </trkpt>
      <trkpt lat="43.082387" lon="-9.227972">
        <ele>108.106</ele>
        <time>2019-06-21T18:14:11Z</time>
      </trkpt>
      <trkpt lat="43.082406" lon="-9.228077">
        <ele>108.316</ele>
        <time>2019-06-21T18:14:12Z</time>
      </trkpt>
      <trkpt lat="43.082419" lon="-9.228181">
        <ele>108.108</ele>
        <time>2019-06-21T18:14:13Z</time>
      </trkpt>
      <trkpt lat="43.082417" lon="-9.228265">
        <ele>108.049</ele>
        <time>2019-06-21T18:14:14Z</time>
      </trkpt>
      <trkpt lat="43.082419" lon="-9.228346">
        <ele>107.943</ele>
        <time>2019-06-21T18:14:15Z</time>
      </trkpt>
      <trkpt lat="43.082416" lon="-9.228416">
        <ele>107.945</ele>
        <time>2019-06-21T18:14:16Z</time>
      </trkpt>
      <trkpt lat="43.082408" lon="-9.228515">
        <ele>108.087</ele>
        <time>2019-06-21T18:14:18Z</time>
      </trkpt>
      <trkpt lat="43.082401" lon="-9.228579">
        <ele>108.124</ele>
        <time>2019-06-21T18:14:20Z</time>
      </trkpt>
      <trkpt lat="43.082399" lon="-9.228648">
        <ele>108.240</ele>
        <time>2019-06-21T18:14:21Z</time>
      </trkpt>
      <trkpt lat="43.082364" lon="-9.228752">
        <ele>109.054</ele>
        <time>2019-06-21T18:14:22Z</time>
      </trkpt>
      <trkpt lat="43.082313" lon="-9.228867">
        <ele>109.986</ele>
        <time>2019-06-21T18:14:23Z</time>
      </trkpt>
      <trkpt lat="43.082257" lon="-9.228994">
        <ele>110.855</ele>
        <time>2019-06-21T18:14:24Z</time>
      </trkpt>
      <trkpt lat="43.082190" lon="-9.229127">
        <ele>111.107</ele>
        <time>2019-06-21T18:14:25Z</time>
      </trkpt>
      <trkpt lat="43.082121" lon="-9.229256">
        <ele>111.817</ele>
        <time>2019-06-21T18:14:26Z</time>
      </trkpt>
      <trkpt lat="43.082052" lon="-9.229392">
        <ele>112.208</ele>
        <time>2019-06-21T18:14:27Z</time>
      </trkpt>
      <trkpt lat="43.081981" lon="-9.229530">
        <ele>112.588</ele>
        <time>2019-06-21T18:14:28Z</time>
      </trkpt>
      <trkpt lat="43.081902" lon="-9.229654">
        <ele>112.712</ele>
        <time>2019-06-21T18:14:29Z</time>
      </trkpt>
      <trkpt lat="43.081820" lon="-9.229791">
        <ele>112.434</ele>
        <time>2019-06-21T18:14:30Z</time>
      </trkpt>
      <trkpt lat="43.081726" lon="-9.229933">
        <ele>111.656</ele>
        <time>2019-06-21T18:14:31Z</time>
      </trkpt>
      <trkpt lat="43.081617" lon="-9.230070">
        <ele>110.853</ele>
        <time>2019-06-21T18:14:32Z</time>
      </trkpt>
      <trkpt lat="43.081504" lon="-9.230217">
        <ele>109.949</ele>
        <time>2019-06-21T18:14:33Z</time>
      </trkpt>
      <trkpt lat="43.081379" lon="-9.230355">
        <ele>108.053</ele>
        <time>2019-06-21T18:14:34Z</time>
      </trkpt>
      <trkpt lat="43.081259" lon="-9.230498">
        <ele>107.145</ele>
        <time>2019-06-21T18:14:35Z</time>
      </trkpt>
      <trkpt lat="43.081144" lon="-9.230591">
        <ele>107.254</ele>
        <time>2019-06-21T18:14:36Z</time>
      </trkpt>
      <trkpt lat="43.081019" lon="-9.230717">
        <ele>108.156</ele>
        <time>2019-06-21T18:14:37Z</time>
      </trkpt>
      <trkpt lat="43.080885" lon="-9.230838">
        <ele>109.811</ele>
        <time>2019-06-21T18:14:38Z</time>
      </trkpt>
      <trkpt lat="43.080742" lon="-9.230971">
        <ele>111.208</ele>
        <time>2019-06-21T18:14:39Z</time>
      </trkpt>
      <trkpt lat="43.080604" lon="-9.231093">
        <ele>111.518</ele>
        <time>2019-06-21T18:14:40Z</time>
      </trkpt>
      <trkpt lat="43.080463" lon="-9.231215">
        <ele>113.222</ele>
        <time>2019-06-21T18:14:41Z</time>
      </trkpt>
      <trkpt lat="43.080329" lon="-9.231335">
        <ele>114.864</ele>
        <time>2019-06-21T18:14:42Z</time>
      </trkpt>
      <trkpt lat="43.080218" lon="-9.231477">
        <ele>115.646</ele>
        <time>2019-06-21T18:14:43Z</time>
      </trkpt>
      <trkpt lat="43.080131" lon="-9.231617">
        <ele>116.063</ele>
        <time>2019-06-21T18:14:44Z</time>
      </trkpt>
      <trkpt lat="43.080060" lon="-9.231767">
        <ele>115.629</ele>
        <time>2019-06-21T18:14:45Z</time>
      </trkpt>
      <trkpt lat="43.080015" lon="-9.231929">
        <ele>113.833</ele>
        <time>2019-06-21T18:14:46Z</time>
      </trkpt>
      <trkpt lat="43.079989" lon="-9.232095">
        <ele>112.785</ele>
        <time>2019-06-21T18:14:47Z</time>
      </trkpt>
      <trkpt lat="43.079964" lon="-9.232266">
        <ele>111.869</ele>
        <time>2019-06-21T18:14:48Z</time>
      </trkpt>
      <trkpt lat="43.079940" lon="-9.232436">
        <ele>111.304</ele>
        <time>2019-06-21T18:14:49Z</time>
      </trkpt>
      <trkpt lat="43.079919" lon="-9.232604">
        <ele>110.824</ele>
        <time>2019-06-21T18:14:50Z</time>
      </trkpt>
      <trkpt lat="43.079886" lon="-9.232752">
        <ele>110.708</ele>
        <time>2019-06-21T18:14:51Z</time>
      </trkpt>
      <trkpt lat="43.079846" lon="-9.232877">
        <ele>110.789</ele>
        <time>2019-06-21T18:14:52Z</time>
      </trkpt>
      <trkpt lat="43.079775" lon="-9.232983">
        <ele>110.933</ele>
        <time>2019-06-21T18:14:53Z</time>
      </trkpt>
      <trkpt lat="43.079708" lon="-9.233077">
        <ele>111.515</ele>
        <time>2019-06-21T18:14:54Z</time>
      </trkpt>
      <trkpt lat="43.079617" lon="-9.233150">
        <ele>114.437</ele>
        <time>2019-06-21T18:14:55Z</time>
      </trkpt>
      <trkpt lat="43.079536" lon="-9.233224">
        <ele>117.044</ele>
        <time>2019-06-21T18:14:56Z</time>
      </trkpt>
      <trkpt lat="43.079507" lon="-9.233303">
        <ele>118.020</ele>
        <time>2019-06-21T18:14:57Z</time>
      </trkpt>
      <trkpt lat="43.079463" lon="-9.233387">
        <ele>119.664</ele>
        <time>2019-06-21T18:14:58Z</time>
      </trkpt>
      <trkpt lat="43.079506" lon="-9.233476">
        <ele>118.636</ele>
        <time>2019-06-21T18:14:59Z</time>
      </trkpt>
      <trkpt lat="43.079538" lon="-9.233582">
        <ele>118.253</ele>
        <time>2019-06-21T18:15:00Z</time>
      </trkpt>
      <trkpt lat="43.079570" lon="-9.233686">
        <ele>118.404</ele>
        <time>2019-06-21T18:15:01Z</time>
      </trkpt>
      <trkpt lat="43.079627" lon="-9.233771">
        <ele>118.214</ele>
        <time>2019-06-21T18:15:02Z</time>
      </trkpt>
      <trkpt lat="43.079738" lon="-9.233877">
        <ele>117.308</ele>
        <time>2019-06-21T18:15:03Z</time>
      </trkpt>
      <trkpt lat="43.079817" lon="-9.233974">
        <ele>116.988</ele>
        <time>2019-06-21T18:15:04Z</time>
      </trkpt>
      <trkpt lat="43.079906" lon="-9.234094">
        <ele>116.212</ele>
        <time>2019-06-21T18:15:05Z</time>
      </trkpt>
      <trkpt lat="43.079986" lon="-9.234191">
        <ele>115.094</ele>
        <time>2019-06-21T18:15:06Z</time>
      </trkpt>
      <trkpt lat="43.080067" lon="-9.234281">
        <ele>114.296</ele>
        <time>2019-06-21T18:15:07Z</time>
      </trkpt>
      <trkpt lat="43.080132" lon="-9.234410">
        <ele>114.643</ele>
        <time>2019-06-21T18:15:08Z</time>
      </trkpt>
      <trkpt lat="43.080187" lon="-9.234546">
        <ele>115.059</ele>
        <time>2019-06-21T18:15:09Z</time>
      </trkpt>
      <trkpt lat="43.080246" lon="-9.234683">
        <ele>115.353</ele>
        <time>2019-06-21T18:15:10Z</time>
      </trkpt>
      <trkpt lat="43.080284" lon="-9.234847">
        <ele>117.025</ele>
        <time>2019-06-21T18:15:11Z</time>
      </trkpt>
      <trkpt lat="43.080321" lon="-9.235013">
        <ele>118.977</ele>
        <time>2019-06-21T18:15:12Z</time>
      </trkpt>
      <trkpt lat="43.080344" lon="-9.235172">
        <ele>122.061</ele>
        <time>2019-06-21T18:15:13Z</time>
      </trkpt>
      <trkpt lat="43.080368" lon="-9.235314">
        <ele>124.427</ele>
        <time>2019-06-21T18:15:14Z</time>
      </trkpt>
      <trkpt lat="43.080417" lon="-9.235452">
        <ele>125.408</ele>
        <time>2019-06-21T18:15:15Z</time>
      </trkpt>
      <trkpt lat="43.080481" lon="-9.235586">
        <ele>126.720</ele>
        <time>2019-06-21T18:15:16Z</time>
      </trkpt>
      <trkpt lat="43.080566" lon="-9.235708">
        <ele>128.254</ele>
        <time>2019-06-21T18:15:17Z</time>
      </trkpt>
      <trkpt lat="43.080660" lon="-9.235802">
        <ele>129.666</ele>
        <time>2019-06-21T18:15:18Z</time>
      </trkpt>
      <trkpt lat="43.080762" lon="-9.235890">
        <ele>131.188</ele>
        <time>2019-06-21T18:15:19Z</time>
      </trkpt>
      <trkpt lat="43.080872" lon="-9.235949">
        <ele>131.515</ele>
        <time>2019-06-21T18:15:20Z</time>
      </trkpt>
      <trkpt lat="43.080989" lon="-9.236007">
        <ele>131.381</ele>
        <time>2019-06-21T18:15:21Z</time>
      </trkpt>
      <trkpt lat="43.081103" lon="-9.236060">
        <ele>130.775</ele>
        <time>2019-06-21T18:15:22Z</time>
      </trkpt>
      <trkpt lat="43.081219" lon="-9.236098">
        <ele>131.747</ele>
        <time>2019-06-21T18:15:23Z</time>
      </trkpt>
      <trkpt lat="43.081338" lon="-9.236125">
        <ele>132.447</ele>
        <time>2019-06-21T18:15:24Z</time>
      </trkpt>
      <trkpt lat="43.081460" lon="-9.236152">
        <ele>134.329</ele>
        <time>2019-06-21T18:15:25Z</time>
      </trkpt>
      <trkpt lat="43.081580" lon="-9.236171">
        <ele>136.721</ele>
        <time>2019-06-21T18:15:26Z</time>
      </trkpt>
      <trkpt lat="43.081705" lon="-9.236188">
        <ele>138.708</ele>
        <time>2019-06-21T18:15:27Z</time>
      </trkpt>
      <trkpt lat="43.081822" lon="-9.236209">
        <ele>139.957</ele>
        <time>2019-06-21T18:15:28Z</time>
      </trkpt>
      <trkpt lat="43.081953" lon="-9.236244">
        <ele>141.311</ele>
        <time>2019-06-21T18:15:29Z</time>
      </trkpt>
      <trkpt lat="43.082076" lon="-9.236293">
        <ele>141.663</ele>
        <time>2019-06-21T18:15:30Z</time>
      </trkpt>
      <trkpt lat="43.082208" lon="-9.236351">
        <ele>142.155</ele>
        <time>2019-06-21T18:15:31Z</time>
      </trkpt>
      <trkpt lat="43.082329" lon="-9.236429">
        <ele>142.252</ele>
        <time>2019-06-21T18:15:32Z</time>
      </trkpt>
      <trkpt lat="43.082439" lon="-9.236501">
        <ele>141.918</ele>
        <time>2019-06-21T18:15:33Z</time>
      </trkpt>
      <trkpt lat="43.082548" lon="-9.236573">
        <ele>141.852</ele>
        <time>2019-06-21T18:15:34Z</time>
      </trkpt>
      <trkpt lat="43.082654" lon="-9.236663">
        <ele>142.334</ele>
        <time>2019-06-21T18:15:35Z</time>
      </trkpt>
      <trkpt lat="43.082749" lon="-9.236767">
        <ele>142.899</ele>
        <time>2019-06-21T18:15:36Z</time>
      </trkpt>
      <trkpt lat="43.082832" lon="-9.236878">
        <ele>144.007</ele>
        <time>2019-06-21T18:15:37Z</time>
      </trkpt>
      <trkpt lat="43.082910" lon="-9.236989">
        <ele>145.527</ele>
        <time>2019-06-21T18:15:38Z</time>
      </trkpt>
      <trkpt lat="43.082976" lon="-9.237090">
        <ele>146.308</ele>
        <time>2019-06-21T18:15:39Z</time>
      </trkpt>
      <trkpt lat="43.083031" lon="-9.237173">
        <ele>146.862</ele>
        <time>2019-06-21T18:15:40Z</time>
      </trkpt>
      <trkpt lat="43.083076" lon="-9.237270">
        <ele>147.496</ele>
        <time>2019-06-21T18:15:41Z</time>
      </trkpt>
      <trkpt lat="43.083107" lon="-9.237367">
        <ele>148.048</ele>
        <time>2019-06-21T18:15:42Z</time>
      </trkpt>
      <trkpt lat="43.083120" lon="-9.237474">
        <ele>148.430</ele>
        <time>2019-06-21T18:15:43Z</time>
      </trkpt>
      <trkpt lat="43.083121" lon="-9.237578">
        <ele>147.957</ele>
        <time>2019-06-21T18:15:44Z</time>
      </trkpt>
      <trkpt lat="43.083108" lon="-9.237683">
        <ele>147.173</ele>
        <time>2019-06-21T18:15:45Z</time>
      </trkpt>
      <trkpt lat="43.083088" lon="-9.237788">
        <ele>146.187</ele>
        <time>2019-06-21T18:15:46Z</time>
      </trkpt>
      <trkpt lat="43.083025" lon="-9.237909">
        <ele>144.979</ele>
        <time>2019-06-21T18:15:47Z</time>
      </trkpt>
      <trkpt lat="43.082976" lon="-9.238030">
        <ele>143.921</ele>
        <time>2019-06-21T18:15:48Z</time>
      </trkpt>
      <trkpt lat="43.082921" lon="-9.238157">
        <ele>142.141</ele>
        <time>2019-06-21T18:15:49Z</time>
      </trkpt>
      <trkpt lat="43.082863" lon="-9.238291">
        <ele>140.105</ele>
        <time>2019-06-21T18:15:50Z</time>
      </trkpt>
      <trkpt lat="43.082804" lon="-9.238424">
        <ele>137.808</ele>
        <time>2019-06-21T18:15:51Z</time>
      </trkpt>
      <trkpt lat="43.082737" lon="-9.238560">
        <ele>135.795</ele>
        <time>2019-06-21T18:15:52Z</time>
      </trkpt>
      <trkpt lat="43.082660" lon="-9.238690">
        <ele>133.119</ele>
        <time>2019-06-21T18:15:53Z</time>
      </trkpt>
      <trkpt lat="43.082571" lon="-9.238816">
        <ele>130.781</ele>
        <time>2019-06-21T18:15:54Z</time>
      </trkpt>
      <trkpt lat="43.082468" lon="-9.238940">
        <ele>129.073</ele>
        <time>2019-06-21T18:15:55Z</time>
      </trkpt>
      <trkpt lat="43.082348" lon="-9.239048">
        <ele>127.810</ele>
        <time>2019-06-21T18:15:56Z</time>
      </trkpt>
      <trkpt lat="43.082238" lon="-9.239124">
        <ele>127.266</ele>
        <time>2019-06-21T18:15:57Z</time>
      </trkpt>
      <trkpt lat="43.082109" lon="-9.239220">
        <ele>126.980</ele>
        <time>2019-06-21T18:15:58Z</time>
      </trkpt>
      <trkpt lat="43.081989" lon="-9.239287">
        <ele>127.572</ele>
        <time>2019-06-21T18:15:59Z</time>
      </trkpt>
      <trkpt lat="43.081857" lon="-9.239381">
        <ele>127.585</ele>
        <time>2019-06-21T18:16:00Z</time>
      </trkpt>
      <trkpt lat="43.081731" lon="-9.239484">
        <ele>127.289</ele>
        <time>2019-06-21T18:16:01Z</time>
      </trkpt>
      <trkpt lat="43.081614" lon="-9.239605">
        <ele>126.917</ele>
        <time>2019-06-21T18:16:02Z</time>
      </trkpt>
      <trkpt lat="43.081512" lon="-9.239729">
        <ele>126.308</ele>
        <time>2019-06-21T18:16:03Z</time>
      </trkpt>
      <trkpt lat="43.081419" lon="-9.239863">
        <ele>125.141</ele>
        <time>2019-06-21T18:16:04Z</time>
      </trkpt>
      <trkpt lat="43.081327" lon="-9.239984">
        <ele>124.095</ele>
        <time>2019-06-21T18:16:05Z</time>
      </trkpt>
      <trkpt lat="43.081240" lon="-9.240108">
        <ele>122.097</ele>
        <time>2019-06-21T18:16:06Z</time>
      </trkpt>
      <trkpt lat="43.081141" lon="-9.240220">
        <ele>120.459</ele>
        <time>2019-06-21T18:16:07Z</time>
      </trkpt>
      <trkpt lat="43.081030" lon="-9.240302">
        <ele>120.376</ele>
        <time>2019-06-21T18:16:08Z</time>
      </trkpt>
      <trkpt lat="43.080908" lon="-9.240379">
        <ele>121.442</ele>
        <time>2019-06-21T18:16:09Z</time>
      </trkpt>
      <trkpt lat="43.080786" lon="-9.240440">
        <ele>123.196</ele>
        <time>2019-06-21T18:16:10Z</time>
      </trkpt>
      <trkpt lat="43.080672" lon="-9.240513">
        <ele>124.178</ele>
        <time>2019-06-21T18:16:11Z</time>
      </trkpt>
      <trkpt lat="43.080567" lon="-9.240614">
        <ele>124.442</ele>
        <time>2019-06-21T18:16:12Z</time>
      </trkpt>
      <trkpt lat="43.080469" lon="-9.240733">
        <ele>123.822</ele>
        <time>2019-06-21T18:16:13Z</time>
      </trkpt>
      <trkpt lat="43.080384" lon="-9.240861">
        <ele>122.414</ele>
        <time>2019-06-21T18:16:14Z</time>
      </trkpt>
      <trkpt lat="43.080300" lon="-9.240987">
        <ele>121.208</ele>
        <time>2019-06-21T18:16:15Z</time>
      </trkpt>
      <trkpt lat="43.080220" lon="-9.241123">
        <ele>119.927</ele>
        <time>2019-06-21T18:16:16Z</time>
      </trkpt>
      <trkpt lat="43.080138" lon="-9.241256">
        <ele>118.461</ele>
        <time>2019-06-21T18:16:17Z</time>
      </trkpt>
      <trkpt lat="43.080051" lon="-9.241369">
        <ele>117.413</ele>
        <time>2019-06-21T18:16:18Z</time>
      </trkpt>
      <trkpt lat="43.079960" lon="-9.241454">
        <ele>117.035</ele>
        <time>2019-06-21T18:16:19Z</time>
      </trkpt>
      <trkpt lat="43.079855" lon="-9.241518">
        <ele>116.562</ele>
        <time>2019-06-21T18:16:20Z</time>
      </trkpt>
      <trkpt lat="43.079730" lon="-9.241581">
        <ele>116.118</ele>
        <time>2019-06-21T18:16:21Z</time>
      </trkpt>
      <trkpt lat="43.079594" lon="-9.241629">
        <ele>115.992</ele>
        <time>2019-06-21T18:16:22Z</time>
      </trkpt>
      <trkpt lat="43.079448" lon="-9.241695">
        <ele>115.344</ele>
        <time>2019-06-21T18:16:23Z</time>
      </trkpt>
      <trkpt lat="43.079294" lon="-9.241757">
        <ele>115.216</ele>
        <time>2019-06-21T18:16:24Z</time>
      </trkpt>
      <trkpt lat="43.079140" lon="-9.241819">
        <ele>114.576</ele>
        <time>2019-06-21T18:16:25Z</time>
      </trkpt>
      <trkpt lat="43.078996" lon="-9.241882">
        <ele>112.513</ele>
        <time>2019-06-21T18:16:26Z</time>
      </trkpt>
      <trkpt lat="43.078851" lon="-9.241944">
        <ele>111.308</ele>
        <time>2019-06-21T18:16:27Z</time>
      </trkpt>
      <trkpt lat="43.078707" lon="-9.242009">
        <ele>111.284</ele>
        <time>2019-06-21T18:16:28Z</time>
      </trkpt>
      <trkpt lat="43.078566" lon="-9.242072">
        <ele>110.738</ele>
        <time>2019-06-21T18:16:29Z</time>
      </trkpt>
      <trkpt lat="43.078430" lon="-9.242137">
        <ele>109.570</ele>
        <time>2019-06-21T18:16:30Z</time>
      </trkpt>
      <trkpt lat="43.078296" lon="-9.242204">
        <ele>108.632</ele>
        <time>2019-06-21T18:16:31Z</time>
      </trkpt>
      <trkpt lat="43.078167" lon="-9.242271">
        <ele>108.289</ele>
        <time>2019-06-21T18:16:32Z</time>
      </trkpt>
      <trkpt lat="43.078042" lon="-9.242334">
        <ele>108.175</ele>
        <time>2019-06-21T18:16:33Z</time>
      </trkpt>
      <trkpt lat="43.077926" lon="-9.242396">
        <ele>108.369</ele>
        <time>2019-06-21T18:16:34Z</time>
      </trkpt>
      <trkpt lat="43.077809" lon="-9.242453">
        <ele>108.511</ele>
        <time>2019-06-21T18:16:35Z</time>
      </trkpt>
      <trkpt lat="43.077695" lon="-9.242523">
        <ele>107.714</ele>
        <time>2019-06-21T18:16:36Z</time>
      </trkpt>
      <trkpt lat="43.077595" lon="-9.242603">
        <ele>106.854</ele>
        <time>2019-06-21T18:16:37Z</time>
      </trkpt>
      <trkpt lat="43.077487" lon="-9.242690">
        <ele>106.009</ele>
        <time>2019-06-21T18:16:38Z</time>
      </trkpt>
      <trkpt lat="43.077386" lon="-9.242786">
        <ele>105.408</ele>
        <time>2019-06-21T18:16:39Z</time>
      </trkpt>
      <trkpt lat="43.077278" lon="-9.242892">
        <ele>105.024</ele>
        <time>2019-06-21T18:16:40Z</time>
      </trkpt>
      <trkpt lat="43.077177" lon="-9.243029">
        <ele>104.588</ele>
        <time>2019-06-21T18:16:41Z</time>
      </trkpt>
      <trkpt lat="43.077081" lon="-9.243160">
        <ele>104.890</ele>
        <time>2019-06-21T18:16:42Z</time>
      </trkpt>
      <trkpt lat="43.076987" lon="-9.243287">
        <ele>105.082</ele>
        <time>2019-06-21T18:16:43Z</time>
      </trkpt>
      <trkpt lat="43.076896" lon="-9.243398">
        <ele>105.079</ele>
        <time>2019-06-21T18:16:44Z</time>
      </trkpt>
      <trkpt lat="43.076811" lon="-9.243516">
        <ele>105.035</ele>
        <time>2019-06-21T18:16:45Z</time>
      </trkpt>
      <trkpt lat="43.076726" lon="-9.243623">
        <ele>105.129</ele>
        <time>2019-06-21T18:16:46Z</time>
      </trkpt>
      <trkpt lat="43.076639" lon="-9.243692">
        <ele>105.361</ele>
        <time>2019-06-21T18:16:47Z</time>
      </trkpt>
      <trkpt lat="43.076541" lon="-9.243739">
        <ele>105.357</ele>
        <time>2019-06-21T18:16:48Z</time>
      </trkpt>
      <trkpt lat="43.076432" lon="-9.243769">
        <ele>105.100</ele>
        <time>2019-06-21T18:16:49Z</time>
      </trkpt>
      <trkpt lat="43.076320" lon="-9.243796">
        <ele>104.520</ele>
        <time>2019-06-21T18:16:50Z</time>
      </trkpt>
      <trkpt lat="43.076207" lon="-9.243811">
        <ele>103.708</ele>
        <time>2019-06-21T18:16:51Z</time>
      </trkpt>
      <trkpt lat="43.076086" lon="-9.243816">
        <ele>102.858</ele>
        <time>2019-06-21T18:16:52Z</time>
      </trkpt>
      <trkpt lat="43.075969" lon="-9.243807">
        <ele>101.612</ele>
        <time>2019-06-21T18:16:53Z</time>
      </trkpt>
      <trkpt lat="43.075846" lon="-9.243805">
        <ele>100.474</ele>
        <time>2019-06-21T18:16:54Z</time>
      </trkpt>
      <trkpt lat="43.075728" lon="-9.243809">
        <ele>99.216</ele>
        <time>2019-06-21T18:16:55Z</time>
      </trkpt>
      <trkpt lat="43.075608" lon="-9.243825">
        <ele>97.863</ele>
        <time>2019-06-21T18:16:56Z</time>
      </trkpt>
      <trkpt lat="43.075488" lon="-9.243847">
        <ele>96.539</ele>
        <time>2019-06-21T18:16:57Z</time>
      </trkpt>
      <trkpt lat="43.075360" lon="-9.243865">
        <ele>95.023</ele>
        <time>2019-06-21T18:16:58Z</time>
      </trkpt>
      <trkpt lat="43.075231" lon="-9.243876">
        <ele>93.835</ele>
        <time>2019-06-21T18:16:59Z</time>
      </trkpt>
      <trkpt lat="43.075093" lon="-9.243879">
        <ele>92.791</ele>
        <time>2019-06-21T18:17:00Z</time>
      </trkpt>
      <trkpt lat="43.074953" lon="-9.243893">
        <ele>91.381</ele>
        <time>2019-06-21T18:17:01Z</time>
      </trkpt>
      <trkpt lat="43.074812" lon="-9.243909">
        <ele>89.119</ele>
        <time>2019-06-21T18:17:02Z</time>
      </trkpt>
      <trkpt lat="43.074674" lon="-9.243922">
        <ele>87.608</ele>
        <time>2019-06-21T18:17:03Z</time>
      </trkpt>
      <trkpt lat="43.074539" lon="-9.243932">
        <ele>87.032</ele>
        <time>2019-06-21T18:17:04Z</time>
      </trkpt>
      <trkpt lat="43.074400" lon="-9.243964">
        <ele>86.376</ele>
        <time>2019-06-21T18:17:05Z</time>
      </trkpt>
      <trkpt lat="43.074268" lon="-9.243984">
        <ele>85.798</ele>
        <time>2019-06-21T18:17:06Z</time>
      </trkpt>
      <trkpt lat="43.074128" lon="-9.244003">
        <ele>84.940</ele>
        <time>2019-06-21T18:17:07Z</time>
      </trkpt>
      <trkpt lat="43.074006" lon="-9.244009">
        <ele>84.017</ele>
        <time>2019-06-21T18:17:08Z</time>
      </trkpt>
      <trkpt lat="43.073869" lon="-9.244028">
        <ele>82.743</ele>
        <time>2019-06-21T18:17:09Z</time>
      </trkpt>
      <trkpt lat="43.073755" lon="-9.244048">
        <ele>81.127</ele>
        <time>2019-06-21T18:17:10Z</time>
      </trkpt>
      <trkpt lat="43.073637" lon="-9.244060">
        <ele>79.529</ele>
        <time>2019-06-21T18:17:11Z</time>
      </trkpt>
      <trkpt lat="43.073507" lon="-9.244038">
        <ele>77.538</ele>
        <time>2019-06-21T18:17:12Z</time>
      </trkpt>
      <trkpt lat="43.073386" lon="-9.244008">
        <ele>75.770</ele>
        <time>2019-06-21T18:17:13Z</time>
      </trkpt>
      <trkpt lat="43.073261" lon="-9.243949">
        <ele>74.117</ele>
        <time>2019-06-21T18:17:14Z</time>
      </trkpt>
      <trkpt lat="43.073122" lon="-9.243893">
        <ele>72.208</ele>
        <time>2019-06-21T18:17:15Z</time>
      </trkpt>
      <trkpt lat="43.072990" lon="-9.243830">
        <ele>70.656</ele>
        <time>2019-06-21T18:17:16Z</time>
      </trkpt>
      <trkpt lat="43.072857" lon="-9.243757">
        <ele>69.270</ele>
        <time>2019-06-21T18:17:17Z</time>
      </trkpt>
      <trkpt lat="43.072731" lon="-9.243674">
        <ele>68.272</ele>
        <time>2019-06-21T18:17:18Z</time>
      </trkpt>
      <trkpt lat="43.072608" lon="-9.243585">
        <ele>68.154</ele>
        <time>2019-06-21T18:17:19Z</time>
      </trkpt>
      <trkpt lat="43.072494" lon="-9.243489">
        <ele>68.271</ele>
        <time>2019-06-21T18:17:20Z</time>
      </trkpt>
      <trkpt lat="43.072386" lon="-9.243398">
        <ele>67.817</ele>
        <time>2019-06-21T18:17:21Z</time>
      </trkpt>
      <trkpt lat="43.072282" lon="-9.243301">
        <ele>67.251</ele>
        <time>2019-06-21T18:17:22Z</time>
      </trkpt>
      <trkpt lat="43.072165" lon="-9.243221">
        <ele>66.673</ele>
        <time>2019-06-21T18:17:23Z</time>
      </trkpt>
      <trkpt lat="43.072051" lon="-9.243131">
        <ele>66.374</ele>
        <time>2019-06-21T18:17:24Z</time>
      </trkpt>
      <trkpt lat="43.071932" lon="-9.243032">
        <ele>66.056</ele>
        <time>2019-06-21T18:17:25Z</time>
      </trkpt>
      <trkpt lat="43.071815" lon="-9.242930">
        <ele>65.321</ele>
        <time>2019-06-21T18:17:26Z</time>
      </trkpt>
      <trkpt lat="43.071688" lon="-9.242822">
        <ele>64.808</ele>
        <time>2019-06-21T18:17:27Z</time>
      </trkpt>
      <trkpt lat="43.071564" lon="-9.242714">
        <ele>64.160</ele>
        <time>2019-06-21T18:17:28Z</time>
      </trkpt>
      <trkpt lat="43.071423" lon="-9.242597">
        <ele>63.474</ele>
        <time>2019-06-21T18:17:29Z</time>
      </trkpt>
      <trkpt lat="43.071283" lon="-9.242476">
        <ele>63.826</ele>
        <time>2019-06-21T18:17:30Z</time>
      </trkpt>
      <trkpt lat="43.071168" lon="-9.242331">
        <ele>64.938</ele>
        <time>2019-06-21T18:17:31Z</time>
      </trkpt>
      <trkpt lat="43.071024" lon="-9.242203">
        <ele>66.255</ele>
        <time>2019-06-21T18:17:32Z</time>
      </trkpt>
      <trkpt lat="43.070878" lon="-9.242064">
        <ele>68.271</ele>
        <time>2019-06-21T18:17:33Z</time>
      </trkpt>
      <trkpt lat="43.070738" lon="-9.241927">
        <ele>70.025</ele>
        <time>2019-06-21T18:17:34Z</time>
      </trkpt>
      <trkpt lat="43.070588" lon="-9.241800">
        <ele>71.717</ele>
        <time>2019-06-21T18:17:35Z</time>
      </trkpt>
      <trkpt lat="43.070442" lon="-9.241677">
        <ele>73.096</ele>
        <time>2019-06-21T18:17:36Z</time>
      </trkpt>
      <trkpt lat="43.070285" lon="-9.241564">
        <ele>73.531</ele>
        <time>2019-06-21T18:17:37Z</time>
      </trkpt>
      <trkpt lat="43.070138" lon="-9.241453">
        <ele>73.624</ele>
        <time>2019-06-21T18:17:38Z</time>
      </trkpt>
      <trkpt lat="43.069992" lon="-9.241338">
        <ele>74.108</ele>
        <time>2019-06-21T18:17:39Z</time>
      </trkpt>
      <trkpt lat="43.069845" lon="-9.241240">
        <ele>75.492</ele>
        <time>2019-06-21T18:17:40Z</time>
      </trkpt>
      <trkpt lat="43.069710" lon="-9.241140">
        <ele>76.566</ele>
        <time>2019-06-21T18:17:41Z</time>
      </trkpt>
      <trkpt lat="43.069568" lon="-9.241046">
        <ele>78.638</ele>
        <time>2019-06-21T18:17:42Z</time>
      </trkpt>
      <trkpt lat="43.069431" lon="-9.240955">
        <ele>80.230</ele>
        <time>2019-06-21T18:17:43Z</time>
      </trkpt>
      <trkpt lat="43.069292" lon="-9.240877">
        <ele>80.827</ele>
        <time>2019-06-21T18:17:44Z</time>
      </trkpt>
      <trkpt lat="43.069158" lon="-9.240810">
        <ele>81.443</ele>
        <time>2019-06-21T18:17:45Z</time>
      </trkpt>
      <trkpt lat="43.069038" lon="-9.240739">
        <ele>81.837</ele>
        <time>2019-06-21T18:17:46Z</time>
      </trkpt>
      <trkpt lat="43.068937" lon="-9.240681">
        <ele>82.129</ele>
        <time>2019-06-21T18:17:47Z</time>
      </trkpt>
      <trkpt lat="43.068848" lon="-9.240616">
        <ele>82.518</ele>
        <time>2019-06-21T18:17:48Z</time>
      </trkpt>
      <trkpt lat="43.068769" lon="-9.240513">
        <ele>83.398</ele>
        <time>2019-06-21T18:17:49Z</time>
      </trkpt>
      <trkpt lat="43.068697" lon="-9.240396">
        <ele>84.217</ele>
        <time>2019-06-21T18:17:50Z</time>
      </trkpt>
      <trkpt lat="43.068631" lon="-9.240265">
        <ele>85.408</ele>
        <time>2019-06-21T18:17:51Z</time>
      </trkpt>
      <trkpt lat="43.068593" lon="-9.240108">
        <ele>86.764</ele>
        <time>2019-06-21T18:17:52Z</time>
      </trkpt>
      <trkpt lat="43.068522" lon="-9.239969">
        <ele>87.848</ele>
        <time>2019-06-21T18:17:53Z</time>
      </trkpt>
      <trkpt lat="43.068455" lon="-9.239829">
        <ele>89.080</ele>
        <time>2019-06-21T18:17:54Z</time>
      </trkpt>
      <trkpt lat="43.068404" lon="-9.239685">
        <ele>90.252</ele>
        <time>2019-06-21T18:17:55Z</time>
      </trkpt>
      <trkpt lat="43.068371" lon="-9.239541">
        <ele>91.579</ele>
        <time>2019-06-21T18:17:56Z</time>
      </trkpt>
      <trkpt lat="43.068350" lon="-9.239395">
        <ele>92.695</ele>
        <time>2019-06-21T18:17:57Z</time>
      </trkpt>
      <trkpt lat="43.068316" lon="-9.239258">
        <ele>93.239</ele>
        <time>2019-06-21T18:17:58Z</time>
      </trkpt>
      <trkpt lat="43.068288" lon="-9.239130">
        <ele>94.011</ele>
        <time>2019-06-21T18:17:59Z</time>
      </trkpt>
      <trkpt lat="43.068256" lon="-9.239007">
        <ele>95.093</ele>
        <time>2019-06-21T18:18:00Z</time>
      </trkpt>
      <trkpt lat="43.068210" lon="-9.238885">
        <ele>95.765</ele>
        <time>2019-06-21T18:18:01Z</time>
      </trkpt>
      <trkpt lat="43.068153" lon="-9.238754">
        <ele>96.721</ele>
        <time>2019-06-21T18:18:02Z</time>
      </trkpt>
      <trkpt lat="43.068086" lon="-9.238629">
        <ele>97.208</ele>
        <time>2019-06-21T18:18:03Z</time>
      </trkpt>
      <trkpt lat="43.067991" lon="-9.238505">
        <ele>97.952</ele>
        <time>2019-06-21T18:18:04Z</time>
      </trkpt>
      <trkpt lat="43.067876" lon="-9.238395">
        <ele>97.876</ele>
        <time>2019-06-21T18:18:05Z</time>
      </trkpt>
      <trkpt lat="43.067753" lon="-9.238305">
        <ele>97.488</ele>
        <time>2019-06-21T18:18:06Z</time>
      </trkpt>
      <trkpt lat="43.067634" lon="-9.238221">
        <ele>98.520</ele>
        <time>2019-06-21T18:18:07Z</time>
      </trkpt>
      <trkpt lat="43.067491" lon="-9.238160">
        <ele>99.347</ele>
        <time>2019-06-21T18:18:08Z</time>
      </trkpt>
      <trkpt lat="43.067342" lon="-9.238103">
        <ele>100.573</ele>
        <time>2019-06-21T18:18:09Z</time>
      </trkpt>
      <trkpt lat="43.067181" lon="-9.238058">
        <ele>101.597</ele>
        <time>2019-06-21T18:18:10Z</time>
      </trkpt>
      <trkpt lat="43.067017" lon="-9.238015">
        <ele>103.849</ele>
        <time>2019-06-21T18:18:11Z</time>
      </trkpt>
      <trkpt lat="43.066848" lon="-9.237971">
        <ele>106.717</ele>
        <time>2019-06-21T18:18:12Z</time>
      </trkpt>
      <trkpt lat="43.066682" lon="-9.237926">
        <ele>110.187</ele>
        <time>2019-06-21T18:18:13Z</time>
      </trkpt>
      <trkpt lat="43.066516" lon="-9.237880">
        <ele>111.715</ele>
        <time>2019-06-21T18:18:14Z</time>
      </trkpt>
      <trkpt lat="43.066350" lon="-9.237823">
        <ele>112.808</ele>
        <time>2019-06-21T18:18:15Z</time>
      </trkpt>
      <trkpt lat="43.066186" lon="-9.237762">
        <ele>112.324</ele>
        <time>2019-06-21T18:18:16Z</time>
      </trkpt>
      <trkpt lat="43.066025" lon="-9.237701">
        <ele>113.748</ele>
        <time>2019-06-21T18:18:17Z</time>
      </trkpt>
      <trkpt lat="43.065870" lon="-9.237640">
        <ele>115.930</ele>
        <time>2019-06-21T18:18:18Z</time>
      </trkpt>
      <trkpt lat="43.065721" lon="-9.237580">
        <ele>118.212</ele>
        <time>2019-06-21T18:18:19Z</time>
      </trkpt>
      <trkpt lat="43.065589" lon="-9.237525">
        <ele>120.219</ele>
        <time>2019-06-21T18:18:20Z</time>
      </trkpt>
      <trkpt lat="43.065475" lon="-9.237478">
        <ele>121.325</ele>
        <time>2019-06-21T18:18:21Z</time>
      </trkpt>
      <trkpt lat="43.065369" lon="-9.237446">
        <ele>121.479</ele>
        <time>2019-06-21T18:18:22Z</time>
      </trkpt>
      <trkpt lat="43.065260" lon="-9.237430">
        <ele>120.951</ele>
        <time>2019-06-21T18:18:23Z</time>
      </trkpt>
      <trkpt lat="43.065149" lon="-9.237440">
        <ele>119.943</ele>
        <time>2019-06-21T18:18:24Z</time>
      </trkpt>
      <trkpt lat="43.065032" lon="-9.237481">
        <ele>118.564</ele>
        <time>2019-06-21T18:18:25Z</time>
      </trkpt>
      <trkpt lat="43.064917" lon="-9.237537">
        <ele>117.910</ele>
        <time>2019-06-21T18:18:26Z</time>
      </trkpt>
      <trkpt lat="43.064799" lon="-9.237603">
        <ele>117.908</ele>
        <time>2019-06-21T18:18:27Z</time>
      </trkpt>
      <trkpt lat="43.064691" lon="-9.237673">
        <ele>118.377</ele>
        <time>2019-06-21T18:18:28Z</time>
      </trkpt>
      <trkpt lat="43.064596" lon="-9.237728">
        <ele>119.841</ele>
        <time>2019-06-21T18:18:29Z</time>
      </trkpt>
      <trkpt lat="43.064507" lon="-9.237779">
        <ele>121.763</ele>
        <time>2019-06-21T18:18:30Z</time>
      </trkpt>
      <trkpt lat="43.064436" lon="-9.237831">
        <ele>124.145</ele>
        <time>2019-06-21T18:18:31Z</time>
      </trkpt>
      <trkpt lat="43.064377" lon="-9.237897">
        <ele>127.612</ele>
        <time>2019-06-21T18:18:32Z</time>
      </trkpt>
      <trkpt lat="43.064338" lon="-9.237978">
        <ele>130.588</ele>
        <time>2019-06-21T18:18:33Z</time>
      </trkpt>
      <trkpt lat="43.064322" lon="-9.238070">
        <ele>132.552</ele>
        <time>2019-06-21T18:18:34Z</time>
      </trkpt>
      <trkpt lat="43.064337" lon="-9.238171">
        <ele>133.444</ele>
        <time>2019-06-21T18:18:35Z</time>
      </trkpt>
      <trkpt lat="43.064365" lon="-9.238289">
        <ele>134.284</ele>
        <time>2019-06-21T18:18:36Z</time>
      </trkpt>
      <trkpt lat="43.064407" lon="-9.238417">
        <ele>134.807</ele>
        <time>2019-06-21T18:18:37Z</time>
      </trkpt>
      <trkpt lat="43.064460" lon="-9.238547">
        <ele>135.117</ele>
        <time>2019-06-21T18:18:38Z</time>
      </trkpt>
      <trkpt lat="43.064533" lon="-9.238664">
        <ele>134.008</ele>
        <time>2019-06-21T18:18:39Z</time>
      </trkpt>
      <trkpt lat="43.064610" lon="-9.238771">
        <ele>132.731</ele>
        <time>2019-06-21T18:18:40Z</time>
      </trkpt>
      <trkpt lat="43.064684" lon="-9.238861">
        <ele>131.285</ele>
        <time>2019-06-21T18:18:41Z</time>
      </trkpt>
      <trkpt lat="43.064743" lon="-9.238952">
        <ele>131.367</ele>
        <time>2019-06-21T18:18:42Z</time>
      </trkpt>
      <trkpt lat="43.064784" lon="-9.239040">
        <ele>132.739</ele>
        <time>2019-06-21T18:18:43Z</time>
      </trkpt>
      <trkpt lat="43.064795" lon="-9.239128">
        <ele>134.666</ele>
        <time>2019-06-21T18:18:44Z</time>
      </trkpt>
      <trkpt lat="43.064792" lon="-9.239195">
        <ele>136.492</ele>
        <time>2019-06-21T18:18:45Z</time>
      </trkpt>
      <trkpt lat="43.064748" lon="-9.239291">
        <ele>139.916</ele>
        <time>2019-06-21T18:18:47Z</time>
      </trkpt>
      <trkpt lat="43.064712" lon="-9.239329">
        <ele>141.868</ele>
        <time>2019-06-21T18:18:48Z</time>
      </trkpt>
      <trkpt lat="43.064622" lon="-9.239369">
        <ele>145.394</ele>
        <time>2019-06-21T18:18:50Z</time>
      </trkpt>
      <trkpt lat="43.064544" lon="-9.239383">
        <ele>147.857</ele>
        <time>2019-06-21T18:18:51Z</time>
      </trkpt>
      <trkpt lat="43.064448" lon="-9.239400">
        <ele>150.922</ele>
        <time>2019-06-21T18:18:52Z</time>
      </trkpt>
      <trkpt lat="43.064305" lon="-9.239429">
        <ele>152.208</ele>
        <time>2019-06-21T18:18:53Z</time>
      </trkpt>
      <trkpt lat="43.064195" lon="-9.239457">
        <ele>153.292</ele>
        <time>2019-06-21T18:18:54Z</time>
      </trkpt>
      <trkpt lat="43.064091" lon="-9.239480">
        <ele>153.566</ele>
        <time>2019-06-21T18:18:55Z</time>
      </trkpt>
      <trkpt lat="43.063994" lon="-9.239497">
        <ele>153.538</ele>
        <time>2019-06-21T18:18:56Z</time>
      </trkpt>
      <trkpt lat="43.063902" lon="-9.239502">
        <ele>153.390</ele>
        <time>2019-06-21T18:18:57Z</time>
      </trkpt>
      <trkpt lat="43.063825" lon="-9.239484">
        <ele>153.967</ele>
        <time>2019-06-21T18:18:58Z</time>
      </trkpt>
      <trkpt lat="43.063754" lon="-9.239461">
        <ele>154.773</ele>
        <time>2019-06-21T18:18:59Z</time>
      </trkpt>
      <trkpt lat="43.063703" lon="-9.239417">
        <ele>155.187</ele>
        <time>2019-06-21T18:19:00Z</time>
      </trkpt>
      <trkpt lat="43.063661" lon="-9.239352">
        <ele>155.119</ele>
        <time>2019-06-21T18:19:01Z</time>
      </trkpt>
      <trkpt lat="43.063629" lon="-9.239275">
        <ele>154.811</ele>
        <time>2019-06-21T18:19:02Z</time>
      </trkpt>
      <trkpt lat="43.063606" lon="-9.239188">
        <ele>154.421</ele>
        <time>2019-06-21T18:19:03Z</time>
      </trkpt>
      <trkpt lat="43.063587" lon="-9.239093">
        <ele>155.003</ele>
        <time>2019-06-21T18:19:04Z</time>
      </trkpt>
      <trkpt lat="43.063567" lon="-9.238993">
        <ele>155.908</ele>
        <time>2019-06-21T18:19:05Z</time>
      </trkpt>
      <trkpt lat="43.063546" lon="-9.238896">
        <ele>156.814</ele>
        <time>2019-06-21T18:19:06Z</time>
      </trkpt>
      <trkpt lat="43.063533" lon="-9.238824">
        <ele>157.878</ele>
        <time>2019-06-21T18:19:07Z</time>
      </trkpt>
      <trkpt lat="43.063505" lon="-9.238767">
        <ele>159.170</ele>
        <time>2019-06-21T18:19:08Z</time>
      </trkpt>
      <trkpt lat="43.063463" lon="-9.238716">
        <ele>160.822</ele>
        <time>2019-06-21T18:19:09Z</time>
      </trkpt>
      <trkpt lat="43.063411" lon="-9.238672">
        <ele>162.959</ele>
        <time>2019-06-21T18:19:10Z</time>
      </trkpt>
      <trkpt lat="43.063352" lon="-9.238643">
        <ele>165.145</ele>
        <time>2019-06-21T18:19:11Z</time>
      </trkpt>
      <trkpt lat="43.063285" lon="-9.238625">
        <ele>166.619</ele>
        <time>2019-06-21T18:19:12Z</time>
      </trkpt>
      <trkpt lat="43.063211" lon="-9.238613">
        <ele>167.851</ele>
        <time>2019-06-21T18:19:13Z</time>
      </trkpt>
      <trkpt lat="43.063137" lon="-9.238605">
        <ele>168.842</ele>
        <time>2019-06-21T18:19:14Z</time>
      </trkpt>
      <trkpt lat="43.063058" lon="-9.238603">
        <ele>170.022</ele>
        <time>2019-06-21T18:19:15Z</time>
      </trkpt>
      <trkpt lat="43.062982" lon="-9.238608">
        <ele>170.314</ele>
        <time>2019-06-21T18:19:16Z</time>
      </trkpt>
      <trkpt lat="43.062904" lon="-9.238615">
        <ele>170.608</ele>
        <time>2019-06-21T18:19:17Z</time>
      </trkpt>
      <trkpt lat="43.062825" lon="-9.238633">
        <ele>171.047</ele>
        <time>2019-06-21T18:19:18Z</time>
      </trkpt>
      <trkpt lat="43.062741" lon="-9.238656">
        <ele>171.271</ele>
        <time>2019-06-21T18:19:19Z</time>
      </trkpt>
      <trkpt lat="43.062660" lon="-9.238682">
        <ele>171.113</ele>
        <time>2019-06-21T18:19:20Z</time>
      </trkpt>
      <trkpt lat="43.062572" lon="-9.238712">
        <ele>171.085</ele>
        <time>2019-06-21T18:19:21Z</time>
      </trkpt>
      <trkpt lat="43.062480" lon="-9.238725">
        <ele>170.812</ele>
        <time>2019-06-21T18:19:22Z</time>
      </trkpt>
      <trkpt lat="43.062385" lon="-9.238732">
        <ele>170.968</ele>
        <time>2019-06-21T18:19:23Z</time>
      </trkpt>
      <trkpt lat="43.062285" lon="-9.238731">
        <ele>170.972</ele>
        <time>2019-06-21T18:19:24Z</time>
      </trkpt>
      <trkpt lat="43.062187" lon="-9.238723">
        <ele>171.164</ele>
        <time>2019-06-21T18:19:25Z</time>
      </trkpt>
      <trkpt lat="43.062081" lon="-9.238710">
        <ele>171.758</ele>
        <time>2019-06-21T18:19:26Z</time>
      </trkpt>
      <trkpt lat="43.061985" lon="-9.238704">
        <ele>172.452</ele>
        <time>2019-06-21T18:19:27Z</time>
      </trkpt>
      <trkpt lat="43.061888" lon="-9.238695">
        <ele>172.617</ele>
        <time>2019-06-21T18:19:28Z</time>
      </trkpt>
      <trkpt lat="43.061789" lon="-9.238691">
        <ele>172.608</ele>
        <time>2019-06-21T18:19:29Z</time>
      </trkpt>
      <trkpt lat="43.061675" lon="-9.238699">
        <ele>172.658</ele>
        <time>2019-06-21T18:19:30Z</time>
      </trkpt>
      <trkpt lat="43.061565" lon="-9.238711">
        <ele>172.442</ele>
        <time>2019-06-21T18:19:31Z</time>
      </trkpt>
      <trkpt lat="43.061456" lon="-9.238725">
        <ele>172.154</ele>
        <time>2019-06-21T18:19:32Z</time>
      </trkpt>
      <trkpt lat="43.061346" lon="-9.238731">
        <ele>172.016</ele>
        <time>2019-06-21T18:19:33Z</time>
      </trkpt>
      <trkpt lat="43.061241" lon="-9.238724">
        <ele>172.433</ele>
        <time>2019-06-21T18:19:34Z</time>
      </trkpt>
      <trkpt lat="43.061137" lon="-9.238712">
        <ele>172.959</ele>
        <time>2019-06-21T18:19:35Z</time>
      </trkpt>
      <trkpt lat="43.061044" lon="-9.238697">
        <ele>173.583</ele>
        <time>2019-06-21T18:19:36Z</time>
      </trkpt>
      <trkpt lat="43.060962" lon="-9.238678">
        <ele>174.195</ele>
        <time>2019-06-21T18:19:37Z</time>
      </trkpt>
      <trkpt lat="43.060890" lon="-9.238656">
        <ele>174.636</ele>
        <time>2019-06-21T18:19:38Z</time>
      </trkpt>
      <trkpt lat="43.060832" lon="-9.238642">
        <ele>175.017</ele>
        <time>2019-06-21T18:19:39Z</time>
      </trkpt>
      <trkpt lat="43.060765" lon="-9.238655">
        <ele>175.818</ele>
        <time>2019-06-21T18:19:41Z</time>
      </trkpt>
      <trkpt lat="43.060717" lon="-9.238690">
        <ele>176.408</ele>
        <time>2019-06-21T18:20:20Z</time>
      </trkpt>
      <trkpt lat="43.060736" lon="-9.238750">
        <ele>176.236</ele>
        <time>2019-06-21T18:20:21Z</time>
      </trkpt>
      <trkpt lat="43.060746" lon="-9.238812">
        <ele>176.230</ele>
        <time>2019-06-21T18:20:22Z</time>
      </trkpt>
      <trkpt lat="43.060759" lon="-9.238926">
        <ele>176.512</ele>
        <time>2019-06-21T18:20:24Z</time>
      </trkpt>
      <trkpt lat="43.060780" lon="-9.239033">
        <ele>177.394</ele>
        <time>2019-06-21T18:20:26Z</time>
      </trkpt>
      <trkpt lat="43.060791" lon="-9.239125">
        <ele>178.231</ele>
        <time>2019-06-21T18:20:28Z</time>
      </trkpt>
      <trkpt lat="43.060781" lon="-9.239200">
        <ele>179.167</ele>
        <time>2019-06-21T18:20:30Z</time>
      </trkpt>
      <trkpt lat="43.060773" lon="-9.239054">
        <ele>177.731</ele>
        <time>2019-06-21T18:20:43Z</time>
      </trkpt>
      <trkpt lat="43.060765" lon="-9.238975">
        <ele>176.913</ele>
        <time>2019-06-21T18:20:44Z</time>
      </trkpt>
      <trkpt lat="43.060752" lon="-9.238889">
        <ele>176.282</ele>
        <time>2019-06-21T18:20:45Z</time>
      </trkpt>
      <trkpt lat="43.060735" lon="-9.238801">
        <ele>176.343</ele>
        <time>2019-06-21T18:20:46Z</time>
      </trkpt>
      <trkpt lat="43.060715" lon="-9.238712">
        <ele>176.417</ele>
        <time>2019-06-21T18:20:47Z</time>
      </trkpt>
      <trkpt lat="43.060697" lon="-9.238621">
        <ele>176.508</ele>
        <time>2019-06-21T18:20:48Z</time>
      </trkpt>
      <trkpt lat="43.060678" lon="-9.238541">
        <ele>176.791</ele>
        <time>2019-06-21T18:20:49Z</time>
      </trkpt>
      <trkpt lat="43.060658" lon="-9.238460">
        <ele>176.945</ele>
        <time>2019-06-21T18:20:50Z</time>
      </trkpt>
      <trkpt lat="43.060641" lon="-9.238386">
        <ele>177.167</ele>
        <time>2019-06-21T18:20:51Z</time>
      </trkpt>
      <trkpt lat="43.060627" lon="-9.238305">
        <ele>177.369</ele>
        <time>2019-06-21T18:20:52Z</time>
      </trkpt>
      <trkpt lat="43.060624" lon="-9.238222">
        <ele>177.586</ele>
        <time>2019-06-21T18:20:53Z</time>
      </trkpt>
      <trkpt lat="43.060616" lon="-9.238125">
        <ele>177.832</ele>
        <time>2019-06-21T18:20:54Z</time>
      </trkpt>
      <trkpt lat="43.060616" lon="-9.238036">
        <ele>177.926</ele>
        <time>2019-06-21T18:20:55Z</time>
      </trkpt>
      <trkpt lat="43.060613" lon="-9.237948">
        <ele>178.028</ele>
        <time>2019-06-21T18:20:56Z</time>
      </trkpt>
      <trkpt lat="43.060606" lon="-9.237854">
        <ele>178.191</ele>
        <time>2019-06-21T18:20:57Z</time>
      </trkpt>
      <trkpt lat="43.060601" lon="-9.237760">
        <ele>178.181</ele>
        <time>2019-06-21T18:20:58Z</time>
      </trkpt>
      <trkpt lat="43.060598" lon="-9.237654">
        <ele>177.719</ele>
        <time>2019-06-21T18:20:59Z</time>
      </trkpt>
      <trkpt lat="43.060599" lon="-9.237537">
        <ele>177.208</ele>
        <time>2019-06-21T18:21:00Z</time>
      </trkpt>
      <trkpt lat="43.060592" lon="-9.237420">
        <ele>176.982</ele>
        <time>2019-06-21T18:21:01Z</time>
      </trkpt>
      <trkpt lat="43.060580" lon="-9.237313">
        <ele>176.816</ele>
        <time>2019-06-21T18:21:02Z</time>
      </trkpt>
      <trkpt lat="43.060576" lon="-9.237206">
        <ele>176.548</ele>
        <time>2019-06-21T18:21:03Z</time>
      </trkpt>
      <trkpt lat="43.060582" lon="-9.237105">
        <ele>176.190</ele>
        <time>2019-06-21T18:21:04Z</time>
      </trkpt>
      <trkpt lat="43.060596" lon="-9.237005">
        <ele>175.647</ele>
        <time>2019-06-21T18:21:05Z</time>
      </trkpt>
      <trkpt lat="43.060621" lon="-9.236911">
        <ele>175.333</ele>
        <time>2019-06-21T18:21:06Z</time>
      </trkpt>
      <trkpt lat="43.060655" lon="-9.236827">
        <ele>175.347</ele>
        <time>2019-06-21T18:21:07Z</time>
      </trkpt>
      <trkpt lat="43.060698" lon="-9.236722">
        <ele>175.129</ele>
        <time>2019-06-21T18:21:08Z</time>
      </trkpt>
      <trkpt lat="43.060744" lon="-9.236614">
        <ele>175.293</ele>
        <time>2019-06-21T18:21:09Z</time>
      </trkpt>
      <trkpt lat="43.060786" lon="-9.236499">
        <ele>175.865</ele>
        <time>2019-06-21T18:21:10Z</time>
      </trkpt>
      <trkpt lat="43.060839" lon="-9.236388">
        <ele>175.921</ele>
        <time>2019-06-21T18:21:11Z</time>
      </trkpt>
      <trkpt lat="43.060888" lon="-9.236302">
        <ele>175.608</ele>
        <time>2019-06-21T18:21:12Z</time>
      </trkpt>
      <trkpt lat="43.060932" lon="-9.236210">
        <ele>175.722</ele>
        <time>2019-06-21T18:21:13Z</time>
      </trkpt>
      <trkpt lat="43.060968" lon="-9.236136">
        <ele>175.896</ele>
        <time>2019-06-21T18:21:14Z</time>
      </trkpt>
      <trkpt lat="43.061000" lon="-9.236064">
        <ele>176.538</ele>
        <time>2019-06-21T18:21:15Z</time>
      </trkpt>
      <trkpt lat="43.061029" lon="-9.236000">
        <ele>177.390</ele>
        <time>2019-06-21T18:21:16Z</time>
      </trkpt>
      <trkpt lat="43.061049" lon="-9.235889">
        <ele>179.357</ele>
        <time>2019-06-21T18:21:18Z</time>
      </trkpt>
      <trkpt lat="43.061016" lon="-9.235808">
        <ele>182.113</ele>
        <time>2019-06-21T18:21:20Z</time>
      </trkpt>
      <trkpt lat="43.060930" lon="-9.235778">
        <ele>185.127</ele>
        <time>2019-06-21T18:21:22Z</time>
      </trkpt>
      <trkpt lat="43.060865" lon="-9.235807">
        <ele>185.949</ele>
        <time>2019-06-21T18:21:23Z</time>
      </trkpt>
      <trkpt lat="43.060796" lon="-9.235840">
        <ele>186.933</ele>
        <time>2019-06-21T18:21:24Z</time>
      </trkpt>
      <trkpt lat="43.060716" lon="-9.235877">
        <ele>188.323</ele>
        <time>2019-06-21T18:21:25Z</time>
      </trkpt>
      <trkpt lat="43.060625" lon="-9.235915">
        <ele>189.915</ele>
        <time>2019-06-21T18:21:26Z</time>
      </trkpt>
      <trkpt lat="43.060523" lon="-9.235951">
        <ele>192.008</ele>
        <time>2019-06-21T18:21:27Z</time>
      </trkpt>
      <trkpt lat="43.060421" lon="-9.235985">
        <ele>194.176</ele>
        <time>2019-06-21T18:21:28Z</time>
      </trkpt>
      <trkpt lat="43.060320" lon="-9.236019">
        <ele>196.130</ele>
        <time>2019-06-21T18:21:29Z</time>
      </trkpt>
      <trkpt lat="43.060220" lon="-9.236060">
        <ele>197.972</ele>
        <time>2019-06-21T18:21:30Z</time>
      </trkpt>
      <trkpt lat="43.060120" lon="-9.236114">
        <ele>198.974</ele>
        <time>2019-06-21T18:21:31Z</time>
      </trkpt>
      <trkpt lat="43.060034" lon="-9.236188">
        <ele>199.271</ele>
        <time>2019-06-21T18:21:32Z</time>
      </trkpt>
      <trkpt lat="43.059960" lon="-9.236272">
        <ele>199.087</ele>
        <time>2019-06-21T18:21:33Z</time>
      </trkpt>
      <trkpt lat="43.059901" lon="-9.236374">
        <ele>198.231</ele>
        <time>2019-06-21T18:21:34Z</time>
      </trkpt>
      <trkpt lat="43.059860" lon="-9.236487">
        <ele>197.643</ele>
        <time>2019-06-21T18:21:35Z</time>
      </trkpt>
      <trkpt lat="43.059843" lon="-9.236609">
        <ele>196.558</ele>
        <time>2019-06-21T18:21:36Z</time>
      </trkpt>
      <trkpt lat="43.059857" lon="-9.236731">
        <ele>195.152</ele>
        <time>2019-06-21T18:21:37Z</time>
      </trkpt>
      <trkpt lat="43.059863" lon="-9.236870">
        <ele>194.917</ele>
        <time>2019-06-21T18:21:38Z</time>
      </trkpt>
      <trkpt lat="43.059877" lon="-9.236997">
        <ele>194.608</ele>
        <time>2019-06-21T18:21:39Z</time>
      </trkpt>
      <trkpt lat="43.059898" lon="-9.237117">
        <ele>194.328</ele>
        <time>2019-06-21T18:21:40Z</time>
      </trkpt>
      <trkpt lat="43.059910" lon="-9.237254">
        <ele>194.372</ele>
        <time>2019-06-21T18:21:41Z</time>
      </trkpt>
      <trkpt lat="43.059918" lon="-9.237421">
        <ele>194.544</ele>
        <time>2019-06-21T18:21:42Z</time>
      </trkpt>
      <trkpt lat="43.059923" lon="-9.237586">
        <ele>194.636</ele>
        <time>2019-06-21T18:21:43Z</time>
      </trkpt>
      <trkpt lat="43.059926" lon="-9.237749">
        <ele>194.813</ele>
        <time>2019-06-21T18:21:44Z</time>
      </trkpt>
      <trkpt lat="43.059938" lon="-9.237915">
        <ele>194.699</ele>
        <time>2019-06-21T18:21:45Z</time>
      </trkpt>
      <trkpt lat="43.059939" lon="-9.238081">
        <ele>194.473</ele>
        <time>2019-06-21T18:21:46Z</time>
      </trkpt>
      <trkpt lat="43.059949" lon="-9.238260">
        <ele>192.975</ele>
        <time>2019-06-21T18:21:47Z</time>
      </trkpt>
      <trkpt lat="43.059951" lon="-9.238452">
        <ele>192.127</ele>
        <time>2019-06-21T18:21:48Z</time>
      </trkpt>
      <trkpt lat="43.059954" lon="-9.238641">
        <ele>191.868</ele>
        <time>2019-06-21T18:21:49Z</time>
      </trkpt>
      <trkpt lat="43.059953" lon="-9.238830">
        <ele>192.514</ele>
        <time>2019-06-21T18:21:50Z</time>
      </trkpt>
      <trkpt lat="43.059954" lon="-9.238999">
        <ele>192.808</ele>
        <time>2019-06-21T18:21:51Z</time>
      </trkpt>
      <trkpt lat="43.059964" lon="-9.239169">
        <ele>192.625</ele>
        <time>2019-06-21T18:21:52Z</time>
      </trkpt>
      <trkpt lat="43.059959" lon="-9.239325">
        <ele>193.849</ele>
        <time>2019-06-21T18:21:53Z</time>
      </trkpt>
      <trkpt lat="43.059959" lon="-9.239480">
        <ele>195.211</ele>
        <time>2019-06-21T18:21:54Z</time>
      </trkpt>
      <trkpt lat="43.059943" lon="-9.239611">
        <ele>197.983</ele>
        <time>2019-06-21T18:21:55Z</time>
      </trkpt>
      <trkpt lat="43.059950" lon="-9.239752">
        <ele>199.460</ele>
        <time>2019-06-21T18:21:56Z</time>
      </trkpt>
      <trkpt lat="43.059959" lon="-9.239882">
        <ele>199.516</ele>
        <time>2019-06-21T18:21:57Z</time>
      </trkpt>
      <trkpt lat="43.059978" lon="-9.239991">
        <ele>199.020</ele>
        <time>2019-06-21T18:21:58Z</time>
      </trkpt>
      <trkpt lat="43.059984" lon="-9.240134">
        <ele>199.592</ele>
        <time>2019-06-21T18:21:59Z</time>
      </trkpt>
      <trkpt lat="43.059989" lon="-9.240284">
        <ele>200.345</ele>
        <time>2019-06-21T18:22:00Z</time>
      </trkpt>
      <trkpt lat="43.059982" lon="-9.240438">
        <ele>199.847</ele>
        <time>2019-06-21T18:22:01Z</time>
      </trkpt>
      <trkpt lat="43.059961" lon="-9.240596">
        <ele>199.711</ele>
        <time>2019-06-21T18:22:02Z</time>
      </trkpt>
      <trkpt lat="43.059923" lon="-9.240757">
        <ele>200.008</ele>
        <time>2019-06-21T18:22:03Z</time>
      </trkpt>
      <trkpt lat="43.059864" lon="-9.240911">
        <ele>200.617</ele>
        <time>2019-06-21T18:22:04Z</time>
      </trkpt>
      <trkpt lat="43.059801" lon="-9.241081">
        <ele>201.431</ele>
        <time>2019-06-21T18:22:05Z</time>
      </trkpt>
      <trkpt lat="43.059732" lon="-9.241264">
        <ele>202.533</ele>
        <time>2019-06-21T18:22:06Z</time>
      </trkpt>
      <trkpt lat="43.059665" lon="-9.241445">
        <ele>203.865</ele>
        <time>2019-06-21T18:22:07Z</time>
      </trkpt>
      <trkpt lat="43.059596" lon="-9.241636">
        <ele>204.882</ele>
        <time>2019-06-21T18:22:08Z</time>
      </trkpt>
      <trkpt lat="43.059525" lon="-9.241827">
        <ele>206.878</ele>
        <time>2019-06-21T18:22:09Z</time>
      </trkpt>
      <trkpt lat="43.059449" lon="-9.242012">
        <ele>209.412</ele>
        <time>2019-06-21T18:22:10Z</time>
      </trkpt>
      <trkpt lat="43.059367" lon="-9.242193">
        <ele>211.714</ele>
        <time>2019-06-21T18:22:11Z</time>
      </trkpt>
      <trkpt lat="43.059279" lon="-9.242376">
        <ele>212.937</ele>
        <time>2019-06-21T18:22:12Z</time>
      </trkpt>
      <trkpt lat="43.059180" lon="-9.242549">
        <ele>214.649</ele>
        <time>2019-06-21T18:22:13Z</time>
      </trkpt>
      <trkpt lat="43.059079" lon="-9.242729">
        <ele>215.713</ele>
        <time>2019-06-21T18:22:14Z</time>
      </trkpt>
      <trkpt lat="43.058974" lon="-9.242903">
        <ele>217.008</ele>
        <time>2019-06-21T18:22:15Z</time>
      </trkpt>
      <trkpt lat="43.058872" lon="-9.243075">
        <ele>218.476</ele>
        <time>2019-06-21T18:22:16Z</time>
      </trkpt>
      <trkpt lat="43.058768" lon="-9.243241">
        <ele>221.090</ele>
        <time>2019-06-21T18:22:17Z</time>
      </trkpt>
      <trkpt lat="43.058671" lon="-9.243399">
        <ele>223.152</ele>
        <time>2019-06-21T18:22:18Z</time>
      </trkpt>
      <trkpt lat="43.058579" lon="-9.243543">
        <ele>225.024</ele>
        <time>2019-06-21T18:22:19Z</time>
      </trkpt>
      <trkpt lat="43.058482" lon="-9.243704">
        <ele>226.411</ele>
        <time>2019-06-21T18:22:20Z</time>
      </trkpt>
      <trkpt lat="43.058383" lon="-9.243860">
        <ele>227.757</ele>
        <time>2019-06-21T18:22:21Z</time>
      </trkpt>
      <trkpt lat="43.058286" lon="-9.244016">
        <ele>228.791</ele>
        <time>2019-06-21T18:22:22Z</time>
      </trkpt>
      <trkpt lat="43.058194" lon="-9.244167">
        <ele>229.543</ele>
        <time>2019-06-21T18:22:23Z</time>
      </trkpt>
      <trkpt lat="43.058108" lon="-9.244312">
        <ele>230.274</ele>
        <time>2019-06-21T18:22:24Z</time>
      </trkpt>
      <trkpt lat="43.058029" lon="-9.244439">
        <ele>231.256</ele>
        <time>2019-06-21T18:22:25Z</time>
      </trkpt>
      <trkpt lat="43.057952" lon="-9.244553">
        <ele>232.021</ele>
        <time>2019-06-21T18:22:26Z</time>
      </trkpt>
      <trkpt lat="43.057868" lon="-9.244644">
        <ele>232.608</ele>
        <time>2019-06-21T18:22:27Z</time>
      </trkpt>
      <trkpt lat="43.057783" lon="-9.244725">
        <ele>233.080</ele>
        <time>2019-06-21T18:22:28Z</time>
      </trkpt>
      <trkpt lat="43.057686" lon="-9.244787">
        <ele>233.184</ele>
        <time>2019-06-21T18:22:29Z</time>
      </trkpt>
      <trkpt lat="43.057584" lon="-9.244826">
        <ele>232.886</ele>
        <time>2019-06-21T18:22:30Z</time>
      </trkpt>
      <trkpt lat="43.057468" lon="-9.244848">
        <ele>232.238</ele>
        <time>2019-06-21T18:22:31Z</time>
      </trkpt>
      <trkpt lat="43.057349" lon="-9.244852">
        <ele>231.165</ele>
        <time>2019-06-21T18:22:32Z</time>
      </trkpt>
      <trkpt lat="43.057228" lon="-9.244834">
        <ele>230.111</ele>
        <time>2019-06-21T18:22:33Z</time>
      </trkpt>
      <trkpt lat="43.057107" lon="-9.244815">
        <ele>228.895</ele>
        <time>2019-06-21T18:22:34Z</time>
      </trkpt>
      <trkpt lat="43.056989" lon="-9.244791">
        <ele>227.587</ele>
        <time>2019-06-21T18:22:35Z</time>
      </trkpt>
      <trkpt lat="43.056873" lon="-9.244790">
        <ele>226.663</ele>
        <time>2019-06-21T18:22:36Z</time>
      </trkpt>
      <trkpt lat="43.056756" lon="-9.244815">
        <ele>225.944</ele>
        <time>2019-06-21T18:22:37Z</time>
      </trkpt>
      <trkpt lat="43.056640" lon="-9.244873">
        <ele>224.718</ele>
        <time>2019-06-21T18:22:38Z</time>
      </trkpt>
      <trkpt lat="43.056527" lon="-9.244952">
        <ele>223.308</ele>
        <time>2019-06-21T18:22:39Z</time>
      </trkpt>
      <trkpt lat="43.056404" lon="-9.245053">
        <ele>221.769</ele>
        <time>2019-06-21T18:22:40Z</time>
      </trkpt>
      <trkpt lat="43.056273" lon="-9.245162">
        <ele>220.063</ele>
        <time>2019-06-21T18:22:41Z</time>
      </trkpt>
      <trkpt lat="43.056139" lon="-9.245272">
        <ele>218.225</ele>
        <time>2019-06-21T18:22:42Z</time>
      </trkpt>
      <trkpt lat="43.056008" lon="-9.245382">
        <ele>216.937</ele>
        <time>2019-06-21T18:22:43Z</time>
      </trkpt>
      <trkpt lat="43.055879" lon="-9.245488">
        <ele>215.644</ele>
        <time>2019-06-21T18:22:44Z</time>
      </trkpt>
      <trkpt lat="43.055748" lon="-9.245586">
        <ele>215.040</ele>
        <time>2019-06-21T18:22:45Z</time>
      </trkpt>
      <trkpt lat="43.055620" lon="-9.245679">
        <ele>214.734</ele>
        <time>2019-06-21T18:22:46Z</time>
      </trkpt>
      <trkpt lat="43.055493" lon="-9.245775">
        <ele>213.836</ele>
        <time>2019-06-21T18:22:47Z</time>
      </trkpt>
      <trkpt lat="43.055360" lon="-9.245835">
        <ele>212.692</ele>
        <time>2019-06-21T18:22:48Z</time>
      </trkpt>
      <trkpt lat="43.055216" lon="-9.245884">
        <ele>211.773</ele>
        <time>2019-06-21T18:22:49Z</time>
      </trkpt>
      <trkpt lat="43.055063" lon="-9.245918">
        <ele>211.020</ele>
        <time>2019-06-21T18:22:50Z</time>
      </trkpt>
      <trkpt lat="43.054904" lon="-9.245945">
        <ele>210.508</ele>
        <time>2019-06-21T18:22:51Z</time>
      </trkpt>
      <trkpt lat="43.054757" lon="-9.245964">
        <ele>210.152</ele>
        <time>2019-06-21T18:22:52Z</time>
      </trkpt>
      <trkpt lat="43.054603" lon="-9.245989">
        <ele>210.156</ele>
        <time>2019-06-21T18:22:53Z</time>
      </trkpt>
      <trkpt lat="43.054453" lon="-9.246014">
        <ele>210.368</ele>
        <time>2019-06-21T18:22:54Z</time>
      </trkpt>
      <trkpt lat="43.054299" lon="-9.246045">
        <ele>209.890</ele>
        <time>2019-06-21T18:22:55Z</time>
      </trkpt>
      <trkpt lat="43.054150" lon="-9.246082">
        <ele>209.137</ele>
        <time>2019-06-21T18:22:56Z</time>
      </trkpt>
      <trkpt lat="43.054007" lon="-9.246122">
        <ele>207.853</ele>
        <time>2019-06-21T18:22:57Z</time>
      </trkpt>
      <trkpt lat="43.053873" lon="-9.246179">
        <ele>206.947</ele>
        <time>2019-06-21T18:22:58Z</time>
      </trkpt>
      <trkpt lat="43.053746" lon="-9.246258">
        <ele>206.049</ele>
        <time>2019-06-21T18:22:59Z</time>
      </trkpt>
      <trkpt lat="43.053631" lon="-9.246358">
        <ele>205.148</ele>
        <time>2019-06-21T18:23:00Z</time>
      </trkpt>
      <trkpt lat="43.053526" lon="-9.246480">
        <ele>204.761</ele>
        <time>2019-06-21T18:23:01Z</time>
      </trkpt>
      <trkpt lat="43.053427" lon="-9.246623">
        <ele>204.317</ele>
        <time>2019-06-21T18:23:02Z</time>
      </trkpt>
      <trkpt lat="43.053337" lon="-9.246786">
        <ele>204.008</ele>
        <time>2019-06-21T18:23:03Z</time>
      </trkpt>
      <trkpt lat="43.053249" lon="-9.246960">
        <ele>204.027</ele>
        <time>2019-06-21T18:23:04Z</time>
      </trkpt>
      <trkpt lat="43.053171" lon="-9.247138">
        <ele>204.021</ele>
        <time>2019-06-21T18:23:05Z</time>
      </trkpt>
      <trkpt lat="43.053084" lon="-9.247313">
        <ele>204.323</ele>
        <time>2019-06-21T18:23:06Z</time>
      </trkpt>
      <trkpt lat="43.053001" lon="-9.247496">
        <ele>205.245</ele>
        <time>2019-06-21T18:23:07Z</time>
      </trkpt>
      <trkpt lat="43.052919" lon="-9.247678">
        <ele>206.542</ele>
        <time>2019-06-21T18:23:08Z</time>
      </trkpt>
      <trkpt lat="43.052835" lon="-9.247867">
        <ele>207.338</ele>
        <time>2019-06-21T18:23:09Z</time>
      </trkpt>
      <trkpt lat="43.052755" lon="-9.248054">
        <ele>208.042</ele>
        <time>2019-06-21T18:23:10Z</time>
      </trkpt>
      <trkpt lat="43.052673" lon="-9.248237">
        <ele>208.054</ele>
        <time>2019-06-21T18:23:11Z</time>
      </trkpt>
      <trkpt lat="43.052594" lon="-9.248412">
        <ele>208.067</ele>
        <time>2019-06-21T18:23:12Z</time>
      </trkpt>
      <trkpt lat="43.052521" lon="-9.248580">
        <ele>208.081</ele>
        <time>2019-06-21T18:23:13Z</time>
      </trkpt>
      <trkpt lat="43.052447" lon="-9.248741">
        <ele>207.919</ele>
        <time>2019-06-21T18:23:14Z</time>
      </trkpt>
      <trkpt lat="43.052368" lon="-9.248902">
        <ele>208.008</ele>
        <time>2019-06-21T18:23:15Z</time>
      </trkpt>
      <trkpt lat="43.052287" lon="-9.249058">
        <ele>208.599</ele>
        <time>2019-06-21T18:23:16Z</time>
      </trkpt>
      <trkpt lat="43.052202" lon="-9.249204">
        <ele>209.173</ele>
        <time>2019-06-21T18:23:17Z</time>
      </trkpt>
      <trkpt lat="43.052101" lon="-9.249345">
        <ele>209.415</ele>
        <time>2019-06-21T18:23:18Z</time>
      </trkpt>
      <trkpt lat="43.051989" lon="-9.249479">
        <ele>209.757</ele>
        <time>2019-06-21T18:23:19Z</time>
      </trkpt>
      <trkpt lat="43.051873" lon="-9.249595">
        <ele>209.734</ele>
        <time>2019-06-21T18:23:20Z</time>
      </trkpt>
      <trkpt lat="43.051751" lon="-9.249697">
        <ele>209.880</ele>
        <time>2019-06-21T18:23:21Z</time>
      </trkpt>
      <trkpt lat="43.051625" lon="-9.249807">
        <ele>209.714</ele>
        <time>2019-06-21T18:23:22Z</time>
      </trkpt>
      <trkpt lat="43.051501" lon="-9.249897">
        <ele>209.446</ele>
        <time>2019-06-21T18:23:23Z</time>
      </trkpt>
      <trkpt lat="43.051377" lon="-9.249996">
        <ele>209.099</ele>
        <time>2019-06-21T18:23:24Z</time>
      </trkpt>
      <trkpt lat="43.051254" lon="-9.250089">
        <ele>208.507</ele>
        <time>2019-06-21T18:23:25Z</time>
      </trkpt>
      <trkpt lat="43.051128" lon="-9.250177">
        <ele>208.327</ele>
        <time>2019-06-21T18:23:26Z</time>
      </trkpt>
      <trkpt lat="43.051001" lon="-9.250270">
        <ele>209.208</ele>
        <time>2019-06-21T18:23:27Z</time>
      </trkpt>
      <trkpt lat="43.050869" lon="-9.250355">
        <ele>210.342</ele>
        <time>2019-06-21T18:23:28Z</time>
      </trkpt>
      <trkpt lat="43.050741" lon="-9.250432">
        <ele>210.886</ele>
        <time>2019-06-21T18:23:29Z</time>
      </trkpt>
      <trkpt lat="43.050609" lon="-9.250503">
        <ele>211.068</ele>
        <time>2019-06-21T18:23:30Z</time>
      </trkpt>
      <trkpt lat="43.050471" lon="-9.250566">
        <ele>211.090</ele>
        <time>2019-06-21T18:23:31Z</time>
      </trkpt>
      <trkpt lat="43.050340" lon="-9.250623">
        <ele>211.017</ele>
        <time>2019-06-21T18:23:32Z</time>
      </trkpt>
      <trkpt lat="43.050218" lon="-9.250666">
        <ele>210.893</ele>
        <time>2019-06-21T18:23:33Z</time>
      </trkpt>
      <trkpt lat="43.050108" lon="-9.250698">
        <ele>210.467</ele>
        <time>2019-06-21T18:23:34Z</time>
      </trkpt>
      <trkpt lat="43.050014" lon="-9.250721">
        <ele>210.189</ele>
        <time>2019-06-21T18:23:35Z</time>
      </trkpt>
      <trkpt lat="43.049921" lon="-9.250751">
        <ele>209.679</ele>
        <time>2019-06-21T18:23:36Z</time>
      </trkpt>
      <trkpt lat="43.049827" lon="-9.250761">
        <ele>209.205</ele>
        <time>2019-06-21T18:23:37Z</time>
      </trkpt>
      <trkpt lat="43.049736" lon="-9.250745">
        <ele>208.725</ele>
        <time>2019-06-21T18:23:38Z</time>
      </trkpt>
      <trkpt lat="43.049640" lon="-9.250701">
        <ele>207.808</ele>
        <time>2019-06-21T18:23:39Z</time>
      </trkpt>
      <trkpt lat="43.049536" lon="-9.250628">
        <ele>206.420</ele>
        <time>2019-06-21T18:23:40Z</time>
      </trkpt>
      <trkpt lat="43.049438" lon="-9.250535">
        <ele>204.964</ele>
        <time>2019-06-21T18:23:41Z</time>
      </trkpt>
      <trkpt lat="43.049337" lon="-9.250431">
        <ele>204.036</ele>
        <time>2019-06-21T18:23:42Z</time>
      </trkpt>
      <trkpt lat="43.049238" lon="-9.250316">
        <ele>202.828</ele>
        <time>2019-06-21T18:23:43Z</time>
      </trkpt>
      <trkpt lat="43.049140" lon="-9.250198">
        <ele>201.415</ele>
        <time>2019-06-21T18:23:44Z</time>
      </trkpt>
      <trkpt lat="43.049046" lon="-9.250079">
        <ele>200.381</ele>
        <time>2019-06-21T18:23:45Z</time>
      </trkpt>
      <trkpt lat="43.048960" lon="-9.249958">
        <ele>198.845</ele>
        <time>2019-06-21T18:23:46Z</time>
      </trkpt>
      <trkpt lat="43.048881" lon="-9.249828">
        <ele>197.217</ele>
        <time>2019-06-21T18:23:47Z</time>
      </trkpt>
      <trkpt lat="43.048831" lon="-9.249689">
        <ele>195.947</ele>
        <time>2019-06-21T18:23:48Z</time>
      </trkpt>
      <trkpt lat="43.048777" lon="-9.249537">
        <ele>195.229</ele>
        <time>2019-06-21T18:23:49Z</time>
      </trkpt>
      <trkpt lat="43.048719" lon="-9.249377">
        <ele>195.221</ele>
        <time>2019-06-21T18:23:50Z</time>
      </trkpt>
      <trkpt lat="43.048653" lon="-9.249223">
        <ele>195.608</ele>
        <time>2019-06-21T18:23:51Z</time>
      </trkpt>
      <trkpt lat="43.048587" lon="-9.249076">
        <ele>195.157</ele>
        <time>2019-06-21T18:23:52Z</time>
      </trkpt>
      <trkpt lat="43.048507" lon="-9.248937">
        <ele>193.681</ele>
        <time>2019-06-21T18:23:53Z</time>
      </trkpt>
      <trkpt lat="43.048415" lon="-9.248808">
        <ele>191.563</ele>
        <time>2019-06-21T18:23:54Z</time>
      </trkpt>
      <trkpt lat="43.048320" lon="-9.248702">
        <ele>189.635</ele>
        <time>2019-06-21T18:23:55Z</time>
      </trkpt>
      <trkpt lat="43.048211" lon="-9.248590">
        <ele>187.622</ele>
        <time>2019-06-21T18:23:56Z</time>
      </trkpt>
      <trkpt lat="43.048101" lon="-9.248488">
        <ele>185.748</ele>
        <time>2019-06-21T18:23:57Z</time>
      </trkpt>
      <trkpt lat="43.047987" lon="-9.248396">
        <ele>183.932</ele>
        <time>2019-06-21T18:23:58Z</time>
      </trkpt>
      <trkpt lat="43.047871" lon="-9.248306">
        <ele>181.894</ele>
        <time>2019-06-21T18:23:59Z</time>
      </trkpt>
      <trkpt lat="43.047744" lon="-9.248226">
        <ele>179.951</ele>
        <time>2019-06-21T18:24:00Z</time>
      </trkpt>
      <trkpt lat="43.047612" lon="-9.248151">
        <ele>177.901</ele>
        <time>2019-06-21T18:24:01Z</time>
      </trkpt>
      <trkpt lat="43.047469" lon="-9.248092">
        <ele>176.311</ele>
        <time>2019-06-21T18:24:02Z</time>
      </trkpt>
      <trkpt lat="43.047338" lon="-9.248036">
        <ele>174.608</ele>
        <time>2019-06-21T18:24:03Z</time>
      </trkpt>
      <trkpt lat="43.047210" lon="-9.247974">
        <ele>173.088</ele>
        <time>2019-06-21T18:24:04Z</time>
      </trkpt>
      <trkpt lat="43.047070" lon="-9.247908">
        <ele>171.362</ele>
        <time>2019-06-21T18:24:05Z</time>
      </trkpt>
      <trkpt lat="43.046936" lon="-9.247842">
        <ele>170.264</ele>
        <time>2019-06-21T18:24:06Z</time>
      </trkpt>
      <trkpt lat="43.046808" lon="-9.247770">
        <ele>169.066</ele>
        <time>2019-06-21T18:24:07Z</time>
      </trkpt>
      <trkpt lat="43.046667" lon="-9.247711">
        <ele>167.893</ele>
        <time>2019-06-21T18:24:08Z</time>
      </trkpt>
      <trkpt lat="43.046533" lon="-9.247668">
        <ele>167.119</ele>
        <time>2019-06-21T18:24:09Z</time>
      </trkpt>
      <trkpt lat="43.046416" lon="-9.247611">
        <ele>166.593</ele>
        <time>2019-06-21T18:24:10Z</time>
      </trkpt>
      <trkpt lat="43.046304" lon="-9.247551">
        <ele>165.615</ele>
        <time>2019-06-21T18:24:11Z</time>
      </trkpt>
      <trkpt lat="43.046190" lon="-9.247493">
        <ele>164.667</ele>
        <time>2019-06-21T18:24:12Z</time>
      </trkpt>
      <trkpt lat="43.046088" lon="-9.247434">
        <ele>163.881</ele>
        <time>2019-06-21T18:24:13Z</time>
      </trkpt>
      <trkpt lat="43.045986" lon="-9.247397">
        <ele>162.919</ele>
        <time>2019-06-21T18:24:14Z</time>
      </trkpt>
      <trkpt lat="43.045924" lon="-9.247347">
        <ele>162.308</ele>
        <time>2019-06-21T18:24:15Z</time>
      </trkpt>
      <trkpt lat="43.045854" lon="-9.247314">
        <ele>161.579</ele>
        <time>2019-06-21T18:24:16Z</time>
      </trkpt>
      <trkpt lat="43.045783" lon="-9.247283">
        <ele>161.253</ele>
        <time>2019-06-21T18:24:17Z</time>
      </trkpt>
      <trkpt lat="43.045725" lon="-9.247253">
        <ele>161.165</ele>
        <time>2019-06-21T18:24:18Z</time>
      </trkpt>
      <trkpt lat="43.045680" lon="-9.247243">
        <ele>161.017</ele>
        <time>2019-06-21T18:24:19Z</time>
      </trkpt>
      <trkpt lat="43.045627" lon="-9.247265">
        <ele>161.094</ele>
        <time>2019-06-21T18:24:21Z</time>
      </trkpt>
      <trkpt lat="43.045582" lon="-9.247357">
        <ele>161.060</ele>
        <time>2019-06-21T18:24:23Z</time>
      </trkpt>
      <trkpt lat="43.045573" lon="-9.247449">
        <ele>161.194</ele>
        <time>2019-06-21T18:24:24Z</time>
      </trkpt>
      <trkpt lat="43.045604" lon="-9.247590">
        <ele>161.336</ele>
        <time>2019-06-21T18:24:25Z</time>
      </trkpt>
      <trkpt lat="43.045622" lon="-9.247722">
        <ele>161.697</ele>
        <time>2019-06-21T18:24:26Z</time>
      </trkpt>
      <trkpt lat="43.045611" lon="-9.247862">
        <ele>162.123</ele>
        <time>2019-06-21T18:24:27Z</time>
      </trkpt>
      <trkpt lat="43.045577" lon="-9.248016">
        <ele>162.925</ele>
        <time>2019-06-21T18:24:28Z</time>
      </trkpt>
      <trkpt lat="43.045525" lon="-9.248185">
        <ele>163.908</ele>
        <time>2019-06-21T18:24:29Z</time>
      </trkpt>
      <trkpt lat="43.045470" lon="-9.248361">
        <ele>165.052</ele>
        <time>2019-06-21T18:24:30Z</time>
      </trkpt>
      <trkpt lat="43.045413" lon="-9.248537">
        <ele>165.856</ele>
        <time>2019-06-21T18:24:31Z</time>
      </trkpt>
      <trkpt lat="43.045356" lon="-9.248715">
        <ele>166.638</ele>
        <time>2019-06-21T18:24:32Z</time>
      </trkpt>
      <trkpt lat="43.045303" lon="-9.248879">
        <ele>167.290</ele>
        <time>2019-06-21T18:24:33Z</time>
      </trkpt>
      <trkpt lat="43.045250" lon="-9.249028">
        <ele>167.357</ele>
        <time>2019-06-21T18:24:34Z</time>
      </trkpt>
      <trkpt lat="43.045185" lon="-9.249162">
        <ele>167.323</ele>
        <time>2019-06-21T18:24:35Z</time>
      </trkpt>
      <trkpt lat="43.045098" lon="-9.249290">
        <ele>168.477</ele>
        <time>2019-06-21T18:24:36Z</time>
      </trkpt>
      <trkpt lat="43.044991" lon="-9.249411">
        <ele>168.679</ele>
        <time>2019-06-21T18:24:37Z</time>
      </trkpt>
      <trkpt lat="43.044862" lon="-9.249523">
        <ele>170.284</ele>
        <time>2019-06-21T18:24:38Z</time>
      </trkpt>
      <trkpt lat="43.044727" lon="-9.249636">
        <ele>172.207</ele>
        <time>2019-06-21T18:24:39Z</time>
      </trkpt>
      <trkpt lat="43.044598" lon="-9.249745">
        <ele>172.517</ele>
        <time>2019-06-21T18:24:40Z</time>
      </trkpt>
      <trkpt lat="43.044468" lon="-9.249853">
        <ele>172.208</ele>
        <time>2019-06-21T18:24:41Z</time>
      </trkpt>
      <trkpt lat="43.044343" lon="-9.249976">
        <ele>171.971</ele>
        <time>2019-06-21T18:24:42Z</time>
      </trkpt>
      <trkpt lat="43.044216" lon="-9.250106">
        <ele>170.715</ele>
        <time>2019-06-21T18:24:43Z</time>
      </trkpt>
      <trkpt lat="43.044104" lon="-9.250230">
        <ele>169.987</ele>
        <time>2019-06-21T18:24:44Z</time>
      </trkpt>
      <trkpt lat="43.044000" lon="-9.250353">
        <ele>170.039</ele>
        <time>2019-06-21T18:24:45Z</time>
      </trkpt>
      <trkpt lat="43.043891" lon="-9.250465">
        <ele>170.026</ele>
        <time>2019-06-21T18:24:46Z</time>
      </trkpt>
      <trkpt lat="43.043794" lon="-9.250561">
        <ele>170.742</ele>
        <time>2019-06-21T18:24:47Z</time>
      </trkpt>
      <trkpt lat="43.043705" lon="-9.250655">
        <ele>171.626</ele>
        <time>2019-06-21T18:24:48Z</time>
      </trkpt>
      <trkpt lat="43.043607" lon="-9.250713">
        <ele>172.398</ele>
        <time>2019-06-21T18:24:49Z</time>
      </trkpt>
      <trkpt lat="43.043499" lon="-9.250746">
        <ele>173.472</ele>
        <time>2019-06-21T18:24:50Z</time>
      </trkpt>
      <trkpt lat="43.043375" lon="-9.250755">
        <ele>174.313</ele>
        <time>2019-06-21T18:24:51Z</time>
      </trkpt>
      <trkpt lat="43.043247" lon="-9.250757">
        <ele>174.914</ele>
        <time>2019-06-21T18:24:52Z</time>
      </trkpt>
      <trkpt lat="43.043122" lon="-9.250757">
        <ele>175.208</ele>
        <time>2019-06-21T18:24:53Z</time>
      </trkpt>
      <trkpt lat="43.042995" lon="-9.250761">
        <ele>175.070</ele>
        <time>2019-06-21T18:24:54Z</time>
      </trkpt>
      <trkpt lat="43.042875" lon="-9.250765">
        <ele>174.284</ele>
        <time>2019-06-21T18:24:55Z</time>
      </trkpt>
      <trkpt lat="43.042743" lon="-9.250804">
        <ele>174.436</ele>
        <time>2019-06-21T18:24:56Z</time>
      </trkpt>
      <trkpt lat="43.042612" lon="-9.250862">
        <ele>175.458</ele>
        <time>2019-06-21T18:24:57Z</time>
      </trkpt>
      <trkpt lat="43.042479" lon="-9.250919">
        <ele>175.865</ele>
        <time>2019-06-21T18:24:58Z</time>
      </trkpt>
      <trkpt lat="43.042341" lon="-9.250988">
        <ele>175.581</ele>
        <time>2019-06-21T18:24:59Z</time>
      </trkpt>
      <trkpt lat="43.042203" lon="-9.251082">
        <ele>175.535</ele>
        <time>2019-06-21T18:25:00Z</time>
      </trkpt>
      <trkpt lat="43.042076" lon="-9.251179">
        <ele>175.847</ele>
        <time>2019-06-21T18:25:01Z</time>
      </trkpt>
      <trkpt lat="43.041948" lon="-9.251267">
        <ele>176.393</ele>
        <time>2019-06-21T18:25:02Z</time>
      </trkpt>
      <trkpt lat="43.041817" lon="-9.251364">
        <ele>177.265</ele>
        <time>2019-06-21T18:25:03Z</time>
      </trkpt>
      <trkpt lat="43.041696" lon="-9.251470">
        <ele>178.021</ele>
        <time>2019-06-21T18:25:04Z</time>
      </trkpt>
      <trkpt lat="43.041574" lon="-9.251589">
        <ele>179.208</ele>
        <time>2019-06-21T18:25:05Z</time>
      </trkpt>
      <trkpt lat="43.041457" lon="-9.251711">
        <ele>180.222</ele>
        <time>2019-06-21T18:25:06Z</time>
      </trkpt>
      <trkpt lat="43.041335" lon="-9.251830">
        <ele>180.926</ele>
        <time>2019-06-21T18:25:07Z</time>
      </trkpt>
      <trkpt lat="43.041212" lon="-9.251953">
        <ele>181.758</ele>
        <time>2019-06-21T18:25:08Z</time>
      </trkpt>
      <trkpt lat="43.041093" lon="-9.252067">
        <ele>182.330</ele>
        <time>2019-06-21T18:25:09Z</time>
      </trkpt>
      <trkpt lat="43.040980" lon="-9.252177">
        <ele>181.967</ele>
        <time>2019-06-21T18:25:10Z</time>
      </trkpt>
      <trkpt lat="43.040871" lon="-9.252288">
        <ele>181.363</ele>
        <time>2019-06-21T18:25:11Z</time>
      </trkpt>
      <trkpt lat="43.040766" lon="-9.252394">
        <ele>180.437</ele>
        <time>2019-06-21T18:25:12Z</time>
      </trkpt>
      <trkpt lat="43.040648" lon="-9.252490">
        <ele>179.619</ele>
        <time>2019-06-21T18:25:13Z</time>
      </trkpt>
      <trkpt lat="43.040516" lon="-9.252574">
        <ele>179.289</ele>
        <time>2019-06-21T18:25:14Z</time>
      </trkpt>
      <trkpt lat="43.040372" lon="-9.252652">
        <ele>179.206</ele>
        <time>2019-06-21T18:25:15Z</time>
      </trkpt>
      <trkpt lat="43.040224" lon="-9.252727">
        <ele>179.726</ele>
        <time>2019-06-21T18:25:16Z</time>
      </trkpt>
      <trkpt lat="43.040082" lon="-9.252783">
        <ele>180.008</ele>
        <time>2019-06-21T18:25:17Z</time>
      </trkpt>
      <trkpt lat="43.039938" lon="-9.252848">
        <ele>180.761</ele>
        <time>2019-06-21T18:25:18Z</time>
      </trkpt>
      <trkpt lat="43.039782" lon="-9.252922">
        <ele>181.495</ele>
        <time>2019-06-21T18:25:19Z</time>
      </trkpt>
      <trkpt lat="43.039649" lon="-9.252978">
        <ele>181.787</ele>
        <time>2019-06-21T18:25:20Z</time>
      </trkpt>
      <trkpt lat="43.039502" lon="-9.253039">
        <ele>181.969</ele>
        <time>2019-06-21T18:25:21Z</time>
      </trkpt>
      <trkpt lat="43.039353" lon="-9.253095">
        <ele>181.416</ele>
        <time>2019-06-21T18:25:22Z</time>
      </trkpt>
      <trkpt lat="43.039210" lon="-9.253160">
        <ele>180.662</ele>
        <time>2019-06-21T18:25:23Z</time>
      </trkpt>
      <trkpt lat="43.039056" lon="-9.253229">
        <ele>180.196</ele>
        <time>2019-06-21T18:25:24Z</time>
      </trkpt>
      <trkpt lat="43.038904" lon="-9.253295">
        <ele>179.828</ele>
        <time>2019-06-21T18:25:25Z</time>
      </trkpt>
      <trkpt lat="43.038753" lon="-9.253363">
        <ele>180.316</ele>
        <time>2019-06-21T18:25:26Z</time>
      </trkpt>
      <trkpt lat="43.038596" lon="-9.253437">
        <ele>181.176</ele>
        <time>2019-06-21T18:25:27Z</time>
      </trkpt>
      <trkpt lat="43.038434" lon="-9.253510">
        <ele>181.713</ele>
        <time>2019-06-21T18:25:28Z</time>
      </trkpt>
      <trkpt lat="43.038284" lon="-9.253574">
        <ele>182.008</ele>
        <time>2019-06-21T18:25:29Z</time>
      </trkpt>
      <trkpt lat="43.038132" lon="-9.253650">
        <ele>181.274</ele>
        <time>2019-06-21T18:25:30Z</time>
      </trkpt>
      <trkpt lat="43.037979" lon="-9.253725">
        <ele>180.338</ele>
        <time>2019-06-21T18:25:31Z</time>
      </trkpt>
      <trkpt lat="43.037823" lon="-9.253801">
        <ele>179.060</ele>
        <time>2019-06-21T18:25:32Z</time>
      </trkpt>
      <trkpt lat="43.037670" lon="-9.253878">
        <ele>178.162</ele>
        <time>2019-06-21T18:25:33Z</time>
      </trkpt>
      <trkpt lat="43.037522" lon="-9.253958">
        <ele>178.159</ele>
        <time>2019-06-21T18:25:34Z</time>
      </trkpt>
      <trkpt lat="43.037375" lon="-9.254039">
        <ele>179.245</ele>
        <time>2019-06-21T18:25:35Z</time>
      </trkpt>
      <trkpt lat="43.037230" lon="-9.254124">
        <ele>180.429</ele>
        <time>2019-06-21T18:25:36Z</time>
      </trkpt>
      <trkpt lat="43.037092" lon="-9.254205">
        <ele>181.381</ele>
        <time>2019-06-21T18:25:37Z</time>
      </trkpt>
      <trkpt lat="43.036953" lon="-9.254285">
        <ele>181.927</ele>
        <time>2019-06-21T18:25:38Z</time>
      </trkpt>
      <trkpt lat="43.036815" lon="-9.254353">
        <ele>181.468</ele>
        <time>2019-06-21T18:25:39Z</time>
      </trkpt>
      <trkpt lat="43.036678" lon="-9.254417">
        <ele>180.914</ele>
        <time>2019-06-21T18:25:40Z</time>
      </trkpt>
      <trkpt lat="43.036537" lon="-9.254483">
        <ele>179.008</ele>
        <time>2019-06-21T18:25:41Z</time>
      </trkpt>
      <trkpt lat="43.036377" lon="-9.254556">
        <ele>176.555</ele>
        <time>2019-06-21T18:25:42Z</time>
      </trkpt>
      <trkpt lat="43.036222" lon="-9.254630">
        <ele>174.539</ele>
        <time>2019-06-21T18:25:43Z</time>
      </trkpt>
      <trkpt lat="43.036074" lon="-9.254703">
        <ele>172.971</ele>
        <time>2019-06-21T18:25:44Z</time>
      </trkpt>
      <trkpt lat="43.035926" lon="-9.254752">
        <ele>172.143</ele>
        <time>2019-06-21T18:25:45Z</time>
      </trkpt>
      <trkpt lat="43.035774" lon="-9.254808">
        <ele>171.420</ele>
        <time>2019-06-21T18:25:46Z</time>
      </trkpt>
      <trkpt lat="43.035630" lon="-9.254863">
        <ele>171.016</ele>
        <time>2019-06-21T18:25:47Z</time>
      </trkpt>
      <trkpt lat="43.035495" lon="-9.254917">
        <ele>170.650</ele>
        <time>2019-06-21T18:25:48Z</time>
      </trkpt>
      <trkpt lat="43.035363" lon="-9.254969">
        <ele>170.242</ele>
        <time>2019-06-21T18:25:49Z</time>
      </trkpt>
      <trkpt lat="43.035230" lon="-9.255021">
        <ele>170.198</ele>
        <time>2019-06-21T18:25:50Z</time>
      </trkpt>
      <trkpt lat="43.035095" lon="-9.255069">
        <ele>170.715</ele>
        <time>2019-06-21T18:25:51Z</time>
      </trkpt>
      <trkpt lat="43.034966" lon="-9.255117">
        <ele>171.326</ele>
        <time>2019-06-21T18:25:52Z</time>
      </trkpt>
      <trkpt lat="43.034836" lon="-9.255167">
        <ele>171.508</ele>
        <time>2019-06-21T18:25:53Z</time>
      </trkpt>
      <trkpt lat="43.034713" lon="-9.255218">
        <ele>172.022</ele>
        <time>2019-06-21T18:25:54Z</time>
      </trkpt>
      <trkpt lat="43.034594" lon="-9.255253">
        <ele>171.596</ele>
        <time>2019-06-21T18:25:55Z</time>
      </trkpt>
      <trkpt lat="43.034477" lon="-9.255303">
        <ele>171.298</ele>
        <time>2019-06-21T18:25:56Z</time>
      </trkpt>
      <trkpt lat="43.034363" lon="-9.255353">
        <ele>170.860</ele>
        <time>2019-06-21T18:25:57Z</time>
      </trkpt>
      <trkpt lat="43.034258" lon="-9.255415">
        <ele>170.537</ele>
        <time>2019-06-21T18:25:58Z</time>
      </trkpt>
      <trkpt lat="43.034153" lon="-9.255461">
        <ele>170.243</ele>
        <time>2019-06-21T18:25:59Z</time>
      </trkpt>
      <trkpt lat="43.034045" lon="-9.255510">
        <ele>169.967</ele>
        <time>2019-06-21T18:26:00Z</time>
      </trkpt>
      <trkpt lat="43.033959" lon="-9.255546">
        <ele>169.529</ele>
        <time>2019-06-21T18:26:01Z</time>
      </trkpt>
      <trkpt lat="43.033868" lon="-9.255593">
        <ele>169.245</ele>
        <time>2019-06-21T18:26:02Z</time>
      </trkpt>
      <trkpt lat="43.033783" lon="-9.255632">
        <ele>169.747</ele>
        <time>2019-06-21T18:26:03Z</time>
      </trkpt>
      <trkpt lat="43.033715" lon="-9.255667">
        <ele>170.011</ele>
        <time>2019-06-21T18:26:04Z</time>
      </trkpt>
      <trkpt lat="43.033663" lon="-9.255699">
        <ele>170.308</ele>
        <time>2019-06-21T18:26:05Z</time>
      </trkpt>
      <trkpt lat="43.033623" lon="-9.255731">
        <ele>170.687</ele>
        <time>2019-06-21T18:26:06Z</time>
      </trkpt>
      <trkpt lat="43.033592" lon="-9.255793">
        <ele>171.111</ele>
        <time>2019-06-21T18:26:08Z</time>
      </trkpt>
      <trkpt lat="43.033588" lon="-9.255915">
        <ele>171.613</ele>
        <time>2019-06-21T18:26:10Z</time>
      </trkpt>
      <trkpt lat="43.033597" lon="-9.256004">
        <ele>171.855</ele>
        <time>2019-06-21T18:26:11Z</time>
      </trkpt>
      <trkpt lat="43.033584" lon="-9.256123">
        <ele>172.392</ele>
        <time>2019-06-21T18:26:12Z</time>
      </trkpt>
      <trkpt lat="43.033574" lon="-9.256249">
        <ele>172.858</ele>
        <time>2019-06-21T18:26:13Z</time>
      </trkpt>
      <trkpt lat="43.033575" lon="-9.256381">
        <ele>173.242</ele>
        <time>2019-06-21T18:26:14Z</time>
      </trkpt>
      <trkpt lat="43.033560" lon="-9.256526">
        <ele>174.254</ele>
        <time>2019-06-21T18:26:15Z</time>
      </trkpt>
      <trkpt lat="43.033541" lon="-9.256694">
        <ele>175.093</ele>
        <time>2019-06-21T18:26:16Z</time>
      </trkpt>
      <trkpt lat="43.033509" lon="-9.256870">
        <ele>175.365</ele>
        <time>2019-06-21T18:26:17Z</time>
      </trkpt>
      <trkpt lat="43.033481" lon="-9.257047">
        <ele>175.521</ele>
        <time>2019-06-21T18:26:18Z</time>
      </trkpt>
      <trkpt lat="43.033468" lon="-9.257210">
        <ele>175.508</ele>
        <time>2019-06-21T18:26:19Z</time>
      </trkpt>
      <trkpt lat="43.033445" lon="-9.257366">
        <ele>175.112</ele>
        <time>2019-06-21T18:26:20Z</time>
      </trkpt>
      <trkpt lat="43.033432" lon="-9.257515">
        <ele>174.626</ele>
        <time>2019-06-21T18:26:21Z</time>
      </trkpt>
      <trkpt lat="43.033403" lon="-9.257655">
        <ele>174.718</ele>
        <time>2019-06-21T18:26:22Z</time>
      </trkpt>
      <trkpt lat="43.033383" lon="-9.257801">
        <ele>174.860</ele>
        <time>2019-06-21T18:26:23Z</time>
      </trkpt>
      <trkpt lat="43.033365" lon="-9.257947">
        <ele>174.387</ele>
        <time>2019-06-21T18:26:24Z</time>
      </trkpt>
      <trkpt lat="43.033345" lon="-9.258079">
        <ele>174.013</ele>
        <time>2019-06-21T18:26:25Z</time>
      </trkpt>
      <trkpt lat="43.033320" lon="-9.258223">
        <ele>174.017</ele>
        <time>2019-06-21T18:26:26Z</time>
      </trkpt>
      <trkpt lat="43.033299" lon="-9.258360">
        <ele>173.969</ele>
        <time>2019-06-21T18:26:27Z</time>
      </trkpt>
      <trkpt lat="43.033282" lon="-9.258491">
        <ele>173.466</ele>
        <time>2019-06-21T18:26:28Z</time>
      </trkpt>
      <trkpt lat="43.033265" lon="-9.258618">
        <ele>173.029</ele>
        <time>2019-06-21T18:26:29Z</time>
      </trkpt>
      <trkpt lat="43.033241" lon="-9.258743">
        <ele>172.721</ele>
        <time>2019-06-21T18:26:30Z</time>
      </trkpt>
      <trkpt lat="43.033221" lon="-9.258875">
        <ele>172.408</ele>
        <time>2019-06-21T18:26:31Z</time>
      </trkpt>
      <trkpt lat="43.033214" lon="-9.258989">
        <ele>172.269</ele>
        <time>2019-06-21T18:26:32Z</time>
      </trkpt>
      <trkpt lat="43.033215" lon="-9.259131">
        <ele>171.913</ele>
        <time>2019-06-21T18:26:33Z</time>
      </trkpt>
      <trkpt lat="43.033199" lon="-9.259266">
        <ele>171.675</ele>
        <time>2019-06-21T18:26:34Z</time>
      </trkpt>
      <trkpt lat="43.033200" lon="-9.259419">
        <ele>171.087</ele>
        <time>2019-06-21T18:26:35Z</time>
      </trkpt>
      <trkpt lat="43.033213" lon="-9.259574">
        <ele>169.764</ele>
        <time>2019-06-21T18:26:36Z</time>
      </trkpt>
      <trkpt lat="43.033215" lon="-9.259731">
        <ele>168.440</ele>
        <time>2019-06-21T18:26:37Z</time>
      </trkpt>
      <trkpt lat="43.033216" lon="-9.259871">
        <ele>165.944</ele>
        <time>2019-06-21T18:26:38Z</time>
      </trkpt>
      <trkpt lat="43.033221" lon="-9.260036">
        <ele>163.156</ele>
        <time>2019-06-21T18:26:39Z</time>
      </trkpt>
      <trkpt lat="43.033234" lon="-9.260195">
        <ele>161.358</ele>
        <time>2019-06-21T18:26:40Z</time>
      </trkpt>
      <trkpt lat="43.033239" lon="-9.260347">
        <ele>160.752</ele>
        <time>2019-06-21T18:26:41Z</time>
      </trkpt>
      <trkpt lat="43.033256" lon="-9.260503">
        <ele>161.017</ele>
        <time>2019-06-21T18:26:42Z</time>
      </trkpt>
      <trkpt lat="43.033267" lon="-9.260654">
        <ele>161.308</ele>
        <time>2019-06-21T18:26:43Z</time>
      </trkpt>
      <trkpt lat="43.033278" lon="-9.260800">
        <ele>161.558</ele>
        <time>2019-06-21T18:26:44Z</time>
      </trkpt>
      <trkpt lat="43.033304" lon="-9.260928">
        <ele>161.252</ele>
        <time>2019-06-21T18:26:45Z</time>
      </trkpt>
      <trkpt lat="43.033359" lon="-9.261050">
        <ele>160.154</ele>
        <time>2019-06-21T18:26:46Z</time>
      </trkpt>
      <trkpt lat="43.033432" lon="-9.261159">
        <ele>159.016</ele>
        <time>2019-06-21T18:26:47Z</time>
      </trkpt>
      <trkpt lat="43.033510" lon="-9.261252">
        <ele>158.553</ele>
        <time>2019-06-21T18:26:48Z</time>
      </trkpt>
      <trkpt lat="43.033595" lon="-9.261352">
        <ele>158.669</ele>
        <time>2019-06-21T18:26:49Z</time>
      </trkpt>
      <trkpt lat="43.033720" lon="-9.261384">
        <ele>157.713</ele>
        <time>2019-06-21T18:26:50Z</time>
      </trkpt>
      <trkpt lat="43.033832" lon="-9.261435">
        <ele>157.145</ele>
        <time>2019-06-21T18:26:51Z</time>
      </trkpt>
      <trkpt lat="43.033941" lon="-9.261494">
        <ele>156.547</ele>
        <time>2019-06-21T18:26:52Z</time>
      </trkpt>
      <trkpt lat="43.034051" lon="-9.261536">
        <ele>155.529</ele>
        <time>2019-06-21T18:26:53Z</time>
      </trkpt>
      <trkpt lat="43.034155" lon="-9.261600">
        <ele>154.721</ele>
        <time>2019-06-21T18:26:54Z</time>
      </trkpt>
      <trkpt lat="43.034260" lon="-9.261663">
        <ele>154.008</ele>
        <time>2019-06-21T18:26:55Z</time>
      </trkpt>
      <trkpt lat="43.034362" lon="-9.261718">
        <ele>152.917</ele>
        <time>2019-06-21T18:26:56Z</time>
      </trkpt>
      <trkpt lat="43.034469" lon="-9.261757">
        <ele>151.731</ele>
        <time>2019-06-21T18:26:57Z</time>
      </trkpt>
      <trkpt lat="43.034572" lon="-9.261817">
        <ele>150.653</ele>
        <time>2019-06-21T18:26:58Z</time>
      </trkpt>
      <trkpt lat="43.034684" lon="-9.261877">
        <ele>149.475</ele>
        <time>2019-06-21T18:26:59Z</time>
      </trkpt>
      <trkpt lat="43.034787" lon="-9.261938">
        <ele>148.552</ele>
        <time>2019-06-21T18:27:00Z</time>
      </trkpt>
      <trkpt lat="43.034890" lon="-9.262005">
        <ele>147.818</ele>
        <time>2019-06-21T18:27:01Z</time>
      </trkpt>
      <trkpt lat="43.034994" lon="-9.262070">
        <ele>147.032</ele>
        <time>2019-06-21T18:27:02Z</time>
      </trkpt>
      <trkpt lat="43.035099" lon="-9.262131">
        <ele>146.614</ele>
        <time>2019-06-21T18:27:03Z</time>
      </trkpt>
      <trkpt lat="43.035195" lon="-9.262199">
        <ele>146.316</ele>
        <time>2019-06-21T18:27:04Z</time>
      </trkpt>
      <trkpt lat="43.035307" lon="-9.262252">
        <ele>146.076</ele>
        <time>2019-06-21T18:27:05Z</time>
      </trkpt>
      <trkpt lat="43.035418" lon="-9.262309">
        <ele>145.813</ele>
        <time>2019-06-21T18:27:06Z</time>
      </trkpt>
      <trkpt lat="43.035536" lon="-9.262363">
        <ele>145.608</ele>
        <time>2019-06-21T18:27:07Z</time>
      </trkpt>
      <trkpt lat="43.035628" lon="-9.262426">
        <ele>145.614</ele>
        <time>2019-06-21T18:27:08Z</time>
      </trkpt>
      <trkpt lat="43.035730" lon="-9.262487">
        <ele>145.928</ele>
        <time>2019-06-21T18:27:09Z</time>
      </trkpt>
      <trkpt lat="43.035832" lon="-9.262538">
        <ele>146.470</ele>
        <time>2019-06-21T18:27:10Z</time>
      </trkpt>
      <trkpt lat="43.035932" lon="-9.262577">
        <ele>146.732</ele>
        <time>2019-06-21T18:27:11Z</time>
      </trkpt>
      <trkpt lat="43.036022" lon="-9.262612">
        <ele>146.969</ele>
        <time>2019-06-21T18:27:12Z</time>
      </trkpt>
      <trkpt lat="43.036109" lon="-9.262642">
        <ele>147.065</ele>
        <time>2019-06-21T18:27:13Z</time>
      </trkpt>
      <trkpt lat="43.036182" lon="-9.262689">
        <ele>146.729</ele>
        <time>2019-06-21T18:27:14Z</time>
      </trkpt>
      <trkpt lat="43.036262" lon="-9.262744">
        <ele>146.571</ele>
        <time>2019-06-21T18:27:15Z</time>
      </trkpt>
      <trkpt lat="43.036343" lon="-9.262819">
        <ele>146.427</ele>
        <time>2019-06-21T18:27:16Z</time>
      </trkpt>
      <trkpt lat="43.036421" lon="-9.262912">
        <ele>145.368</ele>
        <time>2019-06-21T18:27:17Z</time>
      </trkpt>
      <trkpt lat="43.036493" lon="-9.263007">
        <ele>144.014</ele>
        <time>2019-06-21T18:27:18Z</time>
      </trkpt>
      <trkpt lat="43.036562" lon="-9.263107">
        <ele>143.108</ele>
        <time>2019-06-21T18:27:19Z</time>
      </trkpt>
      <trkpt lat="43.036635" lon="-9.263219">
        <ele>141.895</ele>
        <time>2019-06-21T18:27:20Z</time>
      </trkpt>
      <trkpt lat="43.036715" lon="-9.263342">
        <ele>139.899</ele>
        <time>2019-06-21T18:27:21Z</time>
      </trkpt>
      <trkpt lat="43.036798" lon="-9.263472">
        <ele>138.481</ele>
        <time>2019-06-21T18:27:22Z</time>
      </trkpt>
      <trkpt lat="43.036889" lon="-9.263601">
        <ele>137.113</ele>
        <time>2019-06-21T18:27:23Z</time>
      </trkpt>
      <trkpt lat="43.036975" lon="-9.263738">
        <ele>136.250</ele>
        <time>2019-06-21T18:27:24Z</time>
      </trkpt>
      <trkpt lat="43.037065" lon="-9.263861">
        <ele>136.076</ele>
        <time>2019-06-21T18:27:25Z</time>
      </trkpt>
      <trkpt lat="43.037154" lon="-9.263994">
        <ele>136.270</ele>
        <time>2019-06-21T18:27:26Z</time>
      </trkpt>
      <trkpt lat="43.037242" lon="-9.264130">
        <ele>135.782</ele>
        <time>2019-06-21T18:27:27Z</time>
      </trkpt>
      <trkpt lat="43.037324" lon="-9.264275">
        <ele>136.299</ele>
        <time>2019-06-21T18:27:28Z</time>
      </trkpt>
      <trkpt lat="43.037407" lon="-9.264412">
        <ele>136.107</ele>
        <time>2019-06-21T18:27:29Z</time>
      </trkpt>
      <trkpt lat="43.037486" lon="-9.264540">
        <ele>135.927</ele>
        <time>2019-06-21T18:27:30Z</time>
      </trkpt>
      <trkpt lat="43.037568" lon="-9.264662">
        <ele>136.108</ele>
        <time>2019-06-21T18:27:31Z</time>
      </trkpt>
      <trkpt lat="43.037651" lon="-9.264789">
        <ele>136.342</ele>
        <time>2019-06-21T18:27:32Z</time>
      </trkpt>
      <trkpt lat="43.037729" lon="-9.264912">
        <ele>136.276</ele>
        <time>2019-06-21T18:27:33Z</time>
      </trkpt>
      <trkpt lat="43.037803" lon="-9.265029">
        <ele>135.838</ele>
        <time>2019-06-21T18:27:34Z</time>
      </trkpt>
      <trkpt lat="43.037869" lon="-9.265153">
        <ele>135.780</ele>
        <time>2019-06-21T18:27:35Z</time>
      </trkpt>
      <trkpt lat="43.037941" lon="-9.265261">
        <ele>135.787</ele>
        <time>2019-06-21T18:27:36Z</time>
      </trkpt>
      <trkpt lat="43.038019" lon="-9.265374">
        <ele>135.023</ele>
        <time>2019-06-21T18:27:37Z</time>
      </trkpt>
      <trkpt lat="43.038091" lon="-9.265482">
        <ele>133.717</ele>
        <time>2019-06-21T18:27:38Z</time>
      </trkpt>
      <trkpt lat="43.038156" lon="-9.265595">
        <ele>132.529</ele>
        <time>2019-06-21T18:27:39Z</time>
      </trkpt>
      <trkpt lat="43.038234" lon="-9.265721">
        <ele>131.632</ele>
        <time>2019-06-21T18:27:40Z</time>
      </trkpt>
      <trkpt lat="43.038304" lon="-9.265848">
        <ele>131.292</ele>
        <time>2019-06-21T18:27:41Z</time>
      </trkpt>
      <trkpt lat="43.038380" lon="-9.265948">
        <ele>130.211</ele>
        <time>2019-06-21T18:27:42Z</time>
      </trkpt>
      <trkpt lat="43.038441" lon="-9.266073">
        <ele>129.108</ele>
        <time>2019-06-21T18:27:43Z</time>
      </trkpt>
      <trkpt lat="43.038505" lon="-9.266186">
        <ele>127.956</ele>
        <time>2019-06-21T18:27:44Z</time>
      </trkpt>
      <trkpt lat="43.038578" lon="-9.266306">
        <ele>126.610</ele>
        <time>2019-06-21T18:27:45Z</time>
      </trkpt>
      <trkpt lat="43.038641" lon="-9.266429">
        <ele>125.712</ele>
        <time>2019-06-21T18:27:46Z</time>
      </trkpt>
      <trkpt lat="43.038709" lon="-9.266556">
        <ele>124.764</ele>
        <time>2019-06-21T18:27:47Z</time>
      </trkpt>
      <trkpt lat="43.038780" lon="-9.266661">
        <ele>123.681</ele>
        <time>2019-06-21T18:27:48Z</time>
      </trkpt>
      <trkpt lat="43.038851" lon="-9.266762">
        <ele>122.557</ele>
        <time>2019-06-21T18:27:49Z</time>
      </trkpt>
      <trkpt lat="43.038918" lon="-9.266881">
        <ele>121.681</ele>
        <time>2019-06-21T18:27:50Z</time>
      </trkpt>
      <trkpt lat="43.038986" lon="-9.266986">
        <ele>120.843</ele>
        <time>2019-06-21T18:27:51Z</time>
      </trkpt>
      <trkpt lat="43.039040" lon="-9.267094">
        <ele>120.744</ele>
        <time>2019-06-21T18:27:52Z</time>
      </trkpt>
      <trkpt lat="43.039092" lon="-9.267180">
        <ele>120.505</ele>
        <time>2019-06-21T18:27:53Z</time>
      </trkpt>
      <trkpt lat="43.039178" lon="-9.267231">
        <ele>120.015</ele>
        <time>2019-06-21T18:27:54Z</time>
      </trkpt>
      <trkpt lat="43.039271" lon="-9.267299">
        <ele>120.208</ele>
        <time>2019-06-21T18:27:55Z</time>
      </trkpt>
      <trkpt lat="43.039381" lon="-9.267337">
        <ele>120.177</ele>
        <time>2019-06-21T18:27:56Z</time>
      </trkpt>
      <trkpt lat="43.039469" lon="-9.267366">
        <ele>119.971</ele>
        <time>2019-06-21T18:27:57Z</time>
      </trkpt>
      <trkpt lat="43.039564" lon="-9.267391">
        <ele>119.553</ele>
        <time>2019-06-21T18:27:58Z</time>
      </trkpt>
      <trkpt lat="43.039653" lon="-9.267435">
        <ele>119.225</ele>
        <time>2019-06-21T18:27:59Z</time>
      </trkpt>
      <trkpt lat="43.039740" lon="-9.267494">
        <ele>118.812</ele>
        <time>2019-06-21T18:28:00Z</time>
      </trkpt>
      <trkpt lat="43.039816" lon="-9.267579">
        <ele>118.368</ele>
        <time>2019-06-21T18:28:01Z</time>
      </trkpt>
      <trkpt lat="43.039888" lon="-9.267674">
        <ele>117.862</ele>
        <time>2019-06-21T18:28:02Z</time>
      </trkpt>
      <trkpt lat="43.039944" lon="-9.267785">
        <ele>117.684</ele>
        <time>2019-06-21T18:28:03Z</time>
      </trkpt>
      <trkpt lat="43.039978" lon="-9.267898">
        <ele>116.834</ele>
        <time>2019-06-21T18:28:04Z</time>
      </trkpt>
      <trkpt lat="43.039999" lon="-9.268013">
        <ele>116.255</ele>
        <time>2019-06-21T18:28:05Z</time>
      </trkpt>
      <trkpt lat="43.040010" lon="-9.268132">
        <ele>115.810</ele>
        <time>2019-06-21T18:28:06Z</time>
      </trkpt>
      <trkpt lat="43.040015" lon="-9.268254">
        <ele>115.708</ele>
        <time>2019-06-21T18:28:07Z</time>
      </trkpt>
      <trkpt lat="43.040001" lon="-9.268396">
        <ele>115.876</ele>
        <time>2019-06-21T18:28:08Z</time>
      </trkpt>
      <trkpt lat="43.039984" lon="-9.268545">
        <ele>115.450</ele>
        <time>2019-06-21T18:28:09Z</time>
      </trkpt>
      <trkpt lat="43.039963" lon="-9.268701">
        <ele>115.312</ele>
        <time>2019-06-21T18:28:10Z</time>
      </trkpt>
      <trkpt lat="43.039948" lon="-9.268860">
        <ele>115.424</ele>
        <time>2019-06-21T18:28:11Z</time>
      </trkpt>
      <trkpt lat="43.039933" lon="-9.269022">
        <ele>114.851</ele>
        <time>2019-06-21T18:28:12Z</time>
      </trkpt>
      <trkpt lat="43.039913" lon="-9.269190">
        <ele>113.817</ele>
        <time>2019-06-21T18:28:13Z</time>
      </trkpt>
      <trkpt lat="43.039897" lon="-9.269345">
        <ele>112.761</ele>
        <time>2019-06-21T18:28:14Z</time>
      </trkpt>
      <trkpt lat="43.039877" lon="-9.269511">
        <ele>111.513</ele>
        <time>2019-06-21T18:28:15Z</time>
      </trkpt>
      <trkpt lat="43.039858" lon="-9.269674">
        <ele>110.434</ele>
        <time>2019-06-21T18:28:16Z</time>
      </trkpt>
      <trkpt lat="43.039835" lon="-9.269829">
        <ele>108.955</ele>
        <time>2019-06-21T18:28:17Z</time>
      </trkpt>
      <trkpt lat="43.039816" lon="-9.269981">
        <ele>107.210</ele>
        <time>2019-06-21T18:28:18Z</time>
      </trkpt>
      <trkpt lat="43.039803" lon="-9.270131">
        <ele>105.608</ele>
        <time>2019-06-21T18:28:19Z</time>
      </trkpt>
      <trkpt lat="43.039778" lon="-9.270290">
        <ele>104.276</ele>
        <time>2019-06-21T18:28:20Z</time>
      </trkpt>
      <trkpt lat="43.039741" lon="-9.270441">
        <ele>104.140</ele>
        <time>2019-06-21T18:28:21Z</time>
      </trkpt>
      <trkpt lat="43.039697" lon="-9.270611">
        <ele>104.292</ele>
        <time>2019-06-21T18:28:22Z</time>
      </trkpt>
      <trkpt lat="43.039646" lon="-9.270793">
        <ele>104.214</ele>
        <time>2019-06-21T18:28:23Z</time>
      </trkpt>
      <trkpt lat="43.039589" lon="-9.270979">
        <ele>103.911</ele>
        <time>2019-06-21T18:28:24Z</time>
      </trkpt>
      <trkpt lat="43.039535" lon="-9.271169">
        <ele>103.337</ele>
        <time>2019-06-21T18:28:25Z</time>
      </trkpt>
      <trkpt lat="43.039481" lon="-9.271359">
        <ele>102.771</ele>
        <time>2019-06-21T18:28:26Z</time>
      </trkpt>
      <trkpt lat="43.039442" lon="-9.271535">
        <ele>101.593</ele>
        <time>2019-06-21T18:28:27Z</time>
      </trkpt>
      <trkpt lat="43.039388" lon="-9.271712">
        <ele>100.877</ele>
        <time>2019-06-21T18:28:28Z</time>
      </trkpt>
      <trkpt lat="43.039342" lon="-9.271881">
        <ele>100.561</ele>
        <time>2019-06-21T18:28:29Z</time>
      </trkpt>
      <trkpt lat="43.039292" lon="-9.272045">
        <ele>99.927</ele>
        <time>2019-06-21T18:28:30Z</time>
      </trkpt>
      <trkpt lat="43.039245" lon="-9.272192">
        <ele>99.408</ele>
        <time>2019-06-21T18:28:31Z</time>
      </trkpt>
      <trkpt lat="43.039193" lon="-9.272339">
        <ele>98.930</ele>
        <time>2019-06-21T18:28:32Z</time>
      </trkpt>
      <trkpt lat="43.039131" lon="-9.272472">
        <ele>98.644</ele>
        <time>2019-06-21T18:28:33Z</time>
      </trkpt>
      <trkpt lat="43.039058" lon="-9.272598">
        <ele>98.346</ele>
        <time>2019-06-21T18:28:34Z</time>
      </trkpt>
      <trkpt lat="43.038975" lon="-9.272705">
        <ele>98.118</ele>
        <time>2019-06-21T18:28:35Z</time>
      </trkpt>
      <trkpt lat="43.038887" lon="-9.272798">
        <ele>97.725</ele>
        <time>2019-06-21T18:28:36Z</time>
      </trkpt>
      <trkpt lat="43.038792" lon="-9.272886">
        <ele>96.071</ele>
        <time>2019-06-21T18:28:37Z</time>
      </trkpt>
      <trkpt lat="43.038700" lon="-9.272966">
        <ele>94.125</ele>
        <time>2019-06-21T18:28:38Z</time>
      </trkpt>
      <trkpt lat="43.038611" lon="-9.273033">
        <ele>92.427</ele>
        <time>2019-06-21T18:28:39Z</time>
      </trkpt>
      <trkpt lat="43.038524" lon="-9.273107">
        <ele>91.652</ele>
        <time>2019-06-21T18:28:40Z</time>
      </trkpt>
      <trkpt lat="43.038448" lon="-9.273175">
        <ele>90.953</ele>
        <time>2019-06-21T18:28:41Z</time>
      </trkpt>
      <trkpt lat="43.038388" lon="-9.273229">
        <ele>90.308</ele>
        <time>2019-06-21T18:28:42Z</time>
      </trkpt>
      <trkpt lat="43.038337" lon="-9.273279">
        <ele>89.808</ele>
        <time>2019-06-21T18:28:43Z</time>
      </trkpt>
      <trkpt lat="43.038307" lon="-9.273338">
        <ele>89.428</ele>
        <time>2019-06-21T18:28:44Z</time>
      </trkpt>
      <trkpt lat="43.038291" lon="-9.273402">
        <ele>88.862</ele>
        <time>2019-06-21T18:28:45Z</time>
      </trkpt>
      <trkpt lat="43.038297" lon="-9.273486">
        <ele>87.554</ele>
        <time>2019-06-21T18:28:46Z</time>
      </trkpt>
      <trkpt lat="43.038311" lon="-9.273584">
        <ele>85.816</ele>
        <time>2019-06-21T18:28:47Z</time>
      </trkpt>
      <trkpt lat="43.038372" lon="-9.273722">
        <ele>83.783</ele>
        <time>2019-06-21T18:28:48Z</time>
      </trkpt>
      <trkpt lat="43.038438" lon="-9.273877">
        <ele>81.889</ele>
        <time>2019-06-21T18:28:49Z</time>
      </trkpt>
      <trkpt lat="43.038487" lon="-9.274067">
        <ele>80.563</ele>
        <time>2019-06-21T18:28:50Z</time>
      </trkpt>
      <trkpt lat="43.038553" lon="-9.274255">
        <ele>78.725</ele>
        <time>2019-06-21T18:28:51Z</time>
      </trkpt>
      <trkpt lat="43.038610" lon="-9.274459">
        <ele>77.058</ele>
        <time>2019-06-21T18:28:52Z</time>
      </trkpt>
      <trkpt lat="43.038673" lon="-9.274668">
        <ele>76.252</ele>
        <time>2019-06-21T18:28:53Z</time>
      </trkpt>
      <trkpt lat="43.038743" lon="-9.274889">
        <ele>75.117</ele>
        <time>2019-06-21T18:28:54Z</time>
      </trkpt>
      <trkpt lat="43.038817" lon="-9.275101">
        <ele>73.508</ele>
        <time>2019-06-21T18:28:55Z</time>
      </trkpt>
      <trkpt lat="43.038893" lon="-9.275314">
        <ele>70.788</ele>
        <time>2019-06-21T18:28:56Z</time>
      </trkpt>
      <trkpt lat="43.038991" lon="-9.275532">
        <ele>68.122</ele>
        <time>2019-06-21T18:28:57Z</time>
      </trkpt>
      <trkpt lat="43.039073" lon="-9.275751">
        <ele>66.874</ele>
        <time>2019-06-21T18:28:58Z</time>
      </trkpt>
      <trkpt lat="43.039105" lon="-9.275989">
        <ele>66.446</ele>
        <time>2019-06-21T18:28:59Z</time>
      </trkpt>
      <trkpt lat="43.039170" lon="-9.276219">
        <ele>66.463</ele>
        <time>2019-06-21T18:29:00Z</time>
      </trkpt>
      <trkpt lat="43.039214" lon="-9.276438">
        <ele>66.889</ele>
        <time>2019-06-21T18:29:01Z</time>
      </trkpt>
      <trkpt lat="43.039264" lon="-9.276643">
        <ele>67.273</ele>
        <time>2019-06-21T18:29:02Z</time>
      </trkpt>
      <trkpt lat="43.039317" lon="-9.276828">
        <ele>67.575</ele>
        <time>2019-06-21T18:29:03Z</time>
      </trkpt>
      <trkpt lat="43.039369" lon="-9.277009">
        <ele>67.479</ele>
        <time>2019-06-21T18:29:04Z</time>
      </trkpt>
      <trkpt lat="43.039413" lon="-9.277204">
        <ele>66.405</ele>
        <time>2019-06-21T18:29:05Z</time>
      </trkpt>
      <trkpt lat="43.039466" lon="-9.277397">
        <ele>65.225</ele>
        <time>2019-06-21T18:29:06Z</time>
      </trkpt>
      <trkpt lat="43.039517" lon="-9.277609">
        <ele>64.108</ele>
        <time>2019-06-21T18:29:07Z</time>
      </trkpt>
      <trkpt lat="43.039572" lon="-9.277843">
        <ele>63.610</ele>
        <time>2019-06-21T18:29:08Z</time>
      </trkpt>
      <trkpt lat="43.039618" lon="-9.278057">
        <ele>64.844</ele>
        <time>2019-06-21T18:29:09Z</time>
      </trkpt>
      <trkpt lat="43.039680" lon="-9.278237">
        <ele>65.686</ele>
        <time>2019-06-21T18:29:10Z</time>
      </trkpt>
      <trkpt lat="43.039736" lon="-9.278405">
        <ele>66.628</ele>
        <time>2019-06-21T18:29:11Z</time>
      </trkpt>
      <trkpt lat="43.039792" lon="-9.278561">
        <ele>67.565</ele>
        <time>2019-06-21T18:29:12Z</time>
      </trkpt>
      <trkpt lat="43.039837" lon="-9.278723">
        <ele>68.251</ele>
        <time>2019-06-21T18:29:13Z</time>
      </trkpt>
      <trkpt lat="43.039880" lon="-9.278867">
        <ele>68.655</ele>
        <time>2019-06-21T18:29:14Z</time>
      </trkpt>
      <trkpt lat="43.039913" lon="-9.278987">
        <ele>68.537</ele>
        <time>2019-06-21T18:29:15Z</time>
      </trkpt>
      <trkpt lat="43.039943" lon="-9.279090">
        <ele>68.426</ele>
        <time>2019-06-21T18:29:16Z</time>
      </trkpt>
      <trkpt lat="43.039965" lon="-9.279192">
        <ele>68.447</ele>
        <time>2019-06-21T18:29:17Z</time>
      </trkpt>
      <trkpt lat="43.039989" lon="-9.279291">
        <ele>68.111</ele>
        <time>2019-06-21T18:29:18Z</time>
      </trkpt>
      <trkpt lat="43.040018" lon="-9.279396">
        <ele>67.808</ele>
        <time>2019-06-21T18:29:19Z</time>
      </trkpt>
      <trkpt lat="43.040052" lon="-9.279521">
        <ele>67.295</ele>
        <time>2019-06-21T18:29:20Z</time>
      </trkpt>
      <trkpt lat="43.040086" lon="-9.279657">
        <ele>66.329</ele>
        <time>2019-06-21T18:29:21Z</time>
      </trkpt>
      <trkpt lat="43.040129" lon="-9.279793">
        <ele>65.241</ele>
        <time>2019-06-21T18:29:22Z</time>
      </trkpt>
      <trkpt lat="43.040172" lon="-9.279940">
        <ele>63.953</ele>
        <time>2019-06-21T18:29:23Z</time>
      </trkpt>
      <trkpt lat="43.040214" lon="-9.280107">
        <ele>62.190</ele>
        <time>2019-06-21T18:29:24Z</time>
      </trkpt>
      <trkpt lat="43.040259" lon="-9.280277">
        <ele>60.286</ele>
        <time>2019-06-21T18:29:25Z</time>
      </trkpt>
      <trkpt lat="43.040311" lon="-9.280433">
        <ele>59.020</ele>
        <time>2019-06-21T18:29:26Z</time>
      </trkpt>
      <trkpt lat="43.040362" lon="-9.280583">
        <ele>58.092</ele>
        <time>2019-06-21T18:29:27Z</time>
      </trkpt>
      <trkpt lat="43.040405" lon="-9.280745">
        <ele>56.948</ele>
        <time>2019-06-21T18:29:28Z</time>
      </trkpt>
      <trkpt lat="43.040450" lon="-9.280913">
        <ele>55.961</ele>
        <time>2019-06-21T18:29:29Z</time>
      </trkpt>
      <trkpt lat="43.040489" lon="-9.281072">
        <ele>54.917</ele>
        <time>2019-06-21T18:29:30Z</time>
      </trkpt>
      <trkpt lat="43.040527" lon="-9.281224">
        <ele>53.908</ele>
        <time>2019-06-21T18:29:31Z</time>
      </trkpt>
      <trkpt lat="43.040575" lon="-9.281370">
        <ele>53.067</ele>
        <time>2019-06-21T18:29:32Z</time>
      </trkpt>
      <trkpt lat="43.040614" lon="-9.281500">
        <ele>52.781</ele>
        <time>2019-06-21T18:29:33Z</time>
      </trkpt>
      <trkpt lat="43.040651" lon="-9.281637">
        <ele>52.353</ele>
        <time>2019-06-21T18:29:34Z</time>
      </trkpt>
      <trkpt lat="43.040704" lon="-9.281750">
        <ele>52.295</ele>
        <time>2019-06-21T18:29:35Z</time>
      </trkpt>
      <trkpt lat="43.040768" lon="-9.281846">
        <ele>52.142</ele>
        <time>2019-06-21T18:29:36Z</time>
      </trkpt>
      <trkpt lat="43.040842" lon="-9.281946">
        <ele>51.918</ele>
        <time>2019-06-21T18:29:37Z</time>
      </trkpt>
      <trkpt lat="43.040936" lon="-9.282056">
        <ele>51.142</ele>
        <time>2019-06-21T18:29:38Z</time>
      </trkpt>
      <trkpt lat="43.041039" lon="-9.282176">
        <ele>50.044</ele>
        <time>2019-06-21T18:29:39Z</time>
      </trkpt>
      <trkpt lat="43.041152" lon="-9.282278">
        <ele>48.751</ele>
        <time>2019-06-21T18:29:40Z</time>
      </trkpt>
      <trkpt lat="43.041268" lon="-9.282398">
        <ele>47.901</ele>
        <time>2019-06-21T18:29:41Z</time>
      </trkpt>
      <trkpt lat="43.041385" lon="-9.282517">
        <ele>47.011</ele>
        <time>2019-06-21T18:29:42Z</time>
      </trkpt>
      <trkpt lat="43.041507" lon="-9.282654">
        <ele>45.808</ele>
        <time>2019-06-21T18:29:43Z</time>
      </trkpt>
      <trkpt lat="43.041638" lon="-9.282797">
        <ele>44.148</ele>
        <time>2019-06-21T18:29:44Z</time>
      </trkpt>
      <trkpt lat="43.041767" lon="-9.282940">
        <ele>43.072</ele>
        <time>2019-06-21T18:29:45Z</time>
      </trkpt>
      <trkpt lat="43.041884" lon="-9.283081">
        <ele>41.354</ele>
        <time>2019-06-21T18:29:46Z</time>
      </trkpt>
      <trkpt lat="43.042002" lon="-9.283227">
        <ele>40.356</ele>
        <time>2019-06-21T18:29:47Z</time>
      </trkpt>
      <trkpt lat="43.042120" lon="-9.283365">
        <ele>39.233</ele>
        <time>2019-06-21T18:29:48Z</time>
      </trkpt>
      <trkpt lat="43.042236" lon="-9.283505">
        <ele>38.489</ele>
        <time>2019-06-21T18:29:49Z</time>
      </trkpt>
      <trkpt lat="43.042354" lon="-9.283624">
        <ele>37.953</ele>
        <time>2019-06-21T18:29:50Z</time>
      </trkpt>
      <trkpt lat="43.042468" lon="-9.283751">
        <ele>36.935</ele>
        <time>2019-06-21T18:29:51Z</time>
      </trkpt>
      <trkpt lat="43.042586" lon="-9.283889">
        <ele>35.768</ele>
        <time>2019-06-21T18:29:52Z</time>
      </trkpt>
      <trkpt lat="43.042701" lon="-9.284024">
        <ele>34.242</ele>
        <time>2019-06-21T18:29:53Z</time>
      </trkpt>
      <trkpt lat="43.042822" lon="-9.284156">
        <ele>32.926</ele>
        <time>2019-06-21T18:29:54Z</time>
      </trkpt>
      <trkpt lat="43.042950" lon="-9.284277">
        <ele>32.208</ele>
        <time>2019-06-21T18:29:55Z</time>
      </trkpt>
      <trkpt lat="43.043093" lon="-9.284390">
        <ele>31.919</ele>
        <time>2019-06-21T18:29:56Z</time>
      </trkpt>
      <trkpt lat="43.043218" lon="-9.284489">
        <ele>31.273</ele>
        <time>2019-06-21T18:29:57Z</time>
      </trkpt>
      <trkpt lat="43.043350" lon="-9.284562">
        <ele>30.555</ele>
        <time>2019-06-21T18:29:58Z</time>
      </trkpt>
      <trkpt lat="43.043472" lon="-9.284646">
        <ele>29.667</ele>
        <time>2019-06-21T18:29:59Z</time>
      </trkpt>
      <trkpt lat="43.043577" lon="-9.284718">
        <ele>29.134</ele>
        <time>2019-06-21T18:30:00Z</time>
      </trkpt>
      <trkpt lat="43.043682" lon="-9.284790">
        <ele>29.130</ele>
        <time>2019-06-21T18:30:01Z</time>
      </trkpt>
      <trkpt lat="43.043783" lon="-9.284848">
        <ele>29.154</ele>
        <time>2019-06-21T18:30:02Z</time>
      </trkpt>
      <trkpt lat="43.043880" lon="-9.284904">
        <ele>29.346</ele>
        <time>2019-06-21T18:30:03Z</time>
      </trkpt>
      <trkpt lat="43.043979" lon="-9.284964">
        <ele>29.174</ele>
        <time>2019-06-21T18:30:04Z</time>
      </trkpt>
      <trkpt lat="43.044087" lon="-9.285034">
        <ele>28.756</ele>
        <time>2019-06-21T18:30:05Z</time>
      </trkpt>
      <trkpt lat="43.044206" lon="-9.285115">
        <ele>28.321</ele>
        <time>2019-06-21T18:30:06Z</time>
      </trkpt>
      <trkpt lat="43.044323" lon="-9.285199">
        <ele>28.208</ele>
        <time>2019-06-21T18:30:07Z</time>
      </trkpt>
      <trkpt lat="43.044450" lon="-9.285262">
        <ele>27.980</ele>
        <time>2019-06-21T18:30:08Z</time>
      </trkpt>
      <trkpt lat="43.044574" lon="-9.285343">
        <ele>27.494</ele>
        <time>2019-06-21T18:30:09Z</time>
      </trkpt>
      <trkpt lat="43.044701" lon="-9.285422">
        <ele>27.086</ele>
        <time>2019-06-21T18:30:10Z</time>
      </trkpt>
      <trkpt lat="43.044831" lon="-9.285504">
        <ele>26.948</ele>
        <time>2019-06-21T18:30:11Z</time>
      </trkpt>
      <trkpt lat="43.044959" lon="-9.285584">
        <ele>27.045</ele>
        <time>2019-06-21T18:30:12Z</time>
      </trkpt>
      <trkpt lat="43.045090" lon="-9.285664">
        <ele>26.251</ele>
        <time>2019-06-21T18:30:13Z</time>
      </trkpt>
      <trkpt lat="43.045228" lon="-9.285756">
        <ele>24.835</ele>
        <time>2019-06-21T18:30:14Z</time>
      </trkpt>
      <trkpt lat="43.045360" lon="-9.285857">
        <ele>23.487</ele>
        <time>2019-06-21T18:30:15Z</time>
      </trkpt>
      <trkpt lat="43.045492" lon="-9.285960">
        <ele>22.539</ele>
        <time>2019-06-21T18:30:16Z</time>
      </trkpt>
      <trkpt lat="43.045633" lon="-9.286062">
        <ele>21.101</ele>
        <time>2019-06-21T18:30:17Z</time>
      </trkpt>
      <trkpt lat="43.045782" lon="-9.286177">
        <ele>20.021</ele>
        <time>2019-06-21T18:30:18Z</time>
      </trkpt>
      <trkpt lat="43.045932" lon="-9.286302">
        <ele>19.308</ele>
        <time>2019-06-21T18:30:19Z</time>
      </trkpt>
      <trkpt lat="43.046082" lon="-9.286414">
        <ele>18.586</ele>
        <time>2019-06-21T18:30:20Z</time>
      </trkpt>
      <trkpt lat="43.046223" lon="-9.286535">
        <ele>19.360</ele>
        <time>2019-06-21T18:30:21Z</time>
      </trkpt>
      <trkpt lat="43.046356" lon="-9.286663">
        <ele>20.892</ele>
        <time>2019-06-21T18:30:22Z</time>
      </trkpt>
      <trkpt lat="43.046496" lon="-9.286786">
        <ele>20.474</ele>
        <time>2019-06-21T18:30:23Z</time>
      </trkpt>
      <trkpt lat="43.046640" lon="-9.286904">
        <ele>20.041</ele>
        <time>2019-06-21T18:30:24Z</time>
      </trkpt>
      <trkpt lat="43.046787" lon="-9.287021">
        <ele>19.327</ele>
        <time>2019-06-21T18:30:25Z</time>
      </trkpt>
      <trkpt lat="43.046921" lon="-9.287134">
        <ele>18.891</ele>
        <time>2019-06-21T18:30:26Z</time>
      </trkpt>
      <trkpt lat="43.047066" lon="-9.287254">
        <ele>19.163</ele>
        <time>2019-06-21T18:30:27Z</time>
      </trkpt>
      <trkpt lat="43.047219" lon="-9.287368">
        <ele>19.558</ele>
        <time>2019-06-21T18:30:28Z</time>
      </trkpt>
      <trkpt lat="43.047355" lon="-9.287492">
        <ele>20.052</ele>
        <time>2019-06-21T18:30:29Z</time>
      </trkpt>
      <trkpt lat="43.047501" lon="-9.287614">
        <ele>19.617</ele>
        <time>2019-06-21T18:30:30Z</time>
      </trkpt>
      <trkpt lat="43.047642" lon="-9.287740">
        <ele>19.108</ele>
        <time>2019-06-21T18:30:31Z</time>
      </trkpt>
      <trkpt lat="43.047786" lon="-9.287863">
        <ele>19.058</ele>
        <time>2019-06-21T18:30:32Z</time>
      </trkpt>
      <trkpt lat="43.047932" lon="-9.287984">
        <ele>19.662</ele>
        <time>2019-06-21T18:30:33Z</time>
      </trkpt>
      <trkpt lat="43.048075" lon="-9.288117">
        <ele>20.044</ele>
        <time>2019-06-21T18:30:34Z</time>
      </trkpt>
      <trkpt lat="43.048222" lon="-9.288241">
        <ele>20.036</ele>
        <time>2019-06-21T18:30:35Z</time>
      </trkpt>
      <trkpt lat="43.048363" lon="-9.288358">
        <ele>19.873</ele>
        <time>2019-06-21T18:30:36Z</time>
      </trkpt>
      <trkpt lat="43.048511" lon="-9.288464">
        <ele>19.029</ele>
        <time>2019-06-21T18:30:37Z</time>
      </trkpt>
      <trkpt lat="43.048656" lon="-9.288584">
        <ele>18.983</ele>
        <time>2019-06-21T18:30:38Z</time>
      </trkpt>
      <trkpt lat="43.048805" lon="-9.288709">
        <ele>19.265</ele>
        <time>2019-06-21T18:30:39Z</time>
      </trkpt>
      <trkpt lat="43.048947" lon="-9.288835">
        <ele>20.015</ele>
        <time>2019-06-21T18:30:40Z</time>
      </trkpt>
      <trkpt lat="43.049095" lon="-9.288964">
        <ele>20.765</ele>
        <time>2019-06-21T18:30:41Z</time>
      </trkpt>
      <trkpt lat="43.049242" lon="-9.289090">
        <ele>21.311</ele>
        <time>2019-06-21T18:30:42Z</time>
      </trkpt>
      <trkpt lat="43.049390" lon="-9.289216">
        <ele>21.708</ele>
        <time>2019-06-21T18:30:43Z</time>
      </trkpt>
      <trkpt lat="43.049527" lon="-9.289339">
        <ele>21.344</ele>
        <time>2019-06-21T18:30:44Z</time>
      </trkpt>
      <trkpt lat="43.049670" lon="-9.289459">
        <ele>21.088</ele>
        <time>2019-06-21T18:30:45Z</time>
      </trkpt>
      <trkpt lat="43.049810" lon="-9.289577">
        <ele>20.870</ele>
        <time>2019-06-21T18:30:46Z</time>
      </trkpt>
      <trkpt lat="43.049932" lon="-9.289695">
        <ele>20.972</ele>
        <time>2019-06-21T18:30:47Z</time>
      </trkpt>
      <trkpt lat="43.050060" lon="-9.289812">
        <ele>21.129</ele>
        <time>2019-06-21T18:30:48Z</time>
      </trkpt>
      <trkpt lat="43.050185" lon="-9.289923">
        <ele>21.145</ele>
        <time>2019-06-21T18:30:49Z</time>
      </trkpt>
      <trkpt lat="43.050305" lon="-9.290023">
        <ele>21.329</ele>
        <time>2019-06-21T18:30:50Z</time>
      </trkpt>
      <trkpt lat="43.050417" lon="-9.290121">
        <ele>22.671</ele>
        <time>2019-06-21T18:30:51Z</time>
      </trkpt>
      <trkpt lat="43.050517" lon="-9.290208">
        <ele>23.581</ele>
        <time>2019-06-21T18:30:52Z</time>
      </trkpt>
      <trkpt lat="43.050609" lon="-9.290287">
        <ele>24.561</ele>
        <time>2019-06-21T18:30:53Z</time>
      </trkpt>
      <trkpt lat="43.050688" lon="-9.290368">
        <ele>26.317</ele>
        <time>2019-06-21T18:30:54Z</time>
      </trkpt>
      <trkpt lat="43.050757" lon="-9.290472">
        <ele>28.208</ele>
        <time>2019-06-21T18:30:55Z</time>
      </trkpt>
      <trkpt lat="43.050813" lon="-9.290579">
        <ele>30.041</ele>
        <time>2019-06-21T18:30:56Z</time>
      </trkpt>
      <trkpt lat="43.050838" lon="-9.290720">
        <ele>31.295</ele>
        <time>2019-06-21T18:30:57Z</time>
      </trkpt>
      <trkpt lat="43.050848" lon="-9.290861">
        <ele>32.417</ele>
        <time>2019-06-21T18:30:58Z</time>
      </trkpt>
      <trkpt lat="43.050833" lon="-9.291000">
        <ele>33.859</ele>
        <time>2019-06-21T18:30:59Z</time>
      </trkpt>
      <trkpt lat="43.050790" lon="-9.291130">
        <ele>35.116</ele>
        <time>2019-06-21T18:31:00Z</time>
      </trkpt>
      <trkpt lat="43.050723" lon="-9.291249">
        <ele>36.662</ele>
        <time>2019-06-21T18:31:01Z</time>
      </trkpt>
      <trkpt lat="43.050636" lon="-9.291353">
        <ele>37.856</ele>
        <time>2019-06-21T18:31:02Z</time>
      </trkpt>
      <trkpt lat="43.050530" lon="-9.291436">
        <ele>38.668</ele>
        <time>2019-06-21T18:31:03Z</time>
      </trkpt>
      <trkpt lat="43.050414" lon="-9.291532">
        <ele>39.578</ele>
        <time>2019-06-21T18:31:04Z</time>
      </trkpt>
      <trkpt lat="43.050305" lon="-9.291620">
        <ele>39.933</ele>
        <time>2019-06-21T18:31:05Z</time>
      </trkpt>
      <trkpt lat="43.050195" lon="-9.291703">
        <ele>40.926</ele>
        <time>2019-06-21T18:31:06Z</time>
      </trkpt>
      <trkpt lat="43.050083" lon="-9.291791">
        <ele>42.408</ele>
        <time>2019-06-21T18:31:07Z</time>
      </trkpt>
      <trkpt lat="43.049978" lon="-9.291879">
        <ele>43.740</ele>
        <time>2019-06-21T18:31:08Z</time>
      </trkpt>
      <trkpt lat="43.049876" lon="-9.291956">
        <ele>45.044</ele>
        <time>2019-06-21T18:31:09Z</time>
      </trkpt>
      <trkpt lat="43.049767" lon="-9.292023">
        <ele>46.326</ele>
        <time>2019-06-21T18:31:10Z</time>
      </trkpt>
      <trkpt lat="43.049657" lon="-9.292077">
        <ele>46.728</ele>
        <time>2019-06-21T18:31:11Z</time>
      </trkpt>
      <trkpt lat="43.049541" lon="-9.292123">
        <ele>46.485</ele>
        <time>2019-06-21T18:31:12Z</time>
      </trkpt>
      <trkpt lat="43.049421" lon="-9.292163">
        <ele>45.811</ele>
        <time>2019-06-21T18:31:13Z</time>
      </trkpt>
      <trkpt lat="43.049287" lon="-9.292213">
        <ele>44.955</ele>
        <time>2019-06-21T18:31:14Z</time>
      </trkpt>
      <trkpt lat="43.049148" lon="-9.292268">
        <ele>44.267</ele>
        <time>2019-06-21T18:31:15Z</time>
      </trkpt>
      <trkpt lat="43.049002" lon="-9.292317">
        <ele>44.356</ele>
        <time>2019-06-21T18:31:16Z</time>
      </trkpt>
      <trkpt lat="43.048863" lon="-9.292355">
        <ele>44.459</ele>
        <time>2019-06-21T18:31:17Z</time>
      </trkpt>
      <trkpt lat="43.048726" lon="-9.292400">
        <ele>44.114</ele>
        <time>2019-06-21T18:31:18Z</time>
      </trkpt>
      <trkpt lat="43.048595" lon="-9.292447">
        <ele>43.808</ele>
        <time>2019-06-21T18:31:19Z</time>
      </trkpt>
      <trkpt lat="43.048472" lon="-9.292499">
        <ele>43.568</ele>
        <time>2019-06-21T18:31:20Z</time>
      </trkpt>
      <trkpt lat="43.048358" lon="-9.292549">
        <ele>43.352</ele>
        <time>2019-06-21T18:31:21Z</time>
      </trkpt>
      <trkpt lat="43.048256" lon="-9.292612">
        <ele>42.814</ele>
        <time>2019-06-21T18:31:22Z</time>
      </trkpt>
      <trkpt lat="43.048166" lon="-9.292686">
        <ele>42.566</ele>
        <time>2019-06-21T18:31:23Z</time>
      </trkpt>
      <trkpt lat="43.048095" lon="-9.292776">
        <ele>42.373</ele>
        <time>2019-06-21T18:31:24Z</time>
      </trkpt>
      <trkpt lat="43.048049" lon="-9.292895">
        <ele>42.459</ele>
        <time>2019-06-21T18:31:25Z</time>
      </trkpt>
      <trkpt lat="43.048026" lon="-9.293035">
        <ele>42.843</ele>
        <time>2019-06-21T18:31:26Z</time>
      </trkpt>
      <trkpt lat="43.048031" lon="-9.293178">
        <ele>43.725</ele>
        <time>2019-06-21T18:31:27Z</time>
      </trkpt>
      <trkpt lat="43.048064" lon="-9.293317">
        <ele>44.992</ele>
        <time>2019-06-21T18:31:28Z</time>
      </trkpt>
      <trkpt lat="43.048118" lon="-9.293453">
        <ele>45.573</ele>
        <time>2019-06-21T18:31:29Z</time>
      </trkpt>
      <trkpt lat="43.048201" lon="-9.293580">
        <ele>46.520</ele>
        <time>2019-06-21T18:31:30Z</time>
      </trkpt>
      <trkpt lat="43.048283" lon="-9.293703">
        <ele>47.208</ele>
        <time>2019-06-21T18:31:31Z</time>
      </trkpt>
      <trkpt lat="43.048385" lon="-9.293829">
        <ele>47.852</ele>
        <time>2019-06-21T18:31:32Z</time>
      </trkpt>
      <trkpt lat="43.048482" lon="-9.293951">
        <ele>48.446</ele>
        <time>2019-06-21T18:31:33Z</time>
      </trkpt>
      <trkpt lat="43.048585" lon="-9.294077">
        <ele>48.548</ele>
        <time>2019-06-21T18:31:34Z</time>
      </trkpt>
      <trkpt lat="43.048688" lon="-9.294211">
        <ele>49.170</ele>
        <time>2019-06-21T18:31:35Z</time>
      </trkpt>
      <trkpt lat="43.048800" lon="-9.294327">
        <ele>50.337</ele>
        <time>2019-06-21T18:31:36Z</time>
      </trkpt>
      <trkpt lat="43.048920" lon="-9.294436">
        <ele>51.343</ele>
        <time>2019-06-21T18:31:37Z</time>
      </trkpt>
      <trkpt lat="43.049052" lon="-9.294527">
        <ele>51.727</ele>
        <time>2019-06-21T18:31:38Z</time>
      </trkpt>
      <trkpt lat="43.049195" lon="-9.294605">
        <ele>52.099</ele>
        <time>2019-06-21T18:31:39Z</time>
      </trkpt>
      <trkpt lat="43.049340" lon="-9.294690">
        <ele>52.511</ele>
        <time>2019-06-21T18:31:40Z</time>
      </trkpt>
      <trkpt lat="43.049495" lon="-9.294763">
        <ele>53.421</ele>
        <time>2019-06-21T18:31:41Z</time>
      </trkpt>
      <trkpt lat="43.049649" lon="-9.294837">
        <ele>54.503</ele>
        <time>2019-06-21T18:31:42Z</time>
      </trkpt>
      <trkpt lat="43.049794" lon="-9.294904">
        <ele>55.508</ele>
        <time>2019-06-21T18:31:43Z</time>
      </trkpt>
      <trkpt lat="43.049931" lon="-9.294984">
        <ele>56.554</ele>
        <time>2019-06-21T18:31:44Z</time>
      </trkpt>
      <trkpt lat="43.050065" lon="-9.295063">
        <ele>57.698</ele>
        <time>2019-06-21T18:31:45Z</time>
      </trkpt>
      <trkpt lat="43.050202" lon="-9.295137">
        <ele>58.240</ele>
        <time>2019-06-21T18:31:46Z</time>
      </trkpt>
      <trkpt lat="43.050336" lon="-9.295215">
        <ele>58.322</ele>
        <time>2019-06-21T18:31:47Z</time>
      </trkpt>
      <trkpt lat="43.050473" lon="-9.295283">
        <ele>58.069</ele>
        <time>2019-06-21T18:31:48Z</time>
      </trkpt>
      <trkpt lat="43.050607" lon="-9.295371">
        <ele>58.215</ele>
        <time>2019-06-21T18:31:49Z</time>
      </trkpt>
      <trkpt lat="43.050750" lon="-9.295457">
        <ele>58.079</ele>
        <time>2019-06-21T18:31:50Z</time>
      </trkpt>
      <trkpt lat="43.050895" lon="-9.295525">
        <ele>57.181</ele>
        <time>2019-06-21T18:31:51Z</time>
      </trkpt>
      <trkpt lat="43.051041" lon="-9.295614">
        <ele>55.834</ele>
        <time>2019-06-21T18:31:52Z</time>
      </trkpt>
      <trkpt lat="43.051181" lon="-9.295701">
        <ele>54.755</ele>
        <time>2019-06-21T18:31:53Z</time>
      </trkpt>
      <trkpt lat="43.051320" lon="-9.295778">
        <ele>53.610</ele>
        <time>2019-06-21T18:31:54Z</time>
      </trkpt>
      <trkpt lat="43.051446" lon="-9.295867">
        <ele>52.908</ele>
        <time>2019-06-21T18:31:55Z</time>
      </trkpt>
      <trkpt lat="43.051569" lon="-9.295950">
        <ele>52.696</ele>
        <time>2019-06-21T18:31:56Z</time>
      </trkpt>
      <trkpt lat="43.051693" lon="-9.296027">
        <ele>52.420</ele>
        <time>2019-06-21T18:31:57Z</time>
      </trkpt>
      <trkpt lat="43.051817" lon="-9.296093">
        <ele>52.642</ele>
        <time>2019-06-21T18:31:58Z</time>
      </trkpt>
      <trkpt lat="43.051933" lon="-9.296160">
        <ele>53.034</ele>
        <time>2019-06-21T18:31:59Z</time>
      </trkpt>
      <trkpt lat="43.052057" lon="-9.296231">
        <ele>52.831</ele>
        <time>2019-06-21T18:32:00Z</time>
      </trkpt>
      <trkpt lat="43.052180" lon="-9.296300">
        <ele>52.717</ele>
        <time>2019-06-21T18:32:01Z</time>
      </trkpt>
      <trkpt lat="43.052298" lon="-9.296364">
        <ele>52.641</ele>
        <time>2019-06-21T18:32:02Z</time>
      </trkpt>
      <trkpt lat="43.052402" lon="-9.296433">
        <ele>52.613</ele>
        <time>2019-06-21T18:32:03Z</time>
      </trkpt>
      <trkpt lat="43.052499" lon="-9.296502">
        <ele>52.819</ele>
        <time>2019-06-21T18:32:04Z</time>
      </trkpt>
      <trkpt lat="43.052592" lon="-9.296565">
        <ele>53.609</ele>
        <time>2019-06-21T18:32:05Z</time>
      </trkpt>
      <trkpt lat="43.052681" lon="-9.296616">
        <ele>54.319</ele>
        <time>2019-06-21T18:32:06Z</time>
      </trkpt>
      <trkpt lat="43.052755" lon="-9.296677">
        <ele>54.908</ele>
        <time>2019-06-21T18:32:07Z</time>
      </trkpt>
      <trkpt lat="43.052821" lon="-9.296737">
        <ele>55.364</ele>
        <time>2019-06-21T18:32:08Z</time>
      </trkpt>
      <trkpt lat="43.052879" lon="-9.296805">
        <ele>55.678</ele>
        <time>2019-06-21T18:32:09Z</time>
      </trkpt>
      <trkpt lat="43.052932" lon="-9.296872">
        <ele>55.790</ele>
        <time>2019-06-21T18:32:10Z</time>
      </trkpt>
      <trkpt lat="43.052977" lon="-9.296943">
        <ele>55.482</ele>
        <time>2019-06-21T18:32:11Z</time>
      </trkpt>
      <trkpt lat="43.053018" lon="-9.297022">
        <ele>54.769</ele>
        <time>2019-06-21T18:32:12Z</time>
      </trkpt>
      <trkpt lat="43.053059" lon="-9.297105">
        <ele>53.745</ele>
        <time>2019-06-21T18:32:13Z</time>
      </trkpt>
      <trkpt lat="43.053098" lon="-9.297185">
        <ele>52.619</ele>
        <time>2019-06-21T18:32:14Z</time>
      </trkpt>
      <trkpt lat="43.053142" lon="-9.297256">
        <ele>51.841</ele>
        <time>2019-06-21T18:32:15Z</time>
      </trkpt>
      <trkpt lat="43.053183" lon="-9.297332">
        <ele>51.499</ele>
        <time>2019-06-21T18:32:16Z</time>
      </trkpt>
      <trkpt lat="43.053223" lon="-9.297407">
        <ele>50.907</ele>
        <time>2019-06-21T18:32:17Z</time>
      </trkpt>
      <trkpt lat="43.053263" lon="-9.297474">
        <ele>50.427</ele>
        <time>2019-06-21T18:32:18Z</time>
      </trkpt>
      <trkpt lat="43.053297" lon="-9.297538">
        <ele>49.708</ele>
        <time>2019-06-21T18:32:19Z</time>
      </trkpt>
      <trkpt lat="43.053322" lon="-9.297594">
        <ele>49.042</ele>
        <time>2019-06-21T18:32:20Z</time>
      </trkpt>
      <trkpt lat="43.053316" lon="-9.297685">
        <ele>48.196</ele>
        <time>2019-06-21T18:32:22Z</time>
      </trkpt>
      <trkpt lat="43.053284" lon="-9.297732">
        <ele>47.858</ele>
        <time>2019-06-21T18:32:57Z</time>
      </trkpt>
      <trkpt lat="43.053268" lon="-9.297668">
        <ele>48.690</ele>
        <time>2019-06-21T18:33:30Z</time>
      </trkpt>
      <trkpt lat="43.053245" lon="-9.297614">
        <ele>49.237</ele>
        <time>2019-06-21T18:33:48Z</time>
      </trkpt>
      <trkpt lat="43.053257" lon="-9.297681">
        <ele>48.563</ele>
        <time>2019-06-21T18:34:06Z</time>
      </trkpt>
      <trkpt lat="43.053254" lon="-9.297750">
        <ele>47.847</ele>
        <time>2019-06-21T18:34:24Z</time>
      </trkpt>
      <trkpt lat="43.053204" lon="-9.297767">
        <ele>48.039</ele>
        <time>2019-06-21T18:34:28Z</time>
      </trkpt>
      <trkpt lat="43.053204" lon="-9.297830">
        <ele>46.988</ele>
        <time>2019-06-21T18:36:09Z</time>
      </trkpt>
      <trkpt lat="43.053221" lon="-9.297890">
        <ele>45.724</ele>
        <time>2019-06-21T18:36:13Z</time>
      </trkpt>
      <trkpt lat="43.053225" lon="-9.297952">
        <ele>44.526</ele>
        <time>2019-06-21T18:36:17Z</time>
      </trkpt>
      <trkpt lat="43.053238" lon="-9.298023">
        <ele>43.208</ele>
        <time>2019-06-21T18:36:36Z</time>
      </trkpt>
      <trkpt lat="43.053271" lon="-9.298073">
        <ele>42.321</ele>
        <time>2019-06-21T18:36:40Z</time>
      </trkpt>
      <trkpt lat="43.053297" lon="-9.298130">
        <ele>40.745</ele>
        <time>2019-06-21T18:36:45Z</time>
      </trkpt>
      <trkpt lat="43.053323" lon="-9.298185">
        <ele>39.267</ele>
        <time>2019-06-21T18:36:50Z</time>
      </trkpt>
      <trkpt lat="43.053282" lon="-9.298144">
        <ele>40.329</ele>
        <time>2019-06-21T18:37:19Z</time>
      </trkpt>
      <trkpt lat="43.053277" lon="-9.298080">
        <ele>42.116</ele>
        <time>2019-06-21T18:37:23Z</time>
      </trkpt>
      <trkpt lat="43.053252" lon="-9.298020">
        <ele>43.382</ele>
        <time>2019-06-21T18:37:44Z</time>
      </trkpt>
      <trkpt lat="43.053224" lon="-9.297959">
        <ele>44.436</ele>
        <time>2019-06-21T18:37:55Z</time>
      </trkpt>
      <trkpt lat="43.053187" lon="-9.297914">
        <ele>45.318</ele>
        <time>2019-06-21T18:38:17Z</time>
      </trkpt>
      <trkpt lat="43.053200" lon="-9.297840">
        <ele>46.777</ele>
        <time>2019-06-21T18:38:26Z</time>
      </trkpt>
      <trkpt lat="43.053197" lon="-9.297771">
        <ele>48.061</ele>
        <time>2019-06-21T18:38:30Z</time>
      </trkpt>
      <trkpt lat="43.053195" lon="-9.297709">
        <ele>48.627</ele>
        <time>2019-06-21T18:38:34Z</time>
      </trkpt>
      <trkpt lat="43.053235" lon="-9.297757">
        <ele>47.908</ele>
        <time>2019-06-21T18:41:15Z</time>
      </trkpt>
      <trkpt lat="43.053280" lon="-9.297756">
        <ele>47.660</ele>
        <time>2019-06-21T18:45:22Z</time>
      </trkpt>
      <trkpt lat="43.053231" lon="-9.297757">
        <ele>47.974</ele>
        <time>2019-06-21T18:46:42Z</time>
      </trkpt>
      <trkpt lat="43.053190" lon="-9.297703">
        <ele>48.786</ele>
        <time>2019-06-21T18:49:10Z</time>
      </trkpt>
      <trkpt lat="43.053170" lon="-9.297581">
        <ele>49.978</ele>
        <time>2019-06-21T18:49:12Z</time>
      </trkpt>
      <trkpt lat="43.053153" lon="-9.297502">
        <ele>50.635</ele>
        <time>2019-06-21T18:49:13Z</time>
      </trkpt>
      <trkpt lat="43.053119" lon="-9.297409">
        <ele>51.211</ele>
        <time>2019-06-21T18:49:14Z</time>
      </trkpt>
      <trkpt lat="43.053059" lon="-9.297295">
        <ele>51.775</ele>
        <time>2019-06-21T18:49:15Z</time>
      </trkpt>
      <trkpt lat="43.053003" lon="-9.297199">
        <ele>52.577</ele>
        <time>2019-06-21T18:49:16Z</time>
      </trkpt>
      <trkpt lat="43.052945" lon="-9.297087">
        <ele>53.835</ele>
        <time>2019-06-21T18:49:17Z</time>
      </trkpt>
      <trkpt lat="43.052880" lon="-9.296974">
        <ele>54.586</ele>
        <time>2019-06-21T18:49:18Z</time>
      </trkpt>
      <trkpt lat="43.052815" lon="-9.296875">
        <ele>54.614</ele>
        <time>2019-06-21T18:49:19Z</time>
      </trkpt>
      <trkpt lat="43.052724" lon="-9.296787">
        <ele>54.508</ele>
        <time>2019-06-21T18:49:20Z</time>
      </trkpt>
      <trkpt lat="43.052611" lon="-9.296705">
        <ele>54.486</ele>
        <time>2019-06-21T18:49:21Z</time>
      </trkpt>
      <trkpt lat="43.052485" lon="-9.296613">
        <ele>53.620</ele>
        <time>2019-06-21T18:49:22Z</time>
      </trkpt>
      <trkpt lat="43.052353" lon="-9.296528">
        <ele>53.342</ele>
        <time>2019-06-21T18:49:23Z</time>
      </trkpt>
      <trkpt lat="43.052215" lon="-9.296441">
        <ele>53.224</ele>
        <time>2019-06-21T18:49:24Z</time>
      </trkpt>
      <trkpt lat="43.052060" lon="-9.296339">
        <ele>52.931</ele>
        <time>2019-06-21T18:49:25Z</time>
      </trkpt>
      <trkpt lat="43.051892" lon="-9.296236">
        <ele>52.957</ele>
        <time>2019-06-21T18:49:26Z</time>
      </trkpt>
      <trkpt lat="43.051725" lon="-9.296136">
        <ele>52.341</ele>
        <time>2019-06-21T18:49:27Z</time>
      </trkpt>
      <trkpt lat="43.051550" lon="-9.296035">
        <ele>52.373</ele>
        <time>2019-06-21T18:49:28Z</time>
      </trkpt>
      <trkpt lat="43.051390" lon="-9.295931">
        <ele>52.611</ele>
        <time>2019-06-21T18:49:29Z</time>
      </trkpt>
      <trkpt lat="43.051226" lon="-9.295834">
        <ele>53.621</ele>
        <time>2019-06-21T18:49:30Z</time>
      </trkpt>
      <trkpt lat="43.051064" lon="-9.295745">
        <ele>54.803</ele>
        <time>2019-06-21T18:49:31Z</time>
      </trkpt>
      <trkpt lat="43.050922" lon="-9.295660">
        <ele>55.908</ele>
        <time>2019-06-21T18:49:32Z</time>
      </trkpt>
      <trkpt lat="43.050771" lon="-9.295567">
        <ele>57.244</ele>
        <time>2019-06-21T18:49:33Z</time>
      </trkpt>
      <trkpt lat="43.050641" lon="-9.295486">
        <ele>57.928</ele>
        <time>2019-06-21T18:49:34Z</time>
      </trkpt>
      <trkpt lat="43.050514" lon="-9.295394">
        <ele>58.090</ele>
        <time>2019-06-21T18:49:35Z</time>
      </trkpt>
      <trkpt lat="43.050387" lon="-9.295319">
        <ele>58.062</ele>
        <time>2019-06-21T18:49:36Z</time>
      </trkpt>
      <trkpt lat="43.050265" lon="-9.295246">
        <ele>58.169</ele>
        <time>2019-06-21T18:49:37Z</time>
      </trkpt>
      <trkpt lat="43.050153" lon="-9.295182">
        <ele>58.035</ele>
        <time>2019-06-21T18:49:38Z</time>
      </trkpt>
      <trkpt lat="43.050044" lon="-9.295122">
        <ele>57.669</ele>
        <time>2019-06-21T18:49:39Z</time>
      </trkpt>
      <trkpt lat="43.049913" lon="-9.295049">
        <ele>56.681</ele>
        <time>2019-06-21T18:49:40Z</time>
      </trkpt>
      <trkpt lat="43.049789" lon="-9.294976">
        <ele>55.542</ele>
        <time>2019-06-21T18:49:41Z</time>
      </trkpt>
      <trkpt lat="43.049655" lon="-9.294903">
        <ele>54.522</ele>
        <time>2019-06-21T18:49:42Z</time>
      </trkpt>
      <trkpt lat="43.049514" lon="-9.294824">
        <ele>53.514</ele>
        <time>2019-06-21T18:49:43Z</time>
      </trkpt>
      <trkpt lat="43.049381" lon="-9.294740">
        <ele>52.508</ele>
        <time>2019-06-21T18:49:44Z</time>
      </trkpt>
      <trkpt lat="43.049247" lon="-9.294665">
        <ele>52.097</ele>
        <time>2019-06-21T18:49:45Z</time>
      </trkpt>
      <trkpt lat="43.049122" lon="-9.294580">
        <ele>51.851</ele>
        <time>2019-06-21T18:49:46Z</time>
      </trkpt>
      <trkpt lat="43.049005" lon="-9.294502">
        <ele>51.563</ele>
        <time>2019-06-21T18:49:47Z</time>
      </trkpt>
      <trkpt lat="43.048888" lon="-9.294408">
        <ele>51.155</ele>
        <time>2019-06-21T18:49:48Z</time>
      </trkpt>
      <trkpt lat="43.048777" lon="-9.294288">
        <ele>50.182</ele>
        <time>2019-06-21T18:49:49Z</time>
      </trkpt>
      <trkpt lat="43.048663" lon="-9.294154">
        <ele>48.838</ele>
        <time>2019-06-21T18:49:50Z</time>
      </trkpt>
      <trkpt lat="43.048539" lon="-9.294015">
        <ele>48.572</ele>
        <time>2019-06-21T18:49:51Z</time>
      </trkpt>
      <trkpt lat="43.048432" lon="-9.293878">
        <ele>48.154</ele>
        <time>2019-06-21T18:49:52Z</time>
      </trkpt>
      <trkpt lat="43.048321" lon="-9.293747">
        <ele>47.485</ele>
        <time>2019-06-21T18:49:53Z</time>
      </trkpt>
      <trkpt lat="43.048214" lon="-9.293615">
        <ele>46.789</ele>
        <time>2019-06-21T18:49:54Z</time>
      </trkpt>
      <trkpt lat="43.048123" lon="-9.293482">
        <ele>45.617</ele>
        <time>2019-06-21T18:49:55Z</time>
      </trkpt>
      <trkpt lat="43.048048" lon="-9.293346">
        <ele>44.908</ele>
        <time>2019-06-21T18:49:56Z</time>
      </trkpt>
      <trkpt lat="43.048003" lon="-9.293216">
        <ele>43.711</ele>
        <time>2019-06-21T18:49:57Z</time>
      </trkpt>
      <trkpt lat="43.047976" lon="-9.293089">
        <ele>42.975</ele>
        <time>2019-06-21T18:49:58Z</time>
      </trkpt>
      <trkpt lat="43.047975" lon="-9.292960">
        <ele>42.337</ele>
        <time>2019-06-21T18:49:59Z</time>
      </trkpt>
      <trkpt lat="43.047991" lon="-9.292843">
        <ele>41.839</ele>
        <time>2019-06-21T18:50:00Z</time>
      </trkpt>
      <trkpt lat="43.048034" lon="-9.292752">
        <ele>41.816</ele>
        <time>2019-06-21T18:50:01Z</time>
      </trkpt>
      <trkpt lat="43.048087" lon="-9.292664">
        <ele>41.892</ele>
        <time>2019-06-21T18:50:02Z</time>
      </trkpt>
      <trkpt lat="43.048160" lon="-9.292594">
        <ele>42.156</ele>
        <time>2019-06-21T18:50:03Z</time>
      </trkpt>
      <trkpt lat="43.048252" lon="-9.292539">
        <ele>42.628</ele>
        <time>2019-06-21T18:50:04Z</time>
      </trkpt>
      <trkpt lat="43.048356" lon="-9.292484">
        <ele>43.171</ele>
        <time>2019-06-21T18:50:05Z</time>
      </trkpt>
      <trkpt lat="43.048479" lon="-9.292443">
        <ele>43.441</ele>
        <time>2019-06-21T18:50:06Z</time>
      </trkpt>
      <trkpt lat="43.048616" lon="-9.292400">
        <ele>43.715</ele>
        <time>2019-06-21T18:50:07Z</time>
      </trkpt>
      <trkpt lat="43.048754" lon="-9.292346">
        <ele>44.008</ele>
        <time>2019-06-21T18:50:08Z</time>
      </trkpt>
      <trkpt lat="43.048895" lon="-9.292300">
        <ele>44.370</ele>
        <time>2019-06-21T18:50:09Z</time>
      </trkpt>
      <trkpt lat="43.049026" lon="-9.292249">
        <ele>44.124</ele>
        <time>2019-06-21T18:50:10Z</time>
      </trkpt>
      <trkpt lat="43.049162" lon="-9.292181">
        <ele>44.136</ele>
        <time>2019-06-21T18:50:11Z</time>
      </trkpt>
      <trkpt lat="43.049288" lon="-9.292132">
        <ele>45.128</ele>
        <time>2019-06-21T18:50:12Z</time>
      </trkpt>
      <trkpt lat="43.049402" lon="-9.292088">
        <ele>45.845</ele>
        <time>2019-06-21T18:50:13Z</time>
      </trkpt>
      <trkpt lat="43.049515" lon="-9.292043">
        <ele>46.221</ele>
        <time>2019-06-21T18:50:14Z</time>
      </trkpt>
      <trkpt lat="43.049621" lon="-9.292000">
        <ele>46.315</ele>
        <time>2019-06-21T18:50:15Z</time>
      </trkpt>
      <trkpt lat="43.049725" lon="-9.291949">
        <ele>46.077</ele>
        <time>2019-06-21T18:50:16Z</time>
      </trkpt>
      <trkpt lat="43.049833" lon="-9.291883">
        <ele>44.931</ele>
        <time>2019-06-21T18:50:17Z</time>
      </trkpt>
      <trkpt lat="43.049938" lon="-9.291818">
        <ele>43.661</ele>
        <time>2019-06-21T18:50:18Z</time>
      </trkpt>
      <trkpt lat="43.050028" lon="-9.291749">
        <ele>42.407</ele>
        <time>2019-06-21T18:50:19Z</time>
      </trkpt>
      <trkpt lat="43.050131" lon="-9.291673">
        <ele>41.108</ele>
        <time>2019-06-21T18:50:20Z</time>
      </trkpt>
      <trkpt lat="43.050231" lon="-9.291597">
        <ele>40.186</ele>
        <time>2019-06-21T18:50:21Z</time>
      </trkpt>
      <trkpt lat="43.050322" lon="-9.291526">
        <ele>39.570</ele>
        <time>2019-06-21T18:50:22Z</time>
      </trkpt>
      <trkpt lat="43.050418" lon="-9.291469">
        <ele>39.172</ele>
        <time>2019-06-21T18:50:23Z</time>
      </trkpt>
      <trkpt lat="43.050511" lon="-9.291398">
        <ele>38.234</ele>
        <time>2019-06-21T18:50:24Z</time>
      </trkpt>
      <trkpt lat="43.050602" lon="-9.291323">
        <ele>37.241</ele>
        <time>2019-06-21T18:50:25Z</time>
      </trkpt>
      <trkpt lat="43.050678" lon="-9.291230">
        <ele>36.297</ele>
        <time>2019-06-21T18:50:26Z</time>
      </trkpt>
      <trkpt lat="43.050742" lon="-9.291129">
        <ele>34.941</ele>
        <time>2019-06-21T18:50:27Z</time>
      </trkpt>
      <trkpt lat="43.050790" lon="-9.291016">
        <ele>33.833</ele>
        <time>2019-06-21T18:50:28Z</time>
      </trkpt>
      <trkpt lat="43.050816" lon="-9.290907">
        <ele>32.789</ele>
        <time>2019-06-21T18:50:29Z</time>
      </trkpt>
      <trkpt lat="43.050815" lon="-9.290780">
        <ele>31.506</ele>
        <time>2019-06-21T18:50:30Z</time>
      </trkpt>
      <trkpt lat="43.050797" lon="-9.290655">
        <ele>30.526</ele>
        <time>2019-06-21T18:50:31Z</time>
      </trkpt>
      <trkpt lat="43.050760" lon="-9.290519">
        <ele>28.908</ele>
        <time>2019-06-21T18:50:32Z</time>
      </trkpt>
      <trkpt lat="43.050712" lon="-9.290393">
        <ele>26.881</ele>
        <time>2019-06-21T18:50:33Z</time>
      </trkpt>
      <trkpt lat="43.050614" lon="-9.290287">
        <ele>24.645</ele>
        <time>2019-06-21T18:50:34Z</time>
      </trkpt>
      <trkpt lat="43.050504" lon="-9.290176">
        <ele>23.257</ele>
        <time>2019-06-21T18:50:35Z</time>
      </trkpt>
      <trkpt lat="43.050380" lon="-9.290072">
        <ele>22.199</ele>
        <time>2019-06-21T18:50:36Z</time>
      </trkpt>
      <trkpt lat="43.050234" lon="-9.289958">
        <ele>21.056</ele>
        <time>2019-06-21T18:50:37Z</time>
      </trkpt>
      <trkpt lat="43.050083" lon="-9.289837">
        <ele>21.112</ele>
        <time>2019-06-21T18:50:38Z</time>
      </trkpt>
      <trkpt lat="43.049917" lon="-9.289709">
        <ele>21.086</ele>
        <time>2019-06-21T18:50:39Z</time>
      </trkpt>
      <trkpt lat="43.049753" lon="-9.289570">
        <ele>20.928</ele>
        <time>2019-06-21T18:50:40Z</time>
      </trkpt>
      <trkpt lat="43.049578" lon="-9.289432">
        <ele>21.088</ele>
        <time>2019-06-21T18:50:41Z</time>
      </trkpt>
      <trkpt lat="43.049407" lon="-9.289271">
        <ele>21.524</ele>
        <time>2019-06-21T18:50:42Z</time>
      </trkpt>
      <trkpt lat="43.049226" lon="-9.289116">
        <ele>21.226</ele>
        <time>2019-06-21T18:50:43Z</time>
      </trkpt>
      <trkpt lat="43.049047" lon="-9.288955">
        <ele>20.608</ele>
        <time>2019-06-21T18:50:44Z</time>
      </trkpt>
      <trkpt lat="43.048863" lon="-9.288799">
        <ele>19.691</ele>
        <time>2019-06-21T18:50:45Z</time>
      </trkpt>
      <trkpt lat="43.048686" lon="-9.288654">
        <ele>19.095</ele>
        <time>2019-06-21T18:50:46Z</time>
      </trkpt>
      <trkpt lat="43.048498" lon="-9.288497">
        <ele>19.277</ele>
        <time>2019-06-21T18:50:47Z</time>
      </trkpt>
      <trkpt lat="43.048314" lon="-9.288339">
        <ele>20.019</ele>
        <time>2019-06-21T18:50:48Z</time>
      </trkpt>
      <trkpt lat="43.048120" lon="-9.288175">
        <ele>20.096</ele>
        <time>2019-06-21T18:50:49Z</time>
      </trkpt>
      <trkpt lat="43.047937" lon="-9.288011">
        <ele>19.652</ele>
        <time>2019-06-21T18:50:50Z</time>
      </trkpt>
      <trkpt lat="43.047737" lon="-9.287853">
        <ele>19.046</ele>
        <time>2019-06-21T18:50:51Z</time>
      </trkpt>
      <trkpt lat="43.047552" lon="-9.287684">
        <ele>19.318</ele>
        <time>2019-06-21T18:50:52Z</time>
      </trkpt>
      <trkpt lat="43.047356" lon="-9.287523">
        <ele>19.996</ele>
        <time>2019-06-21T18:50:53Z</time>
      </trkpt>
      <trkpt lat="43.047163" lon="-9.287351">
        <ele>19.431</ele>
        <time>2019-06-21T18:50:54Z</time>
      </trkpt>
      <trkpt lat="43.046970" lon="-9.287191">
        <ele>18.924</ele>
        <time>2019-06-21T18:50:55Z</time>
      </trkpt>
      <trkpt lat="43.046786" lon="-9.287032">
        <ele>19.308</ele>
        <time>2019-06-21T18:50:56Z</time>
      </trkpt>
      <trkpt lat="43.046606" lon="-9.286877">
        <ele>20.092</ele>
        <time>2019-06-21T18:50:57Z</time>
      </trkpt>
      <trkpt lat="43.046420" lon="-9.286713">
        <ele>20.896</ele>
        <time>2019-06-21T18:50:58Z</time>
      </trkpt>
      <trkpt lat="43.046236" lon="-9.286565">
        <ele>19.698</ele>
        <time>2019-06-21T18:50:59Z</time>
      </trkpt>
      <trkpt lat="43.046053" lon="-9.286416">
        <ele>18.810</ele>
        <time>2019-06-21T18:51:00Z</time>
      </trkpt>
      <trkpt lat="43.045879" lon="-9.286268">
        <ele>19.677</ele>
        <time>2019-06-21T18:51:01Z</time>
      </trkpt>
      <trkpt lat="43.045716" lon="-9.286140">
        <ele>20.483</ele>
        <time>2019-06-21T18:51:02Z</time>
      </trkpt>
      <trkpt lat="43.045563" lon="-9.286009">
        <ele>21.947</ele>
        <time>2019-06-21T18:51:03Z</time>
      </trkpt>
      <trkpt lat="43.045403" lon="-9.285895">
        <ele>23.119</ele>
        <time>2019-06-21T18:51:04Z</time>
      </trkpt>
      <trkpt lat="43.045249" lon="-9.285799">
        <ele>24.436</ele>
        <time>2019-06-21T18:51:05Z</time>
      </trkpt>
      <trkpt lat="43.045082" lon="-9.285691">
        <ele>26.317</ele>
        <time>2019-06-21T18:51:06Z</time>
      </trkpt>
      <trkpt lat="43.044911" lon="-9.285577">
        <ele>27.018</ele>
        <time>2019-06-21T18:51:07Z</time>
      </trkpt>
      <trkpt lat="43.044741" lon="-9.285472">
        <ele>27.008</ele>
        <time>2019-06-21T18:51:08Z</time>
      </trkpt>
      <trkpt lat="43.044571" lon="-9.285362">
        <ele>27.496</ele>
        <time>2019-06-21T18:51:09Z</time>
      </trkpt>
      <trkpt lat="43.044405" lon="-9.285254">
        <ele>28.190</ele>
        <time>2019-06-21T18:51:10Z</time>
      </trkpt>
      <trkpt lat="43.044238" lon="-9.285144">
        <ele>28.382</ele>
        <time>2019-06-21T18:51:11Z</time>
      </trkpt>
      <trkpt lat="43.044075" lon="-9.285048">
        <ele>28.894</ele>
        <time>2019-06-21T18:51:12Z</time>
      </trkpt>
      <trkpt lat="43.043930" lon="-9.284948">
        <ele>29.471</ele>
        <time>2019-06-21T18:51:13Z</time>
      </trkpt>
      <trkpt lat="43.043773" lon="-9.284848">
        <ele>29.197</ele>
        <time>2019-06-21T18:51:14Z</time>
      </trkpt>
      <trkpt lat="43.043623" lon="-9.284748">
        <ele>29.171</ele>
        <time>2019-06-21T18:51:15Z</time>
      </trkpt>
      <trkpt lat="43.043486" lon="-9.284660">
        <ele>29.683</ele>
        <time>2019-06-21T18:51:16Z</time>
      </trkpt>
      <trkpt lat="43.043356" lon="-9.284571">
        <ele>30.461</ele>
        <time>2019-06-21T18:51:17Z</time>
      </trkpt>
      <trkpt lat="43.043234" lon="-9.284485">
        <ele>31.221</ele>
        <time>2019-06-21T18:51:18Z</time>
      </trkpt>
      <trkpt lat="43.043101" lon="-9.284406">
        <ele>31.813</ele>
        <time>2019-06-21T18:51:19Z</time>
      </trkpt>
      <trkpt lat="43.042975" lon="-9.284309">
        <ele>32.108</ele>
        <time>2019-06-21T18:51:20Z</time>
      </trkpt>
      <trkpt lat="43.042861" lon="-9.284207">
        <ele>32.639</ele>
        <time>2019-06-21T18:51:21Z</time>
      </trkpt>
      <trkpt lat="43.042756" lon="-9.284102">
        <ele>33.513</ele>
        <time>2019-06-21T18:51:22Z</time>
      </trkpt>
      <trkpt lat="43.042665" lon="-9.284001">
        <ele>34.425</ele>
        <time>2019-06-21T18:51:23Z</time>
      </trkpt>
      <trkpt lat="43.042584" lon="-9.283903">
        <ele>35.667</ele>
        <time>2019-06-21T18:51:24Z</time>
      </trkpt>
      <trkpt lat="43.042511" lon="-9.283813">
        <ele>36.564</ele>
        <time>2019-06-21T18:51:25Z</time>
      </trkpt>
      <trkpt lat="43.042427" lon="-9.283727">
        <ele>37.140</ele>
        <time>2019-06-21T18:51:26Z</time>
      </trkpt>
      <trkpt lat="43.042353" lon="-9.283648">
        <ele>37.744</ele>
        <time>2019-06-21T18:51:27Z</time>
      </trkpt>
      <trkpt lat="43.042268" lon="-9.283559">
        <ele>38.256</ele>
        <time>2019-06-21T18:51:28Z</time>
      </trkpt>
      <trkpt lat="43.042184" lon="-9.283476">
        <ele>38.666</ele>
        <time>2019-06-21T18:51:29Z</time>
      </trkpt>
      <trkpt lat="43.042094" lon="-9.283376">
        <ele>39.229</ele>
        <time>2019-06-21T18:51:30Z</time>
      </trkpt>
      <trkpt lat="43.042002" lon="-9.283275">
        <ele>40.021</ele>
        <time>2019-06-21T18:51:31Z</time>
      </trkpt>
      <trkpt lat="43.041904" lon="-9.283166">
        <ele>40.808</ele>
        <time>2019-06-21T18:51:32Z</time>
      </trkpt>
      <trkpt lat="43.041808" lon="-9.283065">
        <ele>41.999</ele>
        <time>2019-06-21T18:51:33Z</time>
      </trkpt>
      <trkpt lat="43.041696" lon="-9.282955">
        <ele>43.263</ele>
        <time>2019-06-21T18:51:34Z</time>
      </trkpt>
      <trkpt lat="43.041579" lon="-9.282830">
        <ele>44.425</ele>
        <time>2019-06-21T18:51:35Z</time>
      </trkpt>
      <trkpt lat="43.041464" lon="-9.282699">
        <ele>45.857</ele>
        <time>2019-06-21T18:51:36Z</time>
      </trkpt>
      <trkpt lat="43.041339" lon="-9.282564">
        <ele>47.174</ele>
        <time>2019-06-21T18:51:37Z</time>
      </trkpt>
      <trkpt lat="43.041221" lon="-9.282422">
        <ele>48.290</ele>
        <time>2019-06-21T18:51:38Z</time>
      </trkpt>
      <trkpt lat="43.041103" lon="-9.282294">
        <ele>49.134</ele>
        <time>2019-06-21T18:51:39Z</time>
      </trkpt>
      <trkpt lat="43.041001" lon="-9.282176">
        <ele>50.536</ele>
        <time>2019-06-21T18:51:40Z</time>
      </trkpt>
      <trkpt lat="43.040914" lon="-9.282073">
        <ele>51.574</ele>
        <time>2019-06-21T18:51:41Z</time>
      </trkpt>
      <trkpt lat="43.040835" lon="-9.281956">
        <ele>52.056</ele>
        <time>2019-06-21T18:51:42Z</time>
      </trkpt>
      <trkpt lat="43.040770" lon="-9.281825">
        <ele>52.021</ele>
        <time>2019-06-21T18:51:43Z</time>
      </trkpt>
      <trkpt lat="43.040709" lon="-9.281676">
        <ele>51.908</ele>
        <time>2019-06-21T18:51:44Z</time>
      </trkpt>
      <trkpt lat="43.040650" lon="-9.281500">
        <ele>52.590</ele>
        <time>2019-06-21T18:51:45Z</time>
      </trkpt>
      <trkpt lat="43.040592" lon="-9.281318">
        <ele>53.124</ele>
        <time>2019-06-21T18:51:46Z</time>
      </trkpt>
      <trkpt lat="43.040536" lon="-9.281125">
        <ele>54.286</ele>
        <time>2019-06-21T18:51:47Z</time>
      </trkpt>
      <trkpt lat="43.040486" lon="-9.280933">
        <ele>55.448</ele>
        <time>2019-06-21T18:51:48Z</time>
      </trkpt>
      <trkpt lat="43.040431" lon="-9.280731">
        <ele>56.735</ele>
        <time>2019-06-21T18:51:49Z</time>
      </trkpt>
      <trkpt lat="43.040377" lon="-9.280527">
        <ele>58.061</ele>
        <time>2019-06-21T18:51:50Z</time>
      </trkpt>
      <trkpt lat="43.040314" lon="-9.280321">
        <ele>59.345</ele>
        <time>2019-06-21T18:51:51Z</time>
      </trkpt>
      <trkpt lat="43.040253" lon="-9.280128">
        <ele>61.457</ele>
        <time>2019-06-21T18:51:52Z</time>
      </trkpt>
      <trkpt lat="43.040196" lon="-9.279935">
        <ele>63.664</ele>
        <time>2019-06-21T18:51:53Z</time>
      </trkpt>
      <trkpt lat="43.040141" lon="-9.279753">
        <ele>65.306</ele>
        <time>2019-06-21T18:51:54Z</time>
      </trkpt>
      <trkpt lat="43.040087" lon="-9.279583">
        <ele>66.616</ele>
        <time>2019-06-21T18:51:55Z</time>
      </trkpt>
      <trkpt lat="43.040027" lon="-9.279394">
        <ele>67.708</ele>
        <time>2019-06-21T18:51:56Z</time>
      </trkpt>
      <trkpt lat="43.039974" lon="-9.279205">
        <ele>68.359</ele>
        <time>2019-06-21T18:51:57Z</time>
      </trkpt>
      <trkpt lat="43.039921" lon="-9.279008">
        <ele>68.493</ele>
        <time>2019-06-21T18:51:58Z</time>
      </trkpt>
      <trkpt lat="43.039863" lon="-9.278805">
        <ele>68.485</ele>
        <time>2019-06-21T18:51:59Z</time>
      </trkpt>
      <trkpt lat="43.039805" lon="-9.278595">
        <ele>67.727</ele>
        <time>2019-06-21T18:52:00Z</time>
      </trkpt>
      <trkpt lat="43.039742" lon="-9.278380">
        <ele>66.354</ele>
        <time>2019-06-21T18:52:01Z</time>
      </trkpt>
      <trkpt lat="43.039681" lon="-9.278154">
        <ele>65.080</ele>
        <time>2019-06-21T18:52:02Z</time>
      </trkpt>
      <trkpt lat="43.039632" lon="-9.277938">
        <ele>63.864</ele>
        <time>2019-06-21T18:52:03Z</time>
      </trkpt>
      <trkpt lat="43.039563" lon="-9.277727">
        <ele>63.336</ele>
        <time>2019-06-21T18:52:04Z</time>
      </trkpt>
      <trkpt lat="43.039500" lon="-9.277528">
        <ele>64.538</ele>
        <time>2019-06-21T18:52:05Z</time>
      </trkpt>
      <trkpt lat="43.039443" lon="-9.277338">
        <ele>65.670</ele>
        <time>2019-06-21T18:52:06Z</time>
      </trkpt>
      <trkpt lat="43.039387" lon="-9.277157">
        <ele>66.817</ele>
        <time>2019-06-21T18:52:07Z</time>
      </trkpt>
      <trkpt lat="43.039336" lon="-9.276980">
        <ele>67.708</ele>
        <time>2019-06-21T18:52:08Z</time>
      </trkpt>
      <trkpt lat="43.039280" lon="-9.276788">
        <ele>67.696</ele>
        <time>2019-06-21T18:52:09Z</time>
      </trkpt>
      <trkpt lat="43.039224" lon="-9.276591">
        <ele>67.350</ele>
        <time>2019-06-21T18:52:10Z</time>
      </trkpt>
      <trkpt lat="43.039159" lon="-9.276380">
        <ele>67.062</ele>
        <time>2019-06-21T18:52:11Z</time>
      </trkpt>
      <trkpt lat="43.039095" lon="-9.276170">
        <ele>66.714</ele>
        <time>2019-06-21T18:52:12Z</time>
      </trkpt>
      <trkpt lat="43.039029" lon="-9.275950">
        <ele>67.031</ele>
        <time>2019-06-21T18:52:13Z</time>
      </trkpt>
      <trkpt lat="43.038959" lon="-9.275744">
        <ele>67.787</ele>
        <time>2019-06-21T18:52:14Z</time>
      </trkpt>
      <trkpt lat="43.038892" lon="-9.275533">
        <ele>69.131</ele>
        <time>2019-06-21T18:52:15Z</time>
      </trkpt>
      <trkpt lat="43.038827" lon="-9.275314">
        <ele>71.663</ele>
        <time>2019-06-21T18:52:16Z</time>
      </trkpt>
      <trkpt lat="43.038764" lon="-9.275103">
        <ele>73.831</ele>
        <time>2019-06-21T18:52:17Z</time>
      </trkpt>
      <trkpt lat="43.038700" lon="-9.274887">
        <ele>75.261</ele>
        <time>2019-06-21T18:52:18Z</time>
      </trkpt>
      <trkpt lat="43.038642" lon="-9.274680">
        <ele>76.207</ele>
        <time>2019-06-21T18:52:19Z</time>
      </trkpt>
      <trkpt lat="43.038583" lon="-9.274486">
        <ele>77.008</ele>
        <time>2019-06-21T18:52:20Z</time>
      </trkpt>
      <trkpt lat="43.038528" lon="-9.274290">
        <ele>78.666</ele>
        <time>2019-06-21T18:52:21Z</time>
      </trkpt>
      <trkpt lat="43.038480" lon="-9.274109">
        <ele>80.360</ele>
        <time>2019-06-21T18:52:22Z</time>
      </trkpt>
      <trkpt lat="43.038427" lon="-9.273931">
        <ele>81.572</ele>
        <time>2019-06-21T18:52:23Z</time>
      </trkpt>
      <trkpt lat="43.038383" lon="-9.273781">
        <ele>83.084</ele>
        <time>2019-06-21T18:52:24Z</time>
      </trkpt>
      <trkpt lat="43.038349" lon="-9.273661">
        <ele>84.431</ele>
        <time>2019-06-21T18:52:25Z</time>
      </trkpt>
      <trkpt lat="43.038328" lon="-9.273576">
        <ele>85.617</ele>
        <time>2019-06-21T18:52:26Z</time>
      </trkpt>
      <trkpt lat="43.038313" lon="-9.273514">
        <ele>86.851</ele>
        <time>2019-06-21T18:52:27Z</time>
      </trkpt>
      <trkpt lat="43.038303" lon="-9.273439">
        <ele>88.063</ele>
        <time>2019-06-21T18:52:29Z</time>
      </trkpt>
      <trkpt lat="43.038343" lon="-9.273339">
        <ele>88.923</ele>
        <time>2019-06-21T18:52:31Z</time>
      </trkpt>
      <trkpt lat="43.038393" lon="-9.273268">
        <ele>89.783</ele>
        <time>2019-06-21T18:52:32Z</time>
      </trkpt>
      <trkpt lat="43.038458" lon="-9.273194">
        <ele>90.611</ele>
        <time>2019-06-21T18:52:33Z</time>
      </trkpt>
      <trkpt lat="43.038541" lon="-9.273116">
        <ele>91.408</ele>
        <time>2019-06-21T18:52:34Z</time>
      </trkpt>
      <trkpt lat="43.038631" lon="-9.273060">
        <ele>92.155</ele>
        <time>2019-06-21T18:52:35Z</time>
      </trkpt>
      <trkpt lat="43.038718" lon="-9.272985">
        <ele>93.919</ele>
        <time>2019-06-21T18:52:36Z</time>
      </trkpt>
      <trkpt lat="43.038808" lon="-9.272899">
        <ele>95.821</ele>
        <time>2019-06-21T18:52:37Z</time>
      </trkpt>
      <trkpt lat="43.038884" lon="-9.272822">
        <ele>97.363</ele>
        <time>2019-06-21T18:52:38Z</time>
      </trkpt>
      <trkpt lat="43.038950" lon="-9.272740">
        <ele>97.940</ele>
        <time>2019-06-21T18:52:39Z</time>
      </trkpt>
      <trkpt lat="43.039014" lon="-9.272659">
        <ele>98.266</ele>
        <time>2019-06-21T18:52:40Z</time>
      </trkpt>
      <trkpt lat="43.039061" lon="-9.272551">
        <ele>98.770</ele>
        <time>2019-06-21T18:52:41Z</time>
      </trkpt>
      <trkpt lat="43.039115" lon="-9.272430">
        <ele>99.122</ele>
        <time>2019-06-21T18:52:42Z</time>
      </trkpt>
      <trkpt lat="43.039172" lon="-9.272278">
        <ele>99.598</ele>
        <time>2019-06-21T18:52:43Z</time>
      </trkpt>
      <trkpt lat="43.039227" lon="-9.272129">
        <ele>100.015</ele>
        <time>2019-06-21T18:52:44Z</time>
      </trkpt>
      <trkpt lat="43.039276" lon="-9.271971">
        <ele>100.626</ele>
        <time>2019-06-21T18:52:45Z</time>
      </trkpt>
      <trkpt lat="43.039322" lon="-9.271806">
        <ele>101.308</ele>
        <time>2019-06-21T18:52:46Z</time>
      </trkpt>
      <trkpt lat="43.039372" lon="-9.271639">
        <ele>101.632</ele>
        <time>2019-06-21T18:52:47Z</time>
      </trkpt>
      <trkpt lat="43.039420" lon="-9.271466">
        <ele>102.596</ele>
        <time>2019-06-21T18:52:48Z</time>
      </trkpt>
      <trkpt lat="43.039468" lon="-9.271290">
        <ele>103.438</ele>
        <time>2019-06-21T18:52:49Z</time>
      </trkpt>
      <trkpt lat="43.039517" lon="-9.271113">
        <ele>103.940</ele>
        <time>2019-06-21T18:52:50Z</time>
      </trkpt>
      <trkpt lat="43.039568" lon="-9.270940">
        <ele>104.527</ele>
        <time>2019-06-21T18:52:51Z</time>
      </trkpt>
      <trkpt lat="43.039619" lon="-9.270751">
        <ele>104.833</ele>
        <time>2019-06-21T18:52:52Z</time>
      </trkpt>
      <trkpt lat="43.039670" lon="-9.270553">
        <ele>104.867</ele>
        <time>2019-06-21T18:52:53Z</time>
      </trkpt>
      <trkpt lat="43.039718" lon="-9.270356">
        <ele>104.889</ele>
        <time>2019-06-21T18:52:54Z</time>
      </trkpt>
      <trkpt lat="43.039750" lon="-9.270149">
        <ele>106.074</ele>
        <time>2019-06-21T18:52:55Z</time>
      </trkpt>
      <trkpt lat="43.039776" lon="-9.269931">
        <ele>108.256</ele>
        <time>2019-06-21T18:52:56Z</time>
      </trkpt>
      <trkpt lat="43.039798" lon="-9.269713">
        <ele>110.521</ele>
        <time>2019-06-21T18:52:57Z</time>
      </trkpt>
      <trkpt lat="43.039821" lon="-9.269494">
        <ele>111.708</ele>
        <time>2019-06-21T18:52:58Z</time>
      </trkpt>
      <trkpt lat="43.039840" lon="-9.269285">
        <ele>113.190</ele>
        <time>2019-06-21T18:52:59Z</time>
      </trkpt>
      <trkpt lat="43.039860" lon="-9.269080">
        <ele>114.634</ele>
        <time>2019-06-21T18:53:00Z</time>
      </trkpt>
      <trkpt lat="43.039881" lon="-9.268884">
        <ele>115.986</ele>
        <time>2019-06-21T18:53:01Z</time>
      </trkpt>
      <trkpt lat="43.039907" lon="-9.268699">
        <ele>115.768</ele>
        <time>2019-06-21T18:53:02Z</time>
      </trkpt>
      <trkpt lat="43.039934" lon="-9.268516">
        <ele>115.865</ele>
        <time>2019-06-21T18:53:03Z</time>
      </trkpt>
      <trkpt lat="43.039956" lon="-9.268352">
        <ele>116.261</ele>
        <time>2019-06-21T18:53:04Z</time>
      </trkpt>
      <trkpt lat="43.039967" lon="-9.268205">
        <ele>116.385</ele>
        <time>2019-06-21T18:53:05Z</time>
      </trkpt>
      <trkpt lat="43.039960" lon="-9.268049">
        <ele>116.587</ele>
        <time>2019-06-21T18:53:06Z</time>
      </trkpt>
      <trkpt lat="43.039934" lon="-9.267900">
        <ele>117.315</ele>
        <time>2019-06-21T18:53:07Z</time>
      </trkpt>
      <trkpt lat="43.039878" lon="-9.267768">
        <ele>118.365</ele>
        <time>2019-06-21T18:53:08Z</time>
      </trkpt>
      <trkpt lat="43.039810" lon="-9.267648">
        <ele>118.611</ele>
        <time>2019-06-21T18:53:09Z</time>
      </trkpt>
      <trkpt lat="43.039722" lon="-9.267555">
        <ele>119.208</ele>
        <time>2019-06-21T18:53:10Z</time>
      </trkpt>
      <trkpt lat="43.039625" lon="-9.267482">
        <ele>119.614</ele>
        <time>2019-06-21T18:53:11Z</time>
      </trkpt>
      <trkpt lat="43.039533" lon="-9.267442">
        <ele>120.098</ele>
        <time>2019-06-21T18:53:12Z</time>
      </trkpt>
      <trkpt lat="43.039425" lon="-9.267409">
        <ele>120.430</ele>
        <time>2019-06-21T18:53:13Z</time>
      </trkpt>
      <trkpt lat="43.039316" lon="-9.267377">
        <ele>120.652</ele>
        <time>2019-06-21T18:53:14Z</time>
      </trkpt>
      <trkpt lat="43.039206" lon="-9.267319">
        <ele>120.619</ele>
        <time>2019-06-21T18:53:15Z</time>
      </trkpt>
      <trkpt lat="43.039106" lon="-9.267239">
        <ele>120.845</ele>
        <time>2019-06-21T18:53:16Z</time>
      </trkpt>
      <trkpt lat="43.039004" lon="-9.267140">
        <ele>121.369</ele>
        <time>2019-06-21T18:53:17Z</time>
      </trkpt>
      <trkpt lat="43.038909" lon="-9.267009">
        <ele>122.011</ele>
        <time>2019-06-21T18:53:18Z</time>
      </trkpt>
      <trkpt lat="43.038820" lon="-9.266861">
        <ele>123.083</ele>
        <time>2019-06-21T18:53:19Z</time>
      </trkpt>
      <trkpt lat="43.038735" lon="-9.266705">
        <ele>124.225</ele>
        <time>2019-06-21T18:53:20Z</time>
      </trkpt>
      <trkpt lat="43.038645" lon="-9.266546">
        <ele>125.617</ele>
        <time>2019-06-21T18:53:21Z</time>
      </trkpt>
      <trkpt lat="43.038553" lon="-9.266388">
        <ele>127.008</ele>
        <time>2019-06-21T18:53:22Z</time>
      </trkpt>
      <trkpt lat="43.038458" lon="-9.266230">
        <ele>128.881</ele>
        <time>2019-06-21T18:53:23Z</time>
      </trkpt>
      <trkpt lat="43.038367" lon="-9.266077">
        <ele>130.415</ele>
        <time>2019-06-21T18:53:24Z</time>
      </trkpt>
      <trkpt lat="43.038273" lon="-9.265926">
        <ele>131.577</ele>
        <time>2019-06-21T18:53:25Z</time>
      </trkpt>
      <trkpt lat="43.038181" lon="-9.265769">
        <ele>132.149</ele>
        <time>2019-06-21T18:53:26Z</time>
      </trkpt>
      <trkpt lat="43.038091" lon="-9.265604">
        <ele>133.496</ele>
        <time>2019-06-21T18:53:27Z</time>
      </trkpt>
      <trkpt lat="43.037998" lon="-9.265444">
        <ele>134.922</ele>
        <time>2019-06-21T18:53:28Z</time>
      </trkpt>
      <trkpt lat="43.037901" lon="-9.265275">
        <ele>136.166</ele>
        <time>2019-06-21T18:53:29Z</time>
      </trkpt>
      <trkpt lat="43.037799" lon="-9.265109">
        <ele>136.258</ele>
        <time>2019-06-21T18:53:30Z</time>
      </trkpt>
      <trkpt lat="43.037699" lon="-9.264934">
        <ele>136.575</ele>
        <time>2019-06-21T18:53:31Z</time>
      </trkpt>
      <trkpt lat="43.037592" lon="-9.264756">
        <ele>136.528</ele>
        <time>2019-06-21T18:53:32Z</time>
      </trkpt>
      <trkpt lat="43.037481" lon="-9.264588">
        <ele>136.420</ele>
        <time>2019-06-21T18:53:33Z</time>
      </trkpt>
      <trkpt lat="43.037370" lon="-9.264423">
        <ele>136.708</ele>
        <time>2019-06-21T18:53:34Z</time>
      </trkpt>
      <trkpt lat="43.037257" lon="-9.264263">
        <ele>136.710</ele>
        <time>2019-06-21T18:53:35Z</time>
      </trkpt>
      <trkpt lat="43.037150" lon="-9.264110">
        <ele>137.154</ele>
        <time>2019-06-21T18:53:36Z</time>
      </trkpt>
      <trkpt lat="43.037045" lon="-9.263952">
        <ele>137.146</ele>
        <time>2019-06-21T18:53:37Z</time>
      </trkpt>
      <trkpt lat="43.036941" lon="-9.263802">
        <ele>136.868</ele>
        <time>2019-06-21T18:53:38Z</time>
      </trkpt>
      <trkpt lat="43.036851" lon="-9.263658">
        <ele>138.215</ele>
        <time>2019-06-21T18:53:39Z</time>
      </trkpt>
      <trkpt lat="43.036755" lon="-9.263513">
        <ele>139.691</ele>
        <time>2019-06-21T18:53:40Z</time>
      </trkpt>
      <trkpt lat="43.036670" lon="-9.263377">
        <ele>141.195</ele>
        <time>2019-06-21T18:53:41Z</time>
      </trkpt>
      <trkpt lat="43.036591" lon="-9.263246">
        <ele>142.947</ele>
        <time>2019-06-21T18:53:42Z</time>
      </trkpt>
      <trkpt lat="43.036512" lon="-9.263116">
        <ele>144.116</ele>
        <time>2019-06-21T18:53:43Z</time>
      </trkpt>
      <trkpt lat="43.036427" lon="-9.262999">
        <ele>145.376</ele>
        <time>2019-06-21T18:53:44Z</time>
      </trkpt>
      <trkpt lat="43.036330" lon="-9.262890">
        <ele>146.713</ele>
        <time>2019-06-21T18:53:45Z</time>
      </trkpt>
      <trkpt lat="43.036220" lon="-9.262799">
        <ele>147.408</ele>
        <time>2019-06-21T18:53:46Z</time>
      </trkpt>
      <trkpt lat="43.036093" lon="-9.262721">
        <ele>147.614</ele>
        <time>2019-06-21T18:53:47Z</time>
      </trkpt>
      <trkpt lat="43.035948" lon="-9.262639">
        <ele>147.338</ele>
        <time>2019-06-21T18:53:48Z</time>
      </trkpt>
      <trkpt lat="43.035809" lon="-9.262561">
        <ele>146.720</ele>
        <time>2019-06-21T18:53:49Z</time>
      </trkpt>
      <trkpt lat="43.035672" lon="-9.262470">
        <ele>145.882</ele>
        <time>2019-06-21T18:53:50Z</time>
      </trkpt>
      <trkpt lat="43.035538" lon="-9.262394">
        <ele>145.799</ele>
        <time>2019-06-21T18:53:51Z</time>
      </trkpt>
      <trkpt lat="43.035402" lon="-9.262327">
        <ele>145.925</ele>
        <time>2019-06-21T18:53:52Z</time>
      </trkpt>
      <trkpt lat="43.035267" lon="-9.262262">
        <ele>146.239</ele>
        <time>2019-06-21T18:53:53Z</time>
      </trkpt>
      <trkpt lat="43.035137" lon="-9.262190">
        <ele>146.561</ele>
        <time>2019-06-21T18:53:54Z</time>
      </trkpt>
      <trkpt lat="43.035015" lon="-9.262116">
        <ele>146.986</ele>
        <time>2019-06-21T18:53:55Z</time>
      </trkpt>
      <trkpt lat="43.034884" lon="-9.262042">
        <ele>147.860</ele>
        <time>2019-06-21T18:53:56Z</time>
      </trkpt>
      <trkpt lat="43.034755" lon="-9.261982">
        <ele>148.826</ele>
        <time>2019-06-21T18:53:57Z</time>
      </trkpt>
      <trkpt lat="43.034627" lon="-9.261923">
        <ele>150.008</ele>
        <time>2019-06-21T18:53:58Z</time>
      </trkpt>
      <trkpt lat="43.034497" lon="-9.261864">
        <ele>151.411</ele>
        <time>2019-06-21T18:53:59Z</time>
      </trkpt>
      <trkpt lat="43.034373" lon="-9.261797">
        <ele>152.965</ele>
        <time>2019-06-21T18:54:00Z</time>
      </trkpt>
      <trkpt lat="43.034251" lon="-9.261739">
        <ele>154.377</ele>
        <time>2019-06-21T18:54:01Z</time>
      </trkpt>
      <trkpt lat="43.034130" lon="-9.261694">
        <ele>155.699</ele>
        <time>2019-06-21T18:54:02Z</time>
      </trkpt>
      <trkpt lat="43.034015" lon="-9.261641">
        <ele>156.996</ele>
        <time>2019-06-21T18:54:03Z</time>
      </trkpt>
      <trkpt lat="43.033905" lon="-9.261589">
        <ele>157.942</ele>
        <time>2019-06-21T18:54:04Z</time>
      </trkpt>
      <trkpt lat="43.033801" lon="-9.261525">
        <ele>158.636</ele>
        <time>2019-06-21T18:54:05Z</time>
      </trkpt>
      <trkpt lat="43.033705" lon="-9.261463">
        <ele>159.048</ele>
        <time>2019-06-21T18:54:06Z</time>
      </trkpt>
      <trkpt lat="43.033617" lon="-9.261402">
        <ele>159.171</ele>
        <time>2019-06-21T18:54:07Z</time>
      </trkpt>
      <trkpt lat="43.033534" lon="-9.261318">
        <ele>159.041</ele>
        <time>2019-06-21T18:54:08Z</time>
      </trkpt>
      <trkpt lat="43.033455" lon="-9.261222">
        <ele>159.315</ele>
        <time>2019-06-21T18:54:09Z</time>
      </trkpt>
      <trkpt lat="43.033389" lon="-9.261111">
        <ele>159.608</ele>
        <time>2019-06-21T18:54:10Z</time>
      </trkpt>
      <trkpt lat="43.033324" lon="-9.260993">
        <ele>160.870</ele>
        <time>2019-06-21T18:54:11Z</time>
      </trkpt>
      <trkpt lat="43.033294" lon="-9.260861">
        <ele>161.294</ele>
        <time>2019-06-21T18:54:12Z</time>
      </trkpt>
      <trkpt lat="43.033274" lon="-9.260698">
        <ele>161.256</ele>
        <time>2019-06-21T18:54:13Z</time>
      </trkpt>
      <trkpt lat="43.033254" lon="-9.260537">
        <ele>161.258</ele>
        <time>2019-06-21T18:54:14Z</time>
      </trkpt>
      <trkpt lat="43.033248" lon="-9.260377">
        <ele>160.645</ele>
        <time>2019-06-21T18:54:15Z</time>
      </trkpt>
      <trkpt lat="43.033231" lon="-9.260222">
        <ele>161.181</ele>
        <time>2019-06-21T18:54:16Z</time>
      </trkpt>
      <trkpt lat="43.033224" lon="-9.260067">
        <ele>162.775</ele>
        <time>2019-06-21T18:54:17Z</time>
      </trkpt>
      <trkpt lat="43.033209" lon="-9.259918">
        <ele>165.297</ele>
        <time>2019-06-21T18:54:18Z</time>
      </trkpt>
      <trkpt lat="43.033188" lon="-9.259764">
        <ele>168.435</ele>
        <time>2019-06-21T18:54:19Z</time>
      </trkpt>
      <trkpt lat="43.033166" lon="-9.259626">
        <ele>170.286</ele>
        <time>2019-06-21T18:54:20Z</time>
      </trkpt>
      <trkpt lat="43.033166" lon="-9.259479">
        <ele>171.214</ele>
        <time>2019-06-21T18:54:21Z</time>
      </trkpt>
      <trkpt lat="43.033175" lon="-9.259316">
        <ele>171.708</ele>
        <time>2019-06-21T18:54:22Z</time>
      </trkpt>
      <trkpt lat="43.033179" lon="-9.259165">
        <ele>172.166</ele>
        <time>2019-06-21T18:54:23Z</time>
      </trkpt>
      <trkpt lat="43.033191" lon="-9.259003">
        <ele>172.380</ele>
        <time>2019-06-21T18:54:24Z</time>
      </trkpt>
      <trkpt lat="43.033202" lon="-9.258835">
        <ele>172.692</ele>
        <time>2019-06-21T18:54:25Z</time>
      </trkpt>
      <trkpt lat="43.033224" lon="-9.258662">
        <ele>172.994</ele>
        <time>2019-06-21T18:54:26Z</time>
      </trkpt>
      <trkpt lat="43.033240" lon="-9.258485">
        <ele>173.511</ele>
        <time>2019-06-21T18:54:27Z</time>
      </trkpt>
      <trkpt lat="43.033257" lon="-9.258305">
        <ele>174.057</ele>
        <time>2019-06-21T18:54:28Z</time>
      </trkpt>
      <trkpt lat="43.033283" lon="-9.258138">
        <ele>174.121</ele>
        <time>2019-06-21T18:54:29Z</time>
      </trkpt>
      <trkpt lat="43.033308" lon="-9.257978">
        <ele>174.393</ele>
        <time>2019-06-21T18:54:30Z</time>
      </trkpt>
      <trkpt lat="43.033322" lon="-9.257835">
        <ele>174.845</ele>
        <time>2019-06-21T18:54:31Z</time>
      </trkpt>
      <trkpt lat="43.033342" lon="-9.257700">
        <ele>175.047</ele>
        <time>2019-06-21T18:54:32Z</time>
      </trkpt>
      <trkpt lat="43.033366" lon="-9.257586">
        <ele>174.911</ele>
        <time>2019-06-21T18:54:33Z</time>
      </trkpt>
      <trkpt lat="43.033373" lon="-9.257464">
        <ele>175.008</ele>
        <time>2019-06-21T18:54:34Z</time>
      </trkpt>
      <trkpt lat="43.033389" lon="-9.257342">
        <ele>175.487</ele>
        <time>2019-06-21T18:54:35Z</time>
      </trkpt>
      <trkpt lat="43.033399" lon="-9.257208">
        <ele>175.841</ele>
        <time>2019-06-21T18:54:36Z</time>
      </trkpt>
      <trkpt lat="43.033415" lon="-9.257074">
        <ele>175.743</ele>
        <time>2019-06-21T18:54:37Z</time>
      </trkpt>
      <trkpt lat="43.033428" lon="-9.256948">
        <ele>175.715</ele>
        <time>2019-06-21T18:54:38Z</time>
      </trkpt>
      <trkpt lat="43.033438" lon="-9.256828">
        <ele>175.482</ele>
        <time>2019-06-21T18:54:39Z</time>
      </trkpt>
      <trkpt lat="43.033444" lon="-9.256712">
        <ele>175.138</ele>
        <time>2019-06-21T18:54:40Z</time>
      </trkpt>
      <trkpt lat="43.033453" lon="-9.256603">
        <ele>174.862</ele>
        <time>2019-06-21T18:54:41Z</time>
      </trkpt>
      <trkpt lat="43.033473" lon="-9.256502">
        <ele>174.414</ele>
        <time>2019-06-21T18:54:42Z</time>
      </trkpt>
      <trkpt lat="43.033476" lon="-9.256385">
        <ele>174.055</ele>
        <time>2019-06-21T18:54:43Z</time>
      </trkpt>
      <trkpt lat="43.033484" lon="-9.256293">
        <ele>173.707</ele>
        <time>2019-06-21T18:54:44Z</time>
      </trkpt>
      <trkpt lat="43.033480" lon="-9.256201">
        <ele>173.617</ele>
        <time>2019-06-21T18:54:45Z</time>
      </trkpt>
      <trkpt lat="43.033467" lon="-9.256105">
        <ele>173.508</ele>
        <time>2019-06-21T18:54:46Z</time>
      </trkpt>
      <trkpt lat="43.033439" lon="-9.256002">
        <ele>173.778</ele>
        <time>2019-06-21T18:54:47Z</time>
      </trkpt>
      <trkpt lat="43.033427" lon="-9.255899">
        <ele>173.732</ele>
        <time>2019-06-21T18:54:48Z</time>
      </trkpt>
      <trkpt lat="43.033381" lon="-9.255790">
        <ele>174.094</ele>
        <time>2019-06-21T18:54:49Z</time>
      </trkpt>
      <trkpt lat="43.033338" lon="-9.255686">
        <ele>173.936</ele>
        <time>2019-06-21T18:54:50Z</time>
      </trkpt>
      <trkpt lat="43.033288" lon="-9.255585">
        <ele>173.063</ele>
        <time>2019-06-21T18:54:51Z</time>
      </trkpt>
      <trkpt lat="43.033187" lon="-9.255498">
        <ele>171.989</ele>
        <time>2019-06-21T18:54:52Z</time>
      </trkpt>
      <trkpt lat="43.033098" lon="-9.255418">
        <ele>170.793</ele>
        <time>2019-06-21T18:54:53Z</time>
      </trkpt>
      <trkpt lat="43.032993" lon="-9.255358">
        <ele>168.995</ele>
        <time>2019-06-21T18:54:54Z</time>
      </trkpt>
      <trkpt lat="43.032885" lon="-9.255308">
        <ele>166.858</ele>
        <time>2019-06-21T18:54:55Z</time>
      </trkpt>
      <trkpt lat="43.032773" lon="-9.255248">
        <ele>165.052</ele>
        <time>2019-06-21T18:54:56Z</time>
      </trkpt>
      <trkpt lat="43.032658" lon="-9.255194">
        <ele>164.017</ele>
        <time>2019-06-21T18:54:57Z</time>
      </trkpt>
      <trkpt lat="43.032541" lon="-9.255131">
        <ele>162.808</ele>
        <time>2019-06-21T18:54:58Z</time>
      </trkpt>
      <trkpt lat="43.032428" lon="-9.255071">
        <ele>162.198</ele>
        <time>2019-06-21T18:54:59Z</time>
      </trkpt>
      <trkpt lat="43.032323" lon="-9.255018">
        <ele>162.052</ele>
        <time>2019-06-21T18:55:00Z</time>
      </trkpt>
      <trkpt lat="43.032231" lon="-9.254965">
        <ele>161.934</ele>
        <time>2019-06-21T18:55:01Z</time>
      </trkpt>
      <trkpt lat="43.032121" lon="-9.254923">
        <ele>160.536</ele>
        <time>2019-06-21T18:55:02Z</time>
      </trkpt>
      <trkpt lat="43.032021" lon="-9.254880">
        <ele>159.143</ele>
        <time>2019-06-21T18:55:03Z</time>
      </trkpt>
      <trkpt lat="43.031922" lon="-9.254830">
        <ele>157.719</ele>
        <time>2019-06-21T18:55:04Z</time>
      </trkpt>
      <trkpt lat="43.031824" lon="-9.254782">
        <ele>156.863</ele>
        <time>2019-06-21T18:55:05Z</time>
      </trkpt>
      <trkpt lat="43.031728" lon="-9.254737">
        <ele>155.645</ele>
        <time>2019-06-21T18:55:06Z</time>
      </trkpt>
      <trkpt lat="43.031627" lon="-9.254694">
        <ele>154.993</ele>
        <time>2019-06-21T18:55:07Z</time>
      </trkpt>
      <trkpt lat="43.031542" lon="-9.254650">
        <ele>154.965</ele>
        <time>2019-06-21T18:55:08Z</time>
      </trkpt>
      <trkpt lat="43.031438" lon="-9.254565">
        <ele>154.721</ele>
        <time>2019-06-21T18:55:09Z</time>
      </trkpt>
      <trkpt lat="43.031323" lon="-9.254472">
        <ele>154.208</ele>
        <time>2019-06-21T18:55:10Z</time>
      </trkpt>
      <trkpt lat="43.031218" lon="-9.254353">
        <ele>152.962</ele>
        <time>2019-06-21T18:55:11Z</time>
      </trkpt>
      <trkpt lat="43.031111" lon="-9.254230">
        <ele>151.756</ele>
        <time>2019-06-21T18:55:12Z</time>
      </trkpt>
      <trkpt lat="43.030998" lon="-9.254097">
        <ele>149.478</ele>
        <time>2019-06-21T18:55:13Z</time>
      </trkpt>
      <trkpt lat="43.030887" lon="-9.253976">
        <ele>147.310</ele>
        <time>2019-06-21T18:55:14Z</time>
      </trkpt>
      <trkpt lat="43.030778" lon="-9.253847">
        <ele>145.267</ele>
        <time>2019-06-21T18:55:15Z</time>
      </trkpt>
      <trkpt lat="43.030677" lon="-9.253715">
        <ele>143.313</ele>
        <time>2019-06-21T18:55:16Z</time>
      </trkpt>
      <trkpt lat="43.030567" lon="-9.253580">
        <ele>141.737</ele>
        <time>2019-06-21T18:55:17Z</time>
      </trkpt>
      <trkpt lat="43.030455" lon="-9.253459">
        <ele>140.989</ele>
        <time>2019-06-21T18:55:18Z</time>
      </trkpt>
      <trkpt lat="43.030351" lon="-9.253331">
        <ele>139.795</ele>
        <time>2019-06-21T18:55:19Z</time>
      </trkpt>
      <trkpt lat="43.030234" lon="-9.253203">
        <ele>137.649</ele>
        <time>2019-06-21T18:55:20Z</time>
      </trkpt>
      <trkpt lat="43.030109" lon="-9.253082">
        <ele>134.923</ele>
        <time>2019-06-21T18:55:21Z</time>
      </trkpt>
      <trkpt lat="43.029987" lon="-9.252948">
        <ele>133.008</ele>
        <time>2019-06-21T18:55:22Z</time>
      </trkpt>
      <trkpt lat="43.029868" lon="-9.252854">
        <ele>133.472</ele>
        <time>2019-06-21T18:55:23Z</time>
      </trkpt>
      <trkpt lat="43.029744" lon="-9.252736">
        <ele>133.246</ele>
        <time>2019-06-21T18:55:24Z</time>
      </trkpt>
      <trkpt lat="43.029625" lon="-9.252649">
        <ele>132.518</ele>
        <time>2019-06-21T18:55:25Z</time>
      </trkpt>
      <trkpt lat="43.029505" lon="-9.252565">
        <ele>131.760</ele>
        <time>2019-06-21T18:55:26Z</time>
      </trkpt>
      <trkpt lat="43.029382" lon="-9.252462">
        <ele>130.847</ele>
        <time>2019-06-21T18:55:27Z</time>
      </trkpt>
      <trkpt lat="43.029254" lon="-9.252344">
        <ele>130.473</ele>
        <time>2019-06-21T18:55:28Z</time>
      </trkpt>
      <trkpt lat="43.029131" lon="-9.252231">
        <ele>130.337</ele>
        <time>2019-06-21T18:55:29Z</time>
      </trkpt>
      <trkpt lat="43.029014" lon="-9.252117">
        <ele>130.149</ele>
        <time>2019-06-21T18:55:30Z</time>
      </trkpt>
      <trkpt lat="43.028890" lon="-9.252034">
        <ele>130.058</ele>
        <time>2019-06-21T18:55:31Z</time>
      </trkpt>
      <trkpt lat="43.028765" lon="-9.251934">
        <ele>128.552</ele>
        <time>2019-06-21T18:55:32Z</time>
      </trkpt>
      <trkpt lat="43.028638" lon="-9.251823">
        <ele>126.917</ele>
        <time>2019-06-21T18:55:33Z</time>
      </trkpt>
      <trkpt lat="43.028500" lon="-9.251722">
        <ele>126.008</ele>
        <time>2019-06-21T18:55:34Z</time>
      </trkpt>
      <trkpt lat="43.028370" lon="-9.251621">
        <ele>125.378</ele>
        <time>2019-06-21T18:55:35Z</time>
      </trkpt>
      <trkpt lat="43.028233" lon="-9.251518">
        <ele>126.022</ele>
        <time>2019-06-21T18:55:36Z</time>
      </trkpt>
      <trkpt lat="43.028094" lon="-9.251452">
        <ele>128.114</ele>
        <time>2019-06-21T18:55:37Z</time>
      </trkpt>
      <trkpt lat="43.027966" lon="-9.251371">
        <ele>129.666</ele>
        <time>2019-06-21T18:55:38Z</time>
      </trkpt>
      <trkpt lat="43.027829" lon="-9.251283">
        <ele>130.483</ele>
        <time>2019-06-21T18:55:39Z</time>
      </trkpt>
      <trkpt lat="43.027689" lon="-9.251191">
        <ele>129.699</ele>
        <time>2019-06-21T18:55:40Z</time>
      </trkpt>
      <trkpt lat="43.027558" lon="-9.251105">
        <ele>128.483</ele>
        <time>2019-06-21T18:55:41Z</time>
      </trkpt>
      <trkpt lat="43.027426" lon="-9.251021">
        <ele>127.975</ele>
        <time>2019-06-21T18:55:42Z</time>
      </trkpt>
      <trkpt lat="43.027305" lon="-9.250942">
        <ele>127.515</ele>
        <time>2019-06-21T18:55:43Z</time>
      </trkpt>
      <trkpt lat="43.027190" lon="-9.250857">
        <ele>126.665</ele>
        <time>2019-06-21T18:55:44Z</time>
      </trkpt>
      <trkpt lat="43.027075" lon="-9.250779">
        <ele>125.211</ele>
        <time>2019-06-21T18:55:45Z</time>
      </trkpt>
      <trkpt lat="43.026952" lon="-9.250713">
        <ele>123.908</ele>
        <time>2019-06-21T18:55:46Z</time>
      </trkpt>
      <trkpt lat="43.026838" lon="-9.250642">
        <ele>121.624</ele>
        <time>2019-06-21T18:55:47Z</time>
      </trkpt>
      <trkpt lat="43.026723" lon="-9.250558">
        <ele>119.298</ele>
        <time>2019-06-21T18:55:48Z</time>
      </trkpt>
      <trkpt lat="43.026612" lon="-9.250472">
        <ele>117.520</ele>
        <time>2019-06-21T18:55:49Z</time>
      </trkpt>
      <trkpt lat="43.026509" lon="-9.250384">
        <ele>115.712</ele>
        <time>2019-06-21T18:55:50Z</time>
      </trkpt>
      <trkpt lat="43.026407" lon="-9.250270">
        <ele>114.079</ele>
        <time>2019-06-21T18:55:51Z</time>
      </trkpt>
      <trkpt lat="43.026311" lon="-9.250133">
        <ele>112.355</ele>
        <time>2019-06-21T18:55:52Z</time>
      </trkpt>
      <trkpt lat="43.026211" lon="-9.249984">
        <ele>110.979</ele>
        <time>2019-06-21T18:55:53Z</time>
      </trkpt>
      <trkpt lat="43.026107" lon="-9.249801">
        <ele>109.631</ele>
        <time>2019-06-21T18:55:54Z</time>
      </trkpt>
      <trkpt lat="43.025994" lon="-9.249608">
        <ele>109.584</ele>
        <time>2019-06-21T18:55:55Z</time>
      </trkpt>
      <trkpt lat="43.025896" lon="-9.249419">
        <ele>108.607</ele>
        <time>2019-06-21T18:55:56Z</time>
      </trkpt>
      <trkpt lat="43.025781" lon="-9.249216">
        <ele>107.317</ele>
        <time>2019-06-21T18:55:57Z</time>
      </trkpt>
      <trkpt lat="43.025665" lon="-9.249027">
        <ele>105.108</ele>
        <time>2019-06-21T18:55:58Z</time>
      </trkpt>
      <trkpt lat="43.025543" lon="-9.248818">
        <ele>102.721</ele>
        <time>2019-06-21T18:55:59Z</time>
      </trkpt>
      <trkpt lat="43.025426" lon="-9.248611">
        <ele>101.545</ele>
        <time>2019-06-21T18:56:00Z</time>
      </trkpt>
      <trkpt lat="43.025306" lon="-9.248402">
        <ele>101.157</ele>
        <time>2019-06-21T18:56:01Z</time>
      </trkpt>
      <trkpt lat="43.025194" lon="-9.248210">
        <ele>100.749</ele>
        <time>2019-06-21T18:56:02Z</time>
      </trkpt>
      <trkpt lat="43.025081" lon="-9.248001">
        <ele>99.236</ele>
        <time>2019-06-21T18:56:03Z</time>
      </trkpt>
      <trkpt lat="43.024979" lon="-9.247813">
        <ele>97.322</ele>
        <time>2019-06-21T18:56:04Z</time>
      </trkpt>
      <trkpt lat="43.024873" lon="-9.247626">
        <ele>97.336</ele>
        <time>2019-06-21T18:56:05Z</time>
      </trkpt>
      <trkpt lat="43.024759" lon="-9.247438">
        <ele>97.318</ele>
        <time>2019-06-21T18:56:06Z</time>
      </trkpt>
      <trkpt lat="43.024663" lon="-9.247262">
        <ele>97.949</ele>
        <time>2019-06-21T18:56:07Z</time>
      </trkpt>
      <trkpt lat="43.024574" lon="-9.247083">
        <ele>97.502</ele>
        <time>2019-06-21T18:56:08Z</time>
      </trkpt>
      <trkpt lat="43.024463" lon="-9.246914">
        <ele>96.922</ele>
        <time>2019-06-21T18:56:09Z</time>
      </trkpt>
      <trkpt lat="43.024362" lon="-9.246727">
        <ele>95.908</ele>
        <time>2019-06-21T18:56:10Z</time>
      </trkpt>
      <trkpt lat="43.024264" lon="-9.246555">
        <ele>95.327</ele>
        <time>2019-06-21T18:56:11Z</time>
      </trkpt>
      <trkpt lat="43.024159" lon="-9.246382">
        <ele>95.051</ele>
        <time>2019-06-21T18:56:12Z</time>
      </trkpt>
      <trkpt lat="43.024054" lon="-9.246202">
        <ele>95.343</ele>
        <time>2019-06-21T18:56:13Z</time>
      </trkpt>
      <trkpt lat="43.023956" lon="-9.246024">
        <ele>95.555</ele>
        <time>2019-06-21T18:56:14Z</time>
      </trkpt>
      <trkpt lat="43.023854" lon="-9.245840">
        <ele>95.772</ele>
        <time>2019-06-21T18:56:15Z</time>
      </trkpt>
      <trkpt lat="43.023750" lon="-9.245647">
        <ele>95.388</ele>
        <time>2019-06-21T18:56:16Z</time>
      </trkpt>
      <trkpt lat="43.023638" lon="-9.245456">
        <ele>94.732</ele>
        <time>2019-06-21T18:56:17Z</time>
      </trkpt>
      <trkpt lat="43.023525" lon="-9.245262">
        <ele>93.364</ele>
        <time>2019-06-21T18:56:18Z</time>
      </trkpt>
      <trkpt lat="43.023411" lon="-9.245072">
        <ele>92.422</ele>
        <time>2019-06-21T18:56:19Z</time>
      </trkpt>
      <trkpt lat="43.023300" lon="-9.244868">
        <ele>91.862</ele>
        <time>2019-06-21T18:56:20Z</time>
      </trkpt>
      <trkpt lat="43.023184" lon="-9.244664">
        <ele>90.908</ele>
        <time>2019-06-21T18:56:21Z</time>
      </trkpt>
      <trkpt lat="43.023064" lon="-9.244461">
        <ele>90.108</ele>
        <time>2019-06-21T18:56:22Z</time>
      </trkpt>
      <trkpt lat="43.022943" lon="-9.244256">
        <ele>90.415</ele>
        <time>2019-06-21T18:56:23Z</time>
      </trkpt>
      <trkpt lat="43.022822" lon="-9.244046">
        <ele>90.239</ele>
        <time>2019-06-21T18:56:24Z</time>
      </trkpt>
      <trkpt lat="43.022703" lon="-9.243838">
        <ele>90.211</ele>
        <time>2019-06-21T18:56:25Z</time>
      </trkpt>
      <trkpt lat="43.022582" lon="-9.243634">
        <ele>90.193</ele>
        <time>2019-06-21T18:56:26Z</time>
      </trkpt>
      <trkpt lat="43.022468" lon="-9.243433">
        <ele>90.090</ele>
        <time>2019-06-21T18:56:27Z</time>
      </trkpt>
      <trkpt lat="43.022366" lon="-9.243248">
        <ele>89.886</ele>
        <time>2019-06-21T18:56:28Z</time>
      </trkpt>
      <trkpt lat="43.022259" lon="-9.243071">
        <ele>89.960</ele>
        <time>2019-06-21T18:56:29Z</time>
      </trkpt>
      <trkpt lat="43.022158" lon="-9.242901">
        <ele>90.642</ele>
        <time>2019-06-21T18:56:30Z</time>
      </trkpt>
      <trkpt lat="43.022052" lon="-9.242711">
        <ele>91.365</ele>
        <time>2019-06-21T18:56:31Z</time>
      </trkpt>
      <trkpt lat="43.021944" lon="-9.242518">
        <ele>91.968</ele>
        <time>2019-06-21T18:56:32Z</time>
      </trkpt>
      <trkpt lat="43.021838" lon="-9.242340">
        <ele>92.514</ele>
        <time>2019-06-21T18:56:33Z</time>
      </trkpt>
      <trkpt lat="43.021740" lon="-9.242163">
        <ele>92.708</ele>
        <time>2019-06-21T18:56:34Z</time>
      </trkpt>
      <trkpt lat="43.021648" lon="-9.241998">
        <ele>92.779</ele>
        <time>2019-06-21T18:56:35Z</time>
      </trkpt>
      <trkpt lat="43.021542" lon="-9.241823">
        <ele>92.743</ele>
        <time>2019-06-21T18:56:36Z</time>
      </trkpt>
      <trkpt lat="43.021435" lon="-9.241645">
        <ele>93.125</ele>
        <time>2019-06-21T18:56:37Z</time>
      </trkpt>
      <trkpt lat="43.021325" lon="-9.241456">
        <ele>93.517</ele>
        <time>2019-06-21T18:56:38Z</time>
      </trkpt>
      <trkpt lat="43.021213" lon="-9.241265">
        <ele>93.994</ele>
        <time>2019-06-21T18:56:39Z</time>
      </trkpt>
      <trkpt lat="43.021099" lon="-9.241065">
        <ele>94.740</ele>
        <time>2019-06-21T18:56:40Z</time>
      </trkpt>
      <trkpt lat="43.020987" lon="-9.240872">
        <ele>93.214</ele>
        <time>2019-06-21T18:56:41Z</time>
      </trkpt>
      <trkpt lat="43.020872" lon="-9.240665">
        <ele>92.346</ele>
        <time>2019-06-21T18:56:42Z</time>
      </trkpt>
      <trkpt lat="43.020761" lon="-9.240460">
        <ele>91.042</ele>
        <time>2019-06-21T18:56:43Z</time>
      </trkpt>
      <trkpt lat="43.020636" lon="-9.240252">
        <ele>89.722</ele>
        <time>2019-06-21T18:56:44Z</time>
      </trkpt>
      <trkpt lat="43.020516" lon="-9.240046">
        <ele>89.614</ele>
        <time>2019-06-21T18:56:45Z</time>
      </trkpt>
      <trkpt lat="43.020389" lon="-9.239830">
        <ele>89.808</ele>
        <time>2019-06-21T18:56:46Z</time>
      </trkpt>
      <trkpt lat="43.020277" lon="-9.239625">
        <ele>90.797</ele>
        <time>2019-06-21T18:56:47Z</time>
      </trkpt>
      <trkpt lat="43.020166" lon="-9.239416">
        <ele>91.771</ele>
        <time>2019-06-21T18:56:48Z</time>
      </trkpt>
      <trkpt lat="43.020047" lon="-9.239217">
        <ele>92.073</ele>
        <time>2019-06-21T18:56:49Z</time>
      </trkpt>
      <trkpt lat="43.019935" lon="-9.239024">
        <ele>91.985</ele>
        <time>2019-06-21T18:56:50Z</time>
      </trkpt>
      <trkpt lat="43.019834" lon="-9.238833">
        <ele>91.232</ele>
        <time>2019-06-21T18:56:51Z</time>
      </trkpt>
      <trkpt lat="43.019731" lon="-9.238646">
        <ele>90.228</ele>
        <time>2019-06-21T18:56:52Z</time>
      </trkpt>
      <trkpt lat="43.019627" lon="-9.238461">
        <ele>90.082</ele>
        <time>2019-06-21T18:56:53Z</time>
      </trkpt>
      <trkpt lat="43.019521" lon="-9.238284">
        <ele>90.274</ele>
        <time>2019-06-21T18:56:54Z</time>
      </trkpt>
      <trkpt lat="43.019419" lon="-9.238107">
        <ele>91.273</ele>
        <time>2019-06-21T18:56:55Z</time>
      </trkpt>
      <trkpt lat="43.019319" lon="-9.237928">
        <ele>93.985</ele>
        <time>2019-06-21T18:56:56Z</time>
      </trkpt>
      <trkpt lat="43.019216" lon="-9.237749">
        <ele>97.013</ele>
        <time>2019-06-21T18:56:57Z</time>
      </trkpt>
      <trkpt lat="43.019116" lon="-9.237571">
        <ele>98.608</ele>
        <time>2019-06-21T18:56:58Z</time>
      </trkpt>
      <trkpt lat="43.019013" lon="-9.237398">
        <ele>99.310</ele>
        <time>2019-06-21T18:56:59Z</time>
      </trkpt>
      <trkpt lat="43.018916" lon="-9.237236">
        <ele>99.874</ele>
        <time>2019-06-21T18:57:00Z</time>
      </trkpt>
      <trkpt lat="43.018821" lon="-9.237083">
        <ele>99.626</ele>
        <time>2019-06-21T18:57:01Z</time>
      </trkpt>
      <trkpt lat="43.018736" lon="-9.236933">
        <ele>99.648</ele>
        <time>2019-06-21T18:57:02Z</time>
      </trkpt>
      <trkpt lat="43.018652" lon="-9.236786">
        <ele>100.485</ele>
        <time>2019-06-21T18:57:03Z</time>
      </trkpt>
      <trkpt lat="43.018578" lon="-9.236655">
        <ele>101.281</ele>
        <time>2019-06-21T18:57:04Z</time>
      </trkpt>
      <trkpt lat="43.018507" lon="-9.236527">
        <ele>102.275</ele>
        <time>2019-06-21T18:57:05Z</time>
      </trkpt>
      <trkpt lat="43.018436" lon="-9.236408">
        <ele>102.957</ele>
        <time>2019-06-21T18:57:06Z</time>
      </trkpt>
      <trkpt lat="43.018362" lon="-9.236296">
        <ele>103.157</ele>
        <time>2019-06-21T18:57:07Z</time>
      </trkpt>
      <trkpt lat="43.018296" lon="-9.236182">
        <ele>102.700</ele>
        <time>2019-06-21T18:57:08Z</time>
      </trkpt>
      <trkpt lat="43.018234" lon="-9.236078">
        <ele>102.420</ele>
        <time>2019-06-21T18:57:09Z</time>
      </trkpt>
      <trkpt lat="43.018177" lon="-9.235974">
        <ele>102.408</ele>
        <time>2019-06-21T18:57:10Z</time>
      </trkpt>
      <trkpt lat="43.018120" lon="-9.235861">
        <ele>102.468</ele>
        <time>2019-06-21T18:57:11Z</time>
      </trkpt>
      <trkpt lat="43.018077" lon="-9.235744">
        <ele>102.112</ele>
        <time>2019-06-21T18:57:12Z</time>
      </trkpt>
      <trkpt lat="43.018067" lon="-9.235598">
        <ele>102.054</ele>
        <time>2019-06-21T18:57:13Z</time>
      </trkpt>
      <trkpt lat="43.018054" lon="-9.235447">
        <ele>101.646</ele>
        <time>2019-06-21T18:57:14Z</time>
      </trkpt>
      <trkpt lat="43.018061" lon="-9.235306">
        <ele>101.143</ele>
        <time>2019-06-21T18:57:15Z</time>
      </trkpt>
      <trkpt lat="43.018068" lon="-9.235166">
        <ele>100.289</ele>
        <time>2019-06-21T18:57:16Z</time>
      </trkpt>
      <trkpt lat="43.018076" lon="-9.235026">
        <ele>99.343</ele>
        <time>2019-06-21T18:57:17Z</time>
      </trkpt>
      <trkpt lat="43.018080" lon="-9.234890">
        <ele>97.695</ele>
        <time>2019-06-21T18:57:18Z</time>
      </trkpt>
      <trkpt lat="43.018061" lon="-9.234753">
        <ele>95.522</ele>
        <time>2019-06-21T18:57:19Z</time>
      </trkpt>
      <trkpt lat="43.018023" lon="-9.234630">
        <ele>94.362</ele>
        <time>2019-06-21T18:57:20Z</time>
      </trkpt>
      <trkpt lat="43.017969" lon="-9.234520">
        <ele>93.108</ele>
        <time>2019-06-21T18:57:21Z</time>
      </trkpt>
      <trkpt lat="43.017890" lon="-9.234452">
        <ele>91.708</ele>
        <time>2019-06-21T18:57:22Z</time>
      </trkpt>
      <trkpt lat="43.017795" lon="-9.234383">
        <ele>90.955</ele>
        <time>2019-06-21T18:57:23Z</time>
      </trkpt>
      <trkpt lat="43.017691" lon="-9.234329">
        <ele>90.699</ele>
        <time>2019-06-21T18:57:24Z</time>
      </trkpt>
      <trkpt lat="43.017587" lon="-9.234268">
        <ele>90.551</ele>
        <time>2019-06-21T18:57:25Z</time>
      </trkpt>
      <trkpt lat="43.017483" lon="-9.234206">
        <ele>90.373</ele>
        <time>2019-06-21T18:57:26Z</time>
      </trkpt>
      <trkpt lat="43.017366" lon="-9.234128">
        <ele>88.980</ele>
        <time>2019-06-21T18:57:27Z</time>
      </trkpt>
      <trkpt lat="43.017264" lon="-9.234049">
        <ele>87.466</ele>
        <time>2019-06-21T18:57:28Z</time>
      </trkpt>
      <trkpt lat="43.017153" lon="-9.233963">
        <ele>85.950</ele>
        <time>2019-06-21T18:57:29Z</time>
      </trkpt>
      <trkpt lat="43.017072" lon="-9.233842">
        <ele>85.682</ele>
        <time>2019-06-21T18:57:30Z</time>
      </trkpt>
      <trkpt lat="43.016978" lon="-9.233722">
        <ele>85.038</ele>
        <time>2019-06-21T18:57:31Z</time>
      </trkpt>
      <trkpt lat="43.016866" lon="-9.233592">
        <ele>84.070</ele>
        <time>2019-06-21T18:57:32Z</time>
      </trkpt>
      <trkpt lat="43.016749" lon="-9.233462">
        <ele>82.717</ele>
        <time>2019-06-21T18:57:33Z</time>
      </trkpt>
      <trkpt lat="43.016638" lon="-9.233309">
        <ele>80.708</ele>
        <time>2019-06-21T18:57:34Z</time>
      </trkpt>
      <trkpt lat="43.016523" lon="-9.233169">
        <ele>79.966</ele>
        <time>2019-06-21T18:57:35Z</time>
      </trkpt>
      <trkpt lat="43.016419" lon="-9.233025">
        <ele>79.940</ele>
        <time>2019-06-21T18:57:36Z</time>
      </trkpt>
      <trkpt lat="43.016317" lon="-9.232893">
        <ele>80.452</ele>
        <time>2019-06-21T18:57:37Z</time>
      </trkpt>
      <trkpt lat="43.016218" lon="-9.232757">
        <ele>80.884</ele>
        <time>2019-06-21T18:57:38Z</time>
      </trkpt>
      <trkpt lat="43.016130" lon="-9.232633">
        <ele>80.851</ele>
        <time>2019-06-21T18:57:39Z</time>
      </trkpt>
      <trkpt lat="43.016043" lon="-9.232513">
        <ele>80.947</ele>
        <time>2019-06-21T18:57:40Z</time>
      </trkpt>
      <trkpt lat="43.015956" lon="-9.232397">
        <ele>81.241</ele>
        <time>2019-06-21T18:57:41Z</time>
      </trkpt>
      <trkpt lat="43.015883" lon="-9.232273">
        <ele>82.093</ele>
        <time>2019-06-21T18:57:42Z</time>
      </trkpt>
      <trkpt lat="43.015818" lon="-9.232154">
        <ele>82.823</ele>
        <time>2019-06-21T18:57:43Z</time>
      </trkpt>
      <trkpt lat="43.015762" lon="-9.232027">
        <ele>83.983</ele>
        <time>2019-06-21T18:57:44Z</time>
      </trkpt>
      <trkpt lat="43.015721" lon="-9.231883">
        <ele>84.711</ele>
        <time>2019-06-21T18:57:45Z</time>
      </trkpt>
      <trkpt lat="43.015683" lon="-9.231714">
        <ele>85.008</ele>
        <time>2019-06-21T18:57:46Z</time>
      </trkpt>
      <trkpt lat="43.015649" lon="-9.231543">
        <ele>83.635</ele>
        <time>2019-06-21T18:57:47Z</time>
      </trkpt>
      <trkpt lat="43.015618" lon="-9.231372">
        <ele>81.529</ele>
        <time>2019-06-21T18:57:48Z</time>
      </trkpt>
      <trkpt lat="43.015579" lon="-9.231201">
        <ele>80.551</ele>
        <time>2019-06-21T18:57:49Z</time>
      </trkpt>
      <trkpt lat="43.015544" lon="-9.231041">
        <ele>79.513</ele>
        <time>2019-06-21T18:57:50Z</time>
      </trkpt>
      <trkpt lat="43.015510" lon="-9.230869">
        <ele>78.110</ele>
        <time>2019-06-21T18:57:51Z</time>
      </trkpt>
      <trkpt lat="43.015482" lon="-9.230703">
        <ele>77.936</ele>
        <time>2019-06-21T18:57:52Z</time>
      </trkpt>
      <trkpt lat="43.015453" lon="-9.230541">
        <ele>77.830</ele>
        <time>2019-06-21T18:57:53Z</time>
      </trkpt>
      <trkpt lat="43.015419" lon="-9.230383">
        <ele>77.482</ele>
        <time>2019-06-21T18:57:54Z</time>
      </trkpt>
      <trkpt lat="43.015392" lon="-9.230221">
        <ele>76.968</ele>
        <time>2019-06-21T18:57:55Z</time>
      </trkpt>
      <trkpt lat="43.015358" lon="-9.230074">
        <ele>75.742</ele>
        <time>2019-06-21T18:57:56Z</time>
      </trkpt>
      <trkpt lat="43.015324" lon="-9.229922">
        <ele>75.026</ele>
        <time>2019-06-21T18:57:57Z</time>
      </trkpt>
      <trkpt lat="43.015294" lon="-9.229779">
        <ele>75.008</ele>
        <time>2019-06-21T18:57:58Z</time>
      </trkpt>
      <trkpt lat="43.015265" lon="-9.229648">
        <ele>75.059</ele>
        <time>2019-06-21T18:57:59Z</time>
      </trkpt>
      <trkpt lat="43.015229" lon="-9.229547">
        <ele>74.923</ele>
        <time>2019-06-21T18:58:00Z</time>
      </trkpt>
      <trkpt lat="43.015174" lon="-9.229438">
        <ele>74.645</ele>
        <time>2019-06-21T18:58:01Z</time>
      </trkpt>
      <trkpt lat="43.015105" lon="-9.229356">
        <ele>74.117</ele>
        <time>2019-06-21T18:58:02Z</time>
      </trkpt>
      <trkpt lat="43.015000" lon="-9.229324">
        <ele>72.964</ele>
        <time>2019-06-21T18:58:03Z</time>
      </trkpt>
      <trkpt lat="43.014888" lon="-9.229285">
        <ele>70.610</ele>
        <time>2019-06-21T18:58:04Z</time>
      </trkpt>
      <trkpt lat="43.014778" lon="-9.229247">
        <ele>68.454</ele>
        <time>2019-06-21T18:58:05Z</time>
      </trkpt>
      <trkpt lat="43.014662" lon="-9.229203">
        <ele>66.586</ele>
        <time>2019-06-21T18:58:06Z</time>
      </trkpt>
      <trkpt lat="43.014539" lon="-9.229160">
        <ele>64.824</ele>
        <time>2019-06-21T18:58:07Z</time>
      </trkpt>
      <trkpt lat="43.014415" lon="-9.229111">
        <ele>63.504</ele>
        <time>2019-06-21T18:58:08Z</time>
      </trkpt>
      <trkpt lat="43.014288" lon="-9.229063">
        <ele>62.614</ele>
        <time>2019-06-21T18:58:09Z</time>
      </trkpt>
      <trkpt lat="43.014156" lon="-9.229019">
        <ele>61.508</ele>
        <time>2019-06-21T18:58:10Z</time>
      </trkpt>
      <trkpt lat="43.014026" lon="-9.228959">
        <ele>61.485</ele>
        <time>2019-06-21T18:58:11Z</time>
      </trkpt>
      <trkpt lat="43.013890" lon="-9.228908">
        <ele>60.979</ele>
        <time>2019-06-21T18:58:12Z</time>
      </trkpt>
      <trkpt lat="43.013766" lon="-9.228845">
        <ele>59.851</ele>
        <time>2019-06-21T18:58:13Z</time>
      </trkpt>
      <trkpt lat="43.013648" lon="-9.228784">
        <ele>58.443</ele>
        <time>2019-06-21T18:58:14Z</time>
      </trkpt>
      <trkpt lat="43.013540" lon="-9.228727">
        <ele>57.360</ele>
        <time>2019-06-21T18:58:15Z</time>
      </trkpt>
      <trkpt lat="43.013400" lon="-9.228678">
        <ele>55.946</ele>
        <time>2019-06-21T18:58:16Z</time>
      </trkpt>
      <trkpt lat="43.013266" lon="-9.228624">
        <ele>54.850</ele>
        <time>2019-06-21T18:58:17Z</time>
      </trkpt>
      <trkpt lat="43.013123" lon="-9.228560">
        <ele>54.342</ele>
        <time>2019-06-21T18:58:18Z</time>
      </trkpt>
      <trkpt lat="43.013016" lon="-9.228538">
        <ele>53.958</ele>
        <time>2019-06-21T18:58:19Z</time>
      </trkpt>
      <trkpt lat="43.012891" lon="-9.228482">
        <ele>53.452</ele>
        <time>2019-06-21T18:58:20Z</time>
      </trkpt>
      <trkpt lat="43.012760" lon="-9.228425">
        <ele>52.917</ele>
        <time>2019-06-21T18:58:21Z</time>
      </trkpt>
      <trkpt lat="43.012630" lon="-9.228369">
        <ele>52.408</ele>
        <time>2019-06-21T18:58:22Z</time>
      </trkpt>
      <trkpt lat="43.012504" lon="-9.228329">
        <ele>52.048</ele>
        <time>2019-06-21T18:58:23Z</time>
      </trkpt>
      <trkpt lat="43.012380" lon="-9.228280">
        <ele>52.592</ele>
        <time>2019-06-21T18:58:24Z</time>
      </trkpt>
      <trkpt lat="43.012263" lon="-9.228224">
        <ele>52.994</ele>
        <time>2019-06-21T18:58:25Z</time>
      </trkpt>
      <trkpt lat="43.012151" lon="-9.228176">
        <ele>52.576</ele>
        <time>2019-06-21T18:58:26Z</time>
      </trkpt>
      <trkpt lat="43.012056" lon="-9.228141">
        <ele>51.813</ele>
        <time>2019-06-21T18:58:27Z</time>
      </trkpt>
      <trkpt lat="43.011975" lon="-9.228098">
        <ele>51.279</ele>
        <time>2019-06-21T18:58:28Z</time>
      </trkpt>
      <trkpt lat="43.011888" lon="-9.228065">
        <ele>50.623</ele>
        <time>2019-06-21T18:58:29Z</time>
      </trkpt>
      <trkpt lat="43.011803" lon="-9.228034">
        <ele>49.935</ele>
        <time>2019-06-21T18:58:30Z</time>
      </trkpt>
      <trkpt lat="43.011726" lon="-9.227999">
        <ele>49.268</ele>
        <time>2019-06-21T18:58:31Z</time>
      </trkpt>
      <trkpt lat="43.011654" lon="-9.227968">
        <ele>48.742</ele>
        <time>2019-06-21T18:58:32Z</time>
      </trkpt>
      <trkpt lat="43.011595" lon="-9.227949">
        <ele>48.626</ele>
        <time>2019-06-21T18:58:33Z</time>
      </trkpt>
      <trkpt lat="43.011520" lon="-9.227925">
        <ele>48.508</ele>
        <time>2019-06-21T18:58:35Z</time>
      </trkpt>
      <trkpt lat="43.011470" lon="-9.227900">
        <ele>48.429</ele>
        <time>2019-06-21T18:58:52Z</time>
      </trkpt>
      <trkpt lat="43.011385" lon="-9.227826">
        <ele>48.213</ele>
        <time>2019-06-21T18:58:54Z</time>
      </trkpt>
      <trkpt lat="43.011318" lon="-9.227762">
        <ele>48.265</ele>
        <time>2019-06-21T18:58:55Z</time>
      </trkpt>
      <trkpt lat="43.011233" lon="-9.227674">
        <ele>48.477</ele>
        <time>2019-06-21T18:58:56Z</time>
      </trkpt>
      <trkpt lat="43.011143" lon="-9.227586">
        <ele>48.814</ele>
        <time>2019-06-21T18:58:57Z</time>
      </trkpt>
      <trkpt lat="43.011048" lon="-9.227484">
        <ele>49.270</ele>
        <time>2019-06-21T18:58:58Z</time>
      </trkpt>
      <trkpt lat="43.010939" lon="-9.227365">
        <ele>49.374</ele>
        <time>2019-06-21T18:58:59Z</time>
      </trkpt>
      <trkpt lat="43.010822" lon="-9.227248">
        <ele>49.186</ele>
        <time>2019-06-21T18:59:00Z</time>
      </trkpt>
      <trkpt lat="43.010716" lon="-9.227134">
        <ele>49.052</ele>
        <time>2019-06-21T18:59:01Z</time>
      </trkpt>
      <trkpt lat="43.010603" lon="-9.227026">
        <ele>48.553</ele>
        <time>2019-06-21T18:59:02Z</time>
      </trkpt>
      <trkpt lat="43.010476" lon="-9.226902">
        <ele>47.608</ele>
        <time>2019-06-21T18:59:03Z</time>
      </trkpt>
      <trkpt lat="43.010350" lon="-9.226777">
        <ele>45.508</ele>
        <time>2019-06-21T18:59:04Z</time>
      </trkpt>
      <trkpt lat="43.010222" lon="-9.226641">
        <ele>43.658</ele>
        <time>2019-06-21T18:59:05Z</time>
      </trkpt>
      <trkpt lat="43.010092" lon="-9.226505">
        <ele>44.272</ele>
        <time>2019-06-21T18:59:06Z</time>
      </trkpt>
      <trkpt lat="43.009966" lon="-9.226371">
        <ele>44.424</ele>
        <time>2019-06-21T18:59:07Z</time>
      </trkpt>
      <trkpt lat="43.009839" lon="-9.226241">
        <ele>46.216</ele>
        <time>2019-06-21T18:59:08Z</time>
      </trkpt>
      <trkpt lat="43.009711" lon="-9.226104">
        <ele>48.173</ele>
        <time>2019-06-21T18:59:09Z</time>
      </trkpt>
      <trkpt lat="43.009583" lon="-9.225980">
        <ele>50.489</ele>
        <time>2019-06-21T18:59:10Z</time>
      </trkpt>
      <trkpt lat="43.009455" lon="-9.225854">
        <ele>52.723</ele>
        <time>2019-06-21T18:59:11Z</time>
      </trkpt>
      <trkpt lat="43.009334" lon="-9.225732">
        <ele>53.565</ele>
        <time>2019-06-21T18:59:12Z</time>
      </trkpt>
      <trkpt lat="43.009215" lon="-9.225625">
        <ele>53.725</ele>
        <time>2019-06-21T18:59:13Z</time>
      </trkpt>
      <trkpt lat="43.009106" lon="-9.225530">
        <ele>53.726</ele>
        <time>2019-06-21T18:59:14Z</time>
      </trkpt>
      <trkpt lat="43.008997" lon="-9.225424">
        <ele>54.108</ele>
        <time>2019-06-21T18:59:15Z</time>
      </trkpt>
      <trkpt lat="43.008894" lon="-9.225314">
        <ele>54.508</ele>
        <time>2019-06-21T18:59:16Z</time>
      </trkpt>
      <trkpt lat="43.008800" lon="-9.225213">
        <ele>55.525</ele>
        <time>2019-06-21T18:59:17Z</time>
      </trkpt>
      <trkpt lat="43.008713" lon="-9.225113">
        <ele>56.259</ele>
        <time>2019-06-21T18:59:18Z</time>
      </trkpt>
      <trkpt lat="43.008628" lon="-9.225000">
        <ele>56.351</ele>
        <time>2019-06-21T18:59:19Z</time>
      </trkpt>
      <trkpt lat="43.008557" lon="-9.224883">
        <ele>56.233</ele>
        <time>2019-06-21T18:59:20Z</time>
      </trkpt>
      <trkpt lat="43.008494" lon="-9.224743">
        <ele>56.240</ele>
        <time>2019-06-21T18:59:21Z</time>
      </trkpt>
      <trkpt lat="43.008447" lon="-9.224603">
        <ele>56.766</ele>
        <time>2019-06-21T18:59:22Z</time>
      </trkpt>
      <trkpt lat="43.008416" lon="-9.224448">
        <ele>57.930</ele>
        <time>2019-06-21T18:59:23Z</time>
      </trkpt>
      <trkpt lat="43.008392" lon="-9.224270">
        <ele>60.572</ele>
        <time>2019-06-21T18:59:24Z</time>
      </trkpt>
      <trkpt lat="43.008378" lon="-9.224079">
        <ele>62.839</ele>
        <time>2019-06-21T18:59:25Z</time>
      </trkpt>
      <trkpt lat="43.008365" lon="-9.223882">
        <ele>64.301</ele>
        <time>2019-06-21T18:59:26Z</time>
      </trkpt>
      <trkpt lat="43.008349" lon="-9.223675">
        <ele>65.021</ele>
        <time>2019-06-21T18:59:27Z</time>
      </trkpt>
      <trkpt lat="43.008335" lon="-9.223469">
        <ele>64.008</ele>
        <time>2019-06-21T18:59:28Z</time>
      </trkpt>
      <trkpt lat="43.008326" lon="-9.223258">
        <ele>62.036</ele>
        <time>2019-06-21T18:59:29Z</time>
      </trkpt>
      <trkpt lat="43.008317" lon="-9.223049">
        <ele>59.560</ele>
        <time>2019-06-21T18:59:30Z</time>
      </trkpt>
      <trkpt lat="43.008308" lon="-9.222841">
        <ele>57.222</ele>
        <time>2019-06-21T18:59:31Z</time>
      </trkpt>
      <trkpt lat="43.008291" lon="-9.222632">
        <ele>56.264</ele>
        <time>2019-06-21T18:59:32Z</time>
      </trkpt>
      <trkpt lat="43.008277" lon="-9.222425">
        <ele>55.931</ele>
        <time>2019-06-21T18:59:33Z</time>
      </trkpt>
      <trkpt lat="43.008269" lon="-9.222231">
        <ele>56.187</ele>
        <time>2019-06-21T18:59:34Z</time>
      </trkpt>
      <trkpt lat="43.008262" lon="-9.222035">
        <ele>55.881</ele>
        <time>2019-06-21T18:59:35Z</time>
      </trkpt>
      <trkpt lat="43.008241" lon="-9.221844">
        <ele>54.943</ele>
        <time>2019-06-21T18:59:36Z</time>
      </trkpt>
      <trkpt lat="43.008218" lon="-9.221683">
        <ele>53.972</ele>
        <time>2019-06-21T18:59:37Z</time>
      </trkpt>
      <trkpt lat="43.008204" lon="-9.221505">
        <ele>53.913</ele>
        <time>2019-06-21T18:59:38Z</time>
      </trkpt>
      <trkpt lat="43.008195" lon="-9.221349">
        <ele>54.214</ele>
        <time>2019-06-21T18:59:39Z</time>
      </trkpt>
      <trkpt lat="43.008193" lon="-9.221193">
        <ele>55.008</ele>
        <time>2019-06-21T18:59:40Z</time>
      </trkpt>
      <trkpt lat="43.008189" lon="-9.221051">
        <ele>55.230</ele>
        <time>2019-06-21T18:59:41Z</time>
      </trkpt>
      <trkpt lat="43.008194" lon="-9.220899">
        <ele>55.184</ele>
        <time>2019-06-21T18:59:42Z</time>
      </trkpt>
      <trkpt lat="43.008198" lon="-9.220748">
        <ele>54.786</ele>
        <time>2019-06-21T18:59:43Z</time>
      </trkpt>
      <trkpt lat="43.008235" lon="-9.220603">
        <ele>55.368</ele>
        <time>2019-06-21T18:59:44Z</time>
      </trkpt>
      <trkpt lat="43.008279" lon="-9.220449">
        <ele>55.935</ele>
        <time>2019-06-21T18:59:45Z</time>
      </trkpt>
      <trkpt lat="43.008339" lon="-9.220299">
        <ele>56.351</ele>
        <time>2019-06-21T18:59:46Z</time>
      </trkpt>
      <trkpt lat="43.008412" lon="-9.220148">
        <ele>54.515</ele>
        <time>2019-06-21T18:59:47Z</time>
      </trkpt>
      <trkpt lat="43.008494" lon="-9.220003">
        <ele>52.497</ele>
        <time>2019-06-21T18:59:48Z</time>
      </trkpt>
      <trkpt lat="43.008574" lon="-9.219861">
        <ele>51.012</ele>
        <time>2019-06-21T18:59:49Z</time>
      </trkpt>
      <trkpt lat="43.008650" lon="-9.219719">
        <ele>49.832</ele>
        <time>2019-06-21T18:59:50Z</time>
      </trkpt>
      <trkpt lat="43.008726" lon="-9.219583">
        <ele>49.305</ele>
        <time>2019-06-21T18:59:51Z</time>
      </trkpt>
      <trkpt lat="43.008800" lon="-9.219452">
        <ele>48.508</ele>
        <time>2019-06-21T18:59:52Z</time>
      </trkpt>
      <trkpt lat="43.008871" lon="-9.219317">
        <ele>48.364</ele>
        <time>2019-06-21T18:59:53Z</time>
      </trkpt>
      <trkpt lat="43.008934" lon="-9.219181">
        <ele>47.698</ele>
        <time>2019-06-21T18:59:54Z</time>
      </trkpt>
      <trkpt lat="43.008984" lon="-9.219054">
        <ele>46.440</ele>
        <time>2019-06-21T18:59:55Z</time>
      </trkpt>
      <trkpt lat="43.009013" lon="-9.218919">
        <ele>44.892</ele>
        <time>2019-06-21T18:59:56Z</time>
      </trkpt>
      <trkpt lat="43.009027" lon="-9.218767">
        <ele>43.259</ele>
        <time>2019-06-21T18:59:57Z</time>
      </trkpt>
      <trkpt lat="43.009034" lon="-9.218611">
        <ele>41.655</ele>
        <time>2019-06-21T18:59:58Z</time>
      </trkpt>
      <trkpt lat="43.009022" lon="-9.218447">
        <ele>40.679</ele>
        <time>2019-06-21T18:59:59Z</time>
      </trkpt>
      <trkpt lat="43.009017" lon="-9.218254">
        <ele>39.981</ele>
        <time>2019-06-21T19:00:00Z</time>
      </trkpt>
      <trkpt lat="43.009010" lon="-9.218055">
        <ele>39.958</ele>
        <time>2019-06-21T19:00:01Z</time>
      </trkpt>
      <trkpt lat="43.008991" lon="-9.217868">
        <ele>40.852</ele>
        <time>2019-06-21T19:00:02Z</time>
      </trkpt>
      <trkpt lat="43.008981" lon="-9.217673">
        <ele>41.517</ele>
        <time>2019-06-21T19:00:03Z</time>
      </trkpt>
      <trkpt lat="43.008962" lon="-9.217500">
        <ele>41.508</ele>
        <time>2019-06-21T19:00:04Z</time>
      </trkpt>
      <trkpt lat="43.008948" lon="-9.217325">
        <ele>42.618</ele>
        <time>2019-06-21T19:00:05Z</time>
      </trkpt>
      <trkpt lat="43.008919" lon="-9.217160">
        <ele>43.582</ele>
        <time>2019-06-21T19:00:06Z</time>
      </trkpt>
      <trkpt lat="43.008865" lon="-9.217004">
        <ele>44.684</ele>
        <time>2019-06-21T19:00:07Z</time>
      </trkpt>
      <trkpt lat="43.008798" lon="-9.216851">
        <ele>45.146</ele>
        <time>2019-06-21T19:00:08Z</time>
      </trkpt>
      <trkpt lat="43.008715" lon="-9.216716">
        <ele>45.513</ele>
        <time>2019-06-21T19:00:09Z</time>
      </trkpt>
      <trkpt lat="43.008610" lon="-9.216598">
        <ele>46.039</ele>
        <time>2019-06-21T19:00:10Z</time>
      </trkpt>
      <trkpt lat="43.008506" lon="-9.216498">
        <ele>46.673</ele>
        <time>2019-06-21T19:00:11Z</time>
      </trkpt>
      <trkpt lat="43.008377" lon="-9.216426">
        <ele>47.645</ele>
        <time>2019-06-21T19:00:12Z</time>
      </trkpt>
      <trkpt lat="43.008241" lon="-9.216370">
        <ele>48.825</ele>
        <time>2019-06-21T19:00:13Z</time>
      </trkpt>
      <trkpt lat="43.008101" lon="-9.216346">
        <ele>50.026</ele>
        <time>2019-06-21T19:00:14Z</time>
      </trkpt>
      <trkpt lat="43.007952" lon="-9.216347">
        <ele>52.508</ele>
        <time>2019-06-21T19:00:15Z</time>
      </trkpt>
      <trkpt lat="43.007806" lon="-9.216354">
        <ele>55.608</ele>
        <time>2019-06-21T19:00:16Z</time>
      </trkpt>
      <trkpt lat="43.007656" lon="-9.216363">
        <ele>58.335</ele>
        <time>2019-06-21T19:00:17Z</time>
      </trkpt>
      <trkpt lat="43.007519" lon="-9.216369">
        <ele>60.719</ele>
        <time>2019-06-21T19:00:18Z</time>
      </trkpt>
      <trkpt lat="43.007378" lon="-9.216382">
        <ele>64.151</ele>
        <time>2019-06-21T19:00:19Z</time>
      </trkpt>
      <trkpt lat="43.007227" lon="-9.216390">
        <ele>67.923</ele>
        <time>2019-06-21T19:00:20Z</time>
      </trkpt>
      <trkpt lat="43.007077" lon="-9.216395">
        <ele>70.690</ele>
        <time>2019-06-21T19:00:21Z</time>
      </trkpt>
      <trkpt lat="43.006928" lon="-9.216413">
        <ele>73.176</ele>
        <time>2019-06-21T19:00:22Z</time>
      </trkpt>
      <trkpt lat="43.006777" lon="-9.216432">
        <ele>74.580</ele>
        <time>2019-06-21T19:00:23Z</time>
      </trkpt>
      <trkpt lat="43.006626" lon="-9.216452">
        <ele>75.382</ele>
        <time>2019-06-21T19:00:24Z</time>
      </trkpt>
      <trkpt lat="43.006485" lon="-9.216473">
        <ele>75.158</ele>
        <time>2019-06-21T19:00:25Z</time>
      </trkpt>
      <trkpt lat="43.006355" lon="-9.216491">
        <ele>74.752</ele>
        <time>2019-06-21T19:00:26Z</time>
      </trkpt>
      <trkpt lat="43.006230" lon="-9.216495">
        <ele>74.117</ele>
        <time>2019-06-21T19:00:27Z</time>
      </trkpt>
      <trkpt lat="43.006098" lon="-9.216495">
        <ele>73.608</ele>
        <time>2019-06-21T19:00:28Z</time>
      </trkpt>
      <trkpt lat="43.005973" lon="-9.216485">
        <ele>73.828</ele>
        <time>2019-06-21T19:00:29Z</time>
      </trkpt>
      <trkpt lat="43.005848" lon="-9.216452">
        <ele>74.042</ele>
        <time>2019-06-21T19:00:30Z</time>
      </trkpt>
      <trkpt lat="43.005724" lon="-9.216396">
        <ele>76.044</ele>
        <time>2019-06-21T19:00:31Z</time>
      </trkpt>
      <trkpt lat="43.005599" lon="-9.216317">
        <ele>78.596</ele>
        <time>2019-06-21T19:00:32Z</time>
      </trkpt>
      <trkpt lat="43.005474" lon="-9.216238">
        <ele>80.023</ele>
        <time>2019-06-21T19:00:33Z</time>
      </trkpt>
      <trkpt lat="43.005352" lon="-9.216144">
        <ele>81.319</ele>
        <time>2019-06-21T19:00:34Z</time>
      </trkpt>
      <trkpt lat="43.005234" lon="-9.216058">
        <ele>82.183</ele>
        <time>2019-06-21T19:00:35Z</time>
      </trkpt>
      <trkpt lat="43.005116" lon="-9.215966">
        <ele>81.965</ele>
        <time>2019-06-21T19:00:36Z</time>
      </trkpt>
      <trkpt lat="43.004996" lon="-9.215874">
        <ele>81.753</ele>
        <time>2019-06-21T19:00:37Z</time>
      </trkpt>
      <trkpt lat="43.004880" lon="-9.215788">
        <ele>81.004</ele>
        <time>2019-06-21T19:00:38Z</time>
      </trkpt>
      <trkpt lat="43.004765" lon="-9.215692">
        <ele>80.014</ele>
        <time>2019-06-21T19:00:39Z</time>
      </trkpt>
      <trkpt lat="43.004650" lon="-9.215599">
        <ele>79.408</ele>
        <time>2019-06-21T19:00:40Z</time>
      </trkpt>
      <trkpt lat="43.004532" lon="-9.215506">
        <ele>78.768</ele>
        <time>2019-06-21T19:00:41Z</time>
      </trkpt>
      <trkpt lat="43.004411" lon="-9.215411">
        <ele>78.162</ele>
        <time>2019-06-21T19:00:42Z</time>
      </trkpt>
      <trkpt lat="43.004295" lon="-9.215312">
        <ele>78.194</ele>
        <time>2019-06-21T19:00:43Z</time>
      </trkpt>
      <trkpt lat="43.004170" lon="-9.215219">
        <ele>78.066</ele>
        <time>2019-06-21T19:00:44Z</time>
      </trkpt>
      <trkpt lat="43.004039" lon="-9.215116">
        <ele>78.563</ele>
        <time>2019-06-21T19:00:45Z</time>
      </trkpt>
      <trkpt lat="43.003901" lon="-9.215019">
        <ele>79.059</ele>
        <time>2019-06-21T19:00:46Z</time>
      </trkpt>
      <trkpt lat="43.003764" lon="-9.214907">
        <ele>80.893</ele>
        <time>2019-06-21T19:00:47Z</time>
      </trkpt>
      <trkpt lat="43.003625" lon="-9.214795">
        <ele>82.115</ele>
        <time>2019-06-21T19:00:48Z</time>
      </trkpt>
      <trkpt lat="43.003485" lon="-9.214687">
        <ele>82.865</ele>
        <time>2019-06-21T19:00:49Z</time>
      </trkpt>
      <trkpt lat="43.003341" lon="-9.214575">
        <ele>83.468</ele>
        <time>2019-06-21T19:00:50Z</time>
      </trkpt>
      <trkpt lat="43.003200" lon="-9.214460">
        <ele>82.514</ele>
        <time>2019-06-21T19:00:51Z</time>
      </trkpt>
      <trkpt lat="43.003060" lon="-9.214341">
        <ele>82.008</ele>
        <time>2019-06-21T19:00:52Z</time>
      </trkpt>
      <trkpt lat="43.002915" lon="-9.214227">
        <ele>81.659</ele>
        <time>2019-06-21T19:00:53Z</time>
      </trkpt>
      <trkpt lat="43.002776" lon="-9.214115">
        <ele>81.253</ele>
        <time>2019-06-21T19:00:54Z</time>
      </trkpt>
      <trkpt lat="43.002624" lon="-9.214002">
        <ele>81.765</ele>
        <time>2019-06-21T19:00:55Z</time>
      </trkpt>
      <trkpt lat="43.002481" lon="-9.213886">
        <ele>81.277</ele>
        <time>2019-06-21T19:00:56Z</time>
      </trkpt>
      <trkpt lat="43.002334" lon="-9.213778">
        <ele>82.354</ele>
        <time>2019-06-21T19:00:57Z</time>
      </trkpt>
      <trkpt lat="43.002183" lon="-9.213674">
        <ele>82.860</ele>
        <time>2019-06-21T19:00:58Z</time>
      </trkpt>
      <trkpt lat="43.002041" lon="-9.213561">
        <ele>83.224</ele>
        <time>2019-06-21T19:00:59Z</time>
      </trkpt>
      <trkpt lat="43.001899" lon="-9.213455">
        <ele>83.316</ele>
        <time>2019-06-21T19:01:00Z</time>
      </trkpt>
      <trkpt lat="43.001754" lon="-9.213340">
        <ele>82.362</ele>
        <time>2019-06-21T19:01:01Z</time>
      </trkpt>
      <trkpt lat="43.001612" lon="-9.213224">
        <ele>81.583</ele>
        <time>2019-06-21T19:01:02Z</time>
      </trkpt>
      <trkpt lat="43.001474" lon="-9.213113">
        <ele>81.111</ele>
        <time>2019-06-21T19:01:03Z</time>
      </trkpt>
      <trkpt lat="43.001332" lon="-9.213003">
        <ele>81.008</ele>
        <time>2019-06-21T19:01:04Z</time>
      </trkpt>
      <trkpt lat="43.001189" lon="-9.212905">
        <ele>81.079</ele>
        <time>2019-06-21T19:01:05Z</time>
      </trkpt>
      <trkpt lat="43.001047" lon="-9.212802">
        <ele>81.093</ele>
        <time>2019-06-21T19:01:06Z</time>
      </trkpt>
      <trkpt lat="43.000910" lon="-9.212692">
        <ele>81.345</ele>
        <time>2019-06-21T19:01:07Z</time>
      </trkpt>
      <trkpt lat="43.000777" lon="-9.212590">
        <ele>82.137</ele>
        <time>2019-06-21T19:01:08Z</time>
      </trkpt>
      <trkpt lat="43.000644" lon="-9.212485">
        <ele>83.314</ele>
        <time>2019-06-21T19:01:09Z</time>
      </trkpt>
      <trkpt lat="43.000530" lon="-9.212386">
        <ele>84.380</ele>
        <time>2019-06-21T19:01:10Z</time>
      </trkpt>
      <trkpt lat="43.000402" lon="-9.212281">
        <ele>86.014</ele>
        <time>2019-06-21T19:01:11Z</time>
      </trkpt>
      <trkpt lat="43.000279" lon="-9.212180">
        <ele>88.016</ele>
        <time>2019-06-21T19:01:12Z</time>
      </trkpt>
      <trkpt lat="43.000172" lon="-9.212085">
        <ele>89.561</ele>
        <time>2019-06-21T19:01:13Z</time>
      </trkpt>
      <trkpt lat="43.000040" lon="-9.211994">
        <ele>91.421</ele>
        <time>2019-06-21T19:01:14Z</time>
      </trkpt>
      <trkpt lat="42.999910" lon="-9.211888">
        <ele>92.613</ele>
        <time>2019-06-21T19:01:15Z</time>
      </trkpt>
      <trkpt lat="42.999787" lon="-9.211793">
        <ele>92.508</ele>
        <time>2019-06-21T19:01:16Z</time>
      </trkpt>
      <trkpt lat="42.999656" lon="-9.211702">
        <ele>91.969</ele>
        <time>2019-06-21T19:01:17Z</time>
      </trkpt>
      <trkpt lat="42.999538" lon="-9.211623">
        <ele>91.743</ele>
        <time>2019-06-21T19:01:18Z</time>
      </trkpt>
      <trkpt lat="42.999413" lon="-9.211548">
        <ele>91.285</ele>
        <time>2019-06-21T19:01:19Z</time>
      </trkpt>
      <trkpt lat="42.999280" lon="-9.211477">
        <ele>89.937</ele>
        <time>2019-06-21T19:01:20Z</time>
      </trkpt>
      <trkpt lat="42.999142" lon="-9.211409">
        <ele>89.184</ele>
        <time>2019-06-21T19:01:21Z</time>
      </trkpt>
      <trkpt lat="42.998997" lon="-9.211353">
        <ele>88.840</ele>
        <time>2019-06-21T19:01:22Z</time>
      </trkpt>
      <trkpt lat="42.998847" lon="-9.211298">
        <ele>88.574</ele>
        <time>2019-06-21T19:01:23Z</time>
      </trkpt>
      <trkpt lat="42.998687" lon="-9.211253">
        <ele>87.896</ele>
        <time>2019-06-21T19:01:24Z</time>
      </trkpt>
      <trkpt lat="42.998542" lon="-9.211218">
        <ele>87.375</ele>
        <time>2019-06-21T19:01:25Z</time>
      </trkpt>
      <trkpt lat="42.998395" lon="-9.211176">
        <ele>87.128</ele>
        <time>2019-06-21T19:01:26Z</time>
      </trkpt>
      <trkpt lat="42.998240" lon="-9.211126">
        <ele>87.320</ele>
        <time>2019-06-21T19:01:27Z</time>
      </trkpt>
      <trkpt lat="42.998100" lon="-9.211081">
        <ele>87.908</ele>
        <time>2019-06-21T19:01:28Z</time>
      </trkpt>
      <trkpt lat="42.997945" lon="-9.211030">
        <ele>88.730</ele>
        <time>2019-06-21T19:01:29Z</time>
      </trkpt>
      <trkpt lat="42.997792" lon="-9.210988">
        <ele>89.414</ele>
        <time>2019-06-21T19:01:30Z</time>
      </trkpt>
      <trkpt lat="42.997635" lon="-9.210944">
        <ele>90.316</ele>
        <time>2019-06-21T19:01:31Z</time>
      </trkpt>
      <trkpt lat="42.997475" lon="-9.210898">
        <ele>91.028</ele>
        <time>2019-06-21T19:01:32Z</time>
      </trkpt>
      <trkpt lat="42.997313" lon="-9.210848">
        <ele>91.095</ele>
        <time>2019-06-21T19:01:33Z</time>
      </trkpt>
      <trkpt lat="42.997166" lon="-9.210805">
        <ele>90.721</ele>
        <time>2019-06-21T19:01:34Z</time>
      </trkpt>
      <trkpt lat="42.997010" lon="-9.210761">
        <ele>90.295</ele>
        <time>2019-06-21T19:01:35Z</time>
      </trkpt>
      <trkpt lat="42.996865" lon="-9.210719">
        <ele>90.257</ele>
        <time>2019-06-21T19:01:36Z</time>
      </trkpt>
      <trkpt lat="42.996720" lon="-9.210684">
        <ele>90.931</ele>
        <time>2019-06-21T19:01:37Z</time>
      </trkpt>
      <trkpt lat="42.996575" lon="-9.210654">
        <ele>91.361</ele>
        <time>2019-06-21T19:01:38Z</time>
      </trkpt>
      <trkpt lat="42.996451" lon="-9.210620">
        <ele>91.507</ele>
        <time>2019-06-21T19:01:39Z</time>
      </trkpt>
      <trkpt lat="42.996325" lon="-9.210578">
        <ele>92.108</ele>
        <time>2019-06-21T19:01:40Z</time>
      </trkpt>
      <trkpt lat="42.996207" lon="-9.210546">
        <ele>92.746</ele>
        <time>2019-06-21T19:01:41Z</time>
      </trkpt>
      <trkpt lat="42.996096" lon="-9.210509">
        <ele>93.280</ele>
        <time>2019-06-21T19:01:42Z</time>
      </trkpt>
      <trkpt lat="42.995993" lon="-9.210485">
        <ele>93.872</ele>
        <time>2019-06-21T19:01:43Z</time>
      </trkpt>
      <trkpt lat="42.995899" lon="-9.210460">
        <ele>94.484</ele>
        <time>2019-06-21T19:01:44Z</time>
      </trkpt>
      <trkpt lat="42.995818" lon="-9.210437">
        <ele>94.981</ele>
        <time>2019-06-21T19:01:45Z</time>
      </trkpt>
      <trkpt lat="42.995754" lon="-9.210426">
        <ele>94.957</ele>
        <time>2019-06-21T19:01:46Z</time>
      </trkpt>
      <trkpt lat="42.995710" lon="-9.210413">
        <ele>95.091</ele>
        <time>2019-06-21T19:01:47Z</time>
      </trkpt>
      <trkpt lat="42.995656" lon="-9.210417">
        <ele>95.043</ele>
        <time>2019-06-21T19:01:49Z</time>
      </trkpt>
      <trkpt lat="42.995600" lon="-9.210470">
        <ele>94.692</ele>
        <time>2019-06-21T19:01:51Z</time>
      </trkpt>
      <trkpt lat="42.995562" lon="-9.210557">
        <ele>94.073</ele>
        <time>2019-06-21T19:01:52Z</time>
      </trkpt>
      <trkpt lat="42.995531" lon="-9.210700">
        <ele>92.820</ele>
        <time>2019-06-21T19:01:53Z</time>
      </trkpt>
      <trkpt lat="42.995492" lon="-9.210846">
        <ele>91.708</ele>
        <time>2019-06-21T19:01:54Z</time>
      </trkpt>
      <trkpt lat="42.995454" lon="-9.211025">
        <ele>90.552</ele>
        <time>2019-06-21T19:01:55Z</time>
      </trkpt>
      <trkpt lat="42.995410" lon="-9.211221">
        <ele>89.426</ele>
        <time>2019-06-21T19:01:56Z</time>
      </trkpt>
      <trkpt lat="42.995362" lon="-9.211431">
        <ele>88.478</ele>
        <time>2019-06-21T19:01:57Z</time>
      </trkpt>
      <trkpt lat="42.995317" lon="-9.211668">
        <ele>87.070</ele>
        <time>2019-06-21T19:01:58Z</time>
      </trkpt>
      <trkpt lat="42.995269" lon="-9.211904">
        <ele>86.237</ele>
        <time>2019-06-21T19:01:59Z</time>
      </trkpt>
      <trkpt lat="42.995214" lon="-9.212150">
        <ele>85.653</ele>
        <time>2019-06-21T19:02:00Z</time>
      </trkpt>
      <trkpt lat="42.995158" lon="-9.212404">
        <ele>85.117</ele>
        <time>2019-06-21T19:02:01Z</time>
      </trkpt>
      <trkpt lat="42.995109" lon="-9.212654">
        <ele>84.459</ele>
        <time>2019-06-21T19:02:02Z</time>
      </trkpt>
      <trkpt lat="42.995062" lon="-9.212908">
        <ele>84.841</ele>
        <time>2019-06-21T19:02:03Z</time>
      </trkpt>
      <trkpt lat="42.995025" lon="-9.213151">
        <ele>86.781</ele>
        <time>2019-06-21T19:02:04Z</time>
      </trkpt>
      <trkpt lat="42.995000" lon="-9.213402">
        <ele>89.709</ele>
        <time>2019-06-21T19:02:05Z</time>
      </trkpt>
      <trkpt lat="42.994991" lon="-9.213652">
        <ele>92.908</ele>
        <time>2019-06-21T19:02:06Z</time>
      </trkpt>
      <trkpt lat="42.994997" lon="-9.213884">
        <ele>96.987</ele>
        <time>2019-06-21T19:02:07Z</time>
      </trkpt>
      <trkpt lat="42.994997" lon="-9.214111">
        <ele>98.691</ele>
        <time>2019-06-21T19:02:08Z</time>
      </trkpt>
      <trkpt lat="42.994996" lon="-9.214313">
        <ele>101.213</ele>
        <time>2019-06-21T19:02:09Z</time>
      </trkpt>
      <trkpt lat="42.995006" lon="-9.214512">
        <ele>103.655</ele>
        <time>2019-06-21T19:02:10Z</time>
      </trkpt>
      <trkpt lat="42.995045" lon="-9.214683">
        <ele>104.972</ele>
        <time>2019-06-21T19:02:11Z</time>
      </trkpt>
      <trkpt lat="42.995103" lon="-9.214859">
        <ele>105.938</ele>
        <time>2019-06-21T19:02:12Z</time>
      </trkpt>
      <trkpt lat="42.995178" lon="-9.215039">
        <ele>107.052</ele>
        <time>2019-06-21T19:02:13Z</time>
      </trkpt>
      <trkpt lat="42.995268" lon="-9.215210">
        <ele>107.674</ele>
        <time>2019-06-21T19:02:14Z</time>
      </trkpt>
      <trkpt lat="42.995367" lon="-9.215389">
        <ele>107.278</ele>
        <time>2019-06-21T19:02:15Z</time>
      </trkpt>
      <trkpt lat="42.995469" lon="-9.215554">
        <ele>106.533</ele>
        <time>2019-06-21T19:02:16Z</time>
      </trkpt>
      <trkpt lat="42.995557" lon="-9.215745">
        <ele>106.326</ele>
        <time>2019-06-21T19:02:17Z</time>
      </trkpt>
      <trkpt lat="42.995647" lon="-9.215933">
        <ele>106.708</ele>
        <time>2019-06-21T19:02:18Z</time>
      </trkpt>
      <trkpt lat="42.995736" lon="-9.216120">
        <ele>107.170</ele>
        <time>2019-06-21T19:02:19Z</time>
      </trkpt>
      <trkpt lat="42.995813" lon="-9.216314">
        <ele>107.814</ele>
        <time>2019-06-21T19:02:20Z</time>
      </trkpt>
      <trkpt lat="42.995874" lon="-9.216516">
        <ele>108.966</ele>
        <time>2019-06-21T19:02:21Z</time>
      </trkpt>
      <trkpt lat="42.995926" lon="-9.216710">
        <ele>109.898</ele>
        <time>2019-06-21T19:02:22Z</time>
      </trkpt>
      <trkpt lat="42.995963" lon="-9.216900">
        <ele>111.115</ele>
        <time>2019-06-21T19:02:23Z</time>
      </trkpt>
      <trkpt lat="42.995996" lon="-9.217074">
        <ele>112.351</ele>
        <time>2019-06-21T19:02:24Z</time>
      </trkpt>
      <trkpt lat="42.996008" lon="-9.217243">
        <ele>113.685</ele>
        <time>2019-06-21T19:02:25Z</time>
      </trkpt>
      <trkpt lat="42.996002" lon="-9.217426">
        <ele>115.097</ele>
        <time>2019-06-21T19:02:26Z</time>
      </trkpt>
      <trkpt lat="42.995984" lon="-9.217607">
        <ele>116.097</ele>
        <time>2019-06-21T19:02:27Z</time>
      </trkpt>
      <trkpt lat="42.995932" lon="-9.217800">
        <ele>117.123</ele>
        <time>2019-06-21T19:02:28Z</time>
      </trkpt>
      <trkpt lat="42.995873" lon="-9.217994">
        <ele>116.725</ele>
        <time>2019-06-21T19:02:29Z</time>
      </trkpt>
      <trkpt lat="42.995816" lon="-9.218167">
        <ele>116.208</ele>
        <time>2019-06-21T19:02:30Z</time>
      </trkpt>
      <trkpt lat="42.995765" lon="-9.218347">
        <ele>115.352</ele>
        <time>2019-06-21T19:02:31Z</time>
      </trkpt>
      <trkpt lat="42.995707" lon="-9.218522">
        <ele>114.326</ele>
        <time>2019-06-21T19:02:32Z</time>
      </trkpt>
      <trkpt lat="42.995650" lon="-9.218696">
        <ele>113.928</ele>
        <time>2019-06-21T19:02:33Z</time>
      </trkpt>
      <trkpt lat="42.995555" lon="-9.218851">
        <ele>114.450</ele>
        <time>2019-06-21T19:02:34Z</time>
      </trkpt>
      <trkpt lat="42.995453" lon="-9.219032">
        <ele>114.167</ele>
        <time>2019-06-21T19:02:35Z</time>
      </trkpt>
      <trkpt lat="42.995348" lon="-9.219216">
        <ele>113.313</ele>
        <time>2019-06-21T19:02:36Z</time>
      </trkpt>
      <trkpt lat="42.995220" lon="-9.219404">
        <ele>113.237</ele>
        <time>2019-06-21T19:02:37Z</time>
      </trkpt>
      <trkpt lat="42.995098" lon="-9.219579">
        <ele>111.529</ele>
        <time>2019-06-21T19:02:38Z</time>
      </trkpt>
      <trkpt lat="42.994975" lon="-9.219768">
        <ele>109.564</ele>
        <time>2019-06-21T19:02:39Z</time>
      </trkpt>
      <trkpt lat="42.994856" lon="-9.219959">
        <ele>107.306</ele>
        <time>2019-06-21T19:02:40Z</time>
      </trkpt>
      <trkpt lat="42.994729" lon="-9.220148">
        <ele>105.016</ele>
        <time>2019-06-21T19:02:41Z</time>
      </trkpt>
      <trkpt lat="42.994600" lon="-9.220330">
        <ele>104.708</ele>
        <time>2019-06-21T19:02:42Z</time>
      </trkpt>
      <trkpt lat="42.994476" lon="-9.220524">
        <ele>104.979</ele>
        <time>2019-06-21T19:02:43Z</time>
      </trkpt>
      <trkpt lat="42.994363" lon="-9.220709">
        <ele>105.753</ele>
        <time>2019-06-21T19:02:44Z</time>
      </trkpt>
      <trkpt lat="42.994241" lon="-9.220888">
        <ele>107.165</ele>
        <time>2019-06-21T19:02:45Z</time>
      </trkpt>
      <trkpt lat="42.994123" lon="-9.221055">
        <ele>108.197</ele>
        <time>2019-06-21T19:02:46Z</time>
      </trkpt>
      <trkpt lat="42.994007" lon="-9.221223">
        <ele>108.964</ele>
        <time>2019-06-21T19:02:47Z</time>
      </trkpt>
      <trkpt lat="42.993929" lon="-9.221411">
        <ele>109.450</ele>
        <time>2019-06-21T19:02:48Z</time>
      </trkpt>
      <trkpt lat="42.993850" lon="-9.221600">
        <ele>109.264</ele>
        <time>2019-06-21T19:02:49Z</time>
      </trkpt>
      <trkpt lat="42.993785" lon="-9.221824">
        <ele>108.496</ele>
        <time>2019-06-21T19:02:50Z</time>
      </trkpt>
      <trkpt lat="42.993725" lon="-9.222071">
        <ele>107.142</ele>
        <time>2019-06-21T19:02:51Z</time>
      </trkpt>
      <trkpt lat="42.993680" lon="-9.222325">
        <ele>105.122</ele>
        <time>2019-06-21T19:02:52Z</time>
      </trkpt>
      <trkpt lat="42.993629" lon="-9.222577">
        <ele>102.914</ele>
        <time>2019-06-21T19:02:53Z</time>
      </trkpt>
      <trkpt lat="42.993578" lon="-9.222821">
        <ele>101.808</ele>
        <time>2019-06-21T19:02:54Z</time>
      </trkpt>
      <trkpt lat="42.993535" lon="-9.223072">
        <ele>100.697</ele>
        <time>2019-06-21T19:02:55Z</time>
      </trkpt>
      <trkpt lat="42.993480" lon="-9.223318">
        <ele>99.181</ele>
        <time>2019-06-21T19:02:56Z</time>
      </trkpt>
      <trkpt lat="42.993438" lon="-9.223508">
        <ele>98.873</ele>
        <time>2019-06-21T19:02:57Z</time>
      </trkpt>
      <trkpt lat="42.993390" lon="-9.223752">
        <ele>99.335</ele>
        <time>2019-06-21T19:02:58Z</time>
      </trkpt>
      <trkpt lat="42.993342" lon="-9.223974">
        <ele>100.642</ele>
        <time>2019-06-21T19:02:59Z</time>
      </trkpt>
      <trkpt lat="42.993297" lon="-9.224179">
        <ele>102.458</ele>
        <time>2019-06-21T19:03:00Z</time>
      </trkpt>
      <trkpt lat="42.993248" lon="-9.224364">
        <ele>104.792</ele>
        <time>2019-06-21T19:03:01Z</time>
      </trkpt>
      <trkpt lat="42.993185" lon="-9.224537">
        <ele>106.294</ele>
        <time>2019-06-21T19:03:02Z</time>
      </trkpt>
      <trkpt lat="42.993107" lon="-9.224705">
        <ele>106.887</ele>
        <time>2019-06-21T19:03:03Z</time>
      </trkpt>
      <trkpt lat="42.993016" lon="-9.224873">
        <ele>105.642</ele>
        <time>2019-06-21T19:03:04Z</time>
      </trkpt>
      <trkpt lat="42.992920" lon="-9.225050">
        <ele>103.226</ele>
        <time>2019-06-21T19:03:05Z</time>
      </trkpt>
      <trkpt lat="42.992822" lon="-9.225226">
        <ele>100.808</ele>
        <time>2019-06-21T19:03:06Z</time>
      </trkpt>
      <trkpt lat="42.992725" lon="-9.225401">
        <ele>99.191</ele>
        <time>2019-06-21T19:03:07Z</time>
      </trkpt>
      <trkpt lat="42.992630" lon="-9.225573">
        <ele>97.995</ele>
        <time>2019-06-21T19:03:08Z</time>
      </trkpt>
      <trkpt lat="42.992542" lon="-9.225740">
        <ele>97.147</ele>
        <time>2019-06-21T19:03:09Z</time>
      </trkpt>
      <trkpt lat="42.992467" lon="-9.225893">
        <ele>97.689</ele>
        <time>2019-06-21T19:03:10Z</time>
      </trkpt>
      <trkpt lat="42.992413" lon="-9.226039">
        <ele>99.016</ele>
        <time>2019-06-21T19:03:11Z</time>
      </trkpt>
      <trkpt lat="42.992394" lon="-9.226188">
        <ele>100.642</ele>
        <time>2019-06-21T19:03:12Z</time>
      </trkpt>
      <trkpt lat="42.992382" lon="-9.226327">
        <ele>102.296</ele>
        <time>2019-06-21T19:03:13Z</time>
      </trkpt>
      <trkpt lat="42.992463" lon="-9.226447">
        <ele>103.288</ele>
        <time>2019-06-21T19:03:14Z</time>
      </trkpt>
      <trkpt lat="42.992542" lon="-9.226562">
        <ele>103.791</ele>
        <time>2019-06-21T19:03:15Z</time>
      </trkpt>
      <trkpt lat="42.992627" lon="-9.226680">
        <ele>103.581</ele>
        <time>2019-06-21T19:03:16Z</time>
      </trkpt>
      <trkpt lat="42.992718" lon="-9.226812">
        <ele>103.819</ele>
        <time>2019-06-21T19:03:17Z</time>
      </trkpt>
      <trkpt lat="42.992814" lon="-9.226953">
        <ele>104.608</ele>
        <time>2019-06-21T19:03:18Z</time>
      </trkpt>
      <trkpt lat="42.992913" lon="-9.227097">
        <ele>105.812</ele>
        <time>2019-06-21T19:03:19Z</time>
      </trkpt>
      <trkpt lat="42.993011" lon="-9.227248">
        <ele>107.736</ele>
        <time>2019-06-21T19:03:20Z</time>
      </trkpt>
      <trkpt lat="42.993112" lon="-9.227394">
        <ele>108.398</ele>
        <time>2019-06-21T19:03:21Z</time>
      </trkpt>
      <trkpt lat="42.993212" lon="-9.227540">
        <ele>108.640</ele>
        <time>2019-06-21T19:03:22Z</time>
      </trkpt>
      <trkpt lat="42.993311" lon="-9.227658">
        <ele>108.177</ele>
        <time>2019-06-21T19:03:23Z</time>
      </trkpt>
      <trkpt lat="42.993404" lon="-9.227780">
        <ele>106.753</ele>
        <time>2019-06-21T19:03:24Z</time>
      </trkpt>
      <trkpt lat="42.993488" lon="-9.227897">
        <ele>105.647</ele>
        <time>2019-06-21T19:03:25Z</time>
      </trkpt>
      <trkpt lat="42.993569" lon="-9.228013">
        <ele>105.219</ele>
        <time>2019-06-21T19:03:26Z</time>
      </trkpt>
      <trkpt lat="42.993645" lon="-9.228134">
        <ele>104.664</ele>
        <time>2019-06-21T19:03:27Z</time>
      </trkpt>
      <trkpt lat="42.993719" lon="-9.228265">
        <ele>104.006</ele>
        <time>2019-06-21T19:03:28Z</time>
      </trkpt>
      <trkpt lat="42.993792" lon="-9.228396">
        <ele>103.716</ele>
        <time>2019-06-21T19:03:29Z</time>
      </trkpt>
      <trkpt lat="42.993850" lon="-9.228548">
        <ele>103.908</ele>
        <time>2019-06-21T19:03:30Z</time>
      </trkpt>
      <trkpt lat="42.993892" lon="-9.228708">
        <ele>104.379</ele>
        <time>2019-06-21T19:03:31Z</time>
      </trkpt>
      <trkpt lat="42.993903" lon="-9.228892">
        <ele>104.993</ele>
        <time>2019-06-21T19:03:32Z</time>
      </trkpt>
      <trkpt lat="42.993922" lon="-9.229048">
        <ele>104.765</ele>
        <time>2019-06-21T19:03:33Z</time>
      </trkpt>
      <trkpt lat="42.993942" lon="-9.229200">
        <ele>104.227</ele>
        <time>2019-06-21T19:03:34Z</time>
      </trkpt>
      <trkpt lat="42.993958" lon="-9.229360">
        <ele>102.724</ele>
        <time>2019-06-21T19:03:35Z</time>
      </trkpt>
      <trkpt lat="42.993982" lon="-9.229502">
        <ele>101.160</ele>
        <time>2019-06-21T19:03:36Z</time>
      </trkpt>
      <trkpt lat="42.993999" lon="-9.229644">
        <ele>99.444</ele>
        <time>2019-06-21T19:03:37Z</time>
      </trkpt>
      <trkpt lat="42.994004" lon="-9.229797">
        <ele>98.176</ele>
        <time>2019-06-21T19:03:38Z</time>
      </trkpt>
      <trkpt lat="42.994020" lon="-9.229952">
        <ele>97.044</ele>
        <time>2019-06-21T19:03:39Z</time>
      </trkpt>
      <trkpt lat="42.994050" lon="-9.230100">
        <ele>95.905</ele>
        <time>2019-06-21T19:03:40Z</time>
      </trkpt>
      <trkpt lat="42.994089" lon="-9.230264">
        <ele>95.015</ele>
        <time>2019-06-21T19:03:41Z</time>
      </trkpt>
      <trkpt lat="42.994144" lon="-9.230445">
        <ele>94.808</ele>
        <time>2019-06-21T19:03:42Z</time>
      </trkpt>
      <trkpt lat="42.994215" lon="-9.230623">
        <ele>96.177</ele>
        <time>2019-06-21T19:03:43Z</time>
      </trkpt>
      <trkpt lat="42.994300" lon="-9.230806">
        <ele>98.291</ele>
        <time>2019-06-21T19:03:44Z</time>
      </trkpt>
      <trkpt lat="42.994386" lon="-9.231005">
        <ele>99.843</ele>
        <time>2019-06-21T19:03:45Z</time>
      </trkpt>
      <trkpt lat="42.994470" lon="-9.231200">
        <ele>100.945</ele>
        <time>2019-06-21T19:03:46Z</time>
      </trkpt>
      <trkpt lat="42.994560" lon="-9.231401">
        <ele>102.762</ele>
        <time>2019-06-21T19:03:47Z</time>
      </trkpt>
      <trkpt lat="42.994644" lon="-9.231591">
        <ele>104.398</ele>
        <time>2019-06-21T19:03:48Z</time>
      </trkpt>
      <trkpt lat="42.994721" lon="-9.231777">
        <ele>105.452</ele>
        <time>2019-06-21T19:03:49Z</time>
      </trkpt>
      <trkpt lat="42.994792" lon="-9.231948">
        <ele>105.594</ele>
        <time>2019-06-21T19:03:50Z</time>
      </trkpt>
      <trkpt lat="42.994862" lon="-9.232112">
        <ele>105.637</ele>
        <time>2019-06-21T19:03:51Z</time>
      </trkpt>
      <trkpt lat="42.994938" lon="-9.232275">
        <ele>105.649</ele>
        <time>2019-06-21T19:03:52Z</time>
      </trkpt>
      <trkpt lat="42.995017" lon="-9.232442">
        <ele>105.813</ele>
        <time>2019-06-21T19:03:53Z</time>
      </trkpt>
      <trkpt lat="42.995087" lon="-9.232603">
        <ele>105.908</ele>
        <time>2019-06-21T19:03:54Z</time>
      </trkpt>
      <trkpt lat="42.995160" lon="-9.232760">
        <ele>105.586</ele>
        <time>2019-06-21T19:03:55Z</time>
      </trkpt>
      <trkpt lat="42.995232" lon="-9.232919">
        <ele>104.740</ele>
        <time>2019-06-21T19:03:56Z</time>
      </trkpt>
      <trkpt lat="42.995309" lon="-9.233096">
        <ele>103.592</ele>
        <time>2019-06-21T19:03:57Z</time>
      </trkpt>
      <trkpt lat="42.995389" lon="-9.233277">
        <ele>101.634</ele>
        <time>2019-06-21T19:03:58Z</time>
      </trkpt>
      <trkpt lat="42.995484" lon="-9.233476">
        <ele>99.641</ele>
        <time>2019-06-21T19:03:59Z</time>
      </trkpt>
      <trkpt lat="42.995578" lon="-9.233692">
        <ele>97.517</ele>
        <time>2019-06-21T19:04:00Z</time>
      </trkpt>
      <trkpt lat="42.995675" lon="-9.233902">
        <ele>95.751</ele>
        <time>2019-06-21T19:04:01Z</time>
      </trkpt>
      <trkpt lat="42.995777" lon="-9.234120">
        <ele>94.823</ele>
        <time>2019-06-21T19:04:02Z</time>
      </trkpt>
      <trkpt lat="42.995877" lon="-9.234358">
        <ele>92.398</ele>
        <time>2019-06-21T19:04:03Z</time>
      </trkpt>
      <trkpt lat="42.995986" lon="-9.234596">
        <ele>87.815</ele>
        <time>2019-06-21T19:04:04Z</time>
      </trkpt>
      <trkpt lat="42.996089" lon="-9.234832">
        <ele>83.026</ele>
        <time>2019-06-21T19:04:05Z</time>
      </trkpt>
      <trkpt lat="42.996195" lon="-9.235067">
        <ele>77.808</ele>
        <time>2019-06-21T19:04:06Z</time>
      </trkpt>
      <trkpt lat="42.996302" lon="-9.235311">
        <ele>73.052</ele>
        <time>2019-06-21T19:04:07Z</time>
      </trkpt>
      <trkpt lat="42.996410" lon="-9.235536">
        <ele>70.146</ele>
        <time>2019-06-21T19:04:08Z</time>
      </trkpt>
      <trkpt lat="42.996510" lon="-9.235768">
        <ele>68.938</ele>
        <time>2019-06-21T19:04:09Z</time>
      </trkpt>
      <trkpt lat="42.996613" lon="-9.235993">
        <ele>68.360</ele>
        <time>2019-06-21T19:04:10Z</time>
      </trkpt>
      <trkpt lat="42.996709" lon="-9.236207">
        <ele>68.647</ele>
        <time>2019-06-21T19:04:11Z</time>
      </trkpt>
      <trkpt lat="42.996804" lon="-9.236407">
        <ele>68.893</ele>
        <time>2019-06-21T19:04:12Z</time>
      </trkpt>
      <trkpt lat="42.996889" lon="-9.236608">
        <ele>70.227</ele>
        <time>2019-06-21T19:04:13Z</time>
      </trkpt>
      <trkpt lat="42.996980" lon="-9.236796">
        <ele>70.889</ele>
        <time>2019-06-21T19:04:14Z</time>
      </trkpt>
      <trkpt lat="42.997061" lon="-9.236982">
        <ele>72.336</ele>
        <time>2019-06-21T19:04:15Z</time>
      </trkpt>
      <trkpt lat="42.997132" lon="-9.237159">
        <ele>73.317</ele>
        <time>2019-06-21T19:04:16Z</time>
      </trkpt>
      <trkpt lat="42.997187" lon="-9.237330">
        <ele>73.618</ele>
        <time>2019-06-21T19:04:17Z</time>
      </trkpt>
      <trkpt lat="42.997230" lon="-9.237507">
        <ele>74.008</ele>
        <time>2019-06-21T19:04:18Z</time>
      </trkpt>
      <trkpt lat="42.997264" lon="-9.237677">
        <ele>73.736</ele>
        <time>2019-06-21T19:04:19Z</time>
      </trkpt>
      <trkpt lat="42.997264" lon="-9.237870">
        <ele>73.340</ele>
        <time>2019-06-21T19:04:20Z</time>
      </trkpt>
      <trkpt lat="42.997260" lon="-9.238066">
        <ele>72.832</ele>
        <time>2019-06-21T19:04:21Z</time>
      </trkpt>
      <trkpt lat="42.997255" lon="-9.238269">
        <ele>73.414</ele>
        <time>2019-06-21T19:04:22Z</time>
      </trkpt>
      <trkpt lat="42.997247" lon="-9.238463">
        <ele>73.861</ele>
        <time>2019-06-21T19:04:23Z</time>
      </trkpt>
      <trkpt lat="42.997240" lon="-9.238678">
        <ele>74.137</ele>
        <time>2019-06-21T19:04:24Z</time>
      </trkpt>
      <trkpt lat="42.997234" lon="-9.238886">
        <ele>74.991</ele>
        <time>2019-06-21T19:04:25Z</time>
      </trkpt>
      <trkpt lat="42.997232" lon="-9.239094">
        <ele>75.093</ele>
        <time>2019-06-21T19:04:26Z</time>
      </trkpt>
      <trkpt lat="42.997231" lon="-9.239306">
        <ele>74.582</ele>
        <time>2019-06-21T19:04:27Z</time>
      </trkpt>
      <trkpt lat="42.997227" lon="-9.239480">
        <ele>73.843</ele>
        <time>2019-06-21T19:04:28Z</time>
      </trkpt>
      <trkpt lat="42.997221" lon="-9.239692">
        <ele>72.217</ele>
        <time>2019-06-21T19:04:29Z</time>
      </trkpt>
      <trkpt lat="42.997217" lon="-9.239893">
        <ele>70.808</ele>
        <time>2019-06-21T19:04:30Z</time>
      </trkpt>
      <trkpt lat="42.997216" lon="-9.240089">
        <ele>69.091</ele>
        <time>2019-06-21T19:04:31Z</time>
      </trkpt>
      <trkpt lat="42.997218" lon="-9.240311">
        <ele>66.565</ele>
        <time>2019-06-21T19:04:32Z</time>
      </trkpt>
      <trkpt lat="42.997209" lon="-9.240506">
        <ele>63.757</ele>
        <time>2019-06-21T19:04:33Z</time>
      </trkpt>
      <trkpt lat="42.997209" lon="-9.240708">
        <ele>60.349</ele>
        <time>2019-06-21T19:04:34Z</time>
      </trkpt>
      <trkpt lat="42.997202" lon="-9.240887">
        <ele>57.946</ele>
        <time>2019-06-21T19:04:35Z</time>
      </trkpt>
      <trkpt lat="42.997192" lon="-9.241053">
        <ele>57.322</ele>
        <time>2019-06-21T19:04:36Z</time>
      </trkpt>
      <trkpt lat="42.997189" lon="-9.241211">
        <ele>57.156</ele>
        <time>2019-06-21T19:04:37Z</time>
      </trkpt>
      <trkpt lat="42.997188" lon="-9.241362">
        <ele>57.158</ele>
        <time>2019-06-21T19:04:38Z</time>
      </trkpt>
      <trkpt lat="42.997188" lon="-9.241519">
        <ele>57.226</ele>
        <time>2019-06-21T19:04:39Z</time>
      </trkpt>
      <trkpt lat="42.997187" lon="-9.241662">
        <ele>57.347</ele>
        <time>2019-06-21T19:04:40Z</time>
      </trkpt>
      <trkpt lat="42.997186" lon="-9.241788">
        <ele>56.411</ele>
        <time>2019-06-21T19:04:41Z</time>
      </trkpt>
      <trkpt lat="42.997192" lon="-9.241898">
        <ele>55.608</ele>
        <time>2019-06-21T19:04:42Z</time>
      </trkpt>
      <trkpt lat="42.997204" lon="-9.242005">
        <ele>55.095</ele>
        <time>2019-06-21T19:04:43Z</time>
      </trkpt>
      <trkpt lat="42.997229" lon="-9.242108">
        <ele>54.449</ele>
        <time>2019-06-21T19:04:44Z</time>
      </trkpt>
      <trkpt lat="42.997268" lon="-9.242210">
        <ele>53.911</ele>
        <time>2019-06-21T19:04:45Z</time>
      </trkpt>
      <trkpt lat="42.997318" lon="-9.242301">
        <ele>52.953</ele>
        <time>2019-06-21T19:04:46Z</time>
      </trkpt>
      <trkpt lat="42.997372" lon="-9.242370">
        <ele>52.250</ele>
        <time>2019-06-21T19:04:47Z</time>
      </trkpt>
      <trkpt lat="42.997427" lon="-9.242424">
        <ele>51.676</ele>
        <time>2019-06-21T19:04:48Z</time>
      </trkpt>
      <trkpt lat="42.997467" lon="-9.242481">
        <ele>51.130</ele>
        <time>2019-06-21T19:04:49Z</time>
      </trkpt>
      <trkpt lat="42.997501" lon="-9.242535">
        <ele>50.742</ele>
        <time>2019-06-21T19:04:50Z</time>
      </trkpt>
      <trkpt lat="42.997546" lon="-9.242609">
        <ele>50.089</ele>
        <time>2019-06-21T19:04:52Z</time>
      </trkpt>
      <trkpt lat="42.997572" lon="-9.242706">
        <ele>49.306</ele>
        <time>2019-06-21T19:04:54Z</time>
      </trkpt>
      <trkpt lat="42.997573" lon="-9.242824">
        <ele>48.026</ele>
        <time>2019-06-21T19:04:56Z</time>
      </trkpt>
      <trkpt lat="42.997516" lon="-9.242866">
        <ele>47.408</ele>
        <time>2019-06-21T19:04:57Z</time>
      </trkpt>
      <trkpt lat="42.997446" lon="-9.242910">
        <ele>46.371</ele>
        <time>2019-06-21T19:04:58Z</time>
      </trkpt>
      <trkpt lat="42.997340" lon="-9.242956">
        <ele>45.075</ele>
        <time>2019-06-21T19:04:59Z</time>
      </trkpt>
      <trkpt lat="42.997218" lon="-9.243012">
        <ele>43.687</ele>
        <time>2019-06-21T19:05:00Z</time>
      </trkpt>
      <trkpt lat="42.997086" lon="-9.243079">
        <ele>42.619</ele>
        <time>2019-06-21T19:05:01Z</time>
      </trkpt>
      <trkpt lat="42.996952" lon="-9.243143">
        <ele>41.786</ele>
        <time>2019-06-21T19:05:02Z</time>
      </trkpt>
      <trkpt lat="42.996810" lon="-9.243203">
        <ele>43.162</ele>
        <time>2019-06-21T19:05:03Z</time>
      </trkpt>
      <trkpt lat="42.996676" lon="-9.243267">
        <ele>44.666</ele>
        <time>2019-06-21T19:05:04Z</time>
      </trkpt>
      <trkpt lat="42.996544" lon="-9.243331">
        <ele>45.848</ele>
        <time>2019-06-21T19:05:05Z</time>
      </trkpt>
      <trkpt lat="42.996403" lon="-9.243404">
        <ele>46.885</ele>
        <time>2019-06-21T19:05:06Z</time>
      </trkpt>
      <trkpt lat="42.996270" lon="-9.243469">
        <ele>46.589</ele>
        <time>2019-06-21T19:05:07Z</time>
      </trkpt>
      <trkpt lat="42.996145" lon="-9.243533">
        <ele>45.617</ele>
        <time>2019-06-21T19:05:08Z</time>
      </trkpt>
      <trkpt lat="42.996026" lon="-9.243603">
        <ele>43.908</ele>
        <time>2019-06-21T19:05:09Z</time>
      </trkpt>
      <trkpt lat="42.995908" lon="-9.243666">
        <ele>42.041</ele>
        <time>2019-06-21T19:05:10Z</time>
      </trkpt>
      <trkpt lat="42.995792" lon="-9.243724">
        <ele>40.875</ele>
        <time>2019-06-21T19:05:11Z</time>
      </trkpt>
      <trkpt lat="42.995679" lon="-9.243774">
        <ele>40.477</ele>
        <time>2019-06-21T19:05:12Z</time>
      </trkpt>
      <trkpt lat="42.995559" lon="-9.243814">
        <ele>40.349</ele>
        <time>2019-06-21T19:05:13Z</time>
      </trkpt>
      <trkpt lat="42.995433" lon="-9.243830">
        <ele>40.176</ele>
        <time>2019-06-21T19:05:14Z</time>
      </trkpt>
      <trkpt lat="42.995288" lon="-9.243848">
        <ele>39.752</ele>
        <time>2019-06-21T19:05:15Z</time>
      </trkpt>
      <trkpt lat="42.995138" lon="-9.243857">
        <ele>38.296</ele>
        <time>2019-06-21T19:05:16Z</time>
      </trkpt>
      <trkpt lat="42.994969" lon="-9.243852">
        <ele>36.778</ele>
        <time>2019-06-21T19:05:17Z</time>
      </trkpt>
      <trkpt lat="42.994784" lon="-9.243873">
        <ele>34.843</ele>
        <time>2019-06-21T19:05:18Z</time>
      </trkpt>
      <trkpt lat="42.994588" lon="-9.243878">
        <ele>33.864</ele>
        <time>2019-06-21T19:05:19Z</time>
      </trkpt>
      <trkpt lat="42.994398" lon="-9.243884">
        <ele>32.610</ele>
        <time>2019-06-21T19:05:20Z</time>
      </trkpt>
      <trkpt lat="42.994225" lon="-9.243902">
        <ele>30.308</ele>
        <time>2019-06-21T19:05:21Z</time>
      </trkpt>
      <trkpt lat="42.994029" lon="-9.243886">
        <ele>28.617</ele>
        <time>2019-06-21T19:05:22Z</time>
      </trkpt>
      <trkpt lat="42.993830" lon="-9.243884">
        <ele>26.091</ele>
        <time>2019-06-21T19:05:23Z</time>
      </trkpt>
      <trkpt lat="42.993646" lon="-9.243885">
        <ele>22.713</ele>
        <time>2019-06-21T19:05:24Z</time>
      </trkpt>
      <trkpt lat="42.993465" lon="-9.243892">
        <ele>20.315</ele>
        <time>2019-06-21T19:05:25Z</time>
      </trkpt>
      <trkpt lat="42.993290" lon="-9.243906">
        <ele>19.042</ele>
        <time>2019-06-21T19:05:26Z</time>
      </trkpt>
      <trkpt lat="42.993101" lon="-9.243897">
        <ele>21.378</ele>
        <time>2019-06-21T19:05:27Z</time>
      </trkpt>
      <trkpt lat="42.992909" lon="-9.243901">
        <ele>20.292</ele>
        <time>2019-06-21T19:05:28Z</time>
      </trkpt>
      <trkpt lat="42.992716" lon="-9.243894">
        <ele>18.074</ele>
        <time>2019-06-21T19:05:29Z</time>
      </trkpt>
      <trkpt lat="42.992511" lon="-9.243891">
        <ele>15.114</ele>
        <time>2019-06-21T19:05:30Z</time>
      </trkpt>
      <trkpt lat="42.992303" lon="-9.243901">
        <ele>13.554</ele>
        <time>2019-06-21T19:05:31Z</time>
      </trkpt>
      <trkpt lat="42.992099" lon="-9.243894">
        <ele>13.009</ele>
        <time>2019-06-21T19:05:32Z</time>
      </trkpt>
      <trkpt lat="42.991888" lon="-9.243914">
        <ele>13.008</ele>
        <time>2019-06-21T19:05:33Z</time>
      </trkpt>
      <trkpt lat="42.991676" lon="-9.243923">
        <ele>13.784</ele>
        <time>2019-06-21T19:05:34Z</time>
      </trkpt>
      <trkpt lat="42.991472" lon="-9.243923">
        <ele>13.298</ele>
        <time>2019-06-21T19:05:35Z</time>
      </trkpt>
      <trkpt lat="42.991281" lon="-9.243915">
        <ele>13.430</ele>
        <time>2019-06-21T19:05:36Z</time>
      </trkpt>
      <trkpt lat="42.991090" lon="-9.243902">
        <ele>14.042</ele>
        <time>2019-06-21T19:05:37Z</time>
      </trkpt>
      <trkpt lat="42.990915" lon="-9.243897">
        <ele>14.759</ele>
        <time>2019-06-21T19:05:38Z</time>
      </trkpt>
      <trkpt lat="42.990739" lon="-9.243903">
        <ele>14.615</ele>
        <time>2019-06-21T19:05:39Z</time>
      </trkpt>
      <trkpt lat="42.990569" lon="-9.243907">
        <ele>14.099</ele>
        <time>2019-06-21T19:05:40Z</time>
      </trkpt>
      <trkpt lat="42.990406" lon="-9.243915">
        <ele>14.551</ele>
        <time>2019-06-21T19:05:41Z</time>
      </trkpt>
      <trkpt lat="42.990237" lon="-9.243923">
        <ele>14.952</ele>
        <time>2019-06-21T19:05:42Z</time>
      </trkpt>
      <trkpt lat="42.990060" lon="-9.243928">
        <ele>14.953</ele>
        <time>2019-06-21T19:05:43Z</time>
      </trkpt>
      <trkpt lat="42.989887" lon="-9.243931">
        <ele>14.808</ele>
        <time>2019-06-21T19:05:44Z</time>
      </trkpt>
      <trkpt lat="42.989728" lon="-9.243943">
        <ele>14.808</ele>
        <time>2019-06-21T19:05:45Z</time>
      </trkpt>
      <trkpt lat="42.989565" lon="-9.243950">
        <ele>14.828</ele>
        <time>2019-06-21T19:05:46Z</time>
      </trkpt>
      <trkpt lat="42.989401" lon="-9.243939">
        <ele>15.052</ele>
        <time>2019-06-21T19:05:47Z</time>
      </trkpt>
      <trkpt lat="42.989231" lon="-9.243934">
        <ele>15.694</ele>
        <time>2019-06-21T19:05:48Z</time>
      </trkpt>
      <trkpt lat="42.989060" lon="-9.243943">
        <ele>15.996</ele>
        <time>2019-06-21T19:05:49Z</time>
      </trkpt>
      <trkpt lat="42.988898" lon="-9.243953">
        <ele>16.053</ele>
        <time>2019-06-21T19:05:50Z</time>
      </trkpt>
      <trkpt lat="42.988753" lon="-9.243990">
        <ele>16.269</ele>
        <time>2019-06-21T19:05:51Z</time>
      </trkpt>
      <trkpt lat="42.988603" lon="-9.244049">
        <ele>16.673</ele>
        <time>2019-06-21T19:05:52Z</time>
      </trkpt>
      <trkpt lat="42.988453" lon="-9.244137">
        <ele>18.095</ele>
        <time>2019-06-21T19:05:53Z</time>
      </trkpt>
      <trkpt lat="42.988304" lon="-9.244227">
        <ele>18.954</ele>
        <time>2019-06-21T19:05:54Z</time>
      </trkpt>
      <trkpt lat="42.988145" lon="-9.244327">
        <ele>18.356</ele>
        <time>2019-06-21T19:05:55Z</time>
      </trkpt>
      <trkpt lat="42.987979" lon="-9.244432">
        <ele>18.011</ele>
        <time>2019-06-21T19:05:56Z</time>
      </trkpt>
      <trkpt lat="42.987811" lon="-9.244534">
        <ele>18.608</ele>
        <time>2019-06-21T19:05:57Z</time>
      </trkpt>
      <trkpt lat="42.987648" lon="-9.244649">
        <ele>19.928</ele>
        <time>2019-06-21T19:05:58Z</time>
      </trkpt>
      <trkpt lat="42.987482" lon="-9.244757">
        <ele>21.642</ele>
        <time>2019-06-21T19:05:59Z</time>
      </trkpt>
      <trkpt lat="42.987324" lon="-9.244864">
        <ele>24.024</ele>
        <time>2019-06-21T19:06:00Z</time>
      </trkpt>
      <trkpt lat="42.987161" lon="-9.244961">
        <ele>25.646</ele>
        <time>2019-06-21T19:06:01Z</time>
      </trkpt>
      <trkpt lat="42.986995" lon="-9.245059">
        <ele>26.973</ele>
        <time>2019-06-21T19:06:02Z</time>
      </trkpt>
      <trkpt lat="42.986832" lon="-9.245155">
        <ele>27.489</ele>
        <time>2019-06-21T19:06:03Z</time>
      </trkpt>
      <trkpt lat="42.986670" lon="-9.245259">
        <ele>27.883</ele>
        <time>2019-06-21T19:06:04Z</time>
      </trkpt>
      <trkpt lat="42.986513" lon="-9.245367">
        <ele>27.925</ele>
        <time>2019-06-21T19:06:05Z</time>
      </trkpt>
      <trkpt lat="42.986354" lon="-9.245455">
        <ele>27.893</ele>
        <time>2019-06-21T19:06:06Z</time>
      </trkpt>
      <trkpt lat="42.986206" lon="-9.245553">
        <ele>29.365</ele>
        <time>2019-06-21T19:06:07Z</time>
      </trkpt>
      <trkpt lat="42.986061" lon="-9.245646">
        <ele>30.121</ele>
        <time>2019-06-21T19:06:08Z</time>
      </trkpt>
      <trkpt lat="42.985917" lon="-9.245749">
        <ele>31.008</ele>
        <time>2019-06-21T19:06:09Z</time>
      </trkpt>
      <trkpt lat="42.985768" lon="-9.245844">
        <ele>32.372</ele>
        <time>2019-06-21T19:06:10Z</time>
      </trkpt>
      <trkpt lat="42.985615" lon="-9.245939">
        <ele>33.546</ele>
        <time>2019-06-21T19:06:11Z</time>
      </trkpt>
      <trkpt lat="42.985468" lon="-9.246036">
        <ele>34.828</ele>
        <time>2019-06-21T19:06:12Z</time>
      </trkpt>
      <trkpt lat="42.985324" lon="-9.246131">
        <ele>36.190</ele>
        <time>2019-06-21T19:06:13Z</time>
      </trkpt>
      <trkpt lat="42.985190" lon="-9.246223">
        <ele>37.787</ele>
        <time>2019-06-21T19:06:14Z</time>
      </trkpt>
      <trkpt lat="42.985056" lon="-9.246298">
        <ele>39.433</ele>
        <time>2019-06-21T19:06:15Z</time>
      </trkpt>
      <trkpt lat="42.984927" lon="-9.246338">
        <ele>41.177</ele>
        <time>2019-06-21T19:06:16Z</time>
      </trkpt>
      <trkpt lat="42.984801" lon="-9.246344">
        <ele>42.559</ele>
        <time>2019-06-21T19:06:17Z</time>
      </trkpt>
      <trkpt lat="42.984667" lon="-9.246334">
        <ele>43.869</ele>
        <time>2019-06-21T19:06:18Z</time>
      </trkpt>
      <trkpt lat="42.984532" lon="-9.246320">
        <ele>45.204</ele>
        <time>2019-06-21T19:06:19Z</time>
      </trkpt>
      <trkpt lat="42.984392" lon="-9.246304">
        <ele>47.224</ele>
        <time>2019-06-21T19:06:20Z</time>
      </trkpt>
      <trkpt lat="42.984250" lon="-9.246297">
        <ele>50.008</ele>
        <time>2019-06-21T19:06:21Z</time>
      </trkpt>
      <trkpt lat="42.984102" lon="-9.246294">
        <ele>52.529</ele>
        <time>2019-06-21T19:06:22Z</time>
      </trkpt>
      <trkpt lat="42.983946" lon="-9.246289">
        <ele>54.473</ele>
        <time>2019-06-21T19:06:23Z</time>
      </trkpt>
      <trkpt lat="42.983783" lon="-9.246277">
        <ele>55.595</ele>
        <time>2019-06-21T19:06:24Z</time>
      </trkpt>
      <trkpt lat="42.983615" lon="-9.246268">
        <ele>56.557</ele>
        <time>2019-06-21T19:06:25Z</time>
      </trkpt>
      <trkpt lat="42.983438" lon="-9.246247">
        <ele>56.234</ele>
        <time>2019-06-21T19:06:26Z</time>
      </trkpt>
      <trkpt lat="42.983275" lon="-9.246234">
        <ele>56.660</ele>
        <time>2019-06-21T19:06:27Z</time>
      </trkpt>
      <trkpt lat="42.983108" lon="-9.246215">
        <ele>57.834</ele>
        <time>2019-06-21T19:06:28Z</time>
      </trkpt>
      <trkpt lat="42.982939" lon="-9.246198">
        <ele>58.496</ele>
        <time>2019-06-21T19:06:29Z</time>
      </trkpt>
      <trkpt lat="42.982761" lon="-9.246189">
        <ele>58.868</ele>
        <time>2019-06-21T19:06:30Z</time>
      </trkpt>
      <trkpt lat="42.982601" lon="-9.246177">
        <ele>56.942</ele>
        <time>2019-06-21T19:06:31Z</time>
      </trkpt>
      <trkpt lat="42.982441" lon="-9.246169">
        <ele>55.326</ele>
        <time>2019-06-21T19:06:32Z</time>
      </trkpt>
      <trkpt lat="42.982287" lon="-9.246174">
        <ele>54.508</ele>
        <time>2019-06-21T19:06:33Z</time>
      </trkpt>
      <trkpt lat="42.982125" lon="-9.246192">
        <ele>56.369</ele>
        <time>2019-06-21T19:06:34Z</time>
      </trkpt>
      <trkpt lat="42.981965" lon="-9.246229">
        <ele>60.113</ele>
        <time>2019-06-21T19:06:35Z</time>
      </trkpt>
      <trkpt lat="42.981812" lon="-9.246269">
        <ele>64.125</ele>
        <time>2019-06-21T19:06:36Z</time>
      </trkpt>
      <trkpt lat="42.981662" lon="-9.246307">
        <ele>67.957</ele>
        <time>2019-06-21T19:06:37Z</time>
      </trkpt>
      <trkpt lat="42.981515" lon="-9.246346">
        <ele>68.514</ele>
        <time>2019-06-21T19:06:38Z</time>
      </trkpt>
      <trkpt lat="42.981370" lon="-9.246387">
        <ele>69.090</ele>
        <time>2019-06-21T19:06:39Z</time>
      </trkpt>
      <trkpt lat="42.981248" lon="-9.246430">
        <ele>69.644</ele>
        <time>2019-06-21T19:06:40Z</time>
      </trkpt>
      <trkpt lat="42.981119" lon="-9.246488">
        <ele>70.486</ele>
        <time>2019-06-21T19:06:41Z</time>
      </trkpt>
      <trkpt lat="42.980983" lon="-9.246559">
        <ele>71.985</ele>
        <time>2019-06-21T19:06:42Z</time>
      </trkpt>
      <trkpt lat="42.980844" lon="-9.246642">
        <ele>73.689</ele>
        <time>2019-06-21T19:06:43Z</time>
      </trkpt>
      <trkpt lat="42.980698" lon="-9.246723">
        <ele>76.017</ele>
        <time>2019-06-21T19:06:44Z</time>
      </trkpt>
      <trkpt lat="42.980559" lon="-9.246807">
        <ele>79.508</ele>
        <time>2019-06-21T19:06:45Z</time>
      </trkpt>
      <trkpt lat="42.980427" lon="-9.246890">
        <ele>82.371</ele>
        <time>2019-06-21T19:06:46Z</time>
      </trkpt>
      <trkpt lat="42.980301" lon="-9.246966">
        <ele>84.255</ele>
        <time>2019-06-21T19:06:47Z</time>
      </trkpt>
      <trkpt lat="42.980172" lon="-9.247049">
        <ele>86.167</ele>
        <time>2019-06-21T19:06:48Z</time>
      </trkpt>
      <trkpt lat="42.980043" lon="-9.247130">
        <ele>87.879</ele>
        <time>2019-06-21T19:06:49Z</time>
      </trkpt>
      <trkpt lat="42.979921" lon="-9.247197">
        <ele>89.616</ele>
        <time>2019-06-21T19:06:50Z</time>
      </trkpt>
      <trkpt lat="42.979792" lon="-9.247243">
        <ele>91.572</ele>
        <time>2019-06-21T19:06:51Z</time>
      </trkpt>
      <trkpt lat="42.979667" lon="-9.247259">
        <ele>92.656</ele>
        <time>2019-06-21T19:06:52Z</time>
      </trkpt>
      <trkpt lat="42.979542" lon="-9.247263">
        <ele>93.138</ele>
        <time>2019-06-21T19:06:53Z</time>
      </trkpt>
      <trkpt lat="42.979413" lon="-9.247229">
        <ele>93.323</ele>
        <time>2019-06-21T19:06:54Z</time>
      </trkpt>
      <trkpt lat="42.979284" lon="-9.247189">
        <ele>94.383</ele>
        <time>2019-06-21T19:06:55Z</time>
      </trkpt>
      <trkpt lat="42.979151" lon="-9.247143">
        <ele>95.811</ele>
        <time>2019-06-21T19:06:56Z</time>
      </trkpt>
      <trkpt lat="42.979032" lon="-9.247094">
        <ele>97.408</ele>
        <time>2019-06-21T19:06:57Z</time>
      </trkpt>
      <trkpt lat="42.978921" lon="-9.247035">
        <ele>98.715</ele>
        <time>2019-06-21T19:06:58Z</time>
      </trkpt>
      <trkpt lat="42.978811" lon="-9.246976">
        <ele>99.969</ele>
        <time>2019-06-21T19:06:59Z</time>
      </trkpt>
      <trkpt lat="42.978701" lon="-9.246909">
        <ele>101.221</ele>
        <time>2019-06-21T19:07:00Z</time>
      </trkpt>
      <trkpt lat="42.978606" lon="-9.246838">
        <ele>102.463</ele>
        <time>2019-06-21T19:07:01Z</time>
      </trkpt>
      <trkpt lat="42.978515" lon="-9.246770">
        <ele>103.470</ele>
        <time>2019-06-21T19:07:02Z</time>
      </trkpt>
      <trkpt lat="42.978428" lon="-9.246682">
        <ele>103.766</ele>
        <time>2019-06-21T19:07:03Z</time>
      </trkpt>
      <trkpt lat="42.978341" lon="-9.246588">
        <ele>104.060</ele>
        <time>2019-06-21T19:07:04Z</time>
      </trkpt>
      <trkpt lat="42.978256" lon="-9.246503">
        <ele>104.422</ele>
        <time>2019-06-21T19:07:05Z</time>
      </trkpt>
      <trkpt lat="42.978166" lon="-9.246404">
        <ele>104.622</ele>
        <time>2019-06-21T19:07:06Z</time>
      </trkpt>
      <trkpt lat="42.978076" lon="-9.246303">
        <ele>105.362</ele>
        <time>2019-06-21T19:07:07Z</time>
      </trkpt>
      <trkpt lat="42.977995" lon="-9.246203">
        <ele>105.708</ele>
        <time>2019-06-21T19:07:08Z</time>
      </trkpt>
      <trkpt lat="42.977907" lon="-9.246100">
        <ele>105.608</ele>
        <time>2019-06-21T19:07:09Z</time>
      </trkpt>
      <trkpt lat="42.977827" lon="-9.246000">
        <ele>106.175</ele>
        <time>2019-06-21T19:07:10Z</time>
      </trkpt>
      <trkpt lat="42.977773" lon="-9.245931">
        <ele>106.349</ele>
        <time>2019-06-21T19:07:11Z</time>
      </trkpt>
      <trkpt lat="42.977713" lon="-9.245861">
        <ele>107.331</ele>
        <time>2019-06-21T19:07:12Z</time>
      </trkpt>
      <trkpt lat="42.977660" lon="-9.245809">
        <ele>108.213</ele>
        <time>2019-06-21T19:07:13Z</time>
      </trkpt>
      <trkpt lat="42.977612" lon="-9.245789">
        <ele>108.850</ele>
        <time>2019-06-21T19:07:14Z</time>
      </trkpt>
      <trkpt lat="42.977533" lon="-9.245832">
        <ele>108.866</ele>
        <time>2019-06-21T19:07:16Z</time>
      </trkpt>
      <trkpt lat="42.977500" lon="-9.245910">
        <ele>109.040</ele>
        <time>2019-06-21T19:07:17Z</time>
      </trkpt>
      <trkpt lat="42.977465" lon="-9.246028">
        <ele>109.882</ele>
        <time>2019-06-21T19:07:18Z</time>
      </trkpt>
      <trkpt lat="42.977440" lon="-9.246162">
        <ele>111.218</ele>
        <time>2019-06-21T19:07:19Z</time>
      </trkpt>
      <trkpt lat="42.977419" lon="-9.246314">
        <ele>114.098</ele>
        <time>2019-06-21T19:07:20Z</time>
      </trkpt>
      <trkpt lat="42.977403" lon="-9.246471">
        <ele>116.817</ele>
        <time>2019-06-21T19:07:21Z</time>
      </trkpt>
      <trkpt lat="42.977386" lon="-9.246636">
        <ele>120.008</ele>
        <time>2019-06-21T19:07:22Z</time>
      </trkpt>
      <trkpt lat="42.977375" lon="-9.246804">
        <ele>122.244</ele>
        <time>2019-06-21T19:07:23Z</time>
      </trkpt>
      <trkpt lat="42.977373" lon="-9.246955">
        <ele>123.918</ele>
        <time>2019-06-21T19:07:24Z</time>
      </trkpt>
      <trkpt lat="42.977342" lon="-9.247095">
        <ele>125.140</ele>
        <time>2019-06-21T19:07:25Z</time>
      </trkpt>
      <trkpt lat="42.977306" lon="-9.247234">
        <ele>126.142</ele>
        <time>2019-06-21T19:07:26Z</time>
      </trkpt>
      <trkpt lat="42.977259" lon="-9.247372">
        <ele>126.799</ele>
        <time>2019-06-21T19:07:27Z</time>
      </trkpt>
      <trkpt lat="42.977206" lon="-9.247503">
        <ele>127.235</ele>
        <time>2019-06-21T19:07:28Z</time>
      </trkpt>
      <trkpt lat="42.977138" lon="-9.247640">
        <ele>128.179</ele>
        <time>2019-06-21T19:07:29Z</time>
      </trkpt>
      <trkpt lat="42.977077" lon="-9.247785">
        <ele>128.641</ele>
        <time>2019-06-21T19:07:30Z</time>
      </trkpt>
      <trkpt lat="42.977001" lon="-9.247927">
        <ele>129.587</ele>
        <time>2019-06-21T19:07:31Z</time>
      </trkpt>
      <trkpt lat="42.976918" lon="-9.248056">
        <ele>130.342</ele>
        <time>2019-06-21T19:07:32Z</time>
      </trkpt>
      <trkpt lat="42.976835" lon="-9.248190">
        <ele>130.526</ele>
        <time>2019-06-21T19:07:33Z</time>
      </trkpt>
      <trkpt lat="42.976753" lon="-9.248315">
        <ele>130.508</ele>
        <time>2019-06-21T19:07:34Z</time>
      </trkpt>
      <trkpt lat="42.976672" lon="-9.248448">
        <ele>129.351</ele>
        <time>2019-06-21T19:07:35Z</time>
      </trkpt>
      <trkpt lat="42.976590" lon="-9.248574">
        <ele>127.825</ele>
        <time>2019-06-21T19:07:36Z</time>
      </trkpt>
      <trkpt lat="42.976493" lon="-9.248706">
        <ele>125.987</ele>
        <time>2019-06-21T19:07:37Z</time>
      </trkpt>
      <trkpt lat="42.976427" lon="-9.248835">
        <ele>123.889</ele>
        <time>2019-06-21T19:07:38Z</time>
      </trkpt>
      <trkpt lat="42.976352" lon="-9.248952">
        <ele>122.746</ele>
        <time>2019-06-21T19:07:39Z</time>
      </trkpt>
      <trkpt lat="42.976265" lon="-9.249057">
        <ele>122.372</ele>
        <time>2019-06-21T19:07:40Z</time>
      </trkpt>
      <trkpt lat="42.976203" lon="-9.249166">
        <ele>121.366</ele>
        <time>2019-06-21T19:07:41Z</time>
      </trkpt>
      <trkpt lat="42.976128" lon="-9.249297">
        <ele>119.618</ele>
        <time>2019-06-21T19:07:42Z</time>
      </trkpt>
      <trkpt lat="42.976044" lon="-9.249421">
        <ele>117.492</ele>
        <time>2019-06-21T19:07:43Z</time>
      </trkpt>
      <trkpt lat="42.975961" lon="-9.249515">
        <ele>116.473</ele>
        <time>2019-06-21T19:07:44Z</time>
      </trkpt>
      <trkpt lat="42.975873" lon="-9.249618">
        <ele>115.220</ele>
        <time>2019-06-21T19:07:45Z</time>
      </trkpt>
      <trkpt lat="42.975775" lon="-9.249697">
        <ele>113.908</ele>
        <time>2019-06-21T19:07:46Z</time>
      </trkpt>
      <trkpt lat="42.975678" lon="-9.249790">
        <ele>112.412</ele>
        <time>2019-06-21T19:07:47Z</time>
      </trkpt>
      <trkpt lat="42.975558" lon="-9.249892">
        <ele>110.286</ele>
        <time>2019-06-21T19:07:48Z</time>
      </trkpt>
      <trkpt lat="42.975448" lon="-9.249977">
        <ele>108.138</ele>
        <time>2019-06-21T19:07:49Z</time>
      </trkpt>
      <trkpt lat="42.975331" lon="-9.250064">
        <ele>106.220</ele>
        <time>2019-06-21T19:07:50Z</time>
      </trkpt>
      <trkpt lat="42.975212" lon="-9.250133">
        <ele>104.817</ele>
        <time>2019-06-21T19:07:51Z</time>
      </trkpt>
      <trkpt lat="42.975093" lon="-9.250215">
        <ele>103.823</ele>
        <time>2019-06-21T19:07:52Z</time>
      </trkpt>
      <trkpt lat="42.974967" lon="-9.250286">
        <ele>102.817</ele>
        <time>2019-06-21T19:07:53Z</time>
      </trkpt>
      <trkpt lat="42.974843" lon="-9.250336">
        <ele>101.729</ele>
        <time>2019-06-21T19:07:54Z</time>
      </trkpt>
      <trkpt lat="42.974714" lon="-9.250392">
        <ele>100.326</ele>
        <time>2019-06-21T19:07:55Z</time>
      </trkpt>
      <trkpt lat="42.974575" lon="-9.250431">
        <ele>99.547</ele>
        <time>2019-06-21T19:07:56Z</time>
      </trkpt>
      <trkpt lat="42.974446" lon="-9.250481">
        <ele>98.311</ele>
        <time>2019-06-21T19:07:57Z</time>
      </trkpt>
      <trkpt lat="42.974316" lon="-9.250533">
        <ele>97.008</ele>
        <time>2019-06-21T19:07:58Z</time>
      </trkpt>
      <trkpt lat="42.974220" lon="-9.250602">
        <ele>95.645</ele>
        <time>2019-06-21T19:07:59Z</time>
      </trkpt>
      <trkpt lat="42.974085" lon="-9.250643">
        <ele>94.499</ele>
        <time>2019-06-21T19:08:00Z</time>
      </trkpt>
      <trkpt lat="42.973958" lon="-9.250686">
        <ele>93.031</ele>
        <time>2019-06-21T19:08:01Z</time>
      </trkpt>
      <trkpt lat="42.973826" lon="-9.250719">
        <ele>92.033</ele>
        <time>2019-06-21T19:08:02Z</time>
      </trkpt>
      <trkpt lat="42.973701" lon="-9.250747">
        <ele>91.380</ele>
        <time>2019-06-21T19:08:03Z</time>
      </trkpt>
      <trkpt lat="42.973574" lon="-9.250778">
        <ele>90.796</ele>
        <time>2019-06-21T19:08:04Z</time>
      </trkpt>
      <trkpt lat="42.973451" lon="-9.250809">
        <ele>89.850</ele>
        <time>2019-06-21T19:08:05Z</time>
      </trkpt>
      <trkpt lat="42.973341" lon="-9.250835">
        <ele>89.022</ele>
        <time>2019-06-21T19:08:06Z</time>
      </trkpt>
      <trkpt lat="42.973232" lon="-9.250874">
        <ele>87.793</ele>
        <time>2019-06-21T19:08:07Z</time>
      </trkpt>
      <trkpt lat="42.973128" lon="-9.250911">
        <ele>86.665</ele>
        <time>2019-06-21T19:08:08Z</time>
      </trkpt>
      <trkpt lat="42.973036" lon="-9.250952">
        <ele>85.621</ele>
        <time>2019-06-21T19:08:09Z</time>
      </trkpt>
      <trkpt lat="42.972961" lon="-9.250992">
        <ele>84.908</ele>
        <time>2019-06-21T19:08:10Z</time>
      </trkpt>
      <trkpt lat="42.972874" lon="-9.251022">
        <ele>84.382</ele>
        <time>2019-06-21T19:08:11Z</time>
      </trkpt>
      <trkpt lat="42.972786" lon="-9.251045">
        <ele>83.786</ele>
        <time>2019-06-21T19:08:12Z</time>
      </trkpt>
      <trkpt lat="42.972690" lon="-9.251060">
        <ele>83.788</ele>
        <time>2019-06-21T19:08:13Z</time>
      </trkpt>
      <trkpt lat="42.972596" lon="-9.251092">
        <ele>83.360</ele>
        <time>2019-06-21T19:08:14Z</time>
      </trkpt>
      <trkpt lat="42.972506" lon="-9.251121">
        <ele>82.947</ele>
        <time>2019-06-21T19:08:15Z</time>
      </trkpt>
      <trkpt lat="42.972415" lon="-9.251150">
        <ele>83.763</ele>
        <time>2019-06-21T19:08:16Z</time>
      </trkpt>
      <trkpt lat="42.972346" lon="-9.251176">
        <ele>84.387</ele>
        <time>2019-06-21T19:08:17Z</time>
      </trkpt>
      <trkpt lat="42.972289" lon="-9.251209">
        <ele>84.489</ele>
        <time>2019-06-21T19:08:18Z</time>
      </trkpt>
      <trkpt lat="42.972254" lon="-9.251264">
        <ele>83.958</ele>
        <time>2019-06-21T19:08:19Z</time>
      </trkpt>
      <trkpt lat="42.972226" lon="-9.251322">
        <ele>83.252</ele>
        <time>2019-06-21T19:08:20Z</time>
      </trkpt>
      <trkpt lat="42.972224" lon="-9.251400">
        <ele>81.917</ele>
        <time>2019-06-21T19:08:21Z</time>
      </trkpt>
      <trkpt lat="42.972236" lon="-9.251506">
        <ele>80.608</ele>
        <time>2019-06-21T19:08:22Z</time>
      </trkpt>
      <trkpt lat="42.972256" lon="-9.251617">
        <ele>79.378</ele>
        <time>2019-06-21T19:08:23Z</time>
      </trkpt>
      <trkpt lat="42.972269" lon="-9.251760">
        <ele>77.742</ele>
        <time>2019-06-21T19:08:24Z</time>
      </trkpt>
      <trkpt lat="42.972282" lon="-9.251909">
        <ele>76.154</ele>
        <time>2019-06-21T19:08:25Z</time>
      </trkpt>
      <trkpt lat="42.972297" lon="-9.252060">
        <ele>74.726</ele>
        <time>2019-06-21T19:08:26Z</time>
      </trkpt>
      <trkpt lat="42.972311" lon="-9.252219">
        <ele>73.143</ele>
        <time>2019-06-21T19:08:27Z</time>
      </trkpt>
      <trkpt lat="42.972332" lon="-9.252383">
        <ele>71.119</ele>
        <time>2019-06-21T19:08:28Z</time>
      </trkpt>
      <trkpt lat="42.972352" lon="-9.252544">
        <ele>69.283</ele>
        <time>2019-06-21T19:08:29Z</time>
      </trkpt>
      <trkpt lat="42.972372" lon="-9.252709">
        <ele>67.525</ele>
        <time>2019-06-21T19:08:30Z</time>
      </trkpt>
      <trkpt lat="42.972378" lon="-9.252885">
        <ele>66.285</ele>
        <time>2019-06-21T19:08:31Z</time>
      </trkpt>
      <trkpt lat="42.972395" lon="-9.253058">
        <ele>65.089</ele>
        <time>2019-06-21T19:08:32Z</time>
      </trkpt>
      <trkpt lat="42.972388" lon="-9.253231">
        <ele>63.517</ele>
        <time>2019-06-21T19:08:33Z</time>
      </trkpt>
      <trkpt lat="42.972394" lon="-9.253380">
        <ele>62.208</ele>
        <time>2019-06-21T19:08:34Z</time>
      </trkpt>
      <trkpt lat="42.972391" lon="-9.253528">
        <ele>60.781</ele>
        <time>2019-06-21T19:08:35Z</time>
      </trkpt>
      <trkpt lat="42.972375" lon="-9.253671">
        <ele>59.195</ele>
        <time>2019-06-21T19:08:36Z</time>
      </trkpt>
      <trkpt lat="42.972354" lon="-9.253818">
        <ele>57.527</ele>
        <time>2019-06-21T19:08:37Z</time>
      </trkpt>
      <trkpt lat="42.972315" lon="-9.253957">
        <ele>56.079</ele>
        <time>2019-06-21T19:08:38Z</time>
      </trkpt>
      <trkpt lat="42.972266" lon="-9.254066">
        <ele>54.976</ele>
        <time>2019-06-21T19:08:39Z</time>
      </trkpt>
      <trkpt lat="42.972207" lon="-9.254231">
        <ele>53.112</ele>
        <time>2019-06-21T19:08:40Z</time>
      </trkpt>
      <trkpt lat="42.972152" lon="-9.254362">
        <ele>50.736</ele>
        <time>2019-06-21T19:08:41Z</time>
      </trkpt>
      <trkpt lat="42.972091" lon="-9.254516">
        <ele>48.138</ele>
        <time>2019-06-21T19:08:42Z</time>
      </trkpt>
      <trkpt lat="42.972026" lon="-9.254678">
        <ele>45.895</ele>
        <time>2019-06-21T19:08:43Z</time>
      </trkpt>
      <trkpt lat="42.971994" lon="-9.254799">
        <ele>44.349</ele>
        <time>2019-06-21T19:08:44Z</time>
      </trkpt>
      <trkpt lat="42.971946" lon="-9.254895">
        <ele>42.823</ele>
        <time>2019-06-21T19:08:45Z</time>
      </trkpt>
      <trkpt lat="42.971896" lon="-9.255021">
        <ele>41.008</ele>
        <time>2019-06-21T19:08:46Z</time>
      </trkpt>
      <trkpt lat="42.971846" lon="-9.255111">
        <ele>39.032</ele>
        <time>2019-06-21T19:08:47Z</time>
      </trkpt>
      <trkpt lat="42.971824" lon="-9.255230">
        <ele>37.066</ele>
        <time>2019-06-21T19:08:48Z</time>
      </trkpt>
      <trkpt lat="42.971809" lon="-9.255324">
        <ele>35.478</ele>
        <time>2019-06-21T19:08:49Z</time>
      </trkpt>
      <trkpt lat="42.971777" lon="-9.255393">
        <ele>34.060</ele>
        <time>2019-06-21T19:08:50Z</time>
      </trkpt>
      <trkpt lat="42.971759" lon="-9.255468">
        <ele>32.867</ele>
        <time>2019-06-21T19:08:51Z</time>
      </trkpt>
      <trkpt lat="42.971699" lon="-9.255516">
        <ele>31.743</ele>
        <time>2019-06-21T19:08:52Z</time>
      </trkpt>
      <trkpt lat="42.971629" lon="-9.255570">
        <ele>31.477</ele>
        <time>2019-06-21T19:08:53Z</time>
      </trkpt>
      <trkpt lat="42.971552" lon="-9.255622">
        <ele>32.319</ele>
        <time>2019-06-21T19:08:54Z</time>
      </trkpt>
      <trkpt lat="42.971478" lon="-9.255699">
        <ele>33.026</ele>
        <time>2019-06-21T19:08:55Z</time>
      </trkpt>
      <trkpt lat="42.971415" lon="-9.255798">
        <ele>33.747</ele>
        <time>2019-06-21T19:08:56Z</time>
      </trkpt>
      <trkpt lat="42.971365" lon="-9.255902">
        <ele>35.011</ele>
        <time>2019-06-21T19:08:57Z</time>
      </trkpt>
      <trkpt lat="42.971334" lon="-9.256020">
        <ele>36.408</ele>
        <time>2019-06-21T19:08:58Z</time>
      </trkpt>
      <trkpt lat="42.971323" lon="-9.256146">
        <ele>37.075</ele>
        <time>2019-06-21T19:08:59Z</time>
      </trkpt>
      <trkpt lat="42.971314" lon="-9.256287">
        <ele>38.219</ele>
        <time>2019-06-21T19:09:00Z</time>
      </trkpt>
      <trkpt lat="42.971297" lon="-9.256439">
        <ele>39.381</ele>
        <time>2019-06-21T19:09:01Z</time>
      </trkpt>
      <trkpt lat="42.971297" lon="-9.256563">
        <ele>39.363</ele>
        <time>2019-06-21T19:09:02Z</time>
      </trkpt>
      <trkpt lat="42.971297" lon="-9.256678">
        <ele>39.390</ele>
        <time>2019-06-21T19:09:03Z</time>
      </trkpt>
      <trkpt lat="42.971273" lon="-9.256781">
        <ele>39.616</ele>
        <time>2019-06-21T19:09:04Z</time>
      </trkpt>
      <trkpt lat="42.971234" lon="-9.256887">
        <ele>40.030</ele>
        <time>2019-06-21T19:09:05Z</time>
      </trkpt>
      <trkpt lat="42.971173" lon="-9.256985">
        <ele>40.522</ele>
        <time>2019-06-21T19:09:06Z</time>
      </trkpt>
      <trkpt lat="42.971102" lon="-9.257058">
        <ele>40.917</ele>
        <time>2019-06-21T19:09:07Z</time>
      </trkpt>
      <trkpt lat="42.971005" lon="-9.257116">
        <ele>41.487</ele>
        <time>2019-06-21T19:09:08Z</time>
      </trkpt>
      <trkpt lat="42.970905" lon="-9.257151">
        <ele>42.215</ele>
        <time>2019-06-21T19:09:09Z</time>
      </trkpt>
      <trkpt lat="42.970794" lon="-9.257147">
        <ele>43.308</ele>
        <time>2019-06-21T19:09:10Z</time>
      </trkpt>
      <trkpt lat="42.970685" lon="-9.257119">
        <ele>44.494</ele>
        <time>2019-06-21T19:09:11Z</time>
      </trkpt>
      <trkpt lat="42.970566" lon="-9.257091">
        <ele>45.498</ele>
        <time>2019-06-21T19:09:12Z</time>
      </trkpt>
      <trkpt lat="42.970448" lon="-9.257033">
        <ele>47.190</ele>
        <time>2019-06-21T19:09:13Z</time>
      </trkpt>
      <trkpt lat="42.970322" lon="-9.256970">
        <ele>48.642</ele>
        <time>2019-06-21T19:09:14Z</time>
      </trkpt>
      <trkpt lat="42.970193" lon="-9.256910">
        <ele>49.379</ele>
        <time>2019-06-21T19:09:15Z</time>
      </trkpt>
      <trkpt lat="42.970070" lon="-9.256853">
        <ele>49.785</ele>
        <time>2019-06-21T19:09:16Z</time>
      </trkpt>
      <trkpt lat="42.969958" lon="-9.256797">
        <ele>50.229</ele>
        <time>2019-06-21T19:09:17Z</time>
      </trkpt>
      <trkpt lat="42.969848" lon="-9.256762">
        <ele>50.531</ele>
        <time>2019-06-21T19:09:18Z</time>
      </trkpt>
      <trkpt lat="42.969748" lon="-9.256732">
        <ele>50.996</ele>
        <time>2019-06-21T19:09:19Z</time>
      </trkpt>
      <trkpt lat="42.969646" lon="-9.256704">
        <ele>50.731</ele>
        <time>2019-06-21T19:09:20Z</time>
      </trkpt>
      <trkpt lat="42.969550" lon="-9.256705">
        <ele>50.324</ele>
        <time>2019-06-21T19:09:21Z</time>
      </trkpt>
      <trkpt lat="42.969452" lon="-9.256729">
        <ele>49.808</ele>
        <time>2019-06-21T19:09:22Z</time>
      </trkpt>
      <trkpt lat="42.969364" lon="-9.256793">
        <ele>49.022</ele>
        <time>2019-06-21T19:09:23Z</time>
      </trkpt>
      <trkpt lat="42.969266" lon="-9.256876">
        <ele>48.096</ele>
        <time>2019-06-21T19:09:24Z</time>
      </trkpt>
      <trkpt lat="42.969158" lon="-9.256974">
        <ele>46.798</ele>
        <time>2019-06-21T19:09:25Z</time>
      </trkpt>
      <trkpt lat="42.969041" lon="-9.257090">
        <ele>44.660</ele>
        <time>2019-06-21T19:09:26Z</time>
      </trkpt>
      <trkpt lat="42.968908" lon="-9.257221">
        <ele>42.287</ele>
        <time>2019-06-21T19:09:27Z</time>
      </trkpt>
      <trkpt lat="42.968765" lon="-9.257344">
        <ele>39.323</ele>
        <time>2019-06-21T19:09:28Z</time>
      </trkpt>
      <trkpt lat="42.968631" lon="-9.257481">
        <ele>36.417</ele>
        <time>2019-06-21T19:09:29Z</time>
      </trkpt>
      <trkpt lat="42.968500" lon="-9.257621">
        <ele>33.629</ele>
        <time>2019-06-21T19:09:30Z</time>
      </trkpt>
      <trkpt lat="42.968365" lon="-9.257739">
        <ele>31.573</ele>
        <time>2019-06-21T19:09:31Z</time>
      </trkpt>
      <trkpt lat="42.968227" lon="-9.257871">
        <ele>29.485</ele>
        <time>2019-06-21T19:09:32Z</time>
      </trkpt>
      <trkpt lat="42.968091" lon="-9.257998">
        <ele>27.613</ele>
        <time>2019-06-21T19:09:33Z</time>
      </trkpt>
      <trkpt lat="42.967959" lon="-9.258122">
        <ele>26.208</ele>
        <time>2019-06-21T19:09:34Z</time>
      </trkpt>
      <trkpt lat="42.967818" lon="-9.258256">
        <ele>24.760</ele>
        <time>2019-06-21T19:09:35Z</time>
      </trkpt>
      <trkpt lat="42.967671" lon="-9.258394">
        <ele>23.424</ele>
        <time>2019-06-21T19:09:36Z</time>
      </trkpt>
      <trkpt lat="42.967517" lon="-9.258541">
        <ele>22.596</ele>
        <time>2019-06-21T19:09:37Z</time>
      </trkpt>
      <trkpt lat="42.967367" lon="-9.258677">
        <ele>21.448</ele>
        <time>2019-06-21T19:09:38Z</time>
      </trkpt>
      <trkpt lat="42.967211" lon="-9.258839">
        <ele>18.835</ele>
        <time>2019-06-21T19:09:39Z</time>
      </trkpt>
      <trkpt lat="42.967045" lon="-9.258998">
        <ele>15.191</ele>
        <time>2019-06-21T19:09:40Z</time>
      </trkpt>
      <trkpt lat="42.966879" lon="-9.259162">
        <ele>12.865</ele>
        <time>2019-06-21T19:09:41Z</time>
      </trkpt>
      <trkpt lat="42.966716" lon="-9.259335">
        <ele>11.267</ele>
        <time>2019-06-21T19:09:42Z</time>
      </trkpt>
      <trkpt lat="42.966555" lon="-9.259502">
        <ele>11.246</ele>
        <time>2019-06-21T19:09:43Z</time>
      </trkpt>
      <trkpt lat="42.966394" lon="-9.259655">
        <ele>11.288</ele>
        <time>2019-06-21T19:09:44Z</time>
      </trkpt>
      <trkpt lat="42.966242" lon="-9.259809">
        <ele>12.416</ele>
        <time>2019-06-21T19:09:45Z</time>
      </trkpt>
      <trkpt lat="42.966093" lon="-9.259958">
        <ele>14.508</ele>
        <time>2019-06-21T19:09:46Z</time>
      </trkpt>
      <trkpt lat="42.965958" lon="-9.260104">
        <ele>17.377</ele>
        <time>2019-06-21T19:09:47Z</time>
      </trkpt>
      <trkpt lat="42.965831" lon="-9.260246">
        <ele>19.331</ele>
        <time>2019-06-21T19:09:48Z</time>
      </trkpt>
      <trkpt lat="42.965701" lon="-9.260377">
        <ele>18.873</ele>
        <time>2019-06-21T19:09:49Z</time>
      </trkpt>
      <trkpt lat="42.965568" lon="-9.260498">
        <ele>17.985</ele>
        <time>2019-06-21T19:09:50Z</time>
      </trkpt>
      <trkpt lat="42.965434" lon="-9.260610">
        <ele>16.952</ele>
        <time>2019-06-21T19:09:51Z</time>
      </trkpt>
      <trkpt lat="42.965278" lon="-9.260732">
        <ele>16.148</ele>
        <time>2019-06-21T19:09:52Z</time>
      </trkpt>
      <trkpt lat="42.965110" lon="-9.260859">
        <ele>16.792</ele>
        <time>2019-06-21T19:09:53Z</time>
      </trkpt>
      <trkpt lat="42.964944" lon="-9.260985">
        <ele>18.064</ele>
        <time>2019-06-21T19:09:54Z</time>
      </trkpt>
      <trkpt lat="42.964776" lon="-9.261114">
        <ele>19.418</ele>
        <time>2019-06-21T19:09:55Z</time>
      </trkpt>
      <trkpt lat="42.964611" lon="-9.261240">
        <ele>20.398</ele>
        <time>2019-06-21T19:09:56Z</time>
      </trkpt>
      <trkpt lat="42.964458" lon="-9.261364">
        <ele>21.017</ele>
        <time>2019-06-21T19:09:57Z</time>
      </trkpt>
      <trkpt lat="42.964310" lon="-9.261486">
        <ele>21.308</ele>
        <time>2019-06-21T19:09:58Z</time>
      </trkpt>
      <trkpt lat="42.964163" lon="-9.261614">
        <ele>21.264</ele>
        <time>2019-06-21T19:09:59Z</time>
      </trkpt>
      <trkpt lat="42.964015" lon="-9.261739">
        <ele>21.598</ele>
        <time>2019-06-21T19:10:00Z</time>
      </trkpt>
      <trkpt lat="42.963871" lon="-9.261871">
        <ele>22.150</ele>
        <time>2019-06-21T19:10:01Z</time>
      </trkpt>
      <trkpt lat="42.963730" lon="-9.261991">
        <ele>23.232</ele>
        <time>2019-06-21T19:10:02Z</time>
      </trkpt>
      <trkpt lat="42.963596" lon="-9.262106">
        <ele>24.289</ele>
        <time>2019-06-21T19:10:03Z</time>
      </trkpt>
      <trkpt lat="42.963468" lon="-9.262213">
        <ele>25.515</ele>
        <time>2019-06-21T19:10:04Z</time>
      </trkpt>
      <trkpt lat="42.963348" lon="-9.262321">
        <ele>26.919</ele>
        <time>2019-06-21T19:10:05Z</time>
      </trkpt>
      <trkpt lat="42.963233" lon="-9.262435">
        <ele>27.461</ele>
        <time>2019-06-21T19:10:06Z</time>
      </trkpt>
      <trkpt lat="42.963114" lon="-9.262537">
        <ele>27.827</ele>
        <time>2019-06-21T19:10:07Z</time>
      </trkpt>
      <trkpt lat="42.962984" lon="-9.262633">
        <ele>28.168</ele>
        <time>2019-06-21T19:10:08Z</time>
      </trkpt>
      <trkpt lat="42.962852" lon="-9.262732">
        <ele>28.114</ele>
        <time>2019-06-21T19:10:09Z</time>
      </trkpt>
      <trkpt lat="42.962711" lon="-9.262826">
        <ele>27.808</ele>
        <time>2019-06-21T19:10:10Z</time>
      </trkpt>
      <trkpt lat="42.962563" lon="-9.262933">
        <ele>27.415</ele>
        <time>2019-06-21T19:10:11Z</time>
      </trkpt>
      <trkpt lat="42.962410" lon="-9.263039">
        <ele>27.459</ele>
        <time>2019-06-21T19:10:12Z</time>
      </trkpt>
      <trkpt lat="42.962264" lon="-9.263146">
        <ele>27.581</ele>
        <time>2019-06-21T19:10:13Z</time>
      </trkpt>
      <trkpt lat="42.962110" lon="-9.263260">
        <ele>28.023</ele>
        <time>2019-06-21T19:10:14Z</time>
      </trkpt>
      <trkpt lat="42.961965" lon="-9.263375">
        <ele>28.930</ele>
        <time>2019-06-21T19:10:15Z</time>
      </trkpt>
      <trkpt lat="42.961817" lon="-9.263489">
        <ele>29.966</ele>
        <time>2019-06-21T19:10:16Z</time>
      </trkpt>
      <trkpt lat="42.961673" lon="-9.263609">
        <ele>31.090</ele>
        <time>2019-06-21T19:10:17Z</time>
      </trkpt>
      <trkpt lat="42.961528" lon="-9.263729">
        <ele>32.782</ele>
        <time>2019-06-21T19:10:18Z</time>
      </trkpt>
      <trkpt lat="42.961391" lon="-9.263850">
        <ele>34.882</ele>
        <time>2019-06-21T19:10:19Z</time>
      </trkpt>
      <trkpt lat="42.961259" lon="-9.263961">
        <ele>37.043</ele>
        <time>2019-06-21T19:10:20Z</time>
      </trkpt>
      <trkpt lat="42.961125" lon="-9.264070">
        <ele>39.417</ele>
        <time>2019-06-21T19:10:21Z</time>
      </trkpt>
      <trkpt lat="42.960989" lon="-9.264179">
        <ele>42.708</ele>
        <time>2019-06-21T19:10:22Z</time>
      </trkpt>
      <trkpt lat="42.960856" lon="-9.264290">
        <ele>45.511</ele>
        <time>2019-06-21T19:10:23Z</time>
      </trkpt>
      <trkpt lat="42.960713" lon="-9.264400">
        <ele>48.675</ele>
        <time>2019-06-21T19:10:24Z</time>
      </trkpt>
      <trkpt lat="42.960569" lon="-9.264508">
        <ele>51.517</ele>
        <time>2019-06-21T19:10:25Z</time>
      </trkpt>
      <trkpt lat="42.960427" lon="-9.264629">
        <ele>52.999</ele>
        <time>2019-06-21T19:10:26Z</time>
      </trkpt>
      <trkpt lat="42.960275" lon="-9.264744">
        <ele>53.926</ele>
        <time>2019-06-21T19:10:27Z</time>
      </trkpt>
      <trkpt lat="42.960115" lon="-9.264852">
        <ele>54.332</ele>
        <time>2019-06-21T19:10:28Z</time>
      </trkpt>
      <trkpt lat="42.959969" lon="-9.264956">
        <ele>54.166</ele>
        <time>2019-06-21T19:10:29Z</time>
      </trkpt>
      <trkpt lat="42.959827" lon="-9.265050">
        <ele>55.038</ele>
        <time>2019-06-21T19:10:30Z</time>
      </trkpt>
      <trkpt lat="42.959685" lon="-9.265158">
        <ele>55.978</ele>
        <time>2019-06-21T19:10:31Z</time>
      </trkpt>
      <trkpt lat="42.959535" lon="-9.265253">
        <ele>57.033</ele>
        <time>2019-06-21T19:10:32Z</time>
      </trkpt>
      <trkpt lat="42.959393" lon="-9.265345">
        <ele>58.926</ele>
        <time>2019-06-21T19:10:33Z</time>
      </trkpt>
      <trkpt lat="42.959255" lon="-9.265435">
        <ele>61.608</ele>
        <time>2019-06-21T19:10:34Z</time>
      </trkpt>
      <trkpt lat="42.959129" lon="-9.265519">
        <ele>63.510</ele>
        <time>2019-06-21T19:10:35Z</time>
      </trkpt>
      <trkpt lat="42.959008" lon="-9.265586">
        <ele>65.534</ele>
        <time>2019-06-21T19:10:36Z</time>
      </trkpt>
      <trkpt lat="42.958893" lon="-9.265649">
        <ele>66.946</ele>
        <time>2019-06-21T19:10:37Z</time>
      </trkpt>
      <trkpt lat="42.958784" lon="-9.265721">
        <ele>65.828</ele>
        <time>2019-06-21T19:10:38Z</time>
      </trkpt>
      <trkpt lat="42.958675" lon="-9.265805">
        <ele>64.415</ele>
        <time>2019-06-21T19:10:39Z</time>
      </trkpt>
      <trkpt lat="42.958555" lon="-9.265884">
        <ele>63.281</ele>
        <time>2019-06-21T19:10:40Z</time>
      </trkpt>
      <trkpt lat="42.958437" lon="-9.265976">
        <ele>62.695</ele>
        <time>2019-06-21T19:10:41Z</time>
      </trkpt>
      <trkpt lat="42.958313" lon="-9.266063">
        <ele>62.817</ele>
        <time>2019-06-21T19:10:42Z</time>
      </trkpt>
      <trkpt lat="42.958198" lon="-9.266148">
        <ele>61.814</ele>
        <time>2019-06-21T19:10:43Z</time>
      </trkpt>
      <trkpt lat="42.958081" lon="-9.266231">
        <ele>60.754</ele>
        <time>2019-06-21T19:10:44Z</time>
      </trkpt>
      <trkpt lat="42.957965" lon="-9.266307">
        <ele>59.609</ele>
        <time>2019-06-21T19:10:45Z</time>
      </trkpt>
      <trkpt lat="42.957851" lon="-9.266383">
        <ele>58.108</ele>
        <time>2019-06-21T19:10:46Z</time>
      </trkpt>
      <trkpt lat="42.957731" lon="-9.266450">
        <ele>56.854</ele>
        <time>2019-06-21T19:10:47Z</time>
      </trkpt>
      <trkpt lat="42.957612" lon="-9.266531">
        <ele>55.568</ele>
        <time>2019-06-21T19:10:48Z</time>
      </trkpt>
      <trkpt lat="42.957497" lon="-9.266609">
        <ele>54.330</ele>
        <time>2019-06-21T19:10:49Z</time>
      </trkpt>
      <trkpt lat="42.957389" lon="-9.266693">
        <ele>53.152</ele>
        <time>2019-06-21T19:10:50Z</time>
      </trkpt>
      <trkpt lat="42.957273" lon="-9.266797">
        <ele>51.029</ele>
        <time>2019-06-21T19:10:51Z</time>
      </trkpt>
      <trkpt lat="42.957181" lon="-9.266914">
        <ele>48.185</ele>
        <time>2019-06-21T19:10:52Z</time>
      </trkpt>
      <trkpt lat="42.957075" lon="-9.267037">
        <ele>46.689</ele>
        <time>2019-06-21T19:10:53Z</time>
      </trkpt>
      <trkpt lat="42.956966" lon="-9.267174">
        <ele>44.861</ele>
        <time>2019-06-21T19:10:54Z</time>
      </trkpt>
      <trkpt lat="42.956855" lon="-9.267327">
        <ele>42.885</ele>
        <time>2019-06-21T19:10:55Z</time>
      </trkpt>
      <trkpt lat="42.956732" lon="-9.267512">
        <ele>40.689</ele>
        <time>2019-06-21T19:10:56Z</time>
      </trkpt>
      <trkpt lat="42.956605" lon="-9.267685">
        <ele>38.517</ele>
        <time>2019-06-21T19:10:57Z</time>
      </trkpt>
      <trkpt lat="42.956466" lon="-9.267843">
        <ele>37.308</ele>
        <time>2019-06-21T19:10:58Z</time>
      </trkpt>
      <trkpt lat="42.956336" lon="-9.268054">
        <ele>36.071</ele>
        <time>2019-06-21T19:10:59Z</time>
      </trkpt>
      <trkpt lat="42.956200" lon="-9.268247">
        <ele>34.485</ele>
        <time>2019-06-21T19:11:00Z</time>
      </trkpt>
      <trkpt lat="42.956061" lon="-9.268453">
        <ele>33.667</ele>
        <time>2019-06-21T19:11:01Z</time>
      </trkpt>
      <trkpt lat="42.955923" lon="-9.268650">
        <ele>33.739</ele>
        <time>2019-06-21T19:11:02Z</time>
      </trkpt>
      <trkpt lat="42.955782" lon="-9.268865">
        <ele>33.856</ele>
        <time>2019-06-21T19:11:03Z</time>
      </trkpt>
      <trkpt lat="42.955641" lon="-9.269043">
        <ele>32.632</ele>
        <time>2019-06-21T19:11:04Z</time>
      </trkpt>
      <trkpt lat="42.955498" lon="-9.269242">
        <ele>31.636</ele>
        <time>2019-06-21T19:11:05Z</time>
      </trkpt>
      <trkpt lat="42.955356" lon="-9.269446">
        <ele>29.368</ele>
        <time>2019-06-21T19:11:06Z</time>
      </trkpt>
      <trkpt lat="42.955214" lon="-9.269648">
        <ele>27.859</ele>
        <time>2019-06-21T19:11:07Z</time>
      </trkpt>
      <trkpt lat="42.955075" lon="-9.269849">
        <ele>27.503</ele>
        <time>2019-06-21T19:11:08Z</time>
      </trkpt>
      <trkpt lat="42.954948" lon="-9.270036">
        <ele>28.223</ele>
        <time>2019-06-21T19:11:09Z</time>
      </trkpt>
      <trkpt lat="42.954817" lon="-9.270221">
        <ele>29.208</ele>
        <time>2019-06-21T19:11:10Z</time>
      </trkpt>
      <trkpt lat="42.954694" lon="-9.270402">
        <ele>30.038</ele>
        <time>2019-06-21T19:11:11Z</time>
      </trkpt>
      <trkpt lat="42.954575" lon="-9.270592">
        <ele>30.772</ele>
        <time>2019-06-21T19:11:12Z</time>
      </trkpt>
      <trkpt lat="42.954462" lon="-9.270781">
        <ele>32.514</ele>
        <time>2019-06-21T19:11:13Z</time>
      </trkpt>
      <trkpt lat="42.954350" lon="-9.270961">
        <ele>34.086</ele>
        <time>2019-06-21T19:11:14Z</time>
      </trkpt>
      <trkpt lat="42.954229" lon="-9.271143">
        <ele>35.663</ele>
        <time>2019-06-21T19:11:15Z</time>
      </trkpt>
      <trkpt lat="42.954101" lon="-9.271315">
        <ele>36.939</ele>
        <time>2019-06-21T19:11:16Z</time>
      </trkpt>
      <trkpt lat="42.953980" lon="-9.271492">
        <ele>37.993</ele>
        <time>2019-06-21T19:11:17Z</time>
      </trkpt>
      <trkpt lat="42.953863" lon="-9.271670">
        <ele>39.135</ele>
        <time>2019-06-21T19:11:18Z</time>
      </trkpt>
      <trkpt lat="42.953743" lon="-9.271861">
        <ele>41.341</ele>
        <time>2019-06-21T19:11:19Z</time>
      </trkpt>
      <trkpt lat="42.953625" lon="-9.272050">
        <ele>43.781</ele>
        <time>2019-06-21T19:11:20Z</time>
      </trkpt>
      <trkpt lat="42.953501" lon="-9.272222">
        <ele>45.009</ele>
        <time>2019-06-21T19:11:21Z</time>
      </trkpt>
      <trkpt lat="42.953375" lon="-9.272405">
        <ele>45.808</ele>
        <time>2019-06-21T19:11:22Z</time>
      </trkpt>
      <trkpt lat="42.953253" lon="-9.272588">
        <ele>46.597</ele>
        <time>2019-06-21T19:11:23Z</time>
      </trkpt>
      <trkpt lat="42.953135" lon="-9.272765">
        <ele>47.221</ele>
        <time>2019-06-21T19:11:24Z</time>
      </trkpt>
      <trkpt lat="42.953016" lon="-9.272944">
        <ele>48.983</ele>
        <time>2019-06-21T19:11:25Z</time>
      </trkpt>
      <trkpt lat="42.952904" lon="-9.273122">
        <ele>50.815</ele>
        <time>2019-06-21T19:11:26Z</time>
      </trkpt>
      <trkpt lat="42.952793" lon="-9.273284">
        <ele>53.212</ele>
        <time>2019-06-21T19:11:27Z</time>
      </trkpt>
      <trkpt lat="42.952688" lon="-9.273449">
        <ele>55.838</ele>
        <time>2019-06-21T19:11:28Z</time>
      </trkpt>
      <trkpt lat="42.952588" lon="-9.273606">
        <ele>57.662</ele>
        <time>2019-06-21T19:11:29Z</time>
      </trkpt>
      <trkpt lat="42.952487" lon="-9.273754">
        <ele>58.594</ele>
        <time>2019-06-21T19:11:30Z</time>
      </trkpt>
      <trkpt lat="42.952436" lon="-9.273802">
        <ele>58.819</ele>
        <time>2019-06-21T19:11:31Z</time>
      </trkpt>
      <trkpt lat="42.952380" lon="-9.273843">
        <ele>59.109</ele>
        <time>2019-06-21T19:11:32Z</time>
      </trkpt>
      <trkpt lat="42.952295" lon="-9.273839">
        <ele>58.719</ele>
        <time>2019-06-21T19:11:34Z</time>
      </trkpt>
      <trkpt lat="42.952242" lon="-9.273807">
        <ele>58.208</ele>
        <time>2019-06-21T19:11:35Z</time>
      </trkpt>
      <trkpt lat="42.952168" lon="-9.273769">
        <ele>57.994</ele>
        <time>2019-06-21T19:11:36Z</time>
      </trkpt>
      <trkpt lat="42.952067" lon="-9.273749">
        <ele>58.028</ele>
        <time>2019-06-21T19:11:37Z</time>
      </trkpt>
      <trkpt lat="42.951958" lon="-9.273745">
        <ele>58.430</ele>
        <time>2019-06-21T19:11:38Z</time>
      </trkpt>
      <trkpt lat="42.951838" lon="-9.273742">
        <ele>58.422</ele>
        <time>2019-06-21T19:11:39Z</time>
      </trkpt>
      <trkpt lat="42.951705" lon="-9.273734">
        <ele>58.339</ele>
        <time>2019-06-21T19:11:40Z</time>
      </trkpt>
      <trkpt lat="42.951556" lon="-9.273730">
        <ele>58.395</ele>
        <time>2019-06-21T19:11:41Z</time>
      </trkpt>
      <trkpt lat="42.951401" lon="-9.273725">
        <ele>58.259</ele>
        <time>2019-06-21T19:11:42Z</time>
      </trkpt>
      <trkpt lat="42.951242" lon="-9.273719">
        <ele>59.041</ele>
        <time>2019-06-21T19:11:43Z</time>
      </trkpt>
      <trkpt lat="42.951073" lon="-9.273704">
        <ele>59.678</ele>
        <time>2019-06-21T19:11:44Z</time>
      </trkpt>
      <trkpt lat="42.950908" lon="-9.273693">
        <ele>59.433</ele>
        <time>2019-06-21T19:11:45Z</time>
      </trkpt>
      <trkpt lat="42.950731" lon="-9.273689">
        <ele>58.826</ele>
        <time>2019-06-21T19:11:46Z</time>
      </trkpt>
      <trkpt lat="42.950562" lon="-9.273680">
        <ele>57.808</ele>
        <time>2019-06-21T19:11:47Z</time>
      </trkpt>
      <trkpt lat="42.950393" lon="-9.273687">
        <ele>58.460</ele>
        <time>2019-06-21T19:11:48Z</time>
      </trkpt>
      <trkpt lat="42.950219" lon="-9.273679">
        <ele>59.034</ele>
        <time>2019-06-21T19:11:49Z</time>
      </trkpt>
      <trkpt lat="42.950046" lon="-9.273672">
        <ele>59.796</ele>
        <time>2019-06-21T19:11:50Z</time>
      </trkpt>
      <trkpt lat="42.949883" lon="-9.273666">
        <ele>60.048</ele>
        <time>2019-06-21T19:11:51Z</time>
      </trkpt>
      <trkpt lat="42.949712" lon="-9.273659">
        <ele>60.335</ele>
        <time>2019-06-21T19:11:52Z</time>
      </trkpt>
      <trkpt lat="42.949540" lon="-9.273651">
        <ele>59.641</ele>
        <time>2019-06-21T19:11:53Z</time>
      </trkpt>
      <trkpt lat="42.949373" lon="-9.273638">
        <ele>59.265</ele>
        <time>2019-06-21T19:11:54Z</time>
      </trkpt>
      <trkpt lat="42.949205" lon="-9.273634">
        <ele>59.257</ele>
        <time>2019-06-21T19:11:55Z</time>
      </trkpt>
      <trkpt lat="42.949032" lon="-9.273628">
        <ele>59.664</ele>
        <time>2019-06-21T19:11:56Z</time>
      </trkpt>
      <trkpt lat="42.948864" lon="-9.273615">
        <ele>60.106</ele>
        <time>2019-06-21T19:11:57Z</time>
      </trkpt>
      <trkpt lat="42.948700" lon="-9.273604">
        <ele>60.616</ele>
        <time>2019-06-21T19:11:58Z</time>
      </trkpt>
      <trkpt lat="42.948540" lon="-9.273588">
        <ele>61.108</ele>
        <time>2019-06-21T19:11:59Z</time>
      </trkpt>
      <trkpt lat="42.948378" lon="-9.273586">
        <ele>61.749</ele>
        <time>2019-06-21T19:12:00Z</time>
      </trkpt>
      <trkpt lat="42.948219" lon="-9.273578">
        <ele>62.373</ele>
        <time>2019-06-21T19:12:01Z</time>
      </trkpt>
      <trkpt lat="42.948058" lon="-9.273570">
        <ele>62.855</ele>
        <time>2019-06-21T19:12:02Z</time>
      </trkpt>
      <trkpt lat="42.947898" lon="-9.273563">
        <ele>62.347</ele>
        <time>2019-06-21T19:12:03Z</time>
      </trkpt>
      <trkpt lat="42.947735" lon="-9.273553">
        <ele>61.684</ele>
        <time>2019-06-21T19:12:04Z</time>
      </trkpt>
      <trkpt lat="42.947569" lon="-9.273548">
        <ele>60.920</ele>
        <time>2019-06-21T19:12:05Z</time>
      </trkpt>
      <trkpt lat="42.947405" lon="-9.273547">
        <ele>60.574</ele>
        <time>2019-06-21T19:12:06Z</time>
      </trkpt>
      <trkpt lat="42.947236" lon="-9.273541">
        <ele>60.566</ele>
        <time>2019-06-21T19:12:07Z</time>
      </trkpt>
      <trkpt lat="42.947078" lon="-9.273536">
        <ele>61.567</ele>
        <time>2019-06-21T19:12:08Z</time>
      </trkpt>
      <trkpt lat="42.946925" lon="-9.273531">
        <ele>62.481</ele>
        <time>2019-06-21T19:12:09Z</time>
      </trkpt>
      <trkpt lat="42.946777" lon="-9.273528">
        <ele>62.619</ele>
        <time>2019-06-21T19:12:10Z</time>
      </trkpt>
      <trkpt lat="42.946630" lon="-9.273517">
        <ele>62.808</ele>
        <time>2019-06-21T19:12:11Z</time>
      </trkpt>
      <trkpt lat="42.946484" lon="-9.273520">
        <ele>63.529</ele>
        <time>2019-06-21T19:12:12Z</time>
      </trkpt>
      <trkpt lat="42.946341" lon="-9.273513">
        <ele>64.333</ele>
        <time>2019-06-21T19:12:13Z</time>
      </trkpt>
      <trkpt lat="42.946198" lon="-9.273509">
        <ele>65.465</ele>
        <time>2019-06-21T19:12:14Z</time>
      </trkpt>
      <trkpt lat="42.946063" lon="-9.273490">
        <ele>66.227</ele>
        <time>2019-06-21T19:12:15Z</time>
      </trkpt>
      <trkpt lat="42.945928" lon="-9.273490">
        <ele>66.754</ele>
        <time>2019-06-21T19:12:16Z</time>
      </trkpt>
      <trkpt lat="42.945805" lon="-9.273486">
        <ele>67.070</ele>
        <time>2019-06-21T19:12:17Z</time>
      </trkpt>
      <trkpt lat="42.945671" lon="-9.273481">
        <ele>66.744</ele>
        <time>2019-06-21T19:12:18Z</time>
      </trkpt>
      <trkpt lat="42.945531" lon="-9.273475">
        <ele>66.656</ele>
        <time>2019-06-21T19:12:19Z</time>
      </trkpt>
      <trkpt lat="42.945391" lon="-9.273456">
        <ele>66.844</ele>
        <time>2019-06-21T19:12:20Z</time>
      </trkpt>
      <trkpt lat="42.945239" lon="-9.273454">
        <ele>67.005</ele>
        <time>2019-06-21T19:12:21Z</time>
      </trkpt>
      <trkpt lat="42.945093" lon="-9.273445">
        <ele>67.015</ele>
        <time>2019-06-21T19:12:22Z</time>
      </trkpt>
      <trkpt lat="42.944938" lon="-9.273444">
        <ele>66.908</ele>
        <time>2019-06-21T19:12:23Z</time>
      </trkpt>
      <trkpt lat="42.944784" lon="-9.273437">
        <ele>66.777</ele>
        <time>2019-06-21T19:12:24Z</time>
      </trkpt>
      <trkpt lat="42.944625" lon="-9.273435">
        <ele>66.161</ele>
        <time>2019-06-21T19:12:25Z</time>
      </trkpt>
      <trkpt lat="42.944487" lon="-9.273432">
        <ele>65.383</ele>
        <time>2019-06-21T19:12:26Z</time>
      </trkpt>
      <trkpt lat="42.944346" lon="-9.273420">
        <ele>64.655</ele>
        <time>2019-06-21T19:12:27Z</time>
      </trkpt>
      <trkpt lat="42.944208" lon="-9.273394">
        <ele>64.182</ele>
        <time>2019-06-21T19:12:28Z</time>
      </trkpt>
      <trkpt lat="42.944065" lon="-9.273358">
        <ele>63.618</ele>
        <time>2019-06-21T19:12:29Z</time>
      </trkpt>
      <trkpt lat="42.943908" lon="-9.273298">
        <ele>63.172</ele>
        <time>2019-06-21T19:12:30Z</time>
      </trkpt>
      <trkpt lat="42.943750" lon="-9.273233">
        <ele>62.364</ele>
        <time>2019-06-21T19:12:31Z</time>
      </trkpt>
      <trkpt lat="42.943596" lon="-9.273169">
        <ele>61.427</ele>
        <time>2019-06-21T19:12:32Z</time>
      </trkpt>
      <trkpt lat="42.943437" lon="-9.273110">
        <ele>61.068</ele>
        <time>2019-06-21T19:12:33Z</time>
      </trkpt>
      <trkpt lat="42.943286" lon="-9.273059">
        <ele>60.514</ele>
        <time>2019-06-21T19:12:34Z</time>
      </trkpt>
      <trkpt lat="42.943145" lon="-9.273002">
        <ele>59.008</ele>
        <time>2019-06-21T19:12:35Z</time>
      </trkpt>
      <trkpt lat="42.943021" lon="-9.272951">
        <ele>58.015</ele>
        <time>2019-06-21T19:12:36Z</time>
      </trkpt>
      <trkpt lat="42.942895" lon="-9.272894">
        <ele>56.549</ele>
        <time>2019-06-21T19:12:37Z</time>
      </trkpt>
      <trkpt lat="42.942790" lon="-9.272858">
        <ele>55.221</ele>
        <time>2019-06-21T19:12:38Z</time>
      </trkpt>
      <trkpt lat="42.942681" lon="-9.272811">
        <ele>54.393</ele>
        <time>2019-06-21T19:12:39Z</time>
      </trkpt>
      <trkpt lat="42.942563" lon="-9.272769">
        <ele>53.520</ele>
        <time>2019-06-21T19:12:40Z</time>
      </trkpt>
      <trkpt lat="42.942424" lon="-9.272723">
        <ele>52.976</ele>
        <time>2019-06-21T19:12:41Z</time>
      </trkpt>
      <trkpt lat="42.942282" lon="-9.272676">
        <ele>52.640</ele>
        <time>2019-06-21T19:12:42Z</time>
      </trkpt>
      <trkpt lat="42.942127" lon="-9.272607">
        <ele>51.792</ele>
        <time>2019-06-21T19:12:43Z</time>
      </trkpt>
      <trkpt lat="42.941951" lon="-9.272554">
        <ele>50.132</ele>
        <time>2019-06-21T19:12:44Z</time>
      </trkpt>
      <trkpt lat="42.941780" lon="-9.272490">
        <ele>50.092</ele>
        <time>2019-06-21T19:12:45Z</time>
      </trkpt>
      <trkpt lat="42.941596" lon="-9.272416">
        <ele>49.511</ele>
        <time>2019-06-21T19:12:46Z</time>
      </trkpt>
      <trkpt lat="42.941410" lon="-9.272341">
        <ele>49.008</ele>
        <time>2019-06-21T19:12:47Z</time>
      </trkpt>
      <trkpt lat="42.941226" lon="-9.272261">
        <ele>48.496</ele>
        <time>2019-06-21T19:12:48Z</time>
      </trkpt>
      <trkpt lat="42.941039" lon="-9.272187">
        <ele>47.760</ele>
        <time>2019-06-21T19:12:49Z</time>
      </trkpt>
      <trkpt lat="42.940852" lon="-9.272121">
        <ele>47.162</ele>
        <time>2019-06-21T19:12:50Z</time>
      </trkpt>
      <trkpt lat="42.940653" lon="-9.272043">
        <ele>47.014</ele>
        <time>2019-06-21T19:12:51Z</time>
      </trkpt>
      <trkpt lat="42.940464" lon="-9.271965">
        <ele>46.361</ele>
        <time>2019-06-21T19:12:52Z</time>
      </trkpt>
      <trkpt lat="42.940275" lon="-9.271883">
        <ele>45.097</ele>
        <time>2019-06-21T19:12:53Z</time>
      </trkpt>
      <trkpt lat="42.940080" lon="-9.271805">
        <ele>43.931</ele>
        <time>2019-06-21T19:12:54Z</time>
      </trkpt>
      <trkpt lat="42.939895" lon="-9.271726">
        <ele>43.413</ele>
        <time>2019-06-21T19:12:55Z</time>
      </trkpt>
      <trkpt lat="42.939699" lon="-9.271651">
        <ele>42.929</ele>
        <time>2019-06-21T19:12:56Z</time>
      </trkpt>
      <trkpt lat="42.939505" lon="-9.271580">
        <ele>42.200</ele>
        <time>2019-06-21T19:12:57Z</time>
      </trkpt>
      <trkpt lat="42.939317" lon="-9.271509">
        <ele>41.820</ele>
        <time>2019-06-21T19:12:58Z</time>
      </trkpt>
      <trkpt lat="42.939121" lon="-9.271440">
        <ele>41.708</ele>
        <time>2019-06-21T19:12:59Z</time>
      </trkpt>
      <trkpt lat="42.938929" lon="-9.271365">
        <ele>41.265</ele>
        <time>2019-06-21T19:13:00Z</time>
      </trkpt>
      <trkpt lat="42.938737" lon="-9.271290">
        <ele>39.679</ele>
        <time>2019-06-21T19:13:01Z</time>
      </trkpt>
      <trkpt lat="42.938553" lon="-9.271216">
        <ele>38.321</ele>
        <time>2019-06-21T19:13:02Z</time>
      </trkpt>
      <trkpt lat="42.938372" lon="-9.271147">
        <ele>37.383</ele>
        <time>2019-06-21T19:13:03Z</time>
      </trkpt>
      <trkpt lat="42.938185" lon="-9.271081">
        <ele>36.450</ele>
        <time>2019-06-21T19:13:04Z</time>
      </trkpt>
      <trkpt lat="42.937994" lon="-9.271014">
        <ele>36.096</ele>
        <time>2019-06-21T19:13:05Z</time>
      </trkpt>
      <trkpt lat="42.937805" lon="-9.270939">
        <ele>36.070</ele>
        <time>2019-06-21T19:13:06Z</time>
      </trkpt>
      <trkpt lat="42.937621" lon="-9.270867">
        <ele>35.982</ele>
        <time>2019-06-21T19:13:07Z</time>
      </trkpt>
      <trkpt lat="42.937431" lon="-9.270798">
        <ele>35.871</ele>
        <time>2019-06-21T19:13:08Z</time>
      </trkpt>
      <trkpt lat="42.937244" lon="-9.270724">
        <ele>35.441</ele>
        <time>2019-06-21T19:13:09Z</time>
      </trkpt>
      <trkpt lat="42.937060" lon="-9.270651">
        <ele>34.715</ele>
        <time>2019-06-21T19:13:10Z</time>
      </trkpt>
      <trkpt lat="42.936876" lon="-9.270579">
        <ele>33.708</ele>
        <time>2019-06-21T19:13:11Z</time>
      </trkpt>
      <trkpt lat="42.936700" lon="-9.270506">
        <ele>33.120</ele>
        <time>2019-06-21T19:13:12Z</time>
      </trkpt>
      <trkpt lat="42.936525" lon="-9.270438">
        <ele>32.524</ele>
        <time>2019-06-21T19:13:13Z</time>
      </trkpt>
      <trkpt lat="42.936347" lon="-9.270376">
        <ele>31.856</ele>
        <time>2019-06-21T19:13:14Z</time>
      </trkpt>
      <trkpt lat="42.936174" lon="-9.270311">
        <ele>31.218</ele>
        <time>2019-06-21T19:13:15Z</time>
      </trkpt>
      <trkpt lat="42.935985" lon="-9.270245">
        <ele>30.925</ele>
        <time>2019-06-21T19:13:16Z</time>
      </trkpt>
      <trkpt lat="42.935803" lon="-9.270169">
        <ele>30.491</ele>
        <time>2019-06-21T19:13:17Z</time>
      </trkpt>
      <trkpt lat="42.935623" lon="-9.270090">
        <ele>29.395</ele>
        <time>2019-06-21T19:13:18Z</time>
      </trkpt>
      <trkpt lat="42.935444" lon="-9.270010">
        <ele>29.087</ele>
        <time>2019-06-21T19:13:19Z</time>
      </trkpt>
      <trkpt lat="42.935258" lon="-9.269932">
        <ele>29.026</ele>
        <time>2019-06-21T19:13:20Z</time>
      </trkpt>
      <trkpt lat="42.935075" lon="-9.269865">
        <ele>29.047</ele>
        <time>2019-06-21T19:13:21Z</time>
      </trkpt>
      <trkpt lat="42.934899" lon="-9.269794">
        <ele>28.611</ele>
        <time>2019-06-21T19:13:22Z</time>
      </trkpt>
      <trkpt lat="42.934732" lon="-9.269737">
        <ele>28.008</ele>
        <time>2019-06-21T19:13:23Z</time>
      </trkpt>
      <trkpt lat="42.934551" lon="-9.269675">
        <ele>26.845</ele>
        <time>2019-06-21T19:13:24Z</time>
      </trkpt>
      <trkpt lat="42.934377" lon="-9.269611">
        <ele>25.819</ele>
        <time>2019-06-21T19:13:25Z</time>
      </trkpt>
      <trkpt lat="42.934216" lon="-9.269555">
        <ele>25.261</ele>
        <time>2019-06-21T19:13:26Z</time>
      </trkpt>
      <trkpt lat="42.934046" lon="-9.269492">
        <ele>25.423</ele>
        <time>2019-06-21T19:13:27Z</time>
      </trkpt>
      <trkpt lat="42.933879" lon="-9.269426">
        <ele>26.060</ele>
        <time>2019-06-21T19:13:28Z</time>
      </trkpt>
      <trkpt lat="42.933723" lon="-9.269359">
        <ele>26.356</ele>
        <time>2019-06-21T19:13:29Z</time>
      </trkpt>
      <trkpt lat="42.933574" lon="-9.269308">
        <ele>26.860</ele>
        <time>2019-06-21T19:13:30Z</time>
      </trkpt>
      <trkpt lat="42.933422" lon="-9.269256">
        <ele>28.122</ele>
        <time>2019-06-21T19:13:31Z</time>
      </trkpt>
      <trkpt lat="42.933283" lon="-9.269202">
        <ele>29.556</ele>
        <time>2019-06-21T19:13:32Z</time>
      </trkpt>
      <trkpt lat="42.933163" lon="-9.269157">
        <ele>30.859</ele>
        <time>2019-06-21T19:13:33Z</time>
      </trkpt>
      <trkpt lat="42.933063" lon="-9.269118">
        <ele>31.714</ele>
        <time>2019-06-21T19:13:34Z</time>
      </trkpt>
      <trkpt lat="42.932969" lon="-9.269080">
        <ele>32.008</ele>
        <time>2019-06-21T19:13:35Z</time>
      </trkpt>
      <trkpt lat="42.932872" lon="-9.269044">
        <ele>32.228</ele>
        <time>2019-06-21T19:13:36Z</time>
      </trkpt>
      <trkpt lat="42.932771" lon="-9.269011">
        <ele>32.582</ele>
        <time>2019-06-21T19:13:37Z</time>
      </trkpt>
      <trkpt lat="42.932665" lon="-9.268976">
        <ele>32.934</ele>
        <time>2019-06-21T19:13:38Z</time>
      </trkpt>
      <trkpt lat="42.932562" lon="-9.268932">
        <ele>33.556</ele>
        <time>2019-06-21T19:13:39Z</time>
      </trkpt>
      <trkpt lat="42.932457" lon="-9.268896">
        <ele>34.163</ele>
        <time>2019-06-21T19:13:40Z</time>
      </trkpt>
      <trkpt lat="42.932357" lon="-9.268864">
        <ele>34.459</ele>
        <time>2019-06-21T19:13:41Z</time>
      </trkpt>
      <trkpt lat="42.932277" lon="-9.268833">
        <ele>34.613</ele>
        <time>2019-06-21T19:13:42Z</time>
      </trkpt>
      <trkpt lat="42.932189" lon="-9.268797">
        <ele>34.775</ele>
        <time>2019-06-21T19:13:43Z</time>
      </trkpt>
      <trkpt lat="42.932114" lon="-9.268746">
        <ele>34.596</ele>
        <time>2019-06-21T19:13:44Z</time>
      </trkpt>
      <trkpt lat="42.932041" lon="-9.268689">
        <ele>34.331</ele>
        <time>2019-06-21T19:13:45Z</time>
      </trkpt>
      <trkpt lat="42.931974" lon="-9.268615">
        <ele>34.024</ele>
        <time>2019-06-21T19:13:46Z</time>
      </trkpt>
      <trkpt lat="42.931895" lon="-9.268524">
        <ele>33.608</ele>
        <time>2019-06-21T19:13:47Z</time>
      </trkpt>
      <trkpt lat="42.931811" lon="-9.268421">
        <ele>33.032</ele>
        <time>2019-06-21T19:13:48Z</time>
      </trkpt>
      <trkpt lat="42.931722" lon="-9.268315">
        <ele>32.136</ele>
        <time>2019-06-21T19:13:49Z</time>
      </trkpt>
      <trkpt lat="42.931636" lon="-9.268201">
        <ele>31.028</ele>
        <time>2019-06-21T19:13:50Z</time>
      </trkpt>
      <trkpt lat="42.931547" lon="-9.268086">
        <ele>30.280</ele>
        <time>2019-06-21T19:13:51Z</time>
      </trkpt>
      <trkpt lat="42.931464" lon="-9.267972">
        <ele>29.477</ele>
        <time>2019-06-21T19:13:52Z</time>
      </trkpt>
      <trkpt lat="42.931383" lon="-9.267868">
        <ele>28.683</ele>
        <time>2019-06-21T19:13:53Z</time>
      </trkpt>
      <trkpt lat="42.931306" lon="-9.267787">
        <ele>28.187</ele>
        <time>2019-06-21T19:13:54Z</time>
      </trkpt>
      <trkpt lat="42.931244" lon="-9.267713">
        <ele>27.589</ele>
        <time>2019-06-21T19:13:55Z</time>
      </trkpt>
      <trkpt lat="42.931191" lon="-9.267649">
        <ele>27.113</ele>
        <time>2019-06-21T19:13:56Z</time>
      </trkpt>
      <trkpt lat="42.931149" lon="-9.267592">
        <ele>26.743</ele>
        <time>2019-06-21T19:13:57Z</time>
      </trkpt>
      <trkpt lat="42.931104" lon="-9.267534">
        <ele>26.207</ele>
        <time>2019-06-21T19:13:58Z</time>
      </trkpt>
      <trkpt lat="42.931067" lon="-9.267480">
        <ele>26.008</ele>
        <time>2019-06-21T19:13:59Z</time>
      </trkpt>
      <trkpt lat="42.931028" lon="-9.267416">
        <ele>25.964</ele>
        <time>2019-06-21T19:14:00Z</time>
      </trkpt>
      <trkpt lat="42.930962" lon="-9.267351">
        <ele>25.738</ele>
        <time>2019-06-21T19:14:01Z</time>
      </trkpt>
      <trkpt lat="42.930887" lon="-9.267261">
        <ele>25.350</ele>
        <time>2019-06-21T19:14:02Z</time>
      </trkpt>
      <trkpt lat="42.930793" lon="-9.267169">
        <ele>24.612</ele>
        <time>2019-06-21T19:14:03Z</time>
      </trkpt>
      <trkpt lat="42.930695" lon="-9.267045">
        <ele>23.999</ele>
        <time>2019-06-21T19:14:04Z</time>
      </trkpt>
      <trkpt lat="42.930592" lon="-9.266904">
        <ele>23.565</ele>
        <time>2019-06-21T19:14:05Z</time>
      </trkpt>
      <trkpt lat="42.930483" lon="-9.266762">
        <ele>23.159</ele>
        <time>2019-06-21T19:14:06Z</time>
      </trkpt>
      <trkpt lat="42.930368" lon="-9.266600">
        <ele>22.991</ele>
        <time>2019-06-21T19:14:07Z</time>
      </trkpt>
      <trkpt lat="42.930255" lon="-9.266456">
        <ele>23.058</ele>
        <time>2019-06-21T19:14:08Z</time>
      </trkpt>
      <trkpt lat="42.930143" lon="-9.266314">
        <ele>23.852</ele>
        <time>2019-06-21T19:14:09Z</time>
      </trkpt>
      <trkpt lat="42.930029" lon="-9.266168">
        <ele>23.617</ele>
        <time>2019-06-21T19:14:10Z</time>
      </trkpt>
      <trkpt lat="42.929913" lon="-9.266017">
        <ele>23.908</ele>
        <time>2019-06-21T19:14:11Z</time>
      </trkpt>
      <trkpt lat="42.929803" lon="-9.265872">
        <ele>23.688</ele>
        <time>2019-06-21T19:14:12Z</time>
      </trkpt>
      <trkpt lat="42.929688" lon="-9.265743">
        <ele>22.992</ele>
        <time>2019-06-21T19:14:13Z</time>
      </trkpt>
      <trkpt lat="42.929580" lon="-9.265600">
        <ele>22.124</ele>
        <time>2019-06-21T19:14:14Z</time>
      </trkpt>
      <trkpt lat="42.929478" lon="-9.265462">
        <ele>21.426</ele>
        <time>2019-06-21T19:14:15Z</time>
      </trkpt>
      <trkpt lat="42.929372" lon="-9.265329">
        <ele>20.053</ele>
        <time>2019-06-21T19:14:16Z</time>
      </trkpt>
      <trkpt lat="42.929273" lon="-9.265195">
        <ele>18.249</ele>
        <time>2019-06-21T19:14:17Z</time>
      </trkpt>
      <trkpt lat="42.929168" lon="-9.265052">
        <ele>16.193</ele>
        <time>2019-06-21T19:14:18Z</time>
      </trkpt>
      <trkpt lat="42.929062" lon="-9.264929">
        <ele>15.535</ele>
        <time>2019-06-21T19:14:19Z</time>
      </trkpt>
      <trkpt lat="42.928959" lon="-9.264801">
        <ele>15.377</ele>
        <time>2019-06-21T19:14:20Z</time>
      </trkpt>
      <trkpt lat="42.928857" lon="-9.264668">
        <ele>15.261</ele>
        <time>2019-06-21T19:14:21Z</time>
      </trkpt>
      <trkpt lat="42.928755" lon="-9.264535">
        <ele>15.327</ele>
        <time>2019-06-21T19:14:22Z</time>
      </trkpt>
      <trkpt lat="42.928649" lon="-9.264406">
        <ele>14.608</ele>
        <time>2019-06-21T19:14:23Z</time>
      </trkpt>
      <trkpt lat="42.928544" lon="-9.264281">
        <ele>14.290</ele>
        <time>2019-06-21T19:14:24Z</time>
      </trkpt>
      <trkpt lat="42.928441" lon="-9.264153">
        <ele>13.594</ele>
        <time>2019-06-21T19:14:25Z</time>
      </trkpt>
      <trkpt lat="42.928337" lon="-9.264026">
        <ele>13.026</ele>
        <time>2019-06-21T19:14:26Z</time>
      </trkpt>
      <trkpt lat="42.928233" lon="-9.263900">
        <ele>12.158</ele>
        <time>2019-06-21T19:14:27Z</time>
      </trkpt>
      <trkpt lat="42.928136" lon="-9.263774">
        <ele>11.675</ele>
        <time>2019-06-21T19:14:28Z</time>
      </trkpt>
      <trkpt lat="42.928048" lon="-9.263661">
        <ele>11.211</ele>
        <time>2019-06-21T19:14:29Z</time>
      </trkpt>
      <trkpt lat="42.927946" lon="-9.263541">
        <ele>11.425</ele>
        <time>2019-06-21T19:14:30Z</time>
      </trkpt>
      <trkpt lat="42.927854" lon="-9.263426">
        <ele>11.777</ele>
        <time>2019-06-21T19:14:31Z</time>
      </trkpt>
      <trkpt lat="42.927784" lon="-9.263335">
        <ele>12.026</ele>
        <time>2019-06-21T19:14:32Z</time>
      </trkpt>
      <trkpt lat="42.927724" lon="-9.263264">
        <ele>12.047</ele>
        <time>2019-06-21T19:14:33Z</time>
      </trkpt>
      <trkpt lat="42.927682" lon="-9.263216">
        <ele>12.011</ele>
        <time>2019-06-21T19:14:34Z</time>
      </trkpt>
      <trkpt lat="42.927649" lon="-9.263166">
        <ele>12.008</ele>
        <time>2019-06-21T19:14:35Z</time>
      </trkpt>
      <trkpt lat="42.927615" lon="-9.263110">
        <ele>12.095</ele>
        <time>2019-06-21T19:14:36Z</time>
      </trkpt>
      <trkpt lat="42.927564" lon="-9.263036">
        <ele>11.949</ele>
        <time>2019-06-21T19:14:37Z</time>
      </trkpt>
      <trkpt lat="42.927509" lon="-9.262963">
        <ele>11.761</ele>
        <time>2019-06-21T19:14:38Z</time>
      </trkpt>
      <trkpt lat="42.927430" lon="-9.262858">
        <ele>10.963</ele>
        <time>2019-06-21T19:14:39Z</time>
      </trkpt>
      <trkpt lat="42.927358" lon="-9.262773">
        <ele>10.070</ele>
        <time>2019-06-21T19:14:40Z</time>
      </trkpt>
      <trkpt lat="42.927267" lon="-9.262665">
        <ele>8.986</ele>
        <time>2019-06-21T19:14:41Z</time>
      </trkpt>
      <trkpt lat="42.927173" lon="-9.262550">
        <ele>8.140</ele>
        <time>2019-06-21T19:14:42Z</time>
      </trkpt>
      <trkpt lat="42.927069" lon="-9.262422">
        <ele>7.712</ele>
        <time>2019-06-21T19:14:43Z</time>
      </trkpt>
      <trkpt lat="42.926965" lon="-9.262294">
        <ele>7.378</ele>
        <time>2019-06-21T19:14:44Z</time>
      </trkpt>
      <trkpt lat="42.926870" lon="-9.262173">
        <ele>7.133</ele>
        <time>2019-06-21T19:14:45Z</time>
      </trkpt>
      <trkpt lat="42.926765" lon="-9.262034">
        <ele>7.026</ele>
        <time>2019-06-21T19:14:46Z</time>
      </trkpt>
      <trkpt lat="42.926656" lon="-9.261904">
        <ele>6.908</ele>
        <time>2019-06-21T19:14:47Z</time>
      </trkpt>
      <trkpt lat="42.926555" lon="-9.261771">
        <ele>6.810</ele>
        <time>2019-06-21T19:14:48Z</time>
      </trkpt>
      <trkpt lat="42.926447" lon="-9.261648">
        <ele>6.734</ele>
        <time>2019-06-21T19:14:49Z</time>
      </trkpt>
      <trkpt lat="42.926348" lon="-9.261519">
        <ele>6.536</ele>
        <time>2019-06-21T19:14:50Z</time>
      </trkpt>
      <trkpt lat="42.926253" lon="-9.261404">
        <ele>6.528</ele>
        <time>2019-06-21T19:14:51Z</time>
      </trkpt>
      <trkpt lat="42.926160" lon="-9.261290">
        <ele>6.845</ele>
        <time>2019-06-21T19:14:52Z</time>
      </trkpt>
      <trkpt lat="42.926076" lon="-9.261171">
        <ele>7.021</ele>
        <time>2019-06-21T19:14:53Z</time>
      </trkpt>
      <trkpt lat="42.925988" lon="-9.261059">
        <ele>7.045</ele>
        <time>2019-06-21T19:14:54Z</time>
      </trkpt>
      <trkpt lat="42.925908" lon="-9.260955">
        <ele>7.027</ele>
        <time>2019-06-21T19:14:55Z</time>
      </trkpt>
      <trkpt lat="42.925832" lon="-9.260862">
        <ele>7.098</ele>
        <time>2019-06-21T19:14:56Z</time>
      </trkpt>
      <trkpt lat="42.925776" lon="-9.260784">
        <ele>6.315</ele>
        <time>2019-06-21T19:14:57Z</time>
      </trkpt>
      <trkpt lat="42.925722" lon="-9.260713">
        <ele>5.726</ele>
        <time>2019-06-21T19:14:58Z</time>
      </trkpt>
      <trkpt lat="42.925680" lon="-9.260660">
        <ele>5.308</ele>
        <time>2019-06-21T19:14:59Z</time>
      </trkpt>
      <trkpt lat="42.925644" lon="-9.260619">
        <ele>5.162</ele>
        <time>2019-06-21T19:15:00Z</time>
      </trkpt>
      <trkpt lat="42.925573" lon="-9.260588">
        <ele>5.016</ele>
        <time>2019-06-21T19:15:02Z</time>
      </trkpt>
      <trkpt lat="42.925527" lon="-9.260605">
        <ele>5.018</ele>
        <time>2019-06-21T19:15:03Z</time>
      </trkpt>
      <trkpt lat="42.925466" lon="-9.260650">
        <ele>5.060</ele>
        <time>2019-06-21T19:15:04Z</time>
      </trkpt>
      <trkpt lat="42.925394" lon="-9.260741">
        <ele>5.087</ele>
        <time>2019-06-21T19:15:05Z</time>
      </trkpt>
      <trkpt lat="42.925310" lon="-9.260831">
        <ele>5.063</ele>
        <time>2019-06-21T19:15:06Z</time>
      </trkpt>
      <trkpt lat="42.925212" lon="-9.260922">
        <ele>5.027</ele>
        <time>2019-06-21T19:15:07Z</time>
      </trkpt>
      <trkpt lat="42.925107" lon="-9.261033">
        <ele>5.049</ele>
        <time>2019-06-21T19:15:08Z</time>
      </trkpt>
      <trkpt lat="42.924987" lon="-9.261163">
        <ele>5.054</ele>
        <time>2019-06-21T19:15:09Z</time>
      </trkpt>
      <trkpt lat="42.924859" lon="-9.261296">
        <ele>4.556</ele>
        <time>2019-06-21T19:15:10Z</time>
      </trkpt>
      <trkpt lat="42.924729" lon="-9.261428">
        <ele>4.211</ele>
        <time>2019-06-21T19:15:11Z</time>
      </trkpt>
      <trkpt lat="42.924586" lon="-9.261568">
        <ele>4.608</ele>
        <time>2019-06-21T19:15:12Z</time>
      </trkpt>
      <trkpt lat="42.924440" lon="-9.261717">
        <ele>5.448</ele>
        <time>2019-06-21T19:15:13Z</time>
      </trkpt>
      <trkpt lat="42.924287" lon="-9.261870">
        <ele>6.072</ele>
        <time>2019-06-21T19:15:14Z</time>
      </trkpt>
      <trkpt lat="42.924135" lon="-9.262040">
        <ele>5.954</ele>
        <time>2019-06-21T19:15:15Z</time>
      </trkpt>
      <trkpt lat="42.923978" lon="-9.262204">
        <ele>6.096</ele>
        <time>2019-06-21T19:15:16Z</time>
      </trkpt>
      <trkpt lat="42.923823" lon="-9.262371">
        <ele>5.423</ele>
        <time>2019-06-21T19:15:17Z</time>
      </trkpt>
      <trkpt lat="42.923667" lon="-9.262539">
        <ele>5.099</ele>
        <time>2019-06-21T19:15:18Z</time>
      </trkpt>
      <trkpt lat="42.923512" lon="-9.262702">
        <ele>4.653</ele>
        <time>2019-06-21T19:15:19Z</time>
      </trkpt>
      <trkpt lat="42.923356" lon="-9.262870">
        <ele>4.445</ele>
        <time>2019-06-21T19:15:20Z</time>
      </trkpt>
      <trkpt lat="42.923206" lon="-9.263034">
        <ele>4.984</ele>
        <time>2019-06-21T19:15:21Z</time>
      </trkpt>
      <trkpt lat="42.923055" lon="-9.263204">
        <ele>5.007</ele>
        <time>2019-06-21T19:15:22Z</time>
      </trkpt>
      <trkpt lat="42.922904" lon="-9.263371">
        <ele>5.517</ele>
        <time>2019-06-21T19:15:23Z</time>
      </trkpt>
      <trkpt lat="42.922755" lon="-9.263531">
        <ele>5.308</ele>
        <time>2019-06-21T19:15:24Z</time>
      </trkpt>
      <trkpt lat="42.922605" lon="-9.263696">
        <ele>5.021</ele>
        <time>2019-06-21T19:15:25Z</time>
      </trkpt>
      <trkpt lat="42.922447" lon="-9.263865">
        <ele>5.295</ele>
        <time>2019-06-21T19:15:26Z</time>
      </trkpt>
      <trkpt lat="42.922292" lon="-9.264037">
        <ele>5.337</ele>
        <time>2019-06-21T19:15:27Z</time>
      </trkpt>
      <trkpt lat="42.922133" lon="-9.264198">
        <ele>5.299</ele>
        <time>2019-06-21T19:15:28Z</time>
      </trkpt>
      <trkpt lat="42.921980" lon="-9.264358">
        <ele>5.816</ele>
        <time>2019-06-21T19:15:29Z</time>
      </trkpt>
      <trkpt lat="42.921820" lon="-9.264518">
        <ele>5.532</ele>
        <time>2019-06-21T19:15:30Z</time>
      </trkpt>
      <trkpt lat="42.921661" lon="-9.264688">
        <ele>5.966</ele>
        <time>2019-06-21T19:15:31Z</time>
      </trkpt>
      <trkpt lat="42.921508" lon="-9.264858">
        <ele>6.628</ele>
        <time>2019-06-21T19:15:32Z</time>
      </trkpt>
      <trkpt lat="42.921354" lon="-9.265029">
        <ele>7.664</ele>
        <time>2019-06-21T19:15:33Z</time>
      </trkpt>
      <trkpt lat="42.921204" lon="-9.265194">
        <ele>9.506</ele>
        <time>2019-06-21T19:15:34Z</time>
      </trkpt>
      <trkpt lat="42.921047" lon="-9.265355">
        <ele>10.216</ele>
        <time>2019-06-21T19:15:35Z</time>
      </trkpt>
      <trkpt lat="42.920895" lon="-9.265518">
        <ele>10.808</ele>
        <time>2019-06-21T19:15:36Z</time>
      </trkpt>
      <trkpt lat="42.920742" lon="-9.265671">
        <ele>11.149</ele>
        <time>2019-06-21T19:15:37Z</time>
      </trkpt>
      <trkpt lat="42.920590" lon="-9.265836">
        <ele>11.933</ele>
        <time>2019-06-21T19:15:38Z</time>
      </trkpt>
      <trkpt lat="42.920437" lon="-9.266000">
        <ele>12.375</ele>
        <time>2019-06-21T19:15:39Z</time>
      </trkpt>
      <trkpt lat="42.920279" lon="-9.266172">
        <ele>13.037</ele>
        <time>2019-06-21T19:15:40Z</time>
      </trkpt>
      <trkpt lat="42.920124" lon="-9.266336">
        <ele>13.634</ele>
        <time>2019-06-21T19:15:41Z</time>
      </trkpt>
      <trkpt lat="42.919973" lon="-9.266496">
        <ele>13.650</ele>
        <time>2019-06-21T19:15:42Z</time>
      </trkpt>
      <trkpt lat="42.919833" lon="-9.266663">
        <ele>13.044</ele>
        <time>2019-06-21T19:15:43Z</time>
      </trkpt>
      <trkpt lat="42.919693" lon="-9.266821">
        <ele>13.666</ele>
        <time>2019-06-21T19:15:44Z</time>
      </trkpt>
      <trkpt lat="42.919555" lon="-9.266968">
        <ele>14.176</ele>
        <time>2019-06-21T19:15:45Z</time>
      </trkpt>
      <trkpt lat="42.919431" lon="-9.267108">
        <ele>14.690</ele>
        <time>2019-06-21T19:15:46Z</time>
      </trkpt>
      <trkpt lat="42.919305" lon="-9.267236">
        <ele>15.619</ele>
        <time>2019-06-21T19:15:47Z</time>
      </trkpt>
      <trkpt lat="42.919169" lon="-9.267345">
        <ele>16.408</ele>
        <time>2019-06-21T19:15:48Z</time>
      </trkpt>
      <trkpt lat="42.919029" lon="-9.267424">
        <ele>17.280</ele>
        <time>2019-06-21T19:15:49Z</time>
      </trkpt>
      <trkpt lat="42.918874" lon="-9.267475">
        <ele>17.994</ele>
        <time>2019-06-21T19:15:50Z</time>
      </trkpt>
      <trkpt lat="42.918703" lon="-9.267503">
        <ele>18.016</ele>
        <time>2019-06-21T19:15:51Z</time>
      </trkpt>
      <trkpt lat="42.918527" lon="-9.267516">
        <ele>18.198</ele>
        <time>2019-06-21T19:15:52Z</time>
      </trkpt>
      <trkpt lat="42.918345" lon="-9.267523">
        <ele>18.285</ele>
        <time>2019-06-21T19:15:53Z</time>
      </trkpt>
      <trkpt lat="42.918167" lon="-9.267519">
        <ele>18.791</ele>
        <time>2019-06-21T19:15:54Z</time>
      </trkpt>
      <trkpt lat="42.917987" lon="-9.267528">
        <ele>19.075</ele>
        <time>2019-06-21T19:15:55Z</time>
      </trkpt>
      <trkpt lat="42.917803" lon="-9.267534">
        <ele>18.457</ele>
        <time>2019-06-21T19:15:56Z</time>
      </trkpt>
      <trkpt lat="42.917623" lon="-9.267535">
        <ele>17.876</ele>
        <time>2019-06-21T19:15:57Z</time>
      </trkpt>
      <trkpt lat="42.917457" lon="-9.267539">
        <ele>17.490</ele>
        <time>2019-06-21T19:15:58Z</time>
      </trkpt>
      <trkpt lat="42.917293" lon="-9.267531">
        <ele>17.319</ele>
        <time>2019-06-21T19:15:59Z</time>
      </trkpt>
      <trkpt lat="42.917133" lon="-9.267529">
        <ele>17.208</ele>
        <time>2019-06-21T19:16:00Z</time>
      </trkpt>
      <trkpt lat="42.916968" lon="-9.267529">
        <ele>17.140</ele>
        <time>2019-06-21T19:16:01Z</time>
      </trkpt>
      <trkpt lat="42.916806" lon="-9.267528">
        <ele>17.554</ele>
        <time>2019-06-21T19:16:02Z</time>
      </trkpt>
      <trkpt lat="42.916639" lon="-9.267532">
        <ele>18.076</ele>
        <time>2019-06-21T19:16:03Z</time>
      </trkpt>
      <trkpt lat="42.916475" lon="-9.267529">
        <ele>18.198</ele>
        <time>2019-06-21T19:16:04Z</time>
      </trkpt>
      <trkpt lat="42.916310" lon="-9.267532">
        <ele>18.485</ele>
        <time>2019-06-21T19:16:05Z</time>
      </trkpt>
      <trkpt lat="42.916137" lon="-9.267538">
        <ele>18.911</ele>
        <time>2019-06-21T19:16:06Z</time>
      </trkpt>
      <trkpt lat="42.915964" lon="-9.267544">
        <ele>19.095</ele>
        <time>2019-06-21T19:16:07Z</time>
      </trkpt>
      <trkpt lat="42.915788" lon="-9.267552">
        <ele>19.357</ele>
        <time>2019-06-21T19:16:08Z</time>
      </trkpt>
      <trkpt lat="42.915604" lon="-9.267544">
        <ele>20.787</ele>
        <time>2019-06-21T19:16:09Z</time>
      </trkpt>
      <trkpt lat="42.915431" lon="-9.267533">
        <ele>21.942</ele>
        <time>2019-06-21T19:16:10Z</time>
      </trkpt>
      <trkpt lat="42.915256" lon="-9.267523">
        <ele>23.026</ele>
        <time>2019-06-21T19:16:11Z</time>
      </trkpt>
      <trkpt lat="42.915075" lon="-9.267519">
        <ele>23.008</ele>
        <time>2019-06-21T19:16:12Z</time>
      </trkpt>
      <trkpt lat="42.914908" lon="-9.267529">
        <ele>22.121</ele>
        <time>2019-06-21T19:16:13Z</time>
      </trkpt>
      <trkpt lat="42.914745" lon="-9.267539">
        <ele>20.585</ele>
        <time>2019-06-21T19:16:14Z</time>
      </trkpt>
      <trkpt lat="42.914586" lon="-9.267541">
        <ele>19.847</ele>
        <time>2019-06-21T19:16:15Z</time>
      </trkpt>
      <trkpt lat="42.914440" lon="-9.267536">
        <ele>19.319</ele>
        <time>2019-06-21T19:16:16Z</time>
      </trkpt>
      <trkpt lat="42.914302" lon="-9.267535">
        <ele>19.276</ele>
        <time>2019-06-21T19:16:17Z</time>
      </trkpt>
      <trkpt lat="42.914184" lon="-9.267542">
        <ele>19.212</ele>
        <time>2019-06-21T19:16:18Z</time>
      </trkpt>
      <trkpt lat="42.914062" lon="-9.267505">
        <ele>19.456</ele>
        <time>2019-06-21T19:16:19Z</time>
      </trkpt>
      <trkpt lat="42.913958" lon="-9.267446">
        <ele>19.618</ele>
        <time>2019-06-21T19:16:20Z</time>
      </trkpt>
      <trkpt lat="42.913857" lon="-9.267371">
        <ele>19.758</ele>
        <time>2019-06-21T19:16:21Z</time>
      </trkpt>
      <trkpt lat="42.913766" lon="-9.267261">
        <ele>20.052</ele>
        <time>2019-06-21T19:16:22Z</time>
      </trkpt>
      <trkpt lat="42.913693" lon="-9.267124">
        <ele>20.717</ele>
        <time>2019-06-21T19:16:23Z</time>
      </trkpt>
      <trkpt lat="42.913630" lon="-9.266962">
        <ele>21.708</ele>
        <time>2019-06-21T19:16:24Z</time>
      </trkpt>
      <trkpt lat="42.913589" lon="-9.266779">
        <ele>22.178</ele>
        <time>2019-06-21T19:16:25Z</time>
      </trkpt>
      <trkpt lat="42.913557" lon="-9.266580">
        <ele>22.422</ele>
        <time>2019-06-21T19:16:26Z</time>
      </trkpt>
      <trkpt lat="42.913520" lon="-9.266377">
        <ele>23.094</ele>
        <time>2019-06-21T19:16:27Z</time>
      </trkpt>
      <trkpt lat="42.913485" lon="-9.266173">
        <ele>23.716</ele>
        <time>2019-06-21T19:16:28Z</time>
      </trkpt>
      <trkpt lat="42.913455" lon="-9.265969">
        <ele>24.533</ele>
        <time>2019-06-21T19:16:29Z</time>
      </trkpt>
      <trkpt lat="42.913423" lon="-9.265778">
        <ele>25.019</ele>
        <time>2019-06-21T19:16:30Z</time>
      </trkpt>
      <trkpt lat="42.913389" lon="-9.265598">
        <ele>25.493</ele>
        <time>2019-06-21T19:16:31Z</time>
      </trkpt>
      <trkpt lat="42.913362" lon="-9.265434">
        <ele>25.345</ele>
        <time>2019-06-21T19:16:32Z</time>
      </trkpt>
      <trkpt lat="42.913331" lon="-9.265283">
        <ele>25.142</ele>
        <time>2019-06-21T19:16:33Z</time>
      </trkpt>
      <trkpt lat="42.913293" lon="-9.265139">
        <ele>25.222</ele>
        <time>2019-06-21T19:16:34Z</time>
      </trkpt>
      <trkpt lat="42.913252" lon="-9.265000">
        <ele>25.514</ele>
        <time>2019-06-21T19:16:35Z</time>
      </trkpt>
      <trkpt lat="42.913202" lon="-9.264854">
        <ele>25.308</ele>
        <time>2019-06-21T19:16:36Z</time>
      </trkpt>
      <trkpt lat="42.913154" lon="-9.264714">
        <ele>25.167</ele>
        <time>2019-06-21T19:16:37Z</time>
      </trkpt>
      <trkpt lat="42.913095" lon="-9.264577">
        <ele>23.861</ele>
        <time>2019-06-21T19:16:38Z</time>
      </trkpt>
      <trkpt lat="42.913033" lon="-9.264453">
        <ele>22.573</ele>
        <time>2019-06-21T19:16:39Z</time>
      </trkpt>
      <trkpt lat="42.912959" lon="-9.264348">
        <ele>21.535</ele>
        <time>2019-06-21T19:16:40Z</time>
      </trkpt>
      <trkpt lat="42.912866" lon="-9.264272">
        <ele>21.222</ele>
        <time>2019-06-21T19:16:41Z</time>
      </trkpt>
      <trkpt lat="42.912758" lon="-9.264220">
        <ele>21.418</ele>
        <time>2019-06-21T19:16:42Z</time>
      </trkpt>
      <trkpt lat="42.912644" lon="-9.264189">
        <ele>22.462</ele>
        <time>2019-06-21T19:16:43Z</time>
      </trkpt>
      <trkpt lat="42.912528" lon="-9.264159">
        <ele>23.534</ele>
        <time>2019-06-21T19:16:44Z</time>
      </trkpt>
      <trkpt lat="42.912409" lon="-9.264125">
        <ele>24.454</ele>
        <time>2019-06-21T19:16:45Z</time>
      </trkpt>
      <trkpt lat="42.912304" lon="-9.264076">
        <ele>25.056</ele>
        <time>2019-06-21T19:16:46Z</time>
      </trkpt>
      <trkpt lat="42.912195" lon="-9.264030">
        <ele>25.511</ele>
        <time>2019-06-21T19:16:47Z</time>
      </trkpt>
      <trkpt lat="42.912081" lon="-9.263983">
        <ele>25.008</ele>
        <time>2019-06-21T19:16:48Z</time>
      </trkpt>
      <trkpt lat="42.911977" lon="-9.263936">
        <ele>24.518</ele>
        <time>2019-06-21T19:16:49Z</time>
      </trkpt>
      <trkpt lat="42.911875" lon="-9.263889">
        <ele>24.032</ele>
        <time>2019-06-21T19:16:50Z</time>
      </trkpt>
      <trkpt lat="42.911782" lon="-9.263863">
        <ele>23.724</ele>
        <time>2019-06-21T19:16:51Z</time>
      </trkpt>
      <trkpt lat="42.911677" lon="-9.263813">
        <ele>23.256</ele>
        <time>2019-06-21T19:16:52Z</time>
      </trkpt>
      <trkpt lat="42.911580" lon="-9.263771">
        <ele>23.083</ele>
        <time>2019-06-21T19:16:53Z</time>
      </trkpt>
      <trkpt lat="42.911482" lon="-9.263732">
        <ele>23.089</ele>
        <time>2019-06-21T19:16:54Z</time>
      </trkpt>
      <trkpt lat="42.911383" lon="-9.263703">
        <ele>23.083</ele>
        <time>2019-06-21T19:16:55Z</time>
      </trkpt>
      <trkpt lat="42.911277" lon="-9.263680">
        <ele>23.485</ele>
        <time>2019-06-21T19:16:56Z</time>
      </trkpt>
      <trkpt lat="42.911171" lon="-9.263658">
        <ele>23.947</ele>
        <time>2019-06-21T19:16:57Z</time>
      </trkpt>
      <trkpt lat="42.911077" lon="-9.263619">
        <ele>24.429</ele>
        <time>2019-06-21T19:16:58Z</time>
      </trkpt>
      <trkpt lat="42.910995" lon="-9.263584">
        <ele>25.221</ele>
        <time>2019-06-21T19:16:59Z</time>
      </trkpt>
      <trkpt lat="42.910906" lon="-9.263543">
        <ele>26.208</ele>
        <time>2019-06-21T19:17:00Z</time>
      </trkpt>
      <trkpt lat="42.910833" lon="-9.263498">
        <ele>27.027</ele>
        <time>2019-06-21T19:17:01Z</time>
      </trkpt>
      <trkpt lat="42.910768" lon="-9.263447">
        <ele>27.591</ele>
        <time>2019-06-21T19:17:02Z</time>
      </trkpt>
      <trkpt lat="42.910709" lon="-9.263391">
        <ele>27.943</ele>
        <time>2019-06-21T19:17:03Z</time>
      </trkpt>
      <trkpt lat="42.910642" lon="-9.263329">
        <ele>28.415</ele>
        <time>2019-06-21T19:17:04Z</time>
      </trkpt>
      <trkpt lat="42.910585" lon="-9.263290">
        <ele>28.842</ele>
        <time>2019-06-21T19:17:05Z</time>
      </trkpt>
      <trkpt lat="42.910538" lon="-9.263247">
        <ele>29.098</ele>
        <time>2019-06-21T19:17:06Z</time>
      </trkpt>
      <trkpt lat="42.910488" lon="-9.263209">
        <ele>29.192</ele>
        <time>2019-06-21T19:17:07Z</time>
      </trkpt>
      <trkpt lat="42.910439" lon="-9.263179">
        <ele>29.284</ele>
        <time>2019-06-21T19:17:08Z</time>
      </trkpt>
      <trkpt lat="42.910386" lon="-9.263141">
        <ele>29.248</ele>
        <time>2019-06-21T19:17:09Z</time>
      </trkpt>
      <trkpt lat="42.910332" lon="-9.263118">
        <ele>29.261</ele>
        <time>2019-06-21T19:17:10Z</time>
      </trkpt>
      <trkpt lat="42.910278" lon="-9.263108">
        <ele>29.217</ele>
        <time>2019-06-21T19:17:11Z</time>
      </trkpt>
      <trkpt lat="42.910229" lon="-9.263128">
        <ele>29.108</ele>
        <time>2019-06-21T19:17:12Z</time>
      </trkpt>
      <trkpt lat="42.910181" lon="-9.263228">
        <ele>29.527</ele>
        <time>2019-06-21T19:17:14Z</time>
      </trkpt>
      <trkpt lat="42.910147" lon="-9.263285">
        <ele>29.731</ele>
        <time>2019-06-21T19:17:15Z</time>
      </trkpt>
      <trkpt lat="42.910115" lon="-9.263357">
        <ele>30.193</ele>
        <time>2019-06-21T19:17:16Z</time>
      </trkpt>
      <trkpt lat="42.910083" lon="-9.263429">
        <ele>30.295</ele>
        <time>2019-06-21T19:17:17Z</time>
      </trkpt>
      <trkpt lat="42.910046" lon="-9.263490">
        <ele>30.552</ele>
        <time>2019-06-21T19:17:18Z</time>
      </trkpt>
      <trkpt lat="42.910010" lon="-9.263544">
        <ele>30.778</ele>
        <time>2019-06-21T19:17:19Z</time>
      </trkpt>
      <trkpt lat="42.909955" lon="-9.263577">
        <ele>31.092</ele>
        <time>2019-06-21T19:17:20Z</time>
      </trkpt>
      <trkpt lat="42.909900" lon="-9.263584">
        <ele>31.284</ele>
        <time>2019-06-21T19:17:21Z</time>
      </trkpt>
      <trkpt lat="42.909841" lon="-9.263570">
        <ele>31.317</ele>
        <time>2019-06-21T19:17:22Z</time>
      </trkpt>
      <trkpt lat="42.909782" lon="-9.263552">
        <ele>31.487</ele>
        <time>2019-06-21T19:17:23Z</time>
      </trkpt>
      <trkpt lat="42.909705" lon="-9.263530">
        <ele>31.515</ele>
        <time>2019-06-21T19:17:24Z</time>
      </trkpt>
      <trkpt lat="42.909632" lon="-9.263508">
        <ele>31.608</ele>
        <time>2019-06-21T19:17:25Z</time>
      </trkpt>
      <trkpt lat="42.909559" lon="-9.263489">
        <ele>31.744</ele>
        <time>2019-06-21T19:17:26Z</time>
      </trkpt>
      <trkpt lat="42.909487" lon="-9.263472">
        <ele>31.868</ele>
        <time>2019-06-21T19:17:27Z</time>
      </trkpt>
      <trkpt lat="42.909414" lon="-9.263462">
        <ele>31.860</ele>
        <time>2019-06-21T19:17:28Z</time>
      </trkpt>
      <trkpt lat="42.909346" lon="-9.263440">
        <ele>31.332</ele>
        <time>2019-06-21T19:17:29Z</time>
      </trkpt>
      <trkpt lat="42.909279" lon="-9.263422">
        <ele>30.919</ele>
        <time>2019-06-21T19:17:30Z</time>
      </trkpt>
      <trkpt lat="42.909219" lon="-9.263410">
        <ele>30.545</ele>
        <time>2019-06-21T19:17:31Z</time>
      </trkpt>
      <trkpt lat="42.909164" lon="-9.263412">
        <ele>30.369</ele>
        <time>2019-06-21T19:17:32Z</time>
      </trkpt>
      <trkpt lat="42.909113" lon="-9.263415">
        <ele>29.731</ele>
        <time>2019-06-21T19:17:33Z</time>
      </trkpt>
      <trkpt lat="42.909058" lon="-9.263419">
        <ele>29.152</ele>
        <time>2019-06-21T19:17:34Z</time>
      </trkpt>
      <trkpt lat="42.908991" lon="-9.263427">
        <ele>28.453</ele>
        <time>2019-06-21T19:17:35Z</time>
      </trkpt>
      <trkpt lat="42.908935" lon="-9.263448">
        <ele>27.908</ele>
        <time>2019-06-21T19:17:36Z</time>
      </trkpt>
      <trkpt lat="42.908877" lon="-9.263483">
        <ele>27.408</ele>
        <time>2019-06-21T19:17:37Z</time>
      </trkpt>
      <trkpt lat="42.908812" lon="-9.263541">
        <ele>27.168</ele>
        <time>2019-06-21T19:17:38Z</time>
      </trkpt>
      <trkpt lat="42.908756" lon="-9.263605">
        <ele>27.062</ele>
        <time>2019-06-21T19:17:39Z</time>
      </trkpt>
      <trkpt lat="42.908697" lon="-9.263683">
        <ele>27.074</ele>
        <time>2019-06-21T19:17:40Z</time>
      </trkpt>
      <trkpt lat="42.908637" lon="-9.263773">
        <ele>26.826</ele>
        <time>2019-06-21T19:17:41Z</time>
      </trkpt>
      <trkpt lat="42.908578" lon="-9.263851">
        <ele>26.773</ele>
        <time>2019-06-21T19:17:42Z</time>
      </trkpt>
      <trkpt lat="42.908513" lon="-9.263930">
        <ele>26.939</ele>
        <time>2019-06-21T19:17:43Z</time>
      </trkpt>
      <trkpt lat="42.908456" lon="-9.264025">
        <ele>27.133</ele>
        <time>2019-06-21T19:17:44Z</time>
      </trkpt>
      <trkpt lat="42.908393" lon="-9.264105">
        <ele>27.245</ele>
        <time>2019-06-21T19:17:45Z</time>
      </trkpt>
      <trkpt lat="42.908329" lon="-9.264195">
        <ele>27.216</ele>
        <time>2019-06-21T19:17:46Z</time>
      </trkpt>
      <trkpt lat="42.908263" lon="-9.264284">
        <ele>27.576</ele>
        <time>2019-06-21T19:17:47Z</time>
      </trkpt>
      <trkpt lat="42.908203" lon="-9.264371">
        <ele>27.713</ele>
        <time>2019-06-21T19:17:48Z</time>
      </trkpt>
      <trkpt lat="42.908141" lon="-9.264465">
        <ele>27.708</ele>
        <time>2019-06-21T19:17:49Z</time>
      </trkpt>
      <trkpt lat="42.908074" lon="-9.264544">
        <ele>27.524</ele>
        <time>2019-06-21T19:17:50Z</time>
      </trkpt>
      <trkpt lat="42.908016" lon="-9.264640">
        <ele>27.418</ele>
        <time>2019-06-21T19:17:51Z</time>
      </trkpt>
      <trkpt lat="42.907953" lon="-9.264729">
        <ele>27.360</ele>
        <time>2019-06-21T19:17:52Z</time>
      </trkpt>
      <trkpt lat="42.907896" lon="-9.264805">
        <ele>27.352</ele>
        <time>2019-06-21T19:17:53Z</time>
      </trkpt>
      <trkpt lat="42.907833" lon="-9.264878">
        <ele>27.449</ele>
        <time>2019-06-21T19:17:54Z</time>
      </trkpt>
      <trkpt lat="42.907769" lon="-9.264959">
        <ele>27.665</ele>
        <time>2019-06-21T19:17:55Z</time>
      </trkpt>
      <trkpt lat="42.907697" lon="-9.265026">
        <ele>27.679</ele>
        <time>2019-06-21T19:17:56Z</time>
      </trkpt>
      <trkpt lat="42.907619" lon="-9.265082">
        <ele>27.441</ele>
        <time>2019-06-21T19:17:57Z</time>
      </trkpt>
      <trkpt lat="42.907539" lon="-9.265151">
        <ele>27.465</ele>
        <time>2019-06-21T19:17:58Z</time>
      </trkpt>
      <trkpt lat="42.907456" lon="-9.265194">
        <ele>27.468</ele>
        <time>2019-06-21T19:17:59Z</time>
      </trkpt>
      <trkpt lat="42.907370" lon="-9.265240">
        <ele>27.714</ele>
        <time>2019-06-21T19:18:00Z</time>
      </trkpt>
      <trkpt lat="42.907287" lon="-9.265262">
        <ele>27.908</ele>
        <time>2019-06-21T19:18:01Z</time>
      </trkpt>
      <trkpt lat="42.907190" lon="-9.265269">
        <ele>27.859</ele>
        <time>2019-06-21T19:18:02Z</time>
      </trkpt>
      <trkpt lat="42.907105" lon="-9.265268">
        <ele>27.513</ele>
        <time>2019-06-21T19:18:03Z</time>
      </trkpt>
      <trkpt lat="42.907005" lon="-9.265247">
        <ele>27.185</ele>
        <time>2019-06-21T19:18:04Z</time>
      </trkpt>
      <trkpt lat="42.906907" lon="-9.265230">
        <ele>26.787</ele>
        <time>2019-06-21T19:18:05Z</time>
      </trkpt>
      <trkpt lat="42.906813" lon="-9.265194">
        <ele>26.474</ele>
        <time>2019-06-21T19:18:06Z</time>
      </trkpt>
      <trkpt lat="42.906725" lon="-9.265176">
        <ele>26.140</ele>
        <time>2019-06-21T19:18:07Z</time>
      </trkpt>
      <trkpt lat="42.906662" lon="-9.265144">
        <ele>26.054</ele>
        <time>2019-06-21T19:18:08Z</time>
      </trkpt>
      <trkpt lat="42.906585" lon="-9.265126">
        <ele>26.336</ele>
        <time>2019-06-21T19:18:09Z</time>
      </trkpt>
      <trkpt lat="42.906502" lon="-9.265105">
        <ele>26.616</ele>
        <time>2019-06-21T19:18:10Z</time>
      </trkpt>
      <trkpt lat="42.906429" lon="-9.265086">
        <ele>26.976</ele>
        <time>2019-06-21T19:18:11Z</time>
      </trkpt>
      <trkpt lat="42.906350" lon="-9.265067">
        <ele>27.213</ele>
        <time>2019-06-21T19:18:12Z</time>
      </trkpt>
      <trkpt lat="42.906266" lon="-9.265029">
        <ele>27.808</ele>
        <time>2019-06-21T19:18:13Z</time>
      </trkpt>
      <trkpt lat="42.906187" lon="-9.265002">
        <ele>28.464</ele>
        <time>2019-06-21T19:18:14Z</time>
      </trkpt>
      <trkpt lat="42.906095" lon="-9.264969">
        <ele>29.038</ele>
        <time>2019-06-21T19:18:15Z</time>
      </trkpt>
      <trkpt lat="42.906008" lon="-9.264945">
        <ele>28.920</ele>
        <time>2019-06-21T19:18:16Z</time>
      </trkpt>
      <trkpt lat="42.905920" lon="-9.264927">
        <ele>28.852</ele>
        <time>2019-06-21T19:18:17Z</time>
      </trkpt>
      <trkpt lat="42.905838" lon="-9.264900">
        <ele>28.629</ele>
        <time>2019-06-21T19:18:18Z</time>
      </trkpt>
      <trkpt lat="42.905761" lon="-9.264865">
        <ele>28.155</ele>
        <time>2019-06-21T19:18:19Z</time>
      </trkpt>
      <trkpt lat="42.905673" lon="-9.264827">
        <ele>27.669</ele>
        <time>2019-06-21T19:18:20Z</time>
      </trkpt>
      <trkpt lat="42.905588" lon="-9.264784">
        <ele>27.171</ele>
        <time>2019-06-21T19:18:21Z</time>
      </trkpt>
      <trkpt lat="42.905512" lon="-9.264735">
        <ele>27.034</ele>
        <time>2019-06-21T19:18:22Z</time>
      </trkpt>
      <trkpt lat="42.905437" lon="-9.264692">
        <ele>26.955</ele>
        <time>2019-06-21T19:18:23Z</time>
      </trkpt>
      <trkpt lat="42.905356" lon="-9.264651">
        <ele>26.710</ele>
        <time>2019-06-21T19:18:24Z</time>
      </trkpt>
      <trkpt lat="42.905290" lon="-9.264609">
        <ele>26.608</ele>
        <time>2019-06-21T19:18:25Z</time>
      </trkpt>
      <trkpt lat="42.905225" lon="-9.264561">
        <ele>26.486</ele>
        <time>2019-06-21T19:18:26Z</time>
      </trkpt>
      <trkpt lat="42.905162" lon="-9.264521">
        <ele>26.310</ele>
        <time>2019-06-21T19:18:27Z</time>
      </trkpt>
      <trkpt lat="42.905108" lon="-9.264490">
        <ele>26.292</ele>
        <time>2019-06-21T19:18:28Z</time>
      </trkpt>
      <trkpt lat="42.905053" lon="-9.264454">
        <ele>26.044</ele>
        <time>2019-06-21T19:18:29Z</time>
      </trkpt>
      <trkpt lat="42.905012" lon="-9.264426">
        <ele>25.951</ele>
        <time>2019-06-21T19:18:30Z</time>
      </trkpt>
      <trkpt lat="42.904955" lon="-9.264387">
        <ele>26.157</ele>
        <time>2019-06-21T19:18:31Z</time>
      </trkpt>
      <trkpt lat="42.904897" lon="-9.264350">
        <ele>26.421</ele>
        <time>2019-06-21T19:18:32Z</time>
      </trkpt>
      <trkpt lat="42.904830" lon="-9.264312">
        <ele>26.763</ele>
        <time>2019-06-21T19:18:33Z</time>
      </trkpt>
      <trkpt lat="42.904759" lon="-9.264278">
        <ele>27.179</ele>
        <time>2019-06-21T19:18:34Z</time>
      </trkpt>
      <trkpt lat="42.904680" lon="-9.264245">
        <ele>27.405</ele>
        <time>2019-06-21T19:18:35Z</time>
      </trkpt>
      <trkpt lat="42.904594" lon="-9.264214">
        <ele>27.625</ele>
        <time>2019-06-21T19:18:36Z</time>
      </trkpt>
      <trkpt lat="42.904499" lon="-9.264178">
        <ele>27.808</ele>
        <time>2019-06-21T19:18:37Z</time>
      </trkpt>
      <trkpt lat="42.904398" lon="-9.264129">
        <ele>27.530</ele>
        <time>2019-06-21T19:18:38Z</time>
      </trkpt>
      <trkpt lat="42.904297" lon="-9.264079">
        <ele>26.594</ele>
        <time>2019-06-21T19:18:39Z</time>
      </trkpt>
      <trkpt lat="42.904191" lon="-9.264032">
        <ele>25.216</ele>
        <time>2019-06-21T19:18:40Z</time>
      </trkpt>
      <trkpt lat="42.904068" lon="-9.263973">
        <ele>24.798</ele>
        <time>2019-06-21T19:18:41Z</time>
      </trkpt>
      <trkpt lat="42.903937" lon="-9.263923">
        <ele>24.325</ele>
        <time>2019-06-21T19:18:42Z</time>
      </trkpt>
      <trkpt lat="42.903821" lon="-9.263867">
        <ele>24.491</ele>
        <time>2019-06-21T19:18:43Z</time>
      </trkpt>
      <trkpt lat="42.903679" lon="-9.263813">
        <ele>25.215</ele>
        <time>2019-06-21T19:18:44Z</time>
      </trkpt>
      <trkpt lat="42.903540" lon="-9.263754">
        <ele>26.267</ele>
        <time>2019-06-21T19:18:45Z</time>
      </trkpt>
      <trkpt lat="42.903406" lon="-9.263697">
        <ele>27.396</ele>
        <time>2019-06-21T19:18:46Z</time>
      </trkpt>
      <trkpt lat="42.903272" lon="-9.263639">
        <ele>28.531</ele>
        <time>2019-06-21T19:18:47Z</time>
      </trkpt>
      <trkpt lat="42.903138" lon="-9.263576">
        <ele>29.624</ele>
        <time>2019-06-21T19:18:48Z</time>
      </trkpt>
      <trkpt lat="42.903008" lon="-9.263514">
        <ele>31.008</ele>
        <time>2019-06-21T19:18:49Z</time>
      </trkpt>
      <trkpt lat="42.902877" lon="-9.263448">
        <ele>32.592</ele>
        <time>2019-06-21T19:18:50Z</time>
      </trkpt>
      <trkpt lat="42.902751" lon="-9.263399">
        <ele>33.546</ele>
        <time>2019-06-21T19:18:51Z</time>
      </trkpt>
      <trkpt lat="42.902633" lon="-9.263360">
        <ele>33.478</ele>
        <time>2019-06-21T19:18:52Z</time>
      </trkpt>
      <trkpt lat="42.902518" lon="-9.263323">
        <ele>33.170</ele>
        <time>2019-06-21T19:18:53Z</time>
      </trkpt>
      <trkpt lat="42.902404" lon="-9.263301">
        <ele>33.797</ele>
        <time>2019-06-21T19:18:54Z</time>
      </trkpt>
      <trkpt lat="42.902289" lon="-9.263293">
        <ele>34.363</ele>
        <time>2019-06-21T19:18:55Z</time>
      </trkpt>
      <trkpt lat="42.902162" lon="-9.263295">
        <ele>35.587</ele>
        <time>2019-06-21T19:18:56Z</time>
      </trkpt>
      <trkpt lat="42.902049" lon="-9.263310">
        <ele>37.239</ele>
        <time>2019-06-21T19:18:57Z</time>
      </trkpt>
      <trkpt lat="42.901941" lon="-9.263333">
        <ele>39.019</ele>
        <time>2019-06-21T19:18:58Z</time>
      </trkpt>
      <trkpt lat="42.901844" lon="-9.263356">
        <ele>40.209</ele>
        <time>2019-06-21T19:18:59Z</time>
      </trkpt>
      <trkpt lat="42.901746" lon="-9.263377">
        <ele>41.519</ele>
        <time>2019-06-21T19:19:00Z</time>
      </trkpt>
      <trkpt lat="42.901651" lon="-9.263387">
        <ele>42.808</ele>
        <time>2019-06-21T19:19:01Z</time>
      </trkpt>
      <trkpt lat="42.901557" lon="-9.263375">
        <ele>43.834</ele>
        <time>2019-06-21T19:19:02Z</time>
      </trkpt>
      <trkpt lat="42.901456" lon="-9.263354">
        <ele>44.728</ele>
        <time>2019-06-21T19:19:03Z</time>
      </trkpt>
      <trkpt lat="42.901350" lon="-9.263313">
        <ele>44.850</ele>
        <time>2019-06-21T19:19:04Z</time>
      </trkpt>
      <trkpt lat="42.901253" lon="-9.263288">
        <ele>45.272</ele>
        <time>2019-06-21T19:19:05Z</time>
      </trkpt>
      <trkpt lat="42.901154" lon="-9.263267">
        <ele>45.859</ele>
        <time>2019-06-21T19:19:06Z</time>
      </trkpt>
      <trkpt lat="42.901045" lon="-9.263256">
        <ele>45.995</ele>
        <time>2019-06-21T19:19:07Z</time>
      </trkpt>
      <trkpt lat="42.900934" lon="-9.263260">
        <ele>46.079</ele>
        <time>2019-06-21T19:19:08Z</time>
      </trkpt>
      <trkpt lat="42.900826" lon="-9.263289">
        <ele>46.881</ele>
        <time>2019-06-21T19:19:09Z</time>
      </trkpt>
      <trkpt lat="42.900708" lon="-9.263292">
        <ele>48.329</ele>
        <time>2019-06-21T19:19:10Z</time>
      </trkpt>
      <trkpt lat="42.900586" lon="-9.263296">
        <ele>50.000</ele>
        <time>2019-06-21T19:19:11Z</time>
      </trkpt>
      <trkpt lat="42.900466" lon="-9.263312">
        <ele>51.720</ele>
        <time>2019-06-21T19:19:12Z</time>
      </trkpt>
      <trkpt lat="42.900354" lon="-9.263320">
        <ele>52.808</ele>
        <time>2019-06-21T19:19:13Z</time>
      </trkpt>
      <trkpt lat="42.900236" lon="-9.263331">
        <ele>54.065</ele>
        <time>2019-06-21T19:19:14Z</time>
      </trkpt>
      <trkpt lat="42.900124" lon="-9.263330">
        <ele>54.489</ele>
        <time>2019-06-21T19:19:15Z</time>
      </trkpt>
      <trkpt lat="42.900013" lon="-9.263341">
        <ele>55.561</ele>
        <time>2019-06-21T19:19:16Z</time>
      </trkpt>
      <trkpt lat="42.899904" lon="-9.263360">
        <ele>57.743</ele>
        <time>2019-06-21T19:19:17Z</time>
      </trkpt>
      <trkpt lat="42.899796" lon="-9.263373">
        <ele>59.720</ele>
        <time>2019-06-21T19:19:18Z</time>
      </trkpt>
      <trkpt lat="42.899690" lon="-9.263387">
        <ele>61.556</ele>
        <time>2019-06-21T19:19:19Z</time>
      </trkpt>
      <trkpt lat="42.899577" lon="-9.263371">
        <ele>61.450</ele>
        <time>2019-06-21T19:19:20Z</time>
      </trkpt>
      <trkpt lat="42.899464" lon="-9.263352">
        <ele>61.052</ele>
        <time>2019-06-21T19:19:21Z</time>
      </trkpt>
      <trkpt lat="42.899350" lon="-9.263321">
        <ele>62.258</ele>
        <time>2019-06-21T19:19:22Z</time>
      </trkpt>
      <trkpt lat="42.899226" lon="-9.263296">
        <ele>64.652</ele>
        <time>2019-06-21T19:19:23Z</time>
      </trkpt>
      <trkpt lat="42.899101" lon="-9.263274">
        <ele>66.517</ele>
        <time>2019-06-21T19:19:24Z</time>
      </trkpt>
      <trkpt lat="42.898974" lon="-9.263251">
        <ele>67.908</ele>
        <time>2019-06-21T19:19:25Z</time>
      </trkpt>
      <trkpt lat="42.898847" lon="-9.263239">
        <ele>68.838</ele>
        <time>2019-06-21T19:19:26Z</time>
      </trkpt>
      <trkpt lat="42.898720" lon="-9.263228">
        <ele>67.872</ele>
        <time>2019-06-21T19:19:27Z</time>
      </trkpt>
      <trkpt lat="42.898595" lon="-9.263231">
        <ele>67.544</ele>
        <time>2019-06-21T19:19:28Z</time>
      </trkpt>
      <trkpt lat="42.898468" lon="-9.263258">
        <ele>68.236</ele>
        <time>2019-06-21T19:19:29Z</time>
      </trkpt>
      <trkpt lat="42.898337" lon="-9.263287">
        <ele>68.523</ele>
        <time>2019-06-21T19:19:30Z</time>
      </trkpt>
      <trkpt lat="42.898211" lon="-9.263319">
        <ele>70.399</ele>
        <time>2019-06-21T19:19:31Z</time>
      </trkpt>
      <trkpt lat="42.898094" lon="-9.263353">
        <ele>72.293</ele>
        <time>2019-06-21T19:19:32Z</time>
      </trkpt>
      <trkpt lat="42.897987" lon="-9.263392">
        <ele>73.585</ele>
        <time>2019-06-21T19:19:33Z</time>
      </trkpt>
      <trkpt lat="42.897882" lon="-9.263434">
        <ele>74.528</ele>
        <time>2019-06-21T19:19:34Z</time>
      </trkpt>
      <trkpt lat="42.897782" lon="-9.263472">
        <ele>75.089</ele>
        <time>2019-06-21T19:19:35Z</time>
      </trkpt>
      <trkpt lat="42.897684" lon="-9.263507">
        <ele>75.517</ele>
        <time>2019-06-21T19:19:36Z</time>
      </trkpt>
      <trkpt lat="42.897573" lon="-9.263540">
        <ele>75.808</ele>
        <time>2019-06-21T19:19:37Z</time>
      </trkpt>
      <trkpt lat="42.897461" lon="-9.263568">
        <ele>76.115</ele>
        <time>2019-06-21T19:19:38Z</time>
      </trkpt>
      <trkpt lat="42.897351" lon="-9.263600">
        <ele>76.849</ele>
        <time>2019-06-21T19:19:39Z</time>
      </trkpt>
      <trkpt lat="42.897235" lon="-9.263636">
        <ele>77.621</ele>
        <time>2019-06-21T19:19:40Z</time>
      </trkpt>
      <trkpt lat="42.897116" lon="-9.263678">
        <ele>79.843</ele>
        <time>2019-06-21T19:19:41Z</time>
      </trkpt>
      <trkpt lat="42.897002" lon="-9.263720">
        <ele>82.210</ele>
        <time>2019-06-21T19:19:42Z</time>
      </trkpt>
      <trkpt lat="42.896885" lon="-9.263758">
        <ele>83.476</ele>
        <time>2019-06-21T19:19:43Z</time>
      </trkpt>
      <trkpt lat="42.896773" lon="-9.263799">
        <ele>84.160</ele>
        <time>2019-06-21T19:19:44Z</time>
      </trkpt>
      <trkpt lat="42.896660" lon="-9.263832">
        <ele>84.762</ele>
        <time>2019-06-21T19:19:45Z</time>
      </trkpt>
      <trkpt lat="42.896552" lon="-9.263862">
        <ele>87.113</ele>
        <time>2019-06-21T19:19:46Z</time>
      </trkpt>
      <trkpt lat="42.896442" lon="-9.263893">
        <ele>89.243</ele>
        <time>2019-06-21T19:19:47Z</time>
      </trkpt>
      <trkpt lat="42.896333" lon="-9.263920">
        <ele>90.207</ele>
        <time>2019-06-21T19:19:48Z</time>
      </trkpt>
      <trkpt lat="42.896226" lon="-9.263950">
        <ele>91.008</ele>
        <time>2019-06-21T19:19:49Z</time>
      </trkpt>
      <trkpt lat="42.896115" lon="-9.263986">
        <ele>91.944</ele>
        <time>2019-06-21T19:19:50Z</time>
      </trkpt>
      <trkpt lat="42.896004" lon="-9.264018">
        <ele>92.988</ele>
        <time>2019-06-21T19:19:51Z</time>
      </trkpt>
      <trkpt lat="42.895885" lon="-9.264031">
        <ele>93.210</ele>
        <time>2019-06-21T19:19:52Z</time>
      </trkpt>
      <trkpt lat="42.895769" lon="-9.264045">
        <ele>94.772</ele>
        <time>2019-06-21T19:19:53Z</time>
      </trkpt>
      <trkpt lat="42.895652" lon="-9.264052">
        <ele>97.149</ele>
        <time>2019-06-21T19:19:54Z</time>
      </trkpt>
      <trkpt lat="42.895535" lon="-9.264041">
        <ele>98.335</ele>
        <time>2019-06-21T19:19:55Z</time>
      </trkpt>
      <trkpt lat="42.895426" lon="-9.264021">
        <ele>97.829</ele>
        <time>2019-06-21T19:19:56Z</time>
      </trkpt>
      <trkpt lat="42.895309" lon="-9.264002">
        <ele>97.481</ele>
        <time>2019-06-21T19:19:57Z</time>
      </trkpt>
      <trkpt lat="42.895197" lon="-9.263997">
        <ele>95.584</ele>
        <time>2019-06-21T19:19:58Z</time>
      </trkpt>
      <trkpt lat="42.895090" lon="-9.263979">
        <ele>92.107</ele>
        <time>2019-06-21T19:19:59Z</time>
      </trkpt>
      <trkpt lat="42.894976" lon="-9.263971">
        <ele>89.517</ele>
        <time>2019-06-21T19:20:00Z</time>
      </trkpt>
      <trkpt lat="42.894868" lon="-9.263964">
        <ele>88.308</ele>
        <time>2019-06-21T19:20:01Z</time>
      </trkpt>
      <trkpt lat="42.894758" lon="-9.263944">
        <ele>86.471</ele>
        <time>2019-06-21T19:20:02Z</time>
      </trkpt>
      <trkpt lat="42.894642" lon="-9.263939">
        <ele>85.075</ele>
        <time>2019-06-21T19:20:03Z</time>
      </trkpt>
      <trkpt lat="42.894532" lon="-9.263952">
        <ele>84.337</ele>
        <time>2019-06-21T19:20:04Z</time>
      </trkpt>
      <trkpt lat="42.894422" lon="-9.263977">
        <ele>83.799</ele>
        <time>2019-06-21T19:20:05Z</time>
      </trkpt>
      <trkpt lat="42.894319" lon="-9.264005">
        <ele>82.256</ele>
        <time>2019-06-21T19:20:06Z</time>
      </trkpt>
      <trkpt lat="42.894230" lon="-9.264048">
        <ele>81.132</ele>
        <time>2019-06-21T19:20:07Z</time>
      </trkpt>
      <trkpt lat="42.894157" lon="-9.264106">
        <ele>80.356</ele>
        <time>2019-06-21T19:20:08Z</time>
      </trkpt>
      <trkpt lat="42.894084" lon="-9.264172">
        <ele>78.998</ele>
        <time>2019-06-21T19:20:09Z</time>
      </trkpt>
      <trkpt lat="42.894019" lon="-9.264250">
        <ele>77.813</ele>
        <time>2019-06-21T19:20:10Z</time>
      </trkpt>
      <trkpt lat="42.893971" lon="-9.264333">
        <ele>76.943</ele>
        <time>2019-06-21T19:20:11Z</time>
      </trkpt>
      <trkpt lat="42.893935" lon="-9.264427">
        <ele>76.407</ele>
        <time>2019-06-21T19:20:12Z</time>
      </trkpt>
      <trkpt lat="42.893909" lon="-9.264527">
        <ele>76.408</ele>
        <time>2019-06-21T19:20:13Z</time>
      </trkpt>
      <trkpt lat="42.893892" lon="-9.264660">
        <ele>77.334</ele>
        <time>2019-06-21T19:20:14Z</time>
      </trkpt>
      <trkpt lat="42.893878" lon="-9.264811">
        <ele>78.748</ele>
        <time>2019-06-21T19:20:15Z</time>
      </trkpt>
      <trkpt lat="42.893866" lon="-9.264992">
        <ele>80.630</ele>
        <time>2019-06-21T19:20:16Z</time>
      </trkpt>
      <trkpt lat="42.893846" lon="-9.265170">
        <ele>83.232</ele>
        <time>2019-06-21T19:20:17Z</time>
      </trkpt>
      <trkpt lat="42.893821" lon="-9.265350">
        <ele>86.019</ele>
        <time>2019-06-21T19:20:18Z</time>
      </trkpt>
      <trkpt lat="42.893790" lon="-9.265531">
        <ele>89.045</ele>
        <time>2019-06-21T19:20:19Z</time>
      </trkpt>
      <trkpt lat="42.893756" lon="-9.265709">
        <ele>91.189</ele>
        <time>2019-06-21T19:20:20Z</time>
      </trkpt>
      <trkpt lat="42.893728" lon="-9.265892">
        <ele>93.591</ele>
        <time>2019-06-21T19:20:21Z</time>
      </trkpt>
      <trkpt lat="42.893700" lon="-9.266057">
        <ele>95.114</ele>
        <time>2019-06-21T19:20:22Z</time>
      </trkpt>
      <trkpt lat="42.893666" lon="-9.266226">
        <ele>95.754</ele>
        <time>2019-06-21T19:20:23Z</time>
      </trkpt>
      <trkpt lat="42.893632" lon="-9.266395">
        <ele>96.109</ele>
        <time>2019-06-21T19:20:24Z</time>
      </trkpt>
      <trkpt lat="42.893589" lon="-9.266574">
        <ele>96.008</ele>
        <time>2019-06-21T19:20:25Z</time>
      </trkpt>
      <trkpt lat="42.893539" lon="-9.266749">
        <ele>95.874</ele>
        <time>2019-06-21T19:20:26Z</time>
      </trkpt>
      <trkpt lat="42.893490" lon="-9.266938">
        <ele>95.678</ele>
        <time>2019-06-21T19:20:27Z</time>
      </trkpt>
      <trkpt lat="42.893438" lon="-9.267120">
        <ele>96.170</ele>
        <time>2019-06-21T19:20:28Z</time>
      </trkpt>
      <trkpt lat="42.893374" lon="-9.267287">
        <ele>96.722</ele>
        <time>2019-06-21T19:20:29Z</time>
      </trkpt>
      <trkpt lat="42.893302" lon="-9.267435">
        <ele>98.099</ele>
        <time>2019-06-21T19:20:30Z</time>
      </trkpt>
      <trkpt lat="42.893218" lon="-9.267556">
        <ele>99.475</ele>
        <time>2019-06-21T19:20:31Z</time>
      </trkpt>
      <trkpt lat="42.893116" lon="-9.267648">
        <ele>100.239</ele>
        <time>2019-06-21T19:20:32Z</time>
      </trkpt>
      <trkpt lat="42.893002" lon="-9.267706">
        <ele>100.781</ele>
        <time>2019-06-21T19:20:33Z</time>
      </trkpt>
      <trkpt lat="42.892871" lon="-9.267751">
        <ele>101.512</ele>
        <time>2019-06-21T19:20:34Z</time>
      </trkpt>
      <trkpt lat="42.892722" lon="-9.267793">
        <ele>102.732</ele>
        <time>2019-06-21T19:20:35Z</time>
      </trkpt>
      <trkpt lat="42.892578" lon="-9.267814">
        <ele>104.005</ele>
        <time>2019-06-21T19:20:36Z</time>
      </trkpt>
      <trkpt lat="42.892425" lon="-9.267846">
        <ele>104.908</ele>
        <time>2019-06-21T19:20:37Z</time>
      </trkpt>
      <trkpt lat="42.892270" lon="-9.267888">
        <ele>105.324</ele>
        <time>2019-06-21T19:20:38Z</time>
      </trkpt>
      <trkpt lat="42.892118" lon="-9.267924">
        <ele>105.558</ele>
        <time>2019-06-21T19:20:39Z</time>
      </trkpt>
      <trkpt lat="42.891962" lon="-9.267937">
        <ele>104.970</ele>
        <time>2019-06-21T19:20:40Z</time>
      </trkpt>
      <trkpt lat="42.891811" lon="-9.267932">
        <ele>105.792</ele>
        <time>2019-06-21T19:20:41Z</time>
      </trkpt>
      <trkpt lat="42.891669" lon="-9.267899">
        <ele>106.079</ele>
        <time>2019-06-21T19:20:42Z</time>
      </trkpt>
      <trkpt lat="42.891530" lon="-9.267856">
        <ele>106.195</ele>
        <time>2019-06-21T19:20:43Z</time>
      </trkpt>
      <trkpt lat="42.891391" lon="-9.267840">
        <ele>106.829</ele>
        <time>2019-06-21T19:20:44Z</time>
      </trkpt>
      <trkpt lat="42.891237" lon="-9.267829">
        <ele>106.341</ele>
        <time>2019-06-21T19:20:45Z</time>
      </trkpt>
      <trkpt lat="42.891083" lon="-9.267821">
        <ele>106.479</ele>
        <time>2019-06-21T19:20:46Z</time>
      </trkpt>
      <trkpt lat="42.890933" lon="-9.267811">
        <ele>109.105</ele>
        <time>2019-06-21T19:20:47Z</time>
      </trkpt>
      <trkpt lat="42.890784" lon="-9.267809">
        <ele>111.725</ele>
        <time>2019-06-21T19:20:48Z</time>
      </trkpt>
      <trkpt lat="42.890625" lon="-9.267812">
        <ele>113.608</ele>
        <time>2019-06-21T19:20:49Z</time>
      </trkpt>
      <trkpt lat="42.890474" lon="-9.267826">
        <ele>114.410</ele>
        <time>2019-06-21T19:20:50Z</time>
      </trkpt>
      <trkpt lat="42.890327" lon="-9.267851">
        <ele>114.774</ele>
        <time>2019-06-21T19:20:51Z</time>
      </trkpt>
      <trkpt lat="42.890180" lon="-9.267884">
        <ele>113.736</ele>
        <time>2019-06-21T19:20:52Z</time>
      </trkpt>
      <trkpt lat="42.890036" lon="-9.267918">
        <ele>111.938</ele>
        <time>2019-06-21T19:20:53Z</time>
      </trkpt>
      <trkpt lat="42.889896" lon="-9.267964">
        <ele>111.995</ele>
        <time>2019-06-21T19:20:54Z</time>
      </trkpt>
      <trkpt lat="42.889767" lon="-9.268003">
        <ele>112.231</ele>
        <time>2019-06-21T19:20:55Z</time>
      </trkpt>
      <trkpt lat="42.889629" lon="-9.268045">
        <ele>111.655</ele>
        <time>2019-06-21T19:20:56Z</time>
      </trkpt>
      <trkpt lat="42.889503" lon="-9.268094">
        <ele>111.097</ele>
        <time>2019-06-21T19:20:57Z</time>
      </trkpt>
      <trkpt lat="42.889387" lon="-9.268157">
        <ele>111.714</ele>
        <time>2019-06-21T19:20:58Z</time>
      </trkpt>
      <trkpt lat="42.889268" lon="-9.268242">
        <ele>113.754</ele>
        <time>2019-06-21T19:20:59Z</time>
      </trkpt>
      <trkpt lat="42.889146" lon="-9.268336">
        <ele>115.909</ele>
        <time>2019-06-21T19:21:00Z</time>
      </trkpt>
      <trkpt lat="42.889028" lon="-9.268420">
        <ele>117.508</ele>
        <time>2019-06-21T19:21:01Z</time>
      </trkpt>
      <trkpt lat="42.888905" lon="-9.268487">
        <ele>118.274</ele>
        <time>2019-06-21T19:21:02Z</time>
      </trkpt>
      <trkpt lat="42.888785" lon="-9.268543">
        <ele>117.568</ele>
        <time>2019-06-21T19:21:03Z</time>
      </trkpt>
      <trkpt lat="42.888669" lon="-9.268599">
        <ele>116.880</ele>
        <time>2019-06-21T19:21:04Z</time>
      </trkpt>
      <trkpt lat="42.888564" lon="-9.268662">
        <ele>116.052</ele>
        <time>2019-06-21T19:21:05Z</time>
      </trkpt>
      <trkpt lat="42.888470" lon="-9.268738">
        <ele>115.159</ele>
        <time>2019-06-21T19:21:06Z</time>
      </trkpt>
      <trkpt lat="42.888382" lon="-9.268828">
        <ele>114.435</ele>
        <time>2019-06-21T19:21:07Z</time>
      </trkpt>
      <trkpt lat="42.888302" lon="-9.268933">
        <ele>114.019</ele>
        <time>2019-06-21T19:21:08Z</time>
      </trkpt>
      <trkpt lat="42.888234" lon="-9.269059">
        <ele>114.221</ele>
        <time>2019-06-21T19:21:09Z</time>
      </trkpt>
      <trkpt lat="42.888169" lon="-9.269199">
        <ele>114.185</ele>
        <time>2019-06-21T19:21:10Z</time>
      </trkpt>
      <trkpt lat="42.888108" lon="-9.269341">
        <ele>114.789</ele>
        <time>2019-06-21T19:21:11Z</time>
      </trkpt>
      <trkpt lat="42.888062" lon="-9.269500">
        <ele>115.817</ele>
        <time>2019-06-21T19:21:12Z</time>
      </trkpt>
      <trkpt lat="42.888022" lon="-9.269670">
        <ele>116.208</ele>
        <time>2019-06-21T19:21:13Z</time>
      </trkpt>
      <trkpt lat="42.888006" lon="-9.269802">
        <ele>116.531</ele>
        <time>2019-06-21T19:21:14Z</time>
      </trkpt>
      <trkpt lat="42.888001" lon="-9.269939">
        <ele>116.875</ele>
        <time>2019-06-21T19:21:15Z</time>
      </trkpt>
      <trkpt lat="42.888005" lon="-9.270076">
        <ele>117.047</ele>
        <time>2019-06-21T19:21:16Z</time>
      </trkpt>
      <trkpt lat="42.888013" lon="-9.270192">
        <ele>116.939</ele>
        <time>2019-06-21T19:21:17Z</time>
      </trkpt>
      <trkpt lat="42.888010" lon="-9.270309">
        <ele>116.766</ele>
        <time>2019-06-21T19:21:18Z</time>
      </trkpt>
      <trkpt lat="42.887992" lon="-9.270422">
        <ele>116.852</ele>
        <time>2019-06-21T19:21:19Z</time>
      </trkpt>
      <trkpt lat="42.887956" lon="-9.270528">
        <ele>116.686</ele>
        <time>2019-06-21T19:21:20Z</time>
      </trkpt>
      <trkpt lat="42.887896" lon="-9.270626">
        <ele>117.048</ele>
        <time>2019-06-21T19:21:21Z</time>
      </trkpt>
      <trkpt lat="42.887818" lon="-9.270710">
        <ele>116.821</ele>
        <time>2019-06-21T19:21:22Z</time>
      </trkpt>
      <trkpt lat="42.887726" lon="-9.270777">
        <ele>116.841</ele>
        <time>2019-06-21T19:21:23Z</time>
      </trkpt>
      <trkpt lat="42.887630" lon="-9.270835">
        <ele>117.505</ele>
        <time>2019-06-21T19:21:24Z</time>
      </trkpt>
      <trkpt lat="42.887527" lon="-9.270889">
        <ele>118.208</ele>
        <time>2019-06-21T19:21:25Z</time>
      </trkpt>
      <trkpt lat="42.887413" lon="-9.270955">
        <ele>118.135</ele>
        <time>2019-06-21T19:21:26Z</time>
      </trkpt>
      <trkpt lat="42.887302" lon="-9.271023">
        <ele>117.899</ele>
        <time>2019-06-21T19:21:27Z</time>
      </trkpt>
      <trkpt lat="42.887195" lon="-9.271086">
        <ele>117.441</ele>
        <time>2019-06-21T19:21:28Z</time>
      </trkpt>
      <trkpt lat="42.887087" lon="-9.271151">
        <ele>117.813</ele>
        <time>2019-06-21T19:21:29Z</time>
      </trkpt>
      <trkpt lat="42.886985" lon="-9.271207">
        <ele>117.860</ele>
        <time>2019-06-21T19:21:30Z</time>
      </trkpt>
      <trkpt lat="42.886888" lon="-9.271269">
        <ele>118.376</ele>
        <time>2019-06-21T19:21:31Z</time>
      </trkpt>
      <trkpt lat="42.886798" lon="-9.271316">
        <ele>119.230</ele>
        <time>2019-06-21T19:21:32Z</time>
      </trkpt>
      <trkpt lat="42.886707" lon="-9.271360">
        <ele>120.312</ele>
        <time>2019-06-21T19:21:33Z</time>
      </trkpt>
      <trkpt lat="42.886610" lon="-9.271377">
        <ele>120.472</ele>
        <time>2019-06-21T19:21:34Z</time>
      </trkpt>
      <trkpt lat="42.886508" lon="-9.271411">
        <ele>120.313</ele>
        <time>2019-06-21T19:21:35Z</time>
      </trkpt>
      <trkpt lat="42.886407" lon="-9.271436">
        <ele>120.114</ele>
        <time>2019-06-21T19:21:36Z</time>
      </trkpt>
      <trkpt lat="42.886295" lon="-9.271466">
        <ele>120.808</ele>
        <time>2019-06-21T19:21:37Z</time>
      </trkpt>
      <trkpt lat="42.886192" lon="-9.271490">
        <ele>121.480</ele>
        <time>2019-06-21T19:21:38Z</time>
      </trkpt>
      <trkpt lat="42.886092" lon="-9.271519">
        <ele>121.864</ele>
        <time>2019-06-21T19:21:39Z</time>
      </trkpt>
      <trkpt lat="42.885993" lon="-9.271524">
        <ele>121.796</ele>
        <time>2019-06-21T19:21:40Z</time>
      </trkpt>
      <trkpt lat="42.885903" lon="-9.271542">
        <ele>121.818</ele>
        <time>2019-06-21T19:21:41Z</time>
      </trkpt>
      <trkpt lat="42.885819" lon="-9.271551">
        <ele>121.755</ele>
        <time>2019-06-21T19:21:42Z</time>
      </trkpt>
      <trkpt lat="42.885732" lon="-9.271561">
        <ele>121.481</ele>
        <time>2019-06-21T19:21:43Z</time>
      </trkpt>
      <trkpt lat="42.885641" lon="-9.271575">
        <ele>121.135</ele>
        <time>2019-06-21T19:21:44Z</time>
      </trkpt>
      <trkpt lat="42.885549" lon="-9.271588">
        <ele>120.857</ele>
        <time>2019-06-21T19:21:45Z</time>
      </trkpt>
      <trkpt lat="42.885458" lon="-9.271604">
        <ele>120.741</ele>
        <time>2019-06-21T19:21:46Z</time>
      </trkpt>
      <trkpt lat="42.885383" lon="-9.271616">
        <ele>120.581</ele>
        <time>2019-06-21T19:21:47Z</time>
      </trkpt>
      <trkpt lat="42.885301" lon="-9.271632">
        <ele>120.509</ele>
        <time>2019-06-21T19:21:48Z</time>
      </trkpt>
      <trkpt lat="42.885228" lon="-9.271643">
        <ele>120.808</ele>
        <time>2019-06-21T19:21:49Z</time>
      </trkpt>
      <trkpt lat="42.885152" lon="-9.271658">
        <ele>121.367</ele>
        <time>2019-06-21T19:21:50Z</time>
      </trkpt>
      <trkpt lat="42.885085" lon="-9.271662">
        <ele>121.621</ele>
        <time>2019-06-21T19:21:51Z</time>
      </trkpt>
      <trkpt lat="42.885021" lon="-9.271667">
        <ele>121.933</ele>
        <time>2019-06-21T19:21:52Z</time>
      </trkpt>
      <trkpt lat="42.884963" lon="-9.271687">
        <ele>122.545</ele>
        <time>2019-06-21T19:21:53Z</time>
      </trkpt>
      <trkpt lat="42.884921" lon="-9.271713">
        <ele>123.132</ele>
        <time>2019-06-21T19:21:54Z</time>
      </trkpt>
      <trkpt lat="42.884846" lon="-9.271757">
        <ele>123.958</ele>
        <time>2019-06-21T19:21:56Z</time>
      </trkpt>
      <trkpt lat="42.884781" lon="-9.271786">
        <ele>124.332</ele>
        <time>2019-06-21T19:21:58Z</time>
      </trkpt>
      <trkpt lat="42.884727" lon="-9.271792">
        <ele>124.434</ele>
        <time>2019-06-21T19:22:00Z</time>
      </trkpt>
      <trkpt lat="42.884674" lon="-9.271819">
        <ele>124.174</ele>
        <time>2019-06-21T19:22:02Z</time>
      </trkpt>
      <trkpt lat="42.884623" lon="-9.271815">
        <ele>123.656</ele>
        <time>2019-06-21T19:22:04Z</time>
      </trkpt>
      <trkpt lat="42.884622" lon="-9.271754">
        <ele>123.521</ele>
        <time>2019-06-21T19:22:07Z</time>
      </trkpt>
      <trkpt lat="42.884598" lon="-9.271807">
        <ele>123.408</ele>
        <time>2019-06-21T19:25:26Z</time>
      </trkpt>
      <trkpt lat="42.884624" lon="-9.271857">
        <ele>123.710</ele>
        <time>2019-06-21T19:27:32Z</time>
      </trkpt>
      <trkpt lat="42.883663" lon="-9.271837">
        <ele>114.834</ele>
        <time>2019-06-21T19:33:56Z</time>
      </trkpt>
      <trkpt lat="42.883620" lon="-9.271817">
        <ele>115.276</ele>
        <time>2019-06-21T19:34:00Z</time>
      </trkpt>
      <trkpt lat="42.883574" lon="-9.271806">
        <ele>116.288</ele>
        <time>2019-06-21T19:34:03Z</time>
      </trkpt>
      <trkpt lat="42.883530" lon="-9.271781">
        <ele>117.535</ele>
        <time>2019-06-21T19:34:07Z</time>
      </trkpt>
      <trkpt lat="42.883486" lon="-9.271758">
        <ele>118.621</ele>
        <time>2019-06-21T19:34:11Z</time>
      </trkpt>
      <trkpt lat="42.883440" lon="-9.271740">
        <ele>119.585</ele>
        <time>2019-06-21T19:34:15Z</time>
      </trkpt>
      <trkpt lat="42.883394" lon="-9.271713">
        <ele>120.327</ele>
        <time>2019-06-21T19:34:20Z</time>
      </trkpt>
      <trkpt lat="42.883349" lon="-9.271684">
        <ele>120.973</ele>
        <time>2019-06-21T19:34:24Z</time>
      </trkpt>
      <trkpt lat="42.883295" lon="-9.271658">
        <ele>121.485</ele>
        <time>2019-06-21T19:34:29Z</time>
      </trkpt>
      <trkpt lat="42.883248" lon="-9.271654">
        <ele>121.913</ele>
        <time>2019-06-21T19:34:33Z</time>
      </trkpt>
      <trkpt lat="42.883201" lon="-9.271664">
        <ele>122.808</ele>
        <time>2019-06-21T19:34:37Z</time>
      </trkpt>
      <trkpt lat="42.883153" lon="-9.271663">
        <ele>123.560</ele>
        <time>2019-06-21T19:34:41Z</time>
      </trkpt>
      <trkpt lat="42.883105" lon="-9.271668">
        <ele>124.394</ele>
        <time>2019-06-21T19:34:45Z</time>
      </trkpt>
      <trkpt lat="42.883059" lon="-9.271673">
        <ele>125.056</ele>
        <time>2019-06-21T19:34:49Z</time>
      </trkpt>
      <trkpt lat="42.883006" lon="-9.271688">
        <ele>124.178</ele>
        <time>2019-06-21T19:34:54Z</time>
      </trkpt>
      <trkpt lat="42.882958" lon="-9.271682">
        <ele>123.245</ele>
        <time>2019-06-21T19:35:19Z</time>
      </trkpt>
      <trkpt lat="42.882909" lon="-9.271694">
        <ele>122.471</ele>
        <time>2019-06-21T19:37:27Z</time>
      </trkpt>
      <trkpt lat="42.882866" lon="-9.271718">
        <ele>121.695</ele>
        <time>2019-06-21T19:37:30Z</time>
      </trkpt>
      <trkpt lat="42.882822" lon="-9.271731">
        <ele>120.877</ele>
        <time>2019-06-21T19:37:33Z</time>
      </trkpt>
      <trkpt lat="42.882776" lon="-9.271742">
        <ele>120.095</ele>
        <time>2019-06-21T19:37:39Z</time>
      </trkpt>
      <trkpt lat="42.882732" lon="-9.271764">
        <ele>119.349</ele>
        <time>2019-06-21T19:37:43Z</time>
      </trkpt>
      <trkpt lat="42.882679" lon="-9.271774">
        <ele>118.623</ele>
        <time>2019-06-21T19:37:48Z</time>
      </trkpt>
      <trkpt lat="42.882682" lon="-9.271710">
        <ele>118.208</ele>
        <time>2019-06-21T19:38:02Z</time>
      </trkpt>
      <trkpt lat="42.882652" lon="-9.271769">
        <ele>118.122</ele>
        <time>2019-06-21T19:38:14Z</time>
      </trkpt>
      <trkpt lat="42.882676" lon="-9.271826">
        <ele>118.986</ele>
        <time>2019-06-21T19:38:18Z</time>
      </trkpt>
      <trkpt lat="42.882626" lon="-9.271850">
        <ele>118.528</ele>
        <time>2019-06-21T19:38:24Z</time>
      </trkpt>
      <trkpt lat="42.882614" lon="-9.271912">
        <ele>119.180</ele>
        <time>2019-06-21T19:38:34Z</time>
      </trkpt>
      <trkpt lat="42.882573" lon="-9.271961">
        <ele>118.527</ele>
        <time>2019-06-21T19:38:46Z</time>
      </trkpt>
      <trkpt lat="42.882518" lon="-9.271967">
        <ele>118.163</ele>
        <time>2019-06-21T19:38:49Z</time>
      </trkpt>
      <trkpt lat="42.882471" lon="-9.271988">
        <ele>116.627</ele>
        <time>2019-06-21T19:38:53Z</time>
      </trkpt>
      <trkpt lat="42.882502" lon="-9.271935">
        <ele>118.889</ele>
        <time>2019-06-21T19:39:44Z</time>
      </trkpt>
      <trkpt lat="42.882532" lon="-9.271877">
        <ele>118.062</ele>
        <time>2019-06-21T19:39:50Z</time>
      </trkpt>
      <trkpt lat="42.882539" lon="-9.271799">
        <ele>116.983</ele>
        <time>2019-06-21T19:39:55Z</time>
      </trkpt>
      <trkpt lat="42.882504" lon="-9.271759">
        <ele>115.711</ele>
        <time>2019-06-21T19:39:58Z</time>
      </trkpt>
      <trkpt lat="42.882455" lon="-9.271747">
        <ele>114.808</ele>
        <time>2019-06-21T19:40:02Z</time>
      </trkpt>
      <trkpt lat="42.882410" lon="-9.271730">
        <ele>113.969</ele>
        <time>2019-06-21T19:40:06Z</time>
      </trkpt>
      <trkpt lat="42.882353" lon="-9.271724">
        <ele>113.073</ele>
        <time>2019-06-21T19:40:11Z</time>
      </trkpt>
      <trkpt lat="42.882302" lon="-9.271717">
        <ele>112.385</ele>
        <time>2019-06-21T19:40:15Z</time>
      </trkpt>
      <trkpt lat="42.882246" lon="-9.271730">
        <ele>111.637</ele>
        <time>2019-06-21T19:40:19Z</time>
      </trkpt>
      <trkpt lat="42.882203" lon="-9.271758">
        <ele>111.014</ele>
        <time>2019-06-21T19:40:24Z</time>
      </trkpt>
      <trkpt lat="42.882163" lon="-9.271790">
        <ele>110.640</ele>
        <time>2019-06-21T19:40:28Z</time>
      </trkpt>
      <trkpt lat="42.882111" lon="-9.271804">
        <ele>109.964</ele>
        <time>2019-06-21T19:40:32Z</time>
      </trkpt>
      <trkpt lat="42.882149" lon="-9.271756">
        <ele>110.266</ele>
        <time>2019-06-21T19:40:39Z</time>
      </trkpt>
      <trkpt lat="42.882133" lon="-9.271814">
        <ele>110.358</ele>
        <time>2019-06-21T19:40:56Z</time>
      </trkpt>
      <trkpt lat="42.882083" lon="-9.271851">
        <ele>109.852</ele>
        <time>2019-06-21T19:41:01Z</time>
      </trkpt>
      <trkpt lat="42.882040" lon="-9.271893">
        <ele>109.617</ele>
        <time>2019-06-21T19:41:06Z</time>
      </trkpt>
      <trkpt lat="42.882006" lon="-9.271939">
        <ele>109.608</ele>
        <time>2019-06-21T19:41:11Z</time>
      </trkpt>
      <trkpt lat="42.881960" lon="-9.271962">
        <ele>108.758</ele>
        <time>2019-06-21T19:41:17Z</time>
      </trkpt>
      <trkpt lat="42.881910" lon="-9.271950">
        <ele>107.642</ele>
        <time>2019-06-21T19:41:23Z</time>
      </trkpt>
      <trkpt lat="42.881861" lon="-9.271954">
        <ele>105.844</ele>
        <time>2019-06-21T19:41:29Z</time>
      </trkpt>
      <trkpt lat="42.881818" lon="-9.271997">
        <ele>103.186</ele>
        <time>2019-06-21T19:41:36Z</time>
      </trkpt>
      <trkpt lat="42.881821" lon="-9.272063">
        <ele>101.683</ele>
        <time>2019-06-21T19:41:40Z</time>
      </trkpt>
      <trkpt lat="42.881779" lon="-9.272040">
        <ele>100.679</ele>
        <time>2019-06-21T19:43:26Z</time>
      </trkpt>
      <trkpt lat="42.881788" lon="-9.271976">
        <ele>102.683</ele>
        <time>2019-06-21T19:43:37Z</time>
      </trkpt>
      <trkpt lat="42.881831" lon="-9.272004">
        <ele>103.485</ele>
        <time>2019-06-21T19:44:10Z</time>
      </trkpt>
      <trkpt lat="42.881874" lon="-9.271982">
        <ele>105.587</ele>
        <time>2019-06-21T19:44:22Z</time>
      </trkpt>
      <trkpt lat="42.881913" lon="-9.271949">
        <ele>107.842</ele>
        <time>2019-06-21T19:44:34Z</time>
      </trkpt>
      <trkpt lat="42.881965" lon="-9.271923">
        <ele>109.026</ele>
        <time>2019-06-21T19:44:39Z</time>
      </trkpt>
      <trkpt lat="42.882011" lon="-9.271927">
        <ele>109.608</ele>
        <time>2019-06-21T19:44:43Z</time>
      </trkpt>
      <trkpt lat="42.882061" lon="-9.271917">
        <ele>110.031</ele>
        <time>2019-06-21T19:45:33Z</time>
      </trkpt>
      <trkpt lat="42.882104" lon="-9.271878">
        <ele>110.335</ele>
        <time>2019-06-21T19:46:05Z</time>
      </trkpt>
      <trkpt lat="42.882143" lon="-9.271841">
        <ele>110.627</ele>
        <time>2019-06-21T19:46:10Z</time>
      </trkpt>
      <trkpt lat="42.882182" lon="-9.271797">
        <ele>110.929</ele>
        <time>2019-06-21T19:46:15Z</time>
      </trkpt>
      <trkpt lat="42.882224" lon="-9.271773">
        <ele>111.466</ele>
        <time>2019-06-21T19:46:22Z</time>
      </trkpt>
      <trkpt lat="42.882278" lon="-9.271767">
        <ele>112.332</ele>
        <time>2019-06-21T19:47:11Z</time>
      </trkpt>
      <trkpt lat="42.882310" lon="-9.271721">
        <ele>112.446</ele>
        <time>2019-06-21T19:47:15Z</time>
      </trkpt>
      <trkpt lat="42.882355" lon="-9.271685">
        <ele>112.658</ele>
        <time>2019-06-21T19:47:20Z</time>
      </trkpt>
      <trkpt lat="42.882408" lon="-9.271702">
        <ele>113.511</ele>
        <time>2019-06-21T19:47:25Z</time>
      </trkpt>
      <trkpt lat="42.882461" lon="-9.271715">
        <ele>114.421</ele>
        <time>2019-06-21T19:47:31Z</time>
      </trkpt>
      <trkpt lat="42.882516" lon="-9.271713">
        <ele>115.103</ele>
        <time>2019-06-21T19:47:36Z</time>
      </trkpt>
      <trkpt lat="42.882560" lon="-9.271731">
        <ele>116.208</ele>
        <time>2019-06-21T19:47:40Z</time>
      </trkpt>
      <trkpt lat="42.882612" lon="-9.271742">
        <ele>117.294</ele>
        <time>2019-06-21T19:47:45Z</time>
      </trkpt>
      <trkpt lat="42.882662" lon="-9.271763">
        <ele>118.218</ele>
        <time>2019-06-21T19:47:50Z</time>
      </trkpt>
      <trkpt lat="42.882710" lon="-9.271791">
        <ele>119.190</ele>
        <time>2019-06-21T19:47:55Z</time>
      </trkpt>
      <trkpt lat="42.882746" lon="-9.271835">
        <ele>119.752</ele>
        <time>2019-06-21T19:48:00Z</time>
      </trkpt>
      <trkpt lat="42.882797" lon="-9.271824">
        <ele>120.379</ele>
        <time>2019-06-21T19:48:58Z</time>
      </trkpt>
      <trkpt lat="42.882850" lon="-9.271813">
        <ele>121.365</ele>
        <time>2019-06-21T19:49:03Z</time>
      </trkpt>
      <trkpt lat="42.882896" lon="-9.271795">
        <ele>122.169</ele>
        <time>2019-06-21T19:49:08Z</time>
      </trkpt>
      <trkpt lat="42.882945" lon="-9.271807">
        <ele>123.041</ele>
        <time>2019-06-21T19:49:15Z</time>
      </trkpt>
      <trkpt lat="42.882991" lon="-9.271809">
        <ele>123.863</ele>
        <time>2019-06-21T19:49:21Z</time>
      </trkpt>
      <trkpt lat="42.883038" lon="-9.271787">
        <ele>124.744</ele>
        <time>2019-06-21T19:49:26Z</time>
      </trkpt>
      <trkpt lat="42.883089" lon="-9.271780">
        <ele>124.518</ele>
        <time>2019-06-21T19:49:31Z</time>
      </trkpt>
      <trkpt lat="42.883135" lon="-9.271785">
        <ele>123.908</ele>
        <time>2019-06-21T19:49:36Z</time>
      </trkpt>
      <trkpt lat="42.883177" lon="-9.271816">
        <ele>123.349</ele>
        <time>2019-06-21T19:49:42Z</time>
      </trkpt>
      <trkpt lat="42.883175" lon="-9.271887">
        <ele>123.383</ele>
        <time>2019-06-21T19:50:17Z</time>
      </trkpt>
      <trkpt lat="42.883143" lon="-9.271940">
        <ele>123.745</ele>
        <time>2019-06-21T19:50:44Z</time>
      </trkpt>
      <trkpt lat="42.883149" lon="-9.272010">
        <ele>120.767</ele>
        <time>2019-06-21T19:50:50Z</time>
      </trkpt>
      <trkpt lat="42.883103" lon="-9.272029">
        <ele>120.354</ele>
        <time>2019-06-21T19:50:57Z</time>
      </trkpt>
      <trkpt lat="42.883061" lon="-9.271983">
        <ele>123.080</ele>
        <time>2019-06-21T19:51:15Z</time>
      </trkpt>
      <trkpt lat="42.883009" lon="-9.271998">
        <ele>121.454</ele>
        <time>2019-06-21T19:51:34Z</time>
      </trkpt>
      <trkpt lat="42.882957" lon="-9.272019">
        <ele>119.266</ele>
        <time>2019-06-21T19:51:39Z</time>
      </trkpt>
      <trkpt lat="42.882902" lon="-9.272044">
        <ele>116.617</ele>
        <time>2019-06-21T19:51:43Z</time>
      </trkpt>
      <trkpt lat="42.882852" lon="-9.272028">
        <ele>116.587</ele>
        <time>2019-06-21T19:51:49Z</time>
      </trkpt>
      <trkpt lat="42.882806" lon="-9.272053">
        <ele>114.015</ele>
        <time>2019-06-21T19:51:54Z</time>
      </trkpt>
      <trkpt lat="42.882808" lon="-9.271988">
        <ele>117.908</ele>
        <time>2019-06-21T19:52:50Z</time>
      </trkpt>
      <trkpt lat="42.882852" lon="-9.271949">
        <ele>121.134</ele>
        <time>2019-06-21T19:52:55Z</time>
      </trkpt>
      <trkpt lat="42.882900" lon="-9.271921">
        <ele>122.238</ele>
        <time>2019-06-21T19:53:00Z</time>
      </trkpt>
      <trkpt lat="42.882946" lon="-9.271913">
        <ele>123.080</ele>
        <time>2019-06-21T19:53:06Z</time>
      </trkpt>
      <trkpt lat="42.882998" lon="-9.271901">
        <ele>124.022</ele>
        <time>2019-06-21T19:53:10Z</time>
      </trkpt>
      <trkpt lat="42.883046" lon="-9.271877">
        <ele>124.879</ele>
        <time>2019-06-21T19:53:15Z</time>
      </trkpt>
      <trkpt lat="42.883091" lon="-9.271837">
        <ele>124.535</ele>
        <time>2019-06-21T19:53:25Z</time>
      </trkpt>
      <trkpt lat="42.883141" lon="-9.271853">
        <ele>123.859</ele>
        <time>2019-06-21T19:53:30Z</time>
      </trkpt>
      <trkpt lat="42.883180" lon="-9.271898">
        <ele>123.241</ele>
        <time>2019-06-21T19:53:36Z</time>
      </trkpt>
      <trkpt lat="42.883203" lon="-9.271835">
        <ele>122.985</ele>
        <time>2019-06-21T19:53:43Z</time>
      </trkpt>
      <trkpt lat="42.883187" lon="-9.271777">
        <ele>123.189</ele>
        <time>2019-06-21T19:53:47Z</time>
      </trkpt>
      <trkpt lat="42.883219" lon="-9.271732">
        <ele>122.617</ele>
        <time>2019-06-21T19:54:03Z</time>
      </trkpt>
      <trkpt lat="42.883266" lon="-9.271710">
        <ele>122.008</ele>
        <time>2019-06-21T19:54:09Z</time>
      </trkpt>
      <trkpt lat="42.883300" lon="-9.271660">
        <ele>121.441</ele>
        <time>2019-06-21T19:54:16Z</time>
      </trkpt>
      <trkpt lat="42.883347" lon="-9.271669">
        <ele>120.955</ele>
        <time>2019-06-21T19:54:20Z</time>
      </trkpt>
      <trkpt lat="42.883391" lon="-9.271702">
        <ele>120.497</ele>
        <time>2019-06-21T19:54:24Z</time>
      </trkpt>
      <trkpt lat="42.883437" lon="-9.271730">
        <ele>119.789</ele>
        <time>2019-06-21T19:54:29Z</time>
      </trkpt>
      <trkpt lat="42.883486" lon="-9.271745">
        <ele>118.896</ele>
        <time>2019-06-21T19:54:34Z</time>
      </trkpt>
      <trkpt lat="42.883541" lon="-9.271761">
        <ele>117.752</ele>
        <time>2019-06-21T19:54:39Z</time>
      </trkpt>
      <trkpt lat="42.883593" lon="-9.271781">
        <ele>116.436</ele>
        <time>2019-06-21T19:54:44Z</time>
      </trkpt>
      <trkpt lat="42.883637" lon="-9.271796">
        <ele>115.798</ele>
        <time>2019-06-21T19:54:48Z</time>
      </trkpt>
      <trkpt lat="42.883681" lon="-9.271814">
        <ele>115.396</ele>
        <time>2019-06-21T19:54:52Z</time>
      </trkpt>
      <trkpt lat="42.883737" lon="-9.271834">
        <ele>114.931</ele>
        <time>2019-06-21T19:54:57Z</time>
      </trkpt>
      <trkpt lat="42.883782" lon="-9.271847">
        <ele>114.624</ele>
        <time>2019-06-21T19:55:01Z</time>
      </trkpt>
      <trkpt lat="42.883834" lon="-9.271867">
        <ele>114.308</ele>
        <time>2019-06-21T19:55:06Z</time>
      </trkpt>
      <trkpt lat="42.883888" lon="-9.271884">
        <ele>114.192</ele>
        <time>2019-06-21T19:55:11Z</time>
      </trkpt>
      <trkpt lat="42.883942" lon="-9.271893">
        <ele>114.786</ele>
        <time>2019-06-21T19:55:16Z</time>
      </trkpt>
      <trkpt lat="42.883997" lon="-9.271898">
        <ele>115.568</ele>
        <time>2019-06-21T19:55:21Z</time>
      </trkpt>
      <trkpt lat="42.884043" lon="-9.271898">
        <ele>116.120</ele>
        <time>2019-06-21T19:55:25Z</time>
      </trkpt>
      <trkpt lat="42.884090" lon="-9.271899">
        <ele>116.887</ele>
        <time>2019-06-21T19:55:29Z</time>
      </trkpt>
      <trkpt lat="42.884135" lon="-9.271898">
        <ele>117.583</ele>
        <time>2019-06-21T19:55:33Z</time>
      </trkpt>
      <trkpt lat="42.884185" lon="-9.271896">
        <ele>118.387</ele>
        <time>2019-06-21T19:55:37Z</time>
      </trkpt>
      <trkpt lat="42.884232" lon="-9.271895">
        <ele>118.919</ele>
        <time>2019-06-21T19:55:41Z</time>
      </trkpt>
      <trkpt lat="42.884279" lon="-9.271887">
        <ele>119.692</ele>
        <time>2019-06-21T19:55:45Z</time>
      </trkpt>
      <trkpt lat="42.884324" lon="-9.271872">
        <ele>120.373</ele>
        <time>2019-06-21T19:55:49Z</time>
      </trkpt>
      <trkpt lat="42.884378" lon="-9.271857">
        <ele>121.020</ele>
        <time>2019-06-21T19:55:54Z</time>
      </trkpt>
      <trkpt lat="42.884421" lon="-9.271834">
        <ele>121.708</ele>
        <time>2019-06-21T19:55:58Z</time>
      </trkpt>
      <trkpt lat="42.884467" lon="-9.271819">
        <ele>122.292</ele>
        <time>2019-06-21T19:56:02Z</time>
      </trkpt>
      <trkpt lat="42.884512" lon="-9.271798">
        <ele>122.636</ele>
        <time>2019-06-21T19:56:06Z</time>
      </trkpt>
      <trkpt lat="42.884566" lon="-9.271799">
        <ele>123.168</ele>
        <time>2019-06-21T19:56:11Z</time>
      </trkpt>
      <trkpt lat="42.884608" lon="-9.271773">
        <ele>123.440</ele>
        <time>2019-06-21T19:56:15Z</time>
      </trkpt>
      <trkpt lat="42.884614" lon="-9.271707">
        <ele>123.377</ele>
        <time>2019-06-21T19:56:20Z</time>
      </trkpt>
      <trkpt lat="42.884595" lon="-9.271637">
        <ele>122.713</ele>
        <time>2019-06-21T19:56:25Z</time>
      </trkpt>
      <trkpt lat="42.884577" lon="-9.271572">
        <ele>121.647</ele>
        <time>2019-06-21T19:56:30Z</time>
      </trkpt>
      <trkpt lat="42.884604" lon="-9.271638">
        <ele>122.779</ele>
        <time>2019-06-21T19:57:08Z</time>
      </trkpt>
      <trkpt lat="42.884628" lon="-9.271702">
        <ele>123.434</ele>
        <time>2019-06-21T19:57:13Z</time>
      </trkpt>
      <trkpt lat="42.884627" lon="-9.271764">
        <ele>123.555</ele>
        <time>2019-06-21T19:57:17Z</time>
      </trkpt>
      <trkpt lat="42.884598" lon="-9.271827">
        <ele>123.410</ele>
        <time>2019-06-21T19:57:19Z</time>
      </trkpt>
      <trkpt lat="42.884570" lon="-9.271876">
        <ele>123.208</ele>
        <time>2019-06-21T19:57:24Z</time>
      </trkpt>
      <trkpt lat="42.884633" lon="-9.271819">
        <ele>123.786</ele>
        <time>2019-06-21T20:01:23Z</time>
      </trkpt>
      <trkpt lat="42.884691" lon="-9.271794">
        <ele>124.240</ele>
        <time>2019-06-21T20:01:24Z</time>
      </trkpt>
      <trkpt lat="42.884757" lon="-9.271769">
        <ele>124.312</ele>
        <time>2019-06-21T20:01:25Z</time>
      </trkpt>
      <trkpt lat="42.884823" lon="-9.271749">
        <ele>123.964</ele>
        <time>2019-06-21T20:01:26Z</time>
      </trkpt>
      <trkpt lat="42.884900" lon="-9.271738">
        <ele>123.591</ele>
        <time>2019-06-21T20:01:27Z</time>
      </trkpt>
      <trkpt lat="42.884970" lon="-9.271725">
        <ele>123.057</ele>
        <time>2019-06-21T20:01:28Z</time>
      </trkpt>
      <trkpt lat="42.885050" lon="-9.271713">
        <ele>122.531</ele>
        <time>2019-06-21T20:01:29Z</time>
      </trkpt>
      <trkpt lat="42.885133" lon="-9.271697">
        <ele>122.063</ele>
        <time>2019-06-21T20:01:30Z</time>
      </trkpt>
      <trkpt lat="42.885228" lon="-9.271675">
        <ele>121.359</ele>
        <time>2019-06-21T20:01:31Z</time>
      </trkpt>
      <trkpt lat="42.885311" lon="-9.271652">
        <ele>120.903</ele>
        <time>2019-06-21T20:01:32Z</time>
      </trkpt>
      <trkpt lat="42.885405" lon="-9.271630">
        <ele>120.923</ele>
        <time>2019-06-21T20:01:33Z</time>
      </trkpt>
      <trkpt lat="42.885504" lon="-9.271615">
        <ele>121.008</ele>
        <time>2019-06-21T20:01:34Z</time>
      </trkpt>
      <trkpt lat="42.885601" lon="-9.271592">
        <ele>121.158</ele>
        <time>2019-06-21T20:01:35Z</time>
      </trkpt>
      <trkpt lat="42.885691" lon="-9.271576">
        <ele>121.392</ele>
        <time>2019-06-21T20:01:36Z</time>
      </trkpt>
      <trkpt lat="42.885781" lon="-9.271562">
        <ele>121.654</ele>
        <time>2019-06-21T20:01:37Z</time>
      </trkpt>
      <trkpt lat="42.885874" lon="-9.271537">
        <ele>121.786</ele>
        <time>2019-06-21T20:01:38Z</time>
      </trkpt>
      <trkpt lat="42.885970" lon="-9.271509">
        <ele>121.533</ele>
        <time>2019-06-21T20:01:39Z</time>
      </trkpt>
      <trkpt lat="42.886055" lon="-9.271495">
        <ele>121.529</ele>
        <time>2019-06-21T20:01:40Z</time>
      </trkpt>
      <trkpt lat="42.886142" lon="-9.271478">
        <ele>121.253</ele>
        <time>2019-06-21T20:01:41Z</time>
      </trkpt>
      <trkpt lat="42.886236" lon="-9.271455">
        <ele>120.725</ele>
        <time>2019-06-21T20:01:42Z</time>
      </trkpt>
      <trkpt lat="42.886306" lon="-9.271450">
        <ele>120.528</ele>
        <time>2019-06-21T20:01:43Z</time>
      </trkpt>
      <trkpt lat="42.886391" lon="-9.271428">
        <ele>119.989</ele>
        <time>2019-06-21T20:01:44Z</time>
      </trkpt>
      <trkpt lat="42.886480" lon="-9.271407">
        <ele>120.017</ele>
        <time>2019-06-21T20:01:45Z</time>
      </trkpt>
      <trkpt lat="42.886538" lon="-9.271380">
        <ele>119.908</ele>
        <time>2019-06-21T20:01:46Z</time>
      </trkpt>
      <trkpt lat="42.886627" lon="-9.271340">
        <ele>119.785</ele>
        <time>2019-06-21T20:01:47Z</time>
      </trkpt>
      <trkpt lat="42.886721" lon="-9.271293">
        <ele>118.959</ele>
        <time>2019-06-21T20:01:48Z</time>
      </trkpt>
      <trkpt lat="42.886810" lon="-9.271247">
        <ele>117.971</ele>
        <time>2019-06-21T20:01:49Z</time>
      </trkpt>
      <trkpt lat="42.886910" lon="-9.271189">
        <ele>117.193</ele>
        <time>2019-06-21T20:01:50Z</time>
      </trkpt>
      <trkpt lat="42.887009" lon="-9.271129">
        <ele>116.870</ele>
        <time>2019-06-21T20:01:51Z</time>
      </trkpt>
      <trkpt lat="42.887109" lon="-9.271076">
        <ele>116.766</ele>
        <time>2019-06-21T20:01:52Z</time>
      </trkpt>
      <trkpt lat="42.887209" lon="-9.271016">
        <ele>116.550</ele>
        <time>2019-06-21T20:01:53Z</time>
      </trkpt>
      <trkpt lat="42.887315" lon="-9.270959">
        <ele>117.082</ele>
        <time>2019-06-21T20:01:54Z</time>
      </trkpt>
      <trkpt lat="42.887417" lon="-9.270911">
        <ele>117.476</ele>
        <time>2019-06-21T20:01:55Z</time>
      </trkpt>
      <trkpt lat="42.887509" lon="-9.270862">
        <ele>117.690</ele>
        <time>2019-06-21T20:01:56Z</time>
      </trkpt>
      <trkpt lat="42.887602" lon="-9.270807">
        <ele>116.919</ele>
        <time>2019-06-21T20:01:57Z</time>
      </trkpt>
      <trkpt lat="42.887692" lon="-9.270748">
        <ele>116.208</ele>
        <time>2019-06-21T20:01:58Z</time>
      </trkpt>
      <trkpt lat="42.887773" lon="-9.270688">
        <ele>115.480</ele>
        <time>2019-06-21T20:01:59Z</time>
      </trkpt>
      <trkpt lat="42.887844" lon="-9.270633">
        <ele>116.084</ele>
        <time>2019-06-21T20:02:00Z</time>
      </trkpt>
      <trkpt lat="42.887907" lon="-9.270555">
        <ele>115.866</ele>
        <time>2019-06-21T20:02:01Z</time>
      </trkpt>
      <trkpt lat="42.887951" lon="-9.270467">
        <ele>116.198</ele>
        <time>2019-06-21T20:02:02Z</time>
      </trkpt>
      <trkpt lat="42.887964" lon="-9.270370">
        <ele>115.765</ele>
        <time>2019-06-21T20:02:03Z</time>
      </trkpt>
      <trkpt lat="42.887966" lon="-9.270254">
        <ele>115.211</ele>
        <time>2019-06-21T20:02:04Z</time>
      </trkpt>
      <trkpt lat="42.887966" lon="-9.270134">
        <ele>115.445</ele>
        <time>2019-06-21T20:02:05Z</time>
      </trkpt>
      <trkpt lat="42.887968" lon="-9.270009">
        <ele>115.847</ele>
        <time>2019-06-21T20:02:06Z</time>
      </trkpt>
      <trkpt lat="42.887978" lon="-9.269880">
        <ele>115.823</ele>
        <time>2019-06-21T20:02:07Z</time>
      </trkpt>
      <trkpt lat="42.887989" lon="-9.269741">
        <ele>115.783</ele>
        <time>2019-06-21T20:02:08Z</time>
      </trkpt>
      <trkpt lat="42.888010" lon="-9.269593">
        <ele>115.011</ele>
        <time>2019-06-21T20:02:09Z</time>
      </trkpt>
      <trkpt lat="42.888036" lon="-9.269460">
        <ele>114.508</ele>
        <time>2019-06-21T20:02:10Z</time>
      </trkpt>
      <trkpt lat="42.888084" lon="-9.269326">
        <ele>113.585</ele>
        <time>2019-06-21T20:02:11Z</time>
      </trkpt>
      <trkpt lat="42.888130" lon="-9.269192">
        <ele>112.569</ele>
        <time>2019-06-21T20:02:12Z</time>
      </trkpt>
      <trkpt lat="42.888186" lon="-9.269072">
        <ele>112.771</ele>
        <time>2019-06-21T20:02:13Z</time>
      </trkpt>
      <trkpt lat="42.888246" lon="-9.268950">
        <ele>112.673</ele>
        <time>2019-06-21T20:02:14Z</time>
      </trkpt>
      <trkpt lat="42.888320" lon="-9.268840">
        <ele>112.670</ele>
        <time>2019-06-21T20:02:15Z</time>
      </trkpt>
      <trkpt lat="42.888400" lon="-9.268749">
        <ele>113.136</ele>
        <time>2019-06-21T20:02:16Z</time>
      </trkpt>
      <trkpt lat="42.888476" lon="-9.268667">
        <ele>113.550</ele>
        <time>2019-06-21T20:02:17Z</time>
      </trkpt>
      <trkpt lat="42.888579" lon="-9.268608">
        <ele>115.042</ele>
        <time>2019-06-21T20:02:18Z</time>
      </trkpt>
      <trkpt lat="42.888676" lon="-9.268544">
        <ele>115.073</ele>
        <time>2019-06-21T20:02:19Z</time>
      </trkpt>
      <trkpt lat="42.888778" lon="-9.268491">
        <ele>115.585</ele>
        <time>2019-06-21T20:02:20Z</time>
      </trkpt>
      <trkpt lat="42.888878" lon="-9.268440">
        <ele>116.213</ele>
        <time>2019-06-21T20:02:21Z</time>
      </trkpt>
      <trkpt lat="42.888979" lon="-9.268378">
        <ele>115.508</ele>
        <time>2019-06-21T20:02:22Z</time>
      </trkpt>
      <trkpt lat="42.889072" lon="-9.268310">
        <ele>114.030</ele>
        <time>2019-06-21T20:02:23Z</time>
      </trkpt>
      <trkpt lat="42.889170" lon="-9.268244">
        <ele>112.514</ele>
        <time>2019-06-21T20:02:24Z</time>
      </trkpt>
      <trkpt lat="42.889264" lon="-9.268173">
        <ele>110.826</ele>
        <time>2019-06-21T20:02:25Z</time>
      </trkpt>
      <trkpt lat="42.889357" lon="-9.268096">
        <ele>108.888</ele>
        <time>2019-06-21T20:02:26Z</time>
      </trkpt>
      <trkpt lat="42.889455" lon="-9.268031">
        <ele>107.355</ele>
        <time>2019-06-21T20:02:27Z</time>
      </trkpt>
      <trkpt lat="42.889553" lon="-9.267976">
        <ele>107.341</ele>
        <time>2019-06-21T20:02:28Z</time>
      </trkpt>
      <trkpt lat="42.889646" lon="-9.267950">
        <ele>108.045</ele>
        <time>2019-06-21T20:02:29Z</time>
      </trkpt>
      <trkpt lat="42.889744" lon="-9.267923">
        <ele>108.587</ele>
        <time>2019-06-21T20:02:30Z</time>
      </trkpt>
      <trkpt lat="42.889851" lon="-9.267894">
        <ele>108.467</ele>
        <time>2019-06-21T20:02:31Z</time>
      </trkpt>
      <trkpt lat="42.889947" lon="-9.267866">
        <ele>108.281</ele>
        <time>2019-06-21T20:02:32Z</time>
      </trkpt>
      <trkpt lat="42.890050" lon="-9.267835">
        <ele>108.619</ele>
        <time>2019-06-21T20:02:33Z</time>
      </trkpt>
      <trkpt lat="42.890155" lon="-9.267802">
        <ele>109.408</ele>
        <time>2019-06-21T20:02:34Z</time>
      </trkpt>
      <trkpt lat="42.890259" lon="-9.267777">
        <ele>110.699</ele>
        <time>2019-06-21T20:02:35Z</time>
      </trkpt>
      <trkpt lat="42.890362" lon="-9.267754">
        <ele>110.543</ele>
        <time>2019-06-21T20:02:36Z</time>
      </trkpt>
      <trkpt lat="42.890468" lon="-9.267752">
        <ele>111.125</ele>
        <time>2019-06-21T20:02:37Z</time>
      </trkpt>
      <trkpt lat="42.890567" lon="-9.267742">
        <ele>111.177</ele>
        <time>2019-06-21T20:02:38Z</time>
      </trkpt>
      <trkpt lat="42.890663" lon="-9.267736">
        <ele>109.834</ele>
        <time>2019-06-21T20:02:39Z</time>
      </trkpt>
      <trkpt lat="42.890765" lon="-9.267736">
        <ele>108.720</ele>
        <time>2019-06-21T20:02:40Z</time>
      </trkpt>
      <trkpt lat="42.890862" lon="-9.267731">
        <ele>107.374</ele>
        <time>2019-06-21T20:02:41Z</time>
      </trkpt>
      <trkpt lat="42.890950" lon="-9.267717">
        <ele>105.116</ele>
        <time>2019-06-21T20:02:42Z</time>
      </trkpt>
      <trkpt lat="42.891041" lon="-9.267721">
        <ele>103.663</ele>
        <time>2019-06-21T20:02:43Z</time>
      </trkpt>
      <trkpt lat="42.891135" lon="-9.267726">
        <ele>102.644</ele>
        <time>2019-06-21T20:02:44Z</time>
      </trkpt>
      <trkpt lat="42.891242" lon="-9.267759">
        <ele>103.918</ele>
        <time>2019-06-21T20:02:45Z</time>
      </trkpt>
      <trkpt lat="42.891318" lon="-9.267765">
        <ele>104.408</ele>
        <time>2019-06-21T20:02:46Z</time>
      </trkpt>
      <trkpt lat="42.891409" lon="-9.267776">
        <ele>104.879</ele>
        <time>2019-06-21T20:02:47Z</time>
      </trkpt>
      <trkpt lat="42.891493" lon="-9.267801">
        <ele>104.933</ele>
        <time>2019-06-21T20:02:48Z</time>
      </trkpt>
      <trkpt lat="42.891567" lon="-9.267845">
        <ele>105.525</ele>
        <time>2019-06-21T20:02:49Z</time>
      </trkpt>
      <trkpt lat="42.891643" lon="-9.267887">
        <ele>106.087</ele>
        <time>2019-06-21T20:02:50Z</time>
      </trkpt>
      <trkpt lat="42.891723" lon="-9.267913">
        <ele>105.914</ele>
        <time>2019-06-21T20:02:51Z</time>
      </trkpt>
      <trkpt lat="42.891797" lon="-9.267921">
        <ele>105.560</ele>
        <time>2019-06-21T20:02:52Z</time>
      </trkpt>
      <trkpt lat="42.891878" lon="-9.267915">
        <ele>104.534</ele>
        <time>2019-06-21T20:02:53Z</time>
      </trkpt>
      <trkpt lat="42.891963" lon="-9.267903">
        <ele>103.686</ele>
        <time>2019-06-21T20:02:54Z</time>
      </trkpt>
      <trkpt lat="42.892053" lon="-9.267887">
        <ele>103.772</ele>
        <time>2019-06-21T20:02:55Z</time>
      </trkpt>
      <trkpt lat="42.892148" lon="-9.267870">
        <ele>103.813</ele>
        <time>2019-06-21T20:02:56Z</time>
      </trkpt>
      <trkpt lat="42.892241" lon="-9.267843">
        <ele>103.514</ele>
        <time>2019-06-21T20:02:57Z</time>
      </trkpt>
      <trkpt lat="42.892346" lon="-9.267814">
        <ele>103.208</ele>
        <time>2019-06-21T20:02:58Z</time>
      </trkpt>
      <trkpt lat="42.892446" lon="-9.267783">
        <ele>102.890</ele>
        <time>2019-06-21T20:02:59Z</time>
      </trkpt>
      <trkpt lat="42.892542" lon="-9.267761">
        <ele>102.314</ele>
        <time>2019-06-21T20:03:00Z</time>
      </trkpt>
      <trkpt lat="42.892637" lon="-9.267734">
        <ele>101.046</ele>
        <time>2019-06-21T20:03:01Z</time>
      </trkpt>
      <trkpt lat="42.892708" lon="-9.267699">
        <ele>99.698</ele>
        <time>2019-06-21T20:03:02Z</time>
      </trkpt>
      <trkpt lat="42.892782" lon="-9.267680">
        <ele>98.965</ele>
        <time>2019-06-21T20:03:03Z</time>
      </trkpt>
      <trkpt lat="42.892885" lon="-9.267665">
        <ele>98.941</ele>
        <time>2019-06-21T20:03:04Z</time>
      </trkpt>
      <trkpt lat="42.892982" lon="-9.267623">
        <ele>98.175</ele>
        <time>2019-06-21T20:03:05Z</time>
      </trkpt>
      <trkpt lat="42.893071" lon="-9.267575">
        <ele>97.437</ele>
        <time>2019-06-21T20:03:06Z</time>
      </trkpt>
      <trkpt lat="42.893160" lon="-9.267524">
        <ele>97.511</ele>
        <time>2019-06-21T20:03:07Z</time>
      </trkpt>
      <trkpt lat="42.893235" lon="-9.267432">
        <ele>96.621</ele>
        <time>2019-06-21T20:03:08Z</time>
      </trkpt>
      <trkpt lat="42.893293" lon="-9.267321">
        <ele>95.203</ele>
        <time>2019-06-21T20:03:09Z</time>
      </trkpt>
      <trkpt lat="42.893342" lon="-9.267192">
        <ele>93.808</ele>
        <time>2019-06-21T20:03:10Z</time>
      </trkpt>
      <trkpt lat="42.893385" lon="-9.267052">
        <ele>93.324</ele>
        <time>2019-06-21T20:03:11Z</time>
      </trkpt>
      <trkpt lat="42.893420" lon="-9.266908">
        <ele>92.898</ele>
        <time>2019-06-21T20:03:12Z</time>
      </trkpt>
      <trkpt lat="42.893450" lon="-9.266776">
        <ele>92.630</ele>
        <time>2019-06-21T20:03:13Z</time>
      </trkpt>
      <trkpt lat="42.893478" lon="-9.266628">
        <ele>92.172</ele>
        <time>2019-06-21T20:03:14Z</time>
      </trkpt>
      <trkpt lat="42.893512" lon="-9.266490">
        <ele>91.599</ele>
        <time>2019-06-21T20:03:15Z</time>
      </trkpt>
      <trkpt lat="42.893532" lon="-9.266356">
        <ele>90.615</ele>
        <time>2019-06-21T20:03:16Z</time>
      </trkpt>
      <trkpt lat="42.893558" lon="-9.266232">
        <ele>90.229</ele>
        <time>2019-06-21T20:03:17Z</time>
      </trkpt>
      <trkpt lat="42.893578" lon="-9.266111">
        <ele>89.461</ele>
        <time>2019-06-21T20:03:18Z</time>
      </trkpt>
      <trkpt lat="42.893608" lon="-9.265985">
        <ele>88.635</ele>
        <time>2019-06-21T20:03:19Z</time>
      </trkpt>
      <trkpt lat="42.893629" lon="-9.265872">
        <ele>87.786</ele>
        <time>2019-06-21T20:03:20Z</time>
      </trkpt>
      <trkpt lat="42.893651" lon="-9.265736">
        <ele>86.114</ele>
        <time>2019-06-21T20:03:21Z</time>
      </trkpt>
      <trkpt lat="42.893675" lon="-9.265613">
        <ele>84.708</ele>
        <time>2019-06-21T20:03:22Z</time>
      </trkpt>
      <trkpt lat="42.893696" lon="-9.265482">
        <ele>82.536</ele>
        <time>2019-06-21T20:03:23Z</time>
      </trkpt>
      <trkpt lat="42.893721" lon="-9.265371">
        <ele>80.970</ele>
        <time>2019-06-21T20:03:24Z</time>
      </trkpt>
      <trkpt lat="42.893744" lon="-9.265250">
        <ele>79.192</ele>
        <time>2019-06-21T20:03:25Z</time>
      </trkpt>
      <trkpt lat="42.893774" lon="-9.265122">
        <ele>78.084</ele>
        <time>2019-06-21T20:03:26Z</time>
      </trkpt>
      <trkpt lat="42.893791" lon="-9.264997">
        <ele>76.341</ele>
        <time>2019-06-21T20:03:27Z</time>
      </trkpt>
      <trkpt lat="42.893804" lon="-9.264878">
        <ele>75.467</ele>
        <time>2019-06-21T20:03:28Z</time>
      </trkpt>
      <trkpt lat="42.893805" lon="-9.264747">
        <ele>73.571</ele>
        <time>2019-06-21T20:03:29Z</time>
      </trkpt>
      <trkpt lat="42.893806" lon="-9.264641">
        <ele>72.333</ele>
        <time>2019-06-21T20:03:30Z</time>
      </trkpt>
      <trkpt lat="42.893813" lon="-9.264536">
        <ele>71.567</ele>
        <time>2019-06-21T20:03:31Z</time>
      </trkpt>
      <trkpt lat="42.893843" lon="-9.264425">
        <ele>71.681</ele>
        <time>2019-06-21T20:03:32Z</time>
      </trkpt>
      <trkpt lat="42.893880" lon="-9.264333">
        <ele>72.419</ele>
        <time>2019-06-21T20:03:33Z</time>
      </trkpt>
      <trkpt lat="42.893917" lon="-9.264231">
        <ele>72.908</ele>
        <time>2019-06-21T20:03:34Z</time>
      </trkpt>
      <trkpt lat="42.893966" lon="-9.264166">
        <ele>74.049</ele>
        <time>2019-06-21T20:03:35Z</time>
      </trkpt>
      <trkpt lat="42.894039" lon="-9.264099">
        <ele>75.883</ele>
        <time>2019-06-21T20:03:36Z</time>
      </trkpt>
      <trkpt lat="42.894119" lon="-9.264038">
        <ele>77.615</ele>
        <time>2019-06-21T20:03:37Z</time>
      </trkpt>
      <trkpt lat="42.894207" lon="-9.263975">
        <ele>78.817</ele>
        <time>2019-06-21T20:03:38Z</time>
      </trkpt>
      <trkpt lat="42.894298" lon="-9.263927">
        <ele>79.434</ele>
        <time>2019-06-21T20:03:39Z</time>
      </trkpt>
      <trkpt lat="42.894403" lon="-9.263892">
        <ele>80.490</ele>
        <time>2019-06-21T20:03:40Z</time>
      </trkpt>
      <trkpt lat="42.894517" lon="-9.263872">
        <ele>81.044</ele>
        <time>2019-06-21T20:03:41Z</time>
      </trkpt>
      <trkpt lat="42.894631" lon="-9.263862">
        <ele>81.456</ele>
        <time>2019-06-21T20:03:42Z</time>
      </trkpt>
      <trkpt lat="42.894741" lon="-9.263849">
        <ele>81.663</ele>
        <time>2019-06-21T20:03:43Z</time>
      </trkpt>
      <trkpt lat="42.894860" lon="-9.263843">
        <ele>81.844</ele>
        <time>2019-06-21T20:03:44Z</time>
      </trkpt>
      <trkpt lat="42.894969" lon="-9.263842">
        <ele>82.018</ele>
        <time>2019-06-21T20:03:45Z</time>
      </trkpt>
      <trkpt lat="42.895082" lon="-9.263859">
        <ele>84.608</ele>
        <time>2019-06-21T20:03:46Z</time>
      </trkpt>
      <trkpt lat="42.895195" lon="-9.263869">
        <ele>87.719</ele>
        <time>2019-06-21T20:03:47Z</time>
      </trkpt>
      <trkpt lat="42.895298" lon="-9.263878">
        <ele>90.253</ele>
        <time>2019-06-21T20:03:48Z</time>
      </trkpt>
      <trkpt lat="42.895394" lon="-9.263893">
        <ele>90.855</ele>
        <time>2019-06-21T20:03:49Z</time>
      </trkpt>
      <trkpt lat="42.895499" lon="-9.263911">
        <ele>91.437</ele>
        <time>2019-06-21T20:03:50Z</time>
      </trkpt>
      <trkpt lat="42.895607" lon="-9.263925">
        <ele>91.574</ele>
        <time>2019-06-21T20:03:51Z</time>
      </trkpt>
      <trkpt lat="42.895716" lon="-9.263927">
        <ele>90.560</ele>
        <time>2019-06-21T20:03:52Z</time>
      </trkpt>
      <trkpt lat="42.895827" lon="-9.263905">
        <ele>88.644</ele>
        <time>2019-06-21T20:03:53Z</time>
      </trkpt>
      <trkpt lat="42.895943" lon="-9.263872">
        <ele>87.136</ele>
        <time>2019-06-21T20:03:54Z</time>
      </trkpt>
      <trkpt lat="42.896065" lon="-9.263838">
        <ele>85.485</ele>
        <time>2019-06-21T20:03:55Z</time>
      </trkpt>
      <trkpt lat="42.896186" lon="-9.263798">
        <ele>83.489</ele>
        <time>2019-06-21T20:03:56Z</time>
      </trkpt>
      <trkpt lat="42.896312" lon="-9.263764">
        <ele>81.517</ele>
        <time>2019-06-21T20:03:57Z</time>
      </trkpt>
      <trkpt lat="42.896430" lon="-9.263742">
        <ele>79.708</ele>
        <time>2019-06-21T20:03:58Z</time>
      </trkpt>
      <trkpt lat="42.896548" lon="-9.263704">
        <ele>76.291</ele>
        <time>2019-06-21T20:03:59Z</time>
      </trkpt>
      <trkpt lat="42.896662" lon="-9.263679">
        <ele>73.265</ele>
        <time>2019-06-21T20:04:00Z</time>
      </trkpt>
      <trkpt lat="42.896762" lon="-9.263643">
        <ele>72.787</ele>
        <time>2019-06-21T20:04:01Z</time>
      </trkpt>
      <trkpt lat="42.896868" lon="-9.263618">
        <ele>73.539</ele>
        <time>2019-06-21T20:04:02Z</time>
      </trkpt>
      <trkpt lat="42.896968" lon="-9.263575">
        <ele>73.026</ele>
        <time>2019-06-21T20:04:03Z</time>
      </trkpt>
      <trkpt lat="42.897056" lon="-9.263556">
        <ele>72.462</ele>
        <time>2019-06-21T20:04:04Z</time>
      </trkpt>
      <trkpt lat="42.897157" lon="-9.263523">
        <ele>71.276</ele>
        <time>2019-06-21T20:04:05Z</time>
      </trkpt>
      <trkpt lat="42.897256" lon="-9.263494">
        <ele>70.428</ele>
        <time>2019-06-21T20:04:06Z</time>
      </trkpt>
      <trkpt lat="42.897362" lon="-9.263465">
        <ele>69.667</ele>
        <time>2019-06-21T20:04:07Z</time>
      </trkpt>
      <trkpt lat="42.897455" lon="-9.263444">
        <ele>69.181</ele>
        <time>2019-06-21T20:04:08Z</time>
      </trkpt>
      <trkpt lat="42.897555" lon="-9.263416">
        <ele>68.619</ele>
        <time>2019-06-21T20:04:09Z</time>
      </trkpt>
      <trkpt lat="42.897663" lon="-9.263390">
        <ele>69.008</ele>
        <time>2019-06-21T20:04:10Z</time>
      </trkpt>
      <trkpt lat="42.897768" lon="-9.263342">
        <ele>68.369</ele>
        <time>2019-06-21T20:04:11Z</time>
      </trkpt>
      <trkpt lat="42.897883" lon="-9.263308">
        <ele>68.143</ele>
        <time>2019-06-21T20:04:12Z</time>
      </trkpt>
      <trkpt lat="42.897992" lon="-9.263282">
        <ele>68.065</ele>
        <time>2019-06-21T20:04:13Z</time>
      </trkpt>
      <trkpt lat="42.898099" lon="-9.263251">
        <ele>67.187</ele>
        <time>2019-06-21T20:04:14Z</time>
      </trkpt>
      <trkpt lat="42.898209" lon="-9.263220">
        <ele>65.284</ele>
        <time>2019-06-21T20:04:15Z</time>
      </trkpt>
      <trkpt lat="42.898322" lon="-9.263190">
        <ele>63.350</ele>
        <time>2019-06-21T20:04:16Z</time>
      </trkpt>
      <trkpt lat="42.898432" lon="-9.263177">
        <ele>63.044</ele>
        <time>2019-06-21T20:04:17Z</time>
      </trkpt>
      <trkpt lat="42.898548" lon="-9.263166">
        <ele>62.796</ele>
        <time>2019-06-21T20:04:18Z</time>
      </trkpt>
      <trkpt lat="42.898666" lon="-9.263162">
        <ele>63.183</ele>
        <time>2019-06-21T20:04:19Z</time>
      </trkpt>
      <trkpt lat="42.898783" lon="-9.263171">
        <ele>64.525</ele>
        <time>2019-06-21T20:04:20Z</time>
      </trkpt>
      <trkpt lat="42.898885" lon="-9.263182">
        <ele>65.817</ele>
        <time>2019-06-21T20:04:21Z</time>
      </trkpt>
      <trkpt lat="42.899011" lon="-9.263215">
        <ele>65.308</ele>
        <time>2019-06-21T20:04:22Z</time>
      </trkpt>
      <trkpt lat="42.899118" lon="-9.263231">
        <ele>64.151</ele>
        <time>2019-06-21T20:04:23Z</time>
      </trkpt>
      <trkpt lat="42.899224" lon="-9.263254">
        <ele>62.855</ele>
        <time>2019-06-21T20:04:24Z</time>
      </trkpt>
      <trkpt lat="42.899327" lon="-9.263284">
        <ele>61.317</ele>
        <time>2019-06-21T20:04:25Z</time>
      </trkpt>
      <trkpt lat="42.899430" lon="-9.263307">
        <ele>59.449</ele>
        <time>2019-06-21T20:04:26Z</time>
      </trkpt>
      <trkpt lat="42.899526" lon="-9.263323">
        <ele>59.066</ele>
        <time>2019-06-21T20:04:27Z</time>
      </trkpt>
      <trkpt lat="42.899620" lon="-9.263319">
        <ele>58.132</ele>
        <time>2019-06-21T20:04:28Z</time>
      </trkpt>
      <trkpt lat="42.899708" lon="-9.263309">
        <ele>57.156</ele>
        <time>2019-06-21T20:04:29Z</time>
      </trkpt>
      <trkpt lat="42.899787" lon="-9.263302">
        <ele>55.918</ele>
        <time>2019-06-21T20:04:30Z</time>
      </trkpt>
      <trkpt lat="42.899884" lon="-9.263285">
        <ele>53.931</ele>
        <time>2019-06-21T20:04:31Z</time>
      </trkpt>
      <trkpt lat="42.899981" lon="-9.263273">
        <ele>52.061</ele>
        <time>2019-06-21T20:04:32Z</time>
      </trkpt>
      <trkpt lat="42.900078" lon="-9.263267">
        <ele>51.207</ele>
        <time>2019-06-21T20:04:33Z</time>
      </trkpt>
      <trkpt lat="42.900181" lon="-9.263274">
        <ele>51.308</ele>
        <time>2019-06-21T20:04:34Z</time>
      </trkpt>
      <trkpt lat="42.900274" lon="-9.263264">
        <ele>50.566</ele>
        <time>2019-06-21T20:04:35Z</time>
      </trkpt>
      <trkpt lat="42.900359" lon="-9.263256">
        <ele>49.740</ele>
        <time>2019-06-21T20:04:36Z</time>
      </trkpt>
      <trkpt lat="42.900453" lon="-9.263251">
        <ele>49.072</ele>
        <time>2019-06-21T20:04:37Z</time>
      </trkpt>
      <trkpt lat="42.900555" lon="-9.263263">
        <ele>49.034</ele>
        <time>2019-06-21T20:04:38Z</time>
      </trkpt>
      <trkpt lat="42.900656" lon="-9.263264">
        <ele>47.911</ele>
        <time>2019-06-21T20:04:39Z</time>
      </trkpt>
      <trkpt lat="42.900737" lon="-9.263242">
        <ele>46.347</ele>
        <time>2019-06-21T20:04:40Z</time>
      </trkpt>
      <trkpt lat="42.900829" lon="-9.263251">
        <ele>45.751</ele>
        <time>2019-06-21T20:04:41Z</time>
      </trkpt>
      <trkpt lat="42.900897" lon="-9.263246">
        <ele>45.533</ele>
        <time>2019-06-21T20:04:42Z</time>
      </trkpt>
      <trkpt lat="42.900977" lon="-9.263248">
        <ele>45.662</ele>
        <time>2019-06-21T20:04:43Z</time>
      </trkpt>
      <trkpt lat="42.901058" lon="-9.263258">
        <ele>46.083</ele>
        <time>2019-06-21T20:04:44Z</time>
      </trkpt>
      <trkpt lat="42.901133" lon="-9.263272">
        <ele>46.311</ele>
        <time>2019-06-21T20:04:45Z</time>
      </trkpt>
      <trkpt lat="42.901212" lon="-9.263291">
        <ele>45.908</ele>
        <time>2019-06-21T20:04:46Z</time>
      </trkpt>
      <trkpt lat="42.901293" lon="-9.263315">
        <ele>45.799</ele>
        <time>2019-06-21T20:04:47Z</time>
      </trkpt>
      <trkpt lat="42.901363" lon="-9.263344">
        <ele>45.653</ele>
        <time>2019-06-21T20:04:48Z</time>
      </trkpt>
      <trkpt lat="42.901445" lon="-9.263367">
        <ele>45.045</ele>
        <time>2019-06-21T20:04:49Z</time>
      </trkpt>
      <trkpt lat="42.901522" lon="-9.263384">
        <ele>44.417</ele>
        <time>2019-06-21T20:04:50Z</time>
      </trkpt>
      <trkpt lat="42.901601" lon="-9.263393">
        <ele>43.524</ele>
        <time>2019-06-21T20:04:51Z</time>
      </trkpt>
      <trkpt lat="42.901681" lon="-9.263392">
        <ele>42.520</ele>
        <time>2019-06-21T20:04:52Z</time>
      </trkpt>
      <trkpt lat="42.901756" lon="-9.263381">
        <ele>41.444</ele>
        <time>2019-06-21T20:04:53Z</time>
      </trkpt>
      <trkpt lat="42.901841" lon="-9.263358">
        <ele>40.356</ele>
        <time>2019-06-21T20:04:54Z</time>
      </trkpt>
      <trkpt lat="42.901926" lon="-9.263344">
        <ele>39.211</ele>
        <time>2019-06-21T20:04:55Z</time>
      </trkpt>
      <trkpt lat="42.902007" lon="-9.263334">
        <ele>38.121</ele>
        <time>2019-06-21T20:04:56Z</time>
      </trkpt>
      <trkpt lat="42.902091" lon="-9.263321">
        <ele>36.803</ele>
        <time>2019-06-21T20:04:57Z</time>
      </trkpt>
      <trkpt lat="42.902191" lon="-9.263320">
        <ele>35.308</ele>
        <time>2019-06-21T20:04:58Z</time>
      </trkpt>
      <trkpt lat="42.902286" lon="-9.263303">
        <ele>34.494</ele>
        <time>2019-06-21T20:04:59Z</time>
      </trkpt>
      <trkpt lat="42.902388" lon="-9.263300">
        <ele>33.838</ele>
        <time>2019-06-21T20:05:00Z</time>
      </trkpt>
      <trkpt lat="42.902483" lon="-9.263311">
        <ele>33.230</ele>
        <time>2019-06-21T20:05:01Z</time>
      </trkpt>
      <trkpt lat="42.902578" lon="-9.263337">
        <ele>33.382</ele>
        <time>2019-06-21T20:05:02Z</time>
      </trkpt>
      <trkpt lat="42.902685" lon="-9.263379">
        <ele>33.469</ele>
        <time>2019-06-21T20:05:03Z</time>
      </trkpt>
      <trkpt lat="42.902777" lon="-9.263413">
        <ele>33.495</ele>
        <time>2019-06-21T20:05:04Z</time>
      </trkpt>
      <trkpt lat="42.902869" lon="-9.263452">
        <ele>32.579</ele>
        <time>2019-06-21T20:05:05Z</time>
      </trkpt>
      <trkpt lat="42.902965" lon="-9.263486">
        <ele>31.621</ele>
        <time>2019-06-21T20:05:06Z</time>
      </trkpt>
      <trkpt lat="42.903053" lon="-9.263509">
        <ele>30.812</ele>
        <time>2019-06-21T20:05:07Z</time>
      </trkpt>
      <trkpt lat="42.903157" lon="-9.263544">
        <ele>29.632</ele>
        <time>2019-06-21T20:05:08Z</time>
      </trkpt>
      <trkpt lat="42.903251" lon="-9.263592">
        <ele>28.605</ele>
        <time>2019-06-21T20:05:09Z</time>
      </trkpt>
      <trkpt lat="42.903341" lon="-9.263634">
        <ele>27.908</ele>
        <time>2019-06-21T20:05:10Z</time>
      </trkpt>
      <trkpt lat="42.903426" lon="-9.263685">
        <ele>27.124</ele>
        <time>2019-06-21T20:05:11Z</time>
      </trkpt>
      <trkpt lat="42.903512" lon="-9.263727">
        <ele>26.368</ele>
        <time>2019-06-21T20:05:12Z</time>
      </trkpt>
      <trkpt lat="42.903598" lon="-9.263764">
        <ele>25.720</ele>
        <time>2019-06-21T20:05:13Z</time>
      </trkpt>
      <trkpt lat="42.903675" lon="-9.263790">
        <ele>25.252</ele>
        <time>2019-06-21T20:05:14Z</time>
      </trkpt>
      <trkpt lat="42.903727" lon="-9.263821">
        <ele>24.979</ele>
        <time>2019-06-21T20:05:15Z</time>
      </trkpt>
      <trkpt lat="42.903774" lon="-9.263834">
        <ele>24.695</ele>
        <time>2019-06-21T20:05:16Z</time>
      </trkpt>
      <trkpt lat="42.903822" lon="-9.263797">
        <ele>24.299</ele>
        <time>2019-06-21T20:05:18Z</time>
      </trkpt>
      <trkpt lat="42.903791" lon="-9.263683">
        <ele>24.021</ele>
        <time>2019-06-21T20:05:21Z</time>
      </trkpt>
      <trkpt lat="42.903775" lon="-9.263566">
        <ele>23.852</ele>
        <time>2019-06-21T20:05:23Z</time>
      </trkpt>
      <trkpt lat="42.903753" lon="-9.263448">
        <ele>24.053</ele>
        <time>2019-06-21T20:05:25Z</time>
      </trkpt>
      <trkpt lat="42.903737" lon="-9.263365">
        <ele>24.108</ele>
        <time>2019-06-21T20:05:27Z</time>
      </trkpt>
      <trkpt lat="42.903749" lon="-9.263266">
        <ele>24.008</ele>
        <time>2019-06-21T20:05:29Z</time>
      </trkpt>
      <trkpt lat="42.903798" lon="-9.263143">
        <ele>23.468</ele>
        <time>2019-06-21T20:05:31Z</time>
      </trkpt>
      <trkpt lat="42.903829" lon="-9.263060">
        <ele>22.982</ele>
        <time>2019-06-21T20:05:32Z</time>
      </trkpt>
      <trkpt lat="42.903863" lon="-9.262992">
        <ele>22.444</ele>
        <time>2019-06-21T20:05:33Z</time>
      </trkpt>
      <trkpt lat="42.903908" lon="-9.262933">
        <ele>21.866</ele>
        <time>2019-06-21T20:05:34Z</time>
      </trkpt>
      <trkpt lat="42.903962" lon="-9.262880">
        <ele>21.093</ele>
        <time>2019-06-21T20:05:35Z</time>
      </trkpt>
      <trkpt lat="42.904017" lon="-9.262835">
        <ele>20.289</ele>
        <time>2019-06-21T20:05:36Z</time>
      </trkpt>
      <trkpt lat="42.904065" lon="-9.262786">
        <ele>19.553</ele>
        <time>2019-06-21T20:05:37Z</time>
      </trkpt>
      <trkpt lat="42.904123" lon="-9.262733">
        <ele>18.715</ele>
        <time>2019-06-21T20:05:38Z</time>
      </trkpt>
      <trkpt lat="42.904184" lon="-9.262686">
        <ele>17.956</ele>
        <time>2019-06-21T20:05:39Z</time>
      </trkpt>
      <trkpt lat="42.904230" lon="-9.262654">
        <ele>17.559</ele>
        <time>2019-06-21T20:05:40Z</time>
      </trkpt>
      <trkpt lat="42.904283" lon="-9.262616">
        <ele>17.214</ele>
        <time>2019-06-21T20:05:41Z</time>
      </trkpt>
      <trkpt lat="42.904347" lon="-9.262544">
        <ele>16.708</ele>
        <time>2019-06-21T20:05:43Z</time>
      </trkpt>
      <trkpt lat="42.904396" lon="-9.262520">
        <ele>16.348</ele>
        <time>2019-06-21T20:05:44Z</time>
      </trkpt>
      <trkpt lat="42.904481" lon="-9.262478">
        <ele>15.752</ele>
        <time>2019-06-21T20:05:48Z</time>
      </trkpt>
      <trkpt lat="42.904563" lon="-9.262474">
        <ele>15.194</ele>
        <time>2019-06-21T20:05:50Z</time>
      </trkpt>
      <trkpt lat="42.904605" lon="-9.262445">
        <ele>14.736</ele>
        <time>2019-06-21T20:05:51Z</time>
      </trkpt>
      <trkpt lat="42.904640" lon="-9.262373">
        <ele>14.313</ele>
        <time>2019-06-21T20:05:53Z</time>
      </trkpt>
      <trkpt lat="42.904676" lon="-9.262326">
        <ele>13.869</ele>
        <time>2019-06-21T20:05:55Z</time>
      </trkpt>
      <trkpt lat="42.904706" lon="-9.262274">
        <ele>13.423</ele>
        <time>2019-06-21T20:05:57Z</time>
      </trkpt>
      <trkpt lat="42.904748" lon="-9.262231">
        <ele>13.075</ele>
        <time>2019-06-21T20:05:59Z</time>
      </trkpt>
      <trkpt lat="42.904815" lon="-9.262193">
        <ele>12.949</ele>
        <time>2019-06-21T20:06:01Z</time>
      </trkpt>
      <trkpt lat="42.904892" lon="-9.262178">
        <ele>12.802</ele>
        <time>2019-06-21T20:06:03Z</time>
      </trkpt>
      <trkpt lat="42.904978" lon="-9.262173">
        <ele>12.822</ele>
        <time>2019-06-21T20:06:05Z</time>
      </trkpt>
      <trkpt lat="42.905022" lon="-9.262154">
        <ele>12.808</ele>
        <time>2019-06-21T20:06:06Z</time>
      </trkpt>
      <trkpt lat="42.905061" lon="-9.262124">
        <ele>12.977</ele>
        <time>2019-06-21T20:06:07Z</time>
      </trkpt>
      <trkpt lat="42.905095" lon="-9.262081">
        <ele>12.841</ele>
        <time>2019-06-21T20:06:08Z</time>
      </trkpt>
      <trkpt lat="42.905125" lon="-9.262000">
        <ele>12.783</ele>
        <time>2019-06-21T20:06:09Z</time>
      </trkpt>
      <trkpt lat="42.905163" lon="-9.261958">
        <ele>12.625</ele>
        <time>2019-06-21T20:06:10Z</time>
      </trkpt>
      <trkpt lat="42.905206" lon="-9.261856">
        <ele>12.342</ele>
        <time>2019-06-21T20:06:12Z</time>
      </trkpt>
      <trkpt lat="42.905261" lon="-9.261781">
        <ele>11.868</ele>
        <time>2019-06-21T20:06:14Z</time>
      </trkpt>
      <trkpt lat="42.905322" lon="-9.261700">
        <ele>11.322</ele>
        <time>2019-06-21T20:06:16Z</time>
      </trkpt>
      <trkpt lat="42.905383" lon="-9.261608">
        <ele>10.394</ele>
        <time>2019-06-21T20:06:18Z</time>
      </trkpt>
      <trkpt lat="42.905458" lon="-9.261561">
        <ele>9.671</ele>
        <time>2019-06-21T20:06:20Z</time>
      </trkpt>
      <trkpt lat="42.905502" lon="-9.261543">
        <ele>9.341</ele>
        <time>2019-06-21T20:06:21Z</time>
      </trkpt>
      <trkpt lat="42.905549" lon="-9.261525">
        <ele>9.015</ele>
        <time>2019-06-21T20:06:22Z</time>
      </trkpt>
      <trkpt lat="42.905594" lon="-9.261502">
        <ele>8.508</ele>
        <time>2019-06-21T20:06:23Z</time>
      </trkpt>
      <trkpt lat="42.905644" lon="-9.261484">
        <ele>8.160</ele>
        <time>2019-06-21T20:06:24Z</time>
      </trkpt>
      <trkpt lat="42.905695" lon="-9.261477">
        <ele>7.844</ele>
        <time>2019-06-21T20:06:25Z</time>
      </trkpt>
      <trkpt lat="42.905780" lon="-9.261485">
        <ele>7.636</ele>
        <time>2019-06-21T20:06:27Z</time>
      </trkpt>
      <trkpt lat="42.905827" lon="-9.261490">
        <ele>7.568</ele>
        <time>2019-06-21T20:06:28Z</time>
      </trkpt>
      <trkpt lat="42.905912" lon="-9.261503">
        <ele>7.365</ele>
        <time>2019-06-21T20:06:30Z</time>
      </trkpt>
      <trkpt lat="42.905996" lon="-9.261534">
        <ele>7.261</ele>
        <time>2019-06-21T20:06:32Z</time>
      </trkpt>
      <trkpt lat="42.906050" lon="-9.261561">
        <ele>7.045</ele>
        <time>2019-06-21T20:06:33Z</time>
      </trkpt>
      <trkpt lat="42.906094" lon="-9.261603">
        <ele>6.917</ele>
        <time>2019-06-21T20:06:34Z</time>
      </trkpt>
      <trkpt lat="42.906136" lon="-9.261639">
        <ele>6.845</ele>
        <time>2019-06-21T20:06:35Z</time>
      </trkpt>
      <trkpt lat="42.906187" lon="-9.261673">
        <ele>6.847</ele>
        <time>2019-06-21T20:06:36Z</time>
      </trkpt>
      <trkpt lat="42.906226" lon="-9.261719">
        <ele>6.911</ele>
        <time>2019-06-21T20:06:37Z</time>
      </trkpt>
      <trkpt lat="42.906279" lon="-9.261813">
        <ele>7.008</ele>
        <time>2019-06-21T20:06:39Z</time>
      </trkpt>
      <trkpt lat="42.906334" lon="-9.261874">
        <ele>6.627</ele>
        <time>2019-06-21T20:06:41Z</time>
      </trkpt>
      <trkpt lat="42.906349" lon="-9.261947">
        <ele>6.671</ele>
        <time>2019-06-21T20:06:44Z</time>
      </trkpt>
      <trkpt lat="42.906373" lon="-9.262000">
        <ele>6.433</ele>
        <time>2019-06-21T20:06:46Z</time>
      </trkpt>
      <trkpt lat="42.906404" lon="-9.262079">
        <ele>6.455</ele>
        <time>2019-06-21T20:06:48Z</time>
      </trkpt>
      <trkpt lat="42.906443" lon="-9.262165">
        <ele>6.662</ele>
        <time>2019-06-21T20:06:50Z</time>
      </trkpt>
      <trkpt lat="42.906484" lon="-9.262240">
        <ele>6.988</ele>
        <time>2019-06-21T20:06:52Z</time>
      </trkpt>
      <trkpt lat="42.906527" lon="-9.262319">
        <ele>8.172</ele>
        <time>2019-06-21T20:06:54Z</time>
      </trkpt>
      <trkpt lat="42.906572" lon="-9.262396">
        <ele>9.314</ele>
        <time>2019-06-21T20:06:56Z</time>
      </trkpt>
      <trkpt lat="42.906625" lon="-9.262459">
        <ele>10.335</ele>
        <time>2019-06-21T20:06:58Z</time>
      </trkpt>
      <trkpt lat="42.906694" lon="-9.262504">
        <ele>11.386</ele>
        <time>2019-06-21T20:07:00Z</time>
      </trkpt>
      <trkpt lat="42.906781" lon="-9.262529">
        <ele>12.514</ele>
        <time>2019-06-21T20:07:02Z</time>
      </trkpt>
      <trkpt lat="42.906841" lon="-9.262510">
        <ele>12.508</ele>
        <time>2019-06-21T20:07:03Z</time>
      </trkpt>
      <trkpt lat="42.906928" lon="-9.262518">
        <ele>13.246</ele>
        <time>2019-06-21T20:07:05Z</time>
      </trkpt>
      <trkpt lat="42.907014" lon="-9.262534">
        <ele>12.880</ele>
        <time>2019-06-21T20:07:07Z</time>
      </trkpt>
      <trkpt lat="42.907099" lon="-9.262555">
        <ele>12.272</ele>
        <time>2019-06-21T20:07:09Z</time>
      </trkpt>
      <trkpt lat="42.907181" lon="-9.262563">
        <ele>11.494</ele>
        <time>2019-06-21T20:07:11Z</time>
      </trkpt>
      <trkpt lat="42.907267" lon="-9.262565">
        <ele>10.661</ele>
        <time>2019-06-21T20:07:13Z</time>
      </trkpt>
      <trkpt lat="42.907349" lon="-9.262573">
        <ele>10.057</ele>
        <time>2019-06-21T20:07:15Z</time>
      </trkpt>
      <trkpt lat="42.907426" lon="-9.262585">
        <ele>9.561</ele>
        <time>2019-06-21T20:07:17Z</time>
      </trkpt>
      <trkpt lat="42.907498" lon="-9.262598">
        <ele>9.113</ele>
        <time>2019-06-21T20:07:19Z</time>
      </trkpt>
      <trkpt lat="42.907571" lon="-9.262608">
        <ele>9.591</ele>
        <time>2019-06-21T20:07:21Z</time>
      </trkpt>
      <trkpt lat="42.907649" lon="-9.262621">
        <ele>9.981</ele>
        <time>2019-06-21T20:07:23Z</time>
      </trkpt>
      <trkpt lat="42.907724" lon="-9.262637">
        <ele>10.319</ele>
        <time>2019-06-21T20:07:25Z</time>
      </trkpt>
      <trkpt lat="42.907782" lon="-9.262652">
        <ele>10.608</ele>
        <time>2019-06-21T20:07:27Z</time>
      </trkpt>
      <trkpt lat="42.907827" lon="-9.262659">
        <ele>10.822</ele>
        <time>2019-06-21T20:07:29Z</time>
      </trkpt>
      <trkpt lat="42.907880" lon="-9.262660">
        <ele>11.096</ele>
        <time>2019-06-21T20:07:32Z</time>
      </trkpt>
      <trkpt lat="42.907927" lon="-9.262688">
        <ele>11.468</ele>
        <time>2019-06-21T20:07:36Z</time>
      </trkpt>
      <trkpt lat="42.907909" lon="-9.262785">
        <ele>12.030</ele>
        <time>2019-06-21T20:07:40Z</time>
      </trkpt>
      <trkpt lat="42.907860" lon="-9.262883">
        <ele>12.697</ele>
        <time>2019-06-21T20:07:42Z</time>
      </trkpt>
      <trkpt lat="42.907823" lon="-9.262980">
        <ele>13.493</ele>
        <time>2019-06-21T20:07:44Z</time>
      </trkpt>
      <trkpt lat="42.907797" lon="-9.263064">
        <ele>14.177</ele>
        <time>2019-06-21T20:07:46Z</time>
      </trkpt>
      <trkpt lat="42.907770" lon="-9.263148">
        <ele>14.759</ele>
        <time>2019-06-21T20:07:48Z</time>
      </trkpt>
      <trkpt lat="42.907744" lon="-9.263211">
        <ele>15.469</ele>
        <time>2019-06-21T20:07:49Z</time>
      </trkpt>
      <trkpt lat="42.907730" lon="-9.263284">
        <ele>16.004</ele>
        <time>2019-06-21T20:07:50Z</time>
      </trkpt>
      <trkpt lat="42.907707" lon="-9.263364">
        <ele>16.624</ele>
        <time>2019-06-21T20:07:51Z</time>
      </trkpt>
      <trkpt lat="42.907679" lon="-9.263447">
        <ele>17.108</ele>
        <time>2019-06-21T20:07:52Z</time>
      </trkpt>
      <trkpt lat="42.907638" lon="-9.263527">
        <ele>17.329</ele>
        <time>2019-06-21T20:07:53Z</time>
      </trkpt>
      <trkpt lat="42.907597" lon="-9.263593">
        <ele>17.323</ele>
        <time>2019-06-21T20:07:54Z</time>
      </trkpt>
      <trkpt lat="42.907556" lon="-9.263648">
        <ele>17.355</ele>
        <time>2019-06-21T20:07:55Z</time>
      </trkpt>
      <trkpt lat="42.907512" lon="-9.263699">
        <ele>17.197</ele>
        <time>2019-06-21T20:07:56Z</time>
      </trkpt>
      <trkpt lat="42.907472" lon="-9.263758">
        <ele>17.284</ele>
        <time>2019-06-21T20:07:57Z</time>
      </trkpt>
      <trkpt lat="42.907417" lon="-9.263823">
        <ele>17.450</ele>
        <time>2019-06-21T20:07:58Z</time>
      </trkpt>
      <trkpt lat="42.907350" lon="-9.263888">
        <ele>17.564</ele>
        <time>2019-06-21T20:07:59Z</time>
      </trkpt>
      <trkpt lat="42.907270" lon="-9.263953">
        <ele>17.986</ele>
        <time>2019-06-21T20:08:00Z</time>
      </trkpt>
      <trkpt lat="42.907191" lon="-9.264023">
        <ele>18.312</ele>
        <time>2019-06-21T20:08:01Z</time>
      </trkpt>
      <trkpt lat="42.907110" lon="-9.264102">
        <ele>18.932</ele>
        <time>2019-06-21T20:08:02Z</time>
      </trkpt>
      <trkpt lat="42.907028" lon="-9.264174">
        <ele>19.505</ele>
        <time>2019-06-21T20:08:03Z</time>
      </trkpt>
      <trkpt lat="42.906943" lon="-9.264243">
        <ele>20.808</ele>
        <time>2019-06-21T20:08:04Z</time>
      </trkpt>
      <trkpt lat="42.906862" lon="-9.264319">
        <ele>22.294</ele>
        <time>2019-06-21T20:08:05Z</time>
      </trkpt>
      <trkpt lat="42.906786" lon="-9.264396">
        <ele>23.288</ele>
        <time>2019-06-21T20:08:06Z</time>
      </trkpt>
      <trkpt lat="42.906723" lon="-9.264471">
        <ele>23.930</ele>
        <time>2019-06-21T20:08:07Z</time>
      </trkpt>
      <trkpt lat="42.906668" lon="-9.264537">
        <ele>24.372</ele>
        <time>2019-06-21T20:08:08Z</time>
      </trkpt>
      <trkpt lat="42.906620" lon="-9.264604">
        <ele>24.979</ele>
        <time>2019-06-21T20:08:09Z</time>
      </trkpt>
      <trkpt lat="42.906585" lon="-9.264678">
        <ele>25.495</ele>
        <time>2019-06-21T20:08:10Z</time>
      </trkpt>
      <trkpt lat="42.906561" lon="-9.264744">
        <ele>25.889</ele>
        <time>2019-06-21T20:08:11Z</time>
      </trkpt>
      <trkpt lat="42.906553" lon="-9.264812">
        <ele>26.081</ele>
        <time>2019-06-21T20:08:12Z</time>
      </trkpt>
      <trkpt lat="42.906574" lon="-9.264925">
        <ele>26.287</ele>
        <time>2019-06-21T20:08:14Z</time>
      </trkpt>
      <trkpt lat="42.906633" lon="-9.265023">
        <ele>26.142</ele>
        <time>2019-06-21T20:08:16Z</time>
      </trkpt>
      <trkpt lat="42.906688" lon="-9.265061">
        <ele>26.026</ele>
        <time>2019-06-21T20:08:19Z</time>
      </trkpt>
      <trkpt lat="42.906740" lon="-9.265111">
        <ele>26.108</ele>
        <time>2019-06-21T20:08:21Z</time>
      </trkpt>
      <trkpt lat="42.906781" lon="-9.265144">
        <ele>26.291</ele>
        <time>2019-06-21T20:08:22Z</time>
      </trkpt>
      <trkpt lat="42.906825" lon="-9.265170">
        <ele>26.395</ele>
        <time>2019-06-21T20:08:23Z</time>
      </trkpt>
      <trkpt lat="42.906882" lon="-9.265194">
        <ele>26.587</ele>
        <time>2019-06-21T20:08:24Z</time>
      </trkpt>
      <trkpt lat="42.906949" lon="-9.265210">
        <ele>26.899</ele>
        <time>2019-06-21T20:08:25Z</time>
      </trkpt>
      <trkpt lat="42.907016" lon="-9.265223">
        <ele>27.076</ele>
        <time>2019-06-21T20:08:26Z</time>
      </trkpt>
      <trkpt lat="42.907090" lon="-9.265236">
        <ele>27.362</ele>
        <time>2019-06-21T20:08:27Z</time>
      </trkpt>
      <trkpt lat="42.907168" lon="-9.265239">
        <ele>27.646</ele>
        <time>2019-06-21T20:08:28Z</time>
      </trkpt>
      <trkpt lat="42.907251" lon="-9.265237">
        <ele>27.738</ele>
        <time>2019-06-21T20:08:29Z</time>
      </trkpt>
      <trkpt lat="42.907335" lon="-9.265212">
        <ele>27.572</ele>
        <time>2019-06-21T20:08:30Z</time>
      </trkpt>
      <trkpt lat="42.907416" lon="-9.265184">
        <ele>27.313</ele>
        <time>2019-06-21T20:08:31Z</time>
      </trkpt>
      <trkpt lat="42.907488" lon="-9.265149">
        <ele>27.114</ele>
        <time>2019-06-21T20:08:32Z</time>
      </trkpt>
      <trkpt lat="42.907549" lon="-9.265101">
        <ele>27.108</ele>
        <time>2019-06-21T20:08:33Z</time>
      </trkpt>
      <trkpt lat="42.907616" lon="-9.265057">
        <ele>27.220</ele>
        <time>2019-06-21T20:08:34Z</time>
      </trkpt>
      <trkpt lat="42.907678" lon="-9.264998">
        <ele>27.334</ele>
        <time>2019-06-21T20:08:35Z</time>
      </trkpt>
      <trkpt lat="42.907743" lon="-9.264932">
        <ele>27.346</ele>
        <time>2019-06-21T20:08:36Z</time>
      </trkpt>
      <trkpt lat="42.907808" lon="-9.264858">
        <ele>27.168</ele>
        <time>2019-06-21T20:08:37Z</time>
      </trkpt>
      <trkpt lat="42.907871" lon="-9.264778">
        <ele>27.055</ele>
        <time>2019-06-21T20:08:38Z</time>
      </trkpt>
      <trkpt lat="42.907934" lon="-9.264692">
        <ele>27.051</ele>
        <time>2019-06-21T20:08:39Z</time>
      </trkpt>
      <trkpt lat="42.907992" lon="-9.264603">
        <ele>27.185</ele>
        <time>2019-06-21T20:08:40Z</time>
      </trkpt>
      <trkpt lat="42.908059" lon="-9.264518">
        <ele>27.327</ele>
        <time>2019-06-21T20:08:41Z</time>
      </trkpt>
      <trkpt lat="42.908122" lon="-9.264433">
        <ele>27.441</ele>
        <time>2019-06-21T20:08:42Z</time>
      </trkpt>
      <trkpt lat="42.908186" lon="-9.264340">
        <ele>27.481</ele>
        <time>2019-06-21T20:08:43Z</time>
      </trkpt>
      <trkpt lat="42.908255" lon="-9.264241">
        <ele>27.209</ele>
        <time>2019-06-21T20:08:44Z</time>
      </trkpt>
      <trkpt lat="42.908321" lon="-9.264135">
        <ele>26.808</ele>
        <time>2019-06-21T20:08:45Z</time>
      </trkpt>
      <trkpt lat="42.908392" lon="-9.264030">
        <ele>26.867</ele>
        <time>2019-06-21T20:08:46Z</time>
      </trkpt>
      <trkpt lat="42.908463" lon="-9.263934">
        <ele>26.781</ele>
        <time>2019-06-21T20:08:47Z</time>
      </trkpt>
      <trkpt lat="42.908532" lon="-9.263846">
        <ele>26.533</ele>
        <time>2019-06-21T20:08:48Z</time>
      </trkpt>
      <trkpt lat="42.908590" lon="-9.263754">
        <ele>26.485</ele>
        <time>2019-06-21T20:08:49Z</time>
      </trkpt>
      <trkpt lat="42.908646" lon="-9.263665">
        <ele>26.582</ele>
        <time>2019-06-21T20:08:50Z</time>
      </trkpt>
      <trkpt lat="42.908714" lon="-9.263589">
        <ele>26.658</ele>
        <time>2019-06-21T20:08:51Z</time>
      </trkpt>
      <trkpt lat="42.908786" lon="-9.263512">
        <ele>26.872</ele>
        <time>2019-06-21T20:08:52Z</time>
      </trkpt>
      <trkpt lat="42.908855" lon="-9.263451">
        <ele>27.144</ele>
        <time>2019-06-21T20:08:53Z</time>
      </trkpt>
      <trkpt lat="42.908929" lon="-9.263398">
        <ele>27.773</ele>
        <time>2019-06-21T20:08:54Z</time>
      </trkpt>
      <trkpt lat="42.909017" lon="-9.263389">
        <ele>28.685</ele>
        <time>2019-06-21T20:08:55Z</time>
      </trkpt>
      <trkpt lat="42.909100" lon="-9.263390">
        <ele>29.513</ele>
        <time>2019-06-21T20:08:56Z</time>
      </trkpt>
      <trkpt lat="42.909185" lon="-9.263389">
        <ele>30.308</ele>
        <time>2019-06-21T20:08:57Z</time>
      </trkpt>
      <trkpt lat="42.909284" lon="-9.263410">
        <ele>30.830</ele>
        <time>2019-06-21T20:08:58Z</time>
      </trkpt>
      <trkpt lat="42.909379" lon="-9.263440">
        <ele>31.464</ele>
        <time>2019-06-21T20:08:59Z</time>
      </trkpt>
      <trkpt lat="42.909471" lon="-9.263469">
        <ele>31.996</ele>
        <time>2019-06-21T20:09:00Z</time>
      </trkpt>
      <trkpt lat="42.909541" lon="-9.263491">
        <ele>31.878</ele>
        <time>2019-06-21T20:09:01Z</time>
      </trkpt>
      <trkpt lat="42.909614" lon="-9.263517">
        <ele>31.795</ele>
        <time>2019-06-21T20:09:02Z</time>
      </trkpt>
      <trkpt lat="42.909685" lon="-9.263538">
        <ele>31.641</ele>
        <time>2019-06-21T20:09:03Z</time>
      </trkpt>
      <trkpt lat="42.909753" lon="-9.263555">
        <ele>31.535</ele>
        <time>2019-06-21T20:09:04Z</time>
      </trkpt>
      <trkpt lat="42.909814" lon="-9.263568">
        <ele>31.427</ele>
        <time>2019-06-21T20:09:05Z</time>
      </trkpt>
      <trkpt lat="42.909866" lon="-9.263581">
        <ele>31.358</ele>
        <time>2019-06-21T20:09:06Z</time>
      </trkpt>
      <trkpt lat="42.909955" lon="-9.263564">
        <ele>31.052</ele>
        <time>2019-06-21T20:09:08Z</time>
      </trkpt>
      <trkpt lat="42.909994" lon="-9.263517">
        <ele>30.717</ele>
        <time>2019-06-21T20:09:09Z</time>
      </trkpt>
      <trkpt lat="42.910025" lon="-9.263466">
        <ele>30.408</ele>
        <time>2019-06-21T20:09:10Z</time>
      </trkpt>
      <trkpt lat="42.910052" lon="-9.263401">
        <ele>30.248</ele>
        <time>2019-06-21T20:09:11Z</time>
      </trkpt>
      <trkpt lat="42.910076" lon="-9.263334">
        <ele>30.072</ele>
        <time>2019-06-21T20:09:12Z</time>
      </trkpt>
      <trkpt lat="42.910093" lon="-9.263276">
        <ele>29.744</ele>
        <time>2019-06-21T20:09:13Z</time>
      </trkpt>
      <trkpt lat="42.910119" lon="-9.263213">
        <ele>29.316</ele>
        <time>2019-06-21T20:09:14Z</time>
      </trkpt>
      <trkpt lat="42.910137" lon="-9.263151">
        <ele>29.083</ele>
        <time>2019-06-21T20:09:15Z</time>
      </trkpt>
      <trkpt lat="42.910142" lon="-9.263067">
        <ele>28.619</ele>
        <time>2019-06-21T20:09:17Z</time>
      </trkpt>
      <trkpt lat="42.910089" lon="-9.263009">
        <ele>28.013</ele>
        <time>2019-06-21T20:09:20Z</time>
      </trkpt>
      <trkpt lat="42.910045" lon="-9.262950">
        <ele>27.565</ele>
        <time>2019-06-21T20:09:22Z</time>
      </trkpt>
      <trkpt lat="42.910003" lon="-9.262920">
        <ele>27.094</ele>
        <time>2019-06-21T20:09:23Z</time>
      </trkpt>
      <trkpt lat="42.909957" lon="-9.262883">
        <ele>26.857</ele>
        <time>2019-06-21T20:09:24Z</time>
      </trkpt>
      <trkpt lat="42.909874" lon="-9.262842">
        <ele>26.522</ele>
        <time>2019-06-21T20:09:26Z</time>
      </trkpt>
      <trkpt lat="42.909796" lon="-9.262798">
        <ele>26.108</ele>
        <time>2019-06-21T20:09:28Z</time>
      </trkpt>
      <trkpt lat="42.909753" lon="-9.262769">
        <ele>25.962</ele>
        <time>2019-06-21T20:09:29Z</time>
      </trkpt>
      <trkpt lat="42.909711" lon="-9.262735">
        <ele>25.746</ele>
        <time>2019-06-21T20:09:30Z</time>
      </trkpt>
      <trkpt lat="42.909666" lon="-9.262710">
        <ele>25.548</ele>
        <time>2019-06-21T20:09:31Z</time>
      </trkpt>
      <trkpt lat="42.909569" lon="-9.262679">
        <ele>25.130</ele>
        <time>2019-06-21T20:09:33Z</time>
      </trkpt>
      <trkpt lat="42.909496" lon="-9.262643">
        <ele>24.647</ele>
        <time>2019-06-21T20:09:35Z</time>
      </trkpt>
      <trkpt lat="42.909414" lon="-9.262598">
        <ele>23.953</ele>
        <time>2019-06-21T20:09:37Z</time>
      </trkpt>
      <trkpt lat="42.909361" lon="-9.262570">
        <ele>23.267</ele>
        <time>2019-06-21T20:09:38Z</time>
      </trkpt>
      <trkpt lat="42.909277" lon="-9.262530">
        <ele>22.259</ele>
        <time>2019-06-21T20:09:40Z</time>
      </trkpt>
      <trkpt lat="42.909200" lon="-9.262490">
        <ele>21.274</ele>
        <time>2019-06-21T20:09:42Z</time>
      </trkpt>
      <trkpt lat="42.909138" lon="-9.262465">
        <ele>20.656</ele>
        <time>2019-06-21T20:09:44Z</time>
      </trkpt>
      <trkpt lat="42.909108" lon="-9.262411">
        <ele>19.921</ele>
        <time>2019-06-21T20:09:46Z</time>
      </trkpt>
      <trkpt lat="42.909134" lon="-9.262328">
        <ele>19.408</ele>
        <time>2019-06-21T20:09:48Z</time>
      </trkpt>
      <trkpt lat="42.909173" lon="-9.262237">
        <ele>19.220</ele>
        <time>2019-06-21T20:09:50Z</time>
      </trkpt>
      <trkpt lat="42.909227" lon="-9.262157">
        <ele>19.024</ele>
        <time>2019-06-21T20:09:52Z</time>
      </trkpt>
      <trkpt lat="42.909286" lon="-9.262083">
        <ele>19.026</ele>
        <time>2019-06-21T20:09:54Z</time>
      </trkpt>
      <trkpt lat="42.909320" lon="-9.262043">
        <ele>19.128</ele>
        <time>2019-06-21T20:09:55Z</time>
      </trkpt>
      <trkpt lat="42.909357" lon="-9.261996">
        <ele>19.255</ele>
        <time>2019-06-21T20:09:56Z</time>
      </trkpt>
      <trkpt lat="42.909392" lon="-9.261952">
        <ele>19.371</ele>
        <time>2019-06-21T20:09:57Z</time>
      </trkpt>
      <trkpt lat="42.909431" lon="-9.261916">
        <ele>19.565</ele>
        <time>2019-06-21T20:09:58Z</time>
      </trkpt>
      <trkpt lat="42.909504" lon="-9.261872">
        <ele>19.427</ele>
        <time>2019-06-21T20:10:00Z</time>
      </trkpt>
      <trkpt lat="42.909580" lon="-9.261873">
        <ele>19.692</ele>
        <time>2019-06-21T20:10:02Z</time>
      </trkpt>
      <trkpt lat="42.909657" lon="-9.261889">
        <ele>20.073</ele>
        <time>2019-06-21T20:10:04Z</time>
      </trkpt>
      <trkpt lat="42.909733" lon="-9.261883">
        <ele>20.020</ele>
        <time>2019-06-21T20:10:06Z</time>
      </trkpt>
      <trkpt lat="42.909798" lon="-9.261882">
        <ele>19.408</ele>
        <time>2019-06-21T20:10:08Z</time>
      </trkpt>
      <trkpt lat="42.909863" lon="-9.261910">
        <ele>19.452</ele>
        <time>2019-06-21T20:10:11Z</time>
      </trkpt>
      <trkpt lat="42.909946" lon="-9.262004">
        <ele>20.096</ele>
        <time>2019-06-21T20:10:13Z</time>
      </trkpt>
      <trkpt lat="42.909994" lon="-9.262049">
        <ele>20.278</ele>
        <time>2019-06-21T20:10:14Z</time>
      </trkpt>
      <trkpt lat="42.910037" lon="-9.262077">
        <ele>20.240</ele>
        <time>2019-06-21T20:10:15Z</time>
      </trkpt>
      <trkpt lat="42.910080" lon="-9.262111">
        <ele>20.547</ele>
        <time>2019-06-21T20:10:16Z</time>
      </trkpt>
      <trkpt lat="42.910161" lon="-9.262149">
        <ele>20.873</ele>
        <time>2019-06-21T20:10:18Z</time>
      </trkpt>
      <trkpt lat="42.910249" lon="-9.262186">
        <ele>21.327</ele>
        <time>2019-06-21T20:10:20Z</time>
      </trkpt>
      <trkpt lat="42.910331" lon="-9.262231">
        <ele>22.169</ele>
        <time>2019-06-21T20:10:22Z</time>
      </trkpt>
      <trkpt lat="42.910376" lon="-9.262245">
        <ele>22.359</ele>
        <time>2019-06-21T20:10:23Z</time>
      </trkpt>
      <trkpt lat="42.910456" lon="-9.262273">
        <ele>22.703</ele>
        <time>2019-06-21T20:10:25Z</time>
      </trkpt>
      <trkpt lat="42.910532" lon="-9.262282">
        <ele>22.923</ele>
        <time>2019-06-21T20:10:27Z</time>
      </trkpt>
      <trkpt lat="42.910602" lon="-9.262299">
        <ele>22.108</ele>
        <time>2019-06-21T20:10:29Z</time>
      </trkpt>
      <trkpt lat="42.910664" lon="-9.262321">
        <ele>21.168</ele>
        <time>2019-06-21T20:10:31Z</time>
      </trkpt>
      <trkpt lat="42.910719" lon="-9.262357">
        <ele>20.462</ele>
        <time>2019-06-21T20:10:33Z</time>
      </trkpt>
      <trkpt lat="42.910769" lon="-9.262378">
        <ele>19.684</ele>
        <time>2019-06-21T20:10:35Z</time>
      </trkpt>
      <trkpt lat="42.910801" lon="-9.262321">
        <ele>18.196</ele>
        <time>2019-06-21T20:11:21Z</time>
      </trkpt>
      <trkpt lat="42.910791" lon="-9.262381">
        <ele>19.253</ele>
        <time>2019-06-21T20:11:37Z</time>
      </trkpt>
      <trkpt lat="42.910826" lon="-9.262309">
        <ele>17.439</ele>
        <time>2019-06-21T20:12:29Z</time>
      </trkpt>
      <trkpt lat="42.910878" lon="-9.262298">
        <ele>15.473</ele>
        <time>2019-06-21T20:12:40Z</time>
      </trkpt>
      <trkpt lat="42.910846" lon="-9.262351">
        <ele>17.495</ele>
        <time>2019-06-21T20:12:46Z</time>
      </trkpt>
      <trkpt lat="42.910800" lon="-9.262349">
        <ele>18.531</ele>
        <time>2019-06-21T20:13:13Z</time>
      </trkpt>
      <trkpt lat="42.910781" lon="-9.262289">
        <ele>18.161</ele>
        <time>2019-06-21T20:13:31Z</time>
      </trkpt>
      <trkpt lat="42.910782" lon="-9.262351">
        <ele>19.007</ele>
        <time>2019-06-21T20:13:50Z</time>
      </trkpt>
      <trkpt lat="42.910938" lon="-9.262354">
        <ele>13.996</ele>
        <time>2019-06-22T08:20:56Z</time>
      </trkpt>
      <trkpt lat="42.910894" lon="-9.262340">
        <ele>14.131</ele>
        <time>2019-06-22T08:23:23Z</time>
      </trkpt>
      <trkpt lat="42.910824" lon="-9.262345">
        <ele>14.224</ele>
        <time>2019-06-22T08:23:28Z</time>
      </trkpt>
      <trkpt lat="42.910777" lon="-9.262343">
        <ele>14.208</ele>
        <time>2019-06-22T08:23:29Z</time>
      </trkpt>
      <trkpt lat="42.910719" lon="-9.262330">
        <ele>14.262</ele>
        <time>2019-06-22T08:23:30Z</time>
      </trkpt>
      <trkpt lat="42.910656" lon="-9.262310">
        <ele>14.386</ele>
        <time>2019-06-22T08:23:31Z</time>
      </trkpt>
      <trkpt lat="42.910586" lon="-9.262290">
        <ele>14.588</ele>
        <time>2019-06-22T08:23:32Z</time>
      </trkpt>
      <trkpt lat="42.910525" lon="-9.262278">
        <ele>14.890</ele>
        <time>2019-06-22T08:23:33Z</time>
      </trkpt>
      <trkpt lat="42.910463" lon="-9.262280">
        <ele>15.318</ele>
        <time>2019-06-22T08:23:34Z</time>
      </trkpt>
      <trkpt lat="42.910403" lon="-9.262255">
        <ele>15.837</ele>
        <time>2019-06-22T08:23:35Z</time>
      </trkpt>
      <trkpt lat="42.910347" lon="-9.262229">
        <ele>16.262</ele>
        <time>2019-06-22T08:23:36Z</time>
      </trkpt>
      <trkpt lat="42.910292" lon="-9.262202">
        <ele>16.535</ele>
        <time>2019-06-22T08:23:37Z</time>
      </trkpt>
      <trkpt lat="42.910251" lon="-9.262174">
        <ele>16.822</ele>
        <time>2019-06-22T08:23:38Z</time>
      </trkpt>
      <trkpt lat="42.910156" lon="-9.262081">
        <ele>17.162</ele>
        <time>2019-06-22T08:23:40Z</time>
      </trkpt>
      <trkpt lat="42.910110" lon="-9.262013">
        <ele>17.208</ele>
        <time>2019-06-22T08:23:41Z</time>
      </trkpt>
      <trkpt lat="42.910019" lon="-9.261973">
        <ele>17.508</ele>
        <time>2019-06-22T08:23:43Z</time>
      </trkpt>
      <trkpt lat="42.909974" lon="-9.261954">
        <ele>17.745</ele>
        <time>2019-06-22T08:23:44Z</time>
      </trkpt>
      <trkpt lat="42.909890" lon="-9.261911">
        <ele>18.059</ele>
        <time>2019-06-22T08:23:46Z</time>
      </trkpt>
      <trkpt lat="42.909843" lon="-9.261911">
        <ele>18.111</ele>
        <time>2019-06-22T08:23:47Z</time>
      </trkpt>
      <trkpt lat="42.909797" lon="-9.261905">
        <ele>18.343</ele>
        <time>2019-06-22T08:23:48Z</time>
      </trkpt>
      <trkpt lat="42.909717" lon="-9.261901">
        <ele>18.821</ele>
        <time>2019-06-22T08:23:50Z</time>
      </trkpt>
      <trkpt lat="42.909629" lon="-9.261931">
        <ele>19.680</ele>
        <time>2019-06-22T08:23:52Z</time>
      </trkpt>
      <trkpt lat="42.909556" lon="-9.261973">
        <ele>20.275</ele>
        <time>2019-06-22T08:23:54Z</time>
      </trkpt>
      <trkpt lat="42.909471" lon="-9.262047">
        <ele>20.418</ele>
        <time>2019-06-22T08:23:56Z</time>
      </trkpt>
      <trkpt lat="42.909432" lon="-9.262098">
        <ele>20.255</ele>
        <time>2019-06-22T08:23:57Z</time>
      </trkpt>
      <trkpt lat="42.909388" lon="-9.262145">
        <ele>19.907</ele>
        <time>2019-06-22T08:23:58Z</time>
      </trkpt>
      <trkpt lat="42.909341" lon="-9.262180">
        <ele>19.717</ele>
        <time>2019-06-22T08:23:59Z</time>
      </trkpt>
      <trkpt lat="42.909311" lon="-9.262232">
        <ele>19.408</ele>
        <time>2019-06-22T08:24:00Z</time>
      </trkpt>
      <trkpt lat="42.909242" lon="-9.262304">
        <ele>19.168</ele>
        <time>2019-06-22T08:24:02Z</time>
      </trkpt>
      <trkpt lat="42.909199" lon="-9.262389">
        <ele>19.192</ele>
        <time>2019-06-22T08:24:04Z</time>
      </trkpt>
      <trkpt lat="42.909154" lon="-9.262415">
        <ele>19.354</ele>
        <time>2019-06-22T08:24:05Z</time>
      </trkpt>
      <trkpt lat="42.909109" lon="-9.262483">
        <ele>20.396</ele>
        <time>2019-06-22T08:24:07Z</time>
      </trkpt>
      <trkpt lat="42.909035" lon="-9.262536">
        <ele>20.564</ele>
        <time>2019-06-22T08:24:09Z</time>
      </trkpt>
      <trkpt lat="42.908945" lon="-9.262553">
        <ele>20.023</ele>
        <time>2019-06-22T08:24:11Z</time>
      </trkpt>
      <trkpt lat="42.908899" lon="-9.262587">
        <ele>19.578</ele>
        <time>2019-06-22T08:24:12Z</time>
      </trkpt>
      <trkpt lat="42.908846" lon="-9.262618">
        <ele>18.751</ele>
        <time>2019-06-22T08:24:13Z</time>
      </trkpt>
      <trkpt lat="42.908801" lon="-9.262638">
        <ele>18.182</ele>
        <time>2019-06-22T08:24:14Z</time>
      </trkpt>
      <trkpt lat="42.908753" lon="-9.262678">
        <ele>17.543</ele>
        <time>2019-06-22T08:24:15Z</time>
      </trkpt>
      <trkpt lat="42.908712" lon="-9.262709">
        <ele>17.017</ele>
        <time>2019-06-22T08:24:16Z</time>
      </trkpt>
      <trkpt lat="42.908643" lon="-9.262759">
        <ele>16.208</ele>
        <time>2019-06-22T08:24:18Z</time>
      </trkpt>
      <trkpt lat="42.908576" lon="-9.262805">
        <ele>15.351</ele>
        <time>2019-06-22T08:24:20Z</time>
      </trkpt>
      <trkpt lat="42.908523" lon="-9.262864">
        <ele>14.735</ele>
        <time>2019-06-22T08:24:22Z</time>
      </trkpt>
      <trkpt lat="42.908444" lon="-9.262870">
        <ele>14.487</ele>
        <time>2019-06-22T08:24:24Z</time>
      </trkpt>
      <trkpt lat="42.908398" lon="-9.262903">
        <ele>13.899</ele>
        <time>2019-06-22T08:24:27Z</time>
      </trkpt>
      <trkpt lat="42.908336" lon="-9.262956">
        <ele>13.327</ele>
        <time>2019-06-22T08:24:30Z</time>
      </trkpt>
      <trkpt lat="42.908276" lon="-9.263007">
        <ele>13.086</ele>
        <time>2019-06-22T08:24:32Z</time>
      </trkpt>
      <trkpt lat="42.908185" lon="-9.263108">
        <ele>12.511</ele>
        <time>2019-06-22T08:24:34Z</time>
      </trkpt>
      <trkpt lat="42.908114" lon="-9.263159">
        <ele>11.924</ele>
        <time>2019-06-22T08:24:36Z</time>
      </trkpt>
      <trkpt lat="42.908056" lon="-9.263186">
        <ele>11.694</ele>
        <time>2019-06-22T08:24:37Z</time>
      </trkpt>
      <trkpt lat="42.907998" lon="-9.263226">
        <ele>11.357</ele>
        <time>2019-06-22T08:24:38Z</time>
      </trkpt>
      <trkpt lat="42.907935" lon="-9.263259">
        <ele>10.922</ele>
        <time>2019-06-22T08:24:39Z</time>
      </trkpt>
      <trkpt lat="42.907882" lon="-9.263312">
        <ele>10.208</ele>
        <time>2019-06-22T08:24:41Z</time>
      </trkpt>
      <trkpt lat="42.907850" lon="-9.263358">
        <ele>10.022</ele>
        <time>2019-06-22T08:24:42Z</time>
      </trkpt>
      <trkpt lat="42.907832" lon="-9.263422">
        <ele>9.996</ele>
        <time>2019-06-22T08:24:43Z</time>
      </trkpt>
      <trkpt lat="42.907792" lon="-9.263503">
        <ele>9.918</ele>
        <time>2019-06-22T08:24:44Z</time>
      </trkpt>
      <trkpt lat="42.907746" lon="-9.263595">
        <ele>10.130</ele>
        <time>2019-06-22T08:24:45Z</time>
      </trkpt>
      <trkpt lat="42.907689" lon="-9.263679">
        <ele>10.478</ele>
        <time>2019-06-22T08:24:46Z</time>
      </trkpt>
      <trkpt lat="42.907617" lon="-9.263761">
        <ele>10.887</ele>
        <time>2019-06-22T08:24:47Z</time>
      </trkpt>
      <trkpt lat="42.907551" lon="-9.263848">
        <ele>11.382</ele>
        <time>2019-06-22T08:24:48Z</time>
      </trkpt>
      <trkpt lat="42.907439" lon="-9.263938">
        <ele>11.785</ele>
        <time>2019-06-22T08:24:49Z</time>
      </trkpt>
      <trkpt lat="42.907343" lon="-9.264023">
        <ele>12.197</ele>
        <time>2019-06-22T08:24:50Z</time>
      </trkpt>
      <trkpt lat="42.907235" lon="-9.264097">
        <ele>12.523</ele>
        <time>2019-06-22T08:24:51Z</time>
      </trkpt>
      <trkpt lat="42.907156" lon="-9.264190">
        <ele>13.425</ele>
        <time>2019-06-22T08:24:52Z</time>
      </trkpt>
      <trkpt lat="42.907051" lon="-9.264277">
        <ele>14.308</ele>
        <time>2019-06-22T08:24:53Z</time>
      </trkpt>
      <trkpt lat="42.906957" lon="-9.264371">
        <ele>15.122</ele>
        <time>2019-06-22T08:24:54Z</time>
      </trkpt>
      <trkpt lat="42.906847" lon="-9.264453">
        <ele>15.836</ele>
        <time>2019-06-22T08:24:55Z</time>
      </trkpt>
      <trkpt lat="42.906764" lon="-9.264551">
        <ele>16.988</ele>
        <time>2019-06-22T08:24:56Z</time>
      </trkpt>
      <trkpt lat="42.906694" lon="-9.264639">
        <ele>17.980</ele>
        <time>2019-06-22T08:24:57Z</time>
      </trkpt>
      <trkpt lat="42.906657" lon="-9.264732">
        <ele>18.068</ele>
        <time>2019-06-22T08:24:58Z</time>
      </trkpt>
      <trkpt lat="42.906643" lon="-9.264825">
        <ele>18.467</ele>
        <time>2019-06-22T08:24:59Z</time>
      </trkpt>
      <trkpt lat="42.906645" lon="-9.264893">
        <ele>19.452</ele>
        <time>2019-06-22T08:25:00Z</time>
      </trkpt>
      <trkpt lat="42.906663" lon="-9.264955">
        <ele>20.295</ele>
        <time>2019-06-22T08:25:01Z</time>
      </trkpt>
      <trkpt lat="42.906690" lon="-9.265021">
        <ele>20.995</ele>
        <time>2019-06-22T08:25:02Z</time>
      </trkpt>
      <trkpt lat="42.906742" lon="-9.265083">
        <ele>22.049</ele>
        <time>2019-06-22T08:25:03Z</time>
      </trkpt>
      <trkpt lat="42.906809" lon="-9.265141">
        <ele>23.323</ele>
        <time>2019-06-22T08:25:04Z</time>
      </trkpt>
      <trkpt lat="42.906869" lon="-9.265189">
        <ele>24.108</ele>
        <time>2019-06-22T08:25:05Z</time>
      </trkpt>
      <trkpt lat="42.906933" lon="-9.265221">
        <ele>24.492</ele>
        <time>2019-06-22T08:25:06Z</time>
      </trkpt>
      <trkpt lat="42.907007" lon="-9.265249">
        <ele>24.676</ele>
        <time>2019-06-22T08:25:07Z</time>
      </trkpt>
      <trkpt lat="42.907078" lon="-9.265281">
        <ele>24.768</ele>
        <time>2019-06-22T08:25:08Z</time>
      </trkpt>
      <trkpt lat="42.907173" lon="-9.265297">
        <ele>25.020</ele>
        <time>2019-06-22T08:25:09Z</time>
      </trkpt>
      <trkpt lat="42.907264" lon="-9.265284">
        <ele>25.088</ele>
        <time>2019-06-22T08:25:10Z</time>
      </trkpt>
      <trkpt lat="42.907353" lon="-9.265271">
        <ele>25.027</ele>
        <time>2019-06-22T08:25:11Z</time>
      </trkpt>
      <trkpt lat="42.907455" lon="-9.265230">
        <ele>24.942</ele>
        <time>2019-06-22T08:25:12Z</time>
      </trkpt>
      <trkpt lat="42.907556" lon="-9.265172">
        <ele>24.895</ele>
        <time>2019-06-22T08:25:13Z</time>
      </trkpt>
      <trkpt lat="42.907647" lon="-9.265097">
        <ele>24.485</ele>
        <time>2019-06-22T08:25:14Z</time>
      </trkpt>
      <trkpt lat="42.907726" lon="-9.265017">
        <ele>24.489</ele>
        <time>2019-06-22T08:25:15Z</time>
      </trkpt>
      <trkpt lat="42.907805" lon="-9.264925">
        <ele>24.817</ele>
        <time>2019-06-22T08:25:16Z</time>
      </trkpt>
      <trkpt lat="42.907881" lon="-9.264826">
        <ele>25.008</ele>
        <time>2019-06-22T08:25:17Z</time>
      </trkpt>
      <trkpt lat="42.907943" lon="-9.264736">
        <ele>25.551</ele>
        <time>2019-06-22T08:25:18Z</time>
      </trkpt>
      <trkpt lat="42.908016" lon="-9.264646">
        <ele>26.445</ele>
        <time>2019-06-22T08:25:19Z</time>
      </trkpt>
      <trkpt lat="42.908076" lon="-9.264554">
        <ele>26.627</ele>
        <time>2019-06-22T08:25:20Z</time>
      </trkpt>
      <trkpt lat="42.908141" lon="-9.264453">
        <ele>26.799</ele>
        <time>2019-06-22T08:25:21Z</time>
      </trkpt>
      <trkpt lat="42.908210" lon="-9.264356">
        <ele>27.197</ele>
        <time>2019-06-22T08:25:22Z</time>
      </trkpt>
      <trkpt lat="42.908271" lon="-9.264258">
        <ele>27.186</ele>
        <time>2019-06-22T08:25:23Z</time>
      </trkpt>
      <trkpt lat="42.908344" lon="-9.264152">
        <ele>27.361</ele>
        <time>2019-06-22T08:25:24Z</time>
      </trkpt>
      <trkpt lat="42.908413" lon="-9.264043">
        <ele>27.684</ele>
        <time>2019-06-22T08:25:25Z</time>
      </trkpt>
      <trkpt lat="42.908499" lon="-9.263944">
        <ele>28.177</ele>
        <time>2019-06-22T08:25:26Z</time>
      </trkpt>
      <trkpt lat="42.908570" lon="-9.263849">
        <ele>28.261</ele>
        <time>2019-06-22T08:25:27Z</time>
      </trkpt>
      <trkpt lat="42.908648" lon="-9.263738">
        <ele>28.827</ele>
        <time>2019-06-22T08:25:28Z</time>
      </trkpt>
      <trkpt lat="42.908729" lon="-9.263640">
        <ele>29.408</ele>
        <time>2019-06-22T08:25:29Z</time>
      </trkpt>
      <trkpt lat="42.908810" lon="-9.263552">
        <ele>29.750</ele>
        <time>2019-06-22T08:25:30Z</time>
      </trkpt>
      <trkpt lat="42.908893" lon="-9.263491">
        <ele>29.934</ele>
        <time>2019-06-22T08:25:31Z</time>
      </trkpt>
      <trkpt lat="42.908962" lon="-9.263418">
        <ele>30.396</ele>
        <time>2019-06-22T08:25:32Z</time>
      </trkpt>
      <trkpt lat="42.909053" lon="-9.263408">
        <ele>30.728</ele>
        <time>2019-06-22T08:25:33Z</time>
      </trkpt>
      <trkpt lat="42.909114" lon="-9.263404">
        <ele>30.966</ele>
        <time>2019-06-22T08:25:34Z</time>
      </trkpt>
      <trkpt lat="42.909197" lon="-9.263401">
        <ele>31.115</ele>
        <time>2019-06-22T08:25:35Z</time>
      </trkpt>
      <trkpt lat="42.909275" lon="-9.263411">
        <ele>31.430</ele>
        <time>2019-06-22T08:25:36Z</time>
      </trkpt>
      <trkpt lat="42.909373" lon="-9.263440">
        <ele>31.743</ele>
        <time>2019-06-22T08:25:37Z</time>
      </trkpt>
      <trkpt lat="42.909445" lon="-9.263456">
        <ele>31.945</ele>
        <time>2019-06-22T08:25:38Z</time>
      </trkpt>
      <trkpt lat="42.909547" lon="-9.263487">
        <ele>32.047</ele>
        <time>2019-06-22T08:25:39Z</time>
      </trkpt>
      <trkpt lat="42.909651" lon="-9.263522">
        <ele>32.011</ele>
        <time>2019-06-22T08:25:40Z</time>
      </trkpt>
      <trkpt lat="42.909732" lon="-9.263543">
        <ele>31.908</ele>
        <time>2019-06-22T08:25:41Z</time>
      </trkpt>
      <trkpt lat="42.909801" lon="-9.263563">
        <ele>31.897</ele>
        <time>2019-06-22T08:25:42Z</time>
      </trkpt>
      <trkpt lat="42.909862" lon="-9.263581">
        <ele>31.721</ele>
        <time>2019-06-22T08:25:43Z</time>
      </trkpt>
      <trkpt lat="42.909919" lon="-9.263577">
        <ele>31.643</ele>
        <time>2019-06-22T08:25:44Z</time>
      </trkpt>
      <trkpt lat="42.909961" lon="-9.263544">
        <ele>31.615</ele>
        <time>2019-06-22T08:25:45Z</time>
      </trkpt>
      <trkpt lat="42.910029" lon="-9.263458">
        <ele>31.823</ele>
        <time>2019-06-22T08:25:47Z</time>
      </trkpt>
      <trkpt lat="42.910070" lon="-9.263390">
        <ele>31.832</ele>
        <time>2019-06-22T08:25:48Z</time>
      </trkpt>
      <trkpt lat="42.910112" lon="-9.263312">
        <ele>31.617</ele>
        <time>2019-06-22T08:25:49Z</time>
      </trkpt>
      <trkpt lat="42.910137" lon="-9.263250">
        <ele>31.240</ele>
        <time>2019-06-22T08:25:50Z</time>
      </trkpt>
      <trkpt lat="42.910180" lon="-9.263162">
        <ele>30.239</ele>
        <time>2019-06-22T08:25:52Z</time>
      </trkpt>
      <trkpt lat="42.910205" lon="-9.263087">
        <ele>28.801</ele>
        <time>2019-06-22T08:25:55Z</time>
      </trkpt>
      <trkpt lat="42.910244" lon="-9.263045">
        <ele>28.421</ele>
        <time>2019-06-22T08:25:56Z</time>
      </trkpt>
      <trkpt lat="42.910377" lon="-9.263143">
        <ele>27.908</ele>
        <time>2019-06-22T08:25:58Z</time>
      </trkpt>
      <trkpt lat="42.910456" lon="-9.263202">
        <ele>27.866</ele>
        <time>2019-06-22T08:25:59Z</time>
      </trkpt>
      <trkpt lat="42.910524" lon="-9.263282">
        <ele>27.720</ele>
        <time>2019-06-22T08:26:00Z</time>
      </trkpt>
      <trkpt lat="42.910611" lon="-9.263362">
        <ele>27.552</ele>
        <time>2019-06-22T08:26:01Z</time>
      </trkpt>
      <trkpt lat="42.910716" lon="-9.263447">
        <ele>27.274</ele>
        <time>2019-06-22T08:26:02Z</time>
      </trkpt>
      <trkpt lat="42.910808" lon="-9.263528">
        <ele>26.592</ele>
        <time>2019-06-22T08:26:03Z</time>
      </trkpt>
      <trkpt lat="42.910957" lon="-9.263592">
        <ele>25.411</ele>
        <time>2019-06-22T08:26:04Z</time>
      </trkpt>
      <trkpt lat="42.911091" lon="-9.263654">
        <ele>23.996</ele>
        <time>2019-06-22T08:26:05Z</time>
      </trkpt>
      <trkpt lat="42.911245" lon="-9.263682">
        <ele>22.719</ele>
        <time>2019-06-22T08:26:06Z</time>
      </trkpt>
      <trkpt lat="42.911393" lon="-9.263732">
        <ele>21.864</ele>
        <time>2019-06-22T08:26:07Z</time>
      </trkpt>
      <trkpt lat="42.911550" lon="-9.263778">
        <ele>21.406</ele>
        <time>2019-06-22T08:26:08Z</time>
      </trkpt>
      <trkpt lat="42.911704" lon="-9.263839">
        <ele>21.416</ele>
        <time>2019-06-22T08:26:09Z</time>
      </trkpt>
      <trkpt lat="42.911871" lon="-9.263898">
        <ele>21.708</ele>
        <time>2019-06-22T08:26:10Z</time>
      </trkpt>
      <trkpt lat="42.912019" lon="-9.263960">
        <ele>21.949</ele>
        <time>2019-06-22T08:26:11Z</time>
      </trkpt>
      <trkpt lat="42.912175" lon="-9.264022">
        <ele>21.913</ele>
        <time>2019-06-22T08:26:12Z</time>
      </trkpt>
      <trkpt lat="42.912322" lon="-9.264077">
        <ele>21.155</ele>
        <time>2019-06-22T08:26:13Z</time>
      </trkpt>
      <trkpt lat="42.912468" lon="-9.264122">
        <ele>20.147</ele>
        <time>2019-06-22T08:26:14Z</time>
      </trkpt>
      <trkpt lat="42.912604" lon="-9.264153">
        <ele>19.235</ele>
        <time>2019-06-22T08:26:15Z</time>
      </trkpt>
      <trkpt lat="42.912738" lon="-9.264171">
        <ele>18.284</ele>
        <time>2019-06-22T08:26:16Z</time>
      </trkpt>
      <trkpt lat="42.912864" lon="-9.264198">
        <ele>18.159</ele>
        <time>2019-06-22T08:26:17Z</time>
      </trkpt>
      <trkpt lat="42.912979" lon="-9.264248">
        <ele>18.142</ele>
        <time>2019-06-22T08:26:18Z</time>
      </trkpt>
      <trkpt lat="42.913075" lon="-9.264333">
        <ele>19.296</ele>
        <time>2019-06-22T08:26:19Z</time>
      </trkpt>
      <trkpt lat="42.913158" lon="-9.264448">
        <ele>20.231</ele>
        <time>2019-06-22T08:26:20Z</time>
      </trkpt>
      <trkpt lat="42.913239" lon="-9.264594">
        <ele>21.524</ele>
        <time>2019-06-22T08:26:21Z</time>
      </trkpt>
      <trkpt lat="42.913294" lon="-9.264760">
        <ele>22.608</ele>
        <time>2019-06-22T08:26:22Z</time>
      </trkpt>
      <trkpt lat="42.913349" lon="-9.264934">
        <ele>22.822</ele>
        <time>2019-06-22T08:26:23Z</time>
      </trkpt>
      <trkpt lat="42.913392" lon="-9.265121">
        <ele>22.866</ele>
        <time>2019-06-22T08:26:24Z</time>
      </trkpt>
      <trkpt lat="42.913431" lon="-9.265297">
        <ele>22.888</ele>
        <time>2019-06-22T08:26:25Z</time>
      </trkpt>
      <trkpt lat="42.913465" lon="-9.265472">
        <ele>22.360</ele>
        <time>2019-06-22T08:26:26Z</time>
      </trkpt>
      <trkpt lat="42.913498" lon="-9.265658">
        <ele>22.378</ele>
        <time>2019-06-22T08:26:27Z</time>
      </trkpt>
      <trkpt lat="42.913526" lon="-9.265852">
        <ele>22.877</ele>
        <time>2019-06-22T08:26:28Z</time>
      </trkpt>
      <trkpt lat="42.913544" lon="-9.266052">
        <ele>22.972</ele>
        <time>2019-06-22T08:26:29Z</time>
      </trkpt>
      <trkpt lat="42.913580" lon="-9.266262">
        <ele>22.925</ele>
        <time>2019-06-22T08:26:30Z</time>
      </trkpt>
      <trkpt lat="42.913620" lon="-9.266472">
        <ele>22.656</ele>
        <time>2019-06-22T08:26:31Z</time>
      </trkpt>
      <trkpt lat="42.913670" lon="-9.266685">
        <ele>22.259</ele>
        <time>2019-06-22T08:26:32Z</time>
      </trkpt>
      <trkpt lat="42.913719" lon="-9.266891">
        <ele>20.514</ele>
        <time>2019-06-22T08:26:33Z</time>
      </trkpt>
      <trkpt lat="42.913776" lon="-9.267081">
        <ele>18.508</ele>
        <time>2019-06-22T08:26:34Z</time>
      </trkpt>
      <trkpt lat="42.913851" lon="-9.267246">
        <ele>16.368</ele>
        <time>2019-06-22T08:26:35Z</time>
      </trkpt>
      <trkpt lat="42.913953" lon="-9.267386">
        <ele>14.892</ele>
        <time>2019-06-22T08:26:36Z</time>
      </trkpt>
      <trkpt lat="42.914061" lon="-9.267484">
        <ele>13.644</ele>
        <time>2019-06-22T08:26:37Z</time>
      </trkpt>
      <trkpt lat="42.914184" lon="-9.267546">
        <ele>12.656</ele>
        <time>2019-06-22T08:26:38Z</time>
      </trkpt>
      <trkpt lat="42.914326" lon="-9.267564">
        <ele>12.634</ele>
        <time>2019-06-22T08:26:39Z</time>
      </trkpt>
      <trkpt lat="42.914481" lon="-9.267560">
        <ele>12.693</ele>
        <time>2019-06-22T08:26:40Z</time>
      </trkpt>
      <trkpt lat="42.914644" lon="-9.267552">
        <ele>13.518</ele>
        <time>2019-06-22T08:26:41Z</time>
      </trkpt>
      <trkpt lat="42.914820" lon="-9.267546">
        <ele>14.581</ele>
        <time>2019-06-22T08:26:42Z</time>
      </trkpt>
      <trkpt lat="42.915007" lon="-9.267544">
        <ele>14.738</ele>
        <time>2019-06-22T08:26:43Z</time>
      </trkpt>
      <trkpt lat="42.915196" lon="-9.267545">
        <ele>15.570</ele>
        <time>2019-06-22T08:26:44Z</time>
      </trkpt>
      <trkpt lat="42.915383" lon="-9.267540">
        <ele>16.417</ele>
        <time>2019-06-22T08:26:45Z</time>
      </trkpt>
      <trkpt lat="42.915578" lon="-9.267532">
        <ele>16.508</ele>
        <time>2019-06-22T08:26:46Z</time>
      </trkpt>
      <trkpt lat="42.915770" lon="-9.267526">
        <ele>16.586</ele>
        <time>2019-06-22T08:26:47Z</time>
      </trkpt>
      <trkpt lat="42.915957" lon="-9.267526">
        <ele>15.730</ele>
        <time>2019-06-22T08:26:48Z</time>
      </trkpt>
      <trkpt lat="42.916132" lon="-9.267520">
        <ele>14.882</ele>
        <time>2019-06-22T08:26:49Z</time>
      </trkpt>
      <trkpt lat="42.916313" lon="-9.267519">
        <ele>14.454</ele>
        <time>2019-06-22T08:26:50Z</time>
      </trkpt>
      <trkpt lat="42.916491" lon="-9.267507">
        <ele>14.442</ele>
        <time>2019-06-22T08:26:51Z</time>
      </trkpt>
      <trkpt lat="42.916670" lon="-9.267510">
        <ele>14.471</ele>
        <time>2019-06-22T08:26:52Z</time>
      </trkpt>
      <trkpt lat="42.916854" lon="-9.267502">
        <ele>15.196</ele>
        <time>2019-06-22T08:26:53Z</time>
      </trkpt>
      <trkpt lat="42.917043" lon="-9.267503">
        <ele>16.139</ele>
        <time>2019-06-22T08:26:54Z</time>
      </trkpt>
      <trkpt lat="42.917242" lon="-9.267508">
        <ele>16.164</ele>
        <time>2019-06-22T08:26:55Z</time>
      </trkpt>
      <trkpt lat="42.917442" lon="-9.267499">
        <ele>16.006</ele>
        <time>2019-06-22T08:26:56Z</time>
      </trkpt>
      <trkpt lat="42.917643" lon="-9.267500">
        <ele>15.816</ele>
        <time>2019-06-22T08:26:57Z</time>
      </trkpt>
      <trkpt lat="42.917842" lon="-9.267490">
        <ele>15.808</ele>
        <time>2019-06-22T08:26:58Z</time>
      </trkpt>
      <trkpt lat="42.918045" lon="-9.267491">
        <ele>15.819</ele>
        <time>2019-06-22T08:26:59Z</time>
      </trkpt>
      <trkpt lat="42.918249" lon="-9.267489">
        <ele>16.073</ele>
        <time>2019-06-22T08:27:00Z</time>
      </trkpt>
      <trkpt lat="42.918449" lon="-9.267480">
        <ele>16.025</ele>
        <time>2019-06-22T08:27:01Z</time>
      </trkpt>
      <trkpt lat="42.918634" lon="-9.267477">
        <ele>14.267</ele>
        <time>2019-06-22T08:27:02Z</time>
      </trkpt>
      <trkpt lat="42.918822" lon="-9.267460">
        <ele>13.065</ele>
        <time>2019-06-22T08:27:03Z</time>
      </trkpt>
      <trkpt lat="42.919007" lon="-9.267399">
        <ele>11.464</ele>
        <time>2019-06-22T08:27:04Z</time>
      </trkpt>
      <trkpt lat="42.919180" lon="-9.267326">
        <ele>9.729</ele>
        <time>2019-06-22T08:27:05Z</time>
      </trkpt>
      <trkpt lat="42.919348" lon="-9.267204">
        <ele>8.992</ele>
        <time>2019-06-22T08:27:06Z</time>
      </trkpt>
      <trkpt lat="42.919486" lon="-9.267048">
        <ele>8.734</ele>
        <time>2019-06-22T08:27:07Z</time>
      </trkpt>
      <trkpt lat="42.919633" lon="-9.266865">
        <ele>8.955</ele>
        <time>2019-06-22T08:27:08Z</time>
      </trkpt>
      <trkpt lat="42.919800" lon="-9.266691">
        <ele>9.810</ele>
        <time>2019-06-22T08:27:09Z</time>
      </trkpt>
      <trkpt lat="42.919975" lon="-9.266520">
        <ele>10.308</ele>
        <time>2019-06-22T08:27:10Z</time>
      </trkpt>
      <trkpt lat="42.920156" lon="-9.266348">
        <ele>10.386</ele>
        <time>2019-06-22T08:27:11Z</time>
      </trkpt>
      <trkpt lat="42.920340" lon="-9.266166">
        <ele>9.360</ele>
        <time>2019-06-22T08:27:12Z</time>
      </trkpt>
      <trkpt lat="42.920530" lon="-9.265982">
        <ele>7.852</ele>
        <time>2019-06-22T08:27:13Z</time>
      </trkpt>
      <trkpt lat="42.920707" lon="-9.265793">
        <ele>5.524</ele>
        <time>2019-06-22T08:27:14Z</time>
      </trkpt>
      <trkpt lat="42.920883" lon="-9.265602">
        <ele>5.072</ele>
        <time>2019-06-22T08:27:15Z</time>
      </trkpt>
      <trkpt lat="42.921069" lon="-9.265408">
        <ele>2.981</ele>
        <time>2019-06-22T08:27:16Z</time>
      </trkpt>
      <trkpt lat="42.921252" lon="-9.265250">
        <ele>2.916</ele>
        <time>2019-06-22T08:27:17Z</time>
      </trkpt>
      <trkpt lat="42.921432" lon="-9.265055">
        <ele>2.969</ele>
        <time>2019-06-22T08:27:18Z</time>
      </trkpt>
      <trkpt lat="42.921608" lon="-9.264885">
        <ele>2.931</ele>
        <time>2019-06-22T08:27:19Z</time>
      </trkpt>
      <trkpt lat="42.921782" lon="-9.264689">
        <ele>2.861</ele>
        <time>2019-06-22T08:27:20Z</time>
      </trkpt>
      <trkpt lat="42.921959" lon="-9.264493">
        <ele>2.407</ele>
        <time>2019-06-22T08:27:21Z</time>
      </trkpt>
      <trkpt lat="42.922125" lon="-9.264312">
        <ele>1.808</ele>
        <time>2019-06-22T08:27:22Z</time>
      </trkpt>
      <trkpt lat="42.922296" lon="-9.264137">
        <ele>1.686</ele>
        <time>2019-06-22T08:27:23Z</time>
      </trkpt>
      <trkpt lat="42.922467" lon="-9.263966">
        <ele>1.540</ele>
        <time>2019-06-22T08:27:24Z</time>
      </trkpt>
      <trkpt lat="42.922627" lon="-9.263784">
        <ele>1.262</ele>
        <time>2019-06-22T08:27:25Z</time>
      </trkpt>
      <trkpt lat="42.922788" lon="-9.263615">
        <ele>1.174</ele>
        <time>2019-06-22T08:27:26Z</time>
      </trkpt>
      <trkpt lat="42.922961" lon="-9.263456">
        <ele>1.152</ele>
        <time>2019-06-22T08:27:27Z</time>
      </trkpt>
      <trkpt lat="42.923124" lon="-9.263282">
        <ele>0.281</ele>
        <time>2019-06-22T08:27:28Z</time>
      </trkpt>
      <trkpt lat="42.923292" lon="-9.263115">
        <ele>0.186</ele>
        <time>2019-06-22T08:27:29Z</time>
      </trkpt>
      <trkpt lat="42.923470" lon="-9.262926">
        <ele>0.299</ele>
        <time>2019-06-22T08:27:30Z</time>
      </trkpt>
      <trkpt lat="42.923643" lon="-9.262732">
        <ele>0.362</ele>
        <time>2019-06-22T08:27:31Z</time>
      </trkpt>
      <trkpt lat="42.923818" lon="-9.262520">
        <ele>0.983</ele>
        <time>2019-06-22T08:27:32Z</time>
      </trkpt>
      <trkpt lat="42.924003" lon="-9.262315">
        <ele>0.911</ele>
        <time>2019-06-22T08:27:33Z</time>
      </trkpt>
      <trkpt lat="42.924190" lon="-9.262108">
        <ele>2.108</ele>
        <time>2019-06-22T08:27:34Z</time>
      </trkpt>
      <trkpt lat="42.924378" lon="-9.261897">
        <ele>2.319</ele>
        <time>2019-06-22T08:27:35Z</time>
      </trkpt>
      <trkpt lat="42.924577" lon="-9.261678">
        <ele>2.383</ele>
        <time>2019-06-22T08:27:36Z</time>
      </trkpt>
      <trkpt lat="42.924778" lon="-9.261472">
        <ele>2.385</ele>
        <time>2019-06-22T08:27:37Z</time>
      </trkpt>
      <trkpt lat="42.924980" lon="-9.261250">
        <ele>2.247</ele>
        <time>2019-06-22T08:27:38Z</time>
      </trkpt>
      <trkpt lat="42.925176" lon="-9.261041">
        <ele>1.555</ele>
        <time>2019-06-22T08:27:39Z</time>
      </trkpt>
      <trkpt lat="42.925379" lon="-9.260818">
        <ele>-0.184</ele>
        <time>2019-06-22T08:27:40Z</time>
      </trkpt>
      <trkpt lat="42.925580" lon="-9.260595">
        <ele>-1.369</ele>
        <time>2019-06-22T08:27:41Z</time>
      </trkpt>
      <trkpt lat="42.925783" lon="-9.260368">
        <ele>-1.392</ele>
        <time>2019-06-22T08:27:42Z</time>
      </trkpt>
      <trkpt lat="42.925984" lon="-9.260151">
        <ele>-1.713</ele>
        <time>2019-06-22T08:27:43Z</time>
      </trkpt>
      <trkpt lat="42.926187" lon="-9.259934">
        <ele>-2.643</ele>
        <time>2019-06-22T08:27:44Z</time>
      </trkpt>
      <trkpt lat="42.926394" lon="-9.259727">
        <ele>-3.807</ele>
        <time>2019-06-22T08:27:45Z</time>
      </trkpt>
      <trkpt lat="42.926594" lon="-9.259517">
        <ele>-4.708</ele>
        <time>2019-06-22T08:27:46Z</time>
      </trkpt>
      <trkpt lat="42.926795" lon="-9.259291">
        <ele>-6.514</ele>
        <time>2019-06-22T08:27:47Z</time>
      </trkpt>
      <trkpt lat="42.926994" lon="-9.259073">
        <ele>-8.818</ele>
        <time>2019-06-22T08:27:48Z</time>
      </trkpt>
      <trkpt lat="42.927192" lon="-9.258855">
        <ele>-8.820</ele>
        <time>2019-06-22T08:27:49Z</time>
      </trkpt>
      <trkpt lat="42.927385" lon="-9.258625">
        <ele>-8.032</ele>
        <time>2019-06-22T08:27:50Z</time>
      </trkpt>
      <trkpt lat="42.927572" lon="-9.258389">
        <ele>-7.090</ele>
        <time>2019-06-22T08:27:51Z</time>
      </trkpt>
      <trkpt lat="42.927748" lon="-9.258152">
        <ele>-6.669</ele>
        <time>2019-06-22T08:27:52Z</time>
      </trkpt>
      <trkpt lat="42.927911" lon="-9.257895">
        <ele>-6.434</ele>
        <time>2019-06-22T08:27:53Z</time>
      </trkpt>
      <trkpt lat="42.928037" lon="-9.257659">
        <ele>-6.247</ele>
        <time>2019-06-22T08:27:54Z</time>
      </trkpt>
      <trkpt lat="42.928149" lon="-9.257361">
        <ele>-5.968</ele>
        <time>2019-06-22T08:27:55Z</time>
      </trkpt>
      <trkpt lat="42.928250" lon="-9.257050">
        <ele>-5.942</ele>
        <time>2019-06-22T08:27:56Z</time>
      </trkpt>
      <trkpt lat="42.928327" lon="-9.256711">
        <ele>-4.226</ele>
        <time>2019-06-22T08:27:57Z</time>
      </trkpt>
      <trkpt lat="42.928396" lon="-9.256389">
        <ele>-3.208</ele>
        <time>2019-06-22T08:27:58Z</time>
      </trkpt>
      <trkpt lat="42.928449" lon="-9.256056">
        <ele>-2.229</ele>
        <time>2019-06-22T08:27:59Z</time>
      </trkpt>
      <trkpt lat="42.928489" lon="-9.255726">
        <ele>-0.963</ele>
        <time>2019-06-22T08:28:00Z</time>
      </trkpt>
      <trkpt lat="42.928506" lon="-9.255390">
        <ele>-0.435</ele>
        <time>2019-06-22T08:28:01Z</time>
      </trkpt>
      <trkpt lat="42.928489" lon="-9.255065">
        <ele>0.497</ele>
        <time>2019-06-22T08:28:02Z</time>
      </trkpt>
      <trkpt lat="42.928472" lon="-9.254731">
        <ele>1.765</ele>
        <time>2019-06-22T08:28:03Z</time>
      </trkpt>
      <trkpt lat="42.928443" lon="-9.254435">
        <ele>2.314</ele>
        <time>2019-06-22T08:28:04Z</time>
      </trkpt>
      <trkpt lat="42.928405" lon="-9.254118">
        <ele>2.519</ele>
        <time>2019-06-22T08:28:05Z</time>
      </trkpt>
      <trkpt lat="42.928355" lon="-9.253812">
        <ele>2.992</ele>
        <time>2019-06-22T08:28:06Z</time>
      </trkpt>
      <trkpt lat="42.928285" lon="-9.253536">
        <ele>2.941</ele>
        <time>2019-06-22T08:28:07Z</time>
      </trkpt>
      <trkpt lat="42.928230" lon="-9.253295">
        <ele>3.081</ele>
        <time>2019-06-22T08:28:08Z</time>
      </trkpt>
      <trkpt lat="42.928153" lon="-9.253032">
        <ele>4.409</ele>
        <time>2019-06-22T08:28:09Z</time>
      </trkpt>
      <trkpt lat="42.928103" lon="-9.252776">
        <ele>8.308</ele>
        <time>2019-06-22T08:28:10Z</time>
      </trkpt>
      <trkpt lat="42.928087" lon="-9.252518">
        <ele>12.277</ele>
        <time>2019-06-22T08:28:11Z</time>
      </trkpt>
      <trkpt lat="42.928089" lon="-9.252279">
        <ele>16.421</ele>
        <time>2019-06-22T08:28:12Z</time>
      </trkpt>
      <trkpt lat="42.928108" lon="-9.252024">
        <ele>20.213</ele>
        <time>2019-06-22T08:28:13Z</time>
      </trkpt>
      <trkpt lat="42.928123" lon="-9.251748">
        <ele>22.365</ele>
        <time>2019-06-22T08:28:14Z</time>
      </trkpt>
      <trkpt lat="42.928134" lon="-9.251482">
        <ele>22.373</ele>
        <time>2019-06-22T08:28:15Z</time>
      </trkpt>
      <trkpt lat="42.928118" lon="-9.251222">
        <ele>22.082</ele>
        <time>2019-06-22T08:28:16Z</time>
      </trkpt>
      <trkpt lat="42.928082" lon="-9.250959">
        <ele>20.937</ele>
        <time>2019-06-22T08:28:17Z</time>
      </trkpt>
      <trkpt lat="42.928039" lon="-9.250696">
        <ele>20.730</ele>
        <time>2019-06-22T08:28:18Z</time>
      </trkpt>
      <trkpt lat="42.927934" lon="-9.250459">
        <ele>20.713</ele>
        <time>2019-06-22T08:28:19Z</time>
      </trkpt>
      <trkpt lat="42.927856" lon="-9.250208">
        <ele>22.543</ele>
        <time>2019-06-22T08:28:20Z</time>
      </trkpt>
      <trkpt lat="42.927780" lon="-9.249959">
        <ele>22.807</ele>
        <time>2019-06-22T08:28:21Z</time>
      </trkpt>
      <trkpt lat="42.927709" lon="-9.249686">
        <ele>24.808</ele>
        <time>2019-06-22T08:28:22Z</time>
      </trkpt>
      <trkpt lat="42.927637" lon="-9.249412">
        <ele>26.454</ele>
        <time>2019-06-22T08:28:23Z</time>
      </trkpt>
      <trkpt lat="42.927559" lon="-9.249138">
        <ele>27.848</ele>
        <time>2019-06-22T08:28:24Z</time>
      </trkpt>
      <trkpt lat="42.927494" lon="-9.248861">
        <ele>28.160</ele>
        <time>2019-06-22T08:28:25Z</time>
      </trkpt>
      <trkpt lat="42.927439" lon="-9.248572">
        <ele>28.832</ele>
        <time>2019-06-22T08:28:26Z</time>
      </trkpt>
      <trkpt lat="42.927389" lon="-9.248276">
        <ele>28.880</ele>
        <time>2019-06-22T08:28:27Z</time>
      </trkpt>
      <trkpt lat="42.927352" lon="-9.247977">
        <ele>30.299</ele>
        <time>2019-06-22T08:28:28Z</time>
      </trkpt>
      <trkpt lat="42.927315" lon="-9.247666">
        <ele>30.214</ele>
        <time>2019-06-22T08:28:29Z</time>
      </trkpt>
      <trkpt lat="42.927287" lon="-9.247351">
        <ele>31.317</ele>
        <time>2019-06-22T08:28:30Z</time>
      </trkpt>
      <trkpt lat="42.927279" lon="-9.247028">
        <ele>31.995</ele>
        <time>2019-06-22T08:28:31Z</time>
      </trkpt>
      <trkpt lat="42.927280" lon="-9.246728">
        <ele>33.449</ele>
        <time>2019-06-22T08:28:32Z</time>
      </trkpt>
      <trkpt lat="42.927293" lon="-9.246436">
        <ele>33.423</ele>
        <time>2019-06-22T08:28:33Z</time>
      </trkpt>
      <trkpt lat="42.927312" lon="-9.246147">
        <ele>33.408</ele>
        <time>2019-06-22T08:28:34Z</time>
      </trkpt>
      <trkpt lat="42.927336" lon="-9.245864">
        <ele>33.422</ele>
        <time>2019-06-22T08:28:35Z</time>
      </trkpt>
      <trkpt lat="42.927370" lon="-9.245577">
        <ele>33.566</ele>
        <time>2019-06-22T08:28:36Z</time>
      </trkpt>
      <trkpt lat="42.927440" lon="-9.245293">
        <ele>33.868</ele>
        <time>2019-06-22T08:28:37Z</time>
      </trkpt>
      <trkpt lat="42.927505" lon="-9.245112">
        <ele>34.240</ele>
        <time>2019-06-22T08:28:38Z</time>
      </trkpt>
      <trkpt lat="42.927568" lon="-9.244857">
        <ele>35.148</ele>
        <time>2019-06-22T08:28:39Z</time>
      </trkpt>
      <trkpt lat="42.927674" lon="-9.244627">
        <ele>35.167</ele>
        <time>2019-06-22T08:28:40Z</time>
      </trkpt>
      <trkpt lat="42.927808" lon="-9.244385">
        <ele>35.172</ele>
        <time>2019-06-22T08:28:41Z</time>
      </trkpt>
      <trkpt lat="42.927925" lon="-9.244205">
        <ele>34.955</ele>
        <time>2019-06-22T08:28:42Z</time>
      </trkpt>
      <trkpt lat="42.928114" lon="-9.244034">
        <ele>34.761</ele>
        <time>2019-06-22T08:28:43Z</time>
      </trkpt>
      <trkpt lat="42.928278" lon="-9.243824">
        <ele>34.721</ele>
        <time>2019-06-22T08:28:44Z</time>
      </trkpt>
      <trkpt lat="42.928428" lon="-9.243600">
        <ele>34.913</ele>
        <time>2019-06-22T08:28:45Z</time>
      </trkpt>
      <trkpt lat="42.928591" lon="-9.243370">
        <ele>35.208</ele>
        <time>2019-06-22T08:28:46Z</time>
      </trkpt>
      <trkpt lat="42.928789" lon="-9.243160">
        <ele>35.839</ele>
        <time>2019-06-22T08:28:47Z</time>
      </trkpt>
      <trkpt lat="42.928931" lon="-9.242927">
        <ele>36.253</ele>
        <time>2019-06-22T08:28:48Z</time>
      </trkpt>
      <trkpt lat="42.929075" lon="-9.242706">
        <ele>36.245</ele>
        <time>2019-06-22T08:28:49Z</time>
      </trkpt>
      <trkpt lat="42.929215" lon="-9.242489">
        <ele>36.577</ele>
        <time>2019-06-22T08:28:50Z</time>
      </trkpt>
      <trkpt lat="42.929373" lon="-9.242291">
        <ele>36.555</ele>
        <time>2019-06-22T08:28:51Z</time>
      </trkpt>
      <trkpt lat="42.929498" lon="-9.242067">
        <ele>35.964</ele>
        <time>2019-06-22T08:28:52Z</time>
      </trkpt>
      <trkpt lat="42.929590" lon="-9.241824">
        <ele>34.829</ele>
        <time>2019-06-22T08:28:53Z</time>
      </trkpt>
      <trkpt lat="42.929680" lon="-9.241589">
        <ele>34.712</ele>
        <time>2019-06-22T08:28:54Z</time>
      </trkpt>
      <trkpt lat="42.929748" lon="-9.241343">
        <ele>34.481</ele>
        <time>2019-06-22T08:28:55Z</time>
      </trkpt>
      <trkpt lat="42.929716" lon="-9.241119">
        <ele>34.761</ele>
        <time>2019-06-22T08:28:56Z</time>
      </trkpt>
      <trkpt lat="42.929705" lon="-9.240899">
        <ele>35.617</ele>
        <time>2019-06-22T08:28:57Z</time>
      </trkpt>
      <trkpt lat="42.929612" lon="-9.240679">
        <ele>37.708</ele>
        <time>2019-06-22T08:28:58Z</time>
      </trkpt>
      <trkpt lat="42.929519" lon="-9.240487">
        <ele>39.841</ele>
        <time>2019-06-22T08:28:59Z</time>
      </trkpt>
      <trkpt lat="42.929399" lon="-9.240272">
        <ele>41.795</ele>
        <time>2019-06-22T08:29:00Z</time>
      </trkpt>
      <trkpt lat="42.929283" lon="-9.240080">
        <ele>43.467</ele>
        <time>2019-06-22T08:29:01Z</time>
      </trkpt>
      <trkpt lat="42.929166" lon="-9.239890">
        <ele>45.079</ele>
        <time>2019-06-22T08:29:02Z</time>
      </trkpt>
      <trkpt lat="42.929062" lon="-9.239708">
        <ele>46.257</ele>
        <time>2019-06-22T08:29:03Z</time>
      </trkpt>
      <trkpt lat="42.928958" lon="-9.239526">
        <ele>47.236</ele>
        <time>2019-06-22T08:29:04Z</time>
      </trkpt>
      <trkpt lat="42.928862" lon="-9.239352">
        <ele>47.591</ele>
        <time>2019-06-22T08:29:05Z</time>
      </trkpt>
      <trkpt lat="42.928786" lon="-9.239184">
        <ele>48.064</ele>
        <time>2019-06-22T08:29:06Z</time>
      </trkpt>
      <trkpt lat="42.928711" lon="-9.239045">
        <ele>48.136</ele>
        <time>2019-06-22T08:29:07Z</time>
      </trkpt>
      <trkpt lat="42.928649" lon="-9.238931">
        <ele>48.817</ele>
        <time>2019-06-22T08:29:08Z</time>
      </trkpt>
      <trkpt lat="42.928607" lon="-9.238850">
        <ele>50.118</ele>
        <time>2019-06-22T08:29:09Z</time>
      </trkpt>
      <trkpt lat="42.928571" lon="-9.238796">
        <ele>51.508</ele>
        <time>2019-06-22T08:29:10Z</time>
      </trkpt>
      <trkpt lat="42.928537" lon="-9.238730">
        <ele>54.616</ele>
        <time>2019-06-22T08:29:12Z</time>
      </trkpt>
      <trkpt lat="42.928509" lon="-9.238671">
        <ele>56.440</ele>
        <time>2019-06-22T08:29:17Z</time>
      </trkpt>
      <trkpt lat="42.928528" lon="-9.238742">
        <ele>56.592</ele>
        <time>2019-06-22T08:29:36Z</time>
      </trkpt>
      <trkpt lat="42.928507" lon="-9.238684">
        <ele>56.684</ele>
        <time>2019-06-22T08:29:44Z</time>
      </trkpt>
      <trkpt lat="42.928496" lon="-9.238622">
        <ele>56.692</ele>
        <time>2019-06-22T08:30:41Z</time>
      </trkpt>
      <trkpt lat="42.928502" lon="-9.238527">
        <ele>56.631</ele>
        <time>2019-06-22T08:30:42Z</time>
      </trkpt>
      <trkpt lat="42.928507" lon="-9.238423">
        <ele>56.716</ele>
        <time>2019-06-22T08:30:43Z</time>
      </trkpt>
      <trkpt lat="42.928519" lon="-9.238307">
        <ele>56.849</ele>
        <time>2019-06-22T08:30:44Z</time>
      </trkpt>
      <trkpt lat="42.928541" lon="-9.238173">
        <ele>57.036</ele>
        <time>2019-06-22T08:30:45Z</time>
      </trkpt>
      <trkpt lat="42.928588" lon="-9.238049">
        <ele>57.217</ele>
        <time>2019-06-22T08:30:46Z</time>
      </trkpt>
      <trkpt lat="42.928651" lon="-9.237932">
        <ele>57.518</ele>
        <time>2019-06-22T08:30:47Z</time>
      </trkpt>
      <trkpt lat="42.928718" lon="-9.237843">
        <ele>57.708</ele>
        <time>2019-06-22T08:30:48Z</time>
      </trkpt>
      <trkpt lat="42.928808" lon="-9.237755">
        <ele>58.056</ele>
        <time>2019-06-22T08:30:49Z</time>
      </trkpt>
      <trkpt lat="42.928907" lon="-9.237662">
        <ele>58.470</ele>
        <time>2019-06-22T08:30:50Z</time>
      </trkpt>
      <trkpt lat="42.929030" lon="-9.237546">
        <ele>59.062</ele>
        <time>2019-06-22T08:30:51Z</time>
      </trkpt>
      <trkpt lat="42.929157" lon="-9.237418">
        <ele>59.664</ele>
        <time>2019-06-22T08:30:52Z</time>
      </trkpt>
      <trkpt lat="42.929285" lon="-9.237298">
        <ele>60.522</ele>
        <time>2019-06-22T08:30:53Z</time>
      </trkpt>
      <trkpt lat="42.929422" lon="-9.237178">
        <ele>61.431</ele>
        <time>2019-06-22T08:30:54Z</time>
      </trkpt>
      <trkpt lat="42.929557" lon="-9.237036">
        <ele>62.216</ele>
        <time>2019-06-22T08:30:55Z</time>
      </trkpt>
      <trkpt lat="42.929700" lon="-9.236898">
        <ele>63.089</ele>
        <time>2019-06-22T08:30:56Z</time>
      </trkpt>
      <trkpt lat="42.929853" lon="-9.236762">
        <ele>63.426</ele>
        <time>2019-06-22T08:30:57Z</time>
      </trkpt>
      <trkpt lat="42.930010" lon="-9.236614">
        <ele>63.447</ele>
        <time>2019-06-22T08:30:58Z</time>
      </trkpt>
      <trkpt lat="42.930156" lon="-9.236467">
        <ele>63.411</ele>
        <time>2019-06-22T08:30:59Z</time>
      </trkpt>
      <trkpt lat="42.930306" lon="-9.236299">
        <ele>62.808</ele>
        <time>2019-06-22T08:31:00Z</time>
      </trkpt>
      <trkpt lat="42.930451" lon="-9.236137">
        <ele>61.465</ele>
        <time>2019-06-22T08:31:01Z</time>
      </trkpt>
      <trkpt lat="42.930596" lon="-9.235984">
        <ele>60.069</ele>
        <time>2019-06-22T08:31:02Z</time>
      </trkpt>
      <trkpt lat="42.930748" lon="-9.235855">
        <ele>59.691</ele>
        <time>2019-06-22T08:31:03Z</time>
      </trkpt>
      <trkpt lat="42.930908" lon="-9.235746">
        <ele>59.523</ele>
        <time>2019-06-22T08:31:04Z</time>
      </trkpt>
      <trkpt lat="42.931076" lon="-9.235683">
        <ele>59.521</ele>
        <time>2019-06-22T08:31:05Z</time>
      </trkpt>
      <trkpt lat="42.931251" lon="-9.235632">
        <ele>60.250</ele>
        <time>2019-06-22T08:31:06Z</time>
      </trkpt>
      <trkpt lat="42.931440" lon="-9.235612">
        <ele>60.765</ele>
        <time>2019-06-22T08:31:07Z</time>
      </trkpt>
      <trkpt lat="42.931630" lon="-9.235610">
        <ele>60.778</ele>
        <time>2019-06-22T08:31:08Z</time>
      </trkpt>
      <trkpt lat="42.931822" lon="-9.235634">
        <ele>60.575</ele>
        <time>2019-06-22T08:31:09Z</time>
      </trkpt>
      <trkpt lat="42.932009" lon="-9.235667">
        <ele>59.728</ele>
        <time>2019-06-22T08:31:10Z</time>
      </trkpt>
      <trkpt lat="42.932194" lon="-9.235748">
        <ele>58.720</ele>
        <time>2019-06-22T08:31:11Z</time>
      </trkpt>
      <trkpt lat="42.932371" lon="-9.235829">
        <ele>57.608</ele>
        <time>2019-06-22T08:31:12Z</time>
      </trkpt>
      <trkpt lat="42.932548" lon="-9.235911">
        <ele>56.750</ele>
        <time>2019-06-22T08:31:13Z</time>
      </trkpt>
      <trkpt lat="42.932732" lon="-9.235972">
        <ele>55.854</ele>
        <time>2019-06-22T08:31:14Z</time>
      </trkpt>
      <trkpt lat="42.932914" lon="-9.236020">
        <ele>54.836</ele>
        <time>2019-06-22T08:31:15Z</time>
      </trkpt>
      <trkpt lat="42.933103" lon="-9.236011">
        <ele>54.098</ele>
        <time>2019-06-22T08:31:16Z</time>
      </trkpt>
      <trkpt lat="42.933279" lon="-9.235986">
        <ele>52.686</ele>
        <time>2019-06-22T08:31:17Z</time>
      </trkpt>
      <trkpt lat="42.933458" lon="-9.235960">
        <ele>51.985</ele>
        <time>2019-06-22T08:31:18Z</time>
      </trkpt>
      <trkpt lat="42.933631" lon="-9.235887">
        <ele>50.890</ele>
        <time>2019-06-22T08:31:19Z</time>
      </trkpt>
      <trkpt lat="42.933800" lon="-9.235836">
        <ele>50.513</ele>
        <time>2019-06-22T08:31:20Z</time>
      </trkpt>
      <trkpt lat="42.933947" lon="-9.235797">
        <ele>50.461</ele>
        <time>2019-06-22T08:31:21Z</time>
      </trkpt>
      <trkpt lat="42.934110" lon="-9.235757">
        <ele>50.321</ele>
        <time>2019-06-22T08:31:22Z</time>
      </trkpt>
      <trkpt lat="42.934281" lon="-9.235726">
        <ele>50.213</ele>
        <time>2019-06-22T08:31:23Z</time>
      </trkpt>
      <trkpt lat="42.934441" lon="-9.235706">
        <ele>49.808</ele>
        <time>2019-06-22T08:31:24Z</time>
      </trkpt>
      <trkpt lat="42.934608" lon="-9.235694">
        <ele>49.459</ele>
        <time>2019-06-22T08:31:25Z</time>
      </trkpt>
      <trkpt lat="42.934782" lon="-9.235694">
        <ele>48.533</ele>
        <time>2019-06-22T08:31:26Z</time>
      </trkpt>
      <trkpt lat="42.934939" lon="-9.235705">
        <ele>47.825</ele>
        <time>2019-06-22T08:31:27Z</time>
      </trkpt>
      <trkpt lat="42.935099" lon="-9.235709">
        <ele>47.197</ele>
        <time>2019-06-22T08:31:28Z</time>
      </trkpt>
      <trkpt lat="42.935278" lon="-9.235742">
        <ele>46.215</ele>
        <time>2019-06-22T08:31:29Z</time>
      </trkpt>
      <trkpt lat="42.935455" lon="-9.235775">
        <ele>45.474</ele>
        <time>2019-06-22T08:31:30Z</time>
      </trkpt>
      <trkpt lat="42.935644" lon="-9.235843">
        <ele>44.199</ele>
        <time>2019-06-22T08:31:31Z</time>
      </trkpt>
      <trkpt lat="42.935817" lon="-9.235909">
        <ele>43.092</ele>
        <time>2019-06-22T08:31:32Z</time>
      </trkpt>
      <trkpt lat="42.935990" lon="-9.235979">
        <ele>42.134</ele>
        <time>2019-06-22T08:31:33Z</time>
      </trkpt>
      <trkpt lat="42.936165" lon="-9.236052">
        <ele>41.155</ele>
        <time>2019-06-22T08:31:34Z</time>
      </trkpt>
      <trkpt lat="42.936336" lon="-9.236131">
        <ele>40.010</ele>
        <time>2019-06-22T08:31:35Z</time>
      </trkpt>
      <trkpt lat="42.936504" lon="-9.236225">
        <ele>39.308</ele>
        <time>2019-06-22T08:31:36Z</time>
      </trkpt>
      <trkpt lat="42.936646" lon="-9.236318">
        <ele>38.926</ele>
        <time>2019-06-22T08:31:37Z</time>
      </trkpt>
      <trkpt lat="42.936788" lon="-9.236402">
        <ele>37.660</ele>
        <time>2019-06-22T08:31:38Z</time>
      </trkpt>
      <trkpt lat="42.936921" lon="-9.236484">
        <ele>36.522</ele>
        <time>2019-06-22T08:31:39Z</time>
      </trkpt>
      <trkpt lat="42.937062" lon="-9.236563">
        <ele>36.514</ele>
        <time>2019-06-22T08:31:40Z</time>
      </trkpt>
      <trkpt lat="42.937205" lon="-9.236642">
        <ele>35.532</ele>
        <time>2019-06-22T08:31:41Z</time>
      </trkpt>
      <trkpt lat="42.937329" lon="-9.236717">
        <ele>34.181</ele>
        <time>2019-06-22T08:31:42Z</time>
      </trkpt>
      <trkpt lat="42.937465" lon="-9.236786">
        <ele>32.926</ele>
        <time>2019-06-22T08:31:43Z</time>
      </trkpt>
      <trkpt lat="42.937600" lon="-9.236834">
        <ele>32.149</ele>
        <time>2019-06-22T08:31:44Z</time>
      </trkpt>
      <trkpt lat="42.937737" lon="-9.236856">
        <ele>31.063</ele>
        <time>2019-06-22T08:31:45Z</time>
      </trkpt>
      <trkpt lat="42.937871" lon="-9.236850">
        <ele>30.044</ele>
        <time>2019-06-22T08:31:46Z</time>
      </trkpt>
      <trkpt lat="42.938013" lon="-9.236806">
        <ele>29.318</ele>
        <time>2019-06-22T08:31:47Z</time>
      </trkpt>
      <trkpt lat="42.938100" lon="-9.236758">
        <ele>28.808</ele>
        <time>2019-06-22T08:31:48Z</time>
      </trkpt>
      <trkpt lat="42.938244" lon="-9.236690">
        <ele>28.229</ele>
        <time>2019-06-22T08:31:49Z</time>
      </trkpt>
      <trkpt lat="42.938355" lon="-9.236616">
        <ele>27.523</ele>
        <time>2019-06-22T08:31:50Z</time>
      </trkpt>
      <trkpt lat="42.938479" lon="-9.236529">
        <ele>27.295</ele>
        <time>2019-06-22T08:31:51Z</time>
      </trkpt>
      <trkpt lat="42.938597" lon="-9.236450">
        <ele>26.647</ele>
        <time>2019-06-22T08:31:52Z</time>
      </trkpt>
      <trkpt lat="42.938730" lon="-9.236373">
        <ele>26.225</ele>
        <time>2019-06-22T08:31:53Z</time>
      </trkpt>
      <trkpt lat="42.938856" lon="-9.236308">
        <ele>25.514</ele>
        <time>2019-06-22T08:31:54Z</time>
      </trkpt>
      <trkpt lat="42.938980" lon="-9.236252">
        <ele>25.189</ele>
        <time>2019-06-22T08:31:55Z</time>
      </trkpt>
      <trkpt lat="42.939103" lon="-9.236177">
        <ele>24.332</ele>
        <time>2019-06-22T08:31:56Z</time>
      </trkpt>
      <trkpt lat="42.939224" lon="-9.236078">
        <ele>23.795</ele>
        <time>2019-06-22T08:31:57Z</time>
      </trkpt>
      <trkpt lat="42.939337" lon="-9.235974">
        <ele>23.149</ele>
        <time>2019-06-22T08:31:58Z</time>
      </trkpt>
      <trkpt lat="42.939438" lon="-9.235853">
        <ele>22.423</ele>
        <time>2019-06-22T08:31:59Z</time>
      </trkpt>
      <trkpt lat="42.939532" lon="-9.235731">
        <ele>21.108</ele>
        <time>2019-06-22T08:32:00Z</time>
      </trkpt>
      <trkpt lat="42.939611" lon="-9.235615">
        <ele>21.172</ele>
        <time>2019-06-22T08:32:01Z</time>
      </trkpt>
      <trkpt lat="42.939688" lon="-9.235498">
        <ele>20.426</ele>
        <time>2019-06-22T08:32:02Z</time>
      </trkpt>
      <trkpt lat="42.939757" lon="-9.235418">
        <ele>19.728</ele>
        <time>2019-06-22T08:32:03Z</time>
      </trkpt>
      <trkpt lat="42.939840" lon="-9.235324">
        <ele>19.160</ele>
        <time>2019-06-22T08:32:04Z</time>
      </trkpt>
      <trkpt lat="42.939927" lon="-9.235252">
        <ele>18.658</ele>
        <time>2019-06-22T08:32:05Z</time>
      </trkpt>
      <trkpt lat="42.940016" lon="-9.235189">
        <ele>18.287</ele>
        <time>2019-06-22T08:32:06Z</time>
      </trkpt>
      <trkpt lat="42.940113" lon="-9.235157">
        <ele>17.922</ele>
        <time>2019-06-22T08:32:07Z</time>
      </trkpt>
      <trkpt lat="42.940215" lon="-9.235150">
        <ele>17.645</ele>
        <time>2019-06-22T08:32:08Z</time>
      </trkpt>
      <trkpt lat="42.940322" lon="-9.235158">
        <ele>17.275</ele>
        <time>2019-06-22T08:32:09Z</time>
      </trkpt>
      <trkpt lat="42.940416" lon="-9.235169">
        <ele>16.728</ele>
        <time>2019-06-22T08:32:10Z</time>
      </trkpt>
      <trkpt lat="42.940536" lon="-9.235190">
        <ele>16.120</ele>
        <time>2019-06-22T08:32:11Z</time>
      </trkpt>
      <trkpt lat="42.940665" lon="-9.235214">
        <ele>15.208</ele>
        <time>2019-06-22T08:32:12Z</time>
      </trkpt>
      <trkpt lat="42.940788" lon="-9.235223">
        <ele>13.810</ele>
        <time>2019-06-22T08:32:13Z</time>
      </trkpt>
      <trkpt lat="42.940910" lon="-9.235216">
        <ele>12.684</ele>
        <time>2019-06-22T08:32:14Z</time>
      </trkpt>
      <trkpt lat="42.941033" lon="-9.235201">
        <ele>11.596</ele>
        <time>2019-06-22T08:32:15Z</time>
      </trkpt>
      <trkpt lat="42.941151" lon="-9.235189">
        <ele>10.768</ele>
        <time>2019-06-22T08:32:16Z</time>
      </trkpt>
      <trkpt lat="42.941261" lon="-9.235145">
        <ele>10.296</ele>
        <time>2019-06-22T08:32:17Z</time>
      </trkpt>
      <trkpt lat="42.941357" lon="-9.235085">
        <ele>10.035</ele>
        <time>2019-06-22T08:32:18Z</time>
      </trkpt>
      <trkpt lat="42.941440" lon="-9.235015">
        <ele>10.070</ele>
        <time>2019-06-22T08:32:19Z</time>
      </trkpt>
      <trkpt lat="42.941515" lon="-9.234924">
        <ele>10.043</ele>
        <time>2019-06-22T08:32:20Z</time>
      </trkpt>
      <trkpt lat="42.941601" lon="-9.234827">
        <ele>10.115</ele>
        <time>2019-06-22T08:32:21Z</time>
      </trkpt>
      <trkpt lat="42.941679" lon="-9.234709">
        <ele>10.365</ele>
        <time>2019-06-22T08:32:22Z</time>
      </trkpt>
      <trkpt lat="42.941762" lon="-9.234584">
        <ele>10.611</ele>
        <time>2019-06-22T08:32:23Z</time>
      </trkpt>
      <trkpt lat="42.941852" lon="-9.234458">
        <ele>10.708</ele>
        <time>2019-06-22T08:32:24Z</time>
      </trkpt>
      <trkpt lat="42.941940" lon="-9.234326">
        <ele>10.744</ele>
        <time>2019-06-22T08:32:25Z</time>
      </trkpt>
      <trkpt lat="42.942028" lon="-9.234195">
        <ele>10.328</ele>
        <time>2019-06-22T08:32:26Z</time>
      </trkpt>
      <trkpt lat="42.942141" lon="-9.234072">
        <ele>10.070</ele>
        <time>2019-06-22T08:32:27Z</time>
      </trkpt>
      <trkpt lat="42.942246" lon="-9.233932">
        <ele>9.552</ele>
        <time>2019-06-22T08:32:28Z</time>
      </trkpt>
      <trkpt lat="42.942337" lon="-9.233793">
        <ele>9.280</ele>
        <time>2019-06-22T08:32:29Z</time>
      </trkpt>
      <trkpt lat="42.942428" lon="-9.233660">
        <ele>8.849</ele>
        <time>2019-06-22T08:32:30Z</time>
      </trkpt>
      <trkpt lat="42.942507" lon="-9.233511">
        <ele>8.644</ele>
        <time>2019-06-22T08:32:31Z</time>
      </trkpt>
      <trkpt lat="42.942594" lon="-9.233372">
        <ele>8.477</ele>
        <time>2019-06-22T08:32:32Z</time>
      </trkpt>
      <trkpt lat="42.942686" lon="-9.233233">
        <ele>8.217</ele>
        <time>2019-06-22T08:32:33Z</time>
      </trkpt>
      <trkpt lat="42.942790" lon="-9.233094">
        <ele>7.887</ele>
        <time>2019-06-22T08:32:34Z</time>
      </trkpt>
      <trkpt lat="42.942882" lon="-9.232934">
        <ele>7.115</ele>
        <time>2019-06-22T08:32:35Z</time>
      </trkpt>
      <trkpt lat="42.942967" lon="-9.232741">
        <ele>5.908</ele>
        <time>2019-06-22T08:32:36Z</time>
      </trkpt>
      <trkpt lat="42.943023" lon="-9.232560">
        <ele>4.954</ele>
        <time>2019-06-22T08:32:37Z</time>
      </trkpt>
      <trkpt lat="42.943056" lon="-9.232375">
        <ele>3.848</ele>
        <time>2019-06-22T08:32:38Z</time>
      </trkpt>
      <trkpt lat="42.943106" lon="-9.232168">
        <ele>3.150</ele>
        <time>2019-06-22T08:32:39Z</time>
      </trkpt>
      <trkpt lat="42.943140" lon="-9.231953">
        <ele>3.142</ele>
        <time>2019-06-22T08:32:40Z</time>
      </trkpt>
      <trkpt lat="42.943177" lon="-9.231747">
        <ele>2.910</ele>
        <time>2019-06-22T08:32:41Z</time>
      </trkpt>
      <trkpt lat="42.943207" lon="-9.231557">
        <ele>3.069</ele>
        <time>2019-06-22T08:32:42Z</time>
      </trkpt>
      <trkpt lat="42.943231" lon="-9.231355">
        <ele>3.034</ele>
        <time>2019-06-22T08:32:43Z</time>
      </trkpt>
      <trkpt lat="42.943271" lon="-9.231168">
        <ele>3.047</ele>
        <time>2019-06-22T08:32:44Z</time>
      </trkpt>
      <trkpt lat="42.943301" lon="-9.230974">
        <ele>3.472</ele>
        <time>2019-06-22T08:32:45Z</time>
      </trkpt>
      <trkpt lat="42.943334" lon="-9.230772">
        <ele>3.413</ele>
        <time>2019-06-22T08:32:46Z</time>
      </trkpt>
      <trkpt lat="42.943358" lon="-9.230575">
        <ele>3.414</ele>
        <time>2019-06-22T08:32:47Z</time>
      </trkpt>
      <trkpt lat="42.943351" lon="-9.230418">
        <ele>4.308</ele>
        <time>2019-06-22T08:32:48Z</time>
      </trkpt>
      <trkpt lat="42.943335" lon="-9.230243">
        <ele>5.060</ele>
        <time>2019-06-22T08:32:49Z</time>
      </trkpt>
      <trkpt lat="42.943312" lon="-9.230079">
        <ele>5.864</ele>
        <time>2019-06-22T08:32:50Z</time>
      </trkpt>
      <trkpt lat="42.943268" lon="-9.229909">
        <ele>6.776</ele>
        <time>2019-06-22T08:32:51Z</time>
      </trkpt>
      <trkpt lat="42.943216" lon="-9.229736">
        <ele>7.638</ele>
        <time>2019-06-22T08:32:52Z</time>
      </trkpt>
      <trkpt lat="42.943160" lon="-9.229575">
        <ele>8.546</ele>
        <time>2019-06-22T08:32:53Z</time>
      </trkpt>
      <trkpt lat="42.943109" lon="-9.229405">
        <ele>9.355</ele>
        <time>2019-06-22T08:32:54Z</time>
      </trkpt>
      <trkpt lat="42.943059" lon="-9.229231">
        <ele>10.370</ele>
        <time>2019-06-22T08:32:55Z</time>
      </trkpt>
      <trkpt lat="42.943017" lon="-9.229052">
        <ele>11.233</ele>
        <time>2019-06-22T08:32:56Z</time>
      </trkpt>
      <trkpt lat="42.943017" lon="-9.228799">
        <ele>12.868</ele>
        <time>2019-06-22T08:32:57Z</time>
      </trkpt>
      <trkpt lat="42.943004" lon="-9.228576">
        <ele>14.342</ele>
        <time>2019-06-22T08:32:58Z</time>
      </trkpt>
      <trkpt lat="42.942976" lon="-9.228325">
        <ele>15.426</ele>
        <time>2019-06-22T08:32:59Z</time>
      </trkpt>
      <trkpt lat="42.942952" lon="-9.228082">
        <ele>15.808</ele>
        <time>2019-06-22T08:33:00Z</time>
      </trkpt>
      <trkpt lat="42.942947" lon="-9.227808">
        <ele>16.199</ele>
        <time>2019-06-22T08:33:01Z</time>
      </trkpt>
      <trkpt lat="42.942939" lon="-9.227549">
        <ele>16.793</ele>
        <time>2019-06-22T08:33:02Z</time>
      </trkpt>
      <trkpt lat="42.942991" lon="-9.227267">
        <ele>17.345</ele>
        <time>2019-06-22T08:33:03Z</time>
      </trkpt>
      <trkpt lat="42.943026" lon="-9.227016">
        <ele>17.817</ele>
        <time>2019-06-22T08:33:04Z</time>
      </trkpt>
      <trkpt lat="42.943063" lon="-9.226771">
        <ele>19.025</ele>
        <time>2019-06-22T08:33:05Z</time>
      </trkpt>
      <trkpt lat="42.943102" lon="-9.226522">
        <ele>20.074</ele>
        <time>2019-06-22T08:33:06Z</time>
      </trkpt>
      <trkpt lat="42.943148" lon="-9.226285">
        <ele>20.989</ele>
        <time>2019-06-22T08:33:07Z</time>
      </trkpt>
      <trkpt lat="42.943193" lon="-9.226050">
        <ele>21.542</ele>
        <time>2019-06-22T08:33:08Z</time>
      </trkpt>
      <trkpt lat="42.943244" lon="-9.225821">
        <ele>22.593</ele>
        <time>2019-06-22T08:33:09Z</time>
      </trkpt>
      <trkpt lat="42.943299" lon="-9.225605">
        <ele>23.465</ele>
        <time>2019-06-22T08:33:10Z</time>
      </trkpt>
      <trkpt lat="42.943368" lon="-9.225424">
        <ele>24.621</ele>
        <time>2019-06-22T08:33:11Z</time>
      </trkpt>
      <trkpt lat="42.943445" lon="-9.225254">
        <ele>25.408</ele>
        <time>2019-06-22T08:33:12Z</time>
      </trkpt>
      <trkpt lat="42.943517" lon="-9.225092">
        <ele>26.492</ele>
        <time>2019-06-22T08:33:13Z</time>
      </trkpt>
      <trkpt lat="42.943589" lon="-9.224956">
        <ele>27.086</ele>
        <time>2019-06-22T08:33:14Z</time>
      </trkpt>
      <trkpt lat="42.943658" lon="-9.224811">
        <ele>27.338</ele>
        <time>2019-06-22T08:33:15Z</time>
      </trkpt>
      <trkpt lat="42.943695" lon="-9.224696">
        <ele>27.690</ele>
        <time>2019-06-22T08:33:16Z</time>
      </trkpt>
      <trkpt lat="42.943739" lon="-9.224582">
        <ele>27.668</ele>
        <time>2019-06-22T08:33:17Z</time>
      </trkpt>
      <trkpt lat="42.943787" lon="-9.224482">
        <ele>27.667</ele>
        <time>2019-06-22T08:33:18Z</time>
      </trkpt>
      <trkpt lat="42.943842" lon="-9.224414">
        <ele>27.632</ele>
        <time>2019-06-22T08:33:19Z</time>
      </trkpt>
      <trkpt lat="42.943903" lon="-9.224345">
        <ele>27.525</ele>
        <time>2019-06-22T08:33:20Z</time>
      </trkpt>
      <trkpt lat="42.943984" lon="-9.224339">
        <ele>27.557</ele>
        <time>2019-06-22T08:33:21Z</time>
      </trkpt>
      <trkpt lat="42.944056" lon="-9.224359">
        <ele>27.500</ele>
        <time>2019-06-22T08:33:22Z</time>
      </trkpt>
      <trkpt lat="42.944142" lon="-9.224448">
        <ele>27.220</ele>
        <time>2019-06-22T08:33:23Z</time>
      </trkpt>
      <trkpt lat="42.944220" lon="-9.224499">
        <ele>26.808</ele>
        <time>2019-06-22T08:33:24Z</time>
      </trkpt>
      <trkpt lat="42.944324" lon="-9.224546">
        <ele>26.338</ele>
        <time>2019-06-22T08:33:25Z</time>
      </trkpt>
      <trkpt lat="42.944452" lon="-9.224545">
        <ele>26.262</ele>
        <time>2019-06-22T08:33:26Z</time>
      </trkpt>
      <trkpt lat="42.944566" lon="-9.224529">
        <ele>26.294</ele>
        <time>2019-06-22T08:33:27Z</time>
      </trkpt>
      <trkpt lat="42.944681" lon="-9.224473">
        <ele>26.396</ele>
        <time>2019-06-22T08:33:28Z</time>
      </trkpt>
      <trkpt lat="42.944816" lon="-9.224353">
        <ele>26.714</ele>
        <time>2019-06-22T08:33:29Z</time>
      </trkpt>
      <trkpt lat="42.944941" lon="-9.224241">
        <ele>27.713</ele>
        <time>2019-06-22T08:33:30Z</time>
      </trkpt>
      <trkpt lat="42.945080" lon="-9.224116">
        <ele>28.798</ele>
        <time>2019-06-22T08:33:32Z</time>
      </trkpt>
      <trkpt lat="42.945226" lon="-9.223989">
        <ele>29.691</ele>
        <time>2019-06-22T08:33:33Z</time>
      </trkpt>
      <trkpt lat="42.945382" lon="-9.223851">
        <ele>30.378</ele>
        <time>2019-06-22T08:33:34Z</time>
      </trkpt>
      <trkpt lat="42.945536" lon="-9.223706">
        <ele>30.833</ele>
        <time>2019-06-22T08:33:35Z</time>
      </trkpt>
      <trkpt lat="42.945695" lon="-9.223556">
        <ele>31.226</ele>
        <time>2019-06-22T08:33:36Z</time>
      </trkpt>
      <trkpt lat="42.945862" lon="-9.223402">
        <ele>31.708</ele>
        <time>2019-06-22T08:33:37Z</time>
      </trkpt>
      <trkpt lat="42.946032" lon="-9.223248">
        <ele>32.310</ele>
        <time>2019-06-22T08:33:38Z</time>
      </trkpt>
      <trkpt lat="42.946206" lon="-9.223084">
        <ele>33.494</ele>
        <time>2019-06-22T08:33:39Z</time>
      </trkpt>
      <trkpt lat="42.946372" lon="-9.222910">
        <ele>34.626</ele>
        <time>2019-06-22T08:33:40Z</time>
      </trkpt>
      <trkpt lat="42.946537" lon="-9.222725">
        <ele>36.148</ele>
        <time>2019-06-22T08:33:41Z</time>
      </trkpt>
      <trkpt lat="42.946686" lon="-9.222531">
        <ele>37.346</ele>
        <time>2019-06-22T08:33:42Z</time>
      </trkpt>
      <trkpt lat="42.946838" lon="-9.222332">
        <ele>37.395</ele>
        <time>2019-06-22T08:33:43Z</time>
      </trkpt>
      <trkpt lat="42.946975" lon="-9.222128">
        <ele>38.740</ele>
        <time>2019-06-22T08:33:44Z</time>
      </trkpt>
      <trkpt lat="42.947123" lon="-9.221918">
        <ele>39.663</ele>
        <time>2019-06-22T08:33:45Z</time>
      </trkpt>
      <trkpt lat="42.947273" lon="-9.221705">
        <ele>41.037</ele>
        <time>2019-06-22T08:33:46Z</time>
      </trkpt>
      <trkpt lat="42.947423" lon="-9.221488">
        <ele>41.749</ele>
        <time>2019-06-22T08:33:47Z</time>
      </trkpt>
      <trkpt lat="42.947569" lon="-9.221274">
        <ele>43.113</ele>
        <time>2019-06-22T08:33:48Z</time>
      </trkpt>
      <trkpt lat="42.947716" lon="-9.221056">
        <ele>44.508</ele>
        <time>2019-06-22T08:33:49Z</time>
      </trkpt>
      <trkpt lat="42.947893" lon="-9.220829">
        <ele>46.476</ele>
        <time>2019-06-22T08:33:50Z</time>
      </trkpt>
      <trkpt lat="42.948063" lon="-9.220613">
        <ele>47.990</ele>
        <time>2019-06-22T08:33:51Z</time>
      </trkpt>
      <trkpt lat="42.948218" lon="-9.220384">
        <ele>49.752</ele>
        <time>2019-06-22T08:33:52Z</time>
      </trkpt>
      <trkpt lat="42.948371" lon="-9.220167">
        <ele>51.634</ele>
        <time>2019-06-22T08:33:53Z</time>
      </trkpt>
      <trkpt lat="42.948525" lon="-9.219943">
        <ele>53.162</ele>
        <time>2019-06-22T08:33:54Z</time>
      </trkpt>
      <trkpt lat="42.948683" lon="-9.219720">
        <ele>54.521</ele>
        <time>2019-06-22T08:33:55Z</time>
      </trkpt>
      <trkpt lat="42.948834" lon="-9.219487">
        <ele>56.126</ele>
        <time>2019-06-22T08:33:56Z</time>
      </trkpt>
      <trkpt lat="42.948996" lon="-9.219246">
        <ele>57.529</ele>
        <time>2019-06-22T08:33:57Z</time>
      </trkpt>
      <trkpt lat="42.949153" lon="-9.219020">
        <ele>58.387</ele>
        <time>2019-06-22T08:33:58Z</time>
      </trkpt>
      <trkpt lat="42.949313" lon="-9.218785">
        <ele>59.742</ele>
        <time>2019-06-22T08:33:59Z</time>
      </trkpt>
      <trkpt lat="42.949484" lon="-9.218549">
        <ele>61.426</ele>
        <time>2019-06-22T08:34:00Z</time>
      </trkpt>
      <trkpt lat="42.949640" lon="-9.218287">
        <ele>63.008</ele>
        <time>2019-06-22T08:34:01Z</time>
      </trkpt>
      <trkpt lat="42.949827" lon="-9.218028">
        <ele>64.441</ele>
        <time>2019-06-22T08:34:02Z</time>
      </trkpt>
      <trkpt lat="42.950013" lon="-9.217764">
        <ele>65.215</ele>
        <time>2019-06-22T08:34:03Z</time>
      </trkpt>
      <trkpt lat="42.950195" lon="-9.217494">
        <ele>66.117</ele>
        <time>2019-06-22T08:34:04Z</time>
      </trkpt>
      <trkpt lat="42.950378" lon="-9.217243">
        <ele>66.119</ele>
        <time>2019-06-22T08:34:05Z</time>
      </trkpt>
      <trkpt lat="42.950550" lon="-9.216988">
        <ele>66.177</ele>
        <time>2019-06-22T08:34:06Z</time>
      </trkpt>
      <trkpt lat="42.950725" lon="-9.216737">
        <ele>66.996</ele>
        <time>2019-06-22T08:34:07Z</time>
      </trkpt>
      <trkpt lat="42.950895" lon="-9.216493">
        <ele>67.711</ele>
        <time>2019-06-22T08:34:08Z</time>
      </trkpt>
      <trkpt lat="42.951062" lon="-9.216238">
        <ele>68.414</ele>
        <time>2019-06-22T08:34:09Z</time>
      </trkpt>
      <trkpt lat="42.951232" lon="-9.215987">
        <ele>69.875</ele>
        <time>2019-06-22T08:34:10Z</time>
      </trkpt>
      <trkpt lat="42.951402" lon="-9.215735">
        <ele>72.028</ele>
        <time>2019-06-22T08:34:11Z</time>
      </trkpt>
      <trkpt lat="42.951572" lon="-9.215488">
        <ele>73.020</ele>
        <time>2019-06-22T08:34:12Z</time>
      </trkpt>
      <trkpt lat="42.951743" lon="-9.215240">
        <ele>74.508</ele>
        <time>2019-06-22T08:34:13Z</time>
      </trkpt>
      <trkpt lat="42.951913" lon="-9.214998">
        <ele>75.630</ele>
        <time>2019-06-22T08:34:14Z</time>
      </trkpt>
      <trkpt lat="42.952080" lon="-9.214753">
        <ele>77.254</ele>
        <time>2019-06-22T08:34:15Z</time>
      </trkpt>
      <trkpt lat="42.952256" lon="-9.214536">
        <ele>79.036</ele>
        <time>2019-06-22T08:34:16Z</time>
      </trkpt>
      <trkpt lat="42.952427" lon="-9.214296">
        <ele>80.218</ele>
        <time>2019-06-22T08:34:17Z</time>
      </trkpt>
      <trkpt lat="42.952596" lon="-9.214047">
        <ele>82.356</ele>
        <time>2019-06-22T08:34:18Z</time>
      </trkpt>
      <trkpt lat="42.952766" lon="-9.213807">
        <ele>84.655</ele>
        <time>2019-06-22T08:34:19Z</time>
      </trkpt>
      <trkpt lat="42.952933" lon="-9.213572">
        <ele>86.980</ele>
        <time>2019-06-22T08:34:20Z</time>
      </trkpt>
      <trkpt lat="42.953114" lon="-9.213332">
        <ele>88.593</ele>
        <time>2019-06-22T08:34:21Z</time>
      </trkpt>
      <trkpt lat="42.953292" lon="-9.213096">
        <ele>89.958</ele>
        <time>2019-06-22T08:34:22Z</time>
      </trkpt>
      <trkpt lat="42.953467" lon="-9.212850">
        <ele>91.152</ele>
        <time>2019-06-22T08:34:23Z</time>
      </trkpt>
      <trkpt lat="42.953651" lon="-9.212641">
        <ele>92.617</ele>
        <time>2019-06-22T08:34:24Z</time>
      </trkpt>
      <trkpt lat="42.953841" lon="-9.212432">
        <ele>94.108</ele>
        <time>2019-06-22T08:34:25Z</time>
      </trkpt>
      <trkpt lat="42.954041" lon="-9.212206">
        <ele>94.998</ele>
        <time>2019-06-22T08:34:26Z</time>
      </trkpt>
      <trkpt lat="42.954245" lon="-9.212013">
        <ele>96.562</ele>
        <time>2019-06-22T08:34:27Z</time>
      </trkpt>
      <trkpt lat="42.954450" lon="-9.211836">
        <ele>98.854</ele>
        <time>2019-06-22T08:34:28Z</time>
      </trkpt>
      <trkpt lat="42.954660" lon="-9.211653">
        <ele>101.076</ele>
        <time>2019-06-22T08:34:29Z</time>
      </trkpt>
      <trkpt lat="42.954878" lon="-9.211487">
        <ele>102.264</ele>
        <time>2019-06-22T08:34:30Z</time>
      </trkpt>
      <trkpt lat="42.955100" lon="-9.211335">
        <ele>104.463</ele>
        <time>2019-06-22T08:34:31Z</time>
      </trkpt>
      <trkpt lat="42.955326" lon="-9.211200">
        <ele>105.448</ele>
        <time>2019-06-22T08:34:32Z</time>
      </trkpt>
      <trkpt lat="42.955555" lon="-9.211063">
        <ele>106.081</ele>
        <time>2019-06-22T08:34:33Z</time>
      </trkpt>
      <trkpt lat="42.955789" lon="-9.210922">
        <ele>106.145</ele>
        <time>2019-06-22T08:34:34Z</time>
      </trkpt>
      <trkpt lat="42.956022" lon="-9.210804">
        <ele>107.247</ele>
        <time>2019-06-22T08:34:35Z</time>
      </trkpt>
      <trkpt lat="42.956261" lon="-9.210689">
        <ele>108.511</ele>
        <time>2019-06-22T08:34:36Z</time>
      </trkpt>
      <trkpt lat="42.956500" lon="-9.210587">
        <ele>110.608</ele>
        <time>2019-06-22T08:34:37Z</time>
      </trkpt>
      <trkpt lat="42.956738" lon="-9.210495">
        <ele>111.957</ele>
        <time>2019-06-22T08:34:38Z</time>
      </trkpt>
      <trkpt lat="42.956983" lon="-9.210419">
        <ele>114.341</ele>
        <time>2019-06-22T08:34:39Z</time>
      </trkpt>
      <trkpt lat="42.957226" lon="-9.210348">
        <ele>116.373</ele>
        <time>2019-06-22T08:34:40Z</time>
      </trkpt>
      <trkpt lat="42.957475" lon="-9.210287">
        <ele>118.285</ele>
        <time>2019-06-22T08:34:41Z</time>
      </trkpt>
      <trkpt lat="42.957719" lon="-9.210216">
        <ele>119.253</ele>
        <time>2019-06-22T08:34:42Z</time>
      </trkpt>
      <trkpt lat="42.957966" lon="-9.210161">
        <ele>120.292</ele>
        <time>2019-06-22T08:34:43Z</time>
      </trkpt>
      <trkpt lat="42.958212" lon="-9.210108">
        <ele>121.987</ele>
        <time>2019-06-22T08:34:44Z</time>
      </trkpt>
      <trkpt lat="42.958458" lon="-9.210050">
        <ele>122.990</ele>
        <time>2019-06-22T08:34:45Z</time>
      </trkpt>
      <trkpt lat="42.958703" lon="-9.209998">
        <ele>122.997</ele>
        <time>2019-06-22T08:34:46Z</time>
      </trkpt>
      <trkpt lat="42.958953" lon="-9.209946">
        <ele>124.023</ele>
        <time>2019-06-22T08:34:47Z</time>
      </trkpt>
      <trkpt lat="42.959200" lon="-9.209889">
        <ele>125.525</ele>
        <time>2019-06-22T08:34:48Z</time>
      </trkpt>
      <trkpt lat="42.959449" lon="-9.209829">
        <ele>127.808</ele>
        <time>2019-06-22T08:34:49Z</time>
      </trkpt>
      <trkpt lat="42.959698" lon="-9.209775">
        <ele>129.792</ele>
        <time>2019-06-22T08:34:50Z</time>
      </trkpt>
      <trkpt lat="42.959932" lon="-9.209716">
        <ele>131.486</ele>
        <time>2019-06-22T08:34:51Z</time>
      </trkpt>
      <trkpt lat="42.960187" lon="-9.209646">
        <ele>133.598</ele>
        <time>2019-06-22T08:34:52Z</time>
      </trkpt>
      <trkpt lat="42.960431" lon="-9.209595">
        <ele>135.270</ele>
        <time>2019-06-22T08:34:53Z</time>
      </trkpt>
      <trkpt lat="42.960684" lon="-9.209538">
        <ele>136.918</ele>
        <time>2019-06-22T08:34:54Z</time>
      </trkpt>
      <trkpt lat="42.960926" lon="-9.209475">
        <ele>138.347</ele>
        <time>2019-06-22T08:34:55Z</time>
      </trkpt>
      <trkpt lat="42.961171" lon="-9.209427">
        <ele>139.832</ele>
        <time>2019-06-22T08:34:56Z</time>
      </trkpt>
      <trkpt lat="42.961421" lon="-9.209377">
        <ele>141.265</ele>
        <time>2019-06-22T08:34:57Z</time>
      </trkpt>
      <trkpt lat="42.961652" lon="-9.209329">
        <ele>142.367</ele>
        <time>2019-06-22T08:34:58Z</time>
      </trkpt>
      <trkpt lat="42.961886" lon="-9.209282">
        <ele>143.381</ele>
        <time>2019-06-22T08:34:59Z</time>
      </trkpt>
      <trkpt lat="42.962116" lon="-9.209231">
        <ele>144.419</ele>
        <time>2019-06-22T08:35:00Z</time>
      </trkpt>
      <trkpt lat="42.962355" lon="-9.209164">
        <ele>144.608</ele>
        <time>2019-06-22T08:35:01Z</time>
      </trkpt>
      <trkpt lat="42.962593" lon="-9.209081">
        <ele>145.299</ele>
        <time>2019-06-22T08:35:02Z</time>
      </trkpt>
      <trkpt lat="42.962830" lon="-9.208986">
        <ele>145.923</ele>
        <time>2019-06-22T08:35:03Z</time>
      </trkpt>
      <trkpt lat="42.963066" lon="-9.208876">
        <ele>146.875</ele>
        <time>2019-06-22T08:35:04Z</time>
      </trkpt>
      <trkpt lat="42.963299" lon="-9.208764">
        <ele>147.687</ele>
        <time>2019-06-22T08:35:05Z</time>
      </trkpt>
      <trkpt lat="42.963526" lon="-9.208639">
        <ele>148.695</ele>
        <time>2019-06-22T08:35:06Z</time>
      </trkpt>
      <trkpt lat="42.963754" lon="-9.208498">
        <ele>149.554</ele>
        <time>2019-06-22T08:35:07Z</time>
      </trkpt>
      <trkpt lat="42.963982" lon="-9.208344">
        <ele>150.289</ele>
        <time>2019-06-22T08:35:08Z</time>
      </trkpt>
      <trkpt lat="42.964205" lon="-9.208171">
        <ele>150.222</ele>
        <time>2019-06-22T08:35:09Z</time>
      </trkpt>
      <trkpt lat="42.964421" lon="-9.207991">
        <ele>149.239</ele>
        <time>2019-06-22T08:35:10Z</time>
      </trkpt>
      <trkpt lat="42.964640" lon="-9.207799">
        <ele>147.601</ele>
        <time>2019-06-22T08:35:11Z</time>
      </trkpt>
      <trkpt lat="42.964853" lon="-9.207594">
        <ele>145.921</ele>
        <time>2019-06-22T08:35:12Z</time>
      </trkpt>
      <trkpt lat="42.965062" lon="-9.207381">
        <ele>143.708</ele>
        <time>2019-06-22T08:35:13Z</time>
      </trkpt>
      <trkpt lat="42.965272" lon="-9.207155">
        <ele>140.586</ele>
        <time>2019-06-22T08:35:14Z</time>
      </trkpt>
      <trkpt lat="42.965479" lon="-9.206907">
        <ele>140.520</ele>
        <time>2019-06-22T08:35:15Z</time>
      </trkpt>
      <trkpt lat="42.965672" lon="-9.206649">
        <ele>141.582</ele>
        <time>2019-06-22T08:35:16Z</time>
      </trkpt>
      <trkpt lat="42.965876" lon="-9.206381">
        <ele>142.894</ele>
        <time>2019-06-22T08:35:17Z</time>
      </trkpt>
      <trkpt lat="42.966079" lon="-9.206111">
        <ele>144.182</ele>
        <time>2019-06-22T08:35:18Z</time>
      </trkpt>
      <trkpt lat="42.966278" lon="-9.205827">
        <ele>146.841</ele>
        <time>2019-06-22T08:35:19Z</time>
      </trkpt>
      <trkpt lat="42.966481" lon="-9.205549">
        <ele>146.886</ele>
        <time>2019-06-22T08:35:20Z</time>
      </trkpt>
      <trkpt lat="42.966695" lon="-9.205265">
        <ele>146.389</ele>
        <time>2019-06-22T08:35:21Z</time>
      </trkpt>
      <trkpt lat="42.966904" lon="-9.204970">
        <ele>144.592</ele>
        <time>2019-06-22T08:35:22Z</time>
      </trkpt>
      <trkpt lat="42.967098" lon="-9.204698">
        <ele>142.273</ele>
        <time>2019-06-22T08:35:23Z</time>
      </trkpt>
      <trkpt lat="42.967300" lon="-9.204399">
        <ele>139.920</ele>
        <time>2019-06-22T08:35:24Z</time>
      </trkpt>
      <trkpt lat="42.967507" lon="-9.204123">
        <ele>137.908</ele>
        <time>2019-06-22T08:35:25Z</time>
      </trkpt>
      <trkpt lat="42.967726" lon="-9.203824">
        <ele>135.582</ele>
        <time>2019-06-22T08:35:26Z</time>
      </trkpt>
      <trkpt lat="42.967945" lon="-9.203528">
        <ele>132.476</ele>
        <time>2019-06-22T08:35:27Z</time>
      </trkpt>
      <trkpt lat="42.968161" lon="-9.203236">
        <ele>130.058</ele>
        <time>2019-06-22T08:35:28Z</time>
      </trkpt>
      <trkpt lat="42.968350" lon="-9.202949">
        <ele>127.430</ele>
        <time>2019-06-22T08:35:29Z</time>
      </trkpt>
      <trkpt lat="42.968549" lon="-9.202669">
        <ele>123.588</ele>
        <time>2019-06-22T08:35:30Z</time>
      </trkpt>
      <trkpt lat="42.968753" lon="-9.202390">
        <ele>120.137</ele>
        <time>2019-06-22T08:35:31Z</time>
      </trkpt>
      <trkpt lat="42.968952" lon="-9.202112">
        <ele>118.122</ele>
        <time>2019-06-22T08:35:32Z</time>
      </trkpt>
      <trkpt lat="42.969151" lon="-9.201833">
        <ele>116.675</ele>
        <time>2019-06-22T08:35:33Z</time>
      </trkpt>
      <trkpt lat="42.969363" lon="-9.201538">
        <ele>116.665</ele>
        <time>2019-06-22T08:35:34Z</time>
      </trkpt>
      <trkpt lat="42.969561" lon="-9.201254">
        <ele>117.368</ele>
        <time>2019-06-22T08:35:35Z</time>
      </trkpt>
      <trkpt lat="42.969758" lon="-9.200970">
        <ele>117.314</ele>
        <time>2019-06-22T08:35:36Z</time>
      </trkpt>
      <trkpt lat="42.969965" lon="-9.200691">
        <ele>116.608</ele>
        <time>2019-06-22T08:35:37Z</time>
      </trkpt>
      <trkpt lat="42.970172" lon="-9.200407">
        <ele>113.229</ele>
        <time>2019-06-22T08:35:38Z</time>
      </trkpt>
      <trkpt lat="42.970378" lon="-9.200126">
        <ele>109.143</ele>
        <time>2019-06-22T08:35:39Z</time>
      </trkpt>
      <trkpt lat="42.970580" lon="-9.199844">
        <ele>105.515</ele>
        <time>2019-06-22T08:35:40Z</time>
      </trkpt>
      <trkpt lat="42.970785" lon="-9.199541">
        <ele>103.657</ele>
        <time>2019-06-22T08:35:41Z</time>
      </trkpt>
      <trkpt lat="42.970994" lon="-9.199251">
        <ele>102.185</ele>
        <time>2019-06-22T08:35:42Z</time>
      </trkpt>
      <trkpt lat="42.971201" lon="-9.198967">
        <ele>102.024</ele>
        <time>2019-06-22T08:35:43Z</time>
      </trkpt>
      <trkpt lat="42.971413" lon="-9.198685">
        <ele>101.829</ele>
        <time>2019-06-22T08:35:44Z</time>
      </trkpt>
      <trkpt lat="42.971620" lon="-9.198392">
        <ele>101.072</ele>
        <time>2019-06-22T08:35:45Z</time>
      </trkpt>
      <trkpt lat="42.971826" lon="-9.198100">
        <ele>101.085</ele>
        <time>2019-06-22T08:35:46Z</time>
      </trkpt>
      <trkpt lat="42.972034" lon="-9.197815">
        <ele>100.289</ele>
        <time>2019-06-22T08:35:47Z</time>
      </trkpt>
      <trkpt lat="42.972246" lon="-9.197525">
        <ele>100.117</ele>
        <time>2019-06-22T08:35:48Z</time>
      </trkpt>
      <trkpt lat="42.972451" lon="-9.197243">
        <ele>99.808</ele>
        <time>2019-06-22T08:35:49Z</time>
      </trkpt>
      <trkpt lat="42.972659" lon="-9.196949">
        <ele>98.981</ele>
        <time>2019-06-22T08:35:50Z</time>
      </trkpt>
      <trkpt lat="42.972868" lon="-9.196654">
        <ele>98.195</ele>
        <time>2019-06-22T08:35:51Z</time>
      </trkpt>
      <trkpt lat="42.973077" lon="-9.196365">
        <ele>96.227</ele>
        <time>2019-06-22T08:35:52Z</time>
      </trkpt>
      <trkpt lat="42.973279" lon="-9.196069">
        <ele>93.829</ele>
        <time>2019-06-22T08:35:53Z</time>
      </trkpt>
      <trkpt lat="42.973483" lon="-9.195792">
        <ele>91.657</ele>
        <time>2019-06-22T08:35:54Z</time>
      </trkpt>
      <trkpt lat="42.973681" lon="-9.195509">
        <ele>89.596</ele>
        <time>2019-06-22T08:35:55Z</time>
      </trkpt>
      <trkpt lat="42.973882" lon="-9.195236">
        <ele>87.951</ele>
        <time>2019-06-22T08:35:56Z</time>
      </trkpt>
      <trkpt lat="42.974083" lon="-9.194967">
        <ele>87.474</ele>
        <time>2019-06-22T08:35:57Z</time>
      </trkpt>
      <trkpt lat="42.974283" lon="-9.194687">
        <ele>85.834</ele>
        <time>2019-06-22T08:35:58Z</time>
      </trkpt>
      <trkpt lat="42.974481" lon="-9.194417">
        <ele>84.355</ele>
        <time>2019-06-22T08:35:59Z</time>
      </trkpt>
      <trkpt lat="42.974678" lon="-9.194151">
        <ele>82.210</ele>
        <time>2019-06-22T08:36:00Z</time>
      </trkpt>
      <trkpt lat="42.974875" lon="-9.193868">
        <ele>81.208</ele>
        <time>2019-06-22T08:36:01Z</time>
      </trkpt>
      <trkpt lat="42.975072" lon="-9.193587">
        <ele>78.466</ele>
        <time>2019-06-22T08:36:02Z</time>
      </trkpt>
      <trkpt lat="42.975263" lon="-9.193303">
        <ele>76.680</ele>
        <time>2019-06-22T08:36:03Z</time>
      </trkpt>
      <trkpt lat="42.975451" lon="-9.193027">
        <ele>76.262</ele>
        <time>2019-06-22T08:36:04Z</time>
      </trkpt>
      <trkpt lat="42.975644" lon="-9.192755">
        <ele>75.124</ele>
        <time>2019-06-22T08:36:05Z</time>
      </trkpt>
      <trkpt lat="42.975830" lon="-9.192492">
        <ele>75.062</ele>
        <time>2019-06-22T08:36:06Z</time>
      </trkpt>
      <trkpt lat="42.976020" lon="-9.192254">
        <ele>75.041</ele>
        <time>2019-06-22T08:36:07Z</time>
      </trkpt>
      <trkpt lat="42.976192" lon="-9.192005">
        <ele>74.666</ele>
        <time>2019-06-22T08:36:08Z</time>
      </trkpt>
      <trkpt lat="42.976350" lon="-9.191747">
        <ele>74.149</ele>
        <time>2019-06-22T08:36:09Z</time>
      </trkpt>
      <trkpt lat="42.976491" lon="-9.191500">
        <ele>71.878</ele>
        <time>2019-06-22T08:36:10Z</time>
      </trkpt>
      <trkpt lat="42.976617" lon="-9.191261">
        <ele>71.433</ele>
        <time>2019-06-22T08:36:11Z</time>
      </trkpt>
      <trkpt lat="42.976730" lon="-9.191018">
        <ele>70.426</ele>
        <time>2019-06-22T08:36:12Z</time>
      </trkpt>
      <trkpt lat="42.976822" lon="-9.190782">
        <ele>70.408</ele>
        <time>2019-06-22T08:36:13Z</time>
      </trkpt>
      <trkpt lat="42.976907" lon="-9.190554">
        <ele>70.450</ele>
        <time>2019-06-22T08:36:14Z</time>
      </trkpt>
      <trkpt lat="42.976981" lon="-9.190332">
        <ele>71.664</ele>
        <time>2019-06-22T08:36:15Z</time>
      </trkpt>
      <trkpt lat="42.977046" lon="-9.190128">
        <ele>72.876</ele>
        <time>2019-06-22T08:36:16Z</time>
      </trkpt>
      <trkpt lat="42.977104" lon="-9.189919">
        <ele>74.638</ele>
        <time>2019-06-22T08:36:17Z</time>
      </trkpt>
      <trkpt lat="42.977148" lon="-9.189731">
        <ele>75.546</ele>
        <time>2019-06-22T08:36:18Z</time>
      </trkpt>
      <trkpt lat="42.977196" lon="-9.189565">
        <ele>76.795</ele>
        <time>2019-06-22T08:36:19Z</time>
      </trkpt>
      <trkpt lat="42.977237" lon="-9.189407">
        <ele>78.140</ele>
        <time>2019-06-22T08:36:20Z</time>
      </trkpt>
      <trkpt lat="42.977261" lon="-9.189268">
        <ele>78.483</ele>
        <time>2019-06-22T08:36:21Z</time>
      </trkpt>
      <trkpt lat="42.977268" lon="-9.189126">
        <ele>78.722</ele>
        <time>2019-06-22T08:36:22Z</time>
      </trkpt>
      <trkpt lat="42.977258" lon="-9.188996">
        <ele>78.962</ele>
        <time>2019-06-22T08:36:23Z</time>
      </trkpt>
      <trkpt lat="42.977240" lon="-9.188851">
        <ele>79.608</ele>
        <time>2019-06-22T08:36:24Z</time>
      </trkpt>
      <trkpt lat="42.977248" lon="-9.188760">
        <ele>80.408</ele>
        <time>2019-06-22T08:36:25Z</time>
      </trkpt>
      <trkpt lat="42.977278" lon="-9.188643">
        <ele>81.515</ele>
        <time>2019-06-22T08:36:26Z</time>
      </trkpt>
      <trkpt lat="42.977321" lon="-9.188541">
        <ele>82.559</ele>
        <time>2019-06-22T08:36:27Z</time>
      </trkpt>
      <trkpt lat="42.977389" lon="-9.188474">
        <ele>83.471</ele>
        <time>2019-06-22T08:36:28Z</time>
      </trkpt>
      <trkpt lat="42.977473" lon="-9.188425">
        <ele>84.233</ele>
        <time>2019-06-22T08:36:29Z</time>
      </trkpt>
      <trkpt lat="42.977571" lon="-9.188409">
        <ele>84.741</ele>
        <time>2019-06-22T08:36:30Z</time>
      </trkpt>
      <trkpt lat="42.977703" lon="-9.188401">
        <ele>84.940</ele>
        <time>2019-06-22T08:36:31Z</time>
      </trkpt>
      <trkpt lat="42.977844" lon="-9.188397">
        <ele>84.945</ele>
        <time>2019-06-22T08:36:32Z</time>
      </trkpt>
      <trkpt lat="42.977998" lon="-9.188368">
        <ele>84.948</ele>
        <time>2019-06-22T08:36:33Z</time>
      </trkpt>
      <trkpt lat="42.978164" lon="-9.188313">
        <ele>84.147</ele>
        <time>2019-06-22T08:36:34Z</time>
      </trkpt>
      <trkpt lat="42.978338" lon="-9.188247">
        <ele>83.629</ele>
        <time>2019-06-22T08:36:35Z</time>
      </trkpt>
      <trkpt lat="42.978517" lon="-9.188179">
        <ele>83.121</ele>
        <time>2019-06-22T08:36:36Z</time>
      </trkpt>
      <trkpt lat="42.978701" lon="-9.188098">
        <ele>82.208</ele>
        <time>2019-06-22T08:36:37Z</time>
      </trkpt>
      <trkpt lat="42.978894" lon="-9.188022">
        <ele>82.277</ele>
        <time>2019-06-22T08:36:38Z</time>
      </trkpt>
      <trkpt lat="42.979106" lon="-9.187929">
        <ele>83.451</ele>
        <time>2019-06-22T08:36:39Z</time>
      </trkpt>
      <trkpt lat="42.979311" lon="-9.187847">
        <ele>83.553</ele>
        <time>2019-06-22T08:36:40Z</time>
      </trkpt>
      <trkpt lat="42.979520" lon="-9.187764">
        <ele>84.155</ele>
        <time>2019-06-22T08:36:41Z</time>
      </trkpt>
      <trkpt lat="42.979757" lon="-9.187671">
        <ele>84.653</ele>
        <time>2019-06-22T08:36:42Z</time>
      </trkpt>
      <trkpt lat="42.979977" lon="-9.187578">
        <ele>85.142</ele>
        <time>2019-06-22T08:36:43Z</time>
      </trkpt>
      <trkpt lat="42.980205" lon="-9.187479">
        <ele>85.327</ele>
        <time>2019-06-22T08:36:44Z</time>
      </trkpt>
      <trkpt lat="42.980435" lon="-9.187384">
        <ele>85.330</ele>
        <time>2019-06-22T08:36:45Z</time>
      </trkpt>
      <trkpt lat="42.980672" lon="-9.187290">
        <ele>85.559</ele>
        <time>2019-06-22T08:36:46Z</time>
      </trkpt>
      <trkpt lat="42.980908" lon="-9.187195">
        <ele>86.403</ele>
        <time>2019-06-22T08:36:47Z</time>
      </trkpt>
      <trkpt lat="42.981147" lon="-9.187106">
        <ele>86.623</ele>
        <time>2019-06-22T08:36:48Z</time>
      </trkpt>
      <trkpt lat="42.981393" lon="-9.187017">
        <ele>86.608</ele>
        <time>2019-06-22T08:36:49Z</time>
      </trkpt>
      <trkpt lat="42.981640" lon="-9.186928">
        <ele>84.978</ele>
        <time>2019-06-22T08:36:50Z</time>
      </trkpt>
      <trkpt lat="42.981893" lon="-9.186833">
        <ele>84.092</ele>
        <time>2019-06-22T08:36:51Z</time>
      </trkpt>
      <trkpt lat="42.982142" lon="-9.186739">
        <ele>83.464</ele>
        <time>2019-06-22T08:36:52Z</time>
      </trkpt>
      <trkpt lat="42.982394" lon="-9.186641">
        <ele>82.296</ele>
        <time>2019-06-22T08:36:53Z</time>
      </trkpt>
      <trkpt lat="42.982641" lon="-9.186544">
        <ele>81.044</ele>
        <time>2019-06-22T08:36:54Z</time>
      </trkpt>
      <trkpt lat="42.982891" lon="-9.186443">
        <ele>81.063</ele>
        <time>2019-06-22T08:36:55Z</time>
      </trkpt>
      <trkpt lat="42.983140" lon="-9.186339">
        <ele>82.178</ele>
        <time>2019-06-22T08:36:56Z</time>
      </trkpt>
      <trkpt lat="42.983398" lon="-9.186237">
        <ele>82.471</ele>
        <time>2019-06-22T08:36:57Z</time>
      </trkpt>
      <trkpt lat="42.983659" lon="-9.186135">
        <ele>83.094</ele>
        <time>2019-06-22T08:36:58Z</time>
      </trkpt>
      <trkpt lat="42.983924" lon="-9.186026">
        <ele>83.457</ele>
        <time>2019-06-22T08:36:59Z</time>
      </trkpt>
      <trkpt lat="42.984193" lon="-9.185921">
        <ele>83.422</ele>
        <time>2019-06-22T08:37:00Z</time>
      </trkpt>
      <trkpt lat="42.984468" lon="-9.185809">
        <ele>81.508</ele>
        <time>2019-06-22T08:37:01Z</time>
      </trkpt>
      <trkpt lat="42.984742" lon="-9.185698">
        <ele>80.372</ele>
        <time>2019-06-22T08:37:02Z</time>
      </trkpt>
      <trkpt lat="42.985017" lon="-9.185586">
        <ele>79.896</ele>
        <time>2019-06-22T08:37:03Z</time>
      </trkpt>
      <trkpt lat="42.985297" lon="-9.185474">
        <ele>79.488</ele>
        <time>2019-06-22T08:37:04Z</time>
      </trkpt>
      <trkpt lat="42.985573" lon="-9.185365">
        <ele>79.490</ele>
        <time>2019-06-22T08:37:05Z</time>
      </trkpt>
      <trkpt lat="42.985848" lon="-9.185254">
        <ele>79.838</ele>
        <time>2019-06-22T08:37:06Z</time>
      </trkpt>
      <trkpt lat="42.986115" lon="-9.185136">
        <ele>80.067</ele>
        <time>2019-06-22T08:37:07Z</time>
      </trkpt>
      <trkpt lat="42.986392" lon="-9.185024">
        <ele>80.092</ele>
        <time>2019-06-22T08:37:08Z</time>
      </trkpt>
      <trkpt lat="42.986662" lon="-9.184920">
        <ele>80.835</ele>
        <time>2019-06-22T08:37:09Z</time>
      </trkpt>
      <trkpt lat="42.986934" lon="-9.184811">
        <ele>80.869</ele>
        <time>2019-06-22T08:37:10Z</time>
      </trkpt>
      <trkpt lat="42.987208" lon="-9.184706">
        <ele>80.404</ele>
        <time>2019-06-22T08:37:11Z</time>
      </trkpt>
      <trkpt lat="42.987483" lon="-9.184593">
        <ele>80.424</ele>
        <time>2019-06-22T08:37:12Z</time>
      </trkpt>
      <trkpt lat="42.987757" lon="-9.184482">
        <ele>81.608</ele>
        <time>2019-06-22T08:37:13Z</time>
      </trkpt>
      <trkpt lat="42.988036" lon="-9.184373">
        <ele>81.719</ele>
        <time>2019-06-22T08:37:14Z</time>
      </trkpt>
      <trkpt lat="42.988314" lon="-9.184266">
        <ele>81.633</ele>
        <time>2019-06-22T08:37:15Z</time>
      </trkpt>
      <trkpt lat="42.988590" lon="-9.184158">
        <ele>81.615</ele>
        <time>2019-06-22T08:37:16Z</time>
      </trkpt>
      <trkpt lat="42.988867" lon="-9.184049">
        <ele>81.577</ele>
        <time>2019-06-22T08:37:17Z</time>
      </trkpt>
      <trkpt lat="42.989143" lon="-9.183941">
        <ele>79.775</ele>
        <time>2019-06-22T08:37:18Z</time>
      </trkpt>
      <trkpt lat="42.989417" lon="-9.183827">
        <ele>79.444</ele>
        <time>2019-06-22T08:37:19Z</time>
      </trkpt>
      <trkpt lat="42.989687" lon="-9.183708">
        <ele>79.489</ele>
        <time>2019-06-22T08:37:20Z</time>
      </trkpt>
      <trkpt lat="42.989958" lon="-9.183589">
        <ele>81.512</ele>
        <time>2019-06-22T08:37:21Z</time>
      </trkpt>
      <trkpt lat="42.990236" lon="-9.183467">
        <ele>83.425</ele>
        <time>2019-06-22T08:37:22Z</time>
      </trkpt>
      <trkpt lat="42.990512" lon="-9.183357">
        <ele>85.226</ele>
        <time>2019-06-22T08:37:23Z</time>
      </trkpt>
      <trkpt lat="42.990786" lon="-9.183249">
        <ele>87.208</ele>
        <time>2019-06-22T08:37:24Z</time>
      </trkpt>
      <trkpt lat="42.991062" lon="-9.183141">
        <ele>87.208</ele>
        <time>2019-06-22T08:37:25Z</time>
      </trkpt>
      <trkpt lat="42.991338" lon="-9.183038">
        <ele>86.445</ele>
        <time>2019-06-22T08:37:26Z</time>
      </trkpt>
      <trkpt lat="42.991611" lon="-9.182931">
        <ele>85.939</ele>
        <time>2019-06-22T08:37:27Z</time>
      </trkpt>
      <trkpt lat="42.991878" lon="-9.182823">
        <ele>85.511</ele>
        <time>2019-06-22T08:37:28Z</time>
      </trkpt>
      <trkpt lat="42.992149" lon="-9.182718">
        <ele>85.333</ele>
        <time>2019-06-22T08:37:29Z</time>
      </trkpt>
      <trkpt lat="42.992414" lon="-9.182607">
        <ele>84.671</ele>
        <time>2019-06-22T08:37:30Z</time>
      </trkpt>
      <trkpt lat="42.992675" lon="-9.182485">
        <ele>84.210</ele>
        <time>2019-06-22T08:37:31Z</time>
      </trkpt>
      <trkpt lat="42.992920" lon="-9.182330">
        <ele>84.175</ele>
        <time>2019-06-22T08:37:32Z</time>
      </trkpt>
      <trkpt lat="42.993170" lon="-9.182172">
        <ele>84.058</ele>
        <time>2019-06-22T08:37:33Z</time>
      </trkpt>
      <trkpt lat="42.993418" lon="-9.181997">
        <ele>84.036</ele>
        <time>2019-06-22T08:37:34Z</time>
      </trkpt>
      <trkpt lat="42.993662" lon="-9.181809">
        <ele>86.017</ele>
        <time>2019-06-22T08:37:35Z</time>
      </trkpt>
      <trkpt lat="42.993899" lon="-9.181627">
        <ele>86.918</ele>
        <time>2019-06-22T08:37:36Z</time>
      </trkpt>
      <trkpt lat="42.994136" lon="-9.181445">
        <ele>87.808</ele>
        <time>2019-06-22T08:37:37Z</time>
      </trkpt>
      <trkpt lat="42.994362" lon="-9.181275">
        <ele>88.236</ele>
        <time>2019-06-22T08:37:38Z</time>
      </trkpt>
      <trkpt lat="42.994592" lon="-9.181103">
        <ele>88.310</ele>
        <time>2019-06-22T08:37:39Z</time>
      </trkpt>
      <trkpt lat="42.994807" lon="-9.180936">
        <ele>88.822</ele>
        <time>2019-06-22T08:37:40Z</time>
      </trkpt>
      <trkpt lat="42.995037" lon="-9.180758">
        <ele>90.424</ele>
        <time>2019-06-22T08:37:41Z</time>
      </trkpt>
      <trkpt lat="42.995250" lon="-9.180592">
        <ele>90.422</ele>
        <time>2019-06-22T08:37:42Z</time>
      </trkpt>
      <trkpt lat="42.995453" lon="-9.180416">
        <ele>88.751</ele>
        <time>2019-06-22T08:37:43Z</time>
      </trkpt>
      <trkpt lat="42.995647" lon="-9.180218">
        <ele>87.986</ele>
        <time>2019-06-22T08:37:44Z</time>
      </trkpt>
      <trkpt lat="42.995834" lon="-9.180019">
        <ele>87.999</ele>
        <time>2019-06-22T08:37:45Z</time>
      </trkpt>
      <trkpt lat="42.996026" lon="-9.179828">
        <ele>87.473</ele>
        <time>2019-06-22T08:37:46Z</time>
      </trkpt>
      <trkpt lat="42.996224" lon="-9.179641">
        <ele>88.085</ele>
        <time>2019-06-22T08:37:47Z</time>
      </trkpt>
      <trkpt lat="42.996439" lon="-9.179473">
        <ele>88.013</ele>
        <time>2019-06-22T08:37:48Z</time>
      </trkpt>
      <trkpt lat="42.996658" lon="-9.179330">
        <ele>90.008</ele>
        <time>2019-06-22T08:37:49Z</time>
      </trkpt>
      <trkpt lat="42.996888" lon="-9.179220">
        <ele>92.310</ele>
        <time>2019-06-22T08:37:50Z</time>
      </trkpt>
      <trkpt lat="42.997108" lon="-9.179122">
        <ele>92.384</ele>
        <time>2019-06-22T08:37:51Z</time>
      </trkpt>
      <trkpt lat="42.997345" lon="-9.179059">
        <ele>91.896</ele>
        <time>2019-06-22T08:37:52Z</time>
      </trkpt>
      <trkpt lat="42.997577" lon="-9.178978">
        <ele>91.678</ele>
        <time>2019-06-22T08:37:53Z</time>
      </trkpt>
      <trkpt lat="42.997805" lon="-9.178889">
        <ele>90.696</ele>
        <time>2019-06-22T08:37:54Z</time>
      </trkpt>
      <trkpt lat="42.998041" lon="-9.178772">
        <ele>89.235</ele>
        <time>2019-06-22T08:37:55Z</time>
      </trkpt>
      <trkpt lat="42.998267" lon="-9.178627">
        <ele>88.290</ele>
        <time>2019-06-22T08:37:56Z</time>
      </trkpt>
      <trkpt lat="42.998499" lon="-9.178473">
        <ele>87.213</ele>
        <time>2019-06-22T08:37:57Z</time>
      </trkpt>
      <trkpt lat="42.998708" lon="-9.178303">
        <ele>87.046</ele>
        <time>2019-06-22T08:37:58Z</time>
      </trkpt>
      <trkpt lat="42.998941" lon="-9.178148">
        <ele>87.088</ele>
        <time>2019-06-22T08:37:59Z</time>
      </trkpt>
      <trkpt lat="42.999163" lon="-9.177987">
        <ele>87.416</ele>
        <time>2019-06-22T08:38:00Z</time>
      </trkpt>
      <trkpt lat="42.999389" lon="-9.177815">
        <ele>88.408</ele>
        <time>2019-06-22T08:38:01Z</time>
      </trkpt>
      <trkpt lat="42.999624" lon="-9.177643">
        <ele>89.517</ele>
        <time>2019-06-22T08:38:02Z</time>
      </trkpt>
      <trkpt lat="42.999855" lon="-9.177484">
        <ele>89.571</ele>
        <time>2019-06-22T08:38:03Z</time>
      </trkpt>
      <trkpt lat="43.000075" lon="-9.177327">
        <ele>88.953</ele>
        <time>2019-06-22T08:38:04Z</time>
      </trkpt>
      <trkpt lat="43.000305" lon="-9.177163">
        <ele>88.885</ele>
        <time>2019-06-22T08:38:05Z</time>
      </trkpt>
      <trkpt lat="43.000534" lon="-9.176998">
        <ele>88.763</ele>
        <time>2019-06-22T08:38:06Z</time>
      </trkpt>
      <trkpt lat="43.000765" lon="-9.176833">
        <ele>87.722</ele>
        <time>2019-06-22T08:38:07Z</time>
      </trkpt>
      <trkpt lat="43.000991" lon="-9.176680">
        <ele>87.237</ele>
        <time>2019-06-22T08:38:08Z</time>
      </trkpt>
      <trkpt lat="43.001209" lon="-9.176564">
        <ele>87.220</ele>
        <time>2019-06-22T08:38:09Z</time>
      </trkpt>
      <trkpt lat="43.001440" lon="-9.176453">
        <ele>87.613</ele>
        <time>2019-06-22T08:38:10Z</time>
      </trkpt>
      <trkpt lat="43.001649" lon="-9.176370">
        <ele>87.643</ele>
        <time>2019-06-22T08:38:11Z</time>
      </trkpt>
      <trkpt lat="43.001924" lon="-9.176264">
        <ele>87.407</ele>
        <time>2019-06-22T08:38:12Z</time>
      </trkpt>
      <trkpt lat="43.002168" lon="-9.176192">
        <ele>87.008</ele>
        <time>2019-06-22T08:38:13Z</time>
      </trkpt>
      <trkpt lat="43.002412" lon="-9.176117">
        <ele>86.714</ele>
        <time>2019-06-22T08:38:14Z</time>
      </trkpt>
      <trkpt lat="43.002621" lon="-9.176019">
        <ele>85.828</ele>
        <time>2019-06-22T08:38:15Z</time>
      </trkpt>
      <trkpt lat="43.002856" lon="-9.175938">
        <ele>85.830</ele>
        <time>2019-06-22T08:38:16Z</time>
      </trkpt>
      <trkpt lat="43.003064" lon="-9.175870">
        <ele>85.882</ele>
        <time>2019-06-22T08:38:17Z</time>
      </trkpt>
      <trkpt lat="43.003264" lon="-9.175807">
        <ele>85.940</ele>
        <time>2019-06-22T08:38:18Z</time>
      </trkpt>
      <trkpt lat="43.003461" lon="-9.175714">
        <ele>86.879</ele>
        <time>2019-06-22T08:38:19Z</time>
      </trkpt>
      <trkpt lat="43.003654" lon="-9.175621">
        <ele>87.864</ele>
        <time>2019-06-22T08:38:20Z</time>
      </trkpt>
      <trkpt lat="43.003845" lon="-9.175505">
        <ele>88.427</ele>
        <time>2019-06-22T08:38:21Z</time>
      </trkpt>
      <trkpt lat="43.004028" lon="-9.175353">
        <ele>88.616</ele>
        <time>2019-06-22T08:38:22Z</time>
      </trkpt>
      <trkpt lat="43.004192" lon="-9.175183">
        <ele>88.876</ele>
        <time>2019-06-22T08:38:23Z</time>
      </trkpt>
      <trkpt lat="43.004351" lon="-9.174986">
        <ele>89.213</ele>
        <time>2019-06-22T08:38:24Z</time>
      </trkpt>
      <trkpt lat="43.004507" lon="-9.174779">
        <ele>89.508</ele>
        <time>2019-06-22T08:38:25Z</time>
      </trkpt>
      <trkpt lat="43.004646" lon="-9.174549">
        <ele>89.934</ele>
        <time>2019-06-22T08:38:26Z</time>
      </trkpt>
      <trkpt lat="43.004765" lon="-9.174308">
        <ele>91.078</ele>
        <time>2019-06-22T08:38:27Z</time>
      </trkpt>
      <trkpt lat="43.004887" lon="-9.174054">
        <ele>92.660</ele>
        <time>2019-06-22T08:38:28Z</time>
      </trkpt>
      <trkpt lat="43.004999" lon="-9.173797">
        <ele>94.232</ele>
        <time>2019-06-22T08:38:29Z</time>
      </trkpt>
      <trkpt lat="43.005094" lon="-9.173550">
        <ele>96.040</ele>
        <time>2019-06-22T08:38:30Z</time>
      </trkpt>
      <trkpt lat="43.005216" lon="-9.173304">
        <ele>98.329</ele>
        <time>2019-06-22T08:38:31Z</time>
      </trkpt>
      <trkpt lat="43.005349" lon="-9.173075">
        <ele>100.324</ele>
        <time>2019-06-22T08:38:32Z</time>
      </trkpt>
      <trkpt lat="43.005506" lon="-9.172844">
        <ele>102.397</ele>
        <time>2019-06-22T08:38:33Z</time>
      </trkpt>
      <trkpt lat="43.005665" lon="-9.172636">
        <ele>104.052</ele>
        <time>2019-06-22T08:38:34Z</time>
      </trkpt>
      <trkpt lat="43.005820" lon="-9.172431">
        <ele>105.453</ele>
        <time>2019-06-22T08:38:35Z</time>
      </trkpt>
      <trkpt lat="43.006005" lon="-9.172265">
        <ele>106.608</ele>
        <time>2019-06-22T08:38:36Z</time>
      </trkpt>
      <trkpt lat="43.006173" lon="-9.172096">
        <ele>107.908</ele>
        <time>2019-06-22T08:38:37Z</time>
      </trkpt>
      <trkpt lat="43.006357" lon="-9.171913">
        <ele>108.798</ele>
        <time>2019-06-22T08:38:38Z</time>
      </trkpt>
      <trkpt lat="43.006537" lon="-9.171735">
        <ele>109.642</ele>
        <time>2019-06-22T08:38:39Z</time>
      </trkpt>
      <trkpt lat="43.006695" lon="-9.171544">
        <ele>110.594</ele>
        <time>2019-06-22T08:38:40Z</time>
      </trkpt>
      <trkpt lat="43.006877" lon="-9.171372">
        <ele>111.946</ele>
        <time>2019-06-22T08:38:41Z</time>
      </trkpt>
      <trkpt lat="43.007069" lon="-9.171200">
        <ele>113.054</ele>
        <time>2019-06-22T08:38:42Z</time>
      </trkpt>
      <trkpt lat="43.007229" lon="-9.171004">
        <ele>114.293</ele>
        <time>2019-06-22T08:38:43Z</time>
      </trkpt>
      <trkpt lat="43.007399" lon="-9.170814">
        <ele>114.988</ele>
        <time>2019-06-22T08:38:44Z</time>
      </trkpt>
      <trkpt lat="43.007547" lon="-9.170595">
        <ele>114.941</ele>
        <time>2019-06-22T08:38:45Z</time>
      </trkpt>
      <trkpt lat="43.007680" lon="-9.170362">
        <ele>115.068</ele>
        <time>2019-06-22T08:38:46Z</time>
      </trkpt>
      <trkpt lat="43.007797" lon="-9.170114">
        <ele>115.042</ele>
        <time>2019-06-22T08:38:47Z</time>
      </trkpt>
      <trkpt lat="43.007904" lon="-9.169864">
        <ele>115.326</ele>
        <time>2019-06-22T08:38:48Z</time>
      </trkpt>
      <trkpt lat="43.008015" lon="-9.169608">
        <ele>116.108</ele>
        <time>2019-06-22T08:38:49Z</time>
      </trkpt>
      <trkpt lat="43.008136" lon="-9.169355">
        <ele>118.019</ele>
        <time>2019-06-22T08:38:50Z</time>
      </trkpt>
      <trkpt lat="43.008284" lon="-9.169098">
        <ele>118.073</ele>
        <time>2019-06-22T08:38:51Z</time>
      </trkpt>
      <trkpt lat="43.008429" lon="-9.168846">
        <ele>119.065</ele>
        <time>2019-06-22T08:38:52Z</time>
      </trkpt>
      <trkpt lat="43.008572" lon="-9.168622">
        <ele>120.347</ele>
        <time>2019-06-22T08:38:53Z</time>
      </trkpt>
      <trkpt lat="43.008731" lon="-9.168460">
        <ele>122.235</ele>
        <time>2019-06-22T08:38:54Z</time>
      </trkpt>
      <trkpt lat="43.008888" lon="-9.168291">
        <ele>123.634</ele>
        <time>2019-06-22T08:38:55Z</time>
      </trkpt>
      <trkpt lat="43.009048" lon="-9.168117">
        <ele>123.699</ele>
        <time>2019-06-22T08:38:56Z</time>
      </trkpt>
      <trkpt lat="43.009222" lon="-9.167913">
        <ele>123.242</ele>
        <time>2019-06-22T08:38:57Z</time>
      </trkpt>
      <trkpt lat="43.009365" lon="-9.167710">
        <ele>122.355</ele>
        <time>2019-06-22T08:38:58Z</time>
      </trkpt>
      <trkpt lat="43.009503" lon="-9.167520">
        <ele>120.907</ele>
        <time>2019-06-22T08:38:59Z</time>
      </trkpt>
      <trkpt lat="43.009635" lon="-9.167282">
        <ele>120.917</ele>
        <time>2019-06-22T08:39:00Z</time>
      </trkpt>
      <trkpt lat="43.009690" lon="-9.166995">
        <ele>121.108</ele>
        <time>2019-06-22T08:39:01Z</time>
      </trkpt>
      <trkpt lat="43.009712" lon="-9.166605">
        <ele>122.088</ele>
        <time>2019-06-22T08:39:02Z</time>
      </trkpt>
      <trkpt lat="43.009720" lon="-9.166288">
        <ele>123.672</ele>
        <time>2019-06-22T08:39:03Z</time>
      </trkpt>
      <trkpt lat="43.009722" lon="-9.165976">
        <ele>124.834</ele>
        <time>2019-06-22T08:39:04Z</time>
      </trkpt>
      <trkpt lat="43.009708" lon="-9.165648">
        <ele>125.826</ele>
        <time>2019-06-22T08:39:05Z</time>
      </trkpt>
      <trkpt lat="43.009703" lon="-9.165309">
        <ele>126.454</ele>
        <time>2019-06-22T08:39:06Z</time>
      </trkpt>
      <trkpt lat="43.009697" lon="-9.164982">
        <ele>127.093</ele>
        <time>2019-06-22T08:39:07Z</time>
      </trkpt>
      <trkpt lat="43.009692" lon="-9.164656">
        <ele>128.118</ele>
        <time>2019-06-22T08:39:08Z</time>
      </trkpt>
      <trkpt lat="43.009679" lon="-9.164325">
        <ele>129.151</ele>
        <time>2019-06-22T08:39:09Z</time>
      </trkpt>
      <trkpt lat="43.009666" lon="-9.163998">
        <ele>130.161</ele>
        <time>2019-06-22T08:39:10Z</time>
      </trkpt>
      <trkpt lat="43.009655" lon="-9.163695">
        <ele>130.221</ele>
        <time>2019-06-22T08:39:11Z</time>
      </trkpt>
      <trkpt lat="43.009644" lon="-9.163366">
        <ele>130.113</ele>
        <time>2019-06-22T08:39:12Z</time>
      </trkpt>
      <trkpt lat="43.009638" lon="-9.163021">
        <ele>130.008</ele>
        <time>2019-06-22T08:39:13Z</time>
      </trkpt>
      <trkpt lat="43.009632" lon="-9.162699">
        <ele>128.499</ele>
        <time>2019-06-22T08:39:14Z</time>
      </trkpt>
      <trkpt lat="43.009635" lon="-9.162362">
        <ele>126.593</ele>
        <time>2019-06-22T08:39:15Z</time>
      </trkpt>
      <trkpt lat="43.009645" lon="-9.162035">
        <ele>126.235</ele>
        <time>2019-06-22T08:39:16Z</time>
      </trkpt>
      <trkpt lat="43.009663" lon="-9.161719">
        <ele>125.627</ele>
        <time>2019-06-22T08:39:17Z</time>
      </trkpt>
      <trkpt lat="43.009694" lon="-9.161397">
        <ele>125.635</ele>
        <time>2019-06-22T08:39:18Z</time>
      </trkpt>
      <trkpt lat="43.009735" lon="-9.161065">
        <ele>126.084</ele>
        <time>2019-06-22T08:39:19Z</time>
      </trkpt>
      <trkpt lat="43.009775" lon="-9.160736">
        <ele>126.099</ele>
        <time>2019-06-22T08:39:20Z</time>
      </trkpt>
      <trkpt lat="43.009818" lon="-9.160398">
        <ele>125.222</ele>
        <time>2019-06-22T08:39:21Z</time>
      </trkpt>
      <trkpt lat="43.009860" lon="-9.160062">
        <ele>125.152</ele>
        <time>2019-06-22T08:39:22Z</time>
      </trkpt>
      <trkpt lat="43.009913" lon="-9.159721">
        <ele>125.053</ele>
        <time>2019-06-22T08:39:23Z</time>
      </trkpt>
      <trkpt lat="43.009970" lon="-9.159385">
        <ele>125.108</ele>
        <time>2019-06-22T08:39:24Z</time>
      </trkpt>
      <trkpt lat="43.010031" lon="-9.159049">
        <ele>125.208</ele>
        <time>2019-06-22T08:39:25Z</time>
      </trkpt>
      <trkpt lat="43.010101" lon="-9.158721">
        <ele>126.668</ele>
        <time>2019-06-22T08:39:26Z</time>
      </trkpt>
      <trkpt lat="43.010209" lon="-9.158393">
        <ele>127.842</ele>
        <time>2019-06-22T08:39:27Z</time>
      </trkpt>
      <trkpt lat="43.010332" lon="-9.158111">
        <ele>127.874</ele>
        <time>2019-06-22T08:39:28Z</time>
      </trkpt>
      <trkpt lat="43.010440" lon="-9.157834">
        <ele>127.856</ele>
        <time>2019-06-22T08:39:29Z</time>
      </trkpt>
      <trkpt lat="43.010534" lon="-9.157552">
        <ele>127.724</ele>
        <time>2019-06-22T08:39:30Z</time>
      </trkpt>
      <trkpt lat="43.010597" lon="-9.157283">
        <ele>127.393</ele>
        <time>2019-06-22T08:39:31Z</time>
      </trkpt>
      <trkpt lat="43.010643" lon="-9.157001">
        <ele>127.338</ele>
        <time>2019-06-22T08:39:32Z</time>
      </trkpt>
      <trkpt lat="43.010668" lon="-9.156724">
        <ele>127.611</ele>
        <time>2019-06-22T08:39:33Z</time>
      </trkpt>
      <trkpt lat="43.010657" lon="-9.156433">
        <ele>128.852</ele>
        <time>2019-06-22T08:39:34Z</time>
      </trkpt>
      <trkpt lat="43.010624" lon="-9.156135">
        <ele>130.853</ele>
        <time>2019-06-22T08:39:35Z</time>
      </trkpt>
      <trkpt lat="43.010583" lon="-9.155848">
        <ele>133.208</ele>
        <time>2019-06-22T08:39:36Z</time>
      </trkpt>
      <trkpt lat="43.010529" lon="-9.155556">
        <ele>135.008</ele>
        <time>2019-06-22T08:39:37Z</time>
      </trkpt>
      <trkpt lat="43.010453" lon="-9.155275">
        <ele>137.598</ele>
        <time>2019-06-22T08:39:38Z</time>
      </trkpt>
      <trkpt lat="43.010382" lon="-9.154992">
        <ele>139.782</ele>
        <time>2019-06-22T08:39:39Z</time>
      </trkpt>
      <trkpt lat="43.010307" lon="-9.154709">
        <ele>140.794</ele>
        <time>2019-06-22T08:39:40Z</time>
      </trkpt>
      <trkpt lat="43.010230" lon="-9.154423">
        <ele>141.156</ele>
        <time>2019-06-22T08:39:41Z</time>
      </trkpt>
      <trkpt lat="43.010158" lon="-9.154122">
        <ele>142.294</ele>
        <time>2019-06-22T08:39:42Z</time>
      </trkpt>
      <trkpt lat="43.010098" lon="-9.153820">
        <ele>142.283</ele>
        <time>2019-06-22T08:39:43Z</time>
      </trkpt>
      <trkpt lat="43.010050" lon="-9.153523">
        <ele>142.288</ele>
        <time>2019-06-22T08:39:44Z</time>
      </trkpt>
      <trkpt lat="43.010052" lon="-9.153219">
        <ele>142.221</ele>
        <time>2019-06-22T08:39:45Z</time>
      </trkpt>
      <trkpt lat="43.010065" lon="-9.152909">
        <ele>142.441</ele>
        <time>2019-06-22T08:39:46Z</time>
      </trkpt>
      <trkpt lat="43.010094" lon="-9.152597">
        <ele>142.481</ele>
        <time>2019-06-22T08:39:47Z</time>
      </trkpt>
      <trkpt lat="43.010139" lon="-9.152305">
        <ele>142.409</ele>
        <time>2019-06-22T08:39:48Z</time>
      </trkpt>
      <trkpt lat="43.010196" lon="-9.152002">
        <ele>141.808</ele>
        <time>2019-06-22T08:39:49Z</time>
      </trkpt>
      <trkpt lat="43.010273" lon="-9.151695">
        <ele>141.817</ele>
        <time>2019-06-22T08:39:50Z</time>
      </trkpt>
      <trkpt lat="43.010399" lon="-9.151414">
        <ele>141.561</ele>
        <time>2019-06-22T08:39:51Z</time>
      </trkpt>
      <trkpt lat="43.010482" lon="-9.151136">
        <ele>141.523</ele>
        <time>2019-06-22T08:39:52Z</time>
      </trkpt>
      <trkpt lat="43.010568" lon="-9.150864">
        <ele>141.135</ele>
        <time>2019-06-22T08:39:53Z</time>
      </trkpt>
      <trkpt lat="43.010652" lon="-9.150584">
        <ele>140.633</ele>
        <time>2019-06-22T08:39:54Z</time>
      </trkpt>
      <trkpt lat="43.010728" lon="-9.150333">
        <ele>139.922</ele>
        <time>2019-06-22T08:39:55Z</time>
      </trkpt>
      <trkpt lat="43.010796" lon="-9.150068">
        <ele>138.597</ele>
        <time>2019-06-22T08:39:56Z</time>
      </trkpt>
      <trkpt lat="43.010849" lon="-9.149806">
        <ele>137.390</ele>
        <time>2019-06-22T08:39:57Z</time>
      </trkpt>
      <trkpt lat="43.010903" lon="-9.149550">
        <ele>137.022</ele>
        <time>2019-06-22T08:39:58Z</time>
      </trkpt>
      <trkpt lat="43.010949" lon="-9.149271">
        <ele>136.262</ele>
        <time>2019-06-22T08:39:59Z</time>
      </trkpt>
      <trkpt lat="43.010988" lon="-9.148997">
        <ele>136.208</ele>
        <time>2019-06-22T08:40:00Z</time>
      </trkpt>
      <trkpt lat="43.011033" lon="-9.148754">
        <ele>137.008</ele>
        <time>2019-06-22T08:40:01Z</time>
      </trkpt>
      <trkpt lat="43.011081" lon="-9.148531">
        <ele>138.725</ele>
        <time>2019-06-22T08:40:02Z</time>
      </trkpt>
      <trkpt lat="43.011118" lon="-9.148322">
        <ele>140.049</ele>
        <time>2019-06-22T08:40:03Z</time>
      </trkpt>
      <trkpt lat="43.011162" lon="-9.148152">
        <ele>142.041</ele>
        <time>2019-06-22T08:40:04Z</time>
      </trkpt>
      <trkpt lat="43.011202" lon="-9.147970">
        <ele>144.443</ele>
        <time>2019-06-22T08:40:05Z</time>
      </trkpt>
      <trkpt lat="43.011247" lon="-9.147910">
        <ele>145.431</ele>
        <time>2019-06-22T08:40:06Z</time>
      </trkpt>
      <trkpt lat="43.011321" lon="-9.147836">
        <ele>147.850</ele>
        <time>2019-06-22T08:40:08Z</time>
      </trkpt>
      <trkpt lat="43.011359" lon="-9.147780">
        <ele>148.795</ele>
        <time>2019-06-22T08:40:09Z</time>
      </trkpt>
      <trkpt lat="43.011399" lon="-9.147706">
        <ele>149.478</ele>
        <time>2019-06-22T08:40:10Z</time>
      </trkpt>
      <trkpt lat="43.011435" lon="-9.147644">
        <ele>150.093</ele>
        <time>2019-06-22T08:40:11Z</time>
      </trkpt>
      <trkpt lat="43.011466" lon="-9.147596">
        <ele>150.265</ele>
        <time>2019-06-22T08:40:12Z</time>
      </trkpt>
      <trkpt lat="43.011505" lon="-9.147561">
        <ele>150.421</ele>
        <time>2019-06-22T08:40:13Z</time>
      </trkpt>
      <trkpt lat="43.011551" lon="-9.147512">
        <ele>150.508</ele>
        <time>2019-06-22T08:40:14Z</time>
      </trkpt>
      <trkpt lat="43.011595" lon="-9.147463">
        <ele>150.612</ele>
        <time>2019-06-22T08:40:15Z</time>
      </trkpt>
      <trkpt lat="43.011632" lon="-9.147378">
        <ele>150.876</ele>
        <time>2019-06-22T08:40:16Z</time>
      </trkpt>
      <trkpt lat="43.011680" lon="-9.147337">
        <ele>150.928</ele>
        <time>2019-06-22T08:40:17Z</time>
      </trkpt>
      <trkpt lat="43.011733" lon="-9.147310">
        <ele>151.120</ele>
        <time>2019-06-22T08:40:18Z</time>
      </trkpt>
      <trkpt lat="43.011770" lon="-9.147244">
        <ele>151.448</ele>
        <time>2019-06-22T08:40:19Z</time>
      </trkpt>
      <trkpt lat="43.011836" lon="-9.147191">
        <ele>151.757</ele>
        <time>2019-06-22T08:40:20Z</time>
      </trkpt>
      <trkpt lat="43.011907" lon="-9.147121">
        <ele>151.822</ele>
        <time>2019-06-22T08:40:21Z</time>
      </trkpt>
      <trkpt lat="43.011997" lon="-9.147014">
        <ele>152.015</ele>
        <time>2019-06-22T08:40:22Z</time>
      </trkpt>
      <trkpt lat="43.012086" lon="-9.146907">
        <ele>152.149</ele>
        <time>2019-06-22T08:40:23Z</time>
      </trkpt>
      <trkpt lat="43.012189" lon="-9.146784">
        <ele>152.302</ele>
        <time>2019-06-22T08:40:24Z</time>
      </trkpt>
      <trkpt lat="43.012300" lon="-9.146646">
        <ele>152.522</ele>
        <time>2019-06-22T08:40:25Z</time>
      </trkpt>
      <trkpt lat="43.012407" lon="-9.146486">
        <ele>152.508</ele>
        <time>2019-06-22T08:40:26Z</time>
      </trkpt>
      <trkpt lat="43.012508" lon="-9.146306">
        <ele>151.717</ele>
        <time>2019-06-22T08:40:27Z</time>
      </trkpt>
      <trkpt lat="43.012608" lon="-9.146101">
        <ele>150.811</ele>
        <time>2019-06-22T08:40:28Z</time>
      </trkpt>
      <trkpt lat="43.012687" lon="-9.145892">
        <ele>150.233</ele>
        <time>2019-06-22T08:40:29Z</time>
      </trkpt>
      <trkpt lat="43.012753" lon="-9.145656">
        <ele>149.065</ele>
        <time>2019-06-22T08:40:30Z</time>
      </trkpt>
      <trkpt lat="43.012813" lon="-9.145404">
        <ele>148.673</ele>
        <time>2019-06-22T08:40:31Z</time>
      </trkpt>
      <trkpt lat="43.012858" lon="-9.145136">
        <ele>148.122</ele>
        <time>2019-06-22T08:40:32Z</time>
      </trkpt>
      <trkpt lat="43.012882" lon="-9.144848">
        <ele>147.917</ele>
        <time>2019-06-22T08:40:33Z</time>
      </trkpt>
      <trkpt lat="43.012890" lon="-9.144565">
        <ele>147.920</ele>
        <time>2019-06-22T08:40:34Z</time>
      </trkpt>
      <trkpt lat="43.012878" lon="-9.144273">
        <ele>148.675</ele>
        <time>2019-06-22T08:40:35Z</time>
      </trkpt>
      <trkpt lat="43.012858" lon="-9.143988">
        <ele>149.828</ele>
        <time>2019-06-22T08:40:36Z</time>
      </trkpt>
      <trkpt lat="43.012777" lon="-9.143727">
        <ele>150.020</ele>
        <time>2019-06-22T08:40:37Z</time>
      </trkpt>
      <trkpt lat="43.012701" lon="-9.143433">
        <ele>152.608</ele>
        <time>2019-06-22T08:40:38Z</time>
      </trkpt>
      <trkpt lat="43.012625" lon="-9.143111">
        <ele>154.980</ele>
        <time>2019-06-22T08:40:39Z</time>
      </trkpt>
      <trkpt lat="43.012572" lon="-9.142813">
        <ele>157.754</ele>
        <time>2019-06-22T08:40:40Z</time>
      </trkpt>
      <trkpt lat="43.012527" lon="-9.142523">
        <ele>160.486</ele>
        <time>2019-06-22T08:40:41Z</time>
      </trkpt>
      <trkpt lat="43.012487" lon="-9.142221">
        <ele>163.018</ele>
        <time>2019-06-22T08:40:42Z</time>
      </trkpt>
      <trkpt lat="43.012455" lon="-9.141919">
        <ele>165.266</ele>
        <time>2019-06-22T08:40:43Z</time>
      </trkpt>
      <trkpt lat="43.012468" lon="-9.141647">
        <ele>166.725</ele>
        <time>2019-06-22T08:40:44Z</time>
      </trkpt>
      <trkpt lat="43.012479" lon="-9.141372">
        <ele>168.080</ele>
        <time>2019-06-22T08:40:45Z</time>
      </trkpt>
      <trkpt lat="43.012509" lon="-9.141071">
        <ele>169.273</ele>
        <time>2019-06-22T08:40:46Z</time>
      </trkpt>
      <trkpt lat="43.012575" lon="-9.140793">
        <ele>169.299</ele>
        <time>2019-06-22T08:40:47Z</time>
      </trkpt>
      <trkpt lat="43.012658" lon="-9.140484">
        <ele>171.107</ele>
        <time>2019-06-22T08:40:48Z</time>
      </trkpt>
      <trkpt lat="43.012753" lon="-9.140205">
        <ele>172.527</ele>
        <time>2019-06-22T08:40:49Z</time>
      </trkpt>
      <trkpt lat="43.012885" lon="-9.140006">
        <ele>173.608</ele>
        <time>2019-06-22T08:40:50Z</time>
      </trkpt>
      <trkpt lat="43.013050" lon="-9.139763">
        <ele>174.932</ele>
        <time>2019-06-22T08:40:51Z</time>
      </trkpt>
      <trkpt lat="43.013253" lon="-9.139502">
        <ele>176.196</ele>
        <time>2019-06-22T08:40:52Z</time>
      </trkpt>
      <trkpt lat="43.013425" lon="-9.139297">
        <ele>176.598</ele>
        <time>2019-06-22T08:40:53Z</time>
      </trkpt>
      <trkpt lat="43.013596" lon="-9.139052">
        <ele>177.020</ele>
        <time>2019-06-22T08:40:54Z</time>
      </trkpt>
      <trkpt lat="43.013751" lon="-9.138797">
        <ele>177.248</ele>
        <time>2019-06-22T08:40:55Z</time>
      </trkpt>
      <trkpt lat="43.013883" lon="-9.138531">
        <ele>177.597</ele>
        <time>2019-06-22T08:40:56Z</time>
      </trkpt>
      <trkpt lat="43.014009" lon="-9.138253">
        <ele>177.662</ele>
        <time>2019-06-22T08:40:57Z</time>
      </trkpt>
      <trkpt lat="43.014128" lon="-9.137978">
        <ele>178.135</ele>
        <time>2019-06-22T08:40:58Z</time>
      </trkpt>
      <trkpt lat="43.014157" lon="-9.137620">
        <ele>179.646</ele>
        <time>2019-06-22T08:40:59Z</time>
      </trkpt>
      <trkpt lat="43.014220" lon="-9.137299">
        <ele>181.788</ele>
        <time>2019-06-22T08:41:00Z</time>
      </trkpt>
      <trkpt lat="43.014287" lon="-9.137002">
        <ele>184.316</ele>
        <time>2019-06-22T08:41:01Z</time>
      </trkpt>
      <trkpt lat="43.014376" lon="-9.136709">
        <ele>186.008</ele>
        <time>2019-06-22T08:41:02Z</time>
      </trkpt>
      <trkpt lat="43.014479" lon="-9.136401">
        <ele>187.957</ele>
        <time>2019-06-22T08:41:03Z</time>
      </trkpt>
      <trkpt lat="43.014578" lon="-9.136097">
        <ele>189.551</ele>
        <time>2019-06-22T08:41:04Z</time>
      </trkpt>
      <trkpt lat="43.014701" lon="-9.135842">
        <ele>190.773</ele>
        <time>2019-06-22T08:41:05Z</time>
      </trkpt>
      <trkpt lat="43.014823" lon="-9.135602">
        <ele>191.195</ele>
        <time>2019-06-22T08:41:06Z</time>
      </trkpt>
      <trkpt lat="43.014937" lon="-9.135353">
        <ele>191.183</ele>
        <time>2019-06-22T08:41:07Z</time>
      </trkpt>
      <trkpt lat="43.015029" lon="-9.135093">
        <ele>190.222</ele>
        <time>2019-06-22T08:41:08Z</time>
      </trkpt>
      <trkpt lat="43.015107" lon="-9.134812">
        <ele>189.367</ele>
        <time>2019-06-22T08:41:09Z</time>
      </trkpt>
      <trkpt lat="43.015160" lon="-9.134520">
        <ele>188.210</ele>
        <time>2019-06-22T08:41:10Z</time>
      </trkpt>
      <trkpt lat="43.015203" lon="-9.134213">
        <ele>187.578</ele>
        <time>2019-06-22T08:41:11Z</time>
      </trkpt>
      <trkpt lat="43.015202" lon="-9.133914">
        <ele>187.333</ele>
        <time>2019-06-22T08:41:12Z</time>
      </trkpt>
      <trkpt lat="43.015172" lon="-9.133623">
        <ele>187.326</ele>
        <time>2019-06-22T08:41:13Z</time>
      </trkpt>
      <trkpt lat="43.015127" lon="-9.133323">
        <ele>186.808</ele>
        <time>2019-06-22T08:41:14Z</time>
      </trkpt>
      <trkpt lat="43.015071" lon="-9.133025">
        <ele>185.690</ele>
        <time>2019-06-22T08:41:15Z</time>
      </trkpt>
      <trkpt lat="43.014950" lon="-9.132792">
        <ele>184.464</ele>
        <time>2019-06-22T08:41:16Z</time>
      </trkpt>
      <trkpt lat="43.014814" lon="-9.132534">
        <ele>183.186</ele>
        <time>2019-06-22T08:41:17Z</time>
      </trkpt>
      <trkpt lat="43.014662" lon="-9.132301">
        <ele>182.288</ele>
        <time>2019-06-22T08:41:18Z</time>
      </trkpt>
      <trkpt lat="43.014500" lon="-9.132088">
        <ele>182.036</ele>
        <time>2019-06-22T08:41:19Z</time>
      </trkpt>
      <trkpt lat="43.014333" lon="-9.131891">
        <ele>181.135</ele>
        <time>2019-06-22T08:41:20Z</time>
      </trkpt>
      <trkpt lat="43.014185" lon="-9.131679">
        <ele>181.160</ele>
        <time>2019-06-22T08:41:21Z</time>
      </trkpt>
      <trkpt lat="43.014048" lon="-9.131464">
        <ele>181.453</ele>
        <time>2019-06-22T08:41:22Z</time>
      </trkpt>
      <trkpt lat="43.013919" lon="-9.131237">
        <ele>181.468</ele>
        <time>2019-06-22T08:41:23Z</time>
      </trkpt>
      <trkpt lat="43.013813" lon="-9.130989">
        <ele>181.542</ele>
        <time>2019-06-22T08:41:24Z</time>
      </trkpt>
      <trkpt lat="43.013737" lon="-9.130717">
        <ele>181.426</ele>
        <time>2019-06-22T08:41:25Z</time>
      </trkpt>
      <trkpt lat="43.013691" lon="-9.130458">
        <ele>180.808</ele>
        <time>2019-06-22T08:41:26Z</time>
      </trkpt>
      <trkpt lat="43.013650" lon="-9.130181">
        <ele>179.659</ele>
        <time>2019-06-22T08:41:27Z</time>
      </trkpt>
      <trkpt lat="43.013644" lon="-9.129893">
        <ele>178.083</ele>
        <time>2019-06-22T08:41:28Z</time>
      </trkpt>
      <trkpt lat="43.013640" lon="-9.129601">
        <ele>176.475</ele>
        <time>2019-06-22T08:41:29Z</time>
      </trkpt>
      <trkpt lat="43.013663" lon="-9.129302">
        <ele>175.097</ele>
        <time>2019-06-22T08:41:30Z</time>
      </trkpt>
      <trkpt lat="43.013708" lon="-9.129021">
        <ele>173.495</ele>
        <time>2019-06-22T08:41:31Z</time>
      </trkpt>
      <trkpt lat="43.013798" lon="-9.128731">
        <ele>171.524</ele>
        <time>2019-06-22T08:41:32Z</time>
      </trkpt>
      <trkpt lat="43.013941" lon="-9.128434">
        <ele>170.499</ele>
        <time>2019-06-22T08:41:33Z</time>
      </trkpt>
      <trkpt lat="43.014086" lon="-9.128150">
        <ele>169.342</ele>
        <time>2019-06-22T08:41:34Z</time>
      </trkpt>
      <trkpt lat="43.014278" lon="-9.127943">
        <ele>167.714</ele>
        <time>2019-06-22T08:41:35Z</time>
      </trkpt>
      <trkpt lat="43.014468" lon="-9.127718">
        <ele>166.354</ele>
        <time>2019-06-22T08:41:36Z</time>
      </trkpt>
      <trkpt lat="43.014675" lon="-9.127529">
        <ele>165.009</ele>
        <time>2019-06-22T08:41:37Z</time>
      </trkpt>
      <trkpt lat="43.014869" lon="-9.127324">
        <ele>163.108</ele>
        <time>2019-06-22T08:41:38Z</time>
      </trkpt>
      <trkpt lat="43.015061" lon="-9.127094">
        <ele>160.484</ele>
        <time>2019-06-22T08:41:39Z</time>
      </trkpt>
      <trkpt lat="43.015225" lon="-9.126888">
        <ele>157.418</ele>
        <time>2019-06-22T08:41:40Z</time>
      </trkpt>
      <trkpt lat="43.015394" lon="-9.126633">
        <ele>154.580</ele>
        <time>2019-06-22T08:41:41Z</time>
      </trkpt>
      <trkpt lat="43.015545" lon="-9.126361">
        <ele>151.552</ele>
        <time>2019-06-22T08:41:42Z</time>
      </trkpt>
      <trkpt lat="43.015681" lon="-9.126071">
        <ele>148.550</ele>
        <time>2019-06-22T08:41:43Z</time>
      </trkpt>
      <trkpt lat="43.015793" lon="-9.125755">
        <ele>146.839</ele>
        <time>2019-06-22T08:41:44Z</time>
      </trkpt>
      <trkpt lat="43.015891" lon="-9.125463">
        <ele>146.234</ele>
        <time>2019-06-22T08:41:45Z</time>
      </trkpt>
      <trkpt lat="43.015977" lon="-9.125142">
        <ele>145.997</ele>
        <time>2019-06-22T08:41:46Z</time>
      </trkpt>
      <trkpt lat="43.016053" lon="-9.124812">
        <ele>145.911</ele>
        <time>2019-06-22T08:41:47Z</time>
      </trkpt>
      <trkpt lat="43.016119" lon="-9.124485">
        <ele>147.321</ele>
        <time>2019-06-22T08:41:48Z</time>
      </trkpt>
      <trkpt lat="43.016178" lon="-9.124161">
        <ele>147.703</ele>
        <time>2019-06-22T08:41:49Z</time>
      </trkpt>
      <trkpt lat="43.016238" lon="-9.123830">
        <ele>147.708</ele>
        <time>2019-06-22T08:41:50Z</time>
      </trkpt>
      <trkpt lat="43.016288" lon="-9.123517">
        <ele>149.174</ele>
        <time>2019-06-22T08:41:51Z</time>
      </trkpt>
      <trkpt lat="43.016345" lon="-9.123204">
        <ele>151.428</ele>
        <time>2019-06-22T08:41:52Z</time>
      </trkpt>
      <trkpt lat="43.016413" lon="-9.122878">
        <ele>153.120</ele>
        <time>2019-06-22T08:41:53Z</time>
      </trkpt>
      <trkpt lat="43.016482" lon="-9.122582">
        <ele>154.542</ele>
        <time>2019-06-22T08:41:54Z</time>
      </trkpt>
      <trkpt lat="43.016528" lon="-9.122297">
        <ele>157.680</ele>
        <time>2019-06-22T08:41:55Z</time>
      </trkpt>
      <trkpt lat="43.016580" lon="-9.122019">
        <ele>160.439</ele>
        <time>2019-06-22T08:41:56Z</time>
      </trkpt>
      <trkpt lat="43.016640" lon="-9.121747">
        <ele>162.224</ele>
        <time>2019-06-22T08:41:57Z</time>
      </trkpt>
      <trkpt lat="43.016694" lon="-9.121487">
        <ele>165.167</ele>
        <time>2019-06-22T08:41:58Z</time>
      </trkpt>
      <trkpt lat="43.016749" lon="-9.121240">
        <ele>167.729</ele>
        <time>2019-06-22T08:41:59Z</time>
      </trkpt>
      <trkpt lat="43.016826" lon="-9.120993">
        <ele>169.800</ele>
        <time>2019-06-22T08:42:00Z</time>
      </trkpt>
      <trkpt lat="43.016940" lon="-9.120750">
        <ele>171.520</ele>
        <time>2019-06-22T08:42:01Z</time>
      </trkpt>
      <trkpt lat="43.017060" lon="-9.120509">
        <ele>173.208</ele>
        <time>2019-06-22T08:42:02Z</time>
      </trkpt>
      <trkpt lat="43.017190" lon="-9.120307">
        <ele>174.865</ele>
        <time>2019-06-22T08:42:03Z</time>
      </trkpt>
      <trkpt lat="43.017330" lon="-9.120110">
        <ele>177.399</ele>
        <time>2019-06-22T08:42:04Z</time>
      </trkpt>
      <trkpt lat="43.017486" lon="-9.119925">
        <ele>179.531</ele>
        <time>2019-06-22T08:42:05Z</time>
      </trkpt>
      <trkpt lat="43.017651" lon="-9.119761">
        <ele>182.243</ele>
        <time>2019-06-22T08:42:06Z</time>
      </trkpt>
      <trkpt lat="43.017832" lon="-9.119627">
        <ele>184.831</ele>
        <time>2019-06-22T08:42:07Z</time>
      </trkpt>
      <trkpt lat="43.018035" lon="-9.119494">
        <ele>186.960</ele>
        <time>2019-06-22T08:42:08Z</time>
      </trkpt>
      <trkpt lat="43.018245" lon="-9.119360">
        <ele>188.965</ele>
        <time>2019-06-22T08:42:09Z</time>
      </trkpt>
      <trkpt lat="43.018445" lon="-9.119248">
        <ele>190.438</ele>
        <time>2019-06-22T08:42:10Z</time>
      </trkpt>
      <trkpt lat="43.018651" lon="-9.119107">
        <ele>191.053</ele>
        <time>2019-06-22T08:42:11Z</time>
      </trkpt>
      <trkpt lat="43.018845" lon="-9.118954">
        <ele>191.904</ele>
        <time>2019-06-22T08:42:12Z</time>
      </trkpt>
      <trkpt lat="43.019036" lon="-9.118789">
        <ele>193.614</ele>
        <time>2019-06-22T08:42:13Z</time>
      </trkpt>
      <trkpt lat="43.019217" lon="-9.118607">
        <ele>193.608</ele>
        <time>2019-06-22T08:42:14Z</time>
      </trkpt>
      <trkpt lat="43.019389" lon="-9.118394">
        <ele>193.378</ele>
        <time>2019-06-22T08:42:15Z</time>
      </trkpt>
      <trkpt lat="43.019546" lon="-9.118172">
        <ele>193.312</ele>
        <time>2019-06-22T08:42:16Z</time>
      </trkpt>
      <trkpt lat="43.019697" lon="-9.117934">
        <ele>194.224</ele>
        <time>2019-06-22T08:42:17Z</time>
      </trkpt>
      <trkpt lat="43.019838" lon="-9.117685">
        <ele>194.776</ele>
        <time>2019-06-22T08:42:18Z</time>
      </trkpt>
      <trkpt lat="43.019962" lon="-9.117416">
        <ele>196.444</ele>
        <time>2019-06-22T08:42:19Z</time>
      </trkpt>
      <trkpt lat="43.020087" lon="-9.117127">
        <ele>199.523</ele>
        <time>2019-06-22T08:42:20Z</time>
      </trkpt>
      <trkpt lat="43.020196" lon="-9.116848">
        <ele>202.418</ele>
        <time>2019-06-22T08:42:21Z</time>
      </trkpt>
      <trkpt lat="43.020307" lon="-9.116534">
        <ele>203.861</ele>
        <time>2019-06-22T08:42:22Z</time>
      </trkpt>
      <trkpt lat="43.020377" lon="-9.116236">
        <ele>205.656</ele>
        <time>2019-06-22T08:42:23Z</time>
      </trkpt>
      <trkpt lat="43.020457" lon="-9.115920">
        <ele>206.259</ele>
        <time>2019-06-22T08:42:24Z</time>
      </trkpt>
      <trkpt lat="43.020540" lon="-9.115612">
        <ele>207.014</ele>
        <time>2019-06-22T08:42:25Z</time>
      </trkpt>
      <trkpt lat="43.020634" lon="-9.115316">
        <ele>207.708</ele>
        <time>2019-06-22T08:42:26Z</time>
      </trkpt>
      <trkpt lat="43.020731" lon="-9.115028">
        <ele>209.648</ele>
        <time>2019-06-22T08:42:27Z</time>
      </trkpt>
      <trkpt lat="43.020828" lon="-9.114763">
        <ele>210.052</ele>
        <time>2019-06-22T08:42:28Z</time>
      </trkpt>
      <trkpt lat="43.020926" lon="-9.114501">
        <ele>210.864</ele>
        <time>2019-06-22T08:42:29Z</time>
      </trkpt>
      <trkpt lat="43.021073" lon="-9.114306">
        <ele>211.776</ele>
        <time>2019-06-22T08:42:30Z</time>
      </trkpt>
      <trkpt lat="43.021246" lon="-9.114122">
        <ele>212.774</ele>
        <time>2019-06-22T08:42:31Z</time>
      </trkpt>
      <trkpt lat="43.021416" lon="-9.113947">
        <ele>213.263</ele>
        <time>2019-06-22T08:42:32Z</time>
      </trkpt>
      <trkpt lat="43.021610" lon="-9.113845">
        <ele>214.168</ele>
        <time>2019-06-22T08:42:33Z</time>
      </trkpt>
      <trkpt lat="43.021790" lon="-9.113723">
        <ele>214.881</ele>
        <time>2019-06-22T08:42:34Z</time>
      </trkpt>
      <trkpt lat="43.021966" lon="-9.113635">
        <ele>214.883</ele>
        <time>2019-06-22T08:42:35Z</time>
      </trkpt>
      <trkpt lat="43.022220" lon="-9.113509">
        <ele>214.825</ele>
        <time>2019-06-22T08:42:36Z</time>
      </trkpt>
      <trkpt lat="43.022461" lon="-9.113387">
        <ele>214.417</ele>
        <time>2019-06-22T08:42:37Z</time>
      </trkpt>
      <trkpt lat="43.022688" lon="-9.113284">
        <ele>214.208</ele>
        <time>2019-06-22T08:42:38Z</time>
      </trkpt>
      <trkpt lat="43.022921" lon="-9.113187">
        <ele>214.081</ele>
        <time>2019-06-22T08:42:39Z</time>
      </trkpt>
      <trkpt lat="43.023137" lon="-9.113086">
        <ele>213.965</ele>
        <time>2019-06-22T08:42:40Z</time>
      </trkpt>
      <trkpt lat="43.023375" lon="-9.112966">
        <ele>213.987</ele>
        <time>2019-06-22T08:42:41Z</time>
      </trkpt>
      <trkpt lat="43.023609" lon="-9.112849">
        <ele>214.229</ele>
        <time>2019-06-22T08:42:42Z</time>
      </trkpt>
      <trkpt lat="43.023840" lon="-9.112738">
        <ele>214.457</ele>
        <time>2019-06-22T08:42:43Z</time>
      </trkpt>
      <trkpt lat="43.024063" lon="-9.112627">
        <ele>215.496</ele>
        <time>2019-06-22T08:42:44Z</time>
      </trkpt>
      <trkpt lat="43.024295" lon="-9.112520">
        <ele>216.391</ele>
        <time>2019-06-22T08:42:45Z</time>
      </trkpt>
      <trkpt lat="43.024520" lon="-9.112407">
        <ele>217.144</ele>
        <time>2019-06-22T08:42:46Z</time>
      </trkpt>
      <trkpt lat="43.024751" lon="-9.112291">
        <ele>218.274</ele>
        <time>2019-06-22T08:42:47Z</time>
      </trkpt>
      <trkpt lat="43.024987" lon="-9.112185">
        <ele>219.456</ele>
        <time>2019-06-22T08:42:48Z</time>
      </trkpt>
      <trkpt lat="43.025209" lon="-9.112079">
        <ele>219.821</ele>
        <time>2019-06-22T08:42:49Z</time>
      </trkpt>
      <trkpt lat="43.025430" lon="-9.111971">
        <ele>220.908</ele>
        <time>2019-06-22T08:42:50Z</time>
      </trkpt>
      <trkpt lat="43.025645" lon="-9.111873">
        <ele>220.970</ele>
        <time>2019-06-22T08:42:51Z</time>
      </trkpt>
      <trkpt lat="43.025859" lon="-9.111774">
        <ele>221.394</ele>
        <time>2019-06-22T08:42:52Z</time>
      </trkpt>
      <trkpt lat="43.026078" lon="-9.111689">
        <ele>221.436</ele>
        <time>2019-06-22T08:42:53Z</time>
      </trkpt>
      <trkpt lat="43.026307" lon="-9.111613">
        <ele>222.078</ele>
        <time>2019-06-22T08:42:54Z</time>
      </trkpt>
      <trkpt lat="43.026548" lon="-9.111578">
        <ele>222.826</ele>
        <time>2019-06-22T08:42:55Z</time>
      </trkpt>
      <trkpt lat="43.026776" lon="-9.111574">
        <ele>223.025</ele>
        <time>2019-06-22T08:42:56Z</time>
      </trkpt>
      <trkpt lat="43.027011" lon="-9.111575">
        <ele>223.590</ele>
        <time>2019-06-22T08:42:57Z</time>
      </trkpt>
      <trkpt lat="43.027253" lon="-9.111619">
        <ele>224.283</ele>
        <time>2019-06-22T08:42:58Z</time>
      </trkpt>
      <trkpt lat="43.027491" lon="-9.111700">
        <ele>224.224</ele>
        <time>2019-06-22T08:42:59Z</time>
      </trkpt>
      <trkpt lat="43.027749" lon="-9.111837">
        <ele>223.804</ele>
        <time>2019-06-22T08:43:00Z</time>
      </trkpt>
      <trkpt lat="43.027968" lon="-9.111983">
        <ele>223.014</ele>
        <time>2019-06-22T08:43:01Z</time>
      </trkpt>
      <trkpt lat="43.028198" lon="-9.112165">
        <ele>222.108</ele>
        <time>2019-06-22T08:43:02Z</time>
      </trkpt>
      <trkpt lat="43.028408" lon="-9.112348">
        <ele>221.395</ele>
        <time>2019-06-22T08:43:03Z</time>
      </trkpt>
      <trkpt lat="43.028622" lon="-9.112520">
        <ele>220.259</ele>
        <time>2019-06-22T08:43:04Z</time>
      </trkpt>
      <trkpt lat="43.028842" lon="-9.112709">
        <ele>218.551</ele>
        <time>2019-06-22T08:43:05Z</time>
      </trkpt>
      <trkpt lat="43.029052" lon="-9.112907">
        <ele>215.593</ele>
        <time>2019-06-22T08:43:06Z</time>
      </trkpt>
      <trkpt lat="43.029240" lon="-9.113117">
        <ele>212.691</ele>
        <time>2019-06-22T08:43:07Z</time>
      </trkpt>
      <trkpt lat="43.029458" lon="-9.113301">
        <ele>209.750</ele>
        <time>2019-06-22T08:43:08Z</time>
      </trkpt>
      <trkpt lat="43.029669" lon="-9.113467">
        <ele>208.265</ele>
        <time>2019-06-22T08:43:09Z</time>
      </trkpt>
      <trkpt lat="43.029895" lon="-9.113618">
        <ele>206.628</ele>
        <time>2019-06-22T08:43:10Z</time>
      </trkpt>
      <trkpt lat="43.030115" lon="-9.113723">
        <ele>206.667</ele>
        <time>2019-06-22T08:43:11Z</time>
      </trkpt>
      <trkpt lat="43.030365" lon="-9.113794">
        <ele>206.981</ele>
        <time>2019-06-22T08:43:12Z</time>
      </trkpt>
      <trkpt lat="43.030599" lon="-9.113825">
        <ele>206.919</ele>
        <time>2019-06-22T08:43:13Z</time>
      </trkpt>
      <trkpt lat="43.030844" lon="-9.113828">
        <ele>206.308</ele>
        <time>2019-06-22T08:43:14Z</time>
      </trkpt>
      <trkpt lat="43.031096" lon="-9.113785">
        <ele>205.949</ele>
        <time>2019-06-22T08:43:15Z</time>
      </trkpt>
      <trkpt lat="43.031352" lon="-9.113703">
        <ele>205.633</ele>
        <time>2019-06-22T08:43:16Z</time>
      </trkpt>
      <trkpt lat="43.031593" lon="-9.113600">
        <ele>205.015</ele>
        <time>2019-06-22T08:43:17Z</time>
      </trkpt>
      <trkpt lat="43.031827" lon="-9.113478">
        <ele>205.097</ele>
        <time>2019-06-22T08:43:18Z</time>
      </trkpt>
      <trkpt lat="43.032046" lon="-9.113353">
        <ele>205.415</ele>
        <time>2019-06-22T08:43:19Z</time>
      </trkpt>
      <trkpt lat="43.032266" lon="-9.113211">
        <ele>206.974</ele>
        <time>2019-06-22T08:43:20Z</time>
      </trkpt>
      <trkpt lat="43.032479" lon="-9.113072">
        <ele>208.459</ele>
        <time>2019-06-22T08:43:21Z</time>
      </trkpt>
      <trkpt lat="43.032693" lon="-9.112927">
        <ele>208.982</ele>
        <time>2019-06-22T08:43:22Z</time>
      </trkpt>
      <trkpt lat="43.032900" lon="-9.112806">
        <ele>208.949</ele>
        <time>2019-06-22T08:43:23Z</time>
      </trkpt>
      <trkpt lat="43.033095" lon="-9.112674">
        <ele>208.702</ele>
        <time>2019-06-22T08:43:24Z</time>
      </trkpt>
      <trkpt lat="43.033287" lon="-9.112561">
        <ele>207.022</ele>
        <time>2019-06-22T08:43:25Z</time>
      </trkpt>
      <trkpt lat="43.033456" lon="-9.112443">
        <ele>205.108</ele>
        <time>2019-06-22T08:43:26Z</time>
      </trkpt>
      <trkpt lat="43.033624" lon="-9.112343">
        <ele>202.977</ele>
        <time>2019-06-22T08:43:27Z</time>
      </trkpt>
      <trkpt lat="43.033798" lon="-9.112236">
        <ele>202.691</ele>
        <time>2019-06-22T08:43:28Z</time>
      </trkpt>
      <trkpt lat="43.033889" lon="-9.112128">
        <ele>202.453</ele>
        <time>2019-06-22T08:43:29Z</time>
      </trkpt>
      <trkpt lat="43.033993" lon="-9.112024">
        <ele>202.485</ele>
        <time>2019-06-22T08:43:30Z</time>
      </trkpt>
      <trkpt lat="43.034084" lon="-9.111915">
        <ele>203.013</ele>
        <time>2019-06-22T08:43:31Z</time>
      </trkpt>
      <trkpt lat="43.034151" lon="-9.111785">
        <ele>204.372</ele>
        <time>2019-06-22T08:43:32Z</time>
      </trkpt>
      <trkpt lat="43.034217" lon="-9.111657">
        <ele>205.827</ele>
        <time>2019-06-22T08:43:33Z</time>
      </trkpt>
      <trkpt lat="43.034275" lon="-9.111506">
        <ele>206.680</ele>
        <time>2019-06-22T08:43:34Z</time>
      </trkpt>
      <trkpt lat="43.034299" lon="-9.111316">
        <ele>206.876</ele>
        <time>2019-06-22T08:43:35Z</time>
      </trkpt>
      <trkpt lat="43.034265" lon="-9.111091">
        <ele>207.190</ele>
        <time>2019-06-22T08:43:36Z</time>
      </trkpt>
      <trkpt lat="43.034245" lon="-9.110880">
        <ele>207.819</ele>
        <time>2019-06-22T08:43:37Z</time>
      </trkpt>
      <trkpt lat="43.034205" lon="-9.110659">
        <ele>208.408</ele>
        <time>2019-06-22T08:43:38Z</time>
      </trkpt>
      <trkpt lat="43.034151" lon="-9.110443">
        <ele>209.360</ele>
        <time>2019-06-22T08:43:39Z</time>
      </trkpt>
      <trkpt lat="43.034123" lon="-9.110191">
        <ele>210.194</ele>
        <time>2019-06-22T08:43:40Z</time>
      </trkpt>
      <trkpt lat="43.034090" lon="-9.109952">
        <ele>210.836</ele>
        <time>2019-06-22T08:43:41Z</time>
      </trkpt>
      <trkpt lat="43.034064" lon="-9.109705">
        <ele>211.018</ele>
        <time>2019-06-22T08:43:42Z</time>
      </trkpt>
      <trkpt lat="43.034038" lon="-9.109452">
        <ele>211.076</ele>
        <time>2019-06-22T08:43:43Z</time>
      </trkpt>
      <trkpt lat="43.034018" lon="-9.109196">
        <ele>211.055</ele>
        <time>2019-06-22T08:43:44Z</time>
      </trkpt>
      <trkpt lat="43.033993" lon="-9.108933">
        <ele>210.760</ele>
        <time>2019-06-22T08:43:45Z</time>
      </trkpt>
      <trkpt lat="43.033967" lon="-9.108667">
        <ele>210.713</ele>
        <time>2019-06-22T08:43:46Z</time>
      </trkpt>
      <trkpt lat="43.033933" lon="-9.108390">
        <ele>209.958</ele>
        <time>2019-06-22T08:43:47Z</time>
      </trkpt>
      <trkpt lat="43.033915" lon="-9.108107">
        <ele>209.552</ele>
        <time>2019-06-22T08:43:48Z</time>
      </trkpt>
      <trkpt lat="43.033883" lon="-9.107814">
        <ele>207.917</ele>
        <time>2019-06-22T08:43:49Z</time>
      </trkpt>
      <trkpt lat="43.033859" lon="-9.107525">
        <ele>207.908</ele>
        <time>2019-06-22T08:43:50Z</time>
      </trkpt>
      <trkpt lat="43.033839" lon="-9.107237">
        <ele>207.038</ele>
        <time>2019-06-22T08:43:51Z</time>
      </trkpt>
      <trkpt lat="43.033822" lon="-9.106954">
        <ele>206.042</ele>
        <time>2019-06-22T08:43:52Z</time>
      </trkpt>
      <trkpt lat="43.033798" lon="-9.106668">
        <ele>205.094</ele>
        <time>2019-06-22T08:43:53Z</time>
      </trkpt>
      <trkpt lat="43.033780" lon="-9.106379">
        <ele>203.156</ele>
        <time>2019-06-22T08:43:54Z</time>
      </trkpt>
      <trkpt lat="43.033758" lon="-9.106084">
        <ele>202.494</ele>
        <time>2019-06-22T08:43:55Z</time>
      </trkpt>
      <trkpt lat="43.033735" lon="-9.105821">
        <ele>202.373</ele>
        <time>2019-06-22T08:43:56Z</time>
      </trkpt>
      <trkpt lat="43.033713" lon="-9.105561">
        <ele>200.848</ele>
        <time>2019-06-22T08:43:57Z</time>
      </trkpt>
      <trkpt lat="43.033681" lon="-9.105280">
        <ele>200.031</ele>
        <time>2019-06-22T08:43:58Z</time>
      </trkpt>
      <trkpt lat="43.033638" lon="-9.104998">
        <ele>200.076</ele>
        <time>2019-06-22T08:43:59Z</time>
      </trkpt>
      <trkpt lat="43.033592" lon="-9.104717">
        <ele>199.890</ele>
        <time>2019-06-22T08:44:00Z</time>
      </trkpt>
      <trkpt lat="43.033537" lon="-9.104425">
        <ele>198.419</ele>
        <time>2019-06-22T08:44:01Z</time>
      </trkpt>
      <trkpt lat="43.033468" lon="-9.104140">
        <ele>198.308</ele>
        <time>2019-06-22T08:44:02Z</time>
      </trkpt>
      <trkpt lat="43.033395" lon="-9.103874">
        <ele>198.350</ele>
        <time>2019-06-22T08:44:03Z</time>
      </trkpt>
      <trkpt lat="43.033310" lon="-9.103610">
        <ele>198.734</ele>
        <time>2019-06-22T08:44:04Z</time>
      </trkpt>
      <trkpt lat="43.033233" lon="-9.103353">
        <ele>198.726</ele>
        <time>2019-06-22T08:44:05Z</time>
      </trkpt>
      <trkpt lat="43.033166" lon="-9.103098">
        <ele>197.898</ele>
        <time>2019-06-22T08:44:06Z</time>
      </trkpt>
      <trkpt lat="43.033098" lon="-9.102842">
        <ele>196.436</ele>
        <time>2019-06-22T08:44:07Z</time>
      </trkpt>
      <trkpt lat="43.033030" lon="-9.102578">
        <ele>195.595</ele>
        <time>2019-06-22T08:44:08Z</time>
      </trkpt>
      <trkpt lat="43.032960" lon="-9.102343">
        <ele>194.860</ele>
        <time>2019-06-22T08:44:09Z</time>
      </trkpt>
      <trkpt lat="43.032908" lon="-9.102128">
        <ele>194.853</ele>
        <time>2019-06-22T08:44:10Z</time>
      </trkpt>
      <trkpt lat="43.032858" lon="-9.101905">
        <ele>197.429</ele>
        <time>2019-06-22T08:44:11Z</time>
      </trkpt>
      <trkpt lat="43.032821" lon="-9.101680">
        <ele>201.100</ele>
        <time>2019-06-22T08:44:12Z</time>
      </trkpt>
      <trkpt lat="43.032788" lon="-9.101465">
        <ele>203.920</ele>
        <time>2019-06-22T08:44:13Z</time>
      </trkpt>
      <trkpt lat="43.032749" lon="-9.101247">
        <ele>207.108</ele>
        <time>2019-06-22T08:44:14Z</time>
      </trkpt>
      <trkpt lat="43.032743" lon="-9.101026">
        <ele>209.545</ele>
        <time>2019-06-22T08:44:15Z</time>
      </trkpt>
      <trkpt lat="43.032736" lon="-9.100810">
        <ele>211.549</ele>
        <time>2019-06-22T08:44:16Z</time>
      </trkpt>
      <trkpt lat="43.032699" lon="-9.100591">
        <ele>212.271</ele>
        <time>2019-06-22T08:44:17Z</time>
      </trkpt>
      <trkpt lat="43.032690" lon="-9.100356">
        <ele>212.253</ele>
        <time>2019-06-22T08:44:18Z</time>
      </trkpt>
      <trkpt lat="43.032660" lon="-9.100110">
        <ele>211.841</ele>
        <time>2019-06-22T08:44:19Z</time>
      </trkpt>
      <trkpt lat="43.032614" lon="-9.099873">
        <ele>211.250</ele>
        <time>2019-06-22T08:44:20Z</time>
      </trkpt>
      <trkpt lat="43.032565" lon="-9.099611">
        <ele>209.615</ele>
        <time>2019-06-22T08:44:21Z</time>
      </trkpt>
      <trkpt lat="43.032504" lon="-9.099367">
        <ele>208.558</ele>
        <time>2019-06-22T08:44:22Z</time>
      </trkpt>
      <trkpt lat="43.032435" lon="-9.099084">
        <ele>208.596</ele>
        <time>2019-06-22T08:44:23Z</time>
      </trkpt>
      <trkpt lat="43.032384" lon="-9.098825">
        <ele>208.531</ele>
        <time>2019-06-22T08:44:24Z</time>
      </trkpt>
      <trkpt lat="43.032347" lon="-9.098548">
        <ele>209.824</ele>
        <time>2019-06-22T08:44:25Z</time>
      </trkpt>
      <trkpt lat="43.032325" lon="-9.098279">
        <ele>212.008</ele>
        <time>2019-06-22T08:44:26Z</time>
      </trkpt>
      <trkpt lat="43.032311" lon="-9.098012">
        <ele>214.632</ele>
        <time>2019-06-22T08:44:27Z</time>
      </trkpt>
      <trkpt lat="43.032327" lon="-9.097731">
        <ele>216.596</ele>
        <time>2019-06-22T08:44:28Z</time>
      </trkpt>
      <trkpt lat="43.032354" lon="-9.097441">
        <ele>218.158</ele>
        <time>2019-06-22T08:44:29Z</time>
      </trkpt>
      <trkpt lat="43.032405" lon="-9.097157">
        <ele>219.280</ele>
        <time>2019-06-22T08:44:30Z</time>
      </trkpt>
      <trkpt lat="43.032472" lon="-9.096870">
        <ele>219.718</ele>
        <time>2019-06-22T08:44:31Z</time>
      </trkpt>
      <trkpt lat="43.032555" lon="-9.096612">
        <ele>219.777</ele>
        <time>2019-06-22T08:44:32Z</time>
      </trkpt>
      <trkpt lat="43.032620" lon="-9.096356">
        <ele>219.742</ele>
        <time>2019-06-22T08:44:33Z</time>
      </trkpt>
      <trkpt lat="43.032674" lon="-9.096062">
        <ele>220.925</ele>
        <time>2019-06-22T08:44:34Z</time>
      </trkpt>
      <trkpt lat="43.032743" lon="-9.095768">
        <ele>221.183</ele>
        <time>2019-06-22T08:44:35Z</time>
      </trkpt>
      <trkpt lat="43.032801" lon="-9.095482">
        <ele>222.225</ele>
        <time>2019-06-22T08:44:36Z</time>
      </trkpt>
      <trkpt lat="43.032861" lon="-9.095215">
        <ele>223.617</ele>
        <time>2019-06-22T08:44:37Z</time>
      </trkpt>
      <trkpt lat="43.032922" lon="-9.094956">
        <ele>225.408</ele>
        <time>2019-06-22T08:44:38Z</time>
      </trkpt>
      <trkpt lat="43.032977" lon="-9.094708">
        <ele>225.441</ele>
        <time>2019-06-22T08:44:39Z</time>
      </trkpt>
      <trkpt lat="43.033018" lon="-9.094473">
        <ele>226.495</ele>
        <time>2019-06-22T08:44:40Z</time>
      </trkpt>
      <trkpt lat="43.033048" lon="-9.094248">
        <ele>227.317</ele>
        <time>2019-06-22T08:44:41Z</time>
      </trkpt>
      <trkpt lat="43.033051" lon="-9.094022">
        <ele>228.559</ele>
        <time>2019-06-22T08:44:42Z</time>
      </trkpt>
      <trkpt lat="43.033035" lon="-9.093808">
        <ele>230.077</ele>
        <time>2019-06-22T08:44:43Z</time>
      </trkpt>
      <trkpt lat="43.033008" lon="-9.093597">
        <ele>232.566</ele>
        <time>2019-06-22T08:44:44Z</time>
      </trkpt>
      <trkpt lat="43.032976" lon="-9.093387">
        <ele>234.381</ele>
        <time>2019-06-22T08:44:45Z</time>
      </trkpt>
      <trkpt lat="43.032842" lon="-9.093241">
        <ele>237.154</ele>
        <time>2019-06-22T08:44:46Z</time>
      </trkpt>
      <trkpt lat="43.032751" lon="-9.093059">
        <ele>239.562</ele>
        <time>2019-06-22T08:44:47Z</time>
      </trkpt>
      <trkpt lat="43.032638" lon="-9.092848">
        <ele>242.083</ele>
        <time>2019-06-22T08:44:48Z</time>
      </trkpt>
      <trkpt lat="43.032530" lon="-9.092643">
        <ele>242.011</ele>
        <time>2019-06-22T08:44:49Z</time>
      </trkpt>
      <trkpt lat="43.032419" lon="-9.092436">
        <ele>244.208</ele>
        <time>2019-06-22T08:44:50Z</time>
      </trkpt>
      <trkpt lat="43.032309" lon="-9.092220">
        <ele>246.529</ele>
        <time>2019-06-22T08:44:51Z</time>
      </trkpt>
      <trkpt lat="43.032185" lon="-9.092012">
        <ele>247.743</ele>
        <time>2019-06-22T08:44:52Z</time>
      </trkpt>
      <trkpt lat="43.032064" lon="-9.091802">
        <ele>247.885</ele>
        <time>2019-06-22T08:44:53Z</time>
      </trkpt>
      <trkpt lat="43.031943" lon="-9.091588">
        <ele>248.047</ele>
        <time>2019-06-22T08:44:54Z</time>
      </trkpt>
      <trkpt lat="43.031825" lon="-9.091373">
        <ele>248.955</ele>
        <time>2019-06-22T08:44:55Z</time>
      </trkpt>
      <trkpt lat="43.031714" lon="-9.091172">
        <ele>249.134</ele>
        <time>2019-06-22T08:44:56Z</time>
      </trkpt>
      <trkpt lat="43.031601" lon="-9.090972">
        <ele>249.739</ele>
        <time>2019-06-22T08:44:57Z</time>
      </trkpt>
      <trkpt lat="43.031506" lon="-9.090818">
        <ele>250.422</ele>
        <time>2019-06-22T08:44:58Z</time>
      </trkpt>
      <trkpt lat="43.031412" lon="-9.090643">
        <ele>251.915</ele>
        <time>2019-06-22T08:44:59Z</time>
      </trkpt>
      <trkpt lat="43.031332" lon="-9.090457">
        <ele>252.965</ele>
        <time>2019-06-22T08:45:00Z</time>
      </trkpt>
      <trkpt lat="43.031254" lon="-9.090277">
        <ele>254.811</ele>
        <time>2019-06-22T08:45:01Z</time>
      </trkpt>
      <trkpt lat="43.031228" lon="-9.090076">
        <ele>257.008</ele>
        <time>2019-06-22T08:45:02Z</time>
      </trkpt>
      <trkpt lat="43.031182" lon="-9.089872">
        <ele>259.874</ele>
        <time>2019-06-22T08:45:03Z</time>
      </trkpt>
      <trkpt lat="43.031142" lon="-9.089636">
        <ele>262.388</ele>
        <time>2019-06-22T08:45:04Z</time>
      </trkpt>
      <trkpt lat="43.031178" lon="-9.089431">
        <ele>264.530</ele>
        <time>2019-06-22T08:45:05Z</time>
      </trkpt>
      <trkpt lat="43.031197" lon="-9.089202">
        <ele>265.932</ele>
        <time>2019-06-22T08:45:06Z</time>
      </trkpt>
      <trkpt lat="43.031189" lon="-9.088992">
        <ele>267.060</ele>
        <time>2019-06-22T08:45:07Z</time>
      </trkpt>
      <trkpt lat="43.031257" lon="-9.088776">
        <ele>268.149</ele>
        <time>2019-06-22T08:45:08Z</time>
      </trkpt>
      <trkpt lat="43.031332" lon="-9.088573">
        <ele>269.084</ele>
        <time>2019-06-22T08:45:09Z</time>
      </trkpt>
      <trkpt lat="43.031452" lon="-9.088360">
        <ele>269.167</ele>
        <time>2019-06-22T08:45:10Z</time>
      </trkpt>
      <trkpt lat="43.031553" lon="-9.088138">
        <ele>269.965</ele>
        <time>2019-06-22T08:45:11Z</time>
      </trkpt>
      <trkpt lat="43.031665" lon="-9.087859">
        <ele>270.268</ele>
        <time>2019-06-22T08:45:12Z</time>
      </trkpt>
      <trkpt lat="43.031801" lon="-9.087604">
        <ele>270.714</ele>
        <time>2019-06-22T08:45:13Z</time>
      </trkpt>
      <trkpt lat="43.031932" lon="-9.087342">
        <ele>271.308</ele>
        <time>2019-06-22T08:45:14Z</time>
      </trkpt>
      <trkpt lat="43.032053" lon="-9.087091">
        <ele>271.349</ele>
        <time>2019-06-22T08:45:15Z</time>
      </trkpt>
      <trkpt lat="43.032168" lon="-9.086840">
        <ele>271.073</ele>
        <time>2019-06-22T08:45:16Z</time>
      </trkpt>
      <trkpt lat="43.032298" lon="-9.086561">
        <ele>270.925</ele>
        <time>2019-06-22T08:45:17Z</time>
      </trkpt>
      <trkpt lat="43.032425" lon="-9.086267">
        <ele>270.687</ele>
        <time>2019-06-22T08:45:18Z</time>
      </trkpt>
      <trkpt lat="43.032550" lon="-9.085977">
        <ele>270.655</ele>
        <time>2019-06-22T08:45:19Z</time>
      </trkpt>
      <trkpt lat="43.032670" lon="-9.085685">
        <ele>271.144</ele>
        <time>2019-06-22T08:45:20Z</time>
      </trkpt>
      <trkpt lat="43.032801" lon="-9.085400">
        <ele>271.119</ele>
        <time>2019-06-22T08:45:21Z</time>
      </trkpt>
      <trkpt lat="43.032925" lon="-9.085106">
        <ele>270.062</ele>
        <time>2019-06-22T08:45:22Z</time>
      </trkpt>
      <trkpt lat="43.033052" lon="-9.084838">
        <ele>269.425</ele>
        <time>2019-06-22T08:45:23Z</time>
      </trkpt>
      <trkpt lat="43.033174" lon="-9.084553">
        <ele>268.626</ele>
        <time>2019-06-22T08:45:24Z</time>
      </trkpt>
      <trkpt lat="43.033297" lon="-9.084269">
        <ele>266.508</ele>
        <time>2019-06-22T08:45:25Z</time>
      </trkpt>
      <trkpt lat="43.033429" lon="-9.083978">
        <ele>265.208</ele>
        <time>2019-06-22T08:45:26Z</time>
      </trkpt>
      <trkpt lat="43.033553" lon="-9.083694">
        <ele>264.635</ele>
        <time>2019-06-22T08:45:27Z</time>
      </trkpt>
      <trkpt lat="43.033681" lon="-9.083401">
        <ele>263.629</ele>
        <time>2019-06-22T08:45:28Z</time>
      </trkpt>
      <trkpt lat="43.033804" lon="-9.083108">
        <ele>263.481</ele>
        <time>2019-06-22T08:45:29Z</time>
      </trkpt>
      <trkpt lat="43.033923" lon="-9.082822">
        <ele>263.493</ele>
        <time>2019-06-22T08:45:30Z</time>
      </trkpt>
      <trkpt lat="43.034044" lon="-9.082531">
        <ele>264.951</ele>
        <time>2019-06-22T08:45:31Z</time>
      </trkpt>
      <trkpt lat="43.034170" lon="-9.082236">
        <ele>265.120</ele>
        <time>2019-06-22T08:45:32Z</time>
      </trkpt>
      <trkpt lat="43.034303" lon="-9.081935">
        <ele>266.755</ele>
        <time>2019-06-22T08:45:33Z</time>
      </trkpt>
      <trkpt lat="43.034432" lon="-9.081634">
        <ele>267.738</ele>
        <time>2019-06-22T08:45:34Z</time>
      </trkpt>
      <trkpt lat="43.034549" lon="-9.081338">
        <ele>267.748</ele>
        <time>2019-06-22T08:45:35Z</time>
      </trkpt>
      <trkpt lat="43.034678" lon="-9.081040">
        <ele>267.761</ele>
        <time>2019-06-22T08:45:36Z</time>
      </trkpt>
      <trkpt lat="43.034809" lon="-9.080737">
        <ele>268.017</ele>
        <time>2019-06-22T08:45:37Z</time>
      </trkpt>
      <trkpt lat="43.034941" lon="-9.080434">
        <ele>268.008</ele>
        <time>2019-06-22T08:45:38Z</time>
      </trkpt>
      <trkpt lat="43.035077" lon="-9.080129">
        <ele>267.877</ele>
        <time>2019-06-22T08:45:39Z</time>
      </trkpt>
      <trkpt lat="43.035207" lon="-9.079804">
        <ele>267.251</ele>
        <time>2019-06-22T08:45:40Z</time>
      </trkpt>
      <trkpt lat="43.035339" lon="-9.079489">
        <ele>265.723</ele>
        <time>2019-06-22T08:45:41Z</time>
      </trkpt>
      <trkpt lat="43.035470" lon="-9.079173">
        <ele>265.735</ele>
        <time>2019-06-22T08:45:42Z</time>
      </trkpt>
      <trkpt lat="43.035612" lon="-9.078879">
        <ele>265.873</ele>
        <time>2019-06-22T08:45:43Z</time>
      </trkpt>
      <trkpt lat="43.035749" lon="-9.078560">
        <ele>266.422</ele>
        <time>2019-06-22T08:45:44Z</time>
      </trkpt>
      <trkpt lat="43.035884" lon="-9.078249">
        <ele>267.167</ele>
        <time>2019-06-22T08:45:45Z</time>
      </trkpt>
      <trkpt lat="43.036031" lon="-9.077926">
        <ele>268.630</ele>
        <time>2019-06-22T08:45:46Z</time>
      </trkpt>
      <trkpt lat="43.036168" lon="-9.077618">
        <ele>268.711</ele>
        <time>2019-06-22T08:45:47Z</time>
      </trkpt>
      <trkpt lat="43.036299" lon="-9.077304">
        <ele>268.721</ele>
        <time>2019-06-22T08:45:48Z</time>
      </trkpt>
      <trkpt lat="43.036436" lon="-9.076989">
        <ele>268.803</ele>
        <time>2019-06-22T08:45:49Z</time>
      </trkpt>
      <trkpt lat="43.036572" lon="-9.076692">
        <ele>268.808</ele>
        <time>2019-06-22T08:45:50Z</time>
      </trkpt>
      <trkpt lat="43.036705" lon="-9.076390">
        <ele>268.814</ele>
        <time>2019-06-22T08:45:51Z</time>
      </trkpt>
      <trkpt lat="43.036849" lon="-9.076062">
        <ele>269.078</ele>
        <time>2019-06-22T08:45:52Z</time>
      </trkpt>
      <trkpt lat="43.036985" lon="-9.075754">
        <ele>269.020</ele>
        <time>2019-06-22T08:45:53Z</time>
      </trkpt>
      <trkpt lat="43.037104" lon="-9.075463">
        <ele>269.072</ele>
        <time>2019-06-22T08:45:54Z</time>
      </trkpt>
      <trkpt lat="43.037228" lon="-9.075160">
        <ele>269.620</ele>
        <time>2019-06-22T08:45:55Z</time>
      </trkpt>
      <trkpt lat="43.037359" lon="-9.074858">
        <ele>271.749</ele>
        <time>2019-06-22T08:45:56Z</time>
      </trkpt>
      <trkpt lat="43.037478" lon="-9.074574">
        <ele>273.014</ele>
        <time>2019-06-22T08:45:57Z</time>
      </trkpt>
      <trkpt lat="43.037598" lon="-9.074286">
        <ele>275.757</ele>
        <time>2019-06-22T08:45:58Z</time>
      </trkpt>
      <trkpt lat="43.037718" lon="-9.074001">
        <ele>278.887</ele>
        <time>2019-06-22T08:45:59Z</time>
      </trkpt>
      <trkpt lat="43.037837" lon="-9.073715">
        <ele>280.342</ele>
        <time>2019-06-22T08:46:00Z</time>
      </trkpt>
      <trkpt lat="43.037962" lon="-9.073424">
        <ele>281.026</ele>
        <time>2019-06-22T08:46:01Z</time>
      </trkpt>
      <trkpt lat="43.038085" lon="-9.073135">
        <ele>281.908</ele>
        <time>2019-06-22T08:46:02Z</time>
      </trkpt>
      <trkpt lat="43.038212" lon="-9.072846">
        <ele>282.921</ele>
        <time>2019-06-22T08:46:03Z</time>
      </trkpt>
      <trkpt lat="43.038338" lon="-9.072564">
        <ele>283.775</ele>
        <time>2019-06-22T08:46:04Z</time>
      </trkpt>
      <trkpt lat="43.038461" lon="-9.072273">
        <ele>284.017</ele>
        <time>2019-06-22T08:46:05Z</time>
      </trkpt>
      <trkpt lat="43.038588" lon="-9.071988">
        <ele>284.529</ele>
        <time>2019-06-22T08:46:06Z</time>
      </trkpt>
      <trkpt lat="43.038706" lon="-9.071707">
        <ele>285.167</ele>
        <time>2019-06-22T08:46:07Z</time>
      </trkpt>
      <trkpt lat="43.038851" lon="-9.071403">
        <ele>285.286</ele>
        <time>2019-06-22T08:46:08Z</time>
      </trkpt>
      <trkpt lat="43.038966" lon="-9.071145">
        <ele>285.351</ele>
        <time>2019-06-22T08:46:09Z</time>
      </trkpt>
      <trkpt lat="43.039072" lon="-9.070907">
        <ele>285.884</ele>
        <time>2019-06-22T08:46:10Z</time>
      </trkpt>
      <trkpt lat="43.039170" lon="-9.070678">
        <ele>286.954</ele>
        <time>2019-06-22T08:46:11Z</time>
      </trkpt>
      <trkpt lat="43.039259" lon="-9.070462">
        <ele>287.856</ele>
        <time>2019-06-22T08:46:12Z</time>
      </trkpt>
      <trkpt lat="43.039353" lon="-9.070244">
        <ele>288.911</ele>
        <time>2019-06-22T08:46:13Z</time>
      </trkpt>
      <trkpt lat="43.039458" lon="-9.070023">
        <ele>291.608</ele>
        <time>2019-06-22T08:46:14Z</time>
      </trkpt>
      <trkpt lat="43.039532" lon="-9.069844">
        <ele>293.298</ele>
        <time>2019-06-22T08:46:15Z</time>
      </trkpt>
      <trkpt lat="43.039607" lon="-9.069675">
        <ele>293.812</ele>
        <time>2019-06-22T08:46:16Z</time>
      </trkpt>
      <trkpt lat="43.039654" lon="-9.069511">
        <ele>294.584</ele>
        <time>2019-06-22T08:46:17Z</time>
      </trkpt>
      <trkpt lat="43.039688" lon="-9.069361">
        <ele>295.936</ele>
        <time>2019-06-22T08:46:18Z</time>
      </trkpt>
      <trkpt lat="43.039688" lon="-9.069258">
        <ele>296.924</ele>
        <time>2019-06-22T08:46:19Z</time>
      </trkpt>
      <trkpt lat="43.039678" lon="-9.069194">
        <ele>298.863</ele>
        <time>2019-06-22T08:46:20Z</time>
      </trkpt>
      <trkpt lat="43.039650" lon="-9.069094">
        <ele>301.768</ele>
        <time>2019-06-22T08:46:21Z</time>
      </trkpt>
      <trkpt lat="43.039556" lon="-9.069026">
        <ele>304.391</ele>
        <time>2019-06-22T08:46:22Z</time>
      </trkpt>
      <trkpt lat="43.039466" lon="-9.068954">
        <ele>306.341</ele>
        <time>2019-06-22T08:46:23Z</time>
      </trkpt>
      <trkpt lat="43.039368" lon="-9.068866">
        <ele>307.581</ele>
        <time>2019-06-22T08:46:24Z</time>
      </trkpt>
      <trkpt lat="43.039246" lon="-9.068764">
        <ele>307.709</ele>
        <time>2019-06-22T08:46:25Z</time>
      </trkpt>
      <trkpt lat="43.039112" lon="-9.068655">
        <ele>308.108</ele>
        <time>2019-06-22T08:46:26Z</time>
      </trkpt>
      <trkpt lat="43.038974" lon="-9.068545">
        <ele>308.117</ele>
        <time>2019-06-22T08:46:27Z</time>
      </trkpt>
      <trkpt lat="43.038832" lon="-9.068435">
        <ele>308.181</ele>
        <time>2019-06-22T08:46:28Z</time>
      </trkpt>
      <trkpt lat="43.038676" lon="-9.068319">
        <ele>307.973</ele>
        <time>2019-06-22T08:46:29Z</time>
      </trkpt>
      <trkpt lat="43.038517" lon="-9.068217">
        <ele>307.955</ele>
        <time>2019-06-22T08:46:30Z</time>
      </trkpt>
      <trkpt lat="43.038356" lon="-9.068120">
        <ele>308.353</ele>
        <time>2019-06-22T08:46:31Z</time>
      </trkpt>
      <trkpt lat="43.038174" lon="-9.068033">
        <ele>309.112</ele>
        <time>2019-06-22T08:46:32Z</time>
      </trkpt>
      <trkpt lat="43.037988" lon="-9.067939">
        <ele>309.267</ele>
        <time>2019-06-22T08:46:33Z</time>
      </trkpt>
      <trkpt lat="43.037796" lon="-9.067858">
        <ele>310.070</ele>
        <time>2019-06-22T08:46:34Z</time>
      </trkpt>
      <trkpt lat="43.037605" lon="-9.067754">
        <ele>311.043</ele>
        <time>2019-06-22T08:46:35Z</time>
      </trkpt>
      <trkpt lat="43.037410" lon="-9.067635">
        <ele>311.364</ele>
        <time>2019-06-22T08:46:36Z</time>
      </trkpt>
      <trkpt lat="43.037223" lon="-9.067488">
        <ele>312.210</ele>
        <time>2019-06-22T08:46:37Z</time>
      </trkpt>
      <trkpt lat="43.037050" lon="-9.067334">
        <ele>313.308</ele>
        <time>2019-06-22T08:46:38Z</time>
      </trkpt>
      <trkpt lat="43.036877" lon="-9.067162">
        <ele>315.257</ele>
        <time>2019-06-22T08:46:39Z</time>
      </trkpt>
      <trkpt lat="43.036706" lon="-9.066974">
        <ele>317.341</ele>
        <time>2019-06-22T08:46:40Z</time>
      </trkpt>
      <trkpt lat="43.036515" lon="-9.066789">
        <ele>319.043</ele>
        <time>2019-06-22T08:46:41Z</time>
      </trkpt>
      <trkpt lat="43.036387" lon="-9.066553">
        <ele>320.145</ele>
        <time>2019-06-22T08:46:42Z</time>
      </trkpt>
      <trkpt lat="43.036238" lon="-9.066328">
        <ele>320.893</ele>
        <time>2019-06-22T08:46:43Z</time>
      </trkpt>
      <trkpt lat="43.036108" lon="-9.066092">
        <ele>322.212</ele>
        <time>2019-06-22T08:46:44Z</time>
      </trkpt>
      <trkpt lat="43.035982" lon="-9.065847">
        <ele>323.037</ele>
        <time>2019-06-22T08:46:45Z</time>
      </trkpt>
      <trkpt lat="43.035851" lon="-9.065599">
        <ele>324.920</ele>
        <time>2019-06-22T08:46:46Z</time>
      </trkpt>
      <trkpt lat="43.035751" lon="-9.065337">
        <ele>327.079</ele>
        <time>2019-06-22T08:46:47Z</time>
      </trkpt>
      <trkpt lat="43.035629" lon="-9.065098">
        <ele>329.305</ele>
        <time>2019-06-22T08:46:48Z</time>
      </trkpt>
      <trkpt lat="43.035518" lon="-9.064850">
        <ele>330.925</ele>
        <time>2019-06-22T08:46:49Z</time>
      </trkpt>
      <trkpt lat="43.035401" lon="-9.064603">
        <ele>332.708</ele>
        <time>2019-06-22T08:46:50Z</time>
      </trkpt>
      <trkpt lat="43.035289" lon="-9.064351">
        <ele>332.750</ele>
        <time>2019-06-22T08:46:51Z</time>
      </trkpt>
      <trkpt lat="43.035189" lon="-9.064136">
        <ele>334.224</ele>
        <time>2019-06-22T08:46:52Z</time>
      </trkpt>
      <trkpt lat="43.035071" lon="-9.063897">
        <ele>334.216</ele>
        <time>2019-06-22T08:46:53Z</time>
      </trkpt>
      <trkpt lat="43.034920" lon="-9.063624">
        <ele>335.618</ele>
        <time>2019-06-22T08:46:54Z</time>
      </trkpt>
      <trkpt lat="43.034796" lon="-9.063365">
        <ele>337.076</ele>
        <time>2019-06-22T08:46:55Z</time>
      </trkpt>
      <trkpt lat="43.034669" lon="-9.063116">
        <ele>338.875</ele>
        <time>2019-06-22T08:46:56Z</time>
      </trkpt>
      <trkpt lat="43.034547" lon="-9.062859">
        <ele>341.280</ele>
        <time>2019-06-22T08:46:57Z</time>
      </trkpt>
      <trkpt lat="43.034443" lon="-9.062605">
        <ele>343.663</ele>
        <time>2019-06-22T08:46:58Z</time>
      </trkpt>
      <trkpt lat="43.034330" lon="-9.062346">
        <ele>345.758</ele>
        <time>2019-06-22T08:46:59Z</time>
      </trkpt>
      <trkpt lat="43.034224" lon="-9.062067">
        <ele>347.752</ele>
        <time>2019-06-22T08:47:00Z</time>
      </trkpt>
      <trkpt lat="43.034182" lon="-9.061780">
        <ele>351.317</ele>
        <time>2019-06-22T08:47:01Z</time>
      </trkpt>
      <trkpt lat="43.034149" lon="-9.061493">
        <ele>351.308</ele>
        <time>2019-06-22T08:47:02Z</time>
      </trkpt>
      <trkpt lat="43.034072" lon="-9.061177">
        <ele>352.878</ele>
        <time>2019-06-22T08:47:03Z</time>
      </trkpt>
      <trkpt lat="43.034040" lon="-9.060877">
        <ele>354.212</ele>
        <time>2019-06-22T08:47:04Z</time>
      </trkpt>
      <trkpt lat="43.033986" lon="-9.060569">
        <ele>355.554</ele>
        <time>2019-06-22T08:47:05Z</time>
      </trkpt>
      <trkpt lat="43.033938" lon="-9.060261">
        <ele>357.016</ele>
        <time>2019-06-22T08:47:06Z</time>
      </trkpt>
      <trkpt lat="43.033881" lon="-9.059948">
        <ele>358.584</ele>
        <time>2019-06-22T08:47:07Z</time>
      </trkpt>
      <trkpt lat="43.033830" lon="-9.059627">
        <ele>360.283</ele>
        <time>2019-06-22T08:47:08Z</time>
      </trkpt>
      <trkpt lat="43.033792" lon="-9.059319">
        <ele>362.068</ele>
        <time>2019-06-22T08:47:09Z</time>
      </trkpt>
      <trkpt lat="43.033752" lon="-9.059018">
        <ele>364.281</ele>
        <time>2019-06-22T08:47:10Z</time>
      </trkpt>
      <trkpt lat="43.033711" lon="-9.058714">
        <ele>365.322</ele>
        <time>2019-06-22T08:47:11Z</time>
      </trkpt>
      <trkpt lat="43.033684" lon="-9.058412">
        <ele>367.362</ele>
        <time>2019-06-22T08:47:12Z</time>
      </trkpt>
      <trkpt lat="43.033672" lon="-9.058120">
        <ele>368.508</ele>
        <time>2019-06-22T08:47:13Z</time>
      </trkpt>
      <trkpt lat="43.033642" lon="-9.057854">
        <ele>369.208</ele>
        <time>2019-06-22T08:47:14Z</time>
      </trkpt>
      <trkpt lat="43.033600" lon="-9.057590">
        <ele>370.725</ele>
        <time>2019-06-22T08:47:15Z</time>
      </trkpt>
      <trkpt lat="43.033569" lon="-9.057337">
        <ele>373.149</ele>
        <time>2019-06-22T08:47:16Z</time>
      </trkpt>
      <trkpt lat="43.033539" lon="-9.057086">
        <ele>375.081</ele>
        <time>2019-06-22T08:47:17Z</time>
      </trkpt>
      <trkpt lat="43.033522" lon="-9.056840">
        <ele>377.373</ele>
        <time>2019-06-22T08:47:18Z</time>
      </trkpt>
      <trkpt lat="43.033516" lon="-9.056584">
        <ele>380.221</ele>
        <time>2019-06-22T08:47:19Z</time>
      </trkpt>
      <trkpt lat="43.033518" lon="-9.056323">
        <ele>381.940</ele>
        <time>2019-06-22T08:47:20Z</time>
      </trkpt>
      <trkpt lat="43.033548" lon="-9.056063">
        <ele>382.835</ele>
        <time>2019-06-22T08:47:21Z</time>
      </trkpt>
      <trkpt lat="43.033583" lon="-9.055815">
        <ele>383.738</ele>
        <time>2019-06-22T08:47:22Z</time>
      </trkpt>
      <trkpt lat="43.033623" lon="-9.055551">
        <ele>383.773</ele>
        <time>2019-06-22T08:47:23Z</time>
      </trkpt>
      <trkpt lat="43.033643" lon="-9.055285">
        <ele>383.485</ele>
        <time>2019-06-22T08:47:24Z</time>
      </trkpt>
      <trkpt lat="43.033660" lon="-9.055000">
        <ele>382.313</ele>
        <time>2019-06-22T08:47:25Z</time>
      </trkpt>
      <trkpt lat="43.033653" lon="-9.054724">
        <ele>381.508</ele>
        <time>2019-06-22T08:47:26Z</time>
      </trkpt>
      <trkpt lat="43.033642" lon="-9.054455">
        <ele>379.580</ele>
        <time>2019-06-22T08:47:27Z</time>
      </trkpt>
      <trkpt lat="43.033607" lon="-9.054192">
        <ele>378.774</ele>
        <time>2019-06-22T08:47:28Z</time>
      </trkpt>
      <trkpt lat="43.033576" lon="-9.053912">
        <ele>378.776</ele>
        <time>2019-06-22T08:47:29Z</time>
      </trkpt>
      <trkpt lat="43.033524" lon="-9.053628">
        <ele>380.158</ele>
        <time>2019-06-22T08:47:30Z</time>
      </trkpt>
      <trkpt lat="43.033474" lon="-9.053351">
        <ele>381.826</ele>
        <time>2019-06-22T08:47:31Z</time>
      </trkpt>
      <trkpt lat="43.033427" lon="-9.053047">
        <ele>384.385</ele>
        <time>2019-06-22T08:47:32Z</time>
      </trkpt>
      <trkpt lat="43.033384" lon="-9.052749">
        <ele>385.880</ele>
        <time>2019-06-22T08:47:33Z</time>
      </trkpt>
      <trkpt lat="43.033348" lon="-9.052452">
        <ele>386.573</ele>
        <time>2019-06-22T08:47:34Z</time>
      </trkpt>
      <trkpt lat="43.033313" lon="-9.052169">
        <ele>386.843</ele>
        <time>2019-06-22T08:47:35Z</time>
      </trkpt>
      <trkpt lat="43.033287" lon="-9.051886">
        <ele>387.364</ele>
        <time>2019-06-22T08:47:36Z</time>
      </trkpt>
      <trkpt lat="43.033267" lon="-9.051603">
        <ele>388.310</ele>
        <time>2019-06-22T08:47:37Z</time>
      </trkpt>
      <trkpt lat="43.033252" lon="-9.051312">
        <ele>389.808</ele>
        <time>2019-06-22T08:47:38Z</time>
      </trkpt>
      <trkpt lat="43.033239" lon="-9.051017">
        <ele>392.247</ele>
        <time>2019-06-22T08:47:39Z</time>
      </trkpt>
      <trkpt lat="43.033232" lon="-9.050723">
        <ele>394.151</ele>
        <time>2019-06-22T08:47:40Z</time>
      </trkpt>
      <trkpt lat="43.033229" lon="-9.050421">
        <ele>396.153</ele>
        <time>2019-06-22T08:47:41Z</time>
      </trkpt>
      <trkpt lat="43.033241" lon="-9.050134">
        <ele>396.665</ele>
        <time>2019-06-22T08:47:42Z</time>
      </trkpt>
      <trkpt lat="43.033259" lon="-9.049880">
        <ele>398.633</ele>
        <time>2019-06-22T08:47:43Z</time>
      </trkpt>
      <trkpt lat="43.033303" lon="-9.049629">
        <ele>400.692</ele>
        <time>2019-06-22T08:47:44Z</time>
      </trkpt>
      <trkpt lat="43.033354" lon="-9.049389">
        <ele>401.397</ele>
        <time>2019-06-22T08:47:45Z</time>
      </trkpt>
      <trkpt lat="43.033423" lon="-9.049166">
        <ele>401.960</ele>
        <time>2019-06-22T08:47:46Z</time>
      </trkpt>
      <trkpt lat="43.033506" lon="-9.048947">
        <ele>402.862</ele>
        <time>2019-06-22T08:47:47Z</time>
      </trkpt>
      <trkpt lat="43.033602" lon="-9.048736">
        <ele>402.883</ele>
        <time>2019-06-22T08:47:48Z</time>
      </trkpt>
      <trkpt lat="43.033728" lon="-9.048524">
        <ele>401.711</ele>
        <time>2019-06-22T08:47:49Z</time>
      </trkpt>
      <trkpt lat="43.033862" lon="-9.048315">
        <ele>401.408</ele>
        <time>2019-06-22T08:47:50Z</time>
      </trkpt>
      <trkpt lat="43.034022" lon="-9.048197">
        <ele>400.569</ele>
        <time>2019-06-22T08:47:51Z</time>
      </trkpt>
      <trkpt lat="43.034196" lon="-9.048020">
        <ele>400.563</ele>
        <time>2019-06-22T08:47:52Z</time>
      </trkpt>
      <trkpt lat="43.034365" lon="-9.047869">
        <ele>399.985</ele>
        <time>2019-06-22T08:47:53Z</time>
      </trkpt>
      <trkpt lat="43.034538" lon="-9.047709">
        <ele>398.387</ele>
        <time>2019-06-22T08:47:54Z</time>
      </trkpt>
      <trkpt lat="43.034711" lon="-9.047555">
        <ele>395.215</ele>
        <time>2019-06-22T08:47:55Z</time>
      </trkpt>
      <trkpt lat="43.034894" lon="-9.047381">
        <ele>392.964</ele>
        <time>2019-06-22T08:47:56Z</time>
      </trkpt>
      <trkpt lat="43.035047" lon="-9.047193">
        <ele>390.749</ele>
        <time>2019-06-22T08:47:57Z</time>
      </trkpt>
      <trkpt lat="43.035199" lon="-9.046970">
        <ele>387.412</ele>
        <time>2019-06-22T08:47:58Z</time>
      </trkpt>
      <trkpt lat="43.035350" lon="-9.046728">
        <ele>384.292</ele>
        <time>2019-06-22T08:47:59Z</time>
      </trkpt>
      <trkpt lat="43.035492" lon="-9.046464">
        <ele>381.973</ele>
        <time>2019-06-22T08:48:00Z</time>
      </trkpt>
      <trkpt lat="43.035616" lon="-9.046204">
        <ele>379.420</ele>
        <time>2019-06-22T08:48:01Z</time>
      </trkpt>
      <trkpt lat="43.035713" lon="-9.045916">
        <ele>375.408</ele>
        <time>2019-06-22T08:48:02Z</time>
      </trkpt>
      <trkpt lat="43.035804" lon="-9.045608">
        <ele>373.682</ele>
        <time>2019-06-22T08:48:03Z</time>
      </trkpt>
      <trkpt lat="43.035872" lon="-9.045307">
        <ele>371.126</ele>
        <time>2019-06-22T08:48:04Z</time>
      </trkpt>
      <trkpt lat="43.035914" lon="-9.045002">
        <ele>366.518</ele>
        <time>2019-06-22T08:48:05Z</time>
      </trkpt>
      <trkpt lat="43.035938" lon="-9.044678">
        <ele>363.920</ele>
        <time>2019-06-22T08:48:06Z</time>
      </trkpt>
      <trkpt lat="43.035945" lon="-9.044341">
        <ele>363.078</ele>
        <time>2019-06-22T08:48:07Z</time>
      </trkpt>
      <trkpt lat="43.035941" lon="-9.044005">
        <ele>361.337</ele>
        <time>2019-06-22T08:48:08Z</time>
      </trkpt>
      <trkpt lat="43.035916" lon="-9.043657">
        <ele>358.582</ele>
        <time>2019-06-22T08:48:09Z</time>
      </trkpt>
      <trkpt lat="43.035875" lon="-9.043315">
        <ele>357.265</ele>
        <time>2019-06-22T08:48:10Z</time>
      </trkpt>
      <trkpt lat="43.035824" lon="-9.042974">
        <ele>355.247</ele>
        <time>2019-06-22T08:48:11Z</time>
      </trkpt>
      <trkpt lat="43.035757" lon="-9.042620">
        <ele>351.829</ele>
        <time>2019-06-22T08:48:12Z</time>
      </trkpt>
      <trkpt lat="43.035689" lon="-9.042262">
        <ele>348.421</ele>
        <time>2019-06-22T08:48:13Z</time>
      </trkpt>
      <trkpt lat="43.035624" lon="-9.041892">
        <ele>347.608</ele>
        <time>2019-06-22T08:48:14Z</time>
      </trkpt>
      <trkpt lat="43.035566" lon="-9.041530">
        <ele>347.637</ele>
        <time>2019-06-22T08:48:15Z</time>
      </trkpt>
      <trkpt lat="43.035504" lon="-9.041169">
        <ele>346.751</ele>
        <time>2019-06-22T08:48:16Z</time>
      </trkpt>
      <trkpt lat="43.035460" lon="-9.040807">
        <ele>346.253</ele>
        <time>2019-06-22T08:48:17Z</time>
      </trkpt>
      <trkpt lat="43.035397" lon="-9.040446">
        <ele>345.975</ele>
        <time>2019-06-22T08:48:18Z</time>
      </trkpt>
      <trkpt lat="43.035355" lon="-9.040064">
        <ele>345.053</ele>
        <time>2019-06-22T08:48:19Z</time>
      </trkpt>
      <trkpt lat="43.035300" lon="-9.039708">
        <ele>342.792</ele>
        <time>2019-06-22T08:48:20Z</time>
      </trkpt>
      <trkpt lat="43.035216" lon="-9.039359">
        <ele>341.567</ele>
        <time>2019-06-22T08:48:21Z</time>
      </trkpt>
      <trkpt lat="43.035168" lon="-9.038975">
        <ele>339.120</ele>
        <time>2019-06-22T08:48:22Z</time>
      </trkpt>
      <trkpt lat="43.035107" lon="-9.038605">
        <ele>336.148</ele>
        <time>2019-06-22T08:48:23Z</time>
      </trkpt>
      <trkpt lat="43.035045" lon="-9.038235">
        <ele>332.561</ele>
        <time>2019-06-22T08:48:24Z</time>
      </trkpt>
      <trkpt lat="43.034984" lon="-9.037863">
        <ele>330.117</ele>
        <time>2019-06-22T08:48:25Z</time>
      </trkpt>
      <trkpt lat="43.034918" lon="-9.037500">
        <ele>329.408</ele>
        <time>2019-06-22T08:48:26Z</time>
      </trkpt>
      <trkpt lat="43.034854" lon="-9.037136">
        <ele>329.427</ele>
        <time>2019-06-22T08:48:27Z</time>
      </trkpt>
      <trkpt lat="43.034798" lon="-9.036768">
        <ele>329.521</ele>
        <time>2019-06-22T08:48:28Z</time>
      </trkpt>
      <trkpt lat="43.034747" lon="-9.036408">
        <ele>330.323</ele>
        <time>2019-06-22T08:48:29Z</time>
      </trkpt>
      <trkpt lat="43.034681" lon="-9.036051">
        <ele>330.315</ele>
        <time>2019-06-22T08:48:30Z</time>
      </trkpt>
      <trkpt lat="43.034611" lon="-9.035688">
        <ele>329.323</ele>
        <time>2019-06-22T08:48:31Z</time>
      </trkpt>
      <trkpt lat="43.034547" lon="-9.035335">
        <ele>327.342</ele>
        <time>2019-06-22T08:48:32Z</time>
      </trkpt>
      <trkpt lat="43.034490" lon="-9.034988">
        <ele>325.447</ele>
        <time>2019-06-22T08:48:33Z</time>
      </trkpt>
      <trkpt lat="43.034440" lon="-9.034642">
        <ele>321.450</ele>
        <time>2019-06-22T08:48:34Z</time>
      </trkpt>
      <trkpt lat="43.034386" lon="-9.034309">
        <ele>317.312</ele>
        <time>2019-06-22T08:48:35Z</time>
      </trkpt>
      <trkpt lat="43.034346" lon="-9.033992">
        <ele>315.032</ele>
        <time>2019-06-22T08:48:36Z</time>
      </trkpt>
      <trkpt lat="43.034293" lon="-9.033689">
        <ele>313.405</ele>
        <time>2019-06-22T08:48:37Z</time>
      </trkpt>
      <trkpt lat="43.034245" lon="-9.033409">
        <ele>312.308</ele>
        <time>2019-06-22T08:48:38Z</time>
      </trkpt>
      <trkpt lat="43.034190" lon="-9.033141">
        <ele>312.394</ele>
        <time>2019-06-22T08:48:39Z</time>
      </trkpt>
      <trkpt lat="43.034117" lon="-9.032866">
        <ele>314.768</ele>
        <time>2019-06-22T08:48:40Z</time>
      </trkpt>
      <trkpt lat="43.034033" lon="-9.032599">
        <ele>316.960</ele>
        <time>2019-06-22T08:48:41Z</time>
      </trkpt>
      <trkpt lat="43.033923" lon="-9.032357">
        <ele>318.842</ele>
        <time>2019-06-22T08:48:42Z</time>
      </trkpt>
      <trkpt lat="43.033789" lon="-9.032180">
        <ele>320.740</ele>
        <time>2019-06-22T08:48:43Z</time>
      </trkpt>
      <trkpt lat="43.033627" lon="-9.031953">
        <ele>321.959</ele>
        <time>2019-06-22T08:48:44Z</time>
      </trkpt>
      <trkpt lat="43.033451" lon="-9.031754">
        <ele>322.154</ele>
        <time>2019-06-22T08:48:45Z</time>
      </trkpt>
      <trkpt lat="43.033273" lon="-9.031577">
        <ele>322.197</ele>
        <time>2019-06-22T08:48:46Z</time>
      </trkpt>
      <trkpt lat="43.033097" lon="-9.031396">
        <ele>321.734</ele>
        <time>2019-06-22T08:48:47Z</time>
      </trkpt>
      <trkpt lat="43.032919" lon="-9.031206">
        <ele>321.755</ele>
        <time>2019-06-22T08:48:48Z</time>
      </trkpt>
      <trkpt lat="43.032754" lon="-9.031006">
        <ele>322.010</ele>
        <time>2019-06-22T08:48:49Z</time>
      </trkpt>
      <trkpt lat="43.032620" lon="-9.030793">
        <ele>322.508</ele>
        <time>2019-06-22T08:48:50Z</time>
      </trkpt>
      <trkpt lat="43.032511" lon="-9.030542">
        <ele>323.286</ele>
        <time>2019-06-22T08:48:51Z</time>
      </trkpt>
      <trkpt lat="43.032427" lon="-9.030274">
        <ele>323.720</ele>
        <time>2019-06-22T08:48:52Z</time>
      </trkpt>
      <trkpt lat="43.032335" lon="-9.030001">
        <ele>323.712</ele>
        <time>2019-06-22T08:48:53Z</time>
      </trkpt>
      <trkpt lat="43.032277" lon="-9.029716">
        <ele>323.734</ele>
        <time>2019-06-22T08:48:54Z</time>
      </trkpt>
      <trkpt lat="43.032223" lon="-9.029449">
        <ele>323.072</ele>
        <time>2019-06-22T08:48:55Z</time>
      </trkpt>
      <trkpt lat="43.032165" lon="-9.029181">
        <ele>322.091</ele>
        <time>2019-06-22T08:48:56Z</time>
      </trkpt>
      <trkpt lat="43.032100" lon="-9.028919">
        <ele>318.996</ele>
        <time>2019-06-22T08:48:57Z</time>
      </trkpt>
      <trkpt lat="43.032008" lon="-9.028654">
        <ele>315.949</ele>
        <time>2019-06-22T08:48:58Z</time>
      </trkpt>
      <trkpt lat="43.031883" lon="-9.028402">
        <ele>313.679</ele>
        <time>2019-06-22T08:48:59Z</time>
      </trkpt>
      <trkpt lat="43.031740" lon="-9.028185">
        <ele>310.705</ele>
        <time>2019-06-22T08:49:00Z</time>
      </trkpt>
      <trkpt lat="43.031577" lon="-9.027974">
        <ele>307.025</ele>
        <time>2019-06-22T08:49:01Z</time>
      </trkpt>
      <trkpt lat="43.031402" lon="-9.027773">
        <ele>305.608</ele>
        <time>2019-06-22T08:49:02Z</time>
      </trkpt>
      <trkpt lat="43.031227" lon="-9.027602">
        <ele>303.660</ele>
        <time>2019-06-22T08:49:03Z</time>
      </trkpt>
      <trkpt lat="43.031060" lon="-9.027440">
        <ele>300.744</ele>
        <time>2019-06-22T08:49:04Z</time>
      </trkpt>
      <trkpt lat="43.030892" lon="-9.027266">
        <ele>299.586</ele>
        <time>2019-06-22T08:49:05Z</time>
      </trkpt>
      <trkpt lat="43.030725" lon="-9.027093">
        <ele>299.288</ele>
        <time>2019-06-22T08:49:06Z</time>
      </trkpt>
      <trkpt lat="43.030574" lon="-9.026936">
        <ele>299.276</ele>
        <time>2019-06-22T08:49:07Z</time>
      </trkpt>
      <trkpt lat="43.030426" lon="-9.026776">
        <ele>299.295</ele>
        <time>2019-06-22T08:49:08Z</time>
      </trkpt>
      <trkpt lat="43.030291" lon="-9.026586">
        <ele>300.290</ele>
        <time>2019-06-22T08:49:09Z</time>
      </trkpt>
      <trkpt lat="43.030159" lon="-9.026372">
        <ele>300.283</ele>
        <time>2019-06-22T08:49:10Z</time>
      </trkpt>
      <trkpt lat="43.030046" lon="-9.026162">
        <ele>299.863</ele>
        <time>2019-06-22T08:49:11Z</time>
      </trkpt>
      <trkpt lat="43.029990" lon="-9.025903">
        <ele>299.144</ele>
        <time>2019-06-22T08:49:12Z</time>
      </trkpt>
      <trkpt lat="43.029936" lon="-9.025642">
        <ele>298.118</ele>
        <time>2019-06-22T08:49:13Z</time>
      </trkpt>
      <trkpt lat="43.029905" lon="-9.025365">
        <ele>296.808</ele>
        <time>2019-06-22T08:49:14Z</time>
      </trkpt>
      <trkpt lat="43.029896" lon="-9.025072">
        <ele>295.499</ele>
        <time>2019-06-22T08:49:15Z</time>
      </trkpt>
      <trkpt lat="43.029905" lon="-9.024774">
        <ele>294.193</ele>
        <time>2019-06-22T08:49:16Z</time>
      </trkpt>
      <trkpt lat="43.029955" lon="-9.024474">
        <ele>292.525</ele>
        <time>2019-06-22T08:49:17Z</time>
      </trkpt>
      <trkpt lat="43.030011" lon="-9.024171">
        <ele>291.137</ele>
        <time>2019-06-22T08:49:18Z</time>
      </trkpt>
      <trkpt lat="43.030079" lon="-9.023881">
        <ele>290.495</ele>
        <time>2019-06-22T08:49:19Z</time>
      </trkpt>
      <trkpt lat="43.030139" lon="-9.023569">
        <ele>289.994</ele>
        <time>2019-06-22T08:49:20Z</time>
      </trkpt>
      <trkpt lat="43.030178" lon="-9.023282">
        <ele>289.569</ele>
        <time>2019-06-22T08:49:21Z</time>
      </trkpt>
      <trkpt lat="43.030229" lon="-9.023026">
        <ele>289.472</ele>
        <time>2019-06-22T08:49:22Z</time>
      </trkpt>
      <trkpt lat="43.030245" lon="-9.022766">
        <ele>287.879</ele>
        <time>2019-06-22T08:49:23Z</time>
      </trkpt>
      <trkpt lat="43.030238" lon="-9.022531">
        <ele>286.405</ele>
        <time>2019-06-22T08:49:24Z</time>
      </trkpt>
      <trkpt lat="43.030215" lon="-9.022273">
        <ele>285.825</ele>
        <time>2019-06-22T08:49:25Z</time>
      </trkpt>
      <trkpt lat="43.030165" lon="-9.022024">
        <ele>285.808</ele>
        <time>2019-06-22T08:49:26Z</time>
      </trkpt>
      <trkpt lat="43.030117" lon="-9.021783">
        <ele>285.840</ele>
        <time>2019-06-22T08:49:27Z</time>
      </trkpt>
      <trkpt lat="43.030028" lon="-9.021531">
        <ele>286.734</ele>
        <time>2019-06-22T08:49:28Z</time>
      </trkpt>
      <trkpt lat="43.029952" lon="-9.021267">
        <ele>288.696</ele>
        <time>2019-06-22T08:49:29Z</time>
      </trkpt>
      <trkpt lat="43.029848" lon="-9.021018">
        <ele>289.668</ele>
        <time>2019-06-22T08:49:30Z</time>
      </trkpt>
      <trkpt lat="43.029736" lon="-9.020786">
        <ele>289.636</ele>
        <time>2019-06-22T08:49:31Z</time>
      </trkpt>
      <trkpt lat="43.029618" lon="-9.020574">
        <ele>289.365</ele>
        <time>2019-06-22T08:49:32Z</time>
      </trkpt>
      <trkpt lat="43.029507" lon="-9.020338">
        <ele>289.360</ele>
        <time>2019-06-22T08:49:33Z</time>
      </trkpt>
      <trkpt lat="43.029388" lon="-9.020098">
        <ele>289.273</ele>
        <time>2019-06-22T08:49:34Z</time>
      </trkpt>
      <trkpt lat="43.029279" lon="-9.019862">
        <ele>289.649</ele>
        <time>2019-06-22T08:49:35Z</time>
      </trkpt>
      <trkpt lat="43.029170" lon="-9.019635">
        <ele>290.602</ele>
        <time>2019-06-22T08:49:36Z</time>
      </trkpt>
      <trkpt lat="43.029062" lon="-9.019432">
        <ele>292.422</ele>
        <time>2019-06-22T08:49:37Z</time>
      </trkpt>
      <trkpt lat="43.028971" lon="-9.019241">
        <ele>294.808</ele>
        <time>2019-06-22T08:49:38Z</time>
      </trkpt>
      <trkpt lat="43.028890" lon="-9.019063">
        <ele>296.387</ele>
        <time>2019-06-22T08:49:39Z</time>
      </trkpt>
      <trkpt lat="43.028828" lon="-9.018873">
        <ele>298.461</ele>
        <time>2019-06-22T08:49:40Z</time>
      </trkpt>
      <trkpt lat="43.028762" lon="-9.018693">
        <ele>300.343</ele>
        <time>2019-06-22T08:49:41Z</time>
      </trkpt>
      <trkpt lat="43.028758" lon="-9.018539">
        <ele>301.855</ele>
        <time>2019-06-22T08:49:42Z</time>
      </trkpt>
      <trkpt lat="43.028751" lon="-9.018336">
        <ele>303.183</ele>
        <time>2019-06-22T08:49:43Z</time>
      </trkpt>
      <trkpt lat="43.028757" lon="-9.018112">
        <ele>304.262</ele>
        <time>2019-06-22T08:49:44Z</time>
      </trkpt>
      <trkpt lat="43.028755" lon="-9.017890">
        <ele>305.017</ele>
        <time>2019-06-22T08:49:45Z</time>
      </trkpt>
      <trkpt lat="43.028764" lon="-9.017679">
        <ele>305.590</ele>
        <time>2019-06-22T08:49:46Z</time>
      </trkpt>
      <trkpt lat="43.028741" lon="-9.017455">
        <ele>305.817</ele>
        <time>2019-06-22T08:49:47Z</time>
      </trkpt>
      <trkpt lat="43.028710" lon="-9.017224">
        <ele>306.187</ele>
        <time>2019-06-22T08:49:48Z</time>
      </trkpt>
      <trkpt lat="43.028679" lon="-9.016988">
        <ele>305.815</ele>
        <time>2019-06-22T08:49:49Z</time>
      </trkpt>
      <trkpt lat="43.028643" lon="-9.016759">
        <ele>305.108</ele>
        <time>2019-06-22T08:49:50Z</time>
      </trkpt>
      <trkpt lat="43.028625" lon="-9.016520">
        <ele>304.794</ele>
        <time>2019-06-22T08:49:51Z</time>
      </trkpt>
      <trkpt lat="43.028599" lon="-9.016294">
        <ele>304.748</ele>
        <time>2019-06-22T08:49:52Z</time>
      </trkpt>
      <trkpt lat="43.028561" lon="-9.016090">
        <ele>304.790</ele>
        <time>2019-06-22T08:49:53Z</time>
      </trkpt>
      <trkpt lat="43.028528" lon="-9.015891">
        <ele>304.722</ele>
        <time>2019-06-22T08:49:54Z</time>
      </trkpt>
      <trkpt lat="43.028526" lon="-9.015685">
        <ele>304.050</ele>
        <time>2019-06-22T08:49:55Z</time>
      </trkpt>
      <trkpt lat="43.028515" lon="-9.015457">
        <ele>304.019</ele>
        <time>2019-06-22T08:49:56Z</time>
      </trkpt>
      <trkpt lat="43.028521" lon="-9.015238">
        <ele>303.564</ele>
        <time>2019-06-22T08:49:57Z</time>
      </trkpt>
      <trkpt lat="43.028557" lon="-9.014989">
        <ele>303.487</ele>
        <time>2019-06-22T08:49:58Z</time>
      </trkpt>
      <trkpt lat="43.028586" lon="-9.014729">
        <ele>303.451</ele>
        <time>2019-06-22T08:49:59Z</time>
      </trkpt>
      <trkpt lat="43.028653" lon="-9.014472">
        <ele>303.401</ele>
        <time>2019-06-22T08:50:00Z</time>
      </trkpt>
      <trkpt lat="43.028716" lon="-9.014210">
        <ele>304.711</ele>
        <time>2019-06-22T08:50:01Z</time>
      </trkpt>
      <trkpt lat="43.028791" lon="-9.013947">
        <ele>304.708</ele>
        <time>2019-06-22T08:50:02Z</time>
      </trkpt>
      <trkpt lat="43.028861" lon="-9.013692">
        <ele>304.768</ele>
        <time>2019-06-22T08:50:03Z</time>
      </trkpt>
      <trkpt lat="43.028941" lon="-9.013445">
        <ele>304.792</ele>
        <time>2019-06-22T08:50:04Z</time>
      </trkpt>
      <trkpt lat="43.029014" lon="-9.013192">
        <ele>304.364</ele>
        <time>2019-06-22T08:50:05Z</time>
      </trkpt>
      <trkpt lat="43.029093" lon="-9.012939">
        <ele>303.036</ele>
        <time>2019-06-22T08:50:06Z</time>
      </trkpt>
      <trkpt lat="43.029168" lon="-9.012688">
        <ele>301.954</ele>
        <time>2019-06-22T08:50:07Z</time>
      </trkpt>
      <trkpt lat="43.029238" lon="-9.012457">
        <ele>301.183</ele>
        <time>2019-06-22T08:50:08Z</time>
      </trkpt>
      <trkpt lat="43.029307" lon="-9.012213">
        <ele>300.688</ele>
        <time>2019-06-22T08:50:09Z</time>
      </trkpt>
      <trkpt lat="43.029374" lon="-9.011977">
        <ele>300.611</ele>
        <time>2019-06-22T08:50:10Z</time>
      </trkpt>
      <trkpt lat="43.029433" lon="-9.011736">
        <ele>301.348</ele>
        <time>2019-06-22T08:50:11Z</time>
      </trkpt>
      <trkpt lat="43.029477" lon="-9.011475">
        <ele>301.361</ele>
        <time>2019-06-22T08:50:12Z</time>
      </trkpt>
      <trkpt lat="43.029510" lon="-9.011223">
        <ele>300.617</ele>
        <time>2019-06-22T08:50:13Z</time>
      </trkpt>
      <trkpt lat="43.029516" lon="-9.010955">
        <ele>298.908</ele>
        <time>2019-06-22T08:50:14Z</time>
      </trkpt>
      <trkpt lat="43.029493" lon="-9.010672">
        <ele>298.867</ele>
        <time>2019-06-22T08:50:15Z</time>
      </trkpt>
      <trkpt lat="43.029448" lon="-9.010385">
        <ele>297.331</ele>
        <time>2019-06-22T08:50:16Z</time>
      </trkpt>
      <trkpt lat="43.029396" lon="-9.010095">
        <ele>295.263</ele>
        <time>2019-06-22T08:50:17Z</time>
      </trkpt>
      <trkpt lat="43.029331" lon="-9.009794">
        <ele>295.065</ele>
        <time>2019-06-22T08:50:18Z</time>
      </trkpt>
      <trkpt lat="43.029265" lon="-9.009484">
        <ele>294.973</ele>
        <time>2019-06-22T08:50:19Z</time>
      </trkpt>
      <trkpt lat="43.029197" lon="-9.009167">
        <ele>293.312</ele>
        <time>2019-06-22T08:50:20Z</time>
      </trkpt>
      <trkpt lat="43.029127" lon="-9.008838">
        <ele>291.287</ele>
        <time>2019-06-22T08:50:21Z</time>
      </trkpt>
      <trkpt lat="43.029055" lon="-9.008513">
        <ele>291.110</ele>
        <time>2019-06-22T08:50:22Z</time>
      </trkpt>
      <trkpt lat="43.028979" lon="-9.008186">
        <ele>289.719</ele>
        <time>2019-06-22T08:50:23Z</time>
      </trkpt>
      <trkpt lat="43.028902" lon="-9.007850">
        <ele>289.309</ele>
        <time>2019-06-22T08:50:24Z</time>
      </trkpt>
      <trkpt lat="43.028828" lon="-9.007504">
        <ele>286.419</ele>
        <time>2019-06-22T08:50:25Z</time>
      </trkpt>
      <trkpt lat="43.028764" lon="-9.007161">
        <ele>286.308</ele>
        <time>2019-06-22T08:50:26Z</time>
      </trkpt>
      <trkpt lat="43.028689" lon="-9.006824">
        <ele>286.164</ele>
        <time>2019-06-22T08:50:27Z</time>
      </trkpt>
      <trkpt lat="43.028619" lon="-9.006497">
        <ele>285.168</ele>
        <time>2019-06-22T08:50:28Z</time>
      </trkpt>
      <trkpt lat="43.028548" lon="-9.006151">
        <ele>285.140</ele>
        <time>2019-06-22T08:50:29Z</time>
      </trkpt>
      <trkpt lat="43.028482" lon="-9.005806">
        <ele>285.832</ele>
        <time>2019-06-22T08:50:30Z</time>
      </trkpt>
      <trkpt lat="43.028407" lon="-9.005465">
        <ele>285.850</ele>
        <time>2019-06-22T08:50:31Z</time>
      </trkpt>
      <trkpt lat="43.028332" lon="-9.005125">
        <ele>284.529</ele>
        <time>2019-06-22T08:50:32Z</time>
      </trkpt>
      <trkpt lat="43.028255" lon="-9.004781">
        <ele>284.594</ele>
        <time>2019-06-22T08:50:33Z</time>
      </trkpt>
      <trkpt lat="43.028191" lon="-9.004433">
        <ele>284.757</ele>
        <time>2019-06-22T08:50:34Z</time>
      </trkpt>
      <trkpt lat="43.028089" lon="-9.004111">
        <ele>285.288</ele>
        <time>2019-06-22T08:50:35Z</time>
      </trkpt>
      <trkpt lat="43.028020" lon="-9.003757">
        <ele>286.124</ele>
        <time>2019-06-22T08:50:36Z</time>
      </trkpt>
      <trkpt lat="43.027948" lon="-9.003428">
        <ele>287.326</ele>
        <time>2019-06-22T08:50:37Z</time>
      </trkpt>
      <trkpt lat="43.027867" lon="-9.003072">
        <ele>287.608</ele>
        <time>2019-06-22T08:50:38Z</time>
      </trkpt>
      <trkpt lat="43.027793" lon="-9.002726">
        <ele>288.321</ele>
        <time>2019-06-22T08:50:39Z</time>
      </trkpt>
      <trkpt lat="43.027729" lon="-9.002379">
        <ele>288.395</ele>
        <time>2019-06-22T08:50:40Z</time>
      </trkpt>
      <trkpt lat="43.027656" lon="-9.002029">
        <ele>287.917</ele>
        <time>2019-06-22T08:50:41Z</time>
      </trkpt>
      <trkpt lat="43.027600" lon="-9.001697">
        <ele>286.389</ele>
        <time>2019-06-22T08:50:42Z</time>
      </trkpt>
      <trkpt lat="43.027528" lon="-9.001352">
        <ele>285.177</ele>
        <time>2019-06-22T08:50:43Z</time>
      </trkpt>
      <trkpt lat="43.027450" lon="-9.001016">
        <ele>282.586</ele>
        <time>2019-06-22T08:50:44Z</time>
      </trkpt>
      <trkpt lat="43.027372" lon="-9.000678">
        <ele>281.171</ele>
        <time>2019-06-22T08:50:45Z</time>
      </trkpt>
      <trkpt lat="43.027300" lon="-9.000340">
        <ele>281.114</ele>
        <time>2019-06-22T08:50:46Z</time>
      </trkpt>
      <trkpt lat="43.027222" lon="-8.999993">
        <ele>282.464</ele>
        <time>2019-06-22T08:50:47Z</time>
      </trkpt>
      <trkpt lat="43.027147" lon="-8.999651">
        <ele>284.006</ele>
        <time>2019-06-22T08:50:48Z</time>
      </trkpt>
      <trkpt lat="43.027082" lon="-8.999334">
        <ele>286.816</ele>
        <time>2019-06-22T08:50:49Z</time>
      </trkpt>
      <trkpt lat="43.027004" lon="-8.998997">
        <ele>289.208</ele>
        <time>2019-06-22T08:50:50Z</time>
      </trkpt>
      <trkpt lat="43.026930" lon="-8.998651">
        <ele>290.039</ele>
        <time>2019-06-22T08:50:51Z</time>
      </trkpt>
      <trkpt lat="43.026860" lon="-8.998314">
        <ele>290.033</ele>
        <time>2019-06-22T08:50:52Z</time>
      </trkpt>
      <trkpt lat="43.026793" lon="-8.997977">
        <ele>289.595</ele>
        <time>2019-06-22T08:50:53Z</time>
      </trkpt>
      <trkpt lat="43.026732" lon="-8.997661">
        <ele>289.557</ele>
        <time>2019-06-22T08:50:54Z</time>
      </trkpt>
      <trkpt lat="43.026654" lon="-8.997316">
        <ele>289.415</ele>
        <time>2019-06-22T08:50:55Z</time>
      </trkpt>
      <trkpt lat="43.026571" lon="-8.996973">
        <ele>288.744</ele>
        <time>2019-06-22T08:50:56Z</time>
      </trkpt>
      <trkpt lat="43.026508" lon="-8.996626">
        <ele>288.649</ele>
        <time>2019-06-22T08:50:57Z</time>
      </trkpt>
      <trkpt lat="43.026436" lon="-8.996281">
        <ele>288.682</ele>
        <time>2019-06-22T08:50:58Z</time>
      </trkpt>
      <trkpt lat="43.026364" lon="-8.995937">
        <ele>288.794</ele>
        <time>2019-06-22T08:50:59Z</time>
      </trkpt>
      <trkpt lat="43.026287" lon="-8.995588">
        <ele>288.757</ele>
        <time>2019-06-22T08:51:00Z</time>
      </trkpt>
      <trkpt lat="43.026210" lon="-8.995243">
        <ele>288.322</ele>
        <time>2019-06-22T08:51:01Z</time>
      </trkpt>
      <trkpt lat="43.026134" lon="-8.994902">
        <ele>288.308</ele>
        <time>2019-06-22T08:51:02Z</time>
      </trkpt>
      <trkpt lat="43.026067" lon="-8.994564">
        <ele>288.432</ele>
        <time>2019-06-22T08:51:03Z</time>
      </trkpt>
      <trkpt lat="43.026001" lon="-8.994227">
        <ele>288.416</ele>
        <time>2019-06-22T08:51:04Z</time>
      </trkpt>
      <trkpt lat="43.025929" lon="-8.993889">
        <ele>288.338</ele>
        <time>2019-06-22T08:51:05Z</time>
      </trkpt>
      <trkpt lat="43.025856" lon="-8.993552">
        <ele>288.370</ele>
        <time>2019-06-22T08:51:06Z</time>
      </trkpt>
      <trkpt lat="43.025786" lon="-8.993209">
        <ele>288.398</ele>
        <time>2019-06-22T08:51:07Z</time>
      </trkpt>
      <trkpt lat="43.025713" lon="-8.992876">
        <ele>287.817</ele>
        <time>2019-06-22T08:51:08Z</time>
      </trkpt>
      <trkpt lat="43.025637" lon="-8.992539">
        <ele>285.772</ele>
        <time>2019-06-22T08:51:09Z</time>
      </trkpt>
      <trkpt lat="43.025560" lon="-8.992208">
        <ele>284.425</ele>
        <time>2019-06-22T08:51:10Z</time>
      </trkpt>
      <trkpt lat="43.025484" lon="-8.991879">
        <ele>283.168</ele>
        <time>2019-06-22T08:51:11Z</time>
      </trkpt>
      <trkpt lat="43.025407" lon="-8.991540">
        <ele>281.342</ele>
        <time>2019-06-22T08:51:12Z</time>
      </trkpt>
      <trkpt lat="43.025334" lon="-8.991196">
        <ele>281.326</ele>
        <time>2019-06-22T08:51:13Z</time>
      </trkpt>
      <trkpt lat="43.025257" lon="-8.990854">
        <ele>281.808</ele>
        <time>2019-06-22T08:51:14Z</time>
      </trkpt>
      <trkpt lat="43.025185" lon="-8.990507">
        <ele>281.869</ele>
        <time>2019-06-22T08:51:15Z</time>
      </trkpt>
      <trkpt lat="43.025104" lon="-8.990137">
        <ele>281.863</ele>
        <time>2019-06-22T08:51:16Z</time>
      </trkpt>
      <trkpt lat="43.025030" lon="-8.989779">
        <ele>281.835</ele>
        <time>2019-06-22T08:51:17Z</time>
      </trkpt>
      <trkpt lat="43.024968" lon="-8.989421">
        <ele>282.377</ele>
        <time>2019-06-22T08:51:18Z</time>
      </trkpt>
      <trkpt lat="43.024907" lon="-8.989077">
        <ele>282.815</ele>
        <time>2019-06-22T08:51:19Z</time>
      </trkpt>
      <trkpt lat="43.024853" lon="-8.988723">
        <ele>283.214</ele>
        <time>2019-06-22T08:51:20Z</time>
      </trkpt>
      <trkpt lat="43.024799" lon="-8.988373">
        <ele>283.669</ele>
        <time>2019-06-22T08:51:21Z</time>
      </trkpt>
      <trkpt lat="43.024747" lon="-8.988015">
        <ele>283.732</ele>
        <time>2019-06-22T08:51:22Z</time>
      </trkpt>
      <trkpt lat="43.024699" lon="-8.987668">
        <ele>283.771</ele>
        <time>2019-06-22T08:51:23Z</time>
      </trkpt>
      <trkpt lat="43.024663" lon="-8.987309">
        <ele>281.941</ele>
        <time>2019-06-22T08:51:24Z</time>
      </trkpt>
      <trkpt lat="43.024632" lon="-8.986960">
        <ele>281.915</ele>
        <time>2019-06-22T08:51:25Z</time>
      </trkpt>
      <trkpt lat="43.024593" lon="-8.986602">
        <ele>282.208</ele>
        <time>2019-06-22T08:51:26Z</time>
      </trkpt>
      <trkpt lat="43.024566" lon="-8.986240">
        <ele>282.210</ele>
        <time>2019-06-22T08:51:27Z</time>
      </trkpt>
      <trkpt lat="43.024535" lon="-8.985893">
        <ele>281.924</ele>
        <time>2019-06-22T08:51:28Z</time>
      </trkpt>
      <trkpt lat="43.024504" lon="-8.985546">
        <ele>281.566</ele>
        <time>2019-06-22T08:51:29Z</time>
      </trkpt>
      <trkpt lat="43.024462" lon="-8.985199">
        <ele>281.948</ele>
        <time>2019-06-22T08:51:30Z</time>
      </trkpt>
      <trkpt lat="43.024412" lon="-8.984860">
        <ele>282.086</ele>
        <time>2019-06-22T08:51:31Z</time>
      </trkpt>
      <trkpt lat="43.024372" lon="-8.984524">
        <ele>282.025</ele>
        <time>2019-06-22T08:51:32Z</time>
      </trkpt>
      <trkpt lat="43.024339" lon="-8.984206">
        <ele>281.880</ele>
        <time>2019-06-22T08:51:33Z</time>
      </trkpt>
      <trkpt lat="43.024296" lon="-8.983876">
        <ele>281.623</ele>
        <time>2019-06-22T08:51:34Z</time>
      </trkpt>
      <trkpt lat="43.024245" lon="-8.983545">
        <ele>281.689</ele>
        <time>2019-06-22T08:51:35Z</time>
      </trkpt>
      <trkpt lat="43.024177" lon="-8.983220">
        <ele>279.506</ele>
        <time>2019-06-22T08:51:36Z</time>
      </trkpt>
      <trkpt lat="43.024105" lon="-8.982896">
        <ele>277.826</ele>
        <time>2019-06-22T08:51:37Z</time>
      </trkpt>
      <trkpt lat="43.024004" lon="-8.982574">
        <ele>275.908</ele>
        <time>2019-06-22T08:51:38Z</time>
      </trkpt>
      <trkpt lat="43.023862" lon="-8.982248">
        <ele>274.381</ele>
        <time>2019-06-22T08:51:39Z</time>
      </trkpt>
      <trkpt lat="43.023719" lon="-8.981969">
        <ele>273.265</ele>
        <time>2019-06-22T08:51:40Z</time>
      </trkpt>
      <trkpt lat="43.023558" lon="-8.981699">
        <ele>272.717</ele>
        <time>2019-06-22T08:51:41Z</time>
      </trkpt>
      <trkpt lat="43.023405" lon="-8.981425">
        <ele>271.659</ele>
        <time>2019-06-22T08:51:42Z</time>
      </trkpt>
      <trkpt lat="43.023259" lon="-8.981126">
        <ele>271.617</ele>
        <time>2019-06-22T08:51:43Z</time>
      </trkpt>
      <trkpt lat="43.023083" lon="-8.980869">
        <ele>273.126</ele>
        <time>2019-06-22T08:51:44Z</time>
      </trkpt>
      <trkpt lat="43.022903" lon="-8.980603">
        <ele>274.721</ele>
        <time>2019-06-22T08:51:45Z</time>
      </trkpt>
      <trkpt lat="43.022727" lon="-8.980346">
        <ele>277.094</ele>
        <time>2019-06-22T08:51:46Z</time>
      </trkpt>
      <trkpt lat="43.022542" lon="-8.980115">
        <ele>279.347</ele>
        <time>2019-06-22T08:51:47Z</time>
      </trkpt>
      <trkpt lat="43.022381" lon="-8.979864">
        <ele>281.329</ele>
        <time>2019-06-22T08:51:48Z</time>
      </trkpt>
      <trkpt lat="43.022197" lon="-8.979598">
        <ele>282.621</ele>
        <time>2019-06-22T08:51:49Z</time>
      </trkpt>
      <trkpt lat="43.022024" lon="-8.979335">
        <ele>283.708</ele>
        <time>2019-06-22T08:51:50Z</time>
      </trkpt>
      <trkpt lat="43.021852" lon="-8.979075">
        <ele>284.177</ele>
        <time>2019-06-22T08:51:51Z</time>
      </trkpt>
      <trkpt lat="43.021691" lon="-8.978807">
        <ele>284.271</ele>
        <time>2019-06-22T08:51:52Z</time>
      </trkpt>
      <trkpt lat="43.021524" lon="-8.978528">
        <ele>284.273</ele>
        <time>2019-06-22T08:51:53Z</time>
      </trkpt>
      <trkpt lat="43.021354" lon="-8.978251">
        <ele>283.965</ele>
        <time>2019-06-22T08:51:54Z</time>
      </trkpt>
      <trkpt lat="43.021197" lon="-8.977982">
        <ele>283.933</ele>
        <time>2019-06-22T08:51:55Z</time>
      </trkpt>
      <trkpt lat="43.021057" lon="-8.977687">
        <ele>283.172</ele>
        <time>2019-06-22T08:51:56Z</time>
      </trkpt>
      <trkpt lat="43.020900" lon="-8.977401">
        <ele>281.287</ele>
        <time>2019-06-22T08:51:57Z</time>
      </trkpt>
      <trkpt lat="43.020764" lon="-8.977104">
        <ele>280.050</ele>
        <time>2019-06-22T08:51:58Z</time>
      </trkpt>
      <trkpt lat="43.020620" lon="-8.976811">
        <ele>279.058</ele>
        <time>2019-06-22T08:51:59Z</time>
      </trkpt>
      <trkpt lat="43.020475" lon="-8.976514">
        <ele>278.852</ele>
        <time>2019-06-22T08:52:00Z</time>
      </trkpt>
      <trkpt lat="43.020317" lon="-8.976214">
        <ele>279.017</ele>
        <time>2019-06-22T08:52:01Z</time>
      </trkpt>
      <trkpt lat="43.020125" lon="-8.975923">
        <ele>279.708</ele>
        <time>2019-06-22T08:52:02Z</time>
      </trkpt>
      <trkpt lat="43.019974" lon="-8.975624">
        <ele>280.858</ele>
        <time>2019-06-22T08:52:03Z</time>
      </trkpt>
      <trkpt lat="43.019838" lon="-8.975324">
        <ele>282.282</ele>
        <time>2019-06-22T08:52:04Z</time>
      </trkpt>
      <trkpt lat="43.019697" lon="-8.975023">
        <ele>282.434</ele>
        <time>2019-06-22T08:52:05Z</time>
      </trkpt>
      <trkpt lat="43.019541" lon="-8.974720">
        <ele>282.936</ele>
        <time>2019-06-22T08:52:06Z</time>
      </trkpt>
      <trkpt lat="43.019397" lon="-8.974417">
        <ele>282.974</ele>
        <time>2019-06-22T08:52:07Z</time>
      </trkpt>
      <trkpt lat="43.019230" lon="-8.974108">
        <ele>282.493</ele>
        <time>2019-06-22T08:52:08Z</time>
      </trkpt>
      <trkpt lat="43.019084" lon="-8.973802">
        <ele>281.388</ele>
        <time>2019-06-22T08:52:09Z</time>
      </trkpt>
      <trkpt lat="43.018924" lon="-8.973489">
        <ele>280.611</ele>
        <time>2019-06-22T08:52:10Z</time>
      </trkpt>
      <trkpt lat="43.018792" lon="-8.973195">
        <ele>280.697</ele>
        <time>2019-06-22T08:52:11Z</time>
      </trkpt>
      <trkpt lat="43.018657" lon="-8.972903">
        <ele>280.423</ele>
        <time>2019-06-22T08:52:12Z</time>
      </trkpt>
      <trkpt lat="43.018536" lon="-8.972609">
        <ele>280.025</ele>
        <time>2019-06-22T08:52:13Z</time>
      </trkpt>
      <trkpt lat="43.018394" lon="-8.972319">
        <ele>280.008</ele>
        <time>2019-06-22T08:52:14Z</time>
      </trkpt>
      <trkpt lat="43.018251" lon="-8.972020">
        <ele>280.512</ele>
        <time>2019-06-22T08:52:15Z</time>
      </trkpt>
      <trkpt lat="43.018099" lon="-8.971728">
        <ele>281.616</ele>
        <time>2019-06-22T08:52:16Z</time>
      </trkpt>
      <trkpt lat="43.017947" lon="-8.971445">
        <ele>281.858</ele>
        <time>2019-06-22T08:52:17Z</time>
      </trkpt>
      <trkpt lat="43.017803" lon="-8.971161">
        <ele>283.540</ele>
        <time>2019-06-22T08:52:18Z</time>
      </trkpt>
      <trkpt lat="43.017649" lon="-8.970854">
        <ele>284.648</ele>
        <time>2019-06-22T08:52:19Z</time>
      </trkpt>
      <trkpt lat="43.017509" lon="-8.970563">
        <ele>286.317</ele>
        <time>2019-06-22T08:52:20Z</time>
      </trkpt>
      <trkpt lat="43.017364" lon="-8.970269">
        <ele>287.852</ele>
        <time>2019-06-22T08:52:21Z</time>
      </trkpt>
      <trkpt lat="43.017220" lon="-8.969972">
        <ele>290.135</ele>
        <time>2019-06-22T08:52:22Z</time>
      </trkpt>
      <trkpt lat="43.017076" lon="-8.969674">
        <ele>291.344</ele>
        <time>2019-06-22T08:52:23Z</time>
      </trkpt>
      <trkpt lat="43.016942" lon="-8.969380">
        <ele>292.005</ele>
        <time>2019-06-22T08:52:24Z</time>
      </trkpt>
      <trkpt lat="43.016838" lon="-8.969086">
        <ele>293.215</ele>
        <time>2019-06-22T08:52:25Z</time>
      </trkpt>
      <trkpt lat="43.016685" lon="-8.968788">
        <ele>293.208</ele>
        <time>2019-06-22T08:52:26Z</time>
      </trkpt>
      <trkpt lat="43.016542" lon="-8.968506">
        <ele>292.917</ele>
        <time>2019-06-22T08:52:27Z</time>
      </trkpt>
      <trkpt lat="43.016401" lon="-8.968210">
        <ele>292.771</ele>
        <time>2019-06-22T08:52:28Z</time>
      </trkpt>
      <trkpt lat="43.016250" lon="-8.967912">
        <ele>292.563</ele>
        <time>2019-06-22T08:52:29Z</time>
      </trkpt>
      <trkpt lat="43.016106" lon="-8.967618">
        <ele>292.255</ele>
        <time>2019-06-22T08:52:30Z</time>
      </trkpt>
      <trkpt lat="43.015945" lon="-8.967350">
        <ele>292.263</ele>
        <time>2019-06-22T08:52:31Z</time>
      </trkpt>
      <trkpt lat="43.015808" lon="-8.967055">
        <ele>292.562</ele>
        <time>2019-06-22T08:52:32Z</time>
      </trkpt>
      <trkpt lat="43.015670" lon="-8.966757">
        <ele>294.187</ele>
        <time>2019-06-22T08:52:33Z</time>
      </trkpt>
      <trkpt lat="43.015529" lon="-8.966467">
        <ele>295.890</ele>
        <time>2019-06-22T08:52:34Z</time>
      </trkpt>
      <trkpt lat="43.015386" lon="-8.966180">
        <ele>297.695</ele>
        <time>2019-06-22T08:52:35Z</time>
      </trkpt>
      <trkpt lat="43.015246" lon="-8.965900">
        <ele>299.049</ele>
        <time>2019-06-22T08:52:36Z</time>
      </trkpt>
      <trkpt lat="43.015118" lon="-8.965633">
        <ele>300.123</ele>
        <time>2019-06-22T08:52:37Z</time>
      </trkpt>
      <trkpt lat="43.014982" lon="-8.965375">
        <ele>300.808</ele>
        <time>2019-06-22T08:52:38Z</time>
      </trkpt>
      <trkpt lat="43.014851" lon="-8.965112">
        <ele>301.692</ele>
        <time>2019-06-22T08:52:39Z</time>
      </trkpt>
      <trkpt lat="43.014748" lon="-8.964822">
        <ele>302.216</ele>
        <time>2019-06-22T08:52:40Z</time>
      </trkpt>
      <trkpt lat="43.014649" lon="-8.964538">
        <ele>303.328</ele>
        <time>2019-06-22T08:52:41Z</time>
      </trkpt>
      <trkpt lat="43.014538" lon="-8.964251">
        <ele>304.230</ele>
        <time>2019-06-22T08:52:42Z</time>
      </trkpt>
      <trkpt lat="43.014427" lon="-8.963954">
        <ele>305.488</ele>
        <time>2019-06-22T08:52:43Z</time>
      </trkpt>
      <trkpt lat="43.014319" lon="-8.963665">
        <ele>306.067</ele>
        <time>2019-06-22T08:52:44Z</time>
      </trkpt>
      <trkpt lat="43.014223" lon="-8.963354">
        <ele>306.742</ele>
        <time>2019-06-22T08:52:45Z</time>
      </trkpt>
      <trkpt lat="43.014146" lon="-8.963044">
        <ele>306.965</ele>
        <time>2019-06-22T08:52:46Z</time>
      </trkpt>
      <trkpt lat="43.014068" lon="-8.962725">
        <ele>307.283</ele>
        <time>2019-06-22T08:52:47Z</time>
      </trkpt>
      <trkpt lat="43.013997" lon="-8.962402">
        <ele>306.925</ele>
        <time>2019-06-22T08:52:48Z</time>
      </trkpt>
      <trkpt lat="43.013928" lon="-8.962075">
        <ele>306.817</ele>
        <time>2019-06-22T08:52:49Z</time>
      </trkpt>
      <trkpt lat="43.013860" lon="-8.961751">
        <ele>305.708</ele>
        <time>2019-06-22T08:52:50Z</time>
      </trkpt>
      <trkpt lat="43.013814" lon="-8.961420">
        <ele>305.381</ele>
        <time>2019-06-22T08:52:51Z</time>
      </trkpt>
      <trkpt lat="43.013749" lon="-8.961091">
        <ele>305.125</ele>
        <time>2019-06-22T08:52:52Z</time>
      </trkpt>
      <trkpt lat="43.013678" lon="-8.960787">
        <ele>304.117</ele>
        <time>2019-06-22T08:52:53Z</time>
      </trkpt>
      <trkpt lat="43.013616" lon="-8.960493">
        <ele>303.499</ele>
        <time>2019-06-22T08:52:54Z</time>
      </trkpt>
      <trkpt lat="43.013571" lon="-8.960210">
        <ele>303.297</ele>
        <time>2019-06-22T08:52:55Z</time>
      </trkpt>
      <trkpt lat="43.013511" lon="-8.959918">
        <ele>303.136</ele>
        <time>2019-06-22T08:52:56Z</time>
      </trkpt>
      <trkpt lat="43.013447" lon="-8.959625">
        <ele>303.181</ele>
        <time>2019-06-22T08:52:57Z</time>
      </trkpt>
      <trkpt lat="43.013381" lon="-8.959335">
        <ele>302.984</ele>
        <time>2019-06-22T08:52:58Z</time>
      </trkpt>
      <trkpt lat="43.013329" lon="-8.959041">
        <ele>302.981</ele>
        <time>2019-06-22T08:52:59Z</time>
      </trkpt>
      <trkpt lat="43.013274" lon="-8.958764">
        <ele>303.061</ele>
        <time>2019-06-22T08:53:00Z</time>
      </trkpt>
      <trkpt lat="43.013225" lon="-8.958488">
        <ele>303.017</ele>
        <time>2019-06-22T08:53:01Z</time>
      </trkpt>
      <trkpt lat="43.013156" lon="-8.958221">
        <ele>302.608</ele>
        <time>2019-06-22T08:53:02Z</time>
      </trkpt>
      <trkpt lat="43.013107" lon="-8.957918">
        <ele>302.221</ele>
        <time>2019-06-22T08:53:03Z</time>
      </trkpt>
      <trkpt lat="43.013088" lon="-8.957610">
        <ele>302.165</ele>
        <time>2019-06-22T08:53:04Z</time>
      </trkpt>
      <trkpt lat="43.013064" lon="-8.957309">
        <ele>301.647</ele>
        <time>2019-06-22T08:53:05Z</time>
      </trkpt>
      <trkpt lat="43.013039" lon="-8.956980">
        <ele>301.389</ele>
        <time>2019-06-22T08:53:06Z</time>
      </trkpt>
      <trkpt lat="43.013031" lon="-8.956666">
        <ele>301.287</ele>
        <time>2019-06-22T08:53:07Z</time>
      </trkpt>
      <trkpt lat="43.013034" lon="-8.956343">
        <ele>301.286</ele>
        <time>2019-06-22T08:53:08Z</time>
      </trkpt>
      <trkpt lat="43.013041" lon="-8.956015">
        <ele>300.931</ele>
        <time>2019-06-22T08:53:09Z</time>
      </trkpt>
      <trkpt lat="43.013072" lon="-8.955681">
        <ele>300.354</ele>
        <time>2019-06-22T08:53:10Z</time>
      </trkpt>
      <trkpt lat="43.013124" lon="-8.955349">
        <ele>299.527</ele>
        <time>2019-06-22T08:53:11Z</time>
      </trkpt>
      <trkpt lat="43.013203" lon="-8.955022">
        <ele>298.568</ele>
        <time>2019-06-22T08:53:12Z</time>
      </trkpt>
      <trkpt lat="43.013284" lon="-8.954693">
        <ele>297.714</ele>
        <time>2019-06-22T08:53:13Z</time>
      </trkpt>
      <trkpt lat="43.013379" lon="-8.954370">
        <ele>297.008</ele>
        <time>2019-06-22T08:53:14Z</time>
      </trkpt>
      <trkpt lat="43.013481" lon="-8.954048">
        <ele>296.375</ele>
        <time>2019-06-22T08:53:15Z</time>
      </trkpt>
      <trkpt lat="43.013532" lon="-8.953797">
        <ele>294.949</ele>
        <time>2019-06-22T08:53:16Z</time>
      </trkpt>
      <trkpt lat="43.013600" lon="-8.953468">
        <ele>293.461</ele>
        <time>2019-06-22T08:53:17Z</time>
      </trkpt>
      <trkpt lat="43.013650" lon="-8.953132">
        <ele>291.243</ele>
        <time>2019-06-22T08:53:18Z</time>
      </trkpt>
      <trkpt lat="43.013689" lon="-8.952789">
        <ele>288.481</ele>
        <time>2019-06-22T08:53:19Z</time>
      </trkpt>
      <trkpt lat="43.013708" lon="-8.952455">
        <ele>285.410</ele>
        <time>2019-06-22T08:53:20Z</time>
      </trkpt>
      <trkpt lat="43.013716" lon="-8.952115">
        <ele>284.395</ele>
        <time>2019-06-22T08:53:21Z</time>
      </trkpt>
      <trkpt lat="43.013713" lon="-8.951776">
        <ele>283.798</ele>
        <time>2019-06-22T08:53:22Z</time>
      </trkpt>
      <trkpt lat="43.013693" lon="-8.951441">
        <ele>283.381</ele>
        <time>2019-06-22T08:53:23Z</time>
      </trkpt>
      <trkpt lat="43.013651" lon="-8.951111">
        <ele>283.361</ele>
        <time>2019-06-22T08:53:24Z</time>
      </trkpt>
      <trkpt lat="43.013608" lon="-8.950770">
        <ele>283.717</ele>
        <time>2019-06-22T08:53:25Z</time>
      </trkpt>
      <trkpt lat="43.013547" lon="-8.950424">
        <ele>283.708</ele>
        <time>2019-06-22T08:53:26Z</time>
      </trkpt>
      <trkpt lat="43.013477" lon="-8.950084">
        <ele>282.821</ele>
        <time>2019-06-22T08:53:27Z</time>
      </trkpt>
      <trkpt lat="43.013381" lon="-8.949748">
        <ele>282.735</ele>
        <time>2019-06-22T08:53:28Z</time>
      </trkpt>
      <trkpt lat="43.013270" lon="-8.949422">
        <ele>282.637</ele>
        <time>2019-06-22T08:53:29Z</time>
      </trkpt>
      <trkpt lat="43.013168" lon="-8.949085">
        <ele>281.999</ele>
        <time>2019-06-22T08:53:30Z</time>
      </trkpt>
      <trkpt lat="43.013067" lon="-8.948761">
        <ele>281.627</ele>
        <time>2019-06-22T08:53:31Z</time>
      </trkpt>
      <trkpt lat="43.012965" lon="-8.948438">
        <ele>281.636</ele>
        <time>2019-06-22T08:53:32Z</time>
      </trkpt>
      <trkpt lat="43.012853" lon="-8.948105">
        <ele>281.651</ele>
        <time>2019-06-22T08:53:33Z</time>
      </trkpt>
      <trkpt lat="43.012744" lon="-8.947766">
        <ele>281.724</ele>
        <time>2019-06-22T08:53:34Z</time>
      </trkpt>
      <trkpt lat="43.012635" lon="-8.947442">
        <ele>282.979</ele>
        <time>2019-06-22T08:53:35Z</time>
      </trkpt>
      <trkpt lat="43.012527" lon="-8.947108">
        <ele>282.905</ele>
        <time>2019-06-22T08:53:36Z</time>
      </trkpt>
      <trkpt lat="43.012418" lon="-8.946769">
        <ele>283.225</ele>
        <time>2019-06-22T08:53:37Z</time>
      </trkpt>
      <trkpt lat="43.012301" lon="-8.946429">
        <ele>282.908</ele>
        <time>2019-06-22T08:53:38Z</time>
      </trkpt>
      <trkpt lat="43.012184" lon="-8.946095">
        <ele>282.940</ele>
        <time>2019-06-22T08:53:39Z</time>
      </trkpt>
      <trkpt lat="43.012085" lon="-8.945766">
        <ele>282.814</ele>
        <time>2019-06-22T08:53:40Z</time>
      </trkpt>
      <trkpt lat="43.011974" lon="-8.945464">
        <ele>282.846</ele>
        <time>2019-06-22T08:53:41Z</time>
      </trkpt>
      <trkpt lat="43.011865" lon="-8.945136">
        <ele>284.268</ele>
        <time>2019-06-22T08:53:42Z</time>
      </trkpt>
      <trkpt lat="43.011782" lon="-8.944834">
        <ele>284.896</ele>
        <time>2019-06-22T08:53:43Z</time>
      </trkpt>
      <trkpt lat="43.011666" lon="-8.944514">
        <ele>285.695</ele>
        <time>2019-06-22T08:53:44Z</time>
      </trkpt>
      <trkpt lat="43.011556" lon="-8.944198">
        <ele>285.660</ele>
        <time>2019-06-22T08:53:45Z</time>
      </trkpt>
      <trkpt lat="43.011446" lon="-8.943877">
        <ele>285.513</ele>
        <time>2019-06-22T08:53:46Z</time>
      </trkpt>
      <trkpt lat="43.011340" lon="-8.943564">
        <ele>285.417</ele>
        <time>2019-06-22T08:53:47Z</time>
      </trkpt>
      <trkpt lat="43.011234" lon="-8.943247">
        <ele>285.287</ele>
        <time>2019-06-22T08:53:48Z</time>
      </trkpt>
      <trkpt lat="43.011120" lon="-8.942911">
        <ele>284.315</ele>
        <time>2019-06-22T08:53:49Z</time>
      </trkpt>
      <trkpt lat="43.010998" lon="-8.942563">
        <ele>283.708</ele>
        <time>2019-06-22T08:53:50Z</time>
      </trkpt>
      <trkpt lat="43.010902" lon="-8.942225">
        <ele>283.784</ele>
        <time>2019-06-22T08:53:51Z</time>
      </trkpt>
      <trkpt lat="43.010807" lon="-8.941932">
        <ele>283.268</ele>
        <time>2019-06-22T08:53:52Z</time>
      </trkpt>
      <trkpt lat="43.010698" lon="-8.941611">
        <ele>283.220</ele>
        <time>2019-06-22T08:53:53Z</time>
      </trkpt>
      <trkpt lat="43.010587" lon="-8.941292">
        <ele>283.262</ele>
        <time>2019-06-22T08:53:54Z</time>
      </trkpt>
      <trkpt lat="43.010473" lon="-8.940956">
        <ele>283.290</ele>
        <time>2019-06-22T08:53:55Z</time>
      </trkpt>
      <trkpt lat="43.010370" lon="-8.940632">
        <ele>282.569</ele>
        <time>2019-06-22T08:53:56Z</time>
      </trkpt>
      <trkpt lat="43.010253" lon="-8.940302">
        <ele>281.354</ele>
        <time>2019-06-22T08:53:57Z</time>
      </trkpt>
      <trkpt lat="43.010153" lon="-8.939989">
        <ele>280.927</ele>
        <time>2019-06-22T08:53:58Z</time>
      </trkpt>
      <trkpt lat="43.010043" lon="-8.939669">
        <ele>280.927</ele>
        <time>2019-06-22T08:53:59Z</time>
      </trkpt>
      <trkpt lat="43.009945" lon="-8.939335">
        <ele>279.968</ele>
        <time>2019-06-22T08:54:00Z</time>
      </trkpt>
      <trkpt lat="43.009844" lon="-8.939017">
        <ele>279.414</ele>
        <time>2019-06-22T08:54:01Z</time>
      </trkpt>
      <trkpt lat="43.009764" lon="-8.938693">
        <ele>279.408</ele>
        <time>2019-06-22T08:54:02Z</time>
      </trkpt>
      <trkpt lat="43.009684" lon="-8.938380">
        <ele>279.495</ele>
        <time>2019-06-22T08:54:03Z</time>
      </trkpt>
      <trkpt lat="43.009630" lon="-8.938047">
        <ele>279.839</ele>
        <time>2019-06-22T08:54:04Z</time>
      </trkpt>
      <trkpt lat="43.009582" lon="-8.937717">
        <ele>280.431</ele>
        <time>2019-06-22T08:54:05Z</time>
      </trkpt>
      <trkpt lat="43.009557" lon="-8.937378">
        <ele>282.363</ele>
        <time>2019-06-22T08:54:06Z</time>
      </trkpt>
      <trkpt lat="43.009560" lon="-8.937044">
        <ele>283.921</ele>
        <time>2019-06-22T08:54:07Z</time>
      </trkpt>
      <trkpt lat="43.009575" lon="-8.936714">
        <ele>286.020</ele>
        <time>2019-06-22T08:54:08Z</time>
      </trkpt>
      <trkpt lat="43.009595" lon="-8.936365">
        <ele>288.335</ele>
        <time>2019-06-22T08:54:09Z</time>
      </trkpt>
      <trkpt lat="43.009631" lon="-8.936028">
        <ele>289.048</ele>
        <time>2019-06-22T08:54:10Z</time>
      </trkpt>
      <trkpt lat="43.009658" lon="-8.935675">
        <ele>289.083</ele>
        <time>2019-06-22T08:54:11Z</time>
      </trkpt>
      <trkpt lat="43.009707" lon="-8.935335">
        <ele>288.625</ele>
        <time>2019-06-22T08:54:12Z</time>
      </trkpt>
      <trkpt lat="43.009764" lon="-8.935002">
        <ele>288.417</ele>
        <time>2019-06-22T08:54:13Z</time>
      </trkpt>
      <trkpt lat="43.009822" lon="-8.934666">
        <ele>288.208</ele>
        <time>2019-06-22T08:54:14Z</time>
      </trkpt>
      <trkpt lat="43.009880" lon="-8.934331">
        <ele>288.271</ele>
        <time>2019-06-22T08:54:15Z</time>
      </trkpt>
      <trkpt lat="43.009945" lon="-8.933993">
        <ele>288.245</ele>
        <time>2019-06-22T08:54:16Z</time>
      </trkpt>
      <trkpt lat="43.009999" lon="-8.933653">
        <ele>289.497</ele>
        <time>2019-06-22T08:54:17Z</time>
      </trkpt>
      <trkpt lat="43.010055" lon="-8.933313">
        <ele>290.189</ele>
        <time>2019-06-22T08:54:18Z</time>
      </trkpt>
      <trkpt lat="43.010122" lon="-8.932965">
        <ele>290.947</ele>
        <time>2019-06-22T08:54:19Z</time>
      </trkpt>
      <trkpt lat="43.010181" lon="-8.932626">
        <ele>291.436</ele>
        <time>2019-06-22T08:54:20Z</time>
      </trkpt>
      <trkpt lat="43.010243" lon="-8.932297">
        <ele>292.121</ele>
        <time>2019-06-22T08:54:21Z</time>
      </trkpt>
      <trkpt lat="43.010304" lon="-8.931960">
        <ele>292.694</ele>
        <time>2019-06-22T08:54:22Z</time>
      </trkpt>
      <trkpt lat="43.010364" lon="-8.931624">
        <ele>292.793</ele>
        <time>2019-06-22T08:54:23Z</time>
      </trkpt>
      <trkpt lat="43.010424" lon="-8.931284">
        <ele>292.965</ele>
        <time>2019-06-22T08:54:24Z</time>
      </trkpt>
      <trkpt lat="43.010483" lon="-8.930945">
        <ele>292.921</ele>
        <time>2019-06-22T08:54:25Z</time>
      </trkpt>
      <trkpt lat="43.010548" lon="-8.930620">
        <ele>293.208</ele>
        <time>2019-06-22T08:54:26Z</time>
      </trkpt>
      <trkpt lat="43.010617" lon="-8.930276">
        <ele>293.212</ele>
        <time>2019-06-22T08:54:27Z</time>
      </trkpt>
      <trkpt lat="43.010676" lon="-8.929939">
        <ele>293.446</ele>
        <time>2019-06-22T08:54:28Z</time>
      </trkpt>
      <trkpt lat="43.010736" lon="-8.929603">
        <ele>293.248</ele>
        <time>2019-06-22T08:54:29Z</time>
      </trkpt>
      <trkpt lat="43.010798" lon="-8.929271">
        <ele>293.470</ele>
        <time>2019-06-22T08:54:30Z</time>
      </trkpt>
      <trkpt lat="43.010860" lon="-8.928942">
        <ele>293.898</ele>
        <time>2019-06-22T08:54:31Z</time>
      </trkpt>
      <trkpt lat="43.010916" lon="-8.928614">
        <ele>293.867</ele>
        <time>2019-06-22T08:54:32Z</time>
      </trkpt>
      <trkpt lat="43.010969" lon="-8.928299">
        <ele>293.462</ele>
        <time>2019-06-22T08:54:33Z</time>
      </trkpt>
      <trkpt lat="43.011025" lon="-8.927993">
        <ele>293.325</ele>
        <time>2019-06-22T08:54:34Z</time>
      </trkpt>
      <trkpt lat="43.011080" lon="-8.927694">
        <ele>293.031</ele>
        <time>2019-06-22T08:54:35Z</time>
      </trkpt>
      <trkpt lat="43.011128" lon="-8.927407">
        <ele>292.161</ele>
        <time>2019-06-22T08:54:36Z</time>
      </trkpt>
      <trkpt lat="43.011164" lon="-8.927121">
        <ele>291.007</ele>
        <time>2019-06-22T08:54:37Z</time>
      </trkpt>
      <trkpt lat="43.011177" lon="-8.926848">
        <ele>289.808</ele>
        <time>2019-06-22T08:54:38Z</time>
      </trkpt>
      <trkpt lat="43.011150" lon="-8.926583">
        <ele>288.286</ele>
        <time>2019-06-22T08:54:39Z</time>
      </trkpt>
      <trkpt lat="43.011105" lon="-8.926330">
        <ele>286.870</ele>
        <time>2019-06-22T08:54:40Z</time>
      </trkpt>
      <trkpt lat="43.011024" lon="-8.926090">
        <ele>285.242</ele>
        <time>2019-06-22T08:54:41Z</time>
      </trkpt>
      <trkpt lat="43.010911" lon="-8.925889">
        <ele>285.274</ele>
        <time>2019-06-22T08:54:42Z</time>
      </trkpt>
      <trkpt lat="43.010783" lon="-8.925681">
        <ele>285.262</ele>
        <time>2019-06-22T08:54:43Z</time>
      </trkpt>
      <trkpt lat="43.010648" lon="-8.925466">
        <ele>286.641</ele>
        <time>2019-06-22T08:54:44Z</time>
      </trkpt>
      <trkpt lat="43.010516" lon="-8.925244">
        <ele>287.846</ele>
        <time>2019-06-22T08:54:45Z</time>
      </trkpt>
      <trkpt lat="43.010389" lon="-8.925037">
        <ele>289.279</ele>
        <time>2019-06-22T08:54:46Z</time>
      </trkpt>
      <trkpt lat="43.010268" lon="-8.924835">
        <ele>291.124</ele>
        <time>2019-06-22T08:54:47Z</time>
      </trkpt>
      <trkpt lat="43.010158" lon="-8.924656">
        <ele>291.904</ele>
        <time>2019-06-22T08:54:48Z</time>
      </trkpt>
      <trkpt lat="43.010044" lon="-8.924487">
        <ele>292.014</ele>
        <time>2019-06-22T08:54:49Z</time>
      </trkpt>
      <trkpt lat="43.009910" lon="-8.924347">
        <ele>291.908</ele>
        <time>2019-06-22T08:54:50Z</time>
      </trkpt>
      <trkpt lat="43.009767" lon="-8.924253">
        <ele>291.865</ele>
        <time>2019-06-22T08:54:51Z</time>
      </trkpt>
      <trkpt lat="43.009619" lon="-8.924156">
        <ele>291.699</ele>
        <time>2019-06-22T08:54:52Z</time>
      </trkpt>
      <trkpt lat="43.009479" lon="-8.924058">
        <ele>291.641</ele>
        <time>2019-06-22T08:54:53Z</time>
      </trkpt>
      <trkpt lat="43.009338" lon="-8.923955">
        <ele>292.373</ele>
        <time>2019-06-22T08:54:54Z</time>
      </trkpt>
      <trkpt lat="43.009216" lon="-8.923823">
        <ele>292.361</ele>
        <time>2019-06-22T08:54:55Z</time>
      </trkpt>
      <trkpt lat="43.009093" lon="-8.923675">
        <ele>292.380</ele>
        <time>2019-06-22T08:54:56Z</time>
      </trkpt>
      <trkpt lat="43.008993" lon="-8.923515">
        <ele>292.715</ele>
        <time>2019-06-22T08:54:57Z</time>
      </trkpt>
      <trkpt lat="43.008906" lon="-8.923338">
        <ele>292.748</ele>
        <time>2019-06-22T08:54:58Z</time>
      </trkpt>
      <trkpt lat="43.008835" lon="-8.923140">
        <ele>292.092</ele>
        <time>2019-06-22T08:54:59Z</time>
      </trkpt>
      <trkpt lat="43.008781" lon="-8.922919">
        <ele>291.273</ele>
        <time>2019-06-22T08:55:00Z</time>
      </trkpt>
      <trkpt lat="43.008735" lon="-8.922680">
        <ele>290.720</ele>
        <time>2019-06-22T08:55:01Z</time>
      </trkpt>
      <trkpt lat="43.008691" lon="-8.922425">
        <ele>290.308</ele>
        <time>2019-06-22T08:55:02Z</time>
      </trkpt>
      <trkpt lat="43.008648" lon="-8.922176">
        <ele>289.252</ele>
        <time>2019-06-22T08:55:03Z</time>
      </trkpt>
      <trkpt lat="43.008606" lon="-8.921933">
        <ele>288.786</ele>
        <time>2019-06-22T08:55:04Z</time>
      </trkpt>
      <trkpt lat="43.008562" lon="-8.921695">
        <ele>287.638</ele>
        <time>2019-06-22T08:55:05Z</time>
      </trkpt>
      <trkpt lat="43.008464" lon="-8.921477">
        <ele>286.060</ele>
        <time>2019-06-22T08:55:06Z</time>
      </trkpt>
      <trkpt lat="43.008374" lon="-8.921226">
        <ele>284.418</ele>
        <time>2019-06-22T08:55:07Z</time>
      </trkpt>
      <trkpt lat="43.008280" lon="-8.921018">
        <ele>283.457</ele>
        <time>2019-06-22T08:55:08Z</time>
      </trkpt>
      <trkpt lat="43.008170" lon="-8.920801">
        <ele>281.932</ele>
        <time>2019-06-22T08:55:09Z</time>
      </trkpt>
      <trkpt lat="43.008022" lon="-8.920603">
        <ele>281.375</ele>
        <time>2019-06-22T08:55:10Z</time>
      </trkpt>
      <trkpt lat="43.007868" lon="-8.920437">
        <ele>281.385</ele>
        <time>2019-06-22T08:55:11Z</time>
      </trkpt>
      <trkpt lat="43.007709" lon="-8.920316">
        <ele>281.389</ele>
        <time>2019-06-22T08:55:12Z</time>
      </trkpt>
      <trkpt lat="43.007534" lon="-8.920191">
        <ele>281.217</ele>
        <time>2019-06-22T08:55:13Z</time>
      </trkpt>
      <trkpt lat="43.007338" lon="-8.920152">
        <ele>281.208</ele>
        <time>2019-06-22T08:55:14Z</time>
      </trkpt>
      <trkpt lat="43.007131" lon="-8.920123">
        <ele>281.271</ele>
        <time>2019-06-22T08:55:15Z</time>
      </trkpt>
      <trkpt lat="43.006928" lon="-8.920092">
        <ele>281.855</ele>
        <time>2019-06-22T08:55:16Z</time>
      </trkpt>
      <trkpt lat="43.006718" lon="-8.920077">
        <ele>281.847</ele>
        <time>2019-06-22T08:55:17Z</time>
      </trkpt>
      <trkpt lat="43.006510" lon="-8.920057">
        <ele>284.189</ele>
        <time>2019-06-22T08:55:18Z</time>
      </trkpt>
      <trkpt lat="43.006306" lon="-8.920023">
        <ele>286.037</ele>
        <time>2019-06-22T08:55:19Z</time>
      </trkpt>
      <trkpt lat="43.006102" lon="-8.919953">
        <ele>288.146</ele>
        <time>2019-06-22T08:55:20Z</time>
      </trkpt>
      <trkpt lat="43.005902" lon="-8.919851">
        <ele>290.391</ele>
        <time>2019-06-22T08:55:21Z</time>
      </trkpt>
      <trkpt lat="43.005714" lon="-8.919733">
        <ele>292.064</ele>
        <time>2019-06-22T08:55:22Z</time>
      </trkpt>
      <trkpt lat="43.005552" lon="-8.919566">
        <ele>293.255</ele>
        <time>2019-06-22T08:55:23Z</time>
      </trkpt>
      <trkpt lat="43.005407" lon="-8.919380">
        <ele>294.207</ele>
        <time>2019-06-22T08:55:24Z</time>
      </trkpt>
      <trkpt lat="43.005248" lon="-8.919171">
        <ele>294.917</ele>
        <time>2019-06-22T08:55:25Z</time>
      </trkpt>
      <trkpt lat="43.005116" lon="-8.918917">
        <ele>295.908</ele>
        <time>2019-06-22T08:55:26Z</time>
      </trkpt>
      <trkpt lat="43.004986" lon="-8.918677">
        <ele>296.988</ele>
        <time>2019-06-22T08:55:27Z</time>
      </trkpt>
      <trkpt lat="43.004855" lon="-8.918423">
        <ele>297.482</ele>
        <time>2019-06-22T08:55:28Z</time>
      </trkpt>
      <trkpt lat="43.004713" lon="-8.918183">
        <ele>297.514</ele>
        <time>2019-06-22T08:55:29Z</time>
      </trkpt>
      <trkpt lat="43.004586" lon="-8.917950">
        <ele>298.896</ele>
        <time>2019-06-22T08:55:30Z</time>
      </trkpt>
      <trkpt lat="43.004450" lon="-8.917705">
        <ele>299.694</ele>
        <time>2019-06-22T08:55:31Z</time>
      </trkpt>
      <trkpt lat="43.004324" lon="-8.917441">
        <ele>299.673</ele>
        <time>2019-06-22T08:55:32Z</time>
      </trkpt>
      <trkpt lat="43.004190" lon="-8.917206">
        <ele>300.788</ele>
        <time>2019-06-22T08:55:33Z</time>
      </trkpt>
      <trkpt lat="43.004066" lon="-8.916958">
        <ele>302.681</ele>
        <time>2019-06-22T08:55:34Z</time>
      </trkpt>
      <trkpt lat="43.003936" lon="-8.916698">
        <ele>302.718</ele>
        <time>2019-06-22T08:55:35Z</time>
      </trkpt>
      <trkpt lat="43.003810" lon="-8.916445">
        <ele>302.898</ele>
        <time>2019-06-22T08:55:36Z</time>
      </trkpt>
      <trkpt lat="43.003698" lon="-8.916202">
        <ele>303.817</ele>
        <time>2019-06-22T08:55:37Z</time>
      </trkpt>
      <trkpt lat="43.003576" lon="-8.915964">
        <ele>305.608</ele>
        <time>2019-06-22T08:55:38Z</time>
      </trkpt>
      <trkpt lat="43.003462" lon="-8.915731">
        <ele>306.954</ele>
        <time>2019-06-22T08:55:39Z</time>
      </trkpt>
      <trkpt lat="43.003345" lon="-8.915500">
        <ele>309.848</ele>
        <time>2019-06-22T08:55:40Z</time>
      </trkpt>
      <trkpt lat="43.003209" lon="-8.915254">
        <ele>312.660</ele>
        <time>2019-06-22T08:55:41Z</time>
      </trkpt>
      <trkpt lat="43.003086" lon="-8.915020">
        <ele>315.042</ele>
        <time>2019-06-22T08:55:42Z</time>
      </trkpt>
      <trkpt lat="43.002935" lon="-8.914800">
        <ele>316.040</ele>
        <time>2019-06-22T08:55:43Z</time>
      </trkpt>
      <trkpt lat="43.002780" lon="-8.914620">
        <ele>316.079</ele>
        <time>2019-06-22T08:55:44Z</time>
      </trkpt>
      <trkpt lat="43.002616" lon="-8.914430">
        <ele>315.984</ele>
        <time>2019-06-22T08:55:45Z</time>
      </trkpt>
      <trkpt lat="43.002432" lon="-8.914269">
        <ele>315.957</ele>
        <time>2019-06-22T08:55:46Z</time>
      </trkpt>
      <trkpt lat="43.002250" lon="-8.914146">
        <ele>315.668</ele>
        <time>2019-06-22T08:55:47Z</time>
      </trkpt>
      <trkpt lat="43.002036" lon="-8.914058">
        <ele>315.842</ele>
        <time>2019-06-22T08:55:48Z</time>
      </trkpt>
      <trkpt lat="43.001833" lon="-8.913985">
        <ele>315.826</ele>
        <time>2019-06-22T08:55:49Z</time>
      </trkpt>
      <trkpt lat="43.001624" lon="-8.913921">
        <ele>316.708</ele>
        <time>2019-06-22T08:55:50Z</time>
      </trkpt>
      <trkpt lat="43.001401" lon="-8.913941">
        <ele>316.899</ele>
        <time>2019-06-22T08:55:51Z</time>
      </trkpt>
      <trkpt lat="43.001176" lon="-8.913963">
        <ele>317.593</ele>
        <time>2019-06-22T08:55:52Z</time>
      </trkpt>
      <trkpt lat="43.000959" lon="-8.914004">
        <ele>317.365</ele>
        <time>2019-06-22T08:55:53Z</time>
      </trkpt>
      <trkpt lat="43.000752" lon="-8.914059">
        <ele>317.577</ele>
        <time>2019-06-22T08:55:54Z</time>
      </trkpt>
      <trkpt lat="43.000544" lon="-8.914161">
        <ele>317.745</ele>
        <time>2019-06-22T08:55:55Z</time>
      </trkpt>
      <trkpt lat="43.000345" lon="-8.914265">
        <ele>317.954</ele>
        <time>2019-06-22T08:55:56Z</time>
      </trkpt>
      <trkpt lat="43.000159" lon="-8.914348">
        <ele>317.929</ele>
        <time>2019-06-22T08:55:57Z</time>
      </trkpt>
      <trkpt lat="42.999962" lon="-8.914429">
        <ele>319.532</ele>
        <time>2019-06-22T08:55:58Z</time>
      </trkpt>
      <trkpt lat="42.999762" lon="-8.914467">
        <ele>321.032</ele>
        <time>2019-06-22T08:55:59Z</time>
      </trkpt>
      <trkpt lat="42.999543" lon="-8.914470">
        <ele>322.092</ele>
        <time>2019-06-22T08:56:00Z</time>
      </trkpt>
      <trkpt lat="42.999338" lon="-8.914441">
        <ele>323.411</ele>
        <time>2019-06-22T08:56:01Z</time>
      </trkpt>
      <trkpt lat="42.999116" lon="-8.914392">
        <ele>323.608</ele>
        <time>2019-06-22T08:56:02Z</time>
      </trkpt>
      <trkpt lat="42.998895" lon="-8.914300">
        <ele>323.636</ele>
        <time>2019-06-22T08:56:03Z</time>
      </trkpt>
      <trkpt lat="42.998676" lon="-8.914199">
        <ele>323.410</ele>
        <time>2019-06-22T08:56:04Z</time>
      </trkpt>
      <trkpt lat="42.998473" lon="-8.914089">
        <ele>322.992</ele>
        <time>2019-06-22T08:56:05Z</time>
      </trkpt>
      <trkpt lat="42.998277" lon="-8.913984">
        <ele>322.174</ele>
        <time>2019-06-22T08:56:06Z</time>
      </trkpt>
      <trkpt lat="42.998099" lon="-8.913883">
        <ele>321.292</ele>
        <time>2019-06-22T08:56:07Z</time>
      </trkpt>
      <trkpt lat="42.997927" lon="-8.913791">
        <ele>321.181</ele>
        <time>2019-06-22T08:56:08Z</time>
      </trkpt>
      <trkpt lat="42.997764" lon="-8.913705">
        <ele>321.186</ele>
        <time>2019-06-22T08:56:09Z</time>
      </trkpt>
      <trkpt lat="42.997597" lon="-8.913617">
        <ele>322.449</ele>
        <time>2019-06-22T08:56:10Z</time>
      </trkpt>
      <trkpt lat="42.997444" lon="-8.913552">
        <ele>323.492</ele>
        <time>2019-06-22T08:56:11Z</time>
      </trkpt>
      <trkpt lat="42.997298" lon="-8.913482">
        <ele>324.473</ele>
        <time>2019-06-22T08:56:12Z</time>
      </trkpt>
      <trkpt lat="42.997155" lon="-8.913414">
        <ele>324.420</ele>
        <time>2019-06-22T08:56:13Z</time>
      </trkpt>
      <trkpt lat="42.997032" lon="-8.913345">
        <ele>324.708</ele>
        <time>2019-06-22T08:56:14Z</time>
      </trkpt>
      <trkpt lat="42.996904" lon="-8.913281">
        <ele>324.912</ele>
        <time>2019-06-22T08:56:15Z</time>
      </trkpt>
      <trkpt lat="42.996783" lon="-8.913218">
        <ele>324.916</ele>
        <time>2019-06-22T08:56:16Z</time>
      </trkpt>
      <trkpt lat="42.996677" lon="-8.913145">
        <ele>325.158</ele>
        <time>2019-06-22T08:56:17Z</time>
      </trkpt>
      <trkpt lat="42.996576" lon="-8.913056">
        <ele>326.290</ele>
        <time>2019-06-22T08:56:18Z</time>
      </trkpt>
      <trkpt lat="42.996488" lon="-8.912954">
        <ele>327.258</ele>
        <time>2019-06-22T08:56:19Z</time>
      </trkpt>
      <trkpt lat="42.996415" lon="-8.912846">
        <ele>327.837</ele>
        <time>2019-06-22T08:56:20Z</time>
      </trkpt>
      <trkpt lat="42.996352" lon="-8.912729">
        <ele>328.042</ele>
        <time>2019-06-22T08:56:21Z</time>
      </trkpt>
      <trkpt lat="42.996310" lon="-8.912609">
        <ele>328.045</ele>
        <time>2019-06-22T08:56:22Z</time>
      </trkpt>
      <trkpt lat="42.996273" lon="-8.912496">
        <ele>328.029</ele>
        <time>2019-06-22T08:56:23Z</time>
      </trkpt>
      <trkpt lat="42.996228" lon="-8.912376">
        <ele>328.000</ele>
        <time>2019-06-22T08:56:24Z</time>
      </trkpt>
      <trkpt lat="42.996189" lon="-8.912265">
        <ele>327.420</ele>
        <time>2019-06-22T08:56:25Z</time>
      </trkpt>
      <trkpt lat="42.996162" lon="-8.912182">
        <ele>327.308</ele>
        <time>2019-06-22T08:56:26Z</time>
      </trkpt>
      <trkpt lat="42.996145" lon="-8.912097">
        <ele>327.355</ele>
        <time>2019-06-22T08:56:27Z</time>
      </trkpt>
      <trkpt lat="42.996126" lon="-8.912030">
        <ele>327.079</ele>
        <time>2019-06-22T08:56:28Z</time>
      </trkpt>
      <trkpt lat="42.996082" lon="-8.911940">
        <ele>327.311</ele>
        <time>2019-06-22T08:56:30Z</time>
      </trkpt>
      <trkpt lat="42.996070" lon="-8.911872">
        <ele>327.173</ele>
        <time>2019-06-22T08:56:32Z</time>
      </trkpt>
      <trkpt lat="42.996052" lon="-8.911815">
        <ele>326.871</ele>
        <time>2019-06-22T08:56:34Z</time>
      </trkpt>
      <trkpt lat="42.996016" lon="-8.911773">
        <ele>326.240</ele>
        <time>2019-06-22T08:56:46Z</time>
      </trkpt>
      <trkpt lat="42.996006" lon="-8.911713">
        <ele>326.315</ele>
        <time>2019-06-22T08:57:33Z</time>
      </trkpt>
      <trkpt lat="42.996020" lon="-8.911604">
        <ele>326.518</ele>
        <time>2019-06-22T08:57:52Z</time>
      </trkpt>
      <trkpt lat="42.995998" lon="-8.911519">
        <ele>326.574</ele>
        <time>2019-06-22T08:57:53Z</time>
      </trkpt>
      <trkpt lat="42.995977" lon="-8.911388">
        <ele>326.456</ele>
        <time>2019-06-22T08:57:54Z</time>
      </trkpt>
      <trkpt lat="42.995950" lon="-8.911236">
        <ele>325.921</ele>
        <time>2019-06-22T08:57:55Z</time>
      </trkpt>
      <trkpt lat="42.995916" lon="-8.911062">
        <ele>325.308</ele>
        <time>2019-06-22T08:57:56Z</time>
      </trkpt>
      <trkpt lat="42.995867" lon="-8.910869">
        <ele>324.540</ele>
        <time>2019-06-22T08:57:57Z</time>
      </trkpt>
      <trkpt lat="42.995819" lon="-8.910679">
        <ele>323.814</ele>
        <time>2019-06-22T08:57:58Z</time>
      </trkpt>
      <trkpt lat="42.995768" lon="-8.910450">
        <ele>322.716</ele>
        <time>2019-06-22T08:57:59Z</time>
      </trkpt>
      <trkpt lat="42.995723" lon="-8.910202">
        <ele>322.778</ele>
        <time>2019-06-22T08:58:00Z</time>
      </trkpt>
      <trkpt lat="42.995663" lon="-8.909945">
        <ele>321.866</ele>
        <time>2019-06-22T08:58:01Z</time>
      </trkpt>
      <trkpt lat="42.995587" lon="-8.909677">
        <ele>320.655</ele>
        <time>2019-06-22T08:58:02Z</time>
      </trkpt>
      <trkpt lat="42.995517" lon="-8.909403">
        <ele>318.870</ele>
        <time>2019-06-22T08:58:03Z</time>
      </trkpt>
      <trkpt lat="42.995447" lon="-8.909121">
        <ele>316.763</ele>
        <time>2019-06-22T08:58:04Z</time>
      </trkpt>
      <trkpt lat="42.995378" lon="-8.908829">
        <ele>314.582</ele>
        <time>2019-06-22T08:58:05Z</time>
      </trkpt>
      <trkpt lat="42.995312" lon="-8.908538">
        <ele>313.043</ele>
        <time>2019-06-22T08:58:06Z</time>
      </trkpt>
      <trkpt lat="42.995232" lon="-8.908245">
        <ele>311.517</ele>
        <time>2019-06-22T08:58:07Z</time>
      </trkpt>
      <trkpt lat="42.995156" lon="-8.907959">
        <ele>311.008</ele>
        <time>2019-06-22T08:58:08Z</time>
      </trkpt>
      <trkpt lat="42.995077" lon="-8.907653">
        <ele>311.041</ele>
        <time>2019-06-22T08:58:09Z</time>
      </trkpt>
      <trkpt lat="42.995002" lon="-8.907341">
        <ele>310.885</ele>
        <time>2019-06-22T08:58:10Z</time>
      </trkpt>
      <trkpt lat="42.994935" lon="-8.907029">
        <ele>309.077</ele>
        <time>2019-06-22T08:58:11Z</time>
      </trkpt>
      <trkpt lat="42.994871" lon="-8.906716">
        <ele>308.079</ele>
        <time>2019-06-22T08:58:12Z</time>
      </trkpt>
      <trkpt lat="42.994793" lon="-8.906406">
        <ele>306.677</ele>
        <time>2019-06-22T08:58:13Z</time>
      </trkpt>
      <trkpt lat="42.994720" lon="-8.906087">
        <ele>305.276</ele>
        <time>2019-06-22T08:58:14Z</time>
      </trkpt>
      <trkpt lat="42.994650" lon="-8.905765">
        <ele>305.231</ele>
        <time>2019-06-22T08:58:15Z</time>
      </trkpt>
      <trkpt lat="42.994590" lon="-8.905432">
        <ele>306.474</ele>
        <time>2019-06-22T08:58:16Z</time>
      </trkpt>
      <trkpt lat="42.994519" lon="-8.905103">
        <ele>307.923</ele>
        <time>2019-06-22T08:58:17Z</time>
      </trkpt>
      <trkpt lat="42.994449" lon="-8.904763">
        <ele>308.483</ele>
        <time>2019-06-22T08:58:18Z</time>
      </trkpt>
      <trkpt lat="42.994378" lon="-8.904430">
        <ele>308.411</ele>
        <time>2019-06-22T08:58:19Z</time>
      </trkpt>
      <trkpt lat="42.994310" lon="-8.904098">
        <ele>307.008</ele>
        <time>2019-06-22T08:58:20Z</time>
      </trkpt>
      <trkpt lat="42.994250" lon="-8.903759">
        <ele>305.225</ele>
        <time>2019-06-22T08:58:21Z</time>
      </trkpt>
      <trkpt lat="42.994185" lon="-8.903418">
        <ele>302.979</ele>
        <time>2019-06-22T08:58:22Z</time>
      </trkpt>
      <trkpt lat="42.994122" lon="-8.903081">
        <ele>301.221</ele>
        <time>2019-06-22T08:58:23Z</time>
      </trkpt>
      <trkpt lat="42.994055" lon="-8.902733">
        <ele>301.273</ele>
        <time>2019-06-22T08:58:24Z</time>
      </trkpt>
      <trkpt lat="42.993987" lon="-8.902387">
        <ele>301.381</ele>
        <time>2019-06-22T08:58:25Z</time>
      </trkpt>
      <trkpt lat="42.993920" lon="-8.902030">
        <ele>302.650</ele>
        <time>2019-06-22T08:58:26Z</time>
      </trkpt>
      <trkpt lat="42.993851" lon="-8.901685">
        <ele>304.335</ele>
        <time>2019-06-22T08:58:27Z</time>
      </trkpt>
      <trkpt lat="42.993776" lon="-8.901336">
        <ele>306.258</ele>
        <time>2019-06-22T08:58:28Z</time>
      </trkpt>
      <trkpt lat="42.993710" lon="-8.900997">
        <ele>306.238</ele>
        <time>2019-06-22T08:58:29Z</time>
      </trkpt>
      <trkpt lat="42.993650" lon="-8.900649">
        <ele>305.770</ele>
        <time>2019-06-22T08:58:30Z</time>
      </trkpt>
      <trkpt lat="42.993585" lon="-8.900298">
        <ele>305.317</ele>
        <time>2019-06-22T08:58:31Z</time>
      </trkpt>
      <trkpt lat="42.993520" lon="-8.899963">
        <ele>303.708</ele>
        <time>2019-06-22T08:58:32Z</time>
      </trkpt>
      <trkpt lat="42.993451" lon="-8.899620">
        <ele>301.016</ele>
        <time>2019-06-22T08:58:33Z</time>
      </trkpt>
      <trkpt lat="42.993379" lon="-8.899278">
        <ele>299.740</ele>
        <time>2019-06-22T08:58:34Z</time>
      </trkpt>
      <trkpt lat="42.993308" lon="-8.898932">
        <ele>299.792</ele>
        <time>2019-06-22T08:58:35Z</time>
      </trkpt>
      <trkpt lat="42.993241" lon="-8.898598">
        <ele>299.814</ele>
        <time>2019-06-22T08:58:36Z</time>
      </trkpt>
      <trkpt lat="42.993174" lon="-8.898261">
        <ele>299.882</ele>
        <time>2019-06-22T08:58:37Z</time>
      </trkpt>
      <trkpt lat="42.993113" lon="-8.897926">
        <ele>300.531</ele>
        <time>2019-06-22T08:58:38Z</time>
      </trkpt>
      <trkpt lat="42.993050" lon="-8.897585">
        <ele>301.536</ele>
        <time>2019-06-22T08:58:39Z</time>
      </trkpt>
      <trkpt lat="42.992988" lon="-8.897249">
        <ele>301.659</ele>
        <time>2019-06-22T08:58:40Z</time>
      </trkpt>
      <trkpt lat="42.992932" lon="-8.896907">
        <ele>301.671</ele>
        <time>2019-06-22T08:58:41Z</time>
      </trkpt>
      <trkpt lat="42.992879" lon="-8.896562">
        <ele>300.541</ele>
        <time>2019-06-22T08:58:42Z</time>
      </trkpt>
      <trkpt lat="42.992831" lon="-8.896206">
        <ele>300.315</ele>
        <time>2019-06-22T08:58:43Z</time>
      </trkpt>
      <trkpt lat="42.992789" lon="-8.895850">
        <ele>298.708</ele>
        <time>2019-06-22T08:58:44Z</time>
      </trkpt>
      <trkpt lat="42.992744" lon="-8.895490">
        <ele>297.090</ele>
        <time>2019-06-22T08:58:45Z</time>
      </trkpt>
      <trkpt lat="42.992705" lon="-8.895120">
        <ele>294.894</ele>
        <time>2019-06-22T08:58:46Z</time>
      </trkpt>
      <trkpt lat="42.992668" lon="-8.894749">
        <ele>293.286</ele>
        <time>2019-06-22T08:58:47Z</time>
      </trkpt>
      <trkpt lat="42.992633" lon="-8.894375">
        <ele>291.318</ele>
        <time>2019-06-22T08:58:48Z</time>
      </trkpt>
      <trkpt lat="42.992601" lon="-8.893999">
        <ele>291.376</ele>
        <time>2019-06-22T08:58:49Z</time>
      </trkpt>
      <trkpt lat="42.992579" lon="-8.893627">
        <ele>291.135</ele>
        <time>2019-06-22T08:58:50Z</time>
      </trkpt>
      <trkpt lat="42.992555" lon="-8.893258">
        <ele>291.350</ele>
        <time>2019-06-22T08:58:51Z</time>
      </trkpt>
      <trkpt lat="42.992534" lon="-8.892900">
        <ele>291.123</ele>
        <time>2019-06-22T08:58:52Z</time>
      </trkpt>
      <trkpt lat="42.992518" lon="-8.892541">
        <ele>290.888</ele>
        <time>2019-06-22T08:58:53Z</time>
      </trkpt>
      <trkpt lat="42.992488" lon="-8.892189">
        <ele>290.624</ele>
        <time>2019-06-22T08:58:54Z</time>
      </trkpt>
      <trkpt lat="42.992454" lon="-8.891836">
        <ele>290.526</ele>
        <time>2019-06-22T08:58:55Z</time>
      </trkpt>
      <trkpt lat="42.992429" lon="-8.891479">
        <ele>290.508</ele>
        <time>2019-06-22T08:58:56Z</time>
      </trkpt>
      <trkpt lat="42.992384" lon="-8.891136">
        <ele>290.441</ele>
        <time>2019-06-22T08:58:57Z</time>
      </trkpt>
      <trkpt lat="42.992332" lon="-8.890788">
        <ele>290.435</ele>
        <time>2019-06-22T08:58:58Z</time>
      </trkpt>
      <trkpt lat="42.992262" lon="-8.890453">
        <ele>291.227</ele>
        <time>2019-06-22T08:58:59Z</time>
      </trkpt>
      <trkpt lat="42.992170" lon="-8.890118">
        <ele>291.289</ele>
        <time>2019-06-22T08:59:00Z</time>
      </trkpt>
      <trkpt lat="42.992076" lon="-8.889793">
        <ele>291.727</ele>
        <time>2019-06-22T08:59:01Z</time>
      </trkpt>
      <trkpt lat="42.991965" lon="-8.889474">
        <ele>291.976</ele>
        <time>2019-06-22T08:59:02Z</time>
      </trkpt>
      <trkpt lat="42.991844" lon="-8.889165">
        <ele>293.591</ele>
        <time>2019-06-22T08:59:03Z</time>
      </trkpt>
      <trkpt lat="42.991717" lon="-8.888876">
        <ele>294.384</ele>
        <time>2019-06-22T08:59:04Z</time>
      </trkpt>
      <trkpt lat="42.991580" lon="-8.888573">
        <ele>294.354</ele>
        <time>2019-06-22T08:59:05Z</time>
      </trkpt>
      <trkpt lat="42.991458" lon="-8.888270">
        <ele>294.256</ele>
        <time>2019-06-22T08:59:06Z</time>
      </trkpt>
      <trkpt lat="42.991333" lon="-8.887958">
        <ele>293.711</ele>
        <time>2019-06-22T08:59:07Z</time>
      </trkpt>
      <trkpt lat="42.991206" lon="-8.887656">
        <ele>293.008</ele>
        <time>2019-06-22T08:59:08Z</time>
      </trkpt>
      <trkpt lat="42.991091" lon="-8.887363">
        <ele>293.068</ele>
        <time>2019-06-22T08:59:09Z</time>
      </trkpt>
      <trkpt lat="42.990964" lon="-8.887066">
        <ele>294.012</ele>
        <time>2019-06-22T08:59:10Z</time>
      </trkpt>
      <trkpt lat="42.990843" lon="-8.886773">
        <ele>295.474</ele>
        <time>2019-06-22T08:59:11Z</time>
      </trkpt>
      <trkpt lat="42.990722" lon="-8.886475">
        <ele>296.556</ele>
        <time>2019-06-22T08:59:12Z</time>
      </trkpt>
      <trkpt lat="42.990599" lon="-8.886172">
        <ele>297.734</ele>
        <time>2019-06-22T08:59:13Z</time>
      </trkpt>
      <trkpt lat="42.990480" lon="-8.885888">
        <ele>298.653</ele>
        <time>2019-06-22T08:59:14Z</time>
      </trkpt>
      <trkpt lat="42.990360" lon="-8.885600">
        <ele>299.318</ele>
        <time>2019-06-22T08:59:15Z</time>
      </trkpt>
      <trkpt lat="42.990246" lon="-8.885331">
        <ele>299.561</ele>
        <time>2019-06-22T08:59:16Z</time>
      </trkpt>
      <trkpt lat="42.990151" lon="-8.885066">
        <ele>300.796</ele>
        <time>2019-06-22T08:59:17Z</time>
      </trkpt>
      <trkpt lat="42.990068" lon="-8.884789">
        <ele>302.431</ele>
        <time>2019-06-22T08:59:18Z</time>
      </trkpt>
      <trkpt lat="42.989991" lon="-8.884506">
        <ele>303.724</ele>
        <time>2019-06-22T08:59:19Z</time>
      </trkpt>
      <trkpt lat="42.989934" lon="-8.884208">
        <ele>305.408</ele>
        <time>2019-06-22T08:59:20Z</time>
      </trkpt>
      <trkpt lat="42.989879" lon="-8.883899">
        <ele>307.442</ele>
        <time>2019-06-22T08:59:21Z</time>
      </trkpt>
      <trkpt lat="42.989842" lon="-8.883584">
        <ele>307.946</ele>
        <time>2019-06-22T08:59:22Z</time>
      </trkpt>
      <trkpt lat="42.989802" lon="-8.883268">
        <ele>308.928</ele>
        <time>2019-06-22T08:59:23Z</time>
      </trkpt>
      <trkpt lat="42.989769" lon="-8.882952">
        <ele>309.570</ele>
        <time>2019-06-22T08:59:24Z</time>
      </trkpt>
      <trkpt lat="42.989734" lon="-8.882629">
        <ele>309.538</ele>
        <time>2019-06-22T08:59:25Z</time>
      </trkpt>
      <trkpt lat="42.989690" lon="-8.882314">
        <ele>309.037</ele>
        <time>2019-06-22T08:59:26Z</time>
      </trkpt>
      <trkpt lat="42.989649" lon="-8.881996">
        <ele>309.062</ele>
        <time>2019-06-22T08:59:27Z</time>
      </trkpt>
      <trkpt lat="42.989614" lon="-8.881678">
        <ele>309.045</ele>
        <time>2019-06-22T08:59:28Z</time>
      </trkpt>
      <trkpt lat="42.989584" lon="-8.881360">
        <ele>309.178</ele>
        <time>2019-06-22T08:59:29Z</time>
      </trkpt>
      <trkpt lat="42.989550" lon="-8.881036">
        <ele>309.333</ele>
        <time>2019-06-22T08:59:30Z</time>
      </trkpt>
      <trkpt lat="42.989512" lon="-8.880718">
        <ele>310.726</ele>
        <time>2019-06-22T08:59:31Z</time>
      </trkpt>
      <trkpt lat="42.989468" lon="-8.880402">
        <ele>312.108</ele>
        <time>2019-06-22T08:59:32Z</time>
      </trkpt>
      <trkpt lat="42.989423" lon="-8.880090">
        <ele>313.390</ele>
        <time>2019-06-22T08:59:33Z</time>
      </trkpt>
      <trkpt lat="42.989382" lon="-8.879780">
        <ele>315.344</ele>
        <time>2019-06-22T08:59:34Z</time>
      </trkpt>
      <trkpt lat="42.989344" lon="-8.879454">
        <ele>317.686</ele>
        <time>2019-06-22T08:59:35Z</time>
      </trkpt>
      <trkpt lat="42.989306" lon="-8.879127">
        <ele>318.838</ele>
        <time>2019-06-22T08:59:36Z</time>
      </trkpt>
      <trkpt lat="42.989267" lon="-8.878810">
        <ele>320.346</ele>
        <time>2019-06-22T08:59:37Z</time>
      </trkpt>
      <trkpt lat="42.989241" lon="-8.878477">
        <ele>321.195</ele>
        <time>2019-06-22T08:59:38Z</time>
      </trkpt>
      <trkpt lat="42.989195" lon="-8.878167">
        <ele>321.390</ele>
        <time>2019-06-22T08:59:39Z</time>
      </trkpt>
      <trkpt lat="42.989158" lon="-8.877847">
        <ele>321.423</ele>
        <time>2019-06-22T08:59:40Z</time>
      </trkpt>
      <trkpt lat="42.989114" lon="-8.877518">
        <ele>321.375</ele>
        <time>2019-06-22T08:59:41Z</time>
      </trkpt>
      <trkpt lat="42.989076" lon="-8.877191">
        <ele>321.228</ele>
        <time>2019-06-22T08:59:42Z</time>
      </trkpt>
      <trkpt lat="42.989040" lon="-8.876864">
        <ele>321.220</ele>
        <time>2019-06-22T08:59:43Z</time>
      </trkpt>
      <trkpt lat="42.989000" lon="-8.876536">
        <ele>321.208</ele>
        <time>2019-06-22T08:59:44Z</time>
      </trkpt>
      <trkpt lat="42.988962" lon="-8.876215">
        <ele>321.170</ele>
        <time>2019-06-22T08:59:45Z</time>
      </trkpt>
      <trkpt lat="42.988918" lon="-8.875897">
        <ele>320.434</ele>
        <time>2019-06-22T08:59:46Z</time>
      </trkpt>
      <trkpt lat="42.988875" lon="-8.875597">
        <ele>319.296</ele>
        <time>2019-06-22T08:59:47Z</time>
      </trkpt>
      <trkpt lat="42.988836" lon="-8.875320">
        <ele>316.748</ele>
        <time>2019-06-22T08:59:48Z</time>
      </trkpt>
      <trkpt lat="42.988802" lon="-8.875058">
        <ele>315.796</ele>
        <time>2019-06-22T08:59:49Z</time>
      </trkpt>
      <trkpt lat="42.988780" lon="-8.874806">
        <ele>315.045</ele>
        <time>2019-06-22T08:59:50Z</time>
      </trkpt>
      <trkpt lat="42.988754" lon="-8.874584">
        <ele>315.070</ele>
        <time>2019-06-22T08:59:51Z</time>
      </trkpt>
      <trkpt lat="42.988731" lon="-8.874370">
        <ele>316.813</ele>
        <time>2019-06-22T08:59:52Z</time>
      </trkpt>
      <trkpt lat="42.988717" lon="-8.874183">
        <ele>318.932</ele>
        <time>2019-06-22T08:59:53Z</time>
      </trkpt>
      <trkpt lat="42.988705" lon="-8.874025">
        <ele>320.192</ele>
        <time>2019-06-22T08:59:54Z</time>
      </trkpt>
      <trkpt lat="42.988676" lon="-8.873915">
        <ele>322.211</ele>
        <time>2019-06-22T08:59:55Z</time>
      </trkpt>
      <trkpt lat="42.988648" lon="-8.873801">
        <ele>323.708</ele>
        <time>2019-06-22T08:59:56Z</time>
      </trkpt>
      <trkpt lat="42.988616" lon="-8.873694">
        <ele>324.526</ele>
        <time>2019-06-22T08:59:57Z</time>
      </trkpt>
      <trkpt lat="42.988586" lon="-8.873606">
        <ele>326.280</ele>
        <time>2019-06-22T08:59:58Z</time>
      </trkpt>
      <trkpt lat="42.988574" lon="-8.873489">
        <ele>326.872</ele>
        <time>2019-06-22T08:59:59Z</time>
      </trkpt>
      <trkpt lat="42.988581" lon="-8.873355">
        <ele>328.124</ele>
        <time>2019-06-22T09:00:00Z</time>
      </trkpt>
      <trkpt lat="42.988581" lon="-8.873213">
        <ele>328.122</ele>
        <time>2019-06-22T09:00:01Z</time>
      </trkpt>
      <trkpt lat="42.988575" lon="-8.873050">
        <ele>328.461</ele>
        <time>2019-06-22T09:00:02Z</time>
      </trkpt>
      <trkpt lat="42.988547" lon="-8.872874">
        <ele>329.186</ele>
        <time>2019-06-22T09:00:03Z</time>
      </trkpt>
      <trkpt lat="42.988499" lon="-8.872712">
        <ele>329.539</ele>
        <time>2019-06-22T09:00:04Z</time>
      </trkpt>
      <trkpt lat="42.988448" lon="-8.872539">
        <ele>329.798</ele>
        <time>2019-06-22T09:00:05Z</time>
      </trkpt>
      <trkpt lat="42.988386" lon="-8.872356">
        <ele>329.715</ele>
        <time>2019-06-22T09:00:06Z</time>
      </trkpt>
      <trkpt lat="42.988303" lon="-8.872184">
        <ele>329.426</ele>
        <time>2019-06-22T09:00:07Z</time>
      </trkpt>
      <trkpt lat="42.988207" lon="-8.872014">
        <ele>328.908</ele>
        <time>2019-06-22T09:00:08Z</time>
      </trkpt>
      <trkpt lat="42.988092" lon="-8.871865">
        <ele>327.852</ele>
        <time>2019-06-22T09:00:09Z</time>
      </trkpt>
      <trkpt lat="42.987965" lon="-8.871730">
        <ele>326.396</ele>
        <time>2019-06-22T09:00:10Z</time>
      </trkpt>
      <trkpt lat="42.987822" lon="-8.871599">
        <ele>325.878</ele>
        <time>2019-06-22T09:00:11Z</time>
      </trkpt>
      <trkpt lat="42.987677" lon="-8.871472">
        <ele>325.460</ele>
        <time>2019-06-22T09:00:12Z</time>
      </trkpt>
      <trkpt lat="42.987522" lon="-8.871345">
        <ele>325.468</ele>
        <time>2019-06-22T09:00:13Z</time>
      </trkpt>
      <trkpt lat="42.987365" lon="-8.871218">
        <ele>325.777</ele>
        <time>2019-06-22T09:00:14Z</time>
      </trkpt>
      <trkpt lat="42.987207" lon="-8.871086">
        <ele>326.832</ele>
        <time>2019-06-22T09:00:15Z</time>
      </trkpt>
      <trkpt lat="42.987052" lon="-8.870960">
        <ele>326.885</ele>
        <time>2019-06-22T09:00:16Z</time>
      </trkpt>
      <trkpt lat="42.986902" lon="-8.870842">
        <ele>326.785</ele>
        <time>2019-06-22T09:00:17Z</time>
      </trkpt>
      <trkpt lat="42.986765" lon="-8.870734">
        <ele>326.089</ele>
        <time>2019-06-22T09:00:18Z</time>
      </trkpt>
      <trkpt lat="42.986629" lon="-8.870627">
        <ele>325.317</ele>
        <time>2019-06-22T09:00:19Z</time>
      </trkpt>
      <trkpt lat="42.986497" lon="-8.870517">
        <ele>324.508</ele>
        <time>2019-06-22T09:00:20Z</time>
      </trkpt>
      <trkpt lat="42.986377" lon="-8.870420">
        <ele>324.421</ele>
        <time>2019-06-22T09:00:21Z</time>
      </trkpt>
      <trkpt lat="42.986260" lon="-8.870329">
        <ele>324.595</ele>
        <time>2019-06-22T09:00:22Z</time>
      </trkpt>
      <trkpt lat="42.986152" lon="-8.870259">
        <ele>324.487</ele>
        <time>2019-06-22T09:00:23Z</time>
      </trkpt>
      <trkpt lat="42.986053" lon="-8.870202">
        <ele>324.429</ele>
        <time>2019-06-22T09:00:24Z</time>
      </trkpt>
      <trkpt lat="42.985961" lon="-8.870134">
        <ele>324.397</ele>
        <time>2019-06-22T09:00:25Z</time>
      </trkpt>
      <trkpt lat="42.985880" lon="-8.870049">
        <ele>324.266</ele>
        <time>2019-06-22T09:00:26Z</time>
      </trkpt>
      <trkpt lat="42.985801" lon="-8.869975">
        <ele>324.251</ele>
        <time>2019-06-22T09:00:27Z</time>
      </trkpt>
      <trkpt lat="42.985683" lon="-8.869859">
        <ele>324.664</ele>
        <time>2019-06-22T09:00:28Z</time>
      </trkpt>
      <trkpt lat="42.985547" lon="-8.869748">
        <ele>324.888</ele>
        <time>2019-06-22T09:00:29Z</time>
      </trkpt>
      <trkpt lat="42.985400" lon="-8.869627">
        <ele>324.824</ele>
        <time>2019-06-22T09:00:30Z</time>
      </trkpt>
      <trkpt lat="42.985244" lon="-8.869502">
        <ele>324.526</ele>
        <time>2019-06-22T09:00:31Z</time>
      </trkpt>
      <trkpt lat="42.985096" lon="-8.869375">
        <ele>324.408</ele>
        <time>2019-06-22T09:00:32Z</time>
      </trkpt>
      <trkpt lat="42.984940" lon="-8.869243">
        <ele>324.421</ele>
        <time>2019-06-22T09:00:33Z</time>
      </trkpt>
      <trkpt lat="42.984771" lon="-8.869099">
        <ele>323.525</ele>
        <time>2019-06-22T09:00:34Z</time>
      </trkpt>
      <trkpt lat="42.984598" lon="-8.868957">
        <ele>323.397</ele>
        <time>2019-06-22T09:00:35Z</time>
      </trkpt>
      <trkpt lat="42.984428" lon="-8.868806">
        <ele>323.099</ele>
        <time>2019-06-22T09:00:36Z</time>
      </trkpt>
      <trkpt lat="42.984250" lon="-8.868660">
        <ele>322.557</ele>
        <time>2019-06-22T09:00:37Z</time>
      </trkpt>
      <trkpt lat="42.984070" lon="-8.868520">
        <ele>322.366</ele>
        <time>2019-06-22T09:00:38Z</time>
      </trkpt>
      <trkpt lat="42.983887" lon="-8.868376">
        <ele>322.381</ele>
        <time>2019-06-22T09:00:39Z</time>
      </trkpt>
      <trkpt lat="42.983701" lon="-8.868231">
        <ele>323.124</ele>
        <time>2019-06-22T09:00:40Z</time>
      </trkpt>
      <trkpt lat="42.983514" lon="-8.868087">
        <ele>323.274</ele>
        <time>2019-06-22T09:00:41Z</time>
      </trkpt>
      <trkpt lat="42.983327" lon="-8.867933">
        <ele>324.056</ele>
        <time>2019-06-22T09:00:42Z</time>
      </trkpt>
      <trkpt lat="42.983140" lon="-8.867786">
        <ele>325.221</ele>
        <time>2019-06-22T09:00:43Z</time>
      </trkpt>
      <trkpt lat="42.982949" lon="-8.867624">
        <ele>325.808</ele>
        <time>2019-06-22T09:00:44Z</time>
      </trkpt>
      <trkpt lat="42.982789" lon="-8.867463">
        <ele>325.860</ele>
        <time>2019-06-22T09:00:45Z</time>
      </trkpt>
      <trkpt lat="42.982602" lon="-8.867315">
        <ele>325.294</ele>
        <time>2019-06-22T09:00:46Z</time>
      </trkpt>
      <trkpt lat="42.982416" lon="-8.867173">
        <ele>324.156</ele>
        <time>2019-06-22T09:00:47Z</time>
      </trkpt>
      <trkpt lat="42.982225" lon="-8.867024">
        <ele>323.058</ele>
        <time>2019-06-22T09:00:48Z</time>
      </trkpt>
      <trkpt lat="42.982035" lon="-8.866863">
        <ele>323.056</ele>
        <time>2019-06-22T09:00:49Z</time>
      </trkpt>
      <trkpt lat="42.981846" lon="-8.866700">
        <ele>323.295</ele>
        <time>2019-06-22T09:00:50Z</time>
      </trkpt>
      <trkpt lat="42.981649" lon="-8.866544">
        <ele>324.430</ele>
        <time>2019-06-22T09:00:51Z</time>
      </trkpt>
      <trkpt lat="42.981452" lon="-8.866387">
        <ele>325.963</ele>
        <time>2019-06-22T09:00:52Z</time>
      </trkpt>
      <trkpt lat="42.981255" lon="-8.866227">
        <ele>327.111</ele>
        <time>2019-06-22T09:00:53Z</time>
      </trkpt>
      <trkpt lat="42.981061" lon="-8.866059">
        <ele>328.221</ele>
        <time>2019-06-22T09:00:54Z</time>
      </trkpt>
      <trkpt lat="42.980860" lon="-8.865893">
        <ele>328.803</ele>
        <time>2019-06-22T09:00:55Z</time>
      </trkpt>
      <trkpt lat="42.980656" lon="-8.865728">
        <ele>328.808</ele>
        <time>2019-06-22T09:00:56Z</time>
      </trkpt>
      <trkpt lat="42.980452" lon="-8.865562">
        <ele>328.844</ele>
        <time>2019-06-22T09:00:57Z</time>
      </trkpt>
      <trkpt lat="42.980242" lon="-8.865388">
        <ele>328.738</ele>
        <time>2019-06-22T09:00:58Z</time>
      </trkpt>
      <trkpt lat="42.980035" lon="-8.865214">
        <ele>327.990</ele>
        <time>2019-06-22T09:00:59Z</time>
      </trkpt>
      <trkpt lat="42.979826" lon="-8.865048">
        <ele>327.342</ele>
        <time>2019-06-22T09:01:00Z</time>
      </trkpt>
      <trkpt lat="42.979619" lon="-8.864894">
        <ele>327.030</ele>
        <time>2019-06-22T09:01:01Z</time>
      </trkpt>
      <trkpt lat="42.979420" lon="-8.864716">
        <ele>326.799</ele>
        <time>2019-06-22T09:01:02Z</time>
      </trkpt>
      <trkpt lat="42.979209" lon="-8.864543">
        <ele>325.664</ele>
        <time>2019-06-22T09:01:03Z</time>
      </trkpt>
      <trkpt lat="42.978995" lon="-8.864371">
        <ele>325.637</ele>
        <time>2019-06-22T09:01:04Z</time>
      </trkpt>
      <trkpt lat="42.978779" lon="-8.864202">
        <ele>325.594</ele>
        <time>2019-06-22T09:01:05Z</time>
      </trkpt>
      <trkpt lat="42.978565" lon="-8.864028">
        <ele>324.657</ele>
        <time>2019-06-22T09:01:06Z</time>
      </trkpt>
      <trkpt lat="42.978351" lon="-8.863853">
        <ele>324.622</ele>
        <time>2019-06-22T09:01:07Z</time>
      </trkpt>
      <trkpt lat="42.978133" lon="-8.863677">
        <ele>324.608</ele>
        <time>2019-06-22T09:01:08Z</time>
      </trkpt>
      <trkpt lat="42.977927" lon="-8.863497">
        <ele>324.642</ele>
        <time>2019-06-22T09:01:09Z</time>
      </trkpt>
      <trkpt lat="42.977710" lon="-8.863327">
        <ele>324.626</ele>
        <time>2019-06-22T09:01:10Z</time>
      </trkpt>
      <trkpt lat="42.977493" lon="-8.863152">
        <ele>324.618</ele>
        <time>2019-06-22T09:01:11Z</time>
      </trkpt>
      <trkpt lat="42.977283" lon="-8.862988">
        <ele>325.230</ele>
        <time>2019-06-22T09:01:12Z</time>
      </trkpt>
      <trkpt lat="42.977067" lon="-8.862809">
        <ele>325.278</ele>
        <time>2019-06-22T09:01:13Z</time>
      </trkpt>
      <trkpt lat="42.976847" lon="-8.862631">
        <ele>325.327</ele>
        <time>2019-06-22T09:01:14Z</time>
      </trkpt>
      <trkpt lat="42.976629" lon="-8.862443">
        <ele>326.872</ele>
        <time>2019-06-22T09:01:15Z</time>
      </trkpt>
      <trkpt lat="42.976405" lon="-8.862266">
        <ele>328.475</ele>
        <time>2019-06-22T09:01:16Z</time>
      </trkpt>
      <trkpt lat="42.976180" lon="-8.862102">
        <ele>328.895</ele>
        <time>2019-06-22T09:01:17Z</time>
      </trkpt>
      <trkpt lat="42.975956" lon="-8.861931">
        <ele>329.449</ele>
        <time>2019-06-22T09:01:18Z</time>
      </trkpt>
      <trkpt lat="42.975738" lon="-8.861769">
        <ele>330.423</ele>
        <time>2019-06-22T09:01:19Z</time>
      </trkpt>
      <trkpt lat="42.975520" lon="-8.861593">
        <ele>331.408</ele>
        <time>2019-06-22T09:01:20Z</time>
      </trkpt>
      <trkpt lat="42.975303" lon="-8.861434">
        <ele>331.442</ele>
        <time>2019-06-22T09:01:21Z</time>
      </trkpt>
      <trkpt lat="42.975093" lon="-8.861284">
        <ele>330.486</ele>
        <time>2019-06-22T09:01:22Z</time>
      </trkpt>
      <trkpt lat="42.974887" lon="-8.861115">
        <ele>330.498</ele>
        <time>2019-06-22T09:01:23Z</time>
      </trkpt>
      <trkpt lat="42.974681" lon="-8.860941">
        <ele>330.150</ele>
        <time>2019-06-22T09:01:24Z</time>
      </trkpt>
      <trkpt lat="42.974480" lon="-8.860767">
        <ele>330.158</ele>
        <time>2019-06-22T09:01:25Z</time>
      </trkpt>
      <trkpt lat="42.974275" lon="-8.860590">
        <ele>330.167</ele>
        <time>2019-06-22T09:01:26Z</time>
      </trkpt>
      <trkpt lat="42.974082" lon="-8.860389">
        <ele>332.152</ele>
        <time>2019-06-22T09:01:27Z</time>
      </trkpt>
      <trkpt lat="42.973899" lon="-8.860173">
        <ele>333.755</ele>
        <time>2019-06-22T09:01:28Z</time>
      </trkpt>
      <trkpt lat="42.973721" lon="-8.859935">
        <ele>335.611</ele>
        <time>2019-06-22T09:01:29Z</time>
      </trkpt>
      <trkpt lat="42.973559" lon="-8.859678">
        <ele>335.721</ele>
        <time>2019-06-22T09:01:30Z</time>
      </trkpt>
      <trkpt lat="42.973415" lon="-8.859406">
        <ele>335.703</ele>
        <time>2019-06-22T09:01:31Z</time>
      </trkpt>
      <trkpt lat="42.973284" lon="-8.859112">
        <ele>334.808</ele>
        <time>2019-06-22T09:01:32Z</time>
      </trkpt>
      <trkpt lat="42.973160" lon="-8.858798">
        <ele>334.144</ele>
        <time>2019-06-22T09:01:33Z</time>
      </trkpt>
      <trkpt lat="42.973052" lon="-8.858482">
        <ele>333.078</ele>
        <time>2019-06-22T09:01:34Z</time>
      </trkpt>
      <trkpt lat="42.972953" lon="-8.858163">
        <ele>332.610</ele>
        <time>2019-06-22T09:01:35Z</time>
      </trkpt>
      <trkpt lat="42.972848" lon="-8.857841">
        <ele>332.292</ele>
        <time>2019-06-22T09:01:36Z</time>
      </trkpt>
      <trkpt lat="42.972748" lon="-8.857514">
        <ele>331.980</ele>
        <time>2019-06-22T09:01:37Z</time>
      </trkpt>
      <trkpt lat="42.972650" lon="-8.857195">
        <ele>330.999</ele>
        <time>2019-06-22T09:01:38Z</time>
      </trkpt>
      <trkpt lat="42.972556" lon="-8.856889">
        <ele>329.994</ele>
        <time>2019-06-22T09:01:39Z</time>
      </trkpt>
      <trkpt lat="42.972456" lon="-8.856607">
        <ele>329.567</ele>
        <time>2019-06-22T09:01:40Z</time>
      </trkpt>
      <trkpt lat="42.972365" lon="-8.856335">
        <ele>327.666</ele>
        <time>2019-06-22T09:01:41Z</time>
      </trkpt>
      <trkpt lat="42.972258" lon="-8.856099">
        <ele>325.529</ele>
        <time>2019-06-22T09:01:42Z</time>
      </trkpt>
      <trkpt lat="42.972143" lon="-8.855895">
        <ele>323.821</ele>
        <time>2019-06-22T09:01:43Z</time>
      </trkpt>
      <trkpt lat="42.972010" lon="-8.855700">
        <ele>322.208</ele>
        <time>2019-06-22T09:01:44Z</time>
      </trkpt>
      <trkpt lat="42.971868" lon="-8.855564">
        <ele>320.369</ele>
        <time>2019-06-22T09:01:45Z</time>
      </trkpt>
      <trkpt lat="42.971693" lon="-8.855418">
        <ele>319.913</ele>
        <time>2019-06-22T09:01:46Z</time>
      </trkpt>
      <trkpt lat="42.971508" lon="-8.855307">
        <ele>319.715</ele>
        <time>2019-06-22T09:01:47Z</time>
      </trkpt>
      <trkpt lat="42.971309" lon="-8.855223">
        <ele>319.287</ele>
        <time>2019-06-22T09:01:48Z</time>
      </trkpt>
      <trkpt lat="42.971102" lon="-8.855154">
        <ele>319.285</ele>
        <time>2019-06-22T09:01:49Z</time>
      </trkpt>
      <trkpt lat="42.970908" lon="-8.855097">
        <ele>320.114</ele>
        <time>2019-06-22T09:01:50Z</time>
      </trkpt>
      <trkpt lat="42.970710" lon="-8.855043">
        <ele>320.169</ele>
        <time>2019-06-22T09:01:51Z</time>
      </trkpt>
      <trkpt lat="42.970523" lon="-8.854988">
        <ele>320.252</ele>
        <time>2019-06-22T09:01:52Z</time>
      </trkpt>
      <trkpt lat="42.970345" lon="-8.854913">
        <ele>320.245</ele>
        <time>2019-06-22T09:01:53Z</time>
      </trkpt>
      <trkpt lat="42.970172" lon="-8.854819">
        <ele>320.247</ele>
        <time>2019-06-22T09:01:54Z</time>
      </trkpt>
      <trkpt lat="42.970022" lon="-8.854699">
        <ele>319.611</ele>
        <time>2019-06-22T09:01:55Z</time>
      </trkpt>
      <trkpt lat="42.969889" lon="-8.854549">
        <ele>318.708</ele>
        <time>2019-06-22T09:01:56Z</time>
      </trkpt>
      <trkpt lat="42.969763" lon="-8.854389">
        <ele>318.637</ele>
        <time>2019-06-22T09:01:57Z</time>
      </trkpt>
      <trkpt lat="42.969675" lon="-8.854195">
        <ele>317.561</ele>
        <time>2019-06-22T09:01:58Z</time>
      </trkpt>
      <trkpt lat="42.969587" lon="-8.853998">
        <ele>316.583</ele>
        <time>2019-06-22T09:01:59Z</time>
      </trkpt>
      <trkpt lat="42.969517" lon="-8.853778">
        <ele>315.575</ele>
        <time>2019-06-22T09:02:00Z</time>
      </trkpt>
      <trkpt lat="42.969475" lon="-8.853555">
        <ele>314.533</ele>
        <time>2019-06-22T09:02:01Z</time>
      </trkpt>
      <trkpt lat="42.969433" lon="-8.853307">
        <ele>313.522</ele>
        <time>2019-06-22T09:02:02Z</time>
      </trkpt>
      <trkpt lat="42.969424" lon="-8.853062">
        <ele>312.287</ele>
        <time>2019-06-22T09:02:03Z</time>
      </trkpt>
      <trkpt lat="42.969422" lon="-8.852803">
        <ele>312.290</ele>
        <time>2019-06-22T09:02:04Z</time>
      </trkpt>
      <trkpt lat="42.969438" lon="-8.852525">
        <ele>311.074</ele>
        <time>2019-06-22T09:02:05Z</time>
      </trkpt>
      <trkpt lat="42.969468" lon="-8.852233">
        <ele>310.056</ele>
        <time>2019-06-22T09:02:06Z</time>
      </trkpt>
      <trkpt lat="42.969481" lon="-8.851946">
        <ele>308.521</ele>
        <time>2019-06-22T09:02:07Z</time>
      </trkpt>
      <trkpt lat="42.969492" lon="-8.851662">
        <ele>307.408</ele>
        <time>2019-06-22T09:02:08Z</time>
      </trkpt>
      <trkpt lat="42.969498" lon="-8.851380">
        <ele>306.310</ele>
        <time>2019-06-22T09:02:09Z</time>
      </trkpt>
      <trkpt lat="42.969507" lon="-8.851101">
        <ele>305.314</ele>
        <time>2019-06-22T09:02:10Z</time>
      </trkpt>
      <trkpt lat="42.969507" lon="-8.850824">
        <ele>303.996</ele>
        <time>2019-06-22T09:02:11Z</time>
      </trkpt>
      <trkpt lat="42.969502" lon="-8.850552">
        <ele>303.618</ele>
        <time>2019-06-22T09:02:12Z</time>
      </trkpt>
      <trkpt lat="42.969503" lon="-8.850303">
        <ele>303.176</ele>
        <time>2019-06-22T09:02:13Z</time>
      </trkpt>
      <trkpt lat="42.969475" lon="-8.850028">
        <ele>302.675</ele>
        <time>2019-06-22T09:02:14Z</time>
      </trkpt>
      <trkpt lat="42.969438" lon="-8.849751">
        <ele>302.090</ele>
        <time>2019-06-22T09:02:15Z</time>
      </trkpt>
      <trkpt lat="42.969384" lon="-8.849489">
        <ele>301.473</ele>
        <time>2019-06-22T09:02:16Z</time>
      </trkpt>
      <trkpt lat="42.969313" lon="-8.849212">
        <ele>301.477</ele>
        <time>2019-06-22T09:02:17Z</time>
      </trkpt>
      <trkpt lat="42.969237" lon="-8.848941">
        <ele>300.761</ele>
        <time>2019-06-22T09:02:18Z</time>
      </trkpt>
      <trkpt lat="42.969136" lon="-8.848672">
        <ele>299.127</ele>
        <time>2019-06-22T09:02:19Z</time>
      </trkpt>
      <trkpt lat="42.969011" lon="-8.848409">
        <ele>297.308</ele>
        <time>2019-06-22T09:02:20Z</time>
      </trkpt>
      <trkpt lat="42.968858" lon="-8.848168">
        <ele>295.110</ele>
        <time>2019-06-22T09:02:21Z</time>
      </trkpt>
      <trkpt lat="42.968699" lon="-8.847934">
        <ele>292.084</ele>
        <time>2019-06-22T09:02:22Z</time>
      </trkpt>
      <trkpt lat="42.968513" lon="-8.847719">
        <ele>289.776</ele>
        <time>2019-06-22T09:02:23Z</time>
      </trkpt>
      <trkpt lat="42.968347" lon="-8.847564">
        <ele>287.158</ele>
        <time>2019-06-22T09:02:24Z</time>
      </trkpt>
      <trkpt lat="42.968134" lon="-8.847411">
        <ele>285.416</ele>
        <time>2019-06-22T09:02:25Z</time>
      </trkpt>
      <trkpt lat="42.967909" lon="-8.847240">
        <ele>283.755</ele>
        <time>2019-06-22T09:02:26Z</time>
      </trkpt>
      <trkpt lat="42.967673" lon="-8.847107">
        <ele>282.230</ele>
        <time>2019-06-22T09:02:27Z</time>
      </trkpt>
      <trkpt lat="42.967438" lon="-8.846968">
        <ele>280.233</ele>
        <time>2019-06-22T09:02:28Z</time>
      </trkpt>
      <trkpt lat="42.967208" lon="-8.846835">
        <ele>279.132</ele>
        <time>2019-06-22T09:02:29Z</time>
      </trkpt>
      <trkpt lat="42.966977" lon="-8.846723">
        <ele>278.592</ele>
        <time>2019-06-22T09:02:30Z</time>
      </trkpt>
      <trkpt lat="42.966741" lon="-8.846594">
        <ele>278.311</ele>
        <time>2019-06-22T09:02:31Z</time>
      </trkpt>
      <trkpt lat="42.966504" lon="-8.846463">
        <ele>277.708</ele>
        <time>2019-06-22T09:02:32Z</time>
      </trkpt>
      <trkpt lat="42.966263" lon="-8.846348">
        <ele>277.576</ele>
        <time>2019-06-22T09:02:33Z</time>
      </trkpt>
      <trkpt lat="42.966030" lon="-8.846224">
        <ele>276.950</ele>
        <time>2019-06-22T09:02:34Z</time>
      </trkpt>
      <trkpt lat="42.965791" lon="-8.846118">
        <ele>275.852</ele>
        <time>2019-06-22T09:02:35Z</time>
      </trkpt>
      <trkpt lat="42.965550" lon="-8.846003">
        <ele>274.164</ele>
        <time>2019-06-22T09:02:36Z</time>
      </trkpt>
      <trkpt lat="42.965310" lon="-8.845883">
        <ele>272.592</ele>
        <time>2019-06-22T09:02:37Z</time>
      </trkpt>
      <trkpt lat="42.965065" lon="-8.845753">
        <ele>270.731</ele>
        <time>2019-06-22T09:02:38Z</time>
      </trkpt>
      <trkpt lat="42.964831" lon="-8.845635">
        <ele>268.896</ele>
        <time>2019-06-22T09:02:39Z</time>
      </trkpt>
      <trkpt lat="42.964638" lon="-8.845507">
        <ele>267.499</ele>
        <time>2019-06-22T09:02:40Z</time>
      </trkpt>
      <trkpt lat="42.964465" lon="-8.845365">
        <ele>266.261</ele>
        <time>2019-06-22T09:02:41Z</time>
      </trkpt>
      <trkpt lat="42.964281" lon="-8.845200">
        <ele>265.921</ele>
        <time>2019-06-22T09:02:42Z</time>
      </trkpt>
      <trkpt lat="42.964113" lon="-8.845000">
        <ele>265.713</ele>
        <time>2019-06-22T09:02:43Z</time>
      </trkpt>
      <trkpt lat="42.963962" lon="-8.844763">
        <ele>265.608</ele>
        <time>2019-06-22T09:02:44Z</time>
      </trkpt>
      <trkpt lat="42.963844" lon="-8.844496">
        <ele>265.599</ele>
        <time>2019-06-22T09:02:45Z</time>
      </trkpt>
      <trkpt lat="42.963819" lon="-8.844190">
        <ele>265.313</ele>
        <time>2019-06-22T09:02:46Z</time>
      </trkpt>
      <trkpt lat="42.963772" lon="-8.843917">
        <ele>264.785</ele>
        <time>2019-06-22T09:02:47Z</time>
      </trkpt>
      <trkpt lat="42.963702" lon="-8.843622">
        <ele>264.017</ele>
        <time>2019-06-22T09:02:48Z</time>
      </trkpt>
      <trkpt lat="42.963676" lon="-8.843342">
        <ele>263.295</ele>
        <time>2019-06-22T09:02:49Z</time>
      </trkpt>
      <trkpt lat="42.963723" lon="-8.843032">
        <ele>262.394</ele>
        <time>2019-06-22T09:02:50Z</time>
      </trkpt>
      <trkpt lat="42.963767" lon="-8.842725">
        <ele>261.499</ele>
        <time>2019-06-22T09:02:51Z</time>
      </trkpt>
      <trkpt lat="42.963831" lon="-8.842411">
        <ele>260.312</ele>
        <time>2019-06-22T09:02:52Z</time>
      </trkpt>
      <trkpt lat="42.963903" lon="-8.842109">
        <ele>259.169</ele>
        <time>2019-06-22T09:02:53Z</time>
      </trkpt>
      <trkpt lat="42.963984" lon="-8.841801">
        <ele>257.904</ele>
        <time>2019-06-22T09:02:54Z</time>
      </trkpt>
      <trkpt lat="42.964075" lon="-8.841490">
        <ele>256.124</ele>
        <time>2019-06-22T09:02:55Z</time>
      </trkpt>
      <trkpt lat="42.964160" lon="-8.841165">
        <ele>253.708</ele>
        <time>2019-06-22T09:02:56Z</time>
      </trkpt>
      <trkpt lat="42.964242" lon="-8.840839">
        <ele>250.989</ele>
        <time>2019-06-22T09:02:57Z</time>
      </trkpt>
      <trkpt lat="42.964331" lon="-8.840511">
        <ele>248.393</ele>
        <time>2019-06-22T09:02:58Z</time>
      </trkpt>
      <trkpt lat="42.964418" lon="-8.840186">
        <ele>245.455</ele>
        <time>2019-06-22T09:02:59Z</time>
      </trkpt>
      <trkpt lat="42.964490" lon="-8.839883">
        <ele>242.827</ele>
        <time>2019-06-22T09:03:00Z</time>
      </trkpt>
      <trkpt lat="42.964562" lon="-8.839591">
        <ele>240.915</ele>
        <time>2019-06-22T09:03:01Z</time>
      </trkpt>
      <trkpt lat="42.964636" lon="-8.839277">
        <ele>238.814</ele>
        <time>2019-06-22T09:03:02Z</time>
      </trkpt>
      <trkpt lat="42.964695" lon="-8.838970">
        <ele>237.099</ele>
        <time>2019-06-22T09:03:03Z</time>
      </trkpt>
      <trkpt lat="42.964739" lon="-8.838640">
        <ele>235.692</ele>
        <time>2019-06-22T09:03:04Z</time>
      </trkpt>
      <trkpt lat="42.964760" lon="-8.838299">
        <ele>233.737</ele>
        <time>2019-06-22T09:03:05Z</time>
      </trkpt>
      <trkpt lat="42.964758" lon="-8.837968">
        <ele>233.749</ele>
        <time>2019-06-22T09:03:06Z</time>
      </trkpt>
      <trkpt lat="42.964750" lon="-8.837624">
        <ele>231.813</ele>
        <time>2019-06-22T09:03:07Z</time>
      </trkpt>
      <trkpt lat="42.964737" lon="-8.837283">
        <ele>230.108</ele>
        <time>2019-06-22T09:03:08Z</time>
      </trkpt>
      <trkpt lat="42.964720" lon="-8.836956">
        <ele>228.986</ele>
        <time>2019-06-22T09:03:09Z</time>
      </trkpt>
      <trkpt lat="42.964718" lon="-8.836638">
        <ele>227.480</ele>
        <time>2019-06-22T09:03:10Z</time>
      </trkpt>
      <trkpt lat="42.964713" lon="-8.836316">
        <ele>226.332</ele>
        <time>2019-06-22T09:03:11Z</time>
      </trkpt>
      <trkpt lat="42.964695" lon="-8.835988">
        <ele>225.894</ele>
        <time>2019-06-22T09:03:12Z</time>
      </trkpt>
      <trkpt lat="42.964666" lon="-8.835666">
        <ele>224.622</ele>
        <time>2019-06-22T09:03:13Z</time>
      </trkpt>
      <trkpt lat="42.964624" lon="-8.835329">
        <ele>222.831</ele>
        <time>2019-06-22T09:03:14Z</time>
      </trkpt>
      <trkpt lat="42.964562" lon="-8.834982">
        <ele>221.436</ele>
        <time>2019-06-22T09:03:15Z</time>
      </trkpt>
      <trkpt lat="42.964481" lon="-8.834648">
        <ele>219.259</ele>
        <time>2019-06-22T09:03:16Z</time>
      </trkpt>
      <trkpt lat="42.964371" lon="-8.834319">
        <ele>216.443</ele>
        <time>2019-06-22T09:03:17Z</time>
      </trkpt>
      <trkpt lat="42.964252" lon="-8.833968">
        <ele>213.864</ele>
        <time>2019-06-22T09:03:18Z</time>
      </trkpt>
      <trkpt lat="42.964130" lon="-8.833640">
        <ele>212.910</ele>
        <time>2019-06-22T09:03:19Z</time>
      </trkpt>
      <trkpt lat="42.964015" lon="-8.833312">
        <ele>212.008</ele>
        <time>2019-06-22T09:03:20Z</time>
      </trkpt>
      <trkpt lat="42.963902" lon="-8.832980">
        <ele>212.047</ele>
        <time>2019-06-22T09:03:21Z</time>
      </trkpt>
      <trkpt lat="42.963791" lon="-8.832653">
        <ele>212.111</ele>
        <time>2019-06-22T09:03:22Z</time>
      </trkpt>
      <trkpt lat="42.963690" lon="-8.832372">
        <ele>212.683</ele>
        <time>2019-06-22T09:03:23Z</time>
      </trkpt>
      <trkpt lat="42.963585" lon="-8.832049">
        <ele>212.625</ele>
        <time>2019-06-22T09:03:24Z</time>
      </trkpt>
      <trkpt lat="42.963484" lon="-8.831744">
        <ele>212.833</ele>
        <time>2019-06-22T09:03:25Z</time>
      </trkpt>
      <trkpt lat="42.963392" lon="-8.831452">
        <ele>212.942</ele>
        <time>2019-06-22T09:03:26Z</time>
      </trkpt>
      <trkpt lat="42.963299" lon="-8.831181">
        <ele>212.947</ele>
        <time>2019-06-22T09:03:27Z</time>
      </trkpt>
      <trkpt lat="42.963205" lon="-8.830924">
        <ele>213.180</ele>
        <time>2019-06-22T09:03:28Z</time>
      </trkpt>
      <trkpt lat="42.963110" lon="-8.830671">
        <ele>213.121</ele>
        <time>2019-06-22T09:03:29Z</time>
      </trkpt>
      <trkpt lat="42.963013" lon="-8.830455">
        <ele>213.041</ele>
        <time>2019-06-22T09:03:30Z</time>
      </trkpt>
      <trkpt lat="42.962900" lon="-8.830240">
        <ele>212.405</ele>
        <time>2019-06-22T09:03:31Z</time>
      </trkpt>
      <trkpt lat="42.962770" lon="-8.830046">
        <ele>212.408</ele>
        <time>2019-06-22T09:03:32Z</time>
      </trkpt>
      <trkpt lat="42.962614" lon="-8.829872">
        <ele>212.885</ele>
        <time>2019-06-22T09:03:33Z</time>
      </trkpt>
      <trkpt lat="42.962447" lon="-8.829720">
        <ele>213.429</ele>
        <time>2019-06-22T09:03:34Z</time>
      </trkpt>
      <trkpt lat="42.962255" lon="-8.829593">
        <ele>214.421</ele>
        <time>2019-06-22T09:03:35Z</time>
      </trkpt>
      <trkpt lat="42.962062" lon="-8.829492">
        <ele>216.073</ele>
        <time>2019-06-22T09:03:36Z</time>
      </trkpt>
      <trkpt lat="42.961868" lon="-8.829389">
        <ele>217.881</ele>
        <time>2019-06-22T09:03:37Z</time>
      </trkpt>
      <trkpt lat="42.961674" lon="-8.829275">
        <ele>219.490</ele>
        <time>2019-06-22T09:03:38Z</time>
      </trkpt>
      <trkpt lat="42.961482" lon="-8.829144">
        <ele>221.065</ele>
        <time>2019-06-22T09:03:39Z</time>
      </trkpt>
      <trkpt lat="42.961296" lon="-8.828990">
        <ele>222.548</ele>
        <time>2019-06-22T09:03:40Z</time>
      </trkpt>
      <trkpt lat="42.961120" lon="-8.828801">
        <ele>223.683</ele>
        <time>2019-06-22T09:03:41Z</time>
      </trkpt>
      <trkpt lat="42.960957" lon="-8.828601">
        <ele>224.125</ele>
        <time>2019-06-22T09:03:42Z</time>
      </trkpt>
      <trkpt lat="42.960800" lon="-8.828377">
        <ele>224.317</ele>
        <time>2019-06-22T09:03:43Z</time>
      </trkpt>
      <trkpt lat="42.960662" lon="-8.828125">
        <ele>224.308</ele>
        <time>2019-06-22T09:03:44Z</time>
      </trkpt>
      <trkpt lat="42.960534" lon="-8.827863">
        <ele>224.361</ele>
        <time>2019-06-22T09:03:45Z</time>
      </trkpt>
      <trkpt lat="42.960422" lon="-8.827573">
        <ele>224.145</ele>
        <time>2019-06-22T09:03:46Z</time>
      </trkpt>
      <trkpt lat="42.960322" lon="-8.827299">
        <ele>223.817</ele>
        <time>2019-06-22T09:03:47Z</time>
      </trkpt>
      <trkpt lat="42.960238" lon="-8.826990">
        <ele>222.939</ele>
        <time>2019-06-22T09:03:48Z</time>
      </trkpt>
      <trkpt lat="42.960148" lon="-8.826666">
        <ele>221.467</ele>
        <time>2019-06-22T09:03:49Z</time>
      </trkpt>
      <trkpt lat="42.960053" lon="-8.826335">
        <ele>220.326</ele>
        <time>2019-06-22T09:03:50Z</time>
      </trkpt>
      <trkpt lat="42.959980" lon="-8.826010">
        <ele>218.631</ele>
        <time>2019-06-22T09:03:51Z</time>
      </trkpt>
      <trkpt lat="42.959889" lon="-8.825693">
        <ele>216.694</ele>
        <time>2019-06-22T09:03:52Z</time>
      </trkpt>
      <trkpt lat="42.959797" lon="-8.825374">
        <ele>214.868</ele>
        <time>2019-06-22T09:03:53Z</time>
      </trkpt>
      <trkpt lat="42.959708" lon="-8.825047">
        <ele>214.142</ele>
        <time>2019-06-22T09:03:54Z</time>
      </trkpt>
      <trkpt lat="42.959624" lon="-8.824727">
        <ele>212.826</ele>
        <time>2019-06-22T09:03:55Z</time>
      </trkpt>
      <trkpt lat="42.959528" lon="-8.824395">
        <ele>211.908</ele>
        <time>2019-06-22T09:03:56Z</time>
      </trkpt>
      <trkpt lat="42.959439" lon="-8.824074">
        <ele>211.399</ele>
        <time>2019-06-22T09:03:57Z</time>
      </trkpt>
      <trkpt lat="42.959347" lon="-8.823754">
        <ele>211.143</ele>
        <time>2019-06-22T09:03:58Z</time>
      </trkpt>
      <trkpt lat="42.959259" lon="-8.823442">
        <ele>210.185</ele>
        <time>2019-06-22T09:03:59Z</time>
      </trkpt>
      <trkpt lat="42.959172" lon="-8.823140">
        <ele>209.127</ele>
        <time>2019-06-22T09:04:00Z</time>
      </trkpt>
      <trkpt lat="42.959068" lon="-8.822848">
        <ele>207.165</ele>
        <time>2019-06-22T09:04:01Z</time>
      </trkpt>
      <trkpt lat="42.958949" lon="-8.822585">
        <ele>205.754</ele>
        <time>2019-06-22T09:04:02Z</time>
      </trkpt>
      <trkpt lat="42.958808" lon="-8.822327">
        <ele>203.229</ele>
        <time>2019-06-22T09:04:03Z</time>
      </trkpt>
      <trkpt lat="42.958642" lon="-8.822121">
        <ele>201.262</ele>
        <time>2019-06-22T09:04:04Z</time>
      </trkpt>
      <trkpt lat="42.958453" lon="-8.821924">
        <ele>199.536</ele>
        <time>2019-06-22T09:04:05Z</time>
      </trkpt>
      <trkpt lat="42.958253" lon="-8.821754">
        <ele>199.517</ele>
        <time>2019-06-22T09:04:06Z</time>
      </trkpt>
      <trkpt lat="42.958043" lon="-8.821606">
        <ele>199.418</ele>
        <time>2019-06-22T09:04:07Z</time>
      </trkpt>
      <trkpt lat="42.957837" lon="-8.821431">
        <ele>199.408</ele>
        <time>2019-06-22T09:04:08Z</time>
      </trkpt>
      <trkpt lat="42.957625" lon="-8.821232">
        <ele>201.066</ele>
        <time>2019-06-22T09:04:09Z</time>
      </trkpt>
      <trkpt lat="42.957432" lon="-8.821017">
        <ele>202.110</ele>
        <time>2019-06-22T09:04:10Z</time>
      </trkpt>
      <trkpt lat="42.957258" lon="-8.820779">
        <ele>203.222</ele>
        <time>2019-06-22T09:04:11Z</time>
      </trkpt>
      <trkpt lat="42.957110" lon="-8.820518">
        <ele>204.124</ele>
        <time>2019-06-22T09:04:12Z</time>
      </trkpt>
      <trkpt lat="42.956966" lon="-8.820250">
        <ele>204.712</ele>
        <time>2019-06-22T09:04:13Z</time>
      </trkpt>
      <trkpt lat="42.956839" lon="-8.819959">
        <ele>205.071</ele>
        <time>2019-06-22T09:04:14Z</time>
      </trkpt>
      <trkpt lat="42.956729" lon="-8.819656">
        <ele>205.326</ele>
        <time>2019-06-22T09:04:15Z</time>
      </trkpt>
      <trkpt lat="42.956631" lon="-8.819359">
        <ele>205.929</ele>
        <time>2019-06-22T09:04:16Z</time>
      </trkpt>
      <trkpt lat="42.956538" lon="-8.819051">
        <ele>206.855</ele>
        <time>2019-06-22T09:04:17Z</time>
      </trkpt>
      <trkpt lat="42.956452" lon="-8.818740">
        <ele>206.807</ele>
        <time>2019-06-22T09:04:18Z</time>
      </trkpt>
      <trkpt lat="42.956364" lon="-8.818440">
        <ele>206.317</ele>
        <time>2019-06-22T09:04:19Z</time>
      </trkpt>
      <trkpt lat="42.956281" lon="-8.818167">
        <ele>205.108</ele>
        <time>2019-06-22T09:04:20Z</time>
      </trkpt>
      <trkpt lat="42.956199" lon="-8.817890">
        <ele>203.358</ele>
        <time>2019-06-22T09:04:21Z</time>
      </trkpt>
      <trkpt lat="42.956122" lon="-8.817619">
        <ele>201.712</ele>
        <time>2019-06-22T09:04:22Z</time>
      </trkpt>
      <trkpt lat="42.956035" lon="-8.817334">
        <ele>201.484</ele>
        <time>2019-06-22T09:04:23Z</time>
      </trkpt>
      <trkpt lat="42.955946" lon="-8.817039">
        <ele>201.446</ele>
        <time>2019-06-22T09:04:24Z</time>
      </trkpt>
      <trkpt lat="42.955859" lon="-8.816735">
        <ele>201.594</ele>
        <time>2019-06-22T09:04:25Z</time>
      </trkpt>
      <trkpt lat="42.955775" lon="-8.816433">
        <ele>201.863</ele>
        <time>2019-06-22T09:04:26Z</time>
      </trkpt>
      <trkpt lat="42.955679" lon="-8.816127">
        <ele>201.888</ele>
        <time>2019-06-22T09:04:27Z</time>
      </trkpt>
      <trkpt lat="42.955577" lon="-8.815825">
        <ele>200.841</ele>
        <time>2019-06-22T09:04:28Z</time>
      </trkpt>
      <trkpt lat="42.955482" lon="-8.815529">
        <ele>200.112</ele>
        <time>2019-06-22T09:04:29Z</time>
      </trkpt>
      <trkpt lat="42.955382" lon="-8.815222">
        <ele>198.632</ele>
        <time>2019-06-22T09:04:30Z</time>
      </trkpt>
      <trkpt lat="42.955291" lon="-8.814920">
        <ele>198.105</ele>
        <time>2019-06-22T09:04:31Z</time>
      </trkpt>
      <trkpt lat="42.955187" lon="-8.814623">
        <ele>196.908</ele>
        <time>2019-06-22T09:04:32Z</time>
      </trkpt>
      <trkpt lat="42.955084" lon="-8.814319">
        <ele>196.054</ele>
        <time>2019-06-22T09:04:33Z</time>
      </trkpt>
      <trkpt lat="42.954987" lon="-8.814023">
        <ele>194.868</ele>
        <time>2019-06-22T09:04:34Z</time>
      </trkpt>
      <trkpt lat="42.954877" lon="-8.813714">
        <ele>193.980</ele>
        <time>2019-06-22T09:04:35Z</time>
      </trkpt>
      <trkpt lat="42.954776" lon="-8.813413">
        <ele>192.492</ele>
        <time>2019-06-22T09:04:36Z</time>
      </trkpt>
      <trkpt lat="42.954693" lon="-8.813114">
        <ele>190.960</ele>
        <time>2019-06-22T09:04:37Z</time>
      </trkpt>
      <trkpt lat="42.954598" lon="-8.812833">
        <ele>189.769</ele>
        <time>2019-06-22T09:04:38Z</time>
      </trkpt>
      <trkpt lat="42.954540" lon="-8.812516">
        <ele>189.564</ele>
        <time>2019-06-22T09:04:39Z</time>
      </trkpt>
      <trkpt lat="42.954486" lon="-8.812193">
        <ele>189.577</ele>
        <time>2019-06-22T09:04:40Z</time>
      </trkpt>
      <trkpt lat="42.954457" lon="-8.811890">
        <ele>189.974</ele>
        <time>2019-06-22T09:04:41Z</time>
      </trkpt>
      <trkpt lat="42.954450" lon="-8.811562">
        <ele>190.456</ele>
        <time>2019-06-22T09:04:42Z</time>
      </trkpt>
      <trkpt lat="42.954477" lon="-8.811231">
        <ele>191.221</ele>
        <time>2019-06-22T09:04:43Z</time>
      </trkpt>
      <trkpt lat="42.954521" lon="-8.810905">
        <ele>191.808</ele>
        <time>2019-06-22T09:04:44Z</time>
      </trkpt>
      <trkpt lat="42.954579" lon="-8.810590">
        <ele>192.440</ele>
        <time>2019-06-22T09:04:45Z</time>
      </trkpt>
      <trkpt lat="42.954645" lon="-8.810283">
        <ele>193.164</ele>
        <time>2019-06-22T09:04:46Z</time>
      </trkpt>
      <trkpt lat="42.954715" lon="-8.809976">
        <ele>193.166</ele>
        <time>2019-06-22T09:04:47Z</time>
      </trkpt>
      <trkpt lat="42.954775" lon="-8.809659">
        <ele>193.038</ele>
        <time>2019-06-22T09:04:48Z</time>
      </trkpt>
      <trkpt lat="42.954827" lon="-8.809335">
        <ele>192.726</ele>
        <time>2019-06-22T09:04:49Z</time>
      </trkpt>
      <trkpt lat="42.954860" lon="-8.809008">
        <ele>192.345</ele>
        <time>2019-06-22T09:04:50Z</time>
      </trkpt>
      <trkpt lat="42.954863" lon="-8.808664">
        <ele>191.680</ele>
        <time>2019-06-22T09:04:51Z</time>
      </trkpt>
      <trkpt lat="42.954846" lon="-8.808327">
        <ele>191.643</ele>
        <time>2019-06-22T09:04:52Z</time>
      </trkpt>
      <trkpt lat="42.954820" lon="-8.807981">
        <ele>191.568</ele>
        <time>2019-06-22T09:04:53Z</time>
      </trkpt>
      <trkpt lat="42.954774" lon="-8.807641">
        <ele>191.542</ele>
        <time>2019-06-22T09:04:54Z</time>
      </trkpt>
      <trkpt lat="42.954741" lon="-8.807305">
        <ele>191.526</ele>
        <time>2019-06-22T09:04:55Z</time>
      </trkpt>
      <trkpt lat="42.954690" lon="-8.806962">
        <ele>191.608</ele>
        <time>2019-06-22T09:04:56Z</time>
      </trkpt>
      <trkpt lat="42.954646" lon="-8.806615">
        <ele>191.969</ele>
        <time>2019-06-22T09:04:57Z</time>
      </trkpt>
      <trkpt lat="42.954601" lon="-8.806285">
        <ele>192.533</ele>
        <time>2019-06-22T09:04:58Z</time>
      </trkpt>
      <trkpt lat="42.954557" lon="-8.805948">
        <ele>193.185</ele>
        <time>2019-06-22T09:04:59Z</time>
      </trkpt>
      <trkpt lat="42.954513" lon="-8.805608">
        <ele>193.977</ele>
        <time>2019-06-22T09:05:00Z</time>
      </trkpt>
      <trkpt lat="42.954467" lon="-8.805269">
        <ele>194.245</ele>
        <time>2019-06-22T09:05:01Z</time>
      </trkpt>
      <trkpt lat="42.954425" lon="-8.804942">
        <ele>194.714</ele>
        <time>2019-06-22T09:05:02Z</time>
      </trkpt>
      <trkpt lat="42.954382" lon="-8.804615">
        <ele>195.629</ele>
        <time>2019-06-22T09:05:03Z</time>
      </trkpt>
      <trkpt lat="42.954340" lon="-8.804292">
        <ele>196.552</ele>
        <time>2019-06-22T09:05:04Z</time>
      </trkpt>
      <trkpt lat="42.954295" lon="-8.803969">
        <ele>197.837</ele>
        <time>2019-06-22T09:05:05Z</time>
      </trkpt>
      <trkpt lat="42.954257" lon="-8.803650">
        <ele>197.849</ele>
        <time>2019-06-22T09:05:06Z</time>
      </trkpt>
      <trkpt lat="42.954216" lon="-8.803326">
        <ele>200.213</ele>
        <time>2019-06-22T09:05:07Z</time>
      </trkpt>
      <trkpt lat="42.954186" lon="-8.803011">
        <ele>202.208</ele>
        <time>2019-06-22T09:05:08Z</time>
      </trkpt>
      <trkpt lat="42.954141" lon="-8.802700">
        <ele>203.466</ele>
        <time>2019-06-22T09:05:09Z</time>
      </trkpt>
      <trkpt lat="42.954101" lon="-8.802412">
        <ele>203.750</ele>
        <time>2019-06-22T09:05:10Z</time>
      </trkpt>
      <trkpt lat="42.954064" lon="-8.802111">
        <ele>204.012</ele>
        <time>2019-06-22T09:05:11Z</time>
      </trkpt>
      <trkpt lat="42.954025" lon="-8.801851">
        <ele>204.344</ele>
        <time>2019-06-22T09:05:12Z</time>
      </trkpt>
      <trkpt lat="42.953982" lon="-8.801583">
        <ele>205.082</ele>
        <time>2019-06-22T09:05:13Z</time>
      </trkpt>
      <trkpt lat="42.953925" lon="-8.801320">
        <ele>206.251</ele>
        <time>2019-06-22T09:05:14Z</time>
      </trkpt>
      <trkpt lat="42.953861" lon="-8.801049">
        <ele>207.446</ele>
        <time>2019-06-22T09:05:15Z</time>
      </trkpt>
      <trkpt lat="42.953781" lon="-8.800780">
        <ele>208.889</ele>
        <time>2019-06-22T09:05:16Z</time>
      </trkpt>
      <trkpt lat="42.953665" lon="-8.800526">
        <ele>208.915</ele>
        <time>2019-06-22T09:05:17Z</time>
      </trkpt>
      <trkpt lat="42.953554" lon="-8.800272">
        <ele>208.965</ele>
        <time>2019-06-22T09:05:18Z</time>
      </trkpt>
      <trkpt lat="42.953380" lon="-8.800069">
        <ele>207.911</ele>
        <time>2019-06-22T09:05:19Z</time>
      </trkpt>
      <trkpt lat="42.953196" lon="-8.799879">
        <ele>207.408</ele>
        <time>2019-06-22T09:05:20Z</time>
      </trkpt>
      <trkpt lat="42.953013" lon="-8.799741">
        <ele>207.014</ele>
        <time>2019-06-22T09:05:21Z</time>
      </trkpt>
      <trkpt lat="42.952824" lon="-8.799601">
        <ele>207.048</ele>
        <time>2019-06-22T09:05:22Z</time>
      </trkpt>
      <trkpt lat="42.952628" lon="-8.799475">
        <ele>207.420</ele>
        <time>2019-06-22T09:05:23Z</time>
      </trkpt>
      <trkpt lat="42.952433" lon="-8.799353">
        <ele>208.912</ele>
        <time>2019-06-22T09:05:24Z</time>
      </trkpt>
      <trkpt lat="42.952219" lon="-8.799229">
        <ele>211.370</ele>
        <time>2019-06-22T09:05:25Z</time>
      </trkpt>
      <trkpt lat="42.952020" lon="-8.799100">
        <ele>214.039</ele>
        <time>2019-06-22T09:05:26Z</time>
      </trkpt>
      <trkpt lat="42.951814" lon="-8.798978">
        <ele>216.384</ele>
        <time>2019-06-22T09:05:27Z</time>
      </trkpt>
      <trkpt lat="42.951612" lon="-8.798848">
        <ele>218.687</ele>
        <time>2019-06-22T09:05:28Z</time>
      </trkpt>
      <trkpt lat="42.951412" lon="-8.798718">
        <ele>220.628</ele>
        <time>2019-06-22T09:05:29Z</time>
      </trkpt>
      <trkpt lat="42.951211" lon="-8.798547">
        <ele>222.389</ele>
        <time>2019-06-22T09:05:30Z</time>
      </trkpt>
      <trkpt lat="42.951023" lon="-8.798371">
        <ele>223.917</ele>
        <time>2019-06-22T09:05:31Z</time>
      </trkpt>
      <trkpt lat="42.950852" lon="-8.798180">
        <ele>225.808</ele>
        <time>2019-06-22T09:05:32Z</time>
      </trkpt>
      <trkpt lat="42.950702" lon="-8.797973">
        <ele>227.495</ele>
        <time>2019-06-22T09:05:33Z</time>
      </trkpt>
      <trkpt lat="42.950541" lon="-8.797751">
        <ele>229.329</ele>
        <time>2019-06-22T09:05:34Z</time>
      </trkpt>
      <trkpt lat="42.950407" lon="-8.797517">
        <ele>230.791</ele>
        <time>2019-06-22T09:05:35Z</time>
      </trkpt>
      <trkpt lat="42.950249" lon="-8.797308">
        <ele>231.893</ele>
        <time>2019-06-22T09:05:36Z</time>
      </trkpt>
      <trkpt lat="42.950098" lon="-8.797082">
        <ele>232.731</ele>
        <time>2019-06-22T09:05:37Z</time>
      </trkpt>
      <trkpt lat="42.949947" lon="-8.796856">
        <ele>233.390</ele>
        <time>2019-06-22T09:05:38Z</time>
      </trkpt>
      <trkpt lat="42.949782" lon="-8.796665">
        <ele>233.635</ele>
        <time>2019-06-22T09:05:39Z</time>
      </trkpt>
      <trkpt lat="42.949617" lon="-8.796491">
        <ele>233.758</ele>
        <time>2019-06-22T09:05:40Z</time>
      </trkpt>
      <trkpt lat="42.949441" lon="-8.796364">
        <ele>234.575</ele>
        <time>2019-06-22T09:05:41Z</time>
      </trkpt>
      <trkpt lat="42.949270" lon="-8.796222">
        <ele>236.328</ele>
        <time>2019-06-22T09:05:42Z</time>
      </trkpt>
      <trkpt lat="42.949108" lon="-8.796078">
        <ele>238.220</ele>
        <time>2019-06-22T09:05:43Z</time>
      </trkpt>
      <trkpt lat="42.948969" lon="-8.795926">
        <ele>240.808</ele>
        <time>2019-06-22T09:05:44Z</time>
      </trkpt>
      <trkpt lat="42.948842" lon="-8.795761">
        <ele>243.950</ele>
        <time>2019-06-22T09:05:45Z</time>
      </trkpt>
      <trkpt lat="42.948714" lon="-8.795559">
        <ele>246.764</ele>
        <time>2019-06-22T09:05:46Z</time>
      </trkpt>
      <trkpt lat="42.948619" lon="-8.795360">
        <ele>248.436</ele>
        <time>2019-06-22T09:05:47Z</time>
      </trkpt>
      <trkpt lat="42.948529" lon="-8.795131">
        <ele>250.258</ele>
        <time>2019-06-22T09:05:48Z</time>
      </trkpt>
      <trkpt lat="42.948466" lon="-8.794888">
        <ele>251.086</ele>
        <time>2019-06-22T09:05:49Z</time>
      </trkpt>
      <trkpt lat="42.948403" lon="-8.794636">
        <ele>251.085</ele>
        <time>2019-06-22T09:05:50Z</time>
      </trkpt>
      <trkpt lat="42.948330" lon="-8.794384">
        <ele>249.830</ele>
        <time>2019-06-22T09:05:51Z</time>
      </trkpt>
      <trkpt lat="42.948254" lon="-8.794139">
        <ele>248.163</ele>
        <time>2019-06-22T09:05:52Z</time>
      </trkpt>
      <trkpt lat="42.948154" lon="-8.793920">
        <ele>245.959</ele>
        <time>2019-06-22T09:05:53Z</time>
      </trkpt>
      <trkpt lat="42.948032" lon="-8.793686">
        <ele>243.803</ele>
        <time>2019-06-22T09:05:54Z</time>
      </trkpt>
      <trkpt lat="42.947873" lon="-8.793464">
        <ele>241.823</ele>
        <time>2019-06-22T09:05:55Z</time>
      </trkpt>
      <trkpt lat="42.947711" lon="-8.793251">
        <ele>240.608</ele>
        <time>2019-06-22T09:05:56Z</time>
      </trkpt>
      <trkpt lat="42.947541" lon="-8.793053">
        <ele>239.838</ele>
        <time>2019-06-22T09:05:57Z</time>
      </trkpt>
      <trkpt lat="42.947345" lon="-8.792877">
        <ele>239.122</ele>
        <time>2019-06-22T09:05:58Z</time>
      </trkpt>
      <trkpt lat="42.947138" lon="-8.792702">
        <ele>238.414</ele>
        <time>2019-06-22T09:05:59Z</time>
      </trkpt>
      <trkpt lat="42.946919" lon="-8.792515">
        <ele>237.966</ele>
        <time>2019-06-22T09:06:00Z</time>
      </trkpt>
      <trkpt lat="42.946685" lon="-8.792311">
        <ele>237.884</ele>
        <time>2019-06-22T09:06:01Z</time>
      </trkpt>
      <trkpt lat="42.946468" lon="-8.792117">
        <ele>237.623</ele>
        <time>2019-06-22T09:06:02Z</time>
      </trkpt>
      <trkpt lat="42.946259" lon="-8.791926">
        <ele>236.128</ele>
        <time>2019-06-22T09:06:03Z</time>
      </trkpt>
      <trkpt lat="42.946050" lon="-8.791736">
        <ele>235.041</ele>
        <time>2019-06-22T09:06:04Z</time>
      </trkpt>
      <trkpt lat="42.945822" lon="-8.791548">
        <ele>235.095</ele>
        <time>2019-06-22T09:06:05Z</time>
      </trkpt>
      <trkpt lat="42.945612" lon="-8.791366">
        <ele>232.249</ele>
        <time>2019-06-22T09:06:06Z</time>
      </trkpt>
      <trkpt lat="42.945391" lon="-8.791171">
        <ele>229.223</ele>
        <time>2019-06-22T09:06:07Z</time>
      </trkpt>
      <trkpt lat="42.945175" lon="-8.790971">
        <ele>226.308</ele>
        <time>2019-06-22T09:06:08Z</time>
      </trkpt>
      <trkpt lat="42.944961" lon="-8.790787">
        <ele>223.532</ele>
        <time>2019-06-22T09:06:09Z</time>
      </trkpt>
      <trkpt lat="42.944739" lon="-8.790606">
        <ele>220.486</ele>
        <time>2019-06-22T09:06:10Z</time>
      </trkpt>
      <trkpt lat="42.944528" lon="-8.790417">
        <ele>219.718</ele>
        <time>2019-06-22T09:06:11Z</time>
      </trkpt>
      <trkpt lat="42.944313" lon="-8.790226">
        <ele>218.740</ele>
        <time>2019-06-22T09:06:12Z</time>
      </trkpt>
      <trkpt lat="42.944109" lon="-8.790040">
        <ele>218.248</ele>
        <time>2019-06-22T09:06:13Z</time>
      </trkpt>
      <trkpt lat="42.943901" lon="-8.789843">
        <ele>218.267</ele>
        <time>2019-06-22T09:06:14Z</time>
      </trkpt>
      <trkpt lat="42.943708" lon="-8.789635">
        <ele>219.132</ele>
        <time>2019-06-22T09:06:15Z</time>
      </trkpt>
      <trkpt lat="42.943529" lon="-8.789403">
        <ele>219.845</ele>
        <time>2019-06-22T09:06:16Z</time>
      </trkpt>
      <trkpt lat="42.943360" lon="-8.789154">
        <ele>220.768</ele>
        <time>2019-06-22T09:06:17Z</time>
      </trkpt>
      <trkpt lat="42.943210" lon="-8.788883">
        <ele>222.242</ele>
        <time>2019-06-22T09:06:18Z</time>
      </trkpt>
      <trkpt lat="42.943124" lon="-8.788643">
        <ele>223.526</ele>
        <time>2019-06-22T09:06:19Z</time>
      </trkpt>
      <trkpt lat="42.943007" lon="-8.788349">
        <ele>224.308</ele>
        <time>2019-06-22T09:06:20Z</time>
      </trkpt>
      <trkpt lat="42.942909" lon="-8.788049">
        <ele>225.399</ele>
        <time>2019-06-22T09:06:21Z</time>
      </trkpt>
      <trkpt lat="42.942821" lon="-8.787746">
        <ele>225.933</ele>
        <time>2019-06-22T09:06:22Z</time>
      </trkpt>
      <trkpt lat="42.942740" lon="-8.787439">
        <ele>226.025</ele>
        <time>2019-06-22T09:06:23Z</time>
      </trkpt>
      <trkpt lat="42.942653" lon="-8.787154">
        <ele>226.057</ele>
        <time>2019-06-22T09:06:24Z</time>
      </trkpt>
      <trkpt lat="42.942550" lon="-8.786881">
        <ele>225.465</ele>
        <time>2019-06-22T09:06:25Z</time>
      </trkpt>
      <trkpt lat="42.942422" lon="-8.786612">
        <ele>224.694</ele>
        <time>2019-06-22T09:06:26Z</time>
      </trkpt>
      <trkpt lat="42.942285" lon="-8.786355">
        <ele>223.779</ele>
        <time>2019-06-22T09:06:27Z</time>
      </trkpt>
      <trkpt lat="42.942142" lon="-8.786121">
        <ele>222.812</ele>
        <time>2019-06-22T09:06:28Z</time>
      </trkpt>
      <trkpt lat="42.941988" lon="-8.785926">
        <ele>221.093</ele>
        <time>2019-06-22T09:06:29Z</time>
      </trkpt>
      <trkpt lat="42.941814" lon="-8.785736">
        <ele>219.065</ele>
        <time>2019-06-22T09:06:30Z</time>
      </trkpt>
      <trkpt lat="42.941634" lon="-8.785559">
        <ele>217.421</ele>
        <time>2019-06-22T09:06:31Z</time>
      </trkpt>
      <trkpt lat="42.941445" lon="-8.785421">
        <ele>215.808</ele>
        <time>2019-06-22T09:06:32Z</time>
      </trkpt>
      <trkpt lat="42.941269" lon="-8.785276">
        <ele>214.162</ele>
        <time>2019-06-22T09:06:33Z</time>
      </trkpt>
      <trkpt lat="42.941114" lon="-8.785160">
        <ele>213.836</ele>
        <time>2019-06-22T09:06:34Z</time>
      </trkpt>
      <trkpt lat="42.940974" lon="-8.785047">
        <ele>213.868</ele>
        <time>2019-06-22T09:06:35Z</time>
      </trkpt>
      <trkpt lat="42.940848" lon="-8.784941">
        <ele>214.170</ele>
        <time>2019-06-22T09:06:36Z</time>
      </trkpt>
      <trkpt lat="42.940736" lon="-8.784815">
        <ele>215.048</ele>
        <time>2019-06-22T09:06:37Z</time>
      </trkpt>
      <trkpt lat="42.940641" lon="-8.784676">
        <ele>215.727</ele>
        <time>2019-06-22T09:06:38Z</time>
      </trkpt>
      <trkpt lat="42.940548" lon="-8.784522">
        <ele>216.472</ele>
        <time>2019-06-22T09:06:39Z</time>
      </trkpt>
      <trkpt lat="42.940459" lon="-8.784348">
        <ele>216.995</ele>
        <time>2019-06-22T09:06:40Z</time>
      </trkpt>
      <trkpt lat="42.940386" lon="-8.784154">
        <ele>216.914</ele>
        <time>2019-06-22T09:06:41Z</time>
      </trkpt>
      <trkpt lat="42.940293" lon="-8.783977">
        <ele>215.954</ele>
        <time>2019-06-22T09:06:42Z</time>
      </trkpt>
      <trkpt lat="42.940211" lon="-8.783790">
        <ele>214.309</ele>
        <time>2019-06-22T09:06:43Z</time>
      </trkpt>
      <trkpt lat="42.940161" lon="-8.783580">
        <ele>213.208</ele>
        <time>2019-06-22T09:06:44Z</time>
      </trkpt>
      <trkpt lat="42.940099" lon="-8.783348">
        <ele>211.734</ele>
        <time>2019-06-22T09:06:45Z</time>
      </trkpt>
      <trkpt lat="42.940026" lon="-8.783105">
        <ele>210.338</ele>
        <time>2019-06-22T09:06:46Z</time>
      </trkpt>
      <trkpt lat="42.939930" lon="-8.782862">
        <ele>208.550</ele>
        <time>2019-06-22T09:06:47Z</time>
      </trkpt>
      <trkpt lat="42.939827" lon="-8.782624">
        <ele>206.392</ele>
        <time>2019-06-22T09:06:48Z</time>
      </trkpt>
      <trkpt lat="42.939696" lon="-8.782390">
        <ele>203.310</ele>
        <time>2019-06-22T09:06:49Z</time>
      </trkpt>
      <trkpt lat="42.939548" lon="-8.782165">
        <ele>200.449</ele>
        <time>2019-06-22T09:06:50Z</time>
      </trkpt>
      <trkpt lat="42.939406" lon="-8.781966">
        <ele>197.454</ele>
        <time>2019-06-22T09:06:51Z</time>
      </trkpt>
      <trkpt lat="42.939240" lon="-8.781771">
        <ele>195.047</ele>
        <time>2019-06-22T09:06:52Z</time>
      </trkpt>
      <trkpt lat="42.939070" lon="-8.781581">
        <ele>193.881</ele>
        <time>2019-06-22T09:06:53Z</time>
      </trkpt>
      <trkpt lat="42.938905" lon="-8.781408">
        <ele>192.861</ele>
        <time>2019-06-22T09:06:54Z</time>
      </trkpt>
      <trkpt lat="42.938738" lon="-8.781241">
        <ele>192.817</ele>
        <time>2019-06-22T09:06:55Z</time>
      </trkpt>
      <trkpt lat="42.938578" lon="-8.781060">
        <ele>193.008</ele>
        <time>2019-06-22T09:06:56Z</time>
      </trkpt>
      <trkpt lat="42.938417" lon="-8.780868">
        <ele>193.741</ele>
        <time>2019-06-22T09:06:57Z</time>
      </trkpt>
      <trkpt lat="42.938269" lon="-8.780670">
        <ele>193.915</ele>
        <time>2019-06-22T09:06:58Z</time>
      </trkpt>
      <trkpt lat="42.938111" lon="-8.780468">
        <ele>194.637</ele>
        <time>2019-06-22T09:06:59Z</time>
      </trkpt>
      <trkpt lat="42.937967" lon="-8.780236">
        <ele>194.659</ele>
        <time>2019-06-22T09:07:00Z</time>
      </trkpt>
      <trkpt lat="42.937821" lon="-8.780009">
        <ele>194.037</ele>
        <time>2019-06-22T09:07:01Z</time>
      </trkpt>
      <trkpt lat="42.937667" lon="-8.779787">
        <ele>193.326</ele>
        <time>2019-06-22T09:07:02Z</time>
      </trkpt>
      <trkpt lat="42.937533" lon="-8.779538">
        <ele>192.841</ele>
        <time>2019-06-22T09:07:03Z</time>
      </trkpt>
      <trkpt lat="42.937405" lon="-8.779273">
        <ele>191.674</ele>
        <time>2019-06-22T09:07:04Z</time>
      </trkpt>
      <trkpt lat="42.937281" lon="-8.778998">
        <ele>190.145</ele>
        <time>2019-06-22T09:07:05Z</time>
      </trkpt>
      <trkpt lat="42.937160" lon="-8.778716">
        <ele>188.247</ele>
        <time>2019-06-22T09:07:06Z</time>
      </trkpt>
      <trkpt lat="42.937046" lon="-8.778430">
        <ele>188.211</ele>
        <time>2019-06-22T09:07:07Z</time>
      </trkpt>
      <trkpt lat="42.936936" lon="-8.778132">
        <ele>185.608</ele>
        <time>2019-06-22T09:07:08Z</time>
      </trkpt>
      <trkpt lat="42.936831" lon="-8.777824">
        <ele>183.817</ele>
        <time>2019-06-22T09:07:09Z</time>
      </trkpt>
      <trkpt lat="42.936738" lon="-8.777517">
        <ele>182.381</ele>
        <time>2019-06-22T09:07:10Z</time>
      </trkpt>
      <trkpt lat="42.936651" lon="-8.777206">
        <ele>181.243</ele>
        <time>2019-06-22T09:07:11Z</time>
      </trkpt>
      <trkpt lat="42.936571" lon="-8.776902">
        <ele>180.795</ele>
        <time>2019-06-22T09:07:12Z</time>
      </trkpt>
      <trkpt lat="42.936496" lon="-8.776603">
        <ele>180.713</ele>
        <time>2019-06-22T09:07:13Z</time>
      </trkpt>
      <trkpt lat="42.936421" lon="-8.776299">
        <ele>180.292</ele>
        <time>2019-06-22T09:07:14Z</time>
      </trkpt>
      <trkpt lat="42.936343" lon="-8.775993">
        <ele>179.457</ele>
        <time>2019-06-22T09:07:15Z</time>
      </trkpt>
      <trkpt lat="42.936265" lon="-8.775689">
        <ele>178.670</ele>
        <time>2019-06-22T09:07:16Z</time>
      </trkpt>
      <trkpt lat="42.936173" lon="-8.775395">
        <ele>177.991</ele>
        <time>2019-06-22T09:07:17Z</time>
      </trkpt>
      <trkpt lat="42.936044" lon="-8.775093">
        <ele>176.381</ele>
        <time>2019-06-22T09:07:18Z</time>
      </trkpt>
      <trkpt lat="42.935906" lon="-8.774802">
        <ele>174.519</ele>
        <time>2019-06-22T09:07:19Z</time>
      </trkpt>
      <trkpt lat="42.935763" lon="-8.774516">
        <ele>172.908</ele>
        <time>2019-06-22T09:07:20Z</time>
      </trkpt>
      <trkpt lat="42.935601" lon="-8.774248">
        <ele>171.642</ele>
        <time>2019-06-22T09:07:21Z</time>
      </trkpt>
      <trkpt lat="42.935423" lon="-8.773987">
        <ele>169.966</ele>
        <time>2019-06-22T09:07:22Z</time>
      </trkpt>
      <trkpt lat="42.935235" lon="-8.773741">
        <ele>168.658</ele>
        <time>2019-06-22T09:07:23Z</time>
      </trkpt>
      <trkpt lat="42.935060" lon="-8.773510">
        <ele>167.930</ele>
        <time>2019-06-22T09:07:24Z</time>
      </trkpt>
      <trkpt lat="42.934885" lon="-8.773282">
        <ele>167.968</ele>
        <time>2019-06-22T09:07:25Z</time>
      </trkpt>
      <trkpt lat="42.934693" lon="-8.773061">
        <ele>168.197</ele>
        <time>2019-06-22T09:07:26Z</time>
      </trkpt>
      <trkpt lat="42.934501" lon="-8.772843">
        <ele>168.872</ele>
        <time>2019-06-22T09:07:27Z</time>
      </trkpt>
      <trkpt lat="42.934308" lon="-8.772608">
        <ele>169.695</ele>
        <time>2019-06-22T09:07:28Z</time>
      </trkpt>
      <trkpt lat="42.934118" lon="-8.772388">
        <ele>170.551</ele>
        <time>2019-06-22T09:07:29Z</time>
      </trkpt>
      <trkpt lat="42.933924" lon="-8.772172">
        <ele>171.001</ele>
        <time>2019-06-22T09:07:30Z</time>
      </trkpt>
      <trkpt lat="42.933736" lon="-8.771953">
        <ele>171.011</ele>
        <time>2019-06-22T09:07:31Z</time>
      </trkpt>
      <trkpt lat="42.933572" lon="-8.771720">
        <ele>171.108</ele>
        <time>2019-06-22T09:07:32Z</time>
      </trkpt>
      <trkpt lat="42.933393" lon="-8.771484">
        <ele>171.248</ele>
        <time>2019-06-22T09:07:33Z</time>
      </trkpt>
      <trkpt lat="42.933236" lon="-8.771240">
        <ele>171.772</ele>
        <time>2019-06-22T09:07:34Z</time>
      </trkpt>
      <trkpt lat="42.933076" lon="-8.770984">
        <ele>172.324</ele>
        <time>2019-06-22T09:07:35Z</time>
      </trkpt>
      <trkpt lat="42.932943" lon="-8.770712">
        <ele>172.686</ele>
        <time>2019-06-22T09:07:36Z</time>
      </trkpt>
      <trkpt lat="42.932790" lon="-8.770444">
        <ele>173.274</ele>
        <time>2019-06-22T09:07:37Z</time>
      </trkpt>
      <trkpt lat="42.932680" lon="-8.770140">
        <ele>173.513</ele>
        <time>2019-06-22T09:07:38Z</time>
      </trkpt>
      <trkpt lat="42.932554" lon="-8.769876">
        <ele>173.778</ele>
        <time>2019-06-22T09:07:39Z</time>
      </trkpt>
      <trkpt lat="42.932418" lon="-8.769589">
        <ele>174.171</ele>
        <time>2019-06-22T09:07:40Z</time>
      </trkpt>
      <trkpt lat="42.932278" lon="-8.769305">
        <ele>174.547</ele>
        <time>2019-06-22T09:07:41Z</time>
      </trkpt>
      <trkpt lat="42.932130" lon="-8.769017">
        <ele>175.229</ele>
        <time>2019-06-22T09:07:42Z</time>
      </trkpt>
      <trkpt lat="42.931989" lon="-8.768754">
        <ele>175.621</ele>
        <time>2019-06-22T09:07:43Z</time>
      </trkpt>
      <trkpt lat="42.931857" lon="-8.768486">
        <ele>175.808</ele>
        <time>2019-06-22T09:07:44Z</time>
      </trkpt>
      <trkpt lat="42.931723" lon="-8.768221">
        <ele>176.137</ele>
        <time>2019-06-22T09:07:45Z</time>
      </trkpt>
      <trkpt lat="42.931585" lon="-8.767947">
        <ele>176.311</ele>
        <time>2019-06-22T09:07:46Z</time>
      </trkpt>
      <trkpt lat="42.931458" lon="-8.767678">
        <ele>176.383</ele>
        <time>2019-06-22T09:07:47Z</time>
      </trkpt>
      <trkpt lat="42.931315" lon="-8.767398">
        <ele>177.145</ele>
        <time>2019-06-22T09:07:48Z</time>
      </trkpt>
      <trkpt lat="42.931177" lon="-8.767135">
        <ele>177.113</ele>
        <time>2019-06-22T09:07:49Z</time>
      </trkpt>
      <trkpt lat="42.931045" lon="-8.766863">
        <ele>176.812</ele>
        <time>2019-06-22T09:07:50Z</time>
      </trkpt>
      <trkpt lat="42.930908" lon="-8.766593">
        <ele>176.117</ele>
        <time>2019-06-22T09:07:51Z</time>
      </trkpt>
      <trkpt lat="42.930778" lon="-8.766331">
        <ele>175.690</ele>
        <time>2019-06-22T09:07:52Z</time>
      </trkpt>
      <trkpt lat="42.930652" lon="-8.766060">
        <ele>175.213</ele>
        <time>2019-06-22T09:07:53Z</time>
      </trkpt>
      <trkpt lat="42.930513" lon="-8.765797">
        <ele>175.243</ele>
        <time>2019-06-22T09:07:54Z</time>
      </trkpt>
      <trkpt lat="42.930389" lon="-8.765522">
        <ele>176.007</ele>
        <time>2019-06-22T09:07:55Z</time>
      </trkpt>
      <trkpt lat="42.930266" lon="-8.765259">
        <ele>177.308</ele>
        <time>2019-06-22T09:07:56Z</time>
      </trkpt>
      <trkpt lat="42.930148" lon="-8.764979">
        <ele>178.114</ele>
        <time>2019-06-22T09:07:57Z</time>
      </trkpt>
      <trkpt lat="42.930029" lon="-8.764721">
        <ele>178.418</ele>
        <time>2019-06-22T09:07:58Z</time>
      </trkpt>
      <trkpt lat="42.929915" lon="-8.764478">
        <ele>179.380</ele>
        <time>2019-06-22T09:07:59Z</time>
      </trkpt>
      <trkpt lat="42.929805" lon="-8.764257">
        <ele>179.742</ele>
        <time>2019-06-22T09:08:00Z</time>
      </trkpt>
      <trkpt lat="42.929702" lon="-8.764050">
        <ele>180.470</ele>
        <time>2019-06-22T09:08:01Z</time>
      </trkpt>
      <trkpt lat="42.929606" lon="-8.763856">
        <ele>181.419</ele>
        <time>2019-06-22T09:08:02Z</time>
      </trkpt>
      <trkpt lat="42.929512" lon="-8.763668">
        <ele>183.064</ele>
        <time>2019-06-22T09:08:03Z</time>
      </trkpt>
      <trkpt lat="42.929416" lon="-8.763483">
        <ele>184.267</ele>
        <time>2019-06-22T09:08:04Z</time>
      </trkpt>
      <trkpt lat="42.929305" lon="-8.763291">
        <ele>185.876</ele>
        <time>2019-06-22T09:08:05Z</time>
      </trkpt>
      <trkpt lat="42.929180" lon="-8.763110">
        <ele>185.890</ele>
        <time>2019-06-22T09:08:06Z</time>
      </trkpt>
      <trkpt lat="42.929043" lon="-8.762935">
        <ele>186.719</ele>
        <time>2019-06-22T09:08:07Z</time>
      </trkpt>
      <trkpt lat="42.928902" lon="-8.762774">
        <ele>187.108</ele>
        <time>2019-06-22T09:08:08Z</time>
      </trkpt>
      <trkpt lat="42.928766" lon="-8.762628">
        <ele>187.370</ele>
        <time>2019-06-22T09:08:09Z</time>
      </trkpt>
      <trkpt lat="42.928629" lon="-8.762480">
        <ele>187.364</ele>
        <time>2019-06-22T09:08:10Z</time>
      </trkpt>
      <trkpt lat="42.928492" lon="-8.762330">
        <ele>187.086</ele>
        <time>2019-06-22T09:08:11Z</time>
      </trkpt>
      <trkpt lat="42.928362" lon="-8.762169">
        <ele>186.298</ele>
        <time>2019-06-22T09:08:12Z</time>
      </trkpt>
      <trkpt lat="42.928233" lon="-8.762000">
        <ele>185.946</ele>
        <time>2019-06-22T09:08:13Z</time>
      </trkpt>
      <trkpt lat="42.928112" lon="-8.761816">
        <ele>184.995</ele>
        <time>2019-06-22T09:08:14Z</time>
      </trkpt>
      <trkpt lat="42.927992" lon="-8.761623">
        <ele>184.540</ele>
        <time>2019-06-22T09:08:15Z</time>
      </trkpt>
      <trkpt lat="42.927890" lon="-8.761418">
        <ele>183.983</ele>
        <time>2019-06-22T09:08:16Z</time>
      </trkpt>
      <trkpt lat="42.927790" lon="-8.761201">
        <ele>183.751</ele>
        <time>2019-06-22T09:08:17Z</time>
      </trkpt>
      <trkpt lat="42.927706" lon="-8.760984">
        <ele>183.301</ele>
        <time>2019-06-22T09:08:18Z</time>
      </trkpt>
      <trkpt lat="42.927640" lon="-8.760780">
        <ele>183.311</ele>
        <time>2019-06-22T09:08:19Z</time>
      </trkpt>
      <trkpt lat="42.927574" lon="-8.760580">
        <ele>182.708</ele>
        <time>2019-06-22T09:08:20Z</time>
      </trkpt>
      <trkpt lat="42.927521" lon="-8.760395">
        <ele>182.078</ele>
        <time>2019-06-22T09:08:21Z</time>
      </trkpt>
      <trkpt lat="42.927463" lon="-8.760227">
        <ele>180.922</ele>
        <time>2019-06-22T09:08:22Z</time>
      </trkpt>
      <trkpt lat="42.927423" lon="-8.760070">
        <ele>180.274</ele>
        <time>2019-06-22T09:08:23Z</time>
      </trkpt>
      <trkpt lat="42.927360" lon="-8.759933">
        <ele>179.866</ele>
        <time>2019-06-22T09:08:24Z</time>
      </trkpt>
      <trkpt lat="42.927300" lon="-8.759785">
        <ele>179.814</ele>
        <time>2019-06-22T09:08:25Z</time>
      </trkpt>
      <trkpt lat="42.927235" lon="-8.759652">
        <ele>179.823</ele>
        <time>2019-06-22T09:08:26Z</time>
      </trkpt>
      <trkpt lat="42.927171" lon="-8.759545">
        <ele>180.338</ele>
        <time>2019-06-22T09:08:27Z</time>
      </trkpt>
      <trkpt lat="42.927095" lon="-8.759466">
        <ele>180.651</ele>
        <time>2019-06-22T09:08:28Z</time>
      </trkpt>
      <trkpt lat="42.927017" lon="-8.759389">
        <ele>180.827</ele>
        <time>2019-06-22T09:08:29Z</time>
      </trkpt>
      <trkpt lat="42.926947" lon="-8.759329">
        <ele>181.268</ele>
        <time>2019-06-22T09:08:30Z</time>
      </trkpt>
      <trkpt lat="42.926881" lon="-8.759266">
        <ele>181.714</ele>
        <time>2019-06-22T09:08:31Z</time>
      </trkpt>
      <trkpt lat="42.926809" lon="-8.759221">
        <ele>182.408</ele>
        <time>2019-06-22T09:08:32Z</time>
      </trkpt>
      <trkpt lat="42.926741" lon="-8.759209">
        <ele>182.645</ele>
        <time>2019-06-22T09:08:33Z</time>
      </trkpt>
      <trkpt lat="42.926682" lon="-8.759244">
        <ele>183.189</ele>
        <time>2019-06-22T09:08:34Z</time>
      </trkpt>
      <trkpt lat="42.926641" lon="-8.759294">
        <ele>183.191</ele>
        <time>2019-06-22T09:08:35Z</time>
      </trkpt>
      <trkpt lat="42.926601" lon="-8.759347">
        <ele>183.213</ele>
        <time>2019-06-22T09:08:36Z</time>
      </trkpt>
      <trkpt lat="42.926570" lon="-8.759397">
        <ele>183.271</ele>
        <time>2019-06-22T09:08:37Z</time>
      </trkpt>
      <trkpt lat="42.926539" lon="-8.759441">
        <ele>183.770</ele>
        <time>2019-06-22T09:08:38Z</time>
      </trkpt>
      <trkpt lat="42.926511" lon="-8.759524">
        <ele>184.395</ele>
        <time>2019-06-22T09:08:40Z</time>
      </trkpt>
      <trkpt lat="42.926504" lon="-8.759610">
        <ele>184.538</ele>
        <time>2019-06-22T09:08:43Z</time>
      </trkpt>
      <trkpt lat="42.926551" lon="-8.759610">
        <ele>184.811</ele>
        <time>2019-06-22T09:08:48Z</time>
      </trkpt>
      <trkpt lat="42.926598" lon="-8.759611">
        <ele>185.121</ele>
        <time>2019-06-22T09:08:51Z</time>
      </trkpt>
      <trkpt lat="42.926640" lon="-8.759636">
        <ele>185.203</ele>
        <time>2019-06-22T09:08:56Z</time>
      </trkpt>
      <trkpt lat="42.926704" lon="-8.759652">
        <ele>185.308</ele>
        <time>2019-06-22T09:09:00Z</time>
      </trkpt>
      <trkpt lat="42.926663" lon="-8.759625">
        <ele>185.374</ele>
        <time>2019-06-22T09:09:12Z</time>
      </trkpt>
      <trkpt lat="42.926616" lon="-8.759584">
        <ele>185.898</ele>
        <time>2019-06-22T09:10:19Z</time>
      </trkpt>
      <trkpt lat="42.926604" lon="-8.759666">
        <ele>186.060</ele>
        <time>2019-06-22T09:10:34Z</time>
      </trkpt>
      <trkpt lat="42.926597" lon="-8.759727">
        <ele>186.172</ele>
        <time>2019-06-22T09:10:37Z</time>
      </trkpt>
      <trkpt lat="42.926545" lon="-8.759703">
        <ele>186.010</ele>
        <time>2019-06-22T09:10:52Z</time>
      </trkpt>
      <trkpt lat="42.926504" lon="-8.759606">
        <ele>186.019</ele>
        <time>2019-06-22T09:10:54Z</time>
      </trkpt>
      <trkpt lat="42.926437" lon="-8.759619">
        <ele>186.164</ele>
        <time>2019-06-22T09:11:09Z</time>
      </trkpt>
      <trkpt lat="42.926392" lon="-8.759581">
        <ele>186.187</ele>
        <time>2019-06-22T09:11:10Z</time>
      </trkpt>
      <trkpt lat="42.926325" lon="-8.759535">
        <ele>186.144</ele>
        <time>2019-06-22T09:11:12Z</time>
      </trkpt>
      <trkpt lat="42.926274" lon="-8.759493">
        <ele>186.105</ele>
        <time>2019-06-22T09:11:14Z</time>
      </trkpt>
      <trkpt lat="42.926334" lon="-8.759454">
        <ele>186.115</ele>
        <time>2019-06-22T09:11:18Z</time>
      </trkpt>
      <trkpt lat="42.926397" lon="-8.759488">
        <ele>186.208</ele>
        <time>2019-06-22T09:11:21Z</time>
      </trkpt>
      <trkpt lat="42.926439" lon="-8.759514">
        <ele>186.227</ele>
        <time>2019-06-22T09:11:24Z</time>
      </trkpt>
      <trkpt lat="42.926478" lon="-8.759483">
        <ele>186.141</ele>
        <time>2019-06-22T09:11:30Z</time>
      </trkpt>
      <trkpt lat="42.926454" lon="-8.759548">
        <ele>186.233</ele>
        <time>2019-06-22T09:11:37Z</time>
      </trkpt>
      <trkpt lat="42.926507" lon="-8.759556">
        <ele>186.265</ele>
        <time>2019-06-22T09:11:41Z</time>
      </trkpt>
      <trkpt lat="42.926560" lon="-8.759571">
        <ele>186.153</ele>
        <time>2019-06-22T09:11:47Z</time>
      </trkpt>
      <trkpt lat="42.926493" lon="-8.759609">
        <ele>186.332</ele>
        <time>2019-06-22T09:11:56Z</time>
      </trkpt>
      <trkpt lat="42.926504" lon="-8.759544">
        <ele>186.197</ele>
        <time>2019-06-22T09:12:10Z</time>
      </trkpt>
      <trkpt lat="42.926555" lon="-8.759526">
        <ele>186.010</ele>
        <time>2019-06-22T09:12:40Z</time>
      </trkpt>
      <trkpt lat="42.926581" lon="-8.759577">
        <ele>185.774</ele>
        <time>2019-06-22T09:13:25Z</time>
      </trkpt>
      <trkpt lat="42.926650" lon="-8.759583">
        <ele>186.556</ele>
        <time>2019-06-22T09:13:38Z</time>
      </trkpt>
      <trkpt lat="42.926678" lon="-8.759515">
        <ele>185.621</ele>
        <time>2019-06-22T09:14:13Z</time>
      </trkpt>
      <trkpt lat="42.926695" lon="-8.759448">
        <ele>185.508</ele>
        <time>2019-06-22T09:14:14Z</time>
      </trkpt>
      <trkpt lat="42.926707" lon="-8.759383">
        <ele>185.340</ele>
        <time>2019-06-22T09:14:15Z</time>
      </trkpt>
      <trkpt lat="42.926715" lon="-8.759318">
        <ele>185.274</ele>
        <time>2019-06-22T09:14:16Z</time>
      </trkpt>
      <trkpt lat="42.926723" lon="-8.759257">
        <ele>185.196</ele>
        <time>2019-06-22T09:14:17Z</time>
      </trkpt>
      <trkpt lat="42.926761" lon="-8.759146">
        <ele>185.028</ele>
        <time>2019-06-22T09:14:19Z</time>
      </trkpt>
      <trkpt lat="42.926841" lon="-8.759096">
        <ele>185.126</ele>
        <time>2019-06-22T09:14:21Z</time>
      </trkpt>
      <trkpt lat="42.926888" lon="-8.759085">
        <ele>185.185</ele>
        <time>2019-06-22T09:14:22Z</time>
      </trkpt>
      <trkpt lat="42.926929" lon="-8.759059">
        <ele>185.240</ele>
        <time>2019-06-22T09:14:23Z</time>
      </trkpt>
      <trkpt lat="42.926976" lon="-8.759025">
        <ele>185.253</ele>
        <time>2019-06-22T09:14:24Z</time>
      </trkpt>
      <trkpt lat="42.927007" lon="-8.758960">
        <ele>185.236</ele>
        <time>2019-06-22T09:14:25Z</time>
      </trkpt>
      <trkpt lat="42.927009" lon="-8.758898">
        <ele>185.017</ele>
        <time>2019-06-22T09:14:26Z</time>
      </trkpt>
      <trkpt lat="42.926998" lon="-8.758813">
        <ele>184.918</ele>
        <time>2019-06-22T09:14:27Z</time>
      </trkpt>
      <trkpt lat="42.926973" lon="-8.758708">
        <ele>184.708</ele>
        <time>2019-06-22T09:14:28Z</time>
      </trkpt>
      <trkpt lat="42.926938" lon="-8.758591">
        <ele>184.566</ele>
        <time>2019-06-22T09:14:29Z</time>
      </trkpt>
      <trkpt lat="42.926902" lon="-8.758460">
        <ele>184.230</ele>
        <time>2019-06-22T09:14:30Z</time>
      </trkpt>
      <trkpt lat="42.926867" lon="-8.758327">
        <ele>184.162</ele>
        <time>2019-06-22T09:14:31Z</time>
      </trkpt>
      <trkpt lat="42.926829" lon="-8.758195">
        <ele>183.824</ele>
        <time>2019-06-22T09:14:32Z</time>
      </trkpt>
      <trkpt lat="42.926791" lon="-8.758067">
        <ele>183.462</ele>
        <time>2019-06-22T09:14:33Z</time>
      </trkpt>
      <trkpt lat="42.926748" lon="-8.757946">
        <ele>183.381</ele>
        <time>2019-06-22T09:14:34Z</time>
      </trkpt>
      <trkpt lat="42.926706" lon="-8.757832">
        <ele>183.356</ele>
        <time>2019-06-22T09:14:35Z</time>
      </trkpt>
      <trkpt lat="42.926660" lon="-8.757712">
        <ele>183.219</ele>
        <time>2019-06-22T09:14:36Z</time>
      </trkpt>
      <trkpt lat="42.926612" lon="-8.757596">
        <ele>183.282</ele>
        <time>2019-06-22T09:14:37Z</time>
      </trkpt>
      <trkpt lat="42.926563" lon="-8.757474">
        <ele>183.243</ele>
        <time>2019-06-22T09:14:38Z</time>
      </trkpt>
      <trkpt lat="42.926519" lon="-8.757346">
        <ele>183.217</ele>
        <time>2019-06-22T09:14:39Z</time>
      </trkpt>
      <trkpt lat="42.926459" lon="-8.757216">
        <ele>183.208</ele>
        <time>2019-06-22T09:14:40Z</time>
      </trkpt>
      <trkpt lat="42.926414" lon="-8.757093">
        <ele>183.171</ele>
        <time>2019-06-22T09:14:41Z</time>
      </trkpt>
      <trkpt lat="42.926366" lon="-8.756985">
        <ele>182.955</ele>
        <time>2019-06-22T09:14:42Z</time>
      </trkpt>
      <trkpt lat="42.926318" lon="-8.756887">
        <ele>182.947</ele>
        <time>2019-06-22T09:14:43Z</time>
      </trkpt>
      <trkpt lat="42.926271" lon="-8.756793">
        <ele>182.729</ele>
        <time>2019-06-22T09:14:44Z</time>
      </trkpt>
      <trkpt lat="42.926214" lon="-8.756701">
        <ele>182.657</ele>
        <time>2019-06-22T09:14:45Z</time>
      </trkpt>
      <trkpt lat="42.926160" lon="-8.756624">
        <ele>182.626</ele>
        <time>2019-06-22T09:14:46Z</time>
      </trkpt>
      <trkpt lat="42.926092" lon="-8.756557">
        <ele>182.711</ele>
        <time>2019-06-22T09:14:47Z</time>
      </trkpt>
      <trkpt lat="42.926040" lon="-8.756477">
        <ele>182.994</ele>
        <time>2019-06-22T09:14:48Z</time>
      </trkpt>
      <trkpt lat="42.926003" lon="-8.756393">
        <ele>183.229</ele>
        <time>2019-06-22T09:14:49Z</time>
      </trkpt>
      <trkpt lat="42.925993" lon="-8.756297">
        <ele>183.600</ele>
        <time>2019-06-22T09:14:50Z</time>
      </trkpt>
      <trkpt lat="42.925991" lon="-8.756196">
        <ele>183.920</ele>
        <time>2019-06-22T09:14:51Z</time>
      </trkpt>
      <trkpt lat="42.926013" lon="-8.756114">
        <ele>184.208</ele>
        <time>2019-06-22T09:14:52Z</time>
      </trkpt>
      <trkpt lat="42.926053" lon="-8.756040">
        <ele>184.385</ele>
        <time>2019-06-22T09:14:53Z</time>
      </trkpt>
      <trkpt lat="42.926104" lon="-8.755976">
        <ele>184.349</ele>
        <time>2019-06-22T09:14:54Z</time>
      </trkpt>
      <trkpt lat="42.926171" lon="-8.755922">
        <ele>184.311</ele>
        <time>2019-06-22T09:14:55Z</time>
      </trkpt>
      <trkpt lat="42.926241" lon="-8.755852">
        <ele>184.363</ele>
        <time>2019-06-22T09:14:56Z</time>
      </trkpt>
      <trkpt lat="42.926295" lon="-8.755762">
        <ele>184.331</ele>
        <time>2019-06-22T09:14:57Z</time>
      </trkpt>
      <trkpt lat="42.926340" lon="-8.755646">
        <ele>184.320</ele>
        <time>2019-06-22T09:14:58Z</time>
      </trkpt>
      <trkpt lat="42.926369" lon="-8.755504">
        <ele>184.495</ele>
        <time>2019-06-22T09:14:59Z</time>
      </trkpt>
      <trkpt lat="42.926401" lon="-8.755330">
        <ele>184.688</ele>
        <time>2019-06-22T09:15:00Z</time>
      </trkpt>
      <trkpt lat="42.926436" lon="-8.755141">
        <ele>184.879</ele>
        <time>2019-06-22T09:15:01Z</time>
      </trkpt>
      <trkpt lat="42.926473" lon="-8.754936">
        <ele>185.105</ele>
        <time>2019-06-22T09:15:02Z</time>
      </trkpt>
      <trkpt lat="42.926507" lon="-8.754725">
        <ele>185.525</ele>
        <time>2019-06-22T09:15:03Z</time>
      </trkpt>
      <trkpt lat="42.926544" lon="-8.754497">
        <ele>185.608</ele>
        <time>2019-06-22T09:15:04Z</time>
      </trkpt>
      <trkpt lat="42.926581" lon="-8.754258">
        <ele>185.660</ele>
        <time>2019-06-22T09:15:05Z</time>
      </trkpt>
      <trkpt lat="42.926621" lon="-8.754012">
        <ele>185.554</ele>
        <time>2019-06-22T09:15:06Z</time>
      </trkpt>
      <trkpt lat="42.926659" lon="-8.753746">
        <ele>185.266</ele>
        <time>2019-06-22T09:15:07Z</time>
      </trkpt>
      <trkpt lat="42.926696" lon="-8.753467">
        <ele>185.238</ele>
        <time>2019-06-22T09:15:08Z</time>
      </trkpt>
      <trkpt lat="42.926738" lon="-8.753210">
        <ele>185.196</ele>
        <time>2019-06-22T09:15:09Z</time>
      </trkpt>
      <trkpt lat="42.926787" lon="-8.752933">
        <ele>184.915</ele>
        <time>2019-06-22T09:15:10Z</time>
      </trkpt>
      <trkpt lat="42.926830" lon="-8.752650">
        <ele>184.820</ele>
        <time>2019-06-22T09:15:11Z</time>
      </trkpt>
      <trkpt lat="42.926869" lon="-8.752354">
        <ele>184.873</ele>
        <time>2019-06-22T09:15:12Z</time>
      </trkpt>
      <trkpt lat="42.926915" lon="-8.752059">
        <ele>184.722</ele>
        <time>2019-06-22T09:15:13Z</time>
      </trkpt>
      <trkpt lat="42.926969" lon="-8.751756">
        <ele>184.662</ele>
        <time>2019-06-22T09:15:14Z</time>
      </trkpt>
      <trkpt lat="42.927018" lon="-8.751447">
        <ele>184.608</ele>
        <time>2019-06-22T09:15:15Z</time>
      </trkpt>
      <trkpt lat="42.927067" lon="-8.751141">
        <ele>184.908</ele>
        <time>2019-06-22T09:15:16Z</time>
      </trkpt>
      <trkpt lat="42.927119" lon="-8.750819">
        <ele>184.935</ele>
        <time>2019-06-22T09:15:17Z</time>
      </trkpt>
      <trkpt lat="42.927162" lon="-8.750496">
        <ele>184.989</ele>
        <time>2019-06-22T09:15:18Z</time>
      </trkpt>
      <trkpt lat="42.927200" lon="-8.750174">
        <ele>184.821</ele>
        <time>2019-06-22T09:15:19Z</time>
      </trkpt>
      <trkpt lat="42.927232" lon="-8.749849">
        <ele>184.633</ele>
        <time>2019-06-22T09:15:20Z</time>
      </trkpt>
      <trkpt lat="42.927264" lon="-8.749539">
        <ele>183.731</ele>
        <time>2019-06-22T09:15:21Z</time>
      </trkpt>
      <trkpt lat="42.927284" lon="-8.749214">
        <ele>183.790</ele>
        <time>2019-06-22T09:15:22Z</time>
      </trkpt>
      <trkpt lat="42.927302" lon="-8.748885">
        <ele>184.025</ele>
        <time>2019-06-22T09:15:23Z</time>
      </trkpt>
      <trkpt lat="42.927291" lon="-8.748561">
        <ele>184.028</ele>
        <time>2019-06-22T09:15:24Z</time>
      </trkpt>
      <trkpt lat="42.927277" lon="-8.748224">
        <ele>184.549</ele>
        <time>2019-06-22T09:15:25Z</time>
      </trkpt>
      <trkpt lat="42.927252" lon="-8.747892">
        <ele>186.002</ele>
        <time>2019-06-22T09:15:26Z</time>
      </trkpt>
      <trkpt lat="42.927229" lon="-8.747572">
        <ele>187.022</ele>
        <time>2019-06-22T09:15:27Z</time>
      </trkpt>
      <trkpt lat="42.927175" lon="-8.747273">
        <ele>188.108</ele>
        <time>2019-06-22T09:15:28Z</time>
      </trkpt>
      <trkpt lat="42.927112" lon="-8.746960">
        <ele>189.867</ele>
        <time>2019-06-22T09:15:29Z</time>
      </trkpt>
      <trkpt lat="42.927051" lon="-8.746649">
        <ele>191.631</ele>
        <time>2019-06-22T09:15:30Z</time>
      </trkpt>
      <trkpt lat="42.926988" lon="-8.746351">
        <ele>193.383</ele>
        <time>2019-06-22T09:15:31Z</time>
      </trkpt>
      <trkpt lat="42.926907" lon="-8.746067">
        <ele>194.675</ele>
        <time>2019-06-22T09:15:32Z</time>
      </trkpt>
      <trkpt lat="42.926828" lon="-8.745778">
        <ele>196.073</ele>
        <time>2019-06-22T09:15:33Z</time>
      </trkpt>
      <trkpt lat="42.926731" lon="-8.745501">
        <ele>197.362</ele>
        <time>2019-06-22T09:15:34Z</time>
      </trkpt>
      <trkpt lat="42.926619" lon="-8.745225">
        <ele>198.687</ele>
        <time>2019-06-22T09:15:35Z</time>
      </trkpt>
      <trkpt lat="42.926497" lon="-8.744959">
        <ele>199.510</ele>
        <time>2019-06-22T09:15:36Z</time>
      </trkpt>
      <trkpt lat="42.926369" lon="-8.744689">
        <ele>199.849</ele>
        <time>2019-06-22T09:15:37Z</time>
      </trkpt>
      <trkpt lat="42.926235" lon="-8.744426">
        <ele>199.802</ele>
        <time>2019-06-22T09:15:38Z</time>
      </trkpt>
      <trkpt lat="42.926094" lon="-8.744167">
        <ele>198.822</ele>
        <time>2019-06-22T09:15:39Z</time>
      </trkpt>
      <trkpt lat="42.925934" lon="-8.743911">
        <ele>197.308</ele>
        <time>2019-06-22T09:15:40Z</time>
      </trkpt>
      <trkpt lat="42.925760" lon="-8.743654">
        <ele>195.857</ele>
        <time>2019-06-22T09:15:41Z</time>
      </trkpt>
      <trkpt lat="42.925577" lon="-8.743403">
        <ele>194.731</ele>
        <time>2019-06-22T09:15:42Z</time>
      </trkpt>
      <trkpt lat="42.925394" lon="-8.743148">
        <ele>194.773</ele>
        <time>2019-06-22T09:15:43Z</time>
      </trkpt>
      <trkpt lat="42.925209" lon="-8.742897">
        <ele>194.185</ele>
        <time>2019-06-22T09:15:44Z</time>
      </trkpt>
      <trkpt lat="42.925024" lon="-8.742635">
        <ele>193.823</ele>
        <time>2019-06-22T09:15:45Z</time>
      </trkpt>
      <trkpt lat="42.924829" lon="-8.742357">
        <ele>193.572</ele>
        <time>2019-06-22T09:15:46Z</time>
      </trkpt>
      <trkpt lat="42.924642" lon="-8.742081">
        <ele>192.697</ele>
        <time>2019-06-22T09:15:47Z</time>
      </trkpt>
      <trkpt lat="42.924451" lon="-8.741818">
        <ele>190.760</ele>
        <time>2019-06-22T09:15:48Z</time>
      </trkpt>
      <trkpt lat="42.924265" lon="-8.741538">
        <ele>188.651</ele>
        <time>2019-06-22T09:15:49Z</time>
      </trkpt>
      <trkpt lat="42.924095" lon="-8.741247">
        <ele>185.501</ele>
        <time>2019-06-22T09:15:50Z</time>
      </trkpt>
      <trkpt lat="42.923911" lon="-8.740966">
        <ele>182.611</ele>
        <time>2019-06-22T09:15:51Z</time>
      </trkpt>
      <trkpt lat="42.923732" lon="-8.740672">
        <ele>179.508</ele>
        <time>2019-06-22T09:15:52Z</time>
      </trkpt>
      <trkpt lat="42.923563" lon="-8.740386">
        <ele>175.788</ele>
        <time>2019-06-22T09:15:53Z</time>
      </trkpt>
      <trkpt lat="42.923398" lon="-8.740099">
        <ele>172.392</ele>
        <time>2019-06-22T09:15:54Z</time>
      </trkpt>
      <trkpt lat="42.923233" lon="-8.739822">
        <ele>169.794</ele>
        <time>2019-06-22T09:15:55Z</time>
      </trkpt>
      <trkpt lat="42.923067" lon="-8.739539">
        <ele>167.756</ele>
        <time>2019-06-22T09:15:56Z</time>
      </trkpt>
      <trkpt lat="42.922901" lon="-8.739256">
        <ele>166.084</ele>
        <time>2019-06-22T09:15:57Z</time>
      </trkpt>
      <trkpt lat="42.922732" lon="-8.738971">
        <ele>165.983</ele>
        <time>2019-06-22T09:15:58Z</time>
      </trkpt>
      <trkpt lat="42.922572" lon="-8.738681">
        <ele>165.998</ele>
        <time>2019-06-22T09:15:59Z</time>
      </trkpt>
      <trkpt lat="42.922428" lon="-8.738386">
        <ele>166.141</ele>
        <time>2019-06-22T09:16:00Z</time>
      </trkpt>
      <trkpt lat="42.922268" lon="-8.738099">
        <ele>166.183</ele>
        <time>2019-06-22T09:16:01Z</time>
      </trkpt>
      <trkpt lat="42.922122" lon="-8.737802">
        <ele>166.125</ele>
        <time>2019-06-22T09:16:02Z</time>
      </trkpt>
      <trkpt lat="42.921980" lon="-8.737517">
        <ele>166.317</ele>
        <time>2019-06-22T09:16:03Z</time>
      </trkpt>
      <trkpt lat="42.921821" lon="-8.737234">
        <ele>166.708</ele>
        <time>2019-06-22T09:16:04Z</time>
      </trkpt>
      <trkpt lat="42.921666" lon="-8.736948">
        <ele>168.641</ele>
        <time>2019-06-22T09:16:05Z</time>
      </trkpt>
      <trkpt lat="42.921519" lon="-8.736664">
        <ele>170.125</ele>
        <time>2019-06-22T09:16:06Z</time>
      </trkpt>
      <trkpt lat="42.921341" lon="-8.736384">
        <ele>172.047</ele>
        <time>2019-06-22T09:16:07Z</time>
      </trkpt>
      <trkpt lat="42.921179" lon="-8.736100">
        <ele>173.399</ele>
        <time>2019-06-22T09:16:08Z</time>
      </trkpt>
      <trkpt lat="42.921016" lon="-8.735814">
        <ele>174.187</ele>
        <time>2019-06-22T09:16:09Z</time>
      </trkpt>
      <trkpt lat="42.920865" lon="-8.735525">
        <ele>174.366</ele>
        <time>2019-06-22T09:16:10Z</time>
      </trkpt>
      <trkpt lat="42.920710" lon="-8.735233">
        <ele>174.581</ele>
        <time>2019-06-22T09:16:11Z</time>
      </trkpt>
      <trkpt lat="42.920559" lon="-8.734937">
        <ele>174.534</ele>
        <time>2019-06-22T09:16:12Z</time>
      </trkpt>
      <trkpt lat="42.920412" lon="-8.734631">
        <ele>174.688</ele>
        <time>2019-06-22T09:16:13Z</time>
      </trkpt>
      <trkpt lat="42.920263" lon="-8.734332">
        <ele>174.624</ele>
        <time>2019-06-22T09:16:14Z</time>
      </trkpt>
      <trkpt lat="42.920128" lon="-8.734026">
        <ele>174.026</ele>
        <time>2019-06-22T09:16:15Z</time>
      </trkpt>
      <trkpt lat="42.919984" lon="-8.733703">
        <ele>172.908</ele>
        <time>2019-06-22T09:16:16Z</time>
      </trkpt>
      <trkpt lat="42.919846" lon="-8.733383">
        <ele>172.141</ele>
        <time>2019-06-22T09:16:17Z</time>
      </trkpt>
      <trkpt lat="42.919700" lon="-8.733061">
        <ele>171.085</ele>
        <time>2019-06-22T09:16:18Z</time>
      </trkpt>
      <trkpt lat="42.919575" lon="-8.732731">
        <ele>169.677</ele>
        <time>2019-06-22T09:16:19Z</time>
      </trkpt>
      <trkpt lat="42.919436" lon="-8.732404">
        <ele>168.789</ele>
        <time>2019-06-22T09:16:20Z</time>
      </trkpt>
      <trkpt lat="42.919294" lon="-8.732076">
        <ele>168.127</ele>
        <time>2019-06-22T09:16:21Z</time>
      </trkpt>
      <trkpt lat="42.919158" lon="-8.731750">
        <ele>168.086</ele>
        <time>2019-06-22T09:16:22Z</time>
      </trkpt>
      <trkpt lat="42.919027" lon="-8.731430">
        <ele>167.491</ele>
        <time>2019-06-22T09:16:23Z</time>
      </trkpt>
      <trkpt lat="42.918899" lon="-8.731119">
        <ele>165.984</ele>
        <time>2019-06-22T09:16:24Z</time>
      </trkpt>
      <trkpt lat="42.918768" lon="-8.730813">
        <ele>165.999</ele>
        <time>2019-06-22T09:16:25Z</time>
      </trkpt>
      <trkpt lat="42.918637" lon="-8.730502">
        <ele>166.007</ele>
        <time>2019-06-22T09:16:26Z</time>
      </trkpt>
      <trkpt lat="42.918506" lon="-8.730202">
        <ele>166.127</ele>
        <time>2019-06-22T09:16:27Z</time>
      </trkpt>
      <trkpt lat="42.918362" lon="-8.729899">
        <ele>167.608</ele>
        <time>2019-06-22T09:16:28Z</time>
      </trkpt>
      <trkpt lat="42.918219" lon="-8.729603">
        <ele>169.272</ele>
        <time>2019-06-22T09:16:29Z</time>
      </trkpt>
      <trkpt lat="42.918071" lon="-8.729302">
        <ele>170.546</ele>
        <time>2019-06-22T09:16:30Z</time>
      </trkpt>
      <trkpt lat="42.917928" lon="-8.729015">
        <ele>171.028</ele>
        <time>2019-06-22T09:16:31Z</time>
      </trkpt>
      <trkpt lat="42.917766" lon="-8.728749">
        <ele>171.080</ele>
        <time>2019-06-22T09:16:32Z</time>
      </trkpt>
      <trkpt lat="42.917605" lon="-8.728473">
        <ele>170.778</ele>
        <time>2019-06-22T09:16:33Z</time>
      </trkpt>
      <trkpt lat="42.917444" lon="-8.728200">
        <ele>170.577</ele>
        <time>2019-06-22T09:16:34Z</time>
      </trkpt>
      <trkpt lat="42.917278" lon="-8.727935">
        <ele>170.352</ele>
        <time>2019-06-22T09:16:35Z</time>
      </trkpt>
      <trkpt lat="42.917117" lon="-8.727664">
        <ele>170.395</ele>
        <time>2019-06-22T09:16:36Z</time>
      </trkpt>
      <trkpt lat="42.916950" lon="-8.727398">
        <ele>171.636</ele>
        <time>2019-06-22T09:16:37Z</time>
      </trkpt>
      <trkpt lat="42.916781" lon="-8.727145">
        <ele>172.917</ele>
        <time>2019-06-22T09:16:38Z</time>
      </trkpt>
      <trkpt lat="42.916599" lon="-8.726903">
        <ele>174.618</ele>
        <time>2019-06-22T09:16:39Z</time>
      </trkpt>
      <trkpt lat="42.916420" lon="-8.726697">
        <ele>177.208</ele>
        <time>2019-06-22T09:16:40Z</time>
      </trkpt>
      <trkpt lat="42.916262" lon="-8.726484">
        <ele>180.026</ele>
        <time>2019-06-22T09:16:41Z</time>
      </trkpt>
      <trkpt lat="42.916103" lon="-8.726279">
        <ele>181.290</ele>
        <time>2019-06-22T09:16:42Z</time>
      </trkpt>
      <trkpt lat="42.915940" lon="-8.726086">
        <ele>183.042</ele>
        <time>2019-06-22T09:16:43Z</time>
      </trkpt>
      <trkpt lat="42.915768" lon="-8.725895">
        <ele>184.564</ele>
        <time>2019-06-22T09:16:44Z</time>
      </trkpt>
      <trkpt lat="42.915590" lon="-8.725695">
        <ele>185.222</ele>
        <time>2019-06-22T09:16:45Z</time>
      </trkpt>
      <trkpt lat="42.915412" lon="-8.725497">
        <ele>185.261</ele>
        <time>2019-06-22T09:16:46Z</time>
      </trkpt>
      <trkpt lat="42.915238" lon="-8.725300">
        <ele>185.446</ele>
        <time>2019-06-22T09:16:47Z</time>
      </trkpt>
      <trkpt lat="42.915055" lon="-8.725116">
        <ele>186.519</ele>
        <time>2019-06-22T09:16:48Z</time>
      </trkpt>
      <trkpt lat="42.914871" lon="-8.724931">
        <ele>187.022</ele>
        <time>2019-06-22T09:16:49Z</time>
      </trkpt>
      <trkpt lat="42.914685" lon="-8.724758">
        <ele>187.962</ele>
        <time>2019-06-22T09:16:50Z</time>
      </trkpt>
      <trkpt lat="42.914492" lon="-8.724589">
        <ele>189.308</ele>
        <time>2019-06-22T09:16:51Z</time>
      </trkpt>
      <trkpt lat="42.914299" lon="-8.724416">
        <ele>191.408</ele>
        <time>2019-06-22T09:16:52Z</time>
      </trkpt>
      <trkpt lat="42.914106" lon="-8.724249">
        <ele>192.245</ele>
        <time>2019-06-22T09:16:53Z</time>
      </trkpt>
      <trkpt lat="42.913913" lon="-8.724089">
        <ele>193.249</ele>
        <time>2019-06-22T09:16:54Z</time>
      </trkpt>
      <trkpt lat="42.913716" lon="-8.723928">
        <ele>193.631</ele>
        <time>2019-06-22T09:16:55Z</time>
      </trkpt>
      <trkpt lat="42.913520" lon="-8.723770">
        <ele>194.763</ele>
        <time>2019-06-22T09:16:56Z</time>
      </trkpt>
      <trkpt lat="42.913320" lon="-8.723608">
        <ele>195.311</ele>
        <time>2019-06-22T09:16:57Z</time>
      </trkpt>
      <trkpt lat="42.913128" lon="-8.723449">
        <ele>196.240</ele>
        <time>2019-06-22T09:16:58Z</time>
      </trkpt>
      <trkpt lat="42.912917" lon="-8.723328">
        <ele>196.285</ele>
        <time>2019-06-22T09:16:59Z</time>
      </trkpt>
      <trkpt lat="42.912717" lon="-8.723196">
        <ele>196.768</ele>
        <time>2019-06-22T09:17:00Z</time>
      </trkpt>
      <trkpt lat="42.912507" lon="-8.723057">
        <ele>196.768</ele>
        <time>2019-06-22T09:17:01Z</time>
      </trkpt>
      <trkpt lat="42.912301" lon="-8.722911">
        <ele>196.742</ele>
        <time>2019-06-22T09:17:02Z</time>
      </trkpt>
      <trkpt lat="42.912102" lon="-8.722767">
        <ele>195.826</ele>
        <time>2019-06-22T09:17:03Z</time>
      </trkpt>
      <trkpt lat="42.911897" lon="-8.722602">
        <ele>195.408</ele>
        <time>2019-06-22T09:17:04Z</time>
      </trkpt>
      <trkpt lat="42.911694" lon="-8.722424">
        <ele>194.149</ele>
        <time>2019-06-22T09:17:05Z</time>
      </trkpt>
      <trkpt lat="42.911496" lon="-8.722237">
        <ele>192.693</ele>
        <time>2019-06-22T09:17:06Z</time>
      </trkpt>
      <trkpt lat="42.911296" lon="-8.722035">
        <ele>191.785</ele>
        <time>2019-06-22T09:17:07Z</time>
      </trkpt>
      <trkpt lat="42.911111" lon="-8.721821">
        <ele>190.597</ele>
        <time>2019-06-22T09:17:08Z</time>
      </trkpt>
      <trkpt lat="42.910928" lon="-8.721604">
        <ele>188.615</ele>
        <time>2019-06-22T09:17:09Z</time>
      </trkpt>
      <trkpt lat="42.910777" lon="-8.721386">
        <ele>187.494</ele>
        <time>2019-06-22T09:17:10Z</time>
      </trkpt>
      <trkpt lat="42.910605" lon="-8.721144">
        <ele>185.369</ele>
        <time>2019-06-22T09:17:11Z</time>
      </trkpt>
      <trkpt lat="42.910428" lon="-8.720876">
        <ele>183.152</ele>
        <time>2019-06-22T09:17:12Z</time>
      </trkpt>
      <trkpt lat="42.910237" lon="-8.720607">
        <ele>183.182</ele>
        <time>2019-06-22T09:17:13Z</time>
      </trkpt>
      <trkpt lat="42.910102" lon="-8.720302">
        <ele>181.043</ele>
        <time>2019-06-22T09:17:14Z</time>
      </trkpt>
      <trkpt lat="42.909967" lon="-8.719997">
        <ele>179.717</ele>
        <time>2019-06-22T09:17:15Z</time>
      </trkpt>
      <trkpt lat="42.909814" lon="-8.719688">
        <ele>177.808</ele>
        <time>2019-06-22T09:17:16Z</time>
      </trkpt>
      <trkpt lat="42.909648" lon="-8.719377">
        <ele>176.661</ele>
        <time>2019-06-22T09:17:17Z</time>
      </trkpt>
      <trkpt lat="42.909488" lon="-8.719078">
        <ele>175.055</ele>
        <time>2019-06-22T09:17:18Z</time>
      </trkpt>
      <trkpt lat="42.909314" lon="-8.718764">
        <ele>171.597</ele>
        <time>2019-06-22T09:17:19Z</time>
      </trkpt>
      <trkpt lat="42.909147" lon="-8.718451">
        <ele>167.949</ele>
        <time>2019-06-22T09:17:20Z</time>
      </trkpt>
      <trkpt lat="42.908968" lon="-8.718129">
        <ele>165.417</ele>
        <time>2019-06-22T09:17:21Z</time>
      </trkpt>
      <trkpt lat="42.908793" lon="-8.717794">
        <ele>163.226</ele>
        <time>2019-06-22T09:17:22Z</time>
      </trkpt>
      <trkpt lat="42.908635" lon="-8.717457">
        <ele>160.661</ele>
        <time>2019-06-22T09:17:23Z</time>
      </trkpt>
      <trkpt lat="42.908468" lon="-8.717127">
        <ele>158.994</ele>
        <time>2019-06-22T09:17:24Z</time>
      </trkpt>
      <trkpt lat="42.908302" lon="-8.716797">
        <ele>157.423</ele>
        <time>2019-06-22T09:17:25Z</time>
      </trkpt>
      <trkpt lat="42.908148" lon="-8.716489">
        <ele>156.483</ele>
        <time>2019-06-22T09:17:26Z</time>
      </trkpt>
      <trkpt lat="42.907978" lon="-8.716164">
        <ele>154.611</ele>
        <time>2019-06-22T09:17:27Z</time>
      </trkpt>
      <trkpt lat="42.907822" lon="-8.715834">
        <ele>154.208</ele>
        <time>2019-06-22T09:17:28Z</time>
      </trkpt>
      <trkpt lat="42.907664" lon="-8.715521">
        <ele>154.295</ele>
        <time>2019-06-22T09:17:29Z</time>
      </trkpt>
      <trkpt lat="42.907509" lon="-8.715211">
        <ele>154.469</ele>
        <time>2019-06-22T09:17:30Z</time>
      </trkpt>
      <trkpt lat="42.907353" lon="-8.714900">
        <ele>154.571</ele>
        <time>2019-06-22T09:17:31Z</time>
      </trkpt>
      <trkpt lat="42.907198" lon="-8.714607">
        <ele>154.973</ele>
        <time>2019-06-22T09:17:32Z</time>
      </trkpt>
      <trkpt lat="42.907036" lon="-8.714310">
        <ele>155.471</ele>
        <time>2019-06-22T09:17:33Z</time>
      </trkpt>
      <trkpt lat="42.906887" lon="-8.714011">
        <ele>156.730</ele>
        <time>2019-06-22T09:17:34Z</time>
      </trkpt>
      <trkpt lat="42.906741" lon="-8.713723">
        <ele>157.935</ele>
        <time>2019-06-22T09:17:35Z</time>
      </trkpt>
      <trkpt lat="42.906590" lon="-8.713431">
        <ele>159.268</ele>
        <time>2019-06-22T09:17:36Z</time>
      </trkpt>
      <trkpt lat="42.906448" lon="-8.713130">
        <ele>160.625</ele>
        <time>2019-06-22T09:17:37Z</time>
      </trkpt>
      <trkpt lat="42.906321" lon="-8.712833">
        <ele>162.026</ele>
        <time>2019-06-22T09:17:38Z</time>
      </trkpt>
      <trkpt lat="42.906164" lon="-8.712545">
        <ele>163.108</ele>
        <time>2019-06-22T09:17:39Z</time>
      </trkpt>
      <trkpt lat="42.906017" lon="-8.712248">
        <ele>164.108</ele>
        <time>2019-06-22T09:17:40Z</time>
      </trkpt>
      <trkpt lat="42.905863" lon="-8.711960">
        <ele>164.525</ele>
        <time>2019-06-22T09:17:41Z</time>
      </trkpt>
      <trkpt lat="42.905719" lon="-8.711677">
        <ele>164.579</ele>
        <time>2019-06-22T09:17:42Z</time>
      </trkpt>
      <trkpt lat="42.905569" lon="-8.711385">
        <ele>164.571</ele>
        <time>2019-06-22T09:17:43Z</time>
      </trkpt>
      <trkpt lat="42.905431" lon="-8.711092">
        <ele>164.273</ele>
        <time>2019-06-22T09:17:44Z</time>
      </trkpt>
      <trkpt lat="42.905281" lon="-8.710799">
        <ele>164.251</ele>
        <time>2019-06-22T09:17:45Z</time>
      </trkpt>
      <trkpt lat="42.905131" lon="-8.710505">
        <ele>164.080</ele>
        <time>2019-06-22T09:17:46Z</time>
      </trkpt>
      <trkpt lat="42.904984" lon="-8.710218">
        <ele>162.955</ele>
        <time>2019-06-22T09:17:47Z</time>
      </trkpt>
      <trkpt lat="42.904836" lon="-8.709952">
        <ele>162.068</ele>
        <time>2019-06-22T09:17:48Z</time>
      </trkpt>
      <trkpt lat="42.904689" lon="-8.709684">
        <ele>160.675</ele>
        <time>2019-06-22T09:17:49Z</time>
      </trkpt>
      <trkpt lat="42.904572" lon="-8.709458">
        <ele>159.128</ele>
        <time>2019-06-22T09:17:50Z</time>
      </trkpt>
      <trkpt lat="42.904446" lon="-8.709216">
        <ele>156.320</ele>
        <time>2019-06-22T09:17:51Z</time>
      </trkpt>
      <trkpt lat="42.904310" lon="-8.708991">
        <ele>154.008</ele>
        <time>2019-06-22T09:17:52Z</time>
      </trkpt>
      <trkpt lat="42.904141" lon="-8.708799">
        <ele>152.560</ele>
        <time>2019-06-22T09:17:53Z</time>
      </trkpt>
      <trkpt lat="42.903994" lon="-8.708626">
        <ele>151.374</ele>
        <time>2019-06-22T09:17:54Z</time>
      </trkpt>
      <trkpt lat="42.903831" lon="-8.708482">
        <ele>149.246</ele>
        <time>2019-06-22T09:17:55Z</time>
      </trkpt>
      <trkpt lat="42.903673" lon="-8.708349">
        <ele>148.358</ele>
        <time>2019-06-22T09:17:56Z</time>
      </trkpt>
      <trkpt lat="42.903512" lon="-8.708225">
        <ele>148.296</ele>
        <time>2019-06-22T09:17:57Z</time>
      </trkpt>
      <trkpt lat="42.903358" lon="-8.708134">
        <ele>148.125</ele>
        <time>2019-06-22T09:17:58Z</time>
      </trkpt>
      <trkpt lat="42.903233" lon="-8.708051">
        <ele>147.790</ele>
        <time>2019-06-22T09:17:59Z</time>
      </trkpt>
      <trkpt lat="42.903108" lon="-8.708003">
        <ele>147.743</ele>
        <time>2019-06-22T09:18:00Z</time>
      </trkpt>
      <trkpt lat="42.903005" lon="-8.707953">
        <ele>147.787</ele>
        <time>2019-06-22T09:18:01Z</time>
      </trkpt>
      <trkpt lat="42.902907" lon="-8.707927">
        <ele>147.442</ele>
        <time>2019-06-22T09:18:02Z</time>
      </trkpt>
      <trkpt lat="42.902834" lon="-8.707876">
        <ele>147.126</ele>
        <time>2019-06-22T09:18:03Z</time>
      </trkpt>
      <trkpt lat="42.902747" lon="-8.707809">
        <ele>147.108</ele>
        <time>2019-06-22T09:18:04Z</time>
      </trkpt>
      <trkpt lat="42.902667" lon="-8.707706">
        <ele>147.331</ele>
        <time>2019-06-22T09:18:05Z</time>
      </trkpt>
      <trkpt lat="42.902586" lon="-8.707582">
        <ele>147.465</ele>
        <time>2019-06-22T09:18:06Z</time>
      </trkpt>
      <trkpt lat="42.902494" lon="-8.707432">
        <ele>147.487</ele>
        <time>2019-06-22T09:18:07Z</time>
      </trkpt>
      <trkpt lat="42.902393" lon="-8.707270">
        <ele>147.099</ele>
        <time>2019-06-22T09:18:08Z</time>
      </trkpt>
      <trkpt lat="42.902276" lon="-8.707114">
        <ele>146.557</ele>
        <time>2019-06-22T09:18:09Z</time>
      </trkpt>
      <trkpt lat="42.902149" lon="-8.706931">
        <ele>145.526</ele>
        <time>2019-06-22T09:18:10Z</time>
      </trkpt>
      <trkpt lat="42.902017" lon="-8.706746">
        <ele>145.021</ele>
        <time>2019-06-22T09:18:11Z</time>
      </trkpt>
      <trkpt lat="42.901877" lon="-8.706543">
        <ele>144.894</ele>
        <time>2019-06-22T09:18:12Z</time>
      </trkpt>
      <trkpt lat="42.901727" lon="-8.706348">
        <ele>144.873</ele>
        <time>2019-06-22T09:18:13Z</time>
      </trkpt>
      <trkpt lat="42.901573" lon="-8.706147">
        <ele>144.885</ele>
        <time>2019-06-22T09:18:14Z</time>
      </trkpt>
      <trkpt lat="42.901415" lon="-8.705966">
        <ele>144.813</ele>
        <time>2019-06-22T09:18:15Z</time>
      </trkpt>
      <trkpt lat="42.901250" lon="-8.705769">
        <ele>144.808</ele>
        <time>2019-06-22T09:18:16Z</time>
      </trkpt>
      <trkpt lat="42.901081" lon="-8.705569">
        <ele>144.710</ele>
        <time>2019-06-22T09:18:17Z</time>
      </trkpt>
      <trkpt lat="42.900901" lon="-8.705366">
        <ele>144.494</ele>
        <time>2019-06-22T09:18:18Z</time>
      </trkpt>
      <trkpt lat="42.900723" lon="-8.705156">
        <ele>144.066</ele>
        <time>2019-06-22T09:18:19Z</time>
      </trkpt>
      <trkpt lat="42.900540" lon="-8.704958">
        <ele>143.588</ele>
        <time>2019-06-22T09:18:20Z</time>
      </trkpt>
      <trkpt lat="42.900351" lon="-8.704749">
        <ele>143.186</ele>
        <time>2019-06-22T09:18:21Z</time>
      </trkpt>
      <trkpt lat="42.900166" lon="-8.704537">
        <ele>142.485</ele>
        <time>2019-06-22T09:18:22Z</time>
      </trkpt>
      <trkpt lat="42.899979" lon="-8.704339">
        <ele>141.970</ele>
        <time>2019-06-22T09:18:23Z</time>
      </trkpt>
      <trkpt lat="42.899797" lon="-8.704158">
        <ele>140.173</ele>
        <time>2019-06-22T09:18:24Z</time>
      </trkpt>
      <trkpt lat="42.899618" lon="-8.703976">
        <ele>139.071</ele>
        <time>2019-06-22T09:18:25Z</time>
      </trkpt>
      <trkpt lat="42.899435" lon="-8.703787">
        <ele>138.741</ele>
        <time>2019-06-22T09:18:26Z</time>
      </trkpt>
      <trkpt lat="42.899262" lon="-8.703587">
        <ele>138.015</ele>
        <time>2019-06-22T09:18:27Z</time>
      </trkpt>
      <trkpt lat="42.899075" lon="-8.703375">
        <ele>138.008</ele>
        <time>2019-06-22T09:18:28Z</time>
      </trkpt>
      <trkpt lat="42.898905" lon="-8.703148">
        <ele>139.680</ele>
        <time>2019-06-22T09:18:29Z</time>
      </trkpt>
      <trkpt lat="42.898749" lon="-8.702929">
        <ele>140.834</ele>
        <time>2019-06-22T09:18:30Z</time>
      </trkpt>
      <trkpt lat="42.898613" lon="-8.702714">
        <ele>140.936</ele>
        <time>2019-06-22T09:18:31Z</time>
      </trkpt>
      <trkpt lat="42.898498" lon="-8.702501">
        <ele>141.718</ele>
        <time>2019-06-22T09:18:32Z</time>
      </trkpt>
      <trkpt lat="42.898394" lon="-8.702293">
        <ele>141.796</ele>
        <time>2019-06-22T09:18:33Z</time>
      </trkpt>
      <trkpt lat="42.898300" lon="-8.702130">
        <ele>140.815</ele>
        <time>2019-06-22T09:18:34Z</time>
      </trkpt>
      <trkpt lat="42.898217" lon="-8.701992">
        <ele>140.170</ele>
        <time>2019-06-22T09:18:35Z</time>
      </trkpt>
      <trkpt lat="42.898137" lon="-8.701891">
        <ele>139.833</ele>
        <time>2019-06-22T09:18:36Z</time>
      </trkpt>
      <trkpt lat="42.898071" lon="-8.701798">
        <ele>139.851</ele>
        <time>2019-06-22T09:18:37Z</time>
      </trkpt>
      <trkpt lat="42.898027" lon="-8.701696">
        <ele>140.301</ele>
        <time>2019-06-22T09:18:38Z</time>
      </trkpt>
      <trkpt lat="42.898015" lon="-8.701572">
        <ele>141.811</ele>
        <time>2019-06-22T09:18:39Z</time>
      </trkpt>
      <trkpt lat="42.898003" lon="-8.701444">
        <ele>143.208</ele>
        <time>2019-06-22T09:18:40Z</time>
      </trkpt>
      <trkpt lat="42.897988" lon="-8.701295">
        <ele>144.638</ele>
        <time>2019-06-22T09:18:41Z</time>
      </trkpt>
      <trkpt lat="42.897957" lon="-8.701132">
        <ele>145.692</ele>
        <time>2019-06-22T09:18:42Z</time>
      </trkpt>
      <trkpt lat="42.897919" lon="-8.700903">
        <ele>146.084</ele>
        <time>2019-06-22T09:18:43Z</time>
      </trkpt>
      <trkpt lat="42.897913" lon="-8.700678">
        <ele>146.136</ele>
        <time>2019-06-22T09:18:44Z</time>
      </trkpt>
      <trkpt lat="42.897890" lon="-8.700448">
        <ele>146.384</ele>
        <time>2019-06-22T09:18:45Z</time>
      </trkpt>
      <trkpt lat="42.897890" lon="-8.700205">
        <ele>146.393</ele>
        <time>2019-06-22T09:18:46Z</time>
      </trkpt>
      <trkpt lat="42.897897" lon="-8.699951">
        <ele>146.478</ele>
        <time>2019-06-22T09:18:47Z</time>
      </trkpt>
      <trkpt lat="42.897902" lon="-8.699694">
        <ele>146.721</ele>
        <time>2019-06-22T09:18:48Z</time>
      </trkpt>
      <trkpt lat="42.897942" lon="-8.699426">
        <ele>147.047</ele>
        <time>2019-06-22T09:18:49Z</time>
      </trkpt>
      <trkpt lat="42.897997" lon="-8.699146">
        <ele>147.329</ele>
        <time>2019-06-22T09:18:50Z</time>
      </trkpt>
      <trkpt lat="42.898079" lon="-8.698871">
        <ele>147.721</ele>
        <time>2019-06-22T09:18:51Z</time>
      </trkpt>
      <trkpt lat="42.898174" lon="-8.698624">
        <ele>148.008</ele>
        <time>2019-06-22T09:18:52Z</time>
      </trkpt>
      <trkpt lat="42.898294" lon="-8.698396">
        <ele>148.477</ele>
        <time>2019-06-22T09:18:53Z</time>
      </trkpt>
      <trkpt lat="42.898431" lon="-8.698154">
        <ele>149.051</ele>
        <time>2019-06-22T09:18:54Z</time>
      </trkpt>
      <trkpt lat="42.898575" lon="-8.697930">
        <ele>149.393</ele>
        <time>2019-06-22T09:18:55Z</time>
      </trkpt>
      <trkpt lat="42.898724" lon="-8.697726">
        <ele>149.345</ele>
        <time>2019-06-22T09:18:56Z</time>
      </trkpt>
      <trkpt lat="42.898884" lon="-8.697512">
        <ele>148.743</ele>
        <time>2019-06-22T09:18:57Z</time>
      </trkpt>
      <trkpt lat="42.899032" lon="-8.697295">
        <ele>148.352</ele>
        <time>2019-06-22T09:18:58Z</time>
      </trkpt>
      <trkpt lat="42.899162" lon="-8.697068">
        <ele>147.787</ele>
        <time>2019-06-22T09:18:59Z</time>
      </trkpt>
      <trkpt lat="42.899271" lon="-8.696836">
        <ele>147.050</ele>
        <time>2019-06-22T09:19:00Z</time>
      </trkpt>
      <trkpt lat="42.899351" lon="-8.696590">
        <ele>147.027</ele>
        <time>2019-06-22T09:19:01Z</time>
      </trkpt>
      <trkpt lat="42.899422" lon="-8.696337">
        <ele>147.268</ele>
        <time>2019-06-22T09:19:02Z</time>
      </trkpt>
      <trkpt lat="42.899471" lon="-8.696071">
        <ele>147.214</ele>
        <time>2019-06-22T09:19:03Z</time>
      </trkpt>
      <trkpt lat="42.899507" lon="-8.695797">
        <ele>147.408</ele>
        <time>2019-06-22T09:19:04Z</time>
      </trkpt>
      <trkpt lat="42.899533" lon="-8.695515">
        <ele>147.365</ele>
        <time>2019-06-22T09:19:05Z</time>
      </trkpt>
      <trkpt lat="42.899525" lon="-8.695225">
        <ele>147.439</ele>
        <time>2019-06-22T09:19:06Z</time>
      </trkpt>
      <trkpt lat="42.899495" lon="-8.694934">
        <ele>147.311</ele>
        <time>2019-06-22T09:19:07Z</time>
      </trkpt>
      <trkpt lat="42.899446" lon="-8.694641">
        <ele>146.743</ele>
        <time>2019-06-22T09:19:08Z</time>
      </trkpt>
      <trkpt lat="42.899374" lon="-8.694354">
        <ele>146.661</ele>
        <time>2019-06-22T09:19:09Z</time>
      </trkpt>
      <trkpt lat="42.899285" lon="-8.694094">
        <ele>146.540</ele>
        <time>2019-06-22T09:19:10Z</time>
      </trkpt>
      <trkpt lat="42.899167" lon="-8.693841">
        <ele>146.535</ele>
        <time>2019-06-22T09:19:11Z</time>
      </trkpt>
      <trkpt lat="42.899028" lon="-8.693600">
        <ele>146.728</ele>
        <time>2019-06-22T09:19:12Z</time>
      </trkpt>
      <trkpt lat="42.898873" lon="-8.693390">
        <ele>146.712</ele>
        <time>2019-06-22T09:19:13Z</time>
      </trkpt>
      <trkpt lat="42.898711" lon="-8.693183">
        <ele>147.532</ele>
        <time>2019-06-22T09:19:14Z</time>
      </trkpt>
      <trkpt lat="42.898546" lon="-8.692964">
        <ele>149.305</ele>
        <time>2019-06-22T09:19:15Z</time>
      </trkpt>
      <trkpt lat="42.898375" lon="-8.692745">
        <ele>151.408</ele>
        <time>2019-06-22T09:19:16Z</time>
      </trkpt>
      <trkpt lat="42.898207" lon="-8.692548">
        <ele>153.524</ele>
        <time>2019-06-22T09:19:17Z</time>
      </trkpt>
      <trkpt lat="42.898040" lon="-8.692326">
        <ele>155.228</ele>
        <time>2019-06-22T09:19:18Z</time>
      </trkpt>
      <trkpt lat="42.897872" lon="-8.692124">
        <ele>157.060</ele>
        <time>2019-06-22T09:19:19Z</time>
      </trkpt>
      <trkpt lat="42.897705" lon="-8.691901">
        <ele>158.382</ele>
        <time>2019-06-22T09:19:20Z</time>
      </trkpt>
      <trkpt lat="42.897542" lon="-8.691678">
        <ele>159.010</ele>
        <time>2019-06-22T09:19:21Z</time>
      </trkpt>
      <trkpt lat="42.897374" lon="-8.691462">
        <ele>159.619</ele>
        <time>2019-06-22T09:19:22Z</time>
      </trkpt>
      <trkpt lat="42.897203" lon="-8.691250">
        <ele>160.484</ele>
        <time>2019-06-22T09:19:23Z</time>
      </trkpt>
      <trkpt lat="42.897019" lon="-8.691066">
        <ele>160.417</ele>
        <time>2019-06-22T09:19:24Z</time>
      </trkpt>
      <trkpt lat="42.896805" lon="-8.690914">
        <ele>159.782</ele>
        <time>2019-06-22T09:19:25Z</time>
      </trkpt>
      <trkpt lat="42.896607" lon="-8.690747">
        <ele>159.143</ele>
        <time>2019-06-22T09:19:26Z</time>
      </trkpt>
      <trkpt lat="42.896358" lon="-8.690655">
        <ele>158.617</ele>
        <time>2019-06-22T09:19:27Z</time>
      </trkpt>
      <trkpt lat="42.896146" lon="-8.690544">
        <ele>158.608</ele>
        <time>2019-06-22T09:19:28Z</time>
      </trkpt>
      <trkpt lat="42.895922" lon="-8.690437">
        <ele>159.451</ele>
        <time>2019-06-22T09:19:29Z</time>
      </trkpt>
      <trkpt lat="42.895708" lon="-8.690313">
        <ele>161.695</ele>
        <time>2019-06-22T09:19:30Z</time>
      </trkpt>
      <trkpt lat="42.895499" lon="-8.690171">
        <ele>163.997</ele>
        <time>2019-06-22T09:19:31Z</time>
      </trkpt>
      <trkpt lat="42.895307" lon="-8.690012">
        <ele>167.039</ele>
        <time>2019-06-22T09:19:32Z</time>
      </trkpt>
      <trkpt lat="42.895120" lon="-8.689849">
        <ele>170.097</ele>
        <time>2019-06-22T09:19:33Z</time>
      </trkpt>
      <trkpt lat="42.894955" lon="-8.689648">
        <ele>172.556</ele>
        <time>2019-06-22T09:19:34Z</time>
      </trkpt>
      <trkpt lat="42.894803" lon="-8.689432">
        <ele>174.391</ele>
        <time>2019-06-22T09:19:35Z</time>
      </trkpt>
      <trkpt lat="42.894668" lon="-8.689209">
        <ele>176.544</ele>
        <time>2019-06-22T09:19:36Z</time>
      </trkpt>
      <trkpt lat="42.894549" lon="-8.688962">
        <ele>177.757</ele>
        <time>2019-06-22T09:19:37Z</time>
      </trkpt>
      <trkpt lat="42.894433" lon="-8.688699">
        <ele>178.800</ele>
        <time>2019-06-22T09:19:38Z</time>
      </trkpt>
      <trkpt lat="42.894325" lon="-8.688445">
        <ele>179.220</ele>
        <time>2019-06-22T09:19:39Z</time>
      </trkpt>
      <trkpt lat="42.894210" lon="-8.688187">
        <ele>180.008</ele>
        <time>2019-06-22T09:19:40Z</time>
      </trkpt>
      <trkpt lat="42.894089" lon="-8.687927">
        <ele>180.388</ele>
        <time>2019-06-22T09:19:41Z</time>
      </trkpt>
      <trkpt lat="42.893953" lon="-8.687672">
        <ele>180.932</ele>
        <time>2019-06-22T09:19:42Z</time>
      </trkpt>
      <trkpt lat="42.893813" lon="-8.687429">
        <ele>181.214</ele>
        <time>2019-06-22T09:19:43Z</time>
      </trkpt>
      <trkpt lat="42.893663" lon="-8.687201">
        <ele>182.216</ele>
        <time>2019-06-22T09:19:44Z</time>
      </trkpt>
      <trkpt lat="42.893503" lon="-8.686978">
        <ele>182.914</ele>
        <time>2019-06-22T09:19:45Z</time>
      </trkpt>
      <trkpt lat="42.893342" lon="-8.686771">
        <ele>183.853</ele>
        <time>2019-06-22T09:19:46Z</time>
      </trkpt>
      <trkpt lat="42.893140" lon="-8.686615">
        <ele>184.198</ele>
        <time>2019-06-22T09:19:47Z</time>
      </trkpt>
      <trkpt lat="42.892930" lon="-8.686487">
        <ele>184.331</ele>
        <time>2019-06-22T09:19:48Z</time>
      </trkpt>
      <trkpt lat="42.892724" lon="-8.686352">
        <ele>184.455</ele>
        <time>2019-06-22T09:19:49Z</time>
      </trkpt>
      <trkpt lat="42.892521" lon="-8.686230">
        <ele>185.407</ele>
        <time>2019-06-22T09:19:50Z</time>
      </trkpt>
      <trkpt lat="42.892301" lon="-8.686111">
        <ele>185.717</ele>
        <time>2019-06-22T09:19:51Z</time>
      </trkpt>
      <trkpt lat="42.892076" lon="-8.686013">
        <ele>186.008</ele>
        <time>2019-06-22T09:19:52Z</time>
      </trkpt>
      <trkpt lat="42.891845" lon="-8.685925">
        <ele>187.098</ele>
        <time>2019-06-22T09:19:53Z</time>
      </trkpt>
      <trkpt lat="42.891624" lon="-8.685840">
        <ele>187.742</ele>
        <time>2019-06-22T09:19:54Z</time>
      </trkpt>
      <trkpt lat="42.891376" lon="-8.685759">
        <ele>188.354</ele>
        <time>2019-06-22T09:19:55Z</time>
      </trkpt>
      <trkpt lat="42.891126" lon="-8.685687">
        <ele>188.326</ele>
        <time>2019-06-22T09:19:56Z</time>
      </trkpt>
      <trkpt lat="42.890878" lon="-8.685612">
        <ele>187.584</ele>
        <time>2019-06-22T09:19:57Z</time>
      </trkpt>
      <trkpt lat="42.890629" lon="-8.685550">
        <ele>187.433</ele>
        <time>2019-06-22T09:19:58Z</time>
      </trkpt>
      <trkpt lat="42.890383" lon="-8.685472">
        <ele>187.398</ele>
        <time>2019-06-22T09:19:59Z</time>
      </trkpt>
      <trkpt lat="42.890140" lon="-8.685406">
        <ele>186.931</ele>
        <time>2019-06-22T09:20:00Z</time>
      </trkpt>
      <trkpt lat="42.889891" lon="-8.685336">
        <ele>186.993</ele>
        <time>2019-06-22T09:20:01Z</time>
      </trkpt>
      <trkpt lat="42.889649" lon="-8.685267">
        <ele>187.865</ele>
        <time>2019-06-22T09:20:02Z</time>
      </trkpt>
      <trkpt lat="42.889402" lon="-8.685192">
        <ele>187.821</ele>
        <time>2019-06-22T09:20:03Z</time>
      </trkpt>
      <trkpt lat="42.889163" lon="-8.685123">
        <ele>188.708</ele>
        <time>2019-06-22T09:20:04Z</time>
      </trkpt>
      <trkpt lat="42.888922" lon="-8.685063">
        <ele>189.642</ele>
        <time>2019-06-22T09:20:05Z</time>
      </trkpt>
      <trkpt lat="42.888682" lon="-8.685002">
        <ele>190.596</ele>
        <time>2019-06-22T09:20:06Z</time>
      </trkpt>
      <trkpt lat="42.888442" lon="-8.684936">
        <ele>192.168</ele>
        <time>2019-06-22T09:20:07Z</time>
      </trkpt>
      <trkpt lat="42.888204" lon="-8.684873">
        <ele>194.450</ele>
        <time>2019-06-22T09:20:08Z</time>
      </trkpt>
      <trkpt lat="42.887965" lon="-8.684804">
        <ele>195.488</ele>
        <time>2019-06-22T09:20:09Z</time>
      </trkpt>
      <trkpt lat="42.887728" lon="-8.684741">
        <ele>197.067</ele>
        <time>2019-06-22T09:20:10Z</time>
      </trkpt>
      <trkpt lat="42.887494" lon="-8.684673">
        <ele>197.942</ele>
        <time>2019-06-22T09:20:11Z</time>
      </trkpt>
      <trkpt lat="42.887259" lon="-8.684600">
        <ele>198.325</ele>
        <time>2019-06-22T09:20:12Z</time>
      </trkpt>
      <trkpt lat="42.887023" lon="-8.684519">
        <ele>198.365</ele>
        <time>2019-06-22T09:20:13Z</time>
      </trkpt>
      <trkpt lat="42.886792" lon="-8.684429">
        <ele>198.568</ele>
        <time>2019-06-22T09:20:14Z</time>
      </trkpt>
      <trkpt lat="42.886555" lon="-8.684332">
        <ele>198.614</ele>
        <time>2019-06-22T09:20:15Z</time>
      </trkpt>
      <trkpt lat="42.886307" lon="-8.684243">
        <ele>198.908</ele>
        <time>2019-06-22T09:20:16Z</time>
      </trkpt>
      <trkpt lat="42.886074" lon="-8.684120">
        <ele>199.049</ele>
        <time>2019-06-22T09:20:17Z</time>
      </trkpt>
      <trkpt lat="42.885843" lon="-8.684006">
        <ele>199.413</ele>
        <time>2019-06-22T09:20:18Z</time>
      </trkpt>
      <trkpt lat="42.885649" lon="-8.683873">
        <ele>199.585</ele>
        <time>2019-06-22T09:20:19Z</time>
      </trkpt>
      <trkpt lat="42.885437" lon="-8.683709">
        <ele>199.717</ele>
        <time>2019-06-22T09:20:20Z</time>
      </trkpt>
      <trkpt lat="42.885220" lon="-8.683540">
        <ele>200.145</ele>
        <time>2019-06-22T09:20:21Z</time>
      </trkpt>
      <trkpt lat="42.885008" lon="-8.683372">
        <ele>200.524</ele>
        <time>2019-06-22T09:20:22Z</time>
      </trkpt>
      <trkpt lat="42.884794" lon="-8.683200">
        <ele>201.119</ele>
        <time>2019-06-22T09:20:23Z</time>
      </trkpt>
      <trkpt lat="42.884578" lon="-8.683022">
        <ele>201.132</ele>
        <time>2019-06-22T09:20:24Z</time>
      </trkpt>
      <trkpt lat="42.884363" lon="-8.682852">
        <ele>200.945</ele>
        <time>2019-06-22T09:20:25Z</time>
      </trkpt>
      <trkpt lat="42.884147" lon="-8.682683">
        <ele>200.547</ele>
        <time>2019-06-22T09:20:26Z</time>
      </trkpt>
      <trkpt lat="42.883930" lon="-8.682514">
        <ele>200.311</ele>
        <time>2019-06-22T09:20:27Z</time>
      </trkpt>
      <trkpt lat="42.883713" lon="-8.682347">
        <ele>199.908</ele>
        <time>2019-06-22T09:20:28Z</time>
      </trkpt>
      <trkpt lat="42.883500" lon="-8.682172">
        <ele>199.277</ele>
        <time>2019-06-22T09:20:29Z</time>
      </trkpt>
      <trkpt lat="42.883283" lon="-8.681990">
        <ele>199.261</ele>
        <time>2019-06-22T09:20:30Z</time>
      </trkpt>
      <trkpt lat="42.883073" lon="-8.681805">
        <ele>199.313</ele>
        <time>2019-06-22T09:20:31Z</time>
      </trkpt>
      <trkpt lat="42.882861" lon="-8.681620">
        <ele>200.185</ele>
        <time>2019-06-22T09:20:32Z</time>
      </trkpt>
      <trkpt lat="42.882656" lon="-8.681413">
        <ele>201.793</ele>
        <time>2019-06-22T09:20:33Z</time>
      </trkpt>
      <trkpt lat="42.882464" lon="-8.681212">
        <ele>203.252</ele>
        <time>2019-06-22T09:20:34Z</time>
      </trkpt>
      <trkpt lat="42.882270" lon="-8.681002">
        <ele>205.727</ele>
        <time>2019-06-22T09:20:35Z</time>
      </trkpt>
      <trkpt lat="42.882081" lon="-8.680777">
        <ele>207.360</ele>
        <time>2019-06-22T09:20:36Z</time>
      </trkpt>
      <trkpt lat="42.881891" lon="-8.680559">
        <ele>208.295</ele>
        <time>2019-06-22T09:20:37Z</time>
      </trkpt>
      <trkpt lat="42.881710" lon="-8.680335">
        <ele>208.649</ele>
        <time>2019-06-22T09:20:38Z</time>
      </trkpt>
      <trkpt lat="42.881528" lon="-8.680117">
        <ele>208.723</ele>
        <time>2019-06-22T09:20:39Z</time>
      </trkpt>
      <trkpt lat="42.881346" lon="-8.679895">
        <ele>208.708</ele>
        <time>2019-06-22T09:20:40Z</time>
      </trkpt>
      <trkpt lat="42.881159" lon="-8.679668">
        <ele>209.452</ele>
        <time>2019-06-22T09:20:41Z</time>
      </trkpt>
      <trkpt lat="42.880982" lon="-8.679451">
        <ele>210.156</ele>
        <time>2019-06-22T09:20:42Z</time>
      </trkpt>
      <trkpt lat="42.880804" lon="-8.679228">
        <ele>210.678</ele>
        <time>2019-06-22T09:20:43Z</time>
      </trkpt>
      <trkpt lat="42.880623" lon="-8.679009">
        <ele>211.960</ele>
        <time>2019-06-22T09:20:44Z</time>
      </trkpt>
      <trkpt lat="42.880442" lon="-8.678781">
        <ele>212.878</ele>
        <time>2019-06-22T09:20:45Z</time>
      </trkpt>
      <trkpt lat="42.880266" lon="-8.678568">
        <ele>214.287</ele>
        <time>2019-06-22T09:20:46Z</time>
      </trkpt>
      <trkpt lat="42.880089" lon="-8.678339">
        <ele>215.182</ele>
        <time>2019-06-22T09:20:47Z</time>
      </trkpt>
      <trkpt lat="42.879911" lon="-8.678110">
        <ele>215.535</ele>
        <time>2019-06-22T09:20:48Z</time>
      </trkpt>
      <trkpt lat="42.879733" lon="-8.677880">
        <ele>216.363</ele>
        <time>2019-06-22T09:20:49Z</time>
      </trkpt>
      <trkpt lat="42.879559" lon="-8.677661">
        <ele>216.344</ele>
        <time>2019-06-22T09:20:50Z</time>
      </trkpt>
      <trkpt lat="42.879383" lon="-8.677436">
        <ele>216.218</ele>
        <time>2019-06-22T09:20:51Z</time>
      </trkpt>
      <trkpt lat="42.879205" lon="-8.677195">
        <ele>214.908</ele>
        <time>2019-06-22T09:20:52Z</time>
      </trkpt>
      <trkpt lat="42.879017" lon="-8.676961">
        <ele>214.039</ele>
        <time>2019-06-22T09:20:53Z</time>
      </trkpt>
      <trkpt lat="42.878814" lon="-8.676722">
        <ele>213.183</ele>
        <time>2019-06-22T09:20:54Z</time>
      </trkpt>
      <trkpt lat="42.878627" lon="-8.676472">
        <ele>211.995</ele>
        <time>2019-06-22T09:20:55Z</time>
      </trkpt>
      <trkpt lat="42.878434" lon="-8.676218">
        <ele>211.327</ele>
        <time>2019-06-22T09:20:56Z</time>
      </trkpt>
      <trkpt lat="42.878225" lon="-8.675960">
        <ele>209.645</ele>
        <time>2019-06-22T09:20:57Z</time>
      </trkpt>
      <trkpt lat="42.878037" lon="-8.675709">
        <ele>207.654</ele>
        <time>2019-06-22T09:20:58Z</time>
      </trkpt>
      <trkpt lat="42.877838" lon="-8.675461">
        <ele>206.149</ele>
        <time>2019-06-22T09:20:59Z</time>
      </trkpt>
      <trkpt lat="42.877638" lon="-8.675209">
        <ele>204.352</ele>
        <time>2019-06-22T09:21:00Z</time>
      </trkpt>
      <trkpt lat="42.877431" lon="-8.674986">
        <ele>201.513</ele>
        <time>2019-06-22T09:21:01Z</time>
      </trkpt>
      <trkpt lat="42.877232" lon="-8.674718">
        <ele>199.843</ele>
        <time>2019-06-22T09:21:02Z</time>
      </trkpt>
      <trkpt lat="42.877049" lon="-8.674439">
        <ele>198.007</ele>
        <time>2019-06-22T09:21:03Z</time>
      </trkpt>
      <trkpt lat="42.876861" lon="-8.674161">
        <ele>196.108</ele>
        <time>2019-06-22T09:21:04Z</time>
      </trkpt>
      <trkpt lat="42.876720" lon="-8.673864">
        <ele>194.224</ele>
        <time>2019-06-22T09:21:05Z</time>
      </trkpt>
      <trkpt lat="42.876566" lon="-8.673587">
        <ele>193.278</ele>
        <time>2019-06-22T09:21:06Z</time>
      </trkpt>
      <trkpt lat="42.876416" lon="-8.673286">
        <ele>191.360</ele>
        <time>2019-06-22T09:21:07Z</time>
      </trkpt>
      <trkpt lat="42.876281" lon="-8.673007">
        <ele>189.632</ele>
        <time>2019-06-22T09:21:08Z</time>
      </trkpt>
      <trkpt lat="42.876176" lon="-8.672755">
        <ele>187.230</ele>
        <time>2019-06-22T09:21:09Z</time>
      </trkpt>
      <trkpt lat="42.876075" lon="-8.672492">
        <ele>186.789</ele>
        <time>2019-06-22T09:21:10Z</time>
      </trkpt>
      <trkpt lat="42.875986" lon="-8.672234">
        <ele>185.814</ele>
        <time>2019-06-22T09:21:11Z</time>
      </trkpt>
      <trkpt lat="42.875931" lon="-8.671946">
        <ele>185.797</ele>
        <time>2019-06-22T09:21:12Z</time>
      </trkpt>
      <trkpt lat="42.875936" lon="-8.671652">
        <ele>185.817</ele>
        <time>2019-06-22T09:21:13Z</time>
      </trkpt>
      <trkpt lat="42.875988" lon="-8.671360">
        <ele>185.887</ele>
        <time>2019-06-22T09:21:14Z</time>
      </trkpt>
      <trkpt lat="42.876046" lon="-8.671075">
        <ele>185.715</ele>
        <time>2019-06-22T09:21:15Z</time>
      </trkpt>
      <trkpt lat="42.876084" lon="-8.670805">
        <ele>185.308</ele>
        <time>2019-06-22T09:21:16Z</time>
      </trkpt>
      <trkpt lat="42.876168" lon="-8.670554">
        <ele>183.974</ele>
        <time>2019-06-22T09:21:17Z</time>
      </trkpt>
      <trkpt lat="42.876272" lon="-8.670308">
        <ele>182.638</ele>
        <time>2019-06-22T09:21:18Z</time>
      </trkpt>
      <trkpt lat="42.876393" lon="-8.670085">
        <ele>181.210</ele>
        <time>2019-06-22T09:21:19Z</time>
      </trkpt>
      <trkpt lat="42.876545" lon="-8.669878">
        <ele>180.032</ele>
        <time>2019-06-22T09:21:20Z</time>
      </trkpt>
      <trkpt lat="42.876709" lon="-8.669679">
        <ele>178.640</ele>
        <time>2019-06-22T09:21:21Z</time>
      </trkpt>
      <trkpt lat="42.876916" lon="-8.669498">
        <ele>177.439</ele>
        <time>2019-06-22T09:21:22Z</time>
      </trkpt>
      <trkpt lat="42.877125" lon="-8.669311">
        <ele>176.094</ele>
        <time>2019-06-22T09:21:23Z</time>
      </trkpt>
      <trkpt lat="42.877331" lon="-8.669106">
        <ele>174.267</ele>
        <time>2019-06-22T09:21:24Z</time>
      </trkpt>
      <trkpt lat="42.877544" lon="-8.668911">
        <ele>172.567</ele>
        <time>2019-06-22T09:21:25Z</time>
      </trkpt>
      <trkpt lat="42.877761" lon="-8.668719">
        <ele>170.881</ele>
        <time>2019-06-22T09:21:26Z</time>
      </trkpt>
      <trkpt lat="42.877976" lon="-8.668520">
        <ele>169.019</ele>
        <time>2019-06-22T09:21:27Z</time>
      </trkpt>
      <trkpt lat="42.878175" lon="-8.668308">
        <ele>166.908</ele>
        <time>2019-06-22T09:21:28Z</time>
      </trkpt>
      <trkpt lat="42.878374" lon="-8.668127">
        <ele>164.139</ele>
        <time>2019-06-22T09:21:29Z</time>
      </trkpt>
      <trkpt lat="42.878572" lon="-8.667930">
        <ele>161.963</ele>
        <time>2019-06-22T09:21:30Z</time>
      </trkpt>
      <trkpt lat="42.878770" lon="-8.667740">
        <ele>160.145</ele>
        <time>2019-06-22T09:21:31Z</time>
      </trkpt>
      <trkpt lat="42.878951" lon="-8.667549">
        <ele>158.267</ele>
        <time>2019-06-22T09:21:32Z</time>
      </trkpt>
      <trkpt lat="42.879141" lon="-8.667354">
        <ele>155.735</ele>
        <time>2019-06-22T09:21:33Z</time>
      </trkpt>
      <trkpt lat="42.879304" lon="-8.667150">
        <ele>153.094</ele>
        <time>2019-06-22T09:21:34Z</time>
      </trkpt>
      <trkpt lat="42.879467" lon="-8.666937">
        <ele>150.739</ele>
        <time>2019-06-22T09:21:35Z</time>
      </trkpt>
      <trkpt lat="42.879608" lon="-8.666687">
        <ele>147.192</ele>
        <time>2019-06-22T09:21:36Z</time>
      </trkpt>
      <trkpt lat="42.879703" lon="-8.666441">
        <ele>144.559</ele>
        <time>2019-06-22T09:21:37Z</time>
      </trkpt>
      <trkpt lat="42.879805" lon="-8.666161">
        <ele>142.503</ele>
        <time>2019-06-22T09:21:38Z</time>
      </trkpt>
      <trkpt lat="42.879873" lon="-8.665872">
        <ele>141.323</ele>
        <time>2019-06-22T09:21:39Z</time>
      </trkpt>
      <trkpt lat="42.879869" lon="-8.665598">
        <ele>139.408</ele>
        <time>2019-06-22T09:21:40Z</time>
      </trkpt>
      <trkpt lat="42.879872" lon="-8.665286">
        <ele>138.028</ele>
        <time>2019-06-22T09:21:41Z</time>
      </trkpt>
      <trkpt lat="42.879826" lon="-8.664990">
        <ele>136.292</ele>
        <time>2019-06-22T09:21:42Z</time>
      </trkpt>
      <trkpt lat="42.879793" lon="-8.664684">
        <ele>134.314</ele>
        <time>2019-06-22T09:21:43Z</time>
      </trkpt>
      <trkpt lat="42.879694" lon="-8.664400">
        <ele>132.066</ele>
        <time>2019-06-22T09:21:44Z</time>
      </trkpt>
      <trkpt lat="42.879580" lon="-8.664129">
        <ele>130.284</ele>
        <time>2019-06-22T09:21:45Z</time>
      </trkpt>
      <trkpt lat="42.879485" lon="-8.663839">
        <ele>127.943</ele>
        <time>2019-06-22T09:21:46Z</time>
      </trkpt>
      <trkpt lat="42.879284" lon="-8.663636">
        <ele>126.168</ele>
        <time>2019-06-22T09:21:47Z</time>
      </trkpt>
      <trkpt lat="42.879096" lon="-8.663430">
        <ele>123.831</ele>
        <time>2019-06-22T09:21:48Z</time>
      </trkpt>
      <trkpt lat="42.878859" lon="-8.663256">
        <ele>122.278</ele>
        <time>2019-06-22T09:21:49Z</time>
      </trkpt>
      <trkpt lat="42.878624" lon="-8.663098">
        <ele>120.933</ele>
        <time>2019-06-22T09:21:50Z</time>
      </trkpt>
      <trkpt lat="42.878361" lon="-8.663001">
        <ele>120.026</ele>
        <time>2019-06-22T09:21:51Z</time>
      </trkpt>
      <trkpt lat="42.878137" lon="-8.662904">
        <ele>119.508</ele>
        <time>2019-06-22T09:21:52Z</time>
      </trkpt>
      <trkpt lat="42.877917" lon="-8.662786">
        <ele>119.550</ele>
        <time>2019-06-22T09:21:53Z</time>
      </trkpt>
      <trkpt lat="42.877685" lon="-8.662667">
        <ele>120.244</ele>
        <time>2019-06-22T09:21:54Z</time>
      </trkpt>
      <trkpt lat="42.877459" lon="-8.662567">
        <ele>120.876</ele>
        <time>2019-06-22T09:21:55Z</time>
      </trkpt>
      <trkpt lat="42.877229" lon="-8.662455">
        <ele>121.538</ele>
        <time>2019-06-22T09:21:56Z</time>
      </trkpt>
      <trkpt lat="42.877010" lon="-8.662343">
        <ele>121.816</ele>
        <time>2019-06-22T09:21:57Z</time>
      </trkpt>
      <trkpt lat="42.876797" lon="-8.662217">
        <ele>122.075</ele>
        <time>2019-06-22T09:21:58Z</time>
      </trkpt>
      <trkpt lat="42.876587" lon="-8.662091">
        <ele>122.220</ele>
        <time>2019-06-22T09:21:59Z</time>
      </trkpt>
      <trkpt lat="42.876402" lon="-8.661910">
        <ele>122.573</ele>
        <time>2019-06-22T09:22:00Z</time>
      </trkpt>
      <trkpt lat="42.876218" lon="-8.661718">
        <ele>123.346</ele>
        <time>2019-06-22T09:22:01Z</time>
      </trkpt>
      <trkpt lat="42.876048" lon="-8.661504">
        <ele>124.388</ele>
        <time>2019-06-22T09:22:02Z</time>
      </trkpt>
      <trkpt lat="42.875886" lon="-8.661268">
        <ele>124.516</ele>
        <time>2019-06-22T09:22:03Z</time>
      </trkpt>
      <trkpt lat="42.875736" lon="-8.661015">
        <ele>124.508</ele>
        <time>2019-06-22T09:22:04Z</time>
      </trkpt>
      <trkpt lat="42.875592" lon="-8.660759">
        <ele>123.827</ele>
        <time>2019-06-22T09:22:05Z</time>
      </trkpt>
      <trkpt lat="42.875455" lon="-8.660494">
        <ele>122.821</ele>
        <time>2019-06-22T09:22:06Z</time>
      </trkpt>
      <trkpt lat="42.875318" lon="-8.660240">
        <ele>120.633</ele>
        <time>2019-06-22T09:22:07Z</time>
      </trkpt>
      <trkpt lat="42.875175" lon="-8.659987">
        <ele>118.545</ele>
        <time>2019-06-22T09:22:08Z</time>
      </trkpt>
      <trkpt lat="42.874971" lon="-8.659781">
        <ele>115.693</ele>
        <time>2019-06-22T09:22:09Z</time>
      </trkpt>
      <trkpt lat="42.874780" lon="-8.659583">
        <ele>113.012</ele>
        <time>2019-06-22T09:22:10Z</time>
      </trkpt>
      <trkpt lat="42.874575" lon="-8.659407">
        <ele>110.357</ele>
        <time>2019-06-22T09:22:11Z</time>
      </trkpt>
      <trkpt lat="42.874384" lon="-8.659216">
        <ele>108.420</ele>
        <time>2019-06-22T09:22:12Z</time>
      </trkpt>
      <trkpt lat="42.874116" lon="-8.659189">
        <ele>107.678</ele>
        <time>2019-06-22T09:22:13Z</time>
      </trkpt>
      <trkpt lat="42.873871" lon="-8.659108">
        <ele>106.533</ele>
        <time>2019-06-22T09:22:14Z</time>
      </trkpt>
      <trkpt lat="42.873632" lon="-8.659041">
        <ele>106.526</ele>
        <time>2019-06-22T09:22:15Z</time>
      </trkpt>
      <trkpt lat="42.873460" lon="-8.659086">
        <ele>105.708</ele>
        <time>2019-06-22T09:22:16Z</time>
      </trkpt>
      <trkpt lat="42.873211" lon="-8.659055">
        <ele>104.990</ele>
        <time>2019-06-22T09:22:17Z</time>
      </trkpt>
      <trkpt lat="42.872980" lon="-8.659031">
        <ele>104.444</ele>
        <time>2019-06-22T09:22:18Z</time>
      </trkpt>
      <trkpt lat="42.872757" lon="-8.659014">
        <ele>103.446</ele>
        <time>2019-06-22T09:22:19Z</time>
      </trkpt>
      <trkpt lat="42.872524" lon="-8.658991">
        <ele>103.128</ele>
        <time>2019-06-22T09:22:20Z</time>
      </trkpt>
      <trkpt lat="42.872293" lon="-8.658983">
        <ele>102.566</ele>
        <time>2019-06-22T09:22:21Z</time>
      </trkpt>
      <trkpt lat="42.872071" lon="-8.658960">
        <ele>101.625</ele>
        <time>2019-06-22T09:22:22Z</time>
      </trkpt>
      <trkpt lat="42.871858" lon="-8.658942">
        <ele>100.840</ele>
        <time>2019-06-22T09:22:23Z</time>
      </trkpt>
      <trkpt lat="42.871658" lon="-8.658897">
        <ele>99.823</ele>
        <time>2019-06-22T09:22:24Z</time>
      </trkpt>
      <trkpt lat="42.871458" lon="-8.658854">
        <ele>98.359</ele>
        <time>2019-06-22T09:22:25Z</time>
      </trkpt>
      <trkpt lat="42.871260" lon="-8.658813">
        <ele>96.503</ele>
        <time>2019-06-22T09:22:26Z</time>
      </trkpt>
      <trkpt lat="42.871071" lon="-8.658777">
        <ele>95.423</ele>
        <time>2019-06-22T09:22:27Z</time>
      </trkpt>
      <trkpt lat="42.870909" lon="-8.658732">
        <ele>94.108</ele>
        <time>2019-06-22T09:22:28Z</time>
      </trkpt>
      <trkpt lat="42.870749" lon="-8.658689">
        <ele>93.198</ele>
        <time>2019-06-22T09:22:29Z</time>
      </trkpt>
      <trkpt lat="42.870604" lon="-8.658660">
        <ele>92.742</ele>
        <time>2019-06-22T09:22:30Z</time>
      </trkpt>
      <trkpt lat="42.870464" lon="-8.658625">
        <ele>92.694</ele>
        <time>2019-06-22T09:22:31Z</time>
      </trkpt>
      <trkpt lat="42.870334" lon="-8.658588">
        <ele>92.626</ele>
        <time>2019-06-22T09:22:32Z</time>
      </trkpt>
      <trkpt lat="42.870226" lon="-8.658554">
        <ele>92.664</ele>
        <time>2019-06-22T09:22:33Z</time>
      </trkpt>
      <trkpt lat="42.870121" lon="-8.658535">
        <ele>92.363</ele>
        <time>2019-06-22T09:22:34Z</time>
      </trkpt>
      <trkpt lat="42.870040" lon="-8.658521">
        <ele>91.858</ele>
        <time>2019-06-22T09:22:35Z</time>
      </trkpt>
      <trkpt lat="42.869945" lon="-8.658525">
        <ele>91.121</ele>
        <time>2019-06-22T09:22:36Z</time>
      </trkpt>
      <trkpt lat="42.869851" lon="-8.658563">
        <ele>90.396</ele>
        <time>2019-06-22T09:22:37Z</time>
      </trkpt>
      <trkpt lat="42.869780" lon="-8.658601">
        <ele>89.531</ele>
        <time>2019-06-22T09:22:38Z</time>
      </trkpt>
      <trkpt lat="42.869710" lon="-8.658651">
        <ele>89.124</ele>
        <time>2019-06-22T09:22:39Z</time>
      </trkpt>
      <trkpt lat="42.869658" lon="-8.658725">
        <ele>88.708</ele>
        <time>2019-06-22T09:22:40Z</time>
      </trkpt>
      <trkpt lat="42.869586" lon="-8.658812">
        <ele>88.292</ele>
        <time>2019-06-22T09:22:41Z</time>
      </trkpt>
      <trkpt lat="42.869505" lon="-8.658878">
        <ele>88.036</ele>
        <time>2019-06-22T09:22:42Z</time>
      </trkpt>
      <trkpt lat="42.869419" lon="-8.658929">
        <ele>88.068</ele>
        <time>2019-06-22T09:22:43Z</time>
      </trkpt>
      <trkpt lat="42.869314" lon="-8.658946">
        <ele>88.060</ele>
        <time>2019-06-22T09:22:44Z</time>
      </trkpt>
      <trkpt lat="42.869230" lon="-8.658958">
        <ele>88.168</ele>
        <time>2019-06-22T09:22:45Z</time>
      </trkpt>
      <trkpt lat="42.869136" lon="-8.658943">
        <ele>88.197</ele>
        <time>2019-06-22T09:22:46Z</time>
      </trkpt>
      <trkpt lat="42.869062" lon="-8.658888">
        <ele>88.042</ele>
        <time>2019-06-22T09:22:47Z</time>
      </trkpt>
      <trkpt lat="42.868984" lon="-8.658813">
        <ele>87.685</ele>
        <time>2019-06-22T09:22:48Z</time>
      </trkpt>
      <trkpt lat="42.868899" lon="-8.658708">
        <ele>87.142</ele>
        <time>2019-06-22T09:22:49Z</time>
      </trkpt>
      <trkpt lat="42.868846" lon="-8.658580">
        <ele>86.622</ele>
        <time>2019-06-22T09:22:50Z</time>
      </trkpt>
      <trkpt lat="42.868789" lon="-8.658440">
        <ele>86.114</ele>
        <time>2019-06-22T09:22:51Z</time>
      </trkpt>
      <trkpt lat="42.868728" lon="-8.658306">
        <ele>85.708</ele>
        <time>2019-06-22T09:22:52Z</time>
      </trkpt>
      <trkpt lat="42.868659" lon="-8.658187">
        <ele>85.057</ele>
        <time>2019-06-22T09:22:53Z</time>
      </trkpt>
      <trkpt lat="42.868577" lon="-8.658065">
        <ele>84.371</ele>
        <time>2019-06-22T09:22:54Z</time>
      </trkpt>
      <trkpt lat="42.868487" lon="-8.657949">
        <ele>83.723</ele>
        <time>2019-06-22T09:22:55Z</time>
      </trkpt>
      <trkpt lat="42.868378" lon="-8.657827">
        <ele>82.955</ele>
        <time>2019-06-22T09:22:56Z</time>
      </trkpt>
      <trkpt lat="42.868257" lon="-8.657703">
        <ele>81.763</ele>
        <time>2019-06-22T09:22:57Z</time>
      </trkpt>
      <trkpt lat="42.868126" lon="-8.657590">
        <ele>80.512</ele>
        <time>2019-06-22T09:22:58Z</time>
      </trkpt>
      <trkpt lat="42.867997" lon="-8.657481">
        <ele>79.437</ele>
        <time>2019-06-22T09:22:59Z</time>
      </trkpt>
      <trkpt lat="42.867863" lon="-8.657376">
        <ele>78.080</ele>
        <time>2019-06-22T09:23:00Z</time>
      </trkpt>
      <trkpt lat="42.867734" lon="-8.657284">
        <ele>76.767</ele>
        <time>2019-06-22T09:23:01Z</time>
      </trkpt>
      <trkpt lat="42.867601" lon="-8.657185">
        <ele>75.781</ele>
        <time>2019-06-22T09:23:02Z</time>
      </trkpt>
      <trkpt lat="42.867462" lon="-8.657087">
        <ele>74.819</ele>
        <time>2019-06-22T09:23:03Z</time>
      </trkpt>
      <trkpt lat="42.867324" lon="-8.656994">
        <ele>73.808</ele>
        <time>2019-06-22T09:23:04Z</time>
      </trkpt>
      <trkpt lat="42.867191" lon="-8.656904">
        <ele>73.169</ele>
        <time>2019-06-22T09:23:05Z</time>
      </trkpt>
      <trkpt lat="42.867065" lon="-8.656812">
        <ele>72.373</ele>
        <time>2019-06-22T09:23:06Z</time>
      </trkpt>
      <trkpt lat="42.866945" lon="-8.656718">
        <ele>71.555</ele>
        <time>2019-06-22T09:23:07Z</time>
      </trkpt>
      <trkpt lat="42.866818" lon="-8.656630">
        <ele>70.577</ele>
        <time>2019-06-22T09:23:08Z</time>
      </trkpt>
      <trkpt lat="42.866705" lon="-8.656556">
        <ele>69.895</ele>
        <time>2019-06-22T09:23:09Z</time>
      </trkpt>
      <trkpt lat="42.866582" lon="-8.656466">
        <ele>69.094</ele>
        <time>2019-06-22T09:23:10Z</time>
      </trkpt>
      <trkpt lat="42.866464" lon="-8.656370">
        <ele>68.359</ele>
        <time>2019-06-22T09:23:11Z</time>
      </trkpt>
      <trkpt lat="42.866349" lon="-8.656261">
        <ele>68.192</ele>
        <time>2019-06-22T09:23:12Z</time>
      </trkpt>
      <trkpt lat="42.866233" lon="-8.656139">
        <ele>67.814</ele>
        <time>2019-06-22T09:23:13Z</time>
      </trkpt>
      <trkpt lat="42.866120" lon="-8.656015">
        <ele>67.454</ele>
        <time>2019-06-22T09:23:14Z</time>
      </trkpt>
      <trkpt lat="42.866010" lon="-8.655897">
        <ele>66.909</ele>
        <time>2019-06-22T09:23:15Z</time>
      </trkpt>
      <trkpt lat="42.865911" lon="-8.655759">
        <ele>66.408</ele>
        <time>2019-06-22T09:23:16Z</time>
      </trkpt>
      <trkpt lat="42.865815" lon="-8.655619">
        <ele>66.414</ele>
        <time>2019-06-22T09:23:17Z</time>
      </trkpt>
      <trkpt lat="42.865730" lon="-8.655474">
        <ele>65.628</ele>
        <time>2019-06-22T09:23:18Z</time>
      </trkpt>
      <trkpt lat="42.865649" lon="-8.655319">
        <ele>64.660</ele>
        <time>2019-06-22T09:23:19Z</time>
      </trkpt>
      <trkpt lat="42.865563" lon="-8.655186">
        <ele>63.472</ele>
        <time>2019-06-22T09:23:20Z</time>
      </trkpt>
      <trkpt lat="42.865473" lon="-8.655047">
        <ele>62.130</ele>
        <time>2019-06-22T09:23:21Z</time>
      </trkpt>
      <trkpt lat="42.865325" lon="-8.654960">
        <ele>60.639</ele>
        <time>2019-06-22T09:23:22Z</time>
      </trkpt>
      <trkpt lat="42.865194" lon="-8.654852">
        <ele>59.124</ele>
        <time>2019-06-22T09:23:23Z</time>
      </trkpt>
      <trkpt lat="42.865050" lon="-8.654779">
        <ele>57.627</ele>
        <time>2019-06-22T09:23:24Z</time>
      </trkpt>
      <trkpt lat="42.864916" lon="-8.654705">
        <ele>56.255</ele>
        <time>2019-06-22T09:23:25Z</time>
      </trkpt>
      <trkpt lat="42.864784" lon="-8.654616">
        <ele>55.307</ele>
        <time>2019-06-22T09:23:26Z</time>
      </trkpt>
      <trkpt lat="42.864649" lon="-8.654548">
        <ele>54.317</ele>
        <time>2019-06-22T09:23:27Z</time>
      </trkpt>
      <trkpt lat="42.864524" lon="-8.654477">
        <ele>53.508</ele>
        <time>2019-06-22T09:23:28Z</time>
      </trkpt>
      <trkpt lat="42.864397" lon="-8.654404">
        <ele>53.388</ele>
        <time>2019-06-22T09:23:29Z</time>
      </trkpt>
      <trkpt lat="42.864263" lon="-8.654343">
        <ele>53.092</ele>
        <time>2019-06-22T09:23:30Z</time>
      </trkpt>
      <trkpt lat="42.864133" lon="-8.654276">
        <ele>52.554</ele>
        <time>2019-06-22T09:23:31Z</time>
      </trkpt>
      <trkpt lat="42.863999" lon="-8.654210">
        <ele>52.386</ele>
        <time>2019-06-22T09:23:32Z</time>
      </trkpt>
      <trkpt lat="42.863865" lon="-8.654142">
        <ele>51.864</ele>
        <time>2019-06-22T09:23:33Z</time>
      </trkpt>
      <trkpt lat="42.863731" lon="-8.654066">
        <ele>51.143</ele>
        <time>2019-06-22T09:23:34Z</time>
      </trkpt>
      <trkpt lat="42.863598" lon="-8.653986">
        <ele>50.788</ele>
        <time>2019-06-22T09:23:35Z</time>
      </trkpt>
      <trkpt lat="42.863476" lon="-8.653882">
        <ele>50.531</ele>
        <time>2019-06-22T09:23:36Z</time>
      </trkpt>
      <trkpt lat="42.863359" lon="-8.653763">
        <ele>50.224</ele>
        <time>2019-06-22T09:23:37Z</time>
      </trkpt>
      <trkpt lat="42.863247" lon="-8.653640">
        <ele>49.804</ele>
        <time>2019-06-22T09:23:38Z</time>
      </trkpt>
      <trkpt lat="42.863131" lon="-8.653515">
        <ele>49.314</ele>
        <time>2019-06-22T09:23:39Z</time>
      </trkpt>
      <trkpt lat="42.863016" lon="-8.653384">
        <ele>48.808</ele>
        <time>2019-06-22T09:23:40Z</time>
      </trkpt>
      <trkpt lat="42.862908" lon="-8.653262">
        <ele>47.935</ele>
        <time>2019-06-22T09:23:41Z</time>
      </trkpt>
      <trkpt lat="42.862800" lon="-8.653140">
        <ele>46.869</ele>
        <time>2019-06-22T09:23:42Z</time>
      </trkpt>
      <trkpt lat="42.862695" lon="-8.653016">
        <ele>45.821</ele>
        <time>2019-06-22T09:23:43Z</time>
      </trkpt>
      <trkpt lat="42.862597" lon="-8.652897">
        <ele>44.973</ele>
        <time>2019-06-22T09:23:44Z</time>
      </trkpt>
      <trkpt lat="42.862486" lon="-8.652778">
        <ele>43.591</ele>
        <time>2019-06-22T09:23:45Z</time>
      </trkpt>
      <trkpt lat="42.862380" lon="-8.652667">
        <ele>42.580</ele>
        <time>2019-06-22T09:23:46Z</time>
      </trkpt>
      <trkpt lat="42.862278" lon="-8.652549">
        <ele>41.565</ele>
        <time>2019-06-22T09:23:47Z</time>
      </trkpt>
      <trkpt lat="42.862175" lon="-8.652438">
        <ele>40.448</ele>
        <time>2019-06-22T09:23:48Z</time>
      </trkpt>
      <trkpt lat="42.862083" lon="-8.652327">
        <ele>39.721</ele>
        <time>2019-06-22T09:23:49Z</time>
      </trkpt>
      <trkpt lat="42.861993" lon="-8.652217">
        <ele>39.141</ele>
        <time>2019-06-22T09:23:50Z</time>
      </trkpt>
      <trkpt lat="42.861898" lon="-8.652130">
        <ele>38.305</ele>
        <time>2019-06-22T09:23:51Z</time>
      </trkpt>
      <trkpt lat="42.861813" lon="-8.652021">
        <ele>37.508</ele>
        <time>2019-06-22T09:23:52Z</time>
      </trkpt>
      <trkpt lat="42.861712" lon="-8.651924">
        <ele>37.095</ele>
        <time>2019-06-22T09:23:53Z</time>
      </trkpt>
      <trkpt lat="42.861621" lon="-8.651816">
        <ele>36.379</ele>
        <time>2019-06-22T09:23:54Z</time>
      </trkpt>
      <trkpt lat="42.861521" lon="-8.651721">
        <ele>35.631</ele>
        <time>2019-06-22T09:23:55Z</time>
      </trkpt>
      <trkpt lat="42.861434" lon="-8.651611">
        <ele>34.973</ele>
        <time>2019-06-22T09:23:56Z</time>
      </trkpt>
      <trkpt lat="42.861339" lon="-8.651502">
        <ele>34.151</ele>
        <time>2019-06-22T09:23:57Z</time>
      </trkpt>
      <trkpt lat="42.861240" lon="-8.651404">
        <ele>33.240</ele>
        <time>2019-06-22T09:23:58Z</time>
      </trkpt>
      <trkpt lat="42.861156" lon="-8.651299">
        <ele>32.485</ele>
        <time>2019-06-22T09:23:59Z</time>
      </trkpt>
      <trkpt lat="42.861060" lon="-8.651200">
        <ele>31.918</ele>
        <time>2019-06-22T09:24:00Z</time>
      </trkpt>
      <trkpt lat="42.860980" lon="-8.651105">
        <ele>31.295</ele>
        <time>2019-06-22T09:24:01Z</time>
      </trkpt>
      <trkpt lat="42.860897" lon="-8.651013">
        <ele>30.849</ele>
        <time>2019-06-22T09:24:02Z</time>
      </trkpt>
      <trkpt lat="42.860819" lon="-8.650926">
        <ele>30.323</ele>
        <time>2019-06-22T09:24:03Z</time>
      </trkpt>
      <trkpt lat="42.860744" lon="-8.650827">
        <ele>29.708</ele>
        <time>2019-06-22T09:24:04Z</time>
      </trkpt>
      <trkpt lat="42.860680" lon="-8.650735">
        <ele>29.322</ele>
        <time>2019-06-22T09:24:05Z</time>
      </trkpt>
      <trkpt lat="42.860607" lon="-8.650672">
        <ele>29.036</ele>
        <time>2019-06-22T09:24:06Z</time>
      </trkpt>
      <trkpt lat="42.860551" lon="-8.650575">
        <ele>28.728</ele>
        <time>2019-06-22T09:24:07Z</time>
      </trkpt>
      <trkpt lat="42.860514" lon="-8.650506">
        <ele>28.250</ele>
        <time>2019-06-22T09:24:08Z</time>
      </trkpt>
      <trkpt lat="42.860457" lon="-8.650446">
        <ele>28.048</ele>
        <time>2019-06-22T09:24:09Z</time>
      </trkpt>
      <trkpt lat="42.860410" lon="-8.650403">
        <ele>27.747</ele>
        <time>2019-06-22T09:24:10Z</time>
      </trkpt>
      <trkpt lat="42.860363" lon="-8.650367">
        <ele>27.422</ele>
        <time>2019-06-22T09:24:11Z</time>
      </trkpt>
      <trkpt lat="42.860260" lon="-8.650369">
        <ele>27.245</ele>
        <time>2019-06-22T09:24:13Z</time>
      </trkpt>
      <trkpt lat="42.860185" lon="-8.650407">
        <ele>27.289</ele>
        <time>2019-06-22T09:24:15Z</time>
      </trkpt>
      <trkpt lat="42.860136" lon="-8.650440">
        <ele>27.106</ele>
        <time>2019-06-22T09:24:18Z</time>
      </trkpt>
      <trkpt lat="42.860095" lon="-8.650559">
        <ele>27.126</ele>
        <time>2019-06-22T09:24:23Z</time>
      </trkpt>
      <trkpt lat="42.860075" lon="-8.650617">
        <ele>27.008</ele>
        <time>2019-06-22T09:24:24Z</time>
      </trkpt>
      <trkpt lat="42.860014" lon="-8.650769">
        <ele>26.991</ele>
        <time>2019-06-22T09:24:25Z</time>
      </trkpt>
      <trkpt lat="42.859959" lon="-8.650876">
        <ele>26.835</ele>
        <time>2019-06-22T09:24:26Z</time>
      </trkpt>
      <trkpt lat="42.859896" lon="-8.651000">
        <ele>26.847</ele>
        <time>2019-06-22T09:24:27Z</time>
      </trkpt>
      <trkpt lat="42.859864" lon="-8.651117">
        <ele>26.879</ele>
        <time>2019-06-22T09:24:28Z</time>
      </trkpt>
      <trkpt lat="42.859767" lon="-8.651232">
        <ele>26.837</ele>
        <time>2019-06-22T09:24:29Z</time>
      </trkpt>
      <trkpt lat="42.859716" lon="-8.651333">
        <ele>26.956</ele>
        <time>2019-06-22T09:24:30Z</time>
      </trkpt>
      <trkpt lat="42.859671" lon="-8.651404">
        <ele>27.021</ele>
        <time>2019-06-22T09:24:31Z</time>
      </trkpt>
      <trkpt lat="42.859611" lon="-8.651327">
        <ele>27.274</ele>
        <time>2019-06-22T09:24:33Z</time>
      </trkpt>
      <trkpt lat="42.859558" lon="-8.651293">
        <ele>27.392</ele>
        <time>2019-06-22T09:24:34Z</time>
      </trkpt>
      <trkpt lat="42.859500" lon="-8.651236">
        <ele>27.373</ele>
        <time>2019-06-22T09:24:35Z</time>
      </trkpt>
      <trkpt lat="42.859386" lon="-8.651159">
        <ele>27.320</ele>
        <time>2019-06-22T09:24:36Z</time>
      </trkpt>
      <trkpt lat="42.859292" lon="-8.651051">
        <ele>27.208</ele>
        <time>2019-06-22T09:24:37Z</time>
      </trkpt>
      <trkpt lat="42.859193" lon="-8.650945">
        <ele>27.152</ele>
        <time>2019-06-22T09:24:38Z</time>
      </trkpt>
      <trkpt lat="42.859081" lon="-8.650823">
        <ele>26.866</ele>
        <time>2019-06-22T09:24:39Z</time>
      </trkpt>
      <trkpt lat="42.858956" lon="-8.650711">
        <ele>26.638</ele>
        <time>2019-06-22T09:24:40Z</time>
      </trkpt>
      <trkpt lat="42.858836" lon="-8.650588">
        <ele>26.320</ele>
        <time>2019-06-22T09:24:41Z</time>
      </trkpt>
      <trkpt lat="42.858711" lon="-8.650467">
        <ele>26.078</ele>
        <time>2019-06-22T09:24:42Z</time>
      </trkpt>
      <trkpt lat="42.858590" lon="-8.650349">
        <ele>25.957</ele>
        <time>2019-06-22T09:24:43Z</time>
      </trkpt>
      <trkpt lat="42.858466" lon="-8.650232">
        <ele>25.972</ele>
        <time>2019-06-22T09:24:44Z</time>
      </trkpt>
      <trkpt lat="42.858344" lon="-8.650121">
        <ele>25.995</ele>
        <time>2019-06-22T09:24:45Z</time>
      </trkpt>
      <trkpt lat="42.858218" lon="-8.650019">
        <ele>26.095</ele>
        <time>2019-06-22T09:24:46Z</time>
      </trkpt>
      <trkpt lat="42.858091" lon="-8.649906">
        <ele>26.249</ele>
        <time>2019-06-22T09:24:47Z</time>
      </trkpt>
      <trkpt lat="42.857971" lon="-8.649793">
        <ele>26.223</ele>
        <time>2019-06-22T09:24:48Z</time>
      </trkpt>
      <trkpt lat="42.857855" lon="-8.649687">
        <ele>25.808</ele>
        <time>2019-06-22T09:24:49Z</time>
      </trkpt>
      <trkpt lat="42.857738" lon="-8.649578">
        <ele>25.692</ele>
        <time>2019-06-22T09:24:50Z</time>
      </trkpt>
      <trkpt lat="42.857625" lon="-8.649470">
        <ele>25.226</ele>
        <time>2019-06-22T09:24:51Z</time>
      </trkpt>
      <trkpt lat="42.857510" lon="-8.649360">
        <ele>24.958</ele>
        <time>2019-06-22T09:24:52Z</time>
      </trkpt>
      <trkpt lat="42.857400" lon="-8.649243">
        <ele>24.990</ele>
        <time>2019-06-22T09:24:53Z</time>
      </trkpt>
      <trkpt lat="42.857289" lon="-8.649139">
        <ele>24.768</ele>
        <time>2019-06-22T09:24:54Z</time>
      </trkpt>
      <trkpt lat="42.857184" lon="-8.649037">
        <ele>24.757</ele>
        <time>2019-06-22T09:24:55Z</time>
      </trkpt>
      <trkpt lat="42.857074" lon="-8.648944">
        <ele>24.762</ele>
        <time>2019-06-22T09:24:56Z</time>
      </trkpt>
      <trkpt lat="42.856969" lon="-8.648836">
        <ele>24.725</ele>
        <time>2019-06-22T09:24:57Z</time>
      </trkpt>
      <trkpt lat="42.856854" lon="-8.648718">
        <ele>24.937</ele>
        <time>2019-06-22T09:24:58Z</time>
      </trkpt>
      <trkpt lat="42.856730" lon="-8.648605">
        <ele>25.049</ele>
        <time>2019-06-22T09:24:59Z</time>
      </trkpt>
      <trkpt lat="42.856606" lon="-8.648484">
        <ele>25.513</ele>
        <time>2019-06-22T09:25:00Z</time>
      </trkpt>
      <trkpt lat="42.856468" lon="-8.648375">
        <ele>25.908</ele>
        <time>2019-06-22T09:25:01Z</time>
      </trkpt>
      <trkpt lat="42.856345" lon="-8.648252">
        <ele>26.196</ele>
        <time>2019-06-22T09:25:02Z</time>
      </trkpt>
      <trkpt lat="42.856198" lon="-8.648130">
        <ele>26.240</ele>
        <time>2019-06-22T09:25:03Z</time>
      </trkpt>
      <trkpt lat="42.856066" lon="-8.648010">
        <ele>26.492</ele>
        <time>2019-06-22T09:25:04Z</time>
      </trkpt>
      <trkpt lat="42.855950" lon="-8.647867">
        <ele>26.644</ele>
        <time>2019-06-22T09:25:05Z</time>
      </trkpt>
      <trkpt lat="42.855851" lon="-8.647706">
        <ele>26.722</ele>
        <time>2019-06-22T09:25:06Z</time>
      </trkpt>
      <trkpt lat="42.855760" lon="-8.647532">
        <ele>26.711</ele>
        <time>2019-06-22T09:25:07Z</time>
      </trkpt>
      <trkpt lat="42.855683" lon="-8.647351">
        <ele>26.646</ele>
        <time>2019-06-22T09:25:08Z</time>
      </trkpt>
      <trkpt lat="42.855617" lon="-8.647165">
        <ele>26.429</ele>
        <time>2019-06-22T09:25:09Z</time>
      </trkpt>
      <trkpt lat="42.855557" lon="-8.646979">
        <ele>26.468</ele>
        <time>2019-06-22T09:25:10Z</time>
      </trkpt>
      <trkpt lat="42.855496" lon="-8.646786">
        <ele>25.842</ele>
        <time>2019-06-22T09:25:11Z</time>
      </trkpt>
      <trkpt lat="42.855429" lon="-8.646608">
        <ele>25.726</ele>
        <time>2019-06-22T09:25:12Z</time>
      </trkpt>
      <trkpt lat="42.855351" lon="-8.646410">
        <ele>25.308</ele>
        <time>2019-06-22T09:25:13Z</time>
      </trkpt>
      <trkpt lat="42.855244" lon="-8.646226">
        <ele>24.649</ele>
        <time>2019-06-22T09:25:14Z</time>
      </trkpt>
      <trkpt lat="42.855122" lon="-8.646057">
        <ele>24.053</ele>
        <time>2019-06-22T09:25:15Z</time>
      </trkpt>
      <trkpt lat="42.854994" lon="-8.645888">
        <ele>23.915</ele>
        <time>2019-06-22T09:25:16Z</time>
      </trkpt>
      <trkpt lat="42.854841" lon="-8.645740">
        <ele>23.737</ele>
        <time>2019-06-22T09:25:17Z</time>
      </trkpt>
      <trkpt lat="42.854683" lon="-8.645599">
        <ele>23.785</ele>
        <time>2019-06-22T09:25:18Z</time>
      </trkpt>
      <trkpt lat="42.854498" lon="-8.645503">
        <ele>23.634</ele>
        <time>2019-06-22T09:25:19Z</time>
      </trkpt>
      <trkpt lat="42.854302" lon="-8.645399">
        <ele>23.579</ele>
        <time>2019-06-22T09:25:20Z</time>
      </trkpt>
      <trkpt lat="42.854117" lon="-8.645392">
        <ele>23.032</ele>
        <time>2019-06-22T09:25:21Z</time>
      </trkpt>
      <trkpt lat="42.853901" lon="-8.645339">
        <ele>22.949</ele>
        <time>2019-06-22T09:25:22Z</time>
      </trkpt>
      <trkpt lat="42.853688" lon="-8.645314">
        <ele>22.602</ele>
        <time>2019-06-22T09:25:23Z</time>
      </trkpt>
      <trkpt lat="42.853468" lon="-8.645306">
        <ele>22.122</ele>
        <time>2019-06-22T09:25:24Z</time>
      </trkpt>
      <trkpt lat="42.853253" lon="-8.645291">
        <ele>22.108</ele>
        <time>2019-06-22T09:25:25Z</time>
      </trkpt>
      <trkpt lat="42.853031" lon="-8.645284">
        <ele>22.387</ele>
        <time>2019-06-22T09:25:26Z</time>
      </trkpt>
      <trkpt lat="42.852805" lon="-8.645269">
        <ele>22.411</ele>
        <time>2019-06-22T09:25:27Z</time>
      </trkpt>
      <trkpt lat="42.852568" lon="-8.645259">
        <ele>22.693</ele>
        <time>2019-06-22T09:25:28Z</time>
      </trkpt>
      <trkpt lat="42.852340" lon="-8.645250">
        <ele>23.175</ele>
        <time>2019-06-22T09:25:29Z</time>
      </trkpt>
      <trkpt lat="42.852105" lon="-8.645237">
        <ele>23.553</ele>
        <time>2019-06-22T09:25:30Z</time>
      </trkpt>
      <trkpt lat="42.851864" lon="-8.645224">
        <ele>23.532</ele>
        <time>2019-06-22T09:25:31Z</time>
      </trkpt>
      <trkpt lat="42.851619" lon="-8.645202">
        <ele>23.537</ele>
        <time>2019-06-22T09:25:32Z</time>
      </trkpt>
      <trkpt lat="42.851373" lon="-8.645188">
        <ele>23.570</ele>
        <time>2019-06-22T09:25:33Z</time>
      </trkpt>
      <trkpt lat="42.851130" lon="-8.645178">
        <ele>23.269</ele>
        <time>2019-06-22T09:25:34Z</time>
      </trkpt>
      <trkpt lat="42.850884" lon="-8.645167">
        <ele>23.004</ele>
        <time>2019-06-22T09:25:35Z</time>
      </trkpt>
      <trkpt lat="42.850626" lon="-8.645154">
        <ele>22.924</ele>
        <time>2019-06-22T09:25:36Z</time>
      </trkpt>
      <trkpt lat="42.850380" lon="-8.645128">
        <ele>22.308</ele>
        <time>2019-06-22T09:25:37Z</time>
      </trkpt>
      <trkpt lat="42.850129" lon="-8.645096">
        <ele>21.569</ele>
        <time>2019-06-22T09:25:38Z</time>
      </trkpt>
      <trkpt lat="42.849878" lon="-8.645039">
        <ele>21.233</ele>
        <time>2019-06-22T09:25:39Z</time>
      </trkpt>
      <trkpt lat="42.849620" lon="-8.644966">
        <ele>21.265</ele>
        <time>2019-06-22T09:25:40Z</time>
      </trkpt>
      <trkpt lat="42.849372" lon="-8.644866">
        <ele>20.547</ele>
        <time>2019-06-22T09:25:41Z</time>
      </trkpt>
      <trkpt lat="42.849130" lon="-8.644763">
        <ele>20.445</ele>
        <time>2019-06-22T09:25:42Z</time>
      </trkpt>
      <trkpt lat="42.848896" lon="-8.644664">
        <ele>19.744</ele>
        <time>2019-06-22T09:25:43Z</time>
      </trkpt>
      <trkpt lat="42.848663" lon="-8.644562">
        <ele>17.519</ele>
        <time>2019-06-22T09:25:44Z</time>
      </trkpt>
      <trkpt lat="42.848444" lon="-8.644478">
        <ele>15.422</ele>
        <time>2019-06-22T09:25:45Z</time>
      </trkpt>
      <trkpt lat="42.848223" lon="-8.644415">
        <ele>13.541</ele>
        <time>2019-06-22T09:25:46Z</time>
      </trkpt>
      <trkpt lat="42.847997" lon="-8.644367">
        <ele>11.881</ele>
        <time>2019-06-22T09:25:47Z</time>
      </trkpt>
      <trkpt lat="42.847761" lon="-8.644318">
        <ele>11.809</ele>
        <time>2019-06-22T09:25:48Z</time>
      </trkpt>
      <trkpt lat="42.847540" lon="-8.644265">
        <ele>12.508</ele>
        <time>2019-06-22T09:25:49Z</time>
      </trkpt>
      <trkpt lat="42.847315" lon="-8.644254">
        <ele>13.867</ele>
        <time>2019-06-22T09:25:50Z</time>
      </trkpt>
      <trkpt lat="42.847097" lon="-8.644264">
        <ele>14.881</ele>
        <time>2019-06-22T09:25:51Z</time>
      </trkpt>
      <trkpt lat="42.846884" lon="-8.644279">
        <ele>15.283</ele>
        <time>2019-06-22T09:25:52Z</time>
      </trkpt>
      <trkpt lat="42.846686" lon="-8.644298">
        <ele>16.025</ele>
        <time>2019-06-22T09:25:53Z</time>
      </trkpt>
      <trkpt lat="42.846500" lon="-8.644314">
        <ele>16.833</ele>
        <time>2019-06-22T09:25:54Z</time>
      </trkpt>
      <trkpt lat="42.846319" lon="-8.644322">
        <ele>17.292</ele>
        <time>2019-06-22T09:25:55Z</time>
      </trkpt>
      <trkpt lat="42.846152" lon="-8.644315">
        <ele>18.327</ele>
        <time>2019-06-22T09:25:56Z</time>
      </trkpt>
      <trkpt lat="42.846001" lon="-8.644274">
        <ele>20.220</ele>
        <time>2019-06-22T09:25:57Z</time>
      </trkpt>
      <trkpt lat="42.845853" lon="-8.644217">
        <ele>21.155</ele>
        <time>2019-06-22T09:25:58Z</time>
      </trkpt>
      <trkpt lat="42.845711" lon="-8.644136">
        <ele>21.607</ele>
        <time>2019-06-22T09:25:59Z</time>
      </trkpt>
      <trkpt lat="42.845634" lon="-8.643982">
        <ele>22.317</ele>
        <time>2019-06-22T09:26:00Z</time>
      </trkpt>
      <trkpt lat="42.845530" lon="-8.643816">
        <ele>23.108</ele>
        <time>2019-06-22T09:26:01Z</time>
      </trkpt>
      <trkpt lat="42.845457" lon="-8.643638">
        <ele>23.318</ele>
        <time>2019-06-22T09:26:02Z</time>
      </trkpt>
      <trkpt lat="42.845368" lon="-8.643435">
        <ele>23.322</ele>
        <time>2019-06-22T09:26:03Z</time>
      </trkpt>
      <trkpt lat="42.845286" lon="-8.643225">
        <ele>23.224</ele>
        <time>2019-06-22T09:26:04Z</time>
      </trkpt>
      <trkpt lat="42.845199" lon="-8.643000">
        <ele>22.966</ele>
        <time>2019-06-22T09:26:05Z</time>
      </trkpt>
      <trkpt lat="42.845119" lon="-8.642793">
        <ele>22.894</ele>
        <time>2019-06-22T09:26:06Z</time>
      </trkpt>
      <trkpt lat="42.845032" lon="-8.642575">
        <ele>22.853</ele>
        <time>2019-06-22T09:26:07Z</time>
      </trkpt>
      <trkpt lat="42.844960" lon="-8.642382">
        <ele>23.178</ele>
        <time>2019-06-22T09:26:08Z</time>
      </trkpt>
      <trkpt lat="42.844888" lon="-8.642218">
        <ele>23.741</ele>
        <time>2019-06-22T09:26:09Z</time>
      </trkpt>
      <trkpt lat="42.844821" lon="-8.642051">
        <ele>24.414</ele>
        <time>2019-06-22T09:26:10Z</time>
      </trkpt>
      <trkpt lat="42.844752" lon="-8.641892">
        <ele>25.254</ele>
        <time>2019-06-22T09:26:11Z</time>
      </trkpt>
      <trkpt lat="42.844689" lon="-8.641759">
        <ele>25.309</ele>
        <time>2019-06-22T09:26:12Z</time>
      </trkpt>
      <trkpt lat="42.844652" lon="-8.641656">
        <ele>25.708</ele>
        <time>2019-06-22T09:26:13Z</time>
      </trkpt>
      <trkpt lat="42.844596" lon="-8.641534">
        <ele>26.464</ele>
        <time>2019-06-22T09:26:14Z</time>
      </trkpt>
      <trkpt lat="42.844545" lon="-8.641380">
        <ele>27.228</ele>
        <time>2019-06-22T09:26:15Z</time>
      </trkpt>
      <trkpt lat="42.844505" lon="-8.641229">
        <ele>28.120</ele>
        <time>2019-06-22T09:26:16Z</time>
      </trkpt>
      <trkpt lat="42.844440" lon="-8.641049">
        <ele>28.732</ele>
        <time>2019-06-22T09:26:17Z</time>
      </trkpt>
      <trkpt lat="42.844366" lon="-8.640863">
        <ele>29.150</ele>
        <time>2019-06-22T09:26:18Z</time>
      </trkpt>
      <trkpt lat="42.844258" lon="-8.640691">
        <ele>29.389</ele>
        <time>2019-06-22T09:26:19Z</time>
      </trkpt>
      <trkpt lat="42.844151" lon="-8.640523">
        <ele>29.364</ele>
        <time>2019-06-22T09:26:20Z</time>
      </trkpt>
      <trkpt lat="42.844005" lon="-8.640406">
        <ele>29.477</ele>
        <time>2019-06-22T09:26:21Z</time>
      </trkpt>
      <trkpt lat="42.843858" lon="-8.640273">
        <ele>29.616</ele>
        <time>2019-06-22T09:26:22Z</time>
      </trkpt>
      <trkpt lat="42.843691" lon="-8.640148">
        <ele>30.076</ele>
        <time>2019-06-22T09:26:23Z</time>
      </trkpt>
      <trkpt lat="42.843522" lon="-8.640024">
        <ele>30.413</ele>
        <time>2019-06-22T09:26:24Z</time>
      </trkpt>
      <trkpt lat="42.843354" lon="-8.639910">
        <ele>30.508</ele>
        <time>2019-06-22T09:26:25Z</time>
      </trkpt>
      <trkpt lat="42.843195" lon="-8.639802">
        <ele>31.454</ele>
        <time>2019-06-22T09:26:26Z</time>
      </trkpt>
      <trkpt lat="42.843033" lon="-8.639696">
        <ele>31.768</ele>
        <time>2019-06-22T09:26:27Z</time>
      </trkpt>
      <trkpt lat="42.842891" lon="-8.639601">
        <ele>32.670</ele>
        <time>2019-06-22T09:26:28Z</time>
      </trkpt>
      <trkpt lat="42.842747" lon="-8.639496">
        <ele>33.692</ele>
        <time>2019-06-22T09:26:29Z</time>
      </trkpt>
      <trkpt lat="42.842656" lon="-8.639321">
        <ele>34.860</ele>
        <time>2019-06-22T09:26:30Z</time>
      </trkpt>
      <trkpt lat="42.842556" lon="-8.639153">
        <ele>35.439</ele>
        <time>2019-06-22T09:26:31Z</time>
      </trkpt>
      <trkpt lat="42.842505" lon="-8.638966">
        <ele>36.194</ele>
        <time>2019-06-22T09:26:32Z</time>
      </trkpt>
      <trkpt lat="42.842447" lon="-8.638748">
        <ele>36.557</ele>
        <time>2019-06-22T09:26:33Z</time>
      </trkpt>
      <trkpt lat="42.842388" lon="-8.638518">
        <ele>36.632</ele>
        <time>2019-06-22T09:26:34Z</time>
      </trkpt>
      <trkpt lat="42.842357" lon="-8.638265">
        <ele>36.792</ele>
        <time>2019-06-22T09:26:35Z</time>
      </trkpt>
      <trkpt lat="42.842326" lon="-8.638007">
        <ele>36.711</ele>
        <time>2019-06-22T09:26:36Z</time>
      </trkpt>
      <trkpt lat="42.842322" lon="-8.637749">
        <ele>36.908</ele>
        <time>2019-06-22T09:26:37Z</time>
      </trkpt>
      <trkpt lat="42.842309" lon="-8.637474">
        <ele>37.136</ele>
        <time>2019-06-22T09:26:38Z</time>
      </trkpt>
      <trkpt lat="42.842322" lon="-8.637209">
        <ele>37.290</ele>
        <time>2019-06-22T09:26:39Z</time>
      </trkpt>
      <trkpt lat="42.842321" lon="-8.636945">
        <ele>37.442</ele>
        <time>2019-06-22T09:26:40Z</time>
      </trkpt>
      <trkpt lat="42.842302" lon="-8.636680">
        <ele>38.024</ele>
        <time>2019-06-22T09:26:41Z</time>
      </trkpt>
      <trkpt lat="42.842278" lon="-8.636387">
        <ele>38.572</ele>
        <time>2019-06-22T09:26:42Z</time>
      </trkpt>
      <trkpt lat="42.842240" lon="-8.636100">
        <ele>39.221</ele>
        <time>2019-06-22T09:26:43Z</time>
      </trkpt>
      <trkpt lat="42.842201" lon="-8.635805">
        <ele>40.476</ele>
        <time>2019-06-22T09:26:44Z</time>
      </trkpt>
      <trkpt lat="42.842160" lon="-8.635503">
        <ele>42.029</ele>
        <time>2019-06-22T09:26:45Z</time>
      </trkpt>
      <trkpt lat="42.842088" lon="-8.635218">
        <ele>43.175</ele>
        <time>2019-06-22T09:26:46Z</time>
      </trkpt>
      <trkpt lat="42.842055" lon="-8.634916">
        <ele>44.128</ele>
        <time>2019-06-22T09:26:47Z</time>
      </trkpt>
      <trkpt lat="42.842015" lon="-8.634607">
        <ele>45.120</ele>
        <time>2019-06-22T09:26:48Z</time>
      </trkpt>
      <trkpt lat="42.841978" lon="-8.634298">
        <ele>46.108</ele>
        <time>2019-06-22T09:26:49Z</time>
      </trkpt>
      <trkpt lat="42.841955" lon="-8.633980">
        <ele>46.570</ele>
        <time>2019-06-22T09:26:50Z</time>
      </trkpt>
      <trkpt lat="42.841943" lon="-8.633660">
        <ele>47.244</ele>
        <time>2019-06-22T09:26:51Z</time>
      </trkpt>
      <trkpt lat="42.841940" lon="-8.633353">
        <ele>48.086</ele>
        <time>2019-06-22T09:26:52Z</time>
      </trkpt>
      <trkpt lat="42.841934" lon="-8.633058">
        <ele>48.728</ele>
        <time>2019-06-22T09:26:53Z</time>
      </trkpt>
      <trkpt lat="42.841935" lon="-8.632773">
        <ele>49.276</ele>
        <time>2019-06-22T09:26:54Z</time>
      </trkpt>
      <trkpt lat="42.841916" lon="-8.632473">
        <ele>49.815</ele>
        <time>2019-06-22T09:26:55Z</time>
      </trkpt>
      <trkpt lat="42.841891" lon="-8.632190">
        <ele>49.970</ele>
        <time>2019-06-22T09:26:56Z</time>
      </trkpt>
      <trkpt lat="42.841859" lon="-8.631912">
        <ele>50.463</ele>
        <time>2019-06-22T09:26:57Z</time>
      </trkpt>
      <trkpt lat="42.841827" lon="-8.631619">
        <ele>50.859</ele>
        <time>2019-06-22T09:26:58Z</time>
      </trkpt>
      <trkpt lat="42.841778" lon="-8.631310">
        <ele>51.203</ele>
        <time>2019-06-22T09:26:59Z</time>
      </trkpt>
      <trkpt lat="42.841715" lon="-8.631034">
        <ele>52.123</ele>
        <time>2019-06-22T09:27:00Z</time>
      </trkpt>
      <trkpt lat="42.841644" lon="-8.630745">
        <ele>53.008</ele>
        <time>2019-06-22T09:27:01Z</time>
      </trkpt>
      <trkpt lat="42.841509" lon="-8.630514">
        <ele>53.928</ele>
        <time>2019-06-22T09:27:02Z</time>
      </trkpt>
      <trkpt lat="42.841332" lon="-8.630309">
        <ele>55.632</ele>
        <time>2019-06-22T09:27:03Z</time>
      </trkpt>
      <trkpt lat="42.841167" lon="-8.630133">
        <ele>57.924</ele>
        <time>2019-06-22T09:27:04Z</time>
      </trkpt>
      <trkpt lat="42.841019" lon="-8.629939">
        <ele>60.256</ele>
        <time>2019-06-22T09:27:05Z</time>
      </trkpt>
      <trkpt lat="42.840862" lon="-8.629762">
        <ele>62.924</ele>
        <time>2019-06-22T09:27:06Z</time>
      </trkpt>
      <trkpt lat="42.840711" lon="-8.629581">
        <ele>65.583</ele>
        <time>2019-06-22T09:27:07Z</time>
      </trkpt>
      <trkpt lat="42.840578" lon="-8.629401">
        <ele>67.728</ele>
        <time>2019-06-22T09:27:08Z</time>
      </trkpt>
      <trkpt lat="42.840456" lon="-8.629232">
        <ele>69.761</ele>
        <time>2019-06-22T09:27:09Z</time>
      </trkpt>
      <trkpt lat="42.840331" lon="-8.629087">
        <ele>71.414</ele>
        <time>2019-06-22T09:27:10Z</time>
      </trkpt>
      <trkpt lat="42.840215" lon="-8.628932">
        <ele>73.154</ele>
        <time>2019-06-22T09:27:11Z</time>
      </trkpt>
      <trkpt lat="42.840104" lon="-8.628767">
        <ele>75.509</ele>
        <time>2019-06-22T09:27:12Z</time>
      </trkpt>
      <trkpt lat="42.840099" lon="-8.628542">
        <ele>77.508</ele>
        <time>2019-06-22T09:27:13Z</time>
      </trkpt>
      <trkpt lat="42.840058" lon="-8.628351">
        <ele>79.074</ele>
        <time>2019-06-22T09:27:14Z</time>
      </trkpt>
      <trkpt lat="42.840026" lon="-8.628161">
        <ele>80.338</ele>
        <time>2019-06-22T09:27:15Z</time>
      </trkpt>
      <trkpt lat="42.839986" lon="-8.627993">
        <ele>80.910</ele>
        <time>2019-06-22T09:27:16Z</time>
      </trkpt>
      <trkpt lat="42.839951" lon="-8.627834">
        <ele>81.382</ele>
        <time>2019-06-22T09:27:17Z</time>
      </trkpt>
      <trkpt lat="42.839918" lon="-8.627691">
        <ele>82.580</ele>
        <time>2019-06-22T09:27:18Z</time>
      </trkpt>
      <trkpt lat="42.839885" lon="-8.627577">
        <ele>83.999</ele>
        <time>2019-06-22T09:27:19Z</time>
      </trkpt>
      <trkpt lat="42.839844" lon="-8.627478">
        <ele>83.924</ele>
        <time>2019-06-22T09:27:20Z</time>
      </trkpt>
      <trkpt lat="42.839792" lon="-8.627390">
        <ele>85.037</ele>
        <time>2019-06-22T09:27:21Z</time>
      </trkpt>
      <trkpt lat="42.839744" lon="-8.627298">
        <ele>86.878</ele>
        <time>2019-06-22T09:27:22Z</time>
      </trkpt>
      <trkpt lat="42.839714" lon="-8.627195">
        <ele>88.733</ele>
        <time>2019-06-22T09:27:23Z</time>
      </trkpt>
      <trkpt lat="42.839712" lon="-8.627089">
        <ele>89.626</ele>
        <time>2019-06-22T09:27:24Z</time>
      </trkpt>
      <trkpt lat="42.839733" lon="-8.626965">
        <ele>90.408</ele>
        <time>2019-06-22T09:27:25Z</time>
      </trkpt>
      <trkpt lat="42.839760" lon="-8.626815">
        <ele>91.230</ele>
        <time>2019-06-22T09:27:26Z</time>
      </trkpt>
      <trkpt lat="42.839777" lon="-8.626644">
        <ele>91.534</ele>
        <time>2019-06-22T09:27:27Z</time>
      </trkpt>
      <trkpt lat="42.839761" lon="-8.626453">
        <ele>91.516</ele>
        <time>2019-06-22T09:27:28Z</time>
      </trkpt>
      <trkpt lat="42.839737" lon="-8.626248">
        <ele>91.458</ele>
        <time>2019-06-22T09:27:29Z</time>
      </trkpt>
      <trkpt lat="42.839701" lon="-8.626043">
        <ele>91.426</ele>
        <time>2019-06-22T09:27:30Z</time>
      </trkpt>
      <trkpt lat="42.839661" lon="-8.625809">
        <ele>91.455</ele>
        <time>2019-06-22T09:27:31Z</time>
      </trkpt>
      <trkpt lat="42.839624" lon="-8.625563">
        <ele>91.340</ele>
        <time>2019-06-22T09:27:32Z</time>
      </trkpt>
      <trkpt lat="42.839589" lon="-8.625307">
        <ele>91.213</ele>
        <time>2019-06-22T09:27:33Z</time>
      </trkpt>
      <trkpt lat="42.839548" lon="-8.625041">
        <ele>91.111</ele>
        <time>2019-06-22T09:27:34Z</time>
      </trkpt>
      <trkpt lat="42.839490" lon="-8.624768">
        <ele>90.821</ele>
        <time>2019-06-22T09:27:35Z</time>
      </trkpt>
      <trkpt lat="42.839435" lon="-8.624496">
        <ele>90.303</ele>
        <time>2019-06-22T09:27:36Z</time>
      </trkpt>
      <trkpt lat="42.839347" lon="-8.624239">
        <ele>90.508</ele>
        <time>2019-06-22T09:27:37Z</time>
      </trkpt>
      <trkpt lat="42.839254" lon="-8.623990">
        <ele>90.574</ele>
        <time>2019-06-22T09:27:38Z</time>
      </trkpt>
      <trkpt lat="42.839146" lon="-8.623748">
        <ele>91.388</ele>
        <time>2019-06-22T09:27:39Z</time>
      </trkpt>
      <trkpt lat="42.839030" lon="-8.623518">
        <ele>92.760</ele>
        <time>2019-06-22T09:27:40Z</time>
      </trkpt>
      <trkpt lat="42.838905" lon="-8.623295">
        <ele>94.882</ele>
        <time>2019-06-22T09:27:41Z</time>
      </trkpt>
      <trkpt lat="42.838776" lon="-8.623084">
        <ele>97.270</ele>
        <time>2019-06-22T09:27:42Z</time>
      </trkpt>
      <trkpt lat="42.838623" lon="-8.622917">
        <ele>99.389</ele>
        <time>2019-06-22T09:27:43Z</time>
      </trkpt>
      <trkpt lat="42.838461" lon="-8.622744">
        <ele>101.564</ele>
        <time>2019-06-22T09:27:44Z</time>
      </trkpt>
      <trkpt lat="42.838311" lon="-8.622599">
        <ele>103.447</ele>
        <time>2019-06-22T09:27:45Z</time>
      </trkpt>
      <trkpt lat="42.838144" lon="-8.622446">
        <ele>105.259</ele>
        <time>2019-06-22T09:27:46Z</time>
      </trkpt>
      <trkpt lat="42.837972" lon="-8.622306">
        <ele>107.403</ele>
        <time>2019-06-22T09:27:47Z</time>
      </trkpt>
      <trkpt lat="42.837800" lon="-8.622172">
        <ele>109.923</ele>
        <time>2019-06-22T09:27:48Z</time>
      </trkpt>
      <trkpt lat="42.837637" lon="-8.622040">
        <ele>112.108</ele>
        <time>2019-06-22T09:27:49Z</time>
      </trkpt>
      <trkpt lat="42.837474" lon="-8.621907">
        <ele>114.478</ele>
        <time>2019-06-22T09:27:50Z</time>
      </trkpt>
      <trkpt lat="42.837313" lon="-8.621767">
        <ele>116.842</ele>
        <time>2019-06-22T09:27:51Z</time>
      </trkpt>
      <trkpt lat="42.837148" lon="-8.621646">
        <ele>119.664</ele>
        <time>2019-06-22T09:27:52Z</time>
      </trkpt>
      <trkpt lat="42.836979" lon="-8.621525">
        <ele>122.346</ele>
        <time>2019-06-22T09:27:53Z</time>
      </trkpt>
      <trkpt lat="42.836825" lon="-8.621387">
        <ele>124.674</ele>
        <time>2019-06-22T09:27:54Z</time>
      </trkpt>
      <trkpt lat="42.836668" lon="-8.621257">
        <ele>127.233</ele>
        <time>2019-06-22T09:27:55Z</time>
      </trkpt>
      <trkpt lat="42.836517" lon="-8.621124">
        <ele>130.018</ele>
        <time>2019-06-22T09:27:56Z</time>
      </trkpt>
      <trkpt lat="42.836370" lon="-8.620999">
        <ele>131.751</ele>
        <time>2019-06-22T09:27:57Z</time>
      </trkpt>
      <trkpt lat="42.836215" lon="-8.620890">
        <ele>132.523</ele>
        <time>2019-06-22T09:27:58Z</time>
      </trkpt>
      <trkpt lat="42.836058" lon="-8.620780">
        <ele>134.183</ele>
        <time>2019-06-22T09:27:59Z</time>
      </trkpt>
      <trkpt lat="42.835896" lon="-8.620682">
        <ele>135.211</ele>
        <time>2019-06-22T09:28:00Z</time>
      </trkpt>
      <trkpt lat="42.835750" lon="-8.620591">
        <ele>135.208</ele>
        <time>2019-06-22T09:28:01Z</time>
      </trkpt>
      <trkpt lat="42.835606" lon="-8.620506">
        <ele>135.645</ele>
        <time>2019-06-22T09:28:02Z</time>
      </trkpt>
      <trkpt lat="42.835466" lon="-8.620435">
        <ele>136.739</ele>
        <time>2019-06-22T09:28:03Z</time>
      </trkpt>
      <trkpt lat="42.835326" lon="-8.620361">
        <ele>137.461</ele>
        <time>2019-06-22T09:28:04Z</time>
      </trkpt>
      <trkpt lat="42.835196" lon="-8.620295">
        <ele>137.523</ele>
        <time>2019-06-22T09:28:05Z</time>
      </trkpt>
      <trkpt lat="42.835074" lon="-8.620237">
        <ele>138.171</ele>
        <time>2019-06-22T09:28:06Z</time>
      </trkpt>
      <trkpt lat="42.834943" lon="-8.620184">
        <ele>138.120</ele>
        <time>2019-06-22T09:28:07Z</time>
      </trkpt>
      <trkpt lat="42.834808" lon="-8.620118">
        <ele>137.585</ele>
        <time>2019-06-22T09:28:08Z</time>
      </trkpt>
      <trkpt lat="42.834677" lon="-8.620078">
        <ele>136.838</ele>
        <time>2019-06-22T09:28:09Z</time>
      </trkpt>
      <trkpt lat="42.834539" lon="-8.620024">
        <ele>136.426</ele>
        <time>2019-06-22T09:28:10Z</time>
      </trkpt>
      <trkpt lat="42.834401" lon="-8.619957">
        <ele>136.247</ele>
        <time>2019-06-22T09:28:11Z</time>
      </trkpt>
      <trkpt lat="42.834272" lon="-8.619914">
        <ele>135.511</ele>
        <time>2019-06-22T09:28:12Z</time>
      </trkpt>
      <trkpt lat="42.834152" lon="-8.619864">
        <ele>134.708</ele>
        <time>2019-06-22T09:28:13Z</time>
      </trkpt>
      <trkpt lat="42.834038" lon="-8.619823">
        <ele>134.445</ele>
        <time>2019-06-22T09:28:14Z</time>
      </trkpt>
      <trkpt lat="42.833953" lon="-8.619795">
        <ele>134.489</ele>
        <time>2019-06-22T09:28:15Z</time>
      </trkpt>
      <trkpt lat="42.833896" lon="-8.619768">
        <ele>134.631</ele>
        <time>2019-06-22T09:28:16Z</time>
      </trkpt>
      <trkpt lat="42.833841" lon="-8.619745">
        <ele>135.333</ele>
        <time>2019-06-22T09:28:17Z</time>
      </trkpt>
      <trkpt lat="42.833772" lon="-8.619715">
        <ele>137.511</ele>
        <time>2019-06-22T09:28:19Z</time>
      </trkpt>
      <trkpt lat="42.833724" lon="-8.619708">
        <ele>137.830</ele>
        <time>2019-06-22T09:28:42Z</time>
      </trkpt>
      <trkpt lat="42.833671" lon="-8.619688">
        <ele>137.845</ele>
        <time>2019-06-22T09:28:48Z</time>
      </trkpt>
      <trkpt lat="42.833613" lon="-8.619649">
        <ele>137.848</ele>
        <time>2019-06-22T09:28:49Z</time>
      </trkpt>
      <trkpt lat="42.833535" lon="-8.619608">
        <ele>137.844</ele>
        <time>2019-06-22T09:28:50Z</time>
      </trkpt>
      <trkpt lat="42.833439" lon="-8.619568">
        <ele>137.805</ele>
        <time>2019-06-22T09:28:51Z</time>
      </trkpt>
      <trkpt lat="42.833340" lon="-8.619527">
        <ele>137.515</ele>
        <time>2019-06-22T09:28:52Z</time>
      </trkpt>
      <trkpt lat="42.833229" lon="-8.619478">
        <ele>137.208</ele>
        <time>2019-06-22T09:28:53Z</time>
      </trkpt>
      <trkpt lat="42.833097" lon="-8.619427">
        <ele>137.087</ele>
        <time>2019-06-22T09:28:54Z</time>
      </trkpt>
      <trkpt lat="42.832954" lon="-8.619390">
        <ele>136.711</ele>
        <time>2019-06-22T09:28:55Z</time>
      </trkpt>
      <trkpt lat="42.832791" lon="-8.619346">
        <ele>136.153</ele>
        <time>2019-06-22T09:28:56Z</time>
      </trkpt>
      <trkpt lat="42.832628" lon="-8.619316">
        <ele>135.885</ele>
        <time>2019-06-22T09:28:57Z</time>
      </trkpt>
      <trkpt lat="42.832464" lon="-8.619300">
        <ele>135.583</ele>
        <time>2019-06-22T09:28:58Z</time>
      </trkpt>
      <trkpt lat="42.832298" lon="-8.619288">
        <ele>135.092</ele>
        <time>2019-06-22T09:28:59Z</time>
      </trkpt>
      <trkpt lat="42.832134" lon="-8.619271">
        <ele>134.467</ele>
        <time>2019-06-22T09:29:00Z</time>
      </trkpt>
      <trkpt lat="42.831971" lon="-8.619239">
        <ele>134.260</ele>
        <time>2019-06-22T09:29:01Z</time>
      </trkpt>
      <trkpt lat="42.831812" lon="-8.619193">
        <ele>133.951</ele>
        <time>2019-06-22T09:29:02Z</time>
      </trkpt>
      <trkpt lat="42.831649" lon="-8.619113">
        <ele>133.601</ele>
        <time>2019-06-22T09:29:03Z</time>
      </trkpt>
      <trkpt lat="42.831490" lon="-8.619019">
        <ele>133.311</ele>
        <time>2019-06-22T09:29:04Z</time>
      </trkpt>
      <trkpt lat="42.831334" lon="-8.618931">
        <ele>132.608</ele>
        <time>2019-06-22T09:29:05Z</time>
      </trkpt>
      <trkpt lat="42.831178" lon="-8.618828">
        <ele>132.018</ele>
        <time>2019-06-22T09:29:06Z</time>
      </trkpt>
      <trkpt lat="42.831030" lon="-8.618730">
        <ele>131.632</ele>
        <time>2019-06-22T09:29:07Z</time>
      </trkpt>
      <trkpt lat="42.830888" lon="-8.618612">
        <ele>131.154</ele>
        <time>2019-06-22T09:29:08Z</time>
      </trkpt>
      <trkpt lat="42.830760" lon="-8.618486">
        <ele>130.686</ele>
        <time>2019-06-22T09:29:09Z</time>
      </trkpt>
      <trkpt lat="42.830641" lon="-8.618363">
        <ele>130.664</ele>
        <time>2019-06-22T09:29:10Z</time>
      </trkpt>
      <trkpt lat="42.830527" lon="-8.618260">
        <ele>130.753</ele>
        <time>2019-06-22T09:29:11Z</time>
      </trkpt>
      <trkpt lat="42.830419" lon="-8.618144">
        <ele>131.078</ele>
        <time>2019-06-22T09:29:12Z</time>
      </trkpt>
      <trkpt lat="42.830310" lon="-8.618050">
        <ele>131.361</ele>
        <time>2019-06-22T09:29:13Z</time>
      </trkpt>
      <trkpt lat="42.830212" lon="-8.617944">
        <ele>131.944</ele>
        <time>2019-06-22T09:29:14Z</time>
      </trkpt>
      <trkpt lat="42.830117" lon="-8.617816">
        <ele>132.105</ele>
        <time>2019-06-22T09:29:15Z</time>
      </trkpt>
      <trkpt lat="42.830025" lon="-8.617665">
        <ele>132.615</ele>
        <time>2019-06-22T09:29:16Z</time>
      </trkpt>
      <trkpt lat="42.829943" lon="-8.617498">
        <ele>132.608</ele>
        <time>2019-06-22T09:29:17Z</time>
      </trkpt>
      <trkpt lat="42.829856" lon="-8.617316">
        <ele>132.327</ele>
        <time>2019-06-22T09:29:18Z</time>
      </trkpt>
      <trkpt lat="42.829760" lon="-8.617131">
        <ele>131.441</ele>
        <time>2019-06-22T09:29:19Z</time>
      </trkpt>
      <trkpt lat="42.829651" lon="-8.616945">
        <ele>131.053</ele>
        <time>2019-06-22T09:29:20Z</time>
      </trkpt>
      <trkpt lat="42.829531" lon="-8.616745">
        <ele>129.615</ele>
        <time>2019-06-22T09:29:21Z</time>
      </trkpt>
      <trkpt lat="42.829398" lon="-8.616529">
        <ele>128.153</ele>
        <time>2019-06-22T09:29:22Z</time>
      </trkpt>
      <trkpt lat="42.829265" lon="-8.616315">
        <ele>128.192</ele>
        <time>2019-06-22T09:29:23Z</time>
      </trkpt>
      <trkpt lat="42.829120" lon="-8.616095">
        <ele>125.627</ele>
        <time>2019-06-22T09:29:24Z</time>
      </trkpt>
      <trkpt lat="42.828979" lon="-8.615868">
        <ele>123.390</ele>
        <time>2019-06-22T09:29:25Z</time>
      </trkpt>
      <trkpt lat="42.828836" lon="-8.615643">
        <ele>120.946</ele>
        <time>2019-06-22T09:29:26Z</time>
      </trkpt>
      <trkpt lat="42.828698" lon="-8.615423">
        <ele>118.788</ele>
        <time>2019-06-22T09:29:27Z</time>
      </trkpt>
      <trkpt lat="42.828559" lon="-8.615204">
        <ele>116.316</ele>
        <time>2019-06-22T09:29:28Z</time>
      </trkpt>
      <trkpt lat="42.828411" lon="-8.614991">
        <ele>115.908</ele>
        <time>2019-06-22T09:29:29Z</time>
      </trkpt>
      <trkpt lat="42.828272" lon="-8.614777">
        <ele>115.777</ele>
        <time>2019-06-22T09:29:30Z</time>
      </trkpt>
      <trkpt lat="42.828138" lon="-8.614561">
        <ele>115.751</ele>
        <time>2019-06-22T09:29:31Z</time>
      </trkpt>
      <trkpt lat="42.828014" lon="-8.614351">
        <ele>115.753</ele>
        <time>2019-06-22T09:29:32Z</time>
      </trkpt>
      <trkpt lat="42.827881" lon="-8.614149">
        <ele>116.835</ele>
        <time>2019-06-22T09:29:33Z</time>
      </trkpt>
      <trkpt lat="42.827755" lon="-8.613954">
        <ele>117.983</ele>
        <time>2019-06-22T09:29:34Z</time>
      </trkpt>
      <trkpt lat="42.827634" lon="-8.613761">
        <ele>118.132</ele>
        <time>2019-06-22T09:29:35Z</time>
      </trkpt>
      <trkpt lat="42.827511" lon="-8.613588">
        <ele>118.137</ele>
        <time>2019-06-22T09:29:36Z</time>
      </trkpt>
      <trkpt lat="42.827407" lon="-8.613416">
        <ele>118.120</ele>
        <time>2019-06-22T09:29:37Z</time>
      </trkpt>
      <trkpt lat="42.827297" lon="-8.613277">
        <ele>116.692</ele>
        <time>2019-06-22T09:29:38Z</time>
      </trkpt>
      <trkpt lat="42.827178" lon="-8.613155">
        <ele>114.573</ele>
        <time>2019-06-22T09:29:39Z</time>
      </trkpt>
      <trkpt lat="42.827052" lon="-8.613031">
        <ele>113.220</ele>
        <time>2019-06-22T09:29:40Z</time>
      </trkpt>
      <trkpt lat="42.826901" lon="-8.612986">
        <ele>112.108</ele>
        <time>2019-06-22T09:29:41Z</time>
      </trkpt>
      <trkpt lat="42.826753" lon="-8.612942">
        <ele>111.812</ele>
        <time>2019-06-22T09:29:42Z</time>
      </trkpt>
      <trkpt lat="42.826570" lon="-8.612965">
        <ele>111.846</ele>
        <time>2019-06-22T09:29:43Z</time>
      </trkpt>
      <trkpt lat="42.826397" lon="-8.612978">
        <ele>112.248</ele>
        <time>2019-06-22T09:29:44Z</time>
      </trkpt>
      <trkpt lat="42.826220" lon="-8.612990">
        <ele>113.090</ele>
        <time>2019-06-22T09:29:45Z</time>
      </trkpt>
      <trkpt lat="42.826042" lon="-8.613001">
        <ele>113.288</ele>
        <time>2019-06-22T09:29:46Z</time>
      </trkpt>
      <trkpt lat="42.825849" lon="-8.613017">
        <ele>113.757</ele>
        <time>2019-06-22T09:29:47Z</time>
      </trkpt>
      <trkpt lat="42.825673" lon="-8.613031">
        <ele>113.932</ele>
        <time>2019-06-22T09:29:48Z</time>
      </trkpt>
      <trkpt lat="42.825508" lon="-8.613056">
        <ele>113.965</ele>
        <time>2019-06-22T09:29:49Z</time>
      </trkpt>
      <trkpt lat="42.825355" lon="-8.613069">
        <ele>114.035</ele>
        <time>2019-06-22T09:29:50Z</time>
      </trkpt>
      <trkpt lat="42.825204" lon="-8.613075">
        <ele>114.086</ele>
        <time>2019-06-22T09:29:51Z</time>
      </trkpt>
      <trkpt lat="42.825056" lon="-8.613085">
        <ele>114.014</ele>
        <time>2019-06-22T09:29:52Z</time>
      </trkpt>
      <trkpt lat="42.824925" lon="-8.613091">
        <ele>114.108</ele>
        <time>2019-06-22T09:29:53Z</time>
      </trkpt>
      <trkpt lat="42.824816" lon="-8.613089">
        <ele>114.386</ele>
        <time>2019-06-22T09:29:54Z</time>
      </trkpt>
      <trkpt lat="42.824720" lon="-8.613073">
        <ele>114.690</ele>
        <time>2019-06-22T09:29:55Z</time>
      </trkpt>
      <trkpt lat="42.824625" lon="-8.613022">
        <ele>115.332</ele>
        <time>2019-06-22T09:29:56Z</time>
      </trkpt>
      <trkpt lat="42.824533" lon="-8.612942">
        <ele>116.284</ele>
        <time>2019-06-22T09:29:57Z</time>
      </trkpt>
      <trkpt lat="42.824437" lon="-8.612836">
        <ele>116.832</ele>
        <time>2019-06-22T09:29:58Z</time>
      </trkpt>
      <trkpt lat="42.824330" lon="-8.612713">
        <ele>117.431</ele>
        <time>2019-06-22T09:29:59Z</time>
      </trkpt>
      <trkpt lat="42.824218" lon="-8.612582">
        <ele>117.516</ele>
        <time>2019-06-22T09:30:00Z</time>
      </trkpt>
      <trkpt lat="42.824104" lon="-8.612450">
        <ele>117.769</ele>
        <time>2019-06-22T09:30:01Z</time>
      </trkpt>
      <trkpt lat="42.823994" lon="-8.612311">
        <ele>118.188</ele>
        <time>2019-06-22T09:30:02Z</time>
      </trkpt>
      <trkpt lat="42.823869" lon="-8.612175">
        <ele>118.724</ele>
        <time>2019-06-22T09:30:03Z</time>
      </trkpt>
      <trkpt lat="42.823741" lon="-8.612037">
        <ele>119.326</ele>
        <time>2019-06-22T09:30:04Z</time>
      </trkpt>
      <trkpt lat="42.823628" lon="-8.611891">
        <ele>120.308</ele>
        <time>2019-06-22T09:30:05Z</time>
      </trkpt>
      <trkpt lat="42.823508" lon="-8.611757">
        <ele>121.221</ele>
        <time>2019-06-22T09:30:06Z</time>
      </trkpt>
      <trkpt lat="42.823389" lon="-8.611623">
        <ele>122.055</ele>
        <time>2019-06-22T09:30:07Z</time>
      </trkpt>
      <trkpt lat="42.823283" lon="-8.611497">
        <ele>122.687</ele>
        <time>2019-06-22T09:30:08Z</time>
      </trkpt>
      <trkpt lat="42.823176" lon="-8.611368">
        <ele>123.169</ele>
        <time>2019-06-22T09:30:09Z</time>
      </trkpt>
      <trkpt lat="42.823084" lon="-8.611259">
        <ele>123.757</ele>
        <time>2019-06-22T09:30:10Z</time>
      </trkpt>
      <trkpt lat="42.822997" lon="-8.611172">
        <ele>123.946</ele>
        <time>2019-06-22T09:30:11Z</time>
      </trkpt>
      <trkpt lat="42.822919" lon="-8.611090">
        <ele>124.561</ele>
        <time>2019-06-22T09:30:12Z</time>
      </trkpt>
      <trkpt lat="42.822844" lon="-8.611035">
        <ele>125.064</ele>
        <time>2019-06-22T09:30:13Z</time>
      </trkpt>
      <trkpt lat="42.822786" lon="-8.611008">
        <ele>125.916</ele>
        <time>2019-06-22T09:30:14Z</time>
      </trkpt>
      <trkpt lat="42.822725" lon="-8.611006">
        <ele>126.876</ele>
        <time>2019-06-22T09:30:15Z</time>
      </trkpt>
      <trkpt lat="42.822666" lon="-8.611031">
        <ele>127.813</ele>
        <time>2019-06-22T09:30:16Z</time>
      </trkpt>
      <trkpt lat="42.822594" lon="-8.611064">
        <ele>128.708</ele>
        <time>2019-06-22T09:30:17Z</time>
      </trkpt>
      <trkpt lat="42.822509" lon="-8.611149">
        <ele>129.344</ele>
        <time>2019-06-22T09:30:18Z</time>
      </trkpt>
      <trkpt lat="42.822425" lon="-8.611232">
        <ele>129.338</ele>
        <time>2019-06-22T09:30:19Z</time>
      </trkpt>
      <trkpt lat="42.822342" lon="-8.611368">
        <ele>129.410</ele>
        <time>2019-06-22T09:30:20Z</time>
      </trkpt>
      <trkpt lat="42.822252" lon="-8.611515">
        <ele>129.582</ele>
        <time>2019-06-22T09:30:21Z</time>
      </trkpt>
      <trkpt lat="42.822135" lon="-8.611669">
        <ele>129.510</ele>
        <time>2019-06-22T09:30:22Z</time>
      </trkpt>
      <trkpt lat="42.822026" lon="-8.611837">
        <ele>129.649</ele>
        <time>2019-06-22T09:30:23Z</time>
      </trkpt>
      <trkpt lat="42.821908" lon="-8.611994">
        <ele>129.814</ele>
        <time>2019-06-22T09:30:24Z</time>
      </trkpt>
      <trkpt lat="42.821796" lon="-8.612158">
        <ele>130.587</ele>
        <time>2019-06-22T09:30:25Z</time>
      </trkpt>
      <trkpt lat="42.821682" lon="-8.612306">
        <ele>131.013</ele>
        <time>2019-06-22T09:30:26Z</time>
      </trkpt>
      <trkpt lat="42.821567" lon="-8.612443">
        <ele>131.143</ele>
        <time>2019-06-22T09:30:27Z</time>
      </trkpt>
      <trkpt lat="42.821437" lon="-8.612573">
        <ele>131.607</ele>
        <time>2019-06-22T09:30:28Z</time>
      </trkpt>
      <trkpt lat="42.821299" lon="-8.612689">
        <ele>132.108</ele>
        <time>2019-06-22T09:30:29Z</time>
      </trkpt>
      <trkpt lat="42.821151" lon="-8.612800">
        <ele>132.574</ele>
        <time>2019-06-22T09:30:30Z</time>
      </trkpt>
      <trkpt lat="42.821006" lon="-8.612906">
        <ele>132.618</ele>
        <time>2019-06-22T09:30:31Z</time>
      </trkpt>
      <trkpt lat="42.820851" lon="-8.613014">
        <ele>133.030</ele>
        <time>2019-06-22T09:30:32Z</time>
      </trkpt>
      <trkpt lat="42.820708" lon="-8.613089">
        <ele>133.042</ele>
        <time>2019-06-22T09:30:33Z</time>
      </trkpt>
      <trkpt lat="42.820548" lon="-8.613184">
        <ele>132.310</ele>
        <time>2019-06-22T09:30:34Z</time>
      </trkpt>
      <trkpt lat="42.820390" lon="-8.613335">
        <ele>131.839</ele>
        <time>2019-06-22T09:30:35Z</time>
      </trkpt>
      <trkpt lat="42.820246" lon="-8.613433">
        <ele>130.634</ele>
        <time>2019-06-22T09:30:36Z</time>
      </trkpt>
      <trkpt lat="42.820108" lon="-8.613512">
        <ele>129.147</ele>
        <time>2019-06-22T09:30:37Z</time>
      </trkpt>
      <trkpt lat="42.819970" lon="-8.613590">
        <ele>128.278</ele>
        <time>2019-06-22T09:30:38Z</time>
      </trkpt>
      <trkpt lat="42.819838" lon="-8.613688">
        <ele>127.733</ele>
        <time>2019-06-22T09:30:39Z</time>
      </trkpt>
      <trkpt lat="42.819704" lon="-8.613779">
        <ele>127.226</ele>
        <time>2019-06-22T09:30:40Z</time>
      </trkpt>
      <trkpt lat="42.819572" lon="-8.613878">
        <ele>127.208</ele>
        <time>2019-06-22T09:30:41Z</time>
      </trkpt>
      <trkpt lat="42.819442" lon="-8.613977">
        <ele>127.270</ele>
        <time>2019-06-22T09:30:42Z</time>
      </trkpt>
      <trkpt lat="42.819319" lon="-8.614068">
        <ele>127.234</ele>
        <time>2019-06-22T09:30:43Z</time>
      </trkpt>
      <trkpt lat="42.819202" lon="-8.614154">
        <ele>126.676</ele>
        <time>2019-06-22T09:30:44Z</time>
      </trkpt>
      <trkpt lat="42.819101" lon="-8.614241">
        <ele>125.698</ele>
        <time>2019-06-22T09:30:45Z</time>
      </trkpt>
      <trkpt lat="42.819040" lon="-8.614305">
        <ele>124.586</ele>
        <time>2019-06-22T09:30:46Z</time>
      </trkpt>
      <trkpt lat="42.818970" lon="-8.614371">
        <ele>124.235</ele>
        <time>2019-06-22T09:30:47Z</time>
      </trkpt>
      <trkpt lat="42.818914" lon="-8.614413">
        <ele>124.210</ele>
        <time>2019-06-22T09:30:48Z</time>
      </trkpt>
      <trkpt lat="42.818864" lon="-8.614425">
        <ele>124.363</ele>
        <time>2019-06-22T09:30:49Z</time>
      </trkpt>
      <trkpt lat="42.818803" lon="-8.614361">
        <ele>125.852</ele>
        <time>2019-06-22T09:30:51Z</time>
      </trkpt>
      <trkpt lat="42.818789" lon="-8.614293">
        <ele>125.953</ele>
        <time>2019-06-22T09:30:52Z</time>
      </trkpt>
      <trkpt lat="42.818778" lon="-8.614201">
        <ele>125.908</ele>
        <time>2019-06-22T09:30:53Z</time>
      </trkpt>
      <trkpt lat="42.818746" lon="-8.614100">
        <ele>125.808</ele>
        <time>2019-06-22T09:30:54Z</time>
      </trkpt>
      <trkpt lat="42.818689" lon="-8.613991">
        <ele>125.768</ele>
        <time>2019-06-22T09:30:55Z</time>
      </trkpt>
      <trkpt lat="42.818614" lon="-8.613893">
        <ele>125.432</ele>
        <time>2019-06-22T09:30:56Z</time>
      </trkpt>
      <trkpt lat="42.818518" lon="-8.613793">
        <ele>125.494</ele>
        <time>2019-06-22T09:30:57Z</time>
      </trkpt>
      <trkpt lat="42.818406" lon="-8.613706">
        <ele>125.476</ele>
        <time>2019-06-22T09:30:58Z</time>
      </trkpt>
      <trkpt lat="42.818255" lon="-8.613646">
        <ele>125.544</ele>
        <time>2019-06-22T09:30:59Z</time>
      </trkpt>
      <trkpt lat="42.818113" lon="-8.613617">
        <ele>125.693</ele>
        <time>2019-06-22T09:31:00Z</time>
      </trkpt>
      <trkpt lat="42.817974" lon="-8.613582">
        <ele>125.718</ele>
        <time>2019-06-22T09:31:01Z</time>
      </trkpt>
      <trkpt lat="42.817801" lon="-8.613633">
        <ele>126.021</ele>
        <time>2019-06-22T09:31:02Z</time>
      </trkpt>
      <trkpt lat="42.817636" lon="-8.613710">
        <ele>126.618</ele>
        <time>2019-06-22T09:31:03Z</time>
      </trkpt>
      <trkpt lat="42.817475" lon="-8.613755">
        <ele>127.498</ele>
        <time>2019-06-22T09:31:04Z</time>
      </trkpt>
      <trkpt lat="42.817299" lon="-8.613799">
        <ele>128.617</ele>
        <time>2019-06-22T09:31:05Z</time>
      </trkpt>
      <trkpt lat="42.817107" lon="-8.613860">
        <ele>130.008</ele>
        <time>2019-06-22T09:31:06Z</time>
      </trkpt>
      <trkpt lat="42.816922" lon="-8.613910">
        <ele>131.234</ele>
        <time>2019-06-22T09:31:07Z</time>
      </trkpt>
      <trkpt lat="42.816739" lon="-8.613961">
        <ele>131.518</ele>
        <time>2019-06-22T09:31:08Z</time>
      </trkpt>
      <trkpt lat="42.816543" lon="-8.614018">
        <ele>131.560</ele>
        <time>2019-06-22T09:31:09Z</time>
      </trkpt>
      <trkpt lat="42.816350" lon="-8.614074">
        <ele>130.882</ele>
        <time>2019-06-22T09:31:10Z</time>
      </trkpt>
      <trkpt lat="42.816165" lon="-8.614135">
        <ele>130.880</ele>
        <time>2019-06-22T09:31:11Z</time>
      </trkpt>
      <trkpt lat="42.815962" lon="-8.614175">
        <ele>130.839</ele>
        <time>2019-06-22T09:31:12Z</time>
      </trkpt>
      <trkpt lat="42.815763" lon="-8.614218">
        <ele>132.094</ele>
        <time>2019-06-22T09:31:13Z</time>
      </trkpt>
      <trkpt lat="42.815557" lon="-8.614212">
        <ele>133.587</ele>
        <time>2019-06-22T09:31:14Z</time>
      </trkpt>
      <trkpt lat="42.815353" lon="-8.614224">
        <ele>135.577</ele>
        <time>2019-06-22T09:31:15Z</time>
      </trkpt>
      <trkpt lat="42.815152" lon="-8.614210">
        <ele>137.261</ele>
        <time>2019-06-22T09:31:16Z</time>
      </trkpt>
      <trkpt lat="42.814936" lon="-8.614171">
        <ele>137.827</ele>
        <time>2019-06-22T09:31:17Z</time>
      </trkpt>
      <trkpt lat="42.814721" lon="-8.614097">
        <ele>137.808</ele>
        <time>2019-06-22T09:31:18Z</time>
      </trkpt>
      <trkpt lat="42.814516" lon="-8.614032">
        <ele>137.620</ele>
        <time>2019-06-22T09:31:19Z</time>
      </trkpt>
      <trkpt lat="42.814295" lon="-8.613951">
        <ele>137.464</ele>
        <time>2019-06-22T09:31:20Z</time>
      </trkpt>
      <trkpt lat="42.814073" lon="-8.613870">
        <ele>137.446</ele>
        <time>2019-06-22T09:31:21Z</time>
      </trkpt>
      <trkpt lat="42.813855" lon="-8.613817">
        <ele>138.268</ele>
        <time>2019-06-22T09:31:22Z</time>
      </trkpt>
      <trkpt lat="42.813627" lon="-8.613733">
        <ele>138.226</ele>
        <time>2019-06-22T09:31:23Z</time>
      </trkpt>
      <trkpt lat="42.813403" lon="-8.613664">
        <ele>139.565</ele>
        <time>2019-06-22T09:31:24Z</time>
      </trkpt>
      <trkpt lat="42.813172" lon="-8.613600">
        <ele>141.170</ele>
        <time>2019-06-22T09:31:25Z</time>
      </trkpt>
      <trkpt lat="42.812940" lon="-8.613511">
        <ele>142.853</ele>
        <time>2019-06-22T09:31:26Z</time>
      </trkpt>
      <trkpt lat="42.812701" lon="-8.613439">
        <ele>144.145</ele>
        <time>2019-06-22T09:31:27Z</time>
      </trkpt>
      <trkpt lat="42.812473" lon="-8.613367">
        <ele>144.647</ele>
        <time>2019-06-22T09:31:28Z</time>
      </trkpt>
      <trkpt lat="42.812255" lon="-8.613321">
        <ele>144.611</ele>
        <time>2019-06-22T09:31:29Z</time>
      </trkpt>
      <trkpt lat="42.812024" lon="-8.613266">
        <ele>144.708</ele>
        <time>2019-06-22T09:31:30Z</time>
      </trkpt>
      <trkpt lat="42.811796" lon="-8.613206">
        <ele>144.857</ele>
        <time>2019-06-22T09:31:31Z</time>
      </trkpt>
      <trkpt lat="42.811590" lon="-8.613159">
        <ele>145.731</ele>
        <time>2019-06-22T09:31:32Z</time>
      </trkpt>
      <trkpt lat="42.811379" lon="-8.613105">
        <ele>147.023</ele>
        <time>2019-06-22T09:31:33Z</time>
      </trkpt>
      <trkpt lat="42.811178" lon="-8.613044">
        <ele>148.415</ele>
        <time>2019-06-22T09:31:34Z</time>
      </trkpt>
      <trkpt lat="42.811002" lon="-8.612963">
        <ele>150.913</ele>
        <time>2019-06-22T09:31:35Z</time>
      </trkpt>
      <trkpt lat="42.810818" lon="-8.612883">
        <ele>153.732</ele>
        <time>2019-06-22T09:31:36Z</time>
      </trkpt>
      <trkpt lat="42.810658" lon="-8.612742">
        <ele>156.757</ele>
        <time>2019-06-22T09:31:37Z</time>
      </trkpt>
      <trkpt lat="42.810493" lon="-8.612618">
        <ele>159.620</ele>
        <time>2019-06-22T09:31:38Z</time>
      </trkpt>
      <trkpt lat="42.810352" lon="-8.612422">
        <ele>162.656</ele>
        <time>2019-06-22T09:31:39Z</time>
      </trkpt>
      <trkpt lat="42.810211" lon="-8.612234">
        <ele>165.559</ele>
        <time>2019-06-22T09:31:40Z</time>
      </trkpt>
      <trkpt lat="42.810078" lon="-8.612033">
        <ele>167.414</ele>
        <time>2019-06-22T09:31:41Z</time>
      </trkpt>
      <trkpt lat="42.809943" lon="-8.611840">
        <ele>169.308</ele>
        <time>2019-06-22T09:31:42Z</time>
      </trkpt>
      <trkpt lat="42.809812" lon="-8.611639">
        <ele>171.038</ele>
        <time>2019-06-22T09:31:43Z</time>
      </trkpt>
      <trkpt lat="42.809678" lon="-8.611439">
        <ele>173.092</ele>
        <time>2019-06-22T09:31:44Z</time>
      </trkpt>
      <trkpt lat="42.809550" lon="-8.611237">
        <ele>174.954</ele>
        <time>2019-06-22T09:31:45Z</time>
      </trkpt>
      <trkpt lat="42.809409" lon="-8.611037">
        <ele>176.786</ele>
        <time>2019-06-22T09:31:46Z</time>
      </trkpt>
      <trkpt lat="42.809274" lon="-8.610833">
        <ele>178.644</ele>
        <time>2019-06-22T09:31:47Z</time>
      </trkpt>
      <trkpt lat="42.809151" lon="-8.610621">
        <ele>180.773</ele>
        <time>2019-06-22T09:31:48Z</time>
      </trkpt>
      <trkpt lat="42.809039" lon="-8.610401">
        <ele>182.858</ele>
        <time>2019-06-22T09:31:49Z</time>
      </trkpt>
      <trkpt lat="42.808933" lon="-8.610172">
        <ele>184.781</ele>
        <time>2019-06-22T09:31:50Z</time>
      </trkpt>
      <trkpt lat="42.808832" lon="-8.609938">
        <ele>187.284</ele>
        <time>2019-06-22T09:31:51Z</time>
      </trkpt>
      <trkpt lat="42.808732" lon="-8.609702">
        <ele>189.707</ele>
        <time>2019-06-22T09:31:52Z</time>
      </trkpt>
      <trkpt lat="42.808700" lon="-8.609450">
        <ele>192.217</ele>
        <time>2019-06-22T09:31:53Z</time>
      </trkpt>
      <trkpt lat="42.808642" lon="-8.609180">
        <ele>194.508</ele>
        <time>2019-06-22T09:31:54Z</time>
      </trkpt>
      <trkpt lat="42.808595" lon="-8.608915">
        <ele>196.711</ele>
        <time>2019-06-22T09:31:55Z</time>
      </trkpt>
      <trkpt lat="42.808560" lon="-8.608630">
        <ele>198.895</ele>
        <time>2019-06-22T09:31:56Z</time>
      </trkpt>
      <trkpt lat="42.808528" lon="-8.608348">
        <ele>200.987</ele>
        <time>2019-06-22T09:31:57Z</time>
      </trkpt>
      <trkpt lat="42.808493" lon="-8.608073">
        <ele>203.119</ele>
        <time>2019-06-22T09:31:58Z</time>
      </trkpt>
      <trkpt lat="42.808472" lon="-8.607792">
        <ele>204.937</ele>
        <time>2019-06-22T09:31:59Z</time>
      </trkpt>
      <trkpt lat="42.808439" lon="-8.607509">
        <ele>206.756</ele>
        <time>2019-06-22T09:32:00Z</time>
      </trkpt>
      <trkpt lat="42.808410" lon="-8.607223">
        <ele>208.591</ele>
        <time>2019-06-22T09:32:01Z</time>
      </trkpt>
      <trkpt lat="42.808401" lon="-8.606936">
        <ele>210.314</ele>
        <time>2019-06-22T09:32:02Z</time>
      </trkpt>
      <trkpt lat="42.808383" lon="-8.606652">
        <ele>211.844</ele>
        <time>2019-06-22T09:32:03Z</time>
      </trkpt>
      <trkpt lat="42.808359" lon="-8.606378">
        <ele>213.705</ele>
        <time>2019-06-22T09:32:04Z</time>
      </trkpt>
      <trkpt lat="42.808347" lon="-8.606098">
        <ele>215.615</ele>
        <time>2019-06-22T09:32:05Z</time>
      </trkpt>
      <trkpt lat="42.808332" lon="-8.605826">
        <ele>217.908</ele>
        <time>2019-06-22T09:32:06Z</time>
      </trkpt>
      <trkpt lat="42.808314" lon="-8.605549">
        <ele>219.987</ele>
        <time>2019-06-22T09:32:07Z</time>
      </trkpt>
      <trkpt lat="42.808303" lon="-8.605269">
        <ele>221.921</ele>
        <time>2019-06-22T09:32:08Z</time>
      </trkpt>
      <trkpt lat="42.808321" lon="-8.605000">
        <ele>223.123</ele>
        <time>2019-06-22T09:32:09Z</time>
      </trkpt>
      <trkpt lat="42.808316" lon="-8.604724">
        <ele>224.335</ele>
        <time>2019-06-22T09:32:10Z</time>
      </trkpt>
      <trkpt lat="42.808303" lon="-8.604440">
        <ele>224.383</ele>
        <time>2019-06-22T09:32:11Z</time>
      </trkpt>
      <trkpt lat="42.808275" lon="-8.604175">
        <ele>223.122</ele>
        <time>2019-06-22T09:32:12Z</time>
      </trkpt>
      <trkpt lat="42.808238" lon="-8.603921">
        <ele>221.497</ele>
        <time>2019-06-22T09:32:13Z</time>
      </trkpt>
      <trkpt lat="42.808178" lon="-8.603651">
        <ele>219.530</ele>
        <time>2019-06-22T09:32:14Z</time>
      </trkpt>
      <trkpt lat="42.808088" lon="-8.603391">
        <ele>217.571</ele>
        <time>2019-06-22T09:32:15Z</time>
      </trkpt>
      <trkpt lat="42.807977" lon="-8.603149">
        <ele>216.241</ele>
        <time>2019-06-22T09:32:16Z</time>
      </trkpt>
      <trkpt lat="42.807851" lon="-8.602914">
        <ele>215.415</ele>
        <time>2019-06-22T09:32:17Z</time>
      </trkpt>
      <trkpt lat="42.807712" lon="-8.602686">
        <ele>214.808</ele>
        <time>2019-06-22T09:32:18Z</time>
      </trkpt>
      <trkpt lat="42.807572" lon="-8.602458">
        <ele>214.030</ele>
        <time>2019-06-22T09:32:19Z</time>
      </trkpt>
      <trkpt lat="42.807442" lon="-8.602246">
        <ele>212.824</ele>
        <time>2019-06-22T09:32:20Z</time>
      </trkpt>
      <trkpt lat="42.807304" lon="-8.602029">
        <ele>210.476</ele>
        <time>2019-06-22T09:32:21Z</time>
      </trkpt>
      <trkpt lat="42.807165" lon="-8.601815">
        <ele>207.658</ele>
        <time>2019-06-22T09:32:22Z</time>
      </trkpt>
      <trkpt lat="42.807010" lon="-8.601645">
        <ele>205.256</ele>
        <time>2019-06-22T09:32:23Z</time>
      </trkpt>
      <trkpt lat="42.806859" lon="-8.601502">
        <ele>205.225</ele>
        <time>2019-06-22T09:32:24Z</time>
      </trkpt>
      <trkpt lat="42.806715" lon="-8.601377">
        <ele>203.910</ele>
        <time>2019-06-22T09:32:25Z</time>
      </trkpt>
      <trkpt lat="42.806598" lon="-8.601267">
        <ele>203.633</ele>
        <time>2019-06-22T09:32:26Z</time>
      </trkpt>
      <trkpt lat="42.806494" lon="-8.601154">
        <ele>203.635</ele>
        <time>2019-06-22T09:32:27Z</time>
      </trkpt>
      <trkpt lat="42.806399" lon="-8.601042">
        <ele>204.886</ele>
        <time>2019-06-22T09:32:28Z</time>
      </trkpt>
      <trkpt lat="42.806326" lon="-8.600868">
        <ele>207.014</ele>
        <time>2019-06-22T09:32:29Z</time>
      </trkpt>
      <trkpt lat="42.806282" lon="-8.600706">
        <ele>208.408</ele>
        <time>2019-06-22T09:32:30Z</time>
      </trkpt>
      <trkpt lat="42.806220" lon="-8.600547">
        <ele>210.156</ele>
        <time>2019-06-22T09:32:31Z</time>
      </trkpt>
      <trkpt lat="42.806182" lon="-8.600277">
        <ele>211.130</ele>
        <time>2019-06-22T09:32:32Z</time>
      </trkpt>
      <trkpt lat="42.806120" lon="-8.600066">
        <ele>212.012</ele>
        <time>2019-06-22T09:32:33Z</time>
      </trkpt>
      <trkpt lat="42.806058" lon="-8.599859">
        <ele>212.334</ele>
        <time>2019-06-22T09:32:34Z</time>
      </trkpt>
      <trkpt lat="42.806021" lon="-8.599651">
        <ele>213.082</ele>
        <time>2019-06-22T09:32:35Z</time>
      </trkpt>
      <trkpt lat="42.805980" lon="-8.599455">
        <ele>213.511</ele>
        <time>2019-06-22T09:32:36Z</time>
      </trkpt>
      <trkpt lat="42.805937" lon="-8.599263">
        <ele>214.486</ele>
        <time>2019-06-22T09:32:37Z</time>
      </trkpt>
      <trkpt lat="42.805892" lon="-8.599085">
        <ele>215.599</ele>
        <time>2019-06-22T09:32:38Z</time>
      </trkpt>
      <trkpt lat="42.805830" lon="-8.598927">
        <ele>216.484</ele>
        <time>2019-06-22T09:32:39Z</time>
      </trkpt>
      <trkpt lat="42.805774" lon="-8.598800">
        <ele>216.807</ele>
        <time>2019-06-22T09:32:40Z</time>
      </trkpt>
      <trkpt lat="42.805701" lon="-8.598674">
        <ele>217.517</ele>
        <time>2019-06-22T09:32:41Z</time>
      </trkpt>
      <trkpt lat="42.805645" lon="-8.598533">
        <ele>218.108</ele>
        <time>2019-06-22T09:32:42Z</time>
      </trkpt>
      <trkpt lat="42.805550" lon="-8.598398">
        <ele>218.691</ele>
        <time>2019-06-22T09:32:43Z</time>
      </trkpt>
      <trkpt lat="42.805406" lon="-8.598286">
        <ele>219.365</ele>
        <time>2019-06-22T09:32:44Z</time>
      </trkpt>
      <trkpt lat="42.805284" lon="-8.598101">
        <ele>220.097</ele>
        <time>2019-06-22T09:32:45Z</time>
      </trkpt>
      <trkpt lat="42.805153" lon="-8.597932">
        <ele>220.539</ele>
        <time>2019-06-22T09:32:46Z</time>
      </trkpt>
      <trkpt lat="42.805028" lon="-8.597762">
        <ele>221.017</ele>
        <time>2019-06-22T09:32:47Z</time>
      </trkpt>
      <trkpt lat="42.804894" lon="-8.597613">
        <ele>221.676</ele>
        <time>2019-06-22T09:32:48Z</time>
      </trkpt>
      <trkpt lat="42.804756" lon="-8.597468">
        <ele>221.941</ele>
        <time>2019-06-22T09:32:49Z</time>
      </trkpt>
      <trkpt lat="42.804640" lon="-8.597319">
        <ele>222.284</ele>
        <time>2019-06-22T09:32:50Z</time>
      </trkpt>
      <trkpt lat="42.804534" lon="-8.597172">
        <ele>222.532</ele>
        <time>2019-06-22T09:32:51Z</time>
      </trkpt>
      <trkpt lat="42.804432" lon="-8.597032">
        <ele>222.692</ele>
        <time>2019-06-22T09:32:52Z</time>
      </trkpt>
      <trkpt lat="42.804323" lon="-8.596893">
        <ele>222.711</ele>
        <time>2019-06-22T09:32:53Z</time>
      </trkpt>
      <trkpt lat="42.804240" lon="-8.596752">
        <ele>222.908</ele>
        <time>2019-06-22T09:32:54Z</time>
      </trkpt>
      <trkpt lat="42.804155" lon="-8.596583">
        <ele>223.316</ele>
        <time>2019-06-22T09:32:55Z</time>
      </trkpt>
      <trkpt lat="42.804102" lon="-8.596407">
        <ele>223.670</ele>
        <time>2019-06-22T09:32:56Z</time>
      </trkpt>
      <trkpt lat="42.804073" lon="-8.596224">
        <ele>223.912</ele>
        <time>2019-06-22T09:32:57Z</time>
      </trkpt>
      <trkpt lat="42.804046" lon="-8.595994">
        <ele>224.424</ele>
        <time>2019-06-22T09:32:58Z</time>
      </trkpt>
      <trkpt lat="42.804011" lon="-8.595775">
        <ele>224.612</ele>
        <time>2019-06-22T09:32:59Z</time>
      </trkpt>
      <trkpt lat="42.803979" lon="-8.595553">
        <ele>224.721</ele>
        <time>2019-06-22T09:33:00Z</time>
      </trkpt>
      <trkpt lat="42.803954" lon="-8.595328">
        <ele>224.966</ele>
        <time>2019-06-22T09:33:01Z</time>
      </trkpt>
      <trkpt lat="42.803942" lon="-8.595121">
        <ele>225.259</ele>
        <time>2019-06-22T09:33:02Z</time>
      </trkpt>
      <trkpt lat="42.803922" lon="-8.594888">
        <ele>225.449</ele>
        <time>2019-06-22T09:33:03Z</time>
      </trkpt>
      <trkpt lat="42.803885" lon="-8.594659">
        <ele>225.502</ele>
        <time>2019-06-22T09:33:04Z</time>
      </trkpt>
      <trkpt lat="42.803860" lon="-8.594430">
        <ele>225.822</ele>
        <time>2019-06-22T09:33:05Z</time>
      </trkpt>
      <trkpt lat="42.803836" lon="-8.594215">
        <ele>226.108</ele>
        <time>2019-06-22T09:33:06Z</time>
      </trkpt>
      <trkpt lat="42.803821" lon="-8.594011">
        <ele>226.327</ele>
        <time>2019-06-22T09:33:07Z</time>
      </trkpt>
      <trkpt lat="42.803827" lon="-8.593805">
        <ele>226.891</ele>
        <time>2019-06-22T09:33:08Z</time>
      </trkpt>
      <trkpt lat="42.803828" lon="-8.593598">
        <ele>226.843</ele>
        <time>2019-06-22T09:33:09Z</time>
      </trkpt>
      <trkpt lat="42.803843" lon="-8.593414">
        <ele>226.785</ele>
        <time>2019-06-22T09:33:10Z</time>
      </trkpt>
      <trkpt lat="42.803850" lon="-8.593208">
        <ele>225.923</ele>
        <time>2019-06-22T09:33:11Z</time>
      </trkpt>
      <trkpt lat="42.803866" lon="-8.593019">
        <ele>224.962</ele>
        <time>2019-06-22T09:33:12Z</time>
      </trkpt>
      <trkpt lat="42.803870" lon="-8.592840">
        <ele>223.367</ele>
        <time>2019-06-22T09:33:13Z</time>
      </trkpt>
      <trkpt lat="42.803872" lon="-8.592658">
        <ele>221.810</ele>
        <time>2019-06-22T09:33:14Z</time>
      </trkpt>
      <trkpt lat="42.803856" lon="-8.592533">
        <ele>220.773</ele>
        <time>2019-06-22T09:33:15Z</time>
      </trkpt>
      <trkpt lat="42.803832" lon="-8.592376">
        <ele>220.185</ele>
        <time>2019-06-22T09:33:16Z</time>
      </trkpt>
      <trkpt lat="42.803755" lon="-8.592233">
        <ele>219.313</ele>
        <time>2019-06-22T09:33:17Z</time>
      </trkpt>
      <trkpt lat="42.803683" lon="-8.592103">
        <ele>218.708</ele>
        <time>2019-06-22T09:33:18Z</time>
      </trkpt>
      <trkpt lat="42.803539" lon="-8.591971">
        <ele>218.470</ele>
        <time>2019-06-22T09:33:19Z</time>
      </trkpt>
      <trkpt lat="42.803411" lon="-8.591834">
        <ele>218.294</ele>
        <time>2019-06-22T09:33:20Z</time>
      </trkpt>
      <trkpt lat="42.803260" lon="-8.591717">
        <ele>218.156</ele>
        <time>2019-06-22T09:33:21Z</time>
      </trkpt>
      <trkpt lat="42.803115" lon="-8.591610">
        <ele>217.988</ele>
        <time>2019-06-22T09:33:22Z</time>
      </trkpt>
      <trkpt lat="42.802976" lon="-8.591500">
        <ele>217.716</ele>
        <time>2019-06-22T09:33:23Z</time>
      </trkpt>
      <trkpt lat="42.802843" lon="-8.591400">
        <ele>217.765</ele>
        <time>2019-06-22T09:33:24Z</time>
      </trkpt>
      <trkpt lat="42.802712" lon="-8.591307">
        <ele>217.530</ele>
        <time>2019-06-22T09:33:25Z</time>
      </trkpt>
      <trkpt lat="42.802587" lon="-8.591222">
        <ele>216.523</ele>
        <time>2019-06-22T09:33:26Z</time>
      </trkpt>
      <trkpt lat="42.802468" lon="-8.591130">
        <ele>215.516</ele>
        <time>2019-06-22T09:33:27Z</time>
      </trkpt>
      <trkpt lat="42.802356" lon="-8.591047">
        <ele>214.876</ele>
        <time>2019-06-22T09:33:28Z</time>
      </trkpt>
      <trkpt lat="42.802261" lon="-8.590966">
        <ele>214.113</ele>
        <time>2019-06-22T09:33:29Z</time>
      </trkpt>
      <trkpt lat="42.802191" lon="-8.590862">
        <ele>213.408</ele>
        <time>2019-06-22T09:33:30Z</time>
      </trkpt>
      <trkpt lat="42.802144" lon="-8.590749">
        <ele>213.094</ele>
        <time>2019-06-22T09:33:31Z</time>
      </trkpt>
      <trkpt lat="42.802118" lon="-8.590619">
        <ele>212.668</ele>
        <time>2019-06-22T09:33:32Z</time>
      </trkpt>
      <trkpt lat="42.802114" lon="-8.590490">
        <ele>212.170</ele>
        <time>2019-06-22T09:33:33Z</time>
      </trkpt>
      <trkpt lat="42.802139" lon="-8.590335">
        <ele>211.542</ele>
        <time>2019-06-22T09:33:34Z</time>
      </trkpt>
      <trkpt lat="42.802178" lon="-8.590172">
        <ele>210.950</ele>
        <time>2019-06-22T09:33:35Z</time>
      </trkpt>
      <trkpt lat="42.802217" lon="-8.589990">
        <ele>210.019</ele>
        <time>2019-06-22T09:33:36Z</time>
      </trkpt>
      <trkpt lat="42.802252" lon="-8.589805">
        <ele>209.144</ele>
        <time>2019-06-22T09:33:37Z</time>
      </trkpt>
      <trkpt lat="42.802286" lon="-8.589631">
        <ele>208.527</ele>
        <time>2019-06-22T09:33:38Z</time>
      </trkpt>
      <trkpt lat="42.802319" lon="-8.589462">
        <ele>207.951</ele>
        <time>2019-06-22T09:33:39Z</time>
      </trkpt>
      <trkpt lat="42.802344" lon="-8.589313">
        <ele>207.201</ele>
        <time>2019-06-22T09:33:40Z</time>
      </trkpt>
      <trkpt lat="42.802362" lon="-8.589181">
        <ele>206.811</ele>
        <time>2019-06-22T09:33:41Z</time>
      </trkpt>
      <trkpt lat="42.802371" lon="-8.589057">
        <ele>206.008</ele>
        <time>2019-06-22T09:33:42Z</time>
      </trkpt>
      <trkpt lat="42.802359" lon="-8.588930">
        <ele>205.088</ele>
        <time>2019-06-22T09:33:43Z</time>
      </trkpt>
      <trkpt lat="42.802318" lon="-8.588812">
        <ele>203.942</ele>
        <time>2019-06-22T09:33:44Z</time>
      </trkpt>
      <trkpt lat="42.802271" lon="-8.588702">
        <ele>202.994</ele>
        <time>2019-06-22T09:33:45Z</time>
      </trkpt>
      <trkpt lat="42.802239" lon="-8.588590">
        <ele>202.226</ele>
        <time>2019-06-22T09:33:46Z</time>
      </trkpt>
      <trkpt lat="42.802224" lon="-8.588455">
        <ele>202.224</ele>
        <time>2019-06-22T09:33:47Z</time>
      </trkpt>
      <trkpt lat="42.802236" lon="-8.588297">
        <ele>202.233</ele>
        <time>2019-06-22T09:33:48Z</time>
      </trkpt>
      <trkpt lat="42.802275" lon="-8.588099">
        <ele>201.978</ele>
        <time>2019-06-22T09:33:49Z</time>
      </trkpt>
      <trkpt lat="42.802321" lon="-8.587879">
        <ele>201.651</ele>
        <time>2019-06-22T09:33:50Z</time>
      </trkpt>
      <trkpt lat="42.802373" lon="-8.587666">
        <ele>200.965</ele>
        <time>2019-06-22T09:33:51Z</time>
      </trkpt>
      <trkpt lat="42.802435" lon="-8.587444">
        <ele>200.168</ele>
        <time>2019-06-22T09:33:52Z</time>
      </trkpt>
      <trkpt lat="42.802510" lon="-8.587214">
        <ele>199.014</ele>
        <time>2019-06-22T09:33:53Z</time>
      </trkpt>
      <trkpt lat="42.802567" lon="-8.586986">
        <ele>198.308</ele>
        <time>2019-06-22T09:33:54Z</time>
      </trkpt>
      <trkpt lat="42.802614" lon="-8.586730">
        <ele>197.779</ele>
        <time>2019-06-22T09:33:55Z</time>
      </trkpt>
      <trkpt lat="42.802675" lon="-8.586499">
        <ele>197.513</ele>
        <time>2019-06-22T09:33:56Z</time>
      </trkpt>
      <trkpt lat="42.802734" lon="-8.586271">
        <ele>197.575</ele>
        <time>2019-06-22T09:33:57Z</time>
      </trkpt>
      <trkpt lat="42.802787" lon="-8.586053">
        <ele>197.847</ele>
        <time>2019-06-22T09:33:58Z</time>
      </trkpt>
      <trkpt lat="42.802828" lon="-8.585868">
        <ele>198.035</ele>
        <time>2019-06-22T09:33:59Z</time>
      </trkpt>
      <trkpt lat="42.802858" lon="-8.585687">
        <ele>198.614</ele>
        <time>2019-06-22T09:34:00Z</time>
      </trkpt>
      <trkpt lat="42.802884" lon="-8.585510">
        <ele>199.569</ele>
        <time>2019-06-22T09:34:01Z</time>
      </trkpt>
      <trkpt lat="42.802904" lon="-8.585349">
        <ele>200.332</ele>
        <time>2019-06-22T09:34:02Z</time>
      </trkpt>
      <trkpt lat="42.802926" lon="-8.585215">
        <ele>201.329</ele>
        <time>2019-06-22T09:34:03Z</time>
      </trkpt>
      <trkpt lat="42.802953" lon="-8.585086">
        <ele>203.000</ele>
        <time>2019-06-22T09:34:04Z</time>
      </trkpt>
      <trkpt lat="42.802982" lon="-8.584961">
        <ele>204.420</ele>
        <time>2019-06-22T09:34:05Z</time>
      </trkpt>
      <trkpt lat="42.803005" lon="-8.584836">
        <ele>205.608</ele>
        <time>2019-06-22T09:34:06Z</time>
      </trkpt>
      <trkpt lat="42.803031" lon="-8.584708">
        <ele>206.415</ele>
        <time>2019-06-22T09:34:07Z</time>
      </trkpt>
      <trkpt lat="42.803059" lon="-8.584594">
        <ele>206.879</ele>
        <time>2019-06-22T09:34:08Z</time>
      </trkpt>
      <trkpt lat="42.803078" lon="-8.584489">
        <ele>207.061</ele>
        <time>2019-06-22T09:34:09Z</time>
      </trkpt>
      <trkpt lat="42.803090" lon="-8.584365">
        <ele>207.163</ele>
        <time>2019-06-22T09:34:10Z</time>
      </trkpt>
      <trkpt lat="42.803119" lon="-8.584258">
        <ele>207.181</ele>
        <time>2019-06-22T09:34:11Z</time>
      </trkpt>
      <trkpt lat="42.803127" lon="-8.584142">
        <ele>207.150</ele>
        <time>2019-06-22T09:34:12Z</time>
      </trkpt>
      <trkpt lat="42.803142" lon="-8.584044">
        <ele>207.385</ele>
        <time>2019-06-22T09:34:13Z</time>
      </trkpt>
      <trkpt lat="42.803141" lon="-8.583955">
        <ele>207.378</ele>
        <time>2019-06-22T09:34:14Z</time>
      </trkpt>
      <trkpt lat="42.803111" lon="-8.583876">
        <ele>207.364</ele>
        <time>2019-06-22T09:34:15Z</time>
      </trkpt>
      <trkpt lat="42.803043" lon="-8.583805">
        <ele>207.206</ele>
        <time>2019-06-22T09:34:16Z</time>
      </trkpt>
      <trkpt lat="42.802972" lon="-8.583740">
        <ele>207.016</ele>
        <time>2019-06-22T09:34:17Z</time>
      </trkpt>
      <trkpt lat="42.802891" lon="-8.583676">
        <ele>207.008</ele>
        <time>2019-06-22T09:34:18Z</time>
      </trkpt>
      <trkpt lat="42.802791" lon="-8.583590">
        <ele>207.179</ele>
        <time>2019-06-22T09:34:19Z</time>
      </trkpt>
      <trkpt lat="42.802678" lon="-8.583501">
        <ele>207.283</ele>
        <time>2019-06-22T09:34:20Z</time>
      </trkpt>
      <trkpt lat="42.802573" lon="-8.583411">
        <ele>207.575</ele>
        <time>2019-06-22T09:34:21Z</time>
      </trkpt>
      <trkpt lat="42.802456" lon="-8.583322">
        <ele>208.057</ele>
        <time>2019-06-22T09:34:22Z</time>
      </trkpt>
      <trkpt lat="42.802340" lon="-8.583229">
        <ele>208.385</ele>
        <time>2019-06-22T09:34:23Z</time>
      </trkpt>
      <trkpt lat="42.802218" lon="-8.583150">
        <ele>208.684</ele>
        <time>2019-06-22T09:34:24Z</time>
      </trkpt>
      <trkpt lat="42.802085" lon="-8.583091">
        <ele>209.269</ele>
        <time>2019-06-22T09:34:25Z</time>
      </trkpt>
      <trkpt lat="42.801937" lon="-8.583053">
        <ele>209.252</ele>
        <time>2019-06-22T09:34:26Z</time>
      </trkpt>
      <trkpt lat="42.801778" lon="-8.583033">
        <ele>209.969</ele>
        <time>2019-06-22T09:34:27Z</time>
      </trkpt>
      <trkpt lat="42.801609" lon="-8.583041">
        <ele>210.604</ele>
        <time>2019-06-22T09:34:28Z</time>
      </trkpt>
      <trkpt lat="42.801442" lon="-8.583046">
        <ele>210.924</ele>
        <time>2019-06-22T09:34:29Z</time>
      </trkpt>
      <trkpt lat="42.801278" lon="-8.583052">
        <ele>211.708</ele>
        <time>2019-06-22T09:34:30Z</time>
      </trkpt>
      <trkpt lat="42.801119" lon="-8.583051">
        <ele>212.429</ele>
        <time>2019-06-22T09:34:31Z</time>
      </trkpt>
      <trkpt lat="42.800961" lon="-8.583058">
        <ele>213.223</ele>
        <time>2019-06-22T09:34:32Z</time>
      </trkpt>
      <trkpt lat="42.800811" lon="-8.583056">
        <ele>213.865</ele>
        <time>2019-06-22T09:34:33Z</time>
      </trkpt>
      <trkpt lat="42.800670" lon="-8.583055">
        <ele>214.827</ele>
        <time>2019-06-22T09:34:34Z</time>
      </trkpt>
      <trkpt lat="42.800524" lon="-8.583055">
        <ele>215.495</ele>
        <time>2019-06-22T09:34:35Z</time>
      </trkpt>
      <trkpt lat="42.800382" lon="-8.583046">
        <ele>216.084</ele>
        <time>2019-06-22T09:34:36Z</time>
      </trkpt>
      <trkpt lat="42.800244" lon="-8.583024">
        <ele>216.379</ele>
        <time>2019-06-22T09:34:37Z</time>
      </trkpt>
      <trkpt lat="42.800107" lon="-8.582977">
        <ele>216.922</ele>
        <time>2019-06-22T09:34:38Z</time>
      </trkpt>
      <trkpt lat="42.799969" lon="-8.582918">
        <ele>217.785</ele>
        <time>2019-06-22T09:34:39Z</time>
      </trkpt>
      <trkpt lat="42.799829" lon="-8.582805">
        <ele>218.489</ele>
        <time>2019-06-22T09:34:40Z</time>
      </trkpt>
      <trkpt lat="42.799696" lon="-8.582696">
        <ele>218.917</ele>
        <time>2019-06-22T09:34:41Z</time>
      </trkpt>
      <trkpt lat="42.799564" lon="-8.582585">
        <ele>219.908</ele>
        <time>2019-06-22T09:34:42Z</time>
      </trkpt>
      <trkpt lat="42.799409" lon="-8.582467">
        <ele>220.241</ele>
        <time>2019-06-22T09:34:43Z</time>
      </trkpt>
      <trkpt lat="42.799269" lon="-8.582348">
        <ele>220.365</ele>
        <time>2019-06-22T09:34:44Z</time>
      </trkpt>
      <trkpt lat="42.799128" lon="-8.582225">
        <ele>220.327</ele>
        <time>2019-06-22T09:34:45Z</time>
      </trkpt>
      <trkpt lat="42.798976" lon="-8.582106">
        <ele>220.369</ele>
        <time>2019-06-22T09:34:46Z</time>
      </trkpt>
      <trkpt lat="42.798825" lon="-8.581986">
        <ele>219.787</ele>
        <time>2019-06-22T09:34:47Z</time>
      </trkpt>
      <trkpt lat="42.798675" lon="-8.581867">
        <ele>219.446</ele>
        <time>2019-06-22T09:34:48Z</time>
      </trkpt>
      <trkpt lat="42.798530" lon="-8.581743">
        <ele>219.061</ele>
        <time>2019-06-22T09:34:49Z</time>
      </trkpt>
      <trkpt lat="42.798384" lon="-8.581624">
        <ele>217.784</ele>
        <time>2019-06-22T09:34:50Z</time>
      </trkpt>
      <trkpt lat="42.798245" lon="-8.581508">
        <ele>217.748</ele>
        <time>2019-06-22T09:34:51Z</time>
      </trkpt>
      <trkpt lat="42.798103" lon="-8.581395">
        <ele>216.961</ele>
        <time>2019-06-22T09:34:52Z</time>
      </trkpt>
      <trkpt lat="42.797950" lon="-8.581275">
        <ele>215.617</ele>
        <time>2019-06-22T09:34:53Z</time>
      </trkpt>
      <trkpt lat="42.797805" lon="-8.581155">
        <ele>214.208</ele>
        <time>2019-06-22T09:34:54Z</time>
      </trkpt>
      <trkpt lat="42.797658" lon="-8.581043">
        <ele>212.747</ele>
        <time>2019-06-22T09:34:55Z</time>
      </trkpt>
      <trkpt lat="42.797517" lon="-8.580929">
        <ele>211.481</ele>
        <time>2019-06-22T09:34:56Z</time>
      </trkpt>
      <trkpt lat="42.797385" lon="-8.580805">
        <ele>210.433</ele>
        <time>2019-06-22T09:34:57Z</time>
      </trkpt>
      <trkpt lat="42.797276" lon="-8.580665">
        <ele>210.045</ele>
        <time>2019-06-22T09:34:58Z</time>
      </trkpt>
      <trkpt lat="42.797168" lon="-8.580513">
        <ele>209.653</ele>
        <time>2019-06-22T09:34:59Z</time>
      </trkpt>
      <trkpt lat="42.797071" lon="-8.580327">
        <ele>209.672</ele>
        <time>2019-06-22T09:35:00Z</time>
      </trkpt>
      <trkpt lat="42.796985" lon="-8.580138">
        <ele>209.757</ele>
        <time>2019-06-22T09:35:01Z</time>
      </trkpt>
      <trkpt lat="42.796905" lon="-8.579945">
        <ele>209.730</ele>
        <time>2019-06-22T09:35:02Z</time>
      </trkpt>
      <trkpt lat="42.796818" lon="-8.579756">
        <ele>209.511</ele>
        <time>2019-06-22T09:35:03Z</time>
      </trkpt>
      <trkpt lat="42.796753" lon="-8.579567">
        <ele>209.121</ele>
        <time>2019-06-22T09:35:04Z</time>
      </trkpt>
      <trkpt lat="42.796672" lon="-8.579379">
        <ele>208.203</ele>
        <time>2019-06-22T09:35:05Z</time>
      </trkpt>
      <trkpt lat="42.796596" lon="-8.579202">
        <ele>207.108</ele>
        <time>2019-06-22T09:35:06Z</time>
      </trkpt>
      <trkpt lat="42.796513" lon="-8.579019">
        <ele>206.534</ele>
        <time>2019-06-22T09:35:07Z</time>
      </trkpt>
      <trkpt lat="42.796438" lon="-8.578845">
        <ele>205.928</ele>
        <time>2019-06-22T09:35:08Z</time>
      </trkpt>
      <trkpt lat="42.796363" lon="-8.578691">
        <ele>205.750</ele>
        <time>2019-06-22T09:35:09Z</time>
      </trkpt>
      <trkpt lat="42.796276" lon="-8.578544">
        <ele>205.732</ele>
        <time>2019-06-22T09:35:10Z</time>
      </trkpt>
      <trkpt lat="42.796176" lon="-8.578416">
        <ele>205.720</ele>
        <time>2019-06-22T09:35:11Z</time>
      </trkpt>
      <trkpt lat="42.796057" lon="-8.578319">
        <ele>205.549</ele>
        <time>2019-06-22T09:35:12Z</time>
      </trkpt>
      <trkpt lat="42.795940" lon="-8.578229">
        <ele>205.214</ele>
        <time>2019-06-22T09:35:13Z</time>
      </trkpt>
      <trkpt lat="42.795778" lon="-8.578190">
        <ele>204.867</ele>
        <time>2019-06-22T09:35:14Z</time>
      </trkpt>
      <trkpt lat="42.795611" lon="-8.578143">
        <ele>204.693</ele>
        <time>2019-06-22T09:35:15Z</time>
      </trkpt>
      <trkpt lat="42.795451" lon="-8.578094">
        <ele>204.565</ele>
        <time>2019-06-22T09:35:16Z</time>
      </trkpt>
      <trkpt lat="42.795287" lon="-8.578059">
        <ele>204.421</ele>
        <time>2019-06-22T09:35:17Z</time>
      </trkpt>
      <trkpt lat="42.795119" lon="-8.578013">
        <ele>204.408</ele>
        <time>2019-06-22T09:35:18Z</time>
      </trkpt>
      <trkpt lat="42.794946" lon="-8.577959">
        <ele>204.512</ele>
        <time>2019-06-22T09:35:19Z</time>
      </trkpt>
      <trkpt lat="42.794782" lon="-8.577918">
        <ele>204.746</ele>
        <time>2019-06-22T09:35:20Z</time>
      </trkpt>
      <trkpt lat="42.794629" lon="-8.577863">
        <ele>205.038</ele>
        <time>2019-06-22T09:35:21Z</time>
      </trkpt>
      <trkpt lat="42.794467" lon="-8.577803">
        <ele>205.570</ele>
        <time>2019-06-22T09:35:22Z</time>
      </trkpt>
      <trkpt lat="42.794311" lon="-8.577753">
        <ele>205.668</ele>
        <time>2019-06-22T09:35:23Z</time>
      </trkpt>
      <trkpt lat="42.794152" lon="-8.577718">
        <ele>205.677</ele>
        <time>2019-06-22T09:35:24Z</time>
      </trkpt>
      <trkpt lat="42.793987" lon="-8.577701">
        <ele>204.622</ele>
        <time>2019-06-22T09:35:25Z</time>
      </trkpt>
      <trkpt lat="42.793812" lon="-8.577694">
        <ele>203.735</ele>
        <time>2019-06-22T09:35:26Z</time>
      </trkpt>
      <trkpt lat="42.793644" lon="-8.577709">
        <ele>202.928</ele>
        <time>2019-06-22T09:35:27Z</time>
      </trkpt>
      <trkpt lat="42.793479" lon="-8.577723">
        <ele>202.989</ele>
        <time>2019-06-22T09:35:28Z</time>
      </trkpt>
      <trkpt lat="42.793311" lon="-8.577734">
        <ele>202.017</ele>
        <time>2019-06-22T09:35:29Z</time>
      </trkpt>
      <trkpt lat="42.793150" lon="-8.577748">
        <ele>201.308</ele>
        <time>2019-06-22T09:35:30Z</time>
      </trkpt>
      <trkpt lat="42.792989" lon="-8.577758">
        <ele>201.095</ele>
        <time>2019-06-22T09:35:31Z</time>
      </trkpt>
      <trkpt lat="42.792826" lon="-8.577740">
        <ele>200.939</ele>
        <time>2019-06-22T09:35:32Z</time>
      </trkpt>
      <trkpt lat="42.792669" lon="-8.577700">
        <ele>200.691</ele>
        <time>2019-06-22T09:35:33Z</time>
      </trkpt>
      <trkpt lat="42.792521" lon="-8.577616">
        <ele>200.393</ele>
        <time>2019-06-22T09:35:34Z</time>
      </trkpt>
      <trkpt lat="42.792370" lon="-8.577525">
        <ele>200.241</ele>
        <time>2019-06-22T09:35:35Z</time>
      </trkpt>
      <trkpt lat="42.792207" lon="-8.577418">
        <ele>200.010</ele>
        <time>2019-06-22T09:35:36Z</time>
      </trkpt>
      <trkpt lat="42.792044" lon="-8.577316">
        <ele>199.525</ele>
        <time>2019-06-22T09:35:37Z</time>
      </trkpt>
      <trkpt lat="42.791889" lon="-8.577208">
        <ele>198.598</ele>
        <time>2019-06-22T09:35:38Z</time>
      </trkpt>
      <trkpt lat="42.791722" lon="-8.577089">
        <ele>197.876</ele>
        <time>2019-06-22T09:35:39Z</time>
      </trkpt>
      <trkpt lat="42.791576" lon="-8.576979">
        <ele>197.190</ele>
        <time>2019-06-22T09:35:40Z</time>
      </trkpt>
      <trkpt lat="42.791433" lon="-8.576840">
        <ele>196.619</ele>
        <time>2019-06-22T09:35:41Z</time>
      </trkpt>
      <trkpt lat="42.791292" lon="-8.576681">
        <ele>196.308</ele>
        <time>2019-06-22T09:35:42Z</time>
      </trkpt>
      <trkpt lat="42.791152" lon="-8.576510">
        <ele>196.280</ele>
        <time>2019-06-22T09:35:43Z</time>
      </trkpt>
      <trkpt lat="42.791022" lon="-8.576332">
        <ele>196.184</ele>
        <time>2019-06-22T09:35:44Z</time>
      </trkpt>
      <trkpt lat="42.790901" lon="-8.576157">
        <ele>195.586</ele>
        <time>2019-06-22T09:35:45Z</time>
      </trkpt>
      <trkpt lat="42.790781" lon="-8.575970">
        <ele>194.998</ele>
        <time>2019-06-22T09:35:46Z</time>
      </trkpt>
      <trkpt lat="42.790663" lon="-8.575803">
        <ele>193.646</ele>
        <time>2019-06-22T09:35:47Z</time>
      </trkpt>
      <trkpt lat="42.790536" lon="-8.575658">
        <ele>192.455</ele>
        <time>2019-06-22T09:35:48Z</time>
      </trkpt>
      <trkpt lat="42.790392" lon="-8.575540">
        <ele>190.960</ele>
        <time>2019-06-22T09:35:49Z</time>
      </trkpt>
      <trkpt lat="42.790234" lon="-8.575433">
        <ele>190.393</ele>
        <time>2019-06-22T09:35:50Z</time>
      </trkpt>
      <trkpt lat="42.790093" lon="-8.575352">
        <ele>190.375</ele>
        <time>2019-06-22T09:35:51Z</time>
      </trkpt>
      <trkpt lat="42.789959" lon="-8.575301">
        <ele>190.428</ele>
        <time>2019-06-22T09:35:52Z</time>
      </trkpt>
      <trkpt lat="42.789842" lon="-8.575255">
        <ele>191.320</ele>
        <time>2019-06-22T09:35:53Z</time>
      </trkpt>
      <trkpt lat="42.789736" lon="-8.575213">
        <ele>192.508</ele>
        <time>2019-06-22T09:35:54Z</time>
      </trkpt>
      <trkpt lat="42.789646" lon="-8.575170">
        <ele>193.730</ele>
        <time>2019-06-22T09:35:55Z</time>
      </trkpt>
      <trkpt lat="42.789555" lon="-8.575124">
        <ele>194.254</ele>
        <time>2019-06-22T09:35:56Z</time>
      </trkpt>
      <trkpt lat="42.789465" lon="-8.575070">
        <ele>194.646</ele>
        <time>2019-06-22T09:35:57Z</time>
      </trkpt>
      <trkpt lat="42.789368" lon="-8.575008">
        <ele>194.788</ele>
        <time>2019-06-22T09:35:58Z</time>
      </trkpt>
      <trkpt lat="42.789280" lon="-8.574927">
        <ele>194.996</ele>
        <time>2019-06-22T09:35:59Z</time>
      </trkpt>
      <trkpt lat="42.789194" lon="-8.574818">
        <ele>194.935</ele>
        <time>2019-06-22T09:36:00Z</time>
      </trkpt>
      <trkpt lat="42.789111" lon="-8.574697">
        <ele>194.820</ele>
        <time>2019-06-22T09:36:01Z</time>
      </trkpt>
      <trkpt lat="42.789029" lon="-8.574568">
        <ele>194.683</ele>
        <time>2019-06-22T09:36:02Z</time>
      </trkpt>
      <trkpt lat="42.788947" lon="-8.574425">
        <ele>194.363</ele>
        <time>2019-06-22T09:36:03Z</time>
      </trkpt>
      <trkpt lat="42.788858" lon="-8.574267">
        <ele>193.944</ele>
        <time>2019-06-22T09:36:04Z</time>
      </trkpt>
      <trkpt lat="42.788772" lon="-8.574112">
        <ele>193.218</ele>
        <time>2019-06-22T09:36:05Z</time>
      </trkpt>
      <trkpt lat="42.788688" lon="-8.573957">
        <ele>191.608</ele>
        <time>2019-06-22T09:36:06Z</time>
      </trkpt>
      <trkpt lat="42.788610" lon="-8.573820">
        <ele>190.269</ele>
        <time>2019-06-22T09:36:07Z</time>
      </trkpt>
      <trkpt lat="42.788532" lon="-8.573679">
        <ele>189.573</ele>
        <time>2019-06-22T09:36:08Z</time>
      </trkpt>
      <trkpt lat="42.788459" lon="-8.573545">
        <ele>188.695</ele>
        <time>2019-06-22T09:36:09Z</time>
      </trkpt>
      <trkpt lat="42.788386" lon="-8.573408">
        <ele>187.737</ele>
        <time>2019-06-22T09:36:10Z</time>
      </trkpt>
      <trkpt lat="42.788323" lon="-8.573277">
        <ele>187.735</ele>
        <time>2019-06-22T09:36:11Z</time>
      </trkpt>
      <trkpt lat="42.788246" lon="-8.573149">
        <ele>187.944</ele>
        <time>2019-06-22T09:36:12Z</time>
      </trkpt>
      <trkpt lat="42.788166" lon="-8.573003">
        <ele>187.969</ele>
        <time>2019-06-22T09:36:13Z</time>
      </trkpt>
      <trkpt lat="42.788066" lon="-8.572844">
        <ele>187.362</ele>
        <time>2019-06-22T09:36:14Z</time>
      </trkpt>
      <trkpt lat="42.787961" lon="-8.572668">
        <ele>186.885</ele>
        <time>2019-06-22T09:36:15Z</time>
      </trkpt>
      <trkpt lat="42.787853" lon="-8.572480">
        <ele>185.589</ele>
        <time>2019-06-22T09:36:16Z</time>
      </trkpt>
      <trkpt lat="42.787742" lon="-8.572284">
        <ele>183.717</ele>
        <time>2019-06-22T09:36:17Z</time>
      </trkpt>
      <trkpt lat="42.787627" lon="-8.572084">
        <ele>181.208</ele>
        <time>2019-06-22T09:36:18Z</time>
      </trkpt>
      <trkpt lat="42.787512" lon="-8.571877">
        <ele>178.671</ele>
        <time>2019-06-22T09:36:19Z</time>
      </trkpt>
      <trkpt lat="42.787399" lon="-8.571676">
        <ele>175.665</ele>
        <time>2019-06-22T09:36:20Z</time>
      </trkpt>
      <trkpt lat="42.787281" lon="-8.571474">
        <ele>173.367</ele>
        <time>2019-06-22T09:36:21Z</time>
      </trkpt>
      <trkpt lat="42.787166" lon="-8.571283">
        <ele>170.899</ele>
        <time>2019-06-22T09:36:22Z</time>
      </trkpt>
      <trkpt lat="42.787056" lon="-8.571090">
        <ele>169.717</ele>
        <time>2019-06-22T09:36:23Z</time>
      </trkpt>
      <trkpt lat="42.786947" lon="-8.570895">
        <ele>168.516</ele>
        <time>2019-06-22T09:36:24Z</time>
      </trkpt>
      <trkpt lat="42.786836" lon="-8.570701">
        <ele>167.791</ele>
        <time>2019-06-22T09:36:25Z</time>
      </trkpt>
      <trkpt lat="42.786723" lon="-8.570509">
        <ele>167.224</ele>
        <time>2019-06-22T09:36:26Z</time>
      </trkpt>
      <trkpt lat="42.786612" lon="-8.570323">
        <ele>167.148</ele>
        <time>2019-06-22T09:36:27Z</time>
      </trkpt>
      <trkpt lat="42.786514" lon="-8.570136">
        <ele>166.961</ele>
        <time>2019-06-22T09:36:28Z</time>
      </trkpt>
      <trkpt lat="42.786415" lon="-8.569955">
        <ele>166.917</ele>
        <time>2019-06-22T09:36:29Z</time>
      </trkpt>
      <trkpt lat="42.786315" lon="-8.569767">
        <ele>166.908</ele>
        <time>2019-06-22T09:36:30Z</time>
      </trkpt>
      <trkpt lat="42.786217" lon="-8.569586">
        <ele>166.967</ele>
        <time>2019-06-22T09:36:31Z</time>
      </trkpt>
      <trkpt lat="42.786111" lon="-8.569409">
        <ele>166.881</ele>
        <time>2019-06-22T09:36:32Z</time>
      </trkpt>
      <trkpt lat="42.786014" lon="-8.569228">
        <ele>166.053</ele>
        <time>2019-06-22T09:36:33Z</time>
      </trkpt>
      <trkpt lat="42.785922" lon="-8.569046">
        <ele>164.245</ele>
        <time>2019-06-22T09:36:34Z</time>
      </trkpt>
      <trkpt lat="42.785812" lon="-8.568876">
        <ele>162.623</ele>
        <time>2019-06-22T09:36:35Z</time>
      </trkpt>
      <trkpt lat="42.785710" lon="-8.568694">
        <ele>161.062</ele>
        <time>2019-06-22T09:36:36Z</time>
      </trkpt>
      <trkpt lat="42.785621" lon="-8.568521">
        <ele>159.617</ele>
        <time>2019-06-22T09:36:37Z</time>
      </trkpt>
      <trkpt lat="42.785526" lon="-8.568348">
        <ele>158.270</ele>
        <time>2019-06-22T09:36:38Z</time>
      </trkpt>
      <trkpt lat="42.785438" lon="-8.568159">
        <ele>157.519</ele>
        <time>2019-06-22T09:36:39Z</time>
      </trkpt>
      <trkpt lat="42.785348" lon="-8.567966">
        <ele>156.909</ele>
        <time>2019-06-22T09:36:40Z</time>
      </trkpt>
      <trkpt lat="42.785293" lon="-8.567743">
        <ele>156.019</ele>
        <time>2019-06-22T09:36:41Z</time>
      </trkpt>
      <trkpt lat="42.785232" lon="-8.567527">
        <ele>155.108</ele>
        <time>2019-06-22T09:36:42Z</time>
      </trkpt>
      <trkpt lat="42.785185" lon="-8.567310">
        <ele>153.424</ele>
        <time>2019-06-22T09:36:43Z</time>
      </trkpt>
      <trkpt lat="42.785142" lon="-8.567094">
        <ele>152.148</ele>
        <time>2019-06-22T09:36:44Z</time>
      </trkpt>
      <trkpt lat="42.785091" lon="-8.566885">
        <ele>150.880</ele>
        <time>2019-06-22T09:36:45Z</time>
      </trkpt>
      <trkpt lat="42.785061" lon="-8.566686">
        <ele>149.812</ele>
        <time>2019-06-22T09:36:46Z</time>
      </trkpt>
      <trkpt lat="42.784995" lon="-8.566491">
        <ele>148.590</ele>
        <time>2019-06-22T09:36:47Z</time>
      </trkpt>
      <trkpt lat="42.784931" lon="-8.566308">
        <ele>148.039</ele>
        <time>2019-06-22T09:36:48Z</time>
      </trkpt>
      <trkpt lat="42.784843" lon="-8.566122">
        <ele>147.344</ele>
        <time>2019-06-22T09:36:49Z</time>
      </trkpt>
      <trkpt lat="42.784732" lon="-8.565934">
        <ele>146.597</ele>
        <time>2019-06-22T09:36:50Z</time>
      </trkpt>
      <trkpt lat="42.784617" lon="-8.565736">
        <ele>145.695</ele>
        <time>2019-06-22T09:36:51Z</time>
      </trkpt>
      <trkpt lat="42.784500" lon="-8.565531">
        <ele>144.749</ele>
        <time>2019-06-22T09:36:52Z</time>
      </trkpt>
      <trkpt lat="42.784380" lon="-8.565312">
        <ele>143.423</ele>
        <time>2019-06-22T09:36:53Z</time>
      </trkpt>
      <trkpt lat="42.784258" lon="-8.565093">
        <ele>142.108</ele>
        <time>2019-06-22T09:36:54Z</time>
      </trkpt>
      <trkpt lat="42.784133" lon="-8.564878">
        <ele>140.422</ele>
        <time>2019-06-22T09:36:55Z</time>
      </trkpt>
      <trkpt lat="42.784006" lon="-8.564671">
        <ele>138.736</ele>
        <time>2019-06-22T09:36:56Z</time>
      </trkpt>
      <trkpt lat="42.783883" lon="-8.564467">
        <ele>137.098</ele>
        <time>2019-06-22T09:36:57Z</time>
      </trkpt>
      <trkpt lat="42.783765" lon="-8.564271">
        <ele>135.080</ele>
        <time>2019-06-22T09:36:58Z</time>
      </trkpt>
      <trkpt lat="42.783653" lon="-8.564075">
        <ele>133.358</ele>
        <time>2019-06-22T09:36:59Z</time>
      </trkpt>
      <trkpt lat="42.783540" lon="-8.563888">
        <ele>132.177</ele>
        <time>2019-06-22T09:37:00Z</time>
      </trkpt>
      <trkpt lat="42.783431" lon="-8.563710">
        <ele>130.772</ele>
        <time>2019-06-22T09:37:01Z</time>
      </trkpt>
      <trkpt lat="42.783314" lon="-8.563544">
        <ele>129.645</ele>
        <time>2019-06-22T09:37:02Z</time>
      </trkpt>
      <trkpt lat="42.783206" lon="-8.563377">
        <ele>129.577</ele>
        <time>2019-06-22T09:37:03Z</time>
      </trkpt>
      <trkpt lat="42.783102" lon="-8.563202">
        <ele>129.461</ele>
        <time>2019-06-22T09:37:04Z</time>
      </trkpt>
      <trkpt lat="42.782998" lon="-8.563030">
        <ele>128.627</ele>
        <time>2019-06-22T09:37:05Z</time>
      </trkpt>
      <trkpt lat="42.782902" lon="-8.562865">
        <ele>128.008</ele>
        <time>2019-06-22T09:37:06Z</time>
      </trkpt>
      <trkpt lat="42.782806" lon="-8.562709">
        <ele>127.110</ele>
        <time>2019-06-22T09:37:07Z</time>
      </trkpt>
      <trkpt lat="42.782709" lon="-8.562567">
        <ele>126.234</ele>
        <time>2019-06-22T09:37:08Z</time>
      </trkpt>
      <trkpt lat="42.782615" lon="-8.562428">
        <ele>125.486</ele>
        <time>2019-06-22T09:37:09Z</time>
      </trkpt>
      <trkpt lat="42.782527" lon="-8.562325">
        <ele>125.448</ele>
        <time>2019-06-22T09:37:10Z</time>
      </trkpt>
      <trkpt lat="42.782415" lon="-8.562238">
        <ele>125.466</ele>
        <time>2019-06-22T09:37:11Z</time>
      </trkpt>
      <trkpt lat="42.782296" lon="-8.562199">
        <ele>125.855</ele>
        <time>2019-06-22T09:37:12Z</time>
      </trkpt>
      <trkpt lat="42.782175" lon="-8.562181">
        <ele>126.070</ele>
        <time>2019-06-22T09:37:13Z</time>
      </trkpt>
      <trkpt lat="42.782044" lon="-8.562175">
        <ele>126.393</ele>
        <time>2019-06-22T09:37:14Z</time>
      </trkpt>
      <trkpt lat="42.781919" lon="-8.562164">
        <ele>126.528</ele>
        <time>2019-06-22T09:37:15Z</time>
      </trkpt>
      <trkpt lat="42.781785" lon="-8.562147">
        <ele>127.189</ele>
        <time>2019-06-22T09:37:16Z</time>
      </trkpt>
      <trkpt lat="42.781659" lon="-8.562129">
        <ele>127.617</ele>
        <time>2019-06-22T09:37:17Z</time>
      </trkpt>
      <trkpt lat="42.781528" lon="-8.562107">
        <ele>128.108</ele>
        <time>2019-06-22T09:37:18Z</time>
      </trkpt>
      <trkpt lat="42.781395" lon="-8.562069">
        <ele>128.345</ele>
        <time>2019-06-22T09:37:19Z</time>
      </trkpt>
      <trkpt lat="42.781261" lon="-8.562030">
        <ele>128.329</ele>
        <time>2019-06-22T09:37:20Z</time>
      </trkpt>
      <trkpt lat="42.781115" lon="-8.561980">
        <ele>128.281</ele>
        <time>2019-06-22T09:37:21Z</time>
      </trkpt>
      <trkpt lat="42.780962" lon="-8.561914">
        <ele>127.723</ele>
        <time>2019-06-22T09:37:22Z</time>
      </trkpt>
      <trkpt lat="42.780804" lon="-8.561842">
        <ele>127.251</ele>
        <time>2019-06-22T09:37:23Z</time>
      </trkpt>
      <trkpt lat="42.780647" lon="-8.561768">
        <ele>126.850</ele>
        <time>2019-06-22T09:37:24Z</time>
      </trkpt>
      <trkpt lat="42.780480" lon="-8.561701">
        <ele>126.345</ele>
        <time>2019-06-22T09:37:25Z</time>
      </trkpt>
      <trkpt lat="42.780307" lon="-8.561626">
        <ele>124.968</ele>
        <time>2019-06-22T09:37:26Z</time>
      </trkpt>
      <trkpt lat="42.780139" lon="-8.561553">
        <ele>123.641</ele>
        <time>2019-06-22T09:37:27Z</time>
      </trkpt>
      <trkpt lat="42.779975" lon="-8.561488">
        <ele>122.181</ele>
        <time>2019-06-22T09:37:28Z</time>
      </trkpt>
      <trkpt lat="42.779814" lon="-8.561423">
        <ele>122.109</ele>
        <time>2019-06-22T09:37:29Z</time>
      </trkpt>
      <trkpt lat="42.779651" lon="-8.561353">
        <ele>118.708</ele>
        <time>2019-06-22T09:37:30Z</time>
      </trkpt>
      <trkpt lat="42.779490" lon="-8.561283">
        <ele>118.747</ele>
        <time>2019-06-22T09:37:31Z</time>
      </trkpt>
      <trkpt lat="42.779347" lon="-8.561222">
        <ele>118.121</ele>
        <time>2019-06-22T09:37:32Z</time>
      </trkpt>
      <trkpt lat="42.779210" lon="-8.561165">
        <ele>117.953</ele>
        <time>2019-06-22T09:37:33Z</time>
      </trkpt>
      <trkpt lat="42.779088" lon="-8.561112">
        <ele>117.875</ele>
        <time>2019-06-22T09:37:34Z</time>
      </trkpt>
      <trkpt lat="42.778975" lon="-8.561067">
        <ele>117.783</ele>
        <time>2019-06-22T09:37:35Z</time>
      </trkpt>
      <trkpt lat="42.778878" lon="-8.561014">
        <ele>117.772</ele>
        <time>2019-06-22T09:37:36Z</time>
      </trkpt>
      <trkpt lat="42.778803" lon="-8.560941">
        <ele>117.567</ele>
        <time>2019-06-22T09:37:37Z</time>
      </trkpt>
      <trkpt lat="42.778746" lon="-8.560844">
        <ele>117.330</ele>
        <time>2019-06-22T09:37:38Z</time>
      </trkpt>
      <trkpt lat="42.778714" lon="-8.560715">
        <ele>117.049</ele>
        <time>2019-06-22T09:37:39Z</time>
      </trkpt>
      <trkpt lat="42.778705" lon="-8.560557">
        <ele>116.802</ele>
        <time>2019-06-22T09:37:40Z</time>
      </trkpt>
      <trkpt lat="42.778713" lon="-8.560381">
        <ele>116.122</ele>
        <time>2019-06-22T09:37:41Z</time>
      </trkpt>
      <trkpt lat="42.778732" lon="-8.560189">
        <ele>115.308</ele>
        <time>2019-06-22T09:37:42Z</time>
      </trkpt>
      <trkpt lat="42.778745" lon="-8.560001">
        <ele>114.057</ele>
        <time>2019-06-22T09:37:43Z</time>
      </trkpt>
      <trkpt lat="42.778758" lon="-8.559810">
        <ele>112.631</ele>
        <time>2019-06-22T09:37:44Z</time>
      </trkpt>
      <trkpt lat="42.778768" lon="-8.559623">
        <ele>111.083</ele>
        <time>2019-06-22T09:37:45Z</time>
      </trkpt>
      <trkpt lat="42.778753" lon="-8.559464">
        <ele>109.465</ele>
        <time>2019-06-22T09:37:46Z</time>
      </trkpt>
      <trkpt lat="42.778727" lon="-8.559309">
        <ele>107.773</ele>
        <time>2019-06-22T09:37:47Z</time>
      </trkpt>
      <trkpt lat="42.778677" lon="-8.559150">
        <ele>105.952</ele>
        <time>2019-06-22T09:37:48Z</time>
      </trkpt>
      <trkpt lat="42.778626" lon="-8.559004">
        <ele>104.527</ele>
        <time>2019-06-22T09:37:49Z</time>
      </trkpt>
      <trkpt lat="42.778552" lon="-8.558884">
        <ele>103.480</ele>
        <time>2019-06-22T09:37:50Z</time>
      </trkpt>
      <trkpt lat="42.778452" lon="-8.558763">
        <ele>102.892</ele>
        <time>2019-06-22T09:37:51Z</time>
      </trkpt>
      <trkpt lat="42.778341" lon="-8.558655">
        <ele>102.473</ele>
        <time>2019-06-22T09:37:52Z</time>
      </trkpt>
      <trkpt lat="42.778242" lon="-8.558560">
        <ele>102.420</ele>
        <time>2019-06-22T09:37:53Z</time>
      </trkpt>
      <trkpt lat="42.778144" lon="-8.558521">
        <ele>102.008</ele>
        <time>2019-06-22T09:37:54Z</time>
      </trkpt>
      <trkpt lat="42.778052" lon="-8.558473">
        <ele>101.212</ele>
        <time>2019-06-22T09:37:55Z</time>
      </trkpt>
      <trkpt lat="42.777935" lon="-8.558429">
        <ele>100.576</ele>
        <time>2019-06-22T09:37:56Z</time>
      </trkpt>
      <trkpt lat="42.777833" lon="-8.558374">
        <ele>99.828</ele>
        <time>2019-06-22T09:37:57Z</time>
      </trkpt>
      <trkpt lat="42.777705" lon="-8.558301">
        <ele>99.140</ele>
        <time>2019-06-22T09:37:58Z</time>
      </trkpt>
      <trkpt lat="42.777577" lon="-8.558246">
        <ele>98.568</ele>
        <time>2019-06-22T09:37:59Z</time>
      </trkpt>
      <trkpt lat="42.777429" lon="-8.558181">
        <ele>98.087</ele>
        <time>2019-06-22T09:38:00Z</time>
      </trkpt>
      <trkpt lat="42.777276" lon="-8.558108">
        <ele>97.142</ele>
        <time>2019-06-22T09:38:01Z</time>
      </trkpt>
      <trkpt lat="42.777122" lon="-8.558039">
        <ele>96.065</ele>
        <time>2019-06-22T09:38:02Z</time>
      </trkpt>
      <trkpt lat="42.776967" lon="-8.557955">
        <ele>94.756</ele>
        <time>2019-06-22T09:38:03Z</time>
      </trkpt>
      <trkpt lat="42.776809" lon="-8.557879">
        <ele>93.159</ele>
        <time>2019-06-22T09:38:04Z</time>
      </trkpt>
      <trkpt lat="42.776651" lon="-8.557798">
        <ele>91.714</ele>
        <time>2019-06-22T09:38:05Z</time>
      </trkpt>
      <trkpt lat="42.776498" lon="-8.557731">
        <ele>90.508</ele>
        <time>2019-06-22T09:38:06Z</time>
      </trkpt>
      <trkpt lat="42.776350" lon="-8.557657">
        <ele>89.578</ele>
        <time>2019-06-22T09:38:07Z</time>
      </trkpt>
      <trkpt lat="42.776204" lon="-8.557585">
        <ele>88.882</ele>
        <time>2019-06-22T09:38:08Z</time>
      </trkpt>
      <trkpt lat="42.776063" lon="-8.557521">
        <ele>88.414</ele>
        <time>2019-06-22T09:38:09Z</time>
      </trkpt>
      <trkpt lat="42.775932" lon="-8.557454">
        <ele>88.396</ele>
        <time>2019-06-22T09:38:10Z</time>
      </trkpt>
      <trkpt lat="42.775812" lon="-8.557389">
        <ele>87.724</ele>
        <time>2019-06-22T09:38:11Z</time>
      </trkpt>
      <trkpt lat="42.775698" lon="-8.557339">
        <ele>87.023</ele>
        <time>2019-06-22T09:38:12Z</time>
      </trkpt>
      <trkpt lat="42.775603" lon="-8.557286">
        <ele>86.418</ele>
        <time>2019-06-22T09:38:13Z</time>
      </trkpt>
      <trkpt lat="42.775509" lon="-8.557242">
        <ele>86.491</ele>
        <time>2019-06-22T09:38:14Z</time>
      </trkpt>
      <trkpt lat="42.775425" lon="-8.557186">
        <ele>86.485</ele>
        <time>2019-06-22T09:38:15Z</time>
      </trkpt>
      <trkpt lat="42.775328" lon="-8.557124">
        <ele>86.589</ele>
        <time>2019-06-22T09:38:16Z</time>
      </trkpt>
      <trkpt lat="42.775239" lon="-8.557041">
        <ele>87.017</ele>
        <time>2019-06-22T09:38:17Z</time>
      </trkpt>
      <trkpt lat="42.775166" lon="-8.556927">
        <ele>87.408</ele>
        <time>2019-06-22T09:38:18Z</time>
      </trkpt>
      <trkpt lat="42.775090" lon="-8.556790">
        <ele>87.491</ele>
        <time>2019-06-22T09:38:19Z</time>
      </trkpt>
      <trkpt lat="42.775021" lon="-8.556627">
        <ele>87.315</ele>
        <time>2019-06-22T09:38:20Z</time>
      </trkpt>
      <trkpt lat="42.774948" lon="-8.556440">
        <ele>86.717</ele>
        <time>2019-06-22T09:38:21Z</time>
      </trkpt>
      <trkpt lat="42.774871" lon="-8.556240">
        <ele>86.349</ele>
        <time>2019-06-22T09:38:22Z</time>
      </trkpt>
      <trkpt lat="42.774783" lon="-8.556049">
        <ele>85.647</ele>
        <time>2019-06-22T09:38:23Z</time>
      </trkpt>
      <trkpt lat="42.774701" lon="-8.555849">
        <ele>84.426</ele>
        <time>2019-06-22T09:38:24Z</time>
      </trkpt>
      <trkpt lat="42.774617" lon="-8.555659">
        <ele>83.661</ele>
        <time>2019-06-22T09:38:25Z</time>
      </trkpt>
      <trkpt lat="42.774533" lon="-8.555475">
        <ele>83.124</ele>
        <time>2019-06-22T09:38:26Z</time>
      </trkpt>
      <trkpt lat="42.774468" lon="-8.555286">
        <ele>82.552</ele>
        <time>2019-06-22T09:38:27Z</time>
      </trkpt>
      <trkpt lat="42.774396" lon="-8.555088">
        <ele>81.853</ele>
        <time>2019-06-22T09:38:28Z</time>
      </trkpt>
      <trkpt lat="42.774316" lon="-8.554899">
        <ele>81.708</ele>
        <time>2019-06-22T09:38:29Z</time>
      </trkpt>
      <trkpt lat="42.774249" lon="-8.554717">
        <ele>81.708</ele>
        <time>2019-06-22T09:38:30Z</time>
      </trkpt>
      <trkpt lat="42.774178" lon="-8.554534">
        <ele>81.418</ele>
        <time>2019-06-22T09:38:31Z</time>
      </trkpt>
      <trkpt lat="42.774113" lon="-8.554365">
        <ele>81.112</ele>
        <time>2019-06-22T09:38:32Z</time>
      </trkpt>
      <trkpt lat="42.774054" lon="-8.554190">
        <ele>80.764</ele>
        <time>2019-06-22T09:38:33Z</time>
      </trkpt>
      <trkpt lat="42.773989" lon="-8.554028">
        <ele>80.676</ele>
        <time>2019-06-22T09:38:34Z</time>
      </trkpt>
      <trkpt lat="42.773916" lon="-8.553891">
        <ele>80.684</ele>
        <time>2019-06-22T09:38:35Z</time>
      </trkpt>
      <trkpt lat="42.773825" lon="-8.553759">
        <ele>80.243</ele>
        <time>2019-06-22T09:38:36Z</time>
      </trkpt>
      <trkpt lat="42.773721" lon="-8.553630">
        <ele>79.748</ele>
        <time>2019-06-22T09:38:37Z</time>
      </trkpt>
      <trkpt lat="42.773580" lon="-8.553515">
        <ele>79.271</ele>
        <time>2019-06-22T09:38:38Z</time>
      </trkpt>
      <trkpt lat="42.773446" lon="-8.553403">
        <ele>78.643</ele>
        <time>2019-06-22T09:38:39Z</time>
      </trkpt>
      <trkpt lat="42.773312" lon="-8.553293">
        <ele>77.964</ele>
        <time>2019-06-22T09:38:40Z</time>
      </trkpt>
      <trkpt lat="42.773177" lon="-8.553189">
        <ele>77.310</ele>
        <time>2019-06-22T09:38:41Z</time>
      </trkpt>
      <trkpt lat="42.773066" lon="-8.553090">
        <ele>76.808</ele>
        <time>2019-06-22T09:38:42Z</time>
      </trkpt>
      <trkpt lat="42.772946" lon="-8.552996">
        <ele>76.327</ele>
        <time>2019-06-22T09:38:43Z</time>
      </trkpt>
      <trkpt lat="42.772830" lon="-8.552909">
        <ele>75.731</ele>
        <time>2019-06-22T09:38:44Z</time>
      </trkpt>
      <trkpt lat="42.772702" lon="-8.552850">
        <ele>75.153</ele>
        <time>2019-06-22T09:38:45Z</time>
      </trkpt>
      <trkpt lat="42.772547" lon="-8.552822">
        <ele>74.555</ele>
        <time>2019-06-22T09:38:46Z</time>
      </trkpt>
      <trkpt lat="42.772404" lon="-8.552782">
        <ele>74.223</ele>
        <time>2019-06-22T09:38:47Z</time>
      </trkpt>
      <trkpt lat="42.772261" lon="-8.552758">
        <ele>73.692</ele>
        <time>2019-06-22T09:38:48Z</time>
      </trkpt>
      <trkpt lat="42.772122" lon="-8.552733">
        <ele>72.717</ele>
        <time>2019-06-22T09:38:49Z</time>
      </trkpt>
      <trkpt lat="42.771976" lon="-8.552694">
        <ele>71.990</ele>
        <time>2019-06-22T09:38:50Z</time>
      </trkpt>
      <trkpt lat="42.771834" lon="-8.552646">
        <ele>71.077</ele>
        <time>2019-06-22T09:38:51Z</time>
      </trkpt>
      <trkpt lat="42.771689" lon="-8.552585">
        <ele>69.961</ele>
        <time>2019-06-22T09:38:52Z</time>
      </trkpt>
      <trkpt lat="42.771546" lon="-8.552497">
        <ele>68.927</ele>
        <time>2019-06-22T09:38:53Z</time>
      </trkpt>
      <trkpt lat="42.771418" lon="-8.552390">
        <ele>68.208</ele>
        <time>2019-06-22T09:38:54Z</time>
      </trkpt>
      <trkpt lat="42.771277" lon="-8.552272">
        <ele>67.140</ele>
        <time>2019-06-22T09:38:55Z</time>
      </trkpt>
      <trkpt lat="42.771130" lon="-8.552160">
        <ele>65.784</ele>
        <time>2019-06-22T09:38:56Z</time>
      </trkpt>
      <trkpt lat="42.770992" lon="-8.552025">
        <ele>64.666</ele>
        <time>2019-06-22T09:38:57Z</time>
      </trkpt>
      <trkpt lat="42.770847" lon="-8.551884">
        <ele>63.388</ele>
        <time>2019-06-22T09:38:58Z</time>
      </trkpt>
      <trkpt lat="42.770710" lon="-8.551742">
        <ele>62.036</ele>
        <time>2019-06-22T09:38:59Z</time>
      </trkpt>
      <trkpt lat="42.770572" lon="-8.551605">
        <ele>61.045</ele>
        <time>2019-06-22T09:39:00Z</time>
      </trkpt>
      <trkpt lat="42.770439" lon="-8.551475">
        <ele>60.250</ele>
        <time>2019-06-22T09:39:01Z</time>
      </trkpt>
      <trkpt lat="42.770307" lon="-8.551335">
        <ele>59.423</ele>
        <time>2019-06-22T09:39:02Z</time>
      </trkpt>
      <trkpt lat="42.770180" lon="-8.551202">
        <ele>58.553</ele>
        <time>2019-06-22T09:39:03Z</time>
      </trkpt>
      <trkpt lat="42.770059" lon="-8.551068">
        <ele>57.504</ele>
        <time>2019-06-22T09:39:04Z</time>
      </trkpt>
      <trkpt lat="42.769941" lon="-8.550940">
        <ele>56.414</ele>
        <time>2019-06-22T09:39:05Z</time>
      </trkpt>
      <trkpt lat="42.769822" lon="-8.550818">
        <ele>55.408</ele>
        <time>2019-06-22T09:39:06Z</time>
      </trkpt>
      <trkpt lat="42.769705" lon="-8.550697">
        <ele>54.498</ele>
        <time>2019-06-22T09:39:07Z</time>
      </trkpt>
      <trkpt lat="42.769592" lon="-8.550570">
        <ele>53.682</ele>
        <time>2019-06-22T09:39:08Z</time>
      </trkpt>
      <trkpt lat="42.769484" lon="-8.550452">
        <ele>53.054</ele>
        <time>2019-06-22T09:39:09Z</time>
      </trkpt>
      <trkpt lat="42.769372" lon="-8.550347">
        <ele>52.576</ele>
        <time>2019-06-22T09:39:10Z</time>
      </trkpt>
      <trkpt lat="42.769262" lon="-8.550238">
        <ele>52.284</ele>
        <time>2019-06-22T09:39:11Z</time>
      </trkpt>
      <trkpt lat="42.769156" lon="-8.550136">
        <ele>51.923</ele>
        <time>2019-06-22T09:39:12Z</time>
      </trkpt>
      <trkpt lat="42.769071" lon="-8.550048">
        <ele>51.248</ele>
        <time>2019-06-22T09:39:13Z</time>
      </trkpt>
      <trkpt lat="42.768990" lon="-8.549972">
        <ele>50.471</ele>
        <time>2019-06-22T09:39:14Z</time>
      </trkpt>
      <trkpt lat="42.768918" lon="-8.549906">
        <ele>50.059</ele>
        <time>2019-06-22T09:39:15Z</time>
      </trkpt>
      <trkpt lat="42.768862" lon="-8.549861">
        <ele>49.603</ele>
        <time>2019-06-22T09:39:16Z</time>
      </trkpt>
      <trkpt lat="42.768816" lon="-8.549826">
        <ele>49.123</ele>
        <time>2019-06-22T09:39:17Z</time>
      </trkpt>
      <trkpt lat="42.768755" lon="-8.549786">
        <ele>49.108</ele>
        <time>2019-06-22T09:39:19Z</time>
      </trkpt>
      <trkpt lat="42.768687" lon="-8.549720">
        <ele>48.628</ele>
        <time>2019-06-22T09:39:24Z</time>
      </trkpt>
      <trkpt lat="42.768530" lon="-8.549672">
        <ele>48.462</ele>
        <time>2019-06-22T09:39:25Z</time>
      </trkpt>
      <trkpt lat="42.768418" lon="-8.549635">
        <ele>48.184</ele>
        <time>2019-06-22T09:39:26Z</time>
      </trkpt>
      <trkpt lat="42.768276" lon="-8.549592">
        <ele>47.686</ele>
        <time>2019-06-22T09:39:27Z</time>
      </trkpt>
      <trkpt lat="42.768125" lon="-8.549548">
        <ele>46.814</ele>
        <time>2019-06-22T09:39:28Z</time>
      </trkpt>
      <trkpt lat="42.767961" lon="-8.549499">
        <ele>45.793</ele>
        <time>2019-06-22T09:39:29Z</time>
      </trkpt>
      <trkpt lat="42.767789" lon="-8.549437">
        <ele>43.918</ele>
        <time>2019-06-22T09:39:30Z</time>
      </trkpt>
      <trkpt lat="42.767615" lon="-8.549386">
        <ele>43.931</ele>
        <time>2019-06-22T09:39:31Z</time>
      </trkpt>
      <trkpt lat="42.767442" lon="-8.549334">
        <ele>42.438</ele>
        <time>2019-06-22T09:39:32Z</time>
      </trkpt>
      <trkpt lat="42.767281" lon="-8.549279">
        <ele>41.270</ele>
        <time>2019-06-22T09:39:33Z</time>
      </trkpt>
      <trkpt lat="42.767122" lon="-8.549223">
        <ele>39.717</ele>
        <time>2019-06-22T09:39:34Z</time>
      </trkpt>
      <trkpt lat="42.766965" lon="-8.549175">
        <ele>38.308</ele>
        <time>2019-06-22T09:39:35Z</time>
      </trkpt>
      <trkpt lat="42.766808" lon="-8.549112">
        <ele>37.546</ele>
        <time>2019-06-22T09:39:36Z</time>
      </trkpt>
      <trkpt lat="42.766652" lon="-8.549038">
        <ele>36.950</ele>
        <time>2019-06-22T09:39:37Z</time>
      </trkpt>
      <trkpt lat="42.766508" lon="-8.548955">
        <ele>36.082</ele>
        <time>2019-06-22T09:39:38Z</time>
      </trkpt>
      <trkpt lat="42.766364" lon="-8.548866">
        <ele>35.454</ele>
        <time>2019-06-22T09:39:39Z</time>
      </trkpt>
      <trkpt lat="42.766230" lon="-8.548764">
        <ele>34.692</ele>
        <time>2019-06-22T09:39:40Z</time>
      </trkpt>
      <trkpt lat="42.766086" lon="-8.548673">
        <ele>34.071</ele>
        <time>2019-06-22T09:39:41Z</time>
      </trkpt>
      <trkpt lat="42.765949" lon="-8.548579">
        <ele>33.146</ele>
        <time>2019-06-22T09:39:42Z</time>
      </trkpt>
      <trkpt lat="42.765813" lon="-8.548488">
        <ele>32.219</ele>
        <time>2019-06-22T09:39:43Z</time>
      </trkpt>
      <trkpt lat="42.765679" lon="-8.548400">
        <ele>30.941</ele>
        <time>2019-06-22T09:39:44Z</time>
      </trkpt>
      <trkpt lat="42.765546" lon="-8.548314">
        <ele>29.881</ele>
        <time>2019-06-22T09:39:45Z</time>
      </trkpt>
      <trkpt lat="42.765413" lon="-8.548227">
        <ele>29.009</ele>
        <time>2019-06-22T09:39:46Z</time>
      </trkpt>
      <trkpt lat="42.765283" lon="-8.548144">
        <ele>28.208</ele>
        <time>2019-06-22T09:39:47Z</time>
      </trkpt>
      <trkpt lat="42.765154" lon="-8.548061">
        <ele>27.767</ele>
        <time>2019-06-22T09:39:48Z</time>
      </trkpt>
      <trkpt lat="42.765021" lon="-8.547979">
        <ele>27.711</ele>
        <time>2019-06-22T09:39:49Z</time>
      </trkpt>
      <trkpt lat="42.764892" lon="-8.547899">
        <ele>27.653</ele>
        <time>2019-06-22T09:39:50Z</time>
      </trkpt>
      <trkpt lat="42.764768" lon="-8.547817">
        <ele>27.345</ele>
        <time>2019-06-22T09:39:51Z</time>
      </trkpt>
      <trkpt lat="42.764645" lon="-8.547734">
        <ele>27.253</ele>
        <time>2019-06-22T09:39:52Z</time>
      </trkpt>
      <trkpt lat="42.764528" lon="-8.547657">
        <ele>27.242</ele>
        <time>2019-06-22T09:39:53Z</time>
      </trkpt>
      <trkpt lat="42.764417" lon="-8.547577">
        <ele>26.987</ele>
        <time>2019-06-22T09:39:54Z</time>
      </trkpt>
      <trkpt lat="42.764309" lon="-8.547501">
        <ele>26.520</ele>
        <time>2019-06-22T09:39:55Z</time>
      </trkpt>
      <trkpt lat="42.764198" lon="-8.547428">
        <ele>26.488</ele>
        <time>2019-06-22T09:39:56Z</time>
      </trkpt>
      <trkpt lat="42.764083" lon="-8.547359">
        <ele>26.424</ele>
        <time>2019-06-22T09:39:57Z</time>
      </trkpt>
      <trkpt lat="42.763963" lon="-8.547291">
        <ele>26.226</ele>
        <time>2019-06-22T09:39:58Z</time>
      </trkpt>
      <trkpt lat="42.763843" lon="-8.547225">
        <ele>26.208</ele>
        <time>2019-06-22T09:39:59Z</time>
      </trkpt>
      <trkpt lat="42.763719" lon="-8.547169">
        <ele>26.131</ele>
        <time>2019-06-22T09:40:00Z</time>
      </trkpt>
      <trkpt lat="42.763592" lon="-8.547120">
        <ele>26.065</ele>
        <time>2019-06-22T09:40:01Z</time>
      </trkpt>
      <trkpt lat="42.763473" lon="-8.547076">
        <ele>26.037</ele>
        <time>2019-06-22T09:40:02Z</time>
      </trkpt>
      <trkpt lat="42.763348" lon="-8.547025">
        <ele>26.089</ele>
        <time>2019-06-22T09:40:03Z</time>
      </trkpt>
      <trkpt lat="42.763222" lon="-8.546981">
        <ele>26.067</ele>
        <time>2019-06-22T09:40:04Z</time>
      </trkpt>
      <trkpt lat="42.763106" lon="-8.546943">
        <ele>26.576</ele>
        <time>2019-06-22T09:40:05Z</time>
      </trkpt>
      <trkpt lat="42.762995" lon="-8.546915">
        <ele>27.111</ele>
        <time>2019-06-22T09:40:06Z</time>
      </trkpt>
      <trkpt lat="42.762900" lon="-8.546883">
        <ele>27.684</ele>
        <time>2019-06-22T09:40:07Z</time>
      </trkpt>
      <trkpt lat="42.762808" lon="-8.546853">
        <ele>28.378</ele>
        <time>2019-06-22T09:40:08Z</time>
      </trkpt>
      <trkpt lat="42.762723" lon="-8.546839">
        <ele>29.133</ele>
        <time>2019-06-22T09:40:09Z</time>
      </trkpt>
      <trkpt lat="42.762648" lon="-8.546826">
        <ele>29.826</ele>
        <time>2019-06-22T09:40:10Z</time>
      </trkpt>
      <trkpt lat="42.762573" lon="-8.546816">
        <ele>30.608</ele>
        <time>2019-06-22T09:40:11Z</time>
      </trkpt>
      <trkpt lat="42.762498" lon="-8.546823">
        <ele>31.210</ele>
        <time>2019-06-22T09:40:12Z</time>
      </trkpt>
      <trkpt lat="42.762425" lon="-8.546832">
        <ele>31.914</ele>
        <time>2019-06-22T09:40:13Z</time>
      </trkpt>
      <trkpt lat="42.762343" lon="-8.546842">
        <ele>32.396</ele>
        <time>2019-06-22T09:40:14Z</time>
      </trkpt>
      <trkpt lat="42.762256" lon="-8.546857">
        <ele>32.898</ele>
        <time>2019-06-22T09:40:15Z</time>
      </trkpt>
      <trkpt lat="42.762159" lon="-8.546874">
        <ele>32.826</ele>
        <time>2019-06-22T09:40:16Z</time>
      </trkpt>
      <trkpt lat="42.762068" lon="-8.546895">
        <ele>32.875</ele>
        <time>2019-06-22T09:40:17Z</time>
      </trkpt>
      <trkpt lat="42.761961" lon="-8.546921">
        <ele>32.730</ele>
        <time>2019-06-22T09:40:18Z</time>
      </trkpt>
      <trkpt lat="42.761861" lon="-8.546938">
        <ele>32.353</ele>
        <time>2019-06-22T09:40:19Z</time>
      </trkpt>
      <trkpt lat="42.761759" lon="-8.546958">
        <ele>31.812</ele>
        <time>2019-06-22T09:40:20Z</time>
      </trkpt>
      <trkpt lat="42.761645" lon="-8.546988">
        <ele>31.232</ele>
        <time>2019-06-22T09:40:21Z</time>
      </trkpt>
      <trkpt lat="42.761540" lon="-8.547008">
        <ele>30.405</ele>
        <time>2019-06-22T09:40:22Z</time>
      </trkpt>
      <trkpt lat="42.761430" lon="-8.547025">
        <ele>29.508</ele>
        <time>2019-06-22T09:40:23Z</time>
      </trkpt>
      <trkpt lat="42.761317" lon="-8.547049">
        <ele>28.934</ele>
        <time>2019-06-22T09:40:24Z</time>
      </trkpt>
      <trkpt lat="42.761188" lon="-8.547086">
        <ele>28.478</ele>
        <time>2019-06-22T09:40:25Z</time>
      </trkpt>
      <trkpt lat="42.761039" lon="-8.547111">
        <ele>27.840</ele>
        <time>2019-06-22T09:40:26Z</time>
      </trkpt>
      <trkpt lat="42.760889" lon="-8.547141">
        <ele>27.352</ele>
        <time>2019-06-22T09:40:27Z</time>
      </trkpt>
      <trkpt lat="42.760736" lon="-8.547164">
        <ele>26.790</ele>
        <time>2019-06-22T09:40:28Z</time>
      </trkpt>
      <trkpt lat="42.760576" lon="-8.547195">
        <ele>25.989</ele>
        <time>2019-06-22T09:40:29Z</time>
      </trkpt>
      <trkpt lat="42.760421" lon="-8.547242">
        <ele>24.724</ele>
        <time>2019-06-22T09:40:30Z</time>
      </trkpt>
      <trkpt lat="42.760277" lon="-8.547282">
        <ele>24.077</ele>
        <time>2019-06-22T09:40:31Z</time>
      </trkpt>
      <trkpt lat="42.760136" lon="-8.547327">
        <ele>24.067</ele>
        <time>2019-06-22T09:40:32Z</time>
      </trkpt>
      <trkpt lat="42.760004" lon="-8.547389">
        <ele>23.381</ele>
        <time>2019-06-22T09:40:33Z</time>
      </trkpt>
      <trkpt lat="42.759882" lon="-8.547447">
        <ele>22.819</ele>
        <time>2019-06-22T09:40:34Z</time>
      </trkpt>
      <trkpt lat="42.759770" lon="-8.547521">
        <ele>22.208</ele>
        <time>2019-06-22T09:40:35Z</time>
      </trkpt>
      <trkpt lat="42.759663" lon="-8.547610">
        <ele>22.199</ele>
        <time>2019-06-22T09:40:36Z</time>
      </trkpt>
      <trkpt lat="42.759549" lon="-8.547710">
        <ele>22.113</ele>
        <time>2019-06-22T09:40:37Z</time>
      </trkpt>
      <trkpt lat="42.759439" lon="-8.547832">
        <ele>22.135</ele>
        <time>2019-06-22T09:40:38Z</time>
      </trkpt>
      <trkpt lat="42.759329" lon="-8.547972">
        <ele>22.147</ele>
        <time>2019-06-22T09:40:39Z</time>
      </trkpt>
      <trkpt lat="42.759229" lon="-8.548122">
        <ele>22.295</ele>
        <time>2019-06-22T09:40:40Z</time>
      </trkpt>
      <trkpt lat="42.759131" lon="-8.548290">
        <ele>22.284</ele>
        <time>2019-06-22T09:40:41Z</time>
      </trkpt>
      <trkpt lat="42.759037" lon="-8.548464">
        <ele>22.019</ele>
        <time>2019-06-22T09:40:42Z</time>
      </trkpt>
      <trkpt lat="42.758947" lon="-8.548634">
        <ele>21.712</ele>
        <time>2019-06-22T09:40:43Z</time>
      </trkpt>
      <trkpt lat="42.758866" lon="-8.548788">
        <ele>21.727</ele>
        <time>2019-06-22T09:40:44Z</time>
      </trkpt>
      <trkpt lat="42.758788" lon="-8.548944">
        <ele>21.868</ele>
        <time>2019-06-22T09:40:45Z</time>
      </trkpt>
      <trkpt lat="42.758700" lon="-8.549111">
        <ele>21.914</ele>
        <time>2019-06-22T09:40:46Z</time>
      </trkpt>
      <trkpt lat="42.758603" lon="-8.549287">
        <ele>22.108</ele>
        <time>2019-06-22T09:40:47Z</time>
      </trkpt>
      <trkpt lat="42.758491" lon="-8.549466">
        <ele>22.355</ele>
        <time>2019-06-22T09:40:48Z</time>
      </trkpt>
      <trkpt lat="42.758364" lon="-8.549653">
        <ele>22.629</ele>
        <time>2019-06-22T09:40:49Z</time>
      </trkpt>
      <trkpt lat="42.758237" lon="-8.549830">
        <ele>22.871</ele>
        <time>2019-06-22T09:40:50Z</time>
      </trkpt>
      <trkpt lat="42.758105" lon="-8.550001">
        <ele>22.963</ele>
        <time>2019-06-22T09:40:51Z</time>
      </trkpt>
      <trkpt lat="42.757969" lon="-8.550162">
        <ele>23.261</ele>
        <time>2019-06-22T09:40:52Z</time>
      </trkpt>
      <trkpt lat="42.757828" lon="-8.550305">
        <ele>23.480</ele>
        <time>2019-06-22T09:40:53Z</time>
      </trkpt>
      <trkpt lat="42.757685" lon="-8.550455">
        <ele>23.915</ele>
        <time>2019-06-22T09:40:54Z</time>
      </trkpt>
      <trkpt lat="42.757531" lon="-8.550595">
        <ele>24.488</ele>
        <time>2019-06-22T09:40:55Z</time>
      </trkpt>
      <trkpt lat="42.757370" lon="-8.550725">
        <ele>25.226</ele>
        <time>2019-06-22T09:40:56Z</time>
      </trkpt>
      <trkpt lat="42.757208" lon="-8.550837">
        <ele>25.947</ele>
        <time>2019-06-22T09:40:57Z</time>
      </trkpt>
      <trkpt lat="42.757041" lon="-8.550946">
        <ele>26.511</ele>
        <time>2019-06-22T09:40:58Z</time>
      </trkpt>
      <trkpt lat="42.756862" lon="-8.551039">
        <ele>27.108</ele>
        <time>2019-06-22T09:40:59Z</time>
      </trkpt>
      <trkpt lat="42.756682" lon="-8.551123">
        <ele>27.625</ele>
        <time>2019-06-22T09:41:00Z</time>
      </trkpt>
      <trkpt lat="42.756501" lon="-8.551197">
        <ele>28.189</ele>
        <time>2019-06-22T09:41:01Z</time>
      </trkpt>
      <trkpt lat="42.756312" lon="-8.551250">
        <ele>28.111</ele>
        <time>2019-06-22T09:41:02Z</time>
      </trkpt>
      <trkpt lat="42.756122" lon="-8.551289">
        <ele>28.283</ele>
        <time>2019-06-22T09:41:03Z</time>
      </trkpt>
      <trkpt lat="42.755934" lon="-8.551329">
        <ele>28.211</ele>
        <time>2019-06-22T09:41:04Z</time>
      </trkpt>
      <trkpt lat="42.755747" lon="-8.551347">
        <ele>29.430</ele>
        <time>2019-06-22T09:41:05Z</time>
      </trkpt>
      <trkpt lat="42.755564" lon="-8.551366">
        <ele>30.745</ele>
        <time>2019-06-22T09:41:06Z</time>
      </trkpt>
      <trkpt lat="42.755387" lon="-8.551373">
        <ele>32.668</ele>
        <time>2019-06-22T09:41:07Z</time>
      </trkpt>
      <trkpt lat="42.755214" lon="-8.551370">
        <ele>35.182</ele>
        <time>2019-06-22T09:41:08Z</time>
      </trkpt>
      <trkpt lat="42.755046" lon="-8.551357">
        <ele>37.343</ele>
        <time>2019-06-22T09:41:09Z</time>
      </trkpt>
      <trkpt lat="42.754870" lon="-8.551344">
        <ele>39.017</ele>
        <time>2019-06-22T09:41:10Z</time>
      </trkpt>
      <trkpt lat="42.754697" lon="-8.551327">
        <ele>39.908</ele>
        <time>2019-06-22T09:41:11Z</time>
      </trkpt>
      <trkpt lat="42.754512" lon="-8.551313">
        <ele>40.851</ele>
        <time>2019-06-22T09:41:12Z</time>
      </trkpt>
      <trkpt lat="42.754331" lon="-8.551284">
        <ele>41.495</ele>
        <time>2019-06-22T09:41:13Z</time>
      </trkpt>
      <trkpt lat="42.754150" lon="-8.551261">
        <ele>41.917</ele>
        <time>2019-06-22T09:41:14Z</time>
      </trkpt>
      <trkpt lat="42.753959" lon="-8.551236">
        <ele>41.969</ele>
        <time>2019-06-22T09:41:15Z</time>
      </trkpt>
      <trkpt lat="42.753764" lon="-8.551209">
        <ele>42.127</ele>
        <time>2019-06-22T09:41:16Z</time>
      </trkpt>
      <trkpt lat="42.753566" lon="-8.551158">
        <ele>42.196</ele>
        <time>2019-06-22T09:41:17Z</time>
      </trkpt>
      <trkpt lat="42.753371" lon="-8.551095">
        <ele>42.271</ele>
        <time>2019-06-22T09:41:18Z</time>
      </trkpt>
      <trkpt lat="42.753175" lon="-8.551014">
        <ele>42.574</ele>
        <time>2019-06-22T09:41:19Z</time>
      </trkpt>
      <trkpt lat="42.752978" lon="-8.550902">
        <ele>42.724</ele>
        <time>2019-06-22T09:41:20Z</time>
      </trkpt>
      <trkpt lat="42.752785" lon="-8.550779">
        <ele>43.204</ele>
        <time>2019-06-22T09:41:21Z</time>
      </trkpt>
      <trkpt lat="42.752593" lon="-8.550641">
        <ele>43.714</ele>
        <time>2019-06-22T09:41:22Z</time>
      </trkpt>
      <trkpt lat="42.752415" lon="-8.550495">
        <ele>44.008</ele>
        <time>2019-06-22T09:41:23Z</time>
      </trkpt>
      <trkpt lat="42.752237" lon="-8.550337">
        <ele>44.585</ele>
        <time>2019-06-22T09:41:24Z</time>
      </trkpt>
      <trkpt lat="42.752073" lon="-8.550169">
        <ele>45.259</ele>
        <time>2019-06-22T09:41:25Z</time>
      </trkpt>
      <trkpt lat="42.751918" lon="-8.549988">
        <ele>45.531</ele>
        <time>2019-06-22T09:41:26Z</time>
      </trkpt>
      <trkpt lat="42.751766" lon="-8.549793">
        <ele>46.023</ele>
        <time>2019-06-22T09:41:27Z</time>
      </trkpt>
      <trkpt lat="42.751616" lon="-8.549591">
        <ele>46.751</ele>
        <time>2019-06-22T09:41:28Z</time>
      </trkpt>
      <trkpt lat="42.751473" lon="-8.549379">
        <ele>47.290</ele>
        <time>2019-06-22T09:41:29Z</time>
      </trkpt>
      <trkpt lat="42.751316" lon="-8.549150">
        <ele>47.815</ele>
        <time>2019-06-22T09:41:30Z</time>
      </trkpt>
      <trkpt lat="42.751161" lon="-8.548918">
        <ele>48.788</ele>
        <time>2019-06-22T09:41:31Z</time>
      </trkpt>
      <trkpt lat="42.750997" lon="-8.548679">
        <ele>49.413</ele>
        <time>2019-06-22T09:41:32Z</time>
      </trkpt>
      <trkpt lat="42.750832" lon="-8.548432">
        <ele>49.443</ele>
        <time>2019-06-22T09:41:33Z</time>
      </trkpt>
      <trkpt lat="42.750671" lon="-8.548175">
        <ele>49.807</ele>
        <time>2019-06-22T09:41:34Z</time>
      </trkpt>
      <trkpt lat="42.750511" lon="-8.547920">
        <ele>50.308</ele>
        <time>2019-06-22T09:41:35Z</time>
      </trkpt>
      <trkpt lat="42.750344" lon="-8.547659">
        <ele>50.324</ele>
        <time>2019-06-22T09:41:36Z</time>
      </trkpt>
      <trkpt lat="42.750176" lon="-8.547404">
        <ele>50.238</ele>
        <time>2019-06-22T09:41:37Z</time>
      </trkpt>
      <trkpt lat="42.750003" lon="-8.547153">
        <ele>49.480</ele>
        <time>2019-06-22T09:41:38Z</time>
      </trkpt>
      <trkpt lat="42.749830" lon="-8.546901">
        <ele>48.972</ele>
        <time>2019-06-22T09:41:39Z</time>
      </trkpt>
      <trkpt lat="42.749664" lon="-8.546661">
        <ele>48.740</ele>
        <time>2019-06-22T09:41:40Z</time>
      </trkpt>
      <trkpt lat="42.749504" lon="-8.546396">
        <ele>48.789</ele>
        <time>2019-06-22T09:41:41Z</time>
      </trkpt>
      <trkpt lat="42.749329" lon="-8.546169">
        <ele>50.154</ele>
        <time>2019-06-22T09:41:42Z</time>
      </trkpt>
      <trkpt lat="42.749167" lon="-8.545950">
        <ele>51.227</ele>
        <time>2019-06-22T09:41:43Z</time>
      </trkpt>
      <trkpt lat="42.748993" lon="-8.545726">
        <ele>52.441</ele>
        <time>2019-06-22T09:41:44Z</time>
      </trkpt>
      <trkpt lat="42.748802" lon="-8.545524">
        <ele>53.981</ele>
        <time>2019-06-22T09:41:45Z</time>
      </trkpt>
      <trkpt lat="42.748609" lon="-8.545348">
        <ele>55.109</ele>
        <time>2019-06-22T09:41:46Z</time>
      </trkpt>
      <trkpt lat="42.748417" lon="-8.545190">
        <ele>56.108</ele>
        <time>2019-06-22T09:41:47Z</time>
      </trkpt>
      <trkpt lat="42.748216" lon="-8.545032">
        <ele>57.437</ele>
        <time>2019-06-22T09:41:48Z</time>
      </trkpt>
      <trkpt lat="42.748008" lon="-8.544924">
        <ele>58.471</ele>
        <time>2019-06-22T09:41:49Z</time>
      </trkpt>
      <trkpt lat="42.747804" lon="-8.544803">
        <ele>59.533</ele>
        <time>2019-06-22T09:41:50Z</time>
      </trkpt>
      <trkpt lat="42.747613" lon="-8.544723">
        <ele>60.565</ele>
        <time>2019-06-22T09:41:51Z</time>
      </trkpt>
      <trkpt lat="42.747434" lon="-8.544660">
        <ele>61.563</ele>
        <time>2019-06-22T09:41:52Z</time>
      </trkpt>
      <trkpt lat="42.747261" lon="-8.544605">
        <ele>63.062</ele>
        <time>2019-06-22T09:41:53Z</time>
      </trkpt>
      <trkpt lat="42.747083" lon="-8.544549">
        <ele>64.737</ele>
        <time>2019-06-22T09:41:54Z</time>
      </trkpt>
      <trkpt lat="42.746900" lon="-8.544509">
        <ele>66.290</ele>
        <time>2019-06-22T09:41:55Z</time>
      </trkpt>
      <trkpt lat="42.746721" lon="-8.544489">
        <ele>67.444</ele>
        <time>2019-06-22T09:41:56Z</time>
      </trkpt>
      <trkpt lat="42.746522" lon="-8.544454">
        <ele>68.605</ele>
        <time>2019-06-22T09:41:57Z</time>
      </trkpt>
      <trkpt lat="42.746314" lon="-8.544423">
        <ele>69.215</ele>
        <time>2019-06-22T09:41:58Z</time>
      </trkpt>
      <trkpt lat="42.746105" lon="-8.544395">
        <ele>69.308</ele>
        <time>2019-06-22T09:41:59Z</time>
      </trkpt>
      <trkpt lat="42.745892" lon="-8.544372">
        <ele>69.327</ele>
        <time>2019-06-22T09:42:00Z</time>
      </trkpt>
      <trkpt lat="42.745675" lon="-8.544349">
        <ele>68.551</ele>
        <time>2019-06-22T09:42:01Z</time>
      </trkpt>
      <trkpt lat="42.745447" lon="-8.544327">
        <ele>67.963</ele>
        <time>2019-06-22T09:42:02Z</time>
      </trkpt>
      <trkpt lat="42.745217" lon="-8.544299">
        <ele>67.375</ele>
        <time>2019-06-22T09:42:03Z</time>
      </trkpt>
      <trkpt lat="42.744995" lon="-8.544260">
        <ele>67.263</ele>
        <time>2019-06-22T09:42:04Z</time>
      </trkpt>
      <trkpt lat="42.744766" lon="-8.544242">
        <ele>67.292</ele>
        <time>2019-06-22T09:42:05Z</time>
      </trkpt>
      <trkpt lat="42.744537" lon="-8.544218">
        <ele>67.497</ele>
        <time>2019-06-22T09:42:06Z</time>
      </trkpt>
      <trkpt lat="42.744309" lon="-8.544195">
        <ele>67.950</ele>
        <time>2019-06-22T09:42:07Z</time>
      </trkpt>
      <trkpt lat="42.744089" lon="-8.544172">
        <ele>68.595</ele>
        <time>2019-06-22T09:42:08Z</time>
      </trkpt>
      <trkpt lat="42.743884" lon="-8.544138">
        <ele>69.049</ele>
        <time>2019-06-22T09:42:09Z</time>
      </trkpt>
      <trkpt lat="42.743680" lon="-8.544106">
        <ele>69.623</ele>
        <time>2019-06-22T09:42:10Z</time>
      </trkpt>
      <trkpt lat="42.743474" lon="-8.544066">
        <ele>70.708</ele>
        <time>2019-06-22T09:42:11Z</time>
      </trkpt>
      <trkpt lat="42.743277" lon="-8.543998">
        <ele>71.572</ele>
        <time>2019-06-22T09:42:12Z</time>
      </trkpt>
      <trkpt lat="42.743093" lon="-8.543933">
        <ele>71.746</ele>
        <time>2019-06-22T09:42:13Z</time>
      </trkpt>
      <trkpt lat="42.742912" lon="-8.543848">
        <ele>72.338</ele>
        <time>2019-06-22T09:42:14Z</time>
      </trkpt>
      <trkpt lat="42.742737" lon="-8.543743">
        <ele>73.140</ele>
        <time>2019-06-22T09:42:15Z</time>
      </trkpt>
      <trkpt lat="42.742546" lon="-8.543634">
        <ele>73.448</ele>
        <time>2019-06-22T09:42:16Z</time>
      </trkpt>
      <trkpt lat="42.742364" lon="-8.543504">
        <ele>73.527</ele>
        <time>2019-06-22T09:42:17Z</time>
      </trkpt>
      <trkpt lat="42.742177" lon="-8.543350">
        <ele>73.712</ele>
        <time>2019-06-22T09:42:18Z</time>
      </trkpt>
      <trkpt lat="42.741993" lon="-8.543179">
        <ele>73.715</ele>
        <time>2019-06-22T09:42:19Z</time>
      </trkpt>
      <trkpt lat="42.741819" lon="-8.542981">
        <ele>72.854</ele>
        <time>2019-06-22T09:42:20Z</time>
      </trkpt>
      <trkpt lat="42.741640" lon="-8.542762">
        <ele>72.056</ele>
        <time>2019-06-22T09:42:21Z</time>
      </trkpt>
      <trkpt lat="42.741471" lon="-8.542514">
        <ele>71.211</ele>
        <time>2019-06-22T09:42:22Z</time>
      </trkpt>
      <trkpt lat="42.741301" lon="-8.542274">
        <ele>69.708</ele>
        <time>2019-06-22T09:42:23Z</time>
      </trkpt>
      <trkpt lat="42.741134" lon="-8.542030">
        <ele>68.458</ele>
        <time>2019-06-22T09:42:24Z</time>
      </trkpt>
      <trkpt lat="42.740971" lon="-8.541787">
        <ele>67.512</ele>
        <time>2019-06-22T09:42:25Z</time>
      </trkpt>
      <trkpt lat="42.740813" lon="-8.541538">
        <ele>66.564</ele>
        <time>2019-06-22T09:42:26Z</time>
      </trkpt>
      <trkpt lat="42.740654" lon="-8.541304">
        <ele>65.986</ele>
        <time>2019-06-22T09:42:27Z</time>
      </trkpt>
      <trkpt lat="42.740499" lon="-8.541067">
        <ele>65.974</ele>
        <time>2019-06-22T09:42:28Z</time>
      </trkpt>
      <trkpt lat="42.740351" lon="-8.540843">
        <ele>66.223</ele>
        <time>2019-06-22T09:42:29Z</time>
      </trkpt>
      <trkpt lat="42.740191" lon="-8.540607">
        <ele>66.888</ele>
        <time>2019-06-22T09:42:30Z</time>
      </trkpt>
      <trkpt lat="42.740043" lon="-8.540382">
        <ele>66.851</ele>
        <time>2019-06-22T09:42:31Z</time>
      </trkpt>
      <trkpt lat="42.739890" lon="-8.540190">
        <ele>66.891</ele>
        <time>2019-06-22T09:42:32Z</time>
      </trkpt>
      <trkpt lat="42.739721" lon="-8.539984">
        <ele>66.781</ele>
        <time>2019-06-22T09:42:33Z</time>
      </trkpt>
      <trkpt lat="42.739550" lon="-8.539797">
        <ele>66.719</ele>
        <time>2019-06-22T09:42:34Z</time>
      </trkpt>
      <trkpt lat="42.739368" lon="-8.539612">
        <ele>66.208</ele>
        <time>2019-06-22T09:42:35Z</time>
      </trkpt>
      <trkpt lat="42.739178" lon="-8.539427">
        <ele>65.472</ele>
        <time>2019-06-22T09:42:36Z</time>
      </trkpt>
      <trkpt lat="42.738986" lon="-8.539297">
        <ele>64.636</ele>
        <time>2019-06-22T09:42:37Z</time>
      </trkpt>
      <trkpt lat="42.738763" lon="-8.539161">
        <ele>63.398</ele>
        <time>2019-06-22T09:42:38Z</time>
      </trkpt>
      <trkpt lat="42.738543" lon="-8.539040">
        <ele>62.510</ele>
        <time>2019-06-22T09:42:39Z</time>
      </trkpt>
      <trkpt lat="42.738308" lon="-8.538913">
        <ele>61.218</ele>
        <time>2019-06-22T09:42:40Z</time>
      </trkpt>
      <trkpt lat="42.738108" lon="-8.538800">
        <ele>59.937</ele>
        <time>2019-06-22T09:42:41Z</time>
      </trkpt>
      <trkpt lat="42.737913" lon="-8.538635">
        <ele>59.282</ele>
        <time>2019-06-22T09:42:42Z</time>
      </trkpt>
      <trkpt lat="42.737731" lon="-8.538456">
        <ele>58.515</ele>
        <time>2019-06-22T09:42:43Z</time>
      </trkpt>
      <trkpt lat="42.737530" lon="-8.538259">
        <ele>57.498</ele>
        <time>2019-06-22T09:42:44Z</time>
      </trkpt>
      <trkpt lat="42.737343" lon="-8.538035">
        <ele>56.215</ele>
        <time>2019-06-22T09:42:45Z</time>
      </trkpt>
      <trkpt lat="42.737166" lon="-8.537790">
        <ele>55.326</ele>
        <time>2019-06-22T09:42:46Z</time>
      </trkpt>
      <trkpt lat="42.736994" lon="-8.537545">
        <ele>53.808</ele>
        <time>2019-06-22T09:42:47Z</time>
      </trkpt>
      <trkpt lat="42.736832" lon="-8.537297">
        <ele>52.752</ele>
        <time>2019-06-22T09:42:48Z</time>
      </trkpt>
      <trkpt lat="42.736660" lon="-8.537049">
        <ele>51.626</ele>
        <time>2019-06-22T09:42:49Z</time>
      </trkpt>
      <trkpt lat="42.736499" lon="-8.536803">
        <ele>50.958</ele>
        <time>2019-06-22T09:42:50Z</time>
      </trkpt>
      <trkpt lat="42.736342" lon="-8.536565">
        <ele>50.370</ele>
        <time>2019-06-22T09:42:51Z</time>
      </trkpt>
      <trkpt lat="42.736191" lon="-8.536334">
        <ele>50.148</ele>
        <time>2019-06-22T09:42:52Z</time>
      </trkpt>
      <trkpt lat="42.736049" lon="-8.536092">
        <ele>50.117</ele>
        <time>2019-06-22T09:42:53Z</time>
      </trkpt>
      <trkpt lat="42.735921" lon="-8.535846">
        <ele>50.782</ele>
        <time>2019-06-22T09:42:54Z</time>
      </trkpt>
      <trkpt lat="42.735815" lon="-8.535584">
        <ele>51.345</ele>
        <time>2019-06-22T09:42:55Z</time>
      </trkpt>
      <trkpt lat="42.735739" lon="-8.535312">
        <ele>52.213</ele>
        <time>2019-06-22T09:42:56Z</time>
      </trkpt>
      <trkpt lat="42.735690" lon="-8.535026">
        <ele>52.743</ele>
        <time>2019-06-22T09:42:57Z</time>
      </trkpt>
      <trkpt lat="42.735651" lon="-8.534727">
        <ele>53.407</ele>
        <time>2019-06-22T09:42:58Z</time>
      </trkpt>
      <trkpt lat="42.735620" lon="-8.534430">
        <ele>54.108</ele>
        <time>2019-06-22T09:42:59Z</time>
      </trkpt>
      <trkpt lat="42.735592" lon="-8.534137">
        <ele>54.474</ele>
        <time>2019-06-22T09:43:00Z</time>
      </trkpt>
      <trkpt lat="42.735568" lon="-8.533835">
        <ele>54.848</ele>
        <time>2019-06-22T09:43:01Z</time>
      </trkpt>
      <trkpt lat="42.735547" lon="-8.533529">
        <ele>55.450</ele>
        <time>2019-06-22T09:43:02Z</time>
      </trkpt>
      <trkpt lat="42.735521" lon="-8.533218">
        <ele>55.882</ele>
        <time>2019-06-22T09:43:03Z</time>
      </trkpt>
      <trkpt lat="42.735479" lon="-8.532917">
        <ele>56.090</ele>
        <time>2019-06-22T09:43:04Z</time>
      </trkpt>
      <trkpt lat="42.735421" lon="-8.532620">
        <ele>56.529</ele>
        <time>2019-06-22T09:43:05Z</time>
      </trkpt>
      <trkpt lat="42.735367" lon="-8.532324">
        <ele>57.754</ele>
        <time>2019-06-22T09:43:06Z</time>
      </trkpt>
      <trkpt lat="42.735304" lon="-8.532024">
        <ele>58.637</ele>
        <time>2019-06-22T09:43:07Z</time>
      </trkpt>
      <trkpt lat="42.735243" lon="-8.531728">
        <ele>59.968</ele>
        <time>2019-06-22T09:43:08Z</time>
      </trkpt>
      <trkpt lat="42.735174" lon="-8.531439">
        <ele>61.542</ele>
        <time>2019-06-22T09:43:09Z</time>
      </trkpt>
      <trkpt lat="42.735105" lon="-8.531136">
        <ele>62.926</ele>
        <time>2019-06-22T09:43:10Z</time>
      </trkpt>
      <trkpt lat="42.735017" lon="-8.530846">
        <ele>63.608</ele>
        <time>2019-06-22T09:43:11Z</time>
      </trkpt>
      <trkpt lat="42.734921" lon="-8.530578">
        <ele>64.239</ele>
        <time>2019-06-22T09:43:12Z</time>
      </trkpt>
      <trkpt lat="42.734801" lon="-8.530332">
        <ele>64.793</ele>
        <time>2019-06-22T09:43:13Z</time>
      </trkpt>
      <trkpt lat="42.734668" lon="-8.530104">
        <ele>65.985</ele>
        <time>2019-06-22T09:43:14Z</time>
      </trkpt>
      <trkpt lat="42.734518" lon="-8.529899">
        <ele>66.817</ele>
        <time>2019-06-22T09:43:15Z</time>
      </trkpt>
      <trkpt lat="42.734353" lon="-8.529715">
        <ele>68.655</ele>
        <time>2019-06-22T09:43:16Z</time>
      </trkpt>
      <trkpt lat="42.734174" lon="-8.529539">
        <ele>70.464</ele>
        <time>2019-06-22T09:43:17Z</time>
      </trkpt>
      <trkpt lat="42.733990" lon="-8.529386">
        <ele>72.399</ele>
        <time>2019-06-22T09:43:18Z</time>
      </trkpt>
      <trkpt lat="42.733804" lon="-8.529229">
        <ele>74.152</ele>
        <time>2019-06-22T09:43:19Z</time>
      </trkpt>
      <trkpt lat="42.733633" lon="-8.529088">
        <ele>76.516</ele>
        <time>2019-06-22T09:43:20Z</time>
      </trkpt>
      <trkpt lat="42.733452" lon="-8.528951">
        <ele>78.876</ele>
        <time>2019-06-22T09:43:21Z</time>
      </trkpt>
      <trkpt lat="42.733269" lon="-8.528829">
        <ele>81.113</ele>
        <time>2019-06-22T09:43:22Z</time>
      </trkpt>
      <trkpt lat="42.733088" lon="-8.528696">
        <ele>83.108</ele>
        <time>2019-06-22T09:43:23Z</time>
      </trkpt>
      <trkpt lat="42.732908" lon="-8.528567">
        <ele>84.844</ele>
        <time>2019-06-22T09:43:24Z</time>
      </trkpt>
      <trkpt lat="42.732733" lon="-8.528442">
        <ele>86.858</ele>
        <time>2019-06-22T09:43:25Z</time>
      </trkpt>
      <trkpt lat="42.732557" lon="-8.528310">
        <ele>88.090</ele>
        <time>2019-06-22T09:43:26Z</time>
      </trkpt>
      <trkpt lat="42.732382" lon="-8.528197">
        <ele>89.772</ele>
        <time>2019-06-22T09:43:27Z</time>
      </trkpt>
      <trkpt lat="42.732203" lon="-8.528084">
        <ele>91.120</ele>
        <time>2019-06-22T09:43:28Z</time>
      </trkpt>
      <trkpt lat="42.732020" lon="-8.527981">
        <ele>93.079</ele>
        <time>2019-06-22T09:43:29Z</time>
      </trkpt>
      <trkpt lat="42.731828" lon="-8.527889">
        <ele>94.224</ele>
        <time>2019-06-22T09:43:30Z</time>
      </trkpt>
      <trkpt lat="42.731621" lon="-8.527854">
        <ele>95.367</ele>
        <time>2019-06-22T09:43:31Z</time>
      </trkpt>
      <trkpt lat="42.731415" lon="-8.527810">
        <ele>95.631</ele>
        <time>2019-06-22T09:43:32Z</time>
      </trkpt>
      <trkpt lat="42.731208" lon="-8.527805">
        <ele>96.561</ele>
        <time>2019-06-22T09:43:33Z</time>
      </trkpt>
      <trkpt lat="42.730999" lon="-8.527776">
        <ele>97.607</ele>
        <time>2019-06-22T09:43:34Z</time>
      </trkpt>
      <trkpt lat="42.730781" lon="-8.527726">
        <ele>97.608</ele>
        <time>2019-06-22T09:43:35Z</time>
      </trkpt>
      <trkpt lat="42.730569" lon="-8.527649">
        <ele>98.726</ele>
        <time>2019-06-22T09:43:36Z</time>
      </trkpt>
      <trkpt lat="42.730365" lon="-8.527566">
        <ele>100.280</ele>
        <time>2019-06-22T09:43:37Z</time>
      </trkpt>
      <trkpt lat="42.730180" lon="-8.527422">
        <ele>102.272</ele>
        <time>2019-06-22T09:43:38Z</time>
      </trkpt>
      <trkpt lat="42.729988" lon="-8.527252">
        <ele>104.464</ele>
        <time>2019-06-22T09:43:39Z</time>
      </trkpt>
      <trkpt lat="42.729815" lon="-8.527084">
        <ele>105.682</ele>
        <time>2019-06-22T09:43:40Z</time>
      </trkpt>
      <trkpt lat="42.729632" lon="-8.526915">
        <ele>106.841</ele>
        <time>2019-06-22T09:43:41Z</time>
      </trkpt>
      <trkpt lat="42.729462" lon="-8.526743">
        <ele>107.956</ele>
        <time>2019-06-22T09:43:42Z</time>
      </trkpt>
      <trkpt lat="42.729291" lon="-8.526560">
        <ele>108.719</ele>
        <time>2019-06-22T09:43:43Z</time>
      </trkpt>
      <trkpt lat="42.729124" lon="-8.526390">
        <ele>109.752</ele>
        <time>2019-06-22T09:43:44Z</time>
      </trkpt>
      <trkpt lat="42.728931" lon="-8.526213">
        <ele>110.953</ele>
        <time>2019-06-22T09:43:45Z</time>
      </trkpt>
      <trkpt lat="42.728747" lon="-8.526031">
        <ele>111.708</ele>
        <time>2019-06-22T09:43:46Z</time>
      </trkpt>
      <trkpt lat="42.728559" lon="-8.525855">
        <ele>113.108</ele>
        <time>2019-06-22T09:43:47Z</time>
      </trkpt>
      <trkpt lat="42.728384" lon="-8.525656">
        <ele>114.858</ele>
        <time>2019-06-22T09:43:48Z</time>
      </trkpt>
      <trkpt lat="42.728201" lon="-8.525464">
        <ele>116.482</ele>
        <time>2019-06-22T09:43:49Z</time>
      </trkpt>
      <trkpt lat="42.728015" lon="-8.525281">
        <ele>117.954</ele>
        <time>2019-06-22T09:43:50Z</time>
      </trkpt>
      <trkpt lat="42.727833" lon="-8.525092">
        <ele>119.516</ele>
        <time>2019-06-22T09:43:51Z</time>
      </trkpt>
      <trkpt lat="42.727642" lon="-8.524901">
        <ele>121.024</ele>
        <time>2019-06-22T09:43:52Z</time>
      </trkpt>
      <trkpt lat="42.727461" lon="-8.524716">
        <ele>122.263</ele>
        <time>2019-06-22T09:43:53Z</time>
      </trkpt>
      <trkpt lat="42.727275" lon="-8.524519">
        <ele>123.518</ele>
        <time>2019-06-22T09:43:54Z</time>
      </trkpt>
      <trkpt lat="42.727096" lon="-8.524330">
        <ele>124.721</ele>
        <time>2019-06-22T09:43:55Z</time>
      </trkpt>
      <trkpt lat="42.726909" lon="-8.524144">
        <ele>126.359</ele>
        <time>2019-06-22T09:43:56Z</time>
      </trkpt>
      <trkpt lat="42.726726" lon="-8.523960">
        <ele>128.003</ele>
        <time>2019-06-22T09:43:57Z</time>
      </trkpt>
      <trkpt lat="42.726534" lon="-8.523771">
        <ele>129.823</ele>
        <time>2019-06-22T09:43:58Z</time>
      </trkpt>
      <trkpt lat="42.726341" lon="-8.523584">
        <ele>131.108</ele>
        <time>2019-06-22T09:43:59Z</time>
      </trkpt>
      <trkpt lat="42.726149" lon="-8.523389">
        <ele>132.878</ele>
        <time>2019-06-22T09:44:00Z</time>
      </trkpt>
      <trkpt lat="42.725963" lon="-8.523192">
        <ele>134.212</ele>
        <time>2019-06-22T09:44:01Z</time>
      </trkpt>
      <trkpt lat="42.725766" lon="-8.523005">
        <ele>135.344</ele>
        <time>2019-06-22T09:44:02Z</time>
      </trkpt>
      <trkpt lat="42.725576" lon="-8.522825">
        <ele>136.656</ele>
        <time>2019-06-22T09:44:03Z</time>
      </trkpt>
      <trkpt lat="42.725389" lon="-8.522644">
        <ele>138.174</ele>
        <time>2019-06-22T09:44:04Z</time>
      </trkpt>
      <trkpt lat="42.725190" lon="-8.522445">
        <ele>139.513</ele>
        <time>2019-06-22T09:44:05Z</time>
      </trkpt>
      <trkpt lat="42.724990" lon="-8.522256">
        <ele>140.348</ele>
        <time>2019-06-22T09:44:06Z</time>
      </trkpt>
      <trkpt lat="42.724803" lon="-8.522053">
        <ele>141.381</ele>
        <time>2019-06-22T09:44:07Z</time>
      </trkpt>
      <trkpt lat="42.724626" lon="-8.521870">
        <ele>142.475</ele>
        <time>2019-06-22T09:44:08Z</time>
      </trkpt>
      <trkpt lat="42.724449" lon="-8.521686">
        <ele>143.628</ele>
        <time>2019-06-22T09:44:09Z</time>
      </trkpt>
      <trkpt lat="42.724266" lon="-8.521520">
        <ele>145.520</ele>
        <time>2019-06-22T09:44:10Z</time>
      </trkpt>
      <trkpt lat="42.724070" lon="-8.521334">
        <ele>147.808</ele>
        <time>2019-06-22T09:44:11Z</time>
      </trkpt>
      <trkpt lat="42.723886" lon="-8.521163">
        <ele>150.140</ele>
        <time>2019-06-22T09:44:12Z</time>
      </trkpt>
      <trkpt lat="42.723700" lon="-8.521002">
        <ele>152.084</ele>
        <time>2019-06-22T09:44:13Z</time>
      </trkpt>
      <trkpt lat="42.723507" lon="-8.520862">
        <ele>153.666</ele>
        <time>2019-06-22T09:44:14Z</time>
      </trkpt>
      <trkpt lat="42.723289" lon="-8.520785">
        <ele>155.298</ele>
        <time>2019-06-22T09:44:15Z</time>
      </trkpt>
      <trkpt lat="42.723073" lon="-8.520719">
        <ele>157.026</ele>
        <time>2019-06-22T09:44:16Z</time>
      </trkpt>
      <trkpt lat="42.722856" lon="-8.520659">
        <ele>159.235</ele>
        <time>2019-06-22T09:44:17Z</time>
      </trkpt>
      <trkpt lat="42.722635" lon="-8.520662">
        <ele>162.030</ele>
        <time>2019-06-22T09:44:18Z</time>
      </trkpt>
      <trkpt lat="42.722414" lon="-8.520651">
        <ele>165.073</ele>
        <time>2019-06-22T09:44:19Z</time>
      </trkpt>
      <trkpt lat="42.722204" lon="-8.520651">
        <ele>167.747</ele>
        <time>2019-06-22T09:44:20Z</time>
      </trkpt>
      <trkpt lat="42.721990" lon="-8.520650">
        <ele>170.429</ele>
        <time>2019-06-22T09:44:21Z</time>
      </trkpt>
      <trkpt lat="42.721776" lon="-8.520640">
        <ele>172.921</ele>
        <time>2019-06-22T09:44:22Z</time>
      </trkpt>
      <trkpt lat="42.721570" lon="-8.520586">
        <ele>175.008</ele>
        <time>2019-06-22T09:44:23Z</time>
      </trkpt>
      <trkpt lat="42.721356" lon="-8.520527">
        <ele>177.137</ele>
        <time>2019-06-22T09:44:24Z</time>
      </trkpt>
      <trkpt lat="42.721147" lon="-8.520461">
        <ele>179.521</ele>
        <time>2019-06-22T09:44:25Z</time>
      </trkpt>
      <trkpt lat="42.720944" lon="-8.520351">
        <ele>181.693</ele>
        <time>2019-06-22T09:44:26Z</time>
      </trkpt>
      <trkpt lat="42.720745" lon="-8.520244">
        <ele>183.645</ele>
        <time>2019-06-22T09:44:27Z</time>
      </trkpt>
      <trkpt lat="42.720545" lon="-8.520135">
        <ele>185.413</ele>
        <time>2019-06-22T09:44:28Z</time>
      </trkpt>
      <trkpt lat="42.720381" lon="-8.519948">
        <ele>187.542</ele>
        <time>2019-06-22T09:44:29Z</time>
      </trkpt>
      <trkpt lat="42.720210" lon="-8.519781">
        <ele>189.147</ele>
        <time>2019-06-22T09:44:30Z</time>
      </trkpt>
      <trkpt lat="42.720043" lon="-8.519596">
        <ele>190.730</ele>
        <time>2019-06-22T09:44:31Z</time>
      </trkpt>
      <trkpt lat="42.719869" lon="-8.519405">
        <ele>192.771</ele>
        <time>2019-06-22T09:44:32Z</time>
      </trkpt>
      <trkpt lat="42.719688" lon="-8.519219">
        <ele>192.741</ele>
        <time>2019-06-22T09:44:33Z</time>
      </trkpt>
      <trkpt lat="42.719520" lon="-8.519039">
        <ele>194.915</ele>
        <time>2019-06-22T09:44:34Z</time>
      </trkpt>
      <trkpt lat="42.719340" lon="-8.518849">
        <ele>196.908</ele>
        <time>2019-06-22T09:44:35Z</time>
      </trkpt>
      <trkpt lat="42.719163" lon="-8.518665">
        <ele>199.190</ele>
        <time>2019-06-22T09:44:36Z</time>
      </trkpt>
      <trkpt lat="42.718983" lon="-8.518495">
        <ele>201.354</ele>
        <time>2019-06-22T09:44:37Z</time>
      </trkpt>
      <trkpt lat="42.718793" lon="-8.518330">
        <ele>203.356</ele>
        <time>2019-06-22T09:44:38Z</time>
      </trkpt>
      <trkpt lat="42.718597" lon="-8.518174">
        <ele>205.398</ele>
        <time>2019-06-22T09:44:39Z</time>
      </trkpt>
      <trkpt lat="42.718407" lon="-8.518023">
        <ele>207.486</ele>
        <time>2019-06-22T09:44:40Z</time>
      </trkpt>
      <trkpt lat="42.718216" lon="-8.517875">
        <ele>209.435</ele>
        <time>2019-06-22T09:44:41Z</time>
      </trkpt>
      <trkpt lat="42.718029" lon="-8.517736">
        <ele>211.440</ele>
        <time>2019-06-22T09:44:42Z</time>
      </trkpt>
      <trkpt lat="42.717839" lon="-8.517592">
        <ele>213.353</ele>
        <time>2019-06-22T09:44:43Z</time>
      </trkpt>
      <trkpt lat="42.717641" lon="-8.517434">
        <ele>214.821</ele>
        <time>2019-06-22T09:44:44Z</time>
      </trkpt>
      <trkpt lat="42.717448" lon="-8.517285">
        <ele>216.541</ele>
        <time>2019-06-22T09:44:45Z</time>
      </trkpt>
      <trkpt lat="42.717262" lon="-8.517136">
        <ele>218.105</ele>
        <time>2019-06-22T09:44:46Z</time>
      </trkpt>
      <trkpt lat="42.717073" lon="-8.516967">
        <ele>219.508</ele>
        <time>2019-06-22T09:44:47Z</time>
      </trkpt>
      <trkpt lat="42.716879" lon="-8.516784">
        <ele>220.945</ele>
        <time>2019-06-22T09:44:48Z</time>
      </trkpt>
      <trkpt lat="42.716700" lon="-8.516581">
        <ele>222.159</ele>
        <time>2019-06-22T09:44:49Z</time>
      </trkpt>
      <trkpt lat="42.716538" lon="-8.516364">
        <ele>223.231</ele>
        <time>2019-06-22T09:44:50Z</time>
      </trkpt>
      <trkpt lat="42.716387" lon="-8.516135">
        <ele>224.383</ele>
        <time>2019-06-22T09:44:51Z</time>
      </trkpt>
      <trkpt lat="42.716236" lon="-8.515871">
        <ele>225.191</ele>
        <time>2019-06-22T09:44:52Z</time>
      </trkpt>
      <trkpt lat="42.716113" lon="-8.515615">
        <ele>225.930</ele>
        <time>2019-06-22T09:44:53Z</time>
      </trkpt>
      <trkpt lat="42.715984" lon="-8.515356">
        <ele>226.535</ele>
        <time>2019-06-22T09:44:54Z</time>
      </trkpt>
      <trkpt lat="42.715849" lon="-8.515090">
        <ele>226.798</ele>
        <time>2019-06-22T09:44:55Z</time>
      </trkpt>
      <trkpt lat="42.715720" lon="-8.514846">
        <ele>226.788</ele>
        <time>2019-06-22T09:44:56Z</time>
      </trkpt>
      <trkpt lat="42.715599" lon="-8.514617">
        <ele>226.724</ele>
        <time>2019-06-22T09:44:57Z</time>
      </trkpt>
      <trkpt lat="42.715480" lon="-8.514398">
        <ele>226.926</ele>
        <time>2019-06-22T09:44:58Z</time>
      </trkpt>
      <trkpt lat="42.715373" lon="-8.514194">
        <ele>227.708</ele>
        <time>2019-06-22T09:44:59Z</time>
      </trkpt>
      <trkpt lat="42.715280" lon="-8.514008">
        <ele>228.611</ele>
        <time>2019-06-22T09:45:00Z</time>
      </trkpt>
      <trkpt lat="42.715199" lon="-8.513835">
        <ele>229.815</ele>
        <time>2019-06-22T09:45:01Z</time>
      </trkpt>
      <trkpt lat="42.715116" lon="-8.513676">
        <ele>231.267</ele>
        <time>2019-06-22T09:45:02Z</time>
      </trkpt>
      <trkpt lat="42.715037" lon="-8.513528">
        <ele>231.789</ele>
        <time>2019-06-22T09:45:03Z</time>
      </trkpt>
      <trkpt lat="42.714960" lon="-8.513385">
        <ele>232.857</ele>
        <time>2019-06-22T09:45:04Z</time>
      </trkpt>
      <trkpt lat="42.714877" lon="-8.513261">
        <ele>233.616</ele>
        <time>2019-06-22T09:45:05Z</time>
      </trkpt>
      <trkpt lat="42.714800" lon="-8.513142">
        <ele>233.841</ele>
        <time>2019-06-22T09:45:06Z</time>
      </trkpt>
      <trkpt lat="42.714719" lon="-8.513040">
        <ele>234.334</ele>
        <time>2019-06-22T09:45:07Z</time>
      </trkpt>
      <trkpt lat="42.714644" lon="-8.512951">
        <ele>234.511</ele>
        <time>2019-06-22T09:45:08Z</time>
      </trkpt>
      <trkpt lat="42.714568" lon="-8.512878">
        <ele>234.521</ele>
        <time>2019-06-22T09:45:09Z</time>
      </trkpt>
      <trkpt lat="42.714491" lon="-8.512819">
        <ele>234.503</ele>
        <time>2019-06-22T09:45:10Z</time>
      </trkpt>
      <trkpt lat="42.714432" lon="-8.512768">
        <ele>235.208</ele>
        <time>2019-06-22T09:45:11Z</time>
      </trkpt>
      <trkpt lat="42.714368" lon="-8.512697">
        <ele>236.394</ele>
        <time>2019-06-22T09:45:12Z</time>
      </trkpt>
      <trkpt lat="42.714325" lon="-8.512602">
        <ele>237.388</ele>
        <time>2019-06-22T09:45:13Z</time>
      </trkpt>
      <trkpt lat="42.714295" lon="-8.512474">
        <ele>238.020</ele>
        <time>2019-06-22T09:45:14Z</time>
      </trkpt>
      <trkpt lat="42.714267" lon="-8.512325">
        <ele>238.582</ele>
        <time>2019-06-22T09:45:15Z</time>
      </trkpt>
      <trkpt lat="42.714231" lon="-8.512169">
        <ele>238.540</ele>
        <time>2019-06-22T09:45:16Z</time>
      </trkpt>
      <trkpt lat="42.714168" lon="-8.512001">
        <ele>238.389</ele>
        <time>2019-06-22T09:45:17Z</time>
      </trkpt>
      <trkpt lat="42.714089" lon="-8.511829">
        <ele>237.534</ele>
        <time>2019-06-22T09:45:18Z</time>
      </trkpt>
      <trkpt lat="42.713995" lon="-8.511643">
        <ele>236.537</ele>
        <time>2019-06-22T09:45:19Z</time>
      </trkpt>
      <trkpt lat="42.713905" lon="-8.511453">
        <ele>235.256</ele>
        <time>2019-06-22T09:45:20Z</time>
      </trkpt>
      <trkpt lat="42.713801" lon="-8.511255">
        <ele>234.159</ele>
        <time>2019-06-22T09:45:21Z</time>
      </trkpt>
      <trkpt lat="42.713692" lon="-8.511054">
        <ele>233.214</ele>
        <time>2019-06-22T09:45:22Z</time>
      </trkpt>
      <trkpt lat="42.713576" lon="-8.510846">
        <ele>232.808</ele>
        <time>2019-06-22T09:45:23Z</time>
      </trkpt>
      <trkpt lat="42.713465" lon="-8.510629">
        <ele>232.518</ele>
        <time>2019-06-22T09:45:24Z</time>
      </trkpt>
      <trkpt lat="42.713350" lon="-8.510410">
        <ele>232.162</ele>
        <time>2019-06-22T09:45:25Z</time>
      </trkpt>
      <trkpt lat="42.713238" lon="-8.510183">
        <ele>231.594</ele>
        <time>2019-06-22T09:45:26Z</time>
      </trkpt>
      <trkpt lat="42.713135" lon="-8.509953">
        <ele>230.556</ele>
        <time>2019-06-22T09:45:27Z</time>
      </trkpt>
      <trkpt lat="42.713038" lon="-8.509718">
        <ele>229.774</ele>
        <time>2019-06-22T09:45:28Z</time>
      </trkpt>
      <trkpt lat="42.712948" lon="-8.509484">
        <ele>229.053</ele>
        <time>2019-06-22T09:45:29Z</time>
      </trkpt>
      <trkpt lat="42.712856" lon="-8.509251">
        <ele>228.738</ele>
        <time>2019-06-22T09:45:30Z</time>
      </trkpt>
      <trkpt lat="42.712773" lon="-8.509020">
        <ele>228.761</ele>
        <time>2019-06-22T09:45:31Z</time>
      </trkpt>
      <trkpt lat="42.712691" lon="-8.508799">
        <ele>229.145</ele>
        <time>2019-06-22T09:45:32Z</time>
      </trkpt>
      <trkpt lat="42.712596" lon="-8.508562">
        <ele>229.347</ele>
        <time>2019-06-22T09:45:33Z</time>
      </trkpt>
      <trkpt lat="42.712503" lon="-8.508325">
        <ele>229.311</ele>
        <time>2019-06-22T09:45:34Z</time>
      </trkpt>
      <trkpt lat="42.712400" lon="-8.508091">
        <ele>229.308</ele>
        <time>2019-06-22T09:45:35Z</time>
      </trkpt>
      <trkpt lat="42.712272" lon="-8.507888">
        <ele>229.337</ele>
        <time>2019-06-22T09:45:36Z</time>
      </trkpt>
      <trkpt lat="42.712134" lon="-8.507692">
        <ele>229.141</ele>
        <time>2019-06-22T09:45:37Z</time>
      </trkpt>
      <trkpt lat="42.711986" lon="-8.507490">
        <ele>228.293</ele>
        <time>2019-06-22T09:45:38Z</time>
      </trkpt>
      <trkpt lat="42.711823" lon="-8.507313">
        <ele>226.765</ele>
        <time>2019-06-22T09:45:39Z</time>
      </trkpt>
      <trkpt lat="42.711652" lon="-8.507148">
        <ele>225.673</ele>
        <time>2019-06-22T09:45:40Z</time>
      </trkpt>
      <trkpt lat="42.711452" lon="-8.507009">
        <ele>224.162</ele>
        <time>2019-06-22T09:45:41Z</time>
      </trkpt>
      <trkpt lat="42.711246" lon="-8.506902">
        <ele>222.357</ele>
        <time>2019-06-22T09:45:42Z</time>
      </trkpt>
      <trkpt lat="42.711023" lon="-8.506777">
        <ele>220.890</ele>
        <time>2019-06-22T09:45:43Z</time>
      </trkpt>
      <trkpt lat="42.710804" lon="-8.506658">
        <ele>219.231</ele>
        <time>2019-06-22T09:45:44Z</time>
      </trkpt>
      <trkpt lat="42.710592" lon="-8.506544">
        <ele>216.361</ele>
        <time>2019-06-22T09:45:45Z</time>
      </trkpt>
      <trkpt lat="42.710369" lon="-8.506414">
        <ele>213.707</ele>
        <time>2019-06-22T09:45:46Z</time>
      </trkpt>
      <trkpt lat="42.710149" lon="-8.506266">
        <ele>210.708</ele>
        <time>2019-06-22T09:45:47Z</time>
      </trkpt>
      <trkpt lat="42.709920" lon="-8.506117">
        <ele>208.986</ele>
        <time>2019-06-22T09:45:48Z</time>
      </trkpt>
      <trkpt lat="42.709687" lon="-8.505947">
        <ele>206.460</ele>
        <time>2019-06-22T09:45:49Z</time>
      </trkpt>
      <trkpt lat="42.709448" lon="-8.505779">
        <ele>205.222</ele>
        <time>2019-06-22T09:45:50Z</time>
      </trkpt>
      <trkpt lat="42.709214" lon="-8.505607">
        <ele>204.454</ele>
        <time>2019-06-22T09:45:51Z</time>
      </trkpt>
      <trkpt lat="42.708990" lon="-8.505427">
        <ele>203.942</ele>
        <time>2019-06-22T09:45:52Z</time>
      </trkpt>
      <trkpt lat="42.708766" lon="-8.505257">
        <ele>202.891</ele>
        <time>2019-06-22T09:45:53Z</time>
      </trkpt>
      <trkpt lat="42.708536" lon="-8.505085">
        <ele>201.886</ele>
        <time>2019-06-22T09:45:54Z</time>
      </trkpt>
      <trkpt lat="42.708319" lon="-8.504919">
        <ele>200.779</ele>
        <time>2019-06-22T09:45:55Z</time>
      </trkpt>
      <trkpt lat="42.708099" lon="-8.504762">
        <ele>200.755</ele>
        <time>2019-06-22T09:45:56Z</time>
      </trkpt>
      <trkpt lat="42.707882" lon="-8.504603">
        <ele>201.707</ele>
        <time>2019-06-22T09:45:57Z</time>
      </trkpt>
      <trkpt lat="42.707670" lon="-8.504432">
        <ele>202.817</ele>
        <time>2019-06-22T09:45:58Z</time>
      </trkpt>
      <trkpt lat="42.707461" lon="-8.504277">
        <ele>203.008</ele>
        <time>2019-06-22T09:45:59Z</time>
      </trkpt>
      <trkpt lat="42.707247" lon="-8.504108">
        <ele>203.768</ele>
        <time>2019-06-22T09:46:00Z</time>
      </trkpt>
      <trkpt lat="42.707035" lon="-8.503953">
        <ele>204.152</ele>
        <time>2019-06-22T09:46:01Z</time>
      </trkpt>
      <trkpt lat="42.706844" lon="-8.503810">
        <ele>205.264</ele>
        <time>2019-06-22T09:46:02Z</time>
      </trkpt>
      <trkpt lat="42.706654" lon="-8.503648">
        <ele>205.886</ele>
        <time>2019-06-22T09:46:03Z</time>
      </trkpt>
      <trkpt lat="42.706452" lon="-8.503490">
        <ele>207.484</ele>
        <time>2019-06-22T09:46:04Z</time>
      </trkpt>
      <trkpt lat="42.706248" lon="-8.503330">
        <ele>209.933</ele>
        <time>2019-06-22T09:46:05Z</time>
      </trkpt>
      <trkpt lat="42.706035" lon="-8.503176">
        <ele>212.258</ele>
        <time>2019-06-22T09:46:06Z</time>
      </trkpt>
      <trkpt lat="42.705830" lon="-8.503016">
        <ele>213.351</ele>
        <time>2019-06-22T09:46:07Z</time>
      </trkpt>
      <trkpt lat="42.705621" lon="-8.502855">
        <ele>214.413</ele>
        <time>2019-06-22T09:46:08Z</time>
      </trkpt>
      <trkpt lat="42.705414" lon="-8.502693">
        <ele>216.043</ele>
        <time>2019-06-22T09:46:09Z</time>
      </trkpt>
      <trkpt lat="42.705206" lon="-8.502531">
        <ele>217.507</ele>
        <time>2019-06-22T09:46:10Z</time>
      </trkpt>
      <trkpt lat="42.705006" lon="-8.502378">
        <ele>218.408</ele>
        <time>2019-06-22T09:46:11Z</time>
      </trkpt>
      <trkpt lat="42.704805" lon="-8.502230">
        <ele>219.794</ele>
        <time>2019-06-22T09:46:12Z</time>
      </trkpt>
      <trkpt lat="42.704608" lon="-8.502068">
        <ele>220.858</ele>
        <time>2019-06-22T09:46:13Z</time>
      </trkpt>
      <trkpt lat="42.704411" lon="-8.501916">
        <ele>220.860</ele>
        <time>2019-06-22T09:46:14Z</time>
      </trkpt>
      <trkpt lat="42.704223" lon="-8.501776">
        <ele>220.332</ele>
        <time>2019-06-22T09:46:15Z</time>
      </trkpt>
      <trkpt lat="42.704042" lon="-8.501640">
        <ele>220.350</ele>
        <time>2019-06-22T09:46:16Z</time>
      </trkpt>
      <trkpt lat="42.703865" lon="-8.501506">
        <ele>220.319</ele>
        <time>2019-06-22T09:46:17Z</time>
      </trkpt>
      <trkpt lat="42.703686" lon="-8.501385">
        <ele>220.564</ele>
        <time>2019-06-22T09:46:18Z</time>
      </trkpt>
      <trkpt lat="42.703514" lon="-8.501263">
        <ele>220.767</ele>
        <time>2019-06-22T09:46:19Z</time>
      </trkpt>
      <trkpt lat="42.703329" lon="-8.501205">
        <ele>221.542</ele>
        <time>2019-06-22T09:46:20Z</time>
      </trkpt>
      <trkpt lat="42.703133" lon="-8.501145">
        <ele>221.522</ele>
        <time>2019-06-22T09:46:21Z</time>
      </trkpt>
      <trkpt lat="42.702933" lon="-8.501127">
        <ele>221.114</ele>
        <time>2019-06-22T09:46:22Z</time>
      </trkpt>
      <trkpt lat="42.702726" lon="-8.501131">
        <ele>220.808</ele>
        <time>2019-06-22T09:46:23Z</time>
      </trkpt>
      <trkpt lat="42.702507" lon="-8.501157">
        <ele>220.877</ele>
        <time>2019-06-22T09:46:24Z</time>
      </trkpt>
      <trkpt lat="42.702295" lon="-8.501191">
        <ele>221.171</ele>
        <time>2019-06-22T09:46:25Z</time>
      </trkpt>
      <trkpt lat="42.702081" lon="-8.501201">
        <ele>221.713</ele>
        <time>2019-06-22T09:46:26Z</time>
      </trkpt>
      <trkpt lat="42.701867" lon="-8.501229">
        <ele>222.645</ele>
        <time>2019-06-22T09:46:27Z</time>
      </trkpt>
      <trkpt lat="42.701652" lon="-8.501267">
        <ele>223.113</ele>
        <time>2019-06-22T09:46:28Z</time>
      </trkpt>
      <trkpt lat="42.701443" lon="-8.501301">
        <ele>223.142</ele>
        <time>2019-06-22T09:46:29Z</time>
      </trkpt>
      <trkpt lat="42.701233" lon="-8.501331">
        <ele>222.957</ele>
        <time>2019-06-22T09:46:30Z</time>
      </trkpt>
      <trkpt lat="42.701029" lon="-8.501361">
        <ele>221.720</ele>
        <time>2019-06-22T09:46:31Z</time>
      </trkpt>
      <trkpt lat="42.700829" lon="-8.501398">
        <ele>221.784</ele>
        <time>2019-06-22T09:46:32Z</time>
      </trkpt>
      <trkpt lat="42.700633" lon="-8.501408">
        <ele>221.107</ele>
        <time>2019-06-22T09:46:33Z</time>
      </trkpt>
      <trkpt lat="42.700432" lon="-8.501410">
        <ele>220.517</ele>
        <time>2019-06-22T09:46:34Z</time>
      </trkpt>
      <trkpt lat="42.700227" lon="-8.501368">
        <ele>220.408</ele>
        <time>2019-06-22T09:46:35Z</time>
      </trkpt>
      <trkpt lat="42.700031" lon="-8.501308">
        <ele>220.311</ele>
        <time>2019-06-22T09:46:36Z</time>
      </trkpt>
      <trkpt lat="42.699839" lon="-8.501204">
        <ele>220.275</ele>
        <time>2019-06-22T09:46:37Z</time>
      </trkpt>
      <trkpt lat="42.699656" lon="-8.501074">
        <ele>220.257</ele>
        <time>2019-06-22T09:46:38Z</time>
      </trkpt>
      <trkpt lat="42.699485" lon="-8.500914">
        <ele>220.049</ele>
        <time>2019-06-22T09:46:39Z</time>
      </trkpt>
      <trkpt lat="42.699325" lon="-8.500754">
        <ele>219.177</ele>
        <time>2019-06-22T09:46:40Z</time>
      </trkpt>
      <trkpt lat="42.699167" lon="-8.500588">
        <ele>218.446</ele>
        <time>2019-06-22T09:46:41Z</time>
      </trkpt>
      <trkpt lat="42.699011" lon="-8.500422">
        <ele>217.351</ele>
        <time>2019-06-22T09:46:42Z</time>
      </trkpt>
      <trkpt lat="42.698841" lon="-8.500286">
        <ele>215.954</ele>
        <time>2019-06-22T09:46:43Z</time>
      </trkpt>
      <trkpt lat="42.698672" lon="-8.500166">
        <ele>214.617</ele>
        <time>2019-06-22T09:46:44Z</time>
      </trkpt>
      <trkpt lat="42.698484" lon="-8.500036">
        <ele>213.987</ele>
        <time>2019-06-22T09:46:45Z</time>
      </trkpt>
      <trkpt lat="42.698279" lon="-8.499972">
        <ele>213.915</ele>
        <time>2019-06-22T09:46:46Z</time>
      </trkpt>
      <trkpt lat="42.698101" lon="-8.499893">
        <ele>214.008</ele>
        <time>2019-06-22T09:46:47Z</time>
      </trkpt>
      <trkpt lat="42.697932" lon="-8.499827">
        <ele>215.864</ele>
        <time>2019-06-22T09:46:48Z</time>
      </trkpt>
      <trkpt lat="42.697771" lon="-8.499808">
        <ele>218.058</ele>
        <time>2019-06-22T09:46:49Z</time>
      </trkpt>
      <trkpt lat="42.697630" lon="-8.499758">
        <ele>220.440</ele>
        <time>2019-06-22T09:46:50Z</time>
      </trkpt>
      <trkpt lat="42.697496" lon="-8.499700">
        <ele>222.632</ele>
        <time>2019-06-22T09:46:51Z</time>
      </trkpt>
      <trkpt lat="42.697361" lon="-8.499644">
        <ele>225.090</ele>
        <time>2019-06-22T09:46:52Z</time>
      </trkpt>
      <trkpt lat="42.697227" lon="-8.499581">
        <ele>227.349</ele>
        <time>2019-06-22T09:46:53Z</time>
      </trkpt>
      <trkpt lat="42.697099" lon="-8.499517">
        <ele>229.214</ele>
        <time>2019-06-22T09:46:54Z</time>
      </trkpt>
      <trkpt lat="42.696979" lon="-8.499448">
        <ele>230.967</ele>
        <time>2019-06-22T09:46:55Z</time>
      </trkpt>
      <trkpt lat="42.696873" lon="-8.499371">
        <ele>232.896</ele>
        <time>2019-06-22T09:46:56Z</time>
      </trkpt>
      <trkpt lat="42.696778" lon="-8.499295">
        <ele>234.531</ele>
        <time>2019-06-22T09:46:57Z</time>
      </trkpt>
      <trkpt lat="42.696694" lon="-8.499226">
        <ele>235.924</ele>
        <time>2019-06-22T09:46:58Z</time>
      </trkpt>
      <trkpt lat="42.696623" lon="-8.499165">
        <ele>237.308</ele>
        <time>2019-06-22T09:46:59Z</time>
      </trkpt>
      <trkpt lat="42.696560" lon="-8.499109">
        <ele>238.342</ele>
        <time>2019-06-22T09:47:00Z</time>
      </trkpt>
      <trkpt lat="42.696498" lon="-8.499045">
        <ele>239.276</ele>
        <time>2019-06-22T09:47:01Z</time>
      </trkpt>
      <trkpt lat="42.696437" lon="-8.498982">
        <ele>240.238</ele>
        <time>2019-06-22T09:47:02Z</time>
      </trkpt>
      <trkpt lat="42.696373" lon="-8.498916">
        <ele>240.980</ele>
        <time>2019-06-22T09:47:03Z</time>
      </trkpt>
      <trkpt lat="42.696315" lon="-8.498848">
        <ele>241.328</ele>
        <time>2019-06-22T09:47:04Z</time>
      </trkpt>
      <trkpt lat="42.696262" lon="-8.498780">
        <ele>241.667</ele>
        <time>2019-06-22T09:47:05Z</time>
      </trkpt>
      <trkpt lat="42.696210" lon="-8.498715">
        <ele>242.172</ele>
        <time>2019-06-22T09:47:06Z</time>
      </trkpt>
      <trkpt lat="42.696159" lon="-8.498644">
        <ele>242.225</ele>
        <time>2019-06-22T09:47:07Z</time>
      </trkpt>
      <trkpt lat="42.696102" lon="-8.498563">
        <ele>242.451</ele>
        <time>2019-06-22T09:47:08Z</time>
      </trkpt>
      <trkpt lat="42.696039" lon="-8.498485">
        <ele>242.701</ele>
        <time>2019-06-22T09:47:09Z</time>
      </trkpt>
      <trkpt lat="42.695985" lon="-8.498405">
        <ele>243.011</ele>
        <time>2019-06-22T09:47:10Z</time>
      </trkpt>
      <trkpt lat="42.695926" lon="-8.498329">
        <ele>243.308</ele>
        <time>2019-06-22T09:47:11Z</time>
      </trkpt>
      <trkpt lat="42.695853" lon="-8.498266">
        <ele>243.448</ele>
        <time>2019-06-22T09:47:12Z</time>
      </trkpt>
      <trkpt lat="42.695788" lon="-8.498207">
        <ele>243.442</ele>
        <time>2019-06-22T09:47:13Z</time>
      </trkpt>
      <trkpt lat="42.695719" lon="-8.498159">
        <ele>243.444</ele>
        <time>2019-06-22T09:47:14Z</time>
      </trkpt>
      <trkpt lat="42.695661" lon="-8.498105">
        <ele>243.456</ele>
        <time>2019-06-22T09:47:15Z</time>
      </trkpt>
      <trkpt lat="42.695613" lon="-8.498050">
        <ele>243.424</ele>
        <time>2019-06-22T09:47:16Z</time>
      </trkpt>
      <trkpt lat="42.695573" lon="-8.497979">
        <ele>243.813</ele>
        <time>2019-06-22T09:47:17Z</time>
      </trkpt>
      <trkpt lat="42.695551" lon="-8.497865">
        <ele>244.278</ele>
        <time>2019-06-22T09:47:18Z</time>
      </trkpt>
      <trkpt lat="42.695520" lon="-8.497745">
        <ele>244.571</ele>
        <time>2019-06-22T09:47:19Z</time>
      </trkpt>
      <trkpt lat="42.695479" lon="-8.497631">
        <ele>244.674</ele>
        <time>2019-06-22T09:47:20Z</time>
      </trkpt>
      <trkpt lat="42.695432" lon="-8.497519">
        <ele>244.656</ele>
        <time>2019-06-22T09:47:21Z</time>
      </trkpt>
      <trkpt lat="42.695345" lon="-8.497391">
        <ele>244.421</ele>
        <time>2019-06-22T09:47:22Z</time>
      </trkpt>
      <trkpt lat="42.695260" lon="-8.497247">
        <ele>244.408</ele>
        <time>2019-06-22T09:47:23Z</time>
      </trkpt>
      <trkpt lat="42.695167" lon="-8.497105">
        <ele>244.470</ele>
        <time>2019-06-22T09:47:24Z</time>
      </trkpt>
      <trkpt lat="42.695072" lon="-8.496961">
        <ele>244.394</ele>
        <time>2019-06-22T09:47:25Z</time>
      </trkpt>
      <trkpt lat="42.694966" lon="-8.496814">
        <ele>244.376</ele>
        <time>2019-06-22T09:47:26Z</time>
      </trkpt>
      <trkpt lat="42.694869" lon="-8.496673">
        <ele>244.588</ele>
        <time>2019-06-22T09:47:27Z</time>
      </trkpt>
      <trkpt lat="42.694762" lon="-8.496537">
        <ele>244.516</ele>
        <time>2019-06-22T09:47:28Z</time>
      </trkpt>
      <trkpt lat="42.694682" lon="-8.496395">
        <ele>244.525</ele>
        <time>2019-06-22T09:47:29Z</time>
      </trkpt>
      <trkpt lat="42.694603" lon="-8.496265">
        <ele>244.750</ele>
        <time>2019-06-22T09:47:30Z</time>
      </trkpt>
      <trkpt lat="42.694531" lon="-8.496139">
        <ele>244.823</ele>
        <time>2019-06-22T09:47:31Z</time>
      </trkpt>
      <trkpt lat="42.694460" lon="-8.496022">
        <ele>244.951</ele>
        <time>2019-06-22T09:47:32Z</time>
      </trkpt>
      <trkpt lat="42.694394" lon="-8.495907">
        <ele>244.901</ele>
        <time>2019-06-22T09:47:33Z</time>
      </trkpt>
      <trkpt lat="42.694325" lon="-8.495795">
        <ele>245.111</ele>
        <time>2019-06-22T09:47:34Z</time>
      </trkpt>
      <trkpt lat="42.694260" lon="-8.495684">
        <ele>245.108</ele>
        <time>2019-06-22T09:47:35Z</time>
      </trkpt>
      <trkpt lat="42.694198" lon="-8.495573">
        <ele>245.418</ele>
        <time>2019-06-22T09:47:36Z</time>
      </trkpt>
      <trkpt lat="42.694122" lon="-8.495453">
        <ele>245.772</ele>
        <time>2019-06-22T09:47:37Z</time>
      </trkpt>
      <trkpt lat="42.694045" lon="-8.495322">
        <ele>246.234</ele>
        <time>2019-06-22T09:47:38Z</time>
      </trkpt>
      <trkpt lat="42.693960" lon="-8.495197">
        <ele>247.096</ele>
        <time>2019-06-22T09:47:39Z</time>
      </trkpt>
      <trkpt lat="42.693887" lon="-8.495069">
        <ele>247.484</ele>
        <time>2019-06-22T09:47:40Z</time>
      </trkpt>
      <trkpt lat="42.693814" lon="-8.494947">
        <ele>247.993</ele>
        <time>2019-06-22T09:47:41Z</time>
      </trkpt>
      <trkpt lat="42.693752" lon="-8.494835">
        <ele>248.458</ele>
        <time>2019-06-22T09:47:42Z</time>
      </trkpt>
      <trkpt lat="42.693687" lon="-8.494718">
        <ele>248.771</ele>
        <time>2019-06-22T09:47:43Z</time>
      </trkpt>
      <trkpt lat="42.693617" lon="-8.494622">
        <ele>249.081</ele>
        <time>2019-06-22T09:47:44Z</time>
      </trkpt>
      <trkpt lat="42.693550" lon="-8.494546">
        <ele>249.661</ele>
        <time>2019-06-22T09:47:45Z</time>
      </trkpt>
      <trkpt lat="42.693491" lon="-8.494489">
        <ele>250.117</ele>
        <time>2019-06-22T09:47:46Z</time>
      </trkpt>
      <trkpt lat="42.693430" lon="-8.494430">
        <ele>250.508</ele>
        <time>2019-06-22T09:47:47Z</time>
      </trkpt>
      <trkpt lat="42.693372" lon="-8.494344">
        <ele>251.271</ele>
        <time>2019-06-22T09:47:48Z</time>
      </trkpt>
      <trkpt lat="42.693325" lon="-8.494233">
        <ele>252.275</ele>
        <time>2019-06-22T09:47:49Z</time>
      </trkpt>
      <trkpt lat="42.693277" lon="-8.494115">
        <ele>252.997</ele>
        <time>2019-06-22T09:47:50Z</time>
      </trkpt>
      <trkpt lat="42.693231" lon="-8.493989">
        <ele>253.989</ele>
        <time>2019-06-22T09:47:51Z</time>
      </trkpt>
      <trkpt lat="42.693163" lon="-8.493857">
        <ele>255.097</ele>
        <time>2019-06-22T09:47:52Z</time>
      </trkpt>
      <trkpt lat="42.693093" lon="-8.493722">
        <ele>256.236</ele>
        <time>2019-06-22T09:47:53Z</time>
      </trkpt>
      <trkpt lat="42.693019" lon="-8.493575">
        <ele>257.121</ele>
        <time>2019-06-22T09:47:54Z</time>
      </trkpt>
      <trkpt lat="42.692931" lon="-8.493426">
        <ele>258.294</ele>
        <time>2019-06-22T09:47:55Z</time>
      </trkpt>
      <trkpt lat="42.692849" lon="-8.493270">
        <ele>259.499</ele>
        <time>2019-06-22T09:47:56Z</time>
      </trkpt>
      <trkpt lat="42.692770" lon="-8.493118">
        <ele>260.607</ele>
        <time>2019-06-22T09:47:57Z</time>
      </trkpt>
      <trkpt lat="42.692694" lon="-8.492972">
        <ele>262.127</ele>
        <time>2019-06-22T09:47:58Z</time>
      </trkpt>
      <trkpt lat="42.692628" lon="-8.492835">
        <ele>263.608</ele>
        <time>2019-06-22T09:47:59Z</time>
      </trkpt>
      <trkpt lat="42.692555" lon="-8.492710">
        <ele>265.262</ele>
        <time>2019-06-22T09:48:00Z</time>
      </trkpt>
      <trkpt lat="42.692497" lon="-8.492609">
        <ele>266.936</ele>
        <time>2019-06-22T09:48:01Z</time>
      </trkpt>
      <trkpt lat="42.692442" lon="-8.492508">
        <ele>268.738</ele>
        <time>2019-06-22T09:48:02Z</time>
      </trkpt>
      <trkpt lat="42.692388" lon="-8.492427">
        <ele>270.060</ele>
        <time>2019-06-22T09:48:03Z</time>
      </trkpt>
      <trkpt lat="42.692324" lon="-8.492359">
        <ele>271.248</ele>
        <time>2019-06-22T09:48:04Z</time>
      </trkpt>
      <trkpt lat="42.692248" lon="-8.492300">
        <ele>272.457</ele>
        <time>2019-06-22T09:48:05Z</time>
      </trkpt>
      <trkpt lat="42.692161" lon="-8.492244">
        <ele>273.522</ele>
        <time>2019-06-22T09:48:06Z</time>
      </trkpt>
      <trkpt lat="42.692066" lon="-8.492192">
        <ele>274.585</ele>
        <time>2019-06-22T09:48:07Z</time>
      </trkpt>
      <trkpt lat="42.691954" lon="-8.492140">
        <ele>275.123</ele>
        <time>2019-06-22T09:48:08Z</time>
      </trkpt>
      <trkpt lat="42.691843" lon="-8.492093">
        <ele>275.683</ele>
        <time>2019-06-22T09:48:09Z</time>
      </trkpt>
      <trkpt lat="42.691710" lon="-8.492046">
        <ele>275.711</ele>
        <time>2019-06-22T09:48:10Z</time>
      </trkpt>
      <trkpt lat="42.691566" lon="-8.492003">
        <ele>275.908</ele>
        <time>2019-06-22T09:48:11Z</time>
      </trkpt>
      <trkpt lat="42.691414" lon="-8.491955">
        <ele>276.045</ele>
        <time>2019-06-22T09:48:12Z</time>
      </trkpt>
      <trkpt lat="42.691269" lon="-8.491901">
        <ele>276.819</ele>
        <time>2019-06-22T09:48:13Z</time>
      </trkpt>
      <trkpt lat="42.691124" lon="-8.491853">
        <ele>278.051</ele>
        <time>2019-06-22T09:48:14Z</time>
      </trkpt>
      <trkpt lat="42.690990" lon="-8.491816">
        <ele>279.573</ele>
        <time>2019-06-22T09:48:15Z</time>
      </trkpt>
      <trkpt lat="42.690863" lon="-8.491792">
        <ele>281.811</ele>
        <time>2019-06-22T09:48:16Z</time>
      </trkpt>
      <trkpt lat="42.690751" lon="-8.491759">
        <ele>284.020</ele>
        <time>2019-06-22T09:48:17Z</time>
      </trkpt>
      <trkpt lat="42.690648" lon="-8.491715">
        <ele>286.095</ele>
        <time>2019-06-22T09:48:18Z</time>
      </trkpt>
      <trkpt lat="42.690559" lon="-8.491693">
        <ele>287.798</ele>
        <time>2019-06-22T09:48:19Z</time>
      </trkpt>
      <trkpt lat="42.690479" lon="-8.491662">
        <ele>289.389</ele>
        <time>2019-06-22T09:48:20Z</time>
      </trkpt>
      <trkpt lat="42.690400" lon="-8.491633">
        <ele>290.406</ele>
        <time>2019-06-22T09:48:21Z</time>
      </trkpt>
      <trkpt lat="42.690328" lon="-8.491628">
        <ele>291.126</ele>
        <time>2019-06-22T09:48:22Z</time>
      </trkpt>
      <trkpt lat="42.690264" lon="-8.491608">
        <ele>291.808</ele>
        <time>2019-06-22T09:48:23Z</time>
      </trkpt>
      <trkpt lat="42.690197" lon="-8.491599">
        <ele>292.461</ele>
        <time>2019-06-22T09:48:24Z</time>
      </trkpt>
      <trkpt lat="42.690135" lon="-8.491604">
        <ele>292.945</ele>
        <time>2019-06-22T09:48:25Z</time>
      </trkpt>
      <trkpt lat="42.690076" lon="-8.491556">
        <ele>293.047</ele>
        <time>2019-06-22T09:48:26Z</time>
      </trkpt>
      <trkpt lat="42.690007" lon="-8.491543">
        <ele>293.359</ele>
        <time>2019-06-22T09:48:27Z</time>
      </trkpt>
      <trkpt lat="42.689959" lon="-8.491490">
        <ele>293.527</ele>
        <time>2019-06-22T09:48:28Z</time>
      </trkpt>
      <trkpt lat="42.689912" lon="-8.491478">
        <ele>293.716</ele>
        <time>2019-06-22T09:48:29Z</time>
      </trkpt>
      <trkpt lat="42.689831" lon="-8.491456">
        <ele>293.971</ele>
        <time>2019-06-22T09:48:31Z</time>
      </trkpt>
      <trkpt lat="42.689776" lon="-8.491451">
        <ele>294.034</ele>
        <time>2019-06-22T09:48:32Z</time>
      </trkpt>
      <trkpt lat="42.689712" lon="-8.491425">
        <ele>294.032</ele>
        <time>2019-06-22T09:48:34Z</time>
      </trkpt>
      <trkpt lat="42.689667" lon="-8.491398">
        <ele>294.092</ele>
        <time>2019-06-22T09:48:36Z</time>
      </trkpt>
      <trkpt lat="42.689622" lon="-8.491390">
        <ele>294.011</ele>
        <time>2019-06-22T09:48:37Z</time>
      </trkpt>
      <trkpt lat="42.689567" lon="-8.491380">
        <ele>293.908</ele>
        <time>2019-06-22T09:48:38Z</time>
      </trkpt>
      <trkpt lat="42.689498" lon="-8.491373">
        <ele>293.866</ele>
        <time>2019-06-22T09:48:39Z</time>
      </trkpt>
      <trkpt lat="42.689449" lon="-8.491319">
        <ele>293.750</ele>
        <time>2019-06-22T09:48:40Z</time>
      </trkpt>
      <trkpt lat="42.689321" lon="-8.491198">
        <ele>293.432</ele>
        <time>2019-06-22T09:48:41Z</time>
      </trkpt>
      <trkpt lat="42.689198" lon="-8.491188">
        <ele>293.094</ele>
        <time>2019-06-22T09:48:42Z</time>
      </trkpt>
      <trkpt lat="42.689098" lon="-8.491141">
        <ele>292.692</ele>
        <time>2019-06-22T09:48:43Z</time>
      </trkpt>
      <trkpt lat="42.688987" lon="-8.491139">
        <ele>292.131</ele>
        <time>2019-06-22T09:48:44Z</time>
      </trkpt>
      <trkpt lat="42.688868" lon="-8.491156">
        <ele>291.716</ele>
        <time>2019-06-22T09:48:45Z</time>
      </trkpt>
      <trkpt lat="42.688767" lon="-8.491171">
        <ele>291.419</ele>
        <time>2019-06-22T09:48:46Z</time>
      </trkpt>
      <trkpt lat="42.688665" lon="-8.491210">
        <ele>291.194</ele>
        <time>2019-06-22T09:48:47Z</time>
      </trkpt>
      <trkpt lat="42.688587" lon="-8.491171">
        <ele>290.857</ele>
        <time>2019-06-22T09:48:48Z</time>
      </trkpt>
      <trkpt lat="42.688503" lon="-8.491179">
        <ele>290.422</ele>
        <time>2019-06-22T09:48:49Z</time>
      </trkpt>
      <trkpt lat="42.688430" lon="-8.491173">
        <ele>290.108</ele>
        <time>2019-06-22T09:48:50Z</time>
      </trkpt>
      <trkpt lat="42.688373" lon="-8.491178">
        <ele>289.642</ele>
        <time>2019-06-22T09:48:51Z</time>
      </trkpt>
      <trkpt lat="42.688312" lon="-8.491164">
        <ele>289.356</ele>
        <time>2019-06-22T09:48:52Z</time>
      </trkpt>
      <trkpt lat="42.688242" lon="-8.491148">
        <ele>289.348</ele>
        <time>2019-06-22T09:48:53Z</time>
      </trkpt>
      <trkpt lat="42.688165" lon="-8.491136">
        <ele>289.370</ele>
        <time>2019-06-22T09:48:54Z</time>
      </trkpt>
      <trkpt lat="42.688094" lon="-8.491141">
        <ele>289.388</ele>
        <time>2019-06-22T09:48:55Z</time>
      </trkpt>
      <trkpt lat="42.688022" lon="-8.491133">
        <ele>289.247</ele>
        <time>2019-06-22T09:48:56Z</time>
      </trkpt>
      <trkpt lat="42.687934" lon="-8.491113">
        <ele>289.072</ele>
        <time>2019-06-22T09:48:57Z</time>
      </trkpt>
      <trkpt lat="42.687832" lon="-8.491070">
        <ele>288.515</ele>
        <time>2019-06-22T09:48:58Z</time>
      </trkpt>
      <trkpt lat="42.687713" lon="-8.491058">
        <ele>287.813</ele>
        <time>2019-06-22T09:48:59Z</time>
      </trkpt>
      <trkpt lat="42.687590" lon="-8.491040">
        <ele>286.843</ele>
        <time>2019-06-22T09:49:00Z</time>
      </trkpt>
      <trkpt lat="42.687471" lon="-8.491030">
        <ele>286.007</ele>
        <time>2019-06-22T09:49:01Z</time>
      </trkpt>
      <trkpt lat="42.687357" lon="-8.491020">
        <ele>284.908</ele>
        <time>2019-06-22T09:49:02Z</time>
      </trkpt>
      <trkpt lat="42.687253" lon="-8.491005">
        <ele>284.294</ele>
        <time>2019-06-22T09:49:03Z</time>
      </trkpt>
      <trkpt lat="42.687151" lon="-8.490980">
        <ele>283.818</ele>
        <time>2019-06-22T09:49:04Z</time>
      </trkpt>
      <trkpt lat="42.687055" lon="-8.490962">
        <ele>283.540</ele>
        <time>2019-06-22T09:49:05Z</time>
      </trkpt>
      <trkpt lat="42.686971" lon="-8.490962">
        <ele>283.352</ele>
        <time>2019-06-22T09:49:06Z</time>
      </trkpt>
      <trkpt lat="42.686878" lon="-8.490953">
        <ele>283.260</ele>
        <time>2019-06-22T09:49:07Z</time>
      </trkpt>
      <trkpt lat="42.686780" lon="-8.490922">
        <ele>283.079</ele>
        <time>2019-06-22T09:49:08Z</time>
      </trkpt>
      <trkpt lat="42.686653" lon="-8.490914">
        <ele>282.564</ele>
        <time>2019-06-22T09:49:09Z</time>
      </trkpt>
      <trkpt lat="42.686536" lon="-8.490932">
        <ele>282.127</ele>
        <time>2019-06-22T09:49:10Z</time>
      </trkpt>
      <trkpt lat="42.686407" lon="-8.490922">
        <ele>281.628</ele>
        <time>2019-06-22T09:49:11Z</time>
      </trkpt>
      <trkpt lat="42.686288" lon="-8.490909">
        <ele>280.889</ele>
        <time>2019-06-22T09:49:12Z</time>
      </trkpt>
      <trkpt lat="42.686158" lon="-8.490898">
        <ele>280.117</ele>
        <time>2019-06-22T09:49:13Z</time>
      </trkpt>
      <trkpt lat="42.686036" lon="-8.490859">
        <ele>279.208</ele>
        <time>2019-06-22T09:49:14Z</time>
      </trkpt>
      <trkpt lat="42.685912" lon="-8.490809">
        <ele>278.515</ele>
        <time>2019-06-22T09:49:15Z</time>
      </trkpt>
      <trkpt lat="42.685782" lon="-8.490730">
        <ele>277.839</ele>
        <time>2019-06-22T09:49:16Z</time>
      </trkpt>
      <trkpt lat="42.685662" lon="-8.490634">
        <ele>277.221</ele>
        <time>2019-06-22T09:49:17Z</time>
      </trkpt>
      <trkpt lat="42.685552" lon="-8.490486">
        <ele>276.413</ele>
        <time>2019-06-22T09:49:18Z</time>
      </trkpt>
      <trkpt lat="42.685457" lon="-8.490318">
        <ele>275.761</ele>
        <time>2019-06-22T09:49:19Z</time>
      </trkpt>
      <trkpt lat="42.685368" lon="-8.490115">
        <ele>275.010</ele>
        <time>2019-06-22T09:49:20Z</time>
      </trkpt>
      <trkpt lat="42.685295" lon="-8.489891">
        <ele>274.045</ele>
        <time>2019-06-22T09:49:21Z</time>
      </trkpt>
      <trkpt lat="42.685232" lon="-8.489639">
        <ele>273.098</ele>
        <time>2019-06-22T09:49:22Z</time>
      </trkpt>
      <trkpt lat="42.685158" lon="-8.489387">
        <ele>272.137</ele>
        <time>2019-06-22T09:49:23Z</time>
      </trkpt>
      <trkpt lat="42.685085" lon="-8.489131">
        <ele>270.349</ele>
        <time>2019-06-22T09:49:24Z</time>
      </trkpt>
      <trkpt lat="42.685019" lon="-8.488868">
        <ele>268.713</ele>
        <time>2019-06-22T09:49:25Z</time>
      </trkpt>
      <trkpt lat="42.684960" lon="-8.488610">
        <ele>267.308</ele>
        <time>2019-06-22T09:49:26Z</time>
      </trkpt>
      <trkpt lat="42.684880" lon="-8.488353">
        <ele>265.846</ele>
        <time>2019-06-22T09:49:27Z</time>
      </trkpt>
      <trkpt lat="42.684812" lon="-8.488096">
        <ele>264.660</ele>
        <time>2019-06-22T09:49:28Z</time>
      </trkpt>
      <trkpt lat="42.684737" lon="-8.487849">
        <ele>264.262</ele>
        <time>2019-06-22T09:49:29Z</time>
      </trkpt>
      <trkpt lat="42.684666" lon="-8.487615">
        <ele>263.784</ele>
        <time>2019-06-22T09:49:30Z</time>
      </trkpt>
      <trkpt lat="42.684583" lon="-8.487378">
        <ele>262.812</ele>
        <time>2019-06-22T09:49:31Z</time>
      </trkpt>
      <trkpt lat="42.684491" lon="-8.487150">
        <ele>262.051</ele>
        <time>2019-06-22T09:49:32Z</time>
      </trkpt>
      <trkpt lat="42.684395" lon="-8.486923">
        <ele>261.096</ele>
        <time>2019-06-22T09:49:33Z</time>
      </trkpt>
      <trkpt lat="42.684304" lon="-8.486702">
        <ele>260.799</ele>
        <time>2019-06-22T09:49:34Z</time>
      </trkpt>
      <trkpt lat="42.684196" lon="-8.486482">
        <ele>260.595</ele>
        <time>2019-06-22T09:49:35Z</time>
      </trkpt>
      <trkpt lat="42.684095" lon="-8.486265">
        <ele>260.549</ele>
        <time>2019-06-22T09:49:36Z</time>
      </trkpt>
      <trkpt lat="42.683995" lon="-8.486054">
        <ele>260.323</ele>
        <time>2019-06-22T09:49:37Z</time>
      </trkpt>
      <trkpt lat="42.683903" lon="-8.485863">
        <ele>259.808</ele>
        <time>2019-06-22T09:49:38Z</time>
      </trkpt>
      <trkpt lat="42.683804" lon="-8.485665">
        <ele>259.032</ele>
        <time>2019-06-22T09:49:39Z</time>
      </trkpt>
      <trkpt lat="42.683700" lon="-8.485467">
        <ele>258.096</ele>
        <time>2019-06-22T09:49:40Z</time>
      </trkpt>
      <trkpt lat="42.683604" lon="-8.485272">
        <ele>257.058</ele>
        <time>2019-06-22T09:49:41Z</time>
      </trkpt>
      <trkpt lat="42.683521" lon="-8.485086">
        <ele>256.640</ele>
        <time>2019-06-22T09:49:42Z</time>
      </trkpt>
      <trkpt lat="42.683431" lon="-8.484901">
        <ele>256.598</ele>
        <time>2019-06-22T09:49:43Z</time>
      </trkpt>
      <trkpt lat="42.683340" lon="-8.484727">
        <ele>256.527</ele>
        <time>2019-06-22T09:49:44Z</time>
      </trkpt>
      <trkpt lat="42.683245" lon="-8.484539">
        <ele>256.622</ele>
        <time>2019-06-22T09:49:45Z</time>
      </trkpt>
      <trkpt lat="42.683151" lon="-8.484351">
        <ele>256.615</ele>
        <time>2019-06-22T09:49:46Z</time>
      </trkpt>
      <trkpt lat="42.683051" lon="-8.484153">
        <ele>256.621</ele>
        <time>2019-06-22T09:49:47Z</time>
      </trkpt>
      <trkpt lat="42.682953" lon="-8.483946">
        <ele>256.441</ele>
        <time>2019-06-22T09:49:48Z</time>
      </trkpt>
      <trkpt lat="42.682854" lon="-8.483738">
        <ele>256.305</ele>
        <time>2019-06-22T09:49:49Z</time>
      </trkpt>
      <trkpt lat="42.682747" lon="-8.483531">
        <ele>256.208</ele>
        <time>2019-06-22T09:49:50Z</time>
      </trkpt>
      <trkpt lat="42.682637" lon="-8.483326">
        <ele>255.955</ele>
        <time>2019-06-22T09:49:51Z</time>
      </trkpt>
      <trkpt lat="42.682506" lon="-8.483124">
        <ele>255.389</ele>
        <time>2019-06-22T09:49:52Z</time>
      </trkpt>
      <trkpt lat="42.682369" lon="-8.482919">
        <ele>254.531</ele>
        <time>2019-06-22T09:49:53Z</time>
      </trkpt>
      <trkpt lat="42.682227" lon="-8.482716">
        <ele>253.893</ele>
        <time>2019-06-22T09:49:54Z</time>
      </trkpt>
      <trkpt lat="42.682065" lon="-8.482519">
        <ele>253.081</ele>
        <time>2019-06-22T09:49:55Z</time>
      </trkpt>
      <trkpt lat="42.681903" lon="-8.482326">
        <ele>251.570</ele>
        <time>2019-06-22T09:49:56Z</time>
      </trkpt>
      <trkpt lat="42.681738" lon="-8.482138">
        <ele>249.665</ele>
        <time>2019-06-22T09:49:57Z</time>
      </trkpt>
      <trkpt lat="42.681567" lon="-8.481940">
        <ele>248.468</ele>
        <time>2019-06-22T09:49:58Z</time>
      </trkpt>
      <trkpt lat="42.681397" lon="-8.481741">
        <ele>246.759</ele>
        <time>2019-06-22T09:49:59Z</time>
      </trkpt>
      <trkpt lat="42.681214" lon="-8.481528">
        <ele>244.803</ele>
        <time>2019-06-22T09:50:00Z</time>
      </trkpt>
      <trkpt lat="42.681037" lon="-8.481315">
        <ele>242.423</ele>
        <time>2019-06-22T09:50:01Z</time>
      </trkpt>
      <trkpt lat="42.680873" lon="-8.481081">
        <ele>240.708</ele>
        <time>2019-06-22T09:50:02Z</time>
      </trkpt>
      <trkpt lat="42.680729" lon="-8.480834">
        <ele>239.358</ele>
        <time>2019-06-22T09:50:03Z</time>
      </trkpt>
      <trkpt lat="42.680586" lon="-8.480569">
        <ele>238.312</ele>
        <time>2019-06-22T09:50:04Z</time>
      </trkpt>
      <trkpt lat="42.680460" lon="-8.480284">
        <ele>237.584</ele>
        <time>2019-06-22T09:50:05Z</time>
      </trkpt>
      <trkpt lat="42.680355" lon="-8.480001">
        <ele>237.336</ele>
        <time>2019-06-22T09:50:06Z</time>
      </trkpt>
      <trkpt lat="42.680243" lon="-8.479713">
        <ele>237.194</ele>
        <time>2019-06-22T09:50:07Z</time>
      </trkpt>
      <trkpt lat="42.680136" lon="-8.479432">
        <ele>236.293</ele>
        <time>2019-06-22T09:50:08Z</time>
      </trkpt>
      <trkpt lat="42.680032" lon="-8.479164">
        <ele>235.398</ele>
        <time>2019-06-22T09:50:09Z</time>
      </trkpt>
      <trkpt lat="42.679921" lon="-8.478908">
        <ele>233.451</ele>
        <time>2019-06-22T09:50:10Z</time>
      </trkpt>
      <trkpt lat="42.679816" lon="-8.478691">
        <ele>232.798</ele>
        <time>2019-06-22T09:50:11Z</time>
      </trkpt>
      <trkpt lat="42.679697" lon="-8.478500">
        <ele>232.515</ele>
        <time>2019-06-22T09:50:12Z</time>
      </trkpt>
      <trkpt lat="42.679568" lon="-8.478343">
        <ele>232.526</ele>
        <time>2019-06-22T09:50:13Z</time>
      </trkpt>
      <trkpt lat="42.679430" lon="-8.478214">
        <ele>232.908</ele>
        <time>2019-06-22T09:50:14Z</time>
      </trkpt>
      <trkpt lat="42.679275" lon="-8.478127">
        <ele>235.192</ele>
        <time>2019-06-22T09:50:15Z</time>
      </trkpt>
      <trkpt lat="42.679113" lon="-8.478078">
        <ele>236.776</ele>
        <time>2019-06-22T09:50:16Z</time>
      </trkpt>
      <trkpt lat="42.678947" lon="-8.478038">
        <ele>238.898</ele>
        <time>2019-06-22T09:50:17Z</time>
      </trkpt>
      <trkpt lat="42.678767" lon="-8.478083">
        <ele>240.560</ele>
        <time>2019-06-22T09:50:18Z</time>
      </trkpt>
      <trkpt lat="42.678597" lon="-8.478120">
        <ele>242.428</ele>
        <time>2019-06-22T09:50:19Z</time>
      </trkpt>
      <trkpt lat="42.678435" lon="-8.478188">
        <ele>244.237</ele>
        <time>2019-06-22T09:50:20Z</time>
      </trkpt>
      <trkpt lat="42.678271" lon="-8.478259">
        <ele>246.362</ele>
        <time>2019-06-22T09:50:21Z</time>
      </trkpt>
      <trkpt lat="42.678100" lon="-8.478324">
        <ele>248.295</ele>
        <time>2019-06-22T09:50:22Z</time>
      </trkpt>
      <trkpt lat="42.677928" lon="-8.478387">
        <ele>249.922</ele>
        <time>2019-06-22T09:50:23Z</time>
      </trkpt>
      <trkpt lat="42.677748" lon="-8.478451">
        <ele>251.362</ele>
        <time>2019-06-22T09:50:24Z</time>
      </trkpt>
      <trkpt lat="42.677569" lon="-8.478518">
        <ele>253.008</ele>
        <time>2019-06-22T09:50:25Z</time>
      </trkpt>
      <trkpt lat="42.677387" lon="-8.478590">
        <ele>254.208</ele>
        <time>2019-06-22T09:50:26Z</time>
      </trkpt>
      <trkpt lat="42.677192" lon="-8.478655">
        <ele>255.045</ele>
        <time>2019-06-22T09:50:27Z</time>
      </trkpt>
      <trkpt lat="42.677004" lon="-8.478727">
        <ele>256.299</ele>
        <time>2019-06-22T09:50:28Z</time>
      </trkpt>
      <trkpt lat="42.676816" lon="-8.478785">
        <ele>257.721</ele>
        <time>2019-06-22T09:50:29Z</time>
      </trkpt>
      <trkpt lat="42.676621" lon="-8.478847">
        <ele>258.543</ele>
        <time>2019-06-22T09:50:30Z</time>
      </trkpt>
      <trkpt lat="42.676425" lon="-8.478907">
        <ele>259.251</ele>
        <time>2019-06-22T09:50:31Z</time>
      </trkpt>
      <trkpt lat="42.676231" lon="-8.478983">
        <ele>260.390</ele>
        <time>2019-06-22T09:50:32Z</time>
      </trkpt>
      <trkpt lat="42.676031" lon="-8.479047">
        <ele>261.145</ele>
        <time>2019-06-22T09:50:33Z</time>
      </trkpt>
      <trkpt lat="42.675839" lon="-8.479109">
        <ele>261.398</ele>
        <time>2019-06-22T09:50:34Z</time>
      </trkpt>
      <trkpt lat="42.675649" lon="-8.479156">
        <ele>261.739</ele>
        <time>2019-06-22T09:50:35Z</time>
      </trkpt>
      <trkpt lat="42.675463" lon="-8.479186">
        <ele>262.201</ele>
        <time>2019-06-22T09:50:36Z</time>
      </trkpt>
      <trkpt lat="42.675283" lon="-8.479196">
        <ele>262.221</ele>
        <time>2019-06-22T09:50:37Z</time>
      </trkpt>
      <trkpt lat="42.675095" lon="-8.479197">
        <ele>262.608</ele>
        <time>2019-06-22T09:50:38Z</time>
      </trkpt>
      <trkpt lat="42.674904" lon="-8.479176">
        <ele>263.346</ele>
        <time>2019-06-22T09:50:39Z</time>
      </trkpt>
      <trkpt lat="42.674706" lon="-8.479124">
        <ele>264.260</ele>
        <time>2019-06-22T09:50:40Z</time>
      </trkpt>
      <trkpt lat="42.674514" lon="-8.479063">
        <ele>264.832</ele>
        <time>2019-06-22T09:50:41Z</time>
      </trkpt>
      <trkpt lat="42.674326" lon="-8.478976">
        <ele>265.694</ele>
        <time>2019-06-22T09:50:42Z</time>
      </trkpt>
      <trkpt lat="42.674139" lon="-8.478867">
        <ele>266.092</ele>
        <time>2019-06-22T09:50:43Z</time>
      </trkpt>
      <trkpt lat="42.673962" lon="-8.478725">
        <ele>266.441</ele>
        <time>2019-06-22T09:50:44Z</time>
      </trkpt>
      <trkpt lat="42.673793" lon="-8.478565">
        <ele>266.616</ele>
        <time>2019-06-22T09:50:45Z</time>
      </trkpt>
      <trkpt lat="42.673626" lon="-8.478376">
        <ele>266.889</ele>
        <time>2019-06-22T09:50:46Z</time>
      </trkpt>
      <trkpt lat="42.673458" lon="-8.478175">
        <ele>266.943</ele>
        <time>2019-06-22T09:50:47Z</time>
      </trkpt>
      <trkpt lat="42.673292" lon="-8.477964">
        <ele>267.364</ele>
        <time>2019-06-22T09:50:48Z</time>
      </trkpt>
      <trkpt lat="42.673124" lon="-8.477759">
        <ele>267.510</ele>
        <time>2019-06-22T09:50:49Z</time>
      </trkpt>
      <trkpt lat="42.672961" lon="-8.477551">
        <ele>267.708</ele>
        <time>2019-06-22T09:50:50Z</time>
      </trkpt>
      <trkpt lat="42.672792" lon="-8.477343">
        <ele>268.397</ele>
        <time>2019-06-22T09:50:51Z</time>
      </trkpt>
      <trkpt lat="42.672633" lon="-8.477139">
        <ele>268.971</ele>
        <time>2019-06-22T09:50:52Z</time>
      </trkpt>
      <trkpt lat="42.672472" lon="-8.476933">
        <ele>269.693</ele>
        <time>2019-06-22T09:50:53Z</time>
      </trkpt>
      <trkpt lat="42.672315" lon="-8.476710">
        <ele>270.565</ele>
        <time>2019-06-22T09:50:54Z</time>
      </trkpt>
      <trkpt lat="42.672158" lon="-8.476496">
        <ele>271.433</ele>
        <time>2019-06-22T09:50:55Z</time>
      </trkpt>
      <trkpt lat="42.671999" lon="-8.476290">
        <ele>272.252</ele>
        <time>2019-06-22T09:50:56Z</time>
      </trkpt>
      <trkpt lat="42.671838" lon="-8.476087">
        <ele>272.837</ele>
        <time>2019-06-22T09:50:57Z</time>
      </trkpt>
      <trkpt lat="42.671682" lon="-8.475878">
        <ele>273.360</ele>
        <time>2019-06-22T09:50:58Z</time>
      </trkpt>
      <trkpt lat="42.671527" lon="-8.475673">
        <ele>273.668</ele>
        <time>2019-06-22T09:50:59Z</time>
      </trkpt>
      <trkpt lat="42.671368" lon="-8.475469">
        <ele>274.342</ele>
        <time>2019-06-22T09:51:00Z</time>
      </trkpt>
      <trkpt lat="42.671199" lon="-8.475245">
        <ele>274.926</ele>
        <time>2019-06-22T09:51:01Z</time>
      </trkpt>
      <trkpt lat="42.671040" lon="-8.475035">
        <ele>275.008</ele>
        <time>2019-06-22T09:51:02Z</time>
      </trkpt>
      <trkpt lat="42.670858" lon="-8.474824">
        <ele>275.459</ele>
        <time>2019-06-22T09:51:03Z</time>
      </trkpt>
      <trkpt lat="42.670669" lon="-8.474615">
        <ele>275.493</ele>
        <time>2019-06-22T09:51:04Z</time>
      </trkpt>
      <trkpt lat="42.670501" lon="-8.474405">
        <ele>275.465</ele>
        <time>2019-06-22T09:51:05Z</time>
      </trkpt>
      <trkpt lat="42.670324" lon="-8.474201">
        <ele>274.527</ele>
        <time>2019-06-22T09:51:06Z</time>
      </trkpt>
      <trkpt lat="42.670147" lon="-8.474011">
        <ele>273.275</ele>
        <time>2019-06-22T09:51:07Z</time>
      </trkpt>
      <trkpt lat="42.669965" lon="-8.473831">
        <ele>271.274</ele>
        <time>2019-06-22T09:51:08Z</time>
      </trkpt>
      <trkpt lat="42.669747" lon="-8.473697">
        <ele>269.489</ele>
        <time>2019-06-22T09:51:09Z</time>
      </trkpt>
      <trkpt lat="42.669528" lon="-8.473585">
        <ele>268.592</ele>
        <time>2019-06-22T09:51:10Z</time>
      </trkpt>
      <trkpt lat="42.669291" lon="-8.473561">
        <ele>268.238</ele>
        <time>2019-06-22T09:51:11Z</time>
      </trkpt>
      <trkpt lat="42.669066" lon="-8.473534">
        <ele>267.970</ele>
        <time>2019-06-22T09:51:12Z</time>
      </trkpt>
      <trkpt lat="42.668844" lon="-8.473526">
        <ele>267.917</ele>
        <time>2019-06-22T09:51:13Z</time>
      </trkpt>
      <trkpt lat="42.668621" lon="-8.473520">
        <ele>268.408</ele>
        <time>2019-06-22T09:51:14Z</time>
      </trkpt>
      <trkpt lat="42.668393" lon="-8.473551">
        <ele>268.456</ele>
        <time>2019-06-22T09:51:15Z</time>
      </trkpt>
      <trkpt lat="42.668174" lon="-8.473557">
        <ele>268.450</ele>
        <time>2019-06-22T09:51:16Z</time>
      </trkpt>
      <trkpt lat="42.667957" lon="-8.473553">
        <ele>268.522</ele>
        <time>2019-06-22T09:51:17Z</time>
      </trkpt>
      <trkpt lat="42.667742" lon="-8.473531">
        <ele>269.624</ele>
        <time>2019-06-22T09:51:18Z</time>
      </trkpt>
      <trkpt lat="42.667533" lon="-8.473502">
        <ele>270.562</ele>
        <time>2019-06-22T09:51:19Z</time>
      </trkpt>
      <trkpt lat="42.667304" lon="-8.473440">
        <ele>270.881</ele>
        <time>2019-06-22T09:51:20Z</time>
      </trkpt>
      <trkpt lat="42.667094" lon="-8.473365">
        <ele>271.516</ele>
        <time>2019-06-22T09:51:21Z</time>
      </trkpt>
      <trkpt lat="42.666892" lon="-8.473201">
        <ele>271.839</ele>
        <time>2019-06-22T09:51:22Z</time>
      </trkpt>
      <trkpt lat="42.666676" lon="-8.473008">
        <ele>271.851</ele>
        <time>2019-06-22T09:51:23Z</time>
      </trkpt>
      <trkpt lat="42.666476" lon="-8.472808">
        <ele>271.801</ele>
        <time>2019-06-22T09:51:24Z</time>
      </trkpt>
      <trkpt lat="42.666304" lon="-8.472595">
        <ele>272.011</ele>
        <time>2019-06-22T09:51:25Z</time>
      </trkpt>
      <trkpt lat="42.666163" lon="-8.472360">
        <ele>272.408</ele>
        <time>2019-06-22T09:51:26Z</time>
      </trkpt>
      <trkpt lat="42.666017" lon="-8.472124">
        <ele>273.388</ele>
        <time>2019-06-22T09:51:27Z</time>
      </trkpt>
      <trkpt lat="42.665920" lon="-8.471869">
        <ele>274.192</ele>
        <time>2019-06-22T09:51:28Z</time>
      </trkpt>
      <trkpt lat="42.665817" lon="-8.471594">
        <ele>275.054</ele>
        <time>2019-06-22T09:51:29Z</time>
      </trkpt>
      <trkpt lat="42.665730" lon="-8.471325">
        <ele>276.226</ele>
        <time>2019-06-22T09:51:30Z</time>
      </trkpt>
      <trkpt lat="42.665654" lon="-8.471039">
        <ele>277.584</ele>
        <time>2019-06-22T09:51:31Z</time>
      </trkpt>
      <trkpt lat="42.665593" lon="-8.470747">
        <ele>279.073</ele>
        <time>2019-06-22T09:51:32Z</time>
      </trkpt>
      <trkpt lat="42.665525" lon="-8.470460">
        <ele>280.128</ele>
        <time>2019-06-22T09:51:33Z</time>
      </trkpt>
      <trkpt lat="42.665456" lon="-8.470176">
        <ele>281.581</ele>
        <time>2019-06-22T09:51:34Z</time>
      </trkpt>
      <trkpt lat="42.665387" lon="-8.469895">
        <ele>281.813</ele>
        <time>2019-06-22T09:51:35Z</time>
      </trkpt>
      <trkpt lat="42.665318" lon="-8.469621">
        <ele>281.843</ele>
        <time>2019-06-22T09:51:36Z</time>
      </trkpt>
      <trkpt lat="42.665267" lon="-8.469342">
        <ele>282.807</ele>
        <time>2019-06-22T09:51:37Z</time>
      </trkpt>
      <trkpt lat="42.665195" lon="-8.469067">
        <ele>283.908</ele>
        <time>2019-06-22T09:51:38Z</time>
      </trkpt>
      <trkpt lat="42.665128" lon="-8.468799">
        <ele>285.414</ele>
        <time>2019-06-22T09:51:39Z</time>
      </trkpt>
      <trkpt lat="42.665057" lon="-8.468517">
        <ele>286.738</ele>
        <time>2019-06-22T09:51:40Z</time>
      </trkpt>
      <trkpt lat="42.665004" lon="-8.468238">
        <ele>288.640</ele>
        <time>2019-06-22T09:51:41Z</time>
      </trkpt>
      <trkpt lat="42.664931" lon="-8.467988">
        <ele>290.452</ele>
        <time>2019-06-22T09:51:42Z</time>
      </trkpt>
      <trkpt lat="42.664852" lon="-8.467713">
        <ele>291.450</ele>
        <time>2019-06-22T09:51:43Z</time>
      </trkpt>
      <trkpt lat="42.664757" lon="-8.467440">
        <ele>292.469</ele>
        <time>2019-06-22T09:51:44Z</time>
      </trkpt>
      <trkpt lat="42.664649" lon="-8.467182">
        <ele>293.464</ele>
        <time>2019-06-22T09:51:45Z</time>
      </trkpt>
      <trkpt lat="42.664529" lon="-8.466939">
        <ele>294.757</ele>
        <time>2019-06-22T09:51:46Z</time>
      </trkpt>
      <trkpt lat="42.664403" lon="-8.466701">
        <ele>295.711</ele>
        <time>2019-06-22T09:51:47Z</time>
      </trkpt>
      <trkpt lat="42.664286" lon="-8.466466">
        <ele>296.321</ele>
        <time>2019-06-22T09:51:48Z</time>
      </trkpt>
      <trkpt lat="42.664151" lon="-8.466243">
        <ele>296.803</ele>
        <time>2019-06-22T09:51:49Z</time>
      </trkpt>
      <trkpt lat="42.664000" lon="-8.466043">
        <ele>297.308</ele>
        <time>2019-06-22T09:51:50Z</time>
      </trkpt>
      <trkpt lat="42.663804" lon="-8.465868">
        <ele>297.554</ele>
        <time>2019-06-22T09:51:51Z</time>
      </trkpt>
      <trkpt lat="42.663602" lon="-8.465698">
        <ele>297.758</ele>
        <time>2019-06-22T09:51:52Z</time>
      </trkpt>
      <trkpt lat="42.663365" lon="-8.465574">
        <ele>298.250</ele>
        <time>2019-06-22T09:51:53Z</time>
      </trkpt>
      <trkpt lat="42.663111" lon="-8.465420">
        <ele>298.732</ele>
        <time>2019-06-22T09:51:54Z</time>
      </trkpt>
      <trkpt lat="42.662848" lon="-8.465373">
        <ele>299.170</ele>
        <time>2019-06-22T09:51:55Z</time>
      </trkpt>
      <trkpt lat="42.662618" lon="-8.465300">
        <ele>299.939</ele>
        <time>2019-06-22T09:51:56Z</time>
      </trkpt>
      <trkpt lat="42.662364" lon="-8.465223">
        <ele>300.494</ele>
        <time>2019-06-22T09:51:57Z</time>
      </trkpt>
      <trkpt lat="42.662116" lon="-8.465125">
        <ele>300.437</ele>
        <time>2019-06-22T09:51:58Z</time>
      </trkpt>
      <trkpt lat="42.661879" lon="-8.465011">
        <ele>299.982</ele>
        <time>2019-06-22T09:51:59Z</time>
      </trkpt>
      <trkpt lat="42.661652" lon="-8.464901">
        <ele>299.543</ele>
        <time>2019-06-22T09:52:00Z</time>
      </trkpt>
      <trkpt lat="42.661418" lon="-8.464776">
        <ele>299.417</ele>
        <time>2019-06-22T09:52:01Z</time>
      </trkpt>
      <trkpt lat="42.661186" lon="-8.464644">
        <ele>299.108</ele>
        <time>2019-06-22T09:52:02Z</time>
      </trkpt>
      <trkpt lat="42.660946" lon="-8.464522">
        <ele>298.221</ele>
        <time>2019-06-22T09:52:03Z</time>
      </trkpt>
      <trkpt lat="42.660706" lon="-8.464409">
        <ele>298.245</ele>
        <time>2019-06-22T09:52:04Z</time>
      </trkpt>
      <trkpt lat="42.660479" lon="-8.464296">
        <ele>298.697</ele>
        <time>2019-06-22T09:52:05Z</time>
      </trkpt>
      <trkpt lat="42.660252" lon="-8.464182">
        <ele>298.939</ele>
        <time>2019-06-22T09:52:06Z</time>
      </trkpt>
      <trkpt lat="42.660020" lon="-8.464067">
        <ele>299.477</ele>
        <time>2019-06-22T09:52:07Z</time>
      </trkpt>
      <trkpt lat="42.659793" lon="-8.463961">
        <ele>301.056</ele>
        <time>2019-06-22T09:52:08Z</time>
      </trkpt>
      <trkpt lat="42.659570" lon="-8.463844">
        <ele>302.891</ele>
        <time>2019-06-22T09:52:09Z</time>
      </trkpt>
      <trkpt lat="42.659337" lon="-8.463722">
        <ele>304.044</ele>
        <time>2019-06-22T09:52:10Z</time>
      </trkpt>
      <trkpt lat="42.659106" lon="-8.463598">
        <ele>304.968</ele>
        <time>2019-06-22T09:52:11Z</time>
      </trkpt>
      <trkpt lat="42.658882" lon="-8.463476">
        <ele>306.742</ele>
        <time>2019-06-22T09:52:12Z</time>
      </trkpt>
      <trkpt lat="42.658653" lon="-8.463353">
        <ele>308.026</ele>
        <time>2019-06-22T09:52:13Z</time>
      </trkpt>
      <trkpt lat="42.658440" lon="-8.463251">
        <ele>310.008</ele>
        <time>2019-06-22T09:52:14Z</time>
      </trkpt>
      <trkpt lat="42.658223" lon="-8.463139">
        <ele>312.589</ele>
        <time>2019-06-22T09:52:15Z</time>
      </trkpt>
      <trkpt lat="42.658011" lon="-8.463025">
        <ele>314.753</ele>
        <time>2019-06-22T09:52:16Z</time>
      </trkpt>
      <trkpt lat="42.657800" lon="-8.462928">
        <ele>316.315</ele>
        <time>2019-06-22T09:52:17Z</time>
      </trkpt>
      <trkpt lat="42.657588" lon="-8.462836">
        <ele>318.657</ele>
        <time>2019-06-22T09:52:18Z</time>
      </trkpt>
      <trkpt lat="42.657375" lon="-8.462753">
        <ele>320.595</ele>
        <time>2019-06-22T09:52:19Z</time>
      </trkpt>
      <trkpt lat="42.657159" lon="-8.462690">
        <ele>321.664</ele>
        <time>2019-06-22T09:52:20Z</time>
      </trkpt>
      <trkpt lat="42.656943" lon="-8.462648">
        <ele>322.479</ele>
        <time>2019-06-22T09:52:21Z</time>
      </trkpt>
      <trkpt lat="42.656728" lon="-8.462626">
        <ele>323.452</ele>
        <time>2019-06-22T09:52:22Z</time>
      </trkpt>
      <trkpt lat="42.656514" lon="-8.462619">
        <ele>324.011</ele>
        <time>2019-06-22T09:52:23Z</time>
      </trkpt>
      <trkpt lat="42.656303" lon="-8.462622">
        <ele>326.221</ele>
        <time>2019-06-22T09:52:24Z</time>
      </trkpt>
      <trkpt lat="42.656102" lon="-8.462631">
        <ele>327.703</ele>
        <time>2019-06-22T09:52:25Z</time>
      </trkpt>
      <trkpt lat="42.655898" lon="-8.462641">
        <ele>330.308</ele>
        <time>2019-06-22T09:52:26Z</time>
      </trkpt>
      <trkpt lat="42.655697" lon="-8.462661">
        <ele>333.254</ele>
        <time>2019-06-22T09:52:27Z</time>
      </trkpt>
      <trkpt lat="42.655497" lon="-8.462682">
        <ele>335.858</ele>
        <time>2019-06-22T09:52:28Z</time>
      </trkpt>
      <trkpt lat="42.655296" lon="-8.462700">
        <ele>337.540</ele>
        <time>2019-06-22T09:52:29Z</time>
      </trkpt>
      <trkpt lat="42.655089" lon="-8.462714">
        <ele>339.212</ele>
        <time>2019-06-22T09:52:30Z</time>
      </trkpt>
      <trkpt lat="42.654887" lon="-8.462738">
        <ele>341.090</ele>
        <time>2019-06-22T09:52:31Z</time>
      </trkpt>
      <trkpt lat="42.654680" lon="-8.462753">
        <ele>341.639</ele>
        <time>2019-06-22T09:52:32Z</time>
      </trkpt>
      <trkpt lat="42.654469" lon="-8.462773">
        <ele>342.164</ele>
        <time>2019-06-22T09:52:33Z</time>
      </trkpt>
      <trkpt lat="42.654263" lon="-8.462793">
        <ele>342.427</ele>
        <time>2019-06-22T09:52:34Z</time>
      </trkpt>
      <trkpt lat="42.654048" lon="-8.462810">
        <ele>343.746</ele>
        <time>2019-06-22T09:52:35Z</time>
      </trkpt>
      <trkpt lat="42.653829" lon="-8.462831">
        <ele>344.888</ele>
        <time>2019-06-22T09:52:36Z</time>
      </trkpt>
      <trkpt lat="42.653607" lon="-8.462850">
        <ele>346.216</ele>
        <time>2019-06-22T09:52:37Z</time>
      </trkpt>
      <trkpt lat="42.653385" lon="-8.462870">
        <ele>346.308</ele>
        <time>2019-06-22T09:52:38Z</time>
      </trkpt>
      <trkpt lat="42.653153" lon="-8.462891">
        <ele>346.327</ele>
        <time>2019-06-22T09:52:39Z</time>
      </trkpt>
      <trkpt lat="42.652917" lon="-8.462918">
        <ele>347.331</ele>
        <time>2019-06-22T09:52:40Z</time>
      </trkpt>
      <trkpt lat="42.652686" lon="-8.462934">
        <ele>347.613</ele>
        <time>2019-06-22T09:52:41Z</time>
      </trkpt>
      <trkpt lat="42.652449" lon="-8.462952">
        <ele>347.615</ele>
        <time>2019-06-22T09:52:42Z</time>
      </trkpt>
      <trkpt lat="42.652201" lon="-8.462962">
        <ele>347.633</ele>
        <time>2019-06-22T09:52:43Z</time>
      </trkpt>
      <trkpt lat="42.651945" lon="-8.462979">
        <ele>347.842</ele>
        <time>2019-06-22T09:52:44Z</time>
      </trkpt>
      <trkpt lat="42.651690" lon="-8.462989">
        <ele>347.867</ele>
        <time>2019-06-22T09:52:45Z</time>
      </trkpt>
      <trkpt lat="42.651441" lon="-8.463005">
        <ele>347.410</ele>
        <time>2019-06-22T09:52:46Z</time>
      </trkpt>
      <trkpt lat="42.651193" lon="-8.463013">
        <ele>346.653</ele>
        <time>2019-06-22T09:52:47Z</time>
      </trkpt>
      <trkpt lat="42.650950" lon="-8.463029">
        <ele>346.604</ele>
        <time>2019-06-22T09:52:48Z</time>
      </trkpt>
      <trkpt lat="42.650695" lon="-8.463044">
        <ele>346.614</ele>
        <time>2019-06-22T09:52:49Z</time>
      </trkpt>
      <trkpt lat="42.650445" lon="-8.463057">
        <ele>346.908</ele>
        <time>2019-06-22T09:52:50Z</time>
      </trkpt>
      <trkpt lat="42.650185" lon="-8.463074">
        <ele>347.098</ele>
        <time>2019-06-22T09:52:51Z</time>
      </trkpt>
      <trkpt lat="42.649937" lon="-8.463109">
        <ele>346.962</ele>
        <time>2019-06-22T09:52:52Z</time>
      </trkpt>
      <trkpt lat="42.649686" lon="-8.463130">
        <ele>346.814</ele>
        <time>2019-06-22T09:52:53Z</time>
      </trkpt>
      <trkpt lat="42.649435" lon="-8.463148">
        <ele>346.236</ele>
        <time>2019-06-22T09:52:54Z</time>
      </trkpt>
      <trkpt lat="42.649185" lon="-8.463160">
        <ele>345.854</ele>
        <time>2019-06-22T09:52:55Z</time>
      </trkpt>
      <trkpt lat="42.648949" lon="-8.463176">
        <ele>344.493</ele>
        <time>2019-06-22T09:52:56Z</time>
      </trkpt>
      <trkpt lat="42.648717" lon="-8.463189">
        <ele>344.038</ele>
        <time>2019-06-22T09:52:57Z</time>
      </trkpt>
      <trkpt lat="42.648503" lon="-8.463184">
        <ele>344.061</ele>
        <time>2019-06-22T09:52:58Z</time>
      </trkpt>
      <trkpt lat="42.648299" lon="-8.463160">
        <ele>346.256</ele>
        <time>2019-06-22T09:52:59Z</time>
      </trkpt>
      <trkpt lat="42.648097" lon="-8.463108">
        <ele>348.159</ele>
        <time>2019-06-22T09:53:00Z</time>
      </trkpt>
      <trkpt lat="42.647894" lon="-8.463031">
        <ele>351.214</ele>
        <time>2019-06-22T09:53:01Z</time>
      </trkpt>
      <trkpt lat="42.647698" lon="-8.462925">
        <ele>354.508</ele>
        <time>2019-06-22T09:53:02Z</time>
      </trkpt>
      <trkpt lat="42.647512" lon="-8.462786">
        <ele>357.048</ele>
        <time>2019-06-22T09:53:03Z</time>
      </trkpt>
      <trkpt lat="42.647340" lon="-8.462630">
        <ele>358.512</ele>
        <time>2019-06-22T09:53:04Z</time>
      </trkpt>
      <trkpt lat="42.647173" lon="-8.462440">
        <ele>359.814</ele>
        <time>2019-06-22T09:53:05Z</time>
      </trkpt>
      <trkpt lat="42.647020" lon="-8.462233">
        <ele>361.266</ele>
        <time>2019-06-22T09:53:06Z</time>
      </trkpt>
      <trkpt lat="42.646874" lon="-8.462014">
        <ele>361.754</ele>
        <time>2019-06-22T09:53:07Z</time>
      </trkpt>
      <trkpt lat="42.646731" lon="-8.461795">
        <ele>362.773</ele>
        <time>2019-06-22T09:53:08Z</time>
      </trkpt>
      <trkpt lat="42.646588" lon="-8.461564">
        <ele>364.048</ele>
        <time>2019-06-22T09:53:09Z</time>
      </trkpt>
      <trkpt lat="42.646448" lon="-8.461329">
        <ele>364.951</ele>
        <time>2019-06-22T09:53:10Z</time>
      </trkpt>
      <trkpt lat="42.646306" lon="-8.461093">
        <ele>365.486</ele>
        <time>2019-06-22T09:53:11Z</time>
      </trkpt>
      <trkpt lat="42.646157" lon="-8.460866">
        <ele>366.960</ele>
        <time>2019-06-22T09:53:12Z</time>
      </trkpt>
      <trkpt lat="42.646004" lon="-8.460637">
        <ele>368.726</ele>
        <time>2019-06-22T09:53:13Z</time>
      </trkpt>
      <trkpt lat="42.645855" lon="-8.460381">
        <ele>370.008</ele>
        <time>2019-06-22T09:53:14Z</time>
      </trkpt>
      <trkpt lat="42.645709" lon="-8.460148">
        <ele>370.921</ele>
        <time>2019-06-22T09:53:15Z</time>
      </trkpt>
      <trkpt lat="42.645563" lon="-8.459912">
        <ele>371.665</ele>
        <time>2019-06-22T09:53:16Z</time>
      </trkpt>
      <trkpt lat="42.645418" lon="-8.459671">
        <ele>371.667</ele>
        <time>2019-06-22T09:53:17Z</time>
      </trkpt>
      <trkpt lat="42.645271" lon="-8.459429">
        <ele>371.569</ele>
        <time>2019-06-22T09:53:18Z</time>
      </trkpt>
      <trkpt lat="42.645139" lon="-8.459187">
        <ele>370.627</ele>
        <time>2019-06-22T09:53:19Z</time>
      </trkpt>
      <trkpt lat="42.644992" lon="-8.458960">
        <ele>369.936</ele>
        <time>2019-06-22T09:53:20Z</time>
      </trkpt>
      <trkpt lat="42.644846" lon="-8.458740">
        <ele>369.981</ele>
        <time>2019-06-22T09:53:21Z</time>
      </trkpt>
      <trkpt lat="42.644704" lon="-8.458525">
        <ele>369.924</ele>
        <time>2019-06-22T09:53:22Z</time>
      </trkpt>
      <trkpt lat="42.644574" lon="-8.458312">
        <ele>369.894</ele>
        <time>2019-06-22T09:53:23Z</time>
      </trkpt>
      <trkpt lat="42.644428" lon="-8.458098">
        <ele>369.257</ele>
        <time>2019-06-22T09:53:24Z</time>
      </trkpt>
      <trkpt lat="42.644284" lon="-8.457876">
        <ele>368.722</ele>
        <time>2019-06-22T09:53:25Z</time>
      </trkpt>
      <trkpt lat="42.644130" lon="-8.457652">
        <ele>367.508</ele>
        <time>2019-06-22T09:53:26Z</time>
      </trkpt>
      <trkpt lat="42.643976" lon="-8.457433">
        <ele>366.312</ele>
        <time>2019-06-22T09:53:27Z</time>
      </trkpt>
      <trkpt lat="42.643821" lon="-8.457211">
        <ele>365.836</ele>
        <time>2019-06-22T09:53:28Z</time>
      </trkpt>
      <trkpt lat="42.643660" lon="-8.456974">
        <ele>365.858</ele>
        <time>2019-06-22T09:53:29Z</time>
      </trkpt>
      <trkpt lat="42.643490" lon="-8.456735">
        <ele>365.920</ele>
        <time>2019-06-22T09:53:30Z</time>
      </trkpt>
      <trkpt lat="42.643321" lon="-8.456499">
        <ele>366.378</ele>
        <time>2019-06-22T09:53:31Z</time>
      </trkpt>
      <trkpt lat="42.643141" lon="-8.456264">
        <ele>366.367</ele>
        <time>2019-06-22T09:53:32Z</time>
      </trkpt>
      <trkpt lat="42.642958" lon="-8.456036">
        <ele>366.192</ele>
        <time>2019-06-22T09:53:33Z</time>
      </trkpt>
      <trkpt lat="42.642751" lon="-8.455803">
        <ele>365.055</ele>
        <time>2019-06-22T09:53:34Z</time>
      </trkpt>
      <trkpt lat="42.642553" lon="-8.455583">
        <ele>364.287</ele>
        <time>2019-06-22T09:53:35Z</time>
      </trkpt>
      <trkpt lat="42.642363" lon="-8.455369">
        <ele>363.542</ele>
        <time>2019-06-22T09:53:36Z</time>
      </trkpt>
      <trkpt lat="42.642161" lon="-8.455152">
        <ele>363.126</ele>
        <time>2019-06-22T09:53:37Z</time>
      </trkpt>
      <trkpt lat="42.641962" lon="-8.454941">
        <ele>363.108</ele>
        <time>2019-06-22T09:53:38Z</time>
      </trkpt>
      <trkpt lat="42.641765" lon="-8.454729">
        <ele>363.131</ele>
        <time>2019-06-22T09:53:39Z</time>
      </trkpt>
      <trkpt lat="42.641569" lon="-8.454515">
        <ele>363.855</ele>
        <time>2019-06-22T09:53:40Z</time>
      </trkpt>
      <trkpt lat="42.641375" lon="-8.454298">
        <ele>365.147</ele>
        <time>2019-06-22T09:53:41Z</time>
      </trkpt>
      <trkpt lat="42.641185" lon="-8.454083">
        <ele>366.059</ele>
        <time>2019-06-22T09:53:42Z</time>
      </trkpt>
      <trkpt lat="42.640995" lon="-8.453868">
        <ele>367.067</ele>
        <time>2019-06-22T09:53:43Z</time>
      </trkpt>
      <trkpt lat="42.640815" lon="-8.453665">
        <ele>367.546</ele>
        <time>2019-06-22T09:53:44Z</time>
      </trkpt>
      <trkpt lat="42.640631" lon="-8.453459">
        <ele>368.211</ele>
        <time>2019-06-22T09:53:45Z</time>
      </trkpt>
      <trkpt lat="42.640443" lon="-8.453262">
        <ele>369.074</ele>
        <time>2019-06-22T09:53:46Z</time>
      </trkpt>
      <trkpt lat="42.640246" lon="-8.453077">
        <ele>370.059</ele>
        <time>2019-06-22T09:53:47Z</time>
      </trkpt>
      <trkpt lat="42.640059" lon="-8.452888">
        <ele>371.003</ele>
        <time>2019-06-22T09:53:48Z</time>
      </trkpt>
      <trkpt lat="42.639867" lon="-8.452709">
        <ele>371.723</ele>
        <time>2019-06-22T09:53:49Z</time>
      </trkpt>
      <trkpt lat="42.639673" lon="-8.452531">
        <ele>372.608</ele>
        <time>2019-06-22T09:53:50Z</time>
      </trkpt>
      <trkpt lat="42.639459" lon="-8.452410">
        <ele>372.828</ele>
        <time>2019-06-22T09:53:51Z</time>
      </trkpt>
      <trkpt lat="42.639244" lon="-8.452279">
        <ele>373.522</ele>
        <time>2019-06-22T09:53:52Z</time>
      </trkpt>
      <trkpt lat="42.639030" lon="-8.452171">
        <ele>374.414</ele>
        <time>2019-06-22T09:53:53Z</time>
      </trkpt>
      <trkpt lat="42.638809" lon="-8.452059">
        <ele>376.016</ele>
        <time>2019-06-22T09:53:54Z</time>
      </trkpt>
      <trkpt lat="42.638580" lon="-8.451951">
        <ele>377.784</ele>
        <time>2019-06-22T09:53:55Z</time>
      </trkpt>
      <trkpt lat="42.638354" lon="-8.451841">
        <ele>379.453</ele>
        <time>2019-06-22T09:53:56Z</time>
      </trkpt>
      <trkpt lat="42.638128" lon="-8.451735">
        <ele>380.918</ele>
        <time>2019-06-22T09:53:57Z</time>
      </trkpt>
      <trkpt lat="42.637908" lon="-8.451634">
        <ele>381.991</ele>
        <time>2019-06-22T09:53:58Z</time>
      </trkpt>
      <trkpt lat="42.637690" lon="-8.451535">
        <ele>382.696</ele>
        <time>2019-06-22T09:53:59Z</time>
      </trkpt>
      <trkpt lat="42.637471" lon="-8.451427">
        <ele>382.931</ele>
        <time>2019-06-22T09:54:00Z</time>
      </trkpt>
      <trkpt lat="42.637279" lon="-8.451310">
        <ele>383.124</ele>
        <time>2019-06-22T09:54:01Z</time>
      </trkpt>
      <trkpt lat="42.637078" lon="-8.451207">
        <ele>383.108</ele>
        <time>2019-06-22T09:54:02Z</time>
      </trkpt>
      <trkpt lat="42.636899" lon="-8.451105">
        <ele>382.772</ele>
        <time>2019-06-22T09:54:03Z</time>
      </trkpt>
      <trkpt lat="42.636717" lon="-8.450982">
        <ele>382.766</ele>
        <time>2019-06-22T09:54:04Z</time>
      </trkpt>
      <trkpt lat="42.636539" lon="-8.450829">
        <ele>383.068</ele>
        <time>2019-06-22T09:54:05Z</time>
      </trkpt>
      <trkpt lat="42.636368" lon="-8.450661">
        <ele>383.240</ele>
        <time>2019-06-22T09:54:06Z</time>
      </trkpt>
      <trkpt lat="42.636195" lon="-8.450466">
        <ele>383.468</ele>
        <time>2019-06-22T09:54:07Z</time>
      </trkpt>
      <trkpt lat="42.636030" lon="-8.450265">
        <ele>385.267</ele>
        <time>2019-06-22T09:54:08Z</time>
      </trkpt>
      <trkpt lat="42.635861" lon="-8.450048">
        <ele>385.362</ele>
        <time>2019-06-22T09:54:09Z</time>
      </trkpt>
      <trkpt lat="42.635709" lon="-8.449817">
        <ele>385.575</ele>
        <time>2019-06-22T09:54:10Z</time>
      </trkpt>
      <trkpt lat="42.635550" lon="-8.449570">
        <ele>385.685</ele>
        <time>2019-06-22T09:54:11Z</time>
      </trkpt>
      <trkpt lat="42.635386" lon="-8.449326">
        <ele>386.089</ele>
        <time>2019-06-22T09:54:12Z</time>
      </trkpt>
      <trkpt lat="42.635222" lon="-8.449080">
        <ele>386.017</ele>
        <time>2019-06-22T09:54:13Z</time>
      </trkpt>
      <trkpt lat="42.635054" lon="-8.448834">
        <ele>385.708</ele>
        <time>2019-06-22T09:54:14Z</time>
      </trkpt>
      <trkpt lat="42.634891" lon="-8.448586">
        <ele>385.471</ele>
        <time>2019-06-22T09:54:15Z</time>
      </trkpt>
      <trkpt lat="42.634727" lon="-8.448340">
        <ele>385.375</ele>
        <time>2019-06-22T09:54:16Z</time>
      </trkpt>
      <trkpt lat="42.634557" lon="-8.448100">
        <ele>384.517</ele>
        <time>2019-06-22T09:54:17Z</time>
      </trkpt>
      <trkpt lat="42.634385" lon="-8.447852">
        <ele>383.439</ele>
        <time>2019-06-22T09:54:18Z</time>
      </trkpt>
      <trkpt lat="42.634217" lon="-8.447604">
        <ele>383.277</ele>
        <time>2019-06-22T09:54:19Z</time>
      </trkpt>
      <trkpt lat="42.634042" lon="-8.447348">
        <ele>383.116</ele>
        <time>2019-06-22T09:54:20Z</time>
      </trkpt>
      <trkpt lat="42.633872" lon="-8.447100">
        <ele>381.841</ele>
        <time>2019-06-22T09:54:21Z</time>
      </trkpt>
      <trkpt lat="42.633697" lon="-8.446852">
        <ele>380.764</ele>
        <time>2019-06-22T09:54:22Z</time>
      </trkpt>
      <trkpt lat="42.633532" lon="-8.446605">
        <ele>379.749</ele>
        <time>2019-06-22T09:54:23Z</time>
      </trkpt>
      <trkpt lat="42.633369" lon="-8.446359">
        <ele>378.502</ele>
        <time>2019-06-22T09:54:24Z</time>
      </trkpt>
      <trkpt lat="42.633194" lon="-8.446108">
        <ele>377.022</ele>
        <time>2019-06-22T09:54:25Z</time>
      </trkpt>
      <trkpt lat="42.633030" lon="-8.445850">
        <ele>376.708</ele>
        <time>2019-06-22T09:54:26Z</time>
      </trkpt>
      <trkpt lat="42.632868" lon="-8.445609">
        <ele>376.427</ele>
        <time>2019-06-22T09:54:27Z</time>
      </trkpt>
      <trkpt lat="42.632698" lon="-8.445355">
        <ele>376.171</ele>
        <time>2019-06-22T09:54:28Z</time>
      </trkpt>
      <trkpt lat="42.632530" lon="-8.445103">
        <ele>375.063</ele>
        <time>2019-06-22T09:54:29Z</time>
      </trkpt>
      <trkpt lat="42.632359" lon="-8.444854">
        <ele>374.495</ele>
        <time>2019-06-22T09:54:30Z</time>
      </trkpt>
      <trkpt lat="42.632198" lon="-8.444613">
        <ele>372.973</ele>
        <time>2019-06-22T09:54:31Z</time>
      </trkpt>
      <trkpt lat="42.632038" lon="-8.444375">
        <ele>372.232</ele>
        <time>2019-06-22T09:54:32Z</time>
      </trkpt>
      <trkpt lat="42.631880" lon="-8.444139">
        <ele>371.357</ele>
        <time>2019-06-22T09:54:33Z</time>
      </trkpt>
      <trkpt lat="42.631723" lon="-8.443917">
        <ele>371.350</ele>
        <time>2019-06-22T09:54:34Z</time>
      </trkpt>
      <trkpt lat="42.631574" lon="-8.443689">
        <ele>371.246</ele>
        <time>2019-06-22T09:54:35Z</time>
      </trkpt>
      <trkpt lat="42.631432" lon="-8.443481">
        <ele>370.988</ele>
        <time>2019-06-22T09:54:36Z</time>
      </trkpt>
      <trkpt lat="42.631292" lon="-8.443275">
        <ele>369.716</ele>
        <time>2019-06-22T09:54:37Z</time>
      </trkpt>
      <trkpt lat="42.631153" lon="-8.443072">
        <ele>369.708</ele>
        <time>2019-06-22T09:54:38Z</time>
      </trkpt>
      <trkpt lat="42.631033" lon="-8.442881">
        <ele>370.777</ele>
        <time>2019-06-22T09:54:39Z</time>
      </trkpt>
      <trkpt lat="42.630893" lon="-8.442694">
        <ele>370.721</ele>
        <time>2019-06-22T09:54:40Z</time>
      </trkpt>
      <trkpt lat="42.630756" lon="-8.442504">
        <ele>370.993</ele>
        <time>2019-06-22T09:54:41Z</time>
      </trkpt>
      <trkpt lat="42.630604" lon="-8.442331">
        <ele>370.915</ele>
        <time>2019-06-22T09:54:42Z</time>
      </trkpt>
      <trkpt lat="42.630453" lon="-8.442147">
        <ele>372.133</ele>
        <time>2019-06-22T09:54:43Z</time>
      </trkpt>
      <trkpt lat="42.630271" lon="-8.441989">
        <ele>372.172</ele>
        <time>2019-06-22T09:54:44Z</time>
      </trkpt>
      <trkpt lat="42.630093" lon="-8.441822">
        <ele>371.577</ele>
        <time>2019-06-22T09:54:45Z</time>
      </trkpt>
      <trkpt lat="42.629913" lon="-8.441654">
        <ele>370.760</ele>
        <time>2019-06-22T09:54:46Z</time>
      </trkpt>
      <trkpt lat="42.629728" lon="-8.441483">
        <ele>369.831</ele>
        <time>2019-06-22T09:54:47Z</time>
      </trkpt>
      <trkpt lat="42.629526" lon="-8.441309">
        <ele>368.861</ele>
        <time>2019-06-22T09:54:48Z</time>
      </trkpt>
      <trkpt lat="42.629330" lon="-8.441125">
        <ele>368.507</ele>
        <time>2019-06-22T09:54:49Z</time>
      </trkpt>
      <trkpt lat="42.629139" lon="-8.440933">
        <ele>368.508</ele>
        <time>2019-06-22T09:54:50Z</time>
      </trkpt>
      <trkpt lat="42.628950" lon="-8.440744">
        <ele>368.596</ele>
        <time>2019-06-22T09:54:51Z</time>
      </trkpt>
      <trkpt lat="42.628750" lon="-8.440560">
        <ele>367.850</ele>
        <time>2019-06-22T09:54:52Z</time>
      </trkpt>
      <trkpt lat="42.628520" lon="-8.440366">
        <ele>366.712</ele>
        <time>2019-06-22T09:54:53Z</time>
      </trkpt>
      <trkpt lat="42.628299" lon="-8.440182">
        <ele>365.744</ele>
        <time>2019-06-22T09:54:54Z</time>
      </trkpt>
      <trkpt lat="42.628080" lon="-8.439992">
        <ele>364.292</ele>
        <time>2019-06-22T09:54:55Z</time>
      </trkpt>
      <trkpt lat="42.627865" lon="-8.439812">
        <ele>362.541</ele>
        <time>2019-06-22T09:54:56Z</time>
      </trkpt>
      <trkpt lat="42.627652" lon="-8.439621">
        <ele>361.426</ele>
        <time>2019-06-22T09:54:57Z</time>
      </trkpt>
      <trkpt lat="42.627442" lon="-8.439441">
        <ele>361.429</ele>
        <time>2019-06-22T09:54:58Z</time>
      </trkpt>
      <trkpt lat="42.627222" lon="-8.439280">
        <ele>359.973</ele>
        <time>2019-06-22T09:54:59Z</time>
      </trkpt>
      <trkpt lat="42.627011" lon="-8.439117">
        <ele>359.085</ele>
        <time>2019-06-22T09:55:00Z</time>
      </trkpt>
      <trkpt lat="42.626803" lon="-8.439015">
        <ele>355.513</ele>
        <time>2019-06-22T09:55:01Z</time>
      </trkpt>
      <trkpt lat="42.626594" lon="-8.438930">
        <ele>355.508</ele>
        <time>2019-06-22T09:55:02Z</time>
      </trkpt>
      <trkpt lat="42.626385" lon="-8.438889">
        <ele>355.510</ele>
        <time>2019-06-22T09:55:03Z</time>
      </trkpt>
      <trkpt lat="42.626171" lon="-8.438862">
        <ele>356.924</ele>
        <time>2019-06-22T09:55:04Z</time>
      </trkpt>
      <trkpt lat="42.625965" lon="-8.438899">
        <ele>358.226</ele>
        <time>2019-06-22T09:55:05Z</time>
      </trkpt>
      <trkpt lat="42.625761" lon="-8.438956">
        <ele>361.158</ele>
        <time>2019-06-22T09:55:06Z</time>
      </trkpt>
      <trkpt lat="42.625561" lon="-8.439031">
        <ele>364.396</ele>
        <time>2019-06-22T09:55:07Z</time>
      </trkpt>
      <trkpt lat="42.625366" lon="-8.439109">
        <ele>368.025</ele>
        <time>2019-06-22T09:55:08Z</time>
      </trkpt>
      <trkpt lat="42.625175" lon="-8.439198">
        <ele>370.450</ele>
        <time>2019-06-22T09:55:09Z</time>
      </trkpt>
      <trkpt lat="42.624979" lon="-8.439272">
        <ele>373.183</ele>
        <time>2019-06-22T09:55:10Z</time>
      </trkpt>
      <trkpt lat="42.624774" lon="-8.439329">
        <ele>375.511</ele>
        <time>2019-06-22T09:55:11Z</time>
      </trkpt>
      <trkpt lat="42.624568" lon="-8.439367">
        <ele>377.321</ele>
        <time>2019-06-22T09:55:12Z</time>
      </trkpt>
      <trkpt lat="42.624363" lon="-8.439373">
        <ele>378.403</ele>
        <time>2019-06-22T09:55:13Z</time>
      </trkpt>
      <trkpt lat="42.624163" lon="-8.439344">
        <ele>379.108</ele>
        <time>2019-06-22T09:55:14Z</time>
      </trkpt>
      <trkpt lat="42.623968" lon="-8.439286">
        <ele>380.384</ele>
        <time>2019-06-22T09:55:15Z</time>
      </trkpt>
      <trkpt lat="42.623783" lon="-8.439189">
        <ele>381.118</ele>
        <time>2019-06-22T09:55:16Z</time>
      </trkpt>
      <trkpt lat="42.623612" lon="-8.439062">
        <ele>382.490</ele>
        <time>2019-06-22T09:55:17Z</time>
      </trkpt>
      <trkpt lat="42.623445" lon="-8.438897">
        <ele>383.852</ele>
        <time>2019-06-22T09:55:18Z</time>
      </trkpt>
      <trkpt lat="42.623294" lon="-8.438708">
        <ele>384.670</ele>
        <time>2019-06-22T09:55:19Z</time>
      </trkpt>
      <trkpt lat="42.623158" lon="-8.438510">
        <ele>385.649</ele>
        <time>2019-06-22T09:55:20Z</time>
      </trkpt>
      <trkpt lat="42.623034" lon="-8.438295">
        <ele>386.814</ele>
        <time>2019-06-22T09:55:21Z</time>
      </trkpt>
      <trkpt lat="42.622921" lon="-8.438073">
        <ele>387.017</ele>
        <time>2019-06-22T09:55:22Z</time>
      </trkpt>
      <trkpt lat="42.622793" lon="-8.437846">
        <ele>387.861</ele>
        <time>2019-06-22T09:55:23Z</time>
      </trkpt>
      <trkpt lat="42.622669" lon="-8.437625">
        <ele>389.021</ele>
        <time>2019-06-22T09:55:24Z</time>
      </trkpt>
      <trkpt lat="42.622537" lon="-8.437407">
        <ele>391.013</ele>
        <time>2019-06-22T09:55:25Z</time>
      </trkpt>
      <trkpt lat="42.622394" lon="-8.437192">
        <ele>391.908</ele>
        <time>2019-06-22T09:55:26Z</time>
      </trkpt>
      <trkpt lat="42.622251" lon="-8.436992">
        <ele>394.559</ele>
        <time>2019-06-22T09:55:27Z</time>
      </trkpt>
      <trkpt lat="42.622101" lon="-8.436784">
        <ele>397.013</ele>
        <time>2019-06-22T09:55:28Z</time>
      </trkpt>
      <trkpt lat="42.621944" lon="-8.436582">
        <ele>399.125</ele>
        <time>2019-06-22T09:55:29Z</time>
      </trkpt>
      <trkpt lat="42.621781" lon="-8.436388">
        <ele>400.577</ele>
        <time>2019-06-22T09:55:30Z</time>
      </trkpt>
      <trkpt lat="42.621611" lon="-8.436208">
        <ele>402.535</ele>
        <time>2019-06-22T09:55:31Z</time>
      </trkpt>
      <trkpt lat="42.621439" lon="-8.436034">
        <ele>404.674</ele>
        <time>2019-06-22T09:55:32Z</time>
      </trkpt>
      <trkpt lat="42.621250" lon="-8.435873">
        <ele>406.169</ele>
        <time>2019-06-22T09:55:33Z</time>
      </trkpt>
      <trkpt lat="42.621070" lon="-8.435702">
        <ele>407.382</ele>
        <time>2019-06-22T09:55:34Z</time>
      </trkpt>
      <trkpt lat="42.620881" lon="-8.435541">
        <ele>409.013</ele>
        <time>2019-06-22T09:55:35Z</time>
      </trkpt>
      <trkpt lat="42.620688" lon="-8.435373">
        <ele>410.743</ele>
        <time>2019-06-22T09:55:36Z</time>
      </trkpt>
      <trkpt lat="42.620509" lon="-8.435208">
        <ele>410.907</ele>
        <time>2019-06-22T09:55:37Z</time>
      </trkpt>
      <trkpt lat="42.620323" lon="-8.435046">
        <ele>410.908</ele>
        <time>2019-06-22T09:55:38Z</time>
      </trkpt>
      <trkpt lat="42.620140" lon="-8.434892">
        <ele>410.944</ele>
        <time>2019-06-22T09:55:39Z</time>
      </trkpt>
      <trkpt lat="42.619961" lon="-8.434729">
        <ele>410.978</ele>
        <time>2019-06-22T09:55:40Z</time>
      </trkpt>
      <trkpt lat="42.619771" lon="-8.434570">
        <ele>410.990</ele>
        <time>2019-06-22T09:55:41Z</time>
      </trkpt>
      <trkpt lat="42.619598" lon="-8.434405">
        <ele>411.242</ele>
        <time>2019-06-22T09:55:42Z</time>
      </trkpt>
      <trkpt lat="42.619421" lon="-8.434250">
        <ele>411.430</ele>
        <time>2019-06-22T09:55:43Z</time>
      </trkpt>
      <trkpt lat="42.619246" lon="-8.434087">
        <ele>413.269</ele>
        <time>2019-06-22T09:55:44Z</time>
      </trkpt>
      <trkpt lat="42.619069" lon="-8.433927">
        <ele>415.564</ele>
        <time>2019-06-22T09:55:45Z</time>
      </trkpt>
      <trkpt lat="42.618888" lon="-8.433778">
        <ele>417.467</ele>
        <time>2019-06-22T09:55:46Z</time>
      </trkpt>
      <trkpt lat="42.618672" lon="-8.433681">
        <ele>419.331</ele>
        <time>2019-06-22T09:55:47Z</time>
      </trkpt>
      <trkpt lat="42.618455" lon="-8.433584">
        <ele>421.061</ele>
        <time>2019-06-22T09:55:48Z</time>
      </trkpt>
      <trkpt lat="42.618240" lon="-8.433526">
        <ele>421.107</ele>
        <time>2019-06-22T09:55:49Z</time>
      </trkpt>
      <trkpt lat="42.618022" lon="-8.433485">
        <ele>421.408</ele>
        <time>2019-06-22T09:55:50Z</time>
      </trkpt>
      <trkpt lat="42.617793" lon="-8.433469">
        <ele>421.456</ele>
        <time>2019-06-22T09:55:51Z</time>
      </trkpt>
      <trkpt lat="42.617568" lon="-8.433462">
        <ele>422.120</ele>
        <time>2019-06-22T09:55:52Z</time>
      </trkpt>
      <trkpt lat="42.617355" lon="-8.433462">
        <ele>423.722</ele>
        <time>2019-06-22T09:55:53Z</time>
      </trkpt>
      <trkpt lat="42.617128" lon="-8.433467">
        <ele>426.314</ele>
        <time>2019-06-22T09:55:54Z</time>
      </trkpt>
      <trkpt lat="42.616906" lon="-8.433473">
        <ele>428.952</ele>
        <time>2019-06-22T09:55:55Z</time>
      </trkpt>
      <trkpt lat="42.616684" lon="-8.433475">
        <ele>431.491</ele>
        <time>2019-06-22T09:55:56Z</time>
      </trkpt>
      <trkpt lat="42.616470" lon="-8.433483">
        <ele>433.346</ele>
        <time>2019-06-22T09:55:57Z</time>
      </trkpt>
      <trkpt lat="42.616254" lon="-8.433505">
        <ele>434.319</ele>
        <time>2019-06-22T09:55:58Z</time>
      </trkpt>
      <trkpt lat="42.616037" lon="-8.433512">
        <ele>434.714</ele>
        <time>2019-06-22T09:55:59Z</time>
      </trkpt>
      <trkpt lat="42.615820" lon="-8.433511">
        <ele>437.154</ele>
        <time>2019-06-22T09:56:00Z</time>
      </trkpt>
      <trkpt lat="42.615603" lon="-8.433504">
        <ele>438.209</ele>
        <time>2019-06-22T09:56:01Z</time>
      </trkpt>
      <trkpt lat="42.615385" lon="-8.433487">
        <ele>440.508</ele>
        <time>2019-06-22T09:56:02Z</time>
      </trkpt>
      <trkpt lat="42.615182" lon="-8.433431">
        <ele>443.054</ele>
        <time>2019-06-22T09:56:03Z</time>
      </trkpt>
      <trkpt lat="42.614972" lon="-8.433370">
        <ele>446.288</ele>
        <time>2019-06-22T09:56:04Z</time>
      </trkpt>
      <trkpt lat="42.614775" lon="-8.433269">
        <ele>448.260</ele>
        <time>2019-06-22T09:56:05Z</time>
      </trkpt>
      <trkpt lat="42.614595" lon="-8.433133">
        <ele>450.472</ele>
        <time>2019-06-22T09:56:06Z</time>
      </trkpt>
      <trkpt lat="42.614420" lon="-8.432966">
        <ele>452.620</ele>
        <time>2019-06-22T09:56:07Z</time>
      </trkpt>
      <trkpt lat="42.614252" lon="-8.432790">
        <ele>454.049</ele>
        <time>2019-06-22T09:56:08Z</time>
      </trkpt>
      <trkpt lat="42.614086" lon="-8.432608">
        <ele>455.074</ele>
        <time>2019-06-22T09:56:09Z</time>
      </trkpt>
      <trkpt lat="42.613917" lon="-8.432419">
        <ele>455.887</ele>
        <time>2019-06-22T09:56:10Z</time>
      </trkpt>
      <trkpt lat="42.613751" lon="-8.432222">
        <ele>456.762</ele>
        <time>2019-06-22T09:56:11Z</time>
      </trkpt>
      <trkpt lat="42.613584" lon="-8.432025">
        <ele>457.683</ele>
        <time>2019-06-22T09:56:12Z</time>
      </trkpt>
      <trkpt lat="42.613424" lon="-8.431833">
        <ele>459.011</ele>
        <time>2019-06-22T09:56:13Z</time>
      </trkpt>
      <trkpt lat="42.613254" lon="-8.431634">
        <ele>460.808</ele>
        <time>2019-06-22T09:56:14Z</time>
      </trkpt>
      <trkpt lat="42.613080" lon="-8.431430">
        <ele>462.179</ele>
        <time>2019-06-22T09:56:15Z</time>
      </trkpt>
      <trkpt lat="42.612911" lon="-8.431226">
        <ele>462.543</ele>
        <time>2019-06-22T09:56:16Z</time>
      </trkpt>
      <trkpt lat="42.612753" lon="-8.431027">
        <ele>463.165</ele>
        <time>2019-06-22T09:56:17Z</time>
      </trkpt>
      <trkpt lat="42.612606" lon="-8.430840">
        <ele>463.727</ele>
        <time>2019-06-22T09:56:18Z</time>
      </trkpt>
      <trkpt lat="42.612445" lon="-8.430658">
        <ele>463.745</ele>
        <time>2019-06-22T09:56:19Z</time>
      </trkpt>
      <trkpt lat="42.612271" lon="-8.430515">
        <ele>464.564</ele>
        <time>2019-06-22T09:56:20Z</time>
      </trkpt>
      <trkpt lat="42.612092" lon="-8.430409">
        <ele>465.359</ele>
        <time>2019-06-22T09:56:21Z</time>
      </trkpt>
      <trkpt lat="42.611911" lon="-8.430345">
        <ele>465.762</ele>
        <time>2019-06-22T09:56:22Z</time>
      </trkpt>
      <trkpt lat="42.611739" lon="-8.430320">
        <ele>465.731</ele>
        <time>2019-06-22T09:56:23Z</time>
      </trkpt>
      <trkpt lat="42.611575" lon="-8.430314">
        <ele>466.961</ele>
        <time>2019-06-22T09:56:24Z</time>
      </trkpt>
      <trkpt lat="42.611417" lon="-8.430392">
        <ele>468.807</ele>
        <time>2019-06-22T09:56:25Z</time>
      </trkpt>
      <trkpt lat="42.611266" lon="-8.430486">
        <ele>470.108</ele>
        <time>2019-06-22T09:56:26Z</time>
      </trkpt>
      <trkpt lat="42.611116" lon="-8.430599">
        <ele>472.856</ele>
        <time>2019-06-22T09:56:27Z</time>
      </trkpt>
      <trkpt lat="42.610993" lon="-8.430778">
        <ele>475.390</ele>
        <time>2019-06-22T09:56:28Z</time>
      </trkpt>
      <trkpt lat="42.610867" lon="-8.430942">
        <ele>476.662</ele>
        <time>2019-06-22T09:56:29Z</time>
      </trkpt>
      <trkpt lat="42.610752" lon="-8.431126">
        <ele>476.614</ele>
        <time>2019-06-22T09:56:30Z</time>
      </trkpt>
      <trkpt lat="42.610623" lon="-8.431286">
        <ele>477.672</ele>
        <time>2019-06-22T09:56:31Z</time>
      </trkpt>
      <trkpt lat="42.610476" lon="-8.431429">
        <ele>479.121</ele>
        <time>2019-06-22T09:56:32Z</time>
      </trkpt>
      <trkpt lat="42.610317" lon="-8.431547">
        <ele>481.146</ele>
        <time>2019-06-22T09:56:33Z</time>
      </trkpt>
      <trkpt lat="42.610141" lon="-8.431631">
        <ele>483.619</ele>
        <time>2019-06-22T09:56:34Z</time>
      </trkpt>
      <trkpt lat="42.609966" lon="-8.431673">
        <ele>486.622</ele>
        <time>2019-06-22T09:56:35Z</time>
      </trkpt>
      <trkpt lat="42.609778" lon="-8.431682">
        <ele>489.962</ele>
        <time>2019-06-22T09:56:36Z</time>
      </trkpt>
      <trkpt lat="42.609581" lon="-8.431668">
        <ele>491.908</ele>
        <time>2019-06-22T09:56:37Z</time>
      </trkpt>
      <trkpt lat="42.609387" lon="-8.431633">
        <ele>493.908</ele>
        <time>2019-06-22T09:56:38Z</time>
      </trkpt>
      <trkpt lat="42.609192" lon="-8.431586">
        <ele>495.575</ele>
        <time>2019-06-22T09:56:39Z</time>
      </trkpt>
      <trkpt lat="42.609002" lon="-8.431534">
        <ele>496.949</ele>
        <time>2019-06-22T09:56:40Z</time>
      </trkpt>
      <trkpt lat="42.608804" lon="-8.431478">
        <ele>497.761</ele>
        <time>2019-06-22T09:56:41Z</time>
      </trkpt>
      <trkpt lat="42.608601" lon="-8.431426">
        <ele>499.123</ele>
        <time>2019-06-22T09:56:42Z</time>
      </trkpt>
      <trkpt lat="42.608387" lon="-8.431377">
        <ele>499.161</ele>
        <time>2019-06-22T09:56:43Z</time>
      </trkpt>
      <trkpt lat="42.608183" lon="-8.431327">
        <ele>500.550</ele>
        <time>2019-06-22T09:56:44Z</time>
      </trkpt>
      <trkpt lat="42.607978" lon="-8.431275">
        <ele>502.225</ele>
        <time>2019-06-22T09:56:45Z</time>
      </trkpt>
      <trkpt lat="42.607786" lon="-8.431213">
        <ele>503.618</ele>
        <time>2019-06-22T09:56:46Z</time>
      </trkpt>
      <trkpt lat="42.607603" lon="-8.431151">
        <ele>505.859</ele>
        <time>2019-06-22T09:56:47Z</time>
      </trkpt>
      <trkpt lat="42.607421" lon="-8.431078">
        <ele>507.703</ele>
        <time>2019-06-22T09:56:48Z</time>
      </trkpt>
      <trkpt lat="42.607244" lon="-8.430994">
        <ele>509.523</ele>
        <time>2019-06-22T09:56:49Z</time>
      </trkpt>
      <trkpt lat="42.607069" lon="-8.430858">
        <ele>510.908</ele>
        <time>2019-06-22T09:56:50Z</time>
      </trkpt>
      <trkpt lat="42.606905" lon="-8.430707">
        <ele>512.658</ele>
        <time>2019-06-22T09:56:51Z</time>
      </trkpt>
      <trkpt lat="42.606748" lon="-8.430541">
        <ele>514.472</ele>
        <time>2019-06-22T09:56:52Z</time>
      </trkpt>
      <trkpt lat="42.606611" lon="-8.430342">
        <ele>516.114</ele>
        <time>2019-06-22T09:56:53Z</time>
      </trkpt>
      <trkpt lat="42.606477" lon="-8.430143">
        <ele>517.766</ele>
        <time>2019-06-22T09:56:54Z</time>
      </trkpt>
      <trkpt lat="42.606380" lon="-8.429911">
        <ele>519.574</ele>
        <time>2019-06-22T09:56:55Z</time>
      </trkpt>
      <trkpt lat="42.606291" lon="-8.429657">
        <ele>521.313</ele>
        <time>2019-06-22T09:56:56Z</time>
      </trkpt>
      <trkpt lat="42.606217" lon="-8.429400">
        <ele>523.288</ele>
        <time>2019-06-22T09:56:57Z</time>
      </trkpt>
      <trkpt lat="42.606159" lon="-8.429142">
        <ele>524.791</ele>
        <time>2019-06-22T09:56:58Z</time>
      </trkpt>
      <trkpt lat="42.606125" lon="-8.428867">
        <ele>526.398</ele>
        <time>2019-06-22T09:56:59Z</time>
      </trkpt>
      <trkpt lat="42.606094" lon="-8.428593">
        <ele>527.815</ele>
        <time>2019-06-22T09:57:00Z</time>
      </trkpt>
      <trkpt lat="42.606108" lon="-8.428298">
        <ele>529.226</ele>
        <time>2019-06-22T09:57:01Z</time>
      </trkpt>
      <trkpt lat="42.606112" lon="-8.428005">
        <ele>530.308</ele>
        <time>2019-06-22T09:57:02Z</time>
      </trkpt>
      <trkpt lat="42.606125" lon="-8.427711">
        <ele>530.512</ele>
        <time>2019-06-22T09:57:03Z</time>
      </trkpt>
      <trkpt lat="42.606140" lon="-8.427425">
        <ele>531.096</ele>
        <time>2019-06-22T09:57:04Z</time>
      </trkpt>
      <trkpt lat="42.606140" lon="-8.427135">
        <ele>531.418</ele>
        <time>2019-06-22T09:57:05Z</time>
      </trkpt>
      <trkpt lat="42.606145" lon="-8.426833">
        <ele>532.490</ele>
        <time>2019-06-22T09:57:06Z</time>
      </trkpt>
      <trkpt lat="42.606157" lon="-8.426543">
        <ele>533.548</ele>
        <time>2019-06-22T09:57:07Z</time>
      </trkpt>
      <trkpt lat="42.606148" lon="-8.426255">
        <ele>535.297</ele>
        <time>2019-06-22T09:57:08Z</time>
      </trkpt>
      <trkpt lat="42.606116" lon="-8.425948">
        <ele>536.122</ele>
        <time>2019-06-22T09:57:09Z</time>
      </trkpt>
      <trkpt lat="42.606081" lon="-8.425672">
        <ele>536.915</ele>
        <time>2019-06-22T09:57:10Z</time>
      </trkpt>
      <trkpt lat="42.606013" lon="-8.425386">
        <ele>537.566</ele>
        <time>2019-06-22T09:57:11Z</time>
      </trkpt>
      <trkpt lat="42.605924" lon="-8.425102">
        <ele>538.129</ele>
        <time>2019-06-22T09:57:12Z</time>
      </trkpt>
      <trkpt lat="42.605813" lon="-8.424840">
        <ele>538.121</ele>
        <time>2019-06-22T09:57:13Z</time>
      </trkpt>
      <trkpt lat="42.605683" lon="-8.424597">
        <ele>538.108</ele>
        <time>2019-06-22T09:57:14Z</time>
      </trkpt>
      <trkpt lat="42.605540" lon="-8.424374">
        <ele>538.859</ele>
        <time>2019-06-22T09:57:15Z</time>
      </trkpt>
      <trkpt lat="42.605385" lon="-8.424160">
        <ele>539.673</ele>
        <time>2019-06-22T09:57:16Z</time>
      </trkpt>
      <trkpt lat="42.605244" lon="-8.423947">
        <ele>540.845</ele>
        <time>2019-06-22T09:57:17Z</time>
      </trkpt>
      <trkpt lat="42.605093" lon="-8.423725">
        <ele>543.167</ele>
        <time>2019-06-22T09:57:18Z</time>
      </trkpt>
      <trkpt lat="42.604945" lon="-8.423509">
        <ele>545.755</ele>
        <time>2019-06-22T09:57:19Z</time>
      </trkpt>
      <trkpt lat="42.604808" lon="-8.423277">
        <ele>548.354</ele>
        <time>2019-06-22T09:57:20Z</time>
      </trkpt>
      <trkpt lat="42.604671" lon="-8.423049">
        <ele>550.689</ele>
        <time>2019-06-22T09:57:21Z</time>
      </trkpt>
      <trkpt lat="42.604550" lon="-8.422802">
        <ele>552.222</ele>
        <time>2019-06-22T09:57:22Z</time>
      </trkpt>
      <trkpt lat="42.604440" lon="-8.422564">
        <ele>553.585</ele>
        <time>2019-06-22T09:57:23Z</time>
      </trkpt>
      <trkpt lat="42.604346" lon="-8.422320">
        <ele>555.389</ele>
        <time>2019-06-22T09:57:24Z</time>
      </trkpt>
      <trkpt lat="42.604255" lon="-8.422081">
        <ele>556.417</ele>
        <time>2019-06-22T09:57:25Z</time>
      </trkpt>
      <trkpt lat="42.604173" lon="-8.421839">
        <ele>557.908</ele>
        <time>2019-06-22T09:57:26Z</time>
      </trkpt>
      <trkpt lat="42.604091" lon="-8.421599">
        <ele>559.721</ele>
        <time>2019-06-22T09:57:27Z</time>
      </trkpt>
      <trkpt lat="42.604038" lon="-8.421385">
        <ele>561.415</ele>
        <time>2019-06-22T09:57:28Z</time>
      </trkpt>
      <trkpt lat="42.603974" lon="-8.421166">
        <ele>563.267</ele>
        <time>2019-06-22T09:57:29Z</time>
      </trkpt>
      <trkpt lat="42.603919" lon="-8.420959">
        <ele>565.529</ele>
        <time>2019-06-22T09:57:30Z</time>
      </trkpt>
      <trkpt lat="42.603878" lon="-8.420753">
        <ele>567.287</ele>
        <time>2019-06-22T09:57:31Z</time>
      </trkpt>
      <trkpt lat="42.603840" lon="-8.420557">
        <ele>568.256</ele>
        <time>2019-06-22T09:57:32Z</time>
      </trkpt>
      <trkpt lat="42.603794" lon="-8.420384">
        <ele>569.451</ele>
        <time>2019-06-22T09:57:33Z</time>
      </trkpt>
      <trkpt lat="42.603754" lon="-8.420255">
        <ele>569.664</ele>
        <time>2019-06-22T09:57:34Z</time>
      </trkpt>
      <trkpt lat="42.603689" lon="-8.420161">
        <ele>570.019</ele>
        <time>2019-06-22T09:57:35Z</time>
      </trkpt>
      <trkpt lat="42.603617" lon="-8.420074">
        <ele>570.609</ele>
        <time>2019-06-22T09:57:36Z</time>
      </trkpt>
      <trkpt lat="42.603526" lon="-8.420006">
        <ele>571.519</ele>
        <time>2019-06-22T09:57:37Z</time>
      </trkpt>
      <trkpt lat="42.603422" lon="-8.419928">
        <ele>572.708</ele>
        <time>2019-06-22T09:57:38Z</time>
      </trkpt>
      <trkpt lat="42.603268" lon="-8.419837">
        <ele>574.134</ele>
        <time>2019-06-22T09:57:39Z</time>
      </trkpt>
      <trkpt lat="42.603106" lon="-8.419702">
        <ele>574.668</ele>
        <time>2019-06-22T09:57:40Z</time>
      </trkpt>
      <trkpt lat="42.602948" lon="-8.419597">
        <ele>574.640</ele>
        <time>2019-06-22T09:57:41Z</time>
      </trkpt>
      <trkpt lat="42.602784" lon="-8.419485">
        <ele>574.072</ele>
        <time>2019-06-22T09:57:42Z</time>
      </trkpt>
      <trkpt lat="42.602627" lon="-8.419349">
        <ele>574.020</ele>
        <time>2019-06-22T09:57:43Z</time>
      </trkpt>
      <trkpt lat="42.602458" lon="-8.419228">
        <ele>573.589</ele>
        <time>2019-06-22T09:57:44Z</time>
      </trkpt>
      <trkpt lat="42.602286" lon="-8.419114">
        <ele>572.834</ele>
        <time>2019-06-22T09:57:45Z</time>
      </trkpt>
      <trkpt lat="42.602117" lon="-8.418992">
        <ele>572.437</ele>
        <time>2019-06-22T09:57:46Z</time>
      </trkpt>
      <trkpt lat="42.601933" lon="-8.418868">
        <ele>571.784</ele>
        <time>2019-06-22T09:57:47Z</time>
      </trkpt>
      <trkpt lat="42.601750" lon="-8.418744">
        <ele>571.307</ele>
        <time>2019-06-22T09:57:48Z</time>
      </trkpt>
      <trkpt lat="42.601577" lon="-8.418613">
        <ele>570.017</ele>
        <time>2019-06-22T09:57:49Z</time>
      </trkpt>
      <trkpt lat="42.601398" lon="-8.418487">
        <ele>567.808</ele>
        <time>2019-06-22T09:57:50Z</time>
      </trkpt>
      <trkpt lat="42.601215" lon="-8.418360">
        <ele>566.221</ele>
        <time>2019-06-22T09:57:51Z</time>
      </trkpt>
      <trkpt lat="42.601032" lon="-8.418213">
        <ele>564.075</ele>
        <time>2019-06-22T09:57:52Z</time>
      </trkpt>
      <trkpt lat="42.600842" lon="-8.418072">
        <ele>561.837</ele>
        <time>2019-06-22T09:57:53Z</time>
      </trkpt>
      <trkpt lat="42.600646" lon="-8.417931">
        <ele>559.879</ele>
        <time>2019-06-22T09:57:54Z</time>
      </trkpt>
      <trkpt lat="42.600462" lon="-8.417791">
        <ele>557.997</ele>
        <time>2019-06-22T09:57:55Z</time>
      </trkpt>
      <trkpt lat="42.600275" lon="-8.417651">
        <ele>555.616</ele>
        <time>2019-06-22T09:57:56Z</time>
      </trkpt>
      <trkpt lat="42.600085" lon="-8.417521">
        <ele>553.791</ele>
        <time>2019-06-22T09:57:57Z</time>
      </trkpt>
      <trkpt lat="42.599909" lon="-8.417385">
        <ele>551.174</ele>
        <time>2019-06-22T09:57:58Z</time>
      </trkpt>
      <trkpt lat="42.599728" lon="-8.417248">
        <ele>547.564</ele>
        <time>2019-06-22T09:57:59Z</time>
      </trkpt>
      <trkpt lat="42.599531" lon="-8.417111">
        <ele>545.606</ele>
        <time>2019-06-22T09:58:00Z</time>
      </trkpt>
      <trkpt lat="42.599336" lon="-8.416971">
        <ele>543.516</ele>
        <time>2019-06-22T09:58:01Z</time>
      </trkpt>
      <trkpt lat="42.599150" lon="-8.416840">
        <ele>540.908</ele>
        <time>2019-06-22T09:58:02Z</time>
      </trkpt>
      <trkpt lat="42.598966" lon="-8.416705">
        <ele>539.279</ele>
        <time>2019-06-22T09:58:03Z</time>
      </trkpt>
      <trkpt lat="42.598782" lon="-8.416582">
        <ele>538.283</ele>
        <time>2019-06-22T09:58:04Z</time>
      </trkpt>
      <trkpt lat="42.598591" lon="-8.416459">
        <ele>535.885</ele>
        <time>2019-06-22T09:58:05Z</time>
      </trkpt>
      <trkpt lat="42.598422" lon="-8.416323">
        <ele>533.947</ele>
        <time>2019-06-22T09:58:06Z</time>
      </trkpt>
      <trkpt lat="42.598242" lon="-8.416204">
        <ele>531.775</ele>
        <time>2019-06-22T09:58:07Z</time>
      </trkpt>
      <trkpt lat="42.598064" lon="-8.416081">
        <ele>529.554</ele>
        <time>2019-06-22T09:58:08Z</time>
      </trkpt>
      <trkpt lat="42.597881" lon="-8.415979">
        <ele>527.959</ele>
        <time>2019-06-22T09:58:09Z</time>
      </trkpt>
      <trkpt lat="42.597685" lon="-8.415891">
        <ele>527.162</ele>
        <time>2019-06-22T09:58:10Z</time>
      </trkpt>
      <trkpt lat="42.597501" lon="-8.415795">
        <ele>525.799</ele>
        <time>2019-06-22T09:58:11Z</time>
      </trkpt>
      <trkpt lat="42.597316" lon="-8.415763">
        <ele>524.107</ele>
        <time>2019-06-22T09:58:12Z</time>
      </trkpt>
      <trkpt lat="42.597125" lon="-8.415719">
        <ele>522.727</ele>
        <time>2019-06-22T09:58:13Z</time>
      </trkpt>
      <trkpt lat="42.596904" lon="-8.415704">
        <ele>520.308</ele>
        <time>2019-06-22T09:58:14Z</time>
      </trkpt>
      <trkpt lat="42.596693" lon="-8.415682">
        <ele>517.672</ele>
        <time>2019-06-22T09:58:15Z</time>
      </trkpt>
      <trkpt lat="42.596471" lon="-8.415702">
        <ele>515.096</ele>
        <time>2019-06-22T09:58:16Z</time>
      </trkpt>
      <trkpt lat="42.596252" lon="-8.415725">
        <ele>512.818</ele>
        <time>2019-06-22T09:58:17Z</time>
      </trkpt>
      <trkpt lat="42.596008" lon="-8.415735">
        <ele>511.150</ele>
        <time>2019-06-22T09:58:18Z</time>
      </trkpt>
      <trkpt lat="42.595760" lon="-8.415748">
        <ele>509.148</ele>
        <time>2019-06-22T09:58:19Z</time>
      </trkpt>
      <trkpt lat="42.595512" lon="-8.415760">
        <ele>507.087</ele>
        <time>2019-06-22T09:58:20Z</time>
      </trkpt>
      <trkpt lat="42.595256" lon="-8.415761">
        <ele>505.132</ele>
        <time>2019-06-22T09:58:21Z</time>
      </trkpt>
      <trkpt lat="42.595003" lon="-8.415768">
        <ele>503.495</ele>
        <time>2019-06-22T09:58:22Z</time>
      </trkpt>
      <trkpt lat="42.594752" lon="-8.415778">
        <ele>500.666</ele>
        <time>2019-06-22T09:58:23Z</time>
      </trkpt>
      <trkpt lat="42.594513" lon="-8.415810">
        <ele>496.629</ele>
        <time>2019-06-22T09:58:24Z</time>
      </trkpt>
      <trkpt lat="42.594295" lon="-8.415842">
        <ele>493.321</ele>
        <time>2019-06-22T09:58:25Z</time>
      </trkpt>
      <trkpt lat="42.594089" lon="-8.415865">
        <ele>489.408</ele>
        <time>2019-06-22T09:58:26Z</time>
      </trkpt>
      <trkpt lat="42.593901" lon="-8.415900">
        <ele>486.239</ele>
        <time>2019-06-22T09:58:27Z</time>
      </trkpt>
      <trkpt lat="42.593728" lon="-8.415919">
        <ele>483.923</ele>
        <time>2019-06-22T09:58:28Z</time>
      </trkpt>
      <trkpt lat="42.593558" lon="-8.415942">
        <ele>483.645</ele>
        <time>2019-06-22T09:58:29Z</time>
      </trkpt>
      <trkpt lat="42.593411" lon="-8.415964">
        <ele>483.687</ele>
        <time>2019-06-22T09:58:30Z</time>
      </trkpt>
      <trkpt lat="42.593285" lon="-8.415981">
        <ele>483.395</ele>
        <time>2019-06-22T09:58:31Z</time>
      </trkpt>
      <trkpt lat="42.593158" lon="-8.416004">
        <ele>483.314</ele>
        <time>2019-06-22T09:58:32Z</time>
      </trkpt>
      <trkpt lat="42.593043" lon="-8.416015">
        <ele>483.339</ele>
        <time>2019-06-22T09:58:33Z</time>
      </trkpt>
      <trkpt lat="42.592941" lon="-8.416024">
        <ele>483.142</ele>
        <time>2019-06-22T09:58:34Z</time>
      </trkpt>
      <trkpt lat="42.592851" lon="-8.416033">
        <ele>483.184</ele>
        <time>2019-06-22T09:58:35Z</time>
      </trkpt>
      <trkpt lat="42.592771" lon="-8.416046">
        <ele>483.107</ele>
        <time>2019-06-22T09:58:36Z</time>
      </trkpt>
      <trkpt lat="42.592693" lon="-8.416060">
        <ele>483.817</ele>
        <time>2019-06-22T09:58:37Z</time>
      </trkpt>
      <trkpt lat="42.592624" lon="-8.416076">
        <ele>483.808</ele>
        <time>2019-06-22T09:58:38Z</time>
      </trkpt>
      <trkpt lat="42.592579" lon="-8.416088">
        <ele>483.751</ele>
        <time>2019-06-22T09:58:39Z</time>
      </trkpt>
      <trkpt lat="42.592487" lon="-8.416115">
        <ele>482.815</ele>
        <time>2019-06-22T09:58:41Z</time>
      </trkpt>
      <trkpt lat="42.592408" lon="-8.416126">
        <ele>482.417</ele>
        <time>2019-06-22T09:58:43Z</time>
      </trkpt>
      <trkpt lat="42.592346" lon="-8.416137">
        <ele>481.839</ele>
        <time>2019-06-22T09:58:45Z</time>
      </trkpt>
      <trkpt lat="42.592293" lon="-8.416111">
        <ele>482.517</ele>
        <time>2019-06-22T09:59:11Z</time>
      </trkpt>
      <trkpt lat="42.592244" lon="-8.416108">
        <ele>482.556</ele>
        <time>2019-06-22T09:59:13Z</time>
      </trkpt>
      <trkpt lat="42.592186" lon="-8.416113">
        <ele>482.251</ele>
        <time>2019-06-22T09:59:15Z</time>
      </trkpt>
      <trkpt lat="42.592133" lon="-8.416132">
        <ele>481.634</ele>
        <time>2019-06-22T09:59:18Z</time>
      </trkpt>
      <trkpt lat="42.592097" lon="-8.416182">
        <ele>480.828</ele>
        <time>2019-06-22T10:00:18Z</time>
      </trkpt>
      <trkpt lat="42.592047" lon="-8.416178">
        <ele>480.989</ele>
        <time>2019-06-22T10:00:34Z</time>
      </trkpt>
      <trkpt lat="42.591969" lon="-8.416186">
        <ele>480.817</ele>
        <time>2019-06-22T10:00:35Z</time>
      </trkpt>
      <trkpt lat="42.591883" lon="-8.416199">
        <ele>480.608</ele>
        <time>2019-06-22T10:00:36Z</time>
      </trkpt>
      <trkpt lat="42.591773" lon="-8.416210">
        <ele>480.265</ele>
        <time>2019-06-22T10:00:37Z</time>
      </trkpt>
      <trkpt lat="42.591657" lon="-8.416228">
        <ele>479.889</ele>
        <time>2019-06-22T10:00:38Z</time>
      </trkpt>
      <trkpt lat="42.591535" lon="-8.416256">
        <ele>479.261</ele>
        <time>2019-06-22T10:00:39Z</time>
      </trkpt>
      <trkpt lat="42.591402" lon="-8.416270">
        <ele>478.623</ele>
        <time>2019-06-22T10:00:40Z</time>
      </trkpt>
      <trkpt lat="42.591258" lon="-8.416283">
        <ele>477.911</ele>
        <time>2019-06-22T10:00:41Z</time>
      </trkpt>
      <trkpt lat="42.591110" lon="-8.416297">
        <ele>477.110</ele>
        <time>2019-06-22T10:00:42Z</time>
      </trkpt>
      <trkpt lat="42.590952" lon="-8.416309">
        <ele>476.125</ele>
        <time>2019-06-22T10:00:43Z</time>
      </trkpt>
      <trkpt lat="42.590795" lon="-8.416324">
        <ele>475.418</ele>
        <time>2019-06-22T10:00:44Z</time>
      </trkpt>
      <trkpt lat="42.590638" lon="-8.416349">
        <ele>474.775</ele>
        <time>2019-06-22T10:00:45Z</time>
      </trkpt>
      <trkpt lat="42.590475" lon="-8.416364">
        <ele>474.328</ele>
        <time>2019-06-22T10:00:46Z</time>
      </trkpt>
      <trkpt lat="42.590289" lon="-8.416383">
        <ele>474.120</ele>
        <time>2019-06-22T10:00:47Z</time>
      </trkpt>
      <trkpt lat="42.590109" lon="-8.416405">
        <ele>474.008</ele>
        <time>2019-06-22T10:00:48Z</time>
      </trkpt>
      <trkpt lat="42.589917" lon="-8.416427">
        <ele>473.510</ele>
        <time>2019-06-22T10:00:49Z</time>
      </trkpt>
      <trkpt lat="42.589723" lon="-8.416447">
        <ele>473.134</ele>
        <time>2019-06-22T10:00:50Z</time>
      </trkpt>
      <trkpt lat="42.589517" lon="-8.416467">
        <ele>472.856</ele>
        <time>2019-06-22T10:00:51Z</time>
      </trkpt>
      <trkpt lat="42.589306" lon="-8.416489">
        <ele>472.278</ele>
        <time>2019-06-22T10:00:52Z</time>
      </trkpt>
      <trkpt lat="42.589098" lon="-8.416518">
        <ele>471.546</ele>
        <time>2019-06-22T10:00:53Z</time>
      </trkpt>
      <trkpt lat="42.588881" lon="-8.416544">
        <ele>471.595</ele>
        <time>2019-06-22T10:00:54Z</time>
      </trkpt>
      <trkpt lat="42.588667" lon="-8.416575">
        <ele>471.680</ele>
        <time>2019-06-22T10:00:55Z</time>
      </trkpt>
      <trkpt lat="42.588447" lon="-8.416603">
        <ele>471.633</ele>
        <time>2019-06-22T10:00:56Z</time>
      </trkpt>
      <trkpt lat="42.588230" lon="-8.416637">
        <ele>471.753</ele>
        <time>2019-06-22T10:00:57Z</time>
      </trkpt>
      <trkpt lat="42.588012" lon="-8.416671">
        <ele>471.804</ele>
        <time>2019-06-22T10:00:58Z</time>
      </trkpt>
      <trkpt lat="42.587791" lon="-8.416701">
        <ele>471.814</ele>
        <time>2019-06-22T10:00:59Z</time>
      </trkpt>
      <trkpt lat="42.587569" lon="-8.416703">
        <ele>472.208</ele>
        <time>2019-06-22T10:01:00Z</time>
      </trkpt>
      <trkpt lat="42.587348" lon="-8.416685">
        <ele>472.838</ele>
        <time>2019-06-22T10:01:01Z</time>
      </trkpt>
      <trkpt lat="42.587128" lon="-8.416641">
        <ele>473.812</ele>
        <time>2019-06-22T10:01:02Z</time>
      </trkpt>
      <trkpt lat="42.586920" lon="-8.416560">
        <ele>475.444</ele>
        <time>2019-06-22T10:01:03Z</time>
      </trkpt>
      <trkpt lat="42.586729" lon="-8.416443">
        <ele>477.026</ele>
        <time>2019-06-22T10:01:04Z</time>
      </trkpt>
      <trkpt lat="42.586554" lon="-8.416300">
        <ele>477.954</ele>
        <time>2019-06-22T10:01:05Z</time>
      </trkpt>
      <trkpt lat="42.586385" lon="-8.416139">
        <ele>477.973</ele>
        <time>2019-06-22T10:01:06Z</time>
      </trkpt>
      <trkpt lat="42.586215" lon="-8.415994">
        <ele>477.878</ele>
        <time>2019-06-22T10:01:07Z</time>
      </trkpt>
      <trkpt lat="42.586037" lon="-8.415889">
        <ele>476.191</ele>
        <time>2019-06-22T10:01:08Z</time>
      </trkpt>
      <trkpt lat="42.585857" lon="-8.415791">
        <ele>474.143</ele>
        <time>2019-06-22T10:01:09Z</time>
      </trkpt>
      <trkpt lat="42.585670" lon="-8.415716">
        <ele>474.164</ele>
        <time>2019-06-22T10:01:10Z</time>
      </trkpt>
      <trkpt lat="42.585506" lon="-8.415691">
        <ele>473.110</ele>
        <time>2019-06-22T10:01:11Z</time>
      </trkpt>
      <trkpt lat="42.585283" lon="-8.415752">
        <ele>473.108</ele>
        <time>2019-06-22T10:01:12Z</time>
      </trkpt>
      <trkpt lat="42.585103" lon="-8.415735">
        <ele>473.367</ele>
        <time>2019-06-22T10:01:13Z</time>
      </trkpt>
      <trkpt lat="42.584920" lon="-8.415700">
        <ele>478.591</ele>
        <time>2019-06-22T10:01:14Z</time>
      </trkpt>
      <trkpt lat="42.584755" lon="-8.415634">
        <ele>478.533</ele>
        <time>2019-06-22T10:01:15Z</time>
      </trkpt>
      <trkpt lat="42.584593" lon="-8.415523">
        <ele>480.475</ele>
        <time>2019-06-22T10:01:16Z</time>
      </trkpt>
      <trkpt lat="42.584439" lon="-8.415387">
        <ele>481.943</ele>
        <time>2019-06-22T10:01:17Z</time>
      </trkpt>
      <trkpt lat="42.584323" lon="-8.415145">
        <ele>482.732</ele>
        <time>2019-06-22T10:01:18Z</time>
      </trkpt>
      <trkpt lat="42.584175" lon="-8.414970">
        <ele>482.747</ele>
        <time>2019-06-22T10:01:19Z</time>
      </trkpt>
      <trkpt lat="42.584018" lon="-8.414810">
        <ele>481.860</ele>
        <time>2019-06-22T10:01:20Z</time>
      </trkpt>
      <trkpt lat="42.583845" lon="-8.414645">
        <ele>480.666</ele>
        <time>2019-06-22T10:01:21Z</time>
      </trkpt>
      <trkpt lat="42.583660" lon="-8.414535">
        <ele>478.829</ele>
        <time>2019-06-22T10:01:22Z</time>
      </trkpt>
      <trkpt lat="42.583489" lon="-8.414440">
        <ele>476.321</ele>
        <time>2019-06-22T10:01:23Z</time>
      </trkpt>
      <trkpt lat="42.583326" lon="-8.414344">
        <ele>475.508</ele>
        <time>2019-06-22T10:01:24Z</time>
      </trkpt>
      <trkpt lat="42.583173" lon="-8.414207">
        <ele>475.549</ele>
        <time>2019-06-22T10:01:25Z</time>
      </trkpt>
      <trkpt lat="42.583022" lon="-8.414047">
        <ele>476.283</ele>
        <time>2019-06-22T10:01:26Z</time>
      </trkpt>
      <trkpt lat="42.582918" lon="-8.413839">
        <ele>477.225</ele>
        <time>2019-06-22T10:01:27Z</time>
      </trkpt>
      <trkpt lat="42.582812" lon="-8.413619">
        <ele>479.047</ele>
        <time>2019-06-22T10:01:28Z</time>
      </trkpt>
      <trkpt lat="42.582723" lon="-8.413404">
        <ele>479.055</ele>
        <time>2019-06-22T10:01:29Z</time>
      </trkpt>
      <trkpt lat="42.582640" lon="-8.413195">
        <ele>478.794</ele>
        <time>2019-06-22T10:01:30Z</time>
      </trkpt>
      <trkpt lat="42.582564" lon="-8.412987">
        <ele>477.739</ele>
        <time>2019-06-22T10:01:31Z</time>
      </trkpt>
      <trkpt lat="42.582487" lon="-8.412788">
        <ele>477.752</ele>
        <time>2019-06-22T10:01:32Z</time>
      </trkpt>
      <trkpt lat="42.582456" lon="-8.412564">
        <ele>477.728</ele>
        <time>2019-06-22T10:01:33Z</time>
      </trkpt>
      <trkpt lat="42.582444" lon="-8.412328">
        <ele>477.889</ele>
        <time>2019-06-22T10:01:34Z</time>
      </trkpt>
      <trkpt lat="42.582453" lon="-8.412074">
        <ele>478.617</ele>
        <time>2019-06-22T10:01:35Z</time>
      </trkpt>
      <trkpt lat="42.582475" lon="-8.411839">
        <ele>479.408</ele>
        <time>2019-06-22T10:01:36Z</time>
      </trkpt>
      <trkpt lat="42.582509" lon="-8.411610">
        <ele>479.495</ele>
        <time>2019-06-22T10:01:37Z</time>
      </trkpt>
      <trkpt lat="42.582551" lon="-8.411389">
        <ele>478.969</ele>
        <time>2019-06-22T10:01:38Z</time>
      </trkpt>
      <trkpt lat="42.582623" lon="-8.411182">
        <ele>478.571</ele>
        <time>2019-06-22T10:01:39Z</time>
      </trkpt>
      <trkpt lat="42.582703" lon="-8.410985">
        <ele>478.453</ele>
        <time>2019-06-22T10:01:40Z</time>
      </trkpt>
      <trkpt lat="42.582841" lon="-8.410825">
        <ele>478.441</ele>
        <time>2019-06-22T10:01:41Z</time>
      </trkpt>
      <trkpt lat="42.582978" lon="-8.410659">
        <ele>478.480</ele>
        <time>2019-06-22T10:01:42Z</time>
      </trkpt>
      <trkpt lat="42.583105" lon="-8.410504">
        <ele>478.255</ele>
        <time>2019-06-22T10:01:43Z</time>
      </trkpt>
      <trkpt lat="42.583239" lon="-8.410369">
        <ele>477.398</ele>
        <time>2019-06-22T10:01:44Z</time>
      </trkpt>
      <trkpt lat="42.583371" lon="-8.410229">
        <ele>476.682</ele>
        <time>2019-06-22T10:01:45Z</time>
      </trkpt>
      <trkpt lat="42.583503" lon="-8.410091">
        <ele>475.543</ele>
        <time>2019-06-22T10:01:46Z</time>
      </trkpt>
      <trkpt lat="42.583618" lon="-8.409941">
        <ele>474.717</ele>
        <time>2019-06-22T10:01:47Z</time>
      </trkpt>
      <trkpt lat="42.583716" lon="-8.409786">
        <ele>473.808</ele>
        <time>2019-06-22T10:01:48Z</time>
      </trkpt>
      <trkpt lat="42.583793" lon="-8.409612">
        <ele>473.441</ele>
        <time>2019-06-22T10:01:49Z</time>
      </trkpt>
      <trkpt lat="42.583820" lon="-8.409420">
        <ele>472.755</ele>
        <time>2019-06-22T10:01:50Z</time>
      </trkpt>
      <trkpt lat="42.583827" lon="-8.409211">
        <ele>472.437</ele>
        <time>2019-06-22T10:01:51Z</time>
      </trkpt>
      <trkpt lat="42.583805" lon="-8.408985">
        <ele>472.439</ele>
        <time>2019-06-22T10:01:52Z</time>
      </trkpt>
      <trkpt lat="42.583770" lon="-8.408756">
        <ele>472.757</ele>
        <time>2019-06-22T10:01:53Z</time>
      </trkpt>
      <trkpt lat="42.583738" lon="-8.408531">
        <ele>473.826</ele>
        <time>2019-06-22T10:01:54Z</time>
      </trkpt>
      <trkpt lat="42.583725" lon="-8.408284">
        <ele>475.261</ele>
        <time>2019-06-22T10:01:55Z</time>
      </trkpt>
      <trkpt lat="42.583730" lon="-8.408024">
        <ele>476.514</ele>
        <time>2019-06-22T10:01:56Z</time>
      </trkpt>
      <trkpt lat="42.583744" lon="-8.407749">
        <ele>477.386</ele>
        <time>2019-06-22T10:01:57Z</time>
      </trkpt>
      <trkpt lat="42.583761" lon="-8.407468">
        <ele>477.760</ele>
        <time>2019-06-22T10:01:58Z</time>
      </trkpt>
      <trkpt lat="42.583792" lon="-8.407193">
        <ele>477.726</ele>
        <time>2019-06-22T10:01:59Z</time>
      </trkpt>
      <trkpt lat="42.583821" lon="-8.406918">
        <ele>477.008</ele>
        <time>2019-06-22T10:02:00Z</time>
      </trkpt>
      <trkpt lat="42.583858" lon="-8.406640">
        <ele>476.611</ele>
        <time>2019-06-22T10:02:01Z</time>
      </trkpt>
      <trkpt lat="42.583904" lon="-8.406365">
        <ele>476.015</ele>
        <time>2019-06-22T10:02:02Z</time>
      </trkpt>
      <trkpt lat="42.583962" lon="-8.406110">
        <ele>476.017</ele>
        <time>2019-06-22T10:02:03Z</time>
      </trkpt>
      <trkpt lat="42.584008" lon="-8.405845">
        <ele>475.459</ele>
        <time>2019-06-22T10:02:04Z</time>
      </trkpt>
      <trkpt lat="42.584051" lon="-8.405585">
        <ele>474.897</ele>
        <time>2019-06-22T10:02:05Z</time>
      </trkpt>
      <trkpt lat="42.584094" lon="-8.405357">
        <ele>473.346</ele>
        <time>2019-06-22T10:02:06Z</time>
      </trkpt>
      <trkpt lat="42.584139" lon="-8.405124">
        <ele>472.241</ele>
        <time>2019-06-22T10:02:07Z</time>
      </trkpt>
      <trkpt lat="42.584190" lon="-8.404902">
        <ele>471.594</ele>
        <time>2019-06-22T10:02:08Z</time>
      </trkpt>
      <trkpt lat="42.584250" lon="-8.404700">
        <ele>471.538</ele>
        <time>2019-06-22T10:02:09Z</time>
      </trkpt>
      <trkpt lat="42.584324" lon="-8.404507">
        <ele>471.970</ele>
        <time>2019-06-22T10:02:10Z</time>
      </trkpt>
      <trkpt lat="42.584435" lon="-8.404328">
        <ele>471.917</ele>
        <time>2019-06-22T10:02:11Z</time>
      </trkpt>
      <trkpt lat="42.584566" lon="-8.404178">
        <ele>473.108</ele>
        <time>2019-06-22T10:02:12Z</time>
      </trkpt>
      <trkpt lat="42.584690" lon="-8.404028">
        <ele>474.256</ele>
        <time>2019-06-22T10:02:13Z</time>
      </trkpt>
      <trkpt lat="42.584810" lon="-8.403900">
        <ele>474.230</ele>
        <time>2019-06-22T10:02:14Z</time>
      </trkpt>
      <trkpt lat="42.584916" lon="-8.403761">
        <ele>474.022</ele>
        <time>2019-06-22T10:02:15Z</time>
      </trkpt>
      <trkpt lat="42.585000" lon="-8.403614">
        <ele>472.764</ele>
        <time>2019-06-22T10:02:16Z</time>
      </trkpt>
      <trkpt lat="42.585072" lon="-8.403455">
        <ele>471.332</ele>
        <time>2019-06-22T10:02:17Z</time>
      </trkpt>
      <trkpt lat="42.585145" lon="-8.403296">
        <ele>470.391</ele>
        <time>2019-06-22T10:02:18Z</time>
      </trkpt>
      <trkpt lat="42.585037" lon="-8.403064">
        <ele>469.596</ele>
        <time>2019-06-22T10:02:19Z</time>
      </trkpt>
      <trkpt lat="42.584983" lon="-8.402901">
        <ele>469.239</ele>
        <time>2019-06-22T10:02:20Z</time>
      </trkpt>
      <trkpt lat="42.584903" lon="-8.402727">
        <ele>469.218</ele>
        <time>2019-06-22T10:02:21Z</time>
      </trkpt>
      <trkpt lat="42.584791" lon="-8.402633">
        <ele>469.398</ele>
        <time>2019-06-22T10:02:22Z</time>
      </trkpt>
      <trkpt lat="42.584657" lon="-8.402550">
        <ele>469.517</ele>
        <time>2019-06-22T10:02:23Z</time>
      </trkpt>
      <trkpt lat="42.584505" lon="-8.402489">
        <ele>469.908</ele>
        <time>2019-06-22T10:02:24Z</time>
      </trkpt>
      <trkpt lat="42.584342" lon="-8.402457">
        <ele>470.824</ele>
        <time>2019-06-22T10:02:25Z</time>
      </trkpt>
      <trkpt lat="42.584197" lon="-8.402473">
        <ele>472.068</ele>
        <time>2019-06-22T10:02:26Z</time>
      </trkpt>
      <trkpt lat="42.584076" lon="-8.402524">
        <ele>472.940</ele>
        <time>2019-06-22T10:02:27Z</time>
      </trkpt>
      <trkpt lat="42.583954" lon="-8.402615">
        <ele>473.512</ele>
        <time>2019-06-22T10:02:28Z</time>
      </trkpt>
      <trkpt lat="42.583863" lon="-8.402761">
        <ele>474.260</ele>
        <time>2019-06-22T10:02:29Z</time>
      </trkpt>
      <trkpt lat="42.583770" lon="-8.402909">
        <ele>474.979</ele>
        <time>2019-06-22T10:02:30Z</time>
      </trkpt>
      <trkpt lat="42.583662" lon="-8.403040">
        <ele>475.844</ele>
        <time>2019-06-22T10:02:31Z</time>
      </trkpt>
      <trkpt lat="42.583538" lon="-8.403151">
        <ele>477.667</ele>
        <time>2019-06-22T10:02:32Z</time>
      </trkpt>
      <trkpt lat="42.583398" lon="-8.403216">
        <ele>479.525</ele>
        <time>2019-06-22T10:02:33Z</time>
      </trkpt>
      <trkpt lat="42.583253" lon="-8.403274">
        <ele>481.326</ele>
        <time>2019-06-22T10:02:34Z</time>
      </trkpt>
      <trkpt lat="42.583082" lon="-8.403275">
        <ele>482.508</ele>
        <time>2019-06-22T10:02:35Z</time>
      </trkpt>
      <trkpt lat="42.582918" lon="-8.403294">
        <ele>482.808</ele>
        <time>2019-06-22T10:02:36Z</time>
      </trkpt>
      <trkpt lat="42.582762" lon="-8.403278">
        <ele>482.855</ele>
        <time>2019-06-22T10:02:37Z</time>
      </trkpt>
      <trkpt lat="42.582598" lon="-8.403261">
        <ele>482.889</ele>
        <time>2019-06-22T10:02:38Z</time>
      </trkpt>
      <trkpt lat="42.582437" lon="-8.403238">
        <ele>483.311</ele>
        <time>2019-06-22T10:02:39Z</time>
      </trkpt>
      <trkpt lat="42.582346" lon="-8.403034">
        <ele>483.873</ele>
        <time>2019-06-22T10:02:40Z</time>
      </trkpt>
      <trkpt lat="42.582225" lon="-8.402859">
        <ele>484.911</ele>
        <time>2019-06-22T10:02:41Z</time>
      </trkpt>
      <trkpt lat="42.582119" lon="-8.402658">
        <ele>486.240</ele>
        <time>2019-06-22T10:02:42Z</time>
      </trkpt>
      <trkpt lat="42.582024" lon="-8.402464">
        <ele>487.015</ele>
        <time>2019-06-22T10:02:43Z</time>
      </trkpt>
      <trkpt lat="42.581937" lon="-8.402262">
        <ele>487.438</ele>
        <time>2019-06-22T10:02:44Z</time>
      </trkpt>
      <trkpt lat="42.581842" lon="-8.402071">
        <ele>487.418</ele>
        <time>2019-06-22T10:02:45Z</time>
      </trkpt>
      <trkpt lat="42.581739" lon="-8.401888">
        <ele>487.198</ele>
        <time>2019-06-22T10:02:46Z</time>
      </trkpt>
      <trkpt lat="42.581614" lon="-8.401719">
        <ele>486.517</ele>
        <time>2019-06-22T10:02:47Z</time>
      </trkpt>
      <trkpt lat="42.581464" lon="-8.401546">
        <ele>485.908</ele>
        <time>2019-06-22T10:02:48Z</time>
      </trkpt>
      <trkpt lat="42.581308" lon="-8.401402">
        <ele>485.654</ele>
        <time>2019-06-22T10:02:49Z</time>
      </trkpt>
      <trkpt lat="42.581155" lon="-8.401313">
        <ele>485.068</ele>
        <time>2019-06-22T10:02:50Z</time>
      </trkpt>
      <trkpt lat="42.581003" lon="-8.401188">
        <ele>485.040</ele>
        <time>2019-06-22T10:02:51Z</time>
      </trkpt>
      <trkpt lat="42.580854" lon="-8.401083">
        <ele>484.872</ele>
        <time>2019-06-22T10:02:52Z</time>
      </trkpt>
      <trkpt lat="42.580696" lon="-8.400994">
        <ele>484.340</ele>
        <time>2019-06-22T10:02:53Z</time>
      </trkpt>
      <trkpt lat="42.580556" lon="-8.400935">
        <ele>483.519</ele>
        <time>2019-06-22T10:02:54Z</time>
      </trkpt>
      <trkpt lat="42.580400" lon="-8.400922">
        <ele>483.554</ele>
        <time>2019-06-22T10:02:55Z</time>
      </trkpt>
      <trkpt lat="42.580241" lon="-8.400941">
        <ele>483.797</ele>
        <time>2019-06-22T10:02:56Z</time>
      </trkpt>
      <trkpt lat="42.580089" lon="-8.400989">
        <ele>484.117</ele>
        <time>2019-06-22T10:02:57Z</time>
      </trkpt>
      <trkpt lat="42.579922" lon="-8.401047">
        <ele>485.787</ele>
        <time>2019-06-22T10:02:58Z</time>
      </trkpt>
      <trkpt lat="42.579764" lon="-8.401106">
        <ele>487.415</ele>
        <time>2019-06-22T10:02:59Z</time>
      </trkpt>
      <trkpt lat="42.579611" lon="-8.401145">
        <ele>488.608</ele>
        <time>2019-06-22T10:03:00Z</time>
      </trkpt>
      <trkpt lat="42.579461" lon="-8.401202">
        <ele>489.834</ele>
        <time>2019-06-22T10:03:01Z</time>
      </trkpt>
      <trkpt lat="42.579313" lon="-8.401250">
        <ele>490.938</ele>
        <time>2019-06-22T10:03:02Z</time>
      </trkpt>
      <trkpt lat="42.579168" lon="-8.401299">
        <ele>491.810</ele>
        <time>2019-06-22T10:03:03Z</time>
      </trkpt>
      <trkpt lat="42.579022" lon="-8.401344">
        <ele>493.152</ele>
        <time>2019-06-22T10:03:04Z</time>
      </trkpt>
      <trkpt lat="42.578872" lon="-8.401385">
        <ele>494.660</ele>
        <time>2019-06-22T10:03:05Z</time>
      </trkpt>
      <trkpt lat="42.578722" lon="-8.401435">
        <ele>495.869</ele>
        <time>2019-06-22T10:03:06Z</time>
      </trkpt>
      <trkpt lat="42.578576" lon="-8.401468">
        <ele>496.894</ele>
        <time>2019-06-22T10:03:07Z</time>
      </trkpt>
      <trkpt lat="42.578429" lon="-8.401473">
        <ele>498.357</ele>
        <time>2019-06-22T10:03:08Z</time>
      </trkpt>
      <trkpt lat="42.578289" lon="-8.401449">
        <ele>499.382</ele>
        <time>2019-06-22T10:03:09Z</time>
      </trkpt>
      <trkpt lat="42.578153" lon="-8.401393">
        <ele>500.343</ele>
        <time>2019-06-22T10:03:10Z</time>
      </trkpt>
      <trkpt lat="42.578028" lon="-8.401287">
        <ele>501.517</ele>
        <time>2019-06-22T10:03:11Z</time>
      </trkpt>
      <trkpt lat="42.577906" lon="-8.401154">
        <ele>501.508</ele>
        <time>2019-06-22T10:03:12Z</time>
      </trkpt>
      <trkpt lat="42.577778" lon="-8.401012">
        <ele>502.811</ele>
        <time>2019-06-22T10:03:13Z</time>
      </trkpt>
      <trkpt lat="42.577659" lon="-8.400860">
        <ele>503.985</ele>
        <time>2019-06-22T10:03:14Z</time>
      </trkpt>
      <trkpt lat="42.577529" lon="-8.400703">
        <ele>504.677</ele>
        <time>2019-06-22T10:03:15Z</time>
      </trkpt>
      <trkpt lat="42.577397" lon="-8.400543">
        <ele>505.549</ele>
        <time>2019-06-22T10:03:16Z</time>
      </trkpt>
      <trkpt lat="42.577265" lon="-8.400373">
        <ele>506.397</ele>
        <time>2019-06-22T10:03:17Z</time>
      </trkpt>
      <trkpt lat="42.577130" lon="-8.400200">
        <ele>507.056</ele>
        <time>2019-06-22T10:03:18Z</time>
      </trkpt>
      <trkpt lat="42.576992" lon="-8.400015">
        <ele>507.841</ele>
        <time>2019-06-22T10:03:19Z</time>
      </trkpt>
      <trkpt lat="42.576855" lon="-8.399825">
        <ele>508.934</ele>
        <time>2019-06-22T10:03:20Z</time>
      </trkpt>
      <trkpt lat="42.576728" lon="-8.399628">
        <ele>509.651</ele>
        <time>2019-06-22T10:03:21Z</time>
      </trkpt>
      <trkpt lat="42.576602" lon="-8.399440">
        <ele>510.101</ele>
        <time>2019-06-22T10:03:22Z</time>
      </trkpt>
      <trkpt lat="42.576480" lon="-8.399250">
        <ele>510.611</ele>
        <time>2019-06-22T10:03:23Z</time>
      </trkpt>
      <trkpt lat="42.576364" lon="-8.399071">
        <ele>510.608</ele>
        <time>2019-06-22T10:03:24Z</time>
      </trkpt>
      <trkpt lat="42.576246" lon="-8.398888">
        <ele>509.888</ele>
        <time>2019-06-22T10:03:25Z</time>
      </trkpt>
      <trkpt lat="42.576121" lon="-8.398710">
        <ele>509.232</ele>
        <time>2019-06-22T10:03:26Z</time>
      </trkpt>
      <trkpt lat="42.575997" lon="-8.398529">
        <ele>508.544</ele>
        <time>2019-06-22T10:03:27Z</time>
      </trkpt>
      <trkpt lat="42.575883" lon="-8.398347">
        <ele>507.446</ele>
        <time>2019-06-22T10:03:28Z</time>
      </trkpt>
      <trkpt lat="42.575769" lon="-8.398171">
        <ele>506.564</ele>
        <time>2019-06-22T10:03:29Z</time>
      </trkpt>
      <trkpt lat="42.575657" lon="-8.398000">
        <ele>505.783</ele>
        <time>2019-06-22T10:03:30Z</time>
      </trkpt>
      <trkpt lat="42.575544" lon="-8.397837">
        <ele>505.238</ele>
        <time>2019-06-22T10:03:31Z</time>
      </trkpt>
      <trkpt lat="42.575433" lon="-8.397686">
        <ele>505.041</ele>
        <time>2019-06-22T10:03:32Z</time>
      </trkpt>
      <trkpt lat="42.575312" lon="-8.397564">
        <ele>504.999</ele>
        <time>2019-06-22T10:03:33Z</time>
      </trkpt>
      <trkpt lat="42.575189" lon="-8.397449">
        <ele>504.407</ele>
        <time>2019-06-22T10:03:34Z</time>
      </trkpt>
      <trkpt lat="42.575026" lon="-8.397392">
        <ele>504.127</ele>
        <time>2019-06-22T10:03:35Z</time>
      </trkpt>
      <trkpt lat="42.574862" lon="-8.397345">
        <ele>503.508</ele>
        <time>2019-06-22T10:03:36Z</time>
      </trkpt>
      <trkpt lat="42.574691" lon="-8.397307">
        <ele>502.642</ele>
        <time>2019-06-22T10:03:37Z</time>
      </trkpt>
      <trkpt lat="42.574535" lon="-8.397279">
        <ele>501.456</ele>
        <time>2019-06-22T10:03:38Z</time>
      </trkpt>
      <trkpt lat="42.574370" lon="-8.397209">
        <ele>500.678</ele>
        <time>2019-06-22T10:03:39Z</time>
      </trkpt>
      <trkpt lat="42.574200" lon="-8.397128">
        <ele>500.420</ele>
        <time>2019-06-22T10:03:40Z</time>
      </trkpt>
      <trkpt lat="42.574033" lon="-8.397033">
        <ele>500.318</ele>
        <time>2019-06-22T10:03:41Z</time>
      </trkpt>
      <trkpt lat="42.573888" lon="-8.396904">
        <ele>499.977</ele>
        <time>2019-06-22T10:03:42Z</time>
      </trkpt>
      <trkpt lat="42.573741" lon="-8.396763">
        <ele>499.212</ele>
        <time>2019-06-22T10:03:43Z</time>
      </trkpt>
      <trkpt lat="42.573587" lon="-8.396584">
        <ele>498.595</ele>
        <time>2019-06-22T10:03:44Z</time>
      </trkpt>
      <trkpt lat="42.573438" lon="-8.396438">
        <ele>497.156</ele>
        <time>2019-06-22T10:03:45Z</time>
      </trkpt>
      <trkpt lat="42.573300" lon="-8.396305">
        <ele>495.659</ele>
        <time>2019-06-22T10:03:46Z</time>
      </trkpt>
      <trkpt lat="42.573154" lon="-8.396213">
        <ele>494.114</ele>
        <time>2019-06-22T10:03:47Z</time>
      </trkpt>
      <trkpt lat="42.573001" lon="-8.396148">
        <ele>493.008</ele>
        <time>2019-06-22T10:03:48Z</time>
      </trkpt>
      <trkpt lat="42.572838" lon="-8.396125">
        <ele>492.278</ele>
        <time>2019-06-22T10:03:49Z</time>
      </trkpt>
      <trkpt lat="42.572683" lon="-8.396119">
        <ele>492.272</ele>
        <time>2019-06-22T10:03:50Z</time>
      </trkpt>
      <trkpt lat="42.572516" lon="-8.396159">
        <ele>492.824</ele>
        <time>2019-06-22T10:03:51Z</time>
      </trkpt>
      <trkpt lat="42.572346" lon="-8.396206">
        <ele>493.836</ele>
        <time>2019-06-22T10:03:52Z</time>
      </trkpt>
      <trkpt lat="42.572177" lon="-8.396248">
        <ele>494.874</ele>
        <time>2019-06-22T10:03:53Z</time>
      </trkpt>
      <trkpt lat="42.572014" lon="-8.396299">
        <ele>496.093</ele>
        <time>2019-06-22T10:03:54Z</time>
      </trkpt>
      <trkpt lat="42.571854" lon="-8.396336">
        <ele>496.198</ele>
        <time>2019-06-22T10:03:55Z</time>
      </trkpt>
      <trkpt lat="42.571726" lon="-8.396399">
        <ele>496.131</ele>
        <time>2019-06-22T10:03:56Z</time>
      </trkpt>
      <trkpt lat="42.571585" lon="-8.396456">
        <ele>495.562</ele>
        <time>2019-06-22T10:03:57Z</time>
      </trkpt>
      <trkpt lat="42.571475" lon="-8.396565">
        <ele>495.283</ele>
        <time>2019-06-22T10:03:58Z</time>
      </trkpt>
      <trkpt lat="42.571373" lon="-8.396705">
        <ele>495.211</ele>
        <time>2019-06-22T10:03:59Z</time>
      </trkpt>
      <trkpt lat="42.571290" lon="-8.396862">
        <ele>495.308</ele>
        <time>2019-06-22T10:04:00Z</time>
      </trkpt>
      <trkpt lat="42.571227" lon="-8.397051">
        <ele>496.039</ele>
        <time>2019-06-22T10:04:01Z</time>
      </trkpt>
      <trkpt lat="42.571162" lon="-8.397229">
        <ele>496.763</ele>
        <time>2019-06-22T10:04:02Z</time>
      </trkpt>
      <trkpt lat="42.571093" lon="-8.397403">
        <ele>497.555</ele>
        <time>2019-06-22T10:04:03Z</time>
      </trkpt>
      <trkpt lat="42.571003" lon="-8.397541">
        <ele>498.327</ele>
        <time>2019-06-22T10:04:04Z</time>
      </trkpt>
      <trkpt lat="42.570884" lon="-8.397662">
        <ele>499.215</ele>
        <time>2019-06-22T10:04:05Z</time>
      </trkpt>
      <trkpt lat="42.570761" lon="-8.397754">
        <ele>499.934</ele>
        <time>2019-06-22T10:04:06Z</time>
      </trkpt>
      <trkpt lat="42.570631" lon="-8.397818">
        <ele>500.959</ele>
        <time>2019-06-22T10:04:07Z</time>
      </trkpt>
      <trkpt lat="42.570471" lon="-8.397865">
        <ele>501.532</ele>
        <time>2019-06-22T10:04:08Z</time>
      </trkpt>
      <trkpt lat="42.570332" lon="-8.397838">
        <ele>501.859</ele>
        <time>2019-06-22T10:04:09Z</time>
      </trkpt>
      <trkpt lat="42.570208" lon="-8.397730">
        <ele>502.103</ele>
        <time>2019-06-22T10:04:10Z</time>
      </trkpt>
      <trkpt lat="42.570084" lon="-8.397644">
        <ele>502.123</ele>
        <time>2019-06-22T10:04:11Z</time>
      </trkpt>
      <trkpt lat="42.569960" lon="-8.397533">
        <ele>501.808</ele>
        <time>2019-06-22T10:04:12Z</time>
      </trkpt>
      <trkpt lat="42.569836" lon="-8.397427">
        <ele>501.278</ele>
        <time>2019-06-22T10:04:13Z</time>
      </trkpt>
      <trkpt lat="42.569697" lon="-8.397353">
        <ele>501.262</ele>
        <time>2019-06-22T10:04:14Z</time>
      </trkpt>
      <trkpt lat="42.569558" lon="-8.397305">
        <ele>500.854</ele>
        <time>2019-06-22T10:04:15Z</time>
      </trkpt>
      <trkpt lat="42.569408" lon="-8.397300">
        <ele>500.496</ele>
        <time>2019-06-22T10:04:16Z</time>
      </trkpt>
      <trkpt lat="42.569260" lon="-8.397322">
        <ele>500.424</ele>
        <time>2019-06-22T10:04:17Z</time>
      </trkpt>
      <trkpt lat="42.569111" lon="-8.397380">
        <ele>500.753</ele>
        <time>2019-06-22T10:04:18Z</time>
      </trkpt>
      <trkpt lat="42.568979" lon="-8.397460">
        <ele>501.578</ele>
        <time>2019-06-22T10:04:19Z</time>
      </trkpt>
      <trkpt lat="42.568858" lon="-8.397562">
        <ele>502.481</ele>
        <time>2019-06-22T10:04:20Z</time>
      </trkpt>
      <trkpt lat="42.568766" lon="-8.397725">
        <ele>503.647</ele>
        <time>2019-06-22T10:04:21Z</time>
      </trkpt>
      <trkpt lat="42.568665" lon="-8.397869">
        <ele>504.829</ele>
        <time>2019-06-22T10:04:22Z</time>
      </trkpt>
      <trkpt lat="42.568613" lon="-8.398067">
        <ele>505.921</ele>
        <time>2019-06-22T10:04:23Z</time>
      </trkpt>
      <trkpt lat="42.568546" lon="-8.398249">
        <ele>507.508</ele>
        <time>2019-06-22T10:04:24Z</time>
      </trkpt>
      <trkpt lat="42.568474" lon="-8.398438">
        <ele>509.547</ele>
        <time>2019-06-22T10:04:25Z</time>
      </trkpt>
      <trkpt lat="42.568404" lon="-8.398627">
        <ele>511.341</ele>
        <time>2019-06-22T10:04:26Z</time>
      </trkpt>
      <trkpt lat="42.568336" lon="-8.398816">
        <ele>513.373</ele>
        <time>2019-06-22T10:04:27Z</time>
      </trkpt>
      <trkpt lat="42.568264" lon="-8.398984">
        <ele>515.045</ele>
        <time>2019-06-22T10:04:28Z</time>
      </trkpt>
      <trkpt lat="42.568180" lon="-8.399140">
        <ele>516.683</ele>
        <time>2019-06-22T10:04:29Z</time>
      </trkpt>
      <trkpt lat="42.568089" lon="-8.399278">
        <ele>517.952</ele>
        <time>2019-06-22T10:04:30Z</time>
      </trkpt>
      <trkpt lat="42.567993" lon="-8.399406">
        <ele>519.187</ele>
        <time>2019-06-22T10:04:31Z</time>
      </trkpt>
      <trkpt lat="42.567860" lon="-8.399487">
        <ele>520.230</ele>
        <time>2019-06-22T10:04:32Z</time>
      </trkpt>
      <trkpt lat="42.567720" lon="-8.399549">
        <ele>521.512</ele>
        <time>2019-06-22T10:04:33Z</time>
      </trkpt>
      <trkpt lat="42.567577" lon="-8.399590">
        <ele>522.732</ele>
        <time>2019-06-22T10:04:34Z</time>
      </trkpt>
      <trkpt lat="42.567425" lon="-8.399604">
        <ele>523.805</ele>
        <time>2019-06-22T10:04:35Z</time>
      </trkpt>
      <trkpt lat="42.567268" lon="-8.399565">
        <ele>524.808</ele>
        <time>2019-06-22T10:04:36Z</time>
      </trkpt>
      <trkpt lat="42.567112" lon="-8.399521">
        <ele>525.834</ele>
        <time>2019-06-22T10:04:37Z</time>
      </trkpt>
      <trkpt lat="42.566954" lon="-8.399462">
        <ele>526.598</ele>
        <time>2019-06-22T10:04:38Z</time>
      </trkpt>
      <trkpt lat="42.566773" lon="-8.399410">
        <ele>527.370</ele>
        <time>2019-06-22T10:04:39Z</time>
      </trkpt>
      <trkpt lat="42.566594" lon="-8.399361">
        <ele>528.342</ele>
        <time>2019-06-22T10:04:40Z</time>
      </trkpt>
      <trkpt lat="42.566409" lon="-8.399306">
        <ele>528.850</ele>
        <time>2019-06-22T10:04:41Z</time>
      </trkpt>
      <trkpt lat="42.566206" lon="-8.399244">
        <ele>529.139</ele>
        <time>2019-06-22T10:04:42Z</time>
      </trkpt>
      <trkpt lat="42.566015" lon="-8.399185">
        <ele>529.714</ele>
        <time>2019-06-22T10:04:43Z</time>
      </trkpt>
      <trkpt lat="42.565821" lon="-8.399129">
        <ele>530.237</ele>
        <time>2019-06-22T10:04:44Z</time>
      </trkpt>
      <trkpt lat="42.565631" lon="-8.399061">
        <ele>530.474</ele>
        <time>2019-06-22T10:04:45Z</time>
      </trkpt>
      <trkpt lat="42.565440" lon="-8.398988">
        <ele>530.956</ele>
        <time>2019-06-22T10:04:46Z</time>
      </trkpt>
      <trkpt lat="42.565256" lon="-8.398902">
        <ele>532.321</ele>
        <time>2019-06-22T10:04:47Z</time>
      </trkpt>
      <trkpt lat="42.565079" lon="-8.398795">
        <ele>533.508</ele>
        <time>2019-06-22T10:04:48Z</time>
      </trkpt>
      <trkpt lat="42.564913" lon="-8.398664">
        <ele>534.720</ele>
        <time>2019-06-22T10:04:49Z</time>
      </trkpt>
      <trkpt lat="42.564754" lon="-8.398507">
        <ele>536.564</ele>
        <time>2019-06-22T10:04:50Z</time>
      </trkpt>
      <trkpt lat="42.564604" lon="-8.398343">
        <ele>537.486</ele>
        <time>2019-06-22T10:04:51Z</time>
      </trkpt>
      <trkpt lat="42.564458" lon="-8.398194">
        <ele>538.018</ele>
        <time>2019-06-22T10:04:52Z</time>
      </trkpt>
      <trkpt lat="42.564325" lon="-8.398070">
        <ele>538.076</ele>
        <time>2019-06-22T10:04:53Z</time>
      </trkpt>
      <trkpt lat="42.564184" lon="-8.397960">
        <ele>537.765</ele>
        <time>2019-06-22T10:04:54Z</time>
      </trkpt>
      <trkpt lat="42.564046" lon="-8.397891">
        <ele>537.710</ele>
        <time>2019-06-22T10:04:55Z</time>
      </trkpt>
      <trkpt lat="42.563891" lon="-8.397874">
        <ele>537.973</ele>
        <time>2019-06-22T10:04:56Z</time>
      </trkpt>
      <trkpt lat="42.563749" lon="-8.397908">
        <ele>538.878</ele>
        <time>2019-06-22T10:04:57Z</time>
      </trkpt>
      <trkpt lat="42.563606" lon="-8.397943">
        <ele>539.033</ele>
        <time>2019-06-22T10:04:58Z</time>
      </trkpt>
      <trkpt lat="42.563480" lon="-8.398060">
        <ele>540.826</ele>
        <time>2019-06-22T10:04:59Z</time>
      </trkpt>
      <trkpt lat="42.563364" lon="-8.398194">
        <ele>541.608</ele>
        <time>2019-06-22T10:05:00Z</time>
      </trkpt>
      <trkpt lat="42.563255" lon="-8.398337">
        <ele>542.420</ele>
        <time>2019-06-22T10:05:01Z</time>
      </trkpt>
      <trkpt lat="42.563141" lon="-8.398473">
        <ele>543.264</ele>
        <time>2019-06-22T10:05:02Z</time>
      </trkpt>
      <trkpt lat="42.563028" lon="-8.398610">
        <ele>544.776</ele>
        <time>2019-06-22T10:05:03Z</time>
      </trkpt>
      <trkpt lat="42.562918" lon="-8.398711">
        <ele>545.758</ele>
        <time>2019-06-22T10:05:04Z</time>
      </trkpt>
      <trkpt lat="42.562779" lon="-8.398840">
        <ele>547.036</ele>
        <time>2019-06-22T10:05:05Z</time>
      </trkpt>
      <trkpt lat="42.562601" lon="-8.398826">
        <ele>548.745</ele>
        <time>2019-06-22T10:05:06Z</time>
      </trkpt>
      <trkpt lat="42.562437" lon="-8.398834">
        <ele>550.350</ele>
        <time>2019-06-22T10:05:07Z</time>
      </trkpt>
      <trkpt lat="42.562254" lon="-8.398833">
        <ele>551.163</ele>
        <time>2019-06-22T10:05:08Z</time>
      </trkpt>
      <trkpt lat="42.562066" lon="-8.398814">
        <ele>551.628</ele>
        <time>2019-06-22T10:05:09Z</time>
      </trkpt>
      <trkpt lat="42.561879" lon="-8.398796">
        <ele>551.689</ele>
        <time>2019-06-22T10:05:10Z</time>
      </trkpt>
      <trkpt lat="42.561695" lon="-8.398774">
        <ele>551.617</ele>
        <time>2019-06-22T10:05:11Z</time>
      </trkpt>
      <trkpt lat="42.561519" lon="-8.398775">
        <ele>550.708</ele>
        <time>2019-06-22T10:05:12Z</time>
      </trkpt>
      <trkpt lat="42.561339" lon="-8.398755">
        <ele>548.955</ele>
        <time>2019-06-22T10:05:13Z</time>
      </trkpt>
      <trkpt lat="42.561159" lon="-8.398727">
        <ele>547.889</ele>
        <time>2019-06-22T10:05:14Z</time>
      </trkpt>
      <trkpt lat="42.560974" lon="-8.398668">
        <ele>546.651</ele>
        <time>2019-06-22T10:05:15Z</time>
      </trkpt>
      <trkpt lat="42.560801" lon="-8.398587">
        <ele>546.693</ele>
        <time>2019-06-22T10:05:16Z</time>
      </trkpt>
      <trkpt lat="42.560623" lon="-8.398504">
        <ele>545.361</ele>
        <time>2019-06-22T10:05:17Z</time>
      </trkpt>
      <trkpt lat="42.560444" lon="-8.398328">
        <ele>544.490</ele>
        <time>2019-06-22T10:05:18Z</time>
      </trkpt>
      <trkpt lat="42.560265" lon="-8.398189">
        <ele>543.115</ele>
        <time>2019-06-22T10:05:19Z</time>
      </trkpt>
      <trkpt lat="42.560090" lon="-8.398037">
        <ele>541.418</ele>
        <time>2019-06-22T10:05:20Z</time>
      </trkpt>
      <trkpt lat="42.559891" lon="-8.397897">
        <ele>538.914</ele>
        <time>2019-06-22T10:05:21Z</time>
      </trkpt>
      <trkpt lat="42.559701" lon="-8.397750">
        <ele>536.054</ele>
        <time>2019-06-22T10:05:22Z</time>
      </trkpt>
      <trkpt lat="42.559516" lon="-8.397602">
        <ele>532.509</ele>
        <time>2019-06-22T10:05:23Z</time>
      </trkpt>
      <trkpt lat="42.559325" lon="-8.397458">
        <ele>529.708</ele>
        <time>2019-06-22T10:05:24Z</time>
      </trkpt>
      <trkpt lat="42.559153" lon="-8.397339">
        <ele>528.064</ele>
        <time>2019-06-22T10:05:25Z</time>
      </trkpt>
      <trkpt lat="42.558971" lon="-8.397198">
        <ele>526.888</ele>
        <time>2019-06-22T10:05:26Z</time>
      </trkpt>
      <trkpt lat="42.558767" lon="-8.397068">
        <ele>525.590</ele>
        <time>2019-06-22T10:05:27Z</time>
      </trkpt>
      <trkpt lat="42.558560" lon="-8.396949">
        <ele>525.112</ele>
        <time>2019-06-22T10:05:28Z</time>
      </trkpt>
      <trkpt lat="42.558357" lon="-8.396826">
        <ele>524.750</ele>
        <time>2019-06-22T10:05:29Z</time>
      </trkpt>
      <trkpt lat="42.558148" lon="-8.396751">
        <ele>523.579</ele>
        <time>2019-06-22T10:05:30Z</time>
      </trkpt>
      <trkpt lat="42.557934" lon="-8.396644">
        <ele>521.584</ele>
        <time>2019-06-22T10:05:31Z</time>
      </trkpt>
      <trkpt lat="42.557728" lon="-8.396543">
        <ele>519.617</ele>
        <time>2019-06-22T10:05:32Z</time>
      </trkpt>
      <trkpt lat="42.557533" lon="-8.396438">
        <ele>517.535</ele>
        <time>2019-06-22T10:05:33Z</time>
      </trkpt>
      <trkpt lat="42.557332" lon="-8.396343">
        <ele>515.886</ele>
        <time>2019-06-22T10:05:34Z</time>
      </trkpt>
      <trkpt lat="42.557143" lon="-8.396232">
        <ele>514.414</ele>
        <time>2019-06-22T10:05:35Z</time>
      </trkpt>
      <trkpt lat="42.556954" lon="-8.396121">
        <ele>513.408</ele>
        <time>2019-06-22T10:05:36Z</time>
      </trkpt>
      <trkpt lat="42.556780" lon="-8.396003">
        <ele>511.926</ele>
        <time>2019-06-22T10:05:37Z</time>
      </trkpt>
      <trkpt lat="42.556605" lon="-8.395879">
        <ele>511.270</ele>
        <time>2019-06-22T10:05:38Z</time>
      </trkpt>
      <trkpt lat="42.556441" lon="-8.395747">
        <ele>510.662</ele>
        <time>2019-06-22T10:05:39Z</time>
      </trkpt>
      <trkpt lat="42.556288" lon="-8.395589">
        <ele>509.884</ele>
        <time>2019-06-22T10:05:40Z</time>
      </trkpt>
      <trkpt lat="42.556144" lon="-8.395467">
        <ele>508.192</ele>
        <time>2019-06-22T10:05:41Z</time>
      </trkpt>
      <trkpt lat="42.555996" lon="-8.395353">
        <ele>506.771</ele>
        <time>2019-06-22T10:05:42Z</time>
      </trkpt>
      <trkpt lat="42.555859" lon="-8.395318">
        <ele>504.536</ele>
        <time>2019-06-22T10:05:43Z</time>
      </trkpt>
      <trkpt lat="42.555708" lon="-8.395269">
        <ele>502.699</ele>
        <time>2019-06-22T10:05:44Z</time>
      </trkpt>
      <trkpt lat="42.555551" lon="-8.395260">
        <ele>500.056</ele>
        <time>2019-06-22T10:05:45Z</time>
      </trkpt>
      <trkpt lat="42.555413" lon="-8.395263">
        <ele>498.359</ele>
        <time>2019-06-22T10:05:46Z</time>
      </trkpt>
      <trkpt lat="42.555266" lon="-8.395257">
        <ele>497.214</ele>
        <time>2019-06-22T10:05:47Z</time>
      </trkpt>
      <trkpt lat="42.555106" lon="-8.395405">
        <ele>497.208</ele>
        <time>2019-06-22T10:05:48Z</time>
      </trkpt>
      <trkpt lat="42.554938" lon="-8.395501">
        <ele>497.488</ele>
        <time>2019-06-22T10:05:49Z</time>
      </trkpt>
      <trkpt lat="42.554798" lon="-8.395593">
        <ele>497.442</ele>
        <time>2019-06-22T10:05:50Z</time>
      </trkpt>
      <trkpt lat="42.554655" lon="-8.395678">
        <ele>497.494</ele>
        <time>2019-06-22T10:05:51Z</time>
      </trkpt>
      <trkpt lat="42.554524" lon="-8.395760">
        <ele>497.076</ele>
        <time>2019-06-22T10:05:52Z</time>
      </trkpt>
      <trkpt lat="42.554394" lon="-8.395824">
        <ele>496.434</ele>
        <time>2019-06-22T10:05:53Z</time>
      </trkpt>
      <trkpt lat="42.554246" lon="-8.395845">
        <ele>495.583</ele>
        <time>2019-06-22T10:05:54Z</time>
      </trkpt>
      <trkpt lat="42.554092" lon="-8.395857">
        <ele>494.668</ele>
        <time>2019-06-22T10:05:55Z</time>
      </trkpt>
      <trkpt lat="42.553940" lon="-8.395782">
        <ele>494.381</ele>
        <time>2019-06-22T10:05:56Z</time>
      </trkpt>
      <trkpt lat="42.553776" lon="-8.395749">
        <ele>494.118</ele>
        <time>2019-06-22T10:05:57Z</time>
      </trkpt>
      <trkpt lat="42.553610" lon="-8.395652">
        <ele>493.298</ele>
        <time>2019-06-22T10:05:58Z</time>
      </trkpt>
      <trkpt lat="42.553454" lon="-8.395548">
        <ele>492.217</ele>
        <time>2019-06-22T10:05:59Z</time>
      </trkpt>
      <trkpt lat="42.553254" lon="-8.395361">
        <ele>490.508</ele>
        <time>2019-06-22T10:06:00Z</time>
      </trkpt>
      <trkpt lat="42.553057" lon="-8.395220">
        <ele>488.574</ele>
        <time>2019-06-22T10:06:01Z</time>
      </trkpt>
      <trkpt lat="42.552868" lon="-8.395089">
        <ele>485.958</ele>
        <time>2019-06-22T10:06:02Z</time>
      </trkpt>
      <trkpt lat="42.552690" lon="-8.394938">
        <ele>483.880</ele>
        <time>2019-06-22T10:06:03Z</time>
      </trkpt>
      <trkpt lat="42.552515" lon="-8.394816">
        <ele>482.592</ele>
        <time>2019-06-22T10:06:04Z</time>
      </trkpt>
      <trkpt lat="42.552337" lon="-8.394684">
        <ele>481.520</ele>
        <time>2019-06-22T10:06:05Z</time>
      </trkpt>
      <trkpt lat="42.552163" lon="-8.394555">
        <ele>480.589</ele>
        <time>2019-06-22T10:06:06Z</time>
      </trkpt>
      <trkpt lat="42.552023" lon="-8.394427">
        <ele>479.544</ele>
        <time>2019-06-22T10:06:07Z</time>
      </trkpt>
      <trkpt lat="42.551873" lon="-8.394296">
        <ele>478.567</ele>
        <time>2019-06-22T10:06:08Z</time>
      </trkpt>
      <trkpt lat="42.551720" lon="-8.394256">
        <ele>476.545</ele>
        <time>2019-06-22T10:06:09Z</time>
      </trkpt>
      <trkpt lat="42.551579" lon="-8.394219">
        <ele>474.147</ele>
        <time>2019-06-22T10:06:10Z</time>
      </trkpt>
      <trkpt lat="42.551431" lon="-8.394186">
        <ele>472.111</ele>
        <time>2019-06-22T10:06:11Z</time>
      </trkpt>
      <trkpt lat="42.551276" lon="-8.394167">
        <ele>470.508</ele>
        <time>2019-06-22T10:06:12Z</time>
      </trkpt>
      <trkpt lat="42.551109" lon="-8.394190">
        <ele>469.777</ele>
        <time>2019-06-22T10:06:13Z</time>
      </trkpt>
      <trkpt lat="42.550949" lon="-8.394198">
        <ele>469.731</ele>
        <time>2019-06-22T10:06:14Z</time>
      </trkpt>
      <trkpt lat="42.550810" lon="-8.394338">
        <ele>468.963</ele>
        <time>2019-06-22T10:06:15Z</time>
      </trkpt>
      <trkpt lat="42.550694" lon="-8.394490">
        <ele>467.685</ele>
        <time>2019-06-22T10:06:16Z</time>
      </trkpt>
      <trkpt lat="42.550581" lon="-8.394589">
        <ele>466.563</ele>
        <time>2019-06-22T10:06:17Z</time>
      </trkpt>
      <trkpt lat="42.550482" lon="-8.394684">
        <ele>465.252</ele>
        <time>2019-06-22T10:06:18Z</time>
      </trkpt>
      <trkpt lat="42.550372" lon="-8.394788">
        <ele>464.387</ele>
        <time>2019-06-22T10:06:19Z</time>
      </trkpt>
      <trkpt lat="42.550248" lon="-8.394795">
        <ele>463.510</ele>
        <time>2019-06-22T10:06:20Z</time>
      </trkpt>
      <trkpt lat="42.550108" lon="-8.394816">
        <ele>463.349</ele>
        <time>2019-06-22T10:06:21Z</time>
      </trkpt>
      <trkpt lat="42.549975" lon="-8.394834">
        <ele>463.002</ele>
        <time>2019-06-22T10:06:22Z</time>
      </trkpt>
      <trkpt lat="42.549815" lon="-8.394659">
        <ele>462.622</ele>
        <time>2019-06-22T10:06:23Z</time>
      </trkpt>
      <trkpt lat="42.549676" lon="-8.394561">
        <ele>461.908</ele>
        <time>2019-06-22T10:06:24Z</time>
      </trkpt>
      <trkpt lat="42.549547" lon="-8.394419">
        <ele>460.837</ele>
        <time>2019-06-22T10:06:25Z</time>
      </trkpt>
      <trkpt lat="42.549407" lon="-8.394264">
        <ele>459.321</ele>
        <time>2019-06-22T10:06:26Z</time>
      </trkpt>
      <trkpt lat="42.549284" lon="-8.394130">
        <ele>457.693</ele>
        <time>2019-06-22T10:06:27Z</time>
      </trkpt>
      <trkpt lat="42.549148" lon="-8.393985">
        <ele>455.995</ele>
        <time>2019-06-22T10:06:28Z</time>
      </trkpt>
      <trkpt lat="42.549009" lon="-8.393848">
        <ele>454.323</ele>
        <time>2019-06-22T10:06:29Z</time>
      </trkpt>
      <trkpt lat="42.548885" lon="-8.393711">
        <ele>452.672</ele>
        <time>2019-06-22T10:06:30Z</time>
      </trkpt>
      <trkpt lat="42.548762" lon="-8.393616">
        <ele>451.317</ele>
        <time>2019-06-22T10:06:31Z</time>
      </trkpt>
      <trkpt lat="42.548628" lon="-8.393573">
        <ele>449.890</ele>
        <time>2019-06-22T10:06:32Z</time>
      </trkpt>
      <trkpt lat="42.548454" lon="-8.393539">
        <ele>448.431</ele>
        <time>2019-06-22T10:06:33Z</time>
      </trkpt>
      <trkpt lat="42.548302" lon="-8.393573">
        <ele>447.161</ele>
        <time>2019-06-22T10:06:34Z</time>
      </trkpt>
      <trkpt lat="42.548139" lon="-8.393570">
        <ele>446.207</ele>
        <time>2019-06-22T10:06:35Z</time>
      </trkpt>
      <trkpt lat="42.547966" lon="-8.393542">
        <ele>445.508</ele>
        <time>2019-06-22T10:06:36Z</time>
      </trkpt>
      <trkpt lat="42.547807" lon="-8.393506">
        <ele>445.426</ele>
        <time>2019-06-22T10:06:37Z</time>
      </trkpt>
      <trkpt lat="42.547648" lon="-8.393454">
        <ele>445.330</ele>
        <time>2019-06-22T10:06:38Z</time>
      </trkpt>
      <trkpt lat="42.547502" lon="-8.393378">
        <ele>444.812</ele>
        <time>2019-06-22T10:06:39Z</time>
      </trkpt>
      <trkpt lat="42.547352" lon="-8.393311">
        <ele>444.034</ele>
        <time>2019-06-22T10:06:40Z</time>
      </trkpt>
      <trkpt lat="42.547232" lon="-8.393280">
        <ele>442.032</ele>
        <time>2019-06-22T10:06:41Z</time>
      </trkpt>
      <trkpt lat="42.547085" lon="-8.393262">
        <ele>439.851</ele>
        <time>2019-06-22T10:06:42Z</time>
      </trkpt>
      <trkpt lat="42.546939" lon="-8.393302">
        <ele>437.566</ele>
        <time>2019-06-22T10:06:43Z</time>
      </trkpt>
      <trkpt lat="42.546790" lon="-8.393310">
        <ele>435.449</ele>
        <time>2019-06-22T10:06:44Z</time>
      </trkpt>
      <trkpt lat="42.546661" lon="-8.393455">
        <ele>433.447</ele>
        <time>2019-06-22T10:06:45Z</time>
      </trkpt>
      <trkpt lat="42.546525" lon="-8.393550">
        <ele>432.129</ele>
        <time>2019-06-22T10:06:46Z</time>
      </trkpt>
      <trkpt lat="42.546394" lon="-8.393651">
        <ele>431.021</ele>
        <time>2019-06-22T10:06:47Z</time>
      </trkpt>
      <trkpt lat="42.546280" lon="-8.393807">
        <ele>430.208</ele>
        <time>2019-06-22T10:06:48Z</time>
      </trkpt>
      <trkpt lat="42.546194" lon="-8.393988">
        <ele>428.557</ele>
        <time>2019-06-22T10:06:49Z</time>
      </trkpt>
      <trkpt lat="42.546096" lon="-8.394140">
        <ele>426.831</ele>
        <time>2019-06-22T10:06:50Z</time>
      </trkpt>
      <trkpt lat="42.546076" lon="-8.394326">
        <ele>425.453</ele>
        <time>2019-06-22T10:06:51Z</time>
      </trkpt>
      <trkpt lat="42.546034" lon="-8.394522">
        <ele>424.425</ele>
        <time>2019-06-22T10:06:52Z</time>
      </trkpt>
      <trkpt lat="42.545989" lon="-8.394710">
        <ele>423.423</ele>
        <time>2019-06-22T10:06:53Z</time>
      </trkpt>
      <trkpt lat="42.545934" lon="-8.394874">
        <ele>423.462</ele>
        <time>2019-06-22T10:06:54Z</time>
      </trkpt>
      <trkpt lat="42.545812" lon="-8.395019">
        <ele>423.757</ele>
        <time>2019-06-22T10:06:55Z</time>
      </trkpt>
      <trkpt lat="42.545712" lon="-8.395146">
        <ele>423.710</ele>
        <time>2019-06-22T10:06:56Z</time>
      </trkpt>
      <trkpt lat="42.545595" lon="-8.395261">
        <ele>423.474</ele>
        <time>2019-06-22T10:06:57Z</time>
      </trkpt>
      <trkpt lat="42.545462" lon="-8.395296">
        <ele>422.656</ele>
        <time>2019-06-22T10:06:58Z</time>
      </trkpt>
      <trkpt lat="42.545338" lon="-8.395286">
        <ele>421.621</ele>
        <time>2019-06-22T10:06:59Z</time>
      </trkpt>
      <trkpt lat="42.545205" lon="-8.395257">
        <ele>420.308</ele>
        <time>2019-06-22T10:07:00Z</time>
      </trkpt>
      <trkpt lat="42.545079" lon="-8.395227">
        <ele>419.140</ele>
        <time>2019-06-22T10:07:01Z</time>
      </trkpt>
      <trkpt lat="42.544957" lon="-8.395109">
        <ele>417.954</ele>
        <time>2019-06-22T10:07:02Z</time>
      </trkpt>
      <trkpt lat="42.544831" lon="-8.394978">
        <ele>416.876</ele>
        <time>2019-06-22T10:07:03Z</time>
      </trkpt>
      <trkpt lat="42.544709" lon="-8.394824">
        <ele>415.688</ele>
        <time>2019-06-22T10:07:04Z</time>
      </trkpt>
      <trkpt lat="42.544603" lon="-8.394663">
        <ele>414.236</ele>
        <time>2019-06-22T10:07:05Z</time>
      </trkpt>
      <trkpt lat="42.544516" lon="-8.394540">
        <ele>412.675</ele>
        <time>2019-06-22T10:07:06Z</time>
      </trkpt>
      <trkpt lat="42.544418" lon="-8.394369">
        <ele>411.060</ele>
        <time>2019-06-22T10:07:07Z</time>
      </trkpt>
      <trkpt lat="42.544336" lon="-8.394195">
        <ele>409.133</ele>
        <time>2019-06-22T10:07:08Z</time>
      </trkpt>
      <trkpt lat="42.544264" lon="-8.394033">
        <ele>407.338</ele>
        <time>2019-06-22T10:07:09Z</time>
      </trkpt>
      <trkpt lat="42.544189" lon="-8.393887">
        <ele>405.970</ele>
        <time>2019-06-22T10:07:10Z</time>
      </trkpt>
      <trkpt lat="42.544094" lon="-8.393747">
        <ele>404.117</ele>
        <time>2019-06-22T10:07:11Z</time>
      </trkpt>
      <trkpt lat="42.543993" lon="-8.393653">
        <ele>402.408</ele>
        <time>2019-06-22T10:07:12Z</time>
      </trkpt>
      <trkpt lat="42.543884" lon="-8.393595">
        <ele>400.666</ele>
        <time>2019-06-22T10:07:13Z</time>
      </trkpt>
      <trkpt lat="42.543768" lon="-8.393574">
        <ele>399.660</ele>
        <time>2019-06-22T10:07:14Z</time>
      </trkpt>
      <trkpt lat="42.543649" lon="-8.393594">
        <ele>398.392</ele>
        <time>2019-06-22T10:07:15Z</time>
      </trkpt>
      <trkpt lat="42.543536" lon="-8.393656">
        <ele>397.984</ele>
        <time>2019-06-22T10:07:16Z</time>
      </trkpt>
      <trkpt lat="42.543420" lon="-8.393739">
        <ele>397.982</ele>
        <time>2019-06-22T10:07:17Z</time>
      </trkpt>
      <trkpt lat="42.543294" lon="-8.393826">
        <ele>397.971</ele>
        <time>2019-06-22T10:07:18Z</time>
      </trkpt>
      <trkpt lat="42.543164" lon="-8.393902">
        <ele>398.426</ele>
        <time>2019-06-22T10:07:19Z</time>
      </trkpt>
      <trkpt lat="42.543051" lon="-8.393993">
        <ele>398.449</ele>
        <time>2019-06-22T10:07:20Z</time>
      </trkpt>
      <trkpt lat="42.542958" lon="-8.394107">
        <ele>398.023</ele>
        <time>2019-06-22T10:07:21Z</time>
      </trkpt>
      <trkpt lat="42.542878" lon="-8.394231">
        <ele>397.583</ele>
        <time>2019-06-22T10:07:22Z</time>
      </trkpt>
      <trkpt lat="42.542814" lon="-8.394371">
        <ele>396.011</ele>
        <time>2019-06-22T10:07:23Z</time>
      </trkpt>
      <trkpt lat="42.542767" lon="-8.394531">
        <ele>394.308</ele>
        <time>2019-06-22T10:07:24Z</time>
      </trkpt>
      <trkpt lat="42.542739" lon="-8.394698">
        <ele>393.015</ele>
        <time>2019-06-22T10:07:25Z</time>
      </trkpt>
      <trkpt lat="42.542706" lon="-8.394868">
        <ele>392.399</ele>
        <time>2019-06-22T10:07:26Z</time>
      </trkpt>
      <trkpt lat="42.542664" lon="-8.395010">
        <ele>391.621</ele>
        <time>2019-06-22T10:07:27Z</time>
      </trkpt>
      <trkpt lat="42.542610" lon="-8.395145">
        <ele>391.413</ele>
        <time>2019-06-22T10:07:28Z</time>
      </trkpt>
      <trkpt lat="42.542534" lon="-8.395250">
        <ele>391.111</ele>
        <time>2019-06-22T10:07:29Z</time>
      </trkpt>
      <trkpt lat="42.542453" lon="-8.395332">
        <ele>390.780</ele>
        <time>2019-06-22T10:07:30Z</time>
      </trkpt>
      <trkpt lat="42.542346" lon="-8.395398">
        <ele>390.575</ele>
        <time>2019-06-22T10:07:31Z</time>
      </trkpt>
      <trkpt lat="42.542226" lon="-8.395445">
        <ele>390.278</ele>
        <time>2019-06-22T10:07:32Z</time>
      </trkpt>
      <trkpt lat="42.542094" lon="-8.395471">
        <ele>389.724</ele>
        <time>2019-06-22T10:07:33Z</time>
      </trkpt>
      <trkpt lat="42.541956" lon="-8.395468">
        <ele>389.204</ele>
        <time>2019-06-22T10:07:34Z</time>
      </trkpt>
      <trkpt lat="42.541816" lon="-8.395443">
        <ele>388.814</ele>
        <time>2019-06-22T10:07:35Z</time>
      </trkpt>
      <trkpt lat="42.541687" lon="-8.395392">
        <ele>388.108</ele>
        <time>2019-06-22T10:07:36Z</time>
      </trkpt>
      <trkpt lat="42.541564" lon="-8.395296">
        <ele>387.475</ele>
        <time>2019-06-22T10:07:37Z</time>
      </trkpt>
      <trkpt lat="42.541436" lon="-8.395193">
        <ele>386.599</ele>
        <time>2019-06-22T10:07:38Z</time>
      </trkpt>
      <trkpt lat="42.541301" lon="-8.395089">
        <ele>385.491</ele>
        <time>2019-06-22T10:07:39Z</time>
      </trkpt>
      <trkpt lat="42.541173" lon="-8.394986">
        <ele>384.153</ele>
        <time>2019-06-22T10:07:40Z</time>
      </trkpt>
      <trkpt lat="42.541038" lon="-8.394889">
        <ele>382.611</ele>
        <time>2019-06-22T10:07:41Z</time>
      </trkpt>
      <trkpt lat="42.540913" lon="-8.394798">
        <ele>381.280</ele>
        <time>2019-06-22T10:07:42Z</time>
      </trkpt>
      <trkpt lat="42.540787" lon="-8.394709">
        <ele>379.675</ele>
        <time>2019-06-22T10:07:43Z</time>
      </trkpt>
      <trkpt lat="42.540660" lon="-8.394643">
        <ele>378.158</ele>
        <time>2019-06-22T10:07:44Z</time>
      </trkpt>
      <trkpt lat="42.540528" lon="-8.394605">
        <ele>376.913</ele>
        <time>2019-06-22T10:07:45Z</time>
      </trkpt>
      <trkpt lat="42.540385" lon="-8.394586">
        <ele>375.843</ele>
        <time>2019-06-22T10:07:46Z</time>
      </trkpt>
      <trkpt lat="42.540241" lon="-8.394596">
        <ele>374.507</ele>
        <time>2019-06-22T10:07:47Z</time>
      </trkpt>
      <trkpt lat="42.540094" lon="-8.394607">
        <ele>373.408</ele>
        <time>2019-06-22T10:07:48Z</time>
      </trkpt>
      <trkpt lat="42.539938" lon="-8.394731">
        <ele>372.714</ele>
        <time>2019-06-22T10:07:49Z</time>
      </trkpt>
      <trkpt lat="42.539781" lon="-8.394803">
        <ele>372.468</ele>
        <time>2019-06-22T10:07:50Z</time>
      </trkpt>
      <trkpt lat="42.539612" lon="-8.394879">
        <ele>372.030</ele>
        <time>2019-06-22T10:07:51Z</time>
      </trkpt>
      <trkpt lat="42.539445" lon="-8.394952">
        <ele>371.632</ele>
        <time>2019-06-22T10:07:52Z</time>
      </trkpt>
      <trkpt lat="42.539270" lon="-8.394985">
        <ele>371.080</ele>
        <time>2019-06-22T10:07:53Z</time>
      </trkpt>
      <trkpt lat="42.539100" lon="-8.395012">
        <ele>370.199</ele>
        <time>2019-06-22T10:07:54Z</time>
      </trkpt>
      <trkpt lat="42.538930" lon="-8.395011">
        <ele>368.874</ele>
        <time>2019-06-22T10:07:55Z</time>
      </trkpt>
      <trkpt lat="42.538762" lon="-8.394999">
        <ele>367.297</ele>
        <time>2019-06-22T10:07:56Z</time>
      </trkpt>
      <trkpt lat="42.538608" lon="-8.394993">
        <ele>365.419</ele>
        <time>2019-06-22T10:07:57Z</time>
      </trkpt>
      <trkpt lat="42.538463" lon="-8.395003">
        <ele>363.209</ele>
        <time>2019-06-22T10:07:58Z</time>
      </trkpt>
      <trkpt lat="42.538325" lon="-8.395045">
        <ele>361.019</ele>
        <time>2019-06-22T10:07:59Z</time>
      </trkpt>
      <trkpt lat="42.538195" lon="-8.395111">
        <ele>358.908</ele>
        <time>2019-06-22T10:08:00Z</time>
      </trkpt>
      <trkpt lat="42.538082" lon="-8.395220">
        <ele>357.124</ele>
        <time>2019-06-22T10:08:01Z</time>
      </trkpt>
      <trkpt lat="42.538014" lon="-8.395381">
        <ele>355.618</ele>
        <time>2019-06-22T10:08:02Z</time>
      </trkpt>
      <trkpt lat="42.537921" lon="-8.395522">
        <ele>355.180</ele>
        <time>2019-06-22T10:08:03Z</time>
      </trkpt>
      <trkpt lat="42.537818" lon="-8.395634">
        <ele>354.922</ele>
        <time>2019-06-22T10:08:04Z</time>
      </trkpt>
      <trkpt lat="42.537685" lon="-8.395687">
        <ele>354.770</ele>
        <time>2019-06-22T10:08:05Z</time>
      </trkpt>
      <trkpt lat="42.537561" lon="-8.395756">
        <ele>354.499</ele>
        <time>2019-06-22T10:08:06Z</time>
      </trkpt>
      <trkpt lat="42.537409" lon="-8.395712">
        <ele>354.044</ele>
        <time>2019-06-22T10:08:07Z</time>
      </trkpt>
      <trkpt lat="42.537267" lon="-8.395680">
        <ele>353.117</ele>
        <time>2019-06-22T10:08:08Z</time>
      </trkpt>
      <trkpt lat="42.537125" lon="-8.395647">
        <ele>351.823</ele>
        <time>2019-06-22T10:08:09Z</time>
      </trkpt>
      <trkpt lat="42.536952" lon="-8.395563">
        <ele>350.083</ele>
        <time>2019-06-22T10:08:10Z</time>
      </trkpt>
      <trkpt lat="42.536771" lon="-8.395498">
        <ele>348.011</ele>
        <time>2019-06-22T10:08:11Z</time>
      </trkpt>
      <trkpt lat="42.536593" lon="-8.395524">
        <ele>345.608</ele>
        <time>2019-06-22T10:08:12Z</time>
      </trkpt>
      <trkpt lat="42.536389" lon="-8.395516">
        <ele>343.375</ele>
        <time>2019-06-22T10:08:13Z</time>
      </trkpt>
      <trkpt lat="42.536185" lon="-8.395506">
        <ele>341.479</ele>
        <time>2019-06-22T10:08:14Z</time>
      </trkpt>
      <trkpt lat="42.535985" lon="-8.395506">
        <ele>339.521</ele>
        <time>2019-06-22T10:08:15Z</time>
      </trkpt>
      <trkpt lat="42.535794" lon="-8.395490">
        <ele>337.333</ele>
        <time>2019-06-22T10:08:16Z</time>
      </trkpt>
      <trkpt lat="42.535608" lon="-8.395478">
        <ele>335.491</ele>
        <time>2019-06-22T10:08:17Z</time>
      </trkpt>
      <trkpt lat="42.535434" lon="-8.395479">
        <ele>333.830</ele>
        <time>2019-06-22T10:08:18Z</time>
      </trkpt>
      <trkpt lat="42.535263" lon="-8.395484">
        <ele>333.855</ele>
        <time>2019-06-22T10:08:19Z</time>
      </trkpt>
      <trkpt lat="42.535127" lon="-8.395562">
        <ele>331.438</ele>
        <time>2019-06-22T10:08:20Z</time>
      </trkpt>
      <trkpt lat="42.534978" lon="-8.395593">
        <ele>329.422</ele>
        <time>2019-06-22T10:08:21Z</time>
      </trkpt>
      <trkpt lat="42.534874" lon="-8.395608">
        <ele>328.662</ele>
        <time>2019-06-22T10:08:22Z</time>
      </trkpt>
      <trkpt lat="42.534755" lon="-8.395631">
        <ele>328.008</ele>
        <time>2019-06-22T10:08:23Z</time>
      </trkpt>
      <trkpt lat="42.534670" lon="-8.395626">
        <ele>327.608</ele>
        <time>2019-06-22T10:08:24Z</time>
      </trkpt>
      <trkpt lat="42.534606" lon="-8.395642">
        <ele>327.645</ele>
        <time>2019-06-22T10:08:25Z</time>
      </trkpt>
      <trkpt lat="42.534544" lon="-8.395636">
        <ele>327.629</ele>
        <time>2019-06-22T10:08:26Z</time>
      </trkpt>
      <trkpt lat="42.534472" lon="-8.395622">
        <ele>327.471</ele>
        <time>2019-06-22T10:08:28Z</time>
      </trkpt>
      <trkpt lat="42.534418" lon="-8.395511">
        <ele>326.873</ele>
        <time>2019-06-22T10:08:30Z</time>
      </trkpt>
      <trkpt lat="42.534382" lon="-8.395403">
        <ele>326.471</ele>
        <time>2019-06-22T10:08:31Z</time>
      </trkpt>
      <trkpt lat="42.534342" lon="-8.395303">
        <ele>326.050</ele>
        <time>2019-06-22T10:08:32Z</time>
      </trkpt>
      <trkpt lat="42.534297" lon="-8.395209">
        <ele>325.435</ele>
        <time>2019-06-22T10:08:33Z</time>
      </trkpt>
      <trkpt lat="42.534242" lon="-8.395122">
        <ele>325.088</ele>
        <time>2019-06-22T10:08:34Z</time>
      </trkpt>
      <trkpt lat="42.534182" lon="-8.395043">
        <ele>324.646</ele>
        <time>2019-06-22T10:08:35Z</time>
      </trkpt>
      <trkpt lat="42.534096" lon="-8.395055">
        <ele>324.288</ele>
        <time>2019-06-22T10:08:36Z</time>
      </trkpt>
      <trkpt lat="42.534008" lon="-8.395061">
        <ele>324.216</ele>
        <time>2019-06-22T10:08:37Z</time>
      </trkpt>
      <trkpt lat="42.533908" lon="-8.395054">
        <ele>324.308</ele>
        <time>2019-06-22T10:08:38Z</time>
      </trkpt>
      <trkpt lat="42.533808" lon="-8.395040">
        <ele>324.667</ele>
        <time>2019-06-22T10:08:39Z</time>
      </trkpt>
      <trkpt lat="42.533709" lon="-8.395022">
        <ele>325.061</ele>
        <time>2019-06-22T10:08:40Z</time>
      </trkpt>
      <trkpt lat="42.533614" lon="-8.395014">
        <ele>325.663</ele>
        <time>2019-06-22T10:08:41Z</time>
      </trkpt>
      <trkpt lat="42.533506" lon="-8.394993">
        <ele>326.285</ele>
        <time>2019-06-22T10:08:42Z</time>
      </trkpt>
      <trkpt lat="42.533398" lon="-8.394974">
        <ele>326.613</ele>
        <time>2019-06-22T10:08:43Z</time>
      </trkpt>
      <trkpt lat="42.533293" lon="-8.394948">
        <ele>327.082</ele>
        <time>2019-06-22T10:08:44Z</time>
      </trkpt>
      <trkpt lat="42.533184" lon="-8.394932">
        <ele>327.487</ele>
        <time>2019-06-22T10:08:45Z</time>
      </trkpt>
      <trkpt lat="42.533052" lon="-8.394915">
        <ele>327.750</ele>
        <time>2019-06-22T10:08:46Z</time>
      </trkpt>
      <trkpt lat="42.532924" lon="-8.394884">
        <ele>328.089</ele>
        <time>2019-06-22T10:08:47Z</time>
      </trkpt>
      <trkpt lat="42.532786" lon="-8.394858">
        <ele>328.406</ele>
        <time>2019-06-22T10:08:48Z</time>
      </trkpt>
      <trkpt lat="42.532662" lon="-8.394853">
        <ele>329.126</ele>
        <time>2019-06-22T10:08:49Z</time>
      </trkpt>
      <trkpt lat="42.532548" lon="-8.394827">
        <ele>329.408</ele>
        <time>2019-06-22T10:08:50Z</time>
      </trkpt>
      <trkpt lat="42.532447" lon="-8.394811">
        <ele>329.831</ele>
        <time>2019-06-22T10:08:51Z</time>
      </trkpt>
      <trkpt lat="42.532360" lon="-8.394791">
        <ele>330.485</ele>
        <time>2019-06-22T10:08:52Z</time>
      </trkpt>
      <trkpt lat="42.532281" lon="-8.394779">
        <ele>331.437</ele>
        <time>2019-06-22T10:08:53Z</time>
      </trkpt>
      <trkpt lat="42.532223" lon="-8.394755">
        <ele>332.019</ele>
        <time>2019-06-22T10:08:54Z</time>
      </trkpt>
      <trkpt lat="42.532144" lon="-8.394743">
        <ele>333.827</ele>
        <time>2019-06-22T10:08:56Z</time>
      </trkpt>
      <trkpt lat="42.532092" lon="-8.394695">
        <ele>335.016</ele>
        <time>2019-06-22T10:08:58Z</time>
      </trkpt>
      <trkpt lat="42.532068" lon="-8.394629">
        <ele>335.451</ele>
        <time>2019-06-22T10:08:59Z</time>
      </trkpt>
      <trkpt lat="42.532041" lon="-8.394537">
        <ele>335.794</ele>
        <time>2019-06-22T10:09:00Z</time>
      </trkpt>
      <trkpt lat="42.532023" lon="-8.394417">
        <ele>335.853</ele>
        <time>2019-06-22T10:09:01Z</time>
      </trkpt>
      <trkpt lat="42.532012" lon="-8.394288">
        <ele>335.904</ele>
        <time>2019-06-22T10:09:02Z</time>
      </trkpt>
      <trkpt lat="42.532005" lon="-8.394138">
        <ele>336.214</ele>
        <time>2019-06-22T10:09:03Z</time>
      </trkpt>
      <trkpt lat="42.532000" lon="-8.393982">
        <ele>336.608</ele>
        <time>2019-06-22T10:09:04Z</time>
      </trkpt>
      <trkpt lat="42.531989" lon="-8.393817">
        <ele>336.998</ele>
        <time>2019-06-22T10:09:05Z</time>
      </trkpt>
      <trkpt lat="42.531986" lon="-8.393654">
        <ele>337.482</ele>
        <time>2019-06-22T10:09:06Z</time>
      </trkpt>
      <trkpt lat="42.531988" lon="-8.393511">
        <ele>338.074</ele>
        <time>2019-06-22T10:09:07Z</time>
      </trkpt>
      <trkpt lat="42.531988" lon="-8.393370">
        <ele>338.566</ele>
        <time>2019-06-22T10:09:08Z</time>
      </trkpt>
      <trkpt lat="42.531991" lon="-8.393236">
        <ele>339.164</ele>
        <time>2019-06-22T10:09:09Z</time>
      </trkpt>
      <trkpt lat="42.531993" lon="-8.393105">
        <ele>339.873</ele>
        <time>2019-06-22T10:09:10Z</time>
      </trkpt>
      <trkpt lat="42.531990" lon="-8.392980">
        <ele>340.418</ele>
        <time>2019-06-22T10:09:11Z</time>
      </trkpt>
      <trkpt lat="42.531997" lon="-8.392864">
        <ele>340.981</ele>
        <time>2019-06-22T10:09:12Z</time>
      </trkpt>
      <trkpt lat="42.531998" lon="-8.392758">
        <ele>341.599</ele>
        <time>2019-06-22T10:09:13Z</time>
      </trkpt>
      <trkpt lat="42.531998" lon="-8.392644">
        <ele>341.907</ele>
        <time>2019-06-22T10:09:14Z</time>
      </trkpt>
      <trkpt lat="42.532002" lon="-8.392543">
        <ele>342.327</ele>
        <time>2019-06-22T10:09:15Z</time>
      </trkpt>
      <trkpt lat="42.532007" lon="-8.392426">
        <ele>342.708</ele>
        <time>2019-06-22T10:09:16Z</time>
      </trkpt>
      <trkpt lat="42.532003" lon="-8.392302">
        <ele>343.142</ele>
        <time>2019-06-22T10:09:17Z</time>
      </trkpt>
      <trkpt lat="42.531993" lon="-8.392148">
        <ele>343.426</ele>
        <time>2019-06-22T10:09:18Z</time>
      </trkpt>
      <trkpt lat="42.531984" lon="-8.391981">
        <ele>343.418</ele>
        <time>2019-06-22T10:09:19Z</time>
      </trkpt>
      <trkpt lat="42.531975" lon="-8.391801">
        <ele>343.730</ele>
        <time>2019-06-22T10:09:20Z</time>
      </trkpt>
      <trkpt lat="42.531952" lon="-8.391624">
        <ele>344.188</ele>
        <time>2019-06-22T10:09:21Z</time>
      </trkpt>
      <trkpt lat="42.531937" lon="-8.391452">
        <ele>344.447</ele>
        <time>2019-06-22T10:09:22Z</time>
      </trkpt>
      <trkpt lat="42.531895" lon="-8.391273">
        <ele>344.852</ele>
        <time>2019-06-22T10:09:23Z</time>
      </trkpt>
      <trkpt lat="42.531871" lon="-8.391115">
        <ele>345.245</ele>
        <time>2019-06-22T10:09:24Z</time>
      </trkpt>
      <trkpt lat="42.531866" lon="-8.390949">
        <ele>345.796</ele>
        <time>2019-06-22T10:09:25Z</time>
      </trkpt>
      <trkpt lat="42.531866" lon="-8.390792">
        <ele>346.531</ele>
        <time>2019-06-22T10:09:26Z</time>
      </trkpt>
      <trkpt lat="42.531877" lon="-8.390649">
        <ele>347.524</ele>
        <time>2019-06-22T10:09:27Z</time>
      </trkpt>
      <trkpt lat="42.531893" lon="-8.390486">
        <ele>348.408</ele>
        <time>2019-06-22T10:09:28Z</time>
      </trkpt>
      <trkpt lat="42.531932" lon="-8.390351">
        <ele>349.482</ele>
        <time>2019-06-22T10:09:29Z</time>
      </trkpt>
      <trkpt lat="42.531961" lon="-8.390207">
        <ele>350.586</ele>
        <time>2019-06-22T10:09:30Z</time>
      </trkpt>
      <trkpt lat="42.532002" lon="-8.390082">
        <ele>351.428</ele>
        <time>2019-06-22T10:09:31Z</time>
      </trkpt>
      <trkpt lat="42.532048" lon="-8.389988">
        <ele>352.150</ele>
        <time>2019-06-22T10:09:32Z</time>
      </trkpt>
      <trkpt lat="42.532084" lon="-8.389901">
        <ele>352.728</ele>
        <time>2019-06-22T10:09:33Z</time>
      </trkpt>
      <trkpt lat="42.532098" lon="-8.389829">
        <ele>353.237</ele>
        <time>2019-06-22T10:09:34Z</time>
      </trkpt>
      <trkpt lat="42.532126" lon="-8.389748">
        <ele>353.912</ele>
        <time>2019-06-22T10:09:36Z</time>
      </trkpt>
      <trkpt lat="42.532108" lon="-8.389654">
        <ele>354.865</ele>
        <time>2019-06-22T10:09:39Z</time>
      </trkpt>
      <trkpt lat="42.532113" lon="-8.389580">
        <ele>355.277</ele>
        <time>2019-06-22T10:09:41Z</time>
      </trkpt>
      <trkpt lat="42.532162" lon="-8.389584">
        <ele>356.061</ele>
        <time>2019-06-22T10:09:53Z</time>
      </trkpt>
      <trkpt lat="42.532206" lon="-8.389633">
        <ele>356.027</ele>
        <time>2019-06-22T10:09:59Z</time>
      </trkpt>
      <trkpt lat="42.532210" lon="-8.389716">
        <ele>356.008</ele>
        <time>2019-06-22T10:10:01Z</time>
      </trkpt>
      <trkpt lat="42.532186" lon="-8.389791">
        <ele>355.810</ele>
        <time>2019-06-22T10:10:04Z</time>
      </trkpt>
      <trkpt lat="42.532152" lon="-8.389747">
        <ele>355.774</ele>
        <time>2019-06-22T10:11:09Z</time>
      </trkpt>
      <trkpt lat="42.532195" lon="-8.389689">
        <ele>355.936</ele>
        <time>2019-06-22T10:12:15Z</time>
      </trkpt>
      <trkpt lat="42.532228" lon="-8.389643">
        <ele>356.158</ele>
        <time>2019-06-22T10:12:20Z</time>
      </trkpt>
      <trkpt lat="42.532268" lon="-8.389596">
        <ele>356.346</ele>
        <time>2019-06-22T10:12:24Z</time>
      </trkpt>
      <trkpt lat="42.532070" lon="-8.389745">
        <ele>356.495</ele>
        <time>2019-06-22T10:12:34Z</time>
      </trkpt>
      <trkpt lat="42.532021" lon="-8.389764">
        <ele>356.450</ele>
        <time>2019-06-22T10:12:35Z</time>
      </trkpt>
      <trkpt lat="42.531967" lon="-8.389770">
        <ele>356.413</ele>
        <time>2019-06-22T10:12:38Z</time>
      </trkpt>
      <trkpt lat="42.531920" lon="-8.389802">
        <ele>356.388</ele>
        <time>2019-06-22T10:12:46Z</time>
      </trkpt>
      <trkpt lat="42.531877" lon="-8.389837">
        <ele>356.324</ele>
        <time>2019-06-22T10:12:48Z</time>
      </trkpt>
      <trkpt lat="42.531826" lon="-8.389892">
        <ele>356.326</ele>
        <time>2019-06-22T10:12:50Z</time>
      </trkpt>
      <trkpt lat="42.531787" lon="-8.389940">
        <ele>356.308</ele>
        <time>2019-06-22T10:12:53Z</time>
      </trkpt>
      <trkpt lat="42.531763" lon="-8.389998">
        <ele>356.341</ele>
        <time>2019-06-22T10:12:56Z</time>
      </trkpt>
      <trkpt lat="42.531703" lon="-8.390030">
        <ele>356.345</ele>
        <time>2019-06-22T10:13:00Z</time>
      </trkpt>
      <trkpt lat="42.531629" lon="-8.389997">
        <ele>356.337</ele>
        <time>2019-06-22T10:13:02Z</time>
      </trkpt>
      <trkpt lat="42.531505" lon="-8.389948">
        <ele>356.349</ele>
        <time>2019-06-22T10:13:03Z</time>
      </trkpt>
      <trkpt lat="42.531523" lon="-8.389855">
        <ele>356.397</ele>
        <time>2019-06-22T10:13:05Z</time>
      </trkpt>
      <trkpt lat="42.531866" lon="-8.390122">
        <ele>356.526</ele>
        <time>2019-06-22T10:15:01Z</time>
      </trkpt>
      <trkpt lat="42.531834" lon="-8.390071">
        <ele>356.361</ele>
        <time>2019-06-22T10:15:04Z</time>
      </trkpt>
      <trkpt lat="42.531813" lon="-8.390002">
        <ele>356.754</ele>
        <time>2019-06-22T10:17:07Z</time>
      </trkpt>
      <trkpt lat="42.532221" lon="-8.389688">
        <ele>356.897</ele>
        <time>2019-06-22T10:17:10Z</time>
      </trkpt>
      <trkpt lat="42.532194" lon="-8.389741">
        <ele>357.123</ele>
        <time>2019-06-22T10:17:51Z</time>
      </trkpt>
      <trkpt lat="42.532073" lon="-8.389682">
        <ele>361.025</ele>
        <time>2019-06-22T10:45:22Z</time>
      </trkpt>
      <trkpt lat="42.532004" lon="-8.389687">
        <ele>360.308</ele>
        <time>2019-06-22T10:46:54Z</time>
      </trkpt>
      <trkpt lat="42.532068" lon="-8.389690">
        <ele>359.882</ele>
        <time>2019-06-22T10:48:35Z</time>
      </trkpt>
      <trkpt lat="42.532113" lon="-8.389704">
        <ele>359.726</ele>
        <time>2019-06-22T10:51:09Z</time>
      </trkpt>
      <trkpt lat="42.532137" lon="-8.389601">
        <ele>359.778</ele>
        <time>2019-06-22T10:51:18Z</time>
      </trkpt>
      <trkpt lat="42.532186" lon="-8.389437">
        <ele>359.750</ele>
        <time>2019-06-22T10:51:19Z</time>
      </trkpt>
      <trkpt lat="42.532225" lon="-8.389322">
        <ele>359.898</ele>
        <time>2019-06-22T10:51:20Z</time>
      </trkpt>
      <trkpt lat="42.532272" lon="-8.389182">
        <ele>359.937</ele>
        <time>2019-06-22T10:51:21Z</time>
      </trkpt>
      <trkpt lat="42.532321" lon="-8.389035">
        <ele>360.012</ele>
        <time>2019-06-22T10:51:22Z</time>
      </trkpt>
      <trkpt lat="42.532385" lon="-8.388916">
        <ele>360.135</ele>
        <time>2019-06-22T10:51:23Z</time>
      </trkpt>
      <trkpt lat="42.532442" lon="-8.388773">
        <ele>360.438</ele>
        <time>2019-06-22T10:51:24Z</time>
      </trkpt>
      <trkpt lat="42.532495" lon="-8.388626">
        <ele>360.770</ele>
        <time>2019-06-22T10:51:25Z</time>
      </trkpt>
      <trkpt lat="42.532547" lon="-8.388485">
        <ele>361.117</ele>
        <time>2019-06-22T10:51:26Z</time>
      </trkpt>
      <trkpt lat="42.532604" lon="-8.388351">
        <ele>361.708</ele>
        <time>2019-06-22T10:51:27Z</time>
      </trkpt>
      <trkpt lat="42.532668" lon="-8.388222">
        <ele>362.386</ele>
        <time>2019-06-22T10:51:28Z</time>
      </trkpt>
      <trkpt lat="42.532724" lon="-8.388070">
        <ele>362.910</ele>
        <time>2019-06-22T10:51:29Z</time>
      </trkpt>
      <trkpt lat="42.532794" lon="-8.387916">
        <ele>363.722</ele>
        <time>2019-06-22T10:51:30Z</time>
      </trkpt>
      <trkpt lat="42.532867" lon="-8.387760">
        <ele>364.564</ele>
        <time>2019-06-22T10:51:31Z</time>
      </trkpt>
      <trkpt lat="42.532953" lon="-8.387618">
        <ele>365.262</ele>
        <time>2019-06-22T10:51:32Z</time>
      </trkpt>
      <trkpt lat="42.533013" lon="-8.387459">
        <ele>365.771</ele>
        <time>2019-06-22T10:51:33Z</time>
      </trkpt>
      <trkpt lat="42.533070" lon="-8.387313">
        <ele>366.286</ele>
        <time>2019-06-22T10:51:34Z</time>
      </trkpt>
      <trkpt lat="42.533142" lon="-8.387190">
        <ele>366.979</ele>
        <time>2019-06-22T10:51:35Z</time>
      </trkpt>
      <trkpt lat="42.533223" lon="-8.387072">
        <ele>367.881</ele>
        <time>2019-06-22T10:51:36Z</time>
      </trkpt>
      <trkpt lat="42.533298" lon="-8.386961">
        <ele>368.561</ele>
        <time>2019-06-22T10:51:37Z</time>
      </trkpt>
      <trkpt lat="42.533371" lon="-8.386853">
        <ele>369.817</ele>
        <time>2019-06-22T10:51:38Z</time>
      </trkpt>
      <trkpt lat="42.533438" lon="-8.386737">
        <ele>370.808</ele>
        <time>2019-06-22T10:51:39Z</time>
      </trkpt>
      <trkpt lat="42.533484" lon="-8.386633">
        <ele>371.411</ele>
        <time>2019-06-22T10:51:40Z</time>
      </trkpt>
      <trkpt lat="42.533534" lon="-8.386535">
        <ele>372.295</ele>
        <time>2019-06-22T10:51:41Z</time>
      </trkpt>
      <trkpt lat="42.533580" lon="-8.386414">
        <ele>372.257</ele>
        <time>2019-06-22T10:51:42Z</time>
      </trkpt>
      <trkpt lat="42.533621" lon="-8.386281">
        <ele>372.349</ele>
        <time>2019-06-22T10:51:43Z</time>
      </trkpt>
      <trkpt lat="42.533619" lon="-8.386115">
        <ele>372.697</ele>
        <time>2019-06-22T10:51:44Z</time>
      </trkpt>
      <trkpt lat="42.533620" lon="-8.385935">
        <ele>373.116</ele>
        <time>2019-06-22T10:51:45Z</time>
      </trkpt>
      <trkpt lat="42.533619" lon="-8.385753">
        <ele>374.191</ele>
        <time>2019-06-22T10:51:46Z</time>
      </trkpt>
      <trkpt lat="42.533636" lon="-8.385574">
        <ele>374.844</ele>
        <time>2019-06-22T10:51:47Z</time>
      </trkpt>
      <trkpt lat="42.533668" lon="-8.385382">
        <ele>375.987</ele>
        <time>2019-06-22T10:51:48Z</time>
      </trkpt>
      <trkpt lat="42.533725" lon="-8.385180">
        <ele>377.142</ele>
        <time>2019-06-22T10:51:49Z</time>
      </trkpt>
      <trkpt lat="42.533799" lon="-8.384970">
        <ele>378.426</ele>
        <time>2019-06-22T10:51:50Z</time>
      </trkpt>
      <trkpt lat="42.533877" lon="-8.384761">
        <ele>379.408</ele>
        <time>2019-06-22T10:51:51Z</time>
      </trkpt>
      <trkpt lat="42.533958" lon="-8.384546">
        <ele>380.291</ele>
        <time>2019-06-22T10:51:52Z</time>
      </trkpt>
      <trkpt lat="42.534055" lon="-8.384349">
        <ele>380.945</ele>
        <time>2019-06-22T10:51:53Z</time>
      </trkpt>
      <trkpt lat="42.534145" lon="-8.384140">
        <ele>381.787</ele>
        <time>2019-06-22T10:51:54Z</time>
      </trkpt>
      <trkpt lat="42.534234" lon="-8.383930">
        <ele>382.339</ele>
        <time>2019-06-22T10:51:55Z</time>
      </trkpt>
      <trkpt lat="42.534337" lon="-8.383679">
        <ele>382.957</ele>
        <time>2019-06-22T10:51:56Z</time>
      </trkpt>
      <trkpt lat="42.534434" lon="-8.383436">
        <ele>383.476</ele>
        <time>2019-06-22T10:51:57Z</time>
      </trkpt>
      <trkpt lat="42.534522" lon="-8.383191">
        <ele>384.241</ele>
        <time>2019-06-22T10:51:58Z</time>
      </trkpt>
      <trkpt lat="42.534579" lon="-8.382909">
        <ele>385.234</ele>
        <time>2019-06-22T10:51:59Z</time>
      </trkpt>
      <trkpt lat="42.534641" lon="-8.382607">
        <ele>386.255</ele>
        <time>2019-06-22T10:52:00Z</time>
      </trkpt>
      <trkpt lat="42.534734" lon="-8.382325">
        <ele>387.307</ele>
        <time>2019-06-22T10:52:01Z</time>
      </trkpt>
      <trkpt lat="42.534791" lon="-8.382035">
        <ele>388.517</ele>
        <time>2019-06-22T10:52:02Z</time>
      </trkpt>
      <trkpt lat="42.534855" lon="-8.381762">
        <ele>389.808</ele>
        <time>2019-06-22T10:52:03Z</time>
      </trkpt>
      <trkpt lat="42.534922" lon="-8.381488">
        <ele>391.158</ele>
        <time>2019-06-22T10:52:04Z</time>
      </trkpt>
      <trkpt lat="42.535005" lon="-8.381197">
        <ele>392.452</ele>
        <time>2019-06-22T10:52:05Z</time>
      </trkpt>
      <trkpt lat="42.535096" lon="-8.380892">
        <ele>393.724</ele>
        <time>2019-06-22T10:52:06Z</time>
      </trkpt>
      <trkpt lat="42.535202" lon="-8.380608">
        <ele>395.136</ele>
        <time>2019-06-22T10:52:07Z</time>
      </trkpt>
      <trkpt lat="42.535315" lon="-8.380344">
        <ele>396.494</ele>
        <time>2019-06-22T10:52:08Z</time>
      </trkpt>
      <trkpt lat="42.535448" lon="-8.380089">
        <ele>397.483</ele>
        <time>2019-06-22T10:52:09Z</time>
      </trkpt>
      <trkpt lat="42.535589" lon="-8.379846">
        <ele>398.658</ele>
        <time>2019-06-22T10:52:10Z</time>
      </trkpt>
      <trkpt lat="42.535748" lon="-8.379617">
        <ele>399.961</ele>
        <time>2019-06-22T10:52:11Z</time>
      </trkpt>
      <trkpt lat="42.535920" lon="-8.379394">
        <ele>401.159</ele>
        <time>2019-06-22T10:52:12Z</time>
      </trkpt>
      <trkpt lat="42.536091" lon="-8.379169">
        <ele>401.103</ele>
        <time>2019-06-22T10:52:13Z</time>
      </trkpt>
      <trkpt lat="42.536283" lon="-8.378961">
        <ele>402.123</ele>
        <time>2019-06-22T10:52:14Z</time>
      </trkpt>
      <trkpt lat="42.536477" lon="-8.378750">
        <ele>403.208</ele>
        <time>2019-06-22T10:52:15Z</time>
      </trkpt>
      <trkpt lat="42.536670" lon="-8.378543">
        <ele>404.478</ele>
        <time>2019-06-22T10:52:16Z</time>
      </trkpt>
      <trkpt lat="42.536864" lon="-8.378351">
        <ele>405.512</ele>
        <time>2019-06-22T10:52:17Z</time>
      </trkpt>
      <trkpt lat="42.537058" lon="-8.378160">
        <ele>407.024</ele>
        <time>2019-06-22T10:52:18Z</time>
      </trkpt>
      <trkpt lat="42.537242" lon="-8.377953">
        <ele>408.436</ele>
        <time>2019-06-22T10:52:19Z</time>
      </trkpt>
      <trkpt lat="42.537439" lon="-8.377718">
        <ele>409.934</ele>
        <time>2019-06-22T10:52:20Z</time>
      </trkpt>
      <trkpt lat="42.537626" lon="-8.377503">
        <ele>411.243</ele>
        <time>2019-06-22T10:52:21Z</time>
      </trkpt>
      <trkpt lat="42.537796" lon="-8.377280">
        <ele>412.798</ele>
        <time>2019-06-22T10:52:22Z</time>
      </trkpt>
      <trkpt lat="42.537986" lon="-8.377065">
        <ele>413.631</ele>
        <time>2019-06-22T10:52:23Z</time>
      </trkpt>
      <trkpt lat="42.538191" lon="-8.376883">
        <ele>414.979</ele>
        <time>2019-06-22T10:52:24Z</time>
      </trkpt>
      <trkpt lat="42.538384" lon="-8.376683">
        <ele>416.105</ele>
        <time>2019-06-22T10:52:25Z</time>
      </trkpt>
      <trkpt lat="42.538579" lon="-8.376484">
        <ele>417.025</ele>
        <time>2019-06-22T10:52:26Z</time>
      </trkpt>
      <trkpt lat="42.538769" lon="-8.376283">
        <ele>418.708</ele>
        <time>2019-06-22T10:52:27Z</time>
      </trkpt>
      <trkpt lat="42.538939" lon="-8.376059">
        <ele>420.010</ele>
        <time>2019-06-22T10:52:28Z</time>
      </trkpt>
      <trkpt lat="42.539118" lon="-8.375862">
        <ele>420.774</ele>
        <time>2019-06-22T10:52:29Z</time>
      </trkpt>
      <trkpt lat="42.539303" lon="-8.375647">
        <ele>422.216</ele>
        <time>2019-06-22T10:52:30Z</time>
      </trkpt>
      <trkpt lat="42.539477" lon="-8.375420">
        <ele>424.358</ele>
        <time>2019-06-22T10:52:31Z</time>
      </trkpt>
      <trkpt lat="42.539638" lon="-8.375183">
        <ele>425.826</ele>
        <time>2019-06-22T10:52:32Z</time>
      </trkpt>
      <trkpt lat="42.539807" lon="-8.374948">
        <ele>427.595</ele>
        <time>2019-06-22T10:52:33Z</time>
      </trkpt>
      <trkpt lat="42.539953" lon="-8.374700">
        <ele>429.490</ele>
        <time>2019-06-22T10:52:34Z</time>
      </trkpt>
      <trkpt lat="42.540089" lon="-8.374446">
        <ele>431.013</ele>
        <time>2019-06-22T10:52:35Z</time>
      </trkpt>
      <trkpt lat="42.540229" lon="-8.374193">
        <ele>432.284</ele>
        <time>2019-06-22T10:52:36Z</time>
      </trkpt>
      <trkpt lat="42.540355" lon="-8.373924">
        <ele>434.107</ele>
        <time>2019-06-22T10:52:37Z</time>
      </trkpt>
      <trkpt lat="42.540498" lon="-8.373664">
        <ele>435.417</ele>
        <time>2019-06-22T10:52:38Z</time>
      </trkpt>
      <trkpt lat="42.540629" lon="-8.373397">
        <ele>437.208</ele>
        <time>2019-06-22T10:52:39Z</time>
      </trkpt>
      <trkpt lat="42.540725" lon="-8.373102">
        <ele>438.551</ele>
        <time>2019-06-22T10:52:40Z</time>
      </trkpt>
      <trkpt lat="42.540859" lon="-8.372838">
        <ele>440.325</ele>
        <time>2019-06-22T10:52:41Z</time>
      </trkpt>
      <trkpt lat="42.540975" lon="-8.372549">
        <ele>440.957</ele>
        <time>2019-06-22T10:52:42Z</time>
      </trkpt>
      <trkpt lat="42.541070" lon="-8.372234">
        <ele>441.469</ele>
        <time>2019-06-22T10:52:43Z</time>
      </trkpt>
      <trkpt lat="42.541138" lon="-8.371911">
        <ele>441.427</ele>
        <time>2019-06-22T10:52:44Z</time>
      </trkpt>
      <trkpt lat="42.541199" lon="-8.371585">
        <ele>441.416</ele>
        <time>2019-06-22T10:52:45Z</time>
      </trkpt>
      <trkpt lat="42.541231" lon="-8.371269">
        <ele>441.611</ele>
        <time>2019-06-22T10:52:46Z</time>
      </trkpt>
      <trkpt lat="42.541225" lon="-8.370961">
        <ele>441.654</ele>
        <time>2019-06-22T10:52:47Z</time>
      </trkpt>
      <trkpt lat="42.541186" lon="-8.370651">
        <ele>442.369</ele>
        <time>2019-06-22T10:52:48Z</time>
      </trkpt>
      <trkpt lat="42.541135" lon="-8.370353">
        <ele>443.104</ele>
        <time>2019-06-22T10:52:49Z</time>
      </trkpt>
      <trkpt lat="42.541024" lon="-8.370089">
        <ele>444.524</ele>
        <time>2019-06-22T10:52:50Z</time>
      </trkpt>
      <trkpt lat="42.540902" lon="-8.369831">
        <ele>446.008</ele>
        <time>2019-06-22T10:52:51Z</time>
      </trkpt>
      <trkpt lat="42.540779" lon="-8.369579">
        <ele>447.739</ele>
        <time>2019-06-22T10:52:52Z</time>
      </trkpt>
      <trkpt lat="42.540608" lon="-8.369328">
        <ele>449.483</ele>
        <time>2019-06-22T10:52:53Z</time>
      </trkpt>
      <trkpt lat="42.540445" lon="-8.369114">
        <ele>451.595</ele>
        <time>2019-06-22T10:52:54Z</time>
      </trkpt>
      <trkpt lat="42.540285" lon="-8.368904">
        <ele>454.357</ele>
        <time>2019-06-22T10:52:55Z</time>
      </trkpt>
      <trkpt lat="42.540101" lon="-8.368697">
        <ele>457.585</ele>
        <time>2019-06-22T10:52:56Z</time>
      </trkpt>
      <trkpt lat="42.539913" lon="-8.368496">
        <ele>460.284</ele>
        <time>2019-06-22T10:52:57Z</time>
      </trkpt>
      <trkpt lat="42.539720" lon="-8.368316">
        <ele>462.189</ele>
        <time>2019-06-22T10:52:58Z</time>
      </trkpt>
      <trkpt lat="42.539526" lon="-8.368148">
        <ele>463.292</ele>
        <time>2019-06-22T10:52:59Z</time>
      </trkpt>
      <trkpt lat="42.539369" lon="-8.367993">
        <ele>464.024</ele>
        <time>2019-06-22T10:53:00Z</time>
      </trkpt>
      <trkpt lat="42.539204" lon="-8.367829">
        <ele>465.004</ele>
        <time>2019-06-22T10:53:01Z</time>
      </trkpt>
      <trkpt lat="42.539054" lon="-8.367575">
        <ele>466.414</ele>
        <time>2019-06-22T10:53:02Z</time>
      </trkpt>
      <trkpt lat="42.538902" lon="-8.367332">
        <ele>468.408</ele>
        <time>2019-06-22T10:53:03Z</time>
      </trkpt>
      <trkpt lat="42.538765" lon="-8.367095">
        <ele>471.155</ele>
        <time>2019-06-22T10:53:04Z</time>
      </trkpt>
      <trkpt lat="42.538746" lon="-8.366825">
        <ele>473.689</ele>
        <time>2019-06-22T10:53:05Z</time>
      </trkpt>
      <trkpt lat="42.538705" lon="-8.366564">
        <ele>475.381</ele>
        <time>2019-06-22T10:53:06Z</time>
      </trkpt>
      <trkpt lat="42.538676" lon="-8.366304">
        <ele>476.673</ele>
        <time>2019-06-22T10:53:07Z</time>
      </trkpt>
      <trkpt lat="42.538655" lon="-8.366018">
        <ele>477.841</ele>
        <time>2019-06-22T10:53:08Z</time>
      </trkpt>
      <trkpt lat="42.538645" lon="-8.365743">
        <ele>479.280</ele>
        <time>2019-06-22T10:53:09Z</time>
      </trkpt>
      <trkpt lat="42.538661" lon="-8.365459">
        <ele>480.475</ele>
        <time>2019-06-22T10:53:10Z</time>
      </trkpt>
      <trkpt lat="42.538712" lon="-8.365184">
        <ele>481.678</ele>
        <time>2019-06-22T10:53:11Z</time>
      </trkpt>
      <trkpt lat="42.538791" lon="-8.364924">
        <ele>481.612</ele>
        <time>2019-06-22T10:53:12Z</time>
      </trkpt>
      <trkpt lat="42.538905" lon="-8.364670">
        <ele>483.032</ele>
        <time>2019-06-22T10:53:13Z</time>
      </trkpt>
      <trkpt lat="42.539037" lon="-8.364433">
        <ele>484.205</ele>
        <time>2019-06-22T10:53:14Z</time>
      </trkpt>
      <trkpt lat="42.539189" lon="-8.364221">
        <ele>485.308</ele>
        <time>2019-06-22T10:53:15Z</time>
      </trkpt>
      <trkpt lat="42.539355" lon="-8.364007">
        <ele>486.764</ele>
        <time>2019-06-22T10:53:16Z</time>
      </trkpt>
      <trkpt lat="42.539515" lon="-8.363794">
        <ele>487.928</ele>
        <time>2019-06-22T10:53:17Z</time>
      </trkpt>
      <trkpt lat="42.539678" lon="-8.363576">
        <ele>488.740</ele>
        <time>2019-06-22T10:53:18Z</time>
      </trkpt>
      <trkpt lat="42.539839" lon="-8.363354">
        <ele>489.332</ele>
        <time>2019-06-22T10:53:19Z</time>
      </trkpt>
      <trkpt lat="42.540006" lon="-8.363127">
        <ele>489.450</ele>
        <time>2019-06-22T10:53:20Z</time>
      </trkpt>
      <trkpt lat="42.540158" lon="-8.362879">
        <ele>489.519</ele>
        <time>2019-06-22T10:53:21Z</time>
      </trkpt>
      <trkpt lat="42.540320" lon="-8.362641">
        <ele>490.544</ele>
        <time>2019-06-22T10:53:22Z</time>
      </trkpt>
      <trkpt lat="42.540477" lon="-8.362389">
        <ele>491.227</ele>
        <time>2019-06-22T10:53:23Z</time>
      </trkpt>
      <trkpt lat="42.540621" lon="-8.362119">
        <ele>491.926</ele>
        <time>2019-06-22T10:53:24Z</time>
      </trkpt>
      <trkpt lat="42.540762" lon="-8.361849">
        <ele>492.947</ele>
        <time>2019-06-22T10:53:25Z</time>
      </trkpt>
      <trkpt lat="42.540899" lon="-8.361587">
        <ele>492.911</ele>
        <time>2019-06-22T10:53:26Z</time>
      </trkpt>
      <trkpt lat="42.541038" lon="-8.361328">
        <ele>492.908</ele>
        <time>2019-06-22T10:53:27Z</time>
      </trkpt>
      <trkpt lat="42.541137" lon="-8.361065">
        <ele>491.415</ele>
        <time>2019-06-22T10:53:28Z</time>
      </trkpt>
      <trkpt lat="42.541247" lon="-8.360805">
        <ele>489.729</ele>
        <time>2019-06-22T10:53:29Z</time>
      </trkpt>
      <trkpt lat="42.541340" lon="-8.360535">
        <ele>487.611</ele>
        <time>2019-06-22T10:53:30Z</time>
      </trkpt>
      <trkpt lat="42.541408" lon="-8.360251">
        <ele>486.143</ele>
        <time>2019-06-22T10:53:31Z</time>
      </trkpt>
      <trkpt lat="42.541465" lon="-8.359962">
        <ele>485.191</ele>
        <time>2019-06-22T10:53:32Z</time>
      </trkpt>
      <trkpt lat="42.541496" lon="-8.359665">
        <ele>485.130</ele>
        <time>2019-06-22T10:53:33Z</time>
      </trkpt>
      <trkpt lat="42.541527" lon="-8.359360">
        <ele>486.075</ele>
        <time>2019-06-22T10:53:34Z</time>
      </trkpt>
      <trkpt lat="42.541567" lon="-8.359072">
        <ele>487.868</ele>
        <time>2019-06-22T10:53:35Z</time>
      </trkpt>
      <trkpt lat="42.541614" lon="-8.358777">
        <ele>489.759</ele>
        <time>2019-06-22T10:53:36Z</time>
      </trkpt>
      <trkpt lat="42.541687" lon="-8.358479">
        <ele>491.303</ele>
        <time>2019-06-22T10:53:37Z</time>
      </trkpt>
      <trkpt lat="42.541781" lon="-8.358206">
        <ele>493.123</ele>
        <time>2019-06-22T10:53:38Z</time>
      </trkpt>
      <trkpt lat="42.541892" lon="-8.357941">
        <ele>494.508</ele>
        <time>2019-06-22T10:53:39Z</time>
      </trkpt>
      <trkpt lat="42.542019" lon="-8.357664">
        <ele>495.598</ele>
        <time>2019-06-22T10:53:40Z</time>
      </trkpt>
      <trkpt lat="42.542154" lon="-8.357404">
        <ele>496.422</ele>
        <time>2019-06-22T10:53:41Z</time>
      </trkpt>
      <trkpt lat="42.542279" lon="-8.357140">
        <ele>497.894</ele>
        <time>2019-06-22T10:53:42Z</time>
      </trkpt>
      <trkpt lat="42.542410" lon="-8.356877">
        <ele>498.746</ele>
        <time>2019-06-22T10:53:43Z</time>
      </trkpt>
      <trkpt lat="42.542539" lon="-8.356626">
        <ele>500.384</ele>
        <time>2019-06-22T10:53:44Z</time>
      </trkpt>
      <trkpt lat="42.542663" lon="-8.356364">
        <ele>501.623</ele>
        <time>2019-06-22T10:53:45Z</time>
      </trkpt>
      <trkpt lat="42.542795" lon="-8.356102">
        <ele>502.848</ele>
        <time>2019-06-22T10:53:46Z</time>
      </trkpt>
      <trkpt lat="42.542919" lon="-8.355838">
        <ele>503.681</ele>
        <time>2019-06-22T10:53:47Z</time>
      </trkpt>
      <trkpt lat="42.543027" lon="-8.355560">
        <ele>504.077</ele>
        <time>2019-06-22T10:53:48Z</time>
      </trkpt>
      <trkpt lat="42.543118" lon="-8.355279">
        <ele>504.061</ele>
        <time>2019-06-22T10:53:49Z</time>
      </trkpt>
      <trkpt lat="42.543184" lon="-8.354990">
        <ele>504.027</ele>
        <time>2019-06-22T10:53:50Z</time>
      </trkpt>
      <trkpt lat="42.543257" lon="-8.354709">
        <ele>504.708</ele>
        <time>2019-06-22T10:53:51Z</time>
      </trkpt>
      <trkpt lat="42.543305" lon="-8.354408">
        <ele>505.990</ele>
        <time>2019-06-22T10:53:52Z</time>
      </trkpt>
      <trkpt lat="42.543345" lon="-8.354090">
        <ele>507.064</ele>
        <time>2019-06-22T10:53:53Z</time>
      </trkpt>
      <trkpt lat="42.543369" lon="-8.353768">
        <ele>508.256</ele>
        <time>2019-06-22T10:53:54Z</time>
      </trkpt>
      <trkpt lat="42.543379" lon="-8.353462">
        <ele>510.488</ele>
        <time>2019-06-22T10:53:55Z</time>
      </trkpt>
      <trkpt lat="42.543405" lon="-8.353143">
        <ele>512.096</ele>
        <time>2019-06-22T10:53:56Z</time>
      </trkpt>
      <trkpt lat="42.543433" lon="-8.352823">
        <ele>512.745</ele>
        <time>2019-06-22T10:53:57Z</time>
      </trkpt>
      <trkpt lat="42.543452" lon="-8.352507">
        <ele>513.530</ele>
        <time>2019-06-22T10:53:58Z</time>
      </trkpt>
      <trkpt lat="42.543492" lon="-8.352206">
        <ele>514.363</ele>
        <time>2019-06-22T10:53:59Z</time>
      </trkpt>
      <trkpt lat="42.543524" lon="-8.351904">
        <ele>514.779</ele>
        <time>2019-06-22T10:54:00Z</time>
      </trkpt>
      <trkpt lat="42.543563" lon="-8.351611">
        <ele>514.705</ele>
        <time>2019-06-22T10:54:01Z</time>
      </trkpt>
      <trkpt lat="42.543598" lon="-8.351343">
        <ele>514.725</ele>
        <time>2019-06-22T10:54:02Z</time>
      </trkpt>
      <trkpt lat="42.543634" lon="-8.351092">
        <ele>515.108</ele>
        <time>2019-06-22T10:54:03Z</time>
      </trkpt>
      <trkpt lat="42.543659" lon="-8.350850">
        <ele>516.380</ele>
        <time>2019-06-22T10:54:04Z</time>
      </trkpt>
      <trkpt lat="42.543677" lon="-8.350605">
        <ele>517.344</ele>
        <time>2019-06-22T10:54:05Z</time>
      </trkpt>
      <trkpt lat="42.543667" lon="-8.350358">
        <ele>519.276</ele>
        <time>2019-06-22T10:54:06Z</time>
      </trkpt>
      <trkpt lat="42.543652" lon="-8.350103">
        <ele>521.688</ele>
        <time>2019-06-22T10:54:07Z</time>
      </trkpt>
      <trkpt lat="42.543617" lon="-8.349841">
        <ele>523.496</ele>
        <time>2019-06-22T10:54:08Z</time>
      </trkpt>
      <trkpt lat="42.543567" lon="-8.349570">
        <ele>524.685</ele>
        <time>2019-06-22T10:54:09Z</time>
      </trkpt>
      <trkpt lat="42.543513" lon="-8.349279">
        <ele>524.640</ele>
        <time>2019-06-22T10:54:10Z</time>
      </trkpt>
      <trkpt lat="42.543440" lon="-8.348992">
        <ele>524.333</ele>
        <time>2019-06-22T10:54:11Z</time>
      </trkpt>
      <trkpt lat="42.543353" lon="-8.348702">
        <ele>523.561</ele>
        <time>2019-06-22T10:54:12Z</time>
      </trkpt>
      <trkpt lat="42.543274" lon="-8.348412">
        <ele>523.521</ele>
        <time>2019-06-22T10:54:13Z</time>
      </trkpt>
      <trkpt lat="42.543206" lon="-8.348118">
        <ele>523.513</ele>
        <time>2019-06-22T10:54:14Z</time>
      </trkpt>
      <trkpt lat="42.543135" lon="-8.347814">
        <ele>523.808</ele>
        <time>2019-06-22T10:54:15Z</time>
      </trkpt>
      <trkpt lat="42.543080" lon="-8.347505">
        <ele>525.179</ele>
        <time>2019-06-22T10:54:16Z</time>
      </trkpt>
      <trkpt lat="42.543040" lon="-8.347197">
        <ele>526.293</ele>
        <time>2019-06-22T10:54:17Z</time>
      </trkpt>
      <trkpt lat="42.542994" lon="-8.346890">
        <ele>527.395</ele>
        <time>2019-06-22T10:54:18Z</time>
      </trkpt>
      <trkpt lat="42.542966" lon="-8.346581">
        <ele>527.887</ele>
        <time>2019-06-22T10:54:19Z</time>
      </trkpt>
      <trkpt lat="42.542944" lon="-8.346279">
        <ele>528.445</ele>
        <time>2019-06-22T10:54:20Z</time>
      </trkpt>
      <trkpt lat="42.542908" lon="-8.345981">
        <ele>529.524</ele>
        <time>2019-06-22T10:54:21Z</time>
      </trkpt>
      <trkpt lat="42.542888" lon="-8.345684">
        <ele>530.439</ele>
        <time>2019-06-22T10:54:22Z</time>
      </trkpt>
      <trkpt lat="42.542863" lon="-8.345404">
        <ele>531.722</ele>
        <time>2019-06-22T10:54:23Z</time>
      </trkpt>
      <trkpt lat="42.542837" lon="-8.345134">
        <ele>533.241</ele>
        <time>2019-06-22T10:54:24Z</time>
      </trkpt>
      <trkpt lat="42.542815" lon="-8.344850">
        <ele>534.881</ele>
        <time>2019-06-22T10:54:25Z</time>
      </trkpt>
      <trkpt lat="42.542794" lon="-8.344583">
        <ele>536.209</ele>
        <time>2019-06-22T10:54:26Z</time>
      </trkpt>
      <trkpt lat="42.542777" lon="-8.344317">
        <ele>537.608</ele>
        <time>2019-06-22T10:54:27Z</time>
      </trkpt>
      <trkpt lat="42.542775" lon="-8.344060">
        <ele>538.887</ele>
        <time>2019-06-22T10:54:28Z</time>
      </trkpt>
      <trkpt lat="42.542799" lon="-8.343823">
        <ele>540.681</ele>
        <time>2019-06-22T10:54:29Z</time>
      </trkpt>
      <trkpt lat="42.542854" lon="-8.343594">
        <ele>541.993</ele>
        <time>2019-06-22T10:54:30Z</time>
      </trkpt>
      <trkpt lat="42.542902" lon="-8.343373">
        <ele>543.385</ele>
        <time>2019-06-22T10:54:31Z</time>
      </trkpt>
      <trkpt lat="42.542951" lon="-8.343150">
        <ele>544.423</ele>
        <time>2019-06-22T10:54:32Z</time>
      </trkpt>
      <trkpt lat="42.542991" lon="-8.342923">
        <ele>544.472</ele>
        <time>2019-06-22T10:54:33Z</time>
      </trkpt>
      <trkpt lat="42.543005" lon="-8.342694">
        <ele>544.217</ele>
        <time>2019-06-22T10:54:34Z</time>
      </trkpt>
      <trkpt lat="42.543015" lon="-8.342458">
        <ele>543.120</ele>
        <time>2019-06-22T10:54:35Z</time>
      </trkpt>
      <trkpt lat="42.543018" lon="-8.342212">
        <ele>542.276</ele>
        <time>2019-06-22T10:54:36Z</time>
      </trkpt>
      <trkpt lat="42.542994" lon="-8.341976">
        <ele>541.890</ele>
        <time>2019-06-22T10:54:37Z</time>
      </trkpt>
      <trkpt lat="42.542952" lon="-8.341755">
        <ele>541.819</ele>
        <time>2019-06-22T10:54:38Z</time>
      </trkpt>
      <trkpt lat="42.542884" lon="-8.341526">
        <ele>542.508</ele>
        <time>2019-06-22T10:54:39Z</time>
      </trkpt>
      <trkpt lat="42.542810" lon="-8.341319">
        <ele>543.090</ele>
        <time>2019-06-22T10:54:40Z</time>
      </trkpt>
      <trkpt lat="42.542713" lon="-8.341127">
        <ele>543.734</ele>
        <time>2019-06-22T10:54:41Z</time>
      </trkpt>
      <trkpt lat="42.542613" lon="-8.340947">
        <ele>544.126</ele>
        <time>2019-06-22T10:54:42Z</time>
      </trkpt>
      <trkpt lat="42.542497" lon="-8.340803">
        <ele>544.718</ele>
        <time>2019-06-22T10:54:43Z</time>
      </trkpt>
      <trkpt lat="42.542364" lon="-8.340660">
        <ele>545.376</ele>
        <time>2019-06-22T10:54:44Z</time>
      </trkpt>
      <trkpt lat="42.542226" lon="-8.340537">
        <ele>546.245</ele>
        <time>2019-06-22T10:54:45Z</time>
      </trkpt>
      <trkpt lat="42.542084" lon="-8.340416">
        <ele>546.860</ele>
        <time>2019-06-22T10:54:46Z</time>
      </trkpt>
      <trkpt lat="42.541926" lon="-8.340314">
        <ele>548.293</ele>
        <time>2019-06-22T10:54:47Z</time>
      </trkpt>
      <trkpt lat="42.541764" lon="-8.340212">
        <ele>548.782</ele>
        <time>2019-06-22T10:54:48Z</time>
      </trkpt>
      <trkpt lat="42.541606" lon="-8.340101">
        <ele>549.843</ele>
        <time>2019-06-22T10:54:49Z</time>
      </trkpt>
      <trkpt lat="42.541449" lon="-8.339986">
        <ele>550.717</ele>
        <time>2019-06-22T10:54:50Z</time>
      </trkpt>
      <trkpt lat="42.541289" lon="-8.339830">
        <ele>551.408</ele>
        <time>2019-06-22T10:54:51Z</time>
      </trkpt>
      <trkpt lat="42.541144" lon="-8.339669">
        <ele>552.121</ele>
        <time>2019-06-22T10:54:52Z</time>
      </trkpt>
      <trkpt lat="42.540996" lon="-8.339464">
        <ele>552.915</ele>
        <time>2019-06-22T10:54:53Z</time>
      </trkpt>
      <trkpt lat="42.540839" lon="-8.339251">
        <ele>553.557</ele>
        <time>2019-06-22T10:54:54Z</time>
      </trkpt>
      <trkpt lat="42.540697" lon="-8.339030">
        <ele>553.729</ele>
        <time>2019-06-22T10:54:55Z</time>
      </trkpt>
      <trkpt lat="42.540541" lon="-8.338791">
        <ele>554.047</ele>
        <time>2019-06-22T10:54:56Z</time>
      </trkpt>
      <trkpt lat="42.540390" lon="-8.338555">
        <ele>554.566</ele>
        <time>2019-06-22T10:54:57Z</time>
      </trkpt>
      <trkpt lat="42.540240" lon="-8.338318">
        <ele>554.791</ele>
        <time>2019-06-22T10:54:58Z</time>
      </trkpt>
      <trkpt lat="42.540099" lon="-8.338101">
        <ele>554.774</ele>
        <time>2019-06-22T10:54:59Z</time>
      </trkpt>
      <trkpt lat="42.539953" lon="-8.337870">
        <ele>554.765</ele>
        <time>2019-06-22T10:55:00Z</time>
      </trkpt>
      <trkpt lat="42.539791" lon="-8.337645">
        <ele>554.368</ele>
        <time>2019-06-22T10:55:01Z</time>
      </trkpt>
      <trkpt lat="42.539636" lon="-8.337424">
        <ele>554.114</ele>
        <time>2019-06-22T10:55:02Z</time>
      </trkpt>
      <trkpt lat="42.539505" lon="-8.337194">
        <ele>554.108</ele>
        <time>2019-06-22T10:55:03Z</time>
      </trkpt>
      <trkpt lat="42.539391" lon="-8.336953">
        <ele>554.919</ele>
        <time>2019-06-22T10:55:04Z</time>
      </trkpt>
      <trkpt lat="42.539303" lon="-8.336708">
        <ele>557.043</ele>
        <time>2019-06-22T10:55:05Z</time>
      </trkpt>
      <trkpt lat="42.539237" lon="-8.336436">
        <ele>558.475</ele>
        <time>2019-06-22T10:55:06Z</time>
      </trkpt>
      <trkpt lat="42.539190" lon="-8.336155">
        <ele>560.387</ele>
        <time>2019-06-22T10:55:07Z</time>
      </trkpt>
      <trkpt lat="42.539168" lon="-8.335874">
        <ele>562.545</ele>
        <time>2019-06-22T10:55:08Z</time>
      </trkpt>
      <trkpt lat="42.539177" lon="-8.335587">
        <ele>563.024</ele>
        <time>2019-06-22T10:55:09Z</time>
      </trkpt>
      <trkpt lat="42.539211" lon="-8.335310">
        <ele>563.189</ele>
        <time>2019-06-22T10:55:10Z</time>
      </trkpt>
      <trkpt lat="42.539278" lon="-8.335052">
        <ele>563.722</ele>
        <time>2019-06-22T10:55:11Z</time>
      </trkpt>
      <trkpt lat="42.539373" lon="-8.334801">
        <ele>564.293</ele>
        <time>2019-06-22T10:55:12Z</time>
      </trkpt>
      <trkpt lat="42.539478" lon="-8.334557">
        <ele>564.265</ele>
        <time>2019-06-22T10:55:13Z</time>
      </trkpt>
      <trkpt lat="42.539595" lon="-8.334328">
        <ele>564.521</ele>
        <time>2019-06-22T10:55:14Z</time>
      </trkpt>
      <trkpt lat="42.539745" lon="-8.334132">
        <ele>564.708</ele>
        <time>2019-06-22T10:55:15Z</time>
      </trkpt>
      <trkpt lat="42.539987" lon="-8.333924">
        <ele>564.712</ele>
        <time>2019-06-22T10:55:16Z</time>
      </trkpt>
      <trkpt lat="42.540183" lon="-8.333766">
        <ele>564.456</ele>
        <time>2019-06-22T10:55:17Z</time>
      </trkpt>
      <trkpt lat="42.540385" lon="-8.333588">
        <ele>563.628</ele>
        <time>2019-06-22T10:55:18Z</time>
      </trkpt>
      <trkpt lat="42.540578" lon="-8.333407">
        <ele>562.210</ele>
        <time>2019-06-22T10:55:19Z</time>
      </trkpt>
      <trkpt lat="42.540773" lon="-8.333217">
        <ele>559.368</ele>
        <time>2019-06-22T10:55:20Z</time>
      </trkpt>
      <trkpt lat="42.540937" lon="-8.333000">
        <ele>556.337</ele>
        <time>2019-06-22T10:55:21Z</time>
      </trkpt>
      <trkpt lat="42.541086" lon="-8.332754">
        <ele>552.432</ele>
        <time>2019-06-22T10:55:22Z</time>
      </trkpt>
      <trkpt lat="42.541217" lon="-8.332497">
        <ele>549.325</ele>
        <time>2019-06-22T10:55:23Z</time>
      </trkpt>
      <trkpt lat="42.541334" lon="-8.332251">
        <ele>547.695</ele>
        <time>2019-06-22T10:55:24Z</time>
      </trkpt>
      <trkpt lat="42.541411" lon="-8.331962">
        <ele>546.549</ele>
        <time>2019-06-22T10:55:25Z</time>
      </trkpt>
      <trkpt lat="42.541487" lon="-8.331659">
        <ele>546.523</ele>
        <time>2019-06-22T10:55:26Z</time>
      </trkpt>
      <trkpt lat="42.541550" lon="-8.331347">
        <ele>548.708</ele>
        <time>2019-06-22T10:55:27Z</time>
      </trkpt>
      <trkpt lat="42.541579" lon="-8.331030">
        <ele>549.942</ele>
        <time>2019-06-22T10:55:28Z</time>
      </trkpt>
      <trkpt lat="42.541581" lon="-8.330713">
        <ele>549.916</ele>
        <time>2019-06-22T10:55:29Z</time>
      </trkpt>
      <trkpt lat="42.541570" lon="-8.330380">
        <ele>548.858</ele>
        <time>2019-06-22T10:55:30Z</time>
      </trkpt>
      <trkpt lat="42.541535" lon="-8.330078">
        <ele>548.320</ele>
        <time>2019-06-22T10:55:31Z</time>
      </trkpt>
      <trkpt lat="42.541473" lon="-8.329785">
        <ele>545.888</ele>
        <time>2019-06-22T10:55:32Z</time>
      </trkpt>
      <trkpt lat="42.541383" lon="-8.329496">
        <ele>542.947</ele>
        <time>2019-06-22T10:55:33Z</time>
      </trkpt>
      <trkpt lat="42.541286" lon="-8.329223">
        <ele>542.952</ele>
        <time>2019-06-22T10:55:34Z</time>
      </trkpt>
      <trkpt lat="42.541174" lon="-8.328965">
        <ele>543.535</ele>
        <time>2019-06-22T10:55:35Z</time>
      </trkpt>
      <trkpt lat="42.541038" lon="-8.328695">
        <ele>543.958</ele>
        <time>2019-06-22T10:55:36Z</time>
      </trkpt>
      <trkpt lat="42.540888" lon="-8.328452">
        <ele>545.552</ele>
        <time>2019-06-22T10:55:37Z</time>
      </trkpt>
      <trkpt lat="42.540738" lon="-8.328226">
        <ele>545.517</ele>
        <time>2019-06-22T10:55:38Z</time>
      </trkpt>
      <trkpt lat="42.540555" lon="-8.328046">
        <ele>545.508</ele>
        <time>2019-06-22T10:55:39Z</time>
      </trkpt>
      <trkpt lat="42.540375" lon="-8.327872">
        <ele>545.088</ele>
        <time>2019-06-22T10:55:40Z</time>
      </trkpt>
      <trkpt lat="42.540190" lon="-8.327685">
        <ele>544.262</ele>
        <time>2019-06-22T10:55:41Z</time>
      </trkpt>
      <trkpt lat="42.540006" lon="-8.327490">
        <ele>543.254</ele>
        <time>2019-06-22T10:55:42Z</time>
      </trkpt>
      <trkpt lat="42.539825" lon="-8.327291">
        <ele>543.216</ele>
        <time>2019-06-22T10:55:43Z</time>
      </trkpt>
      <trkpt lat="42.539661" lon="-8.327036">
        <ele>545.924</ele>
        <time>2019-06-22T10:55:44Z</time>
      </trkpt>
      <trkpt lat="42.539494" lon="-8.326787">
        <ele>548.283</ele>
        <time>2019-06-22T10:55:45Z</time>
      </trkpt>
      <trkpt lat="42.539335" lon="-8.326517">
        <ele>549.898</ele>
        <time>2019-06-22T10:55:46Z</time>
      </trkpt>
      <trkpt lat="42.539193" lon="-8.326248">
        <ele>551.471</ele>
        <time>2019-06-22T10:55:47Z</time>
      </trkpt>
      <trkpt lat="42.539049" lon="-8.325986">
        <ele>553.322</ele>
        <time>2019-06-22T10:55:48Z</time>
      </trkpt>
      <trkpt lat="42.538912" lon="-8.325740">
        <ele>553.362</ele>
        <time>2019-06-22T10:55:49Z</time>
      </trkpt>
      <trkpt lat="42.538778" lon="-8.325484">
        <ele>552.908</ele>
        <time>2019-06-22T10:55:50Z</time>
      </trkpt>
      <trkpt lat="42.538653" lon="-8.325235">
        <ele>551.708</ele>
        <time>2019-06-22T10:55:51Z</time>
      </trkpt>
      <trkpt lat="42.538522" lon="-8.324981">
        <ele>551.455</ele>
        <time>2019-06-22T10:55:52Z</time>
      </trkpt>
      <trkpt lat="42.538389" lon="-8.324732">
        <ele>551.479</ele>
        <time>2019-06-22T10:55:53Z</time>
      </trkpt>
      <trkpt lat="42.538260" lon="-8.324493">
        <ele>553.571</ele>
        <time>2019-06-22T10:55:54Z</time>
      </trkpt>
      <trkpt lat="42.538133" lon="-8.324268">
        <ele>554.373</ele>
        <time>2019-06-22T10:55:55Z</time>
      </trkpt>
      <trkpt lat="42.538016" lon="-8.324041">
        <ele>555.291</ele>
        <time>2019-06-22T10:55:56Z</time>
      </trkpt>
      <trkpt lat="42.537901" lon="-8.323816">
        <ele>555.490</ele>
        <time>2019-06-22T10:55:57Z</time>
      </trkpt>
      <trkpt lat="42.537804" lon="-8.323567">
        <ele>555.415</ele>
        <time>2019-06-22T10:55:58Z</time>
      </trkpt>
      <trkpt lat="42.537718" lon="-8.323300">
        <ele>555.538</ele>
        <time>2019-06-22T10:55:59Z</time>
      </trkpt>
      <trkpt lat="42.537650" lon="-8.323009">
        <ele>555.513</ele>
        <time>2019-06-22T10:56:00Z</time>
      </trkpt>
      <trkpt lat="42.537593" lon="-8.322731">
        <ele>556.443</ele>
        <time>2019-06-22T10:56:01Z</time>
      </trkpt>
      <trkpt lat="42.537561" lon="-8.322426">
        <ele>558.207</ele>
        <time>2019-06-22T10:56:02Z</time>
      </trkpt>
      <trkpt lat="42.537548" lon="-8.322114">
        <ele>558.608</ele>
        <time>2019-06-22T10:56:03Z</time>
      </trkpt>
      <trkpt lat="42.537549" lon="-8.321792">
        <ele>559.324</ele>
        <time>2019-06-22T10:56:04Z</time>
      </trkpt>
      <trkpt lat="42.537557" lon="-8.321452">
        <ele>559.668</ele>
        <time>2019-06-22T10:56:05Z</time>
      </trkpt>
      <trkpt lat="42.537581" lon="-8.321104">
        <ele>559.770</ele>
        <time>2019-06-22T10:56:06Z</time>
      </trkpt>
      <trkpt lat="42.537609" lon="-8.320759">
        <ele>559.732</ele>
        <time>2019-06-22T10:56:07Z</time>
      </trkpt>
      <trkpt lat="42.537624" lon="-8.320419">
        <ele>558.450</ele>
        <time>2019-06-22T10:56:08Z</time>
      </trkpt>
      <trkpt lat="42.537650" lon="-8.320080">
        <ele>557.449</ele>
        <time>2019-06-22T10:56:09Z</time>
      </trkpt>
      <trkpt lat="42.537671" lon="-8.319739">
        <ele>557.274</ele>
        <time>2019-06-22T10:56:10Z</time>
      </trkpt>
      <trkpt lat="42.537700" lon="-8.319400">
        <ele>556.687</ele>
        <time>2019-06-22T10:56:11Z</time>
      </trkpt>
      <trkpt lat="42.537741" lon="-8.319072">
        <ele>556.663</ele>
        <time>2019-06-22T10:56:12Z</time>
      </trkpt>
      <trkpt lat="42.537788" lon="-8.318754">
        <ele>557.144</ele>
        <time>2019-06-22T10:56:13Z</time>
      </trkpt>
      <trkpt lat="42.537838" lon="-8.318443">
        <ele>557.118</ele>
        <time>2019-06-22T10:56:14Z</time>
      </trkpt>
      <trkpt lat="42.537902" lon="-8.318125">
        <ele>559.108</ele>
        <time>2019-06-22T10:56:15Z</time>
      </trkpt>
      <trkpt lat="42.537998" lon="-8.317820">
        <ele>560.769</ele>
        <time>2019-06-22T10:56:16Z</time>
      </trkpt>
      <trkpt lat="42.538108" lon="-8.317530">
        <ele>562.823</ele>
        <time>2019-06-22T10:56:17Z</time>
      </trkpt>
      <trkpt lat="42.538238" lon="-8.317248">
        <ele>565.365</ele>
        <time>2019-06-22T10:56:18Z</time>
      </trkpt>
      <trkpt lat="42.538388" lon="-8.316990">
        <ele>567.017</ele>
        <time>2019-06-22T10:56:19Z</time>
      </trkpt>
      <trkpt lat="42.538549" lon="-8.316731">
        <ele>567.945</ele>
        <time>2019-06-22T10:56:20Z</time>
      </trkpt>
      <trkpt lat="42.538706" lon="-8.316484">
        <ele>568.874</ele>
        <time>2019-06-22T10:56:21Z</time>
      </trkpt>
      <trkpt lat="42.538857" lon="-8.316236">
        <ele>569.739</ele>
        <time>2019-06-22T10:56:22Z</time>
      </trkpt>
      <trkpt lat="42.539019" lon="-8.315982">
        <ele>570.742</ele>
        <time>2019-06-22T10:56:23Z</time>
      </trkpt>
      <trkpt lat="42.539181" lon="-8.315722">
        <ele>571.645</ele>
        <time>2019-06-22T10:56:24Z</time>
      </trkpt>
      <trkpt lat="42.539346" lon="-8.315463">
        <ele>572.547</ele>
        <time>2019-06-22T10:56:25Z</time>
      </trkpt>
      <trkpt lat="42.539504" lon="-8.315205">
        <ele>573.311</ele>
        <time>2019-06-22T10:56:26Z</time>
      </trkpt>
      <trkpt lat="42.539664" lon="-8.314950">
        <ele>573.508</ele>
        <time>2019-06-22T10:56:27Z</time>
      </trkpt>
      <trkpt lat="42.539818" lon="-8.314696">
        <ele>574.487</ele>
        <time>2019-06-22T10:56:28Z</time>
      </trkpt>
      <trkpt lat="42.539986" lon="-8.314439">
        <ele>575.721</ele>
        <time>2019-06-22T10:56:29Z</time>
      </trkpt>
      <trkpt lat="42.540150" lon="-8.314192">
        <ele>576.783</ele>
        <time>2019-06-22T10:56:30Z</time>
      </trkpt>
      <trkpt lat="42.540298" lon="-8.313951">
        <ele>577.755</ele>
        <time>2019-06-22T10:56:31Z</time>
      </trkpt>
      <trkpt lat="42.540433" lon="-8.313722">
        <ele>578.453</ele>
        <time>2019-06-22T10:56:32Z</time>
      </trkpt>
      <trkpt lat="42.540556" lon="-8.313490">
        <ele>578.772</ele>
        <time>2019-06-22T10:56:33Z</time>
      </trkpt>
      <trkpt lat="42.540649" lon="-8.313241">
        <ele>578.787</ele>
        <time>2019-06-22T10:56:34Z</time>
      </trkpt>
      <trkpt lat="42.540726" lon="-8.312964">
        <ele>579.780</ele>
        <time>2019-06-22T10:56:35Z</time>
      </trkpt>
      <trkpt lat="42.540764" lon="-8.312683">
        <ele>580.561</ele>
        <time>2019-06-22T10:56:36Z</time>
      </trkpt>
      <trkpt lat="42.540779" lon="-8.312398">
        <ele>581.721</ele>
        <time>2019-06-22T10:56:37Z</time>
      </trkpt>
      <trkpt lat="42.540766" lon="-8.312103">
        <ele>583.713</ele>
        <time>2019-06-22T10:56:38Z</time>
      </trkpt>
      <trkpt lat="42.540743" lon="-8.311819">
        <ele>585.808</ele>
        <time>2019-06-22T10:56:39Z</time>
      </trkpt>
      <trkpt lat="42.540667" lon="-8.311532">
        <ele>587.499</ele>
        <time>2019-06-22T10:56:40Z</time>
      </trkpt>
      <trkpt lat="42.540583" lon="-8.311263">
        <ele>589.453</ele>
        <time>2019-06-22T10:56:41Z</time>
      </trkpt>
      <trkpt lat="42.540459" lon="-8.311040">
        <ele>592.175</ele>
        <time>2019-06-22T10:56:42Z</time>
      </trkpt>
      <trkpt lat="42.540319" lon="-8.310835">
        <ele>594.377</ele>
        <time>2019-06-22T10:56:43Z</time>
      </trkpt>
      <trkpt lat="42.540169" lon="-8.310636">
        <ele>596.415</ele>
        <time>2019-06-22T10:56:44Z</time>
      </trkpt>
      <trkpt lat="42.540005" lon="-8.310458">
        <ele>598.474</ele>
        <time>2019-06-22T10:56:45Z</time>
      </trkpt>
      <trkpt lat="42.539847" lon="-8.310284">
        <ele>601.349</ele>
        <time>2019-06-22T10:56:46Z</time>
      </trkpt>
      <trkpt lat="42.539691" lon="-8.310119">
        <ele>601.362</ele>
        <time>2019-06-22T10:56:47Z</time>
      </trkpt>
      <trkpt lat="42.539528" lon="-8.309946">
        <ele>601.343</ele>
        <time>2019-06-22T10:56:48Z</time>
      </trkpt>
      <trkpt lat="42.539378" lon="-8.309771">
        <ele>602.564</ele>
        <time>2019-06-22T10:56:49Z</time>
      </trkpt>
      <trkpt lat="42.539231" lon="-8.309603">
        <ele>603.010</ele>
        <time>2019-06-22T10:56:50Z</time>
      </trkpt>
      <trkpt lat="42.539085" lon="-8.309433">
        <ele>604.508</ele>
        <time>2019-06-22T10:56:51Z</time>
      </trkpt>
      <trkpt lat="42.538934" lon="-8.309272">
        <ele>605.797</ele>
        <time>2019-06-22T10:56:52Z</time>
      </trkpt>
      <trkpt lat="42.538786" lon="-8.309107">
        <ele>606.481</ele>
        <time>2019-06-22T10:56:53Z</time>
      </trkpt>
      <trkpt lat="42.538662" lon="-8.308969">
        <ele>607.423</ele>
        <time>2019-06-22T10:56:54Z</time>
      </trkpt>
      <trkpt lat="42.538529" lon="-8.308828">
        <ele>608.735</ele>
        <time>2019-06-22T10:56:55Z</time>
      </trkpt>
      <trkpt lat="42.538379" lon="-8.308729">
        <ele>610.063</ele>
        <time>2019-06-22T10:56:56Z</time>
      </trkpt>
      <trkpt lat="42.538236" lon="-8.308618">
        <ele>611.472</ele>
        <time>2019-06-22T10:56:57Z</time>
      </trkpt>
      <trkpt lat="42.538094" lon="-8.308509">
        <ele>613.337</ele>
        <time>2019-06-22T10:56:58Z</time>
      </trkpt>
      <trkpt lat="42.537978" lon="-8.308407">
        <ele>614.950</ele>
        <time>2019-06-22T10:56:59Z</time>
      </trkpt>
      <trkpt lat="42.537838" lon="-8.308314">
        <ele>616.678</ele>
        <time>2019-06-22T10:57:00Z</time>
      </trkpt>
      <trkpt lat="42.537702" lon="-8.308220">
        <ele>617.833</ele>
        <time>2019-06-22T10:57:01Z</time>
      </trkpt>
      <trkpt lat="42.537572" lon="-8.308128">
        <ele>618.726</ele>
        <time>2019-06-22T10:57:02Z</time>
      </trkpt>
      <trkpt lat="42.537450" lon="-8.308052">
        <ele>619.708</ele>
        <time>2019-06-22T10:57:03Z</time>
      </trkpt>
      <trkpt lat="42.537327" lon="-8.307975">
        <ele>620.510</ele>
        <time>2019-06-22T10:57:04Z</time>
      </trkpt>
      <trkpt lat="42.537220" lon="-8.307885">
        <ele>621.154</ele>
        <time>2019-06-22T10:57:05Z</time>
      </trkpt>
      <trkpt lat="42.537130" lon="-8.307835">
        <ele>621.726</ele>
        <time>2019-06-22T10:57:06Z</time>
      </trkpt>
      <trkpt lat="42.537032" lon="-8.307768">
        <ele>622.338</ele>
        <time>2019-06-22T10:57:07Z</time>
      </trkpt>
      <trkpt lat="42.536965" lon="-8.307701">
        <ele>623.056</ele>
        <time>2019-06-22T10:57:08Z</time>
      </trkpt>
      <trkpt lat="42.536878" lon="-8.307602">
        <ele>623.955</ele>
        <time>2019-06-22T10:57:09Z</time>
      </trkpt>
      <trkpt lat="42.536796" lon="-8.307491">
        <ele>624.670</ele>
        <time>2019-06-22T10:57:10Z</time>
      </trkpt>
      <trkpt lat="42.536730" lon="-8.307366">
        <ele>625.553</ele>
        <time>2019-06-22T10:57:11Z</time>
      </trkpt>
      <trkpt lat="42.536665" lon="-8.307230">
        <ele>626.441</ele>
        <time>2019-06-22T10:57:12Z</time>
      </trkpt>
      <trkpt lat="42.536620" lon="-8.307092">
        <ele>627.081</ele>
        <time>2019-06-22T10:57:13Z</time>
      </trkpt>
      <trkpt lat="42.536576" lon="-8.306952">
        <ele>627.509</ele>
        <time>2019-06-22T10:57:14Z</time>
      </trkpt>
      <trkpt lat="42.536558" lon="-8.306818">
        <ele>627.908</ele>
        <time>2019-06-22T10:57:15Z</time>
      </trkpt>
      <trkpt lat="42.536543" lon="-8.306714">
        <ele>627.957</ele>
        <time>2019-06-22T10:57:16Z</time>
      </trkpt>
      <trkpt lat="42.536548" lon="-8.306575">
        <ele>628.581</ele>
        <time>2019-06-22T10:57:17Z</time>
      </trkpt>
      <trkpt lat="42.536556" lon="-8.306428">
        <ele>629.173</ele>
        <time>2019-06-22T10:57:18Z</time>
      </trkpt>
      <trkpt lat="42.536571" lon="-8.306280">
        <ele>629.635</ele>
        <time>2019-06-22T10:57:19Z</time>
      </trkpt>
      <trkpt lat="42.536586" lon="-8.306135">
        <ele>630.273</ele>
        <time>2019-06-22T10:57:20Z</time>
      </trkpt>
      <trkpt lat="42.536598" lon="-8.305985">
        <ele>630.912</ele>
        <time>2019-06-22T10:57:21Z</time>
      </trkpt>
      <trkpt lat="42.536600" lon="-8.305829">
        <ele>631.537</ele>
        <time>2019-06-22T10:57:22Z</time>
      </trkpt>
      <trkpt lat="42.536610" lon="-8.305678">
        <ele>632.690</ele>
        <time>2019-06-22T10:57:23Z</time>
      </trkpt>
      <trkpt lat="42.536617" lon="-8.305537">
        <ele>632.659</ele>
        <time>2019-06-22T10:57:24Z</time>
      </trkpt>
      <trkpt lat="42.536615" lon="-8.305390">
        <ele>633.403</ele>
        <time>2019-06-22T10:57:25Z</time>
      </trkpt>
      <trkpt lat="42.536621" lon="-8.305253">
        <ele>634.223</ele>
        <time>2019-06-22T10:57:26Z</time>
      </trkpt>
      <trkpt lat="42.536632" lon="-8.305123">
        <ele>634.908</ele>
        <time>2019-06-22T10:57:27Z</time>
      </trkpt>
      <trkpt lat="42.536642" lon="-8.304977">
        <ele>635.568</ele>
        <time>2019-06-22T10:57:28Z</time>
      </trkpt>
      <trkpt lat="42.536629" lon="-8.304817">
        <ele>635.932</ele>
        <time>2019-06-22T10:57:29Z</time>
      </trkpt>
      <trkpt lat="42.536623" lon="-8.304655">
        <ele>636.134</ele>
        <time>2019-06-22T10:57:30Z</time>
      </trkpt>
      <trkpt lat="42.536627" lon="-8.304489">
        <ele>636.276</ele>
        <time>2019-06-22T10:57:31Z</time>
      </trkpt>
      <trkpt lat="42.536625" lon="-8.304335">
        <ele>636.244</ele>
        <time>2019-06-22T10:57:32Z</time>
      </trkpt>
      <trkpt lat="42.536608" lon="-8.304180">
        <ele>636.163</ele>
        <time>2019-06-22T10:57:33Z</time>
      </trkpt>
      <trkpt lat="42.536590" lon="-8.304032">
        <ele>636.118</ele>
        <time>2019-06-22T10:57:34Z</time>
      </trkpt>
      <trkpt lat="42.536574" lon="-8.303887">
        <ele>636.141</ele>
        <time>2019-06-22T10:57:35Z</time>
      </trkpt>
      <trkpt lat="42.536564" lon="-8.303742">
        <ele>636.116</ele>
        <time>2019-06-22T10:57:36Z</time>
      </trkpt>
      <trkpt lat="42.536551" lon="-8.303613">
        <ele>636.176</ele>
        <time>2019-06-22T10:57:37Z</time>
      </trkpt>
      <trkpt lat="42.536540" lon="-8.303480">
        <ele>636.513</ele>
        <time>2019-06-22T10:57:38Z</time>
      </trkpt>
      <trkpt lat="42.536520" lon="-8.303347">
        <ele>636.808</ele>
        <time>2019-06-22T10:57:39Z</time>
      </trkpt>
      <trkpt lat="42.536483" lon="-8.303205">
        <ele>637.094</ele>
        <time>2019-06-22T10:57:40Z</time>
      </trkpt>
      <trkpt lat="42.536441" lon="-8.303060">
        <ele>637.328</ele>
        <time>2019-06-22T10:57:41Z</time>
      </trkpt>
      <trkpt lat="42.536398" lon="-8.302917">
        <ele>637.410</ele>
        <time>2019-06-22T10:57:42Z</time>
      </trkpt>
      <trkpt lat="42.536354" lon="-8.302782">
        <ele>637.482</ele>
        <time>2019-06-22T10:57:43Z</time>
      </trkpt>
      <trkpt lat="42.536324" lon="-8.302634">
        <ele>637.210</ele>
        <time>2019-06-22T10:57:44Z</time>
      </trkpt>
      <trkpt lat="42.536277" lon="-8.302491">
        <ele>637.189</ele>
        <time>2019-06-22T10:57:45Z</time>
      </trkpt>
      <trkpt lat="42.536211" lon="-8.302349">
        <ele>636.744</ele>
        <time>2019-06-22T10:57:46Z</time>
      </trkpt>
      <trkpt lat="42.536133" lon="-8.302208">
        <ele>635.997</ele>
        <time>2019-06-22T10:57:47Z</time>
      </trkpt>
      <trkpt lat="42.536044" lon="-8.302074">
        <ele>635.332</ele>
        <time>2019-06-22T10:57:48Z</time>
      </trkpt>
      <trkpt lat="42.535957" lon="-8.301968">
        <ele>634.792</ele>
        <time>2019-06-22T10:57:49Z</time>
      </trkpt>
      <trkpt lat="42.535864" lon="-8.301861">
        <ele>633.811</ele>
        <time>2019-06-22T10:57:50Z</time>
      </trkpt>
      <trkpt lat="42.535763" lon="-8.301775">
        <ele>632.908</ele>
        <time>2019-06-22T10:57:51Z</time>
      </trkpt>
      <trkpt lat="42.535662" lon="-8.301685">
        <ele>632.256</ele>
        <time>2019-06-22T10:57:52Z</time>
      </trkpt>
      <trkpt lat="42.535543" lon="-8.301608">
        <ele>632.250</ele>
        <time>2019-06-22T10:57:53Z</time>
      </trkpt>
      <trkpt lat="42.535438" lon="-8.301527">
        <ele>632.342</ele>
        <time>2019-06-22T10:57:54Z</time>
      </trkpt>
      <trkpt lat="42.535323" lon="-8.301460">
        <ele>632.894</ele>
        <time>2019-06-22T10:57:55Z</time>
      </trkpt>
      <trkpt lat="42.535212" lon="-8.301397">
        <ele>633.582</ele>
        <time>2019-06-22T10:57:56Z</time>
      </trkpt>
      <trkpt lat="42.535088" lon="-8.301343">
        <ele>634.461</ele>
        <time>2019-06-22T10:57:57Z</time>
      </trkpt>
      <trkpt lat="42.534979" lon="-8.301278">
        <ele>635.176</ele>
        <time>2019-06-22T10:57:58Z</time>
      </trkpt>
      <trkpt lat="42.534885" lon="-8.301206">
        <ele>635.339</ele>
        <time>2019-06-22T10:57:59Z</time>
      </trkpt>
      <trkpt lat="42.534784" lon="-8.301132">
        <ele>635.734</ele>
        <time>2019-06-22T10:58:00Z</time>
      </trkpt>
      <trkpt lat="42.534702" lon="-8.301023">
        <ele>636.155</ele>
        <time>2019-06-22T10:58:01Z</time>
      </trkpt>
      <trkpt lat="42.534595" lon="-8.300916">
        <ele>636.610</ele>
        <time>2019-06-22T10:58:02Z</time>
      </trkpt>
      <trkpt lat="42.534519" lon="-8.300805">
        <ele>637.008</ele>
        <time>2019-06-22T10:58:03Z</time>
      </trkpt>
      <trkpt lat="42.534493" lon="-8.300675">
        <ele>637.456</ele>
        <time>2019-06-22T10:58:04Z</time>
      </trkpt>
      <trkpt lat="42.534460" lon="-8.300563">
        <ele>637.830</ele>
        <time>2019-06-22T10:58:05Z</time>
      </trkpt>
      <trkpt lat="42.534431" lon="-8.300443">
        <ele>638.342</ele>
        <time>2019-06-22T10:58:06Z</time>
      </trkpt>
      <trkpt lat="42.534399" lon="-8.300320">
        <ele>638.934</ele>
        <time>2019-06-22T10:58:07Z</time>
      </trkpt>
      <trkpt lat="42.534359" lon="-8.300193">
        <ele>639.512</ele>
        <time>2019-06-22T10:58:08Z</time>
      </trkpt>
      <trkpt lat="42.534316" lon="-8.300052">
        <ele>640.111</ele>
        <time>2019-06-22T10:58:09Z</time>
      </trkpt>
      <trkpt lat="42.534269" lon="-8.299899">
        <ele>640.696</ele>
        <time>2019-06-22T10:58:10Z</time>
      </trkpt>
      <trkpt lat="42.534222" lon="-8.299720">
        <ele>641.199</ele>
        <time>2019-06-22T10:58:11Z</time>
      </trkpt>
      <trkpt lat="42.534158" lon="-8.299522">
        <ele>641.557</ele>
        <time>2019-06-22T10:58:12Z</time>
      </trkpt>
      <trkpt lat="42.534107" lon="-8.299306">
        <ele>642.300</ele>
        <time>2019-06-22T10:58:13Z</time>
      </trkpt>
      <trkpt lat="42.534035" lon="-8.299091">
        <ele>643.320</ele>
        <time>2019-06-22T10:58:14Z</time>
      </trkpt>
      <trkpt lat="42.533968" lon="-8.298880">
        <ele>644.108</ele>
        <time>2019-06-22T10:58:15Z</time>
      </trkpt>
      <trkpt lat="42.533906" lon="-8.298646">
        <ele>644.168</ele>
        <time>2019-06-22T10:58:16Z</time>
      </trkpt>
      <trkpt lat="42.533832" lon="-8.298408">
        <ele>644.962</ele>
        <time>2019-06-22T10:58:17Z</time>
      </trkpt>
      <trkpt lat="42.533768" lon="-8.298162">
        <ele>645.474</ele>
        <time>2019-06-22T10:58:18Z</time>
      </trkpt>
      <trkpt lat="42.533692" lon="-8.297931">
        <ele>645.776</ele>
        <time>2019-06-22T10:58:19Z</time>
      </trkpt>
      <trkpt lat="42.533616" lon="-8.297707">
        <ele>646.414</ele>
        <time>2019-06-22T10:58:20Z</time>
      </trkpt>
      <trkpt lat="42.533541" lon="-8.297487">
        <ele>647.273</ele>
        <time>2019-06-22T10:58:21Z</time>
      </trkpt>
      <trkpt lat="42.533461" lon="-8.297258">
        <ele>648.638</ele>
        <time>2019-06-22T10:58:22Z</time>
      </trkpt>
      <trkpt lat="42.533371" lon="-8.297032">
        <ele>649.531</ele>
        <time>2019-06-22T10:58:23Z</time>
      </trkpt>
      <trkpt lat="42.533267" lon="-8.296828">
        <ele>650.664</ele>
        <time>2019-06-22T10:58:24Z</time>
      </trkpt>
      <trkpt lat="42.533151" lon="-8.296646">
        <ele>650.706</ele>
        <time>2019-06-22T10:58:25Z</time>
      </trkpt>
      <trkpt lat="42.533011" lon="-8.296496">
        <ele>650.816</ele>
        <time>2019-06-22T10:58:26Z</time>
      </trkpt>
      <trkpt lat="42.532865" lon="-8.296370">
        <ele>651.008</ele>
        <time>2019-06-22T10:58:27Z</time>
      </trkpt>
      <trkpt lat="42.532720" lon="-8.296250">
        <ele>651.699</ele>
        <time>2019-06-22T10:58:28Z</time>
      </trkpt>
      <trkpt lat="42.532578" lon="-8.296167">
        <ele>652.753</ele>
        <time>2019-06-22T10:58:29Z</time>
      </trkpt>
      <trkpt lat="42.532403" lon="-8.296103">
        <ele>654.335</ele>
        <time>2019-06-22T10:58:30Z</time>
      </trkpt>
      <trkpt lat="42.532224" lon="-8.296041">
        <ele>656.197</ele>
        <time>2019-06-22T10:58:31Z</time>
      </trkpt>
      <trkpt lat="42.532049" lon="-8.295967">
        <ele>658.065</ele>
        <time>2019-06-22T10:58:32Z</time>
      </trkpt>
      <trkpt lat="42.531871" lon="-8.295870">
        <ele>660.564</ele>
        <time>2019-06-22T10:58:33Z</time>
      </trkpt>
      <trkpt lat="42.531690" lon="-8.295744">
        <ele>662.789</ele>
        <time>2019-06-22T10:58:34Z</time>
      </trkpt>
      <trkpt lat="42.531520" lon="-8.295600">
        <ele>664.712</ele>
        <time>2019-06-22T10:58:35Z</time>
      </trkpt>
      <trkpt lat="42.531351" lon="-8.295429">
        <ele>667.077</ele>
        <time>2019-06-22T10:58:36Z</time>
      </trkpt>
      <trkpt lat="42.531218" lon="-8.295246">
        <ele>668.761</ele>
        <time>2019-06-22T10:58:37Z</time>
      </trkpt>
      <trkpt lat="42.531089" lon="-8.295050">
        <ele>669.627</ele>
        <time>2019-06-22T10:58:38Z</time>
      </trkpt>
      <trkpt lat="42.530995" lon="-8.294827">
        <ele>671.008</ele>
        <time>2019-06-22T10:58:39Z</time>
      </trkpt>
      <trkpt lat="42.530885" lon="-8.294570">
        <ele>672.560</ele>
        <time>2019-06-22T10:58:40Z</time>
      </trkpt>
      <trkpt lat="42.530797" lon="-8.294303">
        <ele>673.874</ele>
        <time>2019-06-22T10:58:41Z</time>
      </trkpt>
      <trkpt lat="42.530730" lon="-8.294061">
        <ele>675.356</ele>
        <time>2019-06-22T10:58:42Z</time>
      </trkpt>
      <trkpt lat="42.530636" lon="-8.293807">
        <ele>677.498</ele>
        <time>2019-06-22T10:58:43Z</time>
      </trkpt>
      <trkpt lat="42.530526" lon="-8.293556">
        <ele>678.166</ele>
        <time>2019-06-22T10:58:44Z</time>
      </trkpt>
      <trkpt lat="42.530388" lon="-8.293325">
        <ele>679.185</ele>
        <time>2019-06-22T10:58:45Z</time>
      </trkpt>
      <trkpt lat="42.530227" lon="-8.293098">
        <ele>680.420</ele>
        <time>2019-06-22T10:58:46Z</time>
      </trkpt>
      <trkpt lat="42.530058" lon="-8.292900">
        <ele>681.533</ele>
        <time>2019-06-22T10:58:47Z</time>
      </trkpt>
      <trkpt lat="42.529881" lon="-8.292718">
        <ele>682.964</ele>
        <time>2019-06-22T10:58:48Z</time>
      </trkpt>
      <trkpt lat="42.529705" lon="-8.292546">
        <ele>684.806</ele>
        <time>2019-06-22T10:58:49Z</time>
      </trkpt>
      <trkpt lat="42.529502" lon="-8.292391">
        <ele>686.016</ele>
        <time>2019-06-22T10:58:50Z</time>
      </trkpt>
      <trkpt lat="42.529285" lon="-8.292244">
        <ele>687.308</ele>
        <time>2019-06-22T10:58:51Z</time>
      </trkpt>
      <trkpt lat="42.529080" lon="-8.292104">
        <ele>688.889</ele>
        <time>2019-06-22T10:58:52Z</time>
      </trkpt>
      <trkpt lat="42.528874" lon="-8.291975">
        <ele>689.523</ele>
        <time>2019-06-22T10:58:53Z</time>
      </trkpt>
      <trkpt lat="42.528655" lon="-8.291866">
        <ele>690.535</ele>
        <time>2019-06-22T10:58:54Z</time>
      </trkpt>
      <trkpt lat="42.528437" lon="-8.291762">
        <ele>692.637</ele>
        <time>2019-06-22T10:58:55Z</time>
      </trkpt>
      <trkpt lat="42.528221" lon="-8.291658">
        <ele>694.335</ele>
        <time>2019-06-22T10:58:56Z</time>
      </trkpt>
      <trkpt lat="42.528007" lon="-8.291562">
        <ele>695.694</ele>
        <time>2019-06-22T10:58:57Z</time>
      </trkpt>
      <trkpt lat="42.527769" lon="-8.291453">
        <ele>697.319</ele>
        <time>2019-06-22T10:58:58Z</time>
      </trkpt>
      <trkpt lat="42.527541" lon="-8.291362">
        <ele>698.642</ele>
        <time>2019-06-22T10:58:59Z</time>
      </trkpt>
      <trkpt lat="42.527324" lon="-8.291279">
        <ele>699.985</ele>
        <time>2019-06-22T10:59:00Z</time>
      </trkpt>
      <trkpt lat="42.527090" lon="-8.291209">
        <ele>701.589</ele>
        <time>2019-06-22T10:59:01Z</time>
      </trkpt>
      <trkpt lat="42.526870" lon="-8.291143">
        <ele>702.917</ele>
        <time>2019-06-22T10:59:02Z</time>
      </trkpt>
      <trkpt lat="42.526633" lon="-8.291069">
        <ele>704.608</ele>
        <time>2019-06-22T10:59:03Z</time>
      </trkpt>
      <trkpt lat="42.526414" lon="-8.291027">
        <ele>706.061</ele>
        <time>2019-06-22T10:59:04Z</time>
      </trkpt>
      <trkpt lat="42.526186" lon="-8.290963">
        <ele>706.815</ele>
        <time>2019-06-22T10:59:05Z</time>
      </trkpt>
      <trkpt lat="42.525948" lon="-8.290895">
        <ele>706.967</ele>
        <time>2019-06-22T10:59:06Z</time>
      </trkpt>
      <trkpt lat="42.525721" lon="-8.290815">
        <ele>707.239</ele>
        <time>2019-06-22T10:59:07Z</time>
      </trkpt>
      <trkpt lat="42.525506" lon="-8.290706">
        <ele>707.767</ele>
        <time>2019-06-22T10:59:08Z</time>
      </trkpt>
      <trkpt lat="42.525300" lon="-8.290564">
        <ele>708.496</ele>
        <time>2019-06-22T10:59:09Z</time>
      </trkpt>
      <trkpt lat="42.525095" lon="-8.290405">
        <ele>709.761</ele>
        <time>2019-06-22T10:59:10Z</time>
      </trkpt>
      <trkpt lat="42.524907" lon="-8.290237">
        <ele>711.894</ele>
        <time>2019-06-22T10:59:11Z</time>
      </trkpt>
      <trkpt lat="42.524729" lon="-8.290043">
        <ele>713.699</ele>
        <time>2019-06-22T10:59:12Z</time>
      </trkpt>
      <trkpt lat="42.524552" lon="-8.289827">
        <ele>715.607</ele>
        <time>2019-06-22T10:59:13Z</time>
      </trkpt>
      <trkpt lat="42.524381" lon="-8.289605">
        <ele>717.327</ele>
        <time>2019-06-22T10:59:14Z</time>
      </trkpt>
      <trkpt lat="42.524225" lon="-8.289383">
        <ele>719.108</ele>
        <time>2019-06-22T10:59:15Z</time>
      </trkpt>
      <trkpt lat="42.524054" lon="-8.289159">
        <ele>720.532</ele>
        <time>2019-06-22T10:59:16Z</time>
      </trkpt>
      <trkpt lat="42.523884" lon="-8.288941">
        <ele>720.526</ele>
        <time>2019-06-22T10:59:17Z</time>
      </trkpt>
      <trkpt lat="42.523692" lon="-8.288725">
        <ele>722.638</ele>
        <time>2019-06-22T10:59:18Z</time>
      </trkpt>
      <trkpt lat="42.523513" lon="-8.288516">
        <ele>724.480</ele>
        <time>2019-06-22T10:59:19Z</time>
      </trkpt>
      <trkpt lat="42.523340" lon="-8.288314">
        <ele>725.868</ele>
        <time>2019-06-22T10:59:20Z</time>
      </trkpt>
      <trkpt lat="42.523145" lon="-8.288108">
        <ele>726.217</ele>
        <time>2019-06-22T10:59:21Z</time>
      </trkpt>
      <trkpt lat="42.522954" lon="-8.287910">
        <ele>726.392</ele>
        <time>2019-06-22T10:59:22Z</time>
      </trkpt>
      <trkpt lat="42.522766" lon="-8.287724">
        <ele>726.385</ele>
        <time>2019-06-22T10:59:23Z</time>
      </trkpt>
      <trkpt lat="42.522573" lon="-8.287533">
        <ele>726.448</ele>
        <time>2019-06-22T10:59:24Z</time>
      </trkpt>
      <trkpt lat="42.522385" lon="-8.287351">
        <ele>727.561</ele>
        <time>2019-06-22T10:59:25Z</time>
      </trkpt>
      <trkpt lat="42.522193" lon="-8.287181">
        <ele>729.917</ele>
        <time>2019-06-22T10:59:26Z</time>
      </trkpt>
      <trkpt lat="42.521999" lon="-8.287021">
        <ele>732.708</ele>
        <time>2019-06-22T10:59:27Z</time>
      </trkpt>
      <trkpt lat="42.521767" lon="-8.286875">
        <ele>735.137</ele>
        <time>2019-06-22T10:59:28Z</time>
      </trkpt>
      <trkpt lat="42.521558" lon="-8.286763">
        <ele>737.421</ele>
        <time>2019-06-22T10:59:29Z</time>
      </trkpt>
      <trkpt lat="42.521322" lon="-8.286660">
        <ele>738.033</ele>
        <time>2019-06-22T10:59:30Z</time>
      </trkpt>
      <trkpt lat="42.521098" lon="-8.286574">
        <ele>738.955</ele>
        <time>2019-06-22T10:59:31Z</time>
      </trkpt>
      <trkpt lat="42.520877" lon="-8.286522">
        <ele>739.273</ele>
        <time>2019-06-22T10:59:32Z</time>
      </trkpt>
      <trkpt lat="42.520665" lon="-8.286501">
        <ele>739.412</ele>
        <time>2019-06-22T10:59:33Z</time>
      </trkpt>
      <trkpt lat="42.520436" lon="-8.286469">
        <ele>741.097</ele>
        <time>2019-06-22T10:59:34Z</time>
      </trkpt>
      <trkpt lat="42.520218" lon="-8.286440">
        <ele>742.380</ele>
        <time>2019-06-22T10:59:35Z</time>
      </trkpt>
      <trkpt lat="42.519996" lon="-8.286394">
        <ele>743.288</ele>
        <time>2019-06-22T10:59:36Z</time>
      </trkpt>
      <trkpt lat="42.519795" lon="-8.286312">
        <ele>745.124</ele>
        <time>2019-06-22T10:59:37Z</time>
      </trkpt>
      <trkpt lat="42.519624" lon="-8.286196">
        <ele>746.926</ele>
        <time>2019-06-22T10:59:38Z</time>
      </trkpt>
      <trkpt lat="42.519475" lon="-8.286015">
        <ele>747.608</ele>
        <time>2019-06-22T10:59:39Z</time>
      </trkpt>
      <trkpt lat="42.519315" lon="-8.285823">
        <ele>748.611</ele>
        <time>2019-06-22T10:59:40Z</time>
      </trkpt>
      <trkpt lat="42.519188" lon="-8.285579">
        <ele>750.745</ele>
        <time>2019-06-22T10:59:41Z</time>
      </trkpt>
      <trkpt lat="42.519126" lon="-8.285311">
        <ele>751.447</ele>
        <time>2019-06-22T10:59:42Z</time>
      </trkpt>
      <trkpt lat="42.519046" lon="-8.285030">
        <ele>752.699</ele>
        <time>2019-06-22T10:59:43Z</time>
      </trkpt>
      <trkpt lat="42.519022" lon="-8.284746">
        <ele>754.287</ele>
        <time>2019-06-22T10:59:44Z</time>
      </trkpt>
      <trkpt lat="42.519016" lon="-8.284450">
        <ele>755.526</ele>
        <time>2019-06-22T10:59:45Z</time>
      </trkpt>
      <trkpt lat="42.519044" lon="-8.284163">
        <ele>757.151</ele>
        <time>2019-06-22T10:59:46Z</time>
      </trkpt>
      <trkpt lat="42.519093" lon="-8.283872">
        <ele>758.614</ele>
        <time>2019-06-22T10:59:47Z</time>
      </trkpt>
      <trkpt lat="42.519142" lon="-8.283574">
        <ele>759.659</ele>
        <time>2019-06-22T10:59:48Z</time>
      </trkpt>
      <trkpt lat="42.519188" lon="-8.283284">
        <ele>759.603</ele>
        <time>2019-06-22T10:59:49Z</time>
      </trkpt>
      <trkpt lat="42.519216" lon="-8.282990">
        <ele>759.423</ele>
        <time>2019-06-22T10:59:50Z</time>
      </trkpt>
      <trkpt lat="42.519232" lon="-8.282695">
        <ele>758.608</ele>
        <time>2019-06-22T10:59:51Z</time>
      </trkpt>
      <trkpt lat="42.519219" lon="-8.282397">
        <ele>758.678</ele>
        <time>2019-06-22T10:59:52Z</time>
      </trkpt>
      <trkpt lat="42.519180" lon="-8.282092">
        <ele>759.222</ele>
        <time>2019-06-22T10:59:53Z</time>
      </trkpt>
      <trkpt lat="42.519114" lon="-8.281790">
        <ele>760.214</ele>
        <time>2019-06-22T10:59:54Z</time>
      </trkpt>
      <trkpt lat="42.519060" lon="-8.281505">
        <ele>763.426</ele>
        <time>2019-06-22T10:59:55Z</time>
      </trkpt>
      <trkpt lat="42.519007" lon="-8.281218">
        <ele>767.214</ele>
        <time>2019-06-22T10:59:56Z</time>
      </trkpt>
      <trkpt lat="42.518964" lon="-8.280938">
        <ele>770.053</ele>
        <time>2019-06-22T10:59:57Z</time>
      </trkpt>
      <trkpt lat="42.518955" lon="-8.280658">
        <ele>772.458</ele>
        <time>2019-06-22T10:59:58Z</time>
      </trkpt>
      <trkpt lat="42.518979" lon="-8.280384">
        <ele>775.011</ele>
        <time>2019-06-22T10:59:59Z</time>
      </trkpt>
      <trkpt lat="42.519017" lon="-8.280108">
        <ele>776.791</ele>
        <time>2019-06-22T11:00:00Z</time>
      </trkpt>
      <trkpt lat="42.519109" lon="-8.279865">
        <ele>777.981</ele>
        <time>2019-06-22T11:00:01Z</time>
      </trkpt>
      <trkpt lat="42.519213" lon="-8.279616">
        <ele>779.419</ele>
        <time>2019-06-22T11:00:02Z</time>
      </trkpt>
      <trkpt lat="42.519350" lon="-8.279396">
        <ele>780.608</ele>
        <time>2019-06-22T11:00:03Z</time>
      </trkpt>
      <trkpt lat="42.519497" lon="-8.279181">
        <ele>781.692</ele>
        <time>2019-06-22T11:00:04Z</time>
      </trkpt>
      <trkpt lat="42.519657" lon="-8.278984">
        <ele>782.246</ele>
        <time>2019-06-22T11:00:05Z</time>
      </trkpt>
      <trkpt lat="42.519819" lon="-8.278793">
        <ele>782.238</ele>
        <time>2019-06-22T11:00:06Z</time>
      </trkpt>
      <trkpt lat="42.519971" lon="-8.278595">
        <ele>781.250</ele>
        <time>2019-06-22T11:00:07Z</time>
      </trkpt>
      <trkpt lat="42.520108" lon="-8.278384">
        <ele>778.558</ele>
        <time>2019-06-22T11:00:08Z</time>
      </trkpt>
      <trkpt lat="42.520173" lon="-8.278110">
        <ele>776.287</ele>
        <time>2019-06-22T11:00:09Z</time>
      </trkpt>
      <trkpt lat="42.520233" lon="-8.277826">
        <ele>774.712</ele>
        <time>2019-06-22T11:00:10Z</time>
      </trkpt>
      <trkpt lat="42.520254" lon="-8.277547">
        <ele>774.215</ele>
        <time>2019-06-22T11:00:11Z</time>
      </trkpt>
      <trkpt lat="42.520219" lon="-8.277264">
        <ele>774.256</ele>
        <time>2019-06-22T11:00:12Z</time>
      </trkpt>
      <trkpt lat="42.520164" lon="-8.276965">
        <ele>774.559</ele>
        <time>2019-06-22T11:00:13Z</time>
      </trkpt>
      <trkpt lat="42.520097" lon="-8.276667">
        <ele>776.714</ele>
        <time>2019-06-22T11:00:14Z</time>
      </trkpt>
      <trkpt lat="42.520042" lon="-8.276367">
        <ele>778.108</ele>
        <time>2019-06-22T11:00:15Z</time>
      </trkpt>
      <trkpt lat="42.519956" lon="-8.276075">
        <ele>778.118</ele>
        <time>2019-06-22T11:00:16Z</time>
      </trkpt>
      <trkpt lat="42.519847" lon="-8.275803">
        <ele>778.122</ele>
        <time>2019-06-22T11:00:17Z</time>
      </trkpt>
      <trkpt lat="42.519717" lon="-8.275528">
        <ele>777.844</ele>
        <time>2019-06-22T11:00:18Z</time>
      </trkpt>
      <trkpt lat="42.519563" lon="-8.275276">
        <ele>777.616</ele>
        <time>2019-06-22T11:00:19Z</time>
      </trkpt>
      <trkpt lat="42.519403" lon="-8.275034">
        <ele>776.944</ele>
        <time>2019-06-22T11:00:20Z</time>
      </trkpt>
      <trkpt lat="42.519213" lon="-8.274832">
        <ele>776.073</ele>
        <time>2019-06-22T11:00:21Z</time>
      </trkpt>
      <trkpt lat="42.519009" lon="-8.274642">
        <ele>776.028</ele>
        <time>2019-06-22T11:00:22Z</time>
      </trkpt>
      <trkpt lat="42.518776" lon="-8.274489">
        <ele>776.321</ele>
        <time>2019-06-22T11:00:23Z</time>
      </trkpt>
      <trkpt lat="42.518553" lon="-8.274357">
        <ele>778.663</ele>
        <time>2019-06-22T11:00:24Z</time>
      </trkpt>
      <trkpt lat="42.518318" lon="-8.274239">
        <ele>780.844</ele>
        <time>2019-06-22T11:00:25Z</time>
      </trkpt>
      <trkpt lat="42.518085" lon="-8.274123">
        <ele>782.018</ele>
        <time>2019-06-22T11:00:26Z</time>
      </trkpt>
      <trkpt lat="42.517849" lon="-8.274008">
        <ele>782.008</ele>
        <time>2019-06-22T11:00:27Z</time>
      </trkpt>
      <trkpt lat="42.517627" lon="-8.273904">
        <ele>780.949</ele>
        <time>2019-06-22T11:00:28Z</time>
      </trkpt>
      <trkpt lat="42.517397" lon="-8.273796">
        <ele>780.993</ele>
        <time>2019-06-22T11:00:29Z</time>
      </trkpt>
      <trkpt lat="42.517166" lon="-8.273695">
        <ele>780.275</ele>
        <time>2019-06-22T11:00:30Z</time>
      </trkpt>
      <trkpt lat="42.516962" lon="-8.273574">
        <ele>779.247</ele>
        <time>2019-06-22T11:00:31Z</time>
      </trkpt>
      <trkpt lat="42.516740" lon="-8.273468">
        <ele>779.225</ele>
        <time>2019-06-22T11:00:32Z</time>
      </trkpt>
      <trkpt lat="42.516517" lon="-8.273361">
        <ele>780.144</ele>
        <time>2019-06-22T11:00:33Z</time>
      </trkpt>
      <trkpt lat="42.516296" lon="-8.273251">
        <ele>780.159</ele>
        <time>2019-06-22T11:00:34Z</time>
      </trkpt>
      <trkpt lat="42.516090" lon="-8.273159">
        <ele>778.972</ele>
        <time>2019-06-22T11:00:35Z</time>
      </trkpt>
      <trkpt lat="42.515885" lon="-8.273052">
        <ele>776.357</ele>
        <time>2019-06-22T11:00:36Z</time>
      </trkpt>
      <trkpt lat="42.515696" lon="-8.272939">
        <ele>775.700</ele>
        <time>2019-06-22T11:00:37Z</time>
      </trkpt>
      <trkpt lat="42.515532" lon="-8.272804">
        <ele>775.720</ele>
        <time>2019-06-22T11:00:38Z</time>
      </trkpt>
      <trkpt lat="42.515393" lon="-8.272657">
        <ele>775.708</ele>
        <time>2019-06-22T11:00:39Z</time>
      </trkpt>
      <trkpt lat="42.515265" lon="-8.272468">
        <ele>777.278</ele>
        <time>2019-06-22T11:00:40Z</time>
      </trkpt>
      <trkpt lat="42.515151" lon="-8.272269">
        <ele>779.772</ele>
        <time>2019-06-22T11:00:41Z</time>
      </trkpt>
      <trkpt lat="42.515067" lon="-8.272059">
        <ele>781.244</ele>
        <time>2019-06-22T11:00:42Z</time>
      </trkpt>
      <trkpt lat="42.515011" lon="-8.271825">
        <ele>782.566</ele>
        <time>2019-06-22T11:00:43Z</time>
      </trkpt>
      <trkpt lat="42.514982" lon="-8.271587">
        <ele>782.534</ele>
        <time>2019-06-22T11:00:44Z</time>
      </trkpt>
      <trkpt lat="42.514976" lon="-8.271348">
        <ele>782.153</ele>
        <time>2019-06-22T11:00:45Z</time>
      </trkpt>
      <trkpt lat="42.515016" lon="-8.271121">
        <ele>782.018</ele>
        <time>2019-06-22T11:00:46Z</time>
      </trkpt>
      <trkpt lat="42.515082" lon="-8.270912">
        <ele>781.841</ele>
        <time>2019-06-22T11:00:47Z</time>
      </trkpt>
      <trkpt lat="42.515153" lon="-8.270714">
        <ele>781.815</ele>
        <time>2019-06-22T11:00:48Z</time>
      </trkpt>
      <trkpt lat="42.515242" lon="-8.270525">
        <ele>781.865</ele>
        <time>2019-06-22T11:00:49Z</time>
      </trkpt>
      <trkpt lat="42.515399" lon="-8.270361">
        <ele>781.511</ele>
        <time>2019-06-22T11:00:50Z</time>
      </trkpt>
      <trkpt lat="42.515540" lon="-8.270199">
        <ele>781.208</ele>
        <time>2019-06-22T11:00:51Z</time>
      </trkpt>
      <trkpt lat="42.515686" lon="-8.270025">
        <ele>780.624</ele>
        <time>2019-06-22T11:00:52Z</time>
      </trkpt>
      <trkpt lat="42.515823" lon="-8.269854">
        <ele>779.768</ele>
        <time>2019-06-22T11:00:53Z</time>
      </trkpt>
      <trkpt lat="42.515955" lon="-8.269681">
        <ele>778.630</ele>
        <time>2019-06-22T11:00:54Z</time>
      </trkpt>
      <trkpt lat="42.516066" lon="-8.269494">
        <ele>777.722</ele>
        <time>2019-06-22T11:00:55Z</time>
      </trkpt>
      <trkpt lat="42.516155" lon="-8.269295">
        <ele>776.880</ele>
        <time>2019-06-22T11:00:56Z</time>
      </trkpt>
      <trkpt lat="42.516227" lon="-8.269099">
        <ele>775.659</ele>
        <time>2019-06-22T11:00:57Z</time>
      </trkpt>
      <trkpt lat="42.516276" lon="-8.268891">
        <ele>774.454</ele>
        <time>2019-06-22T11:00:58Z</time>
      </trkpt>
      <trkpt lat="42.516304" lon="-8.268680">
        <ele>773.617</ele>
        <time>2019-06-22T11:00:59Z</time>
      </trkpt>
      <trkpt lat="42.516315" lon="-8.268472">
        <ele>772.928</ele>
        <time>2019-06-22T11:01:00Z</time>
      </trkpt>
      <trkpt lat="42.516292" lon="-8.268261">
        <ele>772.089</ele>
        <time>2019-06-22T11:01:01Z</time>
      </trkpt>
      <trkpt lat="42.516252" lon="-8.268049">
        <ele>772.017</ele>
        <time>2019-06-22T11:01:02Z</time>
      </trkpt>
      <trkpt lat="42.516231" lon="-8.267814">
        <ele>772.408</ele>
        <time>2019-06-22T11:01:03Z</time>
      </trkpt>
      <trkpt lat="42.516213" lon="-8.267567">
        <ele>773.585</ele>
        <time>2019-06-22T11:01:04Z</time>
      </trkpt>
      <trkpt lat="42.516190" lon="-8.267315">
        <ele>774.119</ele>
        <time>2019-06-22T11:01:05Z</time>
      </trkpt>
      <trkpt lat="42.516199" lon="-8.267060">
        <ele>775.261</ele>
        <time>2019-06-22T11:01:06Z</time>
      </trkpt>
      <trkpt lat="42.516228" lon="-8.266801">
        <ele>775.813</ele>
        <time>2019-06-22T11:01:07Z</time>
      </trkpt>
      <trkpt lat="42.516273" lon="-8.266544">
        <ele>776.121</ele>
        <time>2019-06-22T11:01:08Z</time>
      </trkpt>
      <trkpt lat="42.516325" lon="-8.266306">
        <ele>776.140</ele>
        <time>2019-06-22T11:01:09Z</time>
      </trkpt>
      <trkpt lat="42.516351" lon="-8.266045">
        <ele>775.675</ele>
        <time>2019-06-22T11:01:10Z</time>
      </trkpt>
      <trkpt lat="42.516377" lon="-8.265792">
        <ele>774.378</ele>
        <time>2019-06-22T11:01:11Z</time>
      </trkpt>
      <trkpt lat="42.516396" lon="-8.265551">
        <ele>772.243</ele>
        <time>2019-06-22T11:01:12Z</time>
      </trkpt>
      <trkpt lat="42.516391" lon="-8.265313">
        <ele>770.464</ele>
        <time>2019-06-22T11:01:13Z</time>
      </trkpt>
      <trkpt lat="42.516372" lon="-8.265070">
        <ele>769.310</ele>
        <time>2019-06-22T11:01:14Z</time>
      </trkpt>
      <trkpt lat="42.516321" lon="-8.264820">
        <ele>769.308</ele>
        <time>2019-06-22T11:01:15Z</time>
      </trkpt>
      <trkpt lat="42.516270" lon="-8.264575">
        <ele>769.477</ele>
        <time>2019-06-22T11:01:16Z</time>
      </trkpt>
      <trkpt lat="42.516205" lon="-8.264333">
        <ele>769.411</ele>
        <time>2019-06-22T11:01:17Z</time>
      </trkpt>
      <trkpt lat="42.516104" lon="-8.264122">
        <ele>770.893</ele>
        <time>2019-06-22T11:01:18Z</time>
      </trkpt>
      <trkpt lat="42.516007" lon="-8.263911">
        <ele>771.945</ele>
        <time>2019-06-22T11:01:19Z</time>
      </trkpt>
      <trkpt lat="42.515894" lon="-8.263729">
        <ele>771.933</ele>
        <time>2019-06-22T11:01:20Z</time>
      </trkpt>
      <trkpt lat="42.515749" lon="-8.263573">
        <ele>771.352</ele>
        <time>2019-06-22T11:01:21Z</time>
      </trkpt>
      <trkpt lat="42.515571" lon="-8.263478">
        <ele>770.787</ele>
        <time>2019-06-22T11:01:22Z</time>
      </trkpt>
      <trkpt lat="42.515403" lon="-8.263412">
        <ele>769.150</ele>
        <time>2019-06-22T11:01:23Z</time>
      </trkpt>
      <trkpt lat="42.515218" lon="-8.263353">
        <ele>767.735</ele>
        <time>2019-06-22T11:01:24Z</time>
      </trkpt>
      <trkpt lat="42.515020" lon="-8.263299">
        <ele>767.786</ele>
        <time>2019-06-22T11:01:25Z</time>
      </trkpt>
      <trkpt lat="42.514812" lon="-8.263230">
        <ele>768.114</ele>
        <time>2019-06-22T11:01:26Z</time>
      </trkpt>
      <trkpt lat="42.514596" lon="-8.263158">
        <ele>768.908</ele>
        <time>2019-06-22T11:01:27Z</time>
      </trkpt>
      <trkpt lat="42.514390" lon="-8.263090">
        <ele>770.546</ele>
        <time>2019-06-22T11:01:28Z</time>
      </trkpt>
      <trkpt lat="42.514183" lon="-8.263031">
        <ele>771.230</ele>
        <time>2019-06-22T11:01:29Z</time>
      </trkpt>
      <trkpt lat="42.513974" lon="-8.262971">
        <ele>771.612</ele>
        <time>2019-06-22T11:01:30Z</time>
      </trkpt>
      <trkpt lat="42.513750" lon="-8.262913">
        <ele>771.734</ele>
        <time>2019-06-22T11:01:31Z</time>
      </trkpt>
      <trkpt lat="42.513530" lon="-8.262848">
        <ele>772.172</ele>
        <time>2019-06-22T11:01:32Z</time>
      </trkpt>
      <trkpt lat="42.513314" lon="-8.262784">
        <ele>772.271</ele>
        <time>2019-06-22T11:01:33Z</time>
      </trkpt>
      <trkpt lat="42.513094" lon="-8.262723">
        <ele>773.186</ele>
        <time>2019-06-22T11:01:34Z</time>
      </trkpt>
      <trkpt lat="42.512872" lon="-8.262654">
        <ele>773.899</ele>
        <time>2019-06-22T11:01:35Z</time>
      </trkpt>
      <trkpt lat="42.512651" lon="-8.262586">
        <ele>774.676</ele>
        <time>2019-06-22T11:01:36Z</time>
      </trkpt>
      <trkpt lat="42.512429" lon="-8.262519">
        <ele>774.690</ele>
        <time>2019-06-22T11:01:37Z</time>
      </trkpt>
      <trkpt lat="42.512201" lon="-8.262446">
        <ele>775.419</ele>
        <time>2019-06-22T11:01:38Z</time>
      </trkpt>
      <trkpt lat="42.511976" lon="-8.262380">
        <ele>776.908</ele>
        <time>2019-06-22T11:01:39Z</time>
      </trkpt>
      <trkpt lat="42.511756" lon="-8.262323">
        <ele>778.290</ele>
        <time>2019-06-22T11:01:40Z</time>
      </trkpt>
      <trkpt lat="42.511538" lon="-8.262259">
        <ele>780.364</ele>
        <time>2019-06-22T11:01:41Z</time>
      </trkpt>
      <trkpt lat="42.511316" lon="-8.262184">
        <ele>782.286</ele>
        <time>2019-06-22T11:01:42Z</time>
      </trkpt>
      <trkpt lat="42.511107" lon="-8.262122">
        <ele>784.038</ele>
        <time>2019-06-22T11:01:43Z</time>
      </trkpt>
      <trkpt lat="42.510912" lon="-8.262039">
        <ele>785.176</ele>
        <time>2019-06-22T11:01:44Z</time>
      </trkpt>
      <trkpt lat="42.510719" lon="-8.261943">
        <ele>787.025</ele>
        <time>2019-06-22T11:01:45Z</time>
      </trkpt>
      <trkpt lat="42.510569" lon="-8.261831">
        <ele>788.130</ele>
        <time>2019-06-22T11:01:46Z</time>
      </trkpt>
      <trkpt lat="42.510434" lon="-8.261646">
        <ele>789.243</ele>
        <time>2019-06-22T11:01:47Z</time>
      </trkpt>
      <trkpt lat="42.510320" lon="-8.261420">
        <ele>790.221</ele>
        <time>2019-06-22T11:01:48Z</time>
      </trkpt>
      <trkpt lat="42.510216" lon="-8.261187">
        <ele>791.341</ele>
        <time>2019-06-22T11:01:49Z</time>
      </trkpt>
      <trkpt lat="42.510142" lon="-8.260929">
        <ele>792.405</ele>
        <time>2019-06-22T11:01:50Z</time>
      </trkpt>
      <trkpt lat="42.510103" lon="-8.260664">
        <ele>793.708</ele>
        <time>2019-06-22T11:01:51Z</time>
      </trkpt>
      <trkpt lat="42.510060" lon="-8.260398">
        <ele>794.995</ele>
        <time>2019-06-22T11:01:52Z</time>
      </trkpt>
      <trkpt lat="42.510005" lon="-8.260139">
        <ele>795.679</ele>
        <time>2019-06-22T11:01:53Z</time>
      </trkpt>
      <trkpt lat="42.509943" lon="-8.259904">
        <ele>795.651</ele>
        <time>2019-06-22T11:01:54Z</time>
      </trkpt>
      <trkpt lat="42.509857" lon="-8.259680">
        <ele>795.563</ele>
        <time>2019-06-22T11:01:55Z</time>
      </trkpt>
      <trkpt lat="42.509726" lon="-8.259509">
        <ele>794.421</ele>
        <time>2019-06-22T11:01:56Z</time>
      </trkpt>
      <trkpt lat="42.509594" lon="-8.259331">
        <ele>792.390</ele>
        <time>2019-06-22T11:01:57Z</time>
      </trkpt>
      <trkpt lat="42.509443" lon="-8.259167">
        <ele>790.965</ele>
        <time>2019-06-22T11:01:58Z</time>
      </trkpt>
      <trkpt lat="42.509284" lon="-8.259042">
        <ele>790.528</ele>
        <time>2019-06-22T11:01:59Z</time>
      </trkpt>
      <trkpt lat="42.509069" lon="-8.258979">
        <ele>790.552</ele>
        <time>2019-06-22T11:02:00Z</time>
      </trkpt>
      <trkpt lat="42.508850" lon="-8.258903">
        <ele>791.453</ele>
        <time>2019-06-22T11:02:01Z</time>
      </trkpt>
      <trkpt lat="42.508659" lon="-8.258803">
        <ele>793.608</ele>
        <time>2019-06-22T11:02:02Z</time>
      </trkpt>
      <trkpt lat="42.508480" lon="-8.258668">
        <ele>795.408</ele>
        <time>2019-06-22T11:02:03Z</time>
      </trkpt>
      <trkpt lat="42.508301" lon="-8.258513">
        <ele>797.228</ele>
        <time>2019-06-22T11:02:04Z</time>
      </trkpt>
      <trkpt lat="42.508125" lon="-8.258339">
        <ele>798.612</ele>
        <time>2019-06-22T11:02:05Z</time>
      </trkpt>
      <trkpt lat="42.507950" lon="-8.258146">
        <ele>799.334</ele>
        <time>2019-06-22T11:02:06Z</time>
      </trkpt>
      <trkpt lat="42.507775" lon="-8.257947">
        <ele>799.326</ele>
        <time>2019-06-22T11:02:07Z</time>
      </trkpt>
      <trkpt lat="42.507599" lon="-8.257753">
        <ele>798.944</ele>
        <time>2019-06-22T11:02:08Z</time>
      </trkpt>
      <trkpt lat="42.507417" lon="-8.257569">
        <ele>798.263</ele>
        <time>2019-06-22T11:02:09Z</time>
      </trkpt>
      <trkpt lat="42.507227" lon="-8.257416">
        <ele>797.738</ele>
        <time>2019-06-22T11:02:10Z</time>
      </trkpt>
      <trkpt lat="42.507012" lon="-8.257275">
        <ele>797.721</ele>
        <time>2019-06-22T11:02:11Z</time>
      </trkpt>
      <trkpt lat="42.506789" lon="-8.257132">
        <ele>798.469</ele>
        <time>2019-06-22T11:02:12Z</time>
      </trkpt>
      <trkpt lat="42.506577" lon="-8.257007">
        <ele>800.104</ele>
        <time>2019-06-22T11:02:13Z</time>
      </trkpt>
      <trkpt lat="42.506341" lon="-8.256886">
        <ele>801.924</ele>
        <time>2019-06-22T11:02:14Z</time>
      </trkpt>
      <trkpt lat="42.506127" lon="-8.256750">
        <ele>802.108</ele>
        <time>2019-06-22T11:02:15Z</time>
      </trkpt>
      <trkpt lat="42.505920" lon="-8.256615">
        <ele>802.159</ele>
        <time>2019-06-22T11:02:16Z</time>
      </trkpt>
      <trkpt lat="42.505711" lon="-8.256492">
        <ele>802.153</ele>
        <time>2019-06-22T11:02:17Z</time>
      </trkpt>
      <trkpt lat="42.505507" lon="-8.256360">
        <ele>801.225</ele>
        <time>2019-06-22T11:02:18Z</time>
      </trkpt>
      <trkpt lat="42.505321" lon="-8.256246">
        <ele>799.027</ele>
        <time>2019-06-22T11:02:19Z</time>
      </trkpt>
      <trkpt lat="42.505137" lon="-8.256127">
        <ele>796.715</ele>
        <time>2019-06-22T11:02:20Z</time>
      </trkpt>
      <trkpt lat="42.504956" lon="-8.255995">
        <ele>795.654</ele>
        <time>2019-06-22T11:02:21Z</time>
      </trkpt>
      <trkpt lat="42.504810" lon="-8.255880">
        <ele>795.659</ele>
        <time>2019-06-22T11:02:22Z</time>
      </trkpt>
      <trkpt lat="42.504663" lon="-8.255732">
        <ele>797.242</ele>
        <time>2019-06-22T11:02:23Z</time>
      </trkpt>
      <trkpt lat="42.504539" lon="-8.255560">
        <ele>799.565</ele>
        <time>2019-06-22T11:02:24Z</time>
      </trkpt>
      <trkpt lat="42.504441" lon="-8.255352">
        <ele>801.968</ele>
        <time>2019-06-22T11:02:25Z</time>
      </trkpt>
      <trkpt lat="42.504342" lon="-8.255136">
        <ele>803.814</ele>
        <time>2019-06-22T11:02:26Z</time>
      </trkpt>
      <trkpt lat="42.504293" lon="-8.254868">
        <ele>805.708</ele>
        <time>2019-06-22T11:02:27Z</time>
      </trkpt>
      <trkpt lat="42.504277" lon="-8.254600">
        <ele>806.329</ele>
        <time>2019-06-22T11:02:28Z</time>
      </trkpt>
      <trkpt lat="42.504284" lon="-8.254325">
        <ele>806.393</ele>
        <time>2019-06-22T11:02:29Z</time>
      </trkpt>
      <trkpt lat="42.504310" lon="-8.254040">
        <ele>806.195</ele>
        <time>2019-06-22T11:02:30Z</time>
      </trkpt>
      <trkpt lat="42.504375" lon="-8.253744">
        <ele>805.347</ele>
        <time>2019-06-22T11:02:31Z</time>
      </trkpt>
      <trkpt lat="42.504435" lon="-8.253457">
        <ele>804.455</ele>
        <time>2019-06-22T11:02:32Z</time>
      </trkpt>
      <trkpt lat="42.504487" lon="-8.253133">
        <ele>803.194</ele>
        <time>2019-06-22T11:02:33Z</time>
      </trkpt>
      <trkpt lat="42.504525" lon="-8.252805">
        <ele>800.139</ele>
        <time>2019-06-22T11:02:34Z</time>
      </trkpt>
      <trkpt lat="42.504547" lon="-8.252462">
        <ele>796.612</ele>
        <time>2019-06-22T11:02:35Z</time>
      </trkpt>
      <trkpt lat="42.504547" lon="-8.252119">
        <ele>793.028</ele>
        <time>2019-06-22T11:02:36Z</time>
      </trkpt>
      <trkpt lat="42.504532" lon="-8.251770">
        <ele>790.089</ele>
        <time>2019-06-22T11:02:37Z</time>
      </trkpt>
      <trkpt lat="42.504507" lon="-8.251425">
        <ele>786.617</ele>
        <time>2019-06-22T11:02:38Z</time>
      </trkpt>
      <trkpt lat="42.504484" lon="-8.251094">
        <ele>786.608</ele>
        <time>2019-06-22T11:02:39Z</time>
      </trkpt>
      <trkpt lat="42.504441" lon="-8.250757">
        <ele>786.695</ele>
        <time>2019-06-22T11:02:40Z</time>
      </trkpt>
      <trkpt lat="42.504403" lon="-8.250440">
        <ele>786.669</ele>
        <time>2019-06-22T11:02:41Z</time>
      </trkpt>
      <trkpt lat="42.504359" lon="-8.250133">
        <ele>786.131</ele>
        <time>2019-06-22T11:02:42Z</time>
      </trkpt>
      <trkpt lat="42.504352" lon="-8.249846">
        <ele>785.133</ele>
        <time>2019-06-22T11:02:43Z</time>
      </trkpt>
      <trkpt lat="42.504367" lon="-8.249556">
        <ele>785.161</ele>
        <time>2019-06-22T11:02:44Z</time>
      </trkpt>
      <trkpt lat="42.504412" lon="-8.249276">
        <ele>785.150</ele>
        <time>2019-06-22T11:02:45Z</time>
      </trkpt>
      <trkpt lat="42.504496" lon="-8.249008">
        <ele>786.535</ele>
        <time>2019-06-22T11:02:46Z</time>
      </trkpt>
      <trkpt lat="42.504595" lon="-8.248732">
        <ele>789.418</ele>
        <time>2019-06-22T11:02:47Z</time>
      </trkpt>
      <trkpt lat="42.504702" lon="-8.248455">
        <ele>793.061</ele>
        <time>2019-06-22T11:02:48Z</time>
      </trkpt>
      <trkpt lat="42.504805" lon="-8.248177">
        <ele>795.321</ele>
        <time>2019-06-22T11:02:49Z</time>
      </trkpt>
      <trkpt lat="42.504909" lon="-8.247894">
        <ele>795.313</ele>
        <time>2019-06-22T11:02:50Z</time>
      </trkpt>
      <trkpt lat="42.505015" lon="-8.247610">
        <ele>795.608</ele>
        <time>2019-06-22T11:02:51Z</time>
      </trkpt>
      <trkpt lat="42.505116" lon="-8.247315">
        <ele>795.689</ele>
        <time>2019-06-22T11:02:52Z</time>
      </trkpt>
      <trkpt lat="42.505214" lon="-8.247024">
        <ele>795.673</ele>
        <time>2019-06-22T11:02:53Z</time>
      </trkpt>
      <trkpt lat="42.505303" lon="-8.246725">
        <ele>795.995</ele>
        <time>2019-06-22T11:02:54Z</time>
      </trkpt>
      <trkpt lat="42.505384" lon="-8.246426">
        <ele>795.987</ele>
        <time>2019-06-22T11:02:55Z</time>
      </trkpt>
      <trkpt lat="42.505462" lon="-8.246130">
        <ele>795.435</ele>
        <time>2019-06-22T11:02:56Z</time>
      </trkpt>
      <trkpt lat="42.505538" lon="-8.245846">
        <ele>792.664</ele>
        <time>2019-06-22T11:02:57Z</time>
      </trkpt>
      <trkpt lat="42.505611" lon="-8.245566">
        <ele>790.199</ele>
        <time>2019-06-22T11:02:58Z</time>
      </trkpt>
      <trkpt lat="42.505666" lon="-8.245305">
        <ele>787.932</ele>
        <time>2019-06-22T11:02:59Z</time>
      </trkpt>
      <trkpt lat="42.505720" lon="-8.245024">
        <ele>784.131</ele>
        <time>2019-06-22T11:03:00Z</time>
      </trkpt>
      <trkpt lat="42.505736" lon="-8.244760">
        <ele>782.061</ele>
        <time>2019-06-22T11:03:01Z</time>
      </trkpt>
      <trkpt lat="42.505693" lon="-8.244481">
        <ele>781.207</ele>
        <time>2019-06-22T11:03:02Z</time>
      </trkpt>
      <trkpt lat="42.505656" lon="-8.244207">
        <ele>779.908</ele>
        <time>2019-06-22T11:03:03Z</time>
      </trkpt>
      <trkpt lat="42.505601" lon="-8.243978">
        <ele>777.346</ele>
        <time>2019-06-22T11:03:04Z</time>
      </trkpt>
      <trkpt lat="42.505515" lon="-8.243738">
        <ele>776.160</ele>
        <time>2019-06-22T11:03:05Z</time>
      </trkpt>
      <trkpt lat="42.505417" lon="-8.243527">
        <ele>774.812</ele>
        <time>2019-06-22T11:03:06Z</time>
      </trkpt>
      <trkpt lat="42.505186" lon="-8.243390">
        <ele>773.324</ele>
        <time>2019-06-22T11:03:07Z</time>
      </trkpt>
      <trkpt lat="42.505000" lon="-8.243224">
        <ele>773.362</ele>
        <time>2019-06-22T11:03:08Z</time>
      </trkpt>
      <trkpt lat="42.504809" lon="-8.243042">
        <ele>773.651</ele>
        <time>2019-06-22T11:03:09Z</time>
      </trkpt>
      <trkpt lat="42.504634" lon="-8.242890">
        <ele>773.966</ele>
        <time>2019-06-22T11:03:10Z</time>
      </trkpt>
      <trkpt lat="42.504463" lon="-8.242719">
        <ele>774.799</ele>
        <time>2019-06-22T11:03:11Z</time>
      </trkpt>
      <trkpt lat="42.504308" lon="-8.242555">
        <ele>776.118</ele>
        <time>2019-06-22T11:03:12Z</time>
      </trkpt>
      <trkpt lat="42.504179" lon="-8.242359">
        <ele>776.198</ele>
        <time>2019-06-22T11:03:13Z</time>
      </trkpt>
      <trkpt lat="42.504056" lon="-8.242179">
        <ele>775.517</ele>
        <time>2019-06-22T11:03:14Z</time>
      </trkpt>
      <trkpt lat="42.503939" lon="-8.242011">
        <ele>774.808</ele>
        <time>2019-06-22T11:03:15Z</time>
      </trkpt>
      <trkpt lat="42.503827" lon="-8.241842">
        <ele>774.214</ele>
        <time>2019-06-22T11:03:16Z</time>
      </trkpt>
      <trkpt lat="42.503717" lon="-8.241691">
        <ele>774.288</ele>
        <time>2019-06-22T11:03:17Z</time>
      </trkpt>
      <trkpt lat="42.503603" lon="-8.241548">
        <ele>775.020</ele>
        <time>2019-06-22T11:03:18Z</time>
      </trkpt>
      <trkpt lat="42.503490" lon="-8.241406">
        <ele>775.052</ele>
        <time>2019-06-22T11:03:19Z</time>
      </trkpt>
      <trkpt lat="42.503367" lon="-8.241262">
        <ele>776.260</ele>
        <time>2019-06-22T11:03:20Z</time>
      </trkpt>
      <trkpt lat="42.503260" lon="-8.241106">
        <ele>778.749</ele>
        <time>2019-06-22T11:03:21Z</time>
      </trkpt>
      <trkpt lat="42.503169" lon="-8.240932">
        <ele>780.834</ele>
        <time>2019-06-22T11:03:22Z</time>
      </trkpt>
      <trkpt lat="42.503100" lon="-8.240732">
        <ele>781.237</ele>
        <time>2019-06-22T11:03:23Z</time>
      </trkpt>
      <trkpt lat="42.503045" lon="-8.240517">
        <ele>781.522</ele>
        <time>2019-06-22T11:03:24Z</time>
      </trkpt>
      <trkpt lat="42.502998" lon="-8.240297">
        <ele>781.562</ele>
        <time>2019-06-22T11:03:25Z</time>
      </trkpt>
      <trkpt lat="42.502945" lon="-8.240081">
        <ele>781.208</ele>
        <time>2019-06-22T11:03:26Z</time>
      </trkpt>
      <trkpt lat="42.502877" lon="-8.239873">
        <ele>779.908</ele>
        <time>2019-06-22T11:03:27Z</time>
      </trkpt>
      <trkpt lat="42.502773" lon="-8.239695">
        <ele>778.125</ele>
        <time>2019-06-22T11:03:28Z</time>
      </trkpt>
      <trkpt lat="42.502656" lon="-8.239529">
        <ele>775.599</ele>
        <time>2019-06-22T11:03:29Z</time>
      </trkpt>
      <trkpt lat="42.502511" lon="-8.239440">
        <ele>773.061</ele>
        <time>2019-06-22T11:03:30Z</time>
      </trkpt>
      <trkpt lat="42.502361" lon="-8.239368">
        <ele>770.513</ele>
        <time>2019-06-22T11:03:31Z</time>
      </trkpt>
      <trkpt lat="42.502208" lon="-8.239339">
        <ele>768.441</ele>
        <time>2019-06-22T11:03:32Z</time>
      </trkpt>
      <trkpt lat="42.502049" lon="-8.239312">
        <ele>768.410</ele>
        <time>2019-06-22T11:03:33Z</time>
      </trkpt>
      <trkpt lat="42.501891" lon="-8.239282">
        <ele>769.035</ele>
        <time>2019-06-22T11:03:34Z</time>
      </trkpt>
      <trkpt lat="42.501739" lon="-8.239247">
        <ele>770.458</ele>
        <time>2019-06-22T11:03:35Z</time>
      </trkpt>
      <trkpt lat="42.501585" lon="-8.239187">
        <ele>772.091</ele>
        <time>2019-06-22T11:03:36Z</time>
      </trkpt>
      <trkpt lat="42.501437" lon="-8.239091">
        <ele>773.781</ele>
        <time>2019-06-22T11:03:37Z</time>
      </trkpt>
      <trkpt lat="42.501297" lon="-8.238963">
        <ele>774.519</ele>
        <time>2019-06-22T11:03:38Z</time>
      </trkpt>
      <trkpt lat="42.501167" lon="-8.238811">
        <ele>774.508</ele>
        <time>2019-06-22T11:03:39Z</time>
      </trkpt>
      <trkpt lat="42.501038" lon="-8.238628">
        <ele>774.572</ele>
        <time>2019-06-22T11:03:40Z</time>
      </trkpt>
      <trkpt lat="42.500906" lon="-8.238409">
        <ele>773.396</ele>
        <time>2019-06-22T11:03:41Z</time>
      </trkpt>
      <trkpt lat="42.500788" lon="-8.238193">
        <ele>772.138</ele>
        <time>2019-06-22T11:03:42Z</time>
      </trkpt>
      <trkpt lat="42.500674" lon="-8.237966">
        <ele>770.310</ele>
        <time>2019-06-22T11:03:43Z</time>
      </trkpt>
      <trkpt lat="42.500560" lon="-8.237735">
        <ele>768.878</ele>
        <time>2019-06-22T11:03:44Z</time>
      </trkpt>
      <trkpt lat="42.500447" lon="-8.237504">
        <ele>767.327</ele>
        <time>2019-06-22T11:03:45Z</time>
      </trkpt>
      <trkpt lat="42.500335" lon="-8.237278">
        <ele>766.572</ele>
        <time>2019-06-22T11:03:46Z</time>
      </trkpt>
      <trkpt lat="42.500222" lon="-8.237058">
        <ele>765.055</ele>
        <time>2019-06-22T11:03:47Z</time>
      </trkpt>
      <trkpt lat="42.500099" lon="-8.236860">
        <ele>764.527</ele>
        <time>2019-06-22T11:03:48Z</time>
      </trkpt>
      <trkpt lat="42.499964" lon="-8.236660">
        <ele>764.168</ele>
        <time>2019-06-22T11:03:49Z</time>
      </trkpt>
      <trkpt lat="42.499824" lon="-8.236481">
        <ele>763.114</ele>
        <time>2019-06-22T11:03:50Z</time>
      </trkpt>
      <trkpt lat="42.499653" lon="-8.236368">
        <ele>761.708</ele>
        <time>2019-06-22T11:03:51Z</time>
      </trkpt>
      <trkpt lat="42.499479" lon="-8.236279">
        <ele>761.695</ele>
        <time>2019-06-22T11:03:52Z</time>
      </trkpt>
      <trkpt lat="42.499290" lon="-8.236178">
        <ele>761.489</ele>
        <time>2019-06-22T11:03:53Z</time>
      </trkpt>
      <trkpt lat="42.499113" lon="-8.236142">
        <ele>761.441</ele>
        <time>2019-06-22T11:03:54Z</time>
      </trkpt>
      <trkpt lat="42.498925" lon="-8.236065">
        <ele>761.573</ele>
        <time>2019-06-22T11:03:55Z</time>
      </trkpt>
      <trkpt lat="42.498752" lon="-8.235964">
        <ele>763.441</ele>
        <time>2019-06-22T11:03:56Z</time>
      </trkpt>
      <trkpt lat="42.498579" lon="-8.235831">
        <ele>765.330</ele>
        <time>2019-06-22T11:03:57Z</time>
      </trkpt>
      <trkpt lat="42.498410" lon="-8.235700">
        <ele>766.875</ele>
        <time>2019-06-22T11:03:58Z</time>
      </trkpt>
      <trkpt lat="42.498258" lon="-8.235516">
        <ele>768.678</ele>
        <time>2019-06-22T11:03:59Z</time>
      </trkpt>
      <trkpt lat="42.498083" lon="-8.235330">
        <ele>768.683</ele>
        <time>2019-06-22T11:04:00Z</time>
      </trkpt>
      <trkpt lat="42.497928" lon="-8.235140">
        <ele>768.525</ele>
        <time>2019-06-22T11:04:01Z</time>
      </trkpt>
      <trkpt lat="42.497758" lon="-8.234925">
        <ele>767.517</ele>
        <time>2019-06-22T11:04:02Z</time>
      </trkpt>
      <trkpt lat="42.497593" lon="-8.234735">
        <ele>766.608</ele>
        <time>2019-06-22T11:04:03Z</time>
      </trkpt>
      <trkpt lat="42.497422" lon="-8.234530">
        <ele>765.291</ele>
        <time>2019-06-22T11:04:04Z</time>
      </trkpt>
      <trkpt lat="42.497256" lon="-8.234339">
        <ele>764.935</ele>
        <time>2019-06-22T11:04:05Z</time>
      </trkpt>
      <trkpt lat="42.497088" lon="-8.234143">
        <ele>764.767</ele>
        <time>2019-06-22T11:04:06Z</time>
      </trkpt>
      <trkpt lat="42.496935" lon="-8.233958">
        <ele>764.539</ele>
        <time>2019-06-22T11:04:07Z</time>
      </trkpt>
      <trkpt lat="42.496780" lon="-8.233777">
        <ele>763.837</ele>
        <time>2019-06-22T11:04:08Z</time>
      </trkpt>
      <trkpt lat="42.496623" lon="-8.233579">
        <ele>763.876</ele>
        <time>2019-06-22T11:04:09Z</time>
      </trkpt>
      <trkpt lat="42.496489" lon="-8.233375">
        <ele>765.191</ele>
        <time>2019-06-22T11:04:10Z</time>
      </trkpt>
      <trkpt lat="42.496361" lon="-8.233138">
        <ele>766.164</ele>
        <time>2019-06-22T11:04:11Z</time>
      </trkpt>
      <trkpt lat="42.496254" lon="-8.232882">
        <ele>767.196</ele>
        <time>2019-06-22T11:04:12Z</time>
      </trkpt>
      <trkpt lat="42.496162" lon="-8.232603">
        <ele>768.131</ele>
        <time>2019-06-22T11:04:13Z</time>
      </trkpt>
      <trkpt lat="42.496104" lon="-8.232319">
        <ele>769.824</ele>
        <time>2019-06-22T11:04:14Z</time>
      </trkpt>
      <trkpt lat="42.496069" lon="-8.232025">
        <ele>769.908</ele>
        <time>2019-06-22T11:04:15Z</time>
      </trkpt>
      <trkpt lat="42.496045" lon="-8.231724">
        <ele>769.942</ele>
        <time>2019-06-22T11:04:16Z</time>
      </trkpt>
      <trkpt lat="42.496014" lon="-8.231416">
        <ele>769.936</ele>
        <time>2019-06-22T11:04:17Z</time>
      </trkpt>
      <trkpt lat="42.495982" lon="-8.231116">
        <ele>769.848</ele>
        <time>2019-06-22T11:04:18Z</time>
      </trkpt>
      <trkpt lat="42.495954" lon="-8.230798">
        <ele>769.860</ele>
        <time>2019-06-22T11:04:19Z</time>
      </trkpt>
      <trkpt lat="42.495917" lon="-8.230475">
        <ele>769.358</ele>
        <time>2019-06-22T11:04:20Z</time>
      </trkpt>
      <trkpt lat="42.495886" lon="-8.230167">
        <ele>768.887</ele>
        <time>2019-06-22T11:04:21Z</time>
      </trkpt>
      <trkpt lat="42.495860" lon="-8.229859">
        <ele>767.922</ele>
        <time>2019-06-22T11:04:22Z</time>
      </trkpt>
      <trkpt lat="42.495835" lon="-8.229553">
        <ele>767.715</ele>
        <time>2019-06-22T11:04:23Z</time>
      </trkpt>
      <trkpt lat="42.495802" lon="-8.229244">
        <ele>767.732</ele>
        <time>2019-06-22T11:04:24Z</time>
      </trkpt>
      <trkpt lat="42.495764" lon="-8.228954">
        <ele>768.592</ele>
        <time>2019-06-22T11:04:25Z</time>
      </trkpt>
      <trkpt lat="42.495716" lon="-8.228676">
        <ele>769.311</ele>
        <time>2019-06-22T11:04:26Z</time>
      </trkpt>
      <trkpt lat="42.495655" lon="-8.228410">
        <ele>770.408</ele>
        <time>2019-06-22T11:04:27Z</time>
      </trkpt>
      <trkpt lat="42.495584" lon="-8.228146">
        <ele>773.326</ele>
        <time>2019-06-22T11:04:28Z</time>
      </trkpt>
      <trkpt lat="42.495488" lon="-8.227889">
        <ele>774.610</ele>
        <time>2019-06-22T11:04:29Z</time>
      </trkpt>
      <trkpt lat="42.495379" lon="-8.227647">
        <ele>776.742</ele>
        <time>2019-06-22T11:04:30Z</time>
      </trkpt>
      <trkpt lat="42.495249" lon="-8.227409">
        <ele>779.044</ele>
        <time>2019-06-22T11:04:31Z</time>
      </trkpt>
      <trkpt lat="42.495108" lon="-8.227184">
        <ele>781.782</ele>
        <time>2019-06-22T11:04:32Z</time>
      </trkpt>
      <trkpt lat="42.494939" lon="-8.226964">
        <ele>782.251</ele>
        <time>2019-06-22T11:04:33Z</time>
      </trkpt>
      <trkpt lat="42.494773" lon="-8.226781">
        <ele>784.036</ele>
        <time>2019-06-22T11:04:34Z</time>
      </trkpt>
      <trkpt lat="42.494593" lon="-8.226595">
        <ele>784.989</ele>
        <time>2019-06-22T11:04:35Z</time>
      </trkpt>
      <trkpt lat="42.494419" lon="-8.226423">
        <ele>784.961</ele>
        <time>2019-06-22T11:04:36Z</time>
      </trkpt>
      <trkpt lat="42.494262" lon="-8.226272">
        <ele>785.121</ele>
        <time>2019-06-22T11:04:37Z</time>
      </trkpt>
      <trkpt lat="42.494093" lon="-8.226120">
        <ele>785.213</ele>
        <time>2019-06-22T11:04:38Z</time>
      </trkpt>
      <trkpt lat="42.493942" lon="-8.225965">
        <ele>786.508</ele>
        <time>2019-06-22T11:04:39Z</time>
      </trkpt>
      <trkpt lat="42.493797" lon="-8.225806">
        <ele>788.119</ele>
        <time>2019-06-22T11:04:40Z</time>
      </trkpt>
      <trkpt lat="42.493651" lon="-8.225644">
        <ele>790.653</ele>
        <time>2019-06-22T11:04:41Z</time>
      </trkpt>
      <trkpt lat="42.493508" lon="-8.225480">
        <ele>793.215</ele>
        <time>2019-06-22T11:04:42Z</time>
      </trkpt>
      <trkpt lat="42.493385" lon="-8.225279">
        <ele>795.597</ele>
        <time>2019-06-22T11:04:43Z</time>
      </trkpt>
      <trkpt lat="42.493257" lon="-8.225056">
        <ele>796.515</ele>
        <time>2019-06-22T11:04:44Z</time>
      </trkpt>
      <trkpt lat="42.493148" lon="-8.224831">
        <ele>796.684</ele>
        <time>2019-06-22T11:04:45Z</time>
      </trkpt>
      <trkpt lat="42.493049" lon="-8.224593">
        <ele>796.659</ele>
        <time>2019-06-22T11:04:46Z</time>
      </trkpt>
      <trkpt lat="42.492956" lon="-8.224326">
        <ele>796.362</ele>
        <time>2019-06-22T11:04:47Z</time>
      </trkpt>
      <trkpt lat="42.492877" lon="-8.224042">
        <ele>795.829</ele>
        <time>2019-06-22T11:04:48Z</time>
      </trkpt>
      <trkpt lat="42.492827" lon="-8.223751">
        <ele>795.200</ele>
        <time>2019-06-22T11:04:49Z</time>
      </trkpt>
      <trkpt lat="42.492783" lon="-8.223453">
        <ele>794.320</ele>
        <time>2019-06-22T11:04:50Z</time>
      </trkpt>
      <trkpt lat="42.492778" lon="-8.223165">
        <ele>793.508</ele>
        <time>2019-06-22T11:04:51Z</time>
      </trkpt>
      <trkpt lat="42.492802" lon="-8.222872">
        <ele>792.715</ele>
        <time>2019-06-22T11:04:52Z</time>
      </trkpt>
      <trkpt lat="42.492790" lon="-8.222570">
        <ele>791.979</ele>
        <time>2019-06-22T11:04:53Z</time>
      </trkpt>
      <trkpt lat="42.492800" lon="-8.222296">
        <ele>790.761</ele>
        <time>2019-06-22T11:04:54Z</time>
      </trkpt>
      <trkpt lat="42.492777" lon="-8.222003">
        <ele>789.163</ele>
        <time>2019-06-22T11:04:55Z</time>
      </trkpt>
      <trkpt lat="42.492746" lon="-8.221715">
        <ele>785.961</ele>
        <time>2019-06-22T11:04:56Z</time>
      </trkpt>
      <trkpt lat="42.492684" lon="-8.221425">
        <ele>784.180</ele>
        <time>2019-06-22T11:04:57Z</time>
      </trkpt>
      <trkpt lat="42.492628" lon="-8.221135">
        <ele>782.285</ele>
        <time>2019-06-22T11:04:58Z</time>
      </trkpt>
      <trkpt lat="42.492551" lon="-8.220851">
        <ele>781.948</ele>
        <time>2019-06-22T11:04:59Z</time>
      </trkpt>
      <trkpt lat="42.492477" lon="-8.220572">
        <ele>781.942</ele>
        <time>2019-06-22T11:05:00Z</time>
      </trkpt>
      <trkpt lat="42.492389" lon="-8.220290">
        <ele>782.922</ele>
        <time>2019-06-22T11:05:01Z</time>
      </trkpt>
      <trkpt lat="42.492306" lon="-8.220005">
        <ele>783.114</ele>
        <time>2019-06-22T11:05:02Z</time>
      </trkpt>
      <trkpt lat="42.492216" lon="-8.219727">
        <ele>783.108</ele>
        <time>2019-06-22T11:05:03Z</time>
      </trkpt>
      <trkpt lat="42.492126" lon="-8.219453">
        <ele>782.437</ele>
        <time>2019-06-22T11:05:04Z</time>
      </trkpt>
      <trkpt lat="42.492021" lon="-8.219185">
        <ele>781.631</ele>
        <time>2019-06-22T11:05:05Z</time>
      </trkpt>
      <trkpt lat="42.491931" lon="-8.218926">
        <ele>780.693</ele>
        <time>2019-06-22T11:05:06Z</time>
      </trkpt>
      <trkpt lat="42.491831" lon="-8.218664">
        <ele>779.575</ele>
        <time>2019-06-22T11:05:07Z</time>
      </trkpt>
      <trkpt lat="42.491727" lon="-8.218419">
        <ele>778.273</ele>
        <time>2019-06-22T11:05:08Z</time>
      </trkpt>
      <trkpt lat="42.491636" lon="-8.218183">
        <ele>777.552</ele>
        <time>2019-06-22T11:05:09Z</time>
      </trkpt>
      <trkpt lat="42.491546" lon="-8.217946">
        <ele>776.457</ele>
        <time>2019-06-22T11:05:10Z</time>
      </trkpt>
      <trkpt lat="42.491492" lon="-8.217704">
        <ele>776.030</ele>
        <time>2019-06-22T11:05:11Z</time>
      </trkpt>
      <trkpt lat="42.491451" lon="-8.217449">
        <ele>775.895</ele>
        <time>2019-06-22T11:05:12Z</time>
      </trkpt>
      <trkpt lat="42.491429" lon="-8.217188">
        <ele>775.649</ele>
        <time>2019-06-22T11:05:13Z</time>
      </trkpt>
      <trkpt lat="42.491428" lon="-8.216925">
        <ele>775.123</ele>
        <time>2019-06-22T11:05:14Z</time>
      </trkpt>
      <trkpt lat="42.491436" lon="-8.216663">
        <ele>774.708</ele>
        <time>2019-06-22T11:05:15Z</time>
      </trkpt>
      <trkpt lat="42.491455" lon="-8.216415">
        <ele>773.652</ele>
        <time>2019-06-22T11:05:16Z</time>
      </trkpt>
      <trkpt lat="42.491468" lon="-8.216168">
        <ele>773.686</ele>
        <time>2019-06-22T11:05:17Z</time>
      </trkpt>
      <trkpt lat="42.491445" lon="-8.215911">
        <ele>770.698</ele>
        <time>2019-06-22T11:05:18Z</time>
      </trkpt>
      <trkpt lat="42.491398" lon="-8.215662">
        <ele>768.620</ele>
        <time>2019-06-22T11:05:19Z</time>
      </trkpt>
      <trkpt lat="42.491326" lon="-8.215426">
        <ele>766.338</ele>
        <time>2019-06-22T11:05:20Z</time>
      </trkpt>
      <trkpt lat="42.491254" lon="-8.215194">
        <ele>763.457</ele>
        <time>2019-06-22T11:05:21Z</time>
      </trkpt>
      <trkpt lat="42.491171" lon="-8.214990">
        <ele>760.762</ele>
        <time>2019-06-22T11:05:22Z</time>
      </trkpt>
      <trkpt lat="42.491086" lon="-8.214775">
        <ele>760.515</ele>
        <time>2019-06-22T11:05:23Z</time>
      </trkpt>
      <trkpt lat="42.490953" lon="-8.214603">
        <ele>759.599</ele>
        <time>2019-06-22T11:05:24Z</time>
      </trkpt>
      <trkpt lat="42.490721" lon="-8.214490">
        <ele>758.507</ele>
        <time>2019-06-22T11:05:25Z</time>
      </trkpt>
      <trkpt lat="42.490441" lon="-8.214408">
        <ele>758.527</ele>
        <time>2019-06-22T11:05:26Z</time>
      </trkpt>
      <trkpt lat="42.490190" lon="-8.214444">
        <ele>758.808</ele>
        <time>2019-06-22T11:05:27Z</time>
      </trkpt>
      <trkpt lat="42.489942" lon="-8.214542">
        <ele>758.942</ele>
        <time>2019-06-22T11:05:28Z</time>
      </trkpt>
      <trkpt lat="42.489717" lon="-8.214548">
        <ele>759.176</ele>
        <time>2019-06-22T11:05:29Z</time>
      </trkpt>
      <trkpt lat="42.489520" lon="-8.214472">
        <ele>759.198</ele>
        <time>2019-06-22T11:05:30Z</time>
      </trkpt>
      <trkpt lat="42.489328" lon="-8.214392">
        <ele>759.180</ele>
        <time>2019-06-22T11:05:31Z</time>
      </trkpt>
      <trkpt lat="42.489160" lon="-8.214243">
        <ele>759.168</ele>
        <time>2019-06-22T11:05:32Z</time>
      </trkpt>
      <trkpt lat="42.488970" lon="-8.214110">
        <ele>758.087</ele>
        <time>2019-06-22T11:05:33Z</time>
      </trkpt>
      <trkpt lat="42.488788" lon="-8.213900">
        <ele>756.632</ele>
        <time>2019-06-22T11:05:34Z</time>
      </trkpt>
      <trkpt lat="42.488613" lon="-8.213700">
        <ele>755.595</ele>
        <time>2019-06-22T11:05:35Z</time>
      </trkpt>
      <trkpt lat="42.488466" lon="-8.213534">
        <ele>753.975</ele>
        <time>2019-06-22T11:05:36Z</time>
      </trkpt>
      <trkpt lat="42.488306" lon="-8.213355">
        <ele>752.628</ele>
        <time>2019-06-22T11:05:37Z</time>
      </trkpt>
      <trkpt lat="42.488137" lon="-8.213183">
        <ele>751.220</ele>
        <time>2019-06-22T11:05:38Z</time>
      </trkpt>
      <trkpt lat="42.487981" lon="-8.213006">
        <ele>750.108</ele>
        <time>2019-06-22T11:05:39Z</time>
      </trkpt>
      <trkpt lat="42.487815" lon="-8.212826">
        <ele>748.510</ele>
        <time>2019-06-22T11:05:40Z</time>
      </trkpt>
      <trkpt lat="42.487664" lon="-8.212641">
        <ele>747.684</ele>
        <time>2019-06-22T11:05:41Z</time>
      </trkpt>
      <trkpt lat="42.487559" lon="-8.212423">
        <ele>746.386</ele>
        <time>2019-06-22T11:05:42Z</time>
      </trkpt>
      <trkpt lat="42.487444" lon="-8.212198">
        <ele>745.188</ele>
        <time>2019-06-22T11:05:43Z</time>
      </trkpt>
      <trkpt lat="42.487358" lon="-8.211960">
        <ele>744.086</ele>
        <time>2019-06-22T11:05:44Z</time>
      </trkpt>
      <trkpt lat="42.487289" lon="-8.211710">
        <ele>743.415</ele>
        <time>2019-06-22T11:05:45Z</time>
      </trkpt>
      <trkpt lat="42.487236" lon="-8.211443">
        <ele>742.430</ele>
        <time>2019-06-22T11:05:46Z</time>
      </trkpt>
      <trkpt lat="42.487197" lon="-8.211173">
        <ele>741.023</ele>
        <time>2019-06-22T11:05:47Z</time>
      </trkpt>
      <trkpt lat="42.487155" lon="-8.210903">
        <ele>739.577</ele>
        <time>2019-06-22T11:05:48Z</time>
      </trkpt>
      <trkpt lat="42.487160" lon="-8.210628">
        <ele>738.361</ele>
        <time>2019-06-22T11:05:49Z</time>
      </trkpt>
      <trkpt lat="42.487166" lon="-8.210340">
        <ele>737.327</ele>
        <time>2019-06-22T11:05:50Z</time>
      </trkpt>
      <trkpt lat="42.487206" lon="-8.210078">
        <ele>736.508</ele>
        <time>2019-06-22T11:05:51Z</time>
      </trkpt>
      <trkpt lat="42.487240" lon="-8.209807">
        <ele>735.980</ele>
        <time>2019-06-22T11:05:52Z</time>
      </trkpt>
      <trkpt lat="42.487279" lon="-8.209538">
        <ele>735.574</ele>
        <time>2019-06-22T11:05:53Z</time>
      </trkpt>
      <trkpt lat="42.487315" lon="-8.209290">
        <ele>734.966</ele>
        <time>2019-06-22T11:05:54Z</time>
      </trkpt>
      <trkpt lat="42.487319" lon="-8.209016">
        <ele>733.758</ele>
        <time>2019-06-22T11:05:55Z</time>
      </trkpt>
      <trkpt lat="42.487333" lon="-8.208752">
        <ele>731.826</ele>
        <time>2019-06-22T11:05:56Z</time>
      </trkpt>
      <trkpt lat="42.487317" lon="-8.208474">
        <ele>730.635</ele>
        <time>2019-06-22T11:05:57Z</time>
      </trkpt>
      <trkpt lat="42.487282" lon="-8.208205">
        <ele>729.690</ele>
        <time>2019-06-22T11:05:58Z</time>
      </trkpt>
      <trkpt lat="42.487236" lon="-8.207933">
        <ele>728.183</ele>
        <time>2019-06-22T11:05:59Z</time>
      </trkpt>
      <trkpt lat="42.487185" lon="-8.207661">
        <ele>727.081</ele>
        <time>2019-06-22T11:06:00Z</time>
      </trkpt>
      <trkpt lat="42.487096" lon="-8.207390">
        <ele>726.561</ele>
        <time>2019-06-22T11:06:01Z</time>
      </trkpt>
      <trkpt lat="42.487015" lon="-8.207119">
        <ele>725.017</ele>
        <time>2019-06-22T11:06:02Z</time>
      </trkpt>
      <trkpt lat="42.486892" lon="-8.206870">
        <ele>723.408</ele>
        <time>2019-06-22T11:06:03Z</time>
      </trkpt>
      <trkpt lat="42.486747" lon="-8.206609">
        <ele>721.871</ele>
        <time>2019-06-22T11:06:04Z</time>
      </trkpt>
      <trkpt lat="42.486630" lon="-8.206423">
        <ele>721.115</ele>
        <time>2019-06-22T11:06:05Z</time>
      </trkpt>
      <trkpt lat="42.486512" lon="-8.206201">
        <ele>720.237</ele>
        <time>2019-06-22T11:06:06Z</time>
      </trkpt>
      <trkpt lat="42.486395" lon="-8.205965">
        <ele>719.789</ele>
        <time>2019-06-22T11:06:07Z</time>
      </trkpt>
      <trkpt lat="42.486290" lon="-8.205725">
        <ele>719.037</ele>
        <time>2019-06-22T11:06:08Z</time>
      </trkpt>
      <trkpt lat="42.486198" lon="-8.205483">
        <ele>718.566</ele>
        <time>2019-06-22T11:06:09Z</time>
      </trkpt>
      <trkpt lat="42.486135" lon="-8.205262">
        <ele>717.251</ele>
        <time>2019-06-22T11:06:10Z</time>
      </trkpt>
      <trkpt lat="42.486070" lon="-8.205000">
        <ele>716.074</ele>
        <time>2019-06-22T11:06:11Z</time>
      </trkpt>
      <trkpt lat="42.486001" lon="-8.204716">
        <ele>714.532</ele>
        <time>2019-06-22T11:06:12Z</time>
      </trkpt>
      <trkpt lat="42.485973" lon="-8.204417">
        <ele>712.592</ele>
        <time>2019-06-22T11:06:13Z</time>
      </trkpt>
      <trkpt lat="42.485955" lon="-8.204114">
        <ele>710.511</ele>
        <time>2019-06-22T11:06:14Z</time>
      </trkpt>
      <trkpt lat="42.485970" lon="-8.203816">
        <ele>709.008</ele>
        <time>2019-06-22T11:06:15Z</time>
      </trkpt>
      <trkpt lat="42.485994" lon="-8.203512">
        <ele>706.116</ele>
        <time>2019-06-22T11:06:16Z</time>
      </trkpt>
      <trkpt lat="42.486002" lon="-8.203222">
        <ele>703.590</ele>
        <time>2019-06-22T11:06:17Z</time>
      </trkpt>
      <trkpt lat="42.486020" lon="-8.202943">
        <ele>703.512</ele>
        <time>2019-06-22T11:06:18Z</time>
      </trkpt>
      <trkpt lat="42.486027" lon="-8.202661">
        <ele>701.574</ele>
        <time>2019-06-22T11:06:19Z</time>
      </trkpt>
      <trkpt lat="42.486024" lon="-8.202389">
        <ele>699.922</ele>
        <time>2019-06-22T11:06:20Z</time>
      </trkpt>
      <trkpt lat="42.486017" lon="-8.202094">
        <ele>697.871</ele>
        <time>2019-06-22T11:06:21Z</time>
      </trkpt>
      <trkpt lat="42.485987" lon="-8.201799">
        <ele>696.176</ele>
        <time>2019-06-22T11:06:22Z</time>
      </trkpt>
      <trkpt lat="42.485948" lon="-8.201512">
        <ele>695.089</ele>
        <time>2019-06-22T11:06:23Z</time>
      </trkpt>
      <trkpt lat="42.485888" lon="-8.201231">
        <ele>693.959</ele>
        <time>2019-06-22T11:06:24Z</time>
      </trkpt>
      <trkpt lat="42.485812" lon="-8.200956">
        <ele>692.103</ele>
        <time>2019-06-22T11:06:25Z</time>
      </trkpt>
      <trkpt lat="42.485735" lon="-8.200682">
        <ele>690.223</ele>
        <time>2019-06-22T11:06:26Z</time>
      </trkpt>
      <trkpt lat="42.485589" lon="-8.200419">
        <ele>689.308</ele>
        <time>2019-06-22T11:06:27Z</time>
      </trkpt>
      <trkpt lat="42.485460" lon="-8.200160">
        <ele>687.828</ele>
        <time>2019-06-22T11:06:28Z</time>
      </trkpt>
      <trkpt lat="42.485314" lon="-8.199918">
        <ele>687.372</ele>
        <time>2019-06-22T11:06:29Z</time>
      </trkpt>
      <trkpt lat="42.485183" lon="-8.199681">
        <ele>687.174</ele>
        <time>2019-06-22T11:06:30Z</time>
      </trkpt>
      <trkpt lat="42.485051" lon="-8.199440">
        <ele>686.256</ele>
        <time>2019-06-22T11:06:31Z</time>
      </trkpt>
      <trkpt lat="42.484950" lon="-8.199185">
        <ele>685.734</ele>
        <time>2019-06-22T11:06:32Z</time>
      </trkpt>
      <trkpt lat="42.484857" lon="-8.198931">
        <ele>685.763</ele>
        <time>2019-06-22T11:06:33Z</time>
      </trkpt>
      <trkpt lat="42.484765" lon="-8.198656">
        <ele>685.018</ele>
        <time>2019-06-22T11:06:34Z</time>
      </trkpt>
      <trkpt lat="42.484683" lon="-8.198383">
        <ele>683.941</ele>
        <time>2019-06-22T11:06:35Z</time>
      </trkpt>
      <trkpt lat="42.484672" lon="-8.198096">
        <ele>683.377</ele>
        <time>2019-06-22T11:06:36Z</time>
      </trkpt>
      <trkpt lat="42.484658" lon="-8.197806">
        <ele>682.761</ele>
        <time>2019-06-22T11:06:37Z</time>
      </trkpt>
      <trkpt lat="42.484642" lon="-8.197524">
        <ele>681.527</ele>
        <time>2019-06-22T11:06:38Z</time>
      </trkpt>
      <trkpt lat="42.484609" lon="-8.197232">
        <ele>679.608</ele>
        <time>2019-06-22T11:06:39Z</time>
      </trkpt>
      <trkpt lat="42.484563" lon="-8.196933">
        <ele>677.840</ele>
        <time>2019-06-22T11:06:40Z</time>
      </trkpt>
      <trkpt lat="42.484511" lon="-8.196645">
        <ele>676.114</ele>
        <time>2019-06-22T11:06:41Z</time>
      </trkpt>
      <trkpt lat="42.484436" lon="-8.196366">
        <ele>673.646</ele>
        <time>2019-06-22T11:06:42Z</time>
      </trkpt>
      <trkpt lat="42.484374" lon="-8.196085">
        <ele>671.318</ele>
        <time>2019-06-22T11:06:43Z</time>
      </trkpt>
      <trkpt lat="42.484261" lon="-8.195826">
        <ele>669.896</ele>
        <time>2019-06-22T11:06:44Z</time>
      </trkpt>
      <trkpt lat="42.484149" lon="-8.195562">
        <ele>668.085</ele>
        <time>2019-06-22T11:06:45Z</time>
      </trkpt>
      <trkpt lat="42.484048" lon="-8.195318">
        <ele>666.390</ele>
        <time>2019-06-22T11:06:46Z</time>
      </trkpt>
      <trkpt lat="42.483866" lon="-8.195119">
        <ele>665.423</ele>
        <time>2019-06-22T11:06:47Z</time>
      </trkpt>
      <trkpt lat="42.483719" lon="-8.194902">
        <ele>664.979</ele>
        <time>2019-06-22T11:06:48Z</time>
      </trkpt>
      <trkpt lat="42.483557" lon="-8.194662">
        <ele>663.005</ele>
        <time>2019-06-22T11:06:49Z</time>
      </trkpt>
      <trkpt lat="42.483399" lon="-8.194429">
        <ele>662.025</ele>
        <time>2019-06-22T11:06:50Z</time>
      </trkpt>
      <trkpt lat="42.483230" lon="-8.194182">
        <ele>660.708</ele>
        <time>2019-06-22T11:06:51Z</time>
      </trkpt>
      <trkpt lat="42.483068" lon="-8.193939">
        <ele>659.680</ele>
        <time>2019-06-22T11:06:52Z</time>
      </trkpt>
      <trkpt lat="42.482902" lon="-8.193684">
        <ele>658.324</ele>
        <time>2019-06-22T11:06:53Z</time>
      </trkpt>
      <trkpt lat="42.482734" lon="-8.193425">
        <ele>657.296</ele>
        <time>2019-06-22T11:06:54Z</time>
      </trkpt>
      <trkpt lat="42.482556" lon="-8.193177">
        <ele>656.248</ele>
        <time>2019-06-22T11:06:55Z</time>
      </trkpt>
      <trkpt lat="42.482388" lon="-8.192913">
        <ele>655.016</ele>
        <time>2019-06-22T11:06:56Z</time>
      </trkpt>
      <trkpt lat="42.482230" lon="-8.192650">
        <ele>652.625</ele>
        <time>2019-06-22T11:06:57Z</time>
      </trkpt>
      <trkpt lat="42.482055" lon="-8.192405">
        <ele>650.480</ele>
        <time>2019-06-22T11:06:58Z</time>
      </trkpt>
      <trkpt lat="42.481890" lon="-8.192141">
        <ele>648.683</ele>
        <time>2019-06-22T11:06:59Z</time>
      </trkpt>
      <trkpt lat="42.481735" lon="-8.191875">
        <ele>646.892</ele>
        <time>2019-06-22T11:07:00Z</time>
      </trkpt>
      <trkpt lat="42.481575" lon="-8.191599">
        <ele>645.673</ele>
        <time>2019-06-22T11:07:01Z</time>
      </trkpt>
      <trkpt lat="42.481421" lon="-8.191338">
        <ele>644.520</ele>
        <time>2019-06-22T11:07:02Z</time>
      </trkpt>
      <trkpt lat="42.481266" lon="-8.191072">
        <ele>643.608</ele>
        <time>2019-06-22T11:07:03Z</time>
      </trkpt>
      <trkpt lat="42.481128" lon="-8.190805">
        <ele>641.992</ele>
        <time>2019-06-22T11:07:04Z</time>
      </trkpt>
      <trkpt lat="42.480983" lon="-8.190540">
        <ele>639.826</ele>
        <time>2019-06-22T11:07:05Z</time>
      </trkpt>
      <trkpt lat="42.480841" lon="-8.190283">
        <ele>637.238</ele>
        <time>2019-06-22T11:07:06Z</time>
      </trkpt>
      <trkpt lat="42.480709" lon="-8.190034">
        <ele>635.040</ele>
        <time>2019-06-22T11:07:07Z</time>
      </trkpt>
      <trkpt lat="42.480576" lon="-8.189794">
        <ele>632.928</ele>
        <time>2019-06-22T11:07:08Z</time>
      </trkpt>
      <trkpt lat="42.480451" lon="-8.189562">
        <ele>630.997</ele>
        <time>2019-06-22T11:07:09Z</time>
      </trkpt>
      <trkpt lat="42.480326" lon="-8.189330">
        <ele>628.892</ele>
        <time>2019-06-22T11:07:10Z</time>
      </trkpt>
      <trkpt lat="42.480199" lon="-8.189102">
        <ele>626.345</ele>
        <time>2019-06-22T11:07:11Z</time>
      </trkpt>
      <trkpt lat="42.480066" lon="-8.188874">
        <ele>623.163</ele>
        <time>2019-06-22T11:07:12Z</time>
      </trkpt>
      <trkpt lat="42.479941" lon="-8.188671">
        <ele>620.644</ele>
        <time>2019-06-22T11:07:13Z</time>
      </trkpt>
      <trkpt lat="42.479792" lon="-8.188478">
        <ele>617.318</ele>
        <time>2019-06-22T11:07:14Z</time>
      </trkpt>
      <trkpt lat="42.479660" lon="-8.188281">
        <ele>614.608</ele>
        <time>2019-06-22T11:07:15Z</time>
      </trkpt>
      <trkpt lat="42.479550" lon="-8.188183">
        <ele>612.999</ele>
        <time>2019-06-22T11:07:16Z</time>
      </trkpt>
      <trkpt lat="42.479418" lon="-8.188033">
        <ele>612.083</ele>
        <time>2019-06-22T11:07:17Z</time>
      </trkpt>
      <trkpt lat="42.479205" lon="-8.187925">
        <ele>611.465</ele>
        <time>2019-06-22T11:07:18Z</time>
      </trkpt>
      <trkpt lat="42.478962" lon="-8.187850">
        <ele>611.497</ele>
        <time>2019-06-22T11:07:19Z</time>
      </trkpt>
      <trkpt lat="42.478771" lon="-8.187747">
        <ele>610.595</ele>
        <time>2019-06-22T11:07:20Z</time>
      </trkpt>
      <trkpt lat="42.478547" lon="-8.187757">
        <ele>610.524</ele>
        <time>2019-06-22T11:07:21Z</time>
      </trkpt>
      <trkpt lat="42.478341" lon="-8.187693">
        <ele>609.949</ele>
        <time>2019-06-22T11:07:22Z</time>
      </trkpt>
      <trkpt lat="42.478191" lon="-8.187826">
        <ele>609.472</ele>
        <time>2019-06-22T11:07:23Z</time>
      </trkpt>
      <trkpt lat="42.478027" lon="-8.187880">
        <ele>609.075</ele>
        <time>2019-06-22T11:07:24Z</time>
      </trkpt>
      <trkpt lat="42.477831" lon="-8.187917">
        <ele>608.828</ele>
        <time>2019-06-22T11:07:25Z</time>
      </trkpt>
      <trkpt lat="42.477665" lon="-8.187797">
        <ele>608.520</ele>
        <time>2019-06-22T11:07:26Z</time>
      </trkpt>
      <trkpt lat="42.477519" lon="-8.187718">
        <ele>608.508</ele>
        <time>2019-06-22T11:07:27Z</time>
      </trkpt>
      <trkpt lat="42.477422" lon="-8.187688">
        <ele>608.440</ele>
        <time>2019-06-22T11:07:28Z</time>
      </trkpt>
      <trkpt lat="42.477322" lon="-8.187386">
        <ele>608.424</ele>
        <time>2019-06-22T11:07:29Z</time>
      </trkpt>
      <trkpt lat="42.477189" lon="-8.187198">
        <ele>607.686</ele>
        <time>2019-06-22T11:07:30Z</time>
      </trkpt>
      <trkpt lat="42.477043" lon="-8.186993">
        <ele>607.158</ele>
        <time>2019-06-22T11:07:31Z</time>
      </trkpt>
      <trkpt lat="42.476907" lon="-8.186814">
        <ele>605.976</ele>
        <time>2019-06-22T11:07:32Z</time>
      </trkpt>
      <trkpt lat="42.476699" lon="-8.186684">
        <ele>603.945</ele>
        <time>2019-06-22T11:07:33Z</time>
      </trkpt>
      <trkpt lat="42.476492" lon="-8.186581">
        <ele>600.470</ele>
        <time>2019-06-22T11:07:34Z</time>
      </trkpt>
      <trkpt lat="42.476312" lon="-8.186490">
        <ele>597.853</ele>
        <time>2019-06-22T11:07:35Z</time>
      </trkpt>
      <trkpt lat="42.476131" lon="-8.186393">
        <ele>595.731</ele>
        <time>2019-06-22T11:07:36Z</time>
      </trkpt>
      <trkpt lat="42.475948" lon="-8.186286">
        <ele>595.061</ele>
        <time>2019-06-22T11:07:37Z</time>
      </trkpt>
      <trkpt lat="42.475778" lon="-8.186174">
        <ele>595.007</ele>
        <time>2019-06-22T11:07:38Z</time>
      </trkpt>
      <trkpt lat="42.475639" lon="-8.185955">
        <ele>595.808</ele>
        <time>2019-06-22T11:07:39Z</time>
      </trkpt>
      <trkpt lat="42.475538" lon="-8.185731">
        <ele>596.126</ele>
        <time>2019-06-22T11:07:40Z</time>
      </trkpt>
      <trkpt lat="42.475451" lon="-8.185510">
        <ele>596.130</ele>
        <time>2019-06-22T11:07:41Z</time>
      </trkpt>
      <trkpt lat="42.475378" lon="-8.185259">
        <ele>595.952</ele>
        <time>2019-06-22T11:07:42Z</time>
      </trkpt>
      <trkpt lat="42.475339" lon="-8.185027">
        <ele>595.024</ele>
        <time>2019-06-22T11:07:43Z</time>
      </trkpt>
      <trkpt lat="42.475321" lon="-8.184767">
        <ele>594.022</ele>
        <time>2019-06-22T11:07:44Z</time>
      </trkpt>
      <trkpt lat="42.475303" lon="-8.184514">
        <ele>593.461</ele>
        <time>2019-06-22T11:07:45Z</time>
      </trkpt>
      <trkpt lat="42.475265" lon="-8.184270">
        <ele>591.866</ele>
        <time>2019-06-22T11:07:46Z</time>
      </trkpt>
      <trkpt lat="42.475202" lon="-8.184034">
        <ele>589.119</ele>
        <time>2019-06-22T11:07:47Z</time>
      </trkpt>
      <trkpt lat="42.475134" lon="-8.183805">
        <ele>586.876</ele>
        <time>2019-06-22T11:07:48Z</time>
      </trkpt>
      <trkpt lat="42.475004" lon="-8.183627">
        <ele>584.190</ele>
        <time>2019-06-22T11:07:49Z</time>
      </trkpt>
      <trkpt lat="42.474852" lon="-8.183452">
        <ele>581.319</ele>
        <time>2019-06-22T11:07:50Z</time>
      </trkpt>
      <trkpt lat="42.474695" lon="-8.183298">
        <ele>578.908</ele>
        <time>2019-06-22T11:07:51Z</time>
      </trkpt>
      <trkpt lat="42.474522" lon="-8.183171">
        <ele>577.720</ele>
        <time>2019-06-22T11:07:52Z</time>
      </trkpt>
      <trkpt lat="42.474345" lon="-8.183066">
        <ele>576.194</ele>
        <time>2019-06-22T11:07:53Z</time>
      </trkpt>
      <trkpt lat="42.474175" lon="-8.183008">
        <ele>574.786</ele>
        <time>2019-06-22T11:07:54Z</time>
      </trkpt>
      <trkpt lat="42.473959" lon="-8.183079">
        <ele>573.898</ele>
        <time>2019-06-22T11:07:55Z</time>
      </trkpt>
      <trkpt lat="42.473742" lon="-8.183131">
        <ele>573.316</ele>
        <time>2019-06-22T11:07:56Z</time>
      </trkpt>
      <trkpt lat="42.473558" lon="-8.183200">
        <ele>572.415</ele>
        <time>2019-06-22T11:07:57Z</time>
      </trkpt>
      <trkpt lat="42.473344" lon="-8.183259">
        <ele>571.250</ele>
        <time>2019-06-22T11:07:58Z</time>
      </trkpt>
      <trkpt lat="42.473145" lon="-8.183348">
        <ele>570.453</ele>
        <time>2019-06-22T11:07:59Z</time>
      </trkpt>
      <trkpt lat="42.472930" lon="-8.183409">
        <ele>569.754</ele>
        <time>2019-06-22T11:08:00Z</time>
      </trkpt>
      <trkpt lat="42.472710" lon="-8.183482">
        <ele>568.456</ele>
        <time>2019-06-22T11:08:01Z</time>
      </trkpt>
      <trkpt lat="42.472494" lon="-8.183548">
        <ele>567.511</ele>
        <time>2019-06-22T11:08:02Z</time>
      </trkpt>
      <trkpt lat="42.472278" lon="-8.183618">
        <ele>566.908</ele>
        <time>2019-06-22T11:08:03Z</time>
      </trkpt>
      <trkpt lat="42.472066" lon="-8.183698">
        <ele>566.178</ele>
        <time>2019-06-22T11:08:04Z</time>
      </trkpt>
      <trkpt lat="42.471857" lon="-8.183760">
        <ele>565.372</ele>
        <time>2019-06-22T11:08:05Z</time>
      </trkpt>
      <trkpt lat="42.471640" lon="-8.183817">
        <ele>565.184</ele>
        <time>2019-06-22T11:08:06Z</time>
      </trkpt>
      <trkpt lat="42.471435" lon="-8.183867">
        <ele>564.676</ele>
        <time>2019-06-22T11:08:07Z</time>
      </trkpt>
      <trkpt lat="42.471215" lon="-8.183910">
        <ele>563.084</ele>
        <time>2019-06-22T11:08:08Z</time>
      </trkpt>
      <trkpt lat="42.470997" lon="-8.183953">
        <ele>561.813</ele>
        <time>2019-06-22T11:08:09Z</time>
      </trkpt>
      <trkpt lat="42.470768" lon="-8.183969">
        <ele>560.718</ele>
        <time>2019-06-22T11:08:10Z</time>
      </trkpt>
      <trkpt lat="42.470540" lon="-8.183986">
        <ele>558.061</ele>
        <time>2019-06-22T11:08:11Z</time>
      </trkpt>
      <trkpt lat="42.470306" lon="-8.184009">
        <ele>555.231</ele>
        <time>2019-06-22T11:08:12Z</time>
      </trkpt>
      <trkpt lat="42.470068" lon="-8.184012">
        <ele>553.861</ele>
        <time>2019-06-22T11:08:13Z</time>
      </trkpt>
      <trkpt lat="42.469822" lon="-8.184005">
        <ele>552.907</ele>
        <time>2019-06-22T11:08:14Z</time>
      </trkpt>
      <trkpt lat="42.469580" lon="-8.184032">
        <ele>551.408</ele>
        <time>2019-06-22T11:08:15Z</time>
      </trkpt>
      <trkpt lat="42.469347" lon="-8.184014">
        <ele>550.726</ele>
        <time>2019-06-22T11:08:16Z</time>
      </trkpt>
      <trkpt lat="42.469092" lon="-8.183989">
        <ele>550.540</ele>
        <time>2019-06-22T11:08:17Z</time>
      </trkpt>
      <trkpt lat="42.468866" lon="-8.184074">
        <ele>549.162</ele>
        <time>2019-06-22T11:08:18Z</time>
      </trkpt>
      <trkpt lat="42.468603" lon="-8.184040">
        <ele>546.494</ele>
        <time>2019-06-22T11:08:19Z</time>
      </trkpt>
      <trkpt lat="42.468344" lon="-8.184034">
        <ele>543.752</ele>
        <time>2019-06-22T11:08:20Z</time>
      </trkpt>
      <trkpt lat="42.468092" lon="-8.184022">
        <ele>543.771</ele>
        <time>2019-06-22T11:08:21Z</time>
      </trkpt>
      <trkpt lat="42.467829" lon="-8.184013">
        <ele>541.296</ele>
        <time>2019-06-22T11:08:22Z</time>
      </trkpt>
      <trkpt lat="42.467568" lon="-8.183996">
        <ele>538.739</ele>
        <time>2019-06-22T11:08:23Z</time>
      </trkpt>
      <trkpt lat="42.467324" lon="-8.183997">
        <ele>536.785</ele>
        <time>2019-06-22T11:08:24Z</time>
      </trkpt>
      <trkpt lat="42.467076" lon="-8.183983">
        <ele>535.789</ele>
        <time>2019-06-22T11:08:25Z</time>
      </trkpt>
      <trkpt lat="42.466822" lon="-8.183966">
        <ele>534.717</ele>
        <time>2019-06-22T11:08:26Z</time>
      </trkpt>
      <trkpt lat="42.466572" lon="-8.183951">
        <ele>532.708</ele>
        <time>2019-06-22T11:08:27Z</time>
      </trkpt>
      <trkpt lat="42.466330" lon="-8.183934">
        <ele>531.691</ele>
        <time>2019-06-22T11:08:28Z</time>
      </trkpt>
      <trkpt lat="42.466084" lon="-8.183915">
        <ele>530.475</ele>
        <time>2019-06-22T11:08:29Z</time>
      </trkpt>
      <trkpt lat="42.465838" lon="-8.183893">
        <ele>528.667</ele>
        <time>2019-06-22T11:08:30Z</time>
      </trkpt>
      <trkpt lat="42.465629" lon="-8.183969">
        <ele>527.959</ele>
        <time>2019-06-22T11:08:31Z</time>
      </trkpt>
      <trkpt lat="42.465388" lon="-8.183961">
        <ele>526.897</ele>
        <time>2019-06-22T11:08:32Z</time>
      </trkpt>
      <trkpt lat="42.465172" lon="-8.183932">
        <ele>525.636</ele>
        <time>2019-06-22T11:08:33Z</time>
      </trkpt>
      <trkpt lat="42.465015" lon="-8.184059">
        <ele>523.181</ele>
        <time>2019-06-22T11:08:34Z</time>
      </trkpt>
      <trkpt lat="42.464819" lon="-8.184042">
        <ele>521.794</ele>
        <time>2019-06-22T11:08:35Z</time>
      </trkpt>
      <trkpt lat="42.464623" lon="-8.184002">
        <ele>520.436</ele>
        <time>2019-06-22T11:08:36Z</time>
      </trkpt>
      <trkpt lat="42.464437" lon="-8.183987">
        <ele>520.417</ele>
        <time>2019-06-22T11:08:37Z</time>
      </trkpt>
      <trkpt lat="42.464248" lon="-8.183951">
        <ele>520.518</ele>
        <time>2019-06-22T11:08:38Z</time>
      </trkpt>
      <trkpt lat="42.464080" lon="-8.183944">
        <ele>521.308</ele>
        <time>2019-06-22T11:08:39Z</time>
      </trkpt>
      <trkpt lat="42.463910" lon="-8.183909">
        <ele>522.466</ele>
        <time>2019-06-22T11:08:40Z</time>
      </trkpt>
      <trkpt lat="42.463739" lon="-8.183864">
        <ele>522.590</ele>
        <time>2019-06-22T11:08:41Z</time>
      </trkpt>
      <trkpt lat="42.463559" lon="-8.183798">
        <ele>522.512</ele>
        <time>2019-06-22T11:08:42Z</time>
      </trkpt>
      <trkpt lat="42.463376" lon="-8.183719">
        <ele>522.164</ele>
        <time>2019-06-22T11:08:43Z</time>
      </trkpt>
      <trkpt lat="42.463197" lon="-8.183635">
        <ele>521.712</ele>
        <time>2019-06-22T11:08:44Z</time>
      </trkpt>
      <trkpt lat="42.463030" lon="-8.183549">
        <ele>521.541</ele>
        <time>2019-06-22T11:08:45Z</time>
      </trkpt>
      <trkpt lat="42.462875" lon="-8.183381">
        <ele>521.096</ele>
        <time>2019-06-22T11:08:46Z</time>
      </trkpt>
      <trkpt lat="42.462701" lon="-8.183217">
        <ele>520.189</ele>
        <time>2019-06-22T11:08:47Z</time>
      </trkpt>
      <trkpt lat="42.462525" lon="-8.183030">
        <ele>519.166</ele>
        <time>2019-06-22T11:08:48Z</time>
      </trkpt>
      <trkpt lat="42.462365" lon="-8.182826">
        <ele>517.829</ele>
        <time>2019-06-22T11:08:49Z</time>
      </trkpt>
      <trkpt lat="42.462214" lon="-8.182594">
        <ele>516.121</ele>
        <time>2019-06-22T11:08:50Z</time>
      </trkpt>
      <trkpt lat="42.462089" lon="-8.182379">
        <ele>514.308</ele>
        <time>2019-06-22T11:08:51Z</time>
      </trkpt>
      <trkpt lat="42.461971" lon="-8.182151">
        <ele>512.629</ele>
        <time>2019-06-22T11:08:52Z</time>
      </trkpt>
      <trkpt lat="42.461840" lon="-8.181905">
        <ele>510.923</ele>
        <time>2019-06-22T11:08:53Z</time>
      </trkpt>
      <trkpt lat="42.461768" lon="-8.181645">
        <ele>509.495</ele>
        <time>2019-06-22T11:08:54Z</time>
      </trkpt>
      <trkpt lat="42.461668" lon="-8.181369">
        <ele>507.757</ele>
        <time>2019-06-22T11:08:55Z</time>
      </trkpt>
      <trkpt lat="42.461596" lon="-8.181083">
        <ele>506.145</ele>
        <time>2019-06-22T11:08:56Z</time>
      </trkpt>
      <trkpt lat="42.461506" lon="-8.180789">
        <ele>504.614</ele>
        <time>2019-06-22T11:08:57Z</time>
      </trkpt>
      <trkpt lat="42.461462" lon="-8.180498">
        <ele>503.039</ele>
        <time>2019-06-22T11:08:58Z</time>
      </trkpt>
      <trkpt lat="42.461450" lon="-8.180194">
        <ele>501.392</ele>
        <time>2019-06-22T11:08:59Z</time>
      </trkpt>
      <trkpt lat="42.461430" lon="-8.179903">
        <ele>499.662</ele>
        <time>2019-06-22T11:09:00Z</time>
      </trkpt>
      <trkpt lat="42.461433" lon="-8.179617">
        <ele>497.983</ele>
        <time>2019-06-22T11:09:01Z</time>
      </trkpt>
      <trkpt lat="42.461446" lon="-8.179332">
        <ele>496.111</ele>
        <time>2019-06-22T11:09:02Z</time>
      </trkpt>
      <trkpt lat="42.461487" lon="-8.179062">
        <ele>494.608</ele>
        <time>2019-06-22T11:09:03Z</time>
      </trkpt>
      <trkpt lat="42.461550" lon="-8.178783">
        <ele>492.929</ele>
        <time>2019-06-22T11:09:04Z</time>
      </trkpt>
      <trkpt lat="42.461636" lon="-8.178527">
        <ele>491.843</ele>
        <time>2019-06-22T11:09:05Z</time>
      </trkpt>
      <trkpt lat="42.461730" lon="-8.178278">
        <ele>490.815</ele>
        <time>2019-06-22T11:09:06Z</time>
      </trkpt>
      <trkpt lat="42.461851" lon="-8.178029">
        <ele>489.687</ele>
        <time>2019-06-22T11:09:07Z</time>
      </trkpt>
      <trkpt lat="42.461993" lon="-8.177807">
        <ele>488.765</ele>
        <time>2019-06-22T11:09:08Z</time>
      </trkpt>
      <trkpt lat="42.462155" lon="-8.177577">
        <ele>488.174</ele>
        <time>2019-06-22T11:09:09Z</time>
      </trkpt>
      <trkpt lat="42.462320" lon="-8.177358">
        <ele>486.589</ele>
        <time>2019-06-22T11:09:10Z</time>
      </trkpt>
      <trkpt lat="42.462479" lon="-8.177134">
        <ele>485.542</ele>
        <time>2019-06-22T11:09:11Z</time>
      </trkpt>
      <trkpt lat="42.462644" lon="-8.176924">
        <ele>483.938</ele>
        <time>2019-06-22T11:09:12Z</time>
      </trkpt>
      <trkpt lat="42.462810" lon="-8.176706">
        <ele>482.470</ele>
        <time>2019-06-22T11:09:13Z</time>
      </trkpt>
      <trkpt lat="42.462977" lon="-8.176506">
        <ele>480.717</ele>
        <time>2019-06-22T11:09:14Z</time>
      </trkpt>
      <trkpt lat="42.463158" lon="-8.176296">
        <ele>479.408</ele>
        <time>2019-06-22T11:09:15Z</time>
      </trkpt>
      <trkpt lat="42.463327" lon="-8.176098">
        <ele>478.136</ele>
        <time>2019-06-22T11:09:16Z</time>
      </trkpt>
      <trkpt lat="42.463476" lon="-8.175885">
        <ele>476.680</ele>
        <time>2019-06-22T11:09:17Z</time>
      </trkpt>
      <trkpt lat="42.463630" lon="-8.175682">
        <ele>474.212</ele>
        <time>2019-06-22T11:09:18Z</time>
      </trkpt>
      <trkpt lat="42.463752" lon="-8.175436">
        <ele>471.914</ele>
        <time>2019-06-22T11:09:19Z</time>
      </trkpt>
      <trkpt lat="42.463886" lon="-8.175201">
        <ele>471.712</ele>
        <time>2019-06-22T11:09:20Z</time>
      </trkpt>
      <trkpt lat="42.463992" lon="-8.174939">
        <ele>471.711</ele>
        <time>2019-06-22T11:09:21Z</time>
      </trkpt>
      <trkpt lat="42.464096" lon="-8.174679">
        <ele>470.546</ele>
        <time>2019-06-22T11:09:22Z</time>
      </trkpt>
      <trkpt lat="42.464205" lon="-8.174407">
        <ele>470.589</ele>
        <time>2019-06-22T11:09:23Z</time>
      </trkpt>
      <trkpt lat="42.464202" lon="-8.174079">
        <ele>471.399</ele>
        <time>2019-06-22T11:09:24Z</time>
      </trkpt>
      <trkpt lat="42.464266" lon="-8.173804">
        <ele>472.607</ele>
        <time>2019-06-22T11:09:25Z</time>
      </trkpt>
      <trkpt lat="42.464321" lon="-8.173521">
        <ele>472.827</ele>
        <time>2019-06-22T11:09:26Z</time>
      </trkpt>
      <trkpt lat="42.464387" lon="-8.173255">
        <ele>473.108</ele>
        <time>2019-06-22T11:09:27Z</time>
      </trkpt>
      <trkpt lat="42.464456" lon="-8.172981">
        <ele>473.232</ele>
        <time>2019-06-22T11:09:28Z</time>
      </trkpt>
      <trkpt lat="42.464548" lon="-8.172714">
        <ele>473.766</ele>
        <time>2019-06-22T11:09:29Z</time>
      </trkpt>
      <trkpt lat="42.464652" lon="-8.172465">
        <ele>474.198</ele>
        <time>2019-06-22T11:09:30Z</time>
      </trkpt>
      <trkpt lat="42.464769" lon="-8.172218">
        <ele>474.160</ele>
        <time>2019-06-22T11:09:31Z</time>
      </trkpt>
      <trkpt lat="42.464875" lon="-8.171964">
        <ele>474.188</ele>
        <time>2019-06-22T11:09:32Z</time>
      </trkpt>
      <trkpt lat="42.465020" lon="-8.171729">
        <ele>473.617</ele>
        <time>2019-06-22T11:09:33Z</time>
      </trkpt>
      <trkpt lat="42.465152" lon="-8.171475">
        <ele>471.832</ele>
        <time>2019-06-22T11:09:34Z</time>
      </trkpt>
      <trkpt lat="42.465278" lon="-8.171219">
        <ele>469.945</ele>
        <time>2019-06-22T11:09:35Z</time>
      </trkpt>
      <trkpt lat="42.465403" lon="-8.170958">
        <ele>468.464</ele>
        <time>2019-06-22T11:09:36Z</time>
      </trkpt>
      <trkpt lat="42.465514" lon="-8.170676">
        <ele>466.806</ele>
        <time>2019-06-22T11:09:37Z</time>
      </trkpt>
      <trkpt lat="42.465637" lon="-8.170391">
        <ele>466.816</ele>
        <time>2019-06-22T11:09:38Z</time>
      </trkpt>
      <trkpt lat="42.465768" lon="-8.170101">
        <ele>466.908</ele>
        <time>2019-06-22T11:09:39Z</time>
      </trkpt>
      <trkpt lat="42.465897" lon="-8.169815">
        <ele>467.029</ele>
        <time>2019-06-22T11:09:40Z</time>
      </trkpt>
      <trkpt lat="42.466034" lon="-8.169537">
        <ele>467.033</ele>
        <time>2019-06-22T11:09:41Z</time>
      </trkpt>
      <trkpt lat="42.466165" lon="-8.169236">
        <ele>466.995</ele>
        <time>2019-06-22T11:09:42Z</time>
      </trkpt>
      <trkpt lat="42.466278" lon="-8.168913">
        <ele>464.937</ele>
        <time>2019-06-22T11:09:43Z</time>
      </trkpt>
      <trkpt lat="42.466409" lon="-8.168648">
        <ele>462.615</ele>
        <time>2019-06-22T11:09:44Z</time>
      </trkpt>
      <trkpt lat="42.466516" lon="-8.168347">
        <ele>460.794</ele>
        <time>2019-06-22T11:09:45Z</time>
      </trkpt>
      <trkpt lat="42.466593" lon="-8.168082">
        <ele>457.869</ele>
        <time>2019-06-22T11:09:46Z</time>
      </trkpt>
      <trkpt lat="42.466679" lon="-8.167813">
        <ele>454.622</ele>
        <time>2019-06-22T11:09:47Z</time>
      </trkpt>
      <trkpt lat="42.466772" lon="-8.167540">
        <ele>452.179</ele>
        <time>2019-06-22T11:09:48Z</time>
      </trkpt>
      <trkpt lat="42.466855" lon="-8.167267">
        <ele>449.805</ele>
        <time>2019-06-22T11:09:49Z</time>
      </trkpt>
      <trkpt lat="42.466900" lon="-8.167050">
        <ele>448.525</ele>
        <time>2019-06-22T11:09:50Z</time>
      </trkpt>
      <trkpt lat="42.466942" lon="-8.166790">
        <ele>448.508</ele>
        <time>2019-06-22T11:09:51Z</time>
      </trkpt>
      <trkpt lat="42.466934" lon="-8.166529">
        <ele>448.630</ele>
        <time>2019-06-22T11:09:52Z</time>
      </trkpt>
      <trkpt lat="42.466898" lon="-8.166275">
        <ele>449.724</ele>
        <time>2019-06-22T11:09:53Z</time>
      </trkpt>
      <trkpt lat="42.466859" lon="-8.165999">
        <ele>451.156</ele>
        <time>2019-06-22T11:09:54Z</time>
      </trkpt>
      <trkpt lat="42.466796" lon="-8.165748">
        <ele>452.028</ele>
        <time>2019-06-22T11:09:55Z</time>
      </trkpt>
      <trkpt lat="42.466673" lon="-8.165517">
        <ele>452.916</ele>
        <time>2019-06-22T11:09:56Z</time>
      </trkpt>
      <trkpt lat="42.466517" lon="-8.165302">
        <ele>453.085</ele>
        <time>2019-06-22T11:09:57Z</time>
      </trkpt>
      <trkpt lat="42.466383" lon="-8.165128">
        <ele>453.180</ele>
        <time>2019-06-22T11:09:58Z</time>
      </trkpt>
      <trkpt lat="42.466200" lon="-8.164968">
        <ele>453.183</ele>
        <time>2019-06-22T11:09:59Z</time>
      </trkpt>
      <trkpt lat="42.466059" lon="-8.164837">
        <ele>453.538</ele>
        <time>2019-06-22T11:10:00Z</time>
      </trkpt>
      <trkpt lat="42.465863" lon="-8.164724">
        <ele>454.470</ele>
        <time>2019-06-22T11:10:01Z</time>
      </trkpt>
      <trkpt lat="42.465608" lon="-8.164665">
        <ele>455.517</ele>
        <time>2019-06-22T11:10:02Z</time>
      </trkpt>
      <trkpt lat="42.465337" lon="-8.164612">
        <ele>457.108</ele>
        <time>2019-06-22T11:10:03Z</time>
      </trkpt>
      <trkpt lat="42.465154" lon="-8.164495">
        <ele>458.776</ele>
        <time>2019-06-22T11:10:04Z</time>
      </trkpt>
      <trkpt lat="42.464981" lon="-8.164354">
        <ele>460.440</ele>
        <time>2019-06-22T11:10:05Z</time>
      </trkpt>
      <trkpt lat="42.464826" lon="-8.164186">
        <ele>462.372</ele>
        <time>2019-06-22T11:10:06Z</time>
      </trkpt>
      <trkpt lat="42.464682" lon="-8.163990">
        <ele>464.144</ele>
        <time>2019-06-22T11:10:07Z</time>
      </trkpt>
      <trkpt lat="42.464551" lon="-8.163765">
        <ele>465.142</ele>
        <time>2019-06-22T11:10:08Z</time>
      </trkpt>
      <trkpt lat="42.464459" lon="-8.163520">
        <ele>465.161</ele>
        <time>2019-06-22T11:10:09Z</time>
      </trkpt>
      <trkpt lat="42.464335" lon="-8.163302">
        <ele>465.076</ele>
        <time>2019-06-22T11:10:10Z</time>
      </trkpt>
      <trkpt lat="42.464222" lon="-8.163117">
        <ele>463.639</ele>
        <time>2019-06-22T11:10:11Z</time>
      </trkpt>
      <trkpt lat="42.464102" lon="-8.162946">
        <ele>462.366</ele>
        <time>2019-06-22T11:10:12Z</time>
      </trkpt>
      <trkpt lat="42.463969" lon="-8.162791">
        <ele>461.429</ele>
        <time>2019-06-22T11:10:13Z</time>
      </trkpt>
      <trkpt lat="42.463787" lon="-8.162638">
        <ele>461.421</ele>
        <time>2019-06-22T11:10:14Z</time>
      </trkpt>
      <trkpt lat="42.463615" lon="-8.162482">
        <ele>462.608</ele>
        <time>2019-06-22T11:10:15Z</time>
      </trkpt>
      <trkpt lat="42.463396" lon="-8.162331">
        <ele>463.489</ele>
        <time>2019-06-22T11:10:16Z</time>
      </trkpt>
      <trkpt lat="42.463232" lon="-8.162191">
        <ele>464.433</ele>
        <time>2019-06-22T11:10:17Z</time>
      </trkpt>
      <trkpt lat="42.463050" lon="-8.162034">
        <ele>464.445</ele>
        <time>2019-06-22T11:10:18Z</time>
      </trkpt>
      <trkpt lat="42.462853" lon="-8.161842">
        <ele>464.357</ele>
        <time>2019-06-22T11:10:19Z</time>
      </trkpt>
      <trkpt lat="42.462660" lon="-8.161675">
        <ele>462.915</ele>
        <time>2019-06-22T11:10:20Z</time>
      </trkpt>
      <trkpt lat="42.462474" lon="-8.161486">
        <ele>462.644</ele>
        <time>2019-06-22T11:10:21Z</time>
      </trkpt>
      <trkpt lat="42.462290" lon="-8.161305">
        <ele>461.839</ele>
        <time>2019-06-22T11:10:22Z</time>
      </trkpt>
      <trkpt lat="42.462118" lon="-8.161130">
        <ele>461.892</ele>
        <time>2019-06-22T11:10:23Z</time>
      </trkpt>
      <trkpt lat="42.461954" lon="-8.160944">
        <ele>461.617</ele>
        <time>2019-06-22T11:10:24Z</time>
      </trkpt>
      <trkpt lat="42.461785" lon="-8.160760">
        <ele>461.687</ele>
        <time>2019-06-22T11:10:25Z</time>
      </trkpt>
      <trkpt lat="42.461619" lon="-8.160587">
        <ele>462.615</ele>
        <time>2019-06-22T11:10:26Z</time>
      </trkpt>
      <trkpt lat="42.461466" lon="-8.160469">
        <ele>462.608</ele>
        <time>2019-06-22T11:10:27Z</time>
      </trkpt>
      <trkpt lat="42.461304" lon="-8.160338">
        <ele>462.394</ele>
        <time>2019-06-22T11:10:28Z</time>
      </trkpt>
      <trkpt lat="42.461111" lon="-8.160244">
        <ele>462.238</ele>
        <time>2019-06-22T11:10:29Z</time>
      </trkpt>
      <trkpt lat="42.460919" lon="-8.160137">
        <ele>461.590</ele>
        <time>2019-06-22T11:10:30Z</time>
      </trkpt>
      <trkpt lat="42.460691" lon="-8.160220">
        <ele>461.562</ele>
        <time>2019-06-22T11:10:31Z</time>
      </trkpt>
      <trkpt lat="42.460471" lon="-8.160270">
        <ele>461.790</ele>
        <time>2019-06-22T11:10:32Z</time>
      </trkpt>
      <trkpt lat="42.460254" lon="-8.160318">
        <ele>463.849</ele>
        <time>2019-06-22T11:10:33Z</time>
      </trkpt>
      <trkpt lat="42.460025" lon="-8.160340">
        <ele>465.474</ele>
        <time>2019-06-22T11:10:34Z</time>
      </trkpt>
      <trkpt lat="42.459819" lon="-8.160351">
        <ele>465.477</ele>
        <time>2019-06-22T11:10:35Z</time>
      </trkpt>
      <trkpt lat="42.459628" lon="-8.160401">
        <ele>465.467</ele>
        <time>2019-06-22T11:10:36Z</time>
      </trkpt>
      <trkpt lat="42.459432" lon="-8.160415">
        <ele>465.481</ele>
        <time>2019-06-22T11:10:37Z</time>
      </trkpt>
      <trkpt lat="42.459237" lon="-8.160431">
        <ele>465.219</ele>
        <time>2019-06-22T11:10:38Z</time>
      </trkpt>
      <trkpt lat="42.459060" lon="-8.160439">
        <ele>464.808</ele>
        <time>2019-06-22T11:10:39Z</time>
      </trkpt>
      <trkpt lat="42.458863" lon="-8.160435">
        <ele>464.879</ele>
        <time>2019-06-22T11:10:40Z</time>
      </trkpt>
      <trkpt lat="42.458681" lon="-8.160425">
        <ele>466.673</ele>
        <time>2019-06-22T11:10:41Z</time>
      </trkpt>
      <trkpt lat="42.458512" lon="-8.160350">
        <ele>467.185</ele>
        <time>2019-06-22T11:10:42Z</time>
      </trkpt>
      <trkpt lat="42.458416" lon="-8.160288">
        <ele>468.087</ele>
        <time>2019-06-22T11:10:43Z</time>
      </trkpt>
      <trkpt lat="42.458266" lon="-8.160230">
        <ele>469.215</ele>
        <time>2019-06-22T11:10:44Z</time>
      </trkpt>
      <trkpt lat="42.458164" lon="-8.159986">
        <ele>469.374</ele>
        <time>2019-06-22T11:10:45Z</time>
      </trkpt>
      <trkpt lat="42.458100" lon="-8.159825">
        <ele>469.359</ele>
        <time>2019-06-22T11:10:46Z</time>
      </trkpt>
      <trkpt lat="42.458092" lon="-8.159519">
        <ele>468.732</ele>
        <time>2019-06-22T11:10:47Z</time>
      </trkpt>
      <trkpt lat="42.458048" lon="-8.159283">
        <ele>467.967</ele>
        <time>2019-06-22T11:10:48Z</time>
      </trkpt>
      <trkpt lat="42.458049" lon="-8.159081">
        <ele>466.981</ele>
        <time>2019-06-22T11:10:49Z</time>
      </trkpt>
      <trkpt lat="42.458094" lon="-8.158860">
        <ele>465.919</ele>
        <time>2019-06-22T11:10:50Z</time>
      </trkpt>
      <trkpt lat="42.458175" lon="-8.158620">
        <ele>464.908</ele>
        <time>2019-06-22T11:10:51Z</time>
      </trkpt>
      <trkpt lat="42.458260" lon="-8.158379">
        <ele>463.879</ele>
        <time>2019-06-22T11:10:52Z</time>
      </trkpt>
      <trkpt lat="42.458352" lon="-8.158158">
        <ele>462.753</ele>
        <time>2019-06-22T11:10:53Z</time>
      </trkpt>
      <trkpt lat="42.458453" lon="-8.157945">
        <ele>461.585</ele>
        <time>2019-06-22T11:10:54Z</time>
      </trkpt>
      <trkpt lat="42.458538" lon="-8.157725">
        <ele>459.517</ele>
        <time>2019-06-22T11:10:55Z</time>
      </trkpt>
      <trkpt lat="42.458625" lon="-8.157498">
        <ele>456.755</ele>
        <time>2019-06-22T11:10:56Z</time>
      </trkpt>
      <trkpt lat="42.458712" lon="-8.157273">
        <ele>454.044</ele>
        <time>2019-06-22T11:10:57Z</time>
      </trkpt>
      <trkpt lat="42.458709" lon="-8.157015">
        <ele>451.559</ele>
        <time>2019-06-22T11:10:58Z</time>
      </trkpt>
      <trkpt lat="42.458703" lon="-8.156739">
        <ele>448.832</ele>
        <time>2019-06-22T11:10:59Z</time>
      </trkpt>
      <trkpt lat="42.458668" lon="-8.156466">
        <ele>447.686</ele>
        <time>2019-06-22T11:11:00Z</time>
      </trkpt>
      <trkpt lat="42.458631" lon="-8.156179">
        <ele>447.660</ele>
        <time>2019-06-22T11:11:01Z</time>
      </trkpt>
      <trkpt lat="42.458605" lon="-8.155887">
        <ele>447.626</ele>
        <time>2019-06-22T11:11:02Z</time>
      </trkpt>
      <trkpt lat="42.458565" lon="-8.155617">
        <ele>447.708</ele>
        <time>2019-06-22T11:11:03Z</time>
      </trkpt>
      <trkpt lat="42.458531" lon="-8.155335">
        <ele>447.631</ele>
        <time>2019-06-22T11:11:04Z</time>
      </trkpt>
      <trkpt lat="42.458498" lon="-8.155058">
        <ele>446.355</ele>
        <time>2019-06-22T11:11:05Z</time>
      </trkpt>
      <trkpt lat="42.458452" lon="-8.154780">
        <ele>442.887</ele>
        <time>2019-06-22T11:11:06Z</time>
      </trkpt>
      <trkpt lat="42.458414" lon="-8.154504">
        <ele>439.729</ele>
        <time>2019-06-22T11:11:07Z</time>
      </trkpt>
      <trkpt lat="42.458370" lon="-8.154241">
        <ele>437.337</ele>
        <time>2019-06-22T11:11:08Z</time>
      </trkpt>
      <trkpt lat="42.458328" lon="-8.153971">
        <ele>435.656</ele>
        <time>2019-06-22T11:11:09Z</time>
      </trkpt>
      <trkpt lat="42.458275" lon="-8.153702">
        <ele>434.461</ele>
        <time>2019-06-22T11:11:10Z</time>
      </trkpt>
      <trkpt lat="42.458204" lon="-8.153479">
        <ele>433.774</ele>
        <time>2019-06-22T11:11:11Z</time>
      </trkpt>
      <trkpt lat="42.458132" lon="-8.153287">
        <ele>433.117</ele>
        <time>2019-06-22T11:11:12Z</time>
      </trkpt>
      <trkpt lat="42.458048" lon="-8.153078">
        <ele>432.287</ele>
        <time>2019-06-22T11:11:13Z</time>
      </trkpt>
      <trkpt lat="42.457874" lon="-8.152932">
        <ele>430.415</ele>
        <time>2019-06-22T11:11:14Z</time>
      </trkpt>
      <trkpt lat="42.457719" lon="-8.152801">
        <ele>428.208</ele>
        <time>2019-06-22T11:11:15Z</time>
      </trkpt>
      <trkpt lat="42.457568" lon="-8.152672">
        <ele>427.394</ele>
        <time>2019-06-22T11:11:16Z</time>
      </trkpt>
      <trkpt lat="42.457344" lon="-8.152571">
        <ele>425.648</ele>
        <time>2019-06-22T11:11:17Z</time>
      </trkpt>
      <trkpt lat="42.457168" lon="-8.152454">
        <ele>424.120</ele>
        <time>2019-06-22T11:11:18Z</time>
      </trkpt>
      <trkpt lat="42.456906" lon="-8.152570">
        <ele>422.752</ele>
        <time>2019-06-22T11:11:19Z</time>
      </trkpt>
      <trkpt lat="42.456689" lon="-8.152535">
        <ele>421.630</ele>
        <time>2019-06-22T11:11:20Z</time>
      </trkpt>
      <trkpt lat="42.456463" lon="-8.152517">
        <ele>420.379</ele>
        <time>2019-06-22T11:11:21Z</time>
      </trkpt>
      <trkpt lat="42.456238" lon="-8.152506">
        <ele>420.134</ele>
        <time>2019-06-22T11:11:22Z</time>
      </trkpt>
      <trkpt lat="42.456017" lon="-8.152489">
        <ele>418.627</ele>
        <time>2019-06-22T11:11:23Z</time>
      </trkpt>
      <trkpt lat="42.455796" lon="-8.152465">
        <ele>418.612</ele>
        <time>2019-06-22T11:11:24Z</time>
      </trkpt>
      <trkpt lat="42.455578" lon="-8.152438">
        <ele>414.832</ele>
        <time>2019-06-22T11:11:25Z</time>
      </trkpt>
      <trkpt lat="42.455368" lon="-8.152403">
        <ele>414.805</ele>
        <time>2019-06-22T11:11:26Z</time>
      </trkpt>
      <trkpt lat="42.455184" lon="-8.152393">
        <ele>413.908</ele>
        <time>2019-06-22T11:11:27Z</time>
      </trkpt>
      <trkpt lat="42.454986" lon="-8.152312">
        <ele>412.644</ele>
        <time>2019-06-22T11:11:28Z</time>
      </trkpt>
      <trkpt lat="42.454796" lon="-8.152219">
        <ele>412.678</ele>
        <time>2019-06-22T11:11:29Z</time>
      </trkpt>
      <trkpt lat="42.454608" lon="-8.152117">
        <ele>413.840</ele>
        <time>2019-06-22T11:11:30Z</time>
      </trkpt>
      <trkpt lat="42.454443" lon="-8.152000">
        <ele>414.022</ele>
        <time>2019-06-22T11:11:31Z</time>
      </trkpt>
      <trkpt lat="42.454287" lon="-8.151857">
        <ele>414.010</ele>
        <time>2019-06-22T11:11:32Z</time>
      </trkpt>
      <trkpt lat="42.454121" lon="-8.151710">
        <ele>413.899</ele>
        <time>2019-06-22T11:11:33Z</time>
      </trkpt>
      <trkpt lat="42.453952" lon="-8.151558">
        <ele>411.864</ele>
        <time>2019-06-22T11:11:34Z</time>
      </trkpt>
      <trkpt lat="42.453812" lon="-8.151389">
        <ele>410.367</ele>
        <time>2019-06-22T11:11:35Z</time>
      </trkpt>
      <trkpt lat="42.453685" lon="-8.151232">
        <ele>409.169</ele>
        <time>2019-06-22T11:11:36Z</time>
      </trkpt>
      <trkpt lat="42.453582" lon="-8.151023">
        <ele>408.304</ele>
        <time>2019-06-22T11:11:37Z</time>
      </trkpt>
      <trkpt lat="42.453464" lon="-8.150829">
        <ele>407.524</ele>
        <time>2019-06-22T11:11:38Z</time>
      </trkpt>
      <trkpt lat="42.453366" lon="-8.150637">
        <ele>406.808</ele>
        <time>2019-06-22T11:11:39Z</time>
      </trkpt>
      <trkpt lat="42.453278" lon="-8.150441">
        <ele>405.619</ele>
        <time>2019-06-22T11:11:40Z</time>
      </trkpt>
      <trkpt lat="42.453166" lon="-8.150252">
        <ele>404.433</ele>
        <time>2019-06-22T11:11:41Z</time>
      </trkpt>
      <trkpt lat="42.453045" lon="-8.150084">
        <ele>401.985</ele>
        <time>2019-06-22T11:11:42Z</time>
      </trkpt>
      <trkpt lat="42.452904" lon="-8.149957">
        <ele>399.837</ele>
        <time>2019-06-22T11:11:43Z</time>
      </trkpt>
      <trkpt lat="42.452754" lon="-8.149832">
        <ele>397.745</ele>
        <time>2019-06-22T11:11:44Z</time>
      </trkpt>
      <trkpt lat="42.452586" lon="-8.149776">
        <ele>395.564</ele>
        <time>2019-06-22T11:11:45Z</time>
      </trkpt>
      <trkpt lat="42.452420" lon="-8.149725">
        <ele>393.899</ele>
        <time>2019-06-22T11:11:46Z</time>
      </trkpt>
      <trkpt lat="42.452249" lon="-8.149667">
        <ele>392.612</ele>
        <time>2019-06-22T11:11:47Z</time>
      </trkpt>
      <trkpt lat="42.452077" lon="-8.149613">
        <ele>391.419</ele>
        <time>2019-06-22T11:11:48Z</time>
      </trkpt>
      <trkpt lat="42.451899" lon="-8.149546">
        <ele>390.009</ele>
        <time>2019-06-22T11:11:49Z</time>
      </trkpt>
      <trkpt lat="42.451736" lon="-8.149505">
        <ele>388.919</ele>
        <time>2019-06-22T11:11:50Z</time>
      </trkpt>
      <trkpt lat="42.451600" lon="-8.149460">
        <ele>388.008</ele>
        <time>2019-06-22T11:11:51Z</time>
      </trkpt>
      <trkpt lat="42.451463" lon="-8.149419">
        <ele>387.864</ele>
        <time>2019-06-22T11:11:52Z</time>
      </trkpt>
      <trkpt lat="42.451324" lon="-8.149382">
        <ele>387.828</ele>
        <time>2019-06-22T11:11:53Z</time>
      </trkpt>
      <trkpt lat="42.451195" lon="-8.149337">
        <ele>387.990</ele>
        <time>2019-06-22T11:11:54Z</time>
      </trkpt>
      <trkpt lat="42.451082" lon="-8.149296">
        <ele>388.112</ele>
        <time>2019-06-22T11:11:55Z</time>
      </trkpt>
      <trkpt lat="42.450971" lon="-8.149247">
        <ele>388.150</ele>
        <time>2019-06-22T11:11:56Z</time>
      </trkpt>
      <trkpt lat="42.450880" lon="-8.149179">
        <ele>388.149</ele>
        <time>2019-06-22T11:11:57Z</time>
      </trkpt>
      <trkpt lat="42.450782" lon="-8.149104">
        <ele>387.974</ele>
        <time>2019-06-22T11:11:58Z</time>
      </trkpt>
      <trkpt lat="42.450707" lon="-8.149013">
        <ele>387.647</ele>
        <time>2019-06-22T11:11:59Z</time>
      </trkpt>
      <trkpt lat="42.450687" lon="-8.148888">
        <ele>387.672</ele>
        <time>2019-06-22T11:12:00Z</time>
      </trkpt>
      <trkpt lat="42.450650" lon="-8.148747">
        <ele>387.213</ele>
        <time>2019-06-22T11:12:01Z</time>
      </trkpt>
      <trkpt lat="42.450637" lon="-8.148592">
        <ele>386.614</ele>
        <time>2019-06-22T11:12:02Z</time>
      </trkpt>
      <trkpt lat="42.450629" lon="-8.148432">
        <ele>386.008</ele>
        <time>2019-06-22T11:12:03Z</time>
      </trkpt>
      <trkpt lat="42.450644" lon="-8.148286">
        <ele>385.290</ele>
        <time>2019-06-22T11:12:04Z</time>
      </trkpt>
      <trkpt lat="42.450662" lon="-8.148128">
        <ele>384.494</ele>
        <time>2019-06-22T11:12:05Z</time>
      </trkpt>
      <trkpt lat="42.450674" lon="-8.147939">
        <ele>383.696</ele>
        <time>2019-06-22T11:12:06Z</time>
      </trkpt>
      <trkpt lat="42.450695" lon="-8.147749">
        <ele>382.788</ele>
        <time>2019-06-22T11:12:07Z</time>
      </trkpt>
      <trkpt lat="42.450718" lon="-8.147548">
        <ele>381.636</ele>
        <time>2019-06-22T11:12:08Z</time>
      </trkpt>
      <trkpt lat="42.450742" lon="-8.147329">
        <ele>380.835</ele>
        <time>2019-06-22T11:12:09Z</time>
      </trkpt>
      <trkpt lat="42.450763" lon="-8.147093">
        <ele>379.920</ele>
        <time>2019-06-22T11:12:10Z</time>
      </trkpt>
      <trkpt lat="42.450784" lon="-8.146847">
        <ele>379.093</ele>
        <time>2019-06-22T11:12:11Z</time>
      </trkpt>
      <trkpt lat="42.450826" lon="-8.146587">
        <ele>377.841</ele>
        <time>2019-06-22T11:12:12Z</time>
      </trkpt>
      <trkpt lat="42.450843" lon="-8.146323">
        <ele>376.481</ele>
        <time>2019-06-22T11:12:13Z</time>
      </trkpt>
      <trkpt lat="42.450841" lon="-8.146030">
        <ele>374.509</ele>
        <time>2019-06-22T11:12:14Z</time>
      </trkpt>
      <trkpt lat="42.450851" lon="-8.145731">
        <ele>372.108</ele>
        <time>2019-06-22T11:12:15Z</time>
      </trkpt>
      <trkpt lat="42.450855" lon="-8.145437">
        <ele>369.947</ele>
        <time>2019-06-22T11:12:16Z</time>
      </trkpt>
      <trkpt lat="42.450871" lon="-8.145140">
        <ele>368.131</ele>
        <time>2019-06-22T11:12:17Z</time>
      </trkpt>
      <trkpt lat="42.450887" lon="-8.144850">
        <ele>366.193</ele>
        <time>2019-06-22T11:12:18Z</time>
      </trkpt>
      <trkpt lat="42.450891" lon="-8.144562">
        <ele>364.125</ele>
        <time>2019-06-22T11:12:19Z</time>
      </trkpt>
      <trkpt lat="42.450916" lon="-8.144273">
        <ele>363.493</ele>
        <time>2019-06-22T11:12:20Z</time>
      </trkpt>
      <trkpt lat="42.450934" lon="-8.143991">
        <ele>362.842</ele>
        <time>2019-06-22T11:12:21Z</time>
      </trkpt>
      <trkpt lat="42.450957" lon="-8.143721">
        <ele>361.767</ele>
        <time>2019-06-22T11:12:22Z</time>
      </trkpt>
      <trkpt lat="42.450970" lon="-8.143461">
        <ele>360.050</ele>
        <time>2019-06-22T11:12:23Z</time>
      </trkpt>
      <trkpt lat="42.450976" lon="-8.143212">
        <ele>360.065</ele>
        <time>2019-06-22T11:12:24Z</time>
      </trkpt>
      <trkpt lat="42.450978" lon="-8.142960">
        <ele>357.968</ele>
        <time>2019-06-22T11:12:25Z</time>
      </trkpt>
      <trkpt lat="42.450954" lon="-8.142711">
        <ele>357.914</ele>
        <time>2019-06-22T11:12:26Z</time>
      </trkpt>
      <trkpt lat="42.450911" lon="-8.142461">
        <ele>356.208</ele>
        <time>2019-06-22T11:12:27Z</time>
      </trkpt>
      <trkpt lat="42.450849" lon="-8.142197">
        <ele>354.439</ele>
        <time>2019-06-22T11:12:28Z</time>
      </trkpt>
      <trkpt lat="42.450785" lon="-8.141930">
        <ele>353.953</ele>
        <time>2019-06-22T11:12:29Z</time>
      </trkpt>
      <trkpt lat="42.450714" lon="-8.141667">
        <ele>352.845</ele>
        <time>2019-06-22T11:12:30Z</time>
      </trkpt>
      <trkpt lat="42.450618" lon="-8.141398">
        <ele>351.637</ele>
        <time>2019-06-22T11:12:31Z</time>
      </trkpt>
      <trkpt lat="42.450529" lon="-8.141133">
        <ele>351.195</ele>
        <time>2019-06-22T11:12:32Z</time>
      </trkpt>
      <trkpt lat="42.450389" lon="-8.140868">
        <ele>350.584</ele>
        <time>2019-06-22T11:12:33Z</time>
      </trkpt>
      <trkpt lat="42.450260" lon="-8.140598">
        <ele>349.129</ele>
        <time>2019-06-22T11:12:34Z</time>
      </trkpt>
      <trkpt lat="42.450105" lon="-8.140343">
        <ele>347.312</ele>
        <time>2019-06-22T11:12:35Z</time>
      </trkpt>
      <trkpt lat="42.449946" lon="-8.140104">
        <ele>345.078</ele>
        <time>2019-06-22T11:12:36Z</time>
      </trkpt>
      <trkpt lat="42.449765" lon="-8.139868">
        <ele>343.033</ele>
        <time>2019-06-22T11:12:37Z</time>
      </trkpt>
      <trkpt lat="42.449585" lon="-8.139672">
        <ele>341.526</ele>
        <time>2019-06-22T11:12:38Z</time>
      </trkpt>
      <trkpt lat="42.449400" lon="-8.139468">
        <ele>340.408</ele>
        <time>2019-06-22T11:12:39Z</time>
      </trkpt>
      <trkpt lat="42.449196" lon="-8.139316">
        <ele>340.470</ele>
        <time>2019-06-22T11:12:40Z</time>
      </trkpt>
      <trkpt lat="42.448986" lon="-8.139136">
        <ele>340.274</ele>
        <time>2019-06-22T11:12:41Z</time>
      </trkpt>
      <trkpt lat="42.448783" lon="-8.138962">
        <ele>340.376</ele>
        <time>2019-06-22T11:12:42Z</time>
      </trkpt>
      <trkpt lat="42.448539" lon="-8.138908">
        <ele>340.358</ele>
        <time>2019-06-22T11:12:43Z</time>
      </trkpt>
      <trkpt lat="42.448324" lon="-8.138832">
        <ele>340.396</ele>
        <time>2019-06-22T11:12:44Z</time>
      </trkpt>
      <trkpt lat="42.448130" lon="-8.138802">
        <ele>340.885</ele>
        <time>2019-06-22T11:12:45Z</time>
      </trkpt>
      <trkpt lat="42.447896" lon="-8.138755">
        <ele>341.920</ele>
        <time>2019-06-22T11:12:46Z</time>
      </trkpt>
      <trkpt lat="42.447662" lon="-8.138713">
        <ele>344.293</ele>
        <time>2019-06-22T11:12:47Z</time>
      </trkpt>
      <trkpt lat="42.447429" lon="-8.138738">
        <ele>346.338</ele>
        <time>2019-06-22T11:12:48Z</time>
      </trkpt>
      <trkpt lat="42.447197" lon="-8.138738">
        <ele>349.670</ele>
        <time>2019-06-22T11:12:49Z</time>
      </trkpt>
      <trkpt lat="42.446973" lon="-8.138741">
        <ele>352.417</ele>
        <time>2019-06-22T11:12:50Z</time>
      </trkpt>
      <trkpt lat="42.446741" lon="-8.138711">
        <ele>355.108</ele>
        <time>2019-06-22T11:12:51Z</time>
      </trkpt>
      <trkpt lat="42.446513" lon="-8.138673">
        <ele>357.386</ele>
        <time>2019-06-22T11:12:52Z</time>
      </trkpt>
      <trkpt lat="42.446285" lon="-8.138614">
        <ele>359.490</ele>
        <time>2019-06-22T11:12:53Z</time>
      </trkpt>
      <trkpt lat="42.446067" lon="-8.138556">
        <ele>361.172</ele>
        <time>2019-06-22T11:12:54Z</time>
      </trkpt>
      <trkpt lat="42.445840" lon="-8.138448">
        <ele>361.924</ele>
        <time>2019-06-22T11:12:55Z</time>
      </trkpt>
      <trkpt lat="42.445626" lon="-8.138346">
        <ele>363.262</ele>
        <time>2019-06-22T11:12:56Z</time>
      </trkpt>
      <trkpt lat="42.445406" lon="-8.138248">
        <ele>364.681</ele>
        <time>2019-06-22T11:12:57Z</time>
      </trkpt>
      <trkpt lat="42.445190" lon="-8.138148">
        <ele>364.826</ele>
        <time>2019-06-22T11:12:58Z</time>
      </trkpt>
      <trkpt lat="42.444991" lon="-8.138058">
        <ele>365.449</ele>
        <time>2019-06-22T11:12:59Z</time>
      </trkpt>
      <trkpt lat="42.444821" lon="-8.137992">
        <ele>367.251</ele>
        <time>2019-06-22T11:13:00Z</time>
      </trkpt>
      <trkpt lat="42.444630" lon="-8.137916">
        <ele>368.901</ele>
        <time>2019-06-22T11:13:01Z</time>
      </trkpt>
      <trkpt lat="42.444445" lon="-8.137840">
        <ele>370.111</ele>
        <time>2019-06-22T11:13:02Z</time>
      </trkpt>
      <trkpt lat="42.444269" lon="-8.137786">
        <ele>371.208</ele>
        <time>2019-06-22T11:13:03Z</time>
      </trkpt>
      <trkpt lat="42.444074" lon="-8.137740">
        <ele>372.798</ele>
        <time>2019-06-22T11:13:04Z</time>
      </trkpt>
      <trkpt lat="42.443899" lon="-8.137720">
        <ele>373.582</ele>
        <time>2019-06-22T11:13:05Z</time>
      </trkpt>
      <trkpt lat="42.443712" lon="-8.137694">
        <ele>374.464</ele>
        <time>2019-06-22T11:13:06Z</time>
      </trkpt>
      <trkpt lat="42.443529" lon="-8.137660">
        <ele>375.356</ele>
        <time>2019-06-22T11:13:07Z</time>
      </trkpt>
      <trkpt lat="42.443342" lon="-8.137615">
        <ele>377.184</ele>
        <time>2019-06-22T11:13:08Z</time>
      </trkpt>
      <trkpt lat="42.443160" lon="-8.137547">
        <ele>378.393</ele>
        <time>2019-06-22T11:13:09Z</time>
      </trkpt>
      <trkpt lat="42.442965" lon="-8.137447">
        <ele>379.638</ele>
        <time>2019-06-22T11:13:10Z</time>
      </trkpt>
      <trkpt lat="42.442774" lon="-8.137319">
        <ele>380.261</ele>
        <time>2019-06-22T11:13:11Z</time>
      </trkpt>
      <trkpt lat="42.442595" lon="-8.137168">
        <ele>380.495</ele>
        <time>2019-06-22T11:13:12Z</time>
      </trkpt>
      <trkpt lat="42.442422" lon="-8.137034">
        <ele>380.449</ele>
        <time>2019-06-22T11:13:13Z</time>
      </trkpt>
      <trkpt lat="42.442253" lon="-8.136836">
        <ele>379.823</ele>
        <time>2019-06-22T11:13:14Z</time>
      </trkpt>
      <trkpt lat="42.442084" lon="-8.136670">
        <ele>379.308</ele>
        <time>2019-06-22T11:13:15Z</time>
      </trkpt>
      <trkpt lat="42.441921" lon="-8.136528">
        <ele>378.772</ele>
        <time>2019-06-22T11:13:16Z</time>
      </trkpt>
      <trkpt lat="42.441754" lon="-8.136526">
        <ele>378.186</ele>
        <time>2019-06-22T11:13:17Z</time>
      </trkpt>
      <trkpt lat="42.441593" lon="-8.136478">
        <ele>378.178</ele>
        <time>2019-06-22T11:13:18Z</time>
      </trkpt>
      <trkpt lat="42.441413" lon="-8.136496">
        <ele>378.650</ele>
        <time>2019-06-22T11:13:19Z</time>
      </trkpt>
      <trkpt lat="42.441261" lon="-8.136495">
        <ele>380.088</ele>
        <time>2019-06-22T11:13:20Z</time>
      </trkpt>
      <trkpt lat="42.441079" lon="-8.136464">
        <ele>381.057</ele>
        <time>2019-06-22T11:13:21Z</time>
      </trkpt>
      <trkpt lat="42.440917" lon="-8.136448">
        <ele>382.672</ele>
        <time>2019-06-22T11:13:22Z</time>
      </trkpt>
      <trkpt lat="42.440745" lon="-8.136430">
        <ele>382.655</ele>
        <time>2019-06-22T11:13:23Z</time>
      </trkpt>
      <trkpt lat="42.440564" lon="-8.136422">
        <ele>384.461</ele>
        <time>2019-06-22T11:13:24Z</time>
      </trkpt>
      <trkpt lat="42.440392" lon="-8.136418">
        <ele>385.221</ele>
        <time>2019-06-22T11:13:25Z</time>
      </trkpt>
      <trkpt lat="42.440208" lon="-8.136420">
        <ele>385.413</ele>
        <time>2019-06-22T11:13:26Z</time>
      </trkpt>
      <trkpt lat="42.440068" lon="-8.136440">
        <ele>386.208</ele>
        <time>2019-06-22T11:13:27Z</time>
      </trkpt>
      <trkpt lat="42.439905" lon="-8.136464">
        <ele>386.639</ele>
        <time>2019-06-22T11:13:28Z</time>
      </trkpt>
      <trkpt lat="42.439759" lon="-8.136504">
        <ele>387.193</ele>
        <time>2019-06-22T11:13:29Z</time>
      </trkpt>
      <trkpt lat="42.439622" lon="-8.136556">
        <ele>388.125</ele>
        <time>2019-06-22T11:13:30Z</time>
      </trkpt>
      <trkpt lat="42.439484" lon="-8.136610">
        <ele>389.787</ele>
        <time>2019-06-22T11:13:31Z</time>
      </trkpt>
      <trkpt lat="42.439377" lon="-8.136663">
        <ele>391.225</ele>
        <time>2019-06-22T11:13:32Z</time>
      </trkpt>
      <trkpt lat="42.439270" lon="-8.136710">
        <ele>392.934</ele>
        <time>2019-06-22T11:13:33Z</time>
      </trkpt>
      <trkpt lat="42.439174" lon="-8.136756">
        <ele>394.439</ele>
        <time>2019-06-22T11:13:34Z</time>
      </trkpt>
      <trkpt lat="42.439074" lon="-8.136784">
        <ele>395.852</ele>
        <time>2019-06-22T11:13:35Z</time>
      </trkpt>
      <trkpt lat="42.438983" lon="-8.136808">
        <ele>397.462</ele>
        <time>2019-06-22T11:13:36Z</time>
      </trkpt>
      <trkpt lat="42.438887" lon="-8.136818">
        <ele>398.383</ele>
        <time>2019-06-22T11:13:37Z</time>
      </trkpt>
      <trkpt lat="42.438785" lon="-8.136815">
        <ele>398.911</ele>
        <time>2019-06-22T11:13:38Z</time>
      </trkpt>
      <trkpt lat="42.438686" lon="-8.136800">
        <ele>399.408</ele>
        <time>2019-06-22T11:13:39Z</time>
      </trkpt>
      <trkpt lat="42.438593" lon="-8.136791">
        <ele>399.819</ele>
        <time>2019-06-22T11:13:40Z</time>
      </trkpt>
      <trkpt lat="42.438498" lon="-8.136762">
        <ele>400.373</ele>
        <time>2019-06-22T11:13:41Z</time>
      </trkpt>
      <trkpt lat="42.438409" lon="-8.136705">
        <ele>400.625</ele>
        <time>2019-06-22T11:13:42Z</time>
      </trkpt>
      <trkpt lat="42.438327" lon="-8.136647">
        <ele>400.927</ele>
        <time>2019-06-22T11:13:43Z</time>
      </trkpt>
      <trkpt lat="42.438241" lon="-8.136579">
        <ele>401.115</ele>
        <time>2019-06-22T11:13:44Z</time>
      </trkpt>
      <trkpt lat="42.438161" lon="-8.136512">
        <ele>401.784</ele>
        <time>2019-06-22T11:13:45Z</time>
      </trkpt>
      <trkpt lat="42.438088" lon="-8.136425">
        <ele>401.719</ele>
        <time>2019-06-22T11:13:46Z</time>
      </trkpt>
      <trkpt lat="42.438012" lon="-8.136339">
        <ele>401.762</ele>
        <time>2019-06-22T11:13:47Z</time>
      </trkpt>
      <trkpt lat="42.437932" lon="-8.136250">
        <ele>401.916</ele>
        <time>2019-06-22T11:13:48Z</time>
      </trkpt>
      <trkpt lat="42.437852" lon="-8.136161">
        <ele>402.276</ele>
        <time>2019-06-22T11:13:49Z</time>
      </trkpt>
      <trkpt lat="42.437768" lon="-8.136071">
        <ele>402.513</ele>
        <time>2019-06-22T11:13:50Z</time>
      </trkpt>
      <trkpt lat="42.437665" lon="-8.135985">
        <ele>402.508</ele>
        <time>2019-06-22T11:13:51Z</time>
      </trkpt>
      <trkpt lat="42.437583" lon="-8.135896">
        <ele>402.644</ele>
        <time>2019-06-22T11:13:52Z</time>
      </trkpt>
      <trkpt lat="42.437496" lon="-8.135808">
        <ele>402.638</ele>
        <time>2019-06-22T11:13:53Z</time>
      </trkpt>
      <trkpt lat="42.437401" lon="-8.135727">
        <ele>401.760</ele>
        <time>2019-06-22T11:13:54Z</time>
      </trkpt>
      <trkpt lat="42.437288" lon="-8.135663">
        <ele>401.112</ele>
        <time>2019-06-22T11:13:55Z</time>
      </trkpt>
      <trkpt lat="42.437172" lon="-8.135589">
        <ele>400.570</ele>
        <time>2019-06-22T11:13:56Z</time>
      </trkpt>
      <trkpt lat="42.437055" lon="-8.135531">
        <ele>400.179</ele>
        <time>2019-06-22T11:13:57Z</time>
      </trkpt>
      <trkpt lat="42.436926" lon="-8.135497">
        <ele>400.144</ele>
        <time>2019-06-22T11:13:58Z</time>
      </trkpt>
      <trkpt lat="42.436778" lon="-8.135465">
        <ele>400.137</ele>
        <time>2019-06-22T11:13:59Z</time>
      </trkpt>
      <trkpt lat="42.436639" lon="-8.135432">
        <ele>400.568</ele>
        <time>2019-06-22T11:14:00Z</time>
      </trkpt>
      <trkpt lat="42.436486" lon="-8.135416">
        <ele>400.542</ele>
        <time>2019-06-22T11:14:01Z</time>
      </trkpt>
      <trkpt lat="42.436323" lon="-8.135383">
        <ele>400.526</ele>
        <time>2019-06-22T11:14:02Z</time>
      </trkpt>
      <trkpt lat="42.436148" lon="-8.135356">
        <ele>400.408</ele>
        <time>2019-06-22T11:14:03Z</time>
      </trkpt>
      <trkpt lat="42.435950" lon="-8.135337">
        <ele>400.159</ele>
        <time>2019-06-22T11:14:04Z</time>
      </trkpt>
      <trkpt lat="42.435755" lon="-8.135317">
        <ele>399.323</ele>
        <time>2019-06-22T11:14:05Z</time>
      </trkpt>
      <trkpt lat="42.435548" lon="-8.135304">
        <ele>397.865</ele>
        <time>2019-06-22T11:14:06Z</time>
      </trkpt>
      <trkpt lat="42.435342" lon="-8.135297">
        <ele>396.217</ele>
        <time>2019-06-22T11:14:07Z</time>
      </trkpt>
      <trkpt lat="42.435128" lon="-8.135301">
        <ele>394.885</ele>
        <time>2019-06-22T11:14:08Z</time>
      </trkpt>
      <trkpt lat="42.434946" lon="-8.135310">
        <ele>392.974</ele>
        <time>2019-06-22T11:14:09Z</time>
      </trkpt>
      <trkpt lat="42.434746" lon="-8.135282">
        <ele>391.989</ele>
        <time>2019-06-22T11:14:10Z</time>
      </trkpt>
      <trkpt lat="42.434542" lon="-8.135236">
        <ele>391.212</ele>
        <time>2019-06-22T11:14:11Z</time>
      </trkpt>
      <trkpt lat="42.434333" lon="-8.135152">
        <ele>390.782</ele>
        <time>2019-06-22T11:14:12Z</time>
      </trkpt>
      <trkpt lat="42.434125" lon="-8.135075">
        <ele>390.043</ele>
        <time>2019-06-22T11:14:13Z</time>
      </trkpt>
      <trkpt lat="42.433922" lon="-8.134982">
        <ele>389.317</ele>
        <time>2019-06-22T11:14:14Z</time>
      </trkpt>
      <trkpt lat="42.433714" lon="-8.134887">
        <ele>387.808</ele>
        <time>2019-06-22T11:14:15Z</time>
      </trkpt>
      <trkpt lat="42.433520" lon="-8.134789">
        <ele>386.861</ele>
        <time>2019-06-22T11:14:16Z</time>
      </trkpt>
      <trkpt lat="42.433328" lon="-8.134695">
        <ele>386.135</ele>
        <time>2019-06-22T11:14:17Z</time>
      </trkpt>
      <trkpt lat="42.433135" lon="-8.134599">
        <ele>384.987</ele>
        <time>2019-06-22T11:14:18Z</time>
      </trkpt>
      <trkpt lat="42.432948" lon="-8.134475">
        <ele>384.259</ele>
        <time>2019-06-22T11:14:19Z</time>
      </trkpt>
      <trkpt lat="42.432756" lon="-8.134368">
        <ele>384.137</ele>
        <time>2019-06-22T11:14:20Z</time>
      </trkpt>
      <trkpt lat="42.432573" lon="-8.134219">
        <ele>383.866</ele>
        <time>2019-06-22T11:14:21Z</time>
      </trkpt>
      <trkpt lat="42.432386" lon="-8.134074">
        <ele>383.461</ele>
        <time>2019-06-22T11:14:22Z</time>
      </trkpt>
      <trkpt lat="42.432237" lon="-8.133850">
        <ele>383.394</ele>
        <time>2019-06-22T11:14:23Z</time>
      </trkpt>
      <trkpt lat="42.432074" lon="-8.133650">
        <ele>383.341</ele>
        <time>2019-06-22T11:14:24Z</time>
      </trkpt>
      <trkpt lat="42.431949" lon="-8.133408">
        <ele>382.081</ele>
        <time>2019-06-22T11:14:25Z</time>
      </trkpt>
      <trkpt lat="42.431825" lon="-8.133151">
        <ele>382.009</ele>
        <time>2019-06-22T11:14:26Z</time>
      </trkpt>
      <trkpt lat="42.431720" lon="-8.132875">
        <ele>381.408</ele>
        <time>2019-06-22T11:14:27Z</time>
      </trkpt>
      <trkpt lat="42.431600" lon="-8.132602">
        <ele>380.567</ele>
        <time>2019-06-22T11:14:28Z</time>
      </trkpt>
      <trkpt lat="42.431487" lon="-8.132327">
        <ele>379.421</ele>
        <time>2019-06-22T11:14:29Z</time>
      </trkpt>
      <trkpt lat="42.431350" lon="-8.132056">
        <ele>378.263</ele>
        <time>2019-06-22T11:14:30Z</time>
      </trkpt>
      <trkpt lat="42.431210" lon="-8.131798">
        <ele>376.635</ele>
        <time>2019-06-22T11:14:31Z</time>
      </trkpt>
      <trkpt lat="42.431061" lon="-8.131542">
        <ele>375.293</ele>
        <time>2019-06-22T11:14:32Z</time>
      </trkpt>
      <trkpt lat="42.430909" lon="-8.131282">
        <ele>373.492</ele>
        <time>2019-06-22T11:14:33Z</time>
      </trkpt>
      <trkpt lat="42.430739" lon="-8.131037">
        <ele>372.077</ele>
        <time>2019-06-22T11:14:34Z</time>
      </trkpt>
      <trkpt lat="42.430568" lon="-8.130815">
        <ele>370.720</ele>
        <time>2019-06-22T11:14:35Z</time>
      </trkpt>
      <trkpt lat="42.430390" lon="-8.130608">
        <ele>370.331</ele>
        <time>2019-06-22T11:14:36Z</time>
      </trkpt>
      <trkpt lat="42.430193" lon="-8.130391">
        <ele>370.361</ele>
        <time>2019-06-22T11:14:37Z</time>
      </trkpt>
      <trkpt lat="42.430011" lon="-8.130214">
        <ele>370.107</ele>
        <time>2019-06-22T11:14:38Z</time>
      </trkpt>
      <trkpt lat="42.429818" lon="-8.130021">
        <ele>370.008</ele>
        <time>2019-06-22T11:14:39Z</time>
      </trkpt>
      <trkpt lat="42.429641" lon="-8.129855">
        <ele>369.716</ele>
        <time>2019-06-22T11:14:40Z</time>
      </trkpt>
      <trkpt lat="42.429446" lon="-8.129659">
        <ele>368.870</ele>
        <time>2019-06-22T11:14:41Z</time>
      </trkpt>
      <trkpt lat="42.429257" lon="-8.129473">
        <ele>368.852</ele>
        <time>2019-06-22T11:14:42Z</time>
      </trkpt>
      <trkpt lat="42.429089" lon="-8.129304">
        <ele>368.884</ele>
        <time>2019-06-22T11:14:43Z</time>
      </trkpt>
      <trkpt lat="42.428910" lon="-8.129123">
        <ele>369.052</ele>
        <time>2019-06-22T11:14:44Z</time>
      </trkpt>
      <trkpt lat="42.428733" lon="-8.128949">
        <ele>369.221</ele>
        <time>2019-06-22T11:14:45Z</time>
      </trkpt>
      <trkpt lat="42.428544" lon="-8.128773">
        <ele>370.286</ele>
        <time>2019-06-22T11:14:46Z</time>
      </trkpt>
      <trkpt lat="42.428335" lon="-8.128598">
        <ele>370.369</ele>
        <time>2019-06-22T11:14:47Z</time>
      </trkpt>
      <trkpt lat="42.428135" lon="-8.128452">
        <ele>370.234</ele>
        <time>2019-06-22T11:14:48Z</time>
      </trkpt>
      <trkpt lat="42.427913" lon="-8.128318">
        <ele>369.255</ele>
        <time>2019-06-22T11:14:49Z</time>
      </trkpt>
      <trkpt lat="42.427690" lon="-8.128193">
        <ele>368.510</ele>
        <time>2019-06-22T11:14:50Z</time>
      </trkpt>
      <trkpt lat="42.427467" lon="-8.128109">
        <ele>367.308</ele>
        <time>2019-06-22T11:14:51Z</time>
      </trkpt>
      <trkpt lat="42.427225" lon="-8.128049">
        <ele>366.286</ele>
        <time>2019-06-22T11:14:52Z</time>
      </trkpt>
      <trkpt lat="42.426976" lon="-8.128005">
        <ele>365.860</ele>
        <time>2019-06-22T11:14:53Z</time>
      </trkpt>
      <trkpt lat="42.426738" lon="-8.127970">
        <ele>365.882</ele>
        <time>2019-06-22T11:14:54Z</time>
      </trkpt>
      <trkpt lat="42.426492" lon="-8.127931">
        <ele>365.914</ele>
        <time>2019-06-22T11:14:55Z</time>
      </trkpt>
      <trkpt lat="42.426260" lon="-8.127911">
        <ele>366.922</ele>
        <time>2019-06-22T11:14:56Z</time>
      </trkpt>
      <trkpt lat="42.426030" lon="-8.127885">
        <ele>368.261</ele>
        <time>2019-06-22T11:14:57Z</time>
      </trkpt>
      <trkpt lat="42.425764" lon="-8.127852">
        <ele>369.256</ele>
        <time>2019-06-22T11:14:58Z</time>
      </trkpt>
      <trkpt lat="42.425519" lon="-8.127822">
        <ele>370.329</ele>
        <time>2019-06-22T11:14:59Z</time>
      </trkpt>
      <trkpt lat="42.425282" lon="-8.127802">
        <ele>371.234</ele>
        <time>2019-06-22T11:15:00Z</time>
      </trkpt>
      <trkpt lat="42.425049" lon="-8.127767">
        <ele>371.255</ele>
        <time>2019-06-22T11:15:01Z</time>
      </trkpt>
      <trkpt lat="42.424805" lon="-8.127699">
        <ele>371.210</ele>
        <time>2019-06-22T11:15:02Z</time>
      </trkpt>
      <trkpt lat="42.424571" lon="-8.127612">
        <ele>372.008</ele>
        <time>2019-06-22T11:15:03Z</time>
      </trkpt>
      <trkpt lat="42.424338" lon="-8.127532">
        <ele>372.756</ele>
        <time>2019-06-22T11:15:04Z</time>
      </trkpt>
      <trkpt lat="42.424171" lon="-8.127379">
        <ele>373.420</ele>
        <time>2019-06-22T11:15:05Z</time>
      </trkpt>
      <trkpt lat="42.423967" lon="-8.127244">
        <ele>374.812</ele>
        <time>2019-06-22T11:15:06Z</time>
      </trkpt>
      <trkpt lat="42.423749" lon="-8.127086">
        <ele>375.724</ele>
        <time>2019-06-22T11:15:07Z</time>
      </trkpt>
      <trkpt lat="42.423540" lon="-8.126931">
        <ele>375.772</ele>
        <time>2019-06-22T11:15:08Z</time>
      </trkpt>
      <trkpt lat="42.423350" lon="-8.126781">
        <ele>375.511</ele>
        <time>2019-06-22T11:15:09Z</time>
      </trkpt>
      <trkpt lat="42.423176" lon="-8.126643">
        <ele>375.536</ele>
        <time>2019-06-22T11:15:10Z</time>
      </trkpt>
      <trkpt lat="42.423003" lon="-8.126499">
        <ele>375.579</ele>
        <time>2019-06-22T11:15:11Z</time>
      </trkpt>
      <trkpt lat="42.422823" lon="-8.126359">
        <ele>375.623</ele>
        <time>2019-06-22T11:15:12Z</time>
      </trkpt>
      <trkpt lat="42.422655" lon="-8.126222">
        <ele>376.183</ele>
        <time>2019-06-22T11:15:13Z</time>
      </trkpt>
      <trkpt lat="42.422498" lon="-8.126082">
        <ele>377.111</ele>
        <time>2019-06-22T11:15:14Z</time>
      </trkpt>
      <trkpt lat="42.422341" lon="-8.125951">
        <ele>378.708</ele>
        <time>2019-06-22T11:15:15Z</time>
      </trkpt>
      <trkpt lat="42.422177" lon="-8.125811">
        <ele>379.195</ele>
        <time>2019-06-22T11:15:16Z</time>
      </trkpt>
      <trkpt lat="42.422027" lon="-8.125683">
        <ele>379.179</ele>
        <time>2019-06-22T11:15:17Z</time>
      </trkpt>
      <trkpt lat="42.421877" lon="-8.125536">
        <ele>378.721</ele>
        <time>2019-06-22T11:15:18Z</time>
      </trkpt>
      <trkpt lat="42.421746" lon="-8.125400">
        <ele>378.123</ele>
        <time>2019-06-22T11:15:19Z</time>
      </trkpt>
      <trkpt lat="42.421611" lon="-8.125250">
        <ele>377.691</ele>
        <time>2019-06-22T11:15:20Z</time>
      </trkpt>
      <trkpt lat="42.421473" lon="-8.125075">
        <ele>377.540</ele>
        <time>2019-06-22T11:15:21Z</time>
      </trkpt>
      <trkpt lat="42.421365" lon="-8.124923">
        <ele>377.565</ele>
        <time>2019-06-22T11:15:22Z</time>
      </trkpt>
      <trkpt lat="42.421351" lon="-8.124604">
        <ele>377.788</ele>
        <time>2019-06-22T11:15:23Z</time>
      </trkpt>
      <trkpt lat="42.421293" lon="-8.124356">
        <ele>377.719</ele>
        <time>2019-06-22T11:15:24Z</time>
      </trkpt>
      <trkpt lat="42.421264" lon="-8.124082">
        <ele>376.909</ele>
        <time>2019-06-22T11:15:25Z</time>
      </trkpt>
      <trkpt lat="42.421234" lon="-8.123792">
        <ele>376.919</ele>
        <time>2019-06-22T11:15:26Z</time>
      </trkpt>
      <trkpt lat="42.421249" lon="-8.123531">
        <ele>375.808</ele>
        <time>2019-06-22T11:15:27Z</time>
      </trkpt>
      <trkpt lat="42.421260" lon="-8.123234">
        <ele>374.834</ele>
        <time>2019-06-22T11:15:28Z</time>
      </trkpt>
      <trkpt lat="42.421299" lon="-8.122922">
        <ele>373.688</ele>
        <time>2019-06-22T11:15:29Z</time>
      </trkpt>
      <trkpt lat="42.421380" lon="-8.122651">
        <ele>370.990</ele>
        <time>2019-06-22T11:15:30Z</time>
      </trkpt>
      <trkpt lat="42.421452" lon="-8.122350">
        <ele>370.932</ele>
        <time>2019-06-22T11:15:31Z</time>
      </trkpt>
      <trkpt lat="42.421511" lon="-8.122062">
        <ele>369.320</ele>
        <time>2019-06-22T11:15:32Z</time>
      </trkpt>
      <trkpt lat="42.421591" lon="-8.121759">
        <ele>367.049</ele>
        <time>2019-06-22T11:15:33Z</time>
      </trkpt>
      <trkpt lat="42.421678" lon="-8.121469">
        <ele>364.944</ele>
        <time>2019-06-22T11:15:34Z</time>
      </trkpt>
      <trkpt lat="42.421758" lon="-8.121161">
        <ele>363.637</ele>
        <time>2019-06-22T11:15:35Z</time>
      </trkpt>
      <trkpt lat="42.421845" lon="-8.120855">
        <ele>362.532</ele>
        <time>2019-06-22T11:15:36Z</time>
      </trkpt>
      <trkpt lat="42.421942" lon="-8.120553">
        <ele>361.792</ele>
        <time>2019-06-22T11:15:37Z</time>
      </trkpt>
      <trkpt lat="42.422046" lon="-8.120251">
        <ele>361.711</ele>
        <time>2019-06-22T11:15:38Z</time>
      </trkpt>
      <trkpt lat="42.422162" lon="-8.119984">
        <ele>361.908</ele>
        <time>2019-06-22T11:15:39Z</time>
      </trkpt>
      <trkpt lat="42.422269" lon="-8.119689">
        <ele>361.916</ele>
        <time>2019-06-22T11:15:40Z</time>
      </trkpt>
      <trkpt lat="42.422380" lon="-8.119403">
        <ele>361.480</ele>
        <time>2019-06-22T11:15:41Z</time>
      </trkpt>
      <trkpt lat="42.422497" lon="-8.119141">
        <ele>361.362</ele>
        <time>2019-06-22T11:15:42Z</time>
      </trkpt>
      <trkpt lat="42.422613" lon="-8.118858">
        <ele>361.244</ele>
        <time>2019-06-22T11:15:43Z</time>
      </trkpt>
      <trkpt lat="42.422733" lon="-8.118571">
        <ele>360.842</ele>
        <time>2019-06-22T11:15:44Z</time>
      </trkpt>
      <trkpt lat="42.422836" lon="-8.118306">
        <ele>360.371</ele>
        <time>2019-06-22T11:15:45Z</time>
      </trkpt>
      <trkpt lat="42.422946" lon="-8.118045">
        <ele>359.036</ele>
        <time>2019-06-22T11:15:46Z</time>
      </trkpt>
      <trkpt lat="42.423066" lon="-8.117788">
        <ele>356.769</ele>
        <time>2019-06-22T11:15:47Z</time>
      </trkpt>
      <trkpt lat="42.423176" lon="-8.117531">
        <ele>354.511</ele>
        <time>2019-06-22T11:15:48Z</time>
      </trkpt>
      <trkpt lat="42.423256" lon="-8.117278">
        <ele>352.521</ele>
        <time>2019-06-22T11:15:49Z</time>
      </trkpt>
      <trkpt lat="42.423366" lon="-8.117035">
        <ele>350.703</ele>
        <time>2019-06-22T11:15:50Z</time>
      </trkpt>
      <trkpt lat="42.423488" lon="-8.116817">
        <ele>350.308</ele>
        <time>2019-06-22T11:15:51Z</time>
      </trkpt>
      <trkpt lat="42.423607" lon="-8.116564">
        <ele>350.394</ele>
        <time>2019-06-22T11:15:52Z</time>
      </trkpt>
      <trkpt lat="42.423756" lon="-8.116325">
        <ele>350.388</ele>
        <time>2019-06-22T11:15:53Z</time>
      </trkpt>
      <trkpt lat="42.423906" lon="-8.116089">
        <ele>350.470</ele>
        <time>2019-06-22T11:15:54Z</time>
      </trkpt>
      <trkpt lat="42.424062" lon="-8.115853">
        <ele>350.472</ele>
        <time>2019-06-22T11:15:55Z</time>
      </trkpt>
      <trkpt lat="42.424259" lon="-8.115647">
        <ele>349.460</ele>
        <time>2019-06-22T11:15:56Z</time>
      </trkpt>
      <trkpt lat="42.424434" lon="-8.115447">
        <ele>348.129</ele>
        <time>2019-06-22T11:15:57Z</time>
      </trkpt>
      <trkpt lat="42.424620" lon="-8.115260">
        <ele>346.254</ele>
        <time>2019-06-22T11:15:58Z</time>
      </trkpt>
      <trkpt lat="42.424804" lon="-8.115078">
        <ele>344.587</ele>
        <time>2019-06-22T11:15:59Z</time>
      </trkpt>
      <trkpt lat="42.424972" lon="-8.114903">
        <ele>342.786</ele>
        <time>2019-06-22T11:16:00Z</time>
      </trkpt>
      <trkpt lat="42.425146" lon="-8.114726">
        <ele>341.460</ele>
        <time>2019-06-22T11:16:01Z</time>
      </trkpt>
      <trkpt lat="42.425312" lon="-8.114552">
        <ele>340.626</ele>
        <time>2019-06-22T11:16:02Z</time>
      </trkpt>
      <trkpt lat="42.425465" lon="-8.114373">
        <ele>339.808</ele>
        <time>2019-06-22T11:16:03Z</time>
      </trkpt>
      <trkpt lat="42.425609" lon="-8.114191">
        <ele>338.931</ele>
        <time>2019-06-22T11:16:04Z</time>
      </trkpt>
      <trkpt lat="42.425753" lon="-8.113990">
        <ele>338.615</ele>
        <time>2019-06-22T11:16:05Z</time>
      </trkpt>
      <trkpt lat="42.425873" lon="-8.113790">
        <ele>338.387</ele>
        <time>2019-06-22T11:16:06Z</time>
      </trkpt>
      <trkpt lat="42.425969" lon="-8.113585">
        <ele>337.959</ele>
        <time>2019-06-22T11:16:07Z</time>
      </trkpt>
      <trkpt lat="42.426066" lon="-8.113378">
        <ele>337.857</ele>
        <time>2019-06-22T11:16:08Z</time>
      </trkpt>
      <trkpt lat="42.426148" lon="-8.113179">
        <ele>337.886</ele>
        <time>2019-06-22T11:16:09Z</time>
      </trkpt>
      <trkpt lat="42.426225" lon="-8.112971">
        <ele>337.761</ele>
        <time>2019-06-22T11:16:10Z</time>
      </trkpt>
      <trkpt lat="42.426287" lon="-8.112764">
        <ele>337.184</ele>
        <time>2019-06-22T11:16:11Z</time>
      </trkpt>
      <trkpt lat="42.426348" lon="-8.112553">
        <ele>337.013</ele>
        <time>2019-06-22T11:16:12Z</time>
      </trkpt>
      <trkpt lat="42.426386" lon="-8.112349">
        <ele>336.943</ele>
        <time>2019-06-22T11:16:13Z</time>
      </trkpt>
      <trkpt lat="42.426417" lon="-8.112148">
        <ele>336.207</ele>
        <time>2019-06-22T11:16:14Z</time>
      </trkpt>
      <trkpt lat="42.426444" lon="-8.111943">
        <ele>336.008</ele>
        <time>2019-06-22T11:16:15Z</time>
      </trkpt>
      <trkpt lat="42.426468" lon="-8.111739">
        <ele>336.094</ele>
        <time>2019-06-22T11:16:16Z</time>
      </trkpt>
      <trkpt lat="42.426483" lon="-8.111542">
        <ele>336.228</ele>
        <time>2019-06-22T11:16:17Z</time>
      </trkpt>
      <trkpt lat="42.426472" lon="-8.111349">
        <ele>336.460</ele>
        <time>2019-06-22T11:16:18Z</time>
      </trkpt>
      <trkpt lat="42.426484" lon="-8.111172">
        <ele>336.822</ele>
        <time>2019-06-22T11:16:19Z</time>
      </trkpt>
      <trkpt lat="42.426474" lon="-8.111006">
        <ele>337.230</ele>
        <time>2019-06-22T11:16:20Z</time>
      </trkpt>
      <trkpt lat="42.426465" lon="-8.110818">
        <ele>337.229</ele>
        <time>2019-06-22T11:16:21Z</time>
      </trkpt>
      <trkpt lat="42.426439" lon="-8.110633">
        <ele>337.174</ele>
        <time>2019-06-22T11:16:22Z</time>
      </trkpt>
      <trkpt lat="42.426389" lon="-8.110464">
        <ele>337.187</ele>
        <time>2019-06-22T11:16:23Z</time>
      </trkpt>
      <trkpt lat="42.426356" lon="-8.110264">
        <ele>337.484</ele>
        <time>2019-06-22T11:16:24Z</time>
      </trkpt>
      <trkpt lat="42.426341" lon="-8.110066">
        <ele>337.407</ele>
        <time>2019-06-22T11:16:25Z</time>
      </trkpt>
      <trkpt lat="42.426305" lon="-8.109873">
        <ele>337.117</ele>
        <time>2019-06-22T11:16:26Z</time>
      </trkpt>
      <trkpt lat="42.426263" lon="-8.109697">
        <ele>337.108</ele>
        <time>2019-06-22T11:16:27Z</time>
      </trkpt>
      <trkpt lat="42.426213" lon="-8.109521">
        <ele>336.921</ele>
        <time>2019-06-22T11:16:28Z</time>
      </trkpt>
      <trkpt lat="42.426159" lon="-8.109346">
        <ele>336.425</ele>
        <time>2019-06-22T11:16:29Z</time>
      </trkpt>
      <trkpt lat="42.426127" lon="-8.109182">
        <ele>336.047</ele>
        <time>2019-06-22T11:16:30Z</time>
      </trkpt>
      <trkpt lat="42.426072" lon="-8.109030">
        <ele>336.099</ele>
        <time>2019-06-22T11:16:31Z</time>
      </trkpt>
      <trkpt lat="42.426004" lon="-8.108891">
        <ele>336.157</ele>
        <time>2019-06-22T11:16:32Z</time>
      </trkpt>
      <trkpt lat="42.425935" lon="-8.108730">
        <ele>336.196</ele>
        <time>2019-06-22T11:16:33Z</time>
      </trkpt>
      <trkpt lat="42.425872" lon="-8.108559">
        <ele>336.421</ele>
        <time>2019-06-22T11:16:34Z</time>
      </trkpt>
      <trkpt lat="42.425823" lon="-8.108411">
        <ele>336.994</ele>
        <time>2019-06-22T11:16:35Z</time>
      </trkpt>
      <trkpt lat="42.425761" lon="-8.108242">
        <ele>336.982</ele>
        <time>2019-06-22T11:16:36Z</time>
      </trkpt>
      <trkpt lat="42.425707" lon="-8.108087">
        <ele>336.743</ele>
        <time>2019-06-22T11:16:37Z</time>
      </trkpt>
      <trkpt lat="42.425658" lon="-8.107949">
        <ele>336.717</ele>
        <time>2019-06-22T11:16:38Z</time>
      </trkpt>
      <trkpt lat="42.425599" lon="-8.107792">
        <ele>336.208</ele>
        <time>2019-06-22T11:16:39Z</time>
      </trkpt>
      <trkpt lat="42.425542" lon="-8.107652">
        <ele>335.671</ele>
        <time>2019-06-22T11:16:40Z</time>
      </trkpt>
      <trkpt lat="42.425504" lon="-8.107529">
        <ele>335.655</ele>
        <time>2019-06-22T11:16:41Z</time>
      </trkpt>
      <trkpt lat="42.425444" lon="-8.107352">
        <ele>335.727</ele>
        <time>2019-06-22T11:16:42Z</time>
      </trkpt>
      <trkpt lat="42.425384" lon="-8.107185">
        <ele>336.099</ele>
        <time>2019-06-22T11:16:43Z</time>
      </trkpt>
      <trkpt lat="42.425321" lon="-8.107014">
        <ele>336.477</ele>
        <time>2019-06-22T11:16:44Z</time>
      </trkpt>
      <trkpt lat="42.425276" lon="-8.106822">
        <ele>336.846</ele>
        <time>2019-06-22T11:16:45Z</time>
      </trkpt>
      <trkpt lat="42.425237" lon="-8.106611">
        <ele>337.331</ele>
        <time>2019-06-22T11:16:46Z</time>
      </trkpt>
      <trkpt lat="42.425210" lon="-8.106396">
        <ele>337.464</ele>
        <time>2019-06-22T11:16:47Z</time>
      </trkpt>
      <trkpt lat="42.425194" lon="-8.106183">
        <ele>337.575</ele>
        <time>2019-06-22T11:16:48Z</time>
      </trkpt>
      <trkpt lat="42.425203" lon="-8.105976">
        <ele>337.728</ele>
        <time>2019-06-22T11:16:49Z</time>
      </trkpt>
      <trkpt lat="42.425211" lon="-8.105748">
        <ele>337.720</ele>
        <time>2019-06-22T11:16:50Z</time>
      </trkpt>
      <trkpt lat="42.425233" lon="-8.105518">
        <ele>337.508</ele>
        <time>2019-06-22T11:16:51Z</time>
      </trkpt>
      <trkpt lat="42.425274" lon="-8.105281">
        <ele>337.320</ele>
        <time>2019-06-22T11:16:52Z</time>
      </trkpt>
      <trkpt lat="42.425317" lon="-8.105040">
        <ele>337.014</ele>
        <time>2019-06-22T11:16:53Z</time>
      </trkpt>
      <trkpt lat="42.425362" lon="-8.104773">
        <ele>337.056</ele>
        <time>2019-06-22T11:16:54Z</time>
      </trkpt>
      <trkpt lat="42.425398" lon="-8.104499">
        <ele>337.018</ele>
        <time>2019-06-22T11:16:55Z</time>
      </trkpt>
      <trkpt lat="42.425430" lon="-8.104216">
        <ele>336.846</ele>
        <time>2019-06-22T11:16:56Z</time>
      </trkpt>
      <trkpt lat="42.425448" lon="-8.103934">
        <ele>336.835</ele>
        <time>2019-06-22T11:16:57Z</time>
      </trkpt>
      <trkpt lat="42.425464" lon="-8.103653">
        <ele>337.390</ele>
        <time>2019-06-22T11:16:58Z</time>
      </trkpt>
      <trkpt lat="42.425407" lon="-8.103357">
        <ele>337.513</ele>
        <time>2019-06-22T11:16:59Z</time>
      </trkpt>
      <trkpt lat="42.425385" lon="-8.103049">
        <ele>338.369</ele>
        <time>2019-06-22T11:17:00Z</time>
      </trkpt>
      <trkpt lat="42.425357" lon="-8.102762">
        <ele>338.704</ele>
        <time>2019-06-22T11:17:01Z</time>
      </trkpt>
      <trkpt lat="42.425338" lon="-8.102474">
        <ele>339.824</ele>
        <time>2019-06-22T11:17:02Z</time>
      </trkpt>
      <trkpt lat="42.425317" lon="-8.102173">
        <ele>341.308</ele>
        <time>2019-06-22T11:17:03Z</time>
      </trkpt>
      <trkpt lat="42.425332" lon="-8.101908">
        <ele>343.229</ele>
        <time>2019-06-22T11:17:04Z</time>
      </trkpt>
      <trkpt lat="42.425331" lon="-8.101621">
        <ele>344.793</ele>
        <time>2019-06-22T11:17:05Z</time>
      </trkpt>
      <trkpt lat="42.425387" lon="-8.101340">
        <ele>346.935</ele>
        <time>2019-06-22T11:17:06Z</time>
      </trkpt>
      <trkpt lat="42.425435" lon="-8.101057">
        <ele>348.917</ele>
        <time>2019-06-22T11:17:07Z</time>
      </trkpt>
      <trkpt lat="42.425492" lon="-8.100775">
        <ele>350.415</ele>
        <time>2019-06-22T11:17:08Z</time>
      </trkpt>
      <trkpt lat="42.425573" lon="-8.100501">
        <ele>351.684</ele>
        <time>2019-06-22T11:17:09Z</time>
      </trkpt>
      <trkpt lat="42.425624" lon="-8.100228">
        <ele>352.299</ele>
        <time>2019-06-22T11:17:10Z</time>
      </trkpt>
      <trkpt lat="42.425718" lon="-8.099969">
        <ele>352.882</ele>
        <time>2019-06-22T11:17:11Z</time>
      </trkpt>
      <trkpt lat="42.425776" lon="-8.099704">
        <ele>353.133</ele>
        <time>2019-06-22T11:17:12Z</time>
      </trkpt>
      <trkpt lat="42.425827" lon="-8.099421">
        <ele>353.223</ele>
        <time>2019-06-22T11:17:13Z</time>
      </trkpt>
      <trkpt lat="42.425819" lon="-8.099110">
        <ele>353.415</ele>
        <time>2019-06-22T11:17:14Z</time>
      </trkpt>
      <trkpt lat="42.425842" lon="-8.098822">
        <ele>354.708</ele>
        <time>2019-06-22T11:17:15Z</time>
      </trkpt>
      <trkpt lat="42.425831" lon="-8.098538">
        <ele>356.666</ele>
        <time>2019-06-22T11:17:16Z</time>
      </trkpt>
      <trkpt lat="42.425851" lon="-8.098259">
        <ele>358.610</ele>
        <time>2019-06-22T11:17:17Z</time>
      </trkpt>
      <trkpt lat="42.425915" lon="-8.097982">
        <ele>360.562</ele>
        <time>2019-06-22T11:17:18Z</time>
      </trkpt>
      <trkpt lat="42.425989" lon="-8.097712">
        <ele>362.844</ele>
        <time>2019-06-22T11:17:19Z</time>
      </trkpt>
      <trkpt lat="42.426092" lon="-8.097431">
        <ele>364.122</ele>
        <time>2019-06-22T11:17:20Z</time>
      </trkpt>
      <trkpt lat="42.426150" lon="-8.097154">
        <ele>364.921</ele>
        <time>2019-06-22T11:17:21Z</time>
      </trkpt>
      <trkpt lat="42.426257" lon="-8.096872">
        <ele>365.566</ele>
        <time>2019-06-22T11:17:22Z</time>
      </trkpt>
      <trkpt lat="42.426381" lon="-8.096605">
        <ele>366.189</ele>
        <time>2019-06-22T11:17:23Z</time>
      </trkpt>
      <trkpt lat="42.426494" lon="-8.096332">
        <ele>366.638</ele>
        <time>2019-06-22T11:17:24Z</time>
      </trkpt>
      <trkpt lat="42.426688" lon="-8.096137">
        <ele>366.670</ele>
        <time>2019-06-22T11:17:25Z</time>
      </trkpt>
      <trkpt lat="42.426847" lon="-8.095889">
        <ele>366.617</ele>
        <time>2019-06-22T11:17:26Z</time>
      </trkpt>
      <trkpt lat="42.427021" lon="-8.095651">
        <ele>366.608</ele>
        <time>2019-06-22T11:17:27Z</time>
      </trkpt>
      <trkpt lat="42.427198" lon="-8.095424">
        <ele>366.296</ele>
        <time>2019-06-22T11:17:28Z</time>
      </trkpt>
      <trkpt lat="42.427361" lon="-8.095171">
        <ele>365.180</ele>
        <time>2019-06-22T11:17:29Z</time>
      </trkpt>
      <trkpt lat="42.427522" lon="-8.094925">
        <ele>364.732</ele>
        <time>2019-06-22T11:17:30Z</time>
      </trkpt>
      <trkpt lat="42.427674" lon="-8.094666">
        <ele>363.964</ele>
        <time>2019-06-22T11:17:31Z</time>
      </trkpt>
      <trkpt lat="42.427836" lon="-8.094394">
        <ele>363.192</ele>
        <time>2019-06-22T11:17:32Z</time>
      </trkpt>
      <trkpt lat="42.427995" lon="-8.094126">
        <ele>363.141</ele>
        <time>2019-06-22T11:17:33Z</time>
      </trkpt>
      <trkpt lat="42.428147" lon="-8.093858">
        <ele>364.026</ele>
        <time>2019-06-22T11:17:34Z</time>
      </trkpt>
      <trkpt lat="42.428309" lon="-8.093578">
        <ele>364.069</ele>
        <time>2019-06-22T11:17:35Z</time>
      </trkpt>
      <trkpt lat="42.428466" lon="-8.093302">
        <ele>364.522</ele>
        <time>2019-06-22T11:17:36Z</time>
      </trkpt>
      <trkpt lat="42.428620" lon="-8.093029">
        <ele>364.962</ele>
        <time>2019-06-22T11:17:37Z</time>
      </trkpt>
      <trkpt lat="42.428769" lon="-8.092752">
        <ele>364.908</ele>
        <time>2019-06-22T11:17:38Z</time>
      </trkpt>
      <trkpt lat="42.428921" lon="-8.092468">
        <ele>364.608</ele>
        <time>2019-06-22T11:17:39Z</time>
      </trkpt>
      <trkpt lat="42.429065" lon="-8.092178">
        <ele>364.625</ele>
        <time>2019-06-22T11:17:40Z</time>
      </trkpt>
      <trkpt lat="42.429214" lon="-8.091889">
        <ele>365.019</ele>
        <time>2019-06-22T11:17:41Z</time>
      </trkpt>
      <trkpt lat="42.429363" lon="-8.091613">
        <ele>365.361</ele>
        <time>2019-06-22T11:17:42Z</time>
      </trkpt>
      <trkpt lat="42.429506" lon="-8.091322">
        <ele>365.313</ele>
        <time>2019-06-22T11:17:43Z</time>
      </trkpt>
      <trkpt lat="42.429646" lon="-8.091039">
        <ele>365.321</ele>
        <time>2019-06-22T11:17:44Z</time>
      </trkpt>
      <trkpt lat="42.429784" lon="-8.090739">
        <ele>364.620</ele>
        <time>2019-06-22T11:17:45Z</time>
      </trkpt>
      <trkpt lat="42.429912" lon="-8.090441">
        <ele>363.415</ele>
        <time>2019-06-22T11:17:46Z</time>
      </trkpt>
      <trkpt lat="42.430039" lon="-8.090139">
        <ele>363.198</ele>
        <time>2019-06-22T11:17:47Z</time>
      </trkpt>
      <trkpt lat="42.430174" lon="-8.089839">
        <ele>363.078</ele>
        <time>2019-06-22T11:17:48Z</time>
      </trkpt>
      <trkpt lat="42.430298" lon="-8.089545">
        <ele>363.033</ele>
        <time>2019-06-22T11:17:49Z</time>
      </trkpt>
      <trkpt lat="42.430420" lon="-8.089256">
        <ele>363.226</ele>
        <time>2019-06-22T11:17:50Z</time>
      </trkpt>
      <trkpt lat="42.430566" lon="-8.088977">
        <ele>364.608</ele>
        <time>2019-06-22T11:17:51Z</time>
      </trkpt>
      <trkpt lat="42.430707" lon="-8.088692">
        <ele>365.860</ele>
        <time>2019-06-22T11:17:52Z</time>
      </trkpt>
      <trkpt lat="42.430862" lon="-8.088426">
        <ele>367.194</ele>
        <time>2019-06-22T11:17:53Z</time>
      </trkpt>
      <trkpt lat="42.431026" lon="-8.088172">
        <ele>369.156</ele>
        <time>2019-06-22T11:17:54Z</time>
      </trkpt>
      <trkpt lat="42.431211" lon="-8.087935">
        <ele>370.198</ele>
        <time>2019-06-22T11:17:55Z</time>
      </trkpt>
      <trkpt lat="42.431390" lon="-8.087708">
        <ele>370.636</ele>
        <time>2019-06-22T11:17:56Z</time>
      </trkpt>
      <trkpt lat="42.431520" lon="-8.087520">
        <ele>370.655</ele>
        <time>2019-06-22T11:17:57Z</time>
      </trkpt>
      <trkpt lat="42.431666" lon="-8.087336">
        <ele>369.990</ele>
        <time>2019-06-22T11:17:58Z</time>
      </trkpt>
      <trkpt lat="42.431812" lon="-8.087172">
        <ele>369.533</ele>
        <time>2019-06-22T11:17:59Z</time>
      </trkpt>
      <trkpt lat="42.431945" lon="-8.087012">
        <ele>369.184</ele>
        <time>2019-06-22T11:18:00Z</time>
      </trkpt>
      <trkpt lat="42.432084" lon="-8.086859">
        <ele>368.107</ele>
        <time>2019-06-22T11:18:01Z</time>
      </trkpt>
      <trkpt lat="42.432214" lon="-8.086710">
        <ele>368.017</ele>
        <time>2019-06-22T11:18:02Z</time>
      </trkpt>
      <trkpt lat="42.432357" lon="-8.086552">
        <ele>368.008</ele>
        <time>2019-06-22T11:18:03Z</time>
      </trkpt>
      <trkpt lat="42.432488" lon="-8.086398">
        <ele>368.741</ele>
        <time>2019-06-22T11:18:04Z</time>
      </trkpt>
      <trkpt lat="42.432620" lon="-8.086236">
        <ele>369.175</ele>
        <time>2019-06-22T11:18:05Z</time>
      </trkpt>
      <trkpt lat="42.432765" lon="-8.086069">
        <ele>369.667</ele>
        <time>2019-06-22T11:18:06Z</time>
      </trkpt>
      <trkpt lat="42.432895" lon="-8.085897">
        <ele>369.829</ele>
        <time>2019-06-22T11:18:07Z</time>
      </trkpt>
      <trkpt lat="42.433022" lon="-8.085710">
        <ele>370.887</ele>
        <time>2019-06-22T11:18:08Z</time>
      </trkpt>
      <trkpt lat="42.433165" lon="-8.085515">
        <ele>371.666</ele>
        <time>2019-06-22T11:18:09Z</time>
      </trkpt>
      <trkpt lat="42.433310" lon="-8.085329">
        <ele>372.171</ele>
        <time>2019-06-22T11:18:10Z</time>
      </trkpt>
      <trkpt lat="42.433466" lon="-8.085150">
        <ele>372.514</ele>
        <time>2019-06-22T11:18:11Z</time>
      </trkpt>
      <trkpt lat="42.433602" lon="-8.084979">
        <ele>372.521</ele>
        <time>2019-06-22T11:18:12Z</time>
      </trkpt>
      <trkpt lat="42.433738" lon="-8.084805">
        <ele>372.141</ele>
        <time>2019-06-22T11:18:13Z</time>
      </trkpt>
      <trkpt lat="42.433886" lon="-8.084650">
        <ele>371.405</ele>
        <time>2019-06-22T11:18:14Z</time>
      </trkpt>
      <trkpt lat="42.434028" lon="-8.084493">
        <ele>370.608</ele>
        <time>2019-06-22T11:18:15Z</time>
      </trkpt>
      <trkpt lat="42.434158" lon="-8.084360">
        <ele>370.635</ele>
        <time>2019-06-22T11:18:16Z</time>
      </trkpt>
      <trkpt lat="42.434297" lon="-8.084241">
        <ele>370.869</ele>
        <time>2019-06-22T11:18:17Z</time>
      </trkpt>
      <trkpt lat="42.434431" lon="-8.084135">
        <ele>370.951</ele>
        <time>2019-06-22T11:18:18Z</time>
      </trkpt>
      <trkpt lat="42.434569" lon="-8.084027">
        <ele>371.063</ele>
        <time>2019-06-22T11:18:19Z</time>
      </trkpt>
      <trkpt lat="42.434712" lon="-8.083923">
        <ele>371.431</ele>
        <time>2019-06-22T11:18:20Z</time>
      </trkpt>
      <trkpt lat="42.434862" lon="-8.083826">
        <ele>371.440</ele>
        <time>2019-06-22T11:18:21Z</time>
      </trkpt>
      <trkpt lat="42.435023" lon="-8.083748">
        <ele>371.795</ele>
        <time>2019-06-22T11:18:22Z</time>
      </trkpt>
      <trkpt lat="42.435149" lon="-8.083673">
        <ele>372.038</ele>
        <time>2019-06-22T11:18:23Z</time>
      </trkpt>
      <trkpt lat="42.435301" lon="-8.083588">
        <ele>372.194</ele>
        <time>2019-06-22T11:18:24Z</time>
      </trkpt>
      <trkpt lat="42.435446" lon="-8.083509">
        <ele>372.157</ele>
        <time>2019-06-22T11:18:25Z</time>
      </trkpt>
      <trkpt lat="42.435597" lon="-8.083435">
        <ele>372.122</ele>
        <time>2019-06-22T11:18:26Z</time>
      </trkpt>
      <trkpt lat="42.435735" lon="-8.083363">
        <ele>372.008</ele>
        <time>2019-06-22T11:18:27Z</time>
      </trkpt>
      <trkpt lat="42.435876" lon="-8.083292">
        <ele>372.042</ele>
        <time>2019-06-22T11:18:28Z</time>
      </trkpt>
      <trkpt lat="42.436011" lon="-8.083221">
        <ele>371.636</ele>
        <time>2019-06-22T11:18:29Z</time>
      </trkpt>
      <trkpt lat="42.436148" lon="-8.083162">
        <ele>371.568</ele>
        <time>2019-06-22T11:18:30Z</time>
      </trkpt>
      <trkpt lat="42.436263" lon="-8.083074">
        <ele>370.950</ele>
        <time>2019-06-22T11:18:31Z</time>
      </trkpt>
      <trkpt lat="42.436385" lon="-8.082974">
        <ele>369.928</ele>
        <time>2019-06-22T11:18:32Z</time>
      </trkpt>
      <trkpt lat="42.436486" lon="-8.082861">
        <ele>369.427</ele>
        <time>2019-06-22T11:18:33Z</time>
      </trkpt>
      <trkpt lat="42.436581" lon="-8.082753">
        <ele>369.252</ele>
        <time>2019-06-22T11:18:34Z</time>
      </trkpt>
      <trkpt lat="42.436610" lon="-8.082615">
        <ele>369.175</ele>
        <time>2019-06-22T11:18:35Z</time>
      </trkpt>
      <trkpt lat="42.436645" lon="-8.082485">
        <ele>369.118</ele>
        <time>2019-06-22T11:18:36Z</time>
      </trkpt>
      <trkpt lat="42.436687" lon="-8.082341">
        <ele>369.498</ele>
        <time>2019-06-22T11:18:37Z</time>
      </trkpt>
      <trkpt lat="42.436732" lon="-8.082199">
        <ele>369.417</ele>
        <time>2019-06-22T11:18:38Z</time>
      </trkpt>
      <trkpt lat="42.436760" lon="-8.082009">
        <ele>369.808</ele>
        <time>2019-06-22T11:18:39Z</time>
      </trkpt>
      <trkpt lat="42.436781" lon="-8.081847">
        <ele>370.094</ele>
        <time>2019-06-22T11:18:40Z</time>
      </trkpt>
      <trkpt lat="42.436811" lon="-8.081665">
        <ele>370.178</ele>
        <time>2019-06-22T11:18:41Z</time>
      </trkpt>
      <trkpt lat="42.436830" lon="-8.081488">
        <ele>370.380</ele>
        <time>2019-06-22T11:18:42Z</time>
      </trkpt>
      <trkpt lat="42.436801" lon="-8.081323">
        <ele>370.662</ele>
        <time>2019-06-22T11:18:43Z</time>
      </trkpt>
      <trkpt lat="42.436794" lon="-8.081145">
        <ele>370.780</ele>
        <time>2019-06-22T11:18:44Z</time>
      </trkpt>
      <trkpt lat="42.436787" lon="-8.080963">
        <ele>370.919</ele>
        <time>2019-06-22T11:18:45Z</time>
      </trkpt>
      <trkpt lat="42.436770" lon="-8.080786">
        <ele>371.014</ele>
        <time>2019-06-22T11:18:46Z</time>
      </trkpt>
      <trkpt lat="42.436747" lon="-8.080608">
        <ele>371.087</ele>
        <time>2019-06-22T11:18:47Z</time>
      </trkpt>
      <trkpt lat="42.436716" lon="-8.080436">
        <ele>371.275</ele>
        <time>2019-06-22T11:18:48Z</time>
      </trkpt>
      <trkpt lat="42.436676" lon="-8.080267">
        <ele>371.328</ele>
        <time>2019-06-22T11:18:49Z</time>
      </trkpt>
      <trkpt lat="42.436627" lon="-8.080105">
        <ele>371.720</ele>
        <time>2019-06-22T11:18:50Z</time>
      </trkpt>
      <trkpt lat="42.436582" lon="-8.079945">
        <ele>372.408</ele>
        <time>2019-06-22T11:18:51Z</time>
      </trkpt>
      <trkpt lat="42.436511" lon="-8.079806">
        <ele>373.160</ele>
        <time>2019-06-22T11:18:52Z</time>
      </trkpt>
      <trkpt lat="42.436449" lon="-8.079655">
        <ele>373.724</ele>
        <time>2019-06-22T11:18:53Z</time>
      </trkpt>
      <trkpt lat="42.436392" lon="-8.079533">
        <ele>374.026</ele>
        <time>2019-06-22T11:18:54Z</time>
      </trkpt>
      <trkpt lat="42.436310" lon="-8.079406">
        <ele>374.768</ele>
        <time>2019-06-22T11:18:55Z</time>
      </trkpt>
      <trkpt lat="42.436217" lon="-8.079255">
        <ele>375.086</ele>
        <time>2019-06-22T11:18:56Z</time>
      </trkpt>
      <trkpt lat="42.436135" lon="-8.079142">
        <ele>375.515</ele>
        <time>2019-06-22T11:18:57Z</time>
      </trkpt>
      <trkpt lat="42.436054" lon="-8.079035">
        <ele>376.040</ele>
        <time>2019-06-22T11:18:58Z</time>
      </trkpt>
      <trkpt lat="42.435974" lon="-8.078960">
        <ele>377.163</ele>
        <time>2019-06-22T11:18:59Z</time>
      </trkpt>
      <trkpt lat="42.435914" lon="-8.078901">
        <ele>377.835</ele>
        <time>2019-06-22T11:19:00Z</time>
      </trkpt>
      <trkpt lat="42.435838" lon="-8.078834">
        <ele>379.086</ele>
        <time>2019-06-22T11:19:01Z</time>
      </trkpt>
      <trkpt lat="42.435707" lon="-8.078686">
        <ele>380.014</ele>
        <time>2019-06-22T11:19:02Z</time>
      </trkpt>
      <trkpt lat="42.435623" lon="-8.078618">
        <ele>381.008</ele>
        <time>2019-06-22T11:19:03Z</time>
      </trkpt>
      <trkpt lat="42.435534" lon="-8.078537">
        <ele>381.996</ele>
        <time>2019-06-22T11:19:04Z</time>
      </trkpt>
      <trkpt lat="42.435470" lon="-8.078451">
        <ele>382.880</ele>
        <time>2019-06-22T11:19:05Z</time>
      </trkpt>
      <trkpt lat="42.435386" lon="-8.078369">
        <ele>383.692</ele>
        <time>2019-06-22T11:19:06Z</time>
      </trkpt>
      <trkpt lat="42.435323" lon="-8.078299">
        <ele>384.364</ele>
        <time>2019-06-22T11:19:07Z</time>
      </trkpt>
      <trkpt lat="42.435236" lon="-8.078240">
        <ele>384.962</ele>
        <time>2019-06-22T11:19:08Z</time>
      </trkpt>
      <trkpt lat="42.435172" lon="-8.078176">
        <ele>385.621</ele>
        <time>2019-06-22T11:19:09Z</time>
      </trkpt>
      <trkpt lat="42.435108" lon="-8.078117">
        <ele>386.176</ele>
        <time>2019-06-22T11:19:10Z</time>
      </trkpt>
      <trkpt lat="42.435063" lon="-8.078101">
        <ele>386.779</ele>
        <time>2019-06-22T11:19:11Z</time>
      </trkpt>
      <trkpt lat="42.434974" lon="-8.078078">
        <ele>387.738</ele>
        <time>2019-06-22T11:19:13Z</time>
      </trkpt>
      <trkpt lat="42.434911" lon="-8.078023">
        <ele>388.370</ele>
        <time>2019-06-22T11:19:14Z</time>
      </trkpt>
      <trkpt lat="42.434839" lon="-8.077977">
        <ele>388.517</ele>
        <time>2019-06-22T11:19:15Z</time>
      </trkpt>
      <trkpt lat="42.434784" lon="-8.077943">
        <ele>388.508</ele>
        <time>2019-06-22T11:19:16Z</time>
      </trkpt>
      <trkpt lat="42.434720" lon="-8.077895">
        <ele>388.546</ele>
        <time>2019-06-22T11:19:17Z</time>
      </trkpt>
      <trkpt lat="42.434675" lon="-8.077833">
        <ele>388.730</ele>
        <time>2019-06-22T11:19:18Z</time>
      </trkpt>
      <trkpt lat="42.434644" lon="-8.077760">
        <ele>388.952</ele>
        <time>2019-06-22T11:19:19Z</time>
      </trkpt>
      <trkpt lat="42.434646" lon="-8.077583">
        <ele>389.164</ele>
        <time>2019-06-22T11:19:20Z</time>
      </trkpt>
      <trkpt lat="42.434625" lon="-8.077458">
        <ele>389.662</ele>
        <time>2019-06-22T11:19:21Z</time>
      </trkpt>
      <trkpt lat="42.434593" lon="-8.077329">
        <ele>390.061</ele>
        <time>2019-06-22T11:19:22Z</time>
      </trkpt>
      <trkpt lat="42.434561" lon="-8.077198">
        <ele>390.456</ele>
        <time>2019-06-22T11:19:23Z</time>
      </trkpt>
      <trkpt lat="42.434521" lon="-8.077083">
        <ele>390.969</ele>
        <time>2019-06-22T11:19:24Z</time>
      </trkpt>
      <trkpt lat="42.434478" lon="-8.076938">
        <ele>391.544</ele>
        <time>2019-06-22T11:19:25Z</time>
      </trkpt>
      <trkpt lat="42.434382" lon="-8.076780">
        <ele>392.105</ele>
        <time>2019-06-22T11:19:26Z</time>
      </trkpt>
      <trkpt lat="42.434287" lon="-8.076623">
        <ele>392.815</ele>
        <time>2019-06-22T11:19:27Z</time>
      </trkpt>
      <trkpt lat="42.434263" lon="-8.076492">
        <ele>392.808</ele>
        <time>2019-06-22T11:19:28Z</time>
      </trkpt>
      <trkpt lat="42.434204" lon="-8.076361">
        <ele>393.337</ele>
        <time>2019-06-22T11:19:29Z</time>
      </trkpt>
      <trkpt lat="42.434174" lon="-8.076251">
        <ele>394.041</ele>
        <time>2019-06-22T11:19:30Z</time>
      </trkpt>
      <trkpt lat="42.434098" lon="-8.076107">
        <ele>394.613</ele>
        <time>2019-06-22T11:19:31Z</time>
      </trkpt>
      <trkpt lat="42.434047" lon="-8.075995">
        <ele>395.365</ele>
        <time>2019-06-22T11:19:32Z</time>
      </trkpt>
      <trkpt lat="42.433982" lon="-8.075851">
        <ele>395.713</ele>
        <time>2019-06-22T11:19:33Z</time>
      </trkpt>
      <trkpt lat="42.433915" lon="-8.075712">
        <ele>396.132</ele>
        <time>2019-06-22T11:19:34Z</time>
      </trkpt>
      <trkpt lat="42.433866" lon="-8.075603">
        <ele>396.427</ele>
        <time>2019-06-22T11:19:35Z</time>
      </trkpt>
      <trkpt lat="42.433811" lon="-8.075482">
        <ele>396.940</ele>
        <time>2019-06-22T11:19:36Z</time>
      </trkpt>
      <trkpt lat="42.433766" lon="-8.075368">
        <ele>397.388</ele>
        <time>2019-06-22T11:19:37Z</time>
      </trkpt>
      <trkpt lat="42.433720" lon="-8.075260">
        <ele>397.724</ele>
        <time>2019-06-22T11:19:38Z</time>
      </trkpt>
      <trkpt lat="42.433670" lon="-8.075140">
        <ele>398.226</ele>
        <time>2019-06-22T11:19:39Z</time>
      </trkpt>
      <trkpt lat="42.433623" lon="-8.074985">
        <ele>398.508</ele>
        <time>2019-06-22T11:19:40Z</time>
      </trkpt>
      <trkpt lat="42.433592" lon="-8.074859">
        <ele>398.671</ele>
        <time>2019-06-22T11:19:41Z</time>
      </trkpt>
      <trkpt lat="42.433522" lon="-8.074709">
        <ele>398.615</ele>
        <time>2019-06-22T11:19:42Z</time>
      </trkpt>
      <trkpt lat="42.433461" lon="-8.074569">
        <ele>398.637</ele>
        <time>2019-06-22T11:19:43Z</time>
      </trkpt>
      <trkpt lat="42.433394" lon="-8.074430">
        <ele>398.119</ele>
        <time>2019-06-22T11:19:44Z</time>
      </trkpt>
      <trkpt lat="42.433326" lon="-8.074285">
        <ele>397.417</ele>
        <time>2019-06-22T11:19:45Z</time>
      </trkpt>
      <trkpt lat="42.433265" lon="-8.074146">
        <ele>397.046</ele>
        <time>2019-06-22T11:19:46Z</time>
      </trkpt>
      <trkpt lat="42.433200" lon="-8.074020">
        <ele>396.421</ele>
        <time>2019-06-22T11:19:47Z</time>
      </trkpt>
      <trkpt lat="42.433150" lon="-8.073899">
        <ele>395.754</ele>
        <time>2019-06-22T11:19:48Z</time>
      </trkpt>
      <trkpt lat="42.433095" lon="-8.073781">
        <ele>395.177</ele>
        <time>2019-06-22T11:19:49Z</time>
      </trkpt>
      <trkpt lat="42.433046" lon="-8.073676">
        <ele>395.061</ele>
        <time>2019-06-22T11:19:50Z</time>
      </trkpt>
      <trkpt lat="42.433003" lon="-8.073592">
        <ele>394.327</ele>
        <time>2019-06-22T11:19:51Z</time>
      </trkpt>
      <trkpt lat="42.432972" lon="-8.073523">
        <ele>393.608</ele>
        <time>2019-06-22T11:19:52Z</time>
      </trkpt>
      <trkpt lat="42.432946" lon="-8.073463">
        <ele>393.010</ele>
        <time>2019-06-22T11:19:53Z</time>
      </trkpt>
      <trkpt lat="42.432912" lon="-8.073396">
        <ele>392.674</ele>
        <time>2019-06-22T11:19:54Z</time>
      </trkpt>
      <trkpt lat="42.432882" lon="-8.073331">
        <ele>392.276</ele>
        <time>2019-06-22T11:19:55Z</time>
      </trkpt>
      <trkpt lat="42.432853" lon="-8.073268">
        <ele>391.968</ele>
        <time>2019-06-22T11:19:56Z</time>
      </trkpt>
      <trkpt lat="42.432824" lon="-8.073185">
        <ele>391.616</ele>
        <time>2019-06-22T11:19:57Z</time>
      </trkpt>
      <trkpt lat="42.432793" lon="-8.073104">
        <ele>391.115</ele>
        <time>2019-06-22T11:19:58Z</time>
      </trkpt>
      <trkpt lat="42.432763" lon="-8.073029">
        <ele>390.570</ele>
        <time>2019-06-22T11:19:59Z</time>
      </trkpt>
      <trkpt lat="42.432723" lon="-8.072959">
        <ele>390.043</ele>
        <time>2019-06-22T11:20:00Z</time>
      </trkpt>
      <trkpt lat="42.432683" lon="-8.072859">
        <ele>389.666</ele>
        <time>2019-06-22T11:20:01Z</time>
      </trkpt>
      <trkpt lat="42.432647" lon="-8.072757">
        <ele>389.129</ele>
        <time>2019-06-22T11:20:02Z</time>
      </trkpt>
      <trkpt lat="42.432599" lon="-8.072648">
        <ele>389.021</ele>
        <time>2019-06-22T11:20:03Z</time>
      </trkpt>
      <trkpt lat="42.432555" lon="-8.072549">
        <ele>388.808</ele>
        <time>2019-06-22T11:20:04Z</time>
      </trkpt>
      <trkpt lat="42.432502" lon="-8.072448">
        <ele>388.579</ele>
        <time>2019-06-22T11:20:05Z</time>
      </trkpt>
      <trkpt lat="42.432444" lon="-8.072347">
        <ele>388.113</ele>
        <time>2019-06-22T11:20:06Z</time>
      </trkpt>
      <trkpt lat="42.432411" lon="-8.072251">
        <ele>387.895</ele>
        <time>2019-06-22T11:20:07Z</time>
      </trkpt>
      <trkpt lat="42.432365" lon="-8.072126">
        <ele>387.317</ele>
        <time>2019-06-22T11:20:08Z</time>
      </trkpt>
      <trkpt lat="42.432304" lon="-8.071982">
        <ele>387.025</ele>
        <time>2019-06-22T11:20:09Z</time>
      </trkpt>
      <trkpt lat="42.432236" lon="-8.071829">
        <ele>386.844</ele>
        <time>2019-06-22T11:20:10Z</time>
      </trkpt>
      <trkpt lat="42.432164" lon="-8.071677">
        <ele>386.639</ele>
        <time>2019-06-22T11:20:11Z</time>
      </trkpt>
      <trkpt lat="42.432094" lon="-8.071542">
        <ele>386.182</ele>
        <time>2019-06-22T11:20:12Z</time>
      </trkpt>
      <trkpt lat="42.432039" lon="-8.071416">
        <ele>385.962</ele>
        <time>2019-06-22T11:20:13Z</time>
      </trkpt>
      <trkpt lat="42.431961" lon="-8.071296">
        <ele>385.983</ele>
        <time>2019-06-22T11:20:14Z</time>
      </trkpt>
      <trkpt lat="42.431903" lon="-8.071149">
        <ele>385.811</ele>
        <time>2019-06-22T11:20:15Z</time>
      </trkpt>
      <trkpt lat="42.431834" lon="-8.070994">
        <ele>385.408</ele>
        <time>2019-06-22T11:20:16Z</time>
      </trkpt>
      <trkpt lat="42.431756" lon="-8.070839">
        <ele>385.479</ele>
        <time>2019-06-22T11:20:17Z</time>
      </trkpt>
      <trkpt lat="42.431693" lon="-8.070680">
        <ele>385.553</ele>
        <time>2019-06-22T11:20:18Z</time>
      </trkpt>
      <trkpt lat="42.431631" lon="-8.070533">
        <ele>385.595</ele>
        <time>2019-06-22T11:20:19Z</time>
      </trkpt>
      <trkpt lat="42.431554" lon="-8.070365">
        <ele>385.057</ele>
        <time>2019-06-22T11:20:20Z</time>
      </trkpt>
      <trkpt lat="42.431474" lon="-8.070197">
        <ele>385.085</ele>
        <time>2019-06-22T11:20:21Z</time>
      </trkpt>
      <trkpt lat="42.431383" lon="-8.070041">
        <ele>385.344</ele>
        <time>2019-06-22T11:20:22Z</time>
      </trkpt>
      <trkpt lat="42.431294" lon="-8.069861">
        <ele>385.369</ele>
        <time>2019-06-22T11:20:23Z</time>
      </trkpt>
      <trkpt lat="42.431219" lon="-8.069704">
        <ele>385.342</ele>
        <time>2019-06-22T11:20:24Z</time>
      </trkpt>
      <trkpt lat="42.431143" lon="-8.069529">
        <ele>385.489</ele>
        <time>2019-06-22T11:20:25Z</time>
      </trkpt>
      <trkpt lat="42.431067" lon="-8.069365">
        <ele>385.406</ele>
        <time>2019-06-22T11:20:26Z</time>
      </trkpt>
      <trkpt lat="42.430991" lon="-8.069195">
        <ele>384.926</ele>
        <time>2019-06-22T11:20:27Z</time>
      </trkpt>
      <trkpt lat="42.430916" lon="-8.069023">
        <ele>384.908</ele>
        <time>2019-06-22T11:20:28Z</time>
      </trkpt>
      <trkpt lat="42.430827" lon="-8.068853">
        <ele>384.441</ele>
        <time>2019-06-22T11:20:29Z</time>
      </trkpt>
      <trkpt lat="42.430750" lon="-8.068680">
        <ele>384.415</ele>
        <time>2019-06-22T11:20:30Z</time>
      </trkpt>
      <trkpt lat="42.430674" lon="-8.068505">
        <ele>384.517</ele>
        <time>2019-06-22T11:20:31Z</time>
      </trkpt>
      <trkpt lat="42.430585" lon="-8.068318">
        <ele>384.549</ele>
        <time>2019-06-22T11:20:32Z</time>
      </trkpt>
      <trkpt lat="42.430507" lon="-8.068138">
        <ele>384.467</ele>
        <time>2019-06-22T11:20:33Z</time>
      </trkpt>
      <trkpt lat="42.430425" lon="-8.067954">
        <ele>384.076</ele>
        <time>2019-06-22T11:20:34Z</time>
      </trkpt>
      <trkpt lat="42.430362" lon="-8.067788">
        <ele>384.061</ele>
        <time>2019-06-22T11:20:35Z</time>
      </trkpt>
      <trkpt lat="42.430312" lon="-8.067649">
        <ele>383.734</ele>
        <time>2019-06-22T11:20:36Z</time>
      </trkpt>
      <trkpt lat="42.430236" lon="-8.067469">
        <ele>383.755</ele>
        <time>2019-06-22T11:20:37Z</time>
      </trkpt>
      <trkpt lat="42.430116" lon="-8.067273">
        <ele>384.007</ele>
        <time>2019-06-22T11:20:38Z</time>
      </trkpt>
      <trkpt lat="42.430026" lon="-8.067108">
        <ele>384.017</ele>
        <time>2019-06-22T11:20:39Z</time>
      </trkpt>
      <trkpt lat="42.429949" lon="-8.066936">
        <ele>383.308</ele>
        <time>2019-06-22T11:20:40Z</time>
      </trkpt>
      <trkpt lat="42.429870" lon="-8.066763">
        <ele>383.138</ele>
        <time>2019-06-22T11:20:41Z</time>
      </trkpt>
      <trkpt lat="42.429798" lon="-8.066586">
        <ele>383.062</ele>
        <time>2019-06-22T11:20:42Z</time>
      </trkpt>
      <trkpt lat="42.429717" lon="-8.066423">
        <ele>383.074</ele>
        <time>2019-06-22T11:20:43Z</time>
      </trkpt>
      <trkpt lat="42.429674" lon="-8.066269">
        <ele>383.056</ele>
        <time>2019-06-22T11:20:44Z</time>
      </trkpt>
      <trkpt lat="42.429600" lon="-8.066100">
        <ele>383.834</ele>
        <time>2019-06-22T11:20:45Z</time>
      </trkpt>
      <trkpt lat="42.429557" lon="-8.065939">
        <ele>384.373</ele>
        <time>2019-06-22T11:20:46Z</time>
      </trkpt>
      <trkpt lat="42.429472" lon="-8.065756">
        <ele>384.348</ele>
        <time>2019-06-22T11:20:47Z</time>
      </trkpt>
      <trkpt lat="42.429394" lon="-8.065586">
        <ele>383.771</ele>
        <time>2019-06-22T11:20:48Z</time>
      </trkpt>
      <trkpt lat="42.429308" lon="-8.065418">
        <ele>383.277</ele>
        <time>2019-06-22T11:20:49Z</time>
      </trkpt>
      <trkpt lat="42.429231" lon="-8.065253">
        <ele>382.561</ele>
        <time>2019-06-22T11:20:50Z</time>
      </trkpt>
      <trkpt lat="42.429151" lon="-8.065070">
        <ele>381.627</ele>
        <time>2019-06-22T11:20:51Z</time>
      </trkpt>
      <trkpt lat="42.429078" lon="-8.064904">
        <ele>381.208</ele>
        <time>2019-06-22T11:20:52Z</time>
      </trkpt>
      <trkpt lat="42.429012" lon="-8.064748">
        <ele>380.740</ele>
        <time>2019-06-22T11:20:53Z</time>
      </trkpt>
      <trkpt lat="42.428918" lon="-8.064575">
        <ele>380.164</ele>
        <time>2019-06-22T11:20:54Z</time>
      </trkpt>
      <trkpt lat="42.428841" lon="-8.064414">
        <ele>379.716</ele>
        <time>2019-06-22T11:20:55Z</time>
      </trkpt>
      <trkpt lat="42.428787" lon="-8.064277">
        <ele>379.758</ele>
        <time>2019-06-22T11:20:56Z</time>
      </trkpt>
      <trkpt lat="42.428715" lon="-8.064126">
        <ele>379.466</ele>
        <time>2019-06-22T11:20:57Z</time>
      </trkpt>
      <trkpt lat="42.428665" lon="-8.063983">
        <ele>379.385</ele>
        <time>2019-06-22T11:20:58Z</time>
      </trkpt>
      <trkpt lat="42.428587" lon="-8.063863">
        <ele>379.330</ele>
        <time>2019-06-22T11:20:59Z</time>
      </trkpt>
      <trkpt lat="42.428503" lon="-8.063738">
        <ele>379.333</ele>
        <time>2019-06-22T11:21:00Z</time>
      </trkpt>
      <trkpt lat="42.428407" lon="-8.063646">
        <ele>378.978</ele>
        <time>2019-06-22T11:21:01Z</time>
      </trkpt>
      <trkpt lat="42.428311" lon="-8.063543">
        <ele>378.533</ele>
        <time>2019-06-22T11:21:02Z</time>
      </trkpt>
      <trkpt lat="42.428215" lon="-8.063579">
        <ele>378.026</ele>
        <time>2019-06-22T11:21:03Z</time>
      </trkpt>
      <trkpt lat="42.428145" lon="-8.063588">
        <ele>377.408</ele>
        <time>2019-06-22T11:21:04Z</time>
      </trkpt>
      <trkpt lat="42.428052" lon="-8.063593">
        <ele>376.830</ele>
        <time>2019-06-22T11:21:05Z</time>
      </trkpt>
      <trkpt lat="42.427981" lon="-8.063565">
        <ele>376.654</ele>
        <time>2019-06-22T11:21:06Z</time>
      </trkpt>
      <trkpt lat="42.427916" lon="-8.063495">
        <ele>376.696</ele>
        <time>2019-06-22T11:21:07Z</time>
      </trkpt>
      <trkpt lat="42.427872" lon="-8.063401">
        <ele>377.168</ele>
        <time>2019-06-22T11:21:08Z</time>
      </trkpt>
      <trkpt lat="42.427816" lon="-8.063276">
        <ele>377.896</ele>
        <time>2019-06-22T11:21:09Z</time>
      </trkpt>
      <trkpt lat="42.427808" lon="-8.063149">
        <ele>378.325</ele>
        <time>2019-06-22T11:21:10Z</time>
      </trkpt>
      <trkpt lat="42.427785" lon="-8.063019">
        <ele>378.640</ele>
        <time>2019-06-22T11:21:11Z</time>
      </trkpt>
      <trkpt lat="42.427744" lon="-8.062897">
        <ele>378.643</ele>
        <time>2019-06-22T11:21:12Z</time>
      </trkpt>
      <trkpt lat="42.427683" lon="-8.062782">
        <ele>378.555</ele>
        <time>2019-06-22T11:21:13Z</time>
      </trkpt>
      <trkpt lat="42.427615" lon="-8.062663">
        <ele>378.507</ele>
        <time>2019-06-22T11:21:14Z</time>
      </trkpt>
      <trkpt lat="42.427528" lon="-8.062552">
        <ele>378.617</ele>
        <time>2019-06-22T11:21:15Z</time>
      </trkpt>
      <trkpt lat="42.427458" lon="-8.062434">
        <ele>378.808</ele>
        <time>2019-06-22T11:21:16Z</time>
      </trkpt>
      <trkpt lat="42.427380" lon="-8.062321">
        <ele>379.588</ele>
        <time>2019-06-22T11:21:17Z</time>
      </trkpt>
      <trkpt lat="42.427312" lon="-8.062217">
        <ele>380.272</ele>
        <time>2019-06-22T11:21:18Z</time>
      </trkpt>
      <trkpt lat="42.427232" lon="-8.062075">
        <ele>380.984</ele>
        <time>2019-06-22T11:21:19Z</time>
      </trkpt>
      <trkpt lat="42.427165" lon="-8.061936">
        <ele>381.566</ele>
        <time>2019-06-22T11:21:20Z</time>
      </trkpt>
      <trkpt lat="42.427095" lon="-8.061785">
        <ele>382.134</ele>
        <time>2019-06-22T11:21:21Z</time>
      </trkpt>
      <trkpt lat="42.427025" lon="-8.061631">
        <ele>382.643</ele>
        <time>2019-06-22T11:21:22Z</time>
      </trkpt>
      <trkpt lat="42.426970" lon="-8.061492">
        <ele>383.138</ele>
        <time>2019-06-22T11:21:23Z</time>
      </trkpt>
      <trkpt lat="42.426889" lon="-8.061333">
        <ele>383.691</ele>
        <time>2019-06-22T11:21:24Z</time>
      </trkpt>
      <trkpt lat="42.426807" lon="-8.061160">
        <ele>384.148</ele>
        <time>2019-06-22T11:21:25Z</time>
      </trkpt>
      <trkpt lat="42.426709" lon="-8.060971">
        <ele>384.961</ele>
        <time>2019-06-22T11:21:26Z</time>
      </trkpt>
      <trkpt lat="42.426628" lon="-8.060793">
        <ele>385.517</ele>
        <time>2019-06-22T11:21:27Z</time>
      </trkpt>
      <trkpt lat="42.426549" lon="-8.060614">
        <ele>386.108</ele>
        <time>2019-06-22T11:21:28Z</time>
      </trkpt>
      <trkpt lat="42.426458" lon="-8.060436">
        <ele>386.127</ele>
        <time>2019-06-22T11:21:29Z</time>
      </trkpt>
      <trkpt lat="42.426370" lon="-8.060223">
        <ele>387.091</ele>
        <time>2019-06-22T11:21:30Z</time>
      </trkpt>
      <trkpt lat="42.426284" lon="-8.060020">
        <ele>387.953</ele>
        <time>2019-06-22T11:21:31Z</time>
      </trkpt>
      <trkpt lat="42.426196" lon="-8.059821">
        <ele>388.045</ele>
        <time>2019-06-22T11:21:32Z</time>
      </trkpt>
      <trkpt lat="42.426045" lon="-8.059590">
        <ele>388.483</ele>
        <time>2019-06-22T11:21:33Z</time>
      </trkpt>
      <trkpt lat="42.425940" lon="-8.059367">
        <ele>389.362</ele>
        <time>2019-06-22T11:21:34Z</time>
      </trkpt>
      <trkpt lat="42.425840" lon="-8.059128">
        <ele>389.437</ele>
        <time>2019-06-22T11:21:35Z</time>
      </trkpt>
      <trkpt lat="42.425744" lon="-8.058906">
        <ele>389.790</ele>
        <time>2019-06-22T11:21:36Z</time>
      </trkpt>
      <trkpt lat="42.425646" lon="-8.058684">
        <ele>390.349</ele>
        <time>2019-06-22T11:21:37Z</time>
      </trkpt>
      <trkpt lat="42.425492" lon="-8.058430">
        <ele>390.802</ele>
        <time>2019-06-22T11:21:38Z</time>
      </trkpt>
      <trkpt lat="42.425371" lon="-8.058174">
        <ele>390.922</ele>
        <time>2019-06-22T11:21:39Z</time>
      </trkpt>
      <trkpt lat="42.425272" lon="-8.057945">
        <ele>391.208</ele>
        <time>2019-06-22T11:21:40Z</time>
      </trkpt>
      <trkpt lat="42.425156" lon="-8.057690">
        <ele>392.197</ele>
        <time>2019-06-22T11:21:41Z</time>
      </trkpt>
      <trkpt lat="42.425051" lon="-8.057438">
        <ele>393.291</ele>
        <time>2019-06-22T11:21:42Z</time>
      </trkpt>
      <trkpt lat="42.424950" lon="-8.057197">
        <ele>394.233</ele>
        <time>2019-06-22T11:21:43Z</time>
      </trkpt>
      <trkpt lat="42.424851" lon="-8.056940">
        <ele>396.275</ele>
        <time>2019-06-22T11:21:44Z</time>
      </trkpt>
      <trkpt lat="42.424755" lon="-8.056693">
        <ele>398.133</ele>
        <time>2019-06-22T11:21:45Z</time>
      </trkpt>
      <trkpt lat="42.424668" lon="-8.056445">
        <ele>399.682</ele>
        <time>2019-06-22T11:21:46Z</time>
      </trkpt>
      <trkpt lat="42.424579" lon="-8.056206">
        <ele>400.857</ele>
        <time>2019-06-22T11:21:47Z</time>
      </trkpt>
      <trkpt lat="42.424511" lon="-8.055987">
        <ele>401.610</ele>
        <time>2019-06-22T11:21:48Z</time>
      </trkpt>
      <trkpt lat="42.424434" lon="-8.055743">
        <ele>402.651</ele>
        <time>2019-06-22T11:21:49Z</time>
      </trkpt>
      <trkpt lat="42.424369" lon="-8.055521">
        <ele>403.701</ele>
        <time>2019-06-22T11:21:50Z</time>
      </trkpt>
      <trkpt lat="42.424277" lon="-8.055274">
        <ele>403.911</ele>
        <time>2019-06-22T11:21:51Z</time>
      </trkpt>
      <trkpt lat="42.424195" lon="-8.055042">
        <ele>404.808</ele>
        <time>2019-06-22T11:21:52Z</time>
      </trkpt>
      <trkpt lat="42.424099" lon="-8.054811">
        <ele>405.368</ele>
        <time>2019-06-22T11:21:53Z</time>
      </trkpt>
      <trkpt lat="42.424000" lon="-8.054575">
        <ele>405.342</ele>
        <time>2019-06-22T11:21:54Z</time>
      </trkpt>
      <trkpt lat="42.423877" lon="-8.054342">
        <ele>405.484</ele>
        <time>2019-06-22T11:21:55Z</time>
      </trkpt>
      <trkpt lat="42.423796" lon="-8.054117">
        <ele>405.696</ele>
        <time>2019-06-22T11:21:56Z</time>
      </trkpt>
      <trkpt lat="42.423732" lon="-8.053897">
        <ele>405.934</ele>
        <time>2019-06-22T11:21:57Z</time>
      </trkpt>
      <trkpt lat="42.423654" lon="-8.053677">
        <ele>406.463</ele>
        <time>2019-06-22T11:21:58Z</time>
      </trkpt>
      <trkpt lat="42.423596" lon="-8.053450">
        <ele>407.278</ele>
        <time>2019-06-22T11:21:59Z</time>
      </trkpt>
      <trkpt lat="42.423563" lon="-8.053209">
        <ele>408.071</ele>
        <time>2019-06-22T11:22:00Z</time>
      </trkpt>
      <trkpt lat="42.423553" lon="-8.052970">
        <ele>408.188</ele>
        <time>2019-06-22T11:22:01Z</time>
      </trkpt>
      <trkpt lat="42.423506" lon="-8.052714">
        <ele>408.124</ele>
        <time>2019-06-22T11:22:02Z</time>
      </trkpt>
      <trkpt lat="42.423465" lon="-8.052474">
        <ele>407.926</ele>
        <time>2019-06-22T11:22:03Z</time>
      </trkpt>
      <trkpt lat="42.423405" lon="-8.052256">
        <ele>405.908</ele>
        <time>2019-06-22T11:22:04Z</time>
      </trkpt>
      <trkpt lat="42.423307" lon="-8.052032">
        <ele>404.531</ele>
        <time>2019-06-22T11:22:05Z</time>
      </trkpt>
      <trkpt lat="42.423196" lon="-8.051836">
        <ele>403.685</ele>
        <time>2019-06-22T11:22:06Z</time>
      </trkpt>
      <trkpt lat="42.423079" lon="-8.051655">
        <ele>402.487</ele>
        <time>2019-06-22T11:22:07Z</time>
      </trkpt>
      <trkpt lat="42.422937" lon="-8.051512">
        <ele>402.459</ele>
        <time>2019-06-22T11:22:08Z</time>
      </trkpt>
      <trkpt lat="42.422797" lon="-8.051373">
        <ele>404.247</ele>
        <time>2019-06-22T11:22:09Z</time>
      </trkpt>
      <trkpt lat="42.422685" lon="-8.051248">
        <ele>406.236</ele>
        <time>2019-06-22T11:22:10Z</time>
      </trkpt>
      <trkpt lat="42.422555" lon="-8.051127">
        <ele>406.941</ele>
        <time>2019-06-22T11:22:11Z</time>
      </trkpt>
      <trkpt lat="42.422453" lon="-8.051014">
        <ele>408.584</ele>
        <time>2019-06-22T11:22:12Z</time>
      </trkpt>
      <trkpt lat="42.422357" lon="-8.050891">
        <ele>410.222</ele>
        <time>2019-06-22T11:22:13Z</time>
      </trkpt>
      <trkpt lat="42.422307" lon="-8.050749">
        <ele>411.862</ele>
        <time>2019-06-22T11:22:14Z</time>
      </trkpt>
      <trkpt lat="42.422270" lon="-8.050590">
        <ele>412.708</ele>
        <time>2019-06-22T11:22:15Z</time>
      </trkpt>
      <trkpt lat="42.422231" lon="-8.050421">
        <ele>414.308</ele>
        <time>2019-06-22T11:22:16Z</time>
      </trkpt>
      <trkpt lat="42.422213" lon="-8.050226">
        <ele>415.635</ele>
        <time>2019-06-22T11:22:17Z</time>
      </trkpt>
      <trkpt lat="42.422206" lon="-8.050049">
        <ele>416.169</ele>
        <time>2019-06-22T11:22:18Z</time>
      </trkpt>
      <trkpt lat="42.422202" lon="-8.049881">
        <ele>416.181</ele>
        <time>2019-06-22T11:22:19Z</time>
      </trkpt>
      <trkpt lat="42.422190" lon="-8.049723">
        <ele>415.923</ele>
        <time>2019-06-22T11:22:20Z</time>
      </trkpt>
      <trkpt lat="42.422176" lon="-8.049542">
        <ele>415.751</ele>
        <time>2019-06-22T11:22:21Z</time>
      </trkpt>
      <trkpt lat="42.422166" lon="-8.049376">
        <ele>415.370</ele>
        <time>2019-06-22T11:22:22Z</time>
      </trkpt>
      <trkpt lat="42.422135" lon="-8.049214">
        <ele>414.985</ele>
        <time>2019-06-22T11:22:23Z</time>
      </trkpt>
      <trkpt lat="42.422132" lon="-8.049071">
        <ele>414.788</ele>
        <time>2019-06-22T11:22:24Z</time>
      </trkpt>
      <trkpt lat="42.422124" lon="-8.048927">
        <ele>414.415</ele>
        <time>2019-06-22T11:22:25Z</time>
      </trkpt>
      <trkpt lat="42.422135" lon="-8.048796">
        <ele>414.065</ele>
        <time>2019-06-22T11:22:26Z</time>
      </trkpt>
      <trkpt lat="42.422127" lon="-8.048646">
        <ele>413.711</ele>
        <time>2019-06-22T11:22:27Z</time>
      </trkpt>
      <trkpt lat="42.422108" lon="-8.048494">
        <ele>413.708</ele>
        <time>2019-06-22T11:22:28Z</time>
      </trkpt>
      <trkpt lat="42.422091" lon="-8.048326">
        <ele>413.484</ele>
        <time>2019-06-22T11:22:29Z</time>
      </trkpt>
      <trkpt lat="42.422071" lon="-8.048155">
        <ele>413.038</ele>
        <time>2019-06-22T11:22:30Z</time>
      </trkpt>
      <trkpt lat="42.422054" lon="-8.047977">
        <ele>412.710</ele>
        <time>2019-06-22T11:22:31Z</time>
      </trkpt>
      <trkpt lat="42.422036" lon="-8.047797">
        <ele>412.212</ele>
        <time>2019-06-22T11:22:32Z</time>
      </trkpt>
      <trkpt lat="42.422030" lon="-8.047615">
        <ele>411.720</ele>
        <time>2019-06-22T11:22:33Z</time>
      </trkpt>
      <trkpt lat="42.422026" lon="-8.047432">
        <ele>411.159</ele>
        <time>2019-06-22T11:22:34Z</time>
      </trkpt>
      <trkpt lat="42.422007" lon="-8.047248">
        <ele>410.524</ele>
        <time>2019-06-22T11:22:35Z</time>
      </trkpt>
      <trkpt lat="42.421980" lon="-8.047079">
        <ele>410.067</ele>
        <time>2019-06-22T11:22:36Z</time>
      </trkpt>
      <trkpt lat="42.421971" lon="-8.046897">
        <ele>409.687</ele>
        <time>2019-06-22T11:22:37Z</time>
      </trkpt>
      <trkpt lat="42.421972" lon="-8.046718">
        <ele>409.142</ele>
        <time>2019-06-22T11:22:38Z</time>
      </trkpt>
      <trkpt lat="42.421954" lon="-8.046534">
        <ele>408.626</ele>
        <time>2019-06-22T11:22:39Z</time>
      </trkpt>
      <trkpt lat="42.421953" lon="-8.046350">
        <ele>408.108</ele>
        <time>2019-06-22T11:22:40Z</time>
      </trkpt>
      <trkpt lat="42.421971" lon="-8.046145">
        <ele>407.671</ele>
        <time>2019-06-22T11:22:41Z</time>
      </trkpt>
      <trkpt lat="42.421987" lon="-8.045941">
        <ele>407.035</ele>
        <time>2019-06-22T11:22:42Z</time>
      </trkpt>
      <trkpt lat="42.422010" lon="-8.045747">
        <ele>406.757</ele>
        <time>2019-06-22T11:22:43Z</time>
      </trkpt>
      <trkpt lat="42.422043" lon="-8.045558">
        <ele>406.319</ele>
        <time>2019-06-22T11:22:44Z</time>
      </trkpt>
      <trkpt lat="42.422100" lon="-8.045379">
        <ele>406.017</ele>
        <time>2019-06-22T11:22:45Z</time>
      </trkpt>
      <trkpt lat="42.422126" lon="-8.045163">
        <ele>405.866</ele>
        <time>2019-06-22T11:22:46Z</time>
      </trkpt>
      <trkpt lat="42.422142" lon="-8.044946">
        <ele>405.721</ele>
        <time>2019-06-22T11:22:47Z</time>
      </trkpt>
      <trkpt lat="42.422125" lon="-8.044737">
        <ele>404.894</ele>
        <time>2019-06-22T11:22:48Z</time>
      </trkpt>
      <trkpt lat="42.422053" lon="-8.044503">
        <ele>403.726</ele>
        <time>2019-06-22T11:22:49Z</time>
      </trkpt>
      <trkpt lat="42.421992" lon="-8.044294">
        <ele>402.847</ele>
        <time>2019-06-22T11:22:50Z</time>
      </trkpt>
      <trkpt lat="42.421921" lon="-8.044085">
        <ele>401.611</ele>
        <time>2019-06-22T11:22:51Z</time>
      </trkpt>
      <trkpt lat="42.421836" lon="-8.043885">
        <ele>400.308</ele>
        <time>2019-06-22T11:22:52Z</time>
      </trkpt>
      <trkpt lat="42.421707" lon="-8.043671">
        <ele>399.795</ele>
        <time>2019-06-22T11:22:53Z</time>
      </trkpt>
      <trkpt lat="42.421590" lon="-8.043451">
        <ele>399.289</ele>
        <time>2019-06-22T11:22:54Z</time>
      </trkpt>
      <trkpt lat="42.421467" lon="-8.043230">
        <ele>398.511</ele>
        <time>2019-06-22T11:22:55Z</time>
      </trkpt>
      <trkpt lat="42.421316" lon="-8.043017">
        <ele>397.863</ele>
        <time>2019-06-22T11:22:56Z</time>
      </trkpt>
      <trkpt lat="42.421169" lon="-8.042812">
        <ele>397.021</ele>
        <time>2019-06-22T11:22:57Z</time>
      </trkpt>
      <trkpt lat="42.421016" lon="-8.042623">
        <ele>395.830</ele>
        <time>2019-06-22T11:22:58Z</time>
      </trkpt>
      <trkpt lat="42.420854" lon="-8.042448">
        <ele>394.625</ele>
        <time>2019-06-22T11:22:59Z</time>
      </trkpt>
      <trkpt lat="42.420679" lon="-8.042304">
        <ele>393.348</ele>
        <time>2019-06-22T11:23:00Z</time>
      </trkpt>
      <trkpt lat="42.420490" lon="-8.042160">
        <ele>393.132</ele>
        <time>2019-06-22T11:23:01Z</time>
      </trkpt>
      <trkpt lat="42.420309" lon="-8.042045">
        <ele>392.992</ele>
        <time>2019-06-22T11:23:02Z</time>
      </trkpt>
      <trkpt lat="42.420089" lon="-8.041927">
        <ele>392.911</ele>
        <time>2019-06-22T11:23:03Z</time>
      </trkpt>
      <trkpt lat="42.419877" lon="-8.041838">
        <ele>393.808</ele>
        <time>2019-06-22T11:23:04Z</time>
      </trkpt>
      <trkpt lat="42.419668" lon="-8.041759">
        <ele>395.426</ele>
        <time>2019-06-22T11:23:05Z</time>
      </trkpt>
      <trkpt lat="42.419458" lon="-8.041679">
        <ele>396.940</ele>
        <time>2019-06-22T11:23:06Z</time>
      </trkpt>
      <trkpt lat="42.419281" lon="-8.041631">
        <ele>398.182</ele>
        <time>2019-06-22T11:23:07Z</time>
      </trkpt>
      <trkpt lat="42.419069" lon="-8.041539">
        <ele>399.864</ele>
        <time>2019-06-22T11:23:08Z</time>
      </trkpt>
      <trkpt lat="42.418865" lon="-8.041450">
        <ele>401.082</ele>
        <time>2019-06-22T11:23:09Z</time>
      </trkpt>
      <trkpt lat="42.418683" lon="-8.041333">
        <ele>402.831</ele>
        <time>2019-06-22T11:23:10Z</time>
      </trkpt>
      <trkpt lat="42.418504" lon="-8.041204">
        <ele>404.046</ele>
        <time>2019-06-22T11:23:11Z</time>
      </trkpt>
      <trkpt lat="42.418338" lon="-8.041044">
        <ele>405.159</ele>
        <time>2019-06-22T11:23:12Z</time>
      </trkpt>
      <trkpt lat="42.418191" lon="-8.040882">
        <ele>405.627</ele>
        <time>2019-06-22T11:23:13Z</time>
      </trkpt>
      <trkpt lat="42.418072" lon="-8.040727">
        <ele>406.568</ele>
        <time>2019-06-22T11:23:14Z</time>
      </trkpt>
      <trkpt lat="42.417938" lon="-8.040557">
        <ele>406.714</ele>
        <time>2019-06-22T11:23:15Z</time>
      </trkpt>
      <trkpt lat="42.417812" lon="-8.040393">
        <ele>406.808</ele>
        <time>2019-06-22T11:23:16Z</time>
      </trkpt>
      <trkpt lat="42.417733" lon="-8.040170">
        <ele>407.075</ele>
        <time>2019-06-22T11:23:17Z</time>
      </trkpt>
      <trkpt lat="42.417647" lon="-8.039910">
        <ele>407.959</ele>
        <time>2019-06-22T11:23:18Z</time>
      </trkpt>
      <trkpt lat="42.417590" lon="-8.039675">
        <ele>408.421</ele>
        <time>2019-06-22T11:23:19Z</time>
      </trkpt>
      <trkpt lat="42.417516" lon="-8.039427">
        <ele>408.763</ele>
        <time>2019-06-22T11:23:20Z</time>
      </trkpt>
      <trkpt lat="42.417429" lon="-8.039140">
        <ele>408.991</ele>
        <time>2019-06-22T11:23:21Z</time>
      </trkpt>
      <trkpt lat="42.417337" lon="-8.038889">
        <ele>408.960</ele>
        <time>2019-06-22T11:23:22Z</time>
      </trkpt>
      <trkpt lat="42.417254" lon="-8.038642">
        <ele>408.225</ele>
        <time>2019-06-22T11:23:23Z</time>
      </trkpt>
      <trkpt lat="42.417143" lon="-8.038398">
        <ele>408.298</ele>
        <time>2019-06-22T11:23:24Z</time>
      </trkpt>
      <trkpt lat="42.417026" lon="-8.038155">
        <ele>408.769</ele>
        <time>2019-06-22T11:23:25Z</time>
      </trkpt>
      <trkpt lat="42.416903" lon="-8.037940">
        <ele>409.604</ele>
        <time>2019-06-22T11:23:26Z</time>
      </trkpt>
      <trkpt lat="42.416776" lon="-8.037747">
        <ele>410.824</ele>
        <time>2019-06-22T11:23:27Z</time>
      </trkpt>
      <trkpt lat="42.416646" lon="-8.037543">
        <ele>412.508</ele>
        <time>2019-06-22T11:23:28Z</time>
      </trkpt>
      <trkpt lat="42.416487" lon="-8.037344">
        <ele>412.579</ele>
        <time>2019-06-22T11:23:29Z</time>
      </trkpt>
      <trkpt lat="42.416352" lon="-8.037158">
        <ele>413.723</ele>
        <time>2019-06-22T11:23:30Z</time>
      </trkpt>
      <trkpt lat="42.416178" lon="-8.036948">
        <ele>414.955</ele>
        <time>2019-06-22T11:23:31Z</time>
      </trkpt>
      <trkpt lat="42.416027" lon="-8.036755">
        <ele>415.667</ele>
        <time>2019-06-22T11:23:32Z</time>
      </trkpt>
      <trkpt lat="42.415882" lon="-8.036562">
        <ele>416.245</ele>
        <time>2019-06-22T11:23:33Z</time>
      </trkpt>
      <trkpt lat="42.415750" lon="-8.036364">
        <ele>416.954</ele>
        <time>2019-06-22T11:23:34Z</time>
      </trkpt>
      <trkpt lat="42.415630" lon="-8.036143">
        <ele>418.389</ele>
        <time>2019-06-22T11:23:35Z</time>
      </trkpt>
      <trkpt lat="42.415515" lon="-8.035922">
        <ele>419.932</ele>
        <time>2019-06-22T11:23:36Z</time>
      </trkpt>
      <trkpt lat="42.415407" lon="-8.035693">
        <ele>421.334</ele>
        <time>2019-06-22T11:23:37Z</time>
      </trkpt>
      <trkpt lat="42.415302" lon="-8.035451">
        <ele>422.355</ele>
        <time>2019-06-22T11:23:38Z</time>
      </trkpt>
      <trkpt lat="42.415193" lon="-8.035202">
        <ele>422.310</ele>
        <time>2019-06-22T11:23:39Z</time>
      </trkpt>
      <trkpt lat="42.415082" lon="-8.034971">
        <ele>420.908</ele>
        <time>2019-06-22T11:23:40Z</time>
      </trkpt>
      <trkpt lat="42.414957" lon="-8.034744">
        <ele>418.496</ele>
        <time>2019-06-22T11:23:41Z</time>
      </trkpt>
      <trkpt lat="42.414831" lon="-8.034523">
        <ele>416.560</ele>
        <time>2019-06-22T11:23:42Z</time>
      </trkpt>
      <trkpt lat="42.414711" lon="-8.034300">
        <ele>415.322</ele>
        <time>2019-06-22T11:23:43Z</time>
      </trkpt>
      <trkpt lat="42.414601" lon="-8.034085">
        <ele>414.184</ele>
        <time>2019-06-22T11:23:44Z</time>
      </trkpt>
      <trkpt lat="42.414483" lon="-8.033878">
        <ele>413.392</ele>
        <time>2019-06-22T11:23:45Z</time>
      </trkpt>
      <trkpt lat="42.414373" lon="-8.033666">
        <ele>412.551</ele>
        <time>2019-06-22T11:23:46Z</time>
      </trkpt>
      <trkpt lat="42.414260" lon="-8.033422">
        <ele>411.636</ele>
        <time>2019-06-22T11:23:47Z</time>
      </trkpt>
      <trkpt lat="42.414169" lon="-8.033176">
        <ele>410.069</ele>
        <time>2019-06-22T11:23:48Z</time>
      </trkpt>
      <trkpt lat="42.414084" lon="-8.032928">
        <ele>409.046</ele>
        <time>2019-06-22T11:23:49Z</time>
      </trkpt>
      <trkpt lat="42.413998" lon="-8.032646">
        <ele>408.588</ele>
        <time>2019-06-22T11:23:50Z</time>
      </trkpt>
      <trkpt lat="42.413940" lon="-8.032357">
        <ele>408.316</ele>
        <time>2019-06-22T11:23:51Z</time>
      </trkpt>
      <trkpt lat="42.413927" lon="-8.032069">
        <ele>407.608</ele>
        <time>2019-06-22T11:23:52Z</time>
      </trkpt>
      <trkpt lat="42.413924" lon="-8.031779">
        <ele>407.087</ele>
        <time>2019-06-22T11:23:53Z</time>
      </trkpt>
      <trkpt lat="42.413943" lon="-8.031487">
        <ele>405.861</ele>
        <time>2019-06-22T11:23:54Z</time>
      </trkpt>
      <trkpt lat="42.413982" lon="-8.031176">
        <ele>404.223</ele>
        <time>2019-06-22T11:23:55Z</time>
      </trkpt>
      <trkpt lat="42.414026" lon="-8.030862">
        <ele>402.985</ele>
        <time>2019-06-22T11:23:56Z</time>
      </trkpt>
      <trkpt lat="42.414089" lon="-8.030545">
        <ele>401.663</ele>
        <time>2019-06-22T11:23:57Z</time>
      </trkpt>
      <trkpt lat="42.414197" lon="-8.030251">
        <ele>400.052</ele>
        <time>2019-06-22T11:23:58Z</time>
      </trkpt>
      <trkpt lat="42.414294" lon="-8.029943">
        <ele>398.777</ele>
        <time>2019-06-22T11:23:59Z</time>
      </trkpt>
      <trkpt lat="42.414382" lon="-8.029642">
        <ele>398.150</ele>
        <time>2019-06-22T11:24:00Z</time>
      </trkpt>
      <trkpt lat="42.414469" lon="-8.029339">
        <ele>396.026</ele>
        <time>2019-06-22T11:24:01Z</time>
      </trkpt>
      <trkpt lat="42.414554" lon="-8.029051">
        <ele>393.447</ele>
        <time>2019-06-22T11:24:02Z</time>
      </trkpt>
      <trkpt lat="42.414619" lon="-8.028753">
        <ele>391.111</ele>
        <time>2019-06-22T11:24:03Z</time>
      </trkpt>
      <trkpt lat="42.414692" lon="-8.028437">
        <ele>388.808</ele>
        <time>2019-06-22T11:24:04Z</time>
      </trkpt>
      <trkpt lat="42.414768" lon="-8.028132">
        <ele>386.645</ele>
        <time>2019-06-22T11:24:05Z</time>
      </trkpt>
      <trkpt lat="42.414847" lon="-8.027829">
        <ele>385.459</ele>
        <time>2019-06-22T11:24:06Z</time>
      </trkpt>
      <trkpt lat="42.414915" lon="-8.027504">
        <ele>385.451</ele>
        <time>2019-06-22T11:24:07Z</time>
      </trkpt>
      <trkpt lat="42.414983" lon="-8.027197">
        <ele>384.613</ele>
        <time>2019-06-22T11:24:08Z</time>
      </trkpt>
      <trkpt lat="42.415050" lon="-8.026885">
        <ele>384.571</ele>
        <time>2019-06-22T11:24:09Z</time>
      </trkpt>
      <trkpt lat="42.415109" lon="-8.026565">
        <ele>384.470</ele>
        <time>2019-06-22T11:24:10Z</time>
      </trkpt>
      <trkpt lat="42.415161" lon="-8.026255">
        <ele>383.955</ele>
        <time>2019-06-22T11:24:11Z</time>
      </trkpt>
      <trkpt lat="42.415197" lon="-8.025930">
        <ele>381.728</ele>
        <time>2019-06-22T11:24:12Z</time>
      </trkpt>
      <trkpt lat="42.415199" lon="-8.025596">
        <ele>380.277</ele>
        <time>2019-06-22T11:24:13Z</time>
      </trkpt>
      <trkpt lat="42.415215" lon="-8.025266">
        <ele>378.061</ele>
        <time>2019-06-22T11:24:14Z</time>
      </trkpt>
      <trkpt lat="42.415184" lon="-8.024941">
        <ele>375.227</ele>
        <time>2019-06-22T11:24:15Z</time>
      </trkpt>
      <trkpt lat="42.415140" lon="-8.024613">
        <ele>372.108</ele>
        <time>2019-06-22T11:24:16Z</time>
      </trkpt>
      <trkpt lat="42.415077" lon="-8.024290">
        <ele>370.480</ele>
        <time>2019-06-22T11:24:17Z</time>
      </trkpt>
      <trkpt lat="42.414988" lon="-8.023974">
        <ele>368.414</ele>
        <time>2019-06-22T11:24:18Z</time>
      </trkpt>
      <trkpt lat="42.414896" lon="-8.023659">
        <ele>366.316</ele>
        <time>2019-06-22T11:24:19Z</time>
      </trkpt>
      <trkpt lat="42.414795" lon="-8.023358">
        <ele>363.488</ele>
        <time>2019-06-22T11:24:20Z</time>
      </trkpt>
      <trkpt lat="42.414653" lon="-8.023073">
        <ele>361.036</ele>
        <time>2019-06-22T11:24:21Z</time>
      </trkpt>
      <trkpt lat="42.414491" lon="-8.022815">
        <ele>358.545</ele>
        <time>2019-06-22T11:24:22Z</time>
      </trkpt>
      <trkpt lat="42.414336" lon="-8.022570">
        <ele>356.290</ele>
        <time>2019-06-22T11:24:23Z</time>
      </trkpt>
      <trkpt lat="42.414165" lon="-8.022332">
        <ele>353.813</ele>
        <time>2019-06-22T11:24:24Z</time>
      </trkpt>
      <trkpt lat="42.413985" lon="-8.022123">
        <ele>352.056</ele>
        <time>2019-06-22T11:24:25Z</time>
      </trkpt>
      <trkpt lat="42.413790" lon="-8.021924">
        <ele>350.059</ele>
        <time>2019-06-22T11:24:26Z</time>
      </trkpt>
      <trkpt lat="42.413576" lon="-8.021742">
        <ele>347.814</ele>
        <time>2019-06-22T11:24:27Z</time>
      </trkpt>
      <trkpt lat="42.413364" lon="-8.021573">
        <ele>347.808</ele>
        <time>2019-06-22T11:24:28Z</time>
      </trkpt>
      <trkpt lat="42.413141" lon="-8.021481">
        <ele>345.788</ele>
        <time>2019-06-22T11:24:29Z</time>
      </trkpt>
      <trkpt lat="42.412928" lon="-8.021382">
        <ele>344.452</ele>
        <time>2019-06-22T11:24:30Z</time>
      </trkpt>
      <trkpt lat="42.412710" lon="-8.021297">
        <ele>343.794</ele>
        <time>2019-06-22T11:24:31Z</time>
      </trkpt>
      <trkpt lat="42.412496" lon="-8.021221">
        <ele>343.776</ele>
        <time>2019-06-22T11:24:32Z</time>
      </trkpt>
      <trkpt lat="42.412281" lon="-8.021141">
        <ele>344.454</ele>
        <time>2019-06-22T11:24:33Z</time>
      </trkpt>
      <trkpt lat="42.412079" lon="-8.021068">
        <ele>345.723</ele>
        <time>2019-06-22T11:24:34Z</time>
      </trkpt>
      <trkpt lat="42.411863" lon="-8.020986">
        <ele>346.668</ele>
        <time>2019-06-22T11:24:35Z</time>
      </trkpt>
      <trkpt lat="42.411648" lon="-8.020884">
        <ele>346.761</ele>
        <time>2019-06-22T11:24:36Z</time>
      </trkpt>
      <trkpt lat="42.411440" lon="-8.020767">
        <ele>346.723</ele>
        <time>2019-06-22T11:24:37Z</time>
      </trkpt>
      <trkpt lat="42.411236" lon="-8.020622">
        <ele>346.483</ele>
        <time>2019-06-22T11:24:38Z</time>
      </trkpt>
      <trkpt lat="42.411039" lon="-8.020454">
        <ele>345.511</ele>
        <time>2019-06-22T11:24:39Z</time>
      </trkpt>
      <trkpt lat="42.410840" lon="-8.020269">
        <ele>344.708</ele>
        <time>2019-06-22T11:24:40Z</time>
      </trkpt>
      <trkpt lat="42.410644" lon="-8.020067">
        <ele>344.675</ele>
        <time>2019-06-22T11:24:41Z</time>
      </trkpt>
      <trkpt lat="42.410446" lon="-8.019857">
        <ele>343.849</ele>
        <time>2019-06-22T11:24:42Z</time>
      </trkpt>
      <trkpt lat="42.410228" lon="-8.019634">
        <ele>342.521</ele>
        <time>2019-06-22T11:24:43Z</time>
      </trkpt>
      <trkpt lat="42.410027" lon="-8.019424">
        <ele>341.043</ele>
        <time>2019-06-22T11:24:44Z</time>
      </trkpt>
      <trkpt lat="42.409820" lon="-8.019202">
        <ele>339.361</ele>
        <time>2019-06-22T11:24:45Z</time>
      </trkpt>
      <trkpt lat="42.409613" lon="-8.018976">
        <ele>336.820</ele>
        <time>2019-06-22T11:24:46Z</time>
      </trkpt>
      <trkpt lat="42.409401" lon="-8.018750">
        <ele>334.165</ele>
        <time>2019-06-22T11:24:47Z</time>
      </trkpt>
      <trkpt lat="42.409191" lon="-8.018520">
        <ele>331.418</ele>
        <time>2019-06-22T11:24:48Z</time>
      </trkpt>
      <trkpt lat="42.408991" lon="-8.018291">
        <ele>328.876</ele>
        <time>2019-06-22T11:24:49Z</time>
      </trkpt>
      <trkpt lat="42.408786" lon="-8.018074">
        <ele>326.490</ele>
        <time>2019-06-22T11:24:50Z</time>
      </trkpt>
      <trkpt lat="42.408579" lon="-8.017849">
        <ele>324.819</ele>
        <time>2019-06-22T11:24:51Z</time>
      </trkpt>
      <trkpt lat="42.408368" lon="-8.017631">
        <ele>323.408</ele>
        <time>2019-06-22T11:24:52Z</time>
      </trkpt>
      <trkpt lat="42.408164" lon="-8.017421">
        <ele>322.250</ele>
        <time>2019-06-22T11:24:53Z</time>
      </trkpt>
      <trkpt lat="42.407966" lon="-8.017190">
        <ele>320.534</ele>
        <time>2019-06-22T11:24:54Z</time>
      </trkpt>
      <trkpt lat="42.407763" lon="-8.016970">
        <ele>319.246</ele>
        <time>2019-06-22T11:24:55Z</time>
      </trkpt>
      <trkpt lat="42.407559" lon="-8.016745">
        <ele>317.548</ele>
        <time>2019-06-22T11:24:56Z</time>
      </trkpt>
      <trkpt lat="42.407353" lon="-8.016525">
        <ele>315.636</ele>
        <time>2019-06-22T11:24:57Z</time>
      </trkpt>
      <trkpt lat="42.407156" lon="-8.016335">
        <ele>314.245</ele>
        <time>2019-06-22T11:24:58Z</time>
      </trkpt>
      <trkpt lat="42.406949" lon="-8.016114">
        <ele>312.650</ele>
        <time>2019-06-22T11:24:59Z</time>
      </trkpt>
      <trkpt lat="42.406779" lon="-8.015898">
        <ele>311.493</ele>
        <time>2019-06-22T11:25:00Z</time>
      </trkpt>
      <trkpt lat="42.406583" lon="-8.015675">
        <ele>310.146</ele>
        <time>2019-06-22T11:25:01Z</time>
      </trkpt>
      <trkpt lat="42.406447" lon="-8.015606">
        <ele>308.888</ele>
        <time>2019-06-22T11:25:02Z</time>
      </trkpt>
      <trkpt lat="42.406251" lon="-8.015459">
        <ele>308.316</ele>
        <time>2019-06-22T11:25:03Z</time>
      </trkpt>
      <trkpt lat="42.406058" lon="-8.015322">
        <ele>308.308</ele>
        <time>2019-06-22T11:25:04Z</time>
      </trkpt>
      <trkpt lat="42.405863" lon="-8.015189">
        <ele>308.367</ele>
        <time>2019-06-22T11:25:05Z</time>
      </trkpt>
      <trkpt lat="42.405655" lon="-8.015172">
        <ele>309.051</ele>
        <time>2019-06-22T11:25:06Z</time>
      </trkpt>
      <trkpt lat="42.405472" lon="-8.015123">
        <ele>309.453</ele>
        <time>2019-06-22T11:25:07Z</time>
      </trkpt>
      <trkpt lat="42.405290" lon="-8.015077">
        <ele>310.395</ele>
        <time>2019-06-22T11:25:08Z</time>
      </trkpt>
      <trkpt lat="42.405096" lon="-8.014981">
        <ele>310.933</ele>
        <time>2019-06-22T11:25:09Z</time>
      </trkpt>
      <trkpt lat="42.404903" lon="-8.014878">
        <ele>311.362</ele>
        <time>2019-06-22T11:25:10Z</time>
      </trkpt>
      <trkpt lat="42.404746" lon="-8.014743">
        <ele>311.787</ele>
        <time>2019-06-22T11:25:11Z</time>
      </trkpt>
      <trkpt lat="42.404612" lon="-8.014581">
        <ele>312.510</ele>
        <time>2019-06-22T11:25:12Z</time>
      </trkpt>
      <trkpt lat="42.404502" lon="-8.014385">
        <ele>313.416</ele>
        <time>2019-06-22T11:25:13Z</time>
      </trkpt>
      <trkpt lat="42.404411" lon="-8.014175">
        <ele>313.876</ele>
        <time>2019-06-22T11:25:14Z</time>
      </trkpt>
      <trkpt lat="42.404334" lon="-8.013936">
        <ele>314.313</ele>
        <time>2019-06-22T11:25:15Z</time>
      </trkpt>
      <trkpt lat="42.404264" lon="-8.013674">
        <ele>314.408</ele>
        <time>2019-06-22T11:25:16Z</time>
      </trkpt>
      <trkpt lat="42.404282" lon="-8.013451">
        <ele>314.734</ele>
        <time>2019-06-22T11:25:17Z</time>
      </trkpt>
      <trkpt lat="42.404256" lon="-8.013203">
        <ele>314.738</ele>
        <time>2019-06-22T11:25:18Z</time>
      </trkpt>
      <trkpt lat="42.404229" lon="-8.012950">
        <ele>314.250</ele>
        <time>2019-06-22T11:25:19Z</time>
      </trkpt>
      <trkpt lat="42.404183" lon="-8.012725">
        <ele>313.492</ele>
        <time>2019-06-22T11:25:20Z</time>
      </trkpt>
      <trkpt lat="42.404126" lon="-8.012488">
        <ele>312.690</ele>
        <time>2019-06-22T11:25:21Z</time>
      </trkpt>
      <trkpt lat="42.404074" lon="-8.012267">
        <ele>311.829</ele>
        <time>2019-06-22T11:25:22Z</time>
      </trkpt>
      <trkpt lat="42.403974" lon="-8.012088">
        <ele>311.014</ele>
        <time>2019-06-22T11:25:23Z</time>
      </trkpt>
      <trkpt lat="42.403887" lon="-8.011906">
        <ele>311.027</ele>
        <time>2019-06-22T11:25:24Z</time>
      </trkpt>
      <trkpt lat="42.403811" lon="-8.011722">
        <ele>311.078</ele>
        <time>2019-06-22T11:25:25Z</time>
      </trkpt>
      <trkpt lat="42.403546" lon="-8.011638">
        <ele>311.233</ele>
        <time>2019-06-22T11:25:26Z</time>
      </trkpt>
      <trkpt lat="42.403373" lon="-8.011523">
        <ele>311.326</ele>
        <time>2019-06-22T11:25:27Z</time>
      </trkpt>
      <trkpt lat="42.403202" lon="-8.011417">
        <ele>311.208</ele>
        <time>2019-06-22T11:25:28Z</time>
      </trkpt>
      <trkpt lat="42.403025" lon="-8.011318">
        <ele>311.250</ele>
        <time>2019-06-22T11:25:29Z</time>
      </trkpt>
      <trkpt lat="42.402830" lon="-8.011250">
        <ele>311.034</ele>
        <time>2019-06-22T11:25:30Z</time>
      </trkpt>
      <trkpt lat="42.402671" lon="-8.011215">
        <ele>311.096</ele>
        <time>2019-06-22T11:25:31Z</time>
      </trkpt>
      <trkpt lat="42.402488" lon="-8.011127">
        <ele>310.838</ele>
        <time>2019-06-22T11:25:32Z</time>
      </trkpt>
      <trkpt lat="42.402307" lon="-8.011043">
        <ele>310.786</ele>
        <time>2019-06-22T11:25:33Z</time>
      </trkpt>
      <trkpt lat="42.402097" lon="-8.010954">
        <ele>310.585</ele>
        <time>2019-06-22T11:25:34Z</time>
      </trkpt>
      <trkpt lat="42.401862" lon="-8.010874">
        <ele>309.910</ele>
        <time>2019-06-22T11:25:35Z</time>
      </trkpt>
      <trkpt lat="42.401647" lon="-8.010780">
        <ele>308.373</ele>
        <time>2019-06-22T11:25:36Z</time>
      </trkpt>
      <trkpt lat="42.401465" lon="-8.010684">
        <ele>307.631</ele>
        <time>2019-06-22T11:25:37Z</time>
      </trkpt>
      <trkpt lat="42.401260" lon="-8.010570">
        <ele>306.861</ele>
        <time>2019-06-22T11:25:38Z</time>
      </trkpt>
      <trkpt lat="42.401032" lon="-8.010439">
        <ele>305.807</ele>
        <time>2019-06-22T11:25:39Z</time>
      </trkpt>
      <trkpt lat="42.400855" lon="-8.010311">
        <ele>305.008</ele>
        <time>2019-06-22T11:25:40Z</time>
      </trkpt>
      <trkpt lat="42.400647" lon="-8.010182">
        <ele>304.856</ele>
        <time>2019-06-22T11:25:41Z</time>
      </trkpt>
      <trkpt lat="42.400426" lon="-8.010035">
        <ele>304.540</ele>
        <time>2019-06-22T11:25:42Z</time>
      </trkpt>
      <trkpt lat="42.400247" lon="-8.009876">
        <ele>303.692</ele>
        <time>2019-06-22T11:25:43Z</time>
      </trkpt>
      <trkpt lat="42.400045" lon="-8.009728">
        <ele>303.314</ele>
        <time>2019-06-22T11:25:44Z</time>
      </trkpt>
      <trkpt lat="42.399849" lon="-8.009564">
        <ele>302.772</ele>
        <time>2019-06-22T11:25:45Z</time>
      </trkpt>
      <trkpt lat="42.399674" lon="-8.009387">
        <ele>301.951</ele>
        <time>2019-06-22T11:25:46Z</time>
      </trkpt>
      <trkpt lat="42.399506" lon="-8.009208">
        <ele>301.986</ele>
        <time>2019-06-22T11:25:47Z</time>
      </trkpt>
      <trkpt lat="42.399357" lon="-8.008998">
        <ele>302.029</ele>
        <time>2019-06-22T11:25:48Z</time>
      </trkpt>
      <trkpt lat="42.399262" lon="-8.008757">
        <ele>302.176</ele>
        <time>2019-06-22T11:25:49Z</time>
      </trkpt>
      <trkpt lat="42.399168" lon="-8.008519">
        <ele>302.190</ele>
        <time>2019-06-22T11:25:50Z</time>
      </trkpt>
      <trkpt lat="42.399171" lon="-8.008278">
        <ele>302.919</ele>
        <time>2019-06-22T11:25:51Z</time>
      </trkpt>
      <trkpt lat="42.399117" lon="-8.008015">
        <ele>302.908</ele>
        <time>2019-06-22T11:25:52Z</time>
      </trkpt>
      <trkpt lat="42.399076" lon="-8.007751">
        <ele>302.710</ele>
        <time>2019-06-22T11:25:53Z</time>
      </trkpt>
      <trkpt lat="42.399041" lon="-8.007489">
        <ele>302.264</ele>
        <time>2019-06-22T11:25:54Z</time>
      </trkpt>
      <trkpt lat="42.399067" lon="-8.007269">
        <ele>301.976</ele>
        <time>2019-06-22T11:25:55Z</time>
      </trkpt>
      <trkpt lat="42.399073" lon="-8.007041">
        <ele>301.598</ele>
        <time>2019-06-22T11:25:56Z</time>
      </trkpt>
      <trkpt lat="42.399075" lon="-8.006790">
        <ele>300.566</ele>
        <time>2019-06-22T11:25:57Z</time>
      </trkpt>
      <trkpt lat="42.399057" lon="-8.006561">
        <ele>299.265</ele>
        <time>2019-06-22T11:25:58Z</time>
      </trkpt>
      <trkpt lat="42.399006" lon="-8.006341">
        <ele>297.960</ele>
        <time>2019-06-22T11:25:59Z</time>
      </trkpt>
      <trkpt lat="42.398885" lon="-8.006138">
        <ele>296.773</ele>
        <time>2019-06-22T11:26:00Z</time>
      </trkpt>
      <trkpt lat="42.398794" lon="-8.005947">
        <ele>295.588</ele>
        <time>2019-06-22T11:26:01Z</time>
      </trkpt>
      <trkpt lat="42.398661" lon="-8.005782">
        <ele>294.624</ele>
        <time>2019-06-22T11:26:02Z</time>
      </trkpt>
      <trkpt lat="42.398506" lon="-8.005649">
        <ele>294.626</ele>
        <time>2019-06-22T11:26:03Z</time>
      </trkpt>
      <trkpt lat="42.398339" lon="-8.005542">
        <ele>294.508</ele>
        <time>2019-06-22T11:26:04Z</time>
      </trkpt>
      <trkpt lat="42.398152" lon="-8.005461">
        <ele>294.381</ele>
        <time>2019-06-22T11:26:05Z</time>
      </trkpt>
      <trkpt lat="42.397989" lon="-8.005479">
        <ele>293.555</ele>
        <time>2019-06-22T11:26:06Z</time>
      </trkpt>
      <trkpt lat="42.397829" lon="-8.005450">
        <ele>293.447</ele>
        <time>2019-06-22T11:26:07Z</time>
      </trkpt>
      <trkpt lat="42.397670" lon="-8.005388">
        <ele>293.449</ele>
        <time>2019-06-22T11:26:08Z</time>
      </trkpt>
      <trkpt lat="42.397521" lon="-8.005295">
        <ele>293.577</ele>
        <time>2019-06-22T11:26:09Z</time>
      </trkpt>
      <trkpt lat="42.397384" lon="-8.005173">
        <ele>293.796</ele>
        <time>2019-06-22T11:26:10Z</time>
      </trkpt>
      <trkpt lat="42.397248" lon="-8.005006">
        <ele>294.311</ele>
        <time>2019-06-22T11:26:11Z</time>
      </trkpt>
      <trkpt lat="42.397116" lon="-8.004806">
        <ele>294.394</ele>
        <time>2019-06-22T11:26:12Z</time>
      </trkpt>
      <trkpt lat="42.396974" lon="-8.004571">
        <ele>293.572</ele>
        <time>2019-06-22T11:26:13Z</time>
      </trkpt>
      <trkpt lat="42.396840" lon="-8.004349">
        <ele>291.813</ele>
        <time>2019-06-22T11:26:14Z</time>
      </trkpt>
      <trkpt lat="42.396697" lon="-8.004133">
        <ele>289.914</ele>
        <time>2019-06-22T11:26:15Z</time>
      </trkpt>
      <trkpt lat="42.396552" lon="-8.003934">
        <ele>287.708</ele>
        <time>2019-06-22T11:26:16Z</time>
      </trkpt>
      <trkpt lat="42.396385" lon="-8.003775">
        <ele>285.160</ele>
        <time>2019-06-22T11:26:17Z</time>
      </trkpt>
      <trkpt lat="42.396218" lon="-8.003608">
        <ele>282.824</ele>
        <time>2019-06-22T11:26:18Z</time>
      </trkpt>
      <trkpt lat="42.395994" lon="-8.003475">
        <ele>281.126</ele>
        <time>2019-06-22T11:26:19Z</time>
      </trkpt>
      <trkpt lat="42.395797" lon="-8.003352">
        <ele>279.088</ele>
        <time>2019-06-22T11:26:20Z</time>
      </trkpt>
      <trkpt lat="42.395653" lon="-8.003275">
        <ele>277.876</ele>
        <time>2019-06-22T11:26:21Z</time>
      </trkpt>
      <trkpt lat="42.395472" lon="-8.003175">
        <ele>276.885</ele>
        <time>2019-06-22T11:26:22Z</time>
      </trkpt>
      <trkpt lat="42.395300" lon="-8.003125">
        <ele>275.840</ele>
        <time>2019-06-22T11:26:23Z</time>
      </trkpt>
      <trkpt lat="42.395116" lon="-8.003025">
        <ele>274.693</ele>
        <time>2019-06-22T11:26:24Z</time>
      </trkpt>
      <trkpt lat="42.394938" lon="-8.002929">
        <ele>274.158</ele>
        <time>2019-06-22T11:26:25Z</time>
      </trkpt>
      <trkpt lat="42.394771" lon="-8.002849">
        <ele>273.852</ele>
        <time>2019-06-22T11:26:26Z</time>
      </trkpt>
      <trkpt lat="42.394593" lon="-8.002740">
        <ele>273.217</ele>
        <time>2019-06-22T11:26:27Z</time>
      </trkpt>
      <trkpt lat="42.394408" lon="-8.002578">
        <ele>272.708</ele>
        <time>2019-06-22T11:26:28Z</time>
      </trkpt>
      <trkpt lat="42.394229" lon="-8.002422">
        <ele>272.068</ele>
        <time>2019-06-22T11:26:29Z</time>
      </trkpt>
      <trkpt lat="42.394047" lon="-8.002272">
        <ele>270.992</ele>
        <time>2019-06-22T11:26:30Z</time>
      </trkpt>
      <trkpt lat="42.393883" lon="-8.002077">
        <ele>270.994</ele>
        <time>2019-06-22T11:26:31Z</time>
      </trkpt>
      <trkpt lat="42.393707" lon="-8.001883">
        <ele>269.366</ele>
        <time>2019-06-22T11:26:32Z</time>
      </trkpt>
      <trkpt lat="42.393607" lon="-8.001713">
        <ele>267.824</ele>
        <time>2019-06-22T11:26:33Z</time>
      </trkpt>
      <trkpt lat="42.393411" lon="-8.001491">
        <ele>266.863</ele>
        <time>2019-06-22T11:26:34Z</time>
      </trkpt>
      <trkpt lat="42.393233" lon="-8.001274">
        <ele>266.018</ele>
        <time>2019-06-22T11:26:35Z</time>
      </trkpt>
      <trkpt lat="42.393005" lon="-8.001053">
        <ele>264.721</ele>
        <time>2019-06-22T11:26:36Z</time>
      </trkpt>
      <trkpt lat="42.392791" lon="-8.000818">
        <ele>263.482</ele>
        <time>2019-06-22T11:26:37Z</time>
      </trkpt>
      <trkpt lat="42.392623" lon="-8.000619">
        <ele>262.343</ele>
        <time>2019-06-22T11:26:38Z</time>
      </trkpt>
      <trkpt lat="42.392437" lon="-8.000415">
        <ele>260.917</ele>
        <time>2019-06-22T11:26:39Z</time>
      </trkpt>
      <trkpt lat="42.392277" lon="-8.000208">
        <ele>258.608</ele>
        <time>2019-06-22T11:26:40Z</time>
      </trkpt>
      <trkpt lat="42.392092" lon="-8.000000">
        <ele>256.371</ele>
        <time>2019-06-22T11:26:41Z</time>
      </trkpt>
      <trkpt lat="42.391937" lon="-7.999832">
        <ele>256.195</ele>
        <time>2019-06-22T11:26:42Z</time>
      </trkpt>
      <trkpt lat="42.391788" lon="-7.999671">
        <ele>255.317</ele>
        <time>2019-06-22T11:26:43Z</time>
      </trkpt>
      <trkpt lat="42.391573" lon="-7.999515">
        <ele>254.379</ele>
        <time>2019-06-22T11:26:44Z</time>
      </trkpt>
      <trkpt lat="42.391405" lon="-7.999371">
        <ele>254.127</ele>
        <time>2019-06-22T11:26:45Z</time>
      </trkpt>
      <trkpt lat="42.391243" lon="-7.999210">
        <ele>254.036</ele>
        <time>2019-06-22T11:26:46Z</time>
      </trkpt>
      <trkpt lat="42.391075" lon="-7.999058">
        <ele>252.421</ele>
        <time>2019-06-22T11:26:47Z</time>
      </trkpt>
      <trkpt lat="42.390899" lon="-7.998911">
        <ele>250.624</ele>
        <time>2019-06-22T11:26:48Z</time>
      </trkpt>
      <trkpt lat="42.390727" lon="-7.998781">
        <ele>248.531</ele>
        <time>2019-06-22T11:26:49Z</time>
      </trkpt>
      <trkpt lat="42.390545" lon="-7.998741">
        <ele>247.261</ele>
        <time>2019-06-22T11:26:50Z</time>
      </trkpt>
      <trkpt lat="42.390344" lon="-7.998667">
        <ele>245.607</ele>
        <time>2019-06-22T11:26:51Z</time>
      </trkpt>
      <trkpt lat="42.390155" lon="-7.998757">
        <ele>244.808</ele>
        <time>2019-06-22T11:26:52Z</time>
      </trkpt>
      <trkpt lat="42.389994" lon="-7.998850">
        <ele>243.696</ele>
        <time>2019-06-22T11:26:53Z</time>
      </trkpt>
      <trkpt lat="42.389821" lon="-7.998972">
        <ele>243.060</ele>
        <time>2019-06-22T11:26:54Z</time>
      </trkpt>
      <trkpt lat="42.389647" lon="-7.999072">
        <ele>241.412</ele>
        <time>2019-06-22T11:26:55Z</time>
      </trkpt>
      <trkpt lat="42.389480" lon="-7.999179">
        <ele>240.764</ele>
        <time>2019-06-22T11:26:56Z</time>
      </trkpt>
      <trkpt lat="42.389319" lon="-7.999278">
        <ele>240.712</ele>
        <time>2019-06-22T11:26:57Z</time>
      </trkpt>
      <trkpt lat="42.389146" lon="-7.999380">
        <ele>240.441</ele>
        <time>2019-06-22T11:26:58Z</time>
      </trkpt>
      <trkpt lat="42.388962" lon="-7.999424">
        <ele>240.846</ele>
        <time>2019-06-22T11:26:59Z</time>
      </trkpt>
      <trkpt lat="42.388782" lon="-7.999440">
        <ele>241.149</ele>
        <time>2019-06-22T11:27:00Z</time>
      </trkpt>
      <trkpt lat="42.388605" lon="-7.999407">
        <ele>241.141</ele>
        <time>2019-06-22T11:27:01Z</time>
      </trkpt>
      <trkpt lat="42.388429" lon="-7.999338">
        <ele>240.681</ele>
        <time>2019-06-22T11:27:02Z</time>
      </trkpt>
      <trkpt lat="42.388252" lon="-7.999227">
        <ele>239.409</ele>
        <time>2019-06-22T11:27:03Z</time>
      </trkpt>
      <trkpt lat="42.388079" lon="-7.999108">
        <ele>238.708</ele>
        <time>2019-06-22T11:27:04Z</time>
      </trkpt>
      <trkpt lat="42.387944" lon="-7.998904">
        <ele>237.787</ele>
        <time>2019-06-22T11:27:05Z</time>
      </trkpt>
      <trkpt lat="42.387790" lon="-7.998716">
        <ele>236.441</ele>
        <time>2019-06-22T11:27:06Z</time>
      </trkpt>
      <trkpt lat="42.387727" lon="-7.998521">
        <ele>234.923</ele>
        <time>2019-06-22T11:27:07Z</time>
      </trkpt>
      <trkpt lat="42.387632" lon="-7.998307">
        <ele>233.455</ele>
        <time>2019-06-22T11:27:08Z</time>
      </trkpt>
      <trkpt lat="42.387553" lon="-7.998127">
        <ele>231.773</ele>
        <time>2019-06-22T11:27:09Z</time>
      </trkpt>
      <trkpt lat="42.387468" lon="-7.997976">
        <ele>230.012</ele>
        <time>2019-06-22T11:27:10Z</time>
      </trkpt>
      <trkpt lat="42.387322" lon="-7.997804">
        <ele>227.597</ele>
        <time>2019-06-22T11:27:11Z</time>
      </trkpt>
      <trkpt lat="42.387072" lon="-7.997623">
        <ele>224.430</ele>
        <time>2019-06-22T11:27:12Z</time>
      </trkpt>
      <trkpt lat="42.386890" lon="-7.997496">
        <ele>221.948</ele>
        <time>2019-06-22T11:27:13Z</time>
      </trkpt>
      <trkpt lat="42.386681" lon="-7.997476">
        <ele>219.461</ele>
        <time>2019-06-22T11:27:14Z</time>
      </trkpt>
      <trkpt lat="42.386488" lon="-7.997589">
        <ele>217.017</ele>
        <time>2019-06-22T11:27:15Z</time>
      </trkpt>
      <trkpt lat="42.386277" lon="-7.997600">
        <ele>215.808</ele>
        <time>2019-06-22T11:27:16Z</time>
      </trkpt>
      <trkpt lat="42.386095" lon="-7.997678">
        <ele>215.667</ele>
        <time>2019-06-22T11:27:17Z</time>
      </trkpt>
      <trkpt lat="42.385889" lon="-7.997692">
        <ele>214.781</ele>
        <time>2019-06-22T11:27:18Z</time>
      </trkpt>
      <trkpt lat="42.385686" lon="-7.997732">
        <ele>214.723</ele>
        <time>2019-06-22T11:27:19Z</time>
      </trkpt>
      <trkpt lat="42.385497" lon="-7.997755">
        <ele>214.475</ele>
        <time>2019-06-22T11:27:20Z</time>
      </trkpt>
      <trkpt lat="42.385322" lon="-7.997805">
        <ele>214.073</ele>
        <time>2019-06-22T11:27:21Z</time>
      </trkpt>
      <trkpt lat="42.385134" lon="-7.997842">
        <ele>213.312</ele>
        <time>2019-06-22T11:27:22Z</time>
      </trkpt>
      <trkpt lat="42.384955" lon="-7.997908">
        <ele>212.527</ele>
        <time>2019-06-22T11:27:23Z</time>
      </trkpt>
      <trkpt lat="42.384766" lon="-7.997946">
        <ele>210.840</ele>
        <time>2019-06-22T11:27:24Z</time>
      </trkpt>
      <trkpt lat="42.384578" lon="-7.997975">
        <ele>208.523</ele>
        <time>2019-06-22T11:27:25Z</time>
      </trkpt>
      <trkpt lat="42.384392" lon="-7.998012">
        <ele>206.383</ele>
        <time>2019-06-22T11:27:26Z</time>
      </trkpt>
      <trkpt lat="42.384210" lon="-7.998109">
        <ele>203.611</ele>
        <time>2019-06-22T11:27:27Z</time>
      </trkpt>
      <trkpt lat="42.384045" lon="-7.998241">
        <ele>201.508</ele>
        <time>2019-06-22T11:27:28Z</time>
      </trkpt>
      <trkpt lat="42.383889" lon="-7.998341">
        <ele>200.435</ele>
        <time>2019-06-22T11:27:29Z</time>
      </trkpt>
      <trkpt lat="42.383725" lon="-7.998428">
        <ele>199.489</ele>
        <time>2019-06-22T11:27:30Z</time>
      </trkpt>
      <trkpt lat="42.383571" lon="-7.998521">
        <ele>199.471</ele>
        <time>2019-06-22T11:27:31Z</time>
      </trkpt>
      <trkpt lat="42.383429" lon="-7.998620">
        <ele>198.963</ele>
        <time>2019-06-22T11:27:32Z</time>
      </trkpt>
      <trkpt lat="42.383242" lon="-7.998696">
        <ele>198.731</ele>
        <time>2019-06-22T11:27:33Z</time>
      </trkpt>
      <trkpt lat="42.383046" lon="-7.998736">
        <ele>198.720</ele>
        <time>2019-06-22T11:27:34Z</time>
      </trkpt>
      <trkpt lat="42.382839" lon="-7.998764">
        <ele>197.615</ele>
        <time>2019-06-22T11:27:35Z</time>
      </trkpt>
      <trkpt lat="42.382629" lon="-7.998783">
        <ele>196.598</ele>
        <time>2019-06-22T11:27:36Z</time>
      </trkpt>
      <trkpt lat="42.382418" lon="-7.998800">
        <ele>195.346</ele>
        <time>2019-06-22T11:27:37Z</time>
      </trkpt>
      <trkpt lat="42.382220" lon="-7.998809">
        <ele>193.988</ele>
        <time>2019-06-22T11:27:38Z</time>
      </trkpt>
      <trkpt lat="42.382019" lon="-7.998827">
        <ele>192.016</ele>
        <time>2019-06-22T11:27:39Z</time>
      </trkpt>
      <trkpt lat="42.381809" lon="-7.998838">
        <ele>190.008</ele>
        <time>2019-06-22T11:27:40Z</time>
      </trkpt>
      <trkpt lat="42.381602" lon="-7.998861">
        <ele>188.037</ele>
        <time>2019-06-22T11:27:41Z</time>
      </trkpt>
      <trkpt lat="42.381394" lon="-7.998890">
        <ele>186.061</ele>
        <time>2019-06-22T11:27:42Z</time>
      </trkpt>
      <trkpt lat="42.381187" lon="-7.998938">
        <ele>184.193</ele>
        <time>2019-06-22T11:27:43Z</time>
      </trkpt>
      <trkpt lat="42.380983" lon="-7.998973">
        <ele>182.595</ele>
        <time>2019-06-22T11:27:44Z</time>
      </trkpt>
      <trkpt lat="42.380784" lon="-7.999036">
        <ele>181.423</ele>
        <time>2019-06-22T11:27:45Z</time>
      </trkpt>
      <trkpt lat="42.380586" lon="-7.999121">
        <ele>181.272</ele>
        <time>2019-06-22T11:27:46Z</time>
      </trkpt>
      <trkpt lat="42.380388" lon="-7.999210">
        <ele>180.487</ele>
        <time>2019-06-22T11:27:47Z</time>
      </trkpt>
      <trkpt lat="42.380187" lon="-7.999321">
        <ele>179.970</ele>
        <time>2019-06-22T11:27:48Z</time>
      </trkpt>
      <trkpt lat="42.379998" lon="-7.999429">
        <ele>178.855</ele>
        <time>2019-06-22T11:27:49Z</time>
      </trkpt>
      <trkpt lat="42.379805" lon="-7.999543">
        <ele>177.407</ele>
        <time>2019-06-22T11:27:50Z</time>
      </trkpt>
      <trkpt lat="42.379605" lon="-7.999638">
        <ele>175.517</ele>
        <time>2019-06-22T11:27:51Z</time>
      </trkpt>
      <trkpt lat="42.379423" lon="-7.999732">
        <ele>173.808</ele>
        <time>2019-06-22T11:27:52Z</time>
      </trkpt>
      <trkpt lat="42.379203" lon="-7.999794">
        <ele>172.598</ele>
        <time>2019-06-22T11:27:53Z</time>
      </trkpt>
      <trkpt lat="42.378976" lon="-7.999848">
        <ele>171.782</ele>
        <time>2019-06-22T11:27:54Z</time>
      </trkpt>
      <trkpt lat="42.378755" lon="-7.999900">
        <ele>171.074</ele>
        <time>2019-06-22T11:27:55Z</time>
      </trkpt>
      <trkpt lat="42.378520" lon="-7.999932">
        <ele>169.936</ele>
        <time>2019-06-22T11:27:56Z</time>
      </trkpt>
      <trkpt lat="42.378292" lon="-7.999968">
        <ele>168.874</ele>
        <time>2019-06-22T11:27:57Z</time>
      </trkpt>
      <trkpt lat="42.378072" lon="-8.000002">
        <ele>164.643</ele>
        <time>2019-06-22T11:27:58Z</time>
      </trkpt>
      <trkpt lat="42.377861" lon="-8.000067">
        <ele>160.798</ele>
        <time>2019-06-22T11:27:59Z</time>
      </trkpt>
      <trkpt lat="42.377662" lon="-8.000153">
        <ele>157.641</ele>
        <time>2019-06-22T11:28:00Z</time>
      </trkpt>
      <trkpt lat="42.377475" lon="-8.000268">
        <ele>155.856</ele>
        <time>2019-06-22T11:28:01Z</time>
      </trkpt>
      <trkpt lat="42.377280" lon="-8.000394">
        <ele>155.859</ele>
        <time>2019-06-22T11:28:02Z</time>
      </trkpt>
      <trkpt lat="42.377079" lon="-8.000519">
        <ele>156.314</ele>
        <time>2019-06-22T11:28:03Z</time>
      </trkpt>
      <trkpt lat="42.376900" lon="-8.000640">
        <ele>158.308</ele>
        <time>2019-06-22T11:28:04Z</time>
      </trkpt>
      <trkpt lat="42.376720" lon="-8.000746">
        <ele>160.478</ele>
        <time>2019-06-22T11:28:05Z</time>
      </trkpt>
      <trkpt lat="42.376534" lon="-8.000813">
        <ele>162.242</ele>
        <time>2019-06-22T11:28:06Z</time>
      </trkpt>
      <trkpt lat="42.376336" lon="-8.000881">
        <ele>163.564</ele>
        <time>2019-06-22T11:28:07Z</time>
      </trkpt>
      <trkpt lat="42.376146" lon="-8.000885">
        <ele>164.356</ele>
        <time>2019-06-22T11:28:08Z</time>
      </trkpt>
      <trkpt lat="42.375950" lon="-8.000864">
        <ele>164.334</ele>
        <time>2019-06-22T11:28:09Z</time>
      </trkpt>
      <trkpt lat="42.375758" lon="-8.000862">
        <ele>164.263</ele>
        <time>2019-06-22T11:28:10Z</time>
      </trkpt>
      <trkpt lat="42.375595" lon="-8.000837">
        <ele>163.638</ele>
        <time>2019-06-22T11:28:11Z</time>
      </trkpt>
      <trkpt lat="42.375412" lon="-8.000815">
        <ele>163.121</ele>
        <time>2019-06-22T11:28:12Z</time>
      </trkpt>
      <trkpt lat="42.375235" lon="-8.000816">
        <ele>162.834</ele>
        <time>2019-06-22T11:28:13Z</time>
      </trkpt>
      <trkpt lat="42.375058" lon="-8.000837">
        <ele>162.555</ele>
        <time>2019-06-22T11:28:14Z</time>
      </trkpt>
      <trkpt lat="42.374872" lon="-8.000854">
        <ele>162.510</ele>
        <time>2019-06-22T11:28:15Z</time>
      </trkpt>
      <trkpt lat="42.374689" lon="-8.000856">
        <ele>162.508</ele>
        <time>2019-06-22T11:28:16Z</time>
      </trkpt>
      <trkpt lat="42.374514" lon="-8.000863">
        <ele>162.086</ele>
        <time>2019-06-22T11:28:17Z</time>
      </trkpt>
      <trkpt lat="42.374333" lon="-8.000868">
        <ele>161.350</ele>
        <time>2019-06-22T11:28:18Z</time>
      </trkpt>
      <trkpt lat="42.374158" lon="-8.000876">
        <ele>160.232</ele>
        <time>2019-06-22T11:28:19Z</time>
      </trkpt>
      <trkpt lat="42.373986" lon="-8.000882">
        <ele>159.474</ele>
        <time>2019-06-22T11:28:20Z</time>
      </trkpt>
      <trkpt lat="42.373825" lon="-8.000892">
        <ele>158.782</ele>
        <time>2019-06-22T11:28:21Z</time>
      </trkpt>
      <trkpt lat="42.373663" lon="-8.000904">
        <ele>157.671</ele>
        <time>2019-06-22T11:28:22Z</time>
      </trkpt>
      <trkpt lat="42.373504" lon="-8.000900">
        <ele>156.876</ele>
        <time>2019-06-22T11:28:23Z</time>
      </trkpt>
      <trkpt lat="42.373342" lon="-8.000914">
        <ele>156.519</ele>
        <time>2019-06-22T11:28:24Z</time>
      </trkpt>
      <trkpt lat="42.373183" lon="-8.000910">
        <ele>155.968</ele>
        <time>2019-06-22T11:28:25Z</time>
      </trkpt>
      <trkpt lat="42.373018" lon="-8.000912">
        <ele>155.042</ele>
        <time>2019-06-22T11:28:26Z</time>
      </trkpt>
      <trkpt lat="42.372849" lon="-8.000902">
        <ele>154.226</ele>
        <time>2019-06-22T11:28:27Z</time>
      </trkpt>
      <trkpt lat="42.372695" lon="-8.000903">
        <ele>154.208</ele>
        <time>2019-06-22T11:28:28Z</time>
      </trkpt>
      <trkpt lat="42.372542" lon="-8.000900">
        <ele>153.279</ele>
        <time>2019-06-22T11:28:29Z</time>
      </trkpt>
      <trkpt lat="42.372400" lon="-8.000905">
        <ele>152.813</ele>
        <time>2019-06-22T11:28:30Z</time>
      </trkpt>
      <trkpt lat="42.372251" lon="-8.000908">
        <ele>152.865</ele>
        <time>2019-06-22T11:28:31Z</time>
      </trkpt>
      <trkpt lat="42.372098" lon="-8.000907">
        <ele>152.277</ele>
        <time>2019-06-22T11:28:32Z</time>
      </trkpt>
      <trkpt lat="42.371939" lon="-8.000918">
        <ele>151.765</ele>
        <time>2019-06-22T11:28:33Z</time>
      </trkpt>
      <trkpt lat="42.371780" lon="-8.000923">
        <ele>151.124</ele>
        <time>2019-06-22T11:28:34Z</time>
      </trkpt>
      <trkpt lat="42.371605" lon="-8.000920">
        <ele>150.559</ele>
        <time>2019-06-22T11:28:35Z</time>
      </trkpt>
      <trkpt lat="42.371426" lon="-8.000907">
        <ele>149.652</ele>
        <time>2019-06-22T11:28:36Z</time>
      </trkpt>
      <trkpt lat="42.371245" lon="-8.000890">
        <ele>148.665</ele>
        <time>2019-06-22T11:28:37Z</time>
      </trkpt>
      <trkpt lat="42.371053" lon="-8.000852">
        <ele>147.268</ele>
        <time>2019-06-22T11:28:38Z</time>
      </trkpt>
      <trkpt lat="42.370880" lon="-8.000800">
        <ele>146.214</ele>
        <time>2019-06-22T11:28:39Z</time>
      </trkpt>
      <trkpt lat="42.370688" lon="-8.000749">
        <ele>144.808</ele>
        <time>2019-06-22T11:28:40Z</time>
      </trkpt>
      <trkpt lat="42.370491" lon="-8.000692">
        <ele>143.249</ele>
        <time>2019-06-22T11:28:41Z</time>
      </trkpt>
      <trkpt lat="42.370305" lon="-8.000643">
        <ele>141.973</ele>
        <time>2019-06-22T11:28:42Z</time>
      </trkpt>
      <trkpt lat="42.370112" lon="-8.000604">
        <ele>140.275</ele>
        <time>2019-06-22T11:28:43Z</time>
      </trkpt>
      <trkpt lat="42.369927" lon="-8.000559">
        <ele>139.097</ele>
        <time>2019-06-22T11:28:44Z</time>
      </trkpt>
      <trkpt lat="42.369744" lon="-8.000514">
        <ele>137.585</ele>
        <time>2019-06-22T11:28:45Z</time>
      </trkpt>
      <trkpt lat="42.369580" lon="-8.000465">
        <ele>136.834</ele>
        <time>2019-06-22T11:28:46Z</time>
      </trkpt>
      <trkpt lat="42.369429" lon="-8.000415">
        <ele>136.819</ele>
        <time>2019-06-22T11:28:47Z</time>
      </trkpt>
      <trkpt lat="42.369269" lon="-8.000367">
        <ele>136.452</ele>
        <time>2019-06-22T11:28:48Z</time>
      </trkpt>
      <trkpt lat="42.369109" lon="-8.000339">
        <ele>136.452</ele>
        <time>2019-06-22T11:28:49Z</time>
      </trkpt>
      <trkpt lat="42.368959" lon="-8.000310">
        <ele>135.653</ele>
        <time>2019-06-22T11:28:50Z</time>
      </trkpt>
      <trkpt lat="42.368798" lon="-8.000348">
        <ele>134.608</ele>
        <time>2019-06-22T11:28:51Z</time>
      </trkpt>
      <trkpt lat="42.368639" lon="-8.000411">
        <ele>133.708</ele>
        <time>2019-06-22T11:28:52Z</time>
      </trkpt>
      <trkpt lat="42.368470" lon="-8.000491">
        <ele>132.568</ele>
        <time>2019-06-22T11:28:53Z</time>
      </trkpt>
      <trkpt lat="42.368303" lon="-8.000607">
        <ele>131.212</ele>
        <time>2019-06-22T11:28:54Z</time>
      </trkpt>
      <trkpt lat="42.368139" lon="-8.000721">
        <ele>131.234</ele>
        <time>2019-06-22T11:28:55Z</time>
      </trkpt>
      <trkpt lat="42.367994" lon="-8.000839">
        <ele>131.326</ele>
        <time>2019-06-22T11:28:56Z</time>
      </trkpt>
      <trkpt lat="42.367827" lon="-8.000934">
        <ele>131.334</ele>
        <time>2019-06-22T11:28:57Z</time>
      </trkpt>
      <trkpt lat="42.367644" lon="-8.000989">
        <ele>131.493</ele>
        <time>2019-06-22T11:28:58Z</time>
      </trkpt>
      <trkpt lat="42.367452" lon="-8.001017">
        <ele>131.998</ele>
        <time>2019-06-22T11:28:59Z</time>
      </trkpt>
      <trkpt lat="42.367254" lon="-8.001009">
        <ele>131.971</ele>
        <time>2019-06-22T11:29:00Z</time>
      </trkpt>
      <trkpt lat="42.367059" lon="-8.000987">
        <ele>131.822</ele>
        <time>2019-06-22T11:29:01Z</time>
      </trkpt>
      <trkpt lat="42.366863" lon="-8.000958">
        <ele>130.862</ele>
        <time>2019-06-22T11:29:02Z</time>
      </trkpt>
      <trkpt lat="42.366663" lon="-8.000958">
        <ele>129.908</ele>
        <time>2019-06-22T11:29:03Z</time>
      </trkpt>
      <trkpt lat="42.366471" lon="-8.000993">
        <ele>128.908</ele>
        <time>2019-06-22T11:29:04Z</time>
      </trkpt>
      <trkpt lat="42.366278" lon="-8.001045">
        <ele>127.425</ele>
        <time>2019-06-22T11:29:05Z</time>
      </trkpt>
      <trkpt lat="42.366108" lon="-8.001154">
        <ele>125.569</ele>
        <time>2019-06-22T11:29:06Z</time>
      </trkpt>
      <trkpt lat="42.365926" lon="-8.001265">
        <ele>124.321</ele>
        <time>2019-06-22T11:29:07Z</time>
      </trkpt>
      <trkpt lat="42.365768" lon="-8.001407">
        <ele>123.483</ele>
        <time>2019-06-22T11:29:08Z</time>
      </trkpt>
      <trkpt lat="42.365613" lon="-8.001546">
        <ele>122.061</ele>
        <time>2019-06-22T11:29:09Z</time>
      </trkpt>
      <trkpt lat="42.365436" lon="-8.001675">
        <ele>121.880</ele>
        <time>2019-06-22T11:29:10Z</time>
      </trkpt>
      <trkpt lat="42.365239" lon="-8.001761">
        <ele>121.635</ele>
        <time>2019-06-22T11:29:11Z</time>
      </trkpt>
      <trkpt lat="42.365037" lon="-8.001823">
        <ele>121.518</ele>
        <time>2019-06-22T11:29:12Z</time>
      </trkpt>
      <trkpt lat="42.364818" lon="-8.001852">
        <ele>121.038</ele>
        <time>2019-06-22T11:29:13Z</time>
      </trkpt>
      <trkpt lat="42.364598" lon="-8.001864">
        <ele>120.870</ele>
        <time>2019-06-22T11:29:14Z</time>
      </trkpt>
      <trkpt lat="42.364371" lon="-8.001861">
        <ele>120.317</ele>
        <time>2019-06-22T11:29:15Z</time>
      </trkpt>
      <trkpt lat="42.364145" lon="-8.001858">
        <ele>119.608</ele>
        <time>2019-06-22T11:29:16Z</time>
      </trkpt>
      <trkpt lat="42.363921" lon="-8.001845">
        <ele>118.976</ele>
        <time>2019-06-22T11:29:17Z</time>
      </trkpt>
      <trkpt lat="42.363699" lon="-8.001838">
        <ele>118.360</ele>
        <time>2019-06-22T11:29:18Z</time>
      </trkpt>
      <trkpt lat="42.363481" lon="-8.001832">
        <ele>117.982</ele>
        <time>2019-06-22T11:29:19Z</time>
      </trkpt>
      <trkpt lat="42.363271" lon="-8.001811">
        <ele>117.124</ele>
        <time>2019-06-22T11:29:20Z</time>
      </trkpt>
      <trkpt lat="42.363065" lon="-8.001795">
        <ele>116.362</ele>
        <time>2019-06-22T11:29:21Z</time>
      </trkpt>
      <trkpt lat="42.362890" lon="-8.001795">
        <ele>114.811</ele>
        <time>2019-06-22T11:29:22Z</time>
      </trkpt>
      <trkpt lat="42.362717" lon="-8.001801">
        <ele>113.456</ele>
        <time>2019-06-22T11:29:23Z</time>
      </trkpt>
      <trkpt lat="42.362548" lon="-8.001845">
        <ele>113.159</ele>
        <time>2019-06-22T11:29:24Z</time>
      </trkpt>
      <trkpt lat="42.362390" lon="-8.001916">
        <ele>113.069</ele>
        <time>2019-06-22T11:29:25Z</time>
      </trkpt>
      <trkpt lat="42.362249" lon="-8.002035">
        <ele>113.104</ele>
        <time>2019-06-22T11:29:26Z</time>
      </trkpt>
      <trkpt lat="42.362101" lon="-8.002169">
        <ele>113.724</ele>
        <time>2019-06-22T11:29:27Z</time>
      </trkpt>
      <trkpt lat="42.361956" lon="-8.002335">
        <ele>114.508</ele>
        <time>2019-06-22T11:29:28Z</time>
      </trkpt>
      <trkpt lat="42.361816" lon="-8.002525">
        <ele>114.549</ele>
        <time>2019-06-22T11:29:29Z</time>
      </trkpt>
      <trkpt lat="42.361675" lon="-8.002725">
        <ele>114.553</ele>
        <time>2019-06-22T11:29:30Z</time>
      </trkpt>
      <trkpt lat="42.361522" lon="-8.002902">
        <ele>114.575</ele>
        <time>2019-06-22T11:29:31Z</time>
      </trkpt>
      <trkpt lat="42.361364" lon="-8.003081">
        <ele>115.257</ele>
        <time>2019-06-22T11:29:32Z</time>
      </trkpt>
      <trkpt lat="42.361190" lon="-8.003244">
        <ele>115.315</ele>
        <time>2019-06-22T11:29:33Z</time>
      </trkpt>
      <trkpt lat="42.361019" lon="-8.003418">
        <ele>115.334</ele>
        <time>2019-06-22T11:29:34Z</time>
      </trkpt>
      <trkpt lat="42.360814" lon="-8.003561">
        <ele>115.569</ele>
        <time>2019-06-22T11:29:35Z</time>
      </trkpt>
      <trkpt lat="42.360613" lon="-8.003683">
        <ele>115.562</ele>
        <time>2019-06-22T11:29:36Z</time>
      </trkpt>
      <trkpt lat="42.360407" lon="-8.003800">
        <ele>115.673</ele>
        <time>2019-06-22T11:29:37Z</time>
      </trkpt>
      <trkpt lat="42.360210" lon="-8.003912">
        <ele>115.685</ele>
        <time>2019-06-22T11:29:38Z</time>
      </trkpt>
      <trkpt lat="42.360010" lon="-8.004019">
        <ele>115.713</ele>
        <time>2019-06-22T11:29:39Z</time>
      </trkpt>
      <trkpt lat="42.359814" lon="-8.004126">
        <ele>115.708</ele>
        <time>2019-06-22T11:29:40Z</time>
      </trkpt>
      <trkpt lat="42.359624" lon="-8.004232">
        <ele>115.680</ele>
        <time>2019-06-22T11:29:41Z</time>
      </trkpt>
      <trkpt lat="42.359428" lon="-8.004334">
        <ele>115.474</ele>
        <time>2019-06-22T11:29:42Z</time>
      </trkpt>
      <trkpt lat="42.359238" lon="-8.004452">
        <ele>115.326</ele>
        <time>2019-06-22T11:29:43Z</time>
      </trkpt>
      <trkpt lat="42.359048" lon="-8.004573">
        <ele>115.128</ele>
        <time>2019-06-22T11:29:44Z</time>
      </trkpt>
      <trkpt lat="42.358870" lon="-8.004701">
        <ele>115.196</ele>
        <time>2019-06-22T11:29:45Z</time>
      </trkpt>
      <trkpt lat="42.358708" lon="-8.004835">
        <ele>114.755</ele>
        <time>2019-06-22T11:29:46Z</time>
      </trkpt>
      <trkpt lat="42.358545" lon="-8.004955">
        <ele>113.790</ele>
        <time>2019-06-22T11:29:47Z</time>
      </trkpt>
      <trkpt lat="42.358389" lon="-8.005073">
        <ele>112.353</ele>
        <time>2019-06-22T11:29:48Z</time>
      </trkpt>
      <trkpt lat="42.358234" lon="-8.005185">
        <ele>111.287</ele>
        <time>2019-06-22T11:29:49Z</time>
      </trkpt>
      <trkpt lat="42.358060" lon="-8.005272">
        <ele>111.042</ele>
        <time>2019-06-22T11:29:50Z</time>
      </trkpt>
      <trkpt lat="42.357880" lon="-8.005327">
        <ele>111.026</ele>
        <time>2019-06-22T11:29:51Z</time>
      </trkpt>
      <trkpt lat="42.357697" lon="-8.005374">
        <ele>111.108</ele>
        <time>2019-06-22T11:29:52Z</time>
      </trkpt>
      <trkpt lat="42.357510" lon="-8.005393">
        <ele>111.771</ele>
        <time>2019-06-22T11:29:53Z</time>
      </trkpt>
      <trkpt lat="42.357322" lon="-8.005391">
        <ele>112.645</ele>
        <time>2019-06-22T11:29:54Z</time>
      </trkpt>
      <trkpt lat="42.357136" lon="-8.005370">
        <ele>112.687</ele>
        <time>2019-06-22T11:29:55Z</time>
      </trkpt>
      <trkpt lat="42.356936" lon="-8.005342">
        <ele>112.629</ele>
        <time>2019-06-22T11:29:56Z</time>
      </trkpt>
      <trkpt lat="42.356738" lon="-8.005316">
        <ele>112.387</ele>
        <time>2019-06-22T11:29:57Z</time>
      </trkpt>
      <trkpt lat="42.356531" lon="-8.005310">
        <ele>111.866</ele>
        <time>2019-06-22T11:29:58Z</time>
      </trkpt>
      <trkpt lat="42.356316" lon="-8.005310">
        <ele>111.331</ele>
        <time>2019-06-22T11:29:59Z</time>
      </trkpt>
      <trkpt lat="42.356097" lon="-8.005315">
        <ele>110.824</ele>
        <time>2019-06-22T11:30:00Z</time>
      </trkpt>
      <trkpt lat="42.355884" lon="-8.005323">
        <ele>110.864</ele>
        <time>2019-06-22T11:30:01Z</time>
      </trkpt>
      <trkpt lat="42.355671" lon="-8.005330">
        <ele>110.806</ele>
        <time>2019-06-22T11:30:02Z</time>
      </trkpt>
      <trkpt lat="42.355461" lon="-8.005337">
        <ele>110.816</ele>
        <time>2019-06-22T11:30:03Z</time>
      </trkpt>
      <trkpt lat="42.355248" lon="-8.005344">
        <ele>111.008</ele>
        <time>2019-06-22T11:30:04Z</time>
      </trkpt>
      <trkpt lat="42.355037" lon="-8.005355">
        <ele>111.179</ele>
        <time>2019-06-22T11:30:05Z</time>
      </trkpt>
      <trkpt lat="42.354829" lon="-8.005349">
        <ele>111.143</ele>
        <time>2019-06-22T11:30:06Z</time>
      </trkpt>
      <trkpt lat="42.354621" lon="-8.005360">
        <ele>110.555</ele>
        <time>2019-06-22T11:30:07Z</time>
      </trkpt>
      <trkpt lat="42.354413" lon="-8.005373">
        <ele>110.437</ele>
        <time>2019-06-22T11:30:08Z</time>
      </trkpt>
      <trkpt lat="42.354206" lon="-8.005361">
        <ele>109.825</ele>
        <time>2019-06-22T11:30:09Z</time>
      </trkpt>
      <trkpt lat="42.353997" lon="-8.005363">
        <ele>109.164</ele>
        <time>2019-06-22T11:30:10Z</time>
      </trkpt>
      <trkpt lat="42.353798" lon="-8.005362">
        <ele>109.029</ele>
        <time>2019-06-22T11:30:11Z</time>
      </trkpt>
      <trkpt lat="42.353600" lon="-8.005364">
        <ele>109.032</ele>
        <time>2019-06-22T11:30:12Z</time>
      </trkpt>
      <trkpt lat="42.353404" lon="-8.005365">
        <ele>108.529</ele>
        <time>2019-06-22T11:30:13Z</time>
      </trkpt>
      <trkpt lat="42.353216" lon="-8.005373">
        <ele>108.100</ele>
        <time>2019-06-22T11:30:14Z</time>
      </trkpt>
      <trkpt lat="42.353044" lon="-8.005396">
        <ele>107.120</ele>
        <time>2019-06-22T11:30:15Z</time>
      </trkpt>
      <trkpt lat="42.352860" lon="-8.005406">
        <ele>106.308</ele>
        <time>2019-06-22T11:30:16Z</time>
      </trkpt>
      <trkpt lat="42.352678" lon="-8.005417">
        <ele>105.655</ele>
        <time>2019-06-22T11:30:17Z</time>
      </trkpt>
      <trkpt lat="42.352500" lon="-8.005415">
        <ele>105.669</ele>
        <time>2019-06-22T11:30:18Z</time>
      </trkpt>
      <trkpt lat="42.352321" lon="-8.005415">
        <ele>105.611</ele>
        <time>2019-06-22T11:30:19Z</time>
      </trkpt>
      <trkpt lat="42.352130" lon="-8.005419">
        <ele>105.883</ele>
        <time>2019-06-22T11:30:20Z</time>
      </trkpt>
      <trkpt lat="42.351949" lon="-8.005424">
        <ele>106.111</ele>
        <time>2019-06-22T11:30:21Z</time>
      </trkpt>
      <trkpt lat="42.351778" lon="-8.005425">
        <ele>106.190</ele>
        <time>2019-06-22T11:30:22Z</time>
      </trkpt>
      <trkpt lat="42.351598" lon="-8.005399">
        <ele>105.265</ele>
        <time>2019-06-22T11:30:23Z</time>
      </trkpt>
      <trkpt lat="42.351440" lon="-8.005349">
        <ele>104.988</ele>
        <time>2019-06-22T11:30:24Z</time>
      </trkpt>
      <trkpt lat="42.351269" lon="-8.005292">
        <ele>104.624</ele>
        <time>2019-06-22T11:30:25Z</time>
      </trkpt>
      <trkpt lat="42.351114" lon="-8.005201">
        <ele>103.804</ele>
        <time>2019-06-22T11:30:26Z</time>
      </trkpt>
      <trkpt lat="42.350963" lon="-8.005103">
        <ele>103.114</ele>
        <time>2019-06-22T11:30:27Z</time>
      </trkpt>
      <trkpt lat="42.350836" lon="-8.004976">
        <ele>102.908</ele>
        <time>2019-06-22T11:30:28Z</time>
      </trkpt>
      <trkpt lat="42.350703" lon="-8.004814">
        <ele>102.185</ele>
        <time>2019-06-22T11:30:29Z</time>
      </trkpt>
      <trkpt lat="42.350569" lon="-8.004651">
        <ele>101.359</ele>
        <time>2019-06-22T11:30:30Z</time>
      </trkpt>
      <trkpt lat="42.350471" lon="-8.004473">
        <ele>101.391</ele>
        <time>2019-06-22T11:30:31Z</time>
      </trkpt>
      <trkpt lat="42.350358" lon="-8.004296">
        <ele>100.463</ele>
        <time>2019-06-22T11:30:32Z</time>
      </trkpt>
      <trkpt lat="42.350252" lon="-8.004115">
        <ele>99.261</ele>
        <time>2019-06-22T11:30:33Z</time>
      </trkpt>
      <trkpt lat="42.350163" lon="-8.003958">
        <ele>97.660</ele>
        <time>2019-06-22T11:30:34Z</time>
      </trkpt>
      <trkpt lat="42.350055" lon="-8.003791">
        <ele>96.555</ele>
        <time>2019-06-22T11:30:35Z</time>
      </trkpt>
      <trkpt lat="42.349950" lon="-8.003618">
        <ele>94.998</ele>
        <time>2019-06-22T11:30:36Z</time>
      </trkpt>
      <trkpt lat="42.349842" lon="-8.003443">
        <ele>93.727</ele>
        <time>2019-06-22T11:30:37Z</time>
      </trkpt>
      <trkpt lat="42.349753" lon="-8.003300">
        <ele>93.168</ele>
        <time>2019-06-22T11:30:38Z</time>
      </trkpt>
      <trkpt lat="42.349665" lon="-8.003139">
        <ele>92.414</ele>
        <time>2019-06-22T11:30:39Z</time>
      </trkpt>
      <trkpt lat="42.349584" lon="-8.003000">
        <ele>91.308</ele>
        <time>2019-06-22T11:30:40Z</time>
      </trkpt>
      <trkpt lat="42.349501" lon="-8.002866">
        <ele>90.625</ele>
        <time>2019-06-22T11:30:41Z</time>
      </trkpt>
      <trkpt lat="42.349416" lon="-8.002726">
        <ele>89.859</ele>
        <time>2019-06-22T11:30:42Z</time>
      </trkpt>
      <trkpt lat="42.349289" lon="-8.002705">
        <ele>89.061</ele>
        <time>2019-06-22T11:30:43Z</time>
      </trkpt>
      <trkpt lat="42.349194" lon="-8.002695">
        <ele>88.463</ele>
        <time>2019-06-22T11:30:44Z</time>
      </trkpt>
      <trkpt lat="42.349090" lon="-8.002710">
        <ele>88.421</ele>
        <time>2019-06-22T11:30:45Z</time>
      </trkpt>
      <trkpt lat="42.348989" lon="-8.002737">
        <ele>88.810</ele>
        <time>2019-06-22T11:30:46Z</time>
      </trkpt>
      <trkpt lat="42.348927" lon="-8.002826">
        <ele>89.415</ele>
        <time>2019-06-22T11:30:47Z</time>
      </trkpt>
      <trkpt lat="42.348863" lon="-8.002939">
        <ele>90.038</ele>
        <time>2019-06-22T11:30:48Z</time>
      </trkpt>
      <trkpt lat="42.348833" lon="-8.003077">
        <ele>90.784</ele>
        <time>2019-06-22T11:30:49Z</time>
      </trkpt>
      <trkpt lat="42.348822" lon="-8.003198">
        <ele>91.307</ele>
        <time>2019-06-22T11:30:50Z</time>
      </trkpt>
      <trkpt lat="42.348839" lon="-8.003299">
        <ele>91.617</ele>
        <time>2019-06-22T11:30:51Z</time>
      </trkpt>
      <trkpt lat="42.348885" lon="-8.003402">
        <ele>92.108</ele>
        <time>2019-06-22T11:30:52Z</time>
      </trkpt>
      <trkpt lat="42.348932" lon="-8.003460">
        <ele>92.551</ele>
        <time>2019-06-22T11:30:53Z</time>
      </trkpt>
      <trkpt lat="42.349001" lon="-8.003501">
        <ele>93.135</ele>
        <time>2019-06-22T11:30:54Z</time>
      </trkpt>
      <trkpt lat="42.349067" lon="-8.003495">
        <ele>93.567</ele>
        <time>2019-06-22T11:30:55Z</time>
      </trkpt>
      <trkpt lat="42.349147" lon="-8.003474">
        <ele>94.169</ele>
        <time>2019-06-22T11:30:56Z</time>
      </trkpt>
      <trkpt lat="42.349216" lon="-8.003410">
        <ele>94.767</ele>
        <time>2019-06-22T11:30:57Z</time>
      </trkpt>
      <trkpt lat="42.349285" lon="-8.003321">
        <ele>95.216</ele>
        <time>2019-06-22T11:30:58Z</time>
      </trkpt>
      <trkpt lat="42.349360" lon="-8.003213">
        <ele>95.671</ele>
        <time>2019-06-22T11:30:59Z</time>
      </trkpt>
      <trkpt lat="42.349420" lon="-8.003061">
        <ele>95.864</ele>
        <time>2019-06-22T11:31:00Z</time>
      </trkpt>
      <trkpt lat="42.349501" lon="-8.002889">
        <ele>95.994</ele>
        <time>2019-06-22T11:31:01Z</time>
      </trkpt>
      <trkpt lat="42.349575" lon="-8.002707">
        <ele>95.957</ele>
        <time>2019-06-22T11:31:02Z</time>
      </trkpt>
      <trkpt lat="42.349653" lon="-8.002509">
        <ele>95.922</ele>
        <time>2019-06-22T11:31:03Z</time>
      </trkpt>
      <trkpt lat="42.349722" lon="-8.002307">
        <ele>95.408</ele>
        <time>2019-06-22T11:31:04Z</time>
      </trkpt>
      <trkpt lat="42.349765" lon="-8.002094">
        <ele>95.392</ele>
        <time>2019-06-22T11:31:05Z</time>
      </trkpt>
      <trkpt lat="42.349807" lon="-8.001860">
        <ele>95.356</ele>
        <time>2019-06-22T11:31:06Z</time>
      </trkpt>
      <trkpt lat="42.349831" lon="-8.001612">
        <ele>95.458</ele>
        <time>2019-06-22T11:31:07Z</time>
      </trkpt>
      <trkpt lat="42.349833" lon="-8.001348">
        <ele>95.470</ele>
        <time>2019-06-22T11:31:08Z</time>
      </trkpt>
      <trkpt lat="42.349823" lon="-8.001086">
        <ele>95.958</ele>
        <time>2019-06-22T11:31:09Z</time>
      </trkpt>
      <trkpt lat="42.349787" lon="-8.000830">
        <ele>96.687</ele>
        <time>2019-06-22T11:31:10Z</time>
      </trkpt>
      <trkpt lat="42.349763" lon="-8.000561">
        <ele>97.612</ele>
        <time>2019-06-22T11:31:11Z</time>
      </trkpt>
      <trkpt lat="42.349729" lon="-8.000300">
        <ele>99.255</ele>
        <time>2019-06-22T11:31:12Z</time>
      </trkpt>
      <trkpt lat="42.349689" lon="-8.000030">
        <ele>101.194</ele>
        <time>2019-06-22T11:31:13Z</time>
      </trkpt>
      <trkpt lat="42.349645" lon="-7.999762">
        <ele>103.057</ele>
        <time>2019-06-22T11:31:14Z</time>
      </trkpt>
      <trkpt lat="42.349616" lon="-7.999517">
        <ele>105.022</ele>
        <time>2019-06-22T11:31:15Z</time>
      </trkpt>
      <trkpt lat="42.349576" lon="-7.999262">
        <ele>106.108</ele>
        <time>2019-06-22T11:31:16Z</time>
      </trkpt>
      <trkpt lat="42.349557" lon="-7.999002">
        <ele>106.262</ele>
        <time>2019-06-22T11:31:17Z</time>
      </trkpt>
      <trkpt lat="42.349534" lon="-7.998744">
        <ele>107.146</ele>
        <time>2019-06-22T11:31:18Z</time>
      </trkpt>
      <trkpt lat="42.349511" lon="-7.998487">
        <ele>108.038</ele>
        <time>2019-06-22T11:31:19Z</time>
      </trkpt>
      <trkpt lat="42.349475" lon="-7.998237">
        <ele>108.970</ele>
        <time>2019-06-22T11:31:20Z</time>
      </trkpt>
      <trkpt lat="42.349450" lon="-7.997988">
        <ele>109.948</ele>
        <time>2019-06-22T11:31:21Z</time>
      </trkpt>
      <trkpt lat="42.349406" lon="-7.997737">
        <ele>111.397</ele>
        <time>2019-06-22T11:31:22Z</time>
      </trkpt>
      <trkpt lat="42.349366" lon="-7.997483">
        <ele>111.912</ele>
        <time>2019-06-22T11:31:23Z</time>
      </trkpt>
      <trkpt lat="42.349323" lon="-7.997238">
        <ele>112.115</ele>
        <time>2019-06-22T11:31:24Z</time>
      </trkpt>
      <trkpt lat="42.349286" lon="-7.996990">
        <ele>112.454</ele>
        <time>2019-06-22T11:31:25Z</time>
      </trkpt>
      <trkpt lat="42.349248" lon="-7.996750">
        <ele>112.656</ele>
        <time>2019-06-22T11:31:26Z</time>
      </trkpt>
      <trkpt lat="42.349166" lon="-7.996503">
        <ele>113.411</ele>
        <time>2019-06-22T11:31:27Z</time>
      </trkpt>
      <trkpt lat="42.349117" lon="-7.996237">
        <ele>114.108</ele>
        <time>2019-06-22T11:31:28Z</time>
      </trkpt>
      <trkpt lat="42.349058" lon="-7.995979">
        <ele>114.178</ele>
        <time>2019-06-22T11:31:29Z</time>
      </trkpt>
      <trkpt lat="42.348966" lon="-7.995753">
        <ele>113.252</ele>
        <time>2019-06-22T11:31:30Z</time>
      </trkpt>
      <trkpt lat="42.348876" lon="-7.995498">
        <ele>113.234</ele>
        <time>2019-06-22T11:31:31Z</time>
      </trkpt>
      <trkpt lat="42.348806" lon="-7.995244">
        <ele>112.746</ele>
        <time>2019-06-22T11:31:32Z</time>
      </trkpt>
      <trkpt lat="42.348723" lon="-7.995000">
        <ele>112.014</ele>
        <time>2019-06-22T11:31:33Z</time>
      </trkpt>
      <trkpt lat="42.348649" lon="-7.994760">
        <ele>111.233</ele>
        <time>2019-06-22T11:31:34Z</time>
      </trkpt>
      <trkpt lat="42.348574" lon="-7.994517">
        <ele>111.278</ele>
        <time>2019-06-22T11:31:35Z</time>
      </trkpt>
      <trkpt lat="42.348506" lon="-7.994293">
        <ele>111.961</ele>
        <time>2019-06-22T11:31:36Z</time>
      </trkpt>
      <trkpt lat="42.348423" lon="-7.994047">
        <ele>113.122</ele>
        <time>2019-06-22T11:31:37Z</time>
      </trkpt>
      <trkpt lat="42.348344" lon="-7.993804">
        <ele>114.162</ele>
        <time>2019-06-22T11:31:38Z</time>
      </trkpt>
      <trkpt lat="42.348262" lon="-7.993534">
        <ele>115.608</ele>
        <time>2019-06-22T11:31:39Z</time>
      </trkpt>
      <trkpt lat="42.348178" lon="-7.993256">
        <ele>117.108</ele>
        <time>2019-06-22T11:31:40Z</time>
      </trkpt>
      <trkpt lat="42.348115" lon="-7.993006">
        <ele>118.255</ele>
        <time>2019-06-22T11:31:41Z</time>
      </trkpt>
      <trkpt lat="42.348031" lon="-7.992740">
        <ele>118.329</ele>
        <time>2019-06-22T11:31:42Z</time>
      </trkpt>
      <trkpt lat="42.347946" lon="-7.992462">
        <ele>118.351</ele>
        <time>2019-06-22T11:31:43Z</time>
      </trkpt>
      <trkpt lat="42.347855" lon="-7.992162">
        <ele>117.763</ele>
        <time>2019-06-22T11:31:44Z</time>
      </trkpt>
      <trkpt lat="42.347770" lon="-7.991863">
        <ele>117.251</ele>
        <time>2019-06-22T11:31:45Z</time>
      </trkpt>
      <trkpt lat="42.347691" lon="-7.991573">
        <ele>116.860</ele>
        <time>2019-06-22T11:31:46Z</time>
      </trkpt>
      <trkpt lat="42.347610" lon="-7.991299">
        <ele>116.895</ele>
        <time>2019-06-22T11:31:47Z</time>
      </trkpt>
      <trkpt lat="42.347523" lon="-7.991025">
        <ele>117.378</ele>
        <time>2019-06-22T11:31:48Z</time>
      </trkpt>
      <trkpt lat="42.347447" lon="-7.990769">
        <ele>117.313</ele>
        <time>2019-06-22T11:31:49Z</time>
      </trkpt>
      <trkpt lat="42.347380" lon="-7.990513">
        <ele>117.643</ele>
        <time>2019-06-22T11:31:50Z</time>
      </trkpt>
      <trkpt lat="42.347309" lon="-7.990245">
        <ele>117.607</ele>
        <time>2019-06-22T11:31:51Z</time>
      </trkpt>
      <trkpt lat="42.347234" lon="-7.989980">
        <ele>117.608</ele>
        <time>2019-06-22T11:31:52Z</time>
      </trkpt>
      <trkpt lat="42.347156" lon="-7.989713">
        <ele>118.064</ele>
        <time>2019-06-22T11:31:53Z</time>
      </trkpt>
      <trkpt lat="42.347087" lon="-7.989449">
        <ele>118.628</ele>
        <time>2019-06-22T11:31:54Z</time>
      </trkpt>
      <trkpt lat="42.347014" lon="-7.989192">
        <ele>119.390</ele>
        <time>2019-06-22T11:31:55Z</time>
      </trkpt>
      <trkpt lat="42.346934" lon="-7.988931">
        <ele>119.962</ele>
        <time>2019-06-22T11:31:56Z</time>
      </trkpt>
      <trkpt lat="42.346858" lon="-7.988670">
        <ele>120.440</ele>
        <time>2019-06-22T11:31:57Z</time>
      </trkpt>
      <trkpt lat="42.346790" lon="-7.988396">
        <ele>121.059</ele>
        <time>2019-06-22T11:31:58Z</time>
      </trkpt>
      <trkpt lat="42.346716" lon="-7.988126">
        <ele>121.324</ele>
        <time>2019-06-22T11:31:59Z</time>
      </trkpt>
      <trkpt lat="42.346642" lon="-7.987861">
        <ele>121.637</ele>
        <time>2019-06-22T11:32:00Z</time>
      </trkpt>
      <trkpt lat="42.346564" lon="-7.987587">
        <ele>121.823</ele>
        <time>2019-06-22T11:32:01Z</time>
      </trkpt>
      <trkpt lat="42.346494" lon="-7.987307">
        <ele>121.883</ele>
        <time>2019-06-22T11:32:02Z</time>
      </trkpt>
      <trkpt lat="42.346420" lon="-7.987001">
        <ele>121.311</ele>
        <time>2019-06-22T11:32:03Z</time>
      </trkpt>
      <trkpt lat="42.346359" lon="-7.986689">
        <ele>121.008</ele>
        <time>2019-06-22T11:32:04Z</time>
      </trkpt>
      <trkpt lat="42.346323" lon="-7.986375">
        <ele>120.745</ele>
        <time>2019-06-22T11:32:05Z</time>
      </trkpt>
      <trkpt lat="42.346279" lon="-7.986056">
        <ele>120.479</ele>
        <time>2019-06-22T11:32:06Z</time>
      </trkpt>
      <trkpt lat="42.346255" lon="-7.985744">
        <ele>120.211</ele>
        <time>2019-06-22T11:32:07Z</time>
      </trkpt>
      <trkpt lat="42.346235" lon="-7.985430">
        <ele>120.193</ele>
        <time>2019-06-22T11:32:08Z</time>
      </trkpt>
      <trkpt lat="42.346212" lon="-7.985110">
        <ele>120.261</ele>
        <time>2019-06-22T11:32:09Z</time>
      </trkpt>
      <trkpt lat="42.346197" lon="-7.984797">
        <ele>120.240</ele>
        <time>2019-06-22T11:32:10Z</time>
      </trkpt>
      <trkpt lat="42.346171" lon="-7.984486">
        <ele>120.345</ele>
        <time>2019-06-22T11:32:11Z</time>
      </trkpt>
      <trkpt lat="42.346142" lon="-7.984183">
        <ele>120.388</ele>
        <time>2019-06-22T11:32:12Z</time>
      </trkpt>
      <trkpt lat="42.346109" lon="-7.983884">
        <ele>120.276</ele>
        <time>2019-06-22T11:32:13Z</time>
      </trkpt>
      <trkpt lat="42.346065" lon="-7.983607">
        <ele>120.090</ele>
        <time>2019-06-22T11:32:14Z</time>
      </trkpt>
      <trkpt lat="42.346017" lon="-7.983350">
        <ele>120.019</ele>
        <time>2019-06-22T11:32:15Z</time>
      </trkpt>
      <trkpt lat="42.345965" lon="-7.983112">
        <ele>120.708</ele>
        <time>2019-06-22T11:32:16Z</time>
      </trkpt>
      <trkpt lat="42.345890" lon="-7.982878">
        <ele>121.760</ele>
        <time>2019-06-22T11:32:17Z</time>
      </trkpt>
      <trkpt lat="42.345798" lon="-7.982652">
        <ele>123.494</ele>
        <time>2019-06-22T11:32:18Z</time>
      </trkpt>
      <trkpt lat="42.345694" lon="-7.982445">
        <ele>125.486</ele>
        <time>2019-06-22T11:32:19Z</time>
      </trkpt>
      <trkpt lat="42.345578" lon="-7.982268">
        <ele>127.138</ele>
        <time>2019-06-22T11:32:20Z</time>
      </trkpt>
      <trkpt lat="42.345437" lon="-7.982122">
        <ele>128.176</ele>
        <time>2019-06-22T11:32:21Z</time>
      </trkpt>
      <trkpt lat="42.345280" lon="-7.981994">
        <ele>129.255</ele>
        <time>2019-06-22T11:32:22Z</time>
      </trkpt>
      <trkpt lat="42.345121" lon="-7.981873">
        <ele>130.170</ele>
        <time>2019-06-22T11:32:23Z</time>
      </trkpt>
      <trkpt lat="42.344975" lon="-7.981831">
        <ele>131.223</ele>
        <time>2019-06-22T11:32:24Z</time>
      </trkpt>
      <trkpt lat="42.344802" lon="-7.981733">
        <ele>132.568</ele>
        <time>2019-06-22T11:32:25Z</time>
      </trkpt>
      <trkpt lat="42.344618" lon="-7.981672">
        <ele>134.142</ele>
        <time>2019-06-22T11:32:26Z</time>
      </trkpt>
      <trkpt lat="42.344435" lon="-7.981621">
        <ele>135.026</ele>
        <time>2019-06-22T11:32:27Z</time>
      </trkpt>
      <trkpt lat="42.344251" lon="-7.981573">
        <ele>135.608</ele>
        <time>2019-06-22T11:32:28Z</time>
      </trkpt>
      <trkpt lat="42.344062" lon="-7.981535">
        <ele>136.449</ele>
        <time>2019-06-22T11:32:29Z</time>
      </trkpt>
      <trkpt lat="42.343881" lon="-7.981468">
        <ele>136.733</ele>
        <time>2019-06-22T11:32:30Z</time>
      </trkpt>
      <trkpt lat="42.343713" lon="-7.981393">
        <ele>136.745</ele>
        <time>2019-06-22T11:32:31Z</time>
      </trkpt>
      <trkpt lat="42.343558" lon="-7.981307">
        <ele>137.187</ele>
        <time>2019-06-22T11:32:32Z</time>
      </trkpt>
      <trkpt lat="42.343403" lon="-7.981218">
        <ele>137.555</ele>
        <time>2019-06-22T11:32:33Z</time>
      </trkpt>
      <trkpt lat="42.343276" lon="-7.980976">
        <ele>137.844</ele>
        <time>2019-06-22T11:32:34Z</time>
      </trkpt>
      <trkpt lat="42.343145" lon="-7.980805">
        <ele>137.589</ele>
        <time>2019-06-22T11:32:35Z</time>
      </trkpt>
      <trkpt lat="42.343058" lon="-7.980565">
        <ele>137.542</ele>
        <time>2019-06-22T11:32:36Z</time>
      </trkpt>
      <trkpt lat="42.342984" lon="-7.980333">
        <ele>136.948</ele>
        <time>2019-06-22T11:32:37Z</time>
      </trkpt>
      <trkpt lat="42.342930" lon="-7.980089">
        <ele>136.161</ele>
        <time>2019-06-22T11:32:38Z</time>
      </trkpt>
      <trkpt lat="42.342884" lon="-7.979842">
        <ele>135.317</ele>
        <time>2019-06-22T11:32:39Z</time>
      </trkpt>
      <trkpt lat="42.342978" lon="-7.979601">
        <ele>134.308</ele>
        <time>2019-06-22T11:32:40Z</time>
      </trkpt>
      <trkpt lat="42.343011" lon="-7.979341">
        <ele>133.487</ele>
        <time>2019-06-22T11:32:41Z</time>
      </trkpt>
      <trkpt lat="42.343058" lon="-7.979125">
        <ele>132.211</ele>
        <time>2019-06-22T11:32:42Z</time>
      </trkpt>
      <trkpt lat="42.343178" lon="-7.978889">
        <ele>130.773</ele>
        <time>2019-06-22T11:32:43Z</time>
      </trkpt>
      <trkpt lat="42.343219" lon="-7.978637">
        <ele>128.265</ele>
        <time>2019-06-22T11:32:44Z</time>
      </trkpt>
      <trkpt lat="42.343240" lon="-7.978410">
        <ele>125.783</ele>
        <time>2019-06-22T11:32:45Z</time>
      </trkpt>
      <trkpt lat="42.343244" lon="-7.978172">
        <ele>123.832</ele>
        <time>2019-06-22T11:32:46Z</time>
      </trkpt>
      <trkpt lat="42.343214" lon="-7.977924">
        <ele>122.667</ele>
        <time>2019-06-22T11:32:47Z</time>
      </trkpt>
      <trkpt lat="42.343159" lon="-7.977681">
        <ele>122.450</ele>
        <time>2019-06-22T11:32:48Z</time>
      </trkpt>
      <trkpt lat="42.343073" lon="-7.977441">
        <ele>122.487</ele>
        <time>2019-06-22T11:32:49Z</time>
      </trkpt>
      <trkpt lat="42.342951" lon="-7.977232">
        <ele>123.142</ele>
        <time>2019-06-22T11:32:50Z</time>
      </trkpt>
      <trkpt lat="42.342808" lon="-7.977036">
        <ele>123.226</ele>
        <time>2019-06-22T11:32:51Z</time>
      </trkpt>
      <trkpt lat="42.342649" lon="-7.976864">
        <ele>123.208</ele>
        <time>2019-06-22T11:32:52Z</time>
      </trkpt>
      <trkpt lat="42.342478" lon="-7.976714">
        <ele>122.571</ele>
        <time>2019-06-22T11:32:53Z</time>
      </trkpt>
      <trkpt lat="42.342305" lon="-7.976578">
        <ele>122.535</ele>
        <time>2019-06-22T11:32:54Z</time>
      </trkpt>
      <trkpt lat="42.342129" lon="-7.976440">
        <ele>122.647</ele>
        <time>2019-06-22T11:32:55Z</time>
      </trkpt>
      <trkpt lat="42.341962" lon="-7.976311">
        <ele>123.289</ele>
        <time>2019-06-22T11:32:56Z</time>
      </trkpt>
      <trkpt lat="42.341805" lon="-7.976204">
        <ele>124.677</ele>
        <time>2019-06-22T11:32:57Z</time>
      </trkpt>
      <trkpt lat="42.341634" lon="-7.976071">
        <ele>126.456</ele>
        <time>2019-06-22T11:32:58Z</time>
      </trkpt>
      <trkpt lat="42.341491" lon="-7.975960">
        <ele>127.661</ele>
        <time>2019-06-22T11:32:59Z</time>
      </trkpt>
      <trkpt lat="42.341346" lon="-7.975807">
        <ele>129.434</ele>
        <time>2019-06-22T11:33:00Z</time>
      </trkpt>
      <trkpt lat="42.341204" lon="-7.975637">
        <ele>130.762</ele>
        <time>2019-06-22T11:33:01Z</time>
      </trkpt>
      <trkpt lat="42.341074" lon="-7.975432">
        <ele>132.083</ele>
        <time>2019-06-22T11:33:02Z</time>
      </trkpt>
      <trkpt lat="42.340947" lon="-7.975233">
        <ele>133.011</ele>
        <time>2019-06-22T11:33:03Z</time>
      </trkpt>
      <trkpt lat="42.340868" lon="-7.975008">
        <ele>134.308</ele>
        <time>2019-06-22T11:33:04Z</time>
      </trkpt>
      <trkpt lat="42.340777" lon="-7.974762">
        <ele>134.919</ele>
        <time>2019-06-22T11:33:05Z</time>
      </trkpt>
      <trkpt lat="42.340713" lon="-7.974518">
        <ele>136.263</ele>
        <time>2019-06-22T11:33:06Z</time>
      </trkpt>
      <trkpt lat="42.340676" lon="-7.974272">
        <ele>137.335</ele>
        <time>2019-06-22T11:33:07Z</time>
      </trkpt>
      <trkpt lat="42.340685" lon="-7.974052">
        <ele>138.977</ele>
        <time>2019-06-22T11:33:08Z</time>
      </trkpt>
      <trkpt lat="42.340680" lon="-7.973769">
        <ele>140.165</ele>
        <time>2019-06-22T11:33:09Z</time>
      </trkpt>
      <trkpt lat="42.340682" lon="-7.973518">
        <ele>142.094</ele>
        <time>2019-06-22T11:33:10Z</time>
      </trkpt>
      <trkpt lat="42.340866" lon="-7.973292">
        <ele>143.199</ele>
        <time>2019-06-22T11:33:11Z</time>
      </trkpt>
      <trkpt lat="42.340962" lon="-7.973045">
        <ele>143.762</ele>
        <time>2019-06-22T11:33:12Z</time>
      </trkpt>
      <trkpt lat="42.341079" lon="-7.972804">
        <ele>144.092</ele>
        <time>2019-06-22T11:33:13Z</time>
      </trkpt>
      <trkpt lat="42.341204" lon="-7.972574">
        <ele>144.073</ele>
        <time>2019-06-22T11:33:14Z</time>
      </trkpt>
      <trkpt lat="42.341341" lon="-7.972330">
        <ele>144.020</ele>
        <time>2019-06-22T11:33:15Z</time>
      </trkpt>
      <trkpt lat="42.341466" lon="-7.972089">
        <ele>143.908</ele>
        <time>2019-06-22T11:33:16Z</time>
      </trkpt>
      <trkpt lat="42.341588" lon="-7.971846">
        <ele>143.082</ele>
        <time>2019-06-22T11:33:17Z</time>
      </trkpt>
      <trkpt lat="42.341695" lon="-7.971594">
        <ele>143.066</ele>
        <time>2019-06-22T11:33:18Z</time>
      </trkpt>
      <trkpt lat="42.341769" lon="-7.971334">
        <ele>142.248</ele>
        <time>2019-06-22T11:33:19Z</time>
      </trkpt>
      <trkpt lat="42.341804" lon="-7.971075">
        <ele>141.320</ele>
        <time>2019-06-22T11:33:20Z</time>
      </trkpt>
      <trkpt lat="42.341827" lon="-7.970786">
        <ele>141.378</ele>
        <time>2019-06-22T11:33:21Z</time>
      </trkpt>
      <trkpt lat="42.341863" lon="-7.970509">
        <ele>142.387</ele>
        <time>2019-06-22T11:33:22Z</time>
      </trkpt>
      <trkpt lat="42.341782" lon="-7.970226">
        <ele>143.032</ele>
        <time>2019-06-22T11:33:23Z</time>
      </trkpt>
      <trkpt lat="42.341723" lon="-7.969950">
        <ele>143.895</ele>
        <time>2019-06-22T11:33:24Z</time>
      </trkpt>
      <trkpt lat="42.341628" lon="-7.969693">
        <ele>145.214</ele>
        <time>2019-06-22T11:33:25Z</time>
      </trkpt>
      <trkpt lat="42.341529" lon="-7.969446">
        <ele>146.254</ele>
        <time>2019-06-22T11:33:26Z</time>
      </trkpt>
      <trkpt lat="42.341412" lon="-7.969226">
        <ele>147.409</ele>
        <time>2019-06-22T11:33:27Z</time>
      </trkpt>
      <trkpt lat="42.341291" lon="-7.969023">
        <ele>148.508</ele>
        <time>2019-06-22T11:33:28Z</time>
      </trkpt>
      <trkpt lat="42.341150" lon="-7.968849">
        <ele>149.834</ele>
        <time>2019-06-22T11:33:29Z</time>
      </trkpt>
      <trkpt lat="42.341025" lon="-7.968655">
        <ele>152.228</ele>
        <time>2019-06-22T11:33:30Z</time>
      </trkpt>
      <trkpt lat="42.340896" lon="-7.968436">
        <ele>152.250</ele>
        <time>2019-06-22T11:33:31Z</time>
      </trkpt>
      <trkpt lat="42.340786" lon="-7.968209">
        <ele>154.752</ele>
        <time>2019-06-22T11:33:32Z</time>
      </trkpt>
      <trkpt lat="42.340684" lon="-7.967963">
        <ele>156.330</ele>
        <time>2019-06-22T11:33:33Z</time>
      </trkpt>
      <trkpt lat="42.340606" lon="-7.967705">
        <ele>158.389</ele>
        <time>2019-06-22T11:33:34Z</time>
      </trkpt>
      <trkpt lat="42.340529" lon="-7.967426">
        <ele>159.614</ele>
        <time>2019-06-22T11:33:35Z</time>
      </trkpt>
      <trkpt lat="42.340471" lon="-7.967155">
        <ele>160.567</ele>
        <time>2019-06-22T11:33:36Z</time>
      </trkpt>
      <trkpt lat="42.340430" lon="-7.966925">
        <ele>160.935</ele>
        <time>2019-06-22T11:33:37Z</time>
      </trkpt>
      <trkpt lat="42.340398" lon="-7.966685">
        <ele>160.986</ele>
        <time>2019-06-22T11:33:38Z</time>
      </trkpt>
      <trkpt lat="42.340386" lon="-7.966442">
        <ele>160.914</ele>
        <time>2019-06-22T11:33:39Z</time>
      </trkpt>
      <trkpt lat="42.340360" lon="-7.966186">
        <ele>160.708</ele>
        <time>2019-06-22T11:33:40Z</time>
      </trkpt>
      <trkpt lat="42.340399" lon="-7.965911">
        <ele>160.756</ele>
        <time>2019-06-22T11:33:41Z</time>
      </trkpt>
      <trkpt lat="42.340423" lon="-7.965657">
        <ele>160.120</ele>
        <time>2019-06-22T11:33:42Z</time>
      </trkpt>
      <trkpt lat="42.340441" lon="-7.965405">
        <ele>159.922</ele>
        <time>2019-06-22T11:33:43Z</time>
      </trkpt>
      <trkpt lat="42.340492" lon="-7.965176">
        <ele>159.614</ele>
        <time>2019-06-22T11:33:44Z</time>
      </trkpt>
      <trkpt lat="42.340544" lon="-7.964949">
        <ele>158.952</ele>
        <time>2019-06-22T11:33:45Z</time>
      </trkpt>
      <trkpt lat="42.340639" lon="-7.964711">
        <ele>157.761</ele>
        <time>2019-06-22T11:33:46Z</time>
      </trkpt>
      <trkpt lat="42.340648" lon="-7.964464">
        <ele>155.536</ele>
        <time>2019-06-22T11:33:47Z</time>
      </trkpt>
      <trkpt lat="42.340706" lon="-7.964237">
        <ele>154.519</ele>
        <time>2019-06-22T11:33:48Z</time>
      </trkpt>
      <trkpt lat="42.340743" lon="-7.963991">
        <ele>151.955</ele>
        <time>2019-06-22T11:33:49Z</time>
      </trkpt>
      <trkpt lat="42.340728" lon="-7.963741">
        <ele>151.907</ele>
        <time>2019-06-22T11:33:50Z</time>
      </trkpt>
      <trkpt lat="42.340680" lon="-7.963484">
        <ele>150.417</ele>
        <time>2019-06-22T11:33:51Z</time>
      </trkpt>
      <trkpt lat="42.340659" lon="-7.963212">
        <ele>150.108</ele>
        <time>2019-06-22T11:33:52Z</time>
      </trkpt>
      <trkpt lat="42.340608" lon="-7.962947">
        <ele>148.618</ele>
        <time>2019-06-22T11:33:53Z</time>
      </trkpt>
      <trkpt lat="42.340563" lon="-7.962673">
        <ele>148.412</ele>
        <time>2019-06-22T11:33:54Z</time>
      </trkpt>
      <trkpt lat="42.340521" lon="-7.962400">
        <ele>148.424</ele>
        <time>2019-06-22T11:33:55Z</time>
      </trkpt>
      <trkpt lat="42.340475" lon="-7.962128">
        <ele>148.296</ele>
        <time>2019-06-22T11:33:56Z</time>
      </trkpt>
      <trkpt lat="42.340415" lon="-7.961852">
        <ele>148.284</ele>
        <time>2019-06-22T11:33:57Z</time>
      </trkpt>
      <trkpt lat="42.340370" lon="-7.961604">
        <ele>148.033</ele>
        <time>2019-06-22T11:33:58Z</time>
      </trkpt>
      <trkpt lat="42.340312" lon="-7.961338">
        <ele>146.438</ele>
        <time>2019-06-22T11:33:59Z</time>
      </trkpt>
      <trkpt lat="42.340270" lon="-7.961101">
        <ele>144.741</ele>
        <time>2019-06-22T11:34:00Z</time>
      </trkpt>
      <trkpt lat="42.340216" lon="-7.960849">
        <ele>142.948</ele>
        <time>2019-06-22T11:34:01Z</time>
      </trkpt>
      <trkpt lat="42.340134" lon="-7.960583">
        <ele>142.261</ele>
        <time>2019-06-22T11:34:02Z</time>
      </trkpt>
      <trkpt lat="42.340081" lon="-7.960320">
        <ele>141.017</ele>
        <time>2019-06-22T11:34:03Z</time>
      </trkpt>
      <trkpt lat="42.340032" lon="-7.960046">
        <ele>141.008</ele>
        <time>2019-06-22T11:34:04Z</time>
      </trkpt>
      <trkpt lat="42.340012" lon="-7.959791">
        <ele>141.077</ele>
        <time>2019-06-22T11:34:05Z</time>
      </trkpt>
      <trkpt lat="42.339992" lon="-7.959480">
        <ele>141.381</ele>
        <time>2019-06-22T11:34:06Z</time>
      </trkpt>
      <trkpt lat="42.340013" lon="-7.959204">
        <ele>141.583</ele>
        <time>2019-06-22T11:34:07Z</time>
      </trkpt>
      <trkpt lat="42.340042" lon="-7.958908">
        <ele>141.515</ele>
        <time>2019-06-22T11:34:08Z</time>
      </trkpt>
      <trkpt lat="42.340071" lon="-7.958624">
        <ele>141.113</ele>
        <time>2019-06-22T11:34:09Z</time>
      </trkpt>
      <trkpt lat="42.340094" lon="-7.958330">
        <ele>139.952</ele>
        <time>2019-06-22T11:34:10Z</time>
      </trkpt>
      <trkpt lat="42.340127" lon="-7.958032">
        <ele>138.537</ele>
        <time>2019-06-22T11:34:11Z</time>
      </trkpt>
      <trkpt lat="42.340129" lon="-7.957745">
        <ele>138.050</ele>
        <time>2019-06-22T11:34:12Z</time>
      </trkpt>
      <trkpt lat="42.340133" lon="-7.957443">
        <ele>138.047</ele>
        <time>2019-06-22T11:34:13Z</time>
      </trkpt>
      <trkpt lat="42.340154" lon="-7.957137">
        <ele>138.529</ele>
        <time>2019-06-22T11:34:14Z</time>
      </trkpt>
      <trkpt lat="42.340173" lon="-7.956830">
        <ele>139.321</ele>
        <time>2019-06-22T11:34:15Z</time>
      </trkpt>
      <trkpt lat="42.340197" lon="-7.956530">
        <ele>139.608</ele>
        <time>2019-06-22T11:34:16Z</time>
      </trkpt>
      <trkpt lat="42.340223" lon="-7.956233">
        <ele>140.017</ele>
        <time>2019-06-22T11:34:17Z</time>
      </trkpt>
      <trkpt lat="42.340240" lon="-7.955934">
        <ele>140.061</ele>
        <time>2019-06-22T11:34:18Z</time>
      </trkpt>
      <trkpt lat="42.340263" lon="-7.955643">
        <ele>139.923</ele>
        <time>2019-06-22T11:34:19Z</time>
      </trkpt>
      <trkpt lat="42.340277" lon="-7.955386">
        <ele>139.915</ele>
        <time>2019-06-22T11:34:20Z</time>
      </trkpt>
      <trkpt lat="42.340303" lon="-7.955130">
        <ele>139.513</ele>
        <time>2019-06-22T11:34:21Z</time>
      </trkpt>
      <trkpt lat="42.340334" lon="-7.954896">
        <ele>139.532</ele>
        <time>2019-06-22T11:34:22Z</time>
      </trkpt>
      <trkpt lat="42.340347" lon="-7.954657">
        <ele>140.017</ele>
        <time>2019-06-22T11:34:23Z</time>
      </trkpt>
      <trkpt lat="42.340372" lon="-7.954402">
        <ele>141.460</ele>
        <time>2019-06-22T11:34:24Z</time>
      </trkpt>
      <trkpt lat="42.340408" lon="-7.954171">
        <ele>142.985</ele>
        <time>2019-06-22T11:34:25Z</time>
      </trkpt>
      <trkpt lat="42.340445" lon="-7.953922">
        <ele>145.389</ele>
        <time>2019-06-22T11:34:26Z</time>
      </trkpt>
      <trkpt lat="42.340480" lon="-7.953672">
        <ele>146.917</ele>
        <time>2019-06-22T11:34:27Z</time>
      </trkpt>
      <trkpt lat="42.340528" lon="-7.953421">
        <ele>147.708</ele>
        <time>2019-06-22T11:34:28Z</time>
      </trkpt>
      <trkpt lat="42.340569" lon="-7.953176">
        <ele>147.771</ele>
        <time>2019-06-22T11:34:29Z</time>
      </trkpt>
      <trkpt lat="42.340609" lon="-7.952921">
        <ele>147.755</ele>
        <time>2019-06-22T11:34:30Z</time>
      </trkpt>
      <trkpt lat="42.340655" lon="-7.952649">
        <ele>147.797</ele>
        <time>2019-06-22T11:34:31Z</time>
      </trkpt>
      <trkpt lat="42.340715" lon="-7.952381">
        <ele>149.029</ele>
        <time>2019-06-22T11:34:32Z</time>
      </trkpt>
      <trkpt lat="42.340774" lon="-7.952111">
        <ele>149.077</ele>
        <time>2019-06-22T11:34:33Z</time>
      </trkpt>
      <trkpt lat="42.340832" lon="-7.951838">
        <ele>150.436</ele>
        <time>2019-06-22T11:34:34Z</time>
      </trkpt>
      <trkpt lat="42.340899" lon="-7.951566">
        <ele>151.431</ele>
        <time>2019-06-22T11:34:35Z</time>
      </trkpt>
      <trkpt lat="42.340974" lon="-7.951301">
        <ele>152.384</ele>
        <time>2019-06-22T11:34:36Z</time>
      </trkpt>
      <trkpt lat="42.341043" lon="-7.951043">
        <ele>152.373</ele>
        <time>2019-06-22T11:34:37Z</time>
      </trkpt>
      <trkpt lat="42.341098" lon="-7.950785">
        <ele>152.385</ele>
        <time>2019-06-22T11:34:38Z</time>
      </trkpt>
      <trkpt lat="42.341167" lon="-7.950529">
        <ele>151.413</ele>
        <time>2019-06-22T11:34:39Z</time>
      </trkpt>
      <trkpt lat="42.341239" lon="-7.950267">
        <ele>150.508</ele>
        <time>2019-06-22T11:34:40Z</time>
      </trkpt>
      <trkpt lat="42.341302" lon="-7.950007">
        <ele>149.590</ele>
        <time>2019-06-22T11:34:41Z</time>
      </trkpt>
      <trkpt lat="42.341360" lon="-7.949755">
        <ele>149.124</ele>
        <time>2019-06-22T11:34:42Z</time>
      </trkpt>
      <trkpt lat="42.341415" lon="-7.949486">
        <ele>147.816</ele>
        <time>2019-06-22T11:34:43Z</time>
      </trkpt>
      <trkpt lat="42.341483" lon="-7.949235">
        <ele>147.428</ele>
        <time>2019-06-22T11:34:44Z</time>
      </trkpt>
      <trkpt lat="42.341545" lon="-7.948982">
        <ele>147.286</ele>
        <time>2019-06-22T11:34:45Z</time>
      </trkpt>
      <trkpt lat="42.341606" lon="-7.948746">
        <ele>146.815</ele>
        <time>2019-06-22T11:34:46Z</time>
      </trkpt>
      <trkpt lat="42.341677" lon="-7.948496">
        <ele>145.690</ele>
        <time>2019-06-22T11:34:47Z</time>
      </trkpt>
      <trkpt lat="42.341750" lon="-7.948241">
        <ele>145.373</ele>
        <time>2019-06-22T11:34:48Z</time>
      </trkpt>
      <trkpt lat="42.341817" lon="-7.947981">
        <ele>144.373</ele>
        <time>2019-06-22T11:34:49Z</time>
      </trkpt>
      <trkpt lat="42.341889" lon="-7.947731">
        <ele>144.085</ele>
        <time>2019-06-22T11:34:50Z</time>
      </trkpt>
      <trkpt lat="42.341949" lon="-7.947459">
        <ele>143.313</ele>
        <time>2019-06-22T11:34:51Z</time>
      </trkpt>
      <trkpt lat="42.341995" lon="-7.947189">
        <ele>142.408</ele>
        <time>2019-06-22T11:34:52Z</time>
      </trkpt>
      <trkpt lat="42.342042" lon="-7.946924">
        <ele>140.530</ele>
        <time>2019-06-22T11:34:53Z</time>
      </trkpt>
      <trkpt lat="42.342071" lon="-7.946651">
        <ele>139.174</ele>
        <time>2019-06-22T11:34:54Z</time>
      </trkpt>
      <trkpt lat="42.342133" lon="-7.946361">
        <ele>136.896</ele>
        <time>2019-06-22T11:34:55Z</time>
      </trkpt>
      <trkpt lat="42.342110" lon="-7.946081">
        <ele>135.278</ele>
        <time>2019-06-22T11:34:56Z</time>
      </trkpt>
      <trkpt lat="42.342083" lon="-7.945804">
        <ele>135.226</ele>
        <time>2019-06-22T11:34:57Z</time>
      </trkpt>
      <trkpt lat="42.342056" lon="-7.945520">
        <ele>135.865</ele>
        <time>2019-06-22T11:34:58Z</time>
      </trkpt>
      <trkpt lat="42.342024" lon="-7.945236">
        <ele>136.920</ele>
        <time>2019-06-22T11:34:59Z</time>
      </trkpt>
      <trkpt lat="42.342005" lon="-7.944931">
        <ele>137.533</ele>
        <time>2019-06-22T11:35:00Z</time>
      </trkpt>
      <trkpt lat="42.341998" lon="-7.944631">
        <ele>138.159</ele>
        <time>2019-06-22T11:35:01Z</time>
      </trkpt>
      <trkpt lat="42.342012" lon="-7.944342">
        <ele>138.103</ele>
        <time>2019-06-22T11:35:02Z</time>
      </trkpt>
      <trkpt lat="42.342027" lon="-7.944042">
        <ele>138.023</ele>
        <time>2019-06-22T11:35:03Z</time>
      </trkpt>
      <trkpt lat="42.342048" lon="-7.943733">
        <ele>136.908</ele>
        <time>2019-06-22T11:35:04Z</time>
      </trkpt>
      <trkpt lat="42.342092" lon="-7.943447">
        <ele>135.268</ele>
        <time>2019-06-22T11:35:05Z</time>
      </trkpt>
      <trkpt lat="42.342131" lon="-7.943166">
        <ele>133.272</ele>
        <time>2019-06-22T11:35:06Z</time>
      </trkpt>
      <trkpt lat="42.342153" lon="-7.942865">
        <ele>130.924</ele>
        <time>2019-06-22T11:35:07Z</time>
      </trkpt>
      <trkpt lat="42.342165" lon="-7.942568">
        <ele>128.516</ele>
        <time>2019-06-22T11:35:08Z</time>
      </trkpt>
      <trkpt lat="42.342132" lon="-7.942264">
        <ele>126.914</ele>
        <time>2019-06-22T11:35:09Z</time>
      </trkpt>
      <trkpt lat="42.342103" lon="-7.941948">
        <ele>126.723</ele>
        <time>2019-06-22T11:35:10Z</time>
      </trkpt>
      <trkpt lat="42.342083" lon="-7.941631">
        <ele>126.778</ele>
        <time>2019-06-22T11:35:11Z</time>
      </trkpt>
      <trkpt lat="42.342061" lon="-7.941341">
        <ele>127.371</ele>
        <time>2019-06-22T11:35:12Z</time>
      </trkpt>
      <trkpt lat="42.342073" lon="-7.941024">
        <ele>128.534</ele>
        <time>2019-06-22T11:35:13Z</time>
      </trkpt>
      <trkpt lat="42.342104" lon="-7.940697">
        <ele>129.355</ele>
        <time>2019-06-22T11:35:14Z</time>
      </trkpt>
      <trkpt lat="42.342169" lon="-7.940384">
        <ele>130.010</ele>
        <time>2019-06-22T11:35:15Z</time>
      </trkpt>
      <trkpt lat="42.342218" lon="-7.940069">
        <ele>130.408</ele>
        <time>2019-06-22T11:35:16Z</time>
      </trkpt>
      <trkpt lat="42.342292" lon="-7.939782">
        <ele>130.576</ele>
        <time>2019-06-22T11:35:17Z</time>
      </trkpt>
      <trkpt lat="42.342366" lon="-7.939482">
        <ele>130.530</ele>
        <time>2019-06-22T11:35:18Z</time>
      </trkpt>
      <trkpt lat="42.342421" lon="-7.939153">
        <ele>129.912</ele>
        <time>2019-06-22T11:35:19Z</time>
      </trkpt>
      <trkpt lat="42.342484" lon="-7.938836">
        <ele>128.894</ele>
        <time>2019-06-22T11:35:20Z</time>
      </trkpt>
      <trkpt lat="42.342582" lon="-7.938532">
        <ele>128.072</ele>
        <time>2019-06-22T11:35:21Z</time>
      </trkpt>
      <trkpt lat="42.342657" lon="-7.938219">
        <ele>127.691</ele>
        <time>2019-06-22T11:35:22Z</time>
      </trkpt>
      <trkpt lat="42.342743" lon="-7.937922">
        <ele>127.476</ele>
        <time>2019-06-22T11:35:23Z</time>
      </trkpt>
      <trkpt lat="42.342814" lon="-7.937633">
        <ele>127.479</ele>
        <time>2019-06-22T11:35:24Z</time>
      </trkpt>
      <trkpt lat="42.342892" lon="-7.937356">
        <ele>127.825</ele>
        <time>2019-06-22T11:35:25Z</time>
      </trkpt>
      <trkpt lat="42.342999" lon="-7.937115">
        <ele>129.026</ele>
        <time>2019-06-22T11:35:26Z</time>
      </trkpt>
      <trkpt lat="42.343102" lon="-7.936874">
        <ele>130.408</ele>
        <time>2019-06-22T11:35:27Z</time>
      </trkpt>
      <trkpt lat="42.343221" lon="-7.936645">
        <ele>131.408</ele>
        <time>2019-06-22T11:35:28Z</time>
      </trkpt>
      <trkpt lat="42.343401" lon="-7.936427">
        <ele>132.795</ele>
        <time>2019-06-22T11:35:29Z</time>
      </trkpt>
      <trkpt lat="42.343577" lon="-7.936238">
        <ele>134.799</ele>
        <time>2019-06-22T11:35:30Z</time>
      </trkpt>
      <trkpt lat="42.343713" lon="-7.936020">
        <ele>135.461</ele>
        <time>2019-06-22T11:35:31Z</time>
      </trkpt>
      <trkpt lat="42.343864" lon="-7.935814">
        <ele>135.973</ele>
        <time>2019-06-22T11:35:32Z</time>
      </trkpt>
      <trkpt lat="42.344014" lon="-7.935592">
        <ele>135.961</ele>
        <time>2019-06-22T11:35:33Z</time>
      </trkpt>
      <trkpt lat="42.344160" lon="-7.935373">
        <ele>135.910</ele>
        <time>2019-06-22T11:35:34Z</time>
      </trkpt>
      <trkpt lat="42.344297" lon="-7.935138">
        <ele>135.775</ele>
        <time>2019-06-22T11:35:35Z</time>
      </trkpt>
      <trkpt lat="42.344380" lon="-7.934902">
        <ele>135.728</ele>
        <time>2019-06-22T11:35:36Z</time>
      </trkpt>
      <trkpt lat="42.344499" lon="-7.934661">
        <ele>136.373</ele>
        <time>2019-06-22T11:35:37Z</time>
      </trkpt>
      <trkpt lat="42.344612" lon="-7.934420">
        <ele>137.385</ele>
        <time>2019-06-22T11:35:38Z</time>
      </trkpt>
      <trkpt lat="42.344781" lon="-7.934222">
        <ele>138.913</ele>
        <time>2019-06-22T11:35:39Z</time>
      </trkpt>
      <trkpt lat="42.344929" lon="-7.934019">
        <ele>141.208</ele>
        <time>2019-06-22T11:35:40Z</time>
      </trkpt>
      <trkpt lat="42.345095" lon="-7.933832">
        <ele>143.070</ele>
        <time>2019-06-22T11:35:41Z</time>
      </trkpt>
      <trkpt lat="42.345245" lon="-7.933621">
        <ele>144.744</ele>
        <time>2019-06-22T11:35:42Z</time>
      </trkpt>
      <trkpt lat="42.345402" lon="-7.933423">
        <ele>145.246</ele>
        <time>2019-06-22T11:35:43Z</time>
      </trkpt>
      <trkpt lat="42.345565" lon="-7.933253">
        <ele>145.258</ele>
        <time>2019-06-22T11:35:44Z</time>
      </trkpt>
      <trkpt lat="42.345677" lon="-7.933000">
        <ele>145.086</ele>
        <time>2019-06-22T11:35:45Z</time>
      </trkpt>
      <trkpt lat="42.345792" lon="-7.932733">
        <ele>145.075</ele>
        <time>2019-06-22T11:35:46Z</time>
      </trkpt>
      <trkpt lat="42.345904" lon="-7.932462">
        <ele>145.410</ele>
        <time>2019-06-22T11:35:47Z</time>
      </trkpt>
      <trkpt lat="42.346006" lon="-7.932200">
        <ele>145.933</ele>
        <time>2019-06-22T11:35:48Z</time>
      </trkpt>
      <trkpt lat="42.346097" lon="-7.931934">
        <ele>146.794</ele>
        <time>2019-06-22T11:35:49Z</time>
      </trkpt>
      <trkpt lat="42.346202" lon="-7.931670">
        <ele>147.757</ele>
        <time>2019-06-22T11:35:50Z</time>
      </trkpt>
      <trkpt lat="42.346304" lon="-7.931426">
        <ele>147.722</ele>
        <time>2019-06-22T11:35:51Z</time>
      </trkpt>
      <trkpt lat="42.346355" lon="-7.931197">
        <ele>147.708</ele>
        <time>2019-06-22T11:35:52Z</time>
      </trkpt>
      <trkpt lat="42.346460" lon="-7.930972">
        <ele>147.782</ele>
        <time>2019-06-22T11:35:53Z</time>
      </trkpt>
      <trkpt lat="42.346556" lon="-7.930752">
        <ele>149.636</ele>
        <time>2019-06-22T11:35:54Z</time>
      </trkpt>
      <trkpt lat="42.346667" lon="-7.930530">
        <ele>151.178</ele>
        <time>2019-06-22T11:35:55Z</time>
      </trkpt>
      <trkpt lat="42.346795" lon="-7.930316">
        <ele>153.870</ele>
        <time>2019-06-22T11:35:56Z</time>
      </trkpt>
      <trkpt lat="42.346940" lon="-7.930126">
        <ele>156.658</ele>
        <time>2019-06-22T11:35:57Z</time>
      </trkpt>
      <trkpt lat="42.347101" lon="-7.929921">
        <ele>158.677</ele>
        <time>2019-06-22T11:35:58Z</time>
      </trkpt>
      <trkpt lat="42.347268" lon="-7.929722">
        <ele>159.072</ele>
        <time>2019-06-22T11:35:59Z</time>
      </trkpt>
      <trkpt lat="42.347452" lon="-7.929525">
        <ele>159.595</ele>
        <time>2019-06-22T11:36:00Z</time>
      </trkpt>
      <trkpt lat="42.347643" lon="-7.929336">
        <ele>159.514</ele>
        <time>2019-06-22T11:36:01Z</time>
      </trkpt>
      <trkpt lat="42.347829" lon="-7.929146">
        <ele>158.554</ele>
        <time>2019-06-22T11:36:02Z</time>
      </trkpt>
      <trkpt lat="42.348014" lon="-7.928954">
        <ele>157.009</ele>
        <time>2019-06-22T11:36:03Z</time>
      </trkpt>
      <trkpt lat="42.348186" lon="-7.928771">
        <ele>155.608</ele>
        <time>2019-06-22T11:36:04Z</time>
      </trkpt>
      <trkpt lat="42.348359" lon="-7.928582">
        <ele>154.024</ele>
        <time>2019-06-22T11:36:05Z</time>
      </trkpt>
      <trkpt lat="42.348524" lon="-7.928378">
        <ele>151.948</ele>
        <time>2019-06-22T11:36:06Z</time>
      </trkpt>
      <trkpt lat="42.348678" lon="-7.928165">
        <ele>150.820</ele>
        <time>2019-06-22T11:36:07Z</time>
      </trkpt>
      <trkpt lat="42.348818" lon="-7.927935">
        <ele>150.622</ele>
        <time>2019-06-22T11:36:08Z</time>
      </trkpt>
      <trkpt lat="42.348947" lon="-7.927693">
        <ele>150.610</ele>
        <time>2019-06-22T11:36:09Z</time>
      </trkpt>
      <trkpt lat="42.349061" lon="-7.927446">
        <ele>150.549</ele>
        <time>2019-06-22T11:36:10Z</time>
      </trkpt>
      <trkpt lat="42.349151" lon="-7.927187">
        <ele>150.294</ele>
        <time>2019-06-22T11:36:11Z</time>
      </trkpt>
      <trkpt lat="42.349188" lon="-7.926917">
        <ele>149.777</ele>
        <time>2019-06-22T11:36:12Z</time>
      </trkpt>
      <trkpt lat="42.349213" lon="-7.926630">
        <ele>148.237</ele>
        <time>2019-06-22T11:36:13Z</time>
      </trkpt>
      <trkpt lat="42.349217" lon="-7.926333">
        <ele>147.449</ele>
        <time>2019-06-22T11:36:14Z</time>
      </trkpt>
      <trkpt lat="42.349216" lon="-7.926036">
        <ele>146.813</ele>
        <time>2019-06-22T11:36:15Z</time>
      </trkpt>
      <trkpt lat="42.349176" lon="-7.925731">
        <ele>146.808</ele>
        <time>2019-06-22T11:36:16Z</time>
      </trkpt>
      <trkpt lat="42.349121" lon="-7.925442">
        <ele>147.426</ele>
        <time>2019-06-22T11:36:17Z</time>
      </trkpt>
      <trkpt lat="42.349058" lon="-7.925159">
        <ele>148.810</ele>
        <time>2019-06-22T11:36:18Z</time>
      </trkpt>
      <trkpt lat="42.348985" lon="-7.924885">
        <ele>149.432</ele>
        <time>2019-06-22T11:36:19Z</time>
      </trkpt>
      <trkpt lat="42.348916" lon="-7.924602">
        <ele>150.264</ele>
        <time>2019-06-22T11:36:20Z</time>
      </trkpt>
      <trkpt lat="42.348837" lon="-7.924291">
        <ele>151.272</ele>
        <time>2019-06-22T11:36:21Z</time>
      </trkpt>
      <trkpt lat="42.348792" lon="-7.923984">
        <ele>151.241</ele>
        <time>2019-06-22T11:36:22Z</time>
      </trkpt>
      <trkpt lat="42.348740" lon="-7.923677">
        <ele>150.256</ele>
        <time>2019-06-22T11:36:23Z</time>
      </trkpt>
      <trkpt lat="42.348717" lon="-7.923331">
        <ele>150.189</ele>
        <time>2019-06-22T11:36:24Z</time>
      </trkpt>
      <trkpt lat="42.348683" lon="-7.923004">
        <ele>149.668</ele>
        <time>2019-06-22T11:36:25Z</time>
      </trkpt>
      <trkpt lat="42.348745" lon="-7.922712">
        <ele>148.342</ele>
        <time>2019-06-22T11:36:26Z</time>
      </trkpt>
      <trkpt lat="42.348822" lon="-7.922400">
        <ele>147.226</ele>
        <time>2019-06-22T11:36:27Z</time>
      </trkpt>
      <trkpt lat="42.348885" lon="-7.922080">
        <ele>146.808</ele>
        <time>2019-06-22T11:36:28Z</time>
      </trkpt>
      <trkpt lat="42.348968" lon="-7.921755">
        <ele>144.949</ele>
        <time>2019-06-22T11:36:29Z</time>
      </trkpt>
      <trkpt lat="42.349065" lon="-7.921434">
        <ele>143.413</ele>
        <time>2019-06-22T11:36:30Z</time>
      </trkpt>
      <trkpt lat="42.349168" lon="-7.921134">
        <ele>142.415</ele>
        <time>2019-06-22T11:36:31Z</time>
      </trkpt>
      <trkpt lat="42.349273" lon="-7.920827">
        <ele>141.557</ele>
        <time>2019-06-22T11:36:32Z</time>
      </trkpt>
      <trkpt lat="42.349388" lon="-7.920526">
        <ele>140.335</ele>
        <time>2019-06-22T11:36:33Z</time>
      </trkpt>
      <trkpt lat="42.349514" lon="-7.920219">
        <ele>139.744</ele>
        <time>2019-06-22T11:36:34Z</time>
      </trkpt>
      <trkpt lat="42.349639" lon="-7.919932">
        <ele>139.719</ele>
        <time>2019-06-22T11:36:35Z</time>
      </trkpt>
      <trkpt lat="42.349778" lon="-7.919648">
        <ele>138.592</ele>
        <time>2019-06-22T11:36:36Z</time>
      </trkpt>
      <trkpt lat="42.349921" lon="-7.919381">
        <ele>136.035</ele>
        <time>2019-06-22T11:36:37Z</time>
      </trkpt>
      <trkpt lat="42.350061" lon="-7.919113">
        <ele>133.786</ele>
        <time>2019-06-22T11:36:38Z</time>
      </trkpt>
      <trkpt lat="42.350199" lon="-7.918852">
        <ele>131.314</ele>
        <time>2019-06-22T11:36:39Z</time>
      </trkpt>
      <trkpt lat="42.350331" lon="-7.918596">
        <ele>129.108</ele>
        <time>2019-06-22T11:36:40Z</time>
      </trkpt>
      <trkpt lat="42.350457" lon="-7.918343">
        <ele>128.146</ele>
        <time>2019-06-22T11:36:41Z</time>
      </trkpt>
      <trkpt lat="42.350576" lon="-7.918084">
        <ele>126.940</ele>
        <time>2019-06-22T11:36:42Z</time>
      </trkpt>
      <trkpt lat="42.350692" lon="-7.917826">
        <ele>125.692</ele>
        <time>2019-06-22T11:36:43Z</time>
      </trkpt>
      <trkpt lat="42.350789" lon="-7.917566">
        <ele>125.624</ele>
        <time>2019-06-22T11:36:44Z</time>
      </trkpt>
      <trkpt lat="42.350867" lon="-7.917295">
        <ele>125.472</ele>
        <time>2019-06-22T11:36:45Z</time>
      </trkpt>
      <trkpt lat="42.350920" lon="-7.917034">
        <ele>123.371</ele>
        <time>2019-06-22T11:36:46Z</time>
      </trkpt>
      <trkpt lat="42.350965" lon="-7.916782">
        <ele>122.076</ele>
        <time>2019-06-22T11:36:47Z</time>
      </trkpt>
      <trkpt lat="42.350998" lon="-7.916512">
        <ele>120.429</ele>
        <time>2019-06-22T11:36:48Z</time>
      </trkpt>
      <trkpt lat="42.351030" lon="-7.916244">
        <ele>117.882</ele>
        <time>2019-06-22T11:36:49Z</time>
      </trkpt>
      <trkpt lat="42.351059" lon="-7.915992">
        <ele>115.543</ele>
        <time>2019-06-22T11:36:50Z</time>
      </trkpt>
      <trkpt lat="42.351108" lon="-7.915746">
        <ele>114.417</ele>
        <time>2019-06-22T11:36:51Z</time>
      </trkpt>
      <trkpt lat="42.351164" lon="-7.915502">
        <ele>113.708</ele>
        <time>2019-06-22T11:36:52Z</time>
      </trkpt>
      <trkpt lat="42.351244" lon="-7.915273">
        <ele>113.671</ele>
        <time>2019-06-22T11:36:53Z</time>
      </trkpt>
      <trkpt lat="42.351323" lon="-7.915040">
        <ele>113.125</ele>
        <time>2019-06-22T11:36:54Z</time>
      </trkpt>
      <trkpt lat="42.351401" lon="-7.914808">
        <ele>112.957</ele>
        <time>2019-06-22T11:36:55Z</time>
      </trkpt>
      <trkpt lat="42.351470" lon="-7.914568">
        <ele>112.039</ele>
        <time>2019-06-22T11:36:56Z</time>
      </trkpt>
      <trkpt lat="42.351516" lon="-7.914325">
        <ele>111.277</ele>
        <time>2019-06-22T11:36:57Z</time>
      </trkpt>
      <trkpt lat="42.351560" lon="-7.914067">
        <ele>111.096</ele>
        <time>2019-06-22T11:36:58Z</time>
      </trkpt>
      <trkpt lat="42.351595" lon="-7.913825">
        <ele>111.021</ele>
        <time>2019-06-22T11:36:59Z</time>
      </trkpt>
      <trkpt lat="42.351608" lon="-7.913577">
        <ele>110.964</ele>
        <time>2019-06-22T11:37:00Z</time>
      </trkpt>
      <trkpt lat="42.351606" lon="-7.913318">
        <ele>110.615</ele>
        <time>2019-06-22T11:37:01Z</time>
      </trkpt>
      <trkpt lat="42.351609" lon="-7.913050">
        <ele>110.665</ele>
        <time>2019-06-22T11:37:02Z</time>
      </trkpt>
      <trkpt lat="42.351606" lon="-7.912775">
        <ele>109.111</ele>
        <time>2019-06-22T11:37:03Z</time>
      </trkpt>
      <trkpt lat="42.351600" lon="-7.912499">
        <ele>107.508</ele>
        <time>2019-06-22T11:37:04Z</time>
      </trkpt>
      <trkpt lat="42.351584" lon="-7.912236">
        <ele>106.164</ele>
        <time>2019-06-22T11:37:05Z</time>
      </trkpt>
      <trkpt lat="42.351586" lon="-7.911954">
        <ele>104.958</ele>
        <time>2019-06-22T11:37:06Z</time>
      </trkpt>
      <trkpt lat="42.351607" lon="-7.911681">
        <ele>104.760</ele>
        <time>2019-06-22T11:37:07Z</time>
      </trkpt>
      <trkpt lat="42.351648" lon="-7.911406">
        <ele>104.522</ele>
        <time>2019-06-22T11:37:08Z</time>
      </trkpt>
      <trkpt lat="42.351697" lon="-7.911146">
        <ele>104.590</ele>
        <time>2019-06-22T11:37:09Z</time>
      </trkpt>
      <trkpt lat="42.351752" lon="-7.910882">
        <ele>104.149</ele>
        <time>2019-06-22T11:37:10Z</time>
      </trkpt>
      <trkpt lat="42.351805" lon="-7.910614">
        <ele>103.514</ele>
        <time>2019-06-22T11:37:11Z</time>
      </trkpt>
      <trkpt lat="42.351864" lon="-7.910368">
        <ele>102.437</ele>
        <time>2019-06-22T11:37:12Z</time>
      </trkpt>
      <trkpt lat="42.351904" lon="-7.910084">
        <ele>100.729</ele>
        <time>2019-06-22T11:37:13Z</time>
      </trkpt>
      <trkpt lat="42.351937" lon="-7.909794">
        <ele>99.500</ele>
        <time>2019-06-22T11:37:14Z</time>
      </trkpt>
      <trkpt lat="42.351962" lon="-7.909503">
        <ele>98.920</ele>
        <time>2019-06-22T11:37:15Z</time>
      </trkpt>
      <trkpt lat="42.351976" lon="-7.909209">
        <ele>98.108</ele>
        <time>2019-06-22T11:37:16Z</time>
      </trkpt>
      <trkpt lat="42.351989" lon="-7.908914">
        <ele>98.125</ele>
        <time>2019-06-22T11:37:17Z</time>
      </trkpt>
      <trkpt lat="42.352002" lon="-7.908633">
        <ele>98.729</ele>
        <time>2019-06-22T11:37:18Z</time>
      </trkpt>
      <trkpt lat="42.352021" lon="-7.908356">
        <ele>98.921</ele>
        <time>2019-06-22T11:37:19Z</time>
      </trkpt>
      <trkpt lat="42.352046" lon="-7.908089">
        <ele>99.093</ele>
        <time>2019-06-22T11:37:20Z</time>
      </trkpt>
      <trkpt lat="42.352078" lon="-7.907826">
        <ele>99.081</ele>
        <time>2019-06-22T11:37:21Z</time>
      </trkpt>
      <trkpt lat="42.352128" lon="-7.907556">
        <ele>99.620</ele>
        <time>2019-06-22T11:37:22Z</time>
      </trkpt>
      <trkpt lat="42.352184" lon="-7.907290">
        <ele>100.035</ele>
        <time>2019-06-22T11:37:23Z</time>
      </trkpt>
      <trkpt lat="42.352254" lon="-7.907026">
        <ele>100.368</ele>
        <time>2019-06-22T11:37:24Z</time>
      </trkpt>
      <trkpt lat="42.352333" lon="-7.906769">
        <ele>100.839</ele>
        <time>2019-06-22T11:37:25Z</time>
      </trkpt>
      <trkpt lat="42.352413" lon="-7.906510">
        <ele>101.101</ele>
        <time>2019-06-22T11:37:26Z</time>
      </trkpt>
      <trkpt lat="42.352512" lon="-7.906258">
        <ele>101.121</ele>
        <time>2019-06-22T11:37:27Z</time>
      </trkpt>
      <trkpt lat="42.352624" lon="-7.906014">
        <ele>100.908</ele>
        <time>2019-06-22T11:37:28Z</time>
      </trkpt>
      <trkpt lat="42.352739" lon="-7.905787">
        <ele>100.776</ele>
        <time>2019-06-22T11:37:29Z</time>
      </trkpt>
      <trkpt lat="42.352864" lon="-7.905552">
        <ele>100.780</ele>
        <time>2019-06-22T11:37:30Z</time>
      </trkpt>
      <trkpt lat="42.352978" lon="-7.905327">
        <ele>100.242</ele>
        <time>2019-06-22T11:37:31Z</time>
      </trkpt>
      <trkpt lat="42.353092" lon="-7.905085">
        <ele>99.964</ele>
        <time>2019-06-22T11:37:32Z</time>
      </trkpt>
      <trkpt lat="42.353197" lon="-7.904852">
        <ele>99.432</ele>
        <time>2019-06-22T11:37:33Z</time>
      </trkpt>
      <trkpt lat="42.353303" lon="-7.904613">
        <ele>99.091</ele>
        <time>2019-06-22T11:37:34Z</time>
      </trkpt>
      <trkpt lat="42.353396" lon="-7.904353">
        <ele>98.926</ele>
        <time>2019-06-22T11:37:35Z</time>
      </trkpt>
      <trkpt lat="42.353469" lon="-7.904086">
        <ele>98.919</ele>
        <time>2019-06-22T11:37:36Z</time>
      </trkpt>
      <trkpt lat="42.353527" lon="-7.903821">
        <ele>98.999</ele>
        <time>2019-06-22T11:37:37Z</time>
      </trkpt>
      <trkpt lat="42.353568" lon="-7.903539">
        <ele>98.807</ele>
        <time>2019-06-22T11:37:38Z</time>
      </trkpt>
      <trkpt lat="42.353615" lon="-7.903256">
        <ele>98.827</ele>
        <time>2019-06-22T11:37:39Z</time>
      </trkpt>
      <trkpt lat="42.353640" lon="-7.902966">
        <ele>98.708</ele>
        <time>2019-06-22T11:37:40Z</time>
      </trkpt>
      <trkpt lat="42.353659" lon="-7.902679">
        <ele>98.122</ele>
        <time>2019-06-22T11:37:41Z</time>
      </trkpt>
      <trkpt lat="42.353684" lon="-7.902390">
        <ele>97.996</ele>
        <time>2019-06-22T11:37:42Z</time>
      </trkpt>
      <trkpt lat="42.353701" lon="-7.902111">
        <ele>97.948</ele>
        <time>2019-06-22T11:37:43Z</time>
      </trkpt>
      <trkpt lat="42.353736" lon="-7.901838">
        <ele>97.640</ele>
        <time>2019-06-22T11:37:44Z</time>
      </trkpt>
      <trkpt lat="42.353766" lon="-7.901561">
        <ele>97.638</ele>
        <time>2019-06-22T11:37:45Z</time>
      </trkpt>
      <trkpt lat="42.353806" lon="-7.901286">
        <ele>98.437</ele>
        <time>2019-06-22T11:37:46Z</time>
      </trkpt>
      <trkpt lat="42.353850" lon="-7.901011">
        <ele>99.652</ele>
        <time>2019-06-22T11:37:47Z</time>
      </trkpt>
      <trkpt lat="42.353899" lon="-7.900739">
        <ele>99.885</ele>
        <time>2019-06-22T11:37:48Z</time>
      </trkpt>
      <trkpt lat="42.353949" lon="-7.900471">
        <ele>100.598</ele>
        <time>2019-06-22T11:37:49Z</time>
      </trkpt>
      <trkpt lat="42.354000" lon="-7.900204">
        <ele>100.515</ele>
        <time>2019-06-22T11:37:50Z</time>
      </trkpt>
      <trkpt lat="42.354049" lon="-7.899938">
        <ele>100.026</ele>
        <time>2019-06-22T11:37:51Z</time>
      </trkpt>
      <trkpt lat="42.354103" lon="-7.899682">
        <ele>99.608</ele>
        <time>2019-06-22T11:37:52Z</time>
      </trkpt>
      <trkpt lat="42.354148" lon="-7.899403">
        <ele>99.432</ele>
        <time>2019-06-22T11:37:53Z</time>
      </trkpt>
      <trkpt lat="42.354201" lon="-7.899123">
        <ele>99.376</ele>
        <time>2019-06-22T11:37:54Z</time>
      </trkpt>
      <trkpt lat="42.354249" lon="-7.898847">
        <ele>99.478</ele>
        <time>2019-06-22T11:37:55Z</time>
      </trkpt>
      <trkpt lat="42.354299" lon="-7.898567">
        <ele>99.950</ele>
        <time>2019-06-22T11:37:56Z</time>
      </trkpt>
      <trkpt lat="42.354336" lon="-7.898292">
        <ele>100.218</ele>
        <time>2019-06-22T11:37:57Z</time>
      </trkpt>
      <trkpt lat="42.354387" lon="-7.898017">
        <ele>100.267</ele>
        <time>2019-06-22T11:37:58Z</time>
      </trkpt>
      <trkpt lat="42.354428" lon="-7.897753">
        <ele>100.182</ele>
        <time>2019-06-22T11:37:59Z</time>
      </trkpt>
      <trkpt lat="42.354477" lon="-7.897485">
        <ele>100.035</ele>
        <time>2019-06-22T11:38:00Z</time>
      </trkpt>
      <trkpt lat="42.354520" lon="-7.897195">
        <ele>99.775</ele>
        <time>2019-06-22T11:38:01Z</time>
      </trkpt>
      <trkpt lat="42.354562" lon="-7.896902">
        <ele>99.328</ele>
        <time>2019-06-22T11:38:02Z</time>
      </trkpt>
      <trkpt lat="42.354594" lon="-7.896602">
        <ele>99.320</ele>
        <time>2019-06-22T11:38:03Z</time>
      </trkpt>
      <trkpt lat="42.354629" lon="-7.896291">
        <ele>99.308</ele>
        <time>2019-06-22T11:38:04Z</time>
      </trkpt>
      <trkpt lat="42.354654" lon="-7.895985">
        <ele>99.270</ele>
        <time>2019-06-22T11:38:05Z</time>
      </trkpt>
      <trkpt lat="42.354699" lon="-7.895677">
        <ele>98.734</ele>
        <time>2019-06-22T11:38:06Z</time>
      </trkpt>
      <trkpt lat="42.354733" lon="-7.895369">
        <ele>98.686</ele>
        <time>2019-06-22T11:38:07Z</time>
      </trkpt>
      <trkpt lat="42.354742" lon="-7.895075">
        <ele>98.668</ele>
        <time>2019-06-22T11:38:08Z</time>
      </trkpt>
      <trkpt lat="42.354755" lon="-7.894766">
        <ele>98.676</ele>
        <time>2019-06-22T11:38:09Z</time>
      </trkpt>
      <trkpt lat="42.354760" lon="-7.894458">
        <ele>98.615</ele>
        <time>2019-06-22T11:38:10Z</time>
      </trkpt>
      <trkpt lat="42.354769" lon="-7.894151">
        <ele>98.640</ele>
        <time>2019-06-22T11:38:11Z</time>
      </trkpt>
      <trkpt lat="42.354761" lon="-7.893842">
        <ele>98.613</ele>
        <time>2019-06-22T11:38:12Z</time>
      </trkpt>
      <trkpt lat="42.354758" lon="-7.893539">
        <ele>97.627</ele>
        <time>2019-06-22T11:38:13Z</time>
      </trkpt>
      <trkpt lat="42.354739" lon="-7.893227">
        <ele>96.568</ele>
        <time>2019-06-22T11:38:14Z</time>
      </trkpt>
      <trkpt lat="42.354728" lon="-7.892913">
        <ele>96.214</ele>
        <time>2019-06-22T11:38:15Z</time>
      </trkpt>
      <trkpt lat="42.354714" lon="-7.892599">
        <ele>96.108</ele>
        <time>2019-06-22T11:38:16Z</time>
      </trkpt>
      <trkpt lat="42.354700" lon="-7.892283">
        <ele>96.175</ele>
        <time>2019-06-22T11:38:17Z</time>
      </trkpt>
      <trkpt lat="42.354674" lon="-7.892005">
        <ele>97.269</ele>
        <time>2019-06-22T11:38:18Z</time>
      </trkpt>
      <trkpt lat="42.354657" lon="-7.891704">
        <ele>97.781</ele>
        <time>2019-06-22T11:38:19Z</time>
      </trkpt>
      <trkpt lat="42.354642" lon="-7.891409">
        <ele>98.213</ele>
        <time>2019-06-22T11:38:20Z</time>
      </trkpt>
      <trkpt lat="42.354650" lon="-7.891087">
        <ele>98.791</ele>
        <time>2019-06-22T11:38:21Z</time>
      </trkpt>
      <trkpt lat="42.354628" lon="-7.890807">
        <ele>98.850</ele>
        <time>2019-06-22T11:38:22Z</time>
      </trkpt>
      <trkpt lat="42.354611" lon="-7.890512">
        <ele>98.875</ele>
        <time>2019-06-22T11:38:23Z</time>
      </trkpt>
      <trkpt lat="42.354608" lon="-7.890247">
        <ele>98.328</ele>
        <time>2019-06-22T11:38:24Z</time>
      </trkpt>
      <trkpt lat="42.354595" lon="-7.889960">
        <ele>97.816</ele>
        <time>2019-06-22T11:38:25Z</time>
      </trkpt>
      <trkpt lat="42.354592" lon="-7.889681">
        <ele>97.776</ele>
        <time>2019-06-22T11:38:26Z</time>
      </trkpt>
      <trkpt lat="42.354574" lon="-7.889389">
        <ele>97.713</ele>
        <time>2019-06-22T11:38:27Z</time>
      </trkpt>
      <trkpt lat="42.354575" lon="-7.889126">
        <ele>98.308</ele>
        <time>2019-06-22T11:38:28Z</time>
      </trkpt>
      <trkpt lat="42.354573" lon="-7.888859">
        <ele>98.844</ele>
        <time>2019-06-22T11:38:29Z</time>
      </trkpt>
      <trkpt lat="42.354554" lon="-7.888578">
        <ele>99.768</ele>
        <time>2019-06-22T11:38:30Z</time>
      </trkpt>
      <trkpt lat="42.354533" lon="-7.888295">
        <ele>100.610</ele>
        <time>2019-06-22T11:38:31Z</time>
      </trkpt>
      <trkpt lat="42.354521" lon="-7.887994">
        <ele>101.242</ele>
        <time>2019-06-22T11:38:32Z</time>
      </trkpt>
      <trkpt lat="42.354504" lon="-7.887697">
        <ele>101.630</ele>
        <time>2019-06-22T11:38:33Z</time>
      </trkpt>
      <trkpt lat="42.354483" lon="-7.887406">
        <ele>101.619</ele>
        <time>2019-06-22T11:38:34Z</time>
      </trkpt>
      <trkpt lat="42.354448" lon="-7.887114">
        <ele>101.374</ele>
        <time>2019-06-22T11:38:35Z</time>
      </trkpt>
      <trkpt lat="42.354405" lon="-7.886823">
        <ele>101.397</ele>
        <time>2019-06-22T11:38:36Z</time>
      </trkpt>
      <trkpt lat="42.354341" lon="-7.886536">
        <ele>101.125</ele>
        <time>2019-06-22T11:38:37Z</time>
      </trkpt>
      <trkpt lat="42.354291" lon="-7.886271">
        <ele>101.126</ele>
        <time>2019-06-22T11:38:38Z</time>
      </trkpt>
      <trkpt lat="42.354106" lon="-7.886014">
        <ele>101.108</ele>
        <time>2019-06-22T11:38:39Z</time>
      </trkpt>
      <trkpt lat="42.354010" lon="-7.885754">
        <ele>101.308</ele>
        <time>2019-06-22T11:38:40Z</time>
      </trkpt>
      <trkpt lat="42.353915" lon="-7.885503">
        <ele>102.485</ele>
        <time>2019-06-22T11:38:41Z</time>
      </trkpt>
      <trkpt lat="42.353812" lon="-7.885260">
        <ele>102.559</ele>
        <time>2019-06-22T11:38:42Z</time>
      </trkpt>
      <trkpt lat="42.353724" lon="-7.885034">
        <ele>102.651</ele>
        <time>2019-06-22T11:38:43Z</time>
      </trkpt>
      <trkpt lat="42.353625" lon="-7.884819">
        <ele>102.773</ele>
        <time>2019-06-22T11:38:44Z</time>
      </trkpt>
      <trkpt lat="42.353529" lon="-7.884610">
        <ele>103.311</ele>
        <time>2019-06-22T11:38:45Z</time>
      </trkpt>
      <trkpt lat="42.353444" lon="-7.884404">
        <ele>104.070</ele>
        <time>2019-06-22T11:38:46Z</time>
      </trkpt>
      <trkpt lat="42.353352" lon="-7.884188">
        <ele>104.815</ele>
        <time>2019-06-22T11:38:47Z</time>
      </trkpt>
      <trkpt lat="42.353267" lon="-7.883983">
        <ele>106.058</ele>
        <time>2019-06-22T11:38:48Z</time>
      </trkpt>
      <trkpt lat="42.353188" lon="-7.883753">
        <ele>107.199</ele>
        <time>2019-06-22T11:38:49Z</time>
      </trkpt>
      <trkpt lat="42.353108" lon="-7.883526">
        <ele>107.607</ele>
        <time>2019-06-22T11:38:50Z</time>
      </trkpt>
      <trkpt lat="42.353020" lon="-7.883276">
        <ele>108.127</ele>
        <time>2019-06-22T11:38:51Z</time>
      </trkpt>
      <trkpt lat="42.352943" lon="-7.883046">
        <ele>108.808</ele>
        <time>2019-06-22T11:38:52Z</time>
      </trkpt>
      <trkpt lat="42.352866" lon="-7.882822">
        <ele>109.112</ele>
        <time>2019-06-22T11:38:53Z</time>
      </trkpt>
      <trkpt lat="42.352828" lon="-7.882631">
        <ele>109.276</ele>
        <time>2019-06-22T11:38:54Z</time>
      </trkpt>
      <trkpt lat="42.352757" lon="-7.882400">
        <ele>109.728</ele>
        <time>2019-06-22T11:38:55Z</time>
      </trkpt>
      <trkpt lat="42.352690" lon="-7.882166">
        <ele>110.070</ele>
        <time>2019-06-22T11:38:56Z</time>
      </trkpt>
      <trkpt lat="42.352645" lon="-7.881958">
        <ele>110.438</ele>
        <time>2019-06-22T11:38:57Z</time>
      </trkpt>
      <trkpt lat="42.352570" lon="-7.881706">
        <ele>111.127</ele>
        <time>2019-06-22T11:38:58Z</time>
      </trkpt>
      <trkpt lat="42.352486" lon="-7.881472">
        <ele>111.852</ele>
        <time>2019-06-22T11:38:59Z</time>
      </trkpt>
      <trkpt lat="42.352390" lon="-7.881239">
        <ele>111.835</ele>
        <time>2019-06-22T11:39:00Z</time>
      </trkpt>
      <trkpt lat="42.352286" lon="-7.881021">
        <ele>111.373</ele>
        <time>2019-06-22T11:39:01Z</time>
      </trkpt>
      <trkpt lat="42.352159" lon="-7.880788">
        <ele>109.685</ele>
        <time>2019-06-22T11:39:02Z</time>
      </trkpt>
      <trkpt lat="42.352019" lon="-7.880578">
        <ele>109.613</ele>
        <time>2019-06-22T11:39:03Z</time>
      </trkpt>
      <trkpt lat="42.351872" lon="-7.880374">
        <ele>109.108</ele>
        <time>2019-06-22T11:39:04Z</time>
      </trkpt>
      <trkpt lat="42.351719" lon="-7.880189">
        <ele>108.980</ele>
        <time>2019-06-22T11:39:05Z</time>
      </trkpt>
      <trkpt lat="42.351557" lon="-7.880003">
        <ele>108.984</ele>
        <time>2019-06-22T11:39:06Z</time>
      </trkpt>
      <trkpt lat="42.351392" lon="-7.879803">
        <ele>108.976</ele>
        <time>2019-06-22T11:39:07Z</time>
      </trkpt>
      <trkpt lat="42.351231" lon="-7.879624">
        <ele>109.828</ele>
        <time>2019-06-22T11:39:08Z</time>
      </trkpt>
      <trkpt lat="42.351040" lon="-7.879411">
        <ele>110.636</ele>
        <time>2019-06-22T11:39:09Z</time>
      </trkpt>
      <trkpt lat="42.350904" lon="-7.879249">
        <ele>111.235</ele>
        <time>2019-06-22T11:39:10Z</time>
      </trkpt>
      <trkpt lat="42.350752" lon="-7.879059">
        <ele>111.840</ele>
        <time>2019-06-22T11:39:11Z</time>
      </trkpt>
      <trkpt lat="42.350616" lon="-7.878901">
        <ele>112.713</ele>
        <time>2019-06-22T11:39:12Z</time>
      </trkpt>
      <trkpt lat="42.350422" lon="-7.878732">
        <ele>113.129</ele>
        <time>2019-06-22T11:39:13Z</time>
      </trkpt>
      <trkpt lat="42.350238" lon="-7.878555">
        <ele>113.100</ele>
        <time>2019-06-22T11:39:14Z</time>
      </trkpt>
      <trkpt lat="42.350079" lon="-7.878412">
        <ele>112.920</ele>
        <time>2019-06-22T11:39:15Z</time>
      </trkpt>
      <trkpt lat="42.349925" lon="-7.878281">
        <ele>112.708</ele>
        <time>2019-06-22T11:39:16Z</time>
      </trkpt>
      <trkpt lat="42.349785" lon="-7.878169">
        <ele>112.485</ele>
        <time>2019-06-22T11:39:17Z</time>
      </trkpt>
      <trkpt lat="42.349644" lon="-7.878063">
        <ele>112.479</ele>
        <time>2019-06-22T11:39:18Z</time>
      </trkpt>
      <trkpt lat="42.349522" lon="-7.877986">
        <ele>113.131</ele>
        <time>2019-06-22T11:39:19Z</time>
      </trkpt>
      <trkpt lat="42.349391" lon="-7.877902">
        <ele>113.643</ele>
        <time>2019-06-22T11:39:20Z</time>
      </trkpt>
      <trkpt lat="42.349255" lon="-7.877798">
        <ele>114.881</ele>
        <time>2019-06-22T11:39:21Z</time>
      </trkpt>
      <trkpt lat="42.349128" lon="-7.877698">
        <ele>116.470</ele>
        <time>2019-06-22T11:39:22Z</time>
      </trkpt>
      <trkpt lat="42.348995" lon="-7.877561">
        <ele>117.385</ele>
        <time>2019-06-22T11:39:23Z</time>
      </trkpt>
      <trkpt lat="42.348853" lon="-7.877406">
        <ele>117.718</ele>
        <time>2019-06-22T11:39:24Z</time>
      </trkpt>
      <trkpt lat="42.348721" lon="-7.877251">
        <ele>118.398</ele>
        <time>2019-06-22T11:39:25Z</time>
      </trkpt>
      <trkpt lat="42.348613" lon="-7.877138">
        <ele>118.315</ele>
        <time>2019-06-22T11:39:26Z</time>
      </trkpt>
      <trkpt lat="42.348477" lon="-7.876993">
        <ele>118.126</ele>
        <time>2019-06-22T11:39:27Z</time>
      </trkpt>
      <trkpt lat="42.348361" lon="-7.876864">
        <ele>117.508</ele>
        <time>2019-06-22T11:39:28Z</time>
      </trkpt>
      <trkpt lat="42.348249" lon="-7.876721">
        <ele>117.192</ele>
        <time>2019-06-22T11:39:29Z</time>
      </trkpt>
      <trkpt lat="42.348142" lon="-7.876613">
        <ele>116.926</ele>
        <time>2019-06-22T11:39:30Z</time>
      </trkpt>
      <trkpt lat="42.348027" lon="-7.876484">
        <ele>116.578</ele>
        <time>2019-06-22T11:39:31Z</time>
      </trkpt>
      <trkpt lat="42.347902" lon="-7.876353">
        <ele>116.240</ele>
        <time>2019-06-22T11:39:32Z</time>
      </trkpt>
      <trkpt lat="42.347789" lon="-7.876230">
        <ele>116.138</ele>
        <time>2019-06-22T11:39:33Z</time>
      </trkpt>
      <trkpt lat="42.347718" lon="-7.876133">
        <ele>115.847</ele>
        <time>2019-06-22T11:39:34Z</time>
      </trkpt>
      <trkpt lat="42.347611" lon="-7.876013">
        <ele>115.842</ele>
        <time>2019-06-22T11:39:35Z</time>
      </trkpt>
      <trkpt lat="42.347510" lon="-7.875908">
        <ele>115.745</ele>
        <time>2019-06-22T11:39:36Z</time>
      </trkpt>
      <trkpt lat="42.347406" lon="-7.875796">
        <ele>115.712</ele>
        <time>2019-06-22T11:39:37Z</time>
      </trkpt>
      <trkpt lat="42.347297" lon="-7.875694">
        <ele>115.232</ele>
        <time>2019-06-22T11:39:38Z</time>
      </trkpt>
      <trkpt lat="42.347186" lon="-7.875578">
        <ele>115.205</ele>
        <time>2019-06-22T11:39:39Z</time>
      </trkpt>
      <trkpt lat="42.347085" lon="-7.875484">
        <ele>114.808</ele>
        <time>2019-06-22T11:39:40Z</time>
      </trkpt>
      <trkpt lat="42.346981" lon="-7.875436">
        <ele>114.264</ele>
        <time>2019-06-22T11:39:41Z</time>
      </trkpt>
      <trkpt lat="42.346892" lon="-7.875390">
        <ele>113.838</ele>
        <time>2019-06-22T11:39:42Z</time>
      </trkpt>
      <trkpt lat="42.346787" lon="-7.875342">
        <ele>113.780</ele>
        <time>2019-06-22T11:39:43Z</time>
      </trkpt>
      <trkpt lat="42.346686" lon="-7.875331">
        <ele>113.642</ele>
        <time>2019-06-22T11:39:44Z</time>
      </trkpt>
      <trkpt lat="42.346569" lon="-7.875337">
        <ele>113.710</ele>
        <time>2019-06-22T11:39:45Z</time>
      </trkpt>
      <trkpt lat="42.346453" lon="-7.875361">
        <ele>113.619</ele>
        <time>2019-06-22T11:39:46Z</time>
      </trkpt>
      <trkpt lat="42.346330" lon="-7.875385">
        <ele>113.664</ele>
        <time>2019-06-22T11:39:47Z</time>
      </trkpt>
      <trkpt lat="42.346214" lon="-7.875426">
        <ele>113.357</ele>
        <time>2019-06-22T11:39:48Z</time>
      </trkpt>
      <trkpt lat="42.346108" lon="-7.875476">
        <ele>112.766</ele>
        <time>2019-06-22T11:39:49Z</time>
      </trkpt>
      <trkpt lat="42.345996" lon="-7.875521">
        <ele>112.029</ele>
        <time>2019-06-22T11:39:50Z</time>
      </trkpt>
      <trkpt lat="42.345883" lon="-7.875560">
        <ele>111.621</ele>
        <time>2019-06-22T11:39:51Z</time>
      </trkpt>
      <trkpt lat="42.345761" lon="-7.875602">
        <ele>111.308</ele>
        <time>2019-06-22T11:39:52Z</time>
      </trkpt>
      <trkpt lat="42.345652" lon="-7.875635">
        <ele>111.319</ele>
        <time>2019-06-22T11:39:53Z</time>
      </trkpt>
      <trkpt lat="42.345524" lon="-7.875680">
        <ele>111.373</ele>
        <time>2019-06-22T11:39:54Z</time>
      </trkpt>
      <trkpt lat="42.345391" lon="-7.875728">
        <ele>111.455</ele>
        <time>2019-06-22T11:39:55Z</time>
      </trkpt>
      <trkpt lat="42.345255" lon="-7.875775">
        <ele>111.457</ele>
        <time>2019-06-22T11:39:56Z</time>
      </trkpt>
      <trkpt lat="42.345117" lon="-7.875829">
        <ele>111.465</ele>
        <time>2019-06-22T11:39:57Z</time>
      </trkpt>
      <trkpt lat="42.344974" lon="-7.875871">
        <ele>111.744</ele>
        <time>2019-06-22T11:39:58Z</time>
      </trkpt>
      <trkpt lat="42.344835" lon="-7.875910">
        <ele>112.039</ele>
        <time>2019-06-22T11:39:59Z</time>
      </trkpt>
      <trkpt lat="42.344710" lon="-7.875960">
        <ele>112.192</ele>
        <time>2019-06-22T11:40:00Z</time>
      </trkpt>
      <trkpt lat="42.344569" lon="-7.876014">
        <ele>112.046</ele>
        <time>2019-06-22T11:40:01Z</time>
      </trkpt>
      <trkpt lat="42.344435" lon="-7.876055">
        <ele>111.688</ele>
        <time>2019-06-22T11:40:02Z</time>
      </trkpt>
      <trkpt lat="42.344299" lon="-7.876110">
        <ele>111.116</ele>
        <time>2019-06-22T11:40:03Z</time>
      </trkpt>
      <trkpt lat="42.344155" lon="-7.876173">
        <ele>110.708</ele>
        <time>2019-06-22T11:40:04Z</time>
      </trkpt>
      <trkpt lat="42.344017" lon="-7.876238">
        <ele>110.367</ele>
        <time>2019-06-22T11:40:05Z</time>
      </trkpt>
      <trkpt lat="42.343885" lon="-7.876294">
        <ele>110.791</ele>
        <time>2019-06-22T11:40:06Z</time>
      </trkpt>
      <trkpt lat="42.343753" lon="-7.876361">
        <ele>110.923</ele>
        <time>2019-06-22T11:40:07Z</time>
      </trkpt>
      <trkpt lat="42.343647" lon="-7.876429">
        <ele>111.385</ele>
        <time>2019-06-22T11:40:08Z</time>
      </trkpt>
      <trkpt lat="42.343533" lon="-7.876495">
        <ele>111.613</ele>
        <time>2019-06-22T11:40:09Z</time>
      </trkpt>
      <trkpt lat="42.343425" lon="-7.876562">
        <ele>111.782</ele>
        <time>2019-06-22T11:40:10Z</time>
      </trkpt>
      <trkpt lat="42.343322" lon="-7.876628">
        <ele>112.247</ele>
        <time>2019-06-22T11:40:11Z</time>
      </trkpt>
      <trkpt lat="42.343229" lon="-7.876691">
        <ele>112.280</ele>
        <time>2019-06-22T11:40:12Z</time>
      </trkpt>
      <trkpt lat="42.343141" lon="-7.876752">
        <ele>112.359</ele>
        <time>2019-06-22T11:40:13Z</time>
      </trkpt>
      <trkpt lat="42.343078" lon="-7.876784">
        <ele>112.303</ele>
        <time>2019-06-22T11:40:14Z</time>
      </trkpt>
      <trkpt lat="42.343013" lon="-7.876831">
        <ele>112.923</ele>
        <time>2019-06-22T11:40:15Z</time>
      </trkpt>
      <trkpt lat="42.342960" lon="-7.876878">
        <ele>113.608</ele>
        <time>2019-06-22T11:40:16Z</time>
      </trkpt>
      <trkpt lat="42.342917" lon="-7.876923">
        <ele>114.468</ele>
        <time>2019-06-22T11:40:17Z</time>
      </trkpt>
      <trkpt lat="42.342859" lon="-7.876981">
        <ele>115.972</ele>
        <time>2019-06-22T11:40:19Z</time>
      </trkpt>
      <trkpt lat="42.342818" lon="-7.877017">
        <ele>116.114</ele>
        <time>2019-06-22T11:40:20Z</time>
      </trkpt>
      <trkpt lat="42.342770" lon="-7.877062">
        <ele>116.266</ele>
        <time>2019-06-22T11:40:21Z</time>
      </trkpt>
      <trkpt lat="42.342711" lon="-7.877107">
        <ele>116.254</ele>
        <time>2019-06-22T11:40:22Z</time>
      </trkpt>
      <trkpt lat="42.342666" lon="-7.877156">
        <ele>116.213</ele>
        <time>2019-06-22T11:40:23Z</time>
      </trkpt>
      <trkpt lat="42.342604" lon="-7.877191">
        <ele>116.198</ele>
        <time>2019-06-22T11:40:24Z</time>
      </trkpt>
      <trkpt lat="42.342539" lon="-7.877229">
        <ele>116.141</ele>
        <time>2019-06-22T11:40:25Z</time>
      </trkpt>
      <trkpt lat="42.342475" lon="-7.877265">
        <ele>116.135</ele>
        <time>2019-06-22T11:40:26Z</time>
      </trkpt>
      <trkpt lat="42.342407" lon="-7.877301">
        <ele>116.286</ele>
        <time>2019-06-22T11:40:27Z</time>
      </trkpt>
      <trkpt lat="42.342345" lon="-7.877353">
        <ele>116.414</ele>
        <time>2019-06-22T11:40:28Z</time>
      </trkpt>
      <trkpt lat="42.342275" lon="-7.877405">
        <ele>116.708</ele>
        <time>2019-06-22T11:40:29Z</time>
      </trkpt>
      <trkpt lat="42.342200" lon="-7.877452">
        <ele>116.736</ele>
        <time>2019-06-22T11:40:30Z</time>
      </trkpt>
      <trkpt lat="42.342111" lon="-7.877509">
        <ele>116.750</ele>
        <time>2019-06-22T11:40:31Z</time>
      </trkpt>
      <trkpt lat="42.342019" lon="-7.877569">
        <ele>116.412</ele>
        <time>2019-06-22T11:40:32Z</time>
      </trkpt>
      <trkpt lat="42.341935" lon="-7.877619">
        <ele>116.274</ele>
        <time>2019-06-22T11:40:33Z</time>
      </trkpt>
      <trkpt lat="42.341846" lon="-7.877671">
        <ele>116.062</ele>
        <time>2019-06-22T11:40:34Z</time>
      </trkpt>
      <trkpt lat="42.341752" lon="-7.877714">
        <ele>115.811</ele>
        <time>2019-06-22T11:40:35Z</time>
      </trkpt>
      <trkpt lat="42.341642" lon="-7.877760">
        <ele>115.896</ele>
        <time>2019-06-22T11:40:36Z</time>
      </trkpt>
      <trkpt lat="42.341532" lon="-7.877802">
        <ele>115.939</ele>
        <time>2019-06-22T11:40:37Z</time>
      </trkpt>
      <trkpt lat="42.341407" lon="-7.877850">
        <ele>116.045</ele>
        <time>2019-06-22T11:40:38Z</time>
      </trkpt>
      <trkpt lat="42.341276" lon="-7.877891">
        <ele>116.147</ele>
        <time>2019-06-22T11:40:39Z</time>
      </trkpt>
      <trkpt lat="42.341133" lon="-7.877927">
        <ele>116.311</ele>
        <time>2019-06-22T11:40:40Z</time>
      </trkpt>
      <trkpt lat="42.340980" lon="-7.877957">
        <ele>116.308</ele>
        <time>2019-06-22T11:40:41Z</time>
      </trkpt>
      <trkpt lat="42.340819" lon="-7.877982">
        <ele>117.067</ele>
        <time>2019-06-22T11:40:42Z</time>
      </trkpt>
      <trkpt lat="42.340645" lon="-7.878005">
        <ele>117.061</ele>
        <time>2019-06-22T11:40:43Z</time>
      </trkpt>
      <trkpt lat="42.340465" lon="-7.878022">
        <ele>117.443</ele>
        <time>2019-06-22T11:40:44Z</time>
      </trkpt>
      <trkpt lat="42.340274" lon="-7.878028">
        <ele>117.765</ele>
        <time>2019-06-22T11:40:45Z</time>
      </trkpt>
      <trkpt lat="42.340075" lon="-7.878045">
        <ele>117.993</ele>
        <time>2019-06-22T11:40:46Z</time>
      </trkpt>
      <trkpt lat="42.339873" lon="-7.878065">
        <ele>118.342</ele>
        <time>2019-06-22T11:40:47Z</time>
      </trkpt>
      <trkpt lat="42.339661" lon="-7.878091">
        <ele>118.627</ele>
        <time>2019-06-22T11:40:48Z</time>
      </trkpt>
      <trkpt lat="42.339452" lon="-7.878113">
        <ele>119.130</ele>
        <time>2019-06-22T11:40:49Z</time>
      </trkpt>
      <trkpt lat="42.339237" lon="-7.878143">
        <ele>119.122</ele>
        <time>2019-06-22T11:40:50Z</time>
      </trkpt>
      <trkpt lat="42.339011" lon="-7.878186">
        <ele>119.462</ele>
        <time>2019-06-22T11:40:51Z</time>
      </trkpt>
      <trkpt lat="42.338799" lon="-7.878244">
        <ele>119.808</ele>
        <time>2019-06-22T11:40:52Z</time>
      </trkpt>
      <trkpt lat="42.338572" lon="-7.878317">
        <ele>120.208</ele>
        <time>2019-06-22T11:40:53Z</time>
      </trkpt>
      <trkpt lat="42.338350" lon="-7.878389">
        <ele>120.485</ele>
        <time>2019-06-22T11:40:54Z</time>
      </trkpt>
      <trkpt lat="42.338117" lon="-7.878495">
        <ele>121.139</ele>
        <time>2019-06-22T11:40:55Z</time>
      </trkpt>
      <trkpt lat="42.337905" lon="-7.878615">
        <ele>122.151</ele>
        <time>2019-06-22T11:40:56Z</time>
      </trkpt>
      <trkpt lat="42.337682" lon="-7.878750">
        <ele>122.973</ele>
        <time>2019-06-22T11:40:57Z</time>
      </trkpt>
      <trkpt lat="42.337471" lon="-7.878905">
        <ele>123.651</ele>
        <time>2019-06-22T11:40:58Z</time>
      </trkpt>
      <trkpt lat="42.337260" lon="-7.879067">
        <ele>124.460</ele>
        <time>2019-06-22T11:40:59Z</time>
      </trkpt>
      <trkpt lat="42.337045" lon="-7.879222">
        <ele>125.465</ele>
        <time>2019-06-22T11:41:00Z</time>
      </trkpt>
      <trkpt lat="42.336836" lon="-7.879389">
        <ele>126.618</ele>
        <time>2019-06-22T11:41:01Z</time>
      </trkpt>
      <trkpt lat="42.336625" lon="-7.879556">
        <ele>127.985</ele>
        <time>2019-06-22T11:41:02Z</time>
      </trkpt>
      <trkpt lat="42.336416" lon="-7.879712">
        <ele>129.989</ele>
        <time>2019-06-22T11:41:03Z</time>
      </trkpt>
      <trkpt lat="42.336202" lon="-7.879856">
        <ele>132.317</ele>
        <time>2019-06-22T11:41:04Z</time>
      </trkpt>
      <trkpt lat="42.335985" lon="-7.879988">
        <ele>134.208</ele>
        <time>2019-06-22T11:41:05Z</time>
      </trkpt>
      <trkpt lat="42.335759" lon="-7.880086">
        <ele>136.251</ele>
        <time>2019-06-22T11:41:06Z</time>
      </trkpt>
      <trkpt lat="42.335533" lon="-7.880160">
        <ele>138.145</ele>
        <time>2019-06-22T11:41:07Z</time>
      </trkpt>
      <trkpt lat="42.335295" lon="-7.880209">
        <ele>140.027</ele>
        <time>2019-06-22T11:41:08Z</time>
      </trkpt>
      <trkpt lat="42.335057" lon="-7.880227">
        <ele>141.519</ele>
        <time>2019-06-22T11:41:09Z</time>
      </trkpt>
      <trkpt lat="42.334823" lon="-7.880218">
        <ele>143.177</ele>
        <time>2019-06-22T11:41:10Z</time>
      </trkpt>
      <trkpt lat="42.334588" lon="-7.880179">
        <ele>144.826</ele>
        <time>2019-06-22T11:41:11Z</time>
      </trkpt>
      <trkpt lat="42.334358" lon="-7.880116">
        <ele>146.111</ele>
        <time>2019-06-22T11:41:12Z</time>
      </trkpt>
      <trkpt lat="42.334133" lon="-7.880026">
        <ele>147.214</ele>
        <time>2019-06-22T11:41:13Z</time>
      </trkpt>
      <trkpt lat="42.333915" lon="-7.879906">
        <ele>148.542</ele>
        <time>2019-06-22T11:41:14Z</time>
      </trkpt>
      <trkpt lat="42.333703" lon="-7.879762">
        <ele>149.722</ele>
        <time>2019-06-22T11:41:15Z</time>
      </trkpt>
      <trkpt lat="42.333493" lon="-7.879603">
        <ele>150.814</ele>
        <time>2019-06-22T11:41:16Z</time>
      </trkpt>
      <trkpt lat="42.333292" lon="-7.879433">
        <ele>151.908</ele>
        <time>2019-06-22T11:41:17Z</time>
      </trkpt>
      <trkpt lat="42.333091" lon="-7.879263">
        <ele>153.257</ele>
        <time>2019-06-22T11:41:18Z</time>
      </trkpt>
      <trkpt lat="42.332886" lon="-7.879098">
        <ele>154.331</ele>
        <time>2019-06-22T11:41:19Z</time>
      </trkpt>
      <trkpt lat="42.332689" lon="-7.878924">
        <ele>155.173</ele>
        <time>2019-06-22T11:41:20Z</time>
      </trkpt>
      <trkpt lat="42.332488" lon="-7.878762">
        <ele>155.895</ele>
        <time>2019-06-22T11:41:21Z</time>
      </trkpt>
      <trkpt lat="42.332275" lon="-7.878612">
        <ele>156.433</ele>
        <time>2019-06-22T11:41:22Z</time>
      </trkpt>
      <trkpt lat="42.332062" lon="-7.878476">
        <ele>156.882</ele>
        <time>2019-06-22T11:41:23Z</time>
      </trkpt>
      <trkpt lat="42.331848" lon="-7.878340">
        <ele>157.197</ele>
        <time>2019-06-22T11:41:24Z</time>
      </trkpt>
      <trkpt lat="42.331629" lon="-7.878284">
        <ele>157.160</ele>
        <time>2019-06-22T11:41:25Z</time>
      </trkpt>
      <trkpt lat="42.331407" lon="-7.878200">
        <ele>157.872</ele>
        <time>2019-06-22T11:41:26Z</time>
      </trkpt>
      <trkpt lat="42.331172" lon="-7.878168">
        <ele>158.113</ele>
        <time>2019-06-22T11:41:27Z</time>
      </trkpt>
      <trkpt lat="42.330940" lon="-7.878127">
        <ele>158.314</ele>
        <time>2019-06-22T11:41:28Z</time>
      </trkpt>
      <trkpt lat="42.330710" lon="-7.878089">
        <ele>158.308</ele>
        <time>2019-06-22T11:41:29Z</time>
      </trkpt>
      <trkpt lat="42.330475" lon="-7.878143">
        <ele>158.390</ele>
        <time>2019-06-22T11:41:30Z</time>
      </trkpt>
      <trkpt lat="42.330246" lon="-7.878184">
        <ele>158.314</ele>
        <time>2019-06-22T11:41:31Z</time>
      </trkpt>
      <trkpt lat="42.330014" lon="-7.878243">
        <ele>158.236</ele>
        <time>2019-06-22T11:41:32Z</time>
      </trkpt>
      <trkpt lat="42.329797" lon="-7.878323">
        <ele>158.168</ele>
        <time>2019-06-22T11:41:33Z</time>
      </trkpt>
      <trkpt lat="42.329576" lon="-7.878414">
        <ele>158.166</ele>
        <time>2019-06-22T11:41:34Z</time>
      </trkpt>
      <trkpt lat="42.329358" lon="-7.878496">
        <ele>158.015</ele>
        <time>2019-06-22T11:41:35Z</time>
      </trkpt>
      <trkpt lat="42.329167" lon="-7.878593">
        <ele>158.060</ele>
        <time>2019-06-22T11:41:36Z</time>
      </trkpt>
      <trkpt lat="42.328975" lon="-7.878708">
        <ele>156.923</ele>
        <time>2019-06-22T11:41:37Z</time>
      </trkpt>
      <trkpt lat="42.328781" lon="-7.878847">
        <ele>156.117</ele>
        <time>2019-06-22T11:41:38Z</time>
      </trkpt>
      <trkpt lat="42.328604" lon="-7.878977">
        <ele>156.087</ele>
        <time>2019-06-22T11:41:39Z</time>
      </trkpt>
      <trkpt lat="42.328423" lon="-7.879100">
        <ele>156.015</ele>
        <time>2019-06-22T11:41:40Z</time>
      </trkpt>
      <trkpt lat="42.328262" lon="-7.879222">
        <ele>156.908</ele>
        <time>2019-06-22T11:41:41Z</time>
      </trkpt>
      <trkpt lat="42.328112" lon="-7.879346">
        <ele>156.994</ele>
        <time>2019-06-22T11:41:42Z</time>
      </trkpt>
      <trkpt lat="42.327946" lon="-7.879453">
        <ele>158.098</ele>
        <time>2019-06-22T11:41:43Z</time>
      </trkpt>
      <trkpt lat="42.327783" lon="-7.879539">
        <ele>158.090</ele>
        <time>2019-06-22T11:41:44Z</time>
      </trkpt>
      <trkpt lat="42.327632" lon="-7.879613">
        <ele>158.022</ele>
        <time>2019-06-22T11:41:45Z</time>
      </trkpt>
      <trkpt lat="42.327442" lon="-7.879657">
        <ele>157.490</ele>
        <time>2019-06-22T11:41:46Z</time>
      </trkpt>
      <trkpt lat="42.327273" lon="-7.879712">
        <ele>156.219</ele>
        <time>2019-06-22T11:41:47Z</time>
      </trkpt>
      <trkpt lat="42.327101" lon="-7.879727">
        <ele>154.974</ele>
        <time>2019-06-22T11:41:48Z</time>
      </trkpt>
      <trkpt lat="42.326942" lon="-7.879743">
        <ele>154.167</ele>
        <time>2019-06-22T11:41:49Z</time>
      </trkpt>
      <trkpt lat="42.326769" lon="-7.879739">
        <ele>153.779</ele>
        <time>2019-06-22T11:41:50Z</time>
      </trkpt>
      <trkpt lat="42.326603" lon="-7.879735">
        <ele>153.705</ele>
        <time>2019-06-22T11:41:51Z</time>
      </trkpt>
      <trkpt lat="42.326426" lon="-7.879702">
        <ele>154.025</ele>
        <time>2019-06-22T11:41:52Z</time>
      </trkpt>
      <trkpt lat="42.326237" lon="-7.879636">
        <ele>154.108</ele>
        <time>2019-06-22T11:41:53Z</time>
      </trkpt>
      <trkpt lat="42.326043" lon="-7.879533">
        <ele>154.180</ele>
        <time>2019-06-22T11:41:54Z</time>
      </trkpt>
      <trkpt lat="42.325867" lon="-7.879431">
        <ele>153.964</ele>
        <time>2019-06-22T11:41:55Z</time>
      </trkpt>
      <trkpt lat="42.325689" lon="-7.879305">
        <ele>152.836</ele>
        <time>2019-06-22T11:41:56Z</time>
      </trkpt>
      <trkpt lat="42.325538" lon="-7.879156">
        <ele>151.768</ele>
        <time>2019-06-22T11:41:57Z</time>
      </trkpt>
      <trkpt lat="42.325381" lon="-7.878999">
        <ele>150.366</ele>
        <time>2019-06-22T11:41:58Z</time>
      </trkpt>
      <trkpt lat="42.325230" lon="-7.878837">
        <ele>148.835</ele>
        <time>2019-06-22T11:41:59Z</time>
      </trkpt>
      <trkpt lat="42.325085" lon="-7.878623">
        <ele>147.950</ele>
        <time>2019-06-22T11:42:00Z</time>
      </trkpt>
      <trkpt lat="42.324947" lon="-7.878425">
        <ele>147.313</ele>
        <time>2019-06-22T11:42:01Z</time>
      </trkpt>
      <trkpt lat="42.324809" lon="-7.878192">
        <ele>146.479</ele>
        <time>2019-06-22T11:42:02Z</time>
      </trkpt>
      <trkpt lat="42.324680" lon="-7.877944">
        <ele>145.905</ele>
        <time>2019-06-22T11:42:03Z</time>
      </trkpt>
      <trkpt lat="42.324595" lon="-7.877724">
        <ele>145.225</ele>
        <time>2019-06-22T11:42:04Z</time>
      </trkpt>
      <trkpt lat="42.324494" lon="-7.877481">
        <ele>144.408</ele>
        <time>2019-06-22T11:42:05Z</time>
      </trkpt>
      <trkpt lat="42.324397" lon="-7.877243">
        <ele>143.010</ele>
        <time>2019-06-22T11:42:06Z</time>
      </trkpt>
      <trkpt lat="42.324314" lon="-7.877003">
        <ele>141.854</ele>
        <time>2019-06-22T11:42:07Z</time>
      </trkpt>
      <trkpt lat="42.324226" lon="-7.876767">
        <ele>141.176</ele>
        <time>2019-06-22T11:42:08Z</time>
      </trkpt>
      <trkpt lat="42.324136" lon="-7.876532">
        <ele>140.398</ele>
        <time>2019-06-22T11:42:09Z</time>
      </trkpt>
      <trkpt lat="42.324054" lon="-7.876308">
        <ele>139.416</ele>
        <time>2019-06-22T11:42:10Z</time>
      </trkpt>
      <trkpt lat="42.323981" lon="-7.876079">
        <ele>139.145</ele>
        <time>2019-06-22T11:42:11Z</time>
      </trkpt>
      <trkpt lat="42.323907" lon="-7.875861">
        <ele>139.010</ele>
        <time>2019-06-22T11:42:12Z</time>
      </trkpt>
      <trkpt lat="42.323837" lon="-7.875650">
        <ele>138.473</ele>
        <time>2019-06-22T11:42:13Z</time>
      </trkpt>
      <trkpt lat="42.323764" lon="-7.875449">
        <ele>137.942</ele>
        <time>2019-06-22T11:42:14Z</time>
      </trkpt>
      <trkpt lat="42.323689" lon="-7.875242">
        <ele>137.922</ele>
        <time>2019-06-22T11:42:15Z</time>
      </trkpt>
      <trkpt lat="42.323626" lon="-7.875051">
        <ele>137.914</ele>
        <time>2019-06-22T11:42:16Z</time>
      </trkpt>
      <trkpt lat="42.323567" lon="-7.874864">
        <ele>137.408</ele>
        <time>2019-06-22T11:42:17Z</time>
      </trkpt>
      <trkpt lat="42.323508" lon="-7.874691">
        <ele>137.217</ele>
        <time>2019-06-22T11:42:18Z</time>
      </trkpt>
      <trkpt lat="42.323452" lon="-7.874527">
        <ele>137.291</ele>
        <time>2019-06-22T11:42:19Z</time>
      </trkpt>
      <trkpt lat="42.323388" lon="-7.874349">
        <ele>137.473</ele>
        <time>2019-06-22T11:42:20Z</time>
      </trkpt>
      <trkpt lat="42.323317" lon="-7.874166">
        <ele>137.535</ele>
        <time>2019-06-22T11:42:21Z</time>
      </trkpt>
      <trkpt lat="42.323244" lon="-7.873963">
        <ele>137.963</ele>
        <time>2019-06-22T11:42:22Z</time>
      </trkpt>
      <trkpt lat="42.323167" lon="-7.873754">
        <ele>138.822</ele>
        <time>2019-06-22T11:42:23Z</time>
      </trkpt>
      <trkpt lat="42.323086" lon="-7.873548">
        <ele>139.337</ele>
        <time>2019-06-22T11:42:24Z</time>
      </trkpt>
      <trkpt lat="42.323000" lon="-7.873345">
        <ele>139.350</ele>
        <time>2019-06-22T11:42:25Z</time>
      </trkpt>
      <trkpt lat="42.322910" lon="-7.873142">
        <ele>139.397</ele>
        <time>2019-06-22T11:42:26Z</time>
      </trkpt>
      <trkpt lat="42.322814" lon="-7.872949">
        <ele>139.223</ele>
        <time>2019-06-22T11:42:27Z</time>
      </trkpt>
      <trkpt lat="42.322715" lon="-7.872754">
        <ele>138.825</ele>
        <time>2019-06-22T11:42:28Z</time>
      </trkpt>
      <trkpt lat="42.322617" lon="-7.872562">
        <ele>138.508</ele>
        <time>2019-06-22T11:42:29Z</time>
      </trkpt>
      <trkpt lat="42.322506" lon="-7.872367">
        <ele>138.152</ele>
        <time>2019-06-22T11:42:30Z</time>
      </trkpt>
      <trkpt lat="42.322403" lon="-7.872184">
        <ele>138.146</ele>
        <time>2019-06-22T11:42:31Z</time>
      </trkpt>
      <trkpt lat="42.322290" lon="-7.872017">
        <ele>138.368</ele>
        <time>2019-06-22T11:42:32Z</time>
      </trkpt>
      <trkpt lat="42.322182" lon="-7.871847">
        <ele>138.420</ele>
        <time>2019-06-22T11:42:33Z</time>
      </trkpt>
      <trkpt lat="42.322106" lon="-7.871749">
        <ele>138.948</ele>
        <time>2019-06-22T11:42:34Z</time>
      </trkpt>
      <trkpt lat="42.321997" lon="-7.871592">
        <ele>139.527</ele>
        <time>2019-06-22T11:42:35Z</time>
      </trkpt>
      <trkpt lat="42.321860" lon="-7.871403">
        <ele>140.172</ele>
        <time>2019-06-22T11:42:36Z</time>
      </trkpt>
      <trkpt lat="42.321717" lon="-7.871218">
        <ele>140.555</ele>
        <time>2019-06-22T11:42:37Z</time>
      </trkpt>
      <trkpt lat="42.321567" lon="-7.871063">
        <ele>140.923</ele>
        <time>2019-06-22T11:42:38Z</time>
      </trkpt>
      <trkpt lat="42.321426" lon="-7.870927">
        <ele>141.583</ele>
        <time>2019-06-22T11:42:39Z</time>
      </trkpt>
      <trkpt lat="42.321285" lon="-7.870780">
        <ele>142.511</ele>
        <time>2019-06-22T11:42:40Z</time>
      </trkpt>
      <trkpt lat="42.321150" lon="-7.870647">
        <ele>143.308</ele>
        <time>2019-06-22T11:42:41Z</time>
      </trkpt>
      <trkpt lat="42.320992" lon="-7.870520">
        <ele>144.535</ele>
        <time>2019-06-22T11:42:42Z</time>
      </trkpt>
      <trkpt lat="42.320847" lon="-7.870394">
        <ele>146.299</ele>
        <time>2019-06-22T11:42:43Z</time>
      </trkpt>
      <trkpt lat="42.320682" lon="-7.870276">
        <ele>147.721</ele>
        <time>2019-06-22T11:42:44Z</time>
      </trkpt>
      <trkpt lat="42.320525" lon="-7.870182">
        <ele>149.613</ele>
        <time>2019-06-22T11:42:45Z</time>
      </trkpt>
      <trkpt lat="42.320357" lon="-7.870095">
        <ele>151.881</ele>
        <time>2019-06-22T11:42:46Z</time>
      </trkpt>
      <trkpt lat="42.320179" lon="-7.869976">
        <ele>151.830</ele>
        <time>2019-06-22T11:42:47Z</time>
      </trkpt>
      <trkpt lat="42.320013" lon="-7.869889">
        <ele>153.835</ele>
        <time>2019-06-22T11:42:48Z</time>
      </trkpt>
      <trkpt lat="42.319836" lon="-7.869791">
        <ele>155.938</ele>
        <time>2019-06-22T11:42:49Z</time>
      </trkpt>
      <trkpt lat="42.319642" lon="-7.869692">
        <ele>157.464</ele>
        <time>2019-06-22T11:42:50Z</time>
      </trkpt>
      <trkpt lat="42.319439" lon="-7.869595">
        <ele>158.606</ele>
        <time>2019-06-22T11:42:51Z</time>
      </trkpt>
      <trkpt lat="42.319236" lon="-7.869511">
        <ele>160.216</ele>
        <time>2019-06-22T11:42:52Z</time>
      </trkpt>
      <trkpt lat="42.319033" lon="-7.869440">
        <ele>161.808</ele>
        <time>2019-06-22T11:42:53Z</time>
      </trkpt>
      <trkpt lat="42.318841" lon="-7.869383">
        <ele>163.399</ele>
        <time>2019-06-22T11:42:54Z</time>
      </trkpt>
      <trkpt lat="42.318647" lon="-7.869319">
        <ele>164.993</ele>
        <time>2019-06-22T11:42:55Z</time>
      </trkpt>
      <trkpt lat="42.318450" lon="-7.869264">
        <ele>166.195</ele>
        <time>2019-06-22T11:42:56Z</time>
      </trkpt>
      <trkpt lat="42.318246" lon="-7.869216">
        <ele>167.257</ele>
        <time>2019-06-22T11:42:57Z</time>
      </trkpt>
      <trkpt lat="42.318035" lon="-7.869164">
        <ele>167.665</ele>
        <time>2019-06-22T11:42:58Z</time>
      </trkpt>
      <trkpt lat="42.317824" lon="-7.869108">
        <ele>168.524</ele>
        <time>2019-06-22T11:42:59Z</time>
      </trkpt>
      <trkpt lat="42.317618" lon="-7.869050">
        <ele>169.479</ele>
        <time>2019-06-22T11:43:00Z</time>
      </trkpt>
      <trkpt lat="42.317420" lon="-7.868993">
        <ele>170.472</ele>
        <time>2019-06-22T11:43:01Z</time>
      </trkpt>
      <trkpt lat="42.317209" lon="-7.868929">
        <ele>171.015</ele>
        <time>2019-06-22T11:43:02Z</time>
      </trkpt>
      <trkpt lat="42.316987" lon="-7.868857">
        <ele>171.765</ele>
        <time>2019-06-22T11:43:03Z</time>
      </trkpt>
      <trkpt lat="42.316771" lon="-7.868788">
        <ele>172.611</ele>
        <time>2019-06-22T11:43:04Z</time>
      </trkpt>
      <trkpt lat="42.316556" lon="-7.868699">
        <ele>172.808</ele>
        <time>2019-06-22T11:43:05Z</time>
      </trkpt>
      <trkpt lat="42.316342" lon="-7.868610">
        <ele>173.684</ele>
        <time>2019-06-22T11:43:06Z</time>
      </trkpt>
      <trkpt lat="42.316125" lon="-7.868513">
        <ele>174.488</ele>
        <time>2019-06-22T11:43:07Z</time>
      </trkpt>
      <trkpt lat="42.315907" lon="-7.868396">
        <ele>174.490</ele>
        <time>2019-06-22T11:43:08Z</time>
      </trkpt>
      <trkpt lat="42.315692" lon="-7.868253">
        <ele>174.472</ele>
        <time>2019-06-22T11:43:09Z</time>
      </trkpt>
      <trkpt lat="42.315484" lon="-7.868128">
        <ele>174.490</ele>
        <time>2019-06-22T11:43:10Z</time>
      </trkpt>
      <trkpt lat="42.315274" lon="-7.867984">
        <ele>174.259</ele>
        <time>2019-06-22T11:43:11Z</time>
      </trkpt>
      <trkpt lat="42.315064" lon="-7.867835">
        <ele>174.294</ele>
        <time>2019-06-22T11:43:12Z</time>
      </trkpt>
      <trkpt lat="42.314851" lon="-7.867680">
        <ele>174.427</ele>
        <time>2019-06-22T11:43:13Z</time>
      </trkpt>
      <trkpt lat="42.314647" lon="-7.867484">
        <ele>174.576</ele>
        <time>2019-06-22T11:43:14Z</time>
      </trkpt>
      <trkpt lat="42.314451" lon="-7.867297">
        <ele>174.890</ele>
        <time>2019-06-22T11:43:15Z</time>
      </trkpt>
      <trkpt lat="42.314258" lon="-7.867118">
        <ele>174.819</ele>
        <time>2019-06-22T11:43:16Z</time>
      </trkpt>
      <trkpt lat="42.314069" lon="-7.866941">
        <ele>174.508</ele>
        <time>2019-06-22T11:43:17Z</time>
      </trkpt>
      <trkpt lat="42.313872" lon="-7.866770">
        <ele>173.570</ele>
        <time>2019-06-22T11:43:18Z</time>
      </trkpt>
      <trkpt lat="42.313663" lon="-7.866586">
        <ele>172.354</ele>
        <time>2019-06-22T11:43:19Z</time>
      </trkpt>
      <trkpt lat="42.313469" lon="-7.866421">
        <ele>171.066</ele>
        <time>2019-06-22T11:43:20Z</time>
      </trkpt>
      <trkpt lat="42.313263" lon="-7.866237">
        <ele>169.658</ele>
        <time>2019-06-22T11:43:21Z</time>
      </trkpt>
      <trkpt lat="42.313044" lon="-7.866075">
        <ele>167.956</ele>
        <time>2019-06-22T11:43:22Z</time>
      </trkpt>
      <trkpt lat="42.312829" lon="-7.865906">
        <ele>166.335</ele>
        <time>2019-06-22T11:43:23Z</time>
      </trkpt>
      <trkpt lat="42.312620" lon="-7.865767">
        <ele>165.210</ele>
        <time>2019-06-22T11:43:24Z</time>
      </trkpt>
      <trkpt lat="42.312402" lon="-7.865648">
        <ele>165.183</ele>
        <time>2019-06-22T11:43:25Z</time>
      </trkpt>
      <trkpt lat="42.312198" lon="-7.865549">
        <ele>164.512</ele>
        <time>2019-06-22T11:43:26Z</time>
      </trkpt>
      <trkpt lat="42.311984" lon="-7.865465">
        <ele>164.232</ele>
        <time>2019-06-22T11:43:27Z</time>
      </trkpt>
      <trkpt lat="42.311771" lon="-7.865381">
        <ele>163.905</ele>
        <time>2019-06-22T11:43:28Z</time>
      </trkpt>
      <trkpt lat="42.311552" lon="-7.865309">
        <ele>163.708</ele>
        <time>2019-06-22T11:43:29Z</time>
      </trkpt>
      <trkpt lat="42.311341" lon="-7.865252">
        <ele>163.264</ele>
        <time>2019-06-22T11:43:30Z</time>
      </trkpt>
      <trkpt lat="42.311124" lon="-7.865190">
        <ele>163.228</ele>
        <time>2019-06-22T11:43:31Z</time>
      </trkpt>
      <trkpt lat="42.310937" lon="-7.865145">
        <ele>163.930</ele>
        <time>2019-06-22T11:43:32Z</time>
      </trkpt>
      <trkpt lat="42.310728" lon="-7.865101">
        <ele>164.412</ele>
        <time>2019-06-22T11:43:33Z</time>
      </trkpt>
      <trkpt lat="42.310505" lon="-7.865066">
        <ele>165.320</ele>
        <time>2019-06-22T11:43:34Z</time>
      </trkpt>
      <trkpt lat="42.310285" lon="-7.865049">
        <ele>166.119</ele>
        <time>2019-06-22T11:43:35Z</time>
      </trkpt>
      <trkpt lat="42.310073" lon="-7.865037">
        <ele>166.684</ele>
        <time>2019-06-22T11:43:36Z</time>
      </trkpt>
      <trkpt lat="42.309858" lon="-7.865036">
        <ele>166.927</ele>
        <time>2019-06-22T11:43:37Z</time>
      </trkpt>
      <trkpt lat="42.309641" lon="-7.865030">
        <ele>167.213</ele>
        <time>2019-06-22T11:43:38Z</time>
      </trkpt>
      <trkpt lat="42.309427" lon="-7.865030">
        <ele>167.443</ele>
        <time>2019-06-22T11:43:39Z</time>
      </trkpt>
      <trkpt lat="42.309222" lon="-7.865033">
        <ele>167.607</ele>
        <time>2019-06-22T11:43:40Z</time>
      </trkpt>
      <trkpt lat="42.309034" lon="-7.865034">
        <ele>167.608</ele>
        <time>2019-06-22T11:43:41Z</time>
      </trkpt>
      <trkpt lat="42.308893" lon="-7.865052">
        <ele>168.114</ele>
        <time>2019-06-22T11:43:42Z</time>
      </trkpt>
      <trkpt lat="42.308726" lon="-7.865069">
        <ele>168.618</ele>
        <time>2019-06-22T11:43:43Z</time>
      </trkpt>
      <trkpt lat="42.308559" lon="-7.865092">
        <ele>169.490</ele>
        <time>2019-06-22T11:43:44Z</time>
      </trkpt>
      <trkpt lat="42.308387" lon="-7.865115">
        <ele>170.762</ele>
        <time>2019-06-22T11:43:45Z</time>
      </trkpt>
      <trkpt lat="42.308207" lon="-7.865146">
        <ele>171.590</ele>
        <time>2019-06-22T11:43:46Z</time>
      </trkpt>
      <trkpt lat="42.308015" lon="-7.865186">
        <ele>171.529</ele>
        <time>2019-06-22T11:43:47Z</time>
      </trkpt>
      <trkpt lat="42.307822" lon="-7.865219">
        <ele>172.414</ele>
        <time>2019-06-22T11:43:48Z</time>
      </trkpt>
      <trkpt lat="42.307632" lon="-7.865249">
        <ele>173.157</ele>
        <time>2019-06-22T11:43:49Z</time>
      </trkpt>
      <trkpt lat="42.307437" lon="-7.865288">
        <ele>173.526</ele>
        <time>2019-06-22T11:43:50Z</time>
      </trkpt>
      <trkpt lat="42.307241" lon="-7.865333">
        <ele>173.547</ele>
        <time>2019-06-22T11:43:51Z</time>
      </trkpt>
      <trkpt lat="42.307036" lon="-7.865380">
        <ele>174.111</ele>
        <time>2019-06-22T11:43:52Z</time>
      </trkpt>
      <trkpt lat="42.306840" lon="-7.865420">
        <ele>174.508</ele>
        <time>2019-06-22T11:43:53Z</time>
      </trkpt>
      <trkpt lat="42.306648" lon="-7.865471">
        <ele>175.035</ele>
        <time>2019-06-22T11:43:54Z</time>
      </trkpt>
      <trkpt lat="42.306458" lon="-7.865539">
        <ele>175.519</ele>
        <time>2019-06-22T11:43:55Z</time>
      </trkpt>
      <trkpt lat="42.306275" lon="-7.865616">
        <ele>176.351</ele>
        <time>2019-06-22T11:43:56Z</time>
      </trkpt>
      <trkpt lat="42.306086" lon="-7.865700">
        <ele>176.553</ele>
        <time>2019-06-22T11:43:57Z</time>
      </trkpt>
      <trkpt lat="42.305904" lon="-7.865797">
        <ele>176.891</ele>
        <time>2019-06-22T11:43:58Z</time>
      </trkpt>
      <trkpt lat="42.305713" lon="-7.865908">
        <ele>177.770</ele>
        <time>2019-06-22T11:43:59Z</time>
      </trkpt>
      <trkpt lat="42.305522" lon="-7.866026">
        <ele>178.445</ele>
        <time>2019-06-22T11:44:00Z</time>
      </trkpt>
      <trkpt lat="42.305340" lon="-7.866145">
        <ele>179.558</ele>
        <time>2019-06-22T11:44:01Z</time>
      </trkpt>
      <trkpt lat="42.305164" lon="-7.866280">
        <ele>180.993</ele>
        <time>2019-06-22T11:44:02Z</time>
      </trkpt>
      <trkpt lat="42.304987" lon="-7.866416">
        <ele>181.965</ele>
        <time>2019-06-22T11:44:03Z</time>
      </trkpt>
      <trkpt lat="42.304814" lon="-7.866559">
        <ele>182.721</ele>
        <time>2019-06-22T11:44:04Z</time>
      </trkpt>
      <trkpt lat="42.304642" lon="-7.866706">
        <ele>183.508</ele>
        <time>2019-06-22T11:44:05Z</time>
      </trkpt>
      <trkpt lat="42.304469" lon="-7.866851">
        <ele>184.592</ele>
        <time>2019-06-22T11:44:06Z</time>
      </trkpt>
      <trkpt lat="42.304303" lon="-7.867004">
        <ele>185.946</ele>
        <time>2019-06-22T11:44:07Z</time>
      </trkpt>
      <trkpt lat="42.304135" lon="-7.867147">
        <ele>187.678</ele>
        <time>2019-06-22T11:44:08Z</time>
      </trkpt>
      <trkpt lat="42.303961" lon="-7.867271">
        <ele>189.270</ele>
        <time>2019-06-22T11:44:09Z</time>
      </trkpt>
      <trkpt lat="42.303780" lon="-7.867372">
        <ele>191.178</ele>
        <time>2019-06-22T11:44:10Z</time>
      </trkpt>
      <trkpt lat="42.303583" lon="-7.867469">
        <ele>192.297</ele>
        <time>2019-06-22T11:44:11Z</time>
      </trkpt>
      <trkpt lat="42.303419" lon="-7.867566">
        <ele>193.522</ele>
        <time>2019-06-22T11:44:12Z</time>
      </trkpt>
      <trkpt lat="42.303233" lon="-7.867637">
        <ele>194.515</ele>
        <time>2019-06-22T11:44:13Z</time>
      </trkpt>
      <trkpt lat="42.303047" lon="-7.867686">
        <ele>195.592</ele>
        <time>2019-06-22T11:44:14Z</time>
      </trkpt>
      <trkpt lat="42.302854" lon="-7.867725">
        <ele>196.573</ele>
        <time>2019-06-22T11:44:15Z</time>
      </trkpt>
      <trkpt lat="42.302648" lon="-7.867756">
        <ele>197.820</ele>
        <time>2019-06-22T11:44:16Z</time>
      </trkpt>
      <trkpt lat="42.302437" lon="-7.867773">
        <ele>198.808</ele>
        <time>2019-06-22T11:44:17Z</time>
      </trkpt>
      <trkpt lat="42.302225" lon="-7.867775">
        <ele>200.282</ele>
        <time>2019-06-22T11:44:18Z</time>
      </trkpt>
      <trkpt lat="42.302016" lon="-7.867762">
        <ele>200.986</ele>
        <time>2019-06-22T11:44:19Z</time>
      </trkpt>
      <trkpt lat="42.301801" lon="-7.867742">
        <ele>201.638</ele>
        <time>2019-06-22T11:44:20Z</time>
      </trkpt>
      <trkpt lat="42.301587" lon="-7.867714">
        <ele>202.920</ele>
        <time>2019-06-22T11:44:21Z</time>
      </trkpt>
      <trkpt lat="42.301367" lon="-7.867675">
        <ele>203.888</ele>
        <time>2019-06-22T11:44:22Z</time>
      </trkpt>
      <trkpt lat="42.301144" lon="-7.867642">
        <ele>204.077</ele>
        <time>2019-06-22T11:44:23Z</time>
      </trkpt>
      <trkpt lat="42.300914" lon="-7.867623">
        <ele>204.952</ele>
        <time>2019-06-22T11:44:24Z</time>
      </trkpt>
      <trkpt lat="42.300681" lon="-7.867623">
        <ele>206.095</ele>
        <time>2019-06-22T11:44:25Z</time>
      </trkpt>
      <trkpt lat="42.300453" lon="-7.867642">
        <ele>206.825</ele>
        <time>2019-06-22T11:44:26Z</time>
      </trkpt>
      <trkpt lat="42.300219" lon="-7.867684">
        <ele>207.826</ele>
        <time>2019-06-22T11:44:27Z</time>
      </trkpt>
      <trkpt lat="42.299989" lon="-7.867740">
        <ele>209.408</ele>
        <time>2019-06-22T11:44:28Z</time>
      </trkpt>
      <trkpt lat="42.299758" lon="-7.867830">
        <ele>210.708</ele>
        <time>2019-06-22T11:44:29Z</time>
      </trkpt>
      <trkpt lat="42.299525" lon="-7.867929">
        <ele>211.955</ele>
        <time>2019-06-22T11:44:30Z</time>
      </trkpt>
      <trkpt lat="42.299306" lon="-7.868043">
        <ele>213.279</ele>
        <time>2019-06-22T11:44:31Z</time>
      </trkpt>
      <trkpt lat="42.299087" lon="-7.868187">
        <ele>214.451</ele>
        <time>2019-06-22T11:44:32Z</time>
      </trkpt>
      <trkpt lat="42.298868" lon="-7.868336">
        <ele>215.783</ele>
        <time>2019-06-22T11:44:33Z</time>
      </trkpt>
      <trkpt lat="42.298664" lon="-7.868507">
        <ele>217.711</ele>
        <time>2019-06-22T11:44:34Z</time>
      </trkpt>
      <trkpt lat="42.298451" lon="-7.868686">
        <ele>219.830</ele>
        <time>2019-06-22T11:44:35Z</time>
      </trkpt>
      <trkpt lat="42.298248" lon="-7.868862">
        <ele>220.725</ele>
        <time>2019-06-22T11:44:36Z</time>
      </trkpt>
      <trkpt lat="42.298045" lon="-7.869045">
        <ele>221.388</ele>
        <time>2019-06-22T11:44:37Z</time>
      </trkpt>
      <trkpt lat="42.297847" lon="-7.869221">
        <ele>222.591</ele>
        <time>2019-06-22T11:44:38Z</time>
      </trkpt>
      <trkpt lat="42.297639" lon="-7.869376">
        <ele>223.681</ele>
        <time>2019-06-22T11:44:39Z</time>
      </trkpt>
      <trkpt lat="42.297435" lon="-7.869500">
        <ele>224.119</ele>
        <time>2019-06-22T11:44:40Z</time>
      </trkpt>
      <trkpt lat="42.297234" lon="-7.869611">
        <ele>225.908</ele>
        <time>2019-06-22T11:44:41Z</time>
      </trkpt>
      <trkpt lat="42.297033" lon="-7.869692">
        <ele>228.572</ele>
        <time>2019-06-22T11:44:42Z</time>
      </trkpt>
      <trkpt lat="42.296815" lon="-7.869736">
        <ele>229.596</ele>
        <time>2019-06-22T11:44:43Z</time>
      </trkpt>
      <trkpt lat="42.296597" lon="-7.869770">
        <ele>230.238</ele>
        <time>2019-06-22T11:44:44Z</time>
      </trkpt>
      <trkpt lat="42.296376" lon="-7.869786">
        <ele>230.710</ele>
        <time>2019-06-22T11:44:45Z</time>
      </trkpt>
      <trkpt lat="42.296161" lon="-7.869781">
        <ele>230.728</ele>
        <time>2019-06-22T11:44:46Z</time>
      </trkpt>
      <trkpt lat="42.295941" lon="-7.869760">
        <ele>229.997</ele>
        <time>2019-06-22T11:44:47Z</time>
      </trkpt>
      <trkpt lat="42.295712" lon="-7.869729">
        <ele>229.472</ele>
        <time>2019-06-22T11:44:48Z</time>
      </trkpt>
      <trkpt lat="42.295494" lon="-7.869683">
        <ele>229.455</ele>
        <time>2019-06-22T11:44:49Z</time>
      </trkpt>
      <trkpt lat="42.295293" lon="-7.869615">
        <ele>228.337</ele>
        <time>2019-06-22T11:44:50Z</time>
      </trkpt>
      <trkpt lat="42.295084" lon="-7.869518">
        <ele>228.349</ele>
        <time>2019-06-22T11:44:51Z</time>
      </trkpt>
      <trkpt lat="42.294878" lon="-7.869402">
        <ele>228.313</ele>
        <time>2019-06-22T11:44:52Z</time>
      </trkpt>
      <trkpt lat="42.294705" lon="-7.869265">
        <ele>228.408</ele>
        <time>2019-06-22T11:44:53Z</time>
      </trkpt>
      <trkpt lat="42.294514" lon="-7.869117">
        <ele>228.576</ele>
        <time>2019-06-22T11:44:54Z</time>
      </trkpt>
      <trkpt lat="42.294332" lon="-7.868961">
        <ele>228.460</ele>
        <time>2019-06-22T11:44:55Z</time>
      </trkpt>
      <trkpt lat="42.294156" lon="-7.868795">
        <ele>228.272</ele>
        <time>2019-06-22T11:44:56Z</time>
      </trkpt>
      <trkpt lat="42.293972" lon="-7.868617">
        <ele>227.034</ele>
        <time>2019-06-22T11:44:57Z</time>
      </trkpt>
      <trkpt lat="42.293805" lon="-7.868422">
        <ele>225.852</ele>
        <time>2019-06-22T11:44:58Z</time>
      </trkpt>
      <trkpt lat="42.293647" lon="-7.868177">
        <ele>225.081</ele>
        <time>2019-06-22T11:44:59Z</time>
      </trkpt>
      <trkpt lat="42.293493" lon="-7.867948">
        <ele>223.826</ele>
        <time>2019-06-22T11:45:00Z</time>
      </trkpt>
      <trkpt lat="42.293341" lon="-7.867746">
        <ele>222.199</ele>
        <time>2019-06-22T11:45:01Z</time>
      </trkpt>
      <trkpt lat="42.293190" lon="-7.867535">
        <ele>220.973</ele>
        <time>2019-06-22T11:45:02Z</time>
      </trkpt>
      <trkpt lat="42.293022" lon="-7.867348">
        <ele>219.585</ele>
        <time>2019-06-22T11:45:03Z</time>
      </trkpt>
      <trkpt lat="42.292865" lon="-7.867157">
        <ele>217.413</ele>
        <time>2019-06-22T11:45:04Z</time>
      </trkpt>
      <trkpt lat="42.292711" lon="-7.867037">
        <ele>215.608</ele>
        <time>2019-06-22T11:45:05Z</time>
      </trkpt>
      <trkpt lat="42.292554" lon="-7.866875">
        <ele>214.030</ele>
        <time>2019-06-22T11:45:06Z</time>
      </trkpt>
      <trkpt lat="42.292434" lon="-7.866813">
        <ele>212.444</ele>
        <time>2019-06-22T11:45:07Z</time>
      </trkpt>
      <trkpt lat="42.292285" lon="-7.866727">
        <ele>212.496</ele>
        <time>2019-06-22T11:45:08Z</time>
      </trkpt>
      <trkpt lat="42.292115" lon="-7.866587">
        <ele>212.578</ele>
        <time>2019-06-22T11:45:09Z</time>
      </trkpt>
      <trkpt lat="42.291949" lon="-7.866495">
        <ele>212.676</ele>
        <time>2019-06-22T11:45:10Z</time>
      </trkpt>
      <trkpt lat="42.291777" lon="-7.866358">
        <ele>213.155</ele>
        <time>2019-06-22T11:45:11Z</time>
      </trkpt>
      <trkpt lat="42.291609" lon="-7.866177">
        <ele>214.580</ele>
        <time>2019-06-22T11:45:12Z</time>
      </trkpt>
      <trkpt lat="42.291437" lon="-7.866011">
        <ele>214.813</ele>
        <time>2019-06-22T11:45:13Z</time>
      </trkpt>
      <trkpt lat="42.291259" lon="-7.865827">
        <ele>215.491</ele>
        <time>2019-06-22T11:45:14Z</time>
      </trkpt>
      <trkpt lat="42.291090" lon="-7.865622">
        <ele>216.281</ele>
        <time>2019-06-22T11:45:15Z</time>
      </trkpt>
      <trkpt lat="42.290918" lon="-7.865407">
        <ele>217.019</ele>
        <time>2019-06-22T11:45:16Z</time>
      </trkpt>
      <trkpt lat="42.290764" lon="-7.865162">
        <ele>217.008</ele>
        <time>2019-06-22T11:45:17Z</time>
      </trkpt>
      <trkpt lat="42.290626" lon="-7.864920">
        <ele>217.072</ele>
        <time>2019-06-22T11:45:18Z</time>
      </trkpt>
      <trkpt lat="42.290489" lon="-7.864675">
        <ele>217.086</ele>
        <time>2019-06-22T11:45:19Z</time>
      </trkpt>
      <trkpt lat="42.290355" lon="-7.864421">
        <ele>217.058</ele>
        <time>2019-06-22T11:45:20Z</time>
      </trkpt>
      <trkpt lat="42.290191" lon="-7.864122">
        <ele>217.050</ele>
        <time>2019-06-22T11:45:21Z</time>
      </trkpt>
      <trkpt lat="42.290103" lon="-7.863822">
        <ele>217.078</ele>
        <time>2019-06-22T11:45:22Z</time>
      </trkpt>
      <trkpt lat="42.290014" lon="-7.863525">
        <ele>217.037</ele>
        <time>2019-06-22T11:45:23Z</time>
      </trkpt>
      <trkpt lat="42.289902" lon="-7.863190">
        <ele>216.882</ele>
        <time>2019-06-22T11:45:24Z</time>
      </trkpt>
      <trkpt lat="42.289797" lon="-7.862875">
        <ele>216.265</ele>
        <time>2019-06-22T11:45:25Z</time>
      </trkpt>
      <trkpt lat="42.289667" lon="-7.862583">
        <ele>216.264</ele>
        <time>2019-06-22T11:45:26Z</time>
      </trkpt>
      <trkpt lat="42.289529" lon="-7.862314">
        <ele>215.606</ele>
        <time>2019-06-22T11:45:27Z</time>
      </trkpt>
      <trkpt lat="42.289387" lon="-7.862060">
        <ele>215.616</ele>
        <time>2019-06-22T11:45:28Z</time>
      </trkpt>
      <trkpt lat="42.289239" lon="-7.861821">
        <ele>215.608</ele>
        <time>2019-06-22T11:45:29Z</time>
      </trkpt>
      <trkpt lat="42.289078" lon="-7.861628">
        <ele>216.329</ele>
        <time>2019-06-22T11:45:30Z</time>
      </trkpt>
      <trkpt lat="42.288909" lon="-7.861415">
        <ele>216.543</ele>
        <time>2019-06-22T11:45:31Z</time>
      </trkpt>
      <trkpt lat="42.288721" lon="-7.861208">
        <ele>216.895</ele>
        <time>2019-06-22T11:45:32Z</time>
      </trkpt>
      <trkpt lat="42.288535" lon="-7.861004">
        <ele>217.997</ele>
        <time>2019-06-22T11:45:33Z</time>
      </trkpt>
      <trkpt lat="42.288358" lon="-7.860819">
        <ele>218.765</ele>
        <time>2019-06-22T11:45:34Z</time>
      </trkpt>
      <trkpt lat="42.288171" lon="-7.860627">
        <ele>218.984</ele>
        <time>2019-06-22T11:45:35Z</time>
      </trkpt>
      <trkpt lat="42.287980" lon="-7.860430">
        <ele>219.519</ele>
        <time>2019-06-22T11:45:36Z</time>
      </trkpt>
      <trkpt lat="42.287791" lon="-7.860244">
        <ele>220.242</ele>
        <time>2019-06-22T11:45:37Z</time>
      </trkpt>
      <trkpt lat="42.287605" lon="-7.860062">
        <ele>220.626</ele>
        <time>2019-06-22T11:45:38Z</time>
      </trkpt>
      <trkpt lat="42.287417" lon="-7.859907">
        <ele>220.647</ele>
        <time>2019-06-22T11:45:39Z</time>
      </trkpt>
      <trkpt lat="42.287217" lon="-7.859723">
        <ele>221.211</ele>
        <time>2019-06-22T11:45:40Z</time>
      </trkpt>
      <trkpt lat="42.287017" lon="-7.859550">
        <ele>222.108</ele>
        <time>2019-06-22T11:45:41Z</time>
      </trkpt>
      <trkpt lat="42.286817" lon="-7.859391">
        <ele>222.325</ele>
        <time>2019-06-22T11:45:42Z</time>
      </trkpt>
      <trkpt lat="42.286619" lon="-7.859232">
        <ele>222.579</ele>
        <time>2019-06-22T11:45:43Z</time>
      </trkpt>
      <trkpt lat="42.286409" lon="-7.859075">
        <ele>223.131</ele>
        <time>2019-06-22T11:45:44Z</time>
      </trkpt>
      <trkpt lat="42.286197" lon="-7.858924">
        <ele>223.573</ele>
        <time>2019-06-22T11:45:45Z</time>
      </trkpt>
      <trkpt lat="42.285985" lon="-7.858789">
        <ele>224.091</ele>
        <time>2019-06-22T11:45:46Z</time>
      </trkpt>
      <trkpt lat="42.285759" lon="-7.858638">
        <ele>224.640</ele>
        <time>2019-06-22T11:45:47Z</time>
      </trkpt>
      <trkpt lat="42.285560" lon="-7.858545">
        <ele>225.045</ele>
        <time>2019-06-22T11:45:48Z</time>
      </trkpt>
      <trkpt lat="42.285342" lon="-7.858422">
        <ele>225.498</ele>
        <time>2019-06-22T11:45:49Z</time>
      </trkpt>
      <trkpt lat="42.285118" lon="-7.858315">
        <ele>225.445</ele>
        <time>2019-06-22T11:45:50Z</time>
      </trkpt>
      <trkpt lat="42.284903" lon="-7.858223">
        <ele>225.447</ele>
        <time>2019-06-22T11:45:51Z</time>
      </trkpt>
      <trkpt lat="42.284675" lon="-7.858140">
        <ele>225.011</ele>
        <time>2019-06-22T11:45:52Z</time>
      </trkpt>
      <trkpt lat="42.284452" lon="-7.858053">
        <ele>225.008</ele>
        <time>2019-06-22T11:45:53Z</time>
      </trkpt>
      <trkpt lat="42.284232" lon="-7.857982">
        <ele>226.047</ele>
        <time>2019-06-22T11:45:54Z</time>
      </trkpt>
      <trkpt lat="42.284013" lon="-7.857899">
        <ele>226.991</ele>
        <time>2019-06-22T11:45:55Z</time>
      </trkpt>
      <trkpt lat="42.283786" lon="-7.857797">
        <ele>228.323</ele>
        <time>2019-06-22T11:45:56Z</time>
      </trkpt>
      <trkpt lat="42.283576" lon="-7.857697">
        <ele>230.255</ele>
        <time>2019-06-22T11:45:57Z</time>
      </trkpt>
      <trkpt lat="42.283365" lon="-7.857579">
        <ele>231.483</ele>
        <time>2019-06-22T11:45:58Z</time>
      </trkpt>
      <trkpt lat="42.283164" lon="-7.857448">
        <ele>232.172</ele>
        <time>2019-06-22T11:45:59Z</time>
      </trkpt>
      <trkpt lat="42.282969" lon="-7.857296">
        <ele>233.087</ele>
        <time>2019-06-22T11:46:00Z</time>
      </trkpt>
      <trkpt lat="42.282791" lon="-7.857153">
        <ele>234.020</ele>
        <time>2019-06-22T11:46:01Z</time>
      </trkpt>
      <trkpt lat="42.282624" lon="-7.856954">
        <ele>234.584</ele>
        <time>2019-06-22T11:46:02Z</time>
      </trkpt>
      <trkpt lat="42.282455" lon="-7.856736">
        <ele>235.007</ele>
        <time>2019-06-22T11:46:03Z</time>
      </trkpt>
      <trkpt lat="42.282271" lon="-7.856455">
        <ele>235.217</ele>
        <time>2019-06-22T11:46:04Z</time>
      </trkpt>
      <trkpt lat="42.282095" lon="-7.856203">
        <ele>235.208</ele>
        <time>2019-06-22T11:46:05Z</time>
      </trkpt>
      <trkpt lat="42.281953" lon="-7.855890">
        <ele>234.961</ele>
        <time>2019-06-22T11:46:06Z</time>
      </trkpt>
      <trkpt lat="42.281833" lon="-7.855600">
        <ele>234.625</ele>
        <time>2019-06-22T11:46:07Z</time>
      </trkpt>
      <trkpt lat="42.281686" lon="-7.855313">
        <ele>234.447</ele>
        <time>2019-06-22T11:46:08Z</time>
      </trkpt>
      <trkpt lat="42.281551" lon="-7.855023">
        <ele>234.419</ele>
        <time>2019-06-22T11:46:09Z</time>
      </trkpt>
      <trkpt lat="42.281454" lon="-7.854758">
        <ele>234.467</ele>
        <time>2019-06-22T11:46:10Z</time>
      </trkpt>
      <trkpt lat="42.281486" lon="-7.854471">
        <ele>234.446</ele>
        <time>2019-06-22T11:46:11Z</time>
      </trkpt>
      <trkpt lat="42.281516" lon="-7.854171">
        <ele>234.111</ele>
        <time>2019-06-22T11:46:12Z</time>
      </trkpt>
      <trkpt lat="42.281537" lon="-7.853863">
        <ele>233.464</ele>
        <time>2019-06-22T11:46:13Z</time>
      </trkpt>
      <trkpt lat="42.281605" lon="-7.853517">
        <ele>233.153</ele>
        <time>2019-06-22T11:46:14Z</time>
      </trkpt>
      <trkpt lat="42.281522" lon="-7.853185">
        <ele>233.104</ele>
        <time>2019-06-22T11:46:15Z</time>
      </trkpt>
      <trkpt lat="42.281486" lon="-7.852875">
        <ele>233.814</ele>
        <time>2019-06-22T11:46:16Z</time>
      </trkpt>
      <trkpt lat="42.281559" lon="-7.852601">
        <ele>234.608</ele>
        <time>2019-06-22T11:46:17Z</time>
      </trkpt>
      <trkpt lat="42.281519" lon="-7.852288">
        <ele>236.158</ele>
        <time>2019-06-22T11:46:18Z</time>
      </trkpt>
      <trkpt lat="42.281458" lon="-7.851981">
        <ele>237.892</ele>
        <time>2019-06-22T11:46:19Z</time>
      </trkpt>
      <trkpt lat="42.281405" lon="-7.851667">
        <ele>240.034</ele>
        <time>2019-06-22T11:46:20Z</time>
      </trkpt>
      <trkpt lat="42.281348" lon="-7.851355">
        <ele>241.796</ele>
        <time>2019-06-22T11:46:21Z</time>
      </trkpt>
      <trkpt lat="42.281327" lon="-7.851034">
        <ele>243.684</ele>
        <time>2019-06-22T11:46:22Z</time>
      </trkpt>
      <trkpt lat="42.281300" lon="-7.850703">
        <ele>245.533</ele>
        <time>2019-06-22T11:46:23Z</time>
      </trkpt>
      <trkpt lat="42.281299" lon="-7.850367">
        <ele>246.978</ele>
        <time>2019-06-22T11:46:24Z</time>
      </trkpt>
      <trkpt lat="42.281314" lon="-7.850070">
        <ele>247.341</ele>
        <time>2019-06-22T11:46:25Z</time>
      </trkpt>
      <trkpt lat="42.281322" lon="-7.849776">
        <ele>247.886</ele>
        <time>2019-06-22T11:46:26Z</time>
      </trkpt>
      <trkpt lat="42.281460" lon="-7.849509">
        <ele>248.260</ele>
        <time>2019-06-22T11:46:27Z</time>
      </trkpt>
      <trkpt lat="42.281576" lon="-7.849201">
        <ele>248.826</ele>
        <time>2019-06-22T11:46:28Z</time>
      </trkpt>
      <trkpt lat="42.281685" lon="-7.848909">
        <ele>249.408</ele>
        <time>2019-06-22T11:46:29Z</time>
      </trkpt>
      <trkpt lat="42.281830" lon="-7.848651">
        <ele>250.281</ele>
        <time>2019-06-22T11:46:30Z</time>
      </trkpt>
      <trkpt lat="42.281972" lon="-7.848411">
        <ele>250.945</ele>
        <time>2019-06-22T11:46:31Z</time>
      </trkpt>
      <trkpt lat="42.282180" lon="-7.848229">
        <ele>251.917</ele>
        <time>2019-06-22T11:46:32Z</time>
      </trkpt>
      <trkpt lat="42.282369" lon="-7.848043">
        <ele>252.839</ele>
        <time>2019-06-22T11:46:33Z</time>
      </trkpt>
      <trkpt lat="42.282575" lon="-7.847894">
        <ele>254.197</ele>
        <time>2019-06-22T11:46:34Z</time>
      </trkpt>
      <trkpt lat="42.282775" lon="-7.847741">
        <ele>255.196</ele>
        <time>2019-06-22T11:46:35Z</time>
      </trkpt>
      <trkpt lat="42.282978" lon="-7.847584">
        <ele>256.481</ele>
        <time>2019-06-22T11:46:36Z</time>
      </trkpt>
      <trkpt lat="42.283182" lon="-7.847433">
        <ele>257.144</ele>
        <time>2019-06-22T11:46:37Z</time>
      </trkpt>
      <trkpt lat="42.283366" lon="-7.847266">
        <ele>257.129</ele>
        <time>2019-06-22T11:46:38Z</time>
      </trkpt>
      <trkpt lat="42.283551" lon="-7.847073">
        <ele>257.100</ele>
        <time>2019-06-22T11:46:39Z</time>
      </trkpt>
      <trkpt lat="42.283721" lon="-7.846870">
        <ele>257.120</ele>
        <time>2019-06-22T11:46:40Z</time>
      </trkpt>
      <trkpt lat="42.283883" lon="-7.846647">
        <ele>257.308</ele>
        <time>2019-06-22T11:46:41Z</time>
      </trkpt>
      <trkpt lat="42.284041" lon="-7.846413">
        <ele>257.735</ele>
        <time>2019-06-22T11:46:42Z</time>
      </trkpt>
      <trkpt lat="42.284187" lon="-7.846167">
        <ele>258.349</ele>
        <time>2019-06-22T11:46:43Z</time>
      </trkpt>
      <trkpt lat="42.284295" lon="-7.845908">
        <ele>259.081</ele>
        <time>2019-06-22T11:46:44Z</time>
      </trkpt>
      <trkpt lat="42.284402" lon="-7.845646">
        <ele>260.493</ele>
        <time>2019-06-22T11:46:45Z</time>
      </trkpt>
      <trkpt lat="42.284518" lon="-7.845390">
        <ele>261.421</ele>
        <time>2019-06-22T11:46:46Z</time>
      </trkpt>
      <trkpt lat="42.284629" lon="-7.845133">
        <ele>262.680</ele>
        <time>2019-06-22T11:46:47Z</time>
      </trkpt>
      <trkpt lat="42.284724" lon="-7.844861">
        <ele>263.765</ele>
        <time>2019-06-22T11:46:48Z</time>
      </trkpt>
      <trkpt lat="42.284783" lon="-7.844592">
        <ele>263.768</ele>
        <time>2019-06-22T11:46:49Z</time>
      </trkpt>
      <trkpt lat="42.284826" lon="-7.844296">
        <ele>266.179</ele>
        <time>2019-06-22T11:46:50Z</time>
      </trkpt>
      <trkpt lat="42.284816" lon="-7.844002">
        <ele>266.105</ele>
        <time>2019-06-22T11:46:51Z</time>
      </trkpt>
      <trkpt lat="42.284826" lon="-7.843703">
        <ele>266.125</ele>
        <time>2019-06-22T11:46:52Z</time>
      </trkpt>
      <trkpt lat="42.284812" lon="-7.843420">
        <ele>266.108</ele>
        <time>2019-06-22T11:46:53Z</time>
      </trkpt>
      <trkpt lat="42.284791" lon="-7.843129">
        <ele>265.470</ele>
        <time>2019-06-22T11:46:54Z</time>
      </trkpt>
      <trkpt lat="42.284723" lon="-7.842831">
        <ele>264.564</ele>
        <time>2019-06-22T11:46:55Z</time>
      </trkpt>
      <trkpt lat="42.284667" lon="-7.842552">
        <ele>263.536</ele>
        <time>2019-06-22T11:46:56Z</time>
      </trkpt>
      <trkpt lat="42.284589" lon="-7.842272">
        <ele>262.588</ele>
        <time>2019-06-22T11:46:57Z</time>
      </trkpt>
      <trkpt lat="42.284497" lon="-7.842030">
        <ele>262.166</ele>
        <time>2019-06-22T11:46:58Z</time>
      </trkpt>
      <trkpt lat="42.284398" lon="-7.841755">
        <ele>262.145</ele>
        <time>2019-06-22T11:46:59Z</time>
      </trkpt>
      <trkpt lat="42.284269" lon="-7.841485">
        <ele>262.390</ele>
        <time>2019-06-22T11:47:00Z</time>
      </trkpt>
      <trkpt lat="42.284118" lon="-7.841244">
        <ele>262.683</ele>
        <time>2019-06-22T11:47:01Z</time>
      </trkpt>
      <trkpt lat="42.283963" lon="-7.841004">
        <ele>263.332</ele>
        <time>2019-06-22T11:47:02Z</time>
      </trkpt>
      <trkpt lat="42.283815" lon="-7.840768">
        <ele>263.392</ele>
        <time>2019-06-22T11:47:03Z</time>
      </trkpt>
      <trkpt lat="42.283596" lon="-7.840601">
        <ele>262.711</ele>
        <time>2019-06-22T11:47:04Z</time>
      </trkpt>
      <trkpt lat="42.283412" lon="-7.840399">
        <ele>262.708</ele>
        <time>2019-06-22T11:47:05Z</time>
      </trkpt>
      <trkpt lat="42.283197" lon="-7.840211">
        <ele>262.736</ele>
        <time>2019-06-22T11:47:06Z</time>
      </trkpt>
      <trkpt lat="42.283012" lon="-7.840083">
        <ele>262.320</ele>
        <time>2019-06-22T11:47:07Z</time>
      </trkpt>
      <trkpt lat="42.282791" lon="-7.839954">
        <ele>261.172</ele>
        <time>2019-06-22T11:47:08Z</time>
      </trkpt>
      <trkpt lat="42.282560" lon="-7.839825">
        <ele>261.094</ele>
        <time>2019-06-22T11:47:09Z</time>
      </trkpt>
      <trkpt lat="42.282329" lon="-7.839696">
        <ele>261.012</ele>
        <time>2019-06-22T11:47:10Z</time>
      </trkpt>
      <trkpt lat="42.282109" lon="-7.839568">
        <ele>260.351</ele>
        <time>2019-06-22T11:47:11Z</time>
      </trkpt>
      <trkpt lat="42.281892" lon="-7.839425">
        <ele>260.286</ele>
        <time>2019-06-22T11:47:12Z</time>
      </trkpt>
      <trkpt lat="42.281697" lon="-7.839299">
        <ele>260.089</ele>
        <time>2019-06-22T11:47:13Z</time>
      </trkpt>
      <trkpt lat="42.281490" lon="-7.839143">
        <ele>260.257</ele>
        <time>2019-06-22T11:47:14Z</time>
      </trkpt>
      <trkpt lat="42.281285" lon="-7.838967">
        <ele>260.300</ele>
        <time>2019-06-22T11:47:15Z</time>
      </trkpt>
      <trkpt lat="42.281090" lon="-7.838766">
        <ele>261.820</ele>
        <time>2019-06-22T11:47:16Z</time>
      </trkpt>
      <trkpt lat="42.280901" lon="-7.838566">
        <ele>263.008</ele>
        <time>2019-06-22T11:47:17Z</time>
      </trkpt>
      <trkpt lat="42.280716" lon="-7.838351">
        <ele>264.948</ele>
        <time>2019-06-22T11:47:18Z</time>
      </trkpt>
      <trkpt lat="42.280525" lon="-7.838140">
        <ele>266.612</ele>
        <time>2019-06-22T11:47:19Z</time>
      </trkpt>
      <trkpt lat="42.280332" lon="-7.837935">
        <ele>266.644</ele>
        <time>2019-06-22T11:47:20Z</time>
      </trkpt>
      <trkpt lat="42.280132" lon="-7.837739">
        <ele>266.286</ele>
        <time>2019-06-22T11:47:21Z</time>
      </trkpt>
      <trkpt lat="42.279937" lon="-7.837552">
        <ele>265.614</ele>
        <time>2019-06-22T11:47:22Z</time>
      </trkpt>
      <trkpt lat="42.279719" lon="-7.837356">
        <ele>265.283</ele>
        <time>2019-06-22T11:47:23Z</time>
      </trkpt>
      <trkpt lat="42.279516" lon="-7.837176">
        <ele>264.658</ele>
        <time>2019-06-22T11:47:24Z</time>
      </trkpt>
      <trkpt lat="42.279315" lon="-7.837042">
        <ele>264.651</ele>
        <time>2019-06-22T11:47:25Z</time>
      </trkpt>
      <trkpt lat="42.279110" lon="-7.836904">
        <ele>264.974</ele>
        <time>2019-06-22T11:47:26Z</time>
      </trkpt>
      <trkpt lat="42.278900" lon="-7.836759">
        <ele>264.956</ele>
        <time>2019-06-22T11:47:27Z</time>
      </trkpt>
      <trkpt lat="42.278706" lon="-7.836679">
        <ele>265.121</ele>
        <time>2019-06-22T11:47:28Z</time>
      </trkpt>
      <trkpt lat="42.278474" lon="-7.836587">
        <ele>265.408</ele>
        <time>2019-06-22T11:47:29Z</time>
      </trkpt>
      <trkpt lat="42.278235" lon="-7.836497">
        <ele>266.140</ele>
        <time>2019-06-22T11:47:30Z</time>
      </trkpt>
      <trkpt lat="42.277985" lon="-7.836422">
        <ele>266.474</ele>
        <time>2019-06-22T11:47:31Z</time>
      </trkpt>
      <trkpt lat="42.277736" lon="-7.836372">
        <ele>266.546</ele>
        <time>2019-06-22T11:47:32Z</time>
      </trkpt>
      <trkpt lat="42.277485" lon="-7.836335">
        <ele>267.358</ele>
        <time>2019-06-22T11:47:33Z</time>
      </trkpt>
      <trkpt lat="42.277244" lon="-7.836319">
        <ele>267.686</ele>
        <time>2019-06-22T11:47:34Z</time>
      </trkpt>
      <trkpt lat="42.277003" lon="-7.836312">
        <ele>267.825</ele>
        <time>2019-06-22T11:47:35Z</time>
      </trkpt>
      <trkpt lat="42.276768" lon="-7.836350">
        <ele>269.020</ele>
        <time>2019-06-22T11:47:36Z</time>
      </trkpt>
      <trkpt lat="42.276540" lon="-7.836389">
        <ele>270.393</ele>
        <time>2019-06-22T11:47:37Z</time>
      </trkpt>
      <trkpt lat="42.276310" lon="-7.836440">
        <ele>271.334</ele>
        <time>2019-06-22T11:47:38Z</time>
      </trkpt>
      <trkpt lat="42.276100" lon="-7.836500">
        <ele>272.655</ele>
        <time>2019-06-22T11:47:39Z</time>
      </trkpt>
      <trkpt lat="42.275896" lon="-7.836568">
        <ele>274.110</ele>
        <time>2019-06-22T11:47:40Z</time>
      </trkpt>
      <trkpt lat="42.275701" lon="-7.836650">
        <ele>276.208</ele>
        <time>2019-06-22T11:47:41Z</time>
      </trkpt>
      <trkpt lat="42.275513" lon="-7.836721">
        <ele>278.746</ele>
        <time>2019-06-22T11:47:42Z</time>
      </trkpt>
      <trkpt lat="42.275321" lon="-7.836806">
        <ele>281.010</ele>
        <time>2019-06-22T11:47:43Z</time>
      </trkpt>
      <trkpt lat="42.275137" lon="-7.836901">
        <ele>283.652</ele>
        <time>2019-06-22T11:47:44Z</time>
      </trkpt>
      <trkpt lat="42.274947" lon="-7.836992">
        <ele>285.654</ele>
        <time>2019-06-22T11:47:45Z</time>
      </trkpt>
      <trkpt lat="42.274763" lon="-7.837088">
        <ele>287.732</ele>
        <time>2019-06-22T11:47:46Z</time>
      </trkpt>
      <trkpt lat="42.274575" lon="-7.837202">
        <ele>289.161</ele>
        <time>2019-06-22T11:47:47Z</time>
      </trkpt>
      <trkpt lat="42.274383" lon="-7.837291">
        <ele>290.666</ele>
        <time>2019-06-22T11:47:48Z</time>
      </trkpt>
      <trkpt lat="42.274194" lon="-7.837398">
        <ele>291.899</ele>
        <time>2019-06-22T11:47:49Z</time>
      </trkpt>
      <trkpt lat="42.273998" lon="-7.837523">
        <ele>292.041</ele>
        <time>2019-06-22T11:47:50Z</time>
      </trkpt>
      <trkpt lat="42.273803" lon="-7.837607">
        <ele>292.081</ele>
        <time>2019-06-22T11:47:51Z</time>
      </trkpt>
      <trkpt lat="42.273601" lon="-7.837684">
        <ele>292.309</ele>
        <time>2019-06-22T11:47:52Z</time>
      </trkpt>
      <trkpt lat="42.273397" lon="-7.837762">
        <ele>292.908</ele>
        <time>2019-06-22T11:47:53Z</time>
      </trkpt>
      <trkpt lat="42.273177" lon="-7.837809">
        <ele>293.517</ele>
        <time>2019-06-22T11:47:54Z</time>
      </trkpt>
      <trkpt lat="42.272949" lon="-7.837837">
        <ele>294.891</ele>
        <time>2019-06-22T11:47:55Z</time>
      </trkpt>
      <trkpt lat="42.272736" lon="-7.837858">
        <ele>296.673</ele>
        <time>2019-06-22T11:47:56Z</time>
      </trkpt>
      <trkpt lat="42.272517" lon="-7.837878">
        <ele>298.475</ele>
        <time>2019-06-22T11:47:57Z</time>
      </trkpt>
      <trkpt lat="42.272287" lon="-7.837858">
        <ele>300.093</ele>
        <time>2019-06-22T11:47:58Z</time>
      </trkpt>
      <trkpt lat="42.272062" lon="-7.837845">
        <ele>301.392</ele>
        <time>2019-06-22T11:47:59Z</time>
      </trkpt>
      <trkpt lat="42.271827" lon="-7.837854">
        <ele>302.057</ele>
        <time>2019-06-22T11:48:00Z</time>
      </trkpt>
      <trkpt lat="42.271590" lon="-7.837773">
        <ele>303.530</ele>
        <time>2019-06-22T11:48:01Z</time>
      </trkpt>
      <trkpt lat="42.271367" lon="-7.837688">
        <ele>304.895</ele>
        <time>2019-06-22T11:48:02Z</time>
      </trkpt>
      <trkpt lat="42.271140" lon="-7.837589">
        <ele>306.049</ele>
        <time>2019-06-22T11:48:03Z</time>
      </trkpt>
      <trkpt lat="42.270918" lon="-7.837498">
        <ele>307.423</ele>
        <time>2019-06-22T11:48:04Z</time>
      </trkpt>
      <trkpt lat="42.270703" lon="-7.837401">
        <ele>308.108</ele>
        <time>2019-06-22T11:48:05Z</time>
      </trkpt>
      <trkpt lat="42.270480" lon="-7.837295">
        <ele>309.192</ele>
        <time>2019-06-22T11:48:06Z</time>
      </trkpt>
      <trkpt lat="42.270266" lon="-7.837191">
        <ele>310.136</ele>
        <time>2019-06-22T11:48:07Z</time>
      </trkpt>
      <trkpt lat="42.270033" lon="-7.837092">
        <ele>311.638</ele>
        <time>2019-06-22T11:48:08Z</time>
      </trkpt>
      <trkpt lat="42.269809" lon="-7.837018">
        <ele>313.150</ele>
        <time>2019-06-22T11:48:09Z</time>
      </trkpt>
      <trkpt lat="42.269581" lon="-7.836937">
        <ele>315.198</ele>
        <time>2019-06-22T11:48:10Z</time>
      </trkpt>
      <trkpt lat="42.269342" lon="-7.836867">
        <ele>316.627</ele>
        <time>2019-06-22T11:48:11Z</time>
      </trkpt>
      <trkpt lat="42.269109" lon="-7.836817">
        <ele>317.642</ele>
        <time>2019-06-22T11:48:12Z</time>
      </trkpt>
      <trkpt lat="42.268870" lon="-7.836789">
        <ele>317.685</ele>
        <time>2019-06-22T11:48:13Z</time>
      </trkpt>
      <trkpt lat="42.268633" lon="-7.836770">
        <ele>317.721</ele>
        <time>2019-06-22T11:48:14Z</time>
      </trkpt>
      <trkpt lat="42.268397" lon="-7.836760">
        <ele>318.041</ele>
        <time>2019-06-22T11:48:15Z</time>
      </trkpt>
      <trkpt lat="42.268155" lon="-7.836744">
        <ele>318.105</ele>
        <time>2019-06-22T11:48:16Z</time>
      </trkpt>
      <trkpt lat="42.267912" lon="-7.836740">
        <ele>318.308</ele>
        <time>2019-06-22T11:48:17Z</time>
      </trkpt>
      <trkpt lat="42.267670" lon="-7.836731">
        <ele>319.075</ele>
        <time>2019-06-22T11:48:18Z</time>
      </trkpt>
      <trkpt lat="42.267436" lon="-7.836702">
        <ele>320.819</ele>
        <time>2019-06-22T11:48:19Z</time>
      </trkpt>
      <trkpt lat="42.267189" lon="-7.836668">
        <ele>321.991</ele>
        <time>2019-06-22T11:48:20Z</time>
      </trkpt>
      <trkpt lat="42.266936" lon="-7.836612">
        <ele>322.613</ele>
        <time>2019-06-22T11:48:21Z</time>
      </trkpt>
      <trkpt lat="42.266692" lon="-7.836549">
        <ele>323.551</ele>
        <time>2019-06-22T11:48:22Z</time>
      </trkpt>
      <trkpt lat="42.266467" lon="-7.836441">
        <ele>324.210</ele>
        <time>2019-06-22T11:48:23Z</time>
      </trkpt>
      <trkpt lat="42.266238" lon="-7.836347">
        <ele>324.215</ele>
        <time>2019-06-22T11:48:24Z</time>
      </trkpt>
      <trkpt lat="42.266008" lon="-7.836166">
        <ele>322.968</ele>
        <time>2019-06-22T11:48:25Z</time>
      </trkpt>
      <trkpt lat="42.265783" lon="-7.836023">
        <ele>321.914</ele>
        <time>2019-06-22T11:48:26Z</time>
      </trkpt>
      <trkpt lat="42.265549" lon="-7.835829">
        <ele>320.654</ele>
        <time>2019-06-22T11:48:27Z</time>
      </trkpt>
      <trkpt lat="42.265332" lon="-7.835645">
        <ele>319.209</ele>
        <time>2019-06-22T11:48:28Z</time>
      </trkpt>
      <trkpt lat="42.265176" lon="-7.835473">
        <ele>318.108</ele>
        <time>2019-06-22T11:48:29Z</time>
      </trkpt>
      <trkpt lat="42.264968" lon="-7.835294">
        <ele>317.484</ele>
        <time>2019-06-22T11:48:30Z</time>
      </trkpt>
      <trkpt lat="42.264768" lon="-7.835119">
        <ele>315.478</ele>
        <time>2019-06-22T11:48:31Z</time>
      </trkpt>
      <trkpt lat="42.264553" lon="-7.834942">
        <ele>314.050</ele>
        <time>2019-06-22T11:48:32Z</time>
      </trkpt>
      <trkpt lat="42.264337" lon="-7.834800">
        <ele>313.562</ele>
        <time>2019-06-22T11:48:33Z</time>
      </trkpt>
      <trkpt lat="42.264100" lon="-7.834667">
        <ele>312.050</ele>
        <time>2019-06-22T11:48:34Z</time>
      </trkpt>
      <trkpt lat="42.263864" lon="-7.834566">
        <ele>310.629</ele>
        <time>2019-06-22T11:48:35Z</time>
      </trkpt>
      <trkpt lat="42.263631" lon="-7.834488">
        <ele>310.644</ele>
        <time>2019-06-22T11:48:36Z</time>
      </trkpt>
      <trkpt lat="42.263385" lon="-7.834412">
        <ele>310.647</ele>
        <time>2019-06-22T11:48:37Z</time>
      </trkpt>
      <trkpt lat="42.263154" lon="-7.834348">
        <ele>309.639</ele>
        <time>2019-06-22T11:48:38Z</time>
      </trkpt>
      <trkpt lat="42.262910" lon="-7.834266">
        <ele>308.601</ele>
        <time>2019-06-22T11:48:39Z</time>
      </trkpt>
      <trkpt lat="42.262673" lon="-7.834186">
        <ele>308.621</ele>
        <time>2019-06-22T11:48:40Z</time>
      </trkpt>
      <trkpt lat="42.262442" lon="-7.834089">
        <ele>309.508</ele>
        <time>2019-06-22T11:48:41Z</time>
      </trkpt>
      <trkpt lat="42.262208" lon="-7.833968">
        <ele>309.866</ele>
        <time>2019-06-22T11:48:42Z</time>
      </trkpt>
      <trkpt lat="42.261973" lon="-7.833844">
        <ele>310.760</ele>
        <time>2019-06-22T11:48:43Z</time>
      </trkpt>
      <trkpt lat="42.261772" lon="-7.833676">
        <ele>312.872</ele>
        <time>2019-06-22T11:48:44Z</time>
      </trkpt>
      <trkpt lat="42.261552" lon="-7.833518">
        <ele>314.354</ele>
        <time>2019-06-22T11:48:45Z</time>
      </trkpt>
      <trkpt lat="42.261342" lon="-7.833346">
        <ele>314.682</ele>
        <time>2019-06-22T11:48:46Z</time>
      </trkpt>
      <trkpt lat="42.261134" lon="-7.833186">
        <ele>314.671</ele>
        <time>2019-06-22T11:48:47Z</time>
      </trkpt>
      <trkpt lat="42.260914" lon="-7.833028">
        <ele>314.596</ele>
        <time>2019-06-22T11:48:48Z</time>
      </trkpt>
      <trkpt lat="42.260688" lon="-7.832887">
        <ele>314.379</ele>
        <time>2019-06-22T11:48:49Z</time>
      </trkpt>
      <trkpt lat="42.260458" lon="-7.832740">
        <ele>314.147</ele>
        <time>2019-06-22T11:48:50Z</time>
      </trkpt>
      <trkpt lat="42.260227" lon="-7.832621">
        <ele>314.129</ele>
        <time>2019-06-22T11:48:51Z</time>
      </trkpt>
      <trkpt lat="42.259994" lon="-7.832553">
        <ele>313.321</ele>
        <time>2019-06-22T11:48:52Z</time>
      </trkpt>
      <trkpt lat="42.259731" lon="-7.832469">
        <ele>312.708</ele>
        <time>2019-06-22T11:48:53Z</time>
      </trkpt>
      <trkpt lat="42.259488" lon="-7.832431">
        <ele>312.637</ele>
        <time>2019-06-22T11:48:54Z</time>
      </trkpt>
      <trkpt lat="42.259231" lon="-7.832417">
        <ele>312.691</ele>
        <time>2019-06-22T11:48:55Z</time>
      </trkpt>
      <trkpt lat="42.258989" lon="-7.832419">
        <ele>312.693</ele>
        <time>2019-06-22T11:48:56Z</time>
      </trkpt>
      <trkpt lat="42.258767" lon="-7.832454">
        <ele>313.645</ele>
        <time>2019-06-22T11:48:57Z</time>
      </trkpt>
      <trkpt lat="42.258533" lon="-7.832485">
        <ele>314.753</ele>
        <time>2019-06-22T11:48:58Z</time>
      </trkpt>
      <trkpt lat="42.258299" lon="-7.832530">
        <ele>315.442</ele>
        <time>2019-06-22T11:48:59Z</time>
      </trkpt>
      <trkpt lat="42.258080" lon="-7.832596">
        <ele>315.917</ele>
        <time>2019-06-22T11:49:00Z</time>
      </trkpt>
      <trkpt lat="42.257864" lon="-7.832682">
        <ele>317.330</ele>
        <time>2019-06-22T11:49:01Z</time>
      </trkpt>
      <trkpt lat="42.257647" lon="-7.832807">
        <ele>318.682</ele>
        <time>2019-06-22T11:49:02Z</time>
      </trkpt>
      <trkpt lat="42.257445" lon="-7.832952">
        <ele>320.043</ele>
        <time>2019-06-22T11:49:03Z</time>
      </trkpt>
      <trkpt lat="42.257238" lon="-7.833097">
        <ele>321.317</ele>
        <time>2019-06-22T11:49:04Z</time>
      </trkpt>
      <trkpt lat="42.257038" lon="-7.833251">
        <ele>323.608</ele>
        <time>2019-06-22T11:49:05Z</time>
      </trkpt>
      <trkpt lat="42.256832" lon="-7.833421">
        <ele>324.061</ele>
        <time>2019-06-22T11:49:06Z</time>
      </trkpt>
      <trkpt lat="42.256628" lon="-7.833593">
        <ele>324.725</ele>
        <time>2019-06-22T11:49:07Z</time>
      </trkpt>
      <trkpt lat="42.256444" lon="-7.833787">
        <ele>325.997</ele>
        <time>2019-06-22T11:49:08Z</time>
      </trkpt>
      <trkpt lat="42.256243" lon="-7.833964">
        <ele>325.919</ele>
        <time>2019-06-22T11:49:09Z</time>
      </trkpt>
      <trkpt lat="42.256041" lon="-7.834148">
        <ele>325.897</ele>
        <time>2019-06-22T11:49:10Z</time>
      </trkpt>
      <trkpt lat="42.255830" lon="-7.834319">
        <ele>325.346</ele>
        <time>2019-06-22T11:49:11Z</time>
      </trkpt>
      <trkpt lat="42.255625" lon="-7.834481">
        <ele>325.051</ele>
        <time>2019-06-22T11:49:12Z</time>
      </trkpt>
      <trkpt lat="42.255399" lon="-7.834634">
        <ele>325.354</ele>
        <time>2019-06-22T11:49:13Z</time>
      </trkpt>
      <trkpt lat="42.255177" lon="-7.834773">
        <ele>325.389</ele>
        <time>2019-06-22T11:49:14Z</time>
      </trkpt>
      <trkpt lat="42.254946" lon="-7.834897">
        <ele>325.606</ele>
        <time>2019-06-22T11:49:15Z</time>
      </trkpt>
      <trkpt lat="42.254701" lon="-7.834996">
        <ele>327.426</ele>
        <time>2019-06-22T11:49:16Z</time>
      </trkpt>
      <trkpt lat="42.254466" lon="-7.835091">
        <ele>327.408</ele>
        <time>2019-06-22T11:49:17Z</time>
      </trkpt>
      <trkpt lat="42.254211" lon="-7.835176">
        <ele>327.241</ele>
        <time>2019-06-22T11:49:18Z</time>
      </trkpt>
      <trkpt lat="42.253969" lon="-7.835247">
        <ele>326.135</ele>
        <time>2019-06-22T11:49:19Z</time>
      </trkpt>
      <trkpt lat="42.253718" lon="-7.835326">
        <ele>324.767</ele>
        <time>2019-06-22T11:49:20Z</time>
      </trkpt>
      <trkpt lat="42.253474" lon="-7.835418">
        <ele>323.679</ele>
        <time>2019-06-22T11:49:21Z</time>
      </trkpt>
      <trkpt lat="42.253225" lon="-7.835504">
        <ele>322.347</ele>
        <time>2019-06-22T11:49:22Z</time>
      </trkpt>
      <trkpt lat="42.252970" lon="-7.835593">
        <ele>320.926</ele>
        <time>2019-06-22T11:49:23Z</time>
      </trkpt>
      <trkpt lat="42.252721" lon="-7.835687">
        <ele>320.281</ele>
        <time>2019-06-22T11:49:24Z</time>
      </trkpt>
      <trkpt lat="42.252478" lon="-7.835797">
        <ele>320.134</ele>
        <time>2019-06-22T11:49:25Z</time>
      </trkpt>
      <trkpt lat="42.252233" lon="-7.835921">
        <ele>319.917</ele>
        <time>2019-06-22T11:49:26Z</time>
      </trkpt>
      <trkpt lat="42.252001" lon="-7.836053">
        <ele>319.787</ele>
        <time>2019-06-22T11:49:27Z</time>
      </trkpt>
      <trkpt lat="42.251770" lon="-7.836193">
        <ele>319.715</ele>
        <time>2019-06-22T11:49:28Z</time>
      </trkpt>
      <trkpt lat="42.251538" lon="-7.836361">
        <ele>319.908</ele>
        <time>2019-06-22T11:49:29Z</time>
      </trkpt>
      <trkpt lat="42.251311" lon="-7.836537">
        <ele>320.114</ele>
        <time>2019-06-22T11:49:30Z</time>
      </trkpt>
      <trkpt lat="42.251096" lon="-7.836727">
        <ele>320.988</ele>
        <time>2019-06-22T11:49:31Z</time>
      </trkpt>
      <trkpt lat="42.250889" lon="-7.836930">
        <ele>321.640</ele>
        <time>2019-06-22T11:49:32Z</time>
      </trkpt>
      <trkpt lat="42.250696" lon="-7.837137">
        <ele>322.962</ele>
        <time>2019-06-22T11:49:33Z</time>
      </trkpt>
      <trkpt lat="42.250505" lon="-7.837349">
        <ele>324.390</ele>
        <time>2019-06-22T11:49:34Z</time>
      </trkpt>
      <trkpt lat="42.250326" lon="-7.837580">
        <ele>325.149</ele>
        <time>2019-06-22T11:49:35Z</time>
      </trkpt>
      <trkpt lat="42.250152" lon="-7.837819">
        <ele>326.094</ele>
        <time>2019-06-22T11:49:36Z</time>
      </trkpt>
      <trkpt lat="42.249992" lon="-7.838064">
        <ele>327.537</ele>
        <time>2019-06-22T11:49:37Z</time>
      </trkpt>
      <trkpt lat="42.249828" lon="-7.838318">
        <ele>329.425</ele>
        <time>2019-06-22T11:49:38Z</time>
      </trkpt>
      <trkpt lat="42.249676" lon="-7.838558">
        <ele>330.626</ele>
        <time>2019-06-22T11:49:39Z</time>
      </trkpt>
      <trkpt lat="42.249520" lon="-7.838817">
        <ele>332.508</ele>
        <time>2019-06-22T11:49:40Z</time>
      </trkpt>
      <trkpt lat="42.249368" lon="-7.839070">
        <ele>334.308</ele>
        <time>2019-06-22T11:49:41Z</time>
      </trkpt>
      <trkpt lat="42.249224" lon="-7.839321">
        <ele>335.685</ele>
        <time>2019-06-22T11:49:42Z</time>
      </trkpt>
      <trkpt lat="42.249067" lon="-7.839573">
        <ele>336.479</ele>
        <time>2019-06-22T11:49:43Z</time>
      </trkpt>
      <trkpt lat="42.248912" lon="-7.839820">
        <ele>338.191</ele>
        <time>2019-06-22T11:49:44Z</time>
      </trkpt>
      <trkpt lat="42.248750" lon="-7.840056">
        <ele>339.293</ele>
        <time>2019-06-22T11:49:45Z</time>
      </trkpt>
      <trkpt lat="42.248585" lon="-7.840283">
        <ele>340.961</ele>
        <time>2019-06-22T11:49:46Z</time>
      </trkpt>
      <trkpt lat="42.248412" lon="-7.840507">
        <ele>342.780</ele>
        <time>2019-06-22T11:49:47Z</time>
      </trkpt>
      <trkpt lat="42.248230" lon="-7.840721">
        <ele>343.685</ele>
        <time>2019-06-22T11:49:48Z</time>
      </trkpt>
      <trkpt lat="42.248035" lon="-7.840920">
        <ele>343.898</ele>
        <time>2019-06-22T11:49:49Z</time>
      </trkpt>
      <trkpt lat="42.247837" lon="-7.841107">
        <ele>343.886</ele>
        <time>2019-06-22T11:49:50Z</time>
      </trkpt>
      <trkpt lat="42.247643" lon="-7.841291">
        <ele>343.860</ele>
        <time>2019-06-22T11:49:51Z</time>
      </trkpt>
      <trkpt lat="42.247443" lon="-7.841469">
        <ele>344.326</ele>
        <time>2019-06-22T11:49:52Z</time>
      </trkpt>
      <trkpt lat="42.247232" lon="-7.841627">
        <ele>345.108</ele>
        <time>2019-06-22T11:49:53Z</time>
      </trkpt>
      <trkpt lat="42.247017" lon="-7.841774">
        <ele>345.941</ele>
        <time>2019-06-22T11:49:54Z</time>
      </trkpt>
      <trkpt lat="42.246808" lon="-7.841914">
        <ele>347.735</ele>
        <time>2019-06-22T11:49:55Z</time>
      </trkpt>
      <trkpt lat="42.246590" lon="-7.842043">
        <ele>350.027</ele>
        <time>2019-06-22T11:49:56Z</time>
      </trkpt>
      <trkpt lat="42.246367" lon="-7.842166">
        <ele>352.059</ele>
        <time>2019-06-22T11:49:57Z</time>
      </trkpt>
      <trkpt lat="42.246141" lon="-7.842284">
        <ele>353.557</ele>
        <time>2019-06-22T11:49:58Z</time>
      </trkpt>
      <trkpt lat="42.245937" lon="-7.842376">
        <ele>354.636</ele>
        <time>2019-06-22T11:49:59Z</time>
      </trkpt>
      <trkpt lat="42.245719" lon="-7.842441">
        <ele>356.461</ele>
        <time>2019-06-22T11:50:00Z</time>
      </trkpt>
      <trkpt lat="42.245502" lon="-7.842507">
        <ele>357.644</ele>
        <time>2019-06-22T11:50:01Z</time>
      </trkpt>
      <trkpt lat="42.245276" lon="-7.842563">
        <ele>358.944</ele>
        <time>2019-06-22T11:50:02Z</time>
      </trkpt>
      <trkpt lat="42.245056" lon="-7.842609">
        <ele>359.905</ele>
        <time>2019-06-22T11:50:03Z</time>
      </trkpt>
      <trkpt lat="42.244824" lon="-7.842660">
        <ele>360.915</ele>
        <time>2019-06-22T11:50:04Z</time>
      </trkpt>
      <trkpt lat="42.244613" lon="-7.842685">
        <ele>362.708</ele>
        <time>2019-06-22T11:50:05Z</time>
      </trkpt>
      <trkpt lat="42.244383" lon="-7.842731">
        <ele>363.437</ele>
        <time>2019-06-22T11:50:06Z</time>
      </trkpt>
      <trkpt lat="42.244161" lon="-7.842771">
        <ele>364.491</ele>
        <time>2019-06-22T11:50:07Z</time>
      </trkpt>
      <trkpt lat="42.243931" lon="-7.842828">
        <ele>365.783</ele>
        <time>2019-06-22T11:50:08Z</time>
      </trkpt>
      <trkpt lat="42.243699" lon="-7.842896">
        <ele>367.765</ele>
        <time>2019-06-22T11:50:09Z</time>
      </trkpt>
      <trkpt lat="42.243458" lon="-7.842964">
        <ele>368.913</ele>
        <time>2019-06-22T11:50:10Z</time>
      </trkpt>
      <trkpt lat="42.243224" lon="-7.843030">
        <ele>370.552</ele>
        <time>2019-06-22T11:50:11Z</time>
      </trkpt>
      <trkpt lat="42.242996" lon="-7.843101">
        <ele>371.847</ele>
        <time>2019-06-22T11:50:12Z</time>
      </trkpt>
      <trkpt lat="42.242765" lon="-7.843232">
        <ele>373.450</ele>
        <time>2019-06-22T11:50:13Z</time>
      </trkpt>
      <trkpt lat="42.242542" lon="-7.843364">
        <ele>374.036</ele>
        <time>2019-06-22T11:50:14Z</time>
      </trkpt>
      <trkpt lat="42.242306" lon="-7.843512">
        <ele>374.717</ele>
        <time>2019-06-22T11:50:15Z</time>
      </trkpt>
      <trkpt lat="42.242085" lon="-7.843647">
        <ele>375.718</ele>
        <time>2019-06-22T11:50:16Z</time>
      </trkpt>
      <trkpt lat="42.241869" lon="-7.843809">
        <ele>376.708</ele>
        <time>2019-06-22T11:50:17Z</time>
      </trkpt>
      <trkpt lat="42.241666" lon="-7.843972">
        <ele>377.956</ele>
        <time>2019-06-22T11:50:18Z</time>
      </trkpt>
      <trkpt lat="42.241467" lon="-7.844148">
        <ele>379.520</ele>
        <time>2019-06-22T11:50:19Z</time>
      </trkpt>
      <trkpt lat="42.241269" lon="-7.844341">
        <ele>381.242</ele>
        <time>2019-06-22T11:50:20Z</time>
      </trkpt>
      <trkpt lat="42.241078" lon="-7.844539">
        <ele>383.064</ele>
        <time>2019-06-22T11:50:21Z</time>
      </trkpt>
      <trkpt lat="42.240887" lon="-7.844731">
        <ele>384.732</ele>
        <time>2019-06-22T11:50:22Z</time>
      </trkpt>
      <trkpt lat="42.240684" lon="-7.844922">
        <ele>386.411</ele>
        <time>2019-06-22T11:50:23Z</time>
      </trkpt>
      <trkpt lat="42.240486" lon="-7.845102">
        <ele>387.936</ele>
        <time>2019-06-22T11:50:24Z</time>
      </trkpt>
      <trkpt lat="42.240284" lon="-7.845281">
        <ele>389.079</ele>
        <time>2019-06-22T11:50:25Z</time>
      </trkpt>
      <trkpt lat="42.240081" lon="-7.845456">
        <ele>390.588</ele>
        <time>2019-06-22T11:50:26Z</time>
      </trkpt>
      <trkpt lat="42.239868" lon="-7.845609">
        <ele>392.024</ele>
        <time>2019-06-22T11:50:27Z</time>
      </trkpt>
      <trkpt lat="42.239655" lon="-7.845755">
        <ele>393.226</ele>
        <time>2019-06-22T11:50:28Z</time>
      </trkpt>
      <trkpt lat="42.239437" lon="-7.845883">
        <ele>394.908</ele>
        <time>2019-06-22T11:50:29Z</time>
      </trkpt>
      <trkpt lat="42.239197" lon="-7.845991">
        <ele>396.751</ele>
        <time>2019-06-22T11:50:30Z</time>
      </trkpt>
      <trkpt lat="42.238966" lon="-7.846089">
        <ele>398.275</ele>
        <time>2019-06-22T11:50:31Z</time>
      </trkpt>
      <trkpt lat="42.238737" lon="-7.846167">
        <ele>399.337</ele>
        <time>2019-06-22T11:50:32Z</time>
      </trkpt>
      <trkpt lat="42.238506" lon="-7.846201">
        <ele>400.729</ele>
        <time>2019-06-22T11:50:33Z</time>
      </trkpt>
      <trkpt lat="42.238259" lon="-7.846218">
        <ele>401.717</ele>
        <time>2019-06-22T11:50:34Z</time>
      </trkpt>
      <trkpt lat="42.238017" lon="-7.846256">
        <ele>403.096</ele>
        <time>2019-06-22T11:50:35Z</time>
      </trkpt>
      <trkpt lat="42.237772" lon="-7.846255">
        <ele>404.231</ele>
        <time>2019-06-22T11:50:36Z</time>
      </trkpt>
      <trkpt lat="42.237528" lon="-7.846227">
        <ele>405.674</ele>
        <time>2019-06-22T11:50:37Z</time>
      </trkpt>
      <trkpt lat="42.237286" lon="-7.846186">
        <ele>407.256</ele>
        <time>2019-06-22T11:50:38Z</time>
      </trkpt>
      <trkpt lat="42.237047" lon="-7.846113">
        <ele>408.859</ele>
        <time>2019-06-22T11:50:39Z</time>
      </trkpt>
      <trkpt lat="42.236801" lon="-7.846029">
        <ele>410.114</ele>
        <time>2019-06-22T11:50:40Z</time>
      </trkpt>
      <trkpt lat="42.236571" lon="-7.845920">
        <ele>411.608</ele>
        <time>2019-06-22T11:50:41Z</time>
      </trkpt>
      <trkpt lat="42.236348" lon="-7.845814">
        <ele>412.518</ele>
        <time>2019-06-22T11:50:42Z</time>
      </trkpt>
      <trkpt lat="42.236126" lon="-7.845664">
        <ele>413.452</ele>
        <time>2019-06-22T11:50:43Z</time>
      </trkpt>
      <trkpt lat="42.235874" lon="-7.845499">
        <ele>414.754</ele>
        <time>2019-06-22T11:50:44Z</time>
      </trkpt>
      <trkpt lat="42.235651" lon="-7.845342">
        <ele>415.976</ele>
        <time>2019-06-22T11:50:45Z</time>
      </trkpt>
      <trkpt lat="42.235462" lon="-7.845143">
        <ele>417.114</ele>
        <time>2019-06-22T11:50:46Z</time>
      </trkpt>
      <trkpt lat="42.235256" lon="-7.844945">
        <ele>418.043</ele>
        <time>2019-06-22T11:50:47Z</time>
      </trkpt>
      <trkpt lat="42.235057" lon="-7.844749">
        <ele>418.028</ele>
        <time>2019-06-22T11:50:48Z</time>
      </trkpt>
      <trkpt lat="42.234881" lon="-7.844551">
        <ele>419.511</ele>
        <time>2019-06-22T11:50:49Z</time>
      </trkpt>
      <trkpt lat="42.234729" lon="-7.844286">
        <ele>420.584</ele>
        <time>2019-06-22T11:50:50Z</time>
      </trkpt>
      <trkpt lat="42.234576" lon="-7.844008">
        <ele>421.107</ele>
        <time>2019-06-22T11:50:51Z</time>
      </trkpt>
      <trkpt lat="42.234424" lon="-7.843762">
        <ele>422.017</ele>
        <time>2019-06-22T11:50:52Z</time>
      </trkpt>
      <trkpt lat="42.234258" lon="-7.843515">
        <ele>423.408</ele>
        <time>2019-06-22T11:50:53Z</time>
      </trkpt>
      <trkpt lat="42.234063" lon="-7.843315">
        <ele>424.341</ele>
        <time>2019-06-22T11:50:54Z</time>
      </trkpt>
      <trkpt lat="42.233880" lon="-7.843097">
        <ele>424.535</ele>
        <time>2019-06-22T11:50:55Z</time>
      </trkpt>
      <trkpt lat="42.233703" lon="-7.842900">
        <ele>425.477</ele>
        <time>2019-06-22T11:50:56Z</time>
      </trkpt>
      <trkpt lat="42.233481" lon="-7.842726">
        <ele>426.179</ele>
        <time>2019-06-22T11:50:57Z</time>
      </trkpt>
      <trkpt lat="42.233281" lon="-7.842565">
        <ele>426.777</ele>
        <time>2019-06-22T11:50:58Z</time>
      </trkpt>
      <trkpt lat="42.233076" lon="-7.842431">
        <ele>427.796</ele>
        <time>2019-06-22T11:50:59Z</time>
      </trkpt>
      <trkpt lat="42.232836" lon="-7.842328">
        <ele>428.951</ele>
        <time>2019-06-22T11:51:00Z</time>
      </trkpt>
      <trkpt lat="42.232610" lon="-7.842229">
        <ele>430.534</ele>
        <time>2019-06-22T11:51:01Z</time>
      </trkpt>
      <trkpt lat="42.232376" lon="-7.842144">
        <ele>430.723</ele>
        <time>2019-06-22T11:51:02Z</time>
      </trkpt>
      <trkpt lat="42.232121" lon="-7.842092">
        <ele>431.683</ele>
        <time>2019-06-22T11:51:03Z</time>
      </trkpt>
      <trkpt lat="42.231884" lon="-7.842055">
        <ele>432.611</ele>
        <time>2019-06-22T11:51:04Z</time>
      </trkpt>
      <trkpt lat="42.231651" lon="-7.842034">
        <ele>433.908</ele>
        <time>2019-06-22T11:51:05Z</time>
      </trkpt>
      <trkpt lat="42.231409" lon="-7.842092">
        <ele>435.295</ele>
        <time>2019-06-22T11:51:06Z</time>
      </trkpt>
      <trkpt lat="42.231177" lon="-7.842121">
        <ele>436.679</ele>
        <time>2019-06-22T11:51:07Z</time>
      </trkpt>
      <trkpt lat="42.230950" lon="-7.842255">
        <ele>438.111</ele>
        <time>2019-06-22T11:51:08Z</time>
      </trkpt>
      <trkpt lat="42.230724" lon="-7.842362">
        <ele>439.763</ele>
        <time>2019-06-22T11:51:09Z</time>
      </trkpt>
      <trkpt lat="42.230500" lon="-7.842477">
        <ele>440.951</ele>
        <time>2019-06-22T11:51:10Z</time>
      </trkpt>
      <trkpt lat="42.230282" lon="-7.842589">
        <ele>442.610</ele>
        <time>2019-06-22T11:51:11Z</time>
      </trkpt>
      <trkpt lat="42.230071" lon="-7.842723">
        <ele>444.775</ele>
        <time>2019-06-22T11:51:12Z</time>
      </trkpt>
      <trkpt lat="42.229864" lon="-7.842865">
        <ele>447.318</ele>
        <time>2019-06-22T11:51:13Z</time>
      </trkpt>
      <trkpt lat="42.229647" lon="-7.843008">
        <ele>448.871</ele>
        <time>2019-06-22T11:51:14Z</time>
      </trkpt>
      <trkpt lat="42.229437" lon="-7.843131">
        <ele>449.341</ele>
        <time>2019-06-22T11:51:15Z</time>
      </trkpt>
      <trkpt lat="42.229220" lon="-7.843247">
        <ele>450.115</ele>
        <time>2019-06-22T11:51:16Z</time>
      </trkpt>
      <trkpt lat="42.229010" lon="-7.843353">
        <ele>451.408</ele>
        <time>2019-06-22T11:51:17Z</time>
      </trkpt>
      <trkpt lat="42.228800" lon="-7.843466">
        <ele>452.070</ele>
        <time>2019-06-22T11:51:18Z</time>
      </trkpt>
      <trkpt lat="42.228579" lon="-7.843562">
        <ele>453.354</ele>
        <time>2019-06-22T11:51:19Z</time>
      </trkpt>
      <trkpt lat="42.228378" lon="-7.843682">
        <ele>456.466</ele>
        <time>2019-06-22T11:51:20Z</time>
      </trkpt>
      <trkpt lat="42.228170" lon="-7.843708">
        <ele>459.068</ele>
        <time>2019-06-22T11:51:21Z</time>
      </trkpt>
      <trkpt lat="42.227930" lon="-7.843752">
        <ele>460.766</ele>
        <time>2019-06-22T11:51:22Z</time>
      </trkpt>
      <trkpt lat="42.227706" lon="-7.843795">
        <ele>463.045</ele>
        <time>2019-06-22T11:51:23Z</time>
      </trkpt>
      <trkpt lat="42.227462" lon="-7.843794">
        <ele>464.320</ele>
        <time>2019-06-22T11:51:24Z</time>
      </trkpt>
      <trkpt lat="42.227236" lon="-7.843807">
        <ele>464.963</ele>
        <time>2019-06-22T11:51:25Z</time>
      </trkpt>
      <trkpt lat="42.227018" lon="-7.843784">
        <ele>466.234</ele>
        <time>2019-06-22T11:51:26Z</time>
      </trkpt>
      <trkpt lat="42.226794" lon="-7.843751">
        <ele>468.055</ele>
        <time>2019-06-22T11:51:27Z</time>
      </trkpt>
      <trkpt lat="42.226572" lon="-7.843702">
        <ele>469.310</ele>
        <time>2019-06-22T11:51:28Z</time>
      </trkpt>
      <trkpt lat="42.226347" lon="-7.843641">
        <ele>470.908</ele>
        <time>2019-06-22T11:51:29Z</time>
      </trkpt>
      <trkpt lat="42.226117" lon="-7.843563">
        <ele>473.056</ele>
        <time>2019-06-22T11:51:30Z</time>
      </trkpt>
      <trkpt lat="42.225885" lon="-7.843473">
        <ele>474.340</ele>
        <time>2019-06-22T11:51:31Z</time>
      </trkpt>
      <trkpt lat="42.225665" lon="-7.843405">
        <ele>475.222</ele>
        <time>2019-06-22T11:51:32Z</time>
      </trkpt>
      <trkpt lat="42.225438" lon="-7.843332">
        <ele>476.144</ele>
        <time>2019-06-22T11:51:33Z</time>
      </trkpt>
      <trkpt lat="42.225205" lon="-7.843250">
        <ele>477.522</ele>
        <time>2019-06-22T11:51:34Z</time>
      </trkpt>
      <trkpt lat="42.224970" lon="-7.843175">
        <ele>478.321</ele>
        <time>2019-06-22T11:51:35Z</time>
      </trkpt>
      <trkpt lat="42.224741" lon="-7.843106">
        <ele>479.536</ele>
        <time>2019-06-22T11:51:36Z</time>
      </trkpt>
      <trkpt lat="42.224506" lon="-7.843055">
        <ele>480.399</ele>
        <time>2019-06-22T11:51:37Z</time>
      </trkpt>
      <trkpt lat="42.224283" lon="-7.843017">
        <ele>480.631</ele>
        <time>2019-06-22T11:51:38Z</time>
      </trkpt>
      <trkpt lat="42.224056" lon="-7.842982">
        <ele>481.161</ele>
        <time>2019-06-22T11:51:39Z</time>
      </trkpt>
      <trkpt lat="42.223828" lon="-7.842970">
        <ele>482.007</ele>
        <time>2019-06-22T11:51:40Z</time>
      </trkpt>
      <trkpt lat="42.223601" lon="-7.842961">
        <ele>482.608</ele>
        <time>2019-06-22T11:51:41Z</time>
      </trkpt>
      <trkpt lat="42.223368" lon="-7.842956">
        <ele>483.496</ele>
        <time>2019-06-22T11:51:42Z</time>
      </trkpt>
      <trkpt lat="42.223127" lon="-7.842924">
        <ele>485.390</ele>
        <time>2019-06-22T11:51:43Z</time>
      </trkpt>
      <trkpt lat="42.222900" lon="-7.842891">
        <ele>486.762</ele>
        <time>2019-06-22T11:51:44Z</time>
      </trkpt>
      <trkpt lat="42.222694" lon="-7.842886">
        <ele>487.784</ele>
        <time>2019-06-22T11:51:45Z</time>
      </trkpt>
      <trkpt lat="42.222476" lon="-7.842845">
        <ele>489.352</ele>
        <time>2019-06-22T11:51:46Z</time>
      </trkpt>
      <trkpt lat="42.222242" lon="-7.842785">
        <ele>491.191</ele>
        <time>2019-06-22T11:51:47Z</time>
      </trkpt>
      <trkpt lat="42.222018" lon="-7.842728">
        <ele>492.796</ele>
        <time>2019-06-22T11:51:48Z</time>
      </trkpt>
      <trkpt lat="42.221800" lon="-7.842654">
        <ele>492.779</ele>
        <time>2019-06-22T11:51:49Z</time>
      </trkpt>
      <trkpt lat="42.221573" lon="-7.842567">
        <ele>496.671</ele>
        <time>2019-06-22T11:51:50Z</time>
      </trkpt>
      <trkpt lat="42.221353" lon="-7.842456">
        <ele>496.641</ele>
        <time>2019-06-22T11:51:51Z</time>
      </trkpt>
      <trkpt lat="42.221147" lon="-7.842323">
        <ele>498.015</ele>
        <time>2019-06-22T11:51:52Z</time>
      </trkpt>
      <trkpt lat="42.220951" lon="-7.842179">
        <ele>499.108</ele>
        <time>2019-06-22T11:51:53Z</time>
      </trkpt>
      <trkpt lat="42.220764" lon="-7.842021">
        <ele>499.740</ele>
        <time>2019-06-22T11:51:54Z</time>
      </trkpt>
      <trkpt lat="42.220583" lon="-7.841847">
        <ele>500.734</ele>
        <time>2019-06-22T11:51:55Z</time>
      </trkpt>
      <trkpt lat="42.220399" lon="-7.841654">
        <ele>501.426</ele>
        <time>2019-06-22T11:51:56Z</time>
      </trkpt>
      <trkpt lat="42.220228" lon="-7.841455">
        <ele>502.248</ele>
        <time>2019-06-22T11:51:57Z</time>
      </trkpt>
      <trkpt lat="42.220052" lon="-7.841252">
        <ele>503.896</ele>
        <time>2019-06-22T11:51:58Z</time>
      </trkpt>
      <trkpt lat="42.219919" lon="-7.841030">
        <ele>504.925</ele>
        <time>2019-06-22T11:51:59Z</time>
      </trkpt>
      <trkpt lat="42.219770" lon="-7.840815">
        <ele>505.420</ele>
        <time>2019-06-22T11:52:00Z</time>
      </trkpt>
      <trkpt lat="42.219637" lon="-7.840582">
        <ele>506.533</ele>
        <time>2019-06-22T11:52:01Z</time>
      </trkpt>
      <trkpt lat="42.219497" lon="-7.840356">
        <ele>507.682</ele>
        <time>2019-06-22T11:52:02Z</time>
      </trkpt>
      <trkpt lat="42.219348" lon="-7.840060">
        <ele>509.243</ele>
        <time>2019-06-22T11:52:03Z</time>
      </trkpt>
      <trkpt lat="42.219243" lon="-7.839764">
        <ele>511.117</ele>
        <time>2019-06-22T11:52:04Z</time>
      </trkpt>
      <trkpt lat="42.219133" lon="-7.839478">
        <ele>513.108</ele>
        <time>2019-06-22T11:52:05Z</time>
      </trkpt>
      <trkpt lat="42.219049" lon="-7.839180">
        <ele>515.051</ele>
        <time>2019-06-22T11:52:06Z</time>
      </trkpt>
      <trkpt lat="42.218978" lon="-7.838903">
        <ele>516.045</ele>
        <time>2019-06-22T11:52:07Z</time>
      </trkpt>
      <trkpt lat="42.218906" lon="-7.838624">
        <ele>516.637</ele>
        <time>2019-06-22T11:52:08Z</time>
      </trkpt>
      <trkpt lat="42.218822" lon="-7.838328">
        <ele>516.989</ele>
        <time>2019-06-22T11:52:09Z</time>
      </trkpt>
      <trkpt lat="42.218718" lon="-7.838017">
        <ele>517.327</ele>
        <time>2019-06-22T11:52:10Z</time>
      </trkpt>
      <trkpt lat="42.218627" lon="-7.837707">
        <ele>518.166</ele>
        <time>2019-06-22T11:52:11Z</time>
      </trkpt>
      <trkpt lat="42.218636" lon="-7.837394">
        <ele>519.091</ele>
        <time>2019-06-22T11:52:12Z</time>
      </trkpt>
      <trkpt lat="42.218623" lon="-7.837099">
        <ele>520.554</ele>
        <time>2019-06-22T11:52:13Z</time>
      </trkpt>
      <trkpt lat="42.218575" lon="-7.836810">
        <ele>521.348</ele>
        <time>2019-06-22T11:52:14Z</time>
      </trkpt>
      <trkpt lat="42.218472" lon="-7.836533">
        <ele>521.561</ele>
        <time>2019-06-22T11:52:15Z</time>
      </trkpt>
      <trkpt lat="42.218363" lon="-7.836272">
        <ele>522.817</ele>
        <time>2019-06-22T11:52:16Z</time>
      </trkpt>
      <trkpt lat="42.218243" lon="-7.836000">
        <ele>523.908</ele>
        <time>2019-06-22T11:52:17Z</time>
      </trkpt>
      <trkpt lat="42.218104" lon="-7.835748">
        <ele>524.087</ele>
        <time>2019-06-22T11:52:18Z</time>
      </trkpt>
      <trkpt lat="42.217991" lon="-7.835507">
        <ele>524.541</ele>
        <time>2019-06-22T11:52:19Z</time>
      </trkpt>
      <trkpt lat="42.217843" lon="-7.835286">
        <ele>526.243</ele>
        <time>2019-06-22T11:52:20Z</time>
      </trkpt>
      <trkpt lat="42.217689" lon="-7.835065">
        <ele>527.715</ele>
        <time>2019-06-22T11:52:21Z</time>
      </trkpt>
      <trkpt lat="42.217526" lon="-7.834844">
        <ele>529.053</ele>
        <time>2019-06-22T11:52:22Z</time>
      </trkpt>
      <trkpt lat="42.217369" lon="-7.834641">
        <ele>531.342</ele>
        <time>2019-06-22T11:52:23Z</time>
      </trkpt>
      <trkpt lat="42.217199" lon="-7.834444">
        <ele>533.747</ele>
        <time>2019-06-22T11:52:24Z</time>
      </trkpt>
      <trkpt lat="42.217011" lon="-7.834258">
        <ele>536.140</ele>
        <time>2019-06-22T11:52:25Z</time>
      </trkpt>
      <trkpt lat="42.216840" lon="-7.834076">
        <ele>537.747</ele>
        <time>2019-06-22T11:52:26Z</time>
      </trkpt>
      <trkpt lat="42.216651" lon="-7.833881">
        <ele>538.629</ele>
        <time>2019-06-22T11:52:27Z</time>
      </trkpt>
      <trkpt lat="42.216455" lon="-7.833697">
        <ele>539.621</ele>
        <time>2019-06-22T11:52:28Z</time>
      </trkpt>
      <trkpt lat="42.216287" lon="-7.833489">
        <ele>541.208</ele>
        <time>2019-06-22T11:52:29Z</time>
      </trkpt>
      <trkpt lat="42.216136" lon="-7.833274">
        <ele>542.347</ele>
        <time>2019-06-22T11:52:30Z</time>
      </trkpt>
      <trkpt lat="42.215986" lon="-7.833096">
        <ele>543.111</ele>
        <time>2019-06-22T11:52:31Z</time>
      </trkpt>
      <trkpt lat="42.215818" lon="-7.832891">
        <ele>544.873</ele>
        <time>2019-06-22T11:52:32Z</time>
      </trkpt>
      <trkpt lat="42.215715" lon="-7.832653">
        <ele>547.115</ele>
        <time>2019-06-22T11:52:33Z</time>
      </trkpt>
      <trkpt lat="42.215571" lon="-7.832423">
        <ele>549.053</ele>
        <time>2019-06-22T11:52:34Z</time>
      </trkpt>
      <trkpt lat="42.215481" lon="-7.832191">
        <ele>551.252</ele>
        <time>2019-06-22T11:52:35Z</time>
      </trkpt>
      <trkpt lat="42.215356" lon="-7.831962">
        <ele>553.187</ele>
        <time>2019-06-22T11:52:36Z</time>
      </trkpt>
      <trkpt lat="42.215219" lon="-7.831712">
        <ele>554.880</ele>
        <time>2019-06-22T11:52:37Z</time>
      </trkpt>
      <trkpt lat="42.215109" lon="-7.831448">
        <ele>556.494</ele>
        <time>2019-06-22T11:52:38Z</time>
      </trkpt>
      <trkpt lat="42.215004" lon="-7.831183">
        <ele>556.757</ele>
        <time>2019-06-22T11:52:39Z</time>
      </trkpt>
      <trkpt lat="42.214925" lon="-7.830925">
        <ele>557.022</ele>
        <time>2019-06-22T11:52:40Z</time>
      </trkpt>
      <trkpt lat="42.214854" lon="-7.830676">
        <ele>557.608</ele>
        <time>2019-06-22T11:52:41Z</time>
      </trkpt>
      <trkpt lat="42.214775" lon="-7.830472">
        <ele>559.312</ele>
        <time>2019-06-22T11:52:42Z</time>
      </trkpt>
      <trkpt lat="42.214697" lon="-7.830233">
        <ele>560.226</ele>
        <time>2019-06-22T11:52:43Z</time>
      </trkpt>
      <trkpt lat="42.214637" lon="-7.830030">
        <ele>561.588</ele>
        <time>2019-06-22T11:52:44Z</time>
      </trkpt>
      <trkpt lat="42.214576" lon="-7.829808">
        <ele>562.340</ele>
        <time>2019-06-22T11:52:45Z</time>
      </trkpt>
      <trkpt lat="42.214542" lon="-7.829617">
        <ele>562.368</ele>
        <time>2019-06-22T11:52:46Z</time>
      </trkpt>
      <trkpt lat="42.214504" lon="-7.829421">
        <ele>562.367</ele>
        <time>2019-06-22T11:52:47Z</time>
      </trkpt>
      <trkpt lat="42.214463" lon="-7.829231">
        <ele>561.922</ele>
        <time>2019-06-22T11:52:48Z</time>
      </trkpt>
      <trkpt lat="42.214425" lon="-7.829046">
        <ele>561.945</ele>
        <time>2019-06-22T11:52:49Z</time>
      </trkpt>
      <trkpt lat="42.214398" lon="-7.828881">
        <ele>561.927</ele>
        <time>2019-06-22T11:52:50Z</time>
      </trkpt>
      <trkpt lat="42.214354" lon="-7.828709">
        <ele>562.768</ele>
        <time>2019-06-22T11:52:51Z</time>
      </trkpt>
      <trkpt lat="42.214298" lon="-7.828541">
        <ele>563.214</ele>
        <time>2019-06-22T11:52:52Z</time>
      </trkpt>
      <trkpt lat="42.214250" lon="-7.828376">
        <ele>564.108</ele>
        <time>2019-06-22T11:52:53Z</time>
      </trkpt>
      <trkpt lat="42.214209" lon="-7.828221">
        <ele>564.685</ele>
        <time>2019-06-22T11:52:54Z</time>
      </trkpt>
      <trkpt lat="42.214200" lon="-7.828068">
        <ele>564.889</ele>
        <time>2019-06-22T11:52:55Z</time>
      </trkpt>
      <trkpt lat="42.214202" lon="-7.827946">
        <ele>565.181</ele>
        <time>2019-06-22T11:52:56Z</time>
      </trkpt>
      <trkpt lat="42.214238" lon="-7.827811">
        <ele>565.433</ele>
        <time>2019-06-22T11:52:57Z</time>
      </trkpt>
      <trkpt lat="42.214268" lon="-7.827646">
        <ele>565.921</ele>
        <time>2019-06-22T11:52:58Z</time>
      </trkpt>
      <trkpt lat="42.214294" lon="-7.827458">
        <ele>565.950</ele>
        <time>2019-06-22T11:52:59Z</time>
      </trkpt>
      <trkpt lat="42.214314" lon="-7.827254">
        <ele>565.855</ele>
        <time>2019-06-22T11:53:00Z</time>
      </trkpt>
      <trkpt lat="42.214326" lon="-7.827046">
        <ele>565.038</ele>
        <time>2019-06-22T11:53:01Z</time>
      </trkpt>
      <trkpt lat="42.214328" lon="-7.826831">
        <ele>564.128</ele>
        <time>2019-06-22T11:53:02Z</time>
      </trkpt>
      <trkpt lat="42.214335" lon="-7.826607">
        <ele>562.589</ele>
        <time>2019-06-22T11:53:03Z</time>
      </trkpt>
      <trkpt lat="42.214334" lon="-7.826373">
        <ele>562.017</ele>
        <time>2019-06-22T11:53:04Z</time>
      </trkpt>
      <trkpt lat="42.214332" lon="-7.826138">
        <ele>560.708</ele>
        <time>2019-06-22T11:53:05Z</time>
      </trkpt>
      <trkpt lat="42.214324" lon="-7.825903">
        <ele>559.825</ele>
        <time>2019-06-22T11:53:06Z</time>
      </trkpt>
      <trkpt lat="42.214309" lon="-7.825672">
        <ele>559.559</ele>
        <time>2019-06-22T11:53:07Z</time>
      </trkpt>
      <trkpt lat="42.214238" lon="-7.825446">
        <ele>559.421</ele>
        <time>2019-06-22T11:53:08Z</time>
      </trkpt>
      <trkpt lat="42.214202" lon="-7.825191">
        <ele>559.093</ele>
        <time>2019-06-22T11:53:09Z</time>
      </trkpt>
      <trkpt lat="42.214203" lon="-7.825004">
        <ele>558.981</ele>
        <time>2019-06-22T11:53:10Z</time>
      </trkpt>
      <trkpt lat="42.214168" lon="-7.824778">
        <ele>558.510</ele>
        <time>2019-06-22T11:53:11Z</time>
      </trkpt>
      <trkpt lat="42.214086" lon="-7.824539">
        <ele>557.855</ele>
        <time>2019-06-22T11:53:12Z</time>
      </trkpt>
      <trkpt lat="42.214030" lon="-7.824294">
        <ele>556.588</ele>
        <time>2019-06-22T11:53:13Z</time>
      </trkpt>
      <trkpt lat="42.213963" lon="-7.824051">
        <ele>555.421</ele>
        <time>2019-06-22T11:53:14Z</time>
      </trkpt>
      <trkpt lat="42.213859" lon="-7.823796">
        <ele>554.541</ele>
        <time>2019-06-22T11:53:15Z</time>
      </trkpt>
      <trkpt lat="42.213778" lon="-7.823554">
        <ele>552.205</ele>
        <time>2019-06-22T11:53:16Z</time>
      </trkpt>
      <trkpt lat="42.213686" lon="-7.823291">
        <ele>550.908</ele>
        <time>2019-06-22T11:53:17Z</time>
      </trkpt>
      <trkpt lat="42.213594" lon="-7.823059">
        <ele>549.415</ele>
        <time>2019-06-22T11:53:18Z</time>
      </trkpt>
      <trkpt lat="42.213470" lon="-7.822814">
        <ele>548.279</ele>
        <time>2019-06-22T11:53:19Z</time>
      </trkpt>
      <trkpt lat="42.213346" lon="-7.822643">
        <ele>546.481</ele>
        <time>2019-06-22T11:53:20Z</time>
      </trkpt>
      <trkpt lat="42.213219" lon="-7.822431">
        <ele>546.153</ele>
        <time>2019-06-22T11:53:21Z</time>
      </trkpt>
      <trkpt lat="42.213094" lon="-7.822227">
        <ele>545.141</ele>
        <time>2019-06-22T11:53:22Z</time>
      </trkpt>
      <trkpt lat="42.212959" lon="-7.822058">
        <ele>544.030</ele>
        <time>2019-06-22T11:53:23Z</time>
      </trkpt>
      <trkpt lat="42.212833" lon="-7.821886">
        <ele>542.165</ele>
        <time>2019-06-22T11:53:24Z</time>
      </trkpt>
      <trkpt lat="42.212694" lon="-7.821716">
        <ele>540.838</ele>
        <time>2019-06-22T11:53:25Z</time>
      </trkpt>
      <trkpt lat="42.212526" lon="-7.821562">
        <ele>540.294</ele>
        <time>2019-06-22T11:53:26Z</time>
      </trkpt>
      <trkpt lat="42.212383" lon="-7.821442">
        <ele>538.457</ele>
        <time>2019-06-22T11:53:27Z</time>
      </trkpt>
      <trkpt lat="42.212273" lon="-7.821326">
        <ele>537.922</ele>
        <time>2019-06-22T11:53:28Z</time>
      </trkpt>
      <trkpt lat="42.212111" lon="-7.821200">
        <ele>537.908</ele>
        <time>2019-06-22T11:53:29Z</time>
      </trkpt>
      <trkpt lat="42.211936" lon="-7.821079">
        <ele>537.872</ele>
        <time>2019-06-22T11:53:30Z</time>
      </trkpt>
      <trkpt lat="42.211759" lon="-7.820949">
        <ele>537.796</ele>
        <time>2019-06-22T11:53:31Z</time>
      </trkpt>
      <trkpt lat="42.211595" lon="-7.820862">
        <ele>537.288</ele>
        <time>2019-06-22T11:53:32Z</time>
      </trkpt>
      <trkpt lat="42.211416" lon="-7.820753">
        <ele>535.850</ele>
        <time>2019-06-22T11:53:33Z</time>
      </trkpt>
      <trkpt lat="42.211237" lon="-7.820656">
        <ele>534.218</ele>
        <time>2019-06-22T11:53:34Z</time>
      </trkpt>
      <trkpt lat="42.211059" lon="-7.820563">
        <ele>533.387</ele>
        <time>2019-06-22T11:53:35Z</time>
      </trkpt>
      <trkpt lat="42.210885" lon="-7.820481">
        <ele>531.962</ele>
        <time>2019-06-22T11:53:36Z</time>
      </trkpt>
      <trkpt lat="42.210709" lon="-7.820398">
        <ele>531.235</ele>
        <time>2019-06-22T11:53:37Z</time>
      </trkpt>
      <trkpt lat="42.210533" lon="-7.820314">
        <ele>530.788</ele>
        <time>2019-06-22T11:53:38Z</time>
      </trkpt>
      <trkpt lat="42.210361" lon="-7.820227">
        <ele>529.924</ele>
        <time>2019-06-22T11:53:39Z</time>
      </trkpt>
      <trkpt lat="42.210188" lon="-7.820147">
        <ele>528.526</ele>
        <time>2019-06-22T11:53:40Z</time>
      </trkpt>
      <trkpt lat="42.210005" lon="-7.820043">
        <ele>527.608</ele>
        <time>2019-06-22T11:53:41Z</time>
      </trkpt>
      <trkpt lat="42.209832" lon="-7.819955">
        <ele>526.521</ele>
        <time>2019-06-22T11:53:42Z</time>
      </trkpt>
      <trkpt lat="42.209660" lon="-7.819863">
        <ele>525.435</ele>
        <time>2019-06-22T11:53:43Z</time>
      </trkpt>
      <trkpt lat="42.209493" lon="-7.819769">
        <ele>525.097</ele>
        <time>2019-06-22T11:53:44Z</time>
      </trkpt>
      <trkpt lat="42.209333" lon="-7.819674">
        <ele>523.399</ele>
        <time>2019-06-22T11:53:45Z</time>
      </trkpt>
      <trkpt lat="42.209175" lon="-7.819570">
        <ele>523.337</ele>
        <time>2019-06-22T11:53:46Z</time>
      </trkpt>
      <trkpt lat="42.209020" lon="-7.819461">
        <ele>522.586</ele>
        <time>2019-06-22T11:53:47Z</time>
      </trkpt>
      <trkpt lat="42.208876" lon="-7.819342">
        <ele>521.751</ele>
        <time>2019-06-22T11:53:48Z</time>
      </trkpt>
      <trkpt lat="42.208728" lon="-7.819206">
        <ele>521.134</ele>
        <time>2019-06-22T11:53:49Z</time>
      </trkpt>
      <trkpt lat="42.208582" lon="-7.819070">
        <ele>521.163</ele>
        <time>2019-06-22T11:53:50Z</time>
      </trkpt>
      <trkpt lat="42.208436" lon="-7.818930">
        <ele>521.544</ele>
        <time>2019-06-22T11:53:51Z</time>
      </trkpt>
      <trkpt lat="42.208301" lon="-7.818781">
        <ele>521.518</ele>
        <time>2019-06-22T11:53:52Z</time>
      </trkpt>
      <trkpt lat="42.208171" lon="-7.818623">
        <ele>521.208</ele>
        <time>2019-06-22T11:53:53Z</time>
      </trkpt>
      <trkpt lat="42.208031" lon="-7.818464">
        <ele>520.759</ele>
        <time>2019-06-22T11:53:54Z</time>
      </trkpt>
      <trkpt lat="42.207908" lon="-7.818290">
        <ele>520.313</ele>
        <time>2019-06-22T11:53:55Z</time>
      </trkpt>
      <trkpt lat="42.207785" lon="-7.818124">
        <ele>519.775</ele>
        <time>2019-06-22T11:53:56Z</time>
      </trkpt>
      <trkpt lat="42.207669" lon="-7.817933">
        <ele>518.467</ele>
        <time>2019-06-22T11:53:57Z</time>
      </trkpt>
      <trkpt lat="42.207550" lon="-7.817728">
        <ele>517.575</ele>
        <time>2019-06-22T11:53:58Z</time>
      </trkpt>
      <trkpt lat="42.207430" lon="-7.817534">
        <ele>516.474</ele>
        <time>2019-06-22T11:53:59Z</time>
      </trkpt>
      <trkpt lat="42.207309" lon="-7.817306">
        <ele>515.529</ele>
        <time>2019-06-22T11:54:00Z</time>
      </trkpt>
      <trkpt lat="42.207183" lon="-7.817058">
        <ele>514.462</ele>
        <time>2019-06-22T11:54:01Z</time>
      </trkpt>
      <trkpt lat="42.207054" lon="-7.816805">
        <ele>514.061</ele>
        <time>2019-06-22T11:54:02Z</time>
      </trkpt>
      <trkpt lat="42.206906" lon="-7.816531">
        <ele>513.321</ele>
        <time>2019-06-22T11:54:03Z</time>
      </trkpt>
      <trkpt lat="42.206763" lon="-7.816257">
        <ele>511.113</ele>
        <time>2019-06-22T11:54:04Z</time>
      </trkpt>
      <trkpt lat="42.206615" lon="-7.815980">
        <ele>509.208</ele>
        <time>2019-06-22T11:54:05Z</time>
      </trkpt>
      <trkpt lat="42.206465" lon="-7.815705">
        <ele>507.849</ele>
        <time>2019-06-22T11:54:06Z</time>
      </trkpt>
      <trkpt lat="42.206312" lon="-7.815437">
        <ele>505.963</ele>
        <time>2019-06-22T11:54:07Z</time>
      </trkpt>
      <trkpt lat="42.206158" lon="-7.815171">
        <ele>503.955</ele>
        <time>2019-06-22T11:54:08Z</time>
      </trkpt>
      <trkpt lat="42.206002" lon="-7.814953">
        <ele>501.847</ele>
        <time>2019-06-22T11:54:09Z</time>
      </trkpt>
      <trkpt lat="42.205844" lon="-7.814739">
        <ele>499.615</ele>
        <time>2019-06-22T11:54:10Z</time>
      </trkpt>
      <trkpt lat="42.205672" lon="-7.814519">
        <ele>496.314</ele>
        <time>2019-06-22T11:54:11Z</time>
      </trkpt>
      <trkpt lat="42.205484" lon="-7.814316">
        <ele>493.059</ele>
        <time>2019-06-22T11:54:12Z</time>
      </trkpt>
      <trkpt lat="42.205326" lon="-7.814137">
        <ele>489.822</ele>
        <time>2019-06-22T11:54:13Z</time>
      </trkpt>
      <trkpt lat="42.205196" lon="-7.813953">
        <ele>488.595</ele>
        <time>2019-06-22T11:54:14Z</time>
      </trkpt>
      <trkpt lat="42.205045" lon="-7.813828">
        <ele>487.849</ele>
        <time>2019-06-22T11:54:15Z</time>
      </trkpt>
      <trkpt lat="42.204912" lon="-7.813667">
        <ele>487.823</ele>
        <time>2019-06-22T11:54:16Z</time>
      </trkpt>
      <trkpt lat="42.204743" lon="-7.813532">
        <ele>488.608</ele>
        <time>2019-06-22T11:54:17Z</time>
      </trkpt>
      <trkpt lat="42.204590" lon="-7.813369">
        <ele>489.482</ele>
        <time>2019-06-22T11:54:18Z</time>
      </trkpt>
      <trkpt lat="42.204447" lon="-7.813202">
        <ele>489.456</ele>
        <time>2019-06-22T11:54:19Z</time>
      </trkpt>
      <trkpt lat="42.204293" lon="-7.813009">
        <ele>488.938</ele>
        <time>2019-06-22T11:54:20Z</time>
      </trkpt>
      <trkpt lat="42.204146" lon="-7.812816">
        <ele>488.250</ele>
        <time>2019-06-22T11:54:21Z</time>
      </trkpt>
      <trkpt lat="42.204000" lon="-7.812631">
        <ele>488.048</ele>
        <time>2019-06-22T11:54:22Z</time>
      </trkpt>
      <trkpt lat="42.203858" lon="-7.812433">
        <ele>487.317</ele>
        <time>2019-06-22T11:54:23Z</time>
      </trkpt>
      <trkpt lat="42.203724" lon="-7.812241">
        <ele>487.252</ele>
        <time>2019-06-22T11:54:24Z</time>
      </trkpt>
      <trkpt lat="42.203593" lon="-7.812045">
        <ele>487.295</ele>
        <time>2019-06-22T11:54:25Z</time>
      </trkpt>
      <trkpt lat="42.203463" lon="-7.811839">
        <ele>487.236</ele>
        <time>2019-06-22T11:54:26Z</time>
      </trkpt>
      <trkpt lat="42.203354" lon="-7.811669">
        <ele>486.217</ele>
        <time>2019-06-22T11:54:27Z</time>
      </trkpt>
      <trkpt lat="42.203278" lon="-7.811469">
        <ele>485.418</ele>
        <time>2019-06-22T11:54:28Z</time>
      </trkpt>
      <trkpt lat="42.203171" lon="-7.811262">
        <ele>484.408</ele>
        <time>2019-06-22T11:54:29Z</time>
      </trkpt>
      <trkpt lat="42.203069" lon="-7.811064">
        <ele>483.216</ele>
        <time>2019-06-22T11:54:30Z</time>
      </trkpt>
      <trkpt lat="42.202968" lon="-7.810859">
        <ele>481.520</ele>
        <time>2019-06-22T11:54:31Z</time>
      </trkpt>
      <trkpt lat="42.202874" lon="-7.810647">
        <ele>480.812</ele>
        <time>2019-06-22T11:54:32Z</time>
      </trkpt>
      <trkpt lat="42.202796" lon="-7.810445">
        <ele>479.344</ele>
        <time>2019-06-22T11:54:33Z</time>
      </trkpt>
      <trkpt lat="42.202711" lon="-7.810230">
        <ele>477.732</ele>
        <time>2019-06-22T11:54:34Z</time>
      </trkpt>
      <trkpt lat="42.202631" lon="-7.810035">
        <ele>476.171</ele>
        <time>2019-06-22T11:54:35Z</time>
      </trkpt>
      <trkpt lat="42.202569" lon="-7.809840">
        <ele>475.366</ele>
        <time>2019-06-22T11:54:36Z</time>
      </trkpt>
      <trkpt lat="42.202502" lon="-7.809683">
        <ele>474.199</ele>
        <time>2019-06-22T11:54:37Z</time>
      </trkpt>
      <trkpt lat="42.202447" lon="-7.809520">
        <ele>473.843</ele>
        <time>2019-06-22T11:54:38Z</time>
      </trkpt>
      <trkpt lat="42.202377" lon="-7.809355">
        <ele>473.464</ele>
        <time>2019-06-22T11:54:39Z</time>
      </trkpt>
      <trkpt lat="42.202331" lon="-7.809261">
        <ele>473.410</ele>
        <time>2019-06-22T11:54:40Z</time>
      </trkpt>
      <trkpt lat="42.202285" lon="-7.809151">
        <ele>473.408</ele>
        <time>2019-06-22T11:54:41Z</time>
      </trkpt>
      <trkpt lat="42.202217" lon="-7.809054">
        <ele>473.277</ele>
        <time>2019-06-22T11:54:42Z</time>
      </trkpt>
      <trkpt lat="42.202158" lon="-7.808946">
        <ele>473.291</ele>
        <time>2019-06-22T11:54:43Z</time>
      </trkpt>
      <trkpt lat="42.202108" lon="-7.808854">
        <ele>473.253</ele>
        <time>2019-06-22T11:54:44Z</time>
      </trkpt>
      <trkpt lat="42.202085" lon="-7.808744">
        <ele>473.715</ele>
        <time>2019-06-22T11:54:45Z</time>
      </trkpt>
      <trkpt lat="42.202053" lon="-7.808616">
        <ele>473.773</ele>
        <time>2019-06-22T11:54:46Z</time>
      </trkpt>
      <trkpt lat="42.202027" lon="-7.808473">
        <ele>473.632</ele>
        <time>2019-06-22T11:54:47Z</time>
      </trkpt>
      <trkpt lat="42.201973" lon="-7.808327">
        <ele>473.197</ele>
        <time>2019-06-22T11:54:48Z</time>
      </trkpt>
      <trkpt lat="42.201908" lon="-7.808162">
        <ele>472.860</ele>
        <time>2019-06-22T11:54:49Z</time>
      </trkpt>
      <trkpt lat="42.201802" lon="-7.807971">
        <ele>472.383</ele>
        <time>2019-06-22T11:54:50Z</time>
      </trkpt>
      <trkpt lat="42.201705" lon="-7.807775">
        <ele>471.625</ele>
        <time>2019-06-22T11:54:51Z</time>
      </trkpt>
      <trkpt lat="42.201597" lon="-7.807569">
        <ele>470.717</ele>
        <time>2019-06-22T11:54:52Z</time>
      </trkpt>
      <trkpt lat="42.201468" lon="-7.807362">
        <ele>470.208</ele>
        <time>2019-06-22T11:54:53Z</time>
      </trkpt>
      <trkpt lat="42.201329" lon="-7.807144">
        <ele>469.431</ele>
        <time>2019-06-22T11:54:54Z</time>
      </trkpt>
      <trkpt lat="42.201194" lon="-7.806930">
        <ele>467.015</ele>
        <time>2019-06-22T11:54:55Z</time>
      </trkpt>
      <trkpt lat="42.201050" lon="-7.806723">
        <ele>465.837</ele>
        <time>2019-06-22T11:54:56Z</time>
      </trkpt>
      <trkpt lat="42.200894" lon="-7.806517">
        <ele>465.189</ele>
        <time>2019-06-22T11:54:57Z</time>
      </trkpt>
      <trkpt lat="42.200736" lon="-7.806322">
        <ele>464.147</ele>
        <time>2019-06-22T11:54:58Z</time>
      </trkpt>
      <trkpt lat="42.200578" lon="-7.806119">
        <ele>461.626</ele>
        <time>2019-06-22T11:54:59Z</time>
      </trkpt>
      <trkpt lat="42.200415" lon="-7.805917">
        <ele>461.471</ele>
        <time>2019-06-22T11:55:00Z</time>
      </trkpt>
      <trkpt lat="42.200251" lon="-7.805717">
        <ele>459.994</ele>
        <time>2019-06-22T11:55:01Z</time>
      </trkpt>
      <trkpt lat="42.200097" lon="-7.805505">
        <ele>457.656</ele>
        <time>2019-06-22T11:55:02Z</time>
      </trkpt>
      <trkpt lat="42.199944" lon="-7.805286">
        <ele>455.359</ele>
        <time>2019-06-22T11:55:03Z</time>
      </trkpt>
      <trkpt lat="42.199790" lon="-7.805067">
        <ele>454.614</ele>
        <time>2019-06-22T11:55:04Z</time>
      </trkpt>
      <trkpt lat="42.199627" lon="-7.804824">
        <ele>453.908</ele>
        <time>2019-06-22T11:55:05Z</time>
      </trkpt>
      <trkpt lat="42.199471" lon="-7.804572">
        <ele>453.998</ele>
        <time>2019-06-22T11:55:06Z</time>
      </trkpt>
      <trkpt lat="42.199316" lon="-7.804318">
        <ele>453.762</ele>
        <time>2019-06-22T11:55:07Z</time>
      </trkpt>
      <trkpt lat="42.199176" lon="-7.804052">
        <ele>453.524</ele>
        <time>2019-06-22T11:55:08Z</time>
      </trkpt>
      <trkpt lat="42.199044" lon="-7.803784">
        <ele>452.796</ele>
        <time>2019-06-22T11:55:09Z</time>
      </trkpt>
      <trkpt lat="42.198916" lon="-7.803505">
        <ele>451.474</ele>
        <time>2019-06-22T11:55:10Z</time>
      </trkpt>
      <trkpt lat="42.198785" lon="-7.803223">
        <ele>450.383</ele>
        <time>2019-06-22T11:55:11Z</time>
      </trkpt>
      <trkpt lat="42.198675" lon="-7.802932">
        <ele>448.818</ele>
        <time>2019-06-22T11:55:12Z</time>
      </trkpt>
      <trkpt lat="42.198598" lon="-7.802726">
        <ele>447.791</ele>
        <time>2019-06-22T11:55:13Z</time>
      </trkpt>
      <trkpt lat="42.198484" lon="-7.802487">
        <ele>446.627</ele>
        <time>2019-06-22T11:55:14Z</time>
      </trkpt>
      <trkpt lat="42.198375" lon="-7.802232">
        <ele>444.568</ele>
        <time>2019-06-22T11:55:15Z</time>
      </trkpt>
      <trkpt lat="42.198240" lon="-7.801941">
        <ele>441.714</ele>
        <time>2019-06-22T11:55:16Z</time>
      </trkpt>
      <trkpt lat="42.198097" lon="-7.801681">
        <ele>439.408</ele>
        <time>2019-06-22T11:55:17Z</time>
      </trkpt>
      <trkpt lat="42.197957" lon="-7.801411">
        <ele>436.625</ele>
        <time>2019-06-22T11:55:18Z</time>
      </trkpt>
      <trkpt lat="42.197805" lon="-7.801166">
        <ele>434.579</ele>
        <time>2019-06-22T11:55:19Z</time>
      </trkpt>
      <trkpt lat="42.197650" lon="-7.800913">
        <ele>432.661</ele>
        <time>2019-06-22T11:55:20Z</time>
      </trkpt>
      <trkpt lat="42.197476" lon="-7.800659">
        <ele>432.693</ele>
        <time>2019-06-22T11:55:21Z</time>
      </trkpt>
      <trkpt lat="42.197291" lon="-7.800421">
        <ele>432.841</ele>
        <time>2019-06-22T11:55:22Z</time>
      </trkpt>
      <trkpt lat="42.197112" lon="-7.800198">
        <ele>432.880</ele>
        <time>2019-06-22T11:55:23Z</time>
      </trkpt>
      <trkpt lat="42.196926" lon="-7.799979">
        <ele>431.295</ele>
        <time>2019-06-22T11:55:24Z</time>
      </trkpt>
      <trkpt lat="42.196736" lon="-7.799780">
        <ele>431.248</ele>
        <time>2019-06-22T11:55:25Z</time>
      </trkpt>
      <trkpt lat="42.196543" lon="-7.799587">
        <ele>430.148</ele>
        <time>2019-06-22T11:55:26Z</time>
      </trkpt>
      <trkpt lat="42.196334" lon="-7.799397">
        <ele>429.361</ele>
        <time>2019-06-22T11:55:27Z</time>
      </trkpt>
      <trkpt lat="42.196127" lon="-7.799220">
        <ele>429.317</ele>
        <time>2019-06-22T11:55:28Z</time>
      </trkpt>
      <trkpt lat="42.195933" lon="-7.799050">
        <ele>430.308</ele>
        <time>2019-06-22T11:55:29Z</time>
      </trkpt>
      <trkpt lat="42.195730" lon="-7.798889">
        <ele>431.447</ele>
        <time>2019-06-22T11:55:30Z</time>
      </trkpt>
      <trkpt lat="42.195540" lon="-7.798722">
        <ele>431.971</ele>
        <time>2019-06-22T11:55:31Z</time>
      </trkpt>
      <trkpt lat="42.195346" lon="-7.798535">
        <ele>431.993</ele>
        <time>2019-06-22T11:55:32Z</time>
      </trkpt>
      <trkpt lat="42.195156" lon="-7.798336">
        <ele>431.485</ele>
        <time>2019-06-22T11:55:33Z</time>
      </trkpt>
      <trkpt lat="42.194965" lon="-7.798137">
        <ele>431.413</ele>
        <time>2019-06-22T11:55:34Z</time>
      </trkpt>
      <trkpt lat="42.194791" lon="-7.797910">
        <ele>431.492</ele>
        <time>2019-06-22T11:55:35Z</time>
      </trkpt>
      <trkpt lat="42.194617" lon="-7.797674">
        <ele>431.037</ele>
        <time>2019-06-22T11:55:36Z</time>
      </trkpt>
      <trkpt lat="42.194444" lon="-7.797433">
        <ele>431.360</ele>
        <time>2019-06-22T11:55:37Z</time>
      </trkpt>
      <trkpt lat="42.194282" lon="-7.797170">
        <ele>431.344</ele>
        <time>2019-06-22T11:55:38Z</time>
      </trkpt>
      <trkpt lat="42.194130" lon="-7.796891">
        <ele>431.405</ele>
        <time>2019-06-22T11:55:39Z</time>
      </trkpt>
      <trkpt lat="42.193980" lon="-7.796618">
        <ele>432.315</ele>
        <time>2019-06-22T11:55:40Z</time>
      </trkpt>
      <trkpt lat="42.193848" lon="-7.796344">
        <ele>432.908</ele>
        <time>2019-06-22T11:55:41Z</time>
      </trkpt>
      <trkpt lat="42.193725" lon="-7.796037">
        <ele>432.957</ele>
        <time>2019-06-22T11:55:42Z</time>
      </trkpt>
      <trkpt lat="42.193612" lon="-7.795672">
        <ele>433.651</ele>
        <time>2019-06-22T11:55:43Z</time>
      </trkpt>
      <trkpt lat="42.193511" lon="-7.795389">
        <ele>433.613</ele>
        <time>2019-06-22T11:55:44Z</time>
      </trkpt>
      <trkpt lat="42.193427" lon="-7.795074">
        <ele>432.465</ele>
        <time>2019-06-22T11:55:45Z</time>
      </trkpt>
      <trkpt lat="42.193431" lon="-7.794834">
        <ele>432.223</ele>
        <time>2019-06-22T11:55:46Z</time>
      </trkpt>
      <trkpt lat="42.193358" lon="-7.794493">
        <ele>431.532</ele>
        <time>2019-06-22T11:55:47Z</time>
      </trkpt>
      <trkpt lat="42.193297" lon="-7.794158">
        <ele>430.627</ele>
        <time>2019-06-22T11:55:48Z</time>
      </trkpt>
      <trkpt lat="42.193245" lon="-7.793849">
        <ele>430.620</ele>
        <time>2019-06-22T11:55:49Z</time>
      </trkpt>
      <trkpt lat="42.193186" lon="-7.793519">
        <ele>430.519</ele>
        <time>2019-06-22T11:55:50Z</time>
      </trkpt>
      <trkpt lat="42.193146" lon="-7.793213">
        <ele>430.509</ele>
        <time>2019-06-22T11:55:51Z</time>
      </trkpt>
      <trkpt lat="42.193066" lon="-7.792874">
        <ele>430.519</ele>
        <time>2019-06-22T11:55:52Z</time>
      </trkpt>
      <trkpt lat="42.192973" lon="-7.792575">
        <ele>430.808</ele>
        <time>2019-06-22T11:55:53Z</time>
      </trkpt>
      <trkpt lat="42.192896" lon="-7.792264">
        <ele>430.884</ele>
        <time>2019-06-22T11:55:54Z</time>
      </trkpt>
      <trkpt lat="42.192801" lon="-7.791973">
        <ele>430.658</ele>
        <time>2019-06-22T11:55:55Z</time>
      </trkpt>
      <trkpt lat="42.192707" lon="-7.791701">
        <ele>430.550</ele>
        <time>2019-06-22T11:55:56Z</time>
      </trkpt>
      <trkpt lat="42.192594" lon="-7.791432">
        <ele>430.432</ele>
        <time>2019-06-22T11:55:57Z</time>
      </trkpt>
      <trkpt lat="42.192464" lon="-7.791183">
        <ele>430.120</ele>
        <time>2019-06-22T11:55:58Z</time>
      </trkpt>
      <trkpt lat="42.192311" lon="-7.790923">
        <ele>429.369</ele>
        <time>2019-06-22T11:55:59Z</time>
      </trkpt>
      <trkpt lat="42.192151" lon="-7.790685">
        <ele>428.734</ele>
        <time>2019-06-22T11:56:00Z</time>
      </trkpt>
      <trkpt lat="42.191988" lon="-7.790441">
        <ele>428.467</ele>
        <time>2019-06-22T11:56:01Z</time>
      </trkpt>
      <trkpt lat="42.191817" lon="-7.790219">
        <ele>427.625</ele>
        <time>2019-06-22T11:56:02Z</time>
      </trkpt>
      <trkpt lat="42.191635" lon="-7.790001">
        <ele>426.726</ele>
        <time>2019-06-22T11:56:03Z</time>
      </trkpt>
      <trkpt lat="42.191457" lon="-7.789806">
        <ele>426.708</ele>
        <time>2019-06-22T11:56:04Z</time>
      </trkpt>
      <trkpt lat="42.191315" lon="-7.789675">
        <ele>426.708</ele>
        <time>2019-06-22T11:56:05Z</time>
      </trkpt>
      <trkpt lat="42.191168" lon="-7.789551">
        <ele>428.165</ele>
        <time>2019-06-22T11:56:06Z</time>
      </trkpt>
      <trkpt lat="42.191036" lon="-7.789447">
        <ele>430.069</ele>
        <time>2019-06-22T11:56:07Z</time>
      </trkpt>
      <trkpt lat="42.190932" lon="-7.789406">
        <ele>432.731</ele>
        <time>2019-06-22T11:56:08Z</time>
      </trkpt>
      <trkpt lat="42.190823" lon="-7.789340">
        <ele>435.633</ele>
        <time>2019-06-22T11:56:09Z</time>
      </trkpt>
      <trkpt lat="42.190718" lon="-7.789291">
        <ele>438.751</ele>
        <time>2019-06-22T11:56:10Z</time>
      </trkpt>
      <trkpt lat="42.190652" lon="-7.789227">
        <ele>440.910</ele>
        <time>2019-06-22T11:56:11Z</time>
      </trkpt>
      <trkpt lat="42.190595" lon="-7.789153">
        <ele>443.045</ele>
        <time>2019-06-22T11:56:12Z</time>
      </trkpt>
      <trkpt lat="42.190551" lon="-7.789000">
        <ele>444.258</ele>
        <time>2019-06-22T11:56:13Z</time>
      </trkpt>
      <trkpt lat="42.190512" lon="-7.788859">
        <ele>444.888</ele>
        <time>2019-06-22T11:56:14Z</time>
      </trkpt>
      <trkpt lat="42.190445" lon="-7.788716">
        <ele>445.324</ele>
        <time>2019-06-22T11:56:15Z</time>
      </trkpt>
      <trkpt lat="42.190375" lon="-7.788544">
        <ele>445.726</ele>
        <time>2019-06-22T11:56:16Z</time>
      </trkpt>
      <trkpt lat="42.190290" lon="-7.788376">
        <ele>446.108</ele>
        <time>2019-06-22T11:56:17Z</time>
      </trkpt>
      <trkpt lat="42.190200" lon="-7.788191">
        <ele>446.931</ele>
        <time>2019-06-22T11:56:18Z</time>
      </trkpt>
      <trkpt lat="42.190117" lon="-7.788008">
        <ele>447.515</ele>
        <time>2019-06-22T11:56:19Z</time>
      </trkpt>
      <trkpt lat="42.190036" lon="-7.787805">
        <ele>447.527</ele>
        <time>2019-06-22T11:56:20Z</time>
      </trkpt>
      <trkpt lat="42.189944" lon="-7.787580">
        <ele>447.769</ele>
        <time>2019-06-22T11:56:21Z</time>
      </trkpt>
      <trkpt lat="42.189856" lon="-7.787355">
        <ele>447.827</ele>
        <time>2019-06-22T11:56:22Z</time>
      </trkpt>
      <trkpt lat="42.189777" lon="-7.787114">
        <ele>448.026</ele>
        <time>2019-06-22T11:56:23Z</time>
      </trkpt>
      <trkpt lat="42.189704" lon="-7.786862">
        <ele>448.321</ele>
        <time>2019-06-22T11:56:24Z</time>
      </trkpt>
      <trkpt lat="42.189648" lon="-7.786602">
        <ele>449.254</ele>
        <time>2019-06-22T11:56:25Z</time>
      </trkpt>
      <trkpt lat="42.189589" lon="-7.786338">
        <ele>450.437</ele>
        <time>2019-06-22T11:56:26Z</time>
      </trkpt>
      <trkpt lat="42.189529" lon="-7.786068">
        <ele>451.249</ele>
        <time>2019-06-22T11:56:27Z</time>
      </trkpt>
      <trkpt lat="42.189469" lon="-7.785800">
        <ele>452.113</ele>
        <time>2019-06-22T11:56:28Z</time>
      </trkpt>
      <trkpt lat="42.189429" lon="-7.785521">
        <ele>452.908</ele>
        <time>2019-06-22T11:56:29Z</time>
      </trkpt>
      <trkpt lat="42.189378" lon="-7.785249">
        <ele>454.286</ele>
        <time>2019-06-22T11:56:30Z</time>
      </trkpt>
      <trkpt lat="42.189350" lon="-7.784938">
        <ele>455.980</ele>
        <time>2019-06-22T11:56:31Z</time>
      </trkpt>
      <trkpt lat="42.189293" lon="-7.784640">
        <ele>457.192</ele>
        <time>2019-06-22T11:56:32Z</time>
      </trkpt>
      <trkpt lat="42.189243" lon="-7.784347">
        <ele>458.434</ele>
        <time>2019-06-22T11:56:33Z</time>
      </trkpt>
      <trkpt lat="42.189200" lon="-7.784059">
        <ele>459.552</ele>
        <time>2019-06-22T11:56:34Z</time>
      </trkpt>
      <trkpt lat="42.189142" lon="-7.783748">
        <ele>460.171</ele>
        <time>2019-06-22T11:56:35Z</time>
      </trkpt>
      <trkpt lat="42.189045" lon="-7.783420">
        <ele>460.196</ele>
        <time>2019-06-22T11:56:36Z</time>
      </trkpt>
      <trkpt lat="42.188951" lon="-7.783152">
        <ele>460.149</ele>
        <time>2019-06-22T11:56:37Z</time>
      </trkpt>
      <trkpt lat="42.188852" lon="-7.782878">
        <ele>460.721</ele>
        <time>2019-06-22T11:56:38Z</time>
      </trkpt>
      <trkpt lat="42.188704" lon="-7.782618">
        <ele>460.941</ele>
        <time>2019-06-22T11:56:39Z</time>
      </trkpt>
      <trkpt lat="42.188565" lon="-7.782366">
        <ele>461.905</ele>
        <time>2019-06-22T11:56:40Z</time>
      </trkpt>
      <trkpt lat="42.188418" lon="-7.782112">
        <ele>461.908</ele>
        <time>2019-06-22T11:56:41Z</time>
      </trkpt>
      <trkpt lat="42.188255" lon="-7.781883">
        <ele>463.585</ele>
        <time>2019-06-22T11:56:42Z</time>
      </trkpt>
      <trkpt lat="42.188086" lon="-7.781665">
        <ele>463.629</ele>
        <time>2019-06-22T11:56:43Z</time>
      </trkpt>
      <trkpt lat="42.187909" lon="-7.781446">
        <ele>464.411</ele>
        <time>2019-06-22T11:56:44Z</time>
      </trkpt>
      <trkpt lat="42.187733" lon="-7.781224">
        <ele>465.953</ele>
        <time>2019-06-22T11:56:45Z</time>
      </trkpt>
      <trkpt lat="42.187566" lon="-7.781007">
        <ele>467.141</ele>
        <time>2019-06-22T11:56:46Z</time>
      </trkpt>
      <trkpt lat="42.187398" lon="-7.780784">
        <ele>468.260</ele>
        <time>2019-06-22T11:56:47Z</time>
      </trkpt>
      <trkpt lat="42.187240" lon="-7.780560">
        <ele>470.395</ele>
        <time>2019-06-22T11:56:48Z</time>
      </trkpt>
      <trkpt lat="42.187082" lon="-7.780319">
        <ele>472.188</ele>
        <time>2019-06-22T11:56:49Z</time>
      </trkpt>
      <trkpt lat="42.186926" lon="-7.780069">
        <ele>473.333</ele>
        <time>2019-06-22T11:56:50Z</time>
      </trkpt>
      <trkpt lat="42.186815" lon="-7.779811">
        <ele>474.423</ele>
        <time>2019-06-22T11:56:51Z</time>
      </trkpt>
      <trkpt lat="42.186705" lon="-7.779507">
        <ele>475.415</ele>
        <time>2019-06-22T11:56:52Z</time>
      </trkpt>
      <trkpt lat="42.186567" lon="-7.779220">
        <ele>476.808</ele>
        <time>2019-06-22T11:56:53Z</time>
      </trkpt>
      <trkpt lat="42.186458" lon="-7.778929">
        <ele>477.626</ele>
        <time>2019-06-22T11:56:54Z</time>
      </trkpt>
      <trkpt lat="42.186381" lon="-7.778635">
        <ele>478.560</ele>
        <time>2019-06-22T11:56:55Z</time>
      </trkpt>
      <trkpt lat="42.186310" lon="-7.778324">
        <ele>479.532</ele>
        <time>2019-06-22T11:56:56Z</time>
      </trkpt>
      <trkpt lat="42.186257" lon="-7.778021">
        <ele>480.524</ele>
        <time>2019-06-22T11:56:57Z</time>
      </trkpt>
      <trkpt lat="42.186230" lon="-7.777742">
        <ele>481.282</ele>
        <time>2019-06-22T11:56:58Z</time>
      </trkpt>
      <trkpt lat="42.186210" lon="-7.777431">
        <ele>482.521</ele>
        <time>2019-06-22T11:56:59Z</time>
      </trkpt>
      <trkpt lat="42.186198" lon="-7.777121">
        <ele>483.986</ele>
        <time>2019-06-22T11:57:00Z</time>
      </trkpt>
      <trkpt lat="42.186206" lon="-7.776827">
        <ele>485.179</ele>
        <time>2019-06-22T11:57:01Z</time>
      </trkpt>
      <trkpt lat="42.186274" lon="-7.776552">
        <ele>486.332</ele>
        <time>2019-06-22T11:57:02Z</time>
      </trkpt>
      <trkpt lat="42.186371" lon="-7.776258">
        <ele>487.792</ele>
        <time>2019-06-22T11:57:03Z</time>
      </trkpt>
      <trkpt lat="42.186433" lon="-7.775949">
        <ele>489.011</ele>
        <time>2019-06-22T11:57:04Z</time>
      </trkpt>
      <trkpt lat="42.186460" lon="-7.775683">
        <ele>490.308</ele>
        <time>2019-06-22T11:57:05Z</time>
      </trkpt>
      <trkpt lat="42.186562" lon="-7.775401">
        <ele>491.786</ele>
        <time>2019-06-22T11:57:06Z</time>
      </trkpt>
      <trkpt lat="42.186786" lon="-7.775094">
        <ele>493.270</ele>
        <time>2019-06-22T11:57:07Z</time>
      </trkpt>
      <trkpt lat="42.186974" lon="-7.774845">
        <ele>494.842</ele>
        <time>2019-06-22T11:57:08Z</time>
      </trkpt>
      <trkpt lat="42.187210" lon="-7.774624">
        <ele>496.444</ele>
        <time>2019-06-22T11:57:09Z</time>
      </trkpt>
      <trkpt lat="42.187399" lon="-7.774423">
        <ele>497.542</ele>
        <time>2019-06-22T11:57:10Z</time>
      </trkpt>
      <trkpt lat="42.187593" lon="-7.774236">
        <ele>498.871</ele>
        <time>2019-06-22T11:57:11Z</time>
      </trkpt>
      <trkpt lat="42.187786" lon="-7.774052">
        <ele>499.866</ele>
        <time>2019-06-22T11:57:12Z</time>
      </trkpt>
      <trkpt lat="42.188000" lon="-7.773873">
        <ele>500.269</ele>
        <time>2019-06-22T11:57:13Z</time>
      </trkpt>
      <trkpt lat="42.188193" lon="-7.773702">
        <ele>501.899</ele>
        <time>2019-06-22T11:57:14Z</time>
      </trkpt>
      <trkpt lat="42.188387" lon="-7.773526">
        <ele>503.107</ele>
        <time>2019-06-22T11:57:15Z</time>
      </trkpt>
      <trkpt lat="42.188574" lon="-7.773343">
        <ele>504.227</ele>
        <time>2019-06-22T11:57:16Z</time>
      </trkpt>
      <trkpt lat="42.188742" lon="-7.773143">
        <ele>504.508</ele>
        <time>2019-06-22T11:57:17Z</time>
      </trkpt>
      <trkpt lat="42.188908" lon="-7.772934">
        <ele>506.462</ele>
        <time>2019-06-22T11:57:18Z</time>
      </trkpt>
      <trkpt lat="42.189059" lon="-7.772704">
        <ele>507.486</ele>
        <time>2019-06-22T11:57:19Z</time>
      </trkpt>
      <trkpt lat="42.189208" lon="-7.772460">
        <ele>508.288</ele>
        <time>2019-06-22T11:57:20Z</time>
      </trkpt>
      <trkpt lat="42.189344" lon="-7.772196">
        <ele>509.260</ele>
        <time>2019-06-22T11:57:21Z</time>
      </trkpt>
      <trkpt lat="42.189481" lon="-7.771916">
        <ele>510.688</ele>
        <time>2019-06-22T11:57:22Z</time>
      </trkpt>
      <trkpt lat="42.189589" lon="-7.771616">
        <ele>510.897</ele>
        <time>2019-06-22T11:57:23Z</time>
      </trkpt>
      <trkpt lat="42.189712" lon="-7.771333">
        <ele>510.882</ele>
        <time>2019-06-22T11:57:24Z</time>
      </trkpt>
      <trkpt lat="42.189805" lon="-7.771061">
        <ele>510.445</ele>
        <time>2019-06-22T11:57:25Z</time>
      </trkpt>
      <trkpt lat="42.189850" lon="-7.770794">
        <ele>510.493</ele>
        <time>2019-06-22T11:57:26Z</time>
      </trkpt>
      <trkpt lat="42.189856" lon="-7.770521">
        <ele>511.165</ele>
        <time>2019-06-22T11:57:27Z</time>
      </trkpt>
      <trkpt lat="42.189812" lon="-7.770234">
        <ele>513.021</ele>
        <time>2019-06-22T11:57:28Z</time>
      </trkpt>
      <trkpt lat="42.189731" lon="-7.769945">
        <ele>516.108</ele>
        <time>2019-06-22T11:57:29Z</time>
      </trkpt>
      <trkpt lat="42.189673" lon="-7.769676">
        <ele>518.992</ele>
        <time>2019-06-22T11:57:30Z</time>
      </trkpt>
      <trkpt lat="42.189503" lon="-7.769471">
        <ele>522.166</ele>
        <time>2019-06-22T11:57:31Z</time>
      </trkpt>
      <trkpt lat="42.189363" lon="-7.769283">
        <ele>522.878</ele>
        <time>2019-06-22T11:57:32Z</time>
      </trkpt>
      <trkpt lat="42.189207" lon="-7.769088">
        <ele>523.190</ele>
        <time>2019-06-22T11:57:33Z</time>
      </trkpt>
      <trkpt lat="42.189002" lon="-7.768918">
        <ele>523.288</ele>
        <time>2019-06-22T11:57:34Z</time>
      </trkpt>
      <trkpt lat="42.188837" lon="-7.768737">
        <ele>524.927</ele>
        <time>2019-06-22T11:57:35Z</time>
      </trkpt>
      <trkpt lat="42.188634" lon="-7.768563">
        <ele>524.932</ele>
        <time>2019-06-22T11:57:36Z</time>
      </trkpt>
      <trkpt lat="42.188478" lon="-7.768388">
        <ele>525.315</ele>
        <time>2019-06-22T11:57:37Z</time>
      </trkpt>
      <trkpt lat="42.188318" lon="-7.768212">
        <ele>526.571</ele>
        <time>2019-06-22T11:57:38Z</time>
      </trkpt>
      <trkpt lat="42.188160" lon="-7.768044">
        <ele>528.941</ele>
        <time>2019-06-22T11:57:39Z</time>
      </trkpt>
      <trkpt lat="42.188014" lon="-7.767858">
        <ele>530.615</ele>
        <time>2019-06-22T11:57:40Z</time>
      </trkpt>
      <trkpt lat="42.187845" lon="-7.767688">
        <ele>531.408</ele>
        <time>2019-06-22T11:57:41Z</time>
      </trkpt>
      <trkpt lat="42.187682" lon="-7.767524">
        <ele>532.010</ele>
        <time>2019-06-22T11:57:42Z</time>
      </trkpt>
      <trkpt lat="42.187496" lon="-7.767376">
        <ele>532.514</ele>
        <time>2019-06-22T11:57:43Z</time>
      </trkpt>
      <trkpt lat="42.187329" lon="-7.767240">
        <ele>532.966</ele>
        <time>2019-06-22T11:57:44Z</time>
      </trkpt>
      <trkpt lat="42.187151" lon="-7.767113">
        <ele>535.368</ele>
        <time>2019-06-22T11:57:45Z</time>
      </trkpt>
      <trkpt lat="42.186979" lon="-7.766988">
        <ele>535.356</ele>
        <time>2019-06-22T11:57:46Z</time>
      </trkpt>
      <trkpt lat="42.186803" lon="-7.766858">
        <ele>537.375</ele>
        <time>2019-06-22T11:57:47Z</time>
      </trkpt>
      <trkpt lat="42.186628" lon="-7.766739">
        <ele>540.410</ele>
        <time>2019-06-22T11:57:48Z</time>
      </trkpt>
      <trkpt lat="42.186445" lon="-7.766629">
        <ele>542.993</ele>
        <time>2019-06-22T11:57:49Z</time>
      </trkpt>
      <trkpt lat="42.186273" lon="-7.766514">
        <ele>544.075</ele>
        <time>2019-06-22T11:57:50Z</time>
      </trkpt>
      <trkpt lat="42.186089" lon="-7.766382">
        <ele>545.928</ele>
        <time>2019-06-22T11:57:51Z</time>
      </trkpt>
      <trkpt lat="42.185933" lon="-7.766292">
        <ele>546.120</ele>
        <time>2019-06-22T11:57:52Z</time>
      </trkpt>
      <trkpt lat="42.185761" lon="-7.766176">
        <ele>546.308</ele>
        <time>2019-06-22T11:57:53Z</time>
      </trkpt>
      <trkpt lat="42.185587" lon="-7.766065">
        <ele>547.030</ele>
        <time>2019-06-22T11:57:54Z</time>
      </trkpt>
      <trkpt lat="42.185414" lon="-7.765946">
        <ele>548.394</ele>
        <time>2019-06-22T11:57:55Z</time>
      </trkpt>
      <trkpt lat="42.185242" lon="-7.765827">
        <ele>549.366</ele>
        <time>2019-06-22T11:57:56Z</time>
      </trkpt>
      <trkpt lat="42.185053" lon="-7.765726">
        <ele>551.458</ele>
        <time>2019-06-22T11:57:57Z</time>
      </trkpt>
      <trkpt lat="42.184873" lon="-7.765640">
        <ele>553.656</ele>
        <time>2019-06-22T11:57:58Z</time>
      </trkpt>
      <trkpt lat="42.184675" lon="-7.765544">
        <ele>555.345</ele>
        <time>2019-06-22T11:57:59Z</time>
      </trkpt>
      <trkpt lat="42.184484" lon="-7.765465">
        <ele>557.430</ele>
        <time>2019-06-22T11:58:00Z</time>
      </trkpt>
      <trkpt lat="42.184297" lon="-7.765384">
        <ele>558.193</ele>
        <time>2019-06-22T11:58:01Z</time>
      </trkpt>
      <trkpt lat="42.184116" lon="-7.765312">
        <ele>558.613</ele>
        <time>2019-06-22T11:58:02Z</time>
      </trkpt>
      <trkpt lat="42.183925" lon="-7.765257">
        <ele>559.143</ele>
        <time>2019-06-22T11:58:03Z</time>
      </trkpt>
      <trkpt lat="42.183729" lon="-7.765195">
        <ele>559.907</ele>
        <time>2019-06-22T11:58:04Z</time>
      </trkpt>
      <trkpt lat="42.183526" lon="-7.765142">
        <ele>560.508</ele>
        <time>2019-06-22T11:58:05Z</time>
      </trkpt>
      <trkpt lat="42.183322" lon="-7.765096">
        <ele>562.324</ele>
        <time>2019-06-22T11:58:06Z</time>
      </trkpt>
      <trkpt lat="42.183106" lon="-7.765038">
        <ele>564.348</ele>
        <time>2019-06-22T11:58:07Z</time>
      </trkpt>
      <trkpt lat="42.182902" lon="-7.764983">
        <ele>566.050</ele>
        <time>2019-06-22T11:58:08Z</time>
      </trkpt>
      <trkpt lat="42.182703" lon="-7.764945">
        <ele>568.072</ele>
        <time>2019-06-22T11:58:09Z</time>
      </trkpt>
      <trkpt lat="42.182494" lon="-7.764910">
        <ele>570.580</ele>
        <time>2019-06-22T11:58:10Z</time>
      </trkpt>
      <trkpt lat="42.182282" lon="-7.764883">
        <ele>571.989</ele>
        <time>2019-06-22T11:58:11Z</time>
      </trkpt>
      <trkpt lat="42.182077" lon="-7.764871">
        <ele>574.224</ele>
        <time>2019-06-22T11:58:12Z</time>
      </trkpt>
      <trkpt lat="42.181873" lon="-7.764848">
        <ele>575.927</ele>
        <time>2019-06-22T11:58:13Z</time>
      </trkpt>
      <trkpt lat="42.181661" lon="-7.764779">
        <ele>577.273</ele>
        <time>2019-06-22T11:58:14Z</time>
      </trkpt>
      <trkpt lat="42.181447" lon="-7.764726">
        <ele>577.685</ele>
        <time>2019-06-22T11:58:15Z</time>
      </trkpt>
      <trkpt lat="42.181229" lon="-7.764692">
        <ele>578.813</ele>
        <time>2019-06-22T11:58:16Z</time>
      </trkpt>
      <trkpt lat="42.181012" lon="-7.764648">
        <ele>580.008</ele>
        <time>2019-06-22T11:58:17Z</time>
      </trkpt>
      <trkpt lat="42.180791" lon="-7.764594">
        <ele>581.580</ele>
        <time>2019-06-22T11:58:18Z</time>
      </trkpt>
      <trkpt lat="42.180590" lon="-7.764528">
        <ele>583.184</ele>
        <time>2019-06-22T11:58:19Z</time>
      </trkpt>
      <trkpt lat="42.180392" lon="-7.764452">
        <ele>584.936</ele>
        <time>2019-06-22T11:58:20Z</time>
      </trkpt>
      <trkpt lat="42.180185" lon="-7.764378">
        <ele>587.058</ele>
        <time>2019-06-22T11:58:21Z</time>
      </trkpt>
      <trkpt lat="42.179986" lon="-7.764305">
        <ele>588.356</ele>
        <time>2019-06-22T11:58:22Z</time>
      </trkpt>
      <trkpt lat="42.179782" lon="-7.764229">
        <ele>588.375</ele>
        <time>2019-06-22T11:58:23Z</time>
      </trkpt>
      <trkpt lat="42.179580" lon="-7.764156">
        <ele>588.930</ele>
        <time>2019-06-22T11:58:24Z</time>
      </trkpt>
      <trkpt lat="42.179376" lon="-7.764083">
        <ele>590.833</ele>
        <time>2019-06-22T11:58:25Z</time>
      </trkpt>
      <trkpt lat="42.179178" lon="-7.764007">
        <ele>591.916</ele>
        <time>2019-06-22T11:58:26Z</time>
      </trkpt>
      <trkpt lat="42.178977" lon="-7.763930">
        <ele>592.476</ele>
        <time>2019-06-22T11:58:27Z</time>
      </trkpt>
      <trkpt lat="42.178774" lon="-7.763868">
        <ele>593.713</ele>
        <time>2019-06-22T11:58:28Z</time>
      </trkpt>
      <trkpt lat="42.178577" lon="-7.763814">
        <ele>595.308</ele>
        <time>2019-06-22T11:58:29Z</time>
      </trkpt>
      <trkpt lat="42.178377" lon="-7.763778">
        <ele>596.274</ele>
        <time>2019-06-22T11:58:30Z</time>
      </trkpt>
      <trkpt lat="42.178166" lon="-7.763748">
        <ele>596.978</ele>
        <time>2019-06-22T11:58:31Z</time>
      </trkpt>
      <trkpt lat="42.177957" lon="-7.763703">
        <ele>599.220</ele>
        <time>2019-06-22T11:58:32Z</time>
      </trkpt>
      <trkpt lat="42.177753" lon="-7.763678">
        <ele>600.562</ele>
        <time>2019-06-22T11:58:33Z</time>
      </trkpt>
      <trkpt lat="42.177547" lon="-7.763663">
        <ele>602.560</ele>
        <time>2019-06-22T11:58:34Z</time>
      </trkpt>
      <trkpt lat="42.177344" lon="-7.763639">
        <ele>602.539</ele>
        <time>2019-06-22T11:58:35Z</time>
      </trkpt>
      <trkpt lat="42.177141" lon="-7.763610">
        <ele>606.074</ele>
        <time>2019-06-22T11:58:36Z</time>
      </trkpt>
      <trkpt lat="42.176938" lon="-7.763610">
        <ele>606.017</ele>
        <time>2019-06-22T11:58:37Z</time>
      </trkpt>
      <trkpt lat="42.176720" lon="-7.763623">
        <ele>606.319</ele>
        <time>2019-06-22T11:58:38Z</time>
      </trkpt>
      <trkpt lat="42.176509" lon="-7.763657">
        <ele>608.109</ele>
        <time>2019-06-22T11:58:39Z</time>
      </trkpt>
      <trkpt lat="42.176301" lon="-7.763671">
        <ele>609.619</ele>
        <time>2019-06-22T11:58:40Z</time>
      </trkpt>
      <trkpt lat="42.176098" lon="-7.763687">
        <ele>610.608</ele>
        <time>2019-06-22T11:58:41Z</time>
      </trkpt>
      <trkpt lat="42.175909" lon="-7.763683">
        <ele>611.354</ele>
        <time>2019-06-22T11:58:42Z</time>
      </trkpt>
      <trkpt lat="42.175707" lon="-7.763666">
        <ele>613.238</ele>
        <time>2019-06-22T11:58:43Z</time>
      </trkpt>
      <trkpt lat="42.175501" lon="-7.763673">
        <ele>614.630</ele>
        <time>2019-06-22T11:58:44Z</time>
      </trkpt>
      <trkpt lat="42.175287" lon="-7.763706">
        <ele>615.452</ele>
        <time>2019-06-22T11:58:45Z</time>
      </trkpt>
      <trkpt lat="42.175069" lon="-7.763701">
        <ele>616.270</ele>
        <time>2019-06-22T11:58:46Z</time>
      </trkpt>
      <trkpt lat="42.174851" lon="-7.763692">
        <ele>617.659</ele>
        <time>2019-06-22T11:58:47Z</time>
      </trkpt>
      <trkpt lat="42.174628" lon="-7.763686">
        <ele>619.284</ele>
        <time>2019-06-22T11:58:48Z</time>
      </trkpt>
      <trkpt lat="42.174407" lon="-7.763668">
        <ele>620.237</ele>
        <time>2019-06-22T11:58:49Z</time>
      </trkpt>
      <trkpt lat="42.174180" lon="-7.763654">
        <ele>621.245</ele>
        <time>2019-06-22T11:58:50Z</time>
      </trkpt>
      <trkpt lat="42.173963" lon="-7.763620">
        <ele>622.347</ele>
        <time>2019-06-22T11:58:51Z</time>
      </trkpt>
      <trkpt lat="42.173743" lon="-7.763599">
        <ele>622.411</ele>
        <time>2019-06-22T11:58:52Z</time>
      </trkpt>
      <trkpt lat="42.173509" lon="-7.763548">
        <ele>622.708</ele>
        <time>2019-06-22T11:58:53Z</time>
      </trkpt>
      <trkpt lat="42.173284" lon="-7.763502">
        <ele>623.487</ele>
        <time>2019-06-22T11:58:54Z</time>
      </trkpt>
      <trkpt lat="42.173052" lon="-7.763441">
        <ele>623.451</ele>
        <time>2019-06-22T11:58:55Z</time>
      </trkpt>
      <trkpt lat="42.172828" lon="-7.763382">
        <ele>623.173</ele>
        <time>2019-06-22T11:58:56Z</time>
      </trkpt>
      <trkpt lat="42.172601" lon="-7.763312">
        <ele>623.095</ele>
        <time>2019-06-22T11:58:57Z</time>
      </trkpt>
      <trkpt lat="42.172371" lon="-7.763233">
        <ele>622.523</ele>
        <time>2019-06-22T11:58:58Z</time>
      </trkpt>
      <trkpt lat="42.172148" lon="-7.763139">
        <ele>622.582</ele>
        <time>2019-06-22T11:58:59Z</time>
      </trkpt>
      <trkpt lat="42.171936" lon="-7.763031">
        <ele>623.577</ele>
        <time>2019-06-22T11:59:00Z</time>
      </trkpt>
      <trkpt lat="42.171721" lon="-7.762914">
        <ele>625.690</ele>
        <time>2019-06-22T11:59:01Z</time>
      </trkpt>
      <trkpt lat="42.171511" lon="-7.762803">
        <ele>627.384</ele>
        <time>2019-06-22T11:59:02Z</time>
      </trkpt>
      <trkpt lat="42.171303" lon="-7.762691">
        <ele>630.307</ele>
        <time>2019-06-22T11:59:03Z</time>
      </trkpt>
      <trkpt lat="42.171093" lon="-7.762585">
        <ele>632.217</ele>
        <time>2019-06-22T11:59:04Z</time>
      </trkpt>
      <trkpt lat="42.170883" lon="-7.762458">
        <ele>633.708</ele>
        <time>2019-06-22T11:59:05Z</time>
      </trkpt>
      <trkpt lat="42.170674" lon="-7.762324">
        <ele>634.941</ele>
        <time>2019-06-22T11:59:06Z</time>
      </trkpt>
      <trkpt lat="42.170463" lon="-7.762210">
        <ele>636.735</ele>
        <time>2019-06-22T11:59:07Z</time>
      </trkpt>
      <trkpt lat="42.170259" lon="-7.762090">
        <ele>638.957</ele>
        <time>2019-06-22T11:59:08Z</time>
      </trkpt>
      <trkpt lat="42.170046" lon="-7.761966">
        <ele>640.199</ele>
        <time>2019-06-22T11:59:09Z</time>
      </trkpt>
      <trkpt lat="42.169842" lon="-7.761855">
        <ele>640.917</ele>
        <time>2019-06-22T11:59:10Z</time>
      </trkpt>
      <trkpt lat="42.169633" lon="-7.761735">
        <ele>641.736</ele>
        <time>2019-06-22T11:59:11Z</time>
      </trkpt>
      <trkpt lat="42.169425" lon="-7.761622">
        <ele>642.691</ele>
        <time>2019-06-22T11:59:12Z</time>
      </trkpt>
      <trkpt lat="42.169209" lon="-7.761505">
        <ele>643.874</ele>
        <time>2019-06-22T11:59:13Z</time>
      </trkpt>
      <trkpt lat="42.168993" lon="-7.761404">
        <ele>644.757</ele>
        <time>2019-06-22T11:59:14Z</time>
      </trkpt>
      <trkpt lat="42.168784" lon="-7.761301">
        <ele>645.500</ele>
        <time>2019-06-22T11:59:15Z</time>
      </trkpt>
      <trkpt lat="42.168572" lon="-7.761204">
        <ele>646.720</ele>
        <time>2019-06-22T11:59:16Z</time>
      </trkpt>
      <trkpt lat="42.168357" lon="-7.761109">
        <ele>647.808</ele>
        <time>2019-06-22T11:59:17Z</time>
      </trkpt>
      <trkpt lat="42.168151" lon="-7.761010">
        <ele>648.428</ele>
        <time>2019-06-22T11:59:18Z</time>
      </trkpt>
      <trkpt lat="42.167936" lon="-7.760930">
        <ele>649.162</ele>
        <time>2019-06-22T11:59:19Z</time>
      </trkpt>
      <trkpt lat="42.167721" lon="-7.760848">
        <ele>649.954</ele>
        <time>2019-06-22T11:59:20Z</time>
      </trkpt>
      <trkpt lat="42.167499" lon="-7.760804">
        <ele>650.596</ele>
        <time>2019-06-22T11:59:21Z</time>
      </trkpt>
      <trkpt lat="42.167281" lon="-7.760768">
        <ele>651.324</ele>
        <time>2019-06-22T11:59:22Z</time>
      </trkpt>
      <trkpt lat="42.167063" lon="-7.760719">
        <ele>651.473</ele>
        <time>2019-06-22T11:59:23Z</time>
      </trkpt>
      <trkpt lat="42.166852" lon="-7.760677">
        <ele>651.828</ele>
        <time>2019-06-22T11:59:24Z</time>
      </trkpt>
      <trkpt lat="42.166630" lon="-7.760656">
        <ele>651.991</ele>
        <time>2019-06-22T11:59:25Z</time>
      </trkpt>
      <trkpt lat="42.166409" lon="-7.760634">
        <ele>653.591</ele>
        <time>2019-06-22T11:59:26Z</time>
      </trkpt>
      <trkpt lat="42.166190" lon="-7.760609">
        <ele>655.181</ele>
        <time>2019-06-22T11:59:27Z</time>
      </trkpt>
      <trkpt lat="42.165966" lon="-7.760603">
        <ele>658.219</ele>
        <time>2019-06-22T11:59:28Z</time>
      </trkpt>
      <trkpt lat="42.165753" lon="-7.760580">
        <ele>660.008</ele>
        <time>2019-06-22T11:59:29Z</time>
      </trkpt>
      <trkpt lat="42.165536" lon="-7.760574">
        <ele>660.092</ele>
        <time>2019-06-22T11:59:30Z</time>
      </trkpt>
      <trkpt lat="42.165318" lon="-7.760586">
        <ele>660.076</ele>
        <time>2019-06-22T11:59:31Z</time>
      </trkpt>
      <trkpt lat="42.165127" lon="-7.760591">
        <ele>659.448</ele>
        <time>2019-06-22T11:59:32Z</time>
      </trkpt>
      <trkpt lat="42.164949" lon="-7.760594">
        <ele>658.280</ele>
        <time>2019-06-22T11:59:33Z</time>
      </trkpt>
      <trkpt lat="42.164770" lon="-7.760589">
        <ele>658.238</ele>
        <time>2019-06-22T11:59:34Z</time>
      </trkpt>
      <trkpt lat="42.164589" lon="-7.760583">
        <ele>659.297</ele>
        <time>2019-06-22T11:59:35Z</time>
      </trkpt>
      <trkpt lat="42.164403" lon="-7.760585">
        <ele>661.132</ele>
        <time>2019-06-22T11:59:36Z</time>
      </trkpt>
      <trkpt lat="42.164219" lon="-7.760589">
        <ele>665.315</ele>
        <time>2019-06-22T11:59:37Z</time>
      </trkpt>
      <trkpt lat="42.164031" lon="-7.760601">
        <ele>667.868</ele>
        <time>2019-06-22T11:59:38Z</time>
      </trkpt>
      <trkpt lat="42.163847" lon="-7.760619">
        <ele>669.542</ele>
        <time>2019-06-22T11:59:39Z</time>
      </trkpt>
      <trkpt lat="42.163667" lon="-7.760643">
        <ele>670.526</ele>
        <time>2019-06-22T11:59:40Z</time>
      </trkpt>
      <trkpt lat="42.163487" lon="-7.760669">
        <ele>671.308</ele>
        <time>2019-06-22T11:59:41Z</time>
      </trkpt>
      <trkpt lat="42.163299" lon="-7.760697">
        <ele>671.929</ele>
        <time>2019-06-22T11:59:42Z</time>
      </trkpt>
      <trkpt lat="42.163116" lon="-7.760706">
        <ele>673.413</ele>
        <time>2019-06-22T11:59:43Z</time>
      </trkpt>
      <trkpt lat="42.162914" lon="-7.760704">
        <ele>674.355</ele>
        <time>2019-06-22T11:59:44Z</time>
      </trkpt>
      <trkpt lat="42.162708" lon="-7.760694">
        <ele>675.237</ele>
        <time>2019-06-22T11:59:45Z</time>
      </trkpt>
      <trkpt lat="42.162506" lon="-7.760686">
        <ele>676.035</ele>
        <time>2019-06-22T11:59:46Z</time>
      </trkpt>
      <trkpt lat="42.162313" lon="-7.760675">
        <ele>676.094</ele>
        <time>2019-06-22T11:59:47Z</time>
      </trkpt>
      <trkpt lat="42.162123" lon="-7.760665">
        <ele>676.069</ele>
        <time>2019-06-22T11:59:48Z</time>
      </trkpt>
      <trkpt lat="42.161934" lon="-7.760652">
        <ele>675.912</ele>
        <time>2019-06-22T11:59:49Z</time>
      </trkpt>
      <trkpt lat="42.161746" lon="-7.760629">
        <ele>675.998</ele>
        <time>2019-06-22T11:59:50Z</time>
      </trkpt>
      <trkpt lat="42.161561" lon="-7.760601">
        <ele>675.615</ele>
        <time>2019-06-22T11:59:51Z</time>
      </trkpt>
      <trkpt lat="42.161378" lon="-7.760570">
        <ele>675.526</ele>
        <time>2019-06-22T11:59:52Z</time>
      </trkpt>
      <trkpt lat="42.161197" lon="-7.760533">
        <ele>675.308</ele>
        <time>2019-06-22T11:59:53Z</time>
      </trkpt>
      <trkpt lat="42.161002" lon="-7.760490">
        <ele>674.722</ele>
        <time>2019-06-22T11:59:54Z</time>
      </trkpt>
      <trkpt lat="42.160818" lon="-7.760442">
        <ele>674.466</ele>
        <time>2019-06-22T11:59:55Z</time>
      </trkpt>
      <trkpt lat="42.160635" lon="-7.760387">
        <ele>674.028</ele>
        <time>2019-06-22T11:59:56Z</time>
      </trkpt>
      <trkpt lat="42.160451" lon="-7.760327">
        <ele>674.030</ele>
        <time>2019-06-22T11:59:57Z</time>
      </trkpt>
      <trkpt lat="42.160272" lon="-7.760267">
        <ele>674.248</ele>
        <time>2019-06-22T11:59:58Z</time>
      </trkpt>
      <trkpt lat="42.160095" lon="-7.760202">
        <ele>674.577</ele>
        <time>2019-06-22T11:59:59Z</time>
      </trkpt>
      <trkpt lat="42.159913" lon="-7.760134">
        <ele>675.372</ele>
        <time>2019-06-22T12:00:00Z</time>
      </trkpt>
      <trkpt lat="42.159737" lon="-7.760051">
        <ele>675.995</ele>
        <time>2019-06-22T12:00:01Z</time>
      </trkpt>
      <trkpt lat="42.159566" lon="-7.759963">
        <ele>676.263</ele>
        <time>2019-06-22T12:00:02Z</time>
      </trkpt>
      <trkpt lat="42.159395" lon="-7.759873">
        <ele>676.344</ele>
        <time>2019-06-22T12:00:03Z</time>
      </trkpt>
      <trkpt lat="42.159218" lon="-7.759786">
        <ele>676.718</ele>
        <time>2019-06-22T12:00:04Z</time>
      </trkpt>
      <trkpt lat="42.159045" lon="-7.759700">
        <ele>676.708</ele>
        <time>2019-06-22T12:00:05Z</time>
      </trkpt>
      <trkpt lat="42.158876" lon="-7.759596">
        <ele>676.529</ele>
        <time>2019-06-22T12:00:06Z</time>
      </trkpt>
      <trkpt lat="42.158707" lon="-7.759488">
        <ele>676.493</ele>
        <time>2019-06-22T12:00:07Z</time>
      </trkpt>
      <trkpt lat="42.158541" lon="-7.759380">
        <ele>675.965</ele>
        <time>2019-06-22T12:00:08Z</time>
      </trkpt>
      <trkpt lat="42.158376" lon="-7.759262">
        <ele>674.997</ele>
        <time>2019-06-22T12:00:09Z</time>
      </trkpt>
      <trkpt lat="42.158215" lon="-7.759136">
        <ele>673.575</ele>
        <time>2019-06-22T12:00:10Z</time>
      </trkpt>
      <trkpt lat="42.158059" lon="-7.759026">
        <ele>672.034</ele>
        <time>2019-06-22T12:00:11Z</time>
      </trkpt>
      <trkpt lat="42.157893" lon="-7.758906">
        <ele>670.849</ele>
        <time>2019-06-22T12:00:12Z</time>
      </trkpt>
      <trkpt lat="42.157725" lon="-7.758785">
        <ele>670.562</ele>
        <time>2019-06-22T12:00:13Z</time>
      </trkpt>
      <trkpt lat="42.157562" lon="-7.758665">
        <ele>670.086</ele>
        <time>2019-06-22T12:00:14Z</time>
      </trkpt>
      <trkpt lat="42.157400" lon="-7.758565">
        <ele>669.360</ele>
        <time>2019-06-22T12:00:15Z</time>
      </trkpt>
      <trkpt lat="42.157229" lon="-7.758466">
        <ele>669.026</ele>
        <time>2019-06-22T12:00:16Z</time>
      </trkpt>
      <trkpt lat="42.157049" lon="-7.758388">
        <ele>668.708</ele>
        <time>2019-06-22T12:00:17Z</time>
      </trkpt>
      <trkpt lat="42.156859" lon="-7.758316">
        <ele>667.051</ele>
        <time>2019-06-22T12:00:18Z</time>
      </trkpt>
      <trkpt lat="42.156668" lon="-7.758250">
        <ele>665.875</ele>
        <time>2019-06-22T12:00:19Z</time>
      </trkpt>
      <trkpt lat="42.156484" lon="-7.758195">
        <ele>665.087</ele>
        <time>2019-06-22T12:00:20Z</time>
      </trkpt>
      <trkpt lat="42.156298" lon="-7.758133">
        <ele>664.249</ele>
        <time>2019-06-22T12:00:21Z</time>
      </trkpt>
      <trkpt lat="42.156118" lon="-7.758060">
        <ele>663.297</ele>
        <time>2019-06-22T12:00:22Z</time>
      </trkpt>
      <trkpt lat="42.155941" lon="-7.757992">
        <ele>663.236</ele>
        <time>2019-06-22T12:00:23Z</time>
      </trkpt>
      <trkpt lat="42.155755" lon="-7.757943">
        <ele>663.211</ele>
        <time>2019-06-22T12:00:24Z</time>
      </trkpt>
      <trkpt lat="42.155583" lon="-7.757888">
        <ele>663.364</ele>
        <time>2019-06-22T12:00:25Z</time>
      </trkpt>
      <trkpt lat="42.155416" lon="-7.757828">
        <ele>663.356</ele>
        <time>2019-06-22T12:00:26Z</time>
      </trkpt>
      <trkpt lat="42.155250" lon="-7.757773">
        <ele>663.359</ele>
        <time>2019-06-22T12:00:27Z</time>
      </trkpt>
      <trkpt lat="42.155092" lon="-7.757724">
        <ele>663.214</ele>
        <time>2019-06-22T12:00:28Z</time>
      </trkpt>
      <trkpt lat="42.154936" lon="-7.757674">
        <ele>663.208</ele>
        <time>2019-06-22T12:00:29Z</time>
      </trkpt>
      <trkpt lat="42.154786" lon="-7.757629">
        <ele>662.428</ele>
        <time>2019-06-22T12:00:30Z</time>
      </trkpt>
      <trkpt lat="42.154646" lon="-7.757595">
        <ele>662.132</ele>
        <time>2019-06-22T12:00:31Z</time>
      </trkpt>
      <trkpt lat="42.154539" lon="-7.757569">
        <ele>662.164</ele>
        <time>2019-06-22T12:00:32Z</time>
      </trkpt>
      <trkpt lat="42.154420" lon="-7.757528">
        <ele>662.246</ele>
        <time>2019-06-22T12:00:33Z</time>
      </trkpt>
      <trkpt lat="42.154313" lon="-7.757518">
        <ele>662.214</ele>
        <time>2019-06-22T12:00:34Z</time>
      </trkpt>
      <trkpt lat="42.154198" lon="-7.757510">
        <ele>661.653</ele>
        <time>2019-06-22T12:00:35Z</time>
      </trkpt>
      <trkpt lat="42.154070" lon="-7.757504">
        <ele>661.038</ele>
        <time>2019-06-22T12:00:36Z</time>
      </trkpt>
      <trkpt lat="42.153961" lon="-7.757484">
        <ele>660.161</ele>
        <time>2019-06-22T12:00:37Z</time>
      </trkpt>
      <trkpt lat="42.153856" lon="-7.757482">
        <ele>660.185</ele>
        <time>2019-06-22T12:00:38Z</time>
      </trkpt>
      <trkpt lat="42.153740" lon="-7.757479">
        <ele>660.189</ele>
        <time>2019-06-22T12:00:39Z</time>
      </trkpt>
      <trkpt lat="42.153637" lon="-7.757475">
        <ele>660.717</ele>
        <time>2019-06-22T12:00:40Z</time>
      </trkpt>
      <trkpt lat="42.153540" lon="-7.757469">
        <ele>661.408</ele>
        <time>2019-06-22T12:00:41Z</time>
      </trkpt>
      <trkpt lat="42.153438" lon="-7.757476">
        <ele>661.811</ele>
        <time>2019-06-22T12:00:42Z</time>
      </trkpt>
      <trkpt lat="42.153337" lon="-7.757492">
        <ele>661.825</ele>
        <time>2019-06-22T12:00:43Z</time>
      </trkpt>
      <trkpt lat="42.153226" lon="-7.757507">
        <ele>661.817</ele>
        <time>2019-06-22T12:00:44Z</time>
      </trkpt>
      <trkpt lat="42.153102" lon="-7.757522">
        <ele>660.849</ele>
        <time>2019-06-22T12:00:45Z</time>
      </trkpt>
      <trkpt lat="42.152980" lon="-7.757553">
        <ele>660.757</ele>
        <time>2019-06-22T12:00:46Z</time>
      </trkpt>
      <trkpt lat="42.152844" lon="-7.757579">
        <ele>660.446</ele>
        <time>2019-06-22T12:00:47Z</time>
      </trkpt>
      <trkpt lat="42.152703" lon="-7.757618">
        <ele>659.951</ele>
        <time>2019-06-22T12:00:48Z</time>
      </trkpt>
      <trkpt lat="42.152554" lon="-7.757667">
        <ele>659.214</ele>
        <time>2019-06-22T12:00:49Z</time>
      </trkpt>
      <trkpt lat="42.152400" lon="-7.757725">
        <ele>658.852</ele>
        <time>2019-06-22T12:00:50Z</time>
      </trkpt>
      <trkpt lat="42.152250" lon="-7.757788">
        <ele>658.453</ele>
        <time>2019-06-22T12:00:51Z</time>
      </trkpt>
      <trkpt lat="42.152092" lon="-7.757869">
        <ele>657.208</ele>
        <time>2019-06-22T12:00:52Z</time>
      </trkpt>
      <trkpt lat="42.151942" lon="-7.757940">
        <ele>656.708</ele>
        <time>2019-06-22T12:00:53Z</time>
      </trkpt>
      <trkpt lat="42.151790" lon="-7.758020">
        <ele>656.178</ele>
        <time>2019-06-22T12:00:54Z</time>
      </trkpt>
      <trkpt lat="42.151633" lon="-7.758132">
        <ele>655.812</ele>
        <time>2019-06-22T12:00:55Z</time>
      </trkpt>
      <trkpt lat="42.151480" lon="-7.758260">
        <ele>655.444</ele>
        <time>2019-06-22T12:00:56Z</time>
      </trkpt>
      <trkpt lat="42.151326" lon="-7.758401">
        <ele>654.546</ele>
        <time>2019-06-22T12:00:57Z</time>
      </trkpt>
      <trkpt lat="42.151169" lon="-7.758547">
        <ele>654.364</ele>
        <time>2019-06-22T12:00:58Z</time>
      </trkpt>
      <trkpt lat="42.151015" lon="-7.758709">
        <ele>653.583</ele>
        <time>2019-06-22T12:00:59Z</time>
      </trkpt>
      <trkpt lat="42.150867" lon="-7.758886">
        <ele>653.298</ele>
        <time>2019-06-22T12:01:00Z</time>
      </trkpt>
      <trkpt lat="42.150720" lon="-7.759063">
        <ele>653.251</ele>
        <time>2019-06-22T12:01:01Z</time>
      </trkpt>
      <trkpt lat="42.150573" lon="-7.759240">
        <ele>652.876</ele>
        <time>2019-06-22T12:01:02Z</time>
      </trkpt>
      <trkpt lat="42.150432" lon="-7.759435">
        <ele>652.690</ele>
        <time>2019-06-22T12:01:03Z</time>
      </trkpt>
      <trkpt lat="42.150309" lon="-7.759610">
        <ele>651.819</ele>
        <time>2019-06-22T12:01:04Z</time>
      </trkpt>
      <trkpt lat="42.150170" lon="-7.759794">
        <ele>651.108</ele>
        <time>2019-06-22T12:01:05Z</time>
      </trkpt>
      <trkpt lat="42.150037" lon="-7.759958">
        <ele>650.520</ele>
        <time>2019-06-22T12:01:06Z</time>
      </trkpt>
      <trkpt lat="42.149891" lon="-7.760137">
        <ele>648.524</ele>
        <time>2019-06-22T12:01:07Z</time>
      </trkpt>
      <trkpt lat="42.149733" lon="-7.760297">
        <ele>647.216</ele>
        <time>2019-06-22T12:01:08Z</time>
      </trkpt>
      <trkpt lat="42.149574" lon="-7.760482">
        <ele>646.588</ele>
        <time>2019-06-22T12:01:09Z</time>
      </trkpt>
      <trkpt lat="42.149406" lon="-7.760652">
        <ele>645.956</ele>
        <time>2019-06-22T12:01:10Z</time>
      </trkpt>
      <trkpt lat="42.149229" lon="-7.760813">
        <ele>644.285</ele>
        <time>2019-06-22T12:01:11Z</time>
      </trkpt>
      <trkpt lat="42.149043" lon="-7.760982">
        <ele>643.770</ele>
        <time>2019-06-22T12:01:12Z</time>
      </trkpt>
      <trkpt lat="42.148846" lon="-7.761140">
        <ele>643.073</ele>
        <time>2019-06-22T12:01:13Z</time>
      </trkpt>
      <trkpt lat="42.148652" lon="-7.761298">
        <ele>642.563</ele>
        <time>2019-06-22T12:01:14Z</time>
      </trkpt>
      <trkpt lat="42.148429" lon="-7.761389">
        <ele>640.444</ele>
        <time>2019-06-22T12:01:15Z</time>
      </trkpt>
      <trkpt lat="42.148222" lon="-7.761523">
        <ele>639.318</ele>
        <time>2019-06-22T12:01:16Z</time>
      </trkpt>
      <trkpt lat="42.148013" lon="-7.761640">
        <ele>638.708</ele>
        <time>2019-06-22T12:01:17Z</time>
      </trkpt>
      <trkpt lat="42.147801" lon="-7.761761">
        <ele>638.789</ele>
        <time>2019-06-22T12:01:18Z</time>
      </trkpt>
      <trkpt lat="42.147598" lon="-7.761874">
        <ele>638.863</ele>
        <time>2019-06-22T12:01:19Z</time>
      </trkpt>
      <trkpt lat="42.147394" lon="-7.761983">
        <ele>638.825</ele>
        <time>2019-06-22T12:01:20Z</time>
      </trkpt>
      <trkpt lat="42.147178" lon="-7.762080">
        <ele>640.037</ele>
        <time>2019-06-22T12:01:21Z</time>
      </trkpt>
      <trkpt lat="42.146962" lon="-7.762176">
        <ele>641.095</ele>
        <time>2019-06-22T12:01:22Z</time>
      </trkpt>
      <trkpt lat="42.146721" lon="-7.762255">
        <ele>641.014</ele>
        <time>2019-06-22T12:01:23Z</time>
      </trkpt>
      <trkpt lat="42.146495" lon="-7.762341">
        <ele>639.979</ele>
        <time>2019-06-22T12:01:24Z</time>
      </trkpt>
      <trkpt lat="42.146260" lon="-7.762406">
        <ele>637.352</ele>
        <time>2019-06-22T12:01:25Z</time>
      </trkpt>
      <trkpt lat="42.146033" lon="-7.762476">
        <ele>634.747</ele>
        <time>2019-06-22T12:01:26Z</time>
      </trkpt>
      <trkpt lat="42.145807" lon="-7.762535">
        <ele>633.129</ele>
        <time>2019-06-22T12:01:27Z</time>
      </trkpt>
      <trkpt lat="42.145580" lon="-7.762565">
        <ele>630.721</ele>
        <time>2019-06-22T12:01:28Z</time>
      </trkpt>
      <trkpt lat="42.145350" lon="-7.762596">
        <ele>630.708</ele>
        <time>2019-06-22T12:01:29Z</time>
      </trkpt>
      <trkpt lat="42.145143" lon="-7.762616">
        <ele>631.087</ele>
        <time>2019-06-22T12:01:30Z</time>
      </trkpt>
      <trkpt lat="42.144920" lon="-7.762617">
        <ele>631.081</ele>
        <time>2019-06-22T12:01:31Z</time>
      </trkpt>
      <trkpt lat="42.144706" lon="-7.762599">
        <ele>630.443</ele>
        <time>2019-06-22T12:01:32Z</time>
      </trkpt>
      <trkpt lat="42.144488" lon="-7.762592">
        <ele>630.475</ele>
        <time>2019-06-22T12:01:33Z</time>
      </trkpt>
      <trkpt lat="42.144278" lon="-7.762544">
        <ele>630.493</ele>
        <time>2019-06-22T12:01:34Z</time>
      </trkpt>
      <trkpt lat="42.144059" lon="-7.762514">
        <ele>630.192</ele>
        <time>2019-06-22T12:01:35Z</time>
      </trkpt>
      <trkpt lat="42.143850" lon="-7.762430">
        <ele>629.347</ele>
        <time>2019-06-22T12:01:36Z</time>
      </trkpt>
      <trkpt lat="42.143632" lon="-7.762361">
        <ele>628.950</ele>
        <time>2019-06-22T12:01:37Z</time>
      </trkpt>
      <trkpt lat="42.143427" lon="-7.762288">
        <ele>628.414</ele>
        <time>2019-06-22T12:01:38Z</time>
      </trkpt>
      <trkpt lat="42.143224" lon="-7.762203">
        <ele>626.354</ele>
        <time>2019-06-22T12:01:39Z</time>
      </trkpt>
      <trkpt lat="42.143050" lon="-7.762131">
        <ele>625.709</ele>
        <time>2019-06-22T12:01:40Z</time>
      </trkpt>
      <trkpt lat="42.142858" lon="-7.762033">
        <ele>625.408</ele>
        <time>2019-06-22T12:01:41Z</time>
      </trkpt>
      <trkpt lat="42.142684" lon="-7.761922">
        <ele>625.794</ele>
        <time>2019-06-22T12:01:42Z</time>
      </trkpt>
      <trkpt lat="42.142526" lon="-7.761826">
        <ele>626.048</ele>
        <time>2019-06-22T12:01:43Z</time>
      </trkpt>
      <trkpt lat="42.142370" lon="-7.761723">
        <ele>627.230</ele>
        <time>2019-06-22T12:01:44Z</time>
      </trkpt>
      <trkpt lat="42.142213" lon="-7.761597">
        <ele>627.282</ele>
        <time>2019-06-22T12:01:45Z</time>
      </trkpt>
      <trkpt lat="42.142063" lon="-7.761471">
        <ele>626.560</ele>
        <time>2019-06-22T12:01:46Z</time>
      </trkpt>
      <trkpt lat="42.141928" lon="-7.761345">
        <ele>625.789</ele>
        <time>2019-06-22T12:01:47Z</time>
      </trkpt>
      <trkpt lat="42.141784" lon="-7.761192">
        <ele>624.734</ele>
        <time>2019-06-22T12:01:48Z</time>
      </trkpt>
      <trkpt lat="42.141648" lon="-7.761055">
        <ele>623.467</ele>
        <time>2019-06-22T12:01:49Z</time>
      </trkpt>
      <trkpt lat="42.141517" lon="-7.760910">
        <ele>622.384</ele>
        <time>2019-06-22T12:01:50Z</time>
      </trkpt>
      <trkpt lat="42.141394" lon="-7.760780">
        <ele>621.607</ele>
        <time>2019-06-22T12:01:51Z</time>
      </trkpt>
      <trkpt lat="42.141271" lon="-7.760660">
        <ele>621.617</ele>
        <time>2019-06-22T12:01:52Z</time>
      </trkpt>
      <trkpt lat="42.141140" lon="-7.760534">
        <ele>622.208</ele>
        <time>2019-06-22T12:01:53Z</time>
      </trkpt>
      <trkpt lat="42.141013" lon="-7.760409">
        <ele>623.151</ele>
        <time>2019-06-22T12:01:54Z</time>
      </trkpt>
      <trkpt lat="42.140881" lon="-7.760279">
        <ele>624.945</ele>
        <time>2019-06-22T12:01:55Z</time>
      </trkpt>
      <trkpt lat="42.140757" lon="-7.760180">
        <ele>626.127</ele>
        <time>2019-06-22T12:01:56Z</time>
      </trkpt>
      <trkpt lat="42.140620" lon="-7.760056">
        <ele>626.689</ele>
        <time>2019-06-22T12:01:57Z</time>
      </trkpt>
      <trkpt lat="42.140484" lon="-7.759938">
        <ele>626.687</ele>
        <time>2019-06-22T12:01:58Z</time>
      </trkpt>
      <trkpt lat="42.140332" lon="-7.759829">
        <ele>625.966</ele>
        <time>2019-06-22T12:01:59Z</time>
      </trkpt>
      <trkpt lat="42.140179" lon="-7.759719">
        <ele>625.641</ele>
        <time>2019-06-22T12:02:00Z</time>
      </trkpt>
      <trkpt lat="42.140019" lon="-7.759601">
        <ele>625.174</ele>
        <time>2019-06-22T12:02:01Z</time>
      </trkpt>
      <trkpt lat="42.139856" lon="-7.759496">
        <ele>623.791</ele>
        <time>2019-06-22T12:02:02Z</time>
      </trkpt>
      <trkpt lat="42.139687" lon="-7.759378">
        <ele>622.581</ele>
        <time>2019-06-22T12:02:03Z</time>
      </trkpt>
      <trkpt lat="42.139521" lon="-7.759271">
        <ele>621.319</ele>
        <time>2019-06-22T12:02:04Z</time>
      </trkpt>
      <trkpt lat="42.139350" lon="-7.759167">
        <ele>620.608</ele>
        <time>2019-06-22T12:02:05Z</time>
      </trkpt>
      <trkpt lat="42.139178" lon="-7.759052">
        <ele>619.742</ele>
        <time>2019-06-22T12:02:06Z</time>
      </trkpt>
      <trkpt lat="42.139010" lon="-7.758938">
        <ele>619.676</ele>
        <time>2019-06-22T12:02:07Z</time>
      </trkpt>
      <trkpt lat="42.138847" lon="-7.758835">
        <ele>618.668</ele>
        <time>2019-06-22T12:02:08Z</time>
      </trkpt>
      <trkpt lat="42.138676" lon="-7.758722">
        <ele>618.120</ele>
        <time>2019-06-22T12:02:09Z</time>
      </trkpt>
      <trkpt lat="42.138501" lon="-7.758616">
        <ele>617.968</ele>
        <time>2019-06-22T12:02:10Z</time>
      </trkpt>
      <trkpt lat="42.138323" lon="-7.758506">
        <ele>617.667</ele>
        <time>2019-06-22T12:02:11Z</time>
      </trkpt>
      <trkpt lat="42.138145" lon="-7.758392">
        <ele>617.682</ele>
        <time>2019-06-22T12:02:12Z</time>
      </trkpt>
      <trkpt lat="42.137961" lon="-7.758287">
        <ele>618.225</ele>
        <time>2019-06-22T12:02:13Z</time>
      </trkpt>
      <trkpt lat="42.137788" lon="-7.758186">
        <ele>618.267</ele>
        <time>2019-06-22T12:02:14Z</time>
      </trkpt>
      <trkpt lat="42.137610" lon="-7.758073">
        <ele>617.681</ele>
        <time>2019-06-22T12:02:15Z</time>
      </trkpt>
      <trkpt lat="42.137442" lon="-7.757961">
        <ele>616.319</ele>
        <time>2019-06-22T12:02:16Z</time>
      </trkpt>
      <trkpt lat="42.137276" lon="-7.757844">
        <ele>616.308</ele>
        <time>2019-06-22T12:02:17Z</time>
      </trkpt>
      <trkpt lat="42.137115" lon="-7.757722">
        <ele>616.319</ele>
        <time>2019-06-22T12:02:18Z</time>
      </trkpt>
      <trkpt lat="42.136947" lon="-7.757616">
        <ele>616.383</ele>
        <time>2019-06-22T12:02:19Z</time>
      </trkpt>
      <trkpt lat="42.136782" lon="-7.757505">
        <ele>616.495</ele>
        <time>2019-06-22T12:02:20Z</time>
      </trkpt>
      <trkpt lat="42.136616" lon="-7.757391">
        <ele>616.587</ele>
        <time>2019-06-22T12:02:21Z</time>
      </trkpt>
      <trkpt lat="42.136461" lon="-7.757292">
        <ele>616.435</ele>
        <time>2019-06-22T12:02:22Z</time>
      </trkpt>
      <trkpt lat="42.136301" lon="-7.757173">
        <ele>615.994</ele>
        <time>2019-06-22T12:02:23Z</time>
      </trkpt>
      <trkpt lat="42.136131" lon="-7.757074">
        <ele>615.389</ele>
        <time>2019-06-22T12:02:24Z</time>
      </trkpt>
      <trkpt lat="42.135949" lon="-7.756959">
        <ele>614.532</ele>
        <time>2019-06-22T12:02:25Z</time>
      </trkpt>
      <trkpt lat="42.135768" lon="-7.756850">
        <ele>614.557</ele>
        <time>2019-06-22T12:02:26Z</time>
      </trkpt>
      <trkpt lat="42.135589" lon="-7.756733">
        <ele>614.600</ele>
        <time>2019-06-22T12:02:27Z</time>
      </trkpt>
      <trkpt lat="42.135395" lon="-7.756611">
        <ele>615.320</ele>
        <time>2019-06-22T12:02:28Z</time>
      </trkpt>
      <trkpt lat="42.135203" lon="-7.756489">
        <ele>616.408</ele>
        <time>2019-06-22T12:02:29Z</time>
      </trkpt>
      <trkpt lat="42.135011" lon="-7.756374">
        <ele>617.598</ele>
        <time>2019-06-22T12:02:30Z</time>
      </trkpt>
      <trkpt lat="42.134802" lon="-7.756244">
        <ele>617.612</ele>
        <time>2019-06-22T12:02:31Z</time>
      </trkpt>
      <trkpt lat="42.134599" lon="-7.756109">
        <ele>617.724</ele>
        <time>2019-06-22T12:02:32Z</time>
      </trkpt>
      <trkpt lat="42.134391" lon="-7.755972">
        <ele>617.736</ele>
        <time>2019-06-22T12:02:33Z</time>
      </trkpt>
      <trkpt lat="42.134216" lon="-7.755858">
        <ele>617.444</ele>
        <time>2019-06-22T12:02:34Z</time>
      </trkpt>
      <trkpt lat="42.134015" lon="-7.755716">
        <ele>616.823</ele>
        <time>2019-06-22T12:02:35Z</time>
      </trkpt>
      <trkpt lat="42.133812" lon="-7.755577">
        <ele>616.648</ele>
        <time>2019-06-22T12:02:36Z</time>
      </trkpt>
      <trkpt lat="42.133601" lon="-7.755446">
        <ele>616.691</ele>
        <time>2019-06-22T12:02:37Z</time>
      </trkpt>
      <trkpt lat="42.133392" lon="-7.755308">
        <ele>617.495</ele>
        <time>2019-06-22T12:02:38Z</time>
      </trkpt>
      <trkpt lat="42.133166" lon="-7.755172">
        <ele>617.849</ele>
        <time>2019-06-22T12:02:39Z</time>
      </trkpt>
      <trkpt lat="42.132969" lon="-7.755048">
        <ele>618.623</ele>
        <time>2019-06-22T12:02:40Z</time>
      </trkpt>
      <trkpt lat="42.132761" lon="-7.754909">
        <ele>619.708</ele>
        <time>2019-06-22T12:02:41Z</time>
      </trkpt>
      <trkpt lat="42.132549" lon="-7.754776">
        <ele>619.972</ele>
        <time>2019-06-22T12:02:42Z</time>
      </trkpt>
      <trkpt lat="42.132345" lon="-7.754663">
        <ele>620.156</ele>
        <time>2019-06-22T12:02:43Z</time>
      </trkpt>
      <trkpt lat="42.132131" lon="-7.754524">
        <ele>620.368</ele>
        <time>2019-06-22T12:02:44Z</time>
      </trkpt>
      <trkpt lat="42.131921" lon="-7.754386">
        <ele>620.540</ele>
        <time>2019-06-22T12:02:45Z</time>
      </trkpt>
      <trkpt lat="42.131708" lon="-7.754254">
        <ele>620.998</ele>
        <time>2019-06-22T12:02:46Z</time>
      </trkpt>
      <trkpt lat="42.131497" lon="-7.754126">
        <ele>621.537</ele>
        <time>2019-06-22T12:02:47Z</time>
      </trkpt>
      <trkpt lat="42.131283" lon="-7.753992">
        <ele>621.522</ele>
        <time>2019-06-22T12:02:48Z</time>
      </trkpt>
      <trkpt lat="42.131078" lon="-7.753861">
        <ele>621.365</ele>
        <time>2019-06-22T12:02:49Z</time>
      </trkpt>
      <trkpt lat="42.130868" lon="-7.753723">
        <ele>621.299</ele>
        <time>2019-06-22T12:02:50Z</time>
      </trkpt>
      <trkpt lat="42.130661" lon="-7.753600">
        <ele>620.807</ele>
        <time>2019-06-22T12:02:51Z</time>
      </trkpt>
      <trkpt lat="42.130468" lon="-7.753483">
        <ele>620.627</ele>
        <time>2019-06-22T12:02:52Z</time>
      </trkpt>
      <trkpt lat="42.130281" lon="-7.753374">
        <ele>620.608</ele>
        <time>2019-06-22T12:02:53Z</time>
      </trkpt>
      <trkpt lat="42.130086" lon="-7.753242">
        <ele>621.242</ele>
        <time>2019-06-22T12:02:54Z</time>
      </trkpt>
      <trkpt lat="42.129901" lon="-7.753151">
        <ele>623.126</ele>
        <time>2019-06-22T12:02:55Z</time>
      </trkpt>
      <trkpt lat="42.129716" lon="-7.753069">
        <ele>623.948</ele>
        <time>2019-06-22T12:02:56Z</time>
      </trkpt>
      <trkpt lat="42.129515" lon="-7.753020">
        <ele>626.030</ele>
        <time>2019-06-22T12:02:57Z</time>
      </trkpt>
      <trkpt lat="42.129320" lon="-7.752998">
        <ele>627.958</ele>
        <time>2019-06-22T12:02:58Z</time>
      </trkpt>
      <trkpt lat="42.129118" lon="-7.752993">
        <ele>630.857</ele>
        <time>2019-06-22T12:02:59Z</time>
      </trkpt>
      <trkpt lat="42.128912" lon="-7.753007">
        <ele>632.752</ele>
        <time>2019-06-22T12:03:00Z</time>
      </trkpt>
      <trkpt lat="42.128702" lon="-7.753048">
        <ele>635.325</ele>
        <time>2019-06-22T12:03:01Z</time>
      </trkpt>
      <trkpt lat="42.128487" lon="-7.753112">
        <ele>637.078</ele>
        <time>2019-06-22T12:03:02Z</time>
      </trkpt>
      <trkpt lat="42.128264" lon="-7.753191">
        <ele>637.933</ele>
        <time>2019-06-22T12:03:03Z</time>
      </trkpt>
      <trkpt lat="42.128048" lon="-7.753275">
        <ele>637.926</ele>
        <time>2019-06-22T12:03:04Z</time>
      </trkpt>
      <trkpt lat="42.127834" lon="-7.753361">
        <ele>637.508</ele>
        <time>2019-06-22T12:03:05Z</time>
      </trkpt>
      <trkpt lat="42.127615" lon="-7.753448">
        <ele>637.130</ele>
        <time>2019-06-22T12:03:06Z</time>
      </trkpt>
      <trkpt lat="42.127399" lon="-7.753524">
        <ele>636.114</ele>
        <time>2019-06-22T12:03:07Z</time>
      </trkpt>
      <trkpt lat="42.127181" lon="-7.753589">
        <ele>635.446</ele>
        <time>2019-06-22T12:03:08Z</time>
      </trkpt>
      <trkpt lat="42.126962" lon="-7.753661">
        <ele>635.458</ele>
        <time>2019-06-22T12:03:09Z</time>
      </trkpt>
      <trkpt lat="42.126745" lon="-7.753712">
        <ele>636.356</ele>
        <time>2019-06-22T12:03:10Z</time>
      </trkpt>
      <trkpt lat="42.126517" lon="-7.753764">
        <ele>637.385</ele>
        <time>2019-06-22T12:03:11Z</time>
      </trkpt>
      <trkpt lat="42.126296" lon="-7.753808">
        <ele>638.120</ele>
        <time>2019-06-22T12:03:12Z</time>
      </trkpt>
      <trkpt lat="42.126063" lon="-7.753823">
        <ele>640.173</ele>
        <time>2019-06-22T12:03:13Z</time>
      </trkpt>
      <trkpt lat="42.125830" lon="-7.753823">
        <ele>640.843</ele>
        <time>2019-06-22T12:03:14Z</time>
      </trkpt>
      <trkpt lat="42.125596" lon="-7.753814">
        <ele>640.864</ele>
        <time>2019-06-22T12:03:15Z</time>
      </trkpt>
      <trkpt lat="42.125364" lon="-7.753797">
        <ele>640.810</ele>
        <time>2019-06-22T12:03:16Z</time>
      </trkpt>
      <trkpt lat="42.125118" lon="-7.753760">
        <ele>640.708</ele>
        <time>2019-06-22T12:03:17Z</time>
      </trkpt>
      <trkpt lat="42.124874" lon="-7.753732">
        <ele>639.287</ele>
        <time>2019-06-22T12:03:18Z</time>
      </trkpt>
      <trkpt lat="42.124630" lon="-7.753701">
        <ele>637.291</ele>
        <time>2019-06-22T12:03:19Z</time>
      </trkpt>
      <trkpt lat="42.124402" lon="-7.753656">
        <ele>635.713</ele>
        <time>2019-06-22T12:03:20Z</time>
      </trkpt>
      <trkpt lat="42.124188" lon="-7.753629">
        <ele>634.245</ele>
        <time>2019-06-22T12:03:21Z</time>
      </trkpt>
      <trkpt lat="42.123972" lon="-7.753592">
        <ele>631.023</ele>
        <time>2019-06-22T12:03:22Z</time>
      </trkpt>
      <trkpt lat="42.123757" lon="-7.753581">
        <ele>629.782</ele>
        <time>2019-06-22T12:03:23Z</time>
      </trkpt>
      <trkpt lat="42.123549" lon="-7.753556">
        <ele>629.327</ele>
        <time>2019-06-22T12:03:24Z</time>
      </trkpt>
      <trkpt lat="42.123349" lon="-7.753524">
        <ele>628.680</ele>
        <time>2019-06-22T12:03:25Z</time>
      </trkpt>
      <trkpt lat="42.123147" lon="-7.753503">
        <ele>628.668</ele>
        <time>2019-06-22T12:03:26Z</time>
      </trkpt>
      <trkpt lat="42.122953" lon="-7.753496">
        <ele>629.642</ele>
        <time>2019-06-22T12:03:27Z</time>
      </trkpt>
      <trkpt lat="42.122772" lon="-7.753487">
        <ele>629.626</ele>
        <time>2019-06-22T12:03:28Z</time>
      </trkpt>
      <trkpt lat="42.122591" lon="-7.753520">
        <ele>629.608</ele>
        <time>2019-06-22T12:03:29Z</time>
      </trkpt>
      <trkpt lat="42.122412" lon="-7.753553">
        <ele>628.799</ele>
        <time>2019-06-22T12:03:30Z</time>
      </trkpt>
      <trkpt lat="42.122227" lon="-7.753641">
        <ele>627.453</ele>
        <time>2019-06-22T12:03:31Z</time>
      </trkpt>
      <trkpt lat="42.122045" lon="-7.753747">
        <ele>626.385</ele>
        <time>2019-06-22T12:03:32Z</time>
      </trkpt>
      <trkpt lat="42.121876" lon="-7.753901">
        <ele>626.357</ele>
        <time>2019-06-22T12:03:33Z</time>
      </trkpt>
      <trkpt lat="42.121704" lon="-7.754061">
        <ele>626.745</ele>
        <time>2019-06-22T12:03:34Z</time>
      </trkpt>
      <trkpt lat="42.121535" lon="-7.754235">
        <ele>627.444</ele>
        <time>2019-06-22T12:03:35Z</time>
      </trkpt>
      <trkpt lat="42.121358" lon="-7.754430">
        <ele>627.659</ele>
        <time>2019-06-22T12:03:36Z</time>
      </trkpt>
      <trkpt lat="42.121198" lon="-7.754642">
        <ele>627.672</ele>
        <time>2019-06-22T12:03:37Z</time>
      </trkpt>
      <trkpt lat="42.121029" lon="-7.754857">
        <ele>627.569</ele>
        <time>2019-06-22T12:03:38Z</time>
      </trkpt>
      <trkpt lat="42.120864" lon="-7.755061">
        <ele>626.804</ele>
        <time>2019-06-22T12:03:39Z</time>
      </trkpt>
      <trkpt lat="42.120692" lon="-7.755273">
        <ele>625.424</ele>
        <time>2019-06-22T12:03:40Z</time>
      </trkpt>
      <trkpt lat="42.120508" lon="-7.755497">
        <ele>623.908</ele>
        <time>2019-06-22T12:03:41Z</time>
      </trkpt>
      <trkpt lat="42.120332" lon="-7.755705">
        <ele>623.049</ele>
        <time>2019-06-22T12:03:42Z</time>
      </trkpt>
      <trkpt lat="42.120169" lon="-7.755908">
        <ele>621.273</ele>
        <time>2019-06-22T12:03:43Z</time>
      </trkpt>
      <trkpt lat="42.119998" lon="-7.756085">
        <ele>619.535</ele>
        <time>2019-06-22T12:03:44Z</time>
      </trkpt>
      <trkpt lat="42.119811" lon="-7.756248">
        <ele>619.427</ele>
        <time>2019-06-22T12:03:45Z</time>
      </trkpt>
      <trkpt lat="42.119627" lon="-7.756401">
        <ele>619.485</ele>
        <time>2019-06-22T12:03:46Z</time>
      </trkpt>
      <trkpt lat="42.119427" lon="-7.756533">
        <ele>619.734</ele>
        <time>2019-06-22T12:03:47Z</time>
      </trkpt>
      <trkpt lat="42.119226" lon="-7.756654">
        <ele>620.639</ele>
        <time>2019-06-22T12:03:48Z</time>
      </trkpt>
      <trkpt lat="42.119009" lon="-7.756723">
        <ele>621.242</ele>
        <time>2019-06-22T12:03:49Z</time>
      </trkpt>
      <trkpt lat="42.118791" lon="-7.756790">
        <ele>621.239</ele>
        <time>2019-06-22T12:03:50Z</time>
      </trkpt>
      <trkpt lat="42.118566" lon="-7.756837">
        <ele>621.101</ele>
        <time>2019-06-22T12:03:51Z</time>
      </trkpt>
      <trkpt lat="42.118341" lon="-7.756875">
        <ele>619.721</ele>
        <time>2019-06-22T12:03:52Z</time>
      </trkpt>
      <trkpt lat="42.118121" lon="-7.756898">
        <ele>617.808</ele>
        <time>2019-06-22T12:03:53Z</time>
      </trkpt>
      <trkpt lat="42.117899" lon="-7.756903">
        <ele>616.816</ele>
        <time>2019-06-22T12:03:54Z</time>
      </trkpt>
      <trkpt lat="42.117694" lon="-7.756906">
        <ele>615.050</ele>
        <time>2019-06-22T12:03:55Z</time>
      </trkpt>
      <trkpt lat="42.117488" lon="-7.756907">
        <ele>613.282</ele>
        <time>2019-06-22T12:03:56Z</time>
      </trkpt>
      <trkpt lat="42.117290" lon="-7.756914">
        <ele>613.264</ele>
        <time>2019-06-22T12:03:57Z</time>
      </trkpt>
      <trkpt lat="42.117097" lon="-7.756923">
        <ele>614.032</ele>
        <time>2019-06-22T12:03:58Z</time>
      </trkpt>
      <trkpt lat="42.116909" lon="-7.756920">
        <ele>614.811</ele>
        <time>2019-06-22T12:03:59Z</time>
      </trkpt>
      <trkpt lat="42.116728" lon="-7.756923">
        <ele>616.396</ele>
        <time>2019-06-22T12:04:00Z</time>
      </trkpt>
      <trkpt lat="42.116549" lon="-7.756934">
        <ele>617.299</ele>
        <time>2019-06-22T12:04:01Z</time>
      </trkpt>
      <trkpt lat="42.116370" lon="-7.756942">
        <ele>618.793</ele>
        <time>2019-06-22T12:04:02Z</time>
      </trkpt>
      <trkpt lat="42.116204" lon="-7.756952">
        <ele>619.365</ele>
        <time>2019-06-22T12:04:03Z</time>
      </trkpt>
      <trkpt lat="42.116037" lon="-7.756951">
        <ele>619.321</ele>
        <time>2019-06-22T12:04:04Z</time>
      </trkpt>
      <trkpt lat="42.115881" lon="-7.756950">
        <ele>619.008</ele>
        <time>2019-06-22T12:04:05Z</time>
      </trkpt>
      <trkpt lat="42.115713" lon="-7.756951">
        <ele>618.992</ele>
        <time>2019-06-22T12:04:06Z</time>
      </trkpt>
      <trkpt lat="42.115541" lon="-7.756958">
        <ele>618.956</ele>
        <time>2019-06-22T12:04:07Z</time>
      </trkpt>
      <trkpt lat="42.115377" lon="-7.756968">
        <ele>618.848</ele>
        <time>2019-06-22T12:04:08Z</time>
      </trkpt>
      <trkpt lat="42.115218" lon="-7.756977">
        <ele>618.810</ele>
        <time>2019-06-22T12:04:09Z</time>
      </trkpt>
      <trkpt lat="42.115056" lon="-7.756976">
        <ele>619.448</ele>
        <time>2019-06-22T12:04:10Z</time>
      </trkpt>
      <trkpt lat="42.114908" lon="-7.756974">
        <ele>619.447</ele>
        <time>2019-06-22T12:04:11Z</time>
      </trkpt>
      <trkpt lat="42.114758" lon="-7.756978">
        <ele>619.442</ele>
        <time>2019-06-22T12:04:12Z</time>
      </trkpt>
      <trkpt lat="42.114624" lon="-7.756986">
        <ele>619.425</ele>
        <time>2019-06-22T12:04:13Z</time>
      </trkpt>
      <trkpt lat="42.114478" lon="-7.756986">
        <ele>619.441</ele>
        <time>2019-06-22T12:04:14Z</time>
      </trkpt>
      <trkpt lat="42.114330" lon="-7.756996">
        <ele>620.281</ele>
        <time>2019-06-22T12:04:15Z</time>
      </trkpt>
      <trkpt lat="42.114187" lon="-7.757001">
        <ele>620.209</ele>
        <time>2019-06-22T12:04:16Z</time>
      </trkpt>
      <trkpt lat="42.114048" lon="-7.757008">
        <ele>620.408</ele>
        <time>2019-06-22T12:04:17Z</time>
      </trkpt>
      <trkpt lat="42.113903" lon="-7.757007">
        <ele>622.257</ele>
        <time>2019-06-22T12:04:18Z</time>
      </trkpt>
      <trkpt lat="42.113770" lon="-7.757019">
        <ele>623.191</ele>
        <time>2019-06-22T12:04:19Z</time>
      </trkpt>
      <trkpt lat="42.113643" lon="-7.757028">
        <ele>623.733</ele>
        <time>2019-06-22T12:04:20Z</time>
      </trkpt>
      <trkpt lat="42.113518" lon="-7.757040">
        <ele>624.525</ele>
        <time>2019-06-22T12:04:21Z</time>
      </trkpt>
      <trkpt lat="42.113383" lon="-7.757060">
        <ele>625.913</ele>
        <time>2019-06-22T12:04:22Z</time>
      </trkpt>
      <trkpt lat="42.113256" lon="-7.757083">
        <ele>626.562</ele>
        <time>2019-06-22T12:04:23Z</time>
      </trkpt>
      <trkpt lat="42.113121" lon="-7.757110">
        <ele>626.587</ele>
        <time>2019-06-22T12:04:24Z</time>
      </trkpt>
      <trkpt lat="42.112980" lon="-7.757159">
        <ele>626.440</ele>
        <time>2019-06-22T12:04:25Z</time>
      </trkpt>
      <trkpt lat="42.112834" lon="-7.757203">
        <ele>626.226</ele>
        <time>2019-06-22T12:04:26Z</time>
      </trkpt>
      <trkpt lat="42.112687" lon="-7.757255">
        <ele>626.247</ele>
        <time>2019-06-22T12:04:27Z</time>
      </trkpt>
      <trkpt lat="42.112535" lon="-7.757312">
        <ele>626.311</ele>
        <time>2019-06-22T12:04:28Z</time>
      </trkpt>
      <trkpt lat="42.112376" lon="-7.757368">
        <ele>626.908</ele>
        <time>2019-06-22T12:04:29Z</time>
      </trkpt>
      <trkpt lat="42.112216" lon="-7.757418">
        <ele>627.535</ele>
        <time>2019-06-22T12:04:30Z</time>
      </trkpt>
      <trkpt lat="42.112049" lon="-7.757471">
        <ele>628.199</ele>
        <time>2019-06-22T12:04:31Z</time>
      </trkpt>
      <trkpt lat="42.111881" lon="-7.757536">
        <ele>628.111</ele>
        <time>2019-06-22T12:04:32Z</time>
      </trkpt>
      <trkpt lat="42.111707" lon="-7.757606">
        <ele>627.593</ele>
        <time>2019-06-22T12:04:33Z</time>
      </trkpt>
      <trkpt lat="42.111536" lon="-7.757673">
        <ele>627.351</ele>
        <time>2019-06-22T12:04:34Z</time>
      </trkpt>
      <trkpt lat="42.111359" lon="-7.757736">
        <ele>627.340</ele>
        <time>2019-06-22T12:04:35Z</time>
      </trkpt>
      <trkpt lat="42.111182" lon="-7.757794">
        <ele>627.425</ele>
        <time>2019-06-22T12:04:36Z</time>
      </trkpt>
      <trkpt lat="42.111010" lon="-7.757852">
        <ele>628.838</ele>
        <time>2019-06-22T12:04:37Z</time>
      </trkpt>
      <trkpt lat="42.110846" lon="-7.757903">
        <ele>629.626</ele>
        <time>2019-06-22T12:04:38Z</time>
      </trkpt>
      <trkpt lat="42.110689" lon="-7.757944">
        <ele>629.747</ele>
        <time>2019-06-22T12:04:39Z</time>
      </trkpt>
      <trkpt lat="42.110526" lon="-7.757998">
        <ele>630.911</ele>
        <time>2019-06-22T12:04:40Z</time>
      </trkpt>
      <trkpt lat="42.110365" lon="-7.758041">
        <ele>631.508</ele>
        <time>2019-06-22T12:04:41Z</time>
      </trkpt>
      <trkpt lat="42.110212" lon="-7.758080">
        <ele>631.735</ele>
        <time>2019-06-22T12:04:42Z</time>
      </trkpt>
      <trkpt lat="42.110058" lon="-7.758068">
        <ele>632.059</ele>
        <time>2019-06-22T12:04:43Z</time>
      </trkpt>
      <trkpt lat="42.109913" lon="-7.758065">
        <ele>632.511</ele>
        <time>2019-06-22T12:04:44Z</time>
      </trkpt>
      <trkpt lat="42.109785" lon="-7.758046">
        <ele>632.653</ele>
        <time>2019-06-22T12:04:45Z</time>
      </trkpt>
      <trkpt lat="42.109672" lon="-7.758027">
        <ele>632.521</ele>
        <time>2019-06-22T12:04:46Z</time>
      </trkpt>
      <trkpt lat="42.109569" lon="-7.757986">
        <ele>632.650</ele>
        <time>2019-06-22T12:04:47Z</time>
      </trkpt>
      <trkpt lat="42.109479" lon="-7.757954">
        <ele>632.955</ele>
        <time>2019-06-22T12:04:48Z</time>
      </trkpt>
      <trkpt lat="42.109409" lon="-7.757928">
        <ele>633.088</ele>
        <time>2019-06-22T12:04:49Z</time>
      </trkpt>
      <trkpt lat="42.109356" lon="-7.757904">
        <ele>633.617</ele>
        <time>2019-06-22T12:04:50Z</time>
      </trkpt>
      <trkpt lat="42.109311" lon="-7.757892">
        <ele>633.887</ele>
        <time>2019-06-22T12:04:51Z</time>
      </trkpt>
      <trkpt lat="42.109263" lon="-7.757877">
        <ele>633.915</ele>
        <time>2019-06-22T12:04:53Z</time>
      </trkpt>
      <trkpt lat="42.109199" lon="-7.757866">
        <ele>633.708</ele>
        <time>2019-06-22T12:05:03Z</time>
      </trkpt>
      <trkpt lat="42.109134" lon="-7.757820">
        <ele>633.794</ele>
        <time>2019-06-22T12:05:04Z</time>
      </trkpt>
      <trkpt lat="42.109061" lon="-7.757758">
        <ele>633.748</ele>
        <time>2019-06-22T12:05:05Z</time>
      </trkpt>
      <trkpt lat="42.108988" lon="-7.757685">
        <ele>633.730</ele>
        <time>2019-06-22T12:05:06Z</time>
      </trkpt>
      <trkpt lat="42.108906" lon="-7.757611">
        <ele>633.772</ele>
        <time>2019-06-22T12:05:07Z</time>
      </trkpt>
      <trkpt lat="42.108820" lon="-7.757529">
        <ele>633.720</ele>
        <time>2019-06-22T12:05:08Z</time>
      </trkpt>
      <trkpt lat="42.108732" lon="-7.757431">
        <ele>633.619</ele>
        <time>2019-06-22T12:05:09Z</time>
      </trkpt>
      <trkpt lat="42.108645" lon="-7.757322">
        <ele>633.364</ele>
        <time>2019-06-22T12:05:10Z</time>
      </trkpt>
      <trkpt lat="42.108554" lon="-7.757188">
        <ele>632.957</ele>
        <time>2019-06-22T12:05:11Z</time>
      </trkpt>
      <trkpt lat="42.108462" lon="-7.757032">
        <ele>632.232</ele>
        <time>2019-06-22T12:05:12Z</time>
      </trkpt>
      <trkpt lat="42.108380" lon="-7.756874">
        <ele>631.792</ele>
        <time>2019-06-22T12:05:13Z</time>
      </trkpt>
      <trkpt lat="42.108299" lon="-7.756696">
        <ele>630.611</ele>
        <time>2019-06-22T12:05:14Z</time>
      </trkpt>
      <trkpt lat="42.108220" lon="-7.756517">
        <ele>629.408</ele>
        <time>2019-06-22T12:05:15Z</time>
      </trkpt>
      <trkpt lat="42.108133" lon="-7.756313">
        <ele>628.286</ele>
        <time>2019-06-22T12:05:16Z</time>
      </trkpt>
      <trkpt lat="42.108050" lon="-7.756111">
        <ele>627.620</ele>
        <time>2019-06-22T12:05:17Z</time>
      </trkpt>
      <trkpt lat="42.107949" lon="-7.755865">
        <ele>625.812</ele>
        <time>2019-06-22T12:05:18Z</time>
      </trkpt>
      <trkpt lat="42.107852" lon="-7.755652">
        <ele>624.534</ele>
        <time>2019-06-22T12:05:19Z</time>
      </trkpt>
      <trkpt lat="42.107758" lon="-7.755435">
        <ele>621.912</ele>
        <time>2019-06-22T12:05:20Z</time>
      </trkpt>
      <trkpt lat="42.107624" lon="-7.755270">
        <ele>620.311</ele>
        <time>2019-06-22T12:05:21Z</time>
      </trkpt>
      <trkpt lat="42.107507" lon="-7.755067">
        <ele>618.756</ele>
        <time>2019-06-22T12:05:22Z</time>
      </trkpt>
      <trkpt lat="42.107359" lon="-7.754864">
        <ele>618.779</ele>
        <time>2019-06-22T12:05:23Z</time>
      </trkpt>
      <trkpt lat="42.107156" lon="-7.754703">
        <ele>618.538</ele>
        <time>2019-06-22T12:05:24Z</time>
      </trkpt>
      <trkpt lat="42.107020" lon="-7.754509">
        <ele>618.470</ele>
        <time>2019-06-22T12:05:25Z</time>
      </trkpt>
      <trkpt lat="42.106851" lon="-7.754294">
        <ele>618.417</ele>
        <time>2019-06-22T12:05:26Z</time>
      </trkpt>
      <trkpt lat="42.106705" lon="-7.754126">
        <ele>617.308</ele>
        <time>2019-06-22T12:05:27Z</time>
      </trkpt>
      <trkpt lat="42.106560" lon="-7.753907">
        <ele>615.456</ele>
        <time>2019-06-22T12:05:28Z</time>
      </trkpt>
      <trkpt lat="42.106389" lon="-7.753698">
        <ele>614.520</ele>
        <time>2019-06-22T12:05:29Z</time>
      </trkpt>
      <trkpt lat="42.106224" lon="-7.753488">
        <ele>614.362</ele>
        <time>2019-06-22T12:05:30Z</time>
      </trkpt>
      <trkpt lat="42.106057" lon="-7.753275">
        <ele>613.114</ele>
        <time>2019-06-22T12:05:31Z</time>
      </trkpt>
      <trkpt lat="42.105898" lon="-7.753062">
        <ele>612.692</ele>
        <time>2019-06-22T12:05:32Z</time>
      </trkpt>
      <trkpt lat="42.105739" lon="-7.752854">
        <ele>612.661</ele>
        <time>2019-06-22T12:05:33Z</time>
      </trkpt>
      <trkpt lat="42.105584" lon="-7.752666">
        <ele>613.056</ele>
        <time>2019-06-22T12:05:34Z</time>
      </trkpt>
      <trkpt lat="42.105432" lon="-7.752465">
        <ele>613.739</ele>
        <time>2019-06-22T12:05:35Z</time>
      </trkpt>
      <trkpt lat="42.105275" lon="-7.752264">
        <ele>614.122</ele>
        <time>2019-06-22T12:05:36Z</time>
      </trkpt>
      <trkpt lat="42.105120" lon="-7.752080">
        <ele>615.562</ele>
        <time>2019-06-22T12:05:37Z</time>
      </trkpt>
      <trkpt lat="42.104980" lon="-7.751895">
        <ele>617.508</ele>
        <time>2019-06-22T12:05:38Z</time>
      </trkpt>
      <trkpt lat="42.104843" lon="-7.751711">
        <ele>617.808</ele>
        <time>2019-06-22T12:05:39Z</time>
      </trkpt>
      <trkpt lat="42.104719" lon="-7.751529">
        <ele>618.295</ele>
        <time>2019-06-22T12:05:40Z</time>
      </trkpt>
      <trkpt lat="42.104585" lon="-7.751364">
        <ele>618.359</ele>
        <time>2019-06-22T12:05:41Z</time>
      </trkpt>
      <trkpt lat="42.104477" lon="-7.751199">
        <ele>618.391</ele>
        <time>2019-06-22T12:05:42Z</time>
      </trkpt>
      <trkpt lat="42.104354" lon="-7.751049">
        <ele>617.613</ele>
        <time>2019-06-22T12:05:43Z</time>
      </trkpt>
      <trkpt lat="42.104221" lon="-7.750908">
        <ele>617.691</ele>
        <time>2019-06-22T12:05:44Z</time>
      </trkpt>
      <trkpt lat="42.104095" lon="-7.750765">
        <ele>617.220</ele>
        <time>2019-06-22T12:05:45Z</time>
      </trkpt>
      <trkpt lat="42.103965" lon="-7.750632">
        <ele>617.055</ele>
        <time>2019-06-22T12:05:46Z</time>
      </trkpt>
      <trkpt lat="42.103823" lon="-7.750507">
        <ele>617.278</ele>
        <time>2019-06-22T12:05:47Z</time>
      </trkpt>
      <trkpt lat="42.103688" lon="-7.750401">
        <ele>617.013</ele>
        <time>2019-06-22T12:05:48Z</time>
      </trkpt>
      <trkpt lat="42.103531" lon="-7.750289">
        <ele>616.943</ele>
        <time>2019-06-22T12:05:49Z</time>
      </trkpt>
      <trkpt lat="42.103365" lon="-7.750182">
        <ele>616.607</ele>
        <time>2019-06-22T12:05:50Z</time>
      </trkpt>
      <trkpt lat="42.103186" lon="-7.750068">
        <ele>615.908</ele>
        <time>2019-06-22T12:05:51Z</time>
      </trkpt>
      <trkpt lat="42.103012" lon="-7.749949">
        <ele>614.584</ele>
        <time>2019-06-22T12:05:52Z</time>
      </trkpt>
      <trkpt lat="42.102824" lon="-7.749841">
        <ele>613.288</ele>
        <time>2019-06-22T12:05:53Z</time>
      </trkpt>
      <trkpt lat="42.102638" lon="-7.749713">
        <ele>612.410</ele>
        <time>2019-06-22T12:05:54Z</time>
      </trkpt>
      <trkpt lat="42.102454" lon="-7.749597">
        <ele>611.412</ele>
        <time>2019-06-22T12:05:55Z</time>
      </trkpt>
      <trkpt lat="42.102264" lon="-7.749475">
        <ele>611.120</ele>
        <time>2019-06-22T12:05:56Z</time>
      </trkpt>
      <trkpt lat="42.102074" lon="-7.749363">
        <ele>611.199</ele>
        <time>2019-06-22T12:05:57Z</time>
      </trkpt>
      <trkpt lat="42.101880" lon="-7.749250">
        <ele>611.114</ele>
        <time>2019-06-22T12:05:58Z</time>
      </trkpt>
      <trkpt lat="42.101677" lon="-7.749128">
        <ele>610.657</ele>
        <time>2019-06-22T12:05:59Z</time>
      </trkpt>
      <trkpt lat="42.101466" lon="-7.749016">
        <ele>610.638</ele>
        <time>2019-06-22T12:06:00Z</time>
      </trkpt>
      <trkpt lat="42.101253" lon="-7.748893">
        <ele>611.170</ele>
        <time>2019-06-22T12:06:01Z</time>
      </trkpt>
      <trkpt lat="42.101038" lon="-7.748768">
        <ele>611.117</ele>
        <time>2019-06-22T12:06:02Z</time>
      </trkpt>
      <trkpt lat="42.100823" lon="-7.748637">
        <ele>611.008</ele>
        <time>2019-06-22T12:06:03Z</time>
      </trkpt>
      <trkpt lat="42.100605" lon="-7.748508">
        <ele>609.676</ele>
        <time>2019-06-22T12:06:04Z</time>
      </trkpt>
      <trkpt lat="42.100385" lon="-7.748373">
        <ele>609.650</ele>
        <time>2019-06-22T12:06:05Z</time>
      </trkpt>
      <trkpt lat="42.100165" lon="-7.748241">
        <ele>608.762</ele>
        <time>2019-06-22T12:06:06Z</time>
      </trkpt>
      <trkpt lat="42.099937" lon="-7.748098">
        <ele>607.054</ele>
        <time>2019-06-22T12:06:07Z</time>
      </trkpt>
      <trkpt lat="42.099705" lon="-7.747956">
        <ele>604.472</ele>
        <time>2019-06-22T12:06:08Z</time>
      </trkpt>
      <trkpt lat="42.099473" lon="-7.747820">
        <ele>601.531</ele>
        <time>2019-06-22T12:06:09Z</time>
      </trkpt>
      <trkpt lat="42.099239" lon="-7.747679">
        <ele>601.186</ele>
        <time>2019-06-22T12:06:10Z</time>
      </trkpt>
      <trkpt lat="42.099007" lon="-7.747528">
        <ele>599.929</ele>
        <time>2019-06-22T12:06:11Z</time>
      </trkpt>
      <trkpt lat="42.098773" lon="-7.747392">
        <ele>599.932</ele>
        <time>2019-06-22T12:06:12Z</time>
      </trkpt>
      <trkpt lat="42.098539" lon="-7.747249">
        <ele>600.592</ele>
        <time>2019-06-22T12:06:13Z</time>
      </trkpt>
      <trkpt lat="42.098307" lon="-7.747104">
        <ele>602.411</ele>
        <time>2019-06-22T12:06:14Z</time>
      </trkpt>
      <trkpt lat="42.098075" lon="-7.746963">
        <ele>604.008</ele>
        <time>2019-06-22T12:06:15Z</time>
      </trkpt>
      <trkpt lat="42.097840" lon="-7.746818">
        <ele>604.836</ele>
        <time>2019-06-22T12:06:16Z</time>
      </trkpt>
      <trkpt lat="42.097603" lon="-7.746679">
        <ele>604.880</ele>
        <time>2019-06-22T12:06:17Z</time>
      </trkpt>
      <trkpt lat="42.097371" lon="-7.746541">
        <ele>604.392</ele>
        <time>2019-06-22T12:06:18Z</time>
      </trkpt>
      <trkpt lat="42.097128" lon="-7.746396">
        <ele>603.264</ele>
        <time>2019-06-22T12:06:19Z</time>
      </trkpt>
      <trkpt lat="42.096886" lon="-7.746256">
        <ele>602.412</ele>
        <time>2019-06-22T12:06:20Z</time>
      </trkpt>
      <trkpt lat="42.096647" lon="-7.746112">
        <ele>601.881</ele>
        <time>2019-06-22T12:06:21Z</time>
      </trkpt>
      <trkpt lat="42.096407" lon="-7.745956">
        <ele>601.046</ele>
        <time>2019-06-22T12:06:22Z</time>
      </trkpt>
      <trkpt lat="42.096165" lon="-7.745805">
        <ele>600.379</ele>
        <time>2019-06-22T12:06:23Z</time>
      </trkpt>
      <trkpt lat="42.095921" lon="-7.745664">
        <ele>599.843</ele>
        <time>2019-06-22T12:06:24Z</time>
      </trkpt>
      <trkpt lat="42.095680" lon="-7.745522">
        <ele>598.964</ele>
        <time>2019-06-22T12:06:25Z</time>
      </trkpt>
      <trkpt lat="42.095433" lon="-7.745378">
        <ele>598.010</ele>
        <time>2019-06-22T12:06:26Z</time>
      </trkpt>
      <trkpt lat="42.095188" lon="-7.745232">
        <ele>598.008</ele>
        <time>2019-06-22T12:06:27Z</time>
      </trkpt>
      <trkpt lat="42.094958" lon="-7.745100">
        <ele>600.057</ele>
        <time>2019-06-22T12:06:28Z</time>
      </trkpt>
      <trkpt lat="42.094724" lon="-7.744957">
        <ele>601.611</ele>
        <time>2019-06-22T12:06:29Z</time>
      </trkpt>
      <trkpt lat="42.094496" lon="-7.744833">
        <ele>603.783</ele>
        <time>2019-06-22T12:06:30Z</time>
      </trkpt>
      <trkpt lat="42.094273" lon="-7.744688">
        <ele>604.045</ele>
        <time>2019-06-22T12:06:31Z</time>
      </trkpt>
      <trkpt lat="42.094046" lon="-7.744552">
        <ele>604.843</ele>
        <time>2019-06-22T12:06:32Z</time>
      </trkpt>
      <trkpt lat="42.093816" lon="-7.744418">
        <ele>605.452</ele>
        <time>2019-06-22T12:06:33Z</time>
      </trkpt>
      <trkpt lat="42.093596" lon="-7.744269">
        <ele>605.667</ele>
        <time>2019-06-22T12:06:34Z</time>
      </trkpt>
      <trkpt lat="42.093382" lon="-7.744146">
        <ele>605.990</ele>
        <time>2019-06-22T12:06:35Z</time>
      </trkpt>
      <trkpt lat="42.093155" lon="-7.744011">
        <ele>605.996</ele>
        <time>2019-06-22T12:06:36Z</time>
      </trkpt>
      <trkpt lat="42.092927" lon="-7.743872">
        <ele>605.931</ele>
        <time>2019-06-22T12:06:37Z</time>
      </trkpt>
      <trkpt lat="42.092700" lon="-7.743735">
        <ele>605.724</ele>
        <time>2019-06-22T12:06:38Z</time>
      </trkpt>
      <trkpt lat="42.092469" lon="-7.743597">
        <ele>604.808</ele>
        <time>2019-06-22T12:06:39Z</time>
      </trkpt>
      <trkpt lat="42.092244" lon="-7.743464">
        <ele>604.582</ele>
        <time>2019-06-22T12:06:40Z</time>
      </trkpt>
      <trkpt lat="42.092021" lon="-7.743329">
        <ele>604.876</ele>
        <time>2019-06-22T12:06:41Z</time>
      </trkpt>
      <trkpt lat="42.091789" lon="-7.743190">
        <ele>605.128</ele>
        <time>2019-06-22T12:06:42Z</time>
      </trkpt>
      <trkpt lat="42.091563" lon="-7.743050">
        <ele>605.450</ele>
        <time>2019-06-22T12:06:43Z</time>
      </trkpt>
      <trkpt lat="42.091355" lon="-7.742912">
        <ele>605.478</ele>
        <time>2019-06-22T12:06:44Z</time>
      </trkpt>
      <trkpt lat="42.091128" lon="-7.742773">
        <ele>604.537</ele>
        <time>2019-06-22T12:06:45Z</time>
      </trkpt>
      <trkpt lat="42.090896" lon="-7.742621">
        <ele>604.552</ele>
        <time>2019-06-22T12:06:46Z</time>
      </trkpt>
      <trkpt lat="42.090666" lon="-7.742479">
        <ele>604.495</ele>
        <time>2019-06-22T12:06:47Z</time>
      </trkpt>
      <trkpt lat="42.090435" lon="-7.742350">
        <ele>604.462</ele>
        <time>2019-06-22T12:06:48Z</time>
      </trkpt>
      <trkpt lat="42.090201" lon="-7.742217">
        <ele>604.483</ele>
        <time>2019-06-22T12:06:49Z</time>
      </trkpt>
      <trkpt lat="42.089969" lon="-7.742082">
        <ele>604.511</ele>
        <time>2019-06-22T12:06:50Z</time>
      </trkpt>
      <trkpt lat="42.089740" lon="-7.741952">
        <ele>604.508</ele>
        <time>2019-06-22T12:06:51Z</time>
      </trkpt>
      <trkpt lat="42.089513" lon="-7.741803">
        <ele>604.189</ele>
        <time>2019-06-22T12:06:52Z</time>
      </trkpt>
      <trkpt lat="42.089283" lon="-7.741659">
        <ele>603.473</ele>
        <time>2019-06-22T12:06:53Z</time>
      </trkpt>
      <trkpt lat="42.089048" lon="-7.741527">
        <ele>603.445</ele>
        <time>2019-06-22T12:06:54Z</time>
      </trkpt>
      <trkpt lat="42.088819" lon="-7.741386">
        <ele>603.117</ele>
        <time>2019-06-22T12:06:55Z</time>
      </trkpt>
      <trkpt lat="42.088585" lon="-7.741266">
        <ele>603.455</ele>
        <time>2019-06-22T12:06:56Z</time>
      </trkpt>
      <trkpt lat="42.088354" lon="-7.741124">
        <ele>603.734</ele>
        <time>2019-06-22T12:06:57Z</time>
      </trkpt>
      <trkpt lat="42.088115" lon="-7.740985">
        <ele>603.989</ele>
        <time>2019-06-22T12:06:58Z</time>
      </trkpt>
      <trkpt lat="42.087882" lon="-7.740834">
        <ele>604.712</ele>
        <time>2019-06-22T12:06:59Z</time>
      </trkpt>
      <trkpt lat="42.087648" lon="-7.740694">
        <ele>604.717</ele>
        <time>2019-06-22T12:07:00Z</time>
      </trkpt>
      <trkpt lat="42.087418" lon="-7.740531">
        <ele>604.087</ele>
        <time>2019-06-22T12:07:01Z</time>
      </trkpt>
      <trkpt lat="42.087184" lon="-7.740394">
        <ele>604.015</ele>
        <time>2019-06-22T12:07:02Z</time>
      </trkpt>
      <trkpt lat="42.086956" lon="-7.740259">
        <ele>604.008</ele>
        <time>2019-06-22T12:07:03Z</time>
      </trkpt>
      <trkpt lat="42.086735" lon="-7.740107">
        <ele>604.274</ele>
        <time>2019-06-22T12:07:04Z</time>
      </trkpt>
      <trkpt lat="42.086509" lon="-7.739980">
        <ele>604.228</ele>
        <time>2019-06-22T12:07:05Z</time>
      </trkpt>
      <trkpt lat="42.086278" lon="-7.739854">
        <ele>604.230</ele>
        <time>2019-06-22T12:07:06Z</time>
      </trkpt>
      <trkpt lat="42.086049" lon="-7.739719">
        <ele>605.122</ele>
        <time>2019-06-22T12:07:07Z</time>
      </trkpt>
      <trkpt lat="42.085823" lon="-7.739605">
        <ele>605.380</ele>
        <time>2019-06-22T12:07:08Z</time>
      </trkpt>
      <trkpt lat="42.085590" lon="-7.739465">
        <ele>605.589</ele>
        <time>2019-06-22T12:07:09Z</time>
      </trkpt>
      <trkpt lat="42.085357" lon="-7.739320">
        <ele>605.664</ele>
        <time>2019-06-22T12:07:10Z</time>
      </trkpt>
      <trkpt lat="42.085118" lon="-7.739178">
        <ele>606.597</ele>
        <time>2019-06-22T12:07:11Z</time>
      </trkpt>
      <trkpt lat="42.084885" lon="-7.739031">
        <ele>606.627</ele>
        <time>2019-06-22T12:07:12Z</time>
      </trkpt>
      <trkpt lat="42.084649" lon="-7.738882">
        <ele>606.968</ele>
        <time>2019-06-22T12:07:13Z</time>
      </trkpt>
      <trkpt lat="42.084414" lon="-7.738745">
        <ele>607.014</ele>
        <time>2019-06-22T12:07:14Z</time>
      </trkpt>
      <trkpt lat="42.084176" lon="-7.738600">
        <ele>606.908</ele>
        <time>2019-06-22T12:07:15Z</time>
      </trkpt>
      <trkpt lat="42.083942" lon="-7.738456">
        <ele>606.825</ele>
        <time>2019-06-22T12:07:16Z</time>
      </trkpt>
      <trkpt lat="42.083704" lon="-7.738319">
        <ele>606.319</ele>
        <time>2019-06-22T12:07:17Z</time>
      </trkpt>
      <trkpt lat="42.083471" lon="-7.738166">
        <ele>606.221</ele>
        <time>2019-06-22T12:07:18Z</time>
      </trkpt>
      <trkpt lat="42.083233" lon="-7.738034">
        <ele>606.253</ele>
        <time>2019-06-22T12:07:19Z</time>
      </trkpt>
      <trkpt lat="42.082996" lon="-7.737889">
        <ele>606.241</ele>
        <time>2019-06-22T12:07:20Z</time>
      </trkpt>
      <trkpt lat="42.082765" lon="-7.737744">
        <ele>606.220</ele>
        <time>2019-06-22T12:07:21Z</time>
      </trkpt>
      <trkpt lat="42.082548" lon="-7.737615">
        <ele>606.015</ele>
        <time>2019-06-22T12:07:22Z</time>
      </trkpt>
      <trkpt lat="42.082309" lon="-7.737475">
        <ele>605.848</ele>
        <time>2019-06-22T12:07:23Z</time>
      </trkpt>
      <trkpt lat="42.082079" lon="-7.737341">
        <ele>604.683</ele>
        <time>2019-06-22T12:07:24Z</time>
      </trkpt>
      <trkpt lat="42.081854" lon="-7.737206">
        <ele>603.325</ele>
        <time>2019-06-22T12:07:25Z</time>
      </trkpt>
      <trkpt lat="42.081633" lon="-7.737071">
        <ele>603.317</ele>
        <time>2019-06-22T12:07:26Z</time>
      </trkpt>
      <trkpt lat="42.081408" lon="-7.736930">
        <ele>603.308</ele>
        <time>2019-06-22T12:07:27Z</time>
      </trkpt>
      <trkpt lat="42.081191" lon="-7.736792">
        <ele>603.441</ele>
        <time>2019-06-22T12:07:28Z</time>
      </trkpt>
      <trkpt lat="42.080975" lon="-7.736660">
        <ele>604.385</ele>
        <time>2019-06-22T12:07:29Z</time>
      </trkpt>
      <trkpt lat="42.080759" lon="-7.736527">
        <ele>605.237</ele>
        <time>2019-06-22T12:07:30Z</time>
      </trkpt>
      <trkpt lat="42.080542" lon="-7.736396">
        <ele>605.219</ele>
        <time>2019-06-22T12:07:31Z</time>
      </trkpt>
      <trkpt lat="42.080321" lon="-7.736260">
        <ele>604.927</ele>
        <time>2019-06-22T12:07:32Z</time>
      </trkpt>
      <trkpt lat="42.080104" lon="-7.736128">
        <ele>603.426</ele>
        <time>2019-06-22T12:07:33Z</time>
      </trkpt>
      <trkpt lat="42.079888" lon="-7.735999">
        <ele>602.221</ele>
        <time>2019-06-22T12:07:34Z</time>
      </trkpt>
      <trkpt lat="42.079674" lon="-7.735868">
        <ele>601.444</ele>
        <time>2019-06-22T12:07:35Z</time>
      </trkpt>
      <trkpt lat="42.079475" lon="-7.735747">
        <ele>600.265</ele>
        <time>2019-06-22T12:07:36Z</time>
      </trkpt>
      <trkpt lat="42.079281" lon="-7.735641">
        <ele>599.568</ele>
        <time>2019-06-22T12:07:37Z</time>
      </trkpt>
      <trkpt lat="42.079098" lon="-7.735538">
        <ele>599.214</ele>
        <time>2019-06-22T12:07:38Z</time>
      </trkpt>
      <trkpt lat="42.078910" lon="-7.735432">
        <ele>598.708</ele>
        <time>2019-06-22T12:07:39Z</time>
      </trkpt>
      <trkpt lat="42.078739" lon="-7.735308">
        <ele>597.919</ele>
        <time>2019-06-22T12:07:40Z</time>
      </trkpt>
      <trkpt lat="42.078554" lon="-7.735200">
        <ele>597.913</ele>
        <time>2019-06-22T12:07:41Z</time>
      </trkpt>
      <trkpt lat="42.078392" lon="-7.735101">
        <ele>599.295</ele>
        <time>2019-06-22T12:07:42Z</time>
      </trkpt>
      <trkpt lat="42.078220" lon="-7.735007">
        <ele>601.357</ele>
        <time>2019-06-22T12:07:43Z</time>
      </trkpt>
      <trkpt lat="42.078060" lon="-7.734908">
        <ele>603.115</ele>
        <time>2019-06-22T12:07:44Z</time>
      </trkpt>
      <trkpt lat="42.077908" lon="-7.734811">
        <ele>605.694</ele>
        <time>2019-06-22T12:07:45Z</time>
      </trkpt>
      <trkpt lat="42.077751" lon="-7.734723">
        <ele>607.459</ele>
        <time>2019-06-22T12:07:46Z</time>
      </trkpt>
      <trkpt lat="42.077588" lon="-7.734631">
        <ele>607.442</ele>
        <time>2019-06-22T12:07:47Z</time>
      </trkpt>
      <trkpt lat="42.077431" lon="-7.734535">
        <ele>607.253</ele>
        <time>2019-06-22T12:07:48Z</time>
      </trkpt>
      <trkpt lat="42.077268" lon="-7.734441">
        <ele>607.004</ele>
        <time>2019-06-22T12:07:49Z</time>
      </trkpt>
      <trkpt lat="42.077107" lon="-7.734359">
        <ele>606.614</ele>
        <time>2019-06-22T12:07:50Z</time>
      </trkpt>
      <trkpt lat="42.076961" lon="-7.734268">
        <ele>605.608</ele>
        <time>2019-06-22T12:07:51Z</time>
      </trkpt>
      <trkpt lat="42.076819" lon="-7.734177">
        <ele>604.828</ele>
        <time>2019-06-22T12:07:52Z</time>
      </trkpt>
      <trkpt lat="42.076675" lon="-7.734091">
        <ele>604.812</ele>
        <time>2019-06-22T12:07:53Z</time>
      </trkpt>
      <trkpt lat="42.076535" lon="-7.734008">
        <ele>605.324</ele>
        <time>2019-06-22T12:07:54Z</time>
      </trkpt>
      <trkpt lat="42.076401" lon="-7.733922">
        <ele>605.686</ele>
        <time>2019-06-22T12:07:55Z</time>
      </trkpt>
      <trkpt lat="42.076269" lon="-7.733839">
        <ele>606.574</ele>
        <time>2019-06-22T12:07:56Z</time>
      </trkpt>
      <trkpt lat="42.076139" lon="-7.733767">
        <ele>607.363</ele>
        <time>2019-06-22T12:07:57Z</time>
      </trkpt>
      <trkpt lat="42.076017" lon="-7.733684">
        <ele>607.378</ele>
        <time>2019-06-22T12:07:58Z</time>
      </trkpt>
      <trkpt lat="42.075899" lon="-7.733609">
        <ele>608.011</ele>
        <time>2019-06-22T12:07:59Z</time>
      </trkpt>
      <trkpt lat="42.075780" lon="-7.733534">
        <ele>608.161</ele>
        <time>2019-06-22T12:08:00Z</time>
      </trkpt>
      <trkpt lat="42.075656" lon="-7.733466">
        <ele>608.821</ele>
        <time>2019-06-22T12:08:01Z</time>
      </trkpt>
      <trkpt lat="42.075535" lon="-7.733395">
        <ele>609.113</ele>
        <time>2019-06-22T12:08:02Z</time>
      </trkpt>
      <trkpt lat="42.075412" lon="-7.733339">
        <ele>609.708</ele>
        <time>2019-06-22T12:08:03Z</time>
      </trkpt>
      <trkpt lat="42.075289" lon="-7.733267">
        <ele>609.859</ele>
        <time>2019-06-22T12:08:04Z</time>
      </trkpt>
      <trkpt lat="42.075173" lon="-7.733198">
        <ele>609.823</ele>
        <time>2019-06-22T12:08:05Z</time>
      </trkpt>
      <trkpt lat="42.075062" lon="-7.733121">
        <ele>609.925</ele>
        <time>2019-06-22T12:08:06Z</time>
      </trkpt>
      <trkpt lat="42.074967" lon="-7.733067">
        <ele>609.967</ele>
        <time>2019-06-22T12:08:07Z</time>
      </trkpt>
      <trkpt lat="42.074862" lon="-7.733003">
        <ele>609.775</ele>
        <time>2019-06-22T12:08:08Z</time>
      </trkpt>
      <trkpt lat="42.074758" lon="-7.732945">
        <ele>608.724</ele>
        <time>2019-06-22T12:08:09Z</time>
      </trkpt>
      <trkpt lat="42.074655" lon="-7.732879">
        <ele>608.429</ele>
        <time>2019-06-22T12:08:10Z</time>
      </trkpt>
      <trkpt lat="42.074565" lon="-7.732828">
        <ele>607.662</ele>
        <time>2019-06-22T12:08:11Z</time>
      </trkpt>
      <trkpt lat="42.074482" lon="-7.732777">
        <ele>607.349</ele>
        <time>2019-06-22T12:08:12Z</time>
      </trkpt>
      <trkpt lat="42.074405" lon="-7.732742">
        <ele>607.302</ele>
        <time>2019-06-22T12:08:13Z</time>
      </trkpt>
      <trkpt lat="42.074337" lon="-7.732714">
        <ele>607.722</ele>
        <time>2019-06-22T12:08:14Z</time>
      </trkpt>
      <trkpt lat="42.074272" lon="-7.732688">
        <ele>607.908</ele>
        <time>2019-06-22T12:08:15Z</time>
      </trkpt>
      <trkpt lat="42.074213" lon="-7.732680">
        <ele>608.667</ele>
        <time>2019-06-22T12:08:16Z</time>
      </trkpt>
      <trkpt lat="42.074148" lon="-7.732662">
        <ele>609.031</ele>
        <time>2019-06-22T12:08:17Z</time>
      </trkpt>
      <trkpt lat="42.074092" lon="-7.732619">
        <ele>609.143</ele>
        <time>2019-06-22T12:08:18Z</time>
      </trkpt>
      <trkpt lat="42.074029" lon="-7.732567">
        <ele>609.385</ele>
        <time>2019-06-22T12:08:19Z</time>
      </trkpt>
      <trkpt lat="42.073963" lon="-7.732498">
        <ele>609.533</ele>
        <time>2019-06-22T12:08:20Z</time>
      </trkpt>
      <trkpt lat="42.073884" lon="-7.732436">
        <ele>609.522</ele>
        <time>2019-06-22T12:08:21Z</time>
      </trkpt>
      <trkpt lat="42.073808" lon="-7.732381">
        <ele>608.637</ele>
        <time>2019-06-22T12:08:22Z</time>
      </trkpt>
      <trkpt lat="42.073725" lon="-7.732329">
        <ele>607.940</ele>
        <time>2019-06-22T12:08:23Z</time>
      </trkpt>
      <trkpt lat="42.073627" lon="-7.732262">
        <ele>607.996</ele>
        <time>2019-06-22T12:08:24Z</time>
      </trkpt>
      <trkpt lat="42.073526" lon="-7.732195">
        <ele>608.031</ele>
        <time>2019-06-22T12:08:25Z</time>
      </trkpt>
      <trkpt lat="42.073421" lon="-7.732134">
        <ele>608.124</ele>
        <time>2019-06-22T12:08:26Z</time>
      </trkpt>
      <trkpt lat="42.073310" lon="-7.732066">
        <ele>609.008</ele>
        <time>2019-06-22T12:08:27Z</time>
      </trkpt>
      <trkpt lat="42.073190" lon="-7.731986">
        <ele>609.852</ele>
        <time>2019-06-22T12:08:28Z</time>
      </trkpt>
      <trkpt lat="42.073056" lon="-7.731903">
        <ele>610.156</ele>
        <time>2019-06-22T12:08:29Z</time>
      </trkpt>
      <trkpt lat="42.072912" lon="-7.731817">
        <ele>610.178</ele>
        <time>2019-06-22T12:08:30Z</time>
      </trkpt>
      <trkpt lat="42.072761" lon="-7.731730">
        <ele>609.210</ele>
        <time>2019-06-22T12:08:31Z</time>
      </trkpt>
      <trkpt lat="42.072596" lon="-7.731646">
        <ele>608.368</ele>
        <time>2019-06-22T12:08:32Z</time>
      </trkpt>
      <trkpt lat="42.072437" lon="-7.731558">
        <ele>608.167</ele>
        <time>2019-06-22T12:08:33Z</time>
      </trkpt>
      <trkpt lat="42.072284" lon="-7.731474">
        <ele>608.162</ele>
        <time>2019-06-22T12:08:34Z</time>
      </trkpt>
      <trkpt lat="42.072136" lon="-7.731386">
        <ele>608.115</ele>
        <time>2019-06-22T12:08:35Z</time>
      </trkpt>
      <trkpt lat="42.071991" lon="-7.731300">
        <ele>608.359</ele>
        <time>2019-06-22T12:08:36Z</time>
      </trkpt>
      <trkpt lat="42.071847" lon="-7.731205">
        <ele>608.503</ele>
        <time>2019-06-22T12:08:37Z</time>
      </trkpt>
      <trkpt lat="42.071699" lon="-7.731117">
        <ele>608.523</ele>
        <time>2019-06-22T12:08:38Z</time>
      </trkpt>
      <trkpt lat="42.071555" lon="-7.731034">
        <ele>608.008</ele>
        <time>2019-06-22T12:08:39Z</time>
      </trkpt>
      <trkpt lat="42.071413" lon="-7.730947">
        <ele>606.968</ele>
        <time>2019-06-22T12:08:40Z</time>
      </trkpt>
      <trkpt lat="42.071273" lon="-7.730858">
        <ele>605.612</ele>
        <time>2019-06-22T12:08:41Z</time>
      </trkpt>
      <trkpt lat="42.071130" lon="-7.730779">
        <ele>605.154</ele>
        <time>2019-06-22T12:08:42Z</time>
      </trkpt>
      <trkpt lat="42.070995" lon="-7.730694">
        <ele>605.156</ele>
        <time>2019-06-22T12:08:43Z</time>
      </trkpt>
      <trkpt lat="42.070864" lon="-7.730615">
        <ele>603.934</ele>
        <time>2019-06-22T12:08:44Z</time>
      </trkpt>
      <trkpt lat="42.070727" lon="-7.730531">
        <ele>603.813</ele>
        <time>2019-06-22T12:08:45Z</time>
      </trkpt>
      <trkpt lat="42.070596" lon="-7.730442">
        <ele>603.898</ele>
        <time>2019-06-22T12:08:46Z</time>
      </trkpt>
      <trkpt lat="42.070451" lon="-7.730362">
        <ele>603.991</ele>
        <time>2019-06-22T12:08:47Z</time>
      </trkpt>
      <trkpt lat="42.070308" lon="-7.730282">
        <ele>603.953</ele>
        <time>2019-06-22T12:08:48Z</time>
      </trkpt>
      <trkpt lat="42.070169" lon="-7.730195">
        <ele>603.904</ele>
        <time>2019-06-22T12:08:49Z</time>
      </trkpt>
      <trkpt lat="42.070037" lon="-7.730103">
        <ele>603.914</ele>
        <time>2019-06-22T12:08:50Z</time>
      </trkpt>
      <trkpt lat="42.069897" lon="-7.730017">
        <ele>604.508</ele>
        <time>2019-06-22T12:08:51Z</time>
      </trkpt>
      <trkpt lat="42.069756" lon="-7.729925">
        <ele>604.548</ele>
        <time>2019-06-22T12:08:52Z</time>
      </trkpt>
      <trkpt lat="42.069613" lon="-7.729831">
        <ele>604.542</ele>
        <time>2019-06-22T12:08:53Z</time>
      </trkpt>
      <trkpt lat="42.069475" lon="-7.729753">
        <ele>604.924</ele>
        <time>2019-06-22T12:08:54Z</time>
      </trkpt>
      <trkpt lat="42.069339" lon="-7.729672">
        <ele>605.486</ele>
        <time>2019-06-22T12:08:55Z</time>
      </trkpt>
      <trkpt lat="42.069204" lon="-7.729589">
        <ele>605.494</ele>
        <time>2019-06-22T12:08:56Z</time>
      </trkpt>
      <trkpt lat="42.069070" lon="-7.729517">
        <ele>604.343</ele>
        <time>2019-06-22T12:08:57Z</time>
      </trkpt>
      <trkpt lat="42.068929" lon="-7.729436">
        <ele>604.368</ele>
        <time>2019-06-22T12:08:58Z</time>
      </trkpt>
      <trkpt lat="42.068808" lon="-7.729363">
        <ele>603.421</ele>
        <time>2019-06-22T12:08:59Z</time>
      </trkpt>
      <trkpt lat="42.068685" lon="-7.729289">
        <ele>602.751</ele>
        <time>2019-06-22T12:09:00Z</time>
      </trkpt>
      <trkpt lat="42.068565" lon="-7.729217">
        <ele>602.601</ele>
        <time>2019-06-22T12:09:01Z</time>
      </trkpt>
      <trkpt lat="42.068450" lon="-7.729139">
        <ele>602.711</ele>
        <time>2019-06-22T12:09:02Z</time>
      </trkpt>
      <trkpt lat="42.068327" lon="-7.729077">
        <ele>603.508</ele>
        <time>2019-06-22T12:09:03Z</time>
      </trkpt>
      <trkpt lat="42.068208" lon="-7.729008">
        <ele>604.128</ele>
        <time>2019-06-22T12:09:04Z</time>
      </trkpt>
      <trkpt lat="42.068092" lon="-7.728932">
        <ele>604.162</ele>
        <time>2019-06-22T12:09:05Z</time>
      </trkpt>
      <trkpt lat="42.067988" lon="-7.728870">
        <ele>604.274</ele>
        <time>2019-06-22T12:09:06Z</time>
      </trkpt>
      <trkpt lat="42.067883" lon="-7.728805">
        <ele>604.266</ele>
        <time>2019-06-22T12:09:07Z</time>
      </trkpt>
      <trkpt lat="42.067791" lon="-7.728747">
        <ele>604.264</ele>
        <time>2019-06-22T12:09:08Z</time>
      </trkpt>
      <trkpt lat="42.067706" lon="-7.728695">
        <ele>603.853</ele>
        <time>2019-06-22T12:09:09Z</time>
      </trkpt>
      <trkpt lat="42.067620" lon="-7.728646">
        <ele>603.858</ele>
        <time>2019-06-22T12:09:10Z</time>
      </trkpt>
      <trkpt lat="42.067539" lon="-7.728596">
        <ele>604.151</ele>
        <time>2019-06-22T12:09:11Z</time>
      </trkpt>
      <trkpt lat="42.067493" lon="-7.728590">
        <ele>604.217</ele>
        <time>2019-06-22T12:09:12Z</time>
      </trkpt>
      <trkpt lat="42.067426" lon="-7.728546">
        <ele>604.887</ele>
        <time>2019-06-22T12:09:13Z</time>
      </trkpt>
      <trkpt lat="42.067371" lon="-7.728524">
        <ele>606.215</ele>
        <time>2019-06-22T12:09:14Z</time>
      </trkpt>
      <trkpt lat="42.067311" lon="-7.728489">
        <ele>607.308</ele>
        <time>2019-06-22T12:09:15Z</time>
      </trkpt>
      <trkpt lat="42.067257" lon="-7.728434">
        <ele>608.014</ele>
        <time>2019-06-22T12:09:16Z</time>
      </trkpt>
      <trkpt lat="42.067201" lon="-7.728413">
        <ele>608.058</ele>
        <time>2019-06-22T12:09:17Z</time>
      </trkpt>
      <trkpt lat="42.067146" lon="-7.728384">
        <ele>608.220</ele>
        <time>2019-06-22T12:09:18Z</time>
      </trkpt>
      <trkpt lat="42.067085" lon="-7.728360">
        <ele>608.392</ele>
        <time>2019-06-22T12:09:19Z</time>
      </trkpt>
      <trkpt lat="42.067026" lon="-7.728322">
        <ele>608.520</ele>
        <time>2019-06-22T12:09:20Z</time>
      </trkpt>
      <trkpt lat="42.066954" lon="-7.728261">
        <ele>608.849</ele>
        <time>2019-06-22T12:09:21Z</time>
      </trkpt>
      <trkpt lat="42.066908" lon="-7.728221">
        <ele>609.544</ele>
        <time>2019-06-22T12:09:22Z</time>
      </trkpt>
      <trkpt lat="42.066839" lon="-7.728153">
        <ele>610.137</ele>
        <time>2019-06-22T12:09:24Z</time>
      </trkpt>
      <trkpt lat="42.066779" lon="-7.728127">
        <ele>610.414</ele>
        <time>2019-06-22T12:09:26Z</time>
      </trkpt>
      <trkpt lat="42.066706" lon="-7.728125">
        <ele>610.854</ele>
        <time>2019-06-22T12:09:28Z</time>
      </trkpt>
      <trkpt lat="42.066622" lon="-7.728113">
        <ele>610.809</ele>
        <time>2019-06-22T12:09:30Z</time>
      </trkpt>
      <trkpt lat="42.066585" lon="-7.728077">
        <ele>610.708</ele>
        <time>2019-06-22T12:09:31Z</time>
      </trkpt>
      <trkpt lat="42.066539" lon="-7.728037">
        <ele>610.554</ele>
        <time>2019-06-22T12:09:32Z</time>
      </trkpt>
      <trkpt lat="42.066494" lon="-7.727983">
        <ele>610.138</ele>
        <time>2019-06-22T12:09:33Z</time>
      </trkpt>
      <trkpt lat="42.066431" lon="-7.727923">
        <ele>609.480</ele>
        <time>2019-06-22T12:09:34Z</time>
      </trkpt>
      <trkpt lat="42.066360" lon="-7.727874">
        <ele>608.852</ele>
        <time>2019-06-22T12:09:35Z</time>
      </trkpt>
      <trkpt lat="42.066293" lon="-7.727823">
        <ele>608.530</ele>
        <time>2019-06-22T12:09:36Z</time>
      </trkpt>
      <trkpt lat="42.066225" lon="-7.727774">
        <ele>608.489</ele>
        <time>2019-06-22T12:09:37Z</time>
      </trkpt>
      <trkpt lat="42.066154" lon="-7.727730">
        <ele>608.434</ele>
        <time>2019-06-22T12:09:38Z</time>
      </trkpt>
      <trkpt lat="42.066067" lon="-7.727674">
        <ele>608.577</ele>
        <time>2019-06-22T12:09:39Z</time>
      </trkpt>
      <trkpt lat="42.065985" lon="-7.727620">
        <ele>608.535</ele>
        <time>2019-06-22T12:09:40Z</time>
      </trkpt>
      <trkpt lat="42.065904" lon="-7.727566">
        <ele>608.486</ele>
        <time>2019-06-22T12:09:41Z</time>
      </trkpt>
      <trkpt lat="42.065820" lon="-7.727521">
        <ele>608.114</ele>
        <time>2019-06-22T12:09:42Z</time>
      </trkpt>
      <trkpt lat="42.065740" lon="-7.727476">
        <ele>608.108</ele>
        <time>2019-06-22T12:09:43Z</time>
      </trkpt>
      <trkpt lat="42.065661" lon="-7.727431">
        <ele>608.736</ele>
        <time>2019-06-22T12:09:44Z</time>
      </trkpt>
      <trkpt lat="42.065580" lon="-7.727379">
        <ele>609.250</ele>
        <time>2019-06-22T12:09:45Z</time>
      </trkpt>
      <trkpt lat="42.065510" lon="-7.727336">
        <ele>609.862</ele>
        <time>2019-06-22T12:09:46Z</time>
      </trkpt>
      <trkpt lat="42.065449" lon="-7.727298">
        <ele>610.454</ele>
        <time>2019-06-22T12:09:47Z</time>
      </trkpt>
      <trkpt lat="42.065398" lon="-7.727264">
        <ele>610.692</ele>
        <time>2019-06-22T12:09:48Z</time>
      </trkpt>
      <trkpt lat="42.065327" lon="-7.727223">
        <ele>610.691</ele>
        <time>2019-06-22T12:09:50Z</time>
      </trkpt>
      <trkpt lat="42.065271" lon="-7.727209">
        <ele>610.796</ele>
        <time>2019-06-22T12:09:52Z</time>
      </trkpt>
      <trkpt lat="42.065187" lon="-7.727178">
        <ele>610.889</ele>
        <time>2019-06-22T12:09:54Z</time>
      </trkpt>
      <trkpt lat="42.065140" lon="-7.727158">
        <ele>610.889</ele>
        <time>2019-06-22T12:09:55Z</time>
      </trkpt>
      <trkpt lat="42.065066" lon="-7.727114">
        <ele>610.606</ele>
        <time>2019-06-22T12:09:57Z</time>
      </trkpt>
      <trkpt lat="42.064976" lon="-7.727057">
        <ele>610.626</ele>
        <time>2019-06-22T12:09:59Z</time>
      </trkpt>
      <trkpt lat="42.064937" lon="-7.727026">
        <ele>610.508</ele>
        <time>2019-06-22T12:10:00Z</time>
      </trkpt>
      <trkpt lat="42.064858" lon="-7.726975">
        <ele>610.631</ele>
        <time>2019-06-22T12:10:02Z</time>
      </trkpt>
      <trkpt lat="42.064814" lon="-7.726945">
        <ele>610.635</ele>
        <time>2019-06-22T12:10:03Z</time>
      </trkpt>
      <trkpt lat="42.064742" lon="-7.726907">
        <ele>610.687</ele>
        <time>2019-06-22T12:10:04Z</time>
      </trkpt>
      <trkpt lat="42.064680" lon="-7.726864">
        <ele>610.739</ele>
        <time>2019-06-22T12:10:05Z</time>
      </trkpt>
      <trkpt lat="42.064617" lon="-7.726827">
        <ele>610.747</ele>
        <time>2019-06-22T12:10:06Z</time>
      </trkpt>
      <trkpt lat="42.064555" lon="-7.726795">
        <ele>610.726</ele>
        <time>2019-06-22T12:10:07Z</time>
      </trkpt>
      <trkpt lat="42.064498" lon="-7.726757">
        <ele>610.721</ele>
        <time>2019-06-22T12:10:08Z</time>
      </trkpt>
      <trkpt lat="42.064444" lon="-7.726729">
        <ele>610.264</ele>
        <time>2019-06-22T12:10:09Z</time>
      </trkpt>
      <trkpt lat="42.064399" lon="-7.726700">
        <ele>609.887</ele>
        <time>2019-06-22T12:10:10Z</time>
      </trkpt>
      <trkpt lat="42.064352" lon="-7.726676">
        <ele>609.542</ele>
        <time>2019-06-22T12:10:11Z</time>
      </trkpt>
      <trkpt lat="42.064271" lon="-7.726663">
        <ele>609.626</ele>
        <time>2019-06-22T12:10:13Z</time>
      </trkpt>
      <trkpt lat="42.064233" lon="-7.726726">
        <ele>610.708</ele>
        <time>2019-06-22T12:10:15Z</time>
      </trkpt>
      <trkpt lat="42.064292" lon="-7.726629">
        <ele>611.591</ele>
        <time>2019-06-22T12:10:20Z</time>
      </trkpt>
      <trkpt lat="42.064317" lon="-7.726576">
        <ele>611.535</ele>
        <time>2019-06-22T12:10:21Z</time>
      </trkpt>
      <trkpt lat="42.064266" lon="-7.726585">
        <ele>611.557</ele>
        <time>2019-06-22T12:10:30Z</time>
      </trkpt>
      <trkpt lat="42.064177" lon="-7.726535">
        <ele>611.339</ele>
        <time>2019-06-22T12:10:32Z</time>
      </trkpt>
      <trkpt lat="42.064061" lon="-7.726431">
        <ele>611.087</ele>
        <time>2019-06-22T12:10:33Z</time>
      </trkpt>
      <trkpt lat="42.063982" lon="-7.726395">
        <ele>610.856</ele>
        <time>2019-06-22T12:10:34Z</time>
      </trkpt>
      <trkpt lat="42.063904" lon="-7.726351">
        <ele>610.251</ele>
        <time>2019-06-22T12:10:35Z</time>
      </trkpt>
      <trkpt lat="42.063810" lon="-7.726311">
        <ele>609.814</ele>
        <time>2019-06-22T12:10:36Z</time>
      </trkpt>
      <trkpt lat="42.063734" lon="-7.726276">
        <ele>609.554</ele>
        <time>2019-06-22T12:10:37Z</time>
      </trkpt>
      <trkpt lat="42.063656" lon="-7.726216">
        <ele>609.456</ele>
        <time>2019-06-22T12:10:38Z</time>
      </trkpt>
      <trkpt lat="42.063586" lon="-7.726166">
        <ele>609.411</ele>
        <time>2019-06-22T12:10:39Z</time>
      </trkpt>
      <trkpt lat="42.063538" lon="-7.726107">
        <ele>609.808</ele>
        <time>2019-06-22T12:10:40Z</time>
      </trkpt>
      <trkpt lat="42.063460" lon="-7.726111">
        <ele>610.218</ele>
        <time>2019-06-22T12:10:41Z</time>
      </trkpt>
      <trkpt lat="42.063418" lon="-7.726067">
        <ele>610.632</ele>
        <time>2019-06-22T12:10:42Z</time>
      </trkpt>
      <trkpt lat="42.063363" lon="-7.726022">
        <ele>610.824</ele>
        <time>2019-06-22T12:10:43Z</time>
      </trkpt>
      <trkpt lat="42.063293" lon="-7.726010">
        <ele>611.076</ele>
        <time>2019-06-22T12:10:45Z</time>
      </trkpt>
      <trkpt lat="42.063215" lon="-7.725989">
        <ele>611.114</ele>
        <time>2019-06-22T12:10:47Z</time>
      </trkpt>
      <trkpt lat="42.063110" lon="-7.725962">
        <ele>611.323</ele>
        <time>2019-06-22T12:10:49Z</time>
      </trkpt>
      <trkpt lat="42.063073" lon="-7.725906">
        <ele>611.368</ele>
        <time>2019-06-22T12:10:50Z</time>
      </trkpt>
      <trkpt lat="42.063038" lon="-7.725855">
        <ele>611.311</ele>
        <time>2019-06-22T12:10:51Z</time>
      </trkpt>
      <trkpt lat="42.063000" lon="-7.725802">
        <ele>611.319</ele>
        <time>2019-06-22T12:10:52Z</time>
      </trkpt>
      <trkpt lat="42.062968" lon="-7.725739">
        <ele>611.409</ele>
        <time>2019-06-22T12:10:53Z</time>
      </trkpt>
      <trkpt lat="42.062925" lon="-7.725668">
        <ele>611.719</ele>
        <time>2019-06-22T12:10:55Z</time>
      </trkpt>
      <trkpt lat="42.062910" lon="-7.725589">
        <ele>611.908</ele>
        <time>2019-06-22T12:10:56Z</time>
      </trkpt>
      <trkpt lat="42.062898" lon="-7.725503">
        <ele>611.984</ele>
        <time>2019-06-22T12:10:57Z</time>
      </trkpt>
      <trkpt lat="42.062854" lon="-7.725432">
        <ele>611.948</ele>
        <time>2019-06-22T12:10:59Z</time>
      </trkpt>
      <trkpt lat="42.062819" lon="-7.725339">
        <ele>611.980</ele>
        <time>2019-06-22T12:11:01Z</time>
      </trkpt>
      <trkpt lat="42.062789" lon="-7.725266">
        <ele>611.942</ele>
        <time>2019-06-22T12:11:03Z</time>
      </trkpt>
      <trkpt lat="42.062738" lon="-7.725217">
        <ele>611.930</ele>
        <time>2019-06-22T12:11:05Z</time>
      </trkpt>
      <trkpt lat="42.062723" lon="-7.725122">
        <ele>611.849</ele>
        <time>2019-06-22T12:11:07Z</time>
      </trkpt>
      <trkpt lat="42.062699" lon="-7.725061">
        <ele>611.724</ele>
        <time>2019-06-22T12:11:08Z</time>
      </trkpt>
      <trkpt lat="42.062672" lon="-7.724965">
        <ele>611.687</ele>
        <time>2019-06-22T12:11:10Z</time>
      </trkpt>
      <trkpt lat="42.062616" lon="-7.724921">
        <ele>611.656</ele>
        <time>2019-06-22T12:11:12Z</time>
      </trkpt>
      <trkpt lat="42.062584" lon="-7.724791">
        <ele>611.659</ele>
        <time>2019-06-22T12:11:13Z</time>
      </trkpt>
      <trkpt lat="42.062543" lon="-7.724692">
        <ele>611.614</ele>
        <time>2019-06-22T12:11:14Z</time>
      </trkpt>
      <trkpt lat="42.062496" lon="-7.724596">
        <ele>611.608</ele>
        <time>2019-06-22T12:11:15Z</time>
      </trkpt>
      <trkpt lat="42.062428" lon="-7.724500">
        <ele>611.678</ele>
        <time>2019-06-22T12:11:16Z</time>
      </trkpt>
      <trkpt lat="42.062378" lon="-7.724365">
        <ele>611.512</ele>
        <time>2019-06-22T12:11:17Z</time>
      </trkpt>
      <trkpt lat="42.062338" lon="-7.724241">
        <ele>611.594</ele>
        <time>2019-06-22T12:11:18Z</time>
      </trkpt>
      <trkpt lat="42.062292" lon="-7.724117">
        <ele>611.516</ele>
        <time>2019-06-22T12:11:19Z</time>
      </trkpt>
      <trkpt lat="42.062240" lon="-7.723994">
        <ele>611.534</ele>
        <time>2019-06-22T12:11:20Z</time>
      </trkpt>
      <trkpt lat="42.062167" lon="-7.723846">
        <ele>611.473</ele>
        <time>2019-06-22T12:11:21Z</time>
      </trkpt>
      <trkpt lat="42.062097" lon="-7.723711">
        <ele>611.438</ele>
        <time>2019-06-22T12:11:22Z</time>
      </trkpt>
      <trkpt lat="42.062027" lon="-7.723576">
        <ele>611.481</ele>
        <time>2019-06-22T12:11:23Z</time>
      </trkpt>
      <trkpt lat="42.061953" lon="-7.723444">
        <ele>611.435</ele>
        <time>2019-06-22T12:11:24Z</time>
      </trkpt>
      <trkpt lat="42.061885" lon="-7.723327">
        <ele>611.486</ele>
        <time>2019-06-22T12:11:25Z</time>
      </trkpt>
      <trkpt lat="42.061804" lon="-7.723185">
        <ele>611.414</ele>
        <time>2019-06-22T12:11:26Z</time>
      </trkpt>
      <trkpt lat="42.061723" lon="-7.723038">
        <ele>611.308</ele>
        <time>2019-06-22T12:11:27Z</time>
      </trkpt>
      <trkpt lat="42.061663" lon="-7.722899">
        <ele>611.286</ele>
        <time>2019-06-22T12:11:28Z</time>
      </trkpt>
      <trkpt lat="42.061614" lon="-7.722750">
        <ele>611.140</ele>
        <time>2019-06-22T12:11:29Z</time>
      </trkpt>
      <trkpt lat="42.061536" lon="-7.722613">
        <ele>611.152</ele>
        <time>2019-06-22T12:11:30Z</time>
      </trkpt>
      <trkpt lat="42.061491" lon="-7.722526">
        <ele>611.154</ele>
        <time>2019-06-22T12:11:31Z</time>
      </trkpt>
      <trkpt lat="42.061430" lon="-7.722396">
        <ele>611.392</ele>
        <time>2019-06-22T12:11:32Z</time>
      </trkpt>
      <trkpt lat="42.061383" lon="-7.722278">
        <ele>611.371</ele>
        <time>2019-06-22T12:11:33Z</time>
      </trkpt>
      <trkpt lat="42.061337" lon="-7.722201">
        <ele>611.396</ele>
        <time>2019-06-22T12:11:34Z</time>
      </trkpt>
      <trkpt lat="42.061299" lon="-7.722103">
        <ele>611.359</ele>
        <time>2019-06-22T12:11:35Z</time>
      </trkpt>
      <trkpt lat="42.061293" lon="-7.722015">
        <ele>611.485</ele>
        <time>2019-06-22T12:11:36Z</time>
      </trkpt>
      <trkpt lat="42.061262" lon="-7.721924">
        <ele>611.489</ele>
        <time>2019-06-22T12:11:37Z</time>
      </trkpt>
      <trkpt lat="42.061217" lon="-7.721830">
        <ele>611.417</ele>
        <time>2019-06-22T12:11:38Z</time>
      </trkpt>
      <trkpt lat="42.061175" lon="-7.721734">
        <ele>611.608</ele>
        <time>2019-06-22T12:11:39Z</time>
      </trkpt>
      <trkpt lat="42.061155" lon="-7.721657">
        <ele>611.611</ele>
        <time>2019-06-22T12:11:40Z</time>
      </trkpt>
      <trkpt lat="42.061135" lon="-7.721602">
        <ele>611.585</ele>
        <time>2019-06-22T12:11:41Z</time>
      </trkpt>
      <trkpt lat="42.061102" lon="-7.721529">
        <ele>611.557</ele>
        <time>2019-06-22T12:11:44Z</time>
      </trkpt>
      <trkpt lat="42.061073" lon="-7.721461">
        <ele>611.979</ele>
        <time>2019-06-22T12:11:46Z</time>
      </trkpt>
      <trkpt lat="42.061037" lon="-7.721394">
        <ele>611.917</ele>
        <time>2019-06-22T12:11:48Z</time>
      </trkpt>
      <trkpt lat="42.061022" lon="-7.721312">
        <ele>611.836</ele>
        <time>2019-06-22T12:11:49Z</time>
      </trkpt>
      <trkpt lat="42.060979" lon="-7.721230">
        <ele>611.361</ele>
        <time>2019-06-22T12:11:51Z</time>
      </trkpt>
      <trkpt lat="42.060925" lon="-7.721136">
        <ele>611.294</ele>
        <time>2019-06-22T12:11:53Z</time>
      </trkpt>
      <trkpt lat="42.060888" lon="-7.721071">
        <ele>611.685</ele>
        <time>2019-06-22T12:11:54Z</time>
      </trkpt>
      <trkpt lat="42.060844" lon="-7.720969">
        <ele>611.689</ele>
        <time>2019-06-22T12:11:55Z</time>
      </trkpt>
      <trkpt lat="42.060800" lon="-7.720851">
        <ele>611.617</ele>
        <time>2019-06-22T12:11:56Z</time>
      </trkpt>
      <trkpt lat="42.060753" lon="-7.720732">
        <ele>611.508</ele>
        <time>2019-06-22T12:11:57Z</time>
      </trkpt>
      <trkpt lat="42.060698" lon="-7.720599">
        <ele>611.561</ele>
        <time>2019-06-22T12:11:58Z</time>
      </trkpt>
      <trkpt lat="42.060650" lon="-7.720456">
        <ele>611.455</ele>
        <time>2019-06-22T12:11:59Z</time>
      </trkpt>
      <trkpt lat="42.060605" lon="-7.720334">
        <ele>611.437</ele>
        <time>2019-06-22T12:12:00Z</time>
      </trkpt>
      <trkpt lat="42.060554" lon="-7.720181">
        <ele>611.429</ele>
        <time>2019-06-22T12:12:01Z</time>
      </trkpt>
      <trkpt lat="42.060500" lon="-7.720035">
        <ele>611.437</ele>
        <time>2019-06-22T12:12:02Z</time>
      </trkpt>
      <trkpt lat="42.060437" lon="-7.719874">
        <ele>611.336</ele>
        <time>2019-06-22T12:12:03Z</time>
      </trkpt>
      <trkpt lat="42.060372" lon="-7.719716">
        <ele>611.061</ele>
        <time>2019-06-22T12:12:04Z</time>
      </trkpt>
      <trkpt lat="42.060321" lon="-7.719580">
        <ele>609.874</ele>
        <time>2019-06-22T12:12:05Z</time>
      </trkpt>
      <trkpt lat="42.060264" lon="-7.719430">
        <ele>609.793</ele>
        <time>2019-06-22T12:12:06Z</time>
      </trkpt>
      <trkpt lat="42.060214" lon="-7.719312">
        <ele>609.465</ele>
        <time>2019-06-22T12:12:07Z</time>
      </trkpt>
      <trkpt lat="42.060153" lon="-7.719167">
        <ele>609.221</ele>
        <time>2019-06-22T12:12:08Z</time>
      </trkpt>
      <trkpt lat="42.060094" lon="-7.719017">
        <ele>609.208</ele>
        <time>2019-06-22T12:12:09Z</time>
      </trkpt>
      <trkpt lat="42.060028" lon="-7.718866">
        <ele>609.332</ele>
        <time>2019-06-22T12:12:10Z</time>
      </trkpt>
      <trkpt lat="42.059988" lon="-7.718735">
        <ele>609.796</ele>
        <time>2019-06-22T12:12:11Z</time>
      </trkpt>
      <trkpt lat="42.059955" lon="-7.718620">
        <ele>609.788</ele>
        <time>2019-06-22T12:12:12Z</time>
      </trkpt>
      <trkpt lat="42.059911" lon="-7.718487">
        <ele>609.970</ele>
        <time>2019-06-22T12:12:13Z</time>
      </trkpt>
      <trkpt lat="42.059874" lon="-7.718368">
        <ele>610.898</ele>
        <time>2019-06-22T12:12:14Z</time>
      </trkpt>
      <trkpt lat="42.059835" lon="-7.718259">
        <ele>610.997</ele>
        <time>2019-06-22T12:12:15Z</time>
      </trkpt>
      <trkpt lat="42.059798" lon="-7.718153">
        <ele>611.032</ele>
        <time>2019-06-22T12:12:16Z</time>
      </trkpt>
      <trkpt lat="42.059750" lon="-7.718041">
        <ele>611.155</ele>
        <time>2019-06-22T12:12:17Z</time>
      </trkpt>
      <trkpt lat="42.059713" lon="-7.717949">
        <ele>611.727</ele>
        <time>2019-06-22T12:12:18Z</time>
      </trkpt>
      <trkpt lat="42.059690" lon="-7.717862">
        <ele>612.368</ele>
        <time>2019-06-22T12:12:19Z</time>
      </trkpt>
      <trkpt lat="42.059652" lon="-7.717756">
        <ele>612.914</ele>
        <time>2019-06-22T12:12:20Z</time>
      </trkpt>
      <trkpt lat="42.059617" lon="-7.717635">
        <ele>613.008</ele>
        <time>2019-06-22T12:12:21Z</time>
      </trkpt>
      <trkpt lat="42.059565" lon="-7.717503">
        <ele>613.265</ele>
        <time>2019-06-22T12:12:22Z</time>
      </trkpt>
      <trkpt lat="42.059521" lon="-7.717368">
        <ele>613.299</ele>
        <time>2019-06-22T12:12:23Z</time>
      </trkpt>
      <trkpt lat="42.059484" lon="-7.717221">
        <ele>613.381</ele>
        <time>2019-06-22T12:12:24Z</time>
      </trkpt>
      <trkpt lat="42.059444" lon="-7.717036">
        <ele>613.483</ele>
        <time>2019-06-22T12:12:25Z</time>
      </trkpt>
      <trkpt lat="42.059437" lon="-7.716852">
        <ele>613.761</ele>
        <time>2019-06-22T12:12:26Z</time>
      </trkpt>
      <trkpt lat="42.059435" lon="-7.716670">
        <ele>614.080</ele>
        <time>2019-06-22T12:12:27Z</time>
      </trkpt>
      <trkpt lat="42.059429" lon="-7.716490">
        <ele>614.325</ele>
        <time>2019-06-22T12:12:28Z</time>
      </trkpt>
      <trkpt lat="42.059440" lon="-7.716301">
        <ele>614.458</ele>
        <time>2019-06-22T12:12:29Z</time>
      </trkpt>
      <trkpt lat="42.059448" lon="-7.716089">
        <ele>614.473</ele>
        <time>2019-06-22T12:12:30Z</time>
      </trkpt>
      <trkpt lat="42.059452" lon="-7.715879">
        <ele>614.285</ele>
        <time>2019-06-22T12:12:31Z</time>
      </trkpt>
      <trkpt lat="42.059455" lon="-7.715660">
        <ele>614.013</ele>
        <time>2019-06-22T12:12:32Z</time>
      </trkpt>
      <trkpt lat="42.059460" lon="-7.715451">
        <ele>613.608</ele>
        <time>2019-06-22T12:12:33Z</time>
      </trkpt>
      <trkpt lat="42.059475" lon="-7.715222">
        <ele>613.510</ele>
        <time>2019-06-22T12:12:34Z</time>
      </trkpt>
      <trkpt lat="42.059501" lon="-7.715043">
        <ele>613.074</ele>
        <time>2019-06-22T12:12:35Z</time>
      </trkpt>
      <trkpt lat="42.059514" lon="-7.714829">
        <ele>612.916</ele>
        <time>2019-06-22T12:12:36Z</time>
      </trkpt>
      <trkpt lat="42.059520" lon="-7.714575">
        <ele>612.848</ele>
        <time>2019-06-22T12:12:37Z</time>
      </trkpt>
      <trkpt lat="42.059530" lon="-7.714318">
        <ele>612.866</ele>
        <time>2019-06-22T12:12:38Z</time>
      </trkpt>
      <trkpt lat="42.059549" lon="-7.714051">
        <ele>612.865</ele>
        <time>2019-06-22T12:12:39Z</time>
      </trkpt>
      <trkpt lat="42.059581" lon="-7.713791">
        <ele>612.780</ele>
        <time>2019-06-22T12:12:40Z</time>
      </trkpt>
      <trkpt lat="42.059602" lon="-7.713524">
        <ele>611.643</ele>
        <time>2019-06-22T12:12:41Z</time>
      </trkpt>
      <trkpt lat="42.059651" lon="-7.713275">
        <ele>611.294</ele>
        <time>2019-06-22T12:12:42Z</time>
      </trkpt>
      <trkpt lat="42.059699" lon="-7.713012">
        <ele>610.257</ele>
        <time>2019-06-22T12:12:43Z</time>
      </trkpt>
      <trkpt lat="42.059746" lon="-7.712748">
        <ele>608.722</ele>
        <time>2019-06-22T12:12:44Z</time>
      </trkpt>
      <trkpt lat="42.059800" lon="-7.712482">
        <ele>607.408</ele>
        <time>2019-06-22T12:12:45Z</time>
      </trkpt>
      <trkpt lat="42.059849" lon="-7.712208">
        <ele>606.892</ele>
        <time>2019-06-22T12:12:46Z</time>
      </trkpt>
      <trkpt lat="42.059909" lon="-7.711912">
        <ele>605.956</ele>
        <time>2019-06-22T12:12:47Z</time>
      </trkpt>
      <trkpt lat="42.059960" lon="-7.711632">
        <ele>605.738</ele>
        <time>2019-06-22T12:12:48Z</time>
      </trkpt>
      <trkpt lat="42.060004" lon="-7.711334">
        <ele>605.710</ele>
        <time>2019-06-22T12:12:49Z</time>
      </trkpt>
      <trkpt lat="42.060063" lon="-7.711046">
        <ele>605.718</ele>
        <time>2019-06-22T12:12:50Z</time>
      </trkpt>
      <trkpt lat="42.060117" lon="-7.710756">
        <ele>605.747</ele>
        <time>2019-06-22T12:12:51Z</time>
      </trkpt>
      <trkpt lat="42.060182" lon="-7.710439">
        <ele>605.042</ele>
        <time>2019-06-22T12:12:52Z</time>
      </trkpt>
      <trkpt lat="42.060248" lon="-7.710136">
        <ele>604.945</ele>
        <time>2019-06-22T12:12:53Z</time>
      </trkpt>
      <trkpt lat="42.060286" lon="-7.709840">
        <ele>604.659</ele>
        <time>2019-06-22T12:12:54Z</time>
      </trkpt>
      <trkpt lat="42.060329" lon="-7.709558">
        <ele>603.503</ele>
        <time>2019-06-22T12:12:55Z</time>
      </trkpt>
      <trkpt lat="42.060391" lon="-7.709265">
        <ele>603.523</ele>
        <time>2019-06-22T12:12:56Z</time>
      </trkpt>
      <trkpt lat="42.060452" lon="-7.708984">
        <ele>603.308</ele>
        <time>2019-06-22T12:12:57Z</time>
      </trkpt>
      <trkpt lat="42.060509" lon="-7.708705">
        <ele>601.778</ele>
        <time>2019-06-22T12:12:58Z</time>
      </trkpt>
      <trkpt lat="42.060572" lon="-7.708415">
        <ele>600.312</ele>
        <time>2019-06-22T12:12:59Z</time>
      </trkpt>
      <trkpt lat="42.060628" lon="-7.708119">
        <ele>600.354</ele>
        <time>2019-06-22T12:13:00Z</time>
      </trkpt>
      <trkpt lat="42.060687" lon="-7.707828">
        <ele>600.036</ele>
        <time>2019-06-22T12:13:01Z</time>
      </trkpt>
      <trkpt lat="42.060727" lon="-7.707532">
        <ele>600.474</ele>
        <time>2019-06-22T12:13:02Z</time>
      </trkpt>
      <trkpt lat="42.060778" lon="-7.707228">
        <ele>600.223</ele>
        <time>2019-06-22T12:13:03Z</time>
      </trkpt>
      <trkpt lat="42.060817" lon="-7.706919">
        <ele>600.488</ele>
        <time>2019-06-22T12:13:04Z</time>
      </trkpt>
      <trkpt lat="42.060846" lon="-7.706600">
        <ele>601.021</ele>
        <time>2019-06-22T12:13:05Z</time>
      </trkpt>
      <trkpt lat="42.060861" lon="-7.706282">
        <ele>601.038</ele>
        <time>2019-06-22T12:13:06Z</time>
      </trkpt>
      <trkpt lat="42.060873" lon="-7.705967">
        <ele>601.070</ele>
        <time>2019-06-22T12:13:07Z</time>
      </trkpt>
      <trkpt lat="42.060882" lon="-7.705644">
        <ele>601.017</ele>
        <time>2019-06-22T12:13:08Z</time>
      </trkpt>
      <trkpt lat="42.060848" lon="-7.705326">
        <ele>604.008</ele>
        <time>2019-06-22T12:13:09Z</time>
      </trkpt>
      <trkpt lat="42.060843" lon="-7.705007">
        <ele>606.296</ele>
        <time>2019-06-22T12:13:10Z</time>
      </trkpt>
      <trkpt lat="42.060827" lon="-7.704664">
        <ele>607.630</ele>
        <time>2019-06-22T12:13:11Z</time>
      </trkpt>
      <trkpt lat="42.060805" lon="-7.704321">
        <ele>609.942</ele>
        <time>2019-06-22T12:13:12Z</time>
      </trkpt>
      <trkpt lat="42.060802" lon="-7.704036">
        <ele>612.624</ele>
        <time>2019-06-22T12:13:13Z</time>
      </trkpt>
      <trkpt lat="42.060791" lon="-7.703709">
        <ele>612.642</ele>
        <time>2019-06-22T12:13:14Z</time>
      </trkpt>
      <trkpt lat="42.060764" lon="-7.703352">
        <ele>611.711</ele>
        <time>2019-06-22T12:13:15Z</time>
      </trkpt>
      <trkpt lat="42.060755" lon="-7.703015">
        <ele>610.546</ele>
        <time>2019-06-22T12:13:16Z</time>
      </trkpt>
      <trkpt lat="42.060742" lon="-7.702675">
        <ele>609.289</ele>
        <time>2019-06-22T12:13:17Z</time>
      </trkpt>
      <trkpt lat="42.060751" lon="-7.702315">
        <ele>608.176</ele>
        <time>2019-06-22T12:13:18Z</time>
      </trkpt>
      <trkpt lat="42.060739" lon="-7.701941">
        <ele>605.990</ele>
        <time>2019-06-22T12:13:19Z</time>
      </trkpt>
      <trkpt lat="42.060743" lon="-7.701569">
        <ele>605.119</ele>
        <time>2019-06-22T12:13:20Z</time>
      </trkpt>
      <trkpt lat="42.060744" lon="-7.701211">
        <ele>604.808</ele>
        <time>2019-06-22T12:13:21Z</time>
      </trkpt>
      <trkpt lat="42.060740" lon="-7.700858">
        <ele>604.840</ele>
        <time>2019-06-22T12:13:22Z</time>
      </trkpt>
      <trkpt lat="42.060737" lon="-7.700504">
        <ele>605.444</ele>
        <time>2019-06-22T12:13:23Z</time>
      </trkpt>
      <trkpt lat="42.060738" lon="-7.700140">
        <ele>606.026</ele>
        <time>2019-06-22T12:13:24Z</time>
      </trkpt>
      <trkpt lat="42.060733" lon="-7.699791">
        <ele>606.768</ele>
        <time>2019-06-22T12:13:25Z</time>
      </trkpt>
      <trkpt lat="42.060732" lon="-7.699434">
        <ele>607.476</ele>
        <time>2019-06-22T12:13:26Z</time>
      </trkpt>
      <trkpt lat="42.060754" lon="-7.699056">
        <ele>607.445</ele>
        <time>2019-06-22T12:13:27Z</time>
      </trkpt>
      <trkpt lat="42.060740" lon="-7.698700">
        <ele>606.930</ele>
        <time>2019-06-22T12:13:28Z</time>
      </trkpt>
      <trkpt lat="42.060754" lon="-7.698353">
        <ele>606.933</ele>
        <time>2019-06-22T12:13:29Z</time>
      </trkpt>
      <trkpt lat="42.060741" lon="-7.697985">
        <ele>606.949</ele>
        <time>2019-06-22T12:13:30Z</time>
      </trkpt>
      <trkpt lat="42.060750" lon="-7.697641">
        <ele>607.202</ele>
        <time>2019-06-22T12:13:31Z</time>
      </trkpt>
      <trkpt lat="42.060747" lon="-7.697306">
        <ele>607.422</ele>
        <time>2019-06-22T12:13:32Z</time>
      </trkpt>
      <trkpt lat="42.060745" lon="-7.696983">
        <ele>607.408</ele>
        <time>2019-06-22T12:13:33Z</time>
      </trkpt>
      <trkpt lat="42.060746" lon="-7.696632">
        <ele>607.267</ele>
        <time>2019-06-22T12:13:34Z</time>
      </trkpt>
      <trkpt lat="42.060757" lon="-7.696285">
        <ele>607.261</ele>
        <time>2019-06-22T12:13:35Z</time>
      </trkpt>
      <trkpt lat="42.060756" lon="-7.695944">
        <ele>607.913</ele>
        <time>2019-06-22T12:13:36Z</time>
      </trkpt>
      <trkpt lat="42.060742" lon="-7.695627">
        <ele>608.095</ele>
        <time>2019-06-22T12:13:37Z</time>
      </trkpt>
      <trkpt lat="42.060742" lon="-7.695290">
        <ele>609.263</ele>
        <time>2019-06-22T12:13:38Z</time>
      </trkpt>
      <trkpt lat="42.060789" lon="-7.694989">
        <ele>610.322</ele>
        <time>2019-06-22T12:13:39Z</time>
      </trkpt>
      <trkpt lat="42.060803" lon="-7.694631">
        <ele>610.347</ele>
        <time>2019-06-22T12:13:40Z</time>
      </trkpt>
      <trkpt lat="42.060801" lon="-7.694298">
        <ele>608.950</ele>
        <time>2019-06-22T12:13:41Z</time>
      </trkpt>
      <trkpt lat="42.060801" lon="-7.693947">
        <ele>607.927</ele>
        <time>2019-06-22T12:13:42Z</time>
      </trkpt>
      <trkpt lat="42.060805" lon="-7.693626">
        <ele>607.868</ele>
        <time>2019-06-22T12:13:43Z</time>
      </trkpt>
      <trkpt lat="42.060812" lon="-7.693285">
        <ele>607.814</ele>
        <time>2019-06-22T12:13:44Z</time>
      </trkpt>
      <trkpt lat="42.060827" lon="-7.692953">
        <ele>607.808</ele>
        <time>2019-06-22T12:13:45Z</time>
      </trkpt>
      <trkpt lat="42.060839" lon="-7.692611">
        <ele>610.385</ele>
        <time>2019-06-22T12:13:46Z</time>
      </trkpt>
      <trkpt lat="42.060851" lon="-7.692277">
        <ele>610.319</ele>
        <time>2019-06-22T12:13:47Z</time>
      </trkpt>
      <trkpt lat="42.060865" lon="-7.691946">
        <ele>610.661</ele>
        <time>2019-06-22T12:13:48Z</time>
      </trkpt>
      <trkpt lat="42.060829" lon="-7.691626">
        <ele>610.693</ele>
        <time>2019-06-22T12:13:49Z</time>
      </trkpt>
      <trkpt lat="42.060847" lon="-7.691287">
        <ele>609.561</ele>
        <time>2019-06-22T12:13:50Z</time>
      </trkpt>
      <trkpt lat="42.060856" lon="-7.690952">
        <ele>608.640</ele>
        <time>2019-06-22T12:13:51Z</time>
      </trkpt>
      <trkpt lat="42.060869" lon="-7.690614">
        <ele>608.675</ele>
        <time>2019-06-22T12:13:52Z</time>
      </trkpt>
      <trkpt lat="42.060879" lon="-7.690280">
        <ele>608.948</ele>
        <time>2019-06-22T12:13:53Z</time>
      </trkpt>
      <trkpt lat="42.060897" lon="-7.689944">
        <ele>609.575</ele>
        <time>2019-06-22T12:13:54Z</time>
      </trkpt>
      <trkpt lat="42.060905" lon="-7.689630">
        <ele>610.328</ele>
        <time>2019-06-22T12:13:55Z</time>
      </trkpt>
      <trkpt lat="42.060912" lon="-7.689306">
        <ele>610.620</ele>
        <time>2019-06-22T12:13:56Z</time>
      </trkpt>
      <trkpt lat="42.060918" lon="-7.688997">
        <ele>610.608</ele>
        <time>2019-06-22T12:13:57Z</time>
      </trkpt>
      <trkpt lat="42.060925" lon="-7.688680">
        <ele>609.580</ele>
        <time>2019-06-22T12:13:58Z</time>
      </trkpt>
      <trkpt lat="42.060926" lon="-7.688355">
        <ele>608.644</ele>
        <time>2019-06-22T12:13:59Z</time>
      </trkpt>
      <trkpt lat="42.060893" lon="-7.688029">
        <ele>608.646</ele>
        <time>2019-06-22T12:14:00Z</time>
      </trkpt>
      <trkpt lat="42.060882" lon="-7.687697">
        <ele>607.528</ele>
        <time>2019-06-22T12:14:01Z</time>
      </trkpt>
      <trkpt lat="42.060861" lon="-7.687366">
        <ele>607.556</ele>
        <time>2019-06-22T12:14:02Z</time>
      </trkpt>
      <trkpt lat="42.060802" lon="-7.687052">
        <ele>608.495</ele>
        <time>2019-06-22T12:14:03Z</time>
      </trkpt>
      <trkpt lat="42.060776" lon="-7.686727">
        <ele>608.830</ele>
        <time>2019-06-22T12:14:04Z</time>
      </trkpt>
      <trkpt lat="42.060717" lon="-7.686397">
        <ele>608.963</ele>
        <time>2019-06-22T12:14:05Z</time>
      </trkpt>
      <trkpt lat="42.060651" lon="-7.686059">
        <ele>609.748</ele>
        <time>2019-06-22T12:14:06Z</time>
      </trkpt>
      <trkpt lat="42.060582" lon="-7.685719">
        <ele>609.761</ele>
        <time>2019-06-22T12:14:07Z</time>
      </trkpt>
      <trkpt lat="42.060529" lon="-7.685393">
        <ele>610.017</ele>
        <time>2019-06-22T12:14:08Z</time>
      </trkpt>
      <trkpt lat="42.060469" lon="-7.685070">
        <ele>610.508</ele>
        <time>2019-06-22T12:14:09Z</time>
      </trkpt>
      <trkpt lat="42.060412" lon="-7.684749">
        <ele>610.767</ele>
        <time>2019-06-22T12:14:10Z</time>
      </trkpt>
      <trkpt lat="42.060354" lon="-7.684451">
        <ele>610.841</ele>
        <time>2019-06-22T12:14:11Z</time>
      </trkpt>
      <trkpt lat="42.060289" lon="-7.684128">
        <ele>610.873</ele>
        <time>2019-06-22T12:14:12Z</time>
      </trkpt>
      <trkpt lat="42.060225" lon="-7.683808">
        <ele>610.895</ele>
        <time>2019-06-22T12:14:13Z</time>
      </trkpt>
      <trkpt lat="42.060173" lon="-7.683483">
        <ele>610.933</ele>
        <time>2019-06-22T12:14:14Z</time>
      </trkpt>
      <trkpt lat="42.060107" lon="-7.683171">
        <ele>610.942</ele>
        <time>2019-06-22T12:14:15Z</time>
      </trkpt>
      <trkpt lat="42.060042" lon="-7.682860">
        <ele>610.957</ele>
        <time>2019-06-22T12:14:16Z</time>
      </trkpt>
      <trkpt lat="42.059973" lon="-7.682543">
        <ele>610.880</ele>
        <time>2019-06-22T12:14:17Z</time>
      </trkpt>
      <trkpt lat="42.059914" lon="-7.682259">
        <ele>610.721</ele>
        <time>2019-06-22T12:14:18Z</time>
      </trkpt>
      <trkpt lat="42.059849" lon="-7.681950">
        <ele>608.441</ele>
        <time>2019-06-22T12:14:19Z</time>
      </trkpt>
      <trkpt lat="42.059769" lon="-7.681639">
        <ele>607.005</ele>
        <time>2019-06-22T12:14:20Z</time>
      </trkpt>
      <trkpt lat="42.059706" lon="-7.681384">
        <ele>604.708</ele>
        <time>2019-06-22T12:14:21Z</time>
      </trkpt>
      <trkpt lat="42.059624" lon="-7.681108">
        <ele>602.265</ele>
        <time>2019-06-22T12:14:22Z</time>
      </trkpt>
      <trkpt lat="42.059514" lon="-7.680823">
        <ele>601.359</ele>
        <time>2019-06-22T12:14:23Z</time>
      </trkpt>
      <trkpt lat="42.059413" lon="-7.680570">
        <ele>600.851</ele>
        <time>2019-06-22T12:14:24Z</time>
      </trkpt>
      <trkpt lat="42.059286" lon="-7.680274">
        <ele>600.653</ele>
        <time>2019-06-22T12:14:25Z</time>
      </trkpt>
      <trkpt lat="42.059159" lon="-7.679975">
        <ele>600.611</ele>
        <time>2019-06-22T12:14:26Z</time>
      </trkpt>
      <trkpt lat="42.059031" lon="-7.679677">
        <ele>602.080</ele>
        <time>2019-06-22T12:14:27Z</time>
      </trkpt>
      <trkpt lat="42.058905" lon="-7.679387">
        <ele>602.955</ele>
        <time>2019-06-22T12:14:28Z</time>
      </trkpt>
      <trkpt lat="42.058779" lon="-7.679105">
        <ele>604.528</ele>
        <time>2019-06-22T12:14:29Z</time>
      </trkpt>
      <trkpt lat="42.058653" lon="-7.678819">
        <ele>606.476</ele>
        <time>2019-06-22T12:14:30Z</time>
      </trkpt>
      <trkpt lat="42.058529" lon="-7.678540">
        <ele>607.390</ele>
        <time>2019-06-22T12:14:31Z</time>
      </trkpt>
      <trkpt lat="42.058409" lon="-7.678254">
        <ele>607.819</ele>
        <time>2019-06-22T12:14:32Z</time>
      </trkpt>
      <trkpt lat="42.058285" lon="-7.677985">
        <ele>608.108</ele>
        <time>2019-06-22T12:14:33Z</time>
      </trkpt>
      <trkpt lat="42.058160" lon="-7.677695">
        <ele>608.160</ele>
        <time>2019-06-22T12:14:34Z</time>
      </trkpt>
      <trkpt lat="42.058042" lon="-7.677419">
        <ele>607.544</ele>
        <time>2019-06-22T12:14:35Z</time>
      </trkpt>
      <trkpt lat="42.057915" lon="-7.677151">
        <ele>607.566</ele>
        <time>2019-06-22T12:14:36Z</time>
      </trkpt>
      <trkpt lat="42.057792" lon="-7.676874">
        <ele>607.548</ele>
        <time>2019-06-22T12:14:37Z</time>
      </trkpt>
      <trkpt lat="42.057668" lon="-7.676604">
        <ele>606.566</ele>
        <time>2019-06-22T12:14:38Z</time>
      </trkpt>
      <trkpt lat="42.057545" lon="-7.676322">
        <ele>605.975</ele>
        <time>2019-06-22T12:14:39Z</time>
      </trkpt>
      <trkpt lat="42.057424" lon="-7.676046">
        <ele>605.410</ele>
        <time>2019-06-22T12:14:40Z</time>
      </trkpt>
      <trkpt lat="42.057306" lon="-7.675770">
        <ele>603.153</ele>
        <time>2019-06-22T12:14:41Z</time>
      </trkpt>
      <trkpt lat="42.057184" lon="-7.675497">
        <ele>602.073</ele>
        <time>2019-06-22T12:14:42Z</time>
      </trkpt>
      <trkpt lat="42.057060" lon="-7.675214">
        <ele>601.785</ele>
        <time>2019-06-22T12:14:43Z</time>
      </trkpt>
      <trkpt lat="42.056934" lon="-7.674930">
        <ele>601.713</ele>
        <time>2019-06-22T12:14:44Z</time>
      </trkpt>
      <trkpt lat="42.056807" lon="-7.674639">
        <ele>601.708</ele>
        <time>2019-06-22T12:14:45Z</time>
      </trkpt>
      <trkpt lat="42.056677" lon="-7.674347">
        <ele>601.730</ele>
        <time>2019-06-22T12:14:46Z</time>
      </trkpt>
      <trkpt lat="42.056545" lon="-7.674050">
        <ele>603.894</ele>
        <time>2019-06-22T12:14:47Z</time>
      </trkpt>
      <trkpt lat="42.056414" lon="-7.673752">
        <ele>604.776</ele>
        <time>2019-06-22T12:14:48Z</time>
      </trkpt>
      <trkpt lat="42.056284" lon="-7.673457">
        <ele>605.768</ele>
        <time>2019-06-22T12:14:49Z</time>
      </trkpt>
      <trkpt lat="42.056153" lon="-7.673162">
        <ele>605.716</ele>
        <time>2019-06-22T12:14:50Z</time>
      </trkpt>
      <trkpt lat="42.056022" lon="-7.672866">
        <ele>606.185</ele>
        <time>2019-06-22T12:14:51Z</time>
      </trkpt>
      <trkpt lat="42.055886" lon="-7.672581">
        <ele>605.760</ele>
        <time>2019-06-22T12:14:52Z</time>
      </trkpt>
      <trkpt lat="42.055749" lon="-7.672292">
        <ele>605.623</ele>
        <time>2019-06-22T12:14:53Z</time>
      </trkpt>
      <trkpt lat="42.055617" lon="-7.672009">
        <ele>605.632</ele>
        <time>2019-06-22T12:14:54Z</time>
      </trkpt>
      <trkpt lat="42.055484" lon="-7.671733">
        <ele>606.292</ele>
        <time>2019-06-22T12:14:55Z</time>
      </trkpt>
      <trkpt lat="42.055332" lon="-7.671458">
        <ele>606.211</ele>
        <time>2019-06-22T12:14:56Z</time>
      </trkpt>
      <trkpt lat="42.055190" lon="-7.671178">
        <ele>605.808</ele>
        <time>2019-06-22T12:14:57Z</time>
      </trkpt>
      <trkpt lat="42.055043" lon="-7.670904">
        <ele>604.866</ele>
        <time>2019-06-22T12:14:58Z</time>
      </trkpt>
      <trkpt lat="42.054896" lon="-7.670629">
        <ele>604.640</ele>
        <time>2019-06-22T12:14:59Z</time>
      </trkpt>
      <trkpt lat="42.054751" lon="-7.670344">
        <ele>602.572</ele>
        <time>2019-06-22T12:15:00Z</time>
      </trkpt>
      <trkpt lat="42.054605" lon="-7.670063">
        <ele>602.524</ele>
        <time>2019-06-22T12:15:01Z</time>
      </trkpt>
      <trkpt lat="42.054459" lon="-7.669783">
        <ele>602.792</ele>
        <time>2019-06-22T12:15:02Z</time>
      </trkpt>
      <trkpt lat="42.054317" lon="-7.669496">
        <ele>605.111</ele>
        <time>2019-06-22T12:15:03Z</time>
      </trkpt>
      <trkpt lat="42.054177" lon="-7.669209">
        <ele>606.236</ele>
        <time>2019-06-22T12:15:04Z</time>
      </trkpt>
      <trkpt lat="42.054037" lon="-7.668916">
        <ele>606.819</ele>
        <time>2019-06-22T12:15:05Z</time>
      </trkpt>
      <trkpt lat="42.053905" lon="-7.668634">
        <ele>606.817</ele>
        <time>2019-06-22T12:15:06Z</time>
      </trkpt>
      <trkpt lat="42.053774" lon="-7.668370">
        <ele>605.687</ele>
        <time>2019-06-22T12:15:07Z</time>
      </trkpt>
      <trkpt lat="42.053645" lon="-7.668133">
        <ele>604.915</ele>
        <time>2019-06-22T12:15:08Z</time>
      </trkpt>
      <trkpt lat="42.053507" lon="-7.667903">
        <ele>603.308</ele>
        <time>2019-06-22T12:15:09Z</time>
      </trkpt>
      <trkpt lat="42.053370" lon="-7.667694">
        <ele>603.114</ele>
        <time>2019-06-22T12:15:10Z</time>
      </trkpt>
      <trkpt lat="42.053209" lon="-7.667491">
        <ele>603.158</ele>
        <time>2019-06-22T12:15:11Z</time>
      </trkpt>
      <trkpt lat="42.053049" lon="-7.667288">
        <ele>605.950</ele>
        <time>2019-06-22T12:15:12Z</time>
      </trkpt>
      <trkpt lat="42.052874" lon="-7.667072">
        <ele>606.542</ele>
        <time>2019-06-22T12:15:13Z</time>
      </trkpt>
      <trkpt lat="42.052694" lon="-7.666867">
        <ele>607.720</ele>
        <time>2019-06-22T12:15:14Z</time>
      </trkpt>
      <trkpt lat="42.052514" lon="-7.666664">
        <ele>609.879</ele>
        <time>2019-06-22T12:15:15Z</time>
      </trkpt>
      <trkpt lat="42.052332" lon="-7.666451">
        <ele>611.294</ele>
        <time>2019-06-22T12:15:16Z</time>
      </trkpt>
      <trkpt lat="42.052157" lon="-7.666247">
        <ele>611.227</ele>
        <time>2019-06-22T12:15:17Z</time>
      </trkpt>
      <trkpt lat="42.051981" lon="-7.666027">
        <ele>609.559</ele>
        <time>2019-06-22T12:15:18Z</time>
      </trkpt>
      <trkpt lat="42.051798" lon="-7.665807">
        <ele>609.503</ele>
        <time>2019-06-22T12:15:19Z</time>
      </trkpt>
      <trkpt lat="42.051617" lon="-7.665595">
        <ele>609.523</ele>
        <time>2019-06-22T12:15:20Z</time>
      </trkpt>
      <trkpt lat="42.051441" lon="-7.665383">
        <ele>609.108</ele>
        <time>2019-06-22T12:15:21Z</time>
      </trkpt>
      <trkpt lat="42.051269" lon="-7.665180">
        <ele>609.118</ele>
        <time>2019-06-22T12:15:22Z</time>
      </trkpt>
      <trkpt lat="42.051110" lon="-7.664957">
        <ele>611.112</ele>
        <time>2019-06-22T12:15:23Z</time>
      </trkpt>
      <trkpt lat="42.050962" lon="-7.664709">
        <ele>613.154</ele>
        <time>2019-06-22T12:15:24Z</time>
      </trkpt>
      <trkpt lat="42.050832" lon="-7.664452">
        <ele>614.846</ele>
        <time>2019-06-22T12:15:25Z</time>
      </trkpt>
      <trkpt lat="42.050716" lon="-7.664187">
        <ele>616.484</ele>
        <time>2019-06-22T12:15:26Z</time>
      </trkpt>
      <trkpt lat="42.050605" lon="-7.663924">
        <ele>618.353</ele>
        <time>2019-06-22T12:15:27Z</time>
      </trkpt>
      <trkpt lat="42.050508" lon="-7.663680">
        <ele>619.488</ele>
        <time>2019-06-22T12:15:28Z</time>
      </trkpt>
      <trkpt lat="42.050415" lon="-7.663456">
        <ele>619.431</ele>
        <time>2019-06-22T12:15:29Z</time>
      </trkpt>
      <trkpt lat="42.050317" lon="-7.663241">
        <ele>617.995</ele>
        <time>2019-06-22T12:15:30Z</time>
      </trkpt>
      <trkpt lat="42.050216" lon="-7.663046">
        <ele>617.949</ele>
        <time>2019-06-22T12:15:31Z</time>
      </trkpt>
      <trkpt lat="42.050088" lon="-7.662844">
        <ele>619.023</ele>
        <time>2019-06-22T12:15:32Z</time>
      </trkpt>
      <trkpt lat="42.049947" lon="-7.662650">
        <ele>619.108</ele>
        <time>2019-06-22T12:15:33Z</time>
      </trkpt>
      <trkpt lat="42.049801" lon="-7.662488">
        <ele>619.882</ele>
        <time>2019-06-22T12:15:34Z</time>
      </trkpt>
      <trkpt lat="42.049638" lon="-7.662331">
        <ele>621.826</ele>
        <time>2019-06-22T12:15:35Z</time>
      </trkpt>
      <trkpt lat="42.049468" lon="-7.662192">
        <ele>621.858</ele>
        <time>2019-06-22T12:15:36Z</time>
      </trkpt>
      <trkpt lat="42.049266" lon="-7.662086">
        <ele>619.130</ele>
        <time>2019-06-22T12:15:37Z</time>
      </trkpt>
      <trkpt lat="42.049078" lon="-7.661987">
        <ele>619.158</ele>
        <time>2019-06-22T12:15:38Z</time>
      </trkpt>
      <trkpt lat="42.048887" lon="-7.661894">
        <ele>620.027</ele>
        <time>2019-06-22T12:15:39Z</time>
      </trkpt>
      <trkpt lat="42.048692" lon="-7.661777">
        <ele>620.092</ele>
        <time>2019-06-22T12:15:40Z</time>
      </trkpt>
      <trkpt lat="42.048493" lon="-7.661689">
        <ele>621.125</ele>
        <time>2019-06-22T12:15:41Z</time>
      </trkpt>
      <trkpt lat="42.048293" lon="-7.661579">
        <ele>621.165</ele>
        <time>2019-06-22T12:15:42Z</time>
      </trkpt>
      <trkpt lat="42.048098" lon="-7.661473">
        <ele>623.468</ele>
        <time>2019-06-22T12:15:43Z</time>
      </trkpt>
      <trkpt lat="42.047906" lon="-7.661363">
        <ele>623.414</ele>
        <time>2019-06-22T12:15:44Z</time>
      </trkpt>
      <trkpt lat="42.047717" lon="-7.661250">
        <ele>623.308</ele>
        <time>2019-06-22T12:15:45Z</time>
      </trkpt>
      <trkpt lat="42.047546" lon="-7.661140">
        <ele>623.179</ele>
        <time>2019-06-22T12:15:46Z</time>
      </trkpt>
      <trkpt lat="42.047382" lon="-7.661001">
        <ele>623.123</ele>
        <time>2019-06-22T12:15:47Z</time>
      </trkpt>
      <trkpt lat="42.047222" lon="-7.660846">
        <ele>623.195</ele>
        <time>2019-06-22T12:15:48Z</time>
      </trkpt>
      <trkpt lat="42.047070" lon="-7.660673">
        <ele>624.457</ele>
        <time>2019-06-22T12:15:49Z</time>
      </trkpt>
      <trkpt lat="42.046917" lon="-7.660487">
        <ele>624.665</ele>
        <time>2019-06-22T12:15:50Z</time>
      </trkpt>
      <trkpt lat="42.046767" lon="-7.660301">
        <ele>625.164</ele>
        <time>2019-06-22T12:15:51Z</time>
      </trkpt>
      <trkpt lat="42.046619" lon="-7.660118">
        <ele>625.179</ele>
        <time>2019-06-22T12:15:52Z</time>
      </trkpt>
      <trkpt lat="42.046471" lon="-7.659938">
        <ele>625.142</ele>
        <time>2019-06-22T12:15:53Z</time>
      </trkpt>
      <trkpt lat="42.046325" lon="-7.659760">
        <ele>624.483</ele>
        <time>2019-06-22T12:15:54Z</time>
      </trkpt>
      <trkpt lat="42.046183" lon="-7.659585">
        <ele>624.425</ele>
        <time>2019-06-22T12:15:55Z</time>
      </trkpt>
      <trkpt lat="42.046053" lon="-7.659426">
        <ele>624.717</ele>
        <time>2019-06-22T12:15:56Z</time>
      </trkpt>
      <trkpt lat="42.045915" lon="-7.659259">
        <ele>625.808</ele>
        <time>2019-06-22T12:15:57Z</time>
      </trkpt>
      <trkpt lat="42.045779" lon="-7.659100">
        <ele>626.471</ele>
        <time>2019-06-22T12:15:58Z</time>
      </trkpt>
      <trkpt lat="42.045632" lon="-7.658964">
        <ele>627.095</ele>
        <time>2019-06-22T12:15:59Z</time>
      </trkpt>
      <trkpt lat="42.045493" lon="-7.658833">
        <ele>627.237</ele>
        <time>2019-06-22T12:16:00Z</time>
      </trkpt>
      <trkpt lat="42.045364" lon="-7.658719">
        <ele>627.249</ele>
        <time>2019-06-22T12:16:01Z</time>
      </trkpt>
      <trkpt lat="42.045241" lon="-7.658609">
        <ele>627.177</ele>
        <time>2019-06-22T12:16:02Z</time>
      </trkpt>
      <trkpt lat="42.045130" lon="-7.658516">
        <ele>627.196</ele>
        <time>2019-06-22T12:16:03Z</time>
      </trkpt>
      <trkpt lat="42.045031" lon="-7.658426">
        <ele>627.881</ele>
        <time>2019-06-22T12:16:04Z</time>
      </trkpt>
      <trkpt lat="42.044930" lon="-7.658336">
        <ele>629.374</ele>
        <time>2019-06-22T12:16:05Z</time>
      </trkpt>
      <trkpt lat="42.044819" lon="-7.658237">
        <ele>629.989</ele>
        <time>2019-06-22T12:16:06Z</time>
      </trkpt>
      <trkpt lat="42.044707" lon="-7.658129">
        <ele>631.806</ele>
        <time>2019-06-22T12:16:07Z</time>
      </trkpt>
      <trkpt lat="42.044593" lon="-7.658022">
        <ele>631.826</ele>
        <time>2019-06-22T12:16:08Z</time>
      </trkpt>
      <trkpt lat="42.044470" lon="-7.657906">
        <ele>632.208</ele>
        <time>2019-06-22T12:16:09Z</time>
      </trkpt>
      <trkpt lat="42.044333" lon="-7.657782">
        <ele>632.221</ele>
        <time>2019-06-22T12:16:10Z</time>
      </trkpt>
      <trkpt lat="42.044205" lon="-7.657666">
        <ele>631.875</ele>
        <time>2019-06-22T12:16:11Z</time>
      </trkpt>
      <trkpt lat="42.044071" lon="-7.657550">
        <ele>631.777</ele>
        <time>2019-06-22T12:16:12Z</time>
      </trkpt>
      <trkpt lat="42.043937" lon="-7.657419">
        <ele>631.419</ele>
        <time>2019-06-22T12:16:13Z</time>
      </trkpt>
      <trkpt lat="42.043800" lon="-7.657279">
        <ele>631.417</ele>
        <time>2019-06-22T12:16:14Z</time>
      </trkpt>
      <trkpt lat="42.043665" lon="-7.657137">
        <ele>631.476</ele>
        <time>2019-06-22T12:16:15Z</time>
      </trkpt>
      <trkpt lat="42.043541" lon="-7.656949">
        <ele>632.111</ele>
        <time>2019-06-22T12:16:16Z</time>
      </trkpt>
      <trkpt lat="42.043428" lon="-7.656745">
        <ele>632.334</ele>
        <time>2019-06-22T12:16:17Z</time>
      </trkpt>
      <trkpt lat="42.043309" lon="-7.656546">
        <ele>632.357</ele>
        <time>2019-06-22T12:16:18Z</time>
      </trkpt>
      <trkpt lat="42.043181" lon="-7.656327">
        <ele>632.300</ele>
        <time>2019-06-22T12:16:19Z</time>
      </trkpt>
      <trkpt lat="42.043055" lon="-7.656110">
        <ele>632.220</ele>
        <time>2019-06-22T12:16:20Z</time>
      </trkpt>
      <trkpt lat="42.042944" lon="-7.655915">
        <ele>631.308</ele>
        <time>2019-06-22T12:16:21Z</time>
      </trkpt>
      <trkpt lat="42.042803" lon="-7.655695">
        <ele>630.938</ele>
        <time>2019-06-22T12:16:22Z</time>
      </trkpt>
      <trkpt lat="42.042669" lon="-7.655475">
        <ele>630.822</ele>
        <time>2019-06-22T12:16:23Z</time>
      </trkpt>
      <trkpt lat="42.042528" lon="-7.655250">
        <ele>630.534</ele>
        <time>2019-06-22T12:16:24Z</time>
      </trkpt>
      <trkpt lat="42.042393" lon="-7.655018">
        <ele>629.326</ele>
        <time>2019-06-22T12:16:25Z</time>
      </trkpt>
      <trkpt lat="42.042256" lon="-7.654803">
        <ele>629.314</ele>
        <time>2019-06-22T12:16:26Z</time>
      </trkpt>
      <trkpt lat="42.042114" lon="-7.654575">
        <ele>630.393</ele>
        <time>2019-06-22T12:16:27Z</time>
      </trkpt>
      <trkpt lat="42.041977" lon="-7.654339">
        <ele>631.398</ele>
        <time>2019-06-22T12:16:28Z</time>
      </trkpt>
      <trkpt lat="42.041834" lon="-7.654102">
        <ele>632.741</ele>
        <time>2019-06-22T12:16:29Z</time>
      </trkpt>
      <trkpt lat="42.041705" lon="-7.653868">
        <ele>635.619</ele>
        <time>2019-06-22T12:16:30Z</time>
      </trkpt>
      <trkpt lat="42.041574" lon="-7.653634">
        <ele>637.709</ele>
        <time>2019-06-22T12:16:31Z</time>
      </trkpt>
      <trkpt lat="42.041444" lon="-7.653399">
        <ele>639.219</ele>
        <time>2019-06-22T12:16:32Z</time>
      </trkpt>
      <trkpt lat="42.041310" lon="-7.653176">
        <ele>640.108</ele>
        <time>2019-06-22T12:16:33Z</time>
      </trkpt>
      <trkpt lat="42.041182" lon="-7.652968">
        <ele>640.184</ele>
        <time>2019-06-22T12:16:34Z</time>
      </trkpt>
      <trkpt lat="42.041046" lon="-7.652741">
        <ele>640.058</ele>
        <time>2019-06-22T12:16:35Z</time>
      </trkpt>
      <trkpt lat="42.040905" lon="-7.652517">
        <ele>640.060</ele>
        <time>2019-06-22T12:16:36Z</time>
      </trkpt>
      <trkpt lat="42.040751" lon="-7.652295">
        <ele>639.992</ele>
        <time>2019-06-22T12:16:37Z</time>
      </trkpt>
      <trkpt lat="42.040596" lon="-7.652055">
        <ele>639.680</ele>
        <time>2019-06-22T12:16:38Z</time>
      </trkpt>
      <trkpt lat="42.040440" lon="-7.651837">
        <ele>639.519</ele>
        <time>2019-06-22T12:16:39Z</time>
      </trkpt>
      <trkpt lat="42.040293" lon="-7.651640">
        <ele>639.574</ele>
        <time>2019-06-22T12:16:40Z</time>
      </trkpt>
      <trkpt lat="42.040142" lon="-7.651410">
        <ele>639.587</ele>
        <time>2019-06-22T12:16:41Z</time>
      </trkpt>
      <trkpt lat="42.039992" lon="-7.651181">
        <ele>638.166</ele>
        <time>2019-06-22T12:16:42Z</time>
      </trkpt>
      <trkpt lat="42.039825" lon="-7.650938">
        <ele>636.829</ele>
        <time>2019-06-22T12:16:43Z</time>
      </trkpt>
      <trkpt lat="42.039668" lon="-7.650709">
        <ele>635.821</ele>
        <time>2019-06-22T12:16:44Z</time>
      </trkpt>
      <trkpt lat="42.039511" lon="-7.650483">
        <ele>633.608</ele>
        <time>2019-06-22T12:16:45Z</time>
      </trkpt>
      <trkpt lat="42.039358" lon="-7.650252">
        <ele>631.989</ele>
        <time>2019-06-22T12:16:46Z</time>
      </trkpt>
      <trkpt lat="42.039198" lon="-7.650018">
        <ele>631.713</ele>
        <time>2019-06-22T12:16:47Z</time>
      </trkpt>
      <trkpt lat="42.039035" lon="-7.649774">
        <ele>631.495</ele>
        <time>2019-06-22T12:16:48Z</time>
      </trkpt>
      <trkpt lat="42.038882" lon="-7.649546">
        <ele>631.417</ele>
        <time>2019-06-22T12:16:49Z</time>
      </trkpt>
      <trkpt lat="42.038725" lon="-7.649315">
        <ele>630.795</ele>
        <time>2019-06-22T12:16:50Z</time>
      </trkpt>
      <trkpt lat="42.038581" lon="-7.649091">
        <ele>629.614</ele>
        <time>2019-06-22T12:16:51Z</time>
      </trkpt>
      <trkpt lat="42.038428" lon="-7.648862">
        <ele>628.959</ele>
        <time>2019-06-22T12:16:52Z</time>
      </trkpt>
      <trkpt lat="42.038282" lon="-7.648634">
        <ele>628.272</ele>
        <time>2019-06-22T12:16:53Z</time>
      </trkpt>
      <trkpt lat="42.038146" lon="-7.648402">
        <ele>628.293</ele>
        <time>2019-06-22T12:16:54Z</time>
      </trkpt>
      <trkpt lat="42.038022" lon="-7.648157">
        <ele>628.365</ele>
        <time>2019-06-22T12:16:55Z</time>
      </trkpt>
      <trkpt lat="42.037906" lon="-7.647904">
        <ele>629.721</ele>
        <time>2019-06-22T12:16:56Z</time>
      </trkpt>
      <trkpt lat="42.037794" lon="-7.647640">
        <ele>630.408</ele>
        <time>2019-06-22T12:16:57Z</time>
      </trkpt>
      <trkpt lat="42.037683" lon="-7.647376">
        <ele>630.842</ele>
        <time>2019-06-22T12:16:58Z</time>
      </trkpt>
      <trkpt lat="42.037570" lon="-7.647105">
        <ele>631.626</ele>
        <time>2019-06-22T12:16:59Z</time>
      </trkpt>
      <trkpt lat="42.037445" lon="-7.646807">
        <ele>631.648</ele>
        <time>2019-06-22T12:17:00Z</time>
      </trkpt>
      <trkpt lat="42.037327" lon="-7.646531">
        <ele>630.960</ele>
        <time>2019-06-22T12:17:01Z</time>
      </trkpt>
      <trkpt lat="42.037217" lon="-7.646251">
        <ele>630.968</ele>
        <time>2019-06-22T12:17:02Z</time>
      </trkpt>
      <trkpt lat="42.037109" lon="-7.645962">
        <ele>630.937</ele>
        <time>2019-06-22T12:17:03Z</time>
      </trkpt>
      <trkpt lat="42.036999" lon="-7.645673">
        <ele>630.572</ele>
        <time>2019-06-22T12:17:04Z</time>
      </trkpt>
      <trkpt lat="42.036881" lon="-7.645378">
        <ele>629.335</ele>
        <time>2019-06-22T12:17:05Z</time>
      </trkpt>
      <trkpt lat="42.036763" lon="-7.645080">
        <ele>628.143</ele>
        <time>2019-06-22T12:17:06Z</time>
      </trkpt>
      <trkpt lat="42.036637" lon="-7.644769">
        <ele>626.864</ele>
        <time>2019-06-22T12:17:07Z</time>
      </trkpt>
      <trkpt lat="42.036513" lon="-7.644460">
        <ele>623.210</ele>
        <time>2019-06-22T12:17:08Z</time>
      </trkpt>
      <trkpt lat="42.036389" lon="-7.644154">
        <ele>619.308</ele>
        <time>2019-06-22T12:17:09Z</time>
      </trkpt>
      <trkpt lat="42.036251" lon="-7.643867">
        <ele>614.927</ele>
        <time>2019-06-22T12:17:10Z</time>
      </trkpt>
      <trkpt lat="42.036126" lon="-7.643565">
        <ele>612.571</ele>
        <time>2019-06-22T12:17:11Z</time>
      </trkpt>
      <trkpt lat="42.036001" lon="-7.643261">
        <ele>610.033</ele>
        <time>2019-06-22T12:17:12Z</time>
      </trkpt>
      <trkpt lat="42.035885" lon="-7.642957">
        <ele>610.035</ele>
        <time>2019-06-22T12:17:13Z</time>
      </trkpt>
      <trkpt lat="42.035765" lon="-7.642655">
        <ele>610.693</ele>
        <time>2019-06-22T12:17:14Z</time>
      </trkpt>
      <trkpt lat="42.035649" lon="-7.642356">
        <ele>611.422</ele>
        <time>2019-06-22T12:17:15Z</time>
      </trkpt>
      <trkpt lat="42.035538" lon="-7.642072">
        <ele>611.987</ele>
        <time>2019-06-22T12:17:16Z</time>
      </trkpt>
      <trkpt lat="42.035423" lon="-7.641780">
        <ele>612.210</ele>
        <time>2019-06-22T12:17:17Z</time>
      </trkpt>
      <trkpt lat="42.035308" lon="-7.641490">
        <ele>612.222</ele>
        <time>2019-06-22T12:17:18Z</time>
      </trkpt>
      <trkpt lat="42.035202" lon="-7.641226">
        <ele>609.962</ele>
        <time>2019-06-22T12:17:19Z</time>
      </trkpt>
      <trkpt lat="42.035085" lon="-7.640937">
        <ele>609.708</ele>
        <time>2019-06-22T12:17:20Z</time>
      </trkpt>
      <trkpt lat="42.034980" lon="-7.640664">
        <ele>609.308</ele>
        <time>2019-06-22T12:17:21Z</time>
      </trkpt>
      <trkpt lat="42.034871" lon="-7.640387">
        <ele>608.125</ele>
        <time>2019-06-22T12:17:22Z</time>
      </trkpt>
      <trkpt lat="42.034771" lon="-7.640125">
        <ele>608.159</ele>
        <time>2019-06-22T12:17:23Z</time>
      </trkpt>
      <trkpt lat="42.034660" lon="-7.639849">
        <ele>610.151</ele>
        <time>2019-06-22T12:17:24Z</time>
      </trkpt>
      <trkpt lat="42.034563" lon="-7.639625">
        <ele>611.053</ele>
        <time>2019-06-22T12:17:25Z</time>
      </trkpt>
      <trkpt lat="42.034452" lon="-7.639350">
        <ele>611.371</ele>
        <time>2019-06-22T12:17:26Z</time>
      </trkpt>
      <trkpt lat="42.034358" lon="-7.639126">
        <ele>611.860</ele>
        <time>2019-06-22T12:17:27Z</time>
      </trkpt>
      <trkpt lat="42.034246" lon="-7.638841">
        <ele>612.155</ele>
        <time>2019-06-22T12:17:28Z</time>
      </trkpt>
      <trkpt lat="42.034128" lon="-7.638556">
        <ele>612.348</ele>
        <time>2019-06-22T12:17:29Z</time>
      </trkpt>
      <trkpt lat="42.034022" lon="-7.638296">
        <ele>612.315</ele>
        <time>2019-06-22T12:17:30Z</time>
      </trkpt>
      <trkpt lat="42.033909" lon="-7.638021">
        <ele>612.465</ele>
        <time>2019-06-22T12:17:31Z</time>
      </trkpt>
      <trkpt lat="42.033798" lon="-7.637737">
        <ele>612.411</ele>
        <time>2019-06-22T12:17:32Z</time>
      </trkpt>
      <trkpt lat="42.033689" lon="-7.637467">
        <ele>612.808</ele>
        <time>2019-06-22T12:17:33Z</time>
      </trkpt>
      <trkpt lat="42.033589" lon="-7.637215">
        <ele>612.854</ele>
        <time>2019-06-22T12:17:34Z</time>
      </trkpt>
      <trkpt lat="42.033480" lon="-7.636943">
        <ele>612.898</ele>
        <time>2019-06-22T12:17:35Z</time>
      </trkpt>
      <trkpt lat="42.033370" lon="-7.636658">
        <ele>613.470</ele>
        <time>2019-06-22T12:17:36Z</time>
      </trkpt>
      <trkpt lat="42.033259" lon="-7.636361">
        <ele>613.442</ele>
        <time>2019-06-22T12:17:37Z</time>
      </trkpt>
      <trkpt lat="42.033145" lon="-7.636074">
        <ele>613.450</ele>
        <time>2019-06-22T12:17:38Z</time>
      </trkpt>
      <trkpt lat="42.033024" lon="-7.635780">
        <ele>612.599</ele>
        <time>2019-06-22T12:17:39Z</time>
      </trkpt>
      <trkpt lat="42.032910" lon="-7.635489">
        <ele>612.154</ele>
        <time>2019-06-22T12:17:40Z</time>
      </trkpt>
      <trkpt lat="42.032784" lon="-7.635179">
        <ele>612.097</ele>
        <time>2019-06-22T12:17:41Z</time>
      </trkpt>
      <trkpt lat="42.032673" lon="-7.634893">
        <ele>612.057</ele>
        <time>2019-06-22T12:17:42Z</time>
      </trkpt>
      <trkpt lat="42.032556" lon="-7.634590">
        <ele>612.100</ele>
        <time>2019-06-22T12:17:43Z</time>
      </trkpt>
      <trkpt lat="42.032441" lon="-7.634296">
        <ele>612.920</ele>
        <time>2019-06-22T12:17:44Z</time>
      </trkpt>
      <trkpt lat="42.032328" lon="-7.634005">
        <ele>613.808</ele>
        <time>2019-06-22T12:17:45Z</time>
      </trkpt>
      <trkpt lat="42.032216" lon="-7.633716">
        <ele>614.328</ele>
        <time>2019-06-22T12:17:46Z</time>
      </trkpt>
      <trkpt lat="42.032098" lon="-7.633411">
        <ele>614.642</ele>
        <time>2019-06-22T12:17:47Z</time>
      </trkpt>
      <trkpt lat="42.031980" lon="-7.633110">
        <ele>614.374</ele>
        <time>2019-06-22T12:17:48Z</time>
      </trkpt>
      <trkpt lat="42.031863" lon="-7.632814">
        <ele>613.376</ele>
        <time>2019-06-22T12:17:49Z</time>
      </trkpt>
      <trkpt lat="42.031749" lon="-7.632530">
        <ele>611.714</ele>
        <time>2019-06-22T12:17:50Z</time>
      </trkpt>
      <trkpt lat="42.031629" lon="-7.632225">
        <ele>610.533</ele>
        <time>2019-06-22T12:17:51Z</time>
      </trkpt>
      <trkpt lat="42.031514" lon="-7.631935">
        <ele>609.928</ele>
        <time>2019-06-22T12:17:52Z</time>
      </trkpt>
      <trkpt lat="42.031397" lon="-7.631632">
        <ele>609.691</ele>
        <time>2019-06-22T12:17:53Z</time>
      </trkpt>
      <trkpt lat="42.031278" lon="-7.631336">
        <ele>609.637</ele>
        <time>2019-06-22T12:17:54Z</time>
      </trkpt>
      <trkpt lat="42.031156" lon="-7.631028">
        <ele>609.749</ele>
        <time>2019-06-22T12:17:55Z</time>
      </trkpt>
      <trkpt lat="42.031038" lon="-7.630734">
        <ele>609.913</ele>
        <time>2019-06-22T12:17:56Z</time>
      </trkpt>
      <trkpt lat="42.030916" lon="-7.630433">
        <ele>610.708</ele>
        <time>2019-06-22T12:17:57Z</time>
      </trkpt>
      <trkpt lat="42.030791" lon="-7.630117">
        <ele>611.046</ele>
        <time>2019-06-22T12:17:58Z</time>
      </trkpt>
      <trkpt lat="42.030672" lon="-7.629817">
        <ele>611.910</ele>
        <time>2019-06-22T12:17:59Z</time>
      </trkpt>
      <trkpt lat="42.030550" lon="-7.629518">
        <ele>612.152</ele>
        <time>2019-06-22T12:18:00Z</time>
      </trkpt>
      <trkpt lat="42.030429" lon="-7.629218">
        <ele>613.694</ele>
        <time>2019-06-22T12:18:01Z</time>
      </trkpt>
      <trkpt lat="42.030306" lon="-7.628912">
        <ele>614.172</ele>
        <time>2019-06-22T12:18:02Z</time>
      </trkpt>
      <trkpt lat="42.030188" lon="-7.628608">
        <ele>614.181</ele>
        <time>2019-06-22T12:18:03Z</time>
      </trkpt>
      <trkpt lat="42.030073" lon="-7.628317">
        <ele>614.326</ele>
        <time>2019-06-22T12:18:04Z</time>
      </trkpt>
      <trkpt lat="42.029953" lon="-7.628018">
        <ele>614.679</ele>
        <time>2019-06-22T12:18:05Z</time>
      </trkpt>
      <trkpt lat="42.029835" lon="-7.627713">
        <ele>615.287</ele>
        <time>2019-06-22T12:18:06Z</time>
      </trkpt>
      <trkpt lat="42.029714" lon="-7.627414">
        <ele>615.742</ele>
        <time>2019-06-22T12:18:07Z</time>
      </trkpt>
      <trkpt lat="42.029597" lon="-7.627117">
        <ele>616.026</ele>
        <time>2019-06-22T12:18:08Z</time>
      </trkpt>
      <trkpt lat="42.029479" lon="-7.626823">
        <ele>616.908</ele>
        <time>2019-06-22T12:18:09Z</time>
      </trkpt>
      <trkpt lat="42.029365" lon="-7.626537">
        <ele>617.591</ele>
        <time>2019-06-22T12:18:10Z</time>
      </trkpt>
      <trkpt lat="42.029257" lon="-7.626256">
        <ele>618.675</ele>
        <time>2019-06-22T12:18:11Z</time>
      </trkpt>
      <trkpt lat="42.029150" lon="-7.625973">
        <ele>619.037</ele>
        <time>2019-06-22T12:18:12Z</time>
      </trkpt>
      <trkpt lat="42.029043" lon="-7.625695">
        <ele>619.379</ele>
        <time>2019-06-22T12:18:13Z</time>
      </trkpt>
      <trkpt lat="42.028936" lon="-7.625423">
        <ele>619.317</ele>
        <time>2019-06-22T12:18:14Z</time>
      </trkpt>
      <trkpt lat="42.028834" lon="-7.625155">
        <ele>619.316</ele>
        <time>2019-06-22T12:18:15Z</time>
      </trkpt>
      <trkpt lat="42.028728" lon="-7.624893">
        <ele>620.891</ele>
        <time>2019-06-22T12:18:16Z</time>
      </trkpt>
      <trkpt lat="42.028625" lon="-7.624632">
        <ele>620.864</ele>
        <time>2019-06-22T12:18:17Z</time>
      </trkpt>
      <trkpt lat="42.028527" lon="-7.624386">
        <ele>619.859</ele>
        <time>2019-06-22T12:18:18Z</time>
      </trkpt>
      <trkpt lat="42.028427" lon="-7.624130">
        <ele>619.703</ele>
        <time>2019-06-22T12:18:19Z</time>
      </trkpt>
      <trkpt lat="42.028331" lon="-7.623900">
        <ele>619.823</ele>
        <time>2019-06-22T12:18:20Z</time>
      </trkpt>
      <trkpt lat="42.028235" lon="-7.623685">
        <ele>619.908</ele>
        <time>2019-06-22T12:18:21Z</time>
      </trkpt>
      <trkpt lat="42.028137" lon="-7.623465">
        <ele>620.098</ele>
        <time>2019-06-22T12:18:22Z</time>
      </trkpt>
      <trkpt lat="42.028047" lon="-7.623270">
        <ele>621.542</ele>
        <time>2019-06-22T12:18:23Z</time>
      </trkpt>
      <trkpt lat="42.027951" lon="-7.623074">
        <ele>623.424</ele>
        <time>2019-06-22T12:18:24Z</time>
      </trkpt>
      <trkpt lat="42.027854" lon="-7.622870">
        <ele>625.366</ele>
        <time>2019-06-22T12:18:25Z</time>
      </trkpt>
      <trkpt lat="42.027748" lon="-7.622672">
        <ele>625.884</ele>
        <time>2019-06-22T12:18:26Z</time>
      </trkpt>
      <trkpt lat="42.027648" lon="-7.622472">
        <ele>627.353</ele>
        <time>2019-06-22T12:18:27Z</time>
      </trkpt>
      <trkpt lat="42.027548" lon="-7.622277">
        <ele>627.868</ele>
        <time>2019-06-22T12:18:28Z</time>
      </trkpt>
      <trkpt lat="42.027448" lon="-7.622091">
        <ele>627.891</ele>
        <time>2019-06-22T12:18:29Z</time>
      </trkpt>
      <trkpt lat="42.027343" lon="-7.621917">
        <ele>627.884</ele>
        <time>2019-06-22T12:18:30Z</time>
      </trkpt>
      <trkpt lat="42.027244" lon="-7.621748">
        <ele>627.507</ele>
        <time>2019-06-22T12:18:31Z</time>
      </trkpt>
      <trkpt lat="42.027143" lon="-7.621560">
        <ele>627.517</ele>
        <time>2019-06-22T12:18:32Z</time>
      </trkpt>
      <trkpt lat="42.027045" lon="-7.621383">
        <ele>627.908</ele>
        <time>2019-06-22T12:18:33Z</time>
      </trkpt>
      <trkpt lat="42.026951" lon="-7.621215">
        <ele>628.621</ele>
        <time>2019-06-22T12:18:34Z</time>
      </trkpt>
      <trkpt lat="42.026855" lon="-7.621050">
        <ele>629.435</ele>
        <time>2019-06-22T12:18:35Z</time>
      </trkpt>
      <trkpt lat="42.026755" lon="-7.620869">
        <ele>629.617</ele>
        <time>2019-06-22T12:18:36Z</time>
      </trkpt>
      <trkpt lat="42.026656" lon="-7.620672">
        <ele>629.829</ele>
        <time>2019-06-22T12:18:37Z</time>
      </trkpt>
      <trkpt lat="42.026559" lon="-7.620452">
        <ele>630.237</ele>
        <time>2019-06-22T12:18:38Z</time>
      </trkpt>
      <trkpt lat="42.026452" lon="-7.620224">
        <ele>630.356</ele>
        <time>2019-06-22T12:18:39Z</time>
      </trkpt>
      <trkpt lat="42.026345" lon="-7.619994">
        <ele>631.081</ele>
        <time>2019-06-22T12:18:40Z</time>
      </trkpt>
      <trkpt lat="42.026231" lon="-7.619759">
        <ele>631.544</ele>
        <time>2019-06-22T12:18:41Z</time>
      </trkpt>
      <trkpt lat="42.026117" lon="-7.619521">
        <ele>631.571</ele>
        <time>2019-06-22T12:18:42Z</time>
      </trkpt>
      <trkpt lat="42.025998" lon="-7.619282">
        <ele>631.441</ele>
        <time>2019-06-22T12:18:43Z</time>
      </trkpt>
      <trkpt lat="42.025884" lon="-7.619042">
        <ele>630.315</ele>
        <time>2019-06-22T12:18:44Z</time>
      </trkpt>
      <trkpt lat="42.025767" lon="-7.618804">
        <ele>630.108</ele>
        <time>2019-06-22T12:18:45Z</time>
      </trkpt>
      <trkpt lat="42.025659" lon="-7.618587">
        <ele>629.910</ele>
        <time>2019-06-22T12:18:46Z</time>
      </trkpt>
      <trkpt lat="42.025549" lon="-7.618342">
        <ele>629.814</ele>
        <time>2019-06-22T12:18:47Z</time>
      </trkpt>
      <trkpt lat="42.025441" lon="-7.618107">
        <ele>629.996</ele>
        <time>2019-06-22T12:18:48Z</time>
      </trkpt>
      <trkpt lat="42.025329" lon="-7.617868">
        <ele>630.118</ele>
        <time>2019-06-22T12:18:49Z</time>
      </trkpt>
      <trkpt lat="42.025224" lon="-7.617625">
        <ele>630.196</ele>
        <time>2019-06-22T12:18:50Z</time>
      </trkpt>
      <trkpt lat="42.025122" lon="-7.617388">
        <ele>629.915</ele>
        <time>2019-06-22T12:18:51Z</time>
      </trkpt>
      <trkpt lat="42.025015" lon="-7.617174">
        <ele>629.970</ele>
        <time>2019-06-22T12:18:52Z</time>
      </trkpt>
      <trkpt lat="42.024900" lon="-7.616935">
        <ele>629.623</ele>
        <time>2019-06-22T12:18:53Z</time>
      </trkpt>
      <trkpt lat="42.024787" lon="-7.616704">
        <ele>629.677</ele>
        <time>2019-06-22T12:18:54Z</time>
      </trkpt>
      <trkpt lat="42.024682" lon="-7.616474">
        <ele>629.861</ele>
        <time>2019-06-22T12:18:55Z</time>
      </trkpt>
      <trkpt lat="42.024577" lon="-7.616249">
        <ele>630.227</ele>
        <time>2019-06-22T12:18:56Z</time>
      </trkpt>
      <trkpt lat="42.024473" lon="-7.616045">
        <ele>630.208</ele>
        <time>2019-06-22T12:18:57Z</time>
      </trkpt>
      <trkpt lat="42.024362" lon="-7.615849">
        <ele>629.520</ele>
        <time>2019-06-22T12:18:58Z</time>
      </trkpt>
      <trkpt lat="42.024235" lon="-7.615652">
        <ele>628.694</ele>
        <time>2019-06-22T12:18:59Z</time>
      </trkpt>
      <trkpt lat="42.024084" lon="-7.615468">
        <ele>628.456</ele>
        <time>2019-06-22T12:19:00Z</time>
      </trkpt>
      <trkpt lat="42.023943" lon="-7.615295">
        <ele>628.468</ele>
        <time>2019-06-22T12:19:01Z</time>
      </trkpt>
      <trkpt lat="42.023789" lon="-7.615129">
        <ele>630.336</ele>
        <time>2019-06-22T12:19:02Z</time>
      </trkpt>
      <trkpt lat="42.023640" lon="-7.614969">
        <ele>632.165</ele>
        <time>2019-06-22T12:19:03Z</time>
      </trkpt>
      <trkpt lat="42.023503" lon="-7.614822">
        <ele>633.580</ele>
        <time>2019-06-22T12:19:04Z</time>
      </trkpt>
      <trkpt lat="42.023362" lon="-7.614669">
        <ele>633.693</ele>
        <time>2019-06-22T12:19:05Z</time>
      </trkpt>
      <trkpt lat="42.023213" lon="-7.614512">
        <ele>633.627</ele>
        <time>2019-06-22T12:19:06Z</time>
      </trkpt>
      <trkpt lat="42.023063" lon="-7.614338">
        <ele>633.168</ele>
        <time>2019-06-22T12:19:07Z</time>
      </trkpt>
      <trkpt lat="42.022916" lon="-7.614170">
        <ele>633.114</ele>
        <time>2019-06-22T12:19:08Z</time>
      </trkpt>
      <trkpt lat="42.022775" lon="-7.613977">
        <ele>633.008</ele>
        <time>2019-06-22T12:19:09Z</time>
      </trkpt>
      <trkpt lat="42.022628" lon="-7.613759">
        <ele>633.075</ele>
        <time>2019-06-22T12:19:10Z</time>
      </trkpt>
      <trkpt lat="42.022496" lon="-7.613541">
        <ele>631.639</ele>
        <time>2019-06-22T12:19:11Z</time>
      </trkpt>
      <trkpt lat="42.022354" lon="-7.613304">
        <ele>630.891</ele>
        <time>2019-06-22T12:19:12Z</time>
      </trkpt>
      <trkpt lat="42.022216" lon="-7.613075">
        <ele>630.163</ele>
        <time>2019-06-22T12:19:13Z</time>
      </trkpt>
      <trkpt lat="42.022066" lon="-7.612823">
        <ele>628.541</ele>
        <time>2019-06-22T12:19:14Z</time>
      </trkpt>
      <trkpt lat="42.021910" lon="-7.612581">
        <ele>628.590</ele>
        <time>2019-06-22T12:19:15Z</time>
      </trkpt>
      <trkpt lat="42.021757" lon="-7.612327">
        <ele>628.565</ele>
        <time>2019-06-22T12:19:16Z</time>
      </trkpt>
      <trkpt lat="42.021603" lon="-7.612078">
        <ele>628.378</ele>
        <time>2019-06-22T12:19:17Z</time>
      </trkpt>
      <trkpt lat="42.021453" lon="-7.611818">
        <ele>627.966</ele>
        <time>2019-06-22T12:19:18Z</time>
      </trkpt>
      <trkpt lat="42.021298" lon="-7.611575">
        <ele>626.829</ele>
        <time>2019-06-22T12:19:19Z</time>
      </trkpt>
      <trkpt lat="42.021147" lon="-7.611331">
        <ele>625.621</ele>
        <time>2019-06-22T12:19:20Z</time>
      </trkpt>
      <trkpt lat="42.020999" lon="-7.611093">
        <ele>623.008</ele>
        <time>2019-06-22T12:19:21Z</time>
      </trkpt>
      <trkpt lat="42.020847" lon="-7.610844">
        <ele>623.089</ele>
        <time>2019-06-22T12:19:22Z</time>
      </trkpt>
      <trkpt lat="42.020696" lon="-7.610599">
        <ele>623.033</ele>
        <time>2019-06-22T12:19:23Z</time>
      </trkpt>
      <trkpt lat="42.020547" lon="-7.610349">
        <ele>624.935</ele>
        <time>2019-06-22T12:19:24Z</time>
      </trkpt>
      <trkpt lat="42.020392" lon="-7.610109">
        <ele>625.837</ele>
        <time>2019-06-22T12:19:25Z</time>
      </trkpt>
      <trkpt lat="42.020241" lon="-7.609859">
        <ele>627.155</ele>
        <time>2019-06-22T12:19:26Z</time>
      </trkpt>
      <trkpt lat="42.020097" lon="-7.609604">
        <ele>627.164</ele>
        <time>2019-06-22T12:19:27Z</time>
      </trkpt>
      <trkpt lat="42.019948" lon="-7.609371">
        <ele>627.189</ele>
        <time>2019-06-22T12:19:28Z</time>
      </trkpt>
      <trkpt lat="42.019803" lon="-7.609128">
        <ele>625.862</ele>
        <time>2019-06-22T12:19:29Z</time>
      </trkpt>
      <trkpt lat="42.019660" lon="-7.608895">
        <ele>625.826</ele>
        <time>2019-06-22T12:19:30Z</time>
      </trkpt>
      <trkpt lat="42.019514" lon="-7.608662">
        <ele>625.847</ele>
        <time>2019-06-22T12:19:31Z</time>
      </trkpt>
      <trkpt lat="42.019370" lon="-7.608423">
        <ele>625.611</ele>
        <time>2019-06-22T12:19:32Z</time>
      </trkpt>
      <trkpt lat="42.019224" lon="-7.608181">
        <ele>625.208</ele>
        <time>2019-06-22T12:19:33Z</time>
      </trkpt>
      <trkpt lat="42.019071" lon="-7.607948">
        <ele>625.065</ele>
        <time>2019-06-22T12:19:34Z</time>
      </trkpt>
      <trkpt lat="42.018922" lon="-7.607720">
        <ele>624.169</ele>
        <time>2019-06-22T12:19:35Z</time>
      </trkpt>
      <trkpt lat="42.018774" lon="-7.607482">
        <ele>623.541</ele>
        <time>2019-06-22T12:19:36Z</time>
      </trkpt>
      <trkpt lat="42.018624" lon="-7.607235">
        <ele>623.553</ele>
        <time>2019-06-22T12:19:37Z</time>
      </trkpt>
      <trkpt lat="42.018469" lon="-7.606986">
        <ele>623.961</ele>
        <time>2019-06-22T12:19:38Z</time>
      </trkpt>
      <trkpt lat="42.018311" lon="-7.606744">
        <ele>624.220</ele>
        <time>2019-06-22T12:19:39Z</time>
      </trkpt>
      <trkpt lat="42.018160" lon="-7.606499">
        <ele>625.155</ele>
        <time>2019-06-22T12:19:40Z</time>
      </trkpt>
      <trkpt lat="42.018015" lon="-7.606254">
        <ele>625.818</ele>
        <time>2019-06-22T12:19:41Z</time>
      </trkpt>
      <trkpt lat="42.017863" lon="-7.606010">
        <ele>626.192</ele>
        <time>2019-06-22T12:19:42Z</time>
      </trkpt>
      <trkpt lat="42.017713" lon="-7.605769">
        <ele>626.873</ele>
        <time>2019-06-22T12:19:43Z</time>
      </trkpt>
      <trkpt lat="42.017568" lon="-7.605530">
        <ele>627.420</ele>
        <time>2019-06-22T12:19:44Z</time>
      </trkpt>
      <trkpt lat="42.017416" lon="-7.605289">
        <ele>627.608</ele>
        <time>2019-06-22T12:19:45Z</time>
      </trkpt>
      <trkpt lat="42.017270" lon="-7.605042">
        <ele>627.692</ele>
        <time>2019-06-22T12:19:46Z</time>
      </trkpt>
      <trkpt lat="42.017131" lon="-7.604809">
        <ele>627.626</ele>
        <time>2019-06-22T12:19:47Z</time>
      </trkpt>
      <trkpt lat="42.016991" lon="-7.604564">
        <ele>627.128</ele>
        <time>2019-06-22T12:19:48Z</time>
      </trkpt>
      <trkpt lat="42.016852" lon="-7.604322">
        <ele>627.170</ele>
        <time>2019-06-22T12:19:49Z</time>
      </trkpt>
      <trkpt lat="42.016716" lon="-7.604096">
        <ele>625.918</ele>
        <time>2019-06-22T12:19:50Z</time>
      </trkpt>
      <trkpt lat="42.016577" lon="-7.603877">
        <ele>624.477</ele>
        <time>2019-06-22T12:19:51Z</time>
      </trkpt>
      <trkpt lat="42.016438" lon="-7.603647">
        <ele>622.132</ele>
        <time>2019-06-22T12:19:52Z</time>
      </trkpt>
      <trkpt lat="42.016302" lon="-7.603419">
        <ele>622.125</ele>
        <time>2019-06-22T12:19:53Z</time>
      </trkpt>
      <trkpt lat="42.016170" lon="-7.603198">
        <ele>621.918</ele>
        <time>2019-06-22T12:19:54Z</time>
      </trkpt>
      <trkpt lat="42.016037" lon="-7.602979">
        <ele>621.998</ele>
        <time>2019-06-22T12:19:55Z</time>
      </trkpt>
      <trkpt lat="42.015903" lon="-7.602754">
        <ele>624.217</ele>
        <time>2019-06-22T12:19:56Z</time>
      </trkpt>
      <trkpt lat="42.015777" lon="-7.602544">
        <ele>625.708</ele>
        <time>2019-06-22T12:19:57Z</time>
      </trkpt>
      <trkpt lat="42.015658" lon="-7.602345">
        <ele>626.764</ele>
        <time>2019-06-22T12:19:58Z</time>
      </trkpt>
      <trkpt lat="42.015543" lon="-7.602155">
        <ele>627.778</ele>
        <time>2019-06-22T12:19:59Z</time>
      </trkpt>
      <trkpt lat="42.015436" lon="-7.601965">
        <ele>628.680</ele>
        <time>2019-06-22T12:20:00Z</time>
      </trkpt>
      <trkpt lat="42.015346" lon="-7.601763">
        <ele>628.872</ele>
        <time>2019-06-22T12:20:01Z</time>
      </trkpt>
      <trkpt lat="42.015261" lon="-7.601564">
        <ele>629.810</ele>
        <time>2019-06-22T12:20:02Z</time>
      </trkpt>
      <trkpt lat="42.015182" lon="-7.601365">
        <ele>630.279</ele>
        <time>2019-06-22T12:20:03Z</time>
      </trkpt>
      <trkpt lat="42.015111" lon="-7.601167">
        <ele>630.444</ele>
        <time>2019-06-22T12:20:04Z</time>
      </trkpt>
      <trkpt lat="42.015038" lon="-7.600967">
        <ele>631.537</ele>
        <time>2019-06-22T12:20:05Z</time>
      </trkpt>
      <trkpt lat="42.014972" lon="-7.600780">
        <ele>633.038</ele>
        <time>2019-06-22T12:20:06Z</time>
      </trkpt>
      <trkpt lat="42.014906" lon="-7.600590">
        <ele>634.070</ele>
        <time>2019-06-22T12:20:07Z</time>
      </trkpt>
      <trkpt lat="42.014860" lon="-7.600403">
        <ele>635.117</ele>
        <time>2019-06-22T12:20:08Z</time>
      </trkpt>
      <trkpt lat="42.014822" lon="-7.600205">
        <ele>635.108</ele>
        <time>2019-06-22T12:20:09Z</time>
      </trkpt>
      <trkpt lat="42.014794" lon="-7.600001">
        <ele>634.836</ele>
        <time>2019-06-22T12:20:10Z</time>
      </trkpt>
      <trkpt lat="42.014761" lon="-7.599798">
        <ele>632.610</ele>
        <time>2019-06-22T12:20:11Z</time>
      </trkpt>
      <trkpt lat="42.014735" lon="-7.599601">
        <ele>631.492</ele>
        <time>2019-06-22T12:20:12Z</time>
      </trkpt>
      <trkpt lat="42.014719" lon="-7.599427">
        <ele>629.974</ele>
        <time>2019-06-22T12:20:13Z</time>
      </trkpt>
      <trkpt lat="42.014702" lon="-7.599248">
        <ele>628.982</ele>
        <time>2019-06-22T12:20:14Z</time>
      </trkpt>
      <trkpt lat="42.014688" lon="-7.599046">
        <ele>628.951</ele>
        <time>2019-06-22T12:20:15Z</time>
      </trkpt>
      <trkpt lat="42.014667" lon="-7.598831">
        <ele>630.016</ele>
        <time>2019-06-22T12:20:16Z</time>
      </trkpt>
      <trkpt lat="42.014660" lon="-7.598581">
        <ele>631.119</ele>
        <time>2019-06-22T12:20:17Z</time>
      </trkpt>
      <trkpt lat="42.014670" lon="-7.598327">
        <ele>632.739</ele>
        <time>2019-06-22T12:20:18Z</time>
      </trkpt>
      <trkpt lat="42.014688" lon="-7.598070">
        <ele>634.001</ele>
        <time>2019-06-22T12:20:19Z</time>
      </trkpt>
      <trkpt lat="42.014709" lon="-7.597833">
        <ele>634.421</ele>
        <time>2019-06-22T12:20:20Z</time>
      </trkpt>
      <trkpt lat="42.014722" lon="-7.597584">
        <ele>634.608</ele>
        <time>2019-06-22T12:20:21Z</time>
      </trkpt>
      <trkpt lat="42.014737" lon="-7.597339">
        <ele>634.756</ele>
        <time>2019-06-22T12:20:22Z</time>
      </trkpt>
      <trkpt lat="42.014748" lon="-7.597101">
        <ele>634.740</ele>
        <time>2019-06-22T12:20:23Z</time>
      </trkpt>
      <trkpt lat="42.014743" lon="-7.596843">
        <ele>634.742</ele>
        <time>2019-06-22T12:20:24Z</time>
      </trkpt>
      <trkpt lat="42.014733" lon="-7.596590">
        <ele>635.634</ele>
        <time>2019-06-22T12:20:25Z</time>
      </trkpt>
      <trkpt lat="42.014657" lon="-7.596382">
        <ele>635.652</ele>
        <time>2019-06-22T12:20:26Z</time>
      </trkpt>
      <trkpt lat="42.014608" lon="-7.596127">
        <ele>635.641</ele>
        <time>2019-06-22T12:20:27Z</time>
      </trkpt>
      <trkpt lat="42.014548" lon="-7.595869">
        <ele>635.956</ele>
        <time>2019-06-22T12:20:28Z</time>
      </trkpt>
      <trkpt lat="42.014489" lon="-7.595600">
        <ele>636.579</ele>
        <time>2019-06-22T12:20:29Z</time>
      </trkpt>
      <trkpt lat="42.014434" lon="-7.595330">
        <ele>636.836</ele>
        <time>2019-06-22T12:20:30Z</time>
      </trkpt>
      <trkpt lat="42.014378" lon="-7.595065">
        <ele>637.717</ele>
        <time>2019-06-22T12:20:31Z</time>
      </trkpt>
      <trkpt lat="42.014320" lon="-7.594788">
        <ele>639.018</ele>
        <time>2019-06-22T12:20:32Z</time>
      </trkpt>
      <trkpt lat="42.014271" lon="-7.594505">
        <ele>640.508</ele>
        <time>2019-06-22T12:20:33Z</time>
      </trkpt>
      <trkpt lat="42.014223" lon="-7.594219">
        <ele>640.786</ele>
        <time>2019-06-22T12:20:34Z</time>
      </trkpt>
      <trkpt lat="42.014175" lon="-7.593934">
        <ele>640.760</ele>
        <time>2019-06-22T12:20:35Z</time>
      </trkpt>
      <trkpt lat="42.014128" lon="-7.593639">
        <ele>640.462</ele>
        <time>2019-06-22T12:20:36Z</time>
      </trkpt>
      <trkpt lat="42.014085" lon="-7.593349">
        <ele>640.494</ele>
        <time>2019-06-22T12:20:37Z</time>
      </trkpt>
      <trkpt lat="42.014044" lon="-7.593039">
        <ele>640.462</ele>
        <time>2019-06-22T12:20:38Z</time>
      </trkpt>
      <trkpt lat="42.014003" lon="-7.592740">
        <ele>640.191</ele>
        <time>2019-06-22T12:20:39Z</time>
      </trkpt>
      <trkpt lat="42.013966" lon="-7.592436">
        <ele>640.156</ele>
        <time>2019-06-22T12:20:40Z</time>
      </trkpt>
      <trkpt lat="42.013903" lon="-7.592087">
        <ele>640.789</ele>
        <time>2019-06-22T12:20:41Z</time>
      </trkpt>
      <trkpt lat="42.013830" lon="-7.591772">
        <ele>640.768</ele>
        <time>2019-06-22T12:20:42Z</time>
      </trkpt>
      <trkpt lat="42.013772" lon="-7.591454">
        <ele>639.842</ele>
        <time>2019-06-22T12:20:43Z</time>
      </trkpt>
      <trkpt lat="42.013700" lon="-7.591124">
        <ele>639.826</ele>
        <time>2019-06-22T12:20:44Z</time>
      </trkpt>
      <trkpt lat="42.013645" lon="-7.590809">
        <ele>640.508</ele>
        <time>2019-06-22T12:20:45Z</time>
      </trkpt>
      <trkpt lat="42.013585" lon="-7.590498">
        <ele>640.699</ele>
        <time>2019-06-22T12:20:46Z</time>
      </trkpt>
      <trkpt lat="42.013521" lon="-7.590194">
        <ele>641.693</ele>
        <time>2019-06-22T12:20:47Z</time>
      </trkpt>
      <trkpt lat="42.013469" lon="-7.589905">
        <ele>642.615</ele>
        <time>2019-06-22T12:20:48Z</time>
      </trkpt>
      <trkpt lat="42.013417" lon="-7.589609">
        <ele>644.867</ele>
        <time>2019-06-22T12:20:49Z</time>
      </trkpt>
      <trkpt lat="42.013357" lon="-7.589313">
        <ele>646.985</ele>
        <time>2019-06-22T12:20:50Z</time>
      </trkpt>
      <trkpt lat="42.013297" lon="-7.589020">
        <ele>648.774</ele>
        <time>2019-06-22T12:20:51Z</time>
      </trkpt>
      <trkpt lat="42.013243" lon="-7.588729">
        <ele>650.489</ele>
        <time>2019-06-22T12:20:52Z</time>
      </trkpt>
      <trkpt lat="42.013203" lon="-7.588465">
        <ele>652.712</ele>
        <time>2019-06-22T12:20:53Z</time>
      </trkpt>
      <trkpt lat="42.013149" lon="-7.588173">
        <ele>655.073</ele>
        <time>2019-06-22T12:20:54Z</time>
      </trkpt>
      <trkpt lat="42.013103" lon="-7.587894">
        <ele>656.585</ele>
        <time>2019-06-22T12:20:55Z</time>
      </trkpt>
      <trkpt lat="42.013061" lon="-7.587599">
        <ele>658.313</ele>
        <time>2019-06-22T12:20:56Z</time>
      </trkpt>
      <trkpt lat="42.013027" lon="-7.587310">
        <ele>660.508</ele>
        <time>2019-06-22T12:20:57Z</time>
      </trkpt>
      <trkpt lat="42.012993" lon="-7.587028">
        <ele>662.380</ele>
        <time>2019-06-22T12:20:58Z</time>
      </trkpt>
      <trkpt lat="42.012977" lon="-7.586754">
        <ele>662.834</ele>
        <time>2019-06-22T12:20:59Z</time>
      </trkpt>
      <trkpt lat="42.012974" lon="-7.586487">
        <ele>662.886</ele>
        <time>2019-06-22T12:21:00Z</time>
      </trkpt>
      <trkpt lat="42.012989" lon="-7.586222">
        <ele>664.928</ele>
        <time>2019-06-22T12:21:01Z</time>
      </trkpt>
      <trkpt lat="42.013001" lon="-7.585943">
        <ele>666.396</ele>
        <time>2019-06-22T12:21:02Z</time>
      </trkpt>
      <trkpt lat="42.013027" lon="-7.585674">
        <ele>668.525</ele>
        <time>2019-06-22T12:21:03Z</time>
      </trkpt>
      <trkpt lat="42.013054" lon="-7.585403">
        <ele>671.380</ele>
        <time>2019-06-22T12:21:04Z</time>
      </trkpt>
      <trkpt lat="42.013083" lon="-7.585123">
        <ele>673.653</ele>
        <time>2019-06-22T12:21:05Z</time>
      </trkpt>
      <trkpt lat="42.013115" lon="-7.584841">
        <ele>675.859</ele>
        <time>2019-06-22T12:21:06Z</time>
      </trkpt>
      <trkpt lat="42.013152" lon="-7.584557">
        <ele>677.703</ele>
        <time>2019-06-22T12:21:07Z</time>
      </trkpt>
      <trkpt lat="42.013189" lon="-7.584274">
        <ele>679.323</ele>
        <time>2019-06-22T12:21:08Z</time>
      </trkpt>
      <trkpt lat="42.013222" lon="-7.583991">
        <ele>680.008</ele>
        <time>2019-06-22T12:21:09Z</time>
      </trkpt>
      <trkpt lat="42.013257" lon="-7.583692">
        <ele>682.258</ele>
        <time>2019-06-22T12:21:10Z</time>
      </trkpt>
      <trkpt lat="42.013303" lon="-7.583383">
        <ele>684.072</ele>
        <time>2019-06-22T12:21:11Z</time>
      </trkpt>
      <trkpt lat="42.013346" lon="-7.583080">
        <ele>685.464</ele>
        <time>2019-06-22T12:21:12Z</time>
      </trkpt>
      <trkpt lat="42.013367" lon="-7.582773">
        <ele>685.416</ele>
        <time>2019-06-22T12:21:13Z</time>
      </trkpt>
      <trkpt lat="42.013416" lon="-7.582466">
        <ele>684.474</ele>
        <time>2019-06-22T12:21:14Z</time>
      </trkpt>
      <trkpt lat="42.013458" lon="-7.582158">
        <ele>683.613</ele>
        <time>2019-06-22T12:21:15Z</time>
      </trkpt>
      <trkpt lat="42.013471" lon="-7.581858">
        <ele>682.228</ele>
        <time>2019-06-22T12:21:16Z</time>
      </trkpt>
      <trkpt lat="42.013457" lon="-7.581594">
        <ele>681.731</ele>
        <time>2019-06-22T12:21:17Z</time>
      </trkpt>
      <trkpt lat="42.013451" lon="-7.581287">
        <ele>681.536</ele>
        <time>2019-06-22T12:21:18Z</time>
      </trkpt>
      <trkpt lat="42.013409" lon="-7.581003">
        <ele>681.517</ele>
        <time>2019-06-22T12:21:19Z</time>
      </trkpt>
      <trkpt lat="42.013346" lon="-7.580725">
        <ele>681.518</ele>
        <time>2019-06-22T12:21:20Z</time>
      </trkpt>
      <trkpt lat="42.013248" lon="-7.580467">
        <ele>682.508</ele>
        <time>2019-06-22T12:21:21Z</time>
      </trkpt>
      <trkpt lat="42.013123" lon="-7.580235">
        <ele>684.016</ele>
        <time>2019-06-22T12:21:22Z</time>
      </trkpt>
      <trkpt lat="42.012970" lon="-7.580012">
        <ele>684.150</ele>
        <time>2019-06-22T12:21:23Z</time>
      </trkpt>
      <trkpt lat="42.012818" lon="-7.579803">
        <ele>685.782</ele>
        <time>2019-06-22T12:21:24Z</time>
      </trkpt>
      <trkpt lat="42.012649" lon="-7.579623">
        <ele>687.754</ele>
        <time>2019-06-22T12:21:25Z</time>
      </trkpt>
      <trkpt lat="42.012461" lon="-7.579465">
        <ele>689.562</ele>
        <time>2019-06-22T12:21:26Z</time>
      </trkpt>
      <trkpt lat="42.012284" lon="-7.579294">
        <ele>692.191</ele>
        <time>2019-06-22T12:21:27Z</time>
      </trkpt>
      <trkpt lat="42.012116" lon="-7.579126">
        <ele>694.636</ele>
        <time>2019-06-22T12:21:28Z</time>
      </trkpt>
      <trkpt lat="42.011954" lon="-7.578939">
        <ele>698.039</ele>
        <time>2019-06-22T12:21:29Z</time>
      </trkpt>
      <trkpt lat="42.011813" lon="-7.578711">
        <ele>701.334</ele>
        <time>2019-06-22T12:21:30Z</time>
      </trkpt>
      <trkpt lat="42.011685" lon="-7.578472">
        <ele>704.055</ele>
        <time>2019-06-22T12:21:31Z</time>
      </trkpt>
      <trkpt lat="42.011595" lon="-7.578220">
        <ele>705.610</ele>
        <time>2019-06-22T12:21:32Z</time>
      </trkpt>
      <trkpt lat="42.011516" lon="-7.577951">
        <ele>707.708</ele>
        <time>2019-06-22T12:21:33Z</time>
      </trkpt>
      <trkpt lat="42.011461" lon="-7.577660">
        <ele>708.846</ele>
        <time>2019-06-22T12:21:34Z</time>
      </trkpt>
      <trkpt lat="42.011428" lon="-7.577364">
        <ele>709.920</ele>
        <time>2019-06-22T12:21:35Z</time>
      </trkpt>
      <trkpt lat="42.011400" lon="-7.577065">
        <ele>711.252</ele>
        <time>2019-06-22T12:21:36Z</time>
      </trkpt>
      <trkpt lat="42.011398" lon="-7.576776">
        <ele>711.444</ele>
        <time>2019-06-22T12:21:37Z</time>
      </trkpt>
      <trkpt lat="42.011404" lon="-7.576484">
        <ele>711.592</ele>
        <time>2019-06-22T12:21:38Z</time>
      </trkpt>
      <trkpt lat="42.011407" lon="-7.576171">
        <ele>711.511</ele>
        <time>2019-06-22T12:21:39Z</time>
      </trkpt>
      <trkpt lat="42.011407" lon="-7.575844">
        <ele>712.346</ele>
        <time>2019-06-22T12:21:40Z</time>
      </trkpt>
      <trkpt lat="42.011417" lon="-7.575512">
        <ele>713.179</ele>
        <time>2019-06-22T12:21:41Z</time>
      </trkpt>
      <trkpt lat="42.011423" lon="-7.575189">
        <ele>713.547</ele>
        <time>2019-06-22T12:21:42Z</time>
      </trkpt>
      <trkpt lat="42.011426" lon="-7.574872">
        <ele>714.929</ele>
        <time>2019-06-22T12:21:43Z</time>
      </trkpt>
      <trkpt lat="42.011435" lon="-7.574566">
        <ele>714.921</ele>
        <time>2019-06-22T12:21:44Z</time>
      </trkpt>
      <trkpt lat="42.011444" lon="-7.574252">
        <ele>714.608</ele>
        <time>2019-06-22T12:21:45Z</time>
      </trkpt>
      <trkpt lat="42.011433" lon="-7.573930">
        <ele>714.077</ele>
        <time>2019-06-22T12:21:46Z</time>
      </trkpt>
      <trkpt lat="42.011430" lon="-7.573609">
        <ele>714.021</ele>
        <time>2019-06-22T12:21:47Z</time>
      </trkpt>
      <trkpt lat="42.011430" lon="-7.573294">
        <ele>714.723</ele>
        <time>2019-06-22T12:21:48Z</time>
      </trkpt>
      <trkpt lat="42.011436" lon="-7.572975">
        <ele>715.985</ele>
        <time>2019-06-22T12:21:49Z</time>
      </trkpt>
      <trkpt lat="42.011445" lon="-7.572665">
        <ele>717.643</ele>
        <time>2019-06-22T12:21:50Z</time>
      </trkpt>
      <trkpt lat="42.011478" lon="-7.572362">
        <ele>720.952</ele>
        <time>2019-06-22T12:21:51Z</time>
      </trkpt>
      <trkpt lat="42.011506" lon="-7.572052">
        <ele>722.927</ele>
        <time>2019-06-22T12:21:52Z</time>
      </trkpt>
      <trkpt lat="42.011547" lon="-7.571763">
        <ele>725.120</ele>
        <time>2019-06-22T12:21:53Z</time>
      </trkpt>
      <trkpt lat="42.011610" lon="-7.571494">
        <ele>727.397</ele>
        <time>2019-06-22T12:21:54Z</time>
      </trkpt>
      <trkpt lat="42.011664" lon="-7.571221">
        <ele>730.123</ele>
        <time>2019-06-22T12:21:55Z</time>
      </trkpt>
      <trkpt lat="42.011787" lon="-7.570966">
        <ele>732.025</ele>
        <time>2019-06-22T12:21:56Z</time>
      </trkpt>
      <trkpt lat="42.011900" lon="-7.570737">
        <ele>734.608</ele>
        <time>2019-06-22T12:21:57Z</time>
      </trkpt>
      <trkpt lat="42.012037" lon="-7.570510">
        <ele>736.322</ele>
        <time>2019-06-22T12:21:58Z</time>
      </trkpt>
      <trkpt lat="42.012175" lon="-7.570269">
        <ele>738.526</ele>
        <time>2019-06-22T12:21:59Z</time>
      </trkpt>
      <trkpt lat="42.012310" lon="-7.570042">
        <ele>739.878</ele>
        <time>2019-06-22T12:22:00Z</time>
      </trkpt>
      <trkpt lat="42.012524" lon="-7.569832">
        <ele>740.420</ele>
        <time>2019-06-22T12:22:01Z</time>
      </trkpt>
      <trkpt lat="42.012694" lon="-7.569601">
        <ele>741.048</ele>
        <time>2019-06-22T12:22:02Z</time>
      </trkpt>
      <trkpt lat="42.012854" lon="-7.569395">
        <ele>741.117</ele>
        <time>2019-06-22T12:22:03Z</time>
      </trkpt>
      <trkpt lat="42.013026" lon="-7.569162">
        <ele>741.182</ele>
        <time>2019-06-22T12:22:04Z</time>
      </trkpt>
      <trkpt lat="42.013183" lon="-7.568925">
        <ele>740.655</ele>
        <time>2019-06-22T12:22:05Z</time>
      </trkpt>
      <trkpt lat="42.013359" lon="-7.568656">
        <ele>739.693</ele>
        <time>2019-06-22T12:22:06Z</time>
      </trkpt>
      <trkpt lat="42.013518" lon="-7.568427">
        <ele>739.365</ele>
        <time>2019-06-22T12:22:07Z</time>
      </trkpt>
      <trkpt lat="42.013673" lon="-7.568185">
        <ele>739.321</ele>
        <time>2019-06-22T12:22:08Z</time>
      </trkpt>
      <trkpt lat="42.013828" lon="-7.567926">
        <ele>740.608</ele>
        <time>2019-06-22T12:22:09Z</time>
      </trkpt>
      <trkpt lat="42.013983" lon="-7.567672">
        <ele>741.642</ele>
        <time>2019-06-22T12:22:10Z</time>
      </trkpt>
      <trkpt lat="42.014121" lon="-7.567488">
        <ele>742.446</ele>
        <time>2019-06-22T12:22:11Z</time>
      </trkpt>
      <trkpt lat="42.014268" lon="-7.567278">
        <ele>743.348</ele>
        <time>2019-06-22T12:22:12Z</time>
      </trkpt>
      <trkpt lat="42.014404" lon="-7.567065">
        <ele>744.240</ele>
        <time>2019-06-22T12:22:13Z</time>
      </trkpt>
      <trkpt lat="42.014548" lon="-7.566851">
        <ele>744.278</ele>
        <time>2019-06-22T12:22:14Z</time>
      </trkpt>
      <trkpt lat="42.014688" lon="-7.566636">
        <ele>744.787</ele>
        <time>2019-06-22T12:22:15Z</time>
      </trkpt>
      <trkpt lat="42.014821" lon="-7.566448">
        <ele>745.242</ele>
        <time>2019-06-22T12:22:16Z</time>
      </trkpt>
      <trkpt lat="42.014964" lon="-7.566225">
        <ele>747.145</ele>
        <time>2019-06-22T12:22:17Z</time>
      </trkpt>
      <trkpt lat="42.015096" lon="-7.566010">
        <ele>748.696</ele>
        <time>2019-06-22T12:22:18Z</time>
      </trkpt>
      <trkpt lat="42.015208" lon="-7.565774">
        <ele>748.631</ele>
        <time>2019-06-22T12:22:19Z</time>
      </trkpt>
      <trkpt lat="42.015328" lon="-7.565535">
        <ele>749.024</ele>
        <time>2019-06-22T12:22:20Z</time>
      </trkpt>
      <trkpt lat="42.015430" lon="-7.565296">
        <ele>749.008</ele>
        <time>2019-06-22T12:22:21Z</time>
      </trkpt>
      <trkpt lat="42.015498" lon="-7.565031">
        <ele>749.792</ele>
        <time>2019-06-22T12:22:22Z</time>
      </trkpt>
      <trkpt lat="42.015576" lon="-7.564764">
        <ele>751.016</ele>
        <time>2019-06-22T12:22:23Z</time>
      </trkpt>
      <trkpt lat="42.015624" lon="-7.564501">
        <ele>751.638</ele>
        <time>2019-06-22T12:22:24Z</time>
      </trkpt>
      <trkpt lat="42.015653" lon="-7.564214">
        <ele>753.350</ele>
        <time>2019-06-22T12:22:25Z</time>
      </trkpt>
      <trkpt lat="42.015691" lon="-7.563933">
        <ele>755.998</ele>
        <time>2019-06-22T12:22:26Z</time>
      </trkpt>
      <trkpt lat="42.015696" lon="-7.563637">
        <ele>757.567</ele>
        <time>2019-06-22T12:22:27Z</time>
      </trkpt>
      <trkpt lat="42.015692" lon="-7.563336">
        <ele>758.682</ele>
        <time>2019-06-22T12:22:28Z</time>
      </trkpt>
      <trkpt lat="42.015660" lon="-7.563044">
        <ele>759.915</ele>
        <time>2019-06-22T12:22:29Z</time>
      </trkpt>
      <trkpt lat="42.015618" lon="-7.562777">
        <ele>761.596</ele>
        <time>2019-06-22T12:22:30Z</time>
      </trkpt>
      <trkpt lat="42.015549" lon="-7.562491">
        <ele>762.831</ele>
        <time>2019-06-22T12:22:31Z</time>
      </trkpt>
      <trkpt lat="42.015476" lon="-7.562216">
        <ele>764.324</ele>
        <time>2019-06-22T12:22:32Z</time>
      </trkpt>
      <trkpt lat="42.015382" lon="-7.561941">
        <ele>765.708</ele>
        <time>2019-06-22T12:22:33Z</time>
      </trkpt>
      <trkpt lat="42.015271" lon="-7.561673">
        <ele>767.792</ele>
        <time>2019-06-22T12:22:34Z</time>
      </trkpt>
      <trkpt lat="42.015159" lon="-7.561418">
        <ele>768.286</ele>
        <time>2019-06-22T12:22:35Z</time>
      </trkpt>
      <trkpt lat="42.015017" lon="-7.561162">
        <ele>768.568</ele>
        <time>2019-06-22T12:22:36Z</time>
      </trkpt>
      <trkpt lat="42.014860" lon="-7.560903">
        <ele>768.620</ele>
        <time>2019-06-22T12:22:37Z</time>
      </trkpt>
      <trkpt lat="42.014688" lon="-7.560683">
        <ele>769.858</ele>
        <time>2019-06-22T12:22:38Z</time>
      </trkpt>
      <trkpt lat="42.014532" lon="-7.560468">
        <ele>770.957</ele>
        <time>2019-06-22T12:22:39Z</time>
      </trkpt>
      <trkpt lat="42.014346" lon="-7.560317">
        <ele>773.182</ele>
        <time>2019-06-22T12:22:40Z</time>
      </trkpt>
      <trkpt lat="42.014176" lon="-7.560131">
        <ele>775.135</ele>
        <time>2019-06-22T12:22:41Z</time>
      </trkpt>
      <trkpt lat="42.013918" lon="-7.559988">
        <ele>776.819</ele>
        <time>2019-06-22T12:22:42Z</time>
      </trkpt>
      <trkpt lat="42.013690" lon="-7.559855">
        <ele>778.509</ele>
        <time>2019-06-22T12:22:43Z</time>
      </trkpt>
      <trkpt lat="42.013475" lon="-7.559724">
        <ele>781.019</ele>
        <time>2019-06-22T12:22:44Z</time>
      </trkpt>
      <trkpt lat="42.013246" lon="-7.559623">
        <ele>782.508</ele>
        <time>2019-06-22T12:22:45Z</time>
      </trkpt>
      <trkpt lat="42.013025" lon="-7.559484">
        <ele>784.274</ele>
        <time>2019-06-22T12:22:46Z</time>
      </trkpt>
      <trkpt lat="42.012805" lon="-7.559351">
        <ele>785.968</ele>
        <time>2019-06-22T12:22:47Z</time>
      </trkpt>
      <trkpt lat="42.012577" lon="-7.559223">
        <ele>785.990</ele>
        <time>2019-06-22T12:22:48Z</time>
      </trkpt>
      <trkpt lat="42.012342" lon="-7.559079">
        <ele>785.492</ele>
        <time>2019-06-22T12:22:49Z</time>
      </trkpt>
      <trkpt lat="42.012119" lon="-7.558955">
        <ele>785.140</ele>
        <time>2019-06-22T12:22:50Z</time>
      </trkpt>
      <trkpt lat="42.011883" lon="-7.558845">
        <ele>784.929</ele>
        <time>2019-06-22T12:22:51Z</time>
      </trkpt>
      <trkpt lat="42.011685" lon="-7.558709">
        <ele>784.784</ele>
        <time>2019-06-22T12:22:52Z</time>
      </trkpt>
      <trkpt lat="42.011499" lon="-7.558592">
        <ele>784.797</ele>
        <time>2019-06-22T12:22:53Z</time>
      </trkpt>
      <trkpt lat="42.011325" lon="-7.558461">
        <ele>786.199</ele>
        <time>2019-06-22T12:22:54Z</time>
      </trkpt>
      <trkpt lat="42.011156" lon="-7.558320">
        <ele>787.607</ele>
        <time>2019-06-22T12:22:55Z</time>
      </trkpt>
      <trkpt lat="42.010987" lon="-7.558157">
        <ele>788.327</ele>
        <time>2019-06-22T12:22:56Z</time>
      </trkpt>
      <trkpt lat="42.010825" lon="-7.557973">
        <ele>789.908</ele>
        <time>2019-06-22T12:22:57Z</time>
      </trkpt>
      <trkpt lat="42.010682" lon="-7.557775">
        <ele>792.252</ele>
        <time>2019-06-22T12:22:58Z</time>
      </trkpt>
      <trkpt lat="42.010556" lon="-7.557555">
        <ele>793.886</ele>
        <time>2019-06-22T12:22:59Z</time>
      </trkpt>
      <trkpt lat="42.010432" lon="-7.557327">
        <ele>795.358</ele>
        <time>2019-06-22T12:23:00Z</time>
      </trkpt>
      <trkpt lat="42.010330" lon="-7.557063">
        <ele>797.460</ele>
        <time>2019-06-22T12:23:01Z</time>
      </trkpt>
      <trkpt lat="42.010255" lon="-7.556807">
        <ele>799.078</ele>
        <time>2019-06-22T12:23:02Z</time>
      </trkpt>
      <trkpt lat="42.010195" lon="-7.556544">
        <ele>800.557</ele>
        <time>2019-06-22T12:23:03Z</time>
      </trkpt>
      <trkpt lat="42.010125" lon="-7.556273">
        <ele>802.272</ele>
        <time>2019-06-22T12:23:04Z</time>
      </trkpt>
      <trkpt lat="42.010055" lon="-7.556011">
        <ele>803.135</ele>
        <time>2019-06-22T12:23:05Z</time>
      </trkpt>
      <trkpt lat="42.009980" lon="-7.555753">
        <ele>803.186</ele>
        <time>2019-06-22T12:23:06Z</time>
      </trkpt>
      <trkpt lat="42.009915" lon="-7.555501">
        <ele>803.160</ele>
        <time>2019-06-22T12:23:07Z</time>
      </trkpt>
      <trkpt lat="42.009859" lon="-7.555264">
        <ele>803.126</ele>
        <time>2019-06-22T12:23:08Z</time>
      </trkpt>
      <trkpt lat="42.009803" lon="-7.555024">
        <ele>804.108</ele>
        <time>2019-06-22T12:23:09Z</time>
      </trkpt>
      <trkpt lat="42.009761" lon="-7.554778">
        <ele>805.821</ele>
        <time>2019-06-22T12:23:10Z</time>
      </trkpt>
      <trkpt lat="42.009720" lon="-7.554530">
        <ele>805.865</ele>
        <time>2019-06-22T12:23:11Z</time>
      </trkpt>
      <trkpt lat="42.009705" lon="-7.554266">
        <ele>807.887</ele>
        <time>2019-06-22T12:23:12Z</time>
      </trkpt>
      <trkpt lat="42.009701" lon="-7.554011">
        <ele>810.869</ele>
        <time>2019-06-22T12:23:13Z</time>
      </trkpt>
      <trkpt lat="42.009710" lon="-7.553745">
        <ele>813.267</ele>
        <time>2019-06-22T12:23:14Z</time>
      </trkpt>
      <trkpt lat="42.009722" lon="-7.553494">
        <ele>814.066</ele>
        <time>2019-06-22T12:23:15Z</time>
      </trkpt>
      <trkpt lat="42.009754" lon="-7.553216">
        <ele>814.231</ele>
        <time>2019-06-22T12:23:16Z</time>
      </trkpt>
      <trkpt lat="42.009787" lon="-7.552933">
        <ele>814.244</ele>
        <time>2019-06-22T12:23:17Z</time>
      </trkpt>
      <trkpt lat="42.009815" lon="-7.552644">
        <ele>813.654</ele>
        <time>2019-06-22T12:23:18Z</time>
      </trkpt>
      <trkpt lat="42.009841" lon="-7.552345">
        <ele>812.756</ele>
        <time>2019-06-22T12:23:19Z</time>
      </trkpt>
      <trkpt lat="42.009851" lon="-7.552044">
        <ele>811.111</ele>
        <time>2019-06-22T12:23:20Z</time>
      </trkpt>
      <trkpt lat="42.009856" lon="-7.551741">
        <ele>810.508</ele>
        <time>2019-06-22T12:23:21Z</time>
      </trkpt>
      <trkpt lat="42.009869" lon="-7.551437">
        <ele>810.478</ele>
        <time>2019-06-22T12:23:22Z</time>
      </trkpt>
      <trkpt lat="42.009876" lon="-7.551140">
        <ele>809.522</ele>
        <time>2019-06-22T12:23:23Z</time>
      </trkpt>
      <trkpt lat="42.009869" lon="-7.550853">
        <ele>809.574</ele>
        <time>2019-06-22T12:23:24Z</time>
      </trkpt>
      <trkpt lat="42.009876" lon="-7.550557">
        <ele>810.226</ele>
        <time>2019-06-22T12:23:25Z</time>
      </trkpt>
      <trkpt lat="42.009884" lon="-7.550250">
        <ele>810.334</ele>
        <time>2019-06-22T12:23:26Z</time>
      </trkpt>
      <trkpt lat="42.009889" lon="-7.549956">
        <ele>810.453</ele>
        <time>2019-06-22T12:23:27Z</time>
      </trkpt>
      <trkpt lat="42.009885" lon="-7.549659">
        <ele>810.888</ele>
        <time>2019-06-22T12:23:28Z</time>
      </trkpt>
      <trkpt lat="42.009859" lon="-7.549364">
        <ele>811.821</ele>
        <time>2019-06-22T12:23:29Z</time>
      </trkpt>
      <trkpt lat="42.009818" lon="-7.549085">
        <ele>812.661</ele>
        <time>2019-06-22T12:23:30Z</time>
      </trkpt>
      <trkpt lat="42.009766" lon="-7.548808">
        <ele>812.921</ele>
        <time>2019-06-22T12:23:31Z</time>
      </trkpt>
      <trkpt lat="42.009716" lon="-7.548558">
        <ele>814.513</ele>
        <time>2019-06-22T12:23:32Z</time>
      </trkpt>
      <trkpt lat="42.009672" lon="-7.548299">
        <ele>816.208</ele>
        <time>2019-06-22T12:23:33Z</time>
      </trkpt>
      <trkpt lat="42.009642" lon="-7.548075">
        <ele>819.229</ele>
        <time>2019-06-22T12:23:34Z</time>
      </trkpt>
      <trkpt lat="42.009602" lon="-7.547849">
        <ele>821.283</ele>
        <time>2019-06-22T12:23:35Z</time>
      </trkpt>
      <trkpt lat="42.009546" lon="-7.547603">
        <ele>823.865</ele>
        <time>2019-06-22T12:23:36Z</time>
      </trkpt>
      <trkpt lat="42.009493" lon="-7.547356">
        <ele>825.877</ele>
        <time>2019-06-22T12:23:37Z</time>
      </trkpt>
      <trkpt lat="42.009440" lon="-7.547102">
        <ele>827.055</ele>
        <time>2019-06-22T12:23:38Z</time>
      </trkpt>
      <trkpt lat="42.009388" lon="-7.546835">
        <ele>827.344</ele>
        <time>2019-06-22T12:23:39Z</time>
      </trkpt>
      <trkpt lat="42.009340" lon="-7.546568">
        <ele>827.399</ele>
        <time>2019-06-22T12:23:40Z</time>
      </trkpt>
      <trkpt lat="42.009288" lon="-7.546311">
        <ele>825.622</ele>
        <time>2019-06-22T12:23:41Z</time>
      </trkpt>
      <trkpt lat="42.009241" lon="-7.546051">
        <ele>822.036</ele>
        <time>2019-06-22T12:23:42Z</time>
      </trkpt>
      <trkpt lat="42.009186" lon="-7.545814">
        <ele>819.117</ele>
        <time>2019-06-22T12:23:43Z</time>
      </trkpt>
      <trkpt lat="42.009057" lon="-7.545563">
        <ele>816.518</ele>
        <time>2019-06-22T12:23:44Z</time>
      </trkpt>
      <trkpt lat="42.008948" lon="-7.545344">
        <ele>812.908</ele>
        <time>2019-06-22T12:23:45Z</time>
      </trkpt>
      <trkpt lat="42.008797" lon="-7.545176">
        <ele>812.926</ele>
        <time>2019-06-22T12:23:46Z</time>
      </trkpt>
      <trkpt lat="42.008604" lon="-7.545007">
        <ele>812.220</ele>
        <time>2019-06-22T12:23:47Z</time>
      </trkpt>
      <trkpt lat="42.008409" lon="-7.544859">
        <ele>809.422</ele>
        <time>2019-06-22T12:23:48Z</time>
      </trkpt>
      <trkpt lat="42.008205" lon="-7.544714">
        <ele>809.484</ele>
        <time>2019-06-22T12:23:49Z</time>
      </trkpt>
      <trkpt lat="42.007991" lon="-7.544565">
        <ele>809.192</ele>
        <time>2019-06-22T12:23:50Z</time>
      </trkpt>
      <trkpt lat="42.007771" lon="-7.544399">
        <ele>809.191</ele>
        <time>2019-06-22T12:23:51Z</time>
      </trkpt>
      <trkpt lat="42.007555" lon="-7.544248">
        <ele>809.166</ele>
        <time>2019-06-22T12:23:52Z</time>
      </trkpt>
      <trkpt lat="42.007342" lon="-7.544097">
        <ele>811.879</ele>
        <time>2019-06-22T12:23:53Z</time>
      </trkpt>
      <trkpt lat="42.007128" lon="-7.543946">
        <ele>811.873</ele>
        <time>2019-06-22T12:23:54Z</time>
      </trkpt>
      <trkpt lat="42.006909" lon="-7.543804">
        <ele>810.885</ele>
        <time>2019-06-22T12:23:55Z</time>
      </trkpt>
      <trkpt lat="42.006697" lon="-7.543657">
        <ele>808.913</ele>
        <time>2019-06-22T12:23:56Z</time>
      </trkpt>
      <trkpt lat="42.006483" lon="-7.543503">
        <ele>807.308</ele>
        <time>2019-06-22T12:23:57Z</time>
      </trkpt>
      <trkpt lat="42.006271" lon="-7.543353">
        <ele>803.270</ele>
        <time>2019-06-22T12:23:58Z</time>
      </trkpt>
      <trkpt lat="42.006057" lon="-7.543204">
        <ele>800.274</ele>
        <time>2019-06-22T12:23:59Z</time>
      </trkpt>
      <trkpt lat="42.005850" lon="-7.543055">
        <ele>798.286</ele>
        <time>2019-06-22T12:24:00Z</time>
      </trkpt>
      <trkpt lat="42.005643" lon="-7.542905">
        <ele>794.288</ele>
        <time>2019-06-22T12:24:01Z</time>
      </trkpt>
      <trkpt lat="42.005444" lon="-7.542759">
        <ele>791.876</ele>
        <time>2019-06-22T12:24:02Z</time>
      </trkpt>
      <trkpt lat="42.005251" lon="-7.542618">
        <ele>790.735</ele>
        <time>2019-06-22T12:24:03Z</time>
      </trkpt>
      <trkpt lat="42.005055" lon="-7.542461">
        <ele>790.790</ele>
        <time>2019-06-22T12:24:04Z</time>
      </trkpt>
      <trkpt lat="42.004866" lon="-7.542292">
        <ele>787.943</ele>
        <time>2019-06-22T12:24:05Z</time>
      </trkpt>
      <trkpt lat="42.004674" lon="-7.542092">
        <ele>787.921</ele>
        <time>2019-06-22T12:24:06Z</time>
      </trkpt>
      <trkpt lat="42.004490" lon="-7.541896">
        <ele>787.941</ele>
        <time>2019-06-22T12:24:07Z</time>
      </trkpt>
      <trkpt lat="42.004318" lon="-7.541700">
        <ele>787.605</ele>
        <time>2019-06-22T12:24:08Z</time>
      </trkpt>
      <trkpt lat="42.004138" lon="-7.541510">
        <ele>787.608</ele>
        <time>2019-06-22T12:24:09Z</time>
      </trkpt>
      <trkpt lat="42.003960" lon="-7.541322">
        <ele>782.665</ele>
        <time>2019-06-22T12:24:10Z</time>
      </trkpt>
      <trkpt lat="42.003784" lon="-7.541136">
        <ele>780.859</ele>
        <time>2019-06-22T12:24:11Z</time>
      </trkpt>
      <trkpt lat="42.003601" lon="-7.540951">
        <ele>779.911</ele>
        <time>2019-06-22T12:24:12Z</time>
      </trkpt>
      <trkpt lat="42.003410" lon="-7.540768">
        <ele>776.043</ele>
        <time>2019-06-22T12:24:13Z</time>
      </trkpt>
      <trkpt lat="42.003214" lon="-7.540585">
        <ele>774.121</ele>
        <time>2019-06-22T12:24:14Z</time>
      </trkpt>
      <trkpt lat="42.003010" lon="-7.540415">
        <ele>773.990</ele>
        <time>2019-06-22T12:24:15Z</time>
      </trkpt>
      <trkpt lat="42.002801" lon="-7.540266">
        <ele>773.095</ele>
        <time>2019-06-22T12:24:16Z</time>
      </trkpt>
      <trkpt lat="42.002575" lon="-7.540111">
        <ele>770.318</ele>
        <time>2019-06-22T12:24:17Z</time>
      </trkpt>
      <trkpt lat="42.002346" lon="-7.539967">
        <ele>769.771</ele>
        <time>2019-06-22T12:24:18Z</time>
      </trkpt>
      <trkpt lat="42.002110" lon="-7.539833">
        <ele>766.941</ele>
        <time>2019-06-22T12:24:19Z</time>
      </trkpt>
      <trkpt lat="42.001878" lon="-7.539706">
        <ele>765.515</ele>
        <time>2019-06-22T12:24:20Z</time>
      </trkpt>
      <trkpt lat="42.001646" lon="-7.539584">
        <ele>764.308</ele>
        <time>2019-06-22T12:24:21Z</time>
      </trkpt>
      <trkpt lat="42.001379" lon="-7.539462">
        <ele>764.280</ele>
        <time>2019-06-22T12:24:22Z</time>
      </trkpt>
      <trkpt lat="42.001121" lon="-7.539345">
        <ele>760.654</ele>
        <time>2019-06-22T12:24:23Z</time>
      </trkpt>
      <trkpt lat="42.000869" lon="-7.539244">
        <ele>757.716</ele>
        <time>2019-06-22T12:24:24Z</time>
      </trkpt>
      <trkpt lat="42.000610" lon="-7.539167">
        <ele>755.488</ele>
        <time>2019-06-22T12:24:25Z</time>
      </trkpt>
      <trkpt lat="42.000359" lon="-7.539140">
        <ele>754.196</ele>
        <time>2019-06-22T12:24:26Z</time>
      </trkpt>
      <trkpt lat="42.000105" lon="-7.539093">
        <ele>753.485</ele>
        <time>2019-06-22T12:24:27Z</time>
      </trkpt>
      <trkpt lat="41.999851" lon="-7.539051">
        <ele>753.460</ele>
        <time>2019-06-22T12:24:28Z</time>
      </trkpt>
      <trkpt lat="41.999604" lon="-7.539024">
        <ele>753.873</ele>
        <time>2019-06-22T12:24:29Z</time>
      </trkpt>
      <trkpt lat="41.999352" lon="-7.538991">
        <ele>753.867</ele>
        <time>2019-06-22T12:24:30Z</time>
      </trkpt>
      <trkpt lat="41.999103" lon="-7.538965">
        <ele>753.781</ele>
        <time>2019-06-22T12:24:31Z</time>
      </trkpt>
      <trkpt lat="41.998858" lon="-7.538921">
        <ele>750.519</ele>
        <time>2019-06-22T12:24:32Z</time>
      </trkpt>
      <trkpt lat="41.998630" lon="-7.538863">
        <ele>746.208</ele>
        <time>2019-06-22T12:24:33Z</time>
      </trkpt>
      <trkpt lat="41.998403" lon="-7.538782">
        <ele>744.049</ele>
        <time>2019-06-22T12:24:34Z</time>
      </trkpt>
      <trkpt lat="41.998181" lon="-7.538693">
        <ele>744.093</ele>
        <time>2019-06-22T12:24:35Z</time>
      </trkpt>
      <trkpt lat="41.997957" lon="-7.538559">
        <ele>742.435</ele>
        <time>2019-06-22T12:24:36Z</time>
      </trkpt>
      <trkpt lat="41.997741" lon="-7.538403">
        <ele>741.967</ele>
        <time>2019-06-22T12:24:37Z</time>
      </trkpt>
      <trkpt lat="41.997519" lon="-7.538244">
        <ele>740.115</ele>
        <time>2019-06-22T12:24:38Z</time>
      </trkpt>
      <trkpt lat="41.997295" lon="-7.538034">
        <ele>738.294</ele>
        <time>2019-06-22T12:24:39Z</time>
      </trkpt>
      <trkpt lat="41.997076" lon="-7.537850">
        <ele>733.989</ele>
        <time>2019-06-22T12:24:40Z</time>
      </trkpt>
      <trkpt lat="41.996850" lon="-7.537662">
        <ele>729.342</ele>
        <time>2019-06-22T12:24:41Z</time>
      </trkpt>
      <trkpt lat="41.996624" lon="-7.537459">
        <ele>726.324</ele>
        <time>2019-06-22T12:24:42Z</time>
      </trkpt>
      <trkpt lat="41.996396" lon="-7.537257">
        <ele>724.304</ele>
        <time>2019-06-22T12:24:43Z</time>
      </trkpt>
      <trkpt lat="41.996161" lon="-7.537055">
        <ele>723.214</ele>
        <time>2019-06-22T12:24:44Z</time>
      </trkpt>
      <trkpt lat="41.995925" lon="-7.536854">
        <ele>721.208</ele>
        <time>2019-06-22T12:24:45Z</time>
      </trkpt>
      <trkpt lat="41.995687" lon="-7.536642">
        <ele>718.885</ele>
        <time>2019-06-22T12:24:46Z</time>
      </trkpt>
      <trkpt lat="41.995453" lon="-7.536444">
        <ele>716.789</ele>
        <time>2019-06-22T12:24:47Z</time>
      </trkpt>
      <trkpt lat="41.995212" lon="-7.536249">
        <ele>713.451</ele>
        <time>2019-06-22T12:24:48Z</time>
      </trkpt>
      <trkpt lat="41.994980" lon="-7.536056">
        <ele>711.083</ele>
        <time>2019-06-22T12:24:49Z</time>
      </trkpt>
      <trkpt lat="41.994743" lon="-7.535865">
        <ele>709.051</ele>
        <time>2019-06-22T12:24:50Z</time>
      </trkpt>
      <trkpt lat="41.994497" lon="-7.535693">
        <ele>707.410</ele>
        <time>2019-06-22T12:24:51Z</time>
      </trkpt>
      <trkpt lat="41.994250" lon="-7.535541">
        <ele>706.425</ele>
        <time>2019-06-22T12:24:52Z</time>
      </trkpt>
      <trkpt lat="41.994012" lon="-7.535388">
        <ele>704.258</ele>
        <time>2019-06-22T12:24:53Z</time>
      </trkpt>
      <trkpt lat="41.993769" lon="-7.535221">
        <ele>702.329</ele>
        <time>2019-06-22T12:24:54Z</time>
      </trkpt>
      <trkpt lat="41.993516" lon="-7.535057">
        <ele>699.400</ele>
        <time>2019-06-22T12:24:55Z</time>
      </trkpt>
      <trkpt lat="41.993274" lon="-7.534913">
        <ele>698.920</ele>
        <time>2019-06-22T12:24:56Z</time>
      </trkpt>
      <trkpt lat="41.993026" lon="-7.534765">
        <ele>698.908</ele>
        <time>2019-06-22T12:24:57Z</time>
      </trkpt>
      <trkpt lat="41.992789" lon="-7.534627">
        <ele>699.895</ele>
        <time>2019-06-22T12:24:58Z</time>
      </trkpt>
      <trkpt lat="41.992552" lon="-7.534488">
        <ele>700.689</ele>
        <time>2019-06-22T12:24:59Z</time>
      </trkpt>
      <trkpt lat="41.992309" lon="-7.534339">
        <ele>700.611</ele>
        <time>2019-06-22T12:25:00Z</time>
      </trkpt>
      <trkpt lat="41.992073" lon="-7.534187">
        <ele>700.113</ele>
        <time>2019-06-22T12:25:01Z</time>
      </trkpt>
      <trkpt lat="41.991836" lon="-7.534038">
        <ele>699.221</ele>
        <time>2019-06-22T12:25:02Z</time>
      </trkpt>
      <trkpt lat="41.991599" lon="-7.533898">
        <ele>695.570</ele>
        <time>2019-06-22T12:25:03Z</time>
      </trkpt>
      <trkpt lat="41.991372" lon="-7.533763">
        <ele>692.045</ele>
        <time>2019-06-22T12:25:04Z</time>
      </trkpt>
      <trkpt lat="41.991147" lon="-7.533727">
        <ele>692.038</ele>
        <time>2019-06-22T12:25:05Z</time>
      </trkpt>
      <trkpt lat="41.990915" lon="-7.533592">
        <ele>692.092</ele>
        <time>2019-06-22T12:25:06Z</time>
      </trkpt>
      <trkpt lat="41.990687" lon="-7.533458">
        <ele>693.973</ele>
        <time>2019-06-22T12:25:07Z</time>
      </trkpt>
      <trkpt lat="41.990456" lon="-7.533326">
        <ele>694.620</ele>
        <time>2019-06-22T12:25:08Z</time>
      </trkpt>
      <trkpt lat="41.990227" lon="-7.533196">
        <ele>697.008</ele>
        <time>2019-06-22T12:25:09Z</time>
      </trkpt>
      <trkpt lat="41.989993" lon="-7.533078">
        <ele>697.052</ele>
        <time>2019-06-22T12:25:10Z</time>
      </trkpt>
      <trkpt lat="41.989771" lon="-7.532997">
        <ele>695.566</ele>
        <time>2019-06-22T12:25:11Z</time>
      </trkpt>
      <trkpt lat="41.989544" lon="-7.532862">
        <ele>694.488</ele>
        <time>2019-06-22T12:25:12Z</time>
      </trkpt>
      <trkpt lat="41.989314" lon="-7.532732">
        <ele>692.840</ele>
        <time>2019-06-22T12:25:13Z</time>
      </trkpt>
      <trkpt lat="41.989081" lon="-7.532589">
        <ele>692.818</ele>
        <time>2019-06-22T12:25:14Z</time>
      </trkpt>
      <trkpt lat="41.988891" lon="-7.532481">
        <ele>693.647</ele>
        <time>2019-06-22T12:25:15Z</time>
      </trkpt>
      <trkpt lat="41.988661" lon="-7.532343">
        <ele>693.962</ele>
        <time>2019-06-22T12:25:16Z</time>
      </trkpt>
      <trkpt lat="41.988441" lon="-7.532217">
        <ele>693.655</ele>
        <time>2019-06-22T12:25:17Z</time>
      </trkpt>
      <trkpt lat="41.988207" lon="-7.532084">
        <ele>693.351</ele>
        <time>2019-06-22T12:25:18Z</time>
      </trkpt>
      <trkpt lat="41.987977" lon="-7.531955">
        <ele>692.201</ele>
        <time>2019-06-22T12:25:19Z</time>
      </trkpt>
      <trkpt lat="41.987747" lon="-7.531824">
        <ele>689.511</ele>
        <time>2019-06-22T12:25:20Z</time>
      </trkpt>
      <trkpt lat="41.987512" lon="-7.531678">
        <ele>688.508</ele>
        <time>2019-06-22T12:25:21Z</time>
      </trkpt>
      <trkpt lat="41.987275" lon="-7.531540">
        <ele>688.518</ele>
        <time>2019-06-22T12:25:22Z</time>
      </trkpt>
      <trkpt lat="41.987020" lon="-7.531382">
        <ele>688.142</ele>
        <time>2019-06-22T12:25:23Z</time>
      </trkpt>
      <trkpt lat="41.986778" lon="-7.531236">
        <ele>687.184</ele>
        <time>2019-06-22T12:25:24Z</time>
      </trkpt>
      <trkpt lat="41.986537" lon="-7.531092">
        <ele>686.076</ele>
        <time>2019-06-22T12:25:25Z</time>
      </trkpt>
      <trkpt lat="41.986296" lon="-7.530947">
        <ele>684.674</ele>
        <time>2019-06-22T12:25:26Z</time>
      </trkpt>
      <trkpt lat="41.986062" lon="-7.530806">
        <ele>683.663</ele>
        <time>2019-06-22T12:25:27Z</time>
      </trkpt>
      <trkpt lat="41.985835" lon="-7.530667">
        <ele>682.118</ele>
        <time>2019-06-22T12:25:28Z</time>
      </trkpt>
      <trkpt lat="41.985615" lon="-7.530527">
        <ele>680.851</ele>
        <time>2019-06-22T12:25:29Z</time>
      </trkpt>
      <trkpt lat="41.985399" lon="-7.530412">
        <ele>679.833</ele>
        <time>2019-06-22T12:25:30Z</time>
      </trkpt>
      <trkpt lat="41.985177" lon="-7.530271">
        <ele>679.223</ele>
        <time>2019-06-22T12:25:31Z</time>
      </trkpt>
      <trkpt lat="41.984958" lon="-7.530099">
        <ele>678.315</ele>
        <time>2019-06-22T12:25:32Z</time>
      </trkpt>
      <trkpt lat="41.984752" lon="-7.529948">
        <ele>676.308</ele>
        <time>2019-06-22T12:25:33Z</time>
      </trkpt>
      <trkpt lat="41.984550" lon="-7.529788">
        <ele>676.316</ele>
        <time>2019-06-22T12:25:34Z</time>
      </trkpt>
      <trkpt lat="41.984362" lon="-7.529609">
        <ele>676.590</ele>
        <time>2019-06-22T12:25:35Z</time>
      </trkpt>
      <trkpt lat="41.984170" lon="-7.529450">
        <ele>676.572</ele>
        <time>2019-06-22T12:25:36Z</time>
      </trkpt>
      <trkpt lat="41.983982" lon="-7.529272">
        <ele>675.354</ele>
        <time>2019-06-22T12:25:37Z</time>
      </trkpt>
      <trkpt lat="41.983794" lon="-7.529097">
        <ele>673.962</ele>
        <time>2019-06-22T12:25:38Z</time>
      </trkpt>
      <trkpt lat="41.983623" lon="-7.528915">
        <ele>673.221</ele>
        <time>2019-06-22T12:25:39Z</time>
      </trkpt>
      <trkpt lat="41.983442" lon="-7.528731">
        <ele>673.076</ele>
        <time>2019-06-22T12:25:40Z</time>
      </trkpt>
      <trkpt lat="41.983282" lon="-7.528579">
        <ele>671.999</ele>
        <time>2019-06-22T12:25:41Z</time>
      </trkpt>
      <trkpt lat="41.983108" lon="-7.528394">
        <ele>671.855</ele>
        <time>2019-06-22T12:25:42Z</time>
      </trkpt>
      <trkpt lat="41.982949" lon="-7.528229">
        <ele>671.807</ele>
        <time>2019-06-22T12:25:43Z</time>
      </trkpt>
      <trkpt lat="41.982787" lon="-7.528054">
        <ele>670.117</ele>
        <time>2019-06-22T12:25:44Z</time>
      </trkpt>
      <trkpt lat="41.982619" lon="-7.527875">
        <ele>667.408</ele>
        <time>2019-06-22T12:25:45Z</time>
      </trkpt>
      <trkpt lat="41.982449" lon="-7.527694">
        <ele>666.018</ele>
        <time>2019-06-22T12:25:46Z</time>
      </trkpt>
      <trkpt lat="41.982287" lon="-7.527516">
        <ele>665.632</ele>
        <time>2019-06-22T12:25:47Z</time>
      </trkpt>
      <trkpt lat="41.982126" lon="-7.527340">
        <ele>664.224</ele>
        <time>2019-06-22T12:25:48Z</time>
      </trkpt>
      <trkpt lat="41.981957" lon="-7.527159">
        <ele>663.456</ele>
        <time>2019-06-22T12:25:49Z</time>
      </trkpt>
      <trkpt lat="41.981796" lon="-7.527000">
        <ele>662.824</ele>
        <time>2019-06-22T12:25:50Z</time>
      </trkpt>
      <trkpt lat="41.981637" lon="-7.526852">
        <ele>660.943</ele>
        <time>2019-06-22T12:25:51Z</time>
      </trkpt>
      <trkpt lat="41.981477" lon="-7.526680">
        <ele>658.498</ele>
        <time>2019-06-22T12:25:52Z</time>
      </trkpt>
      <trkpt lat="41.981302" lon="-7.526511">
        <ele>656.921</ele>
        <time>2019-06-22T12:25:53Z</time>
      </trkpt>
      <trkpt lat="41.981131" lon="-7.526326">
        <ele>656.243</ele>
        <time>2019-06-22T12:25:54Z</time>
      </trkpt>
      <trkpt lat="41.980949" lon="-7.526136">
        <ele>653.664</ele>
        <time>2019-06-22T12:25:55Z</time>
      </trkpt>
      <trkpt lat="41.980761" lon="-7.525944">
        <ele>651.010</ele>
        <time>2019-06-22T12:25:56Z</time>
      </trkpt>
      <trkpt lat="41.980569" lon="-7.525749">
        <ele>649.808</ele>
        <time>2019-06-22T12:25:57Z</time>
      </trkpt>
      <trkpt lat="41.980373" lon="-7.525555">
        <ele>648.447</ele>
        <time>2019-06-22T12:25:58Z</time>
      </trkpt>
      <trkpt lat="41.980183" lon="-7.525341">
        <ele>647.121</ele>
        <time>2019-06-22T12:25:59Z</time>
      </trkpt>
      <trkpt lat="41.979985" lon="-7.525135">
        <ele>646.723</ele>
        <time>2019-06-22T12:26:00Z</time>
      </trkpt>
      <trkpt lat="41.979792" lon="-7.524922">
        <ele>646.435</ele>
        <time>2019-06-22T12:26:01Z</time>
      </trkpt>
      <trkpt lat="41.979597" lon="-7.524707">
        <ele>645.413</ele>
        <time>2019-06-22T12:26:02Z</time>
      </trkpt>
      <trkpt lat="41.979399" lon="-7.524507">
        <ele>643.842</ele>
        <time>2019-06-22T12:26:03Z</time>
      </trkpt>
      <trkpt lat="41.979208" lon="-7.524301">
        <ele>640.427</ele>
        <time>2019-06-22T12:26:04Z</time>
      </trkpt>
      <trkpt lat="41.979009" lon="-7.524093">
        <ele>636.870</ele>
        <time>2019-06-22T12:26:05Z</time>
      </trkpt>
      <trkpt lat="41.978814" lon="-7.523893">
        <ele>636.827</ele>
        <time>2019-06-22T12:26:06Z</time>
      </trkpt>
      <trkpt lat="41.978615" lon="-7.523692">
        <ele>634.468</ele>
        <time>2019-06-22T12:26:07Z</time>
      </trkpt>
      <trkpt lat="41.978425" lon="-7.523480">
        <ele>632.014</ele>
        <time>2019-06-22T12:26:08Z</time>
      </trkpt>
      <trkpt lat="41.978228" lon="-7.523273">
        <ele>630.008</ele>
        <time>2019-06-22T12:26:09Z</time>
      </trkpt>
      <trkpt lat="41.978031" lon="-7.523065">
        <ele>628.975</ele>
        <time>2019-06-22T12:26:10Z</time>
      </trkpt>
      <trkpt lat="41.977826" lon="-7.522845">
        <ele>628.499</ele>
        <time>2019-06-22T12:26:11Z</time>
      </trkpt>
      <trkpt lat="41.977614" lon="-7.522619">
        <ele>626.041</ele>
        <time>2019-06-22T12:26:12Z</time>
      </trkpt>
      <trkpt lat="41.977407" lon="-7.522391">
        <ele>623.943</ele>
        <time>2019-06-22T12:26:13Z</time>
      </trkpt>
      <trkpt lat="41.977193" lon="-7.522177">
        <ele>622.061</ele>
        <time>2019-06-22T12:26:14Z</time>
      </trkpt>
      <trkpt lat="41.976987" lon="-7.521956">
        <ele>620.620</ele>
        <time>2019-06-22T12:26:15Z</time>
      </trkpt>
      <trkpt lat="41.976789" lon="-7.521743">
        <ele>618.365</ele>
        <time>2019-06-22T12:26:16Z</time>
      </trkpt>
      <trkpt lat="41.976597" lon="-7.521548">
        <ele>615.948</ele>
        <time>2019-06-22T12:26:17Z</time>
      </trkpt>
      <trkpt lat="41.976404" lon="-7.521360">
        <ele>613.794</ele>
        <time>2019-06-22T12:26:18Z</time>
      </trkpt>
      <trkpt lat="41.976214" lon="-7.521174">
        <ele>611.657</ele>
        <time>2019-06-22T12:26:19Z</time>
      </trkpt>
      <trkpt lat="41.976028" lon="-7.521003">
        <ele>609.122</ele>
        <time>2019-06-22T12:26:20Z</time>
      </trkpt>
      <trkpt lat="41.975837" lon="-7.520829">
        <ele>605.308</ele>
        <time>2019-06-22T12:26:21Z</time>
      </trkpt>
      <trkpt lat="41.975629" lon="-7.520674">
        <ele>603.722</ele>
        <time>2019-06-22T12:26:22Z</time>
      </trkpt>
      <trkpt lat="41.975422" lon="-7.520532">
        <ele>600.566</ele>
        <time>2019-06-22T12:26:23Z</time>
      </trkpt>
      <trkpt lat="41.975205" lon="-7.520393">
        <ele>596.678</ele>
        <time>2019-06-22T12:26:24Z</time>
      </trkpt>
      <trkpt lat="41.974991" lon="-7.520276">
        <ele>594.630</ele>
        <time>2019-06-22T12:26:25Z</time>
      </trkpt>
      <trkpt lat="41.974762" lon="-7.520169">
        <ele>594.248</ele>
        <time>2019-06-22T12:26:26Z</time>
      </trkpt>
      <trkpt lat="41.974525" lon="-7.520064">
        <ele>593.567</ele>
        <time>2019-06-22T12:26:27Z</time>
      </trkpt>
      <trkpt lat="41.974289" lon="-7.519987">
        <ele>592.642</ele>
        <time>2019-06-22T12:26:28Z</time>
      </trkpt>
      <trkpt lat="41.974063" lon="-7.519939">
        <ele>592.175</ele>
        <time>2019-06-22T12:26:29Z</time>
      </trkpt>
      <trkpt lat="41.973832" lon="-7.519923">
        <ele>589.049</ele>
        <time>2019-06-22T12:26:30Z</time>
      </trkpt>
      <trkpt lat="41.973594" lon="-7.519905">
        <ele>585.702</ele>
        <time>2019-06-22T12:26:31Z</time>
      </trkpt>
      <trkpt lat="41.973359" lon="-7.519902">
        <ele>582.722</ele>
        <time>2019-06-22T12:26:32Z</time>
      </trkpt>
      <trkpt lat="41.973119" lon="-7.519907">
        <ele>580.308</ele>
        <time>2019-06-22T12:26:33Z</time>
      </trkpt>
      <trkpt lat="41.972878" lon="-7.519929">
        <ele>578.217</ele>
        <time>2019-06-22T12:26:34Z</time>
      </trkpt>
      <trkpt lat="41.972649" lon="-7.519959">
        <ele>578.141</ele>
        <time>2019-06-22T12:26:35Z</time>
      </trkpt>
      <trkpt lat="41.972422" lon="-7.519997">
        <ele>577.613</ele>
        <time>2019-06-22T12:26:36Z</time>
      </trkpt>
      <trkpt lat="41.972188" lon="-7.520041">
        <ele>577.555</ele>
        <time>2019-06-22T12:26:37Z</time>
      </trkpt>
      <trkpt lat="41.971956" lon="-7.520094">
        <ele>577.663</ele>
        <time>2019-06-22T12:26:38Z</time>
      </trkpt>
      <trkpt lat="41.971733" lon="-7.520147">
        <ele>577.192</ele>
        <time>2019-06-22T12:26:39Z</time>
      </trkpt>
      <trkpt lat="41.971515" lon="-7.520191">
        <ele>576.327</ele>
        <time>2019-06-22T12:26:40Z</time>
      </trkpt>
      <trkpt lat="41.971288" lon="-7.520232">
        <ele>575.530</ele>
        <time>2019-06-22T12:26:41Z</time>
      </trkpt>
      <trkpt lat="41.971060" lon="-7.520267">
        <ele>571.672</ele>
        <time>2019-06-22T12:26:42Z</time>
      </trkpt>
      <trkpt lat="41.970828" lon="-7.520295">
        <ele>567.413</ele>
        <time>2019-06-22T12:26:43Z</time>
      </trkpt>
      <trkpt lat="41.970597" lon="-7.520306">
        <ele>565.414</ele>
        <time>2019-06-22T12:26:44Z</time>
      </trkpt>
      <trkpt lat="41.970364" lon="-7.520296">
        <ele>563.508</ele>
        <time>2019-06-22T12:26:45Z</time>
      </trkpt>
      <trkpt lat="41.970129" lon="-7.520266">
        <ele>562.430</ele>
        <time>2019-06-22T12:26:46Z</time>
      </trkpt>
      <trkpt lat="41.969888" lon="-7.520243">
        <ele>562.494</ele>
        <time>2019-06-22T12:26:47Z</time>
      </trkpt>
      <trkpt lat="41.969652" lon="-7.520176">
        <ele>562.556</ele>
        <time>2019-06-22T12:26:48Z</time>
      </trkpt>
      <trkpt lat="41.969412" lon="-7.520098">
        <ele>562.588</ele>
        <time>2019-06-22T12:26:49Z</time>
      </trkpt>
      <trkpt lat="41.969185" lon="-7.520001">
        <ele>561.396</ele>
        <time>2019-06-22T12:26:50Z</time>
      </trkpt>
      <trkpt lat="41.968957" lon="-7.519893">
        <ele>559.475</ele>
        <time>2019-06-22T12:26:51Z</time>
      </trkpt>
      <trkpt lat="41.968734" lon="-7.519781">
        <ele>557.590</ele>
        <time>2019-06-22T12:26:52Z</time>
      </trkpt>
      <trkpt lat="41.968515" lon="-7.519604">
        <ele>555.843</ele>
        <time>2019-06-22T12:26:53Z</time>
      </trkpt>
      <trkpt lat="41.968301" lon="-7.519439">
        <ele>553.297</ele>
        <time>2019-06-22T12:26:54Z</time>
      </trkpt>
      <trkpt lat="41.968088" lon="-7.519273">
        <ele>550.423</ele>
        <time>2019-06-22T12:26:55Z</time>
      </trkpt>
      <trkpt lat="41.967877" lon="-7.519106">
        <ele>547.325</ele>
        <time>2019-06-22T12:26:56Z</time>
      </trkpt>
      <trkpt lat="41.967668" lon="-7.518942">
        <ele>544.608</ele>
        <time>2019-06-22T12:26:57Z</time>
      </trkpt>
      <trkpt lat="41.967460" lon="-7.518780">
        <ele>542.182</ele>
        <time>2019-06-22T12:26:58Z</time>
      </trkpt>
      <trkpt lat="41.967266" lon="-7.518599">
        <ele>542.126</ele>
        <time>2019-06-22T12:26:59Z</time>
      </trkpt>
      <trkpt lat="41.967062" lon="-7.518424">
        <ele>542.048</ele>
        <time>2019-06-22T12:27:00Z</time>
      </trkpt>
      <trkpt lat="41.966867" lon="-7.518249">
        <ele>541.990</ele>
        <time>2019-06-22T12:27:01Z</time>
      </trkpt>
      <trkpt lat="41.966675" lon="-7.518080">
        <ele>541.498</ele>
        <time>2019-06-22T12:27:02Z</time>
      </trkpt>
      <trkpt lat="41.966484" lon="-7.517915">
        <ele>540.747</ele>
        <time>2019-06-22T12:27:03Z</time>
      </trkpt>
      <trkpt lat="41.966299" lon="-7.517753">
        <ele>539.482</ele>
        <time>2019-06-22T12:27:04Z</time>
      </trkpt>
      <trkpt lat="41.966113" lon="-7.517586">
        <ele>537.865</ele>
        <time>2019-06-22T12:27:05Z</time>
      </trkpt>
      <trkpt lat="41.965951" lon="-7.517397">
        <ele>537.876</ele>
        <time>2019-06-22T12:27:06Z</time>
      </trkpt>
      <trkpt lat="41.965796" lon="-7.517195">
        <ele>535.990</ele>
        <time>2019-06-22T12:27:07Z</time>
      </trkpt>
      <trkpt lat="41.965642" lon="-7.516978">
        <ele>534.319</ele>
        <time>2019-06-22T12:27:08Z</time>
      </trkpt>
      <trkpt lat="41.965502" lon="-7.516736">
        <ele>534.008</ele>
        <time>2019-06-22T12:27:09Z</time>
      </trkpt>
      <trkpt lat="41.965379" lon="-7.516479">
        <ele>532.920</ele>
        <time>2019-06-22T12:27:10Z</time>
      </trkpt>
      <trkpt lat="41.965263" lon="-7.516202">
        <ele>531.824</ele>
        <time>2019-06-22T12:27:11Z</time>
      </trkpt>
      <trkpt lat="41.965171" lon="-7.515916">
        <ele>531.846</ele>
        <time>2019-06-22T12:27:12Z</time>
      </trkpt>
      <trkpt lat="41.965090" lon="-7.515623">
        <ele>531.448</ele>
        <time>2019-06-22T12:27:13Z</time>
      </trkpt>
      <trkpt lat="41.965016" lon="-7.515316">
        <ele>530.576</ele>
        <time>2019-06-22T12:27:14Z</time>
      </trkpt>
      <trkpt lat="41.964947" lon="-7.515013">
        <ele>528.625</ele>
        <time>2019-06-22T12:27:15Z</time>
      </trkpt>
      <trkpt lat="41.964956" lon="-7.514684">
        <ele>526.980</ele>
        <time>2019-06-22T12:27:16Z</time>
      </trkpt>
      <trkpt lat="41.964944" lon="-7.514365">
        <ele>525.433</ele>
        <time>2019-06-22T12:27:17Z</time>
      </trkpt>
      <trkpt lat="41.964956" lon="-7.514033">
        <ele>523.513</ele>
        <time>2019-06-22T12:27:18Z</time>
      </trkpt>
      <trkpt lat="41.965001" lon="-7.513735">
        <ele>521.643</ele>
        <time>2019-06-22T12:27:19Z</time>
      </trkpt>
      <trkpt lat="41.965054" lon="-7.513442">
        <ele>520.007</ele>
        <time>2019-06-22T12:27:20Z</time>
      </trkpt>
      <trkpt lat="41.965115" lon="-7.513154">
        <ele>516.708</ele>
        <time>2019-06-22T12:27:21Z</time>
      </trkpt>
      <trkpt lat="41.965164" lon="-7.512859">
        <ele>514.654</ele>
        <time>2019-06-22T12:27:22Z</time>
      </trkpt>
      <trkpt lat="41.965215" lon="-7.512559">
        <ele>512.478</ele>
        <time>2019-06-22T12:27:23Z</time>
      </trkpt>
      <trkpt lat="41.965263" lon="-7.512275">
        <ele>510.890</ele>
        <time>2019-06-22T12:27:24Z</time>
      </trkpt>
      <trkpt lat="41.965303" lon="-7.512001">
        <ele>508.952</ele>
        <time>2019-06-22T12:27:25Z</time>
      </trkpt>
      <trkpt lat="41.965343" lon="-7.511726">
        <ele>508.660</ele>
        <time>2019-06-22T12:27:26Z</time>
      </trkpt>
      <trkpt lat="41.965348" lon="-7.511475">
        <ele>507.279</ele>
        <time>2019-06-22T12:27:27Z</time>
      </trkpt>
      <trkpt lat="41.965333" lon="-7.511217">
        <ele>504.894</ele>
        <time>2019-06-22T12:27:28Z</time>
      </trkpt>
      <trkpt lat="41.965251" lon="-7.510977">
        <ele>501.787</ele>
        <time>2019-06-22T12:27:29Z</time>
      </trkpt>
      <trkpt lat="41.965166" lon="-7.510736">
        <ele>498.852</ele>
        <time>2019-06-22T12:27:30Z</time>
      </trkpt>
      <trkpt lat="41.965059" lon="-7.510502">
        <ele>496.353</ele>
        <time>2019-06-22T12:27:31Z</time>
      </trkpt>
      <trkpt lat="41.964939" lon="-7.510281">
        <ele>493.508</ele>
        <time>2019-06-22T12:27:32Z</time>
      </trkpt>
      <trkpt lat="41.964812" lon="-7.510101">
        <ele>491.608</ele>
        <time>2019-06-22T12:27:33Z</time>
      </trkpt>
      <trkpt lat="41.964618" lon="-7.509971">
        <ele>490.498</ele>
        <time>2019-06-22T12:27:34Z</time>
      </trkpt>
      <trkpt lat="41.964400" lon="-7.509895">
        <ele>488.972</ele>
        <time>2019-06-22T12:27:35Z</time>
      </trkpt>
      <trkpt lat="41.964191" lon="-7.509828">
        <ele>488.234</ele>
        <time>2019-06-22T12:27:36Z</time>
      </trkpt>
      <trkpt lat="41.964003" lon="-7.509761">
        <ele>487.656</ele>
        <time>2019-06-22T12:27:37Z</time>
      </trkpt>
      <trkpt lat="41.963797" lon="-7.509685">
        <ele>487.494</ele>
        <time>2019-06-22T12:27:38Z</time>
      </trkpt>
      <trkpt lat="41.963608" lon="-7.509626">
        <ele>486.833</ele>
        <time>2019-06-22T12:27:39Z</time>
      </trkpt>
      <trkpt lat="41.963421" lon="-7.509574">
        <ele>486.738</ele>
        <time>2019-06-22T12:27:40Z</time>
      </trkpt>
      <trkpt lat="41.963232" lon="-7.509528">
        <ele>486.081</ele>
        <time>2019-06-22T12:27:41Z</time>
      </trkpt>
      <trkpt lat="41.963037" lon="-7.509502">
        <ele>484.368</ele>
        <time>2019-06-22T12:27:42Z</time>
      </trkpt>
      <trkpt lat="41.962854" lon="-7.509466">
        <ele>482.442</ele>
        <time>2019-06-22T12:27:43Z</time>
      </trkpt>
      <trkpt lat="41.962673" lon="-7.509445">
        <ele>482.026</ele>
        <time>2019-06-22T12:27:44Z</time>
      </trkpt>
      <trkpt lat="41.962503" lon="-7.509410">
        <ele>480.908</ele>
        <time>2019-06-22T12:27:45Z</time>
      </trkpt>
      <trkpt lat="41.962340" lon="-7.509382">
        <ele>479.889</ele>
        <time>2019-06-22T12:27:46Z</time>
      </trkpt>
      <trkpt lat="41.962182" lon="-7.509346">
        <ele>478.823</ele>
        <time>2019-06-22T12:27:47Z</time>
      </trkpt>
      <trkpt lat="41.962029" lon="-7.509308">
        <ele>478.465</ele>
        <time>2019-06-22T12:27:48Z</time>
      </trkpt>
      <trkpt lat="41.961891" lon="-7.509270">
        <ele>478.317</ele>
        <time>2019-06-22T12:27:49Z</time>
      </trkpt>
      <trkpt lat="41.961766" lon="-7.509251">
        <ele>478.325</ele>
        <time>2019-06-22T12:27:50Z</time>
      </trkpt>
      <trkpt lat="41.961646" lon="-7.509196">
        <ele>478.944</ele>
        <time>2019-06-22T12:27:51Z</time>
      </trkpt>
      <trkpt lat="41.961534" lon="-7.509107">
        <ele>479.679</ele>
        <time>2019-06-22T12:27:52Z</time>
      </trkpt>
      <trkpt lat="41.961436" lon="-7.509019">
        <ele>480.532</ele>
        <time>2019-06-22T12:27:53Z</time>
      </trkpt>
      <trkpt lat="41.961368" lon="-7.508890">
        <ele>480.755</ele>
        <time>2019-06-22T12:27:54Z</time>
      </trkpt>
      <trkpt lat="41.961322" lon="-7.508759">
        <ele>480.707</ele>
        <time>2019-06-22T12:27:55Z</time>
      </trkpt>
      <trkpt lat="41.961293" lon="-7.508613">
        <ele>480.217</ele>
        <time>2019-06-22T12:27:56Z</time>
      </trkpt>
      <trkpt lat="41.961282" lon="-7.508454">
        <ele>480.108</ele>
        <time>2019-06-22T12:27:57Z</time>
      </trkpt>
      <trkpt lat="41.961281" lon="-7.508297">
        <ele>479.538</ele>
        <time>2019-06-22T12:27:58Z</time>
      </trkpt>
      <trkpt lat="41.961305" lon="-7.508122">
        <ele>478.722</ele>
        <time>2019-06-22T12:27:59Z</time>
      </trkpt>
      <trkpt lat="41.961319" lon="-7.507936">
        <ele>478.214</ele>
        <time>2019-06-22T12:28:00Z</time>
      </trkpt>
      <trkpt lat="41.961341" lon="-7.507743">
        <ele>477.516</ele>
        <time>2019-06-22T12:28:01Z</time>
      </trkpt>
      <trkpt lat="41.961361" lon="-7.507545">
        <ele>476.414</ele>
        <time>2019-06-22T12:28:02Z</time>
      </trkpt>
      <trkpt lat="41.961381" lon="-7.507350">
        <ele>475.263</ele>
        <time>2019-06-22T12:28:03Z</time>
      </trkpt>
      <trkpt lat="41.961390" lon="-7.507154">
        <ele>473.988</ele>
        <time>2019-06-22T12:28:04Z</time>
      </trkpt>
      <trkpt lat="41.961389" lon="-7.506952">
        <ele>473.981</ele>
        <time>2019-06-22T12:28:05Z</time>
      </trkpt>
      <trkpt lat="41.961397" lon="-7.506750">
        <ele>472.633</ele>
        <time>2019-06-22T12:28:06Z</time>
      </trkpt>
      <trkpt lat="41.961395" lon="-7.506548">
        <ele>470.023</ele>
        <time>2019-06-22T12:28:07Z</time>
      </trkpt>
      <trkpt lat="41.961376" lon="-7.506341">
        <ele>467.415</ele>
        <time>2019-06-22T12:28:08Z</time>
      </trkpt>
      <trkpt lat="41.961329" lon="-7.506140">
        <ele>465.208</ele>
        <time>2019-06-22T12:28:09Z</time>
      </trkpt>
      <trkpt lat="41.961286" lon="-7.505943">
        <ele>462.366</ele>
        <time>2019-06-22T12:28:10Z</time>
      </trkpt>
      <trkpt lat="41.961150" lon="-7.505778">
        <ele>459.540</ele>
        <time>2019-06-22T12:28:11Z</time>
      </trkpt>
      <trkpt lat="41.961048" lon="-7.505612">
        <ele>458.212</ele>
        <time>2019-06-22T12:28:12Z</time>
      </trkpt>
      <trkpt lat="41.960932" lon="-7.505466">
        <ele>457.564</ele>
        <time>2019-06-22T12:28:13Z</time>
      </trkpt>
      <trkpt lat="41.960797" lon="-7.505325">
        <ele>456.892</ele>
        <time>2019-06-22T12:28:14Z</time>
      </trkpt>
      <trkpt lat="41.960671" lon="-7.505137">
        <ele>456.321</ele>
        <time>2019-06-22T12:28:15Z</time>
      </trkpt>
      <trkpt lat="41.960519" lon="-7.504975">
        <ele>455.776</ele>
        <time>2019-06-22T12:28:16Z</time>
      </trkpt>
      <trkpt lat="41.960375" lon="-7.504776">
        <ele>455.059</ele>
        <time>2019-06-22T12:28:17Z</time>
      </trkpt>
      <trkpt lat="41.960227" lon="-7.504583">
        <ele>453.111</ele>
        <time>2019-06-22T12:28:18Z</time>
      </trkpt>
      <trkpt lat="41.960063" lon="-7.504369">
        <ele>451.221</ele>
        <time>2019-06-22T12:28:19Z</time>
      </trkpt>
      <trkpt lat="41.959901" lon="-7.504148">
        <ele>449.503</ele>
        <time>2019-06-22T12:28:20Z</time>
      </trkpt>
      <trkpt lat="41.959738" lon="-7.503931">
        <ele>448.408</ele>
        <time>2019-06-22T12:28:21Z</time>
      </trkpt>
      <trkpt lat="41.959560" lon="-7.503715">
        <ele>445.024</ele>
        <time>2019-06-22T12:28:22Z</time>
      </trkpt>
      <trkpt lat="41.959381" lon="-7.503502">
        <ele>442.178</ele>
        <time>2019-06-22T12:28:23Z</time>
      </trkpt>
      <trkpt lat="41.959170" lon="-7.503331">
        <ele>439.430</ele>
        <time>2019-06-22T12:28:24Z</time>
      </trkpt>
      <trkpt lat="41.958979" lon="-7.503133">
        <ele>436.552</ele>
        <time>2019-06-22T12:28:25Z</time>
      </trkpt>
      <trkpt lat="41.958793" lon="-7.502949">
        <ele>433.450</ele>
        <time>2019-06-22T12:28:26Z</time>
      </trkpt>
      <trkpt lat="41.958603" lon="-7.502765">
        <ele>431.099</ele>
        <time>2019-06-22T12:28:27Z</time>
      </trkpt>
      <trkpt lat="41.958419" lon="-7.502573">
        <ele>430.844</ele>
        <time>2019-06-22T12:28:28Z</time>
      </trkpt>
      <trkpt lat="41.958231" lon="-7.502376">
        <ele>428.937</ele>
        <time>2019-06-22T12:28:29Z</time>
      </trkpt>
      <trkpt lat="41.958058" lon="-7.502203">
        <ele>427.033</ele>
        <time>2019-06-22T12:28:30Z</time>
      </trkpt>
      <trkpt lat="41.957856" lon="-7.502010">
        <ele>424.923</ele>
        <time>2019-06-22T12:28:31Z</time>
      </trkpt>
      <trkpt lat="41.957650" lon="-7.501840">
        <ele>423.115</ele>
        <time>2019-06-22T12:28:32Z</time>
      </trkpt>
      <trkpt lat="41.957394" lon="-7.501693">
        <ele>420.108</ele>
        <time>2019-06-22T12:28:33Z</time>
      </trkpt>
      <trkpt lat="41.957141" lon="-7.501561">
        <ele>417.496</ele>
        <time>2019-06-22T12:28:34Z</time>
      </trkpt>
      <trkpt lat="41.956912" lon="-7.501390">
        <ele>415.470</ele>
        <time>2019-06-22T12:28:35Z</time>
      </trkpt>
      <trkpt lat="41.956682" lon="-7.501221">
        <ele>413.152</ele>
        <time>2019-06-22T12:28:36Z</time>
      </trkpt>
      <trkpt lat="41.956442" lon="-7.501046">
        <ele>412.554</ele>
        <time>2019-06-22T12:28:37Z</time>
      </trkpt>
      <trkpt lat="41.956198" lon="-7.500883">
        <ele>411.632</ele>
        <time>2019-06-22T12:28:38Z</time>
      </trkpt>
      <trkpt lat="41.955959" lon="-7.500700">
        <ele>409.661</ele>
        <time>2019-06-22T12:28:39Z</time>
      </trkpt>
      <trkpt lat="41.955718" lon="-7.500505">
        <ele>408.946</ele>
        <time>2019-06-22T12:28:40Z</time>
      </trkpt>
      <trkpt lat="41.955491" lon="-7.500300">
        <ele>407.899</ele>
        <time>2019-06-22T12:28:41Z</time>
      </trkpt>
      <trkpt lat="41.955271" lon="-7.500088">
        <ele>406.424</ele>
        <time>2019-06-22T12:28:42Z</time>
      </trkpt>
      <trkpt lat="41.955056" lon="-7.499862">
        <ele>403.504</ele>
        <time>2019-06-22T12:28:43Z</time>
      </trkpt>
      <trkpt lat="41.954849" lon="-7.499630">
        <ele>400.914</ele>
        <time>2019-06-22T12:28:44Z</time>
      </trkpt>
      <trkpt lat="41.954648" lon="-7.499388">
        <ele>398.408</ele>
        <time>2019-06-22T12:28:45Z</time>
      </trkpt>
      <trkpt lat="41.954449" lon="-7.499178">
        <ele>394.035</ele>
        <time>2019-06-22T12:28:46Z</time>
      </trkpt>
      <trkpt lat="41.954257" lon="-7.498931">
        <ele>389.819</ele>
        <time>2019-06-22T12:28:47Z</time>
      </trkpt>
      <trkpt lat="41.954068" lon="-7.498666">
        <ele>388.161</ele>
        <time>2019-06-22T12:28:48Z</time>
      </trkpt>
      <trkpt lat="41.953887" lon="-7.498406">
        <ele>386.053</ele>
        <time>2019-06-22T12:28:49Z</time>
      </trkpt>
      <trkpt lat="41.953699" lon="-7.498147">
        <ele>385.281</ele>
        <time>2019-06-22T12:28:50Z</time>
      </trkpt>
      <trkpt lat="41.953513" lon="-7.497885">
        <ele>385.230</ele>
        <time>2019-06-22T12:28:51Z</time>
      </trkpt>
      <trkpt lat="41.953325" lon="-7.497617">
        <ele>385.455</ele>
        <time>2019-06-22T12:28:52Z</time>
      </trkpt>
      <trkpt lat="41.953141" lon="-7.497356">
        <ele>385.468</ele>
        <time>2019-06-22T12:28:53Z</time>
      </trkpt>
      <trkpt lat="41.952958" lon="-7.497096">
        <ele>385.782</ele>
        <time>2019-06-22T12:28:54Z</time>
      </trkpt>
      <trkpt lat="41.952780" lon="-7.496833">
        <ele>387.143</ele>
        <time>2019-06-22T12:28:55Z</time>
      </trkpt>
      <trkpt lat="41.952599" lon="-7.496565">
        <ele>388.717</ele>
        <time>2019-06-22T12:28:56Z</time>
      </trkpt>
      <trkpt lat="41.952415" lon="-7.496297">
        <ele>388.908</ele>
        <time>2019-06-22T12:28:57Z</time>
      </trkpt>
      <trkpt lat="41.952232" lon="-7.496035">
        <ele>388.921</ele>
        <time>2019-06-22T12:28:58Z</time>
      </trkpt>
      <trkpt lat="41.952052" lon="-7.495770">
        <ele>388.775</ele>
        <time>2019-06-22T12:28:59Z</time>
      </trkpt>
      <trkpt lat="41.951867" lon="-7.495510">
        <ele>388.737</ele>
        <time>2019-06-22T12:29:00Z</time>
      </trkpt>
      <trkpt lat="41.951683" lon="-7.495249">
        <ele>387.079</ele>
        <time>2019-06-22T12:29:01Z</time>
      </trkpt>
      <trkpt lat="41.951498" lon="-7.494994">
        <ele>385.867</ele>
        <time>2019-06-22T12:29:02Z</time>
      </trkpt>
      <trkpt lat="41.951318" lon="-7.494741">
        <ele>385.036</ele>
        <time>2019-06-22T12:29:03Z</time>
      </trkpt>
      <trkpt lat="41.951138" lon="-7.494479">
        <ele>385.041</ele>
        <time>2019-06-22T12:29:04Z</time>
      </trkpt>
      <trkpt lat="41.950963" lon="-7.494221">
        <ele>385.664</ele>
        <time>2019-06-22T12:29:05Z</time>
      </trkpt>
      <trkpt lat="41.950787" lon="-7.493970">
        <ele>386.363</ele>
        <time>2019-06-22T12:29:06Z</time>
      </trkpt>
      <trkpt lat="41.950619" lon="-7.493716">
        <ele>386.744</ele>
        <time>2019-06-22T12:29:07Z</time>
      </trkpt>
      <trkpt lat="41.950444" lon="-7.493459">
        <ele>387.418</ele>
        <time>2019-06-22T12:29:08Z</time>
      </trkpt>
      <trkpt lat="41.950274" lon="-7.493205">
        <ele>387.408</ele>
        <time>2019-06-22T12:29:09Z</time>
      </trkpt>
      <trkpt lat="41.950103" lon="-7.492949">
        <ele>387.329</ele>
        <time>2019-06-22T12:29:10Z</time>
      </trkpt>
      <trkpt lat="41.949927" lon="-7.492697">
        <ele>386.983</ele>
        <time>2019-06-22T12:29:11Z</time>
      </trkpt>
      <trkpt lat="41.949752" lon="-7.492438">
        <ele>386.625</ele>
        <time>2019-06-22T12:29:12Z</time>
      </trkpt>
      <trkpt lat="41.949572" lon="-7.492198">
        <ele>386.627</ele>
        <time>2019-06-22T12:29:13Z</time>
      </trkpt>
      <trkpt lat="41.949407" lon="-7.491957">
        <ele>386.625</ele>
        <time>2019-06-22T12:29:14Z</time>
      </trkpt>
      <trkpt lat="41.949241" lon="-7.491745">
        <ele>386.434</ele>
        <time>2019-06-22T12:29:15Z</time>
      </trkpt>
      <trkpt lat="41.949089" lon="-7.491528">
        <ele>384.789</ele>
        <time>2019-06-22T12:29:16Z</time>
      </trkpt>
      <trkpt lat="41.948954" lon="-7.491323">
        <ele>383.292</ele>
        <time>2019-06-22T12:29:17Z</time>
      </trkpt>
      <trkpt lat="41.948818" lon="-7.491125">
        <ele>381.999</ele>
        <time>2019-06-22T12:29:18Z</time>
      </trkpt>
      <trkpt lat="41.948690" lon="-7.490933">
        <ele>380.207</ele>
        <time>2019-06-22T12:29:19Z</time>
      </trkpt>
      <trkpt lat="41.948563" lon="-7.490745">
        <ele>379.327</ele>
        <time>2019-06-22T12:29:20Z</time>
      </trkpt>
      <trkpt lat="41.948448" lon="-7.490572">
        <ele>379.308</ele>
        <time>2019-06-22T12:29:21Z</time>
      </trkpt>
      <trkpt lat="41.948337" lon="-7.490413">
        <ele>380.692</ele>
        <time>2019-06-22T12:29:22Z</time>
      </trkpt>
      <trkpt lat="41.948221" lon="-7.490267">
        <ele>382.336</ele>
        <time>2019-06-22T12:29:23Z</time>
      </trkpt>
      <trkpt lat="41.948109" lon="-7.490110">
        <ele>383.348</ele>
        <time>2019-06-22T12:29:24Z</time>
      </trkpt>
      <trkpt lat="41.948001" lon="-7.489982">
        <ele>383.980</ele>
        <time>2019-06-22T12:29:25Z</time>
      </trkpt>
      <trkpt lat="41.947903" lon="-7.489839">
        <ele>383.918</ele>
        <time>2019-06-22T12:29:26Z</time>
      </trkpt>
      <trkpt lat="41.947808" lon="-7.489704">
        <ele>383.997</ele>
        <time>2019-06-22T12:29:27Z</time>
      </trkpt>
      <trkpt lat="41.947719" lon="-7.489575">
        <ele>382.932</ele>
        <time>2019-06-22T12:29:28Z</time>
      </trkpt>
      <trkpt lat="41.947635" lon="-7.489460">
        <ele>382.985</ele>
        <time>2019-06-22T12:29:29Z</time>
      </trkpt>
      <trkpt lat="41.947544" lon="-7.489359">
        <ele>382.928</ele>
        <time>2019-06-22T12:29:30Z</time>
      </trkpt>
      <trkpt lat="41.947457" lon="-7.489265">
        <ele>383.289</ele>
        <time>2019-06-22T12:29:31Z</time>
      </trkpt>
      <trkpt lat="41.947387" lon="-7.489172">
        <ele>384.317</ele>
        <time>2019-06-22T12:29:32Z</time>
      </trkpt>
      <trkpt lat="41.947319" lon="-7.489069">
        <ele>385.608</ele>
        <time>2019-06-22T12:29:33Z</time>
      </trkpt>
      <trkpt lat="41.947257" lon="-7.488890">
        <ele>386.065</ele>
        <time>2019-06-22T12:29:34Z</time>
      </trkpt>
      <trkpt lat="41.947195" lon="-7.488730">
        <ele>386.159</ele>
        <time>2019-06-22T12:29:35Z</time>
      </trkpt>
      <trkpt lat="41.947104" lon="-7.488518">
        <ele>386.171</ele>
        <time>2019-06-22T12:29:36Z</time>
      </trkpt>
      <trkpt lat="41.947017" lon="-7.488310">
        <ele>384.733</ele>
        <time>2019-06-22T12:29:37Z</time>
      </trkpt>
      <trkpt lat="41.946939" lon="-7.488097">
        <ele>383.251</ele>
        <time>2019-06-22T12:29:38Z</time>
      </trkpt>
      <trkpt lat="41.946871" lon="-7.487868">
        <ele>382.080</ele>
        <time>2019-06-22T12:29:39Z</time>
      </trkpt>
      <trkpt lat="41.946795" lon="-7.487623">
        <ele>380.535</ele>
        <time>2019-06-22T12:29:40Z</time>
      </trkpt>
      <trkpt lat="41.946726" lon="-7.487373">
        <ele>379.458</ele>
        <time>2019-06-22T12:29:41Z</time>
      </trkpt>
      <trkpt lat="41.946656" lon="-7.487116">
        <ele>379.396</ele>
        <time>2019-06-22T12:29:42Z</time>
      </trkpt>
      <trkpt lat="41.946590" lon="-7.486862">
        <ele>378.331</ele>
        <time>2019-06-22T12:29:43Z</time>
      </trkpt>
      <trkpt lat="41.946531" lon="-7.486616">
        <ele>376.524</ele>
        <time>2019-06-22T12:29:44Z</time>
      </trkpt>
      <trkpt lat="41.946468" lon="-7.486374">
        <ele>375.108</ele>
        <time>2019-06-22T12:29:45Z</time>
      </trkpt>
      <trkpt lat="41.946405" lon="-7.486131">
        <ele>374.362</ele>
        <time>2019-06-22T12:29:46Z</time>
      </trkpt>
      <trkpt lat="41.946330" lon="-7.485889">
        <ele>373.226</ele>
        <time>2019-06-22T12:29:47Z</time>
      </trkpt>
      <trkpt lat="41.946270" lon="-7.485648">
        <ele>373.228</ele>
        <time>2019-06-22T12:29:48Z</time>
      </trkpt>
      <trkpt lat="41.946221" lon="-7.485403">
        <ele>373.850</ele>
        <time>2019-06-22T12:29:49Z</time>
      </trkpt>
      <trkpt lat="41.946162" lon="-7.485147">
        <ele>375.018</ele>
        <time>2019-06-22T12:29:50Z</time>
      </trkpt>
      <trkpt lat="41.946102" lon="-7.484883">
        <ele>375.297</ele>
        <time>2019-06-22T12:29:51Z</time>
      </trkpt>
      <trkpt lat="41.946044" lon="-7.484638">
        <ele>375.542</ele>
        <time>2019-06-22T12:29:52Z</time>
      </trkpt>
      <trkpt lat="41.945981" lon="-7.484379">
        <ele>376.245</ele>
        <time>2019-06-22T12:29:53Z</time>
      </trkpt>
      <trkpt lat="41.945918" lon="-7.484115">
        <ele>376.866</ele>
        <time>2019-06-22T12:29:54Z</time>
      </trkpt>
      <trkpt lat="41.945852" lon="-7.483854">
        <ele>376.829</ele>
        <time>2019-06-22T12:29:55Z</time>
      </trkpt>
      <trkpt lat="41.945797" lon="-7.483591">
        <ele>377.321</ele>
        <time>2019-06-22T12:29:56Z</time>
      </trkpt>
      <trkpt lat="41.945752" lon="-7.483357">
        <ele>377.808</ele>
        <time>2019-06-22T12:29:57Z</time>
      </trkpt>
      <trkpt lat="41.945693" lon="-7.483079">
        <ele>377.959</ele>
        <time>2019-06-22T12:29:58Z</time>
      </trkpt>
      <trkpt lat="41.945629" lon="-7.482802">
        <ele>378.353</ele>
        <time>2019-06-22T12:29:59Z</time>
      </trkpt>
      <trkpt lat="41.945565" lon="-7.482510">
        <ele>378.815</ele>
        <time>2019-06-22T12:30:00Z</time>
      </trkpt>
      <trkpt lat="41.945500" lon="-7.482227">
        <ele>379.177</ele>
        <time>2019-06-22T12:30:01Z</time>
      </trkpt>
      <trkpt lat="41.945439" lon="-7.481924">
        <ele>379.795</ele>
        <time>2019-06-22T12:30:02Z</time>
      </trkpt>
      <trkpt lat="41.945376" lon="-7.481635">
        <ele>380.184</ele>
        <time>2019-06-22T12:30:03Z</time>
      </trkpt>
      <trkpt lat="41.945300" lon="-7.481341">
        <ele>380.189</ele>
        <time>2019-06-22T12:30:04Z</time>
      </trkpt>
      <trkpt lat="41.945234" lon="-7.481049">
        <ele>379.572</ele>
        <time>2019-06-22T12:30:05Z</time>
      </trkpt>
      <trkpt lat="41.945164" lon="-7.480739">
        <ele>379.351</ele>
        <time>2019-06-22T12:30:06Z</time>
      </trkpt>
      <trkpt lat="41.945097" lon="-7.480425">
        <ele>379.001</ele>
        <time>2019-06-22T12:30:07Z</time>
      </trkpt>
      <trkpt lat="41.945026" lon="-7.480082">
        <ele>379.011</ele>
        <time>2019-06-22T12:30:08Z</time>
      </trkpt>
      <trkpt lat="41.944956" lon="-7.479762">
        <ele>379.108</ele>
        <time>2019-06-22T12:30:09Z</time>
      </trkpt>
      <trkpt lat="41.944887" lon="-7.479441">
        <ele>380.738</ele>
        <time>2019-06-22T12:30:10Z</time>
      </trkpt>
      <trkpt lat="41.944816" lon="-7.479097">
        <ele>381.962</ele>
        <time>2019-06-22T12:30:11Z</time>
      </trkpt>
      <trkpt lat="41.944743" lon="-7.478757">
        <ele>383.574</ele>
        <time>2019-06-22T12:30:12Z</time>
      </trkpt>
      <trkpt lat="41.944679" lon="-7.478424">
        <ele>383.586</ele>
        <time>2019-06-22T12:30:13Z</time>
      </trkpt>
      <trkpt lat="41.944615" lon="-7.478087">
        <ele>383.034</ele>
        <time>2019-06-22T12:30:14Z</time>
      </trkpt>
      <trkpt lat="41.944556" lon="-7.477731">
        <ele>381.623</ele>
        <time>2019-06-22T12:30:15Z</time>
      </trkpt>
      <trkpt lat="41.944499" lon="-7.477377">
        <ele>379.168</ele>
        <time>2019-06-22T12:30:16Z</time>
      </trkpt>
      <trkpt lat="41.944439" lon="-7.477001">
        <ele>378.291</ele>
        <time>2019-06-22T12:30:17Z</time>
      </trkpt>
      <trkpt lat="41.944376" lon="-7.476640">
        <ele>376.595</ele>
        <time>2019-06-22T12:30:18Z</time>
      </trkpt>
      <trkpt lat="41.944309" lon="-7.476258">
        <ele>375.549</ele>
        <time>2019-06-22T12:30:19Z</time>
      </trkpt>
      <trkpt lat="41.944250" lon="-7.475897">
        <ele>373.823</ele>
        <time>2019-06-22T12:30:20Z</time>
      </trkpt>
      <trkpt lat="41.944179" lon="-7.475522">
        <ele>373.408</ele>
        <time>2019-06-22T12:30:21Z</time>
      </trkpt>
      <trkpt lat="41.944108" lon="-7.475191">
        <ele>371.552</ele>
        <time>2019-06-22T12:30:22Z</time>
      </trkpt>
      <trkpt lat="41.944032" lon="-7.474825">
        <ele>369.096</ele>
        <time>2019-06-22T12:30:23Z</time>
      </trkpt>
      <trkpt lat="41.943957" lon="-7.474476">
        <ele>367.848</ele>
        <time>2019-06-22T12:30:24Z</time>
      </trkpt>
      <trkpt lat="41.943881" lon="-7.474132">
        <ele>367.820</ele>
        <time>2019-06-22T12:30:25Z</time>
      </trkpt>
      <trkpt lat="41.943808" lon="-7.473789">
        <ele>369.088</ele>
        <time>2019-06-22T12:30:26Z</time>
      </trkpt>
      <trkpt lat="41.943734" lon="-7.473453">
        <ele>369.567</ele>
        <time>2019-06-22T12:30:27Z</time>
      </trkpt>
      <trkpt lat="41.943654" lon="-7.473124">
        <ele>371.972</ele>
        <time>2019-06-22T12:30:28Z</time>
      </trkpt>
      <trkpt lat="41.943581" lon="-7.472798">
        <ele>374.985</ele>
        <time>2019-06-22T12:30:29Z</time>
      </trkpt>
      <trkpt lat="41.943505" lon="-7.472468">
        <ele>376.347</ele>
        <time>2019-06-22T12:30:30Z</time>
      </trkpt>
      <trkpt lat="41.943427" lon="-7.472129">
        <ele>376.729</ele>
        <time>2019-06-22T12:30:31Z</time>
      </trkpt>
      <trkpt lat="41.943351" lon="-7.471770">
        <ele>376.721</ele>
        <time>2019-06-22T12:30:32Z</time>
      </trkpt>
      <trkpt lat="41.943276" lon="-7.471414">
        <ele>375.908</ele>
        <time>2019-06-22T12:30:33Z</time>
      </trkpt>
      <trkpt lat="41.943201" lon="-7.471067">
        <ele>375.937</ele>
        <time>2019-06-22T12:30:34Z</time>
      </trkpt>
      <trkpt lat="41.943124" lon="-7.470705">
        <ele>376.681</ele>
        <time>2019-06-22T12:30:35Z</time>
      </trkpt>
      <trkpt lat="41.943053" lon="-7.470342">
        <ele>376.673</ele>
        <time>2019-06-22T12:30:36Z</time>
      </trkpt>
      <trkpt lat="41.942977" lon="-7.470037">
        <ele>375.475</ele>
        <time>2019-06-22T12:30:37Z</time>
      </trkpt>
      <trkpt lat="41.942901" lon="-7.469694">
        <ele>375.323</ele>
        <time>2019-06-22T12:30:38Z</time>
      </trkpt>
      <trkpt lat="41.942816" lon="-7.469371">
        <ele>374.972</ele>
        <time>2019-06-22T12:30:39Z</time>
      </trkpt>
      <trkpt lat="41.942750" lon="-7.469030">
        <ele>373.267</ele>
        <time>2019-06-22T12:30:40Z</time>
      </trkpt>
      <trkpt lat="41.942675" lon="-7.468709">
        <ele>373.290</ele>
        <time>2019-06-22T12:30:41Z</time>
      </trkpt>
      <trkpt lat="41.942589" lon="-7.468365">
        <ele>373.855</ele>
        <time>2019-06-22T12:30:42Z</time>
      </trkpt>
      <trkpt lat="41.942505" lon="-7.468009">
        <ele>374.207</ele>
        <time>2019-06-22T12:30:43Z</time>
      </trkpt>
      <trkpt lat="41.942427" lon="-7.467680">
        <ele>374.217</ele>
        <time>2019-06-22T12:30:44Z</time>
      </trkpt>
      <trkpt lat="41.942351" lon="-7.467338">
        <ele>375.508</ele>
        <time>2019-06-22T12:30:45Z</time>
      </trkpt>
      <trkpt lat="41.942282" lon="-7.466979">
        <ele>375.958</ele>
        <time>2019-06-22T12:30:46Z</time>
      </trkpt>
      <trkpt lat="41.942206" lon="-7.466650">
        <ele>375.922</ele>
        <time>2019-06-22T12:30:47Z</time>
      </trkpt>
      <trkpt lat="41.942137" lon="-7.466303">
        <ele>375.974</ele>
        <time>2019-06-22T12:30:48Z</time>
      </trkpt>
      <trkpt lat="41.942065" lon="-7.465966">
        <ele>375.036</ele>
        <time>2019-06-22T12:30:49Z</time>
      </trkpt>
      <trkpt lat="41.941989" lon="-7.465610">
        <ele>373.224</ele>
        <time>2019-06-22T12:30:50Z</time>
      </trkpt>
      <trkpt lat="41.941915" lon="-7.465278">
        <ele>372.233</ele>
        <time>2019-06-22T12:30:51Z</time>
      </trkpt>
      <trkpt lat="41.941868" lon="-7.464966">
        <ele>372.238</ele>
        <time>2019-06-22T12:30:52Z</time>
      </trkpt>
      <trkpt lat="41.941798" lon="-7.464642">
        <ele>372.261</ele>
        <time>2019-06-22T12:30:53Z</time>
      </trkpt>
      <trkpt lat="41.941731" lon="-7.464349">
        <ele>372.272</ele>
        <time>2019-06-22T12:30:54Z</time>
      </trkpt>
      <trkpt lat="41.941666" lon="-7.464021">
        <ele>372.013</ele>
        <time>2019-06-22T12:30:55Z</time>
      </trkpt>
      <trkpt lat="41.941598" lon="-7.463699">
        <ele>372.014</ele>
        <time>2019-06-22T12:30:56Z</time>
      </trkpt>
      <trkpt lat="41.941533" lon="-7.463399">
        <ele>372.008</ele>
        <time>2019-06-22T12:30:57Z</time>
      </trkpt>
      <trkpt lat="41.941465" lon="-7.463076">
        <ele>371.310</ele>
        <time>2019-06-22T12:30:58Z</time>
      </trkpt>
      <trkpt lat="41.941389" lon="-7.462732">
        <ele>370.744</ele>
        <time>2019-06-22T12:30:59Z</time>
      </trkpt>
      <trkpt lat="41.941317" lon="-7.462427">
        <ele>370.996</ele>
        <time>2019-06-22T12:31:00Z</time>
      </trkpt>
      <trkpt lat="41.941253" lon="-7.462111">
        <ele>370.778</ele>
        <time>2019-06-22T12:31:01Z</time>
      </trkpt>
      <trkpt lat="41.941180" lon="-7.461811">
        <ele>369.186</ele>
        <time>2019-06-22T12:31:02Z</time>
      </trkpt>
      <trkpt lat="41.941111" lon="-7.461511">
        <ele>369.185</ele>
        <time>2019-06-22T12:31:03Z</time>
      </trkpt>
      <trkpt lat="41.941040" lon="-7.461231">
        <ele>367.520</ele>
        <time>2019-06-22T12:31:04Z</time>
      </trkpt>
      <trkpt lat="41.940975" lon="-7.460969">
        <ele>367.373</ele>
        <time>2019-06-22T12:31:05Z</time>
      </trkpt>
      <trkpt lat="41.940923" lon="-7.460716">
        <ele>367.395</ele>
        <time>2019-06-22T12:31:06Z</time>
      </trkpt>
      <trkpt lat="41.940870" lon="-7.460471">
        <ele>368.549</ele>
        <time>2019-06-22T12:31:07Z</time>
      </trkpt>
      <trkpt lat="41.940819" lon="-7.460245">
        <ele>369.623</ele>
        <time>2019-06-22T12:31:08Z</time>
      </trkpt>
      <trkpt lat="41.940768" lon="-7.460013">
        <ele>371.808</ele>
        <time>2019-06-22T12:31:09Z</time>
      </trkpt>
      <trkpt lat="41.940717" lon="-7.459785">
        <ele>373.242</ele>
        <time>2019-06-22T12:31:10Z</time>
      </trkpt>
      <trkpt lat="41.940665" lon="-7.459567">
        <ele>374.996</ele>
        <time>2019-06-22T12:31:11Z</time>
      </trkpt>
      <trkpt lat="41.940619" lon="-7.459346">
        <ele>376.268</ele>
        <time>2019-06-22T12:31:12Z</time>
      </trkpt>
      <trkpt lat="41.940577" lon="-7.459135">
        <ele>376.290</ele>
        <time>2019-06-22T12:31:13Z</time>
      </trkpt>
      <trkpt lat="41.940541" lon="-7.458937">
        <ele>375.798</ele>
        <time>2019-06-22T12:31:14Z</time>
      </trkpt>
      <trkpt lat="41.940501" lon="-7.458729">
        <ele>375.437</ele>
        <time>2019-06-22T12:31:15Z</time>
      </trkpt>
      <trkpt lat="41.940460" lon="-7.458530">
        <ele>375.472</ele>
        <time>2019-06-22T12:31:16Z</time>
      </trkpt>
      <trkpt lat="41.940423" lon="-7.458335">
        <ele>374.655</ele>
        <time>2019-06-22T12:31:17Z</time>
      </trkpt>
      <trkpt lat="41.940372" lon="-7.458140">
        <ele>374.633</ele>
        <time>2019-06-22T12:31:18Z</time>
      </trkpt>
      <trkpt lat="41.940321" lon="-7.457937">
        <ele>374.523</ele>
        <time>2019-06-22T12:31:19Z</time>
      </trkpt>
      <trkpt lat="41.940275" lon="-7.457760">
        <ele>374.815</ele>
        <time>2019-06-22T12:31:20Z</time>
      </trkpt>
      <trkpt lat="41.940235" lon="-7.457588">
        <ele>375.008</ele>
        <time>2019-06-22T12:31:21Z</time>
      </trkpt>
      <trkpt lat="41.940188" lon="-7.457419">
        <ele>375.586</ele>
        <time>2019-06-22T12:31:22Z</time>
      </trkpt>
      <trkpt lat="41.940146" lon="-7.457249">
        <ele>375.560</ele>
        <time>2019-06-22T12:31:23Z</time>
      </trkpt>
      <trkpt lat="41.940117" lon="-7.457090">
        <ele>375.572</ele>
        <time>2019-06-22T12:31:24Z</time>
      </trkpt>
      <trkpt lat="41.940079" lon="-7.456919">
        <ele>375.134</ele>
        <time>2019-06-22T12:31:25Z</time>
      </trkpt>
      <trkpt lat="41.940038" lon="-7.456759">
        <ele>374.352</ele>
        <time>2019-06-22T12:31:26Z</time>
      </trkpt>
      <trkpt lat="41.939996" lon="-7.456619">
        <ele>374.331</ele>
        <time>2019-06-22T12:31:27Z</time>
      </trkpt>
      <trkpt lat="41.939965" lon="-7.456452">
        <ele>374.356</ele>
        <time>2019-06-22T12:31:28Z</time>
      </trkpt>
      <trkpt lat="41.939939" lon="-7.456290">
        <ele>375.399</ele>
        <time>2019-06-22T12:31:29Z</time>
      </trkpt>
      <trkpt lat="41.939906" lon="-7.456121">
        <ele>376.622</ele>
        <time>2019-06-22T12:31:30Z</time>
      </trkpt>
      <trkpt lat="41.939871" lon="-7.455980">
        <ele>377.562</ele>
        <time>2019-06-22T12:31:31Z</time>
      </trkpt>
      <trkpt lat="41.939831" lon="-7.455828">
        <ele>378.108</ele>
        <time>2019-06-22T12:31:32Z</time>
      </trkpt>
      <trkpt lat="41.939797" lon="-7.455682">
        <ele>378.308</ele>
        <time>2019-06-22T12:31:33Z</time>
      </trkpt>
      <trkpt lat="41.939755" lon="-7.455518">
        <ele>378.395</ele>
        <time>2019-06-22T12:31:34Z</time>
      </trkpt>
      <trkpt lat="41.939712" lon="-7.455345">
        <ele>378.089</ele>
        <time>2019-06-22T12:31:35Z</time>
      </trkpt>
      <trkpt lat="41.939672" lon="-7.455178">
        <ele>378.051</ele>
        <time>2019-06-22T12:31:36Z</time>
      </trkpt>
      <trkpt lat="41.939633" lon="-7.455012">
        <ele>378.133</ele>
        <time>2019-06-22T12:31:37Z</time>
      </trkpt>
      <trkpt lat="41.939587" lon="-7.454836">
        <ele>378.171</ele>
        <time>2019-06-22T12:31:38Z</time>
      </trkpt>
      <trkpt lat="41.939557" lon="-7.454665">
        <ele>377.940</ele>
        <time>2019-06-22T12:31:39Z</time>
      </trkpt>
      <trkpt lat="41.939512" lon="-7.454508">
        <ele>377.525</ele>
        <time>2019-06-22T12:31:40Z</time>
      </trkpt>
      <trkpt lat="41.939478" lon="-7.454333">
        <ele>377.078</ele>
        <time>2019-06-22T12:31:41Z</time>
      </trkpt>
      <trkpt lat="41.939450" lon="-7.454169">
        <ele>376.029</ele>
        <time>2019-06-22T12:31:42Z</time>
      </trkpt>
      <trkpt lat="41.939413" lon="-7.454009">
        <ele>376.000</ele>
        <time>2019-06-22T12:31:43Z</time>
      </trkpt>
      <trkpt lat="41.939377" lon="-7.453851">
        <ele>376.320</ele>
        <time>2019-06-22T12:31:44Z</time>
      </trkpt>
      <trkpt lat="41.939338" lon="-7.453687">
        <ele>376.708</ele>
        <time>2019-06-22T12:31:45Z</time>
      </trkpt>
      <trkpt lat="41.939276" lon="-7.453573">
        <ele>377.285</ele>
        <time>2019-06-22T12:31:46Z</time>
      </trkpt>
      <trkpt lat="41.939237" lon="-7.453438">
        <ele>378.619</ele>
        <time>2019-06-22T12:31:47Z</time>
      </trkpt>
      <trkpt lat="41.939215" lon="-7.453333">
        <ele>378.631</ele>
        <time>2019-06-22T12:31:48Z</time>
      </trkpt>
      <trkpt lat="41.939188" lon="-7.453192">
        <ele>378.753</ele>
        <time>2019-06-22T12:31:49Z</time>
      </trkpt>
      <trkpt lat="41.939153" lon="-7.453055">
        <ele>378.641</ele>
        <time>2019-06-22T12:31:50Z</time>
      </trkpt>
      <trkpt lat="41.939111" lon="-7.452896">
        <ele>378.610</ele>
        <time>2019-06-22T12:31:51Z</time>
      </trkpt>
      <trkpt lat="41.939072" lon="-7.452724">
        <ele>378.365</ele>
        <time>2019-06-22T12:31:52Z</time>
      </trkpt>
      <trkpt lat="41.939024" lon="-7.452562">
        <ele>378.328</ele>
        <time>2019-06-22T12:31:53Z</time>
      </trkpt>
      <trkpt lat="41.938981" lon="-7.452380">
        <ele>377.914</ele>
        <time>2019-06-22T12:31:54Z</time>
      </trkpt>
      <trkpt lat="41.938941" lon="-7.452206">
        <ele>377.254</ele>
        <time>2019-06-22T12:31:55Z</time>
      </trkpt>
      <trkpt lat="41.938908" lon="-7.452020">
        <ele>377.009</ele>
        <time>2019-06-22T12:31:56Z</time>
      </trkpt>
      <trkpt lat="41.938875" lon="-7.451834">
        <ele>377.008</ele>
        <time>2019-06-22T12:31:57Z</time>
      </trkpt>
      <trkpt lat="41.938825" lon="-7.451637">
        <ele>377.144</ele>
        <time>2019-06-22T12:31:58Z</time>
      </trkpt>
      <trkpt lat="41.938780" lon="-7.451439">
        <ele>377.148</ele>
        <time>2019-06-22T12:31:59Z</time>
      </trkpt>
      <trkpt lat="41.938735" lon="-7.451247">
        <ele>377.840</ele>
        <time>2019-06-22T12:32:00Z</time>
      </trkpt>
      <trkpt lat="41.938687" lon="-7.451051">
        <ele>378.352</ele>
        <time>2019-06-22T12:32:01Z</time>
      </trkpt>
      <trkpt lat="41.938642" lon="-7.450851">
        <ele>378.410</ele>
        <time>2019-06-22T12:32:02Z</time>
      </trkpt>
      <trkpt lat="41.938604" lon="-7.450648">
        <ele>378.759</ele>
        <time>2019-06-22T12:32:03Z</time>
      </trkpt>
      <trkpt lat="41.938556" lon="-7.450436">
        <ele>379.514</ele>
        <time>2019-06-22T12:32:04Z</time>
      </trkpt>
      <trkpt lat="41.938516" lon="-7.450237">
        <ele>379.997</ele>
        <time>2019-06-22T12:32:05Z</time>
      </trkpt>
      <trkpt lat="41.938468" lon="-7.450010">
        <ele>380.127</ele>
        <time>2019-06-22T12:32:06Z</time>
      </trkpt>
      <trkpt lat="41.938413" lon="-7.449800">
        <ele>380.168</ele>
        <time>2019-06-22T12:32:07Z</time>
      </trkpt>
      <trkpt lat="41.938363" lon="-7.449588">
        <ele>379.914</ele>
        <time>2019-06-22T12:32:08Z</time>
      </trkpt>
      <trkpt lat="41.938320" lon="-7.449384">
        <ele>378.808</ele>
        <time>2019-06-22T12:32:09Z</time>
      </trkpt>
      <trkpt lat="41.938277" lon="-7.449179">
        <ele>378.695</ele>
        <time>2019-06-22T12:32:10Z</time>
      </trkpt>
      <trkpt lat="41.938262" lon="-7.448973">
        <ele>378.629</ele>
        <time>2019-06-22T12:32:11Z</time>
      </trkpt>
      <trkpt lat="41.938262" lon="-7.448760">
        <ele>378.671</ele>
        <time>2019-06-22T12:32:12Z</time>
      </trkpt>
      <trkpt lat="41.938275" lon="-7.448572">
        <ele>379.073</ele>
        <time>2019-06-22T12:32:13Z</time>
      </trkpt>
      <trkpt lat="41.938305" lon="-7.448405">
        <ele>379.721</ele>
        <time>2019-06-22T12:32:14Z</time>
      </trkpt>
      <trkpt lat="41.938372" lon="-7.448203">
        <ele>379.740</ele>
        <time>2019-06-22T12:32:15Z</time>
      </trkpt>
      <trkpt lat="41.938438" lon="-7.448021">
        <ele>379.315</ele>
        <time>2019-06-22T12:32:16Z</time>
      </trkpt>
      <trkpt lat="41.938544" lon="-7.447863">
        <ele>379.228</ele>
        <time>2019-06-22T12:32:17Z</time>
      </trkpt>
      <trkpt lat="41.938659" lon="-7.447710">
        <ele>378.635</ele>
        <time>2019-06-22T12:32:18Z</time>
      </trkpt>
      <trkpt lat="41.938751" lon="-7.447599">
        <ele>378.286</ele>
        <time>2019-06-22T12:32:19Z</time>
      </trkpt>
      <trkpt lat="41.938841" lon="-7.447473">
        <ele>377.614</ele>
        <time>2019-06-22T12:32:20Z</time>
      </trkpt>
      <trkpt lat="41.938917" lon="-7.447385">
        <ele>377.408</ele>
        <time>2019-06-22T12:32:21Z</time>
      </trkpt>
      <trkpt lat="41.938999" lon="-7.447272">
        <ele>377.266</ele>
        <time>2019-06-22T12:32:22Z</time>
      </trkpt>
      <trkpt lat="41.939096" lon="-7.447156">
        <ele>377.220</ele>
        <time>2019-06-22T12:32:23Z</time>
      </trkpt>
      <trkpt lat="41.939177" lon="-7.447034">
        <ele>377.582</ele>
        <time>2019-06-22T12:32:24Z</time>
      </trkpt>
      <trkpt lat="41.939251" lon="-7.446913">
        <ele>377.894</ele>
        <time>2019-06-22T12:32:25Z</time>
      </trkpt>
      <trkpt lat="41.939317" lon="-7.446762">
        <ele>377.992</ele>
        <time>2019-06-22T12:32:26Z</time>
      </trkpt>
      <trkpt lat="41.939371" lon="-7.446627">
        <ele>377.931</ele>
        <time>2019-06-22T12:32:27Z</time>
      </trkpt>
      <trkpt lat="41.939427" lon="-7.446504">
        <ele>378.126</ele>
        <time>2019-06-22T12:32:28Z</time>
      </trkpt>
      <trkpt lat="41.939477" lon="-7.446373">
        <ele>378.249</ele>
        <time>2019-06-22T12:32:29Z</time>
      </trkpt>
      <trkpt lat="41.939530" lon="-7.446241">
        <ele>378.337</ele>
        <time>2019-06-22T12:32:30Z</time>
      </trkpt>
      <trkpt lat="41.939585" lon="-7.446114">
        <ele>378.949</ele>
        <time>2019-06-22T12:32:31Z</time>
      </trkpt>
      <trkpt lat="41.939634" lon="-7.446005">
        <ele>379.513</ele>
        <time>2019-06-22T12:32:32Z</time>
      </trkpt>
      <trkpt lat="41.939678" lon="-7.445879">
        <ele>380.208</ele>
        <time>2019-06-22T12:32:33Z</time>
      </trkpt>
      <trkpt lat="41.939719" lon="-7.445757">
        <ele>380.486</ele>
        <time>2019-06-22T12:32:34Z</time>
      </trkpt>
      <trkpt lat="41.939771" lon="-7.445624">
        <ele>381.020</ele>
        <time>2019-06-22T12:32:35Z</time>
      </trkpt>
      <trkpt lat="41.939811" lon="-7.445485">
        <ele>381.362</ele>
        <time>2019-06-22T12:32:36Z</time>
      </trkpt>
      <trkpt lat="41.939844" lon="-7.445356">
        <ele>381.414</ele>
        <time>2019-06-22T12:32:37Z</time>
      </trkpt>
      <trkpt lat="41.939868" lon="-7.445224">
        <ele>381.482</ele>
        <time>2019-06-22T12:32:38Z</time>
      </trkpt>
      <trkpt lat="41.939859" lon="-7.445106">
        <ele>381.451</ele>
        <time>2019-06-22T12:32:39Z</time>
      </trkpt>
      <trkpt lat="41.939845" lon="-7.444972">
        <ele>381.186</ele>
        <time>2019-06-22T12:32:40Z</time>
      </trkpt>
      <trkpt lat="41.939826" lon="-7.444853">
        <ele>380.889</ele>
        <time>2019-06-22T12:32:41Z</time>
      </trkpt>
      <trkpt lat="41.939801" lon="-7.444718">
        <ele>380.496</ele>
        <time>2019-06-22T12:32:42Z</time>
      </trkpt>
      <trkpt lat="41.939781" lon="-7.444581">
        <ele>380.431</ele>
        <time>2019-06-22T12:32:43Z</time>
      </trkpt>
      <trkpt lat="41.939760" lon="-7.444442">
        <ele>380.524</ele>
        <time>2019-06-22T12:32:44Z</time>
      </trkpt>
      <trkpt lat="41.939724" lon="-7.444312">
        <ele>380.708</ele>
        <time>2019-06-22T12:32:45Z</time>
      </trkpt>
      <trkpt lat="41.939698" lon="-7.444180">
        <ele>380.722</ele>
        <time>2019-06-22T12:32:46Z</time>
      </trkpt>
      <trkpt lat="41.939681" lon="-7.444052">
        <ele>380.636</ele>
        <time>2019-06-22T12:32:47Z</time>
      </trkpt>
      <trkpt lat="41.939660" lon="-7.443924">
        <ele>380.528</ele>
        <time>2019-06-22T12:32:48Z</time>
      </trkpt>
      <trkpt lat="41.939658" lon="-7.443796">
        <ele>380.440</ele>
        <time>2019-06-22T12:32:49Z</time>
      </trkpt>
      <trkpt lat="41.939675" lon="-7.443670">
        <ele>380.428</ele>
        <time>2019-06-22T12:32:50Z</time>
      </trkpt>
      <trkpt lat="41.939706" lon="-7.443571">
        <ele>380.527</ele>
        <time>2019-06-22T12:32:51Z</time>
      </trkpt>
      <trkpt lat="41.939753" lon="-7.443466">
        <ele>380.822</ele>
        <time>2019-06-22T12:32:52Z</time>
      </trkpt>
      <trkpt lat="41.939829" lon="-7.443384">
        <ele>380.915</ele>
        <time>2019-06-22T12:32:53Z</time>
      </trkpt>
      <trkpt lat="41.939897" lon="-7.443309">
        <ele>380.981</ele>
        <time>2019-06-22T12:32:54Z</time>
      </trkpt>
      <trkpt lat="41.939989" lon="-7.443258">
        <ele>380.961</ele>
        <time>2019-06-22T12:32:55Z</time>
      </trkpt>
      <trkpt lat="41.940074" lon="-7.443245">
        <ele>380.717</ele>
        <time>2019-06-22T12:32:56Z</time>
      </trkpt>
      <trkpt lat="41.940162" lon="-7.443224">
        <ele>380.508</ele>
        <time>2019-06-22T12:32:57Z</time>
      </trkpt>
      <trkpt lat="41.940244" lon="-7.443211">
        <ele>380.511</ele>
        <time>2019-06-22T12:32:58Z</time>
      </trkpt>
      <trkpt lat="41.940310" lon="-7.443188">
        <ele>380.355</ele>
        <time>2019-06-22T12:32:59Z</time>
      </trkpt>
      <trkpt lat="41.940383" lon="-7.443148">
        <ele>380.167</ele>
        <time>2019-06-22T12:33:00Z</time>
      </trkpt>
      <trkpt lat="41.940444" lon="-7.443108">
        <ele>380.149</ele>
        <time>2019-06-22T12:33:01Z</time>
      </trkpt>
      <trkpt lat="41.940497" lon="-7.443036">
        <ele>380.057</ele>
        <time>2019-06-22T12:33:02Z</time>
      </trkpt>
      <trkpt lat="41.940519" lon="-7.442933">
        <ele>379.716</ele>
        <time>2019-06-22T12:33:03Z</time>
      </trkpt>
      <trkpt lat="41.940545" lon="-7.442833">
        <ele>379.781</ele>
        <time>2019-06-22T12:33:04Z</time>
      </trkpt>
      <trkpt lat="41.940557" lon="-7.442737">
        <ele>379.884</ele>
        <time>2019-06-22T12:33:05Z</time>
      </trkpt>
      <trkpt lat="41.940564" lon="-7.442668">
        <ele>379.991</ele>
        <time>2019-06-22T12:33:06Z</time>
      </trkpt>
      <trkpt lat="41.940564" lon="-7.442590">
        <ele>380.281</ele>
        <time>2019-06-22T12:33:07Z</time>
      </trkpt>
      <trkpt lat="41.940573" lon="-7.442509">
        <ele>380.419</ele>
        <time>2019-06-22T12:33:08Z</time>
      </trkpt>
      <trkpt lat="41.940562" lon="-7.442438">
        <ele>380.608</ele>
        <time>2019-06-22T12:33:09Z</time>
      </trkpt>
      <trkpt lat="41.940558" lon="-7.442366">
        <ele>380.782</ele>
        <time>2019-06-22T12:33:10Z</time>
      </trkpt>
      <trkpt lat="41.940555" lon="-7.442291">
        <ele>380.716</ele>
        <time>2019-06-22T12:33:11Z</time>
      </trkpt>
      <trkpt lat="41.940542" lon="-7.442200">
        <ele>380.778</ele>
        <time>2019-06-22T12:33:12Z</time>
      </trkpt>
      <trkpt lat="41.940527" lon="-7.442121">
        <ele>380.750</ele>
        <time>2019-06-22T12:33:13Z</time>
      </trkpt>
      <trkpt lat="41.940517" lon="-7.442035">
        <ele>380.718</ele>
        <time>2019-06-22T12:33:14Z</time>
      </trkpt>
      <trkpt lat="41.940510" lon="-7.441954">
        <ele>380.777</ele>
        <time>2019-06-22T12:33:15Z</time>
      </trkpt>
      <trkpt lat="41.940485" lon="-7.441866">
        <ele>380.582</ele>
        <time>2019-06-22T12:33:17Z</time>
      </trkpt>
      <trkpt lat="41.940476" lon="-7.441806">
        <ele>380.595</ele>
        <time>2019-06-22T12:33:19Z</time>
      </trkpt>
      <trkpt lat="41.940446" lon="-7.441694">
        <ele>381.224</ele>
        <time>2019-06-22T12:33:23Z</time>
      </trkpt>
      <trkpt lat="41.940447" lon="-7.441578">
        <ele>381.304</ele>
        <time>2019-06-22T12:33:25Z</time>
      </trkpt>
      <trkpt lat="41.940440" lon="-7.441505">
        <ele>381.314</ele>
        <time>2019-06-22T12:33:26Z</time>
      </trkpt>
      <trkpt lat="41.940462" lon="-7.441385">
        <ele>381.408</ele>
        <time>2019-06-22T12:33:28Z</time>
      </trkpt>
      <trkpt lat="41.940467" lon="-7.441315">
        <ele>381.565</ele>
        <time>2019-06-22T12:33:29Z</time>
      </trkpt>
      <trkpt lat="41.940476" lon="-7.441235">
        <ele>381.579</ele>
        <time>2019-06-22T12:33:30Z</time>
      </trkpt>
      <trkpt lat="41.940501" lon="-7.441138">
        <ele>381.541</ele>
        <time>2019-06-22T12:33:31Z</time>
      </trkpt>
      <trkpt lat="41.940489" lon="-7.441063">
        <ele>381.433</ele>
        <time>2019-06-22T12:33:32Z</time>
      </trkpt>
      <trkpt lat="41.940503" lon="-7.440956">
        <ele>381.211</ele>
        <time>2019-06-22T12:33:33Z</time>
      </trkpt>
      <trkpt lat="41.940501" lon="-7.440862">
        <ele>380.950</ele>
        <time>2019-06-22T12:33:34Z</time>
      </trkpt>
      <trkpt lat="41.940492" lon="-7.440785">
        <ele>380.715</ele>
        <time>2019-06-22T12:33:35Z</time>
      </trkpt>
      <trkpt lat="41.940465" lon="-7.440697">
        <ele>380.578</ele>
        <time>2019-06-22T12:33:36Z</time>
      </trkpt>
      <trkpt lat="41.940448" lon="-7.440610">
        <ele>380.451</ele>
        <time>2019-06-22T12:33:37Z</time>
      </trkpt>
      <trkpt lat="41.940417" lon="-7.440523">
        <ele>380.301</ele>
        <time>2019-06-22T12:33:38Z</time>
      </trkpt>
      <trkpt lat="41.940392" lon="-7.440414">
        <ele>380.311</ele>
        <time>2019-06-22T12:33:39Z</time>
      </trkpt>
      <trkpt lat="41.940360" lon="-7.440310">
        <ele>380.308</ele>
        <time>2019-06-22T12:33:40Z</time>
      </trkpt>
      <trkpt lat="41.940316" lon="-7.440210">
        <ele>380.388</ele>
        <time>2019-06-22T12:33:41Z</time>
      </trkpt>
      <trkpt lat="41.940274" lon="-7.440096">
        <ele>380.292</ele>
        <time>2019-06-22T12:33:42Z</time>
      </trkpt>
      <trkpt lat="41.940240" lon="-7.439986">
        <ele>380.264</ele>
        <time>2019-06-22T12:33:43Z</time>
      </trkpt>
      <trkpt lat="41.940198" lon="-7.439874">
        <ele>380.126</ele>
        <time>2019-06-22T12:33:44Z</time>
      </trkpt>
      <trkpt lat="41.940188" lon="-7.439761">
        <ele>380.114</ele>
        <time>2019-06-22T12:33:45Z</time>
      </trkpt>
      <trkpt lat="41.940160" lon="-7.439653">
        <ele>380.123</ele>
        <time>2019-06-22T12:33:46Z</time>
      </trkpt>
      <trkpt lat="41.940165" lon="-7.439564">
        <ele>380.148</ele>
        <time>2019-06-22T12:33:47Z</time>
      </trkpt>
      <trkpt lat="41.940144" lon="-7.439451">
        <ele>380.221</ele>
        <time>2019-06-22T12:33:48Z</time>
      </trkpt>
      <trkpt lat="41.940133" lon="-7.439355">
        <ele>380.417</ele>
        <time>2019-06-22T12:33:49Z</time>
      </trkpt>
      <trkpt lat="41.940142" lon="-7.439258">
        <ele>380.487</ele>
        <time>2019-06-22T12:33:50Z</time>
      </trkpt>
      <trkpt lat="41.940142" lon="-7.439151">
        <ele>380.415</ele>
        <time>2019-06-22T12:33:51Z</time>
      </trkpt>
      <trkpt lat="41.940149" lon="-7.439064">
        <ele>380.408</ele>
        <time>2019-06-22T12:33:52Z</time>
      </trkpt>
      <trkpt lat="41.940149" lon="-7.438986">
        <ele>380.464</ele>
        <time>2019-06-22T12:33:53Z</time>
      </trkpt>
      <trkpt lat="41.940151" lon="-7.438903">
        <ele>380.418</ele>
        <time>2019-06-22T12:33:54Z</time>
      </trkpt>
      <trkpt lat="41.940151" lon="-7.438835">
        <ele>380.520</ele>
        <time>2019-06-22T12:33:55Z</time>
      </trkpt>
      <trkpt lat="41.940163" lon="-7.438709">
        <ele>380.642</ele>
        <time>2019-06-22T12:33:57Z</time>
      </trkpt>
      <trkpt lat="41.940167" lon="-7.438613">
        <ele>380.660</ele>
        <time>2019-06-22T12:33:59Z</time>
      </trkpt>
      <trkpt lat="41.940162" lon="-7.438522">
        <ele>380.629</ele>
        <time>2019-06-22T12:34:01Z</time>
      </trkpt>
      <trkpt lat="41.940133" lon="-7.438439">
        <ele>380.754</ele>
        <time>2019-06-22T12:34:03Z</time>
      </trkpt>
      <trkpt lat="41.940144" lon="-7.438375">
        <ele>380.777</ele>
        <time>2019-06-22T12:34:04Z</time>
      </trkpt>
      <trkpt lat="41.940149" lon="-7.438309">
        <ele>380.717</ele>
        <time>2019-06-22T12:34:05Z</time>
      </trkpt>
      <trkpt lat="41.940152" lon="-7.438224">
        <ele>380.787</ele>
        <time>2019-06-22T12:34:06Z</time>
      </trkpt>
      <trkpt lat="41.940157" lon="-7.438125">
        <ele>380.715</ele>
        <time>2019-06-22T12:34:07Z</time>
      </trkpt>
      <trkpt lat="41.940154" lon="-7.438047">
        <ele>380.608</ele>
        <time>2019-06-22T12:34:08Z</time>
      </trkpt>
      <trkpt lat="41.940153" lon="-7.437968">
        <ele>380.684</ele>
        <time>2019-06-22T12:34:09Z</time>
      </trkpt>
      <trkpt lat="41.940171" lon="-7.437882">
        <ele>380.678</ele>
        <time>2019-06-22T12:34:10Z</time>
      </trkpt>
      <trkpt lat="41.940159" lon="-7.437800">
        <ele>380.760</ele>
        <time>2019-06-22T12:34:11Z</time>
      </trkpt>
      <trkpt lat="41.940160" lon="-7.437715">
        <ele>380.852</ele>
        <time>2019-06-22T12:34:12Z</time>
      </trkpt>
      <trkpt lat="41.940137" lon="-7.437635">
        <ele>380.940</ele>
        <time>2019-06-22T12:34:13Z</time>
      </trkpt>
      <trkpt lat="41.940114" lon="-7.437562">
        <ele>381.169</ele>
        <time>2019-06-22T12:34:14Z</time>
      </trkpt>
      <trkpt lat="41.940098" lon="-7.437483">
        <ele>381.134</ele>
        <time>2019-06-22T12:34:15Z</time>
      </trkpt>
      <trkpt lat="41.940002" lon="-7.437544">
        <ele>380.647</ele>
        <time>2019-06-22T12:34:17Z</time>
      </trkpt>
      <trkpt lat="41.939945" lon="-7.437567">
        <ele>380.222</ele>
        <time>2019-06-22T12:34:18Z</time>
      </trkpt>
      <trkpt lat="41.939866" lon="-7.437641">
        <ele>380.262</ele>
        <time>2019-06-22T12:34:19Z</time>
      </trkpt>
      <trkpt lat="41.939753" lon="-7.437652">
        <ele>380.208</ele>
        <time>2019-06-22T12:34:21Z</time>
      </trkpt>
      <trkpt lat="41.939639" lon="-7.437670">
        <ele>380.308</ele>
        <time>2019-06-22T12:34:22Z</time>
      </trkpt>
      <trkpt lat="41.939520" lon="-7.437714">
        <ele>380.615</ele>
        <time>2019-06-22T12:34:23Z</time>
      </trkpt>
      <trkpt lat="41.939404" lon="-7.437740">
        <ele>380.639</ele>
        <time>2019-06-22T12:34:24Z</time>
      </trkpt>
      <trkpt lat="41.939299" lon="-7.437782">
        <ele>380.461</ele>
        <time>2019-06-22T12:34:25Z</time>
      </trkpt>
      <trkpt lat="41.939199" lon="-7.437835">
        <ele>380.283</ele>
        <time>2019-06-22T12:34:26Z</time>
      </trkpt>
      <trkpt lat="41.939109" lon="-7.437859">
        <ele>379.911</ele>
        <time>2019-06-22T12:34:27Z</time>
      </trkpt>
      <trkpt lat="41.939006" lon="-7.437873">
        <ele>379.660</ele>
        <time>2019-06-22T12:34:28Z</time>
      </trkpt>
      <trkpt lat="41.938902" lon="-7.437886">
        <ele>379.495</ele>
        <time>2019-06-22T12:34:29Z</time>
      </trkpt>
      <trkpt lat="41.938807" lon="-7.437895">
        <ele>379.488</ele>
        <time>2019-06-22T12:34:30Z</time>
      </trkpt>
      <trkpt lat="41.938728" lon="-7.437897">
        <ele>379.541</ele>
        <time>2019-06-22T12:34:31Z</time>
      </trkpt>
      <trkpt lat="41.938657" lon="-7.437914">
        <ele>379.881</ele>
        <time>2019-06-22T12:34:32Z</time>
      </trkpt>
      <trkpt lat="41.938561" lon="-7.437939">
        <ele>379.909</ele>
        <time>2019-06-22T12:34:33Z</time>
      </trkpt>
      <trkpt lat="41.938471" lon="-7.437974">
        <ele>379.908</ele>
        <time>2019-06-22T12:34:34Z</time>
      </trkpt>
      <trkpt lat="41.938385" lon="-7.438010">
        <ele>379.887</ele>
        <time>2019-06-22T12:34:35Z</time>
      </trkpt>
      <trkpt lat="41.938292" lon="-7.438044">
        <ele>379.791</ele>
        <time>2019-06-22T12:34:36Z</time>
      </trkpt>
      <trkpt lat="41.938197" lon="-7.438062">
        <ele>379.513</ele>
        <time>2019-06-22T12:34:37Z</time>
      </trkpt>
      <trkpt lat="41.938107" lon="-7.438088">
        <ele>379.265</ele>
        <time>2019-06-22T12:34:38Z</time>
      </trkpt>
      <trkpt lat="41.938021" lon="-7.438121">
        <ele>379.113</ele>
        <time>2019-06-22T12:34:39Z</time>
      </trkpt>
      <trkpt lat="41.937939" lon="-7.438153">
        <ele>379.172</ele>
        <time>2019-06-22T12:34:40Z</time>
      </trkpt>
      <trkpt lat="41.937856" lon="-7.438154">
        <ele>379.197</ele>
        <time>2019-06-22T12:34:41Z</time>
      </trkpt>
      <trkpt lat="41.937784" lon="-7.438182">
        <ele>379.160</ele>
        <time>2019-06-22T12:34:42Z</time>
      </trkpt>
      <trkpt lat="41.937697" lon="-7.438205">
        <ele>379.386</ele>
        <time>2019-06-22T12:34:43Z</time>
      </trkpt>
      <trkpt lat="41.937614" lon="-7.438233">
        <ele>379.360</ele>
        <time>2019-06-22T12:34:44Z</time>
      </trkpt>
      <trkpt lat="41.937516" lon="-7.438235">
        <ele>379.126</ele>
        <time>2019-06-22T12:34:45Z</time>
      </trkpt>
      <trkpt lat="41.937423" lon="-7.438246">
        <ele>379.008</ele>
        <time>2019-06-22T12:34:46Z</time>
      </trkpt>
      <trkpt lat="41.937336" lon="-7.438264">
        <ele>379.081</ele>
        <time>2019-06-22T12:34:47Z</time>
      </trkpt>
      <trkpt lat="41.937265" lon="-7.438276">
        <ele>378.925</ele>
        <time>2019-06-22T12:34:48Z</time>
      </trkpt>
      <trkpt lat="41.937179" lon="-7.438294">
        <ele>378.917</ele>
        <time>2019-06-22T12:34:49Z</time>
      </trkpt>
      <trkpt lat="41.937092" lon="-7.438312">
        <ele>378.859</ele>
        <time>2019-06-22T12:34:50Z</time>
      </trkpt>
      <trkpt lat="41.937009" lon="-7.438330">
        <ele>378.857</ele>
        <time>2019-06-22T12:34:51Z</time>
      </trkpt>
      <trkpt lat="41.936932" lon="-7.438353">
        <ele>378.686</ele>
        <time>2019-06-22T12:34:52Z</time>
      </trkpt>
      <trkpt lat="41.936852" lon="-7.438379">
        <ele>378.561</ele>
        <time>2019-06-22T12:34:53Z</time>
      </trkpt>
      <trkpt lat="41.936780" lon="-7.438410">
        <ele>378.434</ele>
        <time>2019-06-22T12:34:54Z</time>
      </trkpt>
      <trkpt lat="41.936690" lon="-7.438420">
        <ele>378.165</ele>
        <time>2019-06-22T12:34:55Z</time>
      </trkpt>
      <trkpt lat="41.936601" lon="-7.438425">
        <ele>378.068</ele>
        <time>2019-06-22T12:34:56Z</time>
      </trkpt>
      <trkpt lat="41.936494" lon="-7.438457">
        <ele>378.014</ele>
        <time>2019-06-22T12:34:57Z</time>
      </trkpt>
      <trkpt lat="41.936382" lon="-7.438473">
        <ele>377.808</ele>
        <time>2019-06-22T12:34:58Z</time>
      </trkpt>
      <trkpt lat="41.936287" lon="-7.438516">
        <ele>377.829</ele>
        <time>2019-06-22T12:34:59Z</time>
      </trkpt>
      <trkpt lat="41.936201" lon="-7.438547">
        <ele>378.023</ele>
        <time>2019-06-22T12:35:00Z</time>
      </trkpt>
      <trkpt lat="41.936106" lon="-7.438562">
        <ele>378.275</ele>
        <time>2019-06-22T12:35:01Z</time>
      </trkpt>
      <trkpt lat="41.936029" lon="-7.438573">
        <ele>378.277</ele>
        <time>2019-06-22T12:35:02Z</time>
      </trkpt>
      <trkpt lat="41.935962" lon="-7.438578">
        <ele>378.275</ele>
        <time>2019-06-22T12:35:03Z</time>
      </trkpt>
      <trkpt lat="41.935892" lon="-7.438582">
        <ele>378.294</ele>
        <time>2019-06-22T12:35:04Z</time>
      </trkpt>
      <trkpt lat="41.935830" lon="-7.438596">
        <ele>378.249</ele>
        <time>2019-06-22T12:35:05Z</time>
      </trkpt>
      <trkpt lat="41.935765" lon="-7.438606">
        <ele>378.232</ele>
        <time>2019-06-22T12:35:06Z</time>
      </trkpt>
      <trkpt lat="41.935687" lon="-7.438621">
        <ele>378.182</ele>
        <time>2019-06-22T12:35:07Z</time>
      </trkpt>
      <trkpt lat="41.935593" lon="-7.438636">
        <ele>378.043</ele>
        <time>2019-06-22T12:35:08Z</time>
      </trkpt>
      <trkpt lat="41.935486" lon="-7.438647">
        <ele>377.817</ele>
        <time>2019-06-22T12:35:09Z</time>
      </trkpt>
      <trkpt lat="41.935367" lon="-7.438670">
        <ele>377.608</ele>
        <time>2019-06-22T12:35:10Z</time>
      </trkpt>
      <trkpt lat="41.935231" lon="-7.438699">
        <ele>377.281</ele>
        <time>2019-06-22T12:35:11Z</time>
      </trkpt>
      <trkpt lat="41.935087" lon="-7.438728">
        <ele>376.235</ele>
        <time>2019-06-22T12:35:12Z</time>
      </trkpt>
      <trkpt lat="41.934939" lon="-7.438755">
        <ele>375.777</ele>
        <time>2019-06-22T12:35:13Z</time>
      </trkpt>
      <trkpt lat="41.934791" lon="-7.438792">
        <ele>375.149</ele>
        <time>2019-06-22T12:35:14Z</time>
      </trkpt>
      <trkpt lat="41.934660" lon="-7.438811">
        <ele>374.527</ele>
        <time>2019-06-22T12:35:15Z</time>
      </trkpt>
      <trkpt lat="41.934533" lon="-7.438840">
        <ele>374.556</ele>
        <time>2019-06-22T12:35:16Z</time>
      </trkpt>
      <trkpt lat="41.934411" lon="-7.438865">
        <ele>375.391</ele>
        <time>2019-06-22T12:35:17Z</time>
      </trkpt>
      <trkpt lat="41.934295" lon="-7.438896">
        <ele>375.914</ele>
        <time>2019-06-22T12:35:18Z</time>
      </trkpt>
      <trkpt lat="41.934179" lon="-7.438930">
        <ele>376.422</ele>
        <time>2019-06-22T12:35:19Z</time>
      </trkpt>
      <trkpt lat="41.934061" lon="-7.438967">
        <ele>377.162</ele>
        <time>2019-06-22T12:35:20Z</time>
      </trkpt>
      <trkpt lat="41.933941" lon="-7.439007">
        <ele>377.108</ele>
        <time>2019-06-22T12:35:21Z</time>
      </trkpt>
      <trkpt lat="41.933823" lon="-7.439070">
        <ele>376.808</ele>
        <time>2019-06-22T12:35:22Z</time>
      </trkpt>
      <trkpt lat="41.933708" lon="-7.439107">
        <ele>376.025</ele>
        <time>2019-06-22T12:35:23Z</time>
      </trkpt>
      <trkpt lat="41.933603" lon="-7.439171">
        <ele>374.819</ele>
        <time>2019-06-22T12:35:24Z</time>
      </trkpt>
      <trkpt lat="41.933495" lon="-7.439231">
        <ele>374.141</ele>
        <time>2019-06-22T12:35:25Z</time>
      </trkpt>
      <trkpt lat="41.933395" lon="-7.439305">
        <ele>373.583</ele>
        <time>2019-06-22T12:35:26Z</time>
      </trkpt>
      <trkpt lat="41.933281" lon="-7.439375">
        <ele>373.351</ele>
        <time>2019-06-22T12:35:27Z</time>
      </trkpt>
      <trkpt lat="41.933166" lon="-7.439450">
        <ele>373.320</ele>
        <time>2019-06-22T12:35:28Z</time>
      </trkpt>
      <trkpt lat="41.933049" lon="-7.439537">
        <ele>373.865</ele>
        <time>2019-06-22T12:35:29Z</time>
      </trkpt>
      <trkpt lat="41.932942" lon="-7.439604">
        <ele>374.178</ele>
        <time>2019-06-22T12:35:30Z</time>
      </trkpt>
      <trkpt lat="41.932832" lon="-7.439683">
        <ele>374.887</ele>
        <time>2019-06-22T12:35:31Z</time>
      </trkpt>
      <trkpt lat="41.932724" lon="-7.439758">
        <ele>374.842</ele>
        <time>2019-06-22T12:35:32Z</time>
      </trkpt>
      <trkpt lat="41.932614" lon="-7.439834">
        <ele>375.226</ele>
        <time>2019-06-22T12:35:33Z</time>
      </trkpt>
      <trkpt lat="41.932513" lon="-7.439893">
        <ele>375.408</ele>
        <time>2019-06-22T12:35:34Z</time>
      </trkpt>
      <trkpt lat="41.932408" lon="-7.439969">
        <ele>375.911</ele>
        <time>2019-06-22T12:35:35Z</time>
      </trkpt>
      <trkpt lat="41.932297" lon="-7.440054">
        <ele>376.055</ele>
        <time>2019-06-22T12:35:36Z</time>
      </trkpt>
      <trkpt lat="41.932204" lon="-7.440123">
        <ele>376.187</ele>
        <time>2019-06-22T12:35:37Z</time>
      </trkpt>
      <trkpt lat="41.932094" lon="-7.440198">
        <ele>376.169</ele>
        <time>2019-06-22T12:35:38Z</time>
      </trkpt>
      <trkpt lat="41.931975" lon="-7.440259">
        <ele>376.397</ele>
        <time>2019-06-22T12:35:39Z</time>
      </trkpt>
      <trkpt lat="41.931848" lon="-7.440326">
        <ele>376.346</ele>
        <time>2019-06-22T12:35:40Z</time>
      </trkpt>
      <trkpt lat="41.931717" lon="-7.440395">
        <ele>376.351</ele>
        <time>2019-06-22T12:35:41Z</time>
      </trkpt>
      <trkpt lat="41.931584" lon="-7.440448">
        <ele>376.484</ele>
        <time>2019-06-22T12:35:42Z</time>
      </trkpt>
      <trkpt lat="41.931449" lon="-7.440486">
        <ele>376.498</ele>
        <time>2019-06-22T12:35:43Z</time>
      </trkpt>
      <trkpt lat="41.931322" lon="-7.440519">
        <ele>376.315</ele>
        <time>2019-06-22T12:35:44Z</time>
      </trkpt>
      <trkpt lat="41.931184" lon="-7.440555">
        <ele>376.326</ele>
        <time>2019-06-22T12:35:45Z</time>
      </trkpt>
      <trkpt lat="41.931035" lon="-7.440591">
        <ele>376.008</ele>
        <time>2019-06-22T12:35:46Z</time>
      </trkpt>
      <trkpt lat="41.930892" lon="-7.440633">
        <ele>375.682</ele>
        <time>2019-06-22T12:35:47Z</time>
      </trkpt>
      <trkpt lat="41.930752" lon="-7.440676">
        <ele>375.226</ele>
        <time>2019-06-22T12:35:48Z</time>
      </trkpt>
      <trkpt lat="41.930610" lon="-7.440720">
        <ele>374.748</ele>
        <time>2019-06-22T12:35:49Z</time>
      </trkpt>
      <trkpt lat="41.930468" lon="-7.440757">
        <ele>374.460</ele>
        <time>2019-06-22T12:35:50Z</time>
      </trkpt>
      <trkpt lat="41.930318" lon="-7.440803">
        <ele>374.188</ele>
        <time>2019-06-22T12:35:51Z</time>
      </trkpt>
      <trkpt lat="41.930171" lon="-7.440834">
        <ele>374.097</ele>
        <time>2019-06-22T12:35:52Z</time>
      </trkpt>
      <trkpt lat="41.930009" lon="-7.440879">
        <ele>374.052</ele>
        <time>2019-06-22T12:35:53Z</time>
      </trkpt>
      <trkpt lat="41.929846" lon="-7.440922">
        <ele>374.035</ele>
        <time>2019-06-22T12:35:54Z</time>
      </trkpt>
      <trkpt lat="41.929647" lon="-7.440960">
        <ele>374.135</ele>
        <time>2019-06-22T12:35:55Z</time>
      </trkpt>
      <trkpt lat="41.929459" lon="-7.441004">
        <ele>374.486</ele>
        <time>2019-06-22T12:35:56Z</time>
      </trkpt>
      <trkpt lat="41.929261" lon="-7.441058">
        <ele>374.414</ele>
        <time>2019-06-22T12:35:57Z</time>
      </trkpt>
      <trkpt lat="41.929057" lon="-7.441121">
        <ele>373.808</ele>
        <time>2019-06-22T12:35:58Z</time>
      </trkpt>
      <trkpt lat="41.928852" lon="-7.441185">
        <ele>373.826</ele>
        <time>2019-06-22T12:35:59Z</time>
      </trkpt>
      <trkpt lat="41.928643" lon="-7.441251">
        <ele>372.880</ele>
        <time>2019-06-22T12:36:00Z</time>
      </trkpt>
      <trkpt lat="41.928430" lon="-7.441308">
        <ele>372.782</ele>
        <time>2019-06-22T12:36:01Z</time>
      </trkpt>
      <trkpt lat="41.928220" lon="-7.441365">
        <ele>372.754</ele>
        <time>2019-06-22T12:36:02Z</time>
      </trkpt>
      <trkpt lat="41.928006" lon="-7.441428">
        <ele>372.882</ele>
        <time>2019-06-22T12:36:03Z</time>
      </trkpt>
      <trkpt lat="41.927793" lon="-7.441487">
        <ele>372.831</ele>
        <time>2019-06-22T12:36:04Z</time>
      </trkpt>
      <trkpt lat="41.927585" lon="-7.441544">
        <ele>372.686</ele>
        <time>2019-06-22T12:36:05Z</time>
      </trkpt>
      <trkpt lat="41.927379" lon="-7.441604">
        <ele>371.999</ele>
        <time>2019-06-22T12:36:06Z</time>
      </trkpt>
      <trkpt lat="41.927170" lon="-7.441668">
        <ele>370.892</ele>
        <time>2019-06-22T12:36:07Z</time>
      </trkpt>
      <trkpt lat="41.926963" lon="-7.441729">
        <ele>370.173</ele>
        <time>2019-06-22T12:36:08Z</time>
      </trkpt>
      <trkpt lat="41.926753" lon="-7.441787">
        <ele>370.120</ele>
        <time>2019-06-22T12:36:09Z</time>
      </trkpt>
      <trkpt lat="41.926554" lon="-7.441851">
        <ele>369.808</ele>
        <time>2019-06-22T12:36:10Z</time>
      </trkpt>
      <trkpt lat="41.926354" lon="-7.441920">
        <ele>369.822</ele>
        <time>2019-06-22T12:36:11Z</time>
      </trkpt>
      <trkpt lat="41.926145" lon="-7.441999">
        <ele>370.666</ele>
        <time>2019-06-22T12:36:12Z</time>
      </trkpt>
      <trkpt lat="41.925945" lon="-7.442083">
        <ele>370.668</ele>
        <time>2019-06-22T12:36:13Z</time>
      </trkpt>
      <trkpt lat="41.925742" lon="-7.442178">
        <ele>370.080</ele>
        <time>2019-06-22T12:36:14Z</time>
      </trkpt>
      <trkpt lat="41.925536" lon="-7.442260">
        <ele>369.928</ele>
        <time>2019-06-22T12:36:15Z</time>
      </trkpt>
      <trkpt lat="41.925323" lon="-7.442345">
        <ele>369.827</ele>
        <time>2019-06-22T12:36:16Z</time>
      </trkpt>
      <trkpt lat="41.925114" lon="-7.442427">
        <ele>369.212</ele>
        <time>2019-06-22T12:36:17Z</time>
      </trkpt>
      <trkpt lat="41.924898" lon="-7.442519">
        <ele>368.745</ele>
        <time>2019-06-22T12:36:18Z</time>
      </trkpt>
      <trkpt lat="41.924687" lon="-7.442611">
        <ele>368.453</ele>
        <time>2019-06-22T12:36:19Z</time>
      </trkpt>
      <trkpt lat="41.924484" lon="-7.442699">
        <ele>367.404</ele>
        <time>2019-06-22T12:36:20Z</time>
      </trkpt>
      <trkpt lat="41.924284" lon="-7.442780">
        <ele>366.514</ele>
        <time>2019-06-22T12:36:21Z</time>
      </trkpt>
      <trkpt lat="41.924075" lon="-7.442866">
        <ele>365.408</ele>
        <time>2019-06-22T12:36:22Z</time>
      </trkpt>
      <trkpt lat="41.923866" lon="-7.442949">
        <ele>365.478</ele>
        <time>2019-06-22T12:36:23Z</time>
      </trkpt>
      <trkpt lat="41.923659" lon="-7.443033">
        <ele>365.792</ele>
        <time>2019-06-22T12:36:24Z</time>
      </trkpt>
      <trkpt lat="41.923452" lon="-7.443108">
        <ele>366.334</ele>
        <time>2019-06-22T12:36:25Z</time>
      </trkpt>
      <trkpt lat="41.923243" lon="-7.443178">
        <ele>366.366</ele>
        <time>2019-06-22T12:36:26Z</time>
      </trkpt>
      <trkpt lat="41.923035" lon="-7.443249">
        <ele>366.524</ele>
        <time>2019-06-22T12:36:27Z</time>
      </trkpt>
      <trkpt lat="41.922831" lon="-7.443320">
        <ele>366.593</ele>
        <time>2019-06-22T12:36:28Z</time>
      </trkpt>
      <trkpt lat="41.922623" lon="-7.443392">
        <ele>364.888</ele>
        <time>2019-06-22T12:36:29Z</time>
      </trkpt>
      <trkpt lat="41.922416" lon="-7.443467">
        <ele>364.851</ele>
        <time>2019-06-22T12:36:30Z</time>
      </trkpt>
      <trkpt lat="41.922218" lon="-7.443520">
        <ele>364.972</ele>
        <time>2019-06-22T12:36:31Z</time>
      </trkpt>
      <trkpt lat="41.922015" lon="-7.443586">
        <ele>365.013</ele>
        <time>2019-06-22T12:36:32Z</time>
      </trkpt>
      <trkpt lat="41.921817" lon="-7.443637">
        <ele>365.414</ele>
        <time>2019-06-22T12:36:33Z</time>
      </trkpt>
      <trkpt lat="41.921611" lon="-7.443674">
        <ele>367.808</ele>
        <time>2019-06-22T12:36:34Z</time>
      </trkpt>
      <trkpt lat="41.921399" lon="-7.443694">
        <ele>368.760</ele>
        <time>2019-06-22T12:36:35Z</time>
      </trkpt>
      <trkpt lat="41.921188" lon="-7.443714">
        <ele>368.764</ele>
        <time>2019-06-22T12:36:36Z</time>
      </trkpt>
      <trkpt lat="41.920978" lon="-7.443724">
        <ele>368.366</ele>
        <time>2019-06-22T12:36:37Z</time>
      </trkpt>
      <trkpt lat="41.920761" lon="-7.443728">
        <ele>367.098</ele>
        <time>2019-06-22T12:36:38Z</time>
      </trkpt>
      <trkpt lat="41.920545" lon="-7.443734">
        <ele>365.936</ele>
        <time>2019-06-22T12:36:39Z</time>
      </trkpt>
      <trkpt lat="41.920331" lon="-7.443747">
        <ele>364.865</ele>
        <time>2019-06-22T12:36:40Z</time>
      </trkpt>
      <trkpt lat="41.920122" lon="-7.443758">
        <ele>363.660</ele>
        <time>2019-06-22T12:36:41Z</time>
      </trkpt>
      <trkpt lat="41.919915" lon="-7.443768">
        <ele>362.423</ele>
        <time>2019-06-22T12:36:42Z</time>
      </trkpt>
      <trkpt lat="41.919716" lon="-7.443782">
        <ele>362.057</ele>
        <time>2019-06-22T12:36:43Z</time>
      </trkpt>
      <trkpt lat="41.919527" lon="-7.443797">
        <ele>361.200</ele>
        <time>2019-06-22T12:36:44Z</time>
      </trkpt>
      <trkpt lat="41.919343" lon="-7.443819">
        <ele>361.220</ele>
        <time>2019-06-22T12:36:45Z</time>
      </trkpt>
      <trkpt lat="41.919170" lon="-7.443827">
        <ele>362.708</ele>
        <time>2019-06-22T12:36:46Z</time>
      </trkpt>
      <trkpt lat="41.919000" lon="-7.443835">
        <ele>364.698</ele>
        <time>2019-06-22T12:36:47Z</time>
      </trkpt>
      <trkpt lat="41.918825" lon="-7.443822">
        <ele>365.432</ele>
        <time>2019-06-22T12:36:48Z</time>
      </trkpt>
      <trkpt lat="41.918642" lon="-7.443806">
        <ele>366.044</ele>
        <time>2019-06-22T12:36:49Z</time>
      </trkpt>
      <trkpt lat="41.918461" lon="-7.443790">
        <ele>366.076</ele>
        <time>2019-06-22T12:36:50Z</time>
      </trkpt>
      <trkpt lat="41.918258" lon="-7.443761">
        <ele>365.994</ele>
        <time>2019-06-22T12:36:51Z</time>
      </trkpt>
      <trkpt lat="41.918072" lon="-7.443704">
        <ele>365.993</ele>
        <time>2019-06-22T12:36:52Z</time>
      </trkpt>
      <trkpt lat="41.917880" lon="-7.443646">
        <ele>366.198</ele>
        <time>2019-06-22T12:36:53Z</time>
      </trkpt>
      <trkpt lat="41.917691" lon="-7.443581">
        <ele>367.551</ele>
        <time>2019-06-22T12:36:54Z</time>
      </trkpt>
      <trkpt lat="41.917495" lon="-7.443530">
        <ele>367.781</ele>
        <time>2019-06-22T12:36:55Z</time>
      </trkpt>
      <trkpt lat="41.917295" lon="-7.443472">
        <ele>367.761</ele>
        <time>2019-06-22T12:36:56Z</time>
      </trkpt>
      <trkpt lat="41.917094" lon="-7.443421">
        <ele>367.417</ele>
        <time>2019-06-22T12:36:57Z</time>
      </trkpt>
      <trkpt lat="41.916878" lon="-7.443393">
        <ele>366.708</ele>
        <time>2019-06-22T12:36:58Z</time>
      </trkpt>
      <trkpt lat="41.916657" lon="-7.443384">
        <ele>365.821</ele>
        <time>2019-06-22T12:36:59Z</time>
      </trkpt>
      <trkpt lat="41.916445" lon="-7.443375">
        <ele>365.415</ele>
        <time>2019-06-22T12:37:00Z</time>
      </trkpt>
      <trkpt lat="41.916236" lon="-7.443365">
        <ele>364.537</ele>
        <time>2019-06-22T12:37:01Z</time>
      </trkpt>
      <trkpt lat="41.916020" lon="-7.443359">
        <ele>364.579</ele>
        <time>2019-06-22T12:37:02Z</time>
      </trkpt>
      <trkpt lat="41.915808" lon="-7.443355">
        <ele>364.557</ele>
        <time>2019-06-22T12:37:03Z</time>
      </trkpt>
      <trkpt lat="41.915599" lon="-7.443348">
        <ele>364.546</ele>
        <time>2019-06-22T12:37:04Z</time>
      </trkpt>
      <trkpt lat="41.915386" lon="-7.443334">
        <ele>362.951</ele>
        <time>2019-06-22T12:37:05Z</time>
      </trkpt>
      <trkpt lat="41.915190" lon="-7.443327">
        <ele>362.244</ele>
        <time>2019-06-22T12:37:06Z</time>
      </trkpt>
      <trkpt lat="41.914991" lon="-7.443320">
        <ele>361.153</ele>
        <time>2019-06-22T12:37:07Z</time>
      </trkpt>
      <trkpt lat="41.914797" lon="-7.443310">
        <ele>359.804</ele>
        <time>2019-06-22T12:37:08Z</time>
      </trkpt>
      <trkpt lat="41.914614" lon="-7.443301">
        <ele>359.814</ele>
        <time>2019-06-22T12:37:09Z</time>
      </trkpt>
      <trkpt lat="41.914429" lon="-7.443285">
        <ele>360.208</ele>
        <time>2019-06-22T12:37:10Z</time>
      </trkpt>
      <trkpt lat="41.914261" lon="-7.443278">
        <ele>361.378</ele>
        <time>2019-06-22T12:37:11Z</time>
      </trkpt>
      <trkpt lat="41.914092" lon="-7.443265">
        <ele>362.582</ele>
        <time>2019-06-22T12:37:12Z</time>
      </trkpt>
      <trkpt lat="41.913938" lon="-7.443261">
        <ele>363.354</ele>
        <time>2019-06-22T12:37:13Z</time>
      </trkpt>
      <trkpt lat="41.913796" lon="-7.443272">
        <ele>363.316</ele>
        <time>2019-06-22T12:37:14Z</time>
      </trkpt>
      <trkpt lat="41.913670" lon="-7.443292">
        <ele>363.314</ele>
        <time>2019-06-22T12:37:15Z</time>
      </trkpt>
      <trkpt lat="41.913549" lon="-7.443319">
        <ele>363.373</ele>
        <time>2019-06-22T12:37:16Z</time>
      </trkpt>
      <trkpt lat="41.913445" lon="-7.443367">
        <ele>362.118</ele>
        <time>2019-06-22T12:37:17Z</time>
      </trkpt>
      <trkpt lat="41.913345" lon="-7.443427">
        <ele>361.171</ele>
        <time>2019-06-22T12:37:18Z</time>
      </trkpt>
      <trkpt lat="41.913257" lon="-7.443470">
        <ele>361.182</ele>
        <time>2019-06-22T12:37:19Z</time>
      </trkpt>
      <trkpt lat="41.913167" lon="-7.443496">
        <ele>361.643</ele>
        <time>2019-06-22T12:37:20Z</time>
      </trkpt>
      <trkpt lat="41.913078" lon="-7.443489">
        <ele>363.417</ele>
        <time>2019-06-22T12:37:21Z</time>
      </trkpt>
      <trkpt lat="41.912998" lon="-7.443445">
        <ele>365.608</ele>
        <time>2019-06-22T12:37:22Z</time>
      </trkpt>
      <trkpt lat="41.912918" lon="-7.443381">
        <ele>368.171</ele>
        <time>2019-06-22T12:37:23Z</time>
      </trkpt>
      <trkpt lat="41.912844" lon="-7.443299">
        <ele>369.835</ele>
        <time>2019-06-22T12:37:24Z</time>
      </trkpt>
      <trkpt lat="41.912753" lon="-7.443228">
        <ele>370.157</ele>
        <time>2019-06-22T12:37:25Z</time>
      </trkpt>
      <trkpt lat="41.912646" lon="-7.443203">
        <ele>370.159</ele>
        <time>2019-06-22T12:37:26Z</time>
      </trkpt>
      <trkpt lat="41.912539" lon="-7.443171">
        <ele>369.357</ele>
        <time>2019-06-22T12:37:27Z</time>
      </trkpt>
      <trkpt lat="41.912416" lon="-7.443181">
        <ele>368.546</ele>
        <time>2019-06-22T12:37:28Z</time>
      </trkpt>
      <trkpt lat="41.912314" lon="-7.443196">
        <ele>368.361</ele>
        <time>2019-06-22T12:37:29Z</time>
      </trkpt>
      <trkpt lat="41.912201" lon="-7.443201">
        <ele>368.374</ele>
        <time>2019-06-22T12:37:30Z</time>
      </trkpt>
      <trkpt lat="41.912098" lon="-7.443205">
        <ele>368.947</ele>
        <time>2019-06-22T12:37:31Z</time>
      </trkpt>
      <trkpt lat="41.912003" lon="-7.443230">
        <ele>369.629</ele>
        <time>2019-06-22T12:37:32Z</time>
      </trkpt>
      <trkpt lat="41.911915" lon="-7.443285">
        <ele>369.621</ele>
        <time>2019-06-22T12:37:33Z</time>
      </trkpt>
      <trkpt lat="41.911844" lon="-7.443361">
        <ele>369.608</ele>
        <time>2019-06-22T12:37:34Z</time>
      </trkpt>
      <trkpt lat="41.911767" lon="-7.443435">
        <ele>369.377</ele>
        <time>2019-06-22T12:37:35Z</time>
      </trkpt>
      <trkpt lat="41.911688" lon="-7.443496">
        <ele>369.291</ele>
        <time>2019-06-22T12:37:36Z</time>
      </trkpt>
      <trkpt lat="41.911598" lon="-7.443524">
        <ele>369.383</ele>
        <time>2019-06-22T12:37:37Z</time>
      </trkpt>
      <trkpt lat="41.911515" lon="-7.443489">
        <ele>369.515</ele>
        <time>2019-06-22T12:37:38Z</time>
      </trkpt>
      <trkpt lat="41.911437" lon="-7.443450">
        <ele>370.213</ele>
        <time>2019-06-22T12:37:39Z</time>
      </trkpt>
      <trkpt lat="41.911353" lon="-7.443380">
        <ele>370.862</ele>
        <time>2019-06-22T12:37:40Z</time>
      </trkpt>
      <trkpt lat="41.911272" lon="-7.443306">
        <ele>370.837</ele>
        <time>2019-06-22T12:37:41Z</time>
      </trkpt>
      <trkpt lat="41.911166" lon="-7.443231">
        <ele>370.850</ele>
        <time>2019-06-22T12:37:42Z</time>
      </trkpt>
      <trkpt lat="41.911045" lon="-7.443185">
        <ele>370.161</ele>
        <time>2019-06-22T12:37:43Z</time>
      </trkpt>
      <trkpt lat="41.910904" lon="-7.443151">
        <ele>369.121</ele>
        <time>2019-06-22T12:37:44Z</time>
      </trkpt>
      <trkpt lat="41.910756" lon="-7.443138">
        <ele>367.413</ele>
        <time>2019-06-22T12:37:45Z</time>
      </trkpt>
      <trkpt lat="41.910600" lon="-7.443133">
        <ele>365.908</ele>
        <time>2019-06-22T12:37:46Z</time>
      </trkpt>
      <trkpt lat="41.910446" lon="-7.443127">
        <ele>364.869</ele>
        <time>2019-06-22T12:37:47Z</time>
      </trkpt>
      <trkpt lat="41.910284" lon="-7.443123">
        <ele>364.763</ele>
        <time>2019-06-22T12:37:48Z</time>
      </trkpt>
      <trkpt lat="41.910124" lon="-7.443116">
        <ele>364.765</ele>
        <time>2019-06-22T12:37:49Z</time>
      </trkpt>
      <trkpt lat="41.909953" lon="-7.443117">
        <ele>365.277</ele>
        <time>2019-06-22T12:37:50Z</time>
      </trkpt>
      <trkpt lat="41.909786" lon="-7.443113">
        <ele>365.845</ele>
        <time>2019-06-22T12:37:51Z</time>
      </trkpt>
      <trkpt lat="41.909622" lon="-7.443102">
        <ele>365.884</ele>
        <time>2019-06-22T12:37:52Z</time>
      </trkpt>
      <trkpt lat="41.909456" lon="-7.443088">
        <ele>365.279</ele>
        <time>2019-06-22T12:37:53Z</time>
      </trkpt>
      <trkpt lat="41.909285" lon="-7.443079">
        <ele>363.522</ele>
        <time>2019-06-22T12:37:54Z</time>
      </trkpt>
      <trkpt lat="41.909118" lon="-7.443073">
        <ele>363.264</ele>
        <time>2019-06-22T12:37:55Z</time>
      </trkpt>
      <trkpt lat="41.908962" lon="-7.443062">
        <ele>362.906</ele>
        <time>2019-06-22T12:37:56Z</time>
      </trkpt>
      <trkpt lat="41.908809" lon="-7.443053">
        <ele>362.516</ele>
        <time>2019-06-22T12:37:57Z</time>
      </trkpt>
      <trkpt lat="41.908669" lon="-7.443044">
        <ele>362.508</ele>
        <time>2019-06-22T12:37:58Z</time>
      </trkpt>
      <trkpt lat="41.908534" lon="-7.443033">
        <ele>362.989</ele>
        <time>2019-06-22T12:37:59Z</time>
      </trkpt>
      <trkpt lat="41.908413" lon="-7.443048">
        <ele>362.973</ele>
        <time>2019-06-22T12:38:00Z</time>
      </trkpt>
      <trkpt lat="41.908298" lon="-7.443082">
        <ele>362.995</ele>
        <time>2019-06-22T12:38:01Z</time>
      </trkpt>
      <trkpt lat="41.908190" lon="-7.443125">
        <ele>363.147</ele>
        <time>2019-06-22T12:38:02Z</time>
      </trkpt>
      <trkpt lat="41.908090" lon="-7.443147">
        <ele>364.135</ele>
        <time>2019-06-22T12:38:03Z</time>
      </trkpt>
      <trkpt lat="41.907994" lon="-7.443144">
        <ele>365.964</ele>
        <time>2019-06-22T12:38:04Z</time>
      </trkpt>
      <trkpt lat="41.907900" lon="-7.443104">
        <ele>368.029</ele>
        <time>2019-06-22T12:38:05Z</time>
      </trkpt>
      <trkpt lat="41.907797" lon="-7.443042">
        <ele>369.412</ele>
        <time>2019-06-22T12:38:06Z</time>
      </trkpt>
      <trkpt lat="41.907680" lon="-7.442993">
        <ele>370.311</ele>
        <time>2019-06-22T12:38:07Z</time>
      </trkpt>
      <trkpt lat="41.907541" lon="-7.442968">
        <ele>370.621</ele>
        <time>2019-06-22T12:38:08Z</time>
      </trkpt>
      <trkpt lat="41.907393" lon="-7.442947">
        <ele>370.603</ele>
        <time>2019-06-22T12:38:09Z</time>
      </trkpt>
      <trkpt lat="41.907237" lon="-7.442917">
        <ele>370.008</ele>
        <time>2019-06-22T12:38:10Z</time>
      </trkpt>
      <trkpt lat="41.907079" lon="-7.442895">
        <ele>368.624</ele>
        <time>2019-06-22T12:38:11Z</time>
      </trkpt>
      <trkpt lat="41.906904" lon="-7.442882">
        <ele>366.718</ele>
        <time>2019-06-22T12:38:12Z</time>
      </trkpt>
      <trkpt lat="41.906731" lon="-7.442862">
        <ele>364.470</ele>
        <time>2019-06-22T12:38:13Z</time>
      </trkpt>
      <trkpt lat="41.906557" lon="-7.442837">
        <ele>362.052</ele>
        <time>2019-06-22T12:38:14Z</time>
      </trkpt>
      <trkpt lat="41.906382" lon="-7.442817">
        <ele>359.190</ele>
        <time>2019-06-22T12:38:15Z</time>
      </trkpt>
      <trkpt lat="41.906199" lon="-7.442789">
        <ele>357.479</ele>
        <time>2019-06-22T12:38:16Z</time>
      </trkpt>
      <trkpt lat="41.906016" lon="-7.442757">
        <ele>356.214</ele>
        <time>2019-06-22T12:38:17Z</time>
      </trkpt>
      <trkpt lat="41.905834" lon="-7.442725">
        <ele>355.497</ele>
        <time>2019-06-22T12:38:18Z</time>
      </trkpt>
      <trkpt lat="41.905645" lon="-7.442694">
        <ele>355.267</ele>
        <time>2019-06-22T12:38:19Z</time>
      </trkpt>
      <trkpt lat="41.905456" lon="-7.442664">
        <ele>355.181</ele>
        <time>2019-06-22T12:38:20Z</time>
      </trkpt>
      <trkpt lat="41.905268" lon="-7.442627">
        <ele>355.119</ele>
        <time>2019-06-22T12:38:21Z</time>
      </trkpt>
      <trkpt lat="41.905081" lon="-7.442593">
        <ele>355.108</ele>
        <time>2019-06-22T12:38:22Z</time>
      </trkpt>
      <trkpt lat="41.904889" lon="-7.442549">
        <ele>355.389</ele>
        <time>2019-06-22T12:38:23Z</time>
      </trkpt>
      <trkpt lat="41.904700" lon="-7.442514">
        <ele>355.643</ele>
        <time>2019-06-22T12:38:24Z</time>
      </trkpt>
      <trkpt lat="41.904518" lon="-7.442487">
        <ele>355.845</ele>
        <time>2019-06-22T12:38:25Z</time>
      </trkpt>
      <trkpt lat="41.904317" lon="-7.442460">
        <ele>355.987</ele>
        <time>2019-06-22T12:38:26Z</time>
      </trkpt>
      <trkpt lat="41.904120" lon="-7.442423">
        <ele>356.325</ele>
        <time>2019-06-22T12:38:27Z</time>
      </trkpt>
      <trkpt lat="41.903924" lon="-7.442392">
        <ele>356.724</ele>
        <time>2019-06-22T12:38:28Z</time>
      </trkpt>
      <trkpt lat="41.903724" lon="-7.442348">
        <ele>356.749</ele>
        <time>2019-06-22T12:38:29Z</time>
      </trkpt>
      <trkpt lat="41.903526" lon="-7.442316">
        <ele>356.422</ele>
        <time>2019-06-22T12:38:30Z</time>
      </trkpt>
      <trkpt lat="41.903323" lon="-7.442291">
        <ele>356.424</ele>
        <time>2019-06-22T12:38:31Z</time>
      </trkpt>
      <trkpt lat="41.903125" lon="-7.442254">
        <ele>357.804</ele>
        <time>2019-06-22T12:38:32Z</time>
      </trkpt>
      <trkpt lat="41.902923" lon="-7.442219">
        <ele>358.814</ele>
        <time>2019-06-22T12:38:33Z</time>
      </trkpt>
      <trkpt lat="41.902716" lon="-7.442192">
        <ele>358.908</ele>
        <time>2019-06-22T12:38:34Z</time>
      </trkpt>
      <trkpt lat="41.902507" lon="-7.442151">
        <ele>359.275</ele>
        <time>2019-06-22T12:38:35Z</time>
      </trkpt>
      <trkpt lat="41.902289" lon="-7.442116">
        <ele>359.299</ele>
        <time>2019-06-22T12:38:36Z</time>
      </trkpt>
      <trkpt lat="41.902069" lon="-7.442081">
        <ele>359.281</ele>
        <time>2019-06-22T12:38:37Z</time>
      </trkpt>
      <trkpt lat="41.901848" lon="-7.442037">
        <ele>359.243</ele>
        <time>2019-06-22T12:38:38Z</time>
      </trkpt>
      <trkpt lat="41.901624" lon="-7.441997">
        <ele>359.761</ele>
        <time>2019-06-22T12:38:39Z</time>
      </trkpt>
      <trkpt lat="41.901404" lon="-7.441957">
        <ele>359.710</ele>
        <time>2019-06-22T12:38:40Z</time>
      </trkpt>
      <trkpt lat="41.901177" lon="-7.441909">
        <ele>359.755</ele>
        <time>2019-06-22T12:38:41Z</time>
      </trkpt>
      <trkpt lat="41.900953" lon="-7.441862">
        <ele>358.198</ele>
        <time>2019-06-22T12:38:42Z</time>
      </trkpt>
      <trkpt lat="41.900723" lon="-7.441828">
        <ele>356.498</ele>
        <time>2019-06-22T12:38:43Z</time>
      </trkpt>
      <trkpt lat="41.900488" lon="-7.441798">
        <ele>355.815</ele>
        <time>2019-06-22T12:38:44Z</time>
      </trkpt>
      <trkpt lat="41.900257" lon="-7.441761">
        <ele>355.826</ele>
        <time>2019-06-22T12:38:45Z</time>
      </trkpt>
      <trkpt lat="41.900020" lon="-7.441716">
        <ele>358.408</ele>
        <time>2019-06-22T12:38:46Z</time>
      </trkpt>
      <trkpt lat="41.899785" lon="-7.441665">
        <ele>361.622</ele>
        <time>2019-06-22T12:38:47Z</time>
      </trkpt>
      <trkpt lat="41.899545" lon="-7.441624">
        <ele>362.316</ele>
        <time>2019-06-22T12:38:48Z</time>
      </trkpt>
      <trkpt lat="41.899306" lon="-7.441577">
        <ele>362.828</ele>
        <time>2019-06-22T12:38:49Z</time>
      </trkpt>
      <trkpt lat="41.899068" lon="-7.441549">
        <ele>364.880</ele>
        <time>2019-06-22T12:38:50Z</time>
      </trkpt>
      <trkpt lat="41.898832" lon="-7.441520">
        <ele>364.838</ele>
        <time>2019-06-22T12:38:51Z</time>
      </trkpt>
      <trkpt lat="41.898591" lon="-7.441495">
        <ele>364.827</ele>
        <time>2019-06-22T12:38:52Z</time>
      </trkpt>
      <trkpt lat="41.898359" lon="-7.441479">
        <ele>366.222</ele>
        <time>2019-06-22T12:38:53Z</time>
      </trkpt>
      <trkpt lat="41.898116" lon="-7.441472">
        <ele>367.185</ele>
        <time>2019-06-22T12:38:54Z</time>
      </trkpt>
      <trkpt lat="41.897874" lon="-7.441480">
        <ele>367.165</ele>
        <time>2019-06-22T12:38:55Z</time>
      </trkpt>
      <trkpt lat="41.897632" lon="-7.441493">
        <ele>367.368</ele>
        <time>2019-06-22T12:38:56Z</time>
      </trkpt>
      <trkpt lat="41.897383" lon="-7.441503">
        <ele>367.314</ele>
        <time>2019-06-22T12:38:57Z</time>
      </trkpt>
      <trkpt lat="41.897137" lon="-7.441512">
        <ele>366.008</ele>
        <time>2019-06-22T12:38:58Z</time>
      </trkpt>
      <trkpt lat="41.896886" lon="-7.441519">
        <ele>365.519</ele>
        <time>2019-06-22T12:38:59Z</time>
      </trkpt>
      <trkpt lat="41.896632" lon="-7.441535">
        <ele>365.513</ele>
        <time>2019-06-22T12:39:00Z</time>
      </trkpt>
      <trkpt lat="41.896376" lon="-7.441547">
        <ele>365.595</ele>
        <time>2019-06-22T12:39:01Z</time>
      </trkpt>
      <trkpt lat="41.896125" lon="-7.441557">
        <ele>366.177</ele>
        <time>2019-06-22T12:39:02Z</time>
      </trkpt>
      <trkpt lat="41.895864" lon="-7.441566">
        <ele>366.655</ele>
        <time>2019-06-22T12:39:03Z</time>
      </trkpt>
      <trkpt lat="41.895601" lon="-7.441582">
        <ele>367.674</ele>
        <time>2019-06-22T12:39:04Z</time>
      </trkpt>
      <trkpt lat="41.895355" lon="-7.441591">
        <ele>368.129</ele>
        <time>2019-06-22T12:39:05Z</time>
      </trkpt>
      <trkpt lat="41.895101" lon="-7.441605">
        <ele>369.272</ele>
        <time>2019-06-22T12:39:06Z</time>
      </trkpt>
      <trkpt lat="41.894842" lon="-7.441615">
        <ele>369.214</ele>
        <time>2019-06-22T12:39:07Z</time>
      </trkpt>
      <trkpt lat="41.894586" lon="-7.441628">
        <ele>369.754</ele>
        <time>2019-06-22T12:39:08Z</time>
      </trkpt>
      <trkpt lat="41.894329" lon="-7.441644">
        <ele>369.909</ele>
        <time>2019-06-22T12:39:09Z</time>
      </trkpt>
      <trkpt lat="41.894076" lon="-7.441654">
        <ele>369.908</ele>
        <time>2019-06-22T12:39:10Z</time>
      </trkpt>
      <trkpt lat="41.893818" lon="-7.441662">
        <ele>369.314</ele>
        <time>2019-06-22T12:39:11Z</time>
      </trkpt>
      <trkpt lat="41.893556" lon="-7.441670">
        <ele>369.388</ele>
        <time>2019-06-22T12:39:12Z</time>
      </trkpt>
      <trkpt lat="41.893296" lon="-7.441685">
        <ele>368.660</ele>
        <time>2019-06-22T12:39:13Z</time>
      </trkpt>
      <trkpt lat="41.893046" lon="-7.441694">
        <ele>368.512</ele>
        <time>2019-06-22T12:39:14Z</time>
      </trkpt>
      <trkpt lat="41.892794" lon="-7.441707">
        <ele>366.850</ele>
        <time>2019-06-22T12:39:15Z</time>
      </trkpt>
      <trkpt lat="41.892534" lon="-7.441724">
        <ele>365.669</ele>
        <time>2019-06-22T12:39:16Z</time>
      </trkpt>
      <trkpt lat="41.892277" lon="-7.441735">
        <ele>363.914</ele>
        <time>2019-06-22T12:39:17Z</time>
      </trkpt>
      <trkpt lat="41.892018" lon="-7.441747">
        <ele>362.757</ele>
        <time>2019-06-22T12:39:18Z</time>
      </trkpt>
      <trkpt lat="41.891763" lon="-7.441758">
        <ele>361.693</ele>
        <time>2019-06-22T12:39:19Z</time>
      </trkpt>
      <trkpt lat="41.891503" lon="-7.441765">
        <ele>360.465</ele>
        <time>2019-06-22T12:39:20Z</time>
      </trkpt>
      <trkpt lat="41.891237" lon="-7.441775">
        <ele>360.221</ele>
        <time>2019-06-22T12:39:21Z</time>
      </trkpt>
      <trkpt lat="41.890975" lon="-7.441782">
        <ele>359.208</ele>
        <time>2019-06-22T12:39:22Z</time>
      </trkpt>
      <trkpt lat="41.890714" lon="-7.441793">
        <ele>358.062</ele>
        <time>2019-06-22T12:39:23Z</time>
      </trkpt>
      <trkpt lat="41.890461" lon="-7.441800">
        <ele>357.986</ele>
        <time>2019-06-22T12:39:24Z</time>
      </trkpt>
      <trkpt lat="41.890201" lon="-7.441799">
        <ele>357.998</ele>
        <time>2019-06-22T12:39:25Z</time>
      </trkpt>
      <trkpt lat="41.889946" lon="-7.441785">
        <ele>357.910</ele>
        <time>2019-06-22T12:39:26Z</time>
      </trkpt>
      <trkpt lat="41.889701" lon="-7.441756">
        <ele>357.988</ele>
        <time>2019-06-22T12:39:27Z</time>
      </trkpt>
      <trkpt lat="41.889453" lon="-7.441702">
        <ele>357.947</ele>
        <time>2019-06-22T12:39:28Z</time>
      </trkpt>
      <trkpt lat="41.889208" lon="-7.441636">
        <ele>359.932</ele>
        <time>2019-06-22T12:39:29Z</time>
      </trkpt>
      <trkpt lat="41.888976" lon="-7.441520">
        <ele>363.425</ele>
        <time>2019-06-22T12:39:30Z</time>
      </trkpt>
      <trkpt lat="41.888739" lon="-7.441411">
        <ele>364.522</ele>
        <time>2019-06-22T12:39:31Z</time>
      </trkpt>
      <trkpt lat="41.888499" lon="-7.441303">
        <ele>365.762</ele>
        <time>2019-06-22T12:39:32Z</time>
      </trkpt>
      <trkpt lat="41.888262" lon="-7.441193">
        <ele>367.008</ele>
        <time>2019-06-22T12:39:33Z</time>
      </trkpt>
      <trkpt lat="41.888036" lon="-7.441084">
        <ele>367.008</ele>
        <time>2019-06-22T12:39:34Z</time>
      </trkpt>
      <trkpt lat="41.887800" lon="-7.440975">
        <ele>366.335</ele>
        <time>2019-06-22T12:39:35Z</time>
      </trkpt>
      <trkpt lat="41.887560" lon="-7.440873">
        <ele>365.439</ele>
        <time>2019-06-22T12:39:36Z</time>
      </trkpt>
      <trkpt lat="41.887326" lon="-7.440765">
        <ele>364.511</ele>
        <time>2019-06-22T12:39:37Z</time>
      </trkpt>
      <trkpt lat="41.887077" lon="-7.440664">
        <ele>364.083</ele>
        <time>2019-06-22T12:39:38Z</time>
      </trkpt>
      <trkpt lat="41.886850" lon="-7.440558">
        <ele>363.641</ele>
        <time>2019-06-22T12:39:39Z</time>
      </trkpt>
      <trkpt lat="41.886605" lon="-7.440455">
        <ele>363.630</ele>
        <time>2019-06-22T12:39:40Z</time>
      </trkpt>
      <trkpt lat="41.886375" lon="-7.440357">
        <ele>364.535</ele>
        <time>2019-06-22T12:39:41Z</time>
      </trkpt>
      <trkpt lat="41.886132" lon="-7.440265">
        <ele>366.038</ele>
        <time>2019-06-22T12:39:42Z</time>
      </trkpt>
      <trkpt lat="41.885885" lon="-7.440164">
        <ele>367.587</ele>
        <time>2019-06-22T12:39:43Z</time>
      </trkpt>
      <trkpt lat="41.885645" lon="-7.440073">
        <ele>369.642</ele>
        <time>2019-06-22T12:39:44Z</time>
      </trkpt>
      <trkpt lat="41.885396" lon="-7.439979">
        <ele>370.626</ele>
        <time>2019-06-22T12:39:45Z</time>
      </trkpt>
      <trkpt lat="41.885138" lon="-7.439882">
        <ele>370.708</ele>
        <time>2019-06-22T12:39:46Z</time>
      </trkpt>
      <trkpt lat="41.884892" lon="-7.439794">
        <ele>370.971</ele>
        <time>2019-06-22T12:39:47Z</time>
      </trkpt>
      <trkpt lat="41.884641" lon="-7.439712">
        <ele>370.945</ele>
        <time>2019-06-22T12:39:48Z</time>
      </trkpt>
      <trkpt lat="41.884402" lon="-7.439625">
        <ele>369.527</ele>
        <time>2019-06-22T12:39:49Z</time>
      </trkpt>
      <trkpt lat="41.884152" lon="-7.439552">
        <ele>369.519</ele>
        <time>2019-06-22T12:39:50Z</time>
      </trkpt>
      <trkpt lat="41.883908" lon="-7.439473">
        <ele>369.247</ele>
        <time>2019-06-22T12:39:51Z</time>
      </trkpt>
      <trkpt lat="41.883662" lon="-7.439393">
        <ele>367.846</ele>
        <time>2019-06-22T12:39:52Z</time>
      </trkpt>
      <trkpt lat="41.883431" lon="-7.439315">
        <ele>367.631</ele>
        <time>2019-06-22T12:39:53Z</time>
      </trkpt>
      <trkpt lat="41.883193" lon="-7.439229">
        <ele>367.244</ele>
        <time>2019-06-22T12:39:54Z</time>
      </trkpt>
      <trkpt lat="41.882964" lon="-7.439150">
        <ele>367.269</ele>
        <time>2019-06-22T12:39:55Z</time>
      </trkpt>
      <trkpt lat="41.882752" lon="-7.439082">
        <ele>365.004</ele>
        <time>2019-06-22T12:39:56Z</time>
      </trkpt>
      <trkpt lat="41.882548" lon="-7.439015">
        <ele>365.024</ele>
        <time>2019-06-22T12:39:57Z</time>
      </trkpt>
      <trkpt lat="41.882340" lon="-7.438957">
        <ele>365.708</ele>
        <time>2019-06-22T12:39:58Z</time>
      </trkpt>
      <trkpt lat="41.882139" lon="-7.438889">
        <ele>366.659</ele>
        <time>2019-06-22T12:39:59Z</time>
      </trkpt>
      <trkpt lat="41.881934" lon="-7.438818">
        <ele>367.613</ele>
        <time>2019-06-22T12:40:00Z</time>
      </trkpt>
      <trkpt lat="41.881727" lon="-7.438754">
        <ele>371.245</ele>
        <time>2019-06-22T12:40:01Z</time>
      </trkpt>
      <trkpt lat="41.881512" lon="-7.438694">
        <ele>372.697</ele>
        <time>2019-06-22T12:40:02Z</time>
      </trkpt>
      <trkpt lat="41.881297" lon="-7.438652">
        <ele>372.635</ele>
        <time>2019-06-22T12:40:03Z</time>
      </trkpt>
      <trkpt lat="41.881080" lon="-7.438641">
        <ele>372.394</ele>
        <time>2019-06-22T12:40:04Z</time>
      </trkpt>
      <trkpt lat="41.880851" lon="-7.438659">
        <ele>370.919</ele>
        <time>2019-06-22T12:40:05Z</time>
      </trkpt>
      <trkpt lat="41.880621" lon="-7.438700">
        <ele>370.652</ele>
        <time>2019-06-22T12:40:06Z</time>
      </trkpt>
      <trkpt lat="41.880390" lon="-7.438758">
        <ele>370.491</ele>
        <time>2019-06-22T12:40:07Z</time>
      </trkpt>
      <trkpt lat="41.880165" lon="-7.438818">
        <ele>370.681</ele>
        <time>2019-06-22T12:40:08Z</time>
      </trkpt>
      <trkpt lat="41.879938" lon="-7.438872">
        <ele>372.519</ele>
        <time>2019-06-22T12:40:09Z</time>
      </trkpt>
      <trkpt lat="41.879711" lon="-7.438924">
        <ele>374.908</ele>
        <time>2019-06-22T12:40:10Z</time>
      </trkpt>
      <trkpt lat="41.879473" lon="-7.438984">
        <ele>375.942</ele>
        <time>2019-06-22T12:40:11Z</time>
      </trkpt>
      <trkpt lat="41.879234" lon="-7.439039">
        <ele>376.266</ele>
        <time>2019-06-22T12:40:12Z</time>
      </trkpt>
      <trkpt lat="41.878989" lon="-7.439105">
        <ele>376.318</ele>
        <time>2019-06-22T12:40:13Z</time>
      </trkpt>
      <trkpt lat="41.878745" lon="-7.439158">
        <ele>376.360</ele>
        <time>2019-06-22T12:40:14Z</time>
      </trkpt>
      <trkpt lat="41.878502" lon="-7.439206">
        <ele>375.928</ele>
        <time>2019-06-22T12:40:15Z</time>
      </trkpt>
      <trkpt lat="41.878258" lon="-7.439259">
        <ele>375.987</ele>
        <time>2019-06-22T12:40:16Z</time>
      </trkpt>
      <trkpt lat="41.878011" lon="-7.439312">
        <ele>375.972</ele>
        <time>2019-06-22T12:40:17Z</time>
      </trkpt>
      <trkpt lat="41.877760" lon="-7.439366">
        <ele>376.655</ele>
        <time>2019-06-22T12:40:18Z</time>
      </trkpt>
      <trkpt lat="41.877501" lon="-7.439432">
        <ele>376.623</ele>
        <time>2019-06-22T12:40:19Z</time>
      </trkpt>
      <trkpt lat="41.877245" lon="-7.439483">
        <ele>376.383</ele>
        <time>2019-06-22T12:40:20Z</time>
      </trkpt>
      <trkpt lat="41.876992" lon="-7.439534">
        <ele>373.611</ele>
        <time>2019-06-22T12:40:21Z</time>
      </trkpt>
      <trkpt lat="41.876739" lon="-7.439603">
        <ele>371.908</ele>
        <time>2019-06-22T12:40:22Z</time>
      </trkpt>
      <trkpt lat="41.876484" lon="-7.439658">
        <ele>371.685</ele>
        <time>2019-06-22T12:40:23Z</time>
      </trkpt>
      <trkpt lat="41.876229" lon="-7.439711">
        <ele>371.549</ele>
        <time>2019-06-22T12:40:24Z</time>
      </trkpt>
      <trkpt lat="41.875970" lon="-7.439769">
        <ele>371.181</ele>
        <time>2019-06-22T12:40:25Z</time>
      </trkpt>
      <trkpt lat="41.875721" lon="-7.439824">
        <ele>371.153</ele>
        <time>2019-06-22T12:40:26Z</time>
      </trkpt>
      <trkpt lat="41.875484" lon="-7.439880">
        <ele>371.191</ele>
        <time>2019-06-22T12:40:27Z</time>
      </trkpt>
      <trkpt lat="41.875248" lon="-7.439937">
        <ele>371.160</ele>
        <time>2019-06-22T12:40:28Z</time>
      </trkpt>
      <trkpt lat="41.875010" lon="-7.439988">
        <ele>369.795</ele>
        <time>2019-06-22T12:40:29Z</time>
      </trkpt>
      <trkpt lat="41.874778" lon="-7.440036">
        <ele>369.738</ele>
        <time>2019-06-22T12:40:30Z</time>
      </trkpt>
      <trkpt lat="41.874543" lon="-7.440079">
        <ele>369.585</ele>
        <time>2019-06-22T12:40:31Z</time>
      </trkpt>
      <trkpt lat="41.874303" lon="-7.440125">
        <ele>368.189</ele>
        <time>2019-06-22T12:40:32Z</time>
      </trkpt>
      <trkpt lat="41.874065" lon="-7.440170">
        <ele>367.717</ele>
        <time>2019-06-22T12:40:33Z</time>
      </trkpt>
      <trkpt lat="41.873828" lon="-7.440215">
        <ele>367.008</ele>
        <time>2019-06-22T12:40:34Z</time>
      </trkpt>
      <trkpt lat="41.873588" lon="-7.440258">
        <ele>366.571</ele>
        <time>2019-06-22T12:40:35Z</time>
      </trkpt>
      <trkpt lat="41.873341" lon="-7.440296">
        <ele>365.235</ele>
        <time>2019-06-22T12:40:36Z</time>
      </trkpt>
      <trkpt lat="41.873092" lon="-7.440323">
        <ele>365.077</ele>
        <time>2019-06-22T12:40:37Z</time>
      </trkpt>
      <trkpt lat="41.872847" lon="-7.440348">
        <ele>364.829</ele>
        <time>2019-06-22T12:40:38Z</time>
      </trkpt>
      <trkpt lat="41.872601" lon="-7.440372">
        <ele>364.557</ele>
        <time>2019-06-22T12:40:39Z</time>
      </trkpt>
      <trkpt lat="41.872360" lon="-7.440382">
        <ele>364.516</ele>
        <time>2019-06-22T12:40:40Z</time>
      </trkpt>
      <trkpt lat="41.872120" lon="-7.440389">
        <ele>364.781</ele>
        <time>2019-06-22T12:40:41Z</time>
      </trkpt>
      <trkpt lat="41.871880" lon="-7.440398">
        <ele>364.874</ele>
        <time>2019-06-22T12:40:42Z</time>
      </trkpt>
      <trkpt lat="41.871645" lon="-7.440408">
        <ele>366.835</ele>
        <time>2019-06-22T12:40:43Z</time>
      </trkpt>
      <trkpt lat="41.871407" lon="-7.440417">
        <ele>367.486</ele>
        <time>2019-06-22T12:40:44Z</time>
      </trkpt>
      <trkpt lat="41.871172" lon="-7.440418">
        <ele>367.414</ele>
        <time>2019-06-22T12:40:45Z</time>
      </trkpt>
      <trkpt lat="41.870942" lon="-7.440444">
        <ele>365.908</ele>
        <time>2019-06-22T12:40:46Z</time>
      </trkpt>
      <trkpt lat="41.870705" lon="-7.440456">
        <ele>365.496</ele>
        <time>2019-06-22T12:40:47Z</time>
      </trkpt>
      <trkpt lat="41.870455" lon="-7.440476">
        <ele>365.450</ele>
        <time>2019-06-22T12:40:48Z</time>
      </trkpt>
      <trkpt lat="41.870214" lon="-7.440481">
        <ele>365.412</ele>
        <time>2019-06-22T12:40:49Z</time>
      </trkpt>
      <trkpt lat="41.869969" lon="-7.440496">
        <ele>366.164</ele>
        <time>2019-06-22T12:40:50Z</time>
      </trkpt>
      <trkpt lat="41.869738" lon="-7.440501">
        <ele>366.252</ele>
        <time>2019-06-22T12:40:51Z</time>
      </trkpt>
      <trkpt lat="41.869493" lon="-7.440502">
        <ele>366.261</ele>
        <time>2019-06-22T12:40:52Z</time>
      </trkpt>
      <trkpt lat="41.869263" lon="-7.440515">
        <ele>364.416</ele>
        <time>2019-06-22T12:40:53Z</time>
      </trkpt>
      <trkpt lat="41.869027" lon="-7.440525">
        <ele>363.599</ele>
        <time>2019-06-22T12:40:54Z</time>
      </trkpt>
      <trkpt lat="41.868787" lon="-7.440537">
        <ele>361.432</ele>
        <time>2019-06-22T12:40:55Z</time>
      </trkpt>
      <trkpt lat="41.868547" lon="-7.440542">
        <ele>360.792</ele>
        <time>2019-06-22T12:40:56Z</time>
      </trkpt>
      <trkpt lat="41.868306" lon="-7.440545">
        <ele>360.711</ele>
        <time>2019-06-22T12:40:57Z</time>
      </trkpt>
      <trkpt lat="41.868069" lon="-7.440555">
        <ele>360.308</ele>
        <time>2019-06-22T12:40:58Z</time>
      </trkpt>
      <trkpt lat="41.867831" lon="-7.440554">
        <ele>360.726</ele>
        <time>2019-06-22T12:40:59Z</time>
      </trkpt>
      <trkpt lat="41.867594" lon="-7.440544">
        <ele>361.150</ele>
        <time>2019-06-22T12:41:00Z</time>
      </trkpt>
      <trkpt lat="41.867353" lon="-7.440523">
        <ele>362.512</ele>
        <time>2019-06-22T12:41:01Z</time>
      </trkpt>
      <trkpt lat="41.867114" lon="-7.440487">
        <ele>363.594</ele>
        <time>2019-06-22T12:41:02Z</time>
      </trkpt>
      <trkpt lat="41.866881" lon="-7.440427">
        <ele>363.922</ele>
        <time>2019-06-22T12:41:03Z</time>
      </trkpt>
      <trkpt lat="41.866638" lon="-7.440354">
        <ele>363.581</ele>
        <time>2019-06-22T12:41:04Z</time>
      </trkpt>
      <trkpt lat="41.866406" lon="-7.440258">
        <ele>363.426</ele>
        <time>2019-06-22T12:41:05Z</time>
      </trkpt>
      <trkpt lat="41.866172" lon="-7.440153">
        <ele>361.479</ele>
        <time>2019-06-22T12:41:06Z</time>
      </trkpt>
      <trkpt lat="41.865936" lon="-7.440049">
        <ele>359.526</ele>
        <time>2019-06-22T12:41:07Z</time>
      </trkpt>
      <trkpt lat="41.865696" lon="-7.439938">
        <ele>357.147</ele>
        <time>2019-06-22T12:41:08Z</time>
      </trkpt>
      <trkpt lat="41.865459" lon="-7.439829">
        <ele>355.111</ele>
        <time>2019-06-22T12:41:09Z</time>
      </trkpt>
      <trkpt lat="41.865210" lon="-7.439719">
        <ele>353.608</ele>
        <time>2019-06-22T12:41:10Z</time>
      </trkpt>
      <trkpt lat="41.864961" lon="-7.439606">
        <ele>353.135</ele>
        <time>2019-06-22T12:41:11Z</time>
      </trkpt>
      <trkpt lat="41.864716" lon="-7.439493">
        <ele>353.169</ele>
        <time>2019-06-22T12:41:12Z</time>
      </trkpt>
      <trkpt lat="41.864468" lon="-7.439376">
        <ele>353.291</ele>
        <time>2019-06-22T12:41:13Z</time>
      </trkpt>
      <trkpt lat="41.864223" lon="-7.439262">
        <ele>353.453</ele>
        <time>2019-06-22T12:41:14Z</time>
      </trkpt>
      <trkpt lat="41.863976" lon="-7.439151">
        <ele>353.941</ele>
        <time>2019-06-22T12:41:15Z</time>
      </trkpt>
      <trkpt lat="41.863728" lon="-7.439047">
        <ele>353.920</ele>
        <time>2019-06-22T12:41:16Z</time>
      </trkpt>
      <trkpt lat="41.863474" lon="-7.438938">
        <ele>353.845</ele>
        <time>2019-06-22T12:41:17Z</time>
      </trkpt>
      <trkpt lat="41.863228" lon="-7.438825">
        <ele>353.298</ele>
        <time>2019-06-22T12:41:18Z</time>
      </trkpt>
      <trkpt lat="41.862979" lon="-7.438717">
        <ele>353.245</ele>
        <time>2019-06-22T12:41:19Z</time>
      </trkpt>
      <trkpt lat="41.862734" lon="-7.438604">
        <ele>353.347</ele>
        <time>2019-06-22T12:41:20Z</time>
      </trkpt>
      <trkpt lat="41.862490" lon="-7.438500">
        <ele>353.711</ele>
        <time>2019-06-22T12:41:21Z</time>
      </trkpt>
      <trkpt lat="41.862260" lon="-7.438392">
        <ele>354.208</ele>
        <time>2019-06-22T12:41:22Z</time>
      </trkpt>
      <trkpt lat="41.862010" lon="-7.438282">
        <ele>354.267</ele>
        <time>2019-06-22T12:41:23Z</time>
      </trkpt>
      <trkpt lat="41.861763" lon="-7.438173">
        <ele>353.931</ele>
        <time>2019-06-22T12:41:24Z</time>
      </trkpt>
      <trkpt lat="41.861517" lon="-7.438051">
        <ele>353.423</ele>
        <time>2019-06-22T12:41:25Z</time>
      </trkpt>
      <trkpt lat="41.861268" lon="-7.437937">
        <ele>353.185</ele>
        <time>2019-06-22T12:41:26Z</time>
      </trkpt>
      <trkpt lat="41.861027" lon="-7.437832">
        <ele>351.763</ele>
        <time>2019-06-22T12:41:27Z</time>
      </trkpt>
      <trkpt lat="41.860787" lon="-7.437729">
        <ele>351.772</ele>
        <time>2019-06-22T12:41:28Z</time>
      </trkpt>
      <trkpt lat="41.860546" lon="-7.437619">
        <ele>351.717</ele>
        <time>2019-06-22T12:41:29Z</time>
      </trkpt>
      <trkpt lat="41.860301" lon="-7.437507">
        <ele>352.280</ele>
        <time>2019-06-22T12:41:30Z</time>
      </trkpt>
      <trkpt lat="41.860062" lon="-7.437405">
        <ele>353.421</ele>
        <time>2019-06-22T12:41:31Z</time>
      </trkpt>
      <trkpt lat="41.859820" lon="-7.437300">
        <ele>354.341</ele>
        <time>2019-06-22T12:41:32Z</time>
      </trkpt>
      <trkpt lat="41.859588" lon="-7.437191">
        <ele>354.305</ele>
        <time>2019-06-22T12:41:33Z</time>
      </trkpt>
      <trkpt lat="41.859357" lon="-7.437089">
        <ele>355.408</ele>
        <time>2019-06-22T12:41:34Z</time>
      </trkpt>
      <trkpt lat="41.859125" lon="-7.436985">
        <ele>356.645</ele>
        <time>2019-06-22T12:41:35Z</time>
      </trkpt>
      <trkpt lat="41.858888" lon="-7.436870">
        <ele>356.639</ele>
        <time>2019-06-22T12:41:36Z</time>
      </trkpt>
      <trkpt lat="41.858654" lon="-7.436772">
        <ele>356.261</ele>
        <time>2019-06-22T12:41:37Z</time>
      </trkpt>
      <trkpt lat="41.858422" lon="-7.436670">
        <ele>356.243</ele>
        <time>2019-06-22T12:41:38Z</time>
      </trkpt>
      <trkpt lat="41.858185" lon="-7.436576">
        <ele>356.271</ele>
        <time>2019-06-22T12:41:39Z</time>
      </trkpt>
      <trkpt lat="41.857959" lon="-7.436473">
        <ele>356.270</ele>
        <time>2019-06-22T12:41:40Z</time>
      </trkpt>
      <trkpt lat="41.857733" lon="-7.436369">
        <ele>356.015</ele>
        <time>2019-06-22T12:41:41Z</time>
      </trkpt>
      <trkpt lat="41.857507" lon="-7.436268">
        <ele>355.468</ele>
        <time>2019-06-22T12:41:42Z</time>
      </trkpt>
      <trkpt lat="41.857300" lon="-7.436150">
        <ele>355.416</ele>
        <time>2019-06-22T12:41:43Z</time>
      </trkpt>
      <trkpt lat="41.857073" lon="-7.436058">
        <ele>356.476</ele>
        <time>2019-06-22T12:41:44Z</time>
      </trkpt>
      <trkpt lat="41.856857" lon="-7.435965">
        <ele>357.613</ele>
        <time>2019-06-22T12:41:45Z</time>
      </trkpt>
      <trkpt lat="41.856629" lon="-7.435857">
        <ele>358.308</ele>
        <time>2019-06-22T12:41:46Z</time>
      </trkpt>
      <trkpt lat="41.856405" lon="-7.435758">
        <ele>360.124</ele>
        <time>2019-06-22T12:41:47Z</time>
      </trkpt>
      <trkpt lat="41.856181" lon="-7.435662">
        <ele>362.298</ele>
        <time>2019-06-22T12:41:48Z</time>
      </trkpt>
      <trkpt lat="41.855950" lon="-7.435560">
        <ele>363.590</ele>
        <time>2019-06-22T12:41:49Z</time>
      </trkpt>
      <trkpt lat="41.855729" lon="-7.435456">
        <ele>363.712</ele>
        <time>2019-06-22T12:41:50Z</time>
      </trkpt>
      <trkpt lat="41.855499" lon="-7.435361">
        <ele>364.120</ele>
        <time>2019-06-22T12:41:51Z</time>
      </trkpt>
      <trkpt lat="41.855273" lon="-7.435258">
        <ele>365.149</ele>
        <time>2019-06-22T12:41:52Z</time>
      </trkpt>
      <trkpt lat="41.855054" lon="-7.435160">
        <ele>365.124</ele>
        <time>2019-06-22T12:41:53Z</time>
      </trkpt>
      <trkpt lat="41.854836" lon="-7.435062">
        <ele>364.657</ele>
        <time>2019-06-22T12:41:54Z</time>
      </trkpt>
      <trkpt lat="41.854618" lon="-7.434969">
        <ele>364.072</ele>
        <time>2019-06-22T12:41:55Z</time>
      </trkpt>
      <trkpt lat="41.854405" lon="-7.434865">
        <ele>363.913</ele>
        <time>2019-06-22T12:41:56Z</time>
      </trkpt>
      <trkpt lat="41.854193" lon="-7.434770">
        <ele>363.914</ele>
        <time>2019-06-22T12:41:57Z</time>
      </trkpt>
      <trkpt lat="41.853987" lon="-7.434670">
        <ele>364.608</ele>
        <time>2019-06-22T12:41:58Z</time>
      </trkpt>
      <trkpt lat="41.853788" lon="-7.434571">
        <ele>366.930</ele>
        <time>2019-06-22T12:41:59Z</time>
      </trkpt>
      <trkpt lat="41.853587" lon="-7.434464">
        <ele>370.184</ele>
        <time>2019-06-22T12:42:00Z</time>
      </trkpt>
      <trkpt lat="41.853377" lon="-7.434337">
        <ele>372.796</ele>
        <time>2019-06-22T12:42:01Z</time>
      </trkpt>
      <trkpt lat="41.853172" lon="-7.434206">
        <ele>374.118</ele>
        <time>2019-06-22T12:42:02Z</time>
      </trkpt>
      <trkpt lat="41.852980" lon="-7.434055">
        <ele>374.196</ele>
        <time>2019-06-22T12:42:03Z</time>
      </trkpt>
      <trkpt lat="41.852775" lon="-7.433906">
        <ele>373.375</ele>
        <time>2019-06-22T12:42:04Z</time>
      </trkpt>
      <trkpt lat="41.852573" lon="-7.433747">
        <ele>372.330</ele>
        <time>2019-06-22T12:42:05Z</time>
      </trkpt>
      <trkpt lat="41.852368" lon="-7.433576">
        <ele>370.283</ele>
        <time>2019-06-22T12:42:06Z</time>
      </trkpt>
      <trkpt lat="41.852164" lon="-7.433409">
        <ele>368.454</ele>
        <time>2019-06-22T12:42:07Z</time>
      </trkpt>
      <trkpt lat="41.851953" lon="-7.433234">
        <ele>368.156</ele>
        <time>2019-06-22T12:42:08Z</time>
      </trkpt>
      <trkpt lat="41.851746" lon="-7.433054">
        <ele>366.911</ele>
        <time>2019-06-22T12:42:09Z</time>
      </trkpt>
      <trkpt lat="41.851537" lon="-7.432874">
        <ele>365.108</ele>
        <time>2019-06-22T12:42:10Z</time>
      </trkpt>
      <trkpt lat="41.851332" lon="-7.432685">
        <ele>364.418</ele>
        <time>2019-06-22T12:42:11Z</time>
      </trkpt>
      <trkpt lat="41.851130" lon="-7.432512">
        <ele>363.442</ele>
        <time>2019-06-22T12:42:12Z</time>
      </trkpt>
      <trkpt lat="41.850930" lon="-7.432328">
        <ele>361.434</ele>
        <time>2019-06-22T12:42:13Z</time>
      </trkpt>
      <trkpt lat="41.850756" lon="-7.432135">
        <ele>361.446</ele>
        <time>2019-06-22T12:42:14Z</time>
      </trkpt>
      <trkpt lat="41.850585" lon="-7.431921">
        <ele>362.334</ele>
        <time>2019-06-22T12:42:15Z</time>
      </trkpt>
      <trkpt lat="41.850424" lon="-7.431696">
        <ele>362.693</ele>
        <time>2019-06-22T12:42:16Z</time>
      </trkpt>
      <trkpt lat="41.850265" lon="-7.431472">
        <ele>362.948</ele>
        <time>2019-06-22T12:42:17Z</time>
      </trkpt>
      <trkpt lat="41.850112" lon="-7.431260">
        <ele>365.081</ele>
        <time>2019-06-22T12:42:18Z</time>
      </trkpt>
      <trkpt lat="41.849951" lon="-7.431065">
        <ele>365.091</ele>
        <time>2019-06-22T12:42:19Z</time>
      </trkpt>
      <trkpt lat="41.849784" lon="-7.430889">
        <ele>363.581</ele>
        <time>2019-06-22T12:42:20Z</time>
      </trkpt>
      <trkpt lat="41.849615" lon="-7.430736">
        <ele>361.119</ele>
        <time>2019-06-22T12:42:21Z</time>
      </trkpt>
      <trkpt lat="41.849427" lon="-7.430600">
        <ele>361.108</ele>
        <time>2019-06-22T12:42:22Z</time>
      </trkpt>
      <trkpt lat="41.849235" lon="-7.430468">
        <ele>361.142</ele>
        <time>2019-06-22T12:42:23Z</time>
      </trkpt>
      <trkpt lat="41.849034" lon="-7.430340">
        <ele>362.056</ele>
        <time>2019-06-22T12:42:24Z</time>
      </trkpt>
      <trkpt lat="41.848826" lon="-7.430219">
        <ele>362.158</ele>
        <time>2019-06-22T12:42:25Z</time>
      </trkpt>
      <trkpt lat="41.848614" lon="-7.430087">
        <ele>362.990</ele>
        <time>2019-06-22T12:42:26Z</time>
      </trkpt>
      <trkpt lat="41.848391" lon="-7.429966">
        <ele>362.938</ele>
        <time>2019-06-22T12:42:27Z</time>
      </trkpt>
      <trkpt lat="41.848168" lon="-7.429857">
        <ele>360.767</ele>
        <time>2019-06-22T12:42:28Z</time>
      </trkpt>
      <trkpt lat="41.847938" lon="-7.429753">
        <ele>360.242</ele>
        <time>2019-06-22T12:42:29Z</time>
      </trkpt>
      <trkpt lat="41.847713" lon="-7.429647">
        <ele>360.265</ele>
        <time>2019-06-22T12:42:30Z</time>
      </trkpt>
      <trkpt lat="41.847496" lon="-7.429542">
        <ele>360.972</ele>
        <time>2019-06-22T12:42:31Z</time>
      </trkpt>
      <trkpt lat="41.847271" lon="-7.429439">
        <ele>361.013</ele>
        <time>2019-06-22T12:42:32Z</time>
      </trkpt>
      <trkpt lat="41.847040" lon="-7.429339">
        <ele>363.114</ele>
        <time>2019-06-22T12:42:33Z</time>
      </trkpt>
      <trkpt lat="41.846805" lon="-7.429246">
        <ele>365.308</ele>
        <time>2019-06-22T12:42:34Z</time>
      </trkpt>
      <trkpt lat="41.846568" lon="-7.429147">
        <ele>365.490</ele>
        <time>2019-06-22T12:42:35Z</time>
      </trkpt>
      <trkpt lat="41.846340" lon="-7.429036">
        <ele>365.494</ele>
        <time>2019-06-22T12:42:36Z</time>
      </trkpt>
      <trkpt lat="41.846101" lon="-7.428927">
        <ele>365.086</ele>
        <time>2019-06-22T12:42:37Z</time>
      </trkpt>
      <trkpt lat="41.845866" lon="-7.428817">
        <ele>365.038</ele>
        <time>2019-06-22T12:42:38Z</time>
      </trkpt>
      <trkpt lat="41.845634" lon="-7.428714">
        <ele>362.966</ele>
        <time>2019-06-22T12:42:39Z</time>
      </trkpt>
      <trkpt lat="41.845393" lon="-7.428616">
        <ele>360.065</ele>
        <time>2019-06-22T12:42:40Z</time>
      </trkpt>
      <trkpt lat="41.845151" lon="-7.428513">
        <ele>356.380</ele>
        <time>2019-06-22T12:42:41Z</time>
      </trkpt>
      <trkpt lat="41.844915" lon="-7.428407">
        <ele>354.063</ele>
        <time>2019-06-22T12:42:42Z</time>
      </trkpt>
      <trkpt lat="41.844684" lon="-7.428299">
        <ele>352.259</ele>
        <time>2019-06-22T12:42:43Z</time>
      </trkpt>
      <trkpt lat="41.844457" lon="-7.428195">
        <ele>352.103</ele>
        <time>2019-06-22T12:42:44Z</time>
      </trkpt>
      <trkpt lat="41.844223" lon="-7.428092">
        <ele>350.923</ele>
        <time>2019-06-22T12:42:45Z</time>
      </trkpt>
      <trkpt lat="41.843991" lon="-7.427983">
        <ele>350.408</ele>
        <time>2019-06-22T12:42:46Z</time>
      </trkpt>
      <trkpt lat="41.843760" lon="-7.427878">
        <ele>350.178</ele>
        <time>2019-06-22T12:42:47Z</time>
      </trkpt>
      <trkpt lat="41.843526" lon="-7.427774">
        <ele>349.532</ele>
        <time>2019-06-22T12:42:48Z</time>
      </trkpt>
      <trkpt lat="41.843299" lon="-7.427670">
        <ele>349.124</ele>
        <time>2019-06-22T12:42:49Z</time>
      </trkpt>
      <trkpt lat="41.843065" lon="-7.427568">
        <ele>348.426</ele>
        <time>2019-06-22T12:42:50Z</time>
      </trkpt>
      <trkpt lat="41.842841" lon="-7.427461">
        <ele>348.484</ele>
        <time>2019-06-22T12:42:51Z</time>
      </trkpt>
      <trkpt lat="41.842614" lon="-7.427353">
        <ele>348.773</ele>
        <time>2019-06-22T12:42:52Z</time>
      </trkpt>
      <trkpt lat="41.842384" lon="-7.427240">
        <ele>348.858</ele>
        <time>2019-06-22T12:42:53Z</time>
      </trkpt>
      <trkpt lat="41.842154" lon="-7.427141">
        <ele>349.061</ele>
        <time>2019-06-22T12:42:54Z</time>
      </trkpt>
      <trkpt lat="41.841924" lon="-7.427037">
        <ele>350.253</ele>
        <time>2019-06-22T12:42:55Z</time>
      </trkpt>
      <trkpt lat="41.841701" lon="-7.426940">
        <ele>350.504</ele>
        <time>2019-06-22T12:42:56Z</time>
      </trkpt>
      <trkpt lat="41.841475" lon="-7.426844">
        <ele>351.514</ele>
        <time>2019-06-22T12:42:57Z</time>
      </trkpt>
      <trkpt lat="41.841251" lon="-7.426753">
        <ele>352.908</ele>
        <time>2019-06-22T12:42:58Z</time>
      </trkpt>
      <trkpt lat="41.841035" lon="-7.426656">
        <ele>354.078</ele>
        <time>2019-06-22T12:42:59Z</time>
      </trkpt>
      <trkpt lat="41.840816" lon="-7.426553">
        <ele>356.572</ele>
        <time>2019-06-22T12:43:00Z</time>
      </trkpt>
      <trkpt lat="41.840597" lon="-7.426445">
        <ele>358.234</ele>
        <time>2019-06-22T12:43:01Z</time>
      </trkpt>
      <trkpt lat="41.840369" lon="-7.426336">
        <ele>359.036</ele>
        <time>2019-06-22T12:43:02Z</time>
      </trkpt>
      <trkpt lat="41.840146" lon="-7.426219">
        <ele>359.014</ele>
        <time>2019-06-22T12:43:03Z</time>
      </trkpt>
      <trkpt lat="41.839919" lon="-7.426104">
        <ele>357.833</ele>
        <time>2019-06-22T12:43:04Z</time>
      </trkpt>
      <trkpt lat="41.839693" lon="-7.425981">
        <ele>355.448</ele>
        <time>2019-06-22T12:43:05Z</time>
      </trkpt>
      <trkpt lat="41.839475" lon="-7.425858">
        <ele>354.131</ele>
        <time>2019-06-22T12:43:06Z</time>
      </trkpt>
      <trkpt lat="41.839242" lon="-7.425732">
        <ele>350.945</ele>
        <time>2019-06-22T12:43:07Z</time>
      </trkpt>
      <trkpt lat="41.839013" lon="-7.425614">
        <ele>348.647</ele>
        <time>2019-06-22T12:43:08Z</time>
      </trkpt>
      <trkpt lat="41.838784" lon="-7.425495">
        <ele>347.311</ele>
        <time>2019-06-22T12:43:09Z</time>
      </trkpt>
      <trkpt lat="41.838555" lon="-7.425374">
        <ele>347.308</ele>
        <time>2019-06-22T12:43:10Z</time>
      </trkpt>
      <trkpt lat="41.838329" lon="-7.425248">
        <ele>347.557</ele>
        <time>2019-06-22T12:43:11Z</time>
      </trkpt>
      <trkpt lat="41.838105" lon="-7.425132">
        <ele>348.111</ele>
        <time>2019-06-22T12:43:12Z</time>
      </trkpt>
      <trkpt lat="41.837872" lon="-7.425009">
        <ele>351.223</ele>
        <time>2019-06-22T12:43:13Z</time>
      </trkpt>
      <trkpt lat="41.837638" lon="-7.424880">
        <ele>353.325</ele>
        <time>2019-06-22T12:43:14Z</time>
      </trkpt>
      <trkpt lat="41.837409" lon="-7.424754">
        <ele>353.333</ele>
        <time>2019-06-22T12:43:15Z</time>
      </trkpt>
      <trkpt lat="41.837190" lon="-7.424633">
        <ele>353.672</ele>
        <time>2019-06-22T12:43:16Z</time>
      </trkpt>
      <trkpt lat="41.836992" lon="-7.424525">
        <ele>353.357</ele>
        <time>2019-06-22T12:43:17Z</time>
      </trkpt>
      <trkpt lat="41.836813" lon="-7.424420">
        <ele>351.030</ele>
        <time>2019-06-22T12:43:18Z</time>
      </trkpt>
      <trkpt lat="41.836633" lon="-7.424314">
        <ele>351.093</ele>
        <time>2019-06-22T12:43:19Z</time>
      </trkpt>
      <trkpt lat="41.836476" lon="-7.424205">
        <ele>351.965</ele>
        <time>2019-06-22T12:43:20Z</time>
      </trkpt>
      <trkpt lat="41.836324" lon="-7.424106">
        <ele>354.321</ele>
        <time>2019-06-22T12:43:21Z</time>
      </trkpt>
      <trkpt lat="41.836195" lon="-7.424009">
        <ele>357.508</ele>
        <time>2019-06-22T12:43:22Z</time>
      </trkpt>
      <trkpt lat="41.836073" lon="-7.423911">
        <ele>361.062</ele>
        <time>2019-06-22T12:43:23Z</time>
      </trkpt>
      <trkpt lat="41.835958" lon="-7.423816">
        <ele>363.666</ele>
        <time>2019-06-22T12:43:24Z</time>
      </trkpt>
      <trkpt lat="41.835858" lon="-7.423722">
        <ele>364.918</ele>
        <time>2019-06-22T12:43:25Z</time>
      </trkpt>
      <trkpt lat="41.835745" lon="-7.423655">
        <ele>365.330</ele>
        <time>2019-06-22T12:43:26Z</time>
      </trkpt>
      <trkpt lat="41.835620" lon="-7.423599">
        <ele>365.528</ele>
        <time>2019-06-22T12:43:27Z</time>
      </trkpt>
      <trkpt lat="41.835495" lon="-7.423554">
        <ele>366.137</ele>
        <time>2019-06-22T12:43:28Z</time>
      </trkpt>
      <trkpt lat="41.835364" lon="-7.423526">
        <ele>366.162</ele>
        <time>2019-06-22T12:43:29Z</time>
      </trkpt>
      <trkpt lat="41.835239" lon="-7.423541">
        <ele>366.485</ele>
        <time>2019-06-22T12:43:30Z</time>
      </trkpt>
      <trkpt lat="41.835117" lon="-7.423559">
        <ele>366.428</ele>
        <time>2019-06-22T12:43:31Z</time>
      </trkpt>
      <trkpt lat="41.834995" lon="-7.423584">
        <ele>366.589</ele>
        <time>2019-06-22T12:43:32Z</time>
      </trkpt>
      <trkpt lat="41.834869" lon="-7.423606">
        <ele>366.517</ele>
        <time>2019-06-22T12:43:33Z</time>
      </trkpt>
      <trkpt lat="41.834740" lon="-7.423591">
        <ele>367.108</ele>
        <time>2019-06-22T12:43:34Z</time>
      </trkpt>
      <trkpt lat="41.834607" lon="-7.423551">
        <ele>368.365</ele>
        <time>2019-06-22T12:43:35Z</time>
      </trkpt>
      <trkpt lat="41.834469" lon="-7.423486">
        <ele>368.519</ele>
        <time>2019-06-22T12:43:36Z</time>
      </trkpt>
      <trkpt lat="41.834325" lon="-7.423393">
        <ele>368.511</ele>
        <time>2019-06-22T12:43:37Z</time>
      </trkpt>
      <trkpt lat="41.834170" lon="-7.423307">
        <ele>367.143</ele>
        <time>2019-06-22T12:43:38Z</time>
      </trkpt>
      <trkpt lat="41.834001" lon="-7.423238">
        <ele>365.991</ele>
        <time>2019-06-22T12:43:39Z</time>
      </trkpt>
      <trkpt lat="41.833821" lon="-7.423192">
        <ele>364.120</ele>
        <time>2019-06-22T12:43:40Z</time>
      </trkpt>
      <trkpt lat="41.833636" lon="-7.423168">
        <ele>364.165</ele>
        <time>2019-06-22T12:43:41Z</time>
      </trkpt>
      <trkpt lat="41.833440" lon="-7.423163">
        <ele>362.748</ele>
        <time>2019-06-22T12:43:42Z</time>
      </trkpt>
      <trkpt lat="41.833245" lon="-7.423184">
        <ele>361.359</ele>
        <time>2019-06-22T12:43:43Z</time>
      </trkpt>
      <trkpt lat="41.833043" lon="-7.423204">
        <ele>360.903</ele>
        <time>2019-06-22T12:43:44Z</time>
      </trkpt>
      <trkpt lat="41.832835" lon="-7.423223">
        <ele>360.223</ele>
        <time>2019-06-22T12:43:45Z</time>
      </trkpt>
      <trkpt lat="41.832626" lon="-7.423245">
        <ele>358.408</ele>
        <time>2019-06-22T12:43:46Z</time>
      </trkpt>
      <trkpt lat="41.832413" lon="-7.423271">
        <ele>357.158</ele>
        <time>2019-06-22T12:43:47Z</time>
      </trkpt>
      <trkpt lat="41.832200" lon="-7.423295">
        <ele>355.032</ele>
        <time>2019-06-22T12:43:48Z</time>
      </trkpt>
      <trkpt lat="41.831989" lon="-7.423321">
        <ele>352.844</ele>
        <time>2019-06-22T12:43:49Z</time>
      </trkpt>
      <trkpt lat="41.831774" lon="-7.423342">
        <ele>352.886</ele>
        <time>2019-06-22T12:43:50Z</time>
      </trkpt>
      <trkpt lat="41.831558" lon="-7.423360">
        <ele>353.464</ele>
        <time>2019-06-22T12:43:51Z</time>
      </trkpt>
      <trkpt lat="41.831344" lon="-7.423385">
        <ele>354.053</ele>
        <time>2019-06-22T12:43:52Z</time>
      </trkpt>
      <trkpt lat="41.831132" lon="-7.423410">
        <ele>354.728</ele>
        <time>2019-06-22T12:43:53Z</time>
      </trkpt>
      <trkpt lat="41.830919" lon="-7.423441">
        <ele>354.781</ele>
        <time>2019-06-22T12:43:54Z</time>
      </trkpt>
      <trkpt lat="41.830702" lon="-7.423478">
        <ele>354.672</ele>
        <time>2019-06-22T12:43:55Z</time>
      </trkpt>
      <trkpt lat="41.830490" lon="-7.423521">
        <ele>353.313</ele>
        <time>2019-06-22T12:43:56Z</time>
      </trkpt>
      <trkpt lat="41.830281" lon="-7.423567">
        <ele>352.714</ele>
        <time>2019-06-22T12:43:57Z</time>
      </trkpt>
      <trkpt lat="41.830069" lon="-7.423618">
        <ele>352.208</ele>
        <time>2019-06-22T12:43:58Z</time>
      </trkpt>
      <trkpt lat="41.829861" lon="-7.423672">
        <ele>351.530</ele>
        <time>2019-06-22T12:43:59Z</time>
      </trkpt>
      <trkpt lat="41.829654" lon="-7.423722">
        <ele>351.464</ele>
        <time>2019-06-22T12:44:00Z</time>
      </trkpt>
      <trkpt lat="41.829446" lon="-7.423780">
        <ele>351.486</ele>
        <time>2019-06-22T12:44:01Z</time>
      </trkpt>
      <trkpt lat="41.829237" lon="-7.423845">
        <ele>349.928</ele>
        <time>2019-06-22T12:44:02Z</time>
      </trkpt>
      <trkpt lat="41.829027" lon="-7.423909">
        <ele>349.946</ele>
        <time>2019-06-22T12:44:03Z</time>
      </trkpt>
      <trkpt lat="41.828809" lon="-7.423974">
        <ele>351.135</ele>
        <time>2019-06-22T12:44:04Z</time>
      </trkpt>
      <trkpt lat="41.828589" lon="-7.424039">
        <ele>351.920</ele>
        <time>2019-06-22T12:44:05Z</time>
      </trkpt>
      <trkpt lat="41.828369" lon="-7.424105">
        <ele>352.653</ele>
        <time>2019-06-22T12:44:06Z</time>
      </trkpt>
      <trkpt lat="41.828146" lon="-7.424180">
        <ele>353.235</ele>
        <time>2019-06-22T12:44:07Z</time>
      </trkpt>
      <trkpt lat="41.827919" lon="-7.424252">
        <ele>353.286</ele>
        <time>2019-06-22T12:44:08Z</time>
      </trkpt>
      <trkpt lat="41.827697" lon="-7.424323">
        <ele>353.014</ele>
        <time>2019-06-22T12:44:09Z</time>
      </trkpt>
      <trkpt lat="41.827475" lon="-7.424394">
        <ele>352.108</ele>
        <time>2019-06-22T12:44:10Z</time>
      </trkpt>
      <trkpt lat="41.827250" lon="-7.424473">
        <ele>351.866</ele>
        <time>2019-06-22T12:44:11Z</time>
      </trkpt>
      <trkpt lat="41.827027" lon="-7.424564">
        <ele>351.810</ele>
        <time>2019-06-22T12:44:12Z</time>
      </trkpt>
      <trkpt lat="41.826804" lon="-7.424663">
        <ele>351.452</ele>
        <time>2019-06-22T12:44:13Z</time>
      </trkpt>
      <trkpt lat="41.826580" lon="-7.424762">
        <ele>351.474</ele>
        <time>2019-06-22T12:44:14Z</time>
      </trkpt>
      <trkpt lat="41.826363" lon="-7.424867">
        <ele>352.212</ele>
        <time>2019-06-22T12:44:15Z</time>
      </trkpt>
      <trkpt lat="41.826150" lon="-7.424976">
        <ele>352.261</ele>
        <time>2019-06-22T12:44:16Z</time>
      </trkpt>
      <trkpt lat="41.825936" lon="-7.425087">
        <ele>352.236</ele>
        <time>2019-06-22T12:44:17Z</time>
      </trkpt>
      <trkpt lat="41.825718" lon="-7.425196">
        <ele>352.429</ele>
        <time>2019-06-22T12:44:18Z</time>
      </trkpt>
      <trkpt lat="41.825512" lon="-7.425311">
        <ele>352.471</ele>
        <time>2019-06-22T12:44:19Z</time>
      </trkpt>
      <trkpt lat="41.825309" lon="-7.425426">
        <ele>351.641</ele>
        <time>2019-06-22T12:44:20Z</time>
      </trkpt>
      <trkpt lat="41.825108" lon="-7.425546">
        <ele>351.015</ele>
        <time>2019-06-22T12:44:21Z</time>
      </trkpt>
      <trkpt lat="41.824910" lon="-7.425665">
        <ele>350.408</ele>
        <time>2019-06-22T12:44:22Z</time>
      </trkpt>
      <trkpt lat="41.824702" lon="-7.425779">
        <ele>350.040</ele>
        <time>2019-06-22T12:44:23Z</time>
      </trkpt>
      <trkpt lat="41.824515" lon="-7.425880">
        <ele>350.014</ele>
        <time>2019-06-22T12:44:24Z</time>
      </trkpt>
      <trkpt lat="41.824342" lon="-7.425961">
        <ele>350.726</ele>
        <time>2019-06-22T12:44:25Z</time>
      </trkpt>
      <trkpt lat="41.824173" lon="-7.426027">
        <ele>353.318</ele>
        <time>2019-06-22T12:44:26Z</time>
      </trkpt>
      <trkpt lat="41.824007" lon="-7.426076">
        <ele>355.696</ele>
        <time>2019-06-22T12:44:27Z</time>
      </trkpt>
      <trkpt lat="41.823843" lon="-7.426101">
        <ele>358.375</ele>
        <time>2019-06-22T12:44:28Z</time>
      </trkpt>
      <trkpt lat="41.823672" lon="-7.426125">
        <ele>360.240</ele>
        <time>2019-06-22T12:44:29Z</time>
      </trkpt>
      <trkpt lat="41.823497" lon="-7.426120">
        <ele>361.993</ele>
        <time>2019-06-22T12:44:30Z</time>
      </trkpt>
      <trkpt lat="41.823320" lon="-7.426103">
        <ele>362.218</ele>
        <time>2019-06-22T12:44:31Z</time>
      </trkpt>
      <trkpt lat="41.823144" lon="-7.426067">
        <ele>362.298</ele>
        <time>2019-06-22T12:44:32Z</time>
      </trkpt>
      <trkpt lat="41.822964" lon="-7.426008">
        <ele>361.917</ele>
        <time>2019-06-22T12:44:33Z</time>
      </trkpt>
      <trkpt lat="41.822781" lon="-7.425942">
        <ele>361.808</ele>
        <time>2019-06-22T12:44:34Z</time>
      </trkpt>
      <trkpt lat="41.822596" lon="-7.425832">
        <ele>361.354</ele>
        <time>2019-06-22T12:44:35Z</time>
      </trkpt>
      <trkpt lat="41.822406" lon="-7.425721">
        <ele>361.318</ele>
        <time>2019-06-22T12:44:36Z</time>
      </trkpt>
      <trkpt lat="41.822206" lon="-7.425604">
        <ele>360.840</ele>
        <time>2019-06-22T12:44:37Z</time>
      </trkpt>
      <trkpt lat="41.821999" lon="-7.425484">
        <ele>360.312</ele>
        <time>2019-06-22T12:44:38Z</time>
      </trkpt>
      <trkpt lat="41.821792" lon="-7.425370">
        <ele>359.810</ele>
        <time>2019-06-22T12:44:39Z</time>
      </trkpt>
      <trkpt lat="41.821584" lon="-7.425268">
        <ele>357.389</ele>
        <time>2019-06-22T12:44:40Z</time>
      </trkpt>
      <trkpt lat="41.821378" lon="-7.425167">
        <ele>355.654</ele>
        <time>2019-06-22T12:44:41Z</time>
      </trkpt>
      <trkpt lat="41.821180" lon="-7.425071">
        <ele>351.197</ele>
        <time>2019-06-22T12:44:42Z</time>
      </trkpt>
      <trkpt lat="41.820989" lon="-7.424972">
        <ele>348.532</ele>
        <time>2019-06-22T12:44:43Z</time>
      </trkpt>
      <trkpt lat="41.820808" lon="-7.424877">
        <ele>348.592</ele>
        <time>2019-06-22T12:44:44Z</time>
      </trkpt>
      <trkpt lat="41.820642" lon="-7.424789">
        <ele>349.111</ele>
        <time>2019-06-22T12:44:45Z</time>
      </trkpt>
      <trkpt lat="41.820479" lon="-7.424704">
        <ele>351.308</ele>
        <time>2019-06-22T12:44:46Z</time>
      </trkpt>
      <trkpt lat="41.820319" lon="-7.424632">
        <ele>354.986</ele>
        <time>2019-06-22T12:44:47Z</time>
      </trkpt>
      <trkpt lat="41.820180" lon="-7.424568">
        <ele>358.510</ele>
        <time>2019-06-22T12:44:48Z</time>
      </trkpt>
      <trkpt lat="41.820061" lon="-7.424502">
        <ele>358.572</ele>
        <time>2019-06-22T12:44:49Z</time>
      </trkpt>
      <trkpt lat="41.819949" lon="-7.424443">
        <ele>359.454</ele>
        <time>2019-06-22T12:44:50Z</time>
      </trkpt>
      <trkpt lat="41.819853" lon="-7.424400">
        <ele>359.462</ele>
        <time>2019-06-22T12:44:51Z</time>
      </trkpt>
      <trkpt lat="41.819786" lon="-7.424364">
        <ele>358.631</ele>
        <time>2019-06-22T12:44:52Z</time>
      </trkpt>
      <trkpt lat="41.819711" lon="-7.424324">
        <ele>358.326</ele>
        <time>2019-06-22T12:44:54Z</time>
      </trkpt>
      <trkpt lat="41.819673" lon="-7.424278">
        <ele>362.479</ele>
        <time>2019-06-22T12:44:57Z</time>
      </trkpt>
      <trkpt lat="41.819728" lon="-7.424236">
        <ele>363.967</ele>
        <time>2019-06-22T12:44:59Z</time>
      </trkpt>
      <trkpt lat="41.819794" lon="-7.424261">
        <ele>364.081</ele>
        <time>2019-06-22T12:45:00Z</time>
      </trkpt>
      <trkpt lat="41.819867" lon="-7.424293">
        <ele>364.019</ele>
        <time>2019-06-22T12:45:01Z</time>
      </trkpt>
      <trkpt lat="41.819961" lon="-7.424345">
        <ele>364.008</ele>
        <time>2019-06-22T12:45:02Z</time>
      </trkpt>
      <trkpt lat="41.820066" lon="-7.424408">
        <ele>364.079</ele>
        <time>2019-06-22T12:45:03Z</time>
      </trkpt>
      <trkpt lat="41.820187" lon="-7.424465">
        <ele>364.073</ele>
        <time>2019-06-22T12:45:04Z</time>
      </trkpt>
      <trkpt lat="41.820311" lon="-7.424536">
        <ele>364.035</ele>
        <time>2019-06-22T12:45:05Z</time>
      </trkpt>
      <trkpt lat="41.820450" lon="-7.424611">
        <ele>364.067</ele>
        <time>2019-06-22T12:45:06Z</time>
      </trkpt>
      <trkpt lat="41.820588" lon="-7.424687">
        <ele>364.025</ele>
        <time>2019-06-22T12:45:07Z</time>
      </trkpt>
      <trkpt lat="41.820718" lon="-7.424772">
        <ele>364.044</ele>
        <time>2019-06-22T12:45:08Z</time>
      </trkpt>
      <trkpt lat="41.820828" lon="-7.424874">
        <ele>364.019</ele>
        <time>2019-06-22T12:45:09Z</time>
      </trkpt>
      <trkpt lat="41.820961" lon="-7.424954">
        <ele>363.582</ele>
        <time>2019-06-22T12:45:10Z</time>
      </trkpt>
      <trkpt lat="41.821093" lon="-7.425016">
        <ele>363.132</ele>
        <time>2019-06-22T12:45:11Z</time>
      </trkpt>
      <trkpt lat="41.821214" lon="-7.425079">
        <ele>363.192</ele>
        <time>2019-06-22T12:45:12Z</time>
      </trkpt>
      <trkpt lat="41.821326" lon="-7.425132">
        <ele>363.311</ele>
        <time>2019-06-22T12:45:13Z</time>
      </trkpt>
      <trkpt lat="41.821407" lon="-7.425173">
        <ele>363.608</ele>
        <time>2019-06-22T12:45:14Z</time>
      </trkpt>
      <trkpt lat="41.821487" lon="-7.425203">
        <ele>364.076</ele>
        <time>2019-06-22T12:45:15Z</time>
      </trkpt>
      <trkpt lat="41.821551" lon="-7.425238">
        <ele>364.830</ele>
        <time>2019-06-22T12:45:16Z</time>
      </trkpt>
      <trkpt lat="41.821601" lon="-7.425263">
        <ele>365.172</ele>
        <time>2019-06-22T12:45:17Z</time>
      </trkpt>
      <trkpt lat="41.821642" lon="-7.425327">
        <ele>365.474</ele>
        <time>2019-06-22T12:45:19Z</time>
      </trkpt>
      <trkpt lat="41.821574" lon="-7.425347">
        <ele>366.192</ele>
        <time>2019-06-22T12:45:22Z</time>
      </trkpt>
      <trkpt lat="41.821517" lon="-7.425315">
        <ele>366.141</ele>
        <time>2019-06-22T12:45:23Z</time>
      </trkpt>
      <trkpt lat="41.821451" lon="-7.425286">
        <ele>366.086</ele>
        <time>2019-06-22T12:45:24Z</time>
      </trkpt>
      <trkpt lat="41.821397" lon="-7.425256">
        <ele>365.669</ele>
        <time>2019-06-22T12:45:25Z</time>
      </trkpt>
      <trkpt lat="41.821354" lon="-7.425228">
        <ele>365.351</ele>
        <time>2019-06-22T12:45:26Z</time>
      </trkpt>
      <trkpt lat="41.821311" lon="-7.425205">
        <ele>364.901</ele>
        <time>2019-06-22T12:45:27Z</time>
      </trkpt>
      <trkpt lat="41.821251" lon="-7.425154">
        <ele>364.711</ele>
        <time>2019-06-22T12:45:29Z</time>
      </trkpt>
      <trkpt lat="41.821194" lon="-7.425125">
        <ele>365.208</ele>
        <time>2019-06-22T12:45:31Z</time>
      </trkpt>
      <trkpt lat="41.821143" lon="-7.425095">
        <ele>365.448</ele>
        <time>2019-06-22T12:45:32Z</time>
      </trkpt>
      <trkpt lat="41.821094" lon="-7.425046">
        <ele>365.472</ele>
        <time>2019-06-22T12:45:33Z</time>
      </trkpt>
      <trkpt lat="41.821002" lon="-7.424981">
        <ele>365.424</ele>
        <time>2019-06-22T12:45:34Z</time>
      </trkpt>
      <trkpt lat="41.820894" lon="-7.424907">
        <ele>365.176</ele>
        <time>2019-06-22T12:45:35Z</time>
      </trkpt>
      <trkpt lat="41.820763" lon="-7.424846">
        <ele>364.524</ele>
        <time>2019-06-22T12:45:36Z</time>
      </trkpt>
      <trkpt lat="41.820636" lon="-7.424767">
        <ele>363.923</ele>
        <time>2019-06-22T12:45:37Z</time>
      </trkpt>
      <trkpt lat="41.820487" lon="-7.424694">
        <ele>363.548</ele>
        <time>2019-06-22T12:45:38Z</time>
      </trkpt>
      <trkpt lat="41.820346" lon="-7.424612">
        <ele>362.511</ele>
        <time>2019-06-22T12:45:39Z</time>
      </trkpt>
      <trkpt lat="41.820181" lon="-7.424536">
        <ele>362.026</ele>
        <time>2019-06-22T12:45:40Z</time>
      </trkpt>
      <trkpt lat="41.820018" lon="-7.424459">
        <ele>361.647</ele>
        <time>2019-06-22T12:45:41Z</time>
      </trkpt>
      <trkpt lat="41.819869" lon="-7.424374">
        <ele>361.611</ele>
        <time>2019-06-22T12:45:42Z</time>
      </trkpt>
      <trkpt lat="41.819707" lon="-7.424291">
        <ele>361.708</ele>
        <time>2019-06-22T12:45:43Z</time>
      </trkpt>
      <trkpt lat="41.819559" lon="-7.424214">
        <ele>361.935</ele>
        <time>2019-06-22T12:45:44Z</time>
      </trkpt>
      <trkpt lat="41.819396" lon="-7.424121">
        <ele>362.089</ele>
        <time>2019-06-22T12:45:45Z</time>
      </trkpt>
      <trkpt lat="41.819233" lon="-7.424033">
        <ele>361.981</ele>
        <time>2019-06-22T12:45:46Z</time>
      </trkpt>
      <trkpt lat="41.819086" lon="-7.423947">
        <ele>361.933</ele>
        <time>2019-06-22T12:45:47Z</time>
      </trkpt>
      <trkpt lat="41.818926" lon="-7.423857">
        <ele>361.141</ele>
        <time>2019-06-22T12:45:48Z</time>
      </trkpt>
      <trkpt lat="41.818746" lon="-7.423763">
        <ele>360.660</ele>
        <time>2019-06-22T12:45:49Z</time>
      </trkpt>
      <trkpt lat="41.818567" lon="-7.423674">
        <ele>360.655</ele>
        <time>2019-06-22T12:45:50Z</time>
      </trkpt>
      <trkpt lat="41.818383" lon="-7.423576">
        <ele>360.748</ele>
        <time>2019-06-22T12:45:51Z</time>
      </trkpt>
      <trkpt lat="41.818206" lon="-7.423476">
        <ele>360.743</ele>
        <time>2019-06-22T12:45:52Z</time>
      </trkpt>
      <trkpt lat="41.818020" lon="-7.423370">
        <ele>359.964</ele>
        <time>2019-06-22T12:45:53Z</time>
      </trkpt>
      <trkpt lat="41.817833" lon="-7.423265">
        <ele>359.110</ele>
        <time>2019-06-22T12:45:54Z</time>
      </trkpt>
      <trkpt lat="41.817644" lon="-7.423179">
        <ele>359.108</ele>
        <time>2019-06-22T12:45:55Z</time>
      </trkpt>
      <trkpt lat="41.817466" lon="-7.423095">
        <ele>357.837</ele>
        <time>2019-06-22T12:45:56Z</time>
      </trkpt>
      <trkpt lat="41.817288" lon="-7.423017">
        <ele>355.821</ele>
        <time>2019-06-22T12:45:57Z</time>
      </trkpt>
      <trkpt lat="41.817105" lon="-7.422944">
        <ele>355.033</ele>
        <time>2019-06-22T12:45:58Z</time>
      </trkpt>
      <trkpt lat="41.816918" lon="-7.422889">
        <ele>355.055</ele>
        <time>2019-06-22T12:45:59Z</time>
      </trkpt>
      <trkpt lat="41.816730" lon="-7.422838">
        <ele>355.113</ele>
        <time>2019-06-22T12:46:00Z</time>
      </trkpt>
      <trkpt lat="41.816541" lon="-7.422791">
        <ele>355.212</ele>
        <time>2019-06-22T12:46:01Z</time>
      </trkpt>
      <trkpt lat="41.816354" lon="-7.422754">
        <ele>356.057</ele>
        <time>2019-06-22T12:46:02Z</time>
      </trkpt>
      <trkpt lat="41.816159" lon="-7.422728">
        <ele>356.240</ele>
        <time>2019-06-22T12:46:03Z</time>
      </trkpt>
      <trkpt lat="41.815961" lon="-7.422696">
        <ele>356.226</ele>
        <time>2019-06-22T12:46:04Z</time>
      </trkpt>
      <trkpt lat="41.815762" lon="-7.422669">
        <ele>357.247</ele>
        <time>2019-06-22T12:46:05Z</time>
      </trkpt>
      <trkpt lat="41.815570" lon="-7.422657">
        <ele>358.511</ele>
        <time>2019-06-22T12:46:06Z</time>
      </trkpt>
      <trkpt lat="41.815376" lon="-7.422656">
        <ele>359.208</ele>
        <time>2019-06-22T12:46:07Z</time>
      </trkpt>
      <trkpt lat="41.815184" lon="-7.422655">
        <ele>359.435</ele>
        <time>2019-06-22T12:46:08Z</time>
      </trkpt>
      <trkpt lat="41.815002" lon="-7.422658">
        <ele>360.629</ele>
        <time>2019-06-22T12:46:09Z</time>
      </trkpt>
      <trkpt lat="41.814823" lon="-7.422663">
        <ele>360.691</ele>
        <time>2019-06-22T12:46:10Z</time>
      </trkpt>
      <trkpt lat="41.814647" lon="-7.422670">
        <ele>360.643</ele>
        <time>2019-06-22T12:46:11Z</time>
      </trkpt>
      <trkpt lat="41.814485" lon="-7.422683">
        <ele>360.821</ele>
        <time>2019-06-22T12:46:12Z</time>
      </trkpt>
      <trkpt lat="41.814340" lon="-7.422698">
        <ele>362.790</ele>
        <time>2019-06-22T12:46:13Z</time>
      </trkpt>
      <trkpt lat="41.814194" lon="-7.422707">
        <ele>363.675</ele>
        <time>2019-06-22T12:46:14Z</time>
      </trkpt>
      <trkpt lat="41.814053" lon="-7.422715">
        <ele>365.338</ele>
        <time>2019-06-22T12:46:15Z</time>
      </trkpt>
      <trkpt lat="41.813920" lon="-7.422713">
        <ele>366.754</ele>
        <time>2019-06-22T12:46:16Z</time>
      </trkpt>
      <trkpt lat="41.813783" lon="-7.422716">
        <ele>368.856</ele>
        <time>2019-06-22T12:46:17Z</time>
      </trkpt>
      <trkpt lat="41.813652" lon="-7.422706">
        <ele>369.011</ele>
        <time>2019-06-22T12:46:18Z</time>
      </trkpt>
      <trkpt lat="41.813529" lon="-7.422700">
        <ele>369.008</ele>
        <time>2019-06-22T12:46:19Z</time>
      </trkpt>
      <trkpt lat="41.813408" lon="-7.422700">
        <ele>368.698</ele>
        <time>2019-06-22T12:46:20Z</time>
      </trkpt>
      <trkpt lat="41.813292" lon="-7.422702">
        <ele>367.932</ele>
        <time>2019-06-22T12:46:21Z</time>
      </trkpt>
      <trkpt lat="41.813190" lon="-7.422699">
        <ele>366.124</ele>
        <time>2019-06-22T12:46:22Z</time>
      </trkpt>
      <trkpt lat="41.813098" lon="-7.422692">
        <ele>364.446</ele>
        <time>2019-06-22T12:46:23Z</time>
      </trkpt>
      <trkpt lat="41.813014" lon="-7.422687">
        <ele>363.734</ele>
        <time>2019-06-22T12:46:24Z</time>
      </trkpt>
      <trkpt lat="41.812932" lon="-7.422681">
        <ele>363.683</ele>
        <time>2019-06-22T12:46:25Z</time>
      </trkpt>
      <trkpt lat="41.812870" lon="-7.422678">
        <ele>363.548</ele>
        <time>2019-06-22T12:46:26Z</time>
      </trkpt>
      <trkpt lat="41.812804" lon="-7.422678">
        <ele>363.541</ele>
        <time>2019-06-22T12:46:27Z</time>
      </trkpt>
      <trkpt lat="41.812719" lon="-7.422684">
        <ele>363.575</ele>
        <time>2019-06-22T12:46:28Z</time>
      </trkpt>
      <trkpt lat="41.812632" lon="-7.422689">
        <ele>363.328</ele>
        <time>2019-06-22T12:46:29Z</time>
      </trkpt>
      <trkpt lat="41.812547" lon="-7.422718">
        <ele>362.220</ele>
        <time>2019-06-22T12:46:30Z</time>
      </trkpt>
      <trkpt lat="41.812463" lon="-7.422742">
        <ele>360.908</ele>
        <time>2019-06-22T12:46:31Z</time>
      </trkpt>
      <trkpt lat="41.812387" lon="-7.422771">
        <ele>360.090</ele>
        <time>2019-06-22T12:46:32Z</time>
      </trkpt>
      <trkpt lat="41.812326" lon="-7.422804">
        <ele>359.124</ele>
        <time>2019-06-22T12:46:33Z</time>
      </trkpt>
      <trkpt lat="41.812268" lon="-7.422831">
        <ele>358.716</ele>
        <time>2019-06-22T12:46:34Z</time>
      </trkpt>
      <trkpt lat="41.812210" lon="-7.422850">
        <ele>358.768</ele>
        <time>2019-06-22T12:46:35Z</time>
      </trkpt>
      <trkpt lat="41.812157" lon="-7.422860">
        <ele>359.576</ele>
        <time>2019-06-22T12:46:37Z</time>
      </trkpt>
      <trkpt lat="41.812109" lon="-7.422843">
        <ele>361.125</ele>
        <time>2019-06-22T12:46:43Z</time>
      </trkpt>
      <trkpt lat="41.812054" lon="-7.422843">
        <ele>361.110</ele>
        <time>2019-06-22T12:46:44Z</time>
      </trkpt>
      <trkpt lat="41.811985" lon="-7.422831">
        <ele>361.173</ele>
        <time>2019-06-22T12:46:45Z</time>
      </trkpt>
      <trkpt lat="41.811903" lon="-7.422828">
        <ele>361.057</ele>
        <time>2019-06-22T12:46:46Z</time>
      </trkpt>
      <trkpt lat="41.811823" lon="-7.422780">
        <ele>360.800</ele>
        <time>2019-06-22T12:46:47Z</time>
      </trkpt>
      <trkpt lat="41.811757" lon="-7.422749">
        <ele>360.620</ele>
        <time>2019-06-22T12:46:48Z</time>
      </trkpt>
      <trkpt lat="41.811684" lon="-7.422724">
        <ele>360.308</ele>
        <time>2019-06-22T12:46:49Z</time>
      </trkpt>
      <trkpt lat="41.811619" lon="-7.422679">
        <ele>359.898</ele>
        <time>2019-06-22T12:46:50Z</time>
      </trkpt>
      <trkpt lat="41.811541" lon="-7.422657">
        <ele>359.312</ele>
        <time>2019-06-22T12:46:51Z</time>
      </trkpt>
      <trkpt lat="41.811464" lon="-7.422638">
        <ele>359.244</ele>
        <time>2019-06-22T12:46:52Z</time>
      </trkpt>
      <trkpt lat="41.811397" lon="-7.422619">
        <ele>359.116</ele>
        <time>2019-06-22T12:46:53Z</time>
      </trkpt>
      <trkpt lat="41.811334" lon="-7.422602">
        <ele>359.194</ele>
        <time>2019-06-22T12:46:54Z</time>
      </trkpt>
      <trkpt lat="41.811279" lon="-7.422583">
        <ele>359.523</ele>
        <time>2019-06-22T12:46:55Z</time>
      </trkpt>
      <trkpt lat="41.811187" lon="-7.422532">
        <ele>359.848</ele>
        <time>2019-06-22T12:46:57Z</time>
      </trkpt>
      <trkpt lat="41.811123" lon="-7.422489">
        <ele>359.851</ele>
        <time>2019-06-22T12:46:58Z</time>
      </trkpt>
      <trkpt lat="41.811057" lon="-7.422438">
        <ele>359.989</ele>
        <time>2019-06-22T12:46:59Z</time>
      </trkpt>
      <trkpt lat="41.810990" lon="-7.422362">
        <ele>360.006</ele>
        <time>2019-06-22T12:47:00Z</time>
      </trkpt>
      <trkpt lat="41.810941" lon="-7.422290">
        <ele>360.126</ele>
        <time>2019-06-22T12:47:01Z</time>
      </trkpt>
      <trkpt lat="41.810886" lon="-7.422225">
        <ele>360.108</ele>
        <time>2019-06-22T12:47:02Z</time>
      </trkpt>
      <trkpt lat="41.810815" lon="-7.422171">
        <ele>360.151</ele>
        <time>2019-06-22T12:47:03Z</time>
      </trkpt>
      <trkpt lat="41.810749" lon="-7.422137">
        <ele>360.075</ele>
        <time>2019-06-22T12:47:04Z</time>
      </trkpt>
      <trkpt lat="41.810701" lon="-7.422122">
        <ele>359.687</ele>
        <time>2019-06-22T12:47:05Z</time>
      </trkpt>
      <trkpt lat="41.810631" lon="-7.422078">
        <ele>359.139</ele>
        <time>2019-06-22T12:47:07Z</time>
      </trkpt>
      <trkpt lat="41.810593" lon="-7.422031">
        <ele>360.847</ele>
        <time>2019-06-22T12:47:18Z</time>
      </trkpt>
      <trkpt lat="41.810570" lon="-7.422084">
        <ele>361.846</ele>
        <time>2019-06-22T12:48:21Z</time>
      </trkpt>
      <trkpt lat="41.810545" lon="-7.422031">
        <ele>361.091</ele>
        <time>2019-06-22T12:48:45Z</time>
      </trkpt>
      <trkpt lat="41.810504" lon="-7.422002">
        <ele>360.424</ele>
        <time>2019-06-22T12:49:16Z</time>
      </trkpt>
      <trkpt lat="41.810478" lon="-7.421923">
        <ele>360.353</ele>
        <time>2019-06-22T12:49:19Z</time>
      </trkpt>
      <trkpt lat="41.810402" lon="-7.421842">
        <ele>360.004</ele>
        <time>2019-06-22T12:49:20Z</time>
      </trkpt>
      <trkpt lat="41.810344" lon="-7.421777">
        <ele>359.714</ele>
        <time>2019-06-22T12:49:21Z</time>
      </trkpt>
      <trkpt lat="41.810284" lon="-7.421707">
        <ele>359.308</ele>
        <time>2019-06-22T12:49:22Z</time>
      </trkpt>
      <trkpt lat="41.810218" lon="-7.421633">
        <ele>358.448</ele>
        <time>2019-06-22T12:49:23Z</time>
      </trkpt>
      <trkpt lat="41.810146" lon="-7.421566">
        <ele>357.922</ele>
        <time>2019-06-22T12:49:24Z</time>
      </trkpt>
      <trkpt lat="41.810067" lon="-7.421490">
        <ele>357.924</ele>
        <time>2019-06-22T12:49:25Z</time>
      </trkpt>
      <trkpt lat="41.809985" lon="-7.421401">
        <ele>358.116</ele>
        <time>2019-06-22T12:49:26Z</time>
      </trkpt>
      <trkpt lat="41.809914" lon="-7.421322">
        <ele>358.354</ele>
        <time>2019-06-22T12:49:27Z</time>
      </trkpt>
      <trkpt lat="41.809837" lon="-7.421239">
        <ele>358.983</ele>
        <time>2019-06-22T12:49:28Z</time>
      </trkpt>
      <trkpt lat="41.809748" lon="-7.421146">
        <ele>359.448</ele>
        <time>2019-06-22T12:49:29Z</time>
      </trkpt>
      <trkpt lat="41.809660" lon="-7.421036">
        <ele>360.681</ele>
        <time>2019-06-22T12:49:30Z</time>
      </trkpt>
      <trkpt lat="41.809549" lon="-7.420925">
        <ele>361.083</ele>
        <time>2019-06-22T12:49:31Z</time>
      </trkpt>
      <trkpt lat="41.809437" lon="-7.420849">
        <ele>361.725</ele>
        <time>2019-06-22T12:49:32Z</time>
      </trkpt>
      <trkpt lat="41.809321" lon="-7.420737">
        <ele>362.317</ele>
        <time>2019-06-22T12:49:33Z</time>
      </trkpt>
      <trkpt lat="41.809192" lon="-7.420622">
        <ele>362.908</ele>
        <time>2019-06-22T12:49:34Z</time>
      </trkpt>
      <trkpt lat="41.809099" lon="-7.420504">
        <ele>363.061</ele>
        <time>2019-06-22T12:49:35Z</time>
      </trkpt>
      <trkpt lat="41.808999" lon="-7.420384">
        <ele>363.125</ele>
        <time>2019-06-22T12:49:36Z</time>
      </trkpt>
      <trkpt lat="41.808872" lon="-7.420272">
        <ele>363.727</ele>
        <time>2019-06-22T12:49:37Z</time>
      </trkpt>
      <trkpt lat="41.808753" lon="-7.420150">
        <ele>364.439</ele>
        <time>2019-06-22T12:49:38Z</time>
      </trkpt>
      <trkpt lat="41.808621" lon="-7.420021">
        <ele>364.427</ele>
        <time>2019-06-22T12:49:39Z</time>
      </trkpt>
      <trkpt lat="41.808509" lon="-7.419907">
        <ele>365.476</ele>
        <time>2019-06-22T12:49:40Z</time>
      </trkpt>
      <trkpt lat="41.808395" lon="-7.419806">
        <ele>366.321</ele>
        <time>2019-06-22T12:49:41Z</time>
      </trkpt>
      <trkpt lat="41.808295" lon="-7.419703">
        <ele>367.434</ele>
        <time>2019-06-22T12:49:42Z</time>
      </trkpt>
      <trkpt lat="41.808191" lon="-7.419596">
        <ele>368.281</ele>
        <time>2019-06-22T12:49:43Z</time>
      </trkpt>
      <trkpt lat="41.808096" lon="-7.419493">
        <ele>368.461</ele>
        <time>2019-06-22T12:49:44Z</time>
      </trkpt>
      <trkpt lat="41.807998" lon="-7.419383">
        <ele>368.617</ele>
        <time>2019-06-22T12:49:45Z</time>
      </trkpt>
      <trkpt lat="41.807891" lon="-7.419258">
        <ele>369.508</ele>
        <time>2019-06-22T12:49:46Z</time>
      </trkpt>
      <trkpt lat="41.807783" lon="-7.419141">
        <ele>369.511</ele>
        <time>2019-06-22T12:49:47Z</time>
      </trkpt>
      <trkpt lat="41.807667" lon="-7.419023">
        <ele>370.135</ele>
        <time>2019-06-22T12:49:48Z</time>
      </trkpt>
      <trkpt lat="41.807548" lon="-7.418894">
        <ele>371.497</ele>
        <time>2019-06-22T12:49:49Z</time>
      </trkpt>
      <trkpt lat="41.807432" lon="-7.418765">
        <ele>372.629</ele>
        <time>2019-06-22T12:49:50Z</time>
      </trkpt>
      <trkpt lat="41.807312" lon="-7.418640">
        <ele>373.627</ele>
        <time>2019-06-22T12:49:51Z</time>
      </trkpt>
      <trkpt lat="41.807205" lon="-7.418514">
        <ele>374.476</ele>
        <time>2019-06-22T12:49:52Z</time>
      </trkpt>
      <trkpt lat="41.807097" lon="-7.418386">
        <ele>375.111</ele>
        <time>2019-06-22T12:49:53Z</time>
      </trkpt>
      <trkpt lat="41.806973" lon="-7.418270">
        <ele>375.174</ele>
        <time>2019-06-22T12:49:54Z</time>
      </trkpt>
      <trkpt lat="41.806848" lon="-7.418179">
        <ele>375.199</ele>
        <time>2019-06-22T12:49:55Z</time>
      </trkpt>
      <trkpt lat="41.806733" lon="-7.418103">
        <ele>375.007</ele>
        <time>2019-06-22T12:49:56Z</time>
      </trkpt>
      <trkpt lat="41.806626" lon="-7.418038">
        <ele>375.027</ele>
        <time>2019-06-22T12:49:57Z</time>
      </trkpt>
      <trkpt lat="41.806500" lon="-7.418013">
        <ele>375.508</ele>
        <time>2019-06-22T12:49:58Z</time>
      </trkpt>
      <trkpt lat="41.806391" lon="-7.418021">
        <ele>376.112</ele>
        <time>2019-06-22T12:49:59Z</time>
      </trkpt>
      <trkpt lat="41.806255" lon="-7.418042">
        <ele>379.476</ele>
        <time>2019-06-22T12:50:00Z</time>
      </trkpt>
      <trkpt lat="41.806119" lon="-7.418093">
        <ele>379.478</ele>
        <time>2019-06-22T12:50:01Z</time>
      </trkpt>
      <trkpt lat="41.805982" lon="-7.418159">
        <ele>380.010</ele>
        <time>2019-06-22T12:50:02Z</time>
      </trkpt>
      <trkpt lat="41.805858" lon="-7.418243">
        <ele>380.028</ele>
        <time>2019-06-22T12:50:03Z</time>
      </trkpt>
      <trkpt lat="41.805722" lon="-7.418321">
        <ele>379.967</ele>
        <time>2019-06-22T12:50:04Z</time>
      </trkpt>
      <trkpt lat="41.805593" lon="-7.418402">
        <ele>379.672</ele>
        <time>2019-06-22T12:50:05Z</time>
      </trkpt>
      <trkpt lat="41.805456" lon="-7.418476">
        <ele>378.675</ele>
        <time>2019-06-22T12:50:06Z</time>
      </trkpt>
      <trkpt lat="41.805330" lon="-7.418538">
        <ele>378.696</ele>
        <time>2019-06-22T12:50:07Z</time>
      </trkpt>
      <trkpt lat="41.805207" lon="-7.418617">
        <ele>378.231</ele>
        <time>2019-06-22T12:50:08Z</time>
      </trkpt>
      <trkpt lat="41.805093" lon="-7.418703">
        <ele>377.524</ele>
        <time>2019-06-22T12:50:09Z</time>
      </trkpt>
      <trkpt lat="41.804994" lon="-7.418793">
        <ele>376.708</ele>
        <time>2019-06-22T12:50:10Z</time>
      </trkpt>
      <trkpt lat="41.804908" lon="-7.418896">
        <ele>376.272</ele>
        <time>2019-06-22T12:50:11Z</time>
      </trkpt>
      <trkpt lat="41.804838" lon="-7.419003">
        <ele>376.296</ele>
        <time>2019-06-22T12:50:12Z</time>
      </trkpt>
      <trkpt lat="41.804775" lon="-7.419107">
        <ele>376.248</ele>
        <time>2019-06-22T12:50:13Z</time>
      </trkpt>
      <trkpt lat="41.804698" lon="-7.419187">
        <ele>376.260</ele>
        <time>2019-06-22T12:50:14Z</time>
      </trkpt>
      <trkpt lat="41.804620" lon="-7.419243">
        <ele>376.368</ele>
        <time>2019-06-22T12:50:15Z</time>
      </trkpt>
      <trkpt lat="41.804540" lon="-7.419280">
        <ele>376.747</ele>
        <time>2019-06-22T12:50:16Z</time>
      </trkpt>
      <trkpt lat="41.804446" lon="-7.419287">
        <ele>376.762</ele>
        <time>2019-06-22T12:50:17Z</time>
      </trkpt>
      <trkpt lat="41.804341" lon="-7.419263">
        <ele>376.625</ele>
        <time>2019-06-22T12:50:18Z</time>
      </trkpt>
      <trkpt lat="41.804233" lon="-7.419243">
        <ele>376.575</ele>
        <time>2019-06-22T12:50:19Z</time>
      </trkpt>
      <trkpt lat="41.804118" lon="-7.419267">
        <ele>376.328</ele>
        <time>2019-06-22T12:50:20Z</time>
      </trkpt>
      <trkpt lat="41.803991" lon="-7.419301">
        <ele>376.020</ele>
        <time>2019-06-22T12:50:21Z</time>
      </trkpt>
      <trkpt lat="41.803852" lon="-7.419363">
        <ele>376.008</ele>
        <time>2019-06-22T12:50:22Z</time>
      </trkpt>
      <trkpt lat="41.803706" lon="-7.419429">
        <ele>376.020</ele>
        <time>2019-06-22T12:50:23Z</time>
      </trkpt>
      <trkpt lat="41.803564" lon="-7.419507">
        <ele>376.114</ele>
        <time>2019-06-22T12:50:24Z</time>
      </trkpt>
      <trkpt lat="41.803418" lon="-7.419589">
        <ele>376.456</ele>
        <time>2019-06-22T12:50:25Z</time>
      </trkpt>
      <trkpt lat="41.803271" lon="-7.419661">
        <ele>376.428</ele>
        <time>2019-06-22T12:50:26Z</time>
      </trkpt>
      <trkpt lat="41.803128" lon="-7.419729">
        <ele>376.436</ele>
        <time>2019-06-22T12:50:27Z</time>
      </trkpt>
      <trkpt lat="41.802990" lon="-7.419800">
        <ele>376.335</ele>
        <time>2019-06-22T12:50:28Z</time>
      </trkpt>
      <trkpt lat="41.802863" lon="-7.419867">
        <ele>376.170</ele>
        <time>2019-06-22T12:50:29Z</time>
      </trkpt>
      <trkpt lat="41.802741" lon="-7.419938">
        <ele>376.153</ele>
        <time>2019-06-22T12:50:30Z</time>
      </trkpt>
      <trkpt lat="41.802632" lon="-7.420003">
        <ele>376.624</ele>
        <time>2019-06-22T12:50:31Z</time>
      </trkpt>
      <trkpt lat="41.802542" lon="-7.420073">
        <ele>377.404</ele>
        <time>2019-06-22T12:50:32Z</time>
      </trkpt>
      <trkpt lat="41.802448" lon="-7.420127">
        <ele>378.414</ele>
        <time>2019-06-22T12:50:33Z</time>
      </trkpt>
      <trkpt lat="41.802367" lon="-7.420169">
        <ele>379.608</ele>
        <time>2019-06-22T12:50:34Z</time>
      </trkpt>
      <trkpt lat="41.802280" lon="-7.420213">
        <ele>380.335</ele>
        <time>2019-06-22T12:50:35Z</time>
      </trkpt>
      <trkpt lat="41.802197" lon="-7.420254">
        <ele>380.889</ele>
        <time>2019-06-22T12:50:36Z</time>
      </trkpt>
      <trkpt lat="41.802120" lon="-7.420299">
        <ele>381.431</ele>
        <time>2019-06-22T12:50:37Z</time>
      </trkpt>
      <trkpt lat="41.802037" lon="-7.420342">
        <ele>381.833</ele>
        <time>2019-06-22T12:50:38Z</time>
      </trkpt>
      <trkpt lat="41.801958" lon="-7.420386">
        <ele>382.271</ele>
        <time>2019-06-22T12:50:39Z</time>
      </trkpt>
      <trkpt lat="41.801875" lon="-7.420422">
        <ele>382.270</ele>
        <time>2019-06-22T12:50:40Z</time>
      </trkpt>
      <trkpt lat="41.801783" lon="-7.420472">
        <ele>382.725</ele>
        <time>2019-06-22T12:50:41Z</time>
      </trkpt>
      <trkpt lat="41.801677" lon="-7.420519">
        <ele>382.998</ele>
        <time>2019-06-22T12:50:42Z</time>
      </trkpt>
      <trkpt lat="41.801567" lon="-7.420572">
        <ele>383.388</ele>
        <time>2019-06-22T12:50:43Z</time>
      </trkpt>
      <trkpt lat="41.801445" lon="-7.420656">
        <ele>383.724</ele>
        <time>2019-06-22T12:50:44Z</time>
      </trkpt>
      <trkpt lat="41.801314" lon="-7.420746">
        <ele>383.726</ele>
        <time>2019-06-22T12:50:45Z</time>
      </trkpt>
      <trkpt lat="41.801170" lon="-7.420828">
        <ele>383.208</ele>
        <time>2019-06-22T12:50:46Z</time>
      </trkpt>
      <trkpt lat="41.801022" lon="-7.420912">
        <ele>382.941</ele>
        <time>2019-06-22T12:50:47Z</time>
      </trkpt>
      <trkpt lat="41.800865" lon="-7.420995">
        <ele>382.945</ele>
        <time>2019-06-22T12:50:48Z</time>
      </trkpt>
      <trkpt lat="41.800705" lon="-7.421088">
        <ele>381.977</ele>
        <time>2019-06-22T12:50:49Z</time>
      </trkpt>
      <trkpt lat="41.800532" lon="-7.421181">
        <ele>381.419</ele>
        <time>2019-06-22T12:50:50Z</time>
      </trkpt>
      <trkpt lat="41.800364" lon="-7.421274">
        <ele>381.427</ele>
        <time>2019-06-22T12:50:51Z</time>
      </trkpt>
      <trkpt lat="41.800194" lon="-7.421360">
        <ele>382.476</ele>
        <time>2019-06-22T12:50:52Z</time>
      </trkpt>
      <trkpt lat="41.800027" lon="-7.421455">
        <ele>382.511</ele>
        <time>2019-06-22T12:50:53Z</time>
      </trkpt>
      <trkpt lat="41.799859" lon="-7.421553">
        <ele>383.314</ele>
        <time>2019-06-22T12:50:54Z</time>
      </trkpt>
      <trkpt lat="41.799668" lon="-7.421655">
        <ele>384.156</ele>
        <time>2019-06-22T12:50:55Z</time>
      </trkpt>
      <trkpt lat="41.799486" lon="-7.421747">
        <ele>384.159</ele>
        <time>2019-06-22T12:50:56Z</time>
      </trkpt>
      <trkpt lat="41.799310" lon="-7.421838">
        <ele>383.814</ele>
        <time>2019-06-22T12:50:57Z</time>
      </trkpt>
      <trkpt lat="41.799136" lon="-7.421937">
        <ele>383.808</ele>
        <time>2019-06-22T12:50:58Z</time>
      </trkpt>
      <trkpt lat="41.798970" lon="-7.422029">
        <ele>384.758</ele>
        <time>2019-06-22T12:50:59Z</time>
      </trkpt>
      <trkpt lat="41.798805" lon="-7.422107">
        <ele>385.392</ele>
        <time>2019-06-22T12:51:00Z</time>
      </trkpt>
      <trkpt lat="41.798652" lon="-7.422186">
        <ele>386.024</ele>
        <time>2019-06-22T12:51:01Z</time>
      </trkpt>
      <trkpt lat="41.798493" lon="-7.422278">
        <ele>387.116</ele>
        <time>2019-06-22T12:51:02Z</time>
      </trkpt>
      <trkpt lat="41.798333" lon="-7.422364">
        <ele>387.194</ele>
        <time>2019-06-22T12:51:03Z</time>
      </trkpt>
      <trkpt lat="41.798192" lon="-7.422441">
        <ele>385.943</ele>
        <time>2019-06-22T12:51:04Z</time>
      </trkpt>
      <trkpt lat="41.798042" lon="-7.422514">
        <ele>385.598</ele>
        <time>2019-06-22T12:51:05Z</time>
      </trkpt>
      <trkpt lat="41.797889" lon="-7.422591">
        <ele>385.481</ele>
        <time>2019-06-22T12:51:06Z</time>
      </trkpt>
      <trkpt lat="41.797730" lon="-7.422676">
        <ele>385.492</ele>
        <time>2019-06-22T12:51:07Z</time>
      </trkpt>
      <trkpt lat="41.797582" lon="-7.422731">
        <ele>385.673</ele>
        <time>2019-06-22T12:51:08Z</time>
      </trkpt>
      <trkpt lat="41.797425" lon="-7.422795">
        <ele>385.920</ele>
        <time>2019-06-22T12:51:09Z</time>
      </trkpt>
      <trkpt lat="41.797268" lon="-7.422859">
        <ele>385.908</ele>
        <time>2019-06-22T12:51:10Z</time>
      </trkpt>
      <trkpt lat="41.797094" lon="-7.422881">
        <ele>384.492</ele>
        <time>2019-06-22T12:51:11Z</time>
      </trkpt>
      <trkpt lat="41.796936" lon="-7.422913">
        <ele>383.396</ele>
        <time>2019-06-22T12:51:12Z</time>
      </trkpt>
      <trkpt lat="41.796776" lon="-7.422939">
        <ele>382.418</ele>
        <time>2019-06-22T12:51:13Z</time>
      </trkpt>
      <trkpt lat="41.796600" lon="-7.422966">
        <ele>381.030</ele>
        <time>2019-06-22T12:51:14Z</time>
      </trkpt>
      <trkpt lat="41.796423" lon="-7.422998">
        <ele>380.438</ele>
        <time>2019-06-22T12:51:15Z</time>
      </trkpt>
      <trkpt lat="41.796242" lon="-7.423023">
        <ele>379.697</ele>
        <time>2019-06-22T12:51:16Z</time>
      </trkpt>
      <trkpt lat="41.796061" lon="-7.423053">
        <ele>379.072</ele>
        <time>2019-06-22T12:51:17Z</time>
      </trkpt>
      <trkpt lat="41.795888" lon="-7.423085">
        <ele>378.095</ele>
        <time>2019-06-22T12:51:18Z</time>
      </trkpt>
      <trkpt lat="41.795717" lon="-7.423104">
        <ele>377.218</ele>
        <time>2019-06-22T12:51:19Z</time>
      </trkpt>
      <trkpt lat="41.795552" lon="-7.423132">
        <ele>376.098</ele>
        <time>2019-06-22T12:51:20Z</time>
      </trkpt>
      <trkpt lat="41.795390" lon="-7.423157">
        <ele>374.817</ele>
        <time>2019-06-22T12:51:21Z</time>
      </trkpt>
      <trkpt lat="41.795230" lon="-7.423181">
        <ele>374.308</ele>
        <time>2019-06-22T12:51:22Z</time>
      </trkpt>
      <trkpt lat="41.795074" lon="-7.423202">
        <ele>373.474</ele>
        <time>2019-06-22T12:51:23Z</time>
      </trkpt>
      <trkpt lat="41.794917" lon="-7.423231">
        <ele>372.858</ele>
        <time>2019-06-22T12:51:24Z</time>
      </trkpt>
      <trkpt lat="41.794753" lon="-7.423259">
        <ele>372.630</ele>
        <time>2019-06-22T12:51:25Z</time>
      </trkpt>
      <trkpt lat="41.794597" lon="-7.423276">
        <ele>372.222</ele>
        <time>2019-06-22T12:51:26Z</time>
      </trkpt>
      <trkpt lat="41.794442" lon="-7.423296">
        <ele>370.410</ele>
        <time>2019-06-22T12:51:27Z</time>
      </trkpt>
      <trkpt lat="41.794290" lon="-7.423316">
        <ele>369.039</ele>
        <time>2019-06-22T12:51:28Z</time>
      </trkpt>
      <trkpt lat="41.794133" lon="-7.423331">
        <ele>367.894</ele>
        <time>2019-06-22T12:51:29Z</time>
      </trkpt>
      <trkpt lat="41.793974" lon="-7.423337">
        <ele>367.577</ele>
        <time>2019-06-22T12:51:30Z</time>
      </trkpt>
      <trkpt lat="41.793816" lon="-7.423338">
        <ele>367.595</ele>
        <time>2019-06-22T12:51:31Z</time>
      </trkpt>
      <trkpt lat="41.793656" lon="-7.423334">
        <ele>367.549</ele>
        <time>2019-06-22T12:51:32Z</time>
      </trkpt>
      <trkpt lat="41.793492" lon="-7.423321">
        <ele>366.723</ele>
        <time>2019-06-22T12:51:33Z</time>
      </trkpt>
      <trkpt lat="41.793336" lon="-7.423305">
        <ele>366.208</ele>
        <time>2019-06-22T12:51:34Z</time>
      </trkpt>
      <trkpt lat="41.793173" lon="-7.423296">
        <ele>365.842</ele>
        <time>2019-06-22T12:51:35Z</time>
      </trkpt>
      <trkpt lat="41.793012" lon="-7.423280">
        <ele>365.346</ele>
        <time>2019-06-22T12:51:36Z</time>
      </trkpt>
      <trkpt lat="41.792847" lon="-7.423263">
        <ele>365.378</ele>
        <time>2019-06-22T12:51:37Z</time>
      </trkpt>
      <trkpt lat="41.792691" lon="-7.423251">
        <ele>366.460</ele>
        <time>2019-06-22T12:51:38Z</time>
      </trkpt>
      <trkpt lat="41.792537" lon="-7.423239">
        <ele>366.878</ele>
        <time>2019-06-22T12:51:39Z</time>
      </trkpt>
      <trkpt lat="41.792406" lon="-7.423222">
        <ele>366.847</ele>
        <time>2019-06-22T12:51:40Z</time>
      </trkpt>
      <trkpt lat="41.792263" lon="-7.423206">
        <ele>366.992</ele>
        <time>2019-06-22T12:51:41Z</time>
      </trkpt>
      <trkpt lat="41.792133" lon="-7.423190">
        <ele>367.355</ele>
        <time>2019-06-22T12:51:42Z</time>
      </trkpt>
      <trkpt lat="41.792006" lon="-7.423185">
        <ele>367.856</ele>
        <time>2019-06-22T12:51:43Z</time>
      </trkpt>
      <trkpt lat="41.791889" lon="-7.423178">
        <ele>367.859</ele>
        <time>2019-06-22T12:51:44Z</time>
      </trkpt>
      <trkpt lat="41.791782" lon="-7.423172">
        <ele>367.914</ele>
        <time>2019-06-22T12:51:45Z</time>
      </trkpt>
      <trkpt lat="41.791670" lon="-7.423163">
        <ele>367.908</ele>
        <time>2019-06-22T12:51:46Z</time>
      </trkpt>
      <trkpt lat="41.791573" lon="-7.423152">
        <ele>368.788</ele>
        <time>2019-06-22T12:51:47Z</time>
      </trkpt>
      <trkpt lat="41.791500" lon="-7.423151">
        <ele>368.822</ele>
        <time>2019-06-22T12:51:48Z</time>
      </trkpt>
      <trkpt lat="41.791423" lon="-7.423156">
        <ele>369.224</ele>
        <time>2019-06-22T12:51:49Z</time>
      </trkpt>
      <trkpt lat="41.791362" lon="-7.423149">
        <ele>369.916</ele>
        <time>2019-06-22T12:51:50Z</time>
      </trkpt>
      <trkpt lat="41.791301" lon="-7.423153">
        <ele>370.824</ele>
        <time>2019-06-22T12:51:51Z</time>
      </trkpt>
      <trkpt lat="41.791229" lon="-7.423145">
        <ele>371.183</ele>
        <time>2019-06-22T12:51:52Z</time>
      </trkpt>
      <trkpt lat="41.791156" lon="-7.423137">
        <ele>371.758</ele>
        <time>2019-06-22T12:51:53Z</time>
      </trkpt>
      <trkpt lat="41.791067" lon="-7.423127">
        <ele>372.181</ele>
        <time>2019-06-22T12:51:54Z</time>
      </trkpt>
      <trkpt lat="41.790967" lon="-7.423121">
        <ele>372.387</ele>
        <time>2019-06-22T12:51:55Z</time>
      </trkpt>
      <trkpt lat="41.790861" lon="-7.423108">
        <ele>372.342</ele>
        <time>2019-06-22T12:51:56Z</time>
      </trkpt>
      <trkpt lat="41.790748" lon="-7.423099">
        <ele>372.326</ele>
        <time>2019-06-22T12:51:57Z</time>
      </trkpt>
      <trkpt lat="41.790620" lon="-7.423087">
        <ele>372.108</ele>
        <time>2019-06-22T12:51:58Z</time>
      </trkpt>
      <trkpt lat="41.790494" lon="-7.423074">
        <ele>371.621</ele>
        <time>2019-06-22T12:51:59Z</time>
      </trkpt>
      <trkpt lat="41.790363" lon="-7.423060">
        <ele>371.135</ele>
        <time>2019-06-22T12:52:00Z</time>
      </trkpt>
      <trkpt lat="41.790226" lon="-7.423050">
        <ele>369.527</ele>
        <time>2019-06-22T12:52:01Z</time>
      </trkpt>
      <trkpt lat="41.790095" lon="-7.423036">
        <ele>369.559</ele>
        <time>2019-06-22T12:52:02Z</time>
      </trkpt>
      <trkpt lat="41.789965" lon="-7.423024">
        <ele>368.717</ele>
        <time>2019-06-22T12:52:03Z</time>
      </trkpt>
      <trkpt lat="41.789845" lon="-7.423013">
        <ele>368.376</ele>
        <time>2019-06-22T12:52:04Z</time>
      </trkpt>
      <trkpt lat="41.789748" lon="-7.422989">
        <ele>367.921</ele>
        <time>2019-06-22T12:52:05Z</time>
      </trkpt>
      <trkpt lat="41.789669" lon="-7.422982">
        <ele>367.324</ele>
        <time>2019-06-22T12:52:06Z</time>
      </trkpt>
      <trkpt lat="41.789607" lon="-7.422977">
        <ele>367.328</ele>
        <time>2019-06-22T12:52:07Z</time>
      </trkpt>
      <trkpt lat="41.789557" lon="-7.422980">
        <ele>367.389</ele>
        <time>2019-06-22T12:52:08Z</time>
      </trkpt>
      <trkpt lat="41.789503" lon="-7.422973">
        <ele>367.217</ele>
        <time>2019-06-22T12:52:09Z</time>
      </trkpt>
      <trkpt lat="41.789449" lon="-7.422976">
        <ele>367.108</ele>
        <time>2019-06-22T12:52:10Z</time>
      </trkpt>
      <trkpt lat="41.789348" lon="-7.422960">
        <ele>367.065</ele>
        <time>2019-06-22T12:52:12Z</time>
      </trkpt>
      <trkpt lat="41.789287" lon="-7.422954">
        <ele>366.829</ele>
        <time>2019-06-22T12:52:13Z</time>
      </trkpt>
      <trkpt lat="41.789232" lon="-7.422943">
        <ele>366.761</ele>
        <time>2019-06-22T12:52:14Z</time>
      </trkpt>
      <trkpt lat="41.789172" lon="-7.422935">
        <ele>366.693</ele>
        <time>2019-06-22T12:52:15Z</time>
      </trkpt>
      <trkpt lat="41.789103" lon="-7.422931">
        <ele>366.411</ele>
        <time>2019-06-22T12:52:16Z</time>
      </trkpt>
      <trkpt lat="41.789031" lon="-7.422917">
        <ele>366.390</ele>
        <time>2019-06-22T12:52:17Z</time>
      </trkpt>
      <trkpt lat="41.788965" lon="-7.422919">
        <ele>366.125</ele>
        <time>2019-06-22T12:52:18Z</time>
      </trkpt>
      <trkpt lat="41.788895" lon="-7.422907">
        <ele>366.088</ele>
        <time>2019-06-22T12:52:19Z</time>
      </trkpt>
      <trkpt lat="41.788835" lon="-7.422902">
        <ele>365.835</ele>
        <time>2019-06-22T12:52:20Z</time>
      </trkpt>
      <trkpt lat="41.788775" lon="-7.422899">
        <ele>365.786</ele>
        <time>2019-06-22T12:52:21Z</time>
      </trkpt>
      <trkpt lat="41.788714" lon="-7.422899">
        <ele>365.614</ele>
        <time>2019-06-22T12:52:22Z</time>
      </trkpt>
      <trkpt lat="41.788660" lon="-7.422907">
        <ele>365.608</ele>
        <time>2019-06-22T12:52:23Z</time>
      </trkpt>
      <trkpt lat="41.788611" lon="-7.422914">
        <ele>365.656</ele>
        <time>2019-06-22T12:52:24Z</time>
      </trkpt>
      <trkpt lat="41.788529" lon="-7.422911">
        <ele>365.620</ele>
        <time>2019-06-22T12:52:26Z</time>
      </trkpt>
      <trkpt lat="41.788458" lon="-7.422895">
        <ele>365.792</ele>
        <time>2019-06-22T12:52:28Z</time>
      </trkpt>
      <trkpt lat="41.788409" lon="-7.422901">
        <ele>365.824</ele>
        <time>2019-06-22T12:52:29Z</time>
      </trkpt>
      <trkpt lat="41.788363" lon="-7.422906">
        <ele>365.922</ele>
        <time>2019-06-22T12:52:30Z</time>
      </trkpt>
      <trkpt lat="41.788304" lon="-7.422912">
        <ele>365.931</ele>
        <time>2019-06-22T12:52:31Z</time>
      </trkpt>
      <trkpt lat="41.788242" lon="-7.422922">
        <ele>365.936</ele>
        <time>2019-06-22T12:52:32Z</time>
      </trkpt>
      <trkpt lat="41.788180" lon="-7.422943">
        <ele>365.889</ele>
        <time>2019-06-22T12:52:33Z</time>
      </trkpt>
      <trkpt lat="41.788118" lon="-7.422964">
        <ele>365.765</ele>
        <time>2019-06-22T12:52:34Z</time>
      </trkpt>
      <trkpt lat="41.788057" lon="-7.422981">
        <ele>365.768</ele>
        <time>2019-06-22T12:52:35Z</time>
      </trkpt>
      <trkpt lat="41.788000" lon="-7.423003">
        <ele>365.714</ele>
        <time>2019-06-22T12:52:36Z</time>
      </trkpt>
      <trkpt lat="41.787925" lon="-7.423038">
        <ele>365.708</ele>
        <time>2019-06-22T12:52:38Z</time>
      </trkpt>
      <trkpt lat="41.787838" lon="-7.423091">
        <ele>365.749</ele>
        <time>2019-06-22T12:52:40Z</time>
      </trkpt>
      <trkpt lat="41.787780" lon="-7.423118">
        <ele>365.753</ele>
        <time>2019-06-22T12:52:41Z</time>
      </trkpt>
      <trkpt lat="41.787725" lon="-7.423143">
        <ele>365.735</ele>
        <time>2019-06-22T12:52:42Z</time>
      </trkpt>
      <trkpt lat="41.787675" lon="-7.423165">
        <ele>365.687</ele>
        <time>2019-06-22T12:52:43Z</time>
      </trkpt>
      <trkpt lat="41.787628" lon="-7.423188">
        <ele>365.475</ele>
        <time>2019-06-22T12:52:44Z</time>
      </trkpt>
      <trkpt lat="41.787582" lon="-7.423209">
        <ele>365.394</ele>
        <time>2019-06-22T12:52:45Z</time>
      </trkpt>
      <trkpt lat="41.787532" lon="-7.423243">
        <ele>365.299</ele>
        <time>2019-06-22T12:52:46Z</time>
      </trkpt>
      <trkpt lat="41.787484" lon="-7.423283">
        <ele>365.122</ele>
        <time>2019-06-22T12:52:47Z</time>
      </trkpt>
      <trkpt lat="41.787437" lon="-7.423314">
        <ele>365.066</ele>
        <time>2019-06-22T12:52:48Z</time>
      </trkpt>
      <trkpt lat="41.787382" lon="-7.423346">
        <ele>365.029</ele>
        <time>2019-06-22T12:52:49Z</time>
      </trkpt>
      <trkpt lat="41.787338" lon="-7.423371">
        <ele>365.021</ele>
        <time>2019-06-22T12:52:50Z</time>
      </trkpt>
      <trkpt lat="41.787285" lon="-7.423399">
        <ele>365.008</ele>
        <time>2019-06-22T12:52:51Z</time>
      </trkpt>
      <trkpt lat="41.787226" lon="-7.423422">
        <ele>364.989</ele>
        <time>2019-06-22T12:52:52Z</time>
      </trkpt>
      <trkpt lat="41.787156" lon="-7.423445">
        <ele>365.033</ele>
        <time>2019-06-22T12:52:54Z</time>
      </trkpt>
      <trkpt lat="41.787064" lon="-7.423468">
        <ele>365.065</ele>
        <time>2019-06-22T12:52:56Z</time>
      </trkpt>
      <trkpt lat="41.787005" lon="-7.423501">
        <ele>365.087</ele>
        <time>2019-06-22T12:52:57Z</time>
      </trkpt>
      <trkpt lat="41.786908" lon="-7.423508">
        <ele>364.925</ele>
        <time>2019-06-22T12:52:58Z</time>
      </trkpt>
      <trkpt lat="41.786811" lon="-7.423513">
        <ele>364.554</ele>
        <time>2019-06-22T12:52:59Z</time>
      </trkpt>
      <trkpt lat="41.786690" lon="-7.423506">
        <ele>364.279</ele>
        <time>2019-06-22T12:53:00Z</time>
      </trkpt>
      <trkpt lat="41.786568" lon="-7.423486">
        <ele>363.652</ele>
        <time>2019-06-22T12:53:01Z</time>
      </trkpt>
      <trkpt lat="41.786439" lon="-7.423479">
        <ele>362.735</ele>
        <time>2019-06-22T12:53:02Z</time>
      </trkpt>
      <trkpt lat="41.786296" lon="-7.423468">
        <ele>361.886</ele>
        <time>2019-06-22T12:53:03Z</time>
      </trkpt>
      <trkpt lat="41.786161" lon="-7.423452">
        <ele>360.714</ele>
        <time>2019-06-22T12:53:04Z</time>
      </trkpt>
      <trkpt lat="41.786016" lon="-7.423435">
        <ele>359.508</ele>
        <time>2019-06-22T12:53:05Z</time>
      </trkpt>
      <trkpt lat="41.785867" lon="-7.423417">
        <ele>358.336</ele>
        <time>2019-06-22T12:53:06Z</time>
      </trkpt>
      <trkpt lat="41.785720" lon="-7.423397">
        <ele>357.870</ele>
        <time>2019-06-22T12:53:07Z</time>
      </trkpt>
      <trkpt lat="41.785574" lon="-7.423387">
        <ele>357.292</ele>
        <time>2019-06-22T12:53:08Z</time>
      </trkpt>
      <trkpt lat="41.785424" lon="-7.423366">
        <ele>357.294</ele>
        <time>2019-06-22T12:53:09Z</time>
      </trkpt>
      <trkpt lat="41.785272" lon="-7.423350">
        <ele>357.342</ele>
        <time>2019-06-22T12:53:10Z</time>
      </trkpt>
      <trkpt lat="41.785118" lon="-7.423337">
        <ele>357.321</ele>
        <time>2019-06-22T12:53:11Z</time>
      </trkpt>
      <trkpt lat="41.784964" lon="-7.423322">
        <ele>357.216</ele>
        <time>2019-06-22T12:53:12Z</time>
      </trkpt>
      <trkpt lat="41.784806" lon="-7.423312">
        <ele>356.919</ele>
        <time>2019-06-22T12:53:13Z</time>
      </trkpt>
      <trkpt lat="41.784660" lon="-7.423307">
        <ele>356.827</ele>
        <time>2019-06-22T12:53:14Z</time>
      </trkpt>
      <trkpt lat="41.784506" lon="-7.423296">
        <ele>356.868</ele>
        <time>2019-06-22T12:53:15Z</time>
      </trkpt>
      <trkpt lat="41.784355" lon="-7.423279">
        <ele>357.114</ele>
        <time>2019-06-22T12:53:16Z</time>
      </trkpt>
      <trkpt lat="41.784211" lon="-7.423273">
        <ele>357.108</ele>
        <time>2019-06-22T12:53:17Z</time>
      </trkpt>
      <trkpt lat="41.784067" lon="-7.423259">
        <ele>357.325</ele>
        <time>2019-06-22T12:53:18Z</time>
      </trkpt>
      <trkpt lat="41.783928" lon="-7.423262">
        <ele>357.489</ele>
        <time>2019-06-22T12:53:19Z</time>
      </trkpt>
      <trkpt lat="41.783797" lon="-7.423260">
        <ele>357.641</ele>
        <time>2019-06-22T12:53:20Z</time>
      </trkpt>
      <trkpt lat="41.783659" lon="-7.423251">
        <ele>357.773</ele>
        <time>2019-06-22T12:53:21Z</time>
      </trkpt>
      <trkpt lat="41.783523" lon="-7.423259">
        <ele>357.981</ele>
        <time>2019-06-22T12:53:22Z</time>
      </trkpt>
      <trkpt lat="41.783380" lon="-7.423267">
        <ele>358.250</ele>
        <time>2019-06-22T12:53:23Z</time>
      </trkpt>
      <trkpt lat="41.783227" lon="-7.423291">
        <ele>358.255</ele>
        <time>2019-06-22T12:53:24Z</time>
      </trkpt>
      <trkpt lat="41.783064" lon="-7.423302">
        <ele>357.798</ele>
        <time>2019-06-22T12:53:25Z</time>
      </trkpt>
      <trkpt lat="41.782894" lon="-7.423331">
        <ele>357.591</ele>
        <time>2019-06-22T12:53:26Z</time>
      </trkpt>
      <trkpt lat="41.782724" lon="-7.423348">
        <ele>357.581</ele>
        <time>2019-06-22T12:53:27Z</time>
      </trkpt>
      <trkpt lat="41.782541" lon="-7.423351">
        <ele>357.019</ele>
        <time>2019-06-22T12:53:28Z</time>
      </trkpt>
      <trkpt lat="41.782360" lon="-7.423356">
        <ele>357.008</ele>
        <time>2019-06-22T12:53:29Z</time>
      </trkpt>
      <trkpt lat="41.782177" lon="-7.423368">
        <ele>356.972</ele>
        <time>2019-06-22T12:53:30Z</time>
      </trkpt>
      <trkpt lat="41.781995" lon="-7.423384">
        <ele>356.836</ele>
        <time>2019-06-22T12:53:31Z</time>
      </trkpt>
      <trkpt lat="41.781805" lon="-7.423389">
        <ele>356.688</ele>
        <time>2019-06-22T12:53:32Z</time>
      </trkpt>
      <trkpt lat="41.781615" lon="-7.423406">
        <ele>356.630</ele>
        <time>2019-06-22T12:53:33Z</time>
      </trkpt>
      <trkpt lat="41.781420" lon="-7.423413">
        <ele>356.228</ele>
        <time>2019-06-22T12:53:34Z</time>
      </trkpt>
      <trkpt lat="41.781222" lon="-7.423425">
        <ele>355.667</ele>
        <time>2019-06-22T12:53:35Z</time>
      </trkpt>
      <trkpt lat="41.781023" lon="-7.423438">
        <ele>354.992</ele>
        <time>2019-06-22T12:53:36Z</time>
      </trkpt>
      <trkpt lat="41.780829" lon="-7.423443">
        <ele>353.815</ele>
        <time>2019-06-22T12:53:37Z</time>
      </trkpt>
      <trkpt lat="41.780644" lon="-7.423457">
        <ele>352.933</ele>
        <time>2019-06-22T12:53:38Z</time>
      </trkpt>
      <trkpt lat="41.780454" lon="-7.423473">
        <ele>352.623</ele>
        <time>2019-06-22T12:53:39Z</time>
      </trkpt>
      <trkpt lat="41.780265" lon="-7.423481">
        <ele>352.615</ele>
        <time>2019-06-22T12:53:40Z</time>
      </trkpt>
      <trkpt lat="41.780083" lon="-7.423485">
        <ele>353.108</ele>
        <time>2019-06-22T12:53:41Z</time>
      </trkpt>
      <trkpt lat="41.779913" lon="-7.423498">
        <ele>353.136</ele>
        <time>2019-06-22T12:53:42Z</time>
      </trkpt>
      <trkpt lat="41.779744" lon="-7.423505">
        <ele>352.920</ele>
        <time>2019-06-22T12:53:43Z</time>
      </trkpt>
      <trkpt lat="41.779579" lon="-7.423509">
        <ele>351.792</ele>
        <time>2019-06-22T12:53:44Z</time>
      </trkpt>
      <trkpt lat="41.779408" lon="-7.423510">
        <ele>351.324</ele>
        <time>2019-06-22T12:53:45Z</time>
      </trkpt>
      <trkpt lat="41.779244" lon="-7.423526">
        <ele>350.932</ele>
        <time>2019-06-22T12:53:46Z</time>
      </trkpt>
      <trkpt lat="41.779077" lon="-7.423544">
        <ele>350.961</ele>
        <time>2019-06-22T12:53:47Z</time>
      </trkpt>
      <trkpt lat="41.778911" lon="-7.423575">
        <ele>351.786</ele>
        <time>2019-06-22T12:53:48Z</time>
      </trkpt>
      <trkpt lat="41.778743" lon="-7.423617">
        <ele>352.799</ele>
        <time>2019-06-22T12:53:49Z</time>
      </trkpt>
      <trkpt lat="41.778584" lon="-7.423664">
        <ele>352.986</ele>
        <time>2019-06-22T12:53:50Z</time>
      </trkpt>
      <trkpt lat="41.778412" lon="-7.423727">
        <ele>352.960</ele>
        <time>2019-06-22T12:53:51Z</time>
      </trkpt>
      <trkpt lat="41.778240" lon="-7.423791">
        <ele>352.526</ele>
        <time>2019-06-22T12:53:52Z</time>
      </trkpt>
      <trkpt lat="41.778063" lon="-7.423857">
        <ele>352.108</ele>
        <time>2019-06-22T12:53:53Z</time>
      </trkpt>
      <trkpt lat="41.777885" lon="-7.423922">
        <ele>352.171</ele>
        <time>2019-06-22T12:53:54Z</time>
      </trkpt>
      <trkpt lat="41.777711" lon="-7.423988">
        <ele>352.195</ele>
        <time>2019-06-22T12:53:55Z</time>
      </trkpt>
      <trkpt lat="41.777543" lon="-7.424049">
        <ele>352.197</ele>
        <time>2019-06-22T12:53:56Z</time>
      </trkpt>
      <trkpt lat="41.777372" lon="-7.424117">
        <ele>352.639</ele>
        <time>2019-06-22T12:53:57Z</time>
      </trkpt>
      <trkpt lat="41.777195" lon="-7.424178">
        <ele>352.987</ele>
        <time>2019-06-22T12:53:58Z</time>
      </trkpt>
      <trkpt lat="41.777035" lon="-7.424257">
        <ele>353.576</ele>
        <time>2019-06-22T12:53:59Z</time>
      </trkpt>
      <trkpt lat="41.776865" lon="-7.424324">
        <ele>353.581</ele>
        <time>2019-06-22T12:54:00Z</time>
      </trkpt>
      <trkpt lat="41.776697" lon="-7.424383">
        <ele>353.494</ele>
        <time>2019-06-22T12:54:01Z</time>
      </trkpt>
      <trkpt lat="41.776526" lon="-7.424455">
        <ele>353.112</ele>
        <time>2019-06-22T12:54:02Z</time>
      </trkpt>
      <trkpt lat="41.776371" lon="-7.424515">
        <ele>353.032</ele>
        <time>2019-06-22T12:54:03Z</time>
      </trkpt>
      <trkpt lat="41.776211" lon="-7.424573">
        <ele>352.905</ele>
        <time>2019-06-22T12:54:04Z</time>
      </trkpt>
      <trkpt lat="41.776061" lon="-7.424637">
        <ele>352.808</ele>
        <time>2019-06-22T12:54:05Z</time>
      </trkpt>
      <trkpt lat="41.775920" lon="-7.424688">
        <ele>352.774</ele>
        <time>2019-06-22T12:54:06Z</time>
      </trkpt>
      <trkpt lat="41.775777" lon="-7.424737">
        <ele>352.748</ele>
        <time>2019-06-22T12:54:07Z</time>
      </trkpt>
      <trkpt lat="41.775636" lon="-7.424793">
        <ele>352.950</ele>
        <time>2019-06-22T12:54:08Z</time>
      </trkpt>
      <trkpt lat="41.775492" lon="-7.424860">
        <ele>352.962</ele>
        <time>2019-06-22T12:54:09Z</time>
      </trkpt>
      <trkpt lat="41.775335" lon="-7.424916">
        <ele>352.980</ele>
        <time>2019-06-22T12:54:10Z</time>
      </trkpt>
      <trkpt lat="41.775174" lon="-7.424970">
        <ele>352.969</ele>
        <time>2019-06-22T12:54:11Z</time>
      </trkpt>
      <trkpt lat="41.775007" lon="-7.425032">
        <ele>352.754</ele>
        <time>2019-06-22T12:54:12Z</time>
      </trkpt>
      <trkpt lat="41.774844" lon="-7.425091">
        <ele>352.397</ele>
        <time>2019-06-22T12:54:13Z</time>
      </trkpt>
      <trkpt lat="41.774687" lon="-7.425145">
        <ele>352.023</ele>
        <time>2019-06-22T12:54:14Z</time>
      </trkpt>
      <trkpt lat="41.774533" lon="-7.425200">
        <ele>351.583</ele>
        <time>2019-06-22T12:54:15Z</time>
      </trkpt>
      <trkpt lat="41.774384" lon="-7.425261">
        <ele>350.711</ele>
        <time>2019-06-22T12:54:16Z</time>
      </trkpt>
      <trkpt lat="41.774244" lon="-7.425326">
        <ele>349.908</ele>
        <time>2019-06-22T12:54:17Z</time>
      </trkpt>
      <trkpt lat="41.774113" lon="-7.425375">
        <ele>349.335</ele>
        <time>2019-06-22T12:54:18Z</time>
      </trkpt>
      <trkpt lat="41.773991" lon="-7.425451">
        <ele>349.019</ele>
        <time>2019-06-22T12:54:19Z</time>
      </trkpt>
      <trkpt lat="41.773880" lon="-7.425528">
        <ele>349.051</ele>
        <time>2019-06-22T12:54:20Z</time>
      </trkpt>
      <trkpt lat="41.773781" lon="-7.425607">
        <ele>349.493</ele>
        <time>2019-06-22T12:54:21Z</time>
      </trkpt>
      <trkpt lat="41.773697" lon="-7.425678">
        <ele>350.321</ele>
        <time>2019-06-22T12:54:22Z</time>
      </trkpt>
      <trkpt lat="41.773624" lon="-7.425737">
        <ele>351.420</ele>
        <time>2019-06-22T12:54:23Z</time>
      </trkpt>
      <trkpt lat="41.773557" lon="-7.425813">
        <ele>351.955</ele>
        <time>2019-06-22T12:54:24Z</time>
      </trkpt>
      <trkpt lat="41.773501" lon="-7.425873">
        <ele>352.748</ele>
        <time>2019-06-22T12:54:25Z</time>
      </trkpt>
      <trkpt lat="41.773441" lon="-7.425936">
        <ele>353.221</ele>
        <time>2019-06-22T12:54:26Z</time>
      </trkpt>
      <trkpt lat="41.773378" lon="-7.425998">
        <ele>353.241</ele>
        <time>2019-06-22T12:54:27Z</time>
      </trkpt>
      <trkpt lat="41.773300" lon="-7.426070">
        <ele>353.205</ele>
        <time>2019-06-22T12:54:28Z</time>
      </trkpt>
      <trkpt lat="41.773214" lon="-7.426172">
        <ele>353.308</ele>
        <time>2019-06-22T12:54:29Z</time>
      </trkpt>
      <trkpt lat="41.773114" lon="-7.426279">
        <ele>353.315</ele>
        <time>2019-06-22T12:54:30Z</time>
      </trkpt>
      <trkpt lat="41.773007" lon="-7.426399">
        <ele>353.429</ele>
        <time>2019-06-22T12:54:31Z</time>
      </trkpt>
      <trkpt lat="41.772893" lon="-7.426532">
        <ele>353.491</ele>
        <time>2019-06-22T12:54:32Z</time>
      </trkpt>
      <trkpt lat="41.772775" lon="-7.426676">
        <ele>353.493</ele>
        <time>2019-06-22T12:54:33Z</time>
      </trkpt>
      <trkpt lat="41.772652" lon="-7.426822">
        <ele>353.271</ele>
        <time>2019-06-22T12:54:34Z</time>
      </trkpt>
      <trkpt lat="41.772514" lon="-7.426978">
        <ele>353.190</ele>
        <time>2019-06-22T12:54:35Z</time>
      </trkpt>
      <trkpt lat="41.772366" lon="-7.427143">
        <ele>353.195</ele>
        <time>2019-06-22T12:54:36Z</time>
      </trkpt>
      <trkpt lat="41.772213" lon="-7.427304">
        <ele>353.078</ele>
        <time>2019-06-22T12:54:37Z</time>
      </trkpt>
      <trkpt lat="41.772058" lon="-7.427482">
        <ele>352.741</ele>
        <time>2019-06-22T12:54:38Z</time>
      </trkpt>
      <trkpt lat="41.771906" lon="-7.427663">
        <ele>352.781</ele>
        <time>2019-06-22T12:54:39Z</time>
      </trkpt>
      <trkpt lat="41.771745" lon="-7.427848">
        <ele>352.609</ele>
        <time>2019-06-22T12:54:40Z</time>
      </trkpt>
      <trkpt lat="41.771592" lon="-7.428022">
        <ele>352.308</ele>
        <time>2019-06-22T12:54:41Z</time>
      </trkpt>
      <trkpt lat="41.771429" lon="-7.428211">
        <ele>351.917</ele>
        <time>2019-06-22T12:54:42Z</time>
      </trkpt>
      <trkpt lat="41.771264" lon="-7.428400">
        <ele>351.761</ele>
        <time>2019-06-22T12:54:43Z</time>
      </trkpt>
      <trkpt lat="41.771093" lon="-7.428591">
        <ele>351.353</ele>
        <time>2019-06-22T12:54:44Z</time>
      </trkpt>
      <trkpt lat="41.770922" lon="-7.428772">
        <ele>350.925</ele>
        <time>2019-06-22T12:54:45Z</time>
      </trkpt>
      <trkpt lat="41.770748" lon="-7.428971">
        <ele>350.923</ele>
        <time>2019-06-22T12:54:46Z</time>
      </trkpt>
      <trkpt lat="41.770567" lon="-7.429170">
        <ele>350.922</ele>
        <time>2019-06-22T12:54:47Z</time>
      </trkpt>
      <trkpt lat="41.770393" lon="-7.429373">
        <ele>350.937</ele>
        <time>2019-06-22T12:54:48Z</time>
      </trkpt>
      <trkpt lat="41.770210" lon="-7.429579">
        <ele>350.910</ele>
        <time>2019-06-22T12:54:49Z</time>
      </trkpt>
      <trkpt lat="41.770032" lon="-7.429787">
        <ele>350.944</ele>
        <time>2019-06-22T12:54:50Z</time>
      </trkpt>
      <trkpt lat="41.769843" lon="-7.430003">
        <ele>350.705</ele>
        <time>2019-06-22T12:54:51Z</time>
      </trkpt>
      <trkpt lat="41.769660" lon="-7.430219">
        <ele>350.715</ele>
        <time>2019-06-22T12:54:52Z</time>
      </trkpt>
      <trkpt lat="41.769484" lon="-7.430429">
        <ele>350.608</ele>
        <time>2019-06-22T12:54:53Z</time>
      </trkpt>
      <trkpt lat="41.769292" lon="-7.430642">
        <ele>350.587</ele>
        <time>2019-06-22T12:54:54Z</time>
      </trkpt>
      <trkpt lat="41.769107" lon="-7.430856">
        <ele>350.411</ele>
        <time>2019-06-22T12:54:55Z</time>
      </trkpt>
      <trkpt lat="41.768915" lon="-7.431071">
        <ele>350.363</ele>
        <time>2019-06-22T12:54:56Z</time>
      </trkpt>
      <trkpt lat="41.768732" lon="-7.431276">
        <ele>349.925</ele>
        <time>2019-06-22T12:54:57Z</time>
      </trkpt>
      <trkpt lat="41.768542" lon="-7.431489">
        <ele>349.273</ele>
        <time>2019-06-22T12:54:58Z</time>
      </trkpt>
      <trkpt lat="41.768361" lon="-7.431698">
        <ele>348.522</ele>
        <time>2019-06-22T12:54:59Z</time>
      </trkpt>
      <trkpt lat="41.768171" lon="-7.431923">
        <ele>348.567</ele>
        <time>2019-06-22T12:55:00Z</time>
      </trkpt>
      <trkpt lat="41.767982" lon="-7.432145">
        <ele>347.380</ele>
        <time>2019-06-22T12:55:01Z</time>
      </trkpt>
      <trkpt lat="41.767794" lon="-7.432361">
        <ele>346.595</ele>
        <time>2019-06-22T12:55:02Z</time>
      </trkpt>
      <trkpt lat="41.767600" lon="-7.432584">
        <ele>345.649</ele>
        <time>2019-06-22T12:55:03Z</time>
      </trkpt>
      <trkpt lat="41.767420" lon="-7.432789">
        <ele>344.923</ele>
        <time>2019-06-22T12:55:04Z</time>
      </trkpt>
      <trkpt lat="41.767242" lon="-7.432987">
        <ele>344.908</ele>
        <time>2019-06-22T12:55:05Z</time>
      </trkpt>
      <trkpt lat="41.767058" lon="-7.433194">
        <ele>345.982</ele>
        <time>2019-06-22T12:55:06Z</time>
      </trkpt>
      <trkpt lat="41.766882" lon="-7.433395">
        <ele>346.556</ele>
        <time>2019-06-22T12:55:07Z</time>
      </trkpt>
      <trkpt lat="41.766706" lon="-7.433597">
        <ele>347.798</ele>
        <time>2019-06-22T12:55:08Z</time>
      </trkpt>
      <trkpt lat="41.766539" lon="-7.433793">
        <ele>348.550</ele>
        <time>2019-06-22T12:55:09Z</time>
      </trkpt>
      <trkpt lat="41.766374" lon="-7.433980">
        <ele>349.718</ele>
        <time>2019-06-22T12:55:10Z</time>
      </trkpt>
      <trkpt lat="41.766212" lon="-7.434165">
        <ele>349.847</ele>
        <time>2019-06-22T12:55:11Z</time>
      </trkpt>
      <trkpt lat="41.766056" lon="-7.434335">
        <ele>349.892</ele>
        <time>2019-06-22T12:55:12Z</time>
      </trkpt>
      <trkpt lat="41.765883" lon="-7.434506">
        <ele>349.825</ele>
        <time>2019-06-22T12:55:13Z</time>
      </trkpt>
      <trkpt lat="41.765704" lon="-7.434678">
        <ele>349.882</ele>
        <time>2019-06-22T12:55:14Z</time>
      </trkpt>
      <trkpt lat="41.765514" lon="-7.434844">
        <ele>349.943</ele>
        <time>2019-06-22T12:55:15Z</time>
      </trkpt>
      <trkpt lat="41.765315" lon="-7.434996">
        <ele>350.217</ele>
        <time>2019-06-22T12:55:16Z</time>
      </trkpt>
      <trkpt lat="41.765114" lon="-7.435143">
        <ele>350.208</ele>
        <time>2019-06-22T12:55:17Z</time>
      </trkpt>
      <trkpt lat="41.764906" lon="-7.435280">
        <ele>350.251</ele>
        <time>2019-06-22T12:55:18Z</time>
      </trkpt>
      <trkpt lat="41.764697" lon="-7.435424">
        <ele>349.935</ele>
        <time>2019-06-22T12:55:19Z</time>
      </trkpt>
      <trkpt lat="41.764485" lon="-7.435561">
        <ele>349.497</ele>
        <time>2019-06-22T12:55:20Z</time>
      </trkpt>
      <trkpt lat="41.764277" lon="-7.435690">
        <ele>349.079</ele>
        <time>2019-06-22T12:55:21Z</time>
      </trkpt>
      <trkpt lat="41.764063" lon="-7.435823">
        <ele>348.777</ele>
        <time>2019-06-22T12:55:22Z</time>
      </trkpt>
      <trkpt lat="41.763850" lon="-7.435958">
        <ele>348.576</ele>
        <time>2019-06-22T12:55:23Z</time>
      </trkpt>
      <trkpt lat="41.763637" lon="-7.436099">
        <ele>348.241</ele>
        <time>2019-06-22T12:55:24Z</time>
      </trkpt>
      <trkpt lat="41.763422" lon="-7.436237">
        <ele>347.914</ele>
        <time>2019-06-22T12:55:25Z</time>
      </trkpt>
      <trkpt lat="41.763213" lon="-7.436375">
        <ele>346.594</ele>
        <time>2019-06-22T12:55:26Z</time>
      </trkpt>
      <trkpt lat="41.763004" lon="-7.436510">
        <ele>345.757</ele>
        <time>2019-06-22T12:55:27Z</time>
      </trkpt>
      <trkpt lat="41.762799" lon="-7.436635">
        <ele>344.822</ele>
        <time>2019-06-22T12:55:28Z</time>
      </trkpt>
      <trkpt lat="41.762595" lon="-7.436761">
        <ele>344.708</ele>
        <time>2019-06-22T12:55:29Z</time>
      </trkpt>
      <trkpt lat="41.762391" lon="-7.436896">
        <ele>344.792</ele>
        <time>2019-06-22T12:55:30Z</time>
      </trkpt>
      <trkpt lat="41.762185" lon="-7.437035">
        <ele>345.966</ele>
        <time>2019-06-22T12:55:31Z</time>
      </trkpt>
      <trkpt lat="41.761972" lon="-7.437167">
        <ele>346.138</ele>
        <time>2019-06-22T12:55:32Z</time>
      </trkpt>
      <trkpt lat="41.761774" lon="-7.437299">
        <ele>346.110</ele>
        <time>2019-06-22T12:55:33Z</time>
      </trkpt>
      <trkpt lat="41.761566" lon="-7.437427">
        <ele>346.328</ele>
        <time>2019-06-22T12:55:34Z</time>
      </trkpt>
      <trkpt lat="41.761356" lon="-7.437557">
        <ele>346.677</ele>
        <time>2019-06-22T12:55:35Z</time>
      </trkpt>
      <trkpt lat="41.761155" lon="-7.437689">
        <ele>346.722</ele>
        <time>2019-06-22T12:55:36Z</time>
      </trkpt>
      <trkpt lat="41.760945" lon="-7.437828">
        <ele>347.365</ele>
        <time>2019-06-22T12:55:37Z</time>
      </trkpt>
      <trkpt lat="41.760737" lon="-7.437962">
        <ele>348.262</ele>
        <time>2019-06-22T12:55:38Z</time>
      </trkpt>
      <trkpt lat="41.760534" lon="-7.438099">
        <ele>348.883</ele>
        <time>2019-06-22T12:55:39Z</time>
      </trkpt>
      <trkpt lat="41.760324" lon="-7.438224">
        <ele>348.811</ele>
        <time>2019-06-22T12:55:40Z</time>
      </trkpt>
      <trkpt lat="41.760110" lon="-7.438350">
        <ele>348.808</ele>
        <time>2019-06-22T12:55:41Z</time>
      </trkpt>
      <trkpt lat="41.759899" lon="-7.438483">
        <ele>348.429</ele>
        <time>2019-06-22T12:55:42Z</time>
      </trkpt>
      <trkpt lat="41.759689" lon="-7.438617">
        <ele>348.373</ele>
        <time>2019-06-22T12:55:43Z</time>
      </trkpt>
      <trkpt lat="41.759474" lon="-7.438759">
        <ele>348.285</ele>
        <time>2019-06-22T12:55:44Z</time>
      </trkpt>
      <trkpt lat="41.759260" lon="-7.438902">
        <ele>348.217</ele>
        <time>2019-06-22T12:55:45Z</time>
      </trkpt>
      <trkpt lat="41.759039" lon="-7.439032">
        <ele>348.195</ele>
        <time>2019-06-22T12:55:46Z</time>
      </trkpt>
      <trkpt lat="41.758824" lon="-7.439179">
        <ele>347.814</ele>
        <time>2019-06-22T12:55:47Z</time>
      </trkpt>
      <trkpt lat="41.758601" lon="-7.439312">
        <ele>347.269</ele>
        <time>2019-06-22T12:55:48Z</time>
      </trkpt>
      <trkpt lat="41.758379" lon="-7.439457">
        <ele>346.152</ele>
        <time>2019-06-22T12:55:49Z</time>
      </trkpt>
      <trkpt lat="41.758158" lon="-7.439597">
        <ele>346.117</ele>
        <time>2019-06-22T12:55:50Z</time>
      </trkpt>
      <trkpt lat="41.757942" lon="-7.439744">
        <ele>346.187</ele>
        <time>2019-06-22T12:55:51Z</time>
      </trkpt>
      <trkpt lat="41.757722" lon="-7.439887">
        <ele>346.815</ele>
        <time>2019-06-22T12:55:52Z</time>
      </trkpt>
      <trkpt lat="41.757496" lon="-7.440030">
        <ele>347.308</ele>
        <time>2019-06-22T12:55:53Z</time>
      </trkpt>
      <trkpt lat="41.757273" lon="-7.440166">
        <ele>348.324</ele>
        <time>2019-06-22T12:55:54Z</time>
      </trkpt>
      <trkpt lat="41.757048" lon="-7.440307">
        <ele>348.318</ele>
        <time>2019-06-22T12:55:55Z</time>
      </trkpt>
      <trkpt lat="41.756826" lon="-7.440447">
        <ele>348.260</ele>
        <time>2019-06-22T12:55:56Z</time>
      </trkpt>
      <trkpt lat="41.756610" lon="-7.440591">
        <ele>348.222</ele>
        <time>2019-06-22T12:55:57Z</time>
      </trkpt>
      <trkpt lat="41.756386" lon="-7.440730">
        <ele>348.320</ele>
        <time>2019-06-22T12:55:58Z</time>
      </trkpt>
      <trkpt lat="41.756168" lon="-7.440867">
        <ele>348.529</ele>
        <time>2019-06-22T12:55:59Z</time>
      </trkpt>
      <trkpt lat="41.755945" lon="-7.441008">
        <ele>349.034</ele>
        <time>2019-06-22T12:56:00Z</time>
      </trkpt>
      <trkpt lat="41.755726" lon="-7.441148">
        <ele>349.687</ele>
        <time>2019-06-22T12:56:01Z</time>
      </trkpt>
      <trkpt lat="41.755505" lon="-7.441285">
        <ele>349.675</ele>
        <time>2019-06-22T12:56:02Z</time>
      </trkpt>
      <trkpt lat="41.755286" lon="-7.441424">
        <ele>350.228</ele>
        <time>2019-06-22T12:56:03Z</time>
      </trkpt>
      <trkpt lat="41.755066" lon="-7.441561">
        <ele>350.420</ele>
        <time>2019-06-22T12:56:04Z</time>
      </trkpt>
      <trkpt lat="41.754846" lon="-7.441701">
        <ele>350.808</ele>
        <time>2019-06-22T12:56:05Z</time>
      </trkpt>
      <trkpt lat="41.754624" lon="-7.441842">
        <ele>351.250</ele>
        <time>2019-06-22T12:56:06Z</time>
      </trkpt>
      <trkpt lat="41.754401" lon="-7.441976">
        <ele>351.514</ele>
        <time>2019-06-22T12:56:07Z</time>
      </trkpt>
      <trkpt lat="41.754176" lon="-7.442119">
        <ele>351.626</ele>
        <time>2019-06-22T12:56:08Z</time>
      </trkpt>
      <trkpt lat="41.753959" lon="-7.442256">
        <ele>351.668</ele>
        <time>2019-06-22T12:56:09Z</time>
      </trkpt>
      <trkpt lat="41.753738" lon="-7.442399">
        <ele>350.576</ele>
        <time>2019-06-22T12:56:10Z</time>
      </trkpt>
      <trkpt lat="41.753512" lon="-7.442538">
        <ele>348.965</ele>
        <time>2019-06-22T12:56:11Z</time>
      </trkpt>
      <trkpt lat="41.753283" lon="-7.442688">
        <ele>347.660</ele>
        <time>2019-06-22T12:56:12Z</time>
      </trkpt>
      <trkpt lat="41.753060" lon="-7.442833">
        <ele>346.583</ele>
        <time>2019-06-22T12:56:13Z</time>
      </trkpt>
      <trkpt lat="41.752839" lon="-7.442984">
        <ele>346.089</ele>
        <time>2019-06-22T12:56:14Z</time>
      </trkpt>
      <trkpt lat="41.752605" lon="-7.443134">
        <ele>346.006</ele>
        <time>2019-06-22T12:56:15Z</time>
      </trkpt>
      <trkpt lat="41.752376" lon="-7.443276">
        <ele>347.026</ele>
        <time>2019-06-22T12:56:16Z</time>
      </trkpt>
      <trkpt lat="41.752154" lon="-7.443429">
        <ele>347.408</ele>
        <time>2019-06-22T12:56:17Z</time>
      </trkpt>
      <trkpt lat="41.751924" lon="-7.443584">
        <ele>347.991</ele>
        <time>2019-06-22T12:56:18Z</time>
      </trkpt>
      <trkpt lat="41.751691" lon="-7.443726">
        <ele>348.345</ele>
        <time>2019-06-22T12:56:19Z</time>
      </trkpt>
      <trkpt lat="41.751454" lon="-7.443866">
        <ele>348.437</ele>
        <time>2019-06-22T12:56:20Z</time>
      </trkpt>
      <trkpt lat="41.751228" lon="-7.444012">
        <ele>348.769</ele>
        <time>2019-06-22T12:56:21Z</time>
      </trkpt>
      <trkpt lat="41.751014" lon="-7.444138">
        <ele>348.777</ele>
        <time>2019-06-22T12:56:22Z</time>
      </trkpt>
      <trkpt lat="41.750797" lon="-7.444282">
        <ele>348.036</ele>
        <time>2019-06-22T12:56:23Z</time>
      </trkpt>
      <trkpt lat="41.750589" lon="-7.444413">
        <ele>346.811</ele>
        <time>2019-06-22T12:56:24Z</time>
      </trkpt>
      <trkpt lat="41.750380" lon="-7.444556">
        <ele>346.474</ele>
        <time>2019-06-22T12:56:25Z</time>
      </trkpt>
      <trkpt lat="41.750180" lon="-7.444675">
        <ele>346.341</ele>
        <time>2019-06-22T12:56:26Z</time>
      </trkpt>
      <trkpt lat="41.749983" lon="-7.444793">
        <ele>346.381</ele>
        <time>2019-06-22T12:56:27Z</time>
      </trkpt>
      <trkpt lat="41.749789" lon="-7.444922">
        <ele>346.909</ele>
        <time>2019-06-22T12:56:28Z</time>
      </trkpt>
      <trkpt lat="41.749595" lon="-7.445048">
        <ele>348.208</ele>
        <time>2019-06-22T12:56:29Z</time>
      </trkpt>
      <trkpt lat="41.749409" lon="-7.445176">
        <ele>348.837</ele>
        <time>2019-06-22T12:56:30Z</time>
      </trkpt>
      <trkpt lat="41.749212" lon="-7.445291">
        <ele>348.871</ele>
        <time>2019-06-22T12:56:31Z</time>
      </trkpt>
      <trkpt lat="41.749021" lon="-7.445418">
        <ele>348.723</ele>
        <time>2019-06-22T12:56:32Z</time>
      </trkpt>
      <trkpt lat="41.748825" lon="-7.445547">
        <ele>348.595</ele>
        <time>2019-06-22T12:56:33Z</time>
      </trkpt>
      <trkpt lat="41.748631" lon="-7.445676">
        <ele>348.153</ele>
        <time>2019-06-22T12:56:34Z</time>
      </trkpt>
      <trkpt lat="41.748432" lon="-7.445801">
        <ele>348.112</ele>
        <time>2019-06-22T12:56:35Z</time>
      </trkpt>
      <trkpt lat="41.748240" lon="-7.445928">
        <ele>348.157</ele>
        <time>2019-06-22T12:56:36Z</time>
      </trkpt>
      <trkpt lat="41.748052" lon="-7.446047">
        <ele>348.050</ele>
        <time>2019-06-22T12:56:37Z</time>
      </trkpt>
      <trkpt lat="41.747876" lon="-7.446159">
        <ele>347.234</ele>
        <time>2019-06-22T12:56:38Z</time>
      </trkpt>
      <trkpt lat="41.747703" lon="-7.446266">
        <ele>347.055</ele>
        <time>2019-06-22T12:56:39Z</time>
      </trkpt>
      <trkpt lat="41.747544" lon="-7.446364">
        <ele>346.910</ele>
        <time>2019-06-22T12:56:40Z</time>
      </trkpt>
      <trkpt lat="41.747409" lon="-7.446447">
        <ele>346.808</ele>
        <time>2019-06-22T12:56:41Z</time>
      </trkpt>
      <trkpt lat="41.747295" lon="-7.446521">
        <ele>346.896</ele>
        <time>2019-06-22T12:56:42Z</time>
      </trkpt>
      <trkpt lat="41.747204" lon="-7.446579">
        <ele>347.450</ele>
        <time>2019-06-22T12:56:43Z</time>
      </trkpt>
      <trkpt lat="41.747114" lon="-7.446638">
        <ele>347.862</ele>
        <time>2019-06-22T12:56:44Z</time>
      </trkpt>
      <trkpt lat="41.747024" lon="-7.446700">
        <ele>348.284</ele>
        <time>2019-06-22T12:56:45Z</time>
      </trkpt>
      <trkpt lat="41.746920" lon="-7.446767">
        <ele>348.522</ele>
        <time>2019-06-22T12:56:46Z</time>
      </trkpt>
      <trkpt lat="41.746813" lon="-7.446829">
        <ele>348.841</ele>
        <time>2019-06-22T12:56:47Z</time>
      </trkpt>
      <trkpt lat="41.746699" lon="-7.446900">
        <ele>349.256</ele>
        <time>2019-06-22T12:56:48Z</time>
      </trkpt>
      <trkpt lat="41.746577" lon="-7.446974">
        <ele>349.359</ele>
        <time>2019-06-22T12:56:49Z</time>
      </trkpt>
      <trkpt lat="41.746444" lon="-7.447054">
        <ele>349.449</ele>
        <time>2019-06-22T12:56:50Z</time>
      </trkpt>
      <trkpt lat="41.746296" lon="-7.447139">
        <ele>349.402</ele>
        <time>2019-06-22T12:56:51Z</time>
      </trkpt>
      <trkpt lat="41.746146" lon="-7.447237">
        <ele>349.422</ele>
        <time>2019-06-22T12:56:52Z</time>
      </trkpt>
      <trkpt lat="41.745992" lon="-7.447338">
        <ele>349.408</ele>
        <time>2019-06-22T12:56:53Z</time>
      </trkpt>
      <trkpt lat="41.745836" lon="-7.447437">
        <ele>349.387</ele>
        <time>2019-06-22T12:56:54Z</time>
      </trkpt>
      <trkpt lat="41.745684" lon="-7.447541">
        <ele>349.071</ele>
        <time>2019-06-22T12:56:55Z</time>
      </trkpt>
      <trkpt lat="41.745528" lon="-7.447636">
        <ele>348.813</ele>
        <time>2019-06-22T12:56:56Z</time>
      </trkpt>
      <trkpt lat="41.745371" lon="-7.447735">
        <ele>348.585</ele>
        <time>2019-06-22T12:56:57Z</time>
      </trkpt>
      <trkpt lat="41.745221" lon="-7.447829">
        <ele>348.533</ele>
        <time>2019-06-22T12:56:58Z</time>
      </trkpt>
      <trkpt lat="41.745079" lon="-7.447924">
        <ele>348.422</ele>
        <time>2019-06-22T12:56:59Z</time>
      </trkpt>
      <trkpt lat="41.744933" lon="-7.448014">
        <ele>348.457</ele>
        <time>2019-06-22T12:57:00Z</time>
      </trkpt>
      <trkpt lat="41.744787" lon="-7.448107">
        <ele>348.490</ele>
        <time>2019-06-22T12:57:01Z</time>
      </trkpt>
      <trkpt lat="41.744647" lon="-7.448198">
        <ele>348.246</ele>
        <time>2019-06-22T12:57:02Z</time>
      </trkpt>
      <trkpt lat="41.744505" lon="-7.448286">
        <ele>348.088</ele>
        <time>2019-06-22T12:57:03Z</time>
      </trkpt>
      <trkpt lat="41.744377" lon="-7.448378">
        <ele>347.916</ele>
        <time>2019-06-22T12:57:04Z</time>
      </trkpt>
      <trkpt lat="41.744235" lon="-7.448470">
        <ele>347.808</ele>
        <time>2019-06-22T12:57:05Z</time>
      </trkpt>
      <trkpt lat="41.744090" lon="-7.448563">
        <ele>347.887</ele>
        <time>2019-06-22T12:57:06Z</time>
      </trkpt>
      <trkpt lat="41.743944" lon="-7.448660">
        <ele>347.861</ele>
        <time>2019-06-22T12:57:07Z</time>
      </trkpt>
      <trkpt lat="41.743793" lon="-7.448759">
        <ele>347.893</ele>
        <time>2019-06-22T12:57:08Z</time>
      </trkpt>
      <trkpt lat="41.743641" lon="-7.448855">
        <ele>347.845</ele>
        <time>2019-06-22T12:57:09Z</time>
      </trkpt>
      <trkpt lat="41.743484" lon="-7.448964">
        <ele>347.893</ele>
        <time>2019-06-22T12:57:10Z</time>
      </trkpt>
      <trkpt lat="41.743339" lon="-7.449070">
        <ele>347.862</ele>
        <time>2019-06-22T12:57:11Z</time>
      </trkpt>
      <trkpt lat="41.743186" lon="-7.449160">
        <ele>347.677</ele>
        <time>2019-06-22T12:57:12Z</time>
      </trkpt>
      <trkpt lat="41.743047" lon="-7.449249">
        <ele>347.650</ele>
        <time>2019-06-22T12:57:13Z</time>
      </trkpt>
      <trkpt lat="41.742916" lon="-7.449324">
        <ele>347.693</ele>
        <time>2019-06-22T12:57:14Z</time>
      </trkpt>
      <trkpt lat="41.742795" lon="-7.449398">
        <ele>347.865</ele>
        <time>2019-06-22T12:57:15Z</time>
      </trkpt>
      <trkpt lat="41.742669" lon="-7.449470">
        <ele>348.121</ele>
        <time>2019-06-22T12:57:16Z</time>
      </trkpt>
      <trkpt lat="41.742554" lon="-7.449551">
        <ele>348.608</ele>
        <time>2019-06-22T12:57:17Z</time>
      </trkpt>
      <trkpt lat="41.742413" lon="-7.449642">
        <ele>348.732</ele>
        <time>2019-06-22T12:57:18Z</time>
      </trkpt>
      <trkpt lat="41.742260" lon="-7.449736">
        <ele>349.096</ele>
        <time>2019-06-22T12:57:19Z</time>
      </trkpt>
      <trkpt lat="41.742103" lon="-7.449835">
        <ele>349.098</ele>
        <time>2019-06-22T12:57:20Z</time>
      </trkpt>
      <trkpt lat="41.741947" lon="-7.449940">
        <ele>348.650</ele>
        <time>2019-06-22T12:57:21Z</time>
      </trkpt>
      <trkpt lat="41.741783" lon="-7.450037">
        <ele>348.498</ele>
        <time>2019-06-22T12:57:22Z</time>
      </trkpt>
      <trkpt lat="41.741623" lon="-7.450130">
        <ele>348.067</ele>
        <time>2019-06-22T12:57:23Z</time>
      </trkpt>
      <trkpt lat="41.741458" lon="-7.450235">
        <ele>347.482</ele>
        <time>2019-06-22T12:57:24Z</time>
      </trkpt>
      <trkpt lat="41.741298" lon="-7.450345">
        <ele>347.495</ele>
        <time>2019-06-22T12:57:25Z</time>
      </trkpt>
      <trkpt lat="41.741142" lon="-7.450452">
        <ele>347.583</ele>
        <time>2019-06-22T12:57:26Z</time>
      </trkpt>
      <trkpt lat="41.740992" lon="-7.450547">
        <ele>347.625</ele>
        <time>2019-06-22T12:57:27Z</time>
      </trkpt>
      <trkpt lat="41.740840" lon="-7.450643">
        <ele>347.717</ele>
        <time>2019-06-22T12:57:28Z</time>
      </trkpt>
      <trkpt lat="41.740694" lon="-7.450733">
        <ele>348.108</ele>
        <time>2019-06-22T12:57:29Z</time>
      </trkpt>
      <trkpt lat="41.740554" lon="-7.450821">
        <ele>348.131</ele>
        <time>2019-06-22T12:57:30Z</time>
      </trkpt>
      <trkpt lat="41.740425" lon="-7.450900">
        <ele>347.485</ele>
        <time>2019-06-22T12:57:31Z</time>
      </trkpt>
      <trkpt lat="41.740297" lon="-7.450979">
        <ele>346.547</ele>
        <time>2019-06-22T12:57:32Z</time>
      </trkpt>
      <trkpt lat="41.740177" lon="-7.451053">
        <ele>346.329</ele>
        <time>2019-06-22T12:57:33Z</time>
      </trkpt>
      <trkpt lat="41.740059" lon="-7.451130">
        <ele>345.787</ele>
        <time>2019-06-22T12:57:34Z</time>
      </trkpt>
      <trkpt lat="41.739959" lon="-7.451196">
        <ele>344.246</ele>
        <time>2019-06-22T12:57:35Z</time>
      </trkpt>
      <trkpt lat="41.739862" lon="-7.451264">
        <ele>343.291</ele>
        <time>2019-06-22T12:57:36Z</time>
      </trkpt>
      <trkpt lat="41.739758" lon="-7.451321">
        <ele>342.784</ele>
        <time>2019-06-22T12:57:37Z</time>
      </trkpt>
      <trkpt lat="41.739657" lon="-7.451382">
        <ele>341.499</ele>
        <time>2019-06-22T12:57:38Z</time>
      </trkpt>
      <trkpt lat="41.739577" lon="-7.451442">
        <ele>341.407</ele>
        <time>2019-06-22T12:57:39Z</time>
      </trkpt>
      <trkpt lat="41.739480" lon="-7.451502">
        <ele>341.627</ele>
        <time>2019-06-22T12:57:40Z</time>
      </trkpt>
      <trkpt lat="41.739418" lon="-7.451536">
        <ele>343.008</ele>
        <time>2019-06-22T12:57:41Z</time>
      </trkpt>
      <trkpt lat="41.739340" lon="-7.451588">
        <ele>344.722</ele>
        <time>2019-06-22T12:57:42Z</time>
      </trkpt>
      <trkpt lat="41.739270" lon="-7.451635">
        <ele>346.436</ele>
        <time>2019-06-22T12:57:43Z</time>
      </trkpt>
      <trkpt lat="41.739200" lon="-7.451675">
        <ele>347.468</ele>
        <time>2019-06-22T12:57:44Z</time>
      </trkpt>
      <trkpt lat="41.739149" lon="-7.451706">
        <ele>348.260</ele>
        <time>2019-06-22T12:57:45Z</time>
      </trkpt>
      <trkpt lat="41.739111" lon="-7.451738">
        <ele>348.648</ele>
        <time>2019-06-22T12:57:46Z</time>
      </trkpt>
      <trkpt lat="41.739049" lon="-7.451763">
        <ele>348.787</ele>
        <time>2019-06-22T12:57:48Z</time>
      </trkpt>
      <trkpt lat="41.738992" lon="-7.451815">
        <ele>349.172</ele>
        <time>2019-06-22T12:57:54Z</time>
      </trkpt>
      <trkpt lat="41.738930" lon="-7.451867">
        <ele>349.245</ele>
        <time>2019-06-22T12:57:56Z</time>
      </trkpt>
      <trkpt lat="41.738863" lon="-7.451911">
        <ele>349.117</ele>
        <time>2019-06-22T12:57:58Z</time>
      </trkpt>
      <trkpt lat="41.738808" lon="-7.451930">
        <ele>349.087</ele>
        <time>2019-06-22T12:57:59Z</time>
      </trkpt>
      <trkpt lat="41.738743" lon="-7.451976">
        <ele>348.915</ele>
        <time>2019-06-22T12:58:00Z</time>
      </trkpt>
      <trkpt lat="41.738670" lon="-7.452028">
        <ele>348.708</ele>
        <time>2019-06-22T12:58:01Z</time>
      </trkpt>
      <trkpt lat="41.738585" lon="-7.452078">
        <ele>348.644</ele>
        <time>2019-06-22T12:58:02Z</time>
      </trkpt>
      <trkpt lat="41.738494" lon="-7.452134">
        <ele>348.648</ele>
        <time>2019-06-22T12:58:03Z</time>
      </trkpt>
      <trkpt lat="41.738395" lon="-7.452195">
        <ele>348.820</ele>
        <time>2019-06-22T12:58:04Z</time>
      </trkpt>
      <trkpt lat="41.738287" lon="-7.452261">
        <ele>348.962</ele>
        <time>2019-06-22T12:58:05Z</time>
      </trkpt>
      <trkpt lat="41.738178" lon="-7.452327">
        <ele>349.070</ele>
        <time>2019-06-22T12:58:06Z</time>
      </trkpt>
      <trkpt lat="41.738071" lon="-7.452393">
        <ele>349.059</ele>
        <time>2019-06-22T12:58:07Z</time>
      </trkpt>
      <trkpt lat="41.737962" lon="-7.452464">
        <ele>348.644</ele>
        <time>2019-06-22T12:58:08Z</time>
      </trkpt>
      <trkpt lat="41.737866" lon="-7.452525">
        <ele>348.527</ele>
        <time>2019-06-22T12:58:09Z</time>
      </trkpt>
      <trkpt lat="41.737771" lon="-7.452577">
        <ele>348.527</ele>
        <time>2019-06-22T12:58:10Z</time>
      </trkpt>
      <trkpt lat="41.737679" lon="-7.452632">
        <ele>348.468</ele>
        <time>2019-06-22T12:58:11Z</time>
      </trkpt>
      <trkpt lat="41.737590" lon="-7.452687">
        <ele>348.414</ele>
        <time>2019-06-22T12:58:12Z</time>
      </trkpt>
      <trkpt lat="41.737511" lon="-7.452741">
        <ele>348.408</ele>
        <time>2019-06-22T12:58:13Z</time>
      </trkpt>
      <trkpt lat="41.737425" lon="-7.452794">
        <ele>349.195</ele>
        <time>2019-06-22T12:58:14Z</time>
      </trkpt>
      <trkpt lat="41.737352" lon="-7.452834">
        <ele>349.259</ele>
        <time>2019-06-22T12:58:15Z</time>
      </trkpt>
      <trkpt lat="41.737280" lon="-7.452880">
        <ele>349.311</ele>
        <time>2019-06-22T12:58:16Z</time>
      </trkpt>
      <trkpt lat="41.737225" lon="-7.452920">
        <ele>349.373</ele>
        <time>2019-06-22T12:58:17Z</time>
      </trkpt>
      <trkpt lat="41.737187" lon="-7.452954">
        <ele>349.391</ele>
        <time>2019-06-22T12:58:18Z</time>
      </trkpt>
      <trkpt lat="41.737120" lon="-7.452977">
        <ele>349.330</ele>
        <time>2019-06-22T12:58:20Z</time>
      </trkpt>
      <trkpt lat="41.737065" lon="-7.453026">
        <ele>349.585</ele>
        <time>2019-06-22T12:58:22Z</time>
      </trkpt>
      <trkpt lat="41.737007" lon="-7.452993">
        <ele>349.658</ele>
        <time>2019-06-22T12:58:24Z</time>
      </trkpt>
      <trkpt lat="41.736978" lon="-7.452900">
        <ele>349.477</ele>
        <time>2019-06-22T12:58:26Z</time>
      </trkpt>
      <trkpt lat="41.736999" lon="-7.452809">
        <ele>349.361</ele>
        <time>2019-06-22T12:58:28Z</time>
      </trkpt>
      <trkpt lat="41.737040" lon="-7.452733">
        <ele>349.327</ele>
        <time>2019-06-22T12:58:30Z</time>
      </trkpt>
      <trkpt lat="41.737080" lon="-7.452704">
        <ele>349.508</ele>
        <time>2019-06-22T12:58:32Z</time>
      </trkpt>
      <trkpt lat="41.737134" lon="-7.452666">
        <ele>349.830</ele>
        <time>2019-06-22T12:58:36Z</time>
      </trkpt>
      <trkpt lat="41.737103" lon="-7.452615">
        <ele>350.224</ele>
        <time>2019-06-22T12:58:49Z</time>
      </trkpt>
      <trkpt lat="41.737130" lon="-7.452559">
        <ele>349.996</ele>
        <time>2019-06-22T12:59:15Z</time>
      </trkpt>
      <trkpt lat="41.737173" lon="-7.452523">
        <ele>350.128</ele>
        <time>2019-06-22T12:59:20Z</time>
      </trkpt>
      <trkpt lat="41.737171" lon="-7.452584">
        <ele>350.166</ele>
        <time>2019-06-22T12:59:32Z</time>
      </trkpt>
      <trkpt lat="41.737152" lon="-7.452642">
        <ele>350.285</ele>
        <time>2019-06-22T12:59:45Z</time>
      </trkpt>
      <trkpt lat="41.737199" lon="-7.452612">
        <ele>350.290</ele>
        <time>2019-06-22T13:01:22Z</time>
      </trkpt>
      <trkpt lat="41.737243" lon="-7.452582">
        <ele>350.553</ele>
        <time>2019-06-22T13:01:30Z</time>
      </trkpt>
      <trkpt lat="41.737271" lon="-7.452629">
        <ele>350.729</ele>
        <time>2019-06-22T13:02:06Z</time>
      </trkpt>
      <trkpt lat="41.737215" lon="-7.452635">
        <ele>350.700</ele>
        <time>2019-06-22T13:02:20Z</time>
      </trkpt>
      <trkpt lat="41.737171" lon="-7.452651">
        <ele>350.620</ele>
        <time>2019-06-22T13:02:24Z</time>
      </trkpt>
      <trkpt lat="41.737124" lon="-7.452675">
        <ele>350.608</ele>
        <time>2019-06-22T13:02:29Z</time>
      </trkpt>
      <trkpt lat="41.737063" lon="-7.452660">
        <ele>350.635</ele>
        <time>2019-06-22T13:02:41Z</time>
      </trkpt>
      <trkpt lat="41.737090" lon="-7.452593">
        <ele>350.739</ele>
        <time>2019-06-22T13:03:16Z</time>
      </trkpt>
      <trkpt lat="41.737141" lon="-7.452581">
        <ele>350.611</ele>
        <time>2019-06-22T13:03:18Z</time>
      </trkpt>
      <trkpt lat="41.737181" lon="-7.452617">
        <ele>351.253</ele>
        <time>2019-06-22T13:04:52Z</time>
      </trkpt>
      <trkpt lat="41.737188" lon="-7.452542">
        <ele>351.211</ele>
        <time>2019-06-22T13:08:24Z</time>
      </trkpt>
      <trkpt lat="41.737214" lon="-7.452484">
        <ele>351.270</ele>
        <time>2019-06-22T13:08:29Z</time>
      </trkpt>
      <trkpt lat="41.737258" lon="-7.452464">
        <ele>351.065</ele>
        <time>2019-06-22T13:08:36Z</time>
      </trkpt>
      <trkpt lat="41.737257" lon="-7.452528">
        <ele>351.058</ele>
        <time>2019-06-22T13:08:58Z</time>
      </trkpt>
      <trkpt lat="41.737297" lon="-7.452590">
        <ele>351.141</ele>
        <time>2019-06-22T13:09:13Z</time>
      </trkpt>
      <trkpt lat="41.737226" lon="-7.452608">
        <ele>351.181</ele>
        <time>2019-06-22T13:09:16Z</time>
      </trkpt>
      <trkpt lat="41.737185" lon="-7.452634">
        <ele>351.209</ele>
        <time>2019-06-22T13:09:26Z</time>
      </trkpt>
      <trkpt lat="41.737178" lon="-7.452570">
        <ele>351.508</ele>
        <time>2019-06-22T13:09:41Z</time>
      </trkpt>
      <trkpt lat="41.737148" lon="-7.452506">
        <ele>351.557</ele>
        <time>2019-06-22T13:09:49Z</time>
      </trkpt>
      <trkpt lat="41.737182" lon="-7.452567">
        <ele>351.341</ele>
        <time>2019-06-22T13:10:00Z</time>
      </trkpt>
      <trkpt lat="41.737226" lon="-7.452608">
        <ele>351.513</ele>
        <time>2019-06-22T13:10:13Z</time>
      </trkpt>
      <trkpt lat="41.737247" lon="-7.452525">
        <ele>352.475</ele>
        <time>2019-06-22T13:19:31Z</time>
      </trkpt>
      <trkpt lat="41.737202" lon="-7.452503">
        <ele>352.813</ele>
        <time>2019-06-22T13:19:39Z</time>
      </trkpt>
      <trkpt lat="41.737131" lon="-7.452508">
        <ele>352.642</ele>
        <time>2019-06-22T13:19:59Z</time>
      </trkpt>
      <trkpt lat="41.737166" lon="-7.452568">
        <ele>352.627</ele>
        <time>2019-06-22T13:24:15Z</time>
      </trkpt>
      <trkpt lat="41.737167" lon="-7.452632">
        <ele>352.870</ele>
        <time>2019-06-22T13:24:26Z</time>
      </trkpt>
      <trkpt lat="41.737199" lon="-7.452687">
        <ele>352.987</ele>
        <time>2019-06-22T13:24:47Z</time>
      </trkpt>
      <trkpt lat="41.737191" lon="-7.452614">
        <ele>352.742</ele>
        <time>2019-06-22T13:25:07Z</time>
      </trkpt>
      <trkpt lat="41.737160" lon="-7.452517">
        <ele>352.726</ele>
        <time>2019-06-22T13:25:11Z</time>
      </trkpt>
      <trkpt lat="41.737121" lon="-7.452478">
        <ele>352.808</ele>
        <time>2019-06-22T13:25:20Z</time>
      </trkpt>
      <trkpt lat="41.737076" lon="-7.452485">
        <ele>352.921</ele>
        <time>2019-06-22T13:25:34Z</time>
      </trkpt>
      <trkpt lat="41.737143" lon="-7.452512">
        <ele>353.035</ele>
        <time>2019-06-22T13:25:58Z</time>
      </trkpt>
      <trkpt lat="41.737180" lon="-7.452560">
        <ele>353.137</ele>
        <time>2019-06-22T13:27:16Z</time>
      </trkpt>
      <trkpt lat="41.737185" lon="-7.452650">
        <ele>353.229</ele>
        <time>2019-06-22T13:28:26Z</time>
      </trkpt>
      <trkpt lat="41.737226" lon="-7.452684">
        <ele>353.137</ele>
        <time>2019-06-22T13:29:20Z</time>
      </trkpt>
      <trkpt lat="41.737274" lon="-7.452732">
        <ele>353.166</ele>
        <time>2019-06-22T13:29:22Z</time>
      </trkpt>
      <trkpt lat="41.737311" lon="-7.452773">
        <ele>353.181</ele>
        <time>2019-06-22T13:29:24Z</time>
      </trkpt>
      <trkpt lat="41.737288" lon="-7.452883">
        <ele>353.074</ele>
        <time>2019-06-22T13:29:27Z</time>
      </trkpt>
      <trkpt lat="41.737241" lon="-7.452941">
        <ele>353.055</ele>
        <time>2019-06-22T13:29:28Z</time>
      </trkpt>
      <trkpt lat="41.737165" lon="-7.452999">
        <ele>353.007</ele>
        <time>2019-06-22T13:29:29Z</time>
      </trkpt>
      <trkpt lat="41.737069" lon="-7.453054">
        <ele>353.017</ele>
        <time>2019-06-22T13:29:30Z</time>
      </trkpt>
      <trkpt lat="41.736961" lon="-7.453111">
        <ele>353.008</ele>
        <time>2019-06-22T13:29:31Z</time>
      </trkpt>
      <trkpt lat="41.736846" lon="-7.453172">
        <ele>353.038</ele>
        <time>2019-06-22T13:29:32Z</time>
      </trkpt>
      <trkpt lat="41.736686" lon="-7.453227">
        <ele>353.032</ele>
        <time>2019-06-22T13:29:33Z</time>
      </trkpt>
      <trkpt lat="41.736565" lon="-7.453303">
        <ele>352.984</ele>
        <time>2019-06-22T13:29:34Z</time>
      </trkpt>
      <trkpt lat="41.736438" lon="-7.453377">
        <ele>352.626</ele>
        <time>2019-06-22T13:29:35Z</time>
      </trkpt>
      <trkpt lat="41.736307" lon="-7.453457">
        <ele>352.684</ele>
        <time>2019-06-22T13:29:36Z</time>
      </trkpt>
      <trkpt lat="41.736176" lon="-7.453543">
        <ele>352.613</ele>
        <time>2019-06-22T13:29:37Z</time>
      </trkpt>
      <trkpt lat="41.736039" lon="-7.453639">
        <ele>352.568</ele>
        <time>2019-06-22T13:29:38Z</time>
      </trkpt>
      <trkpt lat="41.735894" lon="-7.453735">
        <ele>352.551</ele>
        <time>2019-06-22T13:29:39Z</time>
      </trkpt>
      <trkpt lat="41.735745" lon="-7.453832">
        <ele>352.587</ele>
        <time>2019-06-22T13:29:40Z</time>
      </trkpt>
      <trkpt lat="41.735595" lon="-7.453917">
        <ele>352.642</ele>
        <time>2019-06-22T13:29:41Z</time>
      </trkpt>
      <trkpt lat="41.735452" lon="-7.454012">
        <ele>352.626</ele>
        <time>2019-06-22T13:29:42Z</time>
      </trkpt>
      <trkpt lat="41.735316" lon="-7.454101">
        <ele>352.508</ele>
        <time>2019-06-22T13:29:43Z</time>
      </trkpt>
      <trkpt lat="41.735190" lon="-7.454185">
        <ele>352.391</ele>
        <time>2019-06-22T13:29:44Z</time>
      </trkpt>
      <trkpt lat="41.735066" lon="-7.454261">
        <ele>352.275</ele>
        <time>2019-06-22T13:29:45Z</time>
      </trkpt>
      <trkpt lat="41.734950" lon="-7.454333">
        <ele>352.237</ele>
        <time>2019-06-22T13:29:46Z</time>
      </trkpt>
      <trkpt lat="41.734831" lon="-7.454414">
        <ele>352.279</ele>
        <time>2019-06-22T13:29:47Z</time>
      </trkpt>
      <trkpt lat="41.734708" lon="-7.454506">
        <ele>352.317</ele>
        <time>2019-06-22T13:29:48Z</time>
      </trkpt>
      <trkpt lat="41.734598" lon="-7.454592">
        <ele>352.376</ele>
        <time>2019-06-22T13:29:49Z</time>
      </trkpt>
      <trkpt lat="41.734489" lon="-7.454690">
        <ele>352.261</ele>
        <time>2019-06-22T13:29:50Z</time>
      </trkpt>
      <trkpt lat="41.734379" lon="-7.454788">
        <ele>352.234</ele>
        <time>2019-06-22T13:29:51Z</time>
      </trkpt>
      <trkpt lat="41.734264" lon="-7.454895">
        <ele>352.268</ele>
        <time>2019-06-22T13:29:52Z</time>
      </trkpt>
      <trkpt lat="41.734155" lon="-7.455020">
        <ele>351.842</ele>
        <time>2019-06-22T13:29:53Z</time>
      </trkpt>
      <trkpt lat="41.734058" lon="-7.455155">
        <ele>351.826</ele>
        <time>2019-06-22T13:29:54Z</time>
      </trkpt>
      <trkpt lat="41.733961" lon="-7.455298">
        <ele>351.808</ele>
        <time>2019-06-22T13:29:55Z</time>
      </trkpt>
      <trkpt lat="41.733870" lon="-7.455453">
        <ele>351.739</ele>
        <time>2019-06-22T13:29:56Z</time>
      </trkpt>
      <trkpt lat="41.733794" lon="-7.455608">
        <ele>351.713</ele>
        <time>2019-06-22T13:29:57Z</time>
      </trkpt>
      <trkpt lat="41.733727" lon="-7.455786">
        <ele>351.875</ele>
        <time>2019-06-22T13:29:58Z</time>
      </trkpt>
      <trkpt lat="41.733683" lon="-7.455959">
        <ele>352.037</ele>
        <time>2019-06-22T13:29:59Z</time>
      </trkpt>
      <trkpt lat="41.733639" lon="-7.456138">
        <ele>352.145</ele>
        <time>2019-06-22T13:30:00Z</time>
      </trkpt>
      <trkpt lat="41.733600" lon="-7.456323">
        <ele>352.344</ele>
        <time>2019-06-22T13:30:01Z</time>
      </trkpt>
      <trkpt lat="41.733574" lon="-7.456506">
        <ele>352.819</ele>
        <time>2019-06-22T13:30:02Z</time>
      </trkpt>
      <trkpt lat="41.733562" lon="-7.456703">
        <ele>352.822</ele>
        <time>2019-06-22T13:30:03Z</time>
      </trkpt>
      <trkpt lat="41.733560" lon="-7.456893">
        <ele>352.851</ele>
        <time>2019-06-22T13:30:04Z</time>
      </trkpt>
      <trkpt lat="41.733571" lon="-7.457075">
        <ele>352.601</ele>
        <time>2019-06-22T13:30:05Z</time>
      </trkpt>
      <trkpt lat="41.733584" lon="-7.457242">
        <ele>352.311</ele>
        <time>2019-06-22T13:30:06Z</time>
      </trkpt>
      <trkpt lat="41.733611" lon="-7.457410">
        <ele>352.008</ele>
        <time>2019-06-22T13:30:07Z</time>
      </trkpt>
      <trkpt lat="41.733644" lon="-7.457587">
        <ele>352.068</ele>
        <time>2019-06-22T13:30:08Z</time>
      </trkpt>
      <trkpt lat="41.733687" lon="-7.457778">
        <ele>352.142</ele>
        <time>2019-06-22T13:30:09Z</time>
      </trkpt>
      <trkpt lat="41.733735" lon="-7.457975">
        <ele>352.224</ele>
        <time>2019-06-22T13:30:10Z</time>
      </trkpt>
      <trkpt lat="41.733784" lon="-7.458179">
        <ele>352.516</ele>
        <time>2019-06-22T13:30:11Z</time>
      </trkpt>
      <trkpt lat="41.733841" lon="-7.458405">
        <ele>352.594</ele>
        <time>2019-06-22T13:30:12Z</time>
      </trkpt>
      <trkpt lat="41.733899" lon="-7.458634">
        <ele>352.173</ele>
        <time>2019-06-22T13:30:13Z</time>
      </trkpt>
      <trkpt lat="41.733966" lon="-7.458846">
        <ele>351.698</ele>
        <time>2019-06-22T13:30:14Z</time>
      </trkpt>
      <trkpt lat="41.734031" lon="-7.459060">
        <ele>351.521</ele>
        <time>2019-06-22T13:30:15Z</time>
      </trkpt>
      <trkpt lat="41.734087" lon="-7.459256">
        <ele>351.462</ele>
        <time>2019-06-22T13:30:16Z</time>
      </trkpt>
      <trkpt lat="41.734144" lon="-7.459466">
        <ele>351.483</ele>
        <time>2019-06-22T13:30:17Z</time>
      </trkpt>
      <trkpt lat="41.734199" lon="-7.459669">
        <ele>351.911</ele>
        <time>2019-06-22T13:30:18Z</time>
      </trkpt>
      <trkpt lat="41.734255" lon="-7.459852">
        <ele>352.408</ele>
        <time>2019-06-22T13:30:19Z</time>
      </trkpt>
      <trkpt lat="41.734294" lon="-7.460052">
        <ele>352.459</ele>
        <time>2019-06-22T13:30:20Z</time>
      </trkpt>
      <trkpt lat="41.734343" lon="-7.460239">
        <ele>352.483</ele>
        <time>2019-06-22T13:30:21Z</time>
      </trkpt>
      <trkpt lat="41.734387" lon="-7.460420">
        <ele>352.295</ele>
        <time>2019-06-22T13:30:22Z</time>
      </trkpt>
      <trkpt lat="41.734432" lon="-7.460591">
        <ele>351.727</ele>
        <time>2019-06-22T13:30:23Z</time>
      </trkpt>
      <trkpt lat="41.734475" lon="-7.460731">
        <ele>351.495</ele>
        <time>2019-06-22T13:30:24Z</time>
      </trkpt>
      <trkpt lat="41.734524" lon="-7.460889">
        <ele>351.214</ele>
        <time>2019-06-22T13:30:25Z</time>
      </trkpt>
      <trkpt lat="41.734572" lon="-7.461044">
        <ele>351.019</ele>
        <time>2019-06-22T13:30:26Z</time>
      </trkpt>
      <trkpt lat="41.734617" lon="-7.461181">
        <ele>350.932</ele>
        <time>2019-06-22T13:30:27Z</time>
      </trkpt>
      <trkpt lat="41.734671" lon="-7.461319">
        <ele>350.861</ele>
        <time>2019-06-22T13:30:28Z</time>
      </trkpt>
      <trkpt lat="41.734735" lon="-7.461458">
        <ele>350.821</ele>
        <time>2019-06-22T13:30:29Z</time>
      </trkpt>
      <trkpt lat="41.734808" lon="-7.461588">
        <ele>350.813</ele>
        <time>2019-06-22T13:30:30Z</time>
      </trkpt>
      <trkpt lat="41.734882" lon="-7.461720">
        <ele>351.008</ele>
        <time>2019-06-22T13:30:31Z</time>
      </trkpt>
      <trkpt lat="41.734954" lon="-7.461841">
        <ele>351.079</ele>
        <time>2019-06-22T13:30:32Z</time>
      </trkpt>
      <trkpt lat="41.735024" lon="-7.461951">
        <ele>351.113</ele>
        <time>2019-06-22T13:30:33Z</time>
      </trkpt>
      <trkpt lat="41.735085" lon="-7.462044">
        <ele>351.185</ele>
        <time>2019-06-22T13:30:34Z</time>
      </trkpt>
      <trkpt lat="41.735139" lon="-7.462124">
        <ele>350.917</ele>
        <time>2019-06-22T13:30:35Z</time>
      </trkpt>
      <trkpt lat="41.735187" lon="-7.462187">
        <ele>350.945</ele>
        <time>2019-06-22T13:30:36Z</time>
      </trkpt>
      <trkpt lat="41.735220" lon="-7.462244">
        <ele>351.244</ele>
        <time>2019-06-22T13:30:37Z</time>
      </trkpt>
      <trkpt lat="41.735260" lon="-7.462296">
        <ele>351.849</ele>
        <time>2019-06-22T13:30:39Z</time>
      </trkpt>
      <trkpt lat="41.735300" lon="-7.462322">
        <ele>352.442</ele>
        <time>2019-06-22T13:30:50Z</time>
      </trkpt>
      <trkpt lat="41.735360" lon="-7.462416">
        <ele>352.489</ele>
        <time>2019-06-22T13:31:48Z</time>
      </trkpt>
      <trkpt lat="41.735410" lon="-7.462478">
        <ele>352.406</ele>
        <time>2019-06-22T13:31:49Z</time>
      </trkpt>
      <trkpt lat="41.735466" lon="-7.462576">
        <ele>352.426</ele>
        <time>2019-06-22T13:31:50Z</time>
      </trkpt>
      <trkpt lat="41.735527" lon="-7.462675">
        <ele>352.408</ele>
        <time>2019-06-22T13:31:51Z</time>
      </trkpt>
      <trkpt lat="41.735589" lon="-7.462792">
        <ele>352.151</ele>
        <time>2019-06-22T13:31:52Z</time>
      </trkpt>
      <trkpt lat="41.735648" lon="-7.462883">
        <ele>351.765</ele>
        <time>2019-06-22T13:31:53Z</time>
      </trkpt>
      <trkpt lat="41.735708" lon="-7.462992">
        <ele>351.577</ele>
        <time>2019-06-22T13:31:54Z</time>
      </trkpt>
      <trkpt lat="41.735759" lon="-7.463082">
        <ele>351.579</ele>
        <time>2019-06-22T13:31:55Z</time>
      </trkpt>
      <trkpt lat="41.735811" lon="-7.463162">
        <ele>351.517</ele>
        <time>2019-06-22T13:31:56Z</time>
      </trkpt>
      <trkpt lat="41.735868" lon="-7.463230">
        <ele>351.536</ele>
        <time>2019-06-22T13:31:57Z</time>
      </trkpt>
      <trkpt lat="41.735927" lon="-7.463322">
        <ele>351.881</ele>
        <time>2019-06-22T13:31:58Z</time>
      </trkpt>
      <trkpt lat="41.735977" lon="-7.463425">
        <ele>351.914</ele>
        <time>2019-06-22T13:31:59Z</time>
      </trkpt>
      <trkpt lat="41.736035" lon="-7.463517">
        <ele>351.999</ele>
        <time>2019-06-22T13:32:00Z</time>
      </trkpt>
      <trkpt lat="41.736077" lon="-7.463602">
        <ele>351.907</ele>
        <time>2019-06-22T13:32:01Z</time>
      </trkpt>
      <trkpt lat="41.736118" lon="-7.463688">
        <ele>351.927</ele>
        <time>2019-06-22T13:32:02Z</time>
      </trkpt>
      <trkpt lat="41.736176" lon="-7.463766">
        <ele>352.008</ele>
        <time>2019-06-22T13:32:03Z</time>
      </trkpt>
      <trkpt lat="41.736228" lon="-7.463839">
        <ele>352.092</ele>
        <time>2019-06-22T13:32:04Z</time>
      </trkpt>
      <trkpt lat="41.736285" lon="-7.463917">
        <ele>352.076</ele>
        <time>2019-06-22T13:32:05Z</time>
      </trkpt>
      <trkpt lat="41.736339" lon="-7.463992">
        <ele>351.838</ele>
        <time>2019-06-22T13:32:06Z</time>
      </trkpt>
      <trkpt lat="41.736393" lon="-7.464068">
        <ele>351.710</ele>
        <time>2019-06-22T13:32:07Z</time>
      </trkpt>
      <trkpt lat="41.736426" lon="-7.464158">
        <ele>351.548</ele>
        <time>2019-06-22T13:32:08Z</time>
      </trkpt>
      <trkpt lat="41.736463" lon="-7.464247">
        <ele>351.517</ele>
        <time>2019-06-22T13:32:09Z</time>
      </trkpt>
      <trkpt lat="41.736507" lon="-7.464323">
        <ele>351.552</ele>
        <time>2019-06-22T13:32:10Z</time>
      </trkpt>
      <trkpt lat="41.736553" lon="-7.464410">
        <ele>351.515</ele>
        <time>2019-06-22T13:32:11Z</time>
      </trkpt>
      <trkpt lat="41.736589" lon="-7.464477">
        <ele>351.545</ele>
        <time>2019-06-22T13:32:12Z</time>
      </trkpt>
      <trkpt lat="41.736628" lon="-7.464543">
        <ele>351.647</ele>
        <time>2019-06-22T13:32:13Z</time>
      </trkpt>
      <trkpt lat="41.736675" lon="-7.464610">
        <ele>351.611</ele>
        <time>2019-06-22T13:32:14Z</time>
      </trkpt>
      <trkpt lat="41.736693" lon="-7.464674">
        <ele>351.608</ele>
        <time>2019-06-22T13:32:15Z</time>
      </trkpt>
      <trkpt lat="41.736723" lon="-7.464732">
        <ele>351.677</ele>
        <time>2019-06-22T13:32:16Z</time>
      </trkpt>
      <trkpt lat="41.736746" lon="-7.464794">
        <ele>351.581</ele>
        <time>2019-06-22T13:32:17Z</time>
      </trkpt>
      <trkpt lat="41.736765" lon="-7.464857">
        <ele>351.523</ele>
        <time>2019-06-22T13:32:18Z</time>
      </trkpt>
      <trkpt lat="41.736768" lon="-7.464918">
        <ele>351.665</ele>
        <time>2019-06-22T13:32:19Z</time>
      </trkpt>
      <trkpt lat="41.736752" lon="-7.464984">
        <ele>351.643</ele>
        <time>2019-06-22T13:32:20Z</time>
      </trkpt>
      <trkpt lat="41.736714" lon="-7.465027">
        <ele>351.642</ele>
        <time>2019-06-22T13:32:21Z</time>
      </trkpt>
      <trkpt lat="41.736664" lon="-7.465078">
        <ele>351.617</ele>
        <time>2019-06-22T13:32:22Z</time>
      </trkpt>
      <trkpt lat="41.736601" lon="-7.465106">
        <ele>351.550</ele>
        <time>2019-06-22T13:32:23Z</time>
      </trkpt>
      <trkpt lat="41.736527" lon="-7.465142">
        <ele>351.435</ele>
        <time>2019-06-22T13:32:24Z</time>
      </trkpt>
      <trkpt lat="41.736457" lon="-7.465190">
        <ele>351.386</ele>
        <time>2019-06-22T13:32:25Z</time>
      </trkpt>
      <trkpt lat="41.736389" lon="-7.465240">
        <ele>351.214</ele>
        <time>2019-06-22T13:32:26Z</time>
      </trkpt>
      <trkpt lat="41.736324" lon="-7.465279">
        <ele>351.108</ele>
        <time>2019-06-22T13:32:27Z</time>
      </trkpt>
      <trkpt lat="41.736264" lon="-7.465320">
        <ele>351.146</ele>
        <time>2019-06-22T13:32:28Z</time>
      </trkpt>
      <trkpt lat="41.736207" lon="-7.465365">
        <ele>351.240</ele>
        <time>2019-06-22T13:32:29Z</time>
      </trkpt>
      <trkpt lat="41.736143" lon="-7.465410">
        <ele>351.232</ele>
        <time>2019-06-22T13:32:30Z</time>
      </trkpt>
      <trkpt lat="41.736082" lon="-7.465452">
        <ele>351.414</ele>
        <time>2019-06-22T13:32:31Z</time>
      </trkpt>
      <trkpt lat="41.736014" lon="-7.465507">
        <ele>351.632</ele>
        <time>2019-06-22T13:32:32Z</time>
      </trkpt>
      <trkpt lat="41.735941" lon="-7.465558">
        <ele>351.661</ele>
        <time>2019-06-22T13:32:33Z</time>
      </trkpt>
      <trkpt lat="41.735861" lon="-7.465609">
        <ele>351.656</ele>
        <time>2019-06-22T13:32:34Z</time>
      </trkpt>
      <trkpt lat="41.735784" lon="-7.465661">
        <ele>351.549</ele>
        <time>2019-06-22T13:32:35Z</time>
      </trkpt>
      <trkpt lat="41.735710" lon="-7.465709">
        <ele>351.287</ele>
        <time>2019-06-22T13:32:36Z</time>
      </trkpt>
      <trkpt lat="41.735645" lon="-7.465744">
        <ele>351.242</ele>
        <time>2019-06-22T13:32:37Z</time>
      </trkpt>
      <trkpt lat="41.735572" lon="-7.465795">
        <ele>351.326</ele>
        <time>2019-06-22T13:32:38Z</time>
      </trkpt>
      <trkpt lat="41.735502" lon="-7.465849">
        <ele>351.308</ele>
        <time>2019-06-22T13:32:39Z</time>
      </trkpt>
      <trkpt lat="41.735419" lon="-7.465907">
        <ele>351.341</ele>
        <time>2019-06-22T13:32:40Z</time>
      </trkpt>
      <trkpt lat="41.735337" lon="-7.465962">
        <ele>351.485</ele>
        <time>2019-06-22T13:32:41Z</time>
      </trkpt>
      <trkpt lat="41.735259" lon="-7.466022">
        <ele>351.467</ele>
        <time>2019-06-22T13:32:42Z</time>
      </trkpt>
      <trkpt lat="41.735170" lon="-7.466053">
        <ele>351.499</ele>
        <time>2019-06-22T13:32:43Z</time>
      </trkpt>
      <trkpt lat="41.735097" lon="-7.466108">
        <ele>351.457</ele>
        <time>2019-06-22T13:32:44Z</time>
      </trkpt>
      <trkpt lat="41.735022" lon="-7.466155">
        <ele>351.476</ele>
        <time>2019-06-22T13:32:45Z</time>
      </trkpt>
      <trkpt lat="41.734949" lon="-7.466217">
        <ele>351.481</ele>
        <time>2019-06-22T13:32:46Z</time>
      </trkpt>
      <trkpt lat="41.734883" lon="-7.466276">
        <ele>351.484</ele>
        <time>2019-06-22T13:32:47Z</time>
      </trkpt>
      <trkpt lat="41.734809" lon="-7.466325">
        <ele>351.416</ele>
        <time>2019-06-22T13:32:48Z</time>
      </trkpt>
      <trkpt lat="41.734738" lon="-7.466372">
        <ele>351.476</ele>
        <time>2019-06-22T13:32:49Z</time>
      </trkpt>
      <trkpt lat="41.734662" lon="-7.466438">
        <ele>351.413</ele>
        <time>2019-06-22T13:32:50Z</time>
      </trkpt>
      <trkpt lat="41.734576" lon="-7.466496">
        <ele>351.308</ele>
        <time>2019-06-22T13:32:51Z</time>
      </trkpt>
      <trkpt lat="41.734483" lon="-7.466537">
        <ele>351.374</ele>
        <time>2019-06-22T13:32:52Z</time>
      </trkpt>
      <trkpt lat="41.734408" lon="-7.466601">
        <ele>351.378</ele>
        <time>2019-06-22T13:32:53Z</time>
      </trkpt>
      <trkpt lat="41.734317" lon="-7.466662">
        <ele>351.360</ele>
        <time>2019-06-22T13:32:54Z</time>
      </trkpt>
      <trkpt lat="41.734233" lon="-7.466734">
        <ele>351.452</ele>
        <time>2019-06-22T13:32:55Z</time>
      </trkpt>
      <trkpt lat="41.734144" lon="-7.466796">
        <ele>351.590</ele>
        <time>2019-06-22T13:32:56Z</time>
      </trkpt>
      <trkpt lat="41.734069" lon="-7.466858">
        <ele>351.589</ele>
        <time>2019-06-22T13:32:57Z</time>
      </trkpt>
      <trkpt lat="41.733994" lon="-7.466914">
        <ele>351.594</ele>
        <time>2019-06-22T13:32:58Z</time>
      </trkpt>
      <trkpt lat="41.733928" lon="-7.466976">
        <ele>351.327</ele>
        <time>2019-06-22T13:32:59Z</time>
      </trkpt>
      <trkpt lat="41.733864" lon="-7.467031">
        <ele>351.139</ele>
        <time>2019-06-22T13:33:00Z</time>
      </trkpt>
      <trkpt lat="41.733792" lon="-7.467078">
        <ele>351.001</ele>
        <time>2019-06-22T13:33:01Z</time>
      </trkpt>
      <trkpt lat="41.733745" lon="-7.467118">
        <ele>351.021</ele>
        <time>2019-06-22T13:33:02Z</time>
      </trkpt>
      <trkpt lat="41.733704" lon="-7.467148">
        <ele>351.108</ele>
        <time>2019-06-22T13:33:03Z</time>
      </trkpt>
      <trkpt lat="41.733640" lon="-7.467203">
        <ele>351.016</ele>
        <time>2019-06-22T13:33:05Z</time>
      </trkpt>
      <trkpt lat="41.733585" lon="-7.467248">
        <ele>351.080</ele>
        <time>2019-06-22T13:33:07Z</time>
      </trkpt>
      <trkpt lat="41.733498" lon="-7.467305">
        <ele>351.012</ele>
        <time>2019-06-22T13:33:09Z</time>
      </trkpt>
      <trkpt lat="41.733434" lon="-7.467354">
        <ele>351.164</ele>
        <time>2019-06-22T13:33:10Z</time>
      </trkpt>
      <trkpt lat="41.733367" lon="-7.467407">
        <ele>351.142</ele>
        <time>2019-06-22T13:33:11Z</time>
      </trkpt>
      <trkpt lat="41.733293" lon="-7.467462">
        <ele>351.181</ele>
        <time>2019-06-22T13:33:12Z</time>
      </trkpt>
      <trkpt lat="41.733213" lon="-7.467525">
        <ele>351.016</ele>
        <time>2019-06-22T13:33:13Z</time>
      </trkpt>
      <trkpt lat="41.733130" lon="-7.467585">
        <ele>350.899</ele>
        <time>2019-06-22T13:33:14Z</time>
      </trkpt>
      <trkpt lat="41.733048" lon="-7.467645">
        <ele>350.619</ele>
        <time>2019-06-22T13:33:15Z</time>
      </trkpt>
      <trkpt lat="41.732971" lon="-7.467710">
        <ele>350.609</ele>
        <time>2019-06-22T13:33:16Z</time>
      </trkpt>
      <trkpt lat="41.732886" lon="-7.467783">
        <ele>350.719</ele>
        <time>2019-06-22T13:33:17Z</time>
      </trkpt>
      <trkpt lat="41.732798" lon="-7.467849">
        <ele>350.908</ele>
        <time>2019-06-22T13:33:18Z</time>
      </trkpt>
      <trkpt lat="41.732711" lon="-7.467912">
        <ele>351.194</ele>
        <time>2019-06-22T13:33:19Z</time>
      </trkpt>
      <trkpt lat="41.732624" lon="-7.467971">
        <ele>351.328</ele>
        <time>2019-06-22T13:33:20Z</time>
      </trkpt>
      <trkpt lat="41.732536" lon="-7.468045">
        <ele>351.340</ele>
        <time>2019-06-22T13:33:21Z</time>
      </trkpt>
      <trkpt lat="41.732456" lon="-7.468098">
        <ele>351.252</ele>
        <time>2019-06-22T13:33:22Z</time>
      </trkpt>
      <trkpt lat="41.732397" lon="-7.468146">
        <ele>351.160</ele>
        <time>2019-06-22T13:33:23Z</time>
      </trkpt>
      <trkpt lat="41.732327" lon="-7.468200">
        <ele>351.059</ele>
        <time>2019-06-22T13:33:24Z</time>
      </trkpt>
      <trkpt lat="41.732262" lon="-7.468254">
        <ele>350.894</ele>
        <time>2019-06-22T13:33:25Z</time>
      </trkpt>
      <trkpt lat="41.732210" lon="-7.468304">
        <ele>350.887</ele>
        <time>2019-06-22T13:33:26Z</time>
      </trkpt>
      <trkpt lat="41.732164" lon="-7.468348">
        <ele>350.898</ele>
        <time>2019-06-22T13:33:27Z</time>
      </trkpt>
      <trkpt lat="41.732125" lon="-7.468398">
        <ele>350.815</ele>
        <time>2019-06-22T13:33:28Z</time>
      </trkpt>
      <trkpt lat="41.732090" lon="-7.468449">
        <ele>350.826</ele>
        <time>2019-06-22T13:33:29Z</time>
      </trkpt>
      <trkpt lat="41.732036" lon="-7.468554">
        <ele>351.008</ele>
        <time>2019-06-22T13:33:31Z</time>
      </trkpt>
      <trkpt lat="41.731998" lon="-7.468622">
        <ele>351.132</ele>
        <time>2019-06-22T13:33:32Z</time>
      </trkpt>
      <trkpt lat="41.731957" lon="-7.468689">
        <ele>351.166</ele>
        <time>2019-06-22T13:33:33Z</time>
      </trkpt>
      <trkpt lat="41.731913" lon="-7.468745">
        <ele>351.148</ele>
        <time>2019-06-22T13:33:34Z</time>
      </trkpt>
      <trkpt lat="41.731862" lon="-7.468782">
        <ele>351.140</ele>
        <time>2019-06-22T13:33:35Z</time>
      </trkpt>
      <trkpt lat="41.731807" lon="-7.468787">
        <ele>351.128</ele>
        <time>2019-06-22T13:33:36Z</time>
      </trkpt>
      <trkpt lat="41.731748" lon="-7.468786">
        <ele>351.137</ele>
        <time>2019-06-22T13:33:37Z</time>
      </trkpt>
      <trkpt lat="41.731692" lon="-7.468763">
        <ele>351.152</ele>
        <time>2019-06-22T13:33:38Z</time>
      </trkpt>
      <trkpt lat="41.731637" lon="-7.468737">
        <ele>351.125</ele>
        <time>2019-06-22T13:33:39Z</time>
      </trkpt>
      <trkpt lat="41.731612" lon="-7.468681">
        <ele>351.111</ele>
        <time>2019-06-22T13:33:40Z</time>
      </trkpt>
      <trkpt lat="41.731600" lon="-7.468601">
        <ele>351.121</ele>
        <time>2019-06-22T13:33:41Z</time>
      </trkpt>
      <trkpt lat="41.731584" lon="-7.468522">
        <ele>351.103</ele>
        <time>2019-06-22T13:33:42Z</time>
      </trkpt>
      <trkpt lat="41.731572" lon="-7.468430">
        <ele>351.008</ele>
        <time>2019-06-22T13:33:43Z</time>
      </trkpt>
      <trkpt lat="41.731548" lon="-7.468335">
        <ele>350.864</ele>
        <time>2019-06-22T13:33:44Z</time>
      </trkpt>
      <trkpt lat="41.731506" lon="-7.468244">
        <ele>350.618</ele>
        <time>2019-06-22T13:33:45Z</time>
      </trkpt>
      <trkpt lat="41.731446" lon="-7.468145">
        <ele>350.260</ele>
        <time>2019-06-22T13:33:46Z</time>
      </trkpt>
      <trkpt lat="41.731367" lon="-7.468039">
        <ele>349.822</ele>
        <time>2019-06-22T13:33:47Z</time>
      </trkpt>
      <trkpt lat="41.731280" lon="-7.467930">
        <ele>349.430</ele>
        <time>2019-06-22T13:33:48Z</time>
      </trkpt>
      <trkpt lat="41.731191" lon="-7.467809">
        <ele>349.069</ele>
        <time>2019-06-22T13:33:49Z</time>
      </trkpt>
      <trkpt lat="41.731099" lon="-7.467674">
        <ele>349.034</ele>
        <time>2019-06-22T13:33:50Z</time>
      </trkpt>
      <trkpt lat="41.730986" lon="-7.467542">
        <ele>349.147</ele>
        <time>2019-06-22T13:33:51Z</time>
      </trkpt>
      <trkpt lat="41.730865" lon="-7.467399">
        <ele>349.192</ele>
        <time>2019-06-22T13:33:52Z</time>
      </trkpt>
      <trkpt lat="41.730752" lon="-7.467240">
        <ele>349.173</ele>
        <time>2019-06-22T13:33:53Z</time>
      </trkpt>
      <trkpt lat="41.730632" lon="-7.467082">
        <ele>348.920</ele>
        <time>2019-06-22T13:33:54Z</time>
      </trkpt>
      <trkpt lat="41.730509" lon="-7.466922">
        <ele>348.908</ele>
        <time>2019-06-22T13:33:55Z</time>
      </trkpt>
      <trkpt lat="41.730395" lon="-7.466774">
        <ele>348.482</ele>
        <time>2019-06-22T13:33:56Z</time>
      </trkpt>
      <trkpt lat="41.730275" lon="-7.466620">
        <ele>348.426</ele>
        <time>2019-06-22T13:33:57Z</time>
      </trkpt>
      <trkpt lat="41.730163" lon="-7.466463">
        <ele>347.788</ele>
        <time>2019-06-22T13:33:58Z</time>
      </trkpt>
      <trkpt lat="41.730051" lon="-7.466304">
        <ele>347.410</ele>
        <time>2019-06-22T13:33:59Z</time>
      </trkpt>
      <trkpt lat="41.729934" lon="-7.466150">
        <ele>347.458</ele>
        <time>2019-06-22T13:34:00Z</time>
      </trkpt>
      <trkpt lat="41.729817" lon="-7.465990">
        <ele>348.197</ele>
        <time>2019-06-22T13:34:01Z</time>
      </trkpt>
      <trkpt lat="41.729691" lon="-7.465836">
        <ele>348.312</ele>
        <time>2019-06-22T13:34:02Z</time>
      </trkpt>
      <trkpt lat="41.729575" lon="-7.465683">
        <ele>348.955</ele>
        <time>2019-06-22T13:34:03Z</time>
      </trkpt>
      <trkpt lat="41.729460" lon="-7.465532">
        <ele>348.918</ele>
        <time>2019-06-22T13:34:04Z</time>
      </trkpt>
      <trkpt lat="41.729350" lon="-7.465386">
        <ele>348.798</ele>
        <time>2019-06-22T13:34:05Z</time>
      </trkpt>
      <trkpt lat="41.729245" lon="-7.465255">
        <ele>348.717</ele>
        <time>2019-06-22T13:34:06Z</time>
      </trkpt>
      <trkpt lat="41.729149" lon="-7.465142">
        <ele>348.608</ele>
        <time>2019-06-22T13:34:07Z</time>
      </trkpt>
      <trkpt lat="41.729055" lon="-7.465012">
        <ele>348.574</ele>
        <time>2019-06-22T13:34:08Z</time>
      </trkpt>
      <trkpt lat="41.728969" lon="-7.464890">
        <ele>348.558</ele>
        <time>2019-06-22T13:34:09Z</time>
      </trkpt>
      <trkpt lat="41.728876" lon="-7.464765">
        <ele>349.640</ele>
        <time>2019-06-22T13:34:10Z</time>
      </trkpt>
      <trkpt lat="41.728778" lon="-7.464645">
        <ele>350.022</ele>
        <time>2019-06-22T13:34:11Z</time>
      </trkpt>
      <trkpt lat="41.728688" lon="-7.464527">
        <ele>350.550</ele>
        <time>2019-06-22T13:34:12Z</time>
      </trkpt>
      <trkpt lat="41.728588" lon="-7.464403">
        <ele>351.239</ele>
        <time>2019-06-22T13:34:13Z</time>
      </trkpt>
      <trkpt lat="41.728497" lon="-7.464276">
        <ele>351.514</ele>
        <time>2019-06-22T13:34:14Z</time>
      </trkpt>
      <trkpt lat="41.728400" lon="-7.464143">
        <ele>351.577</ele>
        <time>2019-06-22T13:34:15Z</time>
      </trkpt>
      <trkpt lat="41.728297" lon="-7.464010">
        <ele>351.561</ele>
        <time>2019-06-22T13:34:16Z</time>
      </trkpt>
      <trkpt lat="41.728195" lon="-7.463880">
        <ele>351.621</ele>
        <time>2019-06-22T13:34:17Z</time>
      </trkpt>
      <trkpt lat="41.728090" lon="-7.463745">
        <ele>351.613</ele>
        <time>2019-06-22T13:34:18Z</time>
      </trkpt>
      <trkpt lat="41.727992" lon="-7.463606">
        <ele>351.708</ele>
        <time>2019-06-22T13:34:19Z</time>
      </trkpt>
      <trkpt lat="41.727898" lon="-7.463472">
        <ele>352.529</ele>
        <time>2019-06-22T13:34:20Z</time>
      </trkpt>
      <trkpt lat="41.727792" lon="-7.463338">
        <ele>352.683</ele>
        <time>2019-06-22T13:34:21Z</time>
      </trkpt>
      <trkpt lat="41.727688" lon="-7.463201">
        <ele>352.665</ele>
        <time>2019-06-22T13:34:22Z</time>
      </trkpt>
      <trkpt lat="41.727589" lon="-7.463065">
        <ele>352.637</ele>
        <time>2019-06-22T13:34:23Z</time>
      </trkpt>
      <trkpt lat="41.727491" lon="-7.462946">
        <ele>352.465</ele>
        <time>2019-06-22T13:34:24Z</time>
      </trkpt>
      <trkpt lat="41.727390" lon="-7.462832">
        <ele>352.424</ele>
        <time>2019-06-22T13:34:25Z</time>
      </trkpt>
      <trkpt lat="41.727286" lon="-7.462697">
        <ele>352.339</ele>
        <time>2019-06-22T13:34:26Z</time>
      </trkpt>
      <trkpt lat="41.727189" lon="-7.462571">
        <ele>351.612</ele>
        <time>2019-06-22T13:34:27Z</time>
      </trkpt>
      <trkpt lat="41.727087" lon="-7.462442">
        <ele>350.734</ele>
        <time>2019-06-22T13:34:28Z</time>
      </trkpt>
      <trkpt lat="41.726985" lon="-7.462307">
        <ele>350.355</ele>
        <time>2019-06-22T13:34:29Z</time>
      </trkpt>
      <trkpt lat="41.726887" lon="-7.462180">
        <ele>350.310</ele>
        <time>2019-06-22T13:34:30Z</time>
      </trkpt>
      <trkpt lat="41.726788" lon="-7.462046">
        <ele>350.508</ele>
        <time>2019-06-22T13:34:31Z</time>
      </trkpt>
      <trkpt lat="41.726683" lon="-7.461909">
        <ele>351.536</ele>
        <time>2019-06-22T13:34:32Z</time>
      </trkpt>
      <trkpt lat="41.726594" lon="-7.461800">
        <ele>352.330</ele>
        <time>2019-06-22T13:34:33Z</time>
      </trkpt>
      <trkpt lat="41.726490" lon="-7.461666">
        <ele>352.892</ele>
        <time>2019-06-22T13:34:34Z</time>
      </trkpt>
      <trkpt lat="41.726391" lon="-7.461540">
        <ele>352.874</ele>
        <time>2019-06-22T13:34:35Z</time>
      </trkpt>
      <trkpt lat="41.726293" lon="-7.461406">
        <ele>352.422</ele>
        <time>2019-06-22T13:34:36Z</time>
      </trkpt>
      <trkpt lat="41.726193" lon="-7.461278">
        <ele>352.371</ele>
        <time>2019-06-22T13:34:37Z</time>
      </trkpt>
      <trkpt lat="41.726097" lon="-7.461150">
        <ele>352.386</ele>
        <time>2019-06-22T13:34:38Z</time>
      </trkpt>
      <trkpt lat="41.726003" lon="-7.461030">
        <ele>352.729</ele>
        <time>2019-06-22T13:34:39Z</time>
      </trkpt>
      <trkpt lat="41.725905" lon="-7.460911">
        <ele>352.846</ele>
        <time>2019-06-22T13:34:40Z</time>
      </trkpt>
      <trkpt lat="41.725811" lon="-7.460799">
        <ele>354.088</ele>
        <time>2019-06-22T13:34:41Z</time>
      </trkpt>
      <trkpt lat="41.725718" lon="-7.460669">
        <ele>354.116</ele>
        <time>2019-06-22T13:34:42Z</time>
      </trkpt>
      <trkpt lat="41.725622" lon="-7.460543">
        <ele>354.508</ele>
        <time>2019-06-22T13:34:43Z</time>
      </trkpt>
      <trkpt lat="41.725528" lon="-7.460423">
        <ele>354.827</ele>
        <time>2019-06-22T13:34:44Z</time>
      </trkpt>
      <trkpt lat="41.725434" lon="-7.460301">
        <ele>355.191</ele>
        <time>2019-06-22T13:34:45Z</time>
      </trkpt>
      <trkpt lat="41.725333" lon="-7.460176">
        <ele>355.223</ele>
        <time>2019-06-22T13:34:46Z</time>
      </trkpt>
      <trkpt lat="41.725231" lon="-7.460052">
        <ele>355.965</ele>
        <time>2019-06-22T13:34:47Z</time>
      </trkpt>
      <trkpt lat="41.725118" lon="-7.459931">
        <ele>356.493</ele>
        <time>2019-06-22T13:34:48Z</time>
      </trkpt>
      <trkpt lat="41.725005" lon="-7.459819">
        <ele>356.992</ele>
        <time>2019-06-22T13:34:49Z</time>
      </trkpt>
      <trkpt lat="41.724879" lon="-7.459702">
        <ele>357.167</ele>
        <time>2019-06-22T13:34:50Z</time>
      </trkpt>
      <trkpt lat="41.724746" lon="-7.459596">
        <ele>357.460</ele>
        <time>2019-06-22T13:34:51Z</time>
      </trkpt>
      <trkpt lat="41.724602" lon="-7.459488">
        <ele>357.856</ele>
        <time>2019-06-22T13:34:52Z</time>
      </trkpt>
      <trkpt lat="41.724449" lon="-7.459368">
        <ele>357.959</ele>
        <time>2019-06-22T13:34:53Z</time>
      </trkpt>
      <trkpt lat="41.724289" lon="-7.459247">
        <ele>357.914</ele>
        <time>2019-06-22T13:34:54Z</time>
      </trkpt>
      <trkpt lat="41.724137" lon="-7.459139">
        <ele>358.308</ele>
        <time>2019-06-22T13:34:55Z</time>
      </trkpt>
      <trkpt lat="41.723987" lon="-7.459040">
        <ele>358.358</ele>
        <time>2019-06-22T13:34:56Z</time>
      </trkpt>
      <trkpt lat="41.723802" lon="-7.458926">
        <ele>358.532</ele>
        <time>2019-06-22T13:34:57Z</time>
      </trkpt>
      <trkpt lat="41.723630" lon="-7.458813">
        <ele>358.784</ele>
        <time>2019-06-22T13:34:58Z</time>
      </trkpt>
      <trkpt lat="41.723456" lon="-7.458693">
        <ele>358.786</ele>
        <time>2019-06-22T13:34:59Z</time>
      </trkpt>
      <trkpt lat="41.723282" lon="-7.458579">
        <ele>359.434</ele>
        <time>2019-06-22T13:35:00Z</time>
      </trkpt>
      <trkpt lat="41.723112" lon="-7.458468">
        <ele>359.813</ele>
        <time>2019-06-22T13:35:01Z</time>
      </trkpt>
      <trkpt lat="41.722937" lon="-7.458353">
        <ele>359.858</ele>
        <time>2019-06-22T13:35:02Z</time>
      </trkpt>
      <trkpt lat="41.722773" lon="-7.458255">
        <ele>359.851</ele>
        <time>2019-06-22T13:35:03Z</time>
      </trkpt>
      <trkpt lat="41.722611" lon="-7.458135">
        <ele>361.293</ele>
        <time>2019-06-22T13:35:04Z</time>
      </trkpt>
      <trkpt lat="41.722449" lon="-7.458030">
        <ele>362.065</ele>
        <time>2019-06-22T13:35:05Z</time>
      </trkpt>
      <trkpt lat="41.722287" lon="-7.457927">
        <ele>362.421</ele>
        <time>2019-06-22T13:35:06Z</time>
      </trkpt>
      <trkpt lat="41.722110" lon="-7.457813">
        <ele>364.908</ele>
        <time>2019-06-22T13:35:07Z</time>
      </trkpt>
      <trkpt lat="41.721925" lon="-7.457695">
        <ele>365.852</ele>
        <time>2019-06-22T13:35:08Z</time>
      </trkpt>
      <trkpt lat="41.721740" lon="-7.457570">
        <ele>365.836</ele>
        <time>2019-06-22T13:35:09Z</time>
      </trkpt>
      <trkpt lat="41.721560" lon="-7.457445">
        <ele>366.028</ele>
        <time>2019-06-22T13:35:10Z</time>
      </trkpt>
      <trkpt lat="41.721374" lon="-7.457332">
        <ele>365.820</ele>
        <time>2019-06-22T13:35:11Z</time>
      </trkpt>
      <trkpt lat="41.721203" lon="-7.457217">
        <ele>365.988</ele>
        <time>2019-06-22T13:35:12Z</time>
      </trkpt>
      <trkpt lat="41.721041" lon="-7.457108">
        <ele>365.937</ele>
        <time>2019-06-22T13:35:13Z</time>
      </trkpt>
      <trkpt lat="41.720866" lon="-7.456992">
        <ele>366.072</ele>
        <time>2019-06-22T13:35:14Z</time>
      </trkpt>
      <trkpt lat="41.720707" lon="-7.456876">
        <ele>366.655</ele>
        <time>2019-06-22T13:35:15Z</time>
      </trkpt>
      <trkpt lat="41.720574" lon="-7.456782">
        <ele>366.985</ele>
        <time>2019-06-22T13:35:16Z</time>
      </trkpt>
      <trkpt lat="41.720463" lon="-7.456703">
        <ele>367.189</ele>
        <time>2019-06-22T13:35:17Z</time>
      </trkpt>
      <trkpt lat="41.720363" lon="-7.456647">
        <ele>367.217</ele>
        <time>2019-06-22T13:35:18Z</time>
      </trkpt>
      <trkpt lat="41.720271" lon="-7.456572">
        <ele>367.408</ele>
        <time>2019-06-22T13:35:19Z</time>
      </trkpt>
      <trkpt lat="41.720159" lon="-7.456500">
        <ele>367.821</ele>
        <time>2019-06-22T13:35:20Z</time>
      </trkpt>
      <trkpt lat="41.720040" lon="-7.456415">
        <ele>368.385</ele>
        <time>2019-06-22T13:35:21Z</time>
      </trkpt>
      <trkpt lat="41.719909" lon="-7.456330">
        <ele>368.847</ele>
        <time>2019-06-22T13:35:22Z</time>
      </trkpt>
      <trkpt lat="41.719767" lon="-7.456235">
        <ele>369.539</ele>
        <time>2019-06-22T13:35:23Z</time>
      </trkpt>
      <trkpt lat="41.719615" lon="-7.456124">
        <ele>370.077</ele>
        <time>2019-06-22T13:35:24Z</time>
      </trkpt>
      <trkpt lat="41.719469" lon="-7.455994">
        <ele>370.076</ele>
        <time>2019-06-22T13:35:25Z</time>
      </trkpt>
      <trkpt lat="41.719325" lon="-7.455838">
        <ele>370.461</ele>
        <time>2019-06-22T13:35:26Z</time>
      </trkpt>
      <trkpt lat="41.719170" lon="-7.455669">
        <ele>370.574</ele>
        <time>2019-06-22T13:35:27Z</time>
      </trkpt>
      <trkpt lat="41.719014" lon="-7.455493">
        <ele>370.869</ele>
        <time>2019-06-22T13:35:28Z</time>
      </trkpt>
      <trkpt lat="41.718849" lon="-7.455313">
        <ele>370.904</ele>
        <time>2019-06-22T13:35:29Z</time>
      </trkpt>
      <trkpt lat="41.718691" lon="-7.455131">
        <ele>371.024</ele>
        <time>2019-06-22T13:35:30Z</time>
      </trkpt>
      <trkpt lat="41.718528" lon="-7.454954">
        <ele>371.308</ele>
        <time>2019-06-22T13:35:31Z</time>
      </trkpt>
      <trkpt lat="41.718366" lon="-7.454789">
        <ele>371.639</ele>
        <time>2019-06-22T13:35:32Z</time>
      </trkpt>
      <trkpt lat="41.718213" lon="-7.454627">
        <ele>371.873</ele>
        <time>2019-06-22T13:35:33Z</time>
      </trkpt>
      <trkpt lat="41.718045" lon="-7.454436">
        <ele>372.035</ele>
        <time>2019-06-22T13:35:34Z</time>
      </trkpt>
      <trkpt lat="41.717880" lon="-7.454247">
        <ele>372.577</ele>
        <time>2019-06-22T13:35:35Z</time>
      </trkpt>
      <trkpt lat="41.717739" lon="-7.454071">
        <ele>372.725</ele>
        <time>2019-06-22T13:35:36Z</time>
      </trkpt>
      <trkpt lat="41.717608" lon="-7.453918">
        <ele>372.874</ele>
        <time>2019-06-22T13:35:37Z</time>
      </trkpt>
      <trkpt lat="41.717496" lon="-7.453768">
        <ele>373.249</ele>
        <time>2019-06-22T13:35:38Z</time>
      </trkpt>
      <trkpt lat="41.717419" lon="-7.453607">
        <ele>374.122</ele>
        <time>2019-06-22T13:35:39Z</time>
      </trkpt>
      <trkpt lat="41.717361" lon="-7.453391">
        <ele>375.052</ele>
        <time>2019-06-22T13:35:40Z</time>
      </trkpt>
      <trkpt lat="41.717336" lon="-7.453213">
        <ele>376.353</ele>
        <time>2019-06-22T13:35:41Z</time>
      </trkpt>
      <trkpt lat="41.717353" lon="-7.453050">
        <ele>377.808</ele>
        <time>2019-06-22T13:35:42Z</time>
      </trkpt>
      <trkpt lat="41.717377" lon="-7.452874">
        <ele>379.308</ele>
        <time>2019-06-22T13:35:43Z</time>
      </trkpt>
      <trkpt lat="41.717393" lon="-7.452661">
        <ele>380.268</ele>
        <time>2019-06-22T13:35:44Z</time>
      </trkpt>
      <trkpt lat="41.717427" lon="-7.452419">
        <ele>380.792</ele>
        <time>2019-06-22T13:35:45Z</time>
      </trkpt>
      <trkpt lat="41.717464" lon="-7.452174">
        <ele>381.164</ele>
        <time>2019-06-22T13:35:46Z</time>
      </trkpt>
      <trkpt lat="41.717499" lon="-7.451927">
        <ele>381.136</ele>
        <time>2019-06-22T13:35:47Z</time>
      </trkpt>
      <trkpt lat="41.717539" lon="-7.451694">
        <ele>381.134</ele>
        <time>2019-06-22T13:35:48Z</time>
      </trkpt>
      <trkpt lat="41.717571" lon="-7.451463">
        <ele>381.153</ele>
        <time>2019-06-22T13:35:49Z</time>
      </trkpt>
      <trkpt lat="41.717606" lon="-7.451226">
        <ele>381.548</ele>
        <time>2019-06-22T13:35:50Z</time>
      </trkpt>
      <trkpt lat="41.717645" lon="-7.450996">
        <ele>381.731</ele>
        <time>2019-06-22T13:35:51Z</time>
      </trkpt>
      <trkpt lat="41.717686" lon="-7.450775">
        <ele>382.469</ele>
        <time>2019-06-22T13:35:52Z</time>
      </trkpt>
      <trkpt lat="41.717739" lon="-7.450557">
        <ele>384.104</ele>
        <time>2019-06-22T13:35:53Z</time>
      </trkpt>
      <trkpt lat="41.717796" lon="-7.450334">
        <ele>385.924</ele>
        <time>2019-06-22T13:35:54Z</time>
      </trkpt>
      <trkpt lat="41.717846" lon="-7.450123">
        <ele>386.008</ele>
        <time>2019-06-22T13:35:55Z</time>
      </trkpt>
      <trkpt lat="41.717889" lon="-7.449925">
        <ele>386.669</ele>
        <time>2019-06-22T13:35:56Z</time>
      </trkpt>
      <trkpt lat="41.717920" lon="-7.449734">
        <ele>386.643</ele>
        <time>2019-06-22T13:35:57Z</time>
      </trkpt>
      <trkpt lat="41.717909" lon="-7.449559">
        <ele>386.285</ele>
        <time>2019-06-22T13:35:58Z</time>
      </trkpt>
      <trkpt lat="41.717883" lon="-7.449392">
        <ele>386.247</ele>
        <time>2019-06-22T13:35:59Z</time>
      </trkpt>
      <trkpt lat="41.717836" lon="-7.449236">
        <ele>386.335</ele>
        <time>2019-06-22T13:36:00Z</time>
      </trkpt>
      <trkpt lat="41.717776" lon="-7.449087">
        <ele>386.454</ele>
        <time>2019-06-22T13:36:01Z</time>
      </trkpt>
      <trkpt lat="41.717659" lon="-7.448937">
        <ele>387.689</ele>
        <time>2019-06-22T13:36:02Z</time>
      </trkpt>
      <trkpt lat="41.717542" lon="-7.448775">
        <ele>389.512</ele>
        <time>2019-06-22T13:36:03Z</time>
      </trkpt>
      <trkpt lat="41.717429" lon="-7.448618">
        <ele>391.411</ele>
        <time>2019-06-22T13:36:04Z</time>
      </trkpt>
      <trkpt lat="41.717333" lon="-7.448469">
        <ele>392.921</ele>
        <time>2019-06-22T13:36:05Z</time>
      </trkpt>
      <trkpt lat="41.717249" lon="-7.448330">
        <ele>394.503</ele>
        <time>2019-06-22T13:36:06Z</time>
      </trkpt>
      <trkpt lat="41.717189" lon="-7.448186">
        <ele>394.508</ele>
        <time>2019-06-22T13:36:07Z</time>
      </trkpt>
      <trkpt lat="41.717168" lon="-7.448046">
        <ele>395.794</ele>
        <time>2019-06-22T13:36:08Z</time>
      </trkpt>
      <trkpt lat="41.717166" lon="-7.447905">
        <ele>396.328</ele>
        <time>2019-06-22T13:36:09Z</time>
      </trkpt>
      <trkpt lat="41.717225" lon="-7.447749">
        <ele>397.280</ele>
        <time>2019-06-22T13:36:10Z</time>
      </trkpt>
      <trkpt lat="41.717293" lon="-7.447617">
        <ele>398.092</ele>
        <time>2019-06-22T13:36:11Z</time>
      </trkpt>
      <trkpt lat="41.717371" lon="-7.447463">
        <ele>398.710</ele>
        <time>2019-06-22T13:36:12Z</time>
      </trkpt>
      <trkpt lat="41.717424" lon="-7.447306">
        <ele>399.959</ele>
        <time>2019-06-22T13:36:13Z</time>
      </trkpt>
      <trkpt lat="41.717474" lon="-7.447152">
        <ele>399.944</ele>
        <time>2019-06-22T13:36:14Z</time>
      </trkpt>
      <trkpt lat="41.717513" lon="-7.447021">
        <ele>399.987</ele>
        <time>2019-06-22T13:36:15Z</time>
      </trkpt>
      <trkpt lat="41.717504" lon="-7.446881">
        <ele>399.953</ele>
        <time>2019-06-22T13:36:16Z</time>
      </trkpt>
      <trkpt lat="41.717473" lon="-7.446736">
        <ele>400.504</ele>
        <time>2019-06-22T13:36:17Z</time>
      </trkpt>
      <trkpt lat="41.717419" lon="-7.446603">
        <ele>401.014</ele>
        <time>2019-06-22T13:36:18Z</time>
      </trkpt>
      <trkpt lat="41.717341" lon="-7.446481">
        <ele>401.808</ele>
        <time>2019-06-22T13:36:19Z</time>
      </trkpt>
      <trkpt lat="41.717218" lon="-7.446339">
        <ele>403.328</ele>
        <time>2019-06-22T13:36:20Z</time>
      </trkpt>
      <trkpt lat="41.717110" lon="-7.446252">
        <ele>404.412</ele>
        <time>2019-06-22T13:36:21Z</time>
      </trkpt>
      <trkpt lat="41.716992" lon="-7.446159">
        <ele>404.464</ele>
        <time>2019-06-22T13:36:22Z</time>
      </trkpt>
      <trkpt lat="41.716875" lon="-7.446085">
        <ele>404.766</ele>
        <time>2019-06-22T13:36:23Z</time>
      </trkpt>
      <trkpt lat="41.716773" lon="-7.445999">
        <ele>404.914</ele>
        <time>2019-06-22T13:36:24Z</time>
      </trkpt>
      <trkpt lat="41.716699" lon="-7.445938">
        <ele>405.363</ele>
        <time>2019-06-22T13:36:25Z</time>
      </trkpt>
      <trkpt lat="41.716652" lon="-7.445848">
        <ele>405.918</ele>
        <time>2019-06-22T13:36:26Z</time>
      </trkpt>
      <trkpt lat="41.716613" lon="-7.445718">
        <ele>407.021</ele>
        <time>2019-06-22T13:36:27Z</time>
      </trkpt>
      <trkpt lat="41.716604" lon="-7.445563">
        <ele>407.759</ele>
        <time>2019-06-22T13:36:28Z</time>
      </trkpt>
      <trkpt lat="41.716638" lon="-7.445410">
        <ele>408.203</ele>
        <time>2019-06-22T13:36:29Z</time>
      </trkpt>
      <trkpt lat="41.716686" lon="-7.445264">
        <ele>408.723</ele>
        <time>2019-06-22T13:36:30Z</time>
      </trkpt>
      <trkpt lat="41.716717" lon="-7.445128">
        <ele>409.008</ele>
        <time>2019-06-22T13:36:31Z</time>
      </trkpt>
      <trkpt lat="41.716726" lon="-7.444992">
        <ele>409.078</ele>
        <time>2019-06-22T13:36:32Z</time>
      </trkpt>
      <trkpt lat="41.716733" lon="-7.444859">
        <ele>408.852</ele>
        <time>2019-06-22T13:36:33Z</time>
      </trkpt>
      <trkpt lat="41.716669" lon="-7.444761">
        <ele>408.864</ele>
        <time>2019-06-22T13:36:34Z</time>
      </trkpt>
      <trkpt lat="41.716628" lon="-7.444656">
        <ele>409.216</ele>
        <time>2019-06-22T13:36:35Z</time>
      </trkpt>
      <trkpt lat="41.716512" lon="-7.444582">
        <ele>409.984</ele>
        <time>2019-06-22T13:36:36Z</time>
      </trkpt>
      <trkpt lat="41.716406" lon="-7.444487">
        <ele>410.933</ele>
        <time>2019-06-22T13:36:37Z</time>
      </trkpt>
      <trkpt lat="41.716289" lon="-7.444425">
        <ele>412.338</ele>
        <time>2019-06-22T13:36:38Z</time>
      </trkpt>
      <trkpt lat="41.716123" lon="-7.444448">
        <ele>413.291</ele>
        <time>2019-06-22T13:36:39Z</time>
      </trkpt>
      <trkpt lat="41.715963" lon="-7.444423">
        <ele>414.054</ele>
        <time>2019-06-22T13:36:40Z</time>
      </trkpt>
      <trkpt lat="41.715803" lon="-7.444423">
        <ele>414.456</ele>
        <time>2019-06-22T13:36:41Z</time>
      </trkpt>
      <trkpt lat="41.715641" lon="-7.444432">
        <ele>414.711</ele>
        <time>2019-06-22T13:36:42Z</time>
      </trkpt>
      <trkpt lat="41.715476" lon="-7.444442">
        <ele>415.008</ele>
        <time>2019-06-22T13:36:43Z</time>
      </trkpt>
      <trkpt lat="41.715324" lon="-7.444454">
        <ele>415.868</ele>
        <time>2019-06-22T13:36:44Z</time>
      </trkpt>
      <trkpt lat="41.715180" lon="-7.444448">
        <ele>416.562</ele>
        <time>2019-06-22T13:36:45Z</time>
      </trkpt>
      <trkpt lat="41.715047" lon="-7.444427">
        <ele>417.024</ele>
        <time>2019-06-22T13:36:46Z</time>
      </trkpt>
      <trkpt lat="41.714926" lon="-7.444404">
        <ele>417.516</ele>
        <time>2019-06-22T13:36:47Z</time>
      </trkpt>
      <trkpt lat="41.714863" lon="-7.444315">
        <ele>418.484</ele>
        <time>2019-06-22T13:36:48Z</time>
      </trkpt>
      <trkpt lat="41.714807" lon="-7.444242">
        <ele>418.963</ele>
        <time>2019-06-22T13:36:49Z</time>
      </trkpt>
      <trkpt lat="41.714762" lon="-7.444100">
        <ele>419.638</ele>
        <time>2019-06-22T13:36:50Z</time>
      </trkpt>
      <trkpt lat="41.714731" lon="-7.443979">
        <ele>420.221</ele>
        <time>2019-06-22T13:36:51Z</time>
      </trkpt>
      <trkpt lat="41.714711" lon="-7.443813">
        <ele>421.011</ele>
        <time>2019-06-22T13:36:52Z</time>
      </trkpt>
      <trkpt lat="41.714715" lon="-7.443643">
        <ele>421.521</ele>
        <time>2019-06-22T13:36:53Z</time>
      </trkpt>
      <trkpt lat="41.714765" lon="-7.443480">
        <ele>422.003</ele>
        <time>2019-06-22T13:36:54Z</time>
      </trkpt>
      <trkpt lat="41.714819" lon="-7.443312">
        <ele>422.408</ele>
        <time>2019-06-22T13:36:55Z</time>
      </trkpt>
      <trkpt lat="41.714898" lon="-7.443136">
        <ele>422.674</ele>
        <time>2019-06-22T13:36:56Z</time>
      </trkpt>
      <trkpt lat="41.714957" lon="-7.442962">
        <ele>422.698</ele>
        <time>2019-06-22T13:36:57Z</time>
      </trkpt>
      <trkpt lat="41.715028" lon="-7.442754">
        <ele>422.620</ele>
        <time>2019-06-22T13:36:58Z</time>
      </trkpt>
      <trkpt lat="41.715082" lon="-7.442557">
        <ele>422.782</ele>
        <time>2019-06-22T13:36:59Z</time>
      </trkpt>
      <trkpt lat="41.715144" lon="-7.442337">
        <ele>422.980</ele>
        <time>2019-06-22T13:37:00Z</time>
      </trkpt>
      <trkpt lat="41.715199" lon="-7.442135">
        <ele>423.569</ele>
        <time>2019-06-22T13:37:01Z</time>
      </trkpt>
      <trkpt lat="41.715247" lon="-7.441935">
        <ele>423.774</ele>
        <time>2019-06-22T13:37:02Z</time>
      </trkpt>
      <trkpt lat="41.715304" lon="-7.441747">
        <ele>423.957</ele>
        <time>2019-06-22T13:37:03Z</time>
      </trkpt>
      <trkpt lat="41.715372" lon="-7.441574">
        <ele>425.774</ele>
        <time>2019-06-22T13:37:04Z</time>
      </trkpt>
      <trkpt lat="41.715465" lon="-7.441426">
        <ele>426.656</ele>
        <time>2019-06-22T13:37:05Z</time>
      </trkpt>
      <trkpt lat="41.715583" lon="-7.441300">
        <ele>427.621</ele>
        <time>2019-06-22T13:37:06Z</time>
      </trkpt>
      <trkpt lat="41.715709" lon="-7.441191">
        <ele>429.008</ele>
        <time>2019-06-22T13:37:07Z</time>
      </trkpt>
      <trkpt lat="41.715834" lon="-7.441082">
        <ele>430.830</ele>
        <time>2019-06-22T13:37:08Z</time>
      </trkpt>
      <trkpt lat="41.715961" lon="-7.440973">
        <ele>431.224</ele>
        <time>2019-06-22T13:37:09Z</time>
      </trkpt>
      <trkpt lat="41.716073" lon="-7.440839">
        <ele>431.856</ele>
        <time>2019-06-22T13:37:10Z</time>
      </trkpt>
      <trkpt lat="41.716172" lon="-7.440692">
        <ele>431.858</ele>
        <time>2019-06-22T13:37:11Z</time>
      </trkpt>
      <trkpt lat="41.716269" lon="-7.440544">
        <ele>432.166</ele>
        <time>2019-06-22T13:37:12Z</time>
      </trkpt>
      <trkpt lat="41.716350" lon="-7.440373">
        <ele>432.445</ele>
        <time>2019-06-22T13:37:13Z</time>
      </trkpt>
      <trkpt lat="41.716429" lon="-7.440194">
        <ele>432.790</ele>
        <time>2019-06-22T13:37:14Z</time>
      </trkpt>
      <trkpt lat="41.716481" lon="-7.440002">
        <ele>432.953</ele>
        <time>2019-06-22T13:37:15Z</time>
      </trkpt>
      <trkpt lat="41.716521" lon="-7.439787">
        <ele>433.252</ele>
        <time>2019-06-22T13:37:16Z</time>
      </trkpt>
      <trkpt lat="41.716540" lon="-7.439576">
        <ele>433.953</ele>
        <time>2019-06-22T13:37:17Z</time>
      </trkpt>
      <trkpt lat="41.716568" lon="-7.439356">
        <ele>434.708</ele>
        <time>2019-06-22T13:37:18Z</time>
      </trkpt>
      <trkpt lat="41.716594" lon="-7.439134">
        <ele>435.808</ele>
        <time>2019-06-22T13:37:19Z</time>
      </trkpt>
      <trkpt lat="41.716618" lon="-7.438899">
        <ele>437.268</ele>
        <time>2019-06-22T13:37:20Z</time>
      </trkpt>
      <trkpt lat="41.716636" lon="-7.438678">
        <ele>438.742</ele>
        <time>2019-06-22T13:37:21Z</time>
      </trkpt>
      <trkpt lat="41.716691" lon="-7.438482">
        <ele>439.964</ele>
        <time>2019-06-22T13:37:22Z</time>
      </trkpt>
      <trkpt lat="41.716792" lon="-7.438335">
        <ele>441.196</ele>
        <time>2019-06-22T13:37:23Z</time>
      </trkpt>
      <trkpt lat="41.716872" lon="-7.438170">
        <ele>442.284</ele>
        <time>2019-06-22T13:37:24Z</time>
      </trkpt>
      <trkpt lat="41.716938" lon="-7.438011">
        <ele>442.993</ele>
        <time>2019-06-22T13:37:25Z</time>
      </trkpt>
      <trkpt lat="41.716946" lon="-7.437870">
        <ele>443.248</ele>
        <time>2019-06-22T13:37:26Z</time>
      </trkpt>
      <trkpt lat="41.716952" lon="-7.437706">
        <ele>443.761</ele>
        <time>2019-06-22T13:37:27Z</time>
      </trkpt>
      <trkpt lat="41.716929" lon="-7.437559">
        <ele>444.597</ele>
        <time>2019-06-22T13:37:28Z</time>
      </trkpt>
      <trkpt lat="41.716890" lon="-7.437418">
        <ele>445.123</ele>
        <time>2019-06-22T13:37:29Z</time>
      </trkpt>
      <trkpt lat="41.716837" lon="-7.437292">
        <ele>445.125</ele>
        <time>2019-06-22T13:37:30Z</time>
      </trkpt>
      <trkpt lat="41.716756" lon="-7.437169">
        <ele>445.908</ele>
        <time>2019-06-22T13:37:31Z</time>
      </trkpt>
      <trkpt lat="41.716662" lon="-7.437066">
        <ele>447.072</ele>
        <time>2019-06-22T13:37:32Z</time>
      </trkpt>
      <trkpt lat="41.716592" lon="-7.436954">
        <ele>447.766</ele>
        <time>2019-06-22T13:37:33Z</time>
      </trkpt>
      <trkpt lat="41.716540" lon="-7.436863">
        <ele>448.568</ele>
        <time>2019-06-22T13:37:34Z</time>
      </trkpt>
      <trkpt lat="41.716531" lon="-7.436751">
        <ele>449.970</ele>
        <time>2019-06-22T13:37:35Z</time>
      </trkpt>
      <trkpt lat="41.716513" lon="-7.436631">
        <ele>450.998</ele>
        <time>2019-06-22T13:37:36Z</time>
      </trkpt>
      <trkpt lat="41.716593" lon="-7.436513">
        <ele>451.517</ele>
        <time>2019-06-22T13:37:37Z</time>
      </trkpt>
      <trkpt lat="41.716663" lon="-7.436409">
        <ele>452.272</ele>
        <time>2019-06-22T13:37:38Z</time>
      </trkpt>
      <trkpt lat="41.716746" lon="-7.436307">
        <ele>452.635</ele>
        <time>2019-06-22T13:37:39Z</time>
      </trkpt>
      <trkpt lat="41.716847" lon="-7.436202">
        <ele>453.185</ele>
        <time>2019-06-22T13:37:40Z</time>
      </trkpt>
      <trkpt lat="41.716947" lon="-7.436096">
        <ele>453.589</ele>
        <time>2019-06-22T13:37:41Z</time>
      </trkpt>
      <trkpt lat="41.717031" lon="-7.435925">
        <ele>453.917</ele>
        <time>2019-06-22T13:37:42Z</time>
      </trkpt>
      <trkpt lat="41.717114" lon="-7.435762">
        <ele>454.108</ele>
        <time>2019-06-22T13:37:43Z</time>
      </trkpt>
      <trkpt lat="41.717201" lon="-7.435586">
        <ele>454.311</ele>
        <time>2019-06-22T13:37:44Z</time>
      </trkpt>
      <trkpt lat="41.717272" lon="-7.435416">
        <ele>454.895</ele>
        <time>2019-06-22T13:37:45Z</time>
      </trkpt>
      <trkpt lat="41.717333" lon="-7.435272">
        <ele>455.157</ele>
        <time>2019-06-22T13:37:46Z</time>
      </trkpt>
      <trkpt lat="41.717403" lon="-7.435129">
        <ele>455.879</ele>
        <time>2019-06-22T13:37:47Z</time>
      </trkpt>
      <trkpt lat="41.717483" lon="-7.435021">
        <ele>456.517</ele>
        <time>2019-06-22T13:37:48Z</time>
      </trkpt>
      <trkpt lat="41.717567" lon="-7.434919">
        <ele>457.566</ele>
        <time>2019-06-22T13:37:49Z</time>
      </trkpt>
      <trkpt lat="41.717720" lon="-7.434893">
        <ele>458.251</ele>
        <time>2019-06-22T13:37:50Z</time>
      </trkpt>
      <trkpt lat="41.717850" lon="-7.434872">
        <ele>459.044</ele>
        <time>2019-06-22T13:37:51Z</time>
      </trkpt>
      <trkpt lat="41.717978" lon="-7.434852">
        <ele>459.234</ele>
        <time>2019-06-22T13:37:52Z</time>
      </trkpt>
      <trkpt lat="41.718115" lon="-7.434807">
        <ele>459.555</ele>
        <time>2019-06-22T13:37:53Z</time>
      </trkpt>
      <trkpt lat="41.718277" lon="-7.434722">
        <ele>459.810</ele>
        <time>2019-06-22T13:37:54Z</time>
      </trkpt>
      <trkpt lat="41.718436" lon="-7.434618">
        <ele>460.008</ele>
        <time>2019-06-22T13:37:55Z</time>
      </trkpt>
      <trkpt lat="41.718547" lon="-7.434525">
        <ele>460.256</ele>
        <time>2019-06-22T13:37:56Z</time>
      </trkpt>
      <trkpt lat="41.718678" lon="-7.434398">
        <ele>460.790</ele>
        <time>2019-06-22T13:37:57Z</time>
      </trkpt>
      <trkpt lat="41.718811" lon="-7.434267">
        <ele>461.582</ele>
        <time>2019-06-22T13:37:58Z</time>
      </trkpt>
      <trkpt lat="41.718942" lon="-7.434132">
        <ele>462.524</ele>
        <time>2019-06-22T13:37:59Z</time>
      </trkpt>
      <trkpt lat="41.719072" lon="-7.433991">
        <ele>463.742</ele>
        <time>2019-06-22T13:38:00Z</time>
      </trkpt>
      <trkpt lat="41.719209" lon="-7.433849">
        <ele>464.881</ele>
        <time>2019-06-22T13:38:01Z</time>
      </trkpt>
      <trkpt lat="41.719329" lon="-7.433706">
        <ele>465.526</ele>
        <time>2019-06-22T13:38:02Z</time>
      </trkpt>
      <trkpt lat="41.719449" lon="-7.433562">
        <ele>466.069</ele>
        <time>2019-06-22T13:38:03Z</time>
      </trkpt>
      <trkpt lat="41.719553" lon="-7.433443">
        <ele>466.541</ele>
        <time>2019-06-22T13:38:04Z</time>
      </trkpt>
      <trkpt lat="41.719655" lon="-7.433314">
        <ele>467.181</ele>
        <time>2019-06-22T13:38:05Z</time>
      </trkpt>
      <trkpt lat="41.719747" lon="-7.433170">
        <ele>467.909</ele>
        <time>2019-06-22T13:38:06Z</time>
      </trkpt>
      <trkpt lat="41.719844" lon="-7.433023">
        <ele>469.008</ele>
        <time>2019-06-22T13:38:07Z</time>
      </trkpt>
      <trkpt lat="41.719933" lon="-7.432859">
        <ele>470.747</ele>
        <time>2019-06-22T13:38:08Z</time>
      </trkpt>
      <trkpt lat="41.720013" lon="-7.432705">
        <ele>472.161</ele>
        <time>2019-06-22T13:38:09Z</time>
      </trkpt>
      <trkpt lat="41.720030" lon="-7.432519">
        <ele>473.313</ele>
        <time>2019-06-22T13:38:10Z</time>
      </trkpt>
      <trkpt lat="41.720034" lon="-7.432330">
        <ele>474.355</ele>
        <time>2019-06-22T13:38:11Z</time>
      </trkpt>
      <trkpt lat="41.720012" lon="-7.432147">
        <ele>475.283</ele>
        <time>2019-06-22T13:38:12Z</time>
      </trkpt>
      <trkpt lat="41.720003" lon="-7.431958">
        <ele>475.872</ele>
        <time>2019-06-22T13:38:13Z</time>
      </trkpt>
      <trkpt lat="41.719972" lon="-7.431763">
        <ele>476.127</ele>
        <time>2019-06-22T13:38:14Z</time>
      </trkpt>
      <trkpt lat="41.719936" lon="-7.431599">
        <ele>476.360</ele>
        <time>2019-06-22T13:38:15Z</time>
      </trkpt>
      <trkpt lat="41.719862" lon="-7.431396">
        <ele>476.754</ele>
        <time>2019-06-22T13:38:16Z</time>
      </trkpt>
      <trkpt lat="41.719802" lon="-7.431196">
        <ele>476.756</ele>
        <time>2019-06-22T13:38:17Z</time>
      </trkpt>
      <trkpt lat="41.719736" lon="-7.430974">
        <ele>477.411</ele>
        <time>2019-06-22T13:38:18Z</time>
      </trkpt>
      <trkpt lat="41.719698" lon="-7.430745">
        <ele>478.308</ele>
        <time>2019-06-22T13:38:19Z</time>
      </trkpt>
      <trkpt lat="41.719666" lon="-7.430521">
        <ele>479.378</ele>
        <time>2019-06-22T13:38:20Z</time>
      </trkpt>
      <trkpt lat="41.719610" lon="-7.430315">
        <ele>480.312</ele>
        <time>2019-06-22T13:38:21Z</time>
      </trkpt>
      <trkpt lat="41.719594" lon="-7.430101">
        <ele>481.314</ele>
        <time>2019-06-22T13:38:22Z</time>
      </trkpt>
      <trkpt lat="41.719569" lon="-7.429873">
        <ele>482.336</ele>
        <time>2019-06-22T13:38:23Z</time>
      </trkpt>
      <trkpt lat="41.719532" lon="-7.429640">
        <ele>483.084</ele>
        <time>2019-06-22T13:38:24Z</time>
      </trkpt>
      <trkpt lat="41.719510" lon="-7.429438">
        <ele>483.773</ele>
        <time>2019-06-22T13:38:25Z</time>
      </trkpt>
      <trkpt lat="41.719497" lon="-7.429257">
        <ele>483.738</ele>
        <time>2019-06-22T13:38:26Z</time>
      </trkpt>
      <trkpt lat="41.719472" lon="-7.429086">
        <ele>483.931</ele>
        <time>2019-06-22T13:38:27Z</time>
      </trkpt>
      <trkpt lat="41.719455" lon="-7.428929">
        <ele>484.121</ele>
        <time>2019-06-22T13:38:28Z</time>
      </trkpt>
      <trkpt lat="41.719399" lon="-7.428801">
        <ele>484.241</ele>
        <time>2019-06-22T13:38:29Z</time>
      </trkpt>
      <trkpt lat="41.719362" lon="-7.428678">
        <ele>484.205</ele>
        <time>2019-06-22T13:38:30Z</time>
      </trkpt>
      <trkpt lat="41.719318" lon="-7.428543">
        <ele>485.808</ele>
        <time>2019-06-22T13:38:31Z</time>
      </trkpt>
      <trkpt lat="41.719257" lon="-7.428438">
        <ele>487.185</ele>
        <time>2019-06-22T13:38:32Z</time>
      </trkpt>
      <trkpt lat="41.719199" lon="-7.428315">
        <ele>488.519</ele>
        <time>2019-06-22T13:38:33Z</time>
      </trkpt>
      <trkpt lat="41.719164" lon="-7.428182">
        <ele>489.941</ele>
        <time>2019-06-22T13:38:34Z</time>
      </trkpt>
      <trkpt lat="41.719197" lon="-7.428029">
        <ele>491.523</ele>
        <time>2019-06-22T13:38:35Z</time>
      </trkpt>
      <trkpt lat="41.719281" lon="-7.427912">
        <ele>492.351</ele>
        <time>2019-06-22T13:38:36Z</time>
      </trkpt>
      <trkpt lat="41.719343" lon="-7.427799">
        <ele>493.050</ele>
        <time>2019-06-22T13:38:37Z</time>
      </trkpt>
      <trkpt lat="41.719475" lon="-7.427697">
        <ele>493.575</ele>
        <time>2019-06-22T13:38:38Z</time>
      </trkpt>
      <trkpt lat="41.719565" lon="-7.427621">
        <ele>493.668</ele>
        <time>2019-06-22T13:38:39Z</time>
      </trkpt>
      <trkpt lat="41.719639" lon="-7.427539">
        <ele>493.642</ele>
        <time>2019-06-22T13:38:40Z</time>
      </trkpt>
      <trkpt lat="41.719705" lon="-7.427449">
        <ele>493.422</ele>
        <time>2019-06-22T13:38:41Z</time>
      </trkpt>
      <trkpt lat="41.719746" lon="-7.427355">
        <ele>493.414</ele>
        <time>2019-06-22T13:38:42Z</time>
      </trkpt>
      <trkpt lat="41.719800" lon="-7.427242">
        <ele>493.508</ele>
        <time>2019-06-22T13:38:43Z</time>
      </trkpt>
      <trkpt lat="41.719757" lon="-7.427041">
        <ele>493.887</ele>
        <time>2019-06-22T13:38:44Z</time>
      </trkpt>
      <trkpt lat="41.719748" lon="-7.426870">
        <ele>494.741</ele>
        <time>2019-06-22T13:38:45Z</time>
      </trkpt>
      <trkpt lat="41.719739" lon="-7.426698">
        <ele>495.853</ele>
        <time>2019-06-22T13:38:46Z</time>
      </trkpt>
      <trkpt lat="41.719722" lon="-7.426520">
        <ele>496.865</ele>
        <time>2019-06-22T13:38:47Z</time>
      </trkpt>
      <trkpt lat="41.719693" lon="-7.426338">
        <ele>497.533</ele>
        <time>2019-06-22T13:38:48Z</time>
      </trkpt>
      <trkpt lat="41.719647" lon="-7.426165">
        <ele>498.072</ele>
        <time>2019-06-22T13:38:49Z</time>
      </trkpt>
      <trkpt lat="41.719596" lon="-7.426008">
        <ele>498.487</ele>
        <time>2019-06-22T13:38:50Z</time>
      </trkpt>
      <trkpt lat="41.719563" lon="-7.425863">
        <ele>498.930</ele>
        <time>2019-06-22T13:38:51Z</time>
      </trkpt>
      <trkpt lat="41.719557" lon="-7.425727">
        <ele>499.948</ele>
        <time>2019-06-22T13:38:52Z</time>
      </trkpt>
      <trkpt lat="41.719558" lon="-7.425591">
        <ele>501.061</ele>
        <time>2019-06-22T13:38:53Z</time>
      </trkpt>
      <trkpt lat="41.719582" lon="-7.425452">
        <ele>502.117</ele>
        <time>2019-06-22T13:38:54Z</time>
      </trkpt>
      <trkpt lat="41.719694" lon="-7.425322">
        <ele>503.008</ele>
        <time>2019-06-22T13:38:55Z</time>
      </trkpt>
      <trkpt lat="41.719774" lon="-7.425195">
        <ele>503.837</ele>
        <time>2019-06-22T13:38:56Z</time>
      </trkpt>
      <trkpt lat="41.719849" lon="-7.425081">
        <ele>504.291</ele>
        <time>2019-06-22T13:38:57Z</time>
      </trkpt>
      <trkpt lat="41.719944" lon="-7.425006">
        <ele>504.613</ele>
        <time>2019-06-22T13:38:58Z</time>
      </trkpt>
      <trkpt lat="41.720093" lon="-7.425002">
        <ele>504.875</ele>
        <time>2019-06-22T13:38:59Z</time>
      </trkpt>
      <trkpt lat="41.720197" lon="-7.424943">
        <ele>504.953</ele>
        <time>2019-06-22T13:39:00Z</time>
      </trkpt>
      <trkpt lat="41.720252" lon="-7.424869">
        <ele>505.052</ele>
        <time>2019-06-22T13:39:01Z</time>
      </trkpt>
      <trkpt lat="41.720315" lon="-7.424774">
        <ele>505.127</ele>
        <time>2019-06-22T13:39:02Z</time>
      </trkpt>
      <trkpt lat="41.720364" lon="-7.424683">
        <ele>505.430</ele>
        <time>2019-06-22T13:39:03Z</time>
      </trkpt>
      <trkpt lat="41.720329" lon="-7.424549">
        <ele>505.547</ele>
        <time>2019-06-22T13:39:04Z</time>
      </trkpt>
      <trkpt lat="41.720326" lon="-7.424394">
        <ele>506.329</ele>
        <time>2019-06-22T13:39:05Z</time>
      </trkpt>
      <trkpt lat="41.720347" lon="-7.424250">
        <ele>507.321</ele>
        <time>2019-06-22T13:39:06Z</time>
      </trkpt>
      <trkpt lat="41.720399" lon="-7.424117">
        <ele>508.108</ele>
        <time>2019-06-22T13:39:07Z</time>
      </trkpt>
      <trkpt lat="41.720455" lon="-7.423992">
        <ele>508.967</ele>
        <time>2019-06-22T13:39:08Z</time>
      </trkpt>
      <trkpt lat="41.720526" lon="-7.423907">
        <ele>509.791</ele>
        <time>2019-06-22T13:39:09Z</time>
      </trkpt>
      <trkpt lat="41.720620" lon="-7.423850">
        <ele>510.223</ele>
        <time>2019-06-22T13:39:10Z</time>
      </trkpt>
      <trkpt lat="41.720726" lon="-7.423828">
        <ele>510.585</ele>
        <time>2019-06-22T13:39:11Z</time>
      </trkpt>
      <trkpt lat="41.720825" lon="-7.423825">
        <ele>510.613</ele>
        <time>2019-06-22T13:39:12Z</time>
      </trkpt>
      <trkpt lat="41.720922" lon="-7.423826">
        <ele>510.652</ele>
        <time>2019-06-22T13:39:13Z</time>
      </trkpt>
      <trkpt lat="41.721013" lon="-7.423988">
        <ele>510.667</ele>
        <time>2019-06-22T13:39:14Z</time>
      </trkpt>
      <trkpt lat="41.721103" lon="-7.424092">
        <ele>510.750</ele>
        <time>2019-06-22T13:39:15Z</time>
      </trkpt>
      <trkpt lat="41.721185" lon="-7.424210">
        <ele>510.887</ele>
        <time>2019-06-22T13:39:16Z</time>
      </trkpt>
      <trkpt lat="41.721263" lon="-7.424333">
        <ele>511.042</ele>
        <time>2019-06-22T13:39:17Z</time>
      </trkpt>
      <trkpt lat="41.721283" lon="-7.424556">
        <ele>511.326</ele>
        <time>2019-06-22T13:39:18Z</time>
      </trkpt>
      <trkpt lat="41.721314" lon="-7.424727">
        <ele>511.608</ele>
        <time>2019-06-22T13:39:19Z</time>
      </trkpt>
      <trkpt lat="41.721355" lon="-7.424881">
        <ele>511.631</ele>
        <time>2019-06-22T13:39:20Z</time>
      </trkpt>
      <trkpt lat="41.721429" lon="-7.425025">
        <ele>511.625</ele>
        <time>2019-06-22T13:39:21Z</time>
      </trkpt>
      <trkpt lat="41.721514" lon="-7.425165">
        <ele>511.737</ele>
        <time>2019-06-22T13:39:22Z</time>
      </trkpt>
      <trkpt lat="41.721588" lon="-7.425298">
        <ele>511.779</ele>
        <time>2019-06-22T13:39:23Z</time>
      </trkpt>
      <trkpt lat="41.721638" lon="-7.425441">
        <ele>512.127</ele>
        <time>2019-06-22T13:39:24Z</time>
      </trkpt>
      <trkpt lat="41.721659" lon="-7.425598">
        <ele>512.646</ele>
        <time>2019-06-22T13:39:25Z</time>
      </trkpt>
      <trkpt lat="41.721655" lon="-7.425779">
        <ele>513.291</ele>
        <time>2019-06-22T13:39:26Z</time>
      </trkpt>
      <trkpt lat="41.721636" lon="-7.425935">
        <ele>514.224</ele>
        <time>2019-06-22T13:39:27Z</time>
      </trkpt>
      <trkpt lat="41.721599" lon="-7.426097">
        <ele>514.921</ele>
        <time>2019-06-22T13:39:28Z</time>
      </trkpt>
      <trkpt lat="41.721566" lon="-7.426238">
        <ele>515.241</ele>
        <time>2019-06-22T13:39:29Z</time>
      </trkpt>
      <trkpt lat="41.721546" lon="-7.426375">
        <ele>515.205</ele>
        <time>2019-06-22T13:39:30Z</time>
      </trkpt>
      <trkpt lat="41.721560" lon="-7.426518">
        <ele>515.108</ele>
        <time>2019-06-22T13:39:31Z</time>
      </trkpt>
      <trkpt lat="41.721573" lon="-7.426676">
        <ele>515.115</ele>
        <time>2019-06-22T13:39:32Z</time>
      </trkpt>
      <trkpt lat="41.721616" lon="-7.426828">
        <ele>515.119</ele>
        <time>2019-06-22T13:39:33Z</time>
      </trkpt>
      <trkpt lat="41.721654" lon="-7.426991">
        <ele>515.611</ele>
        <time>2019-06-22T13:39:34Z</time>
      </trkpt>
      <trkpt lat="41.721668" lon="-7.427183">
        <ele>516.683</ele>
        <time>2019-06-22T13:39:35Z</time>
      </trkpt>
      <trkpt lat="41.721670" lon="-7.427356">
        <ele>517.871</ele>
        <time>2019-06-22T13:39:36Z</time>
      </trkpt>
      <trkpt lat="41.721675" lon="-7.427528">
        <ele>519.260</ele>
        <time>2019-06-22T13:39:37Z</time>
      </trkpt>
      <trkpt lat="41.721689" lon="-7.427675">
        <ele>520.125</ele>
        <time>2019-06-22T13:39:38Z</time>
      </trkpt>
      <trkpt lat="41.721731" lon="-7.427833">
        <ele>520.658</ele>
        <time>2019-06-22T13:39:39Z</time>
      </trkpt>
      <trkpt lat="41.721791" lon="-7.427972">
        <ele>521.159</ele>
        <time>2019-06-22T13:39:40Z</time>
      </trkpt>
      <trkpt lat="41.721869" lon="-7.428102">
        <ele>521.403</ele>
        <time>2019-06-22T13:39:41Z</time>
      </trkpt>
      <trkpt lat="41.721959" lon="-7.428226">
        <ele>521.723</ele>
        <time>2019-06-22T13:39:42Z</time>
      </trkpt>
      <trkpt lat="41.722043" lon="-7.428256">
        <ele>522.308</ele>
        <time>2019-06-22T13:39:43Z</time>
      </trkpt>
      <trkpt lat="41.722144" lon="-7.428293">
        <ele>523.098</ele>
        <time>2019-06-22T13:39:44Z</time>
      </trkpt>
      <trkpt lat="41.722268" lon="-7.428279">
        <ele>523.772</ele>
        <time>2019-06-22T13:39:45Z</time>
      </trkpt>
      <trkpt lat="41.722432" lon="-7.428163">
        <ele>524.524</ele>
        <time>2019-06-22T13:39:46Z</time>
      </trkpt>
      <trkpt lat="41.722557" lon="-7.428084">
        <ele>525.446</ele>
        <time>2019-06-22T13:39:47Z</time>
      </trkpt>
      <trkpt lat="41.722683" lon="-7.428013">
        <ele>526.364</ele>
        <time>2019-06-22T13:39:48Z</time>
      </trkpt>
      <trkpt lat="41.722821" lon="-7.427974">
        <ele>527.573</ele>
        <time>2019-06-22T13:39:49Z</time>
      </trkpt>
      <trkpt lat="41.722956" lon="-7.427949">
        <ele>528.728</ele>
        <time>2019-06-22T13:39:50Z</time>
      </trkpt>
      <trkpt lat="41.723069" lon="-7.427930">
        <ele>529.991</ele>
        <time>2019-06-22T13:39:51Z</time>
      </trkpt>
      <trkpt lat="41.723169" lon="-7.427915">
        <ele>531.061</ele>
        <time>2019-06-22T13:39:52Z</time>
      </trkpt>
      <trkpt lat="41.723264" lon="-7.427889">
        <ele>532.021</ele>
        <time>2019-06-22T13:39:53Z</time>
      </trkpt>
      <trkpt lat="41.723321" lon="-7.427861">
        <ele>532.513</ele>
        <time>2019-06-22T13:39:54Z</time>
      </trkpt>
      <trkpt lat="41.723379" lon="-7.427829">
        <ele>533.208</ele>
        <time>2019-06-22T13:39:55Z</time>
      </trkpt>
      <trkpt lat="41.723433" lon="-7.427819">
        <ele>533.899</ele>
        <time>2019-06-22T13:39:56Z</time>
      </trkpt>
      <trkpt lat="41.723480" lon="-7.427884">
        <ele>535.893</ele>
        <time>2019-06-22T13:39:59Z</time>
      </trkpt>
      <trkpt lat="41.723488" lon="-7.427970">
        <ele>536.265</ele>
        <time>2019-06-22T13:40:01Z</time>
      </trkpt>
      <trkpt lat="41.723497" lon="-7.428066">
        <ele>536.237</ele>
        <time>2019-06-22T13:40:03Z</time>
      </trkpt>
      <trkpt lat="41.723476" lon="-7.428122">
        <ele>535.945</ele>
        <time>2019-06-22T13:40:07Z</time>
      </trkpt>
      <trkpt lat="41.723465" lon="-7.428188">
        <ele>536.414</ele>
        <time>2019-06-22T13:41:11Z</time>
      </trkpt>
      <trkpt lat="41.723423" lon="-7.428130">
        <ele>536.799</ele>
        <time>2019-06-22T13:41:23Z</time>
      </trkpt>
      <trkpt lat="41.723445" lon="-7.428077">
        <ele>536.582</ele>
        <time>2019-06-22T13:41:42Z</time>
      </trkpt>
      <trkpt lat="41.723428" lon="-7.428017">
        <ele>536.357</ele>
        <time>2019-06-22T13:42:43Z</time>
      </trkpt>
      <trkpt lat="41.723436" lon="-7.427944">
        <ele>536.200</ele>
        <time>2019-06-22T13:42:44Z</time>
      </trkpt>
      <trkpt lat="41.723459" lon="-7.427841">
        <ele>536.120</ele>
        <time>2019-06-22T13:42:45Z</time>
      </trkpt>
      <trkpt lat="41.723540" lon="-7.427662">
        <ele>536.008</ele>
        <time>2019-06-22T13:42:46Z</time>
      </trkpt>
      <trkpt lat="41.723574" lon="-7.427512">
        <ele>535.958</ele>
        <time>2019-06-22T13:42:47Z</time>
      </trkpt>
      <trkpt lat="41.723612" lon="-7.427351">
        <ele>535.972</ele>
        <time>2019-06-22T13:42:48Z</time>
      </trkpt>
      <trkpt lat="41.723657" lon="-7.427169">
        <ele>536.314</ele>
        <time>2019-06-22T13:42:49Z</time>
      </trkpt>
      <trkpt lat="41.723713" lon="-7.427002">
        <ele>536.726</ele>
        <time>2019-06-22T13:42:50Z</time>
      </trkpt>
      <trkpt lat="41.723773" lon="-7.426821">
        <ele>537.084</ele>
        <time>2019-06-22T13:42:51Z</time>
      </trkpt>
      <trkpt lat="41.723849" lon="-7.426649">
        <ele>537.443</ele>
        <time>2019-06-22T13:42:52Z</time>
      </trkpt>
      <trkpt lat="41.723932" lon="-7.426479">
        <ele>537.698</ele>
        <time>2019-06-22T13:42:53Z</time>
      </trkpt>
      <trkpt lat="41.724023" lon="-7.426309">
        <ele>537.621</ele>
        <time>2019-06-22T13:42:54Z</time>
      </trkpt>
      <trkpt lat="41.724101" lon="-7.426128">
        <ele>537.623</ele>
        <time>2019-06-22T13:42:55Z</time>
      </trkpt>
      <trkpt lat="41.724176" lon="-7.425938">
        <ele>537.683</ele>
        <time>2019-06-22T13:42:56Z</time>
      </trkpt>
      <trkpt lat="41.724242" lon="-7.425741">
        <ele>538.011</ele>
        <time>2019-06-22T13:42:57Z</time>
      </trkpt>
      <trkpt lat="41.724312" lon="-7.425531">
        <ele>538.708</ele>
        <time>2019-06-22T13:42:58Z</time>
      </trkpt>
      <trkpt lat="41.724368" lon="-7.425322">
        <ele>538.835</ele>
        <time>2019-06-22T13:42:59Z</time>
      </trkpt>
      <trkpt lat="41.724437" lon="-7.425119">
        <ele>539.689</ele>
        <time>2019-06-22T13:43:00Z</time>
      </trkpt>
      <trkpt lat="41.724523" lon="-7.424921">
        <ele>540.931</ele>
        <time>2019-06-22T13:43:01Z</time>
      </trkpt>
      <trkpt lat="41.724597" lon="-7.424715">
        <ele>542.123</ele>
        <time>2019-06-22T13:43:02Z</time>
      </trkpt>
      <trkpt lat="41.724672" lon="-7.424512">
        <ele>543.321</ele>
        <time>2019-06-22T13:43:03Z</time>
      </trkpt>
      <trkpt lat="41.724748" lon="-7.424289">
        <ele>544.730</ele>
        <time>2019-06-22T13:43:04Z</time>
      </trkpt>
      <trkpt lat="41.724804" lon="-7.424055">
        <ele>546.255</ele>
        <time>2019-06-22T13:43:05Z</time>
      </trkpt>
      <trkpt lat="41.724858" lon="-7.423816">
        <ele>546.988</ele>
        <time>2019-06-22T13:43:06Z</time>
      </trkpt>
      <trkpt lat="41.724903" lon="-7.423575">
        <ele>548.365</ele>
        <time>2019-06-22T13:43:07Z</time>
      </trkpt>
      <trkpt lat="41.724954" lon="-7.423333">
        <ele>548.468</ele>
        <time>2019-06-22T13:43:08Z</time>
      </trkpt>
      <trkpt lat="41.724984" lon="-7.423056">
        <ele>549.214</ele>
        <time>2019-06-22T13:43:09Z</time>
      </trkpt>
      <trkpt lat="41.725015" lon="-7.422805">
        <ele>550.508</ele>
        <time>2019-06-22T13:43:10Z</time>
      </trkpt>
      <trkpt lat="41.725045" lon="-7.422562">
        <ele>551.379</ele>
        <time>2019-06-22T13:43:11Z</time>
      </trkpt>
      <trkpt lat="41.725076" lon="-7.422328">
        <ele>552.623</ele>
        <time>2019-06-22T13:43:12Z</time>
      </trkpt>
      <trkpt lat="41.725109" lon="-7.422103">
        <ele>554.015</ele>
        <time>2019-06-22T13:43:13Z</time>
      </trkpt>
      <trkpt lat="41.725121" lon="-7.421893">
        <ele>555.487</ele>
        <time>2019-06-22T13:43:14Z</time>
      </trkpt>
      <trkpt lat="41.725122" lon="-7.421712">
        <ele>556.385</ele>
        <time>2019-06-22T13:43:15Z</time>
      </trkpt>
      <trkpt lat="41.725108" lon="-7.421541">
        <ele>557.644</ele>
        <time>2019-06-22T13:43:16Z</time>
      </trkpt>
      <trkpt lat="41.725047" lon="-7.421433">
        <ele>558.539</ele>
        <time>2019-06-22T13:43:17Z</time>
      </trkpt>
      <trkpt lat="41.724972" lon="-7.421305">
        <ele>559.022</ele>
        <time>2019-06-22T13:43:18Z</time>
      </trkpt>
      <trkpt lat="41.724873" lon="-7.421184">
        <ele>559.721</ele>
        <time>2019-06-22T13:43:19Z</time>
      </trkpt>
      <trkpt lat="41.724769" lon="-7.421068">
        <ele>560.641</ele>
        <time>2019-06-22T13:43:20Z</time>
      </trkpt>
      <trkpt lat="41.724667" lon="-7.420944">
        <ele>562.105</ele>
        <time>2019-06-22T13:43:21Z</time>
      </trkpt>
      <trkpt lat="41.724573" lon="-7.420803">
        <ele>562.108</ele>
        <time>2019-06-22T13:43:22Z</time>
      </trkpt>
      <trkpt lat="41.724492" lon="-7.420652">
        <ele>563.425</ele>
        <time>2019-06-22T13:43:23Z</time>
      </trkpt>
      <trkpt lat="41.724444" lon="-7.420496">
        <ele>564.599</ele>
        <time>2019-06-22T13:43:24Z</time>
      </trkpt>
      <trkpt lat="41.724419" lon="-7.420373">
        <ele>564.921</ele>
        <time>2019-06-22T13:43:25Z</time>
      </trkpt>
      <trkpt lat="41.724382" lon="-7.420246">
        <ele>566.273</ele>
        <time>2019-06-22T13:43:26Z</time>
      </trkpt>
      <trkpt lat="41.724362" lon="-7.420126">
        <ele>567.171</ele>
        <time>2019-06-22T13:43:27Z</time>
      </trkpt>
      <trkpt lat="41.724346" lon="-7.420041">
        <ele>567.920</ele>
        <time>2019-06-22T13:43:28Z</time>
      </trkpt>
      <trkpt lat="41.724317" lon="-7.419954">
        <ele>568.835</ele>
        <time>2019-06-22T13:43:29Z</time>
      </trkpt>
      <trkpt lat="41.724293" lon="-7.419886">
        <ele>570.128</ele>
        <time>2019-06-22T13:43:30Z</time>
      </trkpt>
      <trkpt lat="41.724276" lon="-7.419780">
        <ele>571.729</ele>
        <time>2019-06-22T13:43:37Z</time>
      </trkpt>
      <trkpt lat="41.724245" lon="-7.419691">
        <ele>571.700</ele>
        <time>2019-06-22T13:43:38Z</time>
      </trkpt>
      <trkpt lat="41.724215" lon="-7.419583">
        <ele>571.720</ele>
        <time>2019-06-22T13:43:39Z</time>
      </trkpt>
      <trkpt lat="41.724174" lon="-7.419469">
        <ele>571.808</ele>
        <time>2019-06-22T13:43:40Z</time>
      </trkpt>
      <trkpt lat="41.724128" lon="-7.419348">
        <ele>572.095</ele>
        <time>2019-06-22T13:43:41Z</time>
      </trkpt>
      <trkpt lat="41.724065" lon="-7.419207">
        <ele>572.349</ele>
        <time>2019-06-22T13:43:42Z</time>
      </trkpt>
      <trkpt lat="41.724020" lon="-7.419066">
        <ele>572.561</ele>
        <time>2019-06-22T13:43:43Z</time>
      </trkpt>
      <trkpt lat="41.723953" lon="-7.418907">
        <ele>572.713</ele>
        <time>2019-06-22T13:43:44Z</time>
      </trkpt>
      <trkpt lat="41.723888" lon="-7.418755">
        <ele>572.751</ele>
        <time>2019-06-22T13:43:45Z</time>
      </trkpt>
      <trkpt lat="41.723823" lon="-7.418610">
        <ele>572.740</ele>
        <time>2019-06-22T13:43:46Z</time>
      </trkpt>
      <trkpt lat="41.723768" lon="-7.418470">
        <ele>572.925</ele>
        <time>2019-06-22T13:43:47Z</time>
      </trkpt>
      <trkpt lat="41.723711" lon="-7.418324">
        <ele>573.898</ele>
        <time>2019-06-22T13:43:48Z</time>
      </trkpt>
      <trkpt lat="41.723691" lon="-7.418176">
        <ele>574.676</ele>
        <time>2019-06-22T13:43:49Z</time>
      </trkpt>
      <trkpt lat="41.723755" lon="-7.418002">
        <ele>575.890</ele>
        <time>2019-06-22T13:43:50Z</time>
      </trkpt>
      <trkpt lat="41.723772" lon="-7.417838">
        <ele>576.919</ele>
        <time>2019-06-22T13:43:51Z</time>
      </trkpt>
      <trkpt lat="41.723791" lon="-7.417644">
        <ele>578.008</ele>
        <time>2019-06-22T13:43:52Z</time>
      </trkpt>
      <trkpt lat="41.723820" lon="-7.417444">
        <ele>578.080</ele>
        <time>2019-06-22T13:43:53Z</time>
      </trkpt>
      <trkpt lat="41.723853" lon="-7.417240">
        <ele>577.884</ele>
        <time>2019-06-22T13:43:54Z</time>
      </trkpt>
      <trkpt lat="41.723872" lon="-7.417024">
        <ele>577.866</ele>
        <time>2019-06-22T13:43:55Z</time>
      </trkpt>
      <trkpt lat="41.723897" lon="-7.416815">
        <ele>578.158</ele>
        <time>2019-06-22T13:43:56Z</time>
      </trkpt>
      <trkpt lat="41.723929" lon="-7.416607">
        <ele>578.726</ele>
        <time>2019-06-22T13:43:57Z</time>
      </trkpt>
      <trkpt lat="41.723955" lon="-7.416397">
        <ele>579.135</ele>
        <time>2019-06-22T13:43:58Z</time>
      </trkpt>
      <trkpt lat="41.723984" lon="-7.416193">
        <ele>579.160</ele>
        <time>2019-06-22T13:43:59Z</time>
      </trkpt>
      <trkpt lat="41.724019" lon="-7.416014">
        <ele>580.723</ele>
        <time>2019-06-22T13:44:00Z</time>
      </trkpt>
      <trkpt lat="41.724040" lon="-7.415838">
        <ele>582.193</ele>
        <time>2019-06-22T13:44:01Z</time>
      </trkpt>
      <trkpt lat="41.724063" lon="-7.415670">
        <ele>583.065</ele>
        <time>2019-06-22T13:44:02Z</time>
      </trkpt>
      <trkpt lat="41.724073" lon="-7.415498">
        <ele>583.321</ele>
        <time>2019-06-22T13:44:03Z</time>
      </trkpt>
      <trkpt lat="41.724053" lon="-7.415345">
        <ele>584.408</ele>
        <time>2019-06-22T13:44:04Z</time>
      </trkpt>
      <trkpt lat="41.724004" lon="-7.415195">
        <ele>584.982</ele>
        <time>2019-06-22T13:44:05Z</time>
      </trkpt>
      <trkpt lat="41.723950" lon="-7.415054">
        <ele>585.076</ele>
        <time>2019-06-22T13:44:06Z</time>
      </trkpt>
      <trkpt lat="41.723884" lon="-7.414921">
        <ele>585.828</ele>
        <time>2019-06-22T13:44:07Z</time>
      </trkpt>
      <trkpt lat="41.723786" lon="-7.414781">
        <ele>586.970</ele>
        <time>2019-06-22T13:44:08Z</time>
      </trkpt>
      <trkpt lat="41.723687" lon="-7.414641">
        <ele>587.738</ele>
        <time>2019-06-22T13:44:09Z</time>
      </trkpt>
      <trkpt lat="41.723579" lon="-7.414473">
        <ele>588.517</ele>
        <time>2019-06-22T13:44:10Z</time>
      </trkpt>
      <trkpt lat="41.723480" lon="-7.414309">
        <ele>589.392</ele>
        <time>2019-06-22T13:44:11Z</time>
      </trkpt>
      <trkpt lat="41.723376" lon="-7.414149">
        <ele>589.625</ele>
        <time>2019-06-22T13:44:12Z</time>
      </trkpt>
      <trkpt lat="41.723267" lon="-7.413989">
        <ele>589.968</ele>
        <time>2019-06-22T13:44:13Z</time>
      </trkpt>
      <trkpt lat="41.723158" lon="-7.413806">
        <ele>589.942</ele>
        <time>2019-06-22T13:44:14Z</time>
      </trkpt>
      <trkpt lat="41.723058" lon="-7.413617">
        <ele>590.326</ele>
        <time>2019-06-22T13:44:15Z</time>
      </trkpt>
      <trkpt lat="41.722974" lon="-7.413428">
        <ele>591.108</ele>
        <time>2019-06-22T13:44:16Z</time>
      </trkpt>
      <trkpt lat="41.722912" lon="-7.413233">
        <ele>591.799</ele>
        <time>2019-06-22T13:44:17Z</time>
      </trkpt>
      <trkpt lat="41.722885" lon="-7.413041">
        <ele>592.963</ele>
        <time>2019-06-22T13:44:18Z</time>
      </trkpt>
      <trkpt lat="41.722848" lon="-7.412831">
        <ele>593.055</ele>
        <time>2019-06-22T13:44:19Z</time>
      </trkpt>
      <trkpt lat="41.722800" lon="-7.412645">
        <ele>593.167</ele>
        <time>2019-06-22T13:44:20Z</time>
      </trkpt>
      <trkpt lat="41.722769" lon="-7.412455">
        <ele>593.055</ele>
        <time>2019-06-22T13:44:21Z</time>
      </trkpt>
      <trkpt lat="41.722709" lon="-7.412289">
        <ele>592.974</ele>
        <time>2019-06-22T13:44:22Z</time>
      </trkpt>
      <trkpt lat="41.722639" lon="-7.412160">
        <ele>592.999</ele>
        <time>2019-06-22T13:44:23Z</time>
      </trkpt>
      <trkpt lat="41.722548" lon="-7.412079">
        <ele>593.192</ele>
        <time>2019-06-22T13:44:24Z</time>
      </trkpt>
      <trkpt lat="41.722442" lon="-7.412009">
        <ele>593.928</ele>
        <time>2019-06-22T13:44:25Z</time>
      </trkpt>
      <trkpt lat="41.722332" lon="-7.411948">
        <ele>594.689</ele>
        <time>2019-06-22T13:44:26Z</time>
      </trkpt>
      <trkpt lat="41.722211" lon="-7.411861">
        <ele>596.117</ele>
        <time>2019-06-22T13:44:27Z</time>
      </trkpt>
      <trkpt lat="41.722095" lon="-7.411742">
        <ele>597.408</ele>
        <time>2019-06-22T13:44:28Z</time>
      </trkpt>
      <trkpt lat="41.721998" lon="-7.411617">
        <ele>598.875</ele>
        <time>2019-06-22T13:44:29Z</time>
      </trkpt>
      <trkpt lat="41.721928" lon="-7.411496">
        <ele>599.989</ele>
        <time>2019-06-22T13:44:30Z</time>
      </trkpt>
      <trkpt lat="41.721875" lon="-7.411357">
        <ele>601.081</ele>
        <time>2019-06-22T13:44:31Z</time>
      </trkpt>
      <trkpt lat="41.721825" lon="-7.411207">
        <ele>601.743</ele>
        <time>2019-06-22T13:44:32Z</time>
      </trkpt>
      <trkpt lat="41.721815" lon="-7.411035">
        <ele>602.321</ele>
        <time>2019-06-22T13:44:33Z</time>
      </trkpt>
      <trkpt lat="41.721822" lon="-7.410865">
        <ele>602.970</ele>
        <time>2019-06-22T13:44:34Z</time>
      </trkpt>
      <trkpt lat="41.721864" lon="-7.410684">
        <ele>603.575</ele>
        <time>2019-06-22T13:44:35Z</time>
      </trkpt>
      <trkpt lat="41.721904" lon="-7.410494">
        <ele>604.088</ele>
        <time>2019-06-22T13:44:36Z</time>
      </trkpt>
      <trkpt lat="41.721932" lon="-7.410292">
        <ele>604.495</ele>
        <time>2019-06-22T13:44:37Z</time>
      </trkpt>
      <trkpt lat="41.721936" lon="-7.410083">
        <ele>604.449</ele>
        <time>2019-06-22T13:44:38Z</time>
      </trkpt>
      <trkpt lat="41.721934" lon="-7.409881">
        <ele>604.423</ele>
        <time>2019-06-22T13:44:39Z</time>
      </trkpt>
      <trkpt lat="41.721925" lon="-7.409688">
        <ele>604.408</ele>
        <time>2019-06-22T13:44:40Z</time>
      </trkpt>
      <trkpt lat="41.721906" lon="-7.409511">
        <ele>603.692</ele>
        <time>2019-06-22T13:44:41Z</time>
      </trkpt>
      <trkpt lat="41.721848" lon="-7.409361">
        <ele>602.946</ele>
        <time>2019-06-22T13:44:42Z</time>
      </trkpt>
      <trkpt lat="41.721780" lon="-7.409221">
        <ele>602.958</ele>
        <time>2019-06-22T13:44:43Z</time>
      </trkpt>
      <trkpt lat="41.721662" lon="-7.409145">
        <ele>603.550</ele>
        <time>2019-06-22T13:44:44Z</time>
      </trkpt>
      <trkpt lat="41.721550" lon="-7.409090">
        <ele>603.948</ele>
        <time>2019-06-22T13:44:45Z</time>
      </trkpt>
      <trkpt lat="41.721432" lon="-7.409050">
        <ele>605.877</ele>
        <time>2019-06-22T13:44:46Z</time>
      </trkpt>
      <trkpt lat="41.721310" lon="-7.409045">
        <ele>607.652</ele>
        <time>2019-06-22T13:44:47Z</time>
      </trkpt>
      <trkpt lat="41.721188" lon="-7.409126">
        <ele>608.765</ele>
        <time>2019-06-22T13:44:48Z</time>
      </trkpt>
      <trkpt lat="41.721073" lon="-7.409200">
        <ele>609.575</ele>
        <time>2019-06-22T13:44:49Z</time>
      </trkpt>
      <trkpt lat="41.720956" lon="-7.409247">
        <ele>610.628</ele>
        <time>2019-06-22T13:44:50Z</time>
      </trkpt>
      <trkpt lat="41.720846" lon="-7.409299">
        <ele>611.520</ele>
        <time>2019-06-22T13:44:51Z</time>
      </trkpt>
      <trkpt lat="41.720739" lon="-7.409289">
        <ele>612.208</ele>
        <time>2019-06-22T13:44:52Z</time>
      </trkpt>
      <trkpt lat="41.720640" lon="-7.409258">
        <ele>613.360</ele>
        <time>2019-06-22T13:44:53Z</time>
      </trkpt>
      <trkpt lat="41.720551" lon="-7.409196">
        <ele>614.154</ele>
        <time>2019-06-22T13:44:54Z</time>
      </trkpt>
      <trkpt lat="41.720500" lon="-7.409093">
        <ele>614.436</ele>
        <time>2019-06-22T13:44:55Z</time>
      </trkpt>
      <trkpt lat="41.720414" lon="-7.408922">
        <ele>614.428</ele>
        <time>2019-06-22T13:44:56Z</time>
      </trkpt>
      <trkpt lat="41.720415" lon="-7.408734">
        <ele>614.456</ele>
        <time>2019-06-22T13:44:57Z</time>
      </trkpt>
      <trkpt lat="41.720395" lon="-7.408555">
        <ele>614.675</ele>
        <time>2019-06-22T13:44:58Z</time>
      </trkpt>
      <trkpt lat="41.720353" lon="-7.408368">
        <ele>614.870</ele>
        <time>2019-06-22T13:44:59Z</time>
      </trkpt>
      <trkpt lat="41.720312" lon="-7.408180">
        <ele>615.023</ele>
        <time>2019-06-22T13:45:00Z</time>
      </trkpt>
      <trkpt lat="41.720280" lon="-7.407983">
        <ele>615.447</ele>
        <time>2019-06-22T13:45:01Z</time>
      </trkpt>
      <trkpt lat="41.720278" lon="-7.407760">
        <ele>616.229</ele>
        <time>2019-06-22T13:45:02Z</time>
      </trkpt>
      <trkpt lat="41.720291" lon="-7.407544">
        <ele>616.221</ele>
        <time>2019-06-22T13:45:03Z</time>
      </trkpt>
      <trkpt lat="41.720310" lon="-7.407320">
        <ele>616.608</ele>
        <time>2019-06-22T13:45:04Z</time>
      </trkpt>
      <trkpt lat="41.720329" lon="-7.407088">
        <ele>616.617</ele>
        <time>2019-06-22T13:45:05Z</time>
      </trkpt>
      <trkpt lat="41.720303" lon="-7.406860">
        <ele>616.651</ele>
        <time>2019-06-22T13:45:06Z</time>
      </trkpt>
      <trkpt lat="41.720292" lon="-7.406628">
        <ele>616.023</ele>
        <time>2019-06-22T13:45:07Z</time>
      </trkpt>
      <trkpt lat="41.720282" lon="-7.406386">
        <ele>615.655</ele>
        <time>2019-06-22T13:45:08Z</time>
      </trkpt>
      <trkpt lat="41.720296" lon="-7.406146">
        <ele>615.573</ele>
        <time>2019-06-22T13:45:09Z</time>
      </trkpt>
      <trkpt lat="41.720327" lon="-7.405920">
        <ele>615.682</ele>
        <time>2019-06-22T13:45:10Z</time>
      </trkpt>
      <trkpt lat="41.720376" lon="-7.405707">
        <ele>616.067</ele>
        <time>2019-06-22T13:45:11Z</time>
      </trkpt>
      <trkpt lat="41.720434" lon="-7.405507">
        <ele>616.610</ele>
        <time>2019-06-22T13:45:12Z</time>
      </trkpt>
      <trkpt lat="41.720502" lon="-7.405316">
        <ele>617.799</ele>
        <time>2019-06-22T13:45:13Z</time>
      </trkpt>
      <trkpt lat="41.720560" lon="-7.405133">
        <ele>619.007</ele>
        <time>2019-06-22T13:45:14Z</time>
      </trkpt>
      <trkpt lat="41.720601" lon="-7.404957">
        <ele>620.927</ele>
        <time>2019-06-22T13:45:15Z</time>
      </trkpt>
      <trkpt lat="41.720635" lon="-7.404787">
        <ele>622.108</ele>
        <time>2019-06-22T13:45:16Z</time>
      </trkpt>
      <trkpt lat="41.720647" lon="-7.404607">
        <ele>623.872</ele>
        <time>2019-06-22T13:45:17Z</time>
      </trkpt>
      <trkpt lat="41.720615" lon="-7.404423">
        <ele>625.286</ele>
        <time>2019-06-22T13:45:18Z</time>
      </trkpt>
      <trkpt lat="41.720547" lon="-7.404207">
        <ele>625.358</ele>
        <time>2019-06-22T13:45:19Z</time>
      </trkpt>
      <trkpt lat="41.720484" lon="-7.404022">
        <ele>625.780</ele>
        <time>2019-06-22T13:45:20Z</time>
      </trkpt>
      <trkpt lat="41.720434" lon="-7.403850">
        <ele>626.358</ele>
        <time>2019-06-22T13:45:21Z</time>
      </trkpt>
      <trkpt lat="41.720371" lon="-7.403685">
        <ele>626.987</ele>
        <time>2019-06-22T13:45:22Z</time>
      </trkpt>
      <trkpt lat="41.720336" lon="-7.403529">
        <ele>627.212</ele>
        <time>2019-06-22T13:45:23Z</time>
      </trkpt>
      <trkpt lat="41.720273" lon="-7.403360">
        <ele>627.925</ele>
        <time>2019-06-22T13:45:24Z</time>
      </trkpt>
      <trkpt lat="41.720191" lon="-7.403194">
        <ele>628.529</ele>
        <time>2019-06-22T13:45:25Z</time>
      </trkpt>
      <trkpt lat="41.720066" lon="-7.403095">
        <ele>628.900</ele>
        <time>2019-06-22T13:45:26Z</time>
      </trkpt>
      <trkpt lat="41.719935" lon="-7.402978">
        <ele>629.620</ele>
        <time>2019-06-22T13:45:27Z</time>
      </trkpt>
      <trkpt lat="41.719801" lon="-7.402881">
        <ele>630.708</ele>
        <time>2019-06-22T13:45:28Z</time>
      </trkpt>
      <trkpt lat="41.719672" lon="-7.402748">
        <ele>632.095</ele>
        <time>2019-06-22T13:45:29Z</time>
      </trkpt>
      <trkpt lat="41.719548" lon="-7.402629">
        <ele>633.289</ele>
        <time>2019-06-22T13:45:30Z</time>
      </trkpt>
      <trkpt lat="41.719433" lon="-7.402479">
        <ele>634.291</ele>
        <time>2019-06-22T13:45:31Z</time>
      </trkpt>
      <trkpt lat="41.719340" lon="-7.402306">
        <ele>635.293</ele>
        <time>2019-06-22T13:45:32Z</time>
      </trkpt>
      <trkpt lat="41.719263" lon="-7.402112">
        <ele>636.041</ele>
        <time>2019-06-22T13:45:33Z</time>
      </trkpt>
      <trkpt lat="41.719208" lon="-7.401918">
        <ele>636.810</ele>
        <time>2019-06-22T13:45:34Z</time>
      </trkpt>
      <trkpt lat="41.719201" lon="-7.401687">
        <ele>637.465</ele>
        <time>2019-06-22T13:45:35Z</time>
      </trkpt>
      <trkpt lat="41.719198" lon="-7.401467">
        <ele>638.118</ele>
        <time>2019-06-22T13:45:36Z</time>
      </trkpt>
      <trkpt lat="41.719242" lon="-7.401263">
        <ele>638.842</ele>
        <time>2019-06-22T13:45:37Z</time>
      </trkpt>
      <trkpt lat="41.719314" lon="-7.401075">
        <ele>639.522</ele>
        <time>2019-06-22T13:45:38Z</time>
      </trkpt>
      <trkpt lat="41.719408" lon="-7.400900">
        <ele>640.514</ele>
        <time>2019-06-22T13:45:39Z</time>
      </trkpt>
      <trkpt lat="41.719528" lon="-7.400738">
        <ele>641.808</ele>
        <time>2019-06-22T13:45:40Z</time>
      </trkpt>
      <trkpt lat="41.719657" lon="-7.400578">
        <ele>642.937</ele>
        <time>2019-06-22T13:45:41Z</time>
      </trkpt>
      <trkpt lat="41.719779" lon="-7.400407">
        <ele>644.291</ele>
        <time>2019-06-22T13:45:42Z</time>
      </trkpt>
      <trkpt lat="41.719889" lon="-7.400228">
        <ele>645.423</ele>
        <time>2019-06-22T13:45:43Z</time>
      </trkpt>
      <trkpt lat="41.719994" lon="-7.400055">
        <ele>646.085</ele>
        <time>2019-06-22T13:45:44Z</time>
      </trkpt>
      <trkpt lat="41.720079" lon="-7.399885">
        <ele>646.083</ele>
        <time>2019-06-22T13:45:45Z</time>
      </trkpt>
      <trkpt lat="41.720159" lon="-7.399707">
        <ele>645.852</ele>
        <time>2019-06-22T13:45:46Z</time>
      </trkpt>
      <trkpt lat="41.720206" lon="-7.399519">
        <ele>645.827</ele>
        <time>2019-06-22T13:45:47Z</time>
      </trkpt>
      <trkpt lat="41.720229" lon="-7.399315">
        <ele>646.530</ele>
        <time>2019-06-22T13:45:48Z</time>
      </trkpt>
      <trkpt lat="41.720235" lon="-7.399130">
        <ele>647.085</ele>
        <time>2019-06-22T13:45:49Z</time>
      </trkpt>
      <trkpt lat="41.720220" lon="-7.398939">
        <ele>647.789</ele>
        <time>2019-06-22T13:45:50Z</time>
      </trkpt>
      <trkpt lat="41.720150" lon="-7.398742">
        <ele>649.417</ele>
        <time>2019-06-22T13:45:51Z</time>
      </trkpt>
      <trkpt lat="41.720053" lon="-7.398551">
        <ele>650.808</ele>
        <time>2019-06-22T13:45:52Z</time>
      </trkpt>
      <trkpt lat="41.719951" lon="-7.398367">
        <ele>651.931</ele>
        <time>2019-06-22T13:45:53Z</time>
      </trkpt>
      <trkpt lat="41.719844" lon="-7.398189">
        <ele>653.315</ele>
        <time>2019-06-22T13:45:54Z</time>
      </trkpt>
      <trkpt lat="41.719740" lon="-7.397996">
        <ele>654.797</ele>
        <time>2019-06-22T13:45:55Z</time>
      </trkpt>
      <trkpt lat="41.719626" lon="-7.397786">
        <ele>656.239</ele>
        <time>2019-06-22T13:45:56Z</time>
      </trkpt>
      <trkpt lat="41.719515" lon="-7.397557">
        <ele>657.537</ele>
        <time>2019-06-22T13:45:57Z</time>
      </trkpt>
      <trkpt lat="41.719416" lon="-7.397315">
        <ele>658.416</ele>
        <time>2019-06-22T13:45:58Z</time>
      </trkpt>
      <trkpt lat="41.719327" lon="-7.397073">
        <ele>659.171</ele>
        <time>2019-06-22T13:45:59Z</time>
      </trkpt>
      <trkpt lat="41.719244" lon="-7.396812">
        <ele>659.614</ele>
        <time>2019-06-22T13:46:00Z</time>
      </trkpt>
      <trkpt lat="41.719186" lon="-7.396547">
        <ele>660.052</ele>
        <time>2019-06-22T13:46:01Z</time>
      </trkpt>
      <trkpt lat="41.719145" lon="-7.396299">
        <ele>660.853</ele>
        <time>2019-06-22T13:46:02Z</time>
      </trkpt>
      <trkpt lat="41.719121" lon="-7.396048">
        <ele>661.008</ele>
        <time>2019-06-22T13:46:03Z</time>
      </trkpt>
      <trkpt lat="41.719115" lon="-7.395805">
        <ele>662.008</ele>
        <time>2019-06-22T13:46:04Z</time>
      </trkpt>
      <trkpt lat="41.719129" lon="-7.395565">
        <ele>663.148</ele>
        <time>2019-06-22T13:46:05Z</time>
      </trkpt>
      <trkpt lat="41.719163" lon="-7.395328">
        <ele>664.322</ele>
        <time>2019-06-22T13:46:06Z</time>
      </trkpt>
      <trkpt lat="41.719177" lon="-7.395106">
        <ele>665.054</ele>
        <time>2019-06-22T13:46:07Z</time>
      </trkpt>
      <trkpt lat="41.719174" lon="-7.394881">
        <ele>665.086</ele>
        <time>2019-06-22T13:46:08Z</time>
      </trkpt>
      <trkpt lat="41.719182" lon="-7.394656">
        <ele>665.684</ele>
        <time>2019-06-22T13:46:09Z</time>
      </trkpt>
      <trkpt lat="41.719141" lon="-7.394428">
        <ele>665.773</ele>
        <time>2019-06-22T13:46:10Z</time>
      </trkpt>
      <trkpt lat="41.719070" lon="-7.394232">
        <ele>666.898</ele>
        <time>2019-06-22T13:46:11Z</time>
      </trkpt>
      <trkpt lat="41.718975" lon="-7.394028">
        <ele>666.881</ele>
        <time>2019-06-22T13:46:12Z</time>
      </trkpt>
      <trkpt lat="41.718877" lon="-7.393872">
        <ele>667.615</ele>
        <time>2019-06-22T13:46:13Z</time>
      </trkpt>
      <trkpt lat="41.718695" lon="-7.393760">
        <ele>668.265</ele>
        <time>2019-06-22T13:46:14Z</time>
      </trkpt>
      <trkpt lat="41.718549" lon="-7.393627">
        <ele>669.711</ele>
        <time>2019-06-22T13:46:15Z</time>
      </trkpt>
      <trkpt lat="41.718400" lon="-7.393511">
        <ele>671.108</ele>
        <time>2019-06-22T13:46:16Z</time>
      </trkpt>
      <trkpt lat="41.718257" lon="-7.393396">
        <ele>672.024</ele>
        <time>2019-06-22T13:46:17Z</time>
      </trkpt>
      <trkpt lat="41.718119" lon="-7.393292">
        <ele>672.818</ele>
        <time>2019-06-22T13:46:18Z</time>
      </trkpt>
      <trkpt lat="41.717970" lon="-7.393215">
        <ele>674.240</ele>
        <time>2019-06-22T13:46:19Z</time>
      </trkpt>
      <trkpt lat="41.717808" lon="-7.393160">
        <ele>675.332</ele>
        <time>2019-06-22T13:46:20Z</time>
      </trkpt>
      <trkpt lat="41.717642" lon="-7.393115">
        <ele>675.420</ele>
        <time>2019-06-22T13:46:21Z</time>
      </trkpt>
      <trkpt lat="41.717457" lon="-7.393130">
        <ele>675.759</ele>
        <time>2019-06-22T13:46:22Z</time>
      </trkpt>
      <trkpt lat="41.717284" lon="-7.393140">
        <ele>675.944</ele>
        <time>2019-06-22T13:46:23Z</time>
      </trkpt>
      <trkpt lat="41.717117" lon="-7.393148">
        <ele>676.687</ele>
        <time>2019-06-22T13:46:24Z</time>
      </trkpt>
      <trkpt lat="41.716958" lon="-7.393149">
        <ele>677.326</ele>
        <time>2019-06-22T13:46:25Z</time>
      </trkpt>
      <trkpt lat="41.716798" lon="-7.393132">
        <ele>678.847</ele>
        <time>2019-06-22T13:46:26Z</time>
      </trkpt>
      <trkpt lat="41.716651" lon="-7.393094">
        <ele>679.911</ele>
        <time>2019-06-22T13:46:27Z</time>
      </trkpt>
      <trkpt lat="41.716528" lon="-7.393013">
        <ele>681.708</ele>
        <time>2019-06-22T13:46:28Z</time>
      </trkpt>
      <trkpt lat="41.716431" lon="-7.392906">
        <ele>683.285</ele>
        <time>2019-06-22T13:46:29Z</time>
      </trkpt>
      <trkpt lat="41.716342" lon="-7.392799">
        <ele>684.219</ele>
        <time>2019-06-22T13:46:30Z</time>
      </trkpt>
      <trkpt lat="41.716315" lon="-7.392615">
        <ele>685.511</ele>
        <time>2019-06-22T13:46:31Z</time>
      </trkpt>
      <trkpt lat="41.716295" lon="-7.392441">
        <ele>686.653</ele>
        <time>2019-06-22T13:46:32Z</time>
      </trkpt>
      <trkpt lat="41.716303" lon="-7.392265">
        <ele>687.331</ele>
        <time>2019-06-22T13:46:33Z</time>
      </trkpt>
      <trkpt lat="41.716361" lon="-7.392101">
        <ele>688.080</ele>
        <time>2019-06-22T13:46:34Z</time>
      </trkpt>
      <trkpt lat="41.716413" lon="-7.391927">
        <ele>688.895</ele>
        <time>2019-06-22T13:46:35Z</time>
      </trkpt>
      <trkpt lat="41.716452" lon="-7.391751">
        <ele>689.638</ele>
        <time>2019-06-22T13:46:36Z</time>
      </trkpt>
      <trkpt lat="41.716457" lon="-7.391551">
        <ele>689.917</ele>
        <time>2019-06-22T13:46:37Z</time>
      </trkpt>
      <trkpt lat="41.716438" lon="-7.391355">
        <ele>690.887</ele>
        <time>2019-06-22T13:46:38Z</time>
      </trkpt>
      <trkpt lat="41.716397" lon="-7.391174">
        <ele>691.415</ele>
        <time>2019-06-22T13:46:39Z</time>
      </trkpt>
      <trkpt lat="41.716331" lon="-7.390994">
        <ele>691.808</ele>
        <time>2019-06-22T13:46:40Z</time>
      </trkpt>
      <trkpt lat="41.716241" lon="-7.390834">
        <ele>692.324</ele>
        <time>2019-06-22T13:46:41Z</time>
      </trkpt>
      <trkpt lat="41.716178" lon="-7.390667">
        <ele>693.248</ele>
        <time>2019-06-22T13:46:42Z</time>
      </trkpt>
      <trkpt lat="41.716124" lon="-7.390483">
        <ele>693.880</ele>
        <time>2019-06-22T13:46:43Z</time>
      </trkpt>
      <trkpt lat="41.716066" lon="-7.390301">
        <ele>694.682</ele>
        <time>2019-06-22T13:46:44Z</time>
      </trkpt>
      <trkpt lat="41.716103" lon="-7.390107">
        <ele>695.370</ele>
        <time>2019-06-22T13:46:45Z</time>
      </trkpt>
      <trkpt lat="41.716137" lon="-7.389921">
        <ele>695.929</ele>
        <time>2019-06-22T13:46:46Z</time>
      </trkpt>
      <trkpt lat="41.716175" lon="-7.389726">
        <ele>696.714</ele>
        <time>2019-06-22T13:46:47Z</time>
      </trkpt>
      <trkpt lat="41.716225" lon="-7.389566">
        <ele>697.257</ele>
        <time>2019-06-22T13:46:48Z</time>
      </trkpt>
      <trkpt lat="41.716242" lon="-7.389401">
        <ele>697.251</ele>
        <time>2019-06-22T13:46:49Z</time>
      </trkpt>
      <trkpt lat="41.716252" lon="-7.389225">
        <ele>697.401</ele>
        <time>2019-06-22T13:46:50Z</time>
      </trkpt>
      <trkpt lat="41.716191" lon="-7.389055">
        <ele>697.911</ele>
        <time>2019-06-22T13:46:51Z</time>
      </trkpt>
      <trkpt lat="41.716128" lon="-7.388905">
        <ele>698.208</ele>
        <time>2019-06-22T13:46:52Z</time>
      </trkpt>
      <trkpt lat="41.716030" lon="-7.388772">
        <ele>698.358</ele>
        <time>2019-06-22T13:46:53Z</time>
      </trkpt>
      <trkpt lat="41.715900" lon="-7.388655">
        <ele>699.192</ele>
        <time>2019-06-22T13:46:54Z</time>
      </trkpt>
      <trkpt lat="41.715759" lon="-7.388564">
        <ele>700.294</ele>
        <time>2019-06-22T13:46:55Z</time>
      </trkpt>
      <trkpt lat="41.715604" lon="-7.388474">
        <ele>700.716</ele>
        <time>2019-06-22T13:46:56Z</time>
      </trkpt>
      <trkpt lat="41.715446" lon="-7.388378">
        <ele>701.324</ele>
        <time>2019-06-22T13:46:57Z</time>
      </trkpt>
      <trkpt lat="41.715288" lon="-7.388290">
        <ele>702.833</ele>
        <time>2019-06-22T13:46:58Z</time>
      </trkpt>
      <trkpt lat="41.715136" lon="-7.388209">
        <ele>704.138</ele>
        <time>2019-06-22T13:46:59Z</time>
      </trkpt>
      <trkpt lat="41.715003" lon="-7.388099">
        <ele>705.381</ele>
        <time>2019-06-22T13:47:00Z</time>
      </trkpt>
      <trkpt lat="41.714869" lon="-7.387986">
        <ele>706.698</ele>
        <time>2019-06-22T13:47:01Z</time>
      </trkpt>
      <trkpt lat="41.714778" lon="-7.387816">
        <ele>707.915</ele>
        <time>2019-06-22T13:47:02Z</time>
      </trkpt>
      <trkpt lat="41.714695" lon="-7.387642">
        <ele>708.626</ele>
        <time>2019-06-22T13:47:03Z</time>
      </trkpt>
      <trkpt lat="41.714614" lon="-7.387470">
        <ele>709.308</ele>
        <time>2019-06-22T13:47:04Z</time>
      </trkpt>
      <trkpt lat="41.714646" lon="-7.387277">
        <ele>709.932</ele>
        <time>2019-06-22T13:47:05Z</time>
      </trkpt>
      <trkpt lat="41.714698" lon="-7.387121">
        <ele>710.616</ele>
        <time>2019-06-22T13:47:06Z</time>
      </trkpt>
      <trkpt lat="41.714749" lon="-7.386946">
        <ele>711.178</ele>
        <time>2019-06-22T13:47:07Z</time>
      </trkpt>
      <trkpt lat="41.714805" lon="-7.386771">
        <ele>711.490</ele>
        <time>2019-06-22T13:47:08Z</time>
      </trkpt>
      <trkpt lat="41.714852" lon="-7.386590">
        <ele>711.588</ele>
        <time>2019-06-22T13:47:09Z</time>
      </trkpt>
      <trkpt lat="41.714900" lon="-7.386388">
        <ele>712.167</ele>
        <time>2019-06-22T13:47:10Z</time>
      </trkpt>
      <trkpt lat="41.714949" lon="-7.386186">
        <ele>712.382</ele>
        <time>2019-06-22T13:47:11Z</time>
      </trkpt>
      <trkpt lat="41.714975" lon="-7.385970">
        <ele>712.665</ele>
        <time>2019-06-22T13:47:12Z</time>
      </trkpt>
      <trkpt lat="41.714975" lon="-7.385778">
        <ele>712.667</ele>
        <time>2019-06-22T13:47:13Z</time>
      </trkpt>
      <trkpt lat="41.714941" lon="-7.385573">
        <ele>713.181</ele>
        <time>2019-06-22T13:47:14Z</time>
      </trkpt>
      <trkpt lat="41.714876" lon="-7.385374">
        <ele>713.919</ele>
        <time>2019-06-22T13:47:15Z</time>
      </trkpt>
      <trkpt lat="41.714800" lon="-7.385205">
        <ele>714.408</ele>
        <time>2019-06-22T13:47:16Z</time>
      </trkpt>
      <trkpt lat="41.714707" lon="-7.385061">
        <ele>715.559</ele>
        <time>2019-06-22T13:47:17Z</time>
      </trkpt>
      <trkpt lat="41.714594" lon="-7.384950">
        <ele>716.453</ele>
        <time>2019-06-22T13:47:18Z</time>
      </trkpt>
      <trkpt lat="41.714468" lon="-7.384879">
        <ele>717.325</ele>
        <time>2019-06-22T13:47:19Z</time>
      </trkpt>
      <trkpt lat="41.714331" lon="-7.384837">
        <ele>718.097</ele>
        <time>2019-06-22T13:47:20Z</time>
      </trkpt>
      <trkpt lat="41.714185" lon="-7.384824">
        <ele>718.845</ele>
        <time>2019-06-22T13:47:21Z</time>
      </trkpt>
      <trkpt lat="41.714024" lon="-7.384857">
        <ele>719.464</ele>
        <time>2019-06-22T13:47:22Z</time>
      </trkpt>
      <trkpt lat="41.713876" lon="-7.384913">
        <ele>720.049</ele>
        <time>2019-06-22T13:47:23Z</time>
      </trkpt>
      <trkpt lat="41.713733" lon="-7.385008">
        <ele>721.092</ele>
        <time>2019-06-22T13:47:24Z</time>
      </trkpt>
      <trkpt lat="41.713580" lon="-7.385102">
        <ele>722.138</ele>
        <time>2019-06-22T13:47:25Z</time>
      </trkpt>
      <trkpt lat="41.713418" lon="-7.385173">
        <ele>723.470</ele>
        <time>2019-06-22T13:47:26Z</time>
      </trkpt>
      <trkpt lat="41.713246" lon="-7.385225">
        <ele>724.417</ele>
        <time>2019-06-22T13:47:27Z</time>
      </trkpt>
      <trkpt lat="41.713077" lon="-7.385253">
        <ele>725.508</ele>
        <time>2019-06-22T13:47:28Z</time>
      </trkpt>
      <trkpt lat="41.712899" lon="-7.385294">
        <ele>726.466</ele>
        <time>2019-06-22T13:47:29Z</time>
      </trkpt>
      <trkpt lat="41.712734" lon="-7.385366">
        <ele>727.080</ele>
        <time>2019-06-22T13:47:30Z</time>
      </trkpt>
      <trkpt lat="41.712569" lon="-7.385464">
        <ele>727.132</ele>
        <time>2019-06-22T13:47:31Z</time>
      </trkpt>
      <trkpt lat="41.712405" lon="-7.385551">
        <ele>727.454</ele>
        <time>2019-06-22T13:47:32Z</time>
      </trkpt>
      <trkpt lat="41.712232" lon="-7.385618">
        <ele>728.162</ele>
        <time>2019-06-22T13:47:33Z</time>
      </trkpt>
      <trkpt lat="41.712049" lon="-7.385645">
        <ele>728.921</ele>
        <time>2019-06-22T13:47:34Z</time>
      </trkpt>
      <trkpt lat="41.711872" lon="-7.385647">
        <ele>730.036</ele>
        <time>2019-06-22T13:47:35Z</time>
      </trkpt>
      <trkpt lat="41.711698" lon="-7.385645">
        <ele>731.569</ele>
        <time>2019-06-22T13:47:36Z</time>
      </trkpt>
      <trkpt lat="41.711517" lon="-7.385640">
        <ele>732.431</ele>
        <time>2019-06-22T13:47:37Z</time>
      </trkpt>
      <trkpt lat="41.711333" lon="-7.385672">
        <ele>732.761</ele>
        <time>2019-06-22T13:47:38Z</time>
      </trkpt>
      <trkpt lat="41.711156" lon="-7.385754">
        <ele>732.907</ele>
        <time>2019-06-22T13:47:39Z</time>
      </trkpt>
      <trkpt lat="41.710984" lon="-7.385846">
        <ele>733.408</ele>
        <time>2019-06-22T13:47:40Z</time>
      </trkpt>
      <trkpt lat="41.710820" lon="-7.385963">
        <ele>733.976</ele>
        <time>2019-06-22T13:47:41Z</time>
      </trkpt>
      <trkpt lat="41.710661" lon="-7.386079">
        <ele>734.880</ele>
        <time>2019-06-22T13:47:42Z</time>
      </trkpt>
      <trkpt lat="41.710506" lon="-7.386182">
        <ele>736.122</ele>
        <time>2019-06-22T13:47:43Z</time>
      </trkpt>
      <trkpt lat="41.710354" lon="-7.386275">
        <ele>737.514</ele>
        <time>2019-06-22T13:47:44Z</time>
      </trkpt>
      <trkpt lat="41.710202" lon="-7.386344">
        <ele>738.612</ele>
        <time>2019-06-22T13:47:45Z</time>
      </trkpt>
      <trkpt lat="41.710058" lon="-7.386413">
        <ele>739.481</ele>
        <time>2019-06-22T13:47:46Z</time>
      </trkpt>
      <trkpt lat="41.709922" lon="-7.386509">
        <ele>740.086</ele>
        <time>2019-06-22T13:47:47Z</time>
      </trkpt>
      <trkpt lat="41.709794" lon="-7.386618">
        <ele>740.019</ele>
        <time>2019-06-22T13:47:48Z</time>
      </trkpt>
      <trkpt lat="41.709693" lon="-7.386752">
        <ele>740.056</ele>
        <time>2019-06-22T13:47:49Z</time>
      </trkpt>
      <trkpt lat="41.709616" lon="-7.386958">
        <ele>740.059</ele>
        <time>2019-06-22T13:47:50Z</time>
      </trkpt>
      <trkpt lat="41.709535" lon="-7.387163">
        <ele>740.614</ele>
        <time>2019-06-22T13:47:51Z</time>
      </trkpt>
      <trkpt lat="41.709454" lon="-7.387369">
        <ele>741.608</ele>
        <time>2019-06-22T13:47:52Z</time>
      </trkpt>
      <trkpt lat="41.709372" lon="-7.387582">
        <ele>742.118</ele>
        <time>2019-06-22T13:47:53Z</time>
      </trkpt>
      <trkpt lat="41.709296" lon="-7.387778">
        <ele>743.172</ele>
        <time>2019-06-22T13:47:54Z</time>
      </trkpt>
      <trkpt lat="41.709210" lon="-7.387964">
        <ele>743.464</ele>
        <time>2019-06-22T13:47:55Z</time>
      </trkpt>
      <trkpt lat="41.709112" lon="-7.388134">
        <ele>743.436</ele>
        <time>2019-06-22T13:47:56Z</time>
      </trkpt>
      <trkpt lat="41.709014" lon="-7.388279">
        <ele>744.454</ele>
        <time>2019-06-22T13:47:57Z</time>
      </trkpt>
      <trkpt lat="41.708887" lon="-7.388394">
        <ele>745.653</ele>
        <time>2019-06-22T13:47:58Z</time>
      </trkpt>
      <trkpt lat="41.708760" lon="-7.388471">
        <ele>746.948</ele>
        <time>2019-06-22T13:47:59Z</time>
      </trkpt>
      <trkpt lat="41.708620" lon="-7.388485">
        <ele>748.111</ele>
        <time>2019-06-22T13:48:00Z</time>
      </trkpt>
      <trkpt lat="41.708483" lon="-7.388465">
        <ele>749.823</ele>
        <time>2019-06-22T13:48:01Z</time>
      </trkpt>
      <trkpt lat="41.708342" lon="-7.388415">
        <ele>750.383</ele>
        <time>2019-06-22T13:48:02Z</time>
      </trkpt>
      <trkpt lat="41.708193" lon="-7.388358">
        <ele>751.011</ele>
        <time>2019-06-22T13:48:03Z</time>
      </trkpt>
      <trkpt lat="41.708037" lon="-7.388274">
        <ele>751.708</ele>
        <time>2019-06-22T13:48:04Z</time>
      </trkpt>
      <trkpt lat="41.707876" lon="-7.388189">
        <ele>751.975</ele>
        <time>2019-06-22T13:48:05Z</time>
      </trkpt>
      <trkpt lat="41.707715" lon="-7.388099">
        <ele>752.249</ele>
        <time>2019-06-22T13:48:06Z</time>
      </trkpt>
      <trkpt lat="41.707548" lon="-7.388019">
        <ele>752.851</ele>
        <time>2019-06-22T13:48:07Z</time>
      </trkpt>
      <trkpt lat="41.707377" lon="-7.387926">
        <ele>753.593</ele>
        <time>2019-06-22T13:48:08Z</time>
      </trkpt>
      <trkpt lat="41.707210" lon="-7.387834">
        <ele>754.151</ele>
        <time>2019-06-22T13:48:09Z</time>
      </trkpt>
      <trkpt lat="41.707049" lon="-7.387744">
        <ele>754.960</ele>
        <time>2019-06-22T13:48:10Z</time>
      </trkpt>
      <trkpt lat="41.706899" lon="-7.387627">
        <ele>756.375</ele>
        <time>2019-06-22T13:48:11Z</time>
      </trkpt>
      <trkpt lat="41.706749" lon="-7.387503">
        <ele>757.438</ele>
        <time>2019-06-22T13:48:12Z</time>
      </trkpt>
      <trkpt lat="41.706603" lon="-7.387338">
        <ele>758.271</ele>
        <time>2019-06-22T13:48:13Z</time>
      </trkpt>
      <trkpt lat="41.706471" lon="-7.387154">
        <ele>759.141</ele>
        <time>2019-06-22T13:48:14Z</time>
      </trkpt>
      <trkpt lat="41.706345" lon="-7.386979">
        <ele>760.415</ele>
        <time>2019-06-22T13:48:15Z</time>
      </trkpt>
      <trkpt lat="41.706225" lon="-7.386806">
        <ele>761.308</ele>
        <time>2019-06-22T13:48:16Z</time>
      </trkpt>
      <trkpt lat="41.706095" lon="-7.386641">
        <ele>761.370</ele>
        <time>2019-06-22T13:48:17Z</time>
      </trkpt>
      <trkpt lat="41.705962" lon="-7.386482">
        <ele>761.634</ele>
        <time>2019-06-22T13:48:18Z</time>
      </trkpt>
      <trkpt lat="41.705825" lon="-7.386345">
        <ele>761.936</ele>
        <time>2019-06-22T13:48:19Z</time>
      </trkpt>
      <trkpt lat="41.705664" lon="-7.386216">
        <ele>762.318</ele>
        <time>2019-06-22T13:48:20Z</time>
      </trkpt>
      <trkpt lat="41.705499" lon="-7.386110">
        <ele>763.196</ele>
        <time>2019-06-22T13:48:21Z</time>
      </trkpt>
      <trkpt lat="41.705331" lon="-7.386011">
        <ele>763.515</ele>
        <time>2019-06-22T13:48:22Z</time>
      </trkpt>
      <trkpt lat="41.705153" lon="-7.385908">
        <ele>764.510</ele>
        <time>2019-06-22T13:48:23Z</time>
      </trkpt>
      <trkpt lat="41.704980" lon="-7.385804">
        <ele>765.963</ele>
        <time>2019-06-22T13:48:24Z</time>
      </trkpt>
      <trkpt lat="41.704804" lon="-7.385698">
        <ele>767.127</ele>
        <time>2019-06-22T13:48:25Z</time>
      </trkpt>
      <trkpt lat="41.704623" lon="-7.385585">
        <ele>768.168</ele>
        <time>2019-06-22T13:48:26Z</time>
      </trkpt>
      <trkpt lat="41.704433" lon="-7.385476">
        <ele>769.414</ele>
        <time>2019-06-22T13:48:27Z</time>
      </trkpt>
      <trkpt lat="41.704235" lon="-7.385388">
        <ele>770.608</ele>
        <time>2019-06-22T13:48:28Z</time>
      </trkpt>
      <trkpt lat="41.704040" lon="-7.385304">
        <ele>771.335</ele>
        <time>2019-06-22T13:48:29Z</time>
      </trkpt>
      <trkpt lat="41.703832" lon="-7.385242">
        <ele>772.099</ele>
        <time>2019-06-22T13:48:30Z</time>
      </trkpt>
      <trkpt lat="41.703638" lon="-7.385176">
        <ele>772.751</ele>
        <time>2019-06-22T13:48:31Z</time>
      </trkpt>
      <trkpt lat="41.703438" lon="-7.385114">
        <ele>773.293</ele>
        <time>2019-06-22T13:48:32Z</time>
      </trkpt>
      <trkpt lat="41.703234" lon="-7.385029">
        <ele>774.451</ele>
        <time>2019-06-22T13:48:33Z</time>
      </trkpt>
      <trkpt lat="41.703057" lon="-7.384911">
        <ele>775.820</ele>
        <time>2019-06-22T13:48:34Z</time>
      </trkpt>
      <trkpt lat="41.702872" lon="-7.384792">
        <ele>777.475</ele>
        <time>2019-06-22T13:48:35Z</time>
      </trkpt>
      <trkpt lat="41.702696" lon="-7.384637">
        <ele>778.778</ele>
        <time>2019-06-22T13:48:36Z</time>
      </trkpt>
      <trkpt lat="41.702520" lon="-7.384480">
        <ele>780.238</ele>
        <time>2019-06-22T13:48:37Z</time>
      </trkpt>
      <trkpt lat="41.702349" lon="-7.384308">
        <ele>781.170</ele>
        <time>2019-06-22T13:48:38Z</time>
      </trkpt>
      <trkpt lat="41.702173" lon="-7.384133">
        <ele>781.917</ele>
        <time>2019-06-22T13:48:39Z</time>
      </trkpt>
      <trkpt lat="41.702000" lon="-7.383974">
        <ele>782.908</ele>
        <time>2019-06-22T13:48:40Z</time>
      </trkpt>
      <trkpt lat="41.701820" lon="-7.383805">
        <ele>783.436</ele>
        <time>2019-06-22T13:48:41Z</time>
      </trkpt>
      <trkpt lat="41.701652" lon="-7.383642">
        <ele>784.040</ele>
        <time>2019-06-22T13:48:42Z</time>
      </trkpt>
      <trkpt lat="41.701473" lon="-7.383485">
        <ele>784.862</ele>
        <time>2019-06-22T13:48:43Z</time>
      </trkpt>
      <trkpt lat="41.701313" lon="-7.383319">
        <ele>785.364</ele>
        <time>2019-06-22T13:48:44Z</time>
      </trkpt>
      <trkpt lat="41.701141" lon="-7.383157">
        <ele>785.772</ele>
        <time>2019-06-22T13:48:45Z</time>
      </trkpt>
      <trkpt lat="41.700973" lon="-7.383017">
        <ele>786.181</ele>
        <time>2019-06-22T13:48:46Z</time>
      </trkpt>
      <trkpt lat="41.700810" lon="-7.382867">
        <ele>787.266</ele>
        <time>2019-06-22T13:48:47Z</time>
      </trkpt>
      <trkpt lat="41.700648" lon="-7.382728">
        <ele>788.389</ele>
        <time>2019-06-22T13:48:48Z</time>
      </trkpt>
      <trkpt lat="41.700478" lon="-7.382581">
        <ele>789.393</ele>
        <time>2019-06-22T13:48:49Z</time>
      </trkpt>
      <trkpt lat="41.700306" lon="-7.382434">
        <ele>790.465</ele>
        <time>2019-06-22T13:48:50Z</time>
      </trkpt>
      <trkpt lat="41.700132" lon="-7.382312">
        <ele>790.521</ele>
        <time>2019-06-22T13:48:51Z</time>
      </trkpt>
      <trkpt lat="41.699952" lon="-7.382211">
        <ele>790.508</ele>
        <time>2019-06-22T13:48:52Z</time>
      </trkpt>
      <trkpt lat="41.699760" lon="-7.382139">
        <ele>789.732</ele>
        <time>2019-06-22T13:48:53Z</time>
      </trkpt>
      <trkpt lat="41.699568" lon="-7.382073">
        <ele>789.626</ele>
        <time>2019-06-22T13:48:54Z</time>
      </trkpt>
      <trkpt lat="41.699382" lon="-7.382027">
        <ele>789.638</ele>
        <time>2019-06-22T13:48:55Z</time>
      </trkpt>
      <trkpt lat="41.699190" lon="-7.381977">
        <ele>790.120</ele>
        <time>2019-06-22T13:48:56Z</time>
      </trkpt>
      <trkpt lat="41.698996" lon="-7.381920">
        <ele>790.838</ele>
        <time>2019-06-22T13:48:57Z</time>
      </trkpt>
      <trkpt lat="41.698812" lon="-7.381865">
        <ele>791.747</ele>
        <time>2019-06-22T13:48:58Z</time>
      </trkpt>
      <trkpt lat="41.698638" lon="-7.381779">
        <ele>791.732</ele>
        <time>2019-06-22T13:48:59Z</time>
      </trkpt>
      <trkpt lat="41.698463" lon="-7.381677">
        <ele>791.535</ele>
        <time>2019-06-22T13:49:00Z</time>
      </trkpt>
      <trkpt lat="41.698283" lon="-7.381550">
        <ele>791.413</ele>
        <time>2019-06-22T13:49:01Z</time>
      </trkpt>
      <trkpt lat="41.698109" lon="-7.381406">
        <ele>790.743</ele>
        <time>2019-06-22T13:49:02Z</time>
      </trkpt>
      <trkpt lat="41.697935" lon="-7.381234">
        <ele>789.707</ele>
        <time>2019-06-22T13:49:03Z</time>
      </trkpt>
      <trkpt lat="41.697752" lon="-7.381048">
        <ele>788.908</ele>
        <time>2019-06-22T13:49:04Z</time>
      </trkpt>
      <trkpt lat="41.697567" lon="-7.380859">
        <ele>787.254</ele>
        <time>2019-06-22T13:49:05Z</time>
      </trkpt>
      <trkpt lat="41.697376" lon="-7.380665">
        <ele>785.288</ele>
        <time>2019-06-22T13:49:06Z</time>
      </trkpt>
      <trkpt lat="41.697180" lon="-7.380473">
        <ele>782.720</ele>
        <time>2019-06-22T13:49:07Z</time>
      </trkpt>
      <trkpt lat="41.696978" lon="-7.380277">
        <ele>780.712</ele>
        <time>2019-06-22T13:49:08Z</time>
      </trkpt>
      <trkpt lat="41.696774" lon="-7.380092">
        <ele>778.320</ele>
        <time>2019-06-22T13:49:09Z</time>
      </trkpt>
      <trkpt lat="41.696566" lon="-7.379899">
        <ele>778.319</ele>
        <time>2019-06-22T13:49:10Z</time>
      </trkpt>
      <trkpt lat="41.696363" lon="-7.379718">
        <ele>778.314</ele>
        <time>2019-06-22T13:49:11Z</time>
      </trkpt>
      <trkpt lat="41.696156" lon="-7.379534">
        <ele>778.277</ele>
        <time>2019-06-22T13:49:12Z</time>
      </trkpt>
      <trkpt lat="41.695962" lon="-7.379343">
        <ele>777.959</ele>
        <time>2019-06-22T13:49:13Z</time>
      </trkpt>
      <trkpt lat="41.695759" lon="-7.379154">
        <ele>777.503</ele>
        <time>2019-06-22T13:49:14Z</time>
      </trkpt>
      <trkpt lat="41.695551" lon="-7.378970">
        <ele>776.423</ele>
        <time>2019-06-22T13:49:15Z</time>
      </trkpt>
      <trkpt lat="41.695351" lon="-7.378783">
        <ele>775.108</ele>
        <time>2019-06-22T13:49:16Z</time>
      </trkpt>
      <trkpt lat="41.695150" lon="-7.378602">
        <ele>774.548</ele>
        <time>2019-06-22T13:49:17Z</time>
      </trkpt>
      <trkpt lat="41.694953" lon="-7.378435">
        <ele>773.782</ele>
        <time>2019-06-22T13:49:18Z</time>
      </trkpt>
      <trkpt lat="41.694765" lon="-7.378261">
        <ele>773.014</ele>
        <time>2019-06-22T13:49:19Z</time>
      </trkpt>
      <trkpt lat="41.694588" lon="-7.378116">
        <ele>772.126</ele>
        <time>2019-06-22T13:49:20Z</time>
      </trkpt>
      <trkpt lat="41.694423" lon="-7.377974">
        <ele>771.674</ele>
        <time>2019-06-22T13:49:21Z</time>
      </trkpt>
      <trkpt lat="41.694260" lon="-7.377827">
        <ele>771.643</ele>
        <time>2019-06-22T13:49:22Z</time>
      </trkpt>
      <trkpt lat="41.694085" lon="-7.377662">
        <ele>769.728</ele>
        <time>2019-06-22T13:49:23Z</time>
      </trkpt>
      <trkpt lat="41.693916" lon="-7.377499">
        <ele>769.691</ele>
        <time>2019-06-22T13:49:24Z</time>
      </trkpt>
      <trkpt lat="41.693759" lon="-7.377358">
        <ele>768.482</ele>
        <time>2019-06-22T13:49:25Z</time>
      </trkpt>
      <trkpt lat="41.693611" lon="-7.377221">
        <ele>768.343</ele>
        <time>2019-06-22T13:49:26Z</time>
      </trkpt>
      <trkpt lat="41.693463" lon="-7.377082">
        <ele>768.117</ele>
        <time>2019-06-22T13:49:27Z</time>
      </trkpt>
      <trkpt lat="41.693317" lon="-7.376946">
        <ele>767.808</ele>
        <time>2019-06-22T13:49:28Z</time>
      </trkpt>
      <trkpt lat="41.693178" lon="-7.376816">
        <ele>768.161</ele>
        <time>2019-06-22T13:49:29Z</time>
      </trkpt>
      <trkpt lat="41.693040" lon="-7.376696">
        <ele>768.335</ele>
        <time>2019-06-22T13:49:30Z</time>
      </trkpt>
      <trkpt lat="41.692904" lon="-7.376570">
        <ele>768.887</ele>
        <time>2019-06-22T13:49:31Z</time>
      </trkpt>
      <trkpt lat="41.692776" lon="-7.376449">
        <ele>769.869</ele>
        <time>2019-06-22T13:49:32Z</time>
      </trkpt>
      <trkpt lat="41.692645" lon="-7.376333">
        <ele>770.067</ele>
        <time>2019-06-22T13:49:33Z</time>
      </trkpt>
      <trkpt lat="41.692507" lon="-7.376221">
        <ele>770.166</ele>
        <time>2019-06-22T13:49:34Z</time>
      </trkpt>
      <trkpt lat="41.692366" lon="-7.376116">
        <ele>770.541</ele>
        <time>2019-06-22T13:49:35Z</time>
      </trkpt>
      <trkpt lat="41.692220" lon="-7.376011">
        <ele>771.744</ele>
        <time>2019-06-22T13:49:36Z</time>
      </trkpt>
      <trkpt lat="41.692061" lon="-7.375909">
        <ele>772.054</ele>
        <time>2019-06-22T13:49:37Z</time>
      </trkpt>
      <trkpt lat="41.691892" lon="-7.375804">
        <ele>772.256</ele>
        <time>2019-06-22T13:49:38Z</time>
      </trkpt>
      <trkpt lat="41.691715" lon="-7.375700">
        <ele>772.411</ele>
        <time>2019-06-22T13:49:39Z</time>
      </trkpt>
      <trkpt lat="41.691531" lon="-7.375598">
        <ele>772.408</ele>
        <time>2019-06-22T13:49:40Z</time>
      </trkpt>
      <trkpt lat="41.691340" lon="-7.375500">
        <ele>771.978</ele>
        <time>2019-06-22T13:49:41Z</time>
      </trkpt>
      <trkpt lat="41.691143" lon="-7.375394">
        <ele>771.662</ele>
        <time>2019-06-22T13:49:42Z</time>
      </trkpt>
      <trkpt lat="41.690948" lon="-7.375290">
        <ele>771.244</ele>
        <time>2019-06-22T13:49:43Z</time>
      </trkpt>
      <trkpt lat="41.690747" lon="-7.375171">
        <ele>771.146</ele>
        <time>2019-06-22T13:49:44Z</time>
      </trkpt>
      <trkpt lat="41.690535" lon="-7.375065">
        <ele>770.374</ele>
        <time>2019-06-22T13:49:45Z</time>
      </trkpt>
      <trkpt lat="41.690313" lon="-7.374973">
        <ele>769.733</ele>
        <time>2019-06-22T13:49:46Z</time>
      </trkpt>
      <trkpt lat="41.690097" lon="-7.374897">
        <ele>767.958</ele>
        <time>2019-06-22T13:49:47Z</time>
      </trkpt>
      <trkpt lat="41.689879" lon="-7.374842">
        <ele>766.781</ele>
        <time>2019-06-22T13:49:48Z</time>
      </trkpt>
      <trkpt lat="41.689658" lon="-7.374822">
        <ele>765.122</ele>
        <time>2019-06-22T13:49:49Z</time>
      </trkpt>
      <trkpt lat="41.689447" lon="-7.374792">
        <ele>764.162</ele>
        <time>2019-06-22T13:49:50Z</time>
      </trkpt>
      <trkpt lat="41.689241" lon="-7.374763">
        <ele>764.108</ele>
        <time>2019-06-22T13:49:51Z</time>
      </trkpt>
      <trkpt lat="41.689054" lon="-7.374730">
        <ele>764.108</ele>
        <time>2019-06-22T13:49:52Z</time>
      </trkpt>
      <trkpt lat="41.688866" lon="-7.374678">
        <ele>764.145</ele>
        <time>2019-06-22T13:49:53Z</time>
      </trkpt>
      <trkpt lat="41.688668" lon="-7.374608">
        <ele>765.739</ele>
        <time>2019-06-22T13:49:54Z</time>
      </trkpt>
      <trkpt lat="41.688471" lon="-7.374527">
        <ele>767.891</ele>
        <time>2019-06-22T13:49:55Z</time>
      </trkpt>
      <trkpt lat="41.688271" lon="-7.374435">
        <ele>768.523</ele>
        <time>2019-06-22T13:49:56Z</time>
      </trkpt>
      <trkpt lat="41.688075" lon="-7.374346">
        <ele>770.041</ele>
        <time>2019-06-22T13:49:57Z</time>
      </trkpt>
      <trkpt lat="41.687886" lon="-7.374274">
        <ele>770.810</ele>
        <time>2019-06-22T13:49:58Z</time>
      </trkpt>
      <trkpt lat="41.687712" lon="-7.374198">
        <ele>770.975</ele>
        <time>2019-06-22T13:49:59Z</time>
      </trkpt>
      <trkpt lat="41.687535" lon="-7.374112">
        <ele>770.918</ele>
        <time>2019-06-22T13:50:00Z</time>
      </trkpt>
      <trkpt lat="41.687365" lon="-7.374008">
        <ele>771.657</ele>
        <time>2019-06-22T13:50:01Z</time>
      </trkpt>
      <trkpt lat="41.687211" lon="-7.373881">
        <ele>772.400</ele>
        <time>2019-06-22T13:50:02Z</time>
      </trkpt>
      <trkpt lat="41.687067" lon="-7.373741">
        <ele>773.420</ele>
        <time>2019-06-22T13:50:03Z</time>
      </trkpt>
      <trkpt lat="41.686941" lon="-7.373565">
        <ele>774.208</ele>
        <time>2019-06-22T13:50:04Z</time>
      </trkpt>
      <trkpt lat="41.686820" lon="-7.373381">
        <ele>774.238</ele>
        <time>2019-06-22T13:50:05Z</time>
      </trkpt>
      <trkpt lat="41.686725" lon="-7.373154">
        <ele>773.592</ele>
        <time>2019-06-22T13:50:06Z</time>
      </trkpt>
      <trkpt lat="41.686649" lon="-7.372920">
        <ele>772.794</ele>
        <time>2019-06-22T13:50:07Z</time>
      </trkpt>
      <trkpt lat="41.686581" lon="-7.372674">
        <ele>771.866</ele>
        <time>2019-06-22T13:50:08Z</time>
      </trkpt>
      <trkpt lat="41.686523" lon="-7.372416">
        <ele>770.794</ele>
        <time>2019-06-22T13:50:09Z</time>
      </trkpt>
      <trkpt lat="41.686526" lon="-7.372150">
        <ele>769.833</ele>
        <time>2019-06-22T13:50:10Z</time>
      </trkpt>
      <trkpt lat="41.686527" lon="-7.371880">
        <ele>768.758</ele>
        <time>2019-06-22T13:50:11Z</time>
      </trkpt>
      <trkpt lat="41.686529" lon="-7.371612">
        <ele>766.921</ele>
        <time>2019-06-22T13:50:12Z</time>
      </trkpt>
      <trkpt lat="41.686514" lon="-7.371341">
        <ele>764.426</ele>
        <time>2019-06-22T13:50:13Z</time>
      </trkpt>
      <trkpt lat="41.686475" lon="-7.371081">
        <ele>762.347</ele>
        <time>2019-06-22T13:50:14Z</time>
      </trkpt>
      <trkpt lat="41.686429" lon="-7.370836">
        <ele>760.211</ele>
        <time>2019-06-22T13:50:15Z</time>
      </trkpt>
      <trkpt lat="41.686344" lon="-7.370634">
        <ele>758.008</ele>
        <time>2019-06-22T13:50:16Z</time>
      </trkpt>
      <trkpt lat="41.686239" lon="-7.370415">
        <ele>755.535</ele>
        <time>2019-06-22T13:50:17Z</time>
      </trkpt>
      <trkpt lat="41.686112" lon="-7.370209">
        <ele>755.069</ele>
        <time>2019-06-22T13:50:18Z</time>
      </trkpt>
      <trkpt lat="41.685943" lon="-7.370070">
        <ele>753.771</ele>
        <time>2019-06-22T13:50:19Z</time>
      </trkpt>
      <trkpt lat="41.685766" lon="-7.369932">
        <ele>752.263</ele>
        <time>2019-06-22T13:50:20Z</time>
      </trkpt>
      <trkpt lat="41.685573" lon="-7.369825">
        <ele>751.591</ele>
        <time>2019-06-22T13:50:21Z</time>
      </trkpt>
      <trkpt lat="41.685376" lon="-7.369766">
        <ele>751.380</ele>
        <time>2019-06-22T13:50:22Z</time>
      </trkpt>
      <trkpt lat="41.685176" lon="-7.369681">
        <ele>750.845</ele>
        <time>2019-06-22T13:50:23Z</time>
      </trkpt>
      <trkpt lat="41.684978" lon="-7.369598">
        <ele>750.128</ele>
        <time>2019-06-22T13:50:24Z</time>
      </trkpt>
      <trkpt lat="41.684772" lon="-7.369512">
        <ele>749.523</ele>
        <time>2019-06-22T13:50:25Z</time>
      </trkpt>
      <trkpt lat="41.684566" lon="-7.369423">
        <ele>749.583</ele>
        <time>2019-06-22T13:50:26Z</time>
      </trkpt>
      <trkpt lat="41.684369" lon="-7.369348">
        <ele>748.911</ele>
        <time>2019-06-22T13:50:27Z</time>
      </trkpt>
      <trkpt lat="41.684177" lon="-7.369282">
        <ele>747.708</ele>
        <time>2019-06-22T13:50:28Z</time>
      </trkpt>
      <trkpt lat="41.683971" lon="-7.369201">
        <ele>747.035</ele>
        <time>2019-06-22T13:50:29Z</time>
      </trkpt>
      <trkpt lat="41.683784" lon="-7.369163">
        <ele>746.339</ele>
        <time>2019-06-22T13:50:30Z</time>
      </trkpt>
      <trkpt lat="41.683581" lon="-7.369114">
        <ele>745.931</ele>
        <time>2019-06-22T13:50:31Z</time>
      </trkpt>
      <trkpt lat="41.683377" lon="-7.369084">
        <ele>745.113</ele>
        <time>2019-06-22T13:50:32Z</time>
      </trkpt>
      <trkpt lat="41.683176" lon="-7.369063">
        <ele>744.211</ele>
        <time>2019-06-22T13:50:33Z</time>
      </trkpt>
      <trkpt lat="41.682983" lon="-7.369040">
        <ele>742.940</ele>
        <time>2019-06-22T13:50:34Z</time>
      </trkpt>
      <trkpt lat="41.682786" lon="-7.369014">
        <ele>741.835</ele>
        <time>2019-06-22T13:50:35Z</time>
      </trkpt>
      <trkpt lat="41.682593" lon="-7.368988">
        <ele>740.518</ele>
        <time>2019-06-22T13:50:36Z</time>
      </trkpt>
      <trkpt lat="41.682410" lon="-7.368966">
        <ele>739.067</ele>
        <time>2019-06-22T13:50:37Z</time>
      </trkpt>
      <trkpt lat="41.682228" lon="-7.368926">
        <ele>738.181</ele>
        <time>2019-06-22T13:50:38Z</time>
      </trkpt>
      <trkpt lat="41.682048" lon="-7.368877">
        <ele>738.119</ele>
        <time>2019-06-22T13:50:39Z</time>
      </trkpt>
      <trkpt lat="41.681883" lon="-7.368810">
        <ele>738.208</ele>
        <time>2019-06-22T13:50:40Z</time>
      </trkpt>
      <trkpt lat="41.681716" lon="-7.368723">
        <ele>738.379</ele>
        <time>2019-06-22T13:50:41Z</time>
      </trkpt>
      <trkpt lat="41.681564" lon="-7.368605">
        <ele>738.563</ele>
        <time>2019-06-22T13:50:42Z</time>
      </trkpt>
      <trkpt lat="41.681420" lon="-7.368468">
        <ele>738.535</ele>
        <time>2019-06-22T13:50:43Z</time>
      </trkpt>
      <trkpt lat="41.681289" lon="-7.368318">
        <ele>738.517</ele>
        <time>2019-06-22T13:50:44Z</time>
      </trkpt>
      <trkpt lat="41.681218" lon="-7.368097">
        <ele>737.975</ele>
        <time>2019-06-22T13:50:45Z</time>
      </trkpt>
      <trkpt lat="41.681139" lon="-7.367874">
        <ele>736.124</ele>
        <time>2019-06-22T13:50:46Z</time>
      </trkpt>
      <trkpt lat="41.681063" lon="-7.367644">
        <ele>735.369</ele>
        <time>2019-06-22T13:50:47Z</time>
      </trkpt>
      <trkpt lat="41.681045" lon="-7.367403">
        <ele>734.552</ele>
        <time>2019-06-22T13:50:48Z</time>
      </trkpt>
      <trkpt lat="41.681061" lon="-7.367164">
        <ele>733.511</ele>
        <time>2019-06-22T13:50:49Z</time>
      </trkpt>
      <trkpt lat="41.681089" lon="-7.366919">
        <ele>732.521</ele>
        <time>2019-06-22T13:50:50Z</time>
      </trkpt>
      <trkpt lat="41.681133" lon="-7.366674">
        <ele>732.103</ele>
        <time>2019-06-22T13:50:51Z</time>
      </trkpt>
      <trkpt lat="41.681200" lon="-7.366433">
        <ele>731.608</ele>
        <time>2019-06-22T13:50:52Z</time>
      </trkpt>
      <trkpt lat="41.681286" lon="-7.366204">
        <ele>730.764</ele>
        <time>2019-06-22T13:50:53Z</time>
      </trkpt>
      <trkpt lat="41.681368" lon="-7.365967">
        <ele>728.958</ele>
        <time>2019-06-22T13:50:54Z</time>
      </trkpt>
      <trkpt lat="41.681415" lon="-7.365704">
        <ele>725.970</ele>
        <time>2019-06-22T13:50:55Z</time>
      </trkpt>
      <trkpt lat="41.681457" lon="-7.365453">
        <ele>721.932</ele>
        <time>2019-06-22T13:50:56Z</time>
      </trkpt>
      <trkpt lat="41.681486" lon="-7.365186">
        <ele>716.310</ele>
        <time>2019-06-22T13:50:57Z</time>
      </trkpt>
      <trkpt lat="41.681509" lon="-7.364896">
        <ele>714.649</ele>
        <time>2019-06-22T13:50:58Z</time>
      </trkpt>
      <trkpt lat="41.681526" lon="-7.364614">
        <ele>714.074</ele>
        <time>2019-06-22T13:50:59Z</time>
      </trkpt>
      <trkpt lat="41.681554" lon="-7.364337">
        <ele>714.057</ele>
        <time>2019-06-22T13:51:00Z</time>
      </trkpt>
      <trkpt lat="41.681580" lon="-7.364054">
        <ele>714.063</ele>
        <time>2019-06-22T13:51:01Z</time>
      </trkpt>
      <trkpt lat="41.681601" lon="-7.363775">
        <ele>713.944</ele>
        <time>2019-06-22T13:51:02Z</time>
      </trkpt>
      <trkpt lat="41.681635" lon="-7.363516">
        <ele>712.318</ele>
        <time>2019-06-22T13:51:03Z</time>
      </trkpt>
      <trkpt lat="41.681677" lon="-7.363258">
        <ele>710.508</ele>
        <time>2019-06-22T13:51:04Z</time>
      </trkpt>
      <trkpt lat="41.681724" lon="-7.363012">
        <ele>707.719</ele>
        <time>2019-06-22T13:51:05Z</time>
      </trkpt>
      <trkpt lat="41.681783" lon="-7.362766">
        <ele>703.833</ele>
        <time>2019-06-22T13:51:06Z</time>
      </trkpt>
      <trkpt lat="41.681845" lon="-7.362520">
        <ele>702.935</ele>
        <time>2019-06-22T13:51:07Z</time>
      </trkpt>
      <trkpt lat="41.681930" lon="-7.362287">
        <ele>702.357</ele>
        <time>2019-06-22T13:51:08Z</time>
      </trkpt>
      <trkpt lat="41.682037" lon="-7.362068">
        <ele>701.355</ele>
        <time>2019-06-22T13:51:09Z</time>
      </trkpt>
      <trkpt lat="41.682151" lon="-7.361847">
        <ele>701.324</ele>
        <time>2019-06-22T13:51:10Z</time>
      </trkpt>
      <trkpt lat="41.682272" lon="-7.361638">
        <ele>701.739</ele>
        <time>2019-06-22T13:51:11Z</time>
      </trkpt>
      <trkpt lat="41.682403" lon="-7.361437">
        <ele>702.342</ele>
        <time>2019-06-22T13:51:12Z</time>
      </trkpt>
      <trkpt lat="41.682537" lon="-7.361245">
        <ele>702.366</ele>
        <time>2019-06-22T13:51:13Z</time>
      </trkpt>
      <trkpt lat="41.682665" lon="-7.361063">
        <ele>698.829</ele>
        <time>2019-06-22T13:51:14Z</time>
      </trkpt>
      <trkpt lat="41.682788" lon="-7.360884">
        <ele>696.421</ele>
        <time>2019-06-22T13:51:15Z</time>
      </trkpt>
      <trkpt lat="41.682886" lon="-7.360710">
        <ele>694.708</ele>
        <time>2019-06-22T13:51:16Z</time>
      </trkpt>
      <trkpt lat="41.682980" lon="-7.360532">
        <ele>693.489</ele>
        <time>2019-06-22T13:51:17Z</time>
      </trkpt>
      <trkpt lat="41.683072" lon="-7.360346">
        <ele>693.463</ele>
        <time>2019-06-22T13:51:18Z</time>
      </trkpt>
      <trkpt lat="41.683078" lon="-7.360124">
        <ele>693.685</ele>
        <time>2019-06-22T13:51:19Z</time>
      </trkpt>
      <trkpt lat="41.683106" lon="-7.359913">
        <ele>695.457</ele>
        <time>2019-06-22T13:51:20Z</time>
      </trkpt>
      <trkpt lat="41.683100" lon="-7.359717">
        <ele>696.665</ele>
        <time>2019-06-22T13:51:21Z</time>
      </trkpt>
      <trkpt lat="41.682950" lon="-7.359530">
        <ele>698.124</ele>
        <time>2019-06-22T13:51:22Z</time>
      </trkpt>
      <trkpt lat="41.682851" lon="-7.359332">
        <ele>698.979</ele>
        <time>2019-06-22T13:51:23Z</time>
      </trkpt>
      <trkpt lat="41.682724" lon="-7.359151">
        <ele>699.342</ele>
        <time>2019-06-22T13:51:24Z</time>
      </trkpt>
      <trkpt lat="41.682594" lon="-7.358981">
        <ele>699.924</ele>
        <time>2019-06-22T13:51:25Z</time>
      </trkpt>
      <trkpt lat="41.682432" lon="-7.358834">
        <ele>700.404</ele>
        <time>2019-06-22T13:51:26Z</time>
      </trkpt>
      <trkpt lat="41.682286" lon="-7.358830">
        <ele>701.314</ele>
        <time>2019-06-22T13:51:27Z</time>
      </trkpt>
      <trkpt lat="41.682113" lon="-7.358969">
        <ele>701.508</ele>
        <time>2019-06-22T13:51:28Z</time>
      </trkpt>
      <trkpt lat="41.681932" lon="-7.359020">
        <ele>702.345</ele>
        <time>2019-06-22T13:51:29Z</time>
      </trkpt>
      <trkpt lat="41.681765" lon="-7.359092">
        <ele>704.099</ele>
        <time>2019-06-22T13:51:30Z</time>
      </trkpt>
      <trkpt lat="41.681611" lon="-7.359195">
        <ele>705.361</ele>
        <time>2019-06-22T13:51:31Z</time>
      </trkpt>
      <trkpt lat="41.681445" lon="-7.359272">
        <ele>705.333</ele>
        <time>2019-06-22T13:51:32Z</time>
      </trkpt>
      <trkpt lat="41.681274" lon="-7.359337">
        <ele>706.381</ele>
        <time>2019-06-22T13:51:33Z</time>
      </trkpt>
      <trkpt lat="41.681091" lon="-7.359389">
        <ele>707.960</ele>
        <time>2019-06-22T13:51:34Z</time>
      </trkpt>
      <trkpt lat="41.680906" lon="-7.359420">
        <ele>708.965</ele>
        <time>2019-06-22T13:51:35Z</time>
      </trkpt>
      <trkpt lat="41.680723" lon="-7.359432">
        <ele>710.238</ele>
        <time>2019-06-22T13:51:36Z</time>
      </trkpt>
      <trkpt lat="41.680539" lon="-7.359469">
        <ele>710.254</ele>
        <time>2019-06-22T13:51:37Z</time>
      </trkpt>
      <trkpt lat="41.680366" lon="-7.359516">
        <ele>710.556</ele>
        <time>2019-06-22T13:51:38Z</time>
      </trkpt>
      <trkpt lat="41.680199" lon="-7.359643">
        <ele>710.511</ele>
        <time>2019-06-22T13:51:39Z</time>
      </trkpt>
      <trkpt lat="41.680053" lon="-7.359779">
        <ele>710.508</ele>
        <time>2019-06-22T13:51:40Z</time>
      </trkpt>
      <trkpt lat="41.679896" lon="-7.359927">
        <ele>710.738</ele>
        <time>2019-06-22T13:51:41Z</time>
      </trkpt>
      <trkpt lat="41.679743" lon="-7.360043">
        <ele>711.282</ele>
        <time>2019-06-22T13:51:42Z</time>
      </trkpt>
      <trkpt lat="41.679586" lon="-7.360166">
        <ele>713.844</ele>
        <time>2019-06-22T13:51:43Z</time>
      </trkpt>
      <trkpt lat="41.679429" lon="-7.360295">
        <ele>715.586</ele>
        <time>2019-06-22T13:51:44Z</time>
      </trkpt>
      <trkpt lat="41.679262" lon="-7.360426">
        <ele>717.084</ele>
        <time>2019-06-22T13:51:45Z</time>
      </trkpt>
      <trkpt lat="41.679108" lon="-7.360567">
        <ele>718.463</ele>
        <time>2019-06-22T13:51:46Z</time>
      </trkpt>
      <trkpt lat="41.678963" lon="-7.360718">
        <ele>718.918</ele>
        <time>2019-06-22T13:51:47Z</time>
      </trkpt>
      <trkpt lat="41.678824" lon="-7.360869">
        <ele>719.341</ele>
        <time>2019-06-22T13:51:48Z</time>
      </trkpt>
      <trkpt lat="41.678679" lon="-7.361020">
        <ele>719.996</ele>
        <time>2019-06-22T13:51:49Z</time>
      </trkpt>
      <trkpt lat="41.678538" lon="-7.361178">
        <ele>721.231</ele>
        <time>2019-06-22T13:51:50Z</time>
      </trkpt>
      <trkpt lat="41.678441" lon="-7.361300">
        <ele>722.924</ele>
        <time>2019-06-22T13:51:51Z</time>
      </trkpt>
      <trkpt lat="41.678320" lon="-7.361415">
        <ele>725.108</ele>
        <time>2019-06-22T13:51:52Z</time>
      </trkpt>
      <trkpt lat="41.678190" lon="-7.361542">
        <ele>725.692</ele>
        <time>2019-06-22T13:51:53Z</time>
      </trkpt>
      <trkpt lat="41.678055" lon="-7.361643">
        <ele>726.376</ele>
        <time>2019-06-22T13:51:54Z</time>
      </trkpt>
      <trkpt lat="41.677891" lon="-7.361716">
        <ele>726.658</ele>
        <time>2019-06-22T13:51:55Z</time>
      </trkpt>
      <trkpt lat="41.677708" lon="-7.361747">
        <ele>726.920</ele>
        <time>2019-06-22T13:51:56Z</time>
      </trkpt>
      <trkpt lat="41.677551" lon="-7.361737">
        <ele>727.198</ele>
        <time>2019-06-22T13:51:57Z</time>
      </trkpt>
      <trkpt lat="41.677385" lon="-7.361704">
        <ele>728.047</ele>
        <time>2019-06-22T13:51:58Z</time>
      </trkpt>
      <trkpt lat="41.677221" lon="-7.361631">
        <ele>728.662</ele>
        <time>2019-06-22T13:51:59Z</time>
      </trkpt>
      <trkpt lat="41.677063" lon="-7.361532">
        <ele>729.365</ele>
        <time>2019-06-22T13:52:00Z</time>
      </trkpt>
      <trkpt lat="41.676909" lon="-7.361402">
        <ele>729.965</ele>
        <time>2019-06-22T13:52:01Z</time>
      </trkpt>
      <trkpt lat="41.676784" lon="-7.361239">
        <ele>730.068</ele>
        <time>2019-06-22T13:52:02Z</time>
      </trkpt>
      <trkpt lat="41.676682" lon="-7.361071">
        <ele>730.114</ele>
        <time>2019-06-22T13:52:03Z</time>
      </trkpt>
      <trkpt lat="41.676592" lon="-7.360844">
        <ele>730.108</ele>
        <time>2019-06-22T13:52:04Z</time>
      </trkpt>
      <trkpt lat="41.676513" lon="-7.360609">
        <ele>730.189</ele>
        <time>2019-06-22T13:52:05Z</time>
      </trkpt>
      <trkpt lat="41.676466" lon="-7.360358">
        <ele>730.113</ele>
        <time>2019-06-22T13:52:06Z</time>
      </trkpt>
      <trkpt lat="41.676420" lon="-7.360106">
        <ele>729.745</ele>
        <time>2019-06-22T13:52:07Z</time>
      </trkpt>
      <trkpt lat="41.676378" lon="-7.359853">
        <ele>727.827</ele>
        <time>2019-06-22T13:52:08Z</time>
      </trkpt>
      <trkpt lat="41.676331" lon="-7.359582">
        <ele>727.255</ele>
        <time>2019-06-22T13:52:09Z</time>
      </trkpt>
      <trkpt lat="41.676295" lon="-7.359329">
        <ele>724.464</ele>
        <time>2019-06-22T13:52:10Z</time>
      </trkpt>
      <trkpt lat="41.676243" lon="-7.359059">
        <ele>722.289</ele>
        <time>2019-06-22T13:52:11Z</time>
      </trkpt>
      <trkpt lat="41.676200" lon="-7.358792">
        <ele>721.982</ele>
        <time>2019-06-22T13:52:12Z</time>
      </trkpt>
      <trkpt lat="41.676153" lon="-7.358519">
        <ele>721.224</ele>
        <time>2019-06-22T13:52:13Z</time>
      </trkpt>
      <trkpt lat="41.676099" lon="-7.358243">
        <ele>721.204</ele>
        <time>2019-06-22T13:52:14Z</time>
      </trkpt>
      <trkpt lat="41.676041" lon="-7.357971">
        <ele>722.414</ele>
        <time>2019-06-22T13:52:15Z</time>
      </trkpt>
      <trkpt lat="41.675964" lon="-7.357706">
        <ele>723.708</ele>
        <time>2019-06-22T13:52:16Z</time>
      </trkpt>
      <trkpt lat="41.675875" lon="-7.357449">
        <ele>723.835</ele>
        <time>2019-06-22T13:52:17Z</time>
      </trkpt>
      <trkpt lat="41.675776" lon="-7.357191">
        <ele>724.149</ele>
        <time>2019-06-22T13:52:18Z</time>
      </trkpt>
      <trkpt lat="41.675684" lon="-7.356944">
        <ele>724.831</ele>
        <time>2019-06-22T13:52:19Z</time>
      </trkpt>
      <trkpt lat="41.675585" lon="-7.356685">
        <ele>725.023</ele>
        <time>2019-06-22T13:52:20Z</time>
      </trkpt>
      <trkpt lat="41.675496" lon="-7.356428">
        <ele>725.061</ele>
        <time>2019-06-22T13:52:21Z</time>
      </trkpt>
      <trkpt lat="41.675419" lon="-7.356174">
        <ele>725.120</ele>
        <time>2019-06-22T13:52:22Z</time>
      </trkpt>
      <trkpt lat="41.675349" lon="-7.355917">
        <ele>726.045</ele>
        <time>2019-06-22T13:52:23Z</time>
      </trkpt>
      <trkpt lat="41.675287" lon="-7.355659">
        <ele>727.248</ele>
        <time>2019-06-22T13:52:24Z</time>
      </trkpt>
      <trkpt lat="41.675234" lon="-7.355410">
        <ele>730.155</ele>
        <time>2019-06-22T13:52:25Z</time>
      </trkpt>
      <trkpt lat="41.675180" lon="-7.355142">
        <ele>731.107</ele>
        <time>2019-06-22T13:52:26Z</time>
      </trkpt>
      <trkpt lat="41.675136" lon="-7.354872">
        <ele>732.617</ele>
        <time>2019-06-22T13:52:27Z</time>
      </trkpt>
      <trkpt lat="41.675109" lon="-7.354631">
        <ele>732.608</ele>
        <time>2019-06-22T13:52:28Z</time>
      </trkpt>
      <trkpt lat="41.675055" lon="-7.354354">
        <ele>731.488</ele>
        <time>2019-06-22T13:52:29Z</time>
      </trkpt>
      <trkpt lat="41.675013" lon="-7.354088">
        <ele>729.762</ele>
        <time>2019-06-22T13:52:30Z</time>
      </trkpt>
      <trkpt lat="41.674961" lon="-7.353814">
        <ele>727.864</ele>
        <time>2019-06-22T13:52:31Z</time>
      </trkpt>
      <trkpt lat="41.674911" lon="-7.353532">
        <ele>726.056</ele>
        <time>2019-06-22T13:52:32Z</time>
      </trkpt>
      <trkpt lat="41.674865" lon="-7.353254">
        <ele>724.994</ele>
        <time>2019-06-22T13:52:33Z</time>
      </trkpt>
      <trkpt lat="41.674821" lon="-7.352973">
        <ele>723.343</ele>
        <time>2019-06-22T13:52:34Z</time>
      </trkpt>
      <trkpt lat="41.674779" lon="-7.352703">
        <ele>721.658</ele>
        <time>2019-06-22T13:52:35Z</time>
      </trkpt>
      <trkpt lat="41.674730" lon="-7.352415">
        <ele>721.681</ele>
        <time>2019-06-22T13:52:36Z</time>
      </trkpt>
      <trkpt lat="41.674682" lon="-7.352132">
        <ele>719.374</ele>
        <time>2019-06-22T13:52:37Z</time>
      </trkpt>
      <trkpt lat="41.674639" lon="-7.351856">
        <ele>717.056</ele>
        <time>2019-06-22T13:52:38Z</time>
      </trkpt>
      <trkpt lat="41.674591" lon="-7.351594">
        <ele>715.421</ele>
        <time>2019-06-22T13:52:39Z</time>
      </trkpt>
      <trkpt lat="41.674541" lon="-7.351335">
        <ele>712.508</ele>
        <time>2019-06-22T13:52:40Z</time>
      </trkpt>
      <trkpt lat="41.674479" lon="-7.351095">
        <ele>710.040</ele>
        <time>2019-06-22T13:52:41Z</time>
      </trkpt>
      <trkpt lat="41.674404" lon="-7.350863">
        <ele>709.914</ele>
        <time>2019-06-22T13:52:42Z</time>
      </trkpt>
      <trkpt lat="41.674324" lon="-7.350660">
        <ele>709.756</ele>
        <time>2019-06-22T13:52:43Z</time>
      </trkpt>
      <trkpt lat="41.674244" lon="-7.350486">
        <ele>709.728</ele>
        <time>2019-06-22T13:52:44Z</time>
      </trkpt>
      <trkpt lat="41.674164" lon="-7.350332">
        <ele>710.696</ele>
        <time>2019-06-22T13:52:45Z</time>
      </trkpt>
      <trkpt lat="41.674093" lon="-7.350181">
        <ele>711.725</ele>
        <time>2019-06-22T13:52:46Z</time>
      </trkpt>
      <trkpt lat="41.674025" lon="-7.350030">
        <ele>711.850</ele>
        <time>2019-06-22T13:52:47Z</time>
      </trkpt>
      <trkpt lat="41.673954" lon="-7.349886">
        <ele>713.433</ele>
        <time>2019-06-22T13:52:48Z</time>
      </trkpt>
      <trkpt lat="41.673890" lon="-7.349722">
        <ele>713.968</ele>
        <time>2019-06-22T13:52:49Z</time>
      </trkpt>
      <trkpt lat="41.673811" lon="-7.349563">
        <ele>714.542</ele>
        <time>2019-06-22T13:52:50Z</time>
      </trkpt>
      <trkpt lat="41.673737" lon="-7.349398">
        <ele>714.626</ele>
        <time>2019-06-22T13:52:51Z</time>
      </trkpt>
      <trkpt lat="41.673658" lon="-7.349228">
        <ele>714.608</ele>
        <time>2019-06-22T13:52:52Z</time>
      </trkpt>
      <trkpt lat="41.673577" lon="-7.349053">
        <ele>713.379</ele>
        <time>2019-06-22T13:52:53Z</time>
      </trkpt>
      <trkpt lat="41.673484" lon="-7.348886">
        <ele>712.593</ele>
        <time>2019-06-22T13:52:54Z</time>
      </trkpt>
      <trkpt lat="41.673393" lon="-7.348699">
        <ele>712.095</ele>
        <time>2019-06-22T13:52:55Z</time>
      </trkpt>
      <trkpt lat="41.673302" lon="-7.348535">
        <ele>711.647</ele>
        <time>2019-06-22T13:52:56Z</time>
      </trkpt>
      <trkpt lat="41.673217" lon="-7.348378">
        <ele>711.655</ele>
        <time>2019-06-22T13:52:57Z</time>
      </trkpt>
      <trkpt lat="41.673140" lon="-7.348209">
        <ele>711.674</ele>
        <time>2019-06-22T13:52:58Z</time>
      </trkpt>
      <trkpt lat="41.673043" lon="-7.348024">
        <ele>712.289</ele>
        <time>2019-06-22T13:52:59Z</time>
      </trkpt>
      <trkpt lat="41.672960" lon="-7.347845">
        <ele>712.482</ele>
        <time>2019-06-22T13:53:00Z</time>
      </trkpt>
      <trkpt lat="41.672868" lon="-7.347649">
        <ele>712.446</ele>
        <time>2019-06-22T13:53:01Z</time>
      </trkpt>
      <trkpt lat="41.672774" lon="-7.347453">
        <ele>712.688</ele>
        <time>2019-06-22T13:53:02Z</time>
      </trkpt>
      <trkpt lat="41.672685" lon="-7.347258">
        <ele>712.616</ele>
        <time>2019-06-22T13:53:03Z</time>
      </trkpt>
      <trkpt lat="41.672586" lon="-7.347062">
        <ele>711.208</ele>
        <time>2019-06-22T13:53:04Z</time>
      </trkpt>
      <trkpt lat="41.672478" lon="-7.346857">
        <ele>709.977</ele>
        <time>2019-06-22T13:53:05Z</time>
      </trkpt>
      <trkpt lat="41.672375" lon="-7.346648">
        <ele>709.321</ele>
        <time>2019-06-22T13:53:06Z</time>
      </trkpt>
      <trkpt lat="41.672268" lon="-7.346436">
        <ele>708.523</ele>
        <time>2019-06-22T13:53:07Z</time>
      </trkpt>
      <trkpt lat="41.672180" lon="-7.346235">
        <ele>708.235</ele>
        <time>2019-06-22T13:53:08Z</time>
      </trkpt>
      <trkpt lat="41.672085" lon="-7.346037">
        <ele>707.253</ele>
        <time>2019-06-22T13:53:09Z</time>
      </trkpt>
      <trkpt lat="41.671987" lon="-7.345837">
        <ele>706.992</ele>
        <time>2019-06-22T13:53:10Z</time>
      </trkpt>
      <trkpt lat="41.671883" lon="-7.345673">
        <ele>705.147</ele>
        <time>2019-06-22T13:53:11Z</time>
      </trkpt>
      <trkpt lat="41.671781" lon="-7.345477">
        <ele>702.210</ele>
        <time>2019-06-22T13:53:12Z</time>
      </trkpt>
      <trkpt lat="41.671691" lon="-7.345288">
        <ele>700.699</ele>
        <time>2019-06-22T13:53:13Z</time>
      </trkpt>
      <trkpt lat="41.671600" lon="-7.345096">
        <ele>700.507</ele>
        <time>2019-06-22T13:53:14Z</time>
      </trkpt>
      <trkpt lat="41.671522" lon="-7.344915">
        <ele>698.127</ele>
        <time>2019-06-22T13:53:15Z</time>
      </trkpt>
      <trkpt lat="41.671454" lon="-7.344740">
        <ele>698.108</ele>
        <time>2019-06-22T13:53:16Z</time>
      </trkpt>
      <trkpt lat="41.671408" lon="-7.344571">
        <ele>698.312</ele>
        <time>2019-06-22T13:53:17Z</time>
      </trkpt>
      <trkpt lat="41.671337" lon="-7.344373">
        <ele>698.336</ele>
        <time>2019-06-22T13:53:18Z</time>
      </trkpt>
      <trkpt lat="41.671273" lon="-7.344161">
        <ele>698.358</ele>
        <time>2019-06-22T13:53:19Z</time>
      </trkpt>
      <trkpt lat="41.671262" lon="-7.343955">
        <ele>698.220</ele>
        <time>2019-06-22T13:53:20Z</time>
      </trkpt>
      <trkpt lat="41.671292" lon="-7.343736">
        <ele>697.898</ele>
        <time>2019-06-22T13:53:21Z</time>
      </trkpt>
      <trkpt lat="41.671335" lon="-7.343531">
        <ele>697.247</ele>
        <time>2019-06-22T13:53:22Z</time>
      </trkpt>
      <trkpt lat="41.671386" lon="-7.343307">
        <ele>696.892</ele>
        <time>2019-06-22T13:53:23Z</time>
      </trkpt>
      <trkpt lat="41.671444" lon="-7.343078">
        <ele>695.445</ele>
        <time>2019-06-22T13:53:24Z</time>
      </trkpt>
      <trkpt lat="41.671515" lon="-7.342845">
        <ele>694.193</ele>
        <time>2019-06-22T13:53:25Z</time>
      </trkpt>
      <trkpt lat="41.671587" lon="-7.342603">
        <ele>694.065</ele>
        <time>2019-06-22T13:53:26Z</time>
      </trkpt>
      <trkpt lat="41.671667" lon="-7.342370">
        <ele>692.121</ele>
        <time>2019-06-22T13:53:27Z</time>
      </trkpt>
      <trkpt lat="41.671736" lon="-7.342143">
        <ele>688.808</ele>
        <time>2019-06-22T13:53:28Z</time>
      </trkpt>
      <trkpt lat="41.671810" lon="-7.341930">
        <ele>685.652</ele>
        <time>2019-06-22T13:53:29Z</time>
      </trkpt>
      <trkpt lat="41.671861" lon="-7.341707">
        <ele>683.856</ele>
        <time>2019-06-22T13:53:30Z</time>
      </trkpt>
      <trkpt lat="41.671888" lon="-7.341496">
        <ele>682.978</ele>
        <time>2019-06-22T13:53:31Z</time>
      </trkpt>
      <trkpt lat="41.671886" lon="-7.341278">
        <ele>682.290</ele>
        <time>2019-06-22T13:53:32Z</time>
      </trkpt>
      <trkpt lat="41.671859" lon="-7.341058">
        <ele>682.228</ele>
        <time>2019-06-22T13:53:33Z</time>
      </trkpt>
      <trkpt lat="41.671829" lon="-7.340848">
        <ele>681.947</ele>
        <time>2019-06-22T13:53:34Z</time>
      </trkpt>
      <trkpt lat="41.671786" lon="-7.340622">
        <ele>681.712</ele>
        <time>2019-06-22T13:53:35Z</time>
      </trkpt>
      <trkpt lat="41.671726" lon="-7.340394">
        <ele>680.815</ele>
        <time>2019-06-22T13:53:36Z</time>
      </trkpt>
      <trkpt lat="41.671663" lon="-7.340167">
        <ele>679.925</ele>
        <time>2019-06-22T13:53:37Z</time>
      </trkpt>
      <trkpt lat="41.671594" lon="-7.339942">
        <ele>679.626</ele>
        <time>2019-06-22T13:53:38Z</time>
      </trkpt>
      <trkpt lat="41.671503" lon="-7.339726">
        <ele>679.408</ele>
        <time>2019-06-22T13:53:39Z</time>
      </trkpt>
      <trkpt lat="41.671408" lon="-7.339501">
        <ele>678.408</ele>
        <time>2019-06-22T13:53:40Z</time>
      </trkpt>
      <trkpt lat="41.671296" lon="-7.339295">
        <ele>678.415</ele>
        <time>2019-06-22T13:53:41Z</time>
      </trkpt>
      <trkpt lat="41.671164" lon="-7.339084">
        <ele>675.279</ele>
        <time>2019-06-22T13:53:42Z</time>
      </trkpt>
      <trkpt lat="41.671021" lon="-7.338898">
        <ele>675.221</ele>
        <time>2019-06-22T13:53:43Z</time>
      </trkpt>
      <trkpt lat="41.670856" lon="-7.338719">
        <ele>672.793</ele>
        <time>2019-06-22T13:53:44Z</time>
      </trkpt>
      <trkpt lat="41.670688" lon="-7.338589">
        <ele>671.291</ele>
        <time>2019-06-22T13:53:45Z</time>
      </trkpt>
      <trkpt lat="41.670508" lon="-7.338424">
        <ele>670.460</ele>
        <time>2019-06-22T13:53:46Z</time>
      </trkpt>
      <trkpt lat="41.670324" lon="-7.338250">
        <ele>670.265</ele>
        <time>2019-06-22T13:53:47Z</time>
      </trkpt>
      <trkpt lat="41.670130" lon="-7.338080">
        <ele>669.298</ele>
        <time>2019-06-22T13:53:48Z</time>
      </trkpt>
      <trkpt lat="41.669933" lon="-7.337907">
        <ele>666.976</ele>
        <time>2019-06-22T13:53:49Z</time>
      </trkpt>
      <trkpt lat="41.669740" lon="-7.337729">
        <ele>665.790</ele>
        <time>2019-06-22T13:53:50Z</time>
      </trkpt>
      <trkpt lat="41.669545" lon="-7.337561">
        <ele>663.519</ele>
        <time>2019-06-22T13:53:51Z</time>
      </trkpt>
      <trkpt lat="41.669359" lon="-7.337388">
        <ele>660.708</ele>
        <time>2019-06-22T13:53:52Z</time>
      </trkpt>
      <trkpt lat="41.669168" lon="-7.337224">
        <ele>660.740</ele>
        <time>2019-06-22T13:53:53Z</time>
      </trkpt>
      <trkpt lat="41.668984" lon="-7.337059">
        <ele>660.744</ele>
        <time>2019-06-22T13:53:54Z</time>
      </trkpt>
      <trkpt lat="41.668801" lon="-7.336895">
        <ele>661.376</ele>
        <time>2019-06-22T13:53:55Z</time>
      </trkpt>
      <trkpt lat="41.668618" lon="-7.336739">
        <ele>661.968</ele>
        <time>2019-06-22T13:53:56Z</time>
      </trkpt>
      <trkpt lat="41.668446" lon="-7.336591">
        <ele>663.116</ele>
        <time>2019-06-22T13:53:57Z</time>
      </trkpt>
      <trkpt lat="41.668270" lon="-7.336437">
        <ele>664.975</ele>
        <time>2019-06-22T13:53:58Z</time>
      </trkpt>
      <trkpt lat="41.668100" lon="-7.336296">
        <ele>665.290</ele>
        <time>2019-06-22T13:53:59Z</time>
      </trkpt>
      <trkpt lat="41.667938" lon="-7.336159">
        <ele>665.273</ele>
        <time>2019-06-22T13:54:00Z</time>
      </trkpt>
      <trkpt lat="41.667774" lon="-7.336024">
        <ele>665.269</ele>
        <time>2019-06-22T13:54:01Z</time>
      </trkpt>
      <trkpt lat="41.667613" lon="-7.335899">
        <ele>666.304</ele>
        <time>2019-06-22T13:54:02Z</time>
      </trkpt>
      <trkpt lat="41.667457" lon="-7.335757">
        <ele>666.524</ele>
        <time>2019-06-22T13:54:03Z</time>
      </trkpt>
      <trkpt lat="41.667302" lon="-7.335626">
        <ele>666.808</ele>
        <time>2019-06-22T13:54:04Z</time>
      </trkpt>
      <trkpt lat="41.667145" lon="-7.335486">
        <ele>666.829</ele>
        <time>2019-06-22T13:54:05Z</time>
      </trkpt>
      <trkpt lat="41.666982" lon="-7.335355">
        <ele>667.343</ele>
        <time>2019-06-22T13:54:06Z</time>
      </trkpt>
      <trkpt lat="41.666823" lon="-7.335216">
        <ele>667.325</ele>
        <time>2019-06-22T13:54:07Z</time>
      </trkpt>
      <trkpt lat="41.666667" lon="-7.335079">
        <ele>666.077</ele>
        <time>2019-06-22T13:54:08Z</time>
      </trkpt>
      <trkpt lat="41.666504" lon="-7.334947">
        <ele>665.655</ele>
        <time>2019-06-22T13:54:09Z</time>
      </trkpt>
      <trkpt lat="41.666335" lon="-7.334812">
        <ele>664.594</ele>
        <time>2019-06-22T13:54:10Z</time>
      </trkpt>
      <trkpt lat="41.666173" lon="-7.334673">
        <ele>663.629</ele>
        <time>2019-06-22T13:54:11Z</time>
      </trkpt>
      <trkpt lat="41.666020" lon="-7.334542">
        <ele>662.562</ele>
        <time>2019-06-22T13:54:12Z</time>
      </trkpt>
      <trkpt lat="41.665862" lon="-7.334403">
        <ele>662.216</ele>
        <time>2019-06-22T13:54:13Z</time>
      </trkpt>
      <trkpt lat="41.665705" lon="-7.334266">
        <ele>660.276</ele>
        <time>2019-06-22T13:54:14Z</time>
      </trkpt>
      <trkpt lat="41.665559" lon="-7.334142">
        <ele>659.213</ele>
        <time>2019-06-22T13:54:15Z</time>
      </trkpt>
      <trkpt lat="41.665401" lon="-7.334018">
        <ele>658.308</ele>
        <time>2019-06-22T13:54:16Z</time>
      </trkpt>
      <trkpt lat="41.665254" lon="-7.333895">
        <ele>657.424</ele>
        <time>2019-06-22T13:54:17Z</time>
      </trkpt>
      <trkpt lat="41.665117" lon="-7.333774">
        <ele>656.148</ele>
        <time>2019-06-22T13:54:18Z</time>
      </trkpt>
      <trkpt lat="41.664983" lon="-7.333656">
        <ele>655.350</ele>
        <time>2019-06-22T13:54:19Z</time>
      </trkpt>
      <trkpt lat="41.664853" lon="-7.333545">
        <ele>654.732</ele>
        <time>2019-06-22T13:54:20Z</time>
      </trkpt>
      <trkpt lat="41.664736" lon="-7.333450">
        <ele>654.090</ele>
        <time>2019-06-22T13:54:21Z</time>
      </trkpt>
      <trkpt lat="41.664631" lon="-7.333355">
        <ele>653.179</ele>
        <time>2019-06-22T13:54:22Z</time>
      </trkpt>
      <trkpt lat="41.664538" lon="-7.333281">
        <ele>652.174</ele>
        <time>2019-06-22T13:54:23Z</time>
      </trkpt>
      <trkpt lat="41.664456" lon="-7.333229">
        <ele>651.437</ele>
        <time>2019-06-22T13:54:24Z</time>
      </trkpt>
      <trkpt lat="41.664387" lon="-7.333200">
        <ele>651.018</ele>
        <time>2019-06-22T13:54:25Z</time>
      </trkpt>
      <trkpt lat="41.664313" lon="-7.333186">
        <ele>651.098</ele>
        <time>2019-06-22T13:54:26Z</time>
      </trkpt>
      <trkpt lat="41.664242" lon="-7.333159">
        <ele>651.417</ele>
        <time>2019-06-22T13:54:27Z</time>
      </trkpt>
      <trkpt lat="41.664182" lon="-7.333103">
        <ele>652.408</ele>
        <time>2019-06-22T13:54:28Z</time>
      </trkpt>
      <trkpt lat="41.664131" lon="-7.333030">
        <ele>653.514</ele>
        <time>2019-06-22T13:54:29Z</time>
      </trkpt>
      <trkpt lat="41.664087" lon="-7.332935">
        <ele>654.678</ele>
        <time>2019-06-22T13:54:30Z</time>
      </trkpt>
      <trkpt lat="41.664033" lon="-7.332843">
        <ele>654.640</ele>
        <time>2019-06-22T13:54:31Z</time>
      </trkpt>
      <trkpt lat="41.663965" lon="-7.332755">
        <ele>653.512</ele>
        <time>2019-06-22T13:54:32Z</time>
      </trkpt>
      <trkpt lat="41.663871" lon="-7.332666">
        <ele>652.110</ele>
        <time>2019-06-22T13:54:33Z</time>
      </trkpt>
      <trkpt lat="41.663762" lon="-7.332578">
        <ele>650.999</ele>
        <time>2019-06-22T13:54:34Z</time>
      </trkpt>
      <trkpt lat="41.663646" lon="-7.332474">
        <ele>649.734</ele>
        <time>2019-06-22T13:54:35Z</time>
      </trkpt>
      <trkpt lat="41.663511" lon="-7.332363">
        <ele>649.717</ele>
        <time>2019-06-22T13:54:36Z</time>
      </trkpt>
      <trkpt lat="41.663375" lon="-7.332245">
        <ele>650.023</ele>
        <time>2019-06-22T13:54:37Z</time>
      </trkpt>
      <trkpt lat="41.663225" lon="-7.332126">
        <ele>650.283</ele>
        <time>2019-06-22T13:54:38Z</time>
      </trkpt>
      <trkpt lat="41.663074" lon="-7.332000">
        <ele>650.311</ele>
        <time>2019-06-22T13:54:39Z</time>
      </trkpt>
      <trkpt lat="41.662919" lon="-7.331874">
        <ele>650.308</ele>
        <time>2019-06-22T13:54:40Z</time>
      </trkpt>
      <trkpt lat="41.662767" lon="-7.331740">
        <ele>650.225</ele>
        <time>2019-06-22T13:54:41Z</time>
      </trkpt>
      <trkpt lat="41.662614" lon="-7.331611">
        <ele>650.269</ele>
        <time>2019-06-22T13:54:42Z</time>
      </trkpt>
      <trkpt lat="41.662458" lon="-7.331482">
        <ele>649.981</ele>
        <time>2019-06-22T13:54:43Z</time>
      </trkpt>
      <trkpt lat="41.662312" lon="-7.331346">
        <ele>650.153</ele>
        <time>2019-06-22T13:54:44Z</time>
      </trkpt>
      <trkpt lat="41.662158" lon="-7.331214">
        <ele>649.971</ele>
        <time>2019-06-22T13:54:45Z</time>
      </trkpt>
      <trkpt lat="41.662014" lon="-7.331094">
        <ele>649.590</ele>
        <time>2019-06-22T13:54:46Z</time>
      </trkpt>
      <trkpt lat="41.661885" lon="-7.330978">
        <ele>649.575</ele>
        <time>2019-06-22T13:54:47Z</time>
      </trkpt>
      <trkpt lat="41.661754" lon="-7.330867">
        <ele>649.528</ele>
        <time>2019-06-22T13:54:48Z</time>
      </trkpt>
      <trkpt lat="41.661630" lon="-7.330753">
        <ele>649.536</ele>
        <time>2019-06-22T13:54:49Z</time>
      </trkpt>
      <trkpt lat="41.661504" lon="-7.330643">
        <ele>650.717</ele>
        <time>2019-06-22T13:54:50Z</time>
      </trkpt>
      <trkpt lat="41.661380" lon="-7.330531">
        <ele>651.418</ele>
        <time>2019-06-22T13:54:51Z</time>
      </trkpt>
      <trkpt lat="41.661254" lon="-7.330412">
        <ele>652.808</ele>
        <time>2019-06-22T13:54:52Z</time>
      </trkpt>
      <trkpt lat="41.661137" lon="-7.330309">
        <ele>653.476</ele>
        <time>2019-06-22T13:54:53Z</time>
      </trkpt>
      <trkpt lat="41.661029" lon="-7.330202">
        <ele>654.780</ele>
        <time>2019-06-22T13:54:54Z</time>
      </trkpt>
      <trkpt lat="41.660928" lon="-7.330089">
        <ele>654.762</ele>
        <time>2019-06-22T13:54:55Z</time>
      </trkpt>
      <trkpt lat="41.660829" lon="-7.329979">
        <ele>654.354</ele>
        <time>2019-06-22T13:54:56Z</time>
      </trkpt>
      <trkpt lat="41.660750" lon="-7.329880">
        <ele>654.182</ele>
        <time>2019-06-22T13:54:57Z</time>
      </trkpt>
      <trkpt lat="41.660670" lon="-7.329773">
        <ele>654.151</ele>
        <time>2019-06-22T13:54:58Z</time>
      </trkpt>
      <trkpt lat="41.660599" lon="-7.329673">
        <ele>654.116</ele>
        <time>2019-06-22T13:54:59Z</time>
      </trkpt>
      <trkpt lat="41.660527" lon="-7.329587">
        <ele>654.389</ele>
        <time>2019-06-22T13:55:00Z</time>
      </trkpt>
      <trkpt lat="41.660453" lon="-7.329529">
        <ele>654.484</ele>
        <time>2019-06-22T13:55:01Z</time>
      </trkpt>
      <trkpt lat="41.660384" lon="-7.329488">
        <ele>654.607</ele>
        <time>2019-06-22T13:55:02Z</time>
      </trkpt>
      <trkpt lat="41.660315" lon="-7.329432">
        <ele>654.617</ele>
        <time>2019-06-22T13:55:03Z</time>
      </trkpt>
      <trkpt lat="41.660257" lon="-7.329355">
        <ele>655.208</ele>
        <time>2019-06-22T13:55:04Z</time>
      </trkpt>
      <trkpt lat="41.660228" lon="-7.329267">
        <ele>655.561</ele>
        <time>2019-06-22T13:55:05Z</time>
      </trkpt>
      <trkpt lat="41.660211" lon="-7.329162">
        <ele>656.345</ele>
        <time>2019-06-22T13:55:06Z</time>
      </trkpt>
      <trkpt lat="41.660198" lon="-7.329029">
        <ele>656.527</ele>
        <time>2019-06-22T13:55:07Z</time>
      </trkpt>
      <trkpt lat="41.660165" lon="-7.328888">
        <ele>656.579</ele>
        <time>2019-06-22T13:55:08Z</time>
      </trkpt>
      <trkpt lat="41.660104" lon="-7.328733">
        <ele>655.357</ele>
        <time>2019-06-22T13:55:09Z</time>
      </trkpt>
      <trkpt lat="41.660029" lon="-7.328567">
        <ele>653.946</ele>
        <time>2019-06-22T13:55:10Z</time>
      </trkpt>
      <trkpt lat="41.659951" lon="-7.328387">
        <ele>653.061</ele>
        <time>2019-06-22T13:55:11Z</time>
      </trkpt>
      <trkpt lat="41.659869" lon="-7.328196">
        <ele>651.934</ele>
        <time>2019-06-22T13:55:12Z</time>
      </trkpt>
      <trkpt lat="41.659778" lon="-7.327998">
        <ele>651.225</ele>
        <time>2019-06-22T13:55:13Z</time>
      </trkpt>
      <trkpt lat="41.659686" lon="-7.327792">
        <ele>649.926</ele>
        <time>2019-06-22T13:55:14Z</time>
      </trkpt>
      <trkpt lat="41.659592" lon="-7.327581">
        <ele>648.908</ele>
        <time>2019-06-22T13:55:15Z</time>
      </trkpt>
      <trkpt lat="41.659495" lon="-7.327367">
        <ele>647.708</ele>
        <time>2019-06-22T13:55:16Z</time>
      </trkpt>
      <trkpt lat="41.659395" lon="-7.327152">
        <ele>645.775</ele>
        <time>2019-06-22T13:55:17Z</time>
      </trkpt>
      <trkpt lat="41.659308" lon="-7.326935">
        <ele>644.659</ele>
        <time>2019-06-22T13:55:18Z</time>
      </trkpt>
      <trkpt lat="41.659206" lon="-7.326722">
        <ele>643.881</ele>
        <time>2019-06-22T13:55:19Z</time>
      </trkpt>
      <trkpt lat="41.659112" lon="-7.326518">
        <ele>643.783</ele>
        <time>2019-06-22T13:55:20Z</time>
      </trkpt>
      <trkpt lat="41.659022" lon="-7.326316">
        <ele>642.351</ele>
        <time>2019-06-22T13:55:21Z</time>
      </trkpt>
      <trkpt lat="41.658932" lon="-7.326111">
        <ele>641.710</ele>
        <time>2019-06-22T13:55:22Z</time>
      </trkpt>
      <trkpt lat="41.658840" lon="-7.325910">
        <ele>641.675</ele>
        <time>2019-06-22T13:55:23Z</time>
      </trkpt>
      <trkpt lat="41.658747" lon="-7.325706">
        <ele>641.678</ele>
        <time>2019-06-22T13:55:24Z</time>
      </trkpt>
      <trkpt lat="41.658658" lon="-7.325503">
        <ele>641.397</ele>
        <time>2019-06-22T13:55:25Z</time>
      </trkpt>
      <trkpt lat="41.658567" lon="-7.325300">
        <ele>640.723</ele>
        <time>2019-06-22T13:55:26Z</time>
      </trkpt>
      <trkpt lat="41.658479" lon="-7.325092">
        <ele>639.825</ele>
        <time>2019-06-22T13:55:27Z</time>
      </trkpt>
      <trkpt lat="41.658378" lon="-7.324868">
        <ele>638.608</ele>
        <time>2019-06-22T13:55:28Z</time>
      </trkpt>
      <trkpt lat="41.658282" lon="-7.324660">
        <ele>637.232</ele>
        <time>2019-06-22T13:55:29Z</time>
      </trkpt>
      <trkpt lat="41.658188" lon="-7.324446">
        <ele>636.426</ele>
        <time>2019-06-22T13:55:30Z</time>
      </trkpt>
      <trkpt lat="41.658096" lon="-7.324236">
        <ele>635.548</ele>
        <time>2019-06-22T13:55:31Z</time>
      </trkpt>
      <trkpt lat="41.658001" lon="-7.324029">
        <ele>634.880</ele>
        <time>2019-06-22T13:55:32Z</time>
      </trkpt>
      <trkpt lat="41.657895" lon="-7.323834">
        <ele>633.138</ele>
        <time>2019-06-22T13:55:33Z</time>
      </trkpt>
      <trkpt lat="41.657801" lon="-7.323619">
        <ele>631.857</ele>
        <time>2019-06-22T13:55:34Z</time>
      </trkpt>
      <trkpt lat="41.657702" lon="-7.323412">
        <ele>630.072</ele>
        <time>2019-06-22T13:55:35Z</time>
      </trkpt>
      <trkpt lat="41.657594" lon="-7.323207">
        <ele>628.315</ele>
        <time>2019-06-22T13:55:36Z</time>
      </trkpt>
      <trkpt lat="41.657484" lon="-7.323026">
        <ele>626.458</ele>
        <time>2019-06-22T13:55:37Z</time>
      </trkpt>
      <trkpt lat="41.657368" lon="-7.322858">
        <ele>624.852</ele>
        <time>2019-06-22T13:55:38Z</time>
      </trkpt>
      <trkpt lat="41.657242" lon="-7.322678">
        <ele>622.117</ele>
        <time>2019-06-22T13:55:39Z</time>
      </trkpt>
      <trkpt lat="41.657120" lon="-7.322523">
        <ele>621.308</ele>
        <time>2019-06-22T13:55:40Z</time>
      </trkpt>
      <trkpt lat="41.656983" lon="-7.322344">
        <ele>620.818</ele>
        <time>2019-06-22T13:55:41Z</time>
      </trkpt>
      <trkpt lat="41.656862" lon="-7.322182">
        <ele>620.682</ele>
        <time>2019-06-22T13:55:42Z</time>
      </trkpt>
      <trkpt lat="41.656749" lon="-7.322035">
        <ele>620.034</ele>
        <time>2019-06-22T13:55:43Z</time>
      </trkpt>
      <trkpt lat="41.656639" lon="-7.321920">
        <ele>620.066</ele>
        <time>2019-06-22T13:55:44Z</time>
      </trkpt>
      <trkpt lat="41.656522" lon="-7.321779">
        <ele>619.274</ele>
        <time>2019-06-22T13:55:45Z</time>
      </trkpt>
      <trkpt lat="41.656407" lon="-7.321637">
        <ele>618.233</ele>
        <time>2019-06-22T13:55:46Z</time>
      </trkpt>
      <trkpt lat="41.656290" lon="-7.321495">
        <ele>617.038</ele>
        <time>2019-06-22T13:55:47Z</time>
      </trkpt>
      <trkpt lat="41.656175" lon="-7.321364">
        <ele>616.621</ele>
        <time>2019-06-22T13:55:48Z</time>
      </trkpt>
      <trkpt lat="41.656067" lon="-7.321229">
        <ele>616.462</ele>
        <time>2019-06-22T13:55:49Z</time>
      </trkpt>
      <trkpt lat="41.655966" lon="-7.321114">
        <ele>615.383</ele>
        <time>2019-06-22T13:55:50Z</time>
      </trkpt>
      <trkpt lat="41.655860" lon="-7.320985">
        <ele>614.711</ele>
        <time>2019-06-22T13:55:51Z</time>
      </trkpt>
      <trkpt lat="41.655758" lon="-7.320876">
        <ele>613.308</ele>
        <time>2019-06-22T13:55:52Z</time>
      </trkpt>
      <trkpt lat="41.655651" lon="-7.320751">
        <ele>613.319</ele>
        <time>2019-06-22T13:55:53Z</time>
      </trkpt>
      <trkpt lat="41.655551" lon="-7.320630">
        <ele>612.193</ele>
        <time>2019-06-22T13:55:54Z</time>
      </trkpt>
      <trkpt lat="41.655450" lon="-7.320510">
        <ele>610.835</ele>
        <time>2019-06-22T13:55:55Z</time>
      </trkpt>
      <trkpt lat="41.655352" lon="-7.320385">
        <ele>610.237</ele>
        <time>2019-06-22T13:55:56Z</time>
      </trkpt>
      <trkpt lat="41.655256" lon="-7.320264">
        <ele>609.795</ele>
        <time>2019-06-22T13:55:57Z</time>
      </trkpt>
      <trkpt lat="41.655158" lon="-7.320148">
        <ele>609.464</ele>
        <time>2019-06-22T13:55:58Z</time>
      </trkpt>
      <trkpt lat="41.655075" lon="-7.320036">
        <ele>609.349</ele>
        <time>2019-06-22T13:55:59Z</time>
      </trkpt>
      <trkpt lat="41.654993" lon="-7.319943">
        <ele>609.122</ele>
        <time>2019-06-22T13:56:00Z</time>
      </trkpt>
      <trkpt lat="41.654922" lon="-7.319883">
        <ele>608.475</ele>
        <time>2019-06-22T13:56:01Z</time>
      </trkpt>
      <trkpt lat="41.654845" lon="-7.319814">
        <ele>607.528</ele>
        <time>2019-06-22T13:56:02Z</time>
      </trkpt>
      <trkpt lat="41.654787" lon="-7.319747">
        <ele>606.820</ele>
        <time>2019-06-22T13:56:03Z</time>
      </trkpt>
      <trkpt lat="41.654731" lon="-7.319696">
        <ele>606.108</ele>
        <time>2019-06-22T13:56:04Z</time>
      </trkpt>
      <trkpt lat="41.654674" lon="-7.319633">
        <ele>605.520</ele>
        <time>2019-06-22T13:56:05Z</time>
      </trkpt>
      <trkpt lat="41.654603" lon="-7.319587">
        <ele>605.264</ele>
        <time>2019-06-22T13:56:06Z</time>
      </trkpt>
      <trkpt lat="41.654513" lon="-7.319529">
        <ele>604.896</ele>
        <time>2019-06-22T13:56:07Z</time>
      </trkpt>
      <trkpt lat="41.654402" lon="-7.319473">
        <ele>604.058</ele>
        <time>2019-06-22T13:56:08Z</time>
      </trkpt>
      <trkpt lat="41.654271" lon="-7.319419">
        <ele>603.846</ele>
        <time>2019-06-22T13:56:09Z</time>
      </trkpt>
      <trkpt lat="41.654139" lon="-7.319380">
        <ele>603.245</ele>
        <time>2019-06-22T13:56:10Z</time>
      </trkpt>
      <trkpt lat="41.653996" lon="-7.319327">
        <ele>602.780</ele>
        <time>2019-06-22T13:56:11Z</time>
      </trkpt>
      <trkpt lat="41.653852" lon="-7.319280">
        <ele>602.043</ele>
        <time>2019-06-22T13:56:12Z</time>
      </trkpt>
      <trkpt lat="41.653691" lon="-7.319213">
        <ele>601.046</ele>
        <time>2019-06-22T13:56:13Z</time>
      </trkpt>
      <trkpt lat="41.653532" lon="-7.319151">
        <ele>600.388</ele>
        <time>2019-06-22T13:56:14Z</time>
      </trkpt>
      <trkpt lat="41.653366" lon="-7.319095">
        <ele>599.816</ele>
        <time>2019-06-22T13:56:15Z</time>
      </trkpt>
      <trkpt lat="41.653188" lon="-7.319029">
        <ele>598.708</ele>
        <time>2019-06-22T13:56:16Z</time>
      </trkpt>
      <trkpt lat="41.653022" lon="-7.318971">
        <ele>597.197</ele>
        <time>2019-06-22T13:56:17Z</time>
      </trkpt>
      <trkpt lat="41.652858" lon="-7.318910">
        <ele>596.431</ele>
        <time>2019-06-22T13:56:18Z</time>
      </trkpt>
      <trkpt lat="41.652696" lon="-7.318882">
        <ele>594.593</ele>
        <time>2019-06-22T13:56:19Z</time>
      </trkpt>
      <trkpt lat="41.652536" lon="-7.318899">
        <ele>591.435</ele>
        <time>2019-06-22T13:56:20Z</time>
      </trkpt>
      <trkpt lat="41.652375" lon="-7.318946">
        <ele>590.253</ele>
        <time>2019-06-22T13:56:21Z</time>
      </trkpt>
      <trkpt lat="41.652218" lon="-7.319005">
        <ele>589.342</ele>
        <time>2019-06-22T13:56:22Z</time>
      </trkpt>
      <trkpt lat="41.652062" lon="-7.319115">
        <ele>587.087</ele>
        <time>2019-06-22T13:56:23Z</time>
      </trkpt>
      <trkpt lat="41.651908" lon="-7.319228">
        <ele>585.540</ele>
        <time>2019-06-22T13:56:24Z</time>
      </trkpt>
      <trkpt lat="41.651754" lon="-7.319346">
        <ele>585.252</ele>
        <time>2019-06-22T13:56:25Z</time>
      </trkpt>
      <trkpt lat="41.651599" lon="-7.319459">
        <ele>585.353</ele>
        <time>2019-06-22T13:56:26Z</time>
      </trkpt>
      <trkpt lat="41.651453" lon="-7.319575">
        <ele>585.308</ele>
        <time>2019-06-22T13:56:27Z</time>
      </trkpt>
      <trkpt lat="41.651318" lon="-7.319682">
        <ele>586.408</ele>
        <time>2019-06-22T13:56:28Z</time>
      </trkpt>
      <trkpt lat="41.651174" lon="-7.319788">
        <ele>587.678</ele>
        <time>2019-06-22T13:56:29Z</time>
      </trkpt>
      <trkpt lat="41.651031" lon="-7.319891">
        <ele>588.452</ele>
        <time>2019-06-22T13:56:30Z</time>
      </trkpt>
      <trkpt lat="41.650898" lon="-7.319967">
        <ele>589.014</ele>
        <time>2019-06-22T13:56:31Z</time>
      </trkpt>
      <trkpt lat="41.650748" lon="-7.320045">
        <ele>589.236</ele>
        <time>2019-06-22T13:56:32Z</time>
      </trkpt>
      <trkpt lat="41.650598" lon="-7.320122">
        <ele>589.364</ele>
        <time>2019-06-22T13:56:33Z</time>
      </trkpt>
      <trkpt lat="41.650451" lon="-7.320200">
        <ele>589.373</ele>
        <time>2019-06-22T13:56:34Z</time>
      </trkpt>
      <trkpt lat="41.650302" lon="-7.320273">
        <ele>589.228</ele>
        <time>2019-06-22T13:56:35Z</time>
      </trkpt>
      <trkpt lat="41.650150" lon="-7.320341">
        <ele>588.911</ele>
        <time>2019-06-22T13:56:36Z</time>
      </trkpt>
      <trkpt lat="41.649990" lon="-7.320409">
        <ele>588.665</ele>
        <time>2019-06-22T13:56:37Z</time>
      </trkpt>
      <trkpt lat="41.649835" lon="-7.320485">
        <ele>587.868</ele>
        <time>2019-06-22T13:56:38Z</time>
      </trkpt>
      <trkpt lat="41.649684" lon="-7.320555">
        <ele>587.214</ele>
        <time>2019-06-22T13:56:39Z</time>
      </trkpt>
      <trkpt lat="41.649533" lon="-7.320623">
        <ele>587.008</ele>
        <time>2019-06-22T13:56:40Z</time>
      </trkpt>
      <trkpt lat="41.649383" lon="-7.320680">
        <ele>586.229</ele>
        <time>2019-06-22T13:56:41Z</time>
      </trkpt>
      <trkpt lat="41.649222" lon="-7.320773">
        <ele>585.683</ele>
        <time>2019-06-22T13:56:42Z</time>
      </trkpt>
      <trkpt lat="41.649063" lon="-7.320829">
        <ele>585.315</ele>
        <time>2019-06-22T13:56:43Z</time>
      </trkpt>
      <trkpt lat="41.648892" lon="-7.320860">
        <ele>585.187</ele>
        <time>2019-06-22T13:56:44Z</time>
      </trkpt>
      <trkpt lat="41.648733" lon="-7.320882">
        <ele>584.885</ele>
        <time>2019-06-22T13:56:45Z</time>
      </trkpt>
      <trkpt lat="41.648552" lon="-7.320880">
        <ele>584.354</ele>
        <time>2019-06-22T13:56:46Z</time>
      </trkpt>
      <trkpt lat="41.648366" lon="-7.320862">
        <ele>583.889</ele>
        <time>2019-06-22T13:56:47Z</time>
      </trkpt>
      <trkpt lat="41.648179" lon="-7.320840">
        <ele>582.892</ele>
        <time>2019-06-22T13:56:48Z</time>
      </trkpt>
      <trkpt lat="41.648001" lon="-7.320819">
        <ele>582.188</ele>
        <time>2019-06-22T13:56:49Z</time>
      </trkpt>
      <trkpt lat="41.647840" lon="-7.320824">
        <ele>581.124</ele>
        <time>2019-06-22T13:56:50Z</time>
      </trkpt>
      <trkpt lat="41.647671" lon="-7.320802">
        <ele>579.826</ele>
        <time>2019-06-22T13:56:51Z</time>
      </trkpt>
      <trkpt lat="41.647506" lon="-7.320760">
        <ele>578.608</ele>
        <time>2019-06-22T13:56:52Z</time>
      </trkpt>
      <trkpt lat="41.647340" lon="-7.320709">
        <ele>578.331</ele>
        <time>2019-06-22T13:56:53Z</time>
      </trkpt>
      <trkpt lat="41.647176" lon="-7.320631">
        <ele>578.255</ele>
        <time>2019-06-22T13:56:54Z</time>
      </trkpt>
      <trkpt lat="41.647011" lon="-7.320522">
        <ele>578.227</ele>
        <time>2019-06-22T13:56:55Z</time>
      </trkpt>
      <trkpt lat="41.646832" lon="-7.320404">
        <ele>578.159</ele>
        <time>2019-06-22T13:56:56Z</time>
      </trkpt>
      <trkpt lat="41.646655" lon="-7.320304">
        <ele>578.187</ele>
        <time>2019-06-22T13:56:57Z</time>
      </trkpt>
      <trkpt lat="41.646471" lon="-7.320201">
        <ele>577.236</ele>
        <time>2019-06-22T13:56:58Z</time>
      </trkpt>
      <trkpt lat="41.646292" lon="-7.320131">
        <ele>576.161</ele>
        <time>2019-06-22T13:56:59Z</time>
      </trkpt>
      <trkpt lat="41.646085" lon="-7.320145">
        <ele>574.344</ele>
        <time>2019-06-22T13:57:00Z</time>
      </trkpt>
      <trkpt lat="41.645879" lon="-7.320115">
        <ele>573.363</ele>
        <time>2019-06-22T13:57:01Z</time>
      </trkpt>
      <trkpt lat="41.645673" lon="-7.320094">
        <ele>573.344</ele>
        <time>2019-06-22T13:57:02Z</time>
      </trkpt>
      <trkpt lat="41.645477" lon="-7.320069">
        <ele>573.418</ele>
        <time>2019-06-22T13:57:03Z</time>
      </trkpt>
      <trkpt lat="41.645304" lon="-7.320011">
        <ele>574.508</ele>
        <time>2019-06-22T13:57:04Z</time>
      </trkpt>
      <trkpt lat="41.645115" lon="-7.319945">
        <ele>575.389</ele>
        <time>2019-06-22T13:57:05Z</time>
      </trkpt>
      <trkpt lat="41.644930" lon="-7.319850">
        <ele>575.663</ele>
        <time>2019-06-22T13:57:06Z</time>
      </trkpt>
      <trkpt lat="41.644740" lon="-7.319717">
        <ele>575.655</ele>
        <time>2019-06-22T13:57:07Z</time>
      </trkpt>
      <trkpt lat="41.644563" lon="-7.319584">
        <ele>575.517</ele>
        <time>2019-06-22T13:57:08Z</time>
      </trkpt>
      <trkpt lat="41.644384" lon="-7.319432">
        <ele>575.445</ele>
        <time>2019-06-22T13:57:09Z</time>
      </trkpt>
      <trkpt lat="41.644199" lon="-7.319286">
        <ele>574.814</ele>
        <time>2019-06-22T13:57:10Z</time>
      </trkpt>
      <trkpt lat="41.644018" lon="-7.319152">
        <ele>574.059</ele>
        <time>2019-06-22T13:57:11Z</time>
      </trkpt>
      <trkpt lat="41.643828" lon="-7.319010">
        <ele>572.912</ele>
        <time>2019-06-22T13:57:12Z</time>
      </trkpt>
      <trkpt lat="41.643651" lon="-7.318861">
        <ele>572.174</ele>
        <time>2019-06-22T13:57:13Z</time>
      </trkpt>
      <trkpt lat="41.643476" lon="-7.318717">
        <ele>571.556</ele>
        <time>2019-06-22T13:57:14Z</time>
      </trkpt>
      <trkpt lat="41.643302" lon="-7.318579">
        <ele>571.321</ele>
        <time>2019-06-22T13:57:15Z</time>
      </trkpt>
      <trkpt lat="41.643134" lon="-7.318447">
        <ele>570.908</ele>
        <time>2019-06-22T13:57:16Z</time>
      </trkpt>
      <trkpt lat="41.642970" lon="-7.318310">
        <ele>570.490</ele>
        <time>2019-06-22T13:57:17Z</time>
      </trkpt>
      <trkpt lat="41.642799" lon="-7.318175">
        <ele>570.064</ele>
        <time>2019-06-22T13:57:18Z</time>
      </trkpt>
      <trkpt lat="41.642627" lon="-7.318046">
        <ele>569.296</ele>
        <time>2019-06-22T13:57:19Z</time>
      </trkpt>
      <trkpt lat="41.642452" lon="-7.317915">
        <ele>568.228</ele>
        <time>2019-06-22T13:57:20Z</time>
      </trkpt>
      <trkpt lat="41.642283" lon="-7.317790">
        <ele>566.956</ele>
        <time>2019-06-22T13:57:21Z</time>
      </trkpt>
      <trkpt lat="41.642118" lon="-7.317659">
        <ele>566.745</ele>
        <time>2019-06-22T13:57:22Z</time>
      </trkpt>
      <trkpt lat="41.641957" lon="-7.317530">
        <ele>565.720</ele>
        <time>2019-06-22T13:57:23Z</time>
      </trkpt>
      <trkpt lat="41.641797" lon="-7.317402">
        <ele>564.723</ele>
        <time>2019-06-22T13:57:24Z</time>
      </trkpt>
      <trkpt lat="41.641642" lon="-7.317266">
        <ele>563.054</ele>
        <time>2019-06-22T13:57:25Z</time>
      </trkpt>
      <trkpt lat="41.641469" lon="-7.317132">
        <ele>562.756</ele>
        <time>2019-06-22T13:57:26Z</time>
      </trkpt>
      <trkpt lat="41.641308" lon="-7.316985">
        <ele>561.911</ele>
        <time>2019-06-22T13:57:27Z</time>
      </trkpt>
      <trkpt lat="41.641154" lon="-7.316843">
        <ele>560.608</ele>
        <time>2019-06-22T13:57:28Z</time>
      </trkpt>
      <trkpt lat="41.640981" lon="-7.316711">
        <ele>559.498</ele>
        <time>2019-06-22T13:57:29Z</time>
      </trkpt>
      <trkpt lat="41.640815" lon="-7.316584">
        <ele>559.012</ele>
        <time>2019-06-22T13:57:30Z</time>
      </trkpt>
      <trkpt lat="41.640649" lon="-7.316452">
        <ele>557.584</ele>
        <time>2019-06-22T13:57:31Z</time>
      </trkpt>
      <trkpt lat="41.640480" lon="-7.316325">
        <ele>556.146</ele>
        <time>2019-06-22T13:57:32Z</time>
      </trkpt>
      <trkpt lat="41.640319" lon="-7.316222">
        <ele>554.364</ele>
        <time>2019-06-22T13:57:33Z</time>
      </trkpt>
      <trkpt lat="41.640142" lon="-7.316133">
        <ele>553.093</ele>
        <time>2019-06-22T13:57:34Z</time>
      </trkpt>
      <trkpt lat="41.639960" lon="-7.316078">
        <ele>551.788</ele>
        <time>2019-06-22T13:57:35Z</time>
      </trkpt>
      <trkpt lat="41.639779" lon="-7.316061">
        <ele>550.951</ele>
        <time>2019-06-22T13:57:36Z</time>
      </trkpt>
      <trkpt lat="41.639605" lon="-7.316104">
        <ele>549.313</ele>
        <time>2019-06-22T13:57:37Z</time>
      </trkpt>
      <trkpt lat="41.639433" lon="-7.316176">
        <ele>548.943</ele>
        <time>2019-06-22T13:57:38Z</time>
      </trkpt>
      <trkpt lat="41.639264" lon="-7.316289">
        <ele>548.807</ele>
        <time>2019-06-22T13:57:39Z</time>
      </trkpt>
      <trkpt lat="41.639102" lon="-7.316422">
        <ele>548.408</ele>
        <time>2019-06-22T13:57:40Z</time>
      </trkpt>
      <trkpt lat="41.638958" lon="-7.316558">
        <ele>548.424</ele>
        <time>2019-06-22T13:57:41Z</time>
      </trkpt>
      <trkpt lat="41.638805" lon="-7.316715">
        <ele>548.578</ele>
        <time>2019-06-22T13:57:42Z</time>
      </trkpt>
      <trkpt lat="41.638645" lon="-7.316830">
        <ele>549.170</ele>
        <time>2019-06-22T13:57:43Z</time>
      </trkpt>
      <trkpt lat="41.638480" lon="-7.316918">
        <ele>550.022</ele>
        <time>2019-06-22T13:57:44Z</time>
      </trkpt>
      <trkpt lat="41.638302" lon="-7.316987">
        <ele>551.180</ele>
        <time>2019-06-22T13:57:45Z</time>
      </trkpt>
      <trkpt lat="41.638112" lon="-7.317052">
        <ele>552.159</ele>
        <time>2019-06-22T13:57:46Z</time>
      </trkpt>
      <trkpt lat="41.637927" lon="-7.317109">
        <ele>552.554</ele>
        <time>2019-06-22T13:57:47Z</time>
      </trkpt>
      <trkpt lat="41.637748" lon="-7.317163">
        <ele>552.537</ele>
        <time>2019-06-22T13:57:48Z</time>
      </trkpt>
      <trkpt lat="41.637563" lon="-7.317227">
        <ele>552.545</ele>
        <time>2019-06-22T13:57:49Z</time>
      </trkpt>
      <trkpt lat="41.637369" lon="-7.317260">
        <ele>552.447</ele>
        <time>2019-06-22T13:57:50Z</time>
      </trkpt>
      <trkpt lat="41.637171" lon="-7.317284">
        <ele>552.111</ele>
        <time>2019-06-22T13:57:51Z</time>
      </trkpt>
      <trkpt lat="41.636973" lon="-7.317291">
        <ele>551.908</ele>
        <time>2019-06-22T13:57:52Z</time>
      </trkpt>
      <trkpt lat="41.636774" lon="-7.317288">
        <ele>551.077</ele>
        <time>2019-06-22T13:57:53Z</time>
      </trkpt>
      <trkpt lat="41.636576" lon="-7.317282">
        <ele>550.151</ele>
        <time>2019-06-22T13:57:54Z</time>
      </trkpt>
      <trkpt lat="41.636384" lon="-7.317266">
        <ele>549.423</ele>
        <time>2019-06-22T13:57:55Z</time>
      </trkpt>
      <trkpt lat="41.636196" lon="-7.317262">
        <ele>549.035</ele>
        <time>2019-06-22T13:57:56Z</time>
      </trkpt>
      <trkpt lat="41.636011" lon="-7.317256">
        <ele>547.923</ele>
        <time>2019-06-22T13:57:57Z</time>
      </trkpt>
      <trkpt lat="41.635834" lon="-7.317268">
        <ele>546.912</ele>
        <time>2019-06-22T13:57:58Z</time>
      </trkpt>
      <trkpt lat="41.635669" lon="-7.317310">
        <ele>546.157</ele>
        <time>2019-06-22T13:57:59Z</time>
      </trkpt>
      <trkpt lat="41.635494" lon="-7.317386">
        <ele>546.190</ele>
        <time>2019-06-22T13:58:00Z</time>
      </trkpt>
      <trkpt lat="41.635325" lon="-7.317469">
        <ele>545.677</ele>
        <time>2019-06-22T13:58:01Z</time>
      </trkpt>
      <trkpt lat="41.635167" lon="-7.317557">
        <ele>544.861</ele>
        <time>2019-06-22T13:58:02Z</time>
      </trkpt>
      <trkpt lat="41.635015" lon="-7.317658">
        <ele>544.327</ele>
        <time>2019-06-22T13:58:03Z</time>
      </trkpt>
      <trkpt lat="41.634856" lon="-7.317743">
        <ele>544.308</ele>
        <time>2019-06-22T13:58:04Z</time>
      </trkpt>
      <trkpt lat="41.634700" lon="-7.317821">
        <ele>544.920</ele>
        <time>2019-06-22T13:58:05Z</time>
      </trkpt>
      <trkpt lat="41.634521" lon="-7.317874">
        <ele>544.944</ele>
        <time>2019-06-22T13:58:06Z</time>
      </trkpt>
      <trkpt lat="41.634330" lon="-7.317903">
        <ele>544.946</ele>
        <time>2019-06-22T13:58:07Z</time>
      </trkpt>
      <trkpt lat="41.634135" lon="-7.317908">
        <ele>545.268</ele>
        <time>2019-06-22T13:58:08Z</time>
      </trkpt>
      <trkpt lat="41.633936" lon="-7.317909">
        <ele>545.236</ele>
        <time>2019-06-22T13:58:09Z</time>
      </trkpt>
      <trkpt lat="41.633741" lon="-7.317919">
        <ele>544.815</ele>
        <time>2019-06-22T13:58:10Z</time>
      </trkpt>
      <trkpt lat="41.633550" lon="-7.317923">
        <ele>543.830</ele>
        <time>2019-06-22T13:58:11Z</time>
      </trkpt>
      <trkpt lat="41.633356" lon="-7.317924">
        <ele>542.833</ele>
        <time>2019-06-22T13:58:12Z</time>
      </trkpt>
      <trkpt lat="41.633174" lon="-7.317930">
        <ele>541.428</ele>
        <time>2019-06-22T13:58:13Z</time>
      </trkpt>
      <trkpt lat="41.632998" lon="-7.317936">
        <ele>540.089</ele>
        <time>2019-06-22T13:58:14Z</time>
      </trkpt>
      <trkpt lat="41.632816" lon="-7.317935">
        <ele>539.017</ele>
        <time>2019-06-22T13:58:15Z</time>
      </trkpt>
      <trkpt lat="41.632631" lon="-7.317920">
        <ele>538.108</ele>
        <time>2019-06-22T13:58:16Z</time>
      </trkpt>
      <trkpt lat="41.632451" lon="-7.317883">
        <ele>536.935</ele>
        <time>2019-06-22T13:58:17Z</time>
      </trkpt>
      <trkpt lat="41.632277" lon="-7.317829">
        <ele>536.659</ele>
        <time>2019-06-22T13:58:18Z</time>
      </trkpt>
      <trkpt lat="41.632102" lon="-7.317744">
        <ele>536.131</ele>
        <time>2019-06-22T13:58:19Z</time>
      </trkpt>
      <trkpt lat="41.631933" lon="-7.317650">
        <ele>534.843</ele>
        <time>2019-06-22T13:58:20Z</time>
      </trkpt>
      <trkpt lat="41.631777" lon="-7.317549">
        <ele>532.781</ele>
        <time>2019-06-22T13:58:21Z</time>
      </trkpt>
      <trkpt lat="41.631623" lon="-7.317454">
        <ele>532.750</ele>
        <time>2019-06-22T13:58:22Z</time>
      </trkpt>
      <trkpt lat="41.631483" lon="-7.317349">
        <ele>531.775</ele>
        <time>2019-06-22T13:58:23Z</time>
      </trkpt>
      <trkpt lat="41.631353" lon="-7.317218">
        <ele>530.388</ele>
        <time>2019-06-22T13:58:24Z</time>
      </trkpt>
      <trkpt lat="41.631255" lon="-7.317074">
        <ele>529.617</ele>
        <time>2019-06-22T13:58:25Z</time>
      </trkpt>
      <trkpt lat="41.631172" lon="-7.316912">
        <ele>528.687</ele>
        <time>2019-06-22T13:58:26Z</time>
      </trkpt>
      <trkpt lat="41.631104" lon="-7.316745">
        <ele>528.015</ele>
        <time>2019-06-22T13:58:27Z</time>
      </trkpt>
      <trkpt lat="41.631055" lon="-7.316572">
        <ele>527.508</ele>
        <time>2019-06-22T13:58:28Z</time>
      </trkpt>
      <trkpt lat="41.631007" lon="-7.316372">
        <ele>526.684</ele>
        <time>2019-06-22T13:58:29Z</time>
      </trkpt>
      <trkpt lat="41.630981" lon="-7.316195">
        <ele>525.388</ele>
        <time>2019-06-22T13:58:30Z</time>
      </trkpt>
      <trkpt lat="41.630936" lon="-7.316004">
        <ele>523.880</ele>
        <time>2019-06-22T13:58:31Z</time>
      </trkpt>
      <trkpt lat="41.630875" lon="-7.315811">
        <ele>522.412</ele>
        <time>2019-06-22T13:58:32Z</time>
      </trkpt>
      <trkpt lat="41.630806" lon="-7.315618">
        <ele>521.270</ele>
        <time>2019-06-22T13:58:33Z</time>
      </trkpt>
      <trkpt lat="41.630724" lon="-7.315432">
        <ele>519.779</ele>
        <time>2019-06-22T13:58:34Z</time>
      </trkpt>
      <trkpt lat="41.630616" lon="-7.315251">
        <ele>518.774</ele>
        <time>2019-06-22T13:58:35Z</time>
      </trkpt>
      <trkpt lat="41.630513" lon="-7.315079">
        <ele>518.657</ele>
        <time>2019-06-22T13:58:36Z</time>
      </trkpt>
      <trkpt lat="41.630411" lon="-7.314902">
        <ele>518.553</ele>
        <time>2019-06-22T13:58:37Z</time>
      </trkpt>
      <trkpt lat="41.630321" lon="-7.314726">
        <ele>518.204</ele>
        <time>2019-06-22T13:58:38Z</time>
      </trkpt>
      <trkpt lat="41.630219" lon="-7.314555">
        <ele>518.214</ele>
        <time>2019-06-22T13:58:39Z</time>
      </trkpt>
      <trkpt lat="41.630123" lon="-7.314380">
        <ele>518.208</ele>
        <time>2019-06-22T13:58:40Z</time>
      </trkpt>
      <trkpt lat="41.630018" lon="-7.314203">
        <ele>517.958</ele>
        <time>2019-06-22T13:58:41Z</time>
      </trkpt>
      <trkpt lat="41.629914" lon="-7.314030">
        <ele>517.152</ele>
        <time>2019-06-22T13:58:42Z</time>
      </trkpt>
      <trkpt lat="41.629812" lon="-7.313858">
        <ele>516.384</ele>
        <time>2019-06-22T13:58:43Z</time>
      </trkpt>
      <trkpt lat="41.629715" lon="-7.313695">
        <ele>515.526</ele>
        <time>2019-06-22T13:58:44Z</time>
      </trkpt>
      <trkpt lat="41.629615" lon="-7.313528">
        <ele>514.734</ele>
        <time>2019-06-22T13:58:45Z</time>
      </trkpt>
      <trkpt lat="41.629512" lon="-7.313356">
        <ele>513.413</ele>
        <time>2019-06-22T13:58:46Z</time>
      </trkpt>
      <trkpt lat="41.629406" lon="-7.313192">
        <ele>511.918</ele>
        <time>2019-06-22T13:58:47Z</time>
      </trkpt>
      <trkpt lat="41.629294" lon="-7.313050">
        <ele>510.321</ele>
        <time>2019-06-22T13:58:48Z</time>
      </trkpt>
      <trkpt lat="41.629180" lon="-7.312969">
        <ele>508.969</ele>
        <time>2019-06-22T13:58:49Z</time>
      </trkpt>
      <trkpt lat="41.629064" lon="-7.312896">
        <ele>507.104</ele>
        <time>2019-06-22T13:58:50Z</time>
      </trkpt>
      <trkpt lat="41.628924" lon="-7.312825">
        <ele>506.024</ele>
        <time>2019-06-22T13:58:51Z</time>
      </trkpt>
      <trkpt lat="41.628774" lon="-7.312793">
        <ele>504.708</ele>
        <time>2019-06-22T13:58:52Z</time>
      </trkpt>
      <trkpt lat="41.628623" lon="-7.312775">
        <ele>504.229</ele>
        <time>2019-06-22T13:58:53Z</time>
      </trkpt>
      <trkpt lat="41.628460" lon="-7.312777">
        <ele>504.133</ele>
        <time>2019-06-22T13:58:54Z</time>
      </trkpt>
      <trkpt lat="41.628285" lon="-7.312778">
        <ele>504.125</ele>
        <time>2019-06-22T13:58:55Z</time>
      </trkpt>
      <trkpt lat="41.628100" lon="-7.312796">
        <ele>504.127</ele>
        <time>2019-06-22T13:58:56Z</time>
      </trkpt>
      <trkpt lat="41.627916" lon="-7.312822">
        <ele>504.065</ele>
        <time>2019-06-22T13:58:57Z</time>
      </trkpt>
      <trkpt lat="41.627725" lon="-7.312844">
        <ele>503.854</ele>
        <time>2019-06-22T13:58:58Z</time>
      </trkpt>
      <trkpt lat="41.627538" lon="-7.312881">
        <ele>503.549</ele>
        <time>2019-06-22T13:58:59Z</time>
      </trkpt>
      <trkpt lat="41.627344" lon="-7.312902">
        <ele>503.032</ele>
        <time>2019-06-22T13:59:00Z</time>
      </trkpt>
      <trkpt lat="41.627149" lon="-7.312910">
        <ele>502.943</ele>
        <time>2019-06-22T13:59:01Z</time>
      </trkpt>
      <trkpt lat="41.626948" lon="-7.312899">
        <ele>502.864</ele>
        <time>2019-06-22T13:59:02Z</time>
      </trkpt>
      <trkpt lat="41.626750" lon="-7.312884">
        <ele>502.810</ele>
        <time>2019-06-22T13:59:03Z</time>
      </trkpt>
      <trkpt lat="41.626540" lon="-7.312843">
        <ele>502.808</ele>
        <time>2019-06-22T13:59:04Z</time>
      </trkpt>
      <trkpt lat="41.626329" lon="-7.312793">
        <ele>502.777</ele>
        <time>2019-06-22T13:59:05Z</time>
      </trkpt>
      <trkpt lat="41.626118" lon="-7.312738">
        <ele>502.271</ele>
        <time>2019-06-22T13:59:06Z</time>
      </trkpt>
      <trkpt lat="41.625907" lon="-7.312679">
        <ele>501.163</ele>
        <time>2019-06-22T13:59:07Z</time>
      </trkpt>
      <trkpt lat="41.625699" lon="-7.312625">
        <ele>500.225</ele>
        <time>2019-06-22T13:59:08Z</time>
      </trkpt>
      <trkpt lat="41.625491" lon="-7.312574">
        <ele>499.463</ele>
        <time>2019-06-22T13:59:09Z</time>
      </trkpt>
      <trkpt lat="41.625297" lon="-7.312531">
        <ele>498.642</ele>
        <time>2019-06-22T13:59:10Z</time>
      </trkpt>
      <trkpt lat="41.625118" lon="-7.312486">
        <ele>498.687</ele>
        <time>2019-06-22T13:59:11Z</time>
      </trkpt>
      <trkpt lat="41.624935" lon="-7.312443">
        <ele>498.430</ele>
        <time>2019-06-22T13:59:12Z</time>
      </trkpt>
      <trkpt lat="41.624749" lon="-7.312393">
        <ele>498.676</ele>
        <time>2019-06-22T13:59:13Z</time>
      </trkpt>
      <trkpt lat="41.624579" lon="-7.312359">
        <ele>498.690</ele>
        <time>2019-06-22T13:59:14Z</time>
      </trkpt>
      <trkpt lat="41.624396" lon="-7.312309">
        <ele>498.719</ele>
        <time>2019-06-22T13:59:15Z</time>
      </trkpt>
      <trkpt lat="41.624217" lon="-7.312260">
        <ele>498.908</ele>
        <time>2019-06-22T13:59:16Z</time>
      </trkpt>
      <trkpt lat="41.624029" lon="-7.312205">
        <ele>498.950</ele>
        <time>2019-06-22T13:59:17Z</time>
      </trkpt>
      <trkpt lat="41.623843" lon="-7.312154">
        <ele>499.184</ele>
        <time>2019-06-22T13:59:18Z</time>
      </trkpt>
      <trkpt lat="41.623648" lon="-7.312089">
        <ele>499.136</ele>
        <time>2019-06-22T13:59:19Z</time>
      </trkpt>
      <trkpt lat="41.623455" lon="-7.312032">
        <ele>498.138</ele>
        <time>2019-06-22T13:59:20Z</time>
      </trkpt>
      <trkpt lat="41.623265" lon="-7.311980">
        <ele>496.766</ele>
        <time>2019-06-22T13:59:21Z</time>
      </trkpt>
      <trkpt lat="41.623093" lon="-7.311958">
        <ele>495.175</ele>
        <time>2019-06-22T13:59:22Z</time>
      </trkpt>
      <trkpt lat="41.622902" lon="-7.311955">
        <ele>494.170</ele>
        <time>2019-06-22T13:59:23Z</time>
      </trkpt>
      <trkpt lat="41.622721" lon="-7.311982">
        <ele>493.613</ele>
        <time>2019-06-22T13:59:24Z</time>
      </trkpt>
      <trkpt lat="41.622543" lon="-7.312026">
        <ele>493.664</ele>
        <time>2019-06-22T13:59:25Z</time>
      </trkpt>
      <trkpt lat="41.622340" lon="-7.312070">
        <ele>494.406</ele>
        <time>2019-06-22T13:59:26Z</time>
      </trkpt>
      <trkpt lat="41.622146" lon="-7.312127">
        <ele>495.116</ele>
        <time>2019-06-22T13:59:27Z</time>
      </trkpt>
      <trkpt lat="41.621952" lon="-7.312191">
        <ele>495.108</ele>
        <time>2019-06-22T13:59:28Z</time>
      </trkpt>
      <trkpt lat="41.621773" lon="-7.312253">
        <ele>495.089</ele>
        <time>2019-06-22T13:59:29Z</time>
      </trkpt>
      <trkpt lat="41.621590" lon="-7.312307">
        <ele>494.853</ele>
        <time>2019-06-22T13:59:30Z</time>
      </trkpt>
      <trkpt lat="41.621408" lon="-7.312354">
        <ele>494.325</ele>
        <time>2019-06-22T13:59:31Z</time>
      </trkpt>
      <trkpt lat="41.621233" lon="-7.312372">
        <ele>494.177</ele>
        <time>2019-06-22T13:59:32Z</time>
      </trkpt>
      <trkpt lat="41.621061" lon="-7.312359">
        <ele>493.985</ele>
        <time>2019-06-22T13:59:33Z</time>
      </trkpt>
      <trkpt lat="41.620885" lon="-7.312324">
        <ele>493.954</ele>
        <time>2019-06-22T13:59:34Z</time>
      </trkpt>
      <trkpt lat="41.620710" lon="-7.312262">
        <ele>493.399</ele>
        <time>2019-06-22T13:59:35Z</time>
      </trkpt>
      <trkpt lat="41.620534" lon="-7.312165">
        <ele>493.272</ele>
        <time>2019-06-22T13:59:36Z</time>
      </trkpt>
      <trkpt lat="41.620370" lon="-7.312036">
        <ele>492.348</ele>
        <time>2019-06-22T13:59:37Z</time>
      </trkpt>
      <trkpt lat="41.620219" lon="-7.311890">
        <ele>491.561</ele>
        <time>2019-06-22T13:59:38Z</time>
      </trkpt>
      <trkpt lat="41.620064" lon="-7.311719">
        <ele>490.517</ele>
        <time>2019-06-22T13:59:39Z</time>
      </trkpt>
      <trkpt lat="41.619924" lon="-7.311528">
        <ele>489.708</ele>
        <time>2019-06-22T13:59:40Z</time>
      </trkpt>
      <trkpt lat="41.619793" lon="-7.311329">
        <ele>488.677</ele>
        <time>2019-06-22T13:59:41Z</time>
      </trkpt>
      <trkpt lat="41.619671" lon="-7.311135">
        <ele>486.831</ele>
        <time>2019-06-22T13:59:42Z</time>
      </trkpt>
      <trkpt lat="41.619540" lon="-7.310945">
        <ele>484.613</ele>
        <time>2019-06-22T13:59:43Z</time>
      </trkpt>
      <trkpt lat="41.619406" lon="-7.310783">
        <ele>481.815</ele>
        <time>2019-06-22T13:59:44Z</time>
      </trkpt>
      <trkpt lat="41.619267" lon="-7.310624">
        <ele>479.693</ele>
        <time>2019-06-22T13:59:45Z</time>
      </trkpt>
      <trkpt lat="41.619108" lon="-7.310517">
        <ele>476.012</ele>
        <time>2019-06-22T13:59:46Z</time>
      </trkpt>
      <trkpt lat="41.618960" lon="-7.310482">
        <ele>473.527</ele>
        <time>2019-06-22T13:59:47Z</time>
      </trkpt>
      <trkpt lat="41.618783" lon="-7.310437">
        <ele>472.740</ele>
        <time>2019-06-22T13:59:48Z</time>
      </trkpt>
      <trkpt lat="41.618605" lon="-7.310411">
        <ele>472.627</ele>
        <time>2019-06-22T13:59:49Z</time>
      </trkpt>
      <trkpt lat="41.618427" lon="-7.310385">
        <ele>472.768</ele>
        <time>2019-06-22T13:59:50Z</time>
      </trkpt>
      <trkpt lat="41.618254" lon="-7.310367">
        <ele>473.514</ele>
        <time>2019-06-22T13:59:51Z</time>
      </trkpt>
      <trkpt lat="41.618076" lon="-7.310348">
        <ele>475.008</ele>
        <time>2019-06-22T13:59:52Z</time>
      </trkpt>
      <trkpt lat="41.617900" lon="-7.310336">
        <ele>475.035</ele>
        <time>2019-06-22T13:59:53Z</time>
      </trkpt>
      <trkpt lat="41.617718" lon="-7.310335">
        <ele>475.099</ele>
        <time>2019-06-22T13:59:54Z</time>
      </trkpt>
      <trkpt lat="41.617536" lon="-7.310337">
        <ele>473.911</ele>
        <time>2019-06-22T13:59:55Z</time>
      </trkpt>
      <trkpt lat="41.617357" lon="-7.310359">
        <ele>473.013</ele>
        <time>2019-06-22T13:59:56Z</time>
      </trkpt>
      <trkpt lat="41.617183" lon="-7.310390">
        <ele>471.851</ele>
        <time>2019-06-22T13:59:57Z</time>
      </trkpt>
      <trkpt lat="41.617002" lon="-7.310405">
        <ele>470.440</ele>
        <time>2019-06-22T13:59:58Z</time>
      </trkpt>
      <trkpt lat="41.616835" lon="-7.310418">
        <ele>468.835</ele>
        <time>2019-06-22T13:59:59Z</time>
      </trkpt>
      <trkpt lat="41.616682" lon="-7.310421">
        <ele>468.448</ele>
        <time>2019-06-22T14:00:00Z</time>
      </trkpt>
      <trkpt lat="41.616509" lon="-7.310414">
        <ele>466.958</ele>
        <time>2019-06-22T14:00:01Z</time>
      </trkpt>
      <trkpt lat="41.616345" lon="-7.310379">
        <ele>465.952</ele>
        <time>2019-06-22T14:00:02Z</time>
      </trkpt>
      <trkpt lat="41.616187" lon="-7.310328">
        <ele>465.117</ele>
        <time>2019-06-22T14:00:03Z</time>
      </trkpt>
      <trkpt lat="41.616029" lon="-7.310256">
        <ele>464.708</ele>
        <time>2019-06-22T14:00:04Z</time>
      </trkpt>
      <trkpt lat="41.615869" lon="-7.310162">
        <ele>464.148</ele>
        <time>2019-06-22T14:00:05Z</time>
      </trkpt>
      <trkpt lat="41.615714" lon="-7.310064">
        <ele>463.482</ele>
        <time>2019-06-22T14:00:06Z</time>
      </trkpt>
      <trkpt lat="41.615561" lon="-7.309992">
        <ele>462.714</ele>
        <time>2019-06-22T14:00:07Z</time>
      </trkpt>
      <trkpt lat="41.615403" lon="-7.309939">
        <ele>461.226</ele>
        <time>2019-06-22T14:00:08Z</time>
      </trkpt>
      <trkpt lat="41.615246" lon="-7.309911">
        <ele>461.254</ele>
        <time>2019-06-22T14:00:09Z</time>
      </trkpt>
      <trkpt lat="41.615089" lon="-7.309948">
        <ele>459.453</ele>
        <time>2019-06-22T14:00:10Z</time>
      </trkpt>
      <trkpt lat="41.614951" lon="-7.310015">
        <ele>457.828</ele>
        <time>2019-06-22T14:00:11Z</time>
      </trkpt>
      <trkpt lat="41.614819" lon="-7.310098">
        <ele>456.661</ele>
        <time>2019-06-22T14:00:12Z</time>
      </trkpt>
      <trkpt lat="41.614694" lon="-7.310203">
        <ele>455.741</ele>
        <time>2019-06-22T14:00:13Z</time>
      </trkpt>
      <trkpt lat="41.614564" lon="-7.310309">
        <ele>455.081</ele>
        <time>2019-06-22T14:00:14Z</time>
      </trkpt>
      <trkpt lat="41.614437" lon="-7.310414">
        <ele>454.309</ele>
        <time>2019-06-22T14:00:15Z</time>
      </trkpt>
      <trkpt lat="41.614352" lon="-7.310652">
        <ele>454.208</ele>
        <time>2019-06-22T14:00:16Z</time>
      </trkpt>
      <trkpt lat="41.614235" lon="-7.310806">
        <ele>454.037</ele>
        <time>2019-06-22T14:00:17Z</time>
      </trkpt>
      <trkpt lat="41.614120" lon="-7.310957">
        <ele>453.881</ele>
        <time>2019-06-22T14:00:18Z</time>
      </trkpt>
      <trkpt lat="41.613991" lon="-7.311040">
        <ele>453.533</ele>
        <time>2019-06-22T14:00:19Z</time>
      </trkpt>
      <trkpt lat="41.613861" lon="-7.311162">
        <ele>453.425</ele>
        <time>2019-06-22T14:00:20Z</time>
      </trkpt>
      <trkpt lat="41.613730" lon="-7.311256">
        <ele>452.963</ele>
        <time>2019-06-22T14:00:21Z</time>
      </trkpt>
      <trkpt lat="41.613578" lon="-7.311343">
        <ele>452.282</ele>
        <time>2019-06-22T14:00:22Z</time>
      </trkpt>
      <trkpt lat="41.613458" lon="-7.311447">
        <ele>451.467</ele>
        <time>2019-06-22T14:00:23Z</time>
      </trkpt>
      <trkpt lat="41.613329" lon="-7.311539">
        <ele>450.710</ele>
        <time>2019-06-22T14:00:24Z</time>
      </trkpt>
      <trkpt lat="41.613200" lon="-7.311626">
        <ele>449.984</ele>
        <time>2019-06-22T14:00:25Z</time>
      </trkpt>
      <trkpt lat="41.613083" lon="-7.311724">
        <ele>449.007</ele>
        <time>2019-06-22T14:00:26Z</time>
      </trkpt>
      <trkpt lat="41.612974" lon="-7.311844">
        <ele>448.017</ele>
        <time>2019-06-22T14:00:27Z</time>
      </trkpt>
      <trkpt lat="41.612863" lon="-7.311964">
        <ele>447.308</ele>
        <time>2019-06-22T14:00:28Z</time>
      </trkpt>
      <trkpt lat="41.612765" lon="-7.312103">
        <ele>446.451</ele>
        <time>2019-06-22T14:00:29Z</time>
      </trkpt>
      <trkpt lat="41.612675" lon="-7.312240">
        <ele>445.995</ele>
        <time>2019-06-22T14:00:30Z</time>
      </trkpt>
      <trkpt lat="41.612589" lon="-7.312390">
        <ele>445.477</ele>
        <time>2019-06-22T14:00:31Z</time>
      </trkpt>
      <trkpt lat="41.612507" lon="-7.312528">
        <ele>445.069</ele>
        <time>2019-06-22T14:00:32Z</time>
      </trkpt>
      <trkpt lat="41.612410" lon="-7.312651">
        <ele>444.697</ele>
        <time>2019-06-22T14:00:33Z</time>
      </trkpt>
      <trkpt lat="41.612303" lon="-7.312759">
        <ele>444.276</ele>
        <time>2019-06-22T14:00:34Z</time>
      </trkpt>
      <trkpt lat="41.612172" lon="-7.312832">
        <ele>443.651</ele>
        <time>2019-06-22T14:00:35Z</time>
      </trkpt>
      <trkpt lat="41.612051" lon="-7.312866">
        <ele>443.164</ele>
        <time>2019-06-22T14:00:36Z</time>
      </trkpt>
      <trkpt lat="41.611927" lon="-7.312869">
        <ele>442.349</ele>
        <time>2019-06-22T14:00:37Z</time>
      </trkpt>
      <trkpt lat="41.611796" lon="-7.312851">
        <ele>441.502</ele>
        <time>2019-06-22T14:00:38Z</time>
      </trkpt>
      <trkpt lat="41.611665" lon="-7.312809">
        <ele>440.722</ele>
        <time>2019-06-22T14:00:39Z</time>
      </trkpt>
      <trkpt lat="41.611545" lon="-7.312752">
        <ele>439.808</ele>
        <time>2019-06-22T14:00:40Z</time>
      </trkpt>
      <trkpt lat="41.611439" lon="-7.312703">
        <ele>438.277</ele>
        <time>2019-06-22T14:00:41Z</time>
      </trkpt>
      <trkpt lat="41.611344" lon="-7.312677">
        <ele>436.141</ele>
        <time>2019-06-22T14:00:42Z</time>
      </trkpt>
      <trkpt lat="41.611266" lon="-7.312688">
        <ele>434.193</ele>
        <time>2019-06-22T14:00:43Z</time>
      </trkpt>
      <trkpt lat="41.611204" lon="-7.312727">
        <ele>432.685</ele>
        <time>2019-06-22T14:00:44Z</time>
      </trkpt>
      <trkpt lat="41.611151" lon="-7.312787">
        <ele>431.893</ele>
        <time>2019-06-22T14:00:45Z</time>
      </trkpt>
      <trkpt lat="41.611122" lon="-7.312862">
        <ele>431.822</ele>
        <time>2019-06-22T14:00:46Z</time>
      </trkpt>
      <trkpt lat="41.611098" lon="-7.312941">
        <ele>432.827</ele>
        <time>2019-06-22T14:00:47Z</time>
      </trkpt>
      <trkpt lat="41.611078" lon="-7.313013">
        <ele>434.280</ele>
        <time>2019-06-22T14:00:48Z</time>
      </trkpt>
      <trkpt lat="41.611059" lon="-7.313079">
        <ele>435.393</ele>
        <time>2019-06-22T14:00:49Z</time>
      </trkpt>
      <trkpt lat="41.611021" lon="-7.313126">
        <ele>436.165</ele>
        <time>2019-06-22T14:00:50Z</time>
      </trkpt>
      <trkpt lat="41.610962" lon="-7.313157">
        <ele>436.521</ele>
        <time>2019-06-22T14:00:51Z</time>
      </trkpt>
      <trkpt lat="41.610886" lon="-7.313164">
        <ele>436.608</ele>
        <time>2019-06-22T14:00:52Z</time>
      </trkpt>
      <trkpt lat="41.610797" lon="-7.313171">
        <ele>436.692</ele>
        <time>2019-06-22T14:00:53Z</time>
      </trkpt>
      <trkpt lat="41.610693" lon="-7.313172">
        <ele>436.626</ele>
        <time>2019-06-22T14:00:54Z</time>
      </trkpt>
      <trkpt lat="41.610572" lon="-7.313156">
        <ele>436.488</ele>
        <time>2019-06-22T14:00:55Z</time>
      </trkpt>
      <trkpt lat="41.610449" lon="-7.313144">
        <ele>435.950</ele>
        <time>2019-06-22T14:00:56Z</time>
      </trkpt>
      <trkpt lat="41.610336" lon="-7.313131">
        <ele>435.528</ele>
        <time>2019-06-22T14:00:57Z</time>
      </trkpt>
      <trkpt lat="41.610249" lon="-7.313141">
        <ele>434.877</ele>
        <time>2019-06-22T14:00:58Z</time>
      </trkpt>
      <trkpt lat="41.610167" lon="-7.313150">
        <ele>434.212</ele>
        <time>2019-06-22T14:00:59Z</time>
      </trkpt>
      <trkpt lat="41.610068" lon="-7.313171">
        <ele>433.985</ele>
        <time>2019-06-22T14:01:01Z</time>
      </trkpt>
      <trkpt lat="41.610017" lon="-7.313152">
        <ele>434.043</ele>
        <time>2019-06-22T14:01:03Z</time>
      </trkpt>
      <trkpt lat="41.609924" lon="-7.313133">
        <ele>434.264</ele>
        <time>2019-06-22T14:01:21Z</time>
      </trkpt>
      <trkpt lat="41.609853" lon="-7.313136">
        <ele>434.110</ele>
        <time>2019-06-22T14:01:22Z</time>
      </trkpt>
      <trkpt lat="41.609765" lon="-7.313138">
        <ele>433.908</ele>
        <time>2019-06-22T14:01:23Z</time>
      </trkpt>
      <trkpt lat="41.609672" lon="-7.313140">
        <ele>433.387</ele>
        <time>2019-06-22T14:01:24Z</time>
      </trkpt>
      <trkpt lat="41.609558" lon="-7.313141">
        <ele>432.731</ele>
        <time>2019-06-22T14:01:25Z</time>
      </trkpt>
      <trkpt lat="41.609445" lon="-7.313151">
        <ele>432.423</ele>
        <time>2019-06-22T14:01:26Z</time>
      </trkpt>
      <trkpt lat="41.609321" lon="-7.313154">
        <ele>432.025</ele>
        <time>2019-06-22T14:01:27Z</time>
      </trkpt>
      <trkpt lat="41.609199" lon="-7.313156">
        <ele>431.783</ele>
        <time>2019-06-22T14:01:28Z</time>
      </trkpt>
      <trkpt lat="41.609081" lon="-7.313162">
        <ele>431.732</ele>
        <time>2019-06-22T14:01:29Z</time>
      </trkpt>
      <trkpt lat="41.608968" lon="-7.313171">
        <ele>432.257</ele>
        <time>2019-06-22T14:01:30Z</time>
      </trkpt>
      <trkpt lat="41.608856" lon="-7.313185">
        <ele>432.410</ele>
        <time>2019-06-22T14:01:31Z</time>
      </trkpt>
      <trkpt lat="41.608742" lon="-7.313195">
        <ele>432.652</ele>
        <time>2019-06-22T14:01:32Z</time>
      </trkpt>
      <trkpt lat="41.608635" lon="-7.313224">
        <ele>432.653</ele>
        <time>2019-06-22T14:01:33Z</time>
      </trkpt>
      <trkpt lat="41.608534" lon="-7.313225">
        <ele>432.808</ele>
        <time>2019-06-22T14:01:34Z</time>
      </trkpt>
      <trkpt lat="41.608431" lon="-7.313227">
        <ele>433.108</ele>
        <time>2019-06-22T14:01:35Z</time>
      </trkpt>
      <trkpt lat="41.608327" lon="-7.313232">
        <ele>433.128</ele>
        <time>2019-06-22T14:01:36Z</time>
      </trkpt>
      <trkpt lat="41.608209" lon="-7.313233">
        <ele>433.032</ele>
        <time>2019-06-22T14:01:37Z</time>
      </trkpt>
      <trkpt lat="41.608098" lon="-7.313238">
        <ele>433.024</ele>
        <time>2019-06-22T14:01:38Z</time>
      </trkpt>
      <trkpt lat="41.607977" lon="-7.313252">
        <ele>433.056</ele>
        <time>2019-06-22T14:01:39Z</time>
      </trkpt>
      <trkpt lat="41.607858" lon="-7.313266">
        <ele>433.064</ele>
        <time>2019-06-22T14:01:40Z</time>
      </trkpt>
      <trkpt lat="41.607725" lon="-7.313274">
        <ele>433.143</ele>
        <time>2019-06-22T14:01:41Z</time>
      </trkpt>
      <trkpt lat="41.607588" lon="-7.313280">
        <ele>433.278</ele>
        <time>2019-06-22T14:01:42Z</time>
      </trkpt>
      <trkpt lat="41.607459" lon="-7.313288">
        <ele>433.521</ele>
        <time>2019-06-22T14:01:43Z</time>
      </trkpt>
      <trkpt lat="41.607340" lon="-7.313295">
        <ele>433.559</ele>
        <time>2019-06-22T14:01:44Z</time>
      </trkpt>
      <trkpt lat="41.607228" lon="-7.313304">
        <ele>433.403</ele>
        <time>2019-06-22T14:01:45Z</time>
      </trkpt>
      <trkpt lat="41.607116" lon="-7.313314">
        <ele>433.423</ele>
        <time>2019-06-22T14:01:46Z</time>
      </trkpt>
      <trkpt lat="41.607014" lon="-7.313323">
        <ele>433.908</ele>
        <time>2019-06-22T14:01:47Z</time>
      </trkpt>
      <trkpt lat="41.606919" lon="-7.313337">
        <ele>434.678</ele>
        <time>2019-06-22T14:01:48Z</time>
      </trkpt>
      <trkpt lat="41.606832" lon="-7.313352">
        <ele>435.242</ele>
        <time>2019-06-22T14:01:49Z</time>
      </trkpt>
      <trkpt lat="41.606752" lon="-7.313375">
        <ele>435.394</ele>
        <time>2019-06-22T14:01:50Z</time>
      </trkpt>
      <trkpt lat="41.606682" lon="-7.313410">
        <ele>435.346</ele>
        <time>2019-06-22T14:01:51Z</time>
      </trkpt>
      <trkpt lat="41.606619" lon="-7.313451">
        <ele>435.134</ele>
        <time>2019-06-22T14:01:52Z</time>
      </trkpt>
      <trkpt lat="41.606552" lon="-7.313487">
        <ele>435.043</ele>
        <time>2019-06-22T14:01:53Z</time>
      </trkpt>
      <trkpt lat="41.606489" lon="-7.313505">
        <ele>435.078</ele>
        <time>2019-06-22T14:01:54Z</time>
      </trkpt>
      <trkpt lat="41.606427" lon="-7.313499">
        <ele>435.261</ele>
        <time>2019-06-22T14:01:55Z</time>
      </trkpt>
      <trkpt lat="41.606385" lon="-7.313450">
        <ele>435.487</ele>
        <time>2019-06-22T14:01:56Z</time>
      </trkpt>
      <trkpt lat="41.606351" lon="-7.313387">
        <ele>435.642</ele>
        <time>2019-06-22T14:01:57Z</time>
      </trkpt>
      <trkpt lat="41.606325" lon="-7.313303">
        <ele>435.626</ele>
        <time>2019-06-22T14:01:58Z</time>
      </trkpt>
      <trkpt lat="41.606302" lon="-7.313195">
        <ele>435.608</ele>
        <time>2019-06-22T14:01:59Z</time>
      </trkpt>
      <trkpt lat="41.606266" lon="-7.313085">
        <ele>435.261</ele>
        <time>2019-06-22T14:02:00Z</time>
      </trkpt>
      <trkpt lat="41.606219" lon="-7.312969">
        <ele>434.555</ele>
        <time>2019-06-22T14:02:01Z</time>
      </trkpt>
      <trkpt lat="41.606151" lon="-7.312866">
        <ele>434.217</ele>
        <time>2019-06-22T14:02:02Z</time>
      </trkpt>
      <trkpt lat="41.606061" lon="-7.312781">
        <ele>433.949</ele>
        <time>2019-06-22T14:02:03Z</time>
      </trkpt>
      <trkpt lat="41.605983" lon="-7.312688">
        <ele>433.657</ele>
        <time>2019-06-22T14:02:04Z</time>
      </trkpt>
      <trkpt lat="41.605902" lon="-7.312591">
        <ele>433.236</ele>
        <time>2019-06-22T14:02:05Z</time>
      </trkpt>
      <trkpt lat="41.605820" lon="-7.312487">
        <ele>433.241</ele>
        <time>2019-06-22T14:02:06Z</time>
      </trkpt>
      <trkpt lat="41.605747" lon="-7.312370">
        <ele>433.224</ele>
        <time>2019-06-22T14:02:07Z</time>
      </trkpt>
      <trkpt lat="41.605676" lon="-7.312268">
        <ele>432.874</ele>
        <time>2019-06-22T14:02:08Z</time>
      </trkpt>
      <trkpt lat="41.605599" lon="-7.312165">
        <ele>432.356</ele>
        <time>2019-06-22T14:02:09Z</time>
      </trkpt>
      <trkpt lat="41.605514" lon="-7.312060">
        <ele>432.021</ele>
        <time>2019-06-22T14:02:10Z</time>
      </trkpt>
      <trkpt lat="41.605423" lon="-7.311943">
        <ele>432.008</ele>
        <time>2019-06-22T14:02:11Z</time>
      </trkpt>
      <trkpt lat="41.605325" lon="-7.311823">
        <ele>431.550</ele>
        <time>2019-06-22T14:02:12Z</time>
      </trkpt>
      <trkpt lat="41.605235" lon="-7.311700">
        <ele>430.844</ele>
        <time>2019-06-22T14:02:13Z</time>
      </trkpt>
      <trkpt lat="41.605141" lon="-7.311574">
        <ele>429.426</ele>
        <time>2019-06-22T14:02:14Z</time>
      </trkpt>
      <trkpt lat="41.605047" lon="-7.311443">
        <ele>427.228</ele>
        <time>2019-06-22T14:02:15Z</time>
      </trkpt>
      <trkpt lat="41.604954" lon="-7.311327">
        <ele>425.696</ele>
        <time>2019-06-22T14:02:16Z</time>
      </trkpt>
      <trkpt lat="41.604862" lon="-7.311215">
        <ele>424.375</ele>
        <time>2019-06-22T14:02:17Z</time>
      </trkpt>
      <trkpt lat="41.604772" lon="-7.311109">
        <ele>423.360</ele>
        <time>2019-06-22T14:02:18Z</time>
      </trkpt>
      <trkpt lat="41.604687" lon="-7.311009">
        <ele>423.343</ele>
        <time>2019-06-22T14:02:19Z</time>
      </trkpt>
      <trkpt lat="41.604609" lon="-7.310919">
        <ele>423.323</ele>
        <time>2019-06-22T14:02:20Z</time>
      </trkpt>
      <trkpt lat="41.604535" lon="-7.310830">
        <ele>422.983</ele>
        <time>2019-06-22T14:02:21Z</time>
      </trkpt>
      <trkpt lat="41.604461" lon="-7.310761">
        <ele>422.911</ele>
        <time>2019-06-22T14:02:22Z</time>
      </trkpt>
      <trkpt lat="41.604394" lon="-7.310683">
        <ele>422.408</ele>
        <time>2019-06-22T14:02:23Z</time>
      </trkpt>
      <trkpt lat="41.604328" lon="-7.310584">
        <ele>421.455</ele>
        <time>2019-06-22T14:02:24Z</time>
      </trkpt>
      <trkpt lat="41.604258" lon="-7.310469">
        <ele>420.749</ele>
        <time>2019-06-22T14:02:25Z</time>
      </trkpt>
      <trkpt lat="41.604185" lon="-7.310378">
        <ele>420.021</ele>
        <time>2019-06-22T14:02:26Z</time>
      </trkpt>
      <trkpt lat="41.604104" lon="-7.310254">
        <ele>418.823</ele>
        <time>2019-06-22T14:02:27Z</time>
      </trkpt>
      <trkpt lat="41.603994" lon="-7.310129">
        <ele>418.481</ele>
        <time>2019-06-22T14:02:28Z</time>
      </trkpt>
      <trkpt lat="41.603887" lon="-7.310006">
        <ele>418.110</ele>
        <time>2019-06-22T14:02:29Z</time>
      </trkpt>
      <trkpt lat="41.603781" lon="-7.309879">
        <ele>417.535</ele>
        <time>2019-06-22T14:02:30Z</time>
      </trkpt>
      <trkpt lat="41.603682" lon="-7.309754">
        <ele>417.338</ele>
        <time>2019-06-22T14:02:31Z</time>
      </trkpt>
      <trkpt lat="41.603582" lon="-7.309633">
        <ele>417.261</ele>
        <time>2019-06-22T14:02:32Z</time>
      </trkpt>
      <trkpt lat="41.603478" lon="-7.309509">
        <ele>417.121</ele>
        <time>2019-06-22T14:02:33Z</time>
      </trkpt>
      <trkpt lat="41.603372" lon="-7.309384">
        <ele>416.713</ele>
        <time>2019-06-22T14:02:34Z</time>
      </trkpt>
      <trkpt lat="41.603272" lon="-7.309263">
        <ele>416.408</ele>
        <time>2019-06-22T14:02:35Z</time>
      </trkpt>
      <trkpt lat="41.603181" lon="-7.309142">
        <ele>416.099</ele>
        <time>2019-06-22T14:02:36Z</time>
      </trkpt>
      <trkpt lat="41.603093" lon="-7.309025">
        <ele>415.193</ele>
        <time>2019-06-22T14:02:37Z</time>
      </trkpt>
      <trkpt lat="41.603002" lon="-7.308913">
        <ele>414.085</ele>
        <time>2019-06-22T14:02:38Z</time>
      </trkpt>
      <trkpt lat="41.602912" lon="-7.308812">
        <ele>413.317</ele>
        <time>2019-06-22T14:02:39Z</time>
      </trkpt>
      <trkpt lat="41.602823" lon="-7.308709">
        <ele>412.955</ele>
        <time>2019-06-22T14:02:40Z</time>
      </trkpt>
      <trkpt lat="41.602738" lon="-7.308625">
        <ele>412.624</ele>
        <time>2019-06-22T14:02:41Z</time>
      </trkpt>
      <trkpt lat="41.602649" lon="-7.308551">
        <ele>412.329</ele>
        <time>2019-06-22T14:02:42Z</time>
      </trkpt>
      <trkpt lat="41.602578" lon="-7.308489">
        <ele>412.372</ele>
        <time>2019-06-22T14:02:43Z</time>
      </trkpt>
      <trkpt lat="41.602514" lon="-7.308457">
        <ele>411.912</ele>
        <time>2019-06-22T14:02:44Z</time>
      </trkpt>
      <trkpt lat="41.602432" lon="-7.308400">
        <ele>410.932</ele>
        <time>2019-06-22T14:02:45Z</time>
      </trkpt>
      <trkpt lat="41.602345" lon="-7.308370">
        <ele>409.705</ele>
        <time>2019-06-22T14:02:46Z</time>
      </trkpt>
      <trkpt lat="41.602252" lon="-7.308330">
        <ele>409.108</ele>
        <time>2019-06-22T14:02:47Z</time>
      </trkpt>
      <trkpt lat="41.602143" lon="-7.308331">
        <ele>408.544</ele>
        <time>2019-06-22T14:02:48Z</time>
      </trkpt>
      <trkpt lat="41.602019" lon="-7.308334">
        <ele>408.078</ele>
        <time>2019-06-22T14:02:49Z</time>
      </trkpt>
      <trkpt lat="41.601888" lon="-7.308332">
        <ele>408.030</ele>
        <time>2019-06-22T14:02:50Z</time>
      </trkpt>
      <trkpt lat="41.601743" lon="-7.308349">
        <ele>408.342</ele>
        <time>2019-06-22T14:02:51Z</time>
      </trkpt>
      <trkpt lat="41.601599" lon="-7.308362">
        <ele>408.380</ele>
        <time>2019-06-22T14:02:52Z</time>
      </trkpt>
      <trkpt lat="41.601455" lon="-7.308360">
        <ele>408.319</ele>
        <time>2019-06-22T14:02:53Z</time>
      </trkpt>
      <trkpt lat="41.601317" lon="-7.308376">
        <ele>407.744</ele>
        <time>2019-06-22T14:02:54Z</time>
      </trkpt>
      <trkpt lat="41.601164" lon="-7.308384">
        <ele>407.297</ele>
        <time>2019-06-22T14:02:55Z</time>
      </trkpt>
      <trkpt lat="41.601017" lon="-7.308391">
        <ele>406.554</ele>
        <time>2019-06-22T14:02:56Z</time>
      </trkpt>
      <trkpt lat="41.600878" lon="-7.308402">
        <ele>405.856</ele>
        <time>2019-06-22T14:02:57Z</time>
      </trkpt>
      <trkpt lat="41.600734" lon="-7.308417">
        <ele>405.811</ele>
        <time>2019-06-22T14:02:58Z</time>
      </trkpt>
      <trkpt lat="41.600587" lon="-7.308430">
        <ele>405.908</ele>
        <time>2019-06-22T14:02:59Z</time>
      </trkpt>
      <trkpt lat="41.600436" lon="-7.308426">
        <ele>406.298</ele>
        <time>2019-06-22T14:03:00Z</time>
      </trkpt>
      <trkpt lat="41.600285" lon="-7.308395">
        <ele>406.272</ele>
        <time>2019-06-22T14:03:01Z</time>
      </trkpt>
      <trkpt lat="41.600129" lon="-7.308336">
        <ele>405.814</ele>
        <time>2019-06-22T14:03:02Z</time>
      </trkpt>
      <trkpt lat="41.599981" lon="-7.308263">
        <ele>405.076</ele>
        <time>2019-06-22T14:03:03Z</time>
      </trkpt>
      <trkpt lat="41.599833" lon="-7.308161">
        <ele>404.064</ele>
        <time>2019-06-22T14:03:04Z</time>
      </trkpt>
      <trkpt lat="41.599685" lon="-7.308056">
        <ele>403.523</ele>
        <time>2019-06-22T14:03:05Z</time>
      </trkpt>
      <trkpt lat="41.599543" lon="-7.307955">
        <ele>403.588</ele>
        <time>2019-06-22T14:03:06Z</time>
      </trkpt>
      <trkpt lat="41.599398" lon="-7.307865">
        <ele>403.651</ele>
        <time>2019-06-22T14:03:07Z</time>
      </trkpt>
      <trkpt lat="41.599263" lon="-7.307770">
        <ele>404.042</ele>
        <time>2019-06-22T14:03:08Z</time>
      </trkpt>
      <trkpt lat="41.599131" lon="-7.307682">
        <ele>404.022</ele>
        <time>2019-06-22T14:03:09Z</time>
      </trkpt>
      <trkpt lat="41.598995" lon="-7.307583">
        <ele>403.614</ele>
        <time>2019-06-22T14:03:10Z</time>
      </trkpt>
      <trkpt lat="41.598850" lon="-7.307488">
        <ele>402.608</ele>
        <time>2019-06-22T14:03:11Z</time>
      </trkpt>
      <trkpt lat="41.598706" lon="-7.307392">
        <ele>401.917</ele>
        <time>2019-06-22T14:03:12Z</time>
      </trkpt>
      <trkpt lat="41.598566" lon="-7.307296">
        <ele>401.771</ele>
        <time>2019-06-22T14:03:13Z</time>
      </trkpt>
      <trkpt lat="41.598427" lon="-7.307197">
        <ele>401.773</ele>
        <time>2019-06-22T14:03:14Z</time>
      </trkpt>
      <trkpt lat="41.598282" lon="-7.307103">
        <ele>402.175</ele>
        <time>2019-06-22T14:03:15Z</time>
      </trkpt>
      <trkpt lat="41.598130" lon="-7.306993">
        <ele>402.653</ele>
        <time>2019-06-22T14:03:16Z</time>
      </trkpt>
      <trkpt lat="41.597969" lon="-7.306879">
        <ele>402.852</ele>
        <time>2019-06-22T14:03:17Z</time>
      </trkpt>
      <trkpt lat="41.597818" lon="-7.306769">
        <ele>402.897</ele>
        <time>2019-06-22T14:03:18Z</time>
      </trkpt>
      <trkpt lat="41.597665" lon="-7.306670">
        <ele>402.830</ele>
        <time>2019-06-22T14:03:19Z</time>
      </trkpt>
      <trkpt lat="41.597515" lon="-7.306575">
        <ele>402.548</ele>
        <time>2019-06-22T14:03:20Z</time>
      </trkpt>
      <trkpt lat="41.597363" lon="-7.306488">
        <ele>402.161</ele>
        <time>2019-06-22T14:03:21Z</time>
      </trkpt>
      <trkpt lat="41.597204" lon="-7.306410">
        <ele>402.117</ele>
        <time>2019-06-22T14:03:22Z</time>
      </trkpt>
      <trkpt lat="41.597039" lon="-7.306320">
        <ele>401.908</ele>
        <time>2019-06-22T14:03:23Z</time>
      </trkpt>
      <trkpt lat="41.596862" lon="-7.306243">
        <ele>401.457</ele>
        <time>2019-06-22T14:03:24Z</time>
      </trkpt>
      <trkpt lat="41.596678" lon="-7.306159">
        <ele>401.191</ele>
        <time>2019-06-22T14:03:25Z</time>
      </trkpt>
      <trkpt lat="41.596488" lon="-7.306090">
        <ele>400.843</ele>
        <time>2019-06-22T14:03:26Z</time>
      </trkpt>
      <trkpt lat="41.596297" lon="-7.306020">
        <ele>400.685</ele>
        <time>2019-06-22T14:03:27Z</time>
      </trkpt>
      <trkpt lat="41.596101" lon="-7.305967">
        <ele>400.083</ele>
        <time>2019-06-22T14:03:28Z</time>
      </trkpt>
      <trkpt lat="41.595914" lon="-7.305913">
        <ele>399.622</ele>
        <time>2019-06-22T14:03:29Z</time>
      </trkpt>
      <trkpt lat="41.595718" lon="-7.305863">
        <ele>399.217</ele>
        <time>2019-06-22T14:03:30Z</time>
      </trkpt>
      <trkpt lat="41.595529" lon="-7.305814">
        <ele>398.580</ele>
        <time>2019-06-22T14:03:31Z</time>
      </trkpt>
      <trkpt lat="41.595345" lon="-7.305779">
        <ele>397.836</ele>
        <time>2019-06-22T14:03:32Z</time>
      </trkpt>
      <trkpt lat="41.595166" lon="-7.305760">
        <ele>397.717</ele>
        <time>2019-06-22T14:03:33Z</time>
      </trkpt>
      <trkpt lat="41.595002" lon="-7.305805">
        <ele>397.718</ele>
        <time>2019-06-22T14:03:34Z</time>
      </trkpt>
      <trkpt lat="41.594825" lon="-7.305855">
        <ele>397.208</ele>
        <time>2019-06-22T14:03:35Z</time>
      </trkpt>
      <trkpt lat="41.594640" lon="-7.305918">
        <ele>397.246</ele>
        <time>2019-06-22T14:03:36Z</time>
      </trkpt>
      <trkpt lat="41.594454" lon="-7.305996">
        <ele>397.270</ele>
        <time>2019-06-22T14:03:37Z</time>
      </trkpt>
      <trkpt lat="41.594262" lon="-7.306076">
        <ele>396.662</ele>
        <time>2019-06-22T14:03:38Z</time>
      </trkpt>
      <trkpt lat="41.594055" lon="-7.306144">
        <ele>396.074</ele>
        <time>2019-06-22T14:03:39Z</time>
      </trkpt>
      <trkpt lat="41.593859" lon="-7.306233">
        <ele>395.772</ele>
        <time>2019-06-22T14:03:40Z</time>
      </trkpt>
      <trkpt lat="41.593650" lon="-7.306312">
        <ele>395.161</ele>
        <time>2019-06-22T14:03:41Z</time>
      </trkpt>
      <trkpt lat="41.593458" lon="-7.306394">
        <ele>394.526</ele>
        <time>2019-06-22T14:03:42Z</time>
      </trkpt>
      <trkpt lat="41.593271" lon="-7.306476">
        <ele>394.389</ele>
        <time>2019-06-22T14:03:43Z</time>
      </trkpt>
      <trkpt lat="41.593080" lon="-7.306560">
        <ele>393.522</ele>
        <time>2019-06-22T14:03:44Z</time>
      </trkpt>
      <trkpt lat="41.592876" lon="-7.306642">
        <ele>392.862</ele>
        <time>2019-06-22T14:03:45Z</time>
      </trkpt>
      <trkpt lat="41.592676" lon="-7.306726">
        <ele>392.608</ele>
        <time>2019-06-22T14:03:46Z</time>
      </trkpt>
      <trkpt lat="41.592470" lon="-7.306807">
        <ele>392.508</ele>
        <time>2019-06-22T14:03:47Z</time>
      </trkpt>
      <trkpt lat="41.592270" lon="-7.306886">
        <ele>392.355</ele>
        <time>2019-06-22T14:03:48Z</time>
      </trkpt>
      <trkpt lat="41.592065" lon="-7.306966">
        <ele>391.729</ele>
        <time>2019-06-22T14:03:49Z</time>
      </trkpt>
      <trkpt lat="41.591864" lon="-7.307040">
        <ele>389.571</ele>
        <time>2019-06-22T14:03:50Z</time>
      </trkpt>
      <trkpt lat="41.591668" lon="-7.307122">
        <ele>388.533</ele>
        <time>2019-06-22T14:03:51Z</time>
      </trkpt>
      <trkpt lat="41.591479" lon="-7.307213">
        <ele>388.051</ele>
        <time>2019-06-22T14:03:52Z</time>
      </trkpt>
      <trkpt lat="41.591297" lon="-7.307308">
        <ele>388.010</ele>
        <time>2019-06-22T14:03:53Z</time>
      </trkpt>
      <trkpt lat="41.591106" lon="-7.307381">
        <ele>388.355</ele>
        <time>2019-06-22T14:03:54Z</time>
      </trkpt>
      <trkpt lat="41.590912" lon="-7.307454">
        <ele>389.678</ele>
        <time>2019-06-22T14:03:55Z</time>
      </trkpt>
      <trkpt lat="41.590713" lon="-7.307506">
        <ele>390.699</ele>
        <time>2019-06-22T14:03:56Z</time>
      </trkpt>
      <trkpt lat="41.590500" lon="-7.307537">
        <ele>390.607</ele>
        <time>2019-06-22T14:03:57Z</time>
      </trkpt>
      <trkpt lat="41.590289" lon="-7.307546">
        <ele>389.827</ele>
        <time>2019-06-22T14:03:58Z</time>
      </trkpt>
      <trkpt lat="41.590073" lon="-7.307534">
        <ele>387.808</ele>
        <time>2019-06-22T14:03:59Z</time>
      </trkpt>
      <trkpt lat="41.589859" lon="-7.307513">
        <ele>387.652</ele>
        <time>2019-06-22T14:04:00Z</time>
      </trkpt>
      <trkpt lat="41.589654" lon="-7.307505">
        <ele>386.266</ele>
        <time>2019-06-22T14:04:01Z</time>
      </trkpt>
      <trkpt lat="41.589452" lon="-7.307493">
        <ele>385.798</ele>
        <time>2019-06-22T14:04:02Z</time>
      </trkpt>
      <trkpt lat="41.589251" lon="-7.307471">
        <ele>385.770</ele>
        <time>2019-06-22T14:04:03Z</time>
      </trkpt>
      <trkpt lat="41.589061" lon="-7.307450">
        <ele>385.848</ele>
        <time>2019-06-22T14:04:04Z</time>
      </trkpt>
      <trkpt lat="41.588884" lon="-7.307434">
        <ele>386.237</ele>
        <time>2019-06-22T14:04:05Z</time>
      </trkpt>
      <trkpt lat="41.588710" lon="-7.307405">
        <ele>386.252</ele>
        <time>2019-06-22T14:04:06Z</time>
      </trkpt>
      <trkpt lat="41.588544" lon="-7.307376">
        <ele>386.265</ele>
        <time>2019-06-22T14:04:07Z</time>
      </trkpt>
      <trkpt lat="41.588377" lon="-7.307343">
        <ele>386.236</ele>
        <time>2019-06-22T14:04:08Z</time>
      </trkpt>
      <trkpt lat="41.588197" lon="-7.307290">
        <ele>386.217</ele>
        <time>2019-06-22T14:04:09Z</time>
      </trkpt>
      <trkpt lat="41.588019" lon="-7.307223">
        <ele>387.318</ele>
        <time>2019-06-22T14:04:10Z</time>
      </trkpt>
      <trkpt lat="41.587836" lon="-7.307126">
        <ele>387.408</ele>
        <time>2019-06-22T14:04:11Z</time>
      </trkpt>
      <trkpt lat="41.587652" lon="-7.307007">
        <ele>387.536</ele>
        <time>2019-06-22T14:04:12Z</time>
      </trkpt>
      <trkpt lat="41.587462" lon="-7.306881">
        <ele>387.540</ele>
        <time>2019-06-22T14:04:13Z</time>
      </trkpt>
      <trkpt lat="41.587269" lon="-7.306751">
        <ele>386.752</ele>
        <time>2019-06-22T14:04:14Z</time>
      </trkpt>
      <trkpt lat="41.587070" lon="-7.306617">
        <ele>385.664</ele>
        <time>2019-06-22T14:04:15Z</time>
      </trkpt>
      <trkpt lat="41.586869" lon="-7.306494">
        <ele>384.062</ele>
        <time>2019-06-22T14:04:16Z</time>
      </trkpt>
      <trkpt lat="41.586664" lon="-7.306373">
        <ele>383.461</ele>
        <time>2019-06-22T14:04:17Z</time>
      </trkpt>
      <trkpt lat="41.586453" lon="-7.306272">
        <ele>381.796</ele>
        <time>2019-06-22T14:04:18Z</time>
      </trkpt>
      <trkpt lat="41.586252" lon="-7.306220">
        <ele>380.749</ele>
        <time>2019-06-22T14:04:19Z</time>
      </trkpt>
      <trkpt lat="41.586050" lon="-7.306189">
        <ele>379.799</ele>
        <time>2019-06-22T14:04:20Z</time>
      </trkpt>
      <trkpt lat="41.585847" lon="-7.306188">
        <ele>379.407</ele>
        <time>2019-06-22T14:04:21Z</time>
      </trkpt>
      <trkpt lat="41.585645" lon="-7.306216">
        <ele>378.027</ele>
        <time>2019-06-22T14:04:22Z</time>
      </trkpt>
      <trkpt lat="41.585430" lon="-7.306260">
        <ele>378.008</ele>
        <time>2019-06-22T14:04:23Z</time>
      </trkpt>
      <trkpt lat="41.585221" lon="-7.306320">
        <ele>378.752</ele>
        <time>2019-06-22T14:04:24Z</time>
      </trkpt>
      <trkpt lat="41.585015" lon="-7.306379">
        <ele>379.926</ele>
        <time>2019-06-22T14:04:25Z</time>
      </trkpt>
      <trkpt lat="41.584821" lon="-7.306439">
        <ele>379.968</ele>
        <time>2019-06-22T14:04:26Z</time>
      </trkpt>
      <trkpt lat="41.584614" lon="-7.306480">
        <ele>380.760</ele>
        <time>2019-06-22T14:04:27Z</time>
      </trkpt>
      <trkpt lat="41.584408" lon="-7.306506">
        <ele>382.088</ele>
        <time>2019-06-22T14:04:28Z</time>
      </trkpt>
      <trkpt lat="41.584194" lon="-7.306533">
        <ele>382.017</ele>
        <time>2019-06-22T14:04:29Z</time>
      </trkpt>
      <trkpt lat="41.583985" lon="-7.306545">
        <ele>381.872</ele>
        <time>2019-06-22T14:04:30Z</time>
      </trkpt>
      <trkpt lat="41.583763" lon="-7.306540">
        <ele>381.385</ele>
        <time>2019-06-22T14:04:31Z</time>
      </trkpt>
      <trkpt lat="41.583539" lon="-7.306521">
        <ele>381.129</ele>
        <time>2019-06-22T14:04:32Z</time>
      </trkpt>
      <trkpt lat="41.583314" lon="-7.306475">
        <ele>381.000</ele>
        <time>2019-06-22T14:04:33Z</time>
      </trkpt>
      <trkpt lat="41.583078" lon="-7.306416">
        <ele>380.620</ele>
        <time>2019-06-22T14:04:34Z</time>
      </trkpt>
      <trkpt lat="41.582852" lon="-7.306336">
        <ele>380.508</ele>
        <time>2019-06-22T14:04:35Z</time>
      </trkpt>
      <trkpt lat="41.582623" lon="-7.306245">
        <ele>380.315</ele>
        <time>2019-06-22T14:04:36Z</time>
      </trkpt>
      <trkpt lat="41.582390" lon="-7.306137">
        <ele>380.089</ele>
        <time>2019-06-22T14:04:37Z</time>
      </trkpt>
      <trkpt lat="41.582166" lon="-7.306013">
        <ele>380.041</ele>
        <time>2019-06-22T14:04:38Z</time>
      </trkpt>
      <trkpt lat="41.581949" lon="-7.305871">
        <ele>380.073</ele>
        <time>2019-06-22T14:04:39Z</time>
      </trkpt>
      <trkpt lat="41.581724" lon="-7.305719">
        <ele>380.771</ele>
        <time>2019-06-22T14:04:40Z</time>
      </trkpt>
      <trkpt lat="41.581509" lon="-7.305579">
        <ele>381.270</ele>
        <time>2019-06-22T14:04:41Z</time>
      </trkpt>
      <trkpt lat="41.581289" lon="-7.305440">
        <ele>381.515</ele>
        <time>2019-06-22T14:04:42Z</time>
      </trkpt>
      <trkpt lat="41.581077" lon="-7.305297">
        <ele>382.918</ele>
        <time>2019-06-22T14:04:43Z</time>
      </trkpt>
      <trkpt lat="41.580860" lon="-7.305154">
        <ele>382.978</ele>
        <time>2019-06-22T14:04:44Z</time>
      </trkpt>
      <trkpt lat="41.580642" lon="-7.305008">
        <ele>382.933</ele>
        <time>2019-06-22T14:04:45Z</time>
      </trkpt>
      <trkpt lat="41.580422" lon="-7.304861">
        <ele>383.826</ele>
        <time>2019-06-22T14:04:46Z</time>
      </trkpt>
      <trkpt lat="41.580200" lon="-7.304714">
        <ele>383.908</ele>
        <time>2019-06-22T14:04:47Z</time>
      </trkpt>
      <trkpt lat="41.579975" lon="-7.304568">
        <ele>384.020</ele>
        <time>2019-06-22T14:04:48Z</time>
      </trkpt>
      <trkpt lat="41.579746" lon="-7.304433">
        <ele>384.674</ele>
        <time>2019-06-22T14:04:49Z</time>
      </trkpt>
      <trkpt lat="41.579522" lon="-7.304281">
        <ele>385.536</ele>
        <time>2019-06-22T14:04:50Z</time>
      </trkpt>
      <trkpt lat="41.579295" lon="-7.304135">
        <ele>385.738</ele>
        <time>2019-06-22T14:04:51Z</time>
      </trkpt>
      <trkpt lat="41.579064" lon="-7.303984">
        <ele>387.156</ele>
        <time>2019-06-22T14:04:52Z</time>
      </trkpt>
      <trkpt lat="41.578834" lon="-7.303842">
        <ele>388.815</ele>
        <time>2019-06-22T14:04:53Z</time>
      </trkpt>
      <trkpt lat="41.578608" lon="-7.303689">
        <ele>389.930</ele>
        <time>2019-06-22T14:04:54Z</time>
      </trkpt>
      <trkpt lat="41.578379" lon="-7.303594">
        <ele>390.983</ele>
        <time>2019-06-22T14:04:55Z</time>
      </trkpt>
      <trkpt lat="41.578146" lon="-7.303440">
        <ele>391.329</ele>
        <time>2019-06-22T14:04:56Z</time>
      </trkpt>
      <trkpt lat="41.577910" lon="-7.303281">
        <ele>391.300</ele>
        <time>2019-06-22T14:04:57Z</time>
      </trkpt>
      <trkpt lat="41.577677" lon="-7.303124">
        <ele>390.420</ele>
        <time>2019-06-22T14:04:58Z</time>
      </trkpt>
      <trkpt lat="41.577436" lon="-7.302970">
        <ele>388.908</ele>
        <time>2019-06-22T14:04:59Z</time>
      </trkpt>
      <trkpt lat="41.577200" lon="-7.302814">
        <ele>388.285</ele>
        <time>2019-06-22T14:05:00Z</time>
      </trkpt>
      <trkpt lat="41.576958" lon="-7.302656">
        <ele>388.219</ele>
        <time>2019-06-22T14:05:01Z</time>
      </trkpt>
      <trkpt lat="41.576716" lon="-7.302498">
        <ele>389.891</ele>
        <time>2019-06-22T14:05:02Z</time>
      </trkpt>
      <trkpt lat="41.576468" lon="-7.302344">
        <ele>391.523</ele>
        <time>2019-06-22T14:05:03Z</time>
      </trkpt>
      <trkpt lat="41.576223" lon="-7.302197">
        <ele>392.691</ele>
        <time>2019-06-22T14:05:04Z</time>
      </trkpt>
      <trkpt lat="41.575973" lon="-7.302050">
        <ele>394.060</ele>
        <time>2019-06-22T14:05:05Z</time>
      </trkpt>
      <trkpt lat="41.575727" lon="-7.301899">
        <ele>395.455</ele>
        <time>2019-06-22T14:05:06Z</time>
      </trkpt>
      <trkpt lat="41.575481" lon="-7.301752">
        <ele>395.858</ele>
        <time>2019-06-22T14:05:07Z</time>
      </trkpt>
      <trkpt lat="41.575243" lon="-7.301606">
        <ele>396.111</ele>
        <time>2019-06-22T14:05:08Z</time>
      </trkpt>
      <trkpt lat="41.574999" lon="-7.301457">
        <ele>396.521</ele>
        <time>2019-06-22T14:05:09Z</time>
      </trkpt>
      <trkpt lat="41.574754" lon="-7.301299">
        <ele>396.503</ele>
        <time>2019-06-22T14:05:10Z</time>
      </trkpt>
      <trkpt lat="41.574516" lon="-7.301146">
        <ele>394.708</ele>
        <time>2019-06-22T14:05:11Z</time>
      </trkpt>
      <trkpt lat="41.574273" lon="-7.300989">
        <ele>393.174</ele>
        <time>2019-06-22T14:05:12Z</time>
      </trkpt>
      <trkpt lat="41.574041" lon="-7.300826">
        <ele>391.548</ele>
        <time>2019-06-22T14:05:13Z</time>
      </trkpt>
      <trkpt lat="41.573809" lon="-7.300659">
        <ele>390.760</ele>
        <time>2019-06-22T14:05:14Z</time>
      </trkpt>
      <trkpt lat="41.573578" lon="-7.300478">
        <ele>390.742</ele>
        <time>2019-06-22T14:05:15Z</time>
      </trkpt>
      <trkpt lat="41.573355" lon="-7.300283">
        <ele>392.480</ele>
        <time>2019-06-22T14:05:16Z</time>
      </trkpt>
      <trkpt lat="41.573136" lon="-7.300077">
        <ele>394.749</ele>
        <time>2019-06-22T14:05:17Z</time>
      </trkpt>
      <trkpt lat="41.572926" lon="-7.299854">
        <ele>395.764</ele>
        <time>2019-06-22T14:05:18Z</time>
      </trkpt>
      <trkpt lat="41.572731" lon="-7.299610">
        <ele>395.927</ele>
        <time>2019-06-22T14:05:19Z</time>
      </trkpt>
      <trkpt lat="41.572534" lon="-7.299356">
        <ele>396.242</ele>
        <time>2019-06-22T14:05:20Z</time>
      </trkpt>
      <trkpt lat="41.572351" lon="-7.299090">
        <ele>396.322</ele>
        <time>2019-06-22T14:05:21Z</time>
      </trkpt>
      <trkpt lat="41.572178" lon="-7.298811">
        <ele>396.414</ele>
        <time>2019-06-22T14:05:22Z</time>
      </trkpt>
      <trkpt lat="41.572022" lon="-7.298520">
        <ele>397.408</ele>
        <time>2019-06-22T14:05:23Z</time>
      </trkpt>
      <trkpt lat="41.571874" lon="-7.298224">
        <ele>399.337</ele>
        <time>2019-06-22T14:05:24Z</time>
      </trkpt>
      <trkpt lat="41.571733" lon="-7.297913">
        <ele>400.161</ele>
        <time>2019-06-22T14:05:25Z</time>
      </trkpt>
      <trkpt lat="41.571598" lon="-7.297591">
        <ele>400.183</ele>
        <time>2019-06-22T14:05:26Z</time>
      </trkpt>
      <trkpt lat="41.571484" lon="-7.297262">
        <ele>399.835</ele>
        <time>2019-06-22T14:05:27Z</time>
      </trkpt>
      <trkpt lat="41.571378" lon="-7.296917">
        <ele>399.063</ele>
        <time>2019-06-22T14:05:28Z</time>
      </trkpt>
      <trkpt lat="41.571295" lon="-7.296586">
        <ele>398.362</ele>
        <time>2019-06-22T14:05:29Z</time>
      </trkpt>
      <trkpt lat="41.571208" lon="-7.296238">
        <ele>397.877</ele>
        <time>2019-06-22T14:05:30Z</time>
      </trkpt>
      <trkpt lat="41.571133" lon="-7.295894">
        <ele>397.460</ele>
        <time>2019-06-22T14:05:31Z</time>
      </trkpt>
      <trkpt lat="41.571061" lon="-7.295542">
        <ele>397.421</ele>
        <time>2019-06-22T14:05:32Z</time>
      </trkpt>
      <trkpt lat="41.570990" lon="-7.295187">
        <ele>396.441</ele>
        <time>2019-06-22T14:05:33Z</time>
      </trkpt>
      <trkpt lat="41.570919" lon="-7.294839">
        <ele>394.305</ele>
        <time>2019-06-22T14:05:34Z</time>
      </trkpt>
      <trkpt lat="41.570850" lon="-7.294492">
        <ele>392.908</ele>
        <time>2019-06-22T14:05:35Z</time>
      </trkpt>
      <trkpt lat="41.570783" lon="-7.294151">
        <ele>391.465</ele>
        <time>2019-06-22T14:05:36Z</time>
      </trkpt>
      <trkpt lat="41.570719" lon="-7.293803">
        <ele>390.279</ele>
        <time>2019-06-22T14:05:37Z</time>
      </trkpt>
      <trkpt lat="41.570647" lon="-7.293454">
        <ele>388.221</ele>
        <time>2019-06-22T14:05:38Z</time>
      </trkpt>
      <trkpt lat="41.570575" lon="-7.293096">
        <ele>387.563</ele>
        <time>2019-06-22T14:05:39Z</time>
      </trkpt>
      <trkpt lat="41.570499" lon="-7.292741">
        <ele>385.761</ele>
        <time>2019-06-22T14:05:40Z</time>
      </trkpt>
      <trkpt lat="41.570424" lon="-7.292373">
        <ele>385.220</ele>
        <time>2019-06-22T14:05:41Z</time>
      </trkpt>
      <trkpt lat="41.570353" lon="-7.292012">
        <ele>385.165</ele>
        <time>2019-06-22T14:05:42Z</time>
      </trkpt>
      <trkpt lat="41.570285" lon="-7.291636">
        <ele>385.168</ele>
        <time>2019-06-22T14:05:43Z</time>
      </trkpt>
      <trkpt lat="41.570224" lon="-7.291267">
        <ele>383.413</ele>
        <time>2019-06-22T14:05:44Z</time>
      </trkpt>
      <trkpt lat="41.570154" lon="-7.290890">
        <ele>379.243</ele>
        <time>2019-06-22T14:05:45Z</time>
      </trkpt>
      <trkpt lat="41.570080" lon="-7.290523">
        <ele>379.207</ele>
        <time>2019-06-22T14:05:46Z</time>
      </trkpt>
      <trkpt lat="41.570001" lon="-7.290158">
        <ele>376.108</ele>
        <time>2019-06-22T14:05:47Z</time>
      </trkpt>
      <trkpt lat="41.569922" lon="-7.289793">
        <ele>370.694</ele>
        <time>2019-06-22T14:05:48Z</time>
      </trkpt>
      <trkpt lat="41.569836" lon="-7.289428">
        <ele>368.638</ele>
        <time>2019-06-22T14:05:49Z</time>
      </trkpt>
      <trkpt lat="41.569759" lon="-7.289075">
        <ele>368.660</ele>
        <time>2019-06-22T14:05:50Z</time>
      </trkpt>
      <trkpt lat="41.569684" lon="-7.288720">
        <ele>368.032</ele>
        <time>2019-06-22T14:05:51Z</time>
      </trkpt>
      <trkpt lat="41.569613" lon="-7.288374">
        <ele>367.850</ele>
        <time>2019-06-22T14:05:52Z</time>
      </trkpt>
      <trkpt lat="41.569548" lon="-7.288025">
        <ele>367.699</ele>
        <time>2019-06-22T14:05:53Z</time>
      </trkpt>
      <trkpt lat="41.569477" lon="-7.287686">
        <ele>366.614</ele>
        <time>2019-06-22T14:05:54Z</time>
      </trkpt>
      <trkpt lat="41.569411" lon="-7.287330">
        <ele>365.017</ele>
        <time>2019-06-22T14:05:55Z</time>
      </trkpt>
      <trkpt lat="41.569333" lon="-7.286972">
        <ele>362.466</ele>
        <time>2019-06-22T14:05:56Z</time>
      </trkpt>
      <trkpt lat="41.569259" lon="-7.286608">
        <ele>362.429</ele>
        <time>2019-06-22T14:05:57Z</time>
      </trkpt>
      <trkpt lat="41.569190" lon="-7.286255">
        <ele>363.221</ele>
        <time>2019-06-22T14:05:58Z</time>
      </trkpt>
      <trkpt lat="41.569111" lon="-7.285892">
        <ele>365.108</ele>
        <time>2019-06-22T14:05:59Z</time>
      </trkpt>
      <trkpt lat="41.569043" lon="-7.285546">
        <ele>366.259</ele>
        <time>2019-06-22T14:06:00Z</time>
      </trkpt>
      <trkpt lat="41.568969" lon="-7.285188">
        <ele>366.793</ele>
        <time>2019-06-22T14:06:01Z</time>
      </trkpt>
      <trkpt lat="41.568899" lon="-7.284826">
        <ele>366.725</ele>
        <time>2019-06-22T14:06:02Z</time>
      </trkpt>
      <trkpt lat="41.568814" lon="-7.284457">
        <ele>364.327</ele>
        <time>2019-06-22T14:06:03Z</time>
      </trkpt>
      <trkpt lat="41.568742" lon="-7.284100">
        <ele>362.175</ele>
        <time>2019-06-22T14:06:04Z</time>
      </trkpt>
      <trkpt lat="41.568668" lon="-7.283736">
        <ele>360.184</ele>
        <time>2019-06-22T14:06:05Z</time>
      </trkpt>
      <trkpt lat="41.568599" lon="-7.283380">
        <ele>358.669</ele>
        <time>2019-06-22T14:06:06Z</time>
      </trkpt>
      <trkpt lat="41.568516" lon="-7.283031">
        <ele>356.112</ele>
        <time>2019-06-22T14:06:07Z</time>
      </trkpt>
      <trkpt lat="41.568450" lon="-7.282676">
        <ele>354.886</ele>
        <time>2019-06-22T14:06:08Z</time>
      </trkpt>
      <trkpt lat="41.568381" lon="-7.282321">
        <ele>353.060</ele>
        <time>2019-06-22T14:06:09Z</time>
      </trkpt>
      <trkpt lat="41.568302" lon="-7.281958">
        <ele>351.026</ele>
        <time>2019-06-22T14:06:10Z</time>
      </trkpt>
      <trkpt lat="41.568234" lon="-7.281593">
        <ele>348.908</ele>
        <time>2019-06-22T14:06:11Z</time>
      </trkpt>
      <trkpt lat="41.568164" lon="-7.281227">
        <ele>348.091</ele>
        <time>2019-06-22T14:06:12Z</time>
      </trkpt>
      <trkpt lat="41.568095" lon="-7.280864">
        <ele>347.355</ele>
        <time>2019-06-22T14:06:13Z</time>
      </trkpt>
      <trkpt lat="41.568019" lon="-7.280511">
        <ele>347.027</ele>
        <time>2019-06-22T14:06:14Z</time>
      </trkpt>
      <trkpt lat="41.567944" lon="-7.280163">
        <ele>346.889</ele>
        <time>2019-06-22T14:06:15Z</time>
      </trkpt>
      <trkpt lat="41.567877" lon="-7.279796">
        <ele>346.067</ele>
        <time>2019-06-22T14:06:16Z</time>
      </trkpt>
      <trkpt lat="41.567802" lon="-7.279434">
        <ele>344.656</ele>
        <time>2019-06-22T14:06:17Z</time>
      </trkpt>
      <trkpt lat="41.567726" lon="-7.279074">
        <ele>343.671</ele>
        <time>2019-06-22T14:06:18Z</time>
      </trkpt>
      <trkpt lat="41.567654" lon="-7.278706">
        <ele>341.964</ele>
        <time>2019-06-22T14:06:19Z</time>
      </trkpt>
      <trkpt lat="41.567582" lon="-7.278343">
        <ele>339.929</ele>
        <time>2019-06-22T14:06:20Z</time>
      </trkpt>
      <trkpt lat="41.567511" lon="-7.277987">
        <ele>337.300</ele>
        <time>2019-06-22T14:06:21Z</time>
      </trkpt>
      <trkpt lat="41.567443" lon="-7.277629">
        <ele>335.320</ele>
        <time>2019-06-22T14:06:22Z</time>
      </trkpt>
      <trkpt lat="41.567377" lon="-7.277280">
        <ele>334.208</ele>
        <time>2019-06-22T14:06:23Z</time>
      </trkpt>
      <trkpt lat="41.567323" lon="-7.276962">
        <ele>332.725</ele>
        <time>2019-06-22T14:06:24Z</time>
      </trkpt>
      <trkpt lat="41.567253" lon="-7.276637">
        <ele>331.259</ele>
        <time>2019-06-22T14:06:25Z</time>
      </trkpt>
      <trkpt lat="41.567194" lon="-7.276322">
        <ele>330.281</ele>
        <time>2019-06-22T14:06:26Z</time>
      </trkpt>
      <trkpt lat="41.567131" lon="-7.276013">
        <ele>329.623</ele>
        <time>2019-06-22T14:06:27Z</time>
      </trkpt>
      <trkpt lat="41.567071" lon="-7.275712">
        <ele>328.181</ele>
        <time>2019-06-22T14:06:28Z</time>
      </trkpt>
      <trkpt lat="41.567019" lon="-7.275408">
        <ele>326.890</ele>
        <time>2019-06-22T14:06:29Z</time>
      </trkpt>
      <trkpt lat="41.566945" lon="-7.275118">
        <ele>325.755</ele>
        <time>2019-06-22T14:06:30Z</time>
      </trkpt>
      <trkpt lat="41.566858" lon="-7.274829">
        <ele>325.098</ele>
        <time>2019-06-22T14:06:31Z</time>
      </trkpt>
      <trkpt lat="41.566813" lon="-7.274555">
        <ele>323.456</ele>
        <time>2019-06-22T14:06:32Z</time>
      </trkpt>
      <trkpt lat="41.566770" lon="-7.274299">
        <ele>322.359</ele>
        <time>2019-06-22T14:06:33Z</time>
      </trkpt>
      <trkpt lat="41.566713" lon="-7.274037">
        <ele>320.614</ele>
        <time>2019-06-22T14:06:34Z</time>
      </trkpt>
      <trkpt lat="41.566656" lon="-7.273761">
        <ele>319.208</ele>
        <time>2019-06-22T14:06:35Z</time>
      </trkpt>
      <trkpt lat="41.566579" lon="-7.273489">
        <ele>317.188</ele>
        <time>2019-06-22T14:06:36Z</time>
      </trkpt>
      <trkpt lat="41.566499" lon="-7.273209">
        <ele>317.152</ele>
        <time>2019-06-22T14:06:37Z</time>
      </trkpt>
      <trkpt lat="41.566403" lon="-7.272928">
        <ele>315.354</ele>
        <time>2019-06-22T14:06:38Z</time>
      </trkpt>
      <trkpt lat="41.566293" lon="-7.272645">
        <ele>313.226</ele>
        <time>2019-06-22T14:06:39Z</time>
      </trkpt>
      <trkpt lat="41.566176" lon="-7.272369">
        <ele>310.614</ele>
        <time>2019-06-22T14:06:40Z</time>
      </trkpt>
      <trkpt lat="41.566044" lon="-7.272111">
        <ele>308.283</ele>
        <time>2019-06-22T14:06:41Z</time>
      </trkpt>
      <trkpt lat="41.565906" lon="-7.271846">
        <ele>306.118</ele>
        <time>2019-06-22T14:06:42Z</time>
      </trkpt>
      <trkpt lat="41.565767" lon="-7.271579">
        <ele>304.071</ele>
        <time>2019-06-22T14:06:43Z</time>
      </trkpt>
      <trkpt lat="41.565619" lon="-7.271333">
        <ele>302.394</ele>
        <time>2019-06-22T14:06:44Z</time>
      </trkpt>
      <trkpt lat="41.565460" lon="-7.271094">
        <ele>301.757</ele>
        <time>2019-06-22T14:06:45Z</time>
      </trkpt>
      <trkpt lat="41.565287" lon="-7.270850">
        <ele>300.922</ele>
        <time>2019-06-22T14:06:46Z</time>
      </trkpt>
      <trkpt lat="41.565105" lon="-7.270621">
        <ele>300.708</ele>
        <time>2019-06-22T14:06:47Z</time>
      </trkpt>
      <trkpt lat="41.564910" lon="-7.270388">
        <ele>300.232</ele>
        <time>2019-06-22T14:06:48Z</time>
      </trkpt>
      <trkpt lat="41.564701" lon="-7.270159">
        <ele>299.586</ele>
        <time>2019-06-22T14:06:49Z</time>
      </trkpt>
      <trkpt lat="41.564495" lon="-7.269926">
        <ele>298.038</ele>
        <time>2019-06-22T14:06:50Z</time>
      </trkpt>
      <trkpt lat="41.564287" lon="-7.269692">
        <ele>296.180</ele>
        <time>2019-06-22T14:06:51Z</time>
      </trkpt>
      <trkpt lat="41.564072" lon="-7.269463">
        <ele>293.928</ele>
        <time>2019-06-22T14:06:52Z</time>
      </trkpt>
      <trkpt lat="41.563866" lon="-7.269233">
        <ele>291.657</ele>
        <time>2019-06-22T14:06:53Z</time>
      </trkpt>
      <trkpt lat="41.563660" lon="-7.269000">
        <ele>289.462</ele>
        <time>2019-06-22T14:06:54Z</time>
      </trkpt>
      <trkpt lat="41.563454" lon="-7.268771">
        <ele>286.245</ele>
        <time>2019-06-22T14:06:55Z</time>
      </trkpt>
      <trkpt lat="41.563245" lon="-7.268539">
        <ele>282.339</ele>
        <time>2019-06-22T14:06:56Z</time>
      </trkpt>
      <trkpt lat="41.563039" lon="-7.268311">
        <ele>277.901</ele>
        <time>2019-06-22T14:06:57Z</time>
      </trkpt>
      <trkpt lat="41.562834" lon="-7.268083">
        <ele>273.621</ele>
        <time>2019-06-22T14:06:58Z</time>
      </trkpt>
      <trkpt lat="41.562628" lon="-7.267863">
        <ele>269.408</ele>
        <time>2019-06-22T14:06:59Z</time>
      </trkpt>
      <trkpt lat="41.562422" lon="-7.267639">
        <ele>267.066</ele>
        <time>2019-06-22T14:07:00Z</time>
      </trkpt>
      <trkpt lat="41.562210" lon="-7.267416">
        <ele>265.790</ele>
        <time>2019-06-22T14:07:01Z</time>
      </trkpt>
      <trkpt lat="41.562003" lon="-7.267182">
        <ele>265.752</ele>
        <time>2019-06-22T14:07:02Z</time>
      </trkpt>
      <trkpt lat="41.561786" lon="-7.266957">
        <ele>266.064</ele>
        <time>2019-06-22T14:07:03Z</time>
      </trkpt>
      <trkpt lat="41.561568" lon="-7.266730">
        <ele>266.242</ele>
        <time>2019-06-22T14:07:04Z</time>
      </trkpt>
      <trkpt lat="41.561346" lon="-7.266491">
        <ele>266.211</ele>
        <time>2019-06-22T14:07:05Z</time>
      </trkpt>
      <trkpt lat="41.561133" lon="-7.266259">
        <ele>265.656</ele>
        <time>2019-06-22T14:07:06Z</time>
      </trkpt>
      <trkpt lat="41.560921" lon="-7.266022">
        <ele>263.819</ele>
        <time>2019-06-22T14:07:07Z</time>
      </trkpt>
      <trkpt lat="41.560716" lon="-7.265791">
        <ele>262.918</ele>
        <time>2019-06-22T14:07:08Z</time>
      </trkpt>
      <trkpt lat="41.560505" lon="-7.265545">
        <ele>261.498</ele>
        <time>2019-06-22T14:07:09Z</time>
      </trkpt>
      <trkpt lat="41.560300" lon="-7.265317">
        <ele>259.817</ele>
        <time>2019-06-22T14:07:10Z</time>
      </trkpt>
      <trkpt lat="41.560087" lon="-7.265086">
        <ele>259.308</ele>
        <time>2019-06-22T14:07:11Z</time>
      </trkpt>
      <trkpt lat="41.559881" lon="-7.264847">
        <ele>258.494</ele>
        <time>2019-06-22T14:07:12Z</time>
      </trkpt>
      <trkpt lat="41.559675" lon="-7.264612">
        <ele>256.078</ele>
        <time>2019-06-22T14:07:13Z</time>
      </trkpt>
      <trkpt lat="41.559462" lon="-7.264379">
        <ele>254.530</ele>
        <time>2019-06-22T14:07:14Z</time>
      </trkpt>
      <trkpt lat="41.559252" lon="-7.264155">
        <ele>252.612</ele>
        <time>2019-06-22T14:07:15Z</time>
      </trkpt>
      <trkpt lat="41.559037" lon="-7.263919">
        <ele>251.470</ele>
        <time>2019-06-22T14:07:16Z</time>
      </trkpt>
      <trkpt lat="41.558836" lon="-7.263699">
        <ele>249.869</ele>
        <time>2019-06-22T14:07:17Z</time>
      </trkpt>
      <trkpt lat="41.558633" lon="-7.263479">
        <ele>248.714</ele>
        <time>2019-06-22T14:07:18Z</time>
      </trkpt>
      <trkpt lat="41.558435" lon="-7.263269">
        <ele>248.737</ele>
        <time>2019-06-22T14:07:19Z</time>
      </trkpt>
      <trkpt lat="41.558228" lon="-7.263040">
        <ele>248.981</ele>
        <time>2019-06-22T14:07:20Z</time>
      </trkpt>
      <trkpt lat="41.558026" lon="-7.262818">
        <ele>249.261</ele>
        <time>2019-06-22T14:07:21Z</time>
      </trkpt>
      <trkpt lat="41.557821" lon="-7.262597">
        <ele>250.317</ele>
        <time>2019-06-22T14:07:22Z</time>
      </trkpt>
      <trkpt lat="41.557620" lon="-7.262379">
        <ele>252.608</ele>
        <time>2019-06-22T14:07:23Z</time>
      </trkpt>
      <trkpt lat="41.557421" lon="-7.262161">
        <ele>254.461</ele>
        <time>2019-06-22T14:07:24Z</time>
      </trkpt>
      <trkpt lat="41.557223" lon="-7.261941">
        <ele>255.415</ele>
        <time>2019-06-22T14:07:25Z</time>
      </trkpt>
      <trkpt lat="41.557021" lon="-7.261715">
        <ele>255.967</ele>
        <time>2019-06-22T14:07:26Z</time>
      </trkpt>
      <trkpt lat="41.556822" lon="-7.261495">
        <ele>257.179</ele>
        <time>2019-06-22T14:07:27Z</time>
      </trkpt>
      <trkpt lat="41.556621" lon="-7.261288">
        <ele>258.117</ele>
        <time>2019-06-22T14:07:28Z</time>
      </trkpt>
      <trkpt lat="41.556417" lon="-7.261082">
        <ele>258.956</ele>
        <time>2019-06-22T14:07:29Z</time>
      </trkpt>
      <trkpt lat="41.556211" lon="-7.260883">
        <ele>259.441</ele>
        <time>2019-06-22T14:07:30Z</time>
      </trkpt>
      <trkpt lat="41.556014" lon="-7.260699">
        <ele>259.434</ele>
        <time>2019-06-22T14:07:31Z</time>
      </trkpt>
      <trkpt lat="41.555800" lon="-7.260531">
        <ele>258.898</ele>
        <time>2019-06-22T14:07:32Z</time>
      </trkpt>
      <trkpt lat="41.555574" lon="-7.260383">
        <ele>258.115</ele>
        <time>2019-06-22T14:07:33Z</time>
      </trkpt>
      <trkpt lat="41.555342" lon="-7.260241">
        <ele>258.126</ele>
        <time>2019-06-22T14:07:34Z</time>
      </trkpt>
      <trkpt lat="41.555110" lon="-7.260127">
        <ele>258.508</ele>
        <time>2019-06-22T14:07:35Z</time>
      </trkpt>
      <trkpt lat="41.554862" lon="-7.260009">
        <ele>259.162</ele>
        <time>2019-06-22T14:07:36Z</time>
      </trkpt>
      <trkpt lat="41.554625" lon="-7.259921">
        <ele>260.926</ele>
        <time>2019-06-22T14:07:37Z</time>
      </trkpt>
      <trkpt lat="41.554369" lon="-7.259843">
        <ele>262.138</ele>
        <time>2019-06-22T14:07:38Z</time>
      </trkpt>
      <trkpt lat="41.554126" lon="-7.259781">
        <ele>263.190</ele>
        <time>2019-06-22T14:07:39Z</time>
      </trkpt>
      <trkpt lat="41.553873" lon="-7.259731">
        <ele>263.488</ele>
        <time>2019-06-22T14:07:40Z</time>
      </trkpt>
      <trkpt lat="41.553615" lon="-7.259698">
        <ele>263.487</ele>
        <time>2019-06-22T14:07:41Z</time>
      </trkpt>
      <trkpt lat="41.553365" lon="-7.259690">
        <ele>264.132</ele>
        <time>2019-06-22T14:07:42Z</time>
      </trkpt>
      <trkpt lat="41.553108" lon="-7.259690">
        <ele>264.675</ele>
        <time>2019-06-22T14:07:43Z</time>
      </trkpt>
      <trkpt lat="41.552850" lon="-7.259706">
        <ele>264.663</ele>
        <time>2019-06-22T14:07:44Z</time>
      </trkpt>
      <trkpt lat="41.552598" lon="-7.259731">
        <ele>264.444</ele>
        <time>2019-06-22T14:07:45Z</time>
      </trkpt>
      <trkpt lat="41.552347" lon="-7.259782">
        <ele>264.418</ele>
        <time>2019-06-22T14:07:46Z</time>
      </trkpt>
      <trkpt lat="41.552091" lon="-7.259805">
        <ele>264.508</ele>
        <time>2019-06-22T14:07:47Z</time>
      </trkpt>
      <trkpt lat="41.551827" lon="-7.259830">
        <ele>265.569</ele>
        <time>2019-06-22T14:07:48Z</time>
      </trkpt>
      <trkpt lat="41.551571" lon="-7.259853">
        <ele>267.043</ele>
        <time>2019-06-22T14:07:49Z</time>
      </trkpt>
      <trkpt lat="41.551320" lon="-7.259886">
        <ele>269.485</ele>
        <time>2019-06-22T14:07:50Z</time>
      </trkpt>
      <trkpt lat="41.551068" lon="-7.259901">
        <ele>271.727</ele>
        <time>2019-06-22T14:07:51Z</time>
      </trkpt>
      <trkpt lat="41.550803" lon="-7.259903">
        <ele>273.085</ele>
        <time>2019-06-22T14:07:52Z</time>
      </trkpt>
      <trkpt lat="41.550549" lon="-7.259893">
        <ele>273.654</ele>
        <time>2019-06-22T14:07:53Z</time>
      </trkpt>
      <trkpt lat="41.550288" lon="-7.259854">
        <ele>274.149</ele>
        <time>2019-06-22T14:07:54Z</time>
      </trkpt>
      <trkpt lat="41.550029" lon="-7.259801">
        <ele>274.652</ele>
        <time>2019-06-22T14:07:55Z</time>
      </trkpt>
      <trkpt lat="41.549772" lon="-7.259735">
        <ele>275.155</ele>
        <time>2019-06-22T14:07:56Z</time>
      </trkpt>
      <trkpt lat="41.549519" lon="-7.259647">
        <ele>276.007</ele>
        <time>2019-06-22T14:07:57Z</time>
      </trkpt>
      <trkpt lat="41.549270" lon="-7.259544">
        <ele>277.317</ele>
        <time>2019-06-22T14:07:58Z</time>
      </trkpt>
      <trkpt lat="41.549022" lon="-7.259436">
        <ele>278.408</ele>
        <time>2019-06-22T14:07:59Z</time>
      </trkpt>
      <trkpt lat="41.548784" lon="-7.259318">
        <ele>279.398</ele>
        <time>2019-06-22T14:08:00Z</time>
      </trkpt>
      <trkpt lat="41.548546" lon="-7.259198">
        <ele>280.122</ele>
        <time>2019-06-22T14:08:01Z</time>
      </trkpt>
      <trkpt lat="41.548310" lon="-7.259067">
        <ele>280.574</ele>
        <time>2019-06-22T14:08:02Z</time>
      </trkpt>
      <trkpt lat="41.548078" lon="-7.258946">
        <ele>281.186</ele>
        <time>2019-06-22T14:08:03Z</time>
      </trkpt>
      <trkpt lat="41.547841" lon="-7.258821">
        <ele>281.654</ele>
        <time>2019-06-22T14:08:04Z</time>
      </trkpt>
      <trkpt lat="41.547604" lon="-7.258698">
        <ele>282.023</ele>
        <time>2019-06-22T14:08:05Z</time>
      </trkpt>
      <trkpt lat="41.547382" lon="-7.258577">
        <ele>282.338</ele>
        <time>2019-06-22T14:08:06Z</time>
      </trkpt>
      <trkpt lat="41.547152" lon="-7.258448">
        <ele>282.661</ele>
        <time>2019-06-22T14:08:07Z</time>
      </trkpt>
      <trkpt lat="41.546915" lon="-7.258315">
        <ele>282.994</ele>
        <time>2019-06-22T14:08:08Z</time>
      </trkpt>
      <trkpt lat="41.546686" lon="-7.258202">
        <ele>283.157</ele>
        <time>2019-06-22T14:08:09Z</time>
      </trkpt>
      <trkpt lat="41.546443" lon="-7.258070">
        <ele>283.122</ele>
        <time>2019-06-22T14:08:10Z</time>
      </trkpt>
      <trkpt lat="41.546211" lon="-7.257951">
        <ele>283.608</ele>
        <time>2019-06-22T14:08:11Z</time>
      </trkpt>
      <trkpt lat="41.545975" lon="-7.257825">
        <ele>283.732</ele>
        <time>2019-06-22T14:08:12Z</time>
      </trkpt>
      <trkpt lat="41.545742" lon="-7.257697">
        <ele>284.096</ele>
        <time>2019-06-22T14:08:13Z</time>
      </trkpt>
      <trkpt lat="41.545505" lon="-7.257576">
        <ele>284.068</ele>
        <time>2019-06-22T14:08:14Z</time>
      </trkpt>
      <trkpt lat="41.545268" lon="-7.257458">
        <ele>283.860</ele>
        <time>2019-06-22T14:08:15Z</time>
      </trkpt>
      <trkpt lat="41.545034" lon="-7.257330">
        <ele>282.278</ele>
        <time>2019-06-22T14:08:16Z</time>
      </trkpt>
      <trkpt lat="41.544799" lon="-7.257200">
        <ele>281.127</ele>
        <time>2019-06-22T14:08:17Z</time>
      </trkpt>
      <trkpt lat="41.544558" lon="-7.257067">
        <ele>279.472</ele>
        <time>2019-06-22T14:08:18Z</time>
      </trkpt>
      <trkpt lat="41.544319" lon="-7.256932">
        <ele>278.125</ele>
        <time>2019-06-22T14:08:19Z</time>
      </trkpt>
      <trkpt lat="41.544081" lon="-7.256795">
        <ele>278.171</ele>
        <time>2019-06-22T14:08:20Z</time>
      </trkpt>
      <trkpt lat="41.543848" lon="-7.256658">
        <ele>278.841</ele>
        <time>2019-06-22T14:08:21Z</time>
      </trkpt>
      <trkpt lat="41.543615" lon="-7.256515">
        <ele>279.715</ele>
        <time>2019-06-22T14:08:22Z</time>
      </trkpt>
      <trkpt lat="41.543377" lon="-7.256370">
        <ele>279.708</ele>
        <time>2019-06-22T14:08:23Z</time>
      </trkpt>
      <trkpt lat="41.543142" lon="-7.256212">
        <ele>279.250</ele>
        <time>2019-06-22T14:08:24Z</time>
      </trkpt>
      <trkpt lat="41.542904" lon="-7.256053">
        <ele>279.084</ele>
        <time>2019-06-22T14:08:25Z</time>
      </trkpt>
      <trkpt lat="41.542673" lon="-7.255898">
        <ele>278.066</ele>
        <time>2019-06-22T14:08:26Z</time>
      </trkpt>
      <trkpt lat="41.542438" lon="-7.255735">
        <ele>276.738</ele>
        <time>2019-06-22T14:08:27Z</time>
      </trkpt>
      <trkpt lat="41.542205" lon="-7.255566">
        <ele>275.746</ele>
        <time>2019-06-22T14:08:28Z</time>
      </trkpt>
      <trkpt lat="41.541973" lon="-7.255391">
        <ele>275.645</ele>
        <time>2019-06-22T14:08:29Z</time>
      </trkpt>
      <trkpt lat="41.541746" lon="-7.255225">
        <ele>275.030</ele>
        <time>2019-06-22T14:08:30Z</time>
      </trkpt>
      <trkpt lat="41.541521" lon="-7.255054">
        <ele>274.243</ele>
        <time>2019-06-22T14:08:31Z</time>
      </trkpt>
      <trkpt lat="41.541293" lon="-7.254874">
        <ele>273.581</ele>
        <time>2019-06-22T14:08:32Z</time>
      </trkpt>
      <trkpt lat="41.541065" lon="-7.254701">
        <ele>272.661</ele>
        <time>2019-06-22T14:08:33Z</time>
      </trkpt>
      <trkpt lat="41.540843" lon="-7.254521">
        <ele>272.417</ele>
        <time>2019-06-22T14:08:34Z</time>
      </trkpt>
      <trkpt lat="41.540618" lon="-7.254339">
        <ele>270.808</ele>
        <time>2019-06-22T14:08:35Z</time>
      </trkpt>
      <trkpt lat="41.540393" lon="-7.254155">
        <ele>268.911</ele>
        <time>2019-06-22T14:08:36Z</time>
      </trkpt>
      <trkpt lat="41.540162" lon="-7.253971">
        <ele>266.315</ele>
        <time>2019-06-22T14:08:37Z</time>
      </trkpt>
      <trkpt lat="41.539934" lon="-7.253802">
        <ele>264.717</ele>
        <time>2019-06-22T14:08:38Z</time>
      </trkpt>
      <trkpt lat="41.539705" lon="-7.253633">
        <ele>263.239</ele>
        <time>2019-06-22T14:08:39Z</time>
      </trkpt>
      <trkpt lat="41.539470" lon="-7.253453">
        <ele>262.057</ele>
        <time>2019-06-22T14:08:40Z</time>
      </trkpt>
      <trkpt lat="41.539241" lon="-7.253261">
        <ele>261.726</ele>
        <time>2019-06-22T14:08:41Z</time>
      </trkpt>
      <trkpt lat="41.539014" lon="-7.253076">
        <ele>261.041</ele>
        <time>2019-06-22T14:08:42Z</time>
      </trkpt>
      <trkpt lat="41.538782" lon="-7.252887">
        <ele>259.254</ele>
        <time>2019-06-22T14:08:43Z</time>
      </trkpt>
      <trkpt lat="41.538555" lon="-7.252700">
        <ele>257.515</ele>
        <time>2019-06-22T14:08:44Z</time>
      </trkpt>
      <trkpt lat="41.538323" lon="-7.252521">
        <ele>256.265</ele>
        <time>2019-06-22T14:08:45Z</time>
      </trkpt>
      <trkpt lat="41.538089" lon="-7.252332">
        <ele>256.211</ele>
        <time>2019-06-22T14:08:46Z</time>
      </trkpt>
      <trkpt lat="41.537857" lon="-7.252147">
        <ele>254.608</ele>
        <time>2019-06-22T14:08:47Z</time>
      </trkpt>
      <trkpt lat="41.537628" lon="-7.251966">
        <ele>254.064</ele>
        <time>2019-06-22T14:08:48Z</time>
      </trkpt>
      <trkpt lat="41.537398" lon="-7.251775">
        <ele>253.768</ele>
        <time>2019-06-22T14:08:49Z</time>
      </trkpt>
      <trkpt lat="41.537176" lon="-7.251580">
        <ele>252.660</ele>
        <time>2019-06-22T14:08:50Z</time>
      </trkpt>
      <trkpt lat="41.536947" lon="-7.251379">
        <ele>251.512</ele>
        <time>2019-06-22T14:08:51Z</time>
      </trkpt>
      <trkpt lat="41.536730" lon="-7.251167">
        <ele>250.140</ele>
        <time>2019-06-22T14:08:52Z</time>
      </trkpt>
      <trkpt lat="41.536523" lon="-7.250946">
        <ele>248.249</ele>
        <time>2019-06-22T14:08:53Z</time>
      </trkpt>
      <trkpt lat="41.536321" lon="-7.250707">
        <ele>248.294</ele>
        <time>2019-06-22T14:08:54Z</time>
      </trkpt>
      <trkpt lat="41.536133" lon="-7.250455">
        <ele>249.197</ele>
        <time>2019-06-22T14:08:55Z</time>
      </trkpt>
      <trkpt lat="41.535952" lon="-7.250187">
        <ele>250.159</ele>
        <time>2019-06-22T14:08:56Z</time>
      </trkpt>
      <trkpt lat="41.535776" lon="-7.249919">
        <ele>251.203</ele>
        <time>2019-06-22T14:08:57Z</time>
      </trkpt>
      <trkpt lat="41.535616" lon="-7.249650">
        <ele>252.823</ele>
        <time>2019-06-22T14:08:58Z</time>
      </trkpt>
      <trkpt lat="41.535463" lon="-7.249357">
        <ele>253.708</ele>
        <time>2019-06-22T14:08:59Z</time>
      </trkpt>
      <trkpt lat="41.535329" lon="-7.249068">
        <ele>255.488</ele>
        <time>2019-06-22T14:09:00Z</time>
      </trkpt>
      <trkpt lat="41.535196" lon="-7.248773">
        <ele>255.452</ele>
        <time>2019-06-22T14:09:01Z</time>
      </trkpt>
      <trkpt lat="41.535068" lon="-7.248484">
        <ele>256.154</ele>
        <time>2019-06-22T14:09:02Z</time>
      </trkpt>
      <trkpt lat="41.534933" lon="-7.248191">
        <ele>257.636</ele>
        <time>2019-06-22T14:09:03Z</time>
      </trkpt>
      <trkpt lat="41.534806" lon="-7.247902">
        <ele>258.984</ele>
        <time>2019-06-22T14:09:04Z</time>
      </trkpt>
      <trkpt lat="41.534674" lon="-7.247618">
        <ele>260.043</ele>
        <time>2019-06-22T14:09:05Z</time>
      </trkpt>
      <trkpt lat="41.534546" lon="-7.247346">
        <ele>260.968</ele>
        <time>2019-06-22T14:09:06Z</time>
      </trkpt>
      <trkpt lat="41.534421" lon="-7.247080">
        <ele>262.851</ele>
        <time>2019-06-22T14:09:07Z</time>
      </trkpt>
      <trkpt lat="41.534293" lon="-7.246798">
        <ele>263.396</ele>
        <time>2019-06-22T14:09:08Z</time>
      </trkpt>
      <trkpt lat="41.534160" lon="-7.246514">
        <ele>264.831</ele>
        <time>2019-06-22T14:09:09Z</time>
      </trkpt>
      <trkpt lat="41.534010" lon="-7.246248">
        <ele>267.024</ele>
        <time>2019-06-22T14:09:10Z</time>
      </trkpt>
      <trkpt lat="41.533865" lon="-7.245982">
        <ele>269.308</ele>
        <time>2019-06-22T14:09:11Z</time>
      </trkpt>
      <trkpt lat="41.533705" lon="-7.245733">
        <ele>270.072</ele>
        <time>2019-06-22T14:09:12Z</time>
      </trkpt>
      <trkpt lat="41.533547" lon="-7.245503">
        <ele>270.576</ele>
        <time>2019-06-22T14:09:13Z</time>
      </trkpt>
      <trkpt lat="41.533378" lon="-7.245277">
        <ele>272.738</ele>
        <time>2019-06-22T14:09:14Z</time>
      </trkpt>
      <trkpt lat="41.533196" lon="-7.245067">
        <ele>273.970</ele>
        <time>2019-06-22T14:09:15Z</time>
      </trkpt>
      <trkpt lat="41.533009" lon="-7.244864">
        <ele>274.958</ele>
        <time>2019-06-22T14:09:16Z</time>
      </trkpt>
      <trkpt lat="41.532813" lon="-7.244672">
        <ele>276.527</ele>
        <time>2019-06-22T14:09:17Z</time>
      </trkpt>
      <trkpt lat="41.532603" lon="-7.244505">
        <ele>279.292</ele>
        <time>2019-06-22T14:09:18Z</time>
      </trkpt>
      <trkpt lat="41.532387" lon="-7.244335">
        <ele>280.215</ele>
        <time>2019-06-22T14:09:19Z</time>
      </trkpt>
      <trkpt lat="41.532155" lon="-7.244182">
        <ele>280.789</ele>
        <time>2019-06-22T14:09:20Z</time>
      </trkpt>
      <trkpt lat="41.531922" lon="-7.244039">
        <ele>280.706</ele>
        <time>2019-06-22T14:09:21Z</time>
      </trkpt>
      <trkpt lat="41.531690" lon="-7.243918">
        <ele>280.726</ele>
        <time>2019-06-22T14:09:22Z</time>
      </trkpt>
      <trkpt lat="41.531461" lon="-7.243816">
        <ele>280.608</ele>
        <time>2019-06-22T14:09:23Z</time>
      </trkpt>
      <trkpt lat="41.531208" lon="-7.243732">
        <ele>280.231</ele>
        <time>2019-06-22T14:09:24Z</time>
      </trkpt>
      <trkpt lat="41.530956" lon="-7.243657">
        <ele>280.275</ele>
        <time>2019-06-22T14:09:25Z</time>
      </trkpt>
      <trkpt lat="41.530703" lon="-7.243588">
        <ele>280.237</ele>
        <time>2019-06-22T14:09:26Z</time>
      </trkpt>
      <trkpt lat="41.530443" lon="-7.243517">
        <ele>280.219</ele>
        <time>2019-06-22T14:09:27Z</time>
      </trkpt>
      <trkpt lat="41.530189" lon="-7.243452">
        <ele>280.627</ele>
        <time>2019-06-22T14:09:28Z</time>
      </trkpt>
      <trkpt lat="41.529932" lon="-7.243379">
        <ele>280.956</ele>
        <time>2019-06-22T14:09:29Z</time>
      </trkpt>
      <trkpt lat="41.529674" lon="-7.243315">
        <ele>280.951</ele>
        <time>2019-06-22T14:09:30Z</time>
      </trkpt>
      <trkpt lat="41.529411" lon="-7.243263">
        <ele>281.294</ele>
        <time>2019-06-22T14:09:31Z</time>
      </trkpt>
      <trkpt lat="41.529152" lon="-7.243200">
        <ele>281.852</ele>
        <time>2019-06-22T14:09:32Z</time>
      </trkpt>
      <trkpt lat="41.528896" lon="-7.243133">
        <ele>282.653</ele>
        <time>2019-06-22T14:09:33Z</time>
      </trkpt>
      <trkpt lat="41.528652" lon="-7.243058">
        <ele>282.808</ele>
        <time>2019-06-22T14:09:34Z</time>
      </trkpt>
      <trkpt lat="41.528390" lon="-7.242985">
        <ele>283.208</ele>
        <time>2019-06-22T14:09:35Z</time>
      </trkpt>
      <trkpt lat="41.528140" lon="-7.242915">
        <ele>283.898</ele>
        <time>2019-06-22T14:09:36Z</time>
      </trkpt>
      <trkpt lat="41.527891" lon="-7.242848">
        <ele>284.182</ele>
        <time>2019-06-22T14:09:37Z</time>
      </trkpt>
      <trkpt lat="41.527641" lon="-7.242778">
        <ele>284.224</ele>
        <time>2019-06-22T14:09:38Z</time>
      </trkpt>
      <trkpt lat="41.527382" lon="-7.242713">
        <ele>284.146</ele>
        <time>2019-06-22T14:09:39Z</time>
      </trkpt>
      <trkpt lat="41.527130" lon="-7.242642">
        <ele>283.214</ele>
        <time>2019-06-22T14:09:40Z</time>
      </trkpt>
      <trkpt lat="41.526862" lon="-7.242564">
        <ele>281.213</ele>
        <time>2019-06-22T14:09:41Z</time>
      </trkpt>
      <trkpt lat="41.526602" lon="-7.242486">
        <ele>278.328</ele>
        <time>2019-06-22T14:09:42Z</time>
      </trkpt>
      <trkpt lat="41.526323" lon="-7.242410">
        <ele>276.661</ele>
        <time>2019-06-22T14:09:43Z</time>
      </trkpt>
      <trkpt lat="41.526042" lon="-7.242339">
        <ele>274.816</ele>
        <time>2019-06-22T14:09:44Z</time>
      </trkpt>
      <trkpt lat="41.525761" lon="-7.242270">
        <ele>274.876</ele>
        <time>2019-06-22T14:09:45Z</time>
      </trkpt>
      <trkpt lat="41.525499" lon="-7.242227">
        <ele>275.013</ele>
        <time>2019-06-22T14:09:46Z</time>
      </trkpt>
      <trkpt lat="41.525218" lon="-7.242155">
        <ele>276.808</ele>
        <time>2019-06-22T14:09:47Z</time>
      </trkpt>
      <trkpt lat="41.524939" lon="-7.242083">
        <ele>276.814</ele>
        <time>2019-06-22T14:09:48Z</time>
      </trkpt>
      <trkpt lat="41.524657" lon="-7.241999">
        <ele>276.888</ele>
        <time>2019-06-22T14:09:49Z</time>
      </trkpt>
      <trkpt lat="41.524382" lon="-7.241915">
        <ele>276.840</ele>
        <time>2019-06-22T14:09:50Z</time>
      </trkpt>
      <trkpt lat="41.524092" lon="-7.241837">
        <ele>275.732</ele>
        <time>2019-06-22T14:09:51Z</time>
      </trkpt>
      <trkpt lat="41.523818" lon="-7.241755">
        <ele>273.820</ele>
        <time>2019-06-22T14:09:52Z</time>
      </trkpt>
      <trkpt lat="41.523545" lon="-7.241672">
        <ele>271.189</ele>
        <time>2019-06-22T14:09:53Z</time>
      </trkpt>
      <trkpt lat="41.523298" lon="-7.241633">
        <ele>268.374</ele>
        <time>2019-06-22T14:09:54Z</time>
      </trkpt>
      <trkpt lat="41.523023" lon="-7.241550">
        <ele>266.327</ele>
        <time>2019-06-22T14:09:55Z</time>
      </trkpt>
      <trkpt lat="41.522760" lon="-7.241459">
        <ele>265.679</ele>
        <time>2019-06-22T14:09:56Z</time>
      </trkpt>
      <trkpt lat="41.522503" lon="-7.241348">
        <ele>265.605</ele>
        <time>2019-06-22T14:09:57Z</time>
      </trkpt>
      <trkpt lat="41.522284" lon="-7.241224">
        <ele>265.925</ele>
        <time>2019-06-22T14:09:58Z</time>
      </trkpt>
      <trkpt lat="41.522042" lon="-7.241083">
        <ele>266.108</ele>
        <time>2019-06-22T14:09:59Z</time>
      </trkpt>
      <trkpt lat="41.521816" lon="-7.240928">
        <ele>266.120</ele>
        <time>2019-06-22T14:10:00Z</time>
      </trkpt>
      <trkpt lat="41.521594" lon="-7.240759">
        <ele>265.284</ele>
        <time>2019-06-22T14:10:01Z</time>
      </trkpt>
      <trkpt lat="41.521371" lon="-7.240589">
        <ele>264.796</ele>
        <time>2019-06-22T14:10:02Z</time>
      </trkpt>
      <trkpt lat="41.521167" lon="-7.240396">
        <ele>263.778</ele>
        <time>2019-06-22T14:10:03Z</time>
      </trkpt>
      <trkpt lat="41.520965" lon="-7.240184">
        <ele>263.746</ele>
        <time>2019-06-22T14:10:04Z</time>
      </trkpt>
      <trkpt lat="41.520781" lon="-7.239963">
        <ele>264.095</ele>
        <time>2019-06-22T14:10:05Z</time>
      </trkpt>
      <trkpt lat="41.520610" lon="-7.239727">
        <ele>266.680</ele>
        <time>2019-06-22T14:10:06Z</time>
      </trkpt>
      <trkpt lat="41.520434" lon="-7.239463">
        <ele>268.853</ele>
        <time>2019-06-22T14:10:07Z</time>
      </trkpt>
      <trkpt lat="41.520284" lon="-7.239188">
        <ele>271.048</ele>
        <time>2019-06-22T14:10:08Z</time>
      </trkpt>
      <trkpt lat="41.520137" lon="-7.238895">
        <ele>273.661</ele>
        <time>2019-06-22T14:10:09Z</time>
      </trkpt>
      <trkpt lat="41.520004" lon="-7.238601">
        <ele>275.717</ele>
        <time>2019-06-22T14:10:10Z</time>
      </trkpt>
      <trkpt lat="41.519877" lon="-7.238289">
        <ele>276.608</ele>
        <time>2019-06-22T14:10:11Z</time>
      </trkpt>
      <trkpt lat="41.519769" lon="-7.237969">
        <ele>276.967</ele>
        <time>2019-06-22T14:10:12Z</time>
      </trkpt>
      <trkpt lat="41.519674" lon="-7.237646">
        <ele>277.491</ele>
        <time>2019-06-22T14:10:13Z</time>
      </trkpt>
      <trkpt lat="41.519582" lon="-7.237321">
        <ele>277.513</ele>
        <time>2019-06-22T14:10:14Z</time>
      </trkpt>
      <trkpt lat="41.519519" lon="-7.237006">
        <ele>277.915</ele>
        <time>2019-06-22T14:10:15Z</time>
      </trkpt>
      <trkpt lat="41.519443" lon="-7.236677">
        <ele>278.513</ele>
        <time>2019-06-22T14:10:16Z</time>
      </trkpt>
      <trkpt lat="41.519383" lon="-7.236335">
        <ele>279.122</ele>
        <time>2019-06-22T14:10:17Z</time>
      </trkpt>
      <trkpt lat="41.519313" lon="-7.235993">
        <ele>279.517</ele>
        <time>2019-06-22T14:10:18Z</time>
      </trkpt>
      <trkpt lat="41.519246" lon="-7.235652">
        <ele>279.590</ele>
        <time>2019-06-22T14:10:19Z</time>
      </trkpt>
      <trkpt lat="41.519178" lon="-7.235311">
        <ele>278.317</ele>
        <time>2019-06-22T14:10:20Z</time>
      </trkpt>
      <trkpt lat="41.519112" lon="-7.234967">
        <ele>276.887</ele>
        <time>2019-06-22T14:10:21Z</time>
      </trkpt>
      <trkpt lat="41.519046" lon="-7.234620">
        <ele>276.015</ele>
        <time>2019-06-22T14:10:22Z</time>
      </trkpt>
      <trkpt lat="41.518975" lon="-7.234276">
        <ele>275.108</ele>
        <time>2019-06-22T14:10:23Z</time>
      </trkpt>
      <trkpt lat="41.518904" lon="-7.233932">
        <ele>275.114</ele>
        <time>2019-06-22T14:10:24Z</time>
      </trkpt>
      <trkpt lat="41.518834" lon="-7.233593">
        <ele>276.068</ele>
        <time>2019-06-22T14:10:25Z</time>
      </trkpt>
      <trkpt lat="41.518773" lon="-7.233253">
        <ele>276.820</ele>
        <time>2019-06-22T14:10:26Z</time>
      </trkpt>
      <trkpt lat="41.518713" lon="-7.232909">
        <ele>276.812</ele>
        <time>2019-06-22T14:10:27Z</time>
      </trkpt>
      <trkpt lat="41.518652" lon="-7.232570">
        <ele>276.210</ele>
        <time>2019-06-22T14:10:28Z</time>
      </trkpt>
      <trkpt lat="41.518577" lon="-7.232229">
        <ele>276.149</ele>
        <time>2019-06-22T14:10:29Z</time>
      </trkpt>
      <trkpt lat="41.518505" lon="-7.231895">
        <ele>275.014</ele>
        <time>2019-06-22T14:10:30Z</time>
      </trkpt>
      <trkpt lat="41.518429" lon="-7.231557">
        <ele>273.717</ele>
        <time>2019-06-22T14:10:31Z</time>
      </trkpt>
      <trkpt lat="41.518350" lon="-7.231220">
        <ele>272.757</ele>
        <time>2019-06-22T14:10:32Z</time>
      </trkpt>
      <trkpt lat="41.518274" lon="-7.230889">
        <ele>271.400</ele>
        <time>2019-06-22T14:10:33Z</time>
      </trkpt>
      <trkpt lat="41.518185" lon="-7.230566">
        <ele>269.920</ele>
        <time>2019-06-22T14:10:34Z</time>
      </trkpt>
      <trkpt lat="41.518084" lon="-7.230253">
        <ele>269.908</ele>
        <time>2019-06-22T14:10:35Z</time>
      </trkpt>
      <trkpt lat="41.517942" lon="-7.230001">
        <ele>270.348</ele>
        <time>2019-06-22T14:10:36Z</time>
      </trkpt>
      <trkpt lat="41.517804" lon="-7.229756">
        <ele>271.652</ele>
        <time>2019-06-22T14:10:37Z</time>
      </trkpt>
      <trkpt lat="41.517677" lon="-7.229508">
        <ele>272.984</ele>
        <time>2019-06-22T14:10:38Z</time>
      </trkpt>
      <trkpt lat="41.517529" lon="-7.229272">
        <ele>273.786</ele>
        <time>2019-06-22T14:10:39Z</time>
      </trkpt>
      <trkpt lat="41.517380" lon="-7.229059">
        <ele>273.754</ele>
        <time>2019-06-22T14:10:40Z</time>
      </trkpt>
      <trkpt lat="41.517229" lon="-7.228847">
        <ele>272.523</ele>
        <time>2019-06-22T14:10:41Z</time>
      </trkpt>
      <trkpt lat="41.517070" lon="-7.228637">
        <ele>271.348</ele>
        <time>2019-06-22T14:10:42Z</time>
      </trkpt>
      <trkpt lat="41.516901" lon="-7.228421">
        <ele>269.341</ele>
        <time>2019-06-22T14:10:43Z</time>
      </trkpt>
      <trkpt lat="41.516729" lon="-7.228237">
        <ele>267.719</ele>
        <time>2019-06-22T14:10:44Z</time>
      </trkpt>
      <trkpt lat="41.516543" lon="-7.228061">
        <ele>266.209</ele>
        <time>2019-06-22T14:10:45Z</time>
      </trkpt>
      <trkpt lat="41.516346" lon="-7.227889">
        <ele>265.719</ele>
        <time>2019-06-22T14:10:46Z</time>
      </trkpt>
      <trkpt lat="41.516131" lon="-7.227722">
        <ele>264.708</ele>
        <time>2019-06-22T14:10:47Z</time>
      </trkpt>
      <trkpt lat="41.515911" lon="-7.227566">
        <ele>263.364</ele>
        <time>2019-06-22T14:10:48Z</time>
      </trkpt>
      <trkpt lat="41.515676" lon="-7.227428">
        <ele>262.538</ele>
        <time>2019-06-22T14:10:49Z</time>
      </trkpt>
      <trkpt lat="41.515440" lon="-7.227317">
        <ele>261.150</ele>
        <time>2019-06-22T14:10:50Z</time>
      </trkpt>
      <trkpt lat="41.515194" lon="-7.227212">
        <ele>259.122</ele>
        <time>2019-06-22T14:10:51Z</time>
      </trkpt>
      <trkpt lat="41.514947" lon="-7.227132">
        <ele>256.880</ele>
        <time>2019-06-22T14:10:52Z</time>
      </trkpt>
      <trkpt lat="41.514695" lon="-7.227061">
        <ele>256.869</ele>
        <time>2019-06-22T14:10:53Z</time>
      </trkpt>
      <trkpt lat="41.514437" lon="-7.227004">
        <ele>255.544</ele>
        <time>2019-06-22T14:10:54Z</time>
      </trkpt>
      <trkpt lat="41.514180" lon="-7.226975">
        <ele>253.477</ele>
        <time>2019-06-22T14:10:55Z</time>
      </trkpt>
      <trkpt lat="41.513923" lon="-7.226966">
        <ele>252.114</ele>
        <time>2019-06-22T14:10:56Z</time>
      </trkpt>
      <trkpt lat="41.513665" lon="-7.226985">
        <ele>250.854</ele>
        <time>2019-06-22T14:10:57Z</time>
      </trkpt>
      <trkpt lat="41.513418" lon="-7.227020">
        <ele>249.609</ele>
        <time>2019-06-22T14:10:58Z</time>
      </trkpt>
      <trkpt lat="41.513166" lon="-7.227066">
        <ele>249.308</ele>
        <time>2019-06-22T14:10:59Z</time>
      </trkpt>
      <trkpt lat="41.512914" lon="-7.227144">
        <ele>249.364</ele>
        <time>2019-06-22T14:11:00Z</time>
      </trkpt>
      <trkpt lat="41.512663" lon="-7.227223">
        <ele>249.688</ele>
        <time>2019-06-22T14:11:01Z</time>
      </trkpt>
      <trkpt lat="41.512412" lon="-7.227310">
        <ele>250.080</ele>
        <time>2019-06-22T14:11:02Z</time>
      </trkpt>
      <trkpt lat="41.512160" lon="-7.227402">
        <ele>250.812</ele>
        <time>2019-06-22T14:11:03Z</time>
      </trkpt>
      <trkpt lat="41.511914" lon="-7.227487">
        <ele>251.230</ele>
        <time>2019-06-22T14:11:04Z</time>
      </trkpt>
      <trkpt lat="41.511663" lon="-7.227567">
        <ele>251.639</ele>
        <time>2019-06-22T14:11:05Z</time>
      </trkpt>
      <trkpt lat="41.511415" lon="-7.227649">
        <ele>252.134</ele>
        <time>2019-06-22T14:11:06Z</time>
      </trkpt>
      <trkpt lat="41.511174" lon="-7.227735">
        <ele>252.817</ele>
        <time>2019-06-22T14:11:07Z</time>
      </trkpt>
      <trkpt lat="41.510934" lon="-7.227823">
        <ele>252.933</ele>
        <time>2019-06-22T14:11:08Z</time>
      </trkpt>
      <trkpt lat="41.510695" lon="-7.227916">
        <ele>253.523</ele>
        <time>2019-06-22T14:11:09Z</time>
      </trkpt>
      <trkpt lat="41.510456" lon="-7.228000">
        <ele>253.515</ele>
        <time>2019-06-22T14:11:10Z</time>
      </trkpt>
      <trkpt lat="41.510220" lon="-7.228082">
        <ele>253.108</ele>
        <time>2019-06-22T14:11:11Z</time>
      </trkpt>
      <trkpt lat="41.509983" lon="-7.228166">
        <ele>253.116</ele>
        <time>2019-06-22T14:11:12Z</time>
      </trkpt>
      <trkpt lat="41.509748" lon="-7.228252">
        <ele>252.740</ele>
        <time>2019-06-22T14:11:13Z</time>
      </trkpt>
      <trkpt lat="41.509515" lon="-7.228339">
        <ele>252.742</ele>
        <time>2019-06-22T14:11:14Z</time>
      </trkpt>
      <trkpt lat="41.509277" lon="-7.228422">
        <ele>252.814</ele>
        <time>2019-06-22T14:11:15Z</time>
      </trkpt>
      <trkpt lat="41.509044" lon="-7.228508">
        <ele>254.492</ele>
        <time>2019-06-22T14:11:16Z</time>
      </trkpt>
      <trkpt lat="41.508806" lon="-7.228592">
        <ele>255.241</ele>
        <time>2019-06-22T14:11:17Z</time>
      </trkpt>
      <trkpt lat="41.508572" lon="-7.228682">
        <ele>258.316</ele>
        <time>2019-06-22T14:11:18Z</time>
      </trkpt>
      <trkpt lat="41.508341" lon="-7.228765">
        <ele>261.319</ele>
        <time>2019-06-22T14:11:19Z</time>
      </trkpt>
      <trkpt lat="41.508105" lon="-7.228850">
        <ele>264.185</ele>
        <time>2019-06-22T14:11:20Z</time>
      </trkpt>
      <trkpt lat="41.507874" lon="-7.228936">
        <ele>265.489</ele>
        <time>2019-06-22T14:11:21Z</time>
      </trkpt>
      <trkpt lat="41.507638" lon="-7.229018">
        <ele>267.217</ele>
        <time>2019-06-22T14:11:22Z</time>
      </trkpt>
      <trkpt lat="41.507401" lon="-7.229100">
        <ele>268.608</ele>
        <time>2019-06-22T14:11:23Z</time>
      </trkpt>
      <trkpt lat="41.507166" lon="-7.229179">
        <ele>269.351</ele>
        <time>2019-06-22T14:11:24Z</time>
      </trkpt>
      <trkpt lat="41.506938" lon="-7.229261">
        <ele>269.835</ele>
        <time>2019-06-22T14:11:25Z</time>
      </trkpt>
      <trkpt lat="41.506723" lon="-7.229337">
        <ele>270.677</ele>
        <time>2019-06-22T14:11:26Z</time>
      </trkpt>
      <trkpt lat="41.506518" lon="-7.229417">
        <ele>271.639</ele>
        <time>2019-06-22T14:11:27Z</time>
      </trkpt>
      <trkpt lat="41.506305" lon="-7.229492">
        <ele>272.547</ele>
        <time>2019-06-22T14:11:28Z</time>
      </trkpt>
      <trkpt lat="41.506091" lon="-7.229573">
        <ele>272.886</ele>
        <time>2019-06-22T14:11:29Z</time>
      </trkpt>
      <trkpt lat="41.505879" lon="-7.229660">
        <ele>272.851</ele>
        <time>2019-06-22T14:11:30Z</time>
      </trkpt>
      <trkpt lat="41.505651" lon="-7.229736">
        <ele>272.814</ele>
        <time>2019-06-22T14:11:31Z</time>
      </trkpt>
      <trkpt lat="41.505412" lon="-7.229817">
        <ele>273.318</ele>
        <time>2019-06-22T14:11:32Z</time>
      </trkpt>
      <trkpt lat="41.505178" lon="-7.229898">
        <ele>273.398</ele>
        <time>2019-06-22T14:11:33Z</time>
      </trkpt>
      <trkpt lat="41.504935" lon="-7.229979">
        <ele>273.217</ele>
        <time>2019-06-22T14:11:34Z</time>
      </trkpt>
      <trkpt lat="41.504702" lon="-7.230060">
        <ele>273.108</ele>
        <time>2019-06-22T14:11:35Z</time>
      </trkpt>
      <trkpt lat="41.504474" lon="-7.230152">
        <ele>273.214</ele>
        <time>2019-06-22T14:11:36Z</time>
      </trkpt>
      <trkpt lat="41.504235" lon="-7.230227">
        <ele>273.488</ele>
        <time>2019-06-22T14:11:37Z</time>
      </trkpt>
      <trkpt lat="41.503993" lon="-7.230314">
        <ele>274.180</ele>
        <time>2019-06-22T14:11:38Z</time>
      </trkpt>
      <trkpt lat="41.503747" lon="-7.230402">
        <ele>275.392</ele>
        <time>2019-06-22T14:11:39Z</time>
      </trkpt>
      <trkpt lat="41.503500" lon="-7.230486">
        <ele>277.860</ele>
        <time>2019-06-22T14:11:40Z</time>
      </trkpt>
      <trkpt lat="41.503265" lon="-7.230585">
        <ele>279.889</ele>
        <time>2019-06-22T14:11:41Z</time>
      </trkpt>
      <trkpt lat="41.503027" lon="-7.230664">
        <ele>280.434</ele>
        <time>2019-06-22T14:11:42Z</time>
      </trkpt>
      <trkpt lat="41.502785" lon="-7.230741">
        <ele>281.817</ele>
        <time>2019-06-22T14:11:43Z</time>
      </trkpt>
      <trkpt lat="41.502545" lon="-7.230806">
        <ele>283.214</ele>
        <time>2019-06-22T14:11:44Z</time>
      </trkpt>
      <trkpt lat="41.502311" lon="-7.230847">
        <ele>284.354</ele>
        <time>2019-06-22T14:11:45Z</time>
      </trkpt>
      <trkpt lat="41.502062" lon="-7.230883">
        <ele>286.309</ele>
        <time>2019-06-22T14:11:46Z</time>
      </trkpt>
      <trkpt lat="41.501814" lon="-7.230897">
        <ele>288.108</ele>
        <time>2019-06-22T14:11:47Z</time>
      </trkpt>
      <trkpt lat="41.501564" lon="-7.230890">
        <ele>289.914</ele>
        <time>2019-06-22T14:11:48Z</time>
      </trkpt>
      <trkpt lat="41.501316" lon="-7.230846">
        <ele>290.868</ele>
        <time>2019-06-22T14:11:49Z</time>
      </trkpt>
      <trkpt lat="41.501069" lon="-7.230794">
        <ele>292.330</ele>
        <time>2019-06-22T14:11:50Z</time>
      </trkpt>
      <trkpt lat="41.500830" lon="-7.230741">
        <ele>293.422</ele>
        <time>2019-06-22T14:11:51Z</time>
      </trkpt>
      <trkpt lat="41.500591" lon="-7.230671">
        <ele>294.520</ele>
        <time>2019-06-22T14:11:52Z</time>
      </trkpt>
      <trkpt lat="41.500371" lon="-7.230582">
        <ele>295.349</ele>
        <time>2019-06-22T14:11:53Z</time>
      </trkpt>
      <trkpt lat="41.500134" lon="-7.230501">
        <ele>295.674</ele>
        <time>2019-06-22T14:11:54Z</time>
      </trkpt>
      <trkpt lat="41.499893" lon="-7.230421">
        <ele>295.817</ele>
        <time>2019-06-22T14:11:55Z</time>
      </trkpt>
      <trkpt lat="41.499643" lon="-7.230342">
        <ele>296.459</ele>
        <time>2019-06-22T14:11:56Z</time>
      </trkpt>
      <trkpt lat="41.499397" lon="-7.230274">
        <ele>296.403</ele>
        <time>2019-06-22T14:11:57Z</time>
      </trkpt>
      <trkpt lat="41.499150" lon="-7.230202">
        <ele>296.823</ele>
        <time>2019-06-22T14:11:58Z</time>
      </trkpt>
      <trkpt lat="41.498903" lon="-7.230128">
        <ele>297.508</ele>
        <time>2019-06-22T14:11:59Z</time>
      </trkpt>
      <trkpt lat="41.498657" lon="-7.230059">
        <ele>299.178</ele>
        <time>2019-06-22T14:12:00Z</time>
      </trkpt>
      <trkpt lat="41.498411" lon="-7.229991">
        <ele>300.532</ele>
        <time>2019-06-22T14:12:01Z</time>
      </trkpt>
      <trkpt lat="41.498164" lon="-7.229927">
        <ele>301.634</ele>
        <time>2019-06-22T14:12:02Z</time>
      </trkpt>
      <trkpt lat="41.497916" lon="-7.229859">
        <ele>303.396</ele>
        <time>2019-06-22T14:12:03Z</time>
      </trkpt>
      <trkpt lat="41.497674" lon="-7.229787">
        <ele>304.884</ele>
        <time>2019-06-22T14:12:04Z</time>
      </trkpt>
      <trkpt lat="41.497428" lon="-7.229695">
        <ele>306.223</ele>
        <time>2019-06-22T14:12:05Z</time>
      </trkpt>
      <trkpt lat="41.497189" lon="-7.229601">
        <ele>307.798</ele>
        <time>2019-06-22T14:12:06Z</time>
      </trkpt>
      <trkpt lat="41.496950" lon="-7.229509">
        <ele>309.341</ele>
        <time>2019-06-22T14:12:07Z</time>
      </trkpt>
      <trkpt lat="41.496727" lon="-7.229409">
        <ele>310.461</ele>
        <time>2019-06-22T14:12:08Z</time>
      </trkpt>
      <trkpt lat="41.496499" lon="-7.229338">
        <ele>311.721</ele>
        <time>2019-06-22T14:12:09Z</time>
      </trkpt>
      <trkpt lat="41.496280" lon="-7.229237">
        <ele>312.713</ele>
        <time>2019-06-22T14:12:10Z</time>
      </trkpt>
      <trkpt lat="41.496049" lon="-7.229136">
        <ele>313.808</ele>
        <time>2019-06-22T14:12:11Z</time>
      </trkpt>
      <trkpt lat="41.495830" lon="-7.229032">
        <ele>315.079</ele>
        <time>2019-06-22T14:12:12Z</time>
      </trkpt>
      <trkpt lat="41.495609" lon="-7.228927">
        <ele>316.073</ele>
        <time>2019-06-22T14:12:13Z</time>
      </trkpt>
      <trkpt lat="41.495387" lon="-7.228810">
        <ele>316.895</ele>
        <time>2019-06-22T14:12:14Z</time>
      </trkpt>
      <trkpt lat="41.495163" lon="-7.228699">
        <ele>317.697</ele>
        <time>2019-06-22T14:12:15Z</time>
      </trkpt>
      <trkpt lat="41.494938" lon="-7.228579">
        <ele>318.525</ele>
        <time>2019-06-22T14:12:16Z</time>
      </trkpt>
      <trkpt lat="41.494726" lon="-7.228474">
        <ele>319.324</ele>
        <time>2019-06-22T14:12:17Z</time>
      </trkpt>
      <trkpt lat="41.494512" lon="-7.228352">
        <ele>319.329</ele>
        <time>2019-06-22T14:12:18Z</time>
      </trkpt>
      <trkpt lat="41.494298" lon="-7.228224">
        <ele>319.182</ele>
        <time>2019-06-22T14:12:19Z</time>
      </trkpt>
      <trkpt lat="41.494081" lon="-7.228096">
        <ele>319.192</ele>
        <time>2019-06-22T14:12:20Z</time>
      </trkpt>
      <trkpt lat="41.493869" lon="-7.227956">
        <ele>319.873</ele>
        <time>2019-06-22T14:12:21Z</time>
      </trkpt>
      <trkpt lat="41.493674" lon="-7.227851">
        <ele>320.820</ele>
        <time>2019-06-22T14:12:22Z</time>
      </trkpt>
      <trkpt lat="41.493465" lon="-7.227714">
        <ele>322.408</ele>
        <time>2019-06-22T14:12:23Z</time>
      </trkpt>
      <trkpt lat="41.493261" lon="-7.227585">
        <ele>324.892</ele>
        <time>2019-06-22T14:12:24Z</time>
      </trkpt>
      <trkpt lat="41.493051" lon="-7.227442">
        <ele>327.266</ele>
        <time>2019-06-22T14:12:25Z</time>
      </trkpt>
      <trkpt lat="41.492848" lon="-7.227293">
        <ele>328.848</ele>
        <time>2019-06-22T14:12:26Z</time>
      </trkpt>
      <trkpt lat="41.492643" lon="-7.227151">
        <ele>330.160</ele>
        <time>2019-06-22T14:12:27Z</time>
      </trkpt>
      <trkpt lat="41.492434" lon="-7.226993">
        <ele>330.918</ele>
        <time>2019-06-22T14:12:28Z</time>
      </trkpt>
      <trkpt lat="41.492229" lon="-7.226841">
        <ele>331.937</ele>
        <time>2019-06-22T14:12:29Z</time>
      </trkpt>
      <trkpt lat="41.492021" lon="-7.226678">
        <ele>332.712</ele>
        <time>2019-06-22T14:12:30Z</time>
      </trkpt>
      <trkpt lat="41.491827" lon="-7.226512">
        <ele>333.325</ele>
        <time>2019-06-22T14:12:31Z</time>
      </trkpt>
      <trkpt lat="41.491631" lon="-7.226343">
        <ele>333.813</ele>
        <time>2019-06-22T14:12:32Z</time>
      </trkpt>
      <trkpt lat="41.491437" lon="-7.226170">
        <ele>333.843</ele>
        <time>2019-06-22T14:12:33Z</time>
      </trkpt>
      <trkpt lat="41.491238" lon="-7.225994">
        <ele>333.407</ele>
        <time>2019-06-22T14:12:34Z</time>
      </trkpt>
      <trkpt lat="41.491034" lon="-7.225808">
        <ele>333.408</ele>
        <time>2019-06-22T14:12:35Z</time>
      </trkpt>
      <trkpt lat="41.490826" lon="-7.225625">
        <ele>333.984</ele>
        <time>2019-06-22T14:12:36Z</time>
      </trkpt>
      <trkpt lat="41.490627" lon="-7.225452">
        <ele>334.998</ele>
        <time>2019-06-22T14:12:37Z</time>
      </trkpt>
      <trkpt lat="41.490433" lon="-7.225280">
        <ele>336.060</ele>
        <time>2019-06-22T14:12:38Z</time>
      </trkpt>
      <trkpt lat="41.490238" lon="-7.225108">
        <ele>338.662</ele>
        <time>2019-06-22T14:12:39Z</time>
      </trkpt>
      <trkpt lat="41.490040" lon="-7.224932">
        <ele>340.580</ele>
        <time>2019-06-22T14:12:40Z</time>
      </trkpt>
      <trkpt lat="41.489846" lon="-7.224752">
        <ele>342.139</ele>
        <time>2019-06-22T14:12:41Z</time>
      </trkpt>
      <trkpt lat="41.489651" lon="-7.224584">
        <ele>343.054</ele>
        <time>2019-06-22T14:12:42Z</time>
      </trkpt>
      <trkpt lat="41.489448" lon="-7.224420">
        <ele>344.177</ele>
        <time>2019-06-22T14:12:43Z</time>
      </trkpt>
      <trkpt lat="41.489240" lon="-7.224261">
        <ele>345.154</ele>
        <time>2019-06-22T14:12:44Z</time>
      </trkpt>
      <trkpt lat="41.489024" lon="-7.224130">
        <ele>346.356</ele>
        <time>2019-06-22T14:12:45Z</time>
      </trkpt>
      <trkpt lat="41.488818" lon="-7.224008">
        <ele>347.211</ele>
        <time>2019-06-22T14:12:46Z</time>
      </trkpt>
      <trkpt lat="41.488600" lon="-7.223912">
        <ele>347.808</ele>
        <time>2019-06-22T14:12:47Z</time>
      </trkpt>
      <trkpt lat="41.488378" lon="-7.223828">
        <ele>347.898</ele>
        <time>2019-06-22T14:12:48Z</time>
      </trkpt>
      <trkpt lat="41.488152" lon="-7.223763">
        <ele>347.712</ele>
        <time>2019-06-22T14:12:49Z</time>
      </trkpt>
      <trkpt lat="41.487915" lon="-7.223706">
        <ele>347.724</ele>
        <time>2019-06-22T14:12:50Z</time>
      </trkpt>
      <trkpt lat="41.487683" lon="-7.223675">
        <ele>347.776</ele>
        <time>2019-06-22T14:12:51Z</time>
      </trkpt>
      <trkpt lat="41.487450" lon="-7.223673">
        <ele>348.374</ele>
        <time>2019-06-22T14:12:52Z</time>
      </trkpt>
      <trkpt lat="41.487222" lon="-7.223679">
        <ele>349.543</ele>
        <time>2019-06-22T14:12:53Z</time>
      </trkpt>
      <trkpt lat="41.486982" lon="-7.223698">
        <ele>351.638</ele>
        <time>2019-06-22T14:12:54Z</time>
      </trkpt>
      <trkpt lat="41.486750" lon="-7.223732">
        <ele>352.461</ele>
        <time>2019-06-22T14:12:55Z</time>
      </trkpt>
      <trkpt lat="41.486528" lon="-7.223769">
        <ele>354.058</ele>
        <time>2019-06-22T14:12:56Z</time>
      </trkpt>
      <trkpt lat="41.486302" lon="-7.223810">
        <ele>355.952</ele>
        <time>2019-06-22T14:12:57Z</time>
      </trkpt>
      <trkpt lat="41.486076" lon="-7.223851">
        <ele>357.317</ele>
        <time>2019-06-22T14:12:58Z</time>
      </trkpt>
      <trkpt lat="41.485850" lon="-7.223888">
        <ele>358.408</ele>
        <time>2019-06-22T14:12:59Z</time>
      </trkpt>
      <trkpt lat="41.485628" lon="-7.223925">
        <ele>359.738</ele>
        <time>2019-06-22T14:13:00Z</time>
      </trkpt>
      <trkpt lat="41.485401" lon="-7.223961">
        <ele>360.122</ele>
        <time>2019-06-22T14:13:01Z</time>
      </trkpt>
      <trkpt lat="41.485171" lon="-7.224011">
        <ele>360.144</ele>
        <time>2019-06-22T14:13:02Z</time>
      </trkpt>
      <trkpt lat="41.484944" lon="-7.224056">
        <ele>360.986</ele>
        <time>2019-06-22T14:13:03Z</time>
      </trkpt>
      <trkpt lat="41.484705" lon="-7.224094">
        <ele>361.654</ele>
        <time>2019-06-22T14:13:04Z</time>
      </trkpt>
      <trkpt lat="41.484468" lon="-7.224135">
        <ele>362.383</ele>
        <time>2019-06-22T14:13:05Z</time>
      </trkpt>
      <trkpt lat="41.484237" lon="-7.224177">
        <ele>363.168</ele>
        <time>2019-06-22T14:13:06Z</time>
      </trkpt>
      <trkpt lat="41.484014" lon="-7.224225">
        <ele>364.661</ele>
        <time>2019-06-22T14:13:07Z</time>
      </trkpt>
      <trkpt lat="41.483780" lon="-7.224272">
        <ele>365.997</ele>
        <time>2019-06-22T14:13:08Z</time>
      </trkpt>
      <trkpt lat="41.483548" lon="-7.224318">
        <ele>367.223</ele>
        <time>2019-06-22T14:13:09Z</time>
      </trkpt>
      <trkpt lat="41.483313" lon="-7.224359">
        <ele>368.525</ele>
        <time>2019-06-22T14:13:10Z</time>
      </trkpt>
      <trkpt lat="41.483085" lon="-7.224395">
        <ele>369.508</ele>
        <time>2019-06-22T14:13:11Z</time>
      </trkpt>
      <trkpt lat="41.482851" lon="-7.224431">
        <ele>370.462</ele>
        <time>2019-06-22T14:13:12Z</time>
      </trkpt>
      <trkpt lat="41.482621" lon="-7.224476">
        <ele>372.176</ele>
        <time>2019-06-22T14:13:13Z</time>
      </trkpt>
      <trkpt lat="41.482387" lon="-7.224517">
        <ele>373.168</ele>
        <time>2019-06-22T14:13:14Z</time>
      </trkpt>
      <trkpt lat="41.482155" lon="-7.224558">
        <ele>373.690</ele>
        <time>2019-06-22T14:13:15Z</time>
      </trkpt>
      <trkpt lat="41.481922" lon="-7.224593">
        <ele>374.588</ele>
        <time>2019-06-22T14:13:16Z</time>
      </trkpt>
      <trkpt lat="41.481687" lon="-7.224619">
        <ele>374.867</ele>
        <time>2019-06-22T14:13:17Z</time>
      </trkpt>
      <trkpt lat="41.481450" lon="-7.224633">
        <ele>375.092</ele>
        <time>2019-06-22T14:13:18Z</time>
      </trkpt>
      <trkpt lat="41.481216" lon="-7.224631">
        <ele>375.625</ele>
        <time>2019-06-22T14:13:19Z</time>
      </trkpt>
      <trkpt lat="41.480980" lon="-7.224602">
        <ele>377.684</ele>
        <time>2019-06-22T14:13:20Z</time>
      </trkpt>
      <trkpt lat="41.480750" lon="-7.224555">
        <ele>379.207</ele>
        <time>2019-06-22T14:13:21Z</time>
      </trkpt>
      <trkpt lat="41.480520" lon="-7.224491">
        <ele>381.417</ele>
        <time>2019-06-22T14:13:22Z</time>
      </trkpt>
      <trkpt lat="41.480296" lon="-7.224408">
        <ele>382.908</ele>
        <time>2019-06-22T14:13:23Z</time>
      </trkpt>
      <trkpt lat="41.480083" lon="-7.224300">
        <ele>384.051</ele>
        <time>2019-06-22T14:13:24Z</time>
      </trkpt>
      <trkpt lat="41.479882" lon="-7.224174">
        <ele>384.245</ele>
        <time>2019-06-22T14:13:25Z</time>
      </trkpt>
      <trkpt lat="41.479680" lon="-7.224034">
        <ele>384.757</ele>
        <time>2019-06-22T14:13:26Z</time>
      </trkpt>
      <trkpt lat="41.479492" lon="-7.223877">
        <ele>384.729</ele>
        <time>2019-06-22T14:13:27Z</time>
      </trkpt>
      <trkpt lat="41.479323" lon="-7.223732">
        <ele>384.577</ele>
        <time>2019-06-22T14:13:28Z</time>
      </trkpt>
      <trkpt lat="41.479141" lon="-7.223568">
        <ele>384.496</ele>
        <time>2019-06-22T14:13:29Z</time>
      </trkpt>
      <trkpt lat="41.478964" lon="-7.223418">
        <ele>383.961</ele>
        <time>2019-06-22T14:13:30Z</time>
      </trkpt>
      <trkpt lat="41.478805" lon="-7.223280">
        <ele>383.714</ele>
        <time>2019-06-22T14:13:31Z</time>
      </trkpt>
      <trkpt lat="41.478651" lon="-7.223151">
        <ele>382.879</ele>
        <time>2019-06-22T14:13:32Z</time>
      </trkpt>
      <trkpt lat="41.478519" lon="-7.223033">
        <ele>381.105</ele>
        <time>2019-06-22T14:13:33Z</time>
      </trkpt>
      <trkpt lat="41.478393" lon="-7.222921">
        <ele>380.325</ele>
        <time>2019-06-22T14:13:34Z</time>
      </trkpt>
      <trkpt lat="41.478281" lon="-7.222822">
        <ele>379.708</ele>
        <time>2019-06-22T14:13:35Z</time>
      </trkpt>
      <trkpt lat="41.478190" lon="-7.222792">
        <ele>379.740</ele>
        <time>2019-06-22T14:13:36Z</time>
      </trkpt>
      <trkpt lat="41.478097" lon="-7.222766">
        <ele>380.064</ele>
        <time>2019-06-22T14:13:37Z</time>
      </trkpt>
      <trkpt lat="41.478005" lon="-7.222751">
        <ele>380.326</ele>
        <time>2019-06-22T14:13:38Z</time>
      </trkpt>
      <trkpt lat="41.477918" lon="-7.222743">
        <ele>381.418</ele>
        <time>2019-06-22T14:13:39Z</time>
      </trkpt>
      <trkpt lat="41.477837" lon="-7.222725">
        <ele>382.756</ele>
        <time>2019-06-22T14:13:40Z</time>
      </trkpt>
      <trkpt lat="41.477764" lon="-7.222677">
        <ele>383.765</ele>
        <time>2019-06-22T14:13:41Z</time>
      </trkpt>
      <trkpt lat="41.477706" lon="-7.222606">
        <ele>384.380</ele>
        <time>2019-06-22T14:13:42Z</time>
      </trkpt>
      <trkpt lat="41.477657" lon="-7.222510">
        <ele>385.583</ele>
        <time>2019-06-22T14:13:43Z</time>
      </trkpt>
      <trkpt lat="41.477606" lon="-7.222378">
        <ele>385.882</ele>
        <time>2019-06-22T14:13:44Z</time>
      </trkpt>
      <trkpt lat="41.477544" lon="-7.222244">
        <ele>385.843</ele>
        <time>2019-06-22T14:13:45Z</time>
      </trkpt>
      <trkpt lat="41.477463" lon="-7.222123">
        <ele>385.017</ele>
        <time>2019-06-22T14:13:46Z</time>
      </trkpt>
      <trkpt lat="41.477366" lon="-7.222014">
        <ele>384.108</ele>
        <time>2019-06-22T14:13:47Z</time>
      </trkpt>
      <trkpt lat="41.477259" lon="-7.221902">
        <ele>383.561</ele>
        <time>2019-06-22T14:13:48Z</time>
      </trkpt>
      <trkpt lat="41.477143" lon="-7.221781">
        <ele>383.085</ele>
        <time>2019-06-22T14:13:49Z</time>
      </trkpt>
      <trkpt lat="41.477030" lon="-7.221656">
        <ele>383.017</ele>
        <time>2019-06-22T14:13:50Z</time>
      </trkpt>
      <trkpt lat="41.476909" lon="-7.221521">
        <ele>383.019</ele>
        <time>2019-06-22T14:13:51Z</time>
      </trkpt>
      <trkpt lat="41.476778" lon="-7.221383">
        <ele>382.827</ele>
        <time>2019-06-22T14:13:52Z</time>
      </trkpt>
      <trkpt lat="41.476660" lon="-7.221242">
        <ele>381.856</ele>
        <time>2019-06-22T14:13:53Z</time>
      </trkpt>
      <trkpt lat="41.476540" lon="-7.221105">
        <ele>381.421</ele>
        <time>2019-06-22T14:13:54Z</time>
      </trkpt>
      <trkpt lat="41.476445" lon="-7.220997">
        <ele>381.074</ele>
        <time>2019-06-22T14:13:55Z</time>
      </trkpt>
      <trkpt lat="41.476355" lon="-7.220912">
        <ele>380.488</ele>
        <time>2019-06-22T14:13:56Z</time>
      </trkpt>
      <trkpt lat="41.476251" lon="-7.220840">
        <ele>380.424</ele>
        <time>2019-06-22T14:13:57Z</time>
      </trkpt>
      <trkpt lat="41.476156" lon="-7.220789">
        <ele>380.426</ele>
        <time>2019-06-22T14:13:58Z</time>
      </trkpt>
      <trkpt lat="41.476071" lon="-7.220752">
        <ele>380.808</ele>
        <time>2019-06-22T14:13:59Z</time>
      </trkpt>
      <trkpt lat="41.475992" lon="-7.220697">
        <ele>380.841</ele>
        <time>2019-06-22T14:14:00Z</time>
      </trkpt>
      <trkpt lat="41.475936" lon="-7.220617">
        <ele>381.535</ele>
        <time>2019-06-22T14:14:01Z</time>
      </trkpt>
      <trkpt lat="41.475892" lon="-7.220515">
        <ele>382.677</ele>
        <time>2019-06-22T14:14:02Z</time>
      </trkpt>
      <trkpt lat="41.475858" lon="-7.220388">
        <ele>383.559</ele>
        <time>2019-06-22T14:14:03Z</time>
      </trkpt>
      <trkpt lat="41.475841" lon="-7.220241">
        <ele>384.027</ele>
        <time>2019-06-22T14:14:04Z</time>
      </trkpt>
      <trkpt lat="41.475804" lon="-7.220079">
        <ele>384.246</ele>
        <time>2019-06-22T14:14:05Z</time>
      </trkpt>
      <trkpt lat="41.475757" lon="-7.219900">
        <ele>384.241</ele>
        <time>2019-06-22T14:14:06Z</time>
      </trkpt>
      <trkpt lat="41.475712" lon="-7.219703">
        <ele>384.254</ele>
        <time>2019-06-22T14:14:07Z</time>
      </trkpt>
      <trkpt lat="41.475679" lon="-7.219500">
        <ele>383.721</ele>
        <time>2019-06-22T14:14:08Z</time>
      </trkpt>
      <trkpt lat="41.475663" lon="-7.219281">
        <ele>383.741</ele>
        <time>2019-06-22T14:14:09Z</time>
      </trkpt>
      <trkpt lat="41.475667" lon="-7.219074">
        <ele>383.805</ele>
        <time>2019-06-22T14:14:10Z</time>
      </trkpt>
      <trkpt lat="41.475686" lon="-7.218850">
        <ele>384.408</ele>
        <time>2019-06-22T14:14:11Z</time>
      </trkpt>
      <trkpt lat="41.475713" lon="-7.218614">
        <ele>385.325</ele>
        <time>2019-06-22T14:14:12Z</time>
      </trkpt>
      <trkpt lat="41.475776" lon="-7.218368">
        <ele>385.949</ele>
        <time>2019-06-22T14:14:13Z</time>
      </trkpt>
      <trkpt lat="41.475853" lon="-7.218140">
        <ele>385.941</ele>
        <time>2019-06-22T14:14:14Z</time>
      </trkpt>
      <trkpt lat="41.475945" lon="-7.217921">
        <ele>385.733</ele>
        <time>2019-06-22T14:14:15Z</time>
      </trkpt>
      <trkpt lat="41.476060" lon="-7.217699">
        <ele>384.831</ele>
        <time>2019-06-22T14:14:16Z</time>
      </trkpt>
      <trkpt lat="41.476177" lon="-7.217484">
        <ele>383.730</ele>
        <time>2019-06-22T14:14:17Z</time>
      </trkpt>
      <trkpt lat="41.476304" lon="-7.217268">
        <ele>381.965</ele>
        <time>2019-06-22T14:14:18Z</time>
      </trkpt>
      <trkpt lat="41.476449" lon="-7.217054">
        <ele>379.868</ele>
        <time>2019-06-22T14:14:19Z</time>
      </trkpt>
      <trkpt lat="41.476585" lon="-7.216836">
        <ele>375.771</ele>
        <time>2019-06-22T14:14:20Z</time>
      </trkpt>
      <trkpt lat="41.476730" lon="-7.216623">
        <ele>372.641</ele>
        <time>2019-06-22T14:14:21Z</time>
      </trkpt>
      <trkpt lat="41.476862" lon="-7.216415">
        <ele>369.415</ele>
        <time>2019-06-22T14:14:22Z</time>
      </trkpt>
      <trkpt lat="41.476980" lon="-7.216203">
        <ele>366.608</ele>
        <time>2019-06-22T14:14:23Z</time>
      </trkpt>
      <trkpt lat="41.477103" lon="-7.215999">
        <ele>366.450</ele>
        <time>2019-06-22T14:14:24Z</time>
      </trkpt>
      <trkpt lat="41.477230" lon="-7.215788">
        <ele>365.884</ele>
        <time>2019-06-22T14:14:25Z</time>
      </trkpt>
      <trkpt lat="41.477365" lon="-7.215593">
        <ele>364.896</ele>
        <time>2019-06-22T14:14:26Z</time>
      </trkpt>
      <trkpt lat="41.477508" lon="-7.215394">
        <ele>364.258</ele>
        <time>2019-06-22T14:14:27Z</time>
      </trkpt>
      <trkpt lat="41.477653" lon="-7.215213">
        <ele>364.136</ele>
        <time>2019-06-22T14:14:28Z</time>
      </trkpt>
      <trkpt lat="41.477815" lon="-7.215012">
        <ele>362.775</ele>
        <time>2019-06-22T14:14:29Z</time>
      </trkpt>
      <trkpt lat="41.477979" lon="-7.214829">
        <ele>361.720</ele>
        <time>2019-06-22T14:14:30Z</time>
      </trkpt>
      <trkpt lat="41.478146" lon="-7.214659">
        <ele>361.763</ele>
        <time>2019-06-22T14:14:31Z</time>
      </trkpt>
      <trkpt lat="41.478317" lon="-7.214485">
        <ele>361.763</ele>
        <time>2019-06-22T14:14:32Z</time>
      </trkpt>
      <trkpt lat="41.478493" lon="-7.214304">
        <ele>360.844</ele>
        <time>2019-06-22T14:14:33Z</time>
      </trkpt>
      <trkpt lat="41.478661" lon="-7.214136">
        <ele>360.418</ele>
        <time>2019-06-22T14:14:34Z</time>
      </trkpt>
      <trkpt lat="41.478823" lon="-7.213962">
        <ele>359.008</ele>
        <time>2019-06-22T14:14:35Z</time>
      </trkpt>
      <trkpt lat="41.478977" lon="-7.213807">
        <ele>356.949</ele>
        <time>2019-06-22T14:14:36Z</time>
      </trkpt>
      <trkpt lat="41.479140" lon="-7.213643">
        <ele>355.213</ele>
        <time>2019-06-22T14:14:37Z</time>
      </trkpt>
      <trkpt lat="41.479285" lon="-7.213477">
        <ele>354.375</ele>
        <time>2019-06-22T14:14:38Z</time>
      </trkpt>
      <trkpt lat="41.479444" lon="-7.213313">
        <ele>353.457</ele>
        <time>2019-06-22T14:14:39Z</time>
      </trkpt>
      <trkpt lat="41.479591" lon="-7.213156">
        <ele>353.125</ele>
        <time>2019-06-22T14:14:40Z</time>
      </trkpt>
      <trkpt lat="41.479730" lon="-7.213005">
        <ele>353.124</ele>
        <time>2019-06-22T14:14:41Z</time>
      </trkpt>
      <trkpt lat="41.479876" lon="-7.212857">
        <ele>353.119</ele>
        <time>2019-06-22T14:14:42Z</time>
      </trkpt>
      <trkpt lat="41.480006" lon="-7.212714">
        <ele>352.872</ele>
        <time>2019-06-22T14:14:43Z</time>
      </trkpt>
      <trkpt lat="41.480129" lon="-7.212551">
        <ele>352.481</ele>
        <time>2019-06-22T14:14:44Z</time>
      </trkpt>
      <trkpt lat="41.480219" lon="-7.212363">
        <ele>351.961</ele>
        <time>2019-06-22T14:14:45Z</time>
      </trkpt>
      <trkpt lat="41.480305" lon="-7.212182">
        <ele>351.517</ele>
        <time>2019-06-22T14:14:46Z</time>
      </trkpt>
      <trkpt lat="41.480382" lon="-7.211997">
        <ele>351.508</ele>
        <time>2019-06-22T14:14:47Z</time>
      </trkpt>
      <trkpt lat="41.480455" lon="-7.211818">
        <ele>351.131</ele>
        <time>2019-06-22T14:14:48Z</time>
      </trkpt>
      <trkpt lat="41.480534" lon="-7.211649">
        <ele>350.245</ele>
        <time>2019-06-22T14:14:49Z</time>
      </trkpt>
      <trkpt lat="41.480574" lon="-7.211484">
        <ele>349.537</ele>
        <time>2019-06-22T14:14:50Z</time>
      </trkpt>
      <trkpt lat="41.480594" lon="-7.211304">
        <ele>348.859</ele>
        <time>2019-06-22T14:14:51Z</time>
      </trkpt>
      <trkpt lat="41.480580" lon="-7.211137">
        <ele>347.957</ele>
        <time>2019-06-22T14:14:52Z</time>
      </trkpt>
      <trkpt lat="41.480540" lon="-7.210975">
        <ele>347.086</ele>
        <time>2019-06-22T14:14:53Z</time>
      </trkpt>
      <trkpt lat="41.480459" lon="-7.210812">
        <ele>346.631</ele>
        <time>2019-06-22T14:14:54Z</time>
      </trkpt>
      <trkpt lat="41.480375" lon="-7.210648">
        <ele>346.294</ele>
        <time>2019-06-22T14:14:55Z</time>
      </trkpt>
      <trkpt lat="41.480259" lon="-7.210485">
        <ele>345.845</ele>
        <time>2019-06-22T14:14:56Z</time>
      </trkpt>
      <trkpt lat="41.480160" lon="-7.210314">
        <ele>345.347</ele>
        <time>2019-06-22T14:14:57Z</time>
      </trkpt>
      <trkpt lat="41.480071" lon="-7.210141">
        <ele>344.711</ele>
        <time>2019-06-22T14:14:58Z</time>
      </trkpt>
      <trkpt lat="41.480009" lon="-7.209954">
        <ele>344.108</ele>
        <time>2019-06-22T14:14:59Z</time>
      </trkpt>
      <trkpt lat="41.479944" lon="-7.209767">
        <ele>343.897</ele>
        <time>2019-06-22T14:15:00Z</time>
      </trkpt>
      <trkpt lat="41.479920" lon="-7.209545">
        <ele>343.621</ele>
        <time>2019-06-22T14:15:01Z</time>
      </trkpt>
      <trkpt lat="41.479919" lon="-7.209328">
        <ele>343.113</ele>
        <time>2019-06-22T14:15:02Z</time>
      </trkpt>
      <trkpt lat="41.479928" lon="-7.209106">
        <ele>342.685</ele>
        <time>2019-06-22T14:15:03Z</time>
      </trkpt>
      <trkpt lat="41.479949" lon="-7.208882">
        <ele>342.223</ele>
        <time>2019-06-22T14:15:04Z</time>
      </trkpt>
      <trkpt lat="41.479987" lon="-7.208659">
        <ele>341.242</ele>
        <time>2019-06-22T14:15:05Z</time>
      </trkpt>
      <trkpt lat="41.480017" lon="-7.208419">
        <ele>339.827</ele>
        <time>2019-06-22T14:15:06Z</time>
      </trkpt>
      <trkpt lat="41.480035" lon="-7.208172">
        <ele>338.070</ele>
        <time>2019-06-22T14:15:07Z</time>
      </trkpt>
      <trkpt lat="41.480020" lon="-7.207925">
        <ele>335.594</ele>
        <time>2019-06-22T14:15:08Z</time>
      </trkpt>
      <trkpt lat="41.479994" lon="-7.207669">
        <ele>333.557</ele>
        <time>2019-06-22T14:15:09Z</time>
      </trkpt>
      <trkpt lat="41.479950" lon="-7.207416">
        <ele>331.222</ele>
        <time>2019-06-22T14:15:10Z</time>
      </trkpt>
      <trkpt lat="41.479890" lon="-7.207175">
        <ele>331.208</ele>
        <time>2019-06-22T14:15:11Z</time>
      </trkpt>
      <trkpt lat="41.479814" lon="-7.206943">
        <ele>328.542</ele>
        <time>2019-06-22T14:15:12Z</time>
      </trkpt>
      <trkpt lat="41.479735" lon="-7.206719">
        <ele>326.496</ele>
        <time>2019-06-22T14:15:13Z</time>
      </trkpt>
      <trkpt lat="41.479647" lon="-7.206494">
        <ele>325.348</ele>
        <time>2019-06-22T14:15:14Z</time>
      </trkpt>
      <trkpt lat="41.479561" lon="-7.206267">
        <ele>324.020</ele>
        <time>2019-06-22T14:15:15Z</time>
      </trkpt>
      <trkpt lat="41.479476" lon="-7.206037">
        <ele>321.778</ele>
        <time>2019-06-22T14:15:16Z</time>
      </trkpt>
      <trkpt lat="41.479387" lon="-7.205795">
        <ele>320.867</ele>
        <time>2019-06-22T14:15:17Z</time>
      </trkpt>
      <trkpt lat="41.479312" lon="-7.205571">
        <ele>320.672</ele>
        <time>2019-06-22T14:15:18Z</time>
      </trkpt>
      <trkpt lat="41.479232" lon="-7.205345">
        <ele>320.145</ele>
        <time>2019-06-22T14:15:19Z</time>
      </trkpt>
      <trkpt lat="41.479146" lon="-7.205122">
        <ele>318.555</ele>
        <time>2019-06-22T14:15:20Z</time>
      </trkpt>
      <trkpt lat="41.479065" lon="-7.204908">
        <ele>318.507</ele>
        <time>2019-06-22T14:15:21Z</time>
      </trkpt>
      <trkpt lat="41.478987" lon="-7.204698">
        <ele>318.517</ele>
        <time>2019-06-22T14:15:22Z</time>
      </trkpt>
      <trkpt lat="41.478905" lon="-7.204485">
        <ele>318.208</ele>
        <time>2019-06-22T14:15:23Z</time>
      </trkpt>
      <trkpt lat="41.478839" lon="-7.204287">
        <ele>317.678</ele>
        <time>2019-06-22T14:15:24Z</time>
      </trkpt>
      <trkpt lat="41.478768" lon="-7.204099">
        <ele>316.732</ele>
        <time>2019-06-22T14:15:25Z</time>
      </trkpt>
      <trkpt lat="41.478698" lon="-7.203900">
        <ele>316.224</ele>
        <time>2019-06-22T14:15:26Z</time>
      </trkpt>
      <trkpt lat="41.478637" lon="-7.203708">
        <ele>314.176</ele>
        <time>2019-06-22T14:15:27Z</time>
      </trkpt>
      <trkpt lat="41.478602" lon="-7.203522">
        <ele>313.084</ele>
        <time>2019-06-22T14:15:28Z</time>
      </trkpt>
      <trkpt lat="41.478571" lon="-7.203334">
        <ele>312.573</ele>
        <time>2019-06-22T14:15:29Z</time>
      </trkpt>
      <trkpt lat="41.478597" lon="-7.203139">
        <ele>312.458</ele>
        <time>2019-06-22T14:15:30Z</time>
      </trkpt>
      <trkpt lat="41.478640" lon="-7.202958">
        <ele>312.571</ele>
        <time>2019-06-22T14:15:31Z</time>
      </trkpt>
      <trkpt lat="41.478691" lon="-7.202773">
        <ele>312.757</ele>
        <time>2019-06-22T14:15:32Z</time>
      </trkpt>
      <trkpt lat="41.478740" lon="-7.202600">
        <ele>312.700</ele>
        <time>2019-06-22T14:15:33Z</time>
      </trkpt>
      <trkpt lat="41.478805" lon="-7.202443">
        <ele>312.720</ele>
        <time>2019-06-22T14:15:34Z</time>
      </trkpt>
      <trkpt lat="41.478893" lon="-7.202305">
        <ele>312.208</ele>
        <time>2019-06-22T14:15:35Z</time>
      </trkpt>
      <trkpt lat="41.479003" lon="-7.202204">
        <ele>311.998</ele>
        <time>2019-06-22T14:15:36Z</time>
      </trkpt>
      <trkpt lat="41.479134" lon="-7.202141">
        <ele>311.662</ele>
        <time>2019-06-22T14:15:37Z</time>
      </trkpt>
      <trkpt lat="41.479263" lon="-7.202095">
        <ele>311.434</ele>
        <time>2019-06-22T14:15:38Z</time>
      </trkpt>
      <trkpt lat="41.479408" lon="-7.202042">
        <ele>311.266</ele>
        <time>2019-06-22T14:15:39Z</time>
      </trkpt>
      <trkpt lat="41.479525" lon="-7.201957">
        <ele>310.694</ele>
        <time>2019-06-22T14:15:40Z</time>
      </trkpt>
      <trkpt lat="41.479643" lon="-7.201863">
        <ele>310.033</ele>
        <time>2019-06-22T14:15:41Z</time>
      </trkpt>
      <trkpt lat="41.479719" lon="-7.201724">
        <ele>308.688</ele>
        <time>2019-06-22T14:15:42Z</time>
      </trkpt>
      <trkpt lat="41.479770" lon="-7.201575">
        <ele>307.061</ele>
        <time>2019-06-22T14:15:43Z</time>
      </trkpt>
      <trkpt lat="41.479796" lon="-7.201426">
        <ele>305.479</ele>
        <time>2019-06-22T14:15:44Z</time>
      </trkpt>
      <trkpt lat="41.479818" lon="-7.201275">
        <ele>303.805</ele>
        <time>2019-06-22T14:15:45Z</time>
      </trkpt>
      <trkpt lat="41.479857" lon="-7.201130">
        <ele>303.025</ele>
        <time>2019-06-22T14:15:46Z</time>
      </trkpt>
      <trkpt lat="41.479918" lon="-7.201006">
        <ele>303.008</ele>
        <time>2019-06-22T14:15:47Z</time>
      </trkpt>
      <trkpt lat="41.479988" lon="-7.200892">
        <ele>303.490</ele>
        <time>2019-06-22T14:15:48Z</time>
      </trkpt>
      <trkpt lat="41.480069" lon="-7.200802">
        <ele>303.664</ele>
        <time>2019-06-22T14:15:49Z</time>
      </trkpt>
      <trkpt lat="41.480231" lon="-7.200761">
        <ele>304.066</ele>
        <time>2019-06-22T14:15:50Z</time>
      </trkpt>
      <trkpt lat="41.480367" lon="-7.200751">
        <ele>304.018</ele>
        <time>2019-06-22T14:15:51Z</time>
      </trkpt>
      <trkpt lat="41.480490" lon="-7.200763">
        <ele>303.546</ele>
        <time>2019-06-22T14:15:52Z</time>
      </trkpt>
      <trkpt lat="41.480623" lon="-7.200802">
        <ele>302.795</ele>
        <time>2019-06-22T14:15:53Z</time>
      </trkpt>
      <trkpt lat="41.480753" lon="-7.200866">
        <ele>302.080</ele>
        <time>2019-06-22T14:15:54Z</time>
      </trkpt>
      <trkpt lat="41.480881" lon="-7.200950">
        <ele>301.343</ele>
        <time>2019-06-22T14:15:55Z</time>
      </trkpt>
      <trkpt lat="41.481008" lon="-7.201021">
        <ele>300.321</ele>
        <time>2019-06-22T14:15:56Z</time>
      </trkpt>
      <trkpt lat="41.481135" lon="-7.201065">
        <ele>298.841</ele>
        <time>2019-06-22T14:15:57Z</time>
      </trkpt>
      <trkpt lat="41.481230" lon="-7.201026">
        <ele>297.405</ele>
        <time>2019-06-22T14:15:58Z</time>
      </trkpt>
      <trkpt lat="41.481353" lon="-7.200969">
        <ele>296.408</ele>
        <time>2019-06-22T14:15:59Z</time>
      </trkpt>
      <trkpt lat="41.481428" lon="-7.200859">
        <ele>295.055</ele>
        <time>2019-06-22T14:16:00Z</time>
      </trkpt>
      <trkpt lat="41.481543" lon="-7.200776">
        <ele>293.839</ele>
        <time>2019-06-22T14:16:01Z</time>
      </trkpt>
      <trkpt lat="41.481674" lon="-7.200692">
        <ele>293.521</ele>
        <time>2019-06-22T14:16:02Z</time>
      </trkpt>
      <trkpt lat="41.481808" lon="-7.200637">
        <ele>293.483</ele>
        <time>2019-06-22T14:16:03Z</time>
      </trkpt>
      <trkpt lat="41.481962" lon="-7.200597">
        <ele>293.041</ele>
        <time>2019-06-22T14:16:04Z</time>
      </trkpt>
      <trkpt lat="41.482112" lon="-7.200574">
        <ele>292.950</ele>
        <time>2019-06-22T14:16:05Z</time>
      </trkpt>
      <trkpt lat="41.482253" lon="-7.200562">
        <ele>292.495</ele>
        <time>2019-06-22T14:16:06Z</time>
      </trkpt>
      <trkpt lat="41.482383" lon="-7.200556">
        <ele>291.948</ele>
        <time>2019-06-22T14:16:07Z</time>
      </trkpt>
      <trkpt lat="41.482516" lon="-7.200549">
        <ele>291.054</ele>
        <time>2019-06-22T14:16:08Z</time>
      </trkpt>
      <trkpt lat="41.482644" lon="-7.200521">
        <ele>290.256</ele>
        <time>2019-06-22T14:16:09Z</time>
      </trkpt>
      <trkpt lat="41.482763" lon="-7.200467">
        <ele>289.311</ele>
        <time>2019-06-22T14:16:10Z</time>
      </trkpt>
      <trkpt lat="41.482861" lon="-7.200369">
        <ele>288.308</ele>
        <time>2019-06-22T14:16:11Z</time>
      </trkpt>
      <trkpt lat="41.482961" lon="-7.200243">
        <ele>287.228</ele>
        <time>2019-06-22T14:16:12Z</time>
      </trkpt>
      <trkpt lat="41.483005" lon="-7.200080">
        <ele>285.292</ele>
        <time>2019-06-22T14:16:13Z</time>
      </trkpt>
      <trkpt lat="41.483057" lon="-7.199904">
        <ele>283.344</ele>
        <time>2019-06-22T14:16:14Z</time>
      </trkpt>
      <trkpt lat="41.483098" lon="-7.199722">
        <ele>283.376</ele>
        <time>2019-06-22T14:16:15Z</time>
      </trkpt>
      <trkpt lat="41.483147" lon="-7.199531">
        <ele>282.324</ele>
        <time>2019-06-22T14:16:16Z</time>
      </trkpt>
      <trkpt lat="41.483224" lon="-7.199353">
        <ele>281.753</ele>
        <time>2019-06-22T14:16:17Z</time>
      </trkpt>
      <trkpt lat="41.483309" lon="-7.199192">
        <ele>281.638</ele>
        <time>2019-06-22T14:16:18Z</time>
      </trkpt>
      <trkpt lat="41.483405" lon="-7.199049">
        <ele>281.681</ele>
        <time>2019-06-22T14:16:19Z</time>
      </trkpt>
      <trkpt lat="41.483510" lon="-7.198938">
        <ele>281.616</ele>
        <time>2019-06-22T14:16:20Z</time>
      </trkpt>
      <trkpt lat="41.483639" lon="-7.198857">
        <ele>281.476</ele>
        <time>2019-06-22T14:16:21Z</time>
      </trkpt>
      <trkpt lat="41.483771" lon="-7.198804">
        <ele>280.913</ele>
        <time>2019-06-22T14:16:22Z</time>
      </trkpt>
      <trkpt lat="41.483903" lon="-7.198748">
        <ele>280.308</ele>
        <time>2019-06-22T14:16:23Z</time>
      </trkpt>
      <trkpt lat="41.484028" lon="-7.198667">
        <ele>279.714</ele>
        <time>2019-06-22T14:16:24Z</time>
      </trkpt>
      <trkpt lat="41.484155" lon="-7.198563">
        <ele>279.028</ele>
        <time>2019-06-22T14:16:25Z</time>
      </trkpt>
      <trkpt lat="41.484217" lon="-7.198424">
        <ele>277.410</ele>
        <time>2019-06-22T14:16:26Z</time>
      </trkpt>
      <trkpt lat="41.484279" lon="-7.198276">
        <ele>276.332</ele>
        <time>2019-06-22T14:16:27Z</time>
      </trkpt>
      <trkpt lat="41.484360" lon="-7.198125">
        <ele>275.270</ele>
        <time>2019-06-22T14:16:28Z</time>
      </trkpt>
      <trkpt lat="41.484431" lon="-7.197964">
        <ele>274.359</ele>
        <time>2019-06-22T14:16:29Z</time>
      </trkpt>
      <trkpt lat="41.484479" lon="-7.197807">
        <ele>273.194</ele>
        <time>2019-06-22T14:16:30Z</time>
      </trkpt>
      <trkpt lat="41.484510" lon="-7.197649">
        <ele>272.417</ele>
        <time>2019-06-22T14:16:31Z</time>
      </trkpt>
      <trkpt lat="41.484516" lon="-7.197473">
        <ele>272.146</ele>
        <time>2019-06-22T14:16:32Z</time>
      </trkpt>
      <trkpt lat="41.484491" lon="-7.197308">
        <ele>271.188</ele>
        <time>2019-06-22T14:16:33Z</time>
      </trkpt>
      <trkpt lat="41.484438" lon="-7.197133">
        <ele>269.416</ele>
        <time>2019-06-22T14:16:34Z</time>
      </trkpt>
      <trkpt lat="41.484379" lon="-7.196955">
        <ele>267.208</ele>
        <time>2019-06-22T14:16:35Z</time>
      </trkpt>
      <trkpt lat="41.484321" lon="-7.196793">
        <ele>265.727</ele>
        <time>2019-06-22T14:16:36Z</time>
      </trkpt>
      <trkpt lat="41.484263" lon="-7.196633">
        <ele>263.431</ele>
        <time>2019-06-22T14:16:37Z</time>
      </trkpt>
      <trkpt lat="41.484210" lon="-7.196501">
        <ele>261.683</ele>
        <time>2019-06-22T14:16:38Z</time>
      </trkpt>
      <trkpt lat="41.484160" lon="-7.196370">
        <ele>261.585</ele>
        <time>2019-06-22T14:16:39Z</time>
      </trkpt>
      <trkpt lat="41.484109" lon="-7.196254">
        <ele>261.513</ele>
        <time>2019-06-22T14:16:40Z</time>
      </trkpt>
      <trkpt lat="41.484064" lon="-7.196129">
        <ele>261.722</ele>
        <time>2019-06-22T14:16:41Z</time>
      </trkpt>
      <trkpt lat="41.484005" lon="-7.196018">
        <ele>262.127</ele>
        <time>2019-06-22T14:16:42Z</time>
      </trkpt>
      <trkpt lat="41.483955" lon="-7.195917">
        <ele>262.860</ele>
        <time>2019-06-22T14:16:43Z</time>
      </trkpt>
      <trkpt lat="41.483906" lon="-7.195825">
        <ele>262.884</ele>
        <time>2019-06-22T14:16:44Z</time>
      </trkpt>
      <trkpt lat="41.483863" lon="-7.195731">
        <ele>262.307</ele>
        <time>2019-06-22T14:16:45Z</time>
      </trkpt>
      <trkpt lat="41.483836" lon="-7.195634">
        <ele>262.017</ele>
        <time>2019-06-22T14:16:46Z</time>
      </trkpt>
      <trkpt lat="41.483796" lon="-7.195542">
        <ele>261.308</ele>
        <time>2019-06-22T14:16:47Z</time>
      </trkpt>
      <trkpt lat="41.483769" lon="-7.195450">
        <ele>260.751</ele>
        <time>2019-06-22T14:16:48Z</time>
      </trkpt>
      <trkpt lat="41.483730" lon="-7.195342">
        <ele>259.965</ele>
        <time>2019-06-22T14:16:49Z</time>
      </trkpt>
      <trkpt lat="41.483693" lon="-7.195241">
        <ele>259.047</ele>
        <time>2019-06-22T14:16:50Z</time>
      </trkpt>
      <trkpt lat="41.483650" lon="-7.195120">
        <ele>258.059</ele>
        <time>2019-06-22T14:16:51Z</time>
      </trkpt>
      <trkpt lat="41.483620" lon="-7.194979">
        <ele>257.127</ele>
        <time>2019-06-22T14:16:52Z</time>
      </trkpt>
      <trkpt lat="41.483575" lon="-7.194842">
        <ele>256.326</ele>
        <time>2019-06-22T14:16:53Z</time>
      </trkpt>
      <trkpt lat="41.483517" lon="-7.194699">
        <ele>255.631</ele>
        <time>2019-06-22T14:16:54Z</time>
      </trkpt>
      <trkpt lat="41.483459" lon="-7.194561">
        <ele>255.154</ele>
        <time>2019-06-22T14:16:55Z</time>
      </trkpt>
      <trkpt lat="41.483404" lon="-7.194405">
        <ele>254.264</ele>
        <time>2019-06-22T14:16:56Z</time>
      </trkpt>
      <trkpt lat="41.483339" lon="-7.194244">
        <ele>252.106</ele>
        <time>2019-06-22T14:16:57Z</time>
      </trkpt>
      <trkpt lat="41.483276" lon="-7.194091">
        <ele>250.716</ele>
        <time>2019-06-22T14:16:58Z</time>
      </trkpt>
      <trkpt lat="41.483237" lon="-7.193938">
        <ele>249.408</ele>
        <time>2019-06-22T14:16:59Z</time>
      </trkpt>
      <trkpt lat="41.483221" lon="-7.193783">
        <ele>248.569</ele>
        <time>2019-06-22T14:17:00Z</time>
      </trkpt>
      <trkpt lat="41.483214" lon="-7.193629">
        <ele>248.563</ele>
        <time>2019-06-22T14:17:01Z</time>
      </trkpt>
      <trkpt lat="41.483227" lon="-7.193449">
        <ele>248.875</ele>
        <time>2019-06-22T14:17:02Z</time>
      </trkpt>
      <trkpt lat="41.483249" lon="-7.193271">
        <ele>248.817</ele>
        <time>2019-06-22T14:17:03Z</time>
      </trkpt>
      <trkpt lat="41.483289" lon="-7.193088">
        <ele>248.785</ele>
        <time>2019-06-22T14:17:04Z</time>
      </trkpt>
      <trkpt lat="41.483329" lon="-7.192902">
        <ele>247.694</ele>
        <time>2019-06-22T14:17:05Z</time>
      </trkpt>
      <trkpt lat="41.483397" lon="-7.192730">
        <ele>246.799</ele>
        <time>2019-06-22T14:17:06Z</time>
      </trkpt>
      <trkpt lat="41.483474" lon="-7.192559">
        <ele>245.652</ele>
        <time>2019-06-22T14:17:07Z</time>
      </trkpt>
      <trkpt lat="41.483557" lon="-7.192399">
        <ele>244.985</ele>
        <time>2019-06-22T14:17:08Z</time>
      </trkpt>
      <trkpt lat="41.483661" lon="-7.192256">
        <ele>244.589</ele>
        <time>2019-06-22T14:17:09Z</time>
      </trkpt>
      <trkpt lat="41.483773" lon="-7.192123">
        <ele>244.117</ele>
        <time>2019-06-22T14:17:10Z</time>
      </trkpt>
      <trkpt lat="41.483893" lon="-7.191983">
        <ele>243.208</ele>
        <time>2019-06-22T14:17:11Z</time>
      </trkpt>
      <trkpt lat="41.484020" lon="-7.191852">
        <ele>242.681</ele>
        <time>2019-06-22T14:17:12Z</time>
      </trkpt>
      <trkpt lat="41.484150" lon="-7.191716">
        <ele>241.535</ele>
        <time>2019-06-22T14:17:13Z</time>
      </trkpt>
      <trkpt lat="41.484282" lon="-7.191582">
        <ele>240.697</ele>
        <time>2019-06-22T14:17:14Z</time>
      </trkpt>
      <trkpt lat="41.484409" lon="-7.191451">
        <ele>239.679</ele>
        <time>2019-06-22T14:17:15Z</time>
      </trkpt>
      <trkpt lat="41.484535" lon="-7.191325">
        <ele>239.157</ele>
        <time>2019-06-22T14:17:16Z</time>
      </trkpt>
      <trkpt lat="41.484661" lon="-7.191195">
        <ele>238.646</ele>
        <time>2019-06-22T14:17:17Z</time>
      </trkpt>
      <trkpt lat="41.484760" lon="-7.191060">
        <ele>238.171</ele>
        <time>2019-06-22T14:17:18Z</time>
      </trkpt>
      <trkpt lat="41.484885" lon="-7.190926">
        <ele>237.184</ele>
        <time>2019-06-22T14:17:19Z</time>
      </trkpt>
      <trkpt lat="41.485005" lon="-7.190806">
        <ele>235.593</ele>
        <time>2019-06-22T14:17:20Z</time>
      </trkpt>
      <trkpt lat="41.485111" lon="-7.190682">
        <ele>235.565</ele>
        <time>2019-06-22T14:17:21Z</time>
      </trkpt>
      <trkpt lat="41.485217" lon="-7.190554">
        <ele>235.121</ele>
        <time>2019-06-22T14:17:22Z</time>
      </trkpt>
      <trkpt lat="41.485318" lon="-7.190411">
        <ele>234.108</ele>
        <time>2019-06-22T14:17:23Z</time>
      </trkpt>
      <trkpt lat="41.485399" lon="-7.190263">
        <ele>233.212</ele>
        <time>2019-06-22T14:17:24Z</time>
      </trkpt>
      <trkpt lat="41.485463" lon="-7.190101">
        <ele>233.196</ele>
        <time>2019-06-22T14:17:25Z</time>
      </trkpt>
      <trkpt lat="41.485547" lon="-7.189928">
        <ele>233.048</ele>
        <time>2019-06-22T14:17:26Z</time>
      </trkpt>
      <trkpt lat="41.485603" lon="-7.189756">
        <ele>233.140</ele>
        <time>2019-06-22T14:17:27Z</time>
      </trkpt>
      <trkpt lat="41.485642" lon="-7.189578">
        <ele>233.228</ele>
        <time>2019-06-22T14:17:28Z</time>
      </trkpt>
      <trkpt lat="41.485687" lon="-7.189392">
        <ele>233.247</ele>
        <time>2019-06-22T14:17:29Z</time>
      </trkpt>
      <trkpt lat="41.485710" lon="-7.189206">
        <ele>232.852</ele>
        <time>2019-06-22T14:17:30Z</time>
      </trkpt>
      <trkpt lat="41.485713" lon="-7.189015">
        <ele>232.765</ele>
        <time>2019-06-22T14:17:31Z</time>
      </trkpt>
      <trkpt lat="41.485707" lon="-7.188816">
        <ele>232.626</ele>
        <time>2019-06-22T14:17:32Z</time>
      </trkpt>
      <trkpt lat="41.485719" lon="-7.188616">
        <ele>232.147</ele>
        <time>2019-06-22T14:17:33Z</time>
      </trkpt>
      <trkpt lat="41.485727" lon="-7.188416">
        <ele>231.811</ele>
        <time>2019-06-22T14:17:34Z</time>
      </trkpt>
      <trkpt lat="41.485734" lon="-7.188204">
        <ele>230.208</ele>
        <time>2019-06-22T14:17:35Z</time>
      </trkpt>
      <trkpt lat="41.485731" lon="-7.187995">
        <ele>229.315</ele>
        <time>2019-06-22T14:17:36Z</time>
      </trkpt>
      <trkpt lat="41.485732" lon="-7.187787">
        <ele>228.639</ele>
        <time>2019-06-22T14:17:37Z</time>
      </trkpt>
      <trkpt lat="41.485736" lon="-7.187602">
        <ele>228.041</ele>
        <time>2019-06-22T14:17:38Z</time>
      </trkpt>
      <trkpt lat="41.485736" lon="-7.187438">
        <ele>228.063</ele>
        <time>2019-06-22T14:17:39Z</time>
      </trkpt>
      <trkpt lat="41.485744" lon="-7.187298">
        <ele>228.831</ele>
        <time>2019-06-22T14:17:40Z</time>
      </trkpt>
      <trkpt lat="41.485744" lon="-7.187174">
        <ele>229.480</ele>
        <time>2019-06-22T14:17:41Z</time>
      </trkpt>
      <trkpt lat="41.485742" lon="-7.187092">
        <ele>230.255</ele>
        <time>2019-06-22T14:17:42Z</time>
      </trkpt>
      <trkpt lat="41.485741" lon="-7.187027">
        <ele>231.138</ele>
        <time>2019-06-22T14:17:43Z</time>
      </trkpt>
      <trkpt lat="41.485747" lon="-7.186955">
        <ele>232.943</ele>
        <time>2019-06-22T14:17:49Z</time>
      </trkpt>
      <trkpt lat="41.485736" lon="-7.186794">
        <ele>232.964</ele>
        <time>2019-06-22T14:17:51Z</time>
      </trkpt>
      <trkpt lat="41.485728" lon="-7.186681">
        <ele>232.910</ele>
        <time>2019-06-22T14:17:52Z</time>
      </trkpt>
      <trkpt lat="41.485726" lon="-7.186561">
        <ele>233.008</ele>
        <time>2019-06-22T14:17:53Z</time>
      </trkpt>
      <trkpt lat="41.485736" lon="-7.186422">
        <ele>233.047</ele>
        <time>2019-06-22T14:17:54Z</time>
      </trkpt>
      <trkpt lat="41.485733" lon="-7.186288">
        <ele>233.121</ele>
        <time>2019-06-22T14:17:55Z</time>
      </trkpt>
      <trkpt lat="41.485731" lon="-7.186175">
        <ele>233.273</ele>
        <time>2019-06-22T14:17:56Z</time>
      </trkpt>
      <trkpt lat="41.485722" lon="-7.186069">
        <ele>233.495</ele>
        <time>2019-06-22T14:17:57Z</time>
      </trkpt>
      <trkpt lat="41.485722" lon="-7.185977">
        <ele>233.433</ele>
        <time>2019-06-22T14:17:58Z</time>
      </trkpt>
      <trkpt lat="41.485720" lon="-7.185875">
        <ele>233.462</ele>
        <time>2019-06-22T14:17:59Z</time>
      </trkpt>
      <trkpt lat="41.485720" lon="-7.185776">
        <ele>233.437</ele>
        <time>2019-06-22T14:18:00Z</time>
      </trkpt>
      <trkpt lat="41.485715" lon="-7.185700">
        <ele>233.180</ele>
        <time>2019-06-22T14:18:01Z</time>
      </trkpt>
      <trkpt lat="41.485725" lon="-7.185624">
        <ele>232.798</ele>
        <time>2019-06-22T14:18:02Z</time>
      </trkpt>
      <trkpt lat="41.485730" lon="-7.185564">
        <ele>232.515</ele>
        <time>2019-06-22T14:18:03Z</time>
      </trkpt>
      <trkpt lat="41.485722" lon="-7.185499">
        <ele>232.326</ele>
        <time>2019-06-22T14:18:05Z</time>
      </trkpt>
      <trkpt lat="41.485702" lon="-7.185443">
        <ele>234.008</ele>
        <time>2019-06-22T14:19:18Z</time>
      </trkpt>
      <trkpt lat="41.485719" lon="-7.185363">
        <ele>233.972</ele>
        <time>2019-06-22T14:19:20Z</time>
      </trkpt>
      <trkpt lat="41.485726" lon="-7.185278">
        <ele>233.766</ele>
        <time>2019-06-22T14:19:21Z</time>
      </trkpt>
      <trkpt lat="41.485729" lon="-7.185169">
        <ele>233.638</ele>
        <time>2019-06-22T14:19:22Z</time>
      </trkpt>
      <trkpt lat="41.485730" lon="-7.185060">
        <ele>233.440</ele>
        <time>2019-06-22T14:19:23Z</time>
      </trkpt>
      <trkpt lat="41.485723" lon="-7.184938">
        <ele>233.268</ele>
        <time>2019-06-22T14:19:24Z</time>
      </trkpt>
      <trkpt lat="41.485723" lon="-7.184818">
        <ele>233.077</ele>
        <time>2019-06-22T14:19:25Z</time>
      </trkpt>
      <trkpt lat="41.485723" lon="-7.184716">
        <ele>232.842</ele>
        <time>2019-06-22T14:19:26Z</time>
      </trkpt>
      <trkpt lat="41.485713" lon="-7.184618">
        <ele>232.875</ele>
        <time>2019-06-22T14:19:27Z</time>
      </trkpt>
      <trkpt lat="41.485716" lon="-7.184514">
        <ele>232.828</ele>
        <time>2019-06-22T14:19:28Z</time>
      </trkpt>
      <trkpt lat="41.485717" lon="-7.184413">
        <ele>232.889</ele>
        <time>2019-06-22T14:19:29Z</time>
      </trkpt>
      <trkpt lat="41.485718" lon="-7.184312">
        <ele>232.917</ele>
        <time>2019-06-22T14:19:30Z</time>
      </trkpt>
      <trkpt lat="41.485717" lon="-7.184226">
        <ele>233.008</ele>
        <time>2019-06-22T14:19:31Z</time>
      </trkpt>
      <trkpt lat="41.485713" lon="-7.184136">
        <ele>233.075</ele>
        <time>2019-06-22T14:19:32Z</time>
      </trkpt>
      <trkpt lat="41.485713" lon="-7.184046">
        <ele>233.189</ele>
        <time>2019-06-22T14:19:33Z</time>
      </trkpt>
      <trkpt lat="41.485717" lon="-7.183936">
        <ele>233.241</ele>
        <time>2019-06-22T14:19:34Z</time>
      </trkpt>
      <trkpt lat="41.485699" lon="-7.183841">
        <ele>233.253</ele>
        <time>2019-06-22T14:19:35Z</time>
      </trkpt>
      <trkpt lat="41.485673" lon="-7.183753">
        <ele>233.131</ele>
        <time>2019-06-22T14:19:36Z</time>
      </trkpt>
      <trkpt lat="41.485645" lon="-7.183666">
        <ele>232.990</ele>
        <time>2019-06-22T14:19:37Z</time>
      </trkpt>
      <trkpt lat="41.485596" lon="-7.183580">
        <ele>232.445</ele>
        <time>2019-06-22T14:19:38Z</time>
      </trkpt>
      <trkpt lat="41.485546" lon="-7.183505">
        <ele>231.738</ele>
        <time>2019-06-22T14:19:39Z</time>
      </trkpt>
      <trkpt lat="41.485466" lon="-7.183477">
        <ele>231.186</ele>
        <time>2019-06-22T14:19:40Z</time>
      </trkpt>
      <trkpt lat="41.485393" lon="-7.183457">
        <ele>230.760</ele>
        <time>2019-06-22T14:19:41Z</time>
      </trkpt>
      <trkpt lat="41.485326" lon="-7.183450">
        <ele>230.426</ele>
        <time>2019-06-22T14:19:42Z</time>
      </trkpt>
      <trkpt lat="41.485257" lon="-7.183472">
        <ele>230.408</ele>
        <time>2019-06-22T14:19:43Z</time>
      </trkpt>
      <trkpt lat="41.485193" lon="-7.183470">
        <ele>230.551</ele>
        <time>2019-06-22T14:19:44Z</time>
      </trkpt>
      <trkpt lat="41.485126" lon="-7.183444">
        <ele>230.895</ele>
        <time>2019-06-22T14:19:45Z</time>
      </trkpt>
      <trkpt lat="41.485054" lon="-7.183425">
        <ele>231.257</ele>
        <time>2019-06-22T14:19:46Z</time>
      </trkpt>
      <trkpt lat="41.484979" lon="-7.183400">
        <ele>231.569</ele>
        <time>2019-06-22T14:19:47Z</time>
      </trkpt>
      <trkpt lat="41.484901" lon="-7.183392">
        <ele>231.677</ele>
        <time>2019-06-22T14:19:48Z</time>
      </trkpt>
      <trkpt lat="41.484816" lon="-7.183385">
        <ele>231.766</ele>
        <time>2019-06-22T14:19:49Z</time>
      </trkpt>
      <trkpt lat="41.484728" lon="-7.183359">
        <ele>231.821</ele>
        <time>2019-06-22T14:19:50Z</time>
      </trkpt>
      <trkpt lat="41.484645" lon="-7.183323">
        <ele>231.824</ele>
        <time>2019-06-22T14:19:51Z</time>
      </trkpt>
      <trkpt lat="41.484564" lon="-7.183302">
        <ele>231.631</ele>
        <time>2019-06-22T14:19:52Z</time>
      </trkpt>
      <trkpt lat="41.484487" lon="-7.183284">
        <ele>231.661</ele>
        <time>2019-06-22T14:19:53Z</time>
      </trkpt>
      <trkpt lat="41.484411" lon="-7.183273">
        <ele>231.607</ele>
        <time>2019-06-22T14:19:54Z</time>
      </trkpt>
      <trkpt lat="41.484353" lon="-7.183276">
        <ele>231.408</ele>
        <time>2019-06-22T14:19:55Z</time>
      </trkpt>
      <trkpt lat="41.484294" lon="-7.183282">
        <ele>231.436</ele>
        <time>2019-06-22T14:19:57Z</time>
      </trkpt>
      <trkpt lat="41.484241" lon="-7.183297">
        <ele>232.250</ele>
        <time>2019-06-22T14:20:02Z</time>
      </trkpt>
      <trkpt lat="41.484126" lon="-7.183369">
        <ele>232.252</ele>
        <time>2019-06-22T14:20:04Z</time>
      </trkpt>
      <trkpt lat="41.484060" lon="-7.183404">
        <ele>232.154</ele>
        <time>2019-06-22T14:20:05Z</time>
      </trkpt>
      <trkpt lat="41.483987" lon="-7.183449">
        <ele>231.982</ele>
        <time>2019-06-22T14:20:06Z</time>
      </trkpt>
      <trkpt lat="41.483917" lon="-7.183509">
        <ele>231.611</ele>
        <time>2019-06-22T14:20:07Z</time>
      </trkpt>
      <trkpt lat="41.483828" lon="-7.183564">
        <ele>231.456</ele>
        <time>2019-06-22T14:20:08Z</time>
      </trkpt>
      <trkpt lat="41.483727" lon="-7.183626">
        <ele>231.259</ele>
        <time>2019-06-22T14:20:09Z</time>
      </trkpt>
      <trkpt lat="41.483632" lon="-7.183686">
        <ele>231.112</ele>
        <time>2019-06-22T14:20:10Z</time>
      </trkpt>
      <trkpt lat="41.483524" lon="-7.183755">
        <ele>231.032</ele>
        <time>2019-06-22T14:20:11Z</time>
      </trkpt>
      <trkpt lat="41.483403" lon="-7.183817">
        <ele>230.905</ele>
        <time>2019-06-22T14:20:12Z</time>
      </trkpt>
      <trkpt lat="41.483293" lon="-7.183894">
        <ele>230.908</ele>
        <time>2019-06-22T14:20:13Z</time>
      </trkpt>
      <trkpt lat="41.483185" lon="-7.183956">
        <ele>230.974</ele>
        <time>2019-06-22T14:20:14Z</time>
      </trkpt>
      <trkpt lat="41.483089" lon="-7.184015">
        <ele>231.028</ele>
        <time>2019-06-22T14:20:15Z</time>
      </trkpt>
      <trkpt lat="41.482982" lon="-7.184073">
        <ele>231.170</ele>
        <time>2019-06-22T14:20:16Z</time>
      </trkpt>
      <trkpt lat="41.482894" lon="-7.184128">
        <ele>231.512</ele>
        <time>2019-06-22T14:20:17Z</time>
      </trkpt>
      <trkpt lat="41.482801" lon="-7.184175">
        <ele>231.890</ele>
        <time>2019-06-22T14:20:18Z</time>
      </trkpt>
      <trkpt lat="41.482716" lon="-7.184207">
        <ele>232.319</ele>
        <time>2019-06-22T14:20:19Z</time>
      </trkpt>
      <trkpt lat="41.482641" lon="-7.184229">
        <ele>233.084</ele>
        <time>2019-06-22T14:20:20Z</time>
      </trkpt>
      <trkpt lat="41.482569" lon="-7.184224">
        <ele>233.837</ele>
        <time>2019-06-22T14:20:21Z</time>
      </trkpt>
      <trkpt lat="41.482513" lon="-7.184221">
        <ele>234.679</ele>
        <time>2019-06-22T14:20:22Z</time>
      </trkpt>
      <trkpt lat="41.482462" lon="-7.184226">
        <ele>235.405</ele>
        <time>2019-06-22T14:20:23Z</time>
      </trkpt>
      <trkpt lat="41.482371" lon="-7.184214">
        <ele>236.825</ele>
        <time>2019-06-22T14:20:25Z</time>
      </trkpt>
      <trkpt lat="41.482300" lon="-7.184137">
        <ele>237.708</ele>
        <time>2019-06-22T14:20:27Z</time>
      </trkpt>
      <trkpt lat="41.482271" lon="-7.184080">
        <ele>238.130</ele>
        <time>2019-06-22T14:20:28Z</time>
      </trkpt>
      <trkpt lat="41.482233" lon="-7.183971">
        <ele>238.354</ele>
        <time>2019-06-22T14:20:29Z</time>
      </trkpt>
      <trkpt lat="41.482206" lon="-7.183862">
        <ele>238.566</ele>
        <time>2019-06-22T14:20:30Z</time>
      </trkpt>
      <trkpt lat="41.482173" lon="-7.183716">
        <ele>238.668</ele>
        <time>2019-06-22T14:20:31Z</time>
      </trkpt>
      <trkpt lat="41.482126" lon="-7.183569">
        <ele>238.676</ele>
        <time>2019-06-22T14:20:32Z</time>
      </trkpt>
      <trkpt lat="41.482078" lon="-7.183425">
        <ele>238.585</ele>
        <time>2019-06-22T14:20:33Z</time>
      </trkpt>
      <trkpt lat="41.482016" lon="-7.183268">
        <ele>238.470</ele>
        <time>2019-06-22T14:20:34Z</time>
      </trkpt>
      <trkpt lat="41.481964" lon="-7.183121">
        <ele>238.323</ele>
        <time>2019-06-22T14:20:35Z</time>
      </trkpt>
      <trkpt lat="41.481909" lon="-7.182970">
        <ele>238.275</ele>
        <time>2019-06-22T14:20:36Z</time>
      </trkpt>
      <trkpt lat="41.481839" lon="-7.182821">
        <ele>238.228</ele>
        <time>2019-06-22T14:20:37Z</time>
      </trkpt>
      <trkpt lat="41.481781" lon="-7.182666">
        <ele>238.220</ele>
        <time>2019-06-22T14:20:38Z</time>
      </trkpt>
      <trkpt lat="41.481701" lon="-7.182524">
        <ele>238.308</ele>
        <time>2019-06-22T14:20:39Z</time>
      </trkpt>
      <trkpt lat="41.481630" lon="-7.182357">
        <ele>238.490</ele>
        <time>2019-06-22T14:20:40Z</time>
      </trkpt>
      <trkpt lat="41.481560" lon="-7.182192">
        <ele>238.514</ele>
        <time>2019-06-22T14:20:41Z</time>
      </trkpt>
      <trkpt lat="41.481501" lon="-7.182033">
        <ele>238.776</ele>
        <time>2019-06-22T14:20:42Z</time>
      </trkpt>
      <trkpt lat="41.481444" lon="-7.181878">
        <ele>238.838</ele>
        <time>2019-06-22T14:20:43Z</time>
      </trkpt>
      <trkpt lat="41.481379" lon="-7.181726">
        <ele>238.916</ele>
        <time>2019-06-22T14:20:44Z</time>
      </trkpt>
      <trkpt lat="41.481315" lon="-7.181589">
        <ele>238.955</ele>
        <time>2019-06-22T14:20:45Z</time>
      </trkpt>
      <trkpt lat="41.481263" lon="-7.181446">
        <ele>238.820</ele>
        <time>2019-06-22T14:20:46Z</time>
      </trkpt>
      <trkpt lat="41.481199" lon="-7.181319">
        <ele>238.663</ele>
        <time>2019-06-22T14:20:47Z</time>
      </trkpt>
      <trkpt lat="41.481118" lon="-7.181212">
        <ele>238.429</ele>
        <time>2019-06-22T14:20:48Z</time>
      </trkpt>
      <trkpt lat="41.481025" lon="-7.181132">
        <ele>238.400</ele>
        <time>2019-06-22T14:20:49Z</time>
      </trkpt>
      <trkpt lat="41.480935" lon="-7.181055">
        <ele>238.320</ele>
        <time>2019-06-22T14:20:50Z</time>
      </trkpt>
      <trkpt lat="41.480837" lon="-7.181011">
        <ele>238.108</ele>
        <time>2019-06-22T14:20:51Z</time>
      </trkpt>
      <trkpt lat="41.480724" lon="-7.180965">
        <ele>238.185</ele>
        <time>2019-06-22T14:20:52Z</time>
      </trkpt>
      <trkpt lat="41.480611" lon="-7.180931">
        <ele>238.179</ele>
        <time>2019-06-22T14:20:53Z</time>
      </trkpt>
      <trkpt lat="41.480492" lon="-7.180910">
        <ele>238.251</ele>
        <time>2019-06-22T14:20:54Z</time>
      </trkpt>
      <trkpt lat="41.480355" lon="-7.180872">
        <ele>238.793</ele>
        <time>2019-06-22T14:20:55Z</time>
      </trkpt>
      <trkpt lat="41.480237" lon="-7.180895">
        <ele>239.481</ele>
        <time>2019-06-22T14:20:56Z</time>
      </trkpt>
      <trkpt lat="41.480095" lon="-7.180869">
        <ele>240.430</ele>
        <time>2019-06-22T14:20:57Z</time>
      </trkpt>
      <trkpt lat="41.479959" lon="-7.180851">
        <ele>241.295</ele>
        <time>2019-06-22T14:20:58Z</time>
      </trkpt>
      <trkpt lat="41.479819" lon="-7.180831">
        <ele>242.188</ele>
        <time>2019-06-22T14:20:59Z</time>
      </trkpt>
      <trkpt lat="41.479677" lon="-7.180809">
        <ele>242.554</ele>
        <time>2019-06-22T14:21:00Z</time>
      </trkpt>
      <trkpt lat="41.479528" lon="-7.180778">
        <ele>242.956</ele>
        <time>2019-06-22T14:21:01Z</time>
      </trkpt>
      <trkpt lat="41.479410" lon="-7.180783">
        <ele>242.911</ele>
        <time>2019-06-22T14:21:02Z</time>
      </trkpt>
      <trkpt lat="41.479277" lon="-7.180748">
        <ele>243.308</ele>
        <time>2019-06-22T14:21:03Z</time>
      </trkpt>
      <trkpt lat="41.479140" lon="-7.180715">
        <ele>243.888</ele>
        <time>2019-06-22T14:21:04Z</time>
      </trkpt>
      <trkpt lat="41.479009" lon="-7.180680">
        <ele>244.212</ele>
        <time>2019-06-22T14:21:05Z</time>
      </trkpt>
      <trkpt lat="41.478875" lon="-7.180661">
        <ele>244.984</ele>
        <time>2019-06-22T14:21:06Z</time>
      </trkpt>
      <trkpt lat="41.478749" lon="-7.180648">
        <ele>245.426</ele>
        <time>2019-06-22T14:21:07Z</time>
      </trkpt>
      <trkpt lat="41.478620" lon="-7.180611">
        <ele>245.674</ele>
        <time>2019-06-22T14:21:08Z</time>
      </trkpt>
      <trkpt lat="41.478492" lon="-7.180576">
        <ele>245.863</ele>
        <time>2019-06-22T14:21:09Z</time>
      </trkpt>
      <trkpt lat="41.478367" lon="-7.180537">
        <ele>245.888</ele>
        <time>2019-06-22T14:21:10Z</time>
      </trkpt>
      <trkpt lat="41.478251" lon="-7.180515">
        <ele>246.261</ele>
        <time>2019-06-22T14:21:11Z</time>
      </trkpt>
      <trkpt lat="41.478133" lon="-7.180496">
        <ele>246.595</ele>
        <time>2019-06-22T14:21:12Z</time>
      </trkpt>
      <trkpt lat="41.477993" lon="-7.180452">
        <ele>246.849</ele>
        <time>2019-06-22T14:21:13Z</time>
      </trkpt>
      <trkpt lat="41.477869" lon="-7.180416">
        <ele>246.823</ele>
        <time>2019-06-22T14:21:14Z</time>
      </trkpt>
      <trkpt lat="41.477742" lon="-7.180375">
        <ele>246.708</ele>
        <time>2019-06-22T14:21:15Z</time>
      </trkpt>
      <trkpt lat="41.477616" lon="-7.180320">
        <ele>246.682</ele>
        <time>2019-06-22T14:21:16Z</time>
      </trkpt>
      <trkpt lat="41.477467" lon="-7.180243">
        <ele>246.466</ele>
        <time>2019-06-22T14:21:17Z</time>
      </trkpt>
      <trkpt lat="41.477332" lon="-7.180164">
        <ele>246.288</ele>
        <time>2019-06-22T14:21:18Z</time>
      </trkpt>
      <trkpt lat="41.477202" lon="-7.180072">
        <ele>246.250</ele>
        <time>2019-06-22T14:21:19Z</time>
      </trkpt>
      <trkpt lat="41.477075" lon="-7.179955">
        <ele>246.128</ele>
        <time>2019-06-22T14:21:20Z</time>
      </trkpt>
      <trkpt lat="41.476960" lon="-7.179836">
        <ele>245.987</ele>
        <time>2019-06-22T14:21:21Z</time>
      </trkpt>
      <trkpt lat="41.476848" lon="-7.179719">
        <ele>245.492</ele>
        <time>2019-06-22T14:21:22Z</time>
      </trkpt>
      <trkpt lat="41.476764" lon="-7.179604">
        <ele>245.495</ele>
        <time>2019-06-22T14:21:23Z</time>
      </trkpt>
      <trkpt lat="41.476681" lon="-7.179504">
        <ele>245.627</ele>
        <time>2019-06-22T14:21:24Z</time>
      </trkpt>
      <trkpt lat="41.476605" lon="-7.179427">
        <ele>246.168</ele>
        <time>2019-06-22T14:21:25Z</time>
      </trkpt>
      <trkpt lat="41.476565" lon="-7.179352">
        <ele>247.914</ele>
        <time>2019-06-22T14:21:27Z</time>
      </trkpt>
      <trkpt lat="41.476570" lon="-7.179276">
        <ele>248.908</ele>
        <time>2019-06-22T14:21:29Z</time>
      </trkpt>
      <trkpt lat="41.476655" lon="-7.179204">
        <ele>249.485</ele>
        <time>2019-06-22T14:21:31Z</time>
      </trkpt>
      <trkpt lat="41.476718" lon="-7.179138">
        <ele>249.449</ele>
        <time>2019-06-22T14:21:32Z</time>
      </trkpt>
      <trkpt lat="41.476782" lon="-7.179069">
        <ele>249.411</ele>
        <time>2019-06-22T14:21:33Z</time>
      </trkpt>
      <trkpt lat="41.476852" lon="-7.178987">
        <ele>249.433</ele>
        <time>2019-06-22T14:21:34Z</time>
      </trkpt>
      <trkpt lat="41.476911" lon="-7.178898">
        <ele>249.381</ele>
        <time>2019-06-22T14:21:35Z</time>
      </trkpt>
      <trkpt lat="41.476946" lon="-7.178798">
        <ele>249.120</ele>
        <time>2019-06-22T14:21:36Z</time>
      </trkpt>
      <trkpt lat="41.476971" lon="-7.178690">
        <ele>248.795</ele>
        <time>2019-06-22T14:21:37Z</time>
      </trkpt>
      <trkpt lat="41.476969" lon="-7.178567">
        <ele>248.328</ele>
        <time>2019-06-22T14:21:38Z</time>
      </trkpt>
      <trkpt lat="41.476962" lon="-7.178436">
        <ele>247.854</ele>
        <time>2019-06-22T14:21:39Z</time>
      </trkpt>
      <trkpt lat="41.476949" lon="-7.178304">
        <ele>247.556</ele>
        <time>2019-06-22T14:21:40Z</time>
      </trkpt>
      <trkpt lat="41.476931" lon="-7.178155">
        <ele>247.511</ele>
        <time>2019-06-22T14:21:41Z</time>
      </trkpt>
      <trkpt lat="41.476910" lon="-7.178014">
        <ele>248.108</ele>
        <time>2019-06-22T14:21:42Z</time>
      </trkpt>
      <trkpt lat="41.476917" lon="-7.177838">
        <ele>248.918</ele>
        <time>2019-06-22T14:21:43Z</time>
      </trkpt>
      <trkpt lat="41.476887" lon="-7.177704">
        <ele>250.052</ele>
        <time>2019-06-22T14:21:44Z</time>
      </trkpt>
      <trkpt lat="41.476877" lon="-7.177562">
        <ele>251.024</ele>
        <time>2019-06-22T14:21:45Z</time>
      </trkpt>
      <trkpt lat="41.476866" lon="-7.177424">
        <ele>252.416</ele>
        <time>2019-06-22T14:21:46Z</time>
      </trkpt>
      <trkpt lat="41.476860" lon="-7.177290">
        <ele>252.434</ele>
        <time>2019-06-22T14:21:47Z</time>
      </trkpt>
      <trkpt lat="41.476847" lon="-7.177155">
        <ele>253.463</ele>
        <time>2019-06-22T14:21:49Z</time>
      </trkpt>
      <trkpt lat="41.476774" lon="-7.177096">
        <ele>253.848</ele>
        <time>2019-06-22T14:21:51Z</time>
      </trkpt>
      <trkpt lat="41.476730" lon="-7.177059">
        <ele>253.911</ele>
        <time>2019-06-22T14:21:52Z</time>
      </trkpt>
      <trkpt lat="41.476678" lon="-7.177032">
        <ele>253.969</ele>
        <time>2019-06-22T14:21:53Z</time>
      </trkpt>
      <trkpt lat="41.476597" lon="-7.177038">
        <ele>254.304</ele>
        <time>2019-06-22T14:21:54Z</time>
      </trkpt>
      <trkpt lat="41.476501" lon="-7.177092">
        <ele>254.524</ele>
        <time>2019-06-22T14:21:55Z</time>
      </trkpt>
      <trkpt lat="41.476418" lon="-7.177077">
        <ele>254.708</ele>
        <time>2019-06-22T14:21:56Z</time>
      </trkpt>
      <trkpt lat="41.476342" lon="-7.177070">
        <ele>255.099</ele>
        <time>2019-06-22T14:21:57Z</time>
      </trkpt>
      <trkpt lat="41.476265" lon="-7.177082">
        <ele>255.513</ele>
        <time>2019-06-22T14:21:58Z</time>
      </trkpt>
      <trkpt lat="41.476190" lon="-7.177086">
        <ele>255.725</ele>
        <time>2019-06-22T14:21:59Z</time>
      </trkpt>
      <trkpt lat="41.476133" lon="-7.177106">
        <ele>255.997</ele>
        <time>2019-06-22T14:22:00Z</time>
      </trkpt>
      <trkpt lat="41.476074" lon="-7.177110">
        <ele>256.315</ele>
        <time>2019-06-22T14:22:01Z</time>
      </trkpt>
      <trkpt lat="41.476021" lon="-7.177110">
        <ele>256.564</ele>
        <time>2019-06-22T14:22:02Z</time>
      </trkpt>
      <trkpt lat="41.475975" lon="-7.177095">
        <ele>256.549</ele>
        <time>2019-06-22T14:22:03Z</time>
      </trkpt>
      <trkpt lat="41.475898" lon="-7.177028">
        <ele>256.472</ele>
        <time>2019-06-22T14:22:05Z</time>
      </trkpt>
      <trkpt lat="41.475866" lon="-7.176977">
        <ele>256.432</ele>
        <time>2019-06-22T14:22:06Z</time>
      </trkpt>
      <trkpt lat="41.475836" lon="-7.176927">
        <ele>256.292</ele>
        <time>2019-06-22T14:22:07Z</time>
      </trkpt>
      <trkpt lat="41.475817" lon="-7.176839">
        <ele>256.011</ele>
        <time>2019-06-22T14:22:08Z</time>
      </trkpt>
      <trkpt lat="41.475857" lon="-7.176679">
        <ele>256.008</ele>
        <time>2019-06-22T14:22:09Z</time>
      </trkpt>
      <trkpt lat="41.475864" lon="-7.176590">
        <ele>256.516</ele>
        <time>2019-06-22T14:22:10Z</time>
      </trkpt>
      <trkpt lat="41.475862" lon="-7.176495">
        <ele>256.520</ele>
        <time>2019-06-22T14:22:11Z</time>
      </trkpt>
      <trkpt lat="41.475866" lon="-7.176412">
        <ele>257.012</ele>
        <time>2019-06-22T14:22:12Z</time>
      </trkpt>
      <trkpt lat="41.475870" lon="-7.176346">
        <ele>258.084</ele>
        <time>2019-06-22T14:22:13Z</time>
      </trkpt>
      <trkpt lat="41.475872" lon="-7.176270">
        <ele>260.382</ele>
        <time>2019-06-22T14:22:15Z</time>
      </trkpt>
      <trkpt lat="41.475858" lon="-7.176163">
        <ele>262.021</ele>
        <time>2019-06-22T14:22:17Z</time>
      </trkpt>
      <trkpt lat="41.475847" lon="-7.176086">
        <ele>262.646</ele>
        <time>2019-06-22T14:22:18Z</time>
      </trkpt>
      <trkpt lat="41.475847" lon="-7.175992">
        <ele>262.959</ele>
        <time>2019-06-22T14:22:19Z</time>
      </trkpt>
      <trkpt lat="41.475850" lon="-7.175892">
        <ele>263.232</ele>
        <time>2019-06-22T14:22:20Z</time>
      </trkpt>
      <trkpt lat="41.475866" lon="-7.175781">
        <ele>263.592</ele>
        <time>2019-06-22T14:22:21Z</time>
      </trkpt>
      <trkpt lat="41.475869" lon="-7.175667">
        <ele>263.911</ele>
        <time>2019-06-22T14:22:22Z</time>
      </trkpt>
      <trkpt lat="41.475869" lon="-7.175550">
        <ele>264.408</ele>
        <time>2019-06-22T14:22:23Z</time>
      </trkpt>
      <trkpt lat="41.475868" lon="-7.175426">
        <ele>264.776</ele>
        <time>2019-06-22T14:22:24Z</time>
      </trkpt>
      <trkpt lat="41.475867" lon="-7.175318">
        <ele>264.950</ele>
        <time>2019-06-22T14:22:25Z</time>
      </trkpt>
      <trkpt lat="41.475860" lon="-7.175201">
        <ele>265.172</ele>
        <time>2019-06-22T14:22:26Z</time>
      </trkpt>
      <trkpt lat="41.475859" lon="-7.175107">
        <ele>265.114</ele>
        <time>2019-06-22T14:22:27Z</time>
      </trkpt>
      <trkpt lat="41.475854" lon="-7.175027">
        <ele>264.882</ele>
        <time>2019-06-22T14:22:28Z</time>
      </trkpt>
      <trkpt lat="41.475860" lon="-7.174959">
        <ele>264.551</ele>
        <time>2019-06-22T14:22:29Z</time>
      </trkpt>
      <trkpt lat="41.475861" lon="-7.174886">
        <ele>264.326</ele>
        <time>2019-06-22T14:22:30Z</time>
      </trkpt>
      <trkpt lat="41.475871" lon="-7.174806">
        <ele>263.899</ele>
        <time>2019-06-22T14:22:31Z</time>
      </trkpt>
      <trkpt lat="41.475874" lon="-7.174702">
        <ele>263.587</ele>
        <time>2019-06-22T14:22:32Z</time>
      </trkpt>
      <trkpt lat="41.475871" lon="-7.174595">
        <ele>263.342</ele>
        <time>2019-06-22T14:22:33Z</time>
      </trkpt>
      <trkpt lat="41.475881" lon="-7.174470">
        <ele>263.326</ele>
        <time>2019-06-22T14:22:34Z</time>
      </trkpt>
      <trkpt lat="41.475885" lon="-7.174352">
        <ele>263.308</ele>
        <time>2019-06-22T14:22:35Z</time>
      </trkpt>
      <trkpt lat="41.475880" lon="-7.174227">
        <ele>263.531</ele>
        <time>2019-06-22T14:22:36Z</time>
      </trkpt>
      <trkpt lat="41.475874" lon="-7.174105">
        <ele>263.745</ele>
        <time>2019-06-22T14:22:37Z</time>
      </trkpt>
      <trkpt lat="41.475869" lon="-7.173993">
        <ele>263.927</ele>
        <time>2019-06-22T14:22:38Z</time>
      </trkpt>
      <trkpt lat="41.475864" lon="-7.173882">
        <ele>264.129</ele>
        <time>2019-06-22T14:22:39Z</time>
      </trkpt>
      <trkpt lat="41.475853" lon="-7.173792">
        <ele>264.457</ele>
        <time>2019-06-22T14:22:40Z</time>
      </trkpt>
      <trkpt lat="41.475855" lon="-7.173701">
        <ele>264.696</ele>
        <time>2019-06-22T14:22:41Z</time>
      </trkpt>
      <trkpt lat="41.475838" lon="-7.173625">
        <ele>264.821</ele>
        <time>2019-06-22T14:22:42Z</time>
      </trkpt>
      <trkpt lat="41.475787" lon="-7.173623">
        <ele>265.214</ele>
        <time>2019-06-22T14:22:44Z</time>
      </trkpt>
      <trkpt lat="41.475729" lon="-7.173622">
        <ele>265.099</ele>
        <time>2019-06-22T14:22:47Z</time>
      </trkpt>
      <trkpt lat="41.475687" lon="-7.173663">
        <ele>264.807</ele>
        <time>2019-06-22T14:22:48Z</time>
      </trkpt>
      <trkpt lat="41.475633" lon="-7.173741">
        <ele>264.427</ele>
        <time>2019-06-22T14:22:49Z</time>
      </trkpt>
      <trkpt lat="41.475571" lon="-7.173824">
        <ele>264.008</ele>
        <time>2019-06-22T14:22:50Z</time>
      </trkpt>
      <trkpt lat="41.475505" lon="-7.173922">
        <ele>263.552</ele>
        <time>2019-06-22T14:22:51Z</time>
      </trkpt>
      <trkpt lat="41.475429" lon="-7.174019">
        <ele>263.286</ele>
        <time>2019-06-22T14:22:52Z</time>
      </trkpt>
      <trkpt lat="41.475354" lon="-7.174116">
        <ele>262.828</ele>
        <time>2019-06-22T14:22:53Z</time>
      </trkpt>
      <trkpt lat="41.475276" lon="-7.174209">
        <ele>262.540</ele>
        <time>2019-06-22T14:22:54Z</time>
      </trkpt>
      <trkpt lat="41.475198" lon="-7.174299">
        <ele>262.148</ele>
        <time>2019-06-22T14:22:55Z</time>
      </trkpt>
      <trkpt lat="41.475110" lon="-7.174400">
        <ele>261.857</ele>
        <time>2019-06-22T14:22:56Z</time>
      </trkpt>
      <trkpt lat="41.475029" lon="-7.174488">
        <ele>261.432</ele>
        <time>2019-06-22T14:22:57Z</time>
      </trkpt>
      <trkpt lat="41.474942" lon="-7.174572">
        <ele>260.915</ele>
        <time>2019-06-22T14:22:58Z</time>
      </trkpt>
      <trkpt lat="41.474855" lon="-7.174661">
        <ele>260.314</ele>
        <time>2019-06-22T14:22:59Z</time>
      </trkpt>
      <trkpt lat="41.474770" lon="-7.174732">
        <ele>259.554</ele>
        <time>2019-06-22T14:23:00Z</time>
      </trkpt>
      <trkpt lat="41.474688" lon="-7.174814">
        <ele>258.809</ele>
        <time>2019-06-22T14:23:01Z</time>
      </trkpt>
      <trkpt lat="41.474595" lon="-7.174877">
        <ele>257.808</ele>
        <time>2019-06-22T14:23:02Z</time>
      </trkpt>
      <trkpt lat="41.474498" lon="-7.174940">
        <ele>256.624</ele>
        <time>2019-06-22T14:23:03Z</time>
      </trkpt>
      <trkpt lat="41.474409" lon="-7.175004">
        <ele>255.548</ele>
        <time>2019-06-22T14:23:04Z</time>
      </trkpt>
      <trkpt lat="41.474316" lon="-7.175069">
        <ele>254.720</ele>
        <time>2019-06-22T14:23:05Z</time>
      </trkpt>
      <trkpt lat="41.474224" lon="-7.175139">
        <ele>253.852</ele>
        <time>2019-06-22T14:23:06Z</time>
      </trkpt>
      <trkpt lat="41.474135" lon="-7.175215">
        <ele>253.020</ele>
        <time>2019-06-22T14:23:07Z</time>
      </trkpt>
      <trkpt lat="41.474055" lon="-7.175260">
        <ele>252.349</ele>
        <time>2019-06-22T14:23:08Z</time>
      </trkpt>
      <trkpt lat="41.473967" lon="-7.175310">
        <ele>251.444</ele>
        <time>2019-06-22T14:23:09Z</time>
      </trkpt>
      <trkpt lat="41.473876" lon="-7.175350">
        <ele>250.477</ele>
        <time>2019-06-22T14:23:10Z</time>
      </trkpt>
      <trkpt lat="41.473780" lon="-7.175370">
        <ele>249.668</ele>
        <time>2019-06-22T14:23:11Z</time>
      </trkpt>
      <trkpt lat="41.473682" lon="-7.175396">
        <ele>248.942</ele>
        <time>2019-06-22T14:23:12Z</time>
      </trkpt>
      <trkpt lat="41.473565" lon="-7.175395">
        <ele>248.926</ele>
        <time>2019-06-22T14:23:13Z</time>
      </trkpt>
      <trkpt lat="41.473436" lon="-7.175395">
        <ele>248.408</ele>
        <time>2019-06-22T14:23:14Z</time>
      </trkpt>
      <trkpt lat="41.473288" lon="-7.175395">
        <ele>248.389</ele>
        <time>2019-06-22T14:23:15Z</time>
      </trkpt>
      <trkpt lat="41.473141" lon="-7.175404">
        <ele>247.983</ele>
        <time>2019-06-22T14:23:16Z</time>
      </trkpt>
      <trkpt lat="41.472978" lon="-7.175425">
        <ele>246.945</ele>
        <time>2019-06-22T14:23:17Z</time>
      </trkpt>
      <trkpt lat="41.472798" lon="-7.175438">
        <ele>246.127</ele>
        <time>2019-06-22T14:23:18Z</time>
      </trkpt>
      <trkpt lat="41.472629" lon="-7.175443">
        <ele>245.425</ele>
        <time>2019-06-22T14:23:19Z</time>
      </trkpt>
      <trkpt lat="41.472433" lon="-7.175433">
        <ele>244.784</ele>
        <time>2019-06-22T14:23:20Z</time>
      </trkpt>
      <trkpt lat="41.472239" lon="-7.175402">
        <ele>244.719</ele>
        <time>2019-06-22T14:23:21Z</time>
      </trkpt>
      <trkpt lat="41.472055" lon="-7.175344">
        <ele>244.842</ele>
        <time>2019-06-22T14:23:22Z</time>
      </trkpt>
      <trkpt lat="41.471852" lon="-7.175273">
        <ele>245.189</ele>
        <time>2019-06-22T14:23:23Z</time>
      </trkpt>
      <trkpt lat="41.471654" lon="-7.175204">
        <ele>245.306</ele>
        <time>2019-06-22T14:23:24Z</time>
      </trkpt>
      <trkpt lat="41.471461" lon="-7.175142">
        <ele>245.426</ele>
        <time>2019-06-22T14:23:25Z</time>
      </trkpt>
      <trkpt lat="41.471266" lon="-7.175083">
        <ele>245.408</ele>
        <time>2019-06-22T14:23:26Z</time>
      </trkpt>
      <trkpt lat="41.471071" lon="-7.175022">
        <ele>245.751</ele>
        <time>2019-06-22T14:23:27Z</time>
      </trkpt>
      <trkpt lat="41.470877" lon="-7.174954">
        <ele>246.085</ele>
        <time>2019-06-22T14:23:28Z</time>
      </trkpt>
      <trkpt lat="41.470692" lon="-7.174904">
        <ele>246.427</ele>
        <time>2019-06-22T14:23:29Z</time>
      </trkpt>
      <trkpt lat="41.470503" lon="-7.174843">
        <ele>246.779</ele>
        <time>2019-06-22T14:23:30Z</time>
      </trkpt>
      <trkpt lat="41.470304" lon="-7.174802">
        <ele>247.237</ele>
        <time>2019-06-22T14:23:31Z</time>
      </trkpt>
      <trkpt lat="41.470103" lon="-7.174771">
        <ele>247.846</ele>
        <time>2019-06-22T14:23:32Z</time>
      </trkpt>
      <trkpt lat="41.469892" lon="-7.174745">
        <ele>247.951</ele>
        <time>2019-06-22T14:23:33Z</time>
      </trkpt>
      <trkpt lat="41.469682" lon="-7.174717">
        <ele>248.644</ele>
        <time>2019-06-22T14:23:34Z</time>
      </trkpt>
      <trkpt lat="41.469467" lon="-7.174696">
        <ele>249.165</ele>
        <time>2019-06-22T14:23:35Z</time>
      </trkpt>
      <trkpt lat="41.469248" lon="-7.174670">
        <ele>250.668</ele>
        <time>2019-06-22T14:23:36Z</time>
      </trkpt>
      <trkpt lat="41.469021" lon="-7.174644">
        <ele>251.314</ele>
        <time>2019-06-22T14:23:37Z</time>
      </trkpt>
      <trkpt lat="41.468798" lon="-7.174632">
        <ele>252.008</ele>
        <time>2019-06-22T14:23:38Z</time>
      </trkpt>
      <trkpt lat="41.468583" lon="-7.174615">
        <ele>252.049</ele>
        <time>2019-06-22T14:23:39Z</time>
      </trkpt>
      <trkpt lat="41.468375" lon="-7.174595">
        <ele>251.653</ele>
        <time>2019-06-22T14:23:40Z</time>
      </trkpt>
      <trkpt lat="41.468180" lon="-7.174574">
        <ele>251.275</ele>
        <time>2019-06-22T14:23:41Z</time>
      </trkpt>
      <trkpt lat="41.467994" lon="-7.174549">
        <ele>249.967</ele>
        <time>2019-06-22T14:23:42Z</time>
      </trkpt>
      <trkpt lat="41.467821" lon="-7.174525">
        <ele>249.665</ele>
        <time>2019-06-22T14:23:43Z</time>
      </trkpt>
      <trkpt lat="41.467645" lon="-7.174471">
        <ele>249.684</ele>
        <time>2019-06-22T14:23:44Z</time>
      </trkpt>
      <trkpt lat="41.467478" lon="-7.174401">
        <ele>250.399</ele>
        <time>2019-06-22T14:23:45Z</time>
      </trkpt>
      <trkpt lat="41.467312" lon="-7.174315">
        <ele>251.362</ele>
        <time>2019-06-22T14:23:46Z</time>
      </trkpt>
      <trkpt lat="41.467138" lon="-7.174219">
        <ele>252.642</ele>
        <time>2019-06-22T14:23:47Z</time>
      </trkpt>
      <trkpt lat="41.466964" lon="-7.174126">
        <ele>253.222</ele>
        <time>2019-06-22T14:23:48Z</time>
      </trkpt>
      <trkpt lat="41.466788" lon="-7.174034">
        <ele>253.814</ele>
        <time>2019-06-22T14:23:49Z</time>
      </trkpt>
      <trkpt lat="41.466613" lon="-7.173944">
        <ele>253.808</ele>
        <time>2019-06-22T14:23:50Z</time>
      </trkpt>
      <trkpt lat="41.466450" lon="-7.173857">
        <ele>253.147</ele>
        <time>2019-06-22T14:23:51Z</time>
      </trkpt>
      <trkpt lat="41.466293" lon="-7.173758">
        <ele>253.191</ele>
        <time>2019-06-22T14:23:52Z</time>
      </trkpt>
      <trkpt lat="41.466143" lon="-7.173633">
        <ele>253.363</ele>
        <time>2019-06-22T14:23:53Z</time>
      </trkpt>
      <trkpt lat="41.466001" lon="-7.173480">
        <ele>254.115</ele>
        <time>2019-06-22T14:23:54Z</time>
      </trkpt>
      <trkpt lat="41.465889" lon="-7.173304">
        <ele>255.573</ele>
        <time>2019-06-22T14:23:55Z</time>
      </trkpt>
      <trkpt lat="41.465785" lon="-7.173090">
        <ele>257.152</ele>
        <time>2019-06-22T14:23:56Z</time>
      </trkpt>
      <trkpt lat="41.465697" lon="-7.172851">
        <ele>258.527</ele>
        <time>2019-06-22T14:23:57Z</time>
      </trkpt>
      <trkpt lat="41.465623" lon="-7.172607">
        <ele>259.690</ele>
        <time>2019-06-22T14:23:58Z</time>
      </trkpt>
      <trkpt lat="41.465567" lon="-7.172351">
        <ele>260.084</ele>
        <time>2019-06-22T14:23:59Z</time>
      </trkpt>
      <trkpt lat="41.465540" lon="-7.172091">
        <ele>260.207</ele>
        <time>2019-06-22T14:24:00Z</time>
      </trkpt>
      <trkpt lat="41.465511" lon="-7.171814">
        <ele>260.617</ele>
        <time>2019-06-22T14:24:01Z</time>
      </trkpt>
      <trkpt lat="41.465482" lon="-7.171523">
        <ele>261.308</ele>
        <time>2019-06-22T14:24:02Z</time>
      </trkpt>
      <trkpt lat="41.465458" lon="-7.171236">
        <ele>262.031</ele>
        <time>2019-06-22T14:24:03Z</time>
      </trkpt>
      <trkpt lat="41.465423" lon="-7.170948">
        <ele>263.235</ele>
        <time>2019-06-22T14:24:04Z</time>
      </trkpt>
      <trkpt lat="41.465403" lon="-7.170656">
        <ele>264.597</ele>
        <time>2019-06-22T14:24:05Z</time>
      </trkpt>
      <trkpt lat="41.465384" lon="-7.170357">
        <ele>265.859</ele>
        <time>2019-06-22T14:24:06Z</time>
      </trkpt>
      <trkpt lat="41.465364" lon="-7.170059">
        <ele>266.857</ele>
        <time>2019-06-22T14:24:07Z</time>
      </trkpt>
      <trkpt lat="41.465348" lon="-7.169767">
        <ele>266.886</ele>
        <time>2019-06-22T14:24:08Z</time>
      </trkpt>
      <trkpt lat="41.465329" lon="-7.169486">
        <ele>267.371</ele>
        <time>2019-06-22T14:24:09Z</time>
      </trkpt>
      <trkpt lat="41.465313" lon="-7.169216">
        <ele>267.314</ele>
        <time>2019-06-22T14:24:10Z</time>
      </trkpt>
      <trkpt lat="41.465288" lon="-7.168972">
        <ele>267.428</ele>
        <time>2019-06-22T14:24:11Z</time>
      </trkpt>
      <trkpt lat="41.465269" lon="-7.168723">
        <ele>268.389</ele>
        <time>2019-06-22T14:24:12Z</time>
      </trkpt>
      <trkpt lat="41.465238" lon="-7.168455">
        <ele>269.117</ele>
        <time>2019-06-22T14:24:13Z</time>
      </trkpt>
      <trkpt lat="41.465179" lon="-7.168209">
        <ele>271.508</ele>
        <time>2019-06-22T14:24:14Z</time>
      </trkpt>
      <trkpt lat="41.465114" lon="-7.167965">
        <ele>272.725</ele>
        <time>2019-06-22T14:24:15Z</time>
      </trkpt>
      <trkpt lat="41.465027" lon="-7.167731">
        <ele>273.949</ele>
        <time>2019-06-22T14:24:16Z</time>
      </trkpt>
      <trkpt lat="41.464934" lon="-7.167509">
        <ele>275.471</ele>
        <time>2019-06-22T14:24:17Z</time>
      </trkpt>
      <trkpt lat="41.464775" lon="-7.167365">
        <ele>275.433</ele>
        <time>2019-06-22T14:24:18Z</time>
      </trkpt>
      <trkpt lat="41.464625" lon="-7.167225">
        <ele>277.521</ele>
        <time>2019-06-22T14:24:19Z</time>
      </trkpt>
      <trkpt lat="41.464473" lon="-7.167092">
        <ele>277.560</ele>
        <time>2019-06-22T14:24:20Z</time>
      </trkpt>
      <trkpt lat="41.464286" lon="-7.166998">
        <ele>278.445</ele>
        <time>2019-06-22T14:24:21Z</time>
      </trkpt>
      <trkpt lat="41.464103" lon="-7.166943">
        <ele>279.348</ele>
        <time>2019-06-22T14:24:22Z</time>
      </trkpt>
      <trkpt lat="41.463926" lon="-7.166915">
        <ele>279.387</ele>
        <time>2019-06-22T14:24:23Z</time>
      </trkpt>
      <trkpt lat="41.463726" lon="-7.166915">
        <ele>279.542</ele>
        <time>2019-06-22T14:24:24Z</time>
      </trkpt>
      <trkpt lat="41.463532" lon="-7.166917">
        <ele>280.226</ele>
        <time>2019-06-22T14:24:25Z</time>
      </trkpt>
      <trkpt lat="41.463334" lon="-7.166916">
        <ele>281.408</ele>
        <time>2019-06-22T14:24:26Z</time>
      </trkpt>
      <trkpt lat="41.463137" lon="-7.166927">
        <ele>282.981</ele>
        <time>2019-06-22T14:24:27Z</time>
      </trkpt>
      <trkpt lat="41.462921" lon="-7.166923">
        <ele>285.155</ele>
        <time>2019-06-22T14:24:28Z</time>
      </trkpt>
      <trkpt lat="41.462710" lon="-7.166928">
        <ele>287.087</ele>
        <time>2019-06-22T14:24:29Z</time>
      </trkpt>
      <trkpt lat="41.462490" lon="-7.166935">
        <ele>288.539</ele>
        <time>2019-06-22T14:24:30Z</time>
      </trkpt>
      <trkpt lat="41.462274" lon="-7.166933">
        <ele>289.967</ele>
        <time>2019-06-22T14:24:31Z</time>
      </trkpt>
      <trkpt lat="41.462060" lon="-7.166935">
        <ele>290.836</ele>
        <time>2019-06-22T14:24:32Z</time>
      </trkpt>
      <trkpt lat="41.461856" lon="-7.166948">
        <ele>291.471</ele>
        <time>2019-06-22T14:24:33Z</time>
      </trkpt>
      <trkpt lat="41.461648" lon="-7.166948">
        <ele>291.734</ele>
        <time>2019-06-22T14:24:34Z</time>
      </trkpt>
      <trkpt lat="41.461464" lon="-7.166955">
        <ele>292.133</ele>
        <time>2019-06-22T14:24:35Z</time>
      </trkpt>
      <trkpt lat="41.461277" lon="-7.166955">
        <ele>292.923</ele>
        <time>2019-06-22T14:24:36Z</time>
      </trkpt>
      <trkpt lat="41.461127" lon="-7.166967">
        <ele>293.915</ele>
        <time>2019-06-22T14:24:37Z</time>
      </trkpt>
      <trkpt lat="41.460982" lon="-7.166966">
        <ele>295.208</ele>
        <time>2019-06-22T14:24:38Z</time>
      </trkpt>
      <trkpt lat="41.460847" lon="-7.166966">
        <ele>296.886</ele>
        <time>2019-06-22T14:24:39Z</time>
      </trkpt>
      <trkpt lat="41.460732" lon="-7.166965">
        <ele>298.480</ele>
        <time>2019-06-22T14:24:40Z</time>
      </trkpt>
      <trkpt lat="41.460614" lon="-7.166968">
        <ele>299.612</ele>
        <time>2019-06-22T14:24:41Z</time>
      </trkpt>
      <trkpt lat="41.460515" lon="-7.166962">
        <ele>300.364</ele>
        <time>2019-06-22T14:24:42Z</time>
      </trkpt>
      <trkpt lat="41.460436" lon="-7.166948">
        <ele>300.762</ele>
        <time>2019-06-22T14:24:43Z</time>
      </trkpt>
      <trkpt lat="41.460368" lon="-7.166932">
        <ele>301.241</ele>
        <time>2019-06-22T14:24:44Z</time>
      </trkpt>
      <trkpt lat="41.460325" lon="-7.166897">
        <ele>301.646</ele>
        <time>2019-06-22T14:24:45Z</time>
      </trkpt>
      <trkpt lat="41.460282" lon="-7.166853">
        <ele>301.979</ele>
        <time>2019-06-22T14:24:46Z</time>
      </trkpt>
      <trkpt lat="41.460261" lon="-7.166775">
        <ele>302.324</ele>
        <time>2019-06-22T14:24:47Z</time>
      </trkpt>
      <trkpt lat="41.460245" lon="-7.166689">
        <ele>302.704</ele>
        <time>2019-06-22T14:24:48Z</time>
      </trkpt>
      <trkpt lat="41.460243" lon="-7.166590">
        <ele>302.914</ele>
        <time>2019-06-22T14:24:49Z</time>
      </trkpt>
      <trkpt lat="41.460249" lon="-7.166497">
        <ele>303.208</ele>
        <time>2019-06-22T14:24:50Z</time>
      </trkpt>
      <trkpt lat="41.460244" lon="-7.166421">
        <ele>303.575</ele>
        <time>2019-06-22T14:24:51Z</time>
      </trkpt>
      <trkpt lat="41.460234" lon="-7.166311">
        <ele>304.539</ele>
        <time>2019-06-22T14:24:53Z</time>
      </trkpt>
      <trkpt lat="41.460225" lon="-7.166250">
        <ele>305.081</ele>
        <time>2019-06-22T14:24:54Z</time>
      </trkpt>
      <trkpt lat="41.460200" lon="-7.166177">
        <ele>305.523</ele>
        <time>2019-06-22T14:24:55Z</time>
      </trkpt>
      <trkpt lat="41.460179" lon="-7.166105">
        <ele>306.061</ele>
        <time>2019-06-22T14:24:56Z</time>
      </trkpt>
      <trkpt lat="41.460157" lon="-7.166031">
        <ele>306.580</ele>
        <time>2019-06-22T14:24:57Z</time>
      </trkpt>
      <trkpt lat="41.460131" lon="-7.165957">
        <ele>307.015</ele>
        <time>2019-06-22T14:24:58Z</time>
      </trkpt>
      <trkpt lat="41.460101" lon="-7.165887">
        <ele>307.698</ele>
        <time>2019-06-22T14:24:59Z</time>
      </trkpt>
      <trkpt lat="41.460080" lon="-7.165814">
        <ele>308.238</ele>
        <time>2019-06-22T14:25:00Z</time>
      </trkpt>
      <trkpt lat="41.460060" lon="-7.165745">
        <ele>308.870</ele>
        <time>2019-06-22T14:25:01Z</time>
      </trkpt>
      <trkpt lat="41.460031" lon="-7.165681">
        <ele>309.517</ele>
        <time>2019-06-22T14:25:02Z</time>
      </trkpt>
      <trkpt lat="41.459995" lon="-7.165634">
        <ele>310.108</ele>
        <time>2019-06-22T14:25:03Z</time>
      </trkpt>
      <trkpt lat="41.459961" lon="-7.165560">
        <ele>311.376</ele>
        <time>2019-06-22T14:25:05Z</time>
      </trkpt>
      <trkpt lat="41.459925" lon="-7.165493">
        <ele>312.250</ele>
        <time>2019-06-22T14:25:07Z</time>
      </trkpt>
      <trkpt lat="41.459920" lon="-7.165428">
        <ele>314.062</ele>
        <time>2019-06-22T14:25:58Z</time>
      </trkpt>
      <trkpt lat="41.459940" lon="-7.165312">
        <ele>314.024</ele>
        <time>2019-06-22T14:26:03Z</time>
      </trkpt>
      <trkpt lat="41.459942" lon="-7.165230">
        <ele>314.042</ele>
        <time>2019-06-22T14:26:04Z</time>
      </trkpt>
      <trkpt lat="41.459948" lon="-7.165118">
        <ele>314.161</ele>
        <time>2019-06-22T14:26:05Z</time>
      </trkpt>
      <trkpt lat="41.459949" lon="-7.164995">
        <ele>314.346</ele>
        <time>2019-06-22T14:26:06Z</time>
      </trkpt>
      <trkpt lat="41.459946" lon="-7.164865">
        <ele>314.799</ele>
        <time>2019-06-22T14:26:07Z</time>
      </trkpt>
      <trkpt lat="41.459947" lon="-7.164715">
        <ele>315.273</ele>
        <time>2019-06-22T14:26:08Z</time>
      </trkpt>
      <trkpt lat="41.459939" lon="-7.164564">
        <ele>315.885</ele>
        <time>2019-06-22T14:26:09Z</time>
      </trkpt>
      <trkpt lat="41.459933" lon="-7.164411">
        <ele>316.613</ele>
        <time>2019-06-22T14:26:10Z</time>
      </trkpt>
      <trkpt lat="41.459913" lon="-7.164238">
        <ele>317.408</ele>
        <time>2019-06-22T14:26:11Z</time>
      </trkpt>
      <trkpt lat="41.459879" lon="-7.164064">
        <ele>318.290</ele>
        <time>2019-06-22T14:26:12Z</time>
      </trkpt>
      <trkpt lat="41.459820" lon="-7.163893">
        <ele>319.334</ele>
        <time>2019-06-22T14:26:13Z</time>
      </trkpt>
      <trkpt lat="41.459765" lon="-7.163706">
        <ele>320.676</ele>
        <time>2019-06-22T14:26:14Z</time>
      </trkpt>
      <trkpt lat="41.459710" lon="-7.163523">
        <ele>322.038</ele>
        <time>2019-06-22T14:26:15Z</time>
      </trkpt>
      <trkpt lat="41.459665" lon="-7.163335">
        <ele>323.456</ele>
        <time>2019-06-22T14:26:16Z</time>
      </trkpt>
      <trkpt lat="41.459636" lon="-7.163127">
        <ele>324.775</ele>
        <time>2019-06-22T14:26:17Z</time>
      </trkpt>
      <trkpt lat="41.459609" lon="-7.162929">
        <ele>326.080</ele>
        <time>2019-06-22T14:26:18Z</time>
      </trkpt>
      <trkpt lat="41.459611" lon="-7.162730">
        <ele>327.223</ele>
        <time>2019-06-22T14:26:19Z</time>
      </trkpt>
      <trkpt lat="41.459608" lon="-7.162541">
        <ele>328.737</ele>
        <time>2019-06-22T14:26:20Z</time>
      </trkpt>
      <trkpt lat="41.459629" lon="-7.162369">
        <ele>330.449</ele>
        <time>2019-06-22T14:26:21Z</time>
      </trkpt>
      <trkpt lat="41.459686" lon="-7.162190">
        <ele>332.313</ele>
        <time>2019-06-22T14:26:22Z</time>
      </trkpt>
      <trkpt lat="41.459740" lon="-7.162025">
        <ele>334.108</ele>
        <time>2019-06-22T14:26:23Z</time>
      </trkpt>
      <trkpt lat="41.459791" lon="-7.161858">
        <ele>335.546</ele>
        <time>2019-06-22T14:26:24Z</time>
      </trkpt>
      <trkpt lat="41.459821" lon="-7.161717">
        <ele>336.930</ele>
        <time>2019-06-22T14:26:25Z</time>
      </trkpt>
      <trkpt lat="41.459814" lon="-7.161592">
        <ele>337.952</ele>
        <time>2019-06-22T14:26:26Z</time>
      </trkpt>
      <trkpt lat="41.459796" lon="-7.161474">
        <ele>338.434</ele>
        <time>2019-06-22T14:26:27Z</time>
      </trkpt>
      <trkpt lat="41.459751" lon="-7.161346">
        <ele>339.012</ele>
        <time>2019-06-22T14:26:28Z</time>
      </trkpt>
      <trkpt lat="41.459707" lon="-7.161210">
        <ele>339.361</ele>
        <time>2019-06-22T14:26:29Z</time>
      </trkpt>
      <trkpt lat="41.459629" lon="-7.161098">
        <ele>339.376</ele>
        <time>2019-06-22T14:26:30Z</time>
      </trkpt>
      <trkpt lat="41.459532" lon="-7.161003">
        <ele>339.339</ele>
        <time>2019-06-22T14:26:31Z</time>
      </trkpt>
      <trkpt lat="41.459416" lon="-7.160901">
        <ele>339.326</ele>
        <time>2019-06-22T14:26:32Z</time>
      </trkpt>
      <trkpt lat="41.459288" lon="-7.160793">
        <ele>339.847</ele>
        <time>2019-06-22T14:26:33Z</time>
      </trkpt>
      <trkpt lat="41.459145" lon="-7.160677">
        <ele>340.111</ele>
        <time>2019-06-22T14:26:34Z</time>
      </trkpt>
      <trkpt lat="41.458992" lon="-7.160539">
        <ele>340.208</ele>
        <time>2019-06-22T14:26:35Z</time>
      </trkpt>
      <trkpt lat="41.458834" lon="-7.160399">
        <ele>340.295</ele>
        <time>2019-06-22T14:26:36Z</time>
      </trkpt>
      <trkpt lat="41.458662" lon="-7.160243">
        <ele>339.789</ele>
        <time>2019-06-22T14:26:37Z</time>
      </trkpt>
      <trkpt lat="41.458505" lon="-7.160115">
        <ele>337.521</ele>
        <time>2019-06-22T14:26:38Z</time>
      </trkpt>
      <trkpt lat="41.458324" lon="-7.159966">
        <ele>334.423</ele>
        <time>2019-06-22T14:26:39Z</time>
      </trkpt>
      <trkpt lat="41.458151" lon="-7.159818">
        <ele>330.921</ele>
        <time>2019-06-22T14:26:40Z</time>
      </trkpt>
      <trkpt lat="41.457981" lon="-7.159664">
        <ele>329.640</ele>
        <time>2019-06-22T14:26:41Z</time>
      </trkpt>
      <trkpt lat="41.457805" lon="-7.159521">
        <ele>328.025</ele>
        <time>2019-06-22T14:26:42Z</time>
      </trkpt>
      <trkpt lat="41.457633" lon="-7.159372">
        <ele>327.098</ele>
        <time>2019-06-22T14:26:43Z</time>
      </trkpt>
      <trkpt lat="41.457465" lon="-7.159228">
        <ele>327.047</ele>
        <time>2019-06-22T14:26:44Z</time>
      </trkpt>
      <trkpt lat="41.457308" lon="-7.159089">
        <ele>326.729</ele>
        <time>2019-06-22T14:26:45Z</time>
      </trkpt>
      <trkpt lat="41.457157" lon="-7.158966">
        <ele>325.521</ele>
        <time>2019-06-22T14:26:46Z</time>
      </trkpt>
      <trkpt lat="41.457022" lon="-7.158843">
        <ele>324.308</ele>
        <time>2019-06-22T14:26:47Z</time>
      </trkpt>
      <trkpt lat="41.456906" lon="-7.158729">
        <ele>324.387</ele>
        <time>2019-06-22T14:26:48Z</time>
      </trkpt>
      <trkpt lat="41.456793" lon="-7.158602">
        <ele>324.971</ele>
        <time>2019-06-22T14:26:49Z</time>
      </trkpt>
      <trkpt lat="41.456698" lon="-7.158472">
        <ele>325.563</ele>
        <time>2019-06-22T14:26:50Z</time>
      </trkpt>
      <trkpt lat="41.456604" lon="-7.158343">
        <ele>326.645</ele>
        <time>2019-06-22T14:26:51Z</time>
      </trkpt>
      <trkpt lat="41.456512" lon="-7.158218">
        <ele>328.323</ele>
        <time>2019-06-22T14:26:52Z</time>
      </trkpt>
      <trkpt lat="41.456416" lon="-7.158105">
        <ele>329.852</ele>
        <time>2019-06-22T14:26:53Z</time>
      </trkpt>
      <trkpt lat="41.456331" lon="-7.157976">
        <ele>329.957</ele>
        <time>2019-06-22T14:26:54Z</time>
      </trkpt>
      <trkpt lat="41.456255" lon="-7.157822">
        <ele>329.990</ele>
        <time>2019-06-22T14:26:55Z</time>
      </trkpt>
      <trkpt lat="41.456181" lon="-7.157671">
        <ele>329.945</ele>
        <time>2019-06-22T14:26:56Z</time>
      </trkpt>
      <trkpt lat="41.456161" lon="-7.157441">
        <ele>329.647</ele>
        <time>2019-06-22T14:26:57Z</time>
      </trkpt>
      <trkpt lat="41.456132" lon="-7.157236">
        <ele>328.511</ele>
        <time>2019-06-22T14:26:58Z</time>
      </trkpt>
      <trkpt lat="41.456075" lon="-7.157047">
        <ele>327.608</ele>
        <time>2019-06-22T14:26:59Z</time>
      </trkpt>
      <trkpt lat="41.456008" lon="-7.156891">
        <ele>326.597</ele>
        <time>2019-06-22T14:27:00Z</time>
      </trkpt>
      <trkpt lat="41.455924" lon="-7.156740">
        <ele>325.471</ele>
        <time>2019-06-22T14:27:01Z</time>
      </trkpt>
      <trkpt lat="41.455809" lon="-7.156627">
        <ele>325.333</ele>
        <time>2019-06-22T14:27:02Z</time>
      </trkpt>
      <trkpt lat="41.455681" lon="-7.156515">
        <ele>325.385</ele>
        <time>2019-06-22T14:27:03Z</time>
      </trkpt>
      <trkpt lat="41.455548" lon="-7.156393">
        <ele>326.173</ele>
        <time>2019-06-22T14:27:04Z</time>
      </trkpt>
      <trkpt lat="41.455417" lon="-7.156252">
        <ele>327.252</ele>
        <time>2019-06-22T14:27:05Z</time>
      </trkpt>
      <trkpt lat="41.455286" lon="-7.156114">
        <ele>328.897</ele>
        <time>2019-06-22T14:27:06Z</time>
      </trkpt>
      <trkpt lat="41.455155" lon="-7.155995">
        <ele>329.980</ele>
        <time>2019-06-22T14:27:07Z</time>
      </trkpt>
      <trkpt lat="41.455025" lon="-7.155884">
        <ele>331.081</ele>
        <time>2019-06-22T14:27:08Z</time>
      </trkpt>
      <trkpt lat="41.454895" lon="-7.155781">
        <ele>332.561</ele>
        <time>2019-06-22T14:27:09Z</time>
      </trkpt>
      <trkpt lat="41.454763" lon="-7.155685">
        <ele>333.517</ele>
        <time>2019-06-22T14:27:10Z</time>
      </trkpt>
      <trkpt lat="41.454623" lon="-7.155668">
        <ele>335.008</ele>
        <time>2019-06-22T14:27:11Z</time>
      </trkpt>
      <trkpt lat="41.454462" lon="-7.155618">
        <ele>336.521</ele>
        <time>2019-06-22T14:27:12Z</time>
      </trkpt>
      <trkpt lat="41.454300" lon="-7.155573">
        <ele>338.315</ele>
        <time>2019-06-22T14:27:13Z</time>
      </trkpt>
      <trkpt lat="41.454147" lon="-7.155510">
        <ele>339.257</ele>
        <time>2019-06-22T14:27:14Z</time>
      </trkpt>
      <trkpt lat="41.454009" lon="-7.155457">
        <ele>340.859</ele>
        <time>2019-06-22T14:27:15Z</time>
      </trkpt>
      <trkpt lat="41.453879" lon="-7.155385">
        <ele>342.537</ele>
        <time>2019-06-22T14:27:16Z</time>
      </trkpt>
      <trkpt lat="41.453755" lon="-7.155300">
        <ele>344.526</ele>
        <time>2019-06-22T14:27:17Z</time>
      </trkpt>
      <trkpt lat="41.453621" lon="-7.155202">
        <ele>345.691</ele>
        <time>2019-06-22T14:27:18Z</time>
      </trkpt>
      <trkpt lat="41.453486" lon="-7.155100">
        <ele>346.814</ele>
        <time>2019-06-22T14:27:19Z</time>
      </trkpt>
      <trkpt lat="41.453338" lon="-7.154998">
        <ele>347.291</ele>
        <time>2019-06-22T14:27:20Z</time>
      </trkpt>
      <trkpt lat="41.453201" lon="-7.154896">
        <ele>347.281</ele>
        <time>2019-06-22T14:27:21Z</time>
      </trkpt>
      <trkpt lat="41.453062" lon="-7.154802">
        <ele>346.019</ele>
        <time>2019-06-22T14:27:22Z</time>
      </trkpt>
      <trkpt lat="41.452930" lon="-7.154707">
        <ele>344.508</ele>
        <time>2019-06-22T14:27:23Z</time>
      </trkpt>
      <trkpt lat="41.452806" lon="-7.154605">
        <ele>342.372</ele>
        <time>2019-06-22T14:27:24Z</time>
      </trkpt>
      <trkpt lat="41.452696" lon="-7.154491">
        <ele>341.016</ele>
        <time>2019-06-22T14:27:25Z</time>
      </trkpt>
      <trkpt lat="41.452591" lon="-7.154363">
        <ele>339.598</ele>
        <time>2019-06-22T14:27:26Z</time>
      </trkpt>
      <trkpt lat="41.452505" lon="-7.154213">
        <ele>337.710</ele>
        <time>2019-06-22T14:27:27Z</time>
      </trkpt>
      <trkpt lat="41.452417" lon="-7.154058">
        <ele>336.728</ele>
        <time>2019-06-22T14:27:28Z</time>
      </trkpt>
      <trkpt lat="41.452354" lon="-7.153834">
        <ele>336.567</ele>
        <time>2019-06-22T14:27:29Z</time>
      </trkpt>
      <trkpt lat="41.452284" lon="-7.153617">
        <ele>335.862</ele>
        <time>2019-06-22T14:27:30Z</time>
      </trkpt>
      <trkpt lat="41.452213" lon="-7.153384">
        <ele>335.215</ele>
        <time>2019-06-22T14:27:31Z</time>
      </trkpt>
      <trkpt lat="41.452141" lon="-7.153145">
        <ele>334.924</ele>
        <time>2019-06-22T14:27:32Z</time>
      </trkpt>
      <trkpt lat="41.452068" lon="-7.152905">
        <ele>334.804</ele>
        <time>2019-06-22T14:27:33Z</time>
      </trkpt>
      <trkpt lat="41.451988" lon="-7.152662">
        <ele>334.814</ele>
        <time>2019-06-22T14:27:34Z</time>
      </trkpt>
      <trkpt lat="41.451905" lon="-7.152413">
        <ele>334.808</ele>
        <time>2019-06-22T14:27:35Z</time>
      </trkpt>
      <trkpt lat="41.451823" lon="-7.152175">
        <ele>334.885</ele>
        <time>2019-06-22T14:27:36Z</time>
      </trkpt>
      <trkpt lat="41.451744" lon="-7.151926">
        <ele>335.069</ele>
        <time>2019-06-22T14:27:37Z</time>
      </trkpt>
      <trkpt lat="41.451667" lon="-7.151680">
        <ele>335.791</ele>
        <time>2019-06-22T14:27:38Z</time>
      </trkpt>
      <trkpt lat="41.451592" lon="-7.151433">
        <ele>336.653</ele>
        <time>2019-06-22T14:27:39Z</time>
      </trkpt>
      <trkpt lat="41.451524" lon="-7.151192">
        <ele>337.681</ele>
        <time>2019-06-22T14:27:40Z</time>
      </trkpt>
      <trkpt lat="41.451457" lon="-7.150951">
        <ele>339.180</ele>
        <time>2019-06-22T14:27:41Z</time>
      </trkpt>
      <trkpt lat="41.451404" lon="-7.150742">
        <ele>340.055</ele>
        <time>2019-06-22T14:27:42Z</time>
      </trkpt>
      <trkpt lat="41.451362" lon="-7.150525">
        <ele>341.598</ele>
        <time>2019-06-22T14:27:43Z</time>
      </trkpt>
      <trkpt lat="41.451337" lon="-7.150300">
        <ele>343.546</ele>
        <time>2019-06-22T14:27:44Z</time>
      </trkpt>
      <trkpt lat="41.451341" lon="-7.150082">
        <ele>345.288</ele>
        <time>2019-06-22T14:27:45Z</time>
      </trkpt>
      <trkpt lat="41.451364" lon="-7.149841">
        <ele>347.016</ele>
        <time>2019-06-22T14:27:46Z</time>
      </trkpt>
      <trkpt lat="41.451377" lon="-7.149595">
        <ele>348.508</ele>
        <time>2019-06-22T14:27:47Z</time>
      </trkpt>
      <trkpt lat="41.451401" lon="-7.149349">
        <ele>350.547</ele>
        <time>2019-06-22T14:27:48Z</time>
      </trkpt>
      <trkpt lat="41.451431" lon="-7.149103">
        <ele>351.991</ele>
        <time>2019-06-22T14:27:49Z</time>
      </trkpt>
      <trkpt lat="41.451457" lon="-7.148849">
        <ele>353.473</ele>
        <time>2019-06-22T14:27:50Z</time>
      </trkpt>
      <trkpt lat="41.451486" lon="-7.148622">
        <ele>354.645</ele>
        <time>2019-06-22T14:27:51Z</time>
      </trkpt>
      <trkpt lat="41.451508" lon="-7.148366">
        <ele>356.283</ele>
        <time>2019-06-22T14:27:52Z</time>
      </trkpt>
      <trkpt lat="41.451511" lon="-7.148118">
        <ele>357.832</ele>
        <time>2019-06-22T14:27:53Z</time>
      </trkpt>
      <trkpt lat="41.451506" lon="-7.147874">
        <ele>359.437</ele>
        <time>2019-06-22T14:27:54Z</time>
      </trkpt>
      <trkpt lat="41.451489" lon="-7.147626">
        <ele>361.080</ele>
        <time>2019-06-22T14:27:55Z</time>
      </trkpt>
      <trkpt lat="41.451442" lon="-7.147392">
        <ele>362.736</ele>
        <time>2019-06-22T14:27:56Z</time>
      </trkpt>
      <trkpt lat="41.451387" lon="-7.147156">
        <ele>364.917</ele>
        <time>2019-06-22T14:27:57Z</time>
      </trkpt>
      <trkpt lat="41.451329" lon="-7.146932">
        <ele>366.718</ele>
        <time>2019-06-22T14:27:58Z</time>
      </trkpt>
      <trkpt lat="41.451276" lon="-7.146726">
        <ele>368.508</ele>
        <time>2019-06-22T14:27:59Z</time>
      </trkpt>
      <trkpt lat="41.451216" lon="-7.146527">
        <ele>370.116</ele>
        <time>2019-06-22T14:28:00Z</time>
      </trkpt>
      <trkpt lat="41.451146" lon="-7.146342">
        <ele>371.570</ele>
        <time>2019-06-22T14:28:01Z</time>
      </trkpt>
      <trkpt lat="41.451049" lon="-7.146172">
        <ele>372.342</ele>
        <time>2019-06-22T14:28:02Z</time>
      </trkpt>
      <trkpt lat="41.450936" lon="-7.146027">
        <ele>373.044</ele>
        <time>2019-06-22T14:28:03Z</time>
      </trkpt>
      <trkpt lat="41.450807" lon="-7.145911">
        <ele>373.692</ele>
        <time>2019-06-22T14:28:04Z</time>
      </trkpt>
      <trkpt lat="41.450655" lon="-7.145813">
        <ele>373.931</ele>
        <time>2019-06-22T14:28:05Z</time>
      </trkpt>
      <trkpt lat="41.450496" lon="-7.145730">
        <ele>374.586</ele>
        <time>2019-06-22T14:28:06Z</time>
      </trkpt>
      <trkpt lat="41.450333" lon="-7.145659">
        <ele>375.679</ele>
        <time>2019-06-22T14:28:07Z</time>
      </trkpt>
      <trkpt lat="41.450172" lon="-7.145586">
        <ele>377.036</ele>
        <time>2019-06-22T14:28:08Z</time>
      </trkpt>
      <trkpt lat="41.450011" lon="-7.145514">
        <ele>378.217</ele>
        <time>2019-06-22T14:28:09Z</time>
      </trkpt>
      <trkpt lat="41.449869" lon="-7.145434">
        <ele>379.718</ele>
        <time>2019-06-22T14:28:10Z</time>
      </trkpt>
      <trkpt lat="41.449743" lon="-7.145339">
        <ele>380.708</ele>
        <time>2019-06-22T14:28:11Z</time>
      </trkpt>
      <trkpt lat="41.449630" lon="-7.145218">
        <ele>381.586</ele>
        <time>2019-06-22T14:28:12Z</time>
      </trkpt>
      <trkpt lat="41.449513" lon="-7.145091">
        <ele>382.460</ele>
        <time>2019-06-22T14:28:13Z</time>
      </trkpt>
      <trkpt lat="41.449402" lon="-7.144903">
        <ele>382.782</ele>
        <time>2019-06-22T14:28:14Z</time>
      </trkpt>
      <trkpt lat="41.449296" lon="-7.144730">
        <ele>382.754</ele>
        <time>2019-06-22T14:28:15Z</time>
      </trkpt>
      <trkpt lat="41.449187" lon="-7.144525">
        <ele>381.472</ele>
        <time>2019-06-22T14:28:16Z</time>
      </trkpt>
      <trkpt lat="41.449065" lon="-7.144334">
        <ele>380.161</ele>
        <time>2019-06-22T14:28:17Z</time>
      </trkpt>
      <trkpt lat="41.448944" lon="-7.144157">
        <ele>378.026</ele>
        <time>2019-06-22T14:28:18Z</time>
      </trkpt>
      <trkpt lat="41.448809" lon="-7.144001">
        <ele>375.439</ele>
        <time>2019-06-22T14:28:19Z</time>
      </trkpt>
      <trkpt lat="41.448645" lon="-7.143866">
        <ele>371.626</ele>
        <time>2019-06-22T14:28:20Z</time>
      </trkpt>
      <trkpt lat="41.448475" lon="-7.143754">
        <ele>370.147</ele>
        <time>2019-06-22T14:28:21Z</time>
      </trkpt>
      <trkpt lat="41.448302" lon="-7.143648">
        <ele>369.511</ele>
        <time>2019-06-22T14:28:22Z</time>
      </trkpt>
      <trkpt lat="41.448131" lon="-7.143561">
        <ele>369.508</ele>
        <time>2019-06-22T14:28:23Z</time>
      </trkpt>
      <trkpt lat="41.447950" lon="-7.143485">
        <ele>369.965</ele>
        <time>2019-06-22T14:28:24Z</time>
      </trkpt>
      <trkpt lat="41.447778" lon="-7.143394">
        <ele>372.399</ele>
        <time>2019-06-22T14:28:25Z</time>
      </trkpt>
      <trkpt lat="41.447616" lon="-7.143300">
        <ele>373.431</ele>
        <time>2019-06-22T14:28:26Z</time>
      </trkpt>
      <trkpt lat="41.447489" lon="-7.143187">
        <ele>374.783</ele>
        <time>2019-06-22T14:28:27Z</time>
      </trkpt>
      <trkpt lat="41.447375" lon="-7.143065">
        <ele>375.731</ele>
        <time>2019-06-22T14:28:28Z</time>
      </trkpt>
      <trkpt lat="41.447290" lon="-7.142927">
        <ele>376.920</ele>
        <time>2019-06-22T14:28:29Z</time>
      </trkpt>
      <trkpt lat="41.447208" lon="-7.142779">
        <ele>378.435</ele>
        <time>2019-06-22T14:28:30Z</time>
      </trkpt>
      <trkpt lat="41.447138" lon="-7.142625">
        <ele>380.558</ele>
        <time>2019-06-22T14:28:31Z</time>
      </trkpt>
      <trkpt lat="41.447098" lon="-7.142404">
        <ele>381.539</ele>
        <time>2019-06-22T14:28:32Z</time>
      </trkpt>
      <trkpt lat="41.447066" lon="-7.142187">
        <ele>382.801</ele>
        <time>2019-06-22T14:28:33Z</time>
      </trkpt>
      <trkpt lat="41.447027" lon="-7.141940">
        <ele>383.721</ele>
        <time>2019-06-22T14:28:34Z</time>
      </trkpt>
      <trkpt lat="41.446990" lon="-7.141695">
        <ele>383.708</ele>
        <time>2019-06-22T14:28:35Z</time>
      </trkpt>
      <trkpt lat="41.446957" lon="-7.141446">
        <ele>383.796</ele>
        <time>2019-06-22T14:28:36Z</time>
      </trkpt>
      <trkpt lat="41.446913" lon="-7.141183">
        <ele>383.720</ele>
        <time>2019-06-22T14:28:37Z</time>
      </trkpt>
      <trkpt lat="41.446870" lon="-7.140910">
        <ele>383.822</ele>
        <time>2019-06-22T14:28:38Z</time>
      </trkpt>
      <trkpt lat="41.446830" lon="-7.140633">
        <ele>384.154</ele>
        <time>2019-06-22T14:28:39Z</time>
      </trkpt>
      <trkpt lat="41.446792" lon="-7.140355">
        <ele>384.112</ele>
        <time>2019-06-22T14:28:40Z</time>
      </trkpt>
      <trkpt lat="41.446754" lon="-7.140081">
        <ele>384.121</ele>
        <time>2019-06-22T14:28:41Z</time>
      </trkpt>
      <trkpt lat="41.446709" lon="-7.139787">
        <ele>383.576</ele>
        <time>2019-06-22T14:28:42Z</time>
      </trkpt>
      <trkpt lat="41.446693" lon="-7.139489">
        <ele>383.569</ele>
        <time>2019-06-22T14:28:43Z</time>
      </trkpt>
      <trkpt lat="41.446664" lon="-7.139191">
        <ele>383.279</ele>
        <time>2019-06-22T14:28:44Z</time>
      </trkpt>
      <trkpt lat="41.446618" lon="-7.138901">
        <ele>383.205</ele>
        <time>2019-06-22T14:28:45Z</time>
      </trkpt>
      <trkpt lat="41.446586" lon="-7.138622">
        <ele>383.725</ele>
        <time>2019-06-22T14:28:46Z</time>
      </trkpt>
      <trkpt lat="41.446554" lon="-7.138324">
        <ele>385.708</ele>
        <time>2019-06-22T14:28:47Z</time>
      </trkpt>
      <trkpt lat="41.446527" lon="-7.138032">
        <ele>387.880</ele>
        <time>2019-06-22T14:28:48Z</time>
      </trkpt>
      <trkpt lat="41.446506" lon="-7.137745">
        <ele>390.384</ele>
        <time>2019-06-22T14:28:49Z</time>
      </trkpt>
      <trkpt lat="41.446483" lon="-7.137453">
        <ele>392.696</ele>
        <time>2019-06-22T14:28:50Z</time>
      </trkpt>
      <trkpt lat="41.446462" lon="-7.137163">
        <ele>394.998</ele>
        <time>2019-06-22T14:28:51Z</time>
      </trkpt>
      <trkpt lat="41.446439" lon="-7.136886">
        <ele>396.956</ele>
        <time>2019-06-22T14:28:52Z</time>
      </trkpt>
      <trkpt lat="41.446423" lon="-7.136616">
        <ele>398.135</ele>
        <time>2019-06-22T14:28:53Z</time>
      </trkpt>
      <trkpt lat="41.446393" lon="-7.136368">
        <ele>398.940</ele>
        <time>2019-06-22T14:28:54Z</time>
      </trkpt>
      <trkpt lat="41.446384" lon="-7.136132">
        <ele>400.793</ele>
        <time>2019-06-22T14:28:55Z</time>
      </trkpt>
      <trkpt lat="41.446437" lon="-7.135885">
        <ele>402.516</ele>
        <time>2019-06-22T14:28:56Z</time>
      </trkpt>
      <trkpt lat="41.446478" lon="-7.135654">
        <ele>404.076</ele>
        <time>2019-06-22T14:28:57Z</time>
      </trkpt>
      <trkpt lat="41.446546" lon="-7.135420">
        <ele>406.113</ele>
        <time>2019-06-22T14:28:58Z</time>
      </trkpt>
      <trkpt lat="41.446612" lon="-7.135206">
        <ele>408.808</ele>
        <time>2019-06-22T14:28:59Z</time>
      </trkpt>
      <trkpt lat="41.446673" lon="-7.134988">
        <ele>409.694</ele>
        <time>2019-06-22T14:29:00Z</time>
      </trkpt>
      <trkpt lat="41.446750" lon="-7.134792">
        <ele>411.248</ele>
        <time>2019-06-22T14:29:01Z</time>
      </trkpt>
      <trkpt lat="41.446839" lon="-7.134616">
        <ele>413.110</ele>
        <time>2019-06-22T14:29:02Z</time>
      </trkpt>
      <trkpt lat="41.446956" lon="-7.134463">
        <ele>415.252</ele>
        <time>2019-06-22T14:29:03Z</time>
      </trkpt>
      <trkpt lat="41.447070" lon="-7.134335">
        <ele>417.060</ele>
        <time>2019-06-22T14:29:04Z</time>
      </trkpt>
      <trkpt lat="41.447181" lon="-7.134231">
        <ele>418.629</ele>
        <time>2019-06-22T14:29:05Z</time>
      </trkpt>
      <trkpt lat="41.447285" lon="-7.134106">
        <ele>419.794</ele>
        <time>2019-06-22T14:29:06Z</time>
      </trkpt>
      <trkpt lat="41.447390" lon="-7.133992">
        <ele>420.497</ele>
        <time>2019-06-22T14:29:07Z</time>
      </trkpt>
      <trkpt lat="41.447392" lon="-7.133831">
        <ele>420.943</ele>
        <time>2019-06-22T14:29:08Z</time>
      </trkpt>
      <trkpt lat="41.447405" lon="-7.133663">
        <ele>422.064</ele>
        <time>2019-06-22T14:29:09Z</time>
      </trkpt>
      <trkpt lat="41.447405" lon="-7.133499">
        <ele>423.710</ele>
        <time>2019-06-22T14:29:10Z</time>
      </trkpt>
      <trkpt lat="41.447418" lon="-7.133318">
        <ele>425.808</ele>
        <time>2019-06-22T14:29:11Z</time>
      </trkpt>
      <trkpt lat="41.447434" lon="-7.133118">
        <ele>427.597</ele>
        <time>2019-06-22T14:29:12Z</time>
      </trkpt>
      <trkpt lat="41.447461" lon="-7.132918">
        <ele>429.361</ele>
        <time>2019-06-22T14:29:13Z</time>
      </trkpt>
      <trkpt lat="41.447515" lon="-7.132712">
        <ele>430.473</ele>
        <time>2019-06-22T14:29:14Z</time>
      </trkpt>
      <trkpt lat="41.447588" lon="-7.132525">
        <ele>431.715</ele>
        <time>2019-06-22T14:29:15Z</time>
      </trkpt>
      <trkpt lat="41.447685" lon="-7.132337">
        <ele>432.813</ele>
        <time>2019-06-22T14:29:16Z</time>
      </trkpt>
      <trkpt lat="41.447788" lon="-7.132149">
        <ele>433.812</ele>
        <time>2019-06-22T14:29:17Z</time>
      </trkpt>
      <trkpt lat="41.447883" lon="-7.131964">
        <ele>434.627</ele>
        <time>2019-06-22T14:29:18Z</time>
      </trkpt>
      <trkpt lat="41.447985" lon="-7.131784">
        <ele>435.560</ele>
        <time>2019-06-22T14:29:19Z</time>
      </trkpt>
      <trkpt lat="41.448086" lon="-7.131612">
        <ele>436.699</ele>
        <time>2019-06-22T14:29:20Z</time>
      </trkpt>
      <trkpt lat="41.448178" lon="-7.131464">
        <ele>437.507</ele>
        <time>2019-06-22T14:29:21Z</time>
      </trkpt>
      <trkpt lat="41.448262" lon="-7.131306">
        <ele>438.727</ele>
        <time>2019-06-22T14:29:22Z</time>
      </trkpt>
      <trkpt lat="41.448344" lon="-7.131151">
        <ele>439.808</ele>
        <time>2019-06-22T14:29:23Z</time>
      </trkpt>
      <trkpt lat="41.448417" lon="-7.130996">
        <ele>441.192</ele>
        <time>2019-06-22T14:29:24Z</time>
      </trkpt>
      <trkpt lat="41.448498" lon="-7.130834">
        <ele>441.816</ele>
        <time>2019-06-22T14:29:25Z</time>
      </trkpt>
      <trkpt lat="41.448567" lon="-7.130623">
        <ele>441.898</ele>
        <time>2019-06-22T14:29:26Z</time>
      </trkpt>
      <trkpt lat="41.448627" lon="-7.130400">
        <ele>441.120</ele>
        <time>2019-06-22T14:29:27Z</time>
      </trkpt>
      <trkpt lat="41.448668" lon="-7.130162">
        <ele>440.398</ele>
        <time>2019-06-22T14:29:28Z</time>
      </trkpt>
      <trkpt lat="41.448693" lon="-7.129932">
        <ele>439.587</ele>
        <time>2019-06-22T14:29:29Z</time>
      </trkpt>
      <trkpt lat="41.448723" lon="-7.129685">
        <ele>439.052</ele>
        <time>2019-06-22T14:29:30Z</time>
      </trkpt>
      <trkpt lat="41.448741" lon="-7.129442">
        <ele>439.015</ele>
        <time>2019-06-22T14:29:31Z</time>
      </trkpt>
      <trkpt lat="41.448774" lon="-7.129204">
        <ele>440.178</ele>
        <time>2019-06-22T14:29:32Z</time>
      </trkpt>
      <trkpt lat="41.448802" lon="-7.128996">
        <ele>441.433</ele>
        <time>2019-06-22T14:29:33Z</time>
      </trkpt>
      <trkpt lat="41.448811" lon="-7.128786">
        <ele>443.226</ele>
        <time>2019-06-22T14:29:34Z</time>
      </trkpt>
      <trkpt lat="41.448806" lon="-7.128576">
        <ele>444.708</ele>
        <time>2019-06-22T14:29:35Z</time>
      </trkpt>
      <trkpt lat="41.448769" lon="-7.128366">
        <ele>445.440</ele>
        <time>2019-06-22T14:29:36Z</time>
      </trkpt>
      <trkpt lat="41.448719" lon="-7.128166">
        <ele>446.784</ele>
        <time>2019-06-22T14:29:37Z</time>
      </trkpt>
      <trkpt lat="41.448637" lon="-7.127975">
        <ele>446.786</ele>
        <time>2019-06-22T14:29:38Z</time>
      </trkpt>
      <trkpt lat="41.448541" lon="-7.127787">
        <ele>446.788</ele>
        <time>2019-06-22T14:29:39Z</time>
      </trkpt>
      <trkpt lat="41.448451" lon="-7.127599">
        <ele>446.746</ele>
        <time>2019-06-22T14:29:40Z</time>
      </trkpt>
      <trkpt lat="41.448363" lon="-7.127435">
        <ele>446.875</ele>
        <time>2019-06-22T14:29:41Z</time>
      </trkpt>
      <trkpt lat="41.448284" lon="-7.127254">
        <ele>447.070</ele>
        <time>2019-06-22T14:29:42Z</time>
      </trkpt>
      <trkpt lat="41.448203" lon="-7.127072">
        <ele>447.043</ele>
        <time>2019-06-22T14:29:43Z</time>
      </trkpt>
      <trkpt lat="41.448139" lon="-7.126883">
        <ele>449.289</ele>
        <time>2019-06-22T14:29:44Z</time>
      </trkpt>
      <trkpt lat="41.448067" lon="-7.126696">
        <ele>449.206</ele>
        <time>2019-06-22T14:29:45Z</time>
      </trkpt>
      <trkpt lat="41.447995" lon="-7.126533">
        <ele>449.226</ele>
        <time>2019-06-22T14:29:46Z</time>
      </trkpt>
      <trkpt lat="41.447910" lon="-7.126365">
        <ele>448.808</ele>
        <time>2019-06-22T14:29:47Z</time>
      </trkpt>
      <trkpt lat="41.447806" lon="-7.126240">
        <ele>448.041</ele>
        <time>2019-06-22T14:29:48Z</time>
      </trkpt>
      <trkpt lat="41.447684" lon="-7.126180">
        <ele>446.125</ele>
        <time>2019-06-22T14:29:49Z</time>
      </trkpt>
      <trkpt lat="41.447535" lon="-7.126147">
        <ele>444.567</ele>
        <time>2019-06-22T14:29:50Z</time>
      </trkpt>
      <trkpt lat="41.447408" lon="-7.126113">
        <ele>444.589</ele>
        <time>2019-06-22T14:29:51Z</time>
      </trkpt>
      <trkpt lat="41.447292" lon="-7.126050">
        <ele>444.677</ele>
        <time>2019-06-22T14:29:52Z</time>
      </trkpt>
      <trkpt lat="41.447174" lon="-7.125970">
        <ele>445.386</ele>
        <time>2019-06-22T14:29:53Z</time>
      </trkpt>
      <trkpt lat="41.447052" lon="-7.125820">
        <ele>446.561</ele>
        <time>2019-06-22T14:29:54Z</time>
      </trkpt>
      <trkpt lat="41.446926" lon="-7.125670">
        <ele>447.434</ele>
        <time>2019-06-22T14:29:55Z</time>
      </trkpt>
      <trkpt lat="41.446801" lon="-7.125518">
        <ele>447.456</ele>
        <time>2019-06-22T14:29:56Z</time>
      </trkpt>
      <trkpt lat="41.446675" lon="-7.125367">
        <ele>447.159</ele>
        <time>2019-06-22T14:29:57Z</time>
      </trkpt>
      <trkpt lat="41.446547" lon="-7.125216">
        <ele>446.214</ele>
        <time>2019-06-22T14:29:58Z</time>
      </trkpt>
      <trkpt lat="41.446411" lon="-7.125077">
        <ele>445.308</ele>
        <time>2019-06-22T14:29:59Z</time>
      </trkpt>
      <trkpt lat="41.446268" lon="-7.124959">
        <ele>444.148</ele>
        <time>2019-06-22T14:30:00Z</time>
      </trkpt>
      <trkpt lat="41.446082" lon="-7.124867">
        <ele>442.872</ele>
        <time>2019-06-22T14:30:01Z</time>
      </trkpt>
      <trkpt lat="41.445899" lon="-7.124744">
        <ele>442.354</ele>
        <time>2019-06-22T14:30:02Z</time>
      </trkpt>
      <trkpt lat="41.445750" lon="-7.124612">
        <ele>442.326</ele>
        <time>2019-06-22T14:30:03Z</time>
      </trkpt>
      <trkpt lat="41.445604" lon="-7.124475">
        <ele>442.834</ele>
        <time>2019-06-22T14:30:04Z</time>
      </trkpt>
      <trkpt lat="41.445466" lon="-7.124345">
        <ele>443.143</ele>
        <time>2019-06-22T14:30:05Z</time>
      </trkpt>
      <trkpt lat="41.445339" lon="-7.124232">
        <ele>443.188</ele>
        <time>2019-06-22T14:30:06Z</time>
      </trkpt>
      <trkpt lat="41.445220" lon="-7.124120">
        <ele>443.111</ele>
        <time>2019-06-22T14:30:07Z</time>
      </trkpt>
      <trkpt lat="41.445131" lon="-7.124002">
        <ele>443.144</ele>
        <time>2019-06-22T14:30:08Z</time>
      </trkpt>
      <trkpt lat="41.445053" lon="-7.123860">
        <ele>443.205</ele>
        <time>2019-06-22T14:30:09Z</time>
      </trkpt>
      <trkpt lat="41.444992" lon="-7.123685">
        <ele>443.915</ele>
        <time>2019-06-22T14:30:10Z</time>
      </trkpt>
      <trkpt lat="41.444941" lon="-7.123510">
        <ele>445.008</ele>
        <time>2019-06-22T14:30:11Z</time>
      </trkpt>
      <trkpt lat="41.444944" lon="-7.123274">
        <ele>446.067</ele>
        <time>2019-06-22T14:30:12Z</time>
      </trkpt>
      <trkpt lat="41.444949" lon="-7.123042">
        <ele>446.211</ele>
        <time>2019-06-22T14:30:13Z</time>
      </trkpt>
      <trkpt lat="41.444940" lon="-7.122807">
        <ele>446.283</ele>
        <time>2019-06-22T14:30:14Z</time>
      </trkpt>
      <trkpt lat="41.444941" lon="-7.122584">
        <ele>445.045</ele>
        <time>2019-06-22T14:30:15Z</time>
      </trkpt>
      <trkpt lat="41.444928" lon="-7.122348">
        <ele>443.993</ele>
        <time>2019-06-22T14:30:16Z</time>
      </trkpt>
      <trkpt lat="41.444916" lon="-7.122130">
        <ele>442.622</ele>
        <time>2019-06-22T14:30:17Z</time>
      </trkpt>
      <trkpt lat="41.444909" lon="-7.121911">
        <ele>441.167</ele>
        <time>2019-06-22T14:30:18Z</time>
      </trkpt>
      <trkpt lat="41.444907" lon="-7.121696">
        <ele>439.550</ele>
        <time>2019-06-22T14:30:19Z</time>
      </trkpt>
      <trkpt lat="41.444901" lon="-7.121480">
        <ele>438.342</ele>
        <time>2019-06-22T14:30:20Z</time>
      </trkpt>
      <trkpt lat="41.444911" lon="-7.121272">
        <ele>437.522</ele>
        <time>2019-06-22T14:30:21Z</time>
      </trkpt>
      <trkpt lat="41.444924" lon="-7.121069">
        <ele>437.114</ele>
        <time>2019-06-22T14:30:22Z</time>
      </trkpt>
      <trkpt lat="41.444947" lon="-7.120844">
        <ele>437.008</ele>
        <time>2019-06-22T14:30:23Z</time>
      </trkpt>
      <trkpt lat="41.444967" lon="-7.120623">
        <ele>437.017</ele>
        <time>2019-06-22T14:30:24Z</time>
      </trkpt>
      <trkpt lat="41.444985" lon="-7.120417">
        <ele>437.051</ele>
        <time>2019-06-22T14:30:25Z</time>
      </trkpt>
      <trkpt lat="41.445003" lon="-7.120226">
        <ele>436.733</ele>
        <time>2019-06-22T14:30:26Z</time>
      </trkpt>
      <trkpt lat="41.445004" lon="-7.120049">
        <ele>435.935</ele>
        <time>2019-06-22T14:30:27Z</time>
      </trkpt>
      <trkpt lat="41.444986" lon="-7.119871">
        <ele>434.783</ele>
        <time>2019-06-22T14:30:28Z</time>
      </trkpt>
      <trkpt lat="41.444954" lon="-7.119725">
        <ele>433.832</ele>
        <time>2019-06-22T14:30:29Z</time>
      </trkpt>
      <trkpt lat="41.444883" lon="-7.119560">
        <ele>432.647</ele>
        <time>2019-06-22T14:30:30Z</time>
      </trkpt>
      <trkpt lat="41.444801" lon="-7.119402">
        <ele>431.230</ele>
        <time>2019-06-22T14:30:31Z</time>
      </trkpt>
      <trkpt lat="41.444690" lon="-7.119239">
        <ele>430.228</ele>
        <time>2019-06-22T14:30:32Z</time>
      </trkpt>
      <trkpt lat="41.444591" lon="-7.119073">
        <ele>430.189</ele>
        <time>2019-06-22T14:30:33Z</time>
      </trkpt>
      <trkpt lat="41.444499" lon="-7.118844">
        <ele>430.017</ele>
        <time>2019-06-22T14:30:34Z</time>
      </trkpt>
      <trkpt lat="41.444408" lon="-7.118606">
        <ele>429.508</ele>
        <time>2019-06-22T14:30:35Z</time>
      </trkpt>
      <trkpt lat="41.444322" lon="-7.118352">
        <ele>429.215</ele>
        <time>2019-06-22T14:30:36Z</time>
      </trkpt>
      <trkpt lat="41.444235" lon="-7.118082">
        <ele>428.389</ele>
        <time>2019-06-22T14:30:37Z</time>
      </trkpt>
      <trkpt lat="41.444140" lon="-7.117813">
        <ele>426.931</ele>
        <time>2019-06-22T14:30:38Z</time>
      </trkpt>
      <trkpt lat="41.444050" lon="-7.117545">
        <ele>424.073</ele>
        <time>2019-06-22T14:30:39Z</time>
      </trkpt>
      <trkpt lat="41.443961" lon="-7.117277">
        <ele>420.961</ele>
        <time>2019-06-22T14:30:40Z</time>
      </trkpt>
      <trkpt lat="41.443877" lon="-7.117023">
        <ele>417.510</ele>
        <time>2019-06-22T14:30:41Z</time>
      </trkpt>
      <trkpt lat="41.443796" lon="-7.116779">
        <ele>415.635</ele>
        <time>2019-06-22T14:30:42Z</time>
      </trkpt>
      <trkpt lat="41.443718" lon="-7.116534">
        <ele>415.698</ele>
        <time>2019-06-22T14:30:43Z</time>
      </trkpt>
      <trkpt lat="41.443657" lon="-7.116295">
        <ele>416.611</ele>
        <time>2019-06-22T14:30:44Z</time>
      </trkpt>
      <trkpt lat="41.443608" lon="-7.116070">
        <ele>418.321</ele>
        <time>2019-06-22T14:30:45Z</time>
      </trkpt>
      <trkpt lat="41.443578" lon="-7.115871">
        <ele>420.303</ele>
        <time>2019-06-22T14:30:46Z</time>
      </trkpt>
      <trkpt lat="41.443524" lon="-7.115675">
        <ele>420.308</ele>
        <time>2019-06-22T14:30:47Z</time>
      </trkpt>
      <trkpt lat="41.443453" lon="-7.115515">
        <ele>419.824</ele>
        <time>2019-06-22T14:30:48Z</time>
      </trkpt>
      <trkpt lat="41.443372" lon="-7.115365">
        <ele>418.448</ele>
        <time>2019-06-22T14:30:49Z</time>
      </trkpt>
      <trkpt lat="41.443273" lon="-7.115254">
        <ele>418.280</ele>
        <time>2019-06-22T14:30:50Z</time>
      </trkpt>
      <trkpt lat="41.443176" lon="-7.115152">
        <ele>418.252</ele>
        <time>2019-06-22T14:30:51Z</time>
      </trkpt>
      <trkpt lat="41.443051" lon="-7.115038">
        <ele>418.280</ele>
        <time>2019-06-22T14:30:52Z</time>
      </trkpt>
      <trkpt lat="41.442924" lon="-7.114917">
        <ele>419.889</ele>
        <time>2019-06-22T14:30:53Z</time>
      </trkpt>
      <trkpt lat="41.442794" lon="-7.114789">
        <ele>421.644</ele>
        <time>2019-06-22T14:30:54Z</time>
      </trkpt>
      <trkpt lat="41.442669" lon="-7.114668">
        <ele>423.677</ele>
        <time>2019-06-22T14:30:55Z</time>
      </trkpt>
      <trkpt lat="41.442541" lon="-7.114536">
        <ele>424.934</ele>
        <time>2019-06-22T14:30:56Z</time>
      </trkpt>
      <trkpt lat="41.442402" lon="-7.114391">
        <ele>425.155</ele>
        <time>2019-06-22T14:30:57Z</time>
      </trkpt>
      <trkpt lat="41.442268" lon="-7.114254">
        <ele>425.110</ele>
        <time>2019-06-22T14:30:58Z</time>
      </trkpt>
      <trkpt lat="41.442134" lon="-7.114120">
        <ele>423.708</ele>
        <time>2019-06-22T14:30:59Z</time>
      </trkpt>
      <trkpt lat="41.442025" lon="-7.114040">
        <ele>421.926</ele>
        <time>2019-06-22T14:31:00Z</time>
      </trkpt>
      <trkpt lat="41.441896" lon="-7.113951">
        <ele>418.970</ele>
        <time>2019-06-22T14:31:01Z</time>
      </trkpt>
      <trkpt lat="41.441765" lon="-7.113873">
        <ele>416.482</ele>
        <time>2019-06-22T14:31:02Z</time>
      </trkpt>
      <trkpt lat="41.441580" lon="-7.113836">
        <ele>413.544</ele>
        <time>2019-06-22T14:31:03Z</time>
      </trkpt>
      <trkpt lat="41.441416" lon="-7.113845">
        <ele>410.832</ele>
        <time>2019-06-22T14:31:04Z</time>
      </trkpt>
      <trkpt lat="41.441236" lon="-7.113848">
        <ele>408.441</ele>
        <time>2019-06-22T14:31:05Z</time>
      </trkpt>
      <trkpt lat="41.441048" lon="-7.113798">
        <ele>407.666</ele>
        <time>2019-06-22T14:31:06Z</time>
      </trkpt>
      <trkpt lat="41.440851" lon="-7.113751">
        <ele>406.319</ele>
        <time>2019-06-22T14:31:07Z</time>
      </trkpt>
      <trkpt lat="41.440650" lon="-7.113680">
        <ele>405.456</ele>
        <time>2019-06-22T14:31:08Z</time>
      </trkpt>
      <trkpt lat="41.440446" lon="-7.113607">
        <ele>403.459</ele>
        <time>2019-06-22T14:31:09Z</time>
      </trkpt>
      <trkpt lat="41.440242" lon="-7.113529">
        <ele>402.314</ele>
        <time>2019-06-22T14:31:10Z</time>
      </trkpt>
      <trkpt lat="41.440041" lon="-7.113436">
        <ele>400.408</ele>
        <time>2019-06-22T14:31:11Z</time>
      </trkpt>
      <trkpt lat="41.439847" lon="-7.113326">
        <ele>398.218</ele>
        <time>2019-06-22T14:31:12Z</time>
      </trkpt>
      <trkpt lat="41.439654" lon="-7.113230">
        <ele>395.292</ele>
        <time>2019-06-22T14:31:13Z</time>
      </trkpt>
      <trkpt lat="41.439448" lon="-7.113133">
        <ele>393.874</ele>
        <time>2019-06-22T14:31:14Z</time>
      </trkpt>
      <trkpt lat="41.439247" lon="-7.113041">
        <ele>391.926</ele>
        <time>2019-06-22T14:31:15Z</time>
      </trkpt>
      <trkpt lat="41.439042" lon="-7.112949">
        <ele>389.694</ele>
        <time>2019-06-22T14:31:16Z</time>
      </trkpt>
      <trkpt lat="41.438834" lon="-7.112857">
        <ele>387.623</ele>
        <time>2019-06-22T14:31:17Z</time>
      </trkpt>
      <trkpt lat="41.438627" lon="-7.112781">
        <ele>386.328</ele>
        <time>2019-06-22T14:31:18Z</time>
      </trkpt>
      <trkpt lat="41.438422" lon="-7.112724">
        <ele>383.381</ele>
        <time>2019-06-22T14:31:19Z</time>
      </trkpt>
      <trkpt lat="41.438210" lon="-7.112680">
        <ele>379.537</ele>
        <time>2019-06-22T14:31:20Z</time>
      </trkpt>
      <trkpt lat="41.438010" lon="-7.112636">
        <ele>376.649</ele>
        <time>2019-06-22T14:31:21Z</time>
      </trkpt>
      <trkpt lat="41.437815" lon="-7.112569">
        <ele>374.213</ele>
        <time>2019-06-22T14:31:22Z</time>
      </trkpt>
      <trkpt lat="41.437637" lon="-7.112497">
        <ele>372.908</ele>
        <time>2019-06-22T14:31:23Z</time>
      </trkpt>
      <trkpt lat="41.437454" lon="-7.112406">
        <ele>372.946</ele>
        <time>2019-06-22T14:31:24Z</time>
      </trkpt>
      <trkpt lat="41.437272" lon="-7.112318">
        <ele>374.640</ele>
        <time>2019-06-22T14:31:25Z</time>
      </trkpt>
      <trkpt lat="41.437099" lon="-7.112218">
        <ele>375.862</ele>
        <time>2019-06-22T14:31:26Z</time>
      </trkpt>
      <trkpt lat="41.436941" lon="-7.112110">
        <ele>376.564</ele>
        <time>2019-06-22T14:31:27Z</time>
      </trkpt>
      <trkpt lat="41.436794" lon="-7.111985">
        <ele>377.752</ele>
        <time>2019-06-22T14:31:28Z</time>
      </trkpt>
      <trkpt lat="41.436668" lon="-7.111852">
        <ele>378.971</ele>
        <time>2019-06-22T14:31:29Z</time>
      </trkpt>
      <trkpt lat="41.436553" lon="-7.111723">
        <ele>379.786</ele>
        <time>2019-06-22T14:31:30Z</time>
      </trkpt>
      <trkpt lat="41.436437" lon="-7.111609">
        <ele>379.839</ele>
        <time>2019-06-22T14:31:31Z</time>
      </trkpt>
      <trkpt lat="41.436317" lon="-7.111531">
        <ele>381.316</ele>
        <time>2019-06-22T14:31:32Z</time>
      </trkpt>
      <trkpt lat="41.436195" lon="-7.111514">
        <ele>381.676</ele>
        <time>2019-06-22T14:31:33Z</time>
      </trkpt>
      <trkpt lat="41.436053" lon="-7.111496">
        <ele>381.713</ele>
        <time>2019-06-22T14:31:34Z</time>
      </trkpt>
      <trkpt lat="41.435913" lon="-7.111552">
        <ele>382.508</ele>
        <time>2019-06-22T14:31:35Z</time>
      </trkpt>
      <trkpt lat="41.435776" lon="-7.111585">
        <ele>384.414</ele>
        <time>2019-06-22T14:31:36Z</time>
      </trkpt>
      <trkpt lat="41.435646" lon="-7.111606">
        <ele>385.978</ele>
        <time>2019-06-22T14:31:37Z</time>
      </trkpt>
      <trkpt lat="41.435541" lon="-7.111554">
        <ele>387.830</ele>
        <time>2019-06-22T14:31:38Z</time>
      </trkpt>
      <trkpt lat="41.435440" lon="-7.111472">
        <ele>391.562</ele>
        <time>2019-06-22T14:31:39Z</time>
      </trkpt>
      <trkpt lat="41.435327" lon="-7.111395">
        <ele>391.520</ele>
        <time>2019-06-22T14:31:40Z</time>
      </trkpt>
      <trkpt lat="41.435263" lon="-7.111220">
        <ele>392.739</ele>
        <time>2019-06-22T14:31:41Z</time>
      </trkpt>
      <trkpt lat="41.435207" lon="-7.111050">
        <ele>393.524</ele>
        <time>2019-06-22T14:31:42Z</time>
      </trkpt>
      <trkpt lat="41.435170" lon="-7.110870">
        <ele>394.497</ele>
        <time>2019-06-22T14:31:43Z</time>
      </trkpt>
      <trkpt lat="41.435144" lon="-7.110672">
        <ele>395.375</ele>
        <time>2019-06-22T14:31:44Z</time>
      </trkpt>
      <trkpt lat="41.435099" lon="-7.110478">
        <ele>395.428</ele>
        <time>2019-06-22T14:31:45Z</time>
      </trkpt>
      <trkpt lat="41.435036" lon="-7.110283">
        <ele>395.420</ele>
        <time>2019-06-22T14:31:46Z</time>
      </trkpt>
      <trkpt lat="41.434953" lon="-7.110099">
        <ele>395.408</ele>
        <time>2019-06-22T14:31:47Z</time>
      </trkpt>
      <trkpt lat="41.434858" lon="-7.109925">
        <ele>395.410</ele>
        <time>2019-06-22T14:31:48Z</time>
      </trkpt>
      <trkpt lat="41.434769" lon="-7.109759">
        <ele>395.454</ele>
        <time>2019-06-22T14:31:49Z</time>
      </trkpt>
      <trkpt lat="41.434671" lon="-7.109609">
        <ele>395.436</ele>
        <time>2019-06-22T14:31:50Z</time>
      </trkpt>
      <trkpt lat="41.434563" lon="-7.109492">
        <ele>395.848</ele>
        <time>2019-06-22T14:31:51Z</time>
      </trkpt>
      <trkpt lat="41.434435" lon="-7.109414">
        <ele>397.096</ele>
        <time>2019-06-22T14:31:52Z</time>
      </trkpt>
      <trkpt lat="41.434306" lon="-7.109363">
        <ele>397.945</ele>
        <time>2019-06-22T14:31:53Z</time>
      </trkpt>
      <trkpt lat="41.434156" lon="-7.109348">
        <ele>399.120</ele>
        <time>2019-06-22T14:31:54Z</time>
      </trkpt>
      <trkpt lat="41.434004" lon="-7.109319">
        <ele>399.193</ele>
        <time>2019-06-22T14:31:55Z</time>
      </trkpt>
      <trkpt lat="41.433841" lon="-7.109269">
        <ele>400.795</ele>
        <time>2019-06-22T14:31:56Z</time>
      </trkpt>
      <trkpt lat="41.433665" lon="-7.109198">
        <ele>402.249</ele>
        <time>2019-06-22T14:31:57Z</time>
      </trkpt>
      <trkpt lat="41.433490" lon="-7.109109">
        <ele>403.223</ele>
        <time>2019-06-22T14:31:58Z</time>
      </trkpt>
      <trkpt lat="41.433316" lon="-7.109015">
        <ele>403.208</ele>
        <time>2019-06-22T14:31:59Z</time>
      </trkpt>
      <trkpt lat="41.433130" lon="-7.108926">
        <ele>402.922</ele>
        <time>2019-06-22T14:32:00Z</time>
      </trkpt>
      <trkpt lat="41.432944" lon="-7.108836">
        <ele>402.296</ele>
        <time>2019-06-22T14:32:01Z</time>
      </trkpt>
      <trkpt lat="41.432768" lon="-7.108751">
        <ele>401.078</ele>
        <time>2019-06-22T14:32:02Z</time>
      </trkpt>
      <trkpt lat="41.432600" lon="-7.108668">
        <ele>399.640</ele>
        <time>2019-06-22T14:32:03Z</time>
      </trkpt>
      <trkpt lat="41.432434" lon="-7.108585">
        <ele>398.598</ele>
        <time>2019-06-22T14:32:04Z</time>
      </trkpt>
      <trkpt lat="41.432270" lon="-7.108513">
        <ele>397.187</ele>
        <time>2019-06-22T14:32:05Z</time>
      </trkpt>
      <trkpt lat="41.432093" lon="-7.108461">
        <ele>395.222</ele>
        <time>2019-06-22T14:32:06Z</time>
      </trkpt>
      <trkpt lat="41.431912" lon="-7.108426">
        <ele>395.025</ele>
        <time>2019-06-22T14:32:07Z</time>
      </trkpt>
      <trkpt lat="41.431735" lon="-7.108412">
        <ele>394.567</ele>
        <time>2019-06-22T14:32:08Z</time>
      </trkpt>
      <trkpt lat="41.431561" lon="-7.108407">
        <ele>394.281</ele>
        <time>2019-06-22T14:32:09Z</time>
      </trkpt>
      <trkpt lat="41.431405" lon="-7.108392">
        <ele>394.219</ele>
        <time>2019-06-22T14:32:10Z</time>
      </trkpt>
      <trkpt lat="41.431268" lon="-7.108362">
        <ele>395.108</ele>
        <time>2019-06-22T14:32:11Z</time>
      </trkpt>
      <trkpt lat="41.431144" lon="-7.108311">
        <ele>395.779</ele>
        <time>2019-06-22T14:32:12Z</time>
      </trkpt>
      <trkpt lat="41.431020" lon="-7.108228">
        <ele>396.513</ele>
        <time>2019-06-22T14:32:13Z</time>
      </trkpt>
      <trkpt lat="41.430896" lon="-7.108125">
        <ele>396.825</ele>
        <time>2019-06-22T14:32:14Z</time>
      </trkpt>
      <trkpt lat="41.430769" lon="-7.108016">
        <ele>396.897</ele>
        <time>2019-06-22T14:32:15Z</time>
      </trkpt>
      <trkpt lat="41.430634" lon="-7.107914">
        <ele>396.495</ele>
        <time>2019-06-22T14:32:16Z</time>
      </trkpt>
      <trkpt lat="41.430497" lon="-7.107817">
        <ele>393.854</ele>
        <time>2019-06-22T14:32:17Z</time>
      </trkpt>
      <trkpt lat="41.430359" lon="-7.107728">
        <ele>391.419</ele>
        <time>2019-06-22T14:32:18Z</time>
      </trkpt>
      <trkpt lat="41.430213" lon="-7.107651">
        <ele>388.672</ele>
        <time>2019-06-22T14:32:19Z</time>
      </trkpt>
      <trkpt lat="41.430071" lon="-7.107597">
        <ele>386.229</ele>
        <time>2019-06-22T14:32:20Z</time>
      </trkpt>
      <trkpt lat="41.429922" lon="-7.107545">
        <ele>385.600</ele>
        <time>2019-06-22T14:32:21Z</time>
      </trkpt>
      <trkpt lat="41.429777" lon="-7.107499">
        <ele>385.520</ele>
        <time>2019-06-22T14:32:22Z</time>
      </trkpt>
      <trkpt lat="41.429639" lon="-7.107447">
        <ele>385.608</ele>
        <time>2019-06-22T14:32:23Z</time>
      </trkpt>
      <trkpt lat="41.429502" lon="-7.107383">
        <ele>385.615</ele>
        <time>2019-06-22T14:32:24Z</time>
      </trkpt>
      <trkpt lat="41.429380" lon="-7.107303">
        <ele>385.639</ele>
        <time>2019-06-22T14:32:25Z</time>
      </trkpt>
      <trkpt lat="41.429262" lon="-7.107196">
        <ele>385.631</ele>
        <time>2019-06-22T14:32:26Z</time>
      </trkpt>
      <trkpt lat="41.429151" lon="-7.107048">
        <ele>384.943</ele>
        <time>2019-06-22T14:32:27Z</time>
      </trkpt>
      <trkpt lat="41.429049" lon="-7.106885">
        <ele>384.321</ele>
        <time>2019-06-22T14:32:28Z</time>
      </trkpt>
      <trkpt lat="41.428941" lon="-7.106722">
        <ele>383.640</ele>
        <time>2019-06-22T14:32:29Z</time>
      </trkpt>
      <trkpt lat="41.428837" lon="-7.106560">
        <ele>381.945</ele>
        <time>2019-06-22T14:32:30Z</time>
      </trkpt>
      <trkpt lat="41.428731" lon="-7.106400">
        <ele>379.528</ele>
        <time>2019-06-22T14:32:31Z</time>
      </trkpt>
      <trkpt lat="41.428630" lon="-7.106246">
        <ele>376.979</ele>
        <time>2019-06-22T14:32:32Z</time>
      </trkpt>
      <trkpt lat="41.428521" lon="-7.106103">
        <ele>374.105</ele>
        <time>2019-06-22T14:32:33Z</time>
      </trkpt>
      <trkpt lat="41.428405" lon="-7.105969">
        <ele>372.225</ele>
        <time>2019-06-22T14:32:34Z</time>
      </trkpt>
      <trkpt lat="41.428271" lon="-7.105870">
        <ele>370.408</ele>
        <time>2019-06-22T14:32:35Z</time>
      </trkpt>
      <trkpt lat="41.428131" lon="-7.105783">
        <ele>368.970</ele>
        <time>2019-06-22T14:32:36Z</time>
      </trkpt>
      <trkpt lat="41.427981" lon="-7.105780">
        <ele>368.934</ele>
        <time>2019-06-22T14:32:37Z</time>
      </trkpt>
      <trkpt lat="41.427837" lon="-7.105770">
        <ele>369.296</ele>
        <time>2019-06-22T14:32:38Z</time>
      </trkpt>
      <trkpt lat="41.427708" lon="-7.105790">
        <ele>369.238</ele>
        <time>2019-06-22T14:32:39Z</time>
      </trkpt>
      <trkpt lat="41.427590" lon="-7.105838">
        <ele>368.526</ele>
        <time>2019-06-22T14:32:40Z</time>
      </trkpt>
      <trkpt lat="41.427499" lon="-7.105935">
        <ele>368.315</ele>
        <time>2019-06-22T14:32:41Z</time>
      </trkpt>
      <trkpt lat="41.427407" lon="-7.106038">
        <ele>367.430</ele>
        <time>2019-06-22T14:32:42Z</time>
      </trkpt>
      <trkpt lat="41.427317" lon="-7.106116">
        <ele>366.563</ele>
        <time>2019-06-22T14:32:43Z</time>
      </trkpt>
      <trkpt lat="41.427224" lon="-7.106166">
        <ele>365.847</ele>
        <time>2019-06-22T14:32:44Z</time>
      </trkpt>
      <trkpt lat="41.427126" lon="-7.106166">
        <ele>365.829</ele>
        <time>2019-06-22T14:32:45Z</time>
      </trkpt>
      <trkpt lat="41.427038" lon="-7.106129">
        <ele>365.921</ele>
        <time>2019-06-22T14:32:46Z</time>
      </trkpt>
      <trkpt lat="41.426968" lon="-7.106052">
        <ele>365.908</ele>
        <time>2019-06-22T14:32:47Z</time>
      </trkpt>
      <trkpt lat="41.426921" lon="-7.105935">
        <ele>365.977</ele>
        <time>2019-06-22T14:32:48Z</time>
      </trkpt>
      <trkpt lat="41.426874" lon="-7.105786">
        <ele>365.241</ele>
        <time>2019-06-22T14:32:49Z</time>
      </trkpt>
      <trkpt lat="41.426821" lon="-7.105600">
        <ele>364.523</ele>
        <time>2019-06-22T14:32:50Z</time>
      </trkpt>
      <trkpt lat="41.426773" lon="-7.105413">
        <ele>363.775</ele>
        <time>2019-06-22T14:32:51Z</time>
      </trkpt>
      <trkpt lat="41.426724" lon="-7.105212">
        <ele>363.073</ele>
        <time>2019-06-22T14:32:52Z</time>
      </trkpt>
      <trkpt lat="41.426686" lon="-7.105001">
        <ele>362.172</ele>
        <time>2019-06-22T14:32:53Z</time>
      </trkpt>
      <trkpt lat="41.426681" lon="-7.104806">
        <ele>361.257</ele>
        <time>2019-06-22T14:32:54Z</time>
      </trkpt>
      <trkpt lat="41.426656" lon="-7.104588">
        <ele>360.030</ele>
        <time>2019-06-22T14:32:55Z</time>
      </trkpt>
      <trkpt lat="41.426634" lon="-7.104371">
        <ele>358.016</ele>
        <time>2019-06-22T14:32:56Z</time>
      </trkpt>
      <trkpt lat="41.426611" lon="-7.104166">
        <ele>355.876</ele>
        <time>2019-06-22T14:32:57Z</time>
      </trkpt>
      <trkpt lat="41.426582" lon="-7.103972">
        <ele>353.213</ele>
        <time>2019-06-22T14:32:58Z</time>
      </trkpt>
      <trkpt lat="41.426541" lon="-7.103806">
        <ele>350.808</ele>
        <time>2019-06-22T14:32:59Z</time>
      </trkpt>
      <trkpt lat="41.426478" lon="-7.103657">
        <ele>348.634</ele>
        <time>2019-06-22T14:33:00Z</time>
      </trkpt>
      <trkpt lat="41.426395" lon="-7.103529">
        <ele>347.498</ele>
        <time>2019-06-22T14:33:01Z</time>
      </trkpt>
      <trkpt lat="41.426298" lon="-7.103430">
        <ele>347.470</ele>
        <time>2019-06-22T14:33:02Z</time>
      </trkpt>
      <trkpt lat="41.426181" lon="-7.103352">
        <ele>346.992</ele>
        <time>2019-06-22T14:33:03Z</time>
      </trkpt>
      <trkpt lat="41.426051" lon="-7.103304">
        <ele>346.820</ele>
        <time>2019-06-22T14:33:04Z</time>
      </trkpt>
      <trkpt lat="41.425916" lon="-7.103285">
        <ele>346.829</ele>
        <time>2019-06-22T14:33:05Z</time>
      </trkpt>
      <trkpt lat="41.425787" lon="-7.103310">
        <ele>346.944</ele>
        <time>2019-06-22T14:33:06Z</time>
      </trkpt>
      <trkpt lat="41.425657" lon="-7.103376">
        <ele>347.677</ele>
        <time>2019-06-22T14:33:07Z</time>
      </trkpt>
      <trkpt lat="41.425528" lon="-7.103442">
        <ele>348.231</ele>
        <time>2019-06-22T14:33:08Z</time>
      </trkpt>
      <trkpt lat="41.425391" lon="-7.103522">
        <ele>348.661</ele>
        <time>2019-06-22T14:33:09Z</time>
      </trkpt>
      <trkpt lat="41.425254" lon="-7.103596">
        <ele>349.707</ele>
        <time>2019-06-22T14:33:10Z</time>
      </trkpt>
      <trkpt lat="41.425122" lon="-7.103680">
        <ele>351.008</ele>
        <time>2019-06-22T14:33:11Z</time>
      </trkpt>
      <trkpt lat="41.424995" lon="-7.103736">
        <ele>351.886</ele>
        <time>2019-06-22T14:33:12Z</time>
      </trkpt>
      <trkpt lat="41.424871" lon="-7.103794">
        <ele>352.470</ele>
        <time>2019-06-22T14:33:13Z</time>
      </trkpt>
      <trkpt lat="41.424749" lon="-7.103867">
        <ele>353.892</ele>
        <time>2019-06-22T14:33:14Z</time>
      </trkpt>
      <trkpt lat="41.424625" lon="-7.103975">
        <ele>354.544</ele>
        <time>2019-06-22T14:33:15Z</time>
      </trkpt>
      <trkpt lat="41.424514" lon="-7.104111">
        <ele>355.112</ele>
        <time>2019-06-22T14:33:16Z</time>
      </trkpt>
      <trkpt lat="41.424394" lon="-7.104254">
        <ele>356.291</ele>
        <time>2019-06-22T14:33:17Z</time>
      </trkpt>
      <trkpt lat="41.424277" lon="-7.104397">
        <ele>357.236</ele>
        <time>2019-06-22T14:33:18Z</time>
      </trkpt>
      <trkpt lat="41.424155" lon="-7.104536">
        <ele>358.049</ele>
        <time>2019-06-22T14:33:19Z</time>
      </trkpt>
      <trkpt lat="41.424027" lon="-7.104670">
        <ele>358.741</ele>
        <time>2019-06-22T14:33:20Z</time>
      </trkpt>
      <trkpt lat="41.423900" lon="-7.104799">
        <ele>359.281</ele>
        <time>2019-06-22T14:33:21Z</time>
      </trkpt>
      <trkpt lat="41.423764" lon="-7.104896">
        <ele>359.309</ele>
        <time>2019-06-22T14:33:22Z</time>
      </trkpt>
      <trkpt lat="41.423629" lon="-7.104986">
        <ele>359.508</ele>
        <time>2019-06-22T14:33:23Z</time>
      </trkpt>
      <trkpt lat="41.423504" lon="-7.105082">
        <ele>359.817</ele>
        <time>2019-06-22T14:33:24Z</time>
      </trkpt>
      <trkpt lat="41.423399" lon="-7.105198">
        <ele>359.841</ele>
        <time>2019-06-22T14:33:25Z</time>
      </trkpt>
      <trkpt lat="41.423321" lon="-7.105330">
        <ele>360.493</ele>
        <time>2019-06-22T14:33:26Z</time>
      </trkpt>
      <trkpt lat="41.423278" lon="-7.105498">
        <ele>360.935</ele>
        <time>2019-06-22T14:33:27Z</time>
      </trkpt>
      <trkpt lat="41.423241" lon="-7.105684">
        <ele>361.493</ele>
        <time>2019-06-22T14:33:28Z</time>
      </trkpt>
      <trkpt lat="41.423222" lon="-7.105866">
        <ele>362.142</ele>
        <time>2019-06-22T14:33:29Z</time>
      </trkpt>
      <trkpt lat="41.423227" lon="-7.106041">
        <ele>363.577</ele>
        <time>2019-06-22T14:33:30Z</time>
      </trkpt>
      <trkpt lat="41.423255" lon="-7.106221">
        <ele>364.610</ele>
        <time>2019-06-22T14:33:31Z</time>
      </trkpt>
      <trkpt lat="41.423300" lon="-7.106408">
        <ele>365.427</ele>
        <time>2019-06-22T14:33:32Z</time>
      </trkpt>
      <trkpt lat="41.423347" lon="-7.106595">
        <ele>366.668</ele>
        <time>2019-06-22T14:33:33Z</time>
      </trkpt>
      <trkpt lat="41.423392" lon="-7.106778">
        <ele>367.614</ele>
        <time>2019-06-22T14:33:34Z</time>
      </trkpt>
      <trkpt lat="41.423437" lon="-7.106955">
        <ele>368.608</ele>
        <time>2019-06-22T14:33:35Z</time>
      </trkpt>
      <trkpt lat="41.423446" lon="-7.107137">
        <ele>369.375</ele>
        <time>2019-06-22T14:33:36Z</time>
      </trkpt>
      <trkpt lat="41.423448" lon="-7.107308">
        <ele>370.769</ele>
        <time>2019-06-22T14:33:37Z</time>
      </trkpt>
      <trkpt lat="41.423410" lon="-7.107478">
        <ele>371.621</ele>
        <time>2019-06-22T14:33:38Z</time>
      </trkpt>
      <trkpt lat="41.423342" lon="-7.107636">
        <ele>372.873</ele>
        <time>2019-06-22T14:33:39Z</time>
      </trkpt>
      <trkpt lat="41.423260" lon="-7.107780">
        <ele>373.791</ele>
        <time>2019-06-22T14:33:40Z</time>
      </trkpt>
      <trkpt lat="41.423170" lon="-7.107912">
        <ele>374.850</ele>
        <time>2019-06-22T14:33:41Z</time>
      </trkpt>
      <trkpt lat="41.423062" lon="-7.108014">
        <ele>375.625</ele>
        <time>2019-06-22T14:33:42Z</time>
      </trkpt>
      <trkpt lat="41.422957" lon="-7.108074">
        <ele>376.078</ele>
        <time>2019-06-22T14:33:43Z</time>
      </trkpt>
      <trkpt lat="41.422839" lon="-7.108089">
        <ele>376.382</ele>
        <time>2019-06-22T14:33:44Z</time>
      </trkpt>
      <trkpt lat="41.422690" lon="-7.108068">
        <ele>376.343</ele>
        <time>2019-06-22T14:33:45Z</time>
      </trkpt>
      <trkpt lat="41.422541" lon="-7.108028">
        <ele>376.017</ele>
        <time>2019-06-22T14:33:46Z</time>
      </trkpt>
      <trkpt lat="41.422377" lon="-7.107968">
        <ele>375.308</ele>
        <time>2019-06-22T14:33:47Z</time>
      </trkpt>
      <trkpt lat="41.422208" lon="-7.107891">
        <ele>374.521</ele>
        <time>2019-06-22T14:33:48Z</time>
      </trkpt>
      <trkpt lat="41.422042" lon="-7.107817">
        <ele>373.135</ele>
        <time>2019-06-22T14:33:49Z</time>
      </trkpt>
      <trkpt lat="41.421865" lon="-7.107742">
        <ele>371.877</ele>
        <time>2019-06-22T14:33:50Z</time>
      </trkpt>
      <trkpt lat="41.421691" lon="-7.107672">
        <ele>370.189</ele>
        <time>2019-06-22T14:33:51Z</time>
      </trkpt>
      <trkpt lat="41.421517" lon="-7.107619">
        <ele>368.157</ele>
        <time>2019-06-22T14:33:52Z</time>
      </trkpt>
      <trkpt lat="41.421359" lon="-7.107567">
        <ele>365.186</ele>
        <time>2019-06-22T14:33:53Z</time>
      </trkpt>
      <trkpt lat="41.421206" lon="-7.107537">
        <ele>363.321</ele>
        <time>2019-06-22T14:33:54Z</time>
      </trkpt>
      <trkpt lat="41.421050" lon="-7.107532">
        <ele>362.384</ele>
        <time>2019-06-22T14:33:55Z</time>
      </trkpt>
      <trkpt lat="41.420892" lon="-7.107554">
        <ele>361.559</ele>
        <time>2019-06-22T14:33:56Z</time>
      </trkpt>
      <trkpt lat="41.420730" lon="-7.107578">
        <ele>361.503</ele>
        <time>2019-06-22T14:33:57Z</time>
      </trkpt>
      <trkpt lat="41.420577" lon="-7.107620">
        <ele>362.023</ele>
        <time>2019-06-22T14:33:58Z</time>
      </trkpt>
      <trkpt lat="41.420424" lon="-7.107659">
        <ele>362.708</ele>
        <time>2019-06-22T14:33:59Z</time>
      </trkpt>
      <trkpt lat="41.420266" lon="-7.107714">
        <ele>363.328</ele>
        <time>2019-06-22T14:34:00Z</time>
      </trkpt>
      <trkpt lat="41.420110" lon="-7.107792">
        <ele>364.222</ele>
        <time>2019-06-22T14:34:01Z</time>
      </trkpt>
      <trkpt lat="41.419946" lon="-7.107905">
        <ele>365.464</ele>
        <time>2019-06-22T14:34:02Z</time>
      </trkpt>
      <trkpt lat="41.419790" lon="-7.108016">
        <ele>366.846</ele>
        <time>2019-06-22T14:34:03Z</time>
      </trkpt>
      <trkpt lat="41.419643" lon="-7.108118">
        <ele>367.934</ele>
        <time>2019-06-22T14:34:04Z</time>
      </trkpt>
      <trkpt lat="41.419511" lon="-7.108208">
        <ele>368.813</ele>
        <time>2019-06-22T14:34:05Z</time>
      </trkpt>
      <trkpt lat="41.419375" lon="-7.108302">
        <ele>369.058</ele>
        <time>2019-06-22T14:34:06Z</time>
      </trkpt>
      <trkpt lat="41.419249" lon="-7.108391">
        <ele>369.121</ele>
        <time>2019-06-22T14:34:07Z</time>
      </trkpt>
      <trkpt lat="41.419170" lon="-7.108513">
        <ele>369.195</ele>
        <time>2019-06-22T14:34:08Z</time>
      </trkpt>
      <trkpt lat="41.419078" lon="-7.108637">
        <ele>369.649</ele>
        <time>2019-06-22T14:34:09Z</time>
      </trkpt>
      <trkpt lat="41.419032" lon="-7.108778">
        <ele>372.223</ele>
        <time>2019-06-22T14:34:10Z</time>
      </trkpt>
      <trkpt lat="41.419032" lon="-7.108912">
        <ele>372.208</ele>
        <time>2019-06-22T14:34:11Z</time>
      </trkpt>
      <trkpt lat="41.419024" lon="-7.109050">
        <ele>374.162</ele>
        <time>2019-06-22T14:34:12Z</time>
      </trkpt>
      <trkpt lat="41.419013" lon="-7.109182">
        <ele>376.436</ele>
        <time>2019-06-22T14:34:13Z</time>
      </trkpt>
      <trkpt lat="41.418959" lon="-7.109281">
        <ele>378.248</ele>
        <time>2019-06-22T14:34:14Z</time>
      </trkpt>
      <trkpt lat="41.418916" lon="-7.109380">
        <ele>379.460</ele>
        <time>2019-06-22T14:34:15Z</time>
      </trkpt>
      <trkpt lat="41.418854" lon="-7.109441">
        <ele>380.578</ele>
        <time>2019-06-22T14:34:16Z</time>
      </trkpt>
      <trkpt lat="41.418762" lon="-7.109397">
        <ele>381.247</ele>
        <time>2019-06-22T14:34:17Z</time>
      </trkpt>
      <trkpt lat="41.418680" lon="-7.109351">
        <ele>381.812</ele>
        <time>2019-06-22T14:34:18Z</time>
      </trkpt>
      <trkpt lat="41.418620" lon="-7.109273">
        <ele>382.235</ele>
        <time>2019-06-22T14:34:19Z</time>
      </trkpt>
      <trkpt lat="41.418554" lon="-7.109162">
        <ele>382.497</ele>
        <time>2019-06-22T14:34:20Z</time>
      </trkpt>
      <trkpt lat="41.418514" lon="-7.109017">
        <ele>382.423</ele>
        <time>2019-06-22T14:34:21Z</time>
      </trkpt>
      <trkpt lat="41.418447" lon="-7.108864">
        <ele>382.325</ele>
        <time>2019-06-22T14:34:22Z</time>
      </trkpt>
      <trkpt lat="41.418381" lon="-7.108720">
        <ele>381.708</ele>
        <time>2019-06-22T14:34:23Z</time>
      </trkpt>
      <trkpt lat="41.418318" lon="-7.108602">
        <ele>381.322</ele>
        <time>2019-06-22T14:34:24Z</time>
      </trkpt>
      <trkpt lat="41.418288" lon="-7.108475">
        <ele>381.116</ele>
        <time>2019-06-22T14:34:25Z</time>
      </trkpt>
      <trkpt lat="41.418253" lon="-7.108365">
        <ele>380.948</ele>
        <time>2019-06-22T14:34:26Z</time>
      </trkpt>
      <trkpt lat="41.418311" lon="-7.108281">
        <ele>380.920</ele>
        <time>2019-06-22T14:34:27Z</time>
      </trkpt>
      <trkpt lat="41.418365" lon="-7.108201">
        <ele>381.178</ele>
        <time>2019-06-22T14:34:28Z</time>
      </trkpt>
      <trkpt lat="41.418428" lon="-7.108124">
        <ele>381.247</ele>
        <time>2019-06-22T14:34:29Z</time>
      </trkpt>
      <trkpt lat="41.418500" lon="-7.108025">
        <ele>381.212</ele>
        <time>2019-06-22T14:34:30Z</time>
      </trkpt>
      <trkpt lat="41.418572" lon="-7.107912">
        <ele>380.895</ele>
        <time>2019-06-22T14:34:31Z</time>
      </trkpt>
      <trkpt lat="41.418620" lon="-7.107806">
        <ele>380.834</ele>
        <time>2019-06-22T14:34:32Z</time>
      </trkpt>
      <trkpt lat="41.418626" lon="-7.107707">
        <ele>380.555</ele>
        <time>2019-06-22T14:34:33Z</time>
      </trkpt>
      <trkpt lat="41.418613" lon="-7.107578">
        <ele>380.510</ele>
        <time>2019-06-22T14:34:34Z</time>
      </trkpt>
      <trkpt lat="41.418598" lon="-7.107452">
        <ele>380.808</ele>
        <time>2019-06-22T14:34:35Z</time>
      </trkpt>
      <trkpt lat="41.418572" lon="-7.107305">
        <ele>381.876</ele>
        <time>2019-06-22T14:34:36Z</time>
      </trkpt>
      <trkpt lat="41.418537" lon="-7.107164">
        <ele>382.450</ele>
        <time>2019-06-22T14:34:37Z</time>
      </trkpt>
      <trkpt lat="41.418509" lon="-7.107001">
        <ele>383.262</ele>
        <time>2019-06-22T14:34:38Z</time>
      </trkpt>
      <trkpt lat="41.418490" lon="-7.106838">
        <ele>384.164</ele>
        <time>2019-06-22T14:34:39Z</time>
      </trkpt>
      <trkpt lat="41.418469" lon="-7.106675">
        <ele>384.972</ele>
        <time>2019-06-22T14:34:40Z</time>
      </trkpt>
      <trkpt lat="41.418450" lon="-7.106515">
        <ele>385.321</ele>
        <time>2019-06-22T14:34:41Z</time>
      </trkpt>
      <trkpt lat="41.418420" lon="-7.106366">
        <ele>385.456</ele>
        <time>2019-06-22T14:34:42Z</time>
      </trkpt>
      <trkpt lat="41.418374" lon="-7.106230">
        <ele>385.489</ele>
        <time>2019-06-22T14:34:43Z</time>
      </trkpt>
      <trkpt lat="41.418317" lon="-7.106107">
        <ele>385.456</ele>
        <time>2019-06-22T14:34:44Z</time>
      </trkpt>
      <trkpt lat="41.418233" lon="-7.106009">
        <ele>385.159</ele>
        <time>2019-06-22T14:34:45Z</time>
      </trkpt>
      <trkpt lat="41.418129" lon="-7.105917">
        <ele>385.114</ele>
        <time>2019-06-22T14:34:46Z</time>
      </trkpt>
      <trkpt lat="41.418026" lon="-7.105818">
        <ele>385.608</ele>
        <time>2019-06-22T14:34:47Z</time>
      </trkpt>
      <trkpt lat="41.417929" lon="-7.105717">
        <ele>386.268</ele>
        <time>2019-06-22T14:34:48Z</time>
      </trkpt>
      <trkpt lat="41.417819" lon="-7.105618">
        <ele>386.622</ele>
        <time>2019-06-22T14:34:49Z</time>
      </trkpt>
      <trkpt lat="41.417721" lon="-7.105503">
        <ele>387.534</ele>
        <time>2019-06-22T14:34:50Z</time>
      </trkpt>
      <trkpt lat="41.417625" lon="-7.105394">
        <ele>388.366</ele>
        <time>2019-06-22T14:34:51Z</time>
      </trkpt>
      <trkpt lat="41.417535" lon="-7.105278">
        <ele>388.634</ele>
        <time>2019-06-22T14:34:52Z</time>
      </trkpt>
      <trkpt lat="41.417447" lon="-7.105159">
        <ele>388.643</ele>
        <time>2019-06-22T14:34:53Z</time>
      </trkpt>
      <trkpt lat="41.417360" lon="-7.105026">
        <ele>388.338</ele>
        <time>2019-06-22T14:34:54Z</time>
      </trkpt>
      <trkpt lat="41.417290" lon="-7.104895">
        <ele>387.361</ele>
        <time>2019-06-22T14:34:55Z</time>
      </trkpt>
      <trkpt lat="41.417202" lon="-7.104777">
        <ele>386.118</ele>
        <time>2019-06-22T14:34:56Z</time>
      </trkpt>
      <trkpt lat="41.417125" lon="-7.104648">
        <ele>384.498</ele>
        <time>2019-06-22T14:34:57Z</time>
      </trkpt>
      <trkpt lat="41.417062" lon="-7.104513">
        <ele>382.517</ele>
        <time>2019-06-22T14:34:58Z</time>
      </trkpt>
      <trkpt lat="41.416992" lon="-7.104359">
        <ele>381.708</ele>
        <time>2019-06-22T14:34:59Z</time>
      </trkpt>
      <trkpt lat="41.416930" lon="-7.104194">
        <ele>381.114</ele>
        <time>2019-06-22T14:35:00Z</time>
      </trkpt>
      <trkpt lat="41.416871" lon="-7.104029">
        <ele>380.188</ele>
        <time>2019-06-22T14:35:01Z</time>
      </trkpt>
      <trkpt lat="41.416868" lon="-7.103761">
        <ele>379.230</ele>
        <time>2019-06-22T14:35:02Z</time>
      </trkpt>
      <trkpt lat="41.416848" lon="-7.103535">
        <ele>378.462</ele>
        <time>2019-06-22T14:35:03Z</time>
      </trkpt>
      <trkpt lat="41.416816" lon="-7.103304">
        <ele>376.640</ele>
        <time>2019-06-22T14:35:04Z</time>
      </trkpt>
      <trkpt lat="41.416784" lon="-7.103070">
        <ele>374.159</ele>
        <time>2019-06-22T14:35:05Z</time>
      </trkpt>
      <trkpt lat="41.416753" lon="-7.102855">
        <ele>372.174</ele>
        <time>2019-06-22T14:35:06Z</time>
      </trkpt>
      <trkpt lat="41.416728" lon="-7.102659">
        <ele>370.527</ele>
        <time>2019-06-22T14:35:07Z</time>
      </trkpt>
      <trkpt lat="41.416694" lon="-7.102465">
        <ele>369.956</ele>
        <time>2019-06-22T14:35:08Z</time>
      </trkpt>
      <trkpt lat="41.416666" lon="-7.102295">
        <ele>369.959</ele>
        <time>2019-06-22T14:35:09Z</time>
      </trkpt>
      <trkpt lat="41.416628" lon="-7.102126">
        <ele>370.814</ele>
        <time>2019-06-22T14:35:10Z</time>
      </trkpt>
      <trkpt lat="41.416562" lon="-7.101994">
        <ele>372.108</ele>
        <time>2019-06-22T14:35:11Z</time>
      </trkpt>
      <trkpt lat="41.416467" lon="-7.101875">
        <ele>373.258</ele>
        <time>2019-06-22T14:35:12Z</time>
      </trkpt>
      <trkpt lat="41.416364" lon="-7.101781">
        <ele>373.292</ele>
        <time>2019-06-22T14:35:13Z</time>
      </trkpt>
      <trkpt lat="41.416249" lon="-7.101696">
        <ele>374.324</ele>
        <time>2019-06-22T14:35:14Z</time>
      </trkpt>
      <trkpt lat="41.416128" lon="-7.101635">
        <ele>375.296</ele>
        <time>2019-06-22T14:35:15Z</time>
      </trkpt>
      <trkpt lat="41.415985" lon="-7.101570">
        <ele>376.354</ele>
        <time>2019-06-22T14:35:16Z</time>
      </trkpt>
      <trkpt lat="41.415856" lon="-7.101499">
        <ele>377.363</ele>
        <time>2019-06-22T14:35:17Z</time>
      </trkpt>
      <trkpt lat="41.415738" lon="-7.101404">
        <ele>378.658</ele>
        <time>2019-06-22T14:35:18Z</time>
      </trkpt>
      <trkpt lat="41.415618" lon="-7.101286">
        <ele>379.571</ele>
        <time>2019-06-22T14:35:19Z</time>
      </trkpt>
      <trkpt lat="41.415514" lon="-7.101146">
        <ele>380.794</ele>
        <time>2019-06-22T14:35:20Z</time>
      </trkpt>
      <trkpt lat="41.415420" lon="-7.100973">
        <ele>381.857</ele>
        <time>2019-06-22T14:35:21Z</time>
      </trkpt>
      <trkpt lat="41.415339" lon="-7.100839">
        <ele>382.922</ele>
        <time>2019-06-22T14:35:22Z</time>
      </trkpt>
      <trkpt lat="41.415261" lon="-7.100697">
        <ele>384.108</ele>
        <time>2019-06-22T14:35:23Z</time>
      </trkpt>
      <trkpt lat="41.415176" lon="-7.100535">
        <ele>384.992</ele>
        <time>2019-06-22T14:35:24Z</time>
      </trkpt>
      <trkpt lat="41.415086" lon="-7.100371">
        <ele>386.086</ele>
        <time>2019-06-22T14:35:25Z</time>
      </trkpt>
      <trkpt lat="41.414976" lon="-7.100221">
        <ele>387.858</ele>
        <time>2019-06-22T14:35:26Z</time>
      </trkpt>
      <trkpt lat="41.414866" lon="-7.100097">
        <ele>389.340</ele>
        <time>2019-06-22T14:35:27Z</time>
      </trkpt>
      <trkpt lat="41.414732" lon="-7.099980">
        <ele>390.778</ele>
        <time>2019-06-22T14:35:28Z</time>
      </trkpt>
      <trkpt lat="41.414602" lon="-7.099866">
        <ele>392.667</ele>
        <time>2019-06-22T14:35:29Z</time>
      </trkpt>
      <trkpt lat="41.414484" lon="-7.099749">
        <ele>394.522</ele>
        <time>2019-06-22T14:35:30Z</time>
      </trkpt>
      <trkpt lat="41.414375" lon="-7.099620">
        <ele>395.545</ele>
        <time>2019-06-22T14:35:31Z</time>
      </trkpt>
      <trkpt lat="41.414294" lon="-7.099479">
        <ele>396.557</ele>
        <time>2019-06-22T14:35:32Z</time>
      </trkpt>
      <trkpt lat="41.414221" lon="-7.099333">
        <ele>397.600</ele>
        <time>2019-06-22T14:35:33Z</time>
      </trkpt>
      <trkpt lat="41.414197" lon="-7.099140">
        <ele>398.420</ele>
        <time>2019-06-22T14:35:34Z</time>
      </trkpt>
      <trkpt lat="41.414164" lon="-7.098961">
        <ele>399.208</ele>
        <time>2019-06-22T14:35:35Z</time>
      </trkpt>
      <trkpt lat="41.414123" lon="-7.098788">
        <ele>400.548</ele>
        <time>2019-06-22T14:35:36Z</time>
      </trkpt>
      <trkpt lat="41.414058" lon="-7.098614">
        <ele>401.832</ele>
        <time>2019-06-22T14:35:37Z</time>
      </trkpt>
      <trkpt lat="41.413972" lon="-7.098470">
        <ele>403.334</ele>
        <time>2019-06-22T14:35:38Z</time>
      </trkpt>
      <trkpt lat="41.413870" lon="-7.098342">
        <ele>405.266</ele>
        <time>2019-06-22T14:35:39Z</time>
      </trkpt>
      <trkpt lat="41.413759" lon="-7.098224">
        <ele>406.414</ele>
        <time>2019-06-22T14:35:40Z</time>
      </trkpt>
      <trkpt lat="41.413645" lon="-7.098138">
        <ele>407.293</ele>
        <time>2019-06-22T14:35:41Z</time>
      </trkpt>
      <trkpt lat="41.413513" lon="-7.098066">
        <ele>408.578</ele>
        <time>2019-06-22T14:35:42Z</time>
      </trkpt>
      <trkpt lat="41.413364" lon="-7.097984">
        <ele>410.071</ele>
        <time>2019-06-22T14:35:43Z</time>
      </trkpt>
      <trkpt lat="41.413216" lon="-7.097912">
        <ele>410.679</ele>
        <time>2019-06-22T14:35:44Z</time>
      </trkpt>
      <trkpt lat="41.413076" lon="-7.097855">
        <ele>411.505</ele>
        <time>2019-06-22T14:35:45Z</time>
      </trkpt>
      <trkpt lat="41.412939" lon="-7.097781">
        <ele>412.425</ele>
        <time>2019-06-22T14:35:46Z</time>
      </trkpt>
      <trkpt lat="41.412813" lon="-7.097720">
        <ele>413.008</ele>
        <time>2019-06-22T14:35:47Z</time>
      </trkpt>
      <trkpt lat="41.412699" lon="-7.097637">
        <ele>413.240</ele>
        <time>2019-06-22T14:35:48Z</time>
      </trkpt>
      <trkpt lat="41.412611" lon="-7.097529">
        <ele>413.814</ele>
        <time>2019-06-22T14:35:49Z</time>
      </trkpt>
      <trkpt lat="41.412547" lon="-7.097404">
        <ele>413.826</ele>
        <time>2019-06-22T14:35:50Z</time>
      </trkpt>
      <trkpt lat="41.412517" lon="-7.097249">
        <ele>413.948</ele>
        <time>2019-06-22T14:35:51Z</time>
      </trkpt>
      <trkpt lat="41.412499" lon="-7.097075">
        <ele>413.966</ele>
        <time>2019-06-22T14:35:52Z</time>
      </trkpt>
      <trkpt lat="41.412489" lon="-7.096894">
        <ele>413.955</ele>
        <time>2019-06-22T14:35:53Z</time>
      </trkpt>
      <trkpt lat="41.412476" lon="-7.096730">
        <ele>413.590</ele>
        <time>2019-06-22T14:35:54Z</time>
      </trkpt>
      <trkpt lat="41.412460" lon="-7.096570">
        <ele>413.573</ele>
        <time>2019-06-22T14:35:55Z</time>
      </trkpt>
      <trkpt lat="41.412424" lon="-7.096414">
        <ele>413.619</ele>
        <time>2019-06-22T14:35:56Z</time>
      </trkpt>
      <trkpt lat="41.412364" lon="-7.096266">
        <ele>414.109</ele>
        <time>2019-06-22T14:35:57Z</time>
      </trkpt>
      <trkpt lat="41.412302" lon="-7.096119">
        <ele>414.119</ele>
        <time>2019-06-22T14:35:58Z</time>
      </trkpt>
      <trkpt lat="41.412192" lon="-7.096014">
        <ele>415.208</ele>
        <time>2019-06-22T14:35:59Z</time>
      </trkpt>
      <trkpt lat="41.412066" lon="-7.095920">
        <ele>416.354</ele>
        <time>2019-06-22T14:36:00Z</time>
      </trkpt>
      <trkpt lat="41.411962" lon="-7.095811">
        <ele>417.318</ele>
        <time>2019-06-22T14:36:01Z</time>
      </trkpt>
      <trkpt lat="41.411873" lon="-7.095685">
        <ele>417.960</ele>
        <time>2019-06-22T14:36:02Z</time>
      </trkpt>
      <trkpt lat="41.411806" lon="-7.095532">
        <ele>419.112</ele>
        <time>2019-06-22T14:36:03Z</time>
      </trkpt>
      <trkpt lat="41.411762" lon="-7.095354">
        <ele>420.140</ele>
        <time>2019-06-22T14:36:04Z</time>
      </trkpt>
      <trkpt lat="41.411723" lon="-7.095165">
        <ele>420.999</ele>
        <time>2019-06-22T14:36:05Z</time>
      </trkpt>
      <trkpt lat="41.411691" lon="-7.094973">
        <ele>421.624</ele>
        <time>2019-06-22T14:36:06Z</time>
      </trkpt>
      <trkpt lat="41.411654" lon="-7.094779">
        <ele>422.977</ele>
        <time>2019-06-22T14:36:07Z</time>
      </trkpt>
      <trkpt lat="41.411618" lon="-7.094587">
        <ele>424.053</ele>
        <time>2019-06-22T14:36:08Z</time>
      </trkpt>
      <trkpt lat="41.411575" lon="-7.094390">
        <ele>425.204</ele>
        <time>2019-06-22T14:36:09Z</time>
      </trkpt>
      <trkpt lat="41.411534" lon="-7.094197">
        <ele>426.314</ele>
        <time>2019-06-22T14:36:10Z</time>
      </trkpt>
      <trkpt lat="41.411474" lon="-7.094000">
        <ele>427.408</ele>
        <time>2019-06-22T14:36:11Z</time>
      </trkpt>
      <trkpt lat="41.411393" lon="-7.093828">
        <ele>428.378</ele>
        <time>2019-06-22T14:36:12Z</time>
      </trkpt>
      <trkpt lat="41.411321" lon="-7.093640">
        <ele>429.372</ele>
        <time>2019-06-22T14:36:13Z</time>
      </trkpt>
      <trkpt lat="41.411247" lon="-7.093447">
        <ele>430.524</ele>
        <time>2019-06-22T14:36:14Z</time>
      </trkpt>
      <trkpt lat="41.411173" lon="-7.093239">
        <ele>431.516</ele>
        <time>2019-06-22T14:36:15Z</time>
      </trkpt>
      <trkpt lat="41.411093" lon="-7.093029">
        <ele>432.674</ele>
        <time>2019-06-22T14:36:16Z</time>
      </trkpt>
      <trkpt lat="41.411006" lon="-7.092832">
        <ele>434.143</ele>
        <time>2019-06-22T14:36:17Z</time>
      </trkpt>
      <trkpt lat="41.410921" lon="-7.092630">
        <ele>436.038</ele>
        <time>2019-06-22T14:36:18Z</time>
      </trkpt>
      <trkpt lat="41.410826" lon="-7.092441">
        <ele>436.091</ele>
        <time>2019-06-22T14:36:19Z</time>
      </trkpt>
      <trkpt lat="41.410730" lon="-7.092250">
        <ele>437.932</ele>
        <time>2019-06-22T14:36:20Z</time>
      </trkpt>
      <trkpt lat="41.410622" lon="-7.092072">
        <ele>439.892</ele>
        <time>2019-06-22T14:36:21Z</time>
      </trkpt>
      <trkpt lat="41.410519" lon="-7.091899">
        <ele>442.111</ele>
        <time>2019-06-22T14:36:22Z</time>
      </trkpt>
      <trkpt lat="41.410406" lon="-7.091722">
        <ele>444.308</ele>
        <time>2019-06-22T14:36:23Z</time>
      </trkpt>
      <trkpt lat="41.410285" lon="-7.091577">
        <ele>445.946</ele>
        <time>2019-06-22T14:36:24Z</time>
      </trkpt>
      <trkpt lat="41.410174" lon="-7.091441">
        <ele>447.430</ele>
        <time>2019-06-22T14:36:25Z</time>
      </trkpt>
      <trkpt lat="41.410030" lon="-7.091326">
        <ele>448.622</ele>
        <time>2019-06-22T14:36:26Z</time>
      </trkpt>
      <trkpt lat="41.409883" lon="-7.091221">
        <ele>449.834</ele>
        <time>2019-06-22T14:36:27Z</time>
      </trkpt>
      <trkpt lat="41.409723" lon="-7.091170">
        <ele>450.822</ele>
        <time>2019-06-22T14:36:28Z</time>
      </trkpt>
      <trkpt lat="41.409575" lon="-7.091087">
        <ele>451.421</ele>
        <time>2019-06-22T14:36:29Z</time>
      </trkpt>
      <trkpt lat="41.409451" lon="-7.091003">
        <ele>452.576</ele>
        <time>2019-06-22T14:36:30Z</time>
      </trkpt>
      <trkpt lat="41.409338" lon="-7.090904">
        <ele>453.869</ele>
        <time>2019-06-22T14:36:31Z</time>
      </trkpt>
      <trkpt lat="41.409248" lon="-7.090796">
        <ele>454.639</ele>
        <time>2019-06-22T14:36:32Z</time>
      </trkpt>
      <trkpt lat="41.409169" lon="-7.090660">
        <ele>456.001</ele>
        <time>2019-06-22T14:36:33Z</time>
      </trkpt>
      <trkpt lat="41.409092" lon="-7.090532">
        <ele>457.821</ele>
        <time>2019-06-22T14:36:34Z</time>
      </trkpt>
      <trkpt lat="41.409006" lon="-7.090395">
        <ele>459.208</ele>
        <time>2019-06-22T14:36:35Z</time>
      </trkpt>
      <trkpt lat="41.408923" lon="-7.090253">
        <ele>460.816</ele>
        <time>2019-06-22T14:36:36Z</time>
      </trkpt>
      <trkpt lat="41.408837" lon="-7.090097">
        <ele>462.010</ele>
        <time>2019-06-22T14:36:37Z</time>
      </trkpt>
      <trkpt lat="41.408765" lon="-7.089935">
        <ele>463.272</ele>
        <time>2019-06-22T14:36:38Z</time>
      </trkpt>
      <trkpt lat="41.408684" lon="-7.089770">
        <ele>464.694</ele>
        <time>2019-06-22T14:36:39Z</time>
      </trkpt>
      <trkpt lat="41.408570" lon="-7.089626">
        <ele>466.132</ele>
        <time>2019-06-22T14:36:40Z</time>
      </trkpt>
      <trkpt lat="41.408467" lon="-7.089479">
        <ele>467.471</ele>
        <time>2019-06-22T14:36:41Z</time>
      </trkpt>
      <trkpt lat="41.408373" lon="-7.089304">
        <ele>469.546</ele>
        <time>2019-06-22T14:36:42Z</time>
      </trkpt>
      <trkpt lat="41.408252" lon="-7.089166">
        <ele>471.019</ele>
        <time>2019-06-22T14:36:43Z</time>
      </trkpt>
      <trkpt lat="41.408115" lon="-7.089048">
        <ele>472.397</ele>
        <time>2019-06-22T14:36:44Z</time>
      </trkpt>
      <trkpt lat="41.407982" lon="-7.088921">
        <ele>473.723</ele>
        <time>2019-06-22T14:36:45Z</time>
      </trkpt>
      <trkpt lat="41.407848" lon="-7.088791">
        <ele>475.225</ele>
        <time>2019-06-22T14:36:46Z</time>
      </trkpt>
      <trkpt lat="41.407709" lon="-7.088658">
        <ele>476.508</ele>
        <time>2019-06-22T14:36:47Z</time>
      </trkpt>
      <trkpt lat="41.407600" lon="-7.088504">
        <ele>478.222</ele>
        <time>2019-06-22T14:36:48Z</time>
      </trkpt>
      <trkpt lat="41.407505" lon="-7.088287">
        <ele>479.656</ele>
        <time>2019-06-22T14:36:49Z</time>
      </trkpt>
      <trkpt lat="41.407418" lon="-7.088080">
        <ele>480.598</ele>
        <time>2019-06-22T14:36:50Z</time>
      </trkpt>
      <trkpt lat="41.407320" lon="-7.087884">
        <ele>481.470</ele>
        <time>2019-06-22T14:36:51Z</time>
      </trkpt>
      <trkpt lat="41.407226" lon="-7.087688">
        <ele>482.178</ele>
        <time>2019-06-22T14:36:52Z</time>
      </trkpt>
      <trkpt lat="41.407112" lon="-7.087514">
        <ele>482.677</ele>
        <time>2019-06-22T14:36:53Z</time>
      </trkpt>
      <trkpt lat="41.407010" lon="-7.087337">
        <ele>483.542</ele>
        <time>2019-06-22T14:36:54Z</time>
      </trkpt>
      <trkpt lat="41.406908" lon="-7.087146">
        <ele>484.785</ele>
        <time>2019-06-22T14:36:55Z</time>
      </trkpt>
      <trkpt lat="41.406808" lon="-7.086945">
        <ele>485.687</ele>
        <time>2019-06-22T14:36:56Z</time>
      </trkpt>
      <trkpt lat="41.406693" lon="-7.086742">
        <ele>485.642</ele>
        <time>2019-06-22T14:36:57Z</time>
      </trkpt>
      <trkpt lat="41.406578" lon="-7.086532">
        <ele>485.626</ele>
        <time>2019-06-22T14:36:58Z</time>
      </trkpt>
      <trkpt lat="41.406451" lon="-7.086326">
        <ele>484.808</ele>
        <time>2019-06-22T14:36:59Z</time>
      </trkpt>
      <trkpt lat="41.406331" lon="-7.086110">
        <ele>482.571</ele>
        <time>2019-06-22T14:37:00Z</time>
      </trkpt>
      <trkpt lat="41.406212" lon="-7.085892">
        <ele>480.835</ele>
        <time>2019-06-22T14:37:01Z</time>
      </trkpt>
      <trkpt lat="41.406092" lon="-7.085686">
        <ele>479.317</ele>
        <time>2019-06-22T14:37:02Z</time>
      </trkpt>
      <trkpt lat="41.405978" lon="-7.085473">
        <ele>478.029</ele>
        <time>2019-06-22T14:37:03Z</time>
      </trkpt>
      <trkpt lat="41.405864" lon="-7.085266">
        <ele>475.837</ele>
        <time>2019-06-22T14:37:04Z</time>
      </trkpt>
      <trkpt lat="41.405739" lon="-7.085053">
        <ele>475.236</ele>
        <time>2019-06-22T14:37:05Z</time>
      </trkpt>
      <trkpt lat="41.405618" lon="-7.084847">
        <ele>475.061</ele>
        <time>2019-06-22T14:37:06Z</time>
      </trkpt>
      <trkpt lat="41.405510" lon="-7.084653">
        <ele>475.054</ele>
        <time>2019-06-22T14:37:07Z</time>
      </trkpt>
      <trkpt lat="41.405405" lon="-7.084472">
        <ele>475.217</ele>
        <time>2019-06-22T14:37:08Z</time>
      </trkpt>
      <trkpt lat="41.405320" lon="-7.084309">
        <ele>476.287</ele>
        <time>2019-06-22T14:37:09Z</time>
      </trkpt>
      <trkpt lat="41.405244" lon="-7.084133">
        <ele>477.915</ele>
        <time>2019-06-22T14:37:10Z</time>
      </trkpt>
      <trkpt lat="41.405187" lon="-7.083938">
        <ele>479.708</ele>
        <time>2019-06-22T14:37:11Z</time>
      </trkpt>
      <trkpt lat="41.405153" lon="-7.083781">
        <ele>480.794</ele>
        <time>2019-06-22T14:37:12Z</time>
      </trkpt>
      <trkpt lat="41.405175" lon="-7.083601">
        <ele>482.278</ele>
        <time>2019-06-22T14:37:13Z</time>
      </trkpt>
      <trkpt lat="41.405177" lon="-7.083404">
        <ele>484.170</ele>
        <time>2019-06-22T14:37:14Z</time>
      </trkpt>
      <trkpt lat="41.405201" lon="-7.083204">
        <ele>486.132</ele>
        <time>2019-06-22T14:37:15Z</time>
      </trkpt>
      <trkpt lat="41.405212" lon="-7.082998">
        <ele>487.490</ele>
        <time>2019-06-22T14:37:16Z</time>
      </trkpt>
      <trkpt lat="41.405227" lon="-7.082796">
        <ele>489.119</ele>
        <time>2019-06-22T14:37:17Z</time>
      </trkpt>
      <trkpt lat="41.405235" lon="-7.082593">
        <ele>490.594</ele>
        <time>2019-06-22T14:37:18Z</time>
      </trkpt>
      <trkpt lat="41.405228" lon="-7.082400">
        <ele>490.817</ele>
        <time>2019-06-22T14:37:19Z</time>
      </trkpt>
      <trkpt lat="41.405191" lon="-7.082209">
        <ele>491.327</ele>
        <time>2019-06-22T14:37:20Z</time>
      </trkpt>
      <trkpt lat="41.405137" lon="-7.082023">
        <ele>492.268</ele>
        <time>2019-06-22T14:37:21Z</time>
      </trkpt>
      <trkpt lat="41.405065" lon="-7.081833">
        <ele>492.814</ele>
        <time>2019-06-22T14:37:22Z</time>
      </trkpt>
      <trkpt lat="41.404981" lon="-7.081644">
        <ele>493.508</ele>
        <time>2019-06-22T14:37:23Z</time>
      </trkpt>
      <trkpt lat="41.404904" lon="-7.081455">
        <ele>493.545</ele>
        <time>2019-06-22T14:37:24Z</time>
      </trkpt>
      <trkpt lat="41.404836" lon="-7.081272">
        <ele>495.719</ele>
        <time>2019-06-22T14:37:25Z</time>
      </trkpt>
      <trkpt lat="41.404784" lon="-7.081101">
        <ele>497.751</ele>
        <time>2019-06-22T14:37:26Z</time>
      </trkpt>
      <trkpt lat="41.404754" lon="-7.080911">
        <ele>498.743</ele>
        <time>2019-06-22T14:37:27Z</time>
      </trkpt>
      <trkpt lat="41.404744" lon="-7.080704">
        <ele>500.841</ele>
        <time>2019-06-22T14:37:28Z</time>
      </trkpt>
      <trkpt lat="41.404749" lon="-7.080507">
        <ele>503.090</ele>
        <time>2019-06-22T14:37:29Z</time>
      </trkpt>
      <trkpt lat="41.404748" lon="-7.080313">
        <ele>504.335</ele>
        <time>2019-06-22T14:37:30Z</time>
      </trkpt>
      <trkpt lat="41.404756" lon="-7.080110">
        <ele>505.118</ele>
        <time>2019-06-22T14:37:31Z</time>
      </trkpt>
      <trkpt lat="41.404760" lon="-7.079913">
        <ele>505.249</ele>
        <time>2019-06-22T14:37:32Z</time>
      </trkpt>
      <trkpt lat="41.404767" lon="-7.079719">
        <ele>505.302</ele>
        <time>2019-06-22T14:37:33Z</time>
      </trkpt>
      <trkpt lat="41.404797" lon="-7.079526">
        <ele>505.322</ele>
        <time>2019-06-22T14:37:34Z</time>
      </trkpt>
      <trkpt lat="41.404850" lon="-7.079332">
        <ele>505.708</ele>
        <time>2019-06-22T14:37:35Z</time>
      </trkpt>
      <trkpt lat="41.404917" lon="-7.079118">
        <ele>506.347</ele>
        <time>2019-06-22T14:37:36Z</time>
      </trkpt>
      <trkpt lat="41.404977" lon="-7.078891">
        <ele>507.181</ele>
        <time>2019-06-22T14:37:37Z</time>
      </trkpt>
      <trkpt lat="41.405028" lon="-7.078672">
        <ele>507.113</ele>
        <time>2019-06-22T14:37:38Z</time>
      </trkpt>
      <trkpt lat="41.405081" lon="-7.078463">
        <ele>506.965</ele>
        <time>2019-06-22T14:37:39Z</time>
      </trkpt>
      <trkpt lat="41.405133" lon="-7.078263">
        <ele>505.943</ele>
        <time>2019-06-22T14:37:40Z</time>
      </trkpt>
      <trkpt lat="41.405162" lon="-7.078068">
        <ele>504.652</ele>
        <time>2019-06-22T14:37:41Z</time>
      </trkpt>
      <trkpt lat="41.405163" lon="-7.077885">
        <ele>503.217</ele>
        <time>2019-06-22T14:37:42Z</time>
      </trkpt>
      <trkpt lat="41.405149" lon="-7.077717">
        <ele>503.290</ele>
        <time>2019-06-22T14:37:43Z</time>
      </trkpt>
      <trkpt lat="41.405115" lon="-7.077558">
        <ele>503.571</ele>
        <time>2019-06-22T14:37:44Z</time>
      </trkpt>
      <trkpt lat="41.405057" lon="-7.077415">
        <ele>505.041</ele>
        <time>2019-06-22T14:37:45Z</time>
      </trkpt>
      <trkpt lat="41.405000" lon="-7.077269">
        <ele>506.615</ele>
        <time>2019-06-22T14:37:46Z</time>
      </trkpt>
      <trkpt lat="41.404949" lon="-7.077128">
        <ele>508.808</ele>
        <time>2019-06-22T14:37:47Z</time>
      </trkpt>
      <trkpt lat="41.404887" lon="-7.077005">
        <ele>511.030</ele>
        <time>2019-06-22T14:37:48Z</time>
      </trkpt>
      <trkpt lat="41.404840" lon="-7.076889">
        <ele>512.864</ele>
        <time>2019-06-22T14:37:49Z</time>
      </trkpt>
      <trkpt lat="41.404791" lon="-7.076773">
        <ele>513.816</ele>
        <time>2019-06-22T14:37:50Z</time>
      </trkpt>
      <trkpt lat="41.404733" lon="-7.076664">
        <ele>515.238</ele>
        <time>2019-06-22T14:37:51Z</time>
      </trkpt>
      <trkpt lat="41.404671" lon="-7.076547">
        <ele>516.926</ele>
        <time>2019-06-22T14:37:52Z</time>
      </trkpt>
      <trkpt lat="41.404596" lon="-7.076458">
        <ele>517.525</ele>
        <time>2019-06-22T14:37:53Z</time>
      </trkpt>
      <trkpt lat="41.404515" lon="-7.076386">
        <ele>517.820</ele>
        <time>2019-06-22T14:37:54Z</time>
      </trkpt>
      <trkpt lat="41.404433" lon="-7.076334">
        <ele>517.833</ele>
        <time>2019-06-22T14:37:55Z</time>
      </trkpt>
      <trkpt lat="41.404331" lon="-7.076295">
        <ele>517.856</ele>
        <time>2019-06-22T14:37:56Z</time>
      </trkpt>
      <trkpt lat="41.404230" lon="-7.076294">
        <ele>517.659</ele>
        <time>2019-06-22T14:37:57Z</time>
      </trkpt>
      <trkpt lat="41.404063" lon="-7.076341">
        <ele>517.614</ele>
        <time>2019-06-22T14:37:58Z</time>
      </trkpt>
      <trkpt lat="41.403918" lon="-7.076376">
        <ele>518.108</ele>
        <time>2019-06-22T14:37:59Z</time>
      </trkpt>
      <trkpt lat="41.403767" lon="-7.076428">
        <ele>519.278</ele>
        <time>2019-06-22T14:38:00Z</time>
      </trkpt>
      <trkpt lat="41.403613" lon="-7.076473">
        <ele>519.232</ele>
        <time>2019-06-22T14:38:01Z</time>
      </trkpt>
      <trkpt lat="41.403445" lon="-7.076519">
        <ele>519.134</ele>
        <time>2019-06-22T14:38:02Z</time>
      </trkpt>
      <trkpt lat="41.403268" lon="-7.076590">
        <ele>519.156</ele>
        <time>2019-06-22T14:38:03Z</time>
      </trkpt>
      <trkpt lat="41.403080" lon="-7.076669">
        <ele>518.964</ele>
        <time>2019-06-22T14:38:04Z</time>
      </trkpt>
      <trkpt lat="41.402888" lon="-7.076745">
        <ele>518.363</ele>
        <time>2019-06-22T14:38:05Z</time>
      </trkpt>
      <trkpt lat="41.402684" lon="-7.076818">
        <ele>517.418</ele>
        <time>2019-06-22T14:38:06Z</time>
      </trkpt>
      <trkpt lat="41.402467" lon="-7.076901">
        <ele>516.941</ele>
        <time>2019-06-22T14:38:07Z</time>
      </trkpt>
      <trkpt lat="41.402249" lon="-7.076984">
        <ele>515.441</ele>
        <time>2019-06-22T14:38:08Z</time>
      </trkpt>
      <trkpt lat="41.402019" lon="-7.077065">
        <ele>514.781</ele>
        <time>2019-06-22T14:38:09Z</time>
      </trkpt>
      <trkpt lat="41.401785" lon="-7.077143">
        <ele>513.509</ele>
        <time>2019-06-22T14:38:10Z</time>
      </trkpt>
      <trkpt lat="41.401541" lon="-7.077205">
        <ele>512.508</ele>
        <time>2019-06-22T14:38:11Z</time>
      </trkpt>
      <trkpt lat="41.401295" lon="-7.077255">
        <ele>512.237</ele>
        <time>2019-06-22T14:38:12Z</time>
      </trkpt>
      <trkpt lat="41.401039" lon="-7.077313">
        <ele>511.311</ele>
        <time>2019-06-22T14:38:13Z</time>
      </trkpt>
      <trkpt lat="41.400772" lon="-7.077367">
        <ele>509.763</ele>
        <time>2019-06-22T14:38:14Z</time>
      </trkpt>
      <trkpt lat="41.400510" lon="-7.077413">
        <ele>506.395</ele>
        <time>2019-06-22T14:38:15Z</time>
      </trkpt>
      <trkpt lat="41.400244" lon="-7.077455">
        <ele>503.263</ele>
        <time>2019-06-22T14:38:16Z</time>
      </trkpt>
      <trkpt lat="41.399975" lon="-7.077514">
        <ele>500.752</ele>
        <time>2019-06-22T14:38:17Z</time>
      </trkpt>
      <trkpt lat="41.399715" lon="-7.077572">
        <ele>499.267</ele>
        <time>2019-06-22T14:38:18Z</time>
      </trkpt>
      <trkpt lat="41.399452" lon="-7.077644">
        <ele>496.720</ele>
        <time>2019-06-22T14:38:19Z</time>
      </trkpt>
      <trkpt lat="41.399193" lon="-7.077716">
        <ele>496.735</ele>
        <time>2019-06-22T14:38:20Z</time>
      </trkpt>
      <trkpt lat="41.398933" lon="-7.077802">
        <ele>497.786</ele>
        <time>2019-06-22T14:38:21Z</time>
      </trkpt>
      <trkpt lat="41.398680" lon="-7.077905">
        <ele>497.814</ele>
        <time>2019-06-22T14:38:22Z</time>
      </trkpt>
      <trkpt lat="41.398431" lon="-7.078013">
        <ele>498.308</ele>
        <time>2019-06-22T14:38:23Z</time>
      </trkpt>
      <trkpt lat="41.398185" lon="-7.078118">
        <ele>497.826</ele>
        <time>2019-06-22T14:38:24Z</time>
      </trkpt>
      <trkpt lat="41.397937" lon="-7.078236">
        <ele>497.660</ele>
        <time>2019-06-22T14:38:25Z</time>
      </trkpt>
      <trkpt lat="41.397693" lon="-7.078356">
        <ele>497.652</ele>
        <time>2019-06-22T14:38:26Z</time>
      </trkpt>
      <trkpt lat="41.397452" lon="-7.078473">
        <ele>497.684</ele>
        <time>2019-06-22T14:38:27Z</time>
      </trkpt>
      <trkpt lat="41.397214" lon="-7.078583">
        <ele>498.432</ele>
        <time>2019-06-22T14:38:28Z</time>
      </trkpt>
      <trkpt lat="41.396975" lon="-7.078702">
        <ele>500.651</ele>
        <time>2019-06-22T14:38:29Z</time>
      </trkpt>
      <trkpt lat="41.396734" lon="-7.078818">
        <ele>502.546</ele>
        <time>2019-06-22T14:38:30Z</time>
      </trkpt>
      <trkpt lat="41.396496" lon="-7.078916">
        <ele>502.579</ele>
        <time>2019-06-22T14:38:31Z</time>
      </trkpt>
      <trkpt lat="41.396256" lon="-7.079005">
        <ele>504.849</ele>
        <time>2019-06-22T14:38:32Z</time>
      </trkpt>
      <trkpt lat="41.396010" lon="-7.079100">
        <ele>505.702</ele>
        <time>2019-06-22T14:38:33Z</time>
      </trkpt>
      <trkpt lat="41.395766" lon="-7.079158">
        <ele>506.622</ele>
        <time>2019-06-22T14:38:34Z</time>
      </trkpt>
      <trkpt lat="41.395513" lon="-7.079204">
        <ele>508.308</ele>
        <time>2019-06-22T14:38:35Z</time>
      </trkpt>
      <trkpt lat="41.395259" lon="-7.079230">
        <ele>510.327</ele>
        <time>2019-06-22T14:38:36Z</time>
      </trkpt>
      <trkpt lat="41.395010" lon="-7.079244">
        <ele>512.461</ele>
        <time>2019-06-22T14:38:37Z</time>
      </trkpt>
      <trkpt lat="41.394757" lon="-7.079260">
        <ele>514.533</ele>
        <time>2019-06-22T14:38:38Z</time>
      </trkpt>
      <trkpt lat="41.394501" lon="-7.079245">
        <ele>516.225</ele>
        <time>2019-06-22T14:38:39Z</time>
      </trkpt>
      <trkpt lat="41.394249" lon="-7.079214">
        <ele>517.653</ele>
        <time>2019-06-22T14:38:40Z</time>
      </trkpt>
      <trkpt lat="41.394006" lon="-7.079163">
        <ele>518.422</ele>
        <time>2019-06-22T14:38:41Z</time>
      </trkpt>
      <trkpt lat="41.393757" lon="-7.079101">
        <ele>519.587</ele>
        <time>2019-06-22T14:38:42Z</time>
      </trkpt>
      <trkpt lat="41.393513" lon="-7.079033">
        <ele>520.510</ele>
        <time>2019-06-22T14:38:43Z</time>
      </trkpt>
      <trkpt lat="41.393276" lon="-7.078941">
        <ele>522.053</ele>
        <time>2019-06-22T14:38:44Z</time>
      </trkpt>
      <trkpt lat="41.393046" lon="-7.078840">
        <ele>523.304</ele>
        <time>2019-06-22T14:38:45Z</time>
      </trkpt>
      <trkpt lat="41.392814" lon="-7.078724">
        <ele>524.114</ele>
        <time>2019-06-22T14:38:46Z</time>
      </trkpt>
      <trkpt lat="41.392600" lon="-7.078610">
        <ele>524.608</ele>
        <time>2019-06-22T14:38:47Z</time>
      </trkpt>
      <trkpt lat="41.392384" lon="-7.078479">
        <ele>524.698</ele>
        <time>2019-06-22T14:38:48Z</time>
      </trkpt>
      <trkpt lat="41.392172" lon="-7.078326">
        <ele>524.612</ele>
        <time>2019-06-22T14:38:49Z</time>
      </trkpt>
      <trkpt lat="41.391969" lon="-7.078161">
        <ele>524.644</ele>
        <time>2019-06-22T14:38:50Z</time>
      </trkpt>
      <trkpt lat="41.391764" lon="-7.077992">
        <ele>525.326</ele>
        <time>2019-06-22T14:38:51Z</time>
      </trkpt>
      <trkpt lat="41.391576" lon="-7.077812">
        <ele>526.524</ele>
        <time>2019-06-22T14:38:52Z</time>
      </trkpt>
      <trkpt lat="41.391393" lon="-7.077642">
        <ele>528.483</ele>
        <time>2019-06-22T14:38:53Z</time>
      </trkpt>
      <trkpt lat="41.391201" lon="-7.077449">
        <ele>529.878</ele>
        <time>2019-06-22T14:38:54Z</time>
      </trkpt>
      <trkpt lat="41.391023" lon="-7.077243">
        <ele>531.581</ele>
        <time>2019-06-22T14:38:55Z</time>
      </trkpt>
      <trkpt lat="41.390844" lon="-7.077036">
        <ele>533.551</ele>
        <time>2019-06-22T14:38:56Z</time>
      </trkpt>
      <trkpt lat="41.390664" lon="-7.076830">
        <ele>534.401</ele>
        <time>2019-06-22T14:38:57Z</time>
      </trkpt>
      <trkpt lat="41.390487" lon="-7.076628">
        <ele>534.611</ele>
        <time>2019-06-22T14:38:58Z</time>
      </trkpt>
      <trkpt lat="41.390303" lon="-7.076427">
        <ele>535.508</ele>
        <time>2019-06-22T14:38:59Z</time>
      </trkpt>
      <trkpt lat="41.390115" lon="-7.076224">
        <ele>536.558</ele>
        <time>2019-06-22T14:39:00Z</time>
      </trkpt>
      <trkpt lat="41.389929" lon="-7.076033">
        <ele>537.362</ele>
        <time>2019-06-22T14:39:01Z</time>
      </trkpt>
      <trkpt lat="41.389744" lon="-7.075833">
        <ele>538.594</ele>
        <time>2019-06-22T14:39:02Z</time>
      </trkpt>
      <trkpt lat="41.389559" lon="-7.075640">
        <ele>540.036</ele>
        <time>2019-06-22T14:39:03Z</time>
      </trkpt>
      <trkpt lat="41.389362" lon="-7.075462">
        <ele>540.374</ele>
        <time>2019-06-22T14:39:04Z</time>
      </trkpt>
      <trkpt lat="41.389162" lon="-7.075272">
        <ele>540.753</ele>
        <time>2019-06-22T14:39:05Z</time>
      </trkpt>
      <trkpt lat="41.388955" lon="-7.075089">
        <ele>540.828</ele>
        <time>2019-06-22T14:39:06Z</time>
      </trkpt>
      <trkpt lat="41.388750" lon="-7.074911">
        <ele>540.931</ele>
        <time>2019-06-22T14:39:07Z</time>
      </trkpt>
      <trkpt lat="41.388538" lon="-7.074738">
        <ele>541.213</ele>
        <time>2019-06-22T14:39:08Z</time>
      </trkpt>
      <trkpt lat="41.388319" lon="-7.074574">
        <ele>542.143</ele>
        <time>2019-06-22T14:39:09Z</time>
      </trkpt>
      <trkpt lat="41.388101" lon="-7.074423">
        <ele>543.307</ele>
        <time>2019-06-22T14:39:10Z</time>
      </trkpt>
      <trkpt lat="41.387879" lon="-7.074281">
        <ele>543.808</ele>
        <time>2019-06-22T14:39:11Z</time>
      </trkpt>
      <trkpt lat="41.387656" lon="-7.074146">
        <ele>544.314</ele>
        <time>2019-06-22T14:39:12Z</time>
      </trkpt>
      <trkpt lat="41.387428" lon="-7.074019">
        <ele>544.358</ele>
        <time>2019-06-22T14:39:13Z</time>
      </trkpt>
      <trkpt lat="41.387193" lon="-7.073907">
        <ele>543.590</ele>
        <time>2019-06-22T14:39:14Z</time>
      </trkpt>
      <trkpt lat="41.386955" lon="-7.073801">
        <ele>543.462</ele>
        <time>2019-06-22T14:39:15Z</time>
      </trkpt>
      <trkpt lat="41.386718" lon="-7.073695">
        <ele>542.610</ele>
        <time>2019-06-22T14:39:16Z</time>
      </trkpt>
      <trkpt lat="41.386476" lon="-7.073592">
        <ele>541.069</ele>
        <time>2019-06-22T14:39:17Z</time>
      </trkpt>
      <trkpt lat="41.386235" lon="-7.073492">
        <ele>540.294</ele>
        <time>2019-06-22T14:39:18Z</time>
      </trkpt>
      <trkpt lat="41.385996" lon="-7.073390">
        <ele>540.197</ele>
        <time>2019-06-22T14:39:19Z</time>
      </trkpt>
      <trkpt lat="41.385750" lon="-7.073284">
        <ele>538.771</ele>
        <time>2019-06-22T14:39:20Z</time>
      </trkpt>
      <trkpt lat="41.385497" lon="-7.073170">
        <ele>538.741</ele>
        <time>2019-06-22T14:39:21Z</time>
      </trkpt>
      <trkpt lat="41.385257" lon="-7.073059">
        <ele>539.415</ele>
        <time>2019-06-22T14:39:22Z</time>
      </trkpt>
      <trkpt lat="41.385017" lon="-7.072933">
        <ele>539.408</ele>
        <time>2019-06-22T14:39:23Z</time>
      </trkpt>
      <trkpt lat="41.384767" lon="-7.072804">
        <ele>539.230</ele>
        <time>2019-06-22T14:39:24Z</time>
      </trkpt>
      <trkpt lat="41.384520" lon="-7.072670">
        <ele>538.244</ele>
        <time>2019-06-22T14:39:25Z</time>
      </trkpt>
      <trkpt lat="41.384270" lon="-7.072533">
        <ele>538.076</ele>
        <time>2019-06-22T14:39:26Z</time>
      </trkpt>
      <trkpt lat="41.384024" lon="-7.072389">
        <ele>537.478</ele>
        <time>2019-06-22T14:39:27Z</time>
      </trkpt>
      <trkpt lat="41.383780" lon="-7.072241">
        <ele>536.676</ele>
        <time>2019-06-22T14:39:28Z</time>
      </trkpt>
      <trkpt lat="41.383542" lon="-7.072090">
        <ele>535.445</ele>
        <time>2019-06-22T14:39:29Z</time>
      </trkpt>
      <trkpt lat="41.383294" lon="-7.071945">
        <ele>534.250</ele>
        <time>2019-06-22T14:39:30Z</time>
      </trkpt>
      <trkpt lat="41.383042" lon="-7.071800">
        <ele>532.793</ele>
        <time>2019-06-22T14:39:31Z</time>
      </trkpt>
      <trkpt lat="41.382784" lon="-7.071663">
        <ele>531.271</ele>
        <time>2019-06-22T14:39:32Z</time>
      </trkpt>
      <trkpt lat="41.382527" lon="-7.071532">
        <ele>529.741</ele>
        <time>2019-06-22T14:39:33Z</time>
      </trkpt>
      <trkpt lat="41.382271" lon="-7.071426">
        <ele>527.415</ele>
        <time>2019-06-22T14:39:34Z</time>
      </trkpt>
      <trkpt lat="41.382004" lon="-7.071332">
        <ele>527.408</ele>
        <time>2019-06-22T14:39:35Z</time>
      </trkpt>
      <trkpt lat="41.381740" lon="-7.071244">
        <ele>525.340</ele>
        <time>2019-06-22T14:39:36Z</time>
      </trkpt>
      <trkpt lat="41.381468" lon="-7.071195">
        <ele>525.314</ele>
        <time>2019-06-22T14:39:37Z</time>
      </trkpt>
      <trkpt lat="41.381201" lon="-7.071165">
        <ele>522.096</ele>
        <time>2019-06-22T14:39:38Z</time>
      </trkpt>
      <trkpt lat="41.380943" lon="-7.071168">
        <ele>520.588</ele>
        <time>2019-06-22T14:39:39Z</time>
      </trkpt>
      <trkpt lat="41.380675" lon="-7.071182">
        <ele>520.446</ele>
        <time>2019-06-22T14:39:40Z</time>
      </trkpt>
      <trkpt lat="41.380407" lon="-7.071219">
        <ele>520.435</ele>
        <time>2019-06-22T14:39:41Z</time>
      </trkpt>
      <trkpt lat="41.380140" lon="-7.071265">
        <ele>521.720</ele>
        <time>2019-06-22T14:39:42Z</time>
      </trkpt>
      <trkpt lat="41.379883" lon="-7.071332">
        <ele>523.473</ele>
        <time>2019-06-22T14:39:43Z</time>
      </trkpt>
      <trkpt lat="41.379634" lon="-7.071413">
        <ele>523.489</ele>
        <time>2019-06-22T14:39:44Z</time>
      </trkpt>
      <trkpt lat="41.379379" lon="-7.071510">
        <ele>522.606</ele>
        <time>2019-06-22T14:39:45Z</time>
      </trkpt>
      <trkpt lat="41.379132" lon="-7.071633">
        <ele>520.926</ele>
        <time>2019-06-22T14:39:46Z</time>
      </trkpt>
      <trkpt lat="41.378882" lon="-7.071773">
        <ele>519.008</ele>
        <time>2019-06-22T14:39:47Z</time>
      </trkpt>
      <trkpt lat="41.378653" lon="-7.071930">
        <ele>518.531</ele>
        <time>2019-06-22T14:39:48Z</time>
      </trkpt>
      <trkpt lat="41.378416" lon="-7.072097">
        <ele>517.035</ele>
        <time>2019-06-22T14:39:49Z</time>
      </trkpt>
      <trkpt lat="41.378184" lon="-7.072282">
        <ele>517.077</ele>
        <time>2019-06-22T14:39:50Z</time>
      </trkpt>
      <trkpt lat="41.377958" lon="-7.072484">
        <ele>517.419</ele>
        <time>2019-06-22T14:39:51Z</time>
      </trkpt>
      <trkpt lat="41.377738" lon="-7.072695">
        <ele>517.877</ele>
        <time>2019-06-22T14:39:52Z</time>
      </trkpt>
      <trkpt lat="41.377515" lon="-7.072918">
        <ele>518.276</ele>
        <time>2019-06-22T14:39:53Z</time>
      </trkpt>
      <trkpt lat="41.377309" lon="-7.073158">
        <ele>518.261</ele>
        <time>2019-06-22T14:39:54Z</time>
      </trkpt>
      <trkpt lat="41.377099" lon="-7.073406">
        <ele>519.274</ele>
        <time>2019-06-22T14:39:55Z</time>
      </trkpt>
      <trkpt lat="41.376888" lon="-7.073644">
        <ele>519.228</ele>
        <time>2019-06-22T14:39:56Z</time>
      </trkpt>
      <trkpt lat="41.376681" lon="-7.073883">
        <ele>518.489</ele>
        <time>2019-06-22T14:39:57Z</time>
      </trkpt>
      <trkpt lat="41.376468" lon="-7.074121">
        <ele>517.817</ele>
        <time>2019-06-22T14:39:58Z</time>
      </trkpt>
      <trkpt lat="41.376261" lon="-7.074363">
        <ele>517.708</ele>
        <time>2019-06-22T14:39:59Z</time>
      </trkpt>
      <trkpt lat="41.376042" lon="-7.074621">
        <ele>517.185</ele>
        <time>2019-06-22T14:40:00Z</time>
      </trkpt>
      <trkpt lat="41.375837" lon="-7.074864">
        <ele>515.979</ele>
        <time>2019-06-22T14:40:01Z</time>
      </trkpt>
      <trkpt lat="41.375636" lon="-7.075127">
        <ele>514.011</ele>
        <time>2019-06-22T14:40:02Z</time>
      </trkpt>
      <trkpt lat="41.375427" lon="-7.075366">
        <ele>513.463</ele>
        <time>2019-06-22T14:40:03Z</time>
      </trkpt>
      <trkpt lat="41.375211" lon="-7.075608">
        <ele>511.461</ele>
        <time>2019-06-22T14:40:04Z</time>
      </trkpt>
      <trkpt lat="41.375013" lon="-7.075842">
        <ele>509.010</ele>
        <time>2019-06-22T14:40:05Z</time>
      </trkpt>
      <trkpt lat="41.374807" lon="-7.076086">
        <ele>507.825</ele>
        <time>2019-06-22T14:40:06Z</time>
      </trkpt>
      <trkpt lat="41.374592" lon="-7.076334">
        <ele>507.428</ele>
        <time>2019-06-22T14:40:07Z</time>
      </trkpt>
      <trkpt lat="41.374385" lon="-7.076576">
        <ele>506.677</ele>
        <time>2019-06-22T14:40:08Z</time>
      </trkpt>
      <trkpt lat="41.374173" lon="-7.076822">
        <ele>505.661</ele>
        <time>2019-06-22T14:40:09Z</time>
      </trkpt>
      <trkpt lat="41.373958" lon="-7.077072">
        <ele>504.627</ele>
        <time>2019-06-22T14:40:10Z</time>
      </trkpt>
      <trkpt lat="41.373747" lon="-7.077309">
        <ele>503.408</ele>
        <time>2019-06-22T14:40:11Z</time>
      </trkpt>
      <trkpt lat="41.373530" lon="-7.077548">
        <ele>501.130</ele>
        <time>2019-06-22T14:40:12Z</time>
      </trkpt>
      <trkpt lat="41.373311" lon="-7.077774">
        <ele>499.214</ele>
        <time>2019-06-22T14:40:13Z</time>
      </trkpt>
      <trkpt lat="41.373087" lon="-7.078010">
        <ele>497.636</ele>
        <time>2019-06-22T14:40:14Z</time>
      </trkpt>
      <trkpt lat="41.372857" lon="-7.078236">
        <ele>496.558</ele>
        <time>2019-06-22T14:40:15Z</time>
      </trkpt>
      <trkpt lat="41.372628" lon="-7.078460">
        <ele>495.236</ele>
        <time>2019-06-22T14:40:16Z</time>
      </trkpt>
      <trkpt lat="41.372394" lon="-7.078657">
        <ele>494.715</ele>
        <time>2019-06-22T14:40:17Z</time>
      </trkpt>
      <trkpt lat="41.372158" lon="-7.078857">
        <ele>494.220</ele>
        <time>2019-06-22T14:40:18Z</time>
      </trkpt>
      <trkpt lat="41.371912" lon="-7.079042">
        <ele>491.793</ele>
        <time>2019-06-22T14:40:19Z</time>
      </trkpt>
      <trkpt lat="41.371687" lon="-7.079195">
        <ele>489.244</ele>
        <time>2019-06-22T14:40:20Z</time>
      </trkpt>
      <trkpt lat="41.371465" lon="-7.079339">
        <ele>487.505</ele>
        <time>2019-06-22T14:40:21Z</time>
      </trkpt>
      <trkpt lat="41.371237" lon="-7.079492">
        <ele>486.315</ele>
        <time>2019-06-22T14:40:22Z</time>
      </trkpt>
      <trkpt lat="41.371005" lon="-7.079657">
        <ele>484.408</ele>
        <time>2019-06-22T14:40:23Z</time>
      </trkpt>
      <trkpt lat="41.370776" lon="-7.079824">
        <ele>483.257</ele>
        <time>2019-06-22T14:40:24Z</time>
      </trkpt>
      <trkpt lat="41.370544" lon="-7.080007">
        <ele>482.621</ele>
        <time>2019-06-22T14:40:25Z</time>
      </trkpt>
      <trkpt lat="41.370320" lon="-7.080173">
        <ele>481.413</ele>
        <time>2019-06-22T14:40:26Z</time>
      </trkpt>
      <trkpt lat="41.370107" lon="-7.080355">
        <ele>478.535</ele>
        <time>2019-06-22T14:40:27Z</time>
      </trkpt>
      <trkpt lat="41.369899" lon="-7.080543">
        <ele>476.083</ele>
        <time>2019-06-22T14:40:28Z</time>
      </trkpt>
      <trkpt lat="41.369695" lon="-7.080745">
        <ele>474.432</ele>
        <time>2019-06-22T14:40:29Z</time>
      </trkpt>
      <trkpt lat="41.369489" lon="-7.080961">
        <ele>472.947</ele>
        <time>2019-06-22T14:40:30Z</time>
      </trkpt>
      <trkpt lat="41.369289" lon="-7.081178">
        <ele>472.050</ele>
        <time>2019-06-22T14:40:31Z</time>
      </trkpt>
      <trkpt lat="41.369108" lon="-7.081382">
        <ele>472.029</ele>
        <time>2019-06-22T14:40:32Z</time>
      </trkpt>
      <trkpt lat="41.368920" lon="-7.081655">
        <ele>472.300</ele>
        <time>2019-06-22T14:40:33Z</time>
      </trkpt>
      <trkpt lat="41.368732" lon="-7.081911">
        <ele>473.120</ele>
        <time>2019-06-22T14:40:34Z</time>
      </trkpt>
      <trkpt lat="41.368561" lon="-7.082172">
        <ele>473.108</ele>
        <time>2019-06-22T14:40:35Z</time>
      </trkpt>
      <trkpt lat="41.368390" lon="-7.082448">
        <ele>472.885</ele>
        <time>2019-06-22T14:40:36Z</time>
      </trkpt>
      <trkpt lat="41.368242" lon="-7.082731">
        <ele>472.259</ele>
        <time>2019-06-22T14:40:37Z</time>
      </trkpt>
      <trkpt lat="41.368084" lon="-7.083036">
        <ele>471.691</ele>
        <time>2019-06-22T14:40:38Z</time>
      </trkpt>
      <trkpt lat="41.367949" lon="-7.083331">
        <ele>470.863</ele>
        <time>2019-06-22T14:40:39Z</time>
      </trkpt>
      <trkpt lat="41.367804" lon="-7.083644">
        <ele>470.261</ele>
        <time>2019-06-22T14:40:40Z</time>
      </trkpt>
      <trkpt lat="41.367680" lon="-7.083944">
        <ele>470.270</ele>
        <time>2019-06-22T14:40:41Z</time>
      </trkpt>
      <trkpt lat="41.367533" lon="-7.084264">
        <ele>469.885</ele>
        <time>2019-06-22T14:40:42Z</time>
      </trkpt>
      <trkpt lat="41.367389" lon="-7.084579">
        <ele>469.648</ele>
        <time>2019-06-22T14:40:43Z</time>
      </trkpt>
      <trkpt lat="41.367245" lon="-7.084888">
        <ele>468.853</ele>
        <time>2019-06-22T14:40:44Z</time>
      </trkpt>
      <trkpt lat="41.367109" lon="-7.085194">
        <ele>468.604</ele>
        <time>2019-06-22T14:40:45Z</time>
      </trkpt>
      <trkpt lat="41.366967" lon="-7.085491">
        <ele>467.514</ele>
        <time>2019-06-22T14:40:46Z</time>
      </trkpt>
      <trkpt lat="41.366821" lon="-7.085803">
        <ele>466.808</ele>
        <time>2019-06-22T14:40:47Z</time>
      </trkpt>
      <trkpt lat="41.366678" lon="-7.086101">
        <ele>464.648</ele>
        <time>2019-06-22T14:40:48Z</time>
      </trkpt>
      <trkpt lat="41.366532" lon="-7.086415">
        <ele>463.182</ele>
        <time>2019-06-22T14:40:49Z</time>
      </trkpt>
      <trkpt lat="41.366405" lon="-7.086706">
        <ele>461.044</ele>
        <time>2019-06-22T14:40:50Z</time>
      </trkpt>
      <trkpt lat="41.366274" lon="-7.087009">
        <ele>458.146</ele>
        <time>2019-06-22T14:40:51Z</time>
      </trkpt>
      <trkpt lat="41.366132" lon="-7.087301">
        <ele>455.674</ele>
        <time>2019-06-22T14:40:52Z</time>
      </trkpt>
      <trkpt lat="41.365995" lon="-7.087597">
        <ele>454.053</ele>
        <time>2019-06-22T14:40:53Z</time>
      </trkpt>
      <trkpt lat="41.365867" lon="-7.087898">
        <ele>451.638</ele>
        <time>2019-06-22T14:40:54Z</time>
      </trkpt>
      <trkpt lat="41.365732" lon="-7.088188">
        <ele>448.671</ele>
        <time>2019-06-22T14:40:55Z</time>
      </trkpt>
      <trkpt lat="41.365602" lon="-7.088484">
        <ele>448.625</ele>
        <time>2019-06-22T14:40:56Z</time>
      </trkpt>
      <trkpt lat="41.365462" lon="-7.088767">
        <ele>449.826</ele>
        <time>2019-06-22T14:40:57Z</time>
      </trkpt>
      <trkpt lat="41.365311" lon="-7.089048">
        <ele>450.808</ele>
        <time>2019-06-22T14:40:58Z</time>
      </trkpt>
      <trkpt lat="41.365148" lon="-7.089322">
        <ele>452.508</ele>
        <time>2019-06-22T14:40:59Z</time>
      </trkpt>
      <trkpt lat="41.364991" lon="-7.089596">
        <ele>454.295</ele>
        <time>2019-06-22T14:41:00Z</time>
      </trkpt>
      <trkpt lat="41.364819" lon="-7.089841">
        <ele>454.239</ele>
        <time>2019-06-22T14:41:01Z</time>
      </trkpt>
      <trkpt lat="41.364635" lon="-7.090084">
        <ele>453.511</ele>
        <time>2019-06-22T14:41:02Z</time>
      </trkpt>
      <trkpt lat="41.364434" lon="-7.090279">
        <ele>453.013</ele>
        <time>2019-06-22T14:41:03Z</time>
      </trkpt>
      <trkpt lat="41.364210" lon="-7.090487">
        <ele>451.851</ele>
        <time>2019-06-22T14:41:04Z</time>
      </trkpt>
      <trkpt lat="41.363987" lon="-7.090684">
        <ele>451.530</ele>
        <time>2019-06-22T14:41:05Z</time>
      </trkpt>
      <trkpt lat="41.363757" lon="-7.090852">
        <ele>450.345</ele>
        <time>2019-06-22T14:41:06Z</time>
      </trkpt>
      <trkpt lat="41.363524" lon="-7.091012">
        <ele>449.148</ele>
        <time>2019-06-22T14:41:07Z</time>
      </trkpt>
      <trkpt lat="41.363273" lon="-7.091160">
        <ele>448.125</ele>
        <time>2019-06-22T14:41:08Z</time>
      </trkpt>
      <trkpt lat="41.363014" lon="-7.091277">
        <ele>447.226</ele>
        <time>2019-06-22T14:41:09Z</time>
      </trkpt>
      <trkpt lat="41.362760" lon="-7.091365">
        <ele>446.008</ele>
        <time>2019-06-22T14:41:10Z</time>
      </trkpt>
      <trkpt lat="41.362496" lon="-7.091436">
        <ele>444.608</ele>
        <time>2019-06-22T14:41:11Z</time>
      </trkpt>
      <trkpt lat="41.362230" lon="-7.091485">
        <ele>443.355</ele>
        <time>2019-06-22T14:41:12Z</time>
      </trkpt>
      <trkpt lat="41.361977" lon="-7.091513">
        <ele>441.169</ele>
        <time>2019-06-22T14:41:13Z</time>
      </trkpt>
      <trkpt lat="41.361702" lon="-7.091546">
        <ele>439.981</ele>
        <time>2019-06-22T14:41:14Z</time>
      </trkpt>
      <trkpt lat="41.361438" lon="-7.091525">
        <ele>439.073</ele>
        <time>2019-06-22T14:41:15Z</time>
      </trkpt>
      <trkpt lat="41.361169" lon="-7.091489">
        <ele>437.651</ele>
        <time>2019-06-22T14:41:16Z</time>
      </trkpt>
      <trkpt lat="41.360915" lon="-7.091420">
        <ele>436.390</ele>
        <time>2019-06-22T14:41:17Z</time>
      </trkpt>
      <trkpt lat="41.360647" lon="-7.091355">
        <ele>435.145</ele>
        <time>2019-06-22T14:41:18Z</time>
      </trkpt>
      <trkpt lat="41.360403" lon="-7.091263">
        <ele>431.398</ele>
        <time>2019-06-22T14:41:19Z</time>
      </trkpt>
      <trkpt lat="41.360159" lon="-7.091159">
        <ele>428.349</ele>
        <time>2019-06-22T14:41:20Z</time>
      </trkpt>
      <trkpt lat="41.359919" lon="-7.091029">
        <ele>427.002</ele>
        <time>2019-06-22T14:41:21Z</time>
      </trkpt>
      <trkpt lat="41.359686" lon="-7.090881">
        <ele>425.022</ele>
        <time>2019-06-22T14:41:22Z</time>
      </trkpt>
      <trkpt lat="41.359447" lon="-7.090732">
        <ele>424.708</ele>
        <time>2019-06-22T14:41:23Z</time>
      </trkpt>
      <trkpt lat="41.359215" lon="-7.090553">
        <ele>424.587</ele>
        <time>2019-06-22T14:41:24Z</time>
      </trkpt>
      <trkpt lat="41.358995" lon="-7.090354">
        <ele>424.571</ele>
        <time>2019-06-22T14:41:25Z</time>
      </trkpt>
      <trkpt lat="41.358781" lon="-7.090153">
        <ele>422.763</ele>
        <time>2019-06-22T14:41:26Z</time>
      </trkpt>
      <trkpt lat="41.358562" lon="-7.089914">
        <ele>421.385</ele>
        <time>2019-06-22T14:41:27Z</time>
      </trkpt>
      <trkpt lat="41.358345" lon="-7.089691">
        <ele>420.143</ele>
        <time>2019-06-22T14:41:28Z</time>
      </trkpt>
      <trkpt lat="41.358147" lon="-7.089470">
        <ele>419.122</ele>
        <time>2019-06-22T14:41:29Z</time>
      </trkpt>
      <trkpt lat="41.357944" lon="-7.089228">
        <ele>418.987</ele>
        <time>2019-06-22T14:41:30Z</time>
      </trkpt>
      <trkpt lat="41.357747" lon="-7.088981">
        <ele>418.030</ele>
        <time>2019-06-22T14:41:31Z</time>
      </trkpt>
      <trkpt lat="41.357532" lon="-7.088723">
        <ele>416.296</ele>
        <time>2019-06-22T14:41:32Z</time>
      </trkpt>
      <trkpt lat="41.357308" lon="-7.088489">
        <ele>412.931</ele>
        <time>2019-06-22T14:41:33Z</time>
      </trkpt>
      <trkpt lat="41.357087" lon="-7.088261">
        <ele>411.424</ele>
        <time>2019-06-22T14:41:34Z</time>
      </trkpt>
      <trkpt lat="41.356861" lon="-7.088018">
        <ele>410.108</ele>
        <time>2019-06-22T14:41:35Z</time>
      </trkpt>
      <trkpt lat="41.356620" lon="-7.087815">
        <ele>408.182</ele>
        <time>2019-06-22T14:41:36Z</time>
      </trkpt>
      <trkpt lat="41.356372" lon="-7.087616">
        <ele>406.426</ele>
        <time>2019-06-22T14:41:37Z</time>
      </trkpt>
      <trkpt lat="41.356136" lon="-7.087440">
        <ele>406.278</ele>
        <time>2019-06-22T14:41:38Z</time>
      </trkpt>
      <trkpt lat="41.355898" lon="-7.087263">
        <ele>404.760</ele>
        <time>2019-06-22T14:41:39Z</time>
      </trkpt>
      <trkpt lat="41.355651" lon="-7.087088">
        <ele>400.768</ele>
        <time>2019-06-22T14:41:40Z</time>
      </trkpt>
      <trkpt lat="41.355433" lon="-7.086933">
        <ele>399.467</ele>
        <time>2019-06-22T14:41:41Z</time>
      </trkpt>
      <trkpt lat="41.355186" lon="-7.086777">
        <ele>397.862</ele>
        <time>2019-06-22T14:41:42Z</time>
      </trkpt>
      <trkpt lat="41.354954" lon="-7.086625">
        <ele>394.925</ele>
        <time>2019-06-22T14:41:43Z</time>
      </trkpt>
      <trkpt lat="41.354696" lon="-7.086471">
        <ele>390.949</ele>
        <time>2019-06-22T14:41:44Z</time>
      </trkpt>
      <trkpt lat="41.354456" lon="-7.086320">
        <ele>388.902</ele>
        <time>2019-06-22T14:41:45Z</time>
      </trkpt>
      <trkpt lat="41.354205" lon="-7.086173">
        <ele>387.722</ele>
        <time>2019-06-22T14:41:46Z</time>
      </trkpt>
      <trkpt lat="41.353982" lon="-7.086030">
        <ele>387.708</ele>
        <time>2019-06-22T14:41:47Z</time>
      </trkpt>
      <trkpt lat="41.353742" lon="-7.085900">
        <ele>387.727</ele>
        <time>2019-06-22T14:41:48Z</time>
      </trkpt>
      <trkpt lat="41.353527" lon="-7.085753">
        <ele>389.041</ele>
        <time>2019-06-22T14:41:49Z</time>
      </trkpt>
      <trkpt lat="41.353314" lon="-7.085617">
        <ele>391.653</ele>
        <time>2019-06-22T14:41:50Z</time>
      </trkpt>
      <trkpt lat="41.353081" lon="-7.085442">
        <ele>392.485</ele>
        <time>2019-06-22T14:41:51Z</time>
      </trkpt>
      <trkpt lat="41.352867" lon="-7.085252">
        <ele>392.483</ele>
        <time>2019-06-22T14:41:52Z</time>
      </trkpt>
      <trkpt lat="41.352645" lon="-7.085058">
        <ele>387.962</ele>
        <time>2019-06-22T14:41:53Z</time>
      </trkpt>
      <trkpt lat="41.352420" lon="-7.084851">
        <ele>384.027</ele>
        <time>2019-06-22T14:41:54Z</time>
      </trkpt>
      <trkpt lat="41.352199" lon="-7.084625">
        <ele>380.520</ele>
        <time>2019-06-22T14:41:55Z</time>
      </trkpt>
      <trkpt lat="41.351993" lon="-7.084402">
        <ele>377.273</ele>
        <time>2019-06-22T14:41:56Z</time>
      </trkpt>
      <trkpt lat="41.351790" lon="-7.084157">
        <ele>375.585</ele>
        <time>2019-06-22T14:41:57Z</time>
      </trkpt>
      <trkpt lat="41.351598" lon="-7.083906">
        <ele>375.513</ele>
        <time>2019-06-22T14:41:58Z</time>
      </trkpt>
      <trkpt lat="41.351408" lon="-7.083643">
        <ele>375.808</ele>
        <time>2019-06-22T14:41:59Z</time>
      </trkpt>
      <trkpt lat="41.351209" lon="-7.083373">
        <ele>375.810</ele>
        <time>2019-06-22T14:42:00Z</time>
      </trkpt>
      <trkpt lat="41.351014" lon="-7.083105">
        <ele>374.824</ele>
        <time>2019-06-22T14:42:01Z</time>
      </trkpt>
      <trkpt lat="41.350831" lon="-7.082832">
        <ele>373.816</ele>
        <time>2019-06-22T14:42:02Z</time>
      </trkpt>
      <trkpt lat="41.350626" lon="-7.082571">
        <ele>373.028</ele>
        <time>2019-06-22T14:42:03Z</time>
      </trkpt>
      <trkpt lat="41.350446" lon="-7.082296">
        <ele>372.076</ele>
        <time>2019-06-22T14:42:04Z</time>
      </trkpt>
      <trkpt lat="41.350246" lon="-7.082037">
        <ele>371.855</ele>
        <time>2019-06-22T14:42:05Z</time>
      </trkpt>
      <trkpt lat="41.350059" lon="-7.081771">
        <ele>370.920</ele>
        <time>2019-06-22T14:42:06Z</time>
      </trkpt>
      <trkpt lat="41.349868" lon="-7.081502">
        <ele>370.713</ele>
        <time>2019-06-22T14:42:07Z</time>
      </trkpt>
      <trkpt lat="41.349673" lon="-7.081238">
        <ele>370.534</ele>
        <time>2019-06-22T14:42:08Z</time>
      </trkpt>
      <trkpt lat="41.349480" lon="-7.080972">
        <ele>369.155</ele>
        <time>2019-06-22T14:42:09Z</time>
      </trkpt>
      <trkpt lat="41.349287" lon="-7.080717">
        <ele>365.910</ele>
        <time>2019-06-22T14:42:10Z</time>
      </trkpt>
      <trkpt lat="41.349090" lon="-7.080494">
        <ele>363.608</ele>
        <time>2019-06-22T14:42:11Z</time>
      </trkpt>
      <trkpt lat="41.348880" lon="-7.080253">
        <ele>361.696</ele>
        <time>2019-06-22T14:42:12Z</time>
      </trkpt>
      <trkpt lat="41.348670" lon="-7.080019">
        <ele>357.370</ele>
        <time>2019-06-22T14:42:13Z</time>
      </trkpt>
      <trkpt lat="41.348450" lon="-7.079786">
        <ele>353.712</ele>
        <time>2019-06-22T14:42:14Z</time>
      </trkpt>
      <trkpt lat="41.348221" lon="-7.079576">
        <ele>352.754</ele>
        <time>2019-06-22T14:42:15Z</time>
      </trkpt>
      <trkpt lat="41.347989" lon="-7.079376">
        <ele>350.442</ele>
        <time>2019-06-22T14:42:16Z</time>
      </trkpt>
      <trkpt lat="41.347758" lon="-7.079209">
        <ele>348.431</ele>
        <time>2019-06-22T14:42:17Z</time>
      </trkpt>
      <trkpt lat="41.347515" lon="-7.079035">
        <ele>348.346</ele>
        <time>2019-06-22T14:42:18Z</time>
      </trkpt>
      <trkpt lat="41.347293" lon="-7.078914">
        <ele>348.029</ele>
        <time>2019-06-22T14:42:19Z</time>
      </trkpt>
      <trkpt lat="41.347037" lon="-7.078780">
        <ele>346.215</ele>
        <time>2019-06-22T14:42:20Z</time>
      </trkpt>
      <trkpt lat="41.346782" lon="-7.078650">
        <ele>345.065</ele>
        <time>2019-06-22T14:42:21Z</time>
      </trkpt>
      <trkpt lat="41.346533" lon="-7.078550">
        <ele>343.411</ele>
        <time>2019-06-22T14:42:22Z</time>
      </trkpt>
      <trkpt lat="41.346280" lon="-7.078441">
        <ele>342.508</ele>
        <time>2019-06-22T14:42:23Z</time>
      </trkpt>
      <trkpt lat="41.346010" lon="-7.078365">
        <ele>341.294</ele>
        <time>2019-06-22T14:42:24Z</time>
      </trkpt>
      <trkpt lat="41.345748" lon="-7.078299">
        <ele>340.538</ele>
        <time>2019-06-22T14:42:25Z</time>
      </trkpt>
      <trkpt lat="41.345492" lon="-7.078263">
        <ele>340.110</ele>
        <time>2019-06-22T14:42:26Z</time>
      </trkpt>
      <trkpt lat="41.345227" lon="-7.078233">
        <ele>339.632</ele>
        <time>2019-06-22T14:42:27Z</time>
      </trkpt>
      <trkpt lat="41.344985" lon="-7.078234">
        <ele>338.190</ele>
        <time>2019-06-22T14:42:28Z</time>
      </trkpt>
      <trkpt lat="41.344736" lon="-7.078238">
        <ele>336.759</ele>
        <time>2019-06-22T14:42:29Z</time>
      </trkpt>
      <trkpt lat="41.344481" lon="-7.078254">
        <ele>335.914</ele>
        <time>2019-06-22T14:42:30Z</time>
      </trkpt>
      <trkpt lat="41.344216" lon="-7.078278">
        <ele>334.787</ele>
        <time>2019-06-22T14:42:31Z</time>
      </trkpt>
      <trkpt lat="41.343958" lon="-7.078319">
        <ele>333.734</ele>
        <time>2019-06-22T14:42:32Z</time>
      </trkpt>
      <trkpt lat="41.343694" lon="-7.078371">
        <ele>332.355</ele>
        <time>2019-06-22T14:42:33Z</time>
      </trkpt>
      <trkpt lat="41.343449" lon="-7.078446">
        <ele>331.210</ele>
        <time>2019-06-22T14:42:34Z</time>
      </trkpt>
      <trkpt lat="41.343190" lon="-7.078525">
        <ele>329.908</ele>
        <time>2019-06-22T14:42:35Z</time>
      </trkpt>
      <trkpt lat="41.342931" lon="-7.078617">
        <ele>329.066</ele>
        <time>2019-06-22T14:42:36Z</time>
      </trkpt>
      <trkpt lat="41.342688" lon="-7.078727">
        <ele>327.990</ele>
        <time>2019-06-22T14:42:37Z</time>
      </trkpt>
      <trkpt lat="41.342442" lon="-7.078829">
        <ele>327.062</ele>
        <time>2019-06-22T14:42:38Z</time>
      </trkpt>
      <trkpt lat="41.342190" lon="-7.078935">
        <ele>326.884</ele>
        <time>2019-06-22T14:42:39Z</time>
      </trkpt>
      <trkpt lat="41.341933" lon="-7.079039">
        <ele>326.442</ele>
        <time>2019-06-22T14:42:40Z</time>
      </trkpt>
      <trkpt lat="41.341684" lon="-7.079127">
        <ele>325.551</ele>
        <time>2019-06-22T14:42:41Z</time>
      </trkpt>
      <trkpt lat="41.341434" lon="-7.079205">
        <ele>324.936</ele>
        <time>2019-06-22T14:42:42Z</time>
      </trkpt>
      <trkpt lat="41.341169" lon="-7.079281">
        <ele>324.649</ele>
        <time>2019-06-22T14:42:43Z</time>
      </trkpt>
      <trkpt lat="41.340906" lon="-7.079344">
        <ele>324.471</ele>
        <time>2019-06-22T14:42:44Z</time>
      </trkpt>
      <trkpt lat="41.340640" lon="-7.079401">
        <ele>324.041</ele>
        <time>2019-06-22T14:42:45Z</time>
      </trkpt>
      <trkpt lat="41.340384" lon="-7.079444">
        <ele>324.015</ele>
        <time>2019-06-22T14:42:46Z</time>
      </trkpt>
      <trkpt lat="41.340122" lon="-7.079479">
        <ele>323.808</ele>
        <time>2019-06-22T14:42:47Z</time>
      </trkpt>
      <trkpt lat="41.339879" lon="-7.079506">
        <ele>323.630</ele>
        <time>2019-06-22T14:42:48Z</time>
      </trkpt>
      <trkpt lat="41.339624" lon="-7.079494">
        <ele>322.644</ele>
        <time>2019-06-22T14:42:49Z</time>
      </trkpt>
      <trkpt lat="41.339367" lon="-7.079472">
        <ele>321.946</ele>
        <time>2019-06-22T14:42:50Z</time>
      </trkpt>
      <trkpt lat="41.339102" lon="-7.079446">
        <ele>321.918</ele>
        <time>2019-06-22T14:42:51Z</time>
      </trkpt>
      <trkpt lat="41.338844" lon="-7.079397">
        <ele>321.766</ele>
        <time>2019-06-22T14:42:52Z</time>
      </trkpt>
      <trkpt lat="41.338581" lon="-7.079329">
        <ele>320.785</ele>
        <time>2019-06-22T14:42:53Z</time>
      </trkpt>
      <trkpt lat="41.338324" lon="-7.079248">
        <ele>319.950</ele>
        <time>2019-06-22T14:42:54Z</time>
      </trkpt>
      <trkpt lat="41.338060" lon="-7.079158">
        <ele>319.343</ele>
        <time>2019-06-22T14:42:55Z</time>
      </trkpt>
      <trkpt lat="41.337799" lon="-7.079052">
        <ele>318.491</ele>
        <time>2019-06-22T14:42:56Z</time>
      </trkpt>
      <trkpt lat="41.337544" lon="-7.078936">
        <ele>317.481</ele>
        <time>2019-06-22T14:42:57Z</time>
      </trkpt>
      <trkpt lat="41.337300" lon="-7.078811">
        <ele>316.119</ele>
        <time>2019-06-22T14:42:58Z</time>
      </trkpt>
      <trkpt lat="41.337050" lon="-7.078693">
        <ele>315.308</ele>
        <time>2019-06-22T14:42:59Z</time>
      </trkpt>
      <trkpt lat="41.336805" lon="-7.078580">
        <ele>314.622</ele>
        <time>2019-06-22T14:43:00Z</time>
      </trkpt>
      <trkpt lat="41.336555" lon="-7.078471">
        <ele>313.946</ele>
        <time>2019-06-22T14:43:01Z</time>
      </trkpt>
      <trkpt lat="41.336304" lon="-7.078379">
        <ele>313.528</ele>
        <time>2019-06-22T14:43:02Z</time>
      </trkpt>
      <trkpt lat="41.336043" lon="-7.078292">
        <ele>312.640</ele>
        <time>2019-06-22T14:43:03Z</time>
      </trkpt>
      <trkpt lat="41.335781" lon="-7.078232">
        <ele>311.068</ele>
        <time>2019-06-22T14:43:04Z</time>
      </trkpt>
      <trkpt lat="41.335521" lon="-7.078173">
        <ele>309.357</ele>
        <time>2019-06-22T14:43:05Z</time>
      </trkpt>
      <trkpt lat="41.335251" lon="-7.078123">
        <ele>306.932</ele>
        <time>2019-06-22T14:43:06Z</time>
      </trkpt>
      <trkpt lat="41.334990" lon="-7.078103">
        <ele>304.565</ele>
        <time>2019-06-22T14:43:07Z</time>
      </trkpt>
      <trkpt lat="41.334700" lon="-7.078113">
        <ele>302.682</ele>
        <time>2019-06-22T14:43:08Z</time>
      </trkpt>
      <trkpt lat="41.334416" lon="-7.078152">
        <ele>301.443</ele>
        <time>2019-06-22T14:43:09Z</time>
      </trkpt>
      <trkpt lat="41.334183" lon="-7.078215">
        <ele>299.817</ele>
        <time>2019-06-22T14:43:10Z</time>
      </trkpt>
      <trkpt lat="41.333924" lon="-7.078268">
        <ele>297.408</ele>
        <time>2019-06-22T14:43:11Z</time>
      </trkpt>
      <trkpt lat="41.333666" lon="-7.078345">
        <ele>295.121</ele>
        <time>2019-06-22T14:43:12Z</time>
      </trkpt>
      <trkpt lat="41.333405" lon="-7.078409">
        <ele>292.975</ele>
        <time>2019-06-22T14:43:13Z</time>
      </trkpt>
      <trkpt lat="41.333149" lon="-7.078482">
        <ele>290.567</ele>
        <time>2019-06-22T14:43:14Z</time>
      </trkpt>
      <trkpt lat="41.332889" lon="-7.078558">
        <ele>288.769</ele>
        <time>2019-06-22T14:43:15Z</time>
      </trkpt>
      <trkpt lat="41.332632" lon="-7.078624">
        <ele>288.547</ele>
        <time>2019-06-22T14:43:16Z</time>
      </trkpt>
      <trkpt lat="41.332366" lon="-7.078693">
        <ele>288.496</ele>
        <time>2019-06-22T14:43:17Z</time>
      </trkpt>
      <trkpt lat="41.332098" lon="-7.078763">
        <ele>288.481</ele>
        <time>2019-06-22T14:43:18Z</time>
      </trkpt>
      <trkpt lat="41.331834" lon="-7.078833">
        <ele>287.464</ele>
        <time>2019-06-22T14:43:19Z</time>
      </trkpt>
      <trkpt lat="41.331564" lon="-7.078893">
        <ele>286.548</ele>
        <time>2019-06-22T14:43:20Z</time>
      </trkpt>
      <trkpt lat="41.331297" lon="-7.078950">
        <ele>283.161</ele>
        <time>2019-06-22T14:43:21Z</time>
      </trkpt>
      <trkpt lat="41.331020" lon="-7.078990">
        <ele>283.117</ele>
        <time>2019-06-22T14:43:22Z</time>
      </trkpt>
      <trkpt lat="41.330753" lon="-7.079030">
        <ele>281.508</ele>
        <time>2019-06-22T14:43:23Z</time>
      </trkpt>
      <trkpt lat="41.330496" lon="-7.079039">
        <ele>280.447</ele>
        <time>2019-06-22T14:43:24Z</time>
      </trkpt>
      <trkpt lat="41.330230" lon="-7.079020">
        <ele>279.621</ele>
        <time>2019-06-22T14:43:25Z</time>
      </trkpt>
      <trkpt lat="41.329949" lon="-7.078988">
        <ele>278.483</ele>
        <time>2019-06-22T14:43:26Z</time>
      </trkpt>
      <trkpt lat="41.329685" lon="-7.078941">
        <ele>277.335</ele>
        <time>2019-06-22T14:43:27Z</time>
      </trkpt>
      <trkpt lat="41.329417" lon="-7.078874">
        <ele>275.983</ele>
        <time>2019-06-22T14:43:28Z</time>
      </trkpt>
      <trkpt lat="41.329143" lon="-7.078816">
        <ele>274.192</ele>
        <time>2019-06-22T14:43:29Z</time>
      </trkpt>
      <trkpt lat="41.328875" lon="-7.078780">
        <ele>272.887</ele>
        <time>2019-06-22T14:43:30Z</time>
      </trkpt>
      <trkpt lat="41.328585" lon="-7.078745">
        <ele>271.860</ele>
        <time>2019-06-22T14:43:31Z</time>
      </trkpt>
      <trkpt lat="41.328311" lon="-7.078719">
        <ele>270.493</ele>
        <time>2019-06-22T14:43:32Z</time>
      </trkpt>
      <trkpt lat="41.328030" lon="-7.078697">
        <ele>268.665</ele>
        <time>2019-06-22T14:43:33Z</time>
      </trkpt>
      <trkpt lat="41.327760" lon="-7.078714">
        <ele>267.721</ele>
        <time>2019-06-22T14:43:34Z</time>
      </trkpt>
      <trkpt lat="41.327490" lon="-7.078742">
        <ele>265.208</ele>
        <time>2019-06-22T14:43:35Z</time>
      </trkpt>
      <trkpt lat="41.327229" lon="-7.078794">
        <ele>263.412</ele>
        <time>2019-06-22T14:43:36Z</time>
      </trkpt>
      <trkpt lat="41.326970" lon="-7.078865">
        <ele>261.776</ele>
        <time>2019-06-22T14:43:37Z</time>
      </trkpt>
      <trkpt lat="41.326717" lon="-7.078942">
        <ele>260.498</ele>
        <time>2019-06-22T14:43:38Z</time>
      </trkpt>
      <trkpt lat="41.326458" lon="-7.079033">
        <ele>259.120</ele>
        <time>2019-06-22T14:43:39Z</time>
      </trkpt>
      <trkpt lat="41.326216" lon="-7.079121">
        <ele>257.348</ele>
        <time>2019-06-22T14:43:40Z</time>
      </trkpt>
      <trkpt lat="41.325955" lon="-7.079201">
        <ele>256.627</ele>
        <time>2019-06-22T14:43:41Z</time>
      </trkpt>
      <trkpt lat="41.325690" lon="-7.079272">
        <ele>256.342</ele>
        <time>2019-06-22T14:43:42Z</time>
      </trkpt>
      <trkpt lat="41.325411" lon="-7.079335">
        <ele>255.445</ele>
        <time>2019-06-22T14:43:43Z</time>
      </trkpt>
      <trkpt lat="41.325145" lon="-7.079390">
        <ele>253.761</ele>
        <time>2019-06-22T14:43:44Z</time>
      </trkpt>
      <trkpt lat="41.324877" lon="-7.079423">
        <ele>253.621</ele>
        <time>2019-06-22T14:43:45Z</time>
      </trkpt>
      <trkpt lat="41.324604" lon="-7.079436">
        <ele>251.713</ele>
        <time>2019-06-22T14:43:46Z</time>
      </trkpt>
      <trkpt lat="41.324328" lon="-7.079431">
        <ele>249.308</ele>
        <time>2019-06-22T14:43:47Z</time>
      </trkpt>
      <trkpt lat="41.324053" lon="-7.079429">
        <ele>246.899</ele>
        <time>2019-06-22T14:43:48Z</time>
      </trkpt>
      <trkpt lat="41.323777" lon="-7.079400">
        <ele>244.363</ele>
        <time>2019-06-22T14:43:49Z</time>
      </trkpt>
      <trkpt lat="41.323496" lon="-7.079365">
        <ele>242.265</ele>
        <time>2019-06-22T14:43:50Z</time>
      </trkpt>
      <trkpt lat="41.323221" lon="-7.079328">
        <ele>240.787</ele>
        <time>2019-06-22T14:43:51Z</time>
      </trkpt>
      <trkpt lat="41.322951" lon="-7.079261">
        <ele>239.665</ele>
        <time>2019-06-22T14:43:52Z</time>
      </trkpt>
      <trkpt lat="41.322674" lon="-7.079180">
        <ele>238.014</ele>
        <time>2019-06-22T14:43:53Z</time>
      </trkpt>
      <trkpt lat="41.322411" lon="-7.079075">
        <ele>237.349</ele>
        <time>2019-06-22T14:43:54Z</time>
      </trkpt>
      <trkpt lat="41.322149" lon="-7.078956">
        <ele>236.562</ele>
        <time>2019-06-22T14:43:55Z</time>
      </trkpt>
      <trkpt lat="41.321879" lon="-7.078827">
        <ele>234.016</ele>
        <time>2019-06-22T14:43:56Z</time>
      </trkpt>
      <trkpt lat="41.321623" lon="-7.078703">
        <ele>234.076</ele>
        <time>2019-06-22T14:43:57Z</time>
      </trkpt>
      <trkpt lat="41.321360" lon="-7.078589">
        <ele>231.013</ele>
        <time>2019-06-22T14:43:58Z</time>
      </trkpt>
      <trkpt lat="41.321095" lon="-7.078485">
        <ele>228.708</ele>
        <time>2019-06-22T14:43:59Z</time>
      </trkpt>
      <trkpt lat="41.320837" lon="-7.078391">
        <ele>225.494</ele>
        <time>2019-06-22T14:44:00Z</time>
      </trkpt>
      <trkpt lat="41.320569" lon="-7.078307">
        <ele>222.448</ele>
        <time>2019-06-22T14:44:01Z</time>
      </trkpt>
      <trkpt lat="41.320298" lon="-7.078225">
        <ele>221.180</ele>
        <time>2019-06-22T14:44:02Z</time>
      </trkpt>
      <trkpt lat="41.320025" lon="-7.078161">
        <ele>219.732</ele>
        <time>2019-06-22T14:44:03Z</time>
      </trkpt>
      <trkpt lat="41.319749" lon="-7.078109">
        <ele>218.390</ele>
        <time>2019-06-22T14:44:04Z</time>
      </trkpt>
      <trkpt lat="41.319499" lon="-7.078090">
        <ele>217.659</ele>
        <time>2019-06-22T14:44:05Z</time>
      </trkpt>
      <trkpt lat="41.319230" lon="-7.078086">
        <ele>217.054</ele>
        <time>2019-06-22T14:44:06Z</time>
      </trkpt>
      <trkpt lat="41.318941" lon="-7.078080">
        <ele>216.067</ele>
        <time>2019-06-22T14:44:07Z</time>
      </trkpt>
      <trkpt lat="41.318679" lon="-7.078100">
        <ele>214.632</ele>
        <time>2019-06-22T14:44:08Z</time>
      </trkpt>
      <trkpt lat="41.318413" lon="-7.078131">
        <ele>213.492</ele>
        <time>2019-06-22T14:44:09Z</time>
      </trkpt>
      <trkpt lat="41.318150" lon="-7.078178">
        <ele>212.211</ele>
        <time>2019-06-22T14:44:10Z</time>
      </trkpt>
      <trkpt lat="41.317890" lon="-7.078244">
        <ele>211.108</ele>
        <time>2019-06-22T14:44:11Z</time>
      </trkpt>
      <trkpt lat="41.317633" lon="-7.078319">
        <ele>209.946</ele>
        <time>2019-06-22T14:44:12Z</time>
      </trkpt>
      <trkpt lat="41.317374" lon="-7.078412">
        <ele>209.160</ele>
        <time>2019-06-22T14:44:13Z</time>
      </trkpt>
      <trkpt lat="41.317141" lon="-7.078518">
        <ele>209.152</ele>
        <time>2019-06-22T14:44:14Z</time>
      </trkpt>
      <trkpt lat="41.316901" lon="-7.078645">
        <ele>209.034</ele>
        <time>2019-06-22T14:44:15Z</time>
      </trkpt>
      <trkpt lat="41.316657" lon="-7.078774">
        <ele>208.712</ele>
        <time>2019-06-22T14:44:16Z</time>
      </trkpt>
      <trkpt lat="41.316414" lon="-7.078908">
        <ele>208.351</ele>
        <time>2019-06-22T14:44:17Z</time>
      </trkpt>
      <trkpt lat="41.316170" lon="-7.079035">
        <ele>208.076</ele>
        <time>2019-06-22T14:44:18Z</time>
      </trkpt>
      <trkpt lat="41.315922" lon="-7.079178">
        <ele>207.789</ele>
        <time>2019-06-22T14:44:19Z</time>
      </trkpt>
      <trkpt lat="41.315680" lon="-7.079317">
        <ele>206.444</ele>
        <time>2019-06-22T14:44:20Z</time>
      </trkpt>
      <trkpt lat="41.315438" lon="-7.079451">
        <ele>206.405</ele>
        <time>2019-06-22T14:44:21Z</time>
      </trkpt>
      <trkpt lat="41.315199" lon="-7.079589">
        <ele>206.915</ele>
        <time>2019-06-22T14:44:22Z</time>
      </trkpt>
      <trkpt lat="41.314957" lon="-7.079735">
        <ele>206.908</ele>
        <time>2019-06-22T14:44:23Z</time>
      </trkpt>
      <trkpt lat="41.314711" lon="-7.079868">
        <ele>206.487</ele>
        <time>2019-06-22T14:44:24Z</time>
      </trkpt>
      <trkpt lat="41.314469" lon="-7.079997">
        <ele>206.461</ele>
        <time>2019-06-22T14:44:25Z</time>
      </trkpt>
      <trkpt lat="41.314225" lon="-7.080127">
        <ele>206.293</ele>
        <time>2019-06-22T14:44:26Z</time>
      </trkpt>
      <trkpt lat="41.313980" lon="-7.080248">
        <ele>205.485</ele>
        <time>2019-06-22T14:44:27Z</time>
      </trkpt>
      <trkpt lat="41.313732" lon="-7.080367">
        <ele>203.983</ele>
        <time>2019-06-22T14:44:28Z</time>
      </trkpt>
      <trkpt lat="41.313491" lon="-7.080499">
        <ele>202.142</ele>
        <time>2019-06-22T14:44:29Z</time>
      </trkpt>
      <trkpt lat="41.313240" lon="-7.080615">
        <ele>200.457</ele>
        <time>2019-06-22T14:44:30Z</time>
      </trkpt>
      <trkpt lat="41.312994" lon="-7.080712">
        <ele>199.920</ele>
        <time>2019-06-22T14:44:31Z</time>
      </trkpt>
      <trkpt lat="41.312742" lon="-7.080793">
        <ele>199.235</ele>
        <time>2019-06-22T14:44:32Z</time>
      </trkpt>
      <trkpt lat="41.312480" lon="-7.080867">
        <ele>199.286</ele>
        <time>2019-06-22T14:44:33Z</time>
      </trkpt>
      <trkpt lat="41.312227" lon="-7.080915">
        <ele>200.214</ele>
        <time>2019-06-22T14:44:34Z</time>
      </trkpt>
      <trkpt lat="41.311963" lon="-7.080956">
        <ele>201.708</ele>
        <time>2019-06-22T14:44:35Z</time>
      </trkpt>
      <trkpt lat="41.311691" lon="-7.080958">
        <ele>202.266</ele>
        <time>2019-06-22T14:44:36Z</time>
      </trkpt>
      <trkpt lat="41.311412" lon="-7.080953">
        <ele>202.250</ele>
        <time>2019-06-22T14:44:37Z</time>
      </trkpt>
      <trkpt lat="41.311154" lon="-7.080945">
        <ele>202.052</ele>
        <time>2019-06-22T14:44:38Z</time>
      </trkpt>
      <trkpt lat="41.310899" lon="-7.080924">
        <ele>201.184</ele>
        <time>2019-06-22T14:44:39Z</time>
      </trkpt>
      <trkpt lat="41.310634" lon="-7.080879">
        <ele>200.332</ele>
        <time>2019-06-22T14:44:40Z</time>
      </trkpt>
      <trkpt lat="41.310381" lon="-7.080816">
        <ele>198.631</ele>
        <time>2019-06-22T14:44:41Z</time>
      </trkpt>
      <trkpt lat="41.310131" lon="-7.080738">
        <ele>197.416</ele>
        <time>2019-06-22T14:44:42Z</time>
      </trkpt>
      <trkpt lat="41.309883" lon="-7.080643">
        <ele>197.079</ele>
        <time>2019-06-22T14:44:43Z</time>
      </trkpt>
      <trkpt lat="41.309637" lon="-7.080540">
        <ele>196.324</ele>
        <time>2019-06-22T14:44:44Z</time>
      </trkpt>
      <trkpt lat="41.309414" lon="-7.080416">
        <ele>196.904</ele>
        <time>2019-06-22T14:44:45Z</time>
      </trkpt>
      <trkpt lat="41.309176" lon="-7.080285">
        <ele>196.914</ele>
        <time>2019-06-22T14:44:46Z</time>
      </trkpt>
      <trkpt lat="41.308950" lon="-7.080135">
        <ele>197.708</ele>
        <time>2019-06-22T14:44:47Z</time>
      </trkpt>
      <trkpt lat="41.308729" lon="-7.079981">
        <ele>197.775</ele>
        <time>2019-06-22T14:44:48Z</time>
      </trkpt>
      <trkpt lat="41.308511" lon="-7.079811">
        <ele>197.729</ele>
        <time>2019-06-22T14:44:49Z</time>
      </trkpt>
      <trkpt lat="41.308306" lon="-7.079628">
        <ele>198.041</ele>
        <time>2019-06-22T14:44:50Z</time>
      </trkpt>
      <trkpt lat="41.308088" lon="-7.079434">
        <ele>198.573</ele>
        <time>2019-06-22T14:44:51Z</time>
      </trkpt>
      <trkpt lat="41.307882" lon="-7.079230">
        <ele>199.921</ele>
        <time>2019-06-22T14:44:52Z</time>
      </trkpt>
      <trkpt lat="41.307687" lon="-7.079004">
        <ele>201.480</ele>
        <time>2019-06-22T14:44:53Z</time>
      </trkpt>
      <trkpt lat="41.307496" lon="-7.078771">
        <ele>203.065</ele>
        <time>2019-06-22T14:44:54Z</time>
      </trkpt>
      <trkpt lat="41.307307" lon="-7.078526">
        <ele>204.198</ele>
        <time>2019-06-22T14:44:55Z</time>
      </trkpt>
      <trkpt lat="41.307125" lon="-7.078304">
        <ele>204.142</ele>
        <time>2019-06-22T14:44:56Z</time>
      </trkpt>
      <trkpt lat="41.306935" lon="-7.078043">
        <ele>203.722</ele>
        <time>2019-06-22T14:44:57Z</time>
      </trkpt>
      <trkpt lat="41.306745" lon="-7.077790">
        <ele>203.314</ele>
        <time>2019-06-22T14:44:58Z</time>
      </trkpt>
      <trkpt lat="41.306562" lon="-7.077560">
        <ele>202.508</ele>
        <time>2019-06-22T14:44:59Z</time>
      </trkpt>
      <trkpt lat="41.306392" lon="-7.077334">
        <ele>202.347</ele>
        <time>2019-06-22T14:45:00Z</time>
      </trkpt>
      <trkpt lat="41.306214" lon="-7.077106">
        <ele>202.371</ele>
        <time>2019-06-22T14:45:01Z</time>
      </trkpt>
      <trkpt lat="41.306039" lon="-7.076879">
        <ele>202.343</ele>
        <time>2019-06-22T14:45:02Z</time>
      </trkpt>
      <trkpt lat="41.305865" lon="-7.076654">
        <ele>202.365</ele>
        <time>2019-06-22T14:45:03Z</time>
      </trkpt>
      <trkpt lat="41.305680" lon="-7.076407">
        <ele>201.763</ele>
        <time>2019-06-22T14:45:04Z</time>
      </trkpt>
      <trkpt lat="41.305497" lon="-7.076177">
        <ele>201.362</ele>
        <time>2019-06-22T14:45:05Z</time>
      </trkpt>
      <trkpt lat="41.305299" lon="-7.075941">
        <ele>199.987</ele>
        <time>2019-06-22T14:45:06Z</time>
      </trkpt>
      <trkpt lat="41.305101" lon="-7.075714">
        <ele>198.380</ele>
        <time>2019-06-22T14:45:07Z</time>
      </trkpt>
      <trkpt lat="41.304895" lon="-7.075484">
        <ele>196.283</ele>
        <time>2019-06-22T14:45:08Z</time>
      </trkpt>
      <trkpt lat="41.304686" lon="-7.075265">
        <ele>194.925</ele>
        <time>2019-06-22T14:45:09Z</time>
      </trkpt>
      <trkpt lat="41.304470" lon="-7.075053">
        <ele>193.117</ele>
        <time>2019-06-22T14:45:10Z</time>
      </trkpt>
      <trkpt lat="41.304253" lon="-7.074859">
        <ele>192.008</ele>
        <time>2019-06-22T14:45:11Z</time>
      </trkpt>
      <trkpt lat="41.304033" lon="-7.074680">
        <ele>191.321</ele>
        <time>2019-06-22T14:45:12Z</time>
      </trkpt>
      <trkpt lat="41.303818" lon="-7.074516">
        <ele>190.455</ele>
        <time>2019-06-22T14:45:13Z</time>
      </trkpt>
      <trkpt lat="41.303576" lon="-7.074354">
        <ele>188.847</ele>
        <time>2019-06-22T14:45:14Z</time>
      </trkpt>
      <trkpt lat="41.303348" lon="-7.074191">
        <ele>188.679</ele>
        <time>2019-06-22T14:45:15Z</time>
      </trkpt>
      <trkpt lat="41.303115" lon="-7.074047">
        <ele>188.167</ele>
        <time>2019-06-22T14:45:16Z</time>
      </trkpt>
      <trkpt lat="41.302865" lon="-7.073918">
        <ele>186.426</ele>
        <time>2019-06-22T14:45:17Z</time>
      </trkpt>
      <trkpt lat="41.302624" lon="-7.073803">
        <ele>186.351</ele>
        <time>2019-06-22T14:45:18Z</time>
      </trkpt>
      <trkpt lat="41.302398" lon="-7.073702">
        <ele>186.124</ele>
        <time>2019-06-22T14:45:19Z</time>
      </trkpt>
      <trkpt lat="41.302157" lon="-7.073611">
        <ele>185.933</ele>
        <time>2019-06-22T14:45:20Z</time>
      </trkpt>
      <trkpt lat="41.301902" lon="-7.073526">
        <ele>185.723</ele>
        <time>2019-06-22T14:45:21Z</time>
      </trkpt>
      <trkpt lat="41.301650" lon="-7.073448">
        <ele>185.715</ele>
        <time>2019-06-22T14:45:22Z</time>
      </trkpt>
      <trkpt lat="41.301378" lon="-7.073383">
        <ele>186.808</ele>
        <time>2019-06-22T14:45:23Z</time>
      </trkpt>
      <trkpt lat="41.301135" lon="-7.073339">
        <ele>186.826</ele>
        <time>2019-06-22T14:45:24Z</time>
      </trkpt>
      <trkpt lat="41.300883" lon="-7.073322">
        <ele>186.650</ele>
        <time>2019-06-22T14:45:25Z</time>
      </trkpt>
      <trkpt lat="41.300631" lon="-7.073297">
        <ele>186.692</ele>
        <time>2019-06-22T14:45:26Z</time>
      </trkpt>
      <trkpt lat="41.300389" lon="-7.073310">
        <ele>186.614</ele>
        <time>2019-06-22T14:45:27Z</time>
      </trkpt>
      <trkpt lat="41.300150" lon="-7.073318">
        <ele>185.812</ele>
        <time>2019-06-22T14:45:28Z</time>
      </trkpt>
      <trkpt lat="41.299900" lon="-7.073322">
        <ele>185.291</ele>
        <time>2019-06-22T14:45:29Z</time>
      </trkpt>
      <trkpt lat="41.299646" lon="-7.073350">
        <ele>185.036</ele>
        <time>2019-06-22T14:45:30Z</time>
      </trkpt>
      <trkpt lat="41.299397" lon="-7.073384">
        <ele>185.119</ele>
        <time>2019-06-22T14:45:31Z</time>
      </trkpt>
      <trkpt lat="41.299148" lon="-7.073437">
        <ele>185.198</ele>
        <time>2019-06-22T14:45:32Z</time>
      </trkpt>
      <trkpt lat="41.298901" lon="-7.073493">
        <ele>185.315</ele>
        <time>2019-06-22T14:45:33Z</time>
      </trkpt>
      <trkpt lat="41.298667" lon="-7.073556">
        <ele>185.726</ele>
        <time>2019-06-22T14:45:34Z</time>
      </trkpt>
      <trkpt lat="41.298433" lon="-7.073635">
        <ele>186.308</ele>
        <time>2019-06-22T14:45:35Z</time>
      </trkpt>
      <trkpt lat="41.298209" lon="-7.073717">
        <ele>187.682</ele>
        <time>2019-06-22T14:45:36Z</time>
      </trkpt>
      <trkpt lat="41.297986" lon="-7.073817">
        <ele>187.966</ele>
        <time>2019-06-22T14:45:37Z</time>
      </trkpt>
      <trkpt lat="41.297764" lon="-7.073926">
        <ele>188.068</ele>
        <time>2019-06-22T14:45:38Z</time>
      </trkpt>
      <trkpt lat="41.297542" lon="-7.074049">
        <ele>189.380</ele>
        <time>2019-06-22T14:45:39Z</time>
      </trkpt>
      <trkpt lat="41.297319" lon="-7.074189">
        <ele>190.448</ele>
        <time>2019-06-22T14:45:40Z</time>
      </trkpt>
      <trkpt lat="41.297097" lon="-7.074321">
        <ele>191.037</ele>
        <time>2019-06-22T14:45:41Z</time>
      </trkpt>
      <trkpt lat="41.296873" lon="-7.074452">
        <ele>191.822</ele>
        <time>2019-06-22T14:45:42Z</time>
      </trkpt>
      <trkpt lat="41.296642" lon="-7.074603">
        <ele>193.575</ele>
        <time>2019-06-22T14:45:43Z</time>
      </trkpt>
      <trkpt lat="41.296423" lon="-7.074746">
        <ele>193.774</ele>
        <time>2019-06-22T14:45:44Z</time>
      </trkpt>
      <trkpt lat="41.296206" lon="-7.074884">
        <ele>193.756</ele>
        <time>2019-06-22T14:45:45Z</time>
      </trkpt>
      <trkpt lat="41.295985" lon="-7.075036">
        <ele>193.721</ele>
        <time>2019-06-22T14:45:46Z</time>
      </trkpt>
      <trkpt lat="41.295758" lon="-7.075175">
        <ele>194.708</ele>
        <time>2019-06-22T14:45:47Z</time>
      </trkpt>
      <trkpt lat="41.295534" lon="-7.075316">
        <ele>194.710</ele>
        <time>2019-06-22T14:45:48Z</time>
      </trkpt>
      <trkpt lat="41.295302" lon="-7.075462">
        <ele>193.764</ele>
        <time>2019-06-22T14:45:49Z</time>
      </trkpt>
      <trkpt lat="41.295077" lon="-7.075605">
        <ele>193.136</ele>
        <time>2019-06-22T14:45:50Z</time>
      </trkpt>
      <trkpt lat="41.294848" lon="-7.075747">
        <ele>192.648</ele>
        <time>2019-06-22T14:45:51Z</time>
      </trkpt>
      <trkpt lat="41.294621" lon="-7.075899">
        <ele>191.596</ele>
        <time>2019-06-22T14:45:52Z</time>
      </trkpt>
      <trkpt lat="41.294389" lon="-7.076042">
        <ele>191.545</ele>
        <time>2019-06-22T14:45:53Z</time>
      </trkpt>
      <trkpt lat="41.294161" lon="-7.076190">
        <ele>191.670</ele>
        <time>2019-06-22T14:45:54Z</time>
      </trkpt>
      <trkpt lat="41.293929" lon="-7.076338">
        <ele>192.333</ele>
        <time>2019-06-22T14:45:55Z</time>
      </trkpt>
      <trkpt lat="41.293694" lon="-7.076483">
        <ele>192.946</ele>
        <time>2019-06-22T14:45:56Z</time>
      </trkpt>
      <trkpt lat="41.293458" lon="-7.076627">
        <ele>192.988</ele>
        <time>2019-06-22T14:45:57Z</time>
      </trkpt>
      <trkpt lat="41.293222" lon="-7.076769">
        <ele>191.916</ele>
        <time>2019-06-22T14:45:58Z</time>
      </trkpt>
      <trkpt lat="41.292978" lon="-7.076911">
        <ele>191.408</ele>
        <time>2019-06-22T14:45:59Z</time>
      </trkpt>
      <trkpt lat="41.292732" lon="-7.077044">
        <ele>190.377</ele>
        <time>2019-06-22T14:46:00Z</time>
      </trkpt>
      <trkpt lat="41.292492" lon="-7.077166">
        <ele>189.391</ele>
        <time>2019-06-22T14:46:01Z</time>
      </trkpt>
      <trkpt lat="41.292248" lon="-7.077292">
        <ele>188.343</ele>
        <time>2019-06-22T14:46:02Z</time>
      </trkpt>
      <trkpt lat="41.292015" lon="-7.077416">
        <ele>187.825</ele>
        <time>2019-06-22T14:46:03Z</time>
      </trkpt>
      <trkpt lat="41.291773" lon="-7.077544">
        <ele>187.543</ele>
        <time>2019-06-22T14:46:04Z</time>
      </trkpt>
      <trkpt lat="41.291537" lon="-7.077660">
        <ele>186.712</ele>
        <time>2019-06-22T14:46:05Z</time>
      </trkpt>
      <trkpt lat="41.291291" lon="-7.077776">
        <ele>186.787</ele>
        <time>2019-06-22T14:46:06Z</time>
      </trkpt>
      <trkpt lat="41.291049" lon="-7.077890">
        <ele>186.780</ele>
        <time>2019-06-22T14:46:07Z</time>
      </trkpt>
      <trkpt lat="41.290796" lon="-7.077983">
        <ele>186.646</ele>
        <time>2019-06-22T14:46:08Z</time>
      </trkpt>
      <trkpt lat="41.290550" lon="-7.078083">
        <ele>185.788</ele>
        <time>2019-06-22T14:46:09Z</time>
      </trkpt>
      <trkpt lat="41.290311" lon="-7.078175">
        <ele>185.316</ele>
        <time>2019-06-22T14:46:10Z</time>
      </trkpt>
      <trkpt lat="41.290062" lon="-7.078259">
        <ele>184.708</ele>
        <time>2019-06-22T14:46:11Z</time>
      </trkpt>
      <trkpt lat="41.289806" lon="-7.078344">
        <ele>184.577</ele>
        <time>2019-06-22T14:46:12Z</time>
      </trkpt>
      <trkpt lat="41.289550" lon="-7.078418">
        <ele>184.581</ele>
        <time>2019-06-22T14:46:13Z</time>
      </trkpt>
      <trkpt lat="41.289303" lon="-7.078494">
        <ele>184.673</ele>
        <time>2019-06-22T14:46:14Z</time>
      </trkpt>
      <trkpt lat="41.289054" lon="-7.078579">
        <ele>184.615</ele>
        <time>2019-06-22T14:46:15Z</time>
      </trkpt>
      <trkpt lat="41.288802" lon="-7.078653">
        <ele>183.523</ele>
        <time>2019-06-22T14:46:16Z</time>
      </trkpt>
      <trkpt lat="41.288550" lon="-7.078727">
        <ele>182.482</ele>
        <time>2019-06-22T14:46:17Z</time>
      </trkpt>
      <trkpt lat="41.288300" lon="-7.078795">
        <ele>180.087</ele>
        <time>2019-06-22T14:46:18Z</time>
      </trkpt>
      <trkpt lat="41.288051" lon="-7.078870">
        <ele>179.230</ele>
        <time>2019-06-22T14:46:19Z</time>
      </trkpt>
      <trkpt lat="41.287795" lon="-7.078932">
        <ele>178.162</ele>
        <time>2019-06-22T14:46:20Z</time>
      </trkpt>
      <trkpt lat="41.287540" lon="-7.078994">
        <ele>178.183</ele>
        <time>2019-06-22T14:46:21Z</time>
      </trkpt>
      <trkpt lat="41.287289" lon="-7.079067">
        <ele>177.011</ele>
        <time>2019-06-22T14:46:22Z</time>
      </trkpt>
      <trkpt lat="41.287037" lon="-7.079134">
        <ele>177.008</ele>
        <time>2019-06-22T14:46:23Z</time>
      </trkpt>
      <trkpt lat="41.286784" lon="-7.079201">
        <ele>177.029</ele>
        <time>2019-06-22T14:46:24Z</time>
      </trkpt>
      <trkpt lat="41.286534" lon="-7.079265">
        <ele>176.533</ele>
        <time>2019-06-22T14:46:25Z</time>
      </trkpt>
      <trkpt lat="41.286289" lon="-7.079335">
        <ele>175.585</ele>
        <time>2019-06-22T14:46:26Z</time>
      </trkpt>
      <trkpt lat="41.286042" lon="-7.079403">
        <ele>175.547</ele>
        <time>2019-06-22T14:46:27Z</time>
      </trkpt>
      <trkpt lat="41.285792" lon="-7.079468">
        <ele>175.465</ele>
        <time>2019-06-22T14:46:28Z</time>
      </trkpt>
      <trkpt lat="41.285550" lon="-7.079540">
        <ele>175.224</ele>
        <time>2019-06-22T14:46:29Z</time>
      </trkpt>
      <trkpt lat="41.285306" lon="-7.079602">
        <ele>174.129</ele>
        <time>2019-06-22T14:46:30Z</time>
      </trkpt>
      <trkpt lat="41.285059" lon="-7.079667">
        <ele>173.572</ele>
        <time>2019-06-22T14:46:31Z</time>
      </trkpt>
      <trkpt lat="41.284819" lon="-7.079737">
        <ele>173.074</ele>
        <time>2019-06-22T14:46:32Z</time>
      </trkpt>
      <trkpt lat="41.284575" lon="-7.079807">
        <ele>171.956</ele>
        <time>2019-06-22T14:46:33Z</time>
      </trkpt>
      <trkpt lat="41.284329" lon="-7.079875">
        <ele>171.521</ele>
        <time>2019-06-22T14:46:34Z</time>
      </trkpt>
      <trkpt lat="41.284094" lon="-7.079924">
        <ele>171.308</ele>
        <time>2019-06-22T14:46:35Z</time>
      </trkpt>
      <trkpt lat="41.283853" lon="-7.079971">
        <ele>171.350</ele>
        <time>2019-06-22T14:46:36Z</time>
      </trkpt>
      <trkpt lat="41.283612" lon="-7.080006">
        <ele>172.084</ele>
        <time>2019-06-22T14:46:37Z</time>
      </trkpt>
      <trkpt lat="41.283376" lon="-7.080021">
        <ele>173.446</ele>
        <time>2019-06-22T14:46:38Z</time>
      </trkpt>
      <trkpt lat="41.283128" lon="-7.080022">
        <ele>174.468</ele>
        <time>2019-06-22T14:46:39Z</time>
      </trkpt>
      <trkpt lat="41.282884" lon="-7.080016">
        <ele>175.466</ele>
        <time>2019-06-22T14:46:40Z</time>
      </trkpt>
      <trkpt lat="41.282637" lon="-7.080007">
        <ele>176.365</ele>
        <time>2019-06-22T14:46:41Z</time>
      </trkpt>
      <trkpt lat="41.282399" lon="-7.079996">
        <ele>177.080</ele>
        <time>2019-06-22T14:46:42Z</time>
      </trkpt>
      <trkpt lat="41.282158" lon="-7.079967">
        <ele>177.393</ele>
        <time>2019-06-22T14:46:43Z</time>
      </trkpt>
      <trkpt lat="41.281915" lon="-7.079933">
        <ele>177.422</ele>
        <time>2019-06-22T14:46:44Z</time>
      </trkpt>
      <trkpt lat="41.281671" lon="-7.079895">
        <ele>177.662</ele>
        <time>2019-06-22T14:46:45Z</time>
      </trkpt>
      <trkpt lat="41.281421" lon="-7.079854">
        <ele>177.608</ele>
        <time>2019-06-22T14:46:46Z</time>
      </trkpt>
      <trkpt lat="41.281162" lon="-7.079826">
        <ele>177.308</ele>
        <time>2019-06-22T14:46:47Z</time>
      </trkpt>
      <trkpt lat="41.280908" lon="-7.079804">
        <ele>176.695</ele>
        <time>2019-06-22T14:46:48Z</time>
      </trkpt>
      <trkpt lat="41.280650" lon="-7.079795">
        <ele>175.559</ele>
        <time>2019-06-22T14:46:49Z</time>
      </trkpt>
      <trkpt lat="41.280392" lon="-7.079796">
        <ele>174.471</ele>
        <time>2019-06-22T14:46:50Z</time>
      </trkpt>
      <trkpt lat="41.280144" lon="-7.079816">
        <ele>173.953</ele>
        <time>2019-06-22T14:46:51Z</time>
      </trkpt>
      <trkpt lat="41.279892" lon="-7.079842">
        <ele>173.131</ele>
        <time>2019-06-22T14:46:52Z</time>
      </trkpt>
      <trkpt lat="41.279649" lon="-7.079883">
        <ele>173.080</ele>
        <time>2019-06-22T14:46:53Z</time>
      </trkpt>
      <trkpt lat="41.279395" lon="-7.079943">
        <ele>173.185</ele>
        <time>2019-06-22T14:46:54Z</time>
      </trkpt>
      <trkpt lat="41.279148" lon="-7.080014">
        <ele>173.928</ele>
        <time>2019-06-22T14:46:55Z</time>
      </trkpt>
      <trkpt lat="41.278892" lon="-7.080105">
        <ele>174.295</ele>
        <time>2019-06-22T14:46:56Z</time>
      </trkpt>
      <trkpt lat="41.278652" lon="-7.080188">
        <ele>175.449</ele>
        <time>2019-06-22T14:46:57Z</time>
      </trkpt>
      <trkpt lat="41.278409" lon="-7.080290">
        <ele>175.823</ele>
        <time>2019-06-22T14:46:58Z</time>
      </trkpt>
      <trkpt lat="41.278167" lon="-7.080409">
        <ele>176.308</ele>
        <time>2019-06-22T14:46:59Z</time>
      </trkpt>
      <trkpt lat="41.277934" lon="-7.080545">
        <ele>176.352</ele>
        <time>2019-06-22T14:47:00Z</time>
      </trkpt>
      <trkpt lat="41.277713" lon="-7.080681">
        <ele>176.366</ele>
        <time>2019-06-22T14:47:01Z</time>
      </trkpt>
      <trkpt lat="41.277488" lon="-7.080844">
        <ele>175.998</ele>
        <time>2019-06-22T14:47:02Z</time>
      </trkpt>
      <trkpt lat="41.277262" lon="-7.081020">
        <ele>175.970</ele>
        <time>2019-06-22T14:47:03Z</time>
      </trkpt>
      <trkpt lat="41.277043" lon="-7.081193">
        <ele>176.128</ele>
        <time>2019-06-22T14:47:04Z</time>
      </trkpt>
      <trkpt lat="41.276827" lon="-7.081375">
        <ele>176.417</ele>
        <time>2019-06-22T14:47:05Z</time>
      </trkpt>
      <trkpt lat="41.276611" lon="-7.081570">
        <ele>176.992</ele>
        <time>2019-06-22T14:47:06Z</time>
      </trkpt>
      <trkpt lat="41.276401" lon="-7.081762">
        <ele>177.465</ele>
        <time>2019-06-22T14:47:07Z</time>
      </trkpt>
      <trkpt lat="41.276189" lon="-7.081957">
        <ele>177.599</ele>
        <time>2019-06-22T14:47:08Z</time>
      </trkpt>
      <trkpt lat="41.275967" lon="-7.082157">
        <ele>177.507</ele>
        <time>2019-06-22T14:47:09Z</time>
      </trkpt>
      <trkpt lat="41.275752" lon="-7.082349">
        <ele>177.127</ele>
        <time>2019-06-22T14:47:10Z</time>
      </trkpt>
      <trkpt lat="41.275531" lon="-7.082540">
        <ele>176.808</ele>
        <time>2019-06-22T14:47:11Z</time>
      </trkpt>
      <trkpt lat="41.275315" lon="-7.082734">
        <ele>176.632</ele>
        <time>2019-06-22T14:47:12Z</time>
      </trkpt>
      <trkpt lat="41.275090" lon="-7.082928">
        <ele>176.636</ele>
        <time>2019-06-22T14:47:13Z</time>
      </trkpt>
      <trkpt lat="41.274871" lon="-7.083121">
        <ele>176.338</ele>
        <time>2019-06-22T14:47:14Z</time>
      </trkpt>
      <trkpt lat="41.274653" lon="-7.083315">
        <ele>176.130</ele>
        <time>2019-06-22T14:47:15Z</time>
      </trkpt>
      <trkpt lat="41.274434" lon="-7.083507">
        <ele>176.188</ele>
        <time>2019-06-22T14:47:16Z</time>
      </trkpt>
      <trkpt lat="41.274216" lon="-7.083707">
        <ele>176.387</ele>
        <time>2019-06-22T14:47:17Z</time>
      </trkpt>
      <trkpt lat="41.273992" lon="-7.083906">
        <ele>176.362</ele>
        <time>2019-06-22T14:47:18Z</time>
      </trkpt>
      <trkpt lat="41.273776" lon="-7.084100">
        <ele>176.325</ele>
        <time>2019-06-22T14:47:19Z</time>
      </trkpt>
      <trkpt lat="41.273560" lon="-7.084298">
        <ele>176.284</ele>
        <time>2019-06-22T14:47:20Z</time>
      </trkpt>
      <trkpt lat="41.273341" lon="-7.084496">
        <ele>176.207</ele>
        <time>2019-06-22T14:47:21Z</time>
      </trkpt>
      <trkpt lat="41.273125" lon="-7.084692">
        <ele>176.217</ele>
        <time>2019-06-22T14:47:22Z</time>
      </trkpt>
      <trkpt lat="41.272899" lon="-7.084907">
        <ele>175.708</ele>
        <time>2019-06-22T14:47:23Z</time>
      </trkpt>
      <trkpt lat="41.272684" lon="-7.085105">
        <ele>174.941</ele>
        <time>2019-06-22T14:47:24Z</time>
      </trkpt>
      <trkpt lat="41.272471" lon="-7.085302">
        <ele>174.235</ele>
        <time>2019-06-22T14:47:25Z</time>
      </trkpt>
      <trkpt lat="41.272257" lon="-7.085503">
        <ele>174.147</ele>
        <time>2019-06-22T14:47:26Z</time>
      </trkpt>
      <trkpt lat="41.272042" lon="-7.085707">
        <ele>173.779</ele>
        <time>2019-06-22T14:47:27Z</time>
      </trkpt>
      <trkpt lat="41.271821" lon="-7.085913">
        <ele>173.727</ele>
        <time>2019-06-22T14:47:28Z</time>
      </trkpt>
      <trkpt lat="41.271597" lon="-7.086099">
        <ele>174.466</ele>
        <time>2019-06-22T14:47:29Z</time>
      </trkpt>
      <trkpt lat="41.271378" lon="-7.086266">
        <ele>175.611</ele>
        <time>2019-06-22T14:47:30Z</time>
      </trkpt>
      <trkpt lat="41.271149" lon="-7.086423">
        <ele>175.894</ele>
        <time>2019-06-22T14:47:31Z</time>
      </trkpt>
      <trkpt lat="41.270911" lon="-7.086575">
        <ele>176.473</ele>
        <time>2019-06-22T14:47:32Z</time>
      </trkpt>
      <trkpt lat="41.270672" lon="-7.086709">
        <ele>176.585</ele>
        <time>2019-06-22T14:47:33Z</time>
      </trkpt>
      <trkpt lat="41.270424" lon="-7.086842">
        <ele>176.613</ele>
        <time>2019-06-22T14:47:34Z</time>
      </trkpt>
      <trkpt lat="41.270195" lon="-7.086932">
        <ele>176.708</ele>
        <time>2019-06-22T14:47:35Z</time>
      </trkpt>
      <trkpt lat="41.269946" lon="-7.087052">
        <ele>177.170</ele>
        <time>2019-06-22T14:47:36Z</time>
      </trkpt>
      <trkpt lat="41.269678" lon="-7.087152">
        <ele>177.274</ele>
        <time>2019-06-22T14:47:37Z</time>
      </trkpt>
      <trkpt lat="41.269423" lon="-7.087221">
        <ele>178.066</ele>
        <time>2019-06-22T14:47:38Z</time>
      </trkpt>
      <trkpt lat="41.269167" lon="-7.087280">
        <ele>178.618</ele>
        <time>2019-06-22T14:47:39Z</time>
      </trkpt>
      <trkpt lat="41.268915" lon="-7.087316">
        <ele>178.926</ele>
        <time>2019-06-22T14:47:40Z</time>
      </trkpt>
      <trkpt lat="41.268667" lon="-7.087340">
        <ele>179.085</ele>
        <time>2019-06-22T14:47:41Z</time>
      </trkpt>
      <trkpt lat="41.268410" lon="-7.087377">
        <ele>179.050</ele>
        <time>2019-06-22T14:47:42Z</time>
      </trkpt>
      <trkpt lat="41.268160" lon="-7.087376">
        <ele>178.343</ele>
        <time>2019-06-22T14:47:43Z</time>
      </trkpt>
      <trkpt lat="41.267905" lon="-7.087364">
        <ele>178.198</ele>
        <time>2019-06-22T14:47:44Z</time>
      </trkpt>
      <trkpt lat="41.267652" lon="-7.087337">
        <ele>178.015</ele>
        <time>2019-06-22T14:47:45Z</time>
      </trkpt>
      <trkpt lat="41.267398" lon="-7.087299">
        <ele>177.626</ele>
        <time>2019-06-22T14:47:46Z</time>
      </trkpt>
      <trkpt lat="41.267137" lon="-7.087254">
        <ele>176.708</ele>
        <time>2019-06-22T14:47:47Z</time>
      </trkpt>
      <trkpt lat="41.266882" lon="-7.087186">
        <ele>176.632</ele>
        <time>2019-06-22T14:47:48Z</time>
      </trkpt>
      <trkpt lat="41.266624" lon="-7.087104">
        <ele>175.676</ele>
        <time>2019-06-22T14:47:49Z</time>
      </trkpt>
      <trkpt lat="41.266374" lon="-7.087015">
        <ele>174.798</ele>
        <time>2019-06-22T14:47:50Z</time>
      </trkpt>
      <trkpt lat="41.266116" lon="-7.086927">
        <ele>173.290</ele>
        <time>2019-06-22T14:47:51Z</time>
      </trkpt>
      <trkpt lat="41.265870" lon="-7.086833">
        <ele>173.048</ele>
        <time>2019-06-22T14:47:52Z</time>
      </trkpt>
      <trkpt lat="41.265614" lon="-7.086766">
        <ele>171.657</ele>
        <time>2019-06-22T14:47:53Z</time>
      </trkpt>
      <trkpt lat="41.265357" lon="-7.086678">
        <ele>170.562</ele>
        <time>2019-06-22T14:47:54Z</time>
      </trkpt>
      <trkpt lat="41.265098" lon="-7.086592">
        <ele>169.365</ele>
        <time>2019-06-22T14:47:55Z</time>
      </trkpt>
      <trkpt lat="41.264858" lon="-7.086530">
        <ele>167.764</ele>
        <time>2019-06-22T14:47:56Z</time>
      </trkpt>
      <trkpt lat="41.264599" lon="-7.086438">
        <ele>166.106</ele>
        <time>2019-06-22T14:47:57Z</time>
      </trkpt>
      <trkpt lat="41.264346" lon="-7.086356">
        <ele>165.216</ele>
        <time>2019-06-22T14:47:58Z</time>
      </trkpt>
      <trkpt lat="41.264095" lon="-7.086266">
        <ele>164.308</ele>
        <time>2019-06-22T14:47:59Z</time>
      </trkpt>
      <trkpt lat="41.263843" lon="-7.086177">
        <ele>162.179</ele>
        <time>2019-06-22T14:48:00Z</time>
      </trkpt>
      <trkpt lat="41.263588" lon="-7.086096">
        <ele>160.743</ele>
        <time>2019-06-22T14:48:01Z</time>
      </trkpt>
      <trkpt lat="41.263319" lon="-7.086035">
        <ele>160.135</ele>
        <time>2019-06-22T14:48:02Z</time>
      </trkpt>
      <trkpt lat="41.263050" lon="-7.085988">
        <ele>159.187</ele>
        <time>2019-06-22T14:48:03Z</time>
      </trkpt>
      <trkpt lat="41.262799" lon="-7.085963">
        <ele>159.065</ele>
        <time>2019-06-22T14:48:04Z</time>
      </trkpt>
      <trkpt lat="41.262548" lon="-7.085980">
        <ele>159.074</ele>
        <time>2019-06-22T14:48:05Z</time>
      </trkpt>
      <trkpt lat="41.262302" lon="-7.086024">
        <ele>159.599</ele>
        <time>2019-06-22T14:48:06Z</time>
      </trkpt>
      <trkpt lat="41.262060" lon="-7.086099">
        <ele>159.582</ele>
        <time>2019-06-22T14:48:07Z</time>
      </trkpt>
      <trkpt lat="41.261812" lon="-7.086183">
        <ele>159.562</ele>
        <time>2019-06-22T14:48:08Z</time>
      </trkpt>
      <trkpt lat="41.261569" lon="-7.086290">
        <ele>157.383</ele>
        <time>2019-06-22T14:48:09Z</time>
      </trkpt>
      <trkpt lat="41.261326" lon="-7.086406">
        <ele>155.211</ele>
        <time>2019-06-22T14:48:10Z</time>
      </trkpt>
      <trkpt lat="41.261097" lon="-7.086537">
        <ele>152.508</ele>
        <time>2019-06-22T14:48:11Z</time>
      </trkpt>
      <trkpt lat="41.260868" lon="-7.086684">
        <ele>150.159</ele>
        <time>2019-06-22T14:48:12Z</time>
      </trkpt>
      <trkpt lat="41.260644" lon="-7.086832">
        <ele>148.273</ele>
        <time>2019-06-22T14:48:13Z</time>
      </trkpt>
      <trkpt lat="41.260424" lon="-7.086979">
        <ele>148.225</ele>
        <time>2019-06-22T14:48:14Z</time>
      </trkpt>
      <trkpt lat="41.260200" lon="-7.087122">
        <ele>148.617</ele>
        <time>2019-06-22T14:48:15Z</time>
      </trkpt>
      <trkpt lat="41.259975" lon="-7.087261">
        <ele>151.155</ele>
        <time>2019-06-22T14:48:16Z</time>
      </trkpt>
      <trkpt lat="41.259741" lon="-7.087391">
        <ele>151.844</ele>
        <time>2019-06-22T14:48:17Z</time>
      </trkpt>
      <trkpt lat="41.259505" lon="-7.087504">
        <ele>151.879</ele>
        <time>2019-06-22T14:48:18Z</time>
      </trkpt>
      <trkpt lat="41.259260" lon="-7.087618">
        <ele>152.632</ele>
        <time>2019-06-22T14:48:19Z</time>
      </trkpt>
      <trkpt lat="41.259017" lon="-7.087705">
        <ele>153.184</ele>
        <time>2019-06-22T14:48:20Z</time>
      </trkpt>
      <trkpt lat="41.258768" lon="-7.087781">
        <ele>153.107</ele>
        <time>2019-06-22T14:48:21Z</time>
      </trkpt>
      <trkpt lat="41.258526" lon="-7.087821">
        <ele>151.817</ele>
        <time>2019-06-22T14:48:22Z</time>
      </trkpt>
      <trkpt lat="41.258282" lon="-7.087841">
        <ele>151.108</ele>
        <time>2019-06-22T14:48:23Z</time>
      </trkpt>
      <trkpt lat="41.258043" lon="-7.087826">
        <ele>151.121</ele>
        <time>2019-06-22T14:48:24Z</time>
      </trkpt>
      <trkpt lat="41.257818" lon="-7.087789">
        <ele>151.285</ele>
        <time>2019-06-22T14:48:25Z</time>
      </trkpt>
      <trkpt lat="41.257584" lon="-7.087752">
        <ele>151.387</ele>
        <time>2019-06-22T14:48:26Z</time>
      </trkpt>
      <trkpt lat="41.257352" lon="-7.087703">
        <ele>151.349</ele>
        <time>2019-06-22T14:48:27Z</time>
      </trkpt>
      <trkpt lat="41.257116" lon="-7.087647">
        <ele>151.327</ele>
        <time>2019-06-22T14:48:28Z</time>
      </trkpt>
      <trkpt lat="41.256880" lon="-7.087577">
        <ele>151.136</ele>
        <time>2019-06-22T14:48:29Z</time>
      </trkpt>
      <trkpt lat="41.256645" lon="-7.087508">
        <ele>151.121</ele>
        <time>2019-06-22T14:48:30Z</time>
      </trkpt>
      <trkpt lat="41.256421" lon="-7.087433">
        <ele>151.274</ele>
        <time>2019-06-22T14:48:31Z</time>
      </trkpt>
      <trkpt lat="41.256208" lon="-7.087363">
        <ele>151.493</ele>
        <time>2019-06-22T14:48:32Z</time>
      </trkpt>
      <trkpt lat="41.255991" lon="-7.087300">
        <ele>151.465</ele>
        <time>2019-06-22T14:48:33Z</time>
      </trkpt>
      <trkpt lat="41.255783" lon="-7.087241">
        <ele>150.421</ele>
        <time>2019-06-22T14:48:34Z</time>
      </trkpt>
      <trkpt lat="41.255577" lon="-7.087187">
        <ele>150.008</ele>
        <time>2019-06-22T14:48:35Z</time>
      </trkpt>
      <trkpt lat="41.255382" lon="-7.087138">
        <ele>149.372</ele>
        <time>2019-06-22T14:48:36Z</time>
      </trkpt>
      <trkpt lat="41.255192" lon="-7.087102">
        <ele>148.656</ele>
        <time>2019-06-22T14:48:37Z</time>
      </trkpt>
      <trkpt lat="41.255004" lon="-7.087099">
        <ele>148.668</ele>
        <time>2019-06-22T14:48:38Z</time>
      </trkpt>
      <trkpt lat="41.254832" lon="-7.087099">
        <ele>149.780</ele>
        <time>2019-06-22T14:48:39Z</time>
      </trkpt>
      <trkpt lat="41.254642" lon="-7.087100">
        <ele>149.898</ele>
        <time>2019-06-22T14:48:40Z</time>
      </trkpt>
      <trkpt lat="41.254452" lon="-7.087100">
        <ele>150.117</ele>
        <time>2019-06-22T14:48:41Z</time>
      </trkpt>
      <trkpt lat="41.254257" lon="-7.087102">
        <ele>151.382</ele>
        <time>2019-06-22T14:48:42Z</time>
      </trkpt>
      <trkpt lat="41.254057" lon="-7.087104">
        <ele>152.025</ele>
        <time>2019-06-22T14:48:43Z</time>
      </trkpt>
      <trkpt lat="41.253853" lon="-7.087114">
        <ele>152.137</ele>
        <time>2019-06-22T14:48:44Z</time>
      </trkpt>
      <trkpt lat="41.253645" lon="-7.087117">
        <ele>152.049</ele>
        <time>2019-06-22T14:48:45Z</time>
      </trkpt>
      <trkpt lat="41.253432" lon="-7.087122">
        <ele>152.013</ele>
        <time>2019-06-22T14:48:46Z</time>
      </trkpt>
      <trkpt lat="41.253213" lon="-7.087125">
        <ele>151.108</ele>
        <time>2019-06-22T14:48:47Z</time>
      </trkpt>
      <trkpt lat="41.252989" lon="-7.087128">
        <ele>150.136</ele>
        <time>2019-06-22T14:48:48Z</time>
      </trkpt>
      <trkpt lat="41.252763" lon="-7.087129">
        <ele>149.910</ele>
        <time>2019-06-22T14:48:49Z</time>
      </trkpt>
      <trkpt lat="41.252535" lon="-7.087130">
        <ele>149.082</ele>
        <time>2019-06-22T14:48:50Z</time>
      </trkpt>
      <trkpt lat="41.252301" lon="-7.087135">
        <ele>149.094</ele>
        <time>2019-06-22T14:48:51Z</time>
      </trkpt>
      <trkpt lat="41.252062" lon="-7.087140">
        <ele>149.012</ele>
        <time>2019-06-22T14:48:52Z</time>
      </trkpt>
      <trkpt lat="41.251820" lon="-7.087143">
        <ele>149.381</ele>
        <time>2019-06-22T14:48:53Z</time>
      </trkpt>
      <trkpt lat="41.251579" lon="-7.087144">
        <ele>149.366</ele>
        <time>2019-06-22T14:48:54Z</time>
      </trkpt>
      <trkpt lat="41.251334" lon="-7.087147">
        <ele>148.849</ele>
        <time>2019-06-22T14:48:55Z</time>
      </trkpt>
      <trkpt lat="41.251079" lon="-7.087150">
        <ele>148.386</ele>
        <time>2019-06-22T14:48:56Z</time>
      </trkpt>
      <trkpt lat="41.250837" lon="-7.087152">
        <ele>147.260</ele>
        <time>2019-06-22T14:48:57Z</time>
      </trkpt>
      <trkpt lat="41.250594" lon="-7.087153">
        <ele>146.526</ele>
        <time>2019-06-22T14:48:58Z</time>
      </trkpt>
      <trkpt lat="41.250354" lon="-7.087142">
        <ele>145.608</ele>
        <time>2019-06-22T14:48:59Z</time>
      </trkpt>
      <trkpt lat="41.250105" lon="-7.087141">
        <ele>145.681</ele>
        <time>2019-06-22T14:49:00Z</time>
      </trkpt>
      <trkpt lat="41.249863" lon="-7.087153">
        <ele>145.835</ele>
        <time>2019-06-22T14:49:01Z</time>
      </trkpt>
      <trkpt lat="41.249617" lon="-7.087166">
        <ele>146.627</ele>
        <time>2019-06-22T14:49:02Z</time>
      </trkpt>
      <trkpt lat="41.249365" lon="-7.087174">
        <ele>147.939</ele>
        <time>2019-06-22T14:49:03Z</time>
      </trkpt>
      <trkpt lat="41.249117" lon="-7.087179">
        <ele>149.357</ele>
        <time>2019-06-22T14:49:04Z</time>
      </trkpt>
      <trkpt lat="41.248867" lon="-7.087181">
        <ele>150.186</ele>
        <time>2019-06-22T14:49:05Z</time>
      </trkpt>
      <trkpt lat="41.248618" lon="-7.087186">
        <ele>150.771</ele>
        <time>2019-06-22T14:49:06Z</time>
      </trkpt>
      <trkpt lat="41.248366" lon="-7.087176">
        <ele>150.714</ele>
        <time>2019-06-22T14:49:07Z</time>
      </trkpt>
      <trkpt lat="41.248119" lon="-7.087185">
        <ele>150.045</ele>
        <time>2019-06-22T14:49:08Z</time>
      </trkpt>
      <trkpt lat="41.247854" lon="-7.087194">
        <ele>149.147</ele>
        <time>2019-06-22T14:49:09Z</time>
      </trkpt>
      <trkpt lat="41.247607" lon="-7.087194">
        <ele>149.011</ele>
        <time>2019-06-22T14:49:10Z</time>
      </trkpt>
      <trkpt lat="41.247355" lon="-7.087195">
        <ele>148.908</ele>
        <time>2019-06-22T14:49:11Z</time>
      </trkpt>
      <trkpt lat="41.247101" lon="-7.087197">
        <ele>149.097</ele>
        <time>2019-06-22T14:49:12Z</time>
      </trkpt>
      <trkpt lat="41.246852" lon="-7.087202">
        <ele>149.321</ele>
        <time>2019-06-22T14:49:13Z</time>
      </trkpt>
      <trkpt lat="41.246597" lon="-7.087204">
        <ele>149.953</ele>
        <time>2019-06-22T14:49:14Z</time>
      </trkpt>
      <trkpt lat="41.246347" lon="-7.087210">
        <ele>149.925</ele>
        <time>2019-06-22T14:49:15Z</time>
      </trkpt>
      <trkpt lat="41.246093" lon="-7.087224">
        <ele>149.833</ele>
        <time>2019-06-22T14:49:16Z</time>
      </trkpt>
      <trkpt lat="41.245841" lon="-7.087233">
        <ele>149.852</ele>
        <time>2019-06-22T14:49:17Z</time>
      </trkpt>
      <trkpt lat="41.245593" lon="-7.087236">
        <ele>149.897</ele>
        <time>2019-06-22T14:49:18Z</time>
      </trkpt>
      <trkpt lat="41.245351" lon="-7.087248">
        <ele>149.570</ele>
        <time>2019-06-22T14:49:19Z</time>
      </trkpt>
      <trkpt lat="41.245111" lon="-7.087254">
        <ele>149.483</ele>
        <time>2019-06-22T14:49:20Z</time>
      </trkpt>
      <trkpt lat="41.244880" lon="-7.087261">
        <ele>149.325</ele>
        <time>2019-06-22T14:49:21Z</time>
      </trkpt>
      <trkpt lat="41.244645" lon="-7.087276">
        <ele>149.317</ele>
        <time>2019-06-22T14:49:22Z</time>
      </trkpt>
      <trkpt lat="41.244428" lon="-7.087288">
        <ele>149.808</ele>
        <time>2019-06-22T14:49:23Z</time>
      </trkpt>
      <trkpt lat="41.244239" lon="-7.087293">
        <ele>149.821</ele>
        <time>2019-06-22T14:49:24Z</time>
      </trkpt>
      <trkpt lat="41.244048" lon="-7.087303">
        <ele>150.765</ele>
        <time>2019-06-22T14:49:25Z</time>
      </trkpt>
      <trkpt lat="41.243864" lon="-7.087310">
        <ele>152.387</ele>
        <time>2019-06-22T14:49:26Z</time>
      </trkpt>
      <trkpt lat="41.243682" lon="-7.087304">
        <ele>154.339</ele>
        <time>2019-06-22T14:49:27Z</time>
      </trkpt>
      <trkpt lat="41.243491" lon="-7.087275">
        <ele>156.477</ele>
        <time>2019-06-22T14:49:28Z</time>
      </trkpt>
      <trkpt lat="41.243305" lon="-7.087234">
        <ele>157.296</ele>
        <time>2019-06-22T14:49:29Z</time>
      </trkpt>
      <trkpt lat="41.243115" lon="-7.087169">
        <ele>158.471</ele>
        <time>2019-06-22T14:49:30Z</time>
      </trkpt>
      <trkpt lat="41.242925" lon="-7.087093">
        <ele>158.494</ele>
        <time>2019-06-22T14:49:31Z</time>
      </trkpt>
      <trkpt lat="41.242726" lon="-7.087018">
        <ele>158.459</ele>
        <time>2019-06-22T14:49:32Z</time>
      </trkpt>
      <trkpt lat="41.242526" lon="-7.086946">
        <ele>157.603</ele>
        <time>2019-06-22T14:49:33Z</time>
      </trkpt>
      <trkpt lat="41.242319" lon="-7.086872">
        <ele>157.123</ele>
        <time>2019-06-22T14:49:34Z</time>
      </trkpt>
      <trkpt lat="41.242111" lon="-7.086804">
        <ele>156.408</ele>
        <time>2019-06-22T14:49:35Z</time>
      </trkpt>
      <trkpt lat="41.241920" lon="-7.086755">
        <ele>155.778</ele>
        <time>2019-06-22T14:49:36Z</time>
      </trkpt>
      <trkpt lat="41.241725" lon="-7.086685">
        <ele>154.842</ele>
        <time>2019-06-22T14:49:37Z</time>
      </trkpt>
      <trkpt lat="41.241538" lon="-7.086617">
        <ele>154.884</ele>
        <time>2019-06-22T14:49:38Z</time>
      </trkpt>
      <trkpt lat="41.241352" lon="-7.086545">
        <ele>155.796</ele>
        <time>2019-06-22T14:49:39Z</time>
      </trkpt>
      <trkpt lat="41.241166" lon="-7.086479">
        <ele>156.274</ele>
        <time>2019-06-22T14:49:40Z</time>
      </trkpt>
      <trkpt lat="41.240975" lon="-7.086413">
        <ele>157.253</ele>
        <time>2019-06-22T14:49:41Z</time>
      </trkpt>
      <trkpt lat="41.240780" lon="-7.086365">
        <ele>157.638</ele>
        <time>2019-06-22T14:49:42Z</time>
      </trkpt>
      <trkpt lat="41.240584" lon="-7.086334">
        <ele>157.611</ele>
        <time>2019-06-22T14:49:43Z</time>
      </trkpt>
      <trkpt lat="41.240386" lon="-7.086345">
        <ele>156.213</ele>
        <time>2019-06-22T14:49:44Z</time>
      </trkpt>
      <trkpt lat="41.240202" lon="-7.086389">
        <ele>155.043</ele>
        <time>2019-06-22T14:49:45Z</time>
      </trkpt>
      <trkpt lat="41.239989" lon="-7.086415">
        <ele>154.107</ele>
        <time>2019-06-22T14:49:46Z</time>
      </trkpt>
      <trkpt lat="41.239789" lon="-7.086445">
        <ele>154.108</ele>
        <time>2019-06-22T14:49:47Z</time>
      </trkpt>
      <trkpt lat="41.239580" lon="-7.086474">
        <ele>154.644</ele>
        <time>2019-06-22T14:49:48Z</time>
      </trkpt>
      <trkpt lat="41.239373" lon="-7.086493">
        <ele>155.658</ele>
        <time>2019-06-22T14:49:49Z</time>
      </trkpt>
      <trkpt lat="41.239165" lon="-7.086526">
        <ele>156.030</ele>
        <time>2019-06-22T14:49:50Z</time>
      </trkpt>
      <trkpt lat="41.238955" lon="-7.086560">
        <ele>156.012</ele>
        <time>2019-06-22T14:49:51Z</time>
      </trkpt>
      <trkpt lat="41.238742" lon="-7.086582">
        <ele>155.490</ele>
        <time>2019-06-22T14:49:52Z</time>
      </trkpt>
      <trkpt lat="41.238527" lon="-7.086602">
        <ele>154.039</ele>
        <time>2019-06-22T14:49:53Z</time>
      </trkpt>
      <trkpt lat="41.238305" lon="-7.086636">
        <ele>153.394</ele>
        <time>2019-06-22T14:49:54Z</time>
      </trkpt>
      <trkpt lat="41.238078" lon="-7.086671">
        <ele>153.077</ele>
        <time>2019-06-22T14:49:55Z</time>
      </trkpt>
      <trkpt lat="41.237857" lon="-7.086703">
        <ele>152.239</ele>
        <time>2019-06-22T14:49:56Z</time>
      </trkpt>
      <trkpt lat="41.237630" lon="-7.086753">
        <ele>152.201</ele>
        <time>2019-06-22T14:49:57Z</time>
      </trkpt>
      <trkpt lat="41.237404" lon="-7.086785">
        <ele>153.521</ele>
        <time>2019-06-22T14:49:58Z</time>
      </trkpt>
      <trkpt lat="41.237177" lon="-7.086819">
        <ele>154.708</ele>
        <time>2019-06-22T14:49:59Z</time>
      </trkpt>
      <trkpt lat="41.236949" lon="-7.086845">
        <ele>154.826</ele>
        <time>2019-06-22T14:50:00Z</time>
      </trkpt>
      <trkpt lat="41.236719" lon="-7.086874">
        <ele>154.780</ele>
        <time>2019-06-22T14:50:01Z</time>
      </trkpt>
      <trkpt lat="41.236487" lon="-7.086913">
        <ele>153.892</ele>
        <time>2019-06-22T14:50:02Z</time>
      </trkpt>
      <trkpt lat="41.236244" lon="-7.086950">
        <ele>151.914</ele>
        <time>2019-06-22T14:50:03Z</time>
      </trkpt>
      <trkpt lat="41.236004" lon="-7.086988">
        <ele>149.572</ele>
        <time>2019-06-22T14:50:04Z</time>
      </trkpt>
      <trkpt lat="41.235775" lon="-7.087020">
        <ele>148.021</ele>
        <time>2019-06-22T14:50:05Z</time>
      </trkpt>
      <trkpt lat="41.235553" lon="-7.087051">
        <ele>145.926</ele>
        <time>2019-06-22T14:50:06Z</time>
      </trkpt>
      <trkpt lat="41.235323" lon="-7.087083">
        <ele>145.219</ele>
        <time>2019-06-22T14:50:07Z</time>
      </trkpt>
      <trkpt lat="41.235095" lon="-7.087112">
        <ele>145.211</ele>
        <time>2019-06-22T14:50:08Z</time>
      </trkpt>
      <trkpt lat="41.234869" lon="-7.087146">
        <ele>145.221</ele>
        <time>2019-06-22T14:50:09Z</time>
      </trkpt>
      <trkpt lat="41.234640" lon="-7.087176">
        <ele>144.503</ele>
        <time>2019-06-22T14:50:10Z</time>
      </trkpt>
      <trkpt lat="41.234419" lon="-7.087209">
        <ele>143.408</ele>
        <time>2019-06-22T14:50:11Z</time>
      </trkpt>
      <trkpt lat="41.234190" lon="-7.087241">
        <ele>141.914</ele>
        <time>2019-06-22T14:50:12Z</time>
      </trkpt>
      <trkpt lat="41.233976" lon="-7.087273">
        <ele>139.318</ele>
        <time>2019-06-22T14:50:13Z</time>
      </trkpt>
      <trkpt lat="41.233769" lon="-7.087307">
        <ele>136.020</ele>
        <time>2019-06-22T14:50:14Z</time>
      </trkpt>
      <trkpt lat="41.233571" lon="-7.087337">
        <ele>135.442</ele>
        <time>2019-06-22T14:50:15Z</time>
      </trkpt>
      <trkpt lat="41.233380" lon="-7.087371">
        <ele>135.440</ele>
        <time>2019-06-22T14:50:16Z</time>
      </trkpt>
      <trkpt lat="41.233190" lon="-7.087399">
        <ele>137.019</ele>
        <time>2019-06-22T14:50:17Z</time>
      </trkpt>
      <trkpt lat="41.233007" lon="-7.087430">
        <ele>137.774</ele>
        <time>2019-06-22T14:50:18Z</time>
      </trkpt>
      <trkpt lat="41.232828" lon="-7.087446">
        <ele>140.657</ele>
        <time>2019-06-22T14:50:19Z</time>
      </trkpt>
      <trkpt lat="41.232652" lon="-7.087463">
        <ele>142.472</ele>
        <time>2019-06-22T14:50:20Z</time>
      </trkpt>
      <trkpt lat="41.232496" lon="-7.087487">
        <ele>144.413</ele>
        <time>2019-06-22T14:50:21Z</time>
      </trkpt>
      <trkpt lat="41.232313" lon="-7.087486">
        <ele>145.614</ele>
        <time>2019-06-22T14:50:22Z</time>
      </trkpt>
      <trkpt lat="41.232134" lon="-7.087468">
        <ele>147.308</ele>
        <time>2019-06-22T14:50:23Z</time>
      </trkpt>
      <trkpt lat="41.231955" lon="-7.087435">
        <ele>147.870</ele>
        <time>2019-06-22T14:50:24Z</time>
      </trkpt>
      <trkpt lat="41.231776" lon="-7.087402">
        <ele>147.884</ele>
        <time>2019-06-22T14:50:25Z</time>
      </trkpt>
      <trkpt lat="41.231603" lon="-7.087395">
        <ele>146.256</ele>
        <time>2019-06-22T14:50:26Z</time>
      </trkpt>
      <trkpt lat="41.231426" lon="-7.087420">
        <ele>145.518</ele>
        <time>2019-06-22T14:50:27Z</time>
      </trkpt>
      <trkpt lat="41.231257" lon="-7.087472">
        <ele>144.536</ele>
        <time>2019-06-22T14:50:28Z</time>
      </trkpt>
      <trkpt lat="41.231085" lon="-7.087532">
        <ele>143.455</ele>
        <time>2019-06-22T14:50:29Z</time>
      </trkpt>
      <trkpt lat="41.230924" lon="-7.087607">
        <ele>143.480</ele>
        <time>2019-06-22T14:50:30Z</time>
      </trkpt>
      <trkpt lat="41.230764" lon="-7.087684">
        <ele>143.453</ele>
        <time>2019-06-22T14:50:31Z</time>
      </trkpt>
      <trkpt lat="41.230601" lon="-7.087760">
        <ele>144.012</ele>
        <time>2019-06-22T14:50:32Z</time>
      </trkpt>
      <trkpt lat="41.230440" lon="-7.087830">
        <ele>145.032</ele>
        <time>2019-06-22T14:50:33Z</time>
      </trkpt>
      <trkpt lat="41.230285" lon="-7.087888">
        <ele>145.005</ele>
        <time>2019-06-22T14:50:34Z</time>
      </trkpt>
      <trkpt lat="41.230140" lon="-7.087945">
        <ele>145.008</ele>
        <time>2019-06-22T14:50:35Z</time>
      </trkpt>
      <trkpt lat="41.229993" lon="-7.087992">
        <ele>145.084</ele>
        <time>2019-06-22T14:50:36Z</time>
      </trkpt>
      <trkpt lat="41.229850" lon="-7.088048">
        <ele>145.078</ele>
        <time>2019-06-22T14:50:37Z</time>
      </trkpt>
      <trkpt lat="41.229714" lon="-7.088108">
        <ele>145.250</ele>
        <time>2019-06-22T14:50:38Z</time>
      </trkpt>
      <trkpt lat="41.229573" lon="-7.088175">
        <ele>145.562</ele>
        <time>2019-06-22T14:50:39Z</time>
      </trkpt>
      <trkpt lat="41.229430" lon="-7.088231">
        <ele>146.460</ele>
        <time>2019-06-22T14:50:40Z</time>
      </trkpt>
      <trkpt lat="41.229278" lon="-7.088291">
        <ele>146.539</ele>
        <time>2019-06-22T14:50:41Z</time>
      </trkpt>
      <trkpt lat="41.229125" lon="-7.088357">
        <ele>146.664</ele>
        <time>2019-06-22T14:50:42Z</time>
      </trkpt>
      <trkpt lat="41.228971" lon="-7.088426">
        <ele>147.347</ele>
        <time>2019-06-22T14:50:43Z</time>
      </trkpt>
      <trkpt lat="41.228816" lon="-7.088487">
        <ele>147.879</ele>
        <time>2019-06-22T14:50:44Z</time>
      </trkpt>
      <trkpt lat="41.228657" lon="-7.088559">
        <ele>148.605</ele>
        <time>2019-06-22T14:50:45Z</time>
      </trkpt>
      <trkpt lat="41.228501" lon="-7.088621">
        <ele>149.325</ele>
        <time>2019-06-22T14:50:46Z</time>
      </trkpt>
      <trkpt lat="41.228345" lon="-7.088689">
        <ele>150.108</ele>
        <time>2019-06-22T14:50:47Z</time>
      </trkpt>
      <trkpt lat="41.228185" lon="-7.088760">
        <ele>150.180</ele>
        <time>2019-06-22T14:50:48Z</time>
      </trkpt>
      <trkpt lat="41.228020" lon="-7.088831">
        <ele>149.964</ele>
        <time>2019-06-22T14:50:49Z</time>
      </trkpt>
      <trkpt lat="41.227852" lon="-7.088897">
        <ele>149.436</ele>
        <time>2019-06-22T14:50:50Z</time>
      </trkpt>
      <trkpt lat="41.227686" lon="-7.088968">
        <ele>149.198</ele>
        <time>2019-06-22T14:50:51Z</time>
      </trkpt>
      <trkpt lat="41.227519" lon="-7.089039">
        <ele>148.066</ele>
        <time>2019-06-22T14:50:52Z</time>
      </trkpt>
      <trkpt lat="41.227345" lon="-7.089106">
        <ele>147.865</ele>
        <time>2019-06-22T14:50:53Z</time>
      </trkpt>
      <trkpt lat="41.227173" lon="-7.089178">
        <ele>146.880</ele>
        <time>2019-06-22T14:50:54Z</time>
      </trkpt>
      <trkpt lat="41.226999" lon="-7.089253">
        <ele>146.843</ele>
        <time>2019-06-22T14:50:55Z</time>
      </trkpt>
      <trkpt lat="41.226826" lon="-7.089345">
        <ele>147.673</ele>
        <time>2019-06-22T14:50:56Z</time>
      </trkpt>
      <trkpt lat="41.226644" lon="-7.089421">
        <ele>148.085</ele>
        <time>2019-06-22T14:50:57Z</time>
      </trkpt>
      <trkpt lat="41.226466" lon="-7.089495">
        <ele>148.113</ele>
        <time>2019-06-22T14:50:58Z</time>
      </trkpt>
      <trkpt lat="41.226296" lon="-7.089575">
        <ele>148.408</ele>
        <time>2019-06-22T14:50:59Z</time>
      </trkpt>
      <trkpt lat="41.226122" lon="-7.089644">
        <ele>148.440</ele>
        <time>2019-06-22T14:51:00Z</time>
      </trkpt>
      <trkpt lat="41.225959" lon="-7.089712">
        <ele>146.414</ele>
        <time>2019-06-22T14:51:01Z</time>
      </trkpt>
      <trkpt lat="41.225799" lon="-7.089779">
        <ele>144.936</ele>
        <time>2019-06-22T14:51:02Z</time>
      </trkpt>
      <trkpt lat="41.225642" lon="-7.089840">
        <ele>143.458</ele>
        <time>2019-06-22T14:51:03Z</time>
      </trkpt>
      <trkpt lat="41.225486" lon="-7.089902">
        <ele>143.396</ele>
        <time>2019-06-22T14:51:04Z</time>
      </trkpt>
      <trkpt lat="41.225344" lon="-7.089971">
        <ele>143.265</ele>
        <time>2019-06-22T14:51:05Z</time>
      </trkpt>
      <trkpt lat="41.225203" lon="-7.090022">
        <ele>143.370</ele>
        <time>2019-06-22T14:51:06Z</time>
      </trkpt>
      <trkpt lat="41.225068" lon="-7.090083">
        <ele>143.923</ele>
        <time>2019-06-22T14:51:07Z</time>
      </trkpt>
      <trkpt lat="41.224940" lon="-7.090144">
        <ele>145.223</ele>
        <time>2019-06-22T14:51:08Z</time>
      </trkpt>
      <trkpt lat="41.224811" lon="-7.090199">
        <ele>145.383</ele>
        <time>2019-06-22T14:51:09Z</time>
      </trkpt>
      <trkpt lat="41.224670" lon="-7.090247">
        <ele>145.311</ele>
        <time>2019-06-22T14:51:10Z</time>
      </trkpt>
      <trkpt lat="41.224515" lon="-7.090309">
        <ele>147.108</ele>
        <time>2019-06-22T14:51:11Z</time>
      </trkpt>
      <trkpt lat="41.224360" lon="-7.090370">
        <ele>148.285</ele>
        <time>2019-06-22T14:51:12Z</time>
      </trkpt>
      <trkpt lat="41.224196" lon="-7.090440">
        <ele>149.219</ele>
        <time>2019-06-22T14:51:13Z</time>
      </trkpt>
      <trkpt lat="41.224025" lon="-7.090519">
        <ele>150.061</ele>
        <time>2019-06-22T14:51:14Z</time>
      </trkpt>
      <trkpt lat="41.223840" lon="-7.090597">
        <ele>150.033</ele>
        <time>2019-06-22T14:51:15Z</time>
      </trkpt>
      <trkpt lat="41.223647" lon="-7.090694">
        <ele>149.551</ele>
        <time>2019-06-22T14:51:16Z</time>
      </trkpt>
      <trkpt lat="41.223447" lon="-7.090773">
        <ele>148.360</ele>
        <time>2019-06-22T14:51:17Z</time>
      </trkpt>
      <trkpt lat="41.223239" lon="-7.090864">
        <ele>147.715</ele>
        <time>2019-06-22T14:51:18Z</time>
      </trkpt>
      <trkpt lat="41.223024" lon="-7.090950">
        <ele>146.648</ele>
        <time>2019-06-22T14:51:19Z</time>
      </trkpt>
      <trkpt lat="41.222808" lon="-7.091039">
        <ele>145.691</ele>
        <time>2019-06-22T14:51:20Z</time>
      </trkpt>
      <trkpt lat="41.222598" lon="-7.091127">
        <ele>145.181</ele>
        <time>2019-06-22T14:51:21Z</time>
      </trkpt>
      <trkpt lat="41.222385" lon="-7.091229">
        <ele>143.319</ele>
        <time>2019-06-22T14:51:22Z</time>
      </trkpt>
      <trkpt lat="41.222172" lon="-7.091333">
        <ele>140.408</ele>
        <time>2019-06-22T14:51:23Z</time>
      </trkpt>
      <trkpt lat="41.221959" lon="-7.091436">
        <ele>138.092</ele>
        <time>2019-06-22T14:51:24Z</time>
      </trkpt>
      <trkpt lat="41.221754" lon="-7.091541">
        <ele>137.416</ele>
        <time>2019-06-22T14:51:25Z</time>
      </trkpt>
      <trkpt lat="41.221557" lon="-7.091650">
        <ele>137.478</ele>
        <time>2019-06-22T14:51:26Z</time>
      </trkpt>
      <trkpt lat="41.221362" lon="-7.091757">
        <ele>137.910</ele>
        <time>2019-06-22T14:51:27Z</time>
      </trkpt>
      <trkpt lat="41.221167" lon="-7.091847">
        <ele>138.988</ele>
        <time>2019-06-22T14:51:28Z</time>
      </trkpt>
      <trkpt lat="41.220984" lon="-7.091923">
        <ele>141.597</ele>
        <time>2019-06-22T14:51:29Z</time>
      </trkpt>
      <trkpt lat="41.220798" lon="-7.091997">
        <ele>142.062</ele>
        <time>2019-06-22T14:51:30Z</time>
      </trkpt>
      <trkpt lat="41.220621" lon="-7.092060">
        <ele>142.175</ele>
        <time>2019-06-22T14:51:31Z</time>
      </trkpt>
      <trkpt lat="41.220451" lon="-7.092095">
        <ele>142.148</ele>
        <time>2019-06-22T14:51:32Z</time>
      </trkpt>
      <trkpt lat="41.220283" lon="-7.092159">
        <ele>142.161</ele>
        <time>2019-06-22T14:51:33Z</time>
      </trkpt>
      <trkpt lat="41.220113" lon="-7.092194">
        <ele>142.217</ele>
        <time>2019-06-22T14:51:34Z</time>
      </trkpt>
      <trkpt lat="41.219938" lon="-7.092176">
        <ele>143.408</ele>
        <time>2019-06-22T14:51:35Z</time>
      </trkpt>
      <trkpt lat="41.219758" lon="-7.092147">
        <ele>144.157</ele>
        <time>2019-06-22T14:51:36Z</time>
      </trkpt>
      <trkpt lat="41.219574" lon="-7.092122">
        <ele>145.981</ele>
        <time>2019-06-22T14:51:37Z</time>
      </trkpt>
      <trkpt lat="41.219398" lon="-7.092097">
        <ele>147.463</ele>
        <time>2019-06-22T14:51:38Z</time>
      </trkpt>
      <trkpt lat="41.219212" lon="-7.092090">
        <ele>149.325</ele>
        <time>2019-06-22T14:51:39Z</time>
      </trkpt>
      <trkpt lat="41.219023" lon="-7.092077">
        <ele>149.413</ele>
        <time>2019-06-22T14:51:40Z</time>
      </trkpt>
      <trkpt lat="41.218823" lon="-7.092081">
        <ele>149.462</ele>
        <time>2019-06-22T14:51:41Z</time>
      </trkpt>
      <trkpt lat="41.218638" lon="-7.092077">
        <ele>149.437</ele>
        <time>2019-06-22T14:51:42Z</time>
      </trkpt>
      <trkpt lat="41.218439" lon="-7.092042">
        <ele>149.750</ele>
        <time>2019-06-22T14:51:43Z</time>
      </trkpt>
      <trkpt lat="41.218248" lon="-7.091987">
        <ele>151.059</ele>
        <time>2019-06-22T14:51:44Z</time>
      </trkpt>
      <trkpt lat="41.218059" lon="-7.091941">
        <ele>151.903</ele>
        <time>2019-06-22T14:51:45Z</time>
      </trkpt>
      <trkpt lat="41.217875" lon="-7.091914">
        <ele>153.323</ele>
        <time>2019-06-22T14:51:46Z</time>
      </trkpt>
      <trkpt lat="41.217698" lon="-7.091899">
        <ele>154.308</ele>
        <time>2019-06-22T14:51:47Z</time>
      </trkpt>
      <trkpt lat="41.217526" lon="-7.091897">
        <ele>155.228</ele>
        <time>2019-06-22T14:51:48Z</time>
      </trkpt>
      <trkpt lat="41.217356" lon="-7.091913">
        <ele>155.312</ele>
        <time>2019-06-22T14:51:49Z</time>
      </trkpt>
      <trkpt lat="41.217189" lon="-7.091945">
        <ele>155.594</ele>
        <time>2019-06-22T14:51:50Z</time>
      </trkpt>
      <trkpt lat="41.217031" lon="-7.092000">
        <ele>155.646</ele>
        <time>2019-06-22T14:51:51Z</time>
      </trkpt>
      <trkpt lat="41.216871" lon="-7.092066">
        <ele>155.624</ele>
        <time>2019-06-22T14:51:52Z</time>
      </trkpt>
      <trkpt lat="41.216721" lon="-7.092128">
        <ele>155.333</ele>
        <time>2019-06-22T14:51:53Z</time>
      </trkpt>
      <trkpt lat="41.216586" lon="-7.092195">
        <ele>155.288</ele>
        <time>2019-06-22T14:51:54Z</time>
      </trkpt>
      <trkpt lat="41.216452" lon="-7.092255">
        <ele>154.951</ele>
        <time>2019-06-22T14:51:55Z</time>
      </trkpt>
      <trkpt lat="41.216314" lon="-7.092303">
        <ele>154.956</ele>
        <time>2019-06-22T14:51:56Z</time>
      </trkpt>
      <trkpt lat="41.216169" lon="-7.092346">
        <ele>155.759</ele>
        <time>2019-06-22T14:51:57Z</time>
      </trkpt>
      <trkpt lat="41.216040" lon="-7.092328">
        <ele>156.814</ele>
        <time>2019-06-22T14:51:58Z</time>
      </trkpt>
      <trkpt lat="41.215913" lon="-7.092307">
        <ele>157.408</ele>
        <time>2019-06-22T14:51:59Z</time>
      </trkpt>
      <trkpt lat="41.215789" lon="-7.092263">
        <ele>158.348</ele>
        <time>2019-06-22T14:52:00Z</time>
      </trkpt>
      <trkpt lat="41.215680" lon="-7.092183">
        <ele>158.772</ele>
        <time>2019-06-22T14:52:01Z</time>
      </trkpt>
      <trkpt lat="41.215583" lon="-7.092093">
        <ele>159.294</ele>
        <time>2019-06-22T14:52:02Z</time>
      </trkpt>
      <trkpt lat="41.215504" lon="-7.091975">
        <ele>159.496</ele>
        <time>2019-06-22T14:52:03Z</time>
      </trkpt>
      <trkpt lat="41.215438" lon="-7.091865">
        <ele>159.914</ele>
        <time>2019-06-22T14:52:04Z</time>
      </trkpt>
      <trkpt lat="41.215392" lon="-7.091745">
        <ele>160.593</ele>
        <time>2019-06-22T14:52:05Z</time>
      </trkpt>
      <trkpt lat="41.215326" lon="-7.091649">
        <ele>160.588</ele>
        <time>2019-06-22T14:52:06Z</time>
      </trkpt>
      <trkpt lat="41.215254" lon="-7.091594">
        <ele>160.551</ele>
        <time>2019-06-22T14:52:07Z</time>
      </trkpt>
      <trkpt lat="41.215156" lon="-7.091558">
        <ele>160.352</ele>
        <time>2019-06-22T14:52:08Z</time>
      </trkpt>
      <trkpt lat="41.215060" lon="-7.091515">
        <ele>160.353</ele>
        <time>2019-06-22T14:52:09Z</time>
      </trkpt>
      <trkpt lat="41.214963" lon="-7.091462">
        <ele>160.308</ele>
        <time>2019-06-22T14:52:10Z</time>
      </trkpt>
      <trkpt lat="41.214875" lon="-7.091399">
        <ele>161.108</ele>
        <time>2019-06-22T14:52:11Z</time>
      </trkpt>
      <trkpt lat="41.214798" lon="-7.091326">
        <ele>162.128</ele>
        <time>2019-06-22T14:52:12Z</time>
      </trkpt>
      <trkpt lat="41.214748" lon="-7.091238">
        <ele>163.542</ele>
        <time>2019-06-22T14:52:13Z</time>
      </trkpt>
      <trkpt lat="41.214715" lon="-7.091142">
        <ele>164.784</ele>
        <time>2019-06-22T14:52:14Z</time>
      </trkpt>
      <trkpt lat="41.214693" lon="-7.091001">
        <ele>165.776</ele>
        <time>2019-06-22T14:52:15Z</time>
      </trkpt>
      <trkpt lat="41.214676" lon="-7.090853">
        <ele>166.644</ele>
        <time>2019-06-22T14:52:16Z</time>
      </trkpt>
      <trkpt lat="41.214661" lon="-7.090687">
        <ele>167.213</ele>
        <time>2019-06-22T14:52:17Z</time>
      </trkpt>
      <trkpt lat="41.214640" lon="-7.090515">
        <ele>167.268</ele>
        <time>2019-06-22T14:52:18Z</time>
      </trkpt>
      <trkpt lat="41.214625" lon="-7.090346">
        <ele>167.131</ele>
        <time>2019-06-22T14:52:19Z</time>
      </trkpt>
      <trkpt lat="41.214613" lon="-7.090196">
        <ele>166.895</ele>
        <time>2019-06-22T14:52:20Z</time>
      </trkpt>
      <trkpt lat="41.214593" lon="-7.090065">
        <ele>166.849</ele>
        <time>2019-06-22T14:52:21Z</time>
      </trkpt>
      <trkpt lat="41.214566" lon="-7.089960">
        <ele>167.323</ele>
        <time>2019-06-22T14:52:22Z</time>
      </trkpt>
      <trkpt lat="41.214522" lon="-7.089883">
        <ele>168.208</ele>
        <time>2019-06-22T14:52:23Z</time>
      </trkpt>
      <trkpt lat="41.214467" lon="-7.089841">
        <ele>169.252</ele>
        <time>2019-06-22T14:52:24Z</time>
      </trkpt>
      <trkpt lat="41.214381" lon="-7.089813">
        <ele>170.376</ele>
        <time>2019-06-22T14:52:25Z</time>
      </trkpt>
      <trkpt lat="41.214290" lon="-7.089771">
        <ele>170.778</ele>
        <time>2019-06-22T14:52:26Z</time>
      </trkpt>
      <trkpt lat="41.214184" lon="-7.089722">
        <ele>170.750</ele>
        <time>2019-06-22T14:52:27Z</time>
      </trkpt>
      <trkpt lat="41.214060" lon="-7.089692">
        <ele>170.728</ele>
        <time>2019-06-22T14:52:28Z</time>
      </trkpt>
      <trkpt lat="41.213920" lon="-7.089640">
        <ele>170.537</ele>
        <time>2019-06-22T14:52:29Z</time>
      </trkpt>
      <trkpt lat="41.213783" lon="-7.089557">
        <ele>170.592</ele>
        <time>2019-06-22T14:52:30Z</time>
      </trkpt>
      <trkpt lat="41.213640" lon="-7.089456">
        <ele>170.825</ele>
        <time>2019-06-22T14:52:31Z</time>
      </trkpt>
      <trkpt lat="41.213510" lon="-7.089331">
        <ele>171.295</ele>
        <time>2019-06-22T14:52:32Z</time>
      </trkpt>
      <trkpt lat="41.213361" lon="-7.089207">
        <ele>171.649</ele>
        <time>2019-06-22T14:52:33Z</time>
      </trkpt>
      <trkpt lat="41.213205" lon="-7.089076">
        <ele>172.023</ele>
        <time>2019-06-22T14:52:34Z</time>
      </trkpt>
      <trkpt lat="41.213058" lon="-7.088939">
        <ele>172.308</ele>
        <time>2019-06-22T14:52:35Z</time>
      </trkpt>
      <trkpt lat="41.212895" lon="-7.088801">
        <ele>172.322</ele>
        <time>2019-06-22T14:52:36Z</time>
      </trkpt>
      <trkpt lat="41.212725" lon="-7.088664">
        <ele>172.046</ele>
        <time>2019-06-22T14:52:37Z</time>
      </trkpt>
      <trkpt lat="41.212563" lon="-7.088516">
        <ele>171.728</ele>
        <time>2019-06-22T14:52:38Z</time>
      </trkpt>
      <trkpt lat="41.212403" lon="-7.088370">
        <ele>171.630</ele>
        <time>2019-06-22T14:52:39Z</time>
      </trkpt>
      <trkpt lat="41.212249" lon="-7.088225">
        <ele>171.468</ele>
        <time>2019-06-22T14:52:40Z</time>
      </trkpt>
      <trkpt lat="41.212113" lon="-7.088054">
        <ele>171.477</ele>
        <time>2019-06-22T14:52:41Z</time>
      </trkpt>
      <trkpt lat="41.212009" lon="-7.087861">
        <ele>171.412</ele>
        <time>2019-06-22T14:52:42Z</time>
      </trkpt>
      <trkpt lat="41.211910" lon="-7.087659">
        <ele>171.855</ele>
        <time>2019-06-22T14:52:43Z</time>
      </trkpt>
      <trkpt lat="41.211857" lon="-7.087412">
        <ele>171.915</ele>
        <time>2019-06-22T14:52:44Z</time>
      </trkpt>
      <trkpt lat="41.211821" lon="-7.087177">
        <ele>172.065</ele>
        <time>2019-06-22T14:52:45Z</time>
      </trkpt>
      <trkpt lat="41.211782" lon="-7.086949">
        <ele>172.011</ele>
        <time>2019-06-22T14:52:46Z</time>
      </trkpt>
      <trkpt lat="41.211738" lon="-7.086717">
        <ele>172.008</ele>
        <time>2019-06-22T14:52:47Z</time>
      </trkpt>
      <trkpt lat="41.211675" lon="-7.086495">
        <ele>171.884</ele>
        <time>2019-06-22T14:52:48Z</time>
      </trkpt>
      <trkpt lat="41.211573" lon="-7.086284">
        <ele>171.138</ele>
        <time>2019-06-22T14:52:49Z</time>
      </trkpt>
      <trkpt lat="41.211461" lon="-7.086095">
        <ele>171.050</ele>
        <time>2019-06-22T14:52:50Z</time>
      </trkpt>
      <trkpt lat="41.211334" lon="-7.085941">
        <ele>170.422</ele>
        <time>2019-06-22T14:52:51Z</time>
      </trkpt>
      <trkpt lat="41.211195" lon="-7.085791">
        <ele>170.180</ele>
        <time>2019-06-22T14:52:52Z</time>
      </trkpt>
      <trkpt lat="41.211036" lon="-7.085650">
        <ele>170.149</ele>
        <time>2019-06-22T14:52:53Z</time>
      </trkpt>
      <trkpt lat="41.210869" lon="-7.085543">
        <ele>169.154</ele>
        <time>2019-06-22T14:52:54Z</time>
      </trkpt>
      <trkpt lat="41.210715" lon="-7.085415">
        <ele>168.617</ele>
        <time>2019-06-22T14:52:55Z</time>
      </trkpt>
      <trkpt lat="41.210580" lon="-7.085255">
        <ele>168.639</ele>
        <time>2019-06-22T14:52:56Z</time>
      </trkpt>
      <trkpt lat="41.210448" lon="-7.085073">
        <ele>168.601</ele>
        <time>2019-06-22T14:52:57Z</time>
      </trkpt>
      <trkpt lat="41.210354" lon="-7.084834">
        <ele>168.621</ele>
        <time>2019-06-22T14:52:58Z</time>
      </trkpt>
      <trkpt lat="41.210257" lon="-7.084634">
        <ele>168.608</ele>
        <time>2019-06-22T14:52:59Z</time>
      </trkpt>
      <trkpt lat="41.210174" lon="-7.084386">
        <ele>167.736</ele>
        <time>2019-06-22T14:53:00Z</time>
      </trkpt>
      <trkpt lat="41.210095" lon="-7.084131">
        <ele>166.380</ele>
        <time>2019-06-22T14:53:01Z</time>
      </trkpt>
      <trkpt lat="41.210014" lon="-7.083871">
        <ele>166.332</ele>
        <time>2019-06-22T14:53:02Z</time>
      </trkpt>
      <trkpt lat="41.209934" lon="-7.083617">
        <ele>167.054</ele>
        <time>2019-06-22T14:53:03Z</time>
      </trkpt>
      <trkpt lat="41.209854" lon="-7.083381">
        <ele>167.292</ele>
        <time>2019-06-22T14:53:04Z</time>
      </trkpt>
      <trkpt lat="41.209772" lon="-7.083133">
        <ele>169.241</ele>
        <time>2019-06-22T14:53:05Z</time>
      </trkpt>
      <trkpt lat="41.209705" lon="-7.082889">
        <ele>171.736</ele>
        <time>2019-06-22T14:53:06Z</time>
      </trkpt>
      <trkpt lat="41.209622" lon="-7.082660">
        <ele>172.149</ele>
        <time>2019-06-22T14:53:07Z</time>
      </trkpt>
      <trkpt lat="41.209545" lon="-7.082448">
        <ele>172.293</ele>
        <time>2019-06-22T14:53:08Z</time>
      </trkpt>
      <trkpt lat="41.209436" lon="-7.082249">
        <ele>172.265</ele>
        <time>2019-06-22T14:53:09Z</time>
      </trkpt>
      <trkpt lat="41.209321" lon="-7.082049">
        <ele>172.221</ele>
        <time>2019-06-22T14:53:10Z</time>
      </trkpt>
      <trkpt lat="41.209183" lon="-7.081918">
        <ele>172.108</ele>
        <time>2019-06-22T14:53:11Z</time>
      </trkpt>
      <trkpt lat="41.209024" lon="-7.081794">
        <ele>171.072</ele>
        <time>2019-06-22T14:53:12Z</time>
      </trkpt>
      <trkpt lat="41.208864" lon="-7.081713">
        <ele>169.146</ele>
        <time>2019-06-22T14:53:13Z</time>
      </trkpt>
      <trkpt lat="41.208691" lon="-7.081663">
        <ele>168.378</ele>
        <time>2019-06-22T14:53:14Z</time>
      </trkpt>
      <trkpt lat="41.208502" lon="-7.081605">
        <ele>166.980</ele>
        <time>2019-06-22T14:53:15Z</time>
      </trkpt>
      <trkpt lat="41.208294" lon="-7.081574">
        <ele>166.738</ele>
        <time>2019-06-22T14:53:16Z</time>
      </trkpt>
      <trkpt lat="41.208085" lon="-7.081540">
        <ele>166.747</ele>
        <time>2019-06-22T14:53:17Z</time>
      </trkpt>
      <trkpt lat="41.207877" lon="-7.081501">
        <ele>167.182</ele>
        <time>2019-06-22T14:53:18Z</time>
      </trkpt>
      <trkpt lat="41.207667" lon="-7.081454">
        <ele>167.195</ele>
        <time>2019-06-22T14:53:19Z</time>
      </trkpt>
      <trkpt lat="41.207452" lon="-7.081416">
        <ele>165.724</ele>
        <time>2019-06-22T14:53:20Z</time>
      </trkpt>
      <trkpt lat="41.207235" lon="-7.081368">
        <ele>164.104</ele>
        <time>2019-06-22T14:53:21Z</time>
      </trkpt>
      <trkpt lat="41.207007" lon="-7.081333">
        <ele>164.114</ele>
        <time>2019-06-22T14:53:22Z</time>
      </trkpt>
      <trkpt lat="41.206793" lon="-7.081310">
        <ele>164.408</ele>
        <time>2019-06-22T14:53:23Z</time>
      </trkpt>
      <trkpt lat="41.206567" lon="-7.081291">
        <ele>164.475</ele>
        <time>2019-06-22T14:53:24Z</time>
      </trkpt>
      <trkpt lat="41.206339" lon="-7.081277">
        <ele>165.329</ele>
        <time>2019-06-22T14:53:25Z</time>
      </trkpt>
      <trkpt lat="41.206102" lon="-7.081280">
        <ele>165.311</ele>
        <time>2019-06-22T14:53:26Z</time>
      </trkpt>
      <trkpt lat="41.205871" lon="-7.081282">
        <ele>164.823</ele>
        <time>2019-06-22T14:53:27Z</time>
      </trkpt>
      <trkpt lat="41.205645" lon="-7.081308">
        <ele>161.531</ele>
        <time>2019-06-22T14:53:28Z</time>
      </trkpt>
      <trkpt lat="41.205416" lon="-7.081335">
        <ele>158.750</ele>
        <time>2019-06-22T14:53:29Z</time>
      </trkpt>
      <trkpt lat="41.205185" lon="-7.081371">
        <ele>158.075</ele>
        <time>2019-06-22T14:53:30Z</time>
      </trkpt>
      <trkpt lat="41.204949" lon="-7.081415">
        <ele>156.138</ele>
        <time>2019-06-22T14:53:31Z</time>
      </trkpt>
      <trkpt lat="41.204701" lon="-7.081466">
        <ele>154.819</ele>
        <time>2019-06-22T14:53:32Z</time>
      </trkpt>
      <trkpt lat="41.204472" lon="-7.081530">
        <ele>154.809</ele>
        <time>2019-06-22T14:53:33Z</time>
      </trkpt>
      <trkpt lat="41.204256" lon="-7.081598">
        <ele>154.819</ele>
        <time>2019-06-22T14:53:34Z</time>
      </trkpt>
      <trkpt lat="41.204058" lon="-7.081690">
        <ele>155.008</ele>
        <time>2019-06-22T14:53:35Z</time>
      </trkpt>
      <trkpt lat="41.203856" lon="-7.081800">
        <ele>155.084</ele>
        <time>2019-06-22T14:53:36Z</time>
      </trkpt>
      <trkpt lat="41.203673" lon="-7.081932">
        <ele>157.328</ele>
        <time>2019-06-22T14:53:37Z</time>
      </trkpt>
      <trkpt lat="41.203486" lon="-7.082085">
        <ele>157.830</ele>
        <time>2019-06-22T14:53:38Z</time>
      </trkpt>
      <trkpt lat="41.203314" lon="-7.082275">
        <ele>158.332</ele>
        <time>2019-06-22T14:53:39Z</time>
      </trkpt>
      <trkpt lat="41.203146" lon="-7.082460">
        <ele>158.540</ele>
        <time>2019-06-22T14:53:40Z</time>
      </trkpt>
      <trkpt lat="41.202990" lon="-7.082669">
        <ele>159.469</ele>
        <time>2019-06-22T14:53:41Z</time>
      </trkpt>
      <trkpt lat="41.202870" lon="-7.082931">
        <ele>159.554</ele>
        <time>2019-06-22T14:53:42Z</time>
      </trkpt>
      <trkpt lat="41.202747" lon="-7.083196">
        <ele>159.547</ele>
        <time>2019-06-22T14:53:43Z</time>
      </trkpt>
      <trkpt lat="41.202639" lon="-7.083465">
        <ele>160.351</ele>
        <time>2019-06-22T14:53:44Z</time>
      </trkpt>
      <trkpt lat="41.202538" lon="-7.083738">
        <ele>162.101</ele>
        <time>2019-06-22T14:53:45Z</time>
      </trkpt>
      <trkpt lat="41.202435" lon="-7.084017">
        <ele>162.111</ele>
        <time>2019-06-22T14:53:46Z</time>
      </trkpt>
      <trkpt lat="41.202370" lon="-7.084270">
        <ele>162.108</ele>
        <time>2019-06-22T14:53:47Z</time>
      </trkpt>
      <trkpt lat="41.202271" lon="-7.084535">
        <ele>161.328</ele>
        <time>2019-06-22T14:53:48Z</time>
      </trkpt>
      <trkpt lat="41.202176" lon="-7.084794">
        <ele>161.312</ele>
        <time>2019-06-22T14:53:49Z</time>
      </trkpt>
      <trkpt lat="41.202084" lon="-7.085049">
        <ele>162.214</ele>
        <time>2019-06-22T14:53:50Z</time>
      </trkpt>
      <trkpt lat="41.201991" lon="-7.085305">
        <ele>162.446</ele>
        <time>2019-06-22T14:53:51Z</time>
      </trkpt>
      <trkpt lat="41.201913" lon="-7.085544">
        <ele>162.624</ele>
        <time>2019-06-22T14:53:52Z</time>
      </trkpt>
      <trkpt lat="41.201848" lon="-7.085748">
        <ele>163.453</ele>
        <time>2019-06-22T14:53:53Z</time>
      </trkpt>
      <trkpt lat="41.201769" lon="-7.085946">
        <ele>163.458</ele>
        <time>2019-06-22T14:53:54Z</time>
      </trkpt>
      <trkpt lat="41.201655" lon="-7.086122">
        <ele>162.721</ele>
        <time>2019-06-22T14:53:55Z</time>
      </trkpt>
      <trkpt lat="41.201536" lon="-7.086316">
        <ele>160.862</ele>
        <time>2019-06-22T14:53:56Z</time>
      </trkpt>
      <trkpt lat="41.201418" lon="-7.086520">
        <ele>158.283</ele>
        <time>2019-06-22T14:53:57Z</time>
      </trkpt>
      <trkpt lat="41.201308" lon="-7.086738">
        <ele>156.711</ele>
        <time>2019-06-22T14:53:58Z</time>
      </trkpt>
      <trkpt lat="41.201178" lon="-7.086983">
        <ele>156.708</ele>
        <time>2019-06-22T14:53:59Z</time>
      </trkpt>
      <trkpt lat="41.201098" lon="-7.087214">
        <ele>156.719</ele>
        <time>2019-06-22T14:54:00Z</time>
      </trkpt>
      <trkpt lat="41.201030" lon="-7.087448">
        <ele>157.463</ele>
        <time>2019-06-22T14:54:01Z</time>
      </trkpt>
      <trkpt lat="41.200961" lon="-7.087682">
        <ele>158.195</ele>
        <time>2019-06-22T14:54:02Z</time>
      </trkpt>
      <trkpt lat="41.200998" lon="-7.087977">
        <ele>158.497</ele>
        <time>2019-06-22T14:54:03Z</time>
      </trkpt>
      <trkpt lat="41.201010" lon="-7.088236">
        <ele>158.455</ele>
        <time>2019-06-22T14:54:04Z</time>
      </trkpt>
      <trkpt lat="41.201082" lon="-7.088504">
        <ele>157.314</ele>
        <time>2019-06-22T14:54:05Z</time>
      </trkpt>
      <trkpt lat="41.201120" lon="-7.088768">
        <ele>156.859</ele>
        <time>2019-06-22T14:54:06Z</time>
      </trkpt>
      <trkpt lat="41.201167" lon="-7.089040">
        <ele>156.892</ele>
        <time>2019-06-22T14:54:07Z</time>
      </trkpt>
      <trkpt lat="41.201217" lon="-7.089308">
        <ele>158.383</ele>
        <time>2019-06-22T14:54:08Z</time>
      </trkpt>
      <trkpt lat="41.201259" lon="-7.089567">
        <ele>158.625</ele>
        <time>2019-06-22T14:54:09Z</time>
      </trkpt>
      <trkpt lat="41.201304" lon="-7.089823">
        <ele>159.917</ele>
        <time>2019-06-22T14:54:10Z</time>
      </trkpt>
      <trkpt lat="41.201310" lon="-7.090101">
        <ele>160.508</ele>
        <time>2019-06-22T14:54:11Z</time>
      </trkpt>
      <trkpt lat="41.201319" lon="-7.090370">
        <ele>161.791</ele>
        <time>2019-06-22T14:54:12Z</time>
      </trkpt>
      <trkpt lat="41.201305" lon="-7.090650">
        <ele>161.745</ele>
        <time>2019-06-22T14:54:13Z</time>
      </trkpt>
      <trkpt lat="41.201288" lon="-7.090908">
        <ele>160.547</ele>
        <time>2019-06-22T14:54:14Z</time>
      </trkpt>
      <trkpt lat="41.201238" lon="-7.091168">
        <ele>159.619</ele>
        <time>2019-06-22T14:54:15Z</time>
      </trkpt>
      <trkpt lat="41.201168" lon="-7.091405">
        <ele>158.147</ele>
        <time>2019-06-22T14:54:16Z</time>
      </trkpt>
      <trkpt lat="41.201105" lon="-7.091636">
        <ele>156.266</ele>
        <time>2019-06-22T14:54:17Z</time>
      </trkpt>
      <trkpt lat="41.201007" lon="-7.091871">
        <ele>155.261</ele>
        <time>2019-06-22T14:54:18Z</time>
      </trkpt>
      <trkpt lat="41.200906" lon="-7.092110">
        <ele>155.194</ele>
        <time>2019-06-22T14:54:19Z</time>
      </trkpt>
      <trkpt lat="41.200799" lon="-7.092339">
        <ele>155.156</ele>
        <time>2019-06-22T14:54:20Z</time>
      </trkpt>
      <trkpt lat="41.200715" lon="-7.092573">
        <ele>156.559</ele>
        <time>2019-06-22T14:54:21Z</time>
      </trkpt>
      <trkpt lat="41.200632" lon="-7.092822">
        <ele>157.714</ele>
        <time>2019-06-22T14:54:22Z</time>
      </trkpt>
      <trkpt lat="41.200526" lon="-7.093069">
        <ele>159.008</ele>
        <time>2019-06-22T14:54:23Z</time>
      </trkpt>
      <trkpt lat="41.200423" lon="-7.093307">
        <ele>159.838</ele>
        <time>2019-06-22T14:54:24Z</time>
      </trkpt>
      <trkpt lat="41.200334" lon="-7.093537">
        <ele>159.832</ele>
        <time>2019-06-22T14:54:25Z</time>
      </trkpt>
      <trkpt lat="41.200233" lon="-7.093758">
        <ele>159.424</ele>
        <time>2019-06-22T14:54:26Z</time>
      </trkpt>
      <trkpt lat="41.200126" lon="-7.093989">
        <ele>158.556</ele>
        <time>2019-06-22T14:54:27Z</time>
      </trkpt>
      <trkpt lat="41.200015" lon="-7.094210">
        <ele>157.964</ele>
        <time>2019-06-22T14:54:28Z</time>
      </trkpt>
      <trkpt lat="41.199878" lon="-7.094406">
        <ele>157.123</ele>
        <time>2019-06-22T14:54:29Z</time>
      </trkpt>
      <trkpt lat="41.199749" lon="-7.094599">
        <ele>156.888</ele>
        <time>2019-06-22T14:54:30Z</time>
      </trkpt>
      <trkpt lat="41.199603" lon="-7.094760">
        <ele>156.431</ele>
        <time>2019-06-22T14:54:31Z</time>
      </trkpt>
      <trkpt lat="41.199433" lon="-7.094933">
        <ele>156.025</ele>
        <time>2019-06-22T14:54:32Z</time>
      </trkpt>
      <trkpt lat="41.199260" lon="-7.095063">
        <ele>155.326</ele>
        <time>2019-06-22T14:54:33Z</time>
      </trkpt>
      <trkpt lat="41.199074" lon="-7.095204">
        <ele>154.008</ele>
        <time>2019-06-22T14:54:34Z</time>
      </trkpt>
      <trkpt lat="41.198878" lon="-7.095319">
        <ele>152.708</ele>
        <time>2019-06-22T14:54:35Z</time>
      </trkpt>
      <trkpt lat="41.198685" lon="-7.095409">
        <ele>151.175</ele>
        <time>2019-06-22T14:54:36Z</time>
      </trkpt>
      <trkpt lat="41.198491" lon="-7.095500">
        <ele>149.459</ele>
        <time>2019-06-22T14:54:37Z</time>
      </trkpt>
      <trkpt lat="41.198298" lon="-7.095591">
        <ele>148.181</ele>
        <time>2019-06-22T14:54:38Z</time>
      </trkpt>
      <trkpt lat="41.198091" lon="-7.095687">
        <ele>147.623</ele>
        <time>2019-06-22T14:54:39Z</time>
      </trkpt>
      <trkpt lat="41.197901" lon="-7.095756">
        <ele>147.431</ele>
        <time>2019-06-22T14:54:40Z</time>
      </trkpt>
      <trkpt lat="41.197720" lon="-7.095834">
        <ele>146.850</ele>
        <time>2019-06-22T14:54:41Z</time>
      </trkpt>
      <trkpt lat="41.197536" lon="-7.095908">
        <ele>146.795</ele>
        <time>2019-06-22T14:54:42Z</time>
      </trkpt>
      <trkpt lat="41.197342" lon="-7.095991">
        <ele>146.728</ele>
        <time>2019-06-22T14:54:43Z</time>
      </trkpt>
      <trkpt lat="41.197141" lon="-7.096079">
        <ele>145.655</ele>
        <time>2019-06-22T14:54:44Z</time>
      </trkpt>
      <trkpt lat="41.196936" lon="-7.096178">
        <ele>144.907</ele>
        <time>2019-06-22T14:54:45Z</time>
      </trkpt>
      <trkpt lat="41.196730" lon="-7.096281">
        <ele>144.517</ele>
        <time>2019-06-22T14:54:46Z</time>
      </trkpt>
      <trkpt lat="41.196528" lon="-7.096380">
        <ele>144.508</ele>
        <time>2019-06-22T14:54:47Z</time>
      </trkpt>
      <trkpt lat="41.196304" lon="-7.096477">
        <ele>144.378</ele>
        <time>2019-06-22T14:54:48Z</time>
      </trkpt>
      <trkpt lat="41.196096" lon="-7.096549">
        <ele>144.362</ele>
        <time>2019-06-22T14:54:49Z</time>
      </trkpt>
      <trkpt lat="41.195869" lon="-7.096674">
        <ele>144.394</ele>
        <time>2019-06-22T14:54:50Z</time>
      </trkpt>
      <trkpt lat="41.195639" lon="-7.096770">
        <ele>144.346</ele>
        <time>2019-06-22T14:54:51Z</time>
      </trkpt>
      <trkpt lat="41.195409" lon="-7.096877">
        <ele>143.844</ele>
        <time>2019-06-22T14:54:52Z</time>
      </trkpt>
      <trkpt lat="41.195204" lon="-7.096968">
        <ele>143.433</ele>
        <time>2019-06-22T14:54:53Z</time>
      </trkpt>
      <trkpt lat="41.194976" lon="-7.097066">
        <ele>142.948</ele>
        <time>2019-06-22T14:54:54Z</time>
      </trkpt>
      <trkpt lat="41.194744" lon="-7.097171">
        <ele>142.981</ele>
        <time>2019-06-22T14:54:55Z</time>
      </trkpt>
      <trkpt lat="41.194503" lon="-7.097265">
        <ele>143.351</ele>
        <time>2019-06-22T14:54:56Z</time>
      </trkpt>
      <trkpt lat="41.194270" lon="-7.097375">
        <ele>143.301</ele>
        <time>2019-06-22T14:54:57Z</time>
      </trkpt>
      <trkpt lat="41.194023" lon="-7.097485">
        <ele>141.911</ele>
        <time>2019-06-22T14:54:58Z</time>
      </trkpt>
      <trkpt lat="41.193786" lon="-7.097597">
        <ele>141.408</ele>
        <time>2019-06-22T14:54:59Z</time>
      </trkpt>
      <trkpt lat="41.193546" lon="-7.097709">
        <ele>140.128</ele>
        <time>2019-06-22T14:55:00Z</time>
      </trkpt>
      <trkpt lat="41.193342" lon="-7.097809">
        <ele>138.352</ele>
        <time>2019-06-22T14:55:01Z</time>
      </trkpt>
      <trkpt lat="41.193140" lon="-7.097914">
        <ele>138.394</ele>
        <time>2019-06-22T14:55:02Z</time>
      </trkpt>
      <trkpt lat="41.192922" lon="-7.098007">
        <ele>138.876</ele>
        <time>2019-06-22T14:55:03Z</time>
      </trkpt>
      <trkpt lat="41.192682" lon="-7.098137">
        <ele>138.874</ele>
        <time>2019-06-22T14:55:04Z</time>
      </trkpt>
      <trkpt lat="41.192446" lon="-7.098273">
        <ele>138.843</ele>
        <time>2019-06-22T14:55:05Z</time>
      </trkpt>
      <trkpt lat="41.192208" lon="-7.098423">
        <ele>139.018</ele>
        <time>2019-06-22T14:55:06Z</time>
      </trkpt>
      <trkpt lat="41.191964" lon="-7.098555">
        <ele>139.071</ele>
        <time>2019-06-22T14:55:07Z</time>
      </trkpt>
      <trkpt lat="41.191719" lon="-7.098691">
        <ele>138.819</ele>
        <time>2019-06-22T14:55:08Z</time>
      </trkpt>
      <trkpt lat="41.191490" lon="-7.098824">
        <ele>138.809</ele>
        <time>2019-06-22T14:55:09Z</time>
      </trkpt>
      <trkpt lat="41.191261" lon="-7.098951">
        <ele>138.819</ele>
        <time>2019-06-22T14:55:10Z</time>
      </trkpt>
      <trkpt lat="41.191028" lon="-7.099100">
        <ele>138.708</ele>
        <time>2019-06-22T14:55:11Z</time>
      </trkpt>
      <trkpt lat="41.190785" lon="-7.099224">
        <ele>137.234</ele>
        <time>2019-06-22T14:55:12Z</time>
      </trkpt>
      <trkpt lat="41.190560" lon="-7.099330">
        <ele>136.688</ele>
        <time>2019-06-22T14:55:13Z</time>
      </trkpt>
      <trkpt lat="41.190333" lon="-7.099444">
        <ele>135.440</ele>
        <time>2019-06-22T14:55:14Z</time>
      </trkpt>
      <trkpt lat="41.190110" lon="-7.099547">
        <ele>134.142</ele>
        <time>2019-06-22T14:55:15Z</time>
      </trkpt>
      <trkpt lat="41.189871" lon="-7.099657">
        <ele>134.150</ele>
        <time>2019-06-22T14:55:16Z</time>
      </trkpt>
      <trkpt lat="41.189636" lon="-7.099748">
        <ele>135.239</ele>
        <time>2019-06-22T14:55:17Z</time>
      </trkpt>
      <trkpt lat="41.189397" lon="-7.099833">
        <ele>135.484</ele>
        <time>2019-06-22T14:55:18Z</time>
      </trkpt>
      <trkpt lat="41.189152" lon="-7.099910">
        <ele>136.547</ele>
        <time>2019-06-22T14:55:19Z</time>
      </trkpt>
      <trkpt lat="41.188905" lon="-7.099991">
        <ele>137.434</ele>
        <time>2019-06-22T14:55:20Z</time>
      </trkpt>
      <trkpt lat="41.188652" lon="-7.100071">
        <ele>138.155</ele>
        <time>2019-06-22T14:55:21Z</time>
      </trkpt>
      <trkpt lat="41.188408" lon="-7.100144">
        <ele>138.110</ele>
        <time>2019-06-22T14:55:22Z</time>
      </trkpt>
      <trkpt lat="41.188163" lon="-7.100227">
        <ele>137.808</ele>
        <time>2019-06-22T14:55:23Z</time>
      </trkpt>
      <trkpt lat="41.187914" lon="-7.100303">
        <ele>137.896</ele>
        <time>2019-06-22T14:55:24Z</time>
      </trkpt>
      <trkpt lat="41.187666" lon="-7.100389">
        <ele>137.580</ele>
        <time>2019-06-22T14:55:25Z</time>
      </trkpt>
      <trkpt lat="41.187416" lon="-7.100468">
        <ele>136.832</ele>
        <time>2019-06-22T14:55:26Z</time>
      </trkpt>
      <trkpt lat="41.187168" lon="-7.100551">
        <ele>136.144</ele>
        <time>2019-06-22T14:55:27Z</time>
      </trkpt>
      <trkpt lat="41.186924" lon="-7.100643">
        <ele>135.952</ele>
        <time>2019-06-22T14:55:28Z</time>
      </trkpt>
      <trkpt lat="41.186679" lon="-7.100734">
        <ele>135.881</ele>
        <time>2019-06-22T14:55:29Z</time>
      </trkpt>
      <trkpt lat="41.186433" lon="-7.100837">
        <ele>135.296</ele>
        <time>2019-06-22T14:55:30Z</time>
      </trkpt>
      <trkpt lat="41.186194" lon="-7.100959">
        <ele>135.229</ele>
        <time>2019-06-22T14:55:31Z</time>
      </trkpt>
      <trkpt lat="41.185950" lon="-7.101070">
        <ele>135.346</ele>
        <time>2019-06-22T14:55:32Z</time>
      </trkpt>
      <trkpt lat="41.185704" lon="-7.101182">
        <ele>135.388</ele>
        <time>2019-06-22T14:55:33Z</time>
      </trkpt>
      <trkpt lat="41.185465" lon="-7.101310">
        <ele>135.316</ele>
        <time>2019-06-22T14:55:34Z</time>
      </trkpt>
      <trkpt lat="41.185216" lon="-7.101437">
        <ele>135.108</ele>
        <time>2019-06-22T14:55:35Z</time>
      </trkpt>
      <trkpt lat="41.184981" lon="-7.101566">
        <ele>135.187</ele>
        <time>2019-06-22T14:55:36Z</time>
      </trkpt>
      <trkpt lat="41.184729" lon="-7.101695">
        <ele>136.381</ele>
        <time>2019-06-22T14:55:37Z</time>
      </trkpt>
      <trkpt lat="41.184492" lon="-7.101821">
        <ele>136.613</ele>
        <time>2019-06-22T14:55:38Z</time>
      </trkpt>
      <trkpt lat="41.184257" lon="-7.101945">
        <ele>137.635</ele>
        <time>2019-06-22T14:55:39Z</time>
      </trkpt>
      <trkpt lat="41.184018" lon="-7.102069">
        <ele>137.923</ele>
        <time>2019-06-22T14:55:40Z</time>
      </trkpt>
      <trkpt lat="41.183779" lon="-7.102206">
        <ele>137.942</ele>
        <time>2019-06-22T14:55:41Z</time>
      </trkpt>
      <trkpt lat="41.183558" lon="-7.102306">
        <ele>136.787</ele>
        <time>2019-06-22T14:55:42Z</time>
      </trkpt>
      <trkpt lat="41.183331" lon="-7.102432">
        <ele>135.980</ele>
        <time>2019-06-22T14:55:43Z</time>
      </trkpt>
      <trkpt lat="41.183109" lon="-7.102564">
        <ele>134.367</ele>
        <time>2019-06-22T14:55:44Z</time>
      </trkpt>
      <trkpt lat="41.182891" lon="-7.102669">
        <ele>134.181</ele>
        <time>2019-06-22T14:55:45Z</time>
      </trkpt>
      <trkpt lat="41.182655" lon="-7.102782">
        <ele>134.119</ele>
        <time>2019-06-22T14:55:46Z</time>
      </trkpt>
      <trkpt lat="41.182424" lon="-7.102871">
        <ele>135.408</ele>
        <time>2019-06-22T14:55:47Z</time>
      </trkpt>
      <trkpt lat="41.182190" lon="-7.102960">
        <ele>135.589</ele>
        <time>2019-06-22T14:55:48Z</time>
      </trkpt>
      <trkpt lat="41.181958" lon="-7.103035">
        <ele>135.413</ele>
        <time>2019-06-22T14:55:49Z</time>
      </trkpt>
      <trkpt lat="41.181717" lon="-7.103112">
        <ele>135.275</ele>
        <time>2019-06-22T14:55:50Z</time>
      </trkpt>
      <trkpt lat="41.181481" lon="-7.103197">
        <ele>134.537</ele>
        <time>2019-06-22T14:55:51Z</time>
      </trkpt>
      <trkpt lat="41.181242" lon="-7.103280">
        <ele>134.215</ele>
        <time>2019-06-22T14:55:52Z</time>
      </trkpt>
      <trkpt lat="41.181003" lon="-7.103356">
        <ele>134.254</ele>
        <time>2019-06-22T14:55:53Z</time>
      </trkpt>
      <trkpt lat="41.180756" lon="-7.103447">
        <ele>134.329</ele>
        <time>2019-06-22T14:55:54Z</time>
      </trkpt>
      <trkpt lat="41.180489" lon="-7.103537">
        <ele>134.352</ele>
        <time>2019-06-22T14:55:55Z</time>
      </trkpt>
      <trkpt lat="41.180253" lon="-7.103629">
        <ele>132.783</ele>
        <time>2019-06-22T14:55:56Z</time>
      </trkpt>
      <trkpt lat="41.180014" lon="-7.103751">
        <ele>132.725</ele>
        <time>2019-06-22T14:55:57Z</time>
      </trkpt>
      <trkpt lat="41.179786" lon="-7.103862">
        <ele>132.717</ele>
        <time>2019-06-22T14:55:58Z</time>
      </trkpt>
      <trkpt lat="41.179569" lon="-7.103994">
        <ele>130.808</ele>
        <time>2019-06-22T14:55:59Z</time>
      </trkpt>
      <trkpt lat="41.179353" lon="-7.104119">
        <ele>130.851</ele>
        <time>2019-06-22T14:56:00Z</time>
      </trkpt>
      <trkpt lat="41.179164" lon="-7.104256">
        <ele>130.935</ele>
        <time>2019-06-22T14:56:01Z</time>
      </trkpt>
      <trkpt lat="41.178949" lon="-7.104396">
        <ele>133.657</ele>
        <time>2019-06-22T14:56:02Z</time>
      </trkpt>
      <trkpt lat="41.178732" lon="-7.104504">
        <ele>135.199</ele>
        <time>2019-06-22T14:56:03Z</time>
      </trkpt>
      <trkpt lat="41.178502" lon="-7.104645">
        <ele>137.587</ele>
        <time>2019-06-22T14:56:04Z</time>
      </trkpt>
      <trkpt lat="41.178253" lon="-7.104805">
        <ele>139.216</ele>
        <time>2019-06-22T14:56:05Z</time>
      </trkpt>
      <trkpt lat="41.178058" lon="-7.104915">
        <ele>139.881</ele>
        <time>2019-06-22T14:56:06Z</time>
      </trkpt>
      <trkpt lat="41.177845" lon="-7.105061">
        <ele>139.824</ele>
        <time>2019-06-22T14:56:07Z</time>
      </trkpt>
      <trkpt lat="41.177630" lon="-7.105206">
        <ele>140.015</ele>
        <time>2019-06-22T14:56:08Z</time>
      </trkpt>
      <trkpt lat="41.177409" lon="-7.105343">
        <ele>140.465</ele>
        <time>2019-06-22T14:56:09Z</time>
      </trkpt>
      <trkpt lat="41.177196" lon="-7.105491">
        <ele>140.611</ele>
        <time>2019-06-22T14:56:10Z</time>
      </trkpt>
      <trkpt lat="41.176971" lon="-7.105653">
        <ele>140.608</ele>
        <time>2019-06-22T14:56:11Z</time>
      </trkpt>
      <trkpt lat="41.176746" lon="-7.105803">
        <ele>140.164</ele>
        <time>2019-06-22T14:56:12Z</time>
      </trkpt>
      <trkpt lat="41.176520" lon="-7.105961">
        <ele>139.888</ele>
        <time>2019-06-22T14:56:13Z</time>
      </trkpt>
      <trkpt lat="41.176320" lon="-7.106101">
        <ele>139.240</ele>
        <time>2019-06-22T14:56:14Z</time>
      </trkpt>
      <trkpt lat="41.176096" lon="-7.106252">
        <ele>139.222</ele>
        <time>2019-06-22T14:56:15Z</time>
      </trkpt>
      <trkpt lat="41.175891" lon="-7.106370">
        <ele>139.260</ele>
        <time>2019-06-22T14:56:16Z</time>
      </trkpt>
      <trkpt lat="41.175656" lon="-7.106527">
        <ele>139.329</ele>
        <time>2019-06-22T14:56:17Z</time>
      </trkpt>
      <trkpt lat="41.175426" lon="-7.106693">
        <ele>139.344</ele>
        <time>2019-06-22T14:56:18Z</time>
      </trkpt>
      <trkpt lat="41.175194" lon="-7.106852">
        <ele>139.897</ele>
        <time>2019-06-22T14:56:19Z</time>
      </trkpt>
      <trkpt lat="41.174958" lon="-7.106993">
        <ele>140.073</ele>
        <time>2019-06-22T14:56:20Z</time>
      </trkpt>
      <trkpt lat="41.174721" lon="-7.107138">
        <ele>140.685</ele>
        <time>2019-06-22T14:56:21Z</time>
      </trkpt>
      <trkpt lat="41.174470" lon="-7.107274">
        <ele>141.313</ele>
        <time>2019-06-22T14:56:22Z</time>
      </trkpt>
      <trkpt lat="41.174220" lon="-7.107388">
        <ele>141.808</ele>
        <time>2019-06-22T14:56:23Z</time>
      </trkpt>
      <trkpt lat="41.173980" lon="-7.107525">
        <ele>141.850</ele>
        <time>2019-06-22T14:56:24Z</time>
      </trkpt>
      <trkpt lat="41.173740" lon="-7.107649">
        <ele>141.894</ele>
        <time>2019-06-22T14:56:25Z</time>
      </trkpt>
      <trkpt lat="41.173502" lon="-7.107774">
        <ele>141.756</ele>
        <time>2019-06-22T14:56:26Z</time>
      </trkpt>
      <trkpt lat="41.173260" lon="-7.107912">
        <ele>141.758</ele>
        <time>2019-06-22T14:56:27Z</time>
      </trkpt>
      <trkpt lat="41.173021" lon="-7.108034">
        <ele>142.266</ele>
        <time>2019-06-22T14:56:28Z</time>
      </trkpt>
      <trkpt lat="41.172790" lon="-7.108162">
        <ele>142.855</ele>
        <time>2019-06-22T14:56:29Z</time>
      </trkpt>
      <trkpt lat="41.172558" lon="-7.108287">
        <ele>143.080</ele>
        <time>2019-06-22T14:56:30Z</time>
      </trkpt>
      <trkpt lat="41.172334" lon="-7.108412">
        <ele>144.353</ele>
        <time>2019-06-22T14:56:31Z</time>
      </trkpt>
      <trkpt lat="41.172114" lon="-7.108531">
        <ele>145.044</ele>
        <time>2019-06-22T14:56:32Z</time>
      </trkpt>
      <trkpt lat="41.171885" lon="-7.108654">
        <ele>145.005</ele>
        <time>2019-06-22T14:56:33Z</time>
      </trkpt>
      <trkpt lat="41.171659" lon="-7.108765">
        <ele>145.015</ele>
        <time>2019-06-22T14:56:34Z</time>
      </trkpt>
      <trkpt lat="41.171436" lon="-7.108898">
        <ele>145.008</ele>
        <time>2019-06-22T14:56:35Z</time>
      </trkpt>
      <trkpt lat="41.171209" lon="-7.109044">
        <ele>145.097</ele>
        <time>2019-06-22T14:56:36Z</time>
      </trkpt>
      <trkpt lat="41.170986" lon="-7.109179">
        <ele>145.131</ele>
        <time>2019-06-22T14:56:37Z</time>
      </trkpt>
      <trkpt lat="41.170766" lon="-7.109336">
        <ele>145.253</ele>
        <time>2019-06-22T14:56:38Z</time>
      </trkpt>
      <trkpt lat="41.170541" lon="-7.109498">
        <ele>145.515</ele>
        <time>2019-06-22T14:56:39Z</time>
      </trkpt>
      <trkpt lat="41.170329" lon="-7.109652">
        <ele>145.683</ele>
        <time>2019-06-22T14:56:40Z</time>
      </trkpt>
      <trkpt lat="41.170132" lon="-7.109790">
        <ele>145.612</ele>
        <time>2019-06-22T14:56:41Z</time>
      </trkpt>
      <trkpt lat="41.169914" lon="-7.109950">
        <ele>145.667</ele>
        <time>2019-06-22T14:56:42Z</time>
      </trkpt>
      <trkpt lat="41.169682" lon="-7.110100">
        <ele>146.070</ele>
        <time>2019-06-22T14:56:43Z</time>
      </trkpt>
      <trkpt lat="41.169460" lon="-7.110227">
        <ele>146.085</ele>
        <time>2019-06-22T14:56:44Z</time>
      </trkpt>
      <trkpt lat="41.169229" lon="-7.110374">
        <ele>145.489</ele>
        <time>2019-06-22T14:56:45Z</time>
      </trkpt>
      <trkpt lat="41.168994" lon="-7.110485">
        <ele>145.017</ele>
        <time>2019-06-22T14:56:46Z</time>
      </trkpt>
      <trkpt lat="41.168766" lon="-7.110585">
        <ele>144.308</ele>
        <time>2019-06-22T14:56:47Z</time>
      </trkpt>
      <trkpt lat="41.168522" lon="-7.110687">
        <ele>143.421</ele>
        <time>2019-06-22T14:56:48Z</time>
      </trkpt>
      <trkpt lat="41.168274" lon="-7.110763">
        <ele>142.875</ele>
        <time>2019-06-22T14:56:49Z</time>
      </trkpt>
      <trkpt lat="41.168029" lon="-7.110832">
        <ele>141.987</ele>
        <time>2019-06-22T14:56:50Z</time>
      </trkpt>
      <trkpt lat="41.167791" lon="-7.110891">
        <ele>140.539</ele>
        <time>2019-06-22T14:56:51Z</time>
      </trkpt>
      <trkpt lat="41.167552" lon="-7.110942">
        <ele>139.477</ele>
        <time>2019-06-22T14:56:52Z</time>
      </trkpt>
      <trkpt lat="41.167326" lon="-7.110998">
        <ele>137.376</ele>
        <time>2019-06-22T14:56:53Z</time>
      </trkpt>
      <trkpt lat="41.167098" lon="-7.111057">
        <ele>137.321</ele>
        <time>2019-06-22T14:56:54Z</time>
      </trkpt>
      <trkpt lat="41.166887" lon="-7.111108">
        <ele>137.084</ele>
        <time>2019-06-22T14:56:55Z</time>
      </trkpt>
      <trkpt lat="41.166706" lon="-7.111135">
        <ele>137.017</ele>
        <time>2019-06-22T14:56:56Z</time>
      </trkpt>
      <trkpt lat="41.166526" lon="-7.111166">
        <ele>137.087</ele>
        <time>2019-06-22T14:56:57Z</time>
      </trkpt>
      <trkpt lat="41.166359" lon="-7.111199">
        <ele>136.915</ele>
        <time>2019-06-22T14:56:58Z</time>
      </trkpt>
      <trkpt lat="41.166217" lon="-7.111227">
        <ele>136.908</ele>
        <time>2019-06-22T14:56:59Z</time>
      </trkpt>
      <trkpt lat="41.166101" lon="-7.111260">
        <ele>136.854</ele>
        <time>2019-06-22T14:57:00Z</time>
      </trkpt>
      <trkpt lat="41.166001" lon="-7.111280">
        <ele>136.848</ele>
        <time>2019-06-22T14:57:01Z</time>
      </trkpt>
      <trkpt lat="41.165920" lon="-7.111293">
        <ele>137.990</ele>
        <time>2019-06-22T14:57:02Z</time>
      </trkpt>
      <trkpt lat="41.165841" lon="-7.111312">
        <ele>137.932</ele>
        <time>2019-06-22T14:57:03Z</time>
      </trkpt>
      <trkpt lat="41.165770" lon="-7.111322">
        <ele>139.470</ele>
        <time>2019-06-22T14:57:04Z</time>
      </trkpt>
      <trkpt lat="41.165717" lon="-7.111327">
        <ele>140.859</ele>
        <time>2019-06-22T14:57:05Z</time>
      </trkpt>
      <trkpt lat="41.165651" lon="-7.111339">
        <ele>142.154</ele>
        <time>2019-06-22T14:57:06Z</time>
      </trkpt>
      <trkpt lat="41.165569" lon="-7.111352">
        <ele>142.647</ele>
        <time>2019-06-22T14:57:07Z</time>
      </trkpt>
      <trkpt lat="41.165474" lon="-7.111375">
        <ele>143.296</ele>
        <time>2019-06-22T14:57:08Z</time>
      </trkpt>
      <trkpt lat="41.165366" lon="-7.111399">
        <ele>143.431</ele>
        <time>2019-06-22T14:57:09Z</time>
      </trkpt>
      <trkpt lat="41.165238" lon="-7.111402">
        <ele>143.624</ele>
        <time>2019-06-22T14:57:10Z</time>
      </trkpt>
      <trkpt lat="41.165105" lon="-7.111437">
        <ele>144.108</ele>
        <time>2019-06-22T14:57:11Z</time>
      </trkpt>
      <trkpt lat="41.164961" lon="-7.111465">
        <ele>144.152</ele>
        <time>2019-06-22T14:57:12Z</time>
      </trkpt>
      <trkpt lat="41.164815" lon="-7.111489">
        <ele>143.686</ele>
        <time>2019-06-22T14:57:13Z</time>
      </trkpt>
      <trkpt lat="41.164676" lon="-7.111512">
        <ele>143.478</ele>
        <time>2019-06-22T14:57:14Z</time>
      </trkpt>
      <trkpt lat="41.164546" lon="-7.111537">
        <ele>142.660</ele>
        <time>2019-06-22T14:57:15Z</time>
      </trkpt>
      <trkpt lat="41.164429" lon="-7.111557">
        <ele>141.038</ele>
        <time>2019-06-22T14:57:16Z</time>
      </trkpt>
      <trkpt lat="41.164331" lon="-7.111582">
        <ele>140.997</ele>
        <time>2019-06-22T14:57:17Z</time>
      </trkpt>
      <trkpt lat="41.164252" lon="-7.111606">
        <ele>140.752</ele>
        <time>2019-06-22T14:57:18Z</time>
      </trkpt>
      <trkpt lat="41.164197" lon="-7.111608">
        <ele>140.775</ele>
        <time>2019-06-22T14:57:19Z</time>
      </trkpt>
      <trkpt lat="41.164150" lon="-7.111615">
        <ele>144.168</ele>
        <time>2019-06-22T14:57:28Z</time>
      </trkpt>
      <trkpt lat="41.164070" lon="-7.111619">
        <ele>144.542</ele>
        <time>2019-06-22T14:58:57Z</time>
      </trkpt>
      <trkpt lat="41.163990" lon="-7.111637">
        <ele>144.326</ele>
        <time>2019-06-22T14:58:58Z</time>
      </trkpt>
      <trkpt lat="41.163898" lon="-7.111652">
        <ele>144.108</ele>
        <time>2019-06-22T14:58:59Z</time>
      </trkpt>
      <trkpt lat="41.163790" lon="-7.111669">
        <ele>143.729</ele>
        <time>2019-06-22T14:59:00Z</time>
      </trkpt>
      <trkpt lat="41.163682" lon="-7.111687">
        <ele>142.723</ele>
        <time>2019-06-22T14:59:01Z</time>
      </trkpt>
      <trkpt lat="41.163553" lon="-7.111707">
        <ele>142.095</ele>
        <time>2019-06-22T14:59:02Z</time>
      </trkpt>
      <trkpt lat="41.163416" lon="-7.111728">
        <ele>140.787</ele>
        <time>2019-06-22T14:59:03Z</time>
      </trkpt>
      <trkpt lat="41.163265" lon="-7.111761">
        <ele>140.265</ele>
        <time>2019-06-22T14:59:04Z</time>
      </trkpt>
      <trkpt lat="41.163108" lon="-7.111792">
        <ele>140.254</ele>
        <time>2019-06-22T14:59:05Z</time>
      </trkpt>
      <trkpt lat="41.162948" lon="-7.111824">
        <ele>140.539</ele>
        <time>2019-06-22T14:59:06Z</time>
      </trkpt>
      <trkpt lat="41.162772" lon="-7.111850">
        <ele>140.912</ele>
        <time>2019-06-22T14:59:07Z</time>
      </trkpt>
      <trkpt lat="41.162591" lon="-7.111885">
        <ele>141.613</ele>
        <time>2019-06-22T14:59:08Z</time>
      </trkpt>
      <trkpt lat="41.162411" lon="-7.111922">
        <ele>141.743</ele>
        <time>2019-06-22T14:59:09Z</time>
      </trkpt>
      <trkpt lat="41.162224" lon="-7.111957">
        <ele>141.707</ele>
        <time>2019-06-22T14:59:10Z</time>
      </trkpt>
      <trkpt lat="41.162017" lon="-7.111979">
        <ele>141.708</ele>
        <time>2019-06-22T14:59:11Z</time>
      </trkpt>
      <trkpt lat="41.161812" lon="-7.112002">
        <ele>141.414</ele>
        <time>2019-06-22T14:59:12Z</time>
      </trkpt>
      <trkpt lat="41.161592" lon="-7.112022">
        <ele>141.068</ele>
        <time>2019-06-22T14:59:13Z</time>
      </trkpt>
      <trkpt lat="41.161385" lon="-7.112037">
        <ele>140.940</ele>
        <time>2019-06-22T14:59:14Z</time>
      </trkpt>
      <trkpt lat="41.161170" lon="-7.112050">
        <ele>140.782</ele>
        <time>2019-06-22T14:59:15Z</time>
      </trkpt>
      <trkpt lat="41.160943" lon="-7.112071">
        <ele>140.730</ele>
        <time>2019-06-22T14:59:16Z</time>
      </trkpt>
      <trkpt lat="41.160712" lon="-7.112079">
        <ele>141.369</ele>
        <time>2019-06-22T14:59:17Z</time>
      </trkpt>
      <trkpt lat="41.160478" lon="-7.112090">
        <ele>142.234</ele>
        <time>2019-06-22T14:59:18Z</time>
      </trkpt>
      <trkpt lat="41.160243" lon="-7.112100">
        <ele>142.787</ele>
        <time>2019-06-22T14:59:19Z</time>
      </trkpt>
      <trkpt lat="41.159999" lon="-7.112100">
        <ele>142.791</ele>
        <time>2019-06-22T14:59:20Z</time>
      </trkpt>
      <trkpt lat="41.159753" lon="-7.112096">
        <ele>142.581</ele>
        <time>2019-06-22T14:59:21Z</time>
      </trkpt>
      <trkpt lat="41.159498" lon="-7.112103">
        <ele>142.219</ele>
        <time>2019-06-22T14:59:22Z</time>
      </trkpt>
      <trkpt lat="41.159250" lon="-7.112106">
        <ele>141.508</ele>
        <time>2019-06-22T14:59:23Z</time>
      </trkpt>
      <trkpt lat="41.159009" lon="-7.112123">
        <ele>140.722</ele>
        <time>2019-06-22T14:59:24Z</time>
      </trkpt>
      <trkpt lat="41.158773" lon="-7.112112">
        <ele>140.586</ele>
        <time>2019-06-22T14:59:25Z</time>
      </trkpt>
      <trkpt lat="41.158525" lon="-7.112125">
        <ele>139.588</ele>
        <time>2019-06-22T14:59:26Z</time>
      </trkpt>
      <trkpt lat="41.158267" lon="-7.112138">
        <ele>139.280</ele>
        <time>2019-06-22T14:59:27Z</time>
      </trkpt>
      <trkpt lat="41.158022" lon="-7.112150">
        <ele>138.128</ele>
        <time>2019-06-22T14:59:28Z</time>
      </trkpt>
      <trkpt lat="41.157781" lon="-7.112144">
        <ele>136.747</ele>
        <time>2019-06-22T14:59:29Z</time>
      </trkpt>
      <trkpt lat="41.157536" lon="-7.112147">
        <ele>136.012</ele>
        <time>2019-06-22T14:59:30Z</time>
      </trkpt>
      <trkpt lat="41.157284" lon="-7.112155">
        <ele>134.775</ele>
        <time>2019-06-22T14:59:31Z</time>
      </trkpt>
      <trkpt lat="41.157025" lon="-7.112165">
        <ele>134.722</ele>
        <time>2019-06-22T14:59:32Z</time>
      </trkpt>
      <trkpt lat="41.156774" lon="-7.112181">
        <ele>134.862</ele>
        <time>2019-06-22T14:59:33Z</time>
      </trkpt>
      <trkpt lat="41.156534" lon="-7.112188">
        <ele>135.408</ele>
        <time>2019-06-22T14:59:34Z</time>
      </trkpt>
      <trkpt lat="41.156278" lon="-7.112192">
        <ele>135.808</ele>
        <time>2019-06-22T14:59:35Z</time>
      </trkpt>
      <trkpt lat="41.156025" lon="-7.112195">
        <ele>137.815</ele>
        <time>2019-06-22T14:59:36Z</time>
      </trkpt>
      <trkpt lat="41.155767" lon="-7.112235">
        <ele>138.029</ele>
        <time>2019-06-22T14:59:37Z</time>
      </trkpt>
      <trkpt lat="41.155519" lon="-7.112262">
        <ele>139.171</ele>
        <time>2019-06-22T14:59:38Z</time>
      </trkpt>
      <trkpt lat="41.155275" lon="-7.112289">
        <ele>139.213</ele>
        <time>2019-06-22T14:59:39Z</time>
      </trkpt>
      <trkpt lat="41.155030" lon="-7.112327">
        <ele>139.841</ele>
        <time>2019-06-22T14:59:40Z</time>
      </trkpt>
      <trkpt lat="41.154810" lon="-7.112364">
        <ele>140.630</ele>
        <time>2019-06-22T14:59:41Z</time>
      </trkpt>
      <trkpt lat="41.154605" lon="-7.112399">
        <ele>141.325</ele>
        <time>2019-06-22T14:59:42Z</time>
      </trkpt>
      <trkpt lat="41.154414" lon="-7.112443">
        <ele>142.598</ele>
        <time>2019-06-22T14:59:43Z</time>
      </trkpt>
      <trkpt lat="41.154245" lon="-7.112485">
        <ele>143.364</ele>
        <time>2019-06-22T14:59:44Z</time>
      </trkpt>
      <trkpt lat="41.154097" lon="-7.112526">
        <ele>144.006</ele>
        <time>2019-06-22T14:59:45Z</time>
      </trkpt>
      <trkpt lat="41.153955" lon="-7.112566">
        <ele>144.616</ele>
        <time>2019-06-22T14:59:46Z</time>
      </trkpt>
      <trkpt lat="41.153826" lon="-7.112596">
        <ele>144.608</ele>
        <time>2019-06-22T14:59:47Z</time>
      </trkpt>
      <trkpt lat="41.153715" lon="-7.112613">
        <ele>144.589</ele>
        <time>2019-06-22T14:59:48Z</time>
      </trkpt>
      <trkpt lat="41.153652" lon="-7.112620">
        <ele>144.543</ele>
        <time>2019-06-22T14:59:49Z</time>
      </trkpt>
      <trkpt lat="41.153605" lon="-7.112658">
        <ele>144.575</ele>
        <time>2019-06-22T14:59:50Z</time>
      </trkpt>
      <trkpt lat="41.153560" lon="-7.112676">
        <ele>145.237</ele>
        <time>2019-06-22T14:59:51Z</time>
      </trkpt>
      <trkpt lat="41.153501" lon="-7.112681">
        <ele>145.545</ele>
        <time>2019-06-22T14:59:53Z</time>
      </trkpt>
      <trkpt lat="41.153542" lon="-7.112646">
        <ele>147.614</ele>
        <time>2019-06-22T15:00:35Z</time>
      </trkpt>
      <trkpt lat="41.153495" lon="-7.112668">
        <ele>147.369</ele>
        <time>2019-06-22T15:00:44Z</time>
      </trkpt>
      <trkpt lat="41.153428" lon="-7.112677">
        <ele>147.242</ele>
        <time>2019-06-22T15:00:46Z</time>
      </trkpt>
      <trkpt lat="41.153326" lon="-7.112716">
        <ele>147.127</ele>
        <time>2019-06-22T15:00:47Z</time>
      </trkpt>
      <trkpt lat="41.153239" lon="-7.112732">
        <ele>147.168</ele>
        <time>2019-06-22T15:00:48Z</time>
      </trkpt>
      <trkpt lat="41.153145" lon="-7.112747">
        <ele>147.114</ele>
        <time>2019-06-22T15:00:49Z</time>
      </trkpt>
      <trkpt lat="41.153039" lon="-7.112768">
        <ele>147.008</ele>
        <time>2019-06-22T15:00:50Z</time>
      </trkpt>
      <trkpt lat="41.152913" lon="-7.112797">
        <ele>146.975</ele>
        <time>2019-06-22T15:00:51Z</time>
      </trkpt>
      <trkpt lat="41.152782" lon="-7.112823">
        <ele>146.519</ele>
        <time>2019-06-22T15:00:52Z</time>
      </trkpt>
      <trkpt lat="41.152637" lon="-7.112849">
        <ele>146.021</ele>
        <time>2019-06-22T15:00:53Z</time>
      </trkpt>
      <trkpt lat="41.152483" lon="-7.112881">
        <ele>145.643</ele>
        <time>2019-06-22T15:00:54Z</time>
      </trkpt>
      <trkpt lat="41.152320" lon="-7.112929">
        <ele>145.661</ele>
        <time>2019-06-22T15:00:55Z</time>
      </trkpt>
      <trkpt lat="41.152158" lon="-7.112974">
        <ele>145.640</ele>
        <time>2019-06-22T15:00:56Z</time>
      </trkpt>
      <trkpt lat="41.151977" lon="-7.113022">
        <ele>146.035</ele>
        <time>2019-06-22T15:00:57Z</time>
      </trkpt>
      <trkpt lat="41.151792" lon="-7.113077">
        <ele>146.428</ele>
        <time>2019-06-22T15:00:58Z</time>
      </trkpt>
      <trkpt lat="41.151605" lon="-7.113123">
        <ele>146.429</ele>
        <time>2019-06-22T15:00:59Z</time>
      </trkpt>
      <trkpt lat="41.151411" lon="-7.113173">
        <ele>146.300</ele>
        <time>2019-06-22T15:01:00Z</time>
      </trkpt>
      <trkpt lat="41.151221" lon="-7.113233">
        <ele>145.820</ele>
        <time>2019-06-22T15:01:01Z</time>
      </trkpt>
      <trkpt lat="41.151018" lon="-7.113306">
        <ele>145.508</ele>
        <time>2019-06-22T15:01:02Z</time>
      </trkpt>
      <trkpt lat="41.150811" lon="-7.113362">
        <ele>144.935</ele>
        <time>2019-06-22T15:01:03Z</time>
      </trkpt>
      <trkpt lat="41.150588" lon="-7.113436">
        <ele>144.949</ele>
        <time>2019-06-22T15:01:04Z</time>
      </trkpt>
      <trkpt lat="41.150375" lon="-7.113504">
        <ele>144.891</ele>
        <time>2019-06-22T15:01:05Z</time>
      </trkpt>
      <trkpt lat="41.150163" lon="-7.113568">
        <ele>144.453</ele>
        <time>2019-06-22T15:01:06Z</time>
      </trkpt>
      <trkpt lat="41.149950" lon="-7.113639">
        <ele>144.331</ele>
        <time>2019-06-22T15:01:07Z</time>
      </trkpt>
      <trkpt lat="41.149740" lon="-7.113707">
        <ele>143.920</ele>
        <time>2019-06-22T15:01:08Z</time>
      </trkpt>
      <trkpt lat="41.149510" lon="-7.113827">
        <ele>143.545</ele>
        <time>2019-06-22T15:01:09Z</time>
      </trkpt>
      <trkpt lat="41.149298" lon="-7.113958">
        <ele>143.478</ele>
        <time>2019-06-22T15:01:10Z</time>
      </trkpt>
      <trkpt lat="41.149088" lon="-7.114108">
        <ele>143.426</ele>
        <time>2019-06-22T15:01:11Z</time>
      </trkpt>
      <trkpt lat="41.148875" lon="-7.114276">
        <ele>143.647</ele>
        <time>2019-06-22T15:01:12Z</time>
      </trkpt>
      <trkpt lat="41.148673" lon="-7.114447">
        <ele>143.611</ele>
        <time>2019-06-22T15:01:13Z</time>
      </trkpt>
      <trkpt lat="41.148469" lon="-7.114625">
        <ele>144.408</ele>
        <time>2019-06-22T15:01:14Z</time>
      </trkpt>
      <trkpt lat="41.148267" lon="-7.114810">
        <ele>144.495</ele>
        <time>2019-06-22T15:01:15Z</time>
      </trkpt>
      <trkpt lat="41.148069" lon="-7.115001">
        <ele>144.449</ele>
        <time>2019-06-22T15:01:16Z</time>
      </trkpt>
      <trkpt lat="41.147870" lon="-7.115181">
        <ele>145.491</ele>
        <time>2019-06-22T15:01:17Z</time>
      </trkpt>
      <trkpt lat="41.147666" lon="-7.115359">
        <ele>145.673</ele>
        <time>2019-06-22T15:01:18Z</time>
      </trkpt>
      <trkpt lat="41.147467" lon="-7.115528">
        <ele>145.861</ele>
        <time>2019-06-22T15:01:19Z</time>
      </trkpt>
      <trkpt lat="41.147267" lon="-7.115701">
        <ele>146.420</ele>
        <time>2019-06-22T15:01:20Z</time>
      </trkpt>
      <trkpt lat="41.147070" lon="-7.115878">
        <ele>147.025</ele>
        <time>2019-06-22T15:01:21Z</time>
      </trkpt>
      <trkpt lat="41.146875" lon="-7.116095">
        <ele>147.898</ele>
        <time>2019-06-22T15:01:22Z</time>
      </trkpt>
      <trkpt lat="41.146691" lon="-7.116318">
        <ele>147.879</ele>
        <time>2019-06-22T15:01:23Z</time>
      </trkpt>
      <trkpt lat="41.146513" lon="-7.116530">
        <ele>145.805</ele>
        <time>2019-06-22T15:01:24Z</time>
      </trkpt>
      <trkpt lat="41.146359" lon="-7.116799">
        <ele>143.225</ele>
        <time>2019-06-22T15:01:25Z</time>
      </trkpt>
      <trkpt lat="41.146217" lon="-7.117094">
        <ele>142.508</ele>
        <time>2019-06-22T15:01:26Z</time>
      </trkpt>
      <trkpt lat="41.146118" lon="-7.117381">
        <ele>141.150</ele>
        <time>2019-06-22T15:01:27Z</time>
      </trkpt>
      <trkpt lat="41.145990" lon="-7.117674">
        <ele>140.934</ele>
        <time>2019-06-22T15:01:28Z</time>
      </trkpt>
      <trkpt lat="41.145896" lon="-7.117947">
        <ele>140.996</ele>
        <time>2019-06-22T15:01:29Z</time>
      </trkpt>
      <trkpt lat="41.145786" lon="-7.118210">
        <ele>143.988</ele>
        <time>2019-06-22T15:01:30Z</time>
      </trkpt>
      <trkpt lat="41.145645" lon="-7.118485">
        <ele>145.066</ele>
        <time>2019-06-22T15:01:31Z</time>
      </trkpt>
      <trkpt lat="41.145486" lon="-7.118754">
        <ele>145.935</ele>
        <time>2019-06-22T15:01:32Z</time>
      </trkpt>
      <trkpt lat="41.145340" lon="-7.119012">
        <ele>146.310</ele>
        <time>2019-06-22T15:01:33Z</time>
      </trkpt>
      <trkpt lat="41.145181" lon="-7.119272">
        <ele>146.353</ele>
        <time>2019-06-22T15:01:34Z</time>
      </trkpt>
      <trkpt lat="41.145040" lon="-7.119519">
        <ele>146.316</ele>
        <time>2019-06-22T15:01:35Z</time>
      </trkpt>
      <trkpt lat="41.144887" lon="-7.119748">
        <ele>145.376</ele>
        <time>2019-06-22T15:01:36Z</time>
      </trkpt>
      <trkpt lat="41.144743" lon="-7.119956">
        <ele>143.513</ele>
        <time>2019-06-22T15:01:37Z</time>
      </trkpt>
      <trkpt lat="41.144583" lon="-7.120154">
        <ele>143.108</ele>
        <time>2019-06-22T15:01:38Z</time>
      </trkpt>
      <trkpt lat="41.144411" lon="-7.120343">
        <ele>142.734</ele>
        <time>2019-06-22T15:01:39Z</time>
      </trkpt>
      <trkpt lat="41.144242" lon="-7.120507">
        <ele>142.638</ele>
        <time>2019-06-22T15:01:40Z</time>
      </trkpt>
      <trkpt lat="41.144067" lon="-7.120672">
        <ele>142.690</ele>
        <time>2019-06-22T15:01:41Z</time>
      </trkpt>
      <trkpt lat="41.143848" lon="-7.120829">
        <ele>146.182</ele>
        <time>2019-06-22T15:01:42Z</time>
      </trkpt>
      <trkpt lat="41.143684" lon="-7.120953">
        <ele>147.340</ele>
        <time>2019-06-22T15:01:43Z</time>
      </trkpt>
      <trkpt lat="41.143492" lon="-7.121104">
        <ele>150.579</ele>
        <time>2019-06-22T15:01:44Z</time>
      </trkpt>
      <trkpt lat="41.143294" lon="-7.121233">
        <ele>152.244</ele>
        <time>2019-06-22T15:01:45Z</time>
      </trkpt>
      <trkpt lat="41.143110" lon="-7.121357">
        <ele>152.217</ele>
        <time>2019-06-22T15:01:46Z</time>
      </trkpt>
      <trkpt lat="41.142930" lon="-7.121502">
        <ele>153.038</ele>
        <time>2019-06-22T15:01:47Z</time>
      </trkpt>
      <trkpt lat="41.142776" lon="-7.121656">
        <ele>153.170</ele>
        <time>2019-06-22T15:01:48Z</time>
      </trkpt>
      <trkpt lat="41.142619" lon="-7.121827">
        <ele>153.317</ele>
        <time>2019-06-22T15:01:49Z</time>
      </trkpt>
      <trkpt lat="41.142469" lon="-7.121996">
        <ele>153.908</ele>
        <time>2019-06-22T15:01:50Z</time>
      </trkpt>
      <trkpt lat="41.142330" lon="-7.122153">
        <ele>154.596</ele>
        <time>2019-06-22T15:01:51Z</time>
      </trkpt>
      <trkpt lat="41.142168" lon="-7.122299">
        <ele>156.480</ele>
        <time>2019-06-22T15:01:52Z</time>
      </trkpt>
      <trkpt lat="41.142010" lon="-7.122445">
        <ele>158.952</ele>
        <time>2019-06-22T15:01:53Z</time>
      </trkpt>
      <trkpt lat="41.141850" lon="-7.122549">
        <ele>162.134</ele>
        <time>2019-06-22T15:01:54Z</time>
      </trkpt>
      <trkpt lat="41.141681" lon="-7.122610">
        <ele>164.932</ele>
        <time>2019-06-22T15:01:55Z</time>
      </trkpt>
      <trkpt lat="41.141489" lon="-7.122655">
        <ele>168.361</ele>
        <time>2019-06-22T15:01:56Z</time>
      </trkpt>
      <trkpt lat="41.141295" lon="-7.122690">
        <ele>171.646</ele>
        <time>2019-06-22T15:01:57Z</time>
      </trkpt>
      <trkpt lat="41.141108" lon="-7.122684">
        <ele>173.849</ele>
        <time>2019-06-22T15:01:58Z</time>
      </trkpt>
      <trkpt lat="41.140927" lon="-7.122657">
        <ele>175.253</ele>
        <time>2019-06-22T15:01:59Z</time>
      </trkpt>
      <trkpt lat="41.140763" lon="-7.122609">
        <ele>176.604</ele>
        <time>2019-06-22T15:02:00Z</time>
      </trkpt>
      <trkpt lat="41.140591" lon="-7.122530">
        <ele>178.014</ele>
        <time>2019-06-22T15:02:01Z</time>
      </trkpt>
      <trkpt lat="41.140449" lon="-7.122419">
        <ele>179.008</ele>
        <time>2019-06-22T15:02:02Z</time>
      </trkpt>
      <trkpt lat="41.140307" lon="-7.122280">
        <ele>179.498</ele>
        <time>2019-06-22T15:02:03Z</time>
      </trkpt>
      <trkpt lat="41.140162" lon="-7.122141">
        <ele>179.742</ele>
        <time>2019-06-22T15:02:04Z</time>
      </trkpt>
      <trkpt lat="41.140029" lon="-7.121972">
        <ele>179.934</ele>
        <time>2019-06-22T15:02:05Z</time>
      </trkpt>
      <trkpt lat="41.139895" lon="-7.121805">
        <ele>180.756</ele>
        <time>2019-06-22T15:02:06Z</time>
      </trkpt>
      <trkpt lat="41.139749" lon="-7.121618">
        <ele>181.044</ele>
        <time>2019-06-22T15:02:07Z</time>
      </trkpt>
      <trkpt lat="41.139604" lon="-7.121428">
        <ele>181.343</ele>
        <time>2019-06-22T15:02:08Z</time>
      </trkpt>
      <trkpt lat="41.139456" lon="-7.121251">
        <ele>181.968</ele>
        <time>2019-06-22T15:02:09Z</time>
      </trkpt>
      <trkpt lat="41.139298" lon="-7.121060">
        <ele>181.931</ele>
        <time>2019-06-22T15:02:10Z</time>
      </trkpt>
      <trkpt lat="41.139132" lon="-7.120879">
        <ele>181.361</ele>
        <time>2019-06-22T15:02:11Z</time>
      </trkpt>
      <trkpt lat="41.138994" lon="-7.120713">
        <ele>180.921</ele>
        <time>2019-06-22T15:02:12Z</time>
      </trkpt>
      <trkpt lat="41.138834" lon="-7.120527">
        <ele>180.913</ele>
        <time>2019-06-22T15:02:13Z</time>
      </trkpt>
      <trkpt lat="41.138684" lon="-7.120337">
        <ele>180.808</ele>
        <time>2019-06-22T15:02:14Z</time>
      </trkpt>
      <trkpt lat="41.138530" lon="-7.120133">
        <ele>180.459</ele>
        <time>2019-06-22T15:02:15Z</time>
      </trkpt>
      <trkpt lat="41.138381" lon="-7.119928">
        <ele>179.313</ele>
        <time>2019-06-22T15:02:16Z</time>
      </trkpt>
      <trkpt lat="41.138229" lon="-7.119717">
        <ele>178.255</ele>
        <time>2019-06-22T15:02:17Z</time>
      </trkpt>
      <trkpt lat="41.138064" lon="-7.119525">
        <ele>176.377</ele>
        <time>2019-06-22T15:02:18Z</time>
      </trkpt>
      <trkpt lat="41.137905" lon="-7.119330">
        <ele>176.375</ele>
        <time>2019-06-22T15:02:19Z</time>
      </trkpt>
      <trkpt lat="41.137765" lon="-7.119144">
        <ele>173.434</ele>
        <time>2019-06-22T15:02:20Z</time>
      </trkpt>
      <trkpt lat="41.137605" lon="-7.118931">
        <ele>170.519</ele>
        <time>2019-06-22T15:02:21Z</time>
      </trkpt>
      <trkpt lat="41.137463" lon="-7.118735">
        <ele>168.012</ele>
        <time>2019-06-22T15:02:22Z</time>
      </trkpt>
      <trkpt lat="41.137306" lon="-7.118543">
        <ele>165.649</ele>
        <time>2019-06-22T15:02:23Z</time>
      </trkpt>
      <trkpt lat="41.137150" lon="-7.118354">
        <ele>164.402</ele>
        <time>2019-06-22T15:02:24Z</time>
      </trkpt>
      <trkpt lat="41.136987" lon="-7.118158">
        <ele>163.622</ele>
        <time>2019-06-22T15:02:25Z</time>
      </trkpt>
      <trkpt lat="41.136847" lon="-7.117975">
        <ele>162.508</ele>
        <time>2019-06-22T15:02:26Z</time>
      </trkpt>
      <trkpt lat="41.136705" lon="-7.117786">
        <ele>162.137</ele>
        <time>2019-06-22T15:02:27Z</time>
      </trkpt>
      <trkpt lat="41.136583" lon="-7.117601">
        <ele>161.761</ele>
        <time>2019-06-22T15:02:28Z</time>
      </trkpt>
      <trkpt lat="41.136473" lon="-7.117424">
        <ele>160.673</ele>
        <time>2019-06-22T15:02:29Z</time>
      </trkpt>
      <trkpt lat="41.136379" lon="-7.117242">
        <ele>158.825</ele>
        <time>2019-06-22T15:02:30Z</time>
      </trkpt>
      <trkpt lat="41.136315" lon="-7.117053">
        <ele>158.553</ele>
        <time>2019-06-22T15:02:31Z</time>
      </trkpt>
      <trkpt lat="41.136272" lon="-7.116875">
        <ele>158.542</ele>
        <time>2019-06-22T15:02:32Z</time>
      </trkpt>
      <trkpt lat="41.136243" lon="-7.116667">
        <ele>158.727</ele>
        <time>2019-06-22T15:02:33Z</time>
      </trkpt>
      <trkpt lat="41.136270" lon="-7.116484">
        <ele>159.620</ele>
        <time>2019-06-22T15:02:34Z</time>
      </trkpt>
      <trkpt lat="41.136304" lon="-7.116270">
        <ele>160.845</ele>
        <time>2019-06-22T15:02:35Z</time>
      </trkpt>
      <trkpt lat="41.136331" lon="-7.116079">
        <ele>162.047</ele>
        <time>2019-06-22T15:02:36Z</time>
      </trkpt>
      <trkpt lat="41.136337" lon="-7.115890">
        <ele>162.511</ele>
        <time>2019-06-22T15:02:37Z</time>
      </trkpt>
      <trkpt lat="41.136362" lon="-7.115700">
        <ele>162.508</ele>
        <time>2019-06-22T15:02:38Z</time>
      </trkpt>
      <trkpt lat="41.136379" lon="-7.115524">
        <ele>162.497</ele>
        <time>2019-06-22T15:02:39Z</time>
      </trkpt>
      <trkpt lat="41.136396" lon="-7.115355">
        <ele>162.331</ele>
        <time>2019-06-22T15:02:40Z</time>
      </trkpt>
      <trkpt lat="41.136411" lon="-7.115191">
        <ele>162.223</ele>
        <time>2019-06-22T15:02:41Z</time>
      </trkpt>
      <trkpt lat="41.136418" lon="-7.115041">
        <ele>162.135</ele>
        <time>2019-06-22T15:02:42Z</time>
      </trkpt>
      <trkpt lat="41.136410" lon="-7.114905">
        <ele>161.943</ele>
        <time>2019-06-22T15:02:43Z</time>
      </trkpt>
      <trkpt lat="41.136380" lon="-7.114788">
        <ele>161.912</ele>
        <time>2019-06-22T15:02:44Z</time>
      </trkpt>
      <trkpt lat="41.136326" lon="-7.114692">
        <ele>161.937</ele>
        <time>2019-06-22T15:02:45Z</time>
      </trkpt>
      <trkpt lat="41.136261" lon="-7.114618">
        <ele>162.110</ele>
        <time>2019-06-22T15:02:46Z</time>
      </trkpt>
      <trkpt lat="41.136173" lon="-7.114564">
        <ele>162.228</ele>
        <time>2019-06-22T15:02:47Z</time>
      </trkpt>
      <trkpt lat="41.136062" lon="-7.114552">
        <ele>162.389</ele>
        <time>2019-06-22T15:02:48Z</time>
      </trkpt>
      <trkpt lat="41.135959" lon="-7.114532">
        <ele>162.617</ele>
        <time>2019-06-22T15:02:49Z</time>
      </trkpt>
      <trkpt lat="41.135836" lon="-7.114514">
        <ele>162.608</ele>
        <time>2019-06-22T15:02:50Z</time>
      </trkpt>
      <trkpt lat="41.135722" lon="-7.114486">
        <ele>162.615</ele>
        <time>2019-06-22T15:02:51Z</time>
      </trkpt>
      <trkpt lat="41.135583" lon="-7.114458">
        <ele>162.669</ele>
        <time>2019-06-22T15:02:52Z</time>
      </trkpt>
      <trkpt lat="41.135433" lon="-7.114430">
        <ele>162.651</ele>
        <time>2019-06-22T15:02:53Z</time>
      </trkpt>
      <trkpt lat="41.135280" lon="-7.114409">
        <ele>162.693</ele>
        <time>2019-06-22T15:02:54Z</time>
      </trkpt>
      <trkpt lat="41.135124" lon="-7.114371">
        <ele>162.631</ele>
        <time>2019-06-22T15:02:55Z</time>
      </trkpt>
      <trkpt lat="41.134968" lon="-7.114322">
        <ele>162.530</ele>
        <time>2019-06-22T15:02:56Z</time>
      </trkpt>
      <trkpt lat="41.134813" lon="-7.114276">
        <ele>162.565</ele>
        <time>2019-06-22T15:02:57Z</time>
      </trkpt>
      <trkpt lat="41.134655" lon="-7.114231">
        <ele>162.398</ele>
        <time>2019-06-22T15:02:58Z</time>
      </trkpt>
      <trkpt lat="41.134512" lon="-7.114191">
        <ele>162.025</ele>
        <time>2019-06-22T15:02:59Z</time>
      </trkpt>
      <trkpt lat="41.134353" lon="-7.114149">
        <ele>161.326</ele>
        <time>2019-06-22T15:03:00Z</time>
      </trkpt>
      <trkpt lat="41.134191" lon="-7.114108">
        <ele>161.008</ele>
        <time>2019-06-22T15:03:01Z</time>
      </trkpt>
      <trkpt lat="41.134021" lon="-7.114054">
        <ele>161.008</ele>
        <time>2019-06-22T15:03:02Z</time>
      </trkpt>
      <trkpt lat="41.133850" lon="-7.114009">
        <ele>161.495</ele>
        <time>2019-06-22T15:03:03Z</time>
      </trkpt>
      <trkpt lat="41.133685" lon="-7.113956">
        <ele>161.799</ele>
        <time>2019-06-22T15:03:04Z</time>
      </trkpt>
      <trkpt lat="41.133526" lon="-7.113912">
        <ele>162.361</ele>
        <time>2019-06-22T15:03:05Z</time>
      </trkpt>
      <trkpt lat="41.133374" lon="-7.113860">
        <ele>162.493</ele>
        <time>2019-06-22T15:03:06Z</time>
      </trkpt>
      <trkpt lat="41.133230" lon="-7.113815">
        <ele>162.361</ele>
        <time>2019-06-22T15:03:07Z</time>
      </trkpt>
      <trkpt lat="41.133091" lon="-7.113775">
        <ele>161.990</ele>
        <time>2019-06-22T15:03:08Z</time>
      </trkpt>
      <trkpt lat="41.132962" lon="-7.113737">
        <ele>161.535</ele>
        <time>2019-06-22T15:03:09Z</time>
      </trkpt>
      <trkpt lat="41.132838" lon="-7.113715">
        <ele>161.568</ele>
        <time>2019-06-22T15:03:10Z</time>
      </trkpt>
      <trkpt lat="41.132722" lon="-7.113692">
        <ele>161.989</ele>
        <time>2019-06-22T15:03:11Z</time>
      </trkpt>
      <trkpt lat="41.132615" lon="-7.113679">
        <ele>162.206</ele>
        <time>2019-06-22T15:03:12Z</time>
      </trkpt>
      <trkpt lat="41.132513" lon="-7.113684">
        <ele>162.726</ele>
        <time>2019-06-22T15:03:13Z</time>
      </trkpt>
      <trkpt lat="41.132419" lon="-7.113721">
        <ele>162.808</ele>
        <time>2019-06-22T15:03:14Z</time>
      </trkpt>
      <trkpt lat="41.132327" lon="-7.113783">
        <ele>163.691</ele>
        <time>2019-06-22T15:03:15Z</time>
      </trkpt>
      <trkpt lat="41.132244" lon="-7.113869">
        <ele>164.065</ele>
        <time>2019-06-22T15:03:16Z</time>
      </trkpt>
      <trkpt lat="41.132153" lon="-7.113981">
        <ele>164.447</ele>
        <time>2019-06-22T15:03:17Z</time>
      </trkpt>
      <trkpt lat="41.132084" lon="-7.114093">
        <ele>164.929</ele>
        <time>2019-06-22T15:03:18Z</time>
      </trkpt>
      <trkpt lat="41.132084" lon="-7.114313">
        <ele>165.387</ele>
        <time>2019-06-22T15:03:19Z</time>
      </trkpt>
      <trkpt lat="41.132063" lon="-7.114483">
        <ele>165.576</ele>
        <time>2019-06-22T15:03:20Z</time>
      </trkpt>
      <trkpt lat="41.131987" lon="-7.114687">
        <ele>165.551</ele>
        <time>2019-06-22T15:03:21Z</time>
      </trkpt>
      <trkpt lat="41.131951" lon="-7.114879">
        <ele>165.464</ele>
        <time>2019-06-22T15:03:22Z</time>
      </trkpt>
      <trkpt lat="41.131927" lon="-7.115091">
        <ele>165.364</ele>
        <time>2019-06-22T15:03:23Z</time>
      </trkpt>
      <trkpt lat="41.131913" lon="-7.115293">
        <ele>165.306</ele>
        <time>2019-06-22T15:03:24Z</time>
      </trkpt>
      <trkpt lat="41.131881" lon="-7.115510">
        <ele>165.316</ele>
        <time>2019-06-22T15:03:25Z</time>
      </trkpt>
      <trkpt lat="41.131843" lon="-7.115722">
        <ele>164.708</ele>
        <time>2019-06-22T15:03:26Z</time>
      </trkpt>
      <trkpt lat="41.131799" lon="-7.115950">
        <ele>164.229</ele>
        <time>2019-06-22T15:03:27Z</time>
      </trkpt>
      <trkpt lat="41.131760" lon="-7.116171">
        <ele>163.683</ele>
        <time>2019-06-22T15:03:28Z</time>
      </trkpt>
      <trkpt lat="41.131683" lon="-7.116410">
        <ele>163.555</ele>
        <time>2019-06-22T15:03:29Z</time>
      </trkpt>
      <trkpt lat="41.131635" lon="-7.116634">
        <ele>163.527</ele>
        <time>2019-06-22T15:03:30Z</time>
      </trkpt>
      <trkpt lat="41.131605" lon="-7.116843">
        <ele>163.875</ele>
        <time>2019-06-22T15:03:31Z</time>
      </trkpt>
      <trkpt lat="41.131581" lon="-7.117057">
        <ele>163.994</ele>
        <time>2019-06-22T15:03:32Z</time>
      </trkpt>
      <trkpt lat="41.131550" lon="-7.117270">
        <ele>163.959</ele>
        <time>2019-06-22T15:03:33Z</time>
      </trkpt>
      <trkpt lat="41.131514" lon="-7.117487">
        <ele>164.132</ele>
        <time>2019-06-22T15:03:34Z</time>
      </trkpt>
      <trkpt lat="41.131496" lon="-7.117677">
        <ele>164.437</ele>
        <time>2019-06-22T15:03:35Z</time>
      </trkpt>
      <trkpt lat="41.131457" lon="-7.117872">
        <ele>164.649</ele>
        <time>2019-06-22T15:03:36Z</time>
      </trkpt>
      <trkpt lat="41.131421" lon="-7.118062">
        <ele>164.613</ele>
        <time>2019-06-22T15:03:37Z</time>
      </trkpt>
      <trkpt lat="41.131418" lon="-7.118232">
        <ele>164.208</ele>
        <time>2019-06-22T15:03:38Z</time>
      </trkpt>
      <trkpt lat="41.131425" lon="-7.118407">
        <ele>163.796</ele>
        <time>2019-06-22T15:03:39Z</time>
      </trkpt>
      <trkpt lat="41.131415" lon="-7.118620">
        <ele>162.640</ele>
        <time>2019-06-22T15:03:40Z</time>
      </trkpt>
      <trkpt lat="41.131416" lon="-7.118840">
        <ele>161.632</ele>
        <time>2019-06-22T15:03:41Z</time>
      </trkpt>
      <trkpt lat="41.131431" lon="-7.119052">
        <ele>161.284</ele>
        <time>2019-06-22T15:03:42Z</time>
      </trkpt>
      <trkpt lat="41.131438" lon="-7.119278">
        <ele>160.672</ele>
        <time>2019-06-22T15:03:43Z</time>
      </trkpt>
      <trkpt lat="41.131440" lon="-7.119491">
        <ele>160.071</ele>
        <time>2019-06-22T15:03:44Z</time>
      </trkpt>
      <trkpt lat="41.131424" lon="-7.119700">
        <ele>159.546</ele>
        <time>2019-06-22T15:03:45Z</time>
      </trkpt>
      <trkpt lat="41.131409" lon="-7.119902">
        <ele>159.449</ele>
        <time>2019-06-22T15:03:46Z</time>
      </trkpt>
      <trkpt lat="41.131392" lon="-7.120079">
        <ele>159.437</ele>
        <time>2019-06-22T15:03:47Z</time>
      </trkpt>
      <trkpt lat="41.131336" lon="-7.120241">
        <ele>160.449</ele>
        <time>2019-06-22T15:03:48Z</time>
      </trkpt>
      <trkpt lat="41.131284" lon="-7.120416">
        <ele>161.813</ele>
        <time>2019-06-22T15:03:49Z</time>
      </trkpt>
      <trkpt lat="41.131221" lon="-7.120592">
        <ele>163.208</ele>
        <time>2019-06-22T15:03:50Z</time>
      </trkpt>
      <trkpt lat="41.131171" lon="-7.120745">
        <ele>164.986</ele>
        <time>2019-06-22T15:03:51Z</time>
      </trkpt>
      <trkpt lat="41.131116" lon="-7.120902">
        <ele>165.910</ele>
        <time>2019-06-22T15:03:52Z</time>
      </trkpt>
      <trkpt lat="41.131034" lon="-7.121058">
        <ele>166.542</ele>
        <time>2019-06-22T15:03:53Z</time>
      </trkpt>
      <trkpt lat="41.130945" lon="-7.121204">
        <ele>167.094</ele>
        <time>2019-06-22T15:03:54Z</time>
      </trkpt>
      <trkpt lat="41.130852" lon="-7.121358">
        <ele>167.292</ele>
        <time>2019-06-22T15:03:55Z</time>
      </trkpt>
      <trkpt lat="41.130754" lon="-7.121514">
        <ele>167.441</ele>
        <time>2019-06-22T15:03:56Z</time>
      </trkpt>
      <trkpt lat="41.130660" lon="-7.121654">
        <ele>167.736</ele>
        <time>2019-06-22T15:03:57Z</time>
      </trkpt>
      <trkpt lat="41.130569" lon="-7.121798">
        <ele>168.329</ele>
        <time>2019-06-22T15:03:58Z</time>
      </trkpt>
      <trkpt lat="41.130484" lon="-7.121965">
        <ele>168.875</ele>
        <time>2019-06-22T15:03:59Z</time>
      </trkpt>
      <trkpt lat="41.130438" lon="-7.122104">
        <ele>169.528</ele>
        <time>2019-06-22T15:04:00Z</time>
      </trkpt>
      <trkpt lat="41.130326" lon="-7.122235">
        <ele>170.320</ele>
        <time>2019-06-22T15:04:01Z</time>
      </trkpt>
      <trkpt lat="41.130228" lon="-7.122394">
        <ele>170.808</ele>
        <time>2019-06-22T15:04:02Z</time>
      </trkpt>
      <trkpt lat="41.130138" lon="-7.122537">
        <ele>171.030</ele>
        <time>2019-06-22T15:04:03Z</time>
      </trkpt>
      <trkpt lat="41.130020" lon="-7.122669">
        <ele>171.054</ele>
        <time>2019-06-22T15:04:04Z</time>
      </trkpt>
      <trkpt lat="41.129920" lon="-7.122799">
        <ele>171.376</ele>
        <time>2019-06-22T15:04:05Z</time>
      </trkpt>
      <trkpt lat="41.129788" lon="-7.122945">
        <ele>171.848</ele>
        <time>2019-06-22T15:04:06Z</time>
      </trkpt>
      <trkpt lat="41.129647" lon="-7.123076">
        <ele>172.356</ele>
        <time>2019-06-22T15:04:07Z</time>
      </trkpt>
      <trkpt lat="41.129497" lon="-7.123218">
        <ele>172.735</ele>
        <time>2019-06-22T15:04:08Z</time>
      </trkpt>
      <trkpt lat="41.129356" lon="-7.123345">
        <ele>173.250</ele>
        <time>2019-06-22T15:04:09Z</time>
      </trkpt>
      <trkpt lat="41.129226" lon="-7.123489">
        <ele>173.353</ele>
        <time>2019-06-22T15:04:10Z</time>
      </trkpt>
      <trkpt lat="41.129071" lon="-7.123642">
        <ele>173.362</ele>
        <time>2019-06-22T15:04:11Z</time>
      </trkpt>
      <trkpt lat="41.128923" lon="-7.123787">
        <ele>174.083</ele>
        <time>2019-06-22T15:04:12Z</time>
      </trkpt>
      <trkpt lat="41.128773" lon="-7.123929">
        <ele>174.511</ele>
        <time>2019-06-22T15:04:13Z</time>
      </trkpt>
      <trkpt lat="41.128627" lon="-7.124081">
        <ele>175.708</ele>
        <time>2019-06-22T15:04:14Z</time>
      </trkpt>
      <trkpt lat="41.128470" lon="-7.124244">
        <ele>176.999</ele>
        <time>2019-06-22T15:04:15Z</time>
      </trkpt>
      <trkpt lat="41.128341" lon="-7.124375">
        <ele>178.673</ele>
        <time>2019-06-22T15:04:16Z</time>
      </trkpt>
      <trkpt lat="41.128225" lon="-7.124463">
        <ele>180.175</ele>
        <time>2019-06-22T15:04:17Z</time>
      </trkpt>
      <trkpt lat="41.128092" lon="-7.124546">
        <ele>182.257</ele>
        <time>2019-06-22T15:04:18Z</time>
      </trkpt>
      <trkpt lat="41.127970" lon="-7.124607">
        <ele>184.345</ele>
        <time>2019-06-22T15:04:19Z</time>
      </trkpt>
      <trkpt lat="41.127847" lon="-7.124648">
        <ele>186.534</ele>
        <time>2019-06-22T15:04:20Z</time>
      </trkpt>
      <trkpt lat="41.127728" lon="-7.124691">
        <ele>188.259</ele>
        <time>2019-06-22T15:04:21Z</time>
      </trkpt>
      <trkpt lat="41.127624" lon="-7.124719">
        <ele>190.082</ele>
        <time>2019-06-22T15:04:22Z</time>
      </trkpt>
      <trkpt lat="41.127521" lon="-7.124737">
        <ele>191.336</ele>
        <time>2019-06-22T15:04:23Z</time>
      </trkpt>
      <trkpt lat="41.127454" lon="-7.124766">
        <ele>192.517</ele>
        <time>2019-06-22T15:04:24Z</time>
      </trkpt>
      <trkpt lat="41.127377" lon="-7.124792">
        <ele>193.518</ele>
        <time>2019-06-22T15:04:25Z</time>
      </trkpt>
      <trkpt lat="41.127298" lon="-7.124801">
        <ele>194.508</ele>
        <time>2019-06-22T15:04:26Z</time>
      </trkpt>
      <trkpt lat="41.127220" lon="-7.124779">
        <ele>195.096</ele>
        <time>2019-06-22T15:04:27Z</time>
      </trkpt>
      <trkpt lat="41.127147" lon="-7.124741">
        <ele>195.050</ele>
        <time>2019-06-22T15:04:28Z</time>
      </trkpt>
      <trkpt lat="41.127090" lon="-7.124681">
        <ele>195.352</ele>
        <time>2019-06-22T15:04:29Z</time>
      </trkpt>
      <trkpt lat="41.127043" lon="-7.124601">
        <ele>195.494</ele>
        <time>2019-06-22T15:04:30Z</time>
      </trkpt>
      <trkpt lat="41.127008" lon="-7.124512">
        <ele>195.482</ele>
        <time>2019-06-22T15:04:31Z</time>
      </trkpt>
      <trkpt lat="41.126957" lon="-7.124441">
        <ele>195.451</ele>
        <time>2019-06-22T15:04:32Z</time>
      </trkpt>
      <trkpt lat="41.126886" lon="-7.124401">
        <ele>195.216</ele>
        <time>2019-06-22T15:04:33Z</time>
      </trkpt>
      <trkpt lat="41.126806" lon="-7.124371">
        <ele>195.219</ele>
        <time>2019-06-22T15:04:34Z</time>
      </trkpt>
      <trkpt lat="41.126712" lon="-7.124351">
        <ele>195.293</ele>
        <time>2019-06-22T15:04:35Z</time>
      </trkpt>
      <trkpt lat="41.126613" lon="-7.124334">
        <ele>195.665</ele>
        <time>2019-06-22T15:04:36Z</time>
      </trkpt>
      <trkpt lat="41.126497" lon="-7.124309">
        <ele>196.221</ele>
        <time>2019-06-22T15:04:37Z</time>
      </trkpt>
      <trkpt lat="41.126388" lon="-7.124293">
        <ele>197.408</ele>
        <time>2019-06-22T15:04:38Z</time>
      </trkpt>
      <trkpt lat="41.126257" lon="-7.124297">
        <ele>198.742</ele>
        <time>2019-06-22T15:04:39Z</time>
      </trkpt>
      <trkpt lat="41.126126" lon="-7.124318">
        <ele>199.946</ele>
        <time>2019-06-22T15:04:40Z</time>
      </trkpt>
      <trkpt lat="41.125985" lon="-7.124342">
        <ele>200.618</ele>
        <time>2019-06-22T15:04:41Z</time>
      </trkpt>
      <trkpt lat="41.125842" lon="-7.124383">
        <ele>201.720</ele>
        <time>2019-06-22T15:04:42Z</time>
      </trkpt>
      <trkpt lat="41.125702" lon="-7.124436">
        <ele>202.858</ele>
        <time>2019-06-22T15:04:43Z</time>
      </trkpt>
      <trkpt lat="41.125558" lon="-7.124488">
        <ele>204.287</ele>
        <time>2019-06-22T15:04:44Z</time>
      </trkpt>
      <trkpt lat="41.125414" lon="-7.124521">
        <ele>205.782</ele>
        <time>2019-06-22T15:04:45Z</time>
      </trkpt>
      <trkpt lat="41.125243" lon="-7.124602">
        <ele>207.115</ele>
        <time>2019-06-22T15:04:46Z</time>
      </trkpt>
      <trkpt lat="41.125088" lon="-7.124670">
        <ele>208.535</ele>
        <time>2019-06-22T15:04:47Z</time>
      </trkpt>
      <trkpt lat="41.124933" lon="-7.124745">
        <ele>209.886</ele>
        <time>2019-06-22T15:04:48Z</time>
      </trkpt>
      <trkpt lat="41.124767" lon="-7.124831">
        <ele>210.614</ele>
        <time>2019-06-22T15:04:49Z</time>
      </trkpt>
      <trkpt lat="41.124611" lon="-7.124920">
        <ele>211.408</ele>
        <time>2019-06-22T15:04:50Z</time>
      </trkpt>
      <trkpt lat="41.124423" lon="-7.125011">
        <ele>212.016</ele>
        <time>2019-06-22T15:04:51Z</time>
      </trkpt>
      <trkpt lat="41.124242" lon="-7.125068">
        <ele>213.220</ele>
        <time>2019-06-22T15:04:52Z</time>
      </trkpt>
      <trkpt lat="41.124053" lon="-7.125131">
        <ele>213.582</ele>
        <time>2019-06-22T15:04:53Z</time>
      </trkpt>
      <trkpt lat="41.123865" lon="-7.125193">
        <ele>214.014</ele>
        <time>2019-06-22T15:04:54Z</time>
      </trkpt>
      <trkpt lat="41.123678" lon="-7.125259">
        <ele>214.132</ele>
        <time>2019-06-22T15:04:55Z</time>
      </trkpt>
      <trkpt lat="41.123496" lon="-7.125326">
        <ele>214.721</ele>
        <time>2019-06-22T15:04:56Z</time>
      </trkpt>
      <trkpt lat="41.123345" lon="-7.125385">
        <ele>214.916</ele>
        <time>2019-06-22T15:04:57Z</time>
      </trkpt>
      <trkpt lat="41.123185" lon="-7.125461">
        <ele>215.099</ele>
        <time>2019-06-22T15:04:58Z</time>
      </trkpt>
      <trkpt lat="41.123043" lon="-7.125607">
        <ele>215.016</ele>
        <time>2019-06-22T15:04:59Z</time>
      </trkpt>
      <trkpt lat="41.122920" lon="-7.125737">
        <ele>216.776</ele>
        <time>2019-06-22T15:05:00Z</time>
      </trkpt>
      <trkpt lat="41.122785" lon="-7.125868">
        <ele>218.013</ele>
        <time>2019-06-22T15:05:01Z</time>
      </trkpt>
      <trkpt lat="41.122642" lon="-7.126006">
        <ele>219.508</ele>
        <time>2019-06-22T15:05:02Z</time>
      </trkpt>
      <trkpt lat="41.122488" lon="-7.126110">
        <ele>222.364</ele>
        <time>2019-06-22T15:05:03Z</time>
      </trkpt>
      <trkpt lat="41.122338" lon="-7.126191">
        <ele>224.698</ele>
        <time>2019-06-22T15:05:04Z</time>
      </trkpt>
      <trkpt lat="41.122191" lon="-7.126238">
        <ele>226.390</ele>
        <time>2019-06-22T15:05:05Z</time>
      </trkpt>
      <trkpt lat="41.122028" lon="-7.126293">
        <ele>228.142</ele>
        <time>2019-06-22T15:05:06Z</time>
      </trkpt>
      <trkpt lat="41.121861" lon="-7.126359">
        <ele>229.120</ele>
        <time>2019-06-22T15:05:07Z</time>
      </trkpt>
      <trkpt lat="41.121702" lon="-7.126406">
        <ele>229.829</ele>
        <time>2019-06-22T15:05:08Z</time>
      </trkpt>
      <trkpt lat="41.121555" lon="-7.126467">
        <ele>230.494</ele>
        <time>2019-06-22T15:05:09Z</time>
      </trkpt>
      <trkpt lat="41.121413" lon="-7.126529">
        <ele>230.547</ele>
        <time>2019-06-22T15:05:10Z</time>
      </trkpt>
      <trkpt lat="41.121275" lon="-7.126611">
        <ele>230.594</ele>
        <time>2019-06-22T15:05:11Z</time>
      </trkpt>
      <trkpt lat="41.121154" lon="-7.126694">
        <ele>230.557</ele>
        <time>2019-06-22T15:05:12Z</time>
      </trkpt>
      <trkpt lat="41.121032" lon="-7.126833">
        <ele>230.222</ele>
        <time>2019-06-22T15:05:13Z</time>
      </trkpt>
      <trkpt lat="41.120934" lon="-7.126975">
        <ele>230.208</ele>
        <time>2019-06-22T15:05:14Z</time>
      </trkpt>
      <trkpt lat="41.120818" lon="-7.127170">
        <ele>231.112</ele>
        <time>2019-06-22T15:05:15Z</time>
      </trkpt>
      <trkpt lat="41.120746" lon="-7.127364">
        <ele>231.726</ele>
        <time>2019-06-22T15:05:16Z</time>
      </trkpt>
      <trkpt lat="41.120684" lon="-7.127582">
        <ele>232.128</ele>
        <time>2019-06-22T15:05:17Z</time>
      </trkpt>
      <trkpt lat="41.120609" lon="-7.127807">
        <ele>232.120</ele>
        <time>2019-06-22T15:05:18Z</time>
      </trkpt>
      <trkpt lat="41.120544" lon="-7.128025">
        <ele>231.718</ele>
        <time>2019-06-22T15:05:19Z</time>
      </trkpt>
      <trkpt lat="41.120482" lon="-7.128237">
        <ele>230.137</ele>
        <time>2019-06-22T15:05:20Z</time>
      </trkpt>
      <trkpt lat="41.120434" lon="-7.128397">
        <ele>229.392</ele>
        <time>2019-06-22T15:05:21Z</time>
      </trkpt>
      <trkpt lat="41.120362" lon="-7.128568">
        <ele>228.645</ele>
        <time>2019-06-22T15:05:22Z</time>
      </trkpt>
      <trkpt lat="41.120290" lon="-7.128730">
        <ele>228.693</ele>
        <time>2019-06-22T15:05:23Z</time>
      </trkpt>
      <trkpt lat="41.120161" lon="-7.128837">
        <ele>230.065</ele>
        <time>2019-06-22T15:05:24Z</time>
      </trkpt>
      <trkpt lat="41.120041" lon="-7.128925">
        <ele>232.021</ele>
        <time>2019-06-22T15:05:25Z</time>
      </trkpt>
      <trkpt lat="41.119929" lon="-7.128976">
        <ele>233.108</ele>
        <time>2019-06-22T15:05:26Z</time>
      </trkpt>
      <trkpt lat="41.119778" lon="-7.129006">
        <ele>234.232</ele>
        <time>2019-06-22T15:05:27Z</time>
      </trkpt>
      <trkpt lat="41.119632" lon="-7.129005">
        <ele>234.296</ele>
        <time>2019-06-22T15:05:28Z</time>
      </trkpt>
      <trkpt lat="41.119483" lon="-7.128979">
        <ele>234.238</ele>
        <time>2019-06-22T15:05:29Z</time>
      </trkpt>
      <trkpt lat="41.119334" lon="-7.128950">
        <ele>233.250</ele>
        <time>2019-06-22T15:05:30Z</time>
      </trkpt>
      <trkpt lat="41.119169" lon="-7.128937">
        <ele>232.838</ele>
        <time>2019-06-22T15:05:31Z</time>
      </trkpt>
      <trkpt lat="41.118988" lon="-7.128926">
        <ele>231.857</ele>
        <time>2019-06-22T15:05:32Z</time>
      </trkpt>
      <trkpt lat="41.118814" lon="-7.128919">
        <ele>230.832</ele>
        <time>2019-06-22T15:05:33Z</time>
      </trkpt>
      <trkpt lat="41.118656" lon="-7.128905">
        <ele>230.855</ele>
        <time>2019-06-22T15:05:34Z</time>
      </trkpt>
      <trkpt lat="41.118499" lon="-7.128878">
        <ele>231.744</ele>
        <time>2019-06-22T15:05:35Z</time>
      </trkpt>
      <trkpt lat="41.118343" lon="-7.128861">
        <ele>231.705</ele>
        <time>2019-06-22T15:05:36Z</time>
      </trkpt>
      <trkpt lat="41.118204" lon="-7.128830">
        <ele>232.315</ele>
        <time>2019-06-22T15:05:37Z</time>
      </trkpt>
      <trkpt lat="41.118065" lon="-7.128787">
        <ele>233.108</ele>
        <time>2019-06-22T15:05:38Z</time>
      </trkpt>
      <trkpt lat="41.117939" lon="-7.128721">
        <ele>234.237</ele>
        <time>2019-06-22T15:05:39Z</time>
      </trkpt>
      <trkpt lat="41.117816" lon="-7.128650">
        <ele>234.461</ele>
        <time>2019-06-22T15:05:40Z</time>
      </trkpt>
      <trkpt lat="41.117716" lon="-7.128501">
        <ele>234.533</ele>
        <time>2019-06-22T15:05:41Z</time>
      </trkpt>
      <trkpt lat="41.117604" lon="-7.128379">
        <ele>234.795</ele>
        <time>2019-06-22T15:05:42Z</time>
      </trkpt>
      <trkpt lat="41.117581" lon="-7.128209">
        <ele>235.233</ele>
        <time>2019-06-22T15:05:43Z</time>
      </trkpt>
      <trkpt lat="41.117554" lon="-7.128008">
        <ele>235.742</ele>
        <time>2019-06-22T15:05:44Z</time>
      </trkpt>
      <trkpt lat="41.117550" lon="-7.127775">
        <ele>236.087</ele>
        <time>2019-06-22T15:05:45Z</time>
      </trkpt>
      <trkpt lat="41.117550" lon="-7.127542">
        <ele>236.880</ele>
        <time>2019-06-22T15:05:46Z</time>
      </trkpt>
      <trkpt lat="41.117540" lon="-7.127316">
        <ele>236.927</ele>
        <time>2019-06-22T15:05:47Z</time>
      </trkpt>
      <trkpt lat="41.117539" lon="-7.127094">
        <ele>236.968</ele>
        <time>2019-06-22T15:05:48Z</time>
      </trkpt>
      <trkpt lat="41.117520" lon="-7.126894">
        <ele>236.914</ele>
        <time>2019-06-22T15:05:49Z</time>
      </trkpt>
      <trkpt lat="41.117496" lon="-7.126692">
        <ele>236.908</ele>
        <time>2019-06-22T15:05:50Z</time>
      </trkpt>
      <trkpt lat="41.117451" lon="-7.126500">
        <ele>237.075</ele>
        <time>2019-06-22T15:05:51Z</time>
      </trkpt>
      <trkpt lat="41.117397" lon="-7.126300">
        <ele>237.149</ele>
        <time>2019-06-22T15:05:52Z</time>
      </trkpt>
      <trkpt lat="41.117307" lon="-7.126129">
        <ele>237.151</ele>
        <time>2019-06-22T15:05:53Z</time>
      </trkpt>
      <trkpt lat="41.117196" lon="-7.125978">
        <ele>238.153</ele>
        <time>2019-06-22T15:05:54Z</time>
      </trkpt>
      <trkpt lat="41.117079" lon="-7.125820">
        <ele>238.221</ele>
        <time>2019-06-22T15:05:55Z</time>
      </trkpt>
      <trkpt lat="41.116954" lon="-7.125694">
        <ele>238.510</ele>
        <time>2019-06-22T15:05:56Z</time>
      </trkpt>
      <trkpt lat="41.116820" lon="-7.125577">
        <ele>238.975</ele>
        <time>2019-06-22T15:05:57Z</time>
      </trkpt>
      <trkpt lat="41.116682" lon="-7.125456">
        <ele>240.258</ele>
        <time>2019-06-22T15:05:58Z</time>
      </trkpt>
      <trkpt lat="41.116549" lon="-7.125347">
        <ele>240.317</ele>
        <time>2019-06-22T15:05:59Z</time>
      </trkpt>
      <trkpt lat="41.116425" lon="-7.125236">
        <ele>241.287</ele>
        <time>2019-06-22T15:06:00Z</time>
      </trkpt>
      <trkpt lat="41.116298" lon="-7.125204">
        <ele>241.615</ele>
        <time>2019-06-22T15:06:01Z</time>
      </trkpt>
      <trkpt lat="41.116114" lon="-7.125181">
        <ele>241.908</ele>
        <time>2019-06-22T15:06:02Z</time>
      </trkpt>
      <trkpt lat="41.115964" lon="-7.125156">
        <ele>243.174</ele>
        <time>2019-06-22T15:06:03Z</time>
      </trkpt>
      <trkpt lat="41.115829" lon="-7.125150">
        <ele>244.028</ele>
        <time>2019-06-22T15:06:04Z</time>
      </trkpt>
      <trkpt lat="41.115714" lon="-7.125248">
        <ele>244.470</ele>
        <time>2019-06-22T15:06:05Z</time>
      </trkpt>
      <trkpt lat="41.115587" lon="-7.125330">
        <ele>245.972</ele>
        <time>2019-06-22T15:06:06Z</time>
      </trkpt>
      <trkpt lat="41.115449" lon="-7.125523">
        <ele>247.930</ele>
        <time>2019-06-22T15:06:07Z</time>
      </trkpt>
      <trkpt lat="41.115364" lon="-7.125700">
        <ele>248.029</ele>
        <time>2019-06-22T15:06:08Z</time>
      </trkpt>
      <trkpt lat="41.115291" lon="-7.125879">
        <ele>248.184</ele>
        <time>2019-06-22T15:06:09Z</time>
      </trkpt>
      <trkpt lat="41.115216" lon="-7.126065">
        <ele>249.257</ele>
        <time>2019-06-22T15:06:10Z</time>
      </trkpt>
      <trkpt lat="41.115147" lon="-7.126231">
        <ele>250.683</ele>
        <time>2019-06-22T15:06:11Z</time>
      </trkpt>
      <trkpt lat="41.115072" lon="-7.126383">
        <ele>251.625</ele>
        <time>2019-06-22T15:06:12Z</time>
      </trkpt>
      <trkpt lat="41.114998" lon="-7.126527">
        <ele>252.317</ele>
        <time>2019-06-22T15:06:13Z</time>
      </trkpt>
      <trkpt lat="41.114890" lon="-7.126647">
        <ele>253.708</ele>
        <time>2019-06-22T15:06:14Z</time>
      </trkpt>
      <trkpt lat="41.114733" lon="-7.126756">
        <ele>254.961</ele>
        <time>2019-06-22T15:06:15Z</time>
      </trkpt>
      <trkpt lat="41.114574" lon="-7.126834">
        <ele>255.545</ele>
        <time>2019-06-22T15:06:16Z</time>
      </trkpt>
      <trkpt lat="41.114420" lon="-7.126923">
        <ele>256.157</ele>
        <time>2019-06-22T15:06:17Z</time>
      </trkpt>
      <trkpt lat="41.114257" lon="-7.127017">
        <ele>257.529</ele>
        <time>2019-06-22T15:06:18Z</time>
      </trkpt>
      <trkpt lat="41.114085" lon="-7.127113">
        <ele>258.457</ele>
        <time>2019-06-22T15:06:19Z</time>
      </trkpt>
      <trkpt lat="41.113923" lon="-7.127197">
        <ele>258.976</ele>
        <time>2019-06-22T15:06:20Z</time>
      </trkpt>
      <trkpt lat="41.113767" lon="-7.127288">
        <ele>259.241</ele>
        <time>2019-06-22T15:06:21Z</time>
      </trkpt>
      <trkpt lat="41.113635" lon="-7.127396">
        <ele>259.384</ele>
        <time>2019-06-22T15:06:22Z</time>
      </trkpt>
      <trkpt lat="41.113503" lon="-7.127504">
        <ele>259.448</ele>
        <time>2019-06-22T15:06:23Z</time>
      </trkpt>
      <trkpt lat="41.113341" lon="-7.127622">
        <ele>260.661</ele>
        <time>2019-06-22T15:06:24Z</time>
      </trkpt>
      <trkpt lat="41.113163" lon="-7.127729">
        <ele>261.917</ele>
        <time>2019-06-22T15:06:25Z</time>
      </trkpt>
      <trkpt lat="41.113004" lon="-7.127821">
        <ele>263.208</ele>
        <time>2019-06-22T15:06:26Z</time>
      </trkpt>
      <trkpt lat="41.112835" lon="-7.127936">
        <ele>264.437</ele>
        <time>2019-06-22T15:06:27Z</time>
      </trkpt>
      <trkpt lat="41.112664" lon="-7.128029">
        <ele>266.281</ele>
        <time>2019-06-22T15:06:28Z</time>
      </trkpt>
      <trkpt lat="41.112501" lon="-7.128136">
        <ele>267.123</ele>
        <time>2019-06-22T15:06:29Z</time>
      </trkpt>
      <trkpt lat="41.112345" lon="-7.128129">
        <ele>267.985</ele>
        <time>2019-06-22T15:06:30Z</time>
      </trkpt>
      <trkpt lat="41.112182" lon="-7.128219">
        <ele>268.133</ele>
        <time>2019-06-22T15:06:31Z</time>
      </trkpt>
      <trkpt lat="41.112042" lon="-7.128325">
        <ele>268.222</ele>
        <time>2019-06-22T15:06:32Z</time>
      </trkpt>
      <trkpt lat="41.111903" lon="-7.128415">
        <ele>268.727</ele>
        <time>2019-06-22T15:06:33Z</time>
      </trkpt>
      <trkpt lat="41.111742" lon="-7.128502">
        <ele>268.990</ele>
        <time>2019-06-22T15:06:34Z</time>
      </trkpt>
      <trkpt lat="41.111578" lon="-7.128602">
        <ele>270.045</ele>
        <time>2019-06-22T15:06:35Z</time>
      </trkpt>
      <trkpt lat="41.111400" lon="-7.128631">
        <ele>271.447</ele>
        <time>2019-06-22T15:06:36Z</time>
      </trkpt>
      <trkpt lat="41.111232" lon="-7.128698">
        <ele>273.311</ele>
        <time>2019-06-22T15:06:37Z</time>
      </trkpt>
      <trkpt lat="41.111075" lon="-7.128772">
        <ele>274.608</ele>
        <time>2019-06-22T15:06:38Z</time>
      </trkpt>
      <trkpt lat="41.110940" lon="-7.128848">
        <ele>276.317</ele>
        <time>2019-06-22T15:06:39Z</time>
      </trkpt>
      <trkpt lat="41.110789" lon="-7.128910">
        <ele>277.191</ele>
        <time>2019-06-22T15:06:40Z</time>
      </trkpt>
      <trkpt lat="41.110638" lon="-7.128991">
        <ele>277.783</ele>
        <time>2019-06-22T15:06:41Z</time>
      </trkpt>
      <trkpt lat="41.110496" lon="-7.129022">
        <ele>277.775</ele>
        <time>2019-06-22T15:06:42Z</time>
      </trkpt>
      <trkpt lat="41.110351" lon="-7.129028">
        <ele>277.863</ele>
        <time>2019-06-22T15:06:43Z</time>
      </trkpt>
      <trkpt lat="41.110206" lon="-7.129037">
        <ele>278.682</ele>
        <time>2019-06-22T15:06:44Z</time>
      </trkpt>
      <trkpt lat="41.110053" lon="-7.129020">
        <ele>279.277</ele>
        <time>2019-06-22T15:06:45Z</time>
      </trkpt>
      <trkpt lat="41.109914" lon="-7.128957">
        <ele>279.650</ele>
        <time>2019-06-22T15:06:46Z</time>
      </trkpt>
      <trkpt lat="41.109774" lon="-7.128900">
        <ele>280.187</ele>
        <time>2019-06-22T15:06:47Z</time>
      </trkpt>
      <trkpt lat="41.109633" lon="-7.128749">
        <ele>281.242</ele>
        <time>2019-06-22T15:06:48Z</time>
      </trkpt>
      <trkpt lat="41.109563" lon="-7.128617">
        <ele>282.526</ele>
        <time>2019-06-22T15:06:49Z</time>
      </trkpt>
      <trkpt lat="41.109436" lon="-7.128531">
        <ele>283.108</ele>
        <time>2019-06-22T15:06:50Z</time>
      </trkpt>
      <trkpt lat="41.109308" lon="-7.128477">
        <ele>283.311</ele>
        <time>2019-06-22T15:06:51Z</time>
      </trkpt>
      <trkpt lat="41.109151" lon="-7.128459">
        <ele>284.115</ele>
        <time>2019-06-22T15:06:52Z</time>
      </trkpt>
      <trkpt lat="41.108971" lon="-7.128494">
        <ele>284.627</ele>
        <time>2019-06-22T15:06:53Z</time>
      </trkpt>
      <trkpt lat="41.108806" lon="-7.128540">
        <ele>285.279</ele>
        <time>2019-06-22T15:06:54Z</time>
      </trkpt>
      <trkpt lat="41.108642" lon="-7.128592">
        <ele>285.897</ele>
        <time>2019-06-22T15:06:55Z</time>
      </trkpt>
      <trkpt lat="41.108484" lon="-7.128646">
        <ele>287.836</ele>
        <time>2019-06-22T15:06:56Z</time>
      </trkpt>
      <trkpt lat="41.108324" lon="-7.128695">
        <ele>289.181</ele>
        <time>2019-06-22T15:06:57Z</time>
      </trkpt>
      <trkpt lat="41.108168" lon="-7.128745">
        <ele>290.044</ele>
        <time>2019-06-22T15:06:58Z</time>
      </trkpt>
      <trkpt lat="41.108027" lon="-7.128801">
        <ele>291.458</ele>
        <time>2019-06-22T15:06:59Z</time>
      </trkpt>
      <trkpt lat="41.107886" lon="-7.128859">
        <ele>292.152</ele>
        <time>2019-06-22T15:07:00Z</time>
      </trkpt>
      <trkpt lat="41.107752" lon="-7.128958">
        <ele>292.117</ele>
        <time>2019-06-22T15:07:01Z</time>
      </trkpt>
      <trkpt lat="41.107625" lon="-7.129065">
        <ele>291.708</ele>
        <time>2019-06-22T15:07:02Z</time>
      </trkpt>
      <trkpt lat="41.107502" lon="-7.129177">
        <ele>290.848</ele>
        <time>2019-06-22T15:07:03Z</time>
      </trkpt>
      <trkpt lat="41.107410" lon="-7.129301">
        <ele>290.662</ele>
        <time>2019-06-22T15:07:04Z</time>
      </trkpt>
      <trkpt lat="41.107467" lon="-7.129544">
        <ele>290.614</ele>
        <time>2019-06-22T15:07:05Z</time>
      </trkpt>
      <trkpt lat="41.107442" lon="-7.129721">
        <ele>291.316</ele>
        <time>2019-06-22T15:07:06Z</time>
      </trkpt>
      <trkpt lat="41.107481" lon="-7.129889">
        <ele>292.684</ele>
        <time>2019-06-22T15:07:07Z</time>
      </trkpt>
      <trkpt lat="41.107484" lon="-7.130073">
        <ele>295.213</ele>
        <time>2019-06-22T15:07:08Z</time>
      </trkpt>
      <trkpt lat="41.107489" lon="-7.130212">
        <ele>296.598</ele>
        <time>2019-06-22T15:07:09Z</time>
      </trkpt>
      <trkpt lat="41.107484" lon="-7.130401">
        <ele>297.931</ele>
        <time>2019-06-22T15:07:10Z</time>
      </trkpt>
      <trkpt lat="41.107442" lon="-7.130614">
        <ele>299.058</ele>
        <time>2019-06-22T15:07:11Z</time>
      </trkpt>
      <trkpt lat="41.107383" lon="-7.130809">
        <ele>300.952</ele>
        <time>2019-06-22T15:07:12Z</time>
      </trkpt>
      <trkpt lat="41.107314" lon="-7.130965">
        <ele>302.417</ele>
        <time>2019-06-22T15:07:13Z</time>
      </trkpt>
      <trkpt lat="41.107204" lon="-7.131130">
        <ele>304.308</ele>
        <time>2019-06-22T15:07:14Z</time>
      </trkpt>
      <trkpt lat="41.107073" lon="-7.131298">
        <ele>305.868</ele>
        <time>2019-06-22T15:07:15Z</time>
      </trkpt>
      <trkpt lat="41.106954" lon="-7.131459">
        <ele>306.612</ele>
        <time>2019-06-22T15:07:16Z</time>
      </trkpt>
      <trkpt lat="41.106839" lon="-7.131611">
        <ele>306.944</ele>
        <time>2019-06-22T15:07:17Z</time>
      </trkpt>
      <trkpt lat="41.106720" lon="-7.131765">
        <ele>307.226</ele>
        <time>2019-06-22T15:07:18Z</time>
      </trkpt>
      <trkpt lat="41.106569" lon="-7.131946">
        <ele>307.864</ele>
        <time>2019-06-22T15:07:19Z</time>
      </trkpt>
      <trkpt lat="41.106427" lon="-7.132121">
        <ele>308.033</ele>
        <time>2019-06-22T15:07:20Z</time>
      </trkpt>
      <trkpt lat="41.106316" lon="-7.132284">
        <ele>308.688</ele>
        <time>2019-06-22T15:07:21Z</time>
      </trkpt>
      <trkpt lat="41.106185" lon="-7.132461">
        <ele>309.381</ele>
        <time>2019-06-22T15:07:22Z</time>
      </trkpt>
      <trkpt lat="41.106042" lon="-7.132645">
        <ele>310.359</ele>
        <time>2019-06-22T15:07:23Z</time>
      </trkpt>
      <trkpt lat="41.105909" lon="-7.132819">
        <ele>311.003</ele>
        <time>2019-06-22T15:07:24Z</time>
      </trkpt>
      <trkpt lat="41.105775" lon="-7.133005">
        <ele>311.623</ele>
        <time>2019-06-22T15:07:25Z</time>
      </trkpt>
      <trkpt lat="41.105640" lon="-7.133172">
        <ele>312.208</ele>
        <time>2019-06-22T15:07:26Z</time>
      </trkpt>
      <trkpt lat="41.105504" lon="-7.133333">
        <ele>313.328</ele>
        <time>2019-06-22T15:07:27Z</time>
      </trkpt>
      <trkpt lat="41.105355" lon="-7.133477">
        <ele>314.492</ele>
        <time>2019-06-22T15:07:28Z</time>
      </trkpt>
      <trkpt lat="41.105190" lon="-7.133610">
        <ele>315.474</ele>
        <time>2019-06-22T15:07:29Z</time>
      </trkpt>
      <trkpt lat="41.105027" lon="-7.133719">
        <ele>316.736</ele>
        <time>2019-06-22T15:07:30Z</time>
      </trkpt>
      <trkpt lat="41.104865" lon="-7.133822">
        <ele>317.934</ele>
        <time>2019-06-22T15:07:31Z</time>
      </trkpt>
      <trkpt lat="41.104714" lon="-7.133909">
        <ele>317.923</ele>
        <time>2019-06-22T15:07:32Z</time>
      </trkpt>
      <trkpt lat="41.104548" lon="-7.133999">
        <ele>317.588</ele>
        <time>2019-06-22T15:07:33Z</time>
      </trkpt>
      <trkpt lat="41.104403" lon="-7.134060">
        <ele>317.531</ele>
        <time>2019-06-22T15:07:34Z</time>
      </trkpt>
      <trkpt lat="41.104252" lon="-7.134102">
        <ele>317.557</ele>
        <time>2019-06-22T15:07:35Z</time>
      </trkpt>
      <trkpt lat="41.104107" lon="-7.134159">
        <ele>317.900</ele>
        <time>2019-06-22T15:07:36Z</time>
      </trkpt>
      <trkpt lat="41.103965" lon="-7.134217">
        <ele>317.920</ele>
        <time>2019-06-22T15:07:37Z</time>
      </trkpt>
      <trkpt lat="41.103841" lon="-7.134299">
        <ele>319.108</ele>
        <time>2019-06-22T15:07:38Z</time>
      </trkpt>
      <trkpt lat="41.103737" lon="-7.134406">
        <ele>320.398</ele>
        <time>2019-06-22T15:07:39Z</time>
      </trkpt>
      <trkpt lat="41.103645" lon="-7.134519">
        <ele>321.562</ele>
        <time>2019-06-22T15:07:40Z</time>
      </trkpt>
      <trkpt lat="41.103555" lon="-7.134653">
        <ele>323.334</ele>
        <time>2019-06-22T15:07:41Z</time>
      </trkpt>
      <trkpt lat="41.103484" lon="-7.134803">
        <ele>324.856</ele>
        <time>2019-06-22T15:07:42Z</time>
      </trkpt>
      <trkpt lat="41.103540" lon="-7.134964">
        <ele>326.384</ele>
        <time>2019-06-22T15:07:43Z</time>
      </trkpt>
      <trkpt lat="41.103525" lon="-7.135106">
        <ele>326.713</ele>
        <time>2019-06-22T15:07:44Z</time>
      </trkpt>
      <trkpt lat="41.103492" lon="-7.135266">
        <ele>326.978</ele>
        <time>2019-06-22T15:07:45Z</time>
      </trkpt>
      <trkpt lat="41.103439" lon="-7.135403">
        <ele>327.431</ele>
        <time>2019-06-22T15:07:46Z</time>
      </trkpt>
      <trkpt lat="41.103351" lon="-7.135522">
        <ele>328.153</ele>
        <time>2019-06-22T15:07:47Z</time>
      </trkpt>
      <trkpt lat="41.103257" lon="-7.135638">
        <ele>328.104</ele>
        <time>2019-06-22T15:07:48Z</time>
      </trkpt>
      <trkpt lat="41.103169" lon="-7.135674">
        <ele>328.414</ele>
        <time>2019-06-22T15:07:49Z</time>
      </trkpt>
      <trkpt lat="41.103022" lon="-7.135749">
        <ele>329.108</ele>
        <time>2019-06-22T15:07:50Z</time>
      </trkpt>
      <trkpt lat="41.102865" lon="-7.135837">
        <ele>329.988</ele>
        <time>2019-06-22T15:07:51Z</time>
      </trkpt>
      <trkpt lat="41.102730" lon="-7.135895">
        <ele>330.422</ele>
        <time>2019-06-22T15:07:52Z</time>
      </trkpt>
      <trkpt lat="41.102562" lon="-7.135959">
        <ele>330.794</ele>
        <time>2019-06-22T15:07:53Z</time>
      </trkpt>
      <trkpt lat="41.102402" lon="-7.136057">
        <ele>330.786</ele>
        <time>2019-06-22T15:07:54Z</time>
      </trkpt>
      <trkpt lat="41.102246" lon="-7.136157">
        <ele>329.944</ele>
        <time>2019-06-22T15:07:55Z</time>
      </trkpt>
      <trkpt lat="41.102056" lon="-7.136269">
        <ele>329.423</ele>
        <time>2019-06-22T15:07:56Z</time>
      </trkpt>
      <trkpt lat="41.101902" lon="-7.136381">
        <ele>328.718</ele>
        <time>2019-06-22T15:07:57Z</time>
      </trkpt>
      <trkpt lat="41.101740" lon="-7.136498">
        <ele>328.691</ele>
        <time>2019-06-22T15:07:58Z</time>
      </trkpt>
      <trkpt lat="41.101585" lon="-7.136615">
        <ele>328.653</ele>
        <time>2019-06-22T15:07:59Z</time>
      </trkpt>
      <trkpt lat="41.101433" lon="-7.136745">
        <ele>329.304</ele>
        <time>2019-06-22T15:08:00Z</time>
      </trkpt>
      <trkpt lat="41.101295" lon="-7.136882">
        <ele>330.214</ele>
        <time>2019-06-22T15:08:01Z</time>
      </trkpt>
      <trkpt lat="41.101157" lon="-7.137024">
        <ele>331.208</ele>
        <time>2019-06-22T15:08:02Z</time>
      </trkpt>
      <trkpt lat="41.101032" lon="-7.137199">
        <ele>331.628</ele>
        <time>2019-06-22T15:08:03Z</time>
      </trkpt>
      <trkpt lat="41.100921" lon="-7.137318">
        <ele>333.472</ele>
        <time>2019-06-22T15:08:04Z</time>
      </trkpt>
      <trkpt lat="41.100784" lon="-7.137443">
        <ele>334.154</ele>
        <time>2019-06-22T15:08:05Z</time>
      </trkpt>
      <trkpt lat="41.100623" lon="-7.137578">
        <ele>335.036</ele>
        <time>2019-06-22T15:08:06Z</time>
      </trkpt>
      <trkpt lat="41.100518" lon="-7.137594">
        <ele>336.944</ele>
        <time>2019-06-22T15:08:07Z</time>
      </trkpt>
      <trkpt lat="41.100372" lon="-7.137620">
        <ele>337.693</ele>
        <time>2019-06-22T15:08:08Z</time>
      </trkpt>
      <trkpt lat="41.100216" lon="-7.137645">
        <ele>338.948</ele>
        <time>2019-06-22T15:08:09Z</time>
      </trkpt>
      <trkpt lat="41.100049" lon="-7.137642">
        <ele>338.921</ele>
        <time>2019-06-22T15:08:10Z</time>
      </trkpt>
      <trkpt lat="41.099889" lon="-7.137637">
        <ele>338.956</ele>
        <time>2019-06-22T15:08:11Z</time>
      </trkpt>
      <trkpt lat="41.099725" lon="-7.137612">
        <ele>338.959</ele>
        <time>2019-06-22T15:08:12Z</time>
      </trkpt>
      <trkpt lat="41.099551" lon="-7.137616">
        <ele>338.814</ele>
        <time>2019-06-22T15:08:13Z</time>
      </trkpt>
      <trkpt lat="41.099384" lon="-7.137601">
        <ele>338.108</ele>
        <time>2019-06-22T15:08:14Z</time>
      </trkpt>
      <trkpt lat="41.099226" lon="-7.137599">
        <ele>338.148</ele>
        <time>2019-06-22T15:08:15Z</time>
      </trkpt>
      <trkpt lat="41.099072" lon="-7.137618">
        <ele>338.582</ele>
        <time>2019-06-22T15:08:16Z</time>
      </trkpt>
      <trkpt lat="41.098919" lon="-7.137608">
        <ele>338.854</ele>
        <time>2019-06-22T15:08:17Z</time>
      </trkpt>
      <trkpt lat="41.098771" lon="-7.137610">
        <ele>339.286</ele>
        <time>2019-06-22T15:08:18Z</time>
      </trkpt>
      <trkpt lat="41.098625" lon="-7.137611">
        <ele>340.174</ele>
        <time>2019-06-22T15:08:19Z</time>
      </trkpt>
      <trkpt lat="41.098498" lon="-7.137644">
        <ele>340.953</ele>
        <time>2019-06-22T15:08:20Z</time>
      </trkpt>
      <trkpt lat="41.098353" lon="-7.137704">
        <ele>341.588</ele>
        <time>2019-06-22T15:08:21Z</time>
      </trkpt>
      <trkpt lat="41.098245" lon="-7.137789">
        <ele>342.461</ele>
        <time>2019-06-22T15:08:22Z</time>
      </trkpt>
      <trkpt lat="41.098136" lon="-7.137911">
        <ele>343.173</ele>
        <time>2019-06-22T15:08:23Z</time>
      </trkpt>
      <trkpt lat="41.098039" lon="-7.138090">
        <ele>344.185</ele>
        <time>2019-06-22T15:08:24Z</time>
      </trkpt>
      <trkpt lat="41.097994" lon="-7.138253">
        <ele>345.513</ele>
        <time>2019-06-22T15:08:25Z</time>
      </trkpt>
      <trkpt lat="41.097957" lon="-7.138445">
        <ele>346.208</ele>
        <time>2019-06-22T15:08:26Z</time>
      </trkpt>
      <trkpt lat="41.097925" lon="-7.138632">
        <ele>346.690</ele>
        <time>2019-06-22T15:08:27Z</time>
      </trkpt>
      <trkpt lat="41.097927" lon="-7.138792">
        <ele>347.684</ele>
        <time>2019-06-22T15:08:28Z</time>
      </trkpt>
      <trkpt lat="41.097887" lon="-7.138985">
        <ele>348.346</ele>
        <time>2019-06-22T15:08:29Z</time>
      </trkpt>
      <trkpt lat="41.097861" lon="-7.139166">
        <ele>348.418</ele>
        <time>2019-06-22T15:08:30Z</time>
      </trkpt>
      <trkpt lat="41.097839" lon="-7.139354">
        <ele>348.766</ele>
        <time>2019-06-22T15:08:31Z</time>
      </trkpt>
      <trkpt lat="41.097843" lon="-7.139522">
        <ele>349.295</ele>
        <time>2019-06-22T15:08:32Z</time>
      </trkpt>
      <trkpt lat="41.097836" lon="-7.139683">
        <ele>350.040</ele>
        <time>2019-06-22T15:08:33Z</time>
      </trkpt>
      <trkpt lat="41.097831" lon="-7.139831">
        <ele>350.773</ele>
        <time>2019-06-22T15:08:34Z</time>
      </trkpt>
      <trkpt lat="41.097761" lon="-7.140019">
        <ele>352.562</ele>
        <time>2019-06-22T15:08:35Z</time>
      </trkpt>
      <trkpt lat="41.097706" lon="-7.140164">
        <ele>354.283</ele>
        <time>2019-06-22T15:08:36Z</time>
      </trkpt>
      <trkpt lat="41.097615" lon="-7.140268">
        <ele>355.511</ele>
        <time>2019-06-22T15:08:37Z</time>
      </trkpt>
      <trkpt lat="41.097540" lon="-7.140386">
        <ele>355.908</ele>
        <time>2019-06-22T15:08:38Z</time>
      </trkpt>
      <trkpt lat="41.097348" lon="-7.140478">
        <ele>356.229</ele>
        <time>2019-06-22T15:08:39Z</time>
      </trkpt>
      <trkpt lat="41.097220" lon="-7.140548">
        <ele>356.883</ele>
        <time>2019-06-22T15:08:40Z</time>
      </trkpt>
      <trkpt lat="41.097065" lon="-7.140594">
        <ele>356.955</ele>
        <time>2019-06-22T15:08:41Z</time>
      </trkpt>
      <trkpt lat="41.096919" lon="-7.140623">
        <ele>357.577</ele>
        <time>2019-06-22T15:08:42Z</time>
      </trkpt>
      <trkpt lat="41.096759" lon="-7.140623">
        <ele>358.645</ele>
        <time>2019-06-22T15:08:43Z</time>
      </trkpt>
      <trkpt lat="41.096604" lon="-7.140584">
        <ele>359.274</ele>
        <time>2019-06-22T15:08:44Z</time>
      </trkpt>
      <trkpt lat="41.096457" lon="-7.140541">
        <ele>359.819</ele>
        <time>2019-06-22T15:08:45Z</time>
      </trkpt>
      <trkpt lat="41.096318" lon="-7.140494">
        <ele>359.882</ele>
        <time>2019-06-22T15:08:46Z</time>
      </trkpt>
      <trkpt lat="41.096194" lon="-7.140490">
        <ele>359.012</ele>
        <time>2019-06-22T15:08:47Z</time>
      </trkpt>
      <trkpt lat="41.096088" lon="-7.140516">
        <ele>358.732</ele>
        <time>2019-06-22T15:08:48Z</time>
      </trkpt>
      <trkpt lat="41.095996" lon="-7.140578">
        <ele>358.705</ele>
        <time>2019-06-22T15:08:49Z</time>
      </trkpt>
      <trkpt lat="41.095903" lon="-7.140706">
        <ele>358.908</ele>
        <time>2019-06-22T15:08:50Z</time>
      </trkpt>
      <trkpt lat="41.095816" lon="-7.140841">
        <ele>359.524</ele>
        <time>2019-06-22T15:08:51Z</time>
      </trkpt>
      <trkpt lat="41.095736" lon="-7.140951">
        <ele>359.548</ele>
        <time>2019-06-22T15:08:52Z</time>
      </trkpt>
      <trkpt lat="41.095640" lon="-7.141036">
        <ele>361.160</ele>
        <time>2019-06-22T15:08:53Z</time>
      </trkpt>
      <trkpt lat="41.095521" lon="-7.141097">
        <ele>363.022</ele>
        <time>2019-06-22T15:08:54Z</time>
      </trkpt>
      <trkpt lat="41.095395" lon="-7.141127">
        <ele>364.040</ele>
        <time>2019-06-22T15:08:55Z</time>
      </trkpt>
      <trkpt lat="41.095270" lon="-7.141121">
        <ele>364.999</ele>
        <time>2019-06-22T15:08:56Z</time>
      </trkpt>
      <trkpt lat="41.095140" lon="-7.141072">
        <ele>366.164</ele>
        <time>2019-06-22T15:08:57Z</time>
      </trkpt>
      <trkpt lat="41.095007" lon="-7.141004">
        <ele>367.447</ele>
        <time>2019-06-22T15:08:58Z</time>
      </trkpt>
      <trkpt lat="41.094872" lon="-7.140953">
        <ele>367.851</ele>
        <time>2019-06-22T15:08:59Z</time>
      </trkpt>
      <trkpt lat="41.094713" lon="-7.140926">
        <ele>367.801</ele>
        <time>2019-06-22T15:09:00Z</time>
      </trkpt>
      <trkpt lat="41.094567" lon="-7.140895">
        <ele>367.811</ele>
        <time>2019-06-22T15:09:01Z</time>
      </trkpt>
      <trkpt lat="41.094414" lon="-7.140879">
        <ele>367.908</ele>
        <time>2019-06-22T15:09:02Z</time>
      </trkpt>
      <trkpt lat="41.094263" lon="-7.140872">
        <ele>368.598</ele>
        <time>2019-06-22T15:09:03Z</time>
      </trkpt>
      <trkpt lat="41.094114" lon="-7.140870">
        <ele>369.572</ele>
        <time>2019-06-22T15:09:04Z</time>
      </trkpt>
      <trkpt lat="41.093959" lon="-7.140898">
        <ele>370.654</ele>
        <time>2019-06-22T15:09:05Z</time>
      </trkpt>
      <trkpt lat="41.093815" lon="-7.140940">
        <ele>371.936</ele>
        <time>2019-06-22T15:09:06Z</time>
      </trkpt>
      <trkpt lat="41.093665" lon="-7.140999">
        <ele>373.184</ele>
        <time>2019-06-22T15:09:07Z</time>
      </trkpt>
      <trkpt lat="41.093525" lon="-7.141084">
        <ele>373.593</ele>
        <time>2019-06-22T15:09:08Z</time>
      </trkpt>
      <trkpt lat="41.093383" lon="-7.141182">
        <ele>374.338</ele>
        <time>2019-06-22T15:09:09Z</time>
      </trkpt>
      <trkpt lat="41.093258" lon="-7.141296">
        <ele>375.061</ele>
        <time>2019-06-22T15:09:10Z</time>
      </trkpt>
      <trkpt lat="41.093142" lon="-7.141424">
        <ele>376.011</ele>
        <time>2019-06-22T15:09:11Z</time>
      </trkpt>
      <trkpt lat="41.093033" lon="-7.141574">
        <ele>376.821</ele>
        <time>2019-06-22T15:09:12Z</time>
      </trkpt>
      <trkpt lat="41.092933" lon="-7.141718">
        <ele>377.703</ele>
        <time>2019-06-22T15:09:13Z</time>
      </trkpt>
      <trkpt lat="41.092830" lon="-7.141876">
        <ele>377.908</ele>
        <time>2019-06-22T15:09:14Z</time>
      </trkpt>
      <trkpt lat="41.092733" lon="-7.142002">
        <ele>378.754</ele>
        <time>2019-06-22T15:09:15Z</time>
      </trkpt>
      <trkpt lat="41.092620" lon="-7.142122">
        <ele>379.958</ele>
        <time>2019-06-22T15:09:16Z</time>
      </trkpt>
      <trkpt lat="41.092519" lon="-7.142218">
        <ele>380.440</ele>
        <time>2019-06-22T15:09:17Z</time>
      </trkpt>
      <trkpt lat="41.092390" lon="-7.142331">
        <ele>381.232</ele>
        <time>2019-06-22T15:09:18Z</time>
      </trkpt>
      <trkpt lat="41.092258" lon="-7.142408">
        <ele>383.030</ele>
        <time>2019-06-22T15:09:19Z</time>
      </trkpt>
      <trkpt lat="41.092160" lon="-7.142390">
        <ele>384.019</ele>
        <time>2019-06-22T15:09:20Z</time>
      </trkpt>
      <trkpt lat="41.092001" lon="-7.142398">
        <ele>384.754</ele>
        <time>2019-06-22T15:09:21Z</time>
      </trkpt>
      <trkpt lat="41.091875" lon="-7.142377">
        <ele>385.987</ele>
        <time>2019-06-22T15:09:22Z</time>
      </trkpt>
      <trkpt lat="41.091738" lon="-7.142307">
        <ele>387.716</ele>
        <time>2019-06-22T15:09:23Z</time>
      </trkpt>
      <trkpt lat="41.091611" lon="-7.142244">
        <ele>388.976</ele>
        <time>2019-06-22T15:09:24Z</time>
      </trkpt>
      <trkpt lat="41.091517" lon="-7.142190">
        <ele>390.213</ele>
        <time>2019-06-22T15:09:25Z</time>
      </trkpt>
      <trkpt lat="41.091392" lon="-7.142162">
        <ele>391.408</ele>
        <time>2019-06-22T15:09:26Z</time>
      </trkpt>
      <trkpt lat="41.091270" lon="-7.142168">
        <ele>392.584</ele>
        <time>2019-06-22T15:09:27Z</time>
      </trkpt>
      <trkpt lat="41.091140" lon="-7.142216">
        <ele>392.568</ele>
        <time>2019-06-22T15:09:28Z</time>
      </trkpt>
      <trkpt lat="41.091013" lon="-7.142282">
        <ele>392.360</ele>
        <time>2019-06-22T15:09:29Z</time>
      </trkpt>
      <trkpt lat="41.090915" lon="-7.142380">
        <ele>392.342</ele>
        <time>2019-06-22T15:09:30Z</time>
      </trkpt>
      <trkpt lat="41.090804" lon="-7.142505">
        <ele>392.230</ele>
        <time>2019-06-22T15:09:31Z</time>
      </trkpt>
      <trkpt lat="41.090696" lon="-7.142636">
        <ele>392.389</ele>
        <time>2019-06-22T15:09:32Z</time>
      </trkpt>
      <trkpt lat="41.090584" lon="-7.142767">
        <ele>392.944</ele>
        <time>2019-06-22T15:09:33Z</time>
      </trkpt>
      <trkpt lat="41.090431" lon="-7.142930">
        <ele>394.377</ele>
        <time>2019-06-22T15:09:34Z</time>
      </trkpt>
      <trkpt lat="41.090309" lon="-7.143077">
        <ele>396.192</ele>
        <time>2019-06-22T15:09:35Z</time>
      </trkpt>
      <trkpt lat="41.090171" lon="-7.143225">
        <ele>397.373</ele>
        <time>2019-06-22T15:09:36Z</time>
      </trkpt>
      <trkpt lat="41.090052" lon="-7.143358">
        <ele>398.520</ele>
        <time>2019-06-22T15:09:37Z</time>
      </trkpt>
      <trkpt lat="41.089922" lon="-7.143507">
        <ele>399.308</ele>
        <time>2019-06-22T15:09:38Z</time>
      </trkpt>
      <trkpt lat="41.089804" lon="-7.143631">
        <ele>400.212</ele>
        <time>2019-06-22T15:09:39Z</time>
      </trkpt>
      <trkpt lat="41.089689" lon="-7.143757">
        <ele>400.366</ele>
        <time>2019-06-22T15:09:40Z</time>
      </trkpt>
      <trkpt lat="41.089553" lon="-7.143842">
        <ele>401.128</ele>
        <time>2019-06-22T15:09:41Z</time>
      </trkpt>
      <trkpt lat="41.089432" lon="-7.143890">
        <ele>401.740</ele>
        <time>2019-06-22T15:09:42Z</time>
      </trkpt>
      <trkpt lat="41.089299" lon="-7.143920">
        <ele>402.858</ele>
        <time>2019-06-22T15:09:43Z</time>
      </trkpt>
      <trkpt lat="41.089145" lon="-7.143908">
        <ele>402.917</ele>
        <time>2019-06-22T15:09:44Z</time>
      </trkpt>
      <trkpt lat="41.088987" lon="-7.143890">
        <ele>404.032</ele>
        <time>2019-06-22T15:09:45Z</time>
      </trkpt>
      <trkpt lat="41.088841" lon="-7.143845">
        <ele>404.755</ele>
        <time>2019-06-22T15:09:46Z</time>
      </trkpt>
      <trkpt lat="41.088683" lon="-7.143809">
        <ele>404.895</ele>
        <time>2019-06-22T15:09:47Z</time>
      </trkpt>
      <trkpt lat="41.088529" lon="-7.143777">
        <ele>404.949</ele>
        <time>2019-06-22T15:09:48Z</time>
      </trkpt>
      <trkpt lat="41.088381" lon="-7.143747">
        <ele>405.623</ele>
        <time>2019-06-22T15:09:49Z</time>
      </trkpt>
      <trkpt lat="41.088235" lon="-7.143714">
        <ele>406.008</ele>
        <time>2019-06-22T15:09:50Z</time>
      </trkpt>
      <trkpt lat="41.088087" lon="-7.143685">
        <ele>406.222</ele>
        <time>2019-06-22T15:09:51Z</time>
      </trkpt>
      <trkpt lat="41.087965" lon="-7.143626">
        <ele>406.746</ele>
        <time>2019-06-22T15:09:52Z</time>
      </trkpt>
      <trkpt lat="41.087846" lon="-7.143554">
        <ele>407.948</ele>
        <time>2019-06-22T15:09:53Z</time>
      </trkpt>
      <trkpt lat="41.087744" lon="-7.143469">
        <ele>408.430</ele>
        <time>2019-06-22T15:09:54Z</time>
      </trkpt>
      <trkpt lat="41.087643" lon="-7.143368">
        <ele>409.178</ele>
        <time>2019-06-22T15:09:55Z</time>
      </trkpt>
      <trkpt lat="41.087566" lon="-7.143237">
        <ele>409.147</ele>
        <time>2019-06-22T15:09:56Z</time>
      </trkpt>
      <trkpt lat="41.087472" lon="-7.143109">
        <ele>409.032</ele>
        <time>2019-06-22T15:09:57Z</time>
      </trkpt>
      <trkpt lat="41.087362" lon="-7.143012">
        <ele>409.045</ele>
        <time>2019-06-22T15:09:58Z</time>
      </trkpt>
      <trkpt lat="41.087239" lon="-7.142927">
        <ele>408.723</ele>
        <time>2019-06-22T15:09:59Z</time>
      </trkpt>
      <trkpt lat="41.087086" lon="-7.142909">
        <ele>408.683</ele>
        <time>2019-06-22T15:10:00Z</time>
      </trkpt>
      <trkpt lat="41.086935" lon="-7.142902">
        <ele>407.911</ele>
        <time>2019-06-22T15:10:01Z</time>
      </trkpt>
      <trkpt lat="41.086782" lon="-7.142880">
        <ele>407.908</ele>
        <time>2019-06-22T15:10:02Z</time>
      </trkpt>
      <trkpt lat="41.086639" lon="-7.142857">
        <ele>408.965</ele>
        <time>2019-06-22T15:10:03Z</time>
      </trkpt>
      <trkpt lat="41.086490" lon="-7.142829">
        <ele>409.889</ele>
        <time>2019-06-22T15:10:04Z</time>
      </trkpt>
      <trkpt lat="41.086345" lon="-7.142803">
        <ele>410.081</ele>
        <time>2019-06-22T15:10:05Z</time>
      </trkpt>
      <trkpt lat="41.086214" lon="-7.142787">
        <ele>410.853</ele>
        <time>2019-06-22T15:10:06Z</time>
      </trkpt>
      <trkpt lat="41.086086" lon="-7.142780">
        <ele>411.581</ele>
        <time>2019-06-22T15:10:07Z</time>
      </trkpt>
      <trkpt lat="41.085933" lon="-7.142784">
        <ele>412.270</ele>
        <time>2019-06-22T15:10:08Z</time>
      </trkpt>
      <trkpt lat="41.085789" lon="-7.142795">
        <ele>412.975</ele>
        <time>2019-06-22T15:10:09Z</time>
      </trkpt>
      <trkpt lat="41.085637" lon="-7.142804">
        <ele>413.798</ele>
        <time>2019-06-22T15:10:10Z</time>
      </trkpt>
      <trkpt lat="41.085492" lon="-7.142819">
        <ele>414.679</ele>
        <time>2019-06-22T15:10:11Z</time>
      </trkpt>
      <trkpt lat="41.085352" lon="-7.142828">
        <ele>414.605</ele>
        <time>2019-06-22T15:10:12Z</time>
      </trkpt>
      <trkpt lat="41.085218" lon="-7.142843">
        <ele>414.125</ele>
        <time>2019-06-22T15:10:13Z</time>
      </trkpt>
      <trkpt lat="41.085087" lon="-7.142868">
        <ele>414.108</ele>
        <time>2019-06-22T15:10:14Z</time>
      </trkpt>
      <trkpt lat="41.084955" lon="-7.142880">
        <ele>414.480</ele>
        <time>2019-06-22T15:10:15Z</time>
      </trkpt>
      <trkpt lat="41.084822" lon="-7.142895">
        <ele>415.074</ele>
        <time>2019-06-22T15:10:16Z</time>
      </trkpt>
      <trkpt lat="41.084695" lon="-7.142913">
        <ele>415.936</ele>
        <time>2019-06-22T15:10:17Z</time>
      </trkpt>
      <trkpt lat="41.084563" lon="-7.142925">
        <ele>417.388</ele>
        <time>2019-06-22T15:10:18Z</time>
      </trkpt>
      <trkpt lat="41.084420" lon="-7.142941">
        <ele>417.926</ele>
        <time>2019-06-22T15:10:19Z</time>
      </trkpt>
      <trkpt lat="41.084281" lon="-7.142963">
        <ele>418.285</ele>
        <time>2019-06-22T15:10:20Z</time>
      </trkpt>
      <trkpt lat="41.084149" lon="-7.142971">
        <ele>418.670</ele>
        <time>2019-06-22T15:10:21Z</time>
      </trkpt>
      <trkpt lat="41.084017" lon="-7.142997">
        <ele>419.213</ele>
        <time>2019-06-22T15:10:22Z</time>
      </trkpt>
      <trkpt lat="41.083889" lon="-7.143006">
        <ele>419.249</ele>
        <time>2019-06-22T15:10:23Z</time>
      </trkpt>
      <trkpt lat="41.083753" lon="-7.143031">
        <ele>419.702</ele>
        <time>2019-06-22T15:10:24Z</time>
      </trkpt>
      <trkpt lat="41.083628" lon="-7.143035">
        <ele>420.122</ele>
        <time>2019-06-22T15:10:25Z</time>
      </trkpt>
      <trkpt lat="41.083497" lon="-7.143057">
        <ele>420.208</ele>
        <time>2019-06-22T15:10:26Z</time>
      </trkpt>
      <trkpt lat="41.083374" lon="-7.143069">
        <ele>420.317</ele>
        <time>2019-06-22T15:10:27Z</time>
      </trkpt>
      <trkpt lat="41.083245" lon="-7.143080">
        <ele>420.411</ele>
        <time>2019-06-22T15:10:28Z</time>
      </trkpt>
      <trkpt lat="41.083104" lon="-7.143098">
        <ele>420.433</ele>
        <time>2019-06-22T15:10:29Z</time>
      </trkpt>
      <trkpt lat="41.082966" lon="-7.143116">
        <ele>420.115</ele>
        <time>2019-06-22T15:10:30Z</time>
      </trkpt>
      <trkpt lat="41.082823" lon="-7.143136">
        <ele>420.063</ele>
        <time>2019-06-22T15:10:31Z</time>
      </trkpt>
      <trkpt lat="41.082681" lon="-7.143165">
        <ele>419.922</ele>
        <time>2019-06-22T15:10:32Z</time>
      </trkpt>
      <trkpt lat="41.082537" lon="-7.143188">
        <ele>419.737</ele>
        <time>2019-06-22T15:10:33Z</time>
      </trkpt>
      <trkpt lat="41.082397" lon="-7.143206">
        <ele>419.790</ele>
        <time>2019-06-22T15:10:34Z</time>
      </trkpt>
      <trkpt lat="41.082262" lon="-7.143216">
        <ele>420.344</ele>
        <time>2019-06-22T15:10:35Z</time>
      </trkpt>
      <trkpt lat="41.082137" lon="-7.143222">
        <ele>420.405</ele>
        <time>2019-06-22T15:10:36Z</time>
      </trkpt>
      <trkpt lat="41.082018" lon="-7.143241">
        <ele>420.515</ele>
        <time>2019-06-22T15:10:37Z</time>
      </trkpt>
      <trkpt lat="41.081914" lon="-7.143257">
        <ele>421.108</ele>
        <time>2019-06-22T15:10:38Z</time>
      </trkpt>
      <trkpt lat="41.081821" lon="-7.143271">
        <ele>421.577</ele>
        <time>2019-06-22T15:10:39Z</time>
      </trkpt>
      <trkpt lat="41.081734" lon="-7.143288">
        <ele>421.881</ele>
        <time>2019-06-22T15:10:40Z</time>
      </trkpt>
      <trkpt lat="41.081640" lon="-7.143298">
        <ele>422.553</ele>
        <time>2019-06-22T15:10:41Z</time>
      </trkpt>
      <trkpt lat="41.081563" lon="-7.143309">
        <ele>423.345</ele>
        <time>2019-06-22T15:10:42Z</time>
      </trkpt>
      <trkpt lat="41.081481" lon="-7.143324">
        <ele>423.673</ele>
        <time>2019-06-22T15:10:43Z</time>
      </trkpt>
      <trkpt lat="41.081413" lon="-7.143345">
        <ele>424.082</ele>
        <time>2019-06-22T15:10:44Z</time>
      </trkpt>
      <trkpt lat="41.081352" lon="-7.143381">
        <ele>424.047</ele>
        <time>2019-06-22T15:10:45Z</time>
      </trkpt>
      <trkpt lat="41.081305" lon="-7.143421">
        <ele>424.070</ele>
        <time>2019-06-22T15:10:46Z</time>
      </trkpt>
      <trkpt lat="41.081268" lon="-7.143477">
        <ele>424.047</ele>
        <time>2019-06-22T15:10:47Z</time>
      </trkpt>
      <trkpt lat="41.081226" lon="-7.143560">
        <ele>424.129</ele>
        <time>2019-06-22T15:10:48Z</time>
      </trkpt>
      <trkpt lat="41.081189" lon="-7.143653">
        <ele>424.221</ele>
        <time>2019-06-22T15:10:49Z</time>
      </trkpt>
      <trkpt lat="41.081151" lon="-7.143760">
        <ele>424.408</ele>
        <time>2019-06-22T15:10:50Z</time>
      </trkpt>
      <trkpt lat="41.081110" lon="-7.143886">
        <ele>424.467</ele>
        <time>2019-06-22T15:10:51Z</time>
      </trkpt>
      <trkpt lat="41.081074" lon="-7.144017">
        <ele>424.091</ele>
        <time>2019-06-22T15:10:52Z</time>
      </trkpt>
      <trkpt lat="41.081032" lon="-7.144156">
        <ele>423.653</ele>
        <time>2019-06-22T15:10:53Z</time>
      </trkpt>
      <trkpt lat="41.080990" lon="-7.144291">
        <ele>423.285</ele>
        <time>2019-06-22T15:10:54Z</time>
      </trkpt>
      <trkpt lat="41.080939" lon="-7.144422">
        <ele>422.333</ele>
        <time>2019-06-22T15:10:55Z</time>
      </trkpt>
      <trkpt lat="41.080899" lon="-7.144552">
        <ele>421.662</ele>
        <time>2019-06-22T15:10:56Z</time>
      </trkpt>
      <trkpt lat="41.080862" lon="-7.144675">
        <ele>421.077</ele>
        <time>2019-06-22T15:10:57Z</time>
      </trkpt>
      <trkpt lat="41.080829" lon="-7.144792">
        <ele>420.330</ele>
        <time>2019-06-22T15:10:58Z</time>
      </trkpt>
      <trkpt lat="41.080794" lon="-7.144903">
        <ele>419.971</ele>
        <time>2019-06-22T15:10:59Z</time>
      </trkpt>
      <trkpt lat="41.080799" lon="-7.144967">
        <ele>419.941</ele>
        <time>2019-06-22T15:11:00Z</time>
      </trkpt>
      <trkpt lat="41.080794" lon="-7.145032">
        <ele>419.915</ele>
        <time>2019-06-22T15:11:01Z</time>
      </trkpt>
      <trkpt lat="41.080792" lon="-7.145108">
        <ele>420.408</ele>
        <time>2019-06-22T15:11:03Z</time>
      </trkpt>
      <trkpt lat="41.080741" lon="-7.145126">
        <ele>421.030</ele>
        <time>2019-06-22T15:12:00Z</time>
      </trkpt>
      <trkpt lat="41.080710" lon="-7.144989">
        <ele>420.844</ele>
        <time>2019-06-22T15:12:02Z</time>
      </trkpt>
      <trkpt lat="41.080712" lon="-7.144899">
        <ele>420.716</ele>
        <time>2019-06-22T15:12:03Z</time>
      </trkpt>
      <trkpt lat="41.080722" lon="-7.144811">
        <ele>420.688</ele>
        <time>2019-06-22T15:12:04Z</time>
      </trkpt>
      <trkpt lat="41.080775" lon="-7.144695">
        <ele>420.476</ele>
        <time>2019-06-22T15:12:05Z</time>
      </trkpt>
      <trkpt lat="41.080795" lon="-7.144621">
        <ele>420.445</ele>
        <time>2019-06-22T15:12:06Z</time>
      </trkpt>
      <trkpt lat="41.080812" lon="-7.144561">
        <ele>420.610</ele>
        <time>2019-06-22T15:12:07Z</time>
      </trkpt>
      <trkpt lat="41.080838" lon="-7.144504">
        <ele>420.783</ele>
        <time>2019-06-22T15:12:08Z</time>
      </trkpt>
      <trkpt lat="41.080857" lon="-7.144443">
        <ele>420.834</ele>
        <time>2019-06-22T15:12:09Z</time>
      </trkpt>
      <trkpt lat="41.080865" lon="-7.144357">
        <ele>421.155</ele>
        <time>2019-06-22T15:12:11Z</time>
      </trkpt>
      <trkpt lat="41.080840" lon="-7.144302">
        <ele>421.410</ele>
        <time>2019-06-22T15:12:13Z</time>
      </trkpt>
      <trkpt lat="41.080821" lon="-7.144246">
        <ele>421.608</ele>
        <time>2019-06-22T15:12:17Z</time>
      </trkpt>
      <trkpt lat="41.080755" lon="-7.144270">
        <ele>427.746</ele>
        <time>2019-06-22T16:22:57Z</time>
      </trkpt>
      <trkpt lat="41.080713" lon="-7.144308">
        <ele>427.560</ele>
        <time>2019-06-22T16:23:08Z</time>
      </trkpt>
      <trkpt lat="41.080733" lon="-7.144244">
        <ele>427.692</ele>
        <time>2019-06-22T16:24:03Z</time>
      </trkpt>
      <trkpt lat="41.080688" lon="-7.144258">
        <ele>427.624</ele>
        <time>2019-06-22T16:24:11Z</time>
      </trkpt>
      <trkpt lat="41.080744" lon="-7.144252">
        <ele>427.762</ele>
        <time>2019-06-22T16:25:26Z</time>
      </trkpt>
      <trkpt lat="41.080794" lon="-7.144244">
        <ele>427.711</ele>
        <time>2019-06-22T16:26:53Z</time>
      </trkpt>
      <trkpt lat="41.080837" lon="-7.144278">
        <ele>427.726</ele>
        <time>2019-06-22T16:27:22Z</time>
      </trkpt>
      <trkpt lat="41.080912" lon="-7.144347">
        <ele>427.899</ele>
        <time>2019-06-22T16:27:24Z</time>
      </trkpt>
      <trkpt lat="41.080947" lon="-7.144396">
        <ele>427.954</ele>
        <time>2019-06-22T16:27:25Z</time>
      </trkpt>
      <trkpt lat="41.080972" lon="-7.144460">
        <ele>427.956</ele>
        <time>2019-06-22T16:27:26Z</time>
      </trkpt>
      <trkpt lat="41.080983" lon="-7.144542">
        <ele>427.911</ele>
        <time>2019-06-22T16:27:27Z</time>
      </trkpt>
      <trkpt lat="41.080976" lon="-7.144637">
        <ele>427.808</ele>
        <time>2019-06-22T16:27:28Z</time>
      </trkpt>
      <trkpt lat="41.080956" lon="-7.144740">
        <ele>427.798</ele>
        <time>2019-06-22T16:27:29Z</time>
      </trkpt>
      <trkpt lat="41.080933" lon="-7.144840">
        <ele>427.552</ele>
        <time>2019-06-22T16:27:30Z</time>
      </trkpt>
      <trkpt lat="41.080908" lon="-7.144931">
        <ele>427.224</ele>
        <time>2019-06-22T16:27:31Z</time>
      </trkpt>
      <trkpt lat="41.080853" lon="-7.144997">
        <ele>427.116</ele>
        <time>2019-06-22T16:27:32Z</time>
      </trkpt>
      <trkpt lat="41.080840" lon="-7.145062">
        <ele>427.074</ele>
        <time>2019-06-22T16:27:33Z</time>
      </trkpt>
      <trkpt lat="41.080812" lon="-7.145163">
        <ele>427.023</ele>
        <time>2019-06-22T16:27:35Z</time>
      </trkpt>
      <trkpt lat="41.080743" lon="-7.145203">
        <ele>426.648</ele>
        <time>2019-06-22T16:28:42Z</time>
      </trkpt>
      <trkpt lat="41.080706" lon="-7.145255">
        <ele>426.561</ele>
        <time>2019-06-22T16:28:43Z</time>
      </trkpt>
      <trkpt lat="41.080669" lon="-7.145327">
        <ele>426.528</ele>
        <time>2019-06-22T16:28:44Z</time>
      </trkpt>
      <trkpt lat="41.080634" lon="-7.145418">
        <ele>426.589</ele>
        <time>2019-06-22T16:28:45Z</time>
      </trkpt>
      <trkpt lat="41.080605" lon="-7.145516">
        <ele>426.517</ele>
        <time>2019-06-22T16:28:46Z</time>
      </trkpt>
      <trkpt lat="41.080583" lon="-7.145660">
        <ele>426.508</ele>
        <time>2019-06-22T16:28:47Z</time>
      </trkpt>
      <trkpt lat="41.080563" lon="-7.145772">
        <ele>426.735</ele>
        <time>2019-06-22T16:28:48Z</time>
      </trkpt>
      <trkpt lat="41.080546" lon="-7.145894">
        <ele>426.839</ele>
        <time>2019-06-22T16:28:49Z</time>
      </trkpt>
      <trkpt lat="41.080513" lon="-7.145996">
        <ele>427.031</ele>
        <time>2019-06-22T16:28:50Z</time>
      </trkpt>
      <trkpt lat="41.080461" lon="-7.146087">
        <ele>427.053</ele>
        <time>2019-06-22T16:28:51Z</time>
      </trkpt>
      <trkpt lat="41.080383" lon="-7.146177">
        <ele>427.081</ele>
        <time>2019-06-22T16:28:52Z</time>
      </trkpt>
      <trkpt lat="41.080295" lon="-7.146291">
        <ele>427.180</ele>
        <time>2019-06-22T16:28:53Z</time>
      </trkpt>
      <trkpt lat="41.080201" lon="-7.146416">
        <ele>427.215</ele>
        <time>2019-06-22T16:28:54Z</time>
      </trkpt>
      <trkpt lat="41.080089" lon="-7.146552">
        <ele>427.498</ele>
        <time>2019-06-22T16:28:55Z</time>
      </trkpt>
      <trkpt lat="41.079979" lon="-7.146685">
        <ele>427.692</ele>
        <time>2019-06-22T16:28:56Z</time>
      </trkpt>
      <trkpt lat="41.079870" lon="-7.146818">
        <ele>427.773</ele>
        <time>2019-06-22T16:28:57Z</time>
      </trkpt>
      <trkpt lat="41.079763" lon="-7.146951">
        <ele>427.720</ele>
        <time>2019-06-22T16:28:58Z</time>
      </trkpt>
      <trkpt lat="41.079653" lon="-7.147083">
        <ele>427.108</ele>
        <time>2019-06-22T16:28:59Z</time>
      </trkpt>
      <trkpt lat="41.079551" lon="-7.147208">
        <ele>426.772</ele>
        <time>2019-06-22T16:29:00Z</time>
      </trkpt>
      <trkpt lat="41.079451" lon="-7.147329">
        <ele>426.596</ele>
        <time>2019-06-22T16:29:01Z</time>
      </trkpt>
      <trkpt lat="41.079356" lon="-7.147444">
        <ele>426.338</ele>
        <time>2019-06-22T16:29:02Z</time>
      </trkpt>
      <trkpt lat="41.079272" lon="-7.147554">
        <ele>426.370</ele>
        <time>2019-06-22T16:29:03Z</time>
      </trkpt>
      <trkpt lat="41.079177" lon="-7.147658">
        <ele>426.358</ele>
        <time>2019-06-22T16:29:04Z</time>
      </trkpt>
      <trkpt lat="41.079089" lon="-7.147772">
        <ele>426.387</ele>
        <time>2019-06-22T16:29:05Z</time>
      </trkpt>
      <trkpt lat="41.078996" lon="-7.147891">
        <ele>426.232</ele>
        <time>2019-06-22T16:29:06Z</time>
      </trkpt>
      <trkpt lat="41.078897" lon="-7.147998">
        <ele>426.295</ele>
        <time>2019-06-22T16:29:07Z</time>
      </trkpt>
      <trkpt lat="41.078791" lon="-7.148100">
        <ele>426.145</ele>
        <time>2019-06-22T16:29:08Z</time>
      </trkpt>
      <trkpt lat="41.078684" lon="-7.148199">
        <ele>426.147</ele>
        <time>2019-06-22T16:29:09Z</time>
      </trkpt>
      <trkpt lat="41.078556" lon="-7.148299">
        <ele>426.411</ele>
        <time>2019-06-22T16:29:10Z</time>
      </trkpt>
      <trkpt lat="41.078433" lon="-7.148393">
        <ele>426.508</ele>
        <time>2019-06-22T16:29:11Z</time>
      </trkpt>
      <trkpt lat="41.078315" lon="-7.148483">
        <ele>426.687</ele>
        <time>2019-06-22T16:29:12Z</time>
      </trkpt>
      <trkpt lat="41.078210" lon="-7.148529">
        <ele>426.521</ele>
        <time>2019-06-22T16:29:13Z</time>
      </trkpt>
      <trkpt lat="41.078103" lon="-7.148613">
        <ele>426.323</ele>
        <time>2019-06-22T16:29:14Z</time>
      </trkpt>
      <trkpt lat="41.077998" lon="-7.148689">
        <ele>426.235</ele>
        <time>2019-06-22T16:29:15Z</time>
      </trkpt>
      <trkpt lat="41.077905" lon="-7.148764">
        <ele>426.263</ele>
        <time>2019-06-22T16:29:16Z</time>
      </trkpt>
      <trkpt lat="41.077816" lon="-7.148827">
        <ele>426.472</ele>
        <time>2019-06-22T16:29:17Z</time>
      </trkpt>
      <trkpt lat="41.077727" lon="-7.148899">
        <ele>426.797</ele>
        <time>2019-06-22T16:29:18Z</time>
      </trkpt>
      <trkpt lat="41.077644" lon="-7.148956">
        <ele>427.190</ele>
        <time>2019-06-22T16:29:19Z</time>
      </trkpt>
      <trkpt lat="41.077567" lon="-7.148993">
        <ele>427.258</ele>
        <time>2019-06-22T16:29:20Z</time>
      </trkpt>
      <trkpt lat="41.077479" lon="-7.149052">
        <ele>427.252</ele>
        <time>2019-06-22T16:29:21Z</time>
      </trkpt>
      <trkpt lat="41.077393" lon="-7.149114">
        <ele>427.217</ele>
        <time>2019-06-22T16:29:22Z</time>
      </trkpt>
      <trkpt lat="41.077307" lon="-7.149172">
        <ele>427.208</ele>
        <time>2019-06-22T16:29:23Z</time>
      </trkpt>
      <trkpt lat="41.077214" lon="-7.149244">
        <ele>427.298</ele>
        <time>2019-06-22T16:29:24Z</time>
      </trkpt>
      <trkpt lat="41.077107" lon="-7.149323">
        <ele>427.212</ele>
        <time>2019-06-22T16:29:25Z</time>
      </trkpt>
      <trkpt lat="41.077004" lon="-7.149408">
        <ele>427.394</ele>
        <time>2019-06-22T16:29:26Z</time>
      </trkpt>
      <trkpt lat="41.076896" lon="-7.149491">
        <ele>427.356</ele>
        <time>2019-06-22T16:29:27Z</time>
      </trkpt>
      <trkpt lat="41.076789" lon="-7.149560">
        <ele>427.484</ele>
        <time>2019-06-22T16:29:28Z</time>
      </trkpt>
      <trkpt lat="41.076665" lon="-7.149638">
        <ele>427.753</ele>
        <time>2019-06-22T16:29:29Z</time>
      </trkpt>
      <trkpt lat="41.076558" lon="-7.149729">
        <ele>428.078</ele>
        <time>2019-06-22T16:29:30Z</time>
      </trkpt>
      <trkpt lat="41.076455" lon="-7.149813">
        <ele>428.361</ele>
        <time>2019-06-22T16:29:31Z</time>
      </trkpt>
      <trkpt lat="41.076359" lon="-7.149884">
        <ele>428.822</ele>
        <time>2019-06-22T16:29:32Z</time>
      </trkpt>
      <trkpt lat="41.076264" lon="-7.149978">
        <ele>429.462</ele>
        <time>2019-06-22T16:29:33Z</time>
      </trkpt>
      <trkpt lat="41.076171" lon="-7.150070">
        <ele>429.908</ele>
        <time>2019-06-22T16:29:34Z</time>
      </trkpt>
      <trkpt lat="41.076103" lon="-7.150159">
        <ele>430.408</ele>
        <time>2019-06-22T16:29:35Z</time>
      </trkpt>
      <trkpt lat="41.076028" lon="-7.150227">
        <ele>431.065</ele>
        <time>2019-06-22T16:29:36Z</time>
      </trkpt>
      <trkpt lat="41.075955" lon="-7.150308">
        <ele>431.539</ele>
        <time>2019-06-22T16:29:37Z</time>
      </trkpt>
      <trkpt lat="41.075875" lon="-7.150386">
        <ele>431.711</ele>
        <time>2019-06-22T16:29:38Z</time>
      </trkpt>
      <trkpt lat="41.075789" lon="-7.150488">
        <ele>431.743</ele>
        <time>2019-06-22T16:29:39Z</time>
      </trkpt>
      <trkpt lat="41.075710" lon="-7.150588">
        <ele>431.471</ele>
        <time>2019-06-22T16:29:40Z</time>
      </trkpt>
      <trkpt lat="41.075631" lon="-7.150687">
        <ele>431.450</ele>
        <time>2019-06-22T16:29:41Z</time>
      </trkpt>
      <trkpt lat="41.075556" lon="-7.150796">
        <ele>431.295</ele>
        <time>2019-06-22T16:29:42Z</time>
      </trkpt>
      <trkpt lat="41.075465" lon="-7.150915">
        <ele>431.238</ele>
        <time>2019-06-22T16:29:43Z</time>
      </trkpt>
      <trkpt lat="41.075369" lon="-7.151041">
        <ele>431.328</ele>
        <time>2019-06-22T16:29:44Z</time>
      </trkpt>
      <trkpt lat="41.075259" lon="-7.151160">
        <ele>431.489</ele>
        <time>2019-06-22T16:29:45Z</time>
      </trkpt>
      <trkpt lat="41.075159" lon="-7.151265">
        <ele>431.417</ele>
        <time>2019-06-22T16:29:46Z</time>
      </trkpt>
      <trkpt lat="41.075063" lon="-7.151370">
        <ele>431.008</ele>
        <time>2019-06-22T16:29:47Z</time>
      </trkpt>
      <trkpt lat="41.074965" lon="-7.151479">
        <ele>430.725</ele>
        <time>2019-06-22T16:29:48Z</time>
      </trkpt>
      <trkpt lat="41.074885" lon="-7.151570">
        <ele>430.449</ele>
        <time>2019-06-22T16:29:49Z</time>
      </trkpt>
      <trkpt lat="41.074803" lon="-7.151664">
        <ele>429.441</ele>
        <time>2019-06-22T16:29:50Z</time>
      </trkpt>
      <trkpt lat="41.074738" lon="-7.151754">
        <ele>429.233</ele>
        <time>2019-06-22T16:29:51Z</time>
      </trkpt>
      <trkpt lat="41.074684" lon="-7.151853">
        <ele>429.261</ele>
        <time>2019-06-22T16:29:52Z</time>
      </trkpt>
      <trkpt lat="41.074638" lon="-7.151927">
        <ele>429.310</ele>
        <time>2019-06-22T16:29:53Z</time>
      </trkpt>
      <trkpt lat="41.074591" lon="-7.152027">
        <ele>429.365</ele>
        <time>2019-06-22T16:29:54Z</time>
      </trkpt>
      <trkpt lat="41.074551" lon="-7.152114">
        <ele>429.348</ele>
        <time>2019-06-22T16:29:55Z</time>
      </trkpt>
      <trkpt lat="41.074518" lon="-7.152171">
        <ele>429.754</ele>
        <time>2019-06-22T16:29:56Z</time>
      </trkpt>
      <trkpt lat="41.074479" lon="-7.152207">
        <ele>429.856</ele>
        <time>2019-06-22T16:29:57Z</time>
      </trkpt>
      <trkpt lat="41.074432" lon="-7.152234">
        <ele>429.911</ele>
        <time>2019-06-22T16:29:58Z</time>
      </trkpt>
      <trkpt lat="41.074372" lon="-7.152198">
        <ele>430.008</ele>
        <time>2019-06-22T16:29:59Z</time>
      </trkpt>
      <trkpt lat="41.074322" lon="-7.152169">
        <ele>430.568</ele>
        <time>2019-06-22T16:30:00Z</time>
      </trkpt>
      <trkpt lat="41.074277" lon="-7.152114">
        <ele>430.832</ele>
        <time>2019-06-22T16:30:01Z</time>
      </trkpt>
      <trkpt lat="41.074246" lon="-7.152023">
        <ele>430.834</ele>
        <time>2019-06-22T16:30:02Z</time>
      </trkpt>
      <trkpt lat="41.074218" lon="-7.151920">
        <ele>431.046</ele>
        <time>2019-06-22T16:30:03Z</time>
      </trkpt>
      <trkpt lat="41.074183" lon="-7.151806">
        <ele>431.194</ele>
        <time>2019-06-22T16:30:04Z</time>
      </trkpt>
      <trkpt lat="41.074134" lon="-7.151666">
        <ele>431.113</ele>
        <time>2019-06-22T16:30:05Z</time>
      </trkpt>
      <trkpt lat="41.074063" lon="-7.151495">
        <ele>431.188</ele>
        <time>2019-06-22T16:30:06Z</time>
      </trkpt>
      <trkpt lat="41.073974" lon="-7.151308">
        <ele>431.091</ele>
        <time>2019-06-22T16:30:07Z</time>
      </trkpt>
      <trkpt lat="41.073890" lon="-7.151130">
        <ele>430.735</ele>
        <time>2019-06-22T16:30:08Z</time>
      </trkpt>
      <trkpt lat="41.073830" lon="-7.150953">
        <ele>429.886</ele>
        <time>2019-06-22T16:30:09Z</time>
      </trkpt>
      <trkpt lat="41.073743" lon="-7.150767">
        <ele>429.414</ele>
        <time>2019-06-22T16:30:10Z</time>
      </trkpt>
      <trkpt lat="41.073647" lon="-7.150581">
        <ele>428.808</ele>
        <time>2019-06-22T16:30:11Z</time>
      </trkpt>
      <trkpt lat="41.073564" lon="-7.150404">
        <ele>428.886</ele>
        <time>2019-06-22T16:30:12Z</time>
      </trkpt>
      <trkpt lat="41.073471" lon="-7.150208">
        <ele>428.890</ele>
        <time>2019-06-22T16:30:13Z</time>
      </trkpt>
      <trkpt lat="41.073391" lon="-7.150022">
        <ele>428.872</ele>
        <time>2019-06-22T16:30:14Z</time>
      </trkpt>
      <trkpt lat="41.073319" lon="-7.149879">
        <ele>428.964</ele>
        <time>2019-06-22T16:30:15Z</time>
      </trkpt>
      <trkpt lat="41.073241" lon="-7.149708">
        <ele>429.272</ele>
        <time>2019-06-22T16:30:16Z</time>
      </trkpt>
      <trkpt lat="41.073161" lon="-7.149533">
        <ele>429.371</ele>
        <time>2019-06-22T16:30:17Z</time>
      </trkpt>
      <trkpt lat="41.073103" lon="-7.149368">
        <ele>429.346</ele>
        <time>2019-06-22T16:30:18Z</time>
      </trkpt>
      <trkpt lat="41.073034" lon="-7.149212">
        <ele>428.729</ele>
        <time>2019-06-22T16:30:19Z</time>
      </trkpt>
      <trkpt lat="41.072971" lon="-7.149062">
        <ele>428.716</ele>
        <time>2019-06-22T16:30:20Z</time>
      </trkpt>
      <trkpt lat="41.072897" lon="-7.148889">
        <ele>428.776</ele>
        <time>2019-06-22T16:30:21Z</time>
      </trkpt>
      <trkpt lat="41.072814" lon="-7.148721">
        <ele>428.513</ele>
        <time>2019-06-22T16:30:22Z</time>
      </trkpt>
      <trkpt lat="41.072752" lon="-7.148575">
        <ele>428.508</ele>
        <time>2019-06-22T16:30:23Z</time>
      </trkpt>
      <trkpt lat="41.072685" lon="-7.148440">
        <ele>428.384</ele>
        <time>2019-06-22T16:30:24Z</time>
      </trkpt>
      <trkpt lat="41.072622" lon="-7.148301">
        <ele>428.378</ele>
        <time>2019-06-22T16:30:25Z</time>
      </trkpt>
      <trkpt lat="41.072559" lon="-7.148167">
        <ele>428.560</ele>
        <time>2019-06-22T16:30:26Z</time>
      </trkpt>
      <trkpt lat="41.072506" lon="-7.148069">
        <ele>428.592</ele>
        <time>2019-06-22T16:30:27Z</time>
      </trkpt>
      <trkpt lat="41.072491" lon="-7.147955">
        <ele>428.690</ele>
        <time>2019-06-22T16:30:28Z</time>
      </trkpt>
      <trkpt lat="41.072468" lon="-7.147789">
        <ele>428.829</ele>
        <time>2019-06-22T16:30:29Z</time>
      </trkpt>
      <trkpt lat="41.072416" lon="-7.147603">
        <ele>429.394</ele>
        <time>2019-06-22T16:30:30Z</time>
      </trkpt>
      <trkpt lat="41.072367" lon="-7.147406">
        <ele>429.357</ele>
        <time>2019-06-22T16:30:31Z</time>
      </trkpt>
      <trkpt lat="41.072319" lon="-7.147197">
        <ele>429.364</ele>
        <time>2019-06-22T16:30:32Z</time>
      </trkpt>
      <trkpt lat="41.072273" lon="-7.146992">
        <ele>428.906</ele>
        <time>2019-06-22T16:30:33Z</time>
      </trkpt>
      <trkpt lat="41.072227" lon="-7.146781">
        <ele>428.616</ele>
        <time>2019-06-22T16:30:34Z</time>
      </trkpt>
      <trkpt lat="41.072183" lon="-7.146553">
        <ele>428.608</ele>
        <time>2019-06-22T16:30:35Z</time>
      </trkpt>
      <trkpt lat="41.072161" lon="-7.146322">
        <ele>428.649</ele>
        <time>2019-06-22T16:30:36Z</time>
      </trkpt>
      <trkpt lat="41.072135" lon="-7.146090">
        <ele>428.663</ele>
        <time>2019-06-22T16:30:37Z</time>
      </trkpt>
      <trkpt lat="41.072109" lon="-7.145867">
        <ele>428.755</ele>
        <time>2019-06-22T16:30:38Z</time>
      </trkpt>
      <trkpt lat="41.072092" lon="-7.145666">
        <ele>429.077</ele>
        <time>2019-06-22T16:30:39Z</time>
      </trkpt>
      <trkpt lat="41.072069" lon="-7.145472">
        <ele>429.155</ele>
        <time>2019-06-22T16:30:40Z</time>
      </trkpt>
      <trkpt lat="41.072049" lon="-7.145303">
        <ele>429.274</ele>
        <time>2019-06-22T16:30:41Z</time>
      </trkpt>
      <trkpt lat="41.072010" lon="-7.145164">
        <ele>429.279</ele>
        <time>2019-06-22T16:30:42Z</time>
      </trkpt>
      <trkpt lat="41.072010" lon="-7.145011">
        <ele>429.292</ele>
        <time>2019-06-22T16:30:43Z</time>
      </trkpt>
      <trkpt lat="41.072003" lon="-7.144823">
        <ele>429.269</ele>
        <time>2019-06-22T16:30:44Z</time>
      </trkpt>
      <trkpt lat="41.071991" lon="-7.144634">
        <ele>429.204</ele>
        <time>2019-06-22T16:30:45Z</time>
      </trkpt>
      <trkpt lat="41.071978" lon="-7.144428">
        <ele>428.824</ele>
        <time>2019-06-22T16:30:46Z</time>
      </trkpt>
      <trkpt lat="41.071973" lon="-7.144214">
        <ele>428.508</ele>
        <time>2019-06-22T16:30:47Z</time>
      </trkpt>
      <trkpt lat="41.071954" lon="-7.143991">
        <ele>428.189</ele>
        <time>2019-06-22T16:30:48Z</time>
      </trkpt>
      <trkpt lat="41.071938" lon="-7.143744">
        <ele>427.663</ele>
        <time>2019-06-22T16:30:49Z</time>
      </trkpt>
      <trkpt lat="41.071916" lon="-7.143508">
        <ele>427.235</ele>
        <time>2019-06-22T16:30:50Z</time>
      </trkpt>
      <trkpt lat="41.071899" lon="-7.143248">
        <ele>427.037</ele>
        <time>2019-06-22T16:30:51Z</time>
      </trkpt>
      <trkpt lat="41.071875" lon="-7.142983">
        <ele>426.835</ele>
        <time>2019-06-22T16:30:52Z</time>
      </trkpt>
      <trkpt lat="41.071842" lon="-7.142728">
        <ele>426.654</ele>
        <time>2019-06-22T16:30:53Z</time>
      </trkpt>
      <trkpt lat="41.071816" lon="-7.142463">
        <ele>426.139</ele>
        <time>2019-06-22T16:30:54Z</time>
      </trkpt>
      <trkpt lat="41.071790" lon="-7.142239">
        <ele>425.622</ele>
        <time>2019-06-22T16:30:55Z</time>
      </trkpt>
      <trkpt lat="41.071767" lon="-7.141977">
        <ele>425.415</ele>
        <time>2019-06-22T16:30:56Z</time>
      </trkpt>
      <trkpt lat="41.071758" lon="-7.141753">
        <ele>425.465</ele>
        <time>2019-06-22T16:30:57Z</time>
      </trkpt>
      <trkpt lat="41.071723" lon="-7.141538">
        <ele>425.411</ele>
        <time>2019-06-22T16:30:58Z</time>
      </trkpt>
      <trkpt lat="41.071705" lon="-7.141293">
        <ele>425.708</ele>
        <time>2019-06-22T16:30:59Z</time>
      </trkpt>
      <trkpt lat="41.071687" lon="-7.141041">
        <ele>425.814</ele>
        <time>2019-06-22T16:31:00Z</time>
      </trkpt>
      <trkpt lat="41.071669" lon="-7.140789">
        <ele>426.018</ele>
        <time>2019-06-22T16:31:01Z</time>
      </trkpt>
      <trkpt lat="41.071642" lon="-7.140532">
        <ele>426.130</ele>
        <time>2019-06-22T16:31:02Z</time>
      </trkpt>
      <trkpt lat="41.071620" lon="-7.140277">
        <ele>426.172</ele>
        <time>2019-06-22T16:31:03Z</time>
      </trkpt>
      <trkpt lat="41.071597" lon="-7.140020">
        <ele>425.410</ele>
        <time>2019-06-22T16:31:04Z</time>
      </trkpt>
      <trkpt lat="41.071572" lon="-7.139770">
        <ele>425.189</ele>
        <time>2019-06-22T16:31:05Z</time>
      </trkpt>
      <trkpt lat="41.071550" lon="-7.139520">
        <ele>424.764</ele>
        <time>2019-06-22T16:31:06Z</time>
      </trkpt>
      <trkpt lat="41.071525" lon="-7.139258">
        <ele>424.317</ele>
        <time>2019-06-22T16:31:07Z</time>
      </trkpt>
      <trkpt lat="41.071493" lon="-7.139007">
        <ele>423.862</ele>
        <time>2019-06-22T16:31:08Z</time>
      </trkpt>
      <trkpt lat="41.071485" lon="-7.138756">
        <ele>423.783</ele>
        <time>2019-06-22T16:31:09Z</time>
      </trkpt>
      <trkpt lat="41.071477" lon="-7.138509">
        <ele>423.311</ele>
        <time>2019-06-22T16:31:10Z</time>
      </trkpt>
      <trkpt lat="41.071461" lon="-7.138241">
        <ele>422.608</ele>
        <time>2019-06-22T16:31:11Z</time>
      </trkpt>
      <trkpt lat="41.071441" lon="-7.137999">
        <ele>421.929</ele>
        <time>2019-06-22T16:31:12Z</time>
      </trkpt>
      <trkpt lat="41.071420" lon="-7.137735">
        <ele>421.283</ele>
        <time>2019-06-22T16:31:13Z</time>
      </trkpt>
      <trkpt lat="41.071400" lon="-7.137495">
        <ele>420.995</ele>
        <time>2019-06-22T16:31:14Z</time>
      </trkpt>
      <trkpt lat="41.071377" lon="-7.137235">
        <ele>420.657</ele>
        <time>2019-06-22T16:31:15Z</time>
      </trkpt>
      <trkpt lat="41.071329" lon="-7.137004">
        <ele>420.645</ele>
        <time>2019-06-22T16:31:16Z</time>
      </trkpt>
      <trkpt lat="41.071296" lon="-7.136757">
        <ele>420.594</ele>
        <time>2019-06-22T16:31:17Z</time>
      </trkpt>
      <trkpt lat="41.071290" lon="-7.136509">
        <ele>420.219</ele>
        <time>2019-06-22T16:31:18Z</time>
      </trkpt>
      <trkpt lat="41.071259" lon="-7.136252">
        <ele>418.942</ele>
        <time>2019-06-22T16:31:19Z</time>
      </trkpt>
      <trkpt lat="41.071228" lon="-7.135982">
        <ele>417.529</ele>
        <time>2019-06-22T16:31:20Z</time>
      </trkpt>
      <trkpt lat="41.071191" lon="-7.135709">
        <ele>417.500</ele>
        <time>2019-06-22T16:31:21Z</time>
      </trkpt>
      <trkpt lat="41.071152" lon="-7.135414">
        <ele>415.820</ele>
        <time>2019-06-22T16:31:22Z</time>
      </trkpt>
      <trkpt lat="41.071108" lon="-7.135128">
        <ele>413.108</ele>
        <time>2019-06-22T16:31:23Z</time>
      </trkpt>
      <trkpt lat="41.071044" lon="-7.134844">
        <ele>413.135</ele>
        <time>2019-06-22T16:31:24Z</time>
      </trkpt>
      <trkpt lat="41.070981" lon="-7.134559">
        <ele>412.349</ele>
        <time>2019-06-22T16:31:25Z</time>
      </trkpt>
      <trkpt lat="41.070922" lon="-7.134273">
        <ele>411.531</ele>
        <time>2019-06-22T16:31:26Z</time>
      </trkpt>
      <trkpt lat="41.070858" lon="-7.134018">
        <ele>410.413</ele>
        <time>2019-06-22T16:31:27Z</time>
      </trkpt>
      <trkpt lat="41.070790" lon="-7.133751">
        <ele>409.561</ele>
        <time>2019-06-22T16:31:28Z</time>
      </trkpt>
      <trkpt lat="41.070738" lon="-7.133499">
        <ele>408.010</ele>
        <time>2019-06-22T16:31:29Z</time>
      </trkpt>
      <trkpt lat="41.070664" lon="-7.133259">
        <ele>406.485</ele>
        <time>2019-06-22T16:31:30Z</time>
      </trkpt>
      <trkpt lat="41.070585" lon="-7.133023">
        <ele>404.968</ele>
        <time>2019-06-22T16:31:31Z</time>
      </trkpt>
      <trkpt lat="41.070501" lon="-7.132794">
        <ele>404.124</ele>
        <time>2019-06-22T16:31:32Z</time>
      </trkpt>
      <trkpt lat="41.070418" lon="-7.132561">
        <ele>403.404</ele>
        <time>2019-06-22T16:31:33Z</time>
      </trkpt>
      <trkpt lat="41.070328" lon="-7.132319">
        <ele>402.914</ele>
        <time>2019-06-22T16:31:34Z</time>
      </trkpt>
      <trkpt lat="41.070240" lon="-7.132070">
        <ele>402.008</ele>
        <time>2019-06-22T16:31:35Z</time>
      </trkpt>
      <trkpt lat="41.070136" lon="-7.131828">
        <ele>401.185</ele>
        <time>2019-06-22T16:31:36Z</time>
      </trkpt>
      <trkpt lat="41.070027" lon="-7.131594">
        <ele>396.719</ele>
        <time>2019-06-22T16:31:37Z</time>
      </trkpt>
      <trkpt lat="41.069926" lon="-7.131359">
        <ele>396.731</ele>
        <time>2019-06-22T16:31:38Z</time>
      </trkpt>
      <trkpt lat="41.069810" lon="-7.131124">
        <ele>393.963</ele>
        <time>2019-06-22T16:31:39Z</time>
      </trkpt>
      <trkpt lat="41.069703" lon="-7.130875">
        <ele>391.891</ele>
        <time>2019-06-22T16:31:40Z</time>
      </trkpt>
      <trkpt lat="41.069588" lon="-7.130614">
        <ele>391.130</ele>
        <time>2019-06-22T16:31:41Z</time>
      </trkpt>
      <trkpt lat="41.069483" lon="-7.130388">
        <ele>390.115</ele>
        <time>2019-06-22T16:31:42Z</time>
      </trkpt>
      <trkpt lat="41.069369" lon="-7.130149">
        <ele>389.188</ele>
        <time>2019-06-22T16:31:43Z</time>
      </trkpt>
      <trkpt lat="41.069250" lon="-7.129897">
        <ele>387.958</ele>
        <time>2019-06-22T16:31:44Z</time>
      </trkpt>
      <trkpt lat="41.069133" lon="-7.129639">
        <ele>386.952</ele>
        <time>2019-06-22T16:31:45Z</time>
      </trkpt>
      <trkpt lat="41.069032" lon="-7.129400">
        <ele>384.317</ele>
        <time>2019-06-22T16:31:46Z</time>
      </trkpt>
      <trkpt lat="41.068939" lon="-7.129167">
        <ele>381.208</ele>
        <time>2019-06-22T16:31:47Z</time>
      </trkpt>
      <trkpt lat="41.068845" lon="-7.128911">
        <ele>379.398</ele>
        <time>2019-06-22T16:31:48Z</time>
      </trkpt>
      <trkpt lat="41.068767" lon="-7.128651">
        <ele>378.722</ele>
        <time>2019-06-22T16:31:49Z</time>
      </trkpt>
      <trkpt lat="41.068712" lon="-7.128389">
        <ele>377.264</ele>
        <time>2019-06-22T16:31:50Z</time>
      </trkpt>
      <trkpt lat="41.068669" lon="-7.128125">
        <ele>376.526</ele>
        <time>2019-06-22T16:31:51Z</time>
      </trkpt>
      <trkpt lat="41.068671" lon="-7.127858">
        <ele>376.274</ele>
        <time>2019-06-22T16:31:52Z</time>
      </trkpt>
      <trkpt lat="41.068685" lon="-7.127597">
        <ele>375.863</ele>
        <time>2019-06-22T16:31:53Z</time>
      </trkpt>
      <trkpt lat="41.068701" lon="-7.127334">
        <ele>374.338</ele>
        <time>2019-06-22T16:31:54Z</time>
      </trkpt>
      <trkpt lat="41.068748" lon="-7.127063">
        <ele>373.041</ele>
        <time>2019-06-22T16:31:55Z</time>
      </trkpt>
      <trkpt lat="41.068784" lon="-7.126832">
        <ele>371.596</ele>
        <time>2019-06-22T16:31:56Z</time>
      </trkpt>
      <trkpt lat="41.068841" lon="-7.126566">
        <ele>369.731</ele>
        <time>2019-06-22T16:31:57Z</time>
      </trkpt>
      <trkpt lat="41.068884" lon="-7.126312">
        <ele>367.124</ele>
        <time>2019-06-22T16:31:58Z</time>
      </trkpt>
      <trkpt lat="41.068937" lon="-7.126051">
        <ele>364.508</ele>
        <time>2019-06-22T16:31:59Z</time>
      </trkpt>
      <trkpt lat="41.069000" lon="-7.125786">
        <ele>362.562</ele>
        <time>2019-06-22T16:32:00Z</time>
      </trkpt>
      <trkpt lat="41.069049" lon="-7.125535">
        <ele>360.566</ele>
        <time>2019-06-22T16:32:01Z</time>
      </trkpt>
      <trkpt lat="41.069086" lon="-7.125269">
        <ele>358.428</ele>
        <time>2019-06-22T16:32:02Z</time>
      </trkpt>
      <trkpt lat="41.069115" lon="-7.125006">
        <ele>358.490</ele>
        <time>2019-06-22T16:32:03Z</time>
      </trkpt>
      <trkpt lat="41.069096" lon="-7.124743">
        <ele>358.398</ele>
        <time>2019-06-22T16:32:04Z</time>
      </trkpt>
      <trkpt lat="41.069062" lon="-7.124474">
        <ele>356.977</ele>
        <time>2019-06-22T16:32:05Z</time>
      </trkpt>
      <trkpt lat="41.069032" lon="-7.124216">
        <ele>354.022</ele>
        <time>2019-06-22T16:32:06Z</time>
      </trkpt>
      <trkpt lat="41.068996" lon="-7.123954">
        <ele>351.555</ele>
        <time>2019-06-22T16:32:07Z</time>
      </trkpt>
      <trkpt lat="41.068870" lon="-7.123656">
        <ele>349.591</ele>
        <time>2019-06-22T16:32:08Z</time>
      </trkpt>
      <trkpt lat="41.068781" lon="-7.123373">
        <ele>347.781</ele>
        <time>2019-06-22T16:32:09Z</time>
      </trkpt>
      <trkpt lat="41.068692" lon="-7.123103">
        <ele>346.419</ele>
        <time>2019-06-22T16:32:10Z</time>
      </trkpt>
      <trkpt lat="41.068605" lon="-7.122865">
        <ele>345.208</ele>
        <time>2019-06-22T16:32:11Z</time>
      </trkpt>
      <trkpt lat="41.068534" lon="-7.122613">
        <ele>344.152</ele>
        <time>2019-06-22T16:32:12Z</time>
      </trkpt>
      <trkpt lat="41.068467" lon="-7.122337">
        <ele>342.876</ele>
        <time>2019-06-22T16:32:13Z</time>
      </trkpt>
      <trkpt lat="41.068391" lon="-7.122072">
        <ele>341.238</ele>
        <time>2019-06-22T16:32:14Z</time>
      </trkpt>
      <trkpt lat="41.068330" lon="-7.121777">
        <ele>339.380</ele>
        <time>2019-06-22T16:32:15Z</time>
      </trkpt>
      <trkpt lat="41.068275" lon="-7.121537">
        <ele>338.358</ele>
        <time>2019-06-22T16:32:16Z</time>
      </trkpt>
      <trkpt lat="41.068216" lon="-7.121277">
        <ele>337.637</ele>
        <time>2019-06-22T16:32:17Z</time>
      </trkpt>
      <trkpt lat="41.068193" lon="-7.121027">
        <ele>336.182</ele>
        <time>2019-06-22T16:32:18Z</time>
      </trkpt>
      <trkpt lat="41.068155" lon="-7.120749">
        <ele>333.735</ele>
        <time>2019-06-22T16:32:19Z</time>
      </trkpt>
      <trkpt lat="41.068130" lon="-7.120504">
        <ele>332.242</ele>
        <time>2019-06-22T16:32:20Z</time>
      </trkpt>
      <trkpt lat="41.068083" lon="-7.120236">
        <ele>330.522</ele>
        <time>2019-06-22T16:32:21Z</time>
      </trkpt>
      <trkpt lat="41.068021" lon="-7.119994">
        <ele>329.014</ele>
        <time>2019-06-22T16:32:22Z</time>
      </trkpt>
      <trkpt lat="41.067943" lon="-7.119761">
        <ele>327.408</ele>
        <time>2019-06-22T16:32:23Z</time>
      </trkpt>
      <trkpt lat="41.067859" lon="-7.119549">
        <ele>326.267</ele>
        <time>2019-06-22T16:32:24Z</time>
      </trkpt>
      <trkpt lat="41.067731" lon="-7.119378">
        <ele>325.271</ele>
        <time>2019-06-22T16:32:25Z</time>
      </trkpt>
      <trkpt lat="41.067616" lon="-7.119218">
        <ele>325.283</ele>
        <time>2019-06-22T16:32:26Z</time>
      </trkpt>
      <trkpt lat="41.067505" lon="-7.119076">
        <ele>324.185</ele>
        <time>2019-06-22T16:32:27Z</time>
      </trkpt>
      <trkpt lat="41.067409" lon="-7.118931">
        <ele>323.343</ele>
        <time>2019-06-22T16:32:28Z</time>
      </trkpt>
      <trkpt lat="41.067351" lon="-7.118764">
        <ele>322.832</ele>
        <time>2019-06-22T16:32:29Z</time>
      </trkpt>
      <trkpt lat="41.067327" lon="-7.118546">
        <ele>322.587</ele>
        <time>2019-06-22T16:32:30Z</time>
      </trkpt>
      <trkpt lat="41.067290" lon="-7.118359">
        <ele>321.930</ele>
        <time>2019-06-22T16:32:31Z</time>
      </trkpt>
      <trkpt lat="41.067325" lon="-7.118112">
        <ele>321.043</ele>
        <time>2019-06-22T16:32:32Z</time>
      </trkpt>
      <trkpt lat="41.067344" lon="-7.117882">
        <ele>320.064</ele>
        <time>2019-06-22T16:32:33Z</time>
      </trkpt>
      <trkpt lat="41.067369" lon="-7.117642">
        <ele>318.810</ele>
        <time>2019-06-22T16:32:34Z</time>
      </trkpt>
      <trkpt lat="41.067395" lon="-7.117407">
        <ele>317.108</ele>
        <time>2019-06-22T16:32:35Z</time>
      </trkpt>
      <trkpt lat="41.067407" lon="-7.117168">
        <ele>315.097</ele>
        <time>2019-06-22T16:32:36Z</time>
      </trkpt>
      <trkpt lat="41.067378" lon="-7.116941">
        <ele>311.971</ele>
        <time>2019-06-22T16:32:37Z</time>
      </trkpt>
      <trkpt lat="41.067336" lon="-7.116743">
        <ele>308.513</ele>
        <time>2019-06-22T16:32:38Z</time>
      </trkpt>
      <trkpt lat="41.067285" lon="-7.116522">
        <ele>306.285</ele>
        <time>2019-06-22T16:32:39Z</time>
      </trkpt>
      <trkpt lat="41.067231" lon="-7.116300">
        <ele>305.023</ele>
        <time>2019-06-22T16:32:40Z</time>
      </trkpt>
      <trkpt lat="41.067213" lon="-7.116090">
        <ele>304.722</ele>
        <time>2019-06-22T16:32:41Z</time>
      </trkpt>
      <trkpt lat="41.067195" lon="-7.115845">
        <ele>304.727</ele>
        <time>2019-06-22T16:32:42Z</time>
      </trkpt>
      <trkpt lat="41.067212" lon="-7.115634">
        <ele>304.940</ele>
        <time>2019-06-22T16:32:43Z</time>
      </trkpt>
      <trkpt lat="41.067212" lon="-7.115430">
        <ele>304.923</ele>
        <time>2019-06-22T16:32:44Z</time>
      </trkpt>
      <trkpt lat="41.067201" lon="-7.115208">
        <ele>303.783</ele>
        <time>2019-06-22T16:32:45Z</time>
      </trkpt>
      <trkpt lat="41.067169" lon="-7.114988">
        <ele>302.211</ele>
        <time>2019-06-22T16:32:46Z</time>
      </trkpt>
      <trkpt lat="41.067112" lon="-7.114770">
        <ele>300.208</ele>
        <time>2019-06-22T16:32:47Z</time>
      </trkpt>
      <trkpt lat="41.067032" lon="-7.114578">
        <ele>297.945</ele>
        <time>2019-06-22T16:32:48Z</time>
      </trkpt>
      <trkpt lat="41.066942" lon="-7.114389">
        <ele>295.969</ele>
        <time>2019-06-22T16:32:49Z</time>
      </trkpt>
      <trkpt lat="41.066832" lon="-7.114193">
        <ele>293.951</ele>
        <time>2019-06-22T16:32:50Z</time>
      </trkpt>
      <trkpt lat="41.066722" lon="-7.114040">
        <ele>291.513</ele>
        <time>2019-06-22T16:32:51Z</time>
      </trkpt>
      <trkpt lat="41.066600" lon="-7.113877">
        <ele>289.981</ele>
        <time>2019-06-22T16:32:52Z</time>
      </trkpt>
      <trkpt lat="41.066483" lon="-7.113710">
        <ele>289.560</ele>
        <time>2019-06-22T16:32:53Z</time>
      </trkpt>
      <trkpt lat="41.066369" lon="-7.113508">
        <ele>288.795</ele>
        <time>2019-06-22T16:32:54Z</time>
      </trkpt>
      <trkpt lat="41.066269" lon="-7.113309">
        <ele>288.678</ele>
        <time>2019-06-22T16:32:55Z</time>
      </trkpt>
      <trkpt lat="41.066177" lon="-7.113103">
        <ele>287.891</ele>
        <time>2019-06-22T16:32:56Z</time>
      </trkpt>
      <trkpt lat="41.066078" lon="-7.112931">
        <ele>287.081</ele>
        <time>2019-06-22T16:32:57Z</time>
      </trkpt>
      <trkpt lat="41.065992" lon="-7.112736">
        <ele>285.319</ele>
        <time>2019-06-22T16:32:58Z</time>
      </trkpt>
      <trkpt lat="41.065894" lon="-7.112563">
        <ele>283.108</ele>
        <time>2019-06-22T16:32:59Z</time>
      </trkpt>
      <trkpt lat="41.065804" lon="-7.112374">
        <ele>281.682</ele>
        <time>2019-06-22T16:33:00Z</time>
      </trkpt>
      <trkpt lat="41.065718" lon="-7.112131">
        <ele>280.456</ele>
        <time>2019-06-22T16:33:01Z</time>
      </trkpt>
      <trkpt lat="41.065649" lon="-7.111909">
        <ele>279.528</ele>
        <time>2019-06-22T16:33:02Z</time>
      </trkpt>
      <trkpt lat="41.065584" lon="-7.111667">
        <ele>278.480</ele>
        <time>2019-06-22T16:33:03Z</time>
      </trkpt>
      <trkpt lat="41.065525" lon="-7.111410">
        <ele>278.178</ele>
        <time>2019-06-22T16:33:04Z</time>
      </trkpt>
      <trkpt lat="41.065470" lon="-7.111161">
        <ele>276.837</ele>
        <time>2019-06-22T16:33:05Z</time>
      </trkpt>
      <trkpt lat="41.065417" lon="-7.110915">
        <ele>275.642</ele>
        <time>2019-06-22T16:33:06Z</time>
      </trkpt>
      <trkpt lat="41.065371" lon="-7.110677">
        <ele>274.235</ele>
        <time>2019-06-22T16:33:07Z</time>
      </trkpt>
      <trkpt lat="41.065317" lon="-7.110451">
        <ele>272.074</ele>
        <time>2019-06-22T16:33:08Z</time>
      </trkpt>
      <trkpt lat="41.065277" lon="-7.110212">
        <ele>270.456</ele>
        <time>2019-06-22T16:33:09Z</time>
      </trkpt>
      <trkpt lat="41.065245" lon="-7.109970">
        <ele>269.321</ele>
        <time>2019-06-22T16:33:10Z</time>
      </trkpt>
      <trkpt lat="41.065211" lon="-7.109747">
        <ele>267.908</ele>
        <time>2019-06-22T16:33:11Z</time>
      </trkpt>
      <trkpt lat="41.065214" lon="-7.109500">
        <ele>266.790</ele>
        <time>2019-06-22T16:33:12Z</time>
      </trkpt>
      <trkpt lat="41.065238" lon="-7.109278">
        <ele>266.334</ele>
        <time>2019-06-22T16:33:13Z</time>
      </trkpt>
      <trkpt lat="41.065271" lon="-7.109071">
        <ele>265.336</ele>
        <time>2019-06-22T16:33:14Z</time>
      </trkpt>
      <trkpt lat="41.065329" lon="-7.108870">
        <ele>264.148</ele>
        <time>2019-06-22T16:33:15Z</time>
      </trkpt>
      <trkpt lat="41.065409" lon="-7.108674">
        <ele>263.086</ele>
        <time>2019-06-22T16:33:16Z</time>
      </trkpt>
      <trkpt lat="41.065513" lon="-7.108491">
        <ele>261.845</ele>
        <time>2019-06-22T16:33:17Z</time>
      </trkpt>
      <trkpt lat="41.065643" lon="-7.108324">
        <ele>260.720</ele>
        <time>2019-06-22T16:33:18Z</time>
      </trkpt>
      <trkpt lat="41.065779" lon="-7.108182">
        <ele>259.963</ele>
        <time>2019-06-22T16:33:19Z</time>
      </trkpt>
      <trkpt lat="41.065911" lon="-7.108073">
        <ele>258.919</ele>
        <time>2019-06-22T16:33:20Z</time>
      </trkpt>
      <trkpt lat="41.066069" lon="-7.108003">
        <ele>257.809</ele>
        <time>2019-06-22T16:33:21Z</time>
      </trkpt>
      <trkpt lat="41.066227" lon="-7.107937">
        <ele>256.719</ele>
        <time>2019-06-22T16:33:22Z</time>
      </trkpt>
      <trkpt lat="41.066397" lon="-7.107977">
        <ele>255.408</ele>
        <time>2019-06-22T16:33:23Z</time>
      </trkpt>
      <trkpt lat="41.066573" lon="-7.108004">
        <ele>253.744</ele>
        <time>2019-06-22T16:33:24Z</time>
      </trkpt>
      <trkpt lat="41.066747" lon="-7.108049">
        <ele>252.378</ele>
        <time>2019-06-22T16:33:25Z</time>
      </trkpt>
      <trkpt lat="41.066934" lon="-7.108184">
        <ele>250.520</ele>
        <time>2019-06-22T16:33:26Z</time>
      </trkpt>
      <trkpt lat="41.067113" lon="-7.108291">
        <ele>248.412</ele>
        <time>2019-06-22T16:33:27Z</time>
      </trkpt>
      <trkpt lat="41.067288" lon="-7.108380">
        <ele>246.330</ele>
        <time>2019-06-22T16:33:28Z</time>
      </trkpt>
      <trkpt lat="41.067458" lon="-7.108474">
        <ele>245.169</ele>
        <time>2019-06-22T16:33:29Z</time>
      </trkpt>
      <trkpt lat="41.067599" lon="-7.108586">
        <ele>242.954</ele>
        <time>2019-06-22T16:33:30Z</time>
      </trkpt>
      <trkpt lat="41.067768" lon="-7.108663">
        <ele>242.937</ele>
        <time>2019-06-22T16:33:31Z</time>
      </trkpt>
      <trkpt lat="41.067917" lon="-7.108750">
        <ele>241.433</ele>
        <time>2019-06-22T16:33:32Z</time>
      </trkpt>
      <trkpt lat="41.068062" lon="-7.108832">
        <ele>239.623</ele>
        <time>2019-06-22T16:33:33Z</time>
      </trkpt>
      <trkpt lat="41.068185" lon="-7.108900">
        <ele>238.415</ele>
        <time>2019-06-22T16:33:34Z</time>
      </trkpt>
      <trkpt lat="41.068294" lon="-7.108946">
        <ele>236.608</ele>
        <time>2019-06-22T16:33:35Z</time>
      </trkpt>
      <trkpt lat="41.068397" lon="-7.108990">
        <ele>235.656</ele>
        <time>2019-06-22T16:33:36Z</time>
      </trkpt>
      <trkpt lat="41.068500" lon="-7.109026">
        <ele>234.510</ele>
        <time>2019-06-22T16:33:37Z</time>
      </trkpt>
      <trkpt lat="41.068595" lon="-7.109065">
        <ele>234.232</ele>
        <time>2019-06-22T16:33:38Z</time>
      </trkpt>
      <trkpt lat="41.068689" lon="-7.109087">
        <ele>233.474</ele>
        <time>2019-06-22T16:33:39Z</time>
      </trkpt>
      <trkpt lat="41.068764" lon="-7.109117">
        <ele>233.282</ele>
        <time>2019-06-22T16:33:40Z</time>
      </trkpt>
      <trkpt lat="41.068821" lon="-7.109140">
        <ele>232.511</ele>
        <time>2019-06-22T16:33:41Z</time>
      </trkpt>
      <trkpt lat="41.068880" lon="-7.109165">
        <ele>231.876</ele>
        <time>2019-06-22T16:33:42Z</time>
      </trkpt>
      <trkpt lat="41.068937" lon="-7.109184">
        <ele>231.279</ele>
        <time>2019-06-22T16:33:43Z</time>
      </trkpt>
      <trkpt lat="41.069018" lon="-7.109222">
        <ele>230.589</ele>
        <time>2019-06-22T16:33:45Z</time>
      </trkpt>
      <trkpt lat="41.069077" lon="-7.109234">
        <ele>230.206</ele>
        <time>2019-06-22T16:33:46Z</time>
      </trkpt>
      <trkpt lat="41.069143" lon="-7.109242">
        <ele>230.126</ele>
        <time>2019-06-22T16:33:47Z</time>
      </trkpt>
      <trkpt lat="41.069199" lon="-7.109262">
        <ele>230.008</ele>
        <time>2019-06-22T16:33:48Z</time>
      </trkpt>
      <trkpt lat="41.069248" lon="-7.109295">
        <ele>229.871</ele>
        <time>2019-06-22T16:33:49Z</time>
      </trkpt>
      <trkpt lat="41.069299" lon="-7.109323">
        <ele>229.535</ele>
        <time>2019-06-22T16:33:50Z</time>
      </trkpt>
      <trkpt lat="41.069351" lon="-7.109331">
        <ele>228.167</ele>
        <time>2019-06-22T16:35:14Z</time>
      </trkpt>
      <trkpt lat="41.069396" lon="-7.109356">
        <ele>227.899</ele>
        <time>2019-06-22T16:35:18Z</time>
      </trkpt>
      <trkpt lat="41.069476" lon="-7.109410">
        <ele>227.557</ele>
        <time>2019-06-22T16:35:20Z</time>
      </trkpt>
      <trkpt lat="41.069566" lon="-7.109455">
        <ele>227.326</ele>
        <time>2019-06-22T16:35:21Z</time>
      </trkpt>
      <trkpt lat="41.069664" lon="-7.109515">
        <ele>226.991</ele>
        <time>2019-06-22T16:35:22Z</time>
      </trkpt>
      <trkpt lat="41.069781" lon="-7.109559">
        <ele>226.594</ele>
        <time>2019-06-22T16:35:23Z</time>
      </trkpt>
      <trkpt lat="41.069929" lon="-7.109601">
        <ele>225.938</ele>
        <time>2019-06-22T16:35:24Z</time>
      </trkpt>
      <trkpt lat="41.070093" lon="-7.109621">
        <ele>224.870</ele>
        <time>2019-06-22T16:35:25Z</time>
      </trkpt>
      <trkpt lat="41.070278" lon="-7.109635">
        <ele>223.417</ele>
        <time>2019-06-22T16:35:26Z</time>
      </trkpt>
      <trkpt lat="41.070467" lon="-7.109626">
        <ele>222.108</ele>
        <time>2019-06-22T16:35:27Z</time>
      </trkpt>
      <trkpt lat="41.070664" lon="-7.109613">
        <ele>221.046</ele>
        <time>2019-06-22T16:35:28Z</time>
      </trkpt>
      <trkpt lat="41.070860" lon="-7.109598">
        <ele>219.870</ele>
        <time>2019-06-22T16:35:29Z</time>
      </trkpt>
      <trkpt lat="41.071040" lon="-7.109577">
        <ele>218.972</ele>
        <time>2019-06-22T16:35:30Z</time>
      </trkpt>
      <trkpt lat="41.071233" lon="-7.109561">
        <ele>218.224</ele>
        <time>2019-06-22T16:35:31Z</time>
      </trkpt>
      <trkpt lat="41.071420" lon="-7.109547">
        <ele>217.282</ele>
        <time>2019-06-22T16:35:32Z</time>
      </trkpt>
      <trkpt lat="41.071623" lon="-7.109532">
        <ele>215.851</ele>
        <time>2019-06-22T16:35:33Z</time>
      </trkpt>
      <trkpt lat="41.071832" lon="-7.109529">
        <ele>213.926</ele>
        <time>2019-06-22T16:35:34Z</time>
      </trkpt>
      <trkpt lat="41.072014" lon="-7.109501">
        <ele>212.069</ele>
        <time>2019-06-22T16:35:35Z</time>
      </trkpt>
      <trkpt lat="41.072200" lon="-7.109486">
        <ele>210.532</ele>
        <time>2019-06-22T16:35:36Z</time>
      </trkpt>
      <trkpt lat="41.072392" lon="-7.109478">
        <ele>208.792</ele>
        <time>2019-06-22T16:35:37Z</time>
      </trkpt>
      <trkpt lat="41.072572" lon="-7.109472">
        <ele>206.811</ele>
        <time>2019-06-22T16:35:38Z</time>
      </trkpt>
      <trkpt lat="41.072738" lon="-7.109459">
        <ele>205.408</ele>
        <time>2019-06-22T16:35:39Z</time>
      </trkpt>
      <trkpt lat="41.072931" lon="-7.109473">
        <ele>204.436</ele>
        <time>2019-06-22T16:35:40Z</time>
      </trkpt>
      <trkpt lat="41.073114" lon="-7.109478">
        <ele>203.010</ele>
        <time>2019-06-22T16:35:41Z</time>
      </trkpt>
      <trkpt lat="41.073295" lon="-7.109541">
        <ele>202.142</ele>
        <time>2019-06-22T16:35:42Z</time>
      </trkpt>
      <trkpt lat="41.073472" lon="-7.109579">
        <ele>201.384</ele>
        <time>2019-06-22T16:35:43Z</time>
      </trkpt>
      <trkpt lat="41.073645" lon="-7.109648">
        <ele>200.232</ele>
        <time>2019-06-22T16:35:44Z</time>
      </trkpt>
      <trkpt lat="41.073810" lon="-7.109695">
        <ele>198.931</ele>
        <time>2019-06-22T16:35:45Z</time>
      </trkpt>
      <trkpt lat="41.073979" lon="-7.109741">
        <ele>197.526</ele>
        <time>2019-06-22T16:35:46Z</time>
      </trkpt>
      <trkpt lat="41.074121" lon="-7.109769">
        <ele>194.239</ele>
        <time>2019-06-22T16:35:47Z</time>
      </trkpt>
      <trkpt lat="41.074282" lon="-7.109778">
        <ele>191.678</ele>
        <time>2019-06-22T16:35:48Z</time>
      </trkpt>
      <trkpt lat="41.074433" lon="-7.109717">
        <ele>188.633</ele>
        <time>2019-06-22T16:35:49Z</time>
      </trkpt>
      <trkpt lat="41.074570" lon="-7.109632">
        <ele>186.326</ele>
        <time>2019-06-22T16:35:50Z</time>
      </trkpt>
      <trkpt lat="41.074695" lon="-7.109526">
        <ele>185.508</ele>
        <time>2019-06-22T16:35:51Z</time>
      </trkpt>
      <trkpt lat="41.074807" lon="-7.109398">
        <ele>185.560</ele>
        <time>2019-06-22T16:35:52Z</time>
      </trkpt>
      <trkpt lat="41.074911" lon="-7.109242">
        <ele>186.414</ele>
        <time>2019-06-22T16:35:53Z</time>
      </trkpt>
      <trkpt lat="41.074998" lon="-7.109070">
        <ele>188.266</ele>
        <time>2019-06-22T16:35:54Z</time>
      </trkpt>
      <trkpt lat="41.075080" lon="-7.108870">
        <ele>189.898</ele>
        <time>2019-06-22T16:35:55Z</time>
      </trkpt>
      <trkpt lat="41.075151" lon="-7.108659">
        <ele>190.186</ele>
        <time>2019-06-22T16:35:56Z</time>
      </trkpt>
      <trkpt lat="41.075214" lon="-7.108435">
        <ele>190.195</ele>
        <time>2019-06-22T16:35:57Z</time>
      </trkpt>
      <trkpt lat="41.075284" lon="-7.108209">
        <ele>189.270</ele>
        <time>2019-06-22T16:35:58Z</time>
      </trkpt>
      <trkpt lat="41.075354" lon="-7.107979">
        <ele>188.113</ele>
        <time>2019-06-22T16:35:59Z</time>
      </trkpt>
      <trkpt lat="41.075416" lon="-7.107759">
        <ele>186.437</ele>
        <time>2019-06-22T16:36:00Z</time>
      </trkpt>
      <trkpt lat="41.075484" lon="-7.107547">
        <ele>184.749</ele>
        <time>2019-06-22T16:36:01Z</time>
      </trkpt>
      <trkpt lat="41.075550" lon="-7.107341">
        <ele>183.913</ele>
        <time>2019-06-22T16:36:02Z</time>
      </trkpt>
      <trkpt lat="41.075614" lon="-7.107159">
        <ele>183.908</ele>
        <time>2019-06-22T16:36:03Z</time>
      </trkpt>
      <trkpt lat="41.075690" lon="-7.106952">
        <ele>184.626</ele>
        <time>2019-06-22T16:36:04Z</time>
      </trkpt>
      <trkpt lat="41.075779" lon="-7.106752">
        <ele>186.120</ele>
        <time>2019-06-22T16:36:05Z</time>
      </trkpt>
      <trkpt lat="41.075882" lon="-7.106569">
        <ele>187.492</ele>
        <time>2019-06-22T16:36:06Z</time>
      </trkpt>
      <trkpt lat="41.076010" lon="-7.106417">
        <ele>188.964</ele>
        <time>2019-06-22T16:36:07Z</time>
      </trkpt>
      <trkpt lat="41.076157" lon="-7.106303">
        <ele>189.712</ele>
        <time>2019-06-22T16:36:08Z</time>
      </trkpt>
      <trkpt lat="41.076309" lon="-7.106218">
        <ele>190.251</ele>
        <time>2019-06-22T16:36:09Z</time>
      </trkpt>
      <trkpt lat="41.076482" lon="-7.106168">
        <ele>190.466</ele>
        <time>2019-06-22T16:36:10Z</time>
      </trkpt>
      <trkpt lat="41.076664" lon="-7.106142">
        <ele>190.429</ele>
        <time>2019-06-22T16:36:11Z</time>
      </trkpt>
      <trkpt lat="41.076849" lon="-7.106132">
        <ele>192.525</ele>
        <time>2019-06-22T16:36:12Z</time>
      </trkpt>
      <trkpt lat="41.077037" lon="-7.106117">
        <ele>192.526</ele>
        <time>2019-06-22T16:36:13Z</time>
      </trkpt>
      <trkpt lat="41.077209" lon="-7.106099">
        <ele>193.308</ele>
        <time>2019-06-22T16:36:14Z</time>
      </trkpt>
      <trkpt lat="41.077399" lon="-7.106061">
        <ele>194.208</ele>
        <time>2019-06-22T16:36:15Z</time>
      </trkpt>
      <trkpt lat="41.077617" lon="-7.105984">
        <ele>194.935</ele>
        <time>2019-06-22T16:36:16Z</time>
      </trkpt>
      <trkpt lat="41.077793" lon="-7.105921">
        <ele>195.499</ele>
        <time>2019-06-22T16:36:17Z</time>
      </trkpt>
      <trkpt lat="41.077958" lon="-7.105836">
        <ele>195.981</ele>
        <time>2019-06-22T16:36:18Z</time>
      </trkpt>
      <trkpt lat="41.078075" lon="-7.105694">
        <ele>196.893</ele>
        <time>2019-06-22T16:36:19Z</time>
      </trkpt>
      <trkpt lat="41.078221" lon="-7.105563">
        <ele>197.881</ele>
        <time>2019-06-22T16:36:20Z</time>
      </trkpt>
      <trkpt lat="41.078275" lon="-7.105369">
        <ele>202.750</ele>
        <time>2019-06-22T16:36:21Z</time>
      </trkpt>
      <trkpt lat="41.078372" lon="-7.105216">
        <ele>202.785</ele>
        <time>2019-06-22T16:36:22Z</time>
      </trkpt>
      <trkpt lat="41.078465" lon="-7.105047">
        <ele>202.778</ele>
        <time>2019-06-22T16:36:23Z</time>
      </trkpt>
      <trkpt lat="41.078587" lon="-7.104871">
        <ele>204.486</ele>
        <time>2019-06-22T16:36:24Z</time>
      </trkpt>
      <trkpt lat="41.078692" lon="-7.104711">
        <ele>206.060</ele>
        <time>2019-06-22T16:36:25Z</time>
      </trkpt>
      <trkpt lat="41.078783" lon="-7.104541">
        <ele>206.826</ele>
        <time>2019-06-22T16:36:26Z</time>
      </trkpt>
      <trkpt lat="41.078859" lon="-7.104351">
        <ele>207.608</ele>
        <time>2019-06-22T16:36:27Z</time>
      </trkpt>
      <trkpt lat="41.078932" lon="-7.104127">
        <ele>208.881</ele>
        <time>2019-06-22T16:36:28Z</time>
      </trkpt>
      <trkpt lat="41.078965" lon="-7.103917">
        <ele>209.745</ele>
        <time>2019-06-22T16:36:29Z</time>
      </trkpt>
      <trkpt lat="41.079014" lon="-7.103709">
        <ele>210.757</ele>
        <time>2019-06-22T16:36:30Z</time>
      </trkpt>
      <trkpt lat="41.079026" lon="-7.103528">
        <ele>211.669</ele>
        <time>2019-06-22T16:36:31Z</time>
      </trkpt>
      <trkpt lat="41.078956" lon="-7.103314">
        <ele>212.777</ele>
        <time>2019-06-22T16:36:32Z</time>
      </trkpt>
      <trkpt lat="41.078901" lon="-7.103111">
        <ele>213.876</ele>
        <time>2019-06-22T16:36:33Z</time>
      </trkpt>
      <trkpt lat="41.078833" lon="-7.102925">
        <ele>214.591</ele>
        <time>2019-06-22T16:36:34Z</time>
      </trkpt>
      <trkpt lat="41.078758" lon="-7.102737">
        <ele>215.294</ele>
        <time>2019-06-22T16:36:35Z</time>
      </trkpt>
      <trkpt lat="41.078646" lon="-7.102558">
        <ele>216.493</ele>
        <time>2019-06-22T16:36:36Z</time>
      </trkpt>
      <trkpt lat="41.078482" lon="-7.102430">
        <ele>217.565</ele>
        <time>2019-06-22T16:36:37Z</time>
      </trkpt>
      <trkpt lat="41.078320" lon="-7.102281">
        <ele>218.221</ele>
        <time>2019-06-22T16:36:38Z</time>
      </trkpt>
      <trkpt lat="41.078161" lon="-7.102144">
        <ele>219.308</ele>
        <time>2019-06-22T16:36:39Z</time>
      </trkpt>
      <trkpt lat="41.077998" lon="-7.101999">
        <ele>220.972</ele>
        <time>2019-06-22T16:36:40Z</time>
      </trkpt>
      <trkpt lat="41.077835" lon="-7.101859">
        <ele>222.836</ele>
        <time>2019-06-22T16:36:41Z</time>
      </trkpt>
      <trkpt lat="41.077676" lon="-7.101702">
        <ele>224.598</ele>
        <time>2019-06-22T16:36:42Z</time>
      </trkpt>
      <trkpt lat="41.077510" lon="-7.101549">
        <ele>225.650</ele>
        <time>2019-06-22T16:36:43Z</time>
      </trkpt>
      <trkpt lat="41.077347" lon="-7.101406">
        <ele>226.818</ele>
        <time>2019-06-22T16:36:44Z</time>
      </trkpt>
      <trkpt lat="41.077183" lon="-7.101268">
        <ele>227.967</ele>
        <time>2019-06-22T16:36:45Z</time>
      </trkpt>
      <trkpt lat="41.077025" lon="-7.101114">
        <ele>229.582</ele>
        <time>2019-06-22T16:36:46Z</time>
      </trkpt>
      <trkpt lat="41.076863" lon="-7.100945">
        <ele>231.485</ele>
        <time>2019-06-22T16:36:47Z</time>
      </trkpt>
      <trkpt lat="41.076728" lon="-7.100759">
        <ele>233.984</ele>
        <time>2019-06-22T16:36:48Z</time>
      </trkpt>
      <trkpt lat="41.076580" lon="-7.100586">
        <ele>236.407</ele>
        <time>2019-06-22T16:36:49Z</time>
      </trkpt>
      <trkpt lat="41.076462" lon="-7.100328">
        <ele>238.517</ele>
        <time>2019-06-22T16:36:50Z</time>
      </trkpt>
      <trkpt lat="41.076390" lon="-7.100086">
        <ele>240.108</ele>
        <time>2019-06-22T16:36:51Z</time>
      </trkpt>
      <trkpt lat="41.076290" lon="-7.099839">
        <ele>241.491</ele>
        <time>2019-06-22T16:36:52Z</time>
      </trkpt>
      <trkpt lat="41.076203" lon="-7.099590">
        <ele>242.345</ele>
        <time>2019-06-22T16:36:53Z</time>
      </trkpt>
      <trkpt lat="41.076100" lon="-7.099339">
        <ele>242.617</ele>
        <time>2019-06-22T16:36:54Z</time>
      </trkpt>
      <trkpt lat="41.075998" lon="-7.099101">
        <ele>243.759</ele>
        <time>2019-06-22T16:36:55Z</time>
      </trkpt>
      <trkpt lat="41.075889" lon="-7.098878">
        <ele>243.977</ele>
        <time>2019-06-22T16:36:56Z</time>
      </trkpt>
      <trkpt lat="41.075756" lon="-7.098670">
        <ele>244.486</ele>
        <time>2019-06-22T16:36:57Z</time>
      </trkpt>
      <trkpt lat="41.075620" lon="-7.098457">
        <ele>245.171</ele>
        <time>2019-06-22T16:36:58Z</time>
      </trkpt>
      <trkpt lat="41.075469" lon="-7.098255">
        <ele>246.884</ele>
        <time>2019-06-22T16:36:59Z</time>
      </trkpt>
      <trkpt lat="41.075325" lon="-7.098052">
        <ele>247.888</ele>
        <time>2019-06-22T16:37:00Z</time>
      </trkpt>
      <trkpt lat="41.075176" lon="-7.097854">
        <ele>250.124</ele>
        <time>2019-06-22T16:37:01Z</time>
      </trkpt>
      <trkpt lat="41.075048" lon="-7.097633">
        <ele>252.126</ele>
        <time>2019-06-22T16:37:02Z</time>
      </trkpt>
      <trkpt lat="41.074944" lon="-7.097390">
        <ele>254.208</ele>
        <time>2019-06-22T16:37:03Z</time>
      </trkpt>
      <trkpt lat="41.074843" lon="-7.097141">
        <ele>256.541</ele>
        <time>2019-06-22T16:37:04Z</time>
      </trkpt>
      <trkpt lat="41.074752" lon="-7.096876">
        <ele>258.755</ele>
        <time>2019-06-22T16:37:05Z</time>
      </trkpt>
      <trkpt lat="41.074661" lon="-7.096602">
        <ele>259.957</ele>
        <time>2019-06-22T16:37:06Z</time>
      </trkpt>
      <trkpt lat="41.074573" lon="-7.096344">
        <ele>260.749</ele>
        <time>2019-06-22T16:37:07Z</time>
      </trkpt>
      <trkpt lat="41.074490" lon="-7.096115">
        <ele>261.237</ele>
        <time>2019-06-22T16:37:08Z</time>
      </trkpt>
      <trkpt lat="41.074405" lon="-7.095916">
        <ele>261.296</ele>
        <time>2019-06-22T16:37:09Z</time>
      </trkpt>
      <trkpt lat="41.074309" lon="-7.095749">
        <ele>261.251</ele>
        <time>2019-06-22T16:37:10Z</time>
      </trkpt>
      <trkpt lat="41.074193" lon="-7.095603">
        <ele>261.634</ele>
        <time>2019-06-22T16:37:11Z</time>
      </trkpt>
      <trkpt lat="41.074080" lon="-7.095456">
        <ele>262.657</ele>
        <time>2019-06-22T16:37:12Z</time>
      </trkpt>
      <trkpt lat="41.073957" lon="-7.095292">
        <ele>264.400</ele>
        <time>2019-06-22T16:37:13Z</time>
      </trkpt>
      <trkpt lat="41.073817" lon="-7.095165">
        <ele>266.620</ele>
        <time>2019-06-22T16:37:14Z</time>
      </trkpt>
      <trkpt lat="41.073674" lon="-7.095179">
        <ele>268.908</ele>
        <time>2019-06-22T16:37:15Z</time>
      </trkpt>
      <trkpt lat="41.073503" lon="-7.095165">
        <ele>271.298</ele>
        <time>2019-06-22T16:37:16Z</time>
      </trkpt>
      <trkpt lat="41.073350" lon="-7.095143">
        <ele>273.262</ele>
        <time>2019-06-22T16:37:17Z</time>
      </trkpt>
      <trkpt lat="41.073213" lon="-7.095058">
        <ele>274.934</ele>
        <time>2019-06-22T16:37:18Z</time>
      </trkpt>
      <trkpt lat="41.073060" lon="-7.094982">
        <ele>274.926</ele>
        <time>2019-06-22T16:37:19Z</time>
      </trkpt>
      <trkpt lat="41.072907" lon="-7.094813">
        <ele>276.934</ele>
        <time>2019-06-22T16:37:20Z</time>
      </trkpt>
      <trkpt lat="41.072765" lon="-7.094653">
        <ele>278.923</ele>
        <time>2019-06-22T16:37:21Z</time>
      </trkpt>
      <trkpt lat="41.072720" lon="-7.094451">
        <ele>280.618</ele>
        <time>2019-06-22T16:37:22Z</time>
      </trkpt>
      <trkpt lat="41.072692" lon="-7.094175">
        <ele>282.271</ele>
        <time>2019-06-22T16:37:23Z</time>
      </trkpt>
      <trkpt lat="41.072686" lon="-7.093914">
        <ele>283.515</ele>
        <time>2019-06-22T16:37:24Z</time>
      </trkpt>
      <trkpt lat="41.072826" lon="-7.093672">
        <ele>284.665</ele>
        <time>2019-06-22T16:37:25Z</time>
      </trkpt>
      <trkpt lat="41.072850" lon="-7.093419">
        <ele>285.111</ele>
        <time>2019-06-22T16:37:26Z</time>
      </trkpt>
      <trkpt lat="41.072864" lon="-7.093180">
        <ele>285.208</ele>
        <time>2019-06-22T16:37:27Z</time>
      </trkpt>
      <trkpt lat="41.072860" lon="-7.092969">
        <ele>285.814</ele>
        <time>2019-06-22T16:37:28Z</time>
      </trkpt>
      <trkpt lat="41.072856" lon="-7.092761">
        <ele>286.548</ele>
        <time>2019-06-22T16:37:29Z</time>
      </trkpt>
      <trkpt lat="41.072826" lon="-7.092579">
        <ele>287.270</ele>
        <time>2019-06-22T16:37:30Z</time>
      </trkpt>
      <trkpt lat="41.072780" lon="-7.092419">
        <ele>288.062</ele>
        <time>2019-06-22T16:37:31Z</time>
      </trkpt>
      <trkpt lat="41.072719" lon="-7.092268">
        <ele>289.780</ele>
        <time>2019-06-22T16:37:32Z</time>
      </trkpt>
      <trkpt lat="41.072647" lon="-7.092122">
        <ele>291.369</ele>
        <time>2019-06-22T16:37:33Z</time>
      </trkpt>
      <trkpt lat="41.072529" lon="-7.091991">
        <ele>292.184</ele>
        <time>2019-06-22T16:37:34Z</time>
      </trkpt>
      <trkpt lat="41.072382" lon="-7.091889">
        <ele>292.997</ele>
        <time>2019-06-22T16:37:35Z</time>
      </trkpt>
      <trkpt lat="41.072212" lon="-7.091922">
        <ele>293.318</ele>
        <time>2019-06-22T16:37:36Z</time>
      </trkpt>
      <trkpt lat="41.072055" lon="-7.091941">
        <ele>293.498</ele>
        <time>2019-06-22T16:37:37Z</time>
      </trkpt>
      <trkpt lat="41.071896" lon="-7.091922">
        <ele>293.917</ele>
        <time>2019-06-22T16:37:38Z</time>
      </trkpt>
      <trkpt lat="41.071732" lon="-7.091891">
        <ele>295.008</ele>
        <time>2019-06-22T16:37:39Z</time>
      </trkpt>
      <trkpt lat="41.071550" lon="-7.091886">
        <ele>296.114</ele>
        <time>2019-06-22T16:37:40Z</time>
      </trkpt>
      <trkpt lat="41.071381" lon="-7.091878">
        <ele>297.678</ele>
        <time>2019-06-22T16:37:41Z</time>
      </trkpt>
      <trkpt lat="41.071211" lon="-7.091862">
        <ele>299.430</ele>
        <time>2019-06-22T16:37:42Z</time>
      </trkpt>
      <trkpt lat="41.071046" lon="-7.091826">
        <ele>300.452</ele>
        <time>2019-06-22T16:37:43Z</time>
      </trkpt>
      <trkpt lat="41.070900" lon="-7.091715">
        <ele>301.980</ele>
        <time>2019-06-22T16:37:44Z</time>
      </trkpt>
      <trkpt lat="41.070764" lon="-7.091612">
        <ele>303.449</ele>
        <time>2019-06-22T16:37:45Z</time>
      </trkpt>
      <trkpt lat="41.070648" lon="-7.091461">
        <ele>305.054</ele>
        <time>2019-06-22T16:37:46Z</time>
      </trkpt>
      <trkpt lat="41.070549" lon="-7.091287">
        <ele>307.167</ele>
        <time>2019-06-22T16:37:47Z</time>
      </trkpt>
      <trkpt lat="41.070534" lon="-7.091080">
        <ele>309.134</ele>
        <time>2019-06-22T16:37:48Z</time>
      </trkpt>
      <trkpt lat="41.070522" lon="-7.090864">
        <ele>310.655</ele>
        <time>2019-06-22T16:37:49Z</time>
      </trkpt>
      <trkpt lat="41.070511" lon="-7.090651">
        <ele>311.910</ele>
        <time>2019-06-22T16:37:50Z</time>
      </trkpt>
      <trkpt lat="41.070535" lon="-7.090469">
        <ele>313.008</ele>
        <time>2019-06-22T16:37:51Z</time>
      </trkpt>
      <trkpt lat="41.070532" lon="-7.090275">
        <ele>313.936</ele>
        <time>2019-06-22T16:37:52Z</time>
      </trkpt>
      <trkpt lat="41.070497" lon="-7.090090">
        <ele>314.510</ele>
        <time>2019-06-22T16:37:53Z</time>
      </trkpt>
      <trkpt lat="41.070442" lon="-7.089904">
        <ele>315.272</ele>
        <time>2019-06-22T16:37:54Z</time>
      </trkpt>
      <trkpt lat="41.070373" lon="-7.089741">
        <ele>316.474</ele>
        <time>2019-06-22T16:37:55Z</time>
      </trkpt>
      <trkpt lat="41.070279" lon="-7.089594">
        <ele>317.442</ele>
        <time>2019-06-22T16:37:56Z</time>
      </trkpt>
      <trkpt lat="41.070162" lon="-7.089464">
        <ele>317.681</ele>
        <time>2019-06-22T16:37:57Z</time>
      </trkpt>
      <trkpt lat="41.070008" lon="-7.089458">
        <ele>317.746</ele>
        <time>2019-06-22T16:37:58Z</time>
      </trkpt>
      <trkpt lat="41.069869" lon="-7.089467">
        <ele>318.279</ele>
        <time>2019-06-22T16:37:59Z</time>
      </trkpt>
      <trkpt lat="41.069717" lon="-7.089472">
        <ele>318.447</ele>
        <time>2019-06-22T16:38:00Z</time>
      </trkpt>
      <trkpt lat="41.069575" lon="-7.089513">
        <ele>318.529</ele>
        <time>2019-06-22T16:38:01Z</time>
      </trkpt>
      <trkpt lat="41.069454" lon="-7.089635">
        <ele>318.821</ele>
        <time>2019-06-22T16:38:02Z</time>
      </trkpt>
      <trkpt lat="41.069339" lon="-7.089759">
        <ele>320.208</ele>
        <time>2019-06-22T16:38:03Z</time>
      </trkpt>
      <trkpt lat="41.069211" lon="-7.089891">
        <ele>320.857</ele>
        <time>2019-06-22T16:38:04Z</time>
      </trkpt>
      <trkpt lat="41.069068" lon="-7.090062">
        <ele>321.551</ele>
        <time>2019-06-22T16:38:05Z</time>
      </trkpt>
      <trkpt lat="41.068934" lon="-7.090214">
        <ele>322.953</ele>
        <time>2019-06-22T16:38:06Z</time>
      </trkpt>
      <trkpt lat="41.068798" lon="-7.090364">
        <ele>324.595</ele>
        <time>2019-06-22T16:38:07Z</time>
      </trkpt>
      <trkpt lat="41.068662" lon="-7.090533">
        <ele>326.093</ele>
        <time>2019-06-22T16:38:08Z</time>
      </trkpt>
      <trkpt lat="41.068517" lon="-7.090696">
        <ele>327.452</ele>
        <time>2019-06-22T16:38:09Z</time>
      </trkpt>
      <trkpt lat="41.068360" lon="-7.090845">
        <ele>329.127</ele>
        <time>2019-06-22T16:38:10Z</time>
      </trkpt>
      <trkpt lat="41.068198" lon="-7.090995">
        <ele>330.890</ele>
        <time>2019-06-22T16:38:11Z</time>
      </trkpt>
      <trkpt lat="41.068016" lon="-7.091150">
        <ele>332.432</ele>
        <time>2019-06-22T16:38:12Z</time>
      </trkpt>
      <trkpt lat="41.067848" lon="-7.091270">
        <ele>333.292</ele>
        <time>2019-06-22T16:38:13Z</time>
      </trkpt>
      <trkpt lat="41.067685" lon="-7.091370">
        <ele>333.811</ele>
        <time>2019-06-22T16:38:14Z</time>
      </trkpt>
      <trkpt lat="41.067525" lon="-7.091472">
        <ele>334.608</ele>
        <time>2019-06-22T16:38:15Z</time>
      </trkpt>
      <trkpt lat="41.067369" lon="-7.091569">
        <ele>335.396</ele>
        <time>2019-06-22T16:38:16Z</time>
      </trkpt>
      <trkpt lat="41.067212" lon="-7.091641">
        <ele>335.970</ele>
        <time>2019-06-22T16:38:17Z</time>
      </trkpt>
      <trkpt lat="41.067026" lon="-7.091636">
        <ele>338.392</ele>
        <time>2019-06-22T16:38:18Z</time>
      </trkpt>
      <trkpt lat="41.066856" lon="-7.091656">
        <ele>340.964</ele>
        <time>2019-06-22T16:38:19Z</time>
      </trkpt>
      <trkpt lat="41.066689" lon="-7.091650">
        <ele>343.032</ele>
        <time>2019-06-22T16:38:20Z</time>
      </trkpt>
      <trkpt lat="41.066520" lon="-7.091582">
        <ele>345.271</ele>
        <time>2019-06-22T16:38:21Z</time>
      </trkpt>
      <trkpt lat="41.066351" lon="-7.091467">
        <ele>347.046</ele>
        <time>2019-06-22T16:38:22Z</time>
      </trkpt>
      <trkpt lat="41.066174" lon="-7.091297">
        <ele>347.729</ele>
        <time>2019-06-22T16:38:23Z</time>
      </trkpt>
      <trkpt lat="41.066001" lon="-7.091168">
        <ele>347.759</ele>
        <time>2019-06-22T16:38:24Z</time>
      </trkpt>
      <trkpt lat="41.065835" lon="-7.091053">
        <ele>348.603</ele>
        <time>2019-06-22T16:38:25Z</time>
      </trkpt>
      <trkpt lat="41.065652" lon="-7.090936">
        <ele>349.223</ele>
        <time>2019-06-22T16:38:26Z</time>
      </trkpt>
      <trkpt lat="41.065465" lon="-7.090828">
        <ele>349.908</ele>
        <time>2019-06-22T16:38:27Z</time>
      </trkpt>
      <trkpt lat="41.065291" lon="-7.090728">
        <ele>351.378</ele>
        <time>2019-06-22T16:38:28Z</time>
      </trkpt>
      <trkpt lat="41.065129" lon="-7.090648">
        <ele>352.952</ele>
        <time>2019-06-22T16:38:29Z</time>
      </trkpt>
      <trkpt lat="41.064976" lon="-7.090589">
        <ele>354.274</ele>
        <time>2019-06-22T16:38:30Z</time>
      </trkpt>
      <trkpt lat="41.064829" lon="-7.090564">
        <ele>355.386</ele>
        <time>2019-06-22T16:38:31Z</time>
      </trkpt>
      <trkpt lat="41.064688" lon="-7.090575">
        <ele>356.154</ele>
        <time>2019-06-22T16:38:32Z</time>
      </trkpt>
      <trkpt lat="41.064547" lon="-7.090641">
        <ele>356.513</ele>
        <time>2019-06-22T16:38:33Z</time>
      </trkpt>
      <trkpt lat="41.064416" lon="-7.090727">
        <ele>356.898</ele>
        <time>2019-06-22T16:38:34Z</time>
      </trkpt>
      <trkpt lat="41.064295" lon="-7.090867">
        <ele>357.481</ele>
        <time>2019-06-22T16:38:35Z</time>
      </trkpt>
      <trkpt lat="41.064181" lon="-7.091012">
        <ele>359.149</ele>
        <time>2019-06-22T16:38:36Z</time>
      </trkpt>
      <trkpt lat="41.064060" lon="-7.091165">
        <ele>361.202</ele>
        <time>2019-06-22T16:38:37Z</time>
      </trkpt>
      <trkpt lat="41.063941" lon="-7.091281">
        <ele>363.322</ele>
        <time>2019-06-22T16:38:38Z</time>
      </trkpt>
      <trkpt lat="41.063812" lon="-7.091397">
        <ele>365.308</ele>
        <time>2019-06-22T16:38:39Z</time>
      </trkpt>
      <trkpt lat="41.063643" lon="-7.091433">
        <ele>367.477</ele>
        <time>2019-06-22T16:38:40Z</time>
      </trkpt>
      <trkpt lat="41.063500" lon="-7.091493">
        <ele>368.671</ele>
        <time>2019-06-22T16:38:41Z</time>
      </trkpt>
      <trkpt lat="41.063335" lon="-7.091554">
        <ele>369.763</ele>
        <time>2019-06-22T16:38:42Z</time>
      </trkpt>
      <trkpt lat="41.063157" lon="-7.091525">
        <ele>370.815</ele>
        <time>2019-06-22T16:38:43Z</time>
      </trkpt>
      <trkpt lat="41.062977" lon="-7.091540">
        <ele>371.813</ele>
        <time>2019-06-22T16:38:44Z</time>
      </trkpt>
      <trkpt lat="41.062809" lon="-7.091573">
        <ele>373.342</ele>
        <time>2019-06-22T16:38:45Z</time>
      </trkpt>
      <trkpt lat="41.062641" lon="-7.091652">
        <ele>374.567</ele>
        <time>2019-06-22T16:38:46Z</time>
      </trkpt>
      <trkpt lat="41.062471" lon="-7.091708">
        <ele>375.650</ele>
        <time>2019-06-22T16:38:47Z</time>
      </trkpt>
      <trkpt lat="41.062296" lon="-7.091793">
        <ele>376.321</ele>
        <time>2019-06-22T16:38:48Z</time>
      </trkpt>
      <trkpt lat="41.062121" lon="-7.091882">
        <ele>377.841</ele>
        <time>2019-06-22T16:38:49Z</time>
      </trkpt>
      <trkpt lat="41.061960" lon="-7.091988">
        <ele>378.905</ele>
        <time>2019-06-22T16:38:50Z</time>
      </trkpt>
      <trkpt lat="41.061786" lon="-7.092070">
        <ele>380.408</ele>
        <time>2019-06-22T16:38:51Z</time>
      </trkpt>
      <trkpt lat="41.061615" lon="-7.092129">
        <ele>382.195</ele>
        <time>2019-06-22T16:38:52Z</time>
      </trkpt>
      <trkpt lat="41.061435" lon="-7.092176">
        <ele>383.399</ele>
        <time>2019-06-22T16:38:53Z</time>
      </trkpt>
      <trkpt lat="41.061273" lon="-7.092197">
        <ele>384.671</ele>
        <time>2019-06-22T16:38:54Z</time>
      </trkpt>
      <trkpt lat="41.061116" lon="-7.092191">
        <ele>386.093</ele>
        <time>2019-06-22T16:38:55Z</time>
      </trkpt>
      <trkpt lat="41.060962" lon="-7.092153">
        <ele>387.421</ele>
        <time>2019-06-22T16:38:56Z</time>
      </trkpt>
      <trkpt lat="41.060810" lon="-7.092090">
        <ele>388.740</ele>
        <time>2019-06-22T16:38:57Z</time>
      </trkpt>
      <trkpt lat="41.060658" lon="-7.092003">
        <ele>390.385</ele>
        <time>2019-06-22T16:38:58Z</time>
      </trkpt>
      <trkpt lat="41.060509" lon="-7.091918">
        <ele>392.168</ele>
        <time>2019-06-22T16:38:59Z</time>
      </trkpt>
      <trkpt lat="41.060378" lon="-7.091779">
        <ele>393.045</ele>
        <time>2019-06-22T16:39:00Z</time>
      </trkpt>
      <trkpt lat="41.060227" lon="-7.091613">
        <ele>393.347</ele>
        <time>2019-06-22T16:39:01Z</time>
      </trkpt>
      <trkpt lat="41.060079" lon="-7.091461">
        <ele>393.711</ele>
        <time>2019-06-22T16:39:02Z</time>
      </trkpt>
      <trkpt lat="41.059927" lon="-7.091308">
        <ele>395.108</ele>
        <time>2019-06-22T16:39:03Z</time>
      </trkpt>
      <trkpt lat="41.059769" lon="-7.091143">
        <ele>396.247</ele>
        <time>2019-06-22T16:39:04Z</time>
      </trkpt>
      <trkpt lat="41.059617" lon="-7.090972">
        <ele>397.191</ele>
        <time>2019-06-22T16:39:05Z</time>
      </trkpt>
      <trkpt lat="41.059454" lon="-7.090803">
        <ele>398.093</ele>
        <time>2019-06-22T16:39:06Z</time>
      </trkpt>
      <trkpt lat="41.059288" lon="-7.090633">
        <ele>398.885</ele>
        <time>2019-06-22T16:39:07Z</time>
      </trkpt>
      <trkpt lat="41.059130" lon="-7.090468">
        <ele>399.443</ele>
        <time>2019-06-22T16:39:08Z</time>
      </trkpt>
      <trkpt lat="41.058975" lon="-7.090305">
        <ele>401.212</ele>
        <time>2019-06-22T16:39:09Z</time>
      </trkpt>
      <trkpt lat="41.058823" lon="-7.090142">
        <ele>402.637</ele>
        <time>2019-06-22T16:39:10Z</time>
      </trkpt>
      <trkpt lat="41.058661" lon="-7.089952">
        <ele>405.170</ele>
        <time>2019-06-22T16:39:11Z</time>
      </trkpt>
      <trkpt lat="41.058498" lon="-7.089771">
        <ele>407.029</ele>
        <time>2019-06-22T16:39:12Z</time>
      </trkpt>
      <trkpt lat="41.058339" lon="-7.089593">
        <ele>408.100</ele>
        <time>2019-06-22T16:39:13Z</time>
      </trkpt>
      <trkpt lat="41.058176" lon="-7.089415">
        <ele>408.520</ele>
        <time>2019-06-22T16:39:14Z</time>
      </trkpt>
      <trkpt lat="41.058012" lon="-7.089245">
        <ele>408.508</ele>
        <time>2019-06-22T16:39:15Z</time>
      </trkpt>
      <trkpt lat="41.057851" lon="-7.089085">
        <ele>408.685</ele>
        <time>2019-06-22T16:39:16Z</time>
      </trkpt>
      <trkpt lat="41.057694" lon="-7.088919">
        <ele>410.079</ele>
        <time>2019-06-22T16:39:17Z</time>
      </trkpt>
      <trkpt lat="41.057544" lon="-7.088760">
        <ele>411.871</ele>
        <time>2019-06-22T16:39:18Z</time>
      </trkpt>
      <trkpt lat="41.057392" lon="-7.088607">
        <ele>414.293</ele>
        <time>2019-06-22T16:39:19Z</time>
      </trkpt>
      <trkpt lat="41.057244" lon="-7.088460">
        <ele>416.141</ele>
        <time>2019-06-22T16:39:20Z</time>
      </trkpt>
      <trkpt lat="41.057083" lon="-7.088316">
        <ele>417.210</ele>
        <time>2019-06-22T16:39:21Z</time>
      </trkpt>
      <trkpt lat="41.056917" lon="-7.088210">
        <ele>417.845</ele>
        <time>2019-06-22T16:39:22Z</time>
      </trkpt>
      <trkpt lat="41.056739" lon="-7.088119">
        <ele>417.898</ele>
        <time>2019-06-22T16:39:23Z</time>
      </trkpt>
      <trkpt lat="41.056548" lon="-7.088065">
        <ele>417.325</ele>
        <time>2019-06-22T16:39:24Z</time>
      </trkpt>
      <trkpt lat="41.056358" lon="-7.088045">
        <ele>417.326</ele>
        <time>2019-06-22T16:39:25Z</time>
      </trkpt>
      <trkpt lat="41.056162" lon="-7.088007">
        <ele>417.608</ele>
        <time>2019-06-22T16:39:26Z</time>
      </trkpt>
      <trkpt lat="41.055952" lon="-7.088069">
        <ele>418.808</ele>
        <time>2019-06-22T16:39:27Z</time>
      </trkpt>
      <trkpt lat="41.055748" lon="-7.088100">
        <ele>420.155</ele>
        <time>2019-06-22T16:39:28Z</time>
      </trkpt>
      <trkpt lat="41.055543" lon="-7.088097">
        <ele>420.129</ele>
        <time>2019-06-22T16:39:29Z</time>
      </trkpt>
      <trkpt lat="41.055341" lon="-7.088079">
        <ele>421.791</ele>
        <time>2019-06-22T16:39:30Z</time>
      </trkpt>
      <trkpt lat="41.055143" lon="-7.088037">
        <ele>423.123</ele>
        <time>2019-06-22T16:39:31Z</time>
      </trkpt>
      <trkpt lat="41.054953" lon="-7.087967">
        <ele>423.731</ele>
        <time>2019-06-22T16:39:32Z</time>
      </trkpt>
      <trkpt lat="41.054773" lon="-7.087854">
        <ele>424.450</ele>
        <time>2019-06-22T16:39:33Z</time>
      </trkpt>
      <trkpt lat="41.054596" lon="-7.087714">
        <ele>424.875</ele>
        <time>2019-06-22T16:39:34Z</time>
      </trkpt>
      <trkpt lat="41.054441" lon="-7.087546">
        <ele>425.498</ele>
        <time>2019-06-22T16:39:35Z</time>
      </trkpt>
      <trkpt lat="41.054295" lon="-7.087349">
        <ele>426.052</ele>
        <time>2019-06-22T16:39:36Z</time>
      </trkpt>
      <trkpt lat="41.054170" lon="-7.087127">
        <ele>426.953</ele>
        <time>2019-06-22T16:39:37Z</time>
      </trkpt>
      <trkpt lat="41.054061" lon="-7.086896">
        <ele>427.008</ele>
        <time>2019-06-22T16:39:38Z</time>
      </trkpt>
      <trkpt lat="41.053965" lon="-7.086632">
        <ele>428.008</ele>
        <time>2019-06-22T16:39:39Z</time>
      </trkpt>
      <trkpt lat="41.053870" lon="-7.086355">
        <ele>428.358</ele>
        <time>2019-06-22T16:39:40Z</time>
      </trkpt>
      <trkpt lat="41.053780" lon="-7.086069">
        <ele>428.512</ele>
        <time>2019-06-22T16:39:41Z</time>
      </trkpt>
      <trkpt lat="41.053683" lon="-7.085786">
        <ele>428.554</ele>
        <time>2019-06-22T16:39:42Z</time>
      </trkpt>
      <trkpt lat="41.053591" lon="-7.085495">
        <ele>428.646</ele>
        <time>2019-06-22T16:39:43Z</time>
      </trkpt>
      <trkpt lat="41.053492" lon="-7.085209">
        <ele>428.894</ele>
        <time>2019-06-22T16:39:44Z</time>
      </trkpt>
      <trkpt lat="41.053398" lon="-7.084924">
        <ele>428.843</ele>
        <time>2019-06-22T16:39:45Z</time>
      </trkpt>
      <trkpt lat="41.053304" lon="-7.084643">
        <ele>430.218</ele>
        <time>2019-06-22T16:39:46Z</time>
      </trkpt>
      <trkpt lat="41.053210" lon="-7.084366">
        <ele>431.921</ele>
        <time>2019-06-22T16:39:47Z</time>
      </trkpt>
      <trkpt lat="41.053116" lon="-7.084089">
        <ele>434.192</ele>
        <time>2019-06-22T16:39:48Z</time>
      </trkpt>
      <trkpt lat="41.053023" lon="-7.083808">
        <ele>435.573</ele>
        <time>2019-06-22T16:39:49Z</time>
      </trkpt>
      <trkpt lat="41.052930" lon="-7.083531">
        <ele>436.320</ele>
        <time>2019-06-22T16:39:50Z</time>
      </trkpt>
      <trkpt lat="41.052830" lon="-7.083265">
        <ele>436.308</ele>
        <time>2019-06-22T16:39:51Z</time>
      </trkpt>
      <trkpt lat="41.052728" lon="-7.083003">
        <ele>436.332</ele>
        <time>2019-06-22T16:39:52Z</time>
      </trkpt>
      <trkpt lat="41.052614" lon="-7.082747">
        <ele>436.346</ele>
        <time>2019-06-22T16:39:53Z</time>
      </trkpt>
      <trkpt lat="41.052490" lon="-7.082498">
        <ele>436.738</ele>
        <time>2019-06-22T16:39:54Z</time>
      </trkpt>
      <trkpt lat="41.052356" lon="-7.082262">
        <ele>437.930</ele>
        <time>2019-06-22T16:39:55Z</time>
      </trkpt>
      <trkpt lat="41.052217" lon="-7.082035">
        <ele>440.328</ele>
        <time>2019-06-22T16:39:56Z</time>
      </trkpt>
      <trkpt lat="41.052073" lon="-7.081821">
        <ele>443.437</ele>
        <time>2019-06-22T16:39:57Z</time>
      </trkpt>
      <trkpt lat="41.051922" lon="-7.081610">
        <ele>445.442</ele>
        <time>2019-06-22T16:39:58Z</time>
      </trkpt>
      <trkpt lat="41.051769" lon="-7.081406">
        <ele>446.245</ele>
        <time>2019-06-22T16:39:59Z</time>
      </trkpt>
      <trkpt lat="41.051616" lon="-7.081213">
        <ele>446.233</ele>
        <time>2019-06-22T16:40:00Z</time>
      </trkpt>
      <trkpt lat="41.051462" lon="-7.081015">
        <ele>446.223</ele>
        <time>2019-06-22T16:40:01Z</time>
      </trkpt>
      <trkpt lat="41.051310" lon="-7.080827">
        <ele>447.015</ele>
        <time>2019-06-22T16:40:02Z</time>
      </trkpt>
      <trkpt lat="41.051155" lon="-7.080635">
        <ele>448.508</ele>
        <time>2019-06-22T16:40:03Z</time>
      </trkpt>
      <trkpt lat="41.051001" lon="-7.080436">
        <ele>451.756</ele>
        <time>2019-06-22T16:40:04Z</time>
      </trkpt>
      <trkpt lat="41.050847" lon="-7.080229">
        <ele>455.450</ele>
        <time>2019-06-22T16:40:05Z</time>
      </trkpt>
      <trkpt lat="41.050690" lon="-7.080042">
        <ele>458.822</ele>
        <time>2019-06-22T16:40:06Z</time>
      </trkpt>
      <trkpt lat="41.050531" lon="-7.079845">
        <ele>459.534</ele>
        <time>2019-06-22T16:40:07Z</time>
      </trkpt>
      <trkpt lat="41.050380" lon="-7.079633">
        <ele>460.122</ele>
        <time>2019-06-22T16:40:08Z</time>
      </trkpt>
      <trkpt lat="41.050217" lon="-7.079423">
        <ele>460.191</ele>
        <time>2019-06-22T16:40:09Z</time>
      </trkpt>
      <trkpt lat="41.050054" lon="-7.079209">
        <ele>460.096</ele>
        <time>2019-06-22T16:40:10Z</time>
      </trkpt>
      <trkpt lat="41.049901" lon="-7.079006">
        <ele>460.079</ele>
        <time>2019-06-22T16:40:11Z</time>
      </trkpt>
      <trkpt lat="41.049742" lon="-7.078810">
        <ele>461.621</ele>
        <time>2019-06-22T16:40:12Z</time>
      </trkpt>
      <trkpt lat="41.049585" lon="-7.078600">
        <ele>462.941</ele>
        <time>2019-06-22T16:40:13Z</time>
      </trkpt>
      <trkpt lat="41.049427" lon="-7.078423">
        <ele>464.505</ele>
        <time>2019-06-22T16:40:14Z</time>
      </trkpt>
      <trkpt lat="41.049267" lon="-7.078209">
        <ele>465.208</ele>
        <time>2019-06-22T16:40:15Z</time>
      </trkpt>
      <trkpt lat="41.049102" lon="-7.077997">
        <ele>465.245</ele>
        <time>2019-06-22T16:40:16Z</time>
      </trkpt>
      <trkpt lat="41.048948" lon="-7.077799">
        <ele>464.839</ele>
        <time>2019-06-22T16:40:17Z</time>
      </trkpt>
      <trkpt lat="41.048787" lon="-7.077592">
        <ele>463.061</ele>
        <time>2019-06-22T16:40:18Z</time>
      </trkpt>
      <trkpt lat="41.048637" lon="-7.077393">
        <ele>462.683</ele>
        <time>2019-06-22T16:40:19Z</time>
      </trkpt>
      <trkpt lat="41.048480" lon="-7.077186">
        <ele>462.691</ele>
        <time>2019-06-22T16:40:20Z</time>
      </trkpt>
      <trkpt lat="41.048329" lon="-7.076983">
        <ele>462.690</ele>
        <time>2019-06-22T16:40:21Z</time>
      </trkpt>
      <trkpt lat="41.048169" lon="-7.076798">
        <ele>462.785</ele>
        <time>2019-06-22T16:40:22Z</time>
      </trkpt>
      <trkpt lat="41.048002" lon="-7.076630">
        <ele>463.818</ele>
        <time>2019-06-22T16:40:23Z</time>
      </trkpt>
      <trkpt lat="41.047837" lon="-7.076469">
        <ele>465.565</ele>
        <time>2019-06-22T16:40:24Z</time>
      </trkpt>
      <trkpt lat="41.047666" lon="-7.076376">
        <ele>467.568</ele>
        <time>2019-06-22T16:40:25Z</time>
      </trkpt>
      <trkpt lat="41.047497" lon="-7.076288">
        <ele>469.514</ele>
        <time>2019-06-22T16:40:26Z</time>
      </trkpt>
      <trkpt lat="41.047320" lon="-7.076200">
        <ele>471.908</ele>
        <time>2019-06-22T16:40:27Z</time>
      </trkpt>
      <trkpt lat="41.047136" lon="-7.076181">
        <ele>473.019</ele>
        <time>2019-06-22T16:40:28Z</time>
      </trkpt>
      <trkpt lat="41.046955" lon="-7.076174">
        <ele>474.083</ele>
        <time>2019-06-22T16:40:29Z</time>
      </trkpt>
      <trkpt lat="41.046766" lon="-7.076198">
        <ele>474.355</ele>
        <time>2019-06-22T16:40:30Z</time>
      </trkpt>
      <trkpt lat="41.046576" lon="-7.076225">
        <ele>474.357</ele>
        <time>2019-06-22T16:40:31Z</time>
      </trkpt>
      <trkpt lat="41.046407" lon="-7.076246">
        <ele>474.365</ele>
        <time>2019-06-22T16:40:32Z</time>
      </trkpt>
      <trkpt lat="41.046234" lon="-7.076364">
        <ele>475.334</ele>
        <time>2019-06-22T16:40:33Z</time>
      </trkpt>
      <trkpt lat="41.046057" lon="-7.076442">
        <ele>475.929</ele>
        <time>2019-06-22T16:40:34Z</time>
      </trkpt>
      <trkpt lat="41.045888" lon="-7.076533">
        <ele>475.972</ele>
        <time>2019-06-22T16:40:35Z</time>
      </trkpt>
      <trkpt lat="41.045710" lon="-7.076621">
        <ele>476.152</ele>
        <time>2019-06-22T16:40:36Z</time>
      </trkpt>
      <trkpt lat="41.045533" lon="-7.076681">
        <ele>477.353</ele>
        <time>2019-06-22T16:40:37Z</time>
      </trkpt>
      <trkpt lat="41.045344" lon="-7.076722">
        <ele>478.508</ele>
        <time>2019-06-22T16:40:38Z</time>
      </trkpt>
      <trkpt lat="41.045167" lon="-7.076715">
        <ele>479.208</ele>
        <time>2019-06-22T16:40:39Z</time>
      </trkpt>
      <trkpt lat="41.044983" lon="-7.076645">
        <ele>479.428</ele>
        <time>2019-06-22T16:40:40Z</time>
      </trkpt>
      <trkpt lat="41.044793" lon="-7.076556">
        <ele>479.442</ele>
        <time>2019-06-22T16:40:41Z</time>
      </trkpt>
      <trkpt lat="41.044603" lon="-7.076416">
        <ele>478.864</ele>
        <time>2019-06-22T16:40:42Z</time>
      </trkpt>
      <trkpt lat="41.044438" lon="-7.076266">
        <ele>478.266</ele>
        <time>2019-06-22T16:40:43Z</time>
      </trkpt>
      <trkpt lat="41.044275" lon="-7.076110">
        <ele>478.234</ele>
        <time>2019-06-22T16:40:44Z</time>
      </trkpt>
      <trkpt lat="41.044180" lon="-7.075888">
        <ele>478.393</ele>
        <time>2019-06-22T16:40:45Z</time>
      </trkpt>
      <trkpt lat="41.044060" lon="-7.075670">
        <ele>478.518</ele>
        <time>2019-06-22T16:40:46Z</time>
      </trkpt>
      <trkpt lat="41.043945" lon="-7.075451">
        <ele>478.671</ele>
        <time>2019-06-22T16:40:47Z</time>
      </trkpt>
      <trkpt lat="41.043834" lon="-7.075236">
        <ele>478.636</ele>
        <time>2019-06-22T16:40:48Z</time>
      </trkpt>
      <trkpt lat="41.043714" lon="-7.075036">
        <ele>478.717</ele>
        <time>2019-06-22T16:40:49Z</time>
      </trkpt>
      <trkpt lat="41.043571" lon="-7.074919">
        <ele>479.118</ele>
        <time>2019-06-22T16:40:50Z</time>
      </trkpt>
      <trkpt lat="41.043395" lon="-7.074805">
        <ele>479.908</ele>
        <time>2019-06-22T16:40:51Z</time>
      </trkpt>
      <trkpt lat="41.043227" lon="-7.074667">
        <ele>481.636</ele>
        <time>2019-06-22T16:40:52Z</time>
      </trkpt>
      <trkpt lat="41.043022" lon="-7.074610">
        <ele>483.030</ele>
        <time>2019-06-22T16:40:53Z</time>
      </trkpt>
      <trkpt lat="41.042827" lon="-7.074533">
        <ele>483.572</ele>
        <time>2019-06-22T16:40:54Z</time>
      </trkpt>
      <trkpt lat="41.042615" lon="-7.074501">
        <ele>483.514</ele>
        <time>2019-06-22T16:40:55Z</time>
      </trkpt>
      <trkpt lat="41.042412" lon="-7.074456">
        <ele>482.072</ele>
        <time>2019-06-22T16:40:56Z</time>
      </trkpt>
      <trkpt lat="41.042185" lon="-7.074447">
        <ele>480.951</ele>
        <time>2019-06-22T16:40:57Z</time>
      </trkpt>
      <trkpt lat="41.041977" lon="-7.074437">
        <ele>480.896</ele>
        <time>2019-06-22T16:40:58Z</time>
      </trkpt>
      <trkpt lat="41.041769" lon="-7.074393">
        <ele>480.659</ele>
        <time>2019-06-22T16:40:59Z</time>
      </trkpt>
      <trkpt lat="41.041556" lon="-7.074321">
        <ele>480.694</ele>
        <time>2019-06-22T16:41:00Z</time>
      </trkpt>
      <trkpt lat="41.041348" lon="-7.074243">
        <ele>480.957</ele>
        <time>2019-06-22T16:41:01Z</time>
      </trkpt>
      <trkpt lat="41.041144" lon="-7.074170">
        <ele>481.622</ele>
        <time>2019-06-22T16:41:02Z</time>
      </trkpt>
      <trkpt lat="41.040952" lon="-7.074036">
        <ele>481.808</ele>
        <time>2019-06-22T16:41:03Z</time>
      </trkpt>
      <trkpt lat="41.040751" lon="-7.073904">
        <ele>482.562</ele>
        <time>2019-06-22T16:41:04Z</time>
      </trkpt>
      <trkpt lat="41.040560" lon="-7.073756">
        <ele>483.876</ele>
        <time>2019-06-22T16:41:05Z</time>
      </trkpt>
      <trkpt lat="41.040369" lon="-7.073604">
        <ele>485.228</ele>
        <time>2019-06-22T16:41:06Z</time>
      </trkpt>
      <trkpt lat="41.040177" lon="-7.073466">
        <ele>486.230</ele>
        <time>2019-06-22T16:41:07Z</time>
      </trkpt>
      <trkpt lat="41.039983" lon="-7.073325">
        <ele>486.228</ele>
        <time>2019-06-22T16:41:08Z</time>
      </trkpt>
      <trkpt lat="41.039791" lon="-7.073190">
        <ele>485.487</ele>
        <time>2019-06-22T16:41:09Z</time>
      </trkpt>
      <trkpt lat="41.039606" lon="-7.073063">
        <ele>483.972</ele>
        <time>2019-06-22T16:41:10Z</time>
      </trkpt>
      <trkpt lat="41.039427" lon="-7.072937">
        <ele>482.835</ele>
        <time>2019-06-22T16:41:11Z</time>
      </trkpt>
      <trkpt lat="41.039254" lon="-7.072813">
        <ele>481.734</ele>
        <time>2019-06-22T16:41:12Z</time>
      </trkpt>
      <trkpt lat="41.039084" lon="-7.072686">
        <ele>481.755</ele>
        <time>2019-06-22T16:41:13Z</time>
      </trkpt>
      <trkpt lat="41.038905" lon="-7.072568">
        <ele>482.510</ele>
        <time>2019-06-22T16:41:14Z</time>
      </trkpt>
      <trkpt lat="41.038716" lon="-7.072474">
        <ele>484.408</ele>
        <time>2019-06-22T16:41:15Z</time>
      </trkpt>
      <trkpt lat="41.038516" lon="-7.072383">
        <ele>486.026</ele>
        <time>2019-06-22T16:41:16Z</time>
      </trkpt>
      <trkpt lat="41.038308" lon="-7.072313">
        <ele>488.010</ele>
        <time>2019-06-22T16:41:17Z</time>
      </trkpt>
      <trkpt lat="41.038092" lon="-7.072253">
        <ele>489.982</ele>
        <time>2019-06-22T16:41:18Z</time>
      </trkpt>
      <trkpt lat="41.037879" lon="-7.072201">
        <ele>491.254</ele>
        <time>2019-06-22T16:41:19Z</time>
      </trkpt>
      <trkpt lat="41.037659" lon="-7.072144">
        <ele>492.592</ele>
        <time>2019-06-22T16:41:20Z</time>
      </trkpt>
      <trkpt lat="41.037447" lon="-7.072104">
        <ele>493.091</ele>
        <time>2019-06-22T16:41:21Z</time>
      </trkpt>
      <trkpt lat="41.037234" lon="-7.072064">
        <ele>493.146</ele>
        <time>2019-06-22T16:41:22Z</time>
      </trkpt>
      <trkpt lat="41.037028" lon="-7.072022">
        <ele>493.469</ele>
        <time>2019-06-22T16:41:23Z</time>
      </trkpt>
      <trkpt lat="41.036839" lon="-7.071964">
        <ele>493.595</ele>
        <time>2019-06-22T16:41:24Z</time>
      </trkpt>
      <trkpt lat="41.036639" lon="-7.071911">
        <ele>493.849</ele>
        <time>2019-06-22T16:41:25Z</time>
      </trkpt>
      <trkpt lat="41.036450" lon="-7.071834">
        <ele>494.023</ele>
        <time>2019-06-22T16:41:26Z</time>
      </trkpt>
      <trkpt lat="41.036262" lon="-7.071746">
        <ele>495.408</ele>
        <time>2019-06-22T16:41:27Z</time>
      </trkpt>
      <trkpt lat="41.036094" lon="-7.071620">
        <ele>496.162</ele>
        <time>2019-06-22T16:41:28Z</time>
      </trkpt>
      <trkpt lat="41.035951" lon="-7.071405">
        <ele>496.926</ele>
        <time>2019-06-22T16:41:29Z</time>
      </trkpt>
      <trkpt lat="41.035795" lon="-7.071254">
        <ele>497.368</ele>
        <time>2019-06-22T16:41:30Z</time>
      </trkpt>
      <trkpt lat="41.035675" lon="-7.071040">
        <ele>498.360</ele>
        <time>2019-06-22T16:41:31Z</time>
      </trkpt>
      <trkpt lat="41.035562" lon="-7.070816">
        <ele>498.368</ele>
        <time>2019-06-22T16:41:32Z</time>
      </trkpt>
      <trkpt lat="41.035468" lon="-7.070573">
        <ele>498.347</ele>
        <time>2019-06-22T16:41:33Z</time>
      </trkpt>
      <trkpt lat="41.035379" lon="-7.070343">
        <ele>497.952</ele>
        <time>2019-06-22T16:41:34Z</time>
      </trkpt>
      <trkpt lat="41.035344" lon="-7.070094">
        <ele>496.335</ele>
        <time>2019-06-22T16:41:35Z</time>
      </trkpt>
      <trkpt lat="41.035290" lon="-7.069849">
        <ele>494.832</ele>
        <time>2019-06-22T16:41:36Z</time>
      </trkpt>
      <trkpt lat="41.035247" lon="-7.069583">
        <ele>492.392</ele>
        <time>2019-06-22T16:41:37Z</time>
      </trkpt>
      <trkpt lat="41.035192" lon="-7.069320">
        <ele>490.711</ele>
        <time>2019-06-22T16:41:38Z</time>
      </trkpt>
      <trkpt lat="41.035163" lon="-7.069070">
        <ele>489.208</ele>
        <time>2019-06-22T16:41:39Z</time>
      </trkpt>
      <trkpt lat="41.035133" lon="-7.068828">
        <ele>489.236</ele>
        <time>2019-06-22T16:41:40Z</time>
      </trkpt>
      <trkpt lat="41.035106" lon="-7.068590">
        <ele>487.980</ele>
        <time>2019-06-22T16:41:41Z</time>
      </trkpt>
      <trkpt lat="41.035066" lon="-7.068363">
        <ele>485.642</ele>
        <time>2019-06-22T16:41:42Z</time>
      </trkpt>
      <trkpt lat="41.035018" lon="-7.068137">
        <ele>482.914</ele>
        <time>2019-06-22T16:41:43Z</time>
      </trkpt>
      <trkpt lat="41.034971" lon="-7.067935">
        <ele>482.942</ele>
        <time>2019-06-22T16:41:44Z</time>
      </trkpt>
      <trkpt lat="41.034920" lon="-7.067721">
        <ele>481.381</ele>
        <time>2019-06-22T16:41:45Z</time>
      </trkpt>
      <trkpt lat="41.034837" lon="-7.067530">
        <ele>479.826</ele>
        <time>2019-06-22T16:41:46Z</time>
      </trkpt>
      <trkpt lat="41.034738" lon="-7.067360">
        <ele>479.149</ele>
        <time>2019-06-22T16:41:47Z</time>
      </trkpt>
      <trkpt lat="41.034636" lon="-7.067210">
        <ele>478.961</ele>
        <time>2019-06-22T16:41:48Z</time>
      </trkpt>
      <trkpt lat="41.034509" lon="-7.067073">
        <ele>478.821</ele>
        <time>2019-06-22T16:41:49Z</time>
      </trkpt>
      <trkpt lat="41.034365" lon="-7.066937">
        <ele>478.913</ele>
        <time>2019-06-22T16:41:50Z</time>
      </trkpt>
      <trkpt lat="41.034223" lon="-7.066823">
        <ele>478.808</ele>
        <time>2019-06-22T16:41:51Z</time>
      </trkpt>
      <trkpt lat="41.034063" lon="-7.066753">
        <ele>478.159</ele>
        <time>2019-06-22T16:41:52Z</time>
      </trkpt>
      <trkpt lat="41.033891" lon="-7.066700">
        <ele>477.183</ele>
        <time>2019-06-22T16:41:53Z</time>
      </trkpt>
      <trkpt lat="41.033715" lon="-7.066667">
        <ele>475.085</ele>
        <time>2019-06-22T16:41:54Z</time>
      </trkpt>
      <trkpt lat="41.033543" lon="-7.066679">
        <ele>473.077</ele>
        <time>2019-06-22T16:41:55Z</time>
      </trkpt>
      <trkpt lat="41.033373" lon="-7.066702">
        <ele>470.085</ele>
        <time>2019-06-22T16:41:56Z</time>
      </trkpt>
      <trkpt lat="41.033204" lon="-7.066717">
        <ele>468.924</ele>
        <time>2019-06-22T16:41:57Z</time>
      </trkpt>
      <trkpt lat="41.033038" lon="-7.066724">
        <ele>468.399</ele>
        <time>2019-06-22T16:41:58Z</time>
      </trkpt>
      <trkpt lat="41.032855" lon="-7.066730">
        <ele>467.862</ele>
        <time>2019-06-22T16:41:59Z</time>
      </trkpt>
      <trkpt lat="41.032705" lon="-7.066702">
        <ele>467.868</ele>
        <time>2019-06-22T16:42:00Z</time>
      </trkpt>
      <trkpt lat="41.032547" lon="-7.066671">
        <ele>467.742</ele>
        <time>2019-06-22T16:42:01Z</time>
      </trkpt>
      <trkpt lat="41.032376" lon="-7.066595">
        <ele>467.726</ele>
        <time>2019-06-22T16:42:02Z</time>
      </trkpt>
      <trkpt lat="41.032212" lon="-7.066513">
        <ele>467.608</ele>
        <time>2019-06-22T16:42:03Z</time>
      </trkpt>
      <trkpt lat="41.032068" lon="-7.066373">
        <ele>467.269</ele>
        <time>2019-06-22T16:42:04Z</time>
      </trkpt>
      <trkpt lat="41.031934" lon="-7.066221">
        <ele>467.123</ele>
        <time>2019-06-22T16:42:05Z</time>
      </trkpt>
      <trkpt lat="41.031817" lon="-7.066036">
        <ele>466.675</ele>
        <time>2019-06-22T16:42:06Z</time>
      </trkpt>
      <trkpt lat="41.031721" lon="-7.065845">
        <ele>465.767</ele>
        <time>2019-06-22T16:42:07Z</time>
      </trkpt>
      <trkpt lat="41.031631" lon="-7.065647">
        <ele>465.165</ele>
        <time>2019-06-22T16:42:08Z</time>
      </trkpt>
      <trkpt lat="41.031578" lon="-7.065431">
        <ele>464.454</ele>
        <time>2019-06-22T16:42:09Z</time>
      </trkpt>
      <trkpt lat="41.031515" lon="-7.065212">
        <ele>463.899</ele>
        <time>2019-06-22T16:42:10Z</time>
      </trkpt>
      <trkpt lat="41.031453" lon="-7.064986">
        <ele>462.872</ele>
        <time>2019-06-22T16:42:11Z</time>
      </trkpt>
      <trkpt lat="41.031403" lon="-7.064766">
        <ele>460.859</ele>
        <time>2019-06-22T16:42:12Z</time>
      </trkpt>
      <trkpt lat="41.031335" lon="-7.064548">
        <ele>459.403</ele>
        <time>2019-06-22T16:42:13Z</time>
      </trkpt>
      <trkpt lat="41.031247" lon="-7.064356">
        <ele>457.423</ele>
        <time>2019-06-22T16:42:14Z</time>
      </trkpt>
      <trkpt lat="41.031146" lon="-7.064175">
        <ele>455.708</ele>
        <time>2019-06-22T16:42:15Z</time>
      </trkpt>
      <trkpt lat="41.031031" lon="-7.064020">
        <ele>454.498</ele>
        <time>2019-06-22T16:42:16Z</time>
      </trkpt>
      <trkpt lat="41.030895" lon="-7.063859">
        <ele>453.122</ele>
        <time>2019-06-22T16:42:17Z</time>
      </trkpt>
      <trkpt lat="41.030714" lon="-7.063731">
        <ele>452.564</ele>
        <time>2019-06-22T16:42:18Z</time>
      </trkpt>
      <trkpt lat="41.030540" lon="-7.063635">
        <ele>452.596</ele>
        <time>2019-06-22T16:42:19Z</time>
      </trkpt>
      <trkpt lat="41.030358" lon="-7.063523">
        <ele>452.544</ele>
        <time>2019-06-22T16:42:20Z</time>
      </trkpt>
      <trkpt lat="41.030186" lon="-7.063424">
        <ele>452.523</ele>
        <time>2019-06-22T16:42:21Z</time>
      </trkpt>
      <trkpt lat="41.030007" lon="-7.063326">
        <ele>452.388</ele>
        <time>2019-06-22T16:42:22Z</time>
      </trkpt>
      <trkpt lat="41.029823" lon="-7.063237">
        <ele>452.021</ele>
        <time>2019-06-22T16:42:23Z</time>
      </trkpt>
      <trkpt lat="41.029641" lon="-7.063150">
        <ele>450.976</ele>
        <time>2019-06-22T16:42:24Z</time>
      </trkpt>
      <trkpt lat="41.029477" lon="-7.063034">
        <ele>449.590</ele>
        <time>2019-06-22T16:42:25Z</time>
      </trkpt>
      <trkpt lat="41.029315" lon="-7.062940">
        <ele>447.119</ele>
        <time>2019-06-22T16:42:26Z</time>
      </trkpt>
      <trkpt lat="41.029155" lon="-7.062844">
        <ele>445.608</ele>
        <time>2019-06-22T16:42:27Z</time>
      </trkpt>
      <trkpt lat="41.029024" lon="-7.062719">
        <ele>445.010</ele>
        <time>2019-06-22T16:42:28Z</time>
      </trkpt>
      <trkpt lat="41.028899" lon="-7.062589">
        <ele>444.054</ele>
        <time>2019-06-22T16:42:29Z</time>
      </trkpt>
      <trkpt lat="41.028789" lon="-7.062435">
        <ele>443.216</ele>
        <time>2019-06-22T16:42:30Z</time>
      </trkpt>
      <trkpt lat="41.028706" lon="-7.062263">
        <ele>443.258</ele>
        <time>2019-06-22T16:42:31Z</time>
      </trkpt>
      <trkpt lat="41.028614" lon="-7.062101">
        <ele>443.266</ele>
        <time>2019-06-22T16:42:32Z</time>
      </trkpt>
      <trkpt lat="41.028555" lon="-7.061915">
        <ele>442.295</ele>
        <time>2019-06-22T16:42:33Z</time>
      </trkpt>
      <trkpt lat="41.028520" lon="-7.061693">
        <ele>441.140</ele>
        <time>2019-06-22T16:42:34Z</time>
      </trkpt>
      <trkpt lat="41.028476" lon="-7.061461">
        <ele>440.143</ele>
        <time>2019-06-22T16:42:35Z</time>
      </trkpt>
      <trkpt lat="41.028438" lon="-7.061213">
        <ele>439.262</ele>
        <time>2019-06-22T16:42:36Z</time>
      </trkpt>
      <trkpt lat="41.028404" lon="-7.060938">
        <ele>438.283</ele>
        <time>2019-06-22T16:42:37Z</time>
      </trkpt>
      <trkpt lat="41.028368" lon="-7.060668">
        <ele>437.111</ele>
        <time>2019-06-22T16:42:38Z</time>
      </trkpt>
      <trkpt lat="41.028322" lon="-7.060374">
        <ele>436.508</ele>
        <time>2019-06-22T16:42:39Z</time>
      </trkpt>
      <trkpt lat="41.028275" lon="-7.060079">
        <ele>434.629</ele>
        <time>2019-06-22T16:42:40Z</time>
      </trkpt>
      <trkpt lat="41.028226" lon="-7.059781">
        <ele>433.163</ele>
        <time>2019-06-22T16:42:41Z</time>
      </trkpt>
      <trkpt lat="41.028165" lon="-7.059485">
        <ele>431.625</ele>
        <time>2019-06-22T16:42:42Z</time>
      </trkpt>
      <trkpt lat="41.028086" lon="-7.059216">
        <ele>430.677</ele>
        <time>2019-06-22T16:42:43Z</time>
      </trkpt>
      <trkpt lat="41.028001" lon="-7.058947">
        <ele>428.385</ele>
        <time>2019-06-22T16:42:44Z</time>
      </trkpt>
      <trkpt lat="41.027901" lon="-7.058690">
        <ele>428.294</ele>
        <time>2019-06-22T16:42:45Z</time>
      </trkpt>
      <trkpt lat="41.027786" lon="-7.058430">
        <ele>428.239</ele>
        <time>2019-06-22T16:42:46Z</time>
      </trkpt>
      <trkpt lat="41.027649" lon="-7.058199">
        <ele>428.272</ele>
        <time>2019-06-22T16:42:47Z</time>
      </trkpt>
      <trkpt lat="41.027508" lon="-7.057960">
        <ele>428.295</ele>
        <time>2019-06-22T16:42:48Z</time>
      </trkpt>
      <trkpt lat="41.027380" lon="-7.057718">
        <ele>428.749</ele>
        <time>2019-06-22T16:42:49Z</time>
      </trkpt>
      <trkpt lat="41.027249" lon="-7.057479">
        <ele>430.723</ele>
        <time>2019-06-22T16:42:50Z</time>
      </trkpt>
      <trkpt lat="41.027115" lon="-7.057225">
        <ele>432.508</ele>
        <time>2019-06-22T16:42:51Z</time>
      </trkpt>
      <trkpt lat="41.026986" lon="-7.056998">
        <ele>433.322</ele>
        <time>2019-06-22T16:42:52Z</time>
      </trkpt>
      <trkpt lat="41.026858" lon="-7.056754">
        <ele>433.926</ele>
        <time>2019-06-22T16:42:53Z</time>
      </trkpt>
      <trkpt lat="41.026735" lon="-7.056505">
        <ele>433.998</ele>
        <time>2019-06-22T16:42:54Z</time>
      </trkpt>
      <trkpt lat="41.026606" lon="-7.056299">
        <ele>432.990</ele>
        <time>2019-06-22T16:42:55Z</time>
      </trkpt>
      <trkpt lat="41.026489" lon="-7.056069">
        <ele>432.928</ele>
        <time>2019-06-22T16:42:56Z</time>
      </trkpt>
      <trkpt lat="41.026383" lon="-7.055829">
        <ele>433.057</ele>
        <time>2019-06-22T16:42:57Z</time>
      </trkpt>
      <trkpt lat="41.026290" lon="-7.055575">
        <ele>433.142</ele>
        <time>2019-06-22T16:42:58Z</time>
      </trkpt>
      <trkpt lat="41.026204" lon="-7.055313">
        <ele>434.555</ele>
        <time>2019-06-22T16:42:59Z</time>
      </trkpt>
      <trkpt lat="41.026115" lon="-7.055052">
        <ele>436.818</ele>
        <time>2019-06-22T16:43:00Z</time>
      </trkpt>
      <trkpt lat="41.026037" lon="-7.054771">
        <ele>437.598</ele>
        <time>2019-06-22T16:43:01Z</time>
      </trkpt>
      <trkpt lat="41.025967" lon="-7.054487">
        <ele>437.817</ele>
        <time>2019-06-22T16:43:02Z</time>
      </trkpt>
      <trkpt lat="41.025901" lon="-7.054223">
        <ele>437.908</ele>
        <time>2019-06-22T16:43:03Z</time>
      </trkpt>
      <trkpt lat="41.025826" lon="-7.053957">
        <ele>438.164</ele>
        <time>2019-06-22T16:43:04Z</time>
      </trkpt>
      <trkpt lat="41.025755" lon="-7.053666">
        <ele>438.438</ele>
        <time>2019-06-22T16:43:05Z</time>
      </trkpt>
      <trkpt lat="41.025683" lon="-7.053382">
        <ele>438.730</ele>
        <time>2019-06-22T16:43:06Z</time>
      </trkpt>
      <trkpt lat="41.025627" lon="-7.053125">
        <ele>438.732</ele>
        <time>2019-06-22T16:43:07Z</time>
      </trkpt>
      <trkpt lat="41.025556" lon="-7.052857">
        <ele>438.880</ele>
        <time>2019-06-22T16:43:08Z</time>
      </trkpt>
      <trkpt lat="41.025492" lon="-7.052594">
        <ele>438.959</ele>
        <time>2019-06-22T16:43:09Z</time>
      </trkpt>
      <trkpt lat="41.025414" lon="-7.052356">
        <ele>439.094</ele>
        <time>2019-06-22T16:43:10Z</time>
      </trkpt>
      <trkpt lat="41.025329" lon="-7.052112">
        <ele>439.247</ele>
        <time>2019-06-22T16:43:11Z</time>
      </trkpt>
      <trkpt lat="41.025218" lon="-7.051885">
        <ele>439.265</ele>
        <time>2019-06-22T16:43:12Z</time>
      </trkpt>
      <trkpt lat="41.025106" lon="-7.051662">
        <ele>439.668</ele>
        <time>2019-06-22T16:43:13Z</time>
      </trkpt>
      <trkpt lat="41.024967" lon="-7.051472">
        <ele>439.914</ele>
        <time>2019-06-22T16:43:14Z</time>
      </trkpt>
      <trkpt lat="41.024830" lon="-7.051300">
        <ele>439.908</ele>
        <time>2019-06-22T16:43:15Z</time>
      </trkpt>
      <trkpt lat="41.024687" lon="-7.051132">
        <ele>439.749</ele>
        <time>2019-06-22T16:43:16Z</time>
      </trkpt>
      <trkpt lat="41.024543" lon="-7.050955">
        <ele>439.793</ele>
        <time>2019-06-22T16:43:17Z</time>
      </trkpt>
      <trkpt lat="41.024408" lon="-7.050803">
        <ele>441.865</ele>
        <time>2019-06-22T16:43:18Z</time>
      </trkpt>
      <trkpt lat="41.024273" lon="-7.050641">
        <ele>442.547</ele>
        <time>2019-06-22T16:43:19Z</time>
      </trkpt>
      <trkpt lat="41.024136" lon="-7.050433">
        <ele>443.155</ele>
        <time>2019-06-22T16:43:20Z</time>
      </trkpt>
      <trkpt lat="41.023999" lon="-7.050257">
        <ele>445.184</ele>
        <time>2019-06-22T16:43:21Z</time>
      </trkpt>
      <trkpt lat="41.023910" lon="-7.050033">
        <ele>446.449</ele>
        <time>2019-06-22T16:43:22Z</time>
      </trkpt>
      <trkpt lat="41.023799" lon="-7.049793">
        <ele>447.392</ele>
        <time>2019-06-22T16:43:23Z</time>
      </trkpt>
      <trkpt lat="41.023694" lon="-7.049559">
        <ele>447.613</ele>
        <time>2019-06-22T16:43:24Z</time>
      </trkpt>
      <trkpt lat="41.023616" lon="-7.049314">
        <ele>447.743</ele>
        <time>2019-06-22T16:43:25Z</time>
      </trkpt>
      <trkpt lat="41.023535" lon="-7.049042">
        <ele>447.707</ele>
        <time>2019-06-22T16:43:26Z</time>
      </trkpt>
      <trkpt lat="41.023472" lon="-7.048800">
        <ele>445.908</ele>
        <time>2019-06-22T16:43:27Z</time>
      </trkpt>
      <trkpt lat="41.023395" lon="-7.048530">
        <ele>443.284</ele>
        <time>2019-06-22T16:43:28Z</time>
      </trkpt>
      <trkpt lat="41.023313" lon="-7.048259">
        <ele>440.898</ele>
        <time>2019-06-22T16:43:29Z</time>
      </trkpt>
      <trkpt lat="41.023213" lon="-7.047995">
        <ele>438.440</ele>
        <time>2019-06-22T16:43:30Z</time>
      </trkpt>
      <trkpt lat="41.023117" lon="-7.047743">
        <ele>435.372</ele>
        <time>2019-06-22T16:43:31Z</time>
      </trkpt>
      <trkpt lat="41.023010" lon="-7.047499">
        <ele>433.610</ele>
        <time>2019-06-22T16:43:32Z</time>
      </trkpt>
      <trkpt lat="41.022898" lon="-7.047253">
        <ele>433.189</ele>
        <time>2019-06-22T16:43:33Z</time>
      </trkpt>
      <trkpt lat="41.022776" lon="-7.047002">
        <ele>432.494</ele>
        <time>2019-06-22T16:43:34Z</time>
      </trkpt>
      <trkpt lat="41.022665" lon="-7.046784">
        <ele>431.587</ele>
        <time>2019-06-22T16:43:35Z</time>
      </trkpt>
      <trkpt lat="41.022543" lon="-7.046561">
        <ele>431.571</ele>
        <time>2019-06-22T16:43:36Z</time>
      </trkpt>
      <trkpt lat="41.022422" lon="-7.046323">
        <ele>432.041</ele>
        <time>2019-06-22T16:43:37Z</time>
      </trkpt>
      <trkpt lat="41.022311" lon="-7.046096">
        <ele>432.015</ele>
        <time>2019-06-22T16:43:38Z</time>
      </trkpt>
      <trkpt lat="41.022196" lon="-7.045857">
        <ele>431.608</ele>
        <time>2019-06-22T16:43:39Z</time>
      </trkpt>
      <trkpt lat="41.022074" lon="-7.045616">
        <ele>430.250</ele>
        <time>2019-06-22T16:43:40Z</time>
      </trkpt>
      <trkpt lat="41.021942" lon="-7.045399">
        <ele>427.794</ele>
        <time>2019-06-22T16:43:41Z</time>
      </trkpt>
      <trkpt lat="41.021803" lon="-7.045197">
        <ele>425.296</ele>
        <time>2019-06-22T16:43:42Z</time>
      </trkpt>
      <trkpt lat="41.021628" lon="-7.045036">
        <ele>423.188</ele>
        <time>2019-06-22T16:43:43Z</time>
      </trkpt>
      <trkpt lat="41.021438" lon="-7.044876">
        <ele>421.726</ele>
        <time>2019-06-22T16:43:44Z</time>
      </trkpt>
      <trkpt lat="41.021247" lon="-7.044770">
        <ele>421.775</ele>
        <time>2019-06-22T16:43:45Z</time>
      </trkpt>
      <trkpt lat="41.021040" lon="-7.044689">
        <ele>422.380</ele>
        <time>2019-06-22T16:43:46Z</time>
      </trkpt>
      <trkpt lat="41.020831" lon="-7.044616">
        <ele>422.333</ele>
        <time>2019-06-22T16:43:47Z</time>
      </trkpt>
      <trkpt lat="41.020621" lon="-7.044551">
        <ele>422.266</ele>
        <time>2019-06-22T16:43:48Z</time>
      </trkpt>
      <trkpt lat="41.020408" lon="-7.044483">
        <ele>422.129</ele>
        <time>2019-06-22T16:43:49Z</time>
      </trkpt>
      <trkpt lat="41.020201" lon="-7.044405">
        <ele>421.421</ele>
        <time>2019-06-22T16:43:50Z</time>
      </trkpt>
      <trkpt lat="41.020003" lon="-7.044319">
        <ele>421.208</ele>
        <time>2019-06-22T16:43:51Z</time>
      </trkpt>
      <trkpt lat="41.019799" lon="-7.044225">
        <ele>421.289</ele>
        <time>2019-06-22T16:43:52Z</time>
      </trkpt>
      <trkpt lat="41.019631" lon="-7.044117">
        <ele>422.863</ele>
        <time>2019-06-22T16:43:53Z</time>
      </trkpt>
      <trkpt lat="41.019455" lon="-7.043984">
        <ele>422.885</ele>
        <time>2019-06-22T16:43:54Z</time>
      </trkpt>
      <trkpt lat="41.019301" lon="-7.043806">
        <ele>424.057</ele>
        <time>2019-06-22T16:43:55Z</time>
      </trkpt>
      <trkpt lat="41.019149" lon="-7.043628">
        <ele>425.255</ele>
        <time>2019-06-22T16:43:56Z</time>
      </trkpt>
      <trkpt lat="41.018996" lon="-7.043440">
        <ele>426.824</ele>
        <time>2019-06-22T16:43:57Z</time>
      </trkpt>
      <trkpt lat="41.018838" lon="-7.043264">
        <ele>427.659</ele>
        <time>2019-06-22T16:43:58Z</time>
      </trkpt>
      <trkpt lat="41.018708" lon="-7.043082">
        <ele>428.322</ele>
        <time>2019-06-22T16:43:59Z</time>
      </trkpt>
      <trkpt lat="41.018581" lon="-7.042882">
        <ele>428.392</ele>
        <time>2019-06-22T16:44:00Z</time>
      </trkpt>
      <trkpt lat="41.018434" lon="-7.042700">
        <ele>427.373</ele>
        <time>2019-06-22T16:44:01Z</time>
      </trkpt>
      <trkpt lat="41.018288" lon="-7.042525">
        <ele>426.120</ele>
        <time>2019-06-22T16:44:02Z</time>
      </trkpt>
      <trkpt lat="41.018109" lon="-7.042403">
        <ele>425.008</ele>
        <time>2019-06-22T16:44:03Z</time>
      </trkpt>
      <trkpt lat="41.017922" lon="-7.042283">
        <ele>422.112</ele>
        <time>2019-06-22T16:44:04Z</time>
      </trkpt>
      <trkpt lat="41.017724" lon="-7.042183">
        <ele>421.216</ele>
        <time>2019-06-22T16:44:05Z</time>
      </trkpt>
      <trkpt lat="41.017519" lon="-7.042091">
        <ele>421.268</ele>
        <time>2019-06-22T16:44:06Z</time>
      </trkpt>
      <trkpt lat="41.017323" lon="-7.042014">
        <ele>421.550</ele>
        <time>2019-06-22T16:44:07Z</time>
      </trkpt>
      <trkpt lat="41.017113" lon="-7.041963">
        <ele>421.728</ele>
        <time>2019-06-22T16:44:08Z</time>
      </trkpt>
      <trkpt lat="41.016912" lon="-7.041912">
        <ele>422.737</ele>
        <time>2019-06-22T16:44:09Z</time>
      </trkpt>
      <trkpt lat="41.016721" lon="-7.041846">
        <ele>422.752</ele>
        <time>2019-06-22T16:44:10Z</time>
      </trkpt>
      <trkpt lat="41.016528" lon="-7.041759">
        <ele>422.935</ele>
        <time>2019-06-22T16:44:11Z</time>
      </trkpt>
      <trkpt lat="41.016339" lon="-7.041633">
        <ele>424.029</ele>
        <time>2019-06-22T16:44:12Z</time>
      </trkpt>
      <trkpt lat="41.016163" lon="-7.041489">
        <ele>426.100</ele>
        <time>2019-06-22T16:44:13Z</time>
      </trkpt>
      <trkpt lat="41.015977" lon="-7.041342">
        <ele>427.720</ele>
        <time>2019-06-22T16:44:14Z</time>
      </trkpt>
      <trkpt lat="41.015823" lon="-7.041132">
        <ele>428.908</ele>
        <time>2019-06-22T16:44:15Z</time>
      </trkpt>
      <trkpt lat="41.015657" lon="-7.040946">
        <ele>429.385</ele>
        <time>2019-06-22T16:44:16Z</time>
      </trkpt>
      <trkpt lat="41.015493" lon="-7.040750">
        <ele>429.379</ele>
        <time>2019-06-22T16:44:17Z</time>
      </trkpt>
      <trkpt lat="41.015331" lon="-7.040544">
        <ele>427.571</ele>
        <time>2019-06-22T16:44:18Z</time>
      </trkpt>
      <trkpt lat="41.015174" lon="-7.040360">
        <ele>425.673</ele>
        <time>2019-06-22T16:44:19Z</time>
      </trkpt>
      <trkpt lat="41.015017" lon="-7.040180">
        <ele>424.461</ele>
        <time>2019-06-22T16:44:20Z</time>
      </trkpt>
      <trkpt lat="41.014874" lon="-7.040013">
        <ele>424.460</ele>
        <time>2019-06-22T16:44:21Z</time>
      </trkpt>
      <trkpt lat="41.014735" lon="-7.039845">
        <ele>424.525</ele>
        <time>2019-06-22T16:44:22Z</time>
      </trkpt>
      <trkpt lat="41.014582" lon="-7.039689">
        <ele>426.978</ele>
        <time>2019-06-22T16:44:23Z</time>
      </trkpt>
      <trkpt lat="41.014421" lon="-7.039551">
        <ele>428.392</ele>
        <time>2019-06-22T16:44:24Z</time>
      </trkpt>
      <trkpt lat="41.014247" lon="-7.039455">
        <ele>428.373</ele>
        <time>2019-06-22T16:44:25Z</time>
      </trkpt>
      <trkpt lat="41.014060" lon="-7.039380">
        <ele>427.820</ele>
        <time>2019-06-22T16:44:26Z</time>
      </trkpt>
      <trkpt lat="41.013872" lon="-7.039343">
        <ele>426.908</ele>
        <time>2019-06-22T16:44:27Z</time>
      </trkpt>
      <trkpt lat="41.013679" lon="-7.039342">
        <ele>425.172</ele>
        <time>2019-06-22T16:44:28Z</time>
      </trkpt>
      <trkpt lat="41.013486" lon="-7.039378">
        <ele>424.576</ele>
        <time>2019-06-22T16:44:29Z</time>
      </trkpt>
      <trkpt lat="41.013300" lon="-7.039439">
        <ele>424.598</ele>
        <time>2019-06-22T16:44:30Z</time>
      </trkpt>
      <trkpt lat="41.013114" lon="-7.039517">
        <ele>426.650</ele>
        <time>2019-06-22T16:44:31Z</time>
      </trkpt>
      <trkpt lat="41.012930" lon="-7.039575">
        <ele>428.998</ele>
        <time>2019-06-22T16:44:32Z</time>
      </trkpt>
      <trkpt lat="41.012746" lon="-7.039643">
        <ele>431.327</ele>
        <time>2019-06-22T16:44:33Z</time>
      </trkpt>
      <trkpt lat="41.012555" lon="-7.039610">
        <ele>434.652</ele>
        <time>2019-06-22T16:44:34Z</time>
      </trkpt>
      <trkpt lat="41.012368" lon="-7.039590">
        <ele>436.935</ele>
        <time>2019-06-22T16:44:35Z</time>
      </trkpt>
      <trkpt lat="41.012184" lon="-7.039547">
        <ele>438.696</ele>
        <time>2019-06-22T16:44:36Z</time>
      </trkpt>
      <trkpt lat="41.012008" lon="-7.039432">
        <ele>439.431</ele>
        <time>2019-06-22T16:44:37Z</time>
      </trkpt>
      <trkpt lat="41.011839" lon="-7.039297">
        <ele>439.824</ele>
        <time>2019-06-22T16:44:38Z</time>
      </trkpt>
      <trkpt lat="41.011669" lon="-7.039165">
        <ele>440.108</ele>
        <time>2019-06-22T16:44:39Z</time>
      </trkpt>
      <trkpt lat="41.011498" lon="-7.039034">
        <ele>440.182</ele>
        <time>2019-06-22T16:44:40Z</time>
      </trkpt>
      <trkpt lat="41.011319" lon="-7.038903">
        <ele>439.486</ele>
        <time>2019-06-22T16:44:41Z</time>
      </trkpt>
      <trkpt lat="41.011136" lon="-7.038809">
        <ele>438.458</ele>
        <time>2019-06-22T16:44:42Z</time>
      </trkpt>
      <trkpt lat="41.010944" lon="-7.038749">
        <ele>437.920</ele>
        <time>2019-06-22T16:44:43Z</time>
      </trkpt>
      <trkpt lat="41.010747" lon="-7.038715">
        <ele>437.548</ele>
        <time>2019-06-22T16:44:44Z</time>
      </trkpt>
      <trkpt lat="41.010538" lon="-7.038701">
        <ele>437.587</ele>
        <time>2019-06-22T16:44:45Z</time>
      </trkpt>
      <trkpt lat="41.010333" lon="-7.038714">
        <ele>438.232</ele>
        <time>2019-06-22T16:44:46Z</time>
      </trkpt>
      <trkpt lat="41.010128" lon="-7.038751">
        <ele>439.325</ele>
        <time>2019-06-22T16:44:47Z</time>
      </trkpt>
      <trkpt lat="41.009920" lon="-7.038815">
        <ele>440.576</ele>
        <time>2019-06-22T16:44:48Z</time>
      </trkpt>
      <trkpt lat="41.009717" lon="-7.038888">
        <ele>442.190</ele>
        <time>2019-06-22T16:44:49Z</time>
      </trkpt>
      <trkpt lat="41.009509" lon="-7.038963">
        <ele>443.719</ele>
        <time>2019-06-22T16:44:50Z</time>
      </trkpt>
      <trkpt lat="41.009308" lon="-7.039029">
        <ele>444.708</ele>
        <time>2019-06-22T16:44:51Z</time>
      </trkpt>
      <trkpt lat="41.009106" lon="-7.039096">
        <ele>446.390</ele>
        <time>2019-06-22T16:44:52Z</time>
      </trkpt>
      <trkpt lat="41.008906" lon="-7.039153">
        <ele>448.564</ele>
        <time>2019-06-22T16:44:53Z</time>
      </trkpt>
      <trkpt lat="41.008697" lon="-7.039213">
        <ele>449.636</ele>
        <time>2019-06-22T16:44:54Z</time>
      </trkpt>
      <trkpt lat="41.008492" lon="-7.039281">
        <ele>451.558</ele>
        <time>2019-06-22T16:44:55Z</time>
      </trkpt>
      <trkpt lat="41.008288" lon="-7.039340">
        <ele>453.266</ele>
        <time>2019-06-22T16:44:56Z</time>
      </trkpt>
      <trkpt lat="41.008079" lon="-7.039398">
        <ele>454.365</ele>
        <time>2019-06-22T16:44:57Z</time>
      </trkpt>
      <trkpt lat="41.007869" lon="-7.039448">
        <ele>454.320</ele>
        <time>2019-06-22T16:44:58Z</time>
      </trkpt>
      <trkpt lat="41.007662" lon="-7.039478">
        <ele>455.983</ele>
        <time>2019-06-22T16:44:59Z</time>
      </trkpt>
      <trkpt lat="41.007455" lon="-7.039476">
        <ele>457.621</ele>
        <time>2019-06-22T16:45:00Z</time>
      </trkpt>
      <trkpt lat="41.007243" lon="-7.039455">
        <ele>459.341</ele>
        <time>2019-06-22T16:45:01Z</time>
      </trkpt>
      <trkpt lat="41.007028" lon="-7.039426">
        <ele>460.705</ele>
        <time>2019-06-22T16:45:02Z</time>
      </trkpt>
      <trkpt lat="41.006816" lon="-7.039374">
        <ele>462.408</ele>
        <time>2019-06-22T16:45:03Z</time>
      </trkpt>
      <trkpt lat="41.006614" lon="-7.039335">
        <ele>463.395</ele>
        <time>2019-06-22T16:45:04Z</time>
      </trkpt>
      <trkpt lat="41.006405" lon="-7.039304">
        <ele>463.489</ele>
        <time>2019-06-22T16:45:05Z</time>
      </trkpt>
      <trkpt lat="41.006197" lon="-7.039273">
        <ele>463.651</ele>
        <time>2019-06-22T16:45:06Z</time>
      </trkpt>
      <trkpt lat="41.005979" lon="-7.039270">
        <ele>464.373</ele>
        <time>2019-06-22T16:45:07Z</time>
      </trkpt>
      <trkpt lat="41.005757" lon="-7.039282">
        <ele>466.141</ele>
        <time>2019-06-22T16:45:08Z</time>
      </trkpt>
      <trkpt lat="41.005546" lon="-7.039297">
        <ele>468.430</ele>
        <time>2019-06-22T16:45:09Z</time>
      </trkpt>
      <trkpt lat="41.005344" lon="-7.039347">
        <ele>470.795</ele>
        <time>2019-06-22T16:45:10Z</time>
      </trkpt>
      <trkpt lat="41.005141" lon="-7.039407">
        <ele>473.248</ele>
        <time>2019-06-22T16:45:11Z</time>
      </trkpt>
      <trkpt lat="41.004931" lon="-7.039474">
        <ele>474.952</ele>
        <time>2019-06-22T16:45:12Z</time>
      </trkpt>
      <trkpt lat="41.004726" lon="-7.039537">
        <ele>476.153</ele>
        <time>2019-06-22T16:45:13Z</time>
      </trkpt>
      <trkpt lat="41.004518" lon="-7.039605">
        <ele>477.508</ele>
        <time>2019-06-22T16:45:14Z</time>
      </trkpt>
      <trkpt lat="41.004320" lon="-7.039687">
        <ele>478.908</ele>
        <time>2019-06-22T16:45:15Z</time>
      </trkpt>
      <trkpt lat="41.004119" lon="-7.039735">
        <ele>480.658</ele>
        <time>2019-06-22T16:45:16Z</time>
      </trkpt>
      <trkpt lat="41.003920" lon="-7.039802">
        <ele>483.182</ele>
        <time>2019-06-22T16:45:17Z</time>
      </trkpt>
      <trkpt lat="41.003720" lon="-7.039842">
        <ele>485.354</ele>
        <time>2019-06-22T16:45:18Z</time>
      </trkpt>
      <trkpt lat="41.003540" lon="-7.039866">
        <ele>486.376</ele>
        <time>2019-06-22T16:45:19Z</time>
      </trkpt>
      <trkpt lat="41.003347" lon="-7.039854">
        <ele>486.854</ele>
        <time>2019-06-22T16:45:20Z</time>
      </trkpt>
      <trkpt lat="41.003156" lon="-7.039814">
        <ele>486.863</ele>
        <time>2019-06-22T16:45:21Z</time>
      </trkpt>
      <trkpt lat="41.002973" lon="-7.039768">
        <ele>486.728</ele>
        <time>2019-06-22T16:45:22Z</time>
      </trkpt>
      <trkpt lat="41.002803" lon="-7.039719">
        <ele>486.541</ele>
        <time>2019-06-22T16:45:23Z</time>
      </trkpt>
      <trkpt lat="41.002651" lon="-7.039663">
        <ele>486.587</ele>
        <time>2019-06-22T16:45:24Z</time>
      </trkpt>
      <trkpt lat="41.002499" lon="-7.039616">
        <ele>487.142</ele>
        <time>2019-06-22T16:45:25Z</time>
      </trkpt>
      <trkpt lat="41.002368" lon="-7.039578">
        <ele>487.426</ele>
        <time>2019-06-22T16:45:26Z</time>
      </trkpt>
      <trkpt lat="41.002234" lon="-7.039574">
        <ele>488.008</ele>
        <time>2019-06-22T16:45:27Z</time>
      </trkpt>
      <trkpt lat="41.002119" lon="-7.039585">
        <ele>488.151</ele>
        <time>2019-06-22T16:45:28Z</time>
      </trkpt>
      <trkpt lat="41.002014" lon="-7.039631">
        <ele>488.445</ele>
        <time>2019-06-22T16:45:29Z</time>
      </trkpt>
      <trkpt lat="41.001924" lon="-7.039720">
        <ele>488.627</ele>
        <time>2019-06-22T16:45:30Z</time>
      </trkpt>
      <trkpt lat="41.001827" lon="-7.039814">
        <ele>490.199</ele>
        <time>2019-06-22T16:45:31Z</time>
      </trkpt>
      <trkpt lat="41.001736" lon="-7.039932">
        <ele>491.357</ele>
        <time>2019-06-22T16:45:32Z</time>
      </trkpt>
      <trkpt lat="41.001646" lon="-7.040069">
        <ele>493.026</ele>
        <time>2019-06-22T16:45:33Z</time>
      </trkpt>
      <trkpt lat="41.001563" lon="-7.040198">
        <ele>495.791</ele>
        <time>2019-06-22T16:45:34Z</time>
      </trkpt>
      <trkpt lat="41.001477" lon="-7.040329">
        <ele>495.754</ele>
        <time>2019-06-22T16:45:35Z</time>
      </trkpt>
      <trkpt lat="41.001389" lon="-7.040470">
        <ele>495.769</ele>
        <time>2019-06-22T16:45:36Z</time>
      </trkpt>
      <trkpt lat="41.001276" lon="-7.040613">
        <ele>495.304</ele>
        <time>2019-06-22T16:45:37Z</time>
      </trkpt>
      <trkpt lat="41.001167" lon="-7.040757">
        <ele>494.624</ele>
        <time>2019-06-22T16:45:38Z</time>
      </trkpt>
      <trkpt lat="41.001040" lon="-7.040902">
        <ele>493.808</ele>
        <time>2019-06-22T16:45:39Z</time>
      </trkpt>
      <trkpt lat="41.000912" lon="-7.041042">
        <ele>492.889</ele>
        <time>2019-06-22T16:45:40Z</time>
      </trkpt>
      <trkpt lat="41.000767" lon="-7.041175">
        <ele>491.753</ele>
        <time>2019-06-22T16:45:41Z</time>
      </trkpt>
      <trkpt lat="41.000617" lon="-7.041301">
        <ele>490.725</ele>
        <time>2019-06-22T16:45:42Z</time>
      </trkpt>
      <trkpt lat="41.000469" lon="-7.041424">
        <ele>489.887</ele>
        <time>2019-06-22T16:45:43Z</time>
      </trkpt>
      <trkpt lat="41.000316" lon="-7.041550">
        <ele>488.325</ele>
        <time>2019-06-22T16:45:44Z</time>
      </trkpt>
      <trkpt lat="41.000162" lon="-7.041673">
        <ele>486.544</ele>
        <time>2019-06-22T16:45:45Z</time>
      </trkpt>
      <trkpt lat="41.000010" lon="-7.041789">
        <ele>484.529</ele>
        <time>2019-06-22T16:45:46Z</time>
      </trkpt>
      <trkpt lat="40.999864" lon="-7.041902">
        <ele>483.282</ele>
        <time>2019-06-22T16:45:47Z</time>
      </trkpt>
      <trkpt lat="40.999723" lon="-7.042022">
        <ele>481.173</ele>
        <time>2019-06-22T16:45:48Z</time>
      </trkpt>
      <trkpt lat="40.999603" lon="-7.042159">
        <ele>478.985</ele>
        <time>2019-06-22T16:45:49Z</time>
      </trkpt>
      <trkpt lat="40.999490" lon="-7.042293">
        <ele>477.013</ele>
        <time>2019-06-22T16:45:50Z</time>
      </trkpt>
      <trkpt lat="40.999400" lon="-7.042463">
        <ele>476.508</ele>
        <time>2019-06-22T16:45:51Z</time>
      </trkpt>
      <trkpt lat="40.999329" lon="-7.042644">
        <ele>476.320</ele>
        <time>2019-06-22T16:45:52Z</time>
      </trkpt>
      <trkpt lat="40.999256" lon="-7.042831">
        <ele>476.314</ele>
        <time>2019-06-22T16:45:53Z</time>
      </trkpt>
      <trkpt lat="40.999194" lon="-7.043030">
        <ele>477.316</ele>
        <time>2019-06-22T16:45:54Z</time>
      </trkpt>
      <trkpt lat="40.999143" lon="-7.043223">
        <ele>478.658</ele>
        <time>2019-06-22T16:45:55Z</time>
      </trkpt>
      <trkpt lat="40.999076" lon="-7.043421">
        <ele>478.696</ele>
        <time>2019-06-22T16:45:56Z</time>
      </trkpt>
      <trkpt lat="40.999023" lon="-7.043580">
        <ele>478.435</ele>
        <time>2019-06-22T16:45:57Z</time>
      </trkpt>
      <trkpt lat="40.998979" lon="-7.043756">
        <ele>477.730</ele>
        <time>2019-06-22T16:45:58Z</time>
      </trkpt>
      <trkpt lat="40.998920" lon="-7.043935">
        <ele>477.053</ele>
        <time>2019-06-22T16:45:59Z</time>
      </trkpt>
      <trkpt lat="40.998865" lon="-7.044112">
        <ele>476.795</ele>
        <time>2019-06-22T16:46:00Z</time>
      </trkpt>
      <trkpt lat="40.998818" lon="-7.044291">
        <ele>475.849</ele>
        <time>2019-06-22T16:46:01Z</time>
      </trkpt>
      <trkpt lat="40.998780" lon="-7.044461">
        <ele>475.123</ele>
        <time>2019-06-22T16:46:02Z</time>
      </trkpt>
      <trkpt lat="40.998765" lon="-7.044639">
        <ele>474.908</ele>
        <time>2019-06-22T16:46:03Z</time>
      </trkpt>
      <trkpt lat="40.998784" lon="-7.044806">
        <ele>474.982</ele>
        <time>2019-06-22T16:46:04Z</time>
      </trkpt>
      <trkpt lat="40.998815" lon="-7.044986">
        <ele>474.626</ele>
        <time>2019-06-22T16:46:05Z</time>
      </trkpt>
      <trkpt lat="40.998873" lon="-7.045130">
        <ele>473.758</ele>
        <time>2019-06-22T16:46:06Z</time>
      </trkpt>
      <trkpt lat="40.998956" lon="-7.045302">
        <ele>473.330</ele>
        <time>2019-06-22T16:46:07Z</time>
      </trkpt>
      <trkpt lat="40.999033" lon="-7.045492">
        <ele>472.958</ele>
        <time>2019-06-22T16:46:08Z</time>
      </trkpt>
      <trkpt lat="40.999108" lon="-7.045665">
        <ele>472.257</ele>
        <time>2019-06-22T16:46:09Z</time>
      </trkpt>
      <trkpt lat="40.999176" lon="-7.045854">
        <ele>471.612</ele>
        <time>2019-06-22T16:46:10Z</time>
      </trkpt>
      <trkpt lat="40.999236" lon="-7.046042">
        <ele>471.385</ele>
        <time>2019-06-22T16:46:11Z</time>
      </trkpt>
      <trkpt lat="40.999301" lon="-7.046236">
        <ele>470.953</ele>
        <time>2019-06-22T16:46:12Z</time>
      </trkpt>
      <trkpt lat="40.999350" lon="-7.046426">
        <ele>470.304</ele>
        <time>2019-06-22T16:46:13Z</time>
      </trkpt>
      <trkpt lat="40.999361" lon="-7.046616">
        <ele>469.814</ele>
        <time>2019-06-22T16:46:14Z</time>
      </trkpt>
      <trkpt lat="40.999393" lon="-7.046794">
        <ele>469.708</ele>
        <time>2019-06-22T16:46:15Z</time>
      </trkpt>
      <trkpt lat="40.999429" lon="-7.046963">
        <ele>469.368</ele>
        <time>2019-06-22T16:46:16Z</time>
      </trkpt>
      <trkpt lat="40.999480" lon="-7.047130">
        <ele>469.022</ele>
        <time>2019-06-22T16:46:17Z</time>
      </trkpt>
      <trkpt lat="40.999571" lon="-7.047292">
        <ele>468.974</ele>
        <time>2019-06-22T16:46:18Z</time>
      </trkpt>
      <trkpt lat="40.999655" lon="-7.047447">
        <ele>468.576</ele>
        <time>2019-06-22T16:46:19Z</time>
      </trkpt>
      <trkpt lat="40.999770" lon="-7.047564">
        <ele>467.684</ele>
        <time>2019-06-22T16:46:20Z</time>
      </trkpt>
      <trkpt lat="40.999857" lon="-7.047725">
        <ele>467.293</ele>
        <time>2019-06-22T16:46:21Z</time>
      </trkpt>
      <trkpt lat="40.999948" lon="-7.047889">
        <ele>466.658</ele>
        <time>2019-06-22T16:46:22Z</time>
      </trkpt>
      <trkpt lat="41.000040" lon="-7.048053">
        <ele>466.261</ele>
        <time>2019-06-22T16:46:23Z</time>
      </trkpt>
      <trkpt lat="41.000096" lon="-7.048244">
        <ele>465.618</ele>
        <time>2019-06-22T16:46:24Z</time>
      </trkpt>
      <trkpt lat="41.000146" lon="-7.048414">
        <ele>465.498</ele>
        <time>2019-06-22T16:46:25Z</time>
      </trkpt>
      <trkpt lat="41.000170" lon="-7.048590">
        <ele>465.117</ele>
        <time>2019-06-22T16:46:26Z</time>
      </trkpt>
      <trkpt lat="41.000188" lon="-7.048757">
        <ele>464.808</ele>
        <time>2019-06-22T16:46:27Z</time>
      </trkpt>
      <trkpt lat="41.000170" lon="-7.048912">
        <ele>464.814</ele>
        <time>2019-06-22T16:46:28Z</time>
      </trkpt>
      <trkpt lat="41.000158" lon="-7.049086">
        <ele>464.918</ele>
        <time>2019-06-22T16:46:29Z</time>
      </trkpt>
      <trkpt lat="41.000145" lon="-7.049262">
        <ele>465.090</ele>
        <time>2019-06-22T16:46:30Z</time>
      </trkpt>
      <trkpt lat="41.000170" lon="-7.049468">
        <ele>465.082</ele>
        <time>2019-06-22T16:46:31Z</time>
      </trkpt>
      <trkpt lat="41.000189" lon="-7.049662">
        <ele>464.680</ele>
        <time>2019-06-22T16:46:32Z</time>
      </trkpt>
      <trkpt lat="41.000212" lon="-7.049883">
        <ele>464.339</ele>
        <time>2019-06-22T16:46:33Z</time>
      </trkpt>
      <trkpt lat="41.000211" lon="-7.050089">
        <ele>463.714</ele>
        <time>2019-06-22T16:46:34Z</time>
      </trkpt>
      <trkpt lat="41.000193" lon="-7.050299">
        <ele>463.267</ele>
        <time>2019-06-22T16:46:35Z</time>
      </trkpt>
      <trkpt lat="41.000146" lon="-7.050512">
        <ele>462.669</ele>
        <time>2019-06-22T16:46:36Z</time>
      </trkpt>
      <trkpt lat="41.000099" lon="-7.050717">
        <ele>462.104</ele>
        <time>2019-06-22T16:46:37Z</time>
      </trkpt>
      <trkpt lat="41.000037" lon="-7.050895">
        <ele>461.424</ele>
        <time>2019-06-22T16:46:38Z</time>
      </trkpt>
      <trkpt lat="40.999980" lon="-7.051106">
        <ele>460.008</ele>
        <time>2019-06-22T16:46:39Z</time>
      </trkpt>
      <trkpt lat="40.999927" lon="-7.051316">
        <ele>459.119</ele>
        <time>2019-06-22T16:46:40Z</time>
      </trkpt>
      <trkpt lat="40.999879" lon="-7.051525">
        <ele>457.383</ele>
        <time>2019-06-22T16:46:41Z</time>
      </trkpt>
      <trkpt lat="40.999840" lon="-7.051732">
        <ele>456.655</ele>
        <time>2019-06-22T16:46:42Z</time>
      </trkpt>
      <trkpt lat="40.999798" lon="-7.051943">
        <ele>456.147</ele>
        <time>2019-06-22T16:46:43Z</time>
      </trkpt>
      <trkpt lat="40.999754" lon="-7.052166">
        <ele>456.095</ele>
        <time>2019-06-22T16:46:44Z</time>
      </trkpt>
      <trkpt lat="40.999714" lon="-7.052387">
        <ele>455.994</ele>
        <time>2019-06-22T16:46:45Z</time>
      </trkpt>
      <trkpt lat="40.999679" lon="-7.052605">
        <ele>455.729</ele>
        <time>2019-06-22T16:46:46Z</time>
      </trkpt>
      <trkpt lat="40.999644" lon="-7.052823">
        <ele>455.342</ele>
        <time>2019-06-22T16:46:47Z</time>
      </trkpt>
      <trkpt lat="40.999642" lon="-7.053014">
        <ele>454.618</ele>
        <time>2019-06-22T16:46:48Z</time>
      </trkpt>
      <trkpt lat="40.999658" lon="-7.053191">
        <ele>453.798</ele>
        <time>2019-06-22T16:46:49Z</time>
      </trkpt>
      <trkpt lat="40.999680" lon="-7.053341">
        <ele>452.417</ele>
        <time>2019-06-22T16:46:50Z</time>
      </trkpt>
      <trkpt lat="40.999704" lon="-7.053497">
        <ele>452.108</ele>
        <time>2019-06-22T16:46:51Z</time>
      </trkpt>
      <trkpt lat="40.999724" lon="-7.053566">
        <ele>451.774</ele>
        <time>2019-06-22T16:46:52Z</time>
      </trkpt>
      <trkpt lat="40.999742" lon="-7.053673">
        <ele>451.218</ele>
        <time>2019-06-22T16:46:53Z</time>
      </trkpt>
      <trkpt lat="40.999756" lon="-7.053740">
        <ele>451.260</ele>
        <time>2019-06-22T16:46:54Z</time>
      </trkpt>
      <trkpt lat="40.999784" lon="-7.053833">
        <ele>451.222</ele>
        <time>2019-06-22T16:46:55Z</time>
      </trkpt>
      <trkpt lat="40.999806" lon="-7.053918">
        <ele>451.160</ele>
        <time>2019-06-22T16:46:56Z</time>
      </trkpt>
      <trkpt lat="40.999818" lon="-7.053995">
        <ele>451.139</ele>
        <time>2019-06-22T16:46:57Z</time>
      </trkpt>
      <trkpt lat="40.999831" lon="-7.054104">
        <ele>450.964</ele>
        <time>2019-06-22T16:46:58Z</time>
      </trkpt>
      <trkpt lat="40.999850" lon="-7.054202">
        <ele>450.797</ele>
        <time>2019-06-22T16:46:59Z</time>
      </trkpt>
      <trkpt lat="40.999849" lon="-7.054287">
        <ele>450.783</ele>
        <time>2019-06-22T16:47:00Z</time>
      </trkpt>
      <trkpt lat="40.999835" lon="-7.054370">
        <ele>450.825</ele>
        <time>2019-06-22T16:47:01Z</time>
      </trkpt>
      <trkpt lat="40.999809" lon="-7.054438">
        <ele>450.817</ele>
        <time>2019-06-22T16:47:02Z</time>
      </trkpt>
      <trkpt lat="40.999774" lon="-7.054497">
        <ele>450.708</ele>
        <time>2019-06-22T16:47:03Z</time>
      </trkpt>
      <trkpt lat="40.999718" lon="-7.054539">
        <ele>450.721</ele>
        <time>2019-06-22T16:47:04Z</time>
      </trkpt>
      <trkpt lat="40.999641" lon="-7.054538">
        <ele>450.885</ele>
        <time>2019-06-22T16:47:06Z</time>
      </trkpt>
      <trkpt lat="40.999585" lon="-7.054501">
        <ele>450.967</ele>
        <time>2019-06-22T16:47:07Z</time>
      </trkpt>
      <trkpt lat="40.999532" lon="-7.054466">
        <ele>451.019</ele>
        <time>2019-06-22T16:47:08Z</time>
      </trkpt>
      <trkpt lat="40.999472" lon="-7.054407">
        <ele>451.097</ele>
        <time>2019-06-22T16:47:09Z</time>
      </trkpt>
      <trkpt lat="40.999409" lon="-7.054356">
        <ele>451.166</ele>
        <time>2019-06-22T16:47:10Z</time>
      </trkpt>
      <trkpt lat="40.999349" lon="-7.054258">
        <ele>451.251</ele>
        <time>2019-06-22T16:47:11Z</time>
      </trkpt>
      <trkpt lat="40.999274" lon="-7.054180">
        <ele>451.374</ele>
        <time>2019-06-22T16:47:12Z</time>
      </trkpt>
      <trkpt lat="40.999194" lon="-7.054105">
        <ele>451.418</ele>
        <time>2019-06-22T16:47:13Z</time>
      </trkpt>
      <trkpt lat="40.999112" lon="-7.054054">
        <ele>451.798</ele>
        <time>2019-06-22T16:47:14Z</time>
      </trkpt>
      <trkpt lat="40.999021" lon="-7.053984">
        <ele>452.017</ele>
        <time>2019-06-22T16:47:15Z</time>
      </trkpt>
      <trkpt lat="40.998923" lon="-7.053939">
        <ele>452.308</ele>
        <time>2019-06-22T16:47:16Z</time>
      </trkpt>
      <trkpt lat="40.998831" lon="-7.053878">
        <ele>452.874</ele>
        <time>2019-06-22T16:47:17Z</time>
      </trkpt>
      <trkpt lat="40.998744" lon="-7.053825">
        <ele>453.418</ele>
        <time>2019-06-22T16:47:18Z</time>
      </trkpt>
      <trkpt lat="40.998653" lon="-7.053800">
        <ele>454.180</ele>
        <time>2019-06-22T16:47:19Z</time>
      </trkpt>
      <trkpt lat="40.998552" lon="-7.053781">
        <ele>454.712</ele>
        <time>2019-06-22T16:47:20Z</time>
      </trkpt>
      <trkpt lat="40.998448" lon="-7.053777">
        <ele>455.510</ele>
        <time>2019-06-22T16:47:21Z</time>
      </trkpt>
      <trkpt lat="40.998364" lon="-7.053822">
        <ele>456.329</ele>
        <time>2019-06-22T16:47:22Z</time>
      </trkpt>
      <trkpt lat="40.998274" lon="-7.053831">
        <ele>457.074</ele>
        <time>2019-06-22T16:47:23Z</time>
      </trkpt>
      <trkpt lat="40.998175" lon="-7.053864">
        <ele>457.817</ele>
        <time>2019-06-22T16:47:24Z</time>
      </trkpt>
      <trkpt lat="40.998087" lon="-7.053923">
        <ele>458.562</ele>
        <time>2019-06-22T16:47:25Z</time>
      </trkpt>
      <trkpt lat="40.997991" lon="-7.054011">
        <ele>458.783</ele>
        <time>2019-06-22T16:47:26Z</time>
      </trkpt>
      <trkpt lat="40.997886" lon="-7.054086">
        <ele>458.911</ele>
        <time>2019-06-22T16:47:27Z</time>
      </trkpt>
      <trkpt lat="40.997759" lon="-7.054161">
        <ele>459.008</ele>
        <time>2019-06-22T16:47:28Z</time>
      </trkpt>
      <trkpt lat="40.997619" lon="-7.054238">
        <ele>459.099</ele>
        <time>2019-06-22T16:47:29Z</time>
      </trkpt>
      <trkpt lat="40.997479" lon="-7.054318">
        <ele>459.053</ele>
        <time>2019-06-22T16:47:30Z</time>
      </trkpt>
      <trkpt lat="40.997337" lon="-7.054399">
        <ele>459.185</ele>
        <time>2019-06-22T16:47:31Z</time>
      </trkpt>
      <trkpt lat="40.997194" lon="-7.054480">
        <ele>459.547</ele>
        <time>2019-06-22T16:47:32Z</time>
      </trkpt>
      <trkpt lat="40.997048" lon="-7.054563">
        <ele>459.725</ele>
        <time>2019-06-22T16:47:33Z</time>
      </trkpt>
      <trkpt lat="40.996889" lon="-7.054626">
        <ele>460.064</ele>
        <time>2019-06-22T16:47:34Z</time>
      </trkpt>
      <trkpt lat="40.996721" lon="-7.054676">
        <ele>460.659</ele>
        <time>2019-06-22T16:47:35Z</time>
      </trkpt>
      <trkpt lat="40.996549" lon="-7.054708">
        <ele>460.642</ele>
        <time>2019-06-22T16:47:36Z</time>
      </trkpt>
      <trkpt lat="40.996383" lon="-7.054737">
        <ele>460.626</ele>
        <time>2019-06-22T16:47:37Z</time>
      </trkpt>
      <trkpt lat="40.996228" lon="-7.054769">
        <ele>460.347</ele>
        <time>2019-06-22T16:47:38Z</time>
      </trkpt>
      <trkpt lat="40.996071" lon="-7.054805">
        <ele>460.511</ele>
        <time>2019-06-22T16:47:39Z</time>
      </trkpt>
      <trkpt lat="40.995922" lon="-7.054837">
        <ele>460.508</ele>
        <time>2019-06-22T16:47:40Z</time>
      </trkpt>
      <trkpt lat="40.995776" lon="-7.054869">
        <ele>461.395</ele>
        <time>2019-06-22T16:47:41Z</time>
      </trkpt>
      <trkpt lat="40.995634" lon="-7.054927">
        <ele>461.919</ele>
        <time>2019-06-22T16:47:42Z</time>
      </trkpt>
      <trkpt lat="40.995490" lon="-7.054970">
        <ele>462.031</ele>
        <time>2019-06-22T16:47:43Z</time>
      </trkpt>
      <trkpt lat="40.995346" lon="-7.055031">
        <ele>462.343</ele>
        <time>2019-06-22T16:47:44Z</time>
      </trkpt>
      <trkpt lat="40.995191" lon="-7.055120">
        <ele>462.331</ele>
        <time>2019-06-22T16:47:45Z</time>
      </trkpt>
      <trkpt lat="40.995039" lon="-7.055199">
        <ele>462.570</ele>
        <time>2019-06-22T16:47:46Z</time>
      </trkpt>
      <trkpt lat="40.994889" lon="-7.055273">
        <ele>462.655</ele>
        <time>2019-06-22T16:47:47Z</time>
      </trkpt>
      <trkpt lat="40.994732" lon="-7.055355">
        <ele>463.318</ele>
        <time>2019-06-22T16:47:48Z</time>
      </trkpt>
      <trkpt lat="40.994590" lon="-7.055421">
        <ele>464.152</ele>
        <time>2019-06-22T16:47:49Z</time>
      </trkpt>
      <trkpt lat="40.994443" lon="-7.055487">
        <ele>464.453</ele>
        <time>2019-06-22T16:47:50Z</time>
      </trkpt>
      <trkpt lat="40.994300" lon="-7.055565">
        <ele>465.208</ele>
        <time>2019-06-22T16:47:51Z</time>
      </trkpt>
      <trkpt lat="40.994155" lon="-7.055642">
        <ele>465.708</ele>
        <time>2019-06-22T16:47:52Z</time>
      </trkpt>
      <trkpt lat="40.993997" lon="-7.055717">
        <ele>466.118</ele>
        <time>2019-06-22T16:47:53Z</time>
      </trkpt>
      <trkpt lat="40.993849" lon="-7.055780">
        <ele>466.952</ele>
        <time>2019-06-22T16:47:54Z</time>
      </trkpt>
      <trkpt lat="40.993698" lon="-7.055844">
        <ele>467.484</ele>
        <time>2019-06-22T16:47:55Z</time>
      </trkpt>
      <trkpt lat="40.993544" lon="-7.055916">
        <ele>468.056</ele>
        <time>2019-06-22T16:47:56Z</time>
      </trkpt>
      <trkpt lat="40.993386" lon="-7.055989">
        <ele>468.794</ele>
        <time>2019-06-22T16:47:57Z</time>
      </trkpt>
      <trkpt lat="40.993232" lon="-7.056058">
        <ele>469.633</ele>
        <time>2019-06-22T16:47:58Z</time>
      </trkpt>
      <trkpt lat="40.993076" lon="-7.056130">
        <ele>470.228</ele>
        <time>2019-06-22T16:47:59Z</time>
      </trkpt>
      <trkpt lat="40.992921" lon="-7.056208">
        <ele>470.611</ele>
        <time>2019-06-22T16:48:00Z</time>
      </trkpt>
      <trkpt lat="40.992772" lon="-7.056282">
        <ele>470.772</ele>
        <time>2019-06-22T16:48:01Z</time>
      </trkpt>
      <trkpt lat="40.992608" lon="-7.056376">
        <ele>470.913</ele>
        <time>2019-06-22T16:48:02Z</time>
      </trkpt>
      <trkpt lat="40.992452" lon="-7.056449">
        <ele>471.014</ele>
        <time>2019-06-22T16:48:03Z</time>
      </trkpt>
      <trkpt lat="40.992299" lon="-7.056526">
        <ele>471.408</ele>
        <time>2019-06-22T16:48:04Z</time>
      </trkpt>
      <trkpt lat="40.992145" lon="-7.056599">
        <ele>472.320</ele>
        <time>2019-06-22T16:48:05Z</time>
      </trkpt>
      <trkpt lat="40.991985" lon="-7.056669">
        <ele>473.414</ele>
        <time>2019-06-22T16:48:06Z</time>
      </trkpt>
      <trkpt lat="40.991835" lon="-7.056739">
        <ele>474.556</ele>
        <time>2019-06-22T16:48:07Z</time>
      </trkpt>
      <trkpt lat="40.991679" lon="-7.056819">
        <ele>475.748</ele>
        <time>2019-06-22T16:48:08Z</time>
      </trkpt>
      <trkpt lat="40.991525" lon="-7.056899">
        <ele>476.526</ele>
        <time>2019-06-22T16:48:09Z</time>
      </trkpt>
      <trkpt lat="40.991369" lon="-7.056979">
        <ele>477.115</ele>
        <time>2019-06-22T16:48:10Z</time>
      </trkpt>
      <trkpt lat="40.991212" lon="-7.057065">
        <ele>477.550</ele>
        <time>2019-06-22T16:48:11Z</time>
      </trkpt>
      <trkpt lat="40.991061" lon="-7.057154">
        <ele>477.613</ele>
        <time>2019-06-22T16:48:12Z</time>
      </trkpt>
      <trkpt lat="40.990925" lon="-7.057227">
        <ele>478.155</ele>
        <time>2019-06-22T16:48:13Z</time>
      </trkpt>
      <trkpt lat="40.990791" lon="-7.057308">
        <ele>478.607</ele>
        <time>2019-06-22T16:48:14Z</time>
      </trkpt>
      <trkpt lat="40.990642" lon="-7.057383">
        <ele>478.617</ele>
        <time>2019-06-22T16:48:15Z</time>
      </trkpt>
      <trkpt lat="40.990469" lon="-7.057439">
        <ele>479.108</ele>
        <time>2019-06-22T16:48:16Z</time>
      </trkpt>
      <trkpt lat="40.990290" lon="-7.057456">
        <ele>480.048</ele>
        <time>2019-06-22T16:48:17Z</time>
      </trkpt>
      <trkpt lat="40.990110" lon="-7.057479">
        <ele>480.792</ele>
        <time>2019-06-22T16:48:18Z</time>
      </trkpt>
      <trkpt lat="40.989927" lon="-7.057482">
        <ele>481.014</ele>
        <time>2019-06-22T16:48:19Z</time>
      </trkpt>
      <trkpt lat="40.989743" lon="-7.057498">
        <ele>480.926</ele>
        <time>2019-06-22T16:48:20Z</time>
      </trkpt>
      <trkpt lat="40.989575" lon="-7.057492">
        <ele>480.924</ele>
        <time>2019-06-22T16:48:21Z</time>
      </trkpt>
      <trkpt lat="40.989401" lon="-7.057502">
        <ele>480.523</ele>
        <time>2019-06-22T16:48:22Z</time>
      </trkpt>
      <trkpt lat="40.989217" lon="-7.057509">
        <ele>480.528</ele>
        <time>2019-06-22T16:48:23Z</time>
      </trkpt>
      <trkpt lat="40.989029" lon="-7.057513">
        <ele>480.821</ele>
        <time>2019-06-22T16:48:24Z</time>
      </trkpt>
      <trkpt lat="40.988839" lon="-7.057506">
        <ele>480.847</ele>
        <time>2019-06-22T16:48:25Z</time>
      </trkpt>
      <trkpt lat="40.988642" lon="-7.057506">
        <ele>481.229</ele>
        <time>2019-06-22T16:48:26Z</time>
      </trkpt>
      <trkpt lat="40.988449" lon="-7.057501">
        <ele>482.521</ele>
        <time>2019-06-22T16:48:27Z</time>
      </trkpt>
      <trkpt lat="40.988254" lon="-7.057464">
        <ele>483.808</ele>
        <time>2019-06-22T16:48:28Z</time>
      </trkpt>
      <trkpt lat="40.988052" lon="-7.057423">
        <ele>484.897</ele>
        <time>2019-06-22T16:48:29Z</time>
      </trkpt>
      <trkpt lat="40.987854" lon="-7.057365">
        <ele>485.871</ele>
        <time>2019-06-22T16:48:30Z</time>
      </trkpt>
      <trkpt lat="40.987650" lon="-7.057297">
        <ele>486.153</ele>
        <time>2019-06-22T16:48:31Z</time>
      </trkpt>
      <trkpt lat="40.987445" lon="-7.057248">
        <ele>486.175</ele>
        <time>2019-06-22T16:48:32Z</time>
      </trkpt>
      <trkpt lat="40.987256" lon="-7.057191">
        <ele>485.543</ele>
        <time>2019-06-22T16:48:33Z</time>
      </trkpt>
      <trkpt lat="40.987067" lon="-7.057143">
        <ele>485.342</ele>
        <time>2019-06-22T16:48:34Z</time>
      </trkpt>
      <trkpt lat="40.986898" lon="-7.057090">
        <ele>484.367</ele>
        <time>2019-06-22T16:48:35Z</time>
      </trkpt>
      <trkpt lat="40.986743" lon="-7.057048">
        <ele>484.340</ele>
        <time>2019-06-22T16:48:36Z</time>
      </trkpt>
      <trkpt lat="40.986602" lon="-7.056986">
        <ele>484.593</ele>
        <time>2019-06-22T16:48:37Z</time>
      </trkpt>
      <trkpt lat="40.986473" lon="-7.056931">
        <ele>485.165</ele>
        <time>2019-06-22T16:48:38Z</time>
      </trkpt>
      <trkpt lat="40.986353" lon="-7.056878">
        <ele>485.821</ele>
        <time>2019-06-22T16:48:39Z</time>
      </trkpt>
      <trkpt lat="40.986234" lon="-7.056805">
        <ele>487.408</ele>
        <time>2019-06-22T16:48:40Z</time>
      </trkpt>
      <trkpt lat="40.986145" lon="-7.056665">
        <ele>489.962</ele>
        <time>2019-06-22T16:48:41Z</time>
      </trkpt>
      <trkpt lat="40.986044" lon="-7.056525">
        <ele>491.496</ele>
        <time>2019-06-22T16:48:42Z</time>
      </trkpt>
      <trkpt lat="40.985943" lon="-7.056379">
        <ele>492.638</ele>
        <time>2019-06-22T16:48:43Z</time>
      </trkpt>
      <trkpt lat="40.985842" lon="-7.056232">
        <ele>494.250</ele>
        <time>2019-06-22T16:48:44Z</time>
      </trkpt>
      <trkpt lat="40.985709" lon="-7.056048">
        <ele>494.948</ele>
        <time>2019-06-22T16:48:45Z</time>
      </trkpt>
      <trkpt lat="40.985594" lon="-7.055875">
        <ele>495.637</ele>
        <time>2019-06-22T16:48:46Z</time>
      </trkpt>
      <trkpt lat="40.985475" lon="-7.055696">
        <ele>496.062</ele>
        <time>2019-06-22T16:48:47Z</time>
      </trkpt>
      <trkpt lat="40.985353" lon="-7.055510">
        <ele>496.745</ele>
        <time>2019-06-22T16:48:48Z</time>
      </trkpt>
      <trkpt lat="40.985246" lon="-7.055331">
        <ele>497.373</ele>
        <time>2019-06-22T16:48:49Z</time>
      </trkpt>
      <trkpt lat="40.985136" lon="-7.055174">
        <ele>497.385</ele>
        <time>2019-06-22T16:48:50Z</time>
      </trkpt>
      <trkpt lat="40.985032" lon="-7.055023">
        <ele>497.313</ele>
        <time>2019-06-22T16:48:51Z</time>
      </trkpt>
      <trkpt lat="40.984912" lon="-7.054933">
        <ele>496.708</ele>
        <time>2019-06-22T16:48:52Z</time>
      </trkpt>
      <trkpt lat="40.984799" lon="-7.054861">
        <ele>496.290</ele>
        <time>2019-06-22T16:48:53Z</time>
      </trkpt>
      <trkpt lat="40.984684" lon="-7.054789">
        <ele>496.194</ele>
        <time>2019-06-22T16:48:54Z</time>
      </trkpt>
      <trkpt lat="40.984524" lon="-7.054763">
        <ele>496.136</ele>
        <time>2019-06-22T16:48:55Z</time>
      </trkpt>
      <trkpt lat="40.984380" lon="-7.054731">
        <ele>496.278</ele>
        <time>2019-06-22T16:48:56Z</time>
      </trkpt>
      <trkpt lat="40.984213" lon="-7.054699">
        <ele>497.366</ele>
        <time>2019-06-22T16:48:57Z</time>
      </trkpt>
      <trkpt lat="40.984045" lon="-7.054686">
        <ele>498.885</ele>
        <time>2019-06-22T16:48:58Z</time>
      </trkpt>
      <trkpt lat="40.983884" lon="-7.054656">
        <ele>499.510</ele>
        <time>2019-06-22T16:48:59Z</time>
      </trkpt>
      <trkpt lat="40.983713" lon="-7.054632">
        <ele>500.283</ele>
        <time>2019-06-22T16:49:00Z</time>
      </trkpt>
      <trkpt lat="40.983543" lon="-7.054612">
        <ele>500.224</ele>
        <time>2019-06-22T16:49:01Z</time>
      </trkpt>
      <trkpt lat="40.983367" lon="-7.054635">
        <ele>500.004</ele>
        <time>2019-06-22T16:49:02Z</time>
      </trkpt>
      <trkpt lat="40.983189" lon="-7.054677">
        <ele>499.914</ele>
        <time>2019-06-22T16:49:03Z</time>
      </trkpt>
      <trkpt lat="40.983007" lon="-7.054718">
        <ele>499.808</ele>
        <time>2019-06-22T16:49:04Z</time>
      </trkpt>
      <trkpt lat="40.982815" lon="-7.054740">
        <ele>499.895</ele>
        <time>2019-06-22T16:49:05Z</time>
      </trkpt>
      <trkpt lat="40.982649" lon="-7.054775">
        <ele>499.819</ele>
        <time>2019-06-22T16:49:06Z</time>
      </trkpt>
      <trkpt lat="40.982482" lon="-7.054822">
        <ele>500.131</ele>
        <time>2019-06-22T16:49:07Z</time>
      </trkpt>
      <trkpt lat="40.982307" lon="-7.054862">
        <ele>500.123</ele>
        <time>2019-06-22T16:49:08Z</time>
      </trkpt>
      <trkpt lat="40.982118" lon="-7.054886">
        <ele>500.361</ele>
        <time>2019-06-22T16:49:09Z</time>
      </trkpt>
      <trkpt lat="40.981917" lon="-7.054915">
        <ele>500.310</ele>
        <time>2019-06-22T16:49:10Z</time>
      </trkpt>
      <trkpt lat="40.981703" lon="-7.054937">
        <ele>501.245</ele>
        <time>2019-06-22T16:49:11Z</time>
      </trkpt>
      <trkpt lat="40.981497" lon="-7.054908">
        <ele>502.788</ele>
        <time>2019-06-22T16:49:12Z</time>
      </trkpt>
      <trkpt lat="40.981291" lon="-7.054867">
        <ele>503.024</ele>
        <time>2019-06-22T16:49:13Z</time>
      </trkpt>
      <trkpt lat="40.981080" lon="-7.054820">
        <ele>503.004</ele>
        <time>2019-06-22T16:49:14Z</time>
      </trkpt>
      <trkpt lat="40.980876" lon="-7.054768">
        <ele>502.114</ele>
        <time>2019-06-22T16:49:15Z</time>
      </trkpt>
      <trkpt lat="40.980676" lon="-7.054718">
        <ele>501.108</ele>
        <time>2019-06-22T16:49:16Z</time>
      </trkpt>
      <trkpt lat="40.980465" lon="-7.054663">
        <ele>500.445</ele>
        <time>2019-06-22T16:49:17Z</time>
      </trkpt>
      <trkpt lat="40.980252" lon="-7.054612">
        <ele>500.259</ele>
        <time>2019-06-22T16:49:18Z</time>
      </trkpt>
      <trkpt lat="40.980045" lon="-7.054561">
        <ele>500.291</ele>
        <time>2019-06-22T16:49:19Z</time>
      </trkpt>
      <trkpt lat="40.979841" lon="-7.054502">
        <ele>500.673</ele>
        <time>2019-06-22T16:49:20Z</time>
      </trkpt>
      <trkpt lat="40.979638" lon="-7.054452">
        <ele>500.621</ele>
        <time>2019-06-22T16:49:21Z</time>
      </trkpt>
      <trkpt lat="40.979426" lon="-7.054400">
        <ele>501.510</ele>
        <time>2019-06-22T16:49:22Z</time>
      </trkpt>
      <trkpt lat="40.979216" lon="-7.054344">
        <ele>502.115</ele>
        <time>2019-06-22T16:49:23Z</time>
      </trkpt>
      <trkpt lat="40.978995" lon="-7.054295">
        <ele>502.378</ele>
        <time>2019-06-22T16:49:24Z</time>
      </trkpt>
      <trkpt lat="40.978780" lon="-7.054244">
        <ele>502.146</ele>
        <time>2019-06-22T16:49:25Z</time>
      </trkpt>
      <trkpt lat="40.978570" lon="-7.054194">
        <ele>501.688</ele>
        <time>2019-06-22T16:49:26Z</time>
      </trkpt>
      <trkpt lat="40.978372" lon="-7.054146">
        <ele>501.116</ele>
        <time>2019-06-22T16:49:27Z</time>
      </trkpt>
      <trkpt lat="40.978167" lon="-7.054093">
        <ele>501.108</ele>
        <time>2019-06-22T16:49:28Z</time>
      </trkpt>
      <trkpt lat="40.977949" lon="-7.054038">
        <ele>502.097</ele>
        <time>2019-06-22T16:49:29Z</time>
      </trkpt>
      <trkpt lat="40.977741" lon="-7.053976">
        <ele>503.321</ele>
        <time>2019-06-22T16:49:30Z</time>
      </trkpt>
      <trkpt lat="40.977537" lon="-7.053908">
        <ele>505.113</ele>
        <time>2019-06-22T16:49:31Z</time>
      </trkpt>
      <trkpt lat="40.977340" lon="-7.053818">
        <ele>507.145</ele>
        <time>2019-06-22T16:49:32Z</time>
      </trkpt>
      <trkpt lat="40.977140" lon="-7.053734">
        <ele>507.783</ele>
        <time>2019-06-22T16:49:33Z</time>
      </trkpt>
      <trkpt lat="40.976949" lon="-7.053660">
        <ele>509.112</ele>
        <time>2019-06-22T16:49:34Z</time>
      </trkpt>
      <trkpt lat="40.976752" lon="-7.053581">
        <ele>510.437</ele>
        <time>2019-06-22T16:49:35Z</time>
      </trkpt>
      <trkpt lat="40.976580" lon="-7.053519">
        <ele>511.150</ele>
        <time>2019-06-22T16:49:36Z</time>
      </trkpt>
      <trkpt lat="40.976399" lon="-7.053454">
        <ele>511.567</ele>
        <time>2019-06-22T16:49:37Z</time>
      </trkpt>
      <trkpt lat="40.976214" lon="-7.053394">
        <ele>512.281</ele>
        <time>2019-06-22T16:49:38Z</time>
      </trkpt>
      <trkpt lat="40.976046" lon="-7.053313">
        <ele>513.319</ele>
        <time>2019-06-22T16:49:39Z</time>
      </trkpt>
      <trkpt lat="40.975868" lon="-7.053205">
        <ele>513.808</ele>
        <time>2019-06-22T16:49:40Z</time>
      </trkpt>
      <trkpt lat="40.975699" lon="-7.053085">
        <ele>514.349</ele>
        <time>2019-06-22T16:49:41Z</time>
      </trkpt>
      <trkpt lat="40.975539" lon="-7.052916">
        <ele>515.493</ele>
        <time>2019-06-22T16:49:42Z</time>
      </trkpt>
      <trkpt lat="40.975372" lon="-7.052770">
        <ele>516.755</ele>
        <time>2019-06-22T16:49:43Z</time>
      </trkpt>
      <trkpt lat="40.975184" lon="-7.052617">
        <ele>516.727</ele>
        <time>2019-06-22T16:49:44Z</time>
      </trkpt>
      <trkpt lat="40.975007" lon="-7.052485">
        <ele>516.045</ele>
        <time>2019-06-22T16:49:45Z</time>
      </trkpt>
      <trkpt lat="40.974824" lon="-7.052355">
        <ele>515.654</ele>
        <time>2019-06-22T16:49:46Z</time>
      </trkpt>
      <trkpt lat="40.974630" lon="-7.052232">
        <ele>515.159</ele>
        <time>2019-06-22T16:49:47Z</time>
      </trkpt>
      <trkpt lat="40.974438" lon="-7.052153">
        <ele>513.982</ele>
        <time>2019-06-22T16:49:48Z</time>
      </trkpt>
      <trkpt lat="40.974255" lon="-7.052080">
        <ele>513.942</ele>
        <time>2019-06-22T16:49:49Z</time>
      </trkpt>
      <trkpt lat="40.974067" lon="-7.051986">
        <ele>514.922</ele>
        <time>2019-06-22T16:49:50Z</time>
      </trkpt>
      <trkpt lat="40.973881" lon="-7.051876">
        <ele>516.614</ele>
        <time>2019-06-22T16:49:51Z</time>
      </trkpt>
      <trkpt lat="40.973707" lon="-7.051753">
        <ele>518.708</ele>
        <time>2019-06-22T16:49:52Z</time>
      </trkpt>
      <trkpt lat="40.973547" lon="-7.051558">
        <ele>521.127</ele>
        <time>2019-06-22T16:49:53Z</time>
      </trkpt>
      <trkpt lat="40.973370" lon="-7.051408">
        <ele>523.351</ele>
        <time>2019-06-22T16:49:54Z</time>
      </trkpt>
      <trkpt lat="40.973193" lon="-7.051260">
        <ele>523.953</ele>
        <time>2019-06-22T16:49:55Z</time>
      </trkpt>
      <trkpt lat="40.973025" lon="-7.051119">
        <ele>524.315</ele>
        <time>2019-06-22T16:49:56Z</time>
      </trkpt>
      <trkpt lat="40.972860" lon="-7.050975">
        <ele>524.533</ele>
        <time>2019-06-22T16:49:57Z</time>
      </trkpt>
      <trkpt lat="40.972724" lon="-7.050862">
        <ele>525.112</ele>
        <time>2019-06-22T16:49:58Z</time>
      </trkpt>
      <trkpt lat="40.972573" lon="-7.050726">
        <ele>526.137</ele>
        <time>2019-06-22T16:49:59Z</time>
      </trkpt>
      <trkpt lat="40.972431" lon="-7.050578">
        <ele>527.420</ele>
        <time>2019-06-22T16:50:00Z</time>
      </trkpt>
      <trkpt lat="40.972276" lon="-7.050441">
        <ele>528.372</ele>
        <time>2019-06-22T16:50:01Z</time>
      </trkpt>
      <trkpt lat="40.972108" lon="-7.050280">
        <ele>529.213</ele>
        <time>2019-06-22T16:50:02Z</time>
      </trkpt>
      <trkpt lat="40.971936" lon="-7.050143">
        <ele>530.114</ele>
        <time>2019-06-22T16:50:03Z</time>
      </trkpt>
      <trkpt lat="40.971777" lon="-7.049972">
        <ele>531.108</ele>
        <time>2019-06-22T16:50:04Z</time>
      </trkpt>
      <trkpt lat="40.971604" lon="-7.049824">
        <ele>531.160</ele>
        <time>2019-06-22T16:50:05Z</time>
      </trkpt>
      <trkpt lat="40.971435" lon="-7.049655">
        <ele>531.034</ele>
        <time>2019-06-22T16:50:06Z</time>
      </trkpt>
      <trkpt lat="40.971243" lon="-7.049498">
        <ele>530.976</ele>
        <time>2019-06-22T16:50:07Z</time>
      </trkpt>
      <trkpt lat="40.971046" lon="-7.049329">
        <ele>530.558</ele>
        <time>2019-06-22T16:50:08Z</time>
      </trkpt>
      <trkpt lat="40.970847" lon="-7.049162">
        <ele>529.976</ele>
        <time>2019-06-22T16:50:09Z</time>
      </trkpt>
      <trkpt lat="40.970645" lon="-7.048988">
        <ele>529.885</ele>
        <time>2019-06-22T16:50:10Z</time>
      </trkpt>
      <trkpt lat="40.970441" lon="-7.048803">
        <ele>529.670</ele>
        <time>2019-06-22T16:50:11Z</time>
      </trkpt>
      <trkpt lat="40.970247" lon="-7.048614">
        <ele>528.963</ele>
        <time>2019-06-22T16:50:12Z</time>
      </trkpt>
      <trkpt lat="40.970049" lon="-7.048452">
        <ele>527.663</ele>
        <time>2019-06-22T16:50:13Z</time>
      </trkpt>
      <trkpt lat="40.969851" lon="-7.048279">
        <ele>526.844</ele>
        <time>2019-06-22T16:50:14Z</time>
      </trkpt>
      <trkpt lat="40.969663" lon="-7.048096">
        <ele>526.018</ele>
        <time>2019-06-22T16:50:15Z</time>
      </trkpt>
      <trkpt lat="40.969465" lon="-7.047930">
        <ele>525.908</ele>
        <time>2019-06-22T16:50:16Z</time>
      </trkpt>
      <trkpt lat="40.969276" lon="-7.047764">
        <ele>525.919</ele>
        <time>2019-06-22T16:50:17Z</time>
      </trkpt>
      <trkpt lat="40.969089" lon="-7.047582">
        <ele>526.953</ele>
        <time>2019-06-22T16:50:18Z</time>
      </trkpt>
      <trkpt lat="40.968903" lon="-7.047413">
        <ele>527.135</ele>
        <time>2019-06-22T16:50:19Z</time>
      </trkpt>
      <trkpt lat="40.968707" lon="-7.047255">
        <ele>527.437</ele>
        <time>2019-06-22T16:50:20Z</time>
      </trkpt>
      <trkpt lat="40.968523" lon="-7.047095">
        <ele>528.145</ele>
        <time>2019-06-22T16:50:21Z</time>
      </trkpt>
      <trkpt lat="40.968338" lon="-7.046943">
        <ele>528.114</ele>
        <time>2019-06-22T16:50:22Z</time>
      </trkpt>
      <trkpt lat="40.968144" lon="-7.046776">
        <ele>527.839</ele>
        <time>2019-06-22T16:50:23Z</time>
      </trkpt>
      <trkpt lat="40.967957" lon="-7.046617">
        <ele>527.682</ele>
        <time>2019-06-22T16:50:24Z</time>
      </trkpt>
      <trkpt lat="40.967772" lon="-7.046458">
        <ele>527.444</ele>
        <time>2019-06-22T16:50:25Z</time>
      </trkpt>
      <trkpt lat="40.967601" lon="-7.046304">
        <ele>527.405</ele>
        <time>2019-06-22T16:50:26Z</time>
      </trkpt>
      <trkpt lat="40.967415" lon="-7.046144">
        <ele>526.915</ele>
        <time>2019-06-22T16:50:27Z</time>
      </trkpt>
      <trkpt lat="40.967236" lon="-7.045983">
        <ele>526.608</ele>
        <time>2019-06-22T16:50:28Z</time>
      </trkpt>
      <trkpt lat="40.967053" lon="-7.045826">
        <ele>526.667</ele>
        <time>2019-06-22T16:50:29Z</time>
      </trkpt>
      <trkpt lat="40.966869" lon="-7.045676">
        <ele>526.671</ele>
        <time>2019-06-22T16:50:30Z</time>
      </trkpt>
      <trkpt lat="40.966689" lon="-7.045529">
        <ele>526.223</ele>
        <time>2019-06-22T16:50:31Z</time>
      </trkpt>
      <trkpt lat="40.966511" lon="-7.045379">
        <ele>526.295</ele>
        <time>2019-06-22T16:50:32Z</time>
      </trkpt>
      <trkpt lat="40.966347" lon="-7.045243">
        <ele>526.353</ele>
        <time>2019-06-22T16:50:33Z</time>
      </trkpt>
      <trkpt lat="40.966188" lon="-7.045112">
        <ele>526.552</ele>
        <time>2019-06-22T16:50:34Z</time>
      </trkpt>
      <trkpt lat="40.966034" lon="-7.044974">
        <ele>526.697</ele>
        <time>2019-06-22T16:50:35Z</time>
      </trkpt>
      <trkpt lat="40.965893" lon="-7.044857">
        <ele>529.060</ele>
        <time>2019-06-22T16:50:36Z</time>
      </trkpt>
      <trkpt lat="40.965760" lon="-7.044743">
        <ele>529.162</ele>
        <time>2019-06-22T16:50:37Z</time>
      </trkpt>
      <trkpt lat="40.965629" lon="-7.044634">
        <ele>529.183</ele>
        <time>2019-06-22T16:50:38Z</time>
      </trkpt>
      <trkpt lat="40.965488" lon="-7.044521">
        <ele>529.311</ele>
        <time>2019-06-22T16:50:39Z</time>
      </trkpt>
      <trkpt lat="40.965351" lon="-7.044411">
        <ele>529.308</ele>
        <time>2019-06-22T16:50:40Z</time>
      </trkpt>
      <trkpt lat="40.965221" lon="-7.044301">
        <ele>529.539</ele>
        <time>2019-06-22T16:50:41Z</time>
      </trkpt>
      <trkpt lat="40.965091" lon="-7.044179">
        <ele>530.163</ele>
        <time>2019-06-22T16:50:42Z</time>
      </trkpt>
      <trkpt lat="40.964978" lon="-7.044030">
        <ele>531.855</ele>
        <time>2019-06-22T16:50:43Z</time>
      </trkpt>
      <trkpt lat="40.964875" lon="-7.043869">
        <ele>534.227</ele>
        <time>2019-06-22T16:50:44Z</time>
      </trkpt>
      <trkpt lat="40.964778" lon="-7.043683">
        <ele>535.545</ele>
        <time>2019-06-22T16:50:45Z</time>
      </trkpt>
      <trkpt lat="40.964679" lon="-7.043493">
        <ele>535.874</ele>
        <time>2019-06-22T16:50:46Z</time>
      </trkpt>
      <trkpt lat="40.964587" lon="-7.043289">
        <ele>535.949</ele>
        <time>2019-06-22T16:50:47Z</time>
      </trkpt>
      <trkpt lat="40.964533" lon="-7.043059">
        <ele>535.962</ele>
        <time>2019-06-22T16:50:48Z</time>
      </trkpt>
      <trkpt lat="40.964492" lon="-7.042824">
        <ele>535.963</ele>
        <time>2019-06-22T16:50:49Z</time>
      </trkpt>
      <trkpt lat="40.964473" lon="-7.042578">
        <ele>535.744</ele>
        <time>2019-06-22T16:50:50Z</time>
      </trkpt>
      <trkpt lat="40.964469" lon="-7.042332">
        <ele>535.218</ele>
        <time>2019-06-22T16:50:51Z</time>
      </trkpt>
      <trkpt lat="40.964470" lon="-7.042081">
        <ele>535.208</ele>
        <time>2019-06-22T16:50:52Z</time>
      </trkpt>
      <trkpt lat="40.964461" lon="-7.041848">
        <ele>534.959</ele>
        <time>2019-06-22T16:50:53Z</time>
      </trkpt>
      <trkpt lat="40.964456" lon="-7.041620">
        <ele>533.943</ele>
        <time>2019-06-22T16:50:54Z</time>
      </trkpt>
      <trkpt lat="40.964442" lon="-7.041388">
        <ele>533.195</ele>
        <time>2019-06-22T16:50:55Z</time>
      </trkpt>
      <trkpt lat="40.964420" lon="-7.041172">
        <ele>532.617</ele>
        <time>2019-06-22T16:50:56Z</time>
      </trkpt>
      <trkpt lat="40.964382" lon="-7.040967">
        <ele>531.955</ele>
        <time>2019-06-22T16:50:57Z</time>
      </trkpt>
      <trkpt lat="40.964320" lon="-7.040776">
        <ele>531.524</ele>
        <time>2019-06-22T16:50:58Z</time>
      </trkpt>
      <trkpt lat="40.964239" lon="-7.040624">
        <ele>531.029</ele>
        <time>2019-06-22T16:50:59Z</time>
      </trkpt>
      <trkpt lat="40.964130" lon="-7.040465">
        <ele>530.212</ele>
        <time>2019-06-22T16:51:00Z</time>
      </trkpt>
      <trkpt lat="40.964012" lon="-7.040333">
        <ele>529.761</ele>
        <time>2019-06-22T16:51:01Z</time>
      </trkpt>
      <trkpt lat="40.963866" lon="-7.040192">
        <ele>529.221</ele>
        <time>2019-06-22T16:51:02Z</time>
      </trkpt>
      <trkpt lat="40.963731" lon="-7.040055">
        <ele>528.213</ele>
        <time>2019-06-22T16:51:03Z</time>
      </trkpt>
      <trkpt lat="40.963594" lon="-7.039919">
        <ele>527.908</ele>
        <time>2019-06-22T16:51:04Z</time>
      </trkpt>
      <trkpt lat="40.963458" lon="-7.039794">
        <ele>527.919</ele>
        <time>2019-06-22T16:51:05Z</time>
      </trkpt>
      <trkpt lat="40.963334" lon="-7.039697">
        <ele>527.753</ele>
        <time>2019-06-22T16:51:06Z</time>
      </trkpt>
      <trkpt lat="40.963205" lon="-7.039620">
        <ele>527.735</ele>
        <time>2019-06-22T16:51:07Z</time>
      </trkpt>
      <trkpt lat="40.963054" lon="-7.039570">
        <ele>527.077</ele>
        <time>2019-06-22T16:51:08Z</time>
      </trkpt>
      <trkpt lat="40.962902" lon="-7.039561">
        <ele>526.935</ele>
        <time>2019-06-22T16:51:09Z</time>
      </trkpt>
      <trkpt lat="40.962749" lon="-7.039560">
        <ele>526.914</ele>
        <time>2019-06-22T16:51:10Z</time>
      </trkpt>
      <trkpt lat="40.962583" lon="-7.039583">
        <ele>527.249</ele>
        <time>2019-06-22T16:51:11Z</time>
      </trkpt>
      <trkpt lat="40.962424" lon="-7.039628">
        <ele>528.892</ele>
        <time>2019-06-22T16:51:12Z</time>
      </trkpt>
      <trkpt lat="40.962263" lon="-7.039656">
        <ele>530.111</ele>
        <time>2019-06-22T16:51:13Z</time>
      </trkpt>
      <trkpt lat="40.962116" lon="-7.039683">
        <ele>531.321</ele>
        <time>2019-06-22T16:51:14Z</time>
      </trkpt>
      <trkpt lat="40.961972" lon="-7.039695">
        <ele>531.503</ele>
        <time>2019-06-22T16:51:15Z</time>
      </trkpt>
      <trkpt lat="40.961829" lon="-7.039697">
        <ele>532.008</ele>
        <time>2019-06-22T16:51:16Z</time>
      </trkpt>
      <trkpt lat="40.961674" lon="-7.039682">
        <ele>532.034</ele>
        <time>2019-06-22T16:51:17Z</time>
      </trkpt>
      <trkpt lat="40.961520" lon="-7.039677">
        <ele>532.198</ele>
        <time>2019-06-22T16:51:18Z</time>
      </trkpt>
      <trkpt lat="40.961359" lon="-7.039632">
        <ele>532.640</ele>
        <time>2019-06-22T16:51:19Z</time>
      </trkpt>
      <trkpt lat="40.961189" lon="-7.039613">
        <ele>533.532</ele>
        <time>2019-06-22T16:51:20Z</time>
      </trkpt>
      <trkpt lat="40.961022" lon="-7.039578">
        <ele>533.590</ele>
        <time>2019-06-22T16:51:21Z</time>
      </trkpt>
      <trkpt lat="40.960858" lon="-7.039533">
        <ele>533.539</ele>
        <time>2019-06-22T16:51:22Z</time>
      </trkpt>
      <trkpt lat="40.960698" lon="-7.039464">
        <ele>532.964</ele>
        <time>2019-06-22T16:51:23Z</time>
      </trkpt>
      <trkpt lat="40.960539" lon="-7.039365">
        <ele>532.977</ele>
        <time>2019-06-22T16:51:24Z</time>
      </trkpt>
      <trkpt lat="40.960393" lon="-7.039243">
        <ele>533.037</ele>
        <time>2019-06-22T16:51:25Z</time>
      </trkpt>
      <trkpt lat="40.960264" lon="-7.039080">
        <ele>533.149</ele>
        <time>2019-06-22T16:51:26Z</time>
      </trkpt>
      <trkpt lat="40.960142" lon="-7.038900">
        <ele>533.113</ele>
        <time>2019-06-22T16:51:27Z</time>
      </trkpt>
      <trkpt lat="40.960050" lon="-7.038706">
        <ele>533.708</ele>
        <time>2019-06-22T16:51:28Z</time>
      </trkpt>
      <trkpt lat="40.959969" lon="-7.038497">
        <ele>533.736</ele>
        <time>2019-06-22T16:51:29Z</time>
      </trkpt>
      <trkpt lat="40.959911" lon="-7.038284">
        <ele>533.610</ele>
        <time>2019-06-22T16:51:30Z</time>
      </trkpt>
      <trkpt lat="40.959884" lon="-7.038050">
        <ele>533.392</ele>
        <time>2019-06-22T16:51:31Z</time>
      </trkpt>
      <trkpt lat="40.959868" lon="-7.037818">
        <ele>533.364</ele>
        <time>2019-06-22T16:51:32Z</time>
      </trkpt>
      <trkpt lat="40.959876" lon="-7.037583">
        <ele>533.142</ele>
        <time>2019-06-22T16:51:33Z</time>
      </trkpt>
      <trkpt lat="40.959883" lon="-7.037342">
        <ele>533.011</ele>
        <time>2019-06-22T16:51:34Z</time>
      </trkpt>
      <trkpt lat="40.959882" lon="-7.037091">
        <ele>532.926</ele>
        <time>2019-06-22T16:51:35Z</time>
      </trkpt>
      <trkpt lat="40.959866" lon="-7.036844">
        <ele>532.629</ele>
        <time>2019-06-22T16:51:36Z</time>
      </trkpt>
      <trkpt lat="40.959827" lon="-7.036605">
        <ele>532.167</ele>
        <time>2019-06-22T16:51:37Z</time>
      </trkpt>
      <trkpt lat="40.959761" lon="-7.036362">
        <ele>531.281</ele>
        <time>2019-06-22T16:51:38Z</time>
      </trkpt>
      <trkpt lat="40.959688" lon="-7.036128">
        <ele>529.319</ele>
        <time>2019-06-22T16:51:39Z</time>
      </trkpt>
      <trkpt lat="40.959591" lon="-7.035900">
        <ele>528.208</ele>
        <time>2019-06-22T16:51:40Z</time>
      </trkpt>
      <trkpt lat="40.959488" lon="-7.035679">
        <ele>527.759</ele>
        <time>2019-06-22T16:51:41Z</time>
      </trkpt>
      <trkpt lat="40.959355" lon="-7.035454">
        <ele>526.673</ele>
        <time>2019-06-22T16:51:42Z</time>
      </trkpt>
      <trkpt lat="40.959219" lon="-7.035259">
        <ele>524.795</ele>
        <time>2019-06-22T16:51:43Z</time>
      </trkpt>
      <trkpt lat="40.959072" lon="-7.035079">
        <ele>524.057</ele>
        <time>2019-06-22T16:51:44Z</time>
      </trkpt>
      <trkpt lat="40.958929" lon="-7.034883">
        <ele>522.965</ele>
        <time>2019-06-22T16:51:45Z</time>
      </trkpt>
      <trkpt lat="40.958790" lon="-7.034669">
        <ele>522.544</ele>
        <time>2019-06-22T16:51:46Z</time>
      </trkpt>
      <trkpt lat="40.958633" lon="-7.034471">
        <ele>522.569</ele>
        <time>2019-06-22T16:51:47Z</time>
      </trkpt>
      <trkpt lat="40.958488" lon="-7.034255">
        <ele>524.382</ele>
        <time>2019-06-22T16:51:48Z</time>
      </trkpt>
      <trkpt lat="40.958341" lon="-7.034053">
        <ele>525.722</ele>
        <time>2019-06-22T16:51:49Z</time>
      </trkpt>
      <trkpt lat="40.958189" lon="-7.033847">
        <ele>527.262</ele>
        <time>2019-06-22T16:51:50Z</time>
      </trkpt>
      <trkpt lat="40.958021" lon="-7.033627">
        <ele>528.008</ele>
        <time>2019-06-22T16:51:51Z</time>
      </trkpt>
      <trkpt lat="40.957856" lon="-7.033412">
        <ele>528.508</ele>
        <time>2019-06-22T16:51:52Z</time>
      </trkpt>
      <trkpt lat="40.957700" lon="-7.033203">
        <ele>528.545</ele>
        <time>2019-06-22T16:51:53Z</time>
      </trkpt>
      <trkpt lat="40.957559" lon="-7.033004">
        <ele>528.599</ele>
        <time>2019-06-22T16:51:54Z</time>
      </trkpt>
      <trkpt lat="40.957421" lon="-7.032799">
        <ele>529.161</ele>
        <time>2019-06-22T16:51:55Z</time>
      </trkpt>
      <trkpt lat="40.957285" lon="-7.032597">
        <ele>529.623</ele>
        <time>2019-06-22T16:51:56Z</time>
      </trkpt>
      <trkpt lat="40.957157" lon="-7.032382">
        <ele>530.271</ele>
        <time>2019-06-22T16:51:57Z</time>
      </trkpt>
      <trkpt lat="40.957039" lon="-7.032165">
        <ele>531.340</ele>
        <time>2019-06-22T16:51:58Z</time>
      </trkpt>
      <trkpt lat="40.956930" lon="-7.031947">
        <ele>532.975</ele>
        <time>2019-06-22T16:51:59Z</time>
      </trkpt>
      <trkpt lat="40.956832" lon="-7.031733">
        <ele>533.998</ele>
        <time>2019-06-22T16:52:00Z</time>
      </trkpt>
      <trkpt lat="40.956739" lon="-7.031522">
        <ele>534.415</ele>
        <time>2019-06-22T16:52:01Z</time>
      </trkpt>
      <trkpt lat="40.956636" lon="-7.031360">
        <ele>534.965</ele>
        <time>2019-06-22T16:52:02Z</time>
      </trkpt>
      <trkpt lat="40.956534" lon="-7.031192">
        <ele>535.211</ele>
        <time>2019-06-22T16:52:03Z</time>
      </trkpt>
      <trkpt lat="40.956399" lon="-7.031118">
        <ele>535.708</ele>
        <time>2019-06-22T16:52:04Z</time>
      </trkpt>
      <trkpt lat="40.956261" lon="-7.031026">
        <ele>536.334</ele>
        <time>2019-06-22T16:52:05Z</time>
      </trkpt>
      <trkpt lat="40.956120" lon="-7.030955">
        <ele>537.048</ele>
        <time>2019-06-22T16:52:06Z</time>
      </trkpt>
      <trkpt lat="40.955967" lon="-7.030881">
        <ele>537.950</ele>
        <time>2019-06-22T16:52:07Z</time>
      </trkpt>
      <trkpt lat="40.955825" lon="-7.030784">
        <ele>539.762</ele>
        <time>2019-06-22T16:52:08Z</time>
      </trkpt>
      <trkpt lat="40.955694" lon="-7.030670">
        <ele>541.270</ele>
        <time>2019-06-22T16:52:09Z</time>
      </trkpt>
      <trkpt lat="40.955574" lon="-7.030529">
        <ele>543.359</ele>
        <time>2019-06-22T16:52:10Z</time>
      </trkpt>
      <trkpt lat="40.955464" lon="-7.030392">
        <ele>545.594</ele>
        <time>2019-06-22T16:52:11Z</time>
      </trkpt>
      <trkpt lat="40.955368" lon="-7.030216">
        <ele>547.547</ele>
        <time>2019-06-22T16:52:12Z</time>
      </trkpt>
      <trkpt lat="40.955268" lon="-7.030020">
        <ele>547.941</ele>
        <time>2019-06-22T16:52:13Z</time>
      </trkpt>
      <trkpt lat="40.955179" lon="-7.029812">
        <ele>547.981</ele>
        <time>2019-06-22T16:52:14Z</time>
      </trkpt>
      <trkpt lat="40.955075" lon="-7.029624">
        <ele>547.409</ele>
        <time>2019-06-22T16:52:15Z</time>
      </trkpt>
      <trkpt lat="40.954974" lon="-7.029412">
        <ele>546.008</ele>
        <time>2019-06-22T16:52:16Z</time>
      </trkpt>
      <trkpt lat="40.954873" lon="-7.029198">
        <ele>544.547</ele>
        <time>2019-06-22T16:52:17Z</time>
      </trkpt>
      <trkpt lat="40.954767" lon="-7.028995">
        <ele>543.861</ele>
        <time>2019-06-22T16:52:18Z</time>
      </trkpt>
      <trkpt lat="40.954669" lon="-7.028809">
        <ele>543.843</ele>
        <time>2019-06-22T16:52:19Z</time>
      </trkpt>
      <trkpt lat="40.954564" lon="-7.028627">
        <ele>544.085</ele>
        <time>2019-06-22T16:52:20Z</time>
      </trkpt>
      <trkpt lat="40.954469" lon="-7.028440">
        <ele>544.813</ele>
        <time>2019-06-22T16:52:21Z</time>
      </trkpt>
      <trkpt lat="40.954392" lon="-7.028280">
        <ele>545.942</ele>
        <time>2019-06-22T16:52:22Z</time>
      </trkpt>
      <trkpt lat="40.954315" lon="-7.028122">
        <ele>548.147</ele>
        <time>2019-06-22T16:52:23Z</time>
      </trkpt>
      <trkpt lat="40.954249" lon="-7.027960">
        <ele>549.380</ele>
        <time>2019-06-22T16:52:24Z</time>
      </trkpt>
      <trkpt lat="40.954194" lon="-7.027771">
        <ele>550.818</ele>
        <time>2019-06-22T16:52:25Z</time>
      </trkpt>
      <trkpt lat="40.954162" lon="-7.027560">
        <ele>552.398</ele>
        <time>2019-06-22T16:52:26Z</time>
      </trkpt>
      <trkpt lat="40.954147" lon="-7.027352">
        <ele>553.617</ele>
        <time>2019-06-22T16:52:27Z</time>
      </trkpt>
      <trkpt lat="40.954148" lon="-7.027129">
        <ele>554.708</ele>
        <time>2019-06-22T16:52:28Z</time>
      </trkpt>
      <trkpt lat="40.954160" lon="-7.026886">
        <ele>555.564</ele>
        <time>2019-06-22T16:52:29Z</time>
      </trkpt>
      <trkpt lat="40.954179" lon="-7.026642">
        <ele>556.048</ele>
        <time>2019-06-22T16:52:30Z</time>
      </trkpt>
      <trkpt lat="40.954198" lon="-7.026399">
        <ele>556.620</ele>
        <time>2019-06-22T16:52:31Z</time>
      </trkpt>
      <trkpt lat="40.954223" lon="-7.026146">
        <ele>557.022</ele>
        <time>2019-06-22T16:52:32Z</time>
      </trkpt>
      <trkpt lat="40.954247" lon="-7.025895">
        <ele>557.170</ele>
        <time>2019-06-22T16:52:33Z</time>
      </trkpt>
      <trkpt lat="40.954243" lon="-7.025608">
        <ele>557.149</ele>
        <time>2019-06-22T16:52:34Z</time>
      </trkpt>
      <trkpt lat="40.954259" lon="-7.025352">
        <ele>557.674</ele>
        <time>2019-06-22T16:52:35Z</time>
      </trkpt>
      <trkpt lat="40.954286" lon="-7.025089">
        <ele>557.957</ele>
        <time>2019-06-22T16:52:36Z</time>
      </trkpt>
      <trkpt lat="40.954321" lon="-7.024867">
        <ele>558.158</ele>
        <time>2019-06-22T16:52:37Z</time>
      </trkpt>
      <trkpt lat="40.954334" lon="-7.024624">
        <ele>558.852</ele>
        <time>2019-06-22T16:52:38Z</time>
      </trkpt>
      <trkpt lat="40.954354" lon="-7.024406">
        <ele>558.817</ele>
        <time>2019-06-22T16:52:39Z</time>
      </trkpt>
      <trkpt lat="40.954369" lon="-7.024185">
        <ele>559.108</ele>
        <time>2019-06-22T16:52:40Z</time>
      </trkpt>
      <trkpt lat="40.954360" lon="-7.023985">
        <ele>559.598</ele>
        <time>2019-06-22T16:52:41Z</time>
      </trkpt>
      <trkpt lat="40.954334" lon="-7.023788">
        <ele>560.012</ele>
        <time>2019-06-22T16:52:42Z</time>
      </trkpt>
      <trkpt lat="40.954286" lon="-7.023587">
        <ele>560.824</ele>
        <time>2019-06-22T16:52:43Z</time>
      </trkpt>
      <trkpt lat="40.954220" lon="-7.023388">
        <ele>561.646</ele>
        <time>2019-06-22T16:52:44Z</time>
      </trkpt>
      <trkpt lat="40.954136" lon="-7.023202">
        <ele>563.284</ele>
        <time>2019-06-22T16:52:45Z</time>
      </trkpt>
      <trkpt lat="40.954024" lon="-7.023025">
        <ele>564.723</ele>
        <time>2019-06-22T16:52:46Z</time>
      </trkpt>
      <trkpt lat="40.953892" lon="-7.022878">
        <ele>565.548</ele>
        <time>2019-06-22T16:52:47Z</time>
      </trkpt>
      <trkpt lat="40.953752" lon="-7.022740">
        <ele>565.581</ele>
        <time>2019-06-22T16:52:48Z</time>
      </trkpt>
      <trkpt lat="40.953595" lon="-7.022648">
        <ele>564.754</ele>
        <time>2019-06-22T16:52:49Z</time>
      </trkpt>
      <trkpt lat="40.953420" lon="-7.022534">
        <ele>564.256</ele>
        <time>2019-06-22T16:52:50Z</time>
      </trkpt>
      <trkpt lat="40.953259" lon="-7.022469">
        <ele>564.011</ele>
        <time>2019-06-22T16:52:51Z</time>
      </trkpt>
      <trkpt lat="40.953079" lon="-7.022380">
        <ele>564.008</ele>
        <time>2019-06-22T16:52:52Z</time>
      </trkpt>
      <trkpt lat="40.952899" lon="-7.022268">
        <ele>564.428</ele>
        <time>2019-06-22T16:52:53Z</time>
      </trkpt>
      <trkpt lat="40.952722" lon="-7.022141">
        <ele>565.062</ele>
        <time>2019-06-22T16:52:54Z</time>
      </trkpt>
      <trkpt lat="40.952542" lon="-7.022023">
        <ele>565.744</ele>
        <time>2019-06-22T16:52:55Z</time>
      </trkpt>
      <trkpt lat="40.952372" lon="-7.021896">
        <ele>566.036</ele>
        <time>2019-06-22T16:52:56Z</time>
      </trkpt>
      <trkpt lat="40.952191" lon="-7.021780">
        <ele>566.044</ele>
        <time>2019-06-22T16:52:57Z</time>
      </trkpt>
      <trkpt lat="40.952006" lon="-7.021654">
        <ele>566.123</ele>
        <time>2019-06-22T16:52:58Z</time>
      </trkpt>
      <trkpt lat="40.951817" lon="-7.021542">
        <ele>567.648</ele>
        <time>2019-06-22T16:52:59Z</time>
      </trkpt>
      <trkpt lat="40.951642" lon="-7.021420">
        <ele>568.731</ele>
        <time>2019-06-22T16:53:00Z</time>
      </trkpt>
      <trkpt lat="40.951458" lon="-7.021293">
        <ele>570.057</ele>
        <time>2019-06-22T16:53:01Z</time>
      </trkpt>
      <trkpt lat="40.951273" lon="-7.021170">
        <ele>571.000</ele>
        <time>2019-06-22T16:53:02Z</time>
      </trkpt>
      <trkpt lat="40.951101" lon="-7.021016">
        <ele>572.720</ele>
        <time>2019-06-22T16:53:03Z</time>
      </trkpt>
      <trkpt lat="40.950937" lon="-7.020874">
        <ele>573.508</ele>
        <time>2019-06-22T16:53:04Z</time>
      </trkpt>
      <trkpt lat="40.950790" lon="-7.020706">
        <ele>573.688</ele>
        <time>2019-06-22T16:53:05Z</time>
      </trkpt>
      <trkpt lat="40.950657" lon="-7.020518">
        <ele>573.992</ele>
        <time>2019-06-22T16:53:06Z</time>
      </trkpt>
      <trkpt lat="40.950522" lon="-7.020347">
        <ele>573.654</ele>
        <time>2019-06-22T16:53:07Z</time>
      </trkpt>
      <trkpt lat="40.950375" lon="-7.020178">
        <ele>573.676</ele>
        <time>2019-06-22T16:53:08Z</time>
      </trkpt>
      <trkpt lat="40.950229" lon="-7.020020">
        <ele>573.654</ele>
        <time>2019-06-22T16:53:09Z</time>
      </trkpt>
      <trkpt lat="40.950049" lon="-7.019910">
        <ele>573.843</ele>
        <time>2019-06-22T16:53:10Z</time>
      </trkpt>
      <trkpt lat="40.949881" lon="-7.019773">
        <ele>575.358</ele>
        <time>2019-06-22T16:53:11Z</time>
      </trkpt>
      <trkpt lat="40.949725" lon="-7.019626">
        <ele>576.951</ele>
        <time>2019-06-22T16:53:12Z</time>
      </trkpt>
      <trkpt lat="40.949592" lon="-7.019449">
        <ele>578.445</ele>
        <time>2019-06-22T16:53:13Z</time>
      </trkpt>
      <trkpt lat="40.949460" lon="-7.019272">
        <ele>579.747</ele>
        <time>2019-06-22T16:53:14Z</time>
      </trkpt>
      <trkpt lat="40.949346" lon="-7.019065">
        <ele>580.611</ele>
        <time>2019-06-22T16:53:15Z</time>
      </trkpt>
      <trkpt lat="40.949223" lon="-7.018887">
        <ele>581.008</ele>
        <time>2019-06-22T16:53:16Z</time>
      </trkpt>
      <trkpt lat="40.949085" lon="-7.018725">
        <ele>581.327</ele>
        <time>2019-06-22T16:53:17Z</time>
      </trkpt>
      <trkpt lat="40.948935" lon="-7.018577">
        <ele>582.371</ele>
        <time>2019-06-22T16:53:18Z</time>
      </trkpt>
      <trkpt lat="40.948792" lon="-7.018416">
        <ele>584.163</ele>
        <time>2019-06-22T16:53:19Z</time>
      </trkpt>
      <trkpt lat="40.948649" lon="-7.018246">
        <ele>585.215</ele>
        <time>2019-06-22T16:53:20Z</time>
      </trkpt>
      <trkpt lat="40.948520" lon="-7.018049">
        <ele>586.983</ele>
        <time>2019-06-22T16:53:21Z</time>
      </trkpt>
      <trkpt lat="40.948346" lon="-7.017886">
        <ele>588.742</ele>
        <time>2019-06-22T16:53:22Z</time>
      </trkpt>
      <trkpt lat="40.948186" lon="-7.017721">
        <ele>589.587</ele>
        <time>2019-06-22T16:53:23Z</time>
      </trkpt>
      <trkpt lat="40.948047" lon="-7.017532">
        <ele>590.310</ele>
        <time>2019-06-22T16:53:24Z</time>
      </trkpt>
      <trkpt lat="40.947904" lon="-7.017344">
        <ele>591.114</ele>
        <time>2019-06-22T16:53:25Z</time>
      </trkpt>
      <trkpt lat="40.947744" lon="-7.017180">
        <ele>592.554</ele>
        <time>2019-06-22T16:53:26Z</time>
      </trkpt>
      <trkpt lat="40.947600" lon="-7.017002">
        <ele>593.709</ele>
        <time>2019-06-22T16:53:27Z</time>
      </trkpt>
      <trkpt lat="40.947460" lon="-7.016827">
        <ele>594.508</ele>
        <time>2019-06-22T16:53:28Z</time>
      </trkpt>
      <trkpt lat="40.947312" lon="-7.016672">
        <ele>594.624</ele>
        <time>2019-06-22T16:53:29Z</time>
      </trkpt>
      <trkpt lat="40.947175" lon="-7.016543">
        <ele>595.078</ele>
        <time>2019-06-22T16:53:30Z</time>
      </trkpt>
      <trkpt lat="40.947044" lon="-7.016426">
        <ele>595.840</ele>
        <time>2019-06-22T16:53:31Z</time>
      </trkpt>
      <trkpt lat="40.946912" lon="-7.016328">
        <ele>595.882</ele>
        <time>2019-06-22T16:53:32Z</time>
      </trkpt>
      <trkpt lat="40.946779" lon="-7.016248">
        <ele>596.320</ele>
        <time>2019-06-22T16:53:33Z</time>
      </trkpt>
      <trkpt lat="40.946648" lon="-7.016164">
        <ele>598.079</ele>
        <time>2019-06-22T16:53:34Z</time>
      </trkpt>
      <trkpt lat="40.946505" lon="-7.016062">
        <ele>600.164</ele>
        <time>2019-06-22T16:53:35Z</time>
      </trkpt>
      <trkpt lat="40.946376" lon="-7.015939">
        <ele>601.667</ele>
        <time>2019-06-22T16:53:36Z</time>
      </trkpt>
      <trkpt lat="40.946247" lon="-7.015803">
        <ele>603.485</ele>
        <time>2019-06-22T16:53:37Z</time>
      </trkpt>
      <trkpt lat="40.946143" lon="-7.015654">
        <ele>605.389</ele>
        <time>2019-06-22T16:53:38Z</time>
      </trkpt>
      <trkpt lat="40.946022" lon="-7.015508">
        <ele>606.317</ele>
        <time>2019-06-22T16:53:39Z</time>
      </trkpt>
      <trkpt lat="40.945902" lon="-7.015394">
        <ele>606.308</ele>
        <time>2019-06-22T16:53:40Z</time>
      </trkpt>
      <trkpt lat="40.945801" lon="-7.015266">
        <ele>606.361</ele>
        <time>2019-06-22T16:53:41Z</time>
      </trkpt>
      <trkpt lat="40.945712" lon="-7.015142">
        <ele>606.325</ele>
        <time>2019-06-22T16:53:42Z</time>
      </trkpt>
      <trkpt lat="40.945637" lon="-7.015012">
        <ele>606.597</ele>
        <time>2019-06-22T16:53:43Z</time>
      </trkpt>
      <trkpt lat="40.945556" lon="-7.014873">
        <ele>606.519</ele>
        <time>2019-06-22T16:53:44Z</time>
      </trkpt>
      <trkpt lat="40.945465" lon="-7.014767">
        <ele>606.597</ele>
        <time>2019-06-22T16:53:45Z</time>
      </trkpt>
      <trkpt lat="40.945388" lon="-7.014648">
        <ele>606.886</ele>
        <time>2019-06-22T16:53:46Z</time>
      </trkpt>
      <trkpt lat="40.945287" lon="-7.014567">
        <ele>607.411</ele>
        <time>2019-06-22T16:53:47Z</time>
      </trkpt>
      <trkpt lat="40.945183" lon="-7.014479">
        <ele>607.474</ele>
        <time>2019-06-22T16:53:48Z</time>
      </trkpt>
      <trkpt lat="40.945086" lon="-7.014430">
        <ele>607.972</ele>
        <time>2019-06-22T16:53:49Z</time>
      </trkpt>
      <trkpt lat="40.944986" lon="-7.014389">
        <ele>608.513</ele>
        <time>2019-06-22T16:53:50Z</time>
      </trkpt>
      <trkpt lat="40.944886" lon="-7.014362">
        <ele>608.914</ele>
        <time>2019-06-22T16:53:51Z</time>
      </trkpt>
      <trkpt lat="40.944792" lon="-7.014340">
        <ele>610.408</ele>
        <time>2019-06-22T16:53:52Z</time>
      </trkpt>
      <trkpt lat="40.944705" lon="-7.014320">
        <ele>612.540</ele>
        <time>2019-06-22T16:53:53Z</time>
      </trkpt>
      <trkpt lat="40.944619" lon="-7.014280">
        <ele>612.584</ele>
        <time>2019-06-22T16:53:54Z</time>
      </trkpt>
      <trkpt lat="40.944534" lon="-7.014258">
        <ele>612.916</ele>
        <time>2019-06-22T16:53:55Z</time>
      </trkpt>
      <trkpt lat="40.944442" lon="-7.014262">
        <ele>613.758</ele>
        <time>2019-06-22T16:53:56Z</time>
      </trkpt>
      <trkpt lat="40.944343" lon="-7.014261">
        <ele>613.946</ele>
        <time>2019-06-22T16:53:57Z</time>
      </trkpt>
      <trkpt lat="40.944241" lon="-7.014258">
        <ele>614.365</ele>
        <time>2019-06-22T16:53:58Z</time>
      </trkpt>
      <trkpt lat="40.944109" lon="-7.014288">
        <ele>614.660</ele>
        <time>2019-06-22T16:53:59Z</time>
      </trkpt>
      <trkpt lat="40.943993" lon="-7.014303">
        <ele>614.783</ele>
        <time>2019-06-22T16:54:00Z</time>
      </trkpt>
      <trkpt lat="40.943870" lon="-7.014314">
        <ele>615.221</ele>
        <time>2019-06-22T16:54:01Z</time>
      </trkpt>
      <trkpt lat="40.943726" lon="-7.014274">
        <ele>615.841</ele>
        <time>2019-06-22T16:54:02Z</time>
      </trkpt>
      <trkpt lat="40.943590" lon="-7.014250">
        <ele>615.805</ele>
        <time>2019-06-22T16:54:03Z</time>
      </trkpt>
      <trkpt lat="40.943450" lon="-7.014196">
        <ele>615.808</ele>
        <time>2019-06-22T16:54:04Z</time>
      </trkpt>
      <trkpt lat="40.943320" lon="-7.014168">
        <ele>615.895</ele>
        <time>2019-06-22T16:54:05Z</time>
      </trkpt>
      <trkpt lat="40.943192" lon="-7.014126">
        <ele>615.789</ele>
        <time>2019-06-22T16:54:06Z</time>
      </trkpt>
      <trkpt lat="40.943069" lon="-7.014095">
        <ele>615.731</ele>
        <time>2019-06-22T16:54:07Z</time>
      </trkpt>
      <trkpt lat="40.942937" lon="-7.014068">
        <ele>616.053</ele>
        <time>2019-06-22T16:54:08Z</time>
      </trkpt>
      <trkpt lat="40.942809" lon="-7.014026">
        <ele>616.761</ele>
        <time>2019-06-22T16:54:09Z</time>
      </trkpt>
      <trkpt lat="40.942669" lon="-7.013988">
        <ele>617.570</ele>
        <time>2019-06-22T16:54:10Z</time>
      </trkpt>
      <trkpt lat="40.942548" lon="-7.013927">
        <ele>618.185</ele>
        <time>2019-06-22T16:54:11Z</time>
      </trkpt>
      <trkpt lat="40.942423" lon="-7.013871">
        <ele>618.888</ele>
        <time>2019-06-22T16:54:12Z</time>
      </trkpt>
      <trkpt lat="40.942332" lon="-7.013791">
        <ele>619.133</ele>
        <time>2019-06-22T16:54:13Z</time>
      </trkpt>
      <trkpt lat="40.942230" lon="-7.013758">
        <ele>619.123</ele>
        <time>2019-06-22T16:54:14Z</time>
      </trkpt>
      <trkpt lat="40.942107" lon="-7.013718">
        <ele>619.115</ele>
        <time>2019-06-22T16:54:15Z</time>
      </trkpt>
      <trkpt lat="40.941980" lon="-7.013697">
        <ele>619.008</ele>
        <time>2019-06-22T16:54:16Z</time>
      </trkpt>
      <trkpt lat="40.941853" lon="-7.013679">
        <ele>618.746</ele>
        <time>2019-06-22T16:54:17Z</time>
      </trkpt>
      <trkpt lat="40.941719" lon="-7.013672">
        <ele>618.650</ele>
        <time>2019-06-22T16:54:18Z</time>
      </trkpt>
      <trkpt lat="40.941590" lon="-7.013657">
        <ele>618.572</ele>
        <time>2019-06-22T16:54:19Z</time>
      </trkpt>
      <trkpt lat="40.941452" lon="-7.013642">
        <ele>618.524</ele>
        <time>2019-06-22T16:54:20Z</time>
      </trkpt>
      <trkpt lat="40.941329" lon="-7.013632">
        <ele>618.512</ele>
        <time>2019-06-22T16:54:21Z</time>
      </trkpt>
      <trkpt lat="40.941211" lon="-7.013613">
        <ele>618.061</ele>
        <time>2019-06-22T16:54:22Z</time>
      </trkpt>
      <trkpt lat="40.941088" lon="-7.013608">
        <ele>617.456</ele>
        <time>2019-06-22T16:54:23Z</time>
      </trkpt>
      <trkpt lat="40.940968" lon="-7.013590">
        <ele>617.469</ele>
        <time>2019-06-22T16:54:24Z</time>
      </trkpt>
      <trkpt lat="40.940843" lon="-7.013576">
        <ele>617.645</ele>
        <time>2019-06-22T16:54:25Z</time>
      </trkpt>
      <trkpt lat="40.940718" lon="-7.013555">
        <ele>617.747</ele>
        <time>2019-06-22T16:54:26Z</time>
      </trkpt>
      <trkpt lat="40.940581" lon="-7.013514">
        <ele>618.311</ele>
        <time>2019-06-22T16:54:27Z</time>
      </trkpt>
      <trkpt lat="40.940456" lon="-7.013478">
        <ele>619.008</ele>
        <time>2019-06-22T16:54:28Z</time>
      </trkpt>
      <trkpt lat="40.940331" lon="-7.013469">
        <ele>619.057</ele>
        <time>2019-06-22T16:54:29Z</time>
      </trkpt>
      <trkpt lat="40.940212" lon="-7.013464">
        <ele>618.871</ele>
        <time>2019-06-22T16:54:30Z</time>
      </trkpt>
      <trkpt lat="40.940086" lon="-7.013455">
        <ele>618.853</ele>
        <time>2019-06-22T16:54:31Z</time>
      </trkpt>
      <trkpt lat="40.939959" lon="-7.013461">
        <ele>618.945</ele>
        <time>2019-06-22T16:54:32Z</time>
      </trkpt>
      <trkpt lat="40.939823" lon="-7.013474">
        <ele>618.913</ele>
        <time>2019-06-22T16:54:33Z</time>
      </trkpt>
      <trkpt lat="40.939678" lon="-7.013487">
        <ele>619.492</ele>
        <time>2019-06-22T16:54:34Z</time>
      </trkpt>
      <trkpt lat="40.939524" lon="-7.013493">
        <ele>619.877</ele>
        <time>2019-06-22T16:54:35Z</time>
      </trkpt>
      <trkpt lat="40.939380" lon="-7.013524">
        <ele>620.360</ele>
        <time>2019-06-22T16:54:36Z</time>
      </trkpt>
      <trkpt lat="40.939233" lon="-7.013538">
        <ele>620.692</ele>
        <time>2019-06-22T16:54:37Z</time>
      </trkpt>
      <trkpt lat="40.939087" lon="-7.013581">
        <ele>621.373</ele>
        <time>2019-06-22T16:54:38Z</time>
      </trkpt>
      <trkpt lat="40.938931" lon="-7.013579">
        <ele>622.020</ele>
        <time>2019-06-22T16:54:39Z</time>
      </trkpt>
      <trkpt lat="40.938776" lon="-7.013580">
        <ele>622.808</ele>
        <time>2019-06-22T16:54:40Z</time>
      </trkpt>
      <trkpt lat="40.938618" lon="-7.013577">
        <ele>623.312</ele>
        <time>2019-06-22T16:54:41Z</time>
      </trkpt>
      <trkpt lat="40.938456" lon="-7.013500">
        <ele>623.376</ele>
        <time>2019-06-22T16:54:42Z</time>
      </trkpt>
      <trkpt lat="40.938295" lon="-7.013454">
        <ele>623.418</ele>
        <time>2019-06-22T16:54:43Z</time>
      </trkpt>
      <trkpt lat="40.938141" lon="-7.013399">
        <ele>623.880</ele>
        <time>2019-06-22T16:54:44Z</time>
      </trkpt>
      <trkpt lat="40.937974" lon="-7.013363">
        <ele>624.358</ele>
        <time>2019-06-22T16:54:45Z</time>
      </trkpt>
      <trkpt lat="40.937807" lon="-7.013336">
        <ele>624.947</ele>
        <time>2019-06-22T16:54:46Z</time>
      </trkpt>
      <trkpt lat="40.937645" lon="-7.013313">
        <ele>625.272</ele>
        <time>2019-06-22T16:54:47Z</time>
      </trkpt>
      <trkpt lat="40.937475" lon="-7.013288">
        <ele>625.285</ele>
        <time>2019-06-22T16:54:48Z</time>
      </trkpt>
      <trkpt lat="40.937301" lon="-7.013270">
        <ele>625.021</ele>
        <time>2019-06-22T16:54:49Z</time>
      </trkpt>
      <trkpt lat="40.937132" lon="-7.013246">
        <ele>624.841</ele>
        <time>2019-06-22T16:54:50Z</time>
      </trkpt>
      <trkpt lat="40.936955" lon="-7.013238">
        <ele>624.805</ele>
        <time>2019-06-22T16:54:51Z</time>
      </trkpt>
      <trkpt lat="40.936792" lon="-7.013236">
        <ele>624.808</ele>
        <time>2019-06-22T16:54:52Z</time>
      </trkpt>
      <trkpt lat="40.936635" lon="-7.013256">
        <ele>626.185</ele>
        <time>2019-06-22T16:54:53Z</time>
      </trkpt>
      <trkpt lat="40.936480" lon="-7.013282">
        <ele>626.169</ele>
        <time>2019-06-22T16:54:54Z</time>
      </trkpt>
      <trkpt lat="40.936330" lon="-7.013329">
        <ele>626.151</ele>
        <time>2019-06-22T16:54:55Z</time>
      </trkpt>
      <trkpt lat="40.936189" lon="-7.013409">
        <ele>625.693</ele>
        <time>2019-06-22T16:54:56Z</time>
      </trkpt>
      <trkpt lat="40.936054" lon="-7.013522">
        <ele>625.351</ele>
        <time>2019-06-22T16:54:57Z</time>
      </trkpt>
      <trkpt lat="40.935897" lon="-7.013649">
        <ele>624.690</ele>
        <time>2019-06-22T16:54:58Z</time>
      </trkpt>
      <trkpt lat="40.935752" lon="-7.013774">
        <ele>624.645</ele>
        <time>2019-06-22T16:54:59Z</time>
      </trkpt>
      <trkpt lat="40.935591" lon="-7.013914">
        <ele>625.218</ele>
        <time>2019-06-22T16:55:00Z</time>
      </trkpt>
      <trkpt lat="40.935440" lon="-7.014012">
        <ele>626.928</ele>
        <time>2019-06-22T16:55:01Z</time>
      </trkpt>
      <trkpt lat="40.935264" lon="-7.014090">
        <ele>627.689</ele>
        <time>2019-06-22T16:55:02Z</time>
      </trkpt>
      <trkpt lat="40.935082" lon="-7.014134">
        <ele>628.517</ele>
        <time>2019-06-22T16:55:03Z</time>
      </trkpt>
      <trkpt lat="40.934902" lon="-7.014152">
        <ele>629.308</ele>
        <time>2019-06-22T16:55:04Z</time>
      </trkpt>
      <trkpt lat="40.934712" lon="-7.014158">
        <ele>629.365</ele>
        <time>2019-06-22T16:55:05Z</time>
      </trkpt>
      <trkpt lat="40.934525" lon="-7.014162">
        <ele>628.969</ele>
        <time>2019-06-22T16:55:06Z</time>
      </trkpt>
      <trkpt lat="40.934336" lon="-7.014163">
        <ele>628.541</ele>
        <time>2019-06-22T16:55:07Z</time>
      </trkpt>
      <trkpt lat="40.934141" lon="-7.014156">
        <ele>627.493</ele>
        <time>2019-06-22T16:55:08Z</time>
      </trkpt>
      <trkpt lat="40.933949" lon="-7.014170">
        <ele>627.051</ele>
        <time>2019-06-22T16:55:09Z</time>
      </trkpt>
      <trkpt lat="40.933748" lon="-7.014173">
        <ele>626.590</ele>
        <time>2019-06-22T16:55:10Z</time>
      </trkpt>
      <trkpt lat="40.933558" lon="-7.014146">
        <ele>626.175</ele>
        <time>2019-06-22T16:55:11Z</time>
      </trkpt>
      <trkpt lat="40.933340" lon="-7.014154">
        <ele>626.168</ele>
        <time>2019-06-22T16:55:12Z</time>
      </trkpt>
      <trkpt lat="40.933140" lon="-7.014139">
        <ele>626.132</ele>
        <time>2019-06-22T16:55:13Z</time>
      </trkpt>
      <trkpt lat="40.932929" lon="-7.014137">
        <ele>626.292</ele>
        <time>2019-06-22T16:55:14Z</time>
      </trkpt>
      <trkpt lat="40.932706" lon="-7.014130">
        <ele>626.411</ele>
        <time>2019-06-22T16:55:15Z</time>
      </trkpt>
      <trkpt lat="40.932490" lon="-7.014100">
        <ele>626.608</ele>
        <time>2019-06-22T16:55:16Z</time>
      </trkpt>
      <trkpt lat="40.932273" lon="-7.014068">
        <ele>626.676</ele>
        <time>2019-06-22T16:55:17Z</time>
      </trkpt>
      <trkpt lat="40.932059" lon="-7.014026">
        <ele>626.620</ele>
        <time>2019-06-22T16:55:18Z</time>
      </trkpt>
      <trkpt lat="40.931839" lon="-7.013976">
        <ele>626.612</ele>
        <time>2019-06-22T16:55:19Z</time>
      </trkpt>
      <trkpt lat="40.931625" lon="-7.013923">
        <ele>626.424</ele>
        <time>2019-06-22T16:55:20Z</time>
      </trkpt>
      <trkpt lat="40.931420" lon="-7.013870">
        <ele>626.462</ele>
        <time>2019-06-22T16:55:21Z</time>
      </trkpt>
      <trkpt lat="40.931207" lon="-7.013816">
        <ele>626.641</ele>
        <time>2019-06-22T16:55:22Z</time>
      </trkpt>
      <trkpt lat="40.930994" lon="-7.013752">
        <ele>627.396</ele>
        <time>2019-06-22T16:55:23Z</time>
      </trkpt>
      <trkpt lat="40.930795" lon="-7.013658">
        <ele>627.549</ele>
        <time>2019-06-22T16:55:24Z</time>
      </trkpt>
      <trkpt lat="40.930595" lon="-7.013549">
        <ele>628.325</ele>
        <time>2019-06-22T16:55:25Z</time>
      </trkpt>
      <trkpt lat="40.930394" lon="-7.013445">
        <ele>629.226</ele>
        <time>2019-06-22T16:55:26Z</time>
      </trkpt>
      <trkpt lat="40.930199" lon="-7.013329">
        <ele>629.208</ele>
        <time>2019-06-22T16:55:27Z</time>
      </trkpt>
      <trkpt lat="40.930016" lon="-7.013236">
        <ele>629.308</ele>
        <time>2019-06-22T16:55:28Z</time>
      </trkpt>
      <trkpt lat="40.929818" lon="-7.013145">
        <ele>629.395</ele>
        <time>2019-06-22T16:55:29Z</time>
      </trkpt>
      <trkpt lat="40.929624" lon="-7.013048">
        <ele>629.439</ele>
        <time>2019-06-22T16:55:30Z</time>
      </trkpt>
      <trkpt lat="40.929434" lon="-7.012961">
        <ele>629.891</ele>
        <time>2019-06-22T16:55:31Z</time>
      </trkpt>
      <trkpt lat="40.929238" lon="-7.012870">
        <ele>630.493</ele>
        <time>2019-06-22T16:55:32Z</time>
      </trkpt>
      <trkpt lat="40.929024" lon="-7.012788">
        <ele>631.411</ele>
        <time>2019-06-22T16:55:33Z</time>
      </trkpt>
      <trkpt lat="40.928805" lon="-7.012724">
        <ele>631.640</ele>
        <time>2019-06-22T16:55:34Z</time>
      </trkpt>
      <trkpt lat="40.928588" lon="-7.012665">
        <ele>631.625</ele>
        <time>2019-06-22T16:55:35Z</time>
      </trkpt>
      <trkpt lat="40.928371" lon="-7.012607">
        <ele>630.388</ele>
        <time>2019-06-22T16:55:36Z</time>
      </trkpt>
      <trkpt lat="40.928163" lon="-7.012543">
        <ele>629.294</ele>
        <time>2019-06-22T16:55:37Z</time>
      </trkpt>
      <trkpt lat="40.927955" lon="-7.012472">
        <ele>627.957</ele>
        <time>2019-06-22T16:55:38Z</time>
      </trkpt>
      <trkpt lat="40.927751" lon="-7.012404">
        <ele>626.422</ele>
        <time>2019-06-22T16:55:39Z</time>
      </trkpt>
      <trkpt lat="40.927571" lon="-7.012359">
        <ele>624.408</ele>
        <time>2019-06-22T16:55:40Z</time>
      </trkpt>
      <trkpt lat="40.927377" lon="-7.012333">
        <ele>623.692</ele>
        <time>2019-06-22T16:55:41Z</time>
      </trkpt>
      <trkpt lat="40.927170" lon="-7.012328">
        <ele>623.436</ele>
        <time>2019-06-22T16:55:42Z</time>
      </trkpt>
      <trkpt lat="40.926956" lon="-7.012317">
        <ele>623.468</ele>
        <time>2019-06-22T16:55:43Z</time>
      </trkpt>
      <trkpt lat="40.926749" lon="-7.012328">
        <ele>623.880</ele>
        <time>2019-06-22T16:55:44Z</time>
      </trkpt>
      <trkpt lat="40.926546" lon="-7.012321">
        <ele>624.688</ele>
        <time>2019-06-22T16:55:45Z</time>
      </trkpt>
      <trkpt lat="40.926340" lon="-7.012336">
        <ele>627.297</ele>
        <time>2019-06-22T16:55:46Z</time>
      </trkpt>
      <trkpt lat="40.926154" lon="-7.012346">
        <ele>627.762</ele>
        <time>2019-06-22T16:55:47Z</time>
      </trkpt>
      <trkpt lat="40.925973" lon="-7.012367">
        <ele>627.775</ele>
        <time>2019-06-22T16:55:48Z</time>
      </trkpt>
      <trkpt lat="40.925798" lon="-7.012382">
        <ele>627.781</ele>
        <time>2019-06-22T16:55:49Z</time>
      </trkpt>
      <trkpt lat="40.925610" lon="-7.012413">
        <ele>627.361</ele>
        <time>2019-06-22T16:55:50Z</time>
      </trkpt>
      <trkpt lat="40.925443" lon="-7.012463">
        <ele>626.617</ele>
        <time>2019-06-22T16:55:51Z</time>
      </trkpt>
      <trkpt lat="40.925296" lon="-7.012520">
        <ele>626.508</ele>
        <time>2019-06-22T16:55:52Z</time>
      </trkpt>
      <trkpt lat="40.925134" lon="-7.012589">
        <ele>626.461</ele>
        <time>2019-06-22T16:55:53Z</time>
      </trkpt>
      <trkpt lat="40.924976" lon="-7.012652">
        <ele>626.485</ele>
        <time>2019-06-22T16:55:54Z</time>
      </trkpt>
      <trkpt lat="40.924815" lon="-7.012681">
        <ele>626.487</ele>
        <time>2019-06-22T16:55:55Z</time>
      </trkpt>
      <trkpt lat="40.924659" lon="-7.012678">
        <ele>626.079</ele>
        <time>2019-06-22T16:55:56Z</time>
      </trkpt>
      <trkpt lat="40.924472" lon="-7.012664">
        <ele>626.177</ele>
        <time>2019-06-22T16:55:57Z</time>
      </trkpt>
      <trkpt lat="40.924286" lon="-7.012634">
        <ele>626.076</ele>
        <time>2019-06-22T16:55:58Z</time>
      </trkpt>
      <trkpt lat="40.924106" lon="-7.012595">
        <ele>626.021</ele>
        <time>2019-06-22T16:55:59Z</time>
      </trkpt>
      <trkpt lat="40.923927" lon="-7.012549">
        <ele>626.044</ele>
        <time>2019-06-22T16:56:00Z</time>
      </trkpt>
      <trkpt lat="40.923743" lon="-7.012511">
        <ele>624.915</ele>
        <time>2019-06-22T16:56:01Z</time>
      </trkpt>
      <trkpt lat="40.923558" lon="-7.012472">
        <ele>624.365</ele>
        <time>2019-06-22T16:56:02Z</time>
      </trkpt>
      <trkpt lat="40.923373" lon="-7.012428">
        <ele>622.711</ele>
        <time>2019-06-22T16:56:03Z</time>
      </trkpt>
      <trkpt lat="40.923194" lon="-7.012364">
        <ele>620.808</ele>
        <time>2019-06-22T16:56:04Z</time>
      </trkpt>
      <trkpt lat="40.923023" lon="-7.012290">
        <ele>619.664</ele>
        <time>2019-06-22T16:56:05Z</time>
      </trkpt>
      <trkpt lat="40.922853" lon="-7.012206">
        <ele>618.648</ele>
        <time>2019-06-22T16:56:06Z</time>
      </trkpt>
      <trkpt lat="40.922709" lon="-7.012069">
        <ele>618.180</ele>
        <time>2019-06-22T16:56:07Z</time>
      </trkpt>
      <trkpt lat="40.922555" lon="-7.011933">
        <ele>618.152</ele>
        <time>2019-06-22T16:56:08Z</time>
      </trkpt>
      <trkpt lat="40.922420" lon="-7.011792">
        <ele>618.140</ele>
        <time>2019-06-22T16:56:09Z</time>
      </trkpt>
      <trkpt lat="40.922285" lon="-7.011658">
        <ele>618.159</ele>
        <time>2019-06-22T16:56:10Z</time>
      </trkpt>
      <trkpt lat="40.922142" lon="-7.011524">
        <ele>617.834</ele>
        <time>2019-06-22T16:56:11Z</time>
      </trkpt>
      <trkpt lat="40.921987" lon="-7.011412">
        <ele>617.297</ele>
        <time>2019-06-22T16:56:12Z</time>
      </trkpt>
      <trkpt lat="40.921826" lon="-7.011315">
        <ele>615.513</ele>
        <time>2019-06-22T16:56:13Z</time>
      </trkpt>
      <trkpt lat="40.921663" lon="-7.011249">
        <ele>614.043</ele>
        <time>2019-06-22T16:56:14Z</time>
      </trkpt>
      <trkpt lat="40.921499" lon="-7.011198">
        <ele>613.107</ele>
        <time>2019-06-22T16:56:15Z</time>
      </trkpt>
      <trkpt lat="40.921322" lon="-7.011155">
        <ele>612.708</ele>
        <time>2019-06-22T16:56:16Z</time>
      </trkpt>
      <trkpt lat="40.921144" lon="-7.011101">
        <ele>612.764</ele>
        <time>2019-06-22T16:56:17Z</time>
      </trkpt>
      <trkpt lat="40.920967" lon="-7.011040">
        <ele>613.848</ele>
        <time>2019-06-22T16:56:18Z</time>
      </trkpt>
      <trkpt lat="40.920783" lon="-7.010965">
        <ele>615.820</ele>
        <time>2019-06-22T16:56:19Z</time>
      </trkpt>
      <trkpt lat="40.920605" lon="-7.010898">
        <ele>616.492</ele>
        <time>2019-06-22T16:56:20Z</time>
      </trkpt>
      <trkpt lat="40.920428" lon="-7.010829">
        <ele>616.450</ele>
        <time>2019-06-22T16:56:21Z</time>
      </trkpt>
      <trkpt lat="40.920265" lon="-7.010759">
        <ele>616.419</ele>
        <time>2019-06-22T16:56:22Z</time>
      </trkpt>
      <trkpt lat="40.920086" lon="-7.010718">
        <ele>615.664</ele>
        <time>2019-06-22T16:56:23Z</time>
      </trkpt>
      <trkpt lat="40.919910" lon="-7.010672">
        <ele>614.367</ele>
        <time>2019-06-22T16:56:24Z</time>
      </trkpt>
      <trkpt lat="40.919724" lon="-7.010620">
        <ele>613.699</ele>
        <time>2019-06-22T16:56:25Z</time>
      </trkpt>
      <trkpt lat="40.919559" lon="-7.010567">
        <ele>613.007</ele>
        <time>2019-06-22T16:56:26Z</time>
      </trkpt>
      <trkpt lat="40.919391" lon="-7.010519">
        <ele>612.127</ele>
        <time>2019-06-22T16:56:27Z</time>
      </trkpt>
      <trkpt lat="40.919223" lon="-7.010473">
        <ele>610.508</ele>
        <time>2019-06-22T16:56:28Z</time>
      </trkpt>
      <trkpt lat="40.919060" lon="-7.010425">
        <ele>609.972</ele>
        <time>2019-06-22T16:56:29Z</time>
      </trkpt>
      <trkpt lat="40.918904" lon="-7.010385">
        <ele>608.536</ele>
        <time>2019-06-22T16:56:30Z</time>
      </trkpt>
      <trkpt lat="40.918731" lon="-7.010373">
        <ele>608.218</ele>
        <time>2019-06-22T16:56:31Z</time>
      </trkpt>
      <trkpt lat="40.918557" lon="-7.010355">
        <ele>608.230</ele>
        <time>2019-06-22T16:56:32Z</time>
      </trkpt>
      <trkpt lat="40.918366" lon="-7.010365">
        <ele>608.298</ele>
        <time>2019-06-22T16:56:33Z</time>
      </trkpt>
      <trkpt lat="40.918168" lon="-7.010384">
        <ele>607.477</ele>
        <time>2019-06-22T16:56:34Z</time>
      </trkpt>
      <trkpt lat="40.917988" lon="-7.010411">
        <ele>607.262</ele>
        <time>2019-06-22T16:56:35Z</time>
      </trkpt>
      <trkpt lat="40.917797" lon="-7.010446">
        <ele>606.995</ele>
        <time>2019-06-22T16:56:36Z</time>
      </trkpt>
      <trkpt lat="40.917597" lon="-7.010491">
        <ele>606.839</ele>
        <time>2019-06-22T16:56:37Z</time>
      </trkpt>
      <trkpt lat="40.917391" lon="-7.010546">
        <ele>605.801</ele>
        <time>2019-06-22T16:56:38Z</time>
      </trkpt>
      <trkpt lat="40.917193" lon="-7.010607">
        <ele>605.121</ele>
        <time>2019-06-22T16:56:39Z</time>
      </trkpt>
      <trkpt lat="40.917011" lon="-7.010664">
        <ele>605.008</ele>
        <time>2019-06-22T16:56:40Z</time>
      </trkpt>
      <trkpt lat="40.916805" lon="-7.010733">
        <ele>603.896</ele>
        <time>2019-06-22T16:56:41Z</time>
      </trkpt>
      <trkpt lat="40.916602" lon="-7.010784">
        <ele>602.520</ele>
        <time>2019-06-22T16:56:42Z</time>
      </trkpt>
      <trkpt lat="40.916408" lon="-7.010846">
        <ele>602.232</ele>
        <time>2019-06-22T16:56:43Z</time>
      </trkpt>
      <trkpt lat="40.916220" lon="-7.010906">
        <ele>602.124</ele>
        <time>2019-06-22T16:56:44Z</time>
      </trkpt>
      <trkpt lat="40.916043" lon="-7.010966">
        <ele>601.442</ele>
        <time>2019-06-22T16:56:45Z</time>
      </trkpt>
      <trkpt lat="40.915858" lon="-7.011026">
        <ele>601.231</ele>
        <time>2019-06-22T16:56:46Z</time>
      </trkpt>
      <trkpt lat="40.915685" lon="-7.011078">
        <ele>601.196</ele>
        <time>2019-06-22T16:56:47Z</time>
      </trkpt>
      <trkpt lat="40.915514" lon="-7.011125">
        <ele>601.219</ele>
        <time>2019-06-22T16:56:48Z</time>
      </trkpt>
      <trkpt lat="40.915314" lon="-7.011130">
        <ele>601.662</ele>
        <time>2019-06-22T16:56:49Z</time>
      </trkpt>
      <trkpt lat="40.915127" lon="-7.011115">
        <ele>602.383</ele>
        <time>2019-06-22T16:56:50Z</time>
      </trkpt>
      <trkpt lat="40.914943" lon="-7.011076">
        <ele>603.211</ele>
        <time>2019-06-22T16:56:51Z</time>
      </trkpt>
      <trkpt lat="40.914759" lon="-7.011039">
        <ele>603.608</ele>
        <time>2019-06-22T16:56:52Z</time>
      </trkpt>
      <trkpt lat="40.914579" lon="-7.010968">
        <ele>603.929</ele>
        <time>2019-06-22T16:56:53Z</time>
      </trkpt>
      <trkpt lat="40.914413" lon="-7.010862">
        <ele>603.963</ele>
        <time>2019-06-22T16:56:54Z</time>
      </trkpt>
      <trkpt lat="40.914245" lon="-7.010750">
        <ele>603.855</ele>
        <time>2019-06-22T16:56:55Z</time>
      </trkpt>
      <trkpt lat="40.914090" lon="-7.010586">
        <ele>603.837</ele>
        <time>2019-06-22T16:56:56Z</time>
      </trkpt>
      <trkpt lat="40.913957" lon="-7.010422">
        <ele>603.965</ele>
        <time>2019-06-22T16:56:57Z</time>
      </trkpt>
      <trkpt lat="40.913827" lon="-7.010241">
        <ele>603.954</ele>
        <time>2019-06-22T16:56:58Z</time>
      </trkpt>
      <trkpt lat="40.913708" lon="-7.010057">
        <ele>603.949</ele>
        <time>2019-06-22T16:56:59Z</time>
      </trkpt>
      <trkpt lat="40.913601" lon="-7.009866">
        <ele>604.012</ele>
        <time>2019-06-22T16:57:00Z</time>
      </trkpt>
      <trkpt lat="40.913495" lon="-7.009654">
        <ele>604.094</ele>
        <time>2019-06-22T16:57:01Z</time>
      </trkpt>
      <trkpt lat="40.913389" lon="-7.009455">
        <ele>604.657</ele>
        <time>2019-06-22T16:57:02Z</time>
      </trkpt>
      <trkpt lat="40.913282" lon="-7.009248">
        <ele>604.922</ele>
        <time>2019-06-22T16:57:03Z</time>
      </trkpt>
      <trkpt lat="40.913171" lon="-7.009055">
        <ele>604.908</ele>
        <time>2019-06-22T16:57:04Z</time>
      </trkpt>
      <trkpt lat="40.913038" lon="-7.008818">
        <ele>605.092</ele>
        <time>2019-06-22T16:57:05Z</time>
      </trkpt>
      <trkpt lat="40.912916" lon="-7.008591">
        <ele>605.056</ele>
        <time>2019-06-22T16:57:06Z</time>
      </trkpt>
      <trkpt lat="40.912794" lon="-7.008386">
        <ele>604.568</ele>
        <time>2019-06-22T16:57:07Z</time>
      </trkpt>
      <trkpt lat="40.912679" lon="-7.008181">
        <ele>603.410</ele>
        <time>2019-06-22T16:57:08Z</time>
      </trkpt>
      <trkpt lat="40.912562" lon="-7.007975">
        <ele>602.568</ele>
        <time>2019-06-22T16:57:09Z</time>
      </trkpt>
      <trkpt lat="40.912447" lon="-7.007773">
        <ele>601.547</ele>
        <time>2019-06-22T16:57:10Z</time>
      </trkpt>
      <trkpt lat="40.912331" lon="-7.007556">
        <ele>601.452</ele>
        <time>2019-06-22T16:57:11Z</time>
      </trkpt>
      <trkpt lat="40.912203" lon="-7.007341">
        <ele>601.485</ele>
        <time>2019-06-22T16:57:12Z</time>
      </trkpt>
      <trkpt lat="40.912077" lon="-7.007125">
        <ele>601.533</ele>
        <time>2019-06-22T16:57:13Z</time>
      </trkpt>
      <trkpt lat="40.911942" lon="-7.006907">
        <ele>602.123</ele>
        <time>2019-06-22T16:57:14Z</time>
      </trkpt>
      <trkpt lat="40.911812" lon="-7.006678">
        <ele>603.015</ele>
        <time>2019-06-22T16:57:15Z</time>
      </trkpt>
      <trkpt lat="40.911678" lon="-7.006440">
        <ele>603.708</ele>
        <time>2019-06-22T16:57:16Z</time>
      </trkpt>
      <trkpt lat="40.911547" lon="-7.006201">
        <ele>604.136</ele>
        <time>2019-06-22T16:57:17Z</time>
      </trkpt>
      <trkpt lat="40.911411" lon="-7.005956">
        <ele>604.660</ele>
        <time>2019-06-22T16:57:18Z</time>
      </trkpt>
      <trkpt lat="40.911279" lon="-7.005720">
        <ele>605.092</ele>
        <time>2019-06-22T16:57:19Z</time>
      </trkpt>
      <trkpt lat="40.911146" lon="-7.005479">
        <ele>605.054</ele>
        <time>2019-06-22T16:57:20Z</time>
      </trkpt>
      <trkpt lat="40.911016" lon="-7.005236">
        <ele>604.512</ele>
        <time>2019-06-22T16:57:21Z</time>
      </trkpt>
      <trkpt lat="40.910885" lon="-7.005004">
        <ele>603.771</ele>
        <time>2019-06-22T16:57:22Z</time>
      </trkpt>
      <trkpt lat="40.910749" lon="-7.004767">
        <ele>603.026</ele>
        <time>2019-06-22T16:57:23Z</time>
      </trkpt>
      <trkpt lat="40.910616" lon="-7.004545">
        <ele>601.839</ele>
        <time>2019-06-22T16:57:24Z</time>
      </trkpt>
      <trkpt lat="40.910487" lon="-7.004312">
        <ele>601.647</ele>
        <time>2019-06-22T16:57:25Z</time>
      </trkpt>
      <trkpt lat="40.910358" lon="-7.004096">
        <ele>601.629</ele>
        <time>2019-06-22T16:57:26Z</time>
      </trkpt>
      <trkpt lat="40.910240" lon="-7.003869">
        <ele>602.821</ele>
        <time>2019-06-22T16:57:27Z</time>
      </trkpt>
      <trkpt lat="40.910141" lon="-7.003635">
        <ele>604.708</ele>
        <time>2019-06-22T16:57:28Z</time>
      </trkpt>
      <trkpt lat="40.910056" lon="-7.003383">
        <ele>606.727</ele>
        <time>2019-06-22T16:57:29Z</time>
      </trkpt>
      <trkpt lat="40.909974" lon="-7.003122">
        <ele>608.861</ele>
        <time>2019-06-22T16:57:30Z</time>
      </trkpt>
      <trkpt lat="40.909892" lon="-7.002861">
        <ele>610.723</ele>
        <time>2019-06-22T16:57:31Z</time>
      </trkpt>
      <trkpt lat="40.909849" lon="-7.002565">
        <ele>611.665</ele>
        <time>2019-06-22T16:57:32Z</time>
      </trkpt>
      <trkpt lat="40.909800" lon="-7.002295">
        <ele>611.983</ele>
        <time>2019-06-22T16:57:33Z</time>
      </trkpt>
      <trkpt lat="40.909754" lon="-7.002017">
        <ele>611.952</ele>
        <time>2019-06-22T16:57:34Z</time>
      </trkpt>
      <trkpt lat="40.909711" lon="-7.001743">
        <ele>611.957</ele>
        <time>2019-06-22T16:57:35Z</time>
      </trkpt>
      <trkpt lat="40.909667" lon="-7.001468">
        <ele>611.380</ele>
        <time>2019-06-22T16:57:36Z</time>
      </trkpt>
      <trkpt lat="40.909627" lon="-7.001194">
        <ele>611.043</ele>
        <time>2019-06-22T16:57:37Z</time>
      </trkpt>
      <trkpt lat="40.909586" lon="-7.000920">
        <ele>610.764</ele>
        <time>2019-06-22T16:57:38Z</time>
      </trkpt>
      <trkpt lat="40.909546" lon="-7.000661">
        <ele>610.410</ele>
        <time>2019-06-22T16:57:39Z</time>
      </trkpt>
      <trkpt lat="40.909507" lon="-7.000396">
        <ele>610.308</ele>
        <time>2019-06-22T16:57:40Z</time>
      </trkpt>
      <trkpt lat="40.909469" lon="-7.000137">
        <ele>610.377</ele>
        <time>2019-06-22T16:57:41Z</time>
      </trkpt>
      <trkpt lat="40.909479" lon="-6.999921">
        <ele>610.771</ele>
        <time>2019-06-22T16:57:42Z</time>
      </trkpt>
      <trkpt lat="40.909492" lon="-6.999696">
        <ele>611.653</ele>
        <time>2019-06-22T16:57:43Z</time>
      </trkpt>
      <trkpt lat="40.909516" lon="-6.999471">
        <ele>612.645</ele>
        <time>2019-06-22T16:57:44Z</time>
      </trkpt>
      <trkpt lat="40.909570" lon="-6.999235">
        <ele>614.063</ele>
        <time>2019-06-22T16:57:45Z</time>
      </trkpt>
      <trkpt lat="40.909635" lon="-6.999007">
        <ele>615.392</ele>
        <time>2019-06-22T16:57:46Z</time>
      </trkpt>
      <trkpt lat="40.909753" lon="-6.998773">
        <ele>616.527</ele>
        <time>2019-06-22T16:57:47Z</time>
      </trkpt>
      <trkpt lat="40.909870" lon="-6.998561">
        <ele>617.620</ele>
        <time>2019-06-22T16:57:48Z</time>
      </trkpt>
      <trkpt lat="40.909974" lon="-6.998376">
        <ele>618.242</ele>
        <time>2019-06-22T16:57:49Z</time>
      </trkpt>
      <trkpt lat="40.910081" lon="-6.998174">
        <ele>618.522</ele>
        <time>2019-06-22T16:57:50Z</time>
      </trkpt>
      <trkpt lat="40.910156" lon="-6.997961">
        <ele>618.814</ele>
        <time>2019-06-22T16:57:51Z</time>
      </trkpt>
      <trkpt lat="40.910218" lon="-6.997751">
        <ele>619.308</ele>
        <time>2019-06-22T16:57:52Z</time>
      </trkpt>
      <trkpt lat="40.910273" lon="-6.997507">
        <ele>619.777</ele>
        <time>2019-06-22T16:57:53Z</time>
      </trkpt>
      <trkpt lat="40.910314" lon="-6.997267">
        <ele>620.581</ele>
        <time>2019-06-22T16:57:54Z</time>
      </trkpt>
      <trkpt lat="40.910342" lon="-6.997044">
        <ele>621.823</ele>
        <time>2019-06-22T16:57:55Z</time>
      </trkpt>
      <trkpt lat="40.910361" lon="-6.996817">
        <ele>622.355</ele>
        <time>2019-06-22T16:57:56Z</time>
      </trkpt>
      <trkpt lat="40.910358" lon="-6.996620">
        <ele>622.653</ele>
        <time>2019-06-22T16:57:57Z</time>
      </trkpt>
      <trkpt lat="40.910352" lon="-6.996429">
        <ele>623.822</ele>
        <time>2019-06-22T16:57:58Z</time>
      </trkpt>
      <trkpt lat="40.910305" lon="-6.996255">
        <ele>624.797</ele>
        <time>2019-06-22T16:57:59Z</time>
      </trkpt>
      <trkpt lat="40.910230" lon="-6.996071">
        <ele>624.870</ele>
        <time>2019-06-22T16:58:00Z</time>
      </trkpt>
      <trkpt lat="40.910127" lon="-6.995929">
        <ele>625.263</ele>
        <time>2019-06-22T16:58:01Z</time>
      </trkpt>
      <trkpt lat="40.910006" lon="-6.995768">
        <ele>625.244</ele>
        <time>2019-06-22T16:58:02Z</time>
      </trkpt>
      <trkpt lat="40.909884" lon="-6.995634">
        <ele>625.118</ele>
        <time>2019-06-22T16:58:03Z</time>
      </trkpt>
      <trkpt lat="40.909758" lon="-6.995496">
        <ele>624.908</ele>
        <time>2019-06-22T16:58:04Z</time>
      </trkpt>
      <trkpt lat="40.909651" lon="-6.995305">
        <ele>624.939</ele>
        <time>2019-06-22T16:58:05Z</time>
      </trkpt>
      <trkpt lat="40.909556" lon="-6.995118">
        <ele>624.943</ele>
        <time>2019-06-22T16:58:06Z</time>
      </trkpt>
      <trkpt lat="40.909465" lon="-6.994948">
        <ele>625.165</ele>
        <time>2019-06-22T16:58:07Z</time>
      </trkpt>
      <trkpt lat="40.909389" lon="-6.994711">
        <ele>626.417</ele>
        <time>2019-06-22T16:58:08Z</time>
      </trkpt>
      <trkpt lat="40.909310" lon="-6.994490">
        <ele>626.825</ele>
        <time>2019-06-22T16:58:09Z</time>
      </trkpt>
      <trkpt lat="40.909213" lon="-6.994266">
        <ele>626.884</ele>
        <time>2019-06-22T16:58:10Z</time>
      </trkpt>
      <trkpt lat="40.909126" lon="-6.994056">
        <ele>627.229</ele>
        <time>2019-06-22T16:58:11Z</time>
      </trkpt>
      <trkpt lat="40.909033" lon="-6.993820">
        <ele>627.452</ele>
        <time>2019-06-22T16:58:12Z</time>
      </trkpt>
      <trkpt lat="40.908948" lon="-6.993591">
        <ele>627.251</ele>
        <time>2019-06-22T16:58:13Z</time>
      </trkpt>
      <trkpt lat="40.908907" lon="-6.993328">
        <ele>627.201</ele>
        <time>2019-06-22T16:58:14Z</time>
      </trkpt>
      <trkpt lat="40.908865" lon="-6.993057">
        <ele>626.611</ele>
        <time>2019-06-22T16:58:15Z</time>
      </trkpt>
      <trkpt lat="40.908846" lon="-6.992783">
        <ele>625.308</ele>
        <time>2019-06-22T16:58:16Z</time>
      </trkpt>
      <trkpt lat="40.908830" lon="-6.992500">
        <ele>624.948</ele>
        <time>2019-06-22T16:58:17Z</time>
      </trkpt>
      <trkpt lat="40.908812" lon="-6.992219">
        <ele>624.262</ele>
        <time>2019-06-22T16:58:18Z</time>
      </trkpt>
      <trkpt lat="40.908791" lon="-6.991921">
        <ele>623.154</ele>
        <time>2019-06-22T16:58:19Z</time>
      </trkpt>
      <trkpt lat="40.908771" lon="-6.991614">
        <ele>623.186</ele>
        <time>2019-06-22T16:58:20Z</time>
      </trkpt>
      <trkpt lat="40.908751" lon="-6.991303">
        <ele>623.894</ele>
        <time>2019-06-22T16:58:21Z</time>
      </trkpt>
      <trkpt lat="40.908733" lon="-6.991004">
        <ele>624.693</ele>
        <time>2019-06-22T16:58:22Z</time>
      </trkpt>
      <trkpt lat="40.908726" lon="-6.990716">
        <ele>625.168</ele>
        <time>2019-06-22T16:58:23Z</time>
      </trkpt>
      <trkpt lat="40.908724" lon="-6.990420">
        <ele>626.111</ele>
        <time>2019-06-22T16:58:24Z</time>
      </trkpt>
      <trkpt lat="40.908733" lon="-6.990127">
        <ele>626.878</ele>
        <time>2019-06-22T16:58:25Z</time>
      </trkpt>
      <trkpt lat="40.908772" lon="-6.989876">
        <ele>627.033</ele>
        <time>2019-06-22T16:58:26Z</time>
      </trkpt>
      <trkpt lat="40.908810" lon="-6.989614">
        <ele>627.026</ele>
        <time>2019-06-22T16:58:27Z</time>
      </trkpt>
      <trkpt lat="40.908892" lon="-6.989379">
        <ele>627.008</ele>
        <time>2019-06-22T16:58:28Z</time>
      </trkpt>
      <trkpt lat="40.908969" lon="-6.989139">
        <ele>627.430</ele>
        <time>2019-06-22T16:58:29Z</time>
      </trkpt>
      <trkpt lat="40.909113" lon="-6.988936">
        <ele>627.734</ele>
        <time>2019-06-22T16:58:30Z</time>
      </trkpt>
      <trkpt lat="40.909237" lon="-6.988730">
        <ele>628.316</ele>
        <time>2019-06-22T16:58:31Z</time>
      </trkpt>
      <trkpt lat="40.909382" lon="-6.988546">
        <ele>628.948</ele>
        <time>2019-06-22T16:58:32Z</time>
      </trkpt>
      <trkpt lat="40.909517" lon="-6.988376">
        <ele>628.946</ele>
        <time>2019-06-22T16:58:33Z</time>
      </trkpt>
      <trkpt lat="40.909633" lon="-6.988195">
        <ele>629.125</ele>
        <time>2019-06-22T16:58:34Z</time>
      </trkpt>
      <trkpt lat="40.909747" lon="-6.988006">
        <ele>629.410</ele>
        <time>2019-06-22T16:58:35Z</time>
      </trkpt>
      <trkpt lat="40.909851" lon="-6.987809">
        <ele>630.143</ele>
        <time>2019-06-22T16:58:36Z</time>
      </trkpt>
      <trkpt lat="40.909926" lon="-6.987559">
        <ele>630.654</ele>
        <time>2019-06-22T16:58:37Z</time>
      </trkpt>
      <trkpt lat="40.909997" lon="-6.987314">
        <ele>631.556</ele>
        <time>2019-06-22T16:58:38Z</time>
      </trkpt>
      <trkpt lat="40.910072" lon="-6.987041">
        <ele>632.711</ele>
        <time>2019-06-22T16:58:39Z</time>
      </trkpt>
      <trkpt lat="40.910155" lon="-6.986786">
        <ele>632.708</ele>
        <time>2019-06-22T16:58:40Z</time>
      </trkpt>
      <trkpt lat="40.910210" lon="-6.986531">
        <ele>632.148</ele>
        <time>2019-06-22T16:58:41Z</time>
      </trkpt>
      <trkpt lat="40.910288" lon="-6.986282">
        <ele>631.462</ele>
        <time>2019-06-22T16:58:42Z</time>
      </trkpt>
      <trkpt lat="40.910356" lon="-6.986036">
        <ele>629.694</ele>
        <time>2019-06-22T16:58:43Z</time>
      </trkpt>
      <trkpt lat="40.910385" lon="-6.985810">
        <ele>627.796</ele>
        <time>2019-06-22T16:58:44Z</time>
      </trkpt>
      <trkpt lat="40.910419" lon="-6.985589">
        <ele>626.934</ele>
        <time>2019-06-22T16:58:45Z</time>
      </trkpt>
      <trkpt lat="40.910389" lon="-6.985338">
        <ele>626.433</ele>
        <time>2019-06-22T16:58:46Z</time>
      </trkpt>
      <trkpt lat="40.910362" lon="-6.985088">
        <ele>626.468</ele>
        <time>2019-06-22T16:58:47Z</time>
      </trkpt>
      <trkpt lat="40.910322" lon="-6.984854">
        <ele>627.271</ele>
        <time>2019-06-22T16:58:48Z</time>
      </trkpt>
      <trkpt lat="40.910291" lon="-6.984610">
        <ele>627.711</ele>
        <time>2019-06-22T16:58:49Z</time>
      </trkpt>
      <trkpt lat="40.910256" lon="-6.984368">
        <ele>627.721</ele>
        <time>2019-06-22T16:58:50Z</time>
      </trkpt>
      <trkpt lat="40.910201" lon="-6.984126">
        <ele>627.103</ele>
        <time>2019-06-22T16:58:51Z</time>
      </trkpt>
      <trkpt lat="40.910123" lon="-6.983913">
        <ele>626.308</ele>
        <time>2019-06-22T16:58:52Z</time>
      </trkpt>
      <trkpt lat="40.910027" lon="-6.983719">
        <ele>625.274</ele>
        <time>2019-06-22T16:58:53Z</time>
      </trkpt>
      <trkpt lat="40.909926" lon="-6.983491">
        <ele>623.098</ele>
        <time>2019-06-22T16:58:54Z</time>
      </trkpt>
      <trkpt lat="40.909845" lon="-6.983248">
        <ele>621.940</ele>
        <time>2019-06-22T16:58:55Z</time>
      </trkpt>
      <trkpt lat="40.909777" lon="-6.982987">
        <ele>621.382</ele>
        <time>2019-06-22T16:58:56Z</time>
      </trkpt>
      <trkpt lat="40.909737" lon="-6.982738">
        <ele>620.770</ele>
        <time>2019-06-22T16:58:57Z</time>
      </trkpt>
      <trkpt lat="40.909700" lon="-6.982491">
        <ele>620.789</ele>
        <time>2019-06-22T16:58:58Z</time>
      </trkpt>
      <trkpt lat="40.909670" lon="-6.982244">
        <ele>622.394</ele>
        <time>2019-06-22T16:58:59Z</time>
      </trkpt>
      <trkpt lat="40.909636" lon="-6.982003">
        <ele>622.447</ele>
        <time>2019-06-22T16:59:00Z</time>
      </trkpt>
      <trkpt lat="40.909574" lon="-6.981807">
        <ele>622.387</ele>
        <time>2019-06-22T16:59:01Z</time>
      </trkpt>
      <trkpt lat="40.909504" lon="-6.981608">
        <ele>622.042</ele>
        <time>2019-06-22T16:59:02Z</time>
      </trkpt>
      <trkpt lat="40.909409" lon="-6.981424">
        <ele>621.826</ele>
        <time>2019-06-22T16:59:03Z</time>
      </trkpt>
      <trkpt lat="40.909292" lon="-6.981242">
        <ele>621.808</ele>
        <time>2019-06-22T16:59:04Z</time>
      </trkpt>
      <trkpt lat="40.909163" lon="-6.981075">
        <ele>622.731</ele>
        <time>2019-06-22T16:59:05Z</time>
      </trkpt>
      <trkpt lat="40.909023" lon="-6.980902">
        <ele>623.625</ele>
        <time>2019-06-22T16:59:06Z</time>
      </trkpt>
      <trkpt lat="40.908886" lon="-6.980729">
        <ele>624.687</ele>
        <time>2019-06-22T16:59:07Z</time>
      </trkpt>
      <trkpt lat="40.908740" lon="-6.980536">
        <ele>624.939</ele>
        <time>2019-06-22T16:59:08Z</time>
      </trkpt>
      <trkpt lat="40.908595" lon="-6.980341">
        <ele>624.937</ele>
        <time>2019-06-22T16:59:09Z</time>
      </trkpt>
      <trkpt lat="40.908434" lon="-6.980118">
        <ele>624.386</ele>
        <time>2019-06-22T16:59:10Z</time>
      </trkpt>
      <trkpt lat="40.908287" lon="-6.979910">
        <ele>623.321</ele>
        <time>2019-06-22T16:59:11Z</time>
      </trkpt>
      <trkpt lat="40.908139" lon="-6.979691">
        <ele>623.344</ele>
        <time>2019-06-22T16:59:12Z</time>
      </trkpt>
      <trkpt lat="40.908006" lon="-6.979448">
        <ele>622.198</ele>
        <time>2019-06-22T16:59:13Z</time>
      </trkpt>
      <trkpt lat="40.907859" lon="-6.979206">
        <ele>621.815</ele>
        <time>2019-06-22T16:59:14Z</time>
      </trkpt>
      <trkpt lat="40.907718" lon="-6.978954">
        <ele>621.326</ele>
        <time>2019-06-22T16:59:15Z</time>
      </trkpt>
      <trkpt lat="40.907582" lon="-6.978717">
        <ele>621.208</ele>
        <time>2019-06-22T16:59:16Z</time>
      </trkpt>
      <trkpt lat="40.907460" lon="-6.978503">
        <ele>621.272</ele>
        <time>2019-06-22T16:59:17Z</time>
      </trkpt>
      <trkpt lat="40.907338" lon="-6.978287">
        <ele>621.836</ele>
        <time>2019-06-22T16:59:18Z</time>
      </trkpt>
      <trkpt lat="40.907223" lon="-6.978085">
        <ele>622.238</ele>
        <time>2019-06-22T16:59:19Z</time>
      </trkpt>
      <trkpt lat="40.907101" lon="-6.977888">
        <ele>622.930</ele>
        <time>2019-06-22T16:59:20Z</time>
      </trkpt>
      <trkpt lat="40.906978" lon="-6.977679">
        <ele>623.558</ele>
        <time>2019-06-22T16:59:21Z</time>
      </trkpt>
      <trkpt lat="40.906841" lon="-6.977484">
        <ele>624.327</ele>
        <time>2019-06-22T16:59:22Z</time>
      </trkpt>
      <trkpt lat="40.906712" lon="-6.977294">
        <ele>624.392</ele>
        <time>2019-06-22T16:59:23Z</time>
      </trkpt>
      <trkpt lat="40.906576" lon="-6.977078">
        <ele>624.375</ele>
        <time>2019-06-22T16:59:24Z</time>
      </trkpt>
      <trkpt lat="40.906426" lon="-6.976848">
        <ele>624.119</ele>
        <time>2019-06-22T16:59:25Z</time>
      </trkpt>
      <trkpt lat="40.906273" lon="-6.976653">
        <ele>623.509</ele>
        <time>2019-06-22T16:59:26Z</time>
      </trkpt>
      <trkpt lat="40.906118" lon="-6.976453">
        <ele>622.619</ele>
        <time>2019-06-22T16:59:27Z</time>
      </trkpt>
      <trkpt lat="40.905955" lon="-6.976284">
        <ele>621.708</ele>
        <time>2019-06-22T16:59:28Z</time>
      </trkpt>
      <trkpt lat="40.905781" lon="-6.976113">
        <ele>620.924</ele>
        <time>2019-06-22T16:59:29Z</time>
      </trkpt>
      <trkpt lat="40.905603" lon="-6.975934">
        <ele>620.478</ele>
        <time>2019-06-22T16:59:30Z</time>
      </trkpt>
      <trkpt lat="40.905436" lon="-6.975765">
        <ele>620.140</ele>
        <time>2019-06-22T16:59:31Z</time>
      </trkpt>
      <trkpt lat="40.905276" lon="-6.975602">
        <ele>620.022</ele>
        <time>2019-06-22T16:59:32Z</time>
      </trkpt>
      <trkpt lat="40.905134" lon="-6.975440">
        <ele>619.640</ele>
        <time>2019-06-22T16:59:33Z</time>
      </trkpt>
      <trkpt lat="40.904974" lon="-6.975293">
        <ele>618.889</ele>
        <time>2019-06-22T16:59:34Z</time>
      </trkpt>
      <trkpt lat="40.904832" lon="-6.975147">
        <ele>617.554</ele>
        <time>2019-06-22T16:59:35Z</time>
      </trkpt>
      <trkpt lat="40.904699" lon="-6.975024">
        <ele>617.087</ele>
        <time>2019-06-22T16:59:36Z</time>
      </trkpt>
      <trkpt lat="40.904559" lon="-6.974891">
        <ele>615.041</ele>
        <time>2019-06-22T16:59:37Z</time>
      </trkpt>
      <trkpt lat="40.904424" lon="-6.974790">
        <ele>615.081</ele>
        <time>2019-06-22T16:59:38Z</time>
      </trkpt>
      <trkpt lat="40.904287" lon="-6.974686">
        <ele>615.109</ele>
        <time>2019-06-22T16:59:39Z</time>
      </trkpt>
      <trkpt lat="40.904156" lon="-6.974594">
        <ele>616.608</ele>
        <time>2019-06-22T16:59:40Z</time>
      </trkpt>
      <trkpt lat="40.904035" lon="-6.974481">
        <ele>617.977</ele>
        <time>2019-06-22T16:59:41Z</time>
      </trkpt>
      <trkpt lat="40.903921" lon="-6.974366">
        <ele>619.741</ele>
        <time>2019-06-22T16:59:42Z</time>
      </trkpt>
      <trkpt lat="40.903830" lon="-6.974157">
        <ele>621.183</ele>
        <time>2019-06-22T16:59:43Z</time>
      </trkpt>
      <trkpt lat="40.903751" lon="-6.973977">
        <ele>621.155</ele>
        <time>2019-06-22T16:59:44Z</time>
      </trkpt>
      <trkpt lat="40.903680" lon="-6.973789">
        <ele>621.163</ele>
        <time>2019-06-22T16:59:45Z</time>
      </trkpt>
      <trkpt lat="40.903617" lon="-6.973599">
        <ele>620.532</ele>
        <time>2019-06-22T16:59:46Z</time>
      </trkpt>
      <trkpt lat="40.903555" lon="-6.973417">
        <ele>619.177</ele>
        <time>2019-06-22T16:59:47Z</time>
      </trkpt>
      <trkpt lat="40.903498" lon="-6.973265">
        <ele>617.950</ele>
        <time>2019-06-22T16:59:48Z</time>
      </trkpt>
      <trkpt lat="40.903437" lon="-6.973101">
        <ele>616.861</ele>
        <time>2019-06-22T16:59:49Z</time>
      </trkpt>
      <trkpt lat="40.903384" lon="-6.972969">
        <ele>615.921</ele>
        <time>2019-06-22T16:59:50Z</time>
      </trkpt>
      <trkpt lat="40.903319" lon="-6.972850">
        <ele>615.713</ele>
        <time>2019-06-22T16:59:51Z</time>
      </trkpt>
      <trkpt lat="40.903248" lon="-6.972727">
        <ele>615.708</ele>
        <time>2019-06-22T16:59:52Z</time>
      </trkpt>
      <trkpt lat="40.903188" lon="-6.972631">
        <ele>616.069</ele>
        <time>2019-06-22T16:59:53Z</time>
      </trkpt>
      <trkpt lat="40.903148" lon="-6.972542">
        <ele>616.913</ele>
        <time>2019-06-22T16:59:54Z</time>
      </trkpt>
      <trkpt lat="40.903118" lon="-6.972398">
        <ele>617.715</ele>
        <time>2019-06-22T16:59:55Z</time>
      </trkpt>
      <trkpt lat="40.903084" lon="-6.972254">
        <ele>618.127</ele>
        <time>2019-06-22T16:59:56Z</time>
      </trkpt>
      <trkpt lat="40.903028" lon="-6.972095">
        <ele>618.895</ele>
        <time>2019-06-22T16:59:57Z</time>
      </trkpt>
      <trkpt lat="40.902955" lon="-6.971919">
        <ele>619.614</ele>
        <time>2019-06-22T16:59:58Z</time>
      </trkpt>
      <trkpt lat="40.902897" lon="-6.971746">
        <ele>619.639</ele>
        <time>2019-06-22T16:59:59Z</time>
      </trkpt>
      <trkpt lat="40.902832" lon="-6.971553">
        <ele>619.412</ele>
        <time>2019-06-22T17:00:00Z</time>
      </trkpt>
      <trkpt lat="40.902768" lon="-6.971381">
        <ele>619.252</ele>
        <time>2019-06-22T17:00:01Z</time>
      </trkpt>
      <trkpt lat="40.902714" lon="-6.971187">
        <ele>618.553</ele>
        <time>2019-06-22T17:00:02Z</time>
      </trkpt>
      <trkpt lat="40.902648" lon="-6.971005">
        <ele>618.008</ele>
        <time>2019-06-22T17:00:03Z</time>
      </trkpt>
      <trkpt lat="40.902573" lon="-6.970819">
        <ele>618.008</ele>
        <time>2019-06-22T17:00:04Z</time>
      </trkpt>
      <trkpt lat="40.902495" lon="-6.970637">
        <ele>618.388</ele>
        <time>2019-06-22T17:00:05Z</time>
      </trkpt>
      <trkpt lat="40.902422" lon="-6.970467">
        <ele>618.512</ele>
        <time>2019-06-22T17:00:06Z</time>
      </trkpt>
      <trkpt lat="40.902359" lon="-6.970313">
        <ele>618.864</ele>
        <time>2019-06-22T17:00:07Z</time>
      </trkpt>
      <trkpt lat="40.902287" lon="-6.970182">
        <ele>619.246</ele>
        <time>2019-06-22T17:00:08Z</time>
      </trkpt>
      <trkpt lat="40.902195" lon="-6.970050">
        <ele>619.614</ele>
        <time>2019-06-22T17:00:09Z</time>
      </trkpt>
      <trkpt lat="40.902103" lon="-6.969907">
        <ele>620.143</ele>
        <time>2019-06-22T17:00:10Z</time>
      </trkpt>
      <trkpt lat="40.902024" lon="-6.969795">
        <ele>620.968</ele>
        <time>2019-06-22T17:00:11Z</time>
      </trkpt>
      <trkpt lat="40.901935" lon="-6.969679">
        <ele>622.471</ele>
        <time>2019-06-22T17:00:12Z</time>
      </trkpt>
      <trkpt lat="40.901843" lon="-6.969579">
        <ele>623.821</ele>
        <time>2019-06-22T17:00:13Z</time>
      </trkpt>
      <trkpt lat="40.901753" lon="-6.969468">
        <ele>624.841</ele>
        <time>2019-06-22T17:00:14Z</time>
      </trkpt>
      <trkpt lat="40.901662" lon="-6.969365">
        <ele>625.505</ele>
        <time>2019-06-22T17:00:15Z</time>
      </trkpt>
      <trkpt lat="40.901571" lon="-6.969260">
        <ele>626.008</ele>
        <time>2019-06-22T17:00:16Z</time>
      </trkpt>
      <trkpt lat="40.901501" lon="-6.969151">
        <ele>626.085</ele>
        <time>2019-06-22T17:00:17Z</time>
      </trkpt>
      <trkpt lat="40.901444" lon="-6.969053">
        <ele>625.949</ele>
        <time>2019-06-22T17:00:18Z</time>
      </trkpt>
      <trkpt lat="40.901370" lon="-6.968959">
        <ele>625.951</ele>
        <time>2019-06-22T17:00:19Z</time>
      </trkpt>
      <trkpt lat="40.901316" lon="-6.968906">
        <ele>625.933</ele>
        <time>2019-06-22T17:00:20Z</time>
      </trkpt>
      <trkpt lat="40.901265" lon="-6.968821">
        <ele>625.531</ele>
        <time>2019-06-22T17:00:21Z</time>
      </trkpt>
      <trkpt lat="40.901202" lon="-6.968740">
        <ele>625.470</ele>
        <time>2019-06-22T17:00:22Z</time>
      </trkpt>
      <trkpt lat="40.901149" lon="-6.968666">
        <ele>625.295</ele>
        <time>2019-06-22T17:00:23Z</time>
      </trkpt>
      <trkpt lat="40.901098" lon="-6.968601">
        <ele>625.218</ele>
        <time>2019-06-22T17:00:24Z</time>
      </trkpt>
      <trkpt lat="40.901043" lon="-6.968530">
        <ele>625.234</ele>
        <time>2019-06-22T17:00:25Z</time>
      </trkpt>
      <trkpt lat="40.900977" lon="-6.968451">
        <ele>625.555</ele>
        <time>2019-06-22T17:00:26Z</time>
      </trkpt>
      <trkpt lat="40.900887" lon="-6.968353">
        <ele>625.710</ele>
        <time>2019-06-22T17:00:27Z</time>
      </trkpt>
      <trkpt lat="40.900794" lon="-6.968253">
        <ele>625.908</ele>
        <time>2019-06-22T17:00:28Z</time>
      </trkpt>
      <trkpt lat="40.900694" lon="-6.968141">
        <ele>626.266</ele>
        <time>2019-06-22T17:00:29Z</time>
      </trkpt>
      <trkpt lat="40.900585" lon="-6.968014">
        <ele>626.540</ele>
        <time>2019-06-22T17:00:30Z</time>
      </trkpt>
      <trkpt lat="40.900481" lon="-6.967875">
        <ele>626.792</ele>
        <time>2019-06-22T17:00:31Z</time>
      </trkpt>
      <trkpt lat="40.900363" lon="-6.967749">
        <ele>626.874</ele>
        <time>2019-06-22T17:00:32Z</time>
      </trkpt>
      <trkpt lat="40.900254" lon="-6.967606">
        <ele>626.982</ele>
        <time>2019-06-22T17:00:33Z</time>
      </trkpt>
      <trkpt lat="40.900136" lon="-6.967493">
        <ele>626.991</ele>
        <time>2019-06-22T17:00:34Z</time>
      </trkpt>
      <trkpt lat="40.900024" lon="-6.967379">
        <ele>626.816</ele>
        <time>2019-06-22T17:00:35Z</time>
      </trkpt>
      <trkpt lat="40.899932" lon="-6.967296">
        <ele>626.489</ele>
        <time>2019-06-22T17:00:36Z</time>
      </trkpt>
      <trkpt lat="40.899829" lon="-6.967184">
        <ele>626.211</ele>
        <time>2019-06-22T17:00:37Z</time>
      </trkpt>
      <trkpt lat="40.899734" lon="-6.967080">
        <ele>626.221</ele>
        <time>2019-06-22T17:00:38Z</time>
      </trkpt>
      <trkpt lat="40.899636" lon="-6.966971">
        <ele>626.603</ele>
        <time>2019-06-22T17:00:39Z</time>
      </trkpt>
      <trkpt lat="40.899535" lon="-6.966855">
        <ele>626.908</ele>
        <time>2019-06-22T17:00:40Z</time>
      </trkpt>
      <trkpt lat="40.899431" lon="-6.966745">
        <ele>627.644</ele>
        <time>2019-06-22T17:00:41Z</time>
      </trkpt>
      <trkpt lat="40.899314" lon="-6.966647">
        <ele>628.648</ele>
        <time>2019-06-22T17:00:42Z</time>
      </trkpt>
      <trkpt lat="40.899206" lon="-6.966553">
        <ele>629.130</ele>
        <time>2019-06-22T17:00:43Z</time>
      </trkpt>
      <trkpt lat="40.899101" lon="-6.966450">
        <ele>629.132</ele>
        <time>2019-06-22T17:00:44Z</time>
      </trkpt>
      <trkpt lat="40.898997" lon="-6.966366">
        <ele>628.780</ele>
        <time>2019-06-22T17:00:45Z</time>
      </trkpt>
      <trkpt lat="40.898915" lon="-6.966275">
        <ele>628.429</ele>
        <time>2019-06-22T17:00:46Z</time>
      </trkpt>
      <trkpt lat="40.898823" lon="-6.966192">
        <ele>628.334</ele>
        <time>2019-06-22T17:00:47Z</time>
      </trkpt>
      <trkpt lat="40.898741" lon="-6.966119">
        <ele>628.257</ele>
        <time>2019-06-22T17:00:48Z</time>
      </trkpt>
      <trkpt lat="40.898652" lon="-6.966056">
        <ele>628.238</ele>
        <time>2019-06-22T17:00:49Z</time>
      </trkpt>
      <trkpt lat="40.898601" lon="-6.966025">
        <ele>628.570</ele>
        <time>2019-06-22T17:00:50Z</time>
      </trkpt>
      <trkpt lat="40.898556" lon="-6.966005">
        <ele>628.517</ele>
        <time>2019-06-22T17:00:51Z</time>
      </trkpt>
      <trkpt lat="40.898503" lon="-6.966004">
        <ele>628.508</ele>
        <time>2019-06-22T17:00:52Z</time>
      </trkpt>
      <trkpt lat="40.898444" lon="-6.966013">
        <ele>628.616</ele>
        <time>2019-06-22T17:00:53Z</time>
      </trkpt>
      <trkpt lat="40.898379" lon="-6.966018">
        <ele>628.740</ele>
        <time>2019-06-22T17:00:54Z</time>
      </trkpt>
      <trkpt lat="40.898321" lon="-6.966025">
        <ele>628.912</ele>
        <time>2019-06-22T17:00:55Z</time>
      </trkpt>
      <trkpt lat="40.898258" lon="-6.966027">
        <ele>629.644</ele>
        <time>2019-06-22T17:00:56Z</time>
      </trkpt>
      <trkpt lat="40.898196" lon="-6.966009">
        <ele>630.182</ele>
        <time>2019-06-22T17:00:57Z</time>
      </trkpt>
      <trkpt lat="40.898136" lon="-6.965955">
        <ele>630.131</ele>
        <time>2019-06-22T17:00:58Z</time>
      </trkpt>
      <trkpt lat="40.898082" lon="-6.965891">
        <ele>630.176</ele>
        <time>2019-06-22T17:00:59Z</time>
      </trkpt>
      <trkpt lat="40.898038" lon="-6.965795">
        <ele>630.119</ele>
        <time>2019-06-22T17:01:00Z</time>
      </trkpt>
      <trkpt lat="40.897997" lon="-6.965697">
        <ele>629.999</ele>
        <time>2019-06-22T17:01:01Z</time>
      </trkpt>
      <trkpt lat="40.897940" lon="-6.965602">
        <ele>629.807</ele>
        <time>2019-06-22T17:01:02Z</time>
      </trkpt>
      <trkpt lat="40.897888" lon="-6.965500">
        <ele>629.827</ele>
        <time>2019-06-22T17:01:03Z</time>
      </trkpt>
      <trkpt lat="40.897824" lon="-6.965395">
        <ele>629.808</ele>
        <time>2019-06-22T17:01:04Z</time>
      </trkpt>
      <trkpt lat="40.897764" lon="-6.965319">
        <ele>629.952</ele>
        <time>2019-06-22T17:01:05Z</time>
      </trkpt>
      <trkpt lat="40.897691" lon="-6.965250">
        <ele>630.156</ele>
        <time>2019-06-22T17:01:06Z</time>
      </trkpt>
      <trkpt lat="40.897613" lon="-6.965183">
        <ele>630.458</ele>
        <time>2019-06-22T17:01:07Z</time>
      </trkpt>
      <trkpt lat="40.897545" lon="-6.965136">
        <ele>631.070</ele>
        <time>2019-06-22T17:01:08Z</time>
      </trkpt>
      <trkpt lat="40.897468" lon="-6.965095">
        <ele>631.528</ele>
        <time>2019-06-22T17:01:09Z</time>
      </trkpt>
      <trkpt lat="40.897401" lon="-6.965035">
        <ele>632.097</ele>
        <time>2019-06-22T17:01:10Z</time>
      </trkpt>
      <trkpt lat="40.897342" lon="-6.964986">
        <ele>632.272</ele>
        <time>2019-06-22T17:01:11Z</time>
      </trkpt>
      <trkpt lat="40.897272" lon="-6.964940">
        <ele>632.415</ele>
        <time>2019-06-22T17:01:12Z</time>
      </trkpt>
      <trkpt lat="40.897196" lon="-6.964876">
        <ele>632.433</ele>
        <time>2019-06-22T17:01:13Z</time>
      </trkpt>
      <trkpt lat="40.897123" lon="-6.964796">
        <ele>632.323</ele>
        <time>2019-06-22T17:01:14Z</time>
      </trkpt>
      <trkpt lat="40.897048" lon="-6.964737">
        <ele>632.115</ele>
        <time>2019-06-22T17:01:15Z</time>
      </trkpt>
      <trkpt lat="40.896970" lon="-6.964681">
        <ele>632.108</ele>
        <time>2019-06-22T17:01:16Z</time>
      </trkpt>
      <trkpt lat="40.896895" lon="-6.964634">
        <ele>632.256</ele>
        <time>2019-06-22T17:01:17Z</time>
      </trkpt>
      <trkpt lat="40.896828" lon="-6.964569">
        <ele>632.410</ele>
        <time>2019-06-22T17:01:18Z</time>
      </trkpt>
      <trkpt lat="40.896762" lon="-6.964543">
        <ele>632.542</ele>
        <time>2019-06-22T17:01:19Z</time>
      </trkpt>
      <trkpt lat="40.896693" lon="-6.964486">
        <ele>632.544</ele>
        <time>2019-06-22T17:01:20Z</time>
      </trkpt>
      <trkpt lat="40.896626" lon="-6.964430">
        <ele>632.532</ele>
        <time>2019-06-22T17:01:21Z</time>
      </trkpt>
      <trkpt lat="40.896564" lon="-6.964382">
        <ele>632.541</ele>
        <time>2019-06-22T17:01:22Z</time>
      </trkpt>
      <trkpt lat="40.896506" lon="-6.964336">
        <ele>632.656</ele>
        <time>2019-06-22T17:01:23Z</time>
      </trkpt>
      <trkpt lat="40.896453" lon="-6.964303">
        <ele>632.629</ele>
        <time>2019-06-22T17:01:24Z</time>
      </trkpt>
      <trkpt lat="40.896369" lon="-6.964305">
        <ele>632.722</ele>
        <time>2019-06-22T17:01:25Z</time>
      </trkpt>
      <trkpt lat="40.896287" lon="-6.964321">
        <ele>633.262</ele>
        <time>2019-06-22T17:01:26Z</time>
      </trkpt>
      <trkpt lat="40.896194" lon="-6.964335">
        <ele>633.508</ele>
        <time>2019-06-22T17:01:27Z</time>
      </trkpt>
      <trkpt lat="40.896094" lon="-6.964338">
        <ele>633.508</ele>
        <time>2019-06-22T17:01:28Z</time>
      </trkpt>
      <trkpt lat="40.895996" lon="-6.964351">
        <ele>633.255</ele>
        <time>2019-06-22T17:01:29Z</time>
      </trkpt>
      <trkpt lat="40.895878" lon="-6.964346">
        <ele>633.189</ele>
        <time>2019-06-22T17:01:30Z</time>
      </trkpt>
      <trkpt lat="40.895744" lon="-6.964362">
        <ele>633.031</ele>
        <time>2019-06-22T17:01:31Z</time>
      </trkpt>
      <trkpt lat="40.895614" lon="-6.964364">
        <ele>633.083</ele>
        <time>2019-06-22T17:01:32Z</time>
      </trkpt>
      <trkpt lat="40.895475" lon="-6.964366">
        <ele>633.431</ele>
        <time>2019-06-22T17:01:33Z</time>
      </trkpt>
      <trkpt lat="40.895341" lon="-6.964376">
        <ele>633.490</ele>
        <time>2019-06-22T17:01:34Z</time>
      </trkpt>
      <trkpt lat="40.895205" lon="-6.964378">
        <ele>633.475</ele>
        <time>2019-06-22T17:01:35Z</time>
      </trkpt>
      <trkpt lat="40.895072" lon="-6.964389">
        <ele>633.478</ele>
        <time>2019-06-22T17:01:36Z</time>
      </trkpt>
      <trkpt lat="40.894930" lon="-6.964392">
        <ele>633.748</ele>
        <time>2019-06-22T17:01:37Z</time>
      </trkpt>
      <trkpt lat="40.894789" lon="-6.964385">
        <ele>634.061</ele>
        <time>2019-06-22T17:01:38Z</time>
      </trkpt>
      <trkpt lat="40.894646" lon="-6.964377">
        <ele>634.717</ele>
        <time>2019-06-22T17:01:39Z</time>
      </trkpt>
      <trkpt lat="40.894500" lon="-6.964371">
        <ele>635.308</ele>
        <time>2019-06-22T17:01:40Z</time>
      </trkpt>
      <trkpt lat="40.894350" lon="-6.964376">
        <ele>636.017</ele>
        <time>2019-06-22T17:01:41Z</time>
      </trkpt>
      <trkpt lat="40.894208" lon="-6.964383">
        <ele>636.871</ele>
        <time>2019-06-22T17:01:42Z</time>
      </trkpt>
      <trkpt lat="40.894055" lon="-6.964391">
        <ele>637.183</ele>
        <time>2019-06-22T17:01:43Z</time>
      </trkpt>
      <trkpt lat="40.893915" lon="-6.964404">
        <ele>637.485</ele>
        <time>2019-06-22T17:01:44Z</time>
      </trkpt>
      <trkpt lat="40.893742" lon="-6.964415">
        <ele>638.183</ele>
        <time>2019-06-22T17:01:45Z</time>
      </trkpt>
      <trkpt lat="40.893574" lon="-6.964436">
        <ele>638.942</ele>
        <time>2019-06-22T17:01:46Z</time>
      </trkpt>
      <trkpt lat="40.893407" lon="-6.964452">
        <ele>639.387</ele>
        <time>2019-06-22T17:01:47Z</time>
      </trkpt>
      <trkpt lat="40.893249" lon="-6.964453">
        <ele>639.370</ele>
        <time>2019-06-22T17:01:48Z</time>
      </trkpt>
      <trkpt lat="40.893083" lon="-6.964470">
        <ele>639.751</ele>
        <time>2019-06-22T17:01:49Z</time>
      </trkpt>
      <trkpt lat="40.892913" lon="-6.964479">
        <ele>640.301</ele>
        <time>2019-06-22T17:01:50Z</time>
      </trkpt>
      <trkpt lat="40.892757" lon="-6.964487">
        <ele>640.811</ele>
        <time>2019-06-22T17:01:51Z</time>
      </trkpt>
      <trkpt lat="40.892596" lon="-6.964503">
        <ele>641.308</ele>
        <time>2019-06-22T17:01:52Z</time>
      </trkpt>
      <trkpt lat="40.892438" lon="-6.964512">
        <ele>642.368</ele>
        <time>2019-06-22T17:01:53Z</time>
      </trkpt>
      <trkpt lat="40.892274" lon="-6.964526">
        <ele>643.252</ele>
        <time>2019-06-22T17:01:54Z</time>
      </trkpt>
      <trkpt lat="40.892118" lon="-6.964550">
        <ele>643.554</ele>
        <time>2019-06-22T17:01:55Z</time>
      </trkpt>
      <trkpt lat="40.891946" lon="-6.964566">
        <ele>643.986</ele>
        <time>2019-06-22T17:01:56Z</time>
      </trkpt>
      <trkpt lat="40.891774" lon="-6.964583">
        <ele>644.054</ele>
        <time>2019-06-22T17:01:57Z</time>
      </trkpt>
      <trkpt lat="40.891601" lon="-6.964609">
        <ele>644.233</ele>
        <time>2019-06-22T17:01:58Z</time>
      </trkpt>
      <trkpt lat="40.891423" lon="-6.964626">
        <ele>644.728</ele>
        <time>2019-06-22T17:01:59Z</time>
      </trkpt>
      <trkpt lat="40.891246" lon="-6.964647">
        <ele>645.561</ele>
        <time>2019-06-22T17:02:00Z</time>
      </trkpt>
      <trkpt lat="40.891076" lon="-6.964672">
        <ele>646.417</ele>
        <time>2019-06-22T17:02:01Z</time>
      </trkpt>
      <trkpt lat="40.890923" lon="-6.964673">
        <ele>647.687</ele>
        <time>2019-06-22T17:02:02Z</time>
      </trkpt>
      <trkpt lat="40.890776" lon="-6.964686">
        <ele>647.615</ele>
        <time>2019-06-22T17:02:03Z</time>
      </trkpt>
      <trkpt lat="40.890634" lon="-6.964707">
        <ele>647.108</ele>
        <time>2019-06-22T17:02:04Z</time>
      </trkpt>
      <trkpt lat="40.890488" lon="-6.964725">
        <ele>646.584</ele>
        <time>2019-06-22T17:02:05Z</time>
      </trkpt>
      <trkpt lat="40.890346" lon="-6.964736">
        <ele>645.698</ele>
        <time>2019-06-22T17:02:06Z</time>
      </trkpt>
      <trkpt lat="40.890197" lon="-6.964751">
        <ele>645.050</ele>
        <time>2019-06-22T17:02:07Z</time>
      </trkpt>
      <trkpt lat="40.890052" lon="-6.964762">
        <ele>645.032</ele>
        <time>2019-06-22T17:02:08Z</time>
      </trkpt>
      <trkpt lat="40.889903" lon="-6.964770">
        <ele>645.620</ele>
        <time>2019-06-22T17:02:09Z</time>
      </trkpt>
      <trkpt lat="40.889745" lon="-6.964792">
        <ele>646.679</ele>
        <time>2019-06-22T17:02:10Z</time>
      </trkpt>
      <trkpt lat="40.889602" lon="-6.964802">
        <ele>647.344</ele>
        <time>2019-06-22T17:02:11Z</time>
      </trkpt>
      <trkpt lat="40.889450" lon="-6.964823">
        <ele>647.427</ele>
        <time>2019-06-22T17:02:12Z</time>
      </trkpt>
      <trkpt lat="40.889309" lon="-6.964820">
        <ele>647.829</ele>
        <time>2019-06-22T17:02:13Z</time>
      </trkpt>
      <trkpt lat="40.889159" lon="-6.964824">
        <ele>648.100</ele>
        <time>2019-06-22T17:02:14Z</time>
      </trkpt>
      <trkpt lat="40.888999" lon="-6.964846">
        <ele>648.120</ele>
        <time>2019-06-22T17:02:15Z</time>
      </trkpt>
      <trkpt lat="40.888843" lon="-6.964861">
        <ele>648.708</ele>
        <time>2019-06-22T17:02:16Z</time>
      </trkpt>
      <trkpt lat="40.888697" lon="-6.964880">
        <ele>651.075</ele>
        <time>2019-06-22T17:02:17Z</time>
      </trkpt>
      <trkpt lat="40.888537" lon="-6.964902">
        <ele>653.479</ele>
        <time>2019-06-22T17:02:18Z</time>
      </trkpt>
      <trkpt lat="40.888372" lon="-6.964917">
        <ele>656.011</ele>
        <time>2019-06-22T17:02:19Z</time>
      </trkpt>
      <trkpt lat="40.888213" lon="-6.964935">
        <ele>658.773</ele>
        <time>2019-06-22T17:02:20Z</time>
      </trkpt>
      <trkpt lat="40.888049" lon="-6.964960">
        <ele>661.091</ele>
        <time>2019-06-22T17:02:21Z</time>
      </trkpt>
      <trkpt lat="40.887903" lon="-6.964989">
        <ele>662.270</ele>
        <time>2019-06-22T17:02:22Z</time>
      </trkpt>
      <trkpt lat="40.887760" lon="-6.965014">
        <ele>663.475</ele>
        <time>2019-06-22T17:02:23Z</time>
      </trkpt>
      <trkpt lat="40.887635" lon="-6.965096">
        <ele>664.548</ele>
        <time>2019-06-22T17:02:24Z</time>
      </trkpt>
      <trkpt lat="40.887507" lon="-6.965188">
        <ele>665.565</ele>
        <time>2019-06-22T17:02:25Z</time>
      </trkpt>
      <trkpt lat="40.887374" lon="-6.965298">
        <ele>666.468</ele>
        <time>2019-06-22T17:02:26Z</time>
      </trkpt>
      <trkpt lat="40.887241" lon="-6.965415">
        <ele>667.514</ele>
        <time>2019-06-22T17:02:27Z</time>
      </trkpt>
      <trkpt lat="40.887100" lon="-6.965536">
        <ele>668.408</ele>
        <time>2019-06-22T17:02:28Z</time>
      </trkpt>
      <trkpt lat="40.886949" lon="-6.965652">
        <ele>668.499</ele>
        <time>2019-06-22T17:02:29Z</time>
      </trkpt>
      <trkpt lat="40.886795" lon="-6.965777">
        <ele>669.333</ele>
        <time>2019-06-22T17:02:30Z</time>
      </trkpt>
      <trkpt lat="40.886638" lon="-6.965915">
        <ele>670.055</ele>
        <time>2019-06-22T17:02:31Z</time>
      </trkpt>
      <trkpt lat="40.886481" lon="-6.966052">
        <ele>670.987</ele>
        <time>2019-06-22T17:02:32Z</time>
      </trkpt>
      <trkpt lat="40.886311" lon="-6.966194">
        <ele>671.515</ele>
        <time>2019-06-22T17:02:33Z</time>
      </trkpt>
      <trkpt lat="40.886139" lon="-6.966337">
        <ele>672.074</ele>
        <time>2019-06-22T17:02:34Z</time>
      </trkpt>
      <trkpt lat="40.885971" lon="-6.966479">
        <ele>672.919</ele>
        <time>2019-06-22T17:02:35Z</time>
      </trkpt>
      <trkpt lat="40.885800" lon="-6.966625">
        <ele>673.682</ele>
        <time>2019-06-22T17:02:36Z</time>
      </trkpt>
      <trkpt lat="40.885635" lon="-6.966768">
        <ele>674.537</ele>
        <time>2019-06-22T17:02:37Z</time>
      </trkpt>
      <trkpt lat="40.885466" lon="-6.966913">
        <ele>675.649</ele>
        <time>2019-06-22T17:02:38Z</time>
      </trkpt>
      <trkpt lat="40.885298" lon="-6.967054">
        <ele>677.113</ele>
        <time>2019-06-22T17:02:39Z</time>
      </trkpt>
      <trkpt lat="40.885119" lon="-6.967208">
        <ele>677.308</ele>
        <time>2019-06-22T17:02:40Z</time>
      </trkpt>
      <trkpt lat="40.884942" lon="-6.967354">
        <ele>678.096</ele>
        <time>2019-06-22T17:02:41Z</time>
      </trkpt>
      <trkpt lat="40.884766" lon="-6.967498">
        <ele>679.280</ele>
        <time>2019-06-22T17:02:42Z</time>
      </trkpt>
      <trkpt lat="40.884588" lon="-6.967635">
        <ele>680.272</ele>
        <time>2019-06-22T17:02:43Z</time>
      </trkpt>
      <trkpt lat="40.884403" lon="-6.967762">
        <ele>680.944</ele>
        <time>2019-06-22T17:02:44Z</time>
      </trkpt>
      <trkpt lat="40.884215" lon="-6.967903">
        <ele>682.062</ele>
        <time>2019-06-22T17:02:45Z</time>
      </trkpt>
      <trkpt lat="40.884034" lon="-6.968059">
        <ele>683.181</ele>
        <time>2019-06-22T17:02:46Z</time>
      </trkpt>
      <trkpt lat="40.883846" lon="-6.968218">
        <ele>683.126</ele>
        <time>2019-06-22T17:02:47Z</time>
      </trkpt>
      <trkpt lat="40.883654" lon="-6.968373">
        <ele>683.049</ele>
        <time>2019-06-22T17:02:48Z</time>
      </trkpt>
      <trkpt lat="40.883457" lon="-6.968532">
        <ele>682.663</ele>
        <time>2019-06-22T17:02:49Z</time>
      </trkpt>
      <trkpt lat="40.883272" lon="-6.968687">
        <ele>682.144</ele>
        <time>2019-06-22T17:02:50Z</time>
      </trkpt>
      <trkpt lat="40.883077" lon="-6.968855">
        <ele>681.818</ele>
        <time>2019-06-22T17:02:51Z</time>
      </trkpt>
      <trkpt lat="40.882876" lon="-6.969027">
        <ele>681.608</ele>
        <time>2019-06-22T17:02:52Z</time>
      </trkpt>
      <trkpt lat="40.882669" lon="-6.969181">
        <ele>681.639</ele>
        <time>2019-06-22T17:02:53Z</time>
      </trkpt>
      <trkpt lat="40.882466" lon="-6.969346">
        <ele>681.823</ele>
        <time>2019-06-22T17:02:54Z</time>
      </trkpt>
      <trkpt lat="40.882265" lon="-6.969502">
        <ele>682.115</ele>
        <time>2019-06-22T17:02:55Z</time>
      </trkpt>
      <trkpt lat="40.882066" lon="-6.969667">
        <ele>682.727</ele>
        <time>2019-06-22T17:02:56Z</time>
      </trkpt>
      <trkpt lat="40.881867" lon="-6.969828">
        <ele>683.745</ele>
        <time>2019-06-22T17:02:57Z</time>
      </trkpt>
      <trkpt lat="40.881670" lon="-6.969983">
        <ele>684.464</ele>
        <time>2019-06-22T17:02:58Z</time>
      </trkpt>
      <trkpt lat="40.881470" lon="-6.970149">
        <ele>684.999</ele>
        <time>2019-06-22T17:02:59Z</time>
      </trkpt>
      <trkpt lat="40.881272" lon="-6.970304">
        <ele>685.982</ele>
        <time>2019-06-22T17:03:00Z</time>
      </trkpt>
      <trkpt lat="40.881074" lon="-6.970465">
        <ele>686.629</ele>
        <time>2019-06-22T17:03:01Z</time>
      </trkpt>
      <trkpt lat="40.880874" lon="-6.970639">
        <ele>687.300</ele>
        <time>2019-06-22T17:03:02Z</time>
      </trkpt>
      <trkpt lat="40.880674" lon="-6.970823">
        <ele>688.320</ele>
        <time>2019-06-22T17:03:03Z</time>
      </trkpt>
      <trkpt lat="40.880477" lon="-6.970992">
        <ele>689.308</ele>
        <time>2019-06-22T17:03:04Z</time>
      </trkpt>
      <trkpt lat="40.880297" lon="-6.971151">
        <ele>689.485</ele>
        <time>2019-06-22T17:03:05Z</time>
      </trkpt>
      <trkpt lat="40.880129" lon="-6.971290">
        <ele>689.449</ele>
        <time>2019-06-22T17:03:06Z</time>
      </trkpt>
      <trkpt lat="40.879965" lon="-6.971421">
        <ele>688.361</ele>
        <time>2019-06-22T17:03:07Z</time>
      </trkpt>
      <trkpt lat="40.879808" lon="-6.971547">
        <ele>688.383</ele>
        <time>2019-06-22T17:03:08Z</time>
      </trkpt>
      <trkpt lat="40.879645" lon="-6.971668">
        <ele>688.821</ele>
        <time>2019-06-22T17:03:09Z</time>
      </trkpt>
      <trkpt lat="40.879483" lon="-6.971769">
        <ele>689.710</ele>
        <time>2019-06-22T17:03:10Z</time>
      </trkpt>
      <trkpt lat="40.879304" lon="-6.971828">
        <ele>690.965</ele>
        <time>2019-06-22T17:03:11Z</time>
      </trkpt>
      <trkpt lat="40.879114" lon="-6.971875">
        <ele>693.848</ele>
        <time>2019-06-22T17:03:12Z</time>
      </trkpt>
      <trkpt lat="40.878921" lon="-6.971923">
        <ele>694.866</ele>
        <time>2019-06-22T17:03:13Z</time>
      </trkpt>
      <trkpt lat="40.878741" lon="-6.971945">
        <ele>694.829</ele>
        <time>2019-06-22T17:03:14Z</time>
      </trkpt>
      <trkpt lat="40.878574" lon="-6.971965">
        <ele>695.121</ele>
        <time>2019-06-22T17:03:15Z</time>
      </trkpt>
      <trkpt lat="40.878399" lon="-6.971982">
        <ele>695.808</ele>
        <time>2019-06-22T17:03:16Z</time>
      </trkpt>
      <trkpt lat="40.878211" lon="-6.971997">
        <ele>696.499</ele>
        <time>2019-06-22T17:03:17Z</time>
      </trkpt>
      <trkpt lat="40.878023" lon="-6.972008">
        <ele>697.273</ele>
        <time>2019-06-22T17:03:18Z</time>
      </trkpt>
      <trkpt lat="40.877838" lon="-6.972040">
        <ele>698.365</ele>
        <time>2019-06-22T17:03:19Z</time>
      </trkpt>
      <trkpt lat="40.877656" lon="-6.972068">
        <ele>698.987</ele>
        <time>2019-06-22T17:03:20Z</time>
      </trkpt>
      <trkpt lat="40.877475" lon="-6.972082">
        <ele>699.345</ele>
        <time>2019-06-22T17:03:21Z</time>
      </trkpt>
      <trkpt lat="40.877283" lon="-6.972099">
        <ele>700.014</ele>
        <time>2019-06-22T17:03:22Z</time>
      </trkpt>
      <trkpt lat="40.877095" lon="-6.972117">
        <ele>700.099</ele>
        <time>2019-06-22T17:03:23Z</time>
      </trkpt>
      <trkpt lat="40.876905" lon="-6.972138">
        <ele>700.132</ele>
        <time>2019-06-22T17:03:24Z</time>
      </trkpt>
      <trkpt lat="40.876728" lon="-6.972161">
        <ele>700.136</ele>
        <time>2019-06-22T17:03:25Z</time>
      </trkpt>
      <trkpt lat="40.876562" lon="-6.972179">
        <ele>699.017</ele>
        <time>2019-06-22T17:03:26Z</time>
      </trkpt>
      <trkpt lat="40.876407" lon="-6.972212">
        <ele>697.718</ele>
        <time>2019-06-22T17:03:27Z</time>
      </trkpt>
      <trkpt lat="40.876259" lon="-6.972272">
        <ele>697.708</ele>
        <time>2019-06-22T17:03:28Z</time>
      </trkpt>
      <trkpt lat="40.876097" lon="-6.972369">
        <ele>697.726</ele>
        <time>2019-06-22T17:03:29Z</time>
      </trkpt>
      <trkpt lat="40.875943" lon="-6.972497">
        <ele>698.390</ele>
        <time>2019-06-22T17:03:30Z</time>
      </trkpt>
      <trkpt lat="40.875802" lon="-6.972633">
        <ele>700.022</ele>
        <time>2019-06-22T17:03:31Z</time>
      </trkpt>
      <trkpt lat="40.875656" lon="-6.972773">
        <ele>702.174</ele>
        <time>2019-06-22T17:03:32Z</time>
      </trkpt>
      <trkpt lat="40.875515" lon="-6.972932">
        <ele>702.132</ele>
        <time>2019-06-22T17:03:33Z</time>
      </trkpt>
      <trkpt lat="40.875361" lon="-6.973097">
        <ele>703.181</ele>
        <time>2019-06-22T17:03:34Z</time>
      </trkpt>
      <trkpt lat="40.875198" lon="-6.973249">
        <ele>703.826</ele>
        <time>2019-06-22T17:03:35Z</time>
      </trkpt>
      <trkpt lat="40.875041" lon="-6.973404">
        <ele>704.269</ele>
        <time>2019-06-22T17:03:36Z</time>
      </trkpt>
      <trkpt lat="40.874881" lon="-6.973559">
        <ele>704.653</ele>
        <time>2019-06-22T17:03:37Z</time>
      </trkpt>
      <trkpt lat="40.874699" lon="-6.973724">
        <ele>704.804</ele>
        <time>2019-06-22T17:03:38Z</time>
      </trkpt>
      <trkpt lat="40.874534" lon="-6.973890">
        <ele>705.714</ele>
        <time>2019-06-22T17:03:39Z</time>
      </trkpt>
      <trkpt lat="40.874364" lon="-6.974061">
        <ele>706.308</ele>
        <time>2019-06-22T17:03:40Z</time>
      </trkpt>
      <trkpt lat="40.874191" lon="-6.974229">
        <ele>707.598</ele>
        <time>2019-06-22T17:03:41Z</time>
      </trkpt>
      <trkpt lat="40.874032" lon="-6.974402">
        <ele>708.642</ele>
        <time>2019-06-22T17:03:42Z</time>
      </trkpt>
      <trkpt lat="40.873871" lon="-6.974562">
        <ele>709.734</ele>
        <time>2019-06-22T17:03:43Z</time>
      </trkpt>
      <trkpt lat="40.873719" lon="-6.974719">
        <ele>710.266</ele>
        <time>2019-06-22T17:03:44Z</time>
      </trkpt>
      <trkpt lat="40.873566" lon="-6.974867">
        <ele>710.384</ele>
        <time>2019-06-22T17:03:45Z</time>
      </trkpt>
      <trkpt lat="40.873412" lon="-6.975014">
        <ele>711.023</ele>
        <time>2019-06-22T17:03:46Z</time>
      </trkpt>
      <trkpt lat="40.873260" lon="-6.975169">
        <ele>712.088</ele>
        <time>2019-06-22T17:03:47Z</time>
      </trkpt>
      <trkpt lat="40.873114" lon="-6.975308">
        <ele>712.591</ele>
        <time>2019-06-22T17:03:48Z</time>
      </trkpt>
      <trkpt lat="40.872984" lon="-6.975437">
        <ele>713.094</ele>
        <time>2019-06-22T17:03:49Z</time>
      </trkpt>
      <trkpt lat="40.872853" lon="-6.975575">
        <ele>714.557</ele>
        <time>2019-06-22T17:03:50Z</time>
      </trkpt>
      <trkpt lat="40.872759" lon="-6.975682">
        <ele>715.922</ele>
        <time>2019-06-22T17:03:51Z</time>
      </trkpt>
      <trkpt lat="40.872657" lon="-6.975795">
        <ele>716.908</ele>
        <time>2019-06-22T17:03:52Z</time>
      </trkpt>
      <trkpt lat="40.872569" lon="-6.975896">
        <ele>718.282</ele>
        <time>2019-06-22T17:03:53Z</time>
      </trkpt>
      <trkpt lat="40.872482" lon="-6.975998">
        <ele>719.936</ele>
        <time>2019-06-22T17:03:54Z</time>
      </trkpt>
      <trkpt lat="40.872399" lon="-6.976090">
        <ele>720.868</ele>
        <time>2019-06-22T17:03:55Z</time>
      </trkpt>
      <trkpt lat="40.872319" lon="-6.976177">
        <ele>721.480</ele>
        <time>2019-06-22T17:03:56Z</time>
      </trkpt>
      <trkpt lat="40.872239" lon="-6.976265">
        <ele>721.968</ele>
        <time>2019-06-22T17:03:57Z</time>
      </trkpt>
      <trkpt lat="40.872174" lon="-6.976349">
        <ele>722.077</ele>
        <time>2019-06-22T17:03:58Z</time>
      </trkpt>
      <trkpt lat="40.872112" lon="-6.976438">
        <ele>722.182</ele>
        <time>2019-06-22T17:03:59Z</time>
      </trkpt>
      <trkpt lat="40.872060" lon="-6.976520">
        <ele>722.585</ele>
        <time>2019-06-22T17:04:00Z</time>
      </trkpt>
      <trkpt lat="40.872005" lon="-6.976581">
        <ele>722.794</ele>
        <time>2019-06-22T17:04:01Z</time>
      </trkpt>
      <trkpt lat="40.871947" lon="-6.976630">
        <ele>722.857</ele>
        <time>2019-06-22T17:04:02Z</time>
      </trkpt>
      <trkpt lat="40.871885" lon="-6.976650">
        <ele>723.022</ele>
        <time>2019-06-22T17:04:03Z</time>
      </trkpt>
      <trkpt lat="40.871816" lon="-6.976644">
        <ele>723.008</ele>
        <time>2019-06-22T17:04:04Z</time>
      </trkpt>
      <trkpt lat="40.871761" lon="-6.976597">
        <ele>722.952</ele>
        <time>2019-06-22T17:04:05Z</time>
      </trkpt>
      <trkpt lat="40.871712" lon="-6.976524">
        <ele>722.666</ele>
        <time>2019-06-22T17:04:06Z</time>
      </trkpt>
      <trkpt lat="40.871663" lon="-6.976439">
        <ele>722.668</ele>
        <time>2019-06-22T17:04:07Z</time>
      </trkpt>
      <trkpt lat="40.871610" lon="-6.976339">
        <ele>722.650</ele>
        <time>2019-06-22T17:04:08Z</time>
      </trkpt>
      <trkpt lat="40.871544" lon="-6.976259">
        <ele>722.668</ele>
        <time>2019-06-22T17:04:09Z</time>
      </trkpt>
      <trkpt lat="40.871428" lon="-6.976185">
        <ele>722.687</ele>
        <time>2019-06-22T17:04:10Z</time>
      </trkpt>
      <trkpt lat="40.871318" lon="-6.976107">
        <ele>722.692</ele>
        <time>2019-06-22T17:04:11Z</time>
      </trkpt>
      <trkpt lat="40.871192" lon="-6.976026">
        <ele>722.625</ele>
        <time>2019-06-22T17:04:12Z</time>
      </trkpt>
      <trkpt lat="40.871062" lon="-6.975941">
        <ele>722.476</ele>
        <time>2019-06-22T17:04:13Z</time>
      </trkpt>
      <trkpt lat="40.870927" lon="-6.975862">
        <ele>722.190</ele>
        <time>2019-06-22T17:04:14Z</time>
      </trkpt>
      <trkpt lat="40.870784" lon="-6.975789">
        <ele>721.819</ele>
        <time>2019-06-22T17:04:15Z</time>
      </trkpt>
      <trkpt lat="40.870632" lon="-6.975735">
        <ele>721.108</ele>
        <time>2019-06-22T17:04:16Z</time>
      </trkpt>
      <trkpt lat="40.870480" lon="-6.975702">
        <ele>719.180</ele>
        <time>2019-06-22T17:04:17Z</time>
      </trkpt>
      <trkpt lat="40.870314" lon="-6.975700">
        <ele>717.594</ele>
        <time>2019-06-22T17:04:18Z</time>
      </trkpt>
      <trkpt lat="40.870153" lon="-6.975696">
        <ele>716.456</ele>
        <time>2019-06-22T17:04:19Z</time>
      </trkpt>
      <trkpt lat="40.869998" lon="-6.975680">
        <ele>714.858</ele>
        <time>2019-06-22T17:04:20Z</time>
      </trkpt>
      <trkpt lat="40.869836" lon="-6.975655">
        <ele>714.076</ele>
        <time>2019-06-22T17:04:21Z</time>
      </trkpt>
      <trkpt lat="40.869680" lon="-6.975623">
        <ele>713.935</ele>
        <time>2019-06-22T17:04:22Z</time>
      </trkpt>
      <trkpt lat="40.869525" lon="-6.975575">
        <ele>713.980</ele>
        <time>2019-06-22T17:04:23Z</time>
      </trkpt>
      <trkpt lat="40.869368" lon="-6.975497">
        <ele>713.733</ele>
        <time>2019-06-22T17:04:24Z</time>
      </trkpt>
      <trkpt lat="40.869211" lon="-6.975403">
        <ele>713.467</ele>
        <time>2019-06-22T17:04:25Z</time>
      </trkpt>
      <trkpt lat="40.869060" lon="-6.975318">
        <ele>712.981</ele>
        <time>2019-06-22T17:04:26Z</time>
      </trkpt>
      <trkpt lat="40.868921" lon="-6.975208">
        <ele>712.219</ele>
        <time>2019-06-22T17:04:27Z</time>
      </trkpt>
      <trkpt lat="40.868779" lon="-6.975073">
        <ele>711.608</ele>
        <time>2019-06-22T17:04:28Z</time>
      </trkpt>
      <trkpt lat="40.868636" lon="-6.974913">
        <ele>711.479</ele>
        <time>2019-06-22T17:04:29Z</time>
      </trkpt>
      <trkpt lat="40.868495" lon="-6.974746">
        <ele>711.253</ele>
        <time>2019-06-22T17:04:30Z</time>
      </trkpt>
      <trkpt lat="40.868372" lon="-6.974559">
        <ele>711.275</ele>
        <time>2019-06-22T17:04:31Z</time>
      </trkpt>
      <trkpt lat="40.868264" lon="-6.974356">
        <ele>710.747</ele>
        <time>2019-06-22T17:04:32Z</time>
      </trkpt>
      <trkpt lat="40.868170" lon="-6.974123">
        <ele>710.295</ele>
        <time>2019-06-22T17:04:33Z</time>
      </trkpt>
      <trkpt lat="40.868095" lon="-6.973896">
        <ele>709.114</ele>
        <time>2019-06-22T17:04:34Z</time>
      </trkpt>
      <trkpt lat="40.868014" lon="-6.973662">
        <ele>707.899</ele>
        <time>2019-06-22T17:04:35Z</time>
      </trkpt>
      <trkpt lat="40.867943" lon="-6.973429">
        <ele>706.862</ele>
        <time>2019-06-22T17:04:36Z</time>
      </trkpt>
      <trkpt lat="40.867851" lon="-6.973200">
        <ele>705.195</ele>
        <time>2019-06-22T17:04:37Z</time>
      </trkpt>
      <trkpt lat="40.867752" lon="-6.972981">
        <ele>702.949</ele>
        <time>2019-06-22T17:04:38Z</time>
      </trkpt>
      <trkpt lat="40.867646" lon="-6.972779">
        <ele>702.923</ele>
        <time>2019-06-22T17:04:39Z</time>
      </trkpt>
      <trkpt lat="40.867494" lon="-6.972626">
        <ele>699.208</ele>
        <time>2019-06-22T17:04:40Z</time>
      </trkpt>
      <trkpt lat="40.867351" lon="-6.972454">
        <ele>699.282</ele>
        <time>2019-06-22T17:04:41Z</time>
      </trkpt>
      <trkpt lat="40.867176" lon="-6.972342">
        <ele>697.396</ele>
        <time>2019-06-22T17:04:42Z</time>
      </trkpt>
      <trkpt lat="40.867006" lon="-6.972204">
        <ele>695.638</ele>
        <time>2019-06-22T17:04:43Z</time>
      </trkpt>
      <trkpt lat="40.866822" lon="-6.972087">
        <ele>695.640</ele>
        <time>2019-06-22T17:04:44Z</time>
      </trkpt>
      <trkpt lat="40.866657" lon="-6.971980">
        <ele>695.898</ele>
        <time>2019-06-22T17:04:45Z</time>
      </trkpt>
      <trkpt lat="40.866498" lon="-6.971852">
        <ele>695.947</ele>
        <time>2019-06-22T17:04:46Z</time>
      </trkpt>
      <trkpt lat="40.866351" lon="-6.971707">
        <ele>696.512</ele>
        <time>2019-06-22T17:04:47Z</time>
      </trkpt>
      <trkpt lat="40.866243" lon="-6.971511">
        <ele>696.275</ele>
        <time>2019-06-22T17:04:48Z</time>
      </trkpt>
      <trkpt lat="40.866157" lon="-6.971304">
        <ele>696.217</ele>
        <time>2019-06-22T17:04:49Z</time>
      </trkpt>
      <trkpt lat="40.866078" lon="-6.971064">
        <ele>695.887</ele>
        <time>2019-06-22T17:04:50Z</time>
      </trkpt>
      <trkpt lat="40.865996" lon="-6.970818">
        <ele>695.215</ele>
        <time>2019-06-22T17:04:51Z</time>
      </trkpt>
      <trkpt lat="40.865928" lon="-6.970581">
        <ele>695.008</ele>
        <time>2019-06-22T17:04:52Z</time>
      </trkpt>
      <trkpt lat="40.865855" lon="-6.970329">
        <ele>694.364</ele>
        <time>2019-06-22T17:04:53Z</time>
      </trkpt>
      <trkpt lat="40.865779" lon="-6.970065">
        <ele>693.628</ele>
        <time>2019-06-22T17:04:54Z</time>
      </trkpt>
      <trkpt lat="40.865704" lon="-6.969800">
        <ele>693.280</ele>
        <time>2019-06-22T17:04:55Z</time>
      </trkpt>
      <trkpt lat="40.865619" lon="-6.969555">
        <ele>692.352</ele>
        <time>2019-06-22T17:04:56Z</time>
      </trkpt>
      <trkpt lat="40.865546" lon="-6.969290">
        <ele>692.040</ele>
        <time>2019-06-22T17:04:57Z</time>
      </trkpt>
      <trkpt lat="40.865481" lon="-6.969022">
        <ele>691.839</ele>
        <time>2019-06-22T17:04:58Z</time>
      </trkpt>
      <trkpt lat="40.865426" lon="-6.968778">
        <ele>691.544</ele>
        <time>2019-06-22T17:04:59Z</time>
      </trkpt>
      <trkpt lat="40.865375" lon="-6.968521">
        <ele>691.387</ele>
        <time>2019-06-22T17:05:00Z</time>
      </trkpt>
      <trkpt lat="40.865309" lon="-6.968271">
        <ele>691.298</ele>
        <time>2019-06-22T17:05:01Z</time>
      </trkpt>
      <trkpt lat="40.865255" lon="-6.968019">
        <ele>691.115</ele>
        <time>2019-06-22T17:05:02Z</time>
      </trkpt>
      <trkpt lat="40.865200" lon="-6.967773">
        <ele>691.126</ele>
        <time>2019-06-22T17:05:03Z</time>
      </trkpt>
      <trkpt lat="40.865141" lon="-6.967518">
        <ele>691.008</ele>
        <time>2019-06-22T17:05:04Z</time>
      </trkpt>
      <trkpt lat="40.865089" lon="-6.967269">
        <ele>690.712</ele>
        <time>2019-06-22T17:05:05Z</time>
      </trkpt>
      <trkpt lat="40.865040" lon="-6.967004">
        <ele>690.526</ele>
        <time>2019-06-22T17:05:06Z</time>
      </trkpt>
      <trkpt lat="40.864998" lon="-6.966741">
        <ele>690.458</ele>
        <time>2019-06-22T17:05:07Z</time>
      </trkpt>
      <trkpt lat="40.864971" lon="-6.966474">
        <ele>689.910</ele>
        <time>2019-06-22T17:05:08Z</time>
      </trkpt>
      <trkpt lat="40.864941" lon="-6.966193">
        <ele>689.138</ele>
        <time>2019-06-22T17:05:09Z</time>
      </trkpt>
      <trkpt lat="40.864893" lon="-6.965908">
        <ele>688.537</ele>
        <time>2019-06-22T17:05:10Z</time>
      </trkpt>
      <trkpt lat="40.864849" lon="-6.965645">
        <ele>687.592</ele>
        <time>2019-06-22T17:05:11Z</time>
      </trkpt>
      <trkpt lat="40.864807" lon="-6.965382">
        <ele>686.035</ele>
        <time>2019-06-22T17:05:12Z</time>
      </trkpt>
      <trkpt lat="40.864764" lon="-6.965127">
        <ele>683.911</ele>
        <time>2019-06-22T17:05:13Z</time>
      </trkpt>
      <trkpt lat="40.864715" lon="-6.964872">
        <ele>682.521</ele>
        <time>2019-06-22T17:05:14Z</time>
      </trkpt>
      <trkpt lat="40.864646" lon="-6.964630">
        <ele>682.203</ele>
        <time>2019-06-22T17:05:15Z</time>
      </trkpt>
      <trkpt lat="40.864570" lon="-6.964385">
        <ele>682.108</ele>
        <time>2019-06-22T17:05:16Z</time>
      </trkpt>
      <trkpt lat="40.864474" lon="-6.964144">
        <ele>682.124</ele>
        <time>2019-06-22T17:05:17Z</time>
      </trkpt>
      <trkpt lat="40.864371" lon="-6.963932">
        <ele>683.698</ele>
        <time>2019-06-22T17:05:18Z</time>
      </trkpt>
      <trkpt lat="40.864247" lon="-6.963684">
        <ele>684.790</ele>
        <time>2019-06-22T17:05:19Z</time>
      </trkpt>
      <trkpt lat="40.864112" lon="-6.963452">
        <ele>684.742</ele>
        <time>2019-06-22T17:05:20Z</time>
      </trkpt>
      <trkpt lat="40.863973" lon="-6.963220">
        <ele>684.350</ele>
        <time>2019-06-22T17:05:21Z</time>
      </trkpt>
      <trkpt lat="40.863823" lon="-6.963006">
        <ele>683.949</ele>
        <time>2019-06-22T17:05:22Z</time>
      </trkpt>
      <trkpt lat="40.863677" lon="-6.962766">
        <ele>683.434</ele>
        <time>2019-06-22T17:05:23Z</time>
      </trkpt>
      <trkpt lat="40.863532" lon="-6.962537">
        <ele>683.347</ele>
        <time>2019-06-22T17:05:24Z</time>
      </trkpt>
      <trkpt lat="40.863398" lon="-6.962316">
        <ele>682.618</ele>
        <time>2019-06-22T17:05:25Z</time>
      </trkpt>
      <trkpt lat="40.863260" lon="-6.962091">
        <ele>681.998</ele>
        <time>2019-06-22T17:05:26Z</time>
      </trkpt>
      <trkpt lat="40.863109" lon="-6.961845">
        <ele>681.717</ele>
        <time>2019-06-22T17:05:27Z</time>
      </trkpt>
      <trkpt lat="40.862954" lon="-6.961616">
        <ele>680.708</ele>
        <time>2019-06-22T17:05:28Z</time>
      </trkpt>
      <trkpt lat="40.862802" lon="-6.961386">
        <ele>679.194</ele>
        <time>2019-06-22T17:05:29Z</time>
      </trkpt>
      <trkpt lat="40.862663" lon="-6.961179">
        <ele>677.398</ele>
        <time>2019-06-22T17:05:30Z</time>
      </trkpt>
      <trkpt lat="40.862515" lon="-6.960957">
        <ele>676.220</ele>
        <time>2019-06-22T17:05:31Z</time>
      </trkpt>
      <trkpt lat="40.862373" lon="-6.960733">
        <ele>674.442</ele>
        <time>2019-06-22T17:05:32Z</time>
      </trkpt>
      <trkpt lat="40.862226" lon="-6.960509">
        <ele>673.950</ele>
        <time>2019-06-22T17:05:33Z</time>
      </trkpt>
      <trkpt lat="40.862077" lon="-6.960280">
        <ele>673.569</ele>
        <time>2019-06-22T17:05:34Z</time>
      </trkpt>
      <trkpt lat="40.861937" lon="-6.960051">
        <ele>673.544</ele>
        <time>2019-06-22T17:05:35Z</time>
      </trkpt>
      <trkpt lat="40.861792" lon="-6.959819">
        <ele>674.097</ele>
        <time>2019-06-22T17:05:36Z</time>
      </trkpt>
      <trkpt lat="40.861641" lon="-6.959570">
        <ele>675.381</ele>
        <time>2019-06-22T17:05:37Z</time>
      </trkpt>
      <trkpt lat="40.861485" lon="-6.959320">
        <ele>675.361</ele>
        <time>2019-06-22T17:05:38Z</time>
      </trkpt>
      <trkpt lat="40.861341" lon="-6.959076">
        <ele>675.317</ele>
        <time>2019-06-22T17:05:39Z</time>
      </trkpt>
      <trkpt lat="40.861181" lon="-6.958845">
        <ele>675.208</ele>
        <time>2019-06-22T17:05:40Z</time>
      </trkpt>
      <trkpt lat="40.861020" lon="-6.958593">
        <ele>674.761</ele>
        <time>2019-06-22T17:05:41Z</time>
      </trkpt>
      <trkpt lat="40.860861" lon="-6.958355">
        <ele>673.145</ele>
        <time>2019-06-22T17:05:42Z</time>
      </trkpt>
      <trkpt lat="40.860717" lon="-6.958131">
        <ele>672.667</ele>
        <time>2019-06-22T17:05:43Z</time>
      </trkpt>
      <trkpt lat="40.860580" lon="-6.957887">
        <ele>671.919</ele>
        <time>2019-06-22T17:05:44Z</time>
      </trkpt>
      <trkpt lat="40.860446" lon="-6.957659">
        <ele>670.957</ele>
        <time>2019-06-22T17:05:45Z</time>
      </trkpt>
      <trkpt lat="40.860309" lon="-6.957445">
        <ele>670.916</ele>
        <time>2019-06-22T17:05:46Z</time>
      </trkpt>
      <trkpt lat="40.860159" lon="-6.957251">
        <ele>669.111</ele>
        <time>2019-06-22T17:05:47Z</time>
      </trkpt>
      <trkpt lat="40.860017" lon="-6.957054">
        <ele>668.334</ele>
        <time>2019-06-22T17:05:48Z</time>
      </trkpt>
      <trkpt lat="40.859882" lon="-6.956869">
        <ele>667.365</ele>
        <time>2019-06-22T17:05:49Z</time>
      </trkpt>
      <trkpt lat="40.859733" lon="-6.956702">
        <ele>665.968</ele>
        <time>2019-06-22T17:05:50Z</time>
      </trkpt>
      <trkpt lat="40.859556" lon="-6.956546">
        <ele>665.814</ele>
        <time>2019-06-22T17:05:51Z</time>
      </trkpt>
      <trkpt lat="40.859376" lon="-6.956409">
        <ele>665.808</ele>
        <time>2019-06-22T17:05:52Z</time>
      </trkpt>
      <trkpt lat="40.859190" lon="-6.956276">
        <ele>665.829</ele>
        <time>2019-06-22T17:05:53Z</time>
      </trkpt>
      <trkpt lat="40.858996" lon="-6.956163">
        <ele>666.283</ele>
        <time>2019-06-22T17:05:54Z</time>
      </trkpt>
      <trkpt lat="40.858788" lon="-6.956049">
        <ele>666.225</ele>
        <time>2019-06-22T17:05:55Z</time>
      </trkpt>
      <trkpt lat="40.858579" lon="-6.955932">
        <ele>667.797</ele>
        <time>2019-06-22T17:05:56Z</time>
      </trkpt>
      <trkpt lat="40.858377" lon="-6.955806">
        <ele>667.825</ele>
        <time>2019-06-22T17:05:57Z</time>
      </trkpt>
      <trkpt lat="40.858161" lon="-6.955687">
        <ele>667.914</ele>
        <time>2019-06-22T17:05:58Z</time>
      </trkpt>
      <trkpt lat="40.857946" lon="-6.955564">
        <ele>668.129</ele>
        <time>2019-06-22T17:05:59Z</time>
      </trkpt>
      <trkpt lat="40.857731" lon="-6.955441">
        <ele>668.162</ele>
        <time>2019-06-22T17:06:00Z</time>
      </trkpt>
      <trkpt lat="40.857509" lon="-6.955318">
        <ele>666.692</ele>
        <time>2019-06-22T17:06:01Z</time>
      </trkpt>
      <trkpt lat="40.857294" lon="-6.955204">
        <ele>665.073</ele>
        <time>2019-06-22T17:06:02Z</time>
      </trkpt>
      <trkpt lat="40.857074" lon="-6.955087">
        <ele>663.120</ele>
        <time>2019-06-22T17:06:03Z</time>
      </trkpt>
      <trkpt lat="40.856865" lon="-6.954961">
        <ele>661.408</ele>
        <time>2019-06-22T17:06:04Z</time>
      </trkpt>
      <trkpt lat="40.856656" lon="-6.954836">
        <ele>659.832</ele>
        <time>2019-06-22T17:06:05Z</time>
      </trkpt>
      <trkpt lat="40.856446" lon="-6.954707">
        <ele>658.236</ele>
        <time>2019-06-22T17:06:06Z</time>
      </trkpt>
      <trkpt lat="40.856243" lon="-6.954585">
        <ele>655.968</ele>
        <time>2019-06-22T17:06:07Z</time>
      </trkpt>
      <trkpt lat="40.856037" lon="-6.954460">
        <ele>654.210</ele>
        <time>2019-06-22T17:06:08Z</time>
      </trkpt>
      <trkpt lat="40.855830" lon="-6.954328">
        <ele>652.678</ele>
        <time>2019-06-22T17:06:09Z</time>
      </trkpt>
      <trkpt lat="40.855618" lon="-6.954209">
        <ele>652.337</ele>
        <time>2019-06-22T17:06:10Z</time>
      </trkpt>
      <trkpt lat="40.855411" lon="-6.954088">
        <ele>652.352</ele>
        <time>2019-06-22T17:06:11Z</time>
      </trkpt>
      <trkpt lat="40.855218" lon="-6.953970">
        <ele>652.515</ele>
        <time>2019-06-22T17:06:12Z</time>
      </trkpt>
      <trkpt lat="40.855008" lon="-6.953865">
        <ele>652.946</ele>
        <time>2019-06-22T17:06:13Z</time>
      </trkpt>
      <trkpt lat="40.854792" lon="-6.953777">
        <ele>653.188</ele>
        <time>2019-06-22T17:06:14Z</time>
      </trkpt>
      <trkpt lat="40.854562" lon="-6.953714">
        <ele>653.116</ele>
        <time>2019-06-22T17:06:15Z</time>
      </trkpt>
      <trkpt lat="40.854330" lon="-6.953676">
        <ele>653.108</ele>
        <time>2019-06-22T17:06:16Z</time>
      </trkpt>
      <trkpt lat="40.854089" lon="-6.953651">
        <ele>653.697</ele>
        <time>2019-06-22T17:06:17Z</time>
      </trkpt>
      <trkpt lat="40.853845" lon="-6.953622">
        <ele>654.381</ele>
        <time>2019-06-22T17:06:18Z</time>
      </trkpt>
      <trkpt lat="40.853612" lon="-6.953590">
        <ele>654.833</ele>
        <time>2019-06-22T17:06:19Z</time>
      </trkpt>
      <trkpt lat="40.853374" lon="-6.953566">
        <ele>655.665</ele>
        <time>2019-06-22T17:06:20Z</time>
      </trkpt>
      <trkpt lat="40.853140" lon="-6.953556">
        <ele>656.153</ele>
        <time>2019-06-22T17:06:21Z</time>
      </trkpt>
      <trkpt lat="40.852906" lon="-6.953534">
        <ele>656.232</ele>
        <time>2019-06-22T17:06:22Z</time>
      </trkpt>
      <trkpt lat="40.852669" lon="-6.953506">
        <ele>656.147</ele>
        <time>2019-06-22T17:06:23Z</time>
      </trkpt>
      <trkpt lat="40.852438" lon="-6.953475">
        <ele>655.490</ele>
        <time>2019-06-22T17:06:24Z</time>
      </trkpt>
      <trkpt lat="40.852214" lon="-6.953438">
        <ele>654.835</ele>
        <time>2019-06-22T17:06:25Z</time>
      </trkpt>
      <trkpt lat="40.851996" lon="-6.953411">
        <ele>654.386</ele>
        <time>2019-06-22T17:06:26Z</time>
      </trkpt>
      <trkpt lat="40.851765" lon="-6.953386">
        <ele>653.514</ele>
        <time>2019-06-22T17:06:27Z</time>
      </trkpt>
      <trkpt lat="40.851532" lon="-6.953365">
        <ele>653.008</ele>
        <time>2019-06-22T17:06:28Z</time>
      </trkpt>
      <trkpt lat="40.851302" lon="-6.953332">
        <ele>652.716</ele>
        <time>2019-06-22T17:06:29Z</time>
      </trkpt>
      <trkpt lat="40.851067" lon="-6.953300">
        <ele>652.280</ele>
        <time>2019-06-22T17:06:30Z</time>
      </trkpt>
      <trkpt lat="40.850824" lon="-6.953275">
        <ele>651.162</ele>
        <time>2019-06-22T17:06:31Z</time>
      </trkpt>
      <trkpt lat="40.850579" lon="-6.953236">
        <ele>650.984</ele>
        <time>2019-06-22T17:06:32Z</time>
      </trkpt>
      <trkpt lat="40.850336" lon="-6.953206">
        <ele>649.512</ele>
        <time>2019-06-22T17:06:33Z</time>
      </trkpt>
      <trkpt lat="40.850090" lon="-6.953171">
        <ele>648.351</ele>
        <time>2019-06-22T17:06:34Z</time>
      </trkpt>
      <trkpt lat="40.849841" lon="-6.953149">
        <ele>647.066</ele>
        <time>2019-06-22T17:06:35Z</time>
      </trkpt>
      <trkpt lat="40.849592" lon="-6.953118">
        <ele>645.639</ele>
        <time>2019-06-22T17:06:36Z</time>
      </trkpt>
      <trkpt lat="40.849349" lon="-6.953080">
        <ele>643.676</ele>
        <time>2019-06-22T17:06:37Z</time>
      </trkpt>
      <trkpt lat="40.849097" lon="-6.953039">
        <ele>642.690</ele>
        <time>2019-06-22T17:06:38Z</time>
      </trkpt>
      <trkpt lat="40.848850" lon="-6.953004">
        <ele>642.419</ele>
        <time>2019-06-22T17:06:39Z</time>
      </trkpt>
      <trkpt lat="40.848599" lon="-6.952956">
        <ele>641.808</ele>
        <time>2019-06-22T17:06:40Z</time>
      </trkpt>
      <trkpt lat="40.848351" lon="-6.952890">
        <ele>641.360</ele>
        <time>2019-06-22T17:06:41Z</time>
      </trkpt>
      <trkpt lat="40.848103" lon="-6.952812">
        <ele>641.234</ele>
        <time>2019-06-22T17:06:42Z</time>
      </trkpt>
      <trkpt lat="40.847860" lon="-6.952714">
        <ele>640.496</ele>
        <time>2019-06-22T17:06:43Z</time>
      </trkpt>
      <trkpt lat="40.847616" lon="-6.952614">
        <ele>639.428</ele>
        <time>2019-06-22T17:06:44Z</time>
      </trkpt>
      <trkpt lat="40.847376" lon="-6.952498">
        <ele>639.196</ele>
        <time>2019-06-22T17:06:45Z</time>
      </trkpt>
      <trkpt lat="40.847129" lon="-6.952399">
        <ele>638.895</ele>
        <time>2019-06-22T17:06:46Z</time>
      </trkpt>
      <trkpt lat="40.846884" lon="-6.952296">
        <ele>638.820</ele>
        <time>2019-06-22T17:06:47Z</time>
      </trkpt>
      <trkpt lat="40.846650" lon="-6.952195">
        <ele>639.023</ele>
        <time>2019-06-22T17:06:48Z</time>
      </trkpt>
      <trkpt lat="40.846403" lon="-6.952073">
        <ele>639.822</ele>
        <time>2019-06-22T17:06:49Z</time>
      </trkpt>
      <trkpt lat="40.846165" lon="-6.951984">
        <ele>640.062</ele>
        <time>2019-06-22T17:06:50Z</time>
      </trkpt>
      <trkpt lat="40.845921" lon="-6.951896">
        <ele>640.008</ele>
        <time>2019-06-22T17:06:51Z</time>
      </trkpt>
      <trkpt lat="40.845673" lon="-6.951804">
        <ele>640.308</ele>
        <time>2019-06-22T17:06:52Z</time>
      </trkpt>
      <trkpt lat="40.845433" lon="-6.951698">
        <ele>641.925</ele>
        <time>2019-06-22T17:06:53Z</time>
      </trkpt>
      <trkpt lat="40.845222" lon="-6.951567">
        <ele>641.929</ele>
        <time>2019-06-22T17:06:54Z</time>
      </trkpt>
      <trkpt lat="40.844989" lon="-6.951478">
        <ele>642.061</ele>
        <time>2019-06-22T17:06:55Z</time>
      </trkpt>
      <trkpt lat="40.844755" lon="-6.951396">
        <ele>642.563</ele>
        <time>2019-06-22T17:06:56Z</time>
      </trkpt>
      <trkpt lat="40.844535" lon="-6.951294">
        <ele>642.741</ele>
        <time>2019-06-22T17:06:57Z</time>
      </trkpt>
      <trkpt lat="40.844314" lon="-6.951196">
        <ele>643.210</ele>
        <time>2019-06-22T17:06:58Z</time>
      </trkpt>
      <trkpt lat="40.844092" lon="-6.951103">
        <ele>643.775</ele>
        <time>2019-06-22T17:06:59Z</time>
      </trkpt>
      <trkpt lat="40.843865" lon="-6.951030">
        <ele>644.988</ele>
        <time>2019-06-22T17:07:00Z</time>
      </trkpt>
      <trkpt lat="40.843643" lon="-6.950942">
        <ele>646.276</ele>
        <time>2019-06-22T17:07:01Z</time>
      </trkpt>
      <trkpt lat="40.843418" lon="-6.950856">
        <ele>647.590</ele>
        <time>2019-06-22T17:07:02Z</time>
      </trkpt>
      <trkpt lat="40.843195" lon="-6.950781">
        <ele>648.319</ele>
        <time>2019-06-22T17:07:03Z</time>
      </trkpt>
      <trkpt lat="40.842989" lon="-6.950691">
        <ele>649.208</ele>
        <time>2019-06-22T17:07:04Z</time>
      </trkpt>
      <trkpt lat="40.842766" lon="-6.950608">
        <ele>650.120</ele>
        <time>2019-06-22T17:07:05Z</time>
      </trkpt>
      <trkpt lat="40.842555" lon="-6.950505">
        <ele>651.184</ele>
        <time>2019-06-22T17:07:06Z</time>
      </trkpt>
      <trkpt lat="40.842342" lon="-6.950393">
        <ele>651.546</ele>
        <time>2019-06-22T17:07:07Z</time>
      </trkpt>
      <trkpt lat="40.842117" lon="-6.950302">
        <ele>652.148</ele>
        <time>2019-06-22T17:07:08Z</time>
      </trkpt>
      <trkpt lat="40.841896" lon="-6.950200">
        <ele>652.176</ele>
        <time>2019-06-22T17:07:09Z</time>
      </trkpt>
      <trkpt lat="40.841708" lon="-6.950104">
        <ele>651.715</ele>
        <time>2019-06-22T17:07:10Z</time>
      </trkpt>
      <trkpt lat="40.841503" lon="-6.950011">
        <ele>650.840</ele>
        <time>2019-06-22T17:07:11Z</time>
      </trkpt>
      <trkpt lat="40.841294" lon="-6.949906">
        <ele>648.993</ele>
        <time>2019-06-22T17:07:12Z</time>
      </trkpt>
      <trkpt lat="40.841075" lon="-6.949804">
        <ele>646.955</ele>
        <time>2019-06-22T17:07:13Z</time>
      </trkpt>
      <trkpt lat="40.840866" lon="-6.949718">
        <ele>645.307</ele>
        <time>2019-06-22T17:07:14Z</time>
      </trkpt>
      <trkpt lat="40.840650" lon="-6.949641">
        <ele>644.417</ele>
        <time>2019-06-22T17:07:15Z</time>
      </trkpt>
      <trkpt lat="40.840423" lon="-6.949573">
        <ele>642.908</ele>
        <time>2019-06-22T17:07:16Z</time>
      </trkpt>
      <trkpt lat="40.840195" lon="-6.949519">
        <ele>642.518</ele>
        <time>2019-06-22T17:07:17Z</time>
      </trkpt>
      <trkpt lat="40.839962" lon="-6.949477">
        <ele>642.562</ele>
        <time>2019-06-22T17:07:18Z</time>
      </trkpt>
      <trkpt lat="40.839721" lon="-6.949443">
        <ele>643.014</ele>
        <time>2019-06-22T17:07:19Z</time>
      </trkpt>
      <trkpt lat="40.839479" lon="-6.949407">
        <ele>643.126</ele>
        <time>2019-06-22T17:07:20Z</time>
      </trkpt>
      <trkpt lat="40.839228" lon="-6.949355">
        <ele>643.374</ele>
        <time>2019-06-22T17:07:21Z</time>
      </trkpt>
      <trkpt lat="40.838981" lon="-6.949322">
        <ele>643.393</ele>
        <time>2019-06-22T17:07:22Z</time>
      </trkpt>
      <trkpt lat="40.838740" lon="-6.949284">
        <ele>642.638</ele>
        <time>2019-06-22T17:07:23Z</time>
      </trkpt>
      <trkpt lat="40.838506" lon="-6.949247">
        <ele>641.941</ele>
        <time>2019-06-22T17:07:24Z</time>
      </trkpt>
      <trkpt lat="40.838265" lon="-6.949225">
        <ele>640.326</ele>
        <time>2019-06-22T17:07:25Z</time>
      </trkpt>
      <trkpt lat="40.838040" lon="-6.949195">
        <ele>639.347</ele>
        <time>2019-06-22T17:07:26Z</time>
      </trkpt>
      <trkpt lat="40.837842" lon="-6.949169">
        <ele>637.911</ele>
        <time>2019-06-22T17:07:27Z</time>
      </trkpt>
      <trkpt lat="40.837631" lon="-6.949165">
        <ele>637.508</ele>
        <time>2019-06-22T17:07:28Z</time>
      </trkpt>
      <trkpt lat="40.837428" lon="-6.949141">
        <ele>636.885</ele>
        <time>2019-06-22T17:07:29Z</time>
      </trkpt>
      <trkpt lat="40.837227" lon="-6.949110">
        <ele>636.499</ele>
        <time>2019-06-22T17:07:30Z</time>
      </trkpt>
      <trkpt lat="40.837023" lon="-6.949074">
        <ele>635.031</ele>
        <time>2019-06-22T17:07:31Z</time>
      </trkpt>
      <trkpt lat="40.836825" lon="-6.949045">
        <ele>633.243</ele>
        <time>2019-06-22T17:07:32Z</time>
      </trkpt>
      <trkpt lat="40.836627" lon="-6.949018">
        <ele>630.441</ele>
        <time>2019-06-22T17:07:33Z</time>
      </trkpt>
      <trkpt lat="40.836418" lon="-6.949021">
        <ele>627.440</ele>
        <time>2019-06-22T17:07:34Z</time>
      </trkpt>
      <trkpt lat="40.836205" lon="-6.949019">
        <ele>625.665</ele>
        <time>2019-06-22T17:07:35Z</time>
      </trkpt>
      <trkpt lat="40.835997" lon="-6.949047">
        <ele>624.888</ele>
        <time>2019-06-22T17:07:36Z</time>
      </trkpt>
      <trkpt lat="40.835788" lon="-6.949096">
        <ele>624.217</ele>
        <time>2019-06-22T17:07:37Z</time>
      </trkpt>
      <trkpt lat="40.835567" lon="-6.949159">
        <ele>624.287</ele>
        <time>2019-06-22T17:07:38Z</time>
      </trkpt>
      <trkpt lat="40.835358" lon="-6.949229">
        <ele>624.215</ele>
        <time>2019-06-22T17:07:39Z</time>
      </trkpt>
      <trkpt lat="40.835137" lon="-6.949310">
        <ele>623.908</ele>
        <time>2019-06-22T17:07:40Z</time>
      </trkpt>
      <trkpt lat="40.834909" lon="-6.949391">
        <ele>623.074</ele>
        <time>2019-06-22T17:07:41Z</time>
      </trkpt>
      <trkpt lat="40.834681" lon="-6.949465">
        <ele>622.388</ele>
        <time>2019-06-22T17:07:42Z</time>
      </trkpt>
      <trkpt lat="40.834460" lon="-6.949541">
        <ele>622.390</ele>
        <time>2019-06-22T17:07:43Z</time>
      </trkpt>
      <trkpt lat="40.834233" lon="-6.949630">
        <ele>622.332</ele>
        <time>2019-06-22T17:07:44Z</time>
      </trkpt>
      <trkpt lat="40.833999" lon="-6.949715">
        <ele>622.350</ele>
        <time>2019-06-22T17:07:45Z</time>
      </trkpt>
      <trkpt lat="40.833770" lon="-6.949797">
        <ele>622.869</ele>
        <time>2019-06-22T17:07:46Z</time>
      </trkpt>
      <trkpt lat="40.833561" lon="-6.949878">
        <ele>623.624</ele>
        <time>2019-06-22T17:07:47Z</time>
      </trkpt>
      <trkpt lat="40.833338" lon="-6.949954">
        <ele>623.737</ele>
        <time>2019-06-22T17:07:48Z</time>
      </trkpt>
      <trkpt lat="40.833126" lon="-6.950038">
        <ele>623.983</ele>
        <time>2019-06-22T17:07:49Z</time>
      </trkpt>
      <trkpt lat="40.832906" lon="-6.950098">
        <ele>623.925</ele>
        <time>2019-06-22T17:07:50Z</time>
      </trkpt>
      <trkpt lat="40.832676" lon="-6.950179">
        <ele>623.817</ele>
        <time>2019-06-22T17:07:51Z</time>
      </trkpt>
      <trkpt lat="40.832453" lon="-6.950239">
        <ele>623.408</ele>
        <time>2019-06-22T17:07:52Z</time>
      </trkpt>
      <trkpt lat="40.832234" lon="-6.950298">
        <ele>623.421</ele>
        <time>2019-06-22T17:07:53Z</time>
      </trkpt>
      <trkpt lat="40.832014" lon="-6.950375">
        <ele>623.725</ele>
        <time>2019-06-22T17:07:54Z</time>
      </trkpt>
      <trkpt lat="40.831808" lon="-6.950442">
        <ele>623.737</ele>
        <time>2019-06-22T17:07:55Z</time>
      </trkpt>
      <trkpt lat="40.831588" lon="-6.950524">
        <ele>624.359</ele>
        <time>2019-06-22T17:07:56Z</time>
      </trkpt>
      <trkpt lat="40.831375" lon="-6.950597">
        <ele>624.517</ele>
        <time>2019-06-22T17:07:57Z</time>
      </trkpt>
      <trkpt lat="40.831166" lon="-6.950674">
        <ele>624.526</ele>
        <time>2019-06-22T17:07:58Z</time>
      </trkpt>
      <trkpt lat="40.830963" lon="-6.950748">
        <ele>624.811</ele>
        <time>2019-06-22T17:07:59Z</time>
      </trkpt>
      <trkpt lat="40.830757" lon="-6.950831">
        <ele>626.144</ele>
        <time>2019-06-22T17:08:00Z</time>
      </trkpt>
      <trkpt lat="40.830577" lon="-6.950863">
        <ele>626.441</ele>
        <time>2019-06-22T17:08:01Z</time>
      </trkpt>
      <trkpt lat="40.830396" lon="-6.950933">
        <ele>627.481</ele>
        <time>2019-06-22T17:08:02Z</time>
      </trkpt>
      <trkpt lat="40.830233" lon="-6.950958">
        <ele>629.509</ele>
        <time>2019-06-22T17:08:03Z</time>
      </trkpt>
      <trkpt lat="40.830070" lon="-6.950968">
        <ele>630.708</ele>
        <time>2019-06-22T17:08:04Z</time>
      </trkpt>
      <trkpt lat="40.829926" lon="-6.951006">
        <ele>631.167</ele>
        <time>2019-06-22T17:08:05Z</time>
      </trkpt>
      <trkpt lat="40.829770" lon="-6.951027">
        <ele>632.071</ele>
        <time>2019-06-22T17:08:06Z</time>
      </trkpt>
      <trkpt lat="40.829609" lon="-6.951041">
        <ele>633.873</ele>
        <time>2019-06-22T17:08:07Z</time>
      </trkpt>
      <trkpt lat="40.829456" lon="-6.951066">
        <ele>633.895</ele>
        <time>2019-06-22T17:08:08Z</time>
      </trkpt>
      <trkpt lat="40.829289" lon="-6.951078">
        <ele>633.973</ele>
        <time>2019-06-22T17:08:09Z</time>
      </trkpt>
      <trkpt lat="40.829126" lon="-6.951110">
        <ele>633.862</ele>
        <time>2019-06-22T17:08:10Z</time>
      </trkpt>
      <trkpt lat="40.828969" lon="-6.951145">
        <ele>633.967</ele>
        <time>2019-06-22T17:08:11Z</time>
      </trkpt>
      <trkpt lat="40.828818" lon="-6.951181">
        <ele>634.220</ele>
        <time>2019-06-22T17:08:12Z</time>
      </trkpt>
      <trkpt lat="40.828704" lon="-6.951189">
        <ele>635.177</ele>
        <time>2019-06-22T17:08:13Z</time>
      </trkpt>
      <trkpt lat="40.828582" lon="-6.951221">
        <ele>637.261</ele>
        <time>2019-06-22T17:08:14Z</time>
      </trkpt>
      <trkpt lat="40.828463" lon="-6.951245">
        <ele>638.027</ele>
        <time>2019-06-22T17:08:15Z</time>
      </trkpt>
      <trkpt lat="40.828360" lon="-6.951273">
        <ele>638.908</ele>
        <time>2019-06-22T17:08:16Z</time>
      </trkpt>
      <trkpt lat="40.828261" lon="-6.951293">
        <ele>639.630</ele>
        <time>2019-06-22T17:08:17Z</time>
      </trkpt>
      <trkpt lat="40.828143" lon="-6.951302">
        <ele>640.144</ele>
        <time>2019-06-22T17:08:18Z</time>
      </trkpt>
      <trkpt lat="40.828032" lon="-6.951298">
        <ele>640.916</ele>
        <time>2019-06-22T17:08:19Z</time>
      </trkpt>
      <trkpt lat="40.827913" lon="-6.951300">
        <ele>641.658</ele>
        <time>2019-06-22T17:08:20Z</time>
      </trkpt>
      <trkpt lat="40.827796" lon="-6.951306">
        <ele>642.026</ele>
        <time>2019-06-22T17:08:21Z</time>
      </trkpt>
      <trkpt lat="40.827692" lon="-6.951313">
        <ele>642.285</ele>
        <time>2019-06-22T17:08:22Z</time>
      </trkpt>
      <trkpt lat="40.827586" lon="-6.951309">
        <ele>642.350</ele>
        <time>2019-06-22T17:08:23Z</time>
      </trkpt>
      <trkpt lat="40.827477" lon="-6.951320">
        <ele>642.363</ele>
        <time>2019-06-22T17:08:24Z</time>
      </trkpt>
      <trkpt lat="40.827351" lon="-6.951333">
        <ele>642.336</ele>
        <time>2019-06-22T17:08:25Z</time>
      </trkpt>
      <trkpt lat="40.827220" lon="-6.951336">
        <ele>642.217</ele>
        <time>2019-06-22T17:08:26Z</time>
      </trkpt>
      <trkpt lat="40.827096" lon="-6.951347">
        <ele>641.918</ele>
        <time>2019-06-22T17:08:27Z</time>
      </trkpt>
      <trkpt lat="40.826962" lon="-6.951383">
        <ele>641.508</ele>
        <time>2019-06-22T17:08:28Z</time>
      </trkpt>
      <trkpt lat="40.826820" lon="-6.951433">
        <ele>640.816</ele>
        <time>2019-06-22T17:08:29Z</time>
      </trkpt>
      <trkpt lat="40.826684" lon="-6.951481">
        <ele>640.440</ele>
        <time>2019-06-22T17:08:30Z</time>
      </trkpt>
      <trkpt lat="40.826556" lon="-6.951521">
        <ele>640.182</ele>
        <time>2019-06-22T17:08:31Z</time>
      </trkpt>
      <trkpt lat="40.826431" lon="-6.951582">
        <ele>640.084</ele>
        <time>2019-06-22T17:08:32Z</time>
      </trkpt>
      <trkpt lat="40.826300" lon="-6.951644">
        <ele>639.262</ele>
        <time>2019-06-22T17:08:33Z</time>
      </trkpt>
      <trkpt lat="40.826175" lon="-6.951692">
        <ele>638.491</ele>
        <time>2019-06-22T17:08:34Z</time>
      </trkpt>
      <trkpt lat="40.826056" lon="-6.951750">
        <ele>637.616</ele>
        <time>2019-06-22T17:08:35Z</time>
      </trkpt>
      <trkpt lat="40.825946" lon="-6.951797">
        <ele>636.749</ele>
        <time>2019-06-22T17:08:36Z</time>
      </trkpt>
      <trkpt lat="40.825834" lon="-6.951829">
        <ele>635.245</ele>
        <time>2019-06-22T17:08:37Z</time>
      </trkpt>
      <trkpt lat="40.825726" lon="-6.951872">
        <ele>634.447</ele>
        <time>2019-06-22T17:08:38Z</time>
      </trkpt>
      <trkpt lat="40.825633" lon="-6.951935">
        <ele>634.411</ele>
        <time>2019-06-22T17:08:39Z</time>
      </trkpt>
      <trkpt lat="40.825537" lon="-6.951989">
        <ele>634.408</ele>
        <time>2019-06-22T17:08:40Z</time>
      </trkpt>
      <trkpt lat="40.825439" lon="-6.952038">
        <ele>634.217</ele>
        <time>2019-06-22T17:08:41Z</time>
      </trkpt>
      <trkpt lat="40.825343" lon="-6.952091">
        <ele>634.251</ele>
        <time>2019-06-22T17:08:42Z</time>
      </trkpt>
      <trkpt lat="40.825247" lon="-6.952128">
        <ele>634.243</ele>
        <time>2019-06-22T17:08:43Z</time>
      </trkpt>
      <trkpt lat="40.825155" lon="-6.952179">
        <ele>634.235</ele>
        <time>2019-06-22T17:08:44Z</time>
      </trkpt>
      <trkpt lat="40.825042" lon="-6.952225">
        <ele>633.763</ele>
        <time>2019-06-22T17:08:45Z</time>
      </trkpt>
      <trkpt lat="40.824917" lon="-6.952269">
        <ele>633.142</ele>
        <time>2019-06-22T17:08:46Z</time>
      </trkpt>
      <trkpt lat="40.824780" lon="-6.952327">
        <ele>632.997</ele>
        <time>2019-06-22T17:08:47Z</time>
      </trkpt>
      <trkpt lat="40.824646" lon="-6.952394">
        <ele>632.370</ele>
        <time>2019-06-22T17:08:48Z</time>
      </trkpt>
      <trkpt lat="40.824482" lon="-6.952460">
        <ele>630.952</ele>
        <time>2019-06-22T17:08:49Z</time>
      </trkpt>
      <trkpt lat="40.824318" lon="-6.952524">
        <ele>630.453</ele>
        <time>2019-06-22T17:08:50Z</time>
      </trkpt>
      <trkpt lat="40.824154" lon="-6.952603">
        <ele>630.008</ele>
        <time>2019-06-22T17:08:51Z</time>
      </trkpt>
      <trkpt lat="40.823975" lon="-6.952675">
        <ele>629.108</ele>
        <time>2019-06-22T17:08:52Z</time>
      </trkpt>
      <trkpt lat="40.823807" lon="-6.952749">
        <ele>629.148</ele>
        <time>2019-06-22T17:08:53Z</time>
      </trkpt>
      <trkpt lat="40.823632" lon="-6.952843">
        <ele>629.142</ele>
        <time>2019-06-22T17:08:54Z</time>
      </trkpt>
      <trkpt lat="40.823457" lon="-6.952920">
        <ele>629.134</ele>
        <time>2019-06-22T17:08:55Z</time>
      </trkpt>
      <trkpt lat="40.823291" lon="-6.952984">
        <ele>629.116</ele>
        <time>2019-06-22T17:08:56Z</time>
      </trkpt>
      <trkpt lat="40.823142" lon="-6.953059">
        <ele>629.164</ele>
        <time>2019-06-22T17:08:57Z</time>
      </trkpt>
      <trkpt lat="40.822989" lon="-6.953138">
        <ele>630.353</ele>
        <time>2019-06-22T17:08:58Z</time>
      </trkpt>
      <trkpt lat="40.822848" lon="-6.953197">
        <ele>630.318</ele>
        <time>2019-06-22T17:08:59Z</time>
      </trkpt>
      <trkpt lat="40.822693" lon="-6.953236">
        <ele>630.331</ele>
        <time>2019-06-22T17:09:00Z</time>
      </trkpt>
      <trkpt lat="40.822550" lon="-6.953284">
        <ele>630.326</ele>
        <time>2019-06-22T17:09:01Z</time>
      </trkpt>
      <trkpt lat="40.822416" lon="-6.953254">
        <ele>630.347</ele>
        <time>2019-06-22T17:09:02Z</time>
      </trkpt>
      <trkpt lat="40.822254" lon="-6.953216">
        <ele>630.411</ele>
        <time>2019-06-22T17:09:03Z</time>
      </trkpt>
      <trkpt lat="40.822082" lon="-6.953166">
        <ele>630.408</ele>
        <time>2019-06-22T17:09:04Z</time>
      </trkpt>
      <trkpt lat="40.821966" lon="-6.953095">
        <ele>630.455</ele>
        <time>2019-06-22T17:09:05Z</time>
      </trkpt>
      <trkpt lat="40.821820" lon="-6.953054">
        <ele>630.979</ele>
        <time>2019-06-22T17:09:06Z</time>
      </trkpt>
      <trkpt lat="40.821669" lon="-6.953016">
        <ele>631.431</ele>
        <time>2019-06-22T17:09:07Z</time>
      </trkpt>
      <trkpt lat="40.821553" lon="-6.952998">
        <ele>631.573</ele>
        <time>2019-06-22T17:09:08Z</time>
      </trkpt>
      <trkpt lat="40.821419" lon="-6.952970">
        <ele>631.791</ele>
        <time>2019-06-22T17:09:09Z</time>
      </trkpt>
      <trkpt lat="40.821283" lon="-6.952971">
        <ele>631.780</ele>
        <time>2019-06-22T17:09:10Z</time>
      </trkpt>
      <trkpt lat="40.821134" lon="-6.952970">
        <ele>631.785</ele>
        <time>2019-06-22T17:09:11Z</time>
      </trkpt>
      <trkpt lat="40.820987" lon="-6.952953">
        <ele>631.628</ele>
        <time>2019-06-22T17:09:12Z</time>
      </trkpt>
      <trkpt lat="40.820820" lon="-6.952934">
        <ele>631.319</ele>
        <time>2019-06-22T17:09:13Z</time>
      </trkpt>
      <trkpt lat="40.820642" lon="-6.952905">
        <ele>630.609</ele>
        <time>2019-06-22T17:09:14Z</time>
      </trkpt>
      <trkpt lat="40.820459" lon="-6.952872">
        <ele>630.319</ele>
        <time>2019-06-22T17:09:15Z</time>
      </trkpt>
      <trkpt lat="40.820265" lon="-6.952842">
        <ele>629.308</ele>
        <time>2019-06-22T17:09:16Z</time>
      </trkpt>
      <trkpt lat="40.820073" lon="-6.952814">
        <ele>627.854</ele>
        <time>2019-06-22T17:09:17Z</time>
      </trkpt>
      <trkpt lat="40.819871" lon="-6.952803">
        <ele>626.648</ele>
        <time>2019-06-22T17:09:18Z</time>
      </trkpt>
      <trkpt lat="40.819680" lon="-6.952776">
        <ele>625.860</ele>
        <time>2019-06-22T17:09:19Z</time>
      </trkpt>
      <trkpt lat="40.819479" lon="-6.952757">
        <ele>624.752</ele>
        <time>2019-06-22T17:09:20Z</time>
      </trkpt>
      <trkpt lat="40.819265" lon="-6.952736">
        <ele>624.280</ele>
        <time>2019-06-22T17:09:21Z</time>
      </trkpt>
      <trkpt lat="40.819058" lon="-6.952723">
        <ele>623.479</ele>
        <time>2019-06-22T17:09:22Z</time>
      </trkpt>
      <trkpt lat="40.818856" lon="-6.952708">
        <ele>622.984</ele>
        <time>2019-06-22T17:09:23Z</time>
      </trkpt>
      <trkpt lat="40.818656" lon="-6.952689">
        <ele>621.877</ele>
        <time>2019-06-22T17:09:24Z</time>
      </trkpt>
      <trkpt lat="40.818442" lon="-6.952657">
        <ele>621.171</ele>
        <time>2019-06-22T17:09:25Z</time>
      </trkpt>
      <trkpt lat="40.818259" lon="-6.952627">
        <ele>620.341</ele>
        <time>2019-06-22T17:09:26Z</time>
      </trkpt>
      <trkpt lat="40.818052" lon="-6.952602">
        <ele>619.515</ele>
        <time>2019-06-22T17:09:27Z</time>
      </trkpt>
      <trkpt lat="40.817851" lon="-6.952577">
        <ele>619.408</ele>
        <time>2019-06-22T17:09:28Z</time>
      </trkpt>
      <trkpt lat="40.817639" lon="-6.952551">
        <ele>619.410</ele>
        <time>2019-06-22T17:09:29Z</time>
      </trkpt>
      <trkpt lat="40.817444" lon="-6.952476">
        <ele>620.374</ele>
        <time>2019-06-22T17:09:30Z</time>
      </trkpt>
      <trkpt lat="40.817247" lon="-6.952399">
        <ele>621.156</ele>
        <time>2019-06-22T17:09:31Z</time>
      </trkpt>
      <trkpt lat="40.817054" lon="-6.952299">
        <ele>622.288</ele>
        <time>2019-06-22T17:09:32Z</time>
      </trkpt>
      <trkpt lat="40.816870" lon="-6.952200">
        <ele>623.526</ele>
        <time>2019-06-22T17:09:33Z</time>
      </trkpt>
      <trkpt lat="40.816672" lon="-6.952091">
        <ele>624.215</ele>
        <time>2019-06-22T17:09:34Z</time>
      </trkpt>
      <trkpt lat="40.816480" lon="-6.951993">
        <ele>624.230</ele>
        <time>2019-06-22T17:09:35Z</time>
      </trkpt>
      <trkpt lat="40.816282" lon="-6.951896">
        <ele>624.743</ele>
        <time>2019-06-22T17:09:36Z</time>
      </trkpt>
      <trkpt lat="40.816088" lon="-6.951807">
        <ele>624.781</ele>
        <time>2019-06-22T17:09:37Z</time>
      </trkpt>
      <trkpt lat="40.815889" lon="-6.951704">
        <ele>623.461</ele>
        <time>2019-06-22T17:09:38Z</time>
      </trkpt>
      <trkpt lat="40.815689" lon="-6.951611">
        <ele>622.517</ele>
        <time>2019-06-22T17:09:39Z</time>
      </trkpt>
      <trkpt lat="40.815488" lon="-6.951520">
        <ele>622.208</ele>
        <time>2019-06-22T17:09:40Z</time>
      </trkpt>
      <trkpt lat="40.815284" lon="-6.951429">
        <ele>622.111</ele>
        <time>2019-06-22T17:09:41Z</time>
      </trkpt>
      <trkpt lat="40.815085" lon="-6.951357">
        <ele>621.355</ele>
        <time>2019-06-22T17:09:42Z</time>
      </trkpt>
      <trkpt lat="40.814871" lon="-6.951287">
        <ele>621.377</ele>
        <time>2019-06-22T17:09:43Z</time>
      </trkpt>
      <trkpt lat="40.814659" lon="-6.951237">
        <ele>621.389</ele>
        <time>2019-06-22T17:09:44Z</time>
      </trkpt>
      <trkpt lat="40.814433" lon="-6.951202">
        <ele>621.677</ele>
        <time>2019-06-22T17:09:45Z</time>
      </trkpt>
      <trkpt lat="40.814206" lon="-6.951163">
        <ele>621.976</ele>
        <time>2019-06-22T17:09:46Z</time>
      </trkpt>
      <trkpt lat="40.813980" lon="-6.951117">
        <ele>623.891</ele>
        <time>2019-06-22T17:09:47Z</time>
      </trkpt>
      <trkpt lat="40.813754" lon="-6.951074">
        <ele>625.864</ele>
        <time>2019-06-22T17:09:48Z</time>
      </trkpt>
      <trkpt lat="40.813533" lon="-6.951018">
        <ele>627.681</ele>
        <time>2019-06-22T17:09:49Z</time>
      </trkpt>
      <trkpt lat="40.813309" lon="-6.950971">
        <ele>628.461</ele>
        <time>2019-06-22T17:09:50Z</time>
      </trkpt>
      <trkpt lat="40.813075" lon="-6.950923">
        <ele>629.517</ele>
        <time>2019-06-22T17:09:51Z</time>
      </trkpt>
      <trkpt lat="40.812853" lon="-6.950878">
        <ele>629.508</ele>
        <time>2019-06-22T17:09:52Z</time>
      </trkpt>
      <trkpt lat="40.812625" lon="-6.950826">
        <ele>628.831</ele>
        <time>2019-06-22T17:09:53Z</time>
      </trkpt>
      <trkpt lat="40.812390" lon="-6.950777">
        <ele>628.355</ele>
        <time>2019-06-22T17:09:54Z</time>
      </trkpt>
      <trkpt lat="40.812166" lon="-6.950717">
        <ele>627.857</ele>
        <time>2019-06-22T17:09:55Z</time>
      </trkpt>
      <trkpt lat="40.811931" lon="-6.950666">
        <ele>626.869</ele>
        <time>2019-06-22T17:09:56Z</time>
      </trkpt>
      <trkpt lat="40.811698" lon="-6.950619">
        <ele>626.117</ele>
        <time>2019-06-22T17:09:57Z</time>
      </trkpt>
      <trkpt lat="40.811465" lon="-6.950580">
        <ele>625.876</ele>
        <time>2019-06-22T17:09:58Z</time>
      </trkpt>
      <trkpt lat="40.811237" lon="-6.950533">
        <ele>625.811</ele>
        <time>2019-06-22T17:09:59Z</time>
      </trkpt>
      <trkpt lat="40.811013" lon="-6.950481">
        <ele>626.424</ele>
        <time>2019-06-22T17:10:00Z</time>
      </trkpt>
      <trkpt lat="40.810786" lon="-6.950407">
        <ele>627.831</ele>
        <time>2019-06-22T17:10:01Z</time>
      </trkpt>
      <trkpt lat="40.810559" lon="-6.950329">
        <ele>629.161</ele>
        <time>2019-06-22T17:10:02Z</time>
      </trkpt>
      <trkpt lat="40.810335" lon="-6.950239">
        <ele>629.407</ele>
        <time>2019-06-22T17:10:03Z</time>
      </trkpt>
      <trkpt lat="40.810118" lon="-6.950137">
        <ele>630.508</ele>
        <time>2019-06-22T17:10:04Z</time>
      </trkpt>
      <trkpt lat="40.809937" lon="-6.950029">
        <ele>630.576</ele>
        <time>2019-06-22T17:10:05Z</time>
      </trkpt>
      <trkpt lat="40.809750" lon="-6.949907">
        <ele>629.830</ele>
        <time>2019-06-22T17:10:06Z</time>
      </trkpt>
      <trkpt lat="40.809566" lon="-6.949789">
        <ele>629.822</ele>
        <time>2019-06-22T17:10:07Z</time>
      </trkpt>
      <trkpt lat="40.809405" lon="-6.949676">
        <ele>629.894</ele>
        <time>2019-06-22T17:10:08Z</time>
      </trkpt>
      <trkpt lat="40.809247" lon="-6.949568">
        <ele>630.942</ele>
        <time>2019-06-22T17:10:09Z</time>
      </trkpt>
      <trkpt lat="40.809091" lon="-6.949479">
        <ele>631.491</ele>
        <time>2019-06-22T17:10:10Z</time>
      </trkpt>
      <trkpt lat="40.808940" lon="-6.949372">
        <ele>631.616</ele>
        <time>2019-06-22T17:10:11Z</time>
      </trkpt>
      <trkpt lat="40.808794" lon="-6.949279">
        <ele>632.459</ele>
        <time>2019-06-22T17:10:12Z</time>
      </trkpt>
      <trkpt lat="40.808660" lon="-6.949183">
        <ele>632.433</ele>
        <time>2019-06-22T17:10:13Z</time>
      </trkpt>
      <trkpt lat="40.808529" lon="-6.949097">
        <ele>632.423</ele>
        <time>2019-06-22T17:10:14Z</time>
      </trkpt>
      <trkpt lat="40.808431" lon="-6.949022">
        <ele>632.415</ele>
        <time>2019-06-22T17:10:15Z</time>
      </trkpt>
      <trkpt lat="40.808332" lon="-6.948965">
        <ele>633.408</ele>
        <time>2019-06-22T17:10:16Z</time>
      </trkpt>
      <trkpt lat="40.808240" lon="-6.948905">
        <ele>633.736</ele>
        <time>2019-06-22T17:10:17Z</time>
      </trkpt>
      <trkpt lat="40.808151" lon="-6.948849">
        <ele>634.730</ele>
        <time>2019-06-22T17:10:18Z</time>
      </trkpt>
      <trkpt lat="40.808080" lon="-6.948801">
        <ele>635.882</ele>
        <time>2019-06-22T17:10:19Z</time>
      </trkpt>
      <trkpt lat="40.808040" lon="-6.948754">
        <ele>636.094</ele>
        <time>2019-06-22T17:10:20Z</time>
      </trkpt>
      <trkpt lat="40.807991" lon="-6.948721">
        <ele>636.312</ele>
        <time>2019-06-22T17:10:21Z</time>
      </trkpt>
      <trkpt lat="40.807937" lon="-6.948716">
        <ele>638.091</ele>
        <time>2019-06-22T17:10:25Z</time>
      </trkpt>
      <trkpt lat="40.807858" lon="-6.948636">
        <ele>639.196</ele>
        <time>2019-06-22T17:10:30Z</time>
      </trkpt>
      <trkpt lat="40.807786" lon="-6.948578">
        <ele>638.999</ele>
        <time>2019-06-22T17:10:31Z</time>
      </trkpt>
      <trkpt lat="40.807711" lon="-6.948512">
        <ele>638.746</ele>
        <time>2019-06-22T17:10:32Z</time>
      </trkpt>
      <trkpt lat="40.807626" lon="-6.948436">
        <ele>638.388</ele>
        <time>2019-06-22T17:10:33Z</time>
      </trkpt>
      <trkpt lat="40.807557" lon="-6.948337">
        <ele>637.916</ele>
        <time>2019-06-22T17:10:34Z</time>
      </trkpt>
      <trkpt lat="40.807458" lon="-6.948237">
        <ele>637.808</ele>
        <time>2019-06-22T17:10:35Z</time>
      </trkpt>
      <trkpt lat="40.807342" lon="-6.948111">
        <ele>637.727</ele>
        <time>2019-06-22T17:10:36Z</time>
      </trkpt>
      <trkpt lat="40.807229" lon="-6.947988">
        <ele>637.741</ele>
        <time>2019-06-22T17:10:37Z</time>
      </trkpt>
      <trkpt lat="40.807127" lon="-6.947868">
        <ele>637.933</ele>
        <time>2019-06-22T17:10:38Z</time>
      </trkpt>
      <trkpt lat="40.807002" lon="-6.947737">
        <ele>638.465</ele>
        <time>2019-06-22T17:10:39Z</time>
      </trkpt>
      <trkpt lat="40.806875" lon="-6.947616">
        <ele>639.393</ele>
        <time>2019-06-22T17:10:40Z</time>
      </trkpt>
      <trkpt lat="40.806749" lon="-6.947479">
        <ele>640.182</ele>
        <time>2019-06-22T17:10:41Z</time>
      </trkpt>
      <trkpt lat="40.806637" lon="-6.947331">
        <ele>641.327</ele>
        <time>2019-06-22T17:10:42Z</time>
      </trkpt>
      <trkpt lat="40.806535" lon="-6.947196">
        <ele>642.660</ele>
        <time>2019-06-22T17:10:43Z</time>
      </trkpt>
      <trkpt lat="40.806437" lon="-6.947024">
        <ele>643.978</ele>
        <time>2019-06-22T17:10:44Z</time>
      </trkpt>
      <trkpt lat="40.806344" lon="-6.946836">
        <ele>644.933</ele>
        <time>2019-06-22T17:10:45Z</time>
      </trkpt>
      <trkpt lat="40.806266" lon="-6.946651">
        <ele>646.226</ele>
        <time>2019-06-22T17:10:46Z</time>
      </trkpt>
      <trkpt lat="40.806191" lon="-6.946450">
        <ele>647.308</ele>
        <time>2019-06-22T17:10:47Z</time>
      </trkpt>
      <trkpt lat="40.806132" lon="-6.946273">
        <ele>648.120</ele>
        <time>2019-06-22T17:10:48Z</time>
      </trkpt>
      <trkpt lat="40.806078" lon="-6.946068">
        <ele>649.464</ele>
        <time>2019-06-22T17:10:49Z</time>
      </trkpt>
      <trkpt lat="40.806037" lon="-6.945878">
        <ele>650.086</ele>
        <time>2019-06-22T17:10:50Z</time>
      </trkpt>
      <trkpt lat="40.806009" lon="-6.945681">
        <ele>650.758</ele>
        <time>2019-06-22T17:10:51Z</time>
      </trkpt>
      <trkpt lat="40.805984" lon="-6.945477">
        <ele>651.296</ele>
        <time>2019-06-22T17:10:52Z</time>
      </trkpt>
      <trkpt lat="40.805939" lon="-6.945277">
        <ele>651.725</ele>
        <time>2019-06-22T17:10:53Z</time>
      </trkpt>
      <trkpt lat="40.805899" lon="-6.945088">
        <ele>651.870</ele>
        <time>2019-06-22T17:10:54Z</time>
      </trkpt>
      <trkpt lat="40.805869" lon="-6.944885">
        <ele>651.873</ele>
        <time>2019-06-22T17:10:55Z</time>
      </trkpt>
      <trkpt lat="40.805808" lon="-6.944687">
        <ele>652.072</ele>
        <time>2019-06-22T17:10:56Z</time>
      </trkpt>
      <trkpt lat="40.805729" lon="-6.944478">
        <ele>652.013</ele>
        <time>2019-06-22T17:10:57Z</time>
      </trkpt>
      <trkpt lat="40.805628" lon="-6.944257">
        <ele>652.014</ele>
        <time>2019-06-22T17:10:58Z</time>
      </trkpt>
      <trkpt lat="40.805523" lon="-6.944054">
        <ele>652.208</ele>
        <time>2019-06-22T17:10:59Z</time>
      </trkpt>
      <trkpt lat="40.805437" lon="-6.943830">
        <ele>652.250</ele>
        <time>2019-06-22T17:11:00Z</time>
      </trkpt>
      <trkpt lat="40.805353" lon="-6.943585">
        <ele>652.014</ele>
        <time>2019-06-22T17:11:01Z</time>
      </trkpt>
      <trkpt lat="40.805253" lon="-6.943351">
        <ele>652.066</ele>
        <time>2019-06-22T17:11:02Z</time>
      </trkpt>
      <trkpt lat="40.805151" lon="-6.943114">
        <ele>652.098</ele>
        <time>2019-06-22T17:11:03Z</time>
      </trkpt>
      <trkpt lat="40.805047" lon="-6.942873">
        <ele>651.246</ele>
        <time>2019-06-22T17:11:04Z</time>
      </trkpt>
      <trkpt lat="40.804953" lon="-6.942636">
        <ele>650.915</ele>
        <time>2019-06-22T17:11:05Z</time>
      </trkpt>
      <trkpt lat="40.804843" lon="-6.942409">
        <ele>650.790</ele>
        <time>2019-06-22T17:11:06Z</time>
      </trkpt>
      <trkpt lat="40.804746" lon="-6.942161">
        <ele>649.543</ele>
        <time>2019-06-22T17:11:07Z</time>
      </trkpt>
      <trkpt lat="40.804644" lon="-6.941909">
        <ele>648.932</ele>
        <time>2019-06-22T17:11:08Z</time>
      </trkpt>
      <trkpt lat="40.804541" lon="-6.941660">
        <ele>648.692</ele>
        <time>2019-06-22T17:11:09Z</time>
      </trkpt>
      <trkpt lat="40.804444" lon="-6.941435">
        <ele>648.211</ele>
        <time>2019-06-22T17:11:10Z</time>
      </trkpt>
      <trkpt lat="40.804333" lon="-6.941170">
        <ele>648.208</ele>
        <time>2019-06-22T17:11:11Z</time>
      </trkpt>
      <trkpt lat="40.804233" lon="-6.940910">
        <ele>648.896</ele>
        <time>2019-06-22T17:11:12Z</time>
      </trkpt>
      <trkpt lat="40.804137" lon="-6.940637">
        <ele>648.810</ele>
        <time>2019-06-22T17:11:13Z</time>
      </trkpt>
      <trkpt lat="40.804042" lon="-6.940368">
        <ele>649.242</ele>
        <time>2019-06-22T17:11:14Z</time>
      </trkpt>
      <trkpt lat="40.803946" lon="-6.940093">
        <ele>649.484</ele>
        <time>2019-06-22T17:11:15Z</time>
      </trkpt>
      <trkpt lat="40.803850" lon="-6.939815">
        <ele>649.742</ele>
        <time>2019-06-22T17:11:16Z</time>
      </trkpt>
      <trkpt lat="40.803742" lon="-6.939524">
        <ele>649.921</ele>
        <time>2019-06-22T17:11:17Z</time>
      </trkpt>
      <trkpt lat="40.803645" lon="-6.939239">
        <ele>650.166</ele>
        <time>2019-06-22T17:11:18Z</time>
      </trkpt>
      <trkpt lat="40.803547" lon="-6.938944">
        <ele>650.859</ele>
        <time>2019-06-22T17:11:19Z</time>
      </trkpt>
      <trkpt lat="40.803450" lon="-6.938654">
        <ele>651.246</ele>
        <time>2019-06-22T17:11:20Z</time>
      </trkpt>
      <trkpt lat="40.803352" lon="-6.938365">
        <ele>652.388</ele>
        <time>2019-06-22T17:11:21Z</time>
      </trkpt>
      <trkpt lat="40.803256" lon="-6.938081">
        <ele>653.016</ele>
        <time>2019-06-22T17:11:22Z</time>
      </trkpt>
      <trkpt lat="40.803159" lon="-6.937784">
        <ele>653.308</ele>
        <time>2019-06-22T17:11:23Z</time>
      </trkpt>
      <trkpt lat="40.803069" lon="-6.937501">
        <ele>653.687</ele>
        <time>2019-06-22T17:11:24Z</time>
      </trkpt>
      <trkpt lat="40.802979" lon="-6.937218">
        <ele>654.311</ele>
        <time>2019-06-22T17:11:25Z</time>
      </trkpt>
      <trkpt lat="40.802873" lon="-6.936935">
        <ele>654.673</ele>
        <time>2019-06-22T17:11:26Z</time>
      </trkpt>
      <trkpt lat="40.802778" lon="-6.936665">
        <ele>654.675</ele>
        <time>2019-06-22T17:11:27Z</time>
      </trkpt>
      <trkpt lat="40.802682" lon="-6.936393">
        <ele>654.423</ele>
        <time>2019-06-22T17:11:28Z</time>
      </trkpt>
      <trkpt lat="40.802602" lon="-6.936133">
        <ele>654.292</ele>
        <time>2019-06-22T17:11:29Z</time>
      </trkpt>
      <trkpt lat="40.802521" lon="-6.935891">
        <ele>652.997</ele>
        <time>2019-06-22T17:11:30Z</time>
      </trkpt>
      <trkpt lat="40.802454" lon="-6.935698">
        <ele>651.280</ele>
        <time>2019-06-22T17:11:31Z</time>
      </trkpt>
      <trkpt lat="40.802369" lon="-6.935477">
        <ele>651.076</ele>
        <time>2019-06-22T17:11:32Z</time>
      </trkpt>
      <trkpt lat="40.802291" lon="-6.935277">
        <ele>651.090</ele>
        <time>2019-06-22T17:11:33Z</time>
      </trkpt>
      <trkpt lat="40.802207" lon="-6.935079">
        <ele>651.319</ele>
        <time>2019-06-22T17:11:34Z</time>
      </trkpt>
      <trkpt lat="40.802108" lon="-6.934894">
        <ele>652.108</ele>
        <time>2019-06-22T17:11:35Z</time>
      </trkpt>
      <trkpt lat="40.801999" lon="-6.934726">
        <ele>653.520</ele>
        <time>2019-06-22T17:11:36Z</time>
      </trkpt>
      <trkpt lat="40.801871" lon="-6.934569">
        <ele>655.254</ele>
        <time>2019-06-22T17:11:37Z</time>
      </trkpt>
      <trkpt lat="40.801712" lon="-6.934428">
        <ele>655.616</ele>
        <time>2019-06-22T17:11:38Z</time>
      </trkpt>
      <trkpt lat="40.801537" lon="-6.934282">
        <ele>656.338</ele>
        <time>2019-06-22T17:11:39Z</time>
      </trkpt>
      <trkpt lat="40.801369" lon="-6.934143">
        <ele>657.756</ele>
        <time>2019-06-22T17:11:40Z</time>
      </trkpt>
      <trkpt lat="40.801199" lon="-6.933990">
        <ele>659.315</ele>
        <time>2019-06-22T17:11:41Z</time>
      </trkpt>
      <trkpt lat="40.801020" lon="-6.933828">
        <ele>659.940</ele>
        <time>2019-06-22T17:11:42Z</time>
      </trkpt>
      <trkpt lat="40.800852" lon="-6.933675">
        <ele>660.523</ele>
        <time>2019-06-22T17:11:43Z</time>
      </trkpt>
      <trkpt lat="40.800694" lon="-6.933538">
        <ele>660.719</ele>
        <time>2019-06-22T17:11:44Z</time>
      </trkpt>
      <trkpt lat="40.800525" lon="-6.933382">
        <ele>660.809</ele>
        <time>2019-06-22T17:11:45Z</time>
      </trkpt>
      <trkpt lat="40.800356" lon="-6.933236">
        <ele>660.919</ele>
        <time>2019-06-22T17:11:46Z</time>
      </trkpt>
      <trkpt lat="40.800187" lon="-6.933084">
        <ele>660.908</ele>
        <time>2019-06-22T17:11:47Z</time>
      </trkpt>
      <trkpt lat="40.800011" lon="-6.932939">
        <ele>660.724</ele>
        <time>2019-06-22T17:11:48Z</time>
      </trkpt>
      <trkpt lat="40.799841" lon="-6.932802">
        <ele>660.728</ele>
        <time>2019-06-22T17:11:49Z</time>
      </trkpt>
      <trkpt lat="40.799663" lon="-6.932671">
        <ele>660.970</ele>
        <time>2019-06-22T17:11:50Z</time>
      </trkpt>
      <trkpt lat="40.799471" lon="-6.932546">
        <ele>660.952</ele>
        <time>2019-06-22T17:11:51Z</time>
      </trkpt>
      <trkpt lat="40.799286" lon="-6.932418">
        <ele>661.640</ele>
        <time>2019-06-22T17:11:52Z</time>
      </trkpt>
      <trkpt lat="40.799095" lon="-6.932309">
        <ele>662.279</ele>
        <time>2019-06-22T17:11:53Z</time>
      </trkpt>
      <trkpt lat="40.798904" lon="-6.932199">
        <ele>663.424</ele>
        <time>2019-06-22T17:11:54Z</time>
      </trkpt>
      <trkpt lat="40.798715" lon="-6.932095">
        <ele>664.197</ele>
        <time>2019-06-22T17:11:55Z</time>
      </trkpt>
      <trkpt lat="40.798518" lon="-6.932011">
        <ele>665.037</ele>
        <time>2019-06-22T17:11:56Z</time>
      </trkpt>
      <trkpt lat="40.798338" lon="-6.931919">
        <ele>665.049</ele>
        <time>2019-06-22T17:11:57Z</time>
      </trkpt>
      <trkpt lat="40.798137" lon="-6.931839">
        <ele>665.413</ele>
        <time>2019-06-22T17:11:58Z</time>
      </trkpt>
      <trkpt lat="40.797924" lon="-6.931782">
        <ele>665.708</ele>
        <time>2019-06-22T17:11:59Z</time>
      </trkpt>
      <trkpt lat="40.797706" lon="-6.931711">
        <ele>666.486</ele>
        <time>2019-06-22T17:12:00Z</time>
      </trkpt>
      <trkpt lat="40.797502" lon="-6.931664">
        <ele>667.680</ele>
        <time>2019-06-22T17:12:01Z</time>
      </trkpt>
      <trkpt lat="40.797278" lon="-6.931610">
        <ele>668.272</ele>
        <time>2019-06-22T17:12:02Z</time>
      </trkpt>
      <trkpt lat="40.797062" lon="-6.931558">
        <ele>668.984</ele>
        <time>2019-06-22T17:12:03Z</time>
      </trkpt>
      <trkpt lat="40.796852" lon="-6.931501">
        <ele>669.322</ele>
        <time>2019-06-22T17:12:04Z</time>
      </trkpt>
      <trkpt lat="40.796641" lon="-6.931442">
        <ele>669.361</ele>
        <time>2019-06-22T17:12:05Z</time>
      </trkpt>
      <trkpt lat="40.796432" lon="-6.931384">
        <ele>669.086</ele>
        <time>2019-06-22T17:12:06Z</time>
      </trkpt>
      <trkpt lat="40.796228" lon="-6.931328">
        <ele>668.649</ele>
        <time>2019-06-22T17:12:07Z</time>
      </trkpt>
      <trkpt lat="40.796027" lon="-6.931273">
        <ele>668.288</ele>
        <time>2019-06-22T17:12:08Z</time>
      </trkpt>
      <trkpt lat="40.795825" lon="-6.931223">
        <ele>667.824</ele>
        <time>2019-06-22T17:12:09Z</time>
      </trkpt>
      <trkpt lat="40.795626" lon="-6.931168">
        <ele>667.826</ele>
        <time>2019-06-22T17:12:10Z</time>
      </trkpt>
      <trkpt lat="40.795427" lon="-6.931123">
        <ele>668.408</ele>
        <time>2019-06-22T17:12:11Z</time>
      </trkpt>
      <trkpt lat="40.795230" lon="-6.931077">
        <ele>669.121</ele>
        <time>2019-06-22T17:12:12Z</time>
      </trkpt>
      <trkpt lat="40.795038" lon="-6.931031">
        <ele>670.065</ele>
        <time>2019-06-22T17:12:13Z</time>
      </trkpt>
      <trkpt lat="40.794857" lon="-6.930979">
        <ele>671.547</ele>
        <time>2019-06-22T17:12:14Z</time>
      </trkpt>
      <trkpt lat="40.794664" lon="-6.930944">
        <ele>671.539</ele>
        <time>2019-06-22T17:12:15Z</time>
      </trkpt>
      <trkpt lat="40.794475" lon="-6.930907">
        <ele>671.667</ele>
        <time>2019-06-22T17:12:16Z</time>
      </trkpt>
      <trkpt lat="40.794308" lon="-6.930870">
        <ele>671.646</ele>
        <time>2019-06-22T17:12:17Z</time>
      </trkpt>
      <trkpt lat="40.794138" lon="-6.930846">
        <ele>671.841</ele>
        <time>2019-06-22T17:12:18Z</time>
      </trkpt>
      <trkpt lat="40.793962" lon="-6.930859">
        <ele>672.094</ele>
        <time>2019-06-22T17:12:19Z</time>
      </trkpt>
      <trkpt lat="40.793790" lon="-6.930878">
        <ele>672.221</ele>
        <time>2019-06-22T17:12:20Z</time>
      </trkpt>
      <trkpt lat="40.793596" lon="-6.930979">
        <ele>673.841</ele>
        <time>2019-06-22T17:12:21Z</time>
      </trkpt>
      <trkpt lat="40.793418" lon="-6.931062">
        <ele>675.805</ele>
        <time>2019-06-22T17:12:22Z</time>
      </trkpt>
      <trkpt lat="40.793228" lon="-6.931150">
        <ele>677.008</ele>
        <time>2019-06-22T17:12:23Z</time>
      </trkpt>
      <trkpt lat="40.793036" lon="-6.931223">
        <ele>678.795</ele>
        <time>2019-06-22T17:12:24Z</time>
      </trkpt>
      <trkpt lat="40.792843" lon="-6.931306">
        <ele>679.779</ele>
        <time>2019-06-22T17:12:25Z</time>
      </trkpt>
      <trkpt lat="40.792650" lon="-6.931393">
        <ele>680.351</ele>
        <time>2019-06-22T17:12:26Z</time>
      </trkpt>
      <trkpt lat="40.792452" lon="-6.931485">
        <ele>680.433</ele>
        <time>2019-06-22T17:12:27Z</time>
      </trkpt>
      <trkpt lat="40.792265" lon="-6.931568">
        <ele>680.751</ele>
        <time>2019-06-22T17:12:28Z</time>
      </trkpt>
      <trkpt lat="40.792074" lon="-6.931647">
        <ele>681.410</ele>
        <time>2019-06-22T17:12:29Z</time>
      </trkpt>
      <trkpt lat="40.791892" lon="-6.931709">
        <ele>682.175</ele>
        <time>2019-06-22T17:12:30Z</time>
      </trkpt>
      <trkpt lat="40.791712" lon="-6.931782">
        <ele>682.568</ele>
        <time>2019-06-22T17:12:31Z</time>
      </trkpt>
      <trkpt lat="40.791530" lon="-6.931844">
        <ele>682.881</ele>
        <time>2019-06-22T17:12:32Z</time>
      </trkpt>
      <trkpt lat="40.791332" lon="-6.931899">
        <ele>682.861</ele>
        <time>2019-06-22T17:12:33Z</time>
      </trkpt>
      <trkpt lat="40.791146" lon="-6.931932">
        <ele>682.817</ele>
        <time>2019-06-22T17:12:34Z</time>
      </trkpt>
      <trkpt lat="40.790957" lon="-6.931966">
        <ele>683.108</ele>
        <time>2019-06-22T17:12:35Z</time>
      </trkpt>
      <trkpt lat="40.790762" lon="-6.931982">
        <ele>683.681</ele>
        <time>2019-06-22T17:12:36Z</time>
      </trkpt>
      <trkpt lat="40.790569" lon="-6.931974">
        <ele>684.465</ele>
        <time>2019-06-22T17:12:37Z</time>
      </trkpt>
      <trkpt lat="40.790366" lon="-6.931977">
        <ele>684.637</ele>
        <time>2019-06-22T17:12:38Z</time>
      </trkpt>
      <trkpt lat="40.790158" lon="-6.931984">
        <ele>684.689</ele>
        <time>2019-06-22T17:12:39Z</time>
      </trkpt>
      <trkpt lat="40.789957" lon="-6.931994">
        <ele>684.527</ele>
        <time>2019-06-22T17:12:40Z</time>
      </trkpt>
      <trkpt lat="40.789762" lon="-6.932003">
        <ele>684.526</ele>
        <time>2019-06-22T17:12:41Z</time>
      </trkpt>
      <trkpt lat="40.789570" lon="-6.932011">
        <ele>684.211</ele>
        <time>2019-06-22T17:12:42Z</time>
      </trkpt>
      <trkpt lat="40.789375" lon="-6.932007">
        <ele>684.274</ele>
        <time>2019-06-22T17:12:43Z</time>
      </trkpt>
      <trkpt lat="40.789209" lon="-6.931938">
        <ele>684.943</ele>
        <time>2019-06-22T17:12:44Z</time>
      </trkpt>
      <trkpt lat="40.789023" lon="-6.931873">
        <ele>686.164</ele>
        <time>2019-06-22T17:12:45Z</time>
      </trkpt>
      <trkpt lat="40.788838" lon="-6.931774">
        <ele>686.810</ele>
        <time>2019-06-22T17:12:46Z</time>
      </trkpt>
      <trkpt lat="40.788660" lon="-6.931659">
        <ele>687.308</ele>
        <time>2019-06-22T17:12:47Z</time>
      </trkpt>
      <trkpt lat="40.788464" lon="-6.931548">
        <ele>687.557</ele>
        <time>2019-06-22T17:12:48Z</time>
      </trkpt>
      <trkpt lat="40.788276" lon="-6.931438">
        <ele>688.361</ele>
        <time>2019-06-22T17:12:49Z</time>
      </trkpt>
      <trkpt lat="40.788071" lon="-6.931329">
        <ele>688.343</ele>
        <time>2019-06-22T17:12:50Z</time>
      </trkpt>
      <trkpt lat="40.787871" lon="-6.931212">
        <ele>687.945</ele>
        <time>2019-06-22T17:12:51Z</time>
      </trkpt>
      <trkpt lat="40.787679" lon="-6.931088">
        <ele>687.943</ele>
        <time>2019-06-22T17:12:52Z</time>
      </trkpt>
      <trkpt lat="40.787492" lon="-6.930962">
        <ele>688.462</ele>
        <time>2019-06-22T17:12:53Z</time>
      </trkpt>
      <trkpt lat="40.787282" lon="-6.930834">
        <ele>688.557</ele>
        <time>2019-06-22T17:12:54Z</time>
      </trkpt>
      <trkpt lat="40.787075" lon="-6.930710">
        <ele>688.610</ele>
        <time>2019-06-22T17:12:55Z</time>
      </trkpt>
      <trkpt lat="40.786862" lon="-6.930586">
        <ele>689.895</ele>
        <time>2019-06-22T17:12:56Z</time>
      </trkpt>
      <trkpt lat="40.786657" lon="-6.930465">
        <ele>691.249</ele>
        <time>2019-06-22T17:12:57Z</time>
      </trkpt>
      <trkpt lat="40.786464" lon="-6.930324">
        <ele>691.223</ele>
        <time>2019-06-22T17:12:58Z</time>
      </trkpt>
      <trkpt lat="40.786263" lon="-6.930182">
        <ele>691.208</ele>
        <time>2019-06-22T17:12:59Z</time>
      </trkpt>
      <trkpt lat="40.786057" lon="-6.930063">
        <ele>691.132</ele>
        <time>2019-06-22T17:13:00Z</time>
      </trkpt>
      <trkpt lat="40.785843" lon="-6.929944">
        <ele>690.756</ele>
        <time>2019-06-22T17:13:01Z</time>
      </trkpt>
      <trkpt lat="40.785620" lon="-6.929813">
        <ele>689.998</ele>
        <time>2019-06-22T17:13:02Z</time>
      </trkpt>
      <trkpt lat="40.785407" lon="-6.929682">
        <ele>689.950</ele>
        <time>2019-06-22T17:13:03Z</time>
      </trkpt>
      <trkpt lat="40.785197" lon="-6.929558">
        <ele>690.488</ele>
        <time>2019-06-22T17:13:04Z</time>
      </trkpt>
      <trkpt lat="40.784981" lon="-6.929428">
        <ele>691.677</ele>
        <time>2019-06-22T17:13:05Z</time>
      </trkpt>
      <trkpt lat="40.784767" lon="-6.929311">
        <ele>692.942</ele>
        <time>2019-06-22T17:13:06Z</time>
      </trkpt>
      <trkpt lat="40.784554" lon="-6.929187">
        <ele>694.585</ele>
        <time>2019-06-22T17:13:07Z</time>
      </trkpt>
      <trkpt lat="40.784349" lon="-6.929067">
        <ele>695.358</ele>
        <time>2019-06-22T17:13:08Z</time>
      </trkpt>
      <trkpt lat="40.784141" lon="-6.928929">
        <ele>695.752</ele>
        <time>2019-06-22T17:13:09Z</time>
      </trkpt>
      <trkpt lat="40.783943" lon="-6.928796">
        <ele>695.717</ele>
        <time>2019-06-22T17:13:10Z</time>
      </trkpt>
      <trkpt lat="40.783726" lon="-6.928663">
        <ele>695.408</ele>
        <time>2019-06-22T17:13:11Z</time>
      </trkpt>
      <trkpt lat="40.783517" lon="-6.928535">
        <ele>694.748</ele>
        <time>2019-06-22T17:13:12Z</time>
      </trkpt>
      <trkpt lat="40.783306" lon="-6.928398">
        <ele>694.392</ele>
        <time>2019-06-22T17:13:13Z</time>
      </trkpt>
      <trkpt lat="40.783097" lon="-6.928273">
        <ele>694.334</ele>
        <time>2019-06-22T17:13:14Z</time>
      </trkpt>
      <trkpt lat="40.782887" lon="-6.928160">
        <ele>694.576</ele>
        <time>2019-06-22T17:13:15Z</time>
      </trkpt>
      <trkpt lat="40.782686" lon="-6.928035">
        <ele>694.754</ele>
        <time>2019-06-22T17:13:16Z</time>
      </trkpt>
      <trkpt lat="40.782478" lon="-6.927908">
        <ele>695.683</ele>
        <time>2019-06-22T17:13:17Z</time>
      </trkpt>
      <trkpt lat="40.782270" lon="-6.927769">
        <ele>696.188</ele>
        <time>2019-06-22T17:13:18Z</time>
      </trkpt>
      <trkpt lat="40.782064" lon="-6.927628">
        <ele>696.131</ele>
        <time>2019-06-22T17:13:19Z</time>
      </trkpt>
      <trkpt lat="40.781863" lon="-6.927477">
        <ele>697.072</ele>
        <time>2019-06-22T17:13:20Z</time>
      </trkpt>
      <trkpt lat="40.781667" lon="-6.927318">
        <ele>697.013</ele>
        <time>2019-06-22T17:13:21Z</time>
      </trkpt>
      <trkpt lat="40.781484" lon="-6.927134">
        <ele>698.114</ele>
        <time>2019-06-22T17:13:22Z</time>
      </trkpt>
      <trkpt lat="40.781288" lon="-6.926954">
        <ele>699.108</ele>
        <time>2019-06-22T17:13:23Z</time>
      </trkpt>
      <trkpt lat="40.781095" lon="-6.926778">
        <ele>699.150</ele>
        <time>2019-06-22T17:13:24Z</time>
      </trkpt>
      <trkpt lat="40.780901" lon="-6.926601">
        <ele>700.124</ele>
        <time>2019-06-22T17:13:25Z</time>
      </trkpt>
      <trkpt lat="40.780701" lon="-6.926433">
        <ele>700.686</ele>
        <time>2019-06-22T17:13:26Z</time>
      </trkpt>
      <trkpt lat="40.780498" lon="-6.926266">
        <ele>700.668</ele>
        <time>2019-06-22T17:13:27Z</time>
      </trkpt>
      <trkpt lat="40.780300" lon="-6.926084">
        <ele>700.876</ele>
        <time>2019-06-22T17:13:28Z</time>
      </trkpt>
      <trkpt lat="40.780087" lon="-6.925901">
        <ele>701.625</ele>
        <time>2019-06-22T17:13:29Z</time>
      </trkpt>
      <trkpt lat="40.779890" lon="-6.925709">
        <ele>702.670</ele>
        <time>2019-06-22T17:13:30Z</time>
      </trkpt>
      <trkpt lat="40.779680" lon="-6.925521">
        <ele>703.613</ele>
        <time>2019-06-22T17:13:31Z</time>
      </trkpt>
      <trkpt lat="40.779483" lon="-6.925349">
        <ele>703.959</ele>
        <time>2019-06-22T17:13:32Z</time>
      </trkpt>
      <trkpt lat="40.779287" lon="-6.925154">
        <ele>704.703</ele>
        <time>2019-06-22T17:13:33Z</time>
      </trkpt>
      <trkpt lat="40.779087" lon="-6.924959">
        <ele>704.823</ele>
        <time>2019-06-22T17:13:34Z</time>
      </trkpt>
      <trkpt lat="40.778886" lon="-6.924788">
        <ele>704.908</ele>
        <time>2019-06-22T17:13:35Z</time>
      </trkpt>
      <trkpt lat="40.778691" lon="-6.924601">
        <ele>705.198</ele>
        <time>2019-06-22T17:13:36Z</time>
      </trkpt>
      <trkpt lat="40.778479" lon="-6.924411">
        <ele>705.482</ele>
        <time>2019-06-22T17:13:37Z</time>
      </trkpt>
      <trkpt lat="40.778277" lon="-6.924224">
        <ele>706.874</ele>
        <time>2019-06-22T17:13:38Z</time>
      </trkpt>
      <trkpt lat="40.778092" lon="-6.924050">
        <ele>708.626</ele>
        <time>2019-06-22T17:13:39Z</time>
      </trkpt>
      <trkpt lat="40.777891" lon="-6.923866">
        <ele>709.914</ele>
        <time>2019-06-22T17:13:40Z</time>
      </trkpt>
      <trkpt lat="40.777684" lon="-6.923703">
        <ele>710.353</ele>
        <time>2019-06-22T17:13:41Z</time>
      </trkpt>
      <trkpt lat="40.777471" lon="-6.923534">
        <ele>710.638</ele>
        <time>2019-06-22T17:13:42Z</time>
      </trkpt>
      <trkpt lat="40.777266" lon="-6.923358">
        <ele>710.621</ele>
        <time>2019-06-22T17:13:43Z</time>
      </trkpt>
      <trkpt lat="40.777049" lon="-6.923176">
        <ele>710.274</ele>
        <time>2019-06-22T17:13:44Z</time>
      </trkpt>
      <trkpt lat="40.776846" lon="-6.923001">
        <ele>710.256</ele>
        <time>2019-06-22T17:13:45Z</time>
      </trkpt>
      <trkpt lat="40.776634" lon="-6.922810">
        <ele>709.721</ele>
        <time>2019-06-22T17:13:46Z</time>
      </trkpt>
      <trkpt lat="40.776428" lon="-6.922617">
        <ele>709.808</ele>
        <time>2019-06-22T17:13:47Z</time>
      </trkpt>
      <trkpt lat="40.776221" lon="-6.922437">
        <ele>709.830</ele>
        <time>2019-06-22T17:13:48Z</time>
      </trkpt>
      <trkpt lat="40.776018" lon="-6.922273">
        <ele>709.854</ele>
        <time>2019-06-22T17:13:49Z</time>
      </trkpt>
      <trkpt lat="40.775807" lon="-6.922103">
        <ele>709.726</ele>
        <time>2019-06-22T17:13:50Z</time>
      </trkpt>
      <trkpt lat="40.775597" lon="-6.921922">
        <ele>708.998</ele>
        <time>2019-06-22T17:13:51Z</time>
      </trkpt>
      <trkpt lat="40.775395" lon="-6.921722">
        <ele>708.926</ele>
        <time>2019-06-22T17:13:52Z</time>
      </trkpt>
      <trkpt lat="40.775197" lon="-6.921544">
        <ele>708.235</ele>
        <time>2019-06-22T17:13:53Z</time>
      </trkpt>
      <trkpt lat="40.775002" lon="-6.921387">
        <ele>707.010</ele>
        <time>2019-06-22T17:13:54Z</time>
      </trkpt>
      <trkpt lat="40.774811" lon="-6.921203">
        <ele>706.743</ele>
        <time>2019-06-22T17:13:55Z</time>
      </trkpt>
      <trkpt lat="40.774613" lon="-6.921036">
        <ele>706.711</ele>
        <time>2019-06-22T17:13:56Z</time>
      </trkpt>
      <trkpt lat="40.774401" lon="-6.920863">
        <ele>707.921</ele>
        <time>2019-06-22T17:13:57Z</time>
      </trkpt>
      <trkpt lat="40.774199" lon="-6.920692">
        <ele>708.603</ele>
        <time>2019-06-22T17:13:58Z</time>
      </trkpt>
      <trkpt lat="40.773990" lon="-6.920509">
        <ele>709.708</ele>
        <time>2019-06-22T17:13:59Z</time>
      </trkpt>
      <trkpt lat="40.773781" lon="-6.920331">
        <ele>710.664</ele>
        <time>2019-06-22T17:14:00Z</time>
      </trkpt>
      <trkpt lat="40.773579" lon="-6.920150">
        <ele>710.678</ele>
        <time>2019-06-22T17:14:01Z</time>
      </trkpt>
      <trkpt lat="40.773382" lon="-6.919986">
        <ele>709.670</ele>
        <time>2019-06-22T17:14:02Z</time>
      </trkpt>
      <trkpt lat="40.773181" lon="-6.919801">
        <ele>708.832</ele>
        <time>2019-06-22T17:14:03Z</time>
      </trkpt>
      <trkpt lat="40.772975" lon="-6.919649">
        <ele>706.430</ele>
        <time>2019-06-22T17:14:04Z</time>
      </trkpt>
      <trkpt lat="40.772762" lon="-6.919496">
        <ele>703.969</ele>
        <time>2019-06-22T17:14:05Z</time>
      </trkpt>
      <trkpt lat="40.772549" lon="-6.919343">
        <ele>700.644</ele>
        <time>2019-06-22T17:14:06Z</time>
      </trkpt>
      <trkpt lat="40.772328" lon="-6.919212">
        <ele>697.197</ele>
        <time>2019-06-22T17:14:07Z</time>
      </trkpt>
      <trkpt lat="40.772101" lon="-6.919108">
        <ele>694.932</ele>
        <time>2019-06-22T17:14:08Z</time>
      </trkpt>
      <trkpt lat="40.771872" lon="-6.919013">
        <ele>694.992</ele>
        <time>2019-06-22T17:14:09Z</time>
      </trkpt>
      <trkpt lat="40.771637" lon="-6.918905">
        <ele>695.511</ele>
        <time>2019-06-22T17:14:10Z</time>
      </trkpt>
      <trkpt lat="40.771410" lon="-6.918804">
        <ele>698.108</ele>
        <time>2019-06-22T17:14:11Z</time>
      </trkpt>
      <trkpt lat="40.771171" lon="-6.918706">
        <ele>700.986</ele>
        <time>2019-06-22T17:14:12Z</time>
      </trkpt>
      <trkpt lat="40.770915" lon="-6.918608">
        <ele>702.260</ele>
        <time>2019-06-22T17:14:13Z</time>
      </trkpt>
      <trkpt lat="40.770656" lon="-6.918515">
        <ele>703.282</ele>
        <time>2019-06-22T17:14:14Z</time>
      </trkpt>
      <trkpt lat="40.770406" lon="-6.918403">
        <ele>703.274</ele>
        <time>2019-06-22T17:14:15Z</time>
      </trkpt>
      <trkpt lat="40.770160" lon="-6.918293">
        <ele>703.262</ele>
        <time>2019-06-22T17:14:16Z</time>
      </trkpt>
      <trkpt lat="40.769905" lon="-6.918190">
        <ele>702.851</ele>
        <time>2019-06-22T17:14:17Z</time>
      </trkpt>
      <trkpt lat="40.769657" lon="-6.918101">
        <ele>702.726</ele>
        <time>2019-06-22T17:14:18Z</time>
      </trkpt>
      <trkpt lat="40.769419" lon="-6.918007">
        <ele>701.549</ele>
        <time>2019-06-22T17:14:19Z</time>
      </trkpt>
      <trkpt lat="40.769185" lon="-6.917900">
        <ele>701.044</ele>
        <time>2019-06-22T17:14:20Z</time>
      </trkpt>
      <trkpt lat="40.768958" lon="-6.917787">
        <ele>700.305</ele>
        <time>2019-06-22T17:14:21Z</time>
      </trkpt>
      <trkpt lat="40.768734" lon="-6.917690">
        <ele>700.315</ele>
        <time>2019-06-22T17:14:22Z</time>
      </trkpt>
      <trkpt lat="40.768493" lon="-6.917594">
        <ele>700.308</ele>
        <time>2019-06-22T17:14:23Z</time>
      </trkpt>
      <trkpt lat="40.768264" lon="-6.917492">
        <ele>701.167</ele>
        <time>2019-06-22T17:14:24Z</time>
      </trkpt>
      <trkpt lat="40.768030" lon="-6.917395">
        <ele>701.741</ele>
        <time>2019-06-22T17:14:25Z</time>
      </trkpt>
      <trkpt lat="40.767790" lon="-6.917307">
        <ele>703.093</ele>
        <time>2019-06-22T17:14:26Z</time>
      </trkpt>
      <trkpt lat="40.767549" lon="-6.917224">
        <ele>704.795</ele>
        <time>2019-06-22T17:14:27Z</time>
      </trkpt>
      <trkpt lat="40.767303" lon="-6.917123">
        <ele>704.763</ele>
        <time>2019-06-22T17:14:28Z</time>
      </trkpt>
      <trkpt lat="40.767058" lon="-6.917027">
        <ele>705.812</ele>
        <time>2019-06-22T17:14:29Z</time>
      </trkpt>
      <trkpt lat="40.766807" lon="-6.916927">
        <ele>707.657</ele>
        <time>2019-06-22T17:14:30Z</time>
      </trkpt>
      <trkpt lat="40.766564" lon="-6.916816">
        <ele>708.290</ele>
        <time>2019-06-22T17:14:31Z</time>
      </trkpt>
      <trkpt lat="40.766318" lon="-6.916720">
        <ele>708.213</ele>
        <time>2019-06-22T17:14:32Z</time>
      </trkpt>
      <trkpt lat="40.766091" lon="-6.916624">
        <ele>708.043</ele>
        <time>2019-06-22T17:14:33Z</time>
      </trkpt>
      <trkpt lat="40.765823" lon="-6.916519">
        <ele>707.307</ele>
        <time>2019-06-22T17:14:34Z</time>
      </trkpt>
      <trkpt lat="40.765569" lon="-6.916437">
        <ele>706.408</ele>
        <time>2019-06-22T17:14:35Z</time>
      </trkpt>
      <trkpt lat="40.765327" lon="-6.916339">
        <ele>705.264</ele>
        <time>2019-06-22T17:14:36Z</time>
      </trkpt>
      <trkpt lat="40.765081" lon="-6.916257">
        <ele>704.828</ele>
        <time>2019-06-22T17:14:37Z</time>
      </trkpt>
      <trkpt lat="40.764848" lon="-6.916147">
        <ele>704.480</ele>
        <time>2019-06-22T17:14:38Z</time>
      </trkpt>
      <trkpt lat="40.764605" lon="-6.916049">
        <ele>704.152</ele>
        <time>2019-06-22T17:14:39Z</time>
      </trkpt>
      <trkpt lat="40.764352" lon="-6.915964">
        <ele>703.470</ele>
        <time>2019-06-22T17:14:40Z</time>
      </trkpt>
      <trkpt lat="40.764104" lon="-6.915866">
        <ele>703.119</ele>
        <time>2019-06-22T17:14:41Z</time>
      </trkpt>
      <trkpt lat="40.763857" lon="-6.915770">
        <ele>703.134</ele>
        <time>2019-06-22T17:14:42Z</time>
      </trkpt>
      <trkpt lat="40.763603" lon="-6.915681">
        <ele>703.247</ele>
        <time>2019-06-22T17:14:43Z</time>
      </trkpt>
      <trkpt lat="40.763351" lon="-6.915593">
        <ele>703.217</ele>
        <time>2019-06-22T17:14:44Z</time>
      </trkpt>
      <trkpt lat="40.763100" lon="-6.915504">
        <ele>705.187</ele>
        <time>2019-06-22T17:14:45Z</time>
      </trkpt>
      <trkpt lat="40.762854" lon="-6.915425">
        <ele>705.415</ele>
        <time>2019-06-22T17:14:46Z</time>
      </trkpt>
      <trkpt lat="40.762597" lon="-6.915350">
        <ele>705.408</ele>
        <time>2019-06-22T17:14:47Z</time>
      </trkpt>
      <trkpt lat="40.762342" lon="-6.915283">
        <ele>705.444</ele>
        <time>2019-06-22T17:14:48Z</time>
      </trkpt>
      <trkpt lat="40.762078" lon="-6.915221">
        <ele>705.358</ele>
        <time>2019-06-22T17:14:49Z</time>
      </trkpt>
      <trkpt lat="40.761820" lon="-6.915158">
        <ele>705.250</ele>
        <time>2019-06-22T17:14:50Z</time>
      </trkpt>
      <trkpt lat="40.761562" lon="-6.915106">
        <ele>705.172</ele>
        <time>2019-06-22T17:14:51Z</time>
      </trkpt>
      <trkpt lat="40.761304" lon="-6.915025">
        <ele>704.590</ele>
        <time>2019-06-22T17:14:52Z</time>
      </trkpt>
      <trkpt lat="40.761068" lon="-6.914955">
        <ele>703.559</ele>
        <time>2019-06-22T17:14:53Z</time>
      </trkpt>
      <trkpt lat="40.760839" lon="-6.914895">
        <ele>701.934</ele>
        <time>2019-06-22T17:14:54Z</time>
      </trkpt>
      <trkpt lat="40.760612" lon="-6.914831">
        <ele>701.717</ele>
        <time>2019-06-22T17:14:55Z</time>
      </trkpt>
      <trkpt lat="40.760402" lon="-6.914778">
        <ele>701.742</ele>
        <time>2019-06-22T17:14:56Z</time>
      </trkpt>
      <trkpt lat="40.760206" lon="-6.914733">
        <ele>702.022</ele>
        <time>2019-06-22T17:14:57Z</time>
      </trkpt>
      <trkpt lat="40.760003" lon="-6.914698">
        <ele>703.114</ele>
        <time>2019-06-22T17:14:58Z</time>
      </trkpt>
      <trkpt lat="40.759792" lon="-6.914677">
        <ele>705.308</ele>
        <time>2019-06-22T17:14:59Z</time>
      </trkpt>
      <trkpt lat="40.759576" lon="-6.914701">
        <ele>706.677</ele>
        <time>2019-06-22T17:15:00Z</time>
      </trkpt>
      <trkpt lat="40.759369" lon="-6.914721">
        <ele>707.461</ele>
        <time>2019-06-22T17:15:01Z</time>
      </trkpt>
      <trkpt lat="40.759143" lon="-6.914749">
        <ele>707.883</ele>
        <time>2019-06-22T17:15:02Z</time>
      </trkpt>
      <trkpt lat="40.758910" lon="-6.914787">
        <ele>707.845</ele>
        <time>2019-06-22T17:15:03Z</time>
      </trkpt>
      <trkpt lat="40.758693" lon="-6.914821">
        <ele>707.823</ele>
        <time>2019-06-22T17:15:04Z</time>
      </trkpt>
      <trkpt lat="40.758485" lon="-6.914869">
        <ele>708.242</ele>
        <time>2019-06-22T17:15:05Z</time>
      </trkpt>
      <trkpt lat="40.758262" lon="-6.914922">
        <ele>708.957</ele>
        <time>2019-06-22T17:15:06Z</time>
      </trkpt>
      <trkpt lat="40.758039" lon="-6.914953">
        <ele>710.340</ele>
        <time>2019-06-22T17:15:07Z</time>
      </trkpt>
      <trkpt lat="40.757806" lon="-6.914987">
        <ele>712.666</ele>
        <time>2019-06-22T17:15:08Z</time>
      </trkpt>
      <trkpt lat="40.757585" lon="-6.915003">
        <ele>712.929</ele>
        <time>2019-06-22T17:15:09Z</time>
      </trkpt>
      <trkpt lat="40.757357" lon="-6.915043">
        <ele>713.321</ele>
        <time>2019-06-22T17:15:10Z</time>
      </trkpt>
      <trkpt lat="40.757131" lon="-6.915073">
        <ele>712.908</ele>
        <time>2019-06-22T17:15:11Z</time>
      </trkpt>
      <trkpt lat="40.756901" lon="-6.915124">
        <ele>712.769</ele>
        <time>2019-06-22T17:15:12Z</time>
      </trkpt>
      <trkpt lat="40.756690" lon="-6.915142">
        <ele>712.093</ele>
        <time>2019-06-22T17:15:13Z</time>
      </trkpt>
      <trkpt lat="40.756474" lon="-6.915178">
        <ele>712.015</ele>
        <time>2019-06-22T17:15:14Z</time>
      </trkpt>
      <trkpt lat="40.756267" lon="-6.915209">
        <ele>713.157</ele>
        <time>2019-06-22T17:15:15Z</time>
      </trkpt>
      <trkpt lat="40.756073" lon="-6.915225">
        <ele>713.845</ele>
        <time>2019-06-22T17:15:16Z</time>
      </trkpt>
      <trkpt lat="40.755862" lon="-6.915203">
        <ele>714.884</ele>
        <time>2019-06-22T17:15:17Z</time>
      </trkpt>
      <trkpt lat="40.755649" lon="-6.915184">
        <ele>715.739</ele>
        <time>2019-06-22T17:15:18Z</time>
      </trkpt>
      <trkpt lat="40.755427" lon="-6.915166">
        <ele>717.032</ele>
        <time>2019-06-22T17:15:19Z</time>
      </trkpt>
      <trkpt lat="40.755224" lon="-6.915123">
        <ele>717.813</ele>
        <time>2019-06-22T17:15:20Z</time>
      </trkpt>
      <trkpt lat="40.755009" lon="-6.915067">
        <ele>719.643</ele>
        <time>2019-06-22T17:15:21Z</time>
      </trkpt>
      <trkpt lat="40.754801" lon="-6.915001">
        <ele>719.607</ele>
        <time>2019-06-22T17:15:22Z</time>
      </trkpt>
      <trkpt lat="40.754574" lon="-6.914956">
        <ele>719.508</ele>
        <time>2019-06-22T17:15:23Z</time>
      </trkpt>
      <trkpt lat="40.754346" lon="-6.914901">
        <ele>719.534</ele>
        <time>2019-06-22T17:15:24Z</time>
      </trkpt>
      <trkpt lat="40.754119" lon="-6.914844">
        <ele>719.588</ele>
        <time>2019-06-22T17:15:25Z</time>
      </trkpt>
      <trkpt lat="40.753896" lon="-6.914788">
        <ele>718.550</ele>
        <time>2019-06-22T17:15:26Z</time>
      </trkpt>
      <trkpt lat="40.753654" lon="-6.914723">
        <ele>718.192</ele>
        <time>2019-06-22T17:15:27Z</time>
      </trkpt>
      <trkpt lat="40.753423" lon="-6.914673">
        <ele>718.150</ele>
        <time>2019-06-22T17:15:28Z</time>
      </trkpt>
      <trkpt lat="40.753198" lon="-6.914629">
        <ele>718.169</ele>
        <time>2019-06-22T17:15:29Z</time>
      </trkpt>
      <trkpt lat="40.752960" lon="-6.914580">
        <ele>717.894</ele>
        <time>2019-06-22T17:15:30Z</time>
      </trkpt>
      <trkpt lat="40.752719" lon="-6.914523">
        <ele>717.597</ele>
        <time>2019-06-22T17:15:31Z</time>
      </trkpt>
      <trkpt lat="40.752493" lon="-6.914462">
        <ele>717.583</ele>
        <time>2019-06-22T17:15:32Z</time>
      </trkpt>
      <trkpt lat="40.752262" lon="-6.914404">
        <ele>717.525</ele>
        <time>2019-06-22T17:15:33Z</time>
      </trkpt>
      <trkpt lat="40.752024" lon="-6.914331">
        <ele>717.617</ele>
        <time>2019-06-22T17:15:34Z</time>
      </trkpt>
      <trkpt lat="40.751793" lon="-6.914265">
        <ele>718.108</ele>
        <time>2019-06-22T17:15:35Z</time>
      </trkpt>
      <trkpt lat="40.751544" lon="-6.914221">
        <ele>718.271</ele>
        <time>2019-06-22T17:15:36Z</time>
      </trkpt>
      <trkpt lat="40.751307" lon="-6.914142">
        <ele>719.585</ele>
        <time>2019-06-22T17:15:37Z</time>
      </trkpt>
      <trkpt lat="40.751051" lon="-6.914070">
        <ele>720.597</ele>
        <time>2019-06-22T17:15:38Z</time>
      </trkpt>
      <trkpt lat="40.750785" lon="-6.913994">
        <ele>720.969</ele>
        <time>2019-06-22T17:15:39Z</time>
      </trkpt>
      <trkpt lat="40.750534" lon="-6.913920">
        <ele>720.947</ele>
        <time>2019-06-22T17:15:40Z</time>
      </trkpt>
      <trkpt lat="40.750285" lon="-6.913844">
        <ele>720.756</ele>
        <time>2019-06-22T17:15:41Z</time>
      </trkpt>
      <trkpt lat="40.750033" lon="-6.913774">
        <ele>719.861</ele>
        <time>2019-06-22T17:15:42Z</time>
      </trkpt>
      <trkpt lat="40.749766" lon="-6.913716">
        <ele>718.974</ele>
        <time>2019-06-22T17:15:43Z</time>
      </trkpt>
      <trkpt lat="40.749507" lon="-6.913656">
        <ele>717.646</ele>
        <time>2019-06-22T17:15:44Z</time>
      </trkpt>
      <trkpt lat="40.749239" lon="-6.913589">
        <ele>715.988</ele>
        <time>2019-06-22T17:15:45Z</time>
      </trkpt>
      <trkpt lat="40.748980" lon="-6.913520">
        <ele>714.316</ele>
        <time>2019-06-22T17:15:46Z</time>
      </trkpt>
      <trkpt lat="40.748723" lon="-6.913450">
        <ele>713.208</ele>
        <time>2019-06-22T17:15:47Z</time>
      </trkpt>
      <trkpt lat="40.748464" lon="-6.913375">
        <ele>713.257</ele>
        <time>2019-06-22T17:15:48Z</time>
      </trkpt>
      <trkpt lat="40.748192" lon="-6.913309">
        <ele>713.751</ele>
        <time>2019-06-22T17:15:49Z</time>
      </trkpt>
      <trkpt lat="40.747929" lon="-6.913238">
        <ele>714.053</ele>
        <time>2019-06-22T17:15:50Z</time>
      </trkpt>
      <trkpt lat="40.747672" lon="-6.913185">
        <ele>715.145</ele>
        <time>2019-06-22T17:15:51Z</time>
      </trkpt>
      <trkpt lat="40.747406" lon="-6.913128">
        <ele>715.123</ele>
        <time>2019-06-22T17:15:52Z</time>
      </trkpt>
      <trkpt lat="40.747139" lon="-6.913058">
        <ele>715.282</ele>
        <time>2019-06-22T17:15:53Z</time>
      </trkpt>
      <trkpt lat="40.746879" lon="-6.912998">
        <ele>715.287</ele>
        <time>2019-06-22T17:15:54Z</time>
      </trkpt>
      <trkpt lat="40.746626" lon="-6.912931">
        <ele>715.250</ele>
        <time>2019-06-22T17:15:55Z</time>
      </trkpt>
      <trkpt lat="40.746382" lon="-6.912869">
        <ele>715.416</ele>
        <time>2019-06-22T17:15:56Z</time>
      </trkpt>
      <trkpt lat="40.746134" lon="-6.912804">
        <ele>715.576</ele>
        <time>2019-06-22T17:15:57Z</time>
      </trkpt>
      <trkpt lat="40.745875" lon="-6.912741">
        <ele>715.713</ele>
        <time>2019-06-22T17:15:58Z</time>
      </trkpt>
      <trkpt lat="40.745619" lon="-6.912677">
        <ele>715.808</ele>
        <time>2019-06-22T17:15:59Z</time>
      </trkpt>
      <trkpt lat="40.745351" lon="-6.912622">
        <ele>715.924</ele>
        <time>2019-06-22T17:16:00Z</time>
      </trkpt>
      <trkpt lat="40.745092" lon="-6.912561">
        <ele>715.998</ele>
        <time>2019-06-22T17:16:01Z</time>
      </trkpt>
      <trkpt lat="40.744836" lon="-6.912497">
        <ele>715.970</ele>
        <time>2019-06-22T17:16:02Z</time>
      </trkpt>
      <trkpt lat="40.744578" lon="-6.912421">
        <ele>715.872</ele>
        <time>2019-06-22T17:16:03Z</time>
      </trkpt>
      <trkpt lat="40.744322" lon="-6.912355">
        <ele>715.130</ele>
        <time>2019-06-22T17:16:04Z</time>
      </trkpt>
      <trkpt lat="40.744063" lon="-6.912287">
        <ele>713.559</ele>
        <time>2019-06-22T17:16:05Z</time>
      </trkpt>
      <trkpt lat="40.743807" lon="-6.912228">
        <ele>711.934</ele>
        <time>2019-06-22T17:16:06Z</time>
      </trkpt>
      <trkpt lat="40.743554" lon="-6.912169">
        <ele>710.687</ele>
        <time>2019-06-22T17:16:07Z</time>
      </trkpt>
      <trkpt lat="40.743295" lon="-6.912113">
        <ele>709.245</ele>
        <time>2019-06-22T17:16:08Z</time>
      </trkpt>
      <trkpt lat="40.743036" lon="-6.912046">
        <ele>708.947</ele>
        <time>2019-06-22T17:16:09Z</time>
      </trkpt>
      <trkpt lat="40.742783" lon="-6.911988">
        <ele>708.411</ele>
        <time>2019-06-22T17:16:10Z</time>
      </trkpt>
      <trkpt lat="40.742531" lon="-6.911931">
        <ele>708.208</ele>
        <time>2019-06-22T17:16:11Z</time>
      </trkpt>
      <trkpt lat="40.742287" lon="-6.911871">
        <ele>707.167</ele>
        <time>2019-06-22T17:16:12Z</time>
      </trkpt>
      <trkpt lat="40.742042" lon="-6.911804">
        <ele>705.731</ele>
        <time>2019-06-22T17:16:13Z</time>
      </trkpt>
      <trkpt lat="40.741791" lon="-6.911744">
        <ele>704.233</ele>
        <time>2019-06-22T17:16:14Z</time>
      </trkpt>
      <trkpt lat="40.741543" lon="-6.911682">
        <ele>703.785</ele>
        <time>2019-06-22T17:16:15Z</time>
      </trkpt>
      <trkpt lat="40.741297" lon="-6.911620">
        <ele>703.163</ele>
        <time>2019-06-22T17:16:16Z</time>
      </trkpt>
      <trkpt lat="40.741040" lon="-6.911559">
        <ele>703.142</ele>
        <time>2019-06-22T17:16:17Z</time>
      </trkpt>
      <trkpt lat="40.740797" lon="-6.911491">
        <ele>703.427</ele>
        <time>2019-06-22T17:16:18Z</time>
      </trkpt>
      <trkpt lat="40.740549" lon="-6.911438">
        <ele>703.450</ele>
        <time>2019-06-22T17:16:19Z</time>
      </trkpt>
      <trkpt lat="40.740303" lon="-6.911384">
        <ele>703.377</ele>
        <time>2019-06-22T17:16:20Z</time>
      </trkpt>
      <trkpt lat="40.740058" lon="-6.911320">
        <ele>703.361</ele>
        <time>2019-06-22T17:16:21Z</time>
      </trkpt>
      <trkpt lat="40.739807" lon="-6.911255">
        <ele>703.327</ele>
        <time>2019-06-22T17:16:22Z</time>
      </trkpt>
      <trkpt lat="40.739570" lon="-6.911195">
        <ele>703.408</ele>
        <time>2019-06-22T17:16:23Z</time>
      </trkpt>
      <trkpt lat="40.739337" lon="-6.911132">
        <ele>703.610</ele>
        <time>2019-06-22T17:16:24Z</time>
      </trkpt>
      <trkpt lat="40.739109" lon="-6.911073">
        <ele>704.154</ele>
        <time>2019-06-22T17:16:25Z</time>
      </trkpt>
      <trkpt lat="40.738869" lon="-6.911010">
        <ele>704.186</ele>
        <time>2019-06-22T17:16:26Z</time>
      </trkpt>
      <trkpt lat="40.738632" lon="-6.910950">
        <ele>704.648</ele>
        <time>2019-06-22T17:16:27Z</time>
      </trkpt>
      <trkpt lat="40.738388" lon="-6.910889">
        <ele>704.926</ele>
        <time>2019-06-22T17:16:28Z</time>
      </trkpt>
      <trkpt lat="40.738156" lon="-6.910827">
        <ele>705.645</ele>
        <time>2019-06-22T17:16:29Z</time>
      </trkpt>
      <trkpt lat="40.737915" lon="-6.910760">
        <ele>707.180</ele>
        <time>2019-06-22T17:16:30Z</time>
      </trkpt>
      <trkpt lat="40.737678" lon="-6.910702">
        <ele>707.683</ele>
        <time>2019-06-22T17:16:31Z</time>
      </trkpt>
      <trkpt lat="40.737445" lon="-6.910636">
        <ele>708.368</ele>
        <time>2019-06-22T17:16:32Z</time>
      </trkpt>
      <trkpt lat="40.737214" lon="-6.910572">
        <ele>709.542</ele>
        <time>2019-06-22T17:16:33Z</time>
      </trkpt>
      <trkpt lat="40.736985" lon="-6.910510">
        <ele>710.526</ele>
        <time>2019-06-22T17:16:34Z</time>
      </trkpt>
      <trkpt lat="40.736759" lon="-6.910457">
        <ele>711.108</ele>
        <time>2019-06-22T17:16:35Z</time>
      </trkpt>
      <trkpt lat="40.736535" lon="-6.910398">
        <ele>711.629</ele>
        <time>2019-06-22T17:16:36Z</time>
      </trkpt>
      <trkpt lat="40.736303" lon="-6.910335">
        <ele>711.893</ele>
        <time>2019-06-22T17:16:37Z</time>
      </trkpt>
      <trkpt lat="40.736066" lon="-6.910268">
        <ele>711.815</ele>
        <time>2019-06-22T17:16:38Z</time>
      </trkpt>
      <trkpt lat="40.735840" lon="-6.910213">
        <ele>711.817</ele>
        <time>2019-06-22T17:16:39Z</time>
      </trkpt>
      <trkpt lat="40.735619" lon="-6.910147">
        <ele>711.865</ele>
        <time>2019-06-22T17:16:40Z</time>
      </trkpt>
      <trkpt lat="40.735393" lon="-6.910090">
        <ele>712.454</ele>
        <time>2019-06-22T17:16:41Z</time>
      </trkpt>
      <trkpt lat="40.735183" lon="-6.910029">
        <ele>712.469</ele>
        <time>2019-06-22T17:16:42Z</time>
      </trkpt>
      <trkpt lat="40.734969" lon="-6.909978">
        <ele>712.772</ele>
        <time>2019-06-22T17:16:43Z</time>
      </trkpt>
      <trkpt lat="40.734759" lon="-6.909914">
        <ele>713.077</ele>
        <time>2019-06-22T17:16:44Z</time>
      </trkpt>
      <trkpt lat="40.734547" lon="-6.909863">
        <ele>713.561</ele>
        <time>2019-06-22T17:16:45Z</time>
      </trkpt>
      <trkpt lat="40.734347" lon="-6.909817">
        <ele>713.527</ele>
        <time>2019-06-22T17:16:46Z</time>
      </trkpt>
      <trkpt lat="40.734152" lon="-6.909758">
        <ele>713.908</ele>
        <time>2019-06-22T17:16:47Z</time>
      </trkpt>
      <trkpt lat="40.733962" lon="-6.909717">
        <ele>714.410</ele>
        <time>2019-06-22T17:16:48Z</time>
      </trkpt>
      <trkpt lat="40.733791" lon="-6.909669">
        <ele>714.734</ele>
        <time>2019-06-22T17:16:49Z</time>
      </trkpt>
      <trkpt lat="40.733620" lon="-6.909643">
        <ele>714.736</ele>
        <time>2019-06-22T17:16:50Z</time>
      </trkpt>
      <trkpt lat="40.733454" lon="-6.909601">
        <ele>715.158</ele>
        <time>2019-06-22T17:16:51Z</time>
      </trkpt>
      <trkpt lat="40.733307" lon="-6.909571">
        <ele>716.126</ele>
        <time>2019-06-22T17:16:52Z</time>
      </trkpt>
      <trkpt lat="40.733174" lon="-6.909532">
        <ele>716.695</ele>
        <time>2019-06-22T17:16:53Z</time>
      </trkpt>
      <trkpt lat="40.733026" lon="-6.909496">
        <ele>717.950</ele>
        <time>2019-06-22T17:16:54Z</time>
      </trkpt>
      <trkpt lat="40.732876" lon="-6.909467">
        <ele>719.473</ele>
        <time>2019-06-22T17:16:55Z</time>
      </trkpt>
      <trkpt lat="40.732718" lon="-6.909433">
        <ele>721.439</ele>
        <time>2019-06-22T17:16:56Z</time>
      </trkpt>
      <trkpt lat="40.732563" lon="-6.909395">
        <ele>722.701</ele>
        <time>2019-06-22T17:16:57Z</time>
      </trkpt>
      <trkpt lat="40.732407" lon="-6.909351">
        <ele>724.121</ele>
        <time>2019-06-22T17:16:58Z</time>
      </trkpt>
      <trkpt lat="40.732261" lon="-6.909298">
        <ele>725.308</ele>
        <time>2019-06-22T17:16:59Z</time>
      </trkpt>
      <trkpt lat="40.732103" lon="-6.909258">
        <ele>726.486</ele>
        <time>2019-06-22T17:17:00Z</time>
      </trkpt>
      <trkpt lat="40.731943" lon="-6.909212">
        <ele>726.980</ele>
        <time>2019-06-22T17:17:01Z</time>
      </trkpt>
      <trkpt lat="40.731781" lon="-6.909170">
        <ele>726.972</ele>
        <time>2019-06-22T17:17:02Z</time>
      </trkpt>
      <trkpt lat="40.731622" lon="-6.909117">
        <ele>726.574</ele>
        <time>2019-06-22T17:17:03Z</time>
      </trkpt>
      <trkpt lat="40.731462" lon="-6.909072">
        <ele>725.632</ele>
        <time>2019-06-22T17:17:04Z</time>
      </trkpt>
      <trkpt lat="40.731303" lon="-6.909068">
        <ele>725.061</ele>
        <time>2019-06-22T17:17:05Z</time>
      </trkpt>
      <trkpt lat="40.731161" lon="-6.909052">
        <ele>724.846</ele>
        <time>2019-06-22T17:17:06Z</time>
      </trkpt>
      <trkpt lat="40.731026" lon="-6.909042">
        <ele>724.839</ele>
        <time>2019-06-22T17:17:07Z</time>
      </trkpt>
      <trkpt lat="40.730892" lon="-6.909033">
        <ele>725.479</ele>
        <time>2019-06-22T17:17:08Z</time>
      </trkpt>
      <trkpt lat="40.730755" lon="-6.909032">
        <ele>726.305</ele>
        <time>2019-06-22T17:17:09Z</time>
      </trkpt>
      <trkpt lat="40.730622" lon="-6.909011">
        <ele>726.825</ele>
        <time>2019-06-22T17:17:10Z</time>
      </trkpt>
      <trkpt lat="40.730488" lon="-6.908984">
        <ele>727.008</ele>
        <time>2019-06-22T17:17:11Z</time>
      </trkpt>
      <trkpt lat="40.730365" lon="-6.908909">
        <ele>727.370</ele>
        <time>2019-06-22T17:17:12Z</time>
      </trkpt>
      <trkpt lat="40.730244" lon="-6.908824">
        <ele>727.314</ele>
        <time>2019-06-22T17:17:13Z</time>
      </trkpt>
      <trkpt lat="40.730137" lon="-6.908708">
        <ele>727.586</ele>
        <time>2019-06-22T17:17:14Z</time>
      </trkpt>
      <trkpt lat="40.730048" lon="-6.908587">
        <ele>727.988</ele>
        <time>2019-06-22T17:17:15Z</time>
      </trkpt>
      <trkpt lat="40.729962" lon="-6.908444">
        <ele>728.546</ele>
        <time>2019-06-22T17:17:16Z</time>
      </trkpt>
      <trkpt lat="40.729868" lon="-6.908305">
        <ele>728.525</ele>
        <time>2019-06-22T17:17:17Z</time>
      </trkpt>
      <trkpt lat="40.729805" lon="-6.908188">
        <ele>727.980</ele>
        <time>2019-06-22T17:17:18Z</time>
      </trkpt>
      <trkpt lat="40.729747" lon="-6.908048">
        <ele>727.653</ele>
        <time>2019-06-22T17:17:19Z</time>
      </trkpt>
      <trkpt lat="40.729707" lon="-6.907898">
        <ele>727.688</ele>
        <time>2019-06-22T17:17:20Z</time>
      </trkpt>
      <trkpt lat="40.729695" lon="-6.907745">
        <ele>728.024</ele>
        <time>2019-06-22T17:17:21Z</time>
      </trkpt>
      <trkpt lat="40.729701" lon="-6.907584">
        <ele>728.526</ele>
        <time>2019-06-22T17:17:22Z</time>
      </trkpt>
      <trkpt lat="40.729715" lon="-6.907398">
        <ele>729.508</ele>
        <time>2019-06-22T17:17:23Z</time>
      </trkpt>
      <trkpt lat="40.729738" lon="-6.907206">
        <ele>730.441</ele>
        <time>2019-06-22T17:17:24Z</time>
      </trkpt>
      <trkpt lat="40.729753" lon="-6.907015">
        <ele>730.625</ele>
        <time>2019-06-22T17:17:25Z</time>
      </trkpt>
      <trkpt lat="40.729765" lon="-6.906835">
        <ele>730.657</ele>
        <time>2019-06-22T17:17:26Z</time>
      </trkpt>
      <trkpt lat="40.729786" lon="-6.906629">
        <ele>730.569</ele>
        <time>2019-06-22T17:17:27Z</time>
      </trkpt>
      <trkpt lat="40.729799" lon="-6.906432">
        <ele>730.477</ele>
        <time>2019-06-22T17:17:28Z</time>
      </trkpt>
      <trkpt lat="40.729818" lon="-6.906240">
        <ele>730.416</ele>
        <time>2019-06-22T17:17:29Z</time>
      </trkpt>
      <trkpt lat="40.729835" lon="-6.906059">
        <ele>730.541</ele>
        <time>2019-06-22T17:17:30Z</time>
      </trkpt>
      <trkpt lat="40.729835" lon="-6.905869">
        <ele>730.674</ele>
        <time>2019-06-22T17:17:31Z</time>
      </trkpt>
      <trkpt lat="40.729847" lon="-6.905665">
        <ele>730.868</ele>
        <time>2019-06-22T17:17:32Z</time>
      </trkpt>
      <trkpt lat="40.729847" lon="-6.905452">
        <ele>731.042</ele>
        <time>2019-06-22T17:17:33Z</time>
      </trkpt>
      <trkpt lat="40.729853" lon="-6.905246">
        <ele>731.326</ele>
        <time>2019-06-22T17:17:34Z</time>
      </trkpt>
      <trkpt lat="40.729843" lon="-6.905036">
        <ele>731.308</ele>
        <time>2019-06-22T17:17:35Z</time>
      </trkpt>
      <trkpt lat="40.729842" lon="-6.904803">
        <ele>731.179</ele>
        <time>2019-06-22T17:17:36Z</time>
      </trkpt>
      <trkpt lat="40.729844" lon="-6.904593">
        <ele>730.883</ele>
        <time>2019-06-22T17:17:37Z</time>
      </trkpt>
      <trkpt lat="40.729856" lon="-6.904409">
        <ele>730.885</ele>
        <time>2019-06-22T17:17:38Z</time>
      </trkpt>
      <trkpt lat="40.729855" lon="-6.904225">
        <ele>730.777</ele>
        <time>2019-06-22T17:17:39Z</time>
      </trkpt>
      <trkpt lat="40.729859" lon="-6.904059">
        <ele>730.245</ele>
        <time>2019-06-22T17:17:40Z</time>
      </trkpt>
      <trkpt lat="40.729869" lon="-6.903897">
        <ele>729.474</ele>
        <time>2019-06-22T17:17:41Z</time>
      </trkpt>
      <trkpt lat="40.729871" lon="-6.903726">
        <ele>729.249</ele>
        <time>2019-06-22T17:17:42Z</time>
      </trkpt>
      <trkpt lat="40.729869" lon="-6.903554">
        <ele>729.272</ele>
        <time>2019-06-22T17:17:43Z</time>
      </trkpt>
      <trkpt lat="40.729867" lon="-6.903389">
        <ele>728.833</ele>
        <time>2019-06-22T17:17:44Z</time>
      </trkpt>
      <trkpt lat="40.729861" lon="-6.903220">
        <ele>728.623</ele>
        <time>2019-06-22T17:17:45Z</time>
      </trkpt>
      <trkpt lat="40.729831" lon="-6.903074">
        <ele>728.615</ele>
        <time>2019-06-22T17:17:46Z</time>
      </trkpt>
      <trkpt lat="40.729800" lon="-6.902921">
        <ele>728.508</ele>
        <time>2019-06-22T17:17:47Z</time>
      </trkpt>
      <trkpt lat="40.729745" lon="-6.902782">
        <ele>727.926</ele>
        <time>2019-06-22T17:17:48Z</time>
      </trkpt>
      <trkpt lat="40.729674" lon="-6.902639">
        <ele>727.130</ele>
        <time>2019-06-22T17:17:49Z</time>
      </trkpt>
      <trkpt lat="40.729583" lon="-6.902526">
        <ele>726.342</ele>
        <time>2019-06-22T17:17:50Z</time>
      </trkpt>
      <trkpt lat="40.729499" lon="-6.902439">
        <ele>725.084</ele>
        <time>2019-06-22T17:17:51Z</time>
      </trkpt>
      <trkpt lat="40.729394" lon="-6.902379">
        <ele>723.932</ele>
        <time>2019-06-22T17:17:52Z</time>
      </trkpt>
      <trkpt lat="40.729298" lon="-6.902316">
        <ele>723.911</ele>
        <time>2019-06-22T17:17:53Z</time>
      </trkpt>
      <trkpt lat="40.729205" lon="-6.902239">
        <ele>723.846</ele>
        <time>2019-06-22T17:17:54Z</time>
      </trkpt>
      <trkpt lat="40.729105" lon="-6.902159">
        <ele>723.959</ele>
        <time>2019-06-22T17:17:55Z</time>
      </trkpt>
      <trkpt lat="40.729002" lon="-6.902081">
        <ele>723.951</ele>
        <time>2019-06-22T17:17:56Z</time>
      </trkpt>
      <trkpt lat="40.728901" lon="-6.901985">
        <ele>723.901</ele>
        <time>2019-06-22T17:17:57Z</time>
      </trkpt>
      <trkpt lat="40.728815" lon="-6.901871">
        <ele>723.211</ele>
        <time>2019-06-22T17:17:58Z</time>
      </trkpt>
      <trkpt lat="40.728706" lon="-6.901775">
        <ele>722.208</ele>
        <time>2019-06-22T17:17:59Z</time>
      </trkpt>
      <trkpt lat="40.728588" lon="-6.901683">
        <ele>721.818</ele>
        <time>2019-06-22T17:18:00Z</time>
      </trkpt>
      <trkpt lat="40.728469" lon="-6.901596">
        <ele>721.442</ele>
        <time>2019-06-22T17:18:01Z</time>
      </trkpt>
      <trkpt lat="40.728359" lon="-6.901515">
        <ele>721.434</ele>
        <time>2019-06-22T17:18:02Z</time>
      </trkpt>
      <trkpt lat="40.728278" lon="-6.901468">
        <ele>722.066</ele>
        <time>2019-06-22T17:18:03Z</time>
      </trkpt>
      <trkpt lat="40.728185" lon="-6.901414">
        <ele>722.644</ele>
        <time>2019-06-22T17:18:04Z</time>
      </trkpt>
      <trkpt lat="40.728097" lon="-6.901361">
        <ele>722.953</ele>
        <time>2019-06-22T17:18:05Z</time>
      </trkpt>
      <trkpt lat="40.727996" lon="-6.901349">
        <ele>723.028</ele>
        <time>2019-06-22T17:18:06Z</time>
      </trkpt>
      <trkpt lat="40.727891" lon="-6.901341">
        <ele>723.611</ele>
        <time>2019-06-22T17:18:07Z</time>
      </trkpt>
      <trkpt lat="40.727807" lon="-6.901289">
        <ele>723.853</ele>
        <time>2019-06-22T17:18:08Z</time>
      </trkpt>
      <trkpt lat="40.727717" lon="-6.901233">
        <ele>723.804</ele>
        <time>2019-06-22T17:18:09Z</time>
      </trkpt>
      <trkpt lat="40.727604" lon="-6.901193">
        <ele>724.314</ele>
        <time>2019-06-22T17:18:10Z</time>
      </trkpt>
      <trkpt lat="40.727499" lon="-6.901156">
        <ele>724.308</ele>
        <time>2019-06-22T17:18:11Z</time>
      </trkpt>
      <trkpt lat="40.727408" lon="-6.901139">
        <ele>724.318</ele>
        <time>2019-06-22T17:18:12Z</time>
      </trkpt>
      <trkpt lat="40.727300" lon="-6.901110">
        <ele>723.882</ele>
        <time>2019-06-22T17:18:13Z</time>
      </trkpt>
      <trkpt lat="40.727216" lon="-6.901089">
        <ele>723.794</ele>
        <time>2019-06-22T17:18:14Z</time>
      </trkpt>
      <trkpt lat="40.727127" lon="-6.901073">
        <ele>723.756</ele>
        <time>2019-06-22T17:18:15Z</time>
      </trkpt>
      <trkpt lat="40.727057" lon="-6.901062">
        <ele>723.564</ele>
        <time>2019-06-22T17:18:16Z</time>
      </trkpt>
      <trkpt lat="40.726974" lon="-6.901049">
        <ele>723.213</ele>
        <time>2019-06-22T17:18:17Z</time>
      </trkpt>
      <trkpt lat="40.726897" lon="-6.901028">
        <ele>723.268</ele>
        <time>2019-06-22T17:18:18Z</time>
      </trkpt>
      <trkpt lat="40.726800" lon="-6.900992">
        <ele>723.571</ele>
        <time>2019-06-22T17:18:19Z</time>
      </trkpt>
      <trkpt lat="40.726733" lon="-6.900971">
        <ele>723.612</ele>
        <time>2019-06-22T17:18:20Z</time>
      </trkpt>
      <trkpt lat="40.726663" lon="-6.900958">
        <ele>723.732</ele>
        <time>2019-06-22T17:18:21Z</time>
      </trkpt>
      <trkpt lat="40.726615" lon="-6.900948">
        <ele>723.705</ele>
        <time>2019-06-22T17:18:22Z</time>
      </trkpt>
      <trkpt lat="40.726560" lon="-6.900931">
        <ele>723.708</ele>
        <time>2019-06-22T17:18:23Z</time>
      </trkpt>
      <trkpt lat="40.726515" lon="-6.900923">
        <ele>723.954</ele>
        <time>2019-06-22T17:18:24Z</time>
      </trkpt>
      <trkpt lat="40.726431" lon="-6.900918">
        <ele>724.498</ele>
        <time>2019-06-22T17:18:26Z</time>
      </trkpt>
      <trkpt lat="40.726370" lon="-6.900930">
        <ele>725.740</ele>
        <time>2019-06-22T17:18:28Z</time>
      </trkpt>
      <trkpt lat="40.726318" lon="-6.900940">
        <ele>728.382</ele>
        <time>2019-06-22T17:20:01Z</time>
      </trkpt>
      <trkpt lat="40.726257" lon="-6.900944">
        <ele>728.320</ele>
        <time>2019-06-22T17:20:02Z</time>
      </trkpt>
      <trkpt lat="40.726177" lon="-6.900942">
        <ele>728.549</ele>
        <time>2019-06-22T17:20:03Z</time>
      </trkpt>
      <trkpt lat="40.726094" lon="-6.900940">
        <ele>728.524</ele>
        <time>2019-06-22T17:20:04Z</time>
      </trkpt>
      <trkpt lat="40.725996" lon="-6.900953">
        <ele>728.597</ele>
        <time>2019-06-22T17:20:05Z</time>
      </trkpt>
      <trkpt lat="40.725891" lon="-6.900955">
        <ele>728.591</ele>
        <time>2019-06-22T17:20:06Z</time>
      </trkpt>
      <trkpt lat="40.725779" lon="-6.900970">
        <ele>728.581</ele>
        <time>2019-06-22T17:20:07Z</time>
      </trkpt>
      <trkpt lat="40.725688" lon="-6.900942">
        <ele>728.519</ele>
        <time>2019-06-22T17:20:08Z</time>
      </trkpt>
      <trkpt lat="40.725549" lon="-6.900940">
        <ele>728.508</ele>
        <time>2019-06-22T17:20:09Z</time>
      </trkpt>
      <trkpt lat="40.725433" lon="-6.900927">
        <ele>728.512</ele>
        <time>2019-06-22T17:20:10Z</time>
      </trkpt>
      <trkpt lat="40.725298" lon="-6.900947">
        <ele>728.746</ele>
        <time>2019-06-22T17:20:11Z</time>
      </trkpt>
      <trkpt lat="40.725172" lon="-6.900966">
        <ele>729.138</ele>
        <time>2019-06-22T17:20:12Z</time>
      </trkpt>
      <trkpt lat="40.725042" lon="-6.900991">
        <ele>729.160</ele>
        <time>2019-06-22T17:20:13Z</time>
      </trkpt>
      <trkpt lat="40.724900" lon="-6.901012">
        <ele>729.158</ele>
        <time>2019-06-22T17:20:14Z</time>
      </trkpt>
      <trkpt lat="40.724771" lon="-6.901023">
        <ele>729.367</ele>
        <time>2019-06-22T17:20:15Z</time>
      </trkpt>
      <trkpt lat="40.724645" lon="-6.901039">
        <ele>729.532</ele>
        <time>2019-06-22T17:20:16Z</time>
      </trkpt>
      <trkpt lat="40.724507" lon="-6.901037">
        <ele>729.695</ele>
        <time>2019-06-22T17:20:17Z</time>
      </trkpt>
      <trkpt lat="40.724378" lon="-6.901076">
        <ele>730.494</ele>
        <time>2019-06-22T17:20:18Z</time>
      </trkpt>
      <trkpt lat="40.724245" lon="-6.901100">
        <ele>731.957</ele>
        <time>2019-06-22T17:20:19Z</time>
      </trkpt>
      <trkpt lat="40.724120" lon="-6.901159">
        <ele>732.422</ele>
        <time>2019-06-22T17:20:20Z</time>
      </trkpt>
      <trkpt lat="40.723989" lon="-6.901217">
        <ele>732.908</ele>
        <time>2019-06-22T17:20:21Z</time>
      </trkpt>
      <trkpt lat="40.723858" lon="-6.901274">
        <ele>733.542</ele>
        <time>2019-06-22T17:20:22Z</time>
      </trkpt>
      <trkpt lat="40.723728" lon="-6.901345">
        <ele>734.256</ele>
        <time>2019-06-22T17:20:23Z</time>
      </trkpt>
      <trkpt lat="40.723604" lon="-6.901434">
        <ele>734.218</ele>
        <time>2019-06-22T17:20:24Z</time>
      </trkpt>
      <trkpt lat="40.723485" lon="-6.901527">
        <ele>734.250</ele>
        <time>2019-06-22T17:20:25Z</time>
      </trkpt>
      <trkpt lat="40.723365" lon="-6.901635">
        <ele>734.388</ele>
        <time>2019-06-22T17:20:26Z</time>
      </trkpt>
      <trkpt lat="40.723245" lon="-6.901751">
        <ele>734.337</ele>
        <time>2019-06-22T17:20:27Z</time>
      </trkpt>
      <trkpt lat="40.723146" lon="-6.901868">
        <ele>733.852</ele>
        <time>2019-06-22T17:20:28Z</time>
      </trkpt>
      <trkpt lat="40.723030" lon="-6.902006">
        <ele>733.895</ele>
        <time>2019-06-22T17:20:29Z</time>
      </trkpt>
      <trkpt lat="40.722924" lon="-6.902129">
        <ele>734.134</ele>
        <time>2019-06-22T17:20:30Z</time>
      </trkpt>
      <trkpt lat="40.722812" lon="-6.902255">
        <ele>734.255</ele>
        <time>2019-06-22T17:20:31Z</time>
      </trkpt>
      <trkpt lat="40.722718" lon="-6.902370">
        <ele>734.610</ele>
        <time>2019-06-22T17:20:32Z</time>
      </trkpt>
      <trkpt lat="40.722629" lon="-6.902490">
        <ele>735.008</ele>
        <time>2019-06-22T17:20:33Z</time>
      </trkpt>
      <trkpt lat="40.722557" lon="-6.902589">
        <ele>735.016</ele>
        <time>2019-06-22T17:20:34Z</time>
      </trkpt>
      <trkpt lat="40.722482" lon="-6.902686">
        <ele>734.930</ele>
        <time>2019-06-22T17:20:35Z</time>
      </trkpt>
      <trkpt lat="40.722462" lon="-6.902768">
        <ele>734.862</ele>
        <time>2019-06-22T17:20:36Z</time>
      </trkpt>
      <trkpt lat="40.722439" lon="-6.902851">
        <ele>734.834</ele>
        <time>2019-06-22T17:20:37Z</time>
      </trkpt>
      <trkpt lat="40.722418" lon="-6.902948">
        <ele>734.782</ele>
        <time>2019-06-22T17:20:38Z</time>
      </trkpt>
      <trkpt lat="40.722420" lon="-6.903043">
        <ele>734.611</ele>
        <time>2019-06-22T17:20:39Z</time>
      </trkpt>
      <trkpt lat="40.722424" lon="-6.903147">
        <ele>734.696</ele>
        <time>2019-06-22T17:20:40Z</time>
      </trkpt>
      <trkpt lat="40.722436" lon="-6.903263">
        <ele>734.749</ele>
        <time>2019-06-22T17:20:41Z</time>
      </trkpt>
      <trkpt lat="40.722440" lon="-6.903377">
        <ele>735.195</ele>
        <time>2019-06-22T17:20:42Z</time>
      </trkpt>
      <trkpt lat="40.722450" lon="-6.903504">
        <ele>735.449</ele>
        <time>2019-06-22T17:20:43Z</time>
      </trkpt>
      <trkpt lat="40.722461" lon="-6.903620">
        <ele>735.523</ele>
        <time>2019-06-22T17:20:44Z</time>
      </trkpt>
      <trkpt lat="40.722480" lon="-6.903742">
        <ele>735.708</ele>
        <time>2019-06-22T17:20:45Z</time>
      </trkpt>
      <trkpt lat="40.722444" lon="-6.903802">
        <ele>735.792</ele>
        <time>2019-06-22T17:20:46Z</time>
      </trkpt>
      <trkpt lat="40.722434" lon="-6.903877">
        <ele>735.796</ele>
        <time>2019-06-22T17:20:47Z</time>
      </trkpt>
      <trkpt lat="40.722408" lon="-6.903955">
        <ele>735.678</ele>
        <time>2019-06-22T17:20:48Z</time>
      </trkpt>
      <trkpt lat="40.722386" lon="-6.904008">
        <ele>735.390</ele>
        <time>2019-06-22T17:20:49Z</time>
      </trkpt>
      <trkpt lat="40.722340" lon="-6.904016">
        <ele>734.928</ele>
        <time>2019-06-22T17:20:50Z</time>
      </trkpt>
      <trkpt lat="40.722290" lon="-6.904023">
        <ele>734.427</ele>
        <time>2019-06-22T17:20:51Z</time>
      </trkpt>
      <trkpt lat="40.722211" lon="-6.903996">
        <ele>734.382</ele>
        <time>2019-06-22T17:20:52Z</time>
      </trkpt>
      <trkpt lat="40.722144" lon="-6.903955">
        <ele>734.215</ele>
        <time>2019-06-22T17:20:53Z</time>
      </trkpt>
      <trkpt lat="40.722078" lon="-6.903849">
        <ele>733.862</ele>
        <time>2019-06-22T17:20:54Z</time>
      </trkpt>
      <trkpt lat="40.721999" lon="-6.903751">
        <ele>733.483</ele>
        <time>2019-06-22T17:20:55Z</time>
      </trkpt>
      <trkpt lat="40.721885" lon="-6.903675">
        <ele>733.311</ele>
        <time>2019-06-22T17:20:56Z</time>
      </trkpt>
      <trkpt lat="40.721778" lon="-6.903589">
        <ele>733.208</ele>
        <time>2019-06-22T17:20:57Z</time>
      </trkpt>
      <trkpt lat="40.721647" lon="-6.903497">
        <ele>732.949</ele>
        <time>2019-06-22T17:20:58Z</time>
      </trkpt>
      <trkpt lat="40.721529" lon="-6.903388">
        <ele>732.723</ele>
        <time>2019-06-22T17:20:59Z</time>
      </trkpt>
      <trkpt lat="40.721397" lon="-6.903285">
        <ele>732.255</ele>
        <time>2019-06-22T17:21:00Z</time>
      </trkpt>
      <trkpt lat="40.721269" lon="-6.903164">
        <ele>731.177</ele>
        <time>2019-06-22T17:21:01Z</time>
      </trkpt>
      <trkpt lat="40.721149" lon="-6.903047">
        <ele>729.465</ele>
        <time>2019-06-22T17:21:02Z</time>
      </trkpt>
      <trkpt lat="40.721017" lon="-6.902935">
        <ele>728.254</ele>
        <time>2019-06-22T17:21:03Z</time>
      </trkpt>
      <trkpt lat="40.720887" lon="-6.902821">
        <ele>726.519</ele>
        <time>2019-06-22T17:21:04Z</time>
      </trkpt>
      <trkpt lat="40.720761" lon="-6.902725">
        <ele>726.172</ele>
        <time>2019-06-22T17:21:05Z</time>
      </trkpt>
      <trkpt lat="40.720647" lon="-6.902616">
        <ele>726.128</ele>
        <time>2019-06-22T17:21:06Z</time>
      </trkpt>
      <trkpt lat="40.720524" lon="-6.902507">
        <ele>726.389</ele>
        <time>2019-06-22T17:21:07Z</time>
      </trkpt>
      <trkpt lat="40.720406" lon="-6.902416">
        <ele>726.717</ele>
        <time>2019-06-22T17:21:08Z</time>
      </trkpt>
      <trkpt lat="40.720294" lon="-6.902302">
        <ele>726.808</ele>
        <time>2019-06-22T17:21:09Z</time>
      </trkpt>
      <trkpt lat="40.720177" lon="-6.902191">
        <ele>726.985</ele>
        <time>2019-06-22T17:21:10Z</time>
      </trkpt>
      <trkpt lat="40.720045" lon="-6.902082">
        <ele>726.869</ele>
        <time>2019-06-22T17:21:11Z</time>
      </trkpt>
      <trkpt lat="40.719921" lon="-6.901968">
        <ele>727.071</ele>
        <time>2019-06-22T17:21:12Z</time>
      </trkpt>
      <trkpt lat="40.719786" lon="-6.901861">
        <ele>727.083</ele>
        <time>2019-06-22T17:21:13Z</time>
      </trkpt>
      <trkpt lat="40.719661" lon="-6.901752">
        <ele>727.371</ele>
        <time>2019-06-22T17:21:14Z</time>
      </trkpt>
      <trkpt lat="40.719526" lon="-6.901635">
        <ele>728.080</ele>
        <time>2019-06-22T17:21:15Z</time>
      </trkpt>
      <trkpt lat="40.719403" lon="-6.901513">
        <ele>728.095</ele>
        <time>2019-06-22T17:21:16Z</time>
      </trkpt>
      <trkpt lat="40.719273" lon="-6.901399">
        <ele>728.198</ele>
        <time>2019-06-22T17:21:17Z</time>
      </trkpt>
      <trkpt lat="40.719138" lon="-6.901311">
        <ele>728.493</ele>
        <time>2019-06-22T17:21:18Z</time>
      </trkpt>
      <trkpt lat="40.718988" lon="-6.901262">
        <ele>728.465</ele>
        <time>2019-06-22T17:21:19Z</time>
      </trkpt>
      <trkpt lat="40.718837" lon="-6.901244">
        <ele>727.621</ele>
        <time>2019-06-22T17:21:20Z</time>
      </trkpt>
      <trkpt lat="40.718678" lon="-6.901222">
        <ele>726.708</ele>
        <time>2019-06-22T17:21:21Z</time>
      </trkpt>
      <trkpt lat="40.718511" lon="-6.901251">
        <ele>726.782</ele>
        <time>2019-06-22T17:21:22Z</time>
      </trkpt>
      <trkpt lat="40.718338" lon="-6.901256">
        <ele>726.716</ele>
        <time>2019-06-22T17:21:23Z</time>
      </trkpt>
      <trkpt lat="40.718162" lon="-6.901282">
        <ele>727.238</ele>
        <time>2019-06-22T17:21:24Z</time>
      </trkpt>
      <trkpt lat="40.717973" lon="-6.901308">
        <ele>727.780</ele>
        <time>2019-06-22T17:21:25Z</time>
      </trkpt>
      <trkpt lat="40.717780" lon="-6.901342">
        <ele>729.798</ele>
        <time>2019-06-22T17:21:26Z</time>
      </trkpt>
      <trkpt lat="40.717606" lon="-6.901364">
        <ele>731.187</ele>
        <time>2019-06-22T17:21:27Z</time>
      </trkpt>
      <trkpt lat="40.717435" lon="-6.901375">
        <ele>731.582</ele>
        <time>2019-06-22T17:21:28Z</time>
      </trkpt>
      <trkpt lat="40.717257" lon="-6.901398">
        <ele>731.815</ele>
        <time>2019-06-22T17:21:29Z</time>
      </trkpt>
      <trkpt lat="40.717078" lon="-6.901415">
        <ele>732.377</ele>
        <time>2019-06-22T17:21:30Z</time>
      </trkpt>
      <trkpt lat="40.716892" lon="-6.901415">
        <ele>732.361</ele>
        <time>2019-06-22T17:21:31Z</time>
      </trkpt>
      <trkpt lat="40.716705" lon="-6.901385">
        <ele>732.527</ele>
        <time>2019-06-22T17:21:32Z</time>
      </trkpt>
      <trkpt lat="40.716522" lon="-6.901327">
        <ele>732.608</ele>
        <time>2019-06-22T17:21:33Z</time>
      </trkpt>
      <trkpt lat="40.716330" lon="-6.901254">
        <ele>733.110</ele>
        <time>2019-06-22T17:21:34Z</time>
      </trkpt>
      <trkpt lat="40.716138" lon="-6.901171">
        <ele>733.334</ele>
        <time>2019-06-22T17:21:35Z</time>
      </trkpt>
      <trkpt lat="40.715940" lon="-6.901102">
        <ele>733.536</ele>
        <time>2019-06-22T17:21:36Z</time>
      </trkpt>
      <trkpt lat="40.715742" lon="-6.901028">
        <ele>733.568</ele>
        <time>2019-06-22T17:21:37Z</time>
      </trkpt>
      <trkpt lat="40.715536" lon="-6.900950">
        <ele>732.826</ele>
        <time>2019-06-22T17:21:38Z</time>
      </trkpt>
      <trkpt lat="40.715347" lon="-6.900867">
        <ele>732.555</ele>
        <time>2019-06-22T17:21:39Z</time>
      </trkpt>
      <trkpt lat="40.715148" lon="-6.900791">
        <ele>732.510</ele>
        <time>2019-06-22T17:21:40Z</time>
      </trkpt>
      <trkpt lat="40.714955" lon="-6.900716">
        <ele>732.733</ele>
        <time>2019-06-22T17:21:41Z</time>
      </trkpt>
      <trkpt lat="40.714770" lon="-6.900622">
        <ele>733.157</ele>
        <time>2019-06-22T17:21:42Z</time>
      </trkpt>
      <trkpt lat="40.714585" lon="-6.900526">
        <ele>734.400</ele>
        <time>2019-06-22T17:21:43Z</time>
      </trkpt>
      <trkpt lat="40.714408" lon="-6.900428">
        <ele>736.020</ele>
        <time>2019-06-22T17:21:44Z</time>
      </trkpt>
      <trkpt lat="40.714243" lon="-6.900257">
        <ele>737.308</ele>
        <time>2019-06-22T17:21:45Z</time>
      </trkpt>
      <trkpt lat="40.714069" lon="-6.900097">
        <ele>738.748</ele>
        <time>2019-06-22T17:21:46Z</time>
      </trkpt>
      <trkpt lat="40.713916" lon="-6.899952">
        <ele>739.722</ele>
        <time>2019-06-22T17:21:47Z</time>
      </trkpt>
      <trkpt lat="40.713751" lon="-6.899798">
        <ele>739.854</ele>
        <time>2019-06-22T17:21:48Z</time>
      </trkpt>
      <trkpt lat="40.713588" lon="-6.899639">
        <ele>740.296</ele>
        <time>2019-06-22T17:21:49Z</time>
      </trkpt>
      <trkpt lat="40.713412" lon="-6.899474">
        <ele>740.354</ele>
        <time>2019-06-22T17:21:50Z</time>
      </trkpt>
      <trkpt lat="40.713233" lon="-6.899303">
        <ele>740.323</ele>
        <time>2019-06-22T17:21:51Z</time>
      </trkpt>
      <trkpt lat="40.713071" lon="-6.899160">
        <ele>740.828</ele>
        <time>2019-06-22T17:21:52Z</time>
      </trkpt>
      <trkpt lat="40.712905" lon="-6.899004">
        <ele>741.221</ele>
        <time>2019-06-22T17:21:53Z</time>
      </trkpt>
      <trkpt lat="40.712750" lon="-6.898857">
        <ele>741.852</ele>
        <time>2019-06-22T17:21:54Z</time>
      </trkpt>
      <trkpt lat="40.712598" lon="-6.898731">
        <ele>742.253</ele>
        <time>2019-06-22T17:21:55Z</time>
      </trkpt>
      <trkpt lat="40.712432" lon="-6.898620">
        <ele>742.408</ele>
        <time>2019-06-22T17:21:56Z</time>
      </trkpt>
      <trkpt lat="40.712259" lon="-6.898537">
        <ele>742.608</ele>
        <time>2019-06-22T17:21:57Z</time>
      </trkpt>
      <trkpt lat="40.712071" lon="-6.898470">
        <ele>743.038</ele>
        <time>2019-06-22T17:21:58Z</time>
      </trkpt>
      <trkpt lat="40.711882" lon="-6.898397">
        <ele>744.142</ele>
        <time>2019-06-22T17:21:59Z</time>
      </trkpt>
      <trkpt lat="40.711683" lon="-6.898320">
        <ele>745.414</ele>
        <time>2019-06-22T17:22:00Z</time>
      </trkpt>
      <trkpt lat="40.711479" lon="-6.898233">
        <ele>746.596</ele>
        <time>2019-06-22T17:22:01Z</time>
      </trkpt>
      <trkpt lat="40.711280" lon="-6.898166">
        <ele>747.644</ele>
        <time>2019-06-22T17:22:02Z</time>
      </trkpt>
      <trkpt lat="40.711069" lon="-6.898111">
        <ele>747.643</ele>
        <time>2019-06-22T17:22:03Z</time>
      </trkpt>
      <trkpt lat="40.710867" lon="-6.898041">
        <ele>746.778</ele>
        <time>2019-06-22T17:22:04Z</time>
      </trkpt>
      <trkpt lat="40.710659" lon="-6.897968">
        <ele>746.761</ele>
        <time>2019-06-22T17:22:05Z</time>
      </trkpt>
      <trkpt lat="40.710444" lon="-6.897898">
        <ele>746.744</ele>
        <time>2019-06-22T17:22:06Z</time>
      </trkpt>
      <trkpt lat="40.710233" lon="-6.897826">
        <ele>747.105</ele>
        <time>2019-06-22T17:22:07Z</time>
      </trkpt>
      <trkpt lat="40.710014" lon="-6.897761">
        <ele>747.315</ele>
        <time>2019-06-22T17:22:08Z</time>
      </trkpt>
      <trkpt lat="40.709785" lon="-6.897698">
        <ele>748.208</ele>
        <time>2019-06-22T17:22:09Z</time>
      </trkpt>
      <trkpt lat="40.709570" lon="-6.897621">
        <ele>748.287</ele>
        <time>2019-06-22T17:22:10Z</time>
      </trkpt>
      <trkpt lat="40.709336" lon="-6.897545">
        <ele>748.021</ele>
        <time>2019-06-22T17:22:11Z</time>
      </trkpt>
      <trkpt lat="40.709124" lon="-6.897463">
        <ele>747.283</ele>
        <time>2019-06-22T17:22:12Z</time>
      </trkpt>
      <trkpt lat="40.708894" lon="-6.897387">
        <ele>747.175</ele>
        <time>2019-06-22T17:22:13Z</time>
      </trkpt>
      <trkpt lat="40.708665" lon="-6.897304">
        <ele>747.163</ele>
        <time>2019-06-22T17:22:14Z</time>
      </trkpt>
      <trkpt lat="40.708432" lon="-6.897236">
        <ele>746.712</ele>
        <time>2019-06-22T17:22:15Z</time>
      </trkpt>
      <trkpt lat="40.708200" lon="-6.897157">
        <ele>746.727</ele>
        <time>2019-06-22T17:22:16Z</time>
      </trkpt>
      <trkpt lat="40.707976" lon="-6.897080">
        <ele>746.350</ele>
        <time>2019-06-22T17:22:17Z</time>
      </trkpt>
      <trkpt lat="40.707748" lon="-6.897005">
        <ele>746.343</ele>
        <time>2019-06-22T17:22:18Z</time>
      </trkpt>
      <trkpt lat="40.707517" lon="-6.896926">
        <ele>746.364</ele>
        <time>2019-06-22T17:22:19Z</time>
      </trkpt>
      <trkpt lat="40.707287" lon="-6.896846">
        <ele>746.110</ele>
        <time>2019-06-22T17:22:20Z</time>
      </trkpt>
      <trkpt lat="40.707054" lon="-6.896772">
        <ele>746.108</ele>
        <time>2019-06-22T17:22:21Z</time>
      </trkpt>
      <trkpt lat="40.706837" lon="-6.896707">
        <ele>746.617</ele>
        <time>2019-06-22T17:22:22Z</time>
      </trkpt>
      <trkpt lat="40.706622" lon="-6.896636">
        <ele>746.821</ele>
        <time>2019-06-22T17:22:23Z</time>
      </trkpt>
      <trkpt lat="40.706413" lon="-6.896564">
        <ele>746.833</ele>
        <time>2019-06-22T17:22:24Z</time>
      </trkpt>
      <trkpt lat="40.706211" lon="-6.896498">
        <ele>746.315</ele>
        <time>2019-06-22T17:22:25Z</time>
      </trkpt>
      <trkpt lat="40.706025" lon="-6.896433">
        <ele>745.013</ele>
        <time>2019-06-22T17:22:26Z</time>
      </trkpt>
      <trkpt lat="40.705847" lon="-6.896368">
        <ele>744.142</ele>
        <time>2019-06-22T17:22:27Z</time>
      </trkpt>
      <trkpt lat="40.705684" lon="-6.896292">
        <ele>743.997</ele>
        <time>2019-06-22T17:22:28Z</time>
      </trkpt>
      <trkpt lat="40.705523" lon="-6.896217">
        <ele>743.970</ele>
        <time>2019-06-22T17:22:29Z</time>
      </trkpt>
      <trkpt lat="40.705370" lon="-6.896111">
        <ele>744.922</ele>
        <time>2019-06-22T17:22:30Z</time>
      </trkpt>
      <trkpt lat="40.705224" lon="-6.895969">
        <ele>747.062</ele>
        <time>2019-06-22T17:22:31Z</time>
      </trkpt>
      <trkpt lat="40.705079" lon="-6.895814">
        <ele>749.508</ele>
        <time>2019-06-22T17:22:32Z</time>
      </trkpt>
      <trkpt lat="40.704932" lon="-6.895651">
        <ele>750.908</ele>
        <time>2019-06-22T17:22:33Z</time>
      </trkpt>
      <trkpt lat="40.704776" lon="-6.895487">
        <ele>752.135</ele>
        <time>2019-06-22T17:22:34Z</time>
      </trkpt>
      <trkpt lat="40.704612" lon="-6.895320">
        <ele>752.169</ele>
        <time>2019-06-22T17:22:35Z</time>
      </trkpt>
      <trkpt lat="40.704441" lon="-6.895135">
        <ele>751.841</ele>
        <time>2019-06-22T17:22:36Z</time>
      </trkpt>
      <trkpt lat="40.704272" lon="-6.894947">
        <ele>751.433</ele>
        <time>2019-06-22T17:22:37Z</time>
      </trkpt>
      <trkpt lat="40.704090" lon="-6.894747">
        <ele>750.881</ele>
        <time>2019-06-22T17:22:38Z</time>
      </trkpt>
      <trkpt lat="40.703921" lon="-6.894554">
        <ele>750.520</ele>
        <time>2019-06-22T17:22:39Z</time>
      </trkpt>
      <trkpt lat="40.703751" lon="-6.894366">
        <ele>749.415</ele>
        <time>2019-06-22T17:22:40Z</time>
      </trkpt>
      <trkpt lat="40.703561" lon="-6.894160">
        <ele>748.648</ele>
        <time>2019-06-22T17:22:41Z</time>
      </trkpt>
      <trkpt lat="40.703381" lon="-6.893965">
        <ele>748.553</ele>
        <time>2019-06-22T17:22:42Z</time>
      </trkpt>
      <trkpt lat="40.703200" lon="-6.893769">
        <ele>748.304</ele>
        <time>2019-06-22T17:22:43Z</time>
      </trkpt>
      <trkpt lat="40.703014" lon="-6.893563">
        <ele>747.814</ele>
        <time>2019-06-22T17:22:44Z</time>
      </trkpt>
      <trkpt lat="40.702820" lon="-6.893355">
        <ele>747.808</ele>
        <time>2019-06-22T17:22:45Z</time>
      </trkpt>
      <trkpt lat="40.702642" lon="-6.893151">
        <ele>748.268</ele>
        <time>2019-06-22T17:22:46Z</time>
      </trkpt>
      <trkpt lat="40.702456" lon="-6.892948">
        <ele>748.262</ele>
        <time>2019-06-22T17:22:47Z</time>
      </trkpt>
      <trkpt lat="40.702271" lon="-6.892743">
        <ele>746.584</ele>
        <time>2019-06-22T17:22:48Z</time>
      </trkpt>
      <trkpt lat="40.702080" lon="-6.892529">
        <ele>746.526</ele>
        <time>2019-06-22T17:22:49Z</time>
      </trkpt>
      <trkpt lat="40.701879" lon="-6.892316">
        <ele>746.464</ele>
        <time>2019-06-22T17:22:50Z</time>
      </trkpt>
      <trkpt lat="40.701690" lon="-6.892109">
        <ele>746.633</ele>
        <time>2019-06-22T17:22:51Z</time>
      </trkpt>
      <trkpt lat="40.701495" lon="-6.891891">
        <ele>746.658</ele>
        <time>2019-06-22T17:22:52Z</time>
      </trkpt>
      <trkpt lat="40.701297" lon="-6.891696">
        <ele>747.111</ele>
        <time>2019-06-22T17:22:53Z</time>
      </trkpt>
      <trkpt lat="40.701114" lon="-6.891488">
        <ele>747.174</ele>
        <time>2019-06-22T17:22:54Z</time>
      </trkpt>
      <trkpt lat="40.700929" lon="-6.891280">
        <ele>746.656</ele>
        <time>2019-06-22T17:22:55Z</time>
      </trkpt>
      <trkpt lat="40.700742" lon="-6.891069">
        <ele>746.321</ele>
        <time>2019-06-22T17:22:56Z</time>
      </trkpt>
      <trkpt lat="40.700547" lon="-6.890863">
        <ele>746.108</ele>
        <time>2019-06-22T17:22:57Z</time>
      </trkpt>
      <trkpt lat="40.700356" lon="-6.890653">
        <ele>746.150</ele>
        <time>2019-06-22T17:22:58Z</time>
      </trkpt>
      <trkpt lat="40.700175" lon="-6.890451">
        <ele>746.014</ele>
        <time>2019-06-22T17:22:59Z</time>
      </trkpt>
      <trkpt lat="40.699987" lon="-6.890248">
        <ele>746.066</ele>
        <time>2019-06-22T17:23:00Z</time>
      </trkpt>
      <trkpt lat="40.699797" lon="-6.890045">
        <ele>746.438</ele>
        <time>2019-06-22T17:23:01Z</time>
      </trkpt>
      <trkpt lat="40.699607" lon="-6.889855">
        <ele>747.446</ele>
        <time>2019-06-22T17:23:02Z</time>
      </trkpt>
      <trkpt lat="40.699420" lon="-6.889650">
        <ele>748.265</ele>
        <time>2019-06-22T17:23:03Z</time>
      </trkpt>
      <trkpt lat="40.699238" lon="-6.889465">
        <ele>749.360</ele>
        <time>2019-06-22T17:23:04Z</time>
      </trkpt>
      <trkpt lat="40.699066" lon="-6.889285">
        <ele>750.193</ele>
        <time>2019-06-22T17:23:05Z</time>
      </trkpt>
      <trkpt lat="40.698903" lon="-6.889103">
        <ele>750.112</ele>
        <time>2019-06-22T17:23:06Z</time>
      </trkpt>
      <trkpt lat="40.698750" lon="-6.888939">
        <ele>749.132</ele>
        <time>2019-06-22T17:23:07Z</time>
      </trkpt>
      <trkpt lat="40.698600" lon="-6.888776">
        <ele>748.205</ele>
        <time>2019-06-22T17:23:08Z</time>
      </trkpt>
      <trkpt lat="40.698461" lon="-6.888624">
        <ele>746.908</ele>
        <time>2019-06-22T17:23:09Z</time>
      </trkpt>
      <trkpt lat="40.698317" lon="-6.888457">
        <ele>746.964</ele>
        <time>2019-06-22T17:23:10Z</time>
      </trkpt>
      <trkpt lat="40.698180" lon="-6.888271">
        <ele>747.268</ele>
        <time>2019-06-22T17:23:11Z</time>
      </trkpt>
      <trkpt lat="40.698039" lon="-6.888065">
        <ele>748.910</ele>
        <time>2019-06-22T17:23:12Z</time>
      </trkpt>
      <trkpt lat="40.697907" lon="-6.887840">
        <ele>750.862</ele>
        <time>2019-06-22T17:23:13Z</time>
      </trkpt>
      <trkpt lat="40.697776" lon="-6.887596">
        <ele>752.270</ele>
        <time>2019-06-22T17:23:14Z</time>
      </trkpt>
      <trkpt lat="40.697643" lon="-6.887355">
        <ele>752.229</ele>
        <time>2019-06-22T17:23:15Z</time>
      </trkpt>
      <trkpt lat="40.697513" lon="-6.887105">
        <ele>751.644</ele>
        <time>2019-06-22T17:23:16Z</time>
      </trkpt>
      <trkpt lat="40.697374" lon="-6.886851">
        <ele>750.357</ele>
        <time>2019-06-22T17:23:17Z</time>
      </trkpt>
      <trkpt lat="40.697239" lon="-6.886608">
        <ele>748.912</ele>
        <time>2019-06-22T17:23:18Z</time>
      </trkpt>
      <trkpt lat="40.697105" lon="-6.886359">
        <ele>748.232</ele>
        <time>2019-06-22T17:23:19Z</time>
      </trkpt>
      <trkpt lat="40.696972" lon="-6.886107">
        <ele>748.005</ele>
        <time>2019-06-22T17:23:20Z</time>
      </trkpt>
      <trkpt lat="40.696831" lon="-6.885861">
        <ele>748.008</ele>
        <time>2019-06-22T17:23:21Z</time>
      </trkpt>
      <trkpt lat="40.696691" lon="-6.885604">
        <ele>747.984</ele>
        <time>2019-06-22T17:23:22Z</time>
      </trkpt>
      <trkpt lat="40.696543" lon="-6.885344">
        <ele>747.448</ele>
        <time>2019-06-22T17:23:23Z</time>
      </trkpt>
      <trkpt lat="40.696395" lon="-6.885082">
        <ele>746.310</ele>
        <time>2019-06-22T17:23:24Z</time>
      </trkpt>
      <trkpt lat="40.696252" lon="-6.884820">
        <ele>746.352</ele>
        <time>2019-06-22T17:23:25Z</time>
      </trkpt>
      <trkpt lat="40.696110" lon="-6.884566">
        <ele>745.620</ele>
        <time>2019-06-22T17:23:26Z</time>
      </trkpt>
      <trkpt lat="40.695973" lon="-6.884325">
        <ele>745.179</ele>
        <time>2019-06-22T17:23:27Z</time>
      </trkpt>
      <trkpt lat="40.695830" lon="-6.884080">
        <ele>744.374</ele>
        <time>2019-06-22T17:23:28Z</time>
      </trkpt>
      <trkpt lat="40.695697" lon="-6.883835">
        <ele>743.797</ele>
        <time>2019-06-22T17:23:29Z</time>
      </trkpt>
      <trkpt lat="40.695564" lon="-6.883591">
        <ele>742.767</ele>
        <time>2019-06-22T17:23:30Z</time>
      </trkpt>
      <trkpt lat="40.695431" lon="-6.883352">
        <ele>741.381</ele>
        <time>2019-06-22T17:23:31Z</time>
      </trkpt>
      <trkpt lat="40.695296" lon="-6.883106">
        <ele>740.819</ele>
        <time>2019-06-22T17:23:32Z</time>
      </trkpt>
      <trkpt lat="40.695170" lon="-6.882881">
        <ele>740.708</ele>
        <time>2019-06-22T17:23:33Z</time>
      </trkpt>
      <trkpt lat="40.695046" lon="-6.882659">
        <ele>740.399</ele>
        <time>2019-06-22T17:23:34Z</time>
      </trkpt>
      <trkpt lat="40.694916" lon="-6.882447">
        <ele>740.023</ele>
        <time>2019-06-22T17:23:35Z</time>
      </trkpt>
      <trkpt lat="40.694776" lon="-6.882248">
        <ele>740.065</ele>
        <time>2019-06-22T17:23:36Z</time>
      </trkpt>
      <trkpt lat="40.694618" lon="-6.882060">
        <ele>739.987</ele>
        <time>2019-06-22T17:23:37Z</time>
      </trkpt>
      <trkpt lat="40.694446" lon="-6.881884">
        <ele>739.865</ele>
        <time>2019-06-22T17:23:38Z</time>
      </trkpt>
      <trkpt lat="40.694256" lon="-6.881712">
        <ele>739.864</ele>
        <time>2019-06-22T17:23:39Z</time>
      </trkpt>
      <trkpt lat="40.694068" lon="-6.881533">
        <ele>741.549</ele>
        <time>2019-06-22T17:23:40Z</time>
      </trkpt>
      <trkpt lat="40.693874" lon="-6.881334">
        <ele>742.912</ele>
        <time>2019-06-22T17:23:41Z</time>
      </trkpt>
      <trkpt lat="40.693690" lon="-6.881155">
        <ele>743.543</ele>
        <time>2019-06-22T17:23:42Z</time>
      </trkpt>
      <trkpt lat="40.693498" lon="-6.880974">
        <ele>743.764</ele>
        <time>2019-06-22T17:23:43Z</time>
      </trkpt>
      <trkpt lat="40.693308" lon="-6.880789">
        <ele>744.210</ele>
        <time>2019-06-22T17:23:44Z</time>
      </trkpt>
      <trkpt lat="40.693120" lon="-6.880622">
        <ele>744.308</ele>
        <time>2019-06-22T17:23:45Z</time>
      </trkpt>
      <trkpt lat="40.692931" lon="-6.880448">
        <ele>744.447</ele>
        <time>2019-06-22T17:23:46Z</time>
      </trkpt>
      <trkpt lat="40.692740" lon="-6.880272">
        <ele>744.561</ele>
        <time>2019-06-22T17:23:47Z</time>
      </trkpt>
      <trkpt lat="40.692552" lon="-6.880093">
        <ele>746.153</ele>
        <time>2019-06-22T17:23:48Z</time>
      </trkpt>
      <trkpt lat="40.692359" lon="-6.879909">
        <ele>747.185</ele>
        <time>2019-06-22T17:23:49Z</time>
      </trkpt>
      <trkpt lat="40.692167" lon="-6.879726">
        <ele>748.153</ele>
        <time>2019-06-22T17:23:50Z</time>
      </trkpt>
      <trkpt lat="40.691977" lon="-6.879532">
        <ele>749.152</ele>
        <time>2019-06-22T17:23:51Z</time>
      </trkpt>
      <trkpt lat="40.691783" lon="-6.879344">
        <ele>749.417</ele>
        <time>2019-06-22T17:23:52Z</time>
      </trkpt>
      <trkpt lat="40.691595" lon="-6.879158">
        <ele>749.440</ele>
        <time>2019-06-22T17:23:53Z</time>
      </trkpt>
      <trkpt lat="40.691405" lon="-6.878961">
        <ele>748.413</ele>
        <time>2019-06-22T17:23:54Z</time>
      </trkpt>
      <trkpt lat="40.691204" lon="-6.878777">
        <ele>748.243</ele>
        <time>2019-06-22T17:23:55Z</time>
      </trkpt>
      <trkpt lat="40.691008" lon="-6.878568">
        <ele>748.007</ele>
        <time>2019-06-22T17:23:56Z</time>
      </trkpt>
      <trkpt lat="40.690817" lon="-6.878387">
        <ele>748.008</ele>
        <time>2019-06-22T17:23:57Z</time>
      </trkpt>
      <trkpt lat="40.690653" lon="-6.878240">
        <ele>748.534</ele>
        <time>2019-06-22T17:23:58Z</time>
      </trkpt>
      <trkpt lat="40.690466" lon="-6.878059">
        <ele>749.038</ele>
        <time>2019-06-22T17:23:59Z</time>
      </trkpt>
      <trkpt lat="40.690295" lon="-6.877883">
        <ele>749.090</ele>
        <time>2019-06-22T17:24:00Z</time>
      </trkpt>
      <trkpt lat="40.690117" lon="-6.877715">
        <ele>748.752</ele>
        <time>2019-06-22T17:24:01Z</time>
      </trkpt>
      <trkpt lat="40.689939" lon="-6.877548">
        <ele>748.340</ele>
        <time>2019-06-22T17:24:02Z</time>
      </trkpt>
      <trkpt lat="40.689763" lon="-6.877382">
        <ele>747.949</ele>
        <time>2019-06-22T17:24:03Z</time>
      </trkpt>
      <trkpt lat="40.689580" lon="-6.877227">
        <ele>747.944</ele>
        <time>2019-06-22T17:24:04Z</time>
      </trkpt>
      <trkpt lat="40.689406" lon="-6.877066">
        <ele>748.317</ele>
        <time>2019-06-22T17:24:05Z</time>
      </trkpt>
      <trkpt lat="40.689280" lon="-6.876914">
        <ele>748.561</ele>
        <time>2019-06-22T17:24:06Z</time>
      </trkpt>
      <trkpt lat="40.689127" lon="-6.876781">
        <ele>748.721</ele>
        <time>2019-06-22T17:24:07Z</time>
      </trkpt>
      <trkpt lat="40.688976" lon="-6.876642">
        <ele>748.913</ele>
        <time>2019-06-22T17:24:08Z</time>
      </trkpt>
      <trkpt lat="40.688810" lon="-6.876533">
        <ele>749.108</ele>
        <time>2019-06-22T17:24:09Z</time>
      </trkpt>
      <trkpt lat="40.688647" lon="-6.876425">
        <ele>749.159</ele>
        <time>2019-06-22T17:24:10Z</time>
      </trkpt>
      <trkpt lat="40.688499" lon="-6.876330">
        <ele>749.163</ele>
        <time>2019-06-22T17:24:11Z</time>
      </trkpt>
      <trkpt lat="40.688338" lon="-6.876231">
        <ele>750.425</ele>
        <time>2019-06-22T17:24:12Z</time>
      </trkpt>
      <trkpt lat="40.688178" lon="-6.876132">
        <ele>751.917</ele>
        <time>2019-06-22T17:24:13Z</time>
      </trkpt>
      <trkpt lat="40.688000" lon="-6.876048">
        <ele>753.145</ele>
        <time>2019-06-22T17:24:14Z</time>
      </trkpt>
      <trkpt lat="40.687806" lon="-6.875961">
        <ele>754.094</ele>
        <time>2019-06-22T17:24:15Z</time>
      </trkpt>
      <trkpt lat="40.687616" lon="-6.875864">
        <ele>755.159</ele>
        <time>2019-06-22T17:24:16Z</time>
      </trkpt>
      <trkpt lat="40.687420" lon="-6.875747">
        <ele>756.192</ele>
        <time>2019-06-22T17:24:17Z</time>
      </trkpt>
      <trkpt lat="40.687239" lon="-6.875605">
        <ele>756.567</ele>
        <time>2019-06-22T17:24:18Z</time>
      </trkpt>
      <trkpt lat="40.687046" lon="-6.875465">
        <ele>756.581</ele>
        <time>2019-06-22T17:24:19Z</time>
      </trkpt>
      <trkpt lat="40.686866" lon="-6.875314">
        <ele>756.319</ele>
        <time>2019-06-22T17:24:20Z</time>
      </trkpt>
      <trkpt lat="40.686686" lon="-6.875159">
        <ele>756.208</ele>
        <time>2019-06-22T17:24:21Z</time>
      </trkpt>
      <trkpt lat="40.686502" lon="-6.875013">
        <ele>756.259</ele>
        <time>2019-06-22T17:24:22Z</time>
      </trkpt>
      <trkpt lat="40.686315" lon="-6.874888">
        <ele>756.423</ele>
        <time>2019-06-22T17:24:23Z</time>
      </trkpt>
      <trkpt lat="40.686133" lon="-6.874754">
        <ele>757.345</ele>
        <time>2019-06-22T17:24:24Z</time>
      </trkpt>
      <trkpt lat="40.685969" lon="-6.874619">
        <ele>758.167</ele>
        <time>2019-06-22T17:24:25Z</time>
      </trkpt>
      <trkpt lat="40.685811" lon="-6.874481">
        <ele>759.695</ele>
        <time>2019-06-22T17:24:26Z</time>
      </trkpt>
      <trkpt lat="40.685643" lon="-6.874353">
        <ele>761.264</ele>
        <time>2019-06-22T17:24:27Z</time>
      </trkpt>
      <trkpt lat="40.685486" lon="-6.874249">
        <ele>761.479</ele>
        <time>2019-06-22T17:24:28Z</time>
      </trkpt>
      <trkpt lat="40.685335" lon="-6.874130">
        <ele>761.412</ele>
        <time>2019-06-22T17:24:29Z</time>
      </trkpt>
      <trkpt lat="40.685200" lon="-6.874018">
        <ele>760.831</ele>
        <time>2019-06-22T17:24:30Z</time>
      </trkpt>
      <trkpt lat="40.685080" lon="-6.873882">
        <ele>760.161</ele>
        <time>2019-06-22T17:24:31Z</time>
      </trkpt>
      <trkpt lat="40.684946" lon="-6.873734">
        <ele>760.107</ele>
        <time>2019-06-22T17:24:32Z</time>
      </trkpt>
      <trkpt lat="40.684829" lon="-6.873570">
        <ele>759.708</ele>
        <time>2019-06-22T17:24:33Z</time>
      </trkpt>
      <trkpt lat="40.684758" lon="-6.873345">
        <ele>759.786</ele>
        <time>2019-06-22T17:24:34Z</time>
      </trkpt>
      <trkpt lat="40.684671" lon="-6.873142">
        <ele>759.770</ele>
        <time>2019-06-22T17:24:35Z</time>
      </trkpt>
      <trkpt lat="40.684570" lon="-6.872927">
        <ele>759.832</ele>
        <time>2019-06-22T17:24:36Z</time>
      </trkpt>
      <trkpt lat="40.684474" lon="-6.872709">
        <ele>759.884</ele>
        <time>2019-06-22T17:24:37Z</time>
      </trkpt>
      <trkpt lat="40.684380" lon="-6.872498">
        <ele>759.012</ele>
        <time>2019-06-22T17:24:38Z</time>
      </trkpt>
      <trkpt lat="40.684291" lon="-6.872260">
        <ele>758.351</ele>
        <time>2019-06-22T17:24:39Z</time>
      </trkpt>
      <trkpt lat="40.684217" lon="-6.872022">
        <ele>757.956</ele>
        <time>2019-06-22T17:24:40Z</time>
      </trkpt>
      <trkpt lat="40.684130" lon="-6.871801">
        <ele>757.639</ele>
        <time>2019-06-22T17:24:41Z</time>
      </trkpt>
      <trkpt lat="40.684042" lon="-6.871569">
        <ele>757.435</ele>
        <time>2019-06-22T17:24:42Z</time>
      </trkpt>
      <trkpt lat="40.683964" lon="-6.871347">
        <ele>757.386</ele>
        <time>2019-06-22T17:24:43Z</time>
      </trkpt>
      <trkpt lat="40.683879" lon="-6.871150">
        <ele>757.314</ele>
        <time>2019-06-22T17:24:44Z</time>
      </trkpt>
      <trkpt lat="40.683790" lon="-6.870953">
        <ele>757.708</ele>
        <time>2019-06-22T17:24:45Z</time>
      </trkpt>
      <trkpt lat="40.683677" lon="-6.870771">
        <ele>758.336</ele>
        <time>2019-06-22T17:24:46Z</time>
      </trkpt>
      <trkpt lat="40.683557" lon="-6.870592">
        <ele>759.370</ele>
        <time>2019-06-22T17:24:47Z</time>
      </trkpt>
      <trkpt lat="40.683416" lon="-6.870429">
        <ele>760.562</ele>
        <time>2019-06-22T17:24:48Z</time>
      </trkpt>
      <trkpt lat="40.683258" lon="-6.870274">
        <ele>761.154</ele>
        <time>2019-06-22T17:24:49Z</time>
      </trkpt>
      <trkpt lat="40.683102" lon="-6.870123">
        <ele>761.612</ele>
        <time>2019-06-22T17:24:50Z</time>
      </trkpt>
      <trkpt lat="40.682939" lon="-6.869976">
        <ele>761.691</ele>
        <time>2019-06-22T17:24:51Z</time>
      </trkpt>
      <trkpt lat="40.682773" lon="-6.869824">
        <ele>762.096</ele>
        <time>2019-06-22T17:24:52Z</time>
      </trkpt>
      <trkpt lat="40.682598" lon="-6.869655">
        <ele>762.659</ele>
        <time>2019-06-22T17:24:53Z</time>
      </trkpt>
      <trkpt lat="40.682423" lon="-6.869494">
        <ele>763.693</ele>
        <time>2019-06-22T17:24:54Z</time>
      </trkpt>
      <trkpt lat="40.682255" lon="-6.869342">
        <ele>763.965</ele>
        <time>2019-06-22T17:24:55Z</time>
      </trkpt>
      <trkpt lat="40.682092" lon="-6.869199">
        <ele>763.921</ele>
        <time>2019-06-22T17:24:56Z</time>
      </trkpt>
      <trkpt lat="40.681937" lon="-6.869058">
        <ele>763.008</ele>
        <time>2019-06-22T17:24:57Z</time>
      </trkpt>
      <trkpt lat="40.681784" lon="-6.868932">
        <ele>762.052</ele>
        <time>2019-06-22T17:24:58Z</time>
      </trkpt>
      <trkpt lat="40.681616" lon="-6.868825">
        <ele>761.126</ele>
        <time>2019-06-22T17:24:59Z</time>
      </trkpt>
      <trkpt lat="40.681444" lon="-6.868739">
        <ele>760.788</ele>
        <time>2019-06-22T17:25:00Z</time>
      </trkpt>
      <trkpt lat="40.681270" lon="-6.868655">
        <ele>760.740</ele>
        <time>2019-06-22T17:25:01Z</time>
      </trkpt>
      <trkpt lat="40.681085" lon="-6.868592">
        <ele>761.988</ele>
        <time>2019-06-22T17:25:02Z</time>
      </trkpt>
      <trkpt lat="40.680887" lon="-6.868551">
        <ele>763.177</ele>
        <time>2019-06-22T17:25:03Z</time>
      </trkpt>
      <trkpt lat="40.680687" lon="-6.868514">
        <ele>764.172</ele>
        <time>2019-06-22T17:25:04Z</time>
      </trkpt>
      <trkpt lat="40.680473" lon="-6.868478">
        <ele>764.125</ele>
        <time>2019-06-22T17:25:05Z</time>
      </trkpt>
      <trkpt lat="40.680277" lon="-6.868446">
        <ele>764.321</ele>
        <time>2019-06-22T17:25:06Z</time>
      </trkpt>
      <trkpt lat="40.680071" lon="-6.868404">
        <ele>764.141</ele>
        <time>2019-06-22T17:25:07Z</time>
      </trkpt>
      <trkpt lat="40.679851" lon="-6.868366">
        <ele>763.905</ele>
        <time>2019-06-22T17:25:08Z</time>
      </trkpt>
      <trkpt lat="40.679640" lon="-6.868336">
        <ele>763.108</ele>
        <time>2019-06-22T17:25:09Z</time>
      </trkpt>
      <trkpt lat="40.679448" lon="-6.868296">
        <ele>762.355</ele>
        <time>2019-06-22T17:25:10Z</time>
      </trkpt>
      <trkpt lat="40.679247" lon="-6.868263">
        <ele>762.289</ele>
        <time>2019-06-22T17:25:11Z</time>
      </trkpt>
      <trkpt lat="40.679072" lon="-6.868226">
        <ele>761.741</ele>
        <time>2019-06-22T17:25:12Z</time>
      </trkpt>
      <trkpt lat="40.678888" lon="-6.868194">
        <ele>761.513</ele>
        <time>2019-06-22T17:25:13Z</time>
      </trkpt>
      <trkpt lat="40.678701" lon="-6.868152">
        <ele>761.541</ele>
        <time>2019-06-22T17:25:14Z</time>
      </trkpt>
      <trkpt lat="40.678510" lon="-6.868118">
        <ele>761.620</ele>
        <time>2019-06-22T17:25:15Z</time>
      </trkpt>
      <trkpt lat="40.678339" lon="-6.868079">
        <ele>761.675</ele>
        <time>2019-06-22T17:25:16Z</time>
      </trkpt>
      <trkpt lat="40.678180" lon="-6.868049">
        <ele>761.878</ele>
        <time>2019-06-22T17:25:17Z</time>
      </trkpt>
      <trkpt lat="40.678024" lon="-6.868011">
        <ele>762.028</ele>
        <time>2019-06-22T17:25:18Z</time>
      </trkpt>
      <trkpt lat="40.677860" lon="-6.867961">
        <ele>763.289</ele>
        <time>2019-06-22T17:25:19Z</time>
      </trkpt>
      <trkpt lat="40.677703" lon="-6.867882">
        <ele>764.017</ele>
        <time>2019-06-22T17:25:20Z</time>
      </trkpt>
      <trkpt lat="40.677553" lon="-6.867740">
        <ele>765.008</ele>
        <time>2019-06-22T17:25:21Z</time>
      </trkpt>
      <trkpt lat="40.677412" lon="-6.867605">
        <ele>766.215</ele>
        <time>2019-06-22T17:25:22Z</time>
      </trkpt>
      <trkpt lat="40.677274" lon="-6.867463">
        <ele>767.579</ele>
        <time>2019-06-22T17:25:23Z</time>
      </trkpt>
      <trkpt lat="40.677128" lon="-6.867324">
        <ele>767.511</ele>
        <time>2019-06-22T17:25:24Z</time>
      </trkpt>
      <trkpt lat="40.676978" lon="-6.867177">
        <ele>767.193</ele>
        <time>2019-06-22T17:25:25Z</time>
      </trkpt>
      <trkpt lat="40.676832" lon="-6.867031">
        <ele>767.031</ele>
        <time>2019-06-22T17:25:26Z</time>
      </trkpt>
      <trkpt lat="40.676684" lon="-6.866889">
        <ele>766.420</ele>
        <time>2019-06-22T17:25:27Z</time>
      </trkpt>
      <trkpt lat="40.676536" lon="-6.866747">
        <ele>766.355</ele>
        <time>2019-06-22T17:25:28Z</time>
      </trkpt>
      <trkpt lat="40.676393" lon="-6.866612">
        <ele>766.338</ele>
        <time>2019-06-22T17:25:29Z</time>
      </trkpt>
      <trkpt lat="40.676259" lon="-6.866487">
        <ele>767.382</ele>
        <time>2019-06-22T17:25:30Z</time>
      </trkpt>
      <trkpt lat="40.676126" lon="-6.866367">
        <ele>768.043</ele>
        <time>2019-06-22T17:25:31Z</time>
      </trkpt>
      <trkpt lat="40.676003" lon="-6.866255">
        <ele>769.417</ele>
        <time>2019-06-22T17:25:32Z</time>
      </trkpt>
      <trkpt lat="40.675880" lon="-6.866139">
        <ele>770.708</ele>
        <time>2019-06-22T17:25:33Z</time>
      </trkpt>
      <trkpt lat="40.675761" lon="-6.866027">
        <ele>771.931</ele>
        <time>2019-06-22T17:25:34Z</time>
      </trkpt>
      <trkpt lat="40.675636" lon="-6.865893">
        <ele>772.895</ele>
        <time>2019-06-22T17:25:35Z</time>
      </trkpt>
      <trkpt lat="40.675518" lon="-6.865759">
        <ele>772.837</ele>
        <time>2019-06-22T17:25:36Z</time>
      </trkpt>
      <trkpt lat="40.675408" lon="-6.865600">
        <ele>773.639</ele>
        <time>2019-06-22T17:25:37Z</time>
      </trkpt>
      <trkpt lat="40.675290" lon="-6.865424">
        <ele>774.417</ele>
        <time>2019-06-22T17:25:38Z</time>
      </trkpt>
      <trkpt lat="40.675170" lon="-6.865245">
        <ele>774.626</ele>
        <time>2019-06-22T17:25:39Z</time>
      </trkpt>
      <trkpt lat="40.675053" lon="-6.865064">
        <ele>775.021</ele>
        <time>2019-06-22T17:25:40Z</time>
      </trkpt>
      <trkpt lat="40.674933" lon="-6.864872">
        <ele>775.284</ele>
        <time>2019-06-22T17:25:41Z</time>
      </trkpt>
      <trkpt lat="40.674800" lon="-6.864689">
        <ele>775.241</ele>
        <time>2019-06-22T17:25:42Z</time>
      </trkpt>
      <trkpt lat="40.674657" lon="-6.864505">
        <ele>774.881</ele>
        <time>2019-06-22T17:25:43Z</time>
      </trkpt>
      <trkpt lat="40.674534" lon="-6.864299">
        <ele>773.909</ele>
        <time>2019-06-22T17:25:44Z</time>
      </trkpt>
      <trkpt lat="40.674361" lon="-6.864135">
        <ele>773.108</ele>
        <time>2019-06-22T17:25:45Z</time>
      </trkpt>
      <trkpt lat="40.674192" lon="-6.863977">
        <ele>771.167</ele>
        <time>2019-06-22T17:25:46Z</time>
      </trkpt>
      <trkpt lat="40.673998" lon="-6.863838">
        <ele>767.461</ele>
        <time>2019-06-22T17:25:47Z</time>
      </trkpt>
      <trkpt lat="40.673812" lon="-6.863702">
        <ele>765.343</ele>
        <time>2019-06-22T17:25:48Z</time>
      </trkpt>
      <trkpt lat="40.673625" lon="-6.863555">
        <ele>764.855</ele>
        <time>2019-06-22T17:25:49Z</time>
      </trkpt>
      <trkpt lat="40.673417" lon="-6.863420">
        <ele>764.263</ele>
        <time>2019-06-22T17:25:50Z</time>
      </trkpt>
      <trkpt lat="40.673225" lon="-6.863281">
        <ele>764.232</ele>
        <time>2019-06-22T17:25:51Z</time>
      </trkpt>
      <trkpt lat="40.673037" lon="-6.863146">
        <ele>764.857</ele>
        <time>2019-06-22T17:25:52Z</time>
      </trkpt>
      <trkpt lat="40.672844" lon="-6.863037">
        <ele>764.880</ele>
        <time>2019-06-22T17:25:53Z</time>
      </trkpt>
      <trkpt lat="40.672673" lon="-6.862901">
        <ele>764.792</ele>
        <time>2019-06-22T17:25:54Z</time>
      </trkpt>
      <trkpt lat="40.672495" lon="-6.862760">
        <ele>764.773</ele>
        <time>2019-06-22T17:25:55Z</time>
      </trkpt>
      <trkpt lat="40.672332" lon="-6.862607">
        <ele>764.720</ele>
        <time>2019-06-22T17:25:56Z</time>
      </trkpt>
      <trkpt lat="40.672183" lon="-6.862445">
        <ele>764.708</ele>
        <time>2019-06-22T17:25:57Z</time>
      </trkpt>
      <trkpt lat="40.672037" lon="-6.862264">
        <ele>766.612</ele>
        <time>2019-06-22T17:25:58Z</time>
      </trkpt>
      <trkpt lat="40.671901" lon="-6.862049">
        <ele>768.016</ele>
        <time>2019-06-22T17:25:59Z</time>
      </trkpt>
      <trkpt lat="40.671755" lon="-6.861830">
        <ele>768.288</ele>
        <time>2019-06-22T17:26:00Z</time>
      </trkpt>
      <trkpt lat="40.671609" lon="-6.861607">
        <ele>768.650</ele>
        <time>2019-06-22T17:26:01Z</time>
      </trkpt>
      <trkpt lat="40.671468" lon="-6.861379">
        <ele>768.278</ele>
        <time>2019-06-22T17:26:02Z</time>
      </trkpt>
      <trkpt lat="40.671331" lon="-6.861158">
        <ele>768.087</ele>
        <time>2019-06-22T17:26:03Z</time>
      </trkpt>
      <trkpt lat="40.671191" lon="-6.860942">
        <ele>767.722</ele>
        <time>2019-06-22T17:26:04Z</time>
      </trkpt>
      <trkpt lat="40.671040" lon="-6.860723">
        <ele>767.725</ele>
        <time>2019-06-22T17:26:05Z</time>
      </trkpt>
      <trkpt lat="40.670886" lon="-6.860495">
        <ele>768.094</ele>
        <time>2019-06-22T17:26:06Z</time>
      </trkpt>
      <trkpt lat="40.670750" lon="-6.860273">
        <ele>768.457</ele>
        <time>2019-06-22T17:26:07Z</time>
      </trkpt>
      <trkpt lat="40.670614" lon="-6.860083">
        <ele>769.422</ele>
        <time>2019-06-22T17:26:08Z</time>
      </trkpt>
      <trkpt lat="40.670464" lon="-6.859871">
        <ele>769.908</ele>
        <time>2019-06-22T17:26:09Z</time>
      </trkpt>
      <trkpt lat="40.670315" lon="-6.859697">
        <ele>769.922</ele>
        <time>2019-06-22T17:26:10Z</time>
      </trkpt>
      <trkpt lat="40.670150" lon="-6.859530">
        <ele>769.176</ele>
        <time>2019-06-22T17:26:11Z</time>
      </trkpt>
      <trkpt lat="40.669990" lon="-6.859386">
        <ele>768.078</ele>
        <time>2019-06-22T17:26:12Z</time>
      </trkpt>
      <trkpt lat="40.669815" lon="-6.859255">
        <ele>765.850</ele>
        <time>2019-06-22T17:26:13Z</time>
      </trkpt>
      <trkpt lat="40.669624" lon="-6.859151">
        <ele>764.088</ele>
        <time>2019-06-22T17:26:14Z</time>
      </trkpt>
      <trkpt lat="40.669403" lon="-6.859078">
        <ele>762.527</ele>
        <time>2019-06-22T17:26:15Z</time>
      </trkpt>
      <trkpt lat="40.669178" lon="-6.859014">
        <ele>762.472</ele>
        <time>2019-06-22T17:26:16Z</time>
      </trkpt>
      <trkpt lat="40.668965" lon="-6.858954">
        <ele>762.425</ele>
        <time>2019-06-22T17:26:17Z</time>
      </trkpt>
      <trkpt lat="40.668731" lon="-6.858890">
        <ele>762.998</ele>
        <time>2019-06-22T17:26:18Z</time>
      </trkpt>
      <trkpt lat="40.668507" lon="-6.858837">
        <ele>763.915</ele>
        <time>2019-06-22T17:26:19Z</time>
      </trkpt>
      <trkpt lat="40.668269" lon="-6.858796">
        <ele>765.326</ele>
        <time>2019-06-22T17:26:20Z</time>
      </trkpt>
      <trkpt lat="40.668036" lon="-6.858752">
        <ele>765.408</ele>
        <time>2019-06-22T17:26:21Z</time>
      </trkpt>
      <trkpt lat="40.667807" lon="-6.858703">
        <ele>766.782</ele>
        <time>2019-06-22T17:26:22Z</time>
      </trkpt>
      <trkpt lat="40.667595" lon="-6.858649">
        <ele>767.026</ele>
        <time>2019-06-22T17:26:23Z</time>
      </trkpt>
      <trkpt lat="40.667369" lon="-6.858587">
        <ele>767.228</ele>
        <time>2019-06-22T17:26:24Z</time>
      </trkpt>
      <trkpt lat="40.667138" lon="-6.858539">
        <ele>767.580</ele>
        <time>2019-06-22T17:26:25Z</time>
      </trkpt>
      <trkpt lat="40.666905" lon="-6.858485">
        <ele>768.178</ele>
        <time>2019-06-22T17:26:26Z</time>
      </trkpt>
      <trkpt lat="40.666671" lon="-6.858439">
        <ele>768.547</ele>
        <time>2019-06-22T17:26:27Z</time>
      </trkpt>
      <trkpt lat="40.666440" lon="-6.858373">
        <ele>768.622</ele>
        <time>2019-06-22T17:26:28Z</time>
      </trkpt>
      <trkpt lat="40.666207" lon="-6.858317">
        <ele>768.685</ele>
        <time>2019-06-22T17:26:29Z</time>
      </trkpt>
      <trkpt lat="40.665974" lon="-6.858261">
        <ele>768.168</ele>
        <time>2019-06-22T17:26:30Z</time>
      </trkpt>
      <trkpt lat="40.665733" lon="-6.858206">
        <ele>767.942</ele>
        <time>2019-06-22T17:26:31Z</time>
      </trkpt>
      <trkpt lat="40.665496" lon="-6.858156">
        <ele>767.826</ele>
        <time>2019-06-22T17:26:32Z</time>
      </trkpt>
      <trkpt lat="40.665258" lon="-6.858107">
        <ele>767.808</ele>
        <time>2019-06-22T17:26:33Z</time>
      </trkpt>
      <trkpt lat="40.665025" lon="-6.858054">
        <ele>768.059</ele>
        <time>2019-06-22T17:26:34Z</time>
      </trkpt>
      <trkpt lat="40.664797" lon="-6.857990">
        <ele>768.463</ele>
        <time>2019-06-22T17:26:35Z</time>
      </trkpt>
      <trkpt lat="40.664573" lon="-6.857944">
        <ele>769.065</ele>
        <time>2019-06-22T17:26:36Z</time>
      </trkpt>
      <trkpt lat="40.664356" lon="-6.857887">
        <ele>769.347</ele>
        <time>2019-06-22T17:26:37Z</time>
      </trkpt>
      <trkpt lat="40.664136" lon="-6.857819">
        <ele>769.485</ele>
        <time>2019-06-22T17:26:38Z</time>
      </trkpt>
      <trkpt lat="40.663908" lon="-6.857765">
        <ele>770.324</ele>
        <time>2019-06-22T17:26:39Z</time>
      </trkpt>
      <trkpt lat="40.663670" lon="-6.857700">
        <ele>770.859</ele>
        <time>2019-06-22T17:26:40Z</time>
      </trkpt>
      <trkpt lat="40.663441" lon="-6.857632">
        <ele>770.812</ele>
        <time>2019-06-22T17:26:41Z</time>
      </trkpt>
      <trkpt lat="40.663218" lon="-6.857548">
        <ele>770.891</ele>
        <time>2019-06-22T17:26:42Z</time>
      </trkpt>
      <trkpt lat="40.662991" lon="-6.857457">
        <ele>770.981</ele>
        <time>2019-06-22T17:26:43Z</time>
      </trkpt>
      <trkpt lat="40.662763" lon="-6.857401">
        <ele>770.819</ele>
        <time>2019-06-22T17:26:44Z</time>
      </trkpt>
      <trkpt lat="40.662536" lon="-6.857338">
        <ele>769.808</ele>
        <time>2019-06-22T17:26:45Z</time>
      </trkpt>
      <trkpt lat="40.662306" lon="-6.857270">
        <ele>769.182</ele>
        <time>2019-06-22T17:26:46Z</time>
      </trkpt>
      <trkpt lat="40.662079" lon="-6.857203">
        <ele>769.196</ele>
        <time>2019-06-22T17:26:47Z</time>
      </trkpt>
      <trkpt lat="40.661845" lon="-6.857143">
        <ele>769.668</ele>
        <time>2019-06-22T17:26:48Z</time>
      </trkpt>
      <trkpt lat="40.661604" lon="-6.857101">
        <ele>769.650</ele>
        <time>2019-06-22T17:26:49Z</time>
      </trkpt>
      <trkpt lat="40.661368" lon="-6.857073">
        <ele>769.688</ele>
        <time>2019-06-22T17:26:50Z</time>
      </trkpt>
      <trkpt lat="40.661133" lon="-6.857063">
        <ele>769.457</ele>
        <time>2019-06-22T17:26:51Z</time>
      </trkpt>
      <trkpt lat="40.660896" lon="-6.857047">
        <ele>769.242</ele>
        <time>2019-06-22T17:26:52Z</time>
      </trkpt>
      <trkpt lat="40.660660" lon="-6.857050">
        <ele>769.245</ele>
        <time>2019-06-22T17:26:53Z</time>
      </trkpt>
      <trkpt lat="40.660434" lon="-6.857064">
        <ele>769.337</ele>
        <time>2019-06-22T17:26:54Z</time>
      </trkpt>
      <trkpt lat="40.660197" lon="-6.857061">
        <ele>770.149</ele>
        <time>2019-06-22T17:26:55Z</time>
      </trkpt>
      <trkpt lat="40.659970" lon="-6.857045">
        <ele>770.213</ele>
        <time>2019-06-22T17:26:56Z</time>
      </trkpt>
      <trkpt lat="40.659744" lon="-6.857035">
        <ele>770.208</ele>
        <time>2019-06-22T17:26:57Z</time>
      </trkpt>
      <trkpt lat="40.659515" lon="-6.857029">
        <ele>770.226</ele>
        <time>2019-06-22T17:26:58Z</time>
      </trkpt>
      <trkpt lat="40.659283" lon="-6.857023">
        <ele>769.690</ele>
        <time>2019-06-22T17:26:59Z</time>
      </trkpt>
      <trkpt lat="40.659053" lon="-6.857020">
        <ele>769.032</ele>
        <time>2019-06-22T17:27:00Z</time>
      </trkpt>
      <trkpt lat="40.658822" lon="-6.857014">
        <ele>768.844</ele>
        <time>2019-06-22T17:27:01Z</time>
      </trkpt>
      <trkpt lat="40.658595" lon="-6.857011">
        <ele>768.712</ele>
        <time>2019-06-22T17:27:02Z</time>
      </trkpt>
      <trkpt lat="40.658365" lon="-6.857014">
        <ele>768.471</ele>
        <time>2019-06-22T17:27:03Z</time>
      </trkpt>
      <trkpt lat="40.658142" lon="-6.857013">
        <ele>767.566</ele>
        <time>2019-06-22T17:27:04Z</time>
      </trkpt>
      <trkpt lat="40.657906" lon="-6.857068">
        <ele>766.989</ele>
        <time>2019-06-22T17:27:05Z</time>
      </trkpt>
      <trkpt lat="40.657667" lon="-6.857128">
        <ele>766.984</ele>
        <time>2019-06-22T17:27:06Z</time>
      </trkpt>
      <trkpt lat="40.657427" lon="-6.857191">
        <ele>767.307</ele>
        <time>2019-06-22T17:27:07Z</time>
      </trkpt>
      <trkpt lat="40.657192" lon="-6.857239">
        <ele>767.617</ele>
        <time>2019-06-22T17:27:08Z</time>
      </trkpt>
      <trkpt lat="40.656961" lon="-6.857294">
        <ele>768.508</ele>
        <time>2019-06-22T17:27:09Z</time>
      </trkpt>
      <trkpt lat="40.656741" lon="-6.857350">
        <ele>768.521</ele>
        <time>2019-06-22T17:27:10Z</time>
      </trkpt>
      <trkpt lat="40.656516" lon="-6.857398">
        <ele>768.375</ele>
        <time>2019-06-22T17:27:11Z</time>
      </trkpt>
      <trkpt lat="40.656307" lon="-6.857442">
        <ele>768.397</ele>
        <time>2019-06-22T17:27:12Z</time>
      </trkpt>
      <trkpt lat="40.656090" lon="-6.857465">
        <ele>768.969</ele>
        <time>2019-06-22T17:27:13Z</time>
      </trkpt>
      <trkpt lat="40.655871" lon="-6.857464">
        <ele>770.027</ele>
        <time>2019-06-22T17:27:14Z</time>
      </trkpt>
      <trkpt lat="40.655663" lon="-6.857440">
        <ele>770.326</ele>
        <time>2019-06-22T17:27:15Z</time>
      </trkpt>
      <trkpt lat="40.655455" lon="-6.857428">
        <ele>770.321</ele>
        <time>2019-06-22T17:27:16Z</time>
      </trkpt>
      <trkpt lat="40.655240" lon="-6.857407">
        <ele>770.434</ele>
        <time>2019-06-22T17:27:17Z</time>
      </trkpt>
      <trkpt lat="40.655012" lon="-6.857400">
        <ele>770.265</ele>
        <time>2019-06-22T17:27:18Z</time>
      </trkpt>
      <trkpt lat="40.654783" lon="-6.857368">
        <ele>769.368</ele>
        <time>2019-06-22T17:27:19Z</time>
      </trkpt>
      <trkpt lat="40.654566" lon="-6.857344">
        <ele>769.314</ele>
        <time>2019-06-22T17:27:20Z</time>
      </trkpt>
      <trkpt lat="40.654339" lon="-6.857321">
        <ele>770.108</ele>
        <time>2019-06-22T17:27:21Z</time>
      </trkpt>
      <trkpt lat="40.654119" lon="-6.857302">
        <ele>770.189</ele>
        <time>2019-06-22T17:27:22Z</time>
      </trkpt>
      <trkpt lat="40.653891" lon="-6.857280">
        <ele>769.843</ele>
        <time>2019-06-22T17:27:23Z</time>
      </trkpt>
      <trkpt lat="40.653669" lon="-6.857246">
        <ele>769.555</ele>
        <time>2019-06-22T17:27:24Z</time>
      </trkpt>
      <trkpt lat="40.653438" lon="-6.857240">
        <ele>769.327</ele>
        <time>2019-06-22T17:27:25Z</time>
      </trkpt>
      <trkpt lat="40.653207" lon="-6.857230">
        <ele>769.335</ele>
        <time>2019-06-22T17:27:26Z</time>
      </trkpt>
      <trkpt lat="40.652981" lon="-6.857204">
        <ele>769.314</ele>
        <time>2019-06-22T17:27:27Z</time>
      </trkpt>
      <trkpt lat="40.652761" lon="-6.857173">
        <ele>769.529</ele>
        <time>2019-06-22T17:27:28Z</time>
      </trkpt>
      <trkpt lat="40.652531" lon="-6.857166">
        <ele>769.532</ele>
        <time>2019-06-22T17:27:29Z</time>
      </trkpt>
      <trkpt lat="40.652296" lon="-6.857138">
        <ele>769.836</ele>
        <time>2019-06-22T17:27:30Z</time>
      </trkpt>
      <trkpt lat="40.652079" lon="-6.857120">
        <ele>770.917</ele>
        <time>2019-06-22T17:27:31Z</time>
      </trkpt>
      <trkpt lat="40.651861" lon="-6.857098">
        <ele>771.018</ele>
        <time>2019-06-22T17:27:32Z</time>
      </trkpt>
      <trkpt lat="40.651641" lon="-6.857074">
        <ele>771.808</ele>
        <time>2019-06-22T17:27:33Z</time>
      </trkpt>
      <trkpt lat="40.651417" lon="-6.857040">
        <ele>772.676</ele>
        <time>2019-06-22T17:27:34Z</time>
      </trkpt>
      <trkpt lat="40.651194" lon="-6.857001">
        <ele>773.140</ele>
        <time>2019-06-22T17:27:35Z</time>
      </trkpt>
      <trkpt lat="40.650987" lon="-6.856956">
        <ele>773.242</ele>
        <time>2019-06-22T17:27:36Z</time>
      </trkpt>
      <trkpt lat="40.650770" lon="-6.856915">
        <ele>773.674</ele>
        <time>2019-06-22T17:27:37Z</time>
      </trkpt>
      <trkpt lat="40.650556" lon="-6.856883">
        <ele>773.732</ele>
        <time>2019-06-22T17:27:38Z</time>
      </trkpt>
      <trkpt lat="40.650327" lon="-6.856868">
        <ele>773.761</ele>
        <time>2019-06-22T17:27:39Z</time>
      </trkpt>
      <trkpt lat="40.650100" lon="-6.856849">
        <ele>774.076</ele>
        <time>2019-06-22T17:27:40Z</time>
      </trkpt>
      <trkpt lat="40.649882" lon="-6.856829">
        <ele>774.069</ele>
        <time>2019-06-22T17:27:41Z</time>
      </trkpt>
      <trkpt lat="40.649668" lon="-6.856799">
        <ele>774.265</ele>
        <time>2019-06-22T17:27:42Z</time>
      </trkpt>
      <trkpt lat="40.649439" lon="-6.856787">
        <ele>774.768</ele>
        <time>2019-06-22T17:27:43Z</time>
      </trkpt>
      <trkpt lat="40.649223" lon="-6.856778">
        <ele>775.114</ele>
        <time>2019-06-22T17:27:44Z</time>
      </trkpt>
      <trkpt lat="40.648993" lon="-6.856748">
        <ele>775.108</ele>
        <time>2019-06-22T17:27:45Z</time>
      </trkpt>
      <trkpt lat="40.648768" lon="-6.856718">
        <ele>775.139</ele>
        <time>2019-06-22T17:27:46Z</time>
      </trkpt>
      <trkpt lat="40.648539" lon="-6.856695">
        <ele>774.893</ele>
        <time>2019-06-22T17:27:47Z</time>
      </trkpt>
      <trkpt lat="40.648304" lon="-6.856671">
        <ele>774.375</ele>
        <time>2019-06-22T17:27:48Z</time>
      </trkpt>
      <trkpt lat="40.648063" lon="-6.856644">
        <ele>773.297</ele>
        <time>2019-06-22T17:27:49Z</time>
      </trkpt>
      <trkpt lat="40.647830" lon="-6.856615">
        <ele>773.175</ele>
        <time>2019-06-22T17:27:50Z</time>
      </trkpt>
      <trkpt lat="40.647595" lon="-6.856593">
        <ele>773.054</ele>
        <time>2019-06-22T17:27:51Z</time>
      </trkpt>
      <trkpt lat="40.647361" lon="-6.856571">
        <ele>773.099</ele>
        <time>2019-06-22T17:27:52Z</time>
      </trkpt>
      <trkpt lat="40.647121" lon="-6.856551">
        <ele>773.562</ele>
        <time>2019-06-22T17:27:53Z</time>
      </trkpt>
      <trkpt lat="40.646881" lon="-6.856523">
        <ele>775.136</ele>
        <time>2019-06-22T17:27:54Z</time>
      </trkpt>
      <trkpt lat="40.646643" lon="-6.856495">
        <ele>775.117</ele>
        <time>2019-06-22T17:27:55Z</time>
      </trkpt>
      <trkpt lat="40.646405" lon="-6.856469">
        <ele>775.418</ele>
        <time>2019-06-22T17:27:56Z</time>
      </trkpt>
      <trkpt lat="40.646159" lon="-6.856462">
        <ele>775.408</ele>
        <time>2019-06-22T17:27:57Z</time>
      </trkpt>
      <trkpt lat="40.645930" lon="-6.856439">
        <ele>775.266</ele>
        <time>2019-06-22T17:27:58Z</time>
      </trkpt>
      <trkpt lat="40.645696" lon="-6.856414">
        <ele>774.740</ele>
        <time>2019-06-22T17:27:59Z</time>
      </trkpt>
      <trkpt lat="40.645464" lon="-6.856393">
        <ele>774.782</ele>
        <time>2019-06-22T17:28:00Z</time>
      </trkpt>
      <trkpt lat="40.645243" lon="-6.856368">
        <ele>774.834</ele>
        <time>2019-06-22T17:28:01Z</time>
      </trkpt>
      <trkpt lat="40.645011" lon="-6.856345">
        <ele>774.872</ele>
        <time>2019-06-22T17:28:02Z</time>
      </trkpt>
      <trkpt lat="40.644773" lon="-6.856318">
        <ele>775.691</ele>
        <time>2019-06-22T17:28:03Z</time>
      </trkpt>
      <trkpt lat="40.644543" lon="-6.856288">
        <ele>775.726</ele>
        <time>2019-06-22T17:28:04Z</time>
      </trkpt>
      <trkpt lat="40.644307" lon="-6.856258">
        <ele>775.739</ele>
        <time>2019-06-22T17:28:05Z</time>
      </trkpt>
      <trkpt lat="40.644067" lon="-6.856228">
        <ele>775.699</ele>
        <time>2019-06-22T17:28:06Z</time>
      </trkpt>
      <trkpt lat="40.643830" lon="-6.856172">
        <ele>775.207</ele>
        <time>2019-06-22T17:28:07Z</time>
      </trkpt>
      <trkpt lat="40.643587" lon="-6.856153">
        <ele>774.827</ele>
        <time>2019-06-22T17:28:08Z</time>
      </trkpt>
      <trkpt lat="40.643357" lon="-6.856134">
        <ele>774.308</ele>
        <time>2019-06-22T17:28:09Z</time>
      </trkpt>
      <trkpt lat="40.643126" lon="-6.856112">
        <ele>774.382</ele>
        <time>2019-06-22T17:28:10Z</time>
      </trkpt>
      <trkpt lat="40.642882" lon="-6.856099">
        <ele>774.426</ele>
        <time>2019-06-22T17:28:11Z</time>
      </trkpt>
      <trkpt lat="40.642643" lon="-6.856082">
        <ele>774.758</ele>
        <time>2019-06-22T17:28:12Z</time>
      </trkpt>
      <trkpt lat="40.642412" lon="-6.856055">
        <ele>775.480</ele>
        <time>2019-06-22T17:28:13Z</time>
      </trkpt>
      <trkpt lat="40.642163" lon="-6.856045">
        <ele>776.638</ele>
        <time>2019-06-22T17:28:14Z</time>
      </trkpt>
      <trkpt lat="40.641924" lon="-6.856040">
        <ele>777.697</ele>
        <time>2019-06-22T17:28:15Z</time>
      </trkpt>
      <trkpt lat="40.641668" lon="-6.856054">
        <ele>778.242</ele>
        <time>2019-06-22T17:28:16Z</time>
      </trkpt>
      <trkpt lat="40.641408" lon="-6.856086">
        <ele>778.775</ele>
        <time>2019-06-22T17:28:17Z</time>
      </trkpt>
      <trkpt lat="40.641162" lon="-6.856108">
        <ele>779.584</ele>
        <time>2019-06-22T17:28:18Z</time>
      </trkpt>
      <trkpt lat="40.640908" lon="-6.856134">
        <ele>779.507</ele>
        <time>2019-06-22T17:28:19Z</time>
      </trkpt>
      <trkpt lat="40.640660" lon="-6.856149">
        <ele>779.517</ele>
        <time>2019-06-22T17:28:20Z</time>
      </trkpt>
      <trkpt lat="40.640419" lon="-6.856168">
        <ele>779.308</ele>
        <time>2019-06-22T17:28:21Z</time>
      </trkpt>
      <trkpt lat="40.640172" lon="-6.856183">
        <ele>779.311</ele>
        <time>2019-06-22T17:28:22Z</time>
      </trkpt>
      <trkpt lat="40.639927" lon="-6.856189">
        <ele>778.925</ele>
        <time>2019-06-22T17:28:23Z</time>
      </trkpt>
      <trkpt lat="40.639681" lon="-6.856190">
        <ele>777.567</ele>
        <time>2019-06-22T17:28:24Z</time>
      </trkpt>
      <trkpt lat="40.639436" lon="-6.856185">
        <ele>776.729</ele>
        <time>2019-06-22T17:28:25Z</time>
      </trkpt>
      <trkpt lat="40.639196" lon="-6.856160">
        <ele>776.497</ele>
        <time>2019-06-22T17:28:26Z</time>
      </trkpt>
      <trkpt lat="40.638950" lon="-6.856126">
        <ele>775.566</ele>
        <time>2019-06-22T17:28:27Z</time>
      </trkpt>
      <trkpt lat="40.638711" lon="-6.856080">
        <ele>774.051</ele>
        <time>2019-06-22T17:28:28Z</time>
      </trkpt>
      <trkpt lat="40.638459" lon="-6.856013">
        <ele>773.764</ele>
        <time>2019-06-22T17:28:29Z</time>
      </trkpt>
      <trkpt lat="40.638217" lon="-6.855942">
        <ele>773.181</ele>
        <time>2019-06-22T17:28:30Z</time>
      </trkpt>
      <trkpt lat="40.637973" lon="-6.855870">
        <ele>772.061</ele>
        <time>2019-06-22T17:28:31Z</time>
      </trkpt>
      <trkpt lat="40.637726" lon="-6.855805">
        <ele>772.017</ele>
        <time>2019-06-22T17:28:32Z</time>
      </trkpt>
      <trkpt lat="40.637490" lon="-6.855727">
        <ele>772.508</ele>
        <time>2019-06-22T17:28:33Z</time>
      </trkpt>
      <trkpt lat="40.637245" lon="-6.855663">
        <ele>772.611</ele>
        <time>2019-06-22T17:28:34Z</time>
      </trkpt>
      <trkpt lat="40.637001" lon="-6.855601">
        <ele>772.675</ele>
        <time>2019-06-22T17:28:35Z</time>
      </trkpt>
      <trkpt lat="40.636770" lon="-6.855533">
        <ele>772.847</ele>
        <time>2019-06-22T17:28:36Z</time>
      </trkpt>
      <trkpt lat="40.636529" lon="-6.855470">
        <ele>773.059</ele>
        <time>2019-06-22T17:28:37Z</time>
      </trkpt>
      <trkpt lat="40.636295" lon="-6.855399">
        <ele>773.157</ele>
        <time>2019-06-22T17:28:38Z</time>
      </trkpt>
      <trkpt lat="40.636064" lon="-6.855335">
        <ele>773.546</ele>
        <time>2019-06-22T17:28:39Z</time>
      </trkpt>
      <trkpt lat="40.635837" lon="-6.855262">
        <ele>774.341</ele>
        <time>2019-06-22T17:28:40Z</time>
      </trkpt>
      <trkpt lat="40.635606" lon="-6.855189">
        <ele>775.544</ele>
        <time>2019-06-22T17:28:41Z</time>
      </trkpt>
      <trkpt lat="40.635376" lon="-6.855115">
        <ele>776.388</ele>
        <time>2019-06-22T17:28:42Z</time>
      </trkpt>
      <trkpt lat="40.635145" lon="-6.855049">
        <ele>777.624</ele>
        <time>2019-06-22T17:28:43Z</time>
      </trkpt>
      <trkpt lat="40.634910" lon="-6.854980">
        <ele>778.726</ele>
        <time>2019-06-22T17:28:44Z</time>
      </trkpt>
      <trkpt lat="40.634683" lon="-6.854907">
        <ele>778.808</ele>
        <time>2019-06-22T17:28:45Z</time>
      </trkpt>
      <trkpt lat="40.634463" lon="-6.854842">
        <ele>779.011</ele>
        <time>2019-06-22T17:28:46Z</time>
      </trkpt>
      <trkpt lat="40.634238" lon="-6.854783">
        <ele>778.965</ele>
        <time>2019-06-22T17:28:47Z</time>
      </trkpt>
      <trkpt lat="40.634019" lon="-6.854727">
        <ele>778.967</ele>
        <time>2019-06-22T17:28:48Z</time>
      </trkpt>
      <trkpt lat="40.633797" lon="-6.854663">
        <ele>778.939</ele>
        <time>2019-06-22T17:28:49Z</time>
      </trkpt>
      <trkpt lat="40.633576" lon="-6.854563">
        <ele>779.367</ele>
        <time>2019-06-22T17:28:50Z</time>
      </trkpt>
      <trkpt lat="40.633349" lon="-6.854498">
        <ele>780.666</ele>
        <time>2019-06-22T17:28:51Z</time>
      </trkpt>
      <trkpt lat="40.633126" lon="-6.854410">
        <ele>780.671</ele>
        <time>2019-06-22T17:28:52Z</time>
      </trkpt>
      <trkpt lat="40.632913" lon="-6.854315">
        <ele>781.754</ele>
        <time>2019-06-22T17:28:53Z</time>
      </trkpt>
      <trkpt lat="40.632694" lon="-6.854212">
        <ele>782.675</ele>
        <time>2019-06-22T17:28:54Z</time>
      </trkpt>
      <trkpt lat="40.632483" lon="-6.854095">
        <ele>783.828</ele>
        <time>2019-06-22T17:28:55Z</time>
      </trkpt>
      <trkpt lat="40.632277" lon="-6.853966">
        <ele>784.120</ele>
        <time>2019-06-22T17:28:56Z</time>
      </trkpt>
      <trkpt lat="40.632072" lon="-6.853827">
        <ele>784.108</ele>
        <time>2019-06-22T17:28:57Z</time>
      </trkpt>
      <trkpt lat="40.631874" lon="-6.853680">
        <ele>782.980</ele>
        <time>2019-06-22T17:28:58Z</time>
      </trkpt>
      <trkpt lat="40.631676" lon="-6.853523">
        <ele>782.474</ele>
        <time>2019-06-22T17:28:59Z</time>
      </trkpt>
      <trkpt lat="40.631489" lon="-6.853364">
        <ele>781.646</ele>
        <time>2019-06-22T17:29:00Z</time>
      </trkpt>
      <trkpt lat="40.631277" lon="-6.853203">
        <ele>781.698</ele>
        <time>2019-06-22T17:29:01Z</time>
      </trkpt>
      <trkpt lat="40.631074" lon="-6.853045">
        <ele>781.696</ele>
        <time>2019-06-22T17:29:02Z</time>
      </trkpt>
      <trkpt lat="40.630864" lon="-6.852874">
        <ele>782.035</ele>
        <time>2019-06-22T17:29:03Z</time>
      </trkpt>
      <trkpt lat="40.630643" lon="-6.852700">
        <ele>782.060</ele>
        <time>2019-06-22T17:29:04Z</time>
      </trkpt>
      <trkpt lat="40.630421" lon="-6.852534">
        <ele>782.753</ele>
        <time>2019-06-22T17:29:05Z</time>
      </trkpt>
      <trkpt lat="40.630211" lon="-6.852347">
        <ele>782.884</ele>
        <time>2019-06-22T17:29:06Z</time>
      </trkpt>
      <trkpt lat="40.629998" lon="-6.852177">
        <ele>782.907</ele>
        <time>2019-06-22T17:29:07Z</time>
      </trkpt>
      <trkpt lat="40.629792" lon="-6.852024">
        <ele>783.117</ele>
        <time>2019-06-22T17:29:08Z</time>
      </trkpt>
      <trkpt lat="40.629579" lon="-6.851856">
        <ele>783.208</ele>
        <time>2019-06-22T17:29:09Z</time>
      </trkpt>
      <trkpt lat="40.629360" lon="-6.851699">
        <ele>783.231</ele>
        <time>2019-06-22T17:29:10Z</time>
      </trkpt>
      <trkpt lat="40.629139" lon="-6.851529">
        <ele>783.585</ele>
        <time>2019-06-22T17:29:11Z</time>
      </trkpt>
      <trkpt lat="40.628935" lon="-6.851346">
        <ele>783.567</ele>
        <time>2019-06-22T17:29:12Z</time>
      </trkpt>
      <trkpt lat="40.628712" lon="-6.851172">
        <ele>784.039</ele>
        <time>2019-06-22T17:29:13Z</time>
      </trkpt>
      <trkpt lat="40.628484" lon="-6.851001">
        <ele>784.557</ele>
        <time>2019-06-22T17:29:14Z</time>
      </trkpt>
      <trkpt lat="40.628265" lon="-6.850822">
        <ele>785.046</ele>
        <time>2019-06-22T17:29:15Z</time>
      </trkpt>
      <trkpt lat="40.628049" lon="-6.850652">
        <ele>785.291</ele>
        <time>2019-06-22T17:29:16Z</time>
      </trkpt>
      <trkpt lat="40.627832" lon="-6.850475">
        <ele>785.284</ele>
        <time>2019-06-22T17:29:17Z</time>
      </trkpt>
      <trkpt lat="40.627628" lon="-6.850295">
        <ele>785.579</ele>
        <time>2019-06-22T17:29:18Z</time>
      </trkpt>
      <trkpt lat="40.627423" lon="-6.850115">
        <ele>785.605</ele>
        <time>2019-06-22T17:29:19Z</time>
      </trkpt>
      <trkpt lat="40.627208" lon="-6.849941">
        <ele>786.125</ele>
        <time>2019-06-22T17:29:20Z</time>
      </trkpt>
      <trkpt lat="40.626996" lon="-6.849765">
        <ele>786.308</ele>
        <time>2019-06-22T17:29:21Z</time>
      </trkpt>
      <trkpt lat="40.626785" lon="-6.849600">
        <ele>786.850</ele>
        <time>2019-06-22T17:29:22Z</time>
      </trkpt>
      <trkpt lat="40.626578" lon="-6.849421">
        <ele>787.574</ele>
        <time>2019-06-22T17:29:23Z</time>
      </trkpt>
      <trkpt lat="40.626363" lon="-6.849250">
        <ele>788.086</ele>
        <time>2019-06-22T17:29:24Z</time>
      </trkpt>
      <trkpt lat="40.626154" lon="-6.849078">
        <ele>788.418</ele>
        <time>2019-06-22T17:29:25Z</time>
      </trkpt>
      <trkpt lat="40.625945" lon="-6.848895">
        <ele>789.276</ele>
        <time>2019-06-22T17:29:26Z</time>
      </trkpt>
      <trkpt lat="40.625736" lon="-6.848711">
        <ele>790.255</ele>
        <time>2019-06-22T17:29:27Z</time>
      </trkpt>
      <trkpt lat="40.625534" lon="-6.848527">
        <ele>791.080</ele>
        <time>2019-06-22T17:29:28Z</time>
      </trkpt>
      <trkpt lat="40.625349" lon="-6.848366">
        <ele>791.733</ele>
        <time>2019-06-22T17:29:29Z</time>
      </trkpt>
      <trkpt lat="40.625159" lon="-6.848173">
        <ele>792.073</ele>
        <time>2019-06-22T17:29:30Z</time>
      </trkpt>
      <trkpt lat="40.624989" lon="-6.848004">
        <ele>792.585</ele>
        <time>2019-06-22T17:29:31Z</time>
      </trkpt>
      <trkpt lat="40.624812" lon="-6.847839">
        <ele>792.513</ele>
        <time>2019-06-22T17:29:32Z</time>
      </trkpt>
      <trkpt lat="40.624639" lon="-6.847687">
        <ele>792.808</ele>
        <time>2019-06-22T17:29:33Z</time>
      </trkpt>
      <trkpt lat="40.624468" lon="-6.847530">
        <ele>793.430</ele>
        <time>2019-06-22T17:29:34Z</time>
      </trkpt>
      <trkpt lat="40.624299" lon="-6.847367">
        <ele>794.074</ele>
        <time>2019-06-22T17:29:35Z</time>
      </trkpt>
      <trkpt lat="40.624129" lon="-6.847217">
        <ele>794.376</ele>
        <time>2019-06-22T17:29:36Z</time>
      </trkpt>
      <trkpt lat="40.623957" lon="-6.847079">
        <ele>794.348</ele>
        <time>2019-06-22T17:29:37Z</time>
      </trkpt>
      <trkpt lat="40.623789" lon="-6.846942">
        <ele>794.366</ele>
        <time>2019-06-22T17:29:38Z</time>
      </trkpt>
      <trkpt lat="40.623620" lon="-6.846844">
        <ele>793.775</ele>
        <time>2019-06-22T17:29:39Z</time>
      </trkpt>
      <trkpt lat="40.623446" lon="-6.846768">
        <ele>792.170</ele>
        <time>2019-06-22T17:29:40Z</time>
      </trkpt>
      <trkpt lat="40.623284" lon="-6.846685">
        <ele>792.073</ele>
        <time>2019-06-22T17:29:41Z</time>
      </trkpt>
      <trkpt lat="40.623091" lon="-6.846627">
        <ele>791.197</ele>
        <time>2019-06-22T17:29:42Z</time>
      </trkpt>
      <trkpt lat="40.622912" lon="-6.846573">
        <ele>790.523</ele>
        <time>2019-06-22T17:29:43Z</time>
      </trkpt>
      <trkpt lat="40.622731" lon="-6.846501">
        <ele>789.525</ele>
        <time>2019-06-22T17:29:44Z</time>
      </trkpt>
      <trkpt lat="40.622556" lon="-6.846438">
        <ele>789.308</ele>
        <time>2019-06-22T17:29:45Z</time>
      </trkpt>
      <trkpt lat="40.622383" lon="-6.846375">
        <ele>789.222</ele>
        <time>2019-06-22T17:29:46Z</time>
      </trkpt>
      <trkpt lat="40.622213" lon="-6.846306">
        <ele>789.216</ele>
        <time>2019-06-22T17:29:47Z</time>
      </trkpt>
      <trkpt lat="40.622052" lon="-6.846244">
        <ele>788.668</ele>
        <time>2019-06-22T17:29:48Z</time>
      </trkpt>
      <trkpt lat="40.621888" lon="-6.846185">
        <ele>788.380</ele>
        <time>2019-06-22T17:29:49Z</time>
      </trkpt>
      <trkpt lat="40.621746" lon="-6.846103">
        <ele>787.558</ele>
        <time>2019-06-22T17:29:50Z</time>
      </trkpt>
      <trkpt lat="40.621592" lon="-6.846045">
        <ele>787.097</ele>
        <time>2019-06-22T17:29:51Z</time>
      </trkpt>
      <trkpt lat="40.621455" lon="-6.845940">
        <ele>787.042</ele>
        <time>2019-06-22T17:29:52Z</time>
      </trkpt>
      <trkpt lat="40.621333" lon="-6.845808">
        <ele>787.485</ele>
        <time>2019-06-22T17:29:53Z</time>
      </trkpt>
      <trkpt lat="40.621223" lon="-6.845664">
        <ele>787.545</ele>
        <time>2019-06-22T17:29:54Z</time>
      </trkpt>
      <trkpt lat="40.621109" lon="-6.845489">
        <ele>787.547</ele>
        <time>2019-06-22T17:29:55Z</time>
      </trkpt>
      <trkpt lat="40.620995" lon="-6.845316">
        <ele>788.111</ele>
        <time>2019-06-22T17:29:56Z</time>
      </trkpt>
      <trkpt lat="40.620886" lon="-6.845134">
        <ele>788.108</ele>
        <time>2019-06-22T17:29:57Z</time>
      </trkpt>
      <trkpt lat="40.620778" lon="-6.844968">
        <ele>787.977</ele>
        <time>2019-06-22T17:29:58Z</time>
      </trkpt>
      <trkpt lat="40.620660" lon="-6.844788">
        <ele>786.561</ele>
        <time>2019-06-22T17:29:59Z</time>
      </trkpt>
      <trkpt lat="40.620545" lon="-6.844623">
        <ele>785.783</ele>
        <time>2019-06-22T17:30:00Z</time>
      </trkpt>
      <trkpt lat="40.620429" lon="-6.844445">
        <ele>784.855</ele>
        <time>2019-06-22T17:30:01Z</time>
      </trkpt>
      <trkpt lat="40.620310" lon="-6.844264">
        <ele>784.013</ele>
        <time>2019-06-22T17:30:02Z</time>
      </trkpt>
      <trkpt lat="40.620196" lon="-6.844085">
        <ele>783.572</ele>
        <time>2019-06-22T17:30:03Z</time>
      </trkpt>
      <trkpt lat="40.620082" lon="-6.843906">
        <ele>783.187</ele>
        <time>2019-06-22T17:30:04Z</time>
      </trkpt>
      <trkpt lat="40.619981" lon="-6.843732">
        <ele>782.540</ele>
        <time>2019-06-22T17:30:05Z</time>
      </trkpt>
      <trkpt lat="40.619878" lon="-6.843581">
        <ele>781.733</ele>
        <time>2019-06-22T17:30:06Z</time>
      </trkpt>
      <trkpt lat="40.619766" lon="-6.843440">
        <ele>781.323</ele>
        <time>2019-06-22T17:30:07Z</time>
      </trkpt>
      <trkpt lat="40.619650" lon="-6.843299">
        <ele>780.215</ele>
        <time>2019-06-22T17:30:08Z</time>
      </trkpt>
      <trkpt lat="40.619524" lon="-6.843207">
        <ele>780.008</ele>
        <time>2019-06-22T17:30:09Z</time>
      </trkpt>
      <trkpt lat="40.619397" lon="-6.843123">
        <ele>779.256</ele>
        <time>2019-06-22T17:30:10Z</time>
      </trkpt>
      <trkpt lat="40.619263" lon="-6.843040">
        <ele>778.920</ele>
        <time>2019-06-22T17:30:11Z</time>
      </trkpt>
      <trkpt lat="40.619123" lon="-6.842973">
        <ele>778.842</ele>
        <time>2019-06-22T17:30:12Z</time>
      </trkpt>
      <trkpt lat="40.618984" lon="-6.842911">
        <ele>778.814</ele>
        <time>2019-06-22T17:30:13Z</time>
      </trkpt>
      <trkpt lat="40.618847" lon="-6.842845">
        <ele>779.172</ele>
        <time>2019-06-22T17:30:14Z</time>
      </trkpt>
      <trkpt lat="40.618707" lon="-6.842774">
        <ele>779.741</ele>
        <time>2019-06-22T17:30:15Z</time>
      </trkpt>
      <trkpt lat="40.618570" lon="-6.842697">
        <ele>780.386</ele>
        <time>2019-06-22T17:30:16Z</time>
      </trkpt>
      <trkpt lat="40.618428" lon="-6.842590">
        <ele>781.319</ele>
        <time>2019-06-22T17:30:17Z</time>
      </trkpt>
      <trkpt lat="40.618289" lon="-6.842478">
        <ele>781.498</ele>
        <time>2019-06-22T17:30:18Z</time>
      </trkpt>
      <trkpt lat="40.618149" lon="-6.842349">
        <ele>781.515</ele>
        <time>2019-06-22T17:30:19Z</time>
      </trkpt>
      <trkpt lat="40.618011" lon="-6.842211">
        <ele>781.826</ele>
        <time>2019-06-22T17:30:20Z</time>
      </trkpt>
      <trkpt lat="40.617869" lon="-6.842073">
        <ele>781.808</ele>
        <time>2019-06-22T17:30:21Z</time>
      </trkpt>
      <trkpt lat="40.617729" lon="-6.841937">
        <ele>780.742</ele>
        <time>2019-06-22T17:30:22Z</time>
      </trkpt>
      <trkpt lat="40.617592" lon="-6.841809">
        <ele>779.256</ele>
        <time>2019-06-22T17:30:23Z</time>
      </trkpt>
      <trkpt lat="40.617453" lon="-6.841663">
        <ele>778.198</ele>
        <time>2019-06-22T17:30:24Z</time>
      </trkpt>
      <trkpt lat="40.617314" lon="-6.841520">
        <ele>777.320</ele>
        <time>2019-06-22T17:30:25Z</time>
      </trkpt>
      <trkpt lat="40.617177" lon="-6.841373">
        <ele>777.128</ele>
        <time>2019-06-22T17:30:26Z</time>
      </trkpt>
      <trkpt lat="40.617024" lon="-6.841242">
        <ele>777.137</ele>
        <time>2019-06-22T17:30:27Z</time>
      </trkpt>
      <trkpt lat="40.616882" lon="-6.841103">
        <ele>777.132</ele>
        <time>2019-06-22T17:30:28Z</time>
      </trkpt>
      <trkpt lat="40.616737" lon="-6.840951">
        <ele>777.175</ele>
        <time>2019-06-22T17:30:29Z</time>
      </trkpt>
      <trkpt lat="40.616605" lon="-6.840805">
        <ele>776.044</ele>
        <time>2019-06-22T17:30:30Z</time>
      </trkpt>
      <trkpt lat="40.616470" lon="-6.840656">
        <ele>774.505</ele>
        <time>2019-06-22T17:30:31Z</time>
      </trkpt>
      <trkpt lat="40.616338" lon="-6.840519">
        <ele>772.915</ele>
        <time>2019-06-22T17:30:32Z</time>
      </trkpt>
      <trkpt lat="40.616206" lon="-6.840370">
        <ele>770.808</ele>
        <time>2019-06-22T17:30:33Z</time>
      </trkpt>
      <trkpt lat="40.616087" lon="-6.840215">
        <ele>770.717</ele>
        <time>2019-06-22T17:30:34Z</time>
      </trkpt>
      <trkpt lat="40.615965" lon="-6.840069">
        <ele>770.431</ele>
        <time>2019-06-22T17:30:35Z</time>
      </trkpt>
      <trkpt lat="40.615861" lon="-6.839904">
        <ele>769.883</ele>
        <time>2019-06-22T17:30:36Z</time>
      </trkpt>
      <trkpt lat="40.615769" lon="-6.839720">
        <ele>769.465</ele>
        <time>2019-06-22T17:30:37Z</time>
      </trkpt>
      <trkpt lat="40.615680" lon="-6.839528">
        <ele>769.033</ele>
        <time>2019-06-22T17:30:38Z</time>
      </trkpt>
      <trkpt lat="40.615617" lon="-6.839331">
        <ele>768.122</ele>
        <time>2019-06-22T17:30:39Z</time>
      </trkpt>
      <trkpt lat="40.615537" lon="-6.839154">
        <ele>767.467</ele>
        <time>2019-06-22T17:30:40Z</time>
      </trkpt>
      <trkpt lat="40.615455" lon="-6.838969">
        <ele>766.190</ele>
        <time>2019-06-22T17:30:41Z</time>
      </trkpt>
      <trkpt lat="40.615381" lon="-6.838787">
        <ele>765.633</ele>
        <time>2019-06-22T17:30:42Z</time>
      </trkpt>
      <trkpt lat="40.615320" lon="-6.838612">
        <ele>764.823</ele>
        <time>2019-06-22T17:30:43Z</time>
      </trkpt>
      <trkpt lat="40.615262" lon="-6.838434">
        <ele>763.815</ele>
        <time>2019-06-22T17:30:44Z</time>
      </trkpt>
      <trkpt lat="40.615216" lon="-6.838253">
        <ele>763.308</ele>
        <time>2019-06-22T17:30:45Z</time>
      </trkpt>
      <trkpt lat="40.615161" lon="-6.838065">
        <ele>763.286</ele>
        <time>2019-06-22T17:30:46Z</time>
      </trkpt>
      <trkpt lat="40.615096" lon="-6.837875">
        <ele>762.660</ele>
        <time>2019-06-22T17:30:47Z</time>
      </trkpt>
      <trkpt lat="40.615040" lon="-6.837688">
        <ele>762.332</ele>
        <time>2019-06-22T17:30:48Z</time>
      </trkpt>
      <trkpt lat="40.614993" lon="-6.837496">
        <ele>762.094</ele>
        <time>2019-06-22T17:30:49Z</time>
      </trkpt>
      <trkpt lat="40.614945" lon="-6.837317">
        <ele>761.262</ele>
        <time>2019-06-22T17:30:50Z</time>
      </trkpt>
      <trkpt lat="40.614881" lon="-6.837148">
        <ele>759.641</ele>
        <time>2019-06-22T17:30:51Z</time>
      </trkpt>
      <trkpt lat="40.614826" lon="-6.836957">
        <ele>758.546</ele>
        <time>2019-06-22T17:30:52Z</time>
      </trkpt>
      <trkpt lat="40.614759" lon="-6.836773">
        <ele>757.639</ele>
        <time>2019-06-22T17:30:53Z</time>
      </trkpt>
      <trkpt lat="40.614691" lon="-6.836573">
        <ele>757.155</ele>
        <time>2019-06-22T17:30:54Z</time>
      </trkpt>
      <trkpt lat="40.614633" lon="-6.836381">
        <ele>756.607</ele>
        <time>2019-06-22T17:30:55Z</time>
      </trkpt>
      <trkpt lat="40.614575" lon="-6.836194">
        <ele>756.417</ele>
        <time>2019-06-22T17:30:56Z</time>
      </trkpt>
      <trkpt lat="40.614510" lon="-6.836007">
        <ele>756.208</ele>
        <time>2019-06-22T17:30:57Z</time>
      </trkpt>
      <trkpt lat="40.614451" lon="-6.835820">
        <ele>756.118</ele>
        <time>2019-06-22T17:30:58Z</time>
      </trkpt>
      <trkpt lat="40.614392" lon="-6.835613">
        <ele>756.112</ele>
        <time>2019-06-22T17:30:59Z</time>
      </trkpt>
      <trkpt lat="40.614330" lon="-6.835437">
        <ele>755.634</ele>
        <time>2019-06-22T17:31:00Z</time>
      </trkpt>
      <trkpt lat="40.614262" lon="-6.835246">
        <ele>755.156</ele>
        <time>2019-06-22T17:31:01Z</time>
      </trkpt>
      <trkpt lat="40.614193" lon="-6.835056">
        <ele>754.984</ele>
        <time>2019-06-22T17:31:02Z</time>
      </trkpt>
      <trkpt lat="40.614104" lon="-6.834867">
        <ele>754.953</ele>
        <time>2019-06-22T17:31:03Z</time>
      </trkpt>
      <trkpt lat="40.614017" lon="-6.834671">
        <ele>754.218</ele>
        <time>2019-06-22T17:31:04Z</time>
      </trkpt>
      <trkpt lat="40.613914" lon="-6.834488">
        <ele>753.251</ele>
        <time>2019-06-22T17:31:05Z</time>
      </trkpt>
      <trkpt lat="40.613803" lon="-6.834320">
        <ele>752.258</ele>
        <time>2019-06-22T17:31:06Z</time>
      </trkpt>
      <trkpt lat="40.613678" lon="-6.834171">
        <ele>751.552</ele>
        <time>2019-06-22T17:31:07Z</time>
      </trkpt>
      <trkpt lat="40.613563" lon="-6.834030">
        <ele>749.817</ele>
        <time>2019-06-22T17:31:08Z</time>
      </trkpt>
      <trkpt lat="40.613426" lon="-6.833891">
        <ele>749.008</ele>
        <time>2019-06-22T17:31:09Z</time>
      </trkpt>
      <trkpt lat="40.613277" lon="-6.833734">
        <ele>749.018</ele>
        <time>2019-06-22T17:31:10Z</time>
      </trkpt>
      <trkpt lat="40.613133" lon="-6.833586">
        <ele>748.812</ele>
        <time>2019-06-22T17:31:11Z</time>
      </trkpt>
      <trkpt lat="40.612987" lon="-6.833433">
        <ele>749.154</ele>
        <time>2019-06-22T17:31:12Z</time>
      </trkpt>
      <trkpt lat="40.612844" lon="-6.833267">
        <ele>749.156</ele>
        <time>2019-06-22T17:31:13Z</time>
      </trkpt>
      <trkpt lat="40.612696" lon="-6.833116">
        <ele>750.374</ele>
        <time>2019-06-22T17:31:14Z</time>
      </trkpt>
      <trkpt lat="40.612541" lon="-6.832954">
        <ele>751.423</ele>
        <time>2019-06-22T17:31:15Z</time>
      </trkpt>
      <trkpt lat="40.612396" lon="-6.832800">
        <ele>751.488</ele>
        <time>2019-06-22T17:31:16Z</time>
      </trkpt>
      <trkpt lat="40.612252" lon="-6.832648">
        <ele>752.991</ele>
        <time>2019-06-22T17:31:17Z</time>
      </trkpt>
      <trkpt lat="40.612114" lon="-6.832497">
        <ele>754.046</ele>
        <time>2019-06-22T17:31:18Z</time>
      </trkpt>
      <trkpt lat="40.611968" lon="-6.832339">
        <ele>755.088</ele>
        <time>2019-06-22T17:31:19Z</time>
      </trkpt>
      <trkpt lat="40.611835" lon="-6.832178">
        <ele>755.216</ele>
        <time>2019-06-22T17:31:20Z</time>
      </trkpt>
      <trkpt lat="40.611720" lon="-6.832016">
        <ele>757.008</ele>
        <time>2019-06-22T17:31:21Z</time>
      </trkpt>
      <trkpt lat="40.611605" lon="-6.831805">
        <ele>758.467</ele>
        <time>2019-06-22T17:31:22Z</time>
      </trkpt>
      <trkpt lat="40.611508" lon="-6.831612">
        <ele>759.671</ele>
        <time>2019-06-22T17:31:23Z</time>
      </trkpt>
      <trkpt lat="40.611397" lon="-6.831430">
        <ele>760.143</ele>
        <time>2019-06-22T17:31:24Z</time>
      </trkpt>
      <trkpt lat="40.611298" lon="-6.831260">
        <ele>761.325</ele>
        <time>2019-06-22T17:31:25Z</time>
      </trkpt>
      <trkpt lat="40.611191" lon="-6.831085">
        <ele>761.453</ele>
        <time>2019-06-22T17:31:26Z</time>
      </trkpt>
      <trkpt lat="40.611088" lon="-6.830902">
        <ele>761.532</ele>
        <time>2019-06-22T17:31:27Z</time>
      </trkpt>
      <trkpt lat="40.610990" lon="-6.830727">
        <ele>762.097</ele>
        <time>2019-06-22T17:31:28Z</time>
      </trkpt>
      <trkpt lat="40.610891" lon="-6.830568">
        <ele>762.310</ele>
        <time>2019-06-22T17:31:29Z</time>
      </trkpt>
      <trkpt lat="40.610793" lon="-6.830408">
        <ele>762.488</ele>
        <time>2019-06-22T17:31:30Z</time>
      </trkpt>
      <trkpt lat="40.610714" lon="-6.830276">
        <ele>763.224</ele>
        <time>2019-06-22T17:31:31Z</time>
      </trkpt>
      <trkpt lat="40.610642" lon="-6.830150">
        <ele>764.726</ele>
        <time>2019-06-22T17:31:32Z</time>
      </trkpt>
      <trkpt lat="40.610568" lon="-6.830029">
        <ele>765.708</ele>
        <time>2019-06-22T17:31:33Z</time>
      </trkpt>
      <trkpt lat="40.610496" lon="-6.829910">
        <ele>766.911</ele>
        <time>2019-06-22T17:31:34Z</time>
      </trkpt>
      <trkpt lat="40.610420" lon="-6.829797">
        <ele>768.535</ele>
        <time>2019-06-22T17:31:35Z</time>
      </trkpt>
      <trkpt lat="40.610349" lon="-6.829703">
        <ele>769.747</ele>
        <time>2019-06-22T17:31:36Z</time>
      </trkpt>
      <trkpt lat="40.610271" lon="-6.829596">
        <ele>770.519</ele>
        <time>2019-06-22T17:31:37Z</time>
      </trkpt>
      <trkpt lat="40.610185" lon="-6.829484">
        <ele>771.157</ele>
        <time>2019-06-22T17:31:38Z</time>
      </trkpt>
      <trkpt lat="40.610091" lon="-6.829381">
        <ele>771.996</ele>
        <time>2019-06-22T17:31:39Z</time>
      </trkpt>
      <trkpt lat="40.609996" lon="-6.829282">
        <ele>772.661</ele>
        <time>2019-06-22T17:31:40Z</time>
      </trkpt>
      <trkpt lat="40.609889" lon="-6.829181">
        <ele>773.684</ele>
        <time>2019-06-22T17:31:41Z</time>
      </trkpt>
      <trkpt lat="40.609770" lon="-6.829070">
        <ele>774.381</ele>
        <time>2019-06-22T17:31:42Z</time>
      </trkpt>
      <trkpt lat="40.609647" lon="-6.828961">
        <ele>774.561</ele>
        <time>2019-06-22T17:31:43Z</time>
      </trkpt>
      <trkpt lat="40.609524" lon="-6.828853">
        <ele>774.917</ele>
        <time>2019-06-22T17:31:44Z</time>
      </trkpt>
      <trkpt lat="40.609395" lon="-6.828754">
        <ele>774.908</ele>
        <time>2019-06-22T17:31:45Z</time>
      </trkpt>
      <trkpt lat="40.609274" lon="-6.828666">
        <ele>774.631</ele>
        <time>2019-06-22T17:31:46Z</time>
      </trkpt>
      <trkpt lat="40.609138" lon="-6.828591">
        <ele>774.675</ele>
        <time>2019-06-22T17:31:47Z</time>
      </trkpt>
      <trkpt lat="40.609003" lon="-6.828517">
        <ele>775.447</ele>
        <time>2019-06-22T17:31:48Z</time>
      </trkpt>
      <trkpt lat="40.608865" lon="-6.828446">
        <ele>775.579</ele>
        <time>2019-06-22T17:31:49Z</time>
      </trkpt>
      <trkpt lat="40.608727" lon="-6.828377">
        <ele>776.237</ele>
        <time>2019-06-22T17:31:50Z</time>
      </trkpt>
      <trkpt lat="40.608591" lon="-6.828330">
        <ele>776.776</ele>
        <time>2019-06-22T17:31:51Z</time>
      </trkpt>
      <trkpt lat="40.608450" lon="-6.828273">
        <ele>777.121</ele>
        <time>2019-06-22T17:31:52Z</time>
      </trkpt>
      <trkpt lat="40.608319" lon="-6.828206">
        <ele>777.264</ele>
        <time>2019-06-22T17:31:53Z</time>
      </trkpt>
      <trkpt lat="40.608180" lon="-6.828154">
        <ele>777.778</ele>
        <time>2019-06-22T17:31:54Z</time>
      </trkpt>
      <trkpt lat="40.608048" lon="-6.828104">
        <ele>777.833</ele>
        <time>2019-06-22T17:31:55Z</time>
      </trkpt>
      <trkpt lat="40.607915" lon="-6.828038">
        <ele>778.126</ele>
        <time>2019-06-22T17:31:56Z</time>
      </trkpt>
      <trkpt lat="40.607790" lon="-6.827955">
        <ele>778.308</ele>
        <time>2019-06-22T17:31:57Z</time>
      </trkpt>
      <trkpt lat="40.607676" lon="-6.827858">
        <ele>778.480</ele>
        <time>2019-06-22T17:31:58Z</time>
      </trkpt>
      <trkpt lat="40.607563" lon="-6.827782">
        <ele>778.594</ele>
        <time>2019-06-22T17:31:59Z</time>
      </trkpt>
      <trkpt lat="40.607468" lon="-6.827667">
        <ele>779.446</ele>
        <time>2019-06-22T17:32:00Z</time>
      </trkpt>
      <trkpt lat="40.607363" lon="-6.827573">
        <ele>780.138</ele>
        <time>2019-06-22T17:32:01Z</time>
      </trkpt>
      <trkpt lat="40.607289" lon="-6.827458">
        <ele>780.646</ele>
        <time>2019-06-22T17:32:02Z</time>
      </trkpt>
      <trkpt lat="40.607230" lon="-6.827336">
        <ele>781.585</ele>
        <time>2019-06-22T17:32:03Z</time>
      </trkpt>
      <trkpt lat="40.607187" lon="-6.827193">
        <ele>781.560</ele>
        <time>2019-06-22T17:32:04Z</time>
      </trkpt>
      <trkpt lat="40.607146" lon="-6.827055">
        <ele>781.573</ele>
        <time>2019-06-22T17:32:05Z</time>
      </trkpt>
      <trkpt lat="40.607114" lon="-6.826900">
        <ele>781.531</ele>
        <time>2019-06-22T17:32:06Z</time>
      </trkpt>
      <trkpt lat="40.607076" lon="-6.826753">
        <ele>781.561</ele>
        <time>2019-06-22T17:32:07Z</time>
      </trkpt>
      <trkpt lat="40.607030" lon="-6.826630">
        <ele>781.507</ele>
        <time>2019-06-22T17:32:08Z</time>
      </trkpt>
      <trkpt lat="40.606967" lon="-6.826495">
        <ele>781.508</ele>
        <time>2019-06-22T17:32:09Z</time>
      </trkpt>
      <trkpt lat="40.606899" lon="-6.826358">
        <ele>781.526</ele>
        <time>2019-06-22T17:32:10Z</time>
      </trkpt>
      <trkpt lat="40.606824" lon="-6.826234">
        <ele>781.840</ele>
        <time>2019-06-22T17:32:11Z</time>
      </trkpt>
      <trkpt lat="40.606766" lon="-6.826113">
        <ele>782.512</ele>
        <time>2019-06-22T17:32:12Z</time>
      </trkpt>
      <trkpt lat="40.606695" lon="-6.826019">
        <ele>782.914</ele>
        <time>2019-06-22T17:32:13Z</time>
      </trkpt>
      <trkpt lat="40.606631" lon="-6.825918">
        <ele>783.462</ele>
        <time>2019-06-22T17:32:14Z</time>
      </trkpt>
      <trkpt lat="40.606578" lon="-6.825803">
        <ele>783.991</ele>
        <time>2019-06-22T17:32:15Z</time>
      </trkpt>
      <trkpt lat="40.606517" lon="-6.825699">
        <ele>784.126</ele>
        <time>2019-06-22T17:32:16Z</time>
      </trkpt>
      <trkpt lat="40.606419" lon="-6.825452">
        <ele>784.239</ele>
        <time>2019-06-22T17:32:18Z</time>
      </trkpt>
      <trkpt lat="40.606383" lon="-6.825380">
        <ele>784.594</ele>
        <time>2019-06-22T17:32:20Z</time>
      </trkpt>
      <trkpt lat="40.606378" lon="-6.825298">
        <ele>784.957</ele>
        <time>2019-06-22T17:32:21Z</time>
      </trkpt>
      <trkpt lat="40.606329" lon="-6.825230">
        <ele>785.422</ele>
        <time>2019-06-22T17:32:22Z</time>
      </trkpt>
      <trkpt lat="40.606285" lon="-6.825174">
        <ele>785.608</ele>
        <time>2019-06-22T17:32:23Z</time>
      </trkpt>
      <trkpt lat="40.606243" lon="-6.825119">
        <ele>785.662</ele>
        <time>2019-06-22T17:32:24Z</time>
      </trkpt>
      <trkpt lat="40.606199" lon="-6.825080">
        <ele>785.616</ele>
        <time>2019-06-22T17:32:25Z</time>
      </trkpt>
      <trkpt lat="40.606146" lon="-6.825039">
        <ele>785.388</ele>
        <time>2019-06-22T17:32:27Z</time>
      </trkpt>
      <trkpt lat="40.606100" lon="-6.825060">
        <ele>785.210</ele>
        <time>2019-06-22T17:33:40Z</time>
      </trkpt>
      <trkpt lat="40.606086" lon="-6.824984">
        <ele>786.178</ele>
        <time>2019-06-22T17:35:17Z</time>
      </trkpt>
      <trkpt lat="40.606070" lon="-6.824860">
        <ele>785.917</ele>
        <time>2019-06-22T17:35:19Z</time>
      </trkpt>
      <trkpt lat="40.606032" lon="-6.824788">
        <ele>785.662</ele>
        <time>2019-06-22T17:35:20Z</time>
      </trkpt>
      <trkpt lat="40.605970" lon="-6.824714">
        <ele>785.335</ele>
        <time>2019-06-22T17:35:21Z</time>
      </trkpt>
      <trkpt lat="40.605851" lon="-6.824674">
        <ele>785.172</ele>
        <time>2019-06-22T17:35:22Z</time>
      </trkpt>
      <trkpt lat="40.605766" lon="-6.824613">
        <ele>784.913</ele>
        <time>2019-06-22T17:35:23Z</time>
      </trkpt>
      <trkpt lat="40.605694" lon="-6.824499">
        <ele>784.714</ele>
        <time>2019-06-22T17:35:24Z</time>
      </trkpt>
      <trkpt lat="40.605607" lon="-6.824383">
        <ele>784.308</ele>
        <time>2019-06-22T17:35:25Z</time>
      </trkpt>
      <trkpt lat="40.605527" lon="-6.824260">
        <ele>783.960</ele>
        <time>2019-06-22T17:35:26Z</time>
      </trkpt>
      <trkpt lat="40.605454" lon="-6.824128">
        <ele>783.254</ele>
        <time>2019-06-22T17:35:27Z</time>
      </trkpt>
      <trkpt lat="40.605369" lon="-6.823989">
        <ele>782.786</ele>
        <time>2019-06-22T17:35:28Z</time>
      </trkpt>
      <trkpt lat="40.605286" lon="-6.823841">
        <ele>782.018</ele>
        <time>2019-06-22T17:35:29Z</time>
      </trkpt>
      <trkpt lat="40.605197" lon="-6.823697">
        <ele>781.436</ele>
        <time>2019-06-22T17:35:30Z</time>
      </trkpt>
      <trkpt lat="40.605108" lon="-6.823556">
        <ele>781.465</ele>
        <time>2019-06-22T17:35:31Z</time>
      </trkpt>
      <trkpt lat="40.605036" lon="-6.823424">
        <ele>781.470</ele>
        <time>2019-06-22T17:35:32Z</time>
      </trkpt>
      <trkpt lat="40.604965" lon="-6.823271">
        <ele>781.413</ele>
        <time>2019-06-22T17:35:33Z</time>
      </trkpt>
      <trkpt lat="40.604889" lon="-6.823135">
        <ele>781.381</ele>
        <time>2019-06-22T17:35:34Z</time>
      </trkpt>
      <trkpt lat="40.604796" lon="-6.823015">
        <ele>780.861</ele>
        <time>2019-06-22T17:35:35Z</time>
      </trkpt>
      <trkpt lat="40.604752" lon="-6.822905">
        <ele>780.017</ele>
        <time>2019-06-22T17:35:36Z</time>
      </trkpt>
      <trkpt lat="40.604682" lon="-6.822784">
        <ele>778.308</ele>
        <time>2019-06-22T17:35:37Z</time>
      </trkpt>
      <trkpt lat="40.604614" lon="-6.822658">
        <ele>777.561</ele>
        <time>2019-06-22T17:35:38Z</time>
      </trkpt>
      <trkpt lat="40.604549" lon="-6.822533">
        <ele>777.495</ele>
        <time>2019-06-22T17:35:39Z</time>
      </trkpt>
      <trkpt lat="40.604466" lon="-6.822403">
        <ele>777.497</ele>
        <time>2019-06-22T17:35:40Z</time>
      </trkpt>
      <trkpt lat="40.604382" lon="-6.822253">
        <ele>778.089</ele>
        <time>2019-06-22T17:35:41Z</time>
      </trkpt>
      <trkpt lat="40.604301" lon="-6.822117">
        <ele>778.537</ele>
        <time>2019-06-22T17:35:42Z</time>
      </trkpt>
      <trkpt lat="40.604215" lon="-6.821945">
        <ele>778.546</ele>
        <time>2019-06-22T17:35:43Z</time>
      </trkpt>
      <trkpt lat="40.604130" lon="-6.821783">
        <ele>778.251</ele>
        <time>2019-06-22T17:35:44Z</time>
      </trkpt>
      <trkpt lat="40.604053" lon="-6.821635">
        <ele>778.254</ele>
        <time>2019-06-22T17:35:45Z</time>
      </trkpt>
      <trkpt lat="40.603967" lon="-6.821484">
        <ele>777.761</ele>
        <time>2019-06-22T17:35:46Z</time>
      </trkpt>
      <trkpt lat="40.603887" lon="-6.821344">
        <ele>776.721</ele>
        <time>2019-06-22T17:35:47Z</time>
      </trkpt>
      <trkpt lat="40.603803" lon="-6.821209">
        <ele>776.613</ele>
        <time>2019-06-22T17:35:48Z</time>
      </trkpt>
      <trkpt lat="40.603729" lon="-6.821091">
        <ele>776.608</ele>
        <time>2019-06-22T17:35:49Z</time>
      </trkpt>
      <trkpt lat="40.603653" lon="-6.820968">
        <ele>776.169</ele>
        <time>2019-06-22T17:35:50Z</time>
      </trkpt>
      <trkpt lat="40.603588" lon="-6.820854">
        <ele>775.713</ele>
        <time>2019-06-22T17:35:51Z</time>
      </trkpt>
      <trkpt lat="40.603524" lon="-6.820767">
        <ele>775.555</ele>
        <time>2019-06-22T17:35:52Z</time>
      </trkpt>
      <trkpt lat="40.603468" lon="-6.820689">
        <ele>775.387</ele>
        <time>2019-06-22T17:35:53Z</time>
      </trkpt>
      <trkpt lat="40.603425" lon="-6.820616">
        <ele>775.485</ele>
        <time>2019-06-22T17:35:54Z</time>
      </trkpt>
      <trkpt lat="40.603357" lon="-6.820507">
        <ele>775.474</ele>
        <time>2019-06-22T17:35:55Z</time>
      </trkpt>
      <trkpt lat="40.603322" lon="-6.820421">
        <ele>775.779</ele>
        <time>2019-06-22T17:35:56Z</time>
      </trkpt>
      <trkpt lat="40.603255" lon="-6.820277">
        <ele>775.762</ele>
        <time>2019-06-22T17:35:57Z</time>
      </trkpt>
      <trkpt lat="40.603186" lon="-6.820156">
        <ele>775.774</ele>
        <time>2019-06-22T17:35:58Z</time>
      </trkpt>
      <trkpt lat="40.603113" lon="-6.820000">
        <ele>775.256</ele>
        <time>2019-06-22T17:35:59Z</time>
      </trkpt>
      <trkpt lat="40.603022" lon="-6.819830">
        <ele>774.621</ele>
        <time>2019-06-22T17:36:00Z</time>
      </trkpt>
      <trkpt lat="40.602930" lon="-6.819653">
        <ele>773.908</ele>
        <time>2019-06-22T17:36:01Z</time>
      </trkpt>
      <trkpt lat="40.602830" lon="-6.819460">
        <ele>773.310</ele>
        <time>2019-06-22T17:36:02Z</time>
      </trkpt>
      <trkpt lat="40.602729" lon="-6.819275">
        <ele>772.274</ele>
        <time>2019-06-22T17:36:03Z</time>
      </trkpt>
      <trkpt lat="40.602616" lon="-6.819078">
        <ele>771.376</ele>
        <time>2019-06-22T17:36:04Z</time>
      </trkpt>
      <trkpt lat="40.602492" lon="-6.818867">
        <ele>770.288</ele>
        <time>2019-06-22T17:36:05Z</time>
      </trkpt>
      <trkpt lat="40.602402" lon="-6.818695">
        <ele>769.666</ele>
        <time>2019-06-22T17:36:06Z</time>
      </trkpt>
      <trkpt lat="40.602267" lon="-6.818466">
        <ele>768.865</ele>
        <time>2019-06-22T17:36:07Z</time>
      </trkpt>
      <trkpt lat="40.602149" lon="-6.818250">
        <ele>768.370</ele>
        <time>2019-06-22T17:36:08Z</time>
      </trkpt>
      <trkpt lat="40.602016" lon="-6.818034">
        <ele>768.083</ele>
        <time>2019-06-22T17:36:09Z</time>
      </trkpt>
      <trkpt lat="40.601877" lon="-6.817841">
        <ele>767.776</ele>
        <time>2019-06-22T17:36:10Z</time>
      </trkpt>
      <trkpt lat="40.601724" lon="-6.817649">
        <ele>766.890</ele>
        <time>2019-06-22T17:36:11Z</time>
      </trkpt>
      <trkpt lat="40.601567" lon="-6.817502">
        <ele>766.419</ele>
        <time>2019-06-22T17:36:12Z</time>
      </trkpt>
      <trkpt lat="40.601398" lon="-6.817338">
        <ele>765.708</ele>
        <time>2019-06-22T17:36:13Z</time>
      </trkpt>
      <trkpt lat="40.601226" lon="-6.817156">
        <ele>765.290</ele>
        <time>2019-06-22T17:36:14Z</time>
      </trkpt>
      <trkpt lat="40.601041" lon="-6.816976">
        <ele>764.244</ele>
        <time>2019-06-22T17:36:15Z</time>
      </trkpt>
      <trkpt lat="40.600865" lon="-6.816779">
        <ele>764.286</ele>
        <time>2019-06-22T17:36:16Z</time>
      </trkpt>
      <trkpt lat="40.600685" lon="-6.816589">
        <ele>764.538</ele>
        <time>2019-06-22T17:36:17Z</time>
      </trkpt>
      <trkpt lat="40.600488" lon="-6.816387">
        <ele>764.576</ele>
        <time>2019-06-22T17:36:18Z</time>
      </trkpt>
      <trkpt lat="40.600303" lon="-6.816185">
        <ele>764.585</ele>
        <time>2019-06-22T17:36:19Z</time>
      </trkpt>
      <trkpt lat="40.600111" lon="-6.815976">
        <ele>764.330</ele>
        <time>2019-06-22T17:36:20Z</time>
      </trkpt>
      <trkpt lat="40.599923" lon="-6.815774">
        <ele>762.673</ele>
        <time>2019-06-22T17:36:21Z</time>
      </trkpt>
      <trkpt lat="40.599723" lon="-6.815562">
        <ele>760.231</ele>
        <time>2019-06-22T17:36:22Z</time>
      </trkpt>
      <trkpt lat="40.599519" lon="-6.815352">
        <ele>758.461</ele>
        <time>2019-06-22T17:36:23Z</time>
      </trkpt>
      <trkpt lat="40.599318" lon="-6.815146">
        <ele>756.507</ele>
        <time>2019-06-22T17:36:24Z</time>
      </trkpt>
      <trkpt lat="40.599102" lon="-6.814931">
        <ele>753.008</ele>
        <time>2019-06-22T17:36:25Z</time>
      </trkpt>
      <trkpt lat="40.598895" lon="-6.814734">
        <ele>750.696</ele>
        <time>2019-06-22T17:36:26Z</time>
      </trkpt>
      <trkpt lat="40.598693" lon="-6.814522">
        <ele>749.240</ele>
        <time>2019-06-22T17:36:27Z</time>
      </trkpt>
      <trkpt lat="40.598497" lon="-6.814320">
        <ele>746.982</ele>
        <time>2019-06-22T17:36:28Z</time>
      </trkpt>
      <trkpt lat="40.598290" lon="-6.814108">
        <ele>743.854</ele>
        <time>2019-06-22T17:36:29Z</time>
      </trkpt>
      <trkpt lat="40.598086" lon="-6.813905">
        <ele>742.952</ele>
        <time>2019-06-22T17:36:30Z</time>
      </trkpt>
      <trkpt lat="40.597895" lon="-6.813698">
        <ele>741.471</ele>
        <time>2019-06-22T17:36:31Z</time>
      </trkpt>
      <trkpt lat="40.597687" lon="-6.813495">
        <ele>740.446</ele>
        <time>2019-06-22T17:36:32Z</time>
      </trkpt>
      <trkpt lat="40.597480" lon="-6.813289">
        <ele>738.779</ele>
        <time>2019-06-22T17:36:33Z</time>
      </trkpt>
      <trkpt lat="40.597273" lon="-6.813089">
        <ele>738.294</ele>
        <time>2019-06-22T17:36:34Z</time>
      </trkpt>
      <trkpt lat="40.597060" lon="-6.812897">
        <ele>737.557</ele>
        <time>2019-06-22T17:36:35Z</time>
      </trkpt>
      <trkpt lat="40.596835" lon="-6.812710">
        <ele>737.122</ele>
        <time>2019-06-22T17:36:36Z</time>
      </trkpt>
      <trkpt lat="40.596615" lon="-6.812515">
        <ele>736.008</ele>
        <time>2019-06-22T17:36:37Z</time>
      </trkpt>
      <trkpt lat="40.596397" lon="-6.812320">
        <ele>735.172</ele>
        <time>2019-06-22T17:36:38Z</time>
      </trkpt>
      <trkpt lat="40.596168" lon="-6.812120">
        <ele>732.936</ele>
        <time>2019-06-22T17:36:39Z</time>
      </trkpt>
      <trkpt lat="40.595944" lon="-6.811924">
        <ele>732.058</ele>
        <time>2019-06-22T17:36:40Z</time>
      </trkpt>
      <trkpt lat="40.595725" lon="-6.811723">
        <ele>731.170</ele>
        <time>2019-06-22T17:36:41Z</time>
      </trkpt>
      <trkpt lat="40.595500" lon="-6.811523">
        <ele>730.988</ele>
        <time>2019-06-22T17:36:42Z</time>
      </trkpt>
      <trkpt lat="40.595283" lon="-6.811330">
        <ele>730.937</ele>
        <time>2019-06-22T17:36:43Z</time>
      </trkpt>
      <trkpt lat="40.595064" lon="-6.811126">
        <ele>730.922</ele>
        <time>2019-06-22T17:36:44Z</time>
      </trkpt>
      <trkpt lat="40.594843" lon="-6.810926">
        <ele>730.575</ele>
        <time>2019-06-22T17:36:45Z</time>
      </trkpt>
      <trkpt lat="40.594628" lon="-6.810724">
        <ele>729.363</ele>
        <time>2019-06-22T17:36:46Z</time>
      </trkpt>
      <trkpt lat="40.594416" lon="-6.810517">
        <ele>727.844</ele>
        <time>2019-06-22T17:36:47Z</time>
      </trkpt>
      <trkpt lat="40.594206" lon="-6.810288">
        <ele>726.318</ele>
        <time>2019-06-22T17:36:48Z</time>
      </trkpt>
      <trkpt lat="40.593995" lon="-6.810062">
        <ele>726.308</ele>
        <time>2019-06-22T17:36:49Z</time>
      </trkpt>
      <trkpt lat="40.593806" lon="-6.809822">
        <ele>725.029</ele>
        <time>2019-06-22T17:36:50Z</time>
      </trkpt>
      <trkpt lat="40.593633" lon="-6.809564">
        <ele>725.053</ele>
        <time>2019-06-22T17:36:51Z</time>
      </trkpt>
      <trkpt lat="40.593471" lon="-6.809294">
        <ele>725.415</ele>
        <time>2019-06-22T17:36:52Z</time>
      </trkpt>
      <trkpt lat="40.593330" lon="-6.809011">
        <ele>726.167</ele>
        <time>2019-06-22T17:36:53Z</time>
      </trkpt>
      <trkpt lat="40.593198" lon="-6.808713">
        <ele>727.865</ele>
        <time>2019-06-22T17:36:54Z</time>
      </trkpt>
      <trkpt lat="40.593086" lon="-6.808407">
        <ele>729.174</ele>
        <time>2019-06-22T17:36:55Z</time>
      </trkpt>
      <trkpt lat="40.592989" lon="-6.808087">
        <ele>729.999</ele>
        <time>2019-06-22T17:36:56Z</time>
      </trkpt>
      <trkpt lat="40.592910" lon="-6.807765">
        <ele>730.452</ele>
        <time>2019-06-22T17:36:57Z</time>
      </trkpt>
      <trkpt lat="40.592825" lon="-6.807451">
        <ele>730.848</ele>
        <time>2019-06-22T17:36:58Z</time>
      </trkpt>
      <trkpt lat="40.592750" lon="-6.807136">
        <ele>731.461</ele>
        <time>2019-06-22T17:36:59Z</time>
      </trkpt>
      <trkpt lat="40.592680" lon="-6.806815">
        <ele>731.917</ele>
        <time>2019-06-22T17:37:00Z</time>
      </trkpt>
      <trkpt lat="40.592603" lon="-6.806497">
        <ele>733.408</ele>
        <time>2019-06-22T17:37:01Z</time>
      </trkpt>
      <trkpt lat="40.592524" lon="-6.806183">
        <ele>734.387</ele>
        <time>2019-06-22T17:37:02Z</time>
      </trkpt>
      <trkpt lat="40.592457" lon="-6.805875">
        <ele>734.441</ele>
        <time>2019-06-22T17:37:03Z</time>
      </trkpt>
      <trkpt lat="40.592383" lon="-6.805553">
        <ele>734.743</ele>
        <time>2019-06-22T17:37:04Z</time>
      </trkpt>
      <trkpt lat="40.592322" lon="-6.805232">
        <ele>734.455</ele>
        <time>2019-06-22T17:37:05Z</time>
      </trkpt>
      <trkpt lat="40.592264" lon="-6.804916">
        <ele>734.743</ele>
        <time>2019-06-22T17:37:06Z</time>
      </trkpt>
      <trkpt lat="40.592223" lon="-6.804603">
        <ele>735.442</ele>
        <time>2019-06-22T17:37:07Z</time>
      </trkpt>
      <trkpt lat="40.592193" lon="-6.804289">
        <ele>736.987</ele>
        <time>2019-06-22T17:37:08Z</time>
      </trkpt>
      <trkpt lat="40.592177" lon="-6.803977">
        <ele>738.310</ele>
        <time>2019-06-22T17:37:09Z</time>
      </trkpt>
      <trkpt lat="40.592175" lon="-6.803653">
        <ele>739.441</ele>
        <time>2019-06-22T17:37:10Z</time>
      </trkpt>
      <trkpt lat="40.592193" lon="-6.803293">
        <ele>740.981</ele>
        <time>2019-06-22T17:37:11Z</time>
      </trkpt>
      <trkpt lat="40.592216" lon="-6.802962">
        <ele>741.509</ele>
        <time>2019-06-22T17:37:12Z</time>
      </trkpt>
      <trkpt lat="40.592241" lon="-6.802622">
        <ele>742.008</ele>
        <time>2019-06-22T17:37:13Z</time>
      </trkpt>
      <trkpt lat="40.592258" lon="-6.802262">
        <ele>743.137</ele>
        <time>2019-06-22T17:37:14Z</time>
      </trkpt>
      <trkpt lat="40.592276" lon="-6.801912">
        <ele>743.941</ele>
        <time>2019-06-22T17:37:15Z</time>
      </trkpt>
      <trkpt lat="40.592286" lon="-6.801591">
        <ele>744.073</ele>
        <time>2019-06-22T17:37:16Z</time>
      </trkpt>
      <trkpt lat="40.592300" lon="-6.801247">
        <ele>744.815</ele>
        <time>2019-06-22T17:37:17Z</time>
      </trkpt>
      <trkpt lat="40.592306" lon="-6.800897">
        <ele>745.723</ele>
        <time>2019-06-22T17:37:18Z</time>
      </trkpt>
      <trkpt lat="40.592319" lon="-6.800560">
        <ele>746.122</ele>
        <time>2019-06-22T17:37:19Z</time>
      </trkpt>
      <trkpt lat="40.592336" lon="-6.800211">
        <ele>746.547</ele>
        <time>2019-06-22T17:37:20Z</time>
      </trkpt>
      <trkpt lat="40.592358" lon="-6.799864">
        <ele>746.910</ele>
        <time>2019-06-22T17:37:21Z</time>
      </trkpt>
      <trkpt lat="40.592381" lon="-6.799504">
        <ele>746.931</ele>
        <time>2019-06-22T17:37:22Z</time>
      </trkpt>
      <trkpt lat="40.592400" lon="-6.799143">
        <ele>746.861</ele>
        <time>2019-06-22T17:37:23Z</time>
      </trkpt>
      <trkpt lat="40.592424" lon="-6.798790">
        <ele>746.807</ele>
        <time>2019-06-22T17:37:24Z</time>
      </trkpt>
      <trkpt lat="40.592442" lon="-6.798442">
        <ele>747.208</ele>
        <time>2019-06-22T17:37:25Z</time>
      </trkpt>
      <trkpt lat="40.592456" lon="-6.798082">
        <ele>747.496</ele>
        <time>2019-06-22T17:37:26Z</time>
      </trkpt>
      <trkpt lat="40.592448" lon="-6.797738">
        <ele>748.210</ele>
        <time>2019-06-22T17:37:27Z</time>
      </trkpt>
      <trkpt lat="40.592432" lon="-6.797391">
        <ele>748.712</ele>
        <time>2019-06-22T17:37:28Z</time>
      </trkpt>
      <trkpt lat="40.592415" lon="-6.797047">
        <ele>749.314</ele>
        <time>2019-06-22T17:37:29Z</time>
      </trkpt>
      <trkpt lat="40.592385" lon="-6.796703">
        <ele>749.422</ele>
        <time>2019-06-22T17:37:30Z</time>
      </trkpt>
      <trkpt lat="40.592336" lon="-6.796363">
        <ele>750.051</ele>
        <time>2019-06-22T17:37:31Z</time>
      </trkpt>
      <trkpt lat="40.592269" lon="-6.796023">
        <ele>750.066</ele>
        <time>2019-06-22T17:37:32Z</time>
      </trkpt>
      <trkpt lat="40.592204" lon="-6.795681">
        <ele>750.599</ele>
        <time>2019-06-22T17:37:33Z</time>
      </trkpt>
      <trkpt lat="40.592132" lon="-6.795339">
        <ele>750.719</ele>
        <time>2019-06-22T17:37:34Z</time>
      </trkpt>
      <trkpt lat="40.592058" lon="-6.794993">
        <ele>751.409</ele>
        <time>2019-06-22T17:37:35Z</time>
      </trkpt>
      <trkpt lat="40.591985" lon="-6.794642">
        <ele>751.419</ele>
        <time>2019-06-22T17:37:36Z</time>
      </trkpt>
      <trkpt lat="40.591903" lon="-6.794299">
        <ele>751.308</ele>
        <time>2019-06-22T17:37:37Z</time>
      </trkpt>
      <trkpt lat="40.591837" lon="-6.793953">
        <ele>751.084</ele>
        <time>2019-06-22T17:37:38Z</time>
      </trkpt>
      <trkpt lat="40.591772" lon="-6.793613">
        <ele>750.388</ele>
        <time>2019-06-22T17:37:39Z</time>
      </trkpt>
      <trkpt lat="40.591699" lon="-6.793266">
        <ele>749.660</ele>
        <time>2019-06-22T17:37:40Z</time>
      </trkpt>
      <trkpt lat="40.591619" lon="-6.792924">
        <ele>748.492</ele>
        <time>2019-06-22T17:37:41Z</time>
      </trkpt>
      <trkpt lat="40.591545" lon="-6.792590">
        <ele>747.880</ele>
        <time>2019-06-22T17:37:42Z</time>
      </trkpt>
      <trkpt lat="40.591469" lon="-6.792260">
        <ele>746.949</ele>
        <time>2019-06-22T17:37:43Z</time>
      </trkpt>
      <trkpt lat="40.591399" lon="-6.791933">
        <ele>746.534</ele>
        <time>2019-06-22T17:37:44Z</time>
      </trkpt>
      <trkpt lat="40.591324" lon="-6.791601">
        <ele>746.567</ele>
        <time>2019-06-22T17:37:45Z</time>
      </trkpt>
      <trkpt lat="40.591242" lon="-6.791279">
        <ele>747.035</ele>
        <time>2019-06-22T17:37:46Z</time>
      </trkpt>
      <trkpt lat="40.591168" lon="-6.790956">
        <ele>747.186</ele>
        <time>2019-06-22T17:37:47Z</time>
      </trkpt>
      <trkpt lat="40.591110" lon="-6.790642">
        <ele>747.114</ele>
        <time>2019-06-22T17:37:48Z</time>
      </trkpt>
      <trkpt lat="40.591039" lon="-6.790321">
        <ele>747.108</ele>
        <time>2019-06-22T17:37:49Z</time>
      </trkpt>
      <trkpt lat="40.590970" lon="-6.790017">
        <ele>747.196</ele>
        <time>2019-06-22T17:37:50Z</time>
      </trkpt>
      <trkpt lat="40.590906" lon="-6.789709">
        <ele>746.460</ele>
        <time>2019-06-22T17:37:51Z</time>
      </trkpt>
      <trkpt lat="40.590845" lon="-6.789405">
        <ele>746.412</ele>
        <time>2019-06-22T17:37:52Z</time>
      </trkpt>
      <trkpt lat="40.590778" lon="-6.789110">
        <ele>746.384</ele>
        <time>2019-06-22T17:37:53Z</time>
      </trkpt>
      <trkpt lat="40.590723" lon="-6.788829">
        <ele>746.392</ele>
        <time>2019-06-22T17:37:54Z</time>
      </trkpt>
      <trkpt lat="40.590662" lon="-6.788551">
        <ele>746.391</ele>
        <time>2019-06-22T17:37:55Z</time>
      </trkpt>
      <trkpt lat="40.590601" lon="-6.788284">
        <ele>745.456</ele>
        <time>2019-06-22T17:37:56Z</time>
      </trkpt>
      <trkpt lat="40.590547" lon="-6.788029">
        <ele>745.129</ele>
        <time>2019-06-22T17:37:57Z</time>
      </trkpt>
      <trkpt lat="40.590508" lon="-6.787790">
        <ele>745.158</ele>
        <time>2019-06-22T17:37:58Z</time>
      </trkpt>
      <trkpt lat="40.590457" lon="-6.787555">
        <ele>744.752</ele>
        <time>2019-06-22T17:37:59Z</time>
      </trkpt>
      <trkpt lat="40.590416" lon="-6.787318">
        <ele>744.617</ele>
        <time>2019-06-22T17:38:00Z</time>
      </trkpt>
      <trkpt lat="40.590383" lon="-6.787083">
        <ele>744.908</ele>
        <time>2019-06-22T17:38:01Z</time>
      </trkpt>
      <trkpt lat="40.590369" lon="-6.786845">
        <ele>744.958</ele>
        <time>2019-06-22T17:38:02Z</time>
      </trkpt>
      <trkpt lat="40.590364" lon="-6.786608">
        <ele>744.952</ele>
        <time>2019-06-22T17:38:03Z</time>
      </trkpt>
      <trkpt lat="40.590385" lon="-6.786386">
        <ele>744.964</ele>
        <time>2019-06-22T17:38:04Z</time>
      </trkpt>
      <trkpt lat="40.590417" lon="-6.786251">
        <ele>745.356</ele>
        <time>2019-06-22T17:38:05Z</time>
      </trkpt>
      <trkpt lat="40.590486" lon="-6.786043">
        <ele>745.354</ele>
        <time>2019-06-22T17:38:06Z</time>
      </trkpt>
      <trkpt lat="40.590574" lon="-6.785845">
        <ele>745.093</ele>
        <time>2019-06-22T17:38:07Z</time>
      </trkpt>
      <trkpt lat="40.590680" lon="-6.785669">
        <ele>745.038</ele>
        <time>2019-06-22T17:38:08Z</time>
      </trkpt>
      <trkpt lat="40.590786" lon="-6.785481">
        <ele>744.961</ele>
        <time>2019-06-22T17:38:09Z</time>
      </trkpt>
      <trkpt lat="40.590887" lon="-6.785302">
        <ele>744.923</ele>
        <time>2019-06-22T17:38:10Z</time>
      </trkpt>
      <trkpt lat="40.590986" lon="-6.785106">
        <ele>744.883</ele>
        <time>2019-06-22T17:38:11Z</time>
      </trkpt>
      <trkpt lat="40.591089" lon="-6.784952">
        <ele>744.811</ele>
        <time>2019-06-22T17:38:12Z</time>
      </trkpt>
      <trkpt lat="40.591180" lon="-6.784786">
        <ele>745.008</ele>
        <time>2019-06-22T17:38:13Z</time>
      </trkpt>
      <trkpt lat="40.591273" lon="-6.784641">
        <ele>745.095</ele>
        <time>2019-06-22T17:38:14Z</time>
      </trkpt>
      <trkpt lat="40.591370" lon="-6.784505">
        <ele>745.739</ele>
        <time>2019-06-22T17:38:15Z</time>
      </trkpt>
      <trkpt lat="40.591458" lon="-6.784339">
        <ele>746.481</ele>
        <time>2019-06-22T17:38:16Z</time>
      </trkpt>
      <trkpt lat="40.591547" lon="-6.784170">
        <ele>747.153</ele>
        <time>2019-06-22T17:38:17Z</time>
      </trkpt>
      <trkpt lat="40.591628" lon="-6.783989">
        <ele>747.541</ele>
        <time>2019-06-22T17:38:18Z</time>
      </trkpt>
      <trkpt lat="40.591699" lon="-6.783787">
        <ele>747.580</ele>
        <time>2019-06-22T17:38:19Z</time>
      </trkpt>
      <trkpt lat="40.591742" lon="-6.783556">
        <ele>747.335</ele>
        <time>2019-06-22T17:38:20Z</time>
      </trkpt>
      <trkpt lat="40.591766" lon="-6.783312">
        <ele>746.028</ele>
        <time>2019-06-22T17:38:21Z</time>
      </trkpt>
      <trkpt lat="40.591765" lon="-6.783088">
        <ele>744.349</ele>
        <time>2019-06-22T17:38:22Z</time>
      </trkpt>
      <trkpt lat="40.591725" lon="-6.782845">
        <ele>742.402</ele>
        <time>2019-06-22T17:38:23Z</time>
      </trkpt>
      <trkpt lat="40.591652" lon="-6.782623">
        <ele>740.222</ele>
        <time>2019-06-22T17:38:24Z</time>
      </trkpt>
      <trkpt lat="40.591550" lon="-6.782434">
        <ele>738.208</ele>
        <time>2019-06-22T17:38:25Z</time>
      </trkpt>
      <trkpt lat="40.591425" lon="-6.782230">
        <ele>737.357</ele>
        <time>2019-06-22T17:38:26Z</time>
      </trkpt>
      <trkpt lat="40.591284" lon="-6.782037">
        <ele>736.181</ele>
        <time>2019-06-22T17:38:27Z</time>
      </trkpt>
      <trkpt lat="40.591124" lon="-6.781851">
        <ele>735.053</ele>
        <time>2019-06-22T17:38:28Z</time>
      </trkpt>
      <trkpt lat="40.590969" lon="-6.781658">
        <ele>734.445</ele>
        <time>2019-06-22T17:38:29Z</time>
      </trkpt>
      <trkpt lat="40.590807" lon="-6.781450">
        <ele>734.193</ele>
        <time>2019-06-22T17:38:30Z</time>
      </trkpt>
      <trkpt lat="40.590637" lon="-6.781237">
        <ele>733.252</ele>
        <time>2019-06-22T17:38:31Z</time>
      </trkpt>
      <trkpt lat="40.590474" lon="-6.781031">
        <ele>731.817</ele>
        <time>2019-06-22T17:38:32Z</time>
      </trkpt>
      <trkpt lat="40.590301" lon="-6.780830">
        <ele>730.720</ele>
        <time>2019-06-22T17:38:33Z</time>
      </trkpt>
      <trkpt lat="40.590135" lon="-6.780632">
        <ele>729.068</ele>
        <time>2019-06-22T17:38:34Z</time>
      </trkpt>
      <trkpt lat="40.589979" lon="-6.780444">
        <ele>727.142</ele>
        <time>2019-06-22T17:38:35Z</time>
      </trkpt>
      <trkpt lat="40.589824" lon="-6.780239">
        <ele>725.626</ele>
        <time>2019-06-22T17:38:36Z</time>
      </trkpt>
      <trkpt lat="40.589672" lon="-6.780042">
        <ele>724.908</ele>
        <time>2019-06-22T17:38:37Z</time>
      </trkpt>
      <trkpt lat="40.589507" lon="-6.779843">
        <ele>724.929</ele>
        <time>2019-06-22T17:38:38Z</time>
      </trkpt>
      <trkpt lat="40.589349" lon="-6.779644">
        <ele>725.043</ele>
        <time>2019-06-22T17:38:39Z</time>
      </trkpt>
      <trkpt lat="40.589201" lon="-6.779430">
        <ele>725.665</ele>
        <time>2019-06-22T17:38:40Z</time>
      </trkpt>
      <trkpt lat="40.589065" lon="-6.779201">
        <ele>725.727</ele>
        <time>2019-06-22T17:38:41Z</time>
      </trkpt>
      <trkpt lat="40.588934" lon="-6.778967">
        <ele>725.755</ele>
        <time>2019-06-22T17:38:42Z</time>
      </trkpt>
      <trkpt lat="40.588814" lon="-6.778717">
        <ele>725.714</ele>
        <time>2019-06-22T17:38:43Z</time>
      </trkpt>
      <trkpt lat="40.588704" lon="-6.778454">
        <ele>725.339</ele>
        <time>2019-06-22T17:38:44Z</time>
      </trkpt>
      <trkpt lat="40.588608" lon="-6.778181">
        <ele>724.812</ele>
        <time>2019-06-22T17:38:45Z</time>
      </trkpt>
      <trkpt lat="40.588510" lon="-6.777903">
        <ele>724.294</ele>
        <time>2019-06-22T17:38:46Z</time>
      </trkpt>
      <trkpt lat="40.588427" lon="-6.777614">
        <ele>723.657</ele>
        <time>2019-06-22T17:38:47Z</time>
      </trkpt>
      <trkpt lat="40.588357" lon="-6.777319">
        <ele>722.822</ele>
        <time>2019-06-22T17:38:48Z</time>
      </trkpt>
      <trkpt lat="40.588300" lon="-6.777014">
        <ele>721.908</ele>
        <time>2019-06-22T17:38:49Z</time>
      </trkpt>
      <trkpt lat="40.588231" lon="-6.776751">
        <ele>720.942</ele>
        <time>2019-06-22T17:38:50Z</time>
      </trkpt>
      <trkpt lat="40.588163" lon="-6.776436">
        <ele>720.136</ele>
        <time>2019-06-22T17:38:51Z</time>
      </trkpt>
      <trkpt lat="40.588106" lon="-6.776123">
        <ele>719.998</ele>
        <time>2019-06-22T17:38:52Z</time>
      </trkpt>
      <trkpt lat="40.588057" lon="-6.775817">
        <ele>719.990</ele>
        <time>2019-06-22T17:38:53Z</time>
      </trkpt>
      <trkpt lat="40.588003" lon="-6.775520">
        <ele>719.918</ele>
        <time>2019-06-22T17:38:54Z</time>
      </trkpt>
      <trkpt lat="40.587951" lon="-6.775200">
        <ele>719.997</ele>
        <time>2019-06-22T17:38:55Z</time>
      </trkpt>
      <trkpt lat="40.587910" lon="-6.774879">
        <ele>719.972</ele>
        <time>2019-06-22T17:38:56Z</time>
      </trkpt>
      <trkpt lat="40.587881" lon="-6.774552">
        <ele>719.615</ele>
        <time>2019-06-22T17:38:57Z</time>
      </trkpt>
      <trkpt lat="40.587861" lon="-6.774211">
        <ele>719.621</ele>
        <time>2019-06-22T17:38:58Z</time>
      </trkpt>
      <trkpt lat="40.587848" lon="-6.773873">
        <ele>718.941</ele>
        <time>2019-06-22T17:38:59Z</time>
      </trkpt>
      <trkpt lat="40.587829" lon="-6.773568">
        <ele>718.505</ele>
        <time>2019-06-22T17:39:00Z</time>
      </trkpt>
      <trkpt lat="40.587818" lon="-6.773258">
        <ele>717.508</ele>
        <time>2019-06-22T17:39:01Z</time>
      </trkpt>
      <trkpt lat="40.587818" lon="-6.772954">
        <ele>716.935</ele>
        <time>2019-06-22T17:39:02Z</time>
      </trkpt>
      <trkpt lat="40.587805" lon="-6.772662">
        <ele>716.039</ele>
        <time>2019-06-22T17:39:03Z</time>
      </trkpt>
      <trkpt lat="40.587804" lon="-6.772381">
        <ele>715.881</ele>
        <time>2019-06-22T17:39:04Z</time>
      </trkpt>
      <trkpt lat="40.587805" lon="-6.772132">
        <ele>715.413</ele>
        <time>2019-06-22T17:39:05Z</time>
      </trkpt>
      <trkpt lat="40.587810" lon="-6.771892">
        <ele>715.331</ele>
        <time>2019-06-22T17:39:06Z</time>
      </trkpt>
      <trkpt lat="40.587787" lon="-6.771640">
        <ele>715.420</ele>
        <time>2019-06-22T17:39:07Z</time>
      </trkpt>
      <trkpt lat="40.587769" lon="-6.771395">
        <ele>715.435</ele>
        <time>2019-06-22T17:39:08Z</time>
      </trkpt>
      <trkpt lat="40.587720" lon="-6.771157">
        <ele>715.578</ele>
        <time>2019-06-22T17:39:09Z</time>
      </trkpt>
      <trkpt lat="40.587656" lon="-6.770897">
        <ele>715.575</ele>
        <time>2019-06-22T17:39:10Z</time>
      </trkpt>
      <trkpt lat="40.587593" lon="-6.770634">
        <ele>715.728</ele>
        <time>2019-06-22T17:39:11Z</time>
      </trkpt>
      <trkpt lat="40.587540" lon="-6.770365">
        <ele>716.220</ele>
        <time>2019-06-22T17:39:12Z</time>
      </trkpt>
      <trkpt lat="40.587482" lon="-6.770097">
        <ele>716.608</ele>
        <time>2019-06-22T17:39:13Z</time>
      </trkpt>
      <trkpt lat="40.587423" lon="-6.769783">
        <ele>716.820</ele>
        <time>2019-06-22T17:39:14Z</time>
      </trkpt>
      <trkpt lat="40.587380" lon="-6.769485">
        <ele>717.164</ele>
        <time>2019-06-22T17:39:15Z</time>
      </trkpt>
      <trkpt lat="40.587350" lon="-6.769178">
        <ele>717.396</ele>
        <time>2019-06-22T17:39:16Z</time>
      </trkpt>
      <trkpt lat="40.587343" lon="-6.768861">
        <ele>717.868</ele>
        <time>2019-06-22T17:39:17Z</time>
      </trkpt>
      <trkpt lat="40.587350" lon="-6.768530">
        <ele>718.226</ele>
        <time>2019-06-22T17:39:18Z</time>
      </trkpt>
      <trkpt lat="40.587355" lon="-6.768195">
        <ele>718.775</ele>
        <time>2019-06-22T17:39:19Z</time>
      </trkpt>
      <trkpt lat="40.587368" lon="-6.767872">
        <ele>719.410</ele>
        <time>2019-06-22T17:39:20Z</time>
      </trkpt>
      <trkpt lat="40.587371" lon="-6.767543">
        <ele>719.453</ele>
        <time>2019-06-22T17:39:21Z</time>
      </trkpt>
      <trkpt lat="40.587379" lon="-6.767195">
        <ele>719.352</ele>
        <time>2019-06-22T17:39:22Z</time>
      </trkpt>
      <trkpt lat="40.587388" lon="-6.766859">
        <ele>719.353</ele>
        <time>2019-06-22T17:39:23Z</time>
      </trkpt>
      <trkpt lat="40.587401" lon="-6.766545">
        <ele>719.908</ele>
        <time>2019-06-22T17:39:24Z</time>
      </trkpt>
      <trkpt lat="40.587412" lon="-6.766205">
        <ele>720.208</ele>
        <time>2019-06-22T17:39:25Z</time>
      </trkpt>
      <trkpt lat="40.587420" lon="-6.765861">
        <ele>720.898</ele>
        <time>2019-06-22T17:39:26Z</time>
      </trkpt>
      <trkpt lat="40.587428" lon="-6.765530">
        <ele>721.892</ele>
        <time>2019-06-22T17:39:27Z</time>
      </trkpt>
      <trkpt lat="40.587428" lon="-6.765188">
        <ele>722.334</ele>
        <time>2019-06-22T17:39:28Z</time>
      </trkpt>
      <trkpt lat="40.587425" lon="-6.764845">
        <ele>722.726</ele>
        <time>2019-06-22T17:39:29Z</time>
      </trkpt>
      <trkpt lat="40.587432" lon="-6.764501">
        <ele>723.444</ele>
        <time>2019-06-22T17:39:30Z</time>
      </trkpt>
      <trkpt lat="40.587435" lon="-6.764145">
        <ele>724.093</ele>
        <time>2019-06-22T17:39:31Z</time>
      </trkpt>
      <trkpt lat="40.587443" lon="-6.763786">
        <ele>724.168</ele>
        <time>2019-06-22T17:39:32Z</time>
      </trkpt>
      <trkpt lat="40.587449" lon="-6.763440">
        <ele>725.091</ele>
        <time>2019-06-22T17:39:33Z</time>
      </trkpt>
      <trkpt lat="40.587460" lon="-6.763093">
        <ele>725.854</ele>
        <time>2019-06-22T17:39:34Z</time>
      </trkpt>
      <trkpt lat="40.587473" lon="-6.762751">
        <ele>726.356</ele>
        <time>2019-06-22T17:39:35Z</time>
      </trkpt>
      <trkpt lat="40.587478" lon="-6.762401">
        <ele>726.511</ele>
        <time>2019-06-22T17:39:36Z</time>
      </trkpt>
      <trkpt lat="40.587489" lon="-6.762072">
        <ele>726.908</ele>
        <time>2019-06-22T17:39:37Z</time>
      </trkpt>
      <trkpt lat="40.587497" lon="-6.761724">
        <ele>727.998</ele>
        <time>2019-06-22T17:39:38Z</time>
      </trkpt>
      <trkpt lat="40.587510" lon="-6.761385">
        <ele>727.942</ele>
        <time>2019-06-22T17:39:39Z</time>
      </trkpt>
      <trkpt lat="40.587525" lon="-6.761029">
        <ele>727.834</ele>
        <time>2019-06-22T17:39:40Z</time>
      </trkpt>
      <trkpt lat="40.587527" lon="-6.760663">
        <ele>727.876</ele>
        <time>2019-06-22T17:39:41Z</time>
      </trkpt>
      <trkpt lat="40.587529" lon="-6.760297">
        <ele>728.964</ele>
        <time>2019-06-22T17:39:42Z</time>
      </trkpt>
      <trkpt lat="40.587549" lon="-6.759945">
        <ele>729.053</ele>
        <time>2019-06-22T17:39:43Z</time>
      </trkpt>
      <trkpt lat="40.587559" lon="-6.759594">
        <ele>729.228</ele>
        <time>2019-06-22T17:39:44Z</time>
      </trkpt>
      <trkpt lat="40.587555" lon="-6.759224">
        <ele>729.481</ele>
        <time>2019-06-22T17:39:45Z</time>
      </trkpt>
      <trkpt lat="40.587559" lon="-6.758870">
        <ele>729.939</ele>
        <time>2019-06-22T17:39:46Z</time>
      </trkpt>
      <trkpt lat="40.587560" lon="-6.758525">
        <ele>730.001</ele>
        <time>2019-06-22T17:39:47Z</time>
      </trkpt>
      <trkpt lat="40.587563" lon="-6.758170">
        <ele>730.021</ele>
        <time>2019-06-22T17:39:48Z</time>
      </trkpt>
      <trkpt lat="40.587563" lon="-6.757817">
        <ele>730.208</ele>
        <time>2019-06-22T17:39:49Z</time>
      </trkpt>
      <trkpt lat="40.587571" lon="-6.757458">
        <ele>730.486</ele>
        <time>2019-06-22T17:39:50Z</time>
      </trkpt>
      <trkpt lat="40.587582" lon="-6.757109">
        <ele>731.260</ele>
        <time>2019-06-22T17:39:51Z</time>
      </trkpt>
      <trkpt lat="40.587586" lon="-6.756748">
        <ele>732.032</ele>
        <time>2019-06-22T17:39:52Z</time>
      </trkpt>
      <trkpt lat="40.587596" lon="-6.756389">
        <ele>732.644</ele>
        <time>2019-06-22T17:39:53Z</time>
      </trkpt>
      <trkpt lat="40.587604" lon="-6.756043">
        <ele>733.372</ele>
        <time>2019-06-22T17:39:54Z</time>
      </trkpt>
      <trkpt lat="40.587600" lon="-6.755695">
        <ele>733.881</ele>
        <time>2019-06-22T17:39:55Z</time>
      </trkpt>
      <trkpt lat="40.587617" lon="-6.755344">
        <ele>734.286</ele>
        <time>2019-06-22T17:39:56Z</time>
      </trkpt>
      <trkpt lat="40.587633" lon="-6.754981">
        <ele>734.499</ele>
        <time>2019-06-22T17:39:57Z</time>
      </trkpt>
      <trkpt lat="40.587640" lon="-6.754620">
        <ele>734.426</ele>
        <time>2019-06-22T17:39:58Z</time>
      </trkpt>
      <trkpt lat="40.587642" lon="-6.754255">
        <ele>734.447</ele>
        <time>2019-06-22T17:39:59Z</time>
      </trkpt>
      <trkpt lat="40.587651" lon="-6.753896">
        <ele>734.311</ele>
        <time>2019-06-22T17:40:00Z</time>
      </trkpt>
      <trkpt lat="40.587651" lon="-6.753525">
        <ele>734.308</ele>
        <time>2019-06-22T17:40:01Z</time>
      </trkpt>
      <trkpt lat="40.587652" lon="-6.753169">
        <ele>734.335</ele>
        <time>2019-06-22T17:40:02Z</time>
      </trkpt>
      <trkpt lat="40.587648" lon="-6.752780">
        <ele>734.389</ele>
        <time>2019-06-22T17:40:03Z</time>
      </trkpt>
      <trkpt lat="40.587642" lon="-6.752409">
        <ele>734.491</ele>
        <time>2019-06-22T17:40:04Z</time>
      </trkpt>
      <trkpt lat="40.587643" lon="-6.752042">
        <ele>734.573</ele>
        <time>2019-06-22T17:40:05Z</time>
      </trkpt>
      <trkpt lat="40.587644" lon="-6.751679">
        <ele>734.711</ele>
        <time>2019-06-22T17:40:06Z</time>
      </trkpt>
      <trkpt lat="40.587647" lon="-6.751319">
        <ele>734.740</ele>
        <time>2019-06-22T17:40:07Z</time>
      </trkpt>
      <trkpt lat="40.587651" lon="-6.750963">
        <ele>734.745</ele>
        <time>2019-06-22T17:40:08Z</time>
      </trkpt>
      <trkpt lat="40.587653" lon="-6.750600">
        <ele>734.188</ele>
        <time>2019-06-22T17:40:09Z</time>
      </trkpt>
      <trkpt lat="40.587662" lon="-6.750246">
        <ele>734.117</ele>
        <time>2019-06-22T17:40:10Z</time>
      </trkpt>
      <trkpt lat="40.587691" lon="-6.749941">
        <ele>734.187</ele>
        <time>2019-06-22T17:40:11Z</time>
      </trkpt>
      <trkpt lat="40.587701" lon="-6.749567">
        <ele>734.315</ele>
        <time>2019-06-22T17:40:12Z</time>
      </trkpt>
      <trkpt lat="40.587698" lon="-6.749206">
        <ele>734.408</ele>
        <time>2019-06-22T17:40:13Z</time>
      </trkpt>
      <trkpt lat="40.587705" lon="-6.748841">
        <ele>734.984</ele>
        <time>2019-06-22T17:40:14Z</time>
      </trkpt>
      <trkpt lat="40.587721" lon="-6.748492">
        <ele>734.938</ele>
        <time>2019-06-22T17:40:15Z</time>
      </trkpt>
      <trkpt lat="40.587727" lon="-6.748116">
        <ele>735.150</ele>
        <time>2019-06-22T17:40:16Z</time>
      </trkpt>
      <trkpt lat="40.587735" lon="-6.747752">
        <ele>735.132</ele>
        <time>2019-06-22T17:40:17Z</time>
      </trkpt>
      <trkpt lat="40.587755" lon="-6.747416">
        <ele>735.250</ele>
        <time>2019-06-22T17:40:18Z</time>
      </trkpt>
      <trkpt lat="40.587766" lon="-6.747053">
        <ele>735.299</ele>
        <time>2019-06-22T17:40:19Z</time>
      </trkpt>
      <trkpt lat="40.587780" lon="-6.746687">
        <ele>735.494</ele>
        <time>2019-06-22T17:40:20Z</time>
      </trkpt>
      <trkpt lat="40.587798" lon="-6.746319">
        <ele>735.887</ele>
        <time>2019-06-22T17:40:21Z</time>
      </trkpt>
      <trkpt lat="40.587814" lon="-6.745960">
        <ele>735.856</ele>
        <time>2019-06-22T17:40:22Z</time>
      </trkpt>
      <trkpt lat="40.587820" lon="-6.745592">
        <ele>735.859</ele>
        <time>2019-06-22T17:40:23Z</time>
      </trkpt>
      <trkpt lat="40.587837" lon="-6.745239">
        <ele>735.514</ele>
        <time>2019-06-22T17:40:24Z</time>
      </trkpt>
      <trkpt lat="40.587868" lon="-6.744891">
        <ele>735.508</ele>
        <time>2019-06-22T17:40:25Z</time>
      </trkpt>
      <trkpt lat="40.587894" lon="-6.744534">
        <ele>736.168</ele>
        <time>2019-06-22T17:40:26Z</time>
      </trkpt>
      <trkpt lat="40.587921" lon="-6.744172">
        <ele>736.182</ele>
        <time>2019-06-22T17:40:27Z</time>
      </trkpt>
      <trkpt lat="40.587946" lon="-6.743821">
        <ele>735.984</ele>
        <time>2019-06-22T17:40:28Z</time>
      </trkpt>
      <trkpt lat="40.587968" lon="-6.743457">
        <ele>735.936</ele>
        <time>2019-06-22T17:40:29Z</time>
      </trkpt>
      <trkpt lat="40.587997" lon="-6.743097">
        <ele>735.914</ele>
        <time>2019-06-22T17:40:30Z</time>
      </trkpt>
      <trkpt lat="40.588025" lon="-6.742739">
        <ele>735.963</ele>
        <time>2019-06-22T17:40:31Z</time>
      </trkpt>
      <trkpt lat="40.588058" lon="-6.742396">
        <ele>735.448</ele>
        <time>2019-06-22T17:40:32Z</time>
      </trkpt>
      <trkpt lat="40.588093" lon="-6.742031">
        <ele>735.231</ele>
        <time>2019-06-22T17:40:33Z</time>
      </trkpt>
      <trkpt lat="40.588131" lon="-6.741673">
        <ele>735.047</ele>
        <time>2019-06-22T17:40:34Z</time>
      </trkpt>
      <trkpt lat="40.588170" lon="-6.741312">
        <ele>733.329</ele>
        <time>2019-06-22T17:40:35Z</time>
      </trkpt>
      <trkpt lat="40.588208" lon="-6.740958">
        <ele>732.121</ele>
        <time>2019-06-22T17:40:36Z</time>
      </trkpt>
      <trkpt lat="40.588242" lon="-6.740582">
        <ele>731.408</ele>
        <time>2019-06-22T17:40:37Z</time>
      </trkpt>
      <trkpt lat="40.588273" lon="-6.740218">
        <ele>730.937</ele>
        <time>2019-06-22T17:40:38Z</time>
      </trkpt>
      <trkpt lat="40.588310" lon="-6.739861">
        <ele>730.131</ele>
        <time>2019-06-22T17:40:39Z</time>
      </trkpt>
      <trkpt lat="40.588349" lon="-6.739509">
        <ele>728.673</ele>
        <time>2019-06-22T17:40:40Z</time>
      </trkpt>
      <trkpt lat="40.588369" lon="-6.739158">
        <ele>727.925</ele>
        <time>2019-06-22T17:40:41Z</time>
      </trkpt>
      <trkpt lat="40.588398" lon="-6.738810">
        <ele>727.243</ele>
        <time>2019-06-22T17:40:42Z</time>
      </trkpt>
      <trkpt lat="40.588418" lon="-6.738481">
        <ele>726.682</ele>
        <time>2019-06-22T17:40:43Z</time>
      </trkpt>
      <trkpt lat="40.588451" lon="-6.738134">
        <ele>725.687</ele>
        <time>2019-06-22T17:40:44Z</time>
      </trkpt>
      <trkpt lat="40.588487" lon="-6.737770">
        <ele>724.740</ele>
        <time>2019-06-22T17:40:45Z</time>
      </trkpt>
      <trkpt lat="40.588510" lon="-6.737398">
        <ele>723.645</ele>
        <time>2019-06-22T17:40:46Z</time>
      </trkpt>
      <trkpt lat="40.588544" lon="-6.737034">
        <ele>722.447</ele>
        <time>2019-06-22T17:40:47Z</time>
      </trkpt>
      <trkpt lat="40.588594" lon="-6.736678">
        <ele>721.211</ele>
        <time>2019-06-22T17:40:48Z</time>
      </trkpt>
      <trkpt lat="40.588634" lon="-6.736326">
        <ele>720.208</ele>
        <time>2019-06-22T17:40:49Z</time>
      </trkpt>
      <trkpt lat="40.588673" lon="-6.735968">
        <ele>718.777</ele>
        <time>2019-06-22T17:40:50Z</time>
      </trkpt>
      <trkpt lat="40.588715" lon="-6.735632">
        <ele>717.771</ele>
        <time>2019-06-22T17:40:51Z</time>
      </trkpt>
      <trkpt lat="40.588748" lon="-6.735291">
        <ele>717.063</ele>
        <time>2019-06-22T17:40:52Z</time>
      </trkpt>
      <trkpt lat="40.588783" lon="-6.734934">
        <ele>716.435</ele>
        <time>2019-06-22T17:40:53Z</time>
      </trkpt>
      <trkpt lat="40.588820" lon="-6.734580">
        <ele>715.363</ele>
        <time>2019-06-22T17:40:54Z</time>
      </trkpt>
      <trkpt lat="40.588864" lon="-6.734222">
        <ele>714.862</ele>
        <time>2019-06-22T17:40:55Z</time>
      </trkpt>
      <trkpt lat="40.588919" lon="-6.733864">
        <ele>714.617</ele>
        <time>2019-06-22T17:40:56Z</time>
      </trkpt>
      <trkpt lat="40.588959" lon="-6.733505">
        <ele>713.610</ele>
        <time>2019-06-22T17:40:57Z</time>
      </trkpt>
      <trkpt lat="40.588976" lon="-6.733155">
        <ele>712.053</ele>
        <time>2019-06-22T17:40:58Z</time>
      </trkpt>
      <trkpt lat="40.589008" lon="-6.732808">
        <ele>711.004</ele>
        <time>2019-06-22T17:40:59Z</time>
      </trkpt>
      <trkpt lat="40.589049" lon="-6.732445">
        <ele>710.514</ele>
        <time>2019-06-22T17:41:00Z</time>
      </trkpt>
      <trkpt lat="40.589090" lon="-6.732089">
        <ele>709.908</ele>
        <time>2019-06-22T17:41:01Z</time>
      </trkpt>
      <trkpt lat="40.589128" lon="-6.731738">
        <ele>709.858</ele>
        <time>2019-06-22T17:41:02Z</time>
      </trkpt>
      <trkpt lat="40.589167" lon="-6.731347">
        <ele>709.882</ele>
        <time>2019-06-22T17:41:03Z</time>
      </trkpt>
      <trkpt lat="40.589209" lon="-6.730993">
        <ele>709.874</ele>
        <time>2019-06-22T17:41:04Z</time>
      </trkpt>
      <trkpt lat="40.589242" lon="-6.730710">
        <ele>709.876</ele>
        <time>2019-06-22T17:41:05Z</time>
      </trkpt>
      <trkpt lat="40.589276" lon="-6.730358">
        <ele>709.854</ele>
        <time>2019-06-22T17:41:06Z</time>
      </trkpt>
      <trkpt lat="40.589306" lon="-6.730009">
        <ele>709.583</ele>
        <time>2019-06-22T17:41:07Z</time>
      </trkpt>
      <trkpt lat="40.589346" lon="-6.729661">
        <ele>709.578</ele>
        <time>2019-06-22T17:41:08Z</time>
      </trkpt>
      <trkpt lat="40.589380" lon="-6.729300">
        <ele>709.331</ele>
        <time>2019-06-22T17:41:09Z</time>
      </trkpt>
      <trkpt lat="40.589419" lon="-6.728946">
        <ele>708.978</ele>
        <time>2019-06-22T17:41:10Z</time>
      </trkpt>
      <trkpt lat="40.589454" lon="-6.728590">
        <ele>708.133</ele>
        <time>2019-06-22T17:41:11Z</time>
      </trkpt>
      <trkpt lat="40.589484" lon="-6.728232">
        <ele>707.526</ele>
        <time>2019-06-22T17:41:12Z</time>
      </trkpt>
      <trkpt lat="40.589509" lon="-6.727872">
        <ele>707.008</ele>
        <time>2019-06-22T17:41:13Z</time>
      </trkpt>
      <trkpt lat="40.589543" lon="-6.727516">
        <ele>705.860</ele>
        <time>2019-06-22T17:41:14Z</time>
      </trkpt>
      <trkpt lat="40.589560" lon="-6.727149">
        <ele>705.024</ele>
        <time>2019-06-22T17:41:15Z</time>
      </trkpt>
      <trkpt lat="40.589592" lon="-6.726794">
        <ele>705.026</ele>
        <time>2019-06-22T17:41:16Z</time>
      </trkpt>
      <trkpt lat="40.589615" lon="-6.726444">
        <ele>704.848</ele>
        <time>2019-06-22T17:41:17Z</time>
      </trkpt>
      <trkpt lat="40.589634" lon="-6.726079">
        <ele>704.116</ele>
        <time>2019-06-22T17:41:18Z</time>
      </trkpt>
      <trkpt lat="40.589653" lon="-6.725689">
        <ele>703.715</ele>
        <time>2019-06-22T17:41:19Z</time>
      </trkpt>
      <trkpt lat="40.589673" lon="-6.725321">
        <ele>703.450</ele>
        <time>2019-06-22T17:41:20Z</time>
      </trkpt>
      <trkpt lat="40.589690" lon="-6.724983">
        <ele>702.523</ele>
        <time>2019-06-22T17:41:21Z</time>
      </trkpt>
      <trkpt lat="40.589705" lon="-6.724625">
        <ele>701.556</ele>
        <time>2019-06-22T17:41:22Z</time>
      </trkpt>
      <trkpt lat="40.589730" lon="-6.724278">
        <ele>700.759</ele>
        <time>2019-06-22T17:41:23Z</time>
      </trkpt>
      <trkpt lat="40.589747" lon="-6.723924">
        <ele>700.314</ele>
        <time>2019-06-22T17:41:24Z</time>
      </trkpt>
      <trkpt lat="40.589764" lon="-6.723568">
        <ele>699.508</ele>
        <time>2019-06-22T17:41:25Z</time>
      </trkpt>
      <trkpt lat="40.589782" lon="-6.723220">
        <ele>699.248</ele>
        <time>2019-06-22T17:41:26Z</time>
      </trkpt>
      <trkpt lat="40.589807" lon="-6.722870">
        <ele>699.292</ele>
        <time>2019-06-22T17:41:27Z</time>
      </trkpt>
      <trkpt lat="40.589817" lon="-6.722524">
        <ele>699.274</ele>
        <time>2019-06-22T17:41:28Z</time>
      </trkpt>
      <trkpt lat="40.589838" lon="-6.722171">
        <ele>699.076</ele>
        <time>2019-06-22T17:41:29Z</time>
      </trkpt>
      <trkpt lat="40.589856" lon="-6.721829">
        <ele>698.414</ele>
        <time>2019-06-22T17:41:30Z</time>
      </trkpt>
      <trkpt lat="40.589877" lon="-6.721470">
        <ele>697.473</ele>
        <time>2019-06-22T17:41:31Z</time>
      </trkpt>
      <trkpt lat="40.589908" lon="-6.721115">
        <ele>696.518</ele>
        <time>2019-06-22T17:41:32Z</time>
      </trkpt>
      <trkpt lat="40.589930" lon="-6.720763">
        <ele>695.281</ele>
        <time>2019-06-22T17:41:33Z</time>
      </trkpt>
      <trkpt lat="40.589958" lon="-6.720427">
        <ele>694.466</ele>
        <time>2019-06-22T17:41:34Z</time>
      </trkpt>
      <trkpt lat="40.589980" lon="-6.720081">
        <ele>693.529</ele>
        <time>2019-06-22T17:41:35Z</time>
      </trkpt>
      <trkpt lat="40.589995" lon="-6.719722">
        <ele>692.921</ele>
        <time>2019-06-22T17:41:36Z</time>
      </trkpt>
      <trkpt lat="40.590010" lon="-6.719376">
        <ele>692.308</ele>
        <time>2019-06-22T17:41:37Z</time>
      </trkpt>
      <trkpt lat="40.590028" lon="-6.719036">
        <ele>692.059</ele>
        <time>2019-06-22T17:41:38Z</time>
      </trkpt>
      <trkpt lat="40.590045" lon="-6.718698">
        <ele>691.543</ele>
        <time>2019-06-22T17:41:39Z</time>
      </trkpt>
      <trkpt lat="40.590071" lon="-6.718341">
        <ele>691.315</ele>
        <time>2019-06-22T17:41:40Z</time>
      </trkpt>
      <trkpt lat="40.590094" lon="-6.717982">
        <ele>690.637</ele>
        <time>2019-06-22T17:41:41Z</time>
      </trkpt>
      <trkpt lat="40.590112" lon="-6.717631">
        <ele>690.235</ele>
        <time>2019-06-22T17:41:42Z</time>
      </trkpt>
      <trkpt lat="40.590122" lon="-6.717285">
        <ele>690.024</ele>
        <time>2019-06-22T17:41:43Z</time>
      </trkpt>
      <trkpt lat="40.590144" lon="-6.716947">
        <ele>689.699</ele>
        <time>2019-06-22T17:41:44Z</time>
      </trkpt>
      <trkpt lat="40.590159" lon="-6.716607">
        <ele>689.462</ele>
        <time>2019-06-22T17:41:45Z</time>
      </trkpt>
      <trkpt lat="40.590196" lon="-6.716270">
        <ele>689.217</ele>
        <time>2019-06-22T17:41:46Z</time>
      </trkpt>
      <trkpt lat="40.590216" lon="-6.715937">
        <ele>689.187</ele>
        <time>2019-06-22T17:41:47Z</time>
      </trkpt>
      <trkpt lat="40.590241" lon="-6.715618">
        <ele>688.815</ele>
        <time>2019-06-22T17:41:48Z</time>
      </trkpt>
      <trkpt lat="40.590261" lon="-6.715277">
        <ele>688.708</ele>
        <time>2019-06-22T17:41:49Z</time>
      </trkpt>
      <trkpt lat="40.590278" lon="-6.714926">
        <ele>688.274</ele>
        <time>2019-06-22T17:41:50Z</time>
      </trkpt>
      <trkpt lat="40.590287" lon="-6.714571">
        <ele>687.638</ele>
        <time>2019-06-22T17:41:51Z</time>
      </trkpt>
      <trkpt lat="40.590305" lon="-6.714234">
        <ele>687.320</ele>
        <time>2019-06-22T17:41:52Z</time>
      </trkpt>
      <trkpt lat="40.590307" lon="-6.713863">
        <ele>686.492</ele>
        <time>2019-06-22T17:41:53Z</time>
      </trkpt>
      <trkpt lat="40.590311" lon="-6.713529">
        <ele>685.620</ele>
        <time>2019-06-22T17:41:54Z</time>
      </trkpt>
      <trkpt lat="40.590310" lon="-6.713188">
        <ele>684.519</ele>
        <time>2019-06-22T17:41:55Z</time>
      </trkpt>
      <trkpt lat="40.590306" lon="-6.712840">
        <ele>684.284</ele>
        <time>2019-06-22T17:41:56Z</time>
      </trkpt>
      <trkpt lat="40.590300" lon="-6.712488">
        <ele>683.797</ele>
        <time>2019-06-22T17:41:57Z</time>
      </trkpt>
      <trkpt lat="40.590303" lon="-6.712166">
        <ele>683.721</ele>
        <time>2019-06-22T17:41:58Z</time>
      </trkpt>
      <trkpt lat="40.590283" lon="-6.711836">
        <ele>683.441</ele>
        <time>2019-06-22T17:41:59Z</time>
      </trkpt>
      <trkpt lat="40.590259" lon="-6.711513">
        <ele>683.105</ele>
        <time>2019-06-22T17:42:00Z</time>
      </trkpt>
      <trkpt lat="40.590242" lon="-6.711212">
        <ele>682.608</ele>
        <time>2019-06-22T17:42:01Z</time>
      </trkpt>
      <trkpt lat="40.590226" lon="-6.710919">
        <ele>682.045</ele>
        <time>2019-06-22T17:42:02Z</time>
      </trkpt>
      <trkpt lat="40.590207" lon="-6.710633">
        <ele>681.629</ele>
        <time>2019-06-22T17:42:03Z</time>
      </trkpt>
      <trkpt lat="40.590188" lon="-6.710359">
        <ele>681.551</ele>
        <time>2019-06-22T17:42:04Z</time>
      </trkpt>
      <trkpt lat="40.590175" lon="-6.710087">
        <ele>681.593</ele>
        <time>2019-06-22T17:42:05Z</time>
      </trkpt>
      <trkpt lat="40.590158" lon="-6.709814">
        <ele>681.521</ele>
        <time>2019-06-22T17:42:06Z</time>
      </trkpt>
      <trkpt lat="40.590151" lon="-6.709540">
        <ele>681.880</ele>
        <time>2019-06-22T17:42:07Z</time>
      </trkpt>
      <trkpt lat="40.590127" lon="-6.709260">
        <ele>681.855</ele>
        <time>2019-06-22T17:42:08Z</time>
      </trkpt>
      <trkpt lat="40.590104" lon="-6.709004">
        <ele>681.688</ele>
        <time>2019-06-22T17:42:09Z</time>
      </trkpt>
      <trkpt lat="40.590078" lon="-6.708759">
        <ele>681.663</ele>
        <time>2019-06-22T17:42:10Z</time>
      </trkpt>
      <trkpt lat="40.590047" lon="-6.708526">
        <ele>681.644</ele>
        <time>2019-06-22T17:42:11Z</time>
      </trkpt>
      <trkpt lat="40.590024" lon="-6.708303">
        <ele>681.618</ele>
        <time>2019-06-22T17:42:12Z</time>
      </trkpt>
      <trkpt lat="40.589989" lon="-6.708080">
        <ele>681.808</ele>
        <time>2019-06-22T17:42:13Z</time>
      </trkpt>
      <trkpt lat="40.589953" lon="-6.707852">
        <ele>681.829</ele>
        <time>2019-06-22T17:42:14Z</time>
      </trkpt>
      <trkpt lat="40.589937" lon="-6.707620">
        <ele>682.323</ele>
        <time>2019-06-22T17:42:15Z</time>
      </trkpt>
      <trkpt lat="40.589901" lon="-6.707411">
        <ele>682.365</ele>
        <time>2019-06-22T17:42:16Z</time>
      </trkpt>
      <trkpt lat="40.589854" lon="-6.707208">
        <ele>681.847</ele>
        <time>2019-06-22T17:42:17Z</time>
      </trkpt>
      <trkpt lat="40.589810" lon="-6.707005">
        <ele>681.815</ele>
        <time>2019-06-22T17:42:18Z</time>
      </trkpt>
      <trkpt lat="40.589775" lon="-6.706796">
        <ele>681.354</ele>
        <time>2019-06-22T17:42:19Z</time>
      </trkpt>
      <trkpt lat="40.589743" lon="-6.706599">
        <ele>680.629</ele>
        <time>2019-06-22T17:42:20Z</time>
      </trkpt>
      <trkpt lat="40.589716" lon="-6.706403">
        <ele>679.922</ele>
        <time>2019-06-22T17:42:21Z</time>
      </trkpt>
      <trkpt lat="40.589684" lon="-6.706201">
        <ele>679.465</ele>
        <time>2019-06-22T17:42:22Z</time>
      </trkpt>
      <trkpt lat="40.589659" lon="-6.706016">
        <ele>678.168</ele>
        <time>2019-06-22T17:42:23Z</time>
      </trkpt>
      <trkpt lat="40.589623" lon="-6.705828">
        <ele>677.014</ele>
        <time>2019-06-22T17:42:24Z</time>
      </trkpt>
      <trkpt lat="40.589590" lon="-6.705646">
        <ele>676.208</ele>
        <time>2019-06-22T17:42:25Z</time>
      </trkpt>
      <trkpt lat="40.589559" lon="-6.705483">
        <ele>675.839</ele>
        <time>2019-06-22T17:42:26Z</time>
      </trkpt>
      <trkpt lat="40.589520" lon="-6.705333">
        <ele>675.363</ele>
        <time>2019-06-22T17:42:27Z</time>
      </trkpt>
      <trkpt lat="40.589467" lon="-6.705195">
        <ele>674.885</ele>
        <time>2019-06-22T17:42:28Z</time>
      </trkpt>
      <trkpt lat="40.589421" lon="-6.705074">
        <ele>674.717</ele>
        <time>2019-06-22T17:42:29Z</time>
      </trkpt>
      <trkpt lat="40.589361" lon="-6.704984">
        <ele>674.615</ele>
        <time>2019-06-22T17:42:30Z</time>
      </trkpt>
      <trkpt lat="40.589306" lon="-6.704891">
        <ele>674.324</ele>
        <time>2019-06-22T17:42:31Z</time>
      </trkpt>
      <trkpt lat="40.589257" lon="-6.704800">
        <ele>674.379</ele>
        <time>2019-06-22T17:42:32Z</time>
      </trkpt>
      <trkpt lat="40.589247" lon="-6.704704">
        <ele>674.782</ele>
        <time>2019-06-22T17:42:33Z</time>
      </trkpt>
      <trkpt lat="40.589253" lon="-6.704605">
        <ele>675.349</ele>
        <time>2019-06-22T17:42:34Z</time>
      </trkpt>
      <trkpt lat="40.589287" lon="-6.704530">
        <ele>675.902</ele>
        <time>2019-06-22T17:42:35Z</time>
      </trkpt>
      <trkpt lat="40.589339" lon="-6.704462">
        <ele>676.622</ele>
        <time>2019-06-22T17:42:36Z</time>
      </trkpt>
      <trkpt lat="40.589400" lon="-6.704427">
        <ele>677.008</ele>
        <time>2019-06-22T17:42:37Z</time>
      </trkpt>
      <trkpt lat="40.589464" lon="-6.704422">
        <ele>677.417</ele>
        <time>2019-06-22T17:42:38Z</time>
      </trkpt>
      <trkpt lat="40.589533" lon="-6.704456">
        <ele>677.681</ele>
        <time>2019-06-22T17:42:39Z</time>
      </trkpt>
      <trkpt lat="40.589583" lon="-6.704530">
        <ele>677.713</ele>
        <time>2019-06-22T17:42:40Z</time>
      </trkpt>
      <trkpt lat="40.589636" lon="-6.704607">
        <ele>677.775</ele>
        <time>2019-06-22T17:42:41Z</time>
      </trkpt>
      <trkpt lat="40.589693" lon="-6.704683">
        <ele>677.853</ele>
        <time>2019-06-22T17:42:42Z</time>
      </trkpt>
      <trkpt lat="40.589771" lon="-6.704745">
        <ele>677.882</ele>
        <time>2019-06-22T17:42:43Z</time>
      </trkpt>
      <trkpt lat="40.589848" lon="-6.704782">
        <ele>677.897</ele>
        <time>2019-06-22T17:42:44Z</time>
      </trkpt>
      <trkpt lat="40.589948" lon="-6.704808">
        <ele>677.830</ele>
        <time>2019-06-22T17:42:45Z</time>
      </trkpt>
      <trkpt lat="40.590052" lon="-6.704836">
        <ele>677.879</ele>
        <time>2019-06-22T17:42:46Z</time>
      </trkpt>
      <trkpt lat="40.590158" lon="-6.704864">
        <ele>677.805</ele>
        <time>2019-06-22T17:42:47Z</time>
      </trkpt>
      <trkpt lat="40.590272" lon="-6.704883">
        <ele>677.725</ele>
        <time>2019-06-22T17:42:48Z</time>
      </trkpt>
      <trkpt lat="40.590381" lon="-6.704919">
        <ele>677.708</ele>
        <time>2019-06-22T17:42:49Z</time>
      </trkpt>
      <trkpt lat="40.590482" lon="-6.704960">
        <ele>677.850</ele>
        <time>2019-06-22T17:42:50Z</time>
      </trkpt>
      <trkpt lat="40.590600" lon="-6.704980">
        <ele>678.034</ele>
        <time>2019-06-22T17:42:51Z</time>
      </trkpt>
      <trkpt lat="40.590708" lon="-6.705002">
        <ele>678.286</ele>
        <time>2019-06-22T17:42:52Z</time>
      </trkpt>
      <trkpt lat="40.590802" lon="-6.705018">
        <ele>678.598</ele>
        <time>2019-06-22T17:42:53Z</time>
      </trkpt>
      <trkpt lat="40.590902" lon="-6.705020">
        <ele>678.716</ele>
        <time>2019-06-22T17:42:54Z</time>
      </trkpt>
      <trkpt lat="40.590994" lon="-6.704994">
        <ele>678.785</ele>
        <time>2019-06-22T17:42:55Z</time>
      </trkpt>
      <trkpt lat="40.591094" lon="-6.704959">
        <ele>678.640</ele>
        <time>2019-06-22T17:42:56Z</time>
      </trkpt>
      <trkpt lat="40.591187" lon="-6.704901">
        <ele>678.563</ele>
        <time>2019-06-22T17:42:57Z</time>
      </trkpt>
      <trkpt lat="40.591274" lon="-6.704832">
        <ele>678.219</ele>
        <time>2019-06-22T17:42:58Z</time>
      </trkpt>
      <trkpt lat="40.591343" lon="-6.704740">
        <ele>677.609</ele>
        <time>2019-06-22T17:42:59Z</time>
      </trkpt>
      <trkpt lat="40.591397" lon="-6.704615">
        <ele>677.119</ele>
        <time>2019-06-22T17:43:00Z</time>
      </trkpt>
      <trkpt lat="40.591461" lon="-6.704489">
        <ele>676.508</ele>
        <time>2019-06-22T17:43:01Z</time>
      </trkpt>
      <trkpt lat="40.591505" lon="-6.704311">
        <ele>675.714</ele>
        <time>2019-06-22T17:43:02Z</time>
      </trkpt>
      <trkpt lat="40.591551" lon="-6.704121">
        <ele>675.498</ele>
        <time>2019-06-22T17:43:03Z</time>
      </trkpt>
      <trkpt lat="40.591602" lon="-6.703912">
        <ele>675.330</ele>
        <time>2019-06-22T17:43:04Z</time>
      </trkpt>
      <trkpt lat="40.591652" lon="-6.703691">
        <ele>674.972</ele>
        <time>2019-06-22T17:43:05Z</time>
      </trkpt>
      <trkpt lat="40.591709" lon="-6.703461">
        <ele>674.370</ele>
        <time>2019-06-22T17:43:06Z</time>
      </trkpt>
      <trkpt lat="40.591771" lon="-6.703225">
        <ele>674.299</ele>
        <time>2019-06-22T17:43:07Z</time>
      </trkpt>
      <trkpt lat="40.591839" lon="-6.702978">
        <ele>673.274</ele>
        <time>2019-06-22T17:43:08Z</time>
      </trkpt>
      <trkpt lat="40.591915" lon="-6.702717">
        <ele>672.037</ele>
        <time>2019-06-22T17:43:09Z</time>
      </trkpt>
      <trkpt lat="40.592005" lon="-6.702450">
        <ele>670.743</ele>
        <time>2019-06-22T17:43:10Z</time>
      </trkpt>
      <trkpt lat="40.592091" lon="-6.702177">
        <ele>670.164</ele>
        <time>2019-06-22T17:43:11Z</time>
      </trkpt>
      <trkpt lat="40.592180" lon="-6.701906">
        <ele>670.010</ele>
        <time>2019-06-22T17:43:12Z</time>
      </trkpt>
      <trkpt lat="40.592260" lon="-6.701629">
        <ele>670.008</ele>
        <time>2019-06-22T17:43:13Z</time>
      </trkpt>
      <trkpt lat="40.592367" lon="-6.701332">
        <ele>670.257</ele>
        <time>2019-06-22T17:43:14Z</time>
      </trkpt>
      <trkpt lat="40.592455" lon="-6.701050">
        <ele>671.371</ele>
        <time>2019-06-22T17:43:15Z</time>
      </trkpt>
      <trkpt lat="40.592540" lon="-6.700768">
        <ele>671.383</ele>
        <time>2019-06-22T17:43:16Z</time>
      </trkpt>
      <trkpt lat="40.592629" lon="-6.700478">
        <ele>671.475</ele>
        <time>2019-06-22T17:43:17Z</time>
      </trkpt>
      <trkpt lat="40.592714" lon="-6.700189">
        <ele>671.913</ele>
        <time>2019-06-22T17:43:18Z</time>
      </trkpt>
      <trkpt lat="40.592798" lon="-6.699900">
        <ele>672.612</ele>
        <time>2019-06-22T17:43:19Z</time>
      </trkpt>
      <trkpt lat="40.592871" lon="-6.699600">
        <ele>673.577</ele>
        <time>2019-06-22T17:43:20Z</time>
      </trkpt>
      <trkpt lat="40.592961" lon="-6.699295">
        <ele>674.980</ele>
        <time>2019-06-22T17:43:21Z</time>
      </trkpt>
      <trkpt lat="40.593052" lon="-6.698993">
        <ele>676.712</ele>
        <time>2019-06-22T17:43:22Z</time>
      </trkpt>
      <trkpt lat="40.593142" lon="-6.698691">
        <ele>677.632</ele>
        <time>2019-06-22T17:43:23Z</time>
      </trkpt>
      <trkpt lat="40.593218" lon="-6.698407">
        <ele>678.505</ele>
        <time>2019-06-22T17:43:24Z</time>
      </trkpt>
      <trkpt lat="40.593305" lon="-6.698097">
        <ele>678.808</ele>
        <time>2019-06-22T17:43:25Z</time>
      </trkpt>
      <trkpt lat="40.593386" lon="-6.697779">
        <ele>678.894</ele>
        <time>2019-06-22T17:43:26Z</time>
      </trkpt>
      <trkpt lat="40.593457" lon="-6.697466">
        <ele>678.548</ele>
        <time>2019-06-22T17:43:27Z</time>
      </trkpt>
      <trkpt lat="40.593528" lon="-6.697143">
        <ele>678.260</ele>
        <time>2019-06-22T17:43:28Z</time>
      </trkpt>
      <trkpt lat="40.593599" lon="-6.696815">
        <ele>678.132</ele>
        <time>2019-06-22T17:43:29Z</time>
      </trkpt>
      <trkpt lat="40.593641" lon="-6.696464">
        <ele>678.190</ele>
        <time>2019-06-22T17:43:30Z</time>
      </trkpt>
      <trkpt lat="40.593685" lon="-6.696126">
        <ele>678.399</ele>
        <time>2019-06-22T17:43:31Z</time>
      </trkpt>
      <trkpt lat="40.593714" lon="-6.695775">
        <ele>678.654</ele>
        <time>2019-06-22T17:43:32Z</time>
      </trkpt>
      <trkpt lat="40.593743" lon="-6.695431">
        <ele>679.057</ele>
        <time>2019-06-22T17:43:33Z</time>
      </trkpt>
      <trkpt lat="40.593778" lon="-6.695108">
        <ele>679.352</ele>
        <time>2019-06-22T17:43:34Z</time>
      </trkpt>
      <trkpt lat="40.593794" lon="-6.694760">
        <ele>679.653</ele>
        <time>2019-06-22T17:43:35Z</time>
      </trkpt>
      <trkpt lat="40.593804" lon="-6.694405">
        <ele>679.908</ele>
        <time>2019-06-22T17:43:36Z</time>
      </trkpt>
      <trkpt lat="40.593805" lon="-6.694055">
        <ele>679.908</ele>
        <time>2019-06-22T17:43:37Z</time>
      </trkpt>
      <trkpt lat="40.593813" lon="-6.693721">
        <ele>679.558</ele>
        <time>2019-06-22T17:43:38Z</time>
      </trkpt>
      <trkpt lat="40.593797" lon="-6.693376">
        <ele>678.412</ele>
        <time>2019-06-22T17:43:39Z</time>
      </trkpt>
      <trkpt lat="40.593770" lon="-6.693034">
        <ele>677.824</ele>
        <time>2019-06-22T17:43:40Z</time>
      </trkpt>
      <trkpt lat="40.593738" lon="-6.692699">
        <ele>676.486</ele>
        <time>2019-06-22T17:43:41Z</time>
      </trkpt>
      <trkpt lat="40.593700" lon="-6.692376">
        <ele>674.644</ele>
        <time>2019-06-22T17:43:42Z</time>
      </trkpt>
      <trkpt lat="40.593653" lon="-6.692036">
        <ele>673.063</ele>
        <time>2019-06-22T17:43:43Z</time>
      </trkpt>
      <trkpt lat="40.593604" lon="-6.691688">
        <ele>671.978</ele>
        <time>2019-06-22T17:43:44Z</time>
      </trkpt>
      <trkpt lat="40.593545" lon="-6.691352">
        <ele>670.671</ele>
        <time>2019-06-22T17:43:45Z</time>
      </trkpt>
      <trkpt lat="40.593488" lon="-6.691016">
        <ele>668.977</ele>
        <time>2019-06-22T17:43:46Z</time>
      </trkpt>
      <trkpt lat="40.593414" lon="-6.690680">
        <ele>668.161</ele>
        <time>2019-06-22T17:43:47Z</time>
      </trkpt>
      <trkpt lat="40.593335" lon="-6.690360">
        <ele>667.327</ele>
        <time>2019-06-22T17:43:48Z</time>
      </trkpt>
      <trkpt lat="40.593251" lon="-6.690028">
        <ele>665.808</ele>
        <time>2019-06-22T17:43:49Z</time>
      </trkpt>
      <trkpt lat="40.593178" lon="-6.689701">
        <ele>664.950</ele>
        <time>2019-06-22T17:43:50Z</time>
      </trkpt>
      <trkpt lat="40.593115" lon="-6.689377">
        <ele>664.874</ele>
        <time>2019-06-22T17:43:51Z</time>
      </trkpt>
      <trkpt lat="40.593033" lon="-6.689055">
        <ele>663.916</ele>
        <time>2019-06-22T17:43:52Z</time>
      </trkpt>
      <trkpt lat="40.592945" lon="-6.688736">
        <ele>663.218</ele>
        <time>2019-06-22T17:43:53Z</time>
      </trkpt>
      <trkpt lat="40.592869" lon="-6.688407">
        <ele>662.916</ele>
        <time>2019-06-22T17:43:54Z</time>
      </trkpt>
      <trkpt lat="40.592785" lon="-6.688085">
        <ele>662.135</ele>
        <time>2019-06-22T17:43:55Z</time>
      </trkpt>
      <trkpt lat="40.592709" lon="-6.687754">
        <ele>661.410</ele>
        <time>2019-06-22T17:43:56Z</time>
      </trkpt>
      <trkpt lat="40.592630" lon="-6.687421">
        <ele>661.393</ele>
        <time>2019-06-22T17:43:57Z</time>
      </trkpt>
      <trkpt lat="40.592554" lon="-6.687086">
        <ele>661.197</ele>
        <time>2019-06-22T17:43:58Z</time>
      </trkpt>
      <trkpt lat="40.592481" lon="-6.686761">
        <ele>660.323</ele>
        <time>2019-06-22T17:43:59Z</time>
      </trkpt>
      <trkpt lat="40.592406" lon="-6.686433">
        <ele>659.225</ele>
        <time>2019-06-22T17:44:00Z</time>
      </trkpt>
      <trkpt lat="40.592321" lon="-6.686110">
        <ele>658.708</ele>
        <time>2019-06-22T17:44:01Z</time>
      </trkpt>
      <trkpt lat="40.592243" lon="-6.685787">
        <ele>657.672</ele>
        <time>2019-06-22T17:44:02Z</time>
      </trkpt>
      <trkpt lat="40.592165" lon="-6.685466">
        <ele>657.066</ele>
        <time>2019-06-22T17:44:03Z</time>
      </trkpt>
      <trkpt lat="40.592092" lon="-6.685146">
        <ele>656.378</ele>
        <time>2019-06-22T17:44:04Z</time>
      </trkpt>
      <trkpt lat="40.592016" lon="-6.684826">
        <ele>656.290</ele>
        <time>2019-06-22T17:44:05Z</time>
      </trkpt>
      <trkpt lat="40.591939" lon="-6.684515">
        <ele>655.188</ele>
        <time>2019-06-22T17:44:06Z</time>
      </trkpt>
      <trkpt lat="40.591866" lon="-6.684196">
        <ele>654.587</ele>
        <time>2019-06-22T17:44:07Z</time>
      </trkpt>
      <trkpt lat="40.591802" lon="-6.683883">
        <ele>653.532</ele>
        <time>2019-06-22T17:44:08Z</time>
      </trkpt>
      <trkpt lat="40.591734" lon="-6.683563">
        <ele>652.655</ele>
        <time>2019-06-22T17:44:09Z</time>
      </trkpt>
      <trkpt lat="40.591672" lon="-6.683250">
        <ele>652.017</ele>
        <time>2019-06-22T17:44:10Z</time>
      </trkpt>
      <trkpt lat="40.591607" lon="-6.682939">
        <ele>651.887</ele>
        <time>2019-06-22T17:44:11Z</time>
      </trkpt>
      <trkpt lat="40.591546" lon="-6.682617">
        <ele>651.215</ele>
        <time>2019-06-22T17:44:12Z</time>
      </trkpt>
      <trkpt lat="40.591474" lon="-6.682298">
        <ele>651.008</ele>
        <time>2019-06-22T17:44:13Z</time>
      </trkpt>
      <trkpt lat="40.591419" lon="-6.681967">
        <ele>651.034</ele>
        <time>2019-06-22T17:44:14Z</time>
      </trkpt>
      <trkpt lat="40.591368" lon="-6.681636">
        <ele>650.638</ele>
        <time>2019-06-22T17:44:15Z</time>
      </trkpt>
      <trkpt lat="40.591317" lon="-6.681299">
        <ele>649.380</ele>
        <time>2019-06-22T17:44:16Z</time>
      </trkpt>
      <trkpt lat="40.591270" lon="-6.680949">
        <ele>648.952</ele>
        <time>2019-06-22T17:44:17Z</time>
      </trkpt>
      <trkpt lat="40.591228" lon="-6.680614">
        <ele>647.490</ele>
        <time>2019-06-22T17:44:18Z</time>
      </trkpt>
      <trkpt lat="40.591182" lon="-6.680287">
        <ele>647.419</ele>
        <time>2019-06-22T17:44:19Z</time>
      </trkpt>
      <trkpt lat="40.591139" lon="-6.679979">
        <ele>646.484</ele>
        <time>2019-06-22T17:44:20Z</time>
      </trkpt>
      <trkpt lat="40.591098" lon="-6.679635">
        <ele>644.877</ele>
        <time>2019-06-22T17:44:21Z</time>
      </trkpt>
      <trkpt lat="40.591060" lon="-6.679287">
        <ele>644.111</ele>
        <time>2019-06-22T17:44:22Z</time>
      </trkpt>
      <trkpt lat="40.591026" lon="-6.678949">
        <ele>642.621</ele>
        <time>2019-06-22T17:44:23Z</time>
      </trkpt>
      <trkpt lat="40.590999" lon="-6.678627">
        <ele>641.903</ele>
        <time>2019-06-22T17:44:24Z</time>
      </trkpt>
      <trkpt lat="40.590979" lon="-6.678307">
        <ele>641.408</ele>
        <time>2019-06-22T17:44:25Z</time>
      </trkpt>
      <trkpt lat="40.590946" lon="-6.677966">
        <ele>640.534</ele>
        <time>2019-06-22T17:44:26Z</time>
      </trkpt>
      <trkpt lat="40.590912" lon="-6.677632">
        <ele>639.748</ele>
        <time>2019-06-22T17:44:27Z</time>
      </trkpt>
      <trkpt lat="40.590883" lon="-6.677308">
        <ele>638.910</ele>
        <time>2019-06-22T17:44:28Z</time>
      </trkpt>
      <trkpt lat="40.590852" lon="-6.676969">
        <ele>637.792</ele>
        <time>2019-06-22T17:44:29Z</time>
      </trkpt>
      <trkpt lat="40.590823" lon="-6.676628">
        <ele>636.650</ele>
        <time>2019-06-22T17:44:30Z</time>
      </trkpt>
      <trkpt lat="40.590793" lon="-6.676277">
        <ele>635.599</ele>
        <time>2019-06-22T17:44:31Z</time>
      </trkpt>
      <trkpt lat="40.590762" lon="-6.675937">
        <ele>634.554</ele>
        <time>2019-06-22T17:44:32Z</time>
      </trkpt>
      <trkpt lat="40.590726" lon="-6.675597">
        <ele>633.967</ele>
        <time>2019-06-22T17:44:33Z</time>
      </trkpt>
      <trkpt lat="40.590692" lon="-6.675280">
        <ele>633.565</ele>
        <time>2019-06-22T17:44:34Z</time>
      </trkpt>
      <trkpt lat="40.590668" lon="-6.674967">
        <ele>632.568</ele>
        <time>2019-06-22T17:44:35Z</time>
      </trkpt>
      <trkpt lat="40.590643" lon="-6.674658">
        <ele>631.714</ele>
        <time>2019-06-22T17:44:36Z</time>
      </trkpt>
      <trkpt lat="40.590616" lon="-6.674347">
        <ele>630.608</ele>
        <time>2019-06-22T17:44:37Z</time>
      </trkpt>
      <trkpt lat="40.590591" lon="-6.674028">
        <ele>629.149</ele>
        <time>2019-06-22T17:44:38Z</time>
      </trkpt>
      <trkpt lat="40.590570" lon="-6.673699">
        <ele>627.833</ele>
        <time>2019-06-22T17:44:39Z</time>
      </trkpt>
      <trkpt lat="40.590560" lon="-6.673377">
        <ele>626.375</ele>
        <time>2019-06-22T17:44:40Z</time>
      </trkpt>
      <trkpt lat="40.590550" lon="-6.673073">
        <ele>625.517</ele>
        <time>2019-06-22T17:44:41Z</time>
      </trkpt>
      <trkpt lat="40.590547" lon="-6.672747">
        <ele>624.475</ele>
        <time>2019-06-22T17:44:42Z</time>
      </trkpt>
      <trkpt lat="40.590551" lon="-6.672417">
        <ele>624.074</ele>
        <time>2019-06-22T17:44:43Z</time>
      </trkpt>
      <trkpt lat="40.590568" lon="-6.672076">
        <ele>623.729</ele>
        <time>2019-06-22T17:44:44Z</time>
      </trkpt>
      <trkpt lat="40.590589" lon="-6.671736">
        <ele>622.562</ele>
        <time>2019-06-22T17:44:45Z</time>
      </trkpt>
      <trkpt lat="40.590614" lon="-6.671394">
        <ele>621.399</ele>
        <time>2019-06-22T17:44:46Z</time>
      </trkpt>
      <trkpt lat="40.590649" lon="-6.671050">
        <ele>620.507</ele>
        <time>2019-06-22T17:44:47Z</time>
      </trkpt>
      <trkpt lat="40.590696" lon="-6.670705">
        <ele>618.727</ele>
        <time>2019-06-22T17:44:48Z</time>
      </trkpt>
      <trkpt lat="40.590747" lon="-6.670358">
        <ele>617.008</ele>
        <time>2019-06-22T17:44:49Z</time>
      </trkpt>
      <trkpt lat="40.590800" lon="-6.670003">
        <ele>615.482</ele>
        <time>2019-06-22T17:44:50Z</time>
      </trkpt>
      <trkpt lat="40.590862" lon="-6.669654">
        <ele>614.346</ele>
        <time>2019-06-22T17:44:51Z</time>
      </trkpt>
      <trkpt lat="40.590924" lon="-6.669309">
        <ele>612.748</ele>
        <time>2019-06-22T17:44:52Z</time>
      </trkpt>
      <trkpt lat="40.590988" lon="-6.668971">
        <ele>611.860</ele>
        <time>2019-06-22T17:44:53Z</time>
      </trkpt>
      <trkpt lat="40.591060" lon="-6.668623">
        <ele>611.438</ele>
        <time>2019-06-22T17:44:54Z</time>
      </trkpt>
      <trkpt lat="40.591128" lon="-6.668283">
        <ele>611.477</ele>
        <time>2019-06-22T17:44:55Z</time>
      </trkpt>
      <trkpt lat="40.591179" lon="-6.667952">
        <ele>611.062</ele>
        <time>2019-06-22T17:44:56Z</time>
      </trkpt>
      <trkpt lat="40.591232" lon="-6.667621">
        <ele>611.025</ele>
        <time>2019-06-22T17:44:57Z</time>
      </trkpt>
      <trkpt lat="40.591272" lon="-6.667288">
        <ele>611.251</ele>
        <time>2019-06-22T17:44:58Z</time>
      </trkpt>
      <trkpt lat="40.591301" lon="-6.666975">
        <ele>611.801</ele>
        <time>2019-06-22T17:44:59Z</time>
      </trkpt>
      <trkpt lat="40.591335" lon="-6.666655">
        <ele>612.411</ele>
        <time>2019-06-22T17:45:00Z</time>
      </trkpt>
      <trkpt lat="40.591349" lon="-6.666335">
        <ele>613.408</ele>
        <time>2019-06-22T17:45:01Z</time>
      </trkpt>
      <trkpt lat="40.591367" lon="-6.666019">
        <ele>615.258</ele>
        <time>2019-06-22T17:45:02Z</time>
      </trkpt>
      <trkpt lat="40.591393" lon="-6.665710">
        <ele>616.812</ele>
        <time>2019-06-22T17:45:03Z</time>
      </trkpt>
      <trkpt lat="40.591413" lon="-6.665404">
        <ele>617.864</ele>
        <time>2019-06-22T17:45:04Z</time>
      </trkpt>
      <trkpt lat="40.591459" lon="-6.665106">
        <ele>619.616</ele>
        <time>2019-06-22T17:45:05Z</time>
      </trkpt>
      <trkpt lat="40.591487" lon="-6.664807">
        <ele>621.384</ele>
        <time>2019-06-22T17:45:06Z</time>
      </trkpt>
      <trkpt lat="40.591517" lon="-6.664520">
        <ele>622.283</ele>
        <time>2019-06-22T17:45:07Z</time>
      </trkpt>
      <trkpt lat="40.591545" lon="-6.664231">
        <ele>622.838</ele>
        <time>2019-06-22T17:45:08Z</time>
      </trkpt>
      <trkpt lat="40.591561" lon="-6.663946">
        <ele>624.261</ele>
        <time>2019-06-22T17:45:09Z</time>
      </trkpt>
      <trkpt lat="40.591583" lon="-6.663656">
        <ele>625.222</ele>
        <time>2019-06-22T17:45:10Z</time>
      </trkpt>
      <trkpt lat="40.591613" lon="-6.663366">
        <ele>626.562</ele>
        <time>2019-06-22T17:45:11Z</time>
      </trkpt>
      <trkpt lat="40.591623" lon="-6.663086">
        <ele>627.808</ele>
        <time>2019-06-22T17:45:12Z</time>
      </trkpt>
      <trkpt lat="40.591642" lon="-6.662801">
        <ele>630.008</ele>
        <time>2019-06-22T17:45:13Z</time>
      </trkpt>
      <trkpt lat="40.591653" lon="-6.662504">
        <ele>631.345</ele>
        <time>2019-06-22T17:45:14Z</time>
      </trkpt>
      <trkpt lat="40.591678" lon="-6.662202">
        <ele>632.779</ele>
        <time>2019-06-22T17:45:15Z</time>
      </trkpt>
      <trkpt lat="40.591704" lon="-6.661911">
        <ele>634.071</ele>
        <time>2019-06-22T17:45:16Z</time>
      </trkpt>
      <trkpt lat="40.591726" lon="-6.661613">
        <ele>635.423</ele>
        <time>2019-06-22T17:45:17Z</time>
      </trkpt>
      <trkpt lat="40.591755" lon="-6.661325">
        <ele>636.591</ele>
        <time>2019-06-22T17:45:18Z</time>
      </trkpt>
      <trkpt lat="40.591782" lon="-6.661026">
        <ele>637.730</ele>
        <time>2019-06-22T17:45:19Z</time>
      </trkpt>
      <trkpt lat="40.591835" lon="-6.660721">
        <ele>638.455</ele>
        <time>2019-06-22T17:45:20Z</time>
      </trkpt>
      <trkpt lat="40.591865" lon="-6.660420">
        <ele>639.138</ele>
        <time>2019-06-22T17:45:21Z</time>
      </trkpt>
      <trkpt lat="40.591906" lon="-6.660133">
        <ele>639.993</ele>
        <time>2019-06-22T17:45:22Z</time>
      </trkpt>
      <trkpt lat="40.591957" lon="-6.659807">
        <ele>640.765</ele>
        <time>2019-06-22T17:45:23Z</time>
      </trkpt>
      <trkpt lat="40.592020" lon="-6.659493">
        <ele>641.721</ele>
        <time>2019-06-22T17:45:24Z</time>
      </trkpt>
      <trkpt lat="40.592132" lon="-6.659095">
        <ele>641.708</ele>
        <time>2019-06-22T17:45:25Z</time>
      </trkpt>
      <trkpt lat="40.592202" lon="-6.658778">
        <ele>642.972</ele>
        <time>2019-06-22T17:45:26Z</time>
      </trkpt>
      <trkpt lat="40.592278" lon="-6.658452">
        <ele>644.386</ele>
        <time>2019-06-22T17:45:27Z</time>
      </trkpt>
      <trkpt lat="40.592366" lon="-6.658134">
        <ele>645.058</ele>
        <time>2019-06-22T17:45:28Z</time>
      </trkpt>
      <trkpt lat="40.592453" lon="-6.657819">
        <ele>645.470</ele>
        <time>2019-06-22T17:45:29Z</time>
      </trkpt>
      <trkpt lat="40.592531" lon="-6.657489">
        <ele>646.038</ele>
        <time>2019-06-22T17:45:30Z</time>
      </trkpt>
      <trkpt lat="40.592624" lon="-6.657160">
        <ele>646.377</ele>
        <time>2019-06-22T17:45:31Z</time>
      </trkpt>
      <trkpt lat="40.592708" lon="-6.656855">
        <ele>646.522</ele>
        <time>2019-06-22T17:45:32Z</time>
      </trkpt>
      <trkpt lat="40.592793" lon="-6.656543">
        <ele>647.665</ele>
        <time>2019-06-22T17:45:33Z</time>
      </trkpt>
      <trkpt lat="40.592878" lon="-6.656228">
        <ele>649.321</ele>
        <time>2019-06-22T17:45:34Z</time>
      </trkpt>
      <trkpt lat="40.592967" lon="-6.655898">
        <ele>650.641</ele>
        <time>2019-06-22T17:45:35Z</time>
      </trkpt>
      <trkpt lat="40.593046" lon="-6.655600">
        <ele>651.805</ele>
        <time>2019-06-22T17:45:36Z</time>
      </trkpt>
      <trkpt lat="40.593131" lon="-6.655273">
        <ele>653.208</ele>
        <time>2019-06-22T17:45:37Z</time>
      </trkpt>
      <trkpt lat="40.593217" lon="-6.654949">
        <ele>654.175</ele>
        <time>2019-06-22T17:45:38Z</time>
      </trkpt>
      <trkpt lat="40.593313" lon="-6.654621">
        <ele>655.119</ele>
        <time>2019-06-22T17:45:39Z</time>
      </trkpt>
      <trkpt lat="40.593410" lon="-6.654296">
        <ele>656.481</ele>
        <time>2019-06-22T17:45:40Z</time>
      </trkpt>
      <trkpt lat="40.593491" lon="-6.653966">
        <ele>657.763</ele>
        <time>2019-06-22T17:45:41Z</time>
      </trkpt>
      <trkpt lat="40.593583" lon="-6.653639">
        <ele>658.731</ele>
        <time>2019-06-22T17:45:42Z</time>
      </trkpt>
      <trkpt lat="40.593670" lon="-6.653302">
        <ele>659.880</ele>
        <time>2019-06-22T17:45:43Z</time>
      </trkpt>
      <trkpt lat="40.593756" lon="-6.652990">
        <ele>660.865</ele>
        <time>2019-06-22T17:45:44Z</time>
      </trkpt>
      <trkpt lat="40.593841" lon="-6.652667">
        <ele>661.448</ele>
        <time>2019-06-22T17:45:45Z</time>
      </trkpt>
      <trkpt lat="40.593919" lon="-6.652353">
        <ele>662.339</ele>
        <time>2019-06-22T17:45:46Z</time>
      </trkpt>
      <trkpt lat="40.593998" lon="-6.652050">
        <ele>663.301</ele>
        <time>2019-06-22T17:45:47Z</time>
      </trkpt>
      <trkpt lat="40.594078" lon="-6.651741">
        <ele>664.321</ele>
        <time>2019-06-22T17:45:48Z</time>
      </trkpt>
      <trkpt lat="40.594159" lon="-6.651428">
        <ele>665.008</ele>
        <time>2019-06-22T17:45:49Z</time>
      </trkpt>
      <trkpt lat="40.594227" lon="-6.651103">
        <ele>665.516</ele>
        <time>2019-06-22T17:45:50Z</time>
      </trkpt>
      <trkpt lat="40.594286" lon="-6.650792">
        <ele>665.970</ele>
        <time>2019-06-22T17:45:51Z</time>
      </trkpt>
      <trkpt lat="40.594355" lon="-6.650448">
        <ele>666.322</ele>
        <time>2019-06-22T17:45:52Z</time>
      </trkpt>
      <trkpt lat="40.594409" lon="-6.650134">
        <ele>666.614</ele>
        <time>2019-06-22T17:45:53Z</time>
      </trkpt>
      <trkpt lat="40.594459" lon="-6.649788">
        <ele>667.362</ele>
        <time>2019-06-22T17:45:54Z</time>
      </trkpt>
      <trkpt lat="40.594509" lon="-6.649472">
        <ele>667.841</ele>
        <time>2019-06-22T17:45:55Z</time>
      </trkpt>
      <trkpt lat="40.594550" lon="-6.649145">
        <ele>668.576</ele>
        <time>2019-06-22T17:45:56Z</time>
      </trkpt>
      <trkpt lat="40.594589" lon="-6.648827">
        <ele>669.139</ele>
        <time>2019-06-22T17:45:57Z</time>
      </trkpt>
      <trkpt lat="40.594628" lon="-6.648494">
        <ele>669.362</ele>
        <time>2019-06-22T17:45:58Z</time>
      </trkpt>
      <trkpt lat="40.594666" lon="-6.648161">
        <ele>669.483</ele>
        <time>2019-06-22T17:45:59Z</time>
      </trkpt>
      <trkpt lat="40.594689" lon="-6.647829">
        <ele>669.811</ele>
        <time>2019-06-22T17:46:00Z</time>
      </trkpt>
      <trkpt lat="40.594723" lon="-6.647489">
        <ele>670.008</ele>
        <time>2019-06-22T17:46:01Z</time>
      </trkpt>
      <trkpt lat="40.594766" lon="-6.647141">
        <ele>670.199</ele>
        <time>2019-06-22T17:46:02Z</time>
      </trkpt>
      <trkpt lat="40.594811" lon="-6.646802">
        <ele>670.523</ele>
        <time>2019-06-22T17:46:03Z</time>
      </trkpt>
      <trkpt lat="40.594846" lon="-6.646453">
        <ele>670.555</ele>
        <time>2019-06-22T17:46:04Z</time>
      </trkpt>
      <trkpt lat="40.594867" lon="-6.646118">
        <ele>670.597</ele>
        <time>2019-06-22T17:46:05Z</time>
      </trkpt>
      <trkpt lat="40.594896" lon="-6.645774">
        <ele>670.575</ele>
        <time>2019-06-22T17:46:06Z</time>
      </trkpt>
      <trkpt lat="40.594929" lon="-6.645437">
        <ele>670.774</ele>
        <time>2019-06-22T17:46:07Z</time>
      </trkpt>
      <trkpt lat="40.594934" lon="-6.645070">
        <ele>671.079</ele>
        <time>2019-06-22T17:46:08Z</time>
      </trkpt>
      <trkpt lat="40.594967" lon="-6.644733">
        <ele>671.782</ele>
        <time>2019-06-22T17:46:09Z</time>
      </trkpt>
      <trkpt lat="40.595007" lon="-6.644380">
        <ele>672.329</ele>
        <time>2019-06-22T17:46:10Z</time>
      </trkpt>
      <trkpt lat="40.595052" lon="-6.644032">
        <ele>672.900</ele>
        <time>2019-06-22T17:46:11Z</time>
      </trkpt>
      <trkpt lat="40.595077" lon="-6.643692">
        <ele>673.320</ele>
        <time>2019-06-22T17:46:12Z</time>
      </trkpt>
      <trkpt lat="40.595104" lon="-6.643343">
        <ele>673.508</ele>
        <time>2019-06-22T17:46:13Z</time>
      </trkpt>
      <trkpt lat="40.595126" lon="-6.643009">
        <ele>673.855</ele>
        <time>2019-06-22T17:46:14Z</time>
      </trkpt>
      <trkpt lat="40.595132" lon="-6.642661">
        <ele>675.319</ele>
        <time>2019-06-22T17:46:15Z</time>
      </trkpt>
      <trkpt lat="40.595137" lon="-6.642323">
        <ele>676.361</ele>
        <time>2019-06-22T17:46:16Z</time>
      </trkpt>
      <trkpt lat="40.595132" lon="-6.641985">
        <ele>676.643</ele>
        <time>2019-06-22T17:46:17Z</time>
      </trkpt>
      <trkpt lat="40.595131" lon="-6.641663">
        <ele>677.711</ele>
        <time>2019-06-22T17:46:18Z</time>
      </trkpt>
      <trkpt lat="40.595119" lon="-6.641321">
        <ele>678.720</ele>
        <time>2019-06-22T17:46:19Z</time>
      </trkpt>
      <trkpt lat="40.595111" lon="-6.640985">
        <ele>679.395</ele>
        <time>2019-06-22T17:46:20Z</time>
      </trkpt>
      <trkpt lat="40.595106" lon="-6.640642">
        <ele>679.948</ele>
        <time>2019-06-22T17:46:21Z</time>
      </trkpt>
      <trkpt lat="40.595102" lon="-6.640288">
        <ele>680.979</ele>
        <time>2019-06-22T17:46:22Z</time>
      </trkpt>
      <trkpt lat="40.595099" lon="-6.639945">
        <ele>681.705</ele>
        <time>2019-06-22T17:46:23Z</time>
      </trkpt>
      <trkpt lat="40.595106" lon="-6.639594">
        <ele>682.125</ele>
        <time>2019-06-22T17:46:24Z</time>
      </trkpt>
      <trkpt lat="40.595097" lon="-6.639234">
        <ele>682.108</ele>
        <time>2019-06-22T17:46:25Z</time>
      </trkpt>
      <trkpt lat="40.595093" lon="-6.638871">
        <ele>682.110</ele>
        <time>2019-06-22T17:46:26Z</time>
      </trkpt>
      <trkpt lat="40.595089" lon="-6.638524">
        <ele>682.714</ele>
        <time>2019-06-22T17:46:27Z</time>
      </trkpt>
      <trkpt lat="40.595082" lon="-6.638170">
        <ele>682.976</ele>
        <time>2019-06-22T17:46:28Z</time>
      </trkpt>
      <trkpt lat="40.595077" lon="-6.637821">
        <ele>682.968</ele>
        <time>2019-06-22T17:46:29Z</time>
      </trkpt>
      <trkpt lat="40.595073" lon="-6.637462">
        <ele>683.176</ele>
        <time>2019-06-22T17:46:30Z</time>
      </trkpt>
      <trkpt lat="40.595067" lon="-6.637126">
        <ele>683.525</ele>
        <time>2019-06-22T17:46:31Z</time>
      </trkpt>
      <trkpt lat="40.595065" lon="-6.636784">
        <ele>684.150</ele>
        <time>2019-06-22T17:46:32Z</time>
      </trkpt>
      <trkpt lat="40.595054" lon="-6.636423">
        <ele>684.253</ele>
        <time>2019-06-22T17:46:33Z</time>
      </trkpt>
      <trkpt lat="40.595053" lon="-6.636077">
        <ele>684.297</ele>
        <time>2019-06-22T17:46:34Z</time>
      </trkpt>
      <trkpt lat="40.595054" lon="-6.635753">
        <ele>683.723</ele>
        <time>2019-06-22T17:46:35Z</time>
      </trkpt>
      <trkpt lat="40.595045" lon="-6.635378">
        <ele>683.325</ele>
        <time>2019-06-22T17:46:36Z</time>
      </trkpt>
      <trkpt lat="40.595042" lon="-6.635031">
        <ele>682.708</ele>
        <time>2019-06-22T17:46:37Z</time>
      </trkpt>
      <trkpt lat="40.595046" lon="-6.634686">
        <ele>682.272</ele>
        <time>2019-06-22T17:46:38Z</time>
      </trkpt>
      <trkpt lat="40.595036" lon="-6.634361">
        <ele>681.566</ele>
        <time>2019-06-22T17:46:39Z</time>
      </trkpt>
      <trkpt lat="40.595042" lon="-6.633986">
        <ele>681.148</ele>
        <time>2019-06-22T17:46:40Z</time>
      </trkpt>
      <trkpt lat="40.595058" lon="-6.633655">
        <ele>680.810</ele>
        <time>2019-06-22T17:46:41Z</time>
      </trkpt>
      <trkpt lat="40.595073" lon="-6.633318">
        <ele>680.158</ele>
        <time>2019-06-22T17:46:42Z</time>
      </trkpt>
      <trkpt lat="40.595087" lon="-6.632960">
        <ele>679.957</ele>
        <time>2019-06-22T17:46:43Z</time>
      </trkpt>
      <trkpt lat="40.595105" lon="-6.632610">
        <ele>679.992</ele>
        <time>2019-06-22T17:46:44Z</time>
      </trkpt>
      <trkpt lat="40.595129" lon="-6.632274">
        <ele>679.845</ele>
        <time>2019-06-22T17:46:45Z</time>
      </trkpt>
      <trkpt lat="40.595137" lon="-6.631933">
        <ele>679.565</ele>
        <time>2019-06-22T17:46:46Z</time>
      </trkpt>
      <trkpt lat="40.595157" lon="-6.631581">
        <ele>679.568</ele>
        <time>2019-06-22T17:46:47Z</time>
      </trkpt>
      <trkpt lat="40.595170" lon="-6.631239">
        <ele>679.214</ele>
        <time>2019-06-22T17:46:48Z</time>
      </trkpt>
      <trkpt lat="40.595185" lon="-6.630901">
        <ele>678.408</ele>
        <time>2019-06-22T17:46:49Z</time>
      </trkpt>
      <trkpt lat="40.595195" lon="-6.630549">
        <ele>677.949</ele>
        <time>2019-06-22T17:46:50Z</time>
      </trkpt>
      <trkpt lat="40.595204" lon="-6.630210">
        <ele>677.483</ele>
        <time>2019-06-22T17:46:51Z</time>
      </trkpt>
      <trkpt lat="40.595208" lon="-6.629869">
        <ele>676.285</ele>
        <time>2019-06-22T17:46:52Z</time>
      </trkpt>
      <trkpt lat="40.595210" lon="-6.629529">
        <ele>675.157</ele>
        <time>2019-06-22T17:46:53Z</time>
      </trkpt>
      <trkpt lat="40.595206" lon="-6.629183">
        <ele>674.135</ele>
        <time>2019-06-22T17:46:54Z</time>
      </trkpt>
      <trkpt lat="40.595208" lon="-6.628843">
        <ele>673.344</ele>
        <time>2019-06-22T17:46:55Z</time>
      </trkpt>
      <trkpt lat="40.595206" lon="-6.628500">
        <ele>672.149</ele>
        <time>2019-06-22T17:46:56Z</time>
      </trkpt>
      <trkpt lat="40.595202" lon="-6.628162">
        <ele>671.532</ele>
        <time>2019-06-22T17:46:57Z</time>
      </trkpt>
      <trkpt lat="40.595200" lon="-6.627825">
        <ele>670.911</ele>
        <time>2019-06-22T17:46:58Z</time>
      </trkpt>
      <trkpt lat="40.595191" lon="-6.627490">
        <ele>670.621</ele>
        <time>2019-06-22T17:46:59Z</time>
      </trkpt>
      <trkpt lat="40.595193" lon="-6.627155">
        <ele>669.803</ele>
        <time>2019-06-22T17:47:00Z</time>
      </trkpt>
      <trkpt lat="40.595189" lon="-6.626787">
        <ele>669.008</ele>
        <time>2019-06-22T17:47:01Z</time>
      </trkpt>
      <trkpt lat="40.595183" lon="-6.626448">
        <ele>667.914</ele>
        <time>2019-06-22T17:47:02Z</time>
      </trkpt>
      <trkpt lat="40.595173" lon="-6.626109">
        <ele>667.028</ele>
        <time>2019-06-22T17:47:03Z</time>
      </trkpt>
      <trkpt lat="40.595168" lon="-6.625773">
        <ele>666.150</ele>
        <time>2019-06-22T17:47:04Z</time>
      </trkpt>
      <trkpt lat="40.595162" lon="-6.625430">
        <ele>665.012</ele>
        <time>2019-06-22T17:47:05Z</time>
      </trkpt>
      <trkpt lat="40.595154" lon="-6.625088">
        <ele>664.140</ele>
        <time>2019-06-22T17:47:06Z</time>
      </trkpt>
      <trkpt lat="40.595149" lon="-6.624743">
        <ele>663.639</ele>
        <time>2019-06-22T17:47:07Z</time>
      </trkpt>
      <trkpt lat="40.595154" lon="-6.624403">
        <ele>662.654</ele>
        <time>2019-06-22T17:47:08Z</time>
      </trkpt>
      <trkpt lat="40.595153" lon="-6.624053">
        <ele>661.277</ele>
        <time>2019-06-22T17:47:09Z</time>
      </trkpt>
      <trkpt lat="40.595146" lon="-6.623703">
        <ele>660.024</ele>
        <time>2019-06-22T17:47:10Z</time>
      </trkpt>
      <trkpt lat="40.595146" lon="-6.623359">
        <ele>658.604</ele>
        <time>2019-06-22T17:47:11Z</time>
      </trkpt>
      <trkpt lat="40.595143" lon="-6.623010">
        <ele>657.114</ele>
        <time>2019-06-22T17:47:12Z</time>
      </trkpt>
      <trkpt lat="40.595146" lon="-6.622667">
        <ele>656.108</ele>
        <time>2019-06-22T17:47:13Z</time>
      </trkpt>
      <trkpt lat="40.595140" lon="-6.622315">
        <ele>654.995</ele>
        <time>2019-06-22T17:47:14Z</time>
      </trkpt>
      <trkpt lat="40.595135" lon="-6.621960">
        <ele>653.459</ele>
        <time>2019-06-22T17:47:15Z</time>
      </trkpt>
      <trkpt lat="40.595131" lon="-6.621619">
        <ele>652.071</ele>
        <time>2019-06-22T17:47:16Z</time>
      </trkpt>
      <trkpt lat="40.595124" lon="-6.621270">
        <ele>650.633</ele>
        <time>2019-06-22T17:47:17Z</time>
      </trkpt>
      <trkpt lat="40.595110" lon="-6.620921">
        <ele>648.961</ele>
        <time>2019-06-22T17:47:18Z</time>
      </trkpt>
      <trkpt lat="40.595089" lon="-6.620565">
        <ele>647.910</ele>
        <time>2019-06-22T17:47:19Z</time>
      </trkpt>
      <trkpt lat="40.595065" lon="-6.620215">
        <ele>646.665</ele>
        <time>2019-06-22T17:47:20Z</time>
      </trkpt>
      <trkpt lat="40.595034" lon="-6.619861">
        <ele>645.698</ele>
        <time>2019-06-22T17:47:21Z</time>
      </trkpt>
      <trkpt lat="40.595003" lon="-6.619516">
        <ele>644.891</ele>
        <time>2019-06-22T17:47:22Z</time>
      </trkpt>
      <trkpt lat="40.594964" lon="-6.619181">
        <ele>643.981</ele>
        <time>2019-06-22T17:47:23Z</time>
      </trkpt>
      <trkpt lat="40.594935" lon="-6.618849">
        <ele>642.519</ele>
        <time>2019-06-22T17:47:24Z</time>
      </trkpt>
      <trkpt lat="40.594899" lon="-6.618489">
        <ele>641.708</ele>
        <time>2019-06-22T17:47:25Z</time>
      </trkpt>
      <trkpt lat="40.594872" lon="-6.618148">
        <ele>641.532</ele>
        <time>2019-06-22T17:47:26Z</time>
      </trkpt>
      <trkpt lat="40.594843" lon="-6.617843">
        <ele>641.286</ele>
        <time>2019-06-22T17:47:27Z</time>
      </trkpt>
      <trkpt lat="40.594816" lon="-6.617515">
        <ele>640.928</ele>
        <time>2019-06-22T17:47:28Z</time>
      </trkpt>
      <trkpt lat="40.594801" lon="-6.617229">
        <ele>640.940</ele>
        <time>2019-06-22T17:47:29Z</time>
      </trkpt>
      <trkpt lat="40.594788" lon="-6.616915">
        <ele>640.938</ele>
        <time>2019-06-22T17:47:30Z</time>
      </trkpt>
      <trkpt lat="40.594783" lon="-6.616655">
        <ele>640.997</ele>
        <time>2019-06-22T17:47:31Z</time>
      </trkpt>
      <trkpt lat="40.594760" lon="-6.616387">
        <ele>639.672</ele>
        <time>2019-06-22T17:47:32Z</time>
      </trkpt>
      <trkpt lat="40.594748" lon="-6.616114">
        <ele>638.665</ele>
        <time>2019-06-22T17:47:33Z</time>
      </trkpt>
      <trkpt lat="40.594738" lon="-6.615881">
        <ele>638.625</ele>
        <time>2019-06-22T17:47:34Z</time>
      </trkpt>
      <trkpt lat="40.594735" lon="-6.615668">
        <ele>638.326</ele>
        <time>2019-06-22T17:47:35Z</time>
      </trkpt>
      <trkpt lat="40.594707" lon="-6.615436">
        <ele>638.008</ele>
        <time>2019-06-22T17:47:36Z</time>
      </trkpt>
      <trkpt lat="40.594657" lon="-6.615205">
        <ele>638.008</ele>
        <time>2019-06-22T17:47:37Z</time>
      </trkpt>
      <trkpt lat="40.594595" lon="-6.614965">
        <ele>638.075</ele>
        <time>2019-06-22T17:47:38Z</time>
      </trkpt>
      <trkpt lat="40.594501" lon="-6.614702">
        <ele>638.679</ele>
        <time>2019-06-22T17:47:39Z</time>
      </trkpt>
      <trkpt lat="40.594388" lon="-6.614450">
        <ele>638.691</ele>
        <time>2019-06-22T17:47:40Z</time>
      </trkpt>
      <trkpt lat="40.594263" lon="-6.614221">
        <ele>638.343</ele>
        <time>2019-06-22T17:47:41Z</time>
      </trkpt>
      <trkpt lat="40.594137" lon="-6.613982">
        <ele>638.041</ele>
        <time>2019-06-22T17:47:42Z</time>
      </trkpt>
      <trkpt lat="40.594006" lon="-6.613730">
        <ele>637.980</ele>
        <time>2019-06-22T17:47:43Z</time>
      </trkpt>
      <trkpt lat="40.593868" lon="-6.613464">
        <ele>637.645</ele>
        <time>2019-06-22T17:47:44Z</time>
      </trkpt>
      <trkpt lat="40.593734" lon="-6.613178">
        <ele>637.358</ele>
        <time>2019-06-22T17:47:45Z</time>
      </trkpt>
      <trkpt lat="40.593596" lon="-6.612919">
        <ele>636.849</ele>
        <time>2019-06-22T17:47:46Z</time>
      </trkpt>
      <trkpt lat="40.593455" lon="-6.612655">
        <ele>635.602</ele>
        <time>2019-06-22T17:47:47Z</time>
      </trkpt>
      <trkpt lat="40.593323" lon="-6.612414">
        <ele>634.322</ele>
        <time>2019-06-22T17:47:48Z</time>
      </trkpt>
      <trkpt lat="40.593174" lon="-6.612151">
        <ele>632.808</ele>
        <time>2019-06-22T17:47:49Z</time>
      </trkpt>
      <trkpt lat="40.593018" lon="-6.611861">
        <ele>632.647</ele>
        <time>2019-06-22T17:47:50Z</time>
      </trkpt>
      <trkpt lat="40.592870" lon="-6.611585">
        <ele>631.881</ele>
        <time>2019-06-22T17:47:51Z</time>
      </trkpt>
      <trkpt lat="40.592725" lon="-6.611310">
        <ele>631.863</ele>
        <time>2019-06-22T17:47:52Z</time>
      </trkpt>
      <trkpt lat="40.592588" lon="-6.611043">
        <ele>631.815</ele>
        <time>2019-06-22T17:47:53Z</time>
      </trkpt>
      <trkpt lat="40.592453" lon="-6.610778">
        <ele>631.893</ele>
        <time>2019-06-22T17:47:54Z</time>
      </trkpt>
      <trkpt lat="40.592307" lon="-6.610503">
        <ele>631.512</ele>
        <time>2019-06-22T17:47:55Z</time>
      </trkpt>
      <trkpt lat="40.592165" lon="-6.610236">
        <ele>631.397</ele>
        <time>2019-06-22T17:47:56Z</time>
      </trkpt>
      <trkpt lat="40.592023" lon="-6.609970">
        <ele>630.960</ele>
        <time>2019-06-22T17:47:57Z</time>
      </trkpt>
      <trkpt lat="40.591888" lon="-6.609711">
        <ele>630.523</ele>
        <time>2019-06-22T17:47:58Z</time>
      </trkpt>
      <trkpt lat="40.591738" lon="-6.609452">
        <ele>629.583</ele>
        <time>2019-06-22T17:47:59Z</time>
      </trkpt>
      <trkpt lat="40.591593" lon="-6.609198">
        <ele>629.111</ele>
        <time>2019-06-22T17:48:00Z</time>
      </trkpt>
      <trkpt lat="40.591453" lon="-6.608938">
        <ele>628.908</ele>
        <time>2019-06-22T17:48:01Z</time>
      </trkpt>
      <trkpt lat="40.591317" lon="-6.608678">
        <ele>628.785</ele>
        <time>2019-06-22T17:48:02Z</time>
      </trkpt>
      <trkpt lat="40.591186" lon="-6.608431">
        <ele>628.299</ele>
        <time>2019-06-22T17:48:03Z</time>
      </trkpt>
      <trkpt lat="40.591102" lon="-6.608233">
        <ele>628.241</ele>
        <time>2019-06-22T17:48:04Z</time>
      </trkpt>
      <trkpt lat="40.590979" lon="-6.608009">
        <ele>627.323</ele>
        <time>2019-06-22T17:48:05Z</time>
      </trkpt>
      <trkpt lat="40.590866" lon="-6.607807">
        <ele>626.391</ele>
        <time>2019-06-22T17:48:06Z</time>
      </trkpt>
      <trkpt lat="40.590744" lon="-6.607582">
        <ele>625.870</ele>
        <time>2019-06-22T17:48:07Z</time>
      </trkpt>
      <trkpt lat="40.590603" lon="-6.607359">
        <ele>625.465</ele>
        <time>2019-06-22T17:48:08Z</time>
      </trkpt>
      <trkpt lat="40.590493" lon="-6.607142">
        <ele>624.218</ele>
        <time>2019-06-22T17:48:09Z</time>
      </trkpt>
      <trkpt lat="40.590351" lon="-6.606939">
        <ele>624.211</ele>
        <time>2019-06-22T17:48:10Z</time>
      </trkpt>
      <trkpt lat="40.590193" lon="-6.606736">
        <ele>624.221</ele>
        <time>2019-06-22T17:48:11Z</time>
      </trkpt>
      <trkpt lat="40.590056" lon="-6.606562">
        <ele>624.103</ele>
        <time>2019-06-22T17:48:12Z</time>
      </trkpt>
      <trkpt lat="40.589907" lon="-6.606364">
        <ele>624.008</ele>
        <time>2019-06-22T17:48:13Z</time>
      </trkpt>
      <trkpt lat="40.589744" lon="-6.606165">
        <ele>623.934</ele>
        <time>2019-06-22T17:48:14Z</time>
      </trkpt>
      <trkpt lat="40.589581" lon="-6.605970">
        <ele>623.578</ele>
        <time>2019-06-22T17:48:15Z</time>
      </trkpt>
      <trkpt lat="40.589421" lon="-6.605772">
        <ele>622.170</ele>
        <time>2019-06-22T17:48:16Z</time>
      </trkpt>
      <trkpt lat="40.589240" lon="-6.605577">
        <ele>621.332</ele>
        <time>2019-06-22T17:48:17Z</time>
      </trkpt>
      <trkpt lat="40.589075" lon="-6.605387">
        <ele>621.130</ele>
        <time>2019-06-22T17:48:18Z</time>
      </trkpt>
      <trkpt lat="40.588898" lon="-6.605203">
        <ele>621.059</ele>
        <time>2019-06-22T17:48:19Z</time>
      </trkpt>
      <trkpt lat="40.588741" lon="-6.605026">
        <ele>621.184</ele>
        <time>2019-06-22T17:48:20Z</time>
      </trkpt>
      <trkpt lat="40.588572" lon="-6.604829">
        <ele>621.947</ele>
        <time>2019-06-22T17:48:21Z</time>
      </trkpt>
      <trkpt lat="40.588400" lon="-6.604647">
        <ele>622.865</ele>
        <time>2019-06-22T17:48:22Z</time>
      </trkpt>
      <trkpt lat="40.588224" lon="-6.604467">
        <ele>623.068</ele>
        <time>2019-06-22T17:48:23Z</time>
      </trkpt>
      <trkpt lat="40.588044" lon="-6.604284">
        <ele>623.214</ele>
        <time>2019-06-22T17:48:24Z</time>
      </trkpt>
      <trkpt lat="40.587873" lon="-6.604095">
        <ele>623.408</ele>
        <time>2019-06-22T17:48:25Z</time>
      </trkpt>
      <trkpt lat="40.587693" lon="-6.603896">
        <ele>623.819</ele>
        <time>2019-06-22T17:48:26Z</time>
      </trkpt>
      <trkpt lat="40.587526" lon="-6.603693">
        <ele>623.813</ele>
        <time>2019-06-22T17:48:27Z</time>
      </trkpt>
      <trkpt lat="40.587365" lon="-6.603484">
        <ele>624.295</ele>
        <time>2019-06-22T17:48:28Z</time>
      </trkpt>
      <trkpt lat="40.587198" lon="-6.603259">
        <ele>624.227</ele>
        <time>2019-06-22T17:48:29Z</time>
      </trkpt>
      <trkpt lat="40.587033" lon="-6.603031">
        <ele>624.365</ele>
        <time>2019-06-22T17:48:30Z</time>
      </trkpt>
      <trkpt lat="40.586863" lon="-6.602794">
        <ele>624.664</ele>
        <time>2019-06-22T17:48:31Z</time>
      </trkpt>
      <trkpt lat="40.586702" lon="-6.602548">
        <ele>624.619</ele>
        <time>2019-06-22T17:48:32Z</time>
      </trkpt>
      <trkpt lat="40.586553" lon="-6.602292">
        <ele>623.872</ele>
        <time>2019-06-22T17:48:33Z</time>
      </trkpt>
      <trkpt lat="40.586403" lon="-6.602028">
        <ele>623.578</ele>
        <time>2019-06-22T17:48:34Z</time>
      </trkpt>
      <trkpt lat="40.586272" lon="-6.601784">
        <ele>623.333</ele>
        <time>2019-06-22T17:48:35Z</time>
      </trkpt>
      <trkpt lat="40.586132" lon="-6.601511">
        <ele>623.326</ele>
        <time>2019-06-22T17:48:36Z</time>
      </trkpt>
      <trkpt lat="40.585993" lon="-6.601232">
        <ele>623.308</ele>
        <time>2019-06-22T17:48:37Z</time>
      </trkpt>
      <trkpt lat="40.585880" lon="-6.600946">
        <ele>623.590</ele>
        <time>2019-06-22T17:48:38Z</time>
      </trkpt>
      <trkpt lat="40.585781" lon="-6.600664">
        <ele>624.494</ele>
        <time>2019-06-22T17:48:39Z</time>
      </trkpt>
      <trkpt lat="40.585670" lon="-6.600337">
        <ele>625.346</ele>
        <time>2019-06-22T17:48:40Z</time>
      </trkpt>
      <trkpt lat="40.585558" lon="-6.600043">
        <ele>626.338</ele>
        <time>2019-06-22T17:48:41Z</time>
      </trkpt>
      <trkpt lat="40.585447" lon="-6.599746">
        <ele>627.286</ele>
        <time>2019-06-22T17:48:42Z</time>
      </trkpt>
      <trkpt lat="40.585343" lon="-6.599453">
        <ele>627.555</ele>
        <time>2019-06-22T17:48:43Z</time>
      </trkpt>
      <trkpt lat="40.585232" lon="-6.599169">
        <ele>628.440</ele>
        <time>2019-06-22T17:48:44Z</time>
      </trkpt>
      <trkpt lat="40.585153" lon="-6.598908">
        <ele>629.563</ele>
        <time>2019-06-22T17:48:45Z</time>
      </trkpt>
      <trkpt lat="40.585096" lon="-6.598605">
        <ele>630.266</ele>
        <time>2019-06-22T17:48:46Z</time>
      </trkpt>
      <trkpt lat="40.585045" lon="-6.598315">
        <ele>631.329</ele>
        <time>2019-06-22T17:48:47Z</time>
      </trkpt>
      <trkpt lat="40.584988" lon="-6.598018">
        <ele>632.321</ele>
        <time>2019-06-22T17:48:48Z</time>
      </trkpt>
      <trkpt lat="40.584937" lon="-6.597720">
        <ele>632.608</ele>
        <time>2019-06-22T17:48:49Z</time>
      </trkpt>
      <trkpt lat="40.584869" lon="-6.597418">
        <ele>632.999</ele>
        <time>2019-06-22T17:48:50Z</time>
      </trkpt>
      <trkpt lat="40.584814" lon="-6.597116">
        <ele>634.413</ele>
        <time>2019-06-22T17:48:51Z</time>
      </trkpt>
      <trkpt lat="40.584756" lon="-6.596817">
        <ele>635.535</ele>
        <time>2019-06-22T17:48:52Z</time>
      </trkpt>
      <trkpt lat="40.584713" lon="-6.596521">
        <ele>637.087</ele>
        <time>2019-06-22T17:48:53Z</time>
      </trkpt>
      <trkpt lat="40.584660" lon="-6.596225">
        <ele>638.155</ele>
        <time>2019-06-22T17:48:54Z</time>
      </trkpt>
      <trkpt lat="40.584608" lon="-6.595941">
        <ele>639.124</ele>
        <time>2019-06-22T17:48:55Z</time>
      </trkpt>
      <trkpt lat="40.584551" lon="-6.595657">
        <ele>639.659</ele>
        <time>2019-06-22T17:48:56Z</time>
      </trkpt>
      <trkpt lat="40.584496" lon="-6.595376">
        <ele>640.412</ele>
        <time>2019-06-22T17:48:57Z</time>
      </trkpt>
      <trkpt lat="40.584423" lon="-6.595095">
        <ele>640.494</ele>
        <time>2019-06-22T17:48:58Z</time>
      </trkpt>
      <trkpt lat="40.584358" lon="-6.594837">
        <ele>641.457</ele>
        <time>2019-06-22T17:48:59Z</time>
      </trkpt>
      <trkpt lat="40.584273" lon="-6.594556">
        <ele>642.722</ele>
        <time>2019-06-22T17:49:00Z</time>
      </trkpt>
      <trkpt lat="40.584188" lon="-6.594284">
        <ele>643.908</ele>
        <time>2019-06-22T17:49:01Z</time>
      </trkpt>
      <trkpt lat="40.584107" lon="-6.594012">
        <ele>644.582</ele>
        <time>2019-06-22T17:49:02Z</time>
      </trkpt>
      <trkpt lat="40.584047" lon="-6.593746">
        <ele>645.566</ele>
        <time>2019-06-22T17:49:03Z</time>
      </trkpt>
      <trkpt lat="40.583968" lon="-6.593484">
        <ele>645.638</ele>
        <time>2019-06-22T17:49:04Z</time>
      </trkpt>
      <trkpt lat="40.583887" lon="-6.593226">
        <ele>645.520</ele>
        <time>2019-06-22T17:49:05Z</time>
      </trkpt>
      <trkpt lat="40.583809" lon="-6.592974">
        <ele>645.118</ele>
        <time>2019-06-22T17:49:06Z</time>
      </trkpt>
      <trkpt lat="40.583734" lon="-6.592727">
        <ele>645.157</ele>
        <time>2019-06-22T17:49:07Z</time>
      </trkpt>
      <trkpt lat="40.583665" lon="-6.592467">
        <ele>645.342</ele>
        <time>2019-06-22T17:49:08Z</time>
      </trkpt>
      <trkpt lat="40.583595" lon="-6.592192">
        <ele>645.875</ele>
        <time>2019-06-22T17:49:09Z</time>
      </trkpt>
      <trkpt lat="40.583527" lon="-6.591908">
        <ele>646.997</ele>
        <time>2019-06-22T17:49:10Z</time>
      </trkpt>
      <trkpt lat="40.583459" lon="-6.591609">
        <ele>648.323</ele>
        <time>2019-06-22T17:49:11Z</time>
      </trkpt>
      <trkpt lat="40.583391" lon="-6.591303">
        <ele>648.325</ele>
        <time>2019-06-22T17:49:12Z</time>
      </trkpt>
      <trkpt lat="40.583313" lon="-6.591003">
        <ele>647.508</ele>
        <time>2019-06-22T17:49:13Z</time>
      </trkpt>
      <trkpt lat="40.583251" lon="-6.590695">
        <ele>646.832</ele>
        <time>2019-06-22T17:49:14Z</time>
      </trkpt>
      <trkpt lat="40.583161" lon="-6.590374">
        <ele>644.736</ele>
        <time>2019-06-22T17:49:15Z</time>
      </trkpt>
      <trkpt lat="40.583084" lon="-6.590052">
        <ele>643.098</ele>
        <time>2019-06-22T17:49:16Z</time>
      </trkpt>
      <trkpt lat="40.583006" lon="-6.589713">
        <ele>642.670</ele>
        <time>2019-06-22T17:49:17Z</time>
      </trkpt>
      <trkpt lat="40.582925" lon="-6.589394">
        <ele>642.658</ele>
        <time>2019-06-22T17:49:18Z</time>
      </trkpt>
      <trkpt lat="40.582852" lon="-6.589062">
        <ele>642.617</ele>
        <time>2019-06-22T17:49:19Z</time>
      </trkpt>
      <trkpt lat="40.582783" lon="-6.588719">
        <ele>642.572</ele>
        <time>2019-06-22T17:49:20Z</time>
      </trkpt>
      <trkpt lat="40.582713" lon="-6.588384">
        <ele>642.435</ele>
        <time>2019-06-22T17:49:21Z</time>
      </trkpt>
      <trkpt lat="40.582636" lon="-6.588053">
        <ele>642.081</ele>
        <time>2019-06-22T17:49:22Z</time>
      </trkpt>
      <trkpt lat="40.582550" lon="-6.587716">
        <ele>641.261</ele>
        <time>2019-06-22T17:49:23Z</time>
      </trkpt>
      <trkpt lat="40.582469" lon="-6.587374">
        <ele>639.917</ele>
        <time>2019-06-22T17:49:24Z</time>
      </trkpt>
      <trkpt lat="40.582382" lon="-6.587025">
        <ele>639.408</ele>
        <time>2019-06-22T17:49:25Z</time>
      </trkpt>
      <trkpt lat="40.582296" lon="-6.586686">
        <ele>639.121</ele>
        <time>2019-06-22T17:49:26Z</time>
      </trkpt>
      <trkpt lat="40.582214" lon="-6.586342">
        <ele>638.815</ele>
        <time>2019-06-22T17:49:27Z</time>
      </trkpt>
      <trkpt lat="40.582139" lon="-6.585997">
        <ele>638.217</ele>
        <time>2019-06-22T17:49:28Z</time>
      </trkpt>
      <trkpt lat="40.582064" lon="-6.585654">
        <ele>637.689</ele>
        <time>2019-06-22T17:49:29Z</time>
      </trkpt>
      <trkpt lat="40.581980" lon="-6.585318">
        <ele>637.337</ele>
        <time>2019-06-22T17:49:30Z</time>
      </trkpt>
      <trkpt lat="40.581910" lon="-6.584961">
        <ele>636.266</ele>
        <time>2019-06-22T17:49:31Z</time>
      </trkpt>
      <trkpt lat="40.581825" lon="-6.584605">
        <ele>635.051</ele>
        <time>2019-06-22T17:49:32Z</time>
      </trkpt>
      <trkpt lat="40.581744" lon="-6.584265">
        <ele>634.694</ele>
        <time>2019-06-22T17:49:33Z</time>
      </trkpt>
      <trkpt lat="40.581664" lon="-6.583925">
        <ele>633.781</ele>
        <time>2019-06-22T17:49:34Z</time>
      </trkpt>
      <trkpt lat="40.581583" lon="-6.583567">
        <ele>633.361</ele>
        <time>2019-06-22T17:49:35Z</time>
      </trkpt>
      <trkpt lat="40.581501" lon="-6.583232">
        <ele>632.917</ele>
        <time>2019-06-22T17:49:36Z</time>
      </trkpt>
      <trkpt lat="40.581406" lon="-6.582903">
        <ele>632.808</ele>
        <time>2019-06-22T17:49:37Z</time>
      </trkpt>
      <trkpt lat="40.581327" lon="-6.582590">
        <ele>632.271</ele>
        <time>2019-06-22T17:49:38Z</time>
      </trkpt>
      <trkpt lat="40.581258" lon="-6.582288">
        <ele>632.265</ele>
        <time>2019-06-22T17:49:39Z</time>
      </trkpt>
      <trkpt lat="40.581180" lon="-6.581955">
        <ele>632.237</ele>
        <time>2019-06-22T17:49:40Z</time>
      </trkpt>
      <trkpt lat="40.581107" lon="-6.581631">
        <ele>632.269</ele>
        <time>2019-06-22T17:49:41Z</time>
      </trkpt>
      <trkpt lat="40.581032" lon="-6.581307">
        <ele>632.317</ele>
        <time>2019-06-22T17:49:42Z</time>
      </trkpt>
      <trkpt lat="40.580957" lon="-6.580982">
        <ele>632.466</ele>
        <time>2019-06-22T17:49:43Z</time>
      </trkpt>
      <trkpt lat="40.580881" lon="-6.580658">
        <ele>632.471</ele>
        <time>2019-06-22T17:49:44Z</time>
      </trkpt>
      <trkpt lat="40.580813" lon="-6.580340">
        <ele>631.914</ele>
        <time>2019-06-22T17:49:45Z</time>
      </trkpt>
      <trkpt lat="40.580735" lon="-6.580044">
        <ele>631.346</ele>
        <time>2019-06-22T17:49:46Z</time>
      </trkpt>
      <trkpt lat="40.580675" lon="-6.579727">
        <ele>630.888</ele>
        <time>2019-06-22T17:49:47Z</time>
      </trkpt>
      <trkpt lat="40.580593" lon="-6.579404">
        <ele>629.716</ele>
        <time>2019-06-22T17:49:48Z</time>
      </trkpt>
      <trkpt lat="40.580523" lon="-6.579100">
        <ele>629.508</ele>
        <time>2019-06-22T17:49:49Z</time>
      </trkpt>
      <trkpt lat="40.580467" lon="-6.578787">
        <ele>629.587</ele>
        <time>2019-06-22T17:49:50Z</time>
      </trkpt>
      <trkpt lat="40.580392" lon="-6.578482">
        <ele>629.581</ele>
        <time>2019-06-22T17:49:51Z</time>
      </trkpt>
      <trkpt lat="40.580321" lon="-6.578161">
        <ele>629.563</ele>
        <time>2019-06-22T17:49:52Z</time>
      </trkpt>
      <trkpt lat="40.580237" lon="-6.577852">
        <ele>630.235</ele>
        <time>2019-06-22T17:49:53Z</time>
      </trkpt>
      <trkpt lat="40.580168" lon="-6.577545">
        <ele>631.153</ele>
        <time>2019-06-22T17:49:54Z</time>
      </trkpt>
      <trkpt lat="40.580092" lon="-6.577244">
        <ele>631.862</ele>
        <time>2019-06-22T17:49:55Z</time>
      </trkpt>
      <trkpt lat="40.580019" lon="-6.576935">
        <ele>632.947</ele>
        <time>2019-06-22T17:49:56Z</time>
      </trkpt>
      <trkpt lat="40.579944" lon="-6.576627">
        <ele>633.860</ele>
        <time>2019-06-22T17:49:57Z</time>
      </trkpt>
      <trkpt lat="40.579870" lon="-6.576323">
        <ele>634.758</ele>
        <time>2019-06-22T17:49:58Z</time>
      </trkpt>
      <trkpt lat="40.579802" lon="-6.576024">
        <ele>635.052</ele>
        <time>2019-06-22T17:49:59Z</time>
      </trkpt>
      <trkpt lat="40.579726" lon="-6.575711">
        <ele>635.617</ele>
        <time>2019-06-22T17:50:00Z</time>
      </trkpt>
      <trkpt lat="40.579659" lon="-6.575415">
        <ele>636.708</ele>
        <time>2019-06-22T17:50:01Z</time>
      </trkpt>
      <trkpt lat="40.579590" lon="-6.575108">
        <ele>638.898</ele>
        <time>2019-06-22T17:50:02Z</time>
      </trkpt>
      <trkpt lat="40.579516" lon="-6.574798">
        <ele>640.782</ele>
        <time>2019-06-22T17:50:03Z</time>
      </trkpt>
      <trkpt lat="40.579449" lon="-6.574480">
        <ele>641.114</ele>
        <time>2019-06-22T17:50:04Z</time>
      </trkpt>
      <trkpt lat="40.579380" lon="-6.574187">
        <ele>642.386</ele>
        <time>2019-06-22T17:50:05Z</time>
      </trkpt>
      <trkpt lat="40.579309" lon="-6.573870">
        <ele>642.324</ele>
        <time>2019-06-22T17:50:06Z</time>
      </trkpt>
      <trkpt lat="40.579241" lon="-6.573560">
        <ele>641.853</ele>
        <time>2019-06-22T17:50:07Z</time>
      </trkpt>
      <trkpt lat="40.579165" lon="-6.573251">
        <ele>641.878</ele>
        <time>2019-06-22T17:50:08Z</time>
      </trkpt>
      <trkpt lat="40.579092" lon="-6.572938">
        <ele>641.811</ele>
        <time>2019-06-22T17:50:09Z</time>
      </trkpt>
      <trkpt lat="40.579017" lon="-6.572637">
        <ele>642.076</ele>
        <time>2019-06-22T17:50:10Z</time>
      </trkpt>
      <trkpt lat="40.578938" lon="-6.572323">
        <ele>642.990</ele>
        <time>2019-06-22T17:50:11Z</time>
      </trkpt>
      <trkpt lat="40.578879" lon="-6.572014">
        <ele>643.719</ele>
        <time>2019-06-22T17:50:12Z</time>
      </trkpt>
      <trkpt lat="40.578807" lon="-6.571708">
        <ele>644.408</ele>
        <time>2019-06-22T17:50:13Z</time>
      </trkpt>
      <trkpt lat="40.578742" lon="-6.571394">
        <ele>645.490</ele>
        <time>2019-06-22T17:50:14Z</time>
      </trkpt>
      <trkpt lat="40.578676" lon="-6.571093">
        <ele>646.464</ele>
        <time>2019-06-22T17:50:15Z</time>
      </trkpt>
      <trkpt lat="40.578605" lon="-6.570786">
        <ele>646.856</ele>
        <time>2019-06-22T17:50:16Z</time>
      </trkpt>
      <trkpt lat="40.578535" lon="-6.570479">
        <ele>647.428</ele>
        <time>2019-06-22T17:50:17Z</time>
      </trkpt>
      <trkpt lat="40.578463" lon="-6.570176">
        <ele>647.456</ele>
        <time>2019-06-22T17:50:18Z</time>
      </trkpt>
      <trkpt lat="40.578404" lon="-6.569906">
        <ele>647.295</ele>
        <time>2019-06-22T17:50:19Z</time>
      </trkpt>
      <trkpt lat="40.578329" lon="-6.569620">
        <ele>645.620</ele>
        <time>2019-06-22T17:50:20Z</time>
      </trkpt>
      <trkpt lat="40.578254" lon="-6.569350">
        <ele>644.023</ele>
        <time>2019-06-22T17:50:21Z</time>
      </trkpt>
      <trkpt lat="40.578187" lon="-6.569077">
        <ele>642.498</ele>
        <time>2019-06-22T17:50:22Z</time>
      </trkpt>
      <trkpt lat="40.578124" lon="-6.568817">
        <ele>642.015</ele>
        <time>2019-06-22T17:50:23Z</time>
      </trkpt>
      <trkpt lat="40.578072" lon="-6.568567">
        <ele>642.026</ele>
        <time>2019-06-22T17:50:24Z</time>
      </trkpt>
      <trkpt lat="40.578019" lon="-6.568336">
        <ele>642.208</ele>
        <time>2019-06-22T17:50:25Z</time>
      </trkpt>
      <trkpt lat="40.577982" lon="-6.568132">
        <ele>643.712</ele>
        <time>2019-06-22T17:50:26Z</time>
      </trkpt>
      <trkpt lat="40.577951" lon="-6.567924">
        <ele>645.486</ele>
        <time>2019-06-22T17:50:27Z</time>
      </trkpt>
      <trkpt lat="40.577946" lon="-6.567731">
        <ele>646.798</ele>
        <time>2019-06-22T17:50:28Z</time>
      </trkpt>
      <trkpt lat="40.577966" lon="-6.567562">
        <ele>648.380</ele>
        <time>2019-06-22T17:50:29Z</time>
      </trkpt>
      <trkpt lat="40.577999" lon="-6.567359">
        <ele>650.718</ele>
        <time>2019-06-22T17:50:30Z</time>
      </trkpt>
      <trkpt lat="40.578053" lon="-6.567188">
        <ele>652.567</ele>
        <time>2019-06-22T17:50:31Z</time>
      </trkpt>
      <trkpt lat="40.578115" lon="-6.566994">
        <ele>654.532</ele>
        <time>2019-06-22T17:50:32Z</time>
      </trkpt>
      <trkpt lat="40.578210" lon="-6.566855">
        <ele>655.745</ele>
        <time>2019-06-22T17:50:33Z</time>
      </trkpt>
      <trkpt lat="40.578320" lon="-6.566715">
        <ele>656.113</ele>
        <time>2019-06-22T17:50:34Z</time>
      </trkpt>
      <trkpt lat="40.578440" lon="-6.566577">
        <ele>656.543</ele>
        <time>2019-06-22T17:50:35Z</time>
      </trkpt>
      <trkpt lat="40.578556" lon="-6.566455">
        <ele>657.007</ele>
        <time>2019-06-22T17:50:36Z</time>
      </trkpt>
      <trkpt lat="40.578688" lon="-6.566330">
        <ele>657.208</ele>
        <time>2019-06-22T17:50:37Z</time>
      </trkpt>
      <trkpt lat="40.578800" lon="-6.566204">
        <ele>657.264</ele>
        <time>2019-06-22T17:50:38Z</time>
      </trkpt>
      <trkpt lat="40.578890" lon="-6.566068">
        <ele>657.418</ele>
        <time>2019-06-22T17:50:39Z</time>
      </trkpt>
      <trkpt lat="40.578961" lon="-6.565921">
        <ele>657.590</ele>
        <time>2019-06-22T17:50:40Z</time>
      </trkpt>
      <trkpt lat="40.579000" lon="-6.565766">
        <ele>657.552</ele>
        <time>2019-06-22T17:50:41Z</time>
      </trkpt>
      <trkpt lat="40.579014" lon="-6.565607">
        <ele>657.570</ele>
        <time>2019-06-22T17:50:42Z</time>
      </trkpt>
      <trkpt lat="40.579013" lon="-6.565441">
        <ele>657.529</ele>
        <time>2019-06-22T17:50:43Z</time>
      </trkpt>
      <trkpt lat="40.578995" lon="-6.565290">
        <ele>657.444</ele>
        <time>2019-06-22T17:50:44Z</time>
      </trkpt>
      <trkpt lat="40.578957" lon="-6.565190">
        <ele>657.447</ele>
        <time>2019-06-22T17:50:45Z</time>
      </trkpt>
      <trkpt lat="40.578922" lon="-6.565113">
        <ele>657.658</ele>
        <time>2019-06-22T17:50:46Z</time>
      </trkpt>
      <trkpt lat="40.578882" lon="-6.565068">
        <ele>657.652</ele>
        <time>2019-06-22T17:50:47Z</time>
      </trkpt>
      <trkpt lat="40.578845" lon="-6.565000">
        <ele>661.717</ele>
        <time>2019-06-22T17:50:54Z</time>
      </trkpt>
      <trkpt lat="40.578842" lon="-6.564913">
        <ele>661.908</ele>
        <time>2019-06-22T17:50:55Z</time>
      </trkpt>
      <trkpt lat="40.578857" lon="-6.564804">
        <ele>661.968</ele>
        <time>2019-06-22T17:50:56Z</time>
      </trkpt>
      <trkpt lat="40.578884" lon="-6.564678">
        <ele>661.752</ele>
        <time>2019-06-22T17:50:57Z</time>
      </trkpt>
      <trkpt lat="40.578913" lon="-6.564532">
        <ele>661.344</ele>
        <time>2019-06-22T17:50:58Z</time>
      </trkpt>
      <trkpt lat="40.578927" lon="-6.564364">
        <ele>660.726</ele>
        <time>2019-06-22T17:50:59Z</time>
      </trkpt>
      <trkpt lat="40.578925" lon="-6.564171">
        <ele>659.884</ele>
        <time>2019-06-22T17:51:00Z</time>
      </trkpt>
      <trkpt lat="40.578916" lon="-6.563964">
        <ele>659.123</ele>
        <time>2019-06-22T17:51:01Z</time>
      </trkpt>
      <trkpt lat="40.578896" lon="-6.563750">
        <ele>657.888</ele>
        <time>2019-06-22T17:51:02Z</time>
      </trkpt>
      <trkpt lat="40.578863" lon="-6.563547">
        <ele>656.611</ele>
        <time>2019-06-22T17:51:03Z</time>
      </trkpt>
      <trkpt lat="40.578826" lon="-6.563335">
        <ele>655.338</ele>
        <time>2019-06-22T17:51:04Z</time>
      </trkpt>
      <trkpt lat="40.578787" lon="-6.563095">
        <ele>654.570</ele>
        <time>2019-06-22T17:51:05Z</time>
      </trkpt>
      <trkpt lat="40.578757" lon="-6.562853">
        <ele>653.517</ele>
        <time>2019-06-22T17:51:06Z</time>
      </trkpt>
      <trkpt lat="40.578720" lon="-6.562602">
        <ele>652.308</ele>
        <time>2019-06-22T17:51:07Z</time>
      </trkpt>
      <trkpt lat="40.578682" lon="-6.562356">
        <ele>651.456</ele>
        <time>2019-06-22T17:51:08Z</time>
      </trkpt>
      <trkpt lat="40.578667" lon="-6.562092">
        <ele>649.850</ele>
        <time>2019-06-22T17:51:09Z</time>
      </trkpt>
      <trkpt lat="40.578645" lon="-6.561897">
        <ele>648.112</ele>
        <time>2019-06-22T17:51:10Z</time>
      </trkpt>
      <trkpt lat="40.578652" lon="-6.561668">
        <ele>647.344</ele>
        <time>2019-06-22T17:51:11Z</time>
      </trkpt>
      <trkpt lat="40.578686" lon="-6.561365">
        <ele>647.322</ele>
        <time>2019-06-22T17:51:12Z</time>
      </trkpt>
      <trkpt lat="40.578739" lon="-6.561117">
        <ele>646.411</ele>
        <time>2019-06-22T17:51:13Z</time>
      </trkpt>
      <trkpt lat="40.578805" lon="-6.560855">
        <ele>646.156</ele>
        <time>2019-06-22T17:51:14Z</time>
      </trkpt>
      <trkpt lat="40.578893" lon="-6.560602">
        <ele>646.189</ele>
        <time>2019-06-22T17:51:15Z</time>
      </trkpt>
      <trkpt lat="40.579000" lon="-6.560380">
        <ele>645.814</ele>
        <time>2019-06-22T17:51:16Z</time>
      </trkpt>
      <trkpt lat="40.579117" lon="-6.560138">
        <ele>645.254</ele>
        <time>2019-06-22T17:51:17Z</time>
      </trkpt>
      <trkpt lat="40.579239" lon="-6.559898">
        <ele>644.309</ele>
        <time>2019-06-22T17:51:18Z</time>
      </trkpt>
      <trkpt lat="40.579359" lon="-6.559657">
        <ele>643.008</ele>
        <time>2019-06-22T17:51:19Z</time>
      </trkpt>
      <trkpt lat="40.579479" lon="-6.559422">
        <ele>641.894</ele>
        <time>2019-06-22T17:51:20Z</time>
      </trkpt>
      <trkpt lat="40.579596" lon="-6.559174">
        <ele>640.498</ele>
        <time>2019-06-22T17:51:21Z</time>
      </trkpt>
      <trkpt lat="40.579728" lon="-6.558923">
        <ele>638.980</ele>
        <time>2019-06-22T17:51:22Z</time>
      </trkpt>
      <trkpt lat="40.579857" lon="-6.558669">
        <ele>638.312</ele>
        <time>2019-06-22T17:51:23Z</time>
      </trkpt>
      <trkpt lat="40.579988" lon="-6.558404">
        <ele>638.090</ele>
        <time>2019-06-22T17:51:24Z</time>
      </trkpt>
      <trkpt lat="40.580117" lon="-6.558143">
        <ele>637.529</ele>
        <time>2019-06-22T17:51:25Z</time>
      </trkpt>
      <trkpt lat="40.580246" lon="-6.557897">
        <ele>636.624</ele>
        <time>2019-06-22T17:51:26Z</time>
      </trkpt>
      <trkpt lat="40.580368" lon="-6.557645">
        <ele>635.437</ele>
        <time>2019-06-22T17:51:27Z</time>
      </trkpt>
      <trkpt lat="40.580474" lon="-6.557402">
        <ele>634.478</ele>
        <time>2019-06-22T17:51:28Z</time>
      </trkpt>
      <trkpt lat="40.580587" lon="-6.557202">
        <ele>633.433</ele>
        <time>2019-06-22T17:51:29Z</time>
      </trkpt>
      <trkpt lat="40.580700" lon="-6.556978">
        <ele>632.326</ele>
        <time>2019-06-22T17:51:30Z</time>
      </trkpt>
      <trkpt lat="40.580807" lon="-6.556753">
        <ele>631.308</ele>
        <time>2019-06-22T17:51:31Z</time>
      </trkpt>
      <trkpt lat="40.580910" lon="-6.556547">
        <ele>631.060</ele>
        <time>2019-06-22T17:51:32Z</time>
      </trkpt>
      <trkpt lat="40.581011" lon="-6.556346">
        <ele>630.984</ele>
        <time>2019-06-22T17:51:33Z</time>
      </trkpt>
      <trkpt lat="40.581113" lon="-6.556151">
        <ele>630.936</ele>
        <time>2019-06-22T17:51:34Z</time>
      </trkpt>
      <trkpt lat="40.581218" lon="-6.555944">
        <ele>631.168</ele>
        <time>2019-06-22T17:51:35Z</time>
      </trkpt>
      <trkpt lat="40.581320" lon="-6.555722">
        <ele>631.556</ele>
        <time>2019-06-22T17:51:36Z</time>
      </trkpt>
      <trkpt lat="40.581436" lon="-6.555504">
        <ele>631.735</ele>
        <time>2019-06-22T17:51:37Z</time>
      </trkpt>
      <trkpt lat="40.581555" lon="-6.555286">
        <ele>631.950</ele>
        <time>2019-06-22T17:51:38Z</time>
      </trkpt>
      <trkpt lat="40.581685" lon="-6.555050">
        <ele>631.963</ele>
        <time>2019-06-22T17:51:39Z</time>
      </trkpt>
      <trkpt lat="40.581804" lon="-6.554801">
        <ele>632.295</ele>
        <time>2019-06-22T17:51:40Z</time>
      </trkpt>
      <trkpt lat="40.581926" lon="-6.554546">
        <ele>632.249</ele>
        <time>2019-06-22T17:51:41Z</time>
      </trkpt>
      <trkpt lat="40.582051" lon="-6.554285">
        <ele>631.923</ele>
        <time>2019-06-22T17:51:42Z</time>
      </trkpt>
      <trkpt lat="40.582182" lon="-6.554021">
        <ele>631.808</ele>
        <time>2019-06-22T17:51:43Z</time>
      </trkpt>
      <trkpt lat="40.582315" lon="-6.553759">
        <ele>631.482</ele>
        <time>2019-06-22T17:51:44Z</time>
      </trkpt>
      <trkpt lat="40.582444" lon="-6.553502">
        <ele>630.966</ele>
        <time>2019-06-22T17:51:45Z</time>
      </trkpt>
      <trkpt lat="40.582583" lon="-6.553229">
        <ele>630.618</ele>
        <time>2019-06-22T17:51:46Z</time>
      </trkpt>
      <trkpt lat="40.582730" lon="-6.552974">
        <ele>630.650</ele>
        <time>2019-06-22T17:51:47Z</time>
      </trkpt>
      <trkpt lat="40.582877" lon="-6.552735">
        <ele>630.648</ele>
        <time>2019-06-22T17:51:48Z</time>
      </trkpt>
      <trkpt lat="40.583032" lon="-6.552507">
        <ele>630.627</ele>
        <time>2019-06-22T17:51:49Z</time>
      </trkpt>
      <trkpt lat="40.583200" lon="-6.552272">
        <ele>630.682</ele>
        <time>2019-06-22T17:51:50Z</time>
      </trkpt>
      <trkpt lat="40.583379" lon="-6.552051">
        <ele>630.815</ele>
        <time>2019-06-22T17:51:51Z</time>
      </trkpt>
      <trkpt lat="40.583582" lon="-6.551840">
        <ele>630.869</ele>
        <time>2019-06-22T17:51:52Z</time>
      </trkpt>
      <trkpt lat="40.583780" lon="-6.551635">
        <ele>630.704</ele>
        <time>2019-06-22T17:51:53Z</time>
      </trkpt>
      <trkpt lat="40.583982" lon="-6.551423">
        <ele>629.924</ele>
        <time>2019-06-22T17:51:54Z</time>
      </trkpt>
      <trkpt lat="40.584185" lon="-6.551229">
        <ele>628.808</ele>
        <time>2019-06-22T17:51:55Z</time>
      </trkpt>
      <trkpt lat="40.584403" lon="-6.551027">
        <ele>627.759</ele>
        <time>2019-06-22T17:51:56Z</time>
      </trkpt>
      <trkpt lat="40.584607" lon="-6.550850">
        <ele>626.753</ele>
        <time>2019-06-22T17:51:57Z</time>
      </trkpt>
      <trkpt lat="40.584810" lon="-6.550663">
        <ele>625.455</ele>
        <time>2019-06-22T17:51:58Z</time>
      </trkpt>
      <trkpt lat="40.585012" lon="-6.550484">
        <ele>624.157</ele>
        <time>2019-06-22T17:51:59Z</time>
      </trkpt>
      <trkpt lat="40.585194" lon="-6.550309">
        <ele>622.725</ele>
        <time>2019-06-22T17:52:00Z</time>
      </trkpt>
      <trkpt lat="40.585387" lon="-6.550117">
        <ele>620.724</ele>
        <time>2019-06-22T17:52:01Z</time>
      </trkpt>
      <trkpt lat="40.585574" lon="-6.549928">
        <ele>619.389</ele>
        <time>2019-06-22T17:52:02Z</time>
      </trkpt>
      <trkpt lat="40.585756" lon="-6.549754">
        <ele>618.412</ele>
        <time>2019-06-22T17:52:03Z</time>
      </trkpt>
      <trkpt lat="40.585941" lon="-6.549579">
        <ele>618.472</ele>
        <time>2019-06-22T17:52:04Z</time>
      </trkpt>
      <trkpt lat="40.586125" lon="-6.549408">
        <ele>618.613</ele>
        <time>2019-06-22T17:52:05Z</time>
      </trkpt>
      <trkpt lat="40.586300" lon="-6.549233">
        <ele>619.514</ele>
        <time>2019-06-22T17:52:06Z</time>
      </trkpt>
      <trkpt lat="40.586484" lon="-6.549064">
        <ele>620.008</ele>
        <time>2019-06-22T17:52:07Z</time>
      </trkpt>
      <trkpt lat="40.586665" lon="-6.548891">
        <ele>620.110</ele>
        <time>2019-06-22T17:52:08Z</time>
      </trkpt>
      <trkpt lat="40.586842" lon="-6.548720">
        <ele>620.154</ele>
        <time>2019-06-22T17:52:09Z</time>
      </trkpt>
      <trkpt lat="40.587026" lon="-6.548550">
        <ele>619.796</ele>
        <time>2019-06-22T17:52:10Z</time>
      </trkpt>
      <trkpt lat="40.587197" lon="-6.548376">
        <ele>619.128</ele>
        <time>2019-06-22T17:52:11Z</time>
      </trkpt>
      <trkpt lat="40.587386" lon="-6.548211">
        <ele>618.436</ele>
        <time>2019-06-22T17:52:12Z</time>
      </trkpt>
      <trkpt lat="40.587566" lon="-6.548055">
        <ele>618.315</ele>
        <time>2019-06-22T17:52:13Z</time>
      </trkpt>
      <trkpt lat="40.587717" lon="-6.547920">
        <ele>617.690</ele>
        <time>2019-06-22T17:52:14Z</time>
      </trkpt>
      <trkpt lat="40.587844" lon="-6.547796">
        <ele>617.193</ele>
        <time>2019-06-22T17:52:15Z</time>
      </trkpt>
      <trkpt lat="40.587950" lon="-6.547701">
        <ele>616.875</ele>
        <time>2019-06-22T17:52:16Z</time>
      </trkpt>
      <trkpt lat="40.588032" lon="-6.547624">
        <ele>616.828</ele>
        <time>2019-06-22T17:52:17Z</time>
      </trkpt>
      <trkpt lat="40.588095" lon="-6.547558">
        <ele>616.820</ele>
        <time>2019-06-22T17:52:18Z</time>
      </trkpt>
      <trkpt lat="40.588135" lon="-6.547502">
        <ele>617.708</ele>
        <time>2019-06-22T17:52:19Z</time>
      </trkpt>
      <trkpt lat="40.588139" lon="-6.547393">
        <ele>619.630</ele>
        <time>2019-06-22T17:52:21Z</time>
      </trkpt>
      <trkpt lat="40.588103" lon="-6.547306">
        <ele>620.234</ele>
        <time>2019-06-22T17:52:22Z</time>
      </trkpt>
      <trkpt lat="40.588062" lon="-6.547212">
        <ele>620.636</ele>
        <time>2019-06-22T17:52:23Z</time>
      </trkpt>
      <trkpt lat="40.588011" lon="-6.547096">
        <ele>620.668</ele>
        <time>2019-06-22T17:52:24Z</time>
      </trkpt>
      <trkpt lat="40.587963" lon="-6.546961">
        <ele>620.486</ele>
        <time>2019-06-22T17:52:25Z</time>
      </trkpt>
      <trkpt lat="40.587898" lon="-6.546815">
        <ele>620.245</ele>
        <time>2019-06-22T17:52:26Z</time>
      </trkpt>
      <trkpt lat="40.587837" lon="-6.546647">
        <ele>619.970</ele>
        <time>2019-06-22T17:52:27Z</time>
      </trkpt>
      <trkpt lat="40.587774" lon="-6.546475">
        <ele>619.663</ele>
        <time>2019-06-22T17:52:28Z</time>
      </trkpt>
      <trkpt lat="40.587712" lon="-6.546307">
        <ele>619.397</ele>
        <time>2019-06-22T17:52:29Z</time>
      </trkpt>
      <trkpt lat="40.587660" lon="-6.546162">
        <ele>619.223</ele>
        <time>2019-06-22T17:52:30Z</time>
      </trkpt>
      <trkpt lat="40.587609" lon="-6.546039">
        <ele>618.725</ele>
        <time>2019-06-22T17:52:31Z</time>
      </trkpt>
      <trkpt lat="40.587584" lon="-6.545936">
        <ele>618.708</ele>
        <time>2019-06-22T17:52:32Z</time>
      </trkpt>
      <trkpt lat="40.587550" lon="-6.545842">
        <ele>618.822</ele>
        <time>2019-06-22T17:52:33Z</time>
      </trkpt>
      <trkpt lat="40.587534" lon="-6.545777">
        <ele>619.756</ele>
        <time>2019-06-22T17:52:35Z</time>
      </trkpt>
      <trkpt lat="40.587482" lon="-6.545674">
        <ele>620.988</ele>
        <time>2019-06-22T17:52:38Z</time>
      </trkpt>
      <trkpt lat="40.587448" lon="-6.545562">
        <ele>620.710</ele>
        <time>2019-06-22T17:52:39Z</time>
      </trkpt>
      <trkpt lat="40.587401" lon="-6.545448">
        <ele>620.238</ele>
        <time>2019-06-22T17:52:40Z</time>
      </trkpt>
      <trkpt lat="40.587339" lon="-6.545328">
        <ele>619.757</ele>
        <time>2019-06-22T17:52:41Z</time>
      </trkpt>
      <trkpt lat="40.587291" lon="-6.545200">
        <ele>619.422</ele>
        <time>2019-06-22T17:52:42Z</time>
      </trkpt>
      <trkpt lat="40.587237" lon="-6.545028">
        <ele>618.955</ele>
        <time>2019-06-22T17:52:43Z</time>
      </trkpt>
      <trkpt lat="40.587178" lon="-6.544863">
        <ele>618.893</ele>
        <time>2019-06-22T17:52:44Z</time>
      </trkpt>
      <trkpt lat="40.587133" lon="-6.544685">
        <ele>618.865</ele>
        <time>2019-06-22T17:52:45Z</time>
      </trkpt>
      <trkpt lat="40.587062" lon="-6.544513">
        <ele>618.721</ele>
        <time>2019-06-22T17:52:46Z</time>
      </trkpt>
      <trkpt lat="40.586991" lon="-6.544328">
        <ele>618.308</ele>
        <time>2019-06-22T17:52:47Z</time>
      </trkpt>
      <trkpt lat="40.586924" lon="-6.544145">
        <ele>618.292</ele>
        <time>2019-06-22T17:52:48Z</time>
      </trkpt>
      <trkpt lat="40.586854" lon="-6.543961">
        <ele>617.856</ele>
        <time>2019-06-22T17:52:49Z</time>
      </trkpt>
      <trkpt lat="40.586789" lon="-6.543765">
        <ele>617.528</ele>
        <time>2019-06-22T17:52:50Z</time>
      </trkpt>
      <trkpt lat="40.586724" lon="-6.543571">
        <ele>617.540</ele>
        <time>2019-06-22T17:52:51Z</time>
      </trkpt>
      <trkpt lat="40.586663" lon="-6.543380">
        <ele>617.488</ele>
        <time>2019-06-22T17:52:52Z</time>
      </trkpt>
      <trkpt lat="40.586588" lon="-6.543177">
        <ele>617.437</ele>
        <time>2019-06-22T17:52:53Z</time>
      </trkpt>
      <trkpt lat="40.586513" lon="-6.542966">
        <ele>617.652</ele>
        <time>2019-06-22T17:52:54Z</time>
      </trkpt>
      <trkpt lat="40.586445" lon="-6.542765">
        <ele>618.255</ele>
        <time>2019-06-22T17:52:55Z</time>
      </trkpt>
      <trkpt lat="40.586374" lon="-6.542559">
        <ele>618.637</ele>
        <time>2019-06-22T17:52:56Z</time>
      </trkpt>
      <trkpt lat="40.586301" lon="-6.542351">
        <ele>618.849</ele>
        <time>2019-06-22T17:52:57Z</time>
      </trkpt>
      <trkpt lat="40.586228" lon="-6.542135">
        <ele>619.113</ele>
        <time>2019-06-22T17:52:58Z</time>
      </trkpt>
      <trkpt lat="40.586170" lon="-6.541927">
        <ele>619.108</ele>
        <time>2019-06-22T17:52:59Z</time>
      </trkpt>
      <trkpt lat="40.586100" lon="-6.541742">
        <ele>619.156</ele>
        <time>2019-06-22T17:53:00Z</time>
      </trkpt>
      <trkpt lat="40.586043" lon="-6.541577">
        <ele>618.580</ele>
        <time>2019-06-22T17:53:01Z</time>
      </trkpt>
      <trkpt lat="40.585984" lon="-6.541396">
        <ele>618.362</ele>
        <time>2019-06-22T17:53:02Z</time>
      </trkpt>
      <trkpt lat="40.585932" lon="-6.541201">
        <ele>617.934</ele>
        <time>2019-06-22T17:53:03Z</time>
      </trkpt>
      <trkpt lat="40.585876" lon="-6.540995">
        <ele>617.652</ele>
        <time>2019-06-22T17:53:04Z</time>
      </trkpt>
      <trkpt lat="40.585823" lon="-6.540807">
        <ele>617.021</ele>
        <time>2019-06-22T17:53:05Z</time>
      </trkpt>
      <trkpt lat="40.585776" lon="-6.540621">
        <ele>616.786</ele>
        <time>2019-06-22T17:53:06Z</time>
      </trkpt>
      <trkpt lat="40.585722" lon="-6.540446">
        <ele>616.689</ele>
        <time>2019-06-22T17:53:07Z</time>
      </trkpt>
      <trkpt lat="40.585666" lon="-6.540271">
        <ele>616.433</ele>
        <time>2019-06-22T17:53:08Z</time>
      </trkpt>
      <trkpt lat="40.585615" lon="-6.540101">
        <ele>616.423</ele>
        <time>2019-06-22T17:53:09Z</time>
      </trkpt>
      <trkpt lat="40.585566" lon="-6.539937">
        <ele>617.115</ele>
        <time>2019-06-22T17:53:10Z</time>
      </trkpt>
      <trkpt lat="40.585509" lon="-6.539752">
        <ele>617.908</ele>
        <time>2019-06-22T17:53:11Z</time>
      </trkpt>
      <trkpt lat="40.585453" lon="-6.539560">
        <ele>618.376</ele>
        <time>2019-06-22T17:53:12Z</time>
      </trkpt>
      <trkpt lat="40.585400" lon="-6.539375">
        <ele>618.670</ele>
        <time>2019-06-22T17:53:13Z</time>
      </trkpt>
      <trkpt lat="40.585339" lon="-6.539186">
        <ele>618.592</ele>
        <time>2019-06-22T17:53:14Z</time>
      </trkpt>
      <trkpt lat="40.585296" lon="-6.538989">
        <ele>618.624</ele>
        <time>2019-06-22T17:53:15Z</time>
      </trkpt>
      <trkpt lat="40.585269" lon="-6.538800">
        <ele>618.582</ele>
        <time>2019-06-22T17:53:16Z</time>
      </trkpt>
      <trkpt lat="40.585272" lon="-6.538614">
        <ele>618.681</ele>
        <time>2019-06-22T17:53:17Z</time>
      </trkpt>
      <trkpt lat="40.585277" lon="-6.538425">
        <ele>619.516</ele>
        <time>2019-06-22T17:53:18Z</time>
      </trkpt>
      <trkpt lat="40.585274" lon="-6.538241">
        <ele>619.949</ele>
        <time>2019-06-22T17:53:19Z</time>
      </trkpt>
      <trkpt lat="40.585298" lon="-6.538074">
        <ele>620.264</ele>
        <time>2019-06-22T17:53:20Z</time>
      </trkpt>
      <trkpt lat="40.585302" lon="-6.537938">
        <ele>621.106</ele>
        <time>2019-06-22T17:53:21Z</time>
      </trkpt>
      <trkpt lat="40.585321" lon="-6.537824">
        <ele>621.716</ele>
        <time>2019-06-22T17:53:22Z</time>
      </trkpt>
      <trkpt lat="40.585320" lon="-6.537718">
        <ele>622.608</ele>
        <time>2019-06-22T17:53:23Z</time>
      </trkpt>
      <trkpt lat="40.585308" lon="-6.537644">
        <ele>623.959</ele>
        <time>2019-06-22T17:53:24Z</time>
      </trkpt>
      <trkpt lat="40.585280" lon="-6.537554">
        <ele>626.393</ele>
        <time>2019-06-22T17:53:26Z</time>
      </trkpt>
      <trkpt lat="40.585195" lon="-6.537511">
        <ele>628.495</ele>
        <time>2019-06-22T17:53:28Z</time>
      </trkpt>
      <trkpt lat="40.585124" lon="-6.537502">
        <ele>628.937</ele>
        <time>2019-06-22T17:53:29Z</time>
      </trkpt>
      <trkpt lat="40.585054" lon="-6.537521">
        <ele>629.125</ele>
        <time>2019-06-22T17:53:30Z</time>
      </trkpt>
      <trkpt lat="40.584940" lon="-6.537523">
        <ele>629.134</ele>
        <time>2019-06-22T17:53:31Z</time>
      </trkpt>
      <trkpt lat="40.584828" lon="-6.537512">
        <ele>629.099</ele>
        <time>2019-06-22T17:53:32Z</time>
      </trkpt>
      <trkpt lat="40.584693" lon="-6.537514">
        <ele>628.712</ele>
        <time>2019-06-22T17:53:33Z</time>
      </trkpt>
      <trkpt lat="40.584545" lon="-6.537506">
        <ele>628.513</ele>
        <time>2019-06-22T17:53:34Z</time>
      </trkpt>
      <trkpt lat="40.584382" lon="-6.537502">
        <ele>628.543</ele>
        <time>2019-06-22T17:53:35Z</time>
      </trkpt>
      <trkpt lat="40.584216" lon="-6.537488">
        <ele>627.607</ele>
        <time>2019-06-22T17:53:36Z</time>
      </trkpt>
      <trkpt lat="40.584046" lon="-6.537498">
        <ele>627.208</ele>
        <time>2019-06-22T17:53:37Z</time>
      </trkpt>
      <trkpt lat="40.583870" lon="-6.537498">
        <ele>626.764</ele>
        <time>2019-06-22T17:53:38Z</time>
      </trkpt>
      <trkpt lat="40.583692" lon="-6.537500">
        <ele>626.378</ele>
        <time>2019-06-22T17:53:39Z</time>
      </trkpt>
      <trkpt lat="40.583518" lon="-6.537498">
        <ele>625.530</ele>
        <time>2019-06-22T17:53:40Z</time>
      </trkpt>
      <trkpt lat="40.583329" lon="-6.537501">
        <ele>624.622</ele>
        <time>2019-06-22T17:53:41Z</time>
      </trkpt>
      <trkpt lat="40.583132" lon="-6.537506">
        <ele>623.920</ele>
        <time>2019-06-22T17:53:42Z</time>
      </trkpt>
      <trkpt lat="40.582939" lon="-6.537497">
        <ele>623.779</ele>
        <time>2019-06-22T17:53:43Z</time>
      </trkpt>
      <trkpt lat="40.582735" lon="-6.537498">
        <ele>623.484</ele>
        <time>2019-06-22T17:53:44Z</time>
      </trkpt>
      <trkpt lat="40.582540" lon="-6.537503">
        <ele>623.467</ele>
        <time>2019-06-22T17:53:45Z</time>
      </trkpt>
      <trkpt lat="40.582339" lon="-6.537498">
        <ele>623.586</ele>
        <time>2019-06-22T17:53:46Z</time>
      </trkpt>
      <trkpt lat="40.582132" lon="-6.537496">
        <ele>623.760</ele>
        <time>2019-06-22T17:53:47Z</time>
      </trkpt>
      <trkpt lat="40.581927" lon="-6.537499">
        <ele>623.726</ele>
        <time>2019-06-22T17:53:48Z</time>
      </trkpt>
      <trkpt lat="40.581708" lon="-6.537501">
        <ele>623.708</ele>
        <time>2019-06-22T17:53:49Z</time>
      </trkpt>
      <trkpt lat="40.581488" lon="-6.537500">
        <ele>623.761</ele>
        <time>2019-06-22T17:53:50Z</time>
      </trkpt>
      <trkpt lat="40.581265" lon="-6.537506">
        <ele>623.725</ele>
        <time>2019-06-22T17:53:51Z</time>
      </trkpt>
      <trkpt lat="40.581051" lon="-6.537514">
        <ele>623.387</ele>
        <time>2019-06-22T17:53:52Z</time>
      </trkpt>
      <trkpt lat="40.580838" lon="-6.537524">
        <ele>623.269</ele>
        <time>2019-06-22T17:53:53Z</time>
      </trkpt>
      <trkpt lat="40.580622" lon="-6.537534">
        <ele>622.487</ele>
        <time>2019-06-22T17:53:54Z</time>
      </trkpt>
      <trkpt lat="40.580407" lon="-6.537538">
        <ele>622.496</ele>
        <time>2019-06-22T17:53:55Z</time>
      </trkpt>
      <trkpt lat="40.580191" lon="-6.537537">
        <ele>621.581</ele>
        <time>2019-06-22T17:53:56Z</time>
      </trkpt>
      <trkpt lat="40.579981" lon="-6.537539">
        <ele>621.594</ele>
        <time>2019-06-22T17:53:57Z</time>
      </trkpt>
      <trkpt lat="40.579758" lon="-6.537554">
        <ele>621.593</ele>
        <time>2019-06-22T17:53:58Z</time>
      </trkpt>
      <trkpt lat="40.579548" lon="-6.537579">
        <ele>621.565</ele>
        <time>2019-06-22T17:53:59Z</time>
      </trkpt>
      <trkpt lat="40.579350" lon="-6.537613">
        <ele>621.221</ele>
        <time>2019-06-22T17:54:00Z</time>
      </trkpt>
      <trkpt lat="40.579170" lon="-6.537682">
        <ele>620.908</ele>
        <time>2019-06-22T17:54:01Z</time>
      </trkpt>
      <trkpt lat="40.578985" lon="-6.537766">
        <ele>620.932</ele>
        <time>2019-06-22T17:54:02Z</time>
      </trkpt>
      <trkpt lat="40.578811" lon="-6.537866">
        <ele>620.136</ele>
        <time>2019-06-22T17:54:03Z</time>
      </trkpt>
      <trkpt lat="40.578640" lon="-6.537984">
        <ele>620.168</ele>
        <time>2019-06-22T17:54:04Z</time>
      </trkpt>
      <trkpt lat="40.578479" lon="-6.538126">
        <ele>620.120</ele>
        <time>2019-06-22T17:54:05Z</time>
      </trkpt>
      <trkpt lat="40.578309" lon="-6.538270">
        <ele>621.048</ele>
        <time>2019-06-22T17:54:06Z</time>
      </trkpt>
      <trkpt lat="40.578138" lon="-6.538415">
        <ele>622.257</ele>
        <time>2019-06-22T17:54:07Z</time>
      </trkpt>
      <trkpt lat="40.577966" lon="-6.538569">
        <ele>623.412</ele>
        <time>2019-06-22T17:54:08Z</time>
      </trkpt>
      <trkpt lat="40.577791" lon="-6.538713">
        <ele>624.035</ele>
        <time>2019-06-22T17:54:09Z</time>
      </trkpt>
      <trkpt lat="40.577624" lon="-6.538848">
        <ele>625.044</ele>
        <time>2019-06-22T17:54:10Z</time>
      </trkpt>
      <trkpt lat="40.577449" lon="-6.538991">
        <ele>625.005</ele>
        <time>2019-06-22T17:54:11Z</time>
      </trkpt>
      <trkpt lat="40.577275" lon="-6.539145">
        <ele>624.915</ele>
        <time>2019-06-22T17:54:12Z</time>
      </trkpt>
      <trkpt lat="40.577101" lon="-6.539297">
        <ele>624.908</ele>
        <time>2019-06-22T17:54:13Z</time>
      </trkpt>
      <trkpt lat="40.576924" lon="-6.539435">
        <ele>625.037</ele>
        <time>2019-06-22T17:54:14Z</time>
      </trkpt>
      <trkpt lat="40.576747" lon="-6.539583">
        <ele>625.011</ele>
        <time>2019-06-22T17:54:15Z</time>
      </trkpt>
      <trkpt lat="40.576566" lon="-6.539730">
        <ele>624.913</ele>
        <time>2019-06-22T17:54:16Z</time>
      </trkpt>
      <trkpt lat="40.576387" lon="-6.539886">
        <ele>624.895</ele>
        <time>2019-06-22T17:54:17Z</time>
      </trkpt>
      <trkpt lat="40.576212" lon="-6.540030">
        <ele>624.943</ele>
        <time>2019-06-22T17:54:18Z</time>
      </trkpt>
      <trkpt lat="40.576026" lon="-6.540175">
        <ele>625.032</ele>
        <time>2019-06-22T17:54:19Z</time>
      </trkpt>
      <trkpt lat="40.575845" lon="-6.540334">
        <ele>625.437</ele>
        <time>2019-06-22T17:54:20Z</time>
      </trkpt>
      <trkpt lat="40.575678" lon="-6.540474">
        <ele>626.040</ele>
        <time>2019-06-22T17:54:21Z</time>
      </trkpt>
      <trkpt lat="40.575502" lon="-6.540603">
        <ele>626.775</ele>
        <time>2019-06-22T17:54:22Z</time>
      </trkpt>
      <trkpt lat="40.575329" lon="-6.540734">
        <ele>627.128</ele>
        <time>2019-06-22T17:54:23Z</time>
      </trkpt>
      <trkpt lat="40.575150" lon="-6.540891">
        <ele>627.220</ele>
        <time>2019-06-22T17:54:24Z</time>
      </trkpt>
      <trkpt lat="40.574964" lon="-6.541046">
        <ele>627.108</ele>
        <time>2019-06-22T17:54:25Z</time>
      </trkpt>
      <trkpt lat="40.574771" lon="-6.541192">
        <ele>626.470</ele>
        <time>2019-06-22T17:54:26Z</time>
      </trkpt>
      <trkpt lat="40.574587" lon="-6.541328">
        <ele>626.124</ele>
        <time>2019-06-22T17:54:27Z</time>
      </trkpt>
      <trkpt lat="40.574416" lon="-6.541480">
        <ele>626.156</ele>
        <time>2019-06-22T17:54:28Z</time>
      </trkpt>
      <trkpt lat="40.574240" lon="-6.541642">
        <ele>627.198</ele>
        <time>2019-06-22T17:54:29Z</time>
      </trkpt>
      <trkpt lat="40.574071" lon="-6.541802">
        <ele>628.186</ele>
        <time>2019-06-22T17:54:30Z</time>
      </trkpt>
      <trkpt lat="40.573867" lon="-6.541963">
        <ele>629.285</ele>
        <time>2019-06-22T17:54:31Z</time>
      </trkpt>
      <trkpt lat="40.573679" lon="-6.542101">
        <ele>629.830</ele>
        <time>2019-06-22T17:54:32Z</time>
      </trkpt>
      <trkpt lat="40.573484" lon="-6.542262">
        <ele>629.843</ele>
        <time>2019-06-22T17:54:33Z</time>
      </trkpt>
      <trkpt lat="40.573299" lon="-6.542427">
        <ele>629.439</ele>
        <time>2019-06-22T17:54:34Z</time>
      </trkpt>
      <trkpt lat="40.573107" lon="-6.542589">
        <ele>628.101</ele>
        <time>2019-06-22T17:54:35Z</time>
      </trkpt>
      <trkpt lat="40.572919" lon="-6.542742">
        <ele>627.621</ele>
        <time>2019-06-22T17:54:36Z</time>
      </trkpt>
      <trkpt lat="40.572731" lon="-6.542885">
        <ele>627.108</ele>
        <time>2019-06-22T17:54:37Z</time>
      </trkpt>
      <trkpt lat="40.572547" lon="-6.543048">
        <ele>627.046</ele>
        <time>2019-06-22T17:54:38Z</time>
      </trkpt>
      <trkpt lat="40.572371" lon="-6.543192">
        <ele>626.670</ele>
        <time>2019-06-22T17:54:39Z</time>
      </trkpt>
      <trkpt lat="40.572192" lon="-6.543359">
        <ele>626.652</ele>
        <time>2019-06-22T17:54:40Z</time>
      </trkpt>
      <trkpt lat="40.572002" lon="-6.543501">
        <ele>626.864</ele>
        <time>2019-06-22T17:54:41Z</time>
      </trkpt>
      <trkpt lat="40.571809" lon="-6.543669">
        <ele>627.562</ele>
        <time>2019-06-22T17:54:42Z</time>
      </trkpt>
      <trkpt lat="40.571619" lon="-6.543829">
        <ele>628.361</ele>
        <time>2019-06-22T17:54:43Z</time>
      </trkpt>
      <trkpt lat="40.571430" lon="-6.543991">
        <ele>629.866</ele>
        <time>2019-06-22T17:54:44Z</time>
      </trkpt>
      <trkpt lat="40.571232" lon="-6.544153">
        <ele>632.399</ele>
        <time>2019-06-22T17:54:45Z</time>
      </trkpt>
      <trkpt lat="40.571038" lon="-6.544323">
        <ele>634.311</ele>
        <time>2019-06-22T17:54:46Z</time>
      </trkpt>
      <trkpt lat="40.570845" lon="-6.544486">
        <ele>635.421</ele>
        <time>2019-06-22T17:54:47Z</time>
      </trkpt>
      <trkpt lat="40.570646" lon="-6.544655">
        <ele>636.603</ele>
        <time>2019-06-22T17:54:48Z</time>
      </trkpt>
      <trkpt lat="40.570448" lon="-6.544808">
        <ele>636.608</ele>
        <time>2019-06-22T17:54:49Z</time>
      </trkpt>
      <trkpt lat="40.570246" lon="-6.544972">
        <ele>636.264</ele>
        <time>2019-06-22T17:54:50Z</time>
      </trkpt>
      <trkpt lat="40.570054" lon="-6.545143">
        <ele>635.788</ele>
        <time>2019-06-22T17:54:51Z</time>
      </trkpt>
      <trkpt lat="40.569857" lon="-6.545297">
        <ele>635.770</ele>
        <time>2019-06-22T17:54:52Z</time>
      </trkpt>
      <trkpt lat="40.569657" lon="-6.545473">
        <ele>635.952</ele>
        <time>2019-06-22T17:54:53Z</time>
      </trkpt>
      <trkpt lat="40.569452" lon="-6.545645">
        <ele>635.990</ele>
        <time>2019-06-22T17:54:54Z</time>
      </trkpt>
      <trkpt lat="40.569244" lon="-6.545814">
        <ele>635.989</ele>
        <time>2019-06-22T17:54:55Z</time>
      </trkpt>
      <trkpt lat="40.569039" lon="-6.545982">
        <ele>636.454</ele>
        <time>2019-06-22T17:54:56Z</time>
      </trkpt>
      <trkpt lat="40.568832" lon="-6.546158">
        <ele>636.497</ele>
        <time>2019-06-22T17:54:57Z</time>
      </trkpt>
      <trkpt lat="40.568628" lon="-6.546318">
        <ele>636.436</ele>
        <time>2019-06-22T17:54:58Z</time>
      </trkpt>
      <trkpt lat="40.568423" lon="-6.546488">
        <ele>636.417</ele>
        <time>2019-06-22T17:54:59Z</time>
      </trkpt>
      <trkpt lat="40.568220" lon="-6.546653">
        <ele>637.118</ele>
        <time>2019-06-22T17:55:00Z</time>
      </trkpt>
      <trkpt lat="40.568020" lon="-6.546822">
        <ele>639.008</ele>
        <time>2019-06-22T17:55:01Z</time>
      </trkpt>
      <trkpt lat="40.567821" lon="-6.546990">
        <ele>640.576</ele>
        <time>2019-06-22T17:55:02Z</time>
      </trkpt>
      <trkpt lat="40.567624" lon="-6.547155">
        <ele>642.240</ele>
        <time>2019-06-22T17:55:03Z</time>
      </trkpt>
      <trkpt lat="40.567423" lon="-6.547320">
        <ele>643.842</ele>
        <time>2019-06-22T17:55:04Z</time>
      </trkpt>
      <trkpt lat="40.567216" lon="-6.547484">
        <ele>643.834</ele>
        <time>2019-06-22T17:55:05Z</time>
      </trkpt>
      <trkpt lat="40.567013" lon="-6.547641">
        <ele>643.382</ele>
        <time>2019-06-22T17:55:06Z</time>
      </trkpt>
      <trkpt lat="40.566810" lon="-6.547804">
        <ele>641.491</ele>
        <time>2019-06-22T17:55:07Z</time>
      </trkpt>
      <trkpt lat="40.566605" lon="-6.547976">
        <ele>639.336</ele>
        <time>2019-06-22T17:55:08Z</time>
      </trkpt>
      <trkpt lat="40.566415" lon="-6.548120">
        <ele>638.139</ele>
        <time>2019-06-22T17:55:09Z</time>
      </trkpt>
      <trkpt lat="40.566217" lon="-6.548280">
        <ele>636.537</ele>
        <time>2019-06-22T17:55:10Z</time>
      </trkpt>
      <trkpt lat="40.566034" lon="-6.548460">
        <ele>634.949</ele>
        <time>2019-06-22T17:55:11Z</time>
      </trkpt>
      <trkpt lat="40.565855" lon="-6.548624">
        <ele>634.613</ele>
        <time>2019-06-22T17:55:12Z</time>
      </trkpt>
      <trkpt lat="40.565681" lon="-6.548806">
        <ele>634.608</ele>
        <time>2019-06-22T17:55:13Z</time>
      </trkpt>
      <trkpt lat="40.565495" lon="-6.549003">
        <ele>634.636</ele>
        <time>2019-06-22T17:55:14Z</time>
      </trkpt>
      <trkpt lat="40.565361" lon="-6.549258">
        <ele>634.890</ele>
        <time>2019-06-22T17:55:15Z</time>
      </trkpt>
      <trkpt lat="40.565221" lon="-6.549497">
        <ele>636.082</ele>
        <time>2019-06-22T17:55:16Z</time>
      </trkpt>
      <trkpt lat="40.565083" lon="-6.549745">
        <ele>637.354</ele>
        <time>2019-06-22T17:55:17Z</time>
      </trkpt>
      <trkpt lat="40.564944" lon="-6.549987">
        <ele>639.122</ele>
        <time>2019-06-22T17:55:18Z</time>
      </trkpt>
      <trkpt lat="40.564819" lon="-6.550234">
        <ele>640.521</ele>
        <time>2019-06-22T17:55:19Z</time>
      </trkpt>
      <trkpt lat="40.564691" lon="-6.550477">
        <ele>641.146</ele>
        <time>2019-06-22T17:55:20Z</time>
      </trkpt>
      <trkpt lat="40.564556" lon="-6.550740">
        <ele>641.539</ele>
        <time>2019-06-22T17:55:21Z</time>
      </trkpt>
      <trkpt lat="40.564430" lon="-6.550967">
        <ele>641.642</ele>
        <time>2019-06-22T17:55:22Z</time>
      </trkpt>
      <trkpt lat="40.564299" lon="-6.551173">
        <ele>641.622</ele>
        <time>2019-06-22T17:55:23Z</time>
      </trkpt>
      <trkpt lat="40.564156" lon="-6.551370">
        <ele>641.414</ele>
        <time>2019-06-22T17:55:24Z</time>
      </trkpt>
      <trkpt lat="40.563995" lon="-6.551552">
        <ele>641.208</ele>
        <time>2019-06-22T17:55:25Z</time>
      </trkpt>
      <trkpt lat="40.563819" lon="-6.551712">
        <ele>640.717</ele>
        <time>2019-06-22T17:55:26Z</time>
      </trkpt>
      <trkpt lat="40.563631" lon="-6.551863">
        <ele>640.191</ele>
        <time>2019-06-22T17:55:27Z</time>
      </trkpt>
      <trkpt lat="40.563432" lon="-6.552003">
        <ele>639.743</ele>
        <time>2019-06-22T17:55:28Z</time>
      </trkpt>
      <trkpt lat="40.563229" lon="-6.552125">
        <ele>638.595</ele>
        <time>2019-06-22T17:55:29Z</time>
      </trkpt>
      <trkpt lat="40.563018" lon="-6.552244">
        <ele>636.973</ele>
        <time>2019-06-22T17:55:30Z</time>
      </trkpt>
      <trkpt lat="40.562805" lon="-6.552356">
        <ele>635.852</ele>
        <time>2019-06-22T17:55:31Z</time>
      </trkpt>
      <trkpt lat="40.562588" lon="-6.552465">
        <ele>634.997</ele>
        <time>2019-06-22T17:55:32Z</time>
      </trkpt>
      <trkpt lat="40.562365" lon="-6.552576">
        <ele>633.620</ele>
        <time>2019-06-22T17:55:33Z</time>
      </trkpt>
      <trkpt lat="40.562156" lon="-6.552672">
        <ele>632.778</ele>
        <time>2019-06-22T17:55:34Z</time>
      </trkpt>
      <trkpt lat="40.561937" lon="-6.552787">
        <ele>632.333</ele>
        <time>2019-06-22T17:55:35Z</time>
      </trkpt>
      <trkpt lat="40.561719" lon="-6.552911">
        <ele>631.526</ele>
        <time>2019-06-22T17:55:36Z</time>
      </trkpt>
      <trkpt lat="40.561499" lon="-6.553029">
        <ele>630.208</ele>
        <time>2019-06-22T17:55:37Z</time>
      </trkpt>
      <trkpt lat="40.561270" lon="-6.553163">
        <ele>630.180</ele>
        <time>2019-06-22T17:55:38Z</time>
      </trkpt>
      <trkpt lat="40.561052" lon="-6.553281">
        <ele>629.784</ele>
        <time>2019-06-22T17:55:39Z</time>
      </trkpt>
      <trkpt lat="40.560832" lon="-6.553388">
        <ele>629.576</ele>
        <time>2019-06-22T17:55:40Z</time>
      </trkpt>
      <trkpt lat="40.560606" lon="-6.553504">
        <ele>629.488</ele>
        <time>2019-06-22T17:55:41Z</time>
      </trkpt>
      <trkpt lat="40.560382" lon="-6.553630">
        <ele>628.846</ele>
        <time>2019-06-22T17:55:42Z</time>
      </trkpt>
      <trkpt lat="40.560163" lon="-6.553744">
        <ele>628.415</ele>
        <time>2019-06-22T17:55:43Z</time>
      </trkpt>
      <trkpt lat="40.559946" lon="-6.553859">
        <ele>628.490</ele>
        <time>2019-06-22T17:55:44Z</time>
      </trkpt>
      <trkpt lat="40.559726" lon="-6.553975">
        <ele>629.163</ele>
        <time>2019-06-22T17:55:45Z</time>
      </trkpt>
      <trkpt lat="40.559521" lon="-6.554090">
        <ele>629.617</ele>
        <time>2019-06-22T17:55:46Z</time>
      </trkpt>
      <trkpt lat="40.559308" lon="-6.554199">
        <ele>630.287</ele>
        <time>2019-06-22T17:55:47Z</time>
      </trkpt>
      <trkpt lat="40.559101" lon="-6.554292">
        <ele>631.115</ele>
        <time>2019-06-22T17:55:48Z</time>
      </trkpt>
      <trkpt lat="40.558876" lon="-6.554383">
        <ele>632.308</ele>
        <time>2019-06-22T17:55:49Z</time>
      </trkpt>
      <trkpt lat="40.558657" lon="-6.554432">
        <ele>632.394</ele>
        <time>2019-06-22T17:55:50Z</time>
      </trkpt>
      <trkpt lat="40.558429" lon="-6.554489">
        <ele>632.698</ele>
        <time>2019-06-22T17:55:51Z</time>
      </trkpt>
      <trkpt lat="40.558192" lon="-6.554539">
        <ele>633.460</ele>
        <time>2019-06-22T17:55:52Z</time>
      </trkpt>
      <trkpt lat="40.557971" lon="-6.554570">
        <ele>634.082</ele>
        <time>2019-06-22T17:55:53Z</time>
      </trkpt>
      <trkpt lat="40.557741" lon="-6.554605">
        <ele>634.270</ele>
        <time>2019-06-22T17:55:54Z</time>
      </trkpt>
      <trkpt lat="40.557519" lon="-6.554663">
        <ele>634.239</ele>
        <time>2019-06-22T17:55:55Z</time>
      </trkpt>
      <trkpt lat="40.557295" lon="-6.554734">
        <ele>634.234</ele>
        <time>2019-06-22T17:55:56Z</time>
      </trkpt>
      <trkpt lat="40.557071" lon="-6.554822">
        <ele>633.887</ele>
        <time>2019-06-22T17:55:57Z</time>
      </trkpt>
      <trkpt lat="40.556846" lon="-6.554915">
        <ele>633.452</ele>
        <time>2019-06-22T17:55:58Z</time>
      </trkpt>
      <trkpt lat="40.556634" lon="-6.555002">
        <ele>633.353</ele>
        <time>2019-06-22T17:55:59Z</time>
      </trkpt>
      <trkpt lat="40.556425" lon="-6.555128">
        <ele>633.408</ele>
        <time>2019-06-22T17:56:00Z</time>
      </trkpt>
      <trkpt lat="40.556212" lon="-6.555268">
        <ele>633.708</ele>
        <time>2019-06-22T17:56:01Z</time>
      </trkpt>
      <trkpt lat="40.556016" lon="-6.555408">
        <ele>633.768</ele>
        <time>2019-06-22T17:56:02Z</time>
      </trkpt>
      <trkpt lat="40.555808" lon="-6.555548">
        <ele>636.112</ele>
        <time>2019-06-22T17:56:03Z</time>
      </trkpt>
      <trkpt lat="40.555596" lon="-6.555694">
        <ele>636.114</ele>
        <time>2019-06-22T17:56:04Z</time>
      </trkpt>
      <trkpt lat="40.555389" lon="-6.555838">
        <ele>636.166</ele>
        <time>2019-06-22T17:56:05Z</time>
      </trkpt>
      <trkpt lat="40.555187" lon="-6.555987">
        <ele>636.964</ele>
        <time>2019-06-22T17:56:06Z</time>
      </trkpt>
      <trkpt lat="40.554973" lon="-6.556140">
        <ele>636.963</ele>
        <time>2019-06-22T17:56:07Z</time>
      </trkpt>
      <trkpt lat="40.554765" lon="-6.556287">
        <ele>636.968</ele>
        <time>2019-06-22T17:56:08Z</time>
      </trkpt>
      <trkpt lat="40.554559" lon="-6.556445">
        <ele>636.761</ele>
        <time>2019-06-22T17:56:09Z</time>
      </trkpt>
      <trkpt lat="40.554352" lon="-6.556599">
        <ele>636.793</ele>
        <time>2019-06-22T17:56:10Z</time>
      </trkpt>
      <trkpt lat="40.554140" lon="-6.556742">
        <ele>637.765</ele>
        <time>2019-06-22T17:56:11Z</time>
      </trkpt>
      <trkpt lat="40.553930" lon="-6.556882">
        <ele>638.221</ele>
        <time>2019-06-22T17:56:12Z</time>
      </trkpt>
      <trkpt lat="40.553716" lon="-6.557022">
        <ele>638.408</ele>
        <time>2019-06-22T17:56:13Z</time>
      </trkpt>
      <trkpt lat="40.553510" lon="-6.557166">
        <ele>638.692</ele>
        <time>2019-06-22T17:56:14Z</time>
      </trkpt>
      <trkpt lat="40.553297" lon="-6.557316">
        <ele>638.696</ele>
        <time>2019-06-22T17:56:15Z</time>
      </trkpt>
      <trkpt lat="40.553084" lon="-6.557472">
        <ele>638.638</ele>
        <time>2019-06-22T17:56:16Z</time>
      </trkpt>
      <trkpt lat="40.552871" lon="-6.557617">
        <ele>638.120</ele>
        <time>2019-06-22T17:56:17Z</time>
      </trkpt>
      <trkpt lat="40.552657" lon="-6.557764">
        <ele>637.638</ele>
        <time>2019-06-22T17:56:18Z</time>
      </trkpt>
      <trkpt lat="40.552439" lon="-6.557900">
        <ele>637.647</ele>
        <time>2019-06-22T17:56:19Z</time>
      </trkpt>
      <trkpt lat="40.552222" lon="-6.558035">
        <ele>637.652</ele>
        <time>2019-06-22T17:56:20Z</time>
      </trkpt>
      <trkpt lat="40.552002" lon="-6.558170">
        <ele>637.665</ele>
        <time>2019-06-22T17:56:21Z</time>
      </trkpt>
      <trkpt lat="40.551782" lon="-6.558306">
        <ele>637.679</ele>
        <time>2019-06-22T17:56:22Z</time>
      </trkpt>
      <trkpt lat="40.551563" lon="-6.558443">
        <ele>637.905</ele>
        <time>2019-06-22T17:56:23Z</time>
      </trkpt>
      <trkpt lat="40.551335" lon="-6.558542">
        <ele>638.525</ele>
        <time>2019-06-22T17:56:24Z</time>
      </trkpt>
      <trkpt lat="40.551107" lon="-6.558651">
        <ele>638.508</ele>
        <time>2019-06-22T17:56:25Z</time>
      </trkpt>
      <trkpt lat="40.550881" lon="-6.558773">
        <ele>638.620</ele>
        <time>2019-06-22T17:56:26Z</time>
      </trkpt>
      <trkpt lat="40.550656" lon="-6.558888">
        <ele>639.394</ele>
        <time>2019-06-22T17:56:27Z</time>
      </trkpt>
      <trkpt lat="40.550433" lon="-6.559001">
        <ele>639.696</ele>
        <time>2019-06-22T17:56:28Z</time>
      </trkpt>
      <trkpt lat="40.550211" lon="-6.559110">
        <ele>639.738</ele>
        <time>2019-06-22T17:56:29Z</time>
      </trkpt>
      <trkpt lat="40.549989" lon="-6.559223">
        <ele>640.176</ele>
        <time>2019-06-22T17:56:30Z</time>
      </trkpt>
      <trkpt lat="40.549764" lon="-6.559339">
        <ele>641.285</ele>
        <time>2019-06-22T17:56:31Z</time>
      </trkpt>
      <trkpt lat="40.549538" lon="-6.559462">
        <ele>641.520</ele>
        <time>2019-06-22T17:56:32Z</time>
      </trkpt>
      <trkpt lat="40.549314" lon="-6.559581">
        <ele>641.783</ele>
        <time>2019-06-22T17:56:33Z</time>
      </trkpt>
      <trkpt lat="40.549100" lon="-6.559691">
        <ele>641.928</ele>
        <time>2019-06-22T17:56:34Z</time>
      </trkpt>
      <trkpt lat="40.548883" lon="-6.559799">
        <ele>642.589</ele>
        <time>2019-06-22T17:56:35Z</time>
      </trkpt>
      <trkpt lat="40.548663" lon="-6.559912">
        <ele>642.617</ele>
        <time>2019-06-22T17:56:36Z</time>
      </trkpt>
      <trkpt lat="40.548441" lon="-6.560024">
        <ele>642.908</ele>
        <time>2019-06-22T17:56:37Z</time>
      </trkpt>
      <trkpt lat="40.548226" lon="-6.560124">
        <ele>642.965</ele>
        <time>2019-06-22T17:56:38Z</time>
      </trkpt>
      <trkpt lat="40.548008" lon="-6.560230">
        <ele>642.949</ele>
        <time>2019-06-22T17:56:39Z</time>
      </trkpt>
      <trkpt lat="40.547791" lon="-6.560342">
        <ele>642.761</ele>
        <time>2019-06-22T17:56:40Z</time>
      </trkpt>
      <trkpt lat="40.547571" lon="-6.560450">
        <ele>642.773</ele>
        <time>2019-06-22T17:56:41Z</time>
      </trkpt>
      <trkpt lat="40.547355" lon="-6.560561">
        <ele>642.591</ele>
        <time>2019-06-22T17:56:42Z</time>
      </trkpt>
      <trkpt lat="40.547134" lon="-6.560673">
        <ele>642.280</ele>
        <time>2019-06-22T17:56:43Z</time>
      </trkpt>
      <trkpt lat="40.546919" lon="-6.560773">
        <ele>642.245</ele>
        <time>2019-06-22T17:56:44Z</time>
      </trkpt>
      <trkpt lat="40.546697" lon="-6.560894">
        <ele>642.558</ele>
        <time>2019-06-22T17:56:45Z</time>
      </trkpt>
      <trkpt lat="40.546473" lon="-6.561009">
        <ele>642.859</ele>
        <time>2019-06-22T17:56:46Z</time>
      </trkpt>
      <trkpt lat="40.546249" lon="-6.561123">
        <ele>643.603</ele>
        <time>2019-06-22T17:56:47Z</time>
      </trkpt>
      <trkpt lat="40.546027" lon="-6.561253">
        <ele>644.723</ele>
        <time>2019-06-22T17:56:48Z</time>
      </trkpt>
      <trkpt lat="40.545808" lon="-6.561380">
        <ele>645.508</ele>
        <time>2019-06-22T17:56:49Z</time>
      </trkpt>
      <trkpt lat="40.545590" lon="-6.561506">
        <ele>646.278</ele>
        <time>2019-06-22T17:56:50Z</time>
      </trkpt>
      <trkpt lat="40.545373" lon="-6.561652">
        <ele>646.782</ele>
        <time>2019-06-22T17:56:51Z</time>
      </trkpt>
      <trkpt lat="40.545155" lon="-6.561790">
        <ele>646.734</ele>
        <time>2019-06-22T17:56:52Z</time>
      </trkpt>
      <trkpt lat="40.544937" lon="-6.561934">
        <ele>646.856</ele>
        <time>2019-06-22T17:56:53Z</time>
      </trkpt>
      <trkpt lat="40.544709" lon="-6.562074">
        <ele>646.894</ele>
        <time>2019-06-22T17:56:54Z</time>
      </trkpt>
      <trkpt lat="40.544483" lon="-6.562230">
        <ele>647.063</ele>
        <time>2019-06-22T17:56:55Z</time>
      </trkpt>
      <trkpt lat="40.544260" lon="-6.562373">
        <ele>647.078</ele>
        <time>2019-06-22T17:56:56Z</time>
      </trkpt>
      <trkpt lat="40.544035" lon="-6.562515">
        <ele>647.021</ele>
        <time>2019-06-22T17:56:57Z</time>
      </trkpt>
      <trkpt lat="40.543817" lon="-6.562667">
        <ele>647.041</ele>
        <time>2019-06-22T17:56:58Z</time>
      </trkpt>
      <trkpt lat="40.543599" lon="-6.562804">
        <ele>647.381</ele>
        <time>2019-06-22T17:56:59Z</time>
      </trkpt>
      <trkpt lat="40.543380" lon="-6.562942">
        <ele>647.509</ele>
        <time>2019-06-22T17:57:00Z</time>
      </trkpt>
      <trkpt lat="40.543164" lon="-6.563085">
        <ele>647.908</ele>
        <time>2019-06-22T17:57:01Z</time>
      </trkpt>
      <trkpt lat="40.542942" lon="-6.563233">
        <ele>648.177</ele>
        <time>2019-06-22T17:57:02Z</time>
      </trkpt>
      <trkpt lat="40.542732" lon="-6.563362">
        <ele>648.831</ele>
        <time>2019-06-22T17:57:03Z</time>
      </trkpt>
      <trkpt lat="40.542515" lon="-6.563501">
        <ele>649.333</ele>
        <time>2019-06-22T17:57:04Z</time>
      </trkpt>
      <trkpt lat="40.542294" lon="-6.563642">
        <ele>649.775</ele>
        <time>2019-06-22T17:57:05Z</time>
      </trkpt>
      <trkpt lat="40.542075" lon="-6.563783">
        <ele>650.193</ele>
        <time>2019-06-22T17:57:06Z</time>
      </trkpt>
      <trkpt lat="40.541853" lon="-6.563910">
        <ele>650.762</ele>
        <time>2019-06-22T17:57:07Z</time>
      </trkpt>
      <trkpt lat="40.541636" lon="-6.564032">
        <ele>650.757</ele>
        <time>2019-06-22T17:57:08Z</time>
      </trkpt>
      <trkpt lat="40.541413" lon="-6.564148">
        <ele>650.750</ele>
        <time>2019-06-22T17:57:09Z</time>
      </trkpt>
      <trkpt lat="40.541181" lon="-6.564258">
        <ele>651.068</ele>
        <time>2019-06-22T17:57:10Z</time>
      </trkpt>
      <trkpt lat="40.540949" lon="-6.564356">
        <ele>651.042</ele>
        <time>2019-06-22T17:57:11Z</time>
      </trkpt>
      <trkpt lat="40.540716" lon="-6.564452">
        <ele>650.726</ele>
        <time>2019-06-22T17:57:12Z</time>
      </trkpt>
      <trkpt lat="40.540486" lon="-6.564549">
        <ele>650.308</ele>
        <time>2019-06-22T17:57:13Z</time>
      </trkpt>
      <trkpt lat="40.540259" lon="-6.564638">
        <ele>650.129</ele>
        <time>2019-06-22T17:57:14Z</time>
      </trkpt>
      <trkpt lat="40.540030" lon="-6.564741">
        <ele>649.943</ele>
        <time>2019-06-22T17:57:15Z</time>
      </trkpt>
      <trkpt lat="40.539796" lon="-6.564836">
        <ele>649.955</ele>
        <time>2019-06-22T17:57:16Z</time>
      </trkpt>
      <trkpt lat="40.539565" lon="-6.564935">
        <ele>650.297</ele>
        <time>2019-06-22T17:57:17Z</time>
      </trkpt>
      <trkpt lat="40.539339" lon="-6.565031">
        <ele>651.285</ele>
        <time>2019-06-22T17:57:18Z</time>
      </trkpt>
      <trkpt lat="40.539110" lon="-6.565123">
        <ele>651.814</ele>
        <time>2019-06-22T17:57:19Z</time>
      </trkpt>
      <trkpt lat="40.538884" lon="-6.565226">
        <ele>652.359</ele>
        <time>2019-06-22T17:57:20Z</time>
      </trkpt>
      <trkpt lat="40.538655" lon="-6.565317">
        <ele>653.022</ele>
        <time>2019-06-22T17:57:21Z</time>
      </trkpt>
      <trkpt lat="40.538421" lon="-6.565405">
        <ele>653.381</ele>
        <time>2019-06-22T17:57:22Z</time>
      </trkpt>
      <trkpt lat="40.538199" lon="-6.565498">
        <ele>653.361</ele>
        <time>2019-06-22T17:57:23Z</time>
      </trkpt>
      <trkpt lat="40.537959" lon="-6.565602">
        <ele>653.317</ele>
        <time>2019-06-22T17:57:24Z</time>
      </trkpt>
      <trkpt lat="40.537729" lon="-6.565695">
        <ele>653.508</ele>
        <time>2019-06-22T17:57:25Z</time>
      </trkpt>
      <trkpt lat="40.537497" lon="-6.565784">
        <ele>653.591</ele>
        <time>2019-06-22T17:57:26Z</time>
      </trkpt>
      <trkpt lat="40.537271" lon="-6.565875">
        <ele>653.645</ele>
        <time>2019-06-22T17:57:27Z</time>
      </trkpt>
      <trkpt lat="40.537042" lon="-6.565974">
        <ele>653.997</ele>
        <time>2019-06-22T17:57:28Z</time>
      </trkpt>
      <trkpt lat="40.536811" lon="-6.566080">
        <ele>654.249</ele>
        <time>2019-06-22T17:57:29Z</time>
      </trkpt>
      <trkpt lat="40.536587" lon="-6.566155">
        <ele>654.217</ele>
        <time>2019-06-22T17:57:30Z</time>
      </trkpt>
      <trkpt lat="40.536356" lon="-6.566260">
        <ele>654.316</ele>
        <time>2019-06-22T17:57:31Z</time>
      </trkpt>
      <trkpt lat="40.536125" lon="-6.566346">
        <ele>654.331</ele>
        <time>2019-06-22T17:57:32Z</time>
      </trkpt>
      <trkpt lat="40.535890" lon="-6.566447">
        <ele>654.544</ele>
        <time>2019-06-22T17:57:33Z</time>
      </trkpt>
      <trkpt lat="40.535650" lon="-6.566539">
        <ele>654.544</ele>
        <time>2019-06-22T17:57:34Z</time>
      </trkpt>
      <trkpt lat="40.535414" lon="-6.566625">
        <ele>654.305</ele>
        <time>2019-06-22T17:57:35Z</time>
      </trkpt>
      <trkpt lat="40.535178" lon="-6.566701">
        <ele>654.015</ele>
        <time>2019-06-22T17:57:36Z</time>
      </trkpt>
      <trkpt lat="40.534943" lon="-6.566768">
        <ele>654.008</ele>
        <time>2019-06-22T17:57:37Z</time>
      </trkpt>
      <trkpt lat="40.534701" lon="-6.566841">
        <ele>653.717</ele>
        <time>2019-06-22T17:57:38Z</time>
      </trkpt>
      <trkpt lat="40.534465" lon="-6.566905">
        <ele>653.751</ele>
        <time>2019-06-22T17:57:39Z</time>
      </trkpt>
      <trkpt lat="40.534221" lon="-6.566947">
        <ele>653.753</ele>
        <time>2019-06-22T17:57:40Z</time>
      </trkpt>
      <trkpt lat="40.533976" lon="-6.566977">
        <ele>653.765</ele>
        <time>2019-06-22T17:57:41Z</time>
      </trkpt>
      <trkpt lat="40.533727" lon="-6.567003">
        <ele>653.833</ele>
        <time>2019-06-22T17:57:42Z</time>
      </trkpt>
      <trkpt lat="40.533479" lon="-6.567016">
        <ele>653.562</ele>
        <time>2019-06-22T17:57:43Z</time>
      </trkpt>
      <trkpt lat="40.533230" lon="-6.567028">
        <ele>653.237</ele>
        <time>2019-06-22T17:57:44Z</time>
      </trkpt>
      <trkpt lat="40.532980" lon="-6.567022">
        <ele>652.480</ele>
        <time>2019-06-22T17:57:45Z</time>
      </trkpt>
      <trkpt lat="40.532725" lon="-6.567017">
        <ele>652.428</ele>
        <time>2019-06-22T17:57:46Z</time>
      </trkpt>
      <trkpt lat="40.532477" lon="-6.567002">
        <ele>652.489</ele>
        <time>2019-06-22T17:57:47Z</time>
      </trkpt>
      <trkpt lat="40.532230" lon="-6.566984">
        <ele>652.817</ele>
        <time>2019-06-22T17:57:48Z</time>
      </trkpt>
      <trkpt lat="40.531982" lon="-6.566957">
        <ele>653.608</ele>
        <time>2019-06-22T17:57:49Z</time>
      </trkpt>
      <trkpt lat="40.531736" lon="-6.566933">
        <ele>654.635</ele>
        <time>2019-06-22T17:57:50Z</time>
      </trkpt>
      <trkpt lat="40.531486" lon="-6.566908">
        <ele>656.169</ele>
        <time>2019-06-22T17:57:51Z</time>
      </trkpt>
      <trkpt lat="40.531244" lon="-6.566877">
        <ele>656.841</ele>
        <time>2019-06-22T17:57:52Z</time>
      </trkpt>
      <trkpt lat="40.531008" lon="-6.566855">
        <ele>656.823</ele>
        <time>2019-06-22T17:57:53Z</time>
      </trkpt>
      <trkpt lat="40.530774" lon="-6.566833">
        <ele>657.411</ele>
        <time>2019-06-22T17:57:54Z</time>
      </trkpt>
      <trkpt lat="40.530525" lon="-6.566806">
        <ele>657.970</ele>
        <time>2019-06-22T17:57:55Z</time>
      </trkpt>
      <trkpt lat="40.530284" lon="-6.566781">
        <ele>657.925</ele>
        <time>2019-06-22T17:57:56Z</time>
      </trkpt>
      <trkpt lat="40.530041" lon="-6.566758">
        <ele>657.998</ele>
        <time>2019-06-22T17:57:57Z</time>
      </trkpt>
      <trkpt lat="40.529801" lon="-6.566742">
        <ele>657.953</ele>
        <time>2019-06-22T17:57:58Z</time>
      </trkpt>
      <trkpt lat="40.529552" lon="-6.566719">
        <ele>658.304</ele>
        <time>2019-06-22T17:57:59Z</time>
      </trkpt>
      <trkpt lat="40.529311" lon="-6.566702">
        <ele>658.714</ele>
        <time>2019-06-22T17:58:00Z</time>
      </trkpt>
      <trkpt lat="40.529068" lon="-6.566685">
        <ele>658.708</ele>
        <time>2019-06-22T17:58:01Z</time>
      </trkpt>
      <trkpt lat="40.528819" lon="-6.566668">
        <ele>659.898</ele>
        <time>2019-06-22T17:58:02Z</time>
      </trkpt>
      <trkpt lat="40.528574" lon="-6.566663">
        <ele>660.042</ele>
        <time>2019-06-22T17:58:03Z</time>
      </trkpt>
      <trkpt lat="40.528334" lon="-6.566668">
        <ele>660.094</ele>
        <time>2019-06-22T17:58:04Z</time>
      </trkpt>
      <trkpt lat="40.528087" lon="-6.566693">
        <ele>660.026</ele>
        <time>2019-06-22T17:58:05Z</time>
      </trkpt>
      <trkpt lat="40.527844" lon="-6.566730">
        <ele>660.134</ele>
        <time>2019-06-22T17:58:06Z</time>
      </trkpt>
      <trkpt lat="40.527600" lon="-6.566768">
        <ele>660.363</ele>
        <time>2019-06-22T17:58:07Z</time>
      </trkpt>
      <trkpt lat="40.527364" lon="-6.566832">
        <ele>660.968</ele>
        <time>2019-06-22T17:58:08Z</time>
      </trkpt>
      <trkpt lat="40.527130" lon="-6.566910">
        <ele>661.191</ele>
        <time>2019-06-22T17:58:09Z</time>
      </trkpt>
      <trkpt lat="40.526889" lon="-6.566987">
        <ele>661.842</ele>
        <time>2019-06-22T17:58:10Z</time>
      </trkpt>
      <trkpt lat="40.526650" lon="-6.567067">
        <ele>661.922</ele>
        <time>2019-06-22T17:58:11Z</time>
      </trkpt>
      <trkpt lat="40.526408" lon="-6.567126">
        <ele>661.914</ele>
        <time>2019-06-22T17:58:12Z</time>
      </trkpt>
      <trkpt lat="40.526168" lon="-6.567202">
        <ele>661.408</ele>
        <time>2019-06-22T17:58:13Z</time>
      </trkpt>
      <trkpt lat="40.525932" lon="-6.567271">
        <ele>661.467</ele>
        <time>2019-06-22T17:58:14Z</time>
      </trkpt>
      <trkpt lat="40.525697" lon="-6.567338">
        <ele>660.821</ele>
        <time>2019-06-22T17:58:15Z</time>
      </trkpt>
      <trkpt lat="40.525452" lon="-6.567419">
        <ele>660.273</ele>
        <time>2019-06-22T17:58:16Z</time>
      </trkpt>
      <trkpt lat="40.525221" lon="-6.567502">
        <ele>659.925</ele>
        <time>2019-06-22T17:58:17Z</time>
      </trkpt>
      <trkpt lat="40.524996" lon="-6.567587">
        <ele>659.953</ele>
        <time>2019-06-22T17:58:18Z</time>
      </trkpt>
      <trkpt lat="40.524765" lon="-6.567648">
        <ele>660.112</ele>
        <time>2019-06-22T17:58:19Z</time>
      </trkpt>
      <trkpt lat="40.524531" lon="-6.567720">
        <ele>661.327</ele>
        <time>2019-06-22T17:58:20Z</time>
      </trkpt>
      <trkpt lat="40.524297" lon="-6.567778">
        <ele>661.640</ele>
        <time>2019-06-22T17:58:21Z</time>
      </trkpt>
      <trkpt lat="40.524069" lon="-6.567841">
        <ele>662.244</ele>
        <time>2019-06-22T17:58:22Z</time>
      </trkpt>
      <trkpt lat="40.523838" lon="-6.567915">
        <ele>663.205</ele>
        <time>2019-06-22T17:58:23Z</time>
      </trkpt>
      <trkpt lat="40.523599" lon="-6.567971">
        <ele>663.215</ele>
        <time>2019-06-22T17:58:24Z</time>
      </trkpt>
      <trkpt lat="40.523370" lon="-6.568017">
        <ele>663.508</ele>
        <time>2019-06-22T17:58:25Z</time>
      </trkpt>
      <trkpt lat="40.523133" lon="-6.568063">
        <ele>663.577</ele>
        <time>2019-06-22T17:58:26Z</time>
      </trkpt>
      <trkpt lat="40.522894" lon="-6.568098">
        <ele>663.891</ele>
        <time>2019-06-22T17:58:27Z</time>
      </trkpt>
      <trkpt lat="40.522655" lon="-6.568130">
        <ele>663.983</ele>
        <time>2019-06-22T17:58:28Z</time>
      </trkpt>
      <trkpt lat="40.522422" lon="-6.568166">
        <ele>663.835</ele>
        <time>2019-06-22T17:58:29Z</time>
      </trkpt>
      <trkpt lat="40.522188" lon="-6.568200">
        <ele>663.893</ele>
        <time>2019-06-22T17:58:30Z</time>
      </trkpt>
      <trkpt lat="40.521960" lon="-6.568232">
        <ele>663.372</ele>
        <time>2019-06-22T17:58:31Z</time>
      </trkpt>
      <trkpt lat="40.521747" lon="-6.568253">
        <ele>662.947</ele>
        <time>2019-06-22T17:58:32Z</time>
      </trkpt>
      <trkpt lat="40.521529" lon="-6.568282">
        <ele>662.880</ele>
        <time>2019-06-22T17:58:33Z</time>
      </trkpt>
      <trkpt lat="40.521320" lon="-6.568307">
        <ele>660.929</ele>
        <time>2019-06-22T17:58:34Z</time>
      </trkpt>
      <trkpt lat="40.521111" lon="-6.568315">
        <ele>660.700</ele>
        <time>2019-06-22T17:58:35Z</time>
      </trkpt>
      <trkpt lat="40.520906" lon="-6.568289">
        <ele>660.720</ele>
        <time>2019-06-22T17:58:36Z</time>
      </trkpt>
      <trkpt lat="40.520694" lon="-6.568239">
        <ele>661.208</ele>
        <time>2019-06-22T17:58:37Z</time>
      </trkpt>
      <trkpt lat="40.520475" lon="-6.568171">
        <ele>661.385</ele>
        <time>2019-06-22T17:58:38Z</time>
      </trkpt>
      <trkpt lat="40.520260" lon="-6.568083">
        <ele>662.529</ele>
        <time>2019-06-22T17:58:39Z</time>
      </trkpt>
      <trkpt lat="40.520049" lon="-6.567998">
        <ele>663.351</ele>
        <time>2019-06-22T17:58:40Z</time>
      </trkpt>
      <trkpt lat="40.519836" lon="-6.567890">
        <ele>663.363</ele>
        <time>2019-06-22T17:58:41Z</time>
      </trkpt>
      <trkpt lat="40.519626" lon="-6.567786">
        <ele>662.271</ele>
        <time>2019-06-22T17:58:42Z</time>
      </trkpt>
      <trkpt lat="40.519417" lon="-6.567697">
        <ele>661.160</ele>
        <time>2019-06-22T17:58:43Z</time>
      </trkpt>
      <trkpt lat="40.519200" lon="-6.567629">
        <ele>660.525</ele>
        <time>2019-06-22T17:58:44Z</time>
      </trkpt>
      <trkpt lat="40.518975" lon="-6.567582">
        <ele>660.338</ele>
        <time>2019-06-22T17:58:45Z</time>
      </trkpt>
      <trkpt lat="40.518746" lon="-6.567547">
        <ele>660.384</ele>
        <time>2019-06-22T17:58:46Z</time>
      </trkpt>
      <trkpt lat="40.518514" lon="-6.567527">
        <ele>661.107</ele>
        <time>2019-06-22T17:58:47Z</time>
      </trkpt>
      <trkpt lat="40.518289" lon="-6.567506">
        <ele>662.417</ele>
        <time>2019-06-22T17:58:48Z</time>
      </trkpt>
      <trkpt lat="40.518069" lon="-6.567482">
        <ele>663.008</ele>
        <time>2019-06-22T17:58:49Z</time>
      </trkpt>
      <trkpt lat="40.517845" lon="-6.567463">
        <ele>663.871</ele>
        <time>2019-06-22T17:58:50Z</time>
      </trkpt>
      <trkpt lat="40.517613" lon="-6.567444">
        <ele>663.935</ele>
        <time>2019-06-22T17:58:51Z</time>
      </trkpt>
      <trkpt lat="40.517379" lon="-6.567435">
        <ele>663.947</ele>
        <time>2019-06-22T17:58:52Z</time>
      </trkpt>
      <trkpt lat="40.517151" lon="-6.567450">
        <ele>663.749</ele>
        <time>2019-06-22T17:58:53Z</time>
      </trkpt>
      <trkpt lat="40.516920" lon="-6.567478">
        <ele>663.737</ele>
        <time>2019-06-22T17:58:54Z</time>
      </trkpt>
      <trkpt lat="40.516691" lon="-6.567522">
        <ele>663.996</ele>
        <time>2019-06-22T17:58:55Z</time>
      </trkpt>
      <trkpt lat="40.516463" lon="-6.567581">
        <ele>663.971</ele>
        <time>2019-06-22T17:58:56Z</time>
      </trkpt>
      <trkpt lat="40.516247" lon="-6.567672">
        <ele>663.924</ele>
        <time>2019-06-22T17:58:57Z</time>
      </trkpt>
      <trkpt lat="40.516027" lon="-6.567778">
        <ele>664.023</ele>
        <time>2019-06-22T17:58:58Z</time>
      </trkpt>
      <trkpt lat="40.515803" lon="-6.567890">
        <ele>664.983</ele>
        <time>2019-06-22T17:58:59Z</time>
      </trkpt>
      <trkpt lat="40.515583" lon="-6.568004">
        <ele>666.111</ele>
        <time>2019-06-22T17:59:00Z</time>
      </trkpt>
      <trkpt lat="40.515361" lon="-6.568119">
        <ele>667.408</ele>
        <time>2019-06-22T17:59:01Z</time>
      </trkpt>
      <trkpt lat="40.515138" lon="-6.568233">
        <ele>669.255</ele>
        <time>2019-06-22T17:59:02Z</time>
      </trkpt>
      <trkpt lat="40.514915" lon="-6.568355">
        <ele>670.979</ele>
        <time>2019-06-22T17:59:03Z</time>
      </trkpt>
      <trkpt lat="40.514697" lon="-6.568474">
        <ele>670.921</ele>
        <time>2019-06-22T17:59:04Z</time>
      </trkpt>
      <trkpt lat="40.514477" lon="-6.568597">
        <ele>670.973</ele>
        <time>2019-06-22T17:59:05Z</time>
      </trkpt>
      <trkpt lat="40.514251" lon="-6.568722">
        <ele>670.941</ele>
        <time>2019-06-22T17:59:06Z</time>
      </trkpt>
      <trkpt lat="40.514025" lon="-6.568848">
        <ele>670.940</ele>
        <time>2019-06-22T17:59:07Z</time>
      </trkpt>
      <trkpt lat="40.513805" lon="-6.568969">
        <ele>671.195</ele>
        <time>2019-06-22T17:59:08Z</time>
      </trkpt>
      <trkpt lat="40.513584" lon="-6.569091">
        <ele>671.168</ele>
        <time>2019-06-22T17:59:09Z</time>
      </trkpt>
      <trkpt lat="40.513357" lon="-6.569221">
        <ele>671.822</ele>
        <time>2019-06-22T17:59:10Z</time>
      </trkpt>
      <trkpt lat="40.513137" lon="-6.569350">
        <ele>672.062</ele>
        <time>2019-06-22T17:59:11Z</time>
      </trkpt>
      <trkpt lat="40.512919" lon="-6.569482">
        <ele>672.008</ele>
        <time>2019-06-22T17:59:12Z</time>
      </trkpt>
      <trkpt lat="40.512699" lon="-6.569623">
        <ele>671.508</ele>
        <time>2019-06-22T17:59:13Z</time>
      </trkpt>
      <trkpt lat="40.512485" lon="-6.569767">
        <ele>671.185</ele>
        <time>2019-06-22T17:59:14Z</time>
      </trkpt>
      <trkpt lat="40.512271" lon="-6.569909">
        <ele>670.849</ele>
        <time>2019-06-22T17:59:15Z</time>
      </trkpt>
      <trkpt lat="40.512054" lon="-6.570051">
        <ele>670.881</ele>
        <time>2019-06-22T17:59:16Z</time>
      </trkpt>
      <trkpt lat="40.511836" lon="-6.570195">
        <ele>671.663</ele>
        <time>2019-06-22T17:59:17Z</time>
      </trkpt>
      <trkpt lat="40.511617" lon="-6.570336">
        <ele>672.991</ele>
        <time>2019-06-22T17:59:18Z</time>
      </trkpt>
      <trkpt lat="40.511403" lon="-6.570475">
        <ele>672.920</ele>
        <time>2019-06-22T17:59:19Z</time>
      </trkpt>
      <trkpt lat="40.511188" lon="-6.570616">
        <ele>674.415</ele>
        <time>2019-06-22T17:59:20Z</time>
      </trkpt>
      <trkpt lat="40.510973" lon="-6.570748">
        <ele>675.468</ele>
        <time>2019-06-22T17:59:21Z</time>
      </trkpt>
      <trkpt lat="40.510763" lon="-6.570873">
        <ele>675.855</ele>
        <time>2019-06-22T17:59:22Z</time>
      </trkpt>
      <trkpt lat="40.510548" lon="-6.571004">
        <ele>676.007</ele>
        <time>2019-06-22T17:59:23Z</time>
      </trkpt>
      <trkpt lat="40.510334" lon="-6.571136">
        <ele>676.217</ele>
        <time>2019-06-22T17:59:24Z</time>
      </trkpt>
      <trkpt lat="40.510118" lon="-6.571273">
        <ele>676.408</ele>
        <time>2019-06-22T17:59:25Z</time>
      </trkpt>
      <trkpt lat="40.509908" lon="-6.571409">
        <ele>677.238</ele>
        <time>2019-06-22T17:59:26Z</time>
      </trkpt>
      <trkpt lat="40.509706" lon="-6.571554">
        <ele>678.192</ele>
        <time>2019-06-22T17:59:27Z</time>
      </trkpt>
      <trkpt lat="40.509510" lon="-6.571706">
        <ele>678.514</ele>
        <time>2019-06-22T17:59:28Z</time>
      </trkpt>
      <trkpt lat="40.509330" lon="-6.571870">
        <ele>679.136</ele>
        <time>2019-06-22T17:59:29Z</time>
      </trkpt>
      <trkpt lat="40.509169" lon="-6.572043">
        <ele>679.534</ele>
        <time>2019-06-22T17:59:30Z</time>
      </trkpt>
      <trkpt lat="40.509024" lon="-6.572224">
        <ele>679.583</ele>
        <time>2019-06-22T17:59:31Z</time>
      </trkpt>
      <trkpt lat="40.508898" lon="-6.572400">
        <ele>679.778</ele>
        <time>2019-06-22T17:59:32Z</time>
      </trkpt>
      <trkpt lat="40.508779" lon="-6.572580">
        <ele>680.661</ele>
        <time>2019-06-22T17:59:33Z</time>
      </trkpt>
      <trkpt lat="40.508660" lon="-6.572749">
        <ele>682.037</ele>
        <time>2019-06-22T17:59:34Z</time>
      </trkpt>
      <trkpt lat="40.508542" lon="-6.572921">
        <ele>683.649</ele>
        <time>2019-06-22T17:59:35Z</time>
      </trkpt>
      <trkpt lat="40.508418" lon="-6.573082">
        <ele>684.813</ele>
        <time>2019-06-22T17:59:36Z</time>
      </trkpt>
      <trkpt lat="40.508284" lon="-6.573230">
        <ele>686.908</ele>
        <time>2019-06-22T17:59:37Z</time>
      </trkpt>
      <trkpt lat="40.508145" lon="-6.573362">
        <ele>688.236</ele>
        <time>2019-06-22T17:59:38Z</time>
      </trkpt>
      <trkpt lat="40.508008" lon="-6.573476">
        <ele>688.410</ele>
        <time>2019-06-22T17:59:39Z</time>
      </trkpt>
      <trkpt lat="40.507862" lon="-6.573578">
        <ele>688.692</ele>
        <time>2019-06-22T17:59:40Z</time>
      </trkpt>
      <trkpt lat="40.507716" lon="-6.573669">
        <ele>689.124</ele>
        <time>2019-06-22T17:59:41Z</time>
      </trkpt>
      <trkpt lat="40.507580" lon="-6.573744">
        <ele>689.162</ele>
        <time>2019-06-22T17:59:42Z</time>
      </trkpt>
      <trkpt lat="40.507446" lon="-6.573791">
        <ele>689.251</ele>
        <time>2019-06-22T17:59:43Z</time>
      </trkpt>
      <trkpt lat="40.507309" lon="-6.573846">
        <ele>689.976</ele>
        <time>2019-06-22T17:59:44Z</time>
      </trkpt>
      <trkpt lat="40.507169" lon="-6.573881">
        <ele>690.589</ele>
        <time>2019-06-22T17:59:45Z</time>
      </trkpt>
      <trkpt lat="40.507009" lon="-6.573916">
        <ele>691.734</ele>
        <time>2019-06-22T17:59:46Z</time>
      </trkpt>
      <trkpt lat="40.506847" lon="-6.573968">
        <ele>693.355</ele>
        <time>2019-06-22T17:59:47Z</time>
      </trkpt>
      <trkpt lat="40.506688" lon="-6.574028">
        <ele>694.810</ele>
        <time>2019-06-22T17:59:48Z</time>
      </trkpt>
      <trkpt lat="40.506538" lon="-6.574095">
        <ele>695.308</ele>
        <time>2019-06-22T17:59:49Z</time>
      </trkpt>
      <trkpt lat="40.506382" lon="-6.574170">
        <ele>696.796</ele>
        <time>2019-06-22T17:59:50Z</time>
      </trkpt>
      <trkpt lat="40.506235" lon="-6.574265">
        <ele>697.110</ele>
        <time>2019-06-22T17:59:51Z</time>
      </trkpt>
      <trkpt lat="40.506092" lon="-6.574380">
        <ele>698.462</ele>
        <time>2019-06-22T17:59:52Z</time>
      </trkpt>
      <trkpt lat="40.505951" lon="-6.574510">
        <ele>699.584</ele>
        <time>2019-06-22T17:59:53Z</time>
      </trkpt>
      <trkpt lat="40.505817" lon="-6.574659">
        <ele>700.562</ele>
        <time>2019-06-22T17:59:54Z</time>
      </trkpt>
      <trkpt lat="40.505682" lon="-6.574806">
        <ele>700.521</ele>
        <time>2019-06-22T17:59:55Z</time>
      </trkpt>
      <trkpt lat="40.505539" lon="-6.574973">
        <ele>702.356</ele>
        <time>2019-06-22T17:59:56Z</time>
      </trkpt>
      <trkpt lat="40.505387" lon="-6.575149">
        <ele>703.379</ele>
        <time>2019-06-22T17:59:57Z</time>
      </trkpt>
      <trkpt lat="40.505233" lon="-6.575305">
        <ele>703.626</ele>
        <time>2019-06-22T17:59:58Z</time>
      </trkpt>
      <trkpt lat="40.505076" lon="-6.575446">
        <ele>704.647</ele>
        <time>2019-06-22T17:59:59Z</time>
      </trkpt>
      <trkpt lat="40.504911" lon="-6.575576">
        <ele>705.811</ele>
        <time>2019-06-22T18:00:00Z</time>
      </trkpt>
      <trkpt lat="40.504729" lon="-6.575691">
        <ele>706.708</ele>
        <time>2019-06-22T18:00:01Z</time>
      </trkpt>
      <trkpt lat="40.504538" lon="-6.575788">
        <ele>707.995</ele>
        <time>2019-06-22T18:00:02Z</time>
      </trkpt>
      <trkpt lat="40.504350" lon="-6.575861">
        <ele>708.819</ele>
        <time>2019-06-22T18:00:03Z</time>
      </trkpt>
      <trkpt lat="40.504160" lon="-6.575913">
        <ele>710.961</ele>
        <time>2019-06-22T18:00:04Z</time>
      </trkpt>
      <trkpt lat="40.503975" lon="-6.575951">
        <ele>712.553</ele>
        <time>2019-06-22T18:00:05Z</time>
      </trkpt>
      <trkpt lat="40.503787" lon="-6.575972">
        <ele>712.711</ele>
        <time>2019-06-22T18:00:06Z</time>
      </trkpt>
      <trkpt lat="40.503597" lon="-6.575965">
        <ele>713.640</ele>
        <time>2019-06-22T18:00:07Z</time>
      </trkpt>
      <trkpt lat="40.503407" lon="-6.575940">
        <ele>715.325</ele>
        <time>2019-06-22T18:00:08Z</time>
      </trkpt>
      <trkpt lat="40.503222" lon="-6.575912">
        <ele>715.948</ele>
        <time>2019-06-22T18:00:09Z</time>
      </trkpt>
      <trkpt lat="40.503053" lon="-6.575853">
        <ele>716.366</ele>
        <time>2019-06-22T18:00:10Z</time>
      </trkpt>
      <trkpt lat="40.502875" lon="-6.575809">
        <ele>716.929</ele>
        <time>2019-06-22T18:00:11Z</time>
      </trkpt>
      <trkpt lat="40.502700" lon="-6.575765">
        <ele>716.921</ele>
        <time>2019-06-22T18:00:12Z</time>
      </trkpt>
      <trkpt lat="40.502516" lon="-6.575730">
        <ele>715.008</ele>
        <time>2019-06-22T18:00:13Z</time>
      </trkpt>
      <trkpt lat="40.502342" lon="-6.575708">
        <ele>713.579</ele>
        <time>2019-06-22T18:00:14Z</time>
      </trkpt>
      <trkpt lat="40.502160" lon="-6.575707">
        <ele>713.533</ele>
        <time>2019-06-22T18:00:15Z</time>
      </trkpt>
      <trkpt lat="40.501977" lon="-6.575733">
        <ele>714.055</ele>
        <time>2019-06-22T18:00:16Z</time>
      </trkpt>
      <trkpt lat="40.501794" lon="-6.575763">
        <ele>714.067</ele>
        <time>2019-06-22T18:00:17Z</time>
      </trkpt>
      <trkpt lat="40.501619" lon="-6.575817">
        <ele>714.565</ele>
        <time>2019-06-22T18:00:18Z</time>
      </trkpt>
      <trkpt lat="40.501446" lon="-6.575894">
        <ele>716.274</ele>
        <time>2019-06-22T18:00:19Z</time>
      </trkpt>
      <trkpt lat="40.501275" lon="-6.575988">
        <ele>717.439</ele>
        <time>2019-06-22T18:00:20Z</time>
      </trkpt>
      <trkpt lat="40.501108" lon="-6.576090">
        <ele>718.432</ele>
        <time>2019-06-22T18:00:21Z</time>
      </trkpt>
      <trkpt lat="40.500948" lon="-6.576210">
        <ele>719.789</ele>
        <time>2019-06-22T18:00:22Z</time>
      </trkpt>
      <trkpt lat="40.500797" lon="-6.576343">
        <ele>721.106</ele>
        <time>2019-06-22T18:00:23Z</time>
      </trkpt>
      <trkpt lat="40.500662" lon="-6.576485">
        <ele>721.126</ele>
        <time>2019-06-22T18:00:24Z</time>
      </trkpt>
      <trkpt lat="40.500532" lon="-6.576644">
        <ele>722.308</ele>
        <time>2019-06-22T18:00:25Z</time>
      </trkpt>
      <trkpt lat="40.500407" lon="-6.576806">
        <ele>723.271</ele>
        <time>2019-06-22T18:00:26Z</time>
      </trkpt>
      <trkpt lat="40.500283" lon="-6.576968">
        <ele>724.265</ele>
        <time>2019-06-22T18:00:27Z</time>
      </trkpt>
      <trkpt lat="40.500154" lon="-6.577117">
        <ele>725.697</ele>
        <time>2019-06-22T18:00:28Z</time>
      </trkpt>
      <trkpt lat="40.500006" lon="-6.577268">
        <ele>727.899</ele>
        <time>2019-06-22T18:00:29Z</time>
      </trkpt>
      <trkpt lat="40.499853" lon="-6.577396">
        <ele>730.197</ele>
        <time>2019-06-22T18:00:30Z</time>
      </trkpt>
      <trkpt lat="40.499689" lon="-6.577520">
        <ele>732.876</ele>
        <time>2019-06-22T18:00:31Z</time>
      </trkpt>
      <trkpt lat="40.499516" lon="-6.577629">
        <ele>735.091</ele>
        <time>2019-06-22T18:00:32Z</time>
      </trkpt>
      <trkpt lat="40.499339" lon="-6.577716">
        <ele>737.094</ele>
        <time>2019-06-22T18:00:33Z</time>
      </trkpt>
      <trkpt lat="40.499152" lon="-6.577788">
        <ele>738.897</ele>
        <time>2019-06-22T18:00:34Z</time>
      </trkpt>
      <trkpt lat="40.498970" lon="-6.577850">
        <ele>740.623</ele>
        <time>2019-06-22T18:00:35Z</time>
      </trkpt>
      <trkpt lat="40.498783" lon="-6.577891">
        <ele>741.525</ele>
        <time>2019-06-22T18:00:36Z</time>
      </trkpt>
      <trkpt lat="40.498591" lon="-6.577923">
        <ele>741.908</ele>
        <time>2019-06-22T18:00:37Z</time>
      </trkpt>
      <trkpt lat="40.498405" lon="-6.577971">
        <ele>742.182</ele>
        <time>2019-06-22T18:00:38Z</time>
      </trkpt>
      <trkpt lat="40.498223" lon="-6.578040">
        <ele>742.586</ele>
        <time>2019-06-22T18:00:39Z</time>
      </trkpt>
      <trkpt lat="40.498033" lon="-6.578131">
        <ele>743.688</ele>
        <time>2019-06-22T18:00:40Z</time>
      </trkpt>
      <trkpt lat="40.497850" lon="-6.578242">
        <ele>744.560</ele>
        <time>2019-06-22T18:00:41Z</time>
      </trkpt>
      <trkpt lat="40.497665" lon="-6.578362">
        <ele>745.628</ele>
        <time>2019-06-22T18:00:42Z</time>
      </trkpt>
      <trkpt lat="40.497490" lon="-6.578486">
        <ele>746.437</ele>
        <time>2019-06-22T18:00:43Z</time>
      </trkpt>
      <trkpt lat="40.497305" lon="-6.578632">
        <ele>747.262</ele>
        <time>2019-06-22T18:00:44Z</time>
      </trkpt>
      <trkpt lat="40.497115" lon="-6.578771">
        <ele>747.755</ele>
        <time>2019-06-22T18:00:45Z</time>
      </trkpt>
      <trkpt lat="40.496922" lon="-6.578894">
        <ele>748.349</ele>
        <time>2019-06-22T18:00:46Z</time>
      </trkpt>
      <trkpt lat="40.496725" lon="-6.579006">
        <ele>749.302</ele>
        <time>2019-06-22T18:00:47Z</time>
      </trkpt>
      <trkpt lat="40.496523" lon="-6.579089">
        <ele>751.122</ele>
        <time>2019-06-22T18:00:48Z</time>
      </trkpt>
      <trkpt lat="40.496315" lon="-6.579169">
        <ele>752.308</ele>
        <time>2019-06-22T18:00:49Z</time>
      </trkpt>
      <trkpt lat="40.496106" lon="-6.579240">
        <ele>753.347</ele>
        <time>2019-06-22T18:00:50Z</time>
      </trkpt>
      <trkpt lat="40.495897" lon="-6.579302">
        <ele>754.051</ele>
        <time>2019-06-22T18:00:51Z</time>
      </trkpt>
      <trkpt lat="40.495684" lon="-6.579367">
        <ele>754.043</ele>
        <time>2019-06-22T18:00:52Z</time>
      </trkpt>
      <trkpt lat="40.495472" lon="-6.579431">
        <ele>753.715</ele>
        <time>2019-06-22T18:00:53Z</time>
      </trkpt>
      <trkpt lat="40.495264" lon="-6.579491">
        <ele>752.723</ele>
        <time>2019-06-22T18:00:54Z</time>
      </trkpt>
      <trkpt lat="40.495050" lon="-6.579555">
        <ele>752.582</ele>
        <time>2019-06-22T18:00:55Z</time>
      </trkpt>
      <trkpt lat="40.494848" lon="-6.579627">
        <ele>752.367</ele>
        <time>2019-06-22T18:00:56Z</time>
      </trkpt>
      <trkpt lat="40.494647" lon="-6.579678">
        <ele>752.370</ele>
        <time>2019-06-22T18:00:57Z</time>
      </trkpt>
      <trkpt lat="40.494437" lon="-6.579723">
        <ele>753.464</ele>
        <time>2019-06-22T18:00:58Z</time>
      </trkpt>
      <trkpt lat="40.494222" lon="-6.579758">
        <ele>754.006</ele>
        <time>2019-06-22T18:00:59Z</time>
      </trkpt>
      <trkpt lat="40.494001" lon="-6.579784">
        <ele>754.016</ele>
        <time>2019-06-22T18:01:00Z</time>
      </trkpt>
      <trkpt lat="40.493786" lon="-6.579815">
        <ele>753.808</ele>
        <time>2019-06-22T18:01:01Z</time>
      </trkpt>
      <trkpt lat="40.493570" lon="-6.579855">
        <ele>753.749</ele>
        <time>2019-06-22T18:01:02Z</time>
      </trkpt>
      <trkpt lat="40.493346" lon="-6.579908">
        <ele>753.453</ele>
        <time>2019-06-22T18:01:03Z</time>
      </trkpt>
      <trkpt lat="40.493130" lon="-6.579969">
        <ele>753.485</ele>
        <time>2019-06-22T18:01:04Z</time>
      </trkpt>
      <trkpt lat="40.492912" lon="-6.580037">
        <ele>754.497</ele>
        <time>2019-06-22T18:01:05Z</time>
      </trkpt>
      <trkpt lat="40.492692" lon="-6.580098">
        <ele>756.185</ele>
        <time>2019-06-22T18:01:06Z</time>
      </trkpt>
      <trkpt lat="40.492469" lon="-6.580174">
        <ele>756.514</ele>
        <time>2019-06-22T18:01:07Z</time>
      </trkpt>
      <trkpt lat="40.492250" lon="-6.580239">
        <ele>757.279</ele>
        <time>2019-06-22T18:01:08Z</time>
      </trkpt>
      <trkpt lat="40.492035" lon="-6.580324">
        <ele>757.792</ele>
        <time>2019-06-22T18:01:09Z</time>
      </trkpt>
      <trkpt lat="40.491817" lon="-6.580401">
        <ele>758.487</ele>
        <time>2019-06-22T18:01:10Z</time>
      </trkpt>
      <trkpt lat="40.491591" lon="-6.580493">
        <ele>758.642</ele>
        <time>2019-06-22T18:01:11Z</time>
      </trkpt>
      <trkpt lat="40.491368" lon="-6.580580">
        <ele>758.626</ele>
        <time>2019-06-22T18:01:12Z</time>
      </trkpt>
      <trkpt lat="40.491141" lon="-6.580677">
        <ele>758.808</ele>
        <time>2019-06-22T18:01:13Z</time>
      </trkpt>
      <trkpt lat="40.490910" lon="-6.580775">
        <ele>758.641</ele>
        <time>2019-06-22T18:01:14Z</time>
      </trkpt>
      <trkpt lat="40.490687" lon="-6.580882">
        <ele>758.385</ele>
        <time>2019-06-22T18:01:15Z</time>
      </trkpt>
      <trkpt lat="40.490463" lon="-6.581003">
        <ele>758.377</ele>
        <time>2019-06-22T18:01:16Z</time>
      </trkpt>
      <trkpt lat="40.490241" lon="-6.581123">
        <ele>759.219</ele>
        <time>2019-06-22T18:01:17Z</time>
      </trkpt>
      <trkpt lat="40.490020" lon="-6.581245">
        <ele>761.037</ele>
        <time>2019-06-22T18:01:18Z</time>
      </trkpt>
      <trkpt lat="40.489801" lon="-6.581361">
        <ele>762.816</ele>
        <time>2019-06-22T18:01:19Z</time>
      </trkpt>
      <trkpt lat="40.489589" lon="-6.581469">
        <ele>765.611</ele>
        <time>2019-06-22T18:01:20Z</time>
      </trkpt>
      <trkpt lat="40.489377" lon="-6.581581">
        <ele>765.984</ele>
        <time>2019-06-22T18:01:21Z</time>
      </trkpt>
      <trkpt lat="40.489165" lon="-6.581693">
        <ele>767.121</ele>
        <time>2019-06-22T18:01:22Z</time>
      </trkpt>
      <trkpt lat="40.488955" lon="-6.581805">
        <ele>767.341</ele>
        <time>2019-06-22T18:01:23Z</time>
      </trkpt>
      <trkpt lat="40.488748" lon="-6.581921">
        <ele>767.405</ele>
        <time>2019-06-22T18:01:24Z</time>
      </trkpt>
      <trkpt lat="40.488536" lon="-6.582036">
        <ele>768.408</ele>
        <time>2019-06-22T18:01:25Z</time>
      </trkpt>
      <trkpt lat="40.488326" lon="-6.582141">
        <ele>770.135</ele>
        <time>2019-06-22T18:01:26Z</time>
      </trkpt>
      <trkpt lat="40.488115" lon="-6.582238">
        <ele>770.629</ele>
        <time>2019-06-22T18:01:27Z</time>
      </trkpt>
      <trkpt lat="40.487895" lon="-6.582335">
        <ele>772.251</ele>
        <time>2019-06-22T18:01:28Z</time>
      </trkpt>
      <trkpt lat="40.487676" lon="-6.582413">
        <ele>773.733</ele>
        <time>2019-06-22T18:01:29Z</time>
      </trkpt>
      <trkpt lat="40.487457" lon="-6.582480">
        <ele>774.451</ele>
        <time>2019-06-22T18:01:30Z</time>
      </trkpt>
      <trkpt lat="40.487238" lon="-6.582515">
        <ele>774.440</ele>
        <time>2019-06-22T18:01:31Z</time>
      </trkpt>
      <trkpt lat="40.487019" lon="-6.582541">
        <ele>775.085</ele>
        <time>2019-06-22T18:01:32Z</time>
      </trkpt>
      <trkpt lat="40.486783" lon="-6.582555">
        <ele>775.698</ele>
        <time>2019-06-22T18:01:33Z</time>
      </trkpt>
      <trkpt lat="40.486547" lon="-6.582548">
        <ele>775.783</ele>
        <time>2019-06-22T18:01:34Z</time>
      </trkpt>
      <trkpt lat="40.486316" lon="-6.582520">
        <ele>775.625</ele>
        <time>2019-06-22T18:01:35Z</time>
      </trkpt>
      <trkpt lat="40.486081" lon="-6.582475">
        <ele>775.517</ele>
        <time>2019-06-22T18:01:36Z</time>
      </trkpt>
      <trkpt lat="40.485847" lon="-6.582410">
        <ele>775.508</ele>
        <time>2019-06-22T18:01:37Z</time>
      </trkpt>
      <trkpt lat="40.485615" lon="-6.582328">
        <ele>775.991</ele>
        <time>2019-06-22T18:01:38Z</time>
      </trkpt>
      <trkpt lat="40.485403" lon="-6.582226">
        <ele>776.125</ele>
        <time>2019-06-22T18:01:39Z</time>
      </trkpt>
      <trkpt lat="40.485180" lon="-6.582122">
        <ele>777.177</ele>
        <time>2019-06-22T18:01:40Z</time>
      </trkpt>
      <trkpt lat="40.484973" lon="-6.581993">
        <ele>778.169</ele>
        <time>2019-06-22T18:01:41Z</time>
      </trkpt>
      <trkpt lat="40.484765" lon="-6.581850">
        <ele>779.787</ele>
        <time>2019-06-22T18:01:42Z</time>
      </trkpt>
      <trkpt lat="40.484577" lon="-6.581685">
        <ele>780.826</ele>
        <time>2019-06-22T18:01:43Z</time>
      </trkpt>
      <trkpt lat="40.484391" lon="-6.581513">
        <ele>782.571</ele>
        <time>2019-06-22T18:01:44Z</time>
      </trkpt>
      <trkpt lat="40.484212" lon="-6.581335">
        <ele>784.364</ele>
        <time>2019-06-22T18:01:45Z</time>
      </trkpt>
      <trkpt lat="40.484038" lon="-6.581157">
        <ele>785.468</ele>
        <time>2019-06-22T18:01:46Z</time>
      </trkpt>
      <trkpt lat="40.483867" lon="-6.580971">
        <ele>786.242</ele>
        <time>2019-06-22T18:01:47Z</time>
      </trkpt>
      <trkpt lat="40.483692" lon="-6.580787">
        <ele>787.526</ele>
        <time>2019-06-22T18:01:48Z</time>
      </trkpt>
      <trkpt lat="40.483527" lon="-6.580612">
        <ele>788.608</ele>
        <time>2019-06-22T18:01:49Z</time>
      </trkpt>
      <trkpt lat="40.483342" lon="-6.580424">
        <ele>789.369</ele>
        <time>2019-06-22T18:01:50Z</time>
      </trkpt>
      <trkpt lat="40.483160" lon="-6.580242">
        <ele>790.483</ele>
        <time>2019-06-22T18:01:51Z</time>
      </trkpt>
      <trkpt lat="40.482981" lon="-6.580052">
        <ele>791.245</ele>
        <time>2019-06-22T18:01:52Z</time>
      </trkpt>
      <trkpt lat="40.482805" lon="-6.579861">
        <ele>791.527</ele>
        <time>2019-06-22T18:01:53Z</time>
      </trkpt>
      <trkpt lat="40.482622" lon="-6.579665">
        <ele>791.765</ele>
        <time>2019-06-22T18:01:54Z</time>
      </trkpt>
      <trkpt lat="40.482433" lon="-6.579480">
        <ele>791.724</ele>
        <time>2019-06-22T18:01:55Z</time>
      </trkpt>
      <trkpt lat="40.482252" lon="-6.579280">
        <ele>790.599</ele>
        <time>2019-06-22T18:01:56Z</time>
      </trkpt>
      <trkpt lat="40.482072" lon="-6.579085">
        <ele>789.212</ele>
        <time>2019-06-22T18:01:57Z</time>
      </trkpt>
      <trkpt lat="40.481886" lon="-6.578890">
        <ele>788.433</ele>
        <time>2019-06-22T18:01:58Z</time>
      </trkpt>
      <trkpt lat="40.481704" lon="-6.578692">
        <ele>787.823</ele>
        <time>2019-06-22T18:01:59Z</time>
      </trkpt>
      <trkpt lat="40.481529" lon="-6.578487">
        <ele>787.015</ele>
        <time>2019-06-22T18:02:00Z</time>
      </trkpt>
      <trkpt lat="40.481342" lon="-6.578313">
        <ele>787.008</ele>
        <time>2019-06-22T18:02:01Z</time>
      </trkpt>
      <trkpt lat="40.481149" lon="-6.578151">
        <ele>787.586</ele>
        <time>2019-06-22T18:02:02Z</time>
      </trkpt>
      <trkpt lat="40.480949" lon="-6.577996">
        <ele>787.920</ele>
        <time>2019-06-22T18:02:03Z</time>
      </trkpt>
      <trkpt lat="40.480734" lon="-6.577857">
        <ele>787.922</ele>
        <time>2019-06-22T18:02:04Z</time>
      </trkpt>
      <trkpt lat="40.480509" lon="-6.577740">
        <ele>788.094</ele>
        <time>2019-06-22T18:02:05Z</time>
      </trkpt>
      <trkpt lat="40.480280" lon="-6.577645">
        <ele>787.842</ele>
        <time>2019-06-22T18:02:06Z</time>
      </trkpt>
      <trkpt lat="40.480055" lon="-6.577594">
        <ele>787.911</ele>
        <time>2019-06-22T18:02:07Z</time>
      </trkpt>
      <trkpt lat="40.479800" lon="-6.577549">
        <ele>787.846</ele>
        <time>2019-06-22T18:02:08Z</time>
      </trkpt>
      <trkpt lat="40.479558" lon="-6.577538">
        <ele>787.979</ele>
        <time>2019-06-22T18:02:09Z</time>
      </trkpt>
      <trkpt lat="40.479314" lon="-6.577535">
        <ele>788.367</ele>
        <time>2019-06-22T18:02:10Z</time>
      </trkpt>
      <trkpt lat="40.479085" lon="-6.577566">
        <ele>788.381</ele>
        <time>2019-06-22T18:02:11Z</time>
      </trkpt>
      <trkpt lat="40.478855" lon="-6.577625">
        <ele>788.119</ele>
        <time>2019-06-22T18:02:12Z</time>
      </trkpt>
      <trkpt lat="40.478627" lon="-6.577695">
        <ele>787.808</ele>
        <time>2019-06-22T18:02:13Z</time>
      </trkpt>
      <trkpt lat="40.478410" lon="-6.577784">
        <ele>787.869</ele>
        <time>2019-06-22T18:02:14Z</time>
      </trkpt>
      <trkpt lat="40.478199" lon="-6.577885">
        <ele>787.933</ele>
        <time>2019-06-22T18:02:15Z</time>
      </trkpt>
      <trkpt lat="40.477994" lon="-6.578009">
        <ele>789.055</ele>
        <time>2019-06-22T18:02:16Z</time>
      </trkpt>
      <trkpt lat="40.477797" lon="-6.578132">
        <ele>791.547</ele>
        <time>2019-06-22T18:02:17Z</time>
      </trkpt>
      <trkpt lat="40.477612" lon="-6.578253">
        <ele>793.815</ele>
        <time>2019-06-22T18:02:18Z</time>
      </trkpt>
      <trkpt lat="40.477415" lon="-6.578395">
        <ele>797.434</ele>
        <time>2019-06-22T18:02:19Z</time>
      </trkpt>
      <trkpt lat="40.477220" lon="-6.578531">
        <ele>799.839</ele>
        <time>2019-06-22T18:02:20Z</time>
      </trkpt>
      <trkpt lat="40.477023" lon="-6.578663">
        <ele>801.972</ele>
        <time>2019-06-22T18:02:21Z</time>
      </trkpt>
      <trkpt lat="40.476829" lon="-6.578787">
        <ele>803.037</ele>
        <time>2019-06-22T18:02:22Z</time>
      </trkpt>
      <trkpt lat="40.476645" lon="-6.578920">
        <ele>803.949</ele>
        <time>2019-06-22T18:02:23Z</time>
      </trkpt>
      <trkpt lat="40.476445" lon="-6.579042">
        <ele>804.513</ele>
        <time>2019-06-22T18:02:24Z</time>
      </trkpt>
      <trkpt lat="40.476247" lon="-6.579156">
        <ele>805.008</ele>
        <time>2019-06-22T18:02:25Z</time>
      </trkpt>
      <trkpt lat="40.476050" lon="-6.579285">
        <ele>805.526</ele>
        <time>2019-06-22T18:02:26Z</time>
      </trkpt>
      <trkpt lat="40.475851" lon="-6.579408">
        <ele>805.930</ele>
        <time>2019-06-22T18:02:27Z</time>
      </trkpt>
      <trkpt lat="40.475656" lon="-6.579538">
        <ele>806.012</ele>
        <time>2019-06-22T18:02:28Z</time>
      </trkpt>
      <trkpt lat="40.475458" lon="-6.579650">
        <ele>806.114</ele>
        <time>2019-06-22T18:02:29Z</time>
      </trkpt>
      <trkpt lat="40.475269" lon="-6.579764">
        <ele>806.172</ele>
        <time>2019-06-22T18:02:30Z</time>
      </trkpt>
      <trkpt lat="40.475078" lon="-6.579878">
        <ele>806.131</ele>
        <time>2019-06-22T18:02:31Z</time>
      </trkpt>
      <trkpt lat="40.474886" lon="-6.579994">
        <ele>806.426</ele>
        <time>2019-06-22T18:02:32Z</time>
      </trkpt>
      <trkpt lat="40.474692" lon="-6.580112">
        <ele>807.339</ele>
        <time>2019-06-22T18:02:33Z</time>
      </trkpt>
      <trkpt lat="40.474489" lon="-6.580228">
        <ele>808.829</ele>
        <time>2019-06-22T18:02:34Z</time>
      </trkpt>
      <trkpt lat="40.474292" lon="-6.580337">
        <ele>810.200</ele>
        <time>2019-06-22T18:02:35Z</time>
      </trkpt>
      <trkpt lat="40.474086" lon="-6.580455">
        <ele>811.120</ele>
        <time>2019-06-22T18:02:36Z</time>
      </trkpt>
      <trkpt lat="40.473875" lon="-6.580566">
        <ele>811.108</ele>
        <time>2019-06-22T18:02:37Z</time>
      </trkpt>
      <trkpt lat="40.473662" lon="-6.580680">
        <ele>811.155</ele>
        <time>2019-06-22T18:02:38Z</time>
      </trkpt>
      <trkpt lat="40.473447" lon="-6.580801">
        <ele>810.669</ele>
        <time>2019-06-22T18:02:39Z</time>
      </trkpt>
      <trkpt lat="40.473233" lon="-6.580930">
        <ele>809.131</ele>
        <time>2019-06-22T18:02:40Z</time>
      </trkpt>
      <trkpt lat="40.473009" lon="-6.581046">
        <ele>807.623</ele>
        <time>2019-06-22T18:02:41Z</time>
      </trkpt>
      <trkpt lat="40.472793" lon="-6.581175">
        <ele>806.221</ele>
        <time>2019-06-22T18:02:42Z</time>
      </trkpt>
      <trkpt lat="40.472578" lon="-6.581310">
        <ele>804.810</ele>
        <time>2019-06-22T18:02:43Z</time>
      </trkpt>
      <trkpt lat="40.472366" lon="-6.581450">
        <ele>803.595</ele>
        <time>2019-06-22T18:02:44Z</time>
      </trkpt>
      <trkpt lat="40.472153" lon="-6.581591">
        <ele>803.418</ele>
        <time>2019-06-22T18:02:45Z</time>
      </trkpt>
      <trkpt lat="40.471932" lon="-6.581709">
        <ele>802.783</ele>
        <time>2019-06-22T18:02:46Z</time>
      </trkpt>
      <trkpt lat="40.471711" lon="-6.581825">
        <ele>802.325</ele>
        <time>2019-06-22T18:02:47Z</time>
      </trkpt>
      <trkpt lat="40.471485" lon="-6.581958">
        <ele>801.917</ele>
        <time>2019-06-22T18:02:48Z</time>
      </trkpt>
      <trkpt lat="40.471259" lon="-6.582084">
        <ele>801.308</ele>
        <time>2019-06-22T18:02:49Z</time>
      </trkpt>
      <trkpt lat="40.471044" lon="-6.582220">
        <ele>800.991</ele>
        <time>2019-06-22T18:02:50Z</time>
      </trkpt>
      <trkpt lat="40.470824" lon="-6.582354">
        <ele>800.965</ele>
        <time>2019-06-22T18:02:51Z</time>
      </trkpt>
      <trkpt lat="40.470602" lon="-6.582486">
        <ele>801.447</ele>
        <time>2019-06-22T18:02:52Z</time>
      </trkpt>
      <trkpt lat="40.470374" lon="-6.582614">
        <ele>802.539</ele>
        <time>2019-06-22T18:02:53Z</time>
      </trkpt>
      <trkpt lat="40.470145" lon="-6.582738">
        <ele>802.727</ele>
        <time>2019-06-22T18:02:54Z</time>
      </trkpt>
      <trkpt lat="40.469919" lon="-6.582874">
        <ele>802.746</ele>
        <time>2019-06-22T18:02:55Z</time>
      </trkpt>
      <trkpt lat="40.469693" lon="-6.583009">
        <ele>802.341</ele>
        <time>2019-06-22T18:02:56Z</time>
      </trkpt>
      <trkpt lat="40.469469" lon="-6.583140">
        <ele>801.634</ele>
        <time>2019-06-22T18:02:57Z</time>
      </trkpt>
      <trkpt lat="40.469250" lon="-6.583259">
        <ele>800.255</ele>
        <time>2019-06-22T18:02:58Z</time>
      </trkpt>
      <trkpt lat="40.469026" lon="-6.583392">
        <ele>798.807</ele>
        <time>2019-06-22T18:02:59Z</time>
      </trkpt>
      <trkpt lat="40.468798" lon="-6.583528">
        <ele>798.417</ele>
        <time>2019-06-22T18:03:00Z</time>
      </trkpt>
      <trkpt lat="40.468576" lon="-6.583669">
        <ele>798.408</ele>
        <time>2019-06-22T18:03:01Z</time>
      </trkpt>
      <trkpt lat="40.468355" lon="-6.583802">
        <ele>797.758</ele>
        <time>2019-06-22T18:03:02Z</time>
      </trkpt>
      <trkpt lat="40.468142" lon="-6.583915">
        <ele>797.712</ele>
        <time>2019-06-22T18:03:03Z</time>
      </trkpt>
      <trkpt lat="40.467914" lon="-6.584052">
        <ele>799.184</ele>
        <time>2019-06-22T18:03:04Z</time>
      </trkpt>
      <trkpt lat="40.467682" lon="-6.584184">
        <ele>799.566</ele>
        <time>2019-06-22T18:03:05Z</time>
      </trkpt>
      <trkpt lat="40.467450" lon="-6.584315">
        <ele>799.754</ele>
        <time>2019-06-22T18:03:06Z</time>
      </trkpt>
      <trkpt lat="40.467233" lon="-6.584449">
        <ele>800.153</ele>
        <time>2019-06-22T18:03:07Z</time>
      </trkpt>
      <trkpt lat="40.467001" lon="-6.584581">
        <ele>800.188</ele>
        <time>2019-06-22T18:03:08Z</time>
      </trkpt>
      <trkpt lat="40.466760" lon="-6.584719">
        <ele>799.591</ele>
        <time>2019-06-22T18:03:09Z</time>
      </trkpt>
      <trkpt lat="40.466528" lon="-6.584864">
        <ele>799.476</ele>
        <time>2019-06-22T18:03:10Z</time>
      </trkpt>
      <trkpt lat="40.466292" lon="-6.585017">
        <ele>799.490</ele>
        <time>2019-06-22T18:03:11Z</time>
      </trkpt>
      <trkpt lat="40.466061" lon="-6.585154">
        <ele>799.319</ele>
        <time>2019-06-22T18:03:12Z</time>
      </trkpt>
      <trkpt lat="40.465826" lon="-6.585296">
        <ele>799.408</ele>
        <time>2019-06-22T18:03:13Z</time>
      </trkpt>
      <trkpt lat="40.465593" lon="-6.585420">
        <ele>799.790</ele>
        <time>2019-06-22T18:03:14Z</time>
      </trkpt>
      <trkpt lat="40.465359" lon="-6.585563">
        <ele>799.714</ele>
        <time>2019-06-22T18:03:15Z</time>
      </trkpt>
      <trkpt lat="40.465136" lon="-6.585702">
        <ele>799.786</ele>
        <time>2019-06-22T18:03:16Z</time>
      </trkpt>
      <trkpt lat="40.464903" lon="-6.585835">
        <ele>799.718</ele>
        <time>2019-06-22T18:03:17Z</time>
      </trkpt>
      <trkpt lat="40.464669" lon="-6.585981">
        <ele>799.846</ele>
        <time>2019-06-22T18:03:18Z</time>
      </trkpt>
      <trkpt lat="40.464428" lon="-6.586124">
        <ele>800.025</ele>
        <time>2019-06-22T18:03:19Z</time>
      </trkpt>
      <trkpt lat="40.464204" lon="-6.586271">
        <ele>800.360</ele>
        <time>2019-06-22T18:03:20Z</time>
      </trkpt>
      <trkpt lat="40.463977" lon="-6.586412">
        <ele>800.313</ele>
        <time>2019-06-22T18:03:21Z</time>
      </trkpt>
      <trkpt lat="40.463741" lon="-6.586547">
        <ele>800.317</ele>
        <time>2019-06-22T18:03:22Z</time>
      </trkpt>
      <trkpt lat="40.463509" lon="-6.586678">
        <ele>800.387</ele>
        <time>2019-06-22T18:03:23Z</time>
      </trkpt>
      <trkpt lat="40.463282" lon="-6.586816">
        <ele>799.815</ele>
        <time>2019-06-22T18:03:24Z</time>
      </trkpt>
      <trkpt lat="40.463055" lon="-6.586955">
        <ele>799.708</ele>
        <time>2019-06-22T18:03:25Z</time>
      </trkpt>
      <trkpt lat="40.462821" lon="-6.587093">
        <ele>799.464</ele>
        <time>2019-06-22T18:03:26Z</time>
      </trkpt>
      <trkpt lat="40.462598" lon="-6.587230">
        <ele>799.058</ele>
        <time>2019-06-22T18:03:27Z</time>
      </trkpt>
      <trkpt lat="40.462372" lon="-6.587367">
        <ele>799.010</ele>
        <time>2019-06-22T18:03:28Z</time>
      </trkpt>
      <trkpt lat="40.462145" lon="-6.587501">
        <ele>799.492</ele>
        <time>2019-06-22T18:03:29Z</time>
      </trkpt>
      <trkpt lat="40.461916" lon="-6.587637">
        <ele>799.750</ele>
        <time>2019-06-22T18:03:30Z</time>
      </trkpt>
      <trkpt lat="40.461687" lon="-6.587773">
        <ele>799.719</ele>
        <time>2019-06-22T18:03:31Z</time>
      </trkpt>
      <trkpt lat="40.461460" lon="-6.587912">
        <ele>800.734</ele>
        <time>2019-06-22T18:03:32Z</time>
      </trkpt>
      <trkpt lat="40.461227" lon="-6.588058">
        <ele>800.747</ele>
        <time>2019-06-22T18:03:33Z</time>
      </trkpt>
      <trkpt lat="40.460997" lon="-6.588193">
        <ele>799.868</ele>
        <time>2019-06-22T18:03:34Z</time>
      </trkpt>
      <trkpt lat="40.460780" lon="-6.588326">
        <ele>799.342</ele>
        <time>2019-06-22T18:03:35Z</time>
      </trkpt>
      <trkpt lat="40.460546" lon="-6.588458">
        <ele>798.826</ele>
        <time>2019-06-22T18:03:36Z</time>
      </trkpt>
      <trkpt lat="40.460326" lon="-6.588586">
        <ele>797.708</ele>
        <time>2019-06-22T18:03:37Z</time>
      </trkpt>
      <trkpt lat="40.460102" lon="-6.588721">
        <ele>797.229</ele>
        <time>2019-06-22T18:03:38Z</time>
      </trkpt>
      <trkpt lat="40.459880" lon="-6.588852">
        <ele>797.013</ele>
        <time>2019-06-22T18:03:39Z</time>
      </trkpt>
      <trkpt lat="40.459666" lon="-6.588999">
        <ele>796.715</ele>
        <time>2019-06-22T18:03:40Z</time>
      </trkpt>
      <trkpt lat="40.459447" lon="-6.589127">
        <ele>795.817</ele>
        <time>2019-06-22T18:03:41Z</time>
      </trkpt>
      <trkpt lat="40.459218" lon="-6.589253">
        <ele>795.885</ele>
        <time>2019-06-22T18:03:42Z</time>
      </trkpt>
      <trkpt lat="40.458993" lon="-6.589378">
        <ele>794.914</ele>
        <time>2019-06-22T18:03:43Z</time>
      </trkpt>
      <trkpt lat="40.458765" lon="-6.589487">
        <ele>794.349</ele>
        <time>2019-06-22T18:03:44Z</time>
      </trkpt>
      <trkpt lat="40.458542" lon="-6.589585">
        <ele>794.072</ele>
        <time>2019-06-22T18:03:45Z</time>
      </trkpt>
      <trkpt lat="40.458314" lon="-6.589685">
        <ele>794.053</ele>
        <time>2019-06-22T18:03:46Z</time>
      </trkpt>
      <trkpt lat="40.458079" lon="-6.589748">
        <ele>794.504</ele>
        <time>2019-06-22T18:03:47Z</time>
      </trkpt>
      <trkpt lat="40.457851" lon="-6.589817">
        <ele>795.214</ele>
        <time>2019-06-22T18:03:48Z</time>
      </trkpt>
      <trkpt lat="40.457634" lon="-6.589872">
        <ele>795.408</ele>
        <time>2019-06-22T18:03:49Z</time>
      </trkpt>
      <trkpt lat="40.457407" lon="-6.589923">
        <ele>795.788</ele>
        <time>2019-06-22T18:03:50Z</time>
      </trkpt>
      <trkpt lat="40.457177" lon="-6.589984">
        <ele>796.682</ele>
        <time>2019-06-22T18:03:51Z</time>
      </trkpt>
      <trkpt lat="40.456944" lon="-6.590043">
        <ele>797.464</ele>
        <time>2019-06-22T18:03:52Z</time>
      </trkpt>
      <trkpt lat="40.456715" lon="-6.590113">
        <ele>797.996</ele>
        <time>2019-06-22T18:03:53Z</time>
      </trkpt>
      <trkpt lat="40.456492" lon="-6.590170">
        <ele>798.814</ele>
        <time>2019-06-22T18:03:54Z</time>
      </trkpt>
      <trkpt lat="40.456254" lon="-6.590234">
        <ele>799.373</ele>
        <time>2019-06-22T18:03:55Z</time>
      </trkpt>
      <trkpt lat="40.456010" lon="-6.590300">
        <ele>799.628</ele>
        <time>2019-06-22T18:03:56Z</time>
      </trkpt>
      <trkpt lat="40.455772" lon="-6.590355">
        <ele>799.781</ele>
        <time>2019-06-22T18:03:57Z</time>
      </trkpt>
      <trkpt lat="40.455531" lon="-6.590400">
        <ele>800.214</ele>
        <time>2019-06-22T18:03:58Z</time>
      </trkpt>
      <trkpt lat="40.455288" lon="-6.590454">
        <ele>801.354</ele>
        <time>2019-06-22T18:03:59Z</time>
      </trkpt>
      <trkpt lat="40.455048" lon="-6.590502">
        <ele>801.609</ele>
        <time>2019-06-22T18:04:00Z</time>
      </trkpt>
      <trkpt lat="40.454806" lon="-6.590555">
        <ele>802.108</ele>
        <time>2019-06-22T18:04:01Z</time>
      </trkpt>
      <trkpt lat="40.454565" lon="-6.590620">
        <ele>803.654</ele>
        <time>2019-06-22T18:04:02Z</time>
      </trkpt>
      <trkpt lat="40.454326" lon="-6.590691">
        <ele>804.328</ele>
        <time>2019-06-22T18:04:03Z</time>
      </trkpt>
      <trkpt lat="40.454091" lon="-6.590770">
        <ele>804.440</ele>
        <time>2019-06-22T18:04:04Z</time>
      </trkpt>
      <trkpt lat="40.453863" lon="-6.590849">
        <ele>804.332</ele>
        <time>2019-06-22T18:04:05Z</time>
      </trkpt>
      <trkpt lat="40.453631" lon="-6.590923">
        <ele>804.270</ele>
        <time>2019-06-22T18:04:06Z</time>
      </trkpt>
      <trkpt lat="40.453401" lon="-6.591007">
        <ele>802.799</ele>
        <time>2019-06-22T18:04:07Z</time>
      </trkpt>
      <trkpt lat="40.453173" lon="-6.591091">
        <ele>802.314</ele>
        <time>2019-06-22T18:04:08Z</time>
      </trkpt>
      <trkpt lat="40.452945" lon="-6.591185">
        <ele>802.397</ele>
        <time>2019-06-22T18:04:09Z</time>
      </trkpt>
      <trkpt lat="40.452725" lon="-6.591295">
        <ele>802.369</ele>
        <time>2019-06-22T18:04:10Z</time>
      </trkpt>
      <trkpt lat="40.452501" lon="-6.591400">
        <ele>802.604</ele>
        <time>2019-06-22T18:04:11Z</time>
      </trkpt>
      <trkpt lat="40.452287" lon="-6.591499">
        <ele>802.824</ele>
        <time>2019-06-22T18:04:12Z</time>
      </trkpt>
      <trkpt lat="40.452059" lon="-6.591626">
        <ele>803.308</ele>
        <time>2019-06-22T18:04:13Z</time>
      </trkpt>
      <trkpt lat="40.451841" lon="-6.591757">
        <ele>803.459</ele>
        <time>2019-06-22T18:04:14Z</time>
      </trkpt>
      <trkpt lat="40.451630" lon="-6.591887">
        <ele>803.413</ele>
        <time>2019-06-22T18:04:15Z</time>
      </trkpt>
      <trkpt lat="40.451410" lon="-6.592022">
        <ele>803.585</ele>
        <time>2019-06-22T18:04:16Z</time>
      </trkpt>
      <trkpt lat="40.451192" lon="-6.592159">
        <ele>803.537</ele>
        <time>2019-06-22T18:04:17Z</time>
      </trkpt>
      <trkpt lat="40.450973" lon="-6.592299">
        <ele>803.395</ele>
        <time>2019-06-22T18:04:18Z</time>
      </trkpt>
      <trkpt lat="40.450751" lon="-6.592458">
        <ele>802.474</ele>
        <time>2019-06-22T18:04:19Z</time>
      </trkpt>
      <trkpt lat="40.450527" lon="-6.592618">
        <ele>802.379</ele>
        <time>2019-06-22T18:04:20Z</time>
      </trkpt>
      <trkpt lat="40.450316" lon="-6.592779">
        <ele>802.112</ele>
        <time>2019-06-22T18:04:21Z</time>
      </trkpt>
      <trkpt lat="40.450104" lon="-6.592939">
        <ele>802.042</ele>
        <time>2019-06-22T18:04:22Z</time>
      </trkpt>
      <trkpt lat="40.449893" lon="-6.593101">
        <ele>801.722</ele>
        <time>2019-06-22T18:04:23Z</time>
      </trkpt>
      <trkpt lat="40.449680" lon="-6.593260">
        <ele>801.414</ele>
        <time>2019-06-22T18:04:24Z</time>
      </trkpt>
      <trkpt lat="40.449468" lon="-6.593426">
        <ele>801.308</ele>
        <time>2019-06-22T18:04:25Z</time>
      </trkpt>
      <trkpt lat="40.449262" lon="-6.593600">
        <ele>801.227</ele>
        <time>2019-06-22T18:04:26Z</time>
      </trkpt>
      <trkpt lat="40.449064" lon="-6.593787">
        <ele>801.131</ele>
        <time>2019-06-22T18:04:27Z</time>
      </trkpt>
      <trkpt lat="40.448879" lon="-6.593961">
        <ele>801.193</ele>
        <time>2019-06-22T18:04:28Z</time>
      </trkpt>
      <trkpt lat="40.448686" lon="-6.594143">
        <ele>801.015</ele>
        <time>2019-06-22T18:04:29Z</time>
      </trkpt>
      <trkpt lat="40.448497" lon="-6.594321">
        <ele>801.063</ele>
        <time>2019-06-22T18:04:30Z</time>
      </trkpt>
      <trkpt lat="40.448316" lon="-6.594515">
        <ele>801.072</ele>
        <time>2019-06-22T18:04:31Z</time>
      </trkpt>
      <trkpt lat="40.448141" lon="-6.594716">
        <ele>801.297</ele>
        <time>2019-06-22T18:04:32Z</time>
      </trkpt>
      <trkpt lat="40.447959" lon="-6.594919">
        <ele>801.680</ele>
        <time>2019-06-22T18:04:33Z</time>
      </trkpt>
      <trkpt lat="40.447778" lon="-6.595123">
        <ele>801.612</ele>
        <time>2019-06-22T18:04:34Z</time>
      </trkpt>
      <trkpt lat="40.447611" lon="-6.595356">
        <ele>800.932</ele>
        <time>2019-06-22T18:04:35Z</time>
      </trkpt>
      <trkpt lat="40.447439" lon="-6.595574">
        <ele>799.405</ele>
        <time>2019-06-22T18:04:36Z</time>
      </trkpt>
      <trkpt lat="40.447270" lon="-6.595801">
        <ele>798.808</ele>
        <time>2019-06-22T18:04:37Z</time>
      </trkpt>
      <trkpt lat="40.447100" lon="-6.596000">
        <ele>797.764</ele>
        <time>2019-06-22T18:04:38Z</time>
      </trkpt>
      <trkpt lat="40.446943" lon="-6.596241">
        <ele>796.588</ele>
        <time>2019-06-22T18:04:39Z</time>
      </trkpt>
      <trkpt lat="40.446769" lon="-6.596453">
        <ele>795.450</ele>
        <time>2019-06-22T18:04:40Z</time>
      </trkpt>
      <trkpt lat="40.446608" lon="-6.596695">
        <ele>795.272</ele>
        <time>2019-06-22T18:04:41Z</time>
      </trkpt>
      <trkpt lat="40.446451" lon="-6.596936">
        <ele>794.080</ele>
        <time>2019-06-22T18:04:42Z</time>
      </trkpt>
      <trkpt lat="40.446287" lon="-6.597166">
        <ele>792.819</ele>
        <time>2019-06-22T18:04:43Z</time>
      </trkpt>
      <trkpt lat="40.446118" lon="-6.597405">
        <ele>791.744</ele>
        <time>2019-06-22T18:04:44Z</time>
      </trkpt>
      <trkpt lat="40.445955" lon="-6.597642">
        <ele>791.767</ele>
        <time>2019-06-22T18:04:45Z</time>
      </trkpt>
      <trkpt lat="40.445798" lon="-6.597859">
        <ele>791.332</ele>
        <time>2019-06-22T18:04:46Z</time>
      </trkpt>
      <trkpt lat="40.445634" lon="-6.598097">
        <ele>789.092</ele>
        <time>2019-06-22T18:04:47Z</time>
      </trkpt>
      <trkpt lat="40.445477" lon="-6.598343">
        <ele>787.811</ele>
        <time>2019-06-22T18:04:48Z</time>
      </trkpt>
      <trkpt lat="40.445309" lon="-6.598557">
        <ele>786.408</ele>
        <time>2019-06-22T18:04:49Z</time>
      </trkpt>
      <trkpt lat="40.445150" lon="-6.598795">
        <ele>785.966</ele>
        <time>2019-06-22T18:04:50Z</time>
      </trkpt>
      <trkpt lat="40.444980" lon="-6.599025">
        <ele>785.960</ele>
        <time>2019-06-22T18:04:51Z</time>
      </trkpt>
      <trkpt lat="40.444793" lon="-6.599253">
        <ele>786.062</ele>
        <time>2019-06-22T18:04:52Z</time>
      </trkpt>
      <trkpt lat="40.444606" lon="-6.599475">
        <ele>786.144</ele>
        <time>2019-06-22T18:04:53Z</time>
      </trkpt>
      <trkpt lat="40.444426" lon="-6.599696">
        <ele>786.142</ele>
        <time>2019-06-22T18:04:54Z</time>
      </trkpt>
      <trkpt lat="40.444237" lon="-6.599900">
        <ele>785.621</ele>
        <time>2019-06-22T18:04:55Z</time>
      </trkpt>
      <trkpt lat="40.444050" lon="-6.600097">
        <ele>784.796</ele>
        <time>2019-06-22T18:04:56Z</time>
      </trkpt>
      <trkpt lat="40.443858" lon="-6.600305">
        <ele>784.169</ele>
        <time>2019-06-22T18:04:57Z</time>
      </trkpt>
      <trkpt lat="40.443646" lon="-6.600518">
        <ele>783.518</ele>
        <time>2019-06-22T18:04:58Z</time>
      </trkpt>
      <trkpt lat="40.443446" lon="-6.600723">
        <ele>782.798</ele>
        <time>2019-06-22T18:04:59Z</time>
      </trkpt>
      <trkpt lat="40.443235" lon="-6.600890">
        <ele>782.417</ele>
        <time>2019-06-22T18:05:00Z</time>
      </trkpt>
      <trkpt lat="40.443025" lon="-6.601079">
        <ele>781.508</ele>
        <time>2019-06-22T18:05:01Z</time>
      </trkpt>
      <trkpt lat="40.442816" lon="-6.601261">
        <ele>780.834</ele>
        <time>2019-06-22T18:05:02Z</time>
      </trkpt>
      <trkpt lat="40.442600" lon="-6.601432">
        <ele>780.768</ele>
        <time>2019-06-22T18:05:03Z</time>
      </trkpt>
      <trkpt lat="40.442378" lon="-6.601612">
        <ele>780.770</ele>
        <time>2019-06-22T18:05:04Z</time>
      </trkpt>
      <trkpt lat="40.442164" lon="-6.601759">
        <ele>780.682</ele>
        <time>2019-06-22T18:05:05Z</time>
      </trkpt>
      <trkpt lat="40.441947" lon="-6.601926">
        <ele>780.430</ele>
        <time>2019-06-22T18:05:06Z</time>
      </trkpt>
      <trkpt lat="40.441729" lon="-6.602063">
        <ele>780.459</ele>
        <time>2019-06-22T18:05:07Z</time>
      </trkpt>
      <trkpt lat="40.441501" lon="-6.602217">
        <ele>780.214</ele>
        <time>2019-06-22T18:05:08Z</time>
      </trkpt>
      <trkpt lat="40.441276" lon="-6.602372">
        <ele>779.457</ele>
        <time>2019-06-22T18:05:09Z</time>
      </trkpt>
      <trkpt lat="40.441044" lon="-6.602520">
        <ele>779.447</ele>
        <time>2019-06-22T18:05:10Z</time>
      </trkpt>
      <trkpt lat="40.440809" lon="-6.602665">
        <ele>780.029</ele>
        <time>2019-06-22T18:05:11Z</time>
      </trkpt>
      <trkpt lat="40.440578" lon="-6.602796">
        <ele>781.021</ele>
        <time>2019-06-22T18:05:12Z</time>
      </trkpt>
      <trkpt lat="40.440345" lon="-6.602926">
        <ele>781.208</ele>
        <time>2019-06-22T18:05:13Z</time>
      </trkpt>
      <trkpt lat="40.440112" lon="-6.603052">
        <ele>782.617</ele>
        <time>2019-06-22T18:05:14Z</time>
      </trkpt>
      <trkpt lat="40.439873" lon="-6.603166">
        <ele>782.681</ele>
        <time>2019-06-22T18:05:15Z</time>
      </trkpt>
      <trkpt lat="40.439630" lon="-6.603272">
        <ele>782.293</ele>
        <time>2019-06-22T18:05:16Z</time>
      </trkpt>
      <trkpt lat="40.439390" lon="-6.603357">
        <ele>781.585</ele>
        <time>2019-06-22T18:05:17Z</time>
      </trkpt>
      <trkpt lat="40.439152" lon="-6.603451">
        <ele>781.423</ele>
        <time>2019-06-22T18:05:18Z</time>
      </trkpt>
      <trkpt lat="40.438909" lon="-6.603549">
        <ele>781.432</ele>
        <time>2019-06-22T18:05:19Z</time>
      </trkpt>
      <trkpt lat="40.438670" lon="-6.603623">
        <ele>781.157</ele>
        <time>2019-06-22T18:05:20Z</time>
      </trkpt>
      <trkpt lat="40.438430" lon="-6.603704">
        <ele>780.640</ele>
        <time>2019-06-22T18:05:21Z</time>
      </trkpt>
      <trkpt lat="40.438189" lon="-6.603771">
        <ele>780.589</ele>
        <time>2019-06-22T18:05:22Z</time>
      </trkpt>
      <trkpt lat="40.437947" lon="-6.603838">
        <ele>780.506</ele>
        <time>2019-06-22T18:05:23Z</time>
      </trkpt>
      <trkpt lat="40.437701" lon="-6.603904">
        <ele>780.526</ele>
        <time>2019-06-22T18:05:24Z</time>
      </trkpt>
      <trkpt lat="40.437456" lon="-6.603970">
        <ele>780.808</ele>
        <time>2019-06-22T18:05:25Z</time>
      </trkpt>
      <trkpt lat="40.437215" lon="-6.604036">
        <ele>781.061</ele>
        <time>2019-06-22T18:05:26Z</time>
      </trkpt>
      <trkpt lat="40.436969" lon="-6.604102">
        <ele>781.485</ele>
        <time>2019-06-22T18:05:27Z</time>
      </trkpt>
      <trkpt lat="40.436727" lon="-6.604161">
        <ele>781.917</ele>
        <time>2019-06-22T18:05:28Z</time>
      </trkpt>
      <trkpt lat="40.436481" lon="-6.604216">
        <ele>782.389</ele>
        <time>2019-06-22T18:05:29Z</time>
      </trkpt>
      <trkpt lat="40.436229" lon="-6.604294">
        <ele>782.377</ele>
        <time>2019-06-22T18:05:30Z</time>
      </trkpt>
      <trkpt lat="40.435977" lon="-6.604362">
        <ele>782.386</ele>
        <time>2019-06-22T18:05:31Z</time>
      </trkpt>
      <trkpt lat="40.435726" lon="-6.604430">
        <ele>782.521</ele>
        <time>2019-06-22T18:05:32Z</time>
      </trkpt>
      <trkpt lat="40.435475" lon="-6.604506">
        <ele>782.574</ele>
        <time>2019-06-22T18:05:33Z</time>
      </trkpt>
      <trkpt lat="40.435220" lon="-6.604589">
        <ele>782.482</ele>
        <time>2019-06-22T18:05:34Z</time>
      </trkpt>
      <trkpt lat="40.434984" lon="-6.604662">
        <ele>782.443</ele>
        <time>2019-06-22T18:05:35Z</time>
      </trkpt>
      <trkpt lat="40.434739" lon="-6.604728">
        <ele>782.517</ele>
        <time>2019-06-22T18:05:36Z</time>
      </trkpt>
      <trkpt lat="40.434492" lon="-6.604785">
        <ele>782.508</ele>
        <time>2019-06-22T18:05:37Z</time>
      </trkpt>
      <trkpt lat="40.434236" lon="-6.604859">
        <ele>782.281</ele>
        <time>2019-06-22T18:05:38Z</time>
      </trkpt>
      <trkpt lat="40.433990" lon="-6.604922">
        <ele>782.145</ele>
        <time>2019-06-22T18:05:39Z</time>
      </trkpt>
      <trkpt lat="40.433762" lon="-6.604985">
        <ele>781.657</ele>
        <time>2019-06-22T18:05:40Z</time>
      </trkpt>
      <trkpt lat="40.433542" lon="-6.605042">
        <ele>778.599</ele>
        <time>2019-06-22T18:05:41Z</time>
      </trkpt>
      <trkpt lat="40.433325" lon="-6.605079">
        <ele>774.737</ele>
        <time>2019-06-22T18:05:42Z</time>
      </trkpt>
      <trkpt lat="40.433125" lon="-6.605108">
        <ele>773.796</ele>
        <time>2019-06-22T18:05:43Z</time>
      </trkpt>
      <trkpt lat="40.432904" lon="-6.605124">
        <ele>773.561</ele>
        <time>2019-06-22T18:05:44Z</time>
      </trkpt>
      <trkpt lat="40.432708" lon="-6.605081">
        <ele>773.574</ele>
        <time>2019-06-22T18:05:45Z</time>
      </trkpt>
      <trkpt lat="40.432497" lon="-6.605029">
        <ele>776.135</ele>
        <time>2019-06-22T18:05:46Z</time>
      </trkpt>
      <trkpt lat="40.432281" lon="-6.604963">
        <ele>779.586</ele>
        <time>2019-06-22T18:05:47Z</time>
      </trkpt>
      <trkpt lat="40.432092" lon="-6.604861">
        <ele>780.014</ele>
        <time>2019-06-22T18:05:48Z</time>
      </trkpt>
      <trkpt lat="40.431889" lon="-6.604750">
        <ele>780.708</ele>
        <time>2019-06-22T18:05:49Z</time>
      </trkpt>
      <trkpt lat="40.431700" lon="-6.604598">
        <ele>780.816</ele>
        <time>2019-06-22T18:05:50Z</time>
      </trkpt>
      <trkpt lat="40.431515" lon="-6.604447">
        <ele>780.830</ele>
        <time>2019-06-22T18:05:51Z</time>
      </trkpt>
      <trkpt lat="40.431347" lon="-6.604244">
        <ele>782.062</ele>
        <time>2019-06-22T18:05:52Z</time>
      </trkpt>
      <trkpt lat="40.431183" lon="-6.604028">
        <ele>782.064</ele>
        <time>2019-06-22T18:05:53Z</time>
      </trkpt>
      <trkpt lat="40.431036" lon="-6.603804">
        <ele>782.242</ele>
        <time>2019-06-22T18:05:54Z</time>
      </trkpt>
      <trkpt lat="40.430878" lon="-6.603571">
        <ele>782.261</ele>
        <time>2019-06-22T18:05:55Z</time>
      </trkpt>
      <trkpt lat="40.430728" lon="-6.603340">
        <ele>781.026</ele>
        <time>2019-06-22T18:05:56Z</time>
      </trkpt>
      <trkpt lat="40.430576" lon="-6.603111">
        <ele>780.099</ele>
        <time>2019-06-22T18:05:57Z</time>
      </trkpt>
      <trkpt lat="40.430424" lon="-6.602879">
        <ele>779.356</ele>
        <time>2019-06-22T18:05:58Z</time>
      </trkpt>
      <trkpt lat="40.430260" lon="-6.602646">
        <ele>778.559</ele>
        <time>2019-06-22T18:05:59Z</time>
      </trkpt>
      <trkpt lat="40.430102" lon="-6.602407">
        <ele>777.914</ele>
        <time>2019-06-22T18:06:00Z</time>
      </trkpt>
      <trkpt lat="40.429948" lon="-6.602171">
        <ele>777.108</ele>
        <time>2019-06-22T18:06:01Z</time>
      </trkpt>
      <trkpt lat="40.429787" lon="-6.601929">
        <ele>776.728</ele>
        <time>2019-06-22T18:06:02Z</time>
      </trkpt>
      <trkpt lat="40.429625" lon="-6.601689">
        <ele>776.682</ele>
        <time>2019-06-22T18:06:03Z</time>
      </trkpt>
      <trkpt lat="40.429471" lon="-6.601441">
        <ele>776.294</ele>
        <time>2019-06-22T18:06:04Z</time>
      </trkpt>
      <trkpt lat="40.429318" lon="-6.601208">
        <ele>776.246</ele>
        <time>2019-06-22T18:06:05Z</time>
      </trkpt>
      <trkpt lat="40.429158" lon="-6.600966">
        <ele>777.014</ele>
        <time>2019-06-22T18:06:06Z</time>
      </trkpt>
      <trkpt lat="40.429001" lon="-6.600723">
        <ele>778.013</ele>
        <time>2019-06-22T18:06:07Z</time>
      </trkpt>
      <trkpt lat="40.428836" lon="-6.600488">
        <ele>778.028</ele>
        <time>2019-06-22T18:06:08Z</time>
      </trkpt>
      <trkpt lat="40.428681" lon="-6.600263">
        <ele>777.791</ele>
        <time>2019-06-22T18:06:09Z</time>
      </trkpt>
      <trkpt lat="40.428531" lon="-6.600042">
        <ele>777.264</ele>
        <time>2019-06-22T18:06:10Z</time>
      </trkpt>
      <trkpt lat="40.428371" lon="-6.599847">
        <ele>775.506</ele>
        <time>2019-06-22T18:06:11Z</time>
      </trkpt>
      <trkpt lat="40.428207" lon="-6.599668">
        <ele>772.516</ele>
        <time>2019-06-22T18:06:12Z</time>
      </trkpt>
      <trkpt lat="40.428033" lon="-6.599510">
        <ele>772.408</ele>
        <time>2019-06-22T18:06:13Z</time>
      </trkpt>
      <trkpt lat="40.427845" lon="-6.599380">
        <ele>772.519</ele>
        <time>2019-06-22T18:06:14Z</time>
      </trkpt>
      <trkpt lat="40.427654" lon="-6.599277">
        <ele>772.883</ele>
        <time>2019-06-22T18:06:15Z</time>
      </trkpt>
      <trkpt lat="40.427449" lon="-6.599185">
        <ele>774.795</ele>
        <time>2019-06-22T18:06:16Z</time>
      </trkpt>
      <trkpt lat="40.427238" lon="-6.599103">
        <ele>778.327</ele>
        <time>2019-06-22T18:06:17Z</time>
      </trkpt>
      <trkpt lat="40.427025" lon="-6.599053">
        <ele>779.895</ele>
        <time>2019-06-22T18:06:18Z</time>
      </trkpt>
      <trkpt lat="40.426811" lon="-6.599012">
        <ele>781.794</ele>
        <time>2019-06-22T18:06:19Z</time>
      </trkpt>
      <trkpt lat="40.426590" lon="-6.599033">
        <ele>783.149</ele>
        <time>2019-06-22T18:06:20Z</time>
      </trkpt>
      <trkpt lat="40.426366" lon="-6.599052">
        <ele>785.482</ele>
        <time>2019-06-22T18:06:21Z</time>
      </trkpt>
      <trkpt lat="40.426149" lon="-6.599085">
        <ele>786.356</ele>
        <time>2019-06-22T18:06:22Z</time>
      </trkpt>
      <trkpt lat="40.425943" lon="-6.599108">
        <ele>786.759</ele>
        <time>2019-06-22T18:06:23Z</time>
      </trkpt>
      <trkpt lat="40.425728" lon="-6.599165">
        <ele>787.414</ele>
        <time>2019-06-22T18:06:24Z</time>
      </trkpt>
      <trkpt lat="40.425510" lon="-6.599214">
        <ele>789.808</ele>
        <time>2019-06-22T18:06:25Z</time>
      </trkpt>
      <trkpt lat="40.425294" lon="-6.599268">
        <ele>790.768</ele>
        <time>2019-06-22T18:06:26Z</time>
      </trkpt>
      <trkpt lat="40.425075" lon="-6.599310">
        <ele>791.622</ele>
        <time>2019-06-22T18:06:27Z</time>
      </trkpt>
      <trkpt lat="40.424859" lon="-6.599364">
        <ele>792.524</ele>
        <time>2019-06-22T18:06:28Z</time>
      </trkpt>
      <trkpt lat="40.424649" lon="-6.599416">
        <ele>792.946</ele>
        <time>2019-06-22T18:06:29Z</time>
      </trkpt>
      <trkpt lat="40.424440" lon="-6.599470">
        <ele>792.974</ele>
        <time>2019-06-22T18:06:30Z</time>
      </trkpt>
      <trkpt lat="40.424233" lon="-6.599521">
        <ele>792.343</ele>
        <time>2019-06-22T18:06:31Z</time>
      </trkpt>
      <trkpt lat="40.424030" lon="-6.599576">
        <ele>792.278</ele>
        <time>2019-06-22T18:06:32Z</time>
      </trkpt>
      <trkpt lat="40.423828" lon="-6.599617">
        <ele>792.161</ele>
        <time>2019-06-22T18:06:33Z</time>
      </trkpt>
      <trkpt lat="40.423620" lon="-6.599658">
        <ele>792.143</ele>
        <time>2019-06-22T18:06:34Z</time>
      </trkpt>
      <trkpt lat="40.423421" lon="-6.599709">
        <ele>792.764</ele>
        <time>2019-06-22T18:06:35Z</time>
      </trkpt>
      <trkpt lat="40.423220" lon="-6.599768">
        <ele>793.610</ele>
        <time>2019-06-22T18:06:36Z</time>
      </trkpt>
      <trkpt lat="40.423026" lon="-6.599821">
        <ele>794.008</ele>
        <time>2019-06-22T18:06:37Z</time>
      </trkpt>
      <trkpt lat="40.422831" lon="-6.599875">
        <ele>795.427</ele>
        <time>2019-06-22T18:06:38Z</time>
      </trkpt>
      <trkpt lat="40.422632" lon="-6.599930">
        <ele>796.441</ele>
        <time>2019-06-22T18:06:39Z</time>
      </trkpt>
      <trkpt lat="40.422439" lon="-6.599977">
        <ele>796.663</ele>
        <time>2019-06-22T18:06:40Z</time>
      </trkpt>
      <trkpt lat="40.422241" lon="-6.600026">
        <ele>797.385</ele>
        <time>2019-06-22T18:06:41Z</time>
      </trkpt>
      <trkpt lat="40.422048" lon="-6.600077">
        <ele>799.353</ele>
        <time>2019-06-22T18:06:42Z</time>
      </trkpt>
      <trkpt lat="40.421855" lon="-6.600112">
        <ele>799.382</ele>
        <time>2019-06-22T18:06:43Z</time>
      </trkpt>
      <trkpt lat="40.421657" lon="-6.600165">
        <ele>799.357</ele>
        <time>2019-06-22T18:06:44Z</time>
      </trkpt>
      <trkpt lat="40.421452" lon="-6.600227">
        <ele>800.190</ele>
        <time>2019-06-22T18:06:45Z</time>
      </trkpt>
      <trkpt lat="40.421244" lon="-6.600282">
        <ele>800.635</ele>
        <time>2019-06-22T18:06:46Z</time>
      </trkpt>
      <trkpt lat="40.421036" lon="-6.600333">
        <ele>801.286</ele>
        <time>2019-06-22T18:06:47Z</time>
      </trkpt>
      <trkpt lat="40.420821" lon="-6.600381">
        <ele>801.414</ele>
        <time>2019-06-22T18:06:48Z</time>
      </trkpt>
      <trkpt lat="40.420613" lon="-6.600438">
        <ele>802.108</ele>
        <time>2019-06-22T18:06:49Z</time>
      </trkpt>
      <trkpt lat="40.420398" lon="-6.600487">
        <ele>803.056</ele>
        <time>2019-06-22T18:06:50Z</time>
      </trkpt>
      <trkpt lat="40.420182" lon="-6.600543">
        <ele>803.670</ele>
        <time>2019-06-22T18:06:51Z</time>
      </trkpt>
      <trkpt lat="40.419967" lon="-6.600599">
        <ele>804.872</ele>
        <time>2019-06-22T18:06:52Z</time>
      </trkpt>
      <trkpt lat="40.419770" lon="-6.600655">
        <ele>805.364</ele>
        <time>2019-06-22T18:06:53Z</time>
      </trkpt>
      <trkpt lat="40.419561" lon="-6.600711">
        <ele>805.362</ele>
        <time>2019-06-22T18:06:54Z</time>
      </trkpt>
      <trkpt lat="40.419344" lon="-6.600771">
        <ele>805.041</ele>
        <time>2019-06-22T18:06:55Z</time>
      </trkpt>
      <trkpt lat="40.419125" lon="-6.600817">
        <ele>805.096</ele>
        <time>2019-06-22T18:06:56Z</time>
      </trkpt>
      <trkpt lat="40.418910" lon="-6.600879">
        <ele>805.019</ele>
        <time>2019-06-22T18:06:57Z</time>
      </trkpt>
      <trkpt lat="40.418690" lon="-6.600933">
        <ele>805.382</ele>
        <time>2019-06-22T18:06:58Z</time>
      </trkpt>
      <trkpt lat="40.418478" lon="-6.600985">
        <ele>805.743</ele>
        <time>2019-06-22T18:06:59Z</time>
      </trkpt>
      <trkpt lat="40.418265" lon="-6.601012">
        <ele>806.017</ele>
        <time>2019-06-22T18:07:00Z</time>
      </trkpt>
      <trkpt lat="40.418044" lon="-6.601093">
        <ele>806.408</ele>
        <time>2019-06-22T18:07:01Z</time>
      </trkpt>
      <trkpt lat="40.417828" lon="-6.601152">
        <ele>806.461</ele>
        <time>2019-06-22T18:07:02Z</time>
      </trkpt>
      <trkpt lat="40.417621" lon="-6.601204">
        <ele>806.215</ele>
        <time>2019-06-22T18:07:03Z</time>
      </trkpt>
      <trkpt lat="40.417401" lon="-6.601254">
        <ele>806.277</ele>
        <time>2019-06-22T18:07:04Z</time>
      </trkpt>
      <trkpt lat="40.417183" lon="-6.601300">
        <ele>806.229</ele>
        <time>2019-06-22T18:07:05Z</time>
      </trkpt>
      <trkpt lat="40.416967" lon="-6.601356">
        <ele>805.927</ele>
        <time>2019-06-22T18:07:06Z</time>
      </trkpt>
      <trkpt lat="40.416737" lon="-6.601417">
        <ele>805.496</ele>
        <time>2019-06-22T18:07:07Z</time>
      </trkpt>
      <trkpt lat="40.416497" lon="-6.601485">
        <ele>805.461</ele>
        <time>2019-06-22T18:07:08Z</time>
      </trkpt>
      <trkpt lat="40.416260" lon="-6.601546">
        <ele>804.944</ele>
        <time>2019-06-22T18:07:09Z</time>
      </trkpt>
      <trkpt lat="40.416033" lon="-6.601616">
        <ele>804.326</ele>
        <time>2019-06-22T18:07:10Z</time>
      </trkpt>
      <trkpt lat="40.415791" lon="-6.601680">
        <ele>803.447</ele>
        <time>2019-06-22T18:07:11Z</time>
      </trkpt>
      <trkpt lat="40.415541" lon="-6.601749">
        <ele>803.111</ele>
        <time>2019-06-22T18:07:12Z</time>
      </trkpt>
      <trkpt lat="40.415298" lon="-6.601814">
        <ele>802.508</ele>
        <time>2019-06-22T18:07:13Z</time>
      </trkpt>
      <trkpt lat="40.415037" lon="-6.601881">
        <ele>802.595</ele>
        <time>2019-06-22T18:07:14Z</time>
      </trkpt>
      <trkpt lat="40.414796" lon="-6.601955">
        <ele>802.249</ele>
        <time>2019-06-22T18:07:15Z</time>
      </trkpt>
      <trkpt lat="40.414543" lon="-6.602021">
        <ele>802.231</ele>
        <time>2019-06-22T18:07:16Z</time>
      </trkpt>
      <trkpt lat="40.414290" lon="-6.602098">
        <ele>802.023</ele>
        <time>2019-06-22T18:07:17Z</time>
      </trkpt>
      <trkpt lat="40.414029" lon="-6.602158">
        <ele>802.041</ele>
        <time>2019-06-22T18:07:18Z</time>
      </trkpt>
      <trkpt lat="40.413791" lon="-6.602243">
        <ele>801.850</ele>
        <time>2019-06-22T18:07:19Z</time>
      </trkpt>
      <trkpt lat="40.413537" lon="-6.602313">
        <ele>801.875</ele>
        <time>2019-06-22T18:07:20Z</time>
      </trkpt>
      <trkpt lat="40.413286" lon="-6.602381">
        <ele>801.858</ele>
        <time>2019-06-22T18:07:21Z</time>
      </trkpt>
      <trkpt lat="40.413037" lon="-6.602440">
        <ele>801.883</ele>
        <time>2019-06-22T18:07:22Z</time>
      </trkpt>
      <trkpt lat="40.412786" lon="-6.602503">
        <ele>801.725</ele>
        <time>2019-06-22T18:07:23Z</time>
      </trkpt>
      <trkpt lat="40.412532" lon="-6.602561">
        <ele>800.817</ele>
        <time>2019-06-22T18:07:24Z</time>
      </trkpt>
      <trkpt lat="40.412280" lon="-6.602620">
        <ele>800.808</ele>
        <time>2019-06-22T18:07:25Z</time>
      </trkpt>
      <trkpt lat="40.412024" lon="-6.602680">
        <ele>800.871</ele>
        <time>2019-06-22T18:07:26Z</time>
      </trkpt>
      <trkpt lat="40.411766" lon="-6.602756">
        <ele>801.915</ele>
        <time>2019-06-22T18:07:27Z</time>
      </trkpt>
      <trkpt lat="40.411517" lon="-6.602813">
        <ele>802.977</ele>
        <time>2019-06-22T18:07:28Z</time>
      </trkpt>
      <trkpt lat="40.411269" lon="-6.602879">
        <ele>804.629</ele>
        <time>2019-06-22T18:07:29Z</time>
      </trkpt>
      <trkpt lat="40.411020" lon="-6.602940">
        <ele>806.297</ele>
        <time>2019-06-22T18:07:30Z</time>
      </trkpt>
      <trkpt lat="40.410780" lon="-6.603009">
        <ele>808.396</ele>
        <time>2019-06-22T18:07:31Z</time>
      </trkpt>
      <trkpt lat="40.410577" lon="-6.603058">
        <ele>810.131</ele>
        <time>2019-06-22T18:07:32Z</time>
      </trkpt>
      <trkpt lat="40.410327" lon="-6.603128">
        <ele>811.564</ele>
        <time>2019-06-22T18:07:33Z</time>
      </trkpt>
      <trkpt lat="40.410077" lon="-6.603194">
        <ele>812.964</ele>
        <time>2019-06-22T18:07:34Z</time>
      </trkpt>
      <trkpt lat="40.409825" lon="-6.603248">
        <ele>814.306</ele>
        <time>2019-06-22T18:07:35Z</time>
      </trkpt>
      <trkpt lat="40.409573" lon="-6.603324">
        <ele>814.316</ele>
        <time>2019-06-22T18:07:36Z</time>
      </trkpt>
      <trkpt lat="40.409321" lon="-6.603381">
        <ele>813.808</ele>
        <time>2019-06-22T18:07:37Z</time>
      </trkpt>
      <trkpt lat="40.409066" lon="-6.603448">
        <ele>812.879</ele>
        <time>2019-06-22T18:07:38Z</time>
      </trkpt>
      <trkpt lat="40.408809" lon="-6.603513">
        <ele>811.823</ele>
        <time>2019-06-22T18:07:39Z</time>
      </trkpt>
      <trkpt lat="40.408553" lon="-6.603588">
        <ele>811.235</ele>
        <time>2019-06-22T18:07:40Z</time>
      </trkpt>
      <trkpt lat="40.408294" lon="-6.603668">
        <ele>810.867</ele>
        <time>2019-06-22T18:07:41Z</time>
      </trkpt>
      <trkpt lat="40.408065" lon="-6.603723">
        <ele>810.825</ele>
        <time>2019-06-22T18:07:42Z</time>
      </trkpt>
      <trkpt lat="40.407810" lon="-6.603786">
        <ele>811.774</ele>
        <time>2019-06-22T18:07:43Z</time>
      </trkpt>
      <trkpt lat="40.407562" lon="-6.603853">
        <ele>812.699</ele>
        <time>2019-06-22T18:07:44Z</time>
      </trkpt>
      <trkpt lat="40.407313" lon="-6.603918">
        <ele>813.782</ele>
        <time>2019-06-22T18:07:45Z</time>
      </trkpt>
      <trkpt lat="40.407062" lon="-6.603984">
        <ele>815.094</ele>
        <time>2019-06-22T18:07:46Z</time>
      </trkpt>
      <trkpt lat="40.406807" lon="-6.604054">
        <ele>815.857</ele>
        <time>2019-06-22T18:07:47Z</time>
      </trkpt>
      <trkpt lat="40.406566" lon="-6.604119">
        <ele>817.022</ele>
        <time>2019-06-22T18:07:48Z</time>
      </trkpt>
      <trkpt lat="40.406325" lon="-6.604176">
        <ele>817.708</ele>
        <time>2019-06-22T18:07:49Z</time>
      </trkpt>
      <trkpt lat="40.406074" lon="-6.604235">
        <ele>817.742</ele>
        <time>2019-06-22T18:07:50Z</time>
      </trkpt>
      <trkpt lat="40.405826" lon="-6.604307">
        <ele>817.236</ele>
        <time>2019-06-22T18:07:51Z</time>
      </trkpt>
      <trkpt lat="40.405578" lon="-6.604382">
        <ele>816.248</ele>
        <time>2019-06-22T18:07:52Z</time>
      </trkpt>
      <trkpt lat="40.405324" lon="-6.604444">
        <ele>815.990</ele>
        <time>2019-06-22T18:07:53Z</time>
      </trkpt>
      <trkpt lat="40.405077" lon="-6.604510">
        <ele>815.938</ele>
        <time>2019-06-22T18:07:54Z</time>
      </trkpt>
      <trkpt lat="40.404831" lon="-6.604575">
        <ele>816.157</ele>
        <time>2019-06-22T18:07:55Z</time>
      </trkpt>
      <trkpt lat="40.404584" lon="-6.604642">
        <ele>816.222</ele>
        <time>2019-06-22T18:07:56Z</time>
      </trkpt>
      <trkpt lat="40.404357" lon="-6.604690">
        <ele>816.135</ele>
        <time>2019-06-22T18:07:57Z</time>
      </trkpt>
      <trkpt lat="40.404104" lon="-6.604758">
        <ele>815.643</ele>
        <time>2019-06-22T18:07:58Z</time>
      </trkpt>
      <trkpt lat="40.403857" lon="-6.604824">
        <ele>814.664</ele>
        <time>2019-06-22T18:07:59Z</time>
      </trkpt>
      <trkpt lat="40.403605" lon="-6.604893">
        <ele>814.410</ele>
        <time>2019-06-22T18:08:00Z</time>
      </trkpt>
      <trkpt lat="40.403358" lon="-6.604946">
        <ele>814.408</ele>
        <time>2019-06-22T18:08:01Z</time>
      </trkpt>
      <trkpt lat="40.403097" lon="-6.605021">
        <ele>814.497</ele>
        <time>2019-06-22T18:08:02Z</time>
      </trkpt>
      <trkpt lat="40.402862" lon="-6.605102">
        <ele>815.041</ele>
        <time>2019-06-22T18:08:03Z</time>
      </trkpt>
      <trkpt lat="40.402616" lon="-6.605168">
        <ele>816.033</ele>
        <time>2019-06-22T18:08:04Z</time>
      </trkpt>
      <trkpt lat="40.402370" lon="-6.605229">
        <ele>816.915</ele>
        <time>2019-06-22T18:08:05Z</time>
      </trkpt>
      <trkpt lat="40.402128" lon="-6.605289">
        <ele>818.163</ele>
        <time>2019-06-22T18:08:06Z</time>
      </trkpt>
      <trkpt lat="40.401888" lon="-6.605358">
        <ele>818.572</ele>
        <time>2019-06-22T18:08:07Z</time>
      </trkpt>
      <trkpt lat="40.401643" lon="-6.605407">
        <ele>818.657</ele>
        <time>2019-06-22T18:08:08Z</time>
      </trkpt>
      <trkpt lat="40.401398" lon="-6.605469">
        <ele>818.610</ele>
        <time>2019-06-22T18:08:09Z</time>
      </trkpt>
      <trkpt lat="40.401149" lon="-6.605540">
        <ele>818.698</ele>
        <time>2019-06-22T18:08:10Z</time>
      </trkpt>
      <trkpt lat="40.400913" lon="-6.605597">
        <ele>817.615</ele>
        <time>2019-06-22T18:08:11Z</time>
      </trkpt>
      <trkpt lat="40.400666" lon="-6.605662">
        <ele>817.126</ele>
        <time>2019-06-22T18:08:12Z</time>
      </trkpt>
      <trkpt lat="40.400418" lon="-6.605734">
        <ele>817.108</ele>
        <time>2019-06-22T18:08:13Z</time>
      </trkpt>
      <trkpt lat="40.400171" lon="-6.605801">
        <ele>817.172</ele>
        <time>2019-06-22T18:08:14Z</time>
      </trkpt>
      <trkpt lat="40.399916" lon="-6.605871">
        <ele>817.816</ele>
        <time>2019-06-22T18:08:15Z</time>
      </trkpt>
      <trkpt lat="40.399670" lon="-6.605934">
        <ele>818.058</ele>
        <time>2019-06-22T18:08:16Z</time>
      </trkpt>
      <trkpt lat="40.399424" lon="-6.605999">
        <ele>818.470</ele>
        <time>2019-06-22T18:08:17Z</time>
      </trkpt>
      <trkpt lat="40.399181" lon="-6.606065">
        <ele>819.038</ele>
        <time>2019-06-22T18:08:18Z</time>
      </trkpt>
      <trkpt lat="40.398955" lon="-6.606104">
        <ele>819.727</ele>
        <time>2019-06-22T18:08:19Z</time>
      </trkpt>
      <trkpt lat="40.398709" lon="-6.606169">
        <ele>820.162</ele>
        <time>2019-06-22T18:08:20Z</time>
      </trkpt>
      <trkpt lat="40.398463" lon="-6.606238">
        <ele>821.035</ele>
        <time>2019-06-22T18:08:21Z</time>
      </trkpt>
      <trkpt lat="40.398214" lon="-6.606294">
        <ele>821.138</ele>
        <time>2019-06-22T18:08:22Z</time>
      </trkpt>
      <trkpt lat="40.397971" lon="-6.606359">
        <ele>821.170</ele>
        <time>2019-06-22T18:08:23Z</time>
      </trkpt>
      <trkpt lat="40.397722" lon="-6.606419">
        <ele>820.617</ele>
        <time>2019-06-22T18:08:24Z</time>
      </trkpt>
      <trkpt lat="40.397478" lon="-6.606478">
        <ele>819.408</ele>
        <time>2019-06-22T18:08:25Z</time>
      </trkpt>
      <trkpt lat="40.397234" lon="-6.606541">
        <ele>818.786</ele>
        <time>2019-06-22T18:08:26Z</time>
      </trkpt>
      <trkpt lat="40.396995" lon="-6.606599">
        <ele>818.750</ele>
        <time>2019-06-22T18:08:27Z</time>
      </trkpt>
      <trkpt lat="40.396757" lon="-6.606642">
        <ele>818.932</ele>
        <time>2019-06-22T18:08:28Z</time>
      </trkpt>
      <trkpt lat="40.396513" lon="-6.606678">
        <ele>819.684</ele>
        <time>2019-06-22T18:08:29Z</time>
      </trkpt>
      <trkpt lat="40.396263" lon="-6.606708">
        <ele>821.722</ele>
        <time>2019-06-22T18:08:30Z</time>
      </trkpt>
      <trkpt lat="40.396018" lon="-6.606724">
        <ele>823.731</ele>
        <time>2019-06-22T18:08:31Z</time>
      </trkpt>
      <trkpt lat="40.395761" lon="-6.606734">
        <ele>825.456</ele>
        <time>2019-06-22T18:08:32Z</time>
      </trkpt>
      <trkpt lat="40.395512" lon="-6.606726">
        <ele>826.719</ele>
        <time>2019-06-22T18:08:33Z</time>
      </trkpt>
      <trkpt lat="40.395261" lon="-6.606710">
        <ele>827.377</ele>
        <time>2019-06-22T18:08:34Z</time>
      </trkpt>
      <trkpt lat="40.395017" lon="-6.606681">
        <ele>827.461</ele>
        <time>2019-06-22T18:08:35Z</time>
      </trkpt>
      <trkpt lat="40.394766" lon="-6.606660">
        <ele>827.427</ele>
        <time>2019-06-22T18:08:36Z</time>
      </trkpt>
      <trkpt lat="40.394519" lon="-6.606632">
        <ele>827.108</ele>
        <time>2019-06-22T18:08:37Z</time>
      </trkpt>
      <trkpt lat="40.394270" lon="-6.606609">
        <ele>826.920</ele>
        <time>2019-06-22T18:08:38Z</time>
      </trkpt>
      <trkpt lat="40.394020" lon="-6.606585">
        <ele>826.924</ele>
        <time>2019-06-22T18:08:39Z</time>
      </trkpt>
      <trkpt lat="40.393769" lon="-6.606562">
        <ele>827.356</ele>
        <time>2019-06-22T18:08:40Z</time>
      </trkpt>
      <trkpt lat="40.393514" lon="-6.606537">
        <ele>827.598</ele>
        <time>2019-06-22T18:08:41Z</time>
      </trkpt>
      <trkpt lat="40.393265" lon="-6.606505">
        <ele>827.976</ele>
        <time>2019-06-22T18:08:42Z</time>
      </trkpt>
      <trkpt lat="40.393013" lon="-6.606478">
        <ele>828.515</ele>
        <time>2019-06-22T18:08:43Z</time>
      </trkpt>
      <trkpt lat="40.392766" lon="-6.606455">
        <ele>829.080</ele>
        <time>2019-06-22T18:08:44Z</time>
      </trkpt>
      <trkpt lat="40.392515" lon="-6.606430">
        <ele>829.873</ele>
        <time>2019-06-22T18:08:45Z</time>
      </trkpt>
      <trkpt lat="40.392271" lon="-6.606404">
        <ele>830.286</ele>
        <time>2019-06-22T18:08:46Z</time>
      </trkpt>
      <trkpt lat="40.392030" lon="-6.606375">
        <ele>830.260</ele>
        <time>2019-06-22T18:08:47Z</time>
      </trkpt>
      <trkpt lat="40.391800" lon="-6.606345">
        <ele>830.026</ele>
        <time>2019-06-22T18:08:48Z</time>
      </trkpt>
      <trkpt lat="40.391578" lon="-6.606328">
        <ele>828.108</ele>
        <time>2019-06-22T18:08:49Z</time>
      </trkpt>
      <trkpt lat="40.391361" lon="-6.606321">
        <ele>825.681</ele>
        <time>2019-06-22T18:08:50Z</time>
      </trkpt>
      <trkpt lat="40.391140" lon="-6.606324">
        <ele>823.445</ele>
        <time>2019-06-22T18:08:51Z</time>
      </trkpt>
      <trkpt lat="40.390927" lon="-6.606337">
        <ele>821.927</ele>
        <time>2019-06-22T18:08:52Z</time>
      </trkpt>
      <trkpt lat="40.390717" lon="-6.606366">
        <ele>821.999</ele>
        <time>2019-06-22T18:08:53Z</time>
      </trkpt>
      <trkpt lat="40.390504" lon="-6.606403">
        <ele>822.427</ele>
        <time>2019-06-22T18:08:54Z</time>
      </trkpt>
      <trkpt lat="40.390293" lon="-6.606450">
        <ele>824.166</ele>
        <time>2019-06-22T18:08:55Z</time>
      </trkpt>
      <trkpt lat="40.390086" lon="-6.606494">
        <ele>825.471</ele>
        <time>2019-06-22T18:08:56Z</time>
      </trkpt>
      <trkpt lat="40.389887" lon="-6.606540">
        <ele>825.924</ele>
        <time>2019-06-22T18:08:57Z</time>
      </trkpt>
      <trkpt lat="40.389703" lon="-6.606581">
        <ele>826.162</ele>
        <time>2019-06-22T18:08:58Z</time>
      </trkpt>
      <trkpt lat="40.389523" lon="-6.606616">
        <ele>827.083</ele>
        <time>2019-06-22T18:08:59Z</time>
      </trkpt>
      <trkpt lat="40.389355" lon="-6.606646">
        <ele>827.611</ele>
        <time>2019-06-22T18:09:00Z</time>
      </trkpt>
      <trkpt lat="40.389189" lon="-6.606678">
        <ele>828.608</ele>
        <time>2019-06-22T18:09:01Z</time>
      </trkpt>
      <trkpt lat="40.389032" lon="-6.606712">
        <ele>830.089</ele>
        <time>2019-06-22T18:09:02Z</time>
      </trkpt>
      <trkpt lat="40.388872" lon="-6.606745">
        <ele>830.983</ele>
        <time>2019-06-22T18:09:03Z</time>
      </trkpt>
      <trkpt lat="40.388709" lon="-6.606809">
        <ele>830.995</ele>
        <time>2019-06-22T18:09:04Z</time>
      </trkpt>
      <trkpt lat="40.388550" lon="-6.606882">
        <ele>830.947</ele>
        <time>2019-06-22T18:09:05Z</time>
      </trkpt>
      <trkpt lat="40.388401" lon="-6.606973">
        <ele>830.455</ele>
        <time>2019-06-22T18:09:06Z</time>
      </trkpt>
      <trkpt lat="40.388257" lon="-6.607089">
        <ele>829.964</ele>
        <time>2019-06-22T18:09:07Z</time>
      </trkpt>
      <trkpt lat="40.388107" lon="-6.607196">
        <ele>829.799</ele>
        <time>2019-06-22T18:09:08Z</time>
      </trkpt>
      <trkpt lat="40.387970" lon="-6.607308">
        <ele>829.782</ele>
        <time>2019-06-22T18:09:09Z</time>
      </trkpt>
      <trkpt lat="40.387859" lon="-6.607406">
        <ele>829.755</ele>
        <time>2019-06-22T18:09:10Z</time>
      </trkpt>
      <trkpt lat="40.387740" lon="-6.607514">
        <ele>830.307</ele>
        <time>2019-06-22T18:09:11Z</time>
      </trkpt>
      <trkpt lat="40.387636" lon="-6.607593">
        <ele>830.317</ele>
        <time>2019-06-22T18:09:12Z</time>
      </trkpt>
      <trkpt lat="40.387530" lon="-6.607686">
        <ele>830.008</ele>
        <time>2019-06-22T18:09:13Z</time>
      </trkpt>
      <trkpt lat="40.387426" lon="-6.607777">
        <ele>830.018</ele>
        <time>2019-06-22T18:09:14Z</time>
      </trkpt>
      <trkpt lat="40.387322" lon="-6.607862">
        <ele>830.312</ele>
        <time>2019-06-22T18:09:15Z</time>
      </trkpt>
      <trkpt lat="40.387226" lon="-6.607939">
        <ele>830.374</ele>
        <time>2019-06-22T18:09:16Z</time>
      </trkpt>
      <trkpt lat="40.387137" lon="-6.608016">
        <ele>830.336</ele>
        <time>2019-06-22T18:09:17Z</time>
      </trkpt>
      <trkpt lat="40.387055" lon="-6.608107">
        <ele>830.524</ele>
        <time>2019-06-22T18:09:18Z</time>
      </trkpt>
      <trkpt lat="40.386979" lon="-6.608175">
        <ele>830.513</ele>
        <time>2019-06-22T18:09:19Z</time>
      </trkpt>
      <trkpt lat="40.386901" lon="-6.608232">
        <ele>830.588</ele>
        <time>2019-06-22T18:09:20Z</time>
      </trkpt>
      <trkpt lat="40.386833" lon="-6.608279">
        <ele>830.591</ele>
        <time>2019-06-22T18:09:21Z</time>
      </trkpt>
      <trkpt lat="40.386769" lon="-6.608303">
        <ele>830.994</ele>
        <time>2019-06-22T18:09:22Z</time>
      </trkpt>
      <trkpt lat="40.386674" lon="-6.608315">
        <ele>830.857</ele>
        <time>2019-06-22T18:09:24Z</time>
      </trkpt>
      <trkpt lat="40.386648" lon="-6.608264">
        <ele>830.022</ele>
        <time>2019-06-22T18:09:26Z</time>
      </trkpt>
      <trkpt lat="40.386691" lon="-6.608217">
        <ele>831.208</ele>
        <time>2019-06-22T18:09:32Z</time>
      </trkpt>
      <trkpt lat="40.386694" lon="-6.608151">
        <ele>830.842</ele>
        <time>2019-06-22T18:10:02Z</time>
      </trkpt>
      <trkpt lat="40.386674" lon="-6.608097">
        <ele>831.296</ele>
        <time>2019-06-22T18:11:34Z</time>
      </trkpt>
      <trkpt lat="40.386716" lon="-6.608156">
        <ele>831.348</ele>
        <time>2019-06-22T18:12:25Z</time>
      </trkpt>
      <trkpt lat="40.386764" lon="-6.608136">
        <ele>831.090</ele>
        <time>2019-06-22T18:12:34Z</time>
      </trkpt>
      <trkpt lat="40.386723" lon="-6.608096">
        <ele>831.118</ele>
        <time>2019-06-22T18:13:41Z</time>
      </trkpt>
      <trkpt lat="40.386692" lon="-6.608042">
        <ele>831.017</ele>
        <time>2019-06-22T18:13:50Z</time>
      </trkpt>
      <trkpt lat="40.386739" lon="-6.608058">
        <ele>830.922</ele>
        <time>2019-06-22T18:13:57Z</time>
      </trkpt>
      <trkpt lat="40.386781" lon="-6.608089">
        <ele>831.095</ele>
        <time>2019-06-22T18:13:59Z</time>
      </trkpt>
      <trkpt lat="40.386710" lon="-6.608111">
        <ele>831.415</ele>
        <time>2019-06-22T18:14:33Z</time>
      </trkpt>
      <trkpt lat="40.386702" lon="-6.608052">
        <ele>831.765</ele>
        <time>2019-06-22T18:15:47Z</time>
      </trkpt>
      <trkpt lat="40.386676" lon="-6.608102">
        <ele>831.811</ele>
        <time>2019-06-22T18:17:06Z</time>
      </trkpt>
      <trkpt lat="40.386721" lon="-6.608088">
        <ele>831.608</ele>
        <time>2019-06-22T18:17:18Z</time>
      </trkpt>
      <trkpt lat="40.386766" lon="-6.608112">
        <ele>831.774</ele>
        <time>2019-06-22T18:17:34Z</time>
      </trkpt>
      <trkpt lat="40.386719" lon="-6.608113">
        <ele>831.878</ele>
        <time>2019-06-22T18:19:04Z</time>
      </trkpt>
      <trkpt lat="40.386770" lon="-6.608111">
        <ele>831.240</ele>
        <time>2019-06-22T18:20:45Z</time>
      </trkpt>
      <trkpt lat="40.386824" lon="-6.608150">
        <ele>831.382</ele>
        <time>2019-06-22T18:20:47Z</time>
      </trkpt>
      <trkpt lat="40.386855" lon="-6.608216">
        <ele>831.470</ele>
        <time>2019-06-22T18:20:49Z</time>
      </trkpt>
      <trkpt lat="40.386835" lon="-6.608300">
        <ele>831.459</ele>
        <time>2019-06-22T18:20:51Z</time>
      </trkpt>
      <trkpt lat="40.386794" lon="-6.608369">
        <ele>831.414</ele>
        <time>2019-06-22T18:20:52Z</time>
      </trkpt>
      <trkpt lat="40.386729" lon="-6.608451">
        <ele>831.387</ele>
        <time>2019-06-22T18:20:53Z</time>
      </trkpt>
      <trkpt lat="40.386581" lon="-6.608527">
        <ele>831.212</ele>
        <time>2019-06-22T18:20:54Z</time>
      </trkpt>
      <trkpt lat="40.386483" lon="-6.608608">
        <ele>831.232</ele>
        <time>2019-06-22T18:20:55Z</time>
      </trkpt>
      <trkpt lat="40.386370" lon="-6.608700">
        <ele>830.705</ele>
        <time>2019-06-22T18:20:56Z</time>
      </trkpt>
      <trkpt lat="40.386255" lon="-6.608803">
        <ele>830.208</ele>
        <time>2019-06-22T18:20:57Z</time>
      </trkpt>
      <trkpt lat="40.386125" lon="-6.608912">
        <ele>829.514</ele>
        <time>2019-06-22T18:20:58Z</time>
      </trkpt>
      <trkpt lat="40.385995" lon="-6.609019">
        <ele>829.188</ele>
        <time>2019-06-22T18:20:59Z</time>
      </trkpt>
      <trkpt lat="40.385853" lon="-6.609122">
        <ele>828.780</ele>
        <time>2019-06-22T18:21:00Z</time>
      </trkpt>
      <trkpt lat="40.385715" lon="-6.609226">
        <ele>828.752</ele>
        <time>2019-06-22T18:21:01Z</time>
      </trkpt>
      <trkpt lat="40.385576" lon="-6.609323">
        <ele>828.380</ele>
        <time>2019-06-22T18:21:02Z</time>
      </trkpt>
      <trkpt lat="40.385439" lon="-6.609413">
        <ele>828.199</ele>
        <time>2019-06-22T18:21:03Z</time>
      </trkpt>
      <trkpt lat="40.385305" lon="-6.609487">
        <ele>827.784</ele>
        <time>2019-06-22T18:21:04Z</time>
      </trkpt>
      <trkpt lat="40.385158" lon="-6.609569">
        <ele>826.667</ele>
        <time>2019-06-22T18:21:05Z</time>
      </trkpt>
      <trkpt lat="40.384998" lon="-6.609657">
        <ele>825.818</ele>
        <time>2019-06-22T18:21:06Z</time>
      </trkpt>
      <trkpt lat="40.384838" lon="-6.609742">
        <ele>824.998</ele>
        <time>2019-06-22T18:21:07Z</time>
      </trkpt>
      <trkpt lat="40.384666" lon="-6.609826">
        <ele>824.717</ele>
        <time>2019-06-22T18:21:08Z</time>
      </trkpt>
      <trkpt lat="40.384493" lon="-6.609916">
        <ele>824.508</ele>
        <time>2019-06-22T18:21:09Z</time>
      </trkpt>
      <trkpt lat="40.384320" lon="-6.610009">
        <ele>824.554</ele>
        <time>2019-06-22T18:21:10Z</time>
      </trkpt>
      <trkpt lat="40.384152" lon="-6.610104">
        <ele>824.988</ele>
        <time>2019-06-22T18:21:11Z</time>
      </trkpt>
      <trkpt lat="40.383984" lon="-6.610199">
        <ele>825.410</ele>
        <time>2019-06-22T18:21:12Z</time>
      </trkpt>
      <trkpt lat="40.383819" lon="-6.610287">
        <ele>825.492</ele>
        <time>2019-06-22T18:21:13Z</time>
      </trkpt>
      <trkpt lat="40.383652" lon="-6.610378">
        <ele>824.660</ele>
        <time>2019-06-22T18:21:14Z</time>
      </trkpt>
      <trkpt lat="40.383492" lon="-6.610461">
        <ele>824.299</ele>
        <time>2019-06-22T18:21:15Z</time>
      </trkpt>
      <trkpt lat="40.383327" lon="-6.610547">
        <ele>823.964</ele>
        <time>2019-06-22T18:21:16Z</time>
      </trkpt>
      <trkpt lat="40.383166" lon="-6.610632">
        <ele>822.137</ele>
        <time>2019-06-22T18:21:17Z</time>
      </trkpt>
      <trkpt lat="40.383004" lon="-6.610715">
        <ele>820.669</ele>
        <time>2019-06-22T18:21:18Z</time>
      </trkpt>
      <trkpt lat="40.382826" lon="-6.610776">
        <ele>820.604</ele>
        <time>2019-06-22T18:21:19Z</time>
      </trkpt>
      <trkpt lat="40.382644" lon="-6.610826">
        <ele>820.824</ele>
        <time>2019-06-22T18:21:20Z</time>
      </trkpt>
      <trkpt lat="40.382424" lon="-6.610864">
        <ele>820.908</ele>
        <time>2019-06-22T18:21:21Z</time>
      </trkpt>
      <trkpt lat="40.382213" lon="-6.610890">
        <ele>821.629</ele>
        <time>2019-06-22T18:21:22Z</time>
      </trkpt>
      <trkpt lat="40.381991" lon="-6.610883">
        <ele>821.953</ele>
        <time>2019-06-22T18:21:23Z</time>
      </trkpt>
      <trkpt lat="40.381772" lon="-6.610891">
        <ele>821.915</ele>
        <time>2019-06-22T18:21:24Z</time>
      </trkpt>
      <trkpt lat="40.381555" lon="-6.610886">
        <ele>821.587</ele>
        <time>2019-06-22T18:21:25Z</time>
      </trkpt>
      <trkpt lat="40.381336" lon="-6.610883">
        <ele>821.155</ele>
        <time>2019-06-22T18:21:26Z</time>
      </trkpt>
      <trkpt lat="40.381113" lon="-6.610877">
        <ele>821.194</ele>
        <time>2019-06-22T18:21:27Z</time>
      </trkpt>
      <trkpt lat="40.380913" lon="-6.610885">
        <ele>822.119</ele>
        <time>2019-06-22T18:21:28Z</time>
      </trkpt>
      <trkpt lat="40.380716" lon="-6.610909">
        <ele>823.272</ele>
        <time>2019-06-22T18:21:29Z</time>
      </trkpt>
      <trkpt lat="40.380532" lon="-6.610962">
        <ele>823.319</ele>
        <time>2019-06-22T18:21:30Z</time>
      </trkpt>
      <trkpt lat="40.380332" lon="-6.611036">
        <ele>824.309</ele>
        <time>2019-06-22T18:21:31Z</time>
      </trkpt>
      <trkpt lat="40.380139" lon="-6.611114">
        <ele>825.219</ele>
        <time>2019-06-22T18:21:32Z</time>
      </trkpt>
      <trkpt lat="40.379963" lon="-6.611243">
        <ele>825.408</ele>
        <time>2019-06-22T18:21:33Z</time>
      </trkpt>
      <trkpt lat="40.379751" lon="-6.611348">
        <ele>825.424</ele>
        <time>2019-06-22T18:21:34Z</time>
      </trkpt>
      <trkpt lat="40.379540" lon="-6.611443">
        <ele>826.678</ele>
        <time>2019-06-22T18:21:35Z</time>
      </trkpt>
      <trkpt lat="40.379335" lon="-6.611543">
        <ele>827.040</ele>
        <time>2019-06-22T18:21:36Z</time>
      </trkpt>
      <trkpt lat="40.379116" lon="-6.611614">
        <ele>828.022</ele>
        <time>2019-06-22T18:21:37Z</time>
      </trkpt>
      <trkpt lat="40.378883" lon="-6.611693">
        <ele>828.420</ele>
        <time>2019-06-22T18:21:38Z</time>
      </trkpt>
      <trkpt lat="40.378659" lon="-6.611774">
        <ele>829.399</ele>
        <time>2019-06-22T18:21:39Z</time>
      </trkpt>
      <trkpt lat="40.378445" lon="-6.611862">
        <ele>829.364</ele>
        <time>2019-06-22T18:21:40Z</time>
      </trkpt>
      <trkpt lat="40.378235" lon="-6.611956">
        <ele>829.357</ele>
        <time>2019-06-22T18:21:41Z</time>
      </trkpt>
      <trkpt lat="40.378035" lon="-6.612073">
        <ele>828.093</ele>
        <time>2019-06-22T18:21:42Z</time>
      </trkpt>
      <trkpt lat="40.377837" lon="-6.612193">
        <ele>827.865</ele>
        <time>2019-06-22T18:21:43Z</time>
      </trkpt>
      <trkpt lat="40.377672" lon="-6.612371">
        <ele>827.521</ele>
        <time>2019-06-22T18:21:44Z</time>
      </trkpt>
      <trkpt lat="40.377504" lon="-6.612552">
        <ele>827.508</ele>
        <time>2019-06-22T18:21:45Z</time>
      </trkpt>
      <trkpt lat="40.377344" lon="-6.612751">
        <ele>827.522</ele>
        <time>2019-06-22T18:21:46Z</time>
      </trkpt>
      <trkpt lat="40.377187" lon="-6.612949">
        <ele>829.656</ele>
        <time>2019-06-22T18:21:47Z</time>
      </trkpt>
      <trkpt lat="40.377024" lon="-6.613153">
        <ele>831.348</ele>
        <time>2019-06-22T18:21:48Z</time>
      </trkpt>
      <trkpt lat="40.376864" lon="-6.613359">
        <ele>832.060</ele>
        <time>2019-06-22T18:21:49Z</time>
      </trkpt>
      <trkpt lat="40.376699" lon="-6.613533">
        <ele>833.288</ele>
        <time>2019-06-22T18:21:50Z</time>
      </trkpt>
      <trkpt lat="40.376534" lon="-6.613691">
        <ele>834.537</ele>
        <time>2019-06-22T18:21:51Z</time>
      </trkpt>
      <trkpt lat="40.376340" lon="-6.613827">
        <ele>834.522</ele>
        <time>2019-06-22T18:21:52Z</time>
      </trkpt>
      <trkpt lat="40.376143" lon="-6.613937">
        <ele>834.525</ele>
        <time>2019-06-22T18:21:53Z</time>
      </trkpt>
      <trkpt lat="40.375936" lon="-6.614045">
        <ele>834.593</ele>
        <time>2019-06-22T18:21:54Z</time>
      </trkpt>
      <trkpt lat="40.375724" lon="-6.614161">
        <ele>834.665</ele>
        <time>2019-06-22T18:21:55Z</time>
      </trkpt>
      <trkpt lat="40.375520" lon="-6.614269">
        <ele>834.921</ele>
        <time>2019-06-22T18:21:56Z</time>
      </trkpt>
      <trkpt lat="40.375314" lon="-6.614385">
        <ele>835.208</ele>
        <time>2019-06-22T18:21:57Z</time>
      </trkpt>
      <trkpt lat="40.375098" lon="-6.614508">
        <ele>835.212</ele>
        <time>2019-06-22T18:21:58Z</time>
      </trkpt>
      <trkpt lat="40.374881" lon="-6.614633">
        <ele>835.296</ele>
        <time>2019-06-22T18:21:59Z</time>
      </trkpt>
      <trkpt lat="40.374671" lon="-6.614753">
        <ele>834.888</ele>
        <time>2019-06-22T18:22:00Z</time>
      </trkpt>
      <trkpt lat="40.374460" lon="-6.614885">
        <ele>834.880</ele>
        <time>2019-06-22T18:22:01Z</time>
      </trkpt>
      <trkpt lat="40.374242" lon="-6.614998">
        <ele>835.118</ele>
        <time>2019-06-22T18:22:02Z</time>
      </trkpt>
      <trkpt lat="40.374034" lon="-6.615103">
        <ele>835.567</ele>
        <time>2019-06-22T18:22:03Z</time>
      </trkpt>
      <trkpt lat="40.373833" lon="-6.615223">
        <ele>835.872</ele>
        <time>2019-06-22T18:22:04Z</time>
      </trkpt>
      <trkpt lat="40.373633" lon="-6.615333">
        <ele>835.965</ele>
        <time>2019-06-22T18:22:05Z</time>
      </trkpt>
      <trkpt lat="40.373422" lon="-6.615445">
        <ele>836.324</ele>
        <time>2019-06-22T18:22:06Z</time>
      </trkpt>
      <trkpt lat="40.373211" lon="-6.615558">
        <ele>836.304</ele>
        <time>2019-06-22T18:22:07Z</time>
      </trkpt>
      <trkpt lat="40.373016" lon="-6.615682">
        <ele>836.714</ele>
        <time>2019-06-22T18:22:08Z</time>
      </trkpt>
      <trkpt lat="40.372832" lon="-6.615811">
        <ele>836.708</ele>
        <time>2019-06-22T18:22:09Z</time>
      </trkpt>
      <trkpt lat="40.372651" lon="-6.615967">
        <ele>837.655</ele>
        <time>2019-06-22T18:22:10Z</time>
      </trkpt>
      <trkpt lat="40.372471" lon="-6.616127">
        <ele>839.119</ele>
        <time>2019-06-22T18:22:11Z</time>
      </trkpt>
      <trkpt lat="40.372294" lon="-6.616306">
        <ele>839.131</ele>
        <time>2019-06-22T18:22:12Z</time>
      </trkpt>
      <trkpt lat="40.372115" lon="-6.616481">
        <ele>839.123</ele>
        <time>2019-06-22T18:22:13Z</time>
      </trkpt>
      <trkpt lat="40.371924" lon="-6.616666">
        <ele>840.691</ele>
        <time>2019-06-22T18:22:14Z</time>
      </trkpt>
      <trkpt lat="40.371749" lon="-6.616851">
        <ele>841.490</ele>
        <time>2019-06-22T18:22:15Z</time>
      </trkpt>
      <trkpt lat="40.371569" lon="-6.617032">
        <ele>842.115</ele>
        <time>2019-06-22T18:22:16Z</time>
      </trkpt>
      <trkpt lat="40.371385" lon="-6.617213">
        <ele>843.338</ele>
        <time>2019-06-22T18:22:17Z</time>
      </trkpt>
      <trkpt lat="40.371185" lon="-6.617371">
        <ele>844.519</ele>
        <time>2019-06-22T18:22:18Z</time>
      </trkpt>
      <trkpt lat="40.370988" lon="-6.617504">
        <ele>844.809</ele>
        <time>2019-06-22T18:22:19Z</time>
      </trkpt>
      <trkpt lat="40.370780" lon="-6.617658">
        <ele>844.919</ele>
        <time>2019-06-22T18:22:20Z</time>
      </trkpt>
      <trkpt lat="40.370566" lon="-6.617805">
        <ele>845.008</ele>
        <time>2019-06-22T18:22:21Z</time>
      </trkpt>
      <trkpt lat="40.370349" lon="-6.617947">
        <ele>845.074</ele>
        <time>2019-06-22T18:22:22Z</time>
      </trkpt>
      <trkpt lat="40.370129" lon="-6.618080">
        <ele>844.858</ele>
        <time>2019-06-22T18:22:23Z</time>
      </trkpt>
      <trkpt lat="40.369906" lon="-6.618220">
        <ele>844.880</ele>
        <time>2019-06-22T18:22:24Z</time>
      </trkpt>
      <trkpt lat="40.369692" lon="-6.618354">
        <ele>844.362</ele>
        <time>2019-06-22T18:22:25Z</time>
      </trkpt>
      <trkpt lat="40.369482" lon="-6.618486">
        <ele>844.010</ele>
        <time>2019-06-22T18:22:26Z</time>
      </trkpt>
      <trkpt lat="40.369271" lon="-6.618618">
        <ele>844.099</ele>
        <time>2019-06-22T18:22:27Z</time>
      </trkpt>
      <trkpt lat="40.369062" lon="-6.618750">
        <ele>844.764</ele>
        <time>2019-06-22T18:22:28Z</time>
      </trkpt>
      <trkpt lat="40.368847" lon="-6.618893">
        <ele>845.277</ele>
        <time>2019-06-22T18:22:29Z</time>
      </trkpt>
      <trkpt lat="40.368626" lon="-6.619027">
        <ele>846.084</ele>
        <time>2019-06-22T18:22:30Z</time>
      </trkpt>
      <trkpt lat="40.368414" lon="-6.619127">
        <ele>847.807</ele>
        <time>2019-06-22T18:22:31Z</time>
      </trkpt>
      <trkpt lat="40.368214" lon="-6.619253">
        <ele>849.417</ele>
        <time>2019-06-22T18:22:32Z</time>
      </trkpt>
      <trkpt lat="40.368022" lon="-6.619367">
        <ele>850.708</ele>
        <time>2019-06-22T18:22:33Z</time>
      </trkpt>
      <trkpt lat="40.367815" lon="-6.619483">
        <ele>851.391</ele>
        <time>2019-06-22T18:22:34Z</time>
      </trkpt>
      <trkpt lat="40.367621" lon="-6.619608">
        <ele>852.365</ele>
        <time>2019-06-22T18:22:35Z</time>
      </trkpt>
      <trkpt lat="40.367418" lon="-6.619740">
        <ele>852.517</ele>
        <time>2019-06-22T18:22:36Z</time>
      </trkpt>
      <trkpt lat="40.367217" lon="-6.619872">
        <ele>852.829</ele>
        <time>2019-06-22T18:22:37Z</time>
      </trkpt>
      <trkpt lat="40.367005" lon="-6.620007">
        <ele>852.867</ele>
        <time>2019-06-22T18:22:38Z</time>
      </trkpt>
      <trkpt lat="40.366802" lon="-6.620143">
        <ele>854.636</ele>
        <time>2019-06-22T18:22:39Z</time>
      </trkpt>
      <trkpt lat="40.366594" lon="-6.620270">
        <ele>855.811</ele>
        <time>2019-06-22T18:22:40Z</time>
      </trkpt>
      <trkpt lat="40.366385" lon="-6.620406">
        <ele>857.724</ele>
        <time>2019-06-22T18:22:41Z</time>
      </trkpt>
      <trkpt lat="40.366178" lon="-6.620546">
        <ele>858.458</ele>
        <time>2019-06-22T18:22:42Z</time>
      </trkpt>
      <trkpt lat="40.365967" lon="-6.620685">
        <ele>858.852</ele>
        <time>2019-06-22T18:22:43Z</time>
      </trkpt>
      <trkpt lat="40.365752" lon="-6.620804">
        <ele>859.217</ele>
        <time>2019-06-22T18:22:44Z</time>
      </trkpt>
      <trkpt lat="40.365532" lon="-6.620942">
        <ele>859.208</ele>
        <time>2019-06-22T18:22:45Z</time>
      </trkpt>
      <trkpt lat="40.365320" lon="-6.621076">
        <ele>859.718</ele>
        <time>2019-06-22T18:22:46Z</time>
      </trkpt>
      <trkpt lat="40.365103" lon="-6.621215">
        <ele>860.312</ele>
        <time>2019-06-22T18:22:47Z</time>
      </trkpt>
      <trkpt lat="40.364877" lon="-6.621358">
        <ele>860.754</ele>
        <time>2019-06-22T18:22:48Z</time>
      </trkpt>
      <trkpt lat="40.364658" lon="-6.621484">
        <ele>861.136</ele>
        <time>2019-06-22T18:22:49Z</time>
      </trkpt>
      <trkpt lat="40.364441" lon="-6.621626">
        <ele>861.124</ele>
        <time>2019-06-22T18:22:50Z</time>
      </trkpt>
      <trkpt lat="40.364206" lon="-6.621766">
        <ele>860.893</ele>
        <time>2019-06-22T18:22:51Z</time>
      </trkpt>
      <trkpt lat="40.363987" lon="-6.621903">
        <ele>860.828</ele>
        <time>2019-06-22T18:22:52Z</time>
      </trkpt>
      <trkpt lat="40.363752" lon="-6.622042">
        <ele>860.951</ele>
        <time>2019-06-22T18:22:53Z</time>
      </trkpt>
      <trkpt lat="40.363541" lon="-6.622174">
        <ele>861.399</ele>
        <time>2019-06-22T18:22:54Z</time>
      </trkpt>
      <trkpt lat="40.363319" lon="-6.622316">
        <ele>861.807</ele>
        <time>2019-06-22T18:22:55Z</time>
      </trkpt>
      <trkpt lat="40.363101" lon="-6.622454">
        <ele>862.627</ele>
        <time>2019-06-22T18:22:56Z</time>
      </trkpt>
      <trkpt lat="40.362882" lon="-6.622594">
        <ele>863.708</ele>
        <time>2019-06-22T18:22:57Z</time>
      </trkpt>
      <trkpt lat="40.362680" lon="-6.622739">
        <ele>863.922</ele>
        <time>2019-06-22T18:22:58Z</time>
      </trkpt>
      <trkpt lat="40.362463" lon="-6.622858">
        <ele>865.596</ele>
        <time>2019-06-22T18:22:59Z</time>
      </trkpt>
      <trkpt lat="40.362259" lon="-6.622969">
        <ele>867.358</ele>
        <time>2019-06-22T18:23:00Z</time>
      </trkpt>
      <trkpt lat="40.362038" lon="-6.623104">
        <ele>868.830</ele>
        <time>2019-06-22T18:23:01Z</time>
      </trkpt>
      <trkpt lat="40.361836" lon="-6.623218">
        <ele>870.528</ele>
        <time>2019-06-22T18:23:02Z</time>
      </trkpt>
      <trkpt lat="40.361622" lon="-6.623356">
        <ele>870.597</ele>
        <time>2019-06-22T18:23:03Z</time>
      </trkpt>
      <trkpt lat="40.361407" lon="-6.623487">
        <ele>871.412</ele>
        <time>2019-06-22T18:23:04Z</time>
      </trkpt>
      <trkpt lat="40.361181" lon="-6.623622">
        <ele>871.475</ele>
        <time>2019-06-22T18:23:05Z</time>
      </trkpt>
      <trkpt lat="40.360964" lon="-6.623770">
        <ele>870.624</ele>
        <time>2019-06-22T18:23:06Z</time>
      </trkpt>
      <trkpt lat="40.360744" lon="-6.623916">
        <ele>869.304</ele>
        <time>2019-06-22T18:23:07Z</time>
      </trkpt>
      <trkpt lat="40.360515" lon="-6.624069">
        <ele>867.714</ele>
        <time>2019-06-22T18:23:08Z</time>
      </trkpt>
      <trkpt lat="40.360285" lon="-6.624215">
        <ele>867.408</ele>
        <time>2019-06-22T18:23:09Z</time>
      </trkpt>
      <trkpt lat="40.360047" lon="-6.624362">
        <ele>866.285</ele>
        <time>2019-06-22T18:23:10Z</time>
      </trkpt>
      <trkpt lat="40.359817" lon="-6.624508">
        <ele>866.189</ele>
        <time>2019-06-22T18:23:11Z</time>
      </trkpt>
      <trkpt lat="40.359590" lon="-6.624678">
        <ele>866.151</ele>
        <time>2019-06-22T18:23:12Z</time>
      </trkpt>
      <trkpt lat="40.359357" lon="-6.624844">
        <ele>865.243</ele>
        <time>2019-06-22T18:23:13Z</time>
      </trkpt>
      <trkpt lat="40.359126" lon="-6.625036">
        <ele>863.411</ele>
        <time>2019-06-22T18:23:14Z</time>
      </trkpt>
      <trkpt lat="40.358903" lon="-6.625223">
        <ele>862.490</ele>
        <time>2019-06-22T18:23:15Z</time>
      </trkpt>
      <trkpt lat="40.358673" lon="-6.625409">
        <ele>862.465</ele>
        <time>2019-06-22T18:23:16Z</time>
      </trkpt>
      <trkpt lat="40.358441" lon="-6.625591">
        <ele>862.478</ele>
        <time>2019-06-22T18:23:17Z</time>
      </trkpt>
      <trkpt lat="40.358196" lon="-6.625784">
        <ele>862.576</ele>
        <time>2019-06-22T18:23:18Z</time>
      </trkpt>
      <trkpt lat="40.357969" lon="-6.625972">
        <ele>862.990</ele>
        <time>2019-06-22T18:23:19Z</time>
      </trkpt>
      <trkpt lat="40.357737" lon="-6.626171">
        <ele>862.519</ele>
        <time>2019-06-22T18:23:20Z</time>
      </trkpt>
      <trkpt lat="40.357507" lon="-6.626362">
        <ele>861.808</ele>
        <time>2019-06-22T18:23:21Z</time>
      </trkpt>
      <trkpt lat="40.357277" lon="-6.626545">
        <ele>859.560</ele>
        <time>2019-06-22T18:23:22Z</time>
      </trkpt>
      <trkpt lat="40.357050" lon="-6.626747">
        <ele>859.454</ele>
        <time>2019-06-22T18:23:23Z</time>
      </trkpt>
      <trkpt lat="40.356819" lon="-6.626938">
        <ele>859.166</ele>
        <time>2019-06-22T18:23:24Z</time>
      </trkpt>
      <trkpt lat="40.356594" lon="-6.627126">
        <ele>857.618</ele>
        <time>2019-06-22T18:23:25Z</time>
      </trkpt>
      <trkpt lat="40.356370" lon="-6.627316">
        <ele>857.556</ele>
        <time>2019-06-22T18:23:26Z</time>
      </trkpt>
      <trkpt lat="40.356139" lon="-6.627504">
        <ele>857.245</ele>
        <time>2019-06-22T18:23:27Z</time>
      </trkpt>
      <trkpt lat="40.355907" lon="-6.627699">
        <ele>857.230</ele>
        <time>2019-06-22T18:23:28Z</time>
      </trkpt>
      <trkpt lat="40.355679" lon="-6.627888">
        <ele>857.233</ele>
        <time>2019-06-22T18:23:29Z</time>
      </trkpt>
      <trkpt lat="40.355446" lon="-6.628073">
        <ele>857.395</ele>
        <time>2019-06-22T18:23:30Z</time>
      </trkpt>
      <trkpt lat="40.355217" lon="-6.628253">
        <ele>858.249</ele>
        <time>2019-06-22T18:23:31Z</time>
      </trkpt>
      <trkpt lat="40.354999" lon="-6.628429">
        <ele>858.523</ele>
        <time>2019-06-22T18:23:32Z</time>
      </trkpt>
      <trkpt lat="40.354772" lon="-6.628613">
        <ele>858.608</ele>
        <time>2019-06-22T18:23:33Z</time>
      </trkpt>
      <trkpt lat="40.354543" lon="-6.628803">
        <ele>858.692</ele>
        <time>2019-06-22T18:23:34Z</time>
      </trkpt>
      <trkpt lat="40.354314" lon="-6.628987">
        <ele>858.696</ele>
        <time>2019-06-22T18:23:35Z</time>
      </trkpt>
      <trkpt lat="40.354101" lon="-6.629182">
        <ele>857.448</ele>
        <time>2019-06-22T18:23:36Z</time>
      </trkpt>
      <trkpt lat="40.353902" lon="-6.629389">
        <ele>857.310</ele>
        <time>2019-06-22T18:23:37Z</time>
      </trkpt>
      <trkpt lat="40.353716" lon="-6.629611">
        <ele>855.948</ele>
        <time>2019-06-22T18:23:38Z</time>
      </trkpt>
      <trkpt lat="40.353542" lon="-6.629842">
        <ele>854.437</ele>
        <time>2019-06-22T18:23:39Z</time>
      </trkpt>
      <trkpt lat="40.353374" lon="-6.630064">
        <ele>854.452</ele>
        <time>2019-06-22T18:23:40Z</time>
      </trkpt>
      <trkpt lat="40.353204" lon="-6.630280">
        <ele>855.825</ele>
        <time>2019-06-22T18:23:41Z</time>
      </trkpt>
      <trkpt lat="40.353025" lon="-6.630479">
        <ele>856.582</ele>
        <time>2019-06-22T18:23:42Z</time>
      </trkpt>
      <trkpt lat="40.352823" lon="-6.630663">
        <ele>858.043</ele>
        <time>2019-06-22T18:23:43Z</time>
      </trkpt>
      <trkpt lat="40.352622" lon="-6.630841">
        <ele>859.517</ele>
        <time>2019-06-22T18:23:44Z</time>
      </trkpt>
      <trkpt lat="40.352414" lon="-6.631004">
        <ele>859.508</ele>
        <time>2019-06-22T18:23:45Z</time>
      </trkpt>
      <trkpt lat="40.352196" lon="-6.631175">
        <ele>858.951</ele>
        <time>2019-06-22T18:23:46Z</time>
      </trkpt>
      <trkpt lat="40.351978" lon="-6.631347">
        <ele>857.825</ele>
        <time>2019-06-22T18:23:47Z</time>
      </trkpt>
      <trkpt lat="40.351760" lon="-6.631516">
        <ele>857.037</ele>
        <time>2019-06-22T18:23:48Z</time>
      </trkpt>
      <trkpt lat="40.351536" lon="-6.631688">
        <ele>855.829</ele>
        <time>2019-06-22T18:23:49Z</time>
      </trkpt>
      <trkpt lat="40.351318" lon="-6.631864">
        <ele>855.737</ele>
        <time>2019-06-22T18:23:50Z</time>
      </trkpt>
      <trkpt lat="40.351094" lon="-6.632036">
        <ele>855.756</ele>
        <time>2019-06-22T18:23:51Z</time>
      </trkpt>
      <trkpt lat="40.350870" lon="-6.632206">
        <ele>855.861</ele>
        <time>2019-06-22T18:23:52Z</time>
      </trkpt>
      <trkpt lat="40.350646" lon="-6.632372">
        <ele>855.814</ele>
        <time>2019-06-22T18:23:53Z</time>
      </trkpt>
      <trkpt lat="40.350420" lon="-6.632536">
        <ele>855.288</ele>
        <time>2019-06-22T18:23:54Z</time>
      </trkpt>
      <trkpt lat="40.350205" lon="-6.632703">
        <ele>854.624</ele>
        <time>2019-06-22T18:23:55Z</time>
      </trkpt>
      <trkpt lat="40.350002" lon="-6.632882">
        <ele>850.826</ele>
        <time>2019-06-22T18:23:56Z</time>
      </trkpt>
      <trkpt lat="40.349811" lon="-6.633083">
        <ele>846.908</ele>
        <time>2019-06-22T18:23:57Z</time>
      </trkpt>
      <trkpt lat="40.349629" lon="-6.633308">
        <ele>845.541</ele>
        <time>2019-06-22T18:23:58Z</time>
      </trkpt>
      <trkpt lat="40.349458" lon="-6.633554">
        <ele>844.915</ele>
        <time>2019-06-22T18:23:59Z</time>
      </trkpt>
      <trkpt lat="40.349295" lon="-6.633820">
        <ele>844.997</ele>
        <time>2019-06-22T18:24:00Z</time>
      </trkpt>
      <trkpt lat="40.349146" lon="-6.634092">
        <ele>845.749</ele>
        <time>2019-06-22T18:24:01Z</time>
      </trkpt>
      <trkpt lat="40.349010" lon="-6.634376">
        <ele>847.867</ele>
        <time>2019-06-22T18:24:02Z</time>
      </trkpt>
      <trkpt lat="40.348884" lon="-6.634665">
        <ele>847.946</ele>
        <time>2019-06-22T18:24:03Z</time>
      </trkpt>
      <trkpt lat="40.348772" lon="-6.634954">
        <ele>847.981</ele>
        <time>2019-06-22T18:24:04Z</time>
      </trkpt>
      <trkpt lat="40.348640" lon="-6.635232">
        <ele>847.834</ele>
        <time>2019-06-22T18:24:05Z</time>
      </trkpt>
      <trkpt lat="40.348502" lon="-6.635511">
        <ele>846.837</ele>
        <time>2019-06-22T18:24:06Z</time>
      </trkpt>
      <trkpt lat="40.348350" lon="-6.635774">
        <ele>846.249</ele>
        <time>2019-06-22T18:24:07Z</time>
      </trkpt>
      <trkpt lat="40.348188" lon="-6.636028">
        <ele>845.913</ele>
        <time>2019-06-22T18:24:08Z</time>
      </trkpt>
      <trkpt lat="40.348028" lon="-6.636265">
        <ele>844.908</ele>
        <time>2019-06-22T18:24:09Z</time>
      </trkpt>
      <trkpt lat="40.347870" lon="-6.636493">
        <ele>844.946</ele>
        <time>2019-06-22T18:24:10Z</time>
      </trkpt>
      <trkpt lat="40.347714" lon="-6.636695">
        <ele>843.340</ele>
        <time>2019-06-22T18:24:11Z</time>
      </trkpt>
      <trkpt lat="40.347559" lon="-6.636890">
        <ele>841.972</ele>
        <time>2019-06-22T18:24:12Z</time>
      </trkpt>
      <trkpt lat="40.347401" lon="-6.637048">
        <ele>840.514</ele>
        <time>2019-06-22T18:24:13Z</time>
      </trkpt>
      <trkpt lat="40.347233" lon="-6.637156">
        <ele>839.622</ele>
        <time>2019-06-22T18:24:14Z</time>
      </trkpt>
      <trkpt lat="40.347062" lon="-6.637262">
        <ele>838.561</ele>
        <time>2019-06-22T18:24:15Z</time>
      </trkpt>
      <trkpt lat="40.346880" lon="-6.637266">
        <ele>838.376</ele>
        <time>2019-06-22T18:24:16Z</time>
      </trkpt>
      <trkpt lat="40.346691" lon="-6.637255">
        <ele>838.349</ele>
        <time>2019-06-22T18:24:17Z</time>
      </trkpt>
      <trkpt lat="40.346503" lon="-6.637239">
        <ele>838.227</ele>
        <time>2019-06-22T18:24:18Z</time>
      </trkpt>
      <trkpt lat="40.346297" lon="-6.637178">
        <ele>838.068</ele>
        <time>2019-06-22T18:24:19Z</time>
      </trkpt>
      <trkpt lat="40.346099" lon="-6.637130">
        <ele>837.614</ele>
        <time>2019-06-22T18:24:20Z</time>
      </trkpt>
      <trkpt lat="40.345901" lon="-6.637098">
        <ele>837.508</ele>
        <time>2019-06-22T18:24:21Z</time>
      </trkpt>
      <trkpt lat="40.345699" lon="-6.637086">
        <ele>837.185</ele>
        <time>2019-06-22T18:24:22Z</time>
      </trkpt>
      <trkpt lat="40.345494" lon="-6.637095">
        <ele>836.899</ele>
        <time>2019-06-22T18:24:23Z</time>
      </trkpt>
      <trkpt lat="40.345278" lon="-6.637128">
        <ele>836.771</ele>
        <time>2019-06-22T18:24:24Z</time>
      </trkpt>
      <trkpt lat="40.345061" lon="-6.637191">
        <ele>836.413</ele>
        <time>2019-06-22T18:24:25Z</time>
      </trkpt>
      <trkpt lat="40.344841" lon="-6.637260">
        <ele>834.761</ele>
        <time>2019-06-22T18:24:26Z</time>
      </trkpt>
      <trkpt lat="40.344613" lon="-6.637346">
        <ele>834.290</ele>
        <time>2019-06-22T18:24:27Z</time>
      </trkpt>
      <trkpt lat="40.344395" lon="-6.637426">
        <ele>833.725</ele>
        <time>2019-06-22T18:24:28Z</time>
      </trkpt>
      <trkpt lat="40.344173" lon="-6.637512">
        <ele>833.278</ele>
        <time>2019-06-22T18:24:29Z</time>
      </trkpt>
      <trkpt lat="40.343944" lon="-6.637622">
        <ele>833.251</ele>
        <time>2019-06-22T18:24:30Z</time>
      </trkpt>
      <trkpt lat="40.343726" lon="-6.637736">
        <ele>833.201</ele>
        <time>2019-06-22T18:24:31Z</time>
      </trkpt>
      <trkpt lat="40.343502" lon="-6.637863">
        <ele>832.511</ele>
        <time>2019-06-22T18:24:32Z</time>
      </trkpt>
      <trkpt lat="40.343276" lon="-6.637992">
        <ele>831.908</ele>
        <time>2019-06-22T18:24:33Z</time>
      </trkpt>
      <trkpt lat="40.343053" lon="-6.638123">
        <ele>831.948</ele>
        <time>2019-06-22T18:24:34Z</time>
      </trkpt>
      <trkpt lat="40.342826" lon="-6.638249">
        <ele>831.072</ele>
        <time>2019-06-22T18:24:35Z</time>
      </trkpt>
      <trkpt lat="40.342605" lon="-6.638376">
        <ele>831.064</ele>
        <time>2019-06-22T18:24:36Z</time>
      </trkpt>
      <trkpt lat="40.342385" lon="-6.638505">
        <ele>831.636</ele>
        <time>2019-06-22T18:24:37Z</time>
      </trkpt>
      <trkpt lat="40.342168" lon="-6.638631">
        <ele>831.654</ele>
        <time>2019-06-22T18:24:38Z</time>
      </trkpt>
      <trkpt lat="40.341951" lon="-6.638758">
        <ele>831.073</ele>
        <time>2019-06-22T18:24:39Z</time>
      </trkpt>
      <trkpt lat="40.341738" lon="-6.638878">
        <ele>830.988</ele>
        <time>2019-06-22T18:24:40Z</time>
      </trkpt>
      <trkpt lat="40.341534" lon="-6.638995">
        <ele>830.141</ele>
        <time>2019-06-22T18:24:41Z</time>
      </trkpt>
      <trkpt lat="40.341338" lon="-6.639106">
        <ele>828.292</ele>
        <time>2019-06-22T18:24:42Z</time>
      </trkpt>
      <trkpt lat="40.341147" lon="-6.639219">
        <ele>826.973</ele>
        <time>2019-06-22T18:24:43Z</time>
      </trkpt>
      <trkpt lat="40.340954" lon="-6.639327">
        <ele>826.620</ele>
        <time>2019-06-22T18:24:44Z</time>
      </trkpt>
      <trkpt lat="40.340755" lon="-6.639447">
        <ele>826.608</ele>
        <time>2019-06-22T18:24:45Z</time>
      </trkpt>
      <trkpt lat="40.340561" lon="-6.639565">
        <ele>826.982</ele>
        <time>2019-06-22T18:24:46Z</time>
      </trkpt>
      <trkpt lat="40.340363" lon="-6.639682">
        <ele>828.386</ele>
        <time>2019-06-22T18:24:47Z</time>
      </trkpt>
      <trkpt lat="40.340166" lon="-6.639796">
        <ele>830.058</ele>
        <time>2019-06-22T18:24:48Z</time>
      </trkpt>
      <trkpt lat="40.339974" lon="-6.639905">
        <ele>830.890</ele>
        <time>2019-06-22T18:24:49Z</time>
      </trkpt>
      <trkpt lat="40.339788" lon="-6.640012">
        <ele>830.878</ele>
        <time>2019-06-22T18:24:50Z</time>
      </trkpt>
      <trkpt lat="40.339608" lon="-6.640110">
        <ele>830.397</ele>
        <time>2019-06-22T18:24:51Z</time>
      </trkpt>
      <trkpt lat="40.339426" lon="-6.640218">
        <ele>829.172</ele>
        <time>2019-06-22T18:24:52Z</time>
      </trkpt>
      <trkpt lat="40.339242" lon="-6.640323">
        <ele>828.365</ele>
        <time>2019-06-22T18:24:53Z</time>
      </trkpt>
      <trkpt lat="40.339059" lon="-6.640420">
        <ele>828.344</ele>
        <time>2019-06-22T18:24:54Z</time>
      </trkpt>
      <trkpt lat="40.338884" lon="-6.640518">
        <ele>828.705</ele>
        <time>2019-06-22T18:24:55Z</time>
      </trkpt>
      <trkpt lat="40.338706" lon="-6.640620">
        <ele>829.615</ele>
        <time>2019-06-22T18:24:56Z</time>
      </trkpt>
      <trkpt lat="40.338531" lon="-6.640728">
        <ele>831.408</ele>
        <time>2019-06-22T18:24:57Z</time>
      </trkpt>
      <trkpt lat="40.338365" lon="-6.640827">
        <ele>832.347</ele>
        <time>2019-06-22T18:24:58Z</time>
      </trkpt>
      <trkpt lat="40.338204" lon="-6.640920">
        <ele>832.941</ele>
        <time>2019-06-22T18:24:59Z</time>
      </trkpt>
      <trkpt lat="40.338040" lon="-6.641007">
        <ele>833.533</ele>
        <time>2019-06-22T18:25:00Z</time>
      </trkpt>
      <trkpt lat="40.337884" lon="-6.641097">
        <ele>834.365</ele>
        <time>2019-06-22T18:25:01Z</time>
      </trkpt>
      <trkpt lat="40.337728" lon="-6.641183">
        <ele>834.373</ele>
        <time>2019-06-22T18:25:02Z</time>
      </trkpt>
      <trkpt lat="40.337578" lon="-6.641270">
        <ele>834.312</ele>
        <time>2019-06-22T18:25:03Z</time>
      </trkpt>
      <trkpt lat="40.337427" lon="-6.641347">
        <ele>835.027</ele>
        <time>2019-06-22T18:25:04Z</time>
      </trkpt>
      <trkpt lat="40.337274" lon="-6.641393">
        <ele>835.060</ele>
        <time>2019-06-22T18:25:05Z</time>
      </trkpt>
      <trkpt lat="40.337104" lon="-6.641445">
        <ele>834.763</ele>
        <time>2019-06-22T18:25:06Z</time>
      </trkpt>
      <trkpt lat="40.336929" lon="-6.641488">
        <ele>834.744</ele>
        <time>2019-06-22T18:25:07Z</time>
      </trkpt>
      <trkpt lat="40.336749" lon="-6.641551">
        <ele>834.518</ele>
        <time>2019-06-22T18:25:08Z</time>
      </trkpt>
      <trkpt lat="40.336563" lon="-6.641637">
        <ele>833.308</ele>
        <time>2019-06-22T18:25:09Z</time>
      </trkpt>
      <trkpt lat="40.336380" lon="-6.641742">
        <ele>832.349</ele>
        <time>2019-06-22T18:25:10Z</time>
      </trkpt>
      <trkpt lat="40.336202" lon="-6.641885">
        <ele>831.643</ele>
        <time>2019-06-22T18:25:11Z</time>
      </trkpt>
      <trkpt lat="40.336029" lon="-6.642030">
        <ele>831.115</ele>
        <time>2019-06-22T18:25:12Z</time>
      </trkpt>
      <trkpt lat="40.335860" lon="-6.642181">
        <ele>831.177</ele>
        <time>2019-06-22T18:25:13Z</time>
      </trkpt>
      <trkpt lat="40.335685" lon="-6.642338">
        <ele>831.165</ele>
        <time>2019-06-22T18:25:14Z</time>
      </trkpt>
      <trkpt lat="40.335507" lon="-6.642502">
        <ele>831.474</ele>
        <time>2019-06-22T18:25:15Z</time>
      </trkpt>
      <trkpt lat="40.335329" lon="-6.642662">
        <ele>831.539</ele>
        <time>2019-06-22T18:25:16Z</time>
      </trkpt>
      <trkpt lat="40.335152" lon="-6.642835">
        <ele>831.632</ele>
        <time>2019-06-22T18:25:17Z</time>
      </trkpt>
      <trkpt lat="40.334982" lon="-6.643006">
        <ele>831.923</ele>
        <time>2019-06-22T18:25:18Z</time>
      </trkpt>
      <trkpt lat="40.334802" lon="-6.643175">
        <ele>832.383</ele>
        <time>2019-06-22T18:25:19Z</time>
      </trkpt>
      <trkpt lat="40.334619" lon="-6.643336">
        <ele>832.711</ele>
        <time>2019-06-22T18:25:20Z</time>
      </trkpt>
      <trkpt lat="40.334440" lon="-6.643501">
        <ele>833.708</ele>
        <time>2019-06-22T18:25:21Z</time>
      </trkpt>
      <trkpt lat="40.334254" lon="-6.643663">
        <ele>835.445</ele>
        <time>2019-06-22T18:25:22Z</time>
      </trkpt>
      <trkpt lat="40.334071" lon="-6.643832">
        <ele>836.629</ele>
        <time>2019-06-22T18:25:23Z</time>
      </trkpt>
      <trkpt lat="40.333883" lon="-6.643992">
        <ele>837.531</ele>
        <time>2019-06-22T18:25:24Z</time>
      </trkpt>
      <trkpt lat="40.333710" lon="-6.644152">
        <ele>838.913</ele>
        <time>2019-06-22T18:25:25Z</time>
      </trkpt>
      <trkpt lat="40.333528" lon="-6.644324">
        <ele>840.371</ele>
        <time>2019-06-22T18:25:26Z</time>
      </trkpt>
      <trkpt lat="40.333342" lon="-6.644491">
        <ele>841.350</ele>
        <time>2019-06-22T18:25:27Z</time>
      </trkpt>
      <trkpt lat="40.333158" lon="-6.644655">
        <ele>842.515</ele>
        <time>2019-06-22T18:25:28Z</time>
      </trkpt>
      <trkpt lat="40.332964" lon="-6.644772">
        <ele>843.758</ele>
        <time>2019-06-22T18:25:29Z</time>
      </trkpt>
      <trkpt lat="40.332762" lon="-6.644852">
        <ele>844.815</ele>
        <time>2019-06-22T18:25:30Z</time>
      </trkpt>
      <trkpt lat="40.332564" lon="-6.644913">
        <ele>846.165</ele>
        <time>2019-06-22T18:25:31Z</time>
      </trkpt>
      <trkpt lat="40.332363" lon="-6.644970">
        <ele>847.311</ele>
        <time>2019-06-22T18:25:32Z</time>
      </trkpt>
      <trkpt lat="40.332138" lon="-6.644978">
        <ele>848.608</ele>
        <time>2019-06-22T18:25:33Z</time>
      </trkpt>
      <trkpt lat="40.331915" lon="-6.644995">
        <ele>849.764</ele>
        <time>2019-06-22T18:25:34Z</time>
      </trkpt>
      <trkpt lat="40.331689" lon="-6.645012">
        <ele>850.898</ele>
        <time>2019-06-22T18:25:35Z</time>
      </trkpt>
      <trkpt lat="40.331470" lon="-6.645013">
        <ele>850.830</ele>
        <time>2019-06-22T18:25:36Z</time>
      </trkpt>
      <trkpt lat="40.331237" lon="-6.645013">
        <ele>850.432</ele>
        <time>2019-06-22T18:25:37Z</time>
      </trkpt>
      <trkpt lat="40.331010" lon="-6.645020">
        <ele>850.120</ele>
        <time>2019-06-22T18:25:38Z</time>
      </trkpt>
      <trkpt lat="40.330770" lon="-6.645048">
        <ele>849.389</ele>
        <time>2019-06-22T18:25:39Z</time>
      </trkpt>
      <trkpt lat="40.330534" lon="-6.645082">
        <ele>848.344</ele>
        <time>2019-06-22T18:25:40Z</time>
      </trkpt>
      <trkpt lat="40.330300" lon="-6.645117">
        <ele>847.447</ele>
        <time>2019-06-22T18:25:41Z</time>
      </trkpt>
      <trkpt lat="40.330082" lon="-6.645165">
        <ele>847.022</ele>
        <time>2019-06-22T18:25:42Z</time>
      </trkpt>
      <trkpt lat="40.329888" lon="-6.645200">
        <ele>846.162</ele>
        <time>2019-06-22T18:25:43Z</time>
      </trkpt>
      <trkpt lat="40.329681" lon="-6.645207">
        <ele>845.008</ele>
        <time>2019-06-22T18:25:44Z</time>
      </trkpt>
      <trkpt lat="40.329463" lon="-6.645193">
        <ele>844.408</ele>
        <time>2019-06-22T18:25:45Z</time>
      </trkpt>
      <trkpt lat="40.329251" lon="-6.645157">
        <ele>844.035</ele>
        <time>2019-06-22T18:25:46Z</time>
      </trkpt>
      <trkpt lat="40.329043" lon="-6.645111">
        <ele>843.599</ele>
        <time>2019-06-22T18:25:47Z</time>
      </trkpt>
      <trkpt lat="40.328841" lon="-6.645072">
        <ele>842.771</ele>
        <time>2019-06-22T18:25:48Z</time>
      </trkpt>
      <trkpt lat="40.328632" lon="-6.645054">
        <ele>841.643</ele>
        <time>2019-06-22T18:25:49Z</time>
      </trkpt>
      <trkpt lat="40.328405" lon="-6.645070">
        <ele>840.341</ele>
        <time>2019-06-22T18:25:50Z</time>
      </trkpt>
      <trkpt lat="40.328192" lon="-6.645101">
        <ele>838.710</ele>
        <time>2019-06-22T18:25:51Z</time>
      </trkpt>
      <trkpt lat="40.327973" lon="-6.645176">
        <ele>837.595</ele>
        <time>2019-06-22T18:25:52Z</time>
      </trkpt>
      <trkpt lat="40.327775" lon="-6.645256">
        <ele>837.128</ele>
        <time>2019-06-22T18:25:53Z</time>
      </trkpt>
      <trkpt lat="40.327574" lon="-6.645331">
        <ele>837.147</ele>
        <time>2019-06-22T18:25:54Z</time>
      </trkpt>
      <trkpt lat="40.327363" lon="-6.645394">
        <ele>837.329</ele>
        <time>2019-06-22T18:25:55Z</time>
      </trkpt>
      <trkpt lat="40.327159" lon="-6.645444">
        <ele>837.921</ele>
        <time>2019-06-22T18:25:56Z</time>
      </trkpt>
      <trkpt lat="40.326945" lon="-6.645475">
        <ele>838.508</ele>
        <time>2019-06-22T18:25:57Z</time>
      </trkpt>
      <trkpt lat="40.326733" lon="-6.645465">
        <ele>839.037</ele>
        <time>2019-06-22T18:25:58Z</time>
      </trkpt>
      <trkpt lat="40.326525" lon="-6.645421">
        <ele>839.861</ele>
        <time>2019-06-22T18:25:59Z</time>
      </trkpt>
      <trkpt lat="40.326316" lon="-6.645367">
        <ele>840.693</ele>
        <time>2019-06-22T18:26:00Z</time>
      </trkpt>
      <trkpt lat="40.326122" lon="-6.645276">
        <ele>840.645</ele>
        <time>2019-06-22T18:26:01Z</time>
      </trkpt>
      <trkpt lat="40.325943" lon="-6.645154">
        <ele>840.653</ele>
        <time>2019-06-22T18:26:02Z</time>
      </trkpt>
      <trkpt lat="40.325752" lon="-6.645028">
        <ele>840.222</ele>
        <time>2019-06-22T18:26:03Z</time>
      </trkpt>
      <trkpt lat="40.325562" lon="-6.644900">
        <ele>838.867</ele>
        <time>2019-06-22T18:26:04Z</time>
      </trkpt>
      <trkpt lat="40.325383" lon="-6.644780">
        <ele>836.820</ele>
        <time>2019-06-22T18:26:05Z</time>
      </trkpt>
      <trkpt lat="40.325210" lon="-6.644670">
        <ele>834.841</ele>
        <time>2019-06-22T18:26:06Z</time>
      </trkpt>
      <trkpt lat="40.325043" lon="-6.644563">
        <ele>832.881</ele>
        <time>2019-06-22T18:26:07Z</time>
      </trkpt>
      <trkpt lat="40.324881" lon="-6.644458">
        <ele>831.009</ele>
        <time>2019-06-22T18:26:08Z</time>
      </trkpt>
      <trkpt lat="40.324727" lon="-6.644366">
        <ele>829.108</ele>
        <time>2019-06-22T18:26:09Z</time>
      </trkpt>
      <trkpt lat="40.324604" lon="-6.644304">
        <ele>827.837</ele>
        <time>2019-06-22T18:26:10Z</time>
      </trkpt>
      <trkpt lat="40.324475" lon="-6.644257">
        <ele>827.081</ele>
        <time>2019-06-22T18:26:11Z</time>
      </trkpt>
      <trkpt lat="40.324351" lon="-6.644265">
        <ele>825.993</ele>
        <time>2019-06-22T18:26:12Z</time>
      </trkpt>
      <trkpt lat="40.324230" lon="-6.644287">
        <ele>825.385</ele>
        <time>2019-06-22T18:26:13Z</time>
      </trkpt>
      <trkpt lat="40.324138" lon="-6.644336">
        <ele>825.213</ele>
        <time>2019-06-22T18:26:14Z</time>
      </trkpt>
      <trkpt lat="40.324100" lon="-6.644537">
        <ele>824.932</ele>
        <time>2019-06-22T18:26:15Z</time>
      </trkpt>
      <trkpt lat="40.324039" lon="-6.644690">
        <ele>824.957</ele>
        <time>2019-06-22T18:26:16Z</time>
      </trkpt>
      <trkpt lat="40.324001" lon="-6.644874">
        <ele>825.090</ele>
        <time>2019-06-22T18:26:17Z</time>
      </trkpt>
      <trkpt lat="40.323955" lon="-6.645061">
        <ele>825.032</ele>
        <time>2019-06-22T18:26:18Z</time>
      </trkpt>
      <trkpt lat="40.323897" lon="-6.645260">
        <ele>825.592</ele>
        <time>2019-06-22T18:26:19Z</time>
      </trkpt>
      <trkpt lat="40.323854" lon="-6.645435">
        <ele>826.311</ele>
        <time>2019-06-22T18:26:20Z</time>
      </trkpt>
      <trkpt lat="40.323799" lon="-6.645638">
        <ele>826.908</ele>
        <time>2019-06-22T18:26:21Z</time>
      </trkpt>
      <trkpt lat="40.323749" lon="-6.645839">
        <ele>827.336</ele>
        <time>2019-06-22T18:26:22Z</time>
      </trkpt>
      <trkpt lat="40.323697" lon="-6.646039">
        <ele>827.310</ele>
        <time>2019-06-22T18:26:23Z</time>
      </trkpt>
      <trkpt lat="40.323644" lon="-6.646234">
        <ele>827.062</ele>
        <time>2019-06-22T18:26:24Z</time>
      </trkpt>
      <trkpt lat="40.323589" lon="-6.646433">
        <ele>827.084</ele>
        <time>2019-06-22T18:26:25Z</time>
      </trkpt>
      <trkpt lat="40.323542" lon="-6.646620">
        <ele>827.042</ele>
        <time>2019-06-22T18:26:26Z</time>
      </trkpt>
      <trkpt lat="40.323491" lon="-6.646801">
        <ele>827.451</ele>
        <time>2019-06-22T18:26:27Z</time>
      </trkpt>
      <trkpt lat="40.323422" lon="-6.646983">
        <ele>827.976</ele>
        <time>2019-06-22T18:26:28Z</time>
      </trkpt>
      <trkpt lat="40.323335" lon="-6.647146">
        <ele>828.589</ele>
        <time>2019-06-22T18:26:29Z</time>
      </trkpt>
      <trkpt lat="40.323221" lon="-6.647285">
        <ele>828.897</ele>
        <time>2019-06-22T18:26:30Z</time>
      </trkpt>
      <trkpt lat="40.323087" lon="-6.647412">
        <ele>828.823</ele>
        <time>2019-06-22T18:26:31Z</time>
      </trkpt>
      <trkpt lat="40.322934" lon="-6.647507">
        <ele>829.225</ele>
        <time>2019-06-22T18:26:32Z</time>
      </trkpt>
      <trkpt lat="40.322765" lon="-6.647557">
        <ele>829.608</ele>
        <time>2019-06-22T18:26:33Z</time>
      </trkpt>
      <trkpt lat="40.322587" lon="-6.647601">
        <ele>830.042</ele>
        <time>2019-06-22T18:26:34Z</time>
      </trkpt>
      <trkpt lat="40.322407" lon="-6.647623">
        <ele>830.126</ele>
        <time>2019-06-22T18:26:35Z</time>
      </trkpt>
      <trkpt lat="40.322218" lon="-6.647636">
        <ele>830.318</ele>
        <time>2019-06-22T18:26:36Z</time>
      </trkpt>
      <trkpt lat="40.322020" lon="-6.647648">
        <ele>830.890</ele>
        <time>2019-06-22T18:26:37Z</time>
      </trkpt>
      <trkpt lat="40.321823" lon="-6.647663">
        <ele>831.168</ele>
        <time>2019-06-22T18:26:38Z</time>
      </trkpt>
      <trkpt lat="40.321630" lon="-6.647681">
        <ele>831.177</ele>
        <time>2019-06-22T18:26:39Z</time>
      </trkpt>
      <trkpt lat="40.321424" lon="-6.647694">
        <ele>831.812</ele>
        <time>2019-06-22T18:26:40Z</time>
      </trkpt>
      <trkpt lat="40.321222" lon="-6.647720">
        <ele>832.535</ele>
        <time>2019-06-22T18:26:41Z</time>
      </trkpt>
      <trkpt lat="40.321000" lon="-6.647738">
        <ele>833.372</ele>
        <time>2019-06-22T18:26:42Z</time>
      </trkpt>
      <trkpt lat="40.320787" lon="-6.647759">
        <ele>833.713</ele>
        <time>2019-06-22T18:26:43Z</time>
      </trkpt>
      <trkpt lat="40.320564" lon="-6.647778">
        <ele>834.614</ele>
        <time>2019-06-22T18:26:44Z</time>
      </trkpt>
      <trkpt lat="40.320339" lon="-6.647796">
        <ele>835.008</ele>
        <time>2019-06-22T18:26:45Z</time>
      </trkpt>
      <trkpt lat="40.320111" lon="-6.647807">
        <ele>835.770</ele>
        <time>2019-06-22T18:26:46Z</time>
      </trkpt>
      <trkpt lat="40.319882" lon="-6.647829">
        <ele>836.084</ele>
        <time>2019-06-22T18:26:47Z</time>
      </trkpt>
      <trkpt lat="40.319655" lon="-6.647853">
        <ele>836.916</ele>
        <time>2019-06-22T18:26:48Z</time>
      </trkpt>
      <trkpt lat="40.319426" lon="-6.647879">
        <ele>837.428</ele>
        <time>2019-06-22T18:26:49Z</time>
      </trkpt>
      <trkpt lat="40.319191" lon="-6.647895">
        <ele>838.136</ele>
        <time>2019-06-22T18:26:50Z</time>
      </trkpt>
      <trkpt lat="40.318956" lon="-6.647923">
        <ele>838.775</ele>
        <time>2019-06-22T18:26:51Z</time>
      </trkpt>
      <trkpt lat="40.318722" lon="-6.647951">
        <ele>838.830</ele>
        <time>2019-06-22T18:26:52Z</time>
      </trkpt>
      <trkpt lat="40.318487" lon="-6.647963">
        <ele>838.823</ele>
        <time>2019-06-22T18:26:53Z</time>
      </trkpt>
      <trkpt lat="40.318256" lon="-6.647986">
        <ele>838.842</ele>
        <time>2019-06-22T18:26:54Z</time>
      </trkpt>
      <trkpt lat="40.318016" lon="-6.648009">
        <ele>839.022</ele>
        <time>2019-06-22T18:26:55Z</time>
      </trkpt>
      <trkpt lat="40.317774" lon="-6.648035">
        <ele>839.714</ele>
        <time>2019-06-22T18:26:56Z</time>
      </trkpt>
      <trkpt lat="40.317538" lon="-6.648059">
        <ele>841.008</ele>
        <time>2019-06-22T18:26:57Z</time>
      </trkpt>
      <trkpt lat="40.317292" lon="-6.648080">
        <ele>842.127</ele>
        <time>2019-06-22T18:26:58Z</time>
      </trkpt>
      <trkpt lat="40.317057" lon="-6.648097">
        <ele>843.821</ele>
        <time>2019-06-22T18:26:59Z</time>
      </trkpt>
      <trkpt lat="40.316832" lon="-6.648120">
        <ele>845.093</ele>
        <time>2019-06-22T18:27:00Z</time>
      </trkpt>
      <trkpt lat="40.316591" lon="-6.648143">
        <ele>846.355</ele>
        <time>2019-06-22T18:27:01Z</time>
      </trkpt>
      <trkpt lat="40.316365" lon="-6.648166">
        <ele>847.463</ele>
        <time>2019-06-22T18:27:02Z</time>
      </trkpt>
      <trkpt lat="40.316144" lon="-6.648186">
        <ele>847.742</ele>
        <time>2019-06-22T18:27:03Z</time>
      </trkpt>
      <trkpt lat="40.315936" lon="-6.648205">
        <ele>848.387</ele>
        <time>2019-06-22T18:27:04Z</time>
      </trkpt>
      <trkpt lat="40.315730" lon="-6.648226">
        <ele>848.340</ele>
        <time>2019-06-22T18:27:05Z</time>
      </trkpt>
      <trkpt lat="40.315541" lon="-6.648246">
        <ele>847.638</ele>
        <time>2019-06-22T18:27:06Z</time>
      </trkpt>
      <trkpt lat="40.315353" lon="-6.648262">
        <ele>847.670</ele>
        <time>2019-06-22T18:27:07Z</time>
      </trkpt>
      <trkpt lat="40.315164" lon="-6.648281">
        <ele>848.617</ele>
        <time>2019-06-22T18:27:08Z</time>
      </trkpt>
      <trkpt lat="40.314973" lon="-6.648290">
        <ele>850.108</ele>
        <time>2019-06-22T18:27:09Z</time>
      </trkpt>
      <trkpt lat="40.314776" lon="-6.648290">
        <ele>851.446</ele>
        <time>2019-06-22T18:27:10Z</time>
      </trkpt>
      <trkpt lat="40.314569" lon="-6.648272">
        <ele>852.960</ele>
        <time>2019-06-22T18:27:11Z</time>
      </trkpt>
      <trkpt lat="40.314360" lon="-6.648234">
        <ele>853.722</ele>
        <time>2019-06-22T18:27:12Z</time>
      </trkpt>
      <trkpt lat="40.314155" lon="-6.648186">
        <ele>853.714</ele>
        <time>2019-06-22T18:27:13Z</time>
      </trkpt>
      <trkpt lat="40.313957" lon="-6.648127">
        <ele>853.332</ele>
        <time>2019-06-22T18:27:14Z</time>
      </trkpt>
      <trkpt lat="40.313761" lon="-6.648069">
        <ele>852.851</ele>
        <time>2019-06-22T18:27:15Z</time>
      </trkpt>
      <trkpt lat="40.313565" lon="-6.648013">
        <ele>852.246</ele>
        <time>2019-06-22T18:27:16Z</time>
      </trkpt>
      <trkpt lat="40.313372" lon="-6.647950">
        <ele>851.749</ele>
        <time>2019-06-22T18:27:17Z</time>
      </trkpt>
      <trkpt lat="40.313180" lon="-6.647899">
        <ele>851.699</ele>
        <time>2019-06-22T18:27:18Z</time>
      </trkpt>
      <trkpt lat="40.313007" lon="-6.647861">
        <ele>851.207</ele>
        <time>2019-06-22T18:27:19Z</time>
      </trkpt>
      <trkpt lat="40.312817" lon="-6.647827">
        <ele>851.227</ele>
        <time>2019-06-22T18:27:20Z</time>
      </trkpt>
      <trkpt lat="40.312637" lon="-6.647820">
        <ele>851.208</ele>
        <time>2019-06-22T18:27:21Z</time>
      </trkpt>
      <trkpt lat="40.312457" lon="-6.647819">
        <ele>851.482</ele>
        <time>2019-06-22T18:27:22Z</time>
      </trkpt>
      <trkpt lat="40.312286" lon="-6.647920">
        <ele>851.586</ele>
        <time>2019-06-22T18:27:23Z</time>
      </trkpt>
      <trkpt lat="40.312112" lon="-6.648010">
        <ele>851.778</ele>
        <time>2019-06-22T18:27:24Z</time>
      </trkpt>
      <trkpt lat="40.311937" lon="-6.648107">
        <ele>852.970</ele>
        <time>2019-06-22T18:27:25Z</time>
      </trkpt>
      <trkpt lat="40.311756" lon="-6.648196">
        <ele>854.478</ele>
        <time>2019-06-22T18:27:26Z</time>
      </trkpt>
      <trkpt lat="40.311568" lon="-6.648297">
        <ele>855.147</ele>
        <time>2019-06-22T18:27:27Z</time>
      </trkpt>
      <trkpt lat="40.311382" lon="-6.648390">
        <ele>856.292</ele>
        <time>2019-06-22T18:27:28Z</time>
      </trkpt>
      <trkpt lat="40.311192" lon="-6.648487">
        <ele>856.955</ele>
        <time>2019-06-22T18:27:29Z</time>
      </trkpt>
      <trkpt lat="40.311002" lon="-6.648578">
        <ele>857.253</ele>
        <time>2019-06-22T18:27:30Z</time>
      </trkpt>
      <trkpt lat="40.310803" lon="-6.648680">
        <ele>857.804</ele>
        <time>2019-06-22T18:27:31Z</time>
      </trkpt>
      <trkpt lat="40.310600" lon="-6.648784">
        <ele>858.314</ele>
        <time>2019-06-22T18:27:32Z</time>
      </trkpt>
      <trkpt lat="40.310396" lon="-6.648886">
        <ele>858.908</ele>
        <time>2019-06-22T18:27:33Z</time>
      </trkpt>
      <trkpt lat="40.310189" lon="-6.648985">
        <ele>860.048</ele>
        <time>2019-06-22T18:27:34Z</time>
      </trkpt>
      <trkpt lat="40.309981" lon="-6.649094">
        <ele>860.782</ele>
        <time>2019-06-22T18:27:35Z</time>
      </trkpt>
      <trkpt lat="40.309770" lon="-6.649211">
        <ele>861.294</ele>
        <time>2019-06-22T18:27:36Z</time>
      </trkpt>
      <trkpt lat="40.309553" lon="-6.649326">
        <ele>862.086</ele>
        <time>2019-06-22T18:27:37Z</time>
      </trkpt>
      <trkpt lat="40.309337" lon="-6.649442">
        <ele>862.214</ele>
        <time>2019-06-22T18:27:38Z</time>
      </trkpt>
      <trkpt lat="40.309117" lon="-6.649556">
        <ele>862.543</ele>
        <time>2019-06-22T18:27:39Z</time>
      </trkpt>
      <trkpt lat="40.308893" lon="-6.649668">
        <ele>863.488</ele>
        <time>2019-06-22T18:27:40Z</time>
      </trkpt>
      <trkpt lat="40.308666" lon="-6.649784">
        <ele>863.711</ele>
        <time>2019-06-22T18:27:41Z</time>
      </trkpt>
      <trkpt lat="40.308436" lon="-6.649890">
        <ele>863.824</ele>
        <time>2019-06-22T18:27:42Z</time>
      </trkpt>
      <trkpt lat="40.308205" lon="-6.650011">
        <ele>863.804</ele>
        <time>2019-06-22T18:27:43Z</time>
      </trkpt>
      <trkpt lat="40.307970" lon="-6.650126">
        <ele>863.814</ele>
        <time>2019-06-22T18:27:44Z</time>
      </trkpt>
      <trkpt lat="40.307732" lon="-6.650255">
        <ele>862.808</ele>
        <time>2019-06-22T18:27:45Z</time>
      </trkpt>
      <trkpt lat="40.307493" lon="-6.650357">
        <ele>861.475</ele>
        <time>2019-06-22T18:27:46Z</time>
      </trkpt>
      <trkpt lat="40.307256" lon="-6.650466">
        <ele>861.069</ele>
        <time>2019-06-22T18:27:47Z</time>
      </trkpt>
      <trkpt lat="40.307030" lon="-6.650584">
        <ele>861.071</ele>
        <time>2019-06-22T18:27:48Z</time>
      </trkpt>
      <trkpt lat="40.306798" lon="-6.650700">
        <ele>861.223</ele>
        <time>2019-06-22T18:27:49Z</time>
      </trkpt>
      <trkpt lat="40.306562" lon="-6.650817">
        <ele>862.561</ele>
        <time>2019-06-22T18:27:50Z</time>
      </trkpt>
      <trkpt lat="40.306337" lon="-6.650919">
        <ele>864.170</ele>
        <time>2019-06-22T18:27:51Z</time>
      </trkpt>
      <trkpt lat="40.306108" lon="-6.651039">
        <ele>866.085</ele>
        <time>2019-06-22T18:27:52Z</time>
      </trkpt>
      <trkpt lat="40.305888" lon="-6.651153">
        <ele>866.668</ele>
        <time>2019-06-22T18:27:53Z</time>
      </trkpt>
      <trkpt lat="40.305667" lon="-6.651262">
        <ele>867.827</ele>
        <time>2019-06-22T18:27:54Z</time>
      </trkpt>
      <trkpt lat="40.305442" lon="-6.651375">
        <ele>868.568</ele>
        <time>2019-06-22T18:27:55Z</time>
      </trkpt>
      <trkpt lat="40.305220" lon="-6.651486">
        <ele>868.714</ele>
        <time>2019-06-22T18:27:56Z</time>
      </trkpt>
      <trkpt lat="40.304996" lon="-6.651594">
        <ele>869.308</ele>
        <time>2019-06-22T18:27:57Z</time>
      </trkpt>
      <trkpt lat="40.304774" lon="-6.651706">
        <ele>869.365</ele>
        <time>2019-06-22T18:27:58Z</time>
      </trkpt>
      <trkpt lat="40.304552" lon="-6.651817">
        <ele>869.069</ele>
        <time>2019-06-22T18:27:59Z</time>
      </trkpt>
      <trkpt lat="40.304331" lon="-6.651930">
        <ele>868.831</ele>
        <time>2019-06-22T18:28:00Z</time>
      </trkpt>
      <trkpt lat="40.304110" lon="-6.652040">
        <ele>868.693</ele>
        <time>2019-06-22T18:28:01Z</time>
      </trkpt>
      <trkpt lat="40.303897" lon="-6.652163">
        <ele>868.671</ele>
        <time>2019-06-22T18:28:02Z</time>
      </trkpt>
      <trkpt lat="40.303677" lon="-6.652300">
        <ele>868.490</ele>
        <time>2019-06-22T18:28:03Z</time>
      </trkpt>
      <trkpt lat="40.303469" lon="-6.652465">
        <ele>867.815</ele>
        <time>2019-06-22T18:28:04Z</time>
      </trkpt>
      <trkpt lat="40.303266" lon="-6.652637">
        <ele>867.858</ele>
        <time>2019-06-22T18:28:05Z</time>
      </trkpt>
      <trkpt lat="40.303063" lon="-6.652822">
        <ele>866.894</ele>
        <time>2019-06-22T18:28:06Z</time>
      </trkpt>
      <trkpt lat="40.302857" lon="-6.652996">
        <ele>866.657</ele>
        <time>2019-06-22T18:28:07Z</time>
      </trkpt>
      <trkpt lat="40.302644" lon="-6.653166">
        <ele>866.622</ele>
        <time>2019-06-22T18:28:08Z</time>
      </trkpt>
      <trkpt lat="40.302429" lon="-6.653341">
        <ele>866.508</ele>
        <time>2019-06-22T18:28:09Z</time>
      </trkpt>
      <trkpt lat="40.302221" lon="-6.653517">
        <ele>866.782</ele>
        <time>2019-06-22T18:28:10Z</time>
      </trkpt>
      <trkpt lat="40.302008" lon="-6.653701">
        <ele>866.626</ele>
        <time>2019-06-22T18:28:11Z</time>
      </trkpt>
      <trkpt lat="40.301795" lon="-6.653879">
        <ele>866.688</ele>
        <time>2019-06-22T18:28:12Z</time>
      </trkpt>
      <trkpt lat="40.301583" lon="-6.654056">
        <ele>866.520</ele>
        <time>2019-06-22T18:28:13Z</time>
      </trkpt>
      <trkpt lat="40.301372" lon="-6.654227">
        <ele>866.248</ele>
        <time>2019-06-22T18:28:14Z</time>
      </trkpt>
      <trkpt lat="40.301164" lon="-6.654409">
        <ele>865.847</ele>
        <time>2019-06-22T18:28:15Z</time>
      </trkpt>
      <trkpt lat="40.300957" lon="-6.654583">
        <ele>865.762</ele>
        <time>2019-06-22T18:28:16Z</time>
      </trkpt>
      <trkpt lat="40.300751" lon="-6.654767">
        <ele>865.195</ele>
        <time>2019-06-22T18:28:17Z</time>
      </trkpt>
      <trkpt lat="40.300557" lon="-6.654961">
        <ele>864.885</ele>
        <time>2019-06-22T18:28:18Z</time>
      </trkpt>
      <trkpt lat="40.300364" lon="-6.655165">
        <ele>864.689</ele>
        <time>2019-06-22T18:28:19Z</time>
      </trkpt>
      <trkpt lat="40.300171" lon="-6.655377">
        <ele>863.817</ele>
        <time>2019-06-22T18:28:20Z</time>
      </trkpt>
      <trkpt lat="40.299976" lon="-6.655588">
        <ele>863.508</ele>
        <time>2019-06-22T18:28:21Z</time>
      </trkpt>
      <trkpt lat="40.299776" lon="-6.655805">
        <ele>863.411</ele>
        <time>2019-06-22T18:28:22Z</time>
      </trkpt>
      <trkpt lat="40.299575" lon="-6.656027">
        <ele>862.995</ele>
        <time>2019-06-22T18:28:23Z</time>
      </trkpt>
      <trkpt lat="40.299374" lon="-6.656236">
        <ele>862.867</ele>
        <time>2019-06-22T18:28:24Z</time>
      </trkpt>
      <trkpt lat="40.299170" lon="-6.656467">
        <ele>862.149</ele>
        <time>2019-06-22T18:28:25Z</time>
      </trkpt>
      <trkpt lat="40.298970" lon="-6.656688">
        <ele>862.127</ele>
        <time>2019-06-22T18:28:26Z</time>
      </trkpt>
      <trkpt lat="40.298766" lon="-6.656917">
        <ele>861.186</ele>
        <time>2019-06-22T18:28:27Z</time>
      </trkpt>
      <trkpt lat="40.298564" lon="-6.657134">
        <ele>860.281</ele>
        <time>2019-06-22T18:28:28Z</time>
      </trkpt>
      <trkpt lat="40.298352" lon="-6.657373">
        <ele>858.844</ele>
        <time>2019-06-22T18:28:29Z</time>
      </trkpt>
      <trkpt lat="40.298146" lon="-6.657596">
        <ele>856.882</ele>
        <time>2019-06-22T18:28:30Z</time>
      </trkpt>
      <trkpt lat="40.297934" lon="-6.657834">
        <ele>855.343</ele>
        <time>2019-06-22T18:28:31Z</time>
      </trkpt>
      <trkpt lat="40.297727" lon="-6.658060">
        <ele>854.017</ele>
        <time>2019-06-22T18:28:32Z</time>
      </trkpt>
      <trkpt lat="40.297519" lon="-6.658287">
        <ele>852.408</ele>
        <time>2019-06-22T18:28:33Z</time>
      </trkpt>
      <trkpt lat="40.297315" lon="-6.658510">
        <ele>851.671</ele>
        <time>2019-06-22T18:28:34Z</time>
      </trkpt>
      <trkpt lat="40.297113" lon="-6.658735">
        <ele>850.065</ele>
        <time>2019-06-22T18:28:35Z</time>
      </trkpt>
      <trkpt lat="40.296911" lon="-6.658948">
        <ele>848.917</ele>
        <time>2019-06-22T18:28:36Z</time>
      </trkpt>
      <trkpt lat="40.296711" lon="-6.659170">
        <ele>848.329</ele>
        <time>2019-06-22T18:28:37Z</time>
      </trkpt>
      <trkpt lat="40.296514" lon="-6.659394">
        <ele>848.367</ele>
        <time>2019-06-22T18:28:38Z</time>
      </trkpt>
      <trkpt lat="40.296313" lon="-6.659614">
        <ele>848.746</ele>
        <time>2019-06-22T18:28:39Z</time>
      </trkpt>
      <trkpt lat="40.296114" lon="-6.659829">
        <ele>849.731</ele>
        <time>2019-06-22T18:28:40Z</time>
      </trkpt>
      <trkpt lat="40.295915" lon="-6.660025">
        <ele>851.114</ele>
        <time>2019-06-22T18:28:41Z</time>
      </trkpt>
      <trkpt lat="40.295714" lon="-6.660247">
        <ele>852.151</ele>
        <time>2019-06-22T18:28:42Z</time>
      </trkpt>
      <trkpt lat="40.295515" lon="-6.660456">
        <ele>852.101</ele>
        <time>2019-06-22T18:28:43Z</time>
      </trkpt>
      <trkpt lat="40.295312" lon="-6.660680">
        <ele>852.111</ele>
        <time>2019-06-22T18:28:44Z</time>
      </trkpt>
      <trkpt lat="40.295113" lon="-6.660901">
        <ele>852.108</ele>
        <time>2019-06-22T18:28:45Z</time>
      </trkpt>
      <trkpt lat="40.294922" lon="-6.661120">
        <ele>852.188</ele>
        <time>2019-06-22T18:28:46Z</time>
      </trkpt>
      <trkpt lat="40.294723" lon="-6.661345">
        <ele>852.112</ele>
        <time>2019-06-22T18:28:47Z</time>
      </trkpt>
      <trkpt lat="40.294523" lon="-6.661557">
        <ele>852.144</ele>
        <time>2019-06-22T18:28:48Z</time>
      </trkpt>
      <trkpt lat="40.294330" lon="-6.661774">
        <ele>851.846</ele>
        <time>2019-06-22T18:28:49Z</time>
      </trkpt>
      <trkpt lat="40.294134" lon="-6.661985">
        <ele>851.784</ele>
        <time>2019-06-22T18:28:50Z</time>
      </trkpt>
      <trkpt lat="40.293941" lon="-6.662204">
        <ele>851.863</ele>
        <time>2019-06-22T18:28:51Z</time>
      </trkpt>
      <trkpt lat="40.293745" lon="-6.662406">
        <ele>852.098</ele>
        <time>2019-06-22T18:28:52Z</time>
      </trkpt>
      <trkpt lat="40.293559" lon="-6.662605">
        <ele>852.321</ele>
        <time>2019-06-22T18:28:53Z</time>
      </trkpt>
      <trkpt lat="40.293364" lon="-6.662807">
        <ele>853.427</ele>
        <time>2019-06-22T18:28:54Z</time>
      </trkpt>
      <trkpt lat="40.293164" lon="-6.663015">
        <ele>854.468</ele>
        <time>2019-06-22T18:28:55Z</time>
      </trkpt>
      <trkpt lat="40.292963" lon="-6.663235">
        <ele>854.814</ele>
        <time>2019-06-22T18:28:56Z</time>
      </trkpt>
      <trkpt lat="40.292764" lon="-6.663448">
        <ele>854.808</ele>
        <time>2019-06-22T18:28:57Z</time>
      </trkpt>
      <trkpt lat="40.292559" lon="-6.663661">
        <ele>854.885</ele>
        <time>2019-06-22T18:28:58Z</time>
      </trkpt>
      <trkpt lat="40.292362" lon="-6.663882">
        <ele>854.689</ele>
        <time>2019-06-22T18:28:59Z</time>
      </trkpt>
      <trkpt lat="40.292158" lon="-6.664096">
        <ele>853.981</ele>
        <time>2019-06-22T18:29:00Z</time>
      </trkpt>
      <trkpt lat="40.291954" lon="-6.664306">
        <ele>853.673</ele>
        <time>2019-06-22T18:29:01Z</time>
      </trkpt>
      <trkpt lat="40.291752" lon="-6.664513">
        <ele>853.431</ele>
        <time>2019-06-22T18:29:02Z</time>
      </trkpt>
      <trkpt lat="40.291552" lon="-6.664723">
        <ele>853.080</ele>
        <time>2019-06-22T18:29:03Z</time>
      </trkpt>
      <trkpt lat="40.291358" lon="-6.664922">
        <ele>853.065</ele>
        <time>2019-06-22T18:29:04Z</time>
      </trkpt>
      <trkpt lat="40.291171" lon="-6.665124">
        <ele>853.838</ele>
        <time>2019-06-22T18:29:05Z</time>
      </trkpt>
      <trkpt lat="40.290985" lon="-6.665319">
        <ele>855.419</ele>
        <time>2019-06-22T18:29:06Z</time>
      </trkpt>
      <trkpt lat="40.290800" lon="-6.665512">
        <ele>856.409</ele>
        <time>2019-06-22T18:29:07Z</time>
      </trkpt>
      <trkpt lat="40.290611" lon="-6.665704">
        <ele>858.319</ele>
        <time>2019-06-22T18:29:08Z</time>
      </trkpt>
      <trkpt lat="40.290415" lon="-6.665895">
        <ele>859.408</ele>
        <time>2019-06-22T18:29:09Z</time>
      </trkpt>
      <trkpt lat="40.290215" lon="-6.666092">
        <ele>859.494</ele>
        <time>2019-06-22T18:29:10Z</time>
      </trkpt>
      <trkpt lat="40.290020" lon="-6.666292">
        <ele>859.488</ele>
        <time>2019-06-22T18:29:11Z</time>
      </trkpt>
      <trkpt lat="40.289829" lon="-6.666499">
        <ele>858.730</ele>
        <time>2019-06-22T18:29:12Z</time>
      </trkpt>
      <trkpt lat="40.289629" lon="-6.666704">
        <ele>857.842</ele>
        <time>2019-06-22T18:29:13Z</time>
      </trkpt>
      <trkpt lat="40.289423" lon="-6.666913">
        <ele>856.990</ele>
        <time>2019-06-22T18:29:14Z</time>
      </trkpt>
      <trkpt lat="40.289214" lon="-6.667134">
        <ele>855.949</ele>
        <time>2019-06-22T18:29:15Z</time>
      </trkpt>
      <trkpt lat="40.288999" lon="-6.667343">
        <ele>854.814</ele>
        <time>2019-06-22T18:29:16Z</time>
      </trkpt>
      <trkpt lat="40.288781" lon="-6.667549">
        <ele>854.017</ele>
        <time>2019-06-22T18:29:17Z</time>
      </trkpt>
      <trkpt lat="40.288567" lon="-6.667756">
        <ele>853.128</ele>
        <time>2019-06-22T18:29:18Z</time>
      </trkpt>
      <trkpt lat="40.288350" lon="-6.667968">
        <ele>852.489</ele>
        <time>2019-06-22T18:29:19Z</time>
      </trkpt>
      <trkpt lat="40.288139" lon="-6.668175">
        <ele>851.817</ele>
        <time>2019-06-22T18:29:20Z</time>
      </trkpt>
      <trkpt lat="40.287928" lon="-6.668382">
        <ele>851.808</ele>
        <time>2019-06-22T18:29:21Z</time>
      </trkpt>
      <trkpt lat="40.287723" lon="-6.668591">
        <ele>851.915</ele>
        <time>2019-06-22T18:29:22Z</time>
      </trkpt>
      <trkpt lat="40.287518" lon="-6.668787">
        <ele>852.329</ele>
        <time>2019-06-22T18:29:23Z</time>
      </trkpt>
      <trkpt lat="40.287321" lon="-6.668985">
        <ele>852.951</ele>
        <time>2019-06-22T18:29:24Z</time>
      </trkpt>
      <trkpt lat="40.287127" lon="-6.669174">
        <ele>853.583</ele>
        <time>2019-06-22T18:29:25Z</time>
      </trkpt>
      <trkpt lat="40.286933" lon="-6.669376">
        <ele>854.821</ele>
        <time>2019-06-22T18:29:26Z</time>
      </trkpt>
      <trkpt lat="40.286737" lon="-6.669574">
        <ele>855.690</ele>
        <time>2019-06-22T18:29:27Z</time>
      </trkpt>
      <trkpt lat="40.286543" lon="-6.669771">
        <ele>856.615</ele>
        <time>2019-06-22T18:29:28Z</time>
      </trkpt>
      <trkpt lat="40.286351" lon="-6.669962">
        <ele>857.228</ele>
        <time>2019-06-22T18:29:29Z</time>
      </trkpt>
      <trkpt lat="40.286158" lon="-6.670137">
        <ele>857.812</ele>
        <time>2019-06-22T18:29:30Z</time>
      </trkpt>
      <trkpt lat="40.285966" lon="-6.670329">
        <ele>859.432</ele>
        <time>2019-06-22T18:29:31Z</time>
      </trkpt>
      <trkpt lat="40.285775" lon="-6.670520">
        <ele>860.305</ele>
        <time>2019-06-22T18:29:32Z</time>
      </trkpt>
      <trkpt lat="40.285582" lon="-6.670720">
        <ele>860.308</ele>
        <time>2019-06-22T18:29:33Z</time>
      </trkpt>
      <trkpt lat="40.285387" lon="-6.670914">
        <ele>860.874</ele>
        <time>2019-06-22T18:29:34Z</time>
      </trkpt>
      <trkpt lat="40.285193" lon="-6.671108">
        <ele>860.878</ele>
        <time>2019-06-22T18:29:35Z</time>
      </trkpt>
      <trkpt lat="40.284988" lon="-6.671294">
        <ele>860.730</ele>
        <time>2019-06-22T18:29:36Z</time>
      </trkpt>
      <trkpt lat="40.284791" lon="-6.671485">
        <ele>860.562</ele>
        <time>2019-06-22T18:29:37Z</time>
      </trkpt>
      <trkpt lat="40.284595" lon="-6.671676">
        <ele>859.980</ele>
        <time>2019-06-22T18:29:38Z</time>
      </trkpt>
      <trkpt lat="40.284399" lon="-6.671871">
        <ele>859.699</ele>
        <time>2019-06-22T18:29:39Z</time>
      </trkpt>
      <trkpt lat="40.284205" lon="-6.672067">
        <ele>859.254</ele>
        <time>2019-06-22T18:29:40Z</time>
      </trkpt>
      <trkpt lat="40.284006" lon="-6.672262">
        <ele>858.947</ele>
        <time>2019-06-22T18:29:41Z</time>
      </trkpt>
      <trkpt lat="40.283808" lon="-6.672466">
        <ele>858.357</ele>
        <time>2019-06-22T18:29:42Z</time>
      </trkpt>
      <trkpt lat="40.283617" lon="-6.672658">
        <ele>857.900</ele>
        <time>2019-06-22T18:29:43Z</time>
      </trkpt>
      <trkpt lat="40.283409" lon="-6.672857">
        <ele>856.720</ele>
        <time>2019-06-22T18:29:44Z</time>
      </trkpt>
      <trkpt lat="40.283208" lon="-6.673063">
        <ele>856.108</ele>
        <time>2019-06-22T18:29:45Z</time>
      </trkpt>
      <trkpt lat="40.283009" lon="-6.673262">
        <ele>856.178</ele>
        <time>2019-06-22T18:29:46Z</time>
      </trkpt>
      <trkpt lat="40.282809" lon="-6.673453">
        <ele>856.362</ele>
        <time>2019-06-22T18:29:47Z</time>
      </trkpt>
      <trkpt lat="40.282621" lon="-6.673632">
        <ele>856.544</ele>
        <time>2019-06-22T18:29:48Z</time>
      </trkpt>
      <trkpt lat="40.282441" lon="-6.673813">
        <ele>856.886</ele>
        <time>2019-06-22T18:29:49Z</time>
      </trkpt>
      <trkpt lat="40.282265" lon="-6.673993">
        <ele>856.814</ele>
        <time>2019-06-22T18:29:50Z</time>
      </trkpt>
      <trkpt lat="40.282109" lon="-6.674176">
        <ele>855.773</ele>
        <time>2019-06-22T18:29:51Z</time>
      </trkpt>
      <trkpt lat="40.281968" lon="-6.674364">
        <ele>854.288</ele>
        <time>2019-06-22T18:29:52Z</time>
      </trkpt>
      <trkpt lat="40.281838" lon="-6.674572">
        <ele>853.861</ele>
        <time>2019-06-22T18:29:53Z</time>
      </trkpt>
      <trkpt lat="40.281722" lon="-6.674793">
        <ele>853.843</ele>
        <time>2019-06-22T18:29:54Z</time>
      </trkpt>
      <trkpt lat="40.281615" lon="-6.675023">
        <ele>853.864</ele>
        <time>2019-06-22T18:29:55Z</time>
      </trkpt>
      <trkpt lat="40.281516" lon="-6.675258">
        <ele>856.010</ele>
        <time>2019-06-22T18:29:56Z</time>
      </trkpt>
      <trkpt lat="40.281421" lon="-6.675487">
        <ele>858.208</ele>
        <time>2019-06-22T18:29:57Z</time>
      </trkpt>
      <trkpt lat="40.281316" lon="-6.675699">
        <ele>858.337</ele>
        <time>2019-06-22T18:29:58Z</time>
      </trkpt>
      <trkpt lat="40.281206" lon="-6.675902">
        <ele>858.621</ele>
        <time>2019-06-22T18:29:59Z</time>
      </trkpt>
      <trkpt lat="40.281083" lon="-6.676092">
        <ele>858.923</ele>
        <time>2019-06-22T18:30:00Z</time>
      </trkpt>
      <trkpt lat="40.280936" lon="-6.676266">
        <ele>859.145</ele>
        <time>2019-06-22T18:30:01Z</time>
      </trkpt>
      <trkpt lat="40.280772" lon="-6.676403">
        <ele>859.183</ele>
        <time>2019-06-22T18:30:02Z</time>
      </trkpt>
      <trkpt lat="40.280594" lon="-6.676524">
        <ele>859.612</ele>
        <time>2019-06-22T18:30:03Z</time>
      </trkpt>
      <trkpt lat="40.280419" lon="-6.676647">
        <ele>859.667</ele>
        <time>2019-06-22T18:30:04Z</time>
      </trkpt>
      <trkpt lat="40.280239" lon="-6.676756">
        <ele>859.530</ele>
        <time>2019-06-22T18:30:05Z</time>
      </trkpt>
      <trkpt lat="40.280065" lon="-6.676863">
        <ele>859.248</ele>
        <time>2019-06-22T18:30:06Z</time>
      </trkpt>
      <trkpt lat="40.279901" lon="-6.676962">
        <ele>859.261</ele>
        <time>2019-06-22T18:30:07Z</time>
      </trkpt>
      <trkpt lat="40.279742" lon="-6.677064">
        <ele>859.517</ele>
        <time>2019-06-22T18:30:08Z</time>
      </trkpt>
      <trkpt lat="40.279593" lon="-6.677159">
        <ele>860.108</ele>
        <time>2019-06-22T18:30:09Z</time>
      </trkpt>
      <trkpt lat="40.279449" lon="-6.677248">
        <ele>860.477</ele>
        <time>2019-06-22T18:30:10Z</time>
      </trkpt>
      <trkpt lat="40.279304" lon="-6.677332">
        <ele>861.281</ele>
        <time>2019-06-22T18:30:11Z</time>
      </trkpt>
      <trkpt lat="40.279163" lon="-6.677425">
        <ele>861.433</ele>
        <time>2019-06-22T18:30:12Z</time>
      </trkpt>
      <trkpt lat="40.279022" lon="-6.677511">
        <ele>861.575</ele>
        <time>2019-06-22T18:30:13Z</time>
      </trkpt>
      <trkpt lat="40.278894" lon="-6.677599">
        <ele>861.553</ele>
        <time>2019-06-22T18:30:14Z</time>
      </trkpt>
      <trkpt lat="40.278778" lon="-6.677668">
        <ele>860.952</ele>
        <time>2019-06-22T18:30:15Z</time>
      </trkpt>
      <trkpt lat="40.278675" lon="-6.677742">
        <ele>860.617</ele>
        <time>2019-06-22T18:30:16Z</time>
      </trkpt>
      <trkpt lat="40.278578" lon="-6.677803">
        <ele>860.620</ele>
        <time>2019-06-22T18:30:17Z</time>
      </trkpt>
      <trkpt lat="40.278494" lon="-6.677862">
        <ele>860.626</ele>
        <time>2019-06-22T18:30:18Z</time>
      </trkpt>
      <trkpt lat="40.278427" lon="-6.677898">
        <ele>860.647</ele>
        <time>2019-06-22T18:30:19Z</time>
      </trkpt>
      <trkpt lat="40.278372" lon="-6.677943">
        <ele>861.411</ele>
        <time>2019-06-22T18:30:20Z</time>
      </trkpt>
      <trkpt lat="40.278317" lon="-6.677984">
        <ele>862.208</ele>
        <time>2019-06-22T18:30:21Z</time>
      </trkpt>
      <trkpt lat="40.278253" lon="-6.678032">
        <ele>863.025</ele>
        <time>2019-06-22T18:30:23Z</time>
      </trkpt>
      <trkpt lat="40.278198" lon="-6.678067">
        <ele>863.839</ele>
        <time>2019-06-22T18:33:29Z</time>
      </trkpt>
      <trkpt lat="40.278138" lon="-6.678102">
        <ele>863.811</ele>
        <time>2019-06-22T18:33:32Z</time>
      </trkpt>
      <trkpt lat="40.278068" lon="-6.678140">
        <ele>863.843</ele>
        <time>2019-06-22T18:33:33Z</time>
      </trkpt>
      <trkpt lat="40.277922" lon="-6.678211">
        <ele>863.891</ele>
        <time>2019-06-22T18:33:34Z</time>
      </trkpt>
      <trkpt lat="40.277819" lon="-6.678282">
        <ele>863.860</ele>
        <time>2019-06-22T18:33:35Z</time>
      </trkpt>
      <trkpt lat="40.277709" lon="-6.678347">
        <ele>863.875</ele>
        <time>2019-06-22T18:33:36Z</time>
      </trkpt>
      <trkpt lat="40.277594" lon="-6.678419">
        <ele>863.968</ele>
        <time>2019-06-22T18:33:37Z</time>
      </trkpt>
      <trkpt lat="40.277460" lon="-6.678506">
        <ele>863.978</ele>
        <time>2019-06-22T18:33:38Z</time>
      </trkpt>
      <trkpt lat="40.277313" lon="-6.678590">
        <ele>864.033</ele>
        <time>2019-06-22T18:33:39Z</time>
      </trkpt>
      <trkpt lat="40.277166" lon="-6.678689">
        <ele>864.026</ele>
        <time>2019-06-22T18:33:40Z</time>
      </trkpt>
      <trkpt lat="40.277005" lon="-6.678787">
        <ele>864.108</ele>
        <time>2019-06-22T18:33:41Z</time>
      </trkpt>
      <trkpt lat="40.276844" lon="-6.678887">
        <ele>864.220</ele>
        <time>2019-06-22T18:33:42Z</time>
      </trkpt>
      <trkpt lat="40.276673" lon="-6.678984">
        <ele>864.644</ele>
        <time>2019-06-22T18:33:43Z</time>
      </trkpt>
      <trkpt lat="40.276496" lon="-6.679084">
        <ele>865.036</ele>
        <time>2019-06-22T18:33:44Z</time>
      </trkpt>
      <trkpt lat="40.276314" lon="-6.679194">
        <ele>865.498</ele>
        <time>2019-06-22T18:33:45Z</time>
      </trkpt>
      <trkpt lat="40.276134" lon="-6.679307">
        <ele>865.676</ele>
        <time>2019-06-22T18:33:46Z</time>
      </trkpt>
      <trkpt lat="40.275945" lon="-6.679428">
        <ele>865.495</ele>
        <time>2019-06-22T18:33:47Z</time>
      </trkpt>
      <trkpt lat="40.275761" lon="-6.679549">
        <ele>865.250</ele>
        <time>2019-06-22T18:33:48Z</time>
      </trkpt>
      <trkpt lat="40.275571" lon="-6.679663">
        <ele>865.253</ele>
        <time>2019-06-22T18:33:49Z</time>
      </trkpt>
      <trkpt lat="40.275385" lon="-6.679783">
        <ele>865.595</ele>
        <time>2019-06-22T18:33:50Z</time>
      </trkpt>
      <trkpt lat="40.275196" lon="-6.679897">
        <ele>865.549</ele>
        <time>2019-06-22T18:33:51Z</time>
      </trkpt>
      <trkpt lat="40.275011" lon="-6.680019">
        <ele>866.223</ele>
        <time>2019-06-22T18:33:52Z</time>
      </trkpt>
      <trkpt lat="40.274833" lon="-6.680151">
        <ele>867.108</ele>
        <time>2019-06-22T18:33:53Z</time>
      </trkpt>
      <trkpt lat="40.274657" lon="-6.680286">
        <ele>867.592</ele>
        <time>2019-06-22T18:33:54Z</time>
      </trkpt>
      <trkpt lat="40.274500" lon="-6.680446">
        <ele>868.076</ele>
        <time>2019-06-22T18:33:55Z</time>
      </trkpt>
      <trkpt lat="40.274337" lon="-6.680621">
        <ele>868.078</ele>
        <time>2019-06-22T18:33:56Z</time>
      </trkpt>
      <trkpt lat="40.274170" lon="-6.680801">
        <ele>868.580</ele>
        <time>2019-06-22T18:33:57Z</time>
      </trkpt>
      <trkpt lat="40.273999" lon="-6.680997">
        <ele>868.538</ele>
        <time>2019-06-22T18:33:58Z</time>
      </trkpt>
      <trkpt lat="40.273826" lon="-6.681195">
        <ele>868.897</ele>
        <time>2019-06-22T18:33:59Z</time>
      </trkpt>
      <trkpt lat="40.273647" lon="-6.681398">
        <ele>869.182</ele>
        <time>2019-06-22T18:34:00Z</time>
      </trkpt>
      <trkpt lat="40.273469" lon="-6.681594">
        <ele>869.195</ele>
        <time>2019-06-22T18:34:01Z</time>
      </trkpt>
      <trkpt lat="40.273296" lon="-6.681798">
        <ele>868.775</ele>
        <time>2019-06-22T18:34:02Z</time>
      </trkpt>
      <trkpt lat="40.273127" lon="-6.681998">
        <ele>866.728</ele>
        <time>2019-06-22T18:34:03Z</time>
      </trkpt>
      <trkpt lat="40.272959" lon="-6.682204">
        <ele>865.020</ele>
        <time>2019-06-22T18:34:04Z</time>
      </trkpt>
      <trkpt lat="40.272780" lon="-6.682408">
        <ele>864.708</ele>
        <time>2019-06-22T18:34:05Z</time>
      </trkpt>
      <trkpt lat="40.272610" lon="-6.682607">
        <ele>864.120</ele>
        <time>2019-06-22T18:34:06Z</time>
      </trkpt>
      <trkpt lat="40.272433" lon="-6.682817">
        <ele>864.144</ele>
        <time>2019-06-22T18:34:07Z</time>
      </trkpt>
      <trkpt lat="40.272257" lon="-6.683021">
        <ele>864.966</ele>
        <time>2019-06-22T18:34:08Z</time>
      </trkpt>
      <trkpt lat="40.272089" lon="-6.683227">
        <ele>866.318</ele>
        <time>2019-06-22T18:34:09Z</time>
      </trkpt>
      <trkpt lat="40.271910" lon="-6.683431">
        <ele>867.026</ele>
        <time>2019-06-22T18:34:10Z</time>
      </trkpt>
      <trkpt lat="40.271730" lon="-6.683628">
        <ele>867.935</ele>
        <time>2019-06-22T18:34:11Z</time>
      </trkpt>
      <trkpt lat="40.271554" lon="-6.683831">
        <ele>869.410</ele>
        <time>2019-06-22T18:34:12Z</time>
      </trkpt>
      <trkpt lat="40.271381" lon="-6.684029">
        <ele>870.623</ele>
        <time>2019-06-22T18:34:13Z</time>
      </trkpt>
      <trkpt lat="40.271210" lon="-6.684234">
        <ele>871.872</ele>
        <time>2019-06-22T18:34:14Z</time>
      </trkpt>
      <trkpt lat="40.271036" lon="-6.684434">
        <ele>872.413</ele>
        <time>2019-06-22T18:34:15Z</time>
      </trkpt>
      <trkpt lat="40.270862" lon="-6.684628">
        <ele>872.514</ele>
        <time>2019-06-22T18:34:16Z</time>
      </trkpt>
      <trkpt lat="40.270698" lon="-6.684824">
        <ele>872.508</ele>
        <time>2019-06-22T18:34:17Z</time>
      </trkpt>
      <trkpt lat="40.270530" lon="-6.685022">
        <ele>873.470</ele>
        <time>2019-06-22T18:34:18Z</time>
      </trkpt>
      <trkpt lat="40.270360" lon="-6.685227">
        <ele>874.324</ele>
        <time>2019-06-22T18:34:19Z</time>
      </trkpt>
      <trkpt lat="40.270188" lon="-6.685431">
        <ele>875.146</ele>
        <time>2019-06-22T18:34:20Z</time>
      </trkpt>
      <trkpt lat="40.270009" lon="-6.685638">
        <ele>876.638</ele>
        <time>2019-06-22T18:34:21Z</time>
      </trkpt>
      <trkpt lat="40.269827" lon="-6.685847">
        <ele>876.866</ele>
        <time>2019-06-22T18:34:22Z</time>
      </trkpt>
      <trkpt lat="40.269647" lon="-6.686057">
        <ele>876.875</ele>
        <time>2019-06-22T18:34:23Z</time>
      </trkpt>
      <trkpt lat="40.269462" lon="-6.686274">
        <ele>876.410</ele>
        <time>2019-06-22T18:34:24Z</time>
      </trkpt>
      <trkpt lat="40.269274" lon="-6.686484">
        <ele>875.943</ele>
        <time>2019-06-22T18:34:25Z</time>
      </trkpt>
      <trkpt lat="40.269092" lon="-6.686700">
        <ele>875.864</ele>
        <time>2019-06-22T18:34:26Z</time>
      </trkpt>
      <trkpt lat="40.268906" lon="-6.686919">
        <ele>875.606</ele>
        <time>2019-06-22T18:34:27Z</time>
      </trkpt>
      <trkpt lat="40.268718" lon="-6.687131">
        <ele>874.916</ele>
        <time>2019-06-22T18:34:28Z</time>
      </trkpt>
      <trkpt lat="40.268536" lon="-6.687343">
        <ele>874.508</ele>
        <time>2019-06-22T18:34:29Z</time>
      </trkpt>
      <trkpt lat="40.268361" lon="-6.687551">
        <ele>874.369</ele>
        <time>2019-06-22T18:34:30Z</time>
      </trkpt>
      <trkpt lat="40.268185" lon="-6.687767">
        <ele>874.213</ele>
        <time>2019-06-22T18:34:31Z</time>
      </trkpt>
      <trkpt lat="40.268007" lon="-6.687978">
        <ele>874.255</ele>
        <time>2019-06-22T18:34:32Z</time>
      </trkpt>
      <trkpt lat="40.267829" lon="-6.688195">
        <ele>874.947</ele>
        <time>2019-06-22T18:34:33Z</time>
      </trkpt>
      <trkpt lat="40.267651" lon="-6.688409">
        <ele>876.055</ele>
        <time>2019-06-22T18:34:34Z</time>
      </trkpt>
      <trkpt lat="40.267469" lon="-6.688616">
        <ele>877.484</ele>
        <time>2019-06-22T18:34:35Z</time>
      </trkpt>
      <trkpt lat="40.267293" lon="-6.688817">
        <ele>878.469</ele>
        <time>2019-06-22T18:34:36Z</time>
      </trkpt>
      <trkpt lat="40.267123" lon="-6.689008">
        <ele>879.152</ele>
        <time>2019-06-22T18:34:37Z</time>
      </trkpt>
      <trkpt lat="40.266964" lon="-6.689186">
        <ele>880.099</ele>
        <time>2019-06-22T18:34:38Z</time>
      </trkpt>
      <trkpt lat="40.266819" lon="-6.689364">
        <ele>880.307</ele>
        <time>2019-06-22T18:34:39Z</time>
      </trkpt>
      <trkpt lat="40.266667" lon="-6.689526">
        <ele>880.327</ele>
        <time>2019-06-22T18:34:40Z</time>
      </trkpt>
      <trkpt lat="40.266539" lon="-6.689691">
        <ele>880.608</ele>
        <time>2019-06-22T18:34:41Z</time>
      </trkpt>
      <trkpt lat="40.266413" lon="-6.689841">
        <ele>881.452</ele>
        <time>2019-06-22T18:34:42Z</time>
      </trkpt>
      <trkpt lat="40.266285" lon="-6.689993">
        <ele>881.526</ele>
        <time>2019-06-22T18:34:43Z</time>
      </trkpt>
      <trkpt lat="40.266158" lon="-6.690130">
        <ele>882.158</ele>
        <time>2019-06-22T18:34:44Z</time>
      </trkpt>
      <trkpt lat="40.266015" lon="-6.690235">
        <ele>883.670</ele>
        <time>2019-06-22T18:34:45Z</time>
      </trkpt>
      <trkpt lat="40.265875" lon="-6.690336">
        <ele>884.858</ele>
        <time>2019-06-22T18:34:46Z</time>
      </trkpt>
      <trkpt lat="40.265727" lon="-6.690402">
        <ele>885.237</ele>
        <time>2019-06-22T18:34:47Z</time>
      </trkpt>
      <trkpt lat="40.265581" lon="-6.690424">
        <ele>887.182</ele>
        <time>2019-06-22T18:34:48Z</time>
      </trkpt>
      <trkpt lat="40.265433" lon="-6.690403">
        <ele>888.815</ele>
        <time>2019-06-22T18:34:49Z</time>
      </trkpt>
      <trkpt lat="40.265273" lon="-6.690362">
        <ele>889.882</ele>
        <time>2019-06-22T18:34:50Z</time>
      </trkpt>
      <trkpt lat="40.265114" lon="-6.690308">
        <ele>889.943</ele>
        <time>2019-06-22T18:34:51Z</time>
      </trkpt>
      <trkpt lat="40.264958" lon="-6.690248">
        <ele>890.317</ele>
        <time>2019-06-22T18:34:52Z</time>
      </trkpt>
      <trkpt lat="40.264792" lon="-6.690192">
        <ele>890.308</ele>
        <time>2019-06-22T18:34:53Z</time>
      </trkpt>
      <trkpt lat="40.264607" lon="-6.690128">
        <ele>889.811</ele>
        <time>2019-06-22T18:34:54Z</time>
      </trkpt>
      <trkpt lat="40.264422" lon="-6.690062">
        <ele>889.845</ele>
        <time>2019-06-22T18:34:55Z</time>
      </trkpt>
      <trkpt lat="40.264227" lon="-6.689993">
        <ele>889.747</ele>
        <time>2019-06-22T18:34:56Z</time>
      </trkpt>
      <trkpt lat="40.264026" lon="-6.689926">
        <ele>889.769</ele>
        <time>2019-06-22T18:34:57Z</time>
      </trkpt>
      <trkpt lat="40.263822" lon="-6.689851">
        <ele>889.797</ele>
        <time>2019-06-22T18:34:58Z</time>
      </trkpt>
      <trkpt lat="40.263625" lon="-6.689784">
        <ele>889.256</ele>
        <time>2019-06-22T18:34:59Z</time>
      </trkpt>
      <trkpt lat="40.263422" lon="-6.689705">
        <ele>889.051</ele>
        <time>2019-06-22T18:35:00Z</time>
      </trkpt>
      <trkpt lat="40.263226" lon="-6.689628">
        <ele>888.844</ele>
        <time>2019-06-22T18:35:01Z</time>
      </trkpt>
      <trkpt lat="40.263028" lon="-6.689555">
        <ele>887.728</ele>
        <time>2019-06-22T18:35:02Z</time>
      </trkpt>
      <trkpt lat="40.262824" lon="-6.689487">
        <ele>886.689</ele>
        <time>2019-06-22T18:35:03Z</time>
      </trkpt>
      <trkpt lat="40.262626" lon="-6.689415">
        <ele>886.117</ele>
        <time>2019-06-22T18:35:04Z</time>
      </trkpt>
      <trkpt lat="40.262436" lon="-6.689340">
        <ele>886.108</ele>
        <time>2019-06-22T18:35:05Z</time>
      </trkpt>
      <trkpt lat="40.262234" lon="-6.689277">
        <ele>886.245</ele>
        <time>2019-06-22T18:35:06Z</time>
      </trkpt>
      <trkpt lat="40.262039" lon="-6.689208">
        <ele>886.429</ele>
        <time>2019-06-22T18:35:07Z</time>
      </trkpt>
      <trkpt lat="40.261840" lon="-6.689135">
        <ele>887.521</ele>
        <time>2019-06-22T18:35:08Z</time>
      </trkpt>
      <trkpt lat="40.261639" lon="-6.689069">
        <ele>888.443</ele>
        <time>2019-06-22T18:35:09Z</time>
      </trkpt>
      <trkpt lat="40.261434" lon="-6.689011">
        <ele>888.441</ele>
        <time>2019-06-22T18:35:10Z</time>
      </trkpt>
      <trkpt lat="40.261233" lon="-6.688973">
        <ele>886.690</ele>
        <time>2019-06-22T18:35:11Z</time>
      </trkpt>
      <trkpt lat="40.261026" lon="-6.688967">
        <ele>885.185</ele>
        <time>2019-06-22T18:35:12Z</time>
      </trkpt>
      <trkpt lat="40.260822" lon="-6.689004">
        <ele>881.878</ele>
        <time>2019-06-22T18:35:13Z</time>
      </trkpt>
      <trkpt lat="40.260614" lon="-6.689064">
        <ele>879.094</ele>
        <time>2019-06-22T18:35:14Z</time>
      </trkpt>
      <trkpt lat="40.260412" lon="-6.689163">
        <ele>876.357</ele>
        <time>2019-06-22T18:35:15Z</time>
      </trkpt>
      <trkpt lat="40.260207" lon="-6.689275">
        <ele>875.622</ele>
        <time>2019-06-22T18:35:16Z</time>
      </trkpt>
      <trkpt lat="40.259997" lon="-6.689391">
        <ele>875.608</ele>
        <time>2019-06-22T18:35:17Z</time>
      </trkpt>
      <trkpt lat="40.259785" lon="-6.689498">
        <ele>876.462</ele>
        <time>2019-06-22T18:35:18Z</time>
      </trkpt>
      <trkpt lat="40.259574" lon="-6.689608">
        <ele>877.826</ele>
        <time>2019-06-22T18:35:19Z</time>
      </trkpt>
      <trkpt lat="40.259366" lon="-6.689707">
        <ele>877.898</ele>
        <time>2019-06-22T18:35:20Z</time>
      </trkpt>
      <trkpt lat="40.259167" lon="-6.689813">
        <ele>877.780</ele>
        <time>2019-06-22T18:35:21Z</time>
      </trkpt>
      <trkpt lat="40.258974" lon="-6.689910">
        <ele>877.528</ele>
        <time>2019-06-22T18:35:22Z</time>
      </trkpt>
      <trkpt lat="40.258801" lon="-6.690003">
        <ele>877.027</ele>
        <time>2019-06-22T18:35:23Z</time>
      </trkpt>
      <trkpt lat="40.258629" lon="-6.690074">
        <ele>877.022</ele>
        <time>2019-06-22T18:35:24Z</time>
      </trkpt>
      <trkpt lat="40.258460" lon="-6.690132">
        <ele>877.935</ele>
        <time>2019-06-22T18:35:25Z</time>
      </trkpt>
      <trkpt lat="40.258288" lon="-6.690161">
        <ele>878.967</ele>
        <time>2019-06-22T18:35:26Z</time>
      </trkpt>
      <trkpt lat="40.258128" lon="-6.690159">
        <ele>879.781</ele>
        <time>2019-06-22T18:35:27Z</time>
      </trkpt>
      <trkpt lat="40.257973" lon="-6.690126">
        <ele>880.919</ele>
        <time>2019-06-22T18:35:28Z</time>
      </trkpt>
      <trkpt lat="40.257818" lon="-6.690059">
        <ele>881.208</ele>
        <time>2019-06-22T18:35:29Z</time>
      </trkpt>
      <trkpt lat="40.257654" lon="-6.689978">
        <ele>881.269</ele>
        <time>2019-06-22T18:35:30Z</time>
      </trkpt>
      <trkpt lat="40.257484" lon="-6.689886">
        <ele>881.133</ele>
        <time>2019-06-22T18:35:31Z</time>
      </trkpt>
      <trkpt lat="40.257302" lon="-6.689790">
        <ele>881.095</ele>
        <time>2019-06-22T18:35:32Z</time>
      </trkpt>
      <trkpt lat="40.257113" lon="-6.689687">
        <ele>880.087</ele>
        <time>2019-06-22T18:35:33Z</time>
      </trkpt>
      <trkpt lat="40.256917" lon="-6.689585">
        <ele>878.985</ele>
        <time>2019-06-22T18:35:34Z</time>
      </trkpt>
      <trkpt lat="40.256716" lon="-6.689482">
        <ele>877.224</ele>
        <time>2019-06-22T18:35:35Z</time>
      </trkpt>
      <trkpt lat="40.256509" lon="-6.689373">
        <ele>876.429</ele>
        <time>2019-06-22T18:35:36Z</time>
      </trkpt>
      <trkpt lat="40.256299" lon="-6.689262">
        <ele>876.372</ele>
        <time>2019-06-22T18:35:37Z</time>
      </trkpt>
      <trkpt lat="40.256089" lon="-6.689155">
        <ele>876.344</ele>
        <time>2019-06-22T18:35:38Z</time>
      </trkpt>
      <trkpt lat="40.255882" lon="-6.689044">
        <ele>876.305</ele>
        <time>2019-06-22T18:35:39Z</time>
      </trkpt>
      <trkpt lat="40.255674" lon="-6.688936">
        <ele>876.315</ele>
        <time>2019-06-22T18:35:40Z</time>
      </trkpt>
      <trkpt lat="40.255466" lon="-6.688832">
        <ele>874.808</ele>
        <time>2019-06-22T18:35:41Z</time>
      </trkpt>
      <trkpt lat="40.255264" lon="-6.688735">
        <ele>872.867</ele>
        <time>2019-06-22T18:35:42Z</time>
      </trkpt>
      <trkpt lat="40.255061" lon="-6.688629">
        <ele>870.991</ele>
        <time>2019-06-22T18:35:43Z</time>
      </trkpt>
      <trkpt lat="40.254852" lon="-6.688525">
        <ele>869.433</ele>
        <time>2019-06-22T18:35:44Z</time>
      </trkpt>
      <trkpt lat="40.254636" lon="-6.688430">
        <ele>868.155</ele>
        <time>2019-06-22T18:35:45Z</time>
      </trkpt>
      <trkpt lat="40.254419" lon="-6.688352">
        <ele>867.923</ele>
        <time>2019-06-22T18:35:46Z</time>
      </trkpt>
      <trkpt lat="40.254200" lon="-6.688310">
        <ele>867.682</ele>
        <time>2019-06-22T18:35:47Z</time>
      </trkpt>
      <trkpt lat="40.253956" lon="-6.688271">
        <ele>867.347</ele>
        <time>2019-06-22T18:35:48Z</time>
      </trkpt>
      <trkpt lat="40.253722" lon="-6.688227">
        <ele>866.320</ele>
        <time>2019-06-22T18:35:49Z</time>
      </trkpt>
      <trkpt lat="40.253496" lon="-6.688191">
        <ele>866.375</ele>
        <time>2019-06-22T18:35:50Z</time>
      </trkpt>
      <trkpt lat="40.253283" lon="-6.688159">
        <ele>864.428</ele>
        <time>2019-06-22T18:35:51Z</time>
      </trkpt>
      <trkpt lat="40.253074" lon="-6.688133">
        <ele>863.320</ele>
        <time>2019-06-22T18:35:52Z</time>
      </trkpt>
      <trkpt lat="40.252871" lon="-6.688115">
        <ele>862.708</ele>
        <time>2019-06-22T18:35:53Z</time>
      </trkpt>
      <trkpt lat="40.252673" lon="-6.688115">
        <ele>862.290</ele>
        <time>2019-06-22T18:35:54Z</time>
      </trkpt>
      <trkpt lat="40.252470" lon="-6.688144">
        <ele>862.284</ele>
        <time>2019-06-22T18:35:55Z</time>
      </trkpt>
      <trkpt lat="40.252274" lon="-6.688207">
        <ele>863.366</ele>
        <time>2019-06-22T18:35:56Z</time>
      </trkpt>
      <trkpt lat="40.252086" lon="-6.688289">
        <ele>864.818</ele>
        <time>2019-06-22T18:35:57Z</time>
      </trkpt>
      <trkpt lat="40.251894" lon="-6.688386">
        <ele>866.776</ele>
        <time>2019-06-22T18:35:58Z</time>
      </trkpt>
      <trkpt lat="40.251716" lon="-6.688478">
        <ele>866.785</ele>
        <time>2019-06-22T18:35:59Z</time>
      </trkpt>
      <trkpt lat="40.251547" lon="-6.688563">
        <ele>868.510</ele>
        <time>2019-06-22T18:36:00Z</time>
      </trkpt>
      <trkpt lat="40.251381" lon="-6.688645">
        <ele>869.693</ele>
        <time>2019-06-22T18:36:01Z</time>
      </trkpt>
      <trkpt lat="40.251216" lon="-6.688716">
        <ele>870.845</ele>
        <time>2019-06-22T18:36:02Z</time>
      </trkpt>
      <trkpt lat="40.251038" lon="-6.688764">
        <ele>872.847</ele>
        <time>2019-06-22T18:36:03Z</time>
      </trkpt>
      <trkpt lat="40.250867" lon="-6.688773">
        <ele>874.311</ele>
        <time>2019-06-22T18:36:04Z</time>
      </trkpt>
      <trkpt lat="40.250697" lon="-6.688752">
        <ele>875.608</ele>
        <time>2019-06-22T18:36:05Z</time>
      </trkpt>
      <trkpt lat="40.250524" lon="-6.688692">
        <ele>877.547</ele>
        <time>2019-06-22T18:36:06Z</time>
      </trkpt>
      <trkpt lat="40.250357" lon="-6.688595">
        <ele>879.451</ele>
        <time>2019-06-22T18:36:07Z</time>
      </trkpt>
      <trkpt lat="40.250199" lon="-6.688469">
        <ele>880.383</ele>
        <time>2019-06-22T18:36:08Z</time>
      </trkpt>
      <trkpt lat="40.250044" lon="-6.688327">
        <ele>881.115</ele>
        <time>2019-06-22T18:36:09Z</time>
      </trkpt>
      <trkpt lat="40.249887" lon="-6.688184">
        <ele>881.793</ele>
        <time>2019-06-22T18:36:10Z</time>
      </trkpt>
      <trkpt lat="40.249732" lon="-6.688058">
        <ele>882.092</ele>
        <time>2019-06-22T18:36:11Z</time>
      </trkpt>
      <trkpt lat="40.249570" lon="-6.687951">
        <ele>882.737</ele>
        <time>2019-06-22T18:36:12Z</time>
      </trkpt>
      <trkpt lat="40.249401" lon="-6.687880">
        <ele>882.780</ele>
        <time>2019-06-22T18:36:13Z</time>
      </trkpt>
      <trkpt lat="40.249236" lon="-6.687858">
        <ele>883.384</ele>
        <time>2019-06-22T18:36:14Z</time>
      </trkpt>
      <trkpt lat="40.249064" lon="-6.687888">
        <ele>883.807</ele>
        <time>2019-06-22T18:36:15Z</time>
      </trkpt>
      <trkpt lat="40.248887" lon="-6.687934">
        <ele>883.917</ele>
        <time>2019-06-22T18:36:16Z</time>
      </trkpt>
      <trkpt lat="40.248708" lon="-6.688010">
        <ele>884.108</ele>
        <time>2019-06-22T18:36:17Z</time>
      </trkpt>
      <trkpt lat="40.248530" lon="-6.688076">
        <ele>885.441</ele>
        <time>2019-06-22T18:36:18Z</time>
      </trkpt>
      <trkpt lat="40.248363" lon="-6.688150">
        <ele>886.045</ele>
        <time>2019-06-22T18:36:19Z</time>
      </trkpt>
      <trkpt lat="40.248194" lon="-6.688213">
        <ele>887.197</ele>
        <time>2019-06-22T18:36:20Z</time>
      </trkpt>
      <trkpt lat="40.248035" lon="-6.688277">
        <ele>888.429</ele>
        <time>2019-06-22T18:36:21Z</time>
      </trkpt>
      <trkpt lat="40.247878" lon="-6.688327">
        <ele>890.237</ele>
        <time>2019-06-22T18:36:22Z</time>
      </trkpt>
      <trkpt lat="40.247733" lon="-6.688343">
        <ele>891.086</ele>
        <time>2019-06-22T18:36:23Z</time>
      </trkpt>
      <trkpt lat="40.247586" lon="-6.688327">
        <ele>891.921</ele>
        <time>2019-06-22T18:36:24Z</time>
      </trkpt>
      <trkpt lat="40.247438" lon="-6.688267">
        <ele>892.674</ele>
        <time>2019-06-22T18:36:25Z</time>
      </trkpt>
      <trkpt lat="40.247298" lon="-6.688163">
        <ele>892.865</ele>
        <time>2019-06-22T18:36:26Z</time>
      </trkpt>
      <trkpt lat="40.247155" lon="-6.688050">
        <ele>892.968</ele>
        <time>2019-06-22T18:36:27Z</time>
      </trkpt>
      <trkpt lat="40.247003" lon="-6.687933">
        <ele>892.914</ele>
        <time>2019-06-22T18:36:28Z</time>
      </trkpt>
      <trkpt lat="40.246851" lon="-6.687819">
        <ele>892.708</ele>
        <time>2019-06-22T18:36:29Z</time>
      </trkpt>
      <trkpt lat="40.246693" lon="-6.687708">
        <ele>892.189</ele>
        <time>2019-06-22T18:36:30Z</time>
      </trkpt>
      <trkpt lat="40.246525" lon="-6.687597">
        <ele>892.113</ele>
        <time>2019-06-22T18:36:31Z</time>
      </trkpt>
      <trkpt lat="40.246357" lon="-6.687476">
        <ele>892.335</ele>
        <time>2019-06-22T18:36:32Z</time>
      </trkpt>
      <trkpt lat="40.246189" lon="-6.687355">
        <ele>892.697</ele>
        <time>2019-06-22T18:36:33Z</time>
      </trkpt>
      <trkpt lat="40.246023" lon="-6.687221">
        <ele>892.715</ele>
        <time>2019-06-22T18:36:34Z</time>
      </trkpt>
      <trkpt lat="40.245854" lon="-6.687086">
        <ele>893.074</ele>
        <time>2019-06-22T18:36:35Z</time>
      </trkpt>
      <trkpt lat="40.245687" lon="-6.686925">
        <ele>893.059</ele>
        <time>2019-06-22T18:36:36Z</time>
      </trkpt>
      <trkpt lat="40.245532" lon="-6.686734">
        <ele>891.912</ele>
        <time>2019-06-22T18:36:37Z</time>
      </trkpt>
      <trkpt lat="40.245385" lon="-6.686530">
        <ele>889.896</ele>
        <time>2019-06-22T18:36:38Z</time>
      </trkpt>
      <trkpt lat="40.245246" lon="-6.686324">
        <ele>887.831</ele>
        <time>2019-06-22T18:36:39Z</time>
      </trkpt>
      <trkpt lat="40.245103" lon="-6.686105">
        <ele>886.124</ele>
        <time>2019-06-22T18:36:40Z</time>
      </trkpt>
      <trkpt lat="40.244958" lon="-6.685897">
        <ele>883.808</ele>
        <time>2019-06-22T18:36:41Z</time>
      </trkpt>
      <trkpt lat="40.244820" lon="-6.685681">
        <ele>881.372</ele>
        <time>2019-06-22T18:36:42Z</time>
      </trkpt>
      <trkpt lat="40.244673" lon="-6.685495">
        <ele>879.586</ele>
        <time>2019-06-22T18:36:43Z</time>
      </trkpt>
      <trkpt lat="40.244524" lon="-6.685301">
        <ele>877.668</ele>
        <time>2019-06-22T18:36:44Z</time>
      </trkpt>
      <trkpt lat="40.244368" lon="-6.685128">
        <ele>876.040</ele>
        <time>2019-06-22T18:36:45Z</time>
      </trkpt>
      <trkpt lat="40.244203" lon="-6.684981">
        <ele>875.228</ele>
        <time>2019-06-22T18:36:46Z</time>
      </trkpt>
      <trkpt lat="40.244032" lon="-6.684845">
        <ele>874.457</ele>
        <time>2019-06-22T18:36:47Z</time>
      </trkpt>
      <trkpt lat="40.243832" lon="-6.684780">
        <ele>873.842</ele>
        <time>2019-06-22T18:36:48Z</time>
      </trkpt>
      <trkpt lat="40.243658" lon="-6.684729">
        <ele>873.475</ele>
        <time>2019-06-22T18:36:49Z</time>
      </trkpt>
      <trkpt lat="40.243483" lon="-6.684699">
        <ele>872.051</ele>
        <time>2019-06-22T18:36:50Z</time>
      </trkpt>
      <trkpt lat="40.243325" lon="-6.684707">
        <ele>870.401</ele>
        <time>2019-06-22T18:36:51Z</time>
      </trkpt>
      <trkpt lat="40.243162" lon="-6.684701">
        <ele>869.311</ele>
        <time>2019-06-22T18:36:52Z</time>
      </trkpt>
      <trkpt lat="40.243013" lon="-6.684776">
        <ele>868.508</ele>
        <time>2019-06-22T18:36:53Z</time>
      </trkpt>
      <trkpt lat="40.242883" lon="-6.684904">
        <ele>866.368</ele>
        <time>2019-06-22T18:36:54Z</time>
      </trkpt>
      <trkpt lat="40.242760" lon="-6.685085">
        <ele>865.982</ele>
        <time>2019-06-22T18:36:55Z</time>
      </trkpt>
      <trkpt lat="40.242602" lon="-6.685217">
        <ele>865.934</ele>
        <time>2019-06-22T18:36:56Z</time>
      </trkpt>
      <trkpt lat="40.242458" lon="-6.685309">
        <ele>865.896</ele>
        <time>2019-06-22T18:36:57Z</time>
      </trkpt>
      <trkpt lat="40.242284" lon="-6.685385">
        <ele>865.854</ele>
        <time>2019-06-22T18:36:58Z</time>
      </trkpt>
      <trkpt lat="40.242084" lon="-6.685412">
        <ele>866.613</ele>
        <time>2019-06-22T18:36:59Z</time>
      </trkpt>
      <trkpt lat="40.241921" lon="-6.685440">
        <ele>866.648</ele>
        <time>2019-06-22T18:37:00Z</time>
      </trkpt>
      <trkpt lat="40.241745" lon="-6.685482">
        <ele>865.521</ele>
        <time>2019-06-22T18:37:01Z</time>
      </trkpt>
      <trkpt lat="40.241553" lon="-6.685533">
        <ele>864.111</ele>
        <time>2019-06-22T18:37:02Z</time>
      </trkpt>
      <trkpt lat="40.241374" lon="-6.685579">
        <ele>864.121</ele>
        <time>2019-06-22T18:37:03Z</time>
      </trkpt>
      <trkpt lat="40.241214" lon="-6.685627">
        <ele>861.303</ele>
        <time>2019-06-22T18:37:04Z</time>
      </trkpt>
      <trkpt lat="40.241034" lon="-6.685672">
        <ele>861.308</ele>
        <time>2019-06-22T18:37:05Z</time>
      </trkpt>
      <trkpt lat="40.240848" lon="-6.685707">
        <ele>860.914</ele>
        <time>2019-06-22T18:37:06Z</time>
      </trkpt>
      <trkpt lat="40.240678" lon="-6.685733">
        <ele>860.538</ele>
        <time>2019-06-22T18:37:07Z</time>
      </trkpt>
      <trkpt lat="40.240490" lon="-6.685755">
        <ele>859.910</ele>
        <time>2019-06-22T18:37:08Z</time>
      </trkpt>
      <trkpt lat="40.240307" lon="-6.685758">
        <ele>859.952</ele>
        <time>2019-06-22T18:37:09Z</time>
      </trkpt>
      <trkpt lat="40.240129" lon="-6.685745">
        <ele>858.610</ele>
        <time>2019-06-22T18:37:10Z</time>
      </trkpt>
      <trkpt lat="40.239952" lon="-6.685719">
        <ele>857.219</ele>
        <time>2019-06-22T18:37:11Z</time>
      </trkpt>
      <trkpt lat="40.239788" lon="-6.685690">
        <ele>855.934</ele>
        <time>2019-06-22T18:37:12Z</time>
      </trkpt>
      <trkpt lat="40.239625" lon="-6.685688">
        <ele>854.377</ele>
        <time>2019-06-22T18:37:13Z</time>
      </trkpt>
      <trkpt lat="40.239471" lon="-6.685723">
        <ele>852.549</ele>
        <time>2019-06-22T18:37:14Z</time>
      </trkpt>
      <trkpt lat="40.239325" lon="-6.685766">
        <ele>850.502</ele>
        <time>2019-06-22T18:37:15Z</time>
      </trkpt>
      <trkpt lat="40.239181" lon="-6.685839">
        <ele>849.222</ele>
        <time>2019-06-22T18:37:16Z</time>
      </trkpt>
      <trkpt lat="40.239094" lon="-6.686069">
        <ele>847.708</ele>
        <time>2019-06-22T18:37:17Z</time>
      </trkpt>
      <trkpt lat="40.238983" lon="-6.686246">
        <ele>846.567</ele>
        <time>2019-06-22T18:37:18Z</time>
      </trkpt>
      <trkpt lat="40.238877" lon="-6.686435">
        <ele>845.571</ele>
        <time>2019-06-22T18:37:19Z</time>
      </trkpt>
      <trkpt lat="40.238764" lon="-6.686610">
        <ele>845.173</ele>
        <time>2019-06-22T18:37:20Z</time>
      </trkpt>
      <trkpt lat="40.238631" lon="-6.686777">
        <ele>844.615</ele>
        <time>2019-06-22T18:37:21Z</time>
      </trkpt>
      <trkpt lat="40.238486" lon="-6.686924">
        <ele>844.453</ele>
        <time>2019-06-22T18:37:22Z</time>
      </trkpt>
      <trkpt lat="40.238335" lon="-6.687069">
        <ele>844.042</ele>
        <time>2019-06-22T18:37:23Z</time>
      </trkpt>
      <trkpt lat="40.238150" lon="-6.687150">
        <ele>843.137</ele>
        <time>2019-06-22T18:37:24Z</time>
      </trkpt>
      <trkpt lat="40.237996" lon="-6.687248">
        <ele>842.040</ele>
        <time>2019-06-22T18:37:25Z</time>
      </trkpt>
      <trkpt lat="40.237805" lon="-6.687340">
        <ele>841.222</ele>
        <time>2019-06-22T18:37:26Z</time>
      </trkpt>
      <trkpt lat="40.237630" lon="-6.687403">
        <ele>840.162</ele>
        <time>2019-06-22T18:37:27Z</time>
      </trkpt>
      <trkpt lat="40.237462" lon="-6.687466">
        <ele>838.908</ele>
        <time>2019-06-22T18:37:28Z</time>
      </trkpt>
      <trkpt lat="40.237290" lon="-6.687519">
        <ele>837.608</ele>
        <time>2019-06-22T18:37:29Z</time>
      </trkpt>
      <trkpt lat="40.237140" lon="-6.687570">
        <ele>835.925</ele>
        <time>2019-06-22T18:37:30Z</time>
      </trkpt>
      <trkpt lat="40.236982" lon="-6.687601">
        <ele>833.759</ele>
        <time>2019-06-22T18:37:31Z</time>
      </trkpt>
      <trkpt lat="40.236824" lon="-6.687593">
        <ele>831.671</ele>
        <time>2019-06-22T18:37:32Z</time>
      </trkpt>
      <trkpt lat="40.236666" lon="-6.687556">
        <ele>830.333</ele>
        <time>2019-06-22T18:37:33Z</time>
      </trkpt>
      <trkpt lat="40.236524" lon="-6.687473">
        <ele>830.371</ele>
        <time>2019-06-22T18:37:34Z</time>
      </trkpt>
      <trkpt lat="40.236392" lon="-6.687354">
        <ele>830.320</ele>
        <time>2019-06-22T18:37:35Z</time>
      </trkpt>
      <trkpt lat="40.236263" lon="-6.687207">
        <ele>831.225</ele>
        <time>2019-06-22T18:37:36Z</time>
      </trkpt>
      <trkpt lat="40.236134" lon="-6.687051">
        <ele>831.298</ele>
        <time>2019-06-22T18:37:37Z</time>
      </trkpt>
      <trkpt lat="40.235995" lon="-6.686907">
        <ele>831.289</ele>
        <time>2019-06-22T18:37:38Z</time>
      </trkpt>
      <trkpt lat="40.235843" lon="-6.686767">
        <ele>830.306</ele>
        <time>2019-06-22T18:37:39Z</time>
      </trkpt>
      <trkpt lat="40.235686" lon="-6.686636">
        <ele>829.026</ele>
        <time>2019-06-22T18:37:40Z</time>
      </trkpt>
      <trkpt lat="40.235516" lon="-6.686529">
        <ele>827.108</ele>
        <time>2019-06-22T18:37:41Z</time>
      </trkpt>
      <trkpt lat="40.235350" lon="-6.686437">
        <ele>825.831</ele>
        <time>2019-06-22T18:37:42Z</time>
      </trkpt>
      <trkpt lat="40.235187" lon="-6.686382">
        <ele>823.995</ele>
        <time>2019-06-22T18:37:43Z</time>
      </trkpt>
      <trkpt lat="40.235028" lon="-6.686377">
        <ele>822.797</ele>
        <time>2019-06-22T18:37:44Z</time>
      </trkpt>
      <trkpt lat="40.234862" lon="-6.686415">
        <ele>821.859</ele>
        <time>2019-06-22T18:37:45Z</time>
      </trkpt>
      <trkpt lat="40.234700" lon="-6.686477">
        <ele>821.257</ele>
        <time>2019-06-22T18:37:46Z</time>
      </trkpt>
      <trkpt lat="40.234539" lon="-6.686540">
        <ele>820.216</ele>
        <time>2019-06-22T18:37:47Z</time>
      </trkpt>
      <trkpt lat="40.234376" lon="-6.686570">
        <ele>819.781</ele>
        <time>2019-06-22T18:37:48Z</time>
      </trkpt>
      <trkpt lat="40.234218" lon="-6.686559">
        <ele>818.714</ele>
        <time>2019-06-22T18:37:49Z</time>
      </trkpt>
      <trkpt lat="40.234069" lon="-6.686498">
        <ele>817.999</ele>
        <time>2019-06-22T18:37:50Z</time>
      </trkpt>
      <trkpt lat="40.233915" lon="-6.686432">
        <ele>816.807</ele>
        <time>2019-06-22T18:37:51Z</time>
      </trkpt>
      <trkpt lat="40.233829" lon="-6.686298">
        <ele>816.127</ele>
        <time>2019-06-22T18:37:52Z</time>
      </trkpt>
      <trkpt lat="40.233714" lon="-6.686171">
        <ele>814.908</ele>
        <time>2019-06-22T18:37:53Z</time>
      </trkpt>
      <trkpt lat="40.233591" lon="-6.686054">
        <ele>813.412</ele>
        <time>2019-06-22T18:37:54Z</time>
      </trkpt>
      <trkpt lat="40.233466" lon="-6.685951">
        <ele>812.036</ele>
        <time>2019-06-22T18:37:55Z</time>
      </trkpt>
      <trkpt lat="40.233333" lon="-6.685855">
        <ele>810.748</ele>
        <time>2019-06-22T18:37:56Z</time>
      </trkpt>
      <trkpt lat="40.233225" lon="-6.685767">
        <ele>809.580</ele>
        <time>2019-06-22T18:37:57Z</time>
      </trkpt>
      <trkpt lat="40.233063" lon="-6.685791">
        <ele>808.298</ele>
        <time>2019-06-22T18:37:58Z</time>
      </trkpt>
      <trkpt lat="40.232907" lon="-6.685779">
        <ele>808.057</ele>
        <time>2019-06-22T18:37:59Z</time>
      </trkpt>
      <trkpt lat="40.232731" lon="-6.685776">
        <ele>807.852</ele>
        <time>2019-06-22T18:38:00Z</time>
      </trkpt>
      <trkpt lat="40.232552" lon="-6.685762">
        <ele>807.715</ele>
        <time>2019-06-22T18:38:01Z</time>
      </trkpt>
      <trkpt lat="40.232376" lon="-6.685734">
        <ele>807.647</ele>
        <time>2019-06-22T18:38:02Z</time>
      </trkpt>
      <trkpt lat="40.232197" lon="-6.685672">
        <ele>807.629</ele>
        <time>2019-06-22T18:38:03Z</time>
      </trkpt>
      <trkpt lat="40.232025" lon="-6.685587">
        <ele>807.121</ele>
        <time>2019-06-22T18:38:04Z</time>
      </trkpt>
      <trkpt lat="40.231867" lon="-6.685491">
        <ele>806.308</ele>
        <time>2019-06-22T18:38:05Z</time>
      </trkpt>
      <trkpt lat="40.231708" lon="-6.685383">
        <ele>806.367</ele>
        <time>2019-06-22T18:38:06Z</time>
      </trkpt>
      <trkpt lat="40.231558" lon="-6.685281">
        <ele>803.151</ele>
        <time>2019-06-22T18:38:07Z</time>
      </trkpt>
      <trkpt lat="40.231411" lon="-6.685163">
        <ele>803.173</ele>
        <time>2019-06-22T18:38:08Z</time>
      </trkpt>
      <trkpt lat="40.231269" lon="-6.685033">
        <ele>802.175</ele>
        <time>2019-06-22T18:38:09Z</time>
      </trkpt>
      <trkpt lat="40.231161" lon="-6.684885">
        <ele>801.393</ele>
        <time>2019-06-22T18:38:10Z</time>
      </trkpt>
      <trkpt lat="40.231142" lon="-6.684665">
        <ele>800.572</ele>
        <time>2019-06-22T18:38:11Z</time>
      </trkpt>
      <trkpt lat="40.231085" lon="-6.684469">
        <ele>800.397</ele>
        <time>2019-06-22T18:38:12Z</time>
      </trkpt>
      <trkpt lat="40.231059" lon="-6.684243">
        <ele>799.950</ele>
        <time>2019-06-22T18:38:13Z</time>
      </trkpt>
      <trkpt lat="40.231086" lon="-6.684008">
        <ele>799.866</ele>
        <time>2019-06-22T18:38:14Z</time>
      </trkpt>
      <trkpt lat="40.231094" lon="-6.683759">
        <ele>798.729</ele>
        <time>2019-06-22T18:38:15Z</time>
      </trkpt>
      <trkpt lat="40.231107" lon="-6.683495">
        <ele>798.121</ele>
        <time>2019-06-22T18:38:16Z</time>
      </trkpt>
      <trkpt lat="40.231117" lon="-6.683224">
        <ele>797.308</ele>
        <time>2019-06-22T18:38:17Z</time>
      </trkpt>
      <trkpt lat="40.231111" lon="-6.682957">
        <ele>796.419</ele>
        <time>2019-06-22T18:38:18Z</time>
      </trkpt>
      <trkpt lat="40.231123" lon="-6.682706">
        <ele>795.333</ele>
        <time>2019-06-22T18:38:19Z</time>
      </trkpt>
      <trkpt lat="40.231126" lon="-6.682445">
        <ele>794.115</ele>
        <time>2019-06-22T18:38:20Z</time>
      </trkpt>
      <trkpt lat="40.231113" lon="-6.682175">
        <ele>793.147</ele>
        <time>2019-06-22T18:38:21Z</time>
      </trkpt>
      <trkpt lat="40.231093" lon="-6.681920">
        <ele>792.095</ele>
        <time>2019-06-22T18:38:22Z</time>
      </trkpt>
      <trkpt lat="40.231031" lon="-6.681688">
        <ele>790.174</ele>
        <time>2019-06-22T18:38:23Z</time>
      </trkpt>
      <trkpt lat="40.230945" lon="-6.681462">
        <ele>788.829</ele>
        <time>2019-06-22T18:38:24Z</time>
      </trkpt>
      <trkpt lat="40.230839" lon="-6.681249">
        <ele>787.822</ele>
        <time>2019-06-22T18:38:25Z</time>
      </trkpt>
      <trkpt lat="40.230726" lon="-6.681050">
        <ele>786.361</ele>
        <time>2019-06-22T18:38:26Z</time>
      </trkpt>
      <trkpt lat="40.230618" lon="-6.680869">
        <ele>784.621</ele>
        <time>2019-06-22T18:38:27Z</time>
      </trkpt>
      <trkpt lat="40.230506" lon="-6.680728">
        <ele>783.413</ele>
        <time>2019-06-22T18:38:28Z</time>
      </trkpt>
      <trkpt lat="40.230364" lon="-6.680607">
        <ele>781.708</ele>
        <time>2019-06-22T18:38:29Z</time>
      </trkpt>
      <trkpt lat="40.230216" lon="-6.680537">
        <ele>779.599</ele>
        <time>2019-06-22T18:38:30Z</time>
      </trkpt>
      <trkpt lat="40.230060" lon="-6.680511">
        <ele>776.893</ele>
        <time>2019-06-22T18:38:31Z</time>
      </trkpt>
      <trkpt lat="40.229902" lon="-6.680530">
        <ele>775.485</ele>
        <time>2019-06-22T18:38:32Z</time>
      </trkpt>
      <trkpt lat="40.229735" lon="-6.680555">
        <ele>774.077</ele>
        <time>2019-06-22T18:38:33Z</time>
      </trkpt>
      <trkpt lat="40.229566" lon="-6.680656">
        <ele>773.515</ele>
        <time>2019-06-22T18:38:34Z</time>
      </trkpt>
      <trkpt lat="40.229397" lon="-6.680716">
        <ele>773.354</ele>
        <time>2019-06-22T18:38:35Z</time>
      </trkpt>
      <trkpt lat="40.229224" lon="-6.680755">
        <ele>773.189</ele>
        <time>2019-06-22T18:38:36Z</time>
      </trkpt>
      <trkpt lat="40.229059" lon="-6.680753">
        <ele>773.172</ele>
        <time>2019-06-22T18:38:37Z</time>
      </trkpt>
      <trkpt lat="40.228899" lon="-6.680708">
        <ele>773.181</ele>
        <time>2019-06-22T18:38:38Z</time>
      </trkpt>
      <trkpt lat="40.228735" lon="-6.680634">
        <ele>772.361</ele>
        <time>2019-06-22T18:38:39Z</time>
      </trkpt>
      <trkpt lat="40.228575" lon="-6.680498">
        <ele>771.417</ele>
        <time>2019-06-22T18:38:40Z</time>
      </trkpt>
      <trkpt lat="40.228421" lon="-6.680377">
        <ele>770.408</ele>
        <time>2019-06-22T18:38:41Z</time>
      </trkpt>
      <trkpt lat="40.228264" lon="-6.680263">
        <ele>768.941</ele>
        <time>2019-06-22T18:38:42Z</time>
      </trkpt>
      <trkpt lat="40.228116" lon="-6.680143">
        <ele>767.485</ele>
        <time>2019-06-22T18:38:43Z</time>
      </trkpt>
      <trkpt lat="40.227964" lon="-6.680028">
        <ele>766.297</ele>
        <time>2019-06-22T18:38:44Z</time>
      </trkpt>
      <trkpt lat="40.227816" lon="-6.679909">
        <ele>764.169</ele>
        <time>2019-06-22T18:38:45Z</time>
      </trkpt>
      <trkpt lat="40.227668" lon="-6.679807">
        <ele>762.737</ele>
        <time>2019-06-22T18:38:46Z</time>
      </trkpt>
      <trkpt lat="40.227534" lon="-6.679677">
        <ele>761.886</ele>
        <time>2019-06-22T18:38:47Z</time>
      </trkpt>
      <trkpt lat="40.227400" lon="-6.679543">
        <ele>761.271</ele>
        <time>2019-06-22T18:38:48Z</time>
      </trkpt>
      <trkpt lat="40.227308" lon="-6.679359">
        <ele>760.924</ele>
        <time>2019-06-22T18:38:49Z</time>
      </trkpt>
      <trkpt lat="40.227280" lon="-6.679200">
        <ele>760.963</ele>
        <time>2019-06-22T18:38:50Z</time>
      </trkpt>
      <trkpt lat="40.227238" lon="-6.678997">
        <ele>761.044</ele>
        <time>2019-06-22T18:38:51Z</time>
      </trkpt>
      <trkpt lat="40.227235" lon="-6.678780">
        <ele>761.018</ele>
        <time>2019-06-22T18:38:52Z</time>
      </trkpt>
      <trkpt lat="40.227253" lon="-6.678584">
        <ele>760.408</ele>
        <time>2019-06-22T18:38:53Z</time>
      </trkpt>
      <trkpt lat="40.227275" lon="-6.678378">
        <ele>759.359</ele>
        <time>2019-06-22T18:38:54Z</time>
      </trkpt>
      <trkpt lat="40.227284" lon="-6.678171">
        <ele>757.893</ele>
        <time>2019-06-22T18:38:55Z</time>
      </trkpt>
      <trkpt lat="40.227268" lon="-6.677975">
        <ele>756.835</ele>
        <time>2019-06-22T18:38:56Z</time>
      </trkpt>
      <trkpt lat="40.227241" lon="-6.677783">
        <ele>755.157</ele>
        <time>2019-06-22T18:38:57Z</time>
      </trkpt>
      <trkpt lat="40.227181" lon="-6.677614">
        <ele>753.535</ele>
        <time>2019-06-22T18:38:58Z</time>
      </trkpt>
      <trkpt lat="40.227117" lon="-6.677441">
        <ele>751.664</ele>
        <time>2019-06-22T18:38:59Z</time>
      </trkpt>
      <trkpt lat="40.227023" lon="-6.677319">
        <ele>749.869</ele>
        <time>2019-06-22T18:39:00Z</time>
      </trkpt>
      <trkpt lat="40.226934" lon="-6.677191">
        <ele>747.972</ele>
        <time>2019-06-22T18:39:01Z</time>
      </trkpt>
      <trkpt lat="40.226802" lon="-6.677122">
        <ele>746.738</ele>
        <time>2019-06-22T18:39:02Z</time>
      </trkpt>
      <trkpt lat="40.226631" lon="-6.677006">
        <ele>745.670</ele>
        <time>2019-06-22T18:39:03Z</time>
      </trkpt>
      <trkpt lat="40.226505" lon="-6.676922">
        <ele>745.617</ele>
        <time>2019-06-22T18:39:04Z</time>
      </trkpt>
      <trkpt lat="40.226386" lon="-6.676803">
        <ele>745.908</ele>
        <time>2019-06-22T18:39:05Z</time>
      </trkpt>
      <trkpt lat="40.226285" lon="-6.676646">
        <ele>746.416</ele>
        <time>2019-06-22T18:39:06Z</time>
      </trkpt>
      <trkpt lat="40.226198" lon="-6.676478">
        <ele>746.460</ele>
        <time>2019-06-22T18:39:07Z</time>
      </trkpt>
      <trkpt lat="40.226154" lon="-6.676252">
        <ele>746.462</ele>
        <time>2019-06-22T18:39:08Z</time>
      </trkpt>
      <trkpt lat="40.226106" lon="-6.676024">
        <ele>746.054</ele>
        <time>2019-06-22T18:39:09Z</time>
      </trkpt>
      <trkpt lat="40.226054" lon="-6.675794">
        <ele>744.632</ele>
        <time>2019-06-22T18:39:10Z</time>
      </trkpt>
      <trkpt lat="40.226005" lon="-6.675621">
        <ele>743.391</ele>
        <time>2019-06-22T18:39:11Z</time>
      </trkpt>
      <trkpt lat="40.225949" lon="-6.675413">
        <ele>743.316</ele>
        <time>2019-06-22T18:39:12Z</time>
      </trkpt>
      <trkpt lat="40.225892" lon="-6.675195">
        <ele>741.869</ele>
        <time>2019-06-22T18:39:13Z</time>
      </trkpt>
      <trkpt lat="40.225828" lon="-6.674987">
        <ele>740.041</ele>
        <time>2019-06-22T18:39:14Z</time>
      </trkpt>
      <trkpt lat="40.225745" lon="-6.674785">
        <ele>737.981</ele>
        <time>2019-06-22T18:39:15Z</time>
      </trkpt>
      <trkpt lat="40.225638" lon="-6.674586">
        <ele>736.709</ele>
        <time>2019-06-22T18:39:16Z</time>
      </trkpt>
      <trkpt lat="40.225516" lon="-6.674420">
        <ele>735.508</ele>
        <time>2019-06-22T18:39:17Z</time>
      </trkpt>
      <trkpt lat="40.225376" lon="-6.674265">
        <ele>733.987</ele>
        <time>2019-06-22T18:39:18Z</time>
      </trkpt>
      <trkpt lat="40.225220" lon="-6.674139">
        <ele>733.071</ele>
        <time>2019-06-22T18:39:19Z</time>
      </trkpt>
      <trkpt lat="40.225068" lon="-6.674019">
        <ele>732.113</ele>
        <time>2019-06-22T18:39:20Z</time>
      </trkpt>
      <trkpt lat="40.224907" lon="-6.673933">
        <ele>730.795</ele>
        <time>2019-06-22T18:39:21Z</time>
      </trkpt>
      <trkpt lat="40.224693" lon="-6.673950">
        <ele>728.663</ele>
        <time>2019-06-22T18:39:22Z</time>
      </trkpt>
      <trkpt lat="40.224519" lon="-6.673915">
        <ele>727.682</ele>
        <time>2019-06-22T18:39:23Z</time>
      </trkpt>
      <trkpt lat="40.224341" lon="-6.673852">
        <ele>726.377</ele>
        <time>2019-06-22T18:39:24Z</time>
      </trkpt>
      <trkpt lat="40.224160" lon="-6.673801">
        <ele>726.330</ele>
        <time>2019-06-22T18:39:25Z</time>
      </trkpt>
      <trkpt lat="40.223977" lon="-6.673727">
        <ele>726.331</ele>
        <time>2019-06-22T18:39:26Z</time>
      </trkpt>
      <trkpt lat="40.223792" lon="-6.673642">
        <ele>726.361</ele>
        <time>2019-06-22T18:39:27Z</time>
      </trkpt>
      <trkpt lat="40.223619" lon="-6.673556">
        <ele>726.307</ele>
        <time>2019-06-22T18:39:28Z</time>
      </trkpt>
      <trkpt lat="40.223462" lon="-6.673461">
        <ele>724.708</ele>
        <time>2019-06-22T18:39:29Z</time>
      </trkpt>
      <trkpt lat="40.223296" lon="-6.673359">
        <ele>723.566</ele>
        <time>2019-06-22T18:39:30Z</time>
      </trkpt>
      <trkpt lat="40.223148" lon="-6.673246">
        <ele>722.260</ele>
        <time>2019-06-22T18:39:31Z</time>
      </trkpt>
      <trkpt lat="40.223021" lon="-6.673130">
        <ele>721.232</ele>
        <time>2019-06-22T18:39:32Z</time>
      </trkpt>
      <trkpt lat="40.222894" lon="-6.673016">
        <ele>720.374</ele>
        <time>2019-06-22T18:39:33Z</time>
      </trkpt>
      <trkpt lat="40.222767" lon="-6.672908">
        <ele>720.242</ele>
        <time>2019-06-22T18:39:34Z</time>
      </trkpt>
      <trkpt lat="40.222632" lon="-6.672835">
        <ele>720.161</ele>
        <time>2019-06-22T18:39:35Z</time>
      </trkpt>
      <trkpt lat="40.222489" lon="-6.672759">
        <ele>720.156</ele>
        <time>2019-06-22T18:39:36Z</time>
      </trkpt>
      <trkpt lat="40.222319" lon="-6.672808">
        <ele>719.789</ele>
        <time>2019-06-22T18:39:37Z</time>
      </trkpt>
      <trkpt lat="40.222188" lon="-6.672818">
        <ele>719.584</ele>
        <time>2019-06-22T18:39:38Z</time>
      </trkpt>
      <trkpt lat="40.222023" lon="-6.672844">
        <ele>719.307</ele>
        <time>2019-06-22T18:39:39Z</time>
      </trkpt>
      <trkpt lat="40.221884" lon="-6.672892">
        <ele>718.017</ele>
        <time>2019-06-22T18:39:40Z</time>
      </trkpt>
      <trkpt lat="40.221823" lon="-6.672986">
        <ele>716.708</ele>
        <time>2019-06-22T18:39:41Z</time>
      </trkpt>
      <trkpt lat="40.221750" lon="-6.673241">
        <ele>716.021</ele>
        <time>2019-06-22T18:39:42Z</time>
      </trkpt>
      <trkpt lat="40.221693" lon="-6.673379">
        <ele>714.315</ele>
        <time>2019-06-22T18:39:43Z</time>
      </trkpt>
      <trkpt lat="40.221653" lon="-6.673557">
        <ele>712.577</ele>
        <time>2019-06-22T18:39:44Z</time>
      </trkpt>
      <trkpt lat="40.221631" lon="-6.673859">
        <ele>711.749</ele>
        <time>2019-06-22T18:39:45Z</time>
      </trkpt>
      <trkpt lat="40.221592" lon="-6.674081">
        <ele>710.627</ele>
        <time>2019-06-22T18:39:46Z</time>
      </trkpt>
      <trkpt lat="40.221555" lon="-6.674297">
        <ele>709.126</ele>
        <time>2019-06-22T18:39:47Z</time>
      </trkpt>
      <trkpt lat="40.221523" lon="-6.674543">
        <ele>707.971</ele>
        <time>2019-06-22T18:39:48Z</time>
      </trkpt>
      <trkpt lat="40.221490" lon="-6.674748">
        <ele>706.674</ele>
        <time>2019-06-22T18:39:49Z</time>
      </trkpt>
      <trkpt lat="40.221440" lon="-6.674938">
        <ele>705.226</ele>
        <time>2019-06-22T18:39:50Z</time>
      </trkpt>
      <trkpt lat="40.221369" lon="-6.675114">
        <ele>704.047</ele>
        <time>2019-06-22T18:39:51Z</time>
      </trkpt>
      <trkpt lat="40.221277" lon="-6.675281">
        <ele>702.611</ele>
        <time>2019-06-22T18:39:52Z</time>
      </trkpt>
      <trkpt lat="40.221151" lon="-6.675424">
        <ele>701.708</ele>
        <time>2019-06-22T18:39:53Z</time>
      </trkpt>
      <trkpt lat="40.221014" lon="-6.675524">
        <ele>701.665</ele>
        <time>2019-06-22T18:39:54Z</time>
      </trkpt>
      <trkpt lat="40.220864" lon="-6.675591">
        <ele>701.269</ele>
        <time>2019-06-22T18:39:55Z</time>
      </trkpt>
      <trkpt lat="40.220700" lon="-6.675614">
        <ele>700.691</ele>
        <time>2019-06-22T18:39:56Z</time>
      </trkpt>
      <trkpt lat="40.220536" lon="-6.675602">
        <ele>700.163</ele>
        <time>2019-06-22T18:39:57Z</time>
      </trkpt>
      <trkpt lat="40.220381" lon="-6.675576">
        <ele>699.441</ele>
        <time>2019-06-22T18:39:58Z</time>
      </trkpt>
      <trkpt lat="40.220228" lon="-6.675549">
        <ele>697.240</ele>
        <time>2019-06-22T18:39:59Z</time>
      </trkpt>
      <trkpt lat="40.220058" lon="-6.675540">
        <ele>694.625</ele>
        <time>2019-06-22T18:40:00Z</time>
      </trkpt>
      <trkpt lat="40.219881" lon="-6.675548">
        <ele>692.098</ele>
        <time>2019-06-22T18:40:01Z</time>
      </trkpt>
      <trkpt lat="40.219721" lon="-6.675588">
        <ele>689.816</ele>
        <time>2019-06-22T18:40:02Z</time>
      </trkpt>
      <trkpt lat="40.219552" lon="-6.675641">
        <ele>687.576</ele>
        <time>2019-06-22T18:40:03Z</time>
      </trkpt>
      <trkpt lat="40.219383" lon="-6.675711">
        <ele>685.813</ele>
        <time>2019-06-22T18:40:04Z</time>
      </trkpt>
      <trkpt lat="40.219220" lon="-6.675786">
        <ele>684.308</ele>
        <time>2019-06-22T18:40:05Z</time>
      </trkpt>
      <trkpt lat="40.219046" lon="-6.675852">
        <ele>682.724</ele>
        <time>2019-06-22T18:40:06Z</time>
      </trkpt>
      <trkpt lat="40.218871" lon="-6.675923">
        <ele>680.888</ele>
        <time>2019-06-22T18:40:07Z</time>
      </trkpt>
      <trkpt lat="40.218697" lon="-6.675989">
        <ele>678.720</ele>
        <time>2019-06-22T18:40:08Z</time>
      </trkpt>
      <trkpt lat="40.218533" lon="-6.676049">
        <ele>677.012</ele>
        <time>2019-06-22T18:40:09Z</time>
      </trkpt>
      <trkpt lat="40.218361" lon="-6.676095">
        <ele>675.680</ele>
        <time>2019-06-22T18:40:10Z</time>
      </trkpt>
      <trkpt lat="40.218188" lon="-6.676132">
        <ele>674.079</ele>
        <time>2019-06-22T18:40:11Z</time>
      </trkpt>
      <trkpt lat="40.218008" lon="-6.676159">
        <ele>672.884</ele>
        <time>2019-06-22T18:40:12Z</time>
      </trkpt>
      <trkpt lat="40.217825" lon="-6.676167">
        <ele>670.637</ele>
        <time>2019-06-22T18:40:13Z</time>
      </trkpt>
      <trkpt lat="40.217623" lon="-6.676151">
        <ele>669.153</ele>
        <time>2019-06-22T18:40:14Z</time>
      </trkpt>
      <trkpt lat="40.217422" lon="-6.676123">
        <ele>667.104</ele>
        <time>2019-06-22T18:40:15Z</time>
      </trkpt>
      <trkpt lat="40.217207" lon="-6.676085">
        <ele>667.114</ele>
        <time>2019-06-22T18:40:16Z</time>
      </trkpt>
      <trkpt lat="40.216989" lon="-6.676040">
        <ele>665.708</ele>
        <time>2019-06-22T18:40:17Z</time>
      </trkpt>
      <trkpt lat="40.216765" lon="-6.675987">
        <ele>663.698</ele>
        <time>2019-06-22T18:40:18Z</time>
      </trkpt>
      <trkpt lat="40.216546" lon="-6.675930">
        <ele>660.722</ele>
        <time>2019-06-22T18:40:19Z</time>
      </trkpt>
      <trkpt lat="40.216325" lon="-6.675875">
        <ele>657.824</ele>
        <time>2019-06-22T18:40:20Z</time>
      </trkpt>
      <trkpt lat="40.216097" lon="-6.675817">
        <ele>654.696</ele>
        <time>2019-06-22T18:40:21Z</time>
      </trkpt>
      <trkpt lat="40.215868" lon="-6.675755">
        <ele>651.084</ele>
        <time>2019-06-22T18:40:22Z</time>
      </trkpt>
      <trkpt lat="40.215644" lon="-6.675695">
        <ele>647.923</ele>
        <time>2019-06-22T18:40:23Z</time>
      </trkpt>
      <trkpt lat="40.215421" lon="-6.675638">
        <ele>646.458</ele>
        <time>2019-06-22T18:40:24Z</time>
      </trkpt>
      <trkpt lat="40.215199" lon="-6.675580">
        <ele>644.011</ele>
        <time>2019-06-22T18:40:25Z</time>
      </trkpt>
      <trkpt lat="40.214970" lon="-6.675521">
        <ele>641.421</ele>
        <time>2019-06-22T18:40:26Z</time>
      </trkpt>
      <trkpt lat="40.214740" lon="-6.675466">
        <ele>638.241</ele>
        <time>2019-06-22T18:40:27Z</time>
      </trkpt>
      <trkpt lat="40.214529" lon="-6.675423">
        <ele>634.605</ele>
        <time>2019-06-22T18:40:28Z</time>
      </trkpt>
      <trkpt lat="40.214325" lon="-6.675407">
        <ele>631.208</ele>
        <time>2019-06-22T18:40:29Z</time>
      </trkpt>
      <trkpt lat="40.214108" lon="-6.675419">
        <ele>628.175</ele>
        <time>2019-06-22T18:40:30Z</time>
      </trkpt>
      <trkpt lat="40.213898" lon="-6.675467">
        <ele>624.479</ele>
        <time>2019-06-22T18:40:31Z</time>
      </trkpt>
      <trkpt lat="40.213696" lon="-6.675538">
        <ele>621.581</ele>
        <time>2019-06-22T18:40:32Z</time>
      </trkpt>
      <trkpt lat="40.213494" lon="-6.675628">
        <ele>619.213</ele>
        <time>2019-06-22T18:40:33Z</time>
      </trkpt>
      <trkpt lat="40.213293" lon="-6.675729">
        <ele>617.271</ele>
        <time>2019-06-22T18:40:34Z</time>
      </trkpt>
      <trkpt lat="40.213101" lon="-6.675820">
        <ele>615.240</ele>
        <time>2019-06-22T18:40:35Z</time>
      </trkpt>
      <trkpt lat="40.212908" lon="-6.675916">
        <ele>613.985</ele>
        <time>2019-06-22T18:40:36Z</time>
      </trkpt>
      <trkpt lat="40.212710" lon="-6.676006">
        <ele>612.958</ele>
        <time>2019-06-22T18:40:37Z</time>
      </trkpt>
      <trkpt lat="40.212504" lon="-6.676092">
        <ele>611.319</ele>
        <time>2019-06-22T18:40:38Z</time>
      </trkpt>
      <trkpt lat="40.212297" lon="-6.676170">
        <ele>610.209</ele>
        <time>2019-06-22T18:40:39Z</time>
      </trkpt>
      <trkpt lat="40.212088" lon="-6.676220">
        <ele>609.619</ele>
        <time>2019-06-22T18:40:40Z</time>
      </trkpt>
      <trkpt lat="40.211880" lon="-6.676259">
        <ele>608.708</ele>
        <time>2019-06-22T18:40:41Z</time>
      </trkpt>
      <trkpt lat="40.211667" lon="-6.676301">
        <ele>607.284</ele>
        <time>2019-06-22T18:40:42Z</time>
      </trkpt>
      <trkpt lat="40.211467" lon="-6.676335">
        <ele>606.558</ele>
        <time>2019-06-22T18:40:43Z</time>
      </trkpt>
      <trkpt lat="40.211272" lon="-6.676365">
        <ele>605.810</ele>
        <time>2019-06-22T18:40:44Z</time>
      </trkpt>
      <trkpt lat="40.211084" lon="-6.676402">
        <ele>603.842</ele>
        <time>2019-06-22T18:40:45Z</time>
      </trkpt>
      <trkpt lat="40.210897" lon="-6.676439">
        <ele>601.910</ele>
        <time>2019-06-22T18:40:46Z</time>
      </trkpt>
      <trkpt lat="40.210712" lon="-6.676454">
        <ele>601.459</ele>
        <time>2019-06-22T18:40:47Z</time>
      </trkpt>
      <trkpt lat="40.210518" lon="-6.676461">
        <ele>601.244</ele>
        <time>2019-06-22T18:40:48Z</time>
      </trkpt>
      <trkpt lat="40.210337" lon="-6.676457">
        <ele>600.527</ele>
        <time>2019-06-22T18:40:49Z</time>
      </trkpt>
      <trkpt lat="40.210164" lon="-6.676448">
        <ele>599.944</ele>
        <time>2019-06-22T18:40:50Z</time>
      </trkpt>
      <trkpt lat="40.209994" lon="-6.676445">
        <ele>599.705</ele>
        <time>2019-06-22T18:40:51Z</time>
      </trkpt>
      <trkpt lat="40.209849" lon="-6.676437">
        <ele>599.615</ele>
        <time>2019-06-22T18:40:52Z</time>
      </trkpt>
      <trkpt lat="40.209706" lon="-6.676424">
        <ele>598.808</ele>
        <time>2019-06-22T18:40:53Z</time>
      </trkpt>
      <trkpt lat="40.209571" lon="-6.676418">
        <ele>597.897</ele>
        <time>2019-06-22T18:40:54Z</time>
      </trkpt>
      <trkpt lat="40.209443" lon="-6.676404">
        <ele>597.431</ele>
        <time>2019-06-22T18:40:55Z</time>
      </trkpt>
      <trkpt lat="40.209321" lon="-6.676400">
        <ele>596.963</ele>
        <time>2019-06-22T18:40:56Z</time>
      </trkpt>
      <trkpt lat="40.209205" lon="-6.676391">
        <ele>595.915</ele>
        <time>2019-06-22T18:40:57Z</time>
      </trkpt>
      <trkpt lat="40.209089" lon="-6.676380">
        <ele>594.973</ele>
        <time>2019-06-22T18:40:58Z</time>
      </trkpt>
      <trkpt lat="40.208977" lon="-6.676365">
        <ele>593.822</ele>
        <time>2019-06-22T18:40:59Z</time>
      </trkpt>
      <trkpt lat="40.208868" lon="-6.676337">
        <ele>592.867</ele>
        <time>2019-06-22T18:41:00Z</time>
      </trkpt>
      <trkpt lat="40.208753" lon="-6.676304">
        <ele>592.190</ele>
        <time>2019-06-22T18:41:01Z</time>
      </trkpt>
      <trkpt lat="40.208657" lon="-6.676264">
        <ele>591.583</ele>
        <time>2019-06-22T18:41:02Z</time>
      </trkpt>
      <trkpt lat="40.208546" lon="-6.676214">
        <ele>590.925</ele>
        <time>2019-06-22T18:41:03Z</time>
      </trkpt>
      <trkpt lat="40.208437" lon="-6.676152">
        <ele>590.317</ele>
        <time>2019-06-22T18:41:04Z</time>
      </trkpt>
      <trkpt lat="40.208323" lon="-6.676068">
        <ele>589.708</ele>
        <time>2019-06-22T18:41:05Z</time>
      </trkpt>
      <trkpt lat="40.208199" lon="-6.675965">
        <ele>588.881</ele>
        <time>2019-06-22T18:41:06Z</time>
      </trkpt>
      <trkpt lat="40.208060" lon="-6.675849">
        <ele>587.595</ele>
        <time>2019-06-22T18:41:07Z</time>
      </trkpt>
      <trkpt lat="40.207904" lon="-6.675722">
        <ele>586.457</ele>
        <time>2019-06-22T18:41:08Z</time>
      </trkpt>
      <trkpt lat="40.207749" lon="-6.675592">
        <ele>585.059</ele>
        <time>2019-06-22T18:41:09Z</time>
      </trkpt>
      <trkpt lat="40.207585" lon="-6.675449">
        <ele>583.757</ele>
        <time>2019-06-22T18:41:10Z</time>
      </trkpt>
      <trkpt lat="40.207414" lon="-6.675308">
        <ele>582.516</ele>
        <time>2019-06-22T18:41:11Z</time>
      </trkpt>
      <trkpt lat="40.207243" lon="-6.675165">
        <ele>580.841</ele>
        <time>2019-06-22T18:41:12Z</time>
      </trkpt>
      <trkpt lat="40.207074" lon="-6.675026">
        <ele>579.144</ele>
        <time>2019-06-22T18:41:13Z</time>
      </trkpt>
      <trkpt lat="40.206901" lon="-6.674889">
        <ele>577.616</ele>
        <time>2019-06-22T18:41:14Z</time>
      </trkpt>
      <trkpt lat="40.206730" lon="-6.674751">
        <ele>575.976</ele>
        <time>2019-06-22T18:41:15Z</time>
      </trkpt>
      <trkpt lat="40.206560" lon="-6.674616">
        <ele>573.413</ele>
        <time>2019-06-22T18:41:16Z</time>
      </trkpt>
      <trkpt lat="40.206386" lon="-6.674474">
        <ele>570.308</ele>
        <time>2019-06-22T18:41:17Z</time>
      </trkpt>
      <trkpt lat="40.206205" lon="-6.674335">
        <ele>567.224</ele>
        <time>2019-06-22T18:41:18Z</time>
      </trkpt>
      <trkpt lat="40.206035" lon="-6.674198">
        <ele>564.578</ele>
        <time>2019-06-22T18:41:19Z</time>
      </trkpt>
      <trkpt lat="40.205863" lon="-6.674059">
        <ele>562.160</ele>
        <time>2019-06-22T18:41:20Z</time>
      </trkpt>
      <trkpt lat="40.205695" lon="-6.673920">
        <ele>562.132</ele>
        <time>2019-06-22T18:41:21Z</time>
      </trkpt>
      <trkpt lat="40.205523" lon="-6.673778">
        <ele>559.180</ele>
        <time>2019-06-22T18:41:22Z</time>
      </trkpt>
      <trkpt lat="40.205365" lon="-6.673640">
        <ele>557.069</ele>
        <time>2019-06-22T18:41:23Z</time>
      </trkpt>
      <trkpt lat="40.205214" lon="-6.673513">
        <ele>555.554</ele>
        <time>2019-06-22T18:41:24Z</time>
      </trkpt>
      <trkpt lat="40.205076" lon="-6.673364">
        <ele>553.997</ele>
        <time>2019-06-22T18:41:25Z</time>
      </trkpt>
      <trkpt lat="40.204950" lon="-6.673206">
        <ele>552.044</ele>
        <time>2019-06-22T18:41:26Z</time>
      </trkpt>
      <trkpt lat="40.204822" lon="-6.673027">
        <ele>552.005</ele>
        <time>2019-06-22T18:41:27Z</time>
      </trkpt>
      <trkpt lat="40.204675" lon="-6.672821">
        <ele>552.515</ele>
        <time>2019-06-22T18:41:28Z</time>
      </trkpt>
      <trkpt lat="40.204573" lon="-6.672585">
        <ele>552.608</ele>
        <time>2019-06-22T18:41:29Z</time>
      </trkpt>
      <trkpt lat="40.204544" lon="-6.672402">
        <ele>552.787</ele>
        <time>2019-06-22T18:41:30Z</time>
      </trkpt>
      <trkpt lat="40.204439" lon="-6.672188">
        <ele>552.611</ele>
        <time>2019-06-22T18:41:31Z</time>
      </trkpt>
      <trkpt lat="40.204346" lon="-6.671990">
        <ele>551.653</ele>
        <time>2019-06-22T18:41:32Z</time>
      </trkpt>
      <trkpt lat="40.204241" lon="-6.671802">
        <ele>550.185</ele>
        <time>2019-06-22T18:41:33Z</time>
      </trkpt>
      <trkpt lat="40.204116" lon="-6.671614">
        <ele>548.963</ele>
        <time>2019-06-22T18:41:34Z</time>
      </trkpt>
      <trkpt lat="40.203987" lon="-6.671433">
        <ele>548.352</ele>
        <time>2019-06-22T18:41:35Z</time>
      </trkpt>
      <trkpt lat="40.203844" lon="-6.671271">
        <ele>547.287</ele>
        <time>2019-06-22T18:41:36Z</time>
      </trkpt>
      <trkpt lat="40.203690" lon="-6.671124">
        <ele>546.510</ele>
        <time>2019-06-22T18:41:37Z</time>
      </trkpt>
      <trkpt lat="40.203547" lon="-6.670990">
        <ele>545.886</ele>
        <time>2019-06-22T18:41:38Z</time>
      </trkpt>
      <trkpt lat="40.203411" lon="-6.670856">
        <ele>544.660</ele>
        <time>2019-06-22T18:41:39Z</time>
      </trkpt>
      <trkpt lat="40.203270" lon="-6.670742">
        <ele>541.826</ele>
        <time>2019-06-22T18:41:40Z</time>
      </trkpt>
      <trkpt lat="40.203093" lon="-6.670696">
        <ele>539.508</ele>
        <time>2019-06-22T18:41:41Z</time>
      </trkpt>
      <trkpt lat="40.202985" lon="-6.670655">
        <ele>537.491</ele>
        <time>2019-06-22T18:41:42Z</time>
      </trkpt>
      <trkpt lat="40.202801" lon="-6.670676">
        <ele>535.075</ele>
        <time>2019-06-22T18:41:43Z</time>
      </trkpt>
      <trkpt lat="40.202637" lon="-6.670683">
        <ele>534.077</ele>
        <time>2019-06-22T18:41:44Z</time>
      </trkpt>
      <trkpt lat="40.202494" lon="-6.670813">
        <ele>533.769</ele>
        <time>2019-06-22T18:41:45Z</time>
      </trkpt>
      <trkpt lat="40.202354" lon="-6.671058">
        <ele>532.957</ele>
        <time>2019-06-22T18:41:46Z</time>
      </trkpt>
      <trkpt lat="40.202201" lon="-6.671159">
        <ele>531.896</ele>
        <time>2019-06-22T18:41:47Z</time>
      </trkpt>
      <trkpt lat="40.202042" lon="-6.671247">
        <ele>531.751</ele>
        <time>2019-06-22T18:41:48Z</time>
      </trkpt>
      <trkpt lat="40.201866" lon="-6.671311">
        <ele>531.024</ele>
        <time>2019-06-22T18:41:49Z</time>
      </trkpt>
      <trkpt lat="40.201679" lon="-6.671325">
        <ele>529.872</ele>
        <time>2019-06-22T18:41:50Z</time>
      </trkpt>
      <trkpt lat="40.201484" lon="-6.671334">
        <ele>529.413</ele>
        <time>2019-06-22T18:41:51Z</time>
      </trkpt>
      <trkpt lat="40.201294" lon="-6.671326">
        <ele>529.214</ele>
        <time>2019-06-22T18:41:52Z</time>
      </trkpt>
      <trkpt lat="40.201117" lon="-6.671318">
        <ele>527.908</ele>
        <time>2019-06-22T18:41:53Z</time>
      </trkpt>
      <trkpt lat="40.200939" lon="-6.671308">
        <ele>526.530</ele>
        <time>2019-06-22T18:41:54Z</time>
      </trkpt>
      <trkpt lat="40.200755" lon="-6.671311">
        <ele>525.234</ele>
        <time>2019-06-22T18:41:55Z</time>
      </trkpt>
      <trkpt lat="40.200594" lon="-6.671333">
        <ele>524.476</ele>
        <time>2019-06-22T18:41:56Z</time>
      </trkpt>
      <trkpt lat="40.200435" lon="-6.671365">
        <ele>522.788</ele>
        <time>2019-06-22T18:41:57Z</time>
      </trkpt>
      <trkpt lat="40.200293" lon="-6.671427">
        <ele>520.866</ele>
        <time>2019-06-22T18:41:58Z</time>
      </trkpt>
      <trkpt lat="40.200141" lon="-6.671489">
        <ele>518.155</ele>
        <time>2019-06-22T18:41:59Z</time>
      </trkpt>
      <trkpt lat="40.200013" lon="-6.671560">
        <ele>515.970</ele>
        <time>2019-06-22T18:42:00Z</time>
      </trkpt>
      <trkpt lat="40.199890" lon="-6.671654">
        <ele>513.663</ele>
        <time>2019-06-22T18:42:01Z</time>
      </trkpt>
      <trkpt lat="40.199777" lon="-6.671841">
        <ele>512.476</ele>
        <time>2019-06-22T18:42:02Z</time>
      </trkpt>
      <trkpt lat="40.199732" lon="-6.672127">
        <ele>511.490</ele>
        <time>2019-06-22T18:42:03Z</time>
      </trkpt>
      <trkpt lat="40.199650" lon="-6.672348">
        <ele>510.819</ele>
        <time>2019-06-22T18:42:04Z</time>
      </trkpt>
      <trkpt lat="40.199580" lon="-6.672589">
        <ele>510.608</ele>
        <time>2019-06-22T18:42:05Z</time>
      </trkpt>
      <trkpt lat="40.199517" lon="-6.672845">
        <ele>510.250</ele>
        <time>2019-06-22T18:42:06Z</time>
      </trkpt>
      <trkpt lat="40.199466" lon="-6.673103">
        <ele>509.144</ele>
        <time>2019-06-22T18:42:07Z</time>
      </trkpt>
      <trkpt lat="40.199410" lon="-6.673368">
        <ele>508.686</ele>
        <time>2019-06-22T18:42:08Z</time>
      </trkpt>
      <trkpt lat="40.199351" lon="-6.673626">
        <ele>508.098</ele>
        <time>2019-06-22T18:42:09Z</time>
      </trkpt>
      <trkpt lat="40.199299" lon="-6.673874">
        <ele>507.656</ele>
        <time>2019-06-22T18:42:10Z</time>
      </trkpt>
      <trkpt lat="40.199247" lon="-6.674116">
        <ele>507.045</ele>
        <time>2019-06-22T18:42:11Z</time>
      </trkpt>
      <trkpt lat="40.199176" lon="-6.674327">
        <ele>506.090</ele>
        <time>2019-06-22T18:42:12Z</time>
      </trkpt>
      <trkpt lat="40.199083" lon="-6.674520">
        <ele>504.983</ele>
        <time>2019-06-22T18:42:13Z</time>
      </trkpt>
      <trkpt lat="40.198963" lon="-6.674683">
        <ele>504.276</ele>
        <time>2019-06-22T18:42:14Z</time>
      </trkpt>
      <trkpt lat="40.198824" lon="-6.674848">
        <ele>502.890</ele>
        <time>2019-06-22T18:42:15Z</time>
      </trkpt>
      <trkpt lat="40.198686" lon="-6.675014">
        <ele>501.619</ele>
        <time>2019-06-22T18:42:16Z</time>
      </trkpt>
      <trkpt lat="40.198549" lon="-6.675171">
        <ele>500.508</ele>
        <time>2019-06-22T18:42:17Z</time>
      </trkpt>
      <trkpt lat="40.198417" lon="-6.675330">
        <ele>499.540</ele>
        <time>2019-06-22T18:42:18Z</time>
      </trkpt>
      <trkpt lat="40.198285" lon="-6.675485">
        <ele>497.884</ele>
        <time>2019-06-22T18:42:19Z</time>
      </trkpt>
      <trkpt lat="40.198163" lon="-6.675628">
        <ele>496.276</ele>
        <time>2019-06-22T18:42:20Z</time>
      </trkpt>
      <trkpt lat="40.198044" lon="-6.675768">
        <ele>494.638</ele>
        <time>2019-06-22T18:42:21Z</time>
      </trkpt>
      <trkpt lat="40.197912" lon="-6.675885">
        <ele>493.516</ele>
        <time>2019-06-22T18:42:22Z</time>
      </trkpt>
      <trkpt lat="40.197767" lon="-6.675985">
        <ele>492.645</ele>
        <time>2019-06-22T18:42:23Z</time>
      </trkpt>
      <trkpt lat="40.197612" lon="-6.676050">
        <ele>492.670</ele>
        <time>2019-06-22T18:42:24Z</time>
      </trkpt>
      <trkpt lat="40.197456" lon="-6.676102">
        <ele>492.643</ele>
        <time>2019-06-22T18:42:25Z</time>
      </trkpt>
      <trkpt lat="40.197255" lon="-6.676096">
        <ele>493.462</ele>
        <time>2019-06-22T18:42:26Z</time>
      </trkpt>
      <trkpt lat="40.197070" lon="-6.676091">
        <ele>493.683</ele>
        <time>2019-06-22T18:42:27Z</time>
      </trkpt>
      <trkpt lat="40.196864" lon="-6.676099">
        <ele>493.611</ele>
        <time>2019-06-22T18:42:28Z</time>
      </trkpt>
      <trkpt lat="40.196642" lon="-6.676104">
        <ele>493.208</ele>
        <time>2019-06-22T18:42:29Z</time>
      </trkpt>
      <trkpt lat="40.196419" lon="-6.676106">
        <ele>491.929</ele>
        <time>2019-06-22T18:42:30Z</time>
      </trkpt>
      <trkpt lat="40.196180" lon="-6.676104">
        <ele>490.053</ele>
        <time>2019-06-22T18:42:31Z</time>
      </trkpt>
      <trkpt lat="40.195943" lon="-6.676102">
        <ele>488.455</ele>
        <time>2019-06-22T18:42:32Z</time>
      </trkpt>
      <trkpt lat="40.195699" lon="-6.676106">
        <ele>486.227</ele>
        <time>2019-06-22T18:42:33Z</time>
      </trkpt>
      <trkpt lat="40.195447" lon="-6.676105">
        <ele>484.175</ele>
        <time>2019-06-22T18:42:34Z</time>
      </trkpt>
      <trkpt lat="40.195200" lon="-6.676102">
        <ele>481.754</ele>
        <time>2019-06-22T18:42:35Z</time>
      </trkpt>
      <trkpt lat="40.194950" lon="-6.676102">
        <ele>478.969</ele>
        <time>2019-06-22T18:42:36Z</time>
      </trkpt>
      <trkpt lat="40.194688" lon="-6.676103">
        <ele>477.052</ele>
        <time>2019-06-22T18:42:37Z</time>
      </trkpt>
      <trkpt lat="40.194436" lon="-6.676101">
        <ele>474.754</ele>
        <time>2019-06-22T18:42:38Z</time>
      </trkpt>
      <trkpt lat="40.194176" lon="-6.676101">
        <ele>473.356</ele>
        <time>2019-06-22T18:42:39Z</time>
      </trkpt>
      <trkpt lat="40.193912" lon="-6.676102">
        <ele>472.311</ele>
        <time>2019-06-22T18:42:40Z</time>
      </trkpt>
      <trkpt lat="40.193640" lon="-6.676106">
        <ele>472.208</ele>
        <time>2019-06-22T18:42:41Z</time>
      </trkpt>
      <trkpt lat="40.193366" lon="-6.676111">
        <ele>471.368</ele>
        <time>2019-06-22T18:42:42Z</time>
      </trkpt>
      <trkpt lat="40.193082" lon="-6.676120">
        <ele>470.452</ele>
        <time>2019-06-22T18:42:43Z</time>
      </trkpt>
      <trkpt lat="40.192811" lon="-6.676121">
        <ele>469.414</ele>
        <time>2019-06-22T18:42:44Z</time>
      </trkpt>
      <trkpt lat="40.192540" lon="-6.676120">
        <ele>467.426</ele>
        <time>2019-06-22T18:42:45Z</time>
      </trkpt>
      <trkpt lat="40.192272" lon="-6.676119">
        <ele>465.544</ele>
        <time>2019-06-22T18:42:46Z</time>
      </trkpt>
      <trkpt lat="40.192013" lon="-6.676121">
        <ele>463.813</ele>
        <time>2019-06-22T18:42:47Z</time>
      </trkpt>
      <trkpt lat="40.191753" lon="-6.676119">
        <ele>462.388</ele>
        <time>2019-06-22T18:42:48Z</time>
      </trkpt>
      <trkpt lat="40.191494" lon="-6.676112">
        <ele>462.291</ele>
        <time>2019-06-22T18:42:49Z</time>
      </trkpt>
      <trkpt lat="40.191242" lon="-6.676110">
        <ele>461.541</ele>
        <time>2019-06-22T18:42:50Z</time>
      </trkpt>
      <trkpt lat="40.191001" lon="-6.676105">
        <ele>460.381</ele>
        <time>2019-06-22T18:42:51Z</time>
      </trkpt>
      <trkpt lat="40.190754" lon="-6.676102">
        <ele>459.309</ele>
        <time>2019-06-22T18:42:52Z</time>
      </trkpt>
      <trkpt lat="40.190509" lon="-6.676099">
        <ele>458.108</ele>
        <time>2019-06-22T18:42:53Z</time>
      </trkpt>
      <trkpt lat="40.190261" lon="-6.676102">
        <ele>456.527</ele>
        <time>2019-06-22T18:42:54Z</time>
      </trkpt>
      <trkpt lat="40.190018" lon="-6.676102">
        <ele>455.641</ele>
        <time>2019-06-22T18:42:55Z</time>
      </trkpt>
      <trkpt lat="40.189774" lon="-6.676102">
        <ele>454.953</ele>
        <time>2019-06-22T18:42:56Z</time>
      </trkpt>
      <trkpt lat="40.189536" lon="-6.676109">
        <ele>454.845</ele>
        <time>2019-06-22T18:42:57Z</time>
      </trkpt>
      <trkpt lat="40.189300" lon="-6.676108">
        <ele>454.893</ele>
        <time>2019-06-22T18:42:58Z</time>
      </trkpt>
      <trkpt lat="40.189072" lon="-6.676094">
        <ele>454.842</ele>
        <time>2019-06-22T18:42:59Z</time>
      </trkpt>
      <trkpt lat="40.188843" lon="-6.676082">
        <ele>455.057</ele>
        <time>2019-06-22T18:43:00Z</time>
      </trkpt>
      <trkpt lat="40.188600" lon="-6.676072">
        <ele>455.270</ele>
        <time>2019-06-22T18:43:01Z</time>
      </trkpt>
      <trkpt lat="40.188382" lon="-6.676055">
        <ele>455.397</ele>
        <time>2019-06-22T18:43:02Z</time>
      </trkpt>
      <trkpt lat="40.188146" lon="-6.676042">
        <ele>455.423</ele>
        <time>2019-06-22T18:43:03Z</time>
      </trkpt>
      <trkpt lat="40.187921" lon="-6.676017">
        <ele>455.725</ele>
        <time>2019-06-22T18:43:04Z</time>
      </trkpt>
      <trkpt lat="40.187691" lon="-6.676002">
        <ele>456.208</ele>
        <time>2019-06-22T18:43:05Z</time>
      </trkpt>
      <trkpt lat="40.187467" lon="-6.675977">
        <ele>456.972</ele>
        <time>2019-06-22T18:43:06Z</time>
      </trkpt>
      <trkpt lat="40.187248" lon="-6.675951">
        <ele>457.446</ele>
        <time>2019-06-22T18:43:07Z</time>
      </trkpt>
      <trkpt lat="40.187016" lon="-6.675923">
        <ele>457.798</ele>
        <time>2019-06-22T18:43:08Z</time>
      </trkpt>
      <trkpt lat="40.186788" lon="-6.675896">
        <ele>457.870</ele>
        <time>2019-06-22T18:43:09Z</time>
      </trkpt>
      <trkpt lat="40.186554" lon="-6.675870">
        <ele>457.878</ele>
        <time>2019-06-22T18:43:10Z</time>
      </trkpt>
      <trkpt lat="40.186316" lon="-6.675845">
        <ele>457.867</ele>
        <time>2019-06-22T18:43:11Z</time>
      </trkpt>
      <trkpt lat="40.186067" lon="-6.675819">
        <ele>457.872</ele>
        <time>2019-06-22T18:43:12Z</time>
      </trkpt>
      <trkpt lat="40.185822" lon="-6.675792">
        <ele>457.885</ele>
        <time>2019-06-22T18:43:13Z</time>
      </trkpt>
      <trkpt lat="40.185563" lon="-6.675761">
        <ele>456.893</ele>
        <time>2019-06-22T18:43:14Z</time>
      </trkpt>
      <trkpt lat="40.185308" lon="-6.675734">
        <ele>455.665</ele>
        <time>2019-06-22T18:43:15Z</time>
      </trkpt>
      <trkpt lat="40.185050" lon="-6.675704">
        <ele>453.921</ele>
        <time>2019-06-22T18:43:16Z</time>
      </trkpt>
      <trkpt lat="40.184794" lon="-6.675682">
        <ele>451.608</ele>
        <time>2019-06-22T18:43:17Z</time>
      </trkpt>
      <trkpt lat="40.184531" lon="-6.675664">
        <ele>449.242</ele>
        <time>2019-06-22T18:43:18Z</time>
      </trkpt>
      <trkpt lat="40.184269" lon="-6.675645">
        <ele>448.186</ele>
        <time>2019-06-22T18:43:19Z</time>
      </trkpt>
      <trkpt lat="40.184002" lon="-6.675624">
        <ele>446.748</ele>
        <time>2019-06-22T18:43:20Z</time>
      </trkpt>
      <trkpt lat="40.183748" lon="-6.675592">
        <ele>445.860</ele>
        <time>2019-06-22T18:43:21Z</time>
      </trkpt>
      <trkpt lat="40.183491" lon="-6.675564">
        <ele>444.978</ele>
        <time>2019-06-22T18:43:22Z</time>
      </trkpt>
      <trkpt lat="40.183238" lon="-6.675545">
        <ele>444.467</ele>
        <time>2019-06-22T18:43:23Z</time>
      </trkpt>
      <trkpt lat="40.182986" lon="-6.675516">
        <ele>443.432</ele>
        <time>2019-06-22T18:43:24Z</time>
      </trkpt>
      <trkpt lat="40.182743" lon="-6.675487">
        <ele>443.315</ele>
        <time>2019-06-22T18:43:25Z</time>
      </trkpt>
      <trkpt lat="40.182496" lon="-6.675459">
        <ele>443.153</ele>
        <time>2019-06-22T18:43:26Z</time>
      </trkpt>
      <trkpt lat="40.182253" lon="-6.675441">
        <ele>443.104</ele>
        <time>2019-06-22T18:43:27Z</time>
      </trkpt>
      <trkpt lat="40.182012" lon="-6.675426">
        <ele>443.114</ele>
        <time>2019-06-22T18:43:28Z</time>
      </trkpt>
      <trkpt lat="40.181782" lon="-6.675404">
        <ele>443.108</ele>
        <time>2019-06-22T18:43:29Z</time>
      </trkpt>
      <trkpt lat="40.181554" lon="-6.675389">
        <ele>443.848</ele>
        <time>2019-06-22T18:43:30Z</time>
      </trkpt>
      <trkpt lat="40.181327" lon="-6.675359">
        <ele>444.762</ele>
        <time>2019-06-22T18:43:31Z</time>
      </trkpt>
      <trkpt lat="40.181095" lon="-6.675328">
        <ele>445.314</ele>
        <time>2019-06-22T18:43:32Z</time>
      </trkpt>
      <trkpt lat="40.180873" lon="-6.675306">
        <ele>445.496</ele>
        <time>2019-06-22T18:43:33Z</time>
      </trkpt>
      <trkpt lat="40.180646" lon="-6.675289">
        <ele>445.464</ele>
        <time>2019-06-22T18:43:34Z</time>
      </trkpt>
      <trkpt lat="40.180448" lon="-6.675262">
        <ele>445.053</ele>
        <time>2019-06-22T18:43:35Z</time>
      </trkpt>
      <trkpt lat="40.180241" lon="-6.675235">
        <ele>443.318</ele>
        <time>2019-06-22T18:43:36Z</time>
      </trkpt>
      <trkpt lat="40.180027" lon="-6.675199">
        <ele>443.111</ele>
        <time>2019-06-22T18:43:37Z</time>
      </trkpt>
      <trkpt lat="40.179829" lon="-6.675137">
        <ele>443.143</ele>
        <time>2019-06-22T18:43:38Z</time>
      </trkpt>
      <trkpt lat="40.179639" lon="-6.675065">
        <ele>444.064</ele>
        <time>2019-06-22T18:43:39Z</time>
      </trkpt>
      <trkpt lat="40.179446" lon="-6.674977">
        <ele>445.010</ele>
        <time>2019-06-22T18:43:40Z</time>
      </trkpt>
      <trkpt lat="40.179273" lon="-6.674873">
        <ele>446.308</ele>
        <time>2019-06-22T18:43:41Z</time>
      </trkpt>
      <trkpt lat="40.179110" lon="-6.674781">
        <ele>446.367</ele>
        <time>2019-06-22T18:43:42Z</time>
      </trkpt>
      <trkpt lat="40.178934" lon="-6.674696">
        <ele>445.911</ele>
        <time>2019-06-22T18:43:43Z</time>
      </trkpt>
      <trkpt lat="40.178757" lon="-6.674646">
        <ele>443.613</ele>
        <time>2019-06-22T18:43:44Z</time>
      </trkpt>
      <trkpt lat="40.178579" lon="-6.674636">
        <ele>441.375</ele>
        <time>2019-06-22T18:43:45Z</time>
      </trkpt>
      <trkpt lat="40.178397" lon="-6.674672">
        <ele>437.993</ele>
        <time>2019-06-22T18:43:46Z</time>
      </trkpt>
      <trkpt lat="40.178225" lon="-6.674752">
        <ele>435.092</ele>
        <time>2019-06-22T18:43:47Z</time>
      </trkpt>
      <trkpt lat="40.178065" lon="-6.674876">
        <ele>432.397</ele>
        <time>2019-06-22T18:43:48Z</time>
      </trkpt>
      <trkpt lat="40.177918" lon="-6.675009">
        <ele>430.960</ele>
        <time>2019-06-22T18:43:49Z</time>
      </trkpt>
      <trkpt lat="40.177776" lon="-6.675132">
        <ele>430.925</ele>
        <time>2019-06-22T18:43:50Z</time>
      </trkpt>
      <trkpt lat="40.177628" lon="-6.675235">
        <ele>431.426</ele>
        <time>2019-06-22T18:43:51Z</time>
      </trkpt>
      <trkpt lat="40.177465" lon="-6.675303">
        <ele>432.408</ele>
        <time>2019-06-22T18:43:52Z</time>
      </trkpt>
      <trkpt lat="40.177294" lon="-6.675334">
        <ele>432.808</ele>
        <time>2019-06-22T18:43:53Z</time>
      </trkpt>
      <trkpt lat="40.177118" lon="-6.675325">
        <ele>432.845</ele>
        <time>2019-06-22T18:43:54Z</time>
      </trkpt>
      <trkpt lat="40.176940" lon="-6.675300">
        <ele>432.889</ele>
        <time>2019-06-22T18:43:55Z</time>
      </trkpt>
      <trkpt lat="40.176776" lon="-6.675204">
        <ele>431.581</ele>
        <time>2019-06-22T18:43:56Z</time>
      </trkpt>
      <trkpt lat="40.176623" lon="-6.675101">
        <ele>429.973</ele>
        <time>2019-06-22T18:43:57Z</time>
      </trkpt>
      <trkpt lat="40.176442" lon="-6.675010">
        <ele>427.761</ele>
        <time>2019-06-22T18:43:58Z</time>
      </trkpt>
      <trkpt lat="40.176251" lon="-6.674937">
        <ele>424.940</ele>
        <time>2019-06-22T18:43:59Z</time>
      </trkpt>
      <trkpt lat="40.176051" lon="-6.674871">
        <ele>422.625</ele>
        <time>2019-06-22T18:44:00Z</time>
      </trkpt>
      <trkpt lat="40.175885" lon="-6.674829">
        <ele>420.168</ele>
        <time>2019-06-22T18:44:01Z</time>
      </trkpt>
      <trkpt lat="40.175651" lon="-6.674876">
        <ele>417.753</ele>
        <time>2019-06-22T18:44:02Z</time>
      </trkpt>
      <trkpt lat="40.175450" lon="-6.674912">
        <ele>416.904</ele>
        <time>2019-06-22T18:44:03Z</time>
      </trkpt>
      <trkpt lat="40.175242" lon="-6.674967">
        <ele>416.714</ele>
        <time>2019-06-22T18:44:04Z</time>
      </trkpt>
      <trkpt lat="40.175022" lon="-6.675052">
        <ele>416.708</ele>
        <time>2019-06-22T18:44:05Z</time>
      </trkpt>
      <trkpt lat="40.174802" lon="-6.675133">
        <ele>416.688</ele>
        <time>2019-06-22T18:44:06Z</time>
      </trkpt>
      <trkpt lat="40.174574" lon="-6.675223">
        <ele>416.492</ele>
        <time>2019-06-22T18:44:07Z</time>
      </trkpt>
      <trkpt lat="40.174347" lon="-6.675325">
        <ele>415.024</ele>
        <time>2019-06-22T18:44:08Z</time>
      </trkpt>
      <trkpt lat="40.174120" lon="-6.675424">
        <ele>413.636</ele>
        <time>2019-06-22T18:44:09Z</time>
      </trkpt>
      <trkpt lat="40.173886" lon="-6.675518">
        <ele>412.054</ele>
        <time>2019-06-22T18:44:10Z</time>
      </trkpt>
      <trkpt lat="40.173658" lon="-6.675607">
        <ele>410.183</ele>
        <time>2019-06-22T18:44:11Z</time>
      </trkpt>
      <trkpt lat="40.173427" lon="-6.675698">
        <ele>409.538</ele>
        <time>2019-06-22T18:44:12Z</time>
      </trkpt>
      <trkpt lat="40.173197" lon="-6.675782">
        <ele>408.741</ele>
        <time>2019-06-22T18:44:13Z</time>
      </trkpt>
      <trkpt lat="40.172966" lon="-6.675879">
        <ele>406.752</ele>
        <time>2019-06-22T18:44:14Z</time>
      </trkpt>
      <trkpt lat="40.172730" lon="-6.675974">
        <ele>405.453</ele>
        <time>2019-06-22T18:44:15Z</time>
      </trkpt>
      <trkpt lat="40.172498" lon="-6.676066">
        <ele>404.208</ele>
        <time>2019-06-22T18:44:16Z</time>
      </trkpt>
      <trkpt lat="40.172275" lon="-6.676160">
        <ele>402.408</ele>
        <time>2019-06-22T18:44:17Z</time>
      </trkpt>
      <trkpt lat="40.172057" lon="-6.676250">
        <ele>400.468</ele>
        <time>2019-06-22T18:44:18Z</time>
      </trkpt>
      <trkpt lat="40.171848" lon="-6.676337">
        <ele>397.992</ele>
        <time>2019-06-22T18:44:19Z</time>
      </trkpt>
      <trkpt lat="40.171651" lon="-6.676410">
        <ele>396.684</ele>
        <time>2019-06-22T18:44:20Z</time>
      </trkpt>
      <trkpt lat="40.171453" lon="-6.676472">
        <ele>395.436</ele>
        <time>2019-06-22T18:44:21Z</time>
      </trkpt>
      <trkpt lat="40.171263" lon="-6.676509">
        <ele>395.444</ele>
        <time>2019-06-22T18:44:22Z</time>
      </trkpt>
      <trkpt lat="40.171083" lon="-6.676522">
        <ele>395.933</ele>
        <time>2019-06-22T18:44:23Z</time>
      </trkpt>
      <trkpt lat="40.170907" lon="-6.676530">
        <ele>397.428</ele>
        <time>2019-06-22T18:44:24Z</time>
      </trkpt>
      <trkpt lat="40.170736" lon="-6.676558">
        <ele>397.881</ele>
        <time>2019-06-22T18:44:25Z</time>
      </trkpt>
      <trkpt lat="40.170578" lon="-6.676622">
        <ele>397.826</ele>
        <time>2019-06-22T18:44:26Z</time>
      </trkpt>
      <trkpt lat="40.170437" lon="-6.676698">
        <ele>397.547</ele>
        <time>2019-06-22T18:44:27Z</time>
      </trkpt>
      <trkpt lat="40.170315" lon="-6.676818">
        <ele>396.411</ele>
        <time>2019-06-22T18:44:28Z</time>
      </trkpt>
      <trkpt lat="40.170220" lon="-6.677004">
        <ele>396.408</ele>
        <time>2019-06-22T18:44:29Z</time>
      </trkpt>
      <trkpt lat="40.170134" lon="-6.677189">
        <ele>396.685</ele>
        <time>2019-06-22T18:44:30Z</time>
      </trkpt>
      <trkpt lat="40.170057" lon="-6.677394">
        <ele>397.499</ele>
        <time>2019-06-22T18:44:31Z</time>
      </trkpt>
      <trkpt lat="40.169978" lon="-6.677586">
        <ele>398.391</ele>
        <time>2019-06-22T18:44:32Z</time>
      </trkpt>
      <trkpt lat="40.169897" lon="-6.677776">
        <ele>398.393</ele>
        <time>2019-06-22T18:44:33Z</time>
      </trkpt>
      <trkpt lat="40.169813" lon="-6.677961">
        <ele>399.431</ele>
        <time>2019-06-22T18:44:34Z</time>
      </trkpt>
      <trkpt lat="40.169736" lon="-6.678147">
        <ele>399.430</ele>
        <time>2019-06-22T18:44:35Z</time>
      </trkpt>
      <trkpt lat="40.169672" lon="-6.678313">
        <ele>398.855</ele>
        <time>2019-06-22T18:44:36Z</time>
      </trkpt>
      <trkpt lat="40.169611" lon="-6.678484">
        <ele>397.458</ele>
        <time>2019-06-22T18:44:37Z</time>
      </trkpt>
      <trkpt lat="40.169565" lon="-6.678656">
        <ele>395.944</ele>
        <time>2019-06-22T18:44:38Z</time>
      </trkpt>
      <trkpt lat="40.169528" lon="-6.678839">
        <ele>394.005</ele>
        <time>2019-06-22T18:44:39Z</time>
      </trkpt>
      <trkpt lat="40.169519" lon="-6.679005">
        <ele>391.915</ele>
        <time>2019-06-22T18:44:40Z</time>
      </trkpt>
      <trkpt lat="40.169562" lon="-6.679186">
        <ele>390.008</ele>
        <time>2019-06-22T18:44:41Z</time>
      </trkpt>
      <trkpt lat="40.169586" lon="-6.679330">
        <ele>389.227</ele>
        <time>2019-06-22T18:44:42Z</time>
      </trkpt>
      <trkpt lat="40.169594" lon="-6.679487">
        <ele>388.181</ele>
        <time>2019-06-22T18:44:43Z</time>
      </trkpt>
      <trkpt lat="40.169612" lon="-6.679637">
        <ele>388.163</ele>
        <time>2019-06-22T18:44:44Z</time>
      </trkpt>
      <trkpt lat="40.169593" lon="-6.679764">
        <ele>388.625</ele>
        <time>2019-06-22T18:44:45Z</time>
      </trkpt>
      <trkpt lat="40.169518" lon="-6.679845">
        <ele>390.343</ele>
        <time>2019-06-22T18:44:46Z</time>
      </trkpt>
      <trkpt lat="40.169455" lon="-6.679945">
        <ele>391.392</ele>
        <time>2019-06-22T18:44:47Z</time>
      </trkpt>
      <trkpt lat="40.169378" lon="-6.680020">
        <ele>392.157</ele>
        <time>2019-06-22T18:44:48Z</time>
      </trkpt>
      <trkpt lat="40.169308" lon="-6.680038">
        <ele>392.550</ele>
        <time>2019-06-22T18:44:49Z</time>
      </trkpt>
      <trkpt lat="40.169259" lon="-6.680062">
        <ele>392.537</ele>
        <time>2019-06-22T18:44:50Z</time>
      </trkpt>
      <trkpt lat="40.169206" lon="-6.680089">
        <ele>391.949</ele>
        <time>2019-06-22T18:44:52Z</time>
      </trkpt>
      <trkpt lat="40.169151" lon="-6.680078">
        <ele>391.813</ele>
        <time>2019-06-22T18:44:54Z</time>
      </trkpt>
      <trkpt lat="40.169079" lon="-6.680066">
        <ele>392.008</ele>
        <time>2019-06-22T18:44:56Z</time>
      </trkpt>
      <trkpt lat="40.168998" lon="-6.680053">
        <ele>392.216</ele>
        <time>2019-06-22T18:44:58Z</time>
      </trkpt>
      <trkpt lat="40.168936" lon="-6.680038">
        <ele>392.220</ele>
        <time>2019-06-22T18:44:59Z</time>
      </trkpt>
      <trkpt lat="40.168853" lon="-6.680027">
        <ele>392.222</ele>
        <time>2019-06-22T18:45:00Z</time>
      </trkpt>
      <trkpt lat="40.168765" lon="-6.680007">
        <ele>392.234</ele>
        <time>2019-06-22T18:45:01Z</time>
      </trkpt>
      <trkpt lat="40.168660" lon="-6.679986">
        <ele>391.872</ele>
        <time>2019-06-22T18:45:02Z</time>
      </trkpt>
      <trkpt lat="40.168539" lon="-6.679970">
        <ele>391.751</ele>
        <time>2019-06-22T18:45:03Z</time>
      </trkpt>
      <trkpt lat="40.168408" lon="-6.679948">
        <ele>391.576</ele>
        <time>2019-06-22T18:45:04Z</time>
      </trkpt>
      <trkpt lat="40.168260" lon="-6.679936">
        <ele>391.349</ele>
        <time>2019-06-22T18:45:05Z</time>
      </trkpt>
      <trkpt lat="40.168098" lon="-6.679929">
        <ele>391.362</ele>
        <time>2019-06-22T18:45:06Z</time>
      </trkpt>
      <trkpt lat="40.167933" lon="-6.679919">
        <ele>392.083</ele>
        <time>2019-06-22T18:45:07Z</time>
      </trkpt>
      <trkpt lat="40.167763" lon="-6.679924">
        <ele>392.511</ele>
        <time>2019-06-22T18:45:08Z</time>
      </trkpt>
      <trkpt lat="40.167597" lon="-6.679956">
        <ele>393.108</ele>
        <time>2019-06-22T18:45:09Z</time>
      </trkpt>
      <trkpt lat="40.167427" lon="-6.680018">
        <ele>394.189</ele>
        <time>2019-06-22T18:45:10Z</time>
      </trkpt>
      <trkpt lat="40.167256" lon="-6.680085">
        <ele>394.893</ele>
        <time>2019-06-22T18:45:11Z</time>
      </trkpt>
      <trkpt lat="40.167077" lon="-6.680187">
        <ele>395.745</ele>
        <time>2019-06-22T18:45:12Z</time>
      </trkpt>
      <trkpt lat="40.166900" lon="-6.680276">
        <ele>396.987</ele>
        <time>2019-06-22T18:45:13Z</time>
      </trkpt>
      <trkpt lat="40.166730" lon="-6.680361">
        <ele>398.135</ele>
        <time>2019-06-22T18:45:14Z</time>
      </trkpt>
      <trkpt lat="40.166561" lon="-6.680453">
        <ele>399.154</ele>
        <time>2019-06-22T18:45:15Z</time>
      </trkpt>
      <trkpt lat="40.166398" lon="-6.680569">
        <ele>400.579</ele>
        <time>2019-06-22T18:45:16Z</time>
      </trkpt>
      <trkpt lat="40.166258" lon="-6.680722">
        <ele>401.352</ele>
        <time>2019-06-22T18:45:17Z</time>
      </trkpt>
      <trkpt lat="40.166124" lon="-6.680869">
        <ele>402.045</ele>
        <time>2019-06-22T18:45:18Z</time>
      </trkpt>
      <trkpt lat="40.166008" lon="-6.681042">
        <ele>402.547</ele>
        <time>2019-06-22T18:45:19Z</time>
      </trkpt>
      <trkpt lat="40.165923" lon="-6.681254">
        <ele>403.011</ele>
        <time>2019-06-22T18:45:20Z</time>
      </trkpt>
      <trkpt lat="40.165859" lon="-6.681549">
        <ele>403.608</ele>
        <time>2019-06-22T18:45:21Z</time>
      </trkpt>
      <trkpt lat="40.165774" lon="-6.681776">
        <ele>404.577</ele>
        <time>2019-06-22T18:45:22Z</time>
      </trkpt>
      <trkpt lat="40.165680" lon="-6.682013">
        <ele>405.391</ele>
        <time>2019-06-22T18:45:23Z</time>
      </trkpt>
      <trkpt lat="40.165579" lon="-6.682248">
        <ele>406.783</ele>
        <time>2019-06-22T18:45:24Z</time>
      </trkpt>
      <trkpt lat="40.165482" lon="-6.682495">
        <ele>408.645</ele>
        <time>2019-06-22T18:45:25Z</time>
      </trkpt>
      <trkpt lat="40.165374" lon="-6.682720">
        <ele>410.113</ele>
        <time>2019-06-22T18:45:26Z</time>
      </trkpt>
      <trkpt lat="40.165248" lon="-6.682951">
        <ele>411.752</ele>
        <time>2019-06-22T18:45:27Z</time>
      </trkpt>
      <trkpt lat="40.165123" lon="-6.683177">
        <ele>413.127</ele>
        <time>2019-06-22T18:45:28Z</time>
      </trkpt>
      <trkpt lat="40.164992" lon="-6.683403">
        <ele>414.780</ele>
        <time>2019-06-22T18:45:29Z</time>
      </trkpt>
      <trkpt lat="40.164866" lon="-6.683632">
        <ele>415.492</ele>
        <time>2019-06-22T18:45:30Z</time>
      </trkpt>
      <trkpt lat="40.164728" lon="-6.683857">
        <ele>416.073</ele>
        <time>2019-06-22T18:45:31Z</time>
      </trkpt>
      <trkpt lat="40.164587" lon="-6.684089">
        <ele>416.420</ele>
        <time>2019-06-22T18:45:32Z</time>
      </trkpt>
      <trkpt lat="40.164440" lon="-6.684317">
        <ele>417.308</ele>
        <time>2019-06-22T18:45:33Z</time>
      </trkpt>
      <trkpt lat="40.164293" lon="-6.684521">
        <ele>417.862</ele>
        <time>2019-06-22T18:45:34Z</time>
      </trkpt>
      <trkpt lat="40.164145" lon="-6.684721">
        <ele>418.656</ele>
        <time>2019-06-22T18:45:35Z</time>
      </trkpt>
      <trkpt lat="40.163985" lon="-6.684922">
        <ele>418.648</ele>
        <time>2019-06-22T18:45:36Z</time>
      </trkpt>
      <trkpt lat="40.163828" lon="-6.685130">
        <ele>418.750</ele>
        <time>2019-06-22T18:45:37Z</time>
      </trkpt>
      <trkpt lat="40.163677" lon="-6.685318">
        <ele>418.768</ele>
        <time>2019-06-22T18:45:38Z</time>
      </trkpt>
      <trkpt lat="40.163539" lon="-6.685497">
        <ele>418.817</ele>
        <time>2019-06-22T18:45:39Z</time>
      </trkpt>
      <trkpt lat="40.163406" lon="-6.685661">
        <ele>418.832</ele>
        <time>2019-06-22T18:45:40Z</time>
      </trkpt>
      <trkpt lat="40.163273" lon="-6.685817">
        <ele>419.475</ele>
        <time>2019-06-22T18:45:41Z</time>
      </trkpt>
      <trkpt lat="40.163150" lon="-6.685927">
        <ele>421.114</ele>
        <time>2019-06-22T18:45:42Z</time>
      </trkpt>
      <trkpt lat="40.163006" lon="-6.686027">
        <ele>423.554</ele>
        <time>2019-06-22T18:45:43Z</time>
      </trkpt>
      <trkpt lat="40.162850" lon="-6.686107">
        <ele>424.809</ele>
        <time>2019-06-22T18:45:44Z</time>
      </trkpt>
      <trkpt lat="40.162711" lon="-6.686137">
        <ele>425.908</ele>
        <time>2019-06-22T18:45:45Z</time>
      </trkpt>
      <trkpt lat="40.162548" lon="-6.686143">
        <ele>426.874</ele>
        <time>2019-06-22T18:45:46Z</time>
      </trkpt>
      <trkpt lat="40.162396" lon="-6.686123">
        <ele>427.018</ele>
        <time>2019-06-22T18:45:47Z</time>
      </trkpt>
      <trkpt lat="40.162243" lon="-6.686031">
        <ele>427.140</ele>
        <time>2019-06-22T18:45:48Z</time>
      </trkpt>
      <trkpt lat="40.162091" lon="-6.685949">
        <ele>427.672</ele>
        <time>2019-06-22T18:45:49Z</time>
      </trkpt>
      <trkpt lat="40.161950" lon="-6.685811">
        <ele>428.430</ele>
        <time>2019-06-22T18:45:50Z</time>
      </trkpt>
      <trkpt lat="40.161884" lon="-6.685613">
        <ele>429.339</ele>
        <time>2019-06-22T18:45:51Z</time>
      </trkpt>
      <trkpt lat="40.161815" lon="-6.685412">
        <ele>430.334</ele>
        <time>2019-06-22T18:45:52Z</time>
      </trkpt>
      <trkpt lat="40.161757" lon="-6.685206">
        <ele>431.347</ele>
        <time>2019-06-22T18:45:53Z</time>
      </trkpt>
      <trkpt lat="40.161716" lon="-6.684999">
        <ele>432.135</ele>
        <time>2019-06-22T18:45:54Z</time>
      </trkpt>
      <trkpt lat="40.161699" lon="-6.684779">
        <ele>432.886</ele>
        <time>2019-06-22T18:45:55Z</time>
      </trkpt>
      <trkpt lat="40.161709" lon="-6.684526">
        <ele>433.614</ele>
        <time>2019-06-22T18:45:56Z</time>
      </trkpt>
      <trkpt lat="40.161710" lon="-6.684305">
        <ele>434.408</ele>
        <time>2019-06-22T18:45:57Z</time>
      </trkpt>
      <trkpt lat="40.161688" lon="-6.684079">
        <ele>435.066</ele>
        <time>2019-06-22T18:45:58Z</time>
      </trkpt>
      <trkpt lat="40.161645" lon="-6.683893">
        <ele>435.380</ele>
        <time>2019-06-22T18:45:59Z</time>
      </trkpt>
      <trkpt lat="40.161595" lon="-6.683709">
        <ele>435.812</ele>
        <time>2019-06-22T18:46:00Z</time>
      </trkpt>
      <trkpt lat="40.161529" lon="-6.683539">
        <ele>436.474</ele>
        <time>2019-06-22T18:46:01Z</time>
      </trkpt>
      <trkpt lat="40.161457" lon="-6.683384">
        <ele>436.822</ele>
        <time>2019-06-22T18:46:02Z</time>
      </trkpt>
      <trkpt lat="40.161279" lon="-6.683333">
        <ele>437.381</ele>
        <time>2019-06-22T18:46:03Z</time>
      </trkpt>
      <trkpt lat="40.161142" lon="-6.683265">
        <ele>438.586</ele>
        <time>2019-06-22T18:46:04Z</time>
      </trkpt>
      <trkpt lat="40.160995" lon="-6.683210">
        <ele>439.519</ele>
        <time>2019-06-22T18:46:05Z</time>
      </trkpt>
      <trkpt lat="40.160829" lon="-6.683161">
        <ele>440.538</ele>
        <time>2019-06-22T18:46:06Z</time>
      </trkpt>
      <trkpt lat="40.160689" lon="-6.683118">
        <ele>442.070</ele>
        <time>2019-06-22T18:46:07Z</time>
      </trkpt>
      <trkpt lat="40.160546" lon="-6.683069">
        <ele>443.217</ele>
        <time>2019-06-22T18:46:08Z</time>
      </trkpt>
      <trkpt lat="40.160420" lon="-6.683021">
        <ele>443.708</ele>
        <time>2019-06-22T18:46:09Z</time>
      </trkpt>
      <trkpt lat="40.160296" lon="-6.682979">
        <ele>444.236</ele>
        <time>2019-06-22T18:46:10Z</time>
      </trkpt>
      <trkpt lat="40.160185" lon="-6.682937">
        <ele>444.270</ele>
        <time>2019-06-22T18:46:11Z</time>
      </trkpt>
      <trkpt lat="40.160086" lon="-6.682893">
        <ele>443.822</ele>
        <time>2019-06-22T18:46:12Z</time>
      </trkpt>
      <trkpt lat="40.159977" lon="-6.682861">
        <ele>443.464</ele>
        <time>2019-06-22T18:46:13Z</time>
      </trkpt>
      <trkpt lat="40.159874" lon="-6.682828">
        <ele>443.472</ele>
        <time>2019-06-22T18:46:14Z</time>
      </trkpt>
      <trkpt lat="40.159772" lon="-6.682786">
        <ele>443.461</ele>
        <time>2019-06-22T18:46:15Z</time>
      </trkpt>
      <trkpt lat="40.159666" lon="-6.682752">
        <ele>443.436</ele>
        <time>2019-06-22T18:46:16Z</time>
      </trkpt>
      <trkpt lat="40.159559" lon="-6.682720">
        <ele>443.419</ele>
        <time>2019-06-22T18:46:17Z</time>
      </trkpt>
      <trkpt lat="40.159451" lon="-6.682685">
        <ele>443.424</ele>
        <time>2019-06-22T18:46:18Z</time>
      </trkpt>
      <trkpt lat="40.159343" lon="-6.682648">
        <ele>443.404</ele>
        <time>2019-06-22T18:46:19Z</time>
      </trkpt>
      <trkpt lat="40.159235" lon="-6.682610">
        <ele>443.014</ele>
        <time>2019-06-22T18:46:20Z</time>
      </trkpt>
      <trkpt lat="40.159127" lon="-6.682570">
        <ele>442.308</ele>
        <time>2019-06-22T18:46:21Z</time>
      </trkpt>
      <trkpt lat="40.159016" lon="-6.682541">
        <ele>441.555</ele>
        <time>2019-06-22T18:46:22Z</time>
      </trkpt>
      <trkpt lat="40.158909" lon="-6.682499">
        <ele>441.179</ele>
        <time>2019-06-22T18:46:23Z</time>
      </trkpt>
      <trkpt lat="40.158795" lon="-6.682460">
        <ele>440.711</ele>
        <time>2019-06-22T18:46:24Z</time>
      </trkpt>
      <trkpt lat="40.158680" lon="-6.682425">
        <ele>440.283</ele>
        <time>2019-06-22T18:46:25Z</time>
      </trkpt>
      <trkpt lat="40.158564" lon="-6.682404">
        <ele>439.451</ele>
        <time>2019-06-22T18:46:26Z</time>
      </trkpt>
      <trkpt lat="40.158448" lon="-6.682343">
        <ele>439.320</ele>
        <time>2019-06-22T18:46:27Z</time>
      </trkpt>
      <trkpt lat="40.158337" lon="-6.682311">
        <ele>439.265</ele>
        <time>2019-06-22T18:46:28Z</time>
      </trkpt>
      <trkpt lat="40.158210" lon="-6.682269">
        <ele>438.768</ele>
        <time>2019-06-22T18:46:29Z</time>
      </trkpt>
      <trkpt lat="40.158089" lon="-6.682233">
        <ele>438.255</ele>
        <time>2019-06-22T18:46:30Z</time>
      </trkpt>
      <trkpt lat="40.157974" lon="-6.682195">
        <ele>438.107</ele>
        <time>2019-06-22T18:46:31Z</time>
      </trkpt>
      <trkpt lat="40.157853" lon="-6.682164">
        <ele>437.917</ele>
        <time>2019-06-22T18:46:32Z</time>
      </trkpt>
      <trkpt lat="40.157739" lon="-6.682134">
        <ele>437.308</ele>
        <time>2019-06-22T18:46:33Z</time>
      </trkpt>
      <trkpt lat="40.157621" lon="-6.682091">
        <ele>436.848</ele>
        <time>2019-06-22T18:46:34Z</time>
      </trkpt>
      <trkpt lat="40.157495" lon="-6.682046">
        <ele>436.262</ele>
        <time>2019-06-22T18:46:35Z</time>
      </trkpt>
      <trkpt lat="40.157365" lon="-6.681998">
        <ele>436.084</ele>
        <time>2019-06-22T18:46:36Z</time>
      </trkpt>
      <trkpt lat="40.157228" lon="-6.681958">
        <ele>435.666</ele>
        <time>2019-06-22T18:46:37Z</time>
      </trkpt>
      <trkpt lat="40.157089" lon="-6.681920">
        <ele>435.634</ele>
        <time>2019-06-22T18:46:38Z</time>
      </trkpt>
      <trkpt lat="40.156953" lon="-6.681872">
        <ele>435.663</ele>
        <time>2019-06-22T18:46:39Z</time>
      </trkpt>
      <trkpt lat="40.156825" lon="-6.681811">
        <ele>436.098</ele>
        <time>2019-06-22T18:46:40Z</time>
      </trkpt>
      <trkpt lat="40.156691" lon="-6.681753">
        <ele>436.111</ele>
        <time>2019-06-22T18:46:41Z</time>
      </trkpt>
      <trkpt lat="40.156564" lon="-6.681710">
        <ele>436.159</ele>
        <time>2019-06-22T18:46:42Z</time>
      </trkpt>
      <trkpt lat="40.156439" lon="-6.681662">
        <ele>436.103</ele>
        <time>2019-06-22T18:46:43Z</time>
      </trkpt>
      <trkpt lat="40.156303" lon="-6.681634">
        <ele>435.823</ele>
        <time>2019-06-22T18:46:44Z</time>
      </trkpt>
      <trkpt lat="40.156174" lon="-6.681604">
        <ele>435.608</ele>
        <time>2019-06-22T18:46:45Z</time>
      </trkpt>
      <trkpt lat="40.156035" lon="-6.681571">
        <ele>435.618</ele>
        <time>2019-06-22T18:46:46Z</time>
      </trkpt>
      <trkpt lat="40.155886" lon="-6.681530">
        <ele>435.892</ele>
        <time>2019-06-22T18:46:47Z</time>
      </trkpt>
      <trkpt lat="40.155744" lon="-6.681484">
        <ele>436.634</ele>
        <time>2019-06-22T18:46:48Z</time>
      </trkpt>
      <trkpt lat="40.155599" lon="-6.681445">
        <ele>437.656</ele>
        <time>2019-06-22T18:46:49Z</time>
      </trkpt>
      <trkpt lat="40.155454" lon="-6.681401">
        <ele>438.674</ele>
        <time>2019-06-22T18:46:50Z</time>
      </trkpt>
      <trkpt lat="40.155313" lon="-6.681346">
        <ele>439.293</ele>
        <time>2019-06-22T18:46:51Z</time>
      </trkpt>
      <trkpt lat="40.155175" lon="-6.681299">
        <ele>439.358</ele>
        <time>2019-06-22T18:46:52Z</time>
      </trkpt>
      <trkpt lat="40.155041" lon="-6.681253">
        <ele>439.771</ele>
        <time>2019-06-22T18:46:53Z</time>
      </trkpt>
      <trkpt lat="40.154925" lon="-6.681209">
        <ele>439.741</ele>
        <time>2019-06-22T18:46:54Z</time>
      </trkpt>
      <trkpt lat="40.154835" lon="-6.681183">
        <ele>439.581</ele>
        <time>2019-06-22T18:46:55Z</time>
      </trkpt>
      <trkpt lat="40.154750" lon="-6.681143">
        <ele>439.509</ele>
        <time>2019-06-22T18:46:56Z</time>
      </trkpt>
      <trkpt lat="40.154699" lon="-6.681129">
        <ele>440.908</ele>
        <time>2019-06-22T18:46:58Z</time>
      </trkpt>
      <trkpt lat="40.154650" lon="-6.681112">
        <ele>443.297</ele>
        <time>2019-06-22T18:47:02Z</time>
      </trkpt>
      <trkpt lat="40.154578" lon="-6.681094">
        <ele>443.281</ele>
        <time>2019-06-22T18:47:04Z</time>
      </trkpt>
      <trkpt lat="40.154521" lon="-6.681096">
        <ele>443.243</ele>
        <time>2019-06-22T18:47:05Z</time>
      </trkpt>
      <trkpt lat="40.154469" lon="-6.681093">
        <ele>443.295</ele>
        <time>2019-06-22T18:47:06Z</time>
      </trkpt>
      <trkpt lat="40.154418" lon="-6.681077">
        <ele>443.273</ele>
        <time>2019-06-22T18:47:07Z</time>
      </trkpt>
      <trkpt lat="40.154355" lon="-6.681056">
        <ele>443.292</ele>
        <time>2019-06-22T18:47:08Z</time>
      </trkpt>
      <trkpt lat="40.154290" lon="-6.681039">
        <ele>443.017</ele>
        <time>2019-06-22T18:47:09Z</time>
      </trkpt>
      <trkpt lat="40.154226" lon="-6.681018">
        <ele>442.820</ele>
        <time>2019-06-22T18:47:10Z</time>
      </trkpt>
      <trkpt lat="40.154160" lon="-6.680994">
        <ele>442.591</ele>
        <time>2019-06-22T18:47:11Z</time>
      </trkpt>
      <trkpt lat="40.154097" lon="-6.680977">
        <ele>442.181</ele>
        <time>2019-06-22T18:47:12Z</time>
      </trkpt>
      <trkpt lat="40.154029" lon="-6.680949">
        <ele>441.719</ele>
        <time>2019-06-22T18:47:13Z</time>
      </trkpt>
      <trkpt lat="40.153968" lon="-6.680920">
        <ele>441.508</ele>
        <time>2019-06-22T18:47:14Z</time>
      </trkpt>
      <trkpt lat="40.153925" lon="-6.680878">
        <ele>441.132</ele>
        <time>2019-06-22T18:47:15Z</time>
      </trkpt>
      <trkpt lat="40.153874" lon="-6.680827">
        <ele>440.846</ele>
        <time>2019-06-22T18:47:16Z</time>
      </trkpt>
      <trkpt lat="40.153835" lon="-6.680769">
        <ele>440.548</ele>
        <time>2019-06-22T18:47:17Z</time>
      </trkpt>
      <trkpt lat="40.153808" lon="-6.680706">
        <ele>440.240</ele>
        <time>2019-06-22T18:47:18Z</time>
      </trkpt>
      <trkpt lat="40.153774" lon="-6.680638">
        <ele>439.878</ele>
        <time>2019-06-22T18:47:19Z</time>
      </trkpt>
      <trkpt lat="40.153773" lon="-6.680554">
        <ele>439.437</ele>
        <time>2019-06-22T18:47:20Z</time>
      </trkpt>
      <trkpt lat="40.153784" lon="-6.680456">
        <ele>439.082</ele>
        <time>2019-06-22T18:47:21Z</time>
      </trkpt>
      <trkpt lat="40.153876" lon="-6.680275">
        <ele>438.725</ele>
        <time>2019-06-22T18:47:22Z</time>
      </trkpt>
      <trkpt lat="40.153941" lon="-6.680139">
        <ele>438.242</ele>
        <time>2019-06-22T18:47:23Z</time>
      </trkpt>
      <trkpt lat="40.153990" lon="-6.680023">
        <ele>437.722</ele>
        <time>2019-06-22T18:47:24Z</time>
      </trkpt>
      <trkpt lat="40.154035" lon="-6.679887">
        <ele>437.314</ele>
        <time>2019-06-22T18:47:25Z</time>
      </trkpt>
      <trkpt lat="40.154073" lon="-6.679755">
        <ele>436.808</ele>
        <time>2019-06-22T18:47:26Z</time>
      </trkpt>
      <trkpt lat="40.154081" lon="-6.679625">
        <ele>436.157</ele>
        <time>2019-06-22T18:47:27Z</time>
      </trkpt>
      <trkpt lat="40.154061" lon="-6.679497">
        <ele>435.051</ele>
        <time>2019-06-22T18:47:28Z</time>
      </trkpt>
      <trkpt lat="40.154000" lon="-6.679411">
        <ele>434.083</ele>
        <time>2019-06-22T18:47:29Z</time>
      </trkpt>
      <trkpt lat="40.153934" lon="-6.679320">
        <ele>432.945</ele>
        <time>2019-06-22T18:47:30Z</time>
      </trkpt>
      <trkpt lat="40.153866" lon="-6.679241">
        <ele>431.623</ele>
        <time>2019-06-22T18:47:31Z</time>
      </trkpt>
      <trkpt lat="40.153791" lon="-6.679210">
        <ele>430.622</ele>
        <time>2019-06-22T18:47:32Z</time>
      </trkpt>
      <trkpt lat="40.153569" lon="-6.679229">
        <ele>430.227</ele>
        <time>2019-06-22T18:47:33Z</time>
      </trkpt>
      <trkpt lat="40.153420" lon="-6.679203">
        <ele>429.560</ele>
        <time>2019-06-22T18:47:34Z</time>
      </trkpt>
      <trkpt lat="40.153248" lon="-6.679178">
        <ele>428.848</ele>
        <time>2019-06-22T18:47:35Z</time>
      </trkpt>
      <trkpt lat="40.153073" lon="-6.679154">
        <ele>428.261</ele>
        <time>2019-06-22T18:47:36Z</time>
      </trkpt>
      <trkpt lat="40.152897" lon="-6.679129">
        <ele>427.617</ele>
        <time>2019-06-22T18:47:37Z</time>
      </trkpt>
      <trkpt lat="40.152723" lon="-6.679102">
        <ele>426.408</ele>
        <time>2019-06-22T18:47:38Z</time>
      </trkpt>
      <trkpt lat="40.152544" lon="-6.679059">
        <ele>425.527</ele>
        <time>2019-06-22T18:47:39Z</time>
      </trkpt>
      <trkpt lat="40.152349" lon="-6.679004">
        <ele>424.791</ele>
        <time>2019-06-22T18:47:40Z</time>
      </trkpt>
      <trkpt lat="40.152157" lon="-6.678920">
        <ele>422.913</ele>
        <time>2019-06-22T18:47:41Z</time>
      </trkpt>
      <trkpt lat="40.151968" lon="-6.678830">
        <ele>421.425</ele>
        <time>2019-06-22T18:47:42Z</time>
      </trkpt>
      <trkpt lat="40.151778" lon="-6.678736">
        <ele>419.933</ele>
        <time>2019-06-22T18:47:43Z</time>
      </trkpt>
      <trkpt lat="40.151587" lon="-6.678637">
        <ele>417.792</ele>
        <time>2019-06-22T18:47:44Z</time>
      </trkpt>
      <trkpt lat="40.151399" lon="-6.678536">
        <ele>415.257</ele>
        <time>2019-06-22T18:47:45Z</time>
      </trkpt>
      <trkpt lat="40.151213" lon="-6.678427">
        <ele>413.550</ele>
        <time>2019-06-22T18:47:46Z</time>
      </trkpt>
      <trkpt lat="40.151033" lon="-6.678317">
        <ele>413.559</ele>
        <time>2019-06-22T18:47:47Z</time>
      </trkpt>
      <trkpt lat="40.150856" lon="-6.678208">
        <ele>411.903</ele>
        <time>2019-06-22T18:47:48Z</time>
      </trkpt>
      <trkpt lat="40.150680" lon="-6.678107">
        <ele>410.523</ele>
        <time>2019-06-22T18:47:49Z</time>
      </trkpt>
      <trkpt lat="40.150517" lon="-6.678013">
        <ele>409.708</ele>
        <time>2019-06-22T18:47:50Z</time>
      </trkpt>
      <trkpt lat="40.150360" lon="-6.677917">
        <ele>408.918</ele>
        <time>2019-06-22T18:47:51Z</time>
      </trkpt>
      <trkpt lat="40.150213" lon="-6.677833">
        <ele>407.852</ele>
        <time>2019-06-22T18:47:52Z</time>
      </trkpt>
      <trkpt lat="40.150071" lon="-6.677762">
        <ele>406.544</ele>
        <time>2019-06-22T18:47:53Z</time>
      </trkpt>
      <trkpt lat="40.149937" lon="-6.677684">
        <ele>404.976</ele>
        <time>2019-06-22T18:47:54Z</time>
      </trkpt>
      <trkpt lat="40.149824" lon="-6.677619">
        <ele>403.064</ele>
        <time>2019-06-22T18:47:55Z</time>
      </trkpt>
      <trkpt lat="40.149732" lon="-6.677560">
        <ele>402.153</ele>
        <time>2019-06-22T18:47:56Z</time>
      </trkpt>
      <trkpt lat="40.149641" lon="-6.677503">
        <ele>401.968</ele>
        <time>2019-06-22T18:47:57Z</time>
      </trkpt>
      <trkpt lat="40.149593" lon="-6.677480">
        <ele>401.371</ele>
        <time>2019-06-22T18:47:58Z</time>
      </trkpt>
      <trkpt lat="40.149518" lon="-6.677431">
        <ele>401.063</ele>
        <time>2019-06-22T18:48:00Z</time>
      </trkpt>
      <trkpt lat="40.149474" lon="-6.677414">
        <ele>399.744</ele>
        <time>2019-06-22T18:48:36Z</time>
      </trkpt>
      <trkpt lat="40.149419" lon="-6.677374">
        <ele>399.618</ele>
        <time>2019-06-22T18:48:39Z</time>
      </trkpt>
      <trkpt lat="40.149319" lon="-6.677305">
        <ele>399.508</ele>
        <time>2019-06-22T18:48:40Z</time>
      </trkpt>
      <trkpt lat="40.149219" lon="-6.677234">
        <ele>399.319</ele>
        <time>2019-06-22T18:48:41Z</time>
      </trkpt>
      <trkpt lat="40.149107" lon="-6.677167">
        <ele>399.023</ele>
        <time>2019-06-22T18:48:42Z</time>
      </trkpt>
      <trkpt lat="40.148988" lon="-6.677090">
        <ele>398.525</ele>
        <time>2019-06-22T18:48:43Z</time>
      </trkpt>
      <trkpt lat="40.148858" lon="-6.677004">
        <ele>397.777</ele>
        <time>2019-06-22T18:48:44Z</time>
      </trkpt>
      <trkpt lat="40.148716" lon="-6.676907">
        <ele>397.025</ele>
        <time>2019-06-22T18:48:45Z</time>
      </trkpt>
      <trkpt lat="40.148567" lon="-6.676814">
        <ele>396.034</ele>
        <time>2019-06-22T18:48:46Z</time>
      </trkpt>
      <trkpt lat="40.148415" lon="-6.676715">
        <ele>395.039</ele>
        <time>2019-06-22T18:48:47Z</time>
      </trkpt>
      <trkpt lat="40.148258" lon="-6.676620">
        <ele>393.962</ele>
        <time>2019-06-22T18:48:48Z</time>
      </trkpt>
      <trkpt lat="40.148101" lon="-6.676519">
        <ele>393.371</ele>
        <time>2019-06-22T18:48:49Z</time>
      </trkpt>
      <trkpt lat="40.147950" lon="-6.676423">
        <ele>392.341</ele>
        <time>2019-06-22T18:48:50Z</time>
      </trkpt>
      <trkpt lat="40.147800" lon="-6.676341">
        <ele>391.415</ele>
        <time>2019-06-22T18:48:51Z</time>
      </trkpt>
      <trkpt lat="40.147645" lon="-6.676267">
        <ele>389.808</ele>
        <time>2019-06-22T18:48:52Z</time>
      </trkpt>
      <trkpt lat="40.147474" lon="-6.676203">
        <ele>388.790</ele>
        <time>2019-06-22T18:48:53Z</time>
      </trkpt>
      <trkpt lat="40.147313" lon="-6.676173">
        <ele>388.714</ele>
        <time>2019-06-22T18:48:54Z</time>
      </trkpt>
      <trkpt lat="40.147148" lon="-6.676171">
        <ele>387.466</ele>
        <time>2019-06-22T18:48:55Z</time>
      </trkpt>
      <trkpt lat="40.146947" lon="-6.676217">
        <ele>386.238</ele>
        <time>2019-06-22T18:48:56Z</time>
      </trkpt>
      <trkpt lat="40.146761" lon="-6.676262">
        <ele>384.926</ele>
        <time>2019-06-22T18:48:57Z</time>
      </trkpt>
      <trkpt lat="40.146562" lon="-6.676337">
        <ele>384.475</ele>
        <time>2019-06-22T18:48:58Z</time>
      </trkpt>
      <trkpt lat="40.146351" lon="-6.676405">
        <ele>384.470</ele>
        <time>2019-06-22T18:48:59Z</time>
      </trkpt>
      <trkpt lat="40.146151" lon="-6.676471">
        <ele>384.413</ele>
        <time>2019-06-22T18:49:00Z</time>
      </trkpt>
      <trkpt lat="40.145962" lon="-6.676528">
        <ele>383.381</ele>
        <time>2019-06-22T18:49:01Z</time>
      </trkpt>
      <trkpt lat="40.145760" lon="-6.676586">
        <ele>383.361</ele>
        <time>2019-06-22T18:49:02Z</time>
      </trkpt>
      <trkpt lat="40.145571" lon="-6.676624">
        <ele>382.817</ele>
        <time>2019-06-22T18:49:03Z</time>
      </trkpt>
      <trkpt lat="40.145380" lon="-6.676643">
        <ele>382.808</ele>
        <time>2019-06-22T18:49:04Z</time>
      </trkpt>
      <trkpt lat="40.145184" lon="-6.676629">
        <ele>382.881</ele>
        <time>2019-06-22T18:49:05Z</time>
      </trkpt>
      <trkpt lat="40.144995" lon="-6.676589">
        <ele>383.045</ele>
        <time>2019-06-22T18:49:06Z</time>
      </trkpt>
      <trkpt lat="40.144812" lon="-6.676496">
        <ele>384.117</ele>
        <time>2019-06-22T18:49:07Z</time>
      </trkpt>
      <trkpt lat="40.144630" lon="-6.676392">
        <ele>384.119</ele>
        <time>2019-06-22T18:49:08Z</time>
      </trkpt>
      <trkpt lat="40.144453" lon="-6.676280">
        <ele>383.877</ele>
        <time>2019-06-22T18:49:09Z</time>
      </trkpt>
      <trkpt lat="40.144279" lon="-6.676166">
        <ele>383.726</ele>
        <time>2019-06-22T18:49:10Z</time>
      </trkpt>
      <trkpt lat="40.144110" lon="-6.676062">
        <ele>383.721</ele>
        <time>2019-06-22T18:49:11Z</time>
      </trkpt>
      <trkpt lat="40.143939" lon="-6.675978">
        <ele>382.864</ele>
        <time>2019-06-22T18:49:12Z</time>
      </trkpt>
      <trkpt lat="40.143756" lon="-6.675905">
        <ele>381.923</ele>
        <time>2019-06-22T18:49:13Z</time>
      </trkpt>
      <trkpt lat="40.143565" lon="-6.675867">
        <ele>381.283</ele>
        <time>2019-06-22T18:49:14Z</time>
      </trkpt>
      <trkpt lat="40.143380" lon="-6.675868">
        <ele>380.211</ele>
        <time>2019-06-22T18:49:15Z</time>
      </trkpt>
      <trkpt lat="40.143185" lon="-6.675965">
        <ele>379.108</ele>
        <time>2019-06-22T18:49:16Z</time>
      </trkpt>
      <trkpt lat="40.142991" lon="-6.676036">
        <ele>378.055</ele>
        <time>2019-06-22T18:49:17Z</time>
      </trkpt>
      <trkpt lat="40.142795" lon="-6.676117">
        <ele>377.379</ele>
        <time>2019-06-22T18:49:18Z</time>
      </trkpt>
      <trkpt lat="40.142599" lon="-6.676183">
        <ele>377.311</ele>
        <time>2019-06-22T18:49:19Z</time>
      </trkpt>
      <trkpt lat="40.142417" lon="-6.676215">
        <ele>377.463</ele>
        <time>2019-06-22T18:49:20Z</time>
      </trkpt>
      <trkpt lat="40.142225" lon="-6.676225">
        <ele>377.481</ele>
        <time>2019-06-22T18:49:21Z</time>
      </trkpt>
      <trkpt lat="40.142020" lon="-6.676224">
        <ele>376.860</ele>
        <time>2019-06-22T18:49:22Z</time>
      </trkpt>
      <trkpt lat="40.141821" lon="-6.676172">
        <ele>376.365</ele>
        <time>2019-06-22T18:49:23Z</time>
      </trkpt>
      <trkpt lat="40.141633" lon="-6.676134">
        <ele>375.688</ele>
        <time>2019-06-22T18:49:24Z</time>
      </trkpt>
      <trkpt lat="40.141453" lon="-6.676104">
        <ele>374.187</ele>
        <time>2019-06-22T18:49:25Z</time>
      </trkpt>
      <trkpt lat="40.141267" lon="-6.676099">
        <ele>372.742</ele>
        <time>2019-06-22T18:49:26Z</time>
      </trkpt>
      <trkpt lat="40.141100" lon="-6.676127">
        <ele>372.326</ele>
        <time>2019-06-22T18:49:27Z</time>
      </trkpt>
      <trkpt lat="40.140935" lon="-6.676263">
        <ele>371.708</ele>
        <time>2019-06-22T18:49:28Z</time>
      </trkpt>
      <trkpt lat="40.140779" lon="-6.676385">
        <ele>371.551</ele>
        <time>2019-06-22T18:49:29Z</time>
      </trkpt>
      <trkpt lat="40.140640" lon="-6.676541">
        <ele>371.575</ele>
        <time>2019-06-22T18:49:30Z</time>
      </trkpt>
      <trkpt lat="40.140498" lon="-6.676710">
        <ele>373.067</ele>
        <time>2019-06-22T18:49:31Z</time>
      </trkpt>
      <trkpt lat="40.140350" lon="-6.676877">
        <ele>373.889</ele>
        <time>2019-06-22T18:49:32Z</time>
      </trkpt>
      <trkpt lat="40.140192" lon="-6.677060">
        <ele>374.667</ele>
        <time>2019-06-22T18:49:33Z</time>
      </trkpt>
      <trkpt lat="40.140033" lon="-6.677251">
        <ele>374.766</ele>
        <time>2019-06-22T18:49:34Z</time>
      </trkpt>
      <trkpt lat="40.139869" lon="-6.677440">
        <ele>374.761</ele>
        <time>2019-06-22T18:49:35Z</time>
      </trkpt>
      <trkpt lat="40.139708" lon="-6.677633">
        <ele>374.184</ele>
        <time>2019-06-22T18:49:36Z</time>
      </trkpt>
      <trkpt lat="40.139546" lon="-6.677829">
        <ele>373.332</ele>
        <time>2019-06-22T18:49:37Z</time>
      </trkpt>
      <trkpt lat="40.139386" lon="-6.678023">
        <ele>372.092</ele>
        <time>2019-06-22T18:49:38Z</time>
      </trkpt>
      <trkpt lat="40.139221" lon="-6.678218">
        <ele>372.011</ele>
        <time>2019-06-22T18:49:39Z</time>
      </trkpt>
      <trkpt lat="40.139051" lon="-6.678416">
        <ele>372.308</ele>
        <time>2019-06-22T18:49:40Z</time>
      </trkpt>
      <trkpt lat="40.138883" lon="-6.678592">
        <ele>372.386</ele>
        <time>2019-06-22T18:49:41Z</time>
      </trkpt>
      <trkpt lat="40.138713" lon="-6.678762">
        <ele>372.320</ele>
        <time>2019-06-22T18:49:42Z</time>
      </trkpt>
      <trkpt lat="40.138536" lon="-6.678912">
        <ele>372.592</ele>
        <time>2019-06-22T18:49:43Z</time>
      </trkpt>
      <trkpt lat="40.138345" lon="-6.679045">
        <ele>372.554</ele>
        <time>2019-06-22T18:49:44Z</time>
      </trkpt>
      <trkpt lat="40.138151" lon="-6.679163">
        <ele>371.862</ele>
        <time>2019-06-22T18:49:45Z</time>
      </trkpt>
      <trkpt lat="40.137953" lon="-6.679271">
        <ele>371.841</ele>
        <time>2019-06-22T18:49:46Z</time>
      </trkpt>
      <trkpt lat="40.137740" lon="-6.679355">
        <ele>372.596</ele>
        <time>2019-06-22T18:49:47Z</time>
      </trkpt>
      <trkpt lat="40.137513" lon="-6.679417">
        <ele>372.879</ele>
        <time>2019-06-22T18:49:48Z</time>
      </trkpt>
      <trkpt lat="40.137287" lon="-6.679468">
        <ele>373.459</ele>
        <time>2019-06-22T18:49:49Z</time>
      </trkpt>
      <trkpt lat="40.137054" lon="-6.679492">
        <ele>373.403</ele>
        <time>2019-06-22T18:49:50Z</time>
      </trkpt>
      <trkpt lat="40.136821" lon="-6.679493">
        <ele>373.423</ele>
        <time>2019-06-22T18:49:51Z</time>
      </trkpt>
      <trkpt lat="40.136583" lon="-6.679483">
        <ele>372.408</ele>
        <time>2019-06-22T18:49:52Z</time>
      </trkpt>
      <trkpt lat="40.136342" lon="-6.679448">
        <ele>371.278</ele>
        <time>2019-06-22T18:49:53Z</time>
      </trkpt>
      <trkpt lat="40.136103" lon="-6.679418">
        <ele>370.032</ele>
        <time>2019-06-22T18:49:54Z</time>
      </trkpt>
      <trkpt lat="40.135865" lon="-6.679384">
        <ele>368.544</ele>
        <time>2019-06-22T18:49:55Z</time>
      </trkpt>
      <trkpt lat="40.135633" lon="-6.679346">
        <ele>367.296</ele>
        <time>2019-06-22T18:49:56Z</time>
      </trkpt>
      <trkpt lat="40.135405" lon="-6.679318">
        <ele>366.884</ele>
        <time>2019-06-22T18:49:57Z</time>
      </trkpt>
      <trkpt lat="40.135178" lon="-6.679294">
        <ele>366.583</ele>
        <time>2019-06-22T18:49:58Z</time>
      </trkpt>
      <trkpt lat="40.134945" lon="-6.679272">
        <ele>366.548</ele>
        <time>2019-06-22T18:49:59Z</time>
      </trkpt>
      <trkpt lat="40.134703" lon="-6.679254">
        <ele>366.191</ele>
        <time>2019-06-22T18:50:00Z</time>
      </trkpt>
      <trkpt lat="40.134463" lon="-6.679250">
        <ele>366.192</ele>
        <time>2019-06-22T18:50:01Z</time>
      </trkpt>
      <trkpt lat="40.134212" lon="-6.679264">
        <ele>366.473</ele>
        <time>2019-06-22T18:50:02Z</time>
      </trkpt>
      <trkpt lat="40.133969" lon="-6.679278">
        <ele>366.420</ele>
        <time>2019-06-22T18:50:03Z</time>
      </trkpt>
      <trkpt lat="40.133730" lon="-6.679323">
        <ele>365.308</ele>
        <time>2019-06-22T18:50:04Z</time>
      </trkpt>
      <trkpt lat="40.133498" lon="-6.679380">
        <ele>364.522</ele>
        <time>2019-06-22T18:50:05Z</time>
      </trkpt>
      <trkpt lat="40.133276" lon="-6.679441">
        <ele>363.486</ele>
        <time>2019-06-22T18:50:06Z</time>
      </trkpt>
      <trkpt lat="40.133056" lon="-6.679503">
        <ele>362.188</ele>
        <time>2019-06-22T18:50:07Z</time>
      </trkpt>
      <trkpt lat="40.132842" lon="-6.679549">
        <ele>360.540</ele>
        <time>2019-06-22T18:50:08Z</time>
      </trkpt>
      <trkpt lat="40.132639" lon="-6.679589">
        <ele>359.498</ele>
        <time>2019-06-22T18:50:09Z</time>
      </trkpt>
      <trkpt lat="40.132438" lon="-6.679608">
        <ele>359.437</ele>
        <time>2019-06-22T18:50:10Z</time>
      </trkpt>
      <trkpt lat="40.132233" lon="-6.679597">
        <ele>359.922</ele>
        <time>2019-06-22T18:50:11Z</time>
      </trkpt>
      <trkpt lat="40.132022" lon="-6.679569">
        <ele>360.465</ele>
        <time>2019-06-22T18:50:12Z</time>
      </trkpt>
      <trkpt lat="40.131817" lon="-6.679540">
        <ele>361.076</ele>
        <time>2019-06-22T18:50:13Z</time>
      </trkpt>
      <trkpt lat="40.131625" lon="-6.679514">
        <ele>361.190</ele>
        <time>2019-06-22T18:50:14Z</time>
      </trkpt>
      <trkpt lat="40.131438" lon="-6.679489">
        <ele>361.219</ele>
        <time>2019-06-22T18:50:15Z</time>
      </trkpt>
      <trkpt lat="40.131257" lon="-6.679460">
        <ele>361.208</ele>
        <time>2019-06-22T18:50:16Z</time>
      </trkpt>
      <trkpt lat="40.131096" lon="-6.679426">
        <ele>360.950</ele>
        <time>2019-06-22T18:50:17Z</time>
      </trkpt>
      <trkpt lat="40.130937" lon="-6.679375">
        <ele>360.754</ele>
        <time>2019-06-22T18:50:18Z</time>
      </trkpt>
      <trkpt lat="40.130781" lon="-6.679305">
        <ele>360.216</ele>
        <time>2019-06-22T18:50:19Z</time>
      </trkpt>
      <trkpt lat="40.130634" lon="-6.679218">
        <ele>360.268</ele>
        <time>2019-06-22T18:50:20Z</time>
      </trkpt>
      <trkpt lat="40.130501" lon="-6.679063">
        <ele>360.236</ele>
        <time>2019-06-22T18:50:21Z</time>
      </trkpt>
      <trkpt lat="40.130403" lon="-6.678897">
        <ele>360.395</ele>
        <time>2019-06-22T18:50:22Z</time>
      </trkpt>
      <trkpt lat="40.130309" lon="-6.678713">
        <ele>360.580</ele>
        <time>2019-06-22T18:50:23Z</time>
      </trkpt>
      <trkpt lat="40.130224" lon="-6.678509">
        <ele>361.873</ele>
        <time>2019-06-22T18:50:24Z</time>
      </trkpt>
      <trkpt lat="40.130176" lon="-6.678298">
        <ele>361.812</ele>
        <time>2019-06-22T18:50:25Z</time>
      </trkpt>
      <trkpt lat="40.130118" lon="-6.678086">
        <ele>361.832</ele>
        <time>2019-06-22T18:50:26Z</time>
      </trkpt>
      <trkpt lat="40.130037" lon="-6.677895">
        <ele>361.305</ele>
        <time>2019-06-22T18:50:27Z</time>
      </trkpt>
      <trkpt lat="40.129959" lon="-6.677687">
        <ele>360.908</ele>
        <time>2019-06-22T18:50:28Z</time>
      </trkpt>
      <trkpt lat="40.129822" lon="-6.677557">
        <ele>360.764</ele>
        <time>2019-06-22T18:50:29Z</time>
      </trkpt>
      <trkpt lat="40.129672" lon="-6.677444">
        <ele>360.728</ele>
        <time>2019-06-22T18:50:30Z</time>
      </trkpt>
      <trkpt lat="40.129516" lon="-6.677362">
        <ele>360.490</ele>
        <time>2019-06-22T18:50:31Z</time>
      </trkpt>
      <trkpt lat="40.129350" lon="-6.677327">
        <ele>360.492</ele>
        <time>2019-06-22T18:50:32Z</time>
      </trkpt>
      <trkpt lat="40.129185" lon="-6.677306">
        <ele>360.580</ele>
        <time>2019-06-22T18:50:33Z</time>
      </trkpt>
      <trkpt lat="40.129039" lon="-6.677338">
        <ele>360.849</ele>
        <time>2019-06-22T18:50:34Z</time>
      </trkpt>
      <trkpt lat="40.128864" lon="-6.677404">
        <ele>360.974</ele>
        <time>2019-06-22T18:50:35Z</time>
      </trkpt>
      <trkpt lat="40.128673" lon="-6.677561">
        <ele>361.637</ele>
        <time>2019-06-22T18:50:36Z</time>
      </trkpt>
      <trkpt lat="40.128518" lon="-6.677686">
        <ele>362.119</ele>
        <time>2019-06-22T18:50:37Z</time>
      </trkpt>
      <trkpt lat="40.128361" lon="-6.677808">
        <ele>362.709</ele>
        <time>2019-06-22T18:50:38Z</time>
      </trkpt>
      <trkpt lat="40.128207" lon="-6.677919">
        <ele>362.719</ele>
        <time>2019-06-22T18:50:39Z</time>
      </trkpt>
      <trkpt lat="40.128080" lon="-6.678021">
        <ele>362.008</ele>
        <time>2019-06-22T18:50:40Z</time>
      </trkpt>
      <trkpt lat="40.127953" lon="-6.678151">
        <ele>361.474</ele>
        <time>2019-06-22T18:50:41Z</time>
      </trkpt>
      <trkpt lat="40.127835" lon="-6.678305">
        <ele>359.928</ele>
        <time>2019-06-22T18:50:42Z</time>
      </trkpt>
      <trkpt lat="40.127734" lon="-6.678492">
        <ele>358.180</ele>
        <time>2019-06-22T18:50:43Z</time>
      </trkpt>
      <trkpt lat="40.127664" lon="-6.678701">
        <ele>356.992</ele>
        <time>2019-06-22T18:50:44Z</time>
      </trkpt>
      <trkpt lat="40.127611" lon="-6.678924">
        <ele>356.730</ele>
        <time>2019-06-22T18:50:45Z</time>
      </trkpt>
      <trkpt lat="40.127562" lon="-6.679149">
        <ele>356.759</ele>
        <time>2019-06-22T18:50:46Z</time>
      </trkpt>
      <trkpt lat="40.127516" lon="-6.679359">
        <ele>357.224</ele>
        <time>2019-06-22T18:50:47Z</time>
      </trkpt>
      <trkpt lat="40.127475" lon="-6.679542">
        <ele>358.137</ele>
        <time>2019-06-22T18:50:48Z</time>
      </trkpt>
      <trkpt lat="40.127378" lon="-6.679714">
        <ele>359.035</ele>
        <time>2019-06-22T18:50:49Z</time>
      </trkpt>
      <trkpt lat="40.127271" lon="-6.679876">
        <ele>359.086</ele>
        <time>2019-06-22T18:50:50Z</time>
      </trkpt>
      <trkpt lat="40.127166" lon="-6.680059">
        <ele>359.014</ele>
        <time>2019-06-22T18:50:51Z</time>
      </trkpt>
      <trkpt lat="40.127040" lon="-6.680176">
        <ele>358.808</ele>
        <time>2019-06-22T18:50:52Z</time>
      </trkpt>
      <trkpt lat="40.126849" lon="-6.680194">
        <ele>358.356</ele>
        <time>2019-06-22T18:50:53Z</time>
      </trkpt>
      <trkpt lat="40.126681" lon="-6.680235">
        <ele>357.450</ele>
        <time>2019-06-22T18:50:54Z</time>
      </trkpt>
      <trkpt lat="40.126505" lon="-6.680224">
        <ele>356.312</ele>
        <time>2019-06-22T18:50:55Z</time>
      </trkpt>
      <trkpt lat="40.126334" lon="-6.680209">
        <ele>355.024</ele>
        <time>2019-06-22T18:50:56Z</time>
      </trkpt>
      <trkpt lat="40.126168" lon="-6.680140">
        <ele>354.032</ele>
        <time>2019-06-22T18:50:57Z</time>
      </trkpt>
      <trkpt lat="40.126022" lon="-6.679969">
        <ele>352.941</ele>
        <time>2019-06-22T18:50:58Z</time>
      </trkpt>
      <trkpt lat="40.125888" lon="-6.679805">
        <ele>351.666</ele>
        <time>2019-06-22T18:50:59Z</time>
      </trkpt>
      <trkpt lat="40.125772" lon="-6.679613">
        <ele>350.299</ele>
        <time>2019-06-22T18:51:00Z</time>
      </trkpt>
      <trkpt lat="40.125663" lon="-6.679421">
        <ele>349.296</ele>
        <time>2019-06-22T18:51:01Z</time>
      </trkpt>
      <trkpt lat="40.125539" lon="-6.679212">
        <ele>347.331</ele>
        <time>2019-06-22T18:51:02Z</time>
      </trkpt>
      <trkpt lat="40.125417" lon="-6.679012">
        <ele>345.324</ele>
        <time>2019-06-22T18:51:03Z</time>
      </trkpt>
      <trkpt lat="40.125306" lon="-6.678812">
        <ele>345.308</ele>
        <time>2019-06-22T18:51:04Z</time>
      </trkpt>
      <trkpt lat="40.125178" lon="-6.678613">
        <ele>343.222</ele>
        <time>2019-06-22T18:51:05Z</time>
      </trkpt>
      <trkpt lat="40.125063" lon="-6.678420">
        <ele>342.066</ele>
        <time>2019-06-22T18:51:06Z</time>
      </trkpt>
      <trkpt lat="40.124960" lon="-6.678226">
        <ele>339.558</ele>
        <time>2019-06-22T18:51:07Z</time>
      </trkpt>
      <trkpt lat="40.124856" lon="-6.678016">
        <ele>339.590</ele>
        <time>2019-06-22T18:51:08Z</time>
      </trkpt>
      <trkpt lat="40.124751" lon="-6.677796">
        <ele>338.498</ele>
        <time>2019-06-22T18:51:09Z</time>
      </trkpt>
      <trkpt lat="40.124649" lon="-6.677546">
        <ele>337.817</ele>
        <time>2019-06-22T18:51:10Z</time>
      </trkpt>
      <trkpt lat="40.124555" lon="-6.677272">
        <ele>337.272</ele>
        <time>2019-06-22T18:51:11Z</time>
      </trkpt>
      <trkpt lat="40.124475" lon="-6.676991">
        <ele>334.485</ele>
        <time>2019-06-22T18:51:12Z</time>
      </trkpt>
      <trkpt lat="40.124408" lon="-6.676687">
        <ele>334.458</ele>
        <time>2019-06-22T18:51:13Z</time>
      </trkpt>
      <trkpt lat="40.124340" lon="-6.676389">
        <ele>332.952</ele>
        <time>2019-06-22T18:51:14Z</time>
      </trkpt>
      <trkpt lat="40.124276" lon="-6.676091">
        <ele>331.817</ele>
        <time>2019-06-22T18:51:15Z</time>
      </trkpt>
      <trkpt lat="40.124198" lon="-6.675791">
        <ele>330.108</ele>
        <time>2019-06-22T18:51:16Z</time>
      </trkpt>
      <trkpt lat="40.124119" lon="-6.675519">
        <ele>328.988</ele>
        <time>2019-06-22T18:51:17Z</time>
      </trkpt>
      <trkpt lat="40.124022" lon="-6.675245">
        <ele>327.322</ele>
        <time>2019-06-22T18:51:18Z</time>
      </trkpt>
      <trkpt lat="40.123900" lon="-6.674974">
        <ele>326.234</ele>
        <time>2019-06-22T18:51:19Z</time>
      </trkpt>
      <trkpt lat="40.123766" lon="-6.674730">
        <ele>324.566</ele>
        <time>2019-06-22T18:51:20Z</time>
      </trkpt>
      <trkpt lat="40.123628" lon="-6.674513">
        <ele>322.934</ele>
        <time>2019-06-22T18:51:21Z</time>
      </trkpt>
      <trkpt lat="40.123448" lon="-6.674308">
        <ele>321.073</ele>
        <time>2019-06-22T18:51:22Z</time>
      </trkpt>
      <trkpt lat="40.123260" lon="-6.674121">
        <ele>320.348</ele>
        <time>2019-06-22T18:51:23Z</time>
      </trkpt>
      <trkpt lat="40.123072" lon="-6.673953">
        <ele>319.411</ele>
        <time>2019-06-22T18:51:24Z</time>
      </trkpt>
      <trkpt lat="40.122888" lon="-6.673794">
        <ele>318.986</ele>
        <time>2019-06-22T18:51:25Z</time>
      </trkpt>
      <trkpt lat="40.122712" lon="-6.673643">
        <ele>318.460</ele>
        <time>2019-06-22T18:51:26Z</time>
      </trkpt>
      <trkpt lat="40.122539" lon="-6.673489">
        <ele>318.226</ele>
        <time>2019-06-22T18:51:27Z</time>
      </trkpt>
      <trkpt lat="40.122371" lon="-6.673353">
        <ele>318.008</ele>
        <time>2019-06-22T18:51:28Z</time>
      </trkpt>
      <trkpt lat="40.122186" lon="-6.673232">
        <ele>317.191</ele>
        <time>2019-06-22T18:51:29Z</time>
      </trkpt>
      <trkpt lat="40.121991" lon="-6.673142">
        <ele>316.525</ele>
        <time>2019-06-22T18:51:30Z</time>
      </trkpt>
      <trkpt lat="40.121773" lon="-6.673060">
        <ele>315.837</ele>
        <time>2019-06-22T18:51:31Z</time>
      </trkpt>
      <trkpt lat="40.121552" lon="-6.672986">
        <ele>315.169</ele>
        <time>2019-06-22T18:51:32Z</time>
      </trkpt>
      <trkpt lat="40.121330" lon="-6.672917">
        <ele>314.777</ele>
        <time>2019-06-22T18:51:33Z</time>
      </trkpt>
      <trkpt lat="40.121098" lon="-6.672841">
        <ele>314.726</ele>
        <time>2019-06-22T18:51:34Z</time>
      </trkpt>
      <trkpt lat="40.120880" lon="-6.672756">
        <ele>315.241</ele>
        <time>2019-06-22T18:51:35Z</time>
      </trkpt>
      <trkpt lat="40.120654" lon="-6.672656">
        <ele>315.444</ele>
        <time>2019-06-22T18:51:36Z</time>
      </trkpt>
      <trkpt lat="40.120434" lon="-6.672530">
        <ele>315.584</ele>
        <time>2019-06-22T18:51:37Z</time>
      </trkpt>
      <trkpt lat="40.120209" lon="-6.672407">
        <ele>315.507</ele>
        <time>2019-06-22T18:51:38Z</time>
      </trkpt>
      <trkpt lat="40.119979" lon="-6.672281">
        <ele>315.317</ele>
        <time>2019-06-22T18:51:39Z</time>
      </trkpt>
      <trkpt lat="40.119751" lon="-6.672149">
        <ele>314.708</ele>
        <time>2019-06-22T18:51:40Z</time>
      </trkpt>
      <trkpt lat="40.119520" lon="-6.672022">
        <ele>313.671</ele>
        <time>2019-06-22T18:51:41Z</time>
      </trkpt>
      <trkpt lat="40.119279" lon="-6.671895">
        <ele>312.855</ele>
        <time>2019-06-22T18:51:42Z</time>
      </trkpt>
      <trkpt lat="40.119045" lon="-6.671762">
        <ele>312.047</ele>
        <time>2019-06-22T18:51:43Z</time>
      </trkpt>
      <trkpt lat="40.118806" lon="-6.671630">
        <ele>311.499</ele>
        <time>2019-06-22T18:51:44Z</time>
      </trkpt>
      <trkpt lat="40.118566" lon="-6.671515">
        <ele>310.817</ele>
        <time>2019-06-22T18:51:45Z</time>
      </trkpt>
      <trkpt lat="40.118332" lon="-6.671382">
        <ele>310.856</ele>
        <time>2019-06-22T18:51:46Z</time>
      </trkpt>
      <trkpt lat="40.118100" lon="-6.671243">
        <ele>310.511</ele>
        <time>2019-06-22T18:51:47Z</time>
      </trkpt>
      <trkpt lat="40.117866" lon="-6.671112">
        <ele>310.584</ele>
        <time>2019-06-22T18:51:48Z</time>
      </trkpt>
      <trkpt lat="40.117643" lon="-6.670983">
        <ele>310.556</ele>
        <time>2019-06-22T18:51:49Z</time>
      </trkpt>
      <trkpt lat="40.117416" lon="-6.670859">
        <ele>310.459</ele>
        <time>2019-06-22T18:51:50Z</time>
      </trkpt>
      <trkpt lat="40.117197" lon="-6.670734">
        <ele>310.014</ele>
        <time>2019-06-22T18:51:51Z</time>
      </trkpt>
      <trkpt lat="40.116971" lon="-6.670620">
        <ele>309.408</ele>
        <time>2019-06-22T18:51:52Z</time>
      </trkpt>
      <trkpt lat="40.116740" lon="-6.670516">
        <ele>308.828</ele>
        <time>2019-06-22T18:51:53Z</time>
      </trkpt>
      <trkpt lat="40.116507" lon="-6.670423">
        <ele>308.572</ele>
        <time>2019-06-22T18:51:54Z</time>
      </trkpt>
      <trkpt lat="40.116274" lon="-6.670349">
        <ele>308.564</ele>
        <time>2019-06-22T18:51:55Z</time>
      </trkpt>
      <trkpt lat="40.116039" lon="-6.670295">
        <ele>308.516</ele>
        <time>2019-06-22T18:51:56Z</time>
      </trkpt>
      <trkpt lat="40.115804" lon="-6.670253">
        <ele>308.574</ele>
        <time>2019-06-22T18:51:57Z</time>
      </trkpt>
      <trkpt lat="40.115569" lon="-6.670232">
        <ele>308.513</ele>
        <time>2019-06-22T18:51:58Z</time>
      </trkpt>
      <trkpt lat="40.115318" lon="-6.670287">
        <ele>308.168</ele>
        <time>2019-06-22T18:51:59Z</time>
      </trkpt>
      <trkpt lat="40.115079" lon="-6.670314">
        <ele>308.181</ele>
        <time>2019-06-22T18:52:00Z</time>
      </trkpt>
      <trkpt lat="40.114851" lon="-6.670358">
        <ele>308.795</ele>
        <time>2019-06-22T18:52:01Z</time>
      </trkpt>
      <trkpt lat="40.114615" lon="-6.670396">
        <ele>309.449</ele>
        <time>2019-06-22T18:52:02Z</time>
      </trkpt>
      <trkpt lat="40.114380" lon="-6.670427">
        <ele>310.723</ele>
        <time>2019-06-22T18:52:03Z</time>
      </trkpt>
      <trkpt lat="40.114148" lon="-6.670463">
        <ele>312.008</ele>
        <time>2019-06-22T18:52:04Z</time>
      </trkpt>
      <trkpt lat="40.113901" lon="-6.670504">
        <ele>313.412</ele>
        <time>2019-06-22T18:52:05Z</time>
      </trkpt>
      <trkpt lat="40.113646" lon="-6.670543">
        <ele>314.426</ele>
        <time>2019-06-22T18:52:06Z</time>
      </trkpt>
      <trkpt lat="40.113399" lon="-6.670578">
        <ele>314.528</ele>
        <time>2019-06-22T18:52:07Z</time>
      </trkpt>
      <trkpt lat="40.113151" lon="-6.670618">
        <ele>314.670</ele>
        <time>2019-06-22T18:52:08Z</time>
      </trkpt>
      <trkpt lat="40.112907" lon="-6.670666">
        <ele>314.978</ele>
        <time>2019-06-22T18:52:09Z</time>
      </trkpt>
      <trkpt lat="40.112663" lon="-6.670714">
        <ele>314.927</ele>
        <time>2019-06-22T18:52:10Z</time>
      </trkpt>
      <trkpt lat="40.112427" lon="-6.670755">
        <ele>315.052</ele>
        <time>2019-06-22T18:52:11Z</time>
      </trkpt>
      <trkpt lat="40.112195" lon="-6.670809">
        <ele>315.045</ele>
        <time>2019-06-22T18:52:12Z</time>
      </trkpt>
      <trkpt lat="40.111966" lon="-6.670849">
        <ele>313.715</ele>
        <time>2019-06-22T18:52:13Z</time>
      </trkpt>
      <trkpt lat="40.111743" lon="-6.670904">
        <ele>313.765</ele>
        <time>2019-06-22T18:52:14Z</time>
      </trkpt>
      <trkpt lat="40.111512" lon="-6.670958">
        <ele>312.711</ele>
        <time>2019-06-22T18:52:15Z</time>
      </trkpt>
      <trkpt lat="40.111283" lon="-6.671031">
        <ele>312.708</ele>
        <time>2019-06-22T18:52:16Z</time>
      </trkpt>
      <trkpt lat="40.111051" lon="-6.671121">
        <ele>312.794</ele>
        <time>2019-06-22T18:52:17Z</time>
      </trkpt>
      <trkpt lat="40.110830" lon="-6.671226">
        <ele>312.838</ele>
        <time>2019-06-22T18:52:18Z</time>
      </trkpt>
      <trkpt lat="40.110616" lon="-6.671351">
        <ele>312.820</ele>
        <time>2019-06-22T18:52:19Z</time>
      </trkpt>
      <trkpt lat="40.110412" lon="-6.671517">
        <ele>312.922</ele>
        <time>2019-06-22T18:52:20Z</time>
      </trkpt>
      <trkpt lat="40.110214" lon="-6.671697">
        <ele>313.280</ele>
        <time>2019-06-22T18:52:21Z</time>
      </trkpt>
      <trkpt lat="40.110017" lon="-6.671889">
        <ele>314.049</ele>
        <time>2019-06-22T18:52:22Z</time>
      </trkpt>
      <trkpt lat="40.109829" lon="-6.672104">
        <ele>315.134</ele>
        <time>2019-06-22T18:52:23Z</time>
      </trkpt>
      <trkpt lat="40.109657" lon="-6.672312">
        <ele>316.637</ele>
        <time>2019-06-22T18:52:24Z</time>
      </trkpt>
      <trkpt lat="40.109475" lon="-6.672528">
        <ele>318.597</ele>
        <time>2019-06-22T18:52:25Z</time>
      </trkpt>
      <trkpt lat="40.109298" lon="-6.672735">
        <ele>320.323</ele>
        <time>2019-06-22T18:52:26Z</time>
      </trkpt>
      <trkpt lat="40.109122" lon="-6.672942">
        <ele>321.325</ele>
        <time>2019-06-22T18:52:27Z</time>
      </trkpt>
      <trkpt lat="40.108950" lon="-6.673145">
        <ele>321.908</ele>
        <time>2019-06-22T18:52:28Z</time>
      </trkpt>
      <trkpt lat="40.108761" lon="-6.673340">
        <ele>322.592</ele>
        <time>2019-06-22T18:52:29Z</time>
      </trkpt>
      <trkpt lat="40.108567" lon="-6.673524">
        <ele>322.526</ele>
        <time>2019-06-22T18:52:30Z</time>
      </trkpt>
      <trkpt lat="40.108363" lon="-6.673687">
        <ele>322.178</ele>
        <time>2019-06-22T18:52:31Z</time>
      </trkpt>
      <trkpt lat="40.108142" lon="-6.673836">
        <ele>321.880</ele>
        <time>2019-06-22T18:52:32Z</time>
      </trkpt>
      <trkpt lat="40.107913" lon="-6.673961">
        <ele>321.638</ele>
        <time>2019-06-22T18:52:33Z</time>
      </trkpt>
      <trkpt lat="40.107676" lon="-6.674074">
        <ele>321.257</ele>
        <time>2019-06-22T18:52:34Z</time>
      </trkpt>
      <trkpt lat="40.107431" lon="-6.674170">
        <ele>320.622</ele>
        <time>2019-06-22T18:52:35Z</time>
      </trkpt>
      <trkpt lat="40.107177" lon="-6.674263">
        <ele>320.465</ele>
        <time>2019-06-22T18:52:36Z</time>
      </trkpt>
      <trkpt lat="40.106924" lon="-6.674355">
        <ele>320.062</ele>
        <time>2019-06-22T18:52:37Z</time>
      </trkpt>
      <trkpt lat="40.106669" lon="-6.674458">
        <ele>318.683</ele>
        <time>2019-06-22T18:52:38Z</time>
      </trkpt>
      <trkpt lat="40.106424" lon="-6.674579">
        <ele>316.611</ele>
        <time>2019-06-22T18:52:39Z</time>
      </trkpt>
      <trkpt lat="40.106184" lon="-6.674716">
        <ele>314.308</ele>
        <time>2019-06-22T18:52:40Z</time>
      </trkpt>
      <trkpt lat="40.105941" lon="-6.674862">
        <ele>312.289</ele>
        <time>2019-06-22T18:52:41Z</time>
      </trkpt>
      <trkpt lat="40.105712" lon="-6.675033">
        <ele>310.053</ele>
        <time>2019-06-22T18:52:42Z</time>
      </trkpt>
      <trkpt lat="40.105502" lon="-6.675231">
        <ele>310.055</ele>
        <time>2019-06-22T18:52:43Z</time>
      </trkpt>
      <trkpt lat="40.105291" lon="-6.675416">
        <ele>311.127</ele>
        <time>2019-06-22T18:52:44Z</time>
      </trkpt>
      <trkpt lat="40.105076" lon="-6.675593">
        <ele>312.315</ele>
        <time>2019-06-22T18:52:45Z</time>
      </trkpt>
      <trkpt lat="40.104856" lon="-6.675766">
        <ele>312.454</ele>
        <time>2019-06-22T18:52:46Z</time>
      </trkpt>
      <trkpt lat="40.104641" lon="-6.675933">
        <ele>312.919</ele>
        <time>2019-06-22T18:52:47Z</time>
      </trkpt>
      <trkpt lat="40.104426" lon="-6.676086">
        <ele>312.912</ele>
        <time>2019-06-22T18:52:48Z</time>
      </trkpt>
      <trkpt lat="40.104201" lon="-6.676213">
        <ele>311.731</ele>
        <time>2019-06-22T18:52:49Z</time>
      </trkpt>
      <trkpt lat="40.103973" lon="-6.676322">
        <ele>311.761</ele>
        <time>2019-06-22T18:52:50Z</time>
      </trkpt>
      <trkpt lat="40.103729" lon="-6.676434">
        <ele>313.107</ele>
        <time>2019-06-22T18:52:51Z</time>
      </trkpt>
      <trkpt lat="40.103490" lon="-6.676522">
        <ele>313.808</ele>
        <time>2019-06-22T18:52:52Z</time>
      </trkpt>
      <trkpt lat="40.103269" lon="-6.676587">
        <ele>314.776</ele>
        <time>2019-06-22T18:52:53Z</time>
      </trkpt>
      <trkpt lat="40.103023" lon="-6.676658">
        <ele>315.910</ele>
        <time>2019-06-22T18:52:54Z</time>
      </trkpt>
      <trkpt lat="40.102765" lon="-6.676736">
        <ele>315.962</ele>
        <time>2019-06-22T18:52:55Z</time>
      </trkpt>
      <trkpt lat="40.102517" lon="-6.676814">
        <ele>314.694</ele>
        <time>2019-06-22T18:52:56Z</time>
      </trkpt>
      <trkpt lat="40.102273" lon="-6.676890">
        <ele>313.832</ele>
        <time>2019-06-22T18:52:57Z</time>
      </trkpt>
      <trkpt lat="40.102020" lon="-6.676970">
        <ele>312.111</ele>
        <time>2019-06-22T18:52:58Z</time>
      </trkpt>
      <trkpt lat="40.101780" lon="-6.677047">
        <ele>310.426</ele>
        <time>2019-06-22T18:52:59Z</time>
      </trkpt>
      <trkpt lat="40.101540" lon="-6.677122">
        <ele>309.019</ele>
        <time>2019-06-22T18:53:00Z</time>
      </trkpt>
      <trkpt lat="40.101303" lon="-6.677197">
        <ele>308.958</ele>
        <time>2019-06-22T18:53:01Z</time>
      </trkpt>
      <trkpt lat="40.101067" lon="-6.677273">
        <ele>308.952</ele>
        <time>2019-06-22T18:53:02Z</time>
      </trkpt>
      <trkpt lat="40.100839" lon="-6.677348">
        <ele>309.717</ele>
        <time>2019-06-22T18:53:03Z</time>
      </trkpt>
      <trkpt lat="40.100600" lon="-6.677416">
        <ele>311.808</ele>
        <time>2019-06-22T18:53:04Z</time>
      </trkpt>
      <trkpt lat="40.100364" lon="-6.677471">
        <ele>314.378</ele>
        <time>2019-06-22T18:53:05Z</time>
      </trkpt>
      <trkpt lat="40.100125" lon="-6.677509">
        <ele>315.912</ele>
        <time>2019-06-22T18:53:06Z</time>
      </trkpt>
      <trkpt lat="40.099879" lon="-6.677537">
        <ele>317.484</ele>
        <time>2019-06-22T18:53:07Z</time>
      </trkpt>
      <trkpt lat="40.099639" lon="-6.677543">
        <ele>317.976</ele>
        <time>2019-06-22T18:53:08Z</time>
      </trkpt>
      <trkpt lat="40.099395" lon="-6.677530">
        <ele>317.984</ele>
        <time>2019-06-22T18:53:09Z</time>
      </trkpt>
      <trkpt lat="40.099147" lon="-6.677501">
        <ele>317.963</ele>
        <time>2019-06-22T18:53:10Z</time>
      </trkpt>
      <trkpt lat="40.098905" lon="-6.677448">
        <ele>318.088</ele>
        <time>2019-06-22T18:53:11Z</time>
      </trkpt>
      <trkpt lat="40.098668" lon="-6.677379">
        <ele>318.731</ele>
        <time>2019-06-22T18:53:12Z</time>
      </trkpt>
      <trkpt lat="40.098436" lon="-6.677288">
        <ele>319.063</ele>
        <time>2019-06-22T18:53:13Z</time>
      </trkpt>
      <trkpt lat="40.098214" lon="-6.677177">
        <ele>320.144</ele>
        <time>2019-06-22T18:53:14Z</time>
      </trkpt>
      <trkpt lat="40.097989" lon="-6.677050">
        <ele>320.118</ele>
        <time>2019-06-22T18:53:15Z</time>
      </trkpt>
      <trkpt lat="40.097768" lon="-6.676912">
        <ele>320.108</ele>
        <time>2019-06-22T18:53:16Z</time>
      </trkpt>
      <trkpt lat="40.097555" lon="-6.676756">
        <ele>320.129</ele>
        <time>2019-06-22T18:53:17Z</time>
      </trkpt>
      <trkpt lat="40.097351" lon="-6.676594">
        <ele>319.343</ele>
        <time>2019-06-22T18:53:18Z</time>
      </trkpt>
      <trkpt lat="40.097159" lon="-6.676426">
        <ele>319.165</ele>
        <time>2019-06-22T18:53:19Z</time>
      </trkpt>
      <trkpt lat="40.096961" lon="-6.676259">
        <ele>317.667</ele>
        <time>2019-06-22T18:53:20Z</time>
      </trkpt>
      <trkpt lat="40.096758" lon="-6.676099">
        <ele>316.685</ele>
        <time>2019-06-22T18:53:21Z</time>
      </trkpt>
      <trkpt lat="40.096553" lon="-6.675936">
        <ele>315.434</ele>
        <time>2019-06-22T18:53:22Z</time>
      </trkpt>
      <trkpt lat="40.096342" lon="-6.675801">
        <ele>314.729</ele>
        <time>2019-06-22T18:53:23Z</time>
      </trkpt>
      <trkpt lat="40.096112" lon="-6.675672">
        <ele>313.242</ele>
        <time>2019-06-22T18:53:24Z</time>
      </trkpt>
      <trkpt lat="40.095868" lon="-6.675557">
        <ele>311.948</ele>
        <time>2019-06-22T18:53:25Z</time>
      </trkpt>
      <trkpt lat="40.095621" lon="-6.675451">
        <ele>310.861</ele>
        <time>2019-06-22T18:53:26Z</time>
      </trkpt>
      <trkpt lat="40.095362" lon="-6.675344">
        <ele>309.417</ele>
        <time>2019-06-22T18:53:27Z</time>
      </trkpt>
      <trkpt lat="40.095098" lon="-6.675249">
        <ele>308.308</ele>
        <time>2019-06-22T18:53:28Z</time>
      </trkpt>
      <trkpt lat="40.094827" lon="-6.675142">
        <ele>307.077</ele>
        <time>2019-06-22T18:53:29Z</time>
      </trkpt>
      <trkpt lat="40.094560" lon="-6.675040">
        <ele>306.031</ele>
        <time>2019-06-22T18:53:30Z</time>
      </trkpt>
      <trkpt lat="40.094305" lon="-6.674935">
        <ele>305.143</ele>
        <time>2019-06-22T18:53:31Z</time>
      </trkpt>
      <trkpt lat="40.094055" lon="-6.674835">
        <ele>303.595</ele>
        <time>2019-06-22T18:53:32Z</time>
      </trkpt>
      <trkpt lat="40.093807" lon="-6.674744">
        <ele>303.063</ele>
        <time>2019-06-22T18:53:33Z</time>
      </trkpt>
      <trkpt lat="40.093568" lon="-6.674654">
        <ele>302.912</ele>
        <time>2019-06-22T18:53:34Z</time>
      </trkpt>
      <trkpt lat="40.093351" lon="-6.674566">
        <ele>303.017</ele>
        <time>2019-06-22T18:53:35Z</time>
      </trkpt>
      <trkpt lat="40.093134" lon="-6.674481">
        <ele>303.170</ele>
        <time>2019-06-22T18:53:36Z</time>
      </trkpt>
      <trkpt lat="40.092924" lon="-6.674401">
        <ele>303.969</ele>
        <time>2019-06-22T18:53:37Z</time>
      </trkpt>
      <trkpt lat="40.092728" lon="-6.674319">
        <ele>303.904</ele>
        <time>2019-06-22T18:53:38Z</time>
      </trkpt>
      <trkpt lat="40.092539" lon="-6.674250">
        <ele>303.724</ele>
        <time>2019-06-22T18:53:39Z</time>
      </trkpt>
      <trkpt lat="40.092347" lon="-6.674179">
        <ele>303.208</ele>
        <time>2019-06-22T18:53:40Z</time>
      </trkpt>
      <trkpt lat="40.092159" lon="-6.674108">
        <ele>302.839</ele>
        <time>2019-06-22T18:53:41Z</time>
      </trkpt>
      <trkpt lat="40.091972" lon="-6.674033">
        <ele>302.043</ele>
        <time>2019-06-22T18:53:42Z</time>
      </trkpt>
      <trkpt lat="40.091783" lon="-6.673956">
        <ele>300.735</ele>
        <time>2019-06-22T18:53:43Z</time>
      </trkpt>
      <trkpt lat="40.091578" lon="-6.673888">
        <ele>300.027</ele>
        <time>2019-06-22T18:53:44Z</time>
      </trkpt>
      <trkpt lat="40.091380" lon="-6.673818">
        <ele>299.245</ele>
        <time>2019-06-22T18:53:45Z</time>
      </trkpt>
      <trkpt lat="40.091168" lon="-6.673737">
        <ele>297.194</ele>
        <time>2019-06-22T18:53:46Z</time>
      </trkpt>
      <trkpt lat="40.090963" lon="-6.673652">
        <ele>296.069</ele>
        <time>2019-06-22T18:53:47Z</time>
      </trkpt>
      <trkpt lat="40.090764" lon="-6.673561">
        <ele>294.962</ele>
        <time>2019-06-22T18:53:48Z</time>
      </trkpt>
      <trkpt lat="40.090540" lon="-6.673469">
        <ele>294.786</ele>
        <time>2019-06-22T18:53:49Z</time>
      </trkpt>
      <trkpt lat="40.090313" lon="-6.673377">
        <ele>293.260</ele>
        <time>2019-06-22T18:53:50Z</time>
      </trkpt>
      <trkpt lat="40.090084" lon="-6.673281">
        <ele>293.026</ele>
        <time>2019-06-22T18:53:51Z</time>
      </trkpt>
      <trkpt lat="40.089849" lon="-6.673186">
        <ele>292.708</ele>
        <time>2019-06-22T18:53:52Z</time>
      </trkpt>
      <trkpt lat="40.089613" lon="-6.673096">
        <ele>291.471</ele>
        <time>2019-06-22T18:53:53Z</time>
      </trkpt>
      <trkpt lat="40.089366" lon="-6.673006">
        <ele>290.825</ele>
        <time>2019-06-22T18:53:54Z</time>
      </trkpt>
      <trkpt lat="40.089126" lon="-6.672907">
        <ele>289.727</ele>
        <time>2019-06-22T18:53:55Z</time>
      </trkpt>
      <trkpt lat="40.088883" lon="-6.672812">
        <ele>289.289</ele>
        <time>2019-06-22T18:53:56Z</time>
      </trkpt>
      <trkpt lat="40.088647" lon="-6.672717">
        <ele>287.677</ele>
        <time>2019-06-22T18:53:57Z</time>
      </trkpt>
      <trkpt lat="40.088403" lon="-6.672624">
        <ele>286.816</ele>
        <time>2019-06-22T18:53:58Z</time>
      </trkpt>
      <trkpt lat="40.088166" lon="-6.672533">
        <ele>285.251</ele>
        <time>2019-06-22T18:53:59Z</time>
      </trkpt>
      <trkpt lat="40.087931" lon="-6.672436">
        <ele>284.044</ele>
        <time>2019-06-22T18:54:00Z</time>
      </trkpt>
      <trkpt lat="40.087697" lon="-6.672345">
        <ele>282.871</ele>
        <time>2019-06-22T18:54:01Z</time>
      </trkpt>
      <trkpt lat="40.087472" lon="-6.672255">
        <ele>282.241</ele>
        <time>2019-06-22T18:54:02Z</time>
      </trkpt>
      <trkpt lat="40.087257" lon="-6.672165">
        <ele>281.615</ele>
        <time>2019-06-22T18:54:03Z</time>
      </trkpt>
      <trkpt lat="40.087044" lon="-6.672080">
        <ele>280.808</ele>
        <time>2019-06-22T18:54:04Z</time>
      </trkpt>
      <trkpt lat="40.086844" lon="-6.671999">
        <ele>280.830</ele>
        <time>2019-06-22T18:54:05Z</time>
      </trkpt>
      <trkpt lat="40.086653" lon="-6.671927">
        <ele>281.034</ele>
        <time>2019-06-22T18:54:06Z</time>
      </trkpt>
      <trkpt lat="40.086464" lon="-6.671854">
        <ele>282.116</ele>
        <time>2019-06-22T18:54:07Z</time>
      </trkpt>
      <trkpt lat="40.086289" lon="-6.671786">
        <ele>283.088</ele>
        <time>2019-06-22T18:54:08Z</time>
      </trkpt>
      <trkpt lat="40.086118" lon="-6.671724">
        <ele>283.776</ele>
        <time>2019-06-22T18:54:09Z</time>
      </trkpt>
      <trkpt lat="40.085950" lon="-6.671659">
        <ele>284.215</ele>
        <time>2019-06-22T18:54:10Z</time>
      </trkpt>
      <trkpt lat="40.085782" lon="-6.671593">
        <ele>284.890</ele>
        <time>2019-06-22T18:54:11Z</time>
      </trkpt>
      <trkpt lat="40.085598" lon="-6.671522">
        <ele>285.053</ele>
        <time>2019-06-22T18:54:12Z</time>
      </trkpt>
      <trkpt lat="40.085422" lon="-6.671457">
        <ele>285.248</ele>
        <time>2019-06-22T18:54:13Z</time>
      </trkpt>
      <trkpt lat="40.085254" lon="-6.671393">
        <ele>285.561</ele>
        <time>2019-06-22T18:54:14Z</time>
      </trkpt>
      <trkpt lat="40.085086" lon="-6.671328">
        <ele>285.517</ele>
        <time>2019-06-22T18:54:15Z</time>
      </trkpt>
      <trkpt lat="40.084934" lon="-6.671264">
        <ele>284.708</ele>
        <time>2019-06-22T18:54:16Z</time>
      </trkpt>
      <trkpt lat="40.084791" lon="-6.671203">
        <ele>284.337</ele>
        <time>2019-06-22T18:54:17Z</time>
      </trkpt>
      <trkpt lat="40.084658" lon="-6.671148">
        <ele>284.361</ele>
        <time>2019-06-22T18:54:18Z</time>
      </trkpt>
      <trkpt lat="40.084532" lon="-6.671097">
        <ele>284.563</ele>
        <time>2019-06-22T18:54:19Z</time>
      </trkpt>
      <trkpt lat="40.084417" lon="-6.671060">
        <ele>284.525</ele>
        <time>2019-06-22T18:54:20Z</time>
      </trkpt>
      <trkpt lat="40.084317" lon="-6.671026">
        <ele>285.483</ele>
        <time>2019-06-22T18:54:21Z</time>
      </trkpt>
      <trkpt lat="40.084216" lon="-6.671015">
        <ele>286.312</ele>
        <time>2019-06-22T18:54:22Z</time>
      </trkpt>
      <trkpt lat="40.084120" lon="-6.671034">
        <ele>287.167</ele>
        <time>2019-06-22T18:54:23Z</time>
      </trkpt>
      <trkpt lat="40.084022" lon="-6.671058">
        <ele>287.560</ele>
        <time>2019-06-22T18:54:24Z</time>
      </trkpt>
      <trkpt lat="40.083929" lon="-6.671057">
        <ele>287.936</ele>
        <time>2019-06-22T18:54:25Z</time>
      </trkpt>
      <trkpt lat="40.083845" lon="-6.671028">
        <ele>288.217</ele>
        <time>2019-06-22T18:54:26Z</time>
      </trkpt>
      <trkpt lat="40.083761" lon="-6.670957">
        <ele>288.718</ele>
        <time>2019-06-22T18:54:27Z</time>
      </trkpt>
      <trkpt lat="40.083680" lon="-6.670865">
        <ele>289.108</ele>
        <time>2019-06-22T18:54:28Z</time>
      </trkpt>
      <trkpt lat="40.083588" lon="-6.670772">
        <ele>289.226</ele>
        <time>2019-06-22T18:54:29Z</time>
      </trkpt>
      <trkpt lat="40.083476" lon="-6.670694">
        <ele>289.260</ele>
        <time>2019-06-22T18:54:30Z</time>
      </trkpt>
      <trkpt lat="40.083342" lon="-6.670627">
        <ele>288.322</ele>
        <time>2019-06-22T18:54:31Z</time>
      </trkpt>
      <trkpt lat="40.083196" lon="-6.670568">
        <ele>287.664</ele>
        <time>2019-06-22T18:54:32Z</time>
      </trkpt>
      <trkpt lat="40.083042" lon="-6.670508">
        <ele>287.312</ele>
        <time>2019-06-22T18:54:33Z</time>
      </trkpt>
      <trkpt lat="40.082882" lon="-6.670454">
        <ele>287.021</ele>
        <time>2019-06-22T18:54:34Z</time>
      </trkpt>
      <trkpt lat="40.082711" lon="-6.670385">
        <ele>287.026</ele>
        <time>2019-06-22T18:54:35Z</time>
      </trkpt>
      <trkpt lat="40.082532" lon="-6.670309">
        <ele>287.079</ele>
        <time>2019-06-22T18:54:36Z</time>
      </trkpt>
      <trkpt lat="40.082347" lon="-6.670246">
        <ele>287.051</ele>
        <time>2019-06-22T18:54:37Z</time>
      </trkpt>
      <trkpt lat="40.082162" lon="-6.670168">
        <ele>286.601</ele>
        <time>2019-06-22T18:54:38Z</time>
      </trkpt>
      <trkpt lat="40.081971" lon="-6.670097">
        <ele>285.611</ele>
        <time>2019-06-22T18:54:39Z</time>
      </trkpt>
      <trkpt lat="40.081775" lon="-6.670023">
        <ele>284.908</ele>
        <time>2019-06-22T18:54:40Z</time>
      </trkpt>
      <trkpt lat="40.081576" lon="-6.669949">
        <ele>284.278</ele>
        <time>2019-06-22T18:54:41Z</time>
      </trkpt>
      <trkpt lat="40.081372" lon="-6.669877">
        <ele>284.182</ele>
        <time>2019-06-22T18:54:42Z</time>
      </trkpt>
      <trkpt lat="40.081169" lon="-6.669791">
        <ele>284.154</ele>
        <time>2019-06-22T18:54:43Z</time>
      </trkpt>
      <trkpt lat="40.080969" lon="-6.669713">
        <ele>284.316</ele>
        <time>2019-06-22T18:54:44Z</time>
      </trkpt>
      <trkpt lat="40.080770" lon="-6.669636">
        <ele>284.314</ele>
        <time>2019-06-22T18:54:45Z</time>
      </trkpt>
      <trkpt lat="40.080582" lon="-6.669557">
        <ele>283.913</ele>
        <time>2019-06-22T18:54:46Z</time>
      </trkpt>
      <trkpt lat="40.080393" lon="-6.669485">
        <ele>283.788</ele>
        <time>2019-06-22T18:54:47Z</time>
      </trkpt>
      <trkpt lat="40.080218" lon="-6.669411">
        <ele>283.251</ele>
        <time>2019-06-22T18:54:48Z</time>
      </trkpt>
      <trkpt lat="40.080047" lon="-6.669339">
        <ele>282.885</ele>
        <time>2019-06-22T18:54:49Z</time>
      </trkpt>
      <trkpt lat="40.079871" lon="-6.669275">
        <ele>282.889</ele>
        <time>2019-06-22T18:54:50Z</time>
      </trkpt>
      <trkpt lat="40.079692" lon="-6.669207">
        <ele>283.517</ele>
        <time>2019-06-22T18:54:51Z</time>
      </trkpt>
      <trkpt lat="40.079522" lon="-6.669138">
        <ele>284.108</ele>
        <time>2019-06-22T18:54:52Z</time>
      </trkpt>
      <trkpt lat="40.079355" lon="-6.669075">
        <ele>284.881</ele>
        <time>2019-06-22T18:54:53Z</time>
      </trkpt>
      <trkpt lat="40.079195" lon="-6.669011">
        <ele>285.645</ele>
        <time>2019-06-22T18:54:54Z</time>
      </trkpt>
      <trkpt lat="40.079034" lon="-6.668954">
        <ele>285.947</ele>
        <time>2019-06-22T18:54:55Z</time>
      </trkpt>
      <trkpt lat="40.078881" lon="-6.668896">
        <ele>286.589</ele>
        <time>2019-06-22T18:54:56Z</time>
      </trkpt>
      <trkpt lat="40.078739" lon="-6.668842">
        <ele>287.097</ele>
        <time>2019-06-22T18:54:57Z</time>
      </trkpt>
      <trkpt lat="40.078596" lon="-6.668779">
        <ele>287.516</ele>
        <time>2019-06-22T18:54:58Z</time>
      </trkpt>
      <trkpt lat="40.078459" lon="-6.668720">
        <ele>288.041</ele>
        <time>2019-06-22T18:54:59Z</time>
      </trkpt>
      <trkpt lat="40.078331" lon="-6.668666">
        <ele>288.064</ele>
        <time>2019-06-22T18:55:00Z</time>
      </trkpt>
      <trkpt lat="40.078206" lon="-6.668613">
        <ele>287.976</ele>
        <time>2019-06-22T18:55:01Z</time>
      </trkpt>
      <trkpt lat="40.078096" lon="-6.668580">
        <ele>287.190</ele>
        <time>2019-06-22T18:55:02Z</time>
      </trkpt>
      <trkpt lat="40.077987" lon="-6.668561">
        <ele>286.319</ele>
        <time>2019-06-22T18:55:03Z</time>
      </trkpt>
      <trkpt lat="40.077896" lon="-6.668567">
        <ele>285.708</ele>
        <time>2019-06-22T18:55:04Z</time>
      </trkpt>
      <trkpt lat="40.077807" lon="-6.668580">
        <ele>285.750</ele>
        <time>2019-06-22T18:55:05Z</time>
      </trkpt>
      <trkpt lat="40.077729" lon="-6.668583">
        <ele>285.824</ele>
        <time>2019-06-22T18:55:06Z</time>
      </trkpt>
      <trkpt lat="40.077651" lon="-6.668567">
        <ele>286.796</ele>
        <time>2019-06-22T18:55:07Z</time>
      </trkpt>
      <trkpt lat="40.077574" lon="-6.668518">
        <ele>287.558</ele>
        <time>2019-06-22T18:55:08Z</time>
      </trkpt>
      <trkpt lat="40.077485" lon="-6.668427">
        <ele>287.946</ele>
        <time>2019-06-22T18:55:09Z</time>
      </trkpt>
      <trkpt lat="40.077385" lon="-6.668329">
        <ele>287.935</ele>
        <time>2019-06-22T18:55:10Z</time>
      </trkpt>
      <trkpt lat="40.077265" lon="-6.668240">
        <ele>287.750</ele>
        <time>2019-06-22T18:55:11Z</time>
      </trkpt>
      <trkpt lat="40.077132" lon="-6.668156">
        <ele>287.253</ele>
        <time>2019-06-22T18:55:12Z</time>
      </trkpt>
      <trkpt lat="40.076994" lon="-6.668054">
        <ele>286.814</ele>
        <time>2019-06-22T18:55:13Z</time>
      </trkpt>
      <trkpt lat="40.076859" lon="-6.667926">
        <ele>286.554</ele>
        <time>2019-06-22T18:55:14Z</time>
      </trkpt>
      <trkpt lat="40.076731" lon="-6.667771">
        <ele>286.109</ele>
        <time>2019-06-22T18:55:15Z</time>
      </trkpt>
      <trkpt lat="40.076606" lon="-6.667586">
        <ele>285.308</ele>
        <time>2019-06-22T18:55:16Z</time>
      </trkpt>
      <trkpt lat="40.076489" lon="-6.667382">
        <ele>285.354</ele>
        <time>2019-06-22T18:55:17Z</time>
      </trkpt>
      <trkpt lat="40.076380" lon="-6.667168">
        <ele>285.388</ele>
        <time>2019-06-22T18:55:18Z</time>
      </trkpt>
      <trkpt lat="40.076275" lon="-6.666946">
        <ele>285.340</ele>
        <time>2019-06-22T18:55:19Z</time>
      </trkpt>
      <trkpt lat="40.076168" lon="-6.666722">
        <ele>285.352</ele>
        <time>2019-06-22T18:55:20Z</time>
      </trkpt>
      <trkpt lat="40.076052" lon="-6.666478">
        <ele>285.270</ele>
        <time>2019-06-22T18:55:21Z</time>
      </trkpt>
      <trkpt lat="40.075935" lon="-6.666262">
        <ele>284.589</ele>
        <time>2019-06-22T18:55:22Z</time>
      </trkpt>
      <trkpt lat="40.075823" lon="-6.666047">
        <ele>284.224</ele>
        <time>2019-06-22T18:55:23Z</time>
      </trkpt>
      <trkpt lat="40.075715" lon="-6.665818">
        <ele>284.227</ele>
        <time>2019-06-22T18:55:24Z</time>
      </trkpt>
      <trkpt lat="40.075606" lon="-6.665592">
        <ele>283.483</ele>
        <time>2019-06-22T18:55:25Z</time>
      </trkpt>
      <trkpt lat="40.075497" lon="-6.665374">
        <ele>282.725</ele>
        <time>2019-06-22T18:55:26Z</time>
      </trkpt>
      <trkpt lat="40.075391" lon="-6.665158">
        <ele>282.717</ele>
        <time>2019-06-22T18:55:27Z</time>
      </trkpt>
      <trkpt lat="40.075280" lon="-6.664940">
        <ele>283.208</ele>
        <time>2019-06-22T18:55:28Z</time>
      </trkpt>
      <trkpt lat="40.075175" lon="-6.664727">
        <ele>283.411</ele>
        <time>2019-06-22T18:55:29Z</time>
      </trkpt>
      <trkpt lat="40.075072" lon="-6.664514">
        <ele>283.395</ele>
        <time>2019-06-22T18:55:30Z</time>
      </trkpt>
      <trkpt lat="40.074974" lon="-6.664309">
        <ele>283.397</ele>
        <time>2019-06-22T18:55:31Z</time>
      </trkpt>
      <trkpt lat="40.074877" lon="-6.664118">
        <ele>282.789</ele>
        <time>2019-06-22T18:55:32Z</time>
      </trkpt>
      <trkpt lat="40.074789" lon="-6.663932">
        <ele>281.617</ele>
        <time>2019-06-22T18:55:33Z</time>
      </trkpt>
      <trkpt lat="40.074699" lon="-6.663743">
        <ele>281.386</ele>
        <time>2019-06-22T18:55:34Z</time>
      </trkpt>
      <trkpt lat="40.074614" lon="-6.663564">
        <ele>280.911</ele>
        <time>2019-06-22T18:55:35Z</time>
      </trkpt>
      <trkpt lat="40.074527" lon="-6.663385">
        <ele>280.424</ele>
        <time>2019-06-22T18:55:36Z</time>
      </trkpt>
      <trkpt lat="40.074434" lon="-6.663212">
        <ele>280.429</ele>
        <time>2019-06-22T18:55:37Z</time>
      </trkpt>
      <trkpt lat="40.074338" lon="-6.663025">
        <ele>280.700</ele>
        <time>2019-06-22T18:55:38Z</time>
      </trkpt>
      <trkpt lat="40.074237" lon="-6.662830">
        <ele>281.020</ele>
        <time>2019-06-22T18:55:39Z</time>
      </trkpt>
      <trkpt lat="40.074139" lon="-6.662632">
        <ele>281.108</ele>
        <time>2019-06-22T18:55:40Z</time>
      </trkpt>
      <trkpt lat="40.074033" lon="-6.662433">
        <ele>281.455</ele>
        <time>2019-06-22T18:55:41Z</time>
      </trkpt>
      <trkpt lat="40.073934" lon="-6.662230">
        <ele>282.429</ele>
        <time>2019-06-22T18:55:42Z</time>
      </trkpt>
      <trkpt lat="40.073839" lon="-6.662035">
        <ele>283.221</ele>
        <time>2019-06-22T18:55:43Z</time>
      </trkpt>
      <trkpt lat="40.073744" lon="-6.661842">
        <ele>283.753</ele>
        <time>2019-06-22T18:55:44Z</time>
      </trkpt>
      <trkpt lat="40.073652" lon="-6.661658">
        <ele>284.121</ele>
        <time>2019-06-22T18:55:45Z</time>
      </trkpt>
      <trkpt lat="40.073560" lon="-6.661477">
        <ele>284.690</ele>
        <time>2019-06-22T18:55:46Z</time>
      </trkpt>
      <trkpt lat="40.073476" lon="-6.661306">
        <ele>284.685</ele>
        <time>2019-06-22T18:55:47Z</time>
      </trkpt>
      <trkpt lat="40.073399" lon="-6.661139">
        <ele>284.628</ele>
        <time>2019-06-22T18:55:48Z</time>
      </trkpt>
      <trkpt lat="40.073313" lon="-6.660980">
        <ele>284.548</ele>
        <time>2019-06-22T18:55:49Z</time>
      </trkpt>
      <trkpt lat="40.073223" lon="-6.660806">
        <ele>284.461</ele>
        <time>2019-06-22T18:55:50Z</time>
      </trkpt>
      <trkpt lat="40.073144" lon="-6.660637">
        <ele>284.217</ele>
        <time>2019-06-22T18:55:51Z</time>
      </trkpt>
      <trkpt lat="40.073054" lon="-6.660474">
        <ele>283.308</ele>
        <time>2019-06-22T18:55:52Z</time>
      </trkpt>
      <trkpt lat="40.072968" lon="-6.660304">
        <ele>282.857</ele>
        <time>2019-06-22T18:55:53Z</time>
      </trkpt>
      <trkpt lat="40.072888" lon="-6.660140">
        <ele>282.251</ele>
        <time>2019-06-22T18:55:54Z</time>
      </trkpt>
      <trkpt lat="40.072803" lon="-6.659979">
        <ele>281.873</ele>
        <time>2019-06-22T18:55:55Z</time>
      </trkpt>
      <trkpt lat="40.072710" lon="-6.659826">
        <ele>281.115</ele>
        <time>2019-06-22T18:55:56Z</time>
      </trkpt>
      <trkpt lat="40.072600" lon="-6.659681">
        <ele>281.153</ele>
        <time>2019-06-22T18:55:57Z</time>
      </trkpt>
      <trkpt lat="40.072478" lon="-6.659548">
        <ele>281.592</ele>
        <time>2019-06-22T18:55:58Z</time>
      </trkpt>
      <trkpt lat="40.072349" lon="-6.659427">
        <ele>282.197</ele>
        <time>2019-06-22T18:55:59Z</time>
      </trkpt>
      <trkpt lat="40.072209" lon="-6.659304">
        <ele>282.910</ele>
        <time>2019-06-22T18:56:00Z</time>
      </trkpt>
      <trkpt lat="40.072074" lon="-6.659192">
        <ele>283.873</ele>
        <time>2019-06-22T18:56:01Z</time>
      </trkpt>
      <trkpt lat="40.071945" lon="-6.659076">
        <ele>284.285</ele>
        <time>2019-06-22T18:56:02Z</time>
      </trkpt>
      <trkpt lat="40.071818" lon="-6.658962">
        <ele>284.213</ele>
        <time>2019-06-22T18:56:03Z</time>
      </trkpt>
      <trkpt lat="40.071695" lon="-6.658853">
        <ele>283.808</ele>
        <time>2019-06-22T18:56:04Z</time>
      </trkpt>
      <trkpt lat="40.071584" lon="-6.658749">
        <ele>283.590</ele>
        <time>2019-06-22T18:56:05Z</time>
      </trkpt>
      <trkpt lat="40.071474" lon="-6.658651">
        <ele>283.524</ele>
        <time>2019-06-22T18:56:06Z</time>
      </trkpt>
      <trkpt lat="40.071367" lon="-6.658557">
        <ele>283.576</ele>
        <time>2019-06-22T18:56:07Z</time>
      </trkpt>
      <trkpt lat="40.071268" lon="-6.658460">
        <ele>283.778</ele>
        <time>2019-06-22T18:56:08Z</time>
      </trkpt>
      <trkpt lat="40.071173" lon="-6.658375">
        <ele>283.946</ele>
        <time>2019-06-22T18:56:09Z</time>
      </trkpt>
      <trkpt lat="40.071078" lon="-6.658292">
        <ele>284.275</ele>
        <time>2019-06-22T18:56:10Z</time>
      </trkpt>
      <trkpt lat="40.070976" lon="-6.658197">
        <ele>284.230</ele>
        <time>2019-06-22T18:56:11Z</time>
      </trkpt>
      <trkpt lat="40.070866" lon="-6.658095">
        <ele>284.543</ele>
        <time>2019-06-22T18:56:12Z</time>
      </trkpt>
      <trkpt lat="40.070754" lon="-6.657996">
        <ele>284.584</ele>
        <time>2019-06-22T18:56:13Z</time>
      </trkpt>
      <trkpt lat="40.070642" lon="-6.657900">
        <ele>284.407</ele>
        <time>2019-06-22T18:56:14Z</time>
      </trkpt>
      <trkpt lat="40.070531" lon="-6.657798">
        <ele>284.317</ele>
        <time>2019-06-22T18:56:15Z</time>
      </trkpt>
      <trkpt lat="40.070421" lon="-6.657706">
        <ele>284.308</ele>
        <time>2019-06-22T18:56:16Z</time>
      </trkpt>
      <trkpt lat="40.070318" lon="-6.657612">
        <ele>284.251</ele>
        <time>2019-06-22T18:56:17Z</time>
      </trkpt>
      <trkpt lat="40.070211" lon="-6.657526">
        <ele>284.125</ele>
        <time>2019-06-22T18:56:18Z</time>
      </trkpt>
      <trkpt lat="40.070105" lon="-6.657440">
        <ele>283.737</ele>
        <time>2019-06-22T18:56:19Z</time>
      </trkpt>
      <trkpt lat="40.070015" lon="-6.657360">
        <ele>283.459</ele>
        <time>2019-06-22T18:56:20Z</time>
      </trkpt>
      <trkpt lat="40.069924" lon="-6.657280">
        <ele>283.277</ele>
        <time>2019-06-22T18:56:21Z</time>
      </trkpt>
      <trkpt lat="40.069837" lon="-6.657194">
        <ele>282.876</ele>
        <time>2019-06-22T18:56:22Z</time>
      </trkpt>
      <trkpt lat="40.069733" lon="-6.657109">
        <ele>282.881</ele>
        <time>2019-06-22T18:56:23Z</time>
      </trkpt>
      <trkpt lat="40.069621" lon="-6.657012">
        <ele>283.234</ele>
        <time>2019-06-22T18:56:24Z</time>
      </trkpt>
      <trkpt lat="40.069511" lon="-6.656920">
        <ele>283.374</ele>
        <time>2019-06-22T18:56:25Z</time>
      </trkpt>
      <trkpt lat="40.069398" lon="-6.656809">
        <ele>283.556</ele>
        <time>2019-06-22T18:56:26Z</time>
      </trkpt>
      <trkpt lat="40.069282" lon="-6.656700">
        <ele>284.021</ele>
        <time>2019-06-22T18:56:27Z</time>
      </trkpt>
      <trkpt lat="40.069165" lon="-6.656591">
        <ele>284.008</ele>
        <time>2019-06-22T18:56:28Z</time>
      </trkpt>
      <trkpt lat="40.069055" lon="-6.656492">
        <ele>284.090</ele>
        <time>2019-06-22T18:56:29Z</time>
      </trkpt>
      <trkpt lat="40.068949" lon="-6.656401">
        <ele>283.594</ele>
        <time>2019-06-22T18:56:30Z</time>
      </trkpt>
      <trkpt lat="40.068849" lon="-6.656310">
        <ele>283.536</ele>
        <time>2019-06-22T18:56:31Z</time>
      </trkpt>
      <trkpt lat="40.068756" lon="-6.656230">
        <ele>283.728</ele>
        <time>2019-06-22T18:56:32Z</time>
      </trkpt>
      <trkpt lat="40.068667" lon="-6.656150">
        <ele>283.716</ele>
        <time>2019-06-22T18:56:33Z</time>
      </trkpt>
      <trkpt lat="40.068588" lon="-6.656073">
        <ele>283.715</ele>
        <time>2019-06-22T18:56:34Z</time>
      </trkpt>
      <trkpt lat="40.068515" lon="-6.656001">
        <ele>284.040</ele>
        <time>2019-06-22T18:56:35Z</time>
      </trkpt>
      <trkpt lat="40.068452" lon="-6.655944">
        <ele>284.363</ele>
        <time>2019-06-22T18:56:36Z</time>
      </trkpt>
      <trkpt lat="40.068395" lon="-6.655889">
        <ele>284.499</ele>
        <time>2019-06-22T18:56:37Z</time>
      </trkpt>
      <trkpt lat="40.068334" lon="-6.655839">
        <ele>284.407</ele>
        <time>2019-06-22T18:56:38Z</time>
      </trkpt>
      <trkpt lat="40.068271" lon="-6.655787">
        <ele>284.727</ele>
        <time>2019-06-22T18:56:39Z</time>
      </trkpt>
      <trkpt lat="40.068206" lon="-6.655727">
        <ele>284.808</ele>
        <time>2019-06-22T18:56:40Z</time>
      </trkpt>
      <trkpt lat="40.068130" lon="-6.655688">
        <ele>284.862</ele>
        <time>2019-06-22T18:56:41Z</time>
      </trkpt>
      <trkpt lat="40.068065" lon="-6.655622">
        <ele>284.986</ele>
        <time>2019-06-22T18:56:42Z</time>
      </trkpt>
      <trkpt lat="40.068003" lon="-6.655568">
        <ele>284.948</ele>
        <time>2019-06-22T18:56:43Z</time>
      </trkpt>
      <trkpt lat="40.067938" lon="-6.655506">
        <ele>284.920</ele>
        <time>2019-06-22T18:56:44Z</time>
      </trkpt>
      <trkpt lat="40.067873" lon="-6.655435">
        <ele>284.978</ele>
        <time>2019-06-22T18:56:45Z</time>
      </trkpt>
      <trkpt lat="40.067809" lon="-6.655361">
        <ele>284.867</ele>
        <time>2019-06-22T18:56:46Z</time>
      </trkpt>
      <trkpt lat="40.067746" lon="-6.655294">
        <ele>284.812</ele>
        <time>2019-06-22T18:56:47Z</time>
      </trkpt>
      <trkpt lat="40.067683" lon="-6.655235">
        <ele>284.865</ele>
        <time>2019-06-22T18:56:48Z</time>
      </trkpt>
      <trkpt lat="40.067620" lon="-6.655187">
        <ele>284.836</ele>
        <time>2019-06-22T18:56:49Z</time>
      </trkpt>
      <trkpt lat="40.067564" lon="-6.655139">
        <ele>284.917</ele>
        <time>2019-06-22T18:56:50Z</time>
      </trkpt>
      <trkpt lat="40.067518" lon="-6.655088">
        <ele>285.018</ele>
        <time>2019-06-22T18:56:51Z</time>
      </trkpt>
      <trkpt lat="40.067481" lon="-6.655045">
        <ele>285.008</ele>
        <time>2019-06-22T18:56:52Z</time>
      </trkpt>
      <trkpt lat="40.067417" lon="-6.654978">
        <ele>285.196</ele>
        <time>2019-06-22T18:56:54Z</time>
      </trkpt>
      <trkpt lat="40.067373" lon="-6.654937">
        <ele>285.150</ele>
        <time>2019-06-22T18:56:55Z</time>
      </trkpt>
      <trkpt lat="40.067327" lon="-6.654889">
        <ele>285.052</ele>
        <time>2019-06-22T18:56:56Z</time>
      </trkpt>
      <trkpt lat="40.067258" lon="-6.654825">
        <ele>285.024</ele>
        <time>2019-06-22T18:56:57Z</time>
      </trkpt>
      <trkpt lat="40.067176" lon="-6.654753">
        <ele>285.052</ele>
        <time>2019-06-22T18:56:58Z</time>
      </trkpt>
      <trkpt lat="40.067090" lon="-6.654675">
        <ele>284.921</ele>
        <time>2019-06-22T18:56:59Z</time>
      </trkpt>
      <trkpt lat="40.066989" lon="-6.654592">
        <ele>284.986</ele>
        <time>2019-06-22T18:57:00Z</time>
      </trkpt>
      <trkpt lat="40.066896" lon="-6.654497">
        <ele>285.059</ele>
        <time>2019-06-22T18:57:01Z</time>
      </trkpt>
      <trkpt lat="40.066802" lon="-6.654421">
        <ele>285.257</ele>
        <time>2019-06-22T18:57:02Z</time>
      </trkpt>
      <trkpt lat="40.066716" lon="-6.654344">
        <ele>285.500</ele>
        <time>2019-06-22T18:57:03Z</time>
      </trkpt>
      <trkpt lat="40.066628" lon="-6.654267">
        <ele>285.620</ele>
        <time>2019-06-22T18:57:04Z</time>
      </trkpt>
      <trkpt lat="40.066546" lon="-6.654200">
        <ele>285.608</ele>
        <time>2019-06-22T18:57:05Z</time>
      </trkpt>
      <trkpt lat="40.066471" lon="-6.654130">
        <ele>285.518</ele>
        <time>2019-06-22T18:57:06Z</time>
      </trkpt>
      <trkpt lat="40.066400" lon="-6.654068">
        <ele>285.132</ele>
        <time>2019-06-22T18:57:07Z</time>
      </trkpt>
      <trkpt lat="40.066323" lon="-6.653994">
        <ele>285.014</ele>
        <time>2019-06-22T18:57:08Z</time>
      </trkpt>
      <trkpt lat="40.066240" lon="-6.653924">
        <ele>285.016</ele>
        <time>2019-06-22T18:57:09Z</time>
      </trkpt>
      <trkpt lat="40.066146" lon="-6.653845">
        <ele>285.354</ele>
        <time>2019-06-22T18:57:10Z</time>
      </trkpt>
      <trkpt lat="40.066044" lon="-6.653764">
        <ele>285.493</ele>
        <time>2019-06-22T18:57:11Z</time>
      </trkpt>
      <trkpt lat="40.065946" lon="-6.653664">
        <ele>285.738</ele>
        <time>2019-06-22T18:57:12Z</time>
      </trkpt>
      <trkpt lat="40.065837" lon="-6.653559">
        <ele>285.911</ele>
        <time>2019-06-22T18:57:13Z</time>
      </trkpt>
      <trkpt lat="40.065728" lon="-6.653468">
        <ele>286.056</ele>
        <time>2019-06-22T18:57:14Z</time>
      </trkpt>
      <trkpt lat="40.065634" lon="-6.653389">
        <ele>286.059</ele>
        <time>2019-06-22T18:57:15Z</time>
      </trkpt>
      <trkpt lat="40.065539" lon="-6.653309">
        <ele>285.914</ele>
        <time>2019-06-22T18:57:16Z</time>
      </trkpt>
      <trkpt lat="40.065452" lon="-6.653232">
        <ele>285.908</ele>
        <time>2019-06-22T18:57:17Z</time>
      </trkpt>
      <trkpt lat="40.065368" lon="-6.653159">
        <ele>286.218</ele>
        <time>2019-06-22T18:57:18Z</time>
      </trkpt>
      <trkpt lat="40.065282" lon="-6.653089">
        <ele>286.262</ele>
        <time>2019-06-22T18:57:19Z</time>
      </trkpt>
      <trkpt lat="40.065196" lon="-6.653013">
        <ele>286.434</ele>
        <time>2019-06-22T18:57:20Z</time>
      </trkpt>
      <trkpt lat="40.065096" lon="-6.652917">
        <ele>286.896</ele>
        <time>2019-06-22T18:57:21Z</time>
      </trkpt>
      <trkpt lat="40.064990" lon="-6.652816">
        <ele>286.944</ele>
        <time>2019-06-22T18:57:22Z</time>
      </trkpt>
      <trkpt lat="40.064865" lon="-6.652708">
        <ele>287.233</ele>
        <time>2019-06-22T18:57:23Z</time>
      </trkpt>
      <trkpt lat="40.064747" lon="-6.652599">
        <ele>287.418</ele>
        <time>2019-06-22T18:57:24Z</time>
      </trkpt>
      <trkpt lat="40.064617" lon="-6.652486">
        <ele>287.491</ele>
        <time>2019-06-22T18:57:25Z</time>
      </trkpt>
      <trkpt lat="40.064500" lon="-6.652376">
        <ele>287.364</ele>
        <time>2019-06-22T18:57:26Z</time>
      </trkpt>
      <trkpt lat="40.064372" lon="-6.652257">
        <ele>287.306</ele>
        <time>2019-06-22T18:57:27Z</time>
      </trkpt>
      <trkpt lat="40.064237" lon="-6.652136">
        <ele>286.716</ele>
        <time>2019-06-22T18:57:28Z</time>
      </trkpt>
      <trkpt lat="40.064096" lon="-6.651997">
        <ele>286.708</ele>
        <time>2019-06-22T18:57:29Z</time>
      </trkpt>
      <trkpt lat="40.063950" lon="-6.651861">
        <ele>286.759</ele>
        <time>2019-06-22T18:57:30Z</time>
      </trkpt>
      <trkpt lat="40.063796" lon="-6.651713">
        <ele>287.043</ele>
        <time>2019-06-22T18:57:31Z</time>
      </trkpt>
      <trkpt lat="40.063640" lon="-6.651563">
        <ele>287.575</ele>
        <time>2019-06-22T18:57:32Z</time>
      </trkpt>
      <trkpt lat="40.063482" lon="-6.651407">
        <ele>287.547</ele>
        <time>2019-06-22T18:57:33Z</time>
      </trkpt>
      <trkpt lat="40.063319" lon="-6.651252">
        <ele>287.585</ele>
        <time>2019-06-22T18:57:34Z</time>
      </trkpt>
      <trkpt lat="40.063149" lon="-6.651089">
        <ele>287.934</ele>
        <time>2019-06-22T18:57:35Z</time>
      </trkpt>
      <trkpt lat="40.062976" lon="-6.650940">
        <ele>287.459</ele>
        <time>2019-06-22T18:57:36Z</time>
      </trkpt>
      <trkpt lat="40.062798" lon="-6.650775">
        <ele>287.212</ele>
        <time>2019-06-22T18:57:37Z</time>
      </trkpt>
      <trkpt lat="40.062625" lon="-6.650621">
        <ele>286.359</ele>
        <time>2019-06-22T18:57:38Z</time>
      </trkpt>
      <trkpt lat="40.062446" lon="-6.650459">
        <ele>285.703</ele>
        <time>2019-06-22T18:57:39Z</time>
      </trkpt>
      <trkpt lat="40.062261" lon="-6.650295">
        <ele>284.923</ele>
        <time>2019-06-22T18:57:40Z</time>
      </trkpt>
      <trkpt lat="40.062083" lon="-6.650132">
        <ele>284.408</ele>
        <time>2019-06-22T18:57:41Z</time>
      </trkpt>
      <trkpt lat="40.061903" lon="-6.649976">
        <ele>284.458</ele>
        <time>2019-06-22T18:57:42Z</time>
      </trkpt>
      <trkpt lat="40.061729" lon="-6.649821">
        <ele>284.422</ele>
        <time>2019-06-22T18:57:43Z</time>
      </trkpt>
      <trkpt lat="40.061561" lon="-6.649666">
        <ele>284.454</ele>
        <time>2019-06-22T18:57:44Z</time>
      </trkpt>
      <trkpt lat="40.061395" lon="-6.649519">
        <ele>284.976</ele>
        <time>2019-06-22T18:57:45Z</time>
      </trkpt>
      <trkpt lat="40.061232" lon="-6.649366">
        <ele>285.074</ele>
        <time>2019-06-22T18:57:46Z</time>
      </trkpt>
      <trkpt lat="40.061066" lon="-6.649215">
        <ele>285.393</ele>
        <time>2019-06-22T18:57:47Z</time>
      </trkpt>
      <trkpt lat="40.060903" lon="-6.649075">
        <ele>285.618</ele>
        <time>2019-06-22T18:57:48Z</time>
      </trkpt>
      <trkpt lat="40.060747" lon="-6.648950">
        <ele>285.951</ele>
        <time>2019-06-22T18:57:49Z</time>
      </trkpt>
      <trkpt lat="40.060598" lon="-6.648824">
        <ele>287.098</ele>
        <time>2019-06-22T18:57:50Z</time>
      </trkpt>
      <trkpt lat="40.060447" lon="-6.648696">
        <ele>287.715</ele>
        <time>2019-06-22T18:57:51Z</time>
      </trkpt>
      <trkpt lat="40.060300" lon="-6.648566">
        <ele>288.726</ele>
        <time>2019-06-22T18:57:52Z</time>
      </trkpt>
      <trkpt lat="40.060159" lon="-6.648424">
        <ele>289.808</ele>
        <time>2019-06-22T18:57:53Z</time>
      </trkpt>
      <trkpt lat="40.060009" lon="-6.648292">
        <ele>290.862</ele>
        <time>2019-06-22T18:57:54Z</time>
      </trkpt>
      <trkpt lat="40.059863" lon="-6.648158">
        <ele>291.476</ele>
        <time>2019-06-22T18:57:55Z</time>
      </trkpt>
      <trkpt lat="40.059715" lon="-6.648021">
        <ele>291.968</ele>
        <time>2019-06-22T18:57:56Z</time>
      </trkpt>
      <trkpt lat="40.059581" lon="-6.647888">
        <ele>291.920</ele>
        <time>2019-06-22T18:57:57Z</time>
      </trkpt>
      <trkpt lat="40.059449" lon="-6.647761">
        <ele>291.748</ele>
        <time>2019-06-22T18:57:58Z</time>
      </trkpt>
      <trkpt lat="40.059319" lon="-6.647633">
        <ele>291.797</ele>
        <time>2019-06-22T18:57:59Z</time>
      </trkpt>
      <trkpt lat="40.059194" lon="-6.647510">
        <ele>291.612</ele>
        <time>2019-06-22T18:58:00Z</time>
      </trkpt>
      <trkpt lat="40.059075" lon="-6.647398">
        <ele>291.325</ele>
        <time>2019-06-22T18:58:01Z</time>
      </trkpt>
      <trkpt lat="40.058957" lon="-6.647281">
        <ele>291.023</ele>
        <time>2019-06-22T18:58:02Z</time>
      </trkpt>
      <trkpt lat="40.058839" lon="-6.647166">
        <ele>290.783</ele>
        <time>2019-06-22T18:58:03Z</time>
      </trkpt>
      <trkpt lat="40.058718" lon="-6.647050">
        <ele>290.611</ele>
        <time>2019-06-22T18:58:04Z</time>
      </trkpt>
      <trkpt lat="40.058597" lon="-6.646941">
        <ele>290.608</ele>
        <time>2019-06-22T18:58:05Z</time>
      </trkpt>
      <trkpt lat="40.058475" lon="-6.646830">
        <ele>291.595</ele>
        <time>2019-06-22T18:58:06Z</time>
      </trkpt>
      <trkpt lat="40.058349" lon="-6.646715">
        <ele>292.319</ele>
        <time>2019-06-22T18:58:07Z</time>
      </trkpt>
      <trkpt lat="40.058227" lon="-6.646605">
        <ele>292.551</ele>
        <time>2019-06-22T18:58:08Z</time>
      </trkpt>
      <trkpt lat="40.058106" lon="-6.646492">
        <ele>293.043</ele>
        <time>2019-06-22T18:58:09Z</time>
      </trkpt>
      <trkpt lat="40.057979" lon="-6.646382">
        <ele>293.531</ele>
        <time>2019-06-22T18:58:10Z</time>
      </trkpt>
      <trkpt lat="40.057853" lon="-6.646270">
        <ele>293.550</ele>
        <time>2019-06-22T18:58:11Z</time>
      </trkpt>
      <trkpt lat="40.057721" lon="-6.646159">
        <ele>292.515</ele>
        <time>2019-06-22T18:58:12Z</time>
      </trkpt>
      <trkpt lat="40.057593" lon="-6.646045">
        <ele>292.378</ele>
        <time>2019-06-22T18:58:13Z</time>
      </trkpt>
      <trkpt lat="40.057462" lon="-6.645919">
        <ele>291.451</ele>
        <time>2019-06-22T18:58:14Z</time>
      </trkpt>
      <trkpt lat="40.057334" lon="-6.645798">
        <ele>290.201</ele>
        <time>2019-06-22T18:58:15Z</time>
      </trkpt>
      <trkpt lat="40.057203" lon="-6.645675">
        <ele>289.311</ele>
        <time>2019-06-22T18:58:16Z</time>
      </trkpt>
      <trkpt lat="40.057065" lon="-6.645561">
        <ele>289.208</ele>
        <time>2019-06-22T18:58:17Z</time>
      </trkpt>
      <trkpt lat="40.056935" lon="-6.645445">
        <ele>288.718</ele>
        <time>2019-06-22T18:58:18Z</time>
      </trkpt>
      <trkpt lat="40.056799" lon="-6.645323">
        <ele>288.622</ele>
        <time>2019-06-22T18:58:19Z</time>
      </trkpt>
      <trkpt lat="40.056660" lon="-6.645197">
        <ele>288.634</ele>
        <time>2019-06-22T18:58:20Z</time>
      </trkpt>
      <trkpt lat="40.056523" lon="-6.645065">
        <ele>288.646</ele>
        <time>2019-06-22T18:58:21Z</time>
      </trkpt>
      <trkpt lat="40.056380" lon="-6.644927">
        <ele>288.644</ele>
        <time>2019-06-22T18:58:22Z</time>
      </trkpt>
      <trkpt lat="40.056239" lon="-6.644803">
        <ele>288.633</ele>
        <time>2019-06-22T18:58:23Z</time>
      </trkpt>
      <trkpt lat="40.056087" lon="-6.644671">
        <ele>289.588</ele>
        <time>2019-06-22T18:58:24Z</time>
      </trkpt>
      <trkpt lat="40.055941" lon="-6.644539">
        <ele>289.781</ele>
        <time>2019-06-22T18:58:25Z</time>
      </trkpt>
      <trkpt lat="40.055789" lon="-6.644399">
        <ele>289.749</ele>
        <time>2019-06-22T18:58:26Z</time>
      </trkpt>
      <trkpt lat="40.055637" lon="-6.644256">
        <ele>289.002</ele>
        <time>2019-06-22T18:58:27Z</time>
      </trkpt>
      <trkpt lat="40.055484" lon="-6.644120">
        <ele>288.122</ele>
        <time>2019-06-22T18:58:28Z</time>
      </trkpt>
      <trkpt lat="40.055327" lon="-6.643986">
        <ele>286.808</ele>
        <time>2019-06-22T18:58:29Z</time>
      </trkpt>
      <trkpt lat="40.055172" lon="-6.643847">
        <ele>285.597</ele>
        <time>2019-06-22T18:58:30Z</time>
      </trkpt>
      <trkpt lat="40.055017" lon="-6.643707">
        <ele>285.231</ele>
        <time>2019-06-22T18:58:31Z</time>
      </trkpt>
      <trkpt lat="40.054855" lon="-6.643558">
        <ele>285.253</ele>
        <time>2019-06-22T18:58:32Z</time>
      </trkpt>
      <trkpt lat="40.054692" lon="-6.643396">
        <ele>285.685</ele>
        <time>2019-06-22T18:58:33Z</time>
      </trkpt>
      <trkpt lat="40.054523" lon="-6.643229">
        <ele>285.883</ele>
        <time>2019-06-22T18:58:34Z</time>
      </trkpt>
      <trkpt lat="40.054339" lon="-6.643060">
        <ele>285.852</ele>
        <time>2019-06-22T18:58:35Z</time>
      </trkpt>
      <trkpt lat="40.054154" lon="-6.642896">
        <ele>286.417</ele>
        <time>2019-06-22T18:58:36Z</time>
      </trkpt>
      <trkpt lat="40.053958" lon="-6.642722">
        <ele>286.520</ele>
        <time>2019-06-22T18:58:37Z</time>
      </trkpt>
      <trkpt lat="40.053763" lon="-6.642553">
        <ele>286.694</ele>
        <time>2019-06-22T18:58:38Z</time>
      </trkpt>
      <trkpt lat="40.053564" lon="-6.642384">
        <ele>286.657</ele>
        <time>2019-06-22T18:58:39Z</time>
      </trkpt>
      <trkpt lat="40.053364" lon="-6.642207">
        <ele>288.022</ele>
        <time>2019-06-22T18:58:40Z</time>
      </trkpt>
      <trkpt lat="40.053171" lon="-6.642040">
        <ele>289.408</ele>
        <time>2019-06-22T18:58:41Z</time>
      </trkpt>
      <trkpt lat="40.052966" lon="-6.641855">
        <ele>289.412</ele>
        <time>2019-06-22T18:58:42Z</time>
      </trkpt>
      <trkpt lat="40.052762" lon="-6.641667">
        <ele>288.986</ele>
        <time>2019-06-22T18:58:43Z</time>
      </trkpt>
      <trkpt lat="40.052557" lon="-6.641481">
        <ele>288.748</ele>
        <time>2019-06-22T18:58:44Z</time>
      </trkpt>
      <trkpt lat="40.052349" lon="-6.641297">
        <ele>287.510</ele>
        <time>2019-06-22T18:58:45Z</time>
      </trkpt>
      <trkpt lat="40.052146" lon="-6.641111">
        <ele>286.328</ele>
        <time>2019-06-22T18:58:46Z</time>
      </trkpt>
      <trkpt lat="40.051937" lon="-6.640930">
        <ele>285.677</ele>
        <time>2019-06-22T18:58:47Z</time>
      </trkpt>
      <trkpt lat="40.051726" lon="-6.640745">
        <ele>285.672</ele>
        <time>2019-06-22T18:58:48Z</time>
      </trkpt>
      <trkpt lat="40.051513" lon="-6.640563">
        <ele>286.545</ele>
        <time>2019-06-22T18:58:49Z</time>
      </trkpt>
      <trkpt lat="40.051305" lon="-6.640376">
        <ele>286.763</ele>
        <time>2019-06-22T18:58:50Z</time>
      </trkpt>
      <trkpt lat="40.051106" lon="-6.640182">
        <ele>287.244</ele>
        <time>2019-06-22T18:58:51Z</time>
      </trkpt>
      <trkpt lat="40.050904" lon="-6.639998">
        <ele>287.218</ele>
        <time>2019-06-22T18:58:52Z</time>
      </trkpt>
      <trkpt lat="40.050697" lon="-6.639806">
        <ele>287.208</ele>
        <time>2019-06-22T18:58:53Z</time>
      </trkpt>
      <trkpt lat="40.050485" lon="-6.639616">
        <ele>286.679</ele>
        <time>2019-06-22T18:58:54Z</time>
      </trkpt>
      <trkpt lat="40.050274" lon="-6.639421">
        <ele>286.693</ele>
        <time>2019-06-22T18:58:55Z</time>
      </trkpt>
      <trkpt lat="40.050067" lon="-6.639239">
        <ele>286.265</ele>
        <time>2019-06-22T18:58:56Z</time>
      </trkpt>
      <trkpt lat="40.049857" lon="-6.639045">
        <ele>286.027</ele>
        <time>2019-06-22T18:58:57Z</time>
      </trkpt>
      <trkpt lat="40.049647" lon="-6.638851">
        <ele>285.545</ele>
        <time>2019-06-22T18:58:58Z</time>
      </trkpt>
      <trkpt lat="40.049428" lon="-6.638664">
        <ele>285.334</ele>
        <time>2019-06-22T18:58:59Z</time>
      </trkpt>
      <trkpt lat="40.049215" lon="-6.638476">
        <ele>285.019</ele>
        <time>2019-06-22T18:59:00Z</time>
      </trkpt>
      <trkpt lat="40.048998" lon="-6.638282">
        <ele>285.012</ele>
        <time>2019-06-22T18:59:01Z</time>
      </trkpt>
      <trkpt lat="40.048783" lon="-6.638093">
        <ele>285.024</ele>
        <time>2019-06-22T18:59:02Z</time>
      </trkpt>
      <trkpt lat="40.048563" lon="-6.637904">
        <ele>285.304</ele>
        <time>2019-06-22T18:59:03Z</time>
      </trkpt>
      <trkpt lat="40.048346" lon="-6.637704">
        <ele>285.314</ele>
        <time>2019-06-22T18:59:04Z</time>
      </trkpt>
      <trkpt lat="40.048131" lon="-6.637506">
        <ele>285.308</ele>
        <time>2019-06-22T18:59:05Z</time>
      </trkpt>
      <trkpt lat="40.047916" lon="-6.637311">
        <ele>285.295</ele>
        <time>2019-06-22T18:59:06Z</time>
      </trkpt>
      <trkpt lat="40.047698" lon="-6.637118">
        <ele>285.229</ele>
        <time>2019-06-22T18:59:07Z</time>
      </trkpt>
      <trkpt lat="40.047484" lon="-6.636923">
        <ele>285.661</ele>
        <time>2019-06-22T18:59:08Z</time>
      </trkpt>
      <trkpt lat="40.047267" lon="-6.636719">
        <ele>285.623</ele>
        <time>2019-06-22T18:59:09Z</time>
      </trkpt>
      <trkpt lat="40.047050" lon="-6.636520">
        <ele>285.871</ele>
        <time>2019-06-22T18:59:10Z</time>
      </trkpt>
      <trkpt lat="40.046833" lon="-6.636321">
        <ele>285.850</ele>
        <time>2019-06-22T18:59:11Z</time>
      </trkpt>
      <trkpt lat="40.046613" lon="-6.636128">
        <ele>285.675</ele>
        <time>2019-06-22T18:59:12Z</time>
      </trkpt>
      <trkpt lat="40.046393" lon="-6.635931">
        <ele>284.988</ele>
        <time>2019-06-22T18:59:13Z</time>
      </trkpt>
      <trkpt lat="40.046173" lon="-6.635731">
        <ele>284.852</ele>
        <time>2019-06-22T18:59:14Z</time>
      </trkpt>
      <trkpt lat="40.045948" lon="-6.635529">
        <ele>284.853</ele>
        <time>2019-06-22T18:59:15Z</time>
      </trkpt>
      <trkpt lat="40.045726" lon="-6.635332">
        <ele>284.508</ele>
        <time>2019-06-22T18:59:16Z</time>
      </trkpt>
      <trkpt lat="40.045506" lon="-6.635133">
        <ele>284.308</ele>
        <time>2019-06-22T18:59:17Z</time>
      </trkpt>
      <trkpt lat="40.045282" lon="-6.634938">
        <ele>284.338</ele>
        <time>2019-06-22T18:59:18Z</time>
      </trkpt>
      <trkpt lat="40.045067" lon="-6.634736">
        <ele>284.272</ele>
        <time>2019-06-22T18:59:19Z</time>
      </trkpt>
      <trkpt lat="40.044849" lon="-6.634535">
        <ele>283.784</ele>
        <time>2019-06-22T18:59:20Z</time>
      </trkpt>
      <trkpt lat="40.044627" lon="-6.634335">
        <ele>283.546</ele>
        <time>2019-06-22T18:59:21Z</time>
      </trkpt>
      <trkpt lat="40.044408" lon="-6.634135">
        <ele>283.564</ele>
        <time>2019-06-22T18:59:22Z</time>
      </trkpt>
      <trkpt lat="40.044188" lon="-6.633936">
        <ele>283.573</ele>
        <time>2019-06-22T18:59:23Z</time>
      </trkpt>
      <trkpt lat="40.043963" lon="-6.633734">
        <ele>283.698</ele>
        <time>2019-06-22T18:59:24Z</time>
      </trkpt>
      <trkpt lat="40.043745" lon="-6.633530">
        <ele>283.651</ele>
        <time>2019-06-22T18:59:25Z</time>
      </trkpt>
      <trkpt lat="40.043523" lon="-6.633332">
        <ele>283.657</ele>
        <time>2019-06-22T18:59:26Z</time>
      </trkpt>
      <trkpt lat="40.043303" lon="-6.633124">
        <ele>284.000</ele>
        <time>2019-06-22T18:59:27Z</time>
      </trkpt>
      <trkpt lat="40.043087" lon="-6.632924">
        <ele>284.320</ele>
        <time>2019-06-22T18:59:28Z</time>
      </trkpt>
      <trkpt lat="40.042864" lon="-6.632724">
        <ele>284.908</ele>
        <time>2019-06-22T18:59:29Z</time>
      </trkpt>
      <trkpt lat="40.042642" lon="-6.632520">
        <ele>285.418</ele>
        <time>2019-06-22T18:59:30Z</time>
      </trkpt>
      <trkpt lat="40.042418" lon="-6.632322">
        <ele>285.642</ele>
        <time>2019-06-22T18:59:31Z</time>
      </trkpt>
      <trkpt lat="40.042195" lon="-6.632123">
        <ele>286.054</ele>
        <time>2019-06-22T18:59:32Z</time>
      </trkpt>
      <trkpt lat="40.041973" lon="-6.631922">
        <ele>287.086</ele>
        <time>2019-06-22T18:59:33Z</time>
      </trkpt>
      <trkpt lat="40.041755" lon="-6.631725">
        <ele>287.074</ele>
        <time>2019-06-22T18:59:34Z</time>
      </trkpt>
      <trkpt lat="40.041537" lon="-6.631531">
        <ele>286.683</ele>
        <time>2019-06-22T18:59:35Z</time>
      </trkpt>
      <trkpt lat="40.041319" lon="-6.631336">
        <ele>286.678</ele>
        <time>2019-06-22T18:59:36Z</time>
      </trkpt>
      <trkpt lat="40.041101" lon="-6.631141">
        <ele>286.021</ele>
        <time>2019-06-22T18:59:37Z</time>
      </trkpt>
      <trkpt lat="40.040886" lon="-6.630950">
        <ele>284.888</ele>
        <time>2019-06-22T18:59:38Z</time>
      </trkpt>
      <trkpt lat="40.040672" lon="-6.630756">
        <ele>284.324</ele>
        <time>2019-06-22T18:59:39Z</time>
      </trkpt>
      <trkpt lat="40.040463" lon="-6.630560">
        <ele>284.026</ele>
        <time>2019-06-22T18:59:40Z</time>
      </trkpt>
      <trkpt lat="40.040255" lon="-6.630367">
        <ele>284.008</ele>
        <time>2019-06-22T18:59:41Z</time>
      </trkpt>
      <trkpt lat="40.040047" lon="-6.630179">
        <ele>284.121</ele>
        <time>2019-06-22T18:59:42Z</time>
      </trkpt>
      <trkpt lat="40.039833" lon="-6.629997">
        <ele>284.215</ele>
        <time>2019-06-22T18:59:43Z</time>
      </trkpt>
      <trkpt lat="40.039625" lon="-6.629810">
        <ele>284.287</ele>
        <time>2019-06-22T18:59:44Z</time>
      </trkpt>
      <trkpt lat="40.039415" lon="-6.629619">
        <ele>284.529</ele>
        <time>2019-06-22T18:59:45Z</time>
      </trkpt>
      <trkpt lat="40.039209" lon="-6.629436">
        <ele>284.737</ele>
        <time>2019-06-22T18:59:46Z</time>
      </trkpt>
      <trkpt lat="40.039003" lon="-6.629246">
        <ele>285.286</ele>
        <time>2019-06-22T18:59:47Z</time>
      </trkpt>
      <trkpt lat="40.038785" lon="-6.629051">
        <ele>285.931</ele>
        <time>2019-06-22T18:59:48Z</time>
      </trkpt>
      <trkpt lat="40.038582" lon="-6.628858">
        <ele>286.354</ele>
        <time>2019-06-22T18:59:49Z</time>
      </trkpt>
      <trkpt lat="40.038379" lon="-6.628665">
        <ele>286.444</ele>
        <time>2019-06-22T18:59:50Z</time>
      </trkpt>
      <trkpt lat="40.038174" lon="-6.628479">
        <ele>286.405</ele>
        <time>2019-06-22T18:59:51Z</time>
      </trkpt>
      <trkpt lat="40.037967" lon="-6.628292">
        <ele>286.415</ele>
        <time>2019-06-22T18:59:52Z</time>
      </trkpt>
      <trkpt lat="40.037766" lon="-6.628106">
        <ele>285.908</ele>
        <time>2019-06-22T18:59:53Z</time>
      </trkpt>
      <trkpt lat="40.037558" lon="-6.627925">
        <ele>285.437</ele>
        <time>2019-06-22T18:59:54Z</time>
      </trkpt>
      <trkpt lat="40.037350" lon="-6.627748">
        <ele>285.431</ele>
        <time>2019-06-22T18:59:55Z</time>
      </trkpt>
      <trkpt lat="40.037152" lon="-6.627567">
        <ele>285.463</ele>
        <time>2019-06-22T18:59:56Z</time>
      </trkpt>
      <trkpt lat="40.036964" lon="-6.627395">
        <ele>286.065</ele>
        <time>2019-06-22T18:59:57Z</time>
      </trkpt>
      <trkpt lat="40.036777" lon="-6.627222">
        <ele>286.163</ele>
        <time>2019-06-22T18:59:58Z</time>
      </trkpt>
      <trkpt lat="40.036589" lon="-6.627049">
        <ele>287.862</ele>
        <time>2019-06-22T18:59:59Z</time>
      </trkpt>
      <trkpt lat="40.036401" lon="-6.626882">
        <ele>288.917</ele>
        <time>2019-06-22T19:00:00Z</time>
      </trkpt>
      <trkpt lat="40.036229" lon="-6.626722">
        <ele>290.230</ele>
        <time>2019-06-22T19:00:01Z</time>
      </trkpt>
      <trkpt lat="40.036067" lon="-6.626573">
        <ele>290.532</ele>
        <time>2019-06-22T19:00:02Z</time>
      </trkpt>
      <trkpt lat="40.035908" lon="-6.626410">
        <ele>291.792</ele>
        <time>2019-06-22T19:00:03Z</time>
      </trkpt>
      <trkpt lat="40.035771" lon="-6.626223">
        <ele>293.711</ele>
        <time>2019-06-22T19:00:04Z</time>
      </trkpt>
      <trkpt lat="40.035629" lon="-6.626024">
        <ele>295.808</ele>
        <time>2019-06-22T19:00:05Z</time>
      </trkpt>
      <trkpt lat="40.035491" lon="-6.625819">
        <ele>297.556</ele>
        <time>2019-06-22T19:00:06Z</time>
      </trkpt>
      <trkpt lat="40.035361" lon="-6.625581">
        <ele>299.850</ele>
        <time>2019-06-22T19:00:07Z</time>
      </trkpt>
      <trkpt lat="40.035241" lon="-6.625332">
        <ele>300.762</ele>
        <time>2019-06-22T19:00:08Z</time>
      </trkpt>
      <trkpt lat="40.035125" lon="-6.625074">
        <ele>300.744</ele>
        <time>2019-06-22T19:00:09Z</time>
      </trkpt>
      <trkpt lat="40.035017" lon="-6.624796">
        <ele>299.952</ele>
        <time>2019-06-22T19:00:10Z</time>
      </trkpt>
      <trkpt lat="40.034925" lon="-6.624504">
        <ele>298.771</ele>
        <time>2019-06-22T19:00:11Z</time>
      </trkpt>
      <trkpt lat="40.034843" lon="-6.624205">
        <ele>298.016</ele>
        <time>2019-06-22T19:00:12Z</time>
      </trkpt>
      <trkpt lat="40.034766" lon="-6.623902">
        <ele>298.099</ele>
        <time>2019-06-22T19:00:13Z</time>
      </trkpt>
      <trkpt lat="40.034686" lon="-6.623605">
        <ele>298.092</ele>
        <time>2019-06-22T19:00:14Z</time>
      </trkpt>
      <trkpt lat="40.034600" lon="-6.623295">
        <ele>297.173</ele>
        <time>2019-06-22T19:00:15Z</time>
      </trkpt>
      <trkpt lat="40.034517" lon="-6.622985">
        <ele>296.920</ele>
        <time>2019-06-22T19:00:16Z</time>
      </trkpt>
      <trkpt lat="40.034432" lon="-6.622668">
        <ele>296.508</ele>
        <time>2019-06-22T19:00:17Z</time>
      </trkpt>
      <trkpt lat="40.034344" lon="-6.622350">
        <ele>296.532</ele>
        <time>2019-06-22T19:00:18Z</time>
      </trkpt>
      <trkpt lat="40.034251" lon="-6.622036">
        <ele>296.636</ele>
        <time>2019-06-22T19:00:19Z</time>
      </trkpt>
      <trkpt lat="40.034165" lon="-6.621706">
        <ele>297.548</ele>
        <time>2019-06-22T19:00:20Z</time>
      </trkpt>
      <trkpt lat="40.034077" lon="-6.621374">
        <ele>297.740</ele>
        <time>2019-06-22T19:00:21Z</time>
      </trkpt>
      <trkpt lat="40.033985" lon="-6.621058">
        <ele>298.198</ele>
        <time>2019-06-22T19:00:22Z</time>
      </trkpt>
      <trkpt lat="40.033898" lon="-6.620737">
        <ele>298.157</ele>
        <time>2019-06-22T19:00:23Z</time>
      </trkpt>
      <trkpt lat="40.033804" lon="-6.620409">
        <ele>296.442</ele>
        <time>2019-06-22T19:00:24Z</time>
      </trkpt>
      <trkpt lat="40.033709" lon="-6.620093">
        <ele>294.525</ele>
        <time>2019-06-22T19:00:25Z</time>
      </trkpt>
      <trkpt lat="40.033607" lon="-6.619778">
        <ele>293.282</ele>
        <time>2019-06-22T19:00:26Z</time>
      </trkpt>
      <trkpt lat="40.033496" lon="-6.619481">
        <ele>291.043</ele>
        <time>2019-06-22T19:00:27Z</time>
      </trkpt>
      <trkpt lat="40.033382" lon="-6.619176">
        <ele>289.417</ele>
        <time>2019-06-22T19:00:28Z</time>
      </trkpt>
      <trkpt lat="40.033271" lon="-6.618870">
        <ele>288.708</ele>
        <time>2019-06-22T19:00:29Z</time>
      </trkpt>
      <trkpt lat="40.033158" lon="-6.618564">
        <ele>288.591</ele>
        <time>2019-06-22T19:00:30Z</time>
      </trkpt>
      <trkpt lat="40.033039" lon="-6.618264">
        <ele>288.585</ele>
        <time>2019-06-22T19:00:31Z</time>
      </trkpt>
      <trkpt lat="40.032922" lon="-6.617960">
        <ele>289.367</ele>
        <time>2019-06-22T19:00:32Z</time>
      </trkpt>
      <trkpt lat="40.032812" lon="-6.617661">
        <ele>289.739</ele>
        <time>2019-06-22T19:00:33Z</time>
      </trkpt>
      <trkpt lat="40.032699" lon="-6.617371">
        <ele>290.057</ele>
        <time>2019-06-22T19:00:34Z</time>
      </trkpt>
      <trkpt lat="40.032590" lon="-6.617077">
        <ele>290.016</ele>
        <time>2019-06-22T19:00:35Z</time>
      </trkpt>
      <trkpt lat="40.032486" lon="-6.616792">
        <ele>289.861</ele>
        <time>2019-06-22T19:00:36Z</time>
      </trkpt>
      <trkpt lat="40.032378" lon="-6.616515">
        <ele>289.614</ele>
        <time>2019-06-22T19:00:37Z</time>
      </trkpt>
      <trkpt lat="40.032264" lon="-6.616231">
        <ele>289.638</ele>
        <time>2019-06-22T19:00:38Z</time>
      </trkpt>
      <trkpt lat="40.032144" lon="-6.615945">
        <ele>290.270</ele>
        <time>2019-06-22T19:00:39Z</time>
      </trkpt>
      <trkpt lat="40.032028" lon="-6.615663">
        <ele>291.017</ele>
        <time>2019-06-22T19:00:40Z</time>
      </trkpt>
      <trkpt lat="40.031921" lon="-6.615378">
        <ele>291.908</ele>
        <time>2019-06-22T19:00:41Z</time>
      </trkpt>
      <trkpt lat="40.031812" lon="-6.615104">
        <ele>292.126</ele>
        <time>2019-06-22T19:00:42Z</time>
      </trkpt>
      <trkpt lat="40.031711" lon="-6.614827">
        <ele>292.140</ele>
        <time>2019-06-22T19:00:43Z</time>
      </trkpt>
      <trkpt lat="40.031603" lon="-6.614560">
        <ele>291.922</ele>
        <time>2019-06-22T19:00:44Z</time>
      </trkpt>
      <trkpt lat="40.031498" lon="-6.614294">
        <ele>291.294</ele>
        <time>2019-06-22T19:00:45Z</time>
      </trkpt>
      <trkpt lat="40.031397" lon="-6.614029">
        <ele>290.762</ele>
        <time>2019-06-22T19:00:46Z</time>
      </trkpt>
      <trkpt lat="40.031305" lon="-6.613766">
        <ele>290.341</ele>
        <time>2019-06-22T19:00:47Z</time>
      </trkpt>
      <trkpt lat="40.031214" lon="-6.613492">
        <ele>290.356</ele>
        <time>2019-06-22T19:00:48Z</time>
      </trkpt>
      <trkpt lat="40.031155" lon="-6.613250">
        <ele>290.139</ele>
        <time>2019-06-22T19:00:49Z</time>
      </trkpt>
      <trkpt lat="40.031108" lon="-6.613000">
        <ele>289.855</ele>
        <time>2019-06-22T19:00:50Z</time>
      </trkpt>
      <trkpt lat="40.031062" lon="-6.612755">
        <ele>289.307</ele>
        <time>2019-06-22T19:00:51Z</time>
      </trkpt>
      <trkpt lat="40.031013" lon="-6.612510">
        <ele>289.317</ele>
        <time>2019-06-22T19:00:52Z</time>
      </trkpt>
      <trkpt lat="40.030953" lon="-6.612272">
        <ele>289.308</ele>
        <time>2019-06-22T19:00:53Z</time>
      </trkpt>
      <trkpt lat="40.030882" lon="-6.612042">
        <ele>289.448</ele>
        <time>2019-06-22T19:00:54Z</time>
      </trkpt>
      <trkpt lat="40.030796" lon="-6.611820">
        <ele>289.912</ele>
        <time>2019-06-22T19:00:55Z</time>
      </trkpt>
      <trkpt lat="40.030697" lon="-6.611613">
        <ele>290.734</ele>
        <time>2019-06-22T19:00:56Z</time>
      </trkpt>
      <trkpt lat="40.030581" lon="-6.611421">
        <ele>290.816</ele>
        <time>2019-06-22T19:00:57Z</time>
      </trkpt>
      <trkpt lat="40.030460" lon="-6.611257">
        <ele>290.824</ele>
        <time>2019-06-22T19:00:58Z</time>
      </trkpt>
      <trkpt lat="40.030334" lon="-6.611130">
        <ele>290.443</ele>
        <time>2019-06-22T19:00:59Z</time>
      </trkpt>
      <trkpt lat="40.030207" lon="-6.611008">
        <ele>289.918</ele>
        <time>2019-06-22T19:01:00Z</time>
      </trkpt>
      <trkpt lat="40.030098" lon="-6.610930">
        <ele>289.731</ele>
        <time>2019-06-22T19:01:01Z</time>
      </trkpt>
      <trkpt lat="40.030001" lon="-6.610897">
        <ele>289.793</ele>
        <time>2019-06-22T19:01:02Z</time>
      </trkpt>
      <trkpt lat="40.029906" lon="-6.610889">
        <ele>290.265</ele>
        <time>2019-06-22T19:01:03Z</time>
      </trkpt>
      <trkpt lat="40.029815" lon="-6.610899">
        <ele>291.121</ele>
        <time>2019-06-22T19:01:04Z</time>
      </trkpt>
      <trkpt lat="40.029734" lon="-6.610933">
        <ele>292.408</ele>
        <time>2019-06-22T19:01:05Z</time>
      </trkpt>
      <trkpt lat="40.029654" lon="-6.610987">
        <ele>293.742</ele>
        <time>2019-06-22T19:01:06Z</time>
      </trkpt>
      <trkpt lat="40.029581" lon="-6.611069">
        <ele>294.986</ele>
        <time>2019-06-22T19:01:07Z</time>
      </trkpt>
      <trkpt lat="40.029497" lon="-6.611121">
        <ele>296.038</ele>
        <time>2019-06-22T19:01:08Z</time>
      </trkpt>
      <trkpt lat="40.029411" lon="-6.611148">
        <ele>296.610</ele>
        <time>2019-06-22T19:01:09Z</time>
      </trkpt>
      <trkpt lat="40.029316" lon="-6.611147">
        <ele>297.428</ele>
        <time>2019-06-22T19:01:10Z</time>
      </trkpt>
      <trkpt lat="40.029223" lon="-6.611114">
        <ele>298.497</ele>
        <time>2019-06-22T19:01:11Z</time>
      </trkpt>
      <trkpt lat="40.029134" lon="-6.611074">
        <ele>299.372</ele>
        <time>2019-06-22T19:01:12Z</time>
      </trkpt>
      <trkpt lat="40.029074" lon="-6.610967">
        <ele>299.855</ele>
        <time>2019-06-22T19:01:13Z</time>
      </trkpt>
      <trkpt lat="40.029020" lon="-6.610857">
        <ele>300.129</ele>
        <time>2019-06-22T19:01:14Z</time>
      </trkpt>
      <trkpt lat="40.028988" lon="-6.610733">
        <ele>300.100</ele>
        <time>2019-06-22T19:01:15Z</time>
      </trkpt>
      <trkpt lat="40.028980" lon="-6.610608">
        <ele>300.120</ele>
        <time>2019-06-22T19:01:16Z</time>
      </trkpt>
      <trkpt lat="40.028989" lon="-6.610498">
        <ele>300.108</ele>
        <time>2019-06-22T19:01:17Z</time>
      </trkpt>
      <trkpt lat="40.029027" lon="-6.610391">
        <ele>300.195</ele>
        <time>2019-06-22T19:01:18Z</time>
      </trkpt>
      <trkpt lat="40.029083" lon="-6.610303">
        <ele>300.349</ele>
        <time>2019-06-22T19:01:19Z</time>
      </trkpt>
      <trkpt lat="40.029156" lon="-6.610213">
        <ele>300.491</ele>
        <time>2019-06-22T19:01:20Z</time>
      </trkpt>
      <trkpt lat="40.029237" lon="-6.610135">
        <ele>300.413</ele>
        <time>2019-06-22T19:01:21Z</time>
      </trkpt>
      <trkpt lat="40.029325" lon="-6.610075">
        <ele>300.651</ele>
        <time>2019-06-22T19:01:22Z</time>
      </trkpt>
      <trkpt lat="40.029410" lon="-6.610008">
        <ele>300.730</ele>
        <time>2019-06-22T19:01:23Z</time>
      </trkpt>
      <trkpt lat="40.029491" lon="-6.609917">
        <ele>300.725</ele>
        <time>2019-06-22T19:01:24Z</time>
      </trkpt>
      <trkpt lat="40.029552" lon="-6.609810">
        <ele>300.658</ele>
        <time>2019-06-22T19:01:25Z</time>
      </trkpt>
      <trkpt lat="40.029585" lon="-6.609673">
        <ele>300.472</ele>
        <time>2019-06-22T19:01:26Z</time>
      </trkpt>
      <trkpt lat="40.029606" lon="-6.609532">
        <ele>300.013</ele>
        <time>2019-06-22T19:01:27Z</time>
      </trkpt>
      <trkpt lat="40.029593" lon="-6.609342">
        <ele>299.314</ele>
        <time>2019-06-22T19:01:28Z</time>
      </trkpt>
      <trkpt lat="40.029571" lon="-6.609161">
        <ele>298.508</ele>
        <time>2019-06-22T19:01:29Z</time>
      </trkpt>
      <trkpt lat="40.029529" lon="-6.608971">
        <ele>297.370</ele>
        <time>2019-06-22T19:01:30Z</time>
      </trkpt>
      <trkpt lat="40.029470" lon="-6.608776">
        <ele>296.374</ele>
        <time>2019-06-22T19:01:31Z</time>
      </trkpt>
      <trkpt lat="40.029395" lon="-6.608590">
        <ele>295.096</ele>
        <time>2019-06-22T19:01:32Z</time>
      </trkpt>
      <trkpt lat="40.029301" lon="-6.608397">
        <ele>294.058</ele>
        <time>2019-06-22T19:01:33Z</time>
      </trkpt>
      <trkpt lat="40.029185" lon="-6.608210">
        <ele>293.236</ele>
        <time>2019-06-22T19:01:34Z</time>
      </trkpt>
      <trkpt lat="40.029046" lon="-6.608024">
        <ele>292.475</ele>
        <time>2019-06-22T19:01:35Z</time>
      </trkpt>
      <trkpt lat="40.028897" lon="-6.607860">
        <ele>291.570</ele>
        <time>2019-06-22T19:01:36Z</time>
      </trkpt>
      <trkpt lat="40.028735" lon="-6.607716">
        <ele>290.613</ele>
        <time>2019-06-22T19:01:37Z</time>
      </trkpt>
      <trkpt lat="40.028569" lon="-6.607571">
        <ele>290.064</ele>
        <time>2019-06-22T19:01:38Z</time>
      </trkpt>
      <trkpt lat="40.028402" lon="-6.607438">
        <ele>289.906</ele>
        <time>2019-06-22T19:01:39Z</time>
      </trkpt>
      <trkpt lat="40.028232" lon="-6.607294">
        <ele>289.916</ele>
        <time>2019-06-22T19:01:40Z</time>
      </trkpt>
      <trkpt lat="40.028074" lon="-6.607139">
        <ele>290.608</ele>
        <time>2019-06-22T19:01:41Z</time>
      </trkpt>
      <trkpt lat="40.027916" lon="-6.606964">
        <ele>291.629</ele>
        <time>2019-06-22T19:01:42Z</time>
      </trkpt>
      <trkpt lat="40.027776" lon="-6.606779">
        <ele>292.963</ele>
        <time>2019-06-22T19:01:43Z</time>
      </trkpt>
      <trkpt lat="40.027633" lon="-6.606578">
        <ele>294.015</ele>
        <time>2019-06-22T19:01:44Z</time>
      </trkpt>
      <trkpt lat="40.027493" lon="-6.606358">
        <ele>294.727</ele>
        <time>2019-06-22T19:01:45Z</time>
      </trkpt>
      <trkpt lat="40.027364" lon="-6.606124">
        <ele>295.155</ele>
        <time>2019-06-22T19:01:46Z</time>
      </trkpt>
      <trkpt lat="40.027247" lon="-6.605867">
        <ele>295.964</ele>
        <time>2019-06-22T19:01:47Z</time>
      </trkpt>
      <trkpt lat="40.027134" lon="-6.605602">
        <ele>296.289</ele>
        <time>2019-06-22T19:01:48Z</time>
      </trkpt>
      <trkpt lat="40.027027" lon="-6.605327">
        <ele>296.232</ele>
        <time>2019-06-22T19:01:49Z</time>
      </trkpt>
      <trkpt lat="40.026920" lon="-6.605058">
        <ele>295.656</ele>
        <time>2019-06-22T19:01:50Z</time>
      </trkpt>
      <trkpt lat="40.026816" lon="-6.604781">
        <ele>295.059</ele>
        <time>2019-06-22T19:01:51Z</time>
      </trkpt>
      <trkpt lat="40.026708" lon="-6.604496">
        <ele>294.414</ele>
        <time>2019-06-22T19:01:52Z</time>
      </trkpt>
      <trkpt lat="40.026600" lon="-6.604222">
        <ele>294.408</ele>
        <time>2019-06-22T19:01:53Z</time>
      </trkpt>
      <trkpt lat="40.026491" lon="-6.603942">
        <ele>293.918</ele>
        <time>2019-06-22T19:01:54Z</time>
      </trkpt>
      <trkpt lat="40.026386" lon="-6.603652">
        <ele>293.982</ele>
        <time>2019-06-22T19:01:55Z</time>
      </trkpt>
      <trkpt lat="40.026280" lon="-6.603372">
        <ele>294.764</ele>
        <time>2019-06-22T19:01:56Z</time>
      </trkpt>
      <trkpt lat="40.026175" lon="-6.603096">
        <ele>295.636</ele>
        <time>2019-06-22T19:01:57Z</time>
      </trkpt>
      <trkpt lat="40.026071" lon="-6.602818">
        <ele>296.884</ele>
        <time>2019-06-22T19:01:58Z</time>
      </trkpt>
      <trkpt lat="40.025962" lon="-6.602537">
        <ele>297.833</ele>
        <time>2019-06-22T19:01:59Z</time>
      </trkpt>
      <trkpt lat="40.025862" lon="-6.602258">
        <ele>299.038</ele>
        <time>2019-06-22T19:02:00Z</time>
      </trkpt>
      <trkpt lat="40.025757" lon="-6.601970">
        <ele>300.521</ele>
        <time>2019-06-22T19:02:01Z</time>
      </trkpt>
      <trkpt lat="40.025649" lon="-6.601674">
        <ele>301.752</ele>
        <time>2019-06-22T19:02:02Z</time>
      </trkpt>
      <trkpt lat="40.025543" lon="-6.601384">
        <ele>301.953</ele>
        <time>2019-06-22T19:02:03Z</time>
      </trkpt>
      <trkpt lat="40.025438" lon="-6.601087">
        <ele>302.008</ele>
        <time>2019-06-22T19:02:04Z</time>
      </trkpt>
      <trkpt lat="40.025325" lon="-6.600800">
        <ele>302.008</ele>
        <time>2019-06-22T19:02:05Z</time>
      </trkpt>
      <trkpt lat="40.025219" lon="-6.600517">
        <ele>301.138</ele>
        <time>2019-06-22T19:02:06Z</time>
      </trkpt>
      <trkpt lat="40.025115" lon="-6.600229">
        <ele>300.882</ele>
        <time>2019-06-22T19:02:07Z</time>
      </trkpt>
      <trkpt lat="40.025010" lon="-6.599952">
        <ele>300.864</ele>
        <time>2019-06-22T19:02:08Z</time>
      </trkpt>
      <trkpt lat="40.024903" lon="-6.599680">
        <ele>300.936</ele>
        <time>2019-06-22T19:02:09Z</time>
      </trkpt>
      <trkpt lat="40.024809" lon="-6.599400">
        <ele>301.934</ele>
        <time>2019-06-22T19:02:10Z</time>
      </trkpt>
      <trkpt lat="40.024707" lon="-6.599131">
        <ele>303.523</ele>
        <time>2019-06-22T19:02:11Z</time>
      </trkpt>
      <trkpt lat="40.024608" lon="-6.598866">
        <ele>304.978</ele>
        <time>2019-06-22T19:02:12Z</time>
      </trkpt>
      <trkpt lat="40.024507" lon="-6.598584">
        <ele>306.531</ele>
        <time>2019-06-22T19:02:13Z</time>
      </trkpt>
      <trkpt lat="40.024406" lon="-6.598303">
        <ele>307.149</ele>
        <time>2019-06-22T19:02:14Z</time>
      </trkpt>
      <trkpt lat="40.024298" lon="-6.598028">
        <ele>307.102</ele>
        <time>2019-06-22T19:02:15Z</time>
      </trkpt>
      <trkpt lat="40.024192" lon="-6.597756">
        <ele>306.722</ele>
        <time>2019-06-22T19:02:16Z</time>
      </trkpt>
      <trkpt lat="40.024082" lon="-6.597477">
        <ele>305.908</ele>
        <time>2019-06-22T19:02:17Z</time>
      </trkpt>
      <trkpt lat="40.023982" lon="-6.597197">
        <ele>305.337</ele>
        <time>2019-06-22T19:02:18Z</time>
      </trkpt>
      <trkpt lat="40.023884" lon="-6.596915">
        <ele>305.381</ele>
        <time>2019-06-22T19:02:19Z</time>
      </trkpt>
      <trkpt lat="40.023779" lon="-6.596632">
        <ele>305.453</ele>
        <time>2019-06-22T19:02:20Z</time>
      </trkpt>
      <trkpt lat="40.023670" lon="-6.596358">
        <ele>305.545</ele>
        <time>2019-06-22T19:02:21Z</time>
      </trkpt>
      <trkpt lat="40.023562" lon="-6.596077">
        <ele>305.713</ele>
        <time>2019-06-22T19:02:22Z</time>
      </trkpt>
      <trkpt lat="40.023453" lon="-6.595789">
        <ele>306.332</ele>
        <time>2019-06-22T19:02:23Z</time>
      </trkpt>
      <trkpt lat="40.023340" lon="-6.595503">
        <ele>306.327</ele>
        <time>2019-06-22T19:02:24Z</time>
      </trkpt>
      <trkpt lat="40.023234" lon="-6.595216">
        <ele>306.350</ele>
        <time>2019-06-22T19:02:25Z</time>
      </trkpt>
      <trkpt lat="40.023129" lon="-6.594925">
        <ele>306.416</ele>
        <time>2019-06-22T19:02:26Z</time>
      </trkpt>
      <trkpt lat="40.023027" lon="-6.594639">
        <ele>306.976</ele>
        <time>2019-06-22T19:02:27Z</time>
      </trkpt>
      <trkpt lat="40.022928" lon="-6.594361">
        <ele>307.213</ele>
        <time>2019-06-22T19:02:28Z</time>
      </trkpt>
      <trkpt lat="40.022821" lon="-6.594078">
        <ele>308.008</ele>
        <time>2019-06-22T19:02:29Z</time>
      </trkpt>
      <trkpt lat="40.022718" lon="-6.593793">
        <ele>309.154</ele>
        <time>2019-06-22T19:02:30Z</time>
      </trkpt>
      <trkpt lat="40.022611" lon="-6.593508">
        <ele>310.488</ele>
        <time>2019-06-22T19:02:31Z</time>
      </trkpt>
      <trkpt lat="40.022501" lon="-6.593222">
        <ele>311.660</ele>
        <time>2019-06-22T19:02:32Z</time>
      </trkpt>
      <trkpt lat="40.022393" lon="-6.592940">
        <ele>313.082</ele>
        <time>2019-06-22T19:02:33Z</time>
      </trkpt>
      <trkpt lat="40.022287" lon="-6.592657">
        <ele>314.510</ele>
        <time>2019-06-22T19:02:34Z</time>
      </trkpt>
      <trkpt lat="40.022180" lon="-6.592365">
        <ele>315.949</ele>
        <time>2019-06-22T19:02:35Z</time>
      </trkpt>
      <trkpt lat="40.022075" lon="-6.592076">
        <ele>318.284</ele>
        <time>2019-06-22T19:02:36Z</time>
      </trkpt>
      <trkpt lat="40.021965" lon="-6.591787">
        <ele>320.017</ele>
        <time>2019-06-22T19:02:37Z</time>
      </trkpt>
      <trkpt lat="40.021860" lon="-6.591491">
        <ele>321.289</ele>
        <time>2019-06-22T19:02:38Z</time>
      </trkpt>
      <trkpt lat="40.021757" lon="-6.591191">
        <ele>321.906</ele>
        <time>2019-06-22T19:02:39Z</time>
      </trkpt>
      <trkpt lat="40.021645" lon="-6.590893">
        <ele>321.926</ele>
        <time>2019-06-22T19:02:40Z</time>
      </trkpt>
      <trkpt lat="40.021535" lon="-6.590602">
        <ele>321.908</ele>
        <time>2019-06-22T19:02:41Z</time>
      </trkpt>
      <trkpt lat="40.021418" lon="-6.590287">
        <ele>321.231</ele>
        <time>2019-06-22T19:02:42Z</time>
      </trkpt>
      <trkpt lat="40.021300" lon="-6.589974">
        <ele>321.185</ele>
        <time>2019-06-22T19:02:43Z</time>
      </trkpt>
      <trkpt lat="40.021179" lon="-6.589671">
        <ele>321.177</ele>
        <time>2019-06-22T19:02:44Z</time>
      </trkpt>
      <trkpt lat="40.021060" lon="-6.589355">
        <ele>321.149</ele>
        <time>2019-06-22T19:02:45Z</time>
      </trkpt>
      <trkpt lat="40.020947" lon="-6.589047">
        <ele>321.177</ele>
        <time>2019-06-22T19:02:46Z</time>
      </trkpt>
      <trkpt lat="40.020835" lon="-6.588734">
        <ele>321.166</ele>
        <time>2019-06-22T19:02:47Z</time>
      </trkpt>
      <trkpt lat="40.020717" lon="-6.588423">
        <ele>320.881</ele>
        <time>2019-06-22T19:02:48Z</time>
      </trkpt>
      <trkpt lat="40.020595" lon="-6.588105">
        <ele>320.794</ele>
        <time>2019-06-22T19:02:49Z</time>
      </trkpt>
      <trkpt lat="40.020478" lon="-6.587778">
        <ele>320.595</ele>
        <time>2019-06-22T19:02:50Z</time>
      </trkpt>
      <trkpt lat="40.020357" lon="-6.587453">
        <ele>320.149</ele>
        <time>2019-06-22T19:02:51Z</time>
      </trkpt>
      <trkpt lat="40.020234" lon="-6.587122">
        <ele>319.523</ele>
        <time>2019-06-22T19:02:52Z</time>
      </trkpt>
      <trkpt lat="40.020107" lon="-6.586792">
        <ele>319.408</ele>
        <time>2019-06-22T19:02:53Z</time>
      </trkpt>
      <trkpt lat="40.019992" lon="-6.586452">
        <ele>319.392</ele>
        <time>2019-06-22T19:02:54Z</time>
      </trkpt>
      <trkpt lat="40.019868" lon="-6.586115">
        <ele>319.076</ele>
        <time>2019-06-22T19:02:55Z</time>
      </trkpt>
      <trkpt lat="40.019745" lon="-6.585773">
        <ele>318.868</ele>
        <time>2019-06-22T19:02:56Z</time>
      </trkpt>
      <trkpt lat="40.019619" lon="-6.585434">
        <ele>318.610</ele>
        <time>2019-06-22T19:02:57Z</time>
      </trkpt>
      <trkpt lat="40.019494" lon="-6.585099">
        <ele>318.648</ele>
        <time>2019-06-22T19:02:58Z</time>
      </trkpt>
      <trkpt lat="40.019370" lon="-6.584777">
        <ele>318.317</ele>
        <time>2019-06-22T19:02:59Z</time>
      </trkpt>
      <trkpt lat="40.019251" lon="-6.584460">
        <ele>318.342</ele>
        <time>2019-06-22T19:03:00Z</time>
      </trkpt>
      <trkpt lat="40.019137" lon="-6.584142">
        <ele>318.395</ele>
        <time>2019-06-22T19:03:01Z</time>
      </trkpt>
      <trkpt lat="40.019023" lon="-6.583837">
        <ele>318.458</ele>
        <time>2019-06-22T19:03:02Z</time>
      </trkpt>
      <trkpt lat="40.018904" lon="-6.583531">
        <ele>318.852</ele>
        <time>2019-06-22T19:03:03Z</time>
      </trkpt>
      <trkpt lat="40.018790" lon="-6.583223">
        <ele>319.817</ele>
        <time>2019-06-22T19:03:04Z</time>
      </trkpt>
      <trkpt lat="40.018676" lon="-6.582914">
        <ele>321.208</ele>
        <time>2019-06-22T19:03:05Z</time>
      </trkpt>
      <trkpt lat="40.018559" lon="-6.582602">
        <ele>322.138</ele>
        <time>2019-06-22T19:03:06Z</time>
      </trkpt>
      <trkpt lat="40.018447" lon="-6.582292">
        <ele>323.582</ele>
        <time>2019-06-22T19:03:07Z</time>
      </trkpt>
      <trkpt lat="40.018336" lon="-6.581973">
        <ele>324.944</ele>
        <time>2019-06-22T19:03:08Z</time>
      </trkpt>
      <trkpt lat="40.018213" lon="-6.581654">
        <ele>325.216</ele>
        <time>2019-06-22T19:03:09Z</time>
      </trkpt>
      <trkpt lat="40.018094" lon="-6.581334">
        <ele>325.234</ele>
        <time>2019-06-22T19:03:10Z</time>
      </trkpt>
      <trkpt lat="40.017974" lon="-6.581012">
        <ele>324.973</ele>
        <time>2019-06-22T19:03:11Z</time>
      </trkpt>
      <trkpt lat="40.017857" lon="-6.580692">
        <ele>324.338</ele>
        <time>2019-06-22T19:03:12Z</time>
      </trkpt>
      <trkpt lat="40.017735" lon="-6.580379">
        <ele>323.311</ele>
        <time>2019-06-22T19:03:13Z</time>
      </trkpt>
      <trkpt lat="40.017620" lon="-6.580054">
        <ele>322.631</ele>
        <time>2019-06-22T19:03:14Z</time>
      </trkpt>
      <trkpt lat="40.017500" lon="-6.579736">
        <ele>322.061</ele>
        <time>2019-06-22T19:03:15Z</time>
      </trkpt>
      <trkpt lat="40.017376" lon="-6.579415">
        <ele>322.007</ele>
        <time>2019-06-22T19:03:16Z</time>
      </trkpt>
      <trkpt lat="40.017262" lon="-6.579091">
        <ele>322.108</ele>
        <time>2019-06-22T19:03:17Z</time>
      </trkpt>
      <trkpt lat="40.017148" lon="-6.578769">
        <ele>322.196</ele>
        <time>2019-06-22T19:03:18Z</time>
      </trkpt>
      <trkpt lat="40.017030" lon="-6.578449">
        <ele>322.190</ele>
        <time>2019-06-22T19:03:19Z</time>
      </trkpt>
      <trkpt lat="40.016915" lon="-6.578136">
        <ele>322.112</ele>
        <time>2019-06-22T19:03:20Z</time>
      </trkpt>
      <trkpt lat="40.016798" lon="-6.577825">
        <ele>322.124</ele>
        <time>2019-06-22T19:03:21Z</time>
      </trkpt>
      <trkpt lat="40.016682" lon="-6.577512">
        <ele>322.182</ele>
        <time>2019-06-22T19:03:22Z</time>
      </trkpt>
      <trkpt lat="40.016570" lon="-6.577202">
        <ele>322.611</ele>
        <time>2019-06-22T19:03:23Z</time>
      </trkpt>
      <trkpt lat="40.016456" lon="-6.576894">
        <ele>323.096</ele>
        <time>2019-06-22T19:03:24Z</time>
      </trkpt>
      <trkpt lat="40.016343" lon="-6.576585">
        <ele>323.699</ele>
        <time>2019-06-22T19:03:25Z</time>
      </trkpt>
      <trkpt lat="40.016233" lon="-6.576279">
        <ele>324.139</ele>
        <time>2019-06-22T19:03:26Z</time>
      </trkpt>
      <trkpt lat="40.016124" lon="-6.575974">
        <ele>324.401</ele>
        <time>2019-06-22T19:03:27Z</time>
      </trkpt>
      <trkpt lat="40.016014" lon="-6.575667">
        <ele>324.621</ele>
        <time>2019-06-22T19:03:28Z</time>
      </trkpt>
      <trkpt lat="40.015900" lon="-6.575361">
        <ele>324.908</ele>
        <time>2019-06-22T19:03:29Z</time>
      </trkpt>
      <trkpt lat="40.015786" lon="-6.575054">
        <ele>325.416</ele>
        <time>2019-06-22T19:03:30Z</time>
      </trkpt>
      <trkpt lat="40.015671" lon="-6.574750">
        <ele>326.230</ele>
        <time>2019-06-22T19:03:31Z</time>
      </trkpt>
      <trkpt lat="40.015557" lon="-6.574446">
        <ele>327.042</ele>
        <time>2019-06-22T19:03:32Z</time>
      </trkpt>
      <trkpt lat="40.015445" lon="-6.574139">
        <ele>327.584</ele>
        <time>2019-06-22T19:03:33Z</time>
      </trkpt>
      <trkpt lat="40.015329" lon="-6.573837">
        <ele>328.142</ele>
        <time>2019-06-22T19:03:34Z</time>
      </trkpt>
      <trkpt lat="40.015217" lon="-6.573530">
        <ele>328.741</ele>
        <time>2019-06-22T19:03:35Z</time>
      </trkpt>
      <trkpt lat="40.015105" lon="-6.573231">
        <ele>328.966</ele>
        <time>2019-06-22T19:03:36Z</time>
      </trkpt>
      <trkpt lat="40.014992" lon="-6.572921">
        <ele>329.279</ele>
        <time>2019-06-22T19:03:37Z</time>
      </trkpt>
      <trkpt lat="40.014878" lon="-6.572611">
        <ele>329.855</ele>
        <time>2019-06-22T19:03:38Z</time>
      </trkpt>
      <trkpt lat="40.014765" lon="-6.572301">
        <ele>330.107</ele>
        <time>2019-06-22T19:03:39Z</time>
      </trkpt>
      <trkpt lat="40.014647" lon="-6.571986">
        <ele>330.117</ele>
        <time>2019-06-22T19:03:40Z</time>
      </trkpt>
      <trkpt lat="40.014539" lon="-6.571682">
        <ele>330.408</ele>
        <time>2019-06-22T19:03:41Z</time>
      </trkpt>
      <trkpt lat="40.014424" lon="-6.571369">
        <ele>330.828</ele>
        <time>2019-06-22T19:03:42Z</time>
      </trkpt>
      <trkpt lat="40.014310" lon="-6.571061">
        <ele>331.022</ele>
        <time>2019-06-22T19:03:43Z</time>
      </trkpt>
      <trkpt lat="40.014198" lon="-6.570767">
        <ele>331.594</ele>
        <time>2019-06-22T19:03:44Z</time>
      </trkpt>
      <trkpt lat="40.014081" lon="-6.570461">
        <ele>332.026</ele>
        <time>2019-06-22T19:03:45Z</time>
      </trkpt>
      <trkpt lat="40.013965" lon="-6.570152">
        <ele>332.724</ele>
        <time>2019-06-22T19:03:46Z</time>
      </trkpt>
      <trkpt lat="40.013851" lon="-6.569852">
        <ele>333.563</ele>
        <time>2019-06-22T19:03:47Z</time>
      </trkpt>
      <trkpt lat="40.013740" lon="-6.569550">
        <ele>334.478</ele>
        <time>2019-06-22T19:03:48Z</time>
      </trkpt>
      <trkpt lat="40.013630" lon="-6.569252">
        <ele>335.241</ele>
        <time>2019-06-22T19:03:49Z</time>
      </trkpt>
      <trkpt lat="40.013526" lon="-6.568949">
        <ele>336.018</ele>
        <time>2019-06-22T19:03:50Z</time>
      </trkpt>
      <trkpt lat="40.013438" lon="-6.568638">
        <ele>337.198</ele>
        <time>2019-06-22T19:03:51Z</time>
      </trkpt>
      <trkpt lat="40.013367" lon="-6.568321">
        <ele>338.917</ele>
        <time>2019-06-22T19:03:52Z</time>
      </trkpt>
      <trkpt lat="40.013311" lon="-6.567998">
        <ele>340.308</ele>
        <time>2019-06-22T19:03:53Z</time>
      </trkpt>
      <trkpt lat="40.013271" lon="-6.567675">
        <ele>341.644</ele>
        <time>2019-06-22T19:03:54Z</time>
      </trkpt>
      <trkpt lat="40.013244" lon="-6.567346">
        <ele>343.558</ele>
        <time>2019-06-22T19:03:55Z</time>
      </trkpt>
      <trkpt lat="40.013240" lon="-6.567014">
        <ele>344.630</ele>
        <time>2019-06-22T19:03:56Z</time>
      </trkpt>
      <trkpt lat="40.013257" lon="-6.566672">
        <ele>345.032</ele>
        <time>2019-06-22T19:03:57Z</time>
      </trkpt>
      <trkpt lat="40.013289" lon="-6.566330">
        <ele>345.910</ele>
        <time>2019-06-22T19:03:58Z</time>
      </trkpt>
      <trkpt lat="40.013337" lon="-6.566002">
        <ele>346.829</ele>
        <time>2019-06-22T19:03:59Z</time>
      </trkpt>
      <trkpt lat="40.013389" lon="-6.565684">
        <ele>347.744</ele>
        <time>2019-06-22T19:04:00Z</time>
      </trkpt>
      <trkpt lat="40.013461" lon="-6.565394">
        <ele>348.517</ele>
        <time>2019-06-22T19:04:01Z</time>
      </trkpt>
      <trkpt lat="40.013556" lon="-6.565108">
        <ele>349.372</ele>
        <time>2019-06-22T19:04:02Z</time>
      </trkpt>
      <trkpt lat="40.013660" lon="-6.564874">
        <ele>349.713</ele>
        <time>2019-06-22T19:04:03Z</time>
      </trkpt>
      <trkpt lat="40.013764" lon="-6.564630">
        <ele>350.014</ele>
        <time>2019-06-22T19:04:04Z</time>
      </trkpt>
      <trkpt lat="40.013867" lon="-6.564398">
        <ele>350.008</ele>
        <time>2019-06-22T19:04:05Z</time>
      </trkpt>
      <trkpt lat="40.013956" lon="-6.564181">
        <ele>350.340</ele>
        <time>2019-06-22T19:04:06Z</time>
      </trkpt>
      <trkpt lat="40.014030" lon="-6.563963">
        <ele>350.774</ele>
        <time>2019-06-22T19:04:07Z</time>
      </trkpt>
      <trkpt lat="40.014087" lon="-6.563745">
        <ele>351.286</ele>
        <time>2019-06-22T19:04:08Z</time>
      </trkpt>
      <trkpt lat="40.014133" lon="-6.563518">
        <ele>351.868</ele>
        <time>2019-06-22T19:04:09Z</time>
      </trkpt>
      <trkpt lat="40.014163" lon="-6.563281">
        <ele>352.216</ele>
        <time>2019-06-22T19:04:10Z</time>
      </trkpt>
      <trkpt lat="40.014171" lon="-6.563045">
        <ele>352.255</ele>
        <time>2019-06-22T19:04:11Z</time>
      </trkpt>
      <trkpt lat="40.014165" lon="-6.562812">
        <ele>351.910</ele>
        <time>2019-06-22T19:04:12Z</time>
      </trkpt>
      <trkpt lat="40.014138" lon="-6.562590">
        <ele>351.353</ele>
        <time>2019-06-22T19:04:13Z</time>
      </trkpt>
      <trkpt lat="40.014094" lon="-6.562371">
        <ele>351.355</ele>
        <time>2019-06-22T19:04:14Z</time>
      </trkpt>
      <trkpt lat="40.014040" lon="-6.562168">
        <ele>351.307</ele>
        <time>2019-06-22T19:04:15Z</time>
      </trkpt>
      <trkpt lat="40.013969" lon="-6.561979">
        <ele>352.017</ele>
        <time>2019-06-22T19:04:16Z</time>
      </trkpt>
      <trkpt lat="40.013896" lon="-6.561812">
        <ele>352.708</ele>
        <time>2019-06-22T19:04:17Z</time>
      </trkpt>
      <trkpt lat="40.013815" lon="-6.561659">
        <ele>354.098</ele>
        <time>2019-06-22T19:04:18Z</time>
      </trkpt>
      <trkpt lat="40.013742" lon="-6.561537">
        <ele>355.132</ele>
        <time>2019-06-22T19:04:19Z</time>
      </trkpt>
      <trkpt lat="40.013663" lon="-6.561410">
        <ele>355.924</ele>
        <time>2019-06-22T19:04:20Z</time>
      </trkpt>
      <trkpt lat="40.013581" lon="-6.561313">
        <ele>356.366</ele>
        <time>2019-06-22T19:04:21Z</time>
      </trkpt>
      <trkpt lat="40.013498" lon="-6.561249">
        <ele>356.764</ele>
        <time>2019-06-22T19:04:22Z</time>
      </trkpt>
      <trkpt lat="40.013412" lon="-6.561214">
        <ele>356.913</ele>
        <time>2019-06-22T19:04:23Z</time>
      </trkpt>
      <trkpt lat="40.013319" lon="-6.561196">
        <ele>356.938</ele>
        <time>2019-06-22T19:04:24Z</time>
      </trkpt>
      <trkpt lat="40.013204" lon="-6.561196">
        <ele>356.441</ele>
        <time>2019-06-22T19:04:25Z</time>
      </trkpt>
      <trkpt lat="40.013097" lon="-6.561178">
        <ele>356.236</ele>
        <time>2019-06-22T19:04:26Z</time>
      </trkpt>
      <trkpt lat="40.013008" lon="-6.561125">
        <ele>356.217</ele>
        <time>2019-06-22T19:04:27Z</time>
      </trkpt>
      <trkpt lat="40.012923" lon="-6.561049">
        <ele>356.218</ele>
        <time>2019-06-22T19:04:28Z</time>
      </trkpt>
      <trkpt lat="40.012848" lon="-6.560945">
        <ele>356.208</ele>
        <time>2019-06-22T19:04:29Z</time>
      </trkpt>
      <trkpt lat="40.012772" lon="-6.560843">
        <ele>356.556</ele>
        <time>2019-06-22T19:04:30Z</time>
      </trkpt>
      <trkpt lat="40.012680" lon="-6.560764">
        <ele>356.520</ele>
        <time>2019-06-22T19:04:31Z</time>
      </trkpt>
      <trkpt lat="40.012580" lon="-6.560698">
        <ele>356.572</ele>
        <time>2019-06-22T19:04:32Z</time>
      </trkpt>
      <trkpt lat="40.012468" lon="-6.560666">
        <ele>356.464</ele>
        <time>2019-06-22T19:04:33Z</time>
      </trkpt>
      <trkpt lat="40.012301" lon="-6.560689">
        <ele>356.292</ele>
        <time>2019-06-22T19:04:34Z</time>
      </trkpt>
      <trkpt lat="40.012146" lon="-6.560686">
        <ele>355.941</ele>
        <time>2019-06-22T19:04:35Z</time>
      </trkpt>
      <trkpt lat="40.011995" lon="-6.560681">
        <ele>355.126</ele>
        <time>2019-06-22T19:04:36Z</time>
      </trkpt>
      <trkpt lat="40.011852" lon="-6.560672">
        <ele>354.279</ele>
        <time>2019-06-22T19:04:37Z</time>
      </trkpt>
      <trkpt lat="40.011701" lon="-6.560675">
        <ele>352.796</ele>
        <time>2019-06-22T19:04:38Z</time>
      </trkpt>
      <trkpt lat="40.011555" lon="-6.560685">
        <ele>351.231</ele>
        <time>2019-06-22T19:04:39Z</time>
      </trkpt>
      <trkpt lat="40.011410" lon="-6.560693">
        <ele>350.124</ele>
        <time>2019-06-22T19:04:40Z</time>
      </trkpt>
      <trkpt lat="40.011275" lon="-6.560686">
        <ele>349.208</ele>
        <time>2019-06-22T19:04:41Z</time>
      </trkpt>
      <trkpt lat="40.011140" lon="-6.560679">
        <ele>348.782</ele>
        <time>2019-06-22T19:04:42Z</time>
      </trkpt>
      <trkpt lat="40.010991" lon="-6.560675">
        <ele>348.756</ele>
        <time>2019-06-22T19:04:43Z</time>
      </trkpt>
      <trkpt lat="40.010803" lon="-6.560698">
        <ele>348.668</ele>
        <time>2019-06-22T19:04:44Z</time>
      </trkpt>
      <trkpt lat="40.010616" lon="-6.560736">
        <ele>348.150</ele>
        <time>2019-06-22T19:04:45Z</time>
      </trkpt>
      <trkpt lat="40.010482" lon="-6.560735">
        <ele>347.058</ele>
        <time>2019-06-22T19:04:46Z</time>
      </trkpt>
      <trkpt lat="40.010334" lon="-6.560742">
        <ele>346.047</ele>
        <time>2019-06-22T19:04:47Z</time>
      </trkpt>
      <trkpt lat="40.010200" lon="-6.560740">
        <ele>344.912</ele>
        <time>2019-06-22T19:04:48Z</time>
      </trkpt>
      <trkpt lat="40.010043" lon="-6.560747">
        <ele>343.895</ele>
        <time>2019-06-22T19:04:49Z</time>
      </trkpt>
      <trkpt lat="40.009908" lon="-6.560742">
        <ele>342.921</ele>
        <time>2019-06-22T19:04:50Z</time>
      </trkpt>
      <trkpt lat="40.009779" lon="-6.560748">
        <ele>342.541</ele>
        <time>2019-06-22T19:04:51Z</time>
      </trkpt>
      <trkpt lat="40.009668" lon="-6.560764">
        <ele>342.005</ele>
        <time>2019-06-22T19:04:52Z</time>
      </trkpt>
      <trkpt lat="40.009571" lon="-6.560795">
        <ele>341.508</ele>
        <time>2019-06-22T19:04:53Z</time>
      </trkpt>
      <trkpt lat="40.009486" lon="-6.560839">
        <ele>341.135</ele>
        <time>2019-06-22T19:04:54Z</time>
      </trkpt>
      <trkpt lat="40.009408" lon="-6.560900">
        <ele>341.079</ele>
        <time>2019-06-22T19:04:55Z</time>
      </trkpt>
      <trkpt lat="40.009347" lon="-6.560984">
        <ele>341.151</ele>
        <time>2019-06-22T19:04:56Z</time>
      </trkpt>
      <trkpt lat="40.009292" lon="-6.561077">
        <ele>341.123</ele>
        <time>2019-06-22T19:04:57Z</time>
      </trkpt>
      <trkpt lat="40.009230" lon="-6.561159">
        <ele>341.931</ele>
        <time>2019-06-22T19:04:58Z</time>
      </trkpt>
      <trkpt lat="40.009158" lon="-6.561217">
        <ele>342.540</ele>
        <time>2019-06-22T19:04:59Z</time>
      </trkpt>
      <trkpt lat="40.009081" lon="-6.561296">
        <ele>342.985</ele>
        <time>2019-06-22T19:05:00Z</time>
      </trkpt>
      <trkpt lat="40.009019" lon="-6.561294">
        <ele>343.498</ele>
        <time>2019-06-22T19:05:01Z</time>
      </trkpt>
      <trkpt lat="40.008945" lon="-6.561284">
        <ele>343.437</ele>
        <time>2019-06-22T19:05:02Z</time>
      </trkpt>
      <trkpt lat="40.008848" lon="-6.561249">
        <ele>343.549</ele>
        <time>2019-06-22T19:05:03Z</time>
      </trkpt>
      <trkpt lat="40.008779" lon="-6.561203">
        <ele>343.513</ele>
        <time>2019-06-22T19:05:04Z</time>
      </trkpt>
      <trkpt lat="40.008707" lon="-6.561135">
        <ele>343.708</ele>
        <time>2019-06-22T19:05:05Z</time>
      </trkpt>
      <trkpt lat="40.008648" lon="-6.561053">
        <ele>343.776</ele>
        <time>2019-06-22T19:05:06Z</time>
      </trkpt>
      <trkpt lat="40.008607" lon="-6.560951">
        <ele>343.810</ele>
        <time>2019-06-22T19:05:07Z</time>
      </trkpt>
      <trkpt lat="40.008583" lon="-6.560839">
        <ele>344.392</ele>
        <time>2019-06-22T19:05:08Z</time>
      </trkpt>
      <trkpt lat="40.008574" lon="-6.560715">
        <ele>344.424</ele>
        <time>2019-06-22T19:05:09Z</time>
      </trkpt>
      <trkpt lat="40.008583" lon="-6.560594">
        <ele>344.622</ele>
        <time>2019-06-22T19:05:10Z</time>
      </trkpt>
      <trkpt lat="40.008603" lon="-6.560479">
        <ele>344.671</ele>
        <time>2019-06-22T19:05:11Z</time>
      </trkpt>
      <trkpt lat="40.008607" lon="-6.560368">
        <ele>344.796</ele>
        <time>2019-06-22T19:05:12Z</time>
      </trkpt>
      <trkpt lat="40.008594" lon="-6.560257">
        <ele>344.789</ele>
        <time>2019-06-22T19:05:13Z</time>
      </trkpt>
      <trkpt lat="40.008562" lon="-6.560170">
        <ele>344.652</ele>
        <time>2019-06-22T19:05:14Z</time>
      </trkpt>
      <trkpt lat="40.008510" lon="-6.560074">
        <ele>344.353</ele>
        <time>2019-06-22T19:05:15Z</time>
      </trkpt>
      <trkpt lat="40.008445" lon="-6.559985">
        <ele>344.008</ele>
        <time>2019-06-22T19:05:16Z</time>
      </trkpt>
      <trkpt lat="40.008385" lon="-6.559897">
        <ele>343.708</ele>
        <time>2019-06-22T19:05:17Z</time>
      </trkpt>
      <trkpt lat="40.008323" lon="-6.559819">
        <ele>343.358</ele>
        <time>2019-06-22T19:05:18Z</time>
      </trkpt>
      <trkpt lat="40.008258" lon="-6.559741">
        <ele>343.152</ele>
        <time>2019-06-22T19:05:19Z</time>
      </trkpt>
      <trkpt lat="40.008191" lon="-6.559666">
        <ele>343.154</ele>
        <time>2019-06-22T19:05:20Z</time>
      </trkpt>
      <trkpt lat="40.008119" lon="-6.559595">
        <ele>343.246</ele>
        <time>2019-06-22T19:05:21Z</time>
      </trkpt>
      <trkpt lat="40.008049" lon="-6.559527">
        <ele>343.274</ele>
        <time>2019-06-22T19:05:22Z</time>
      </trkpt>
      <trkpt lat="40.007974" lon="-6.559458">
        <ele>343.553</ele>
        <time>2019-06-22T19:05:23Z</time>
      </trkpt>
      <trkpt lat="40.007899" lon="-6.559382">
        <ele>343.578</ele>
        <time>2019-06-22T19:05:24Z</time>
      </trkpt>
      <trkpt lat="40.007813" lon="-6.559302">
        <ele>343.571</ele>
        <time>2019-06-22T19:05:25Z</time>
      </trkpt>
      <trkpt lat="40.007727" lon="-6.559213">
        <ele>343.525</ele>
        <time>2019-06-22T19:05:26Z</time>
      </trkpt>
      <trkpt lat="40.007633" lon="-6.559122">
        <ele>343.526</ele>
        <time>2019-06-22T19:05:27Z</time>
      </trkpt>
      <trkpt lat="40.007528" lon="-6.559025">
        <ele>343.508</ele>
        <time>2019-06-22T19:05:28Z</time>
      </trkpt>
      <trkpt lat="40.007420" lon="-6.558921">
        <ele>343.408</ele>
        <time>2019-06-22T19:05:29Z</time>
      </trkpt>
      <trkpt lat="40.007311" lon="-6.558819">
        <ele>343.315</ele>
        <time>2019-06-22T19:05:30Z</time>
      </trkpt>
      <trkpt lat="40.007195" lon="-6.558710">
        <ele>343.079</ele>
        <time>2019-06-22T19:05:31Z</time>
      </trkpt>
      <trkpt lat="40.007078" lon="-6.558595">
        <ele>342.891</ele>
        <time>2019-06-22T19:05:32Z</time>
      </trkpt>
      <trkpt lat="40.006962" lon="-6.558472">
        <ele>342.683</ele>
        <time>2019-06-22T19:05:33Z</time>
      </trkpt>
      <trkpt lat="40.006842" lon="-6.558347">
        <ele>342.411</ele>
        <time>2019-06-22T19:05:34Z</time>
      </trkpt>
      <trkpt lat="40.006721" lon="-6.558213">
        <ele>342.460</ele>
        <time>2019-06-22T19:05:35Z</time>
      </trkpt>
      <trkpt lat="40.006609" lon="-6.558073">
        <ele>342.365</ele>
        <time>2019-06-22T19:05:36Z</time>
      </trkpt>
      <trkpt lat="40.006506" lon="-6.557931">
        <ele>342.278</ele>
        <time>2019-06-22T19:05:37Z</time>
      </trkpt>
      <trkpt lat="40.006409" lon="-6.557781">
        <ele>342.023</ele>
        <time>2019-06-22T19:05:38Z</time>
      </trkpt>
      <trkpt lat="40.006321" lon="-6.557625">
        <ele>342.083</ele>
        <time>2019-06-22T19:05:39Z</time>
      </trkpt>
      <trkpt lat="40.006240" lon="-6.557465">
        <ele>342.111</ele>
        <time>2019-06-22T19:05:40Z</time>
      </trkpt>
      <trkpt lat="40.006169" lon="-6.557288">
        <ele>342.308</ele>
        <time>2019-06-22T19:05:41Z</time>
      </trkpt>
      <trkpt lat="40.006104" lon="-6.557104">
        <ele>342.595</ele>
        <time>2019-06-22T19:05:42Z</time>
      </trkpt>
      <trkpt lat="40.006041" lon="-6.556911">
        <ele>343.139</ele>
        <time>2019-06-22T19:05:43Z</time>
      </trkpt>
      <trkpt lat="40.005982" lon="-6.556709">
        <ele>343.661</ele>
        <time>2019-06-22T19:05:44Z</time>
      </trkpt>
      <trkpt lat="40.005924" lon="-6.556508">
        <ele>344.173</ele>
        <time>2019-06-22T19:05:45Z</time>
      </trkpt>
      <trkpt lat="40.005871" lon="-6.556289">
        <ele>344.181</ele>
        <time>2019-06-22T19:05:46Z</time>
      </trkpt>
      <trkpt lat="40.005814" lon="-6.556082">
        <ele>344.110</ele>
        <time>2019-06-22T19:05:47Z</time>
      </trkpt>
      <trkpt lat="40.005762" lon="-6.555875">
        <ele>343.725</ele>
        <time>2019-06-22T19:05:48Z</time>
      </trkpt>
      <trkpt lat="40.005700" lon="-6.555673">
        <ele>343.578</ele>
        <time>2019-06-22T19:05:49Z</time>
      </trkpt>
      <trkpt lat="40.005625" lon="-6.555464">
        <ele>343.411</ele>
        <time>2019-06-22T19:05:50Z</time>
      </trkpt>
      <trkpt lat="40.005548" lon="-6.555254">
        <ele>343.321</ele>
        <time>2019-06-22T19:05:51Z</time>
      </trkpt>
      <trkpt lat="40.005459" lon="-6.555053">
        <ele>343.103</ele>
        <time>2019-06-22T19:05:52Z</time>
      </trkpt>
      <trkpt lat="40.005359" lon="-6.554855">
        <ele>342.608</ele>
        <time>2019-06-22T19:05:53Z</time>
      </trkpt>
      <trkpt lat="40.005254" lon="-6.554660">
        <ele>341.574</ele>
        <time>2019-06-22T19:05:54Z</time>
      </trkpt>
      <trkpt lat="40.005153" lon="-6.554469">
        <ele>339.798</ele>
        <time>2019-06-22T19:05:55Z</time>
      </trkpt>
      <trkpt lat="40.005058" lon="-6.554295">
        <ele>338.370</ele>
        <time>2019-06-22T19:05:56Z</time>
      </trkpt>
      <trkpt lat="40.004960" lon="-6.554115">
        <ele>337.052</ele>
        <time>2019-06-22T19:05:57Z</time>
      </trkpt>
      <trkpt lat="40.004853" lon="-6.553929">
        <ele>335.610</ele>
        <time>2019-06-22T19:05:58Z</time>
      </trkpt>
      <trkpt lat="40.004751" lon="-6.553746">
        <ele>334.769</ele>
        <time>2019-06-22T19:05:59Z</time>
      </trkpt>
      <trkpt lat="40.004640" lon="-6.553574">
        <ele>333.324</ele>
        <time>2019-06-22T19:06:00Z</time>
      </trkpt>
      <trkpt lat="40.004517" lon="-6.553411">
        <ele>331.787</ele>
        <time>2019-06-22T19:06:01Z</time>
      </trkpt>
      <trkpt lat="40.004386" lon="-6.553252">
        <ele>330.853</ele>
        <time>2019-06-22T19:06:02Z</time>
      </trkpt>
      <trkpt lat="40.004245" lon="-6.553101">
        <ele>330.404</ele>
        <time>2019-06-22T19:06:03Z</time>
      </trkpt>
      <trkpt lat="40.004104" lon="-6.552957">
        <ele>329.814</ele>
        <time>2019-06-22T19:06:04Z</time>
      </trkpt>
      <trkpt lat="40.003965" lon="-6.552825">
        <ele>329.408</ele>
        <time>2019-06-22T19:06:05Z</time>
      </trkpt>
      <trkpt lat="40.003820" lon="-6.552692">
        <ele>329.388</ele>
        <time>2019-06-22T19:06:06Z</time>
      </trkpt>
      <trkpt lat="40.003661" lon="-6.552564">
        <ele>328.542</ele>
        <time>2019-06-22T19:06:07Z</time>
      </trkpt>
      <trkpt lat="40.003508" lon="-6.552441">
        <ele>327.214</ele>
        <time>2019-06-22T19:06:08Z</time>
      </trkpt>
      <trkpt lat="40.003354" lon="-6.552310">
        <ele>326.176</ele>
        <time>2019-06-22T19:06:09Z</time>
      </trkpt>
      <trkpt lat="40.003198" lon="-6.552175">
        <ele>325.324</ele>
        <time>2019-06-22T19:06:10Z</time>
      </trkpt>
      <trkpt lat="40.003038" lon="-6.552049">
        <ele>324.223</ele>
        <time>2019-06-22T19:06:11Z</time>
      </trkpt>
      <trkpt lat="40.002880" lon="-6.551917">
        <ele>323.838</ele>
        <time>2019-06-22T19:06:12Z</time>
      </trkpt>
      <trkpt lat="40.002722" lon="-6.551788">
        <ele>323.521</ele>
        <time>2019-06-22T19:06:13Z</time>
      </trkpt>
      <trkpt lat="40.002561" lon="-6.551661">
        <ele>323.348</ele>
        <time>2019-06-22T19:06:14Z</time>
      </trkpt>
      <trkpt lat="40.002395" lon="-6.551537">
        <ele>323.361</ele>
        <time>2019-06-22T19:06:15Z</time>
      </trkpt>
      <trkpt lat="40.002222" lon="-6.551417">
        <ele>323.317</ele>
        <time>2019-06-22T19:06:16Z</time>
      </trkpt>
      <trkpt lat="40.002042" lon="-6.551311">
        <ele>322.708</ele>
        <time>2019-06-22T19:06:17Z</time>
      </trkpt>
      <trkpt lat="40.001859" lon="-6.551208">
        <ele>322.417</ele>
        <time>2019-06-22T19:06:18Z</time>
      </trkpt>
      <trkpt lat="40.001677" lon="-6.551118">
        <ele>322.241</ele>
        <time>2019-06-22T19:06:19Z</time>
      </trkpt>
      <trkpt lat="40.001491" lon="-6.551027">
        <ele>321.733</ele>
        <time>2019-06-22T19:06:20Z</time>
      </trkpt>
      <trkpt lat="40.001319" lon="-6.550941">
        <ele>321.055</ele>
        <time>2019-06-22T19:06:21Z</time>
      </trkpt>
      <trkpt lat="40.001151" lon="-6.550859">
        <ele>320.773</ele>
        <time>2019-06-22T19:06:22Z</time>
      </trkpt>
      <trkpt lat="40.000981" lon="-6.550760">
        <ele>319.922</ele>
        <time>2019-06-22T19:06:23Z</time>
      </trkpt>
      <trkpt lat="40.000820" lon="-6.550649">
        <ele>319.067</ele>
        <time>2019-06-22T19:06:24Z</time>
      </trkpt>
      <trkpt lat="40.000661" lon="-6.550548">
        <ele>318.340</ele>
        <time>2019-06-22T19:06:25Z</time>
      </trkpt>
      <trkpt lat="40.000510" lon="-6.550433">
        <ele>317.873</ele>
        <time>2019-06-22T19:06:26Z</time>
      </trkpt>
      <trkpt lat="40.000363" lon="-6.550320">
        <ele>317.885</ele>
        <time>2019-06-22T19:06:27Z</time>
      </trkpt>
      <trkpt lat="40.000221" lon="-6.550178">
        <ele>317.813</ele>
        <time>2019-06-22T19:06:28Z</time>
      </trkpt>
      <trkpt lat="40.000087" lon="-6.550025">
        <ele>318.008</ele>
        <time>2019-06-22T19:06:29Z</time>
      </trkpt>
      <trkpt lat="39.999957" lon="-6.549857">
        <ele>318.080</ele>
        <time>2019-06-22T19:06:30Z</time>
      </trkpt>
      <trkpt lat="39.999836" lon="-6.549676">
        <ele>317.834</ele>
        <time>2019-06-22T19:06:31Z</time>
      </trkpt>
      <trkpt lat="39.999722" lon="-6.549487">
        <ele>317.376</ele>
        <time>2019-06-22T19:06:32Z</time>
      </trkpt>
      <trkpt lat="39.999616" lon="-6.549298">
        <ele>316.588</ele>
        <time>2019-06-22T19:06:33Z</time>
      </trkpt>
      <trkpt lat="39.999514" lon="-6.549113">
        <ele>315.056</ele>
        <time>2019-06-22T19:06:34Z</time>
      </trkpt>
      <trkpt lat="39.999415" lon="-6.548927">
        <ele>313.115</ele>
        <time>2019-06-22T19:06:35Z</time>
      </trkpt>
      <trkpt lat="39.999318" lon="-6.548736">
        <ele>311.090</ele>
        <time>2019-06-22T19:06:36Z</time>
      </trkpt>
      <trkpt lat="39.999211" lon="-6.548548">
        <ele>309.523</ele>
        <time>2019-06-22T19:06:37Z</time>
      </trkpt>
      <trkpt lat="39.999102" lon="-6.548367">
        <ele>308.612</ele>
        <time>2019-06-22T19:06:38Z</time>
      </trkpt>
      <trkpt lat="39.998989" lon="-6.548185">
        <ele>307.832</ele>
        <time>2019-06-22T19:06:39Z</time>
      </trkpt>
      <trkpt lat="39.998869" lon="-6.548013">
        <ele>307.305</ele>
        <time>2019-06-22T19:06:40Z</time>
      </trkpt>
      <trkpt lat="39.998732" lon="-6.547850">
        <ele>306.808</ele>
        <time>2019-06-22T19:06:41Z</time>
      </trkpt>
      <trkpt lat="39.998586" lon="-6.547697">
        <ele>306.244</ele>
        <time>2019-06-22T19:06:42Z</time>
      </trkpt>
      <trkpt lat="39.998446" lon="-6.547546">
        <ele>305.198</ele>
        <time>2019-06-22T19:06:43Z</time>
      </trkpt>
      <trkpt lat="39.998293" lon="-6.547402">
        <ele>303.850</ele>
        <time>2019-06-22T19:06:44Z</time>
      </trkpt>
      <trkpt lat="39.998141" lon="-6.547263">
        <ele>302.672</ele>
        <time>2019-06-22T19:06:45Z</time>
      </trkpt>
      <trkpt lat="39.997989" lon="-6.547123">
        <ele>302.020</ele>
        <time>2019-06-22T19:06:46Z</time>
      </trkpt>
      <trkpt lat="39.997839" lon="-6.546981">
        <ele>301.279</ele>
        <time>2019-06-22T19:06:47Z</time>
      </trkpt>
      <trkpt lat="39.997695" lon="-6.546833">
        <ele>300.914</ele>
        <time>2019-06-22T19:06:48Z</time>
      </trkpt>
      <trkpt lat="39.997559" lon="-6.546678">
        <ele>300.527</ele>
        <time>2019-06-22T19:06:49Z</time>
      </trkpt>
      <trkpt lat="39.997429" lon="-6.546515">
        <ele>300.441</ele>
        <time>2019-06-22T19:06:50Z</time>
      </trkpt>
      <trkpt lat="39.997304" lon="-6.546348">
        <ele>300.181</ele>
        <time>2019-06-22T19:06:51Z</time>
      </trkpt>
      <trkpt lat="39.997186" lon="-6.546163">
        <ele>299.509</ele>
        <time>2019-06-22T19:06:52Z</time>
      </trkpt>
      <trkpt lat="39.997071" lon="-6.545963">
        <ele>298.408</ele>
        <time>2019-06-22T19:06:53Z</time>
      </trkpt>
      <trkpt lat="39.996972" lon="-6.545748">
        <ele>297.697</ele>
        <time>2019-06-22T19:06:54Z</time>
      </trkpt>
      <trkpt lat="39.996882" lon="-6.545523">
        <ele>296.341</ele>
        <time>2019-06-22T19:06:55Z</time>
      </trkpt>
      <trkpt lat="39.996795" lon="-6.545295">
        <ele>294.863</ele>
        <time>2019-06-22T19:06:56Z</time>
      </trkpt>
      <trkpt lat="39.996722" lon="-6.545070">
        <ele>293.365</ele>
        <time>2019-06-22T19:06:57Z</time>
      </trkpt>
      <trkpt lat="39.996655" lon="-6.544842">
        <ele>291.653</ele>
        <time>2019-06-22T19:06:58Z</time>
      </trkpt>
      <trkpt lat="39.996589" lon="-6.544619">
        <ele>289.842</ele>
        <time>2019-06-22T19:06:59Z</time>
      </trkpt>
      <trkpt lat="39.996520" lon="-6.544386">
        <ele>288.187</ele>
        <time>2019-06-22T19:07:00Z</time>
      </trkpt>
      <trkpt lat="39.996459" lon="-6.544153">
        <ele>286.930</ele>
        <time>2019-06-22T19:07:01Z</time>
      </trkpt>
      <trkpt lat="39.996392" lon="-6.543941">
        <ele>286.255</ele>
        <time>2019-06-22T19:07:02Z</time>
      </trkpt>
      <trkpt lat="39.996331" lon="-6.543726">
        <ele>286.207</ele>
        <time>2019-06-22T19:07:03Z</time>
      </trkpt>
      <trkpt lat="39.996272" lon="-6.543502">
        <ele>286.317</ele>
        <time>2019-06-22T19:07:04Z</time>
      </trkpt>
      <trkpt lat="39.996222" lon="-6.543271">
        <ele>286.608</ele>
        <time>2019-06-22T19:07:05Z</time>
      </trkpt>
      <trkpt lat="39.996181" lon="-6.543024">
        <ele>287.348</ele>
        <time>2019-06-22T19:07:06Z</time>
      </trkpt>
      <trkpt lat="39.996157" lon="-6.542770">
        <ele>287.442</ele>
        <time>2019-06-22T19:07:07Z</time>
      </trkpt>
      <trkpt lat="39.996152" lon="-6.542511">
        <ele>287.484</ele>
        <time>2019-06-22T19:07:08Z</time>
      </trkpt>
      <trkpt lat="39.996156" lon="-6.542235">
        <ele>287.346</ele>
        <time>2019-06-22T19:07:09Z</time>
      </trkpt>
      <trkpt lat="39.996185" lon="-6.541974">
        <ele>287.374</ele>
        <time>2019-06-22T19:07:10Z</time>
      </trkpt>
      <trkpt lat="39.996227" lon="-6.541706">
        <ele>287.443</ele>
        <time>2019-06-22T19:07:11Z</time>
      </trkpt>
      <trkpt lat="39.996289" lon="-6.541446">
        <ele>288.038</ele>
        <time>2019-06-22T19:07:12Z</time>
      </trkpt>
      <trkpt lat="39.996367" lon="-6.541205">
        <ele>289.161</ele>
        <time>2019-06-22T19:07:13Z</time>
      </trkpt>
      <trkpt lat="39.996439" lon="-6.540971">
        <ele>290.134</ele>
        <time>2019-06-22T19:07:14Z</time>
      </trkpt>
      <trkpt lat="39.996506" lon="-6.540745">
        <ele>291.355</ele>
        <time>2019-06-22T19:07:15Z</time>
      </trkpt>
      <trkpt lat="39.996570" lon="-6.540523">
        <ele>292.310</ele>
        <time>2019-06-22T19:07:16Z</time>
      </trkpt>
      <trkpt lat="39.996632" lon="-6.540293">
        <ele>293.008</ele>
        <time>2019-06-22T19:07:17Z</time>
      </trkpt>
      <trkpt lat="39.996685" lon="-6.540059">
        <ele>293.446</ele>
        <time>2019-06-22T19:07:18Z</time>
      </trkpt>
      <trkpt lat="39.996722" lon="-6.539825">
        <ele>293.410</ele>
        <time>2019-06-22T19:07:19Z</time>
      </trkpt>
      <trkpt lat="39.996746" lon="-6.539584">
        <ele>293.622</ele>
        <time>2019-06-22T19:07:20Z</time>
      </trkpt>
      <trkpt lat="39.996755" lon="-6.539334">
        <ele>293.644</ele>
        <time>2019-06-22T19:07:21Z</time>
      </trkpt>
      <trkpt lat="39.996752" lon="-6.539092">
        <ele>294.252</ele>
        <time>2019-06-22T19:07:22Z</time>
      </trkpt>
      <trkpt lat="39.996754" lon="-6.538839">
        <ele>294.991</ele>
        <time>2019-06-22T19:07:23Z</time>
      </trkpt>
      <trkpt lat="39.996704" lon="-6.538597">
        <ele>295.856</ele>
        <time>2019-06-22T19:07:24Z</time>
      </trkpt>
      <trkpt lat="39.996643" lon="-6.538357">
        <ele>296.489</ele>
        <time>2019-06-22T19:07:25Z</time>
      </trkpt>
      <trkpt lat="39.996566" lon="-6.538122">
        <ele>296.817</ele>
        <time>2019-06-22T19:07:26Z</time>
      </trkpt>
      <trkpt lat="39.996471" lon="-6.537897">
        <ele>296.887</ele>
        <time>2019-06-22T19:07:27Z</time>
      </trkpt>
      <trkpt lat="39.996360" lon="-6.537675">
        <ele>296.215</ele>
        <time>2019-06-22T19:07:28Z</time>
      </trkpt>
      <trkpt lat="39.996247" lon="-6.537477">
        <ele>295.208</ele>
        <time>2019-06-22T19:07:29Z</time>
      </trkpt>
      <trkpt lat="39.996122" lon="-6.537284">
        <ele>293.834</ele>
        <time>2019-06-22T19:07:30Z</time>
      </trkpt>
      <trkpt lat="39.995995" lon="-6.537085">
        <ele>292.498</ele>
        <time>2019-06-22T19:07:31Z</time>
      </trkpt>
      <trkpt lat="39.995870" lon="-6.536892">
        <ele>291.270</ele>
        <time>2019-06-22T19:07:32Z</time>
      </trkpt>
      <trkpt lat="39.995747" lon="-6.536693">
        <ele>290.352</ele>
        <time>2019-06-22T19:07:33Z</time>
      </trkpt>
      <trkpt lat="39.995617" lon="-6.536493">
        <ele>289.340</ele>
        <time>2019-06-22T19:07:34Z</time>
      </trkpt>
      <trkpt lat="39.995488" lon="-6.536286">
        <ele>289.119</ele>
        <time>2019-06-22T19:07:35Z</time>
      </trkpt>
      <trkpt lat="39.995363" lon="-6.536055">
        <ele>289.094</ele>
        <time>2019-06-22T19:07:36Z</time>
      </trkpt>
      <trkpt lat="39.995247" lon="-6.535816">
        <ele>288.757</ele>
        <time>2019-06-22T19:07:37Z</time>
      </trkpt>
      <trkpt lat="39.995135" lon="-6.535567">
        <ele>287.815</ele>
        <time>2019-06-22T19:07:38Z</time>
      </trkpt>
      <trkpt lat="39.995031" lon="-6.535314">
        <ele>287.465</ele>
        <time>2019-06-22T19:07:39Z</time>
      </trkpt>
      <trkpt lat="39.994933" lon="-6.535055">
        <ele>286.511</ele>
        <time>2019-06-22T19:07:40Z</time>
      </trkpt>
      <trkpt lat="39.994850" lon="-6.534795">
        <ele>286.308</ele>
        <time>2019-06-22T19:07:41Z</time>
      </trkpt>
      <trkpt lat="39.994774" lon="-6.534527">
        <ele>285.684</ele>
        <time>2019-06-22T19:07:42Z</time>
      </trkpt>
      <trkpt lat="39.994694" lon="-6.534248">
        <ele>285.118</ele>
        <time>2019-06-22T19:07:43Z</time>
      </trkpt>
      <trkpt lat="39.994638" lon="-6.534010">
        <ele>284.080</ele>
        <time>2019-06-22T19:07:44Z</time>
      </trkpt>
      <trkpt lat="39.994575" lon="-6.533769">
        <ele>282.162</ele>
        <time>2019-06-22T19:07:45Z</time>
      </trkpt>
      <trkpt lat="39.994517" lon="-6.533540">
        <ele>279.720</ele>
        <time>2019-06-22T19:07:46Z</time>
      </trkpt>
      <trkpt lat="39.994450" lon="-6.533327">
        <ele>278.819</ele>
        <time>2019-06-22T19:07:47Z</time>
      </trkpt>
      <trkpt lat="39.994396" lon="-6.533121">
        <ele>277.714</ele>
        <time>2019-06-22T19:07:48Z</time>
      </trkpt>
      <trkpt lat="39.994346" lon="-6.532918">
        <ele>277.417</ele>
        <time>2019-06-22T19:07:49Z</time>
      </trkpt>
      <trkpt lat="39.994299" lon="-6.532730">
        <ele>277.458</ele>
        <time>2019-06-22T19:07:50Z</time>
      </trkpt>
      <trkpt lat="39.994250" lon="-6.532552">
        <ele>278.452</ele>
        <time>2019-06-22T19:07:51Z</time>
      </trkpt>
      <trkpt lat="39.994205" lon="-6.532385">
        <ele>278.917</ele>
        <time>2019-06-22T19:07:52Z</time>
      </trkpt>
      <trkpt lat="39.994164" lon="-6.532243">
        <ele>279.508</ele>
        <time>2019-06-22T19:07:53Z</time>
      </trkpt>
      <trkpt lat="39.994129" lon="-6.532127">
        <ele>280.448</ele>
        <time>2019-06-22T19:07:54Z</time>
      </trkpt>
      <trkpt lat="39.994085" lon="-6.532027">
        <ele>281.392</ele>
        <time>2019-06-22T19:07:55Z</time>
      </trkpt>
      <trkpt lat="39.994029" lon="-6.531948">
        <ele>281.864</ele>
        <time>2019-06-22T19:07:56Z</time>
      </trkpt>
      <trkpt lat="39.993972" lon="-6.531879">
        <ele>282.256</ele>
        <time>2019-06-22T19:07:57Z</time>
      </trkpt>
      <trkpt lat="39.993921" lon="-6.531798">
        <ele>282.694</ele>
        <time>2019-06-22T19:07:58Z</time>
      </trkpt>
      <trkpt lat="39.993875" lon="-6.531713">
        <ele>283.273</ele>
        <time>2019-06-22T19:07:59Z</time>
      </trkpt>
      <trkpt lat="39.993870" lon="-6.531594">
        <ele>283.518</ele>
        <time>2019-06-22T19:08:00Z</time>
      </trkpt>
      <trkpt lat="39.993857" lon="-6.531485">
        <ele>283.591</ele>
        <time>2019-06-22T19:08:01Z</time>
      </trkpt>
      <trkpt lat="39.993825" lon="-6.531361">
        <ele>283.372</ele>
        <time>2019-06-22T19:08:02Z</time>
      </trkpt>
      <trkpt lat="39.993769" lon="-6.531241">
        <ele>282.813</ele>
        <time>2019-06-22T19:08:03Z</time>
      </trkpt>
      <trkpt lat="39.993694" lon="-6.531126">
        <ele>282.414</ele>
        <time>2019-06-22T19:08:04Z</time>
      </trkpt>
      <trkpt lat="39.993614" lon="-6.531009">
        <ele>281.708</ele>
        <time>2019-06-22T19:08:05Z</time>
      </trkpt>
      <trkpt lat="39.993521" lon="-6.530887">
        <ele>281.330</ele>
        <time>2019-06-22T19:08:06Z</time>
      </trkpt>
      <trkpt lat="39.993423" lon="-6.530762">
        <ele>280.954</ele>
        <time>2019-06-22T19:08:07Z</time>
      </trkpt>
      <trkpt lat="39.993307" lon="-6.530630">
        <ele>280.586</ele>
        <time>2019-06-22T19:08:08Z</time>
      </trkpt>
      <trkpt lat="39.993189" lon="-6.530506">
        <ele>279.968</ele>
        <time>2019-06-22T19:08:09Z</time>
      </trkpt>
      <trkpt lat="39.993056" lon="-6.530393">
        <ele>279.266</ele>
        <time>2019-06-22T19:08:10Z</time>
      </trkpt>
      <trkpt lat="39.992909" lon="-6.530281">
        <ele>278.335</ele>
        <time>2019-06-22T19:08:11Z</time>
      </trkpt>
      <trkpt lat="39.992763" lon="-6.530188">
        <ele>277.830</ele>
        <time>2019-06-22T19:08:12Z</time>
      </trkpt>
      <trkpt lat="39.992604" lon="-6.530103">
        <ele>277.453</ele>
        <time>2019-06-22T19:08:13Z</time>
      </trkpt>
      <trkpt lat="39.992440" lon="-6.530024">
        <ele>277.428</ele>
        <time>2019-06-22T19:08:14Z</time>
      </trkpt>
      <trkpt lat="39.992262" lon="-6.529962">
        <ele>277.789</ele>
        <time>2019-06-22T19:08:15Z</time>
      </trkpt>
      <trkpt lat="39.992080" lon="-6.529916">
        <ele>277.717</ele>
        <time>2019-06-22T19:08:16Z</time>
      </trkpt>
      <trkpt lat="39.991891" lon="-6.529877">
        <ele>277.108</ele>
        <time>2019-06-22T19:08:17Z</time>
      </trkpt>
      <trkpt lat="39.991700" lon="-6.529853">
        <ele>276.375</ele>
        <time>2019-06-22T19:08:18Z</time>
      </trkpt>
      <trkpt lat="39.991506" lon="-6.529845">
        <ele>275.969</ele>
        <time>2019-06-22T19:08:19Z</time>
      </trkpt>
      <trkpt lat="39.991308" lon="-6.529840">
        <ele>275.761</ele>
        <time>2019-06-22T19:08:20Z</time>
      </trkpt>
      <trkpt lat="39.991116" lon="-6.529836">
        <ele>275.723</ele>
        <time>2019-06-22T19:08:21Z</time>
      </trkpt>
      <trkpt lat="39.990935" lon="-6.529832">
        <ele>276.611</ele>
        <time>2019-06-22T19:08:22Z</time>
      </trkpt>
      <trkpt lat="39.990744" lon="-6.529822">
        <ele>278.110</ele>
        <time>2019-06-22T19:08:23Z</time>
      </trkpt>
      <trkpt lat="39.990547" lon="-6.529794">
        <ele>279.245</ele>
        <time>2019-06-22T19:08:24Z</time>
      </trkpt>
      <trkpt lat="39.990349" lon="-6.529757">
        <ele>280.268</ele>
        <time>2019-06-22T19:08:25Z</time>
      </trkpt>
      <trkpt lat="39.990160" lon="-6.529710">
        <ele>280.233</ele>
        <time>2019-06-22T19:08:26Z</time>
      </trkpt>
      <trkpt lat="39.989984" lon="-6.529602">
        <ele>281.123</ele>
        <time>2019-06-22T19:08:27Z</time>
      </trkpt>
      <trkpt lat="39.989798" lon="-6.529480">
        <ele>281.115</ele>
        <time>2019-06-22T19:08:28Z</time>
      </trkpt>
      <trkpt lat="39.989626" lon="-6.529346">
        <ele>280.808</ele>
        <time>2019-06-22T19:08:29Z</time>
      </trkpt>
      <trkpt lat="39.989457" lon="-6.529186">
        <ele>280.546</ele>
        <time>2019-06-22T19:08:30Z</time>
      </trkpt>
      <trkpt lat="39.989314" lon="-6.529011">
        <ele>280.080</ele>
        <time>2019-06-22T19:08:31Z</time>
      </trkpt>
      <trkpt lat="39.989172" lon="-6.528820">
        <ele>279.552</ele>
        <time>2019-06-22T19:08:32Z</time>
      </trkpt>
      <trkpt lat="39.989027" lon="-6.528610">
        <ele>279.014</ele>
        <time>2019-06-22T19:08:33Z</time>
      </trkpt>
      <trkpt lat="39.988895" lon="-6.528383">
        <ele>278.782</ele>
        <time>2019-06-22T19:08:34Z</time>
      </trkpt>
      <trkpt lat="39.988775" lon="-6.528138">
        <ele>278.311</ele>
        <time>2019-06-22T19:08:35Z</time>
      </trkpt>
      <trkpt lat="39.988650" lon="-6.527889">
        <ele>277.446</ele>
        <time>2019-06-22T19:08:36Z</time>
      </trkpt>
      <trkpt lat="39.988530" lon="-6.527645">
        <ele>276.119</ele>
        <time>2019-06-22T19:08:37Z</time>
      </trkpt>
      <trkpt lat="39.988409" lon="-6.527397">
        <ele>274.389</ele>
        <time>2019-06-22T19:08:38Z</time>
      </trkpt>
      <trkpt lat="39.988290" lon="-6.527151">
        <ele>272.906</ele>
        <time>2019-06-22T19:08:39Z</time>
      </trkpt>
      <trkpt lat="39.988176" lon="-6.526910">
        <ele>271.326</ele>
        <time>2019-06-22T19:08:40Z</time>
      </trkpt>
      <trkpt lat="39.988068" lon="-6.526675">
        <ele>270.108</ele>
        <time>2019-06-22T19:08:41Z</time>
      </trkpt>
      <trkpt lat="39.987956" lon="-6.526439">
        <ele>270.081</ele>
        <time>2019-06-22T19:08:42Z</time>
      </trkpt>
      <trkpt lat="39.987843" lon="-6.526205">
        <ele>270.075</ele>
        <time>2019-06-22T19:08:43Z</time>
      </trkpt>
      <trkpt lat="39.987730" lon="-6.525971">
        <ele>270.467</ele>
        <time>2019-06-22T19:08:44Z</time>
      </trkpt>
      <trkpt lat="39.987621" lon="-6.525744">
        <ele>270.869</ele>
        <time>2019-06-22T19:08:45Z</time>
      </trkpt>
      <trkpt lat="39.987515" lon="-6.525521">
        <ele>271.077</ele>
        <time>2019-06-22T19:08:46Z</time>
      </trkpt>
      <trkpt lat="39.987414" lon="-6.525302">
        <ele>271.066</ele>
        <time>2019-06-22T19:08:47Z</time>
      </trkpt>
      <trkpt lat="39.987314" lon="-6.525093">
        <ele>270.561</ele>
        <time>2019-06-22T19:08:48Z</time>
      </trkpt>
      <trkpt lat="39.987213" lon="-6.524883">
        <ele>270.564</ele>
        <time>2019-06-22T19:08:49Z</time>
      </trkpt>
      <trkpt lat="39.987114" lon="-6.524670">
        <ele>270.857</ele>
        <time>2019-06-22T19:08:50Z</time>
      </trkpt>
      <trkpt lat="39.987016" lon="-6.524469">
        <ele>271.500</ele>
        <time>2019-06-22T19:08:51Z</time>
      </trkpt>
      <trkpt lat="39.986921" lon="-6.524272">
        <ele>272.220</ele>
        <time>2019-06-22T19:08:52Z</time>
      </trkpt>
      <trkpt lat="39.986832" lon="-6.524083">
        <ele>273.308</ele>
        <time>2019-06-22T19:08:53Z</time>
      </trkpt>
      <trkpt lat="39.986746" lon="-6.523899">
        <ele>274.278</ele>
        <time>2019-06-22T19:08:54Z</time>
      </trkpt>
      <trkpt lat="39.986661" lon="-6.523728">
        <ele>274.442</ele>
        <time>2019-06-22T19:08:55Z</time>
      </trkpt>
      <trkpt lat="39.986582" lon="-6.523558">
        <ele>274.564</ele>
        <time>2019-06-22T19:08:56Z</time>
      </trkpt>
      <trkpt lat="39.986506" lon="-6.523397">
        <ele>274.566</ele>
        <time>2019-06-22T19:08:57Z</time>
      </trkpt>
      <trkpt lat="39.986437" lon="-6.523253">
        <ele>273.964</ele>
        <time>2019-06-22T19:08:58Z</time>
      </trkpt>
      <trkpt lat="39.986373" lon="-6.523127">
        <ele>273.823</ele>
        <time>2019-06-22T19:08:59Z</time>
      </trkpt>
      <trkpt lat="39.986309" lon="-6.523030">
        <ele>273.898</ele>
        <time>2019-06-22T19:09:00Z</time>
      </trkpt>
      <trkpt lat="39.986249" lon="-6.522937">
        <ele>273.831</ele>
        <time>2019-06-22T19:09:01Z</time>
      </trkpt>
      <trkpt lat="39.986197" lon="-6.522852">
        <ele>274.075</ele>
        <time>2019-06-22T19:09:02Z</time>
      </trkpt>
      <trkpt lat="39.986146" lon="-6.522784">
        <ele>274.528</ele>
        <time>2019-06-22T19:09:03Z</time>
      </trkpt>
      <trkpt lat="39.986079" lon="-6.522725">
        <ele>274.820</ele>
        <time>2019-06-22T19:09:04Z</time>
      </trkpt>
      <trkpt lat="39.986011" lon="-6.522704">
        <ele>275.008</ele>
        <time>2019-06-22T19:09:05Z</time>
      </trkpt>
      <trkpt lat="39.985941" lon="-6.522711">
        <ele>275.270</ele>
        <time>2019-06-22T19:09:06Z</time>
      </trkpt>
      <trkpt lat="39.985882" lon="-6.522746">
        <ele>275.394</ele>
        <time>2019-06-22T19:09:07Z</time>
      </trkpt>
      <trkpt lat="39.985823" lon="-6.522793">
        <ele>275.416</ele>
        <time>2019-06-22T19:09:08Z</time>
      </trkpt>
      <trkpt lat="39.985790" lon="-6.522859">
        <ele>275.588</ele>
        <time>2019-06-22T19:09:09Z</time>
      </trkpt>
      <trkpt lat="39.985762" lon="-6.522945">
        <ele>275.716</ele>
        <time>2019-06-22T19:09:10Z</time>
      </trkpt>
      <trkpt lat="39.985753" lon="-6.523088">
        <ele>275.775</ele>
        <time>2019-06-22T19:09:11Z</time>
      </trkpt>
      <trkpt lat="39.985745" lon="-6.523237">
        <ele>276.260</ele>
        <time>2019-06-22T19:09:12Z</time>
      </trkpt>
      <trkpt lat="39.985732" lon="-6.523397">
        <ele>276.693</ele>
        <time>2019-06-22T19:09:13Z</time>
      </trkpt>
      <trkpt lat="39.985721" lon="-6.523566">
        <ele>276.971</ele>
        <time>2019-06-22T19:09:14Z</time>
      </trkpt>
      <trkpt lat="39.985714" lon="-6.523725">
        <ele>277.041</ele>
        <time>2019-06-22T19:09:15Z</time>
      </trkpt>
      <trkpt lat="39.985703" lon="-6.523873">
        <ele>277.015</ele>
        <time>2019-06-22T19:09:16Z</time>
      </trkpt>
      <trkpt lat="39.985689" lon="-6.524024">
        <ele>276.808</ele>
        <time>2019-06-22T19:09:17Z</time>
      </trkpt>
      <trkpt lat="39.985665" lon="-6.524183">
        <ele>276.430</ele>
        <time>2019-06-22T19:09:18Z</time>
      </trkpt>
      <trkpt lat="39.985647" lon="-6.524350">
        <ele>276.264</ele>
        <time>2019-06-22T19:09:19Z</time>
      </trkpt>
      <trkpt lat="39.985622" lon="-6.524514">
        <ele>275.566</ele>
        <time>2019-06-22T19:09:20Z</time>
      </trkpt>
      <trkpt lat="39.985598" lon="-6.524688">
        <ele>274.478</ele>
        <time>2019-06-22T19:09:21Z</time>
      </trkpt>
      <trkpt lat="39.985565" lon="-6.524875">
        <ele>273.616</ele>
        <time>2019-06-22T19:09:22Z</time>
      </trkpt>
      <trkpt lat="39.985540" lon="-6.525073">
        <ele>273.295</ele>
        <time>2019-06-22T19:09:23Z</time>
      </trkpt>
      <trkpt lat="39.985479" lon="-6.525250">
        <ele>272.740</ele>
        <time>2019-06-22T19:09:24Z</time>
      </trkpt>
      <trkpt lat="39.985404" lon="-6.525423">
        <ele>272.493</ele>
        <time>2019-06-22T19:09:25Z</time>
      </trkpt>
      <trkpt lat="39.985322" lon="-6.525587">
        <ele>271.888</ele>
        <time>2019-06-22T19:09:26Z</time>
      </trkpt>
      <trkpt lat="39.985227" lon="-6.525747">
        <ele>271.624</ele>
        <time>2019-06-22T19:09:27Z</time>
      </trkpt>
      <trkpt lat="39.985124" lon="-6.525897">
        <ele>271.126</ele>
        <time>2019-06-22T19:09:28Z</time>
      </trkpt>
      <trkpt lat="39.985006" lon="-6.526035">
        <ele>270.408</ele>
        <time>2019-06-22T19:09:29Z</time>
      </trkpt>
      <trkpt lat="39.984879" lon="-6.526158">
        <ele>269.981</ele>
        <time>2019-06-22T19:09:30Z</time>
      </trkpt>
      <trkpt lat="39.984738" lon="-6.526269">
        <ele>269.925</ele>
        <time>2019-06-22T19:09:31Z</time>
      </trkpt>
      <trkpt lat="39.984592" lon="-6.526357">
        <ele>269.937</ele>
        <time>2019-06-22T19:09:32Z</time>
      </trkpt>
      <trkpt lat="39.984437" lon="-6.526436">
        <ele>269.959</ele>
        <time>2019-06-22T19:09:33Z</time>
      </trkpt>
      <trkpt lat="39.984281" lon="-6.526478">
        <ele>270.127</ele>
        <time>2019-06-22T19:09:34Z</time>
      </trkpt>
      <trkpt lat="39.984115" lon="-6.526523">
        <ele>270.396</ele>
        <time>2019-06-22T19:09:35Z</time>
      </trkpt>
      <trkpt lat="39.983950" lon="-6.526558">
        <ele>270.491</ele>
        <time>2019-06-22T19:09:36Z</time>
      </trkpt>
      <trkpt lat="39.983783" lon="-6.526577">
        <ele>270.744</ele>
        <time>2019-06-22T19:09:37Z</time>
      </trkpt>
      <trkpt lat="39.983613" lon="-6.526578">
        <ele>270.846</ele>
        <time>2019-06-22T19:09:38Z</time>
      </trkpt>
      <trkpt lat="39.983435" lon="-6.526584">
        <ele>270.788</ele>
        <time>2019-06-22T19:09:39Z</time>
      </trkpt>
      <trkpt lat="39.983258" lon="-6.526593">
        <ele>270.516</ele>
        <time>2019-06-22T19:09:40Z</time>
      </trkpt>
      <trkpt lat="39.983077" lon="-6.526610">
        <ele>269.508</ele>
        <time>2019-06-22T19:09:41Z</time>
      </trkpt>
      <trkpt lat="39.982901" lon="-6.526632">
        <ele>269.487</ele>
        <time>2019-06-22T19:09:42Z</time>
      </trkpt>
      <trkpt lat="39.982721" lon="-6.526670">
        <ele>269.471</ele>
        <time>2019-06-22T19:09:43Z</time>
      </trkpt>
      <trkpt lat="39.982550" lon="-6.526727">
        <ele>269.313</ele>
        <time>2019-06-22T19:09:44Z</time>
      </trkpt>
      <trkpt lat="39.982377" lon="-6.526802">
        <ele>269.245</ele>
        <time>2019-06-22T19:09:45Z</time>
      </trkpt>
      <trkpt lat="39.982215" lon="-6.526884">
        <ele>269.253</ele>
        <time>2019-06-22T19:09:46Z</time>
      </trkpt>
      <trkpt lat="39.982065" lon="-6.526991">
        <ele>268.832</ele>
        <time>2019-06-22T19:09:47Z</time>
      </trkpt>
      <trkpt lat="39.981912" lon="-6.527114">
        <ele>268.077</ele>
        <time>2019-06-22T19:09:48Z</time>
      </trkpt>
      <trkpt lat="39.981769" lon="-6.527254">
        <ele>266.830</ele>
        <time>2019-06-22T19:09:49Z</time>
      </trkpt>
      <trkpt lat="39.981639" lon="-6.527412">
        <ele>265.747</ele>
        <time>2019-06-22T19:09:50Z</time>
      </trkpt>
      <trkpt lat="39.981519" lon="-6.527574">
        <ele>264.929</ele>
        <time>2019-06-22T19:09:51Z</time>
      </trkpt>
      <trkpt lat="39.981417" lon="-6.527743">
        <ele>263.821</ele>
        <time>2019-06-22T19:09:52Z</time>
      </trkpt>
      <trkpt lat="39.981341" lon="-6.527919">
        <ele>262.008</ele>
        <time>2019-06-22T19:09:53Z</time>
      </trkpt>
      <trkpt lat="39.981277" lon="-6.528079">
        <ele>260.547</ele>
        <time>2019-06-22T19:09:54Z</time>
      </trkpt>
      <trkpt lat="39.981223" lon="-6.528226">
        <ele>258.981</ele>
        <time>2019-06-22T19:09:55Z</time>
      </trkpt>
      <trkpt lat="39.981177" lon="-6.528360">
        <ele>258.063</ele>
        <time>2019-06-22T19:09:56Z</time>
      </trkpt>
      <trkpt lat="39.981152" lon="-6.528461">
        <ele>258.015</ele>
        <time>2019-06-22T19:09:57Z</time>
      </trkpt>
      <trkpt lat="39.981130" lon="-6.528541">
        <ele>258.283</ele>
        <time>2019-06-22T19:09:58Z</time>
      </trkpt>
      <trkpt lat="39.981109" lon="-6.528608">
        <ele>258.892</ele>
        <time>2019-06-22T19:09:59Z</time>
      </trkpt>
      <trkpt lat="39.981095" lon="-6.528717">
        <ele>260.257</ele>
        <time>2019-06-22T19:10:01Z</time>
      </trkpt>
      <trkpt lat="39.981099" lon="-6.528778">
        <ele>260.240</ele>
        <time>2019-06-22T19:10:02Z</time>
      </trkpt>
      <trkpt lat="39.981109" lon="-6.528853">
        <ele>260.238</ele>
        <time>2019-06-22T19:10:03Z</time>
      </trkpt>
      <trkpt lat="39.981120" lon="-6.528935">
        <ele>260.170</ele>
        <time>2019-06-22T19:10:04Z</time>
      </trkpt>
      <trkpt lat="39.981117" lon="-6.529004">
        <ele>260.117</ele>
        <time>2019-06-22T19:10:05Z</time>
      </trkpt>
      <trkpt lat="39.981079" lon="-6.529120">
        <ele>260.108</ele>
        <time>2019-06-22T19:10:07Z</time>
      </trkpt>
      <trkpt lat="39.981030" lon="-6.529159">
        <ele>260.156</ele>
        <time>2019-06-22T19:10:08Z</time>
      </trkpt>
      <trkpt lat="39.980981" lon="-6.529167">
        <ele>260.010</ele>
        <time>2019-06-22T19:10:09Z</time>
      </trkpt>
      <trkpt lat="39.980927" lon="-6.529161">
        <ele>259.872</ele>
        <time>2019-06-22T19:10:10Z</time>
      </trkpt>
      <trkpt lat="39.980865" lon="-6.529126">
        <ele>259.714</ele>
        <time>2019-06-22T19:10:11Z</time>
      </trkpt>
      <trkpt lat="39.980807" lon="-6.529076">
        <ele>259.752</ele>
        <time>2019-06-22T19:10:12Z</time>
      </trkpt>
      <trkpt lat="39.980735" lon="-6.528992">
        <ele>259.661</ele>
        <time>2019-06-22T19:10:13Z</time>
      </trkpt>
      <trkpt lat="39.980652" lon="-6.528915">
        <ele>259.576</ele>
        <time>2019-06-22T19:10:14Z</time>
      </trkpt>
      <trkpt lat="39.980549" lon="-6.528846">
        <ele>259.379</ele>
        <time>2019-06-22T19:10:15Z</time>
      </trkpt>
      <trkpt lat="39.980429" lon="-6.528780">
        <ele>259.052</ele>
        <time>2019-06-22T19:10:16Z</time>
      </trkpt>
      <trkpt lat="39.980296" lon="-6.528725">
        <ele>258.553</ele>
        <time>2019-06-22T19:10:17Z</time>
      </trkpt>
      <trkpt lat="39.980142" lon="-6.528673">
        <ele>258.008</ele>
        <time>2019-06-22T19:10:18Z</time>
      </trkpt>
      <trkpt lat="39.979998" lon="-6.528617">
        <ele>257.808</ele>
        <time>2019-06-22T19:10:19Z</time>
      </trkpt>
      <trkpt lat="39.979841" lon="-6.528556">
        <ele>257.418</ele>
        <time>2019-06-22T19:10:20Z</time>
      </trkpt>
      <trkpt lat="39.979678" lon="-6.528492">
        <ele>257.452</ele>
        <time>2019-06-22T19:10:21Z</time>
      </trkpt>
      <trkpt lat="39.979507" lon="-6.528426">
        <ele>257.464</ele>
        <time>2019-06-22T19:10:22Z</time>
      </trkpt>
      <trkpt lat="39.979331" lon="-6.528347">
        <ele>257.166</ele>
        <time>2019-06-22T19:10:23Z</time>
      </trkpt>
      <trkpt lat="39.979153" lon="-6.528267">
        <ele>256.534</ele>
        <time>2019-06-22T19:10:24Z</time>
      </trkpt>
      <trkpt lat="39.978968" lon="-6.528190">
        <ele>256.233</ele>
        <time>2019-06-22T19:10:25Z</time>
      </trkpt>
      <trkpt lat="39.978777" lon="-6.528114">
        <ele>255.048</ele>
        <time>2019-06-22T19:10:26Z</time>
      </trkpt>
      <trkpt lat="39.978580" lon="-6.528038">
        <ele>254.241</ele>
        <time>2019-06-22T19:10:27Z</time>
      </trkpt>
      <trkpt lat="39.978385" lon="-6.527958">
        <ele>253.428</ele>
        <time>2019-06-22T19:10:28Z</time>
      </trkpt>
      <trkpt lat="39.978186" lon="-6.527877">
        <ele>253.289</ele>
        <time>2019-06-22T19:10:29Z</time>
      </trkpt>
      <trkpt lat="39.977987" lon="-6.527800">
        <ele>253.217</ele>
        <time>2019-06-22T19:10:30Z</time>
      </trkpt>
      <trkpt lat="39.977783" lon="-6.527716">
        <ele>253.308</ele>
        <time>2019-06-22T19:10:31Z</time>
      </trkpt>
      <trkpt lat="39.977576" lon="-6.527635">
        <ele>253.715</ele>
        <time>2019-06-22T19:10:32Z</time>
      </trkpt>
      <trkpt lat="39.977377" lon="-6.527551">
        <ele>253.769</ele>
        <time>2019-06-22T19:10:33Z</time>
      </trkpt>
      <trkpt lat="39.977175" lon="-6.527453">
        <ele>254.061</ele>
        <time>2019-06-22T19:10:34Z</time>
      </trkpt>
      <trkpt lat="39.976967" lon="-6.527356">
        <ele>254.083</ele>
        <time>2019-06-22T19:10:35Z</time>
      </trkpt>
      <trkpt lat="39.976762" lon="-6.527246">
        <ele>253.711</ele>
        <time>2019-06-22T19:10:36Z</time>
      </trkpt>
      <trkpt lat="39.976548" lon="-6.527123">
        <ele>253.790</ele>
        <time>2019-06-22T19:10:37Z</time>
      </trkpt>
      <trkpt lat="39.976329" lon="-6.526984">
        <ele>253.795</ele>
        <time>2019-06-22T19:10:38Z</time>
      </trkpt>
      <trkpt lat="39.976118" lon="-6.526838">
        <ele>253.378</ele>
        <time>2019-06-22T19:10:39Z</time>
      </trkpt>
      <trkpt lat="39.975911" lon="-6.526679">
        <ele>252.878</ele>
        <time>2019-06-22T19:10:40Z</time>
      </trkpt>
      <trkpt lat="39.975710" lon="-6.526523">
        <ele>251.033</ele>
        <time>2019-06-22T19:10:41Z</time>
      </trkpt>
      <trkpt lat="39.975522" lon="-6.526374">
        <ele>249.626</ele>
        <time>2019-06-22T19:10:42Z</time>
      </trkpt>
      <trkpt lat="39.975338" lon="-6.526231">
        <ele>248.208</ele>
        <time>2019-06-22T19:10:43Z</time>
      </trkpt>
      <trkpt lat="39.975153" lon="-6.526080">
        <ele>247.240</ele>
        <time>2019-06-22T19:10:44Z</time>
      </trkpt>
      <trkpt lat="39.974970" lon="-6.525929">
        <ele>246.774</ele>
        <time>2019-06-22T19:10:45Z</time>
      </trkpt>
      <trkpt lat="39.974783" lon="-6.525780">
        <ele>246.756</ele>
        <time>2019-06-22T19:10:46Z</time>
      </trkpt>
      <trkpt lat="39.974603" lon="-6.525640">
        <ele>246.838</ele>
        <time>2019-06-22T19:10:47Z</time>
      </trkpt>
      <trkpt lat="39.974417" lon="-6.525488">
        <ele>247.436</ele>
        <time>2019-06-22T19:10:48Z</time>
      </trkpt>
      <trkpt lat="39.974227" lon="-6.525339">
        <ele>248.055</ele>
        <time>2019-06-22T19:10:49Z</time>
      </trkpt>
      <trkpt lat="39.974041" lon="-6.525191">
        <ele>248.420</ele>
        <time>2019-06-22T19:10:50Z</time>
      </trkpt>
      <trkpt lat="39.973854" lon="-6.525041">
        <ele>248.623</ele>
        <time>2019-06-22T19:10:51Z</time>
      </trkpt>
      <trkpt lat="39.973664" lon="-6.524892">
        <ele>248.848</ele>
        <time>2019-06-22T19:10:52Z</time>
      </trkpt>
      <trkpt lat="39.973474" lon="-6.524742">
        <ele>248.961</ele>
        <time>2019-06-22T19:10:53Z</time>
      </trkpt>
      <trkpt lat="39.973289" lon="-6.524599">
        <ele>248.917</ele>
        <time>2019-06-22T19:10:54Z</time>
      </trkpt>
      <trkpt lat="39.973110" lon="-6.524457">
        <ele>248.808</ele>
        <time>2019-06-22T19:10:55Z</time>
      </trkpt>
      <trkpt lat="39.972935" lon="-6.524320">
        <ele>248.647</ele>
        <time>2019-06-22T19:10:56Z</time>
      </trkpt>
      <trkpt lat="39.972768" lon="-6.524192">
        <ele>247.841</ele>
        <time>2019-06-22T19:10:57Z</time>
      </trkpt>
      <trkpt lat="39.972606" lon="-6.524074">
        <ele>247.013</ele>
        <time>2019-06-22T19:10:58Z</time>
      </trkpt>
      <trkpt lat="39.972458" lon="-6.523960">
        <ele>246.435</ele>
        <time>2019-06-22T19:10:59Z</time>
      </trkpt>
      <trkpt lat="39.972327" lon="-6.523877">
        <ele>245.963</ele>
        <time>2019-06-22T19:11:00Z</time>
      </trkpt>
      <trkpt lat="39.972190" lon="-6.523768">
        <ele>245.982</ele>
        <time>2019-06-22T19:11:01Z</time>
      </trkpt>
      <trkpt lat="39.972060" lon="-6.523667">
        <ele>246.037</ele>
        <time>2019-06-22T19:11:02Z</time>
      </trkpt>
      <trkpt lat="39.971946" lon="-6.523571">
        <ele>247.320</ele>
        <time>2019-06-22T19:11:03Z</time>
      </trkpt>
      <trkpt lat="39.971834" lon="-6.523489">
        <ele>247.949</ele>
        <time>2019-06-22T19:11:04Z</time>
      </trkpt>
      <trkpt lat="39.971739" lon="-6.523428">
        <ele>248.202</ele>
        <time>2019-06-22T19:11:05Z</time>
      </trkpt>
      <trkpt lat="39.971645" lon="-6.523395">
        <ele>248.822</ele>
        <time>2019-06-22T19:11:06Z</time>
      </trkpt>
      <trkpt lat="39.971553" lon="-6.523374">
        <ele>249.308</ele>
        <time>2019-06-22T19:11:07Z</time>
      </trkpt>
      <trkpt lat="39.971458" lon="-6.523364">
        <ele>249.477</ele>
        <time>2019-06-22T19:11:08Z</time>
      </trkpt>
      <trkpt lat="39.971371" lon="-6.523309">
        <ele>250.131</ele>
        <time>2019-06-22T19:11:09Z</time>
      </trkpt>
      <trkpt lat="39.971283" lon="-6.523249">
        <ele>251.243</ele>
        <time>2019-06-22T19:11:10Z</time>
      </trkpt>
      <trkpt lat="39.971223" lon="-6.523139">
        <ele>252.215</ele>
        <time>2019-06-22T19:11:11Z</time>
      </trkpt>
      <trkpt lat="39.971154" lon="-6.522999">
        <ele>253.183</ele>
        <time>2019-06-22T19:11:12Z</time>
      </trkpt>
      <trkpt lat="39.971077" lon="-6.522876">
        <ele>253.642</ele>
        <time>2019-06-22T19:11:13Z</time>
      </trkpt>
      <trkpt lat="39.970960" lon="-6.522766">
        <ele>253.867</ele>
        <time>2019-06-22T19:11:14Z</time>
      </trkpt>
      <trkpt lat="39.970826" lon="-6.522661">
        <ele>253.830</ele>
        <time>2019-06-22T19:11:15Z</time>
      </trkpt>
      <trkpt lat="39.970685" lon="-6.522555">
        <ele>253.837</ele>
        <time>2019-06-22T19:11:16Z</time>
      </trkpt>
      <trkpt lat="39.970536" lon="-6.522432">
        <ele>253.849</ele>
        <time>2019-06-22T19:11:17Z</time>
      </trkpt>
      <trkpt lat="39.970375" lon="-6.522311">
        <ele>253.513</ele>
        <time>2019-06-22T19:11:18Z</time>
      </trkpt>
      <trkpt lat="39.970210" lon="-6.522182">
        <ele>253.208</ele>
        <time>2019-06-22T19:11:19Z</time>
      </trkpt>
      <trkpt lat="39.970043" lon="-6.522035">
        <ele>252.746</ele>
        <time>2019-06-22T19:11:20Z</time>
      </trkpt>
      <trkpt lat="39.969877" lon="-6.521892">
        <ele>252.180</ele>
        <time>2019-06-22T19:11:21Z</time>
      </trkpt>
      <trkpt lat="39.969697" lon="-6.521763">
        <ele>251.962</ele>
        <time>2019-06-22T19:11:22Z</time>
      </trkpt>
      <trkpt lat="39.969518" lon="-6.521625">
        <ele>251.984</ele>
        <time>2019-06-22T19:11:23Z</time>
      </trkpt>
      <trkpt lat="39.969333" lon="-6.521481">
        <ele>252.192</ele>
        <time>2019-06-22T19:11:24Z</time>
      </trkpt>
      <trkpt lat="39.969155" lon="-6.521336">
        <ele>252.131</ele>
        <time>2019-06-22T19:11:25Z</time>
      </trkpt>
      <trkpt lat="39.968968" lon="-6.521189">
        <ele>252.116</ele>
        <time>2019-06-22T19:11:26Z</time>
      </trkpt>
      <trkpt lat="39.968785" lon="-6.521038">
        <ele>251.899</ele>
        <time>2019-06-22T19:11:27Z</time>
      </trkpt>
      <trkpt lat="39.968593" lon="-6.520889">
        <ele>251.455</ele>
        <time>2019-06-22T19:11:28Z</time>
      </trkpt>
      <trkpt lat="39.968405" lon="-6.520730">
        <ele>250.707</ele>
        <time>2019-06-22T19:11:29Z</time>
      </trkpt>
      <trkpt lat="39.968212" lon="-6.520568">
        <ele>250.617</ele>
        <time>2019-06-22T19:11:30Z</time>
      </trkpt>
      <trkpt lat="39.968008" lon="-6.520411">
        <ele>250.308</ele>
        <time>2019-06-22T19:11:31Z</time>
      </trkpt>
      <trkpt lat="39.967810" lon="-6.520254">
        <ele>250.168</ele>
        <time>2019-06-22T19:11:32Z</time>
      </trkpt>
      <trkpt lat="39.967621" lon="-6.520121">
        <ele>250.022</ele>
        <time>2019-06-22T19:11:33Z</time>
      </trkpt>
      <trkpt lat="39.967423" lon="-6.519962">
        <ele>249.934</ele>
        <time>2019-06-22T19:11:34Z</time>
      </trkpt>
      <trkpt lat="39.967222" lon="-6.519806">
        <ele>249.926</ele>
        <time>2019-06-22T19:11:35Z</time>
      </trkpt>
      <trkpt lat="39.967020" lon="-6.519644">
        <ele>249.884</ele>
        <time>2019-06-22T19:11:36Z</time>
      </trkpt>
      <trkpt lat="39.966813" lon="-6.519476">
        <ele>249.823</ele>
        <time>2019-06-22T19:11:37Z</time>
      </trkpt>
      <trkpt lat="39.966604" lon="-6.519320">
        <ele>250.248</ele>
        <time>2019-06-22T19:11:38Z</time>
      </trkpt>
      <trkpt lat="39.966399" lon="-6.519152">
        <ele>250.351</ele>
        <time>2019-06-22T19:11:39Z</time>
      </trkpt>
      <trkpt lat="39.966194" lon="-6.518995">
        <ele>250.439</ele>
        <time>2019-06-22T19:11:40Z</time>
      </trkpt>
      <trkpt lat="39.965999" lon="-6.518826">
        <ele>250.601</ele>
        <time>2019-06-22T19:11:41Z</time>
      </trkpt>
      <trkpt lat="39.965795" lon="-6.518668">
        <ele>250.621</ele>
        <time>2019-06-22T19:11:42Z</time>
      </trkpt>
      <trkpt lat="39.965592" lon="-6.518511">
        <ele>250.708</ele>
        <time>2019-06-22T19:11:43Z</time>
      </trkpt>
      <trkpt lat="39.965390" lon="-6.518345">
        <ele>250.726</ele>
        <time>2019-06-22T19:11:44Z</time>
      </trkpt>
      <trkpt lat="39.965205" lon="-6.518207">
        <ele>250.750</ele>
        <time>2019-06-22T19:11:45Z</time>
      </trkpt>
      <trkpt lat="39.965005" lon="-6.518036">
        <ele>250.862</ele>
        <time>2019-06-22T19:11:46Z</time>
      </trkpt>
      <trkpt lat="39.964802" lon="-6.517875">
        <ele>252.054</ele>
        <time>2019-06-22T19:11:47Z</time>
      </trkpt>
      <trkpt lat="39.964601" lon="-6.517711">
        <ele>252.782</ele>
        <time>2019-06-22T19:11:48Z</time>
      </trkpt>
      <trkpt lat="39.964403" lon="-6.517557">
        <ele>253.531</ele>
        <time>2019-06-22T19:11:49Z</time>
      </trkpt>
      <trkpt lat="39.964201" lon="-6.517406">
        <ele>254.146</ele>
        <time>2019-06-22T19:11:50Z</time>
      </trkpt>
      <trkpt lat="39.964007" lon="-6.517254">
        <ele>254.939</ele>
        <time>2019-06-22T19:11:51Z</time>
      </trkpt>
      <trkpt lat="39.963810" lon="-6.517090">
        <ele>255.339</ele>
        <time>2019-06-22T19:11:52Z</time>
      </trkpt>
      <trkpt lat="39.963621" lon="-6.516936">
        <ele>255.301</ele>
        <time>2019-06-22T19:11:53Z</time>
      </trkpt>
      <trkpt lat="39.963428" lon="-6.516788">
        <ele>254.521</ele>
        <time>2019-06-22T19:11:54Z</time>
      </trkpt>
      <trkpt lat="39.963250" lon="-6.516649">
        <ele>254.008</ele>
        <time>2019-06-22T19:11:55Z</time>
      </trkpt>
      <trkpt lat="39.963079" lon="-6.516517">
        <ele>253.996</ele>
        <time>2019-06-22T19:11:56Z</time>
      </trkpt>
      <trkpt lat="39.962927" lon="-6.516397">
        <ele>253.260</ele>
        <time>2019-06-22T19:11:57Z</time>
      </trkpt>
      <trkpt lat="39.962782" lon="-6.516284">
        <ele>253.222</ele>
        <time>2019-06-22T19:11:58Z</time>
      </trkpt>
      <trkpt lat="39.962629" lon="-6.516166">
        <ele>253.474</ele>
        <time>2019-06-22T19:11:59Z</time>
      </trkpt>
      <trkpt lat="39.962495" lon="-6.516062">
        <ele>254.892</ele>
        <time>2019-06-22T19:12:00Z</time>
      </trkpt>
      <trkpt lat="39.962367" lon="-6.515957">
        <ele>255.751</ele>
        <time>2019-06-22T19:12:01Z</time>
      </trkpt>
      <trkpt lat="39.962229" lon="-6.515861">
        <ele>256.656</ele>
        <time>2019-06-22T19:12:02Z</time>
      </trkpt>
      <trkpt lat="39.962104" lon="-6.515757">
        <ele>258.389</ele>
        <time>2019-06-22T19:12:03Z</time>
      </trkpt>
      <trkpt lat="39.961998" lon="-6.515666">
        <ele>259.092</ele>
        <time>2019-06-22T19:12:04Z</time>
      </trkpt>
      <trkpt lat="39.961904" lon="-6.515572">
        <ele>259.473</ele>
        <time>2019-06-22T19:12:05Z</time>
      </trkpt>
      <trkpt lat="39.961810" lon="-6.515478">
        <ele>259.920</ele>
        <time>2019-06-22T19:12:06Z</time>
      </trkpt>
      <trkpt lat="39.961727" lon="-6.515382">
        <ele>260.308</ele>
        <time>2019-06-22T19:12:07Z</time>
      </trkpt>
      <trkpt lat="39.961637" lon="-6.515296">
        <ele>260.742</ele>
        <time>2019-06-22T19:12:08Z</time>
      </trkpt>
      <trkpt lat="39.961536" lon="-6.515228">
        <ele>260.926</ele>
        <time>2019-06-22T19:12:09Z</time>
      </trkpt>
      <trkpt lat="39.961432" lon="-6.515169">
        <ele>261.038</ele>
        <time>2019-06-22T19:12:10Z</time>
      </trkpt>
      <trkpt lat="39.961324" lon="-6.515097">
        <ele>261.470</ele>
        <time>2019-06-22T19:12:11Z</time>
      </trkpt>
      <trkpt lat="39.961215" lon="-6.515007">
        <ele>262.058</ele>
        <time>2019-06-22T19:12:12Z</time>
      </trkpt>
      <trkpt lat="39.961085" lon="-6.514920">
        <ele>262.457</ele>
        <time>2019-06-22T19:12:13Z</time>
      </trkpt>
      <trkpt lat="39.960942" lon="-6.514831">
        <ele>262.412</ele>
        <time>2019-06-22T19:12:14Z</time>
      </trkpt>
      <trkpt lat="39.960801" lon="-6.514731">
        <ele>262.995</ele>
        <time>2019-06-22T19:12:15Z</time>
      </trkpt>
      <trkpt lat="39.960658" lon="-6.514619">
        <ele>264.086</ele>
        <time>2019-06-22T19:12:16Z</time>
      </trkpt>
      <trkpt lat="39.960507" lon="-6.514496">
        <ele>264.060</ele>
        <time>2019-06-22T19:12:17Z</time>
      </trkpt>
      <trkpt lat="39.960355" lon="-6.514369">
        <ele>263.826</ele>
        <time>2019-06-22T19:12:18Z</time>
      </trkpt>
      <trkpt lat="39.960201" lon="-6.514251">
        <ele>263.808</ele>
        <time>2019-06-22T19:12:19Z</time>
      </trkpt>
      <trkpt lat="39.960043" lon="-6.514130">
        <ele>263.761</ele>
        <time>2019-06-22T19:12:20Z</time>
      </trkpt>
      <trkpt lat="39.959883" lon="-6.513997">
        <ele>262.435</ele>
        <time>2019-06-22T19:12:21Z</time>
      </trkpt>
      <trkpt lat="39.959717" lon="-6.513861">
        <ele>261.567</ele>
        <time>2019-06-22T19:12:22Z</time>
      </trkpt>
      <trkpt lat="39.959547" lon="-6.513725">
        <ele>261.379</ele>
        <time>2019-06-22T19:12:23Z</time>
      </trkpt>
      <trkpt lat="39.959375" lon="-6.513589">
        <ele>261.047</ele>
        <time>2019-06-22T19:12:24Z</time>
      </trkpt>
      <trkpt lat="39.959210" lon="-6.513464">
        <ele>261.126</ele>
        <time>2019-06-22T19:12:25Z</time>
      </trkpt>
      <trkpt lat="39.959043" lon="-6.513334">
        <ele>261.151</ele>
        <time>2019-06-22T19:12:26Z</time>
      </trkpt>
      <trkpt lat="39.958891" lon="-6.513196">
        <ele>261.554</ele>
        <time>2019-06-22T19:12:27Z</time>
      </trkpt>
      <trkpt lat="39.958722" lon="-6.513064">
        <ele>261.647</ele>
        <time>2019-06-22T19:12:28Z</time>
      </trkpt>
      <trkpt lat="39.958550" lon="-6.512930">
        <ele>262.229</ele>
        <time>2019-06-22T19:12:29Z</time>
      </trkpt>
      <trkpt lat="39.958381" lon="-6.512788">
        <ele>263.121</ele>
        <time>2019-06-22T19:12:30Z</time>
      </trkpt>
      <trkpt lat="39.958199" lon="-6.512648">
        <ele>264.008</ele>
        <time>2019-06-22T19:12:31Z</time>
      </trkpt>
      <trkpt lat="39.958014" lon="-6.512508">
        <ele>264.617</ele>
        <time>2019-06-22T19:12:32Z</time>
      </trkpt>
      <trkpt lat="39.957838" lon="-6.512377">
        <ele>265.061</ele>
        <time>2019-06-22T19:12:33Z</time>
      </trkpt>
      <trkpt lat="39.957642" lon="-6.512227">
        <ele>265.013</ele>
        <time>2019-06-22T19:12:34Z</time>
      </trkpt>
      <trkpt lat="39.957466" lon="-6.512088">
        <ele>266.265</ele>
        <time>2019-06-22T19:12:35Z</time>
      </trkpt>
      <trkpt lat="39.957294" lon="-6.511953">
        <ele>267.933</ele>
        <time>2019-06-22T19:12:36Z</time>
      </trkpt>
      <trkpt lat="39.957104" lon="-6.511812">
        <ele>269.582</ele>
        <time>2019-06-22T19:12:37Z</time>
      </trkpt>
      <trkpt lat="39.956910" lon="-6.511677">
        <ele>272.377</ele>
        <time>2019-06-22T19:12:38Z</time>
      </trkpt>
      <trkpt lat="39.956708" lon="-6.511541">
        <ele>275.440</ele>
        <time>2019-06-22T19:12:39Z</time>
      </trkpt>
      <trkpt lat="39.956505" lon="-6.511411">
        <ele>277.333</ele>
        <time>2019-06-22T19:12:40Z</time>
      </trkpt>
      <trkpt lat="39.956297" lon="-6.511267">
        <ele>278.623</ele>
        <time>2019-06-22T19:12:41Z</time>
      </trkpt>
      <trkpt lat="39.956075" lon="-6.511139">
        <ele>278.815</ele>
        <time>2019-06-22T19:12:42Z</time>
      </trkpt>
      <trkpt lat="39.955863" lon="-6.511011">
        <ele>279.008</ele>
        <time>2019-06-22T19:12:43Z</time>
      </trkpt>
      <trkpt lat="39.955649" lon="-6.510886">
        <ele>278.896</ele>
        <time>2019-06-22T19:12:44Z</time>
      </trkpt>
      <trkpt lat="39.955430" lon="-6.510764">
        <ele>278.350</ele>
        <time>2019-06-22T19:12:45Z</time>
      </trkpt>
      <trkpt lat="39.955204" lon="-6.510647">
        <ele>278.382</ele>
        <time>2019-06-22T19:12:46Z</time>
      </trkpt>
      <trkpt lat="39.954976" lon="-6.510537">
        <ele>279.144</ele>
        <time>2019-06-22T19:12:47Z</time>
      </trkpt>
      <trkpt lat="39.954747" lon="-6.510433">
        <ele>279.542</ele>
        <time>2019-06-22T19:12:48Z</time>
      </trkpt>
      <trkpt lat="39.954529" lon="-6.510324">
        <ele>279.571</ele>
        <time>2019-06-22T19:12:49Z</time>
      </trkpt>
      <trkpt lat="39.954304" lon="-6.510221">
        <ele>279.666</ele>
        <time>2019-06-22T19:12:50Z</time>
      </trkpt>
      <trkpt lat="39.954070" lon="-6.510117">
        <ele>280.019</ele>
        <time>2019-06-22T19:12:51Z</time>
      </trkpt>
      <trkpt lat="39.953835" lon="-6.510026">
        <ele>280.377</ele>
        <time>2019-06-22T19:12:52Z</time>
      </trkpt>
      <trkpt lat="39.953603" lon="-6.509940">
        <ele>280.761</ele>
        <time>2019-06-22T19:12:53Z</time>
      </trkpt>
      <trkpt lat="39.953370" lon="-6.509859">
        <ele>281.827</ele>
        <time>2019-06-22T19:12:54Z</time>
      </trkpt>
      <trkpt lat="39.953155" lon="-6.509786">
        <ele>283.308</ele>
        <time>2019-06-22T19:12:55Z</time>
      </trkpt>
      <trkpt lat="39.952924" lon="-6.509717">
        <ele>284.380</ele>
        <time>2019-06-22T19:12:56Z</time>
      </trkpt>
      <trkpt lat="39.952699" lon="-6.509644">
        <ele>285.084</ele>
        <time>2019-06-22T19:12:57Z</time>
      </trkpt>
      <trkpt lat="39.952473" lon="-6.509580">
        <ele>286.676</ele>
        <time>2019-06-22T19:12:58Z</time>
      </trkpt>
      <trkpt lat="39.952247" lon="-6.509516">
        <ele>287.358</ele>
        <time>2019-06-22T19:12:59Z</time>
      </trkpt>
      <trkpt lat="39.952026" lon="-6.509454">
        <ele>288.166</ele>
        <time>2019-06-22T19:13:00Z</time>
      </trkpt>
      <trkpt lat="39.951798" lon="-6.509388">
        <ele>289.715</ele>
        <time>2019-06-22T19:13:01Z</time>
      </trkpt>
      <trkpt lat="39.951591" lon="-6.509318">
        <ele>291.810</ele>
        <time>2019-06-22T19:13:02Z</time>
      </trkpt>
      <trkpt lat="39.951364" lon="-6.509305">
        <ele>293.293</ele>
        <time>2019-06-22T19:13:03Z</time>
      </trkpt>
      <trkpt lat="39.951135" lon="-6.509271">
        <ele>295.532</ele>
        <time>2019-06-22T19:13:04Z</time>
      </trkpt>
      <trkpt lat="39.950914" lon="-6.509229">
        <ele>298.992</ele>
        <time>2019-06-22T19:13:05Z</time>
      </trkpt>
      <trkpt lat="39.950713" lon="-6.509190">
        <ele>301.611</ele>
        <time>2019-06-22T19:13:06Z</time>
      </trkpt>
      <trkpt lat="39.950503" lon="-6.509147">
        <ele>304.708</ele>
        <time>2019-06-22T19:13:07Z</time>
      </trkpt>
      <trkpt lat="39.950290" lon="-6.509111">
        <ele>307.586</ele>
        <time>2019-06-22T19:13:08Z</time>
      </trkpt>
      <trkpt lat="39.950082" lon="-6.509065">
        <ele>310.080</ele>
        <time>2019-06-22T19:13:09Z</time>
      </trkpt>
      <trkpt lat="39.949880" lon="-6.509018">
        <ele>311.892</ele>
        <time>2019-06-22T19:13:10Z</time>
      </trkpt>
      <trkpt lat="39.949669" lon="-6.508969">
        <ele>313.974</ele>
        <time>2019-06-22T19:13:11Z</time>
      </trkpt>
      <trkpt lat="39.949469" lon="-6.508916">
        <ele>315.442</ele>
        <time>2019-06-22T19:13:12Z</time>
      </trkpt>
      <trkpt lat="39.949253" lon="-6.508873">
        <ele>316.841</ele>
        <time>2019-06-22T19:13:13Z</time>
      </trkpt>
      <trkpt lat="39.949055" lon="-6.508828">
        <ele>318.396</ele>
        <time>2019-06-22T19:13:14Z</time>
      </trkpt>
      <trkpt lat="39.948850" lon="-6.508784">
        <ele>319.319</ele>
        <time>2019-06-22T19:13:15Z</time>
      </trkpt>
      <trkpt lat="39.948660" lon="-6.508739">
        <ele>320.882</ele>
        <time>2019-06-22T19:13:16Z</time>
      </trkpt>
      <trkpt lat="39.948467" lon="-6.508697">
        <ele>322.543</ele>
        <time>2019-06-22T19:13:17Z</time>
      </trkpt>
      <trkpt lat="39.948278" lon="-6.508654">
        <ele>324.317</ele>
        <time>2019-06-22T19:13:18Z</time>
      </trkpt>
      <trkpt lat="39.948087" lon="-6.508611">
        <ele>326.008</ele>
        <time>2019-06-22T19:13:19Z</time>
      </trkpt>
      <trkpt lat="39.947898" lon="-6.508567">
        <ele>327.871</ele>
        <time>2019-06-22T19:13:20Z</time>
      </trkpt>
      <trkpt lat="39.947709" lon="-6.508521">
        <ele>329.485</ele>
        <time>2019-06-22T19:13:21Z</time>
      </trkpt>
      <trkpt lat="39.947518" lon="-6.508475">
        <ele>330.357</ele>
        <time>2019-06-22T19:13:22Z</time>
      </trkpt>
      <trkpt lat="39.947325" lon="-6.508432">
        <ele>330.989</ele>
        <time>2019-06-22T19:13:23Z</time>
      </trkpt>
      <trkpt lat="39.947126" lon="-6.508387">
        <ele>331.787</ele>
        <time>2019-06-22T19:13:24Z</time>
      </trkpt>
      <trkpt lat="39.946928" lon="-6.508344">
        <ele>333.076</ele>
        <time>2019-06-22T19:13:25Z</time>
      </trkpt>
      <trkpt lat="39.946725" lon="-6.508301">
        <ele>334.511</ele>
        <time>2019-06-22T19:13:26Z</time>
      </trkpt>
      <trkpt lat="39.946525" lon="-6.508253">
        <ele>336.514</ele>
        <time>2019-06-22T19:13:27Z</time>
      </trkpt>
      <trkpt lat="39.946328" lon="-6.508207">
        <ele>338.227</ele>
        <time>2019-06-22T19:13:28Z</time>
      </trkpt>
      <trkpt lat="39.946112" lon="-6.508171">
        <ele>339.768</ele>
        <time>2019-06-22T19:13:29Z</time>
      </trkpt>
      <trkpt lat="39.945913" lon="-6.508128">
        <ele>340.614</ele>
        <time>2019-06-22T19:13:30Z</time>
      </trkpt>
      <trkpt lat="39.945695" lon="-6.508094">
        <ele>341.708</ele>
        <time>2019-06-22T19:13:31Z</time>
      </trkpt>
      <trkpt lat="39.945487" lon="-6.508055">
        <ele>343.185</ele>
        <time>2019-06-22T19:13:32Z</time>
      </trkpt>
      <trkpt lat="39.945270" lon="-6.508011">
        <ele>344.789</ele>
        <time>2019-06-22T19:13:33Z</time>
      </trkpt>
      <trkpt lat="39.945058" lon="-6.507965">
        <ele>345.871</ele>
        <time>2019-06-22T19:13:34Z</time>
      </trkpt>
      <trkpt lat="39.944839" lon="-6.507918">
        <ele>346.973</ele>
        <time>2019-06-22T19:13:35Z</time>
      </trkpt>
      <trkpt lat="39.944616" lon="-6.507867">
        <ele>347.791</ele>
        <time>2019-06-22T19:13:36Z</time>
      </trkpt>
      <trkpt lat="39.944391" lon="-6.507815">
        <ele>347.840</ele>
        <time>2019-06-22T19:13:37Z</time>
      </trkpt>
      <trkpt lat="39.944166" lon="-6.507758">
        <ele>347.995</ele>
        <time>2019-06-22T19:13:38Z</time>
      </trkpt>
      <trkpt lat="39.943942" lon="-6.507710">
        <ele>348.688</ele>
        <time>2019-06-22T19:13:39Z</time>
      </trkpt>
      <trkpt lat="39.943712" lon="-6.507652">
        <ele>349.776</ele>
        <time>2019-06-22T19:13:40Z</time>
      </trkpt>
      <trkpt lat="39.943475" lon="-6.507595">
        <ele>350.690</ele>
        <time>2019-06-22T19:13:41Z</time>
      </trkpt>
      <trkpt lat="39.943238" lon="-6.507543">
        <ele>352.119</ele>
        <time>2019-06-22T19:13:42Z</time>
      </trkpt>
      <trkpt lat="39.943004" lon="-6.507491">
        <ele>354.108</ele>
        <time>2019-06-22T19:13:43Z</time>
      </trkpt>
      <trkpt lat="39.942766" lon="-6.507436">
        <ele>356.230</ele>
        <time>2019-06-22T19:13:44Z</time>
      </trkpt>
      <trkpt lat="39.942527" lon="-6.507382">
        <ele>358.044</ele>
        <time>2019-06-22T19:13:45Z</time>
      </trkpt>
      <trkpt lat="39.942284" lon="-6.507329">
        <ele>359.216</ele>
        <time>2019-06-22T19:13:46Z</time>
      </trkpt>
      <trkpt lat="39.942040" lon="-6.507276">
        <ele>360.168</ele>
        <time>2019-06-22T19:13:47Z</time>
      </trkpt>
      <trkpt lat="39.941804" lon="-6.507221">
        <ele>360.386</ele>
        <time>2019-06-22T19:13:48Z</time>
      </trkpt>
      <trkpt lat="39.941562" lon="-6.507167">
        <ele>360.835</ele>
        <time>2019-06-22T19:13:49Z</time>
      </trkpt>
      <trkpt lat="39.941318" lon="-6.507114">
        <ele>361.370</ele>
        <time>2019-06-22T19:13:50Z</time>
      </trkpt>
      <trkpt lat="39.941074" lon="-6.507067">
        <ele>362.183</ele>
        <time>2019-06-22T19:13:51Z</time>
      </trkpt>
      <trkpt lat="39.940828" lon="-6.507015">
        <ele>362.942</ele>
        <time>2019-06-22T19:13:52Z</time>
      </trkpt>
      <trkpt lat="39.940579" lon="-6.506965">
        <ele>363.422</ele>
        <time>2019-06-22T19:13:53Z</time>
      </trkpt>
      <trkpt lat="39.940334" lon="-6.506908">
        <ele>363.414</ele>
        <time>2019-06-22T19:13:54Z</time>
      </trkpt>
      <trkpt lat="39.940086" lon="-6.506850">
        <ele>363.408</ele>
        <time>2019-06-22T19:13:55Z</time>
      </trkpt>
      <trkpt lat="39.939836" lon="-6.506797">
        <ele>363.357</ele>
        <time>2019-06-22T19:13:56Z</time>
      </trkpt>
      <trkpt lat="39.939587" lon="-6.506746">
        <ele>363.071</ele>
        <time>2019-06-22T19:13:57Z</time>
      </trkpt>
      <trkpt lat="39.939332" lon="-6.506695">
        <ele>362.663</ele>
        <time>2019-06-22T19:13:58Z</time>
      </trkpt>
      <trkpt lat="39.939081" lon="-6.506636">
        <ele>362.685</ele>
        <time>2019-06-22T19:13:59Z</time>
      </trkpt>
      <trkpt lat="39.938830" lon="-6.506579">
        <ele>363.143</ele>
        <time>2019-06-22T19:14:00Z</time>
      </trkpt>
      <trkpt lat="39.938579" lon="-6.506523">
        <ele>363.872</ele>
        <time>2019-06-22T19:14:01Z</time>
      </trkpt>
      <trkpt lat="39.938321" lon="-6.506474">
        <ele>364.617</ele>
        <time>2019-06-22T19:14:02Z</time>
      </trkpt>
      <trkpt lat="39.938069" lon="-6.506426">
        <ele>365.590</ele>
        <time>2019-06-22T19:14:03Z</time>
      </trkpt>
      <trkpt lat="39.937818" lon="-6.506373">
        <ele>366.495</ele>
        <time>2019-06-22T19:14:04Z</time>
      </trkpt>
      <trkpt lat="39.937562" lon="-6.506325">
        <ele>367.349</ele>
        <time>2019-06-22T19:14:05Z</time>
      </trkpt>
      <trkpt lat="39.937319" lon="-6.506272">
        <ele>368.023</ele>
        <time>2019-06-22T19:14:06Z</time>
      </trkpt>
      <trkpt lat="39.937078" lon="-6.506220">
        <ele>368.908</ele>
        <time>2019-06-22T19:14:07Z</time>
      </trkpt>
      <trkpt lat="39.936835" lon="-6.506169">
        <ele>370.062</ele>
        <time>2019-06-22T19:14:08Z</time>
      </trkpt>
      <trkpt lat="39.936593" lon="-6.506109">
        <ele>371.266</ele>
        <time>2019-06-22T19:14:09Z</time>
      </trkpt>
      <trkpt lat="39.936349" lon="-6.506062">
        <ele>372.338</ele>
        <time>2019-06-22T19:14:10Z</time>
      </trkpt>
      <trkpt lat="39.936108" lon="-6.506009">
        <ele>373.790</ele>
        <time>2019-06-22T19:14:11Z</time>
      </trkpt>
      <trkpt lat="39.935875" lon="-6.505955">
        <ele>375.448</ele>
        <time>2019-06-22T19:14:12Z</time>
      </trkpt>
      <trkpt lat="39.935639" lon="-6.505900">
        <ele>376.887</ele>
        <time>2019-06-22T19:14:13Z</time>
      </trkpt>
      <trkpt lat="39.935400" lon="-6.505855">
        <ele>378.152</ele>
        <time>2019-06-22T19:14:14Z</time>
      </trkpt>
      <trkpt lat="39.935169" lon="-6.505799">
        <ele>379.635</ele>
        <time>2019-06-22T19:14:15Z</time>
      </trkpt>
      <trkpt lat="39.934936" lon="-6.505746">
        <ele>381.624</ele>
        <time>2019-06-22T19:14:16Z</time>
      </trkpt>
      <trkpt lat="39.934707" lon="-6.505704">
        <ele>383.104</ele>
        <time>2019-06-22T19:14:17Z</time>
      </trkpt>
      <trkpt lat="39.934474" lon="-6.505655">
        <ele>384.714</ele>
        <time>2019-06-22T19:14:18Z</time>
      </trkpt>
      <trkpt lat="39.934246" lon="-6.505607">
        <ele>386.708</ele>
        <time>2019-06-22T19:14:19Z</time>
      </trkpt>
      <trkpt lat="39.934014" lon="-6.505557">
        <ele>388.415</ele>
        <time>2019-06-22T19:14:20Z</time>
      </trkpt>
      <trkpt lat="39.933779" lon="-6.505512">
        <ele>389.689</ele>
        <time>2019-06-22T19:14:21Z</time>
      </trkpt>
      <trkpt lat="39.933550" lon="-6.505467">
        <ele>391.051</ele>
        <time>2019-06-22T19:14:22Z</time>
      </trkpt>
      <trkpt lat="39.933323" lon="-6.505419">
        <ele>392.553</ele>
        <time>2019-06-22T19:14:23Z</time>
      </trkpt>
      <trkpt lat="39.933095" lon="-6.505371">
        <ele>393.891</ele>
        <time>2019-06-22T19:14:24Z</time>
      </trkpt>
      <trkpt lat="39.932871" lon="-6.505322">
        <ele>395.590</ele>
        <time>2019-06-22T19:14:25Z</time>
      </trkpt>
      <trkpt lat="39.932647" lon="-6.505266">
        <ele>396.865</ele>
        <time>2019-06-22T19:14:26Z</time>
      </trkpt>
      <trkpt lat="39.932425" lon="-6.505212">
        <ele>398.088</ele>
        <time>2019-06-22T19:14:27Z</time>
      </trkpt>
      <trkpt lat="39.932204" lon="-6.505146">
        <ele>398.934</ele>
        <time>2019-06-22T19:14:28Z</time>
      </trkpt>
      <trkpt lat="39.931978" lon="-6.505075">
        <ele>400.855</ele>
        <time>2019-06-22T19:14:29Z</time>
      </trkpt>
      <trkpt lat="39.931759" lon="-6.504999">
        <ele>402.710</ele>
        <time>2019-06-22T19:14:30Z</time>
      </trkpt>
      <trkpt lat="39.931539" lon="-6.504914">
        <ele>404.708</ele>
        <time>2019-06-22T19:14:31Z</time>
      </trkpt>
      <trkpt lat="39.931316" lon="-6.504821">
        <ele>407.226</ele>
        <time>2019-06-22T19:14:32Z</time>
      </trkpt>
      <trkpt lat="39.931096" lon="-6.504725">
        <ele>409.180</ele>
        <time>2019-06-22T19:14:33Z</time>
      </trkpt>
      <trkpt lat="39.930877" lon="-6.504622">
        <ele>409.112</ele>
        <time>2019-06-22T19:14:34Z</time>
      </trkpt>
      <trkpt lat="39.930660" lon="-6.504511">
        <ele>409.154</ele>
        <time>2019-06-22T19:14:35Z</time>
      </trkpt>
      <trkpt lat="39.930439" lon="-6.504392">
        <ele>408.662</ele>
        <time>2019-06-22T19:14:36Z</time>
      </trkpt>
      <trkpt lat="39.930213" lon="-6.504264">
        <ele>407.791</ele>
        <time>2019-06-22T19:14:37Z</time>
      </trkpt>
      <trkpt lat="39.930000" lon="-6.504119">
        <ele>407.356</ele>
        <time>2019-06-22T19:14:38Z</time>
      </trkpt>
      <trkpt lat="39.929788" lon="-6.503966">
        <ele>407.319</ele>
        <time>2019-06-22T19:14:39Z</time>
      </trkpt>
      <trkpt lat="39.929574" lon="-6.503804">
        <ele>407.355</ele>
        <time>2019-06-22T19:14:40Z</time>
      </trkpt>
      <trkpt lat="39.929364" lon="-6.503639">
        <ele>407.407</ele>
        <time>2019-06-22T19:14:41Z</time>
      </trkpt>
      <trkpt lat="39.929162" lon="-6.503450">
        <ele>407.417</ele>
        <time>2019-06-22T19:14:42Z</time>
      </trkpt>
      <trkpt lat="39.928960" lon="-6.503264">
        <ele>407.408</ele>
        <time>2019-06-22T19:14:43Z</time>
      </trkpt>
      <trkpt lat="39.928762" lon="-6.503063">
        <ele>406.868</ele>
        <time>2019-06-22T19:14:44Z</time>
      </trkpt>
      <trkpt lat="39.928567" lon="-6.502861">
        <ele>406.672</ele>
        <time>2019-06-22T19:14:45Z</time>
      </trkpt>
      <trkpt lat="39.928373" lon="-6.502644">
        <ele>406.574</ele>
        <time>2019-06-22T19:14:46Z</time>
      </trkpt>
      <trkpt lat="39.928179" lon="-6.502427">
        <ele>406.176</ele>
        <time>2019-06-22T19:14:47Z</time>
      </trkpt>
      <trkpt lat="39.927981" lon="-6.502205">
        <ele>405.564</ele>
        <time>2019-06-22T19:14:48Z</time>
      </trkpt>
      <trkpt lat="39.927788" lon="-6.501981">
        <ele>405.383</ele>
        <time>2019-06-22T19:14:49Z</time>
      </trkpt>
      <trkpt lat="39.927590" lon="-6.501754">
        <ele>404.658</ele>
        <time>2019-06-22T19:14:50Z</time>
      </trkpt>
      <trkpt lat="39.927398" lon="-6.501518">
        <ele>404.231</ele>
        <time>2019-06-22T19:14:51Z</time>
      </trkpt>
      <trkpt lat="39.927204" lon="-6.501275">
        <ele>404.049</ele>
        <time>2019-06-22T19:14:52Z</time>
      </trkpt>
      <trkpt lat="39.927007" lon="-6.501033">
        <ele>403.902</ele>
        <time>2019-06-22T19:14:53Z</time>
      </trkpt>
      <trkpt lat="39.926808" lon="-6.500795">
        <ele>403.422</ele>
        <time>2019-06-22T19:14:54Z</time>
      </trkpt>
      <trkpt lat="39.926612" lon="-6.500549">
        <ele>402.708</ele>
        <time>2019-06-22T19:14:55Z</time>
      </trkpt>
      <trkpt lat="39.926416" lon="-6.500302">
        <ele>402.337</ele>
        <time>2019-06-22T19:14:56Z</time>
      </trkpt>
      <trkpt lat="39.926214" lon="-6.500057">
        <ele>401.581</ele>
        <time>2019-06-22T19:14:57Z</time>
      </trkpt>
      <trkpt lat="39.926013" lon="-6.499803">
        <ele>400.453</ele>
        <time>2019-06-22T19:14:58Z</time>
      </trkpt>
      <trkpt lat="39.925809" lon="-6.499555">
        <ele>399.215</ele>
        <time>2019-06-22T19:14:59Z</time>
      </trkpt>
      <trkpt lat="39.925607" lon="-6.499308">
        <ele>398.553</ele>
        <time>2019-06-22T19:15:00Z</time>
      </trkpt>
      <trkpt lat="39.925398" lon="-6.499057">
        <ele>398.532</ele>
        <time>2019-06-22T19:15:01Z</time>
      </trkpt>
      <trkpt lat="39.925192" lon="-6.498806">
        <ele>397.797</ele>
        <time>2019-06-22T19:15:02Z</time>
      </trkpt>
      <trkpt lat="39.924993" lon="-6.498556">
        <ele>396.860</ele>
        <time>2019-06-22T19:15:03Z</time>
      </trkpt>
      <trkpt lat="39.924792" lon="-6.498306">
        <ele>396.551</ele>
        <time>2019-06-22T19:15:04Z</time>
      </trkpt>
      <trkpt lat="39.924587" lon="-6.498053">
        <ele>396.501</ele>
        <time>2019-06-22T19:15:05Z</time>
      </trkpt>
      <trkpt lat="39.924391" lon="-6.497811">
        <ele>396.611</ele>
        <time>2019-06-22T19:15:06Z</time>
      </trkpt>
      <trkpt lat="39.924193" lon="-6.497570">
        <ele>396.908</ele>
        <time>2019-06-22T19:15:07Z</time>
      </trkpt>
      <trkpt lat="39.923991" lon="-6.497333">
        <ele>397.538</ele>
        <time>2019-06-22T19:15:08Z</time>
      </trkpt>
      <trkpt lat="39.923792" lon="-6.497100">
        <ele>398.032</ele>
        <time>2019-06-22T19:15:09Z</time>
      </trkpt>
      <trkpt lat="39.923596" lon="-6.496863">
        <ele>398.994</ele>
        <time>2019-06-22T19:15:10Z</time>
      </trkpt>
      <trkpt lat="39.923402" lon="-6.496629">
        <ele>399.736</ele>
        <time>2019-06-22T19:15:11Z</time>
      </trkpt>
      <trkpt lat="39.923205" lon="-6.496394">
        <ele>400.414</ele>
        <time>2019-06-22T19:15:12Z</time>
      </trkpt>
      <trkpt lat="39.923013" lon="-6.496161">
        <ele>401.273</ele>
        <time>2019-06-22T19:15:13Z</time>
      </trkpt>
      <trkpt lat="39.922825" lon="-6.495929">
        <ele>402.098</ele>
        <time>2019-06-22T19:15:14Z</time>
      </trkpt>
      <trkpt lat="39.922634" lon="-6.495696">
        <ele>402.511</ele>
        <time>2019-06-22T19:15:15Z</time>
      </trkpt>
      <trkpt lat="39.922441" lon="-6.495470">
        <ele>403.435</ele>
        <time>2019-06-22T19:15:16Z</time>
      </trkpt>
      <trkpt lat="39.922250" lon="-6.495243">
        <ele>403.886</ele>
        <time>2019-06-22T19:15:17Z</time>
      </trkpt>
      <trkpt lat="39.922056" lon="-6.495013">
        <ele>404.714</ele>
        <time>2019-06-22T19:15:18Z</time>
      </trkpt>
      <trkpt lat="39.921859" lon="-6.494785">
        <ele>405.008</ele>
        <time>2019-06-22T19:15:19Z</time>
      </trkpt>
      <trkpt lat="39.921677" lon="-6.494566">
        <ele>405.366</ele>
        <time>2019-06-22T19:15:20Z</time>
      </trkpt>
      <trkpt lat="39.921490" lon="-6.494328">
        <ele>405.760</ele>
        <time>2019-06-22T19:15:21Z</time>
      </trkpt>
      <trkpt lat="39.921302" lon="-6.494098">
        <ele>406.252</ele>
        <time>2019-06-22T19:15:22Z</time>
      </trkpt>
      <trkpt lat="39.921111" lon="-6.493867">
        <ele>406.674</ele>
        <time>2019-06-22T19:15:23Z</time>
      </trkpt>
      <trkpt lat="39.920928" lon="-6.493648">
        <ele>406.642</ele>
        <time>2019-06-22T19:15:24Z</time>
      </trkpt>
      <trkpt lat="39.920755" lon="-6.493437">
        <ele>406.621</ele>
        <time>2019-06-22T19:15:25Z</time>
      </trkpt>
      <trkpt lat="39.920588" lon="-6.493246">
        <ele>405.836</ele>
        <time>2019-06-22T19:15:26Z</time>
      </trkpt>
      <trkpt lat="39.920425" lon="-6.493071">
        <ele>405.549</ele>
        <time>2019-06-22T19:15:27Z</time>
      </trkpt>
      <trkpt lat="39.920277" lon="-6.492906">
        <ele>405.012</ele>
        <time>2019-06-22T19:15:28Z</time>
      </trkpt>
      <trkpt lat="39.920143" lon="-6.492752">
        <ele>405.032</ele>
        <time>2019-06-22T19:15:29Z</time>
      </trkpt>
      <trkpt lat="39.920013" lon="-6.492611">
        <ele>405.305</ele>
        <time>2019-06-22T19:15:30Z</time>
      </trkpt>
      <trkpt lat="39.919897" lon="-6.492484">
        <ele>406.908</ele>
        <time>2019-06-22T19:15:31Z</time>
      </trkpt>
      <trkpt lat="39.919791" lon="-6.492366">
        <ele>408.144</ele>
        <time>2019-06-22T19:15:32Z</time>
      </trkpt>
      <trkpt lat="39.919694" lon="-6.492255">
        <ele>409.768</ele>
        <time>2019-06-22T19:15:33Z</time>
      </trkpt>
      <trkpt lat="39.919615" lon="-6.492149">
        <ele>410.680</ele>
        <time>2019-06-22T19:15:34Z</time>
      </trkpt>
      <trkpt lat="39.919547" lon="-6.492057">
        <ele>411.472</ele>
        <time>2019-06-22T19:15:35Z</time>
      </trkpt>
      <trkpt lat="39.919490" lon="-6.491977">
        <ele>412.030</ele>
        <time>2019-06-22T19:15:36Z</time>
      </trkpt>
      <trkpt lat="39.919445" lon="-6.491921">
        <ele>412.729</ele>
        <time>2019-06-22T19:15:37Z</time>
      </trkpt>
      <trkpt lat="39.919407" lon="-6.491880">
        <ele>413.384</ele>
        <time>2019-06-22T19:15:38Z</time>
      </trkpt>
      <trkpt lat="39.919371" lon="-6.491832">
        <ele>414.617</ele>
        <time>2019-06-22T19:15:40Z</time>
      </trkpt>
      <trkpt lat="39.919345" lon="-6.491778">
        <ele>417.219</ele>
        <time>2019-06-22T19:16:10Z</time>
      </trkpt>
      <trkpt lat="39.919291" lon="-6.491697">
        <ele>417.209</ele>
        <time>2019-06-22T19:16:11Z</time>
      </trkpt>
      <trkpt lat="39.919238" lon="-6.491628">
        <ele>417.119</ele>
        <time>2019-06-22T19:16:12Z</time>
      </trkpt>
      <trkpt lat="39.919168" lon="-6.491528">
        <ele>416.908</ele>
        <time>2019-06-22T19:16:13Z</time>
      </trkpt>
      <trkpt lat="39.919084" lon="-6.491426">
        <ele>416.834</ele>
        <time>2019-06-22T19:16:14Z</time>
      </trkpt>
      <trkpt lat="39.918988" lon="-6.491312">
        <ele>416.618</ele>
        <time>2019-06-22T19:16:15Z</time>
      </trkpt>
      <trkpt lat="39.918881" lon="-6.491182">
        <ele>416.430</ele>
        <time>2019-06-22T19:16:16Z</time>
      </trkpt>
      <trkpt lat="39.918760" lon="-6.491035">
        <ele>416.152</ele>
        <time>2019-06-22T19:16:17Z</time>
      </trkpt>
      <trkpt lat="39.918632" lon="-6.490881">
        <ele>416.080</ele>
        <time>2019-06-22T19:16:18Z</time>
      </trkpt>
      <trkpt lat="39.918509" lon="-6.490733">
        <ele>415.529</ele>
        <time>2019-06-22T19:16:19Z</time>
      </trkpt>
      <trkpt lat="39.918369" lon="-6.490568">
        <ele>415.014</ele>
        <time>2019-06-22T19:16:20Z</time>
      </trkpt>
      <trkpt lat="39.918224" lon="-6.490395">
        <ele>414.487</ele>
        <time>2019-06-22T19:16:21Z</time>
      </trkpt>
      <trkpt lat="39.918081" lon="-6.490209">
        <ele>413.745</ele>
        <time>2019-06-22T19:16:22Z</time>
      </trkpt>
      <trkpt lat="39.917923" lon="-6.490020">
        <ele>413.047</ele>
        <time>2019-06-22T19:16:23Z</time>
      </trkpt>
      <trkpt lat="39.917763" lon="-6.489823">
        <ele>412.211</ele>
        <time>2019-06-22T19:16:24Z</time>
      </trkpt>
      <trkpt lat="39.917601" lon="-6.489631">
        <ele>411.508</ele>
        <time>2019-06-22T19:16:25Z</time>
      </trkpt>
      <trkpt lat="39.917441" lon="-6.489428">
        <ele>410.457</ele>
        <time>2019-06-22T19:16:26Z</time>
      </trkpt>
      <trkpt lat="39.917273" lon="-6.489225">
        <ele>410.241</ele>
        <time>2019-06-22T19:16:27Z</time>
      </trkpt>
      <trkpt lat="39.917098" lon="-6.489007">
        <ele>410.043</ele>
        <time>2019-06-22T19:16:28Z</time>
      </trkpt>
      <trkpt lat="39.916917" lon="-6.488783">
        <ele>410.055</ele>
        <time>2019-06-22T19:16:29Z</time>
      </trkpt>
      <trkpt lat="39.916739" lon="-6.488570">
        <ele>410.453</ele>
        <time>2019-06-22T19:16:30Z</time>
      </trkpt>
      <trkpt lat="39.916564" lon="-6.488352">
        <ele>410.422</ele>
        <time>2019-06-22T19:16:31Z</time>
      </trkpt>
      <trkpt lat="39.916384" lon="-6.488134">
        <ele>409.757</ele>
        <time>2019-06-22T19:16:32Z</time>
      </trkpt>
      <trkpt lat="39.916203" lon="-6.487910">
        <ele>408.880</ele>
        <time>2019-06-22T19:16:33Z</time>
      </trkpt>
      <trkpt lat="39.916018" lon="-6.487684">
        <ele>408.596</ele>
        <time>2019-06-22T19:16:34Z</time>
      </trkpt>
      <trkpt lat="39.915828" lon="-6.487459">
        <ele>407.831</ele>
        <time>2019-06-22T19:16:35Z</time>
      </trkpt>
      <trkpt lat="39.915641" lon="-6.487246">
        <ele>407.824</ele>
        <time>2019-06-22T19:16:36Z</time>
      </trkpt>
      <trkpt lat="39.915457" lon="-6.487020">
        <ele>408.008</ele>
        <time>2019-06-22T19:16:37Z</time>
      </trkpt>
      <trkpt lat="39.915269" lon="-6.486802">
        <ele>408.132</ele>
        <time>2019-06-22T19:16:38Z</time>
      </trkpt>
      <trkpt lat="39.915088" lon="-6.486585">
        <ele>408.136</ele>
        <time>2019-06-22T19:16:39Z</time>
      </trkpt>
      <trkpt lat="39.914906" lon="-6.486369">
        <ele>408.178</ele>
        <time>2019-06-22T19:16:40Z</time>
      </trkpt>
      <trkpt lat="39.914735" lon="-6.486149">
        <ele>408.570</ele>
        <time>2019-06-22T19:16:41Z</time>
      </trkpt>
      <trkpt lat="39.914562" lon="-6.485941">
        <ele>408.718</ele>
        <time>2019-06-22T19:16:42Z</time>
      </trkpt>
      <trkpt lat="39.914382" lon="-6.485726">
        <ele>409.787</ele>
        <time>2019-06-22T19:16:43Z</time>
      </trkpt>
      <trkpt lat="39.914208" lon="-6.485518">
        <ele>410.542</ele>
        <time>2019-06-22T19:16:44Z</time>
      </trkpt>
      <trkpt lat="39.914022" lon="-6.485304">
        <ele>411.665</ele>
        <time>2019-06-22T19:16:45Z</time>
      </trkpt>
      <trkpt lat="39.913833" lon="-6.485093">
        <ele>412.544</ele>
        <time>2019-06-22T19:16:46Z</time>
      </trkpt>
      <trkpt lat="39.913646" lon="-6.484886">
        <ele>412.805</ele>
        <time>2019-06-22T19:16:47Z</time>
      </trkpt>
      <trkpt lat="39.913454" lon="-6.484677">
        <ele>413.115</ele>
        <time>2019-06-22T19:16:48Z</time>
      </trkpt>
      <trkpt lat="39.913260" lon="-6.484465">
        <ele>413.108</ele>
        <time>2019-06-22T19:16:49Z</time>
      </trkpt>
      <trkpt lat="39.913066" lon="-6.484259">
        <ele>412.317</ele>
        <time>2019-06-22T19:16:50Z</time>
      </trkpt>
      <trkpt lat="39.912874" lon="-6.484043">
        <ele>410.751</ele>
        <time>2019-06-22T19:16:51Z</time>
      </trkpt>
      <trkpt lat="39.912680" lon="-6.483838">
        <ele>409.613</ele>
        <time>2019-06-22T19:16:52Z</time>
      </trkpt>
      <trkpt lat="39.912492" lon="-6.483639">
        <ele>407.785</ele>
        <time>2019-06-22T19:16:53Z</time>
      </trkpt>
      <trkpt lat="39.912301" lon="-6.483432">
        <ele>405.773</ele>
        <time>2019-06-22T19:16:54Z</time>
      </trkpt>
      <trkpt lat="39.912109" lon="-6.483229">
        <ele>403.352</ele>
        <time>2019-06-22T19:16:55Z</time>
      </trkpt>
      <trkpt lat="39.911917" lon="-6.483018">
        <ele>401.897</ele>
        <time>2019-06-22T19:16:56Z</time>
      </trkpt>
      <trkpt lat="39.911733" lon="-6.482817">
        <ele>400.040</ele>
        <time>2019-06-22T19:16:57Z</time>
      </trkpt>
      <trkpt lat="39.911542" lon="-6.482611">
        <ele>398.675</ele>
        <time>2019-06-22T19:16:58Z</time>
      </trkpt>
      <trkpt lat="39.911350" lon="-6.482411">
        <ele>397.028</ele>
        <time>2019-06-22T19:16:59Z</time>
      </trkpt>
      <trkpt lat="39.911163" lon="-6.482205">
        <ele>396.420</ele>
        <time>2019-06-22T19:17:00Z</time>
      </trkpt>
      <trkpt lat="39.910976" lon="-6.481995">
        <ele>396.108</ele>
        <time>2019-06-22T19:17:01Z</time>
      </trkpt>
      <trkpt lat="39.910786" lon="-6.481784">
        <ele>395.670</ele>
        <time>2019-06-22T19:17:02Z</time>
      </trkpt>
      <trkpt lat="39.910587" lon="-6.481565">
        <ele>395.294</ele>
        <time>2019-06-22T19:17:03Z</time>
      </trkpt>
      <trkpt lat="39.910381" lon="-6.481350">
        <ele>395.086</ele>
        <time>2019-06-22T19:17:04Z</time>
      </trkpt>
      <trkpt lat="39.910182" lon="-6.481138">
        <ele>394.088</ele>
        <time>2019-06-22T19:17:05Z</time>
      </trkpt>
      <trkpt lat="39.909977" lon="-6.480926">
        <ele>392.646</ele>
        <time>2019-06-22T19:17:06Z</time>
      </trkpt>
      <trkpt lat="39.909778" lon="-6.480710">
        <ele>391.115</ele>
        <time>2019-06-22T19:17:07Z</time>
      </trkpt>
      <trkpt lat="39.909583" lon="-6.480500">
        <ele>389.130</ele>
        <time>2019-06-22T19:17:08Z</time>
      </trkpt>
      <trkpt lat="39.909389" lon="-6.480284">
        <ele>387.263</ele>
        <time>2019-06-22T19:17:09Z</time>
      </trkpt>
      <trkpt lat="39.909199" lon="-6.480072">
        <ele>385.327</ele>
        <time>2019-06-22T19:17:10Z</time>
      </trkpt>
      <trkpt lat="39.909007" lon="-6.479870">
        <ele>383.968</ele>
        <time>2019-06-22T19:17:11Z</time>
      </trkpt>
      <trkpt lat="39.908816" lon="-6.479666">
        <ele>382.914</ele>
        <time>2019-06-22T19:17:12Z</time>
      </trkpt>
      <trkpt lat="39.908630" lon="-6.479467">
        <ele>382.908</ele>
        <time>2019-06-22T19:17:13Z</time>
      </trkpt>
      <trkpt lat="39.908448" lon="-6.479274">
        <ele>381.715</ele>
        <time>2019-06-22T19:17:14Z</time>
      </trkpt>
      <trkpt lat="39.908269" lon="-6.479079">
        <ele>380.739</ele>
        <time>2019-06-22T19:17:15Z</time>
      </trkpt>
      <trkpt lat="39.908098" lon="-6.478892">
        <ele>380.141</ele>
        <time>2019-06-22T19:17:16Z</time>
      </trkpt>
      <trkpt lat="39.907930" lon="-6.478706">
        <ele>378.963</ele>
        <time>2019-06-22T19:17:17Z</time>
      </trkpt>
      <trkpt lat="39.907758" lon="-6.478522">
        <ele>377.831</ele>
        <time>2019-06-22T19:17:18Z</time>
      </trkpt>
      <trkpt lat="39.907584" lon="-6.478338">
        <ele>377.590</ele>
        <time>2019-06-22T19:17:19Z</time>
      </trkpt>
      <trkpt lat="39.907415" lon="-6.478153">
        <ele>377.285</ele>
        <time>2019-06-22T19:17:20Z</time>
      </trkpt>
      <trkpt lat="39.907241" lon="-6.477971">
        <ele>376.578</ele>
        <time>2019-06-22T19:17:21Z</time>
      </trkpt>
      <trkpt lat="39.907063" lon="-6.477785">
        <ele>376.354</ele>
        <time>2019-06-22T19:17:22Z</time>
      </trkpt>
      <trkpt lat="39.906888" lon="-6.477610">
        <ele>375.856</ele>
        <time>2019-06-22T19:17:23Z</time>
      </trkpt>
      <trkpt lat="39.906706" lon="-6.477441">
        <ele>375.211</ele>
        <time>2019-06-22T19:17:24Z</time>
      </trkpt>
      <trkpt lat="39.906517" lon="-6.477270">
        <ele>374.408</ele>
        <time>2019-06-22T19:17:25Z</time>
      </trkpt>
      <trkpt lat="39.906320" lon="-6.477113">
        <ele>374.178</ele>
        <time>2019-06-22T19:17:26Z</time>
      </trkpt>
      <trkpt lat="39.906116" lon="-6.476965">
        <ele>374.182</ele>
        <time>2019-06-22T19:17:27Z</time>
      </trkpt>
      <trkpt lat="39.905906" lon="-6.476835">
        <ele>374.014</ele>
        <time>2019-06-22T19:17:28Z</time>
      </trkpt>
      <trkpt lat="39.905681" lon="-6.476702">
        <ele>374.096</ele>
        <time>2019-06-22T19:17:29Z</time>
      </trkpt>
      <trkpt lat="39.905460" lon="-6.476585">
        <ele>373.814</ele>
        <time>2019-06-22T19:17:30Z</time>
      </trkpt>
      <trkpt lat="39.905219" lon="-6.476493">
        <ele>373.553</ele>
        <time>2019-06-22T19:17:31Z</time>
      </trkpt>
      <trkpt lat="39.904976" lon="-6.476420">
        <ele>372.978</ele>
        <time>2019-06-22T19:17:32Z</time>
      </trkpt>
      <trkpt lat="39.904729" lon="-6.476366">
        <ele>372.061</ele>
        <time>2019-06-22T19:17:33Z</time>
      </trkpt>
      <trkpt lat="39.904476" lon="-6.476336">
        <ele>371.344</ele>
        <time>2019-06-22T19:17:34Z</time>
      </trkpt>
      <trkpt lat="39.904222" lon="-6.476319">
        <ele>370.605</ele>
        <time>2019-06-22T19:17:35Z</time>
      </trkpt>
      <trkpt lat="39.903963" lon="-6.476327">
        <ele>370.115</ele>
        <time>2019-06-22T19:17:36Z</time>
      </trkpt>
      <trkpt lat="39.903707" lon="-6.476352">
        <ele>369.008</ele>
        <time>2019-06-22T19:17:37Z</time>
      </trkpt>
      <trkpt lat="39.903455" lon="-6.476398">
        <ele>368.717</ele>
        <time>2019-06-22T19:17:38Z</time>
      </trkpt>
      <trkpt lat="39.903226" lon="-6.476466">
        <ele>368.051</ele>
        <time>2019-06-22T19:17:39Z</time>
      </trkpt>
      <trkpt lat="39.902983" lon="-6.476554">
        <ele>367.543</ele>
        <time>2019-06-22T19:17:40Z</time>
      </trkpt>
      <trkpt lat="39.902738" lon="-6.476662">
        <ele>367.495</ele>
        <time>2019-06-22T19:17:41Z</time>
      </trkpt>
      <trkpt lat="39.902507" lon="-6.476786">
        <ele>367.273</ele>
        <time>2019-06-22T19:17:42Z</time>
      </trkpt>
      <trkpt lat="39.902278" lon="-6.476921">
        <ele>367.282</ele>
        <time>2019-06-22T19:17:43Z</time>
      </trkpt>
      <trkpt lat="39.902053" lon="-6.477072">
        <ele>367.267</ele>
        <time>2019-06-22T19:17:44Z</time>
      </trkpt>
      <trkpt lat="39.901825" lon="-6.477225">
        <ele>367.180</ele>
        <time>2019-06-22T19:17:45Z</time>
      </trkpt>
      <trkpt lat="39.901609" lon="-6.477388">
        <ele>366.892</ele>
        <time>2019-06-22T19:17:46Z</time>
      </trkpt>
      <trkpt lat="39.901388" lon="-6.477549">
        <ele>366.773</ele>
        <time>2019-06-22T19:17:47Z</time>
      </trkpt>
      <trkpt lat="39.901164" lon="-6.477713">
        <ele>366.620</ele>
        <time>2019-06-22T19:17:48Z</time>
      </trkpt>
      <trkpt lat="39.900944" lon="-6.477891">
        <ele>366.008</ele>
        <time>2019-06-22T19:17:49Z</time>
      </trkpt>
      <trkpt lat="39.900726" lon="-6.478069">
        <ele>365.782</ele>
        <time>2019-06-22T19:17:50Z</time>
      </trkpt>
      <trkpt lat="39.900510" lon="-6.478249">
        <ele>365.126</ele>
        <time>2019-06-22T19:17:51Z</time>
      </trkpt>
      <trkpt lat="39.900286" lon="-6.478427">
        <ele>364.948</ele>
        <time>2019-06-22T19:17:52Z</time>
      </trkpt>
      <trkpt lat="39.900078" lon="-6.478589">
        <ele>364.890</ele>
        <time>2019-06-22T19:17:53Z</time>
      </trkpt>
      <trkpt lat="39.899865" lon="-6.478757">
        <ele>364.838</ele>
        <time>2019-06-22T19:17:54Z</time>
      </trkpt>
      <trkpt lat="39.899676" lon="-6.478932">
        <ele>365.027</ele>
        <time>2019-06-22T19:17:55Z</time>
      </trkpt>
      <trkpt lat="39.899460" lon="-6.479092">
        <ele>365.082</ele>
        <time>2019-06-22T19:17:56Z</time>
      </trkpt>
      <trkpt lat="39.899236" lon="-6.479269">
        <ele>364.045</ele>
        <time>2019-06-22T19:17:57Z</time>
      </trkpt>
      <trkpt lat="39.899025" lon="-6.479427">
        <ele>362.838</ele>
        <time>2019-06-22T19:17:58Z</time>
      </trkpt>
      <trkpt lat="39.898805" lon="-6.479602">
        <ele>362.170</ele>
        <time>2019-06-22T19:17:59Z</time>
      </trkpt>
      <trkpt lat="39.898579" lon="-6.479760">
        <ele>361.117</ele>
        <time>2019-06-22T19:18:00Z</time>
      </trkpt>
      <trkpt lat="39.898341" lon="-6.479935">
        <ele>360.708</ele>
        <time>2019-06-22T19:18:01Z</time>
      </trkpt>
      <trkpt lat="39.898129" lon="-6.480095">
        <ele>360.786</ele>
        <time>2019-06-22T19:18:02Z</time>
      </trkpt>
      <trkpt lat="39.897889" lon="-6.480241">
        <ele>361.470</ele>
        <time>2019-06-22T19:18:03Z</time>
      </trkpt>
      <trkpt lat="39.897638" lon="-6.480370">
        <ele>361.412</ele>
        <time>2019-06-22T19:18:04Z</time>
      </trkpt>
      <trkpt lat="39.897395" lon="-6.480490">
        <ele>361.784</ele>
        <time>2019-06-22T19:18:05Z</time>
      </trkpt>
      <trkpt lat="39.897146" lon="-6.480614">
        <ele>361.772</ele>
        <time>2019-06-22T19:18:06Z</time>
      </trkpt>
      <trkpt lat="39.896887" lon="-6.480721">
        <ele>362.021</ele>
        <time>2019-06-22T19:18:07Z</time>
      </trkpt>
      <trkpt lat="39.896639" lon="-6.480843">
        <ele>362.066</ele>
        <time>2019-06-22T19:18:08Z</time>
      </trkpt>
      <trkpt lat="39.896397" lon="-6.480942">
        <ele>361.669</ele>
        <time>2019-06-22T19:18:09Z</time>
      </trkpt>
      <trkpt lat="39.896121" lon="-6.481012">
        <ele>361.231</ele>
        <time>2019-06-22T19:18:10Z</time>
      </trkpt>
      <trkpt lat="39.895853" lon="-6.481099">
        <ele>360.561</ele>
        <time>2019-06-22T19:18:11Z</time>
      </trkpt>
      <trkpt lat="39.895593" lon="-6.481166">
        <ele>359.707</ele>
        <time>2019-06-22T19:18:12Z</time>
      </trkpt>
      <trkpt lat="39.895327" lon="-6.481233">
        <ele>359.208</ele>
        <time>2019-06-22T19:18:13Z</time>
      </trkpt>
      <trkpt lat="39.895067" lon="-6.481284">
        <ele>359.046</ele>
        <time>2019-06-22T19:18:14Z</time>
      </trkpt>
      <trkpt lat="39.894802" lon="-6.481328">
        <ele>358.780</ele>
        <time>2019-06-22T19:18:15Z</time>
      </trkpt>
      <trkpt lat="39.894540" lon="-6.481359">
        <ele>358.142</ele>
        <time>2019-06-22T19:18:16Z</time>
      </trkpt>
      <trkpt lat="39.894280" lon="-6.481380">
        <ele>357.924</ele>
        <time>2019-06-22T19:18:17Z</time>
      </trkpt>
      <trkpt lat="39.894036" lon="-6.481390">
        <ele>357.912</ele>
        <time>2019-06-22T19:18:18Z</time>
      </trkpt>
      <trkpt lat="39.893773" lon="-6.481399">
        <ele>357.051</ele>
        <time>2019-06-22T19:18:19Z</time>
      </trkpt>
      <trkpt lat="39.893524" lon="-6.481401">
        <ele>355.966</ele>
        <time>2019-06-22T19:18:20Z</time>
      </trkpt>
      <trkpt lat="39.893263" lon="-6.481398">
        <ele>354.449</ele>
        <time>2019-06-22T19:18:21Z</time>
      </trkpt>
      <trkpt lat="39.892994" lon="-6.481368">
        <ele>353.151</ele>
        <time>2019-06-22T19:18:22Z</time>
      </trkpt>
      <trkpt lat="39.892734" lon="-6.481338">
        <ele>351.201</ele>
        <time>2019-06-22T19:18:23Z</time>
      </trkpt>
      <trkpt lat="39.892492" lon="-6.481307">
        <ele>349.611</ele>
        <time>2019-06-22T19:18:24Z</time>
      </trkpt>
      <trkpt lat="39.892239" lon="-6.481253">
        <ele>348.508</ele>
        <time>2019-06-22T19:18:25Z</time>
      </trkpt>
      <trkpt lat="39.891983" lon="-6.481203">
        <ele>347.668</ele>
        <time>2019-06-22T19:18:26Z</time>
      </trkpt>
      <trkpt lat="39.891721" lon="-6.481133">
        <ele>346.452</ele>
        <time>2019-06-22T19:18:27Z</time>
      </trkpt>
      <trkpt lat="39.891458" lon="-6.481052">
        <ele>346.154</ele>
        <time>2019-06-22T19:18:28Z</time>
      </trkpt>
      <trkpt lat="39.891216" lon="-6.480975">
        <ele>346.116</ele>
        <time>2019-06-22T19:18:29Z</time>
      </trkpt>
      <trkpt lat="39.890975" lon="-6.480891">
        <ele>345.614</ele>
        <time>2019-06-22T19:18:30Z</time>
      </trkpt>
      <trkpt lat="39.890722" lon="-6.480788">
        <ele>344.883</ele>
        <time>2019-06-22T19:18:31Z</time>
      </trkpt>
      <trkpt lat="39.890477" lon="-6.480689">
        <ele>344.648</ele>
        <time>2019-06-22T19:18:32Z</time>
      </trkpt>
      <trkpt lat="39.890230" lon="-6.480573">
        <ele>344.121</ele>
        <time>2019-06-22T19:18:33Z</time>
      </trkpt>
      <trkpt lat="39.889991" lon="-6.480454">
        <ele>343.795</ele>
        <time>2019-06-22T19:18:34Z</time>
      </trkpt>
      <trkpt lat="39.889761" lon="-6.480333">
        <ele>342.849</ele>
        <time>2019-06-22T19:18:35Z</time>
      </trkpt>
      <trkpt lat="39.889535" lon="-6.480199">
        <ele>342.423</ele>
        <time>2019-06-22T19:18:36Z</time>
      </trkpt>
      <trkpt lat="39.889311" lon="-6.480066">
        <ele>342.208</ele>
        <time>2019-06-22T19:18:37Z</time>
      </trkpt>
      <trkpt lat="39.889094" lon="-6.479925">
        <ele>342.292</ele>
        <time>2019-06-22T19:18:38Z</time>
      </trkpt>
      <trkpt lat="39.888885" lon="-6.479773">
        <ele>342.286</ele>
        <time>2019-06-22T19:18:39Z</time>
      </trkpt>
      <trkpt lat="39.888679" lon="-6.479614">
        <ele>342.628</ele>
        <time>2019-06-22T19:18:40Z</time>
      </trkpt>
      <trkpt lat="39.888477" lon="-6.479450">
        <ele>342.830</ele>
        <time>2019-06-22T19:18:41Z</time>
      </trkpt>
      <trkpt lat="39.888275" lon="-6.479280">
        <ele>342.848</ele>
        <time>2019-06-22T19:18:42Z</time>
      </trkpt>
      <trkpt lat="39.888077" lon="-6.479105">
        <ele>341.827</ele>
        <time>2019-06-22T19:18:43Z</time>
      </trkpt>
      <trkpt lat="39.887881" lon="-6.478930">
        <ele>341.152</ele>
        <time>2019-06-22T19:18:44Z</time>
      </trkpt>
      <trkpt lat="39.887687" lon="-6.478750">
        <ele>340.495</ele>
        <time>2019-06-22T19:18:45Z</time>
      </trkpt>
      <trkpt lat="39.887498" lon="-6.478563">
        <ele>340.454</ele>
        <time>2019-06-22T19:18:46Z</time>
      </trkpt>
      <trkpt lat="39.887313" lon="-6.478367">
        <ele>340.656</ele>
        <time>2019-06-22T19:18:47Z</time>
      </trkpt>
      <trkpt lat="39.887131" lon="-6.478162">
        <ele>340.811</ele>
        <time>2019-06-22T19:18:48Z</time>
      </trkpt>
      <trkpt lat="39.886946" lon="-6.477949">
        <ele>341.308</ele>
        <time>2019-06-22T19:18:49Z</time>
      </trkpt>
      <trkpt lat="39.886767" lon="-6.477731">
        <ele>341.698</ele>
        <time>2019-06-22T19:18:50Z</time>
      </trkpt>
      <trkpt lat="39.886598" lon="-6.477518">
        <ele>341.612</ele>
        <time>2019-06-22T19:18:51Z</time>
      </trkpt>
      <trkpt lat="39.886438" lon="-6.477315">
        <ele>341.574</ele>
        <time>2019-06-22T19:18:52Z</time>
      </trkpt>
      <trkpt lat="39.886289" lon="-6.477118">
        <ele>341.016</ele>
        <time>2019-06-22T19:18:53Z</time>
      </trkpt>
      <trkpt lat="39.886155" lon="-6.476926">
        <ele>340.194</ele>
        <time>2019-06-22T19:18:54Z</time>
      </trkpt>
      <trkpt lat="39.886028" lon="-6.476743">
        <ele>340.143</ele>
        <time>2019-06-22T19:18:55Z</time>
      </trkpt>
      <trkpt lat="39.885907" lon="-6.476566">
        <ele>340.538</ele>
        <time>2019-06-22T19:18:56Z</time>
      </trkpt>
      <trkpt lat="39.885789" lon="-6.476395">
        <ele>341.361</ele>
        <time>2019-06-22T19:18:57Z</time>
      </trkpt>
      <trkpt lat="39.885678" lon="-6.476249">
        <ele>343.274</ele>
        <time>2019-06-22T19:18:58Z</time>
      </trkpt>
      <trkpt lat="39.885570" lon="-6.476099">
        <ele>345.156</ele>
        <time>2019-06-22T19:18:59Z</time>
      </trkpt>
      <trkpt lat="39.885462" lon="-6.475965">
        <ele>346.621</ele>
        <time>2019-06-22T19:19:00Z</time>
      </trkpt>
      <trkpt lat="39.885363" lon="-6.475828">
        <ele>347.608</ele>
        <time>2019-06-22T19:19:01Z</time>
      </trkpt>
      <trkpt lat="39.885273" lon="-6.475706">
        <ele>348.340</ele>
        <time>2019-06-22T19:19:02Z</time>
      </trkpt>
      <trkpt lat="39.885187" lon="-6.475587">
        <ele>348.744</ele>
        <time>2019-06-22T19:19:03Z</time>
      </trkpt>
      <trkpt lat="39.885103" lon="-6.475478">
        <ele>349.076</ele>
        <time>2019-06-22T19:19:04Z</time>
      </trkpt>
      <trkpt lat="39.885033" lon="-6.475390">
        <ele>349.258</ele>
        <time>2019-06-22T19:19:05Z</time>
      </trkpt>
      <trkpt lat="39.884967" lon="-6.475320">
        <ele>349.666</ele>
        <time>2019-06-22T19:19:06Z</time>
      </trkpt>
      <trkpt lat="39.884918" lon="-6.475272">
        <ele>350.025</ele>
        <time>2019-06-22T19:19:07Z</time>
      </trkpt>
      <trkpt lat="39.884878" lon="-6.475233">
        <ele>350.770</ele>
        <time>2019-06-22T19:19:08Z</time>
      </trkpt>
      <trkpt lat="39.884796" lon="-6.475200">
        <ele>352.273</ele>
        <time>2019-06-22T19:19:10Z</time>
      </trkpt>
      <trkpt lat="39.884692" lon="-6.475225">
        <ele>353.023</ele>
        <time>2019-06-22T19:19:12Z</time>
      </trkpt>
      <trkpt lat="39.884617" lon="-6.475251">
        <ele>353.383</ele>
        <time>2019-06-22T19:19:13Z</time>
      </trkpt>
      <trkpt lat="39.884533" lon="-6.475317">
        <ele>353.511</ele>
        <time>2019-06-22T19:19:14Z</time>
      </trkpt>
      <trkpt lat="39.884436" lon="-6.475351">
        <ele>353.708</ele>
        <time>2019-06-22T19:19:15Z</time>
      </trkpt>
      <trkpt lat="39.884323" lon="-6.475379">
        <ele>353.825</ele>
        <time>2019-06-22T19:19:16Z</time>
      </trkpt>
      <trkpt lat="39.884175" lon="-6.475400">
        <ele>353.959</ele>
        <time>2019-06-22T19:19:17Z</time>
      </trkpt>
      <trkpt lat="39.884023" lon="-6.475421">
        <ele>353.931</ele>
        <time>2019-06-22T19:19:18Z</time>
      </trkpt>
      <trkpt lat="39.883869" lon="-6.475434">
        <ele>353.733</ele>
        <time>2019-06-22T19:19:19Z</time>
      </trkpt>
      <trkpt lat="39.883705" lon="-6.475442">
        <ele>353.671</ele>
        <time>2019-06-22T19:19:20Z</time>
      </trkpt>
      <trkpt lat="39.883520" lon="-6.475465">
        <ele>353.570</ele>
        <time>2019-06-22T19:19:21Z</time>
      </trkpt>
      <trkpt lat="39.883326" lon="-6.475483">
        <ele>353.685</ele>
        <time>2019-06-22T19:19:22Z</time>
      </trkpt>
      <trkpt lat="39.883127" lon="-6.475502">
        <ele>353.798</ele>
        <time>2019-06-22T19:19:23Z</time>
      </trkpt>
      <trkpt lat="39.882926" lon="-6.475510">
        <ele>354.012</ele>
        <time>2019-06-22T19:19:24Z</time>
      </trkpt>
      <trkpt lat="39.882712" lon="-6.475521">
        <ele>354.032</ele>
        <time>2019-06-22T19:19:25Z</time>
      </trkpt>
      <trkpt lat="39.882499" lon="-6.475538">
        <ele>354.005</ele>
        <time>2019-06-22T19:19:26Z</time>
      </trkpt>
      <trkpt lat="39.882287" lon="-6.475553">
        <ele>353.508</ele>
        <time>2019-06-22T19:19:27Z</time>
      </trkpt>
      <trkpt lat="39.882067" lon="-6.475569">
        <ele>353.434</ele>
        <time>2019-06-22T19:19:28Z</time>
      </trkpt>
      <trkpt lat="39.881840" lon="-6.475590">
        <ele>353.398</ele>
        <time>2019-06-22T19:19:29Z</time>
      </trkpt>
      <trkpt lat="39.881618" lon="-6.475611">
        <ele>353.090</ele>
        <time>2019-06-22T19:19:30Z</time>
      </trkpt>
      <trkpt lat="39.881396" lon="-6.475632">
        <ele>352.752</ele>
        <time>2019-06-22T19:19:31Z</time>
      </trkpt>
      <trkpt lat="39.881174" lon="-6.475652">
        <ele>352.610</ele>
        <time>2019-06-22T19:19:32Z</time>
      </trkpt>
      <trkpt lat="39.880948" lon="-6.475676">
        <ele>352.549</ele>
        <time>2019-06-22T19:19:33Z</time>
      </trkpt>
      <trkpt lat="39.880727" lon="-6.475691">
        <ele>352.394</ele>
        <time>2019-06-22T19:19:34Z</time>
      </trkpt>
      <trkpt lat="39.880511" lon="-6.475704">
        <ele>352.137</ele>
        <time>2019-06-22T19:19:35Z</time>
      </trkpt>
      <trkpt lat="39.880294" lon="-6.475704">
        <ele>352.181</ele>
        <time>2019-06-22T19:19:36Z</time>
      </trkpt>
      <trkpt lat="39.880084" lon="-6.475687">
        <ele>352.161</ele>
        <time>2019-06-22T19:19:37Z</time>
      </trkpt>
      <trkpt lat="39.879874" lon="-6.475657">
        <ele>352.017</ele>
        <time>2019-06-22T19:19:38Z</time>
      </trkpt>
      <trkpt lat="39.879658" lon="-6.475629">
        <ele>351.408</ele>
        <time>2019-06-22T19:19:39Z</time>
      </trkpt>
      <trkpt lat="39.879454" lon="-6.475598">
        <ele>351.351</ele>
        <time>2019-06-22T19:19:40Z</time>
      </trkpt>
      <trkpt lat="39.879239" lon="-6.475565">
        <ele>350.255</ele>
        <time>2019-06-22T19:19:41Z</time>
      </trkpt>
      <trkpt lat="39.879026" lon="-6.475531">
        <ele>349.577</ele>
        <time>2019-06-22T19:19:42Z</time>
      </trkpt>
      <trkpt lat="39.878809" lon="-6.475499">
        <ele>349.039</ele>
        <time>2019-06-22T19:19:43Z</time>
      </trkpt>
      <trkpt lat="39.878591" lon="-6.475471">
        <ele>348.437</ele>
        <time>2019-06-22T19:19:44Z</time>
      </trkpt>
      <trkpt lat="39.878373" lon="-6.475440">
        <ele>347.666</ele>
        <time>2019-06-22T19:19:45Z</time>
      </trkpt>
      <trkpt lat="39.878161" lon="-6.475413">
        <ele>346.931</ele>
        <time>2019-06-22T19:19:46Z</time>
      </trkpt>
      <trkpt lat="39.877949" lon="-6.475399">
        <ele>346.264</ele>
        <time>2019-06-22T19:19:47Z</time>
      </trkpt>
      <trkpt lat="39.877735" lon="-6.475395">
        <ele>345.853</ele>
        <time>2019-06-22T19:19:48Z</time>
      </trkpt>
      <trkpt lat="39.877524" lon="-6.475407">
        <ele>345.804</ele>
        <time>2019-06-22T19:19:49Z</time>
      </trkpt>
      <trkpt lat="39.877304" lon="-6.475448">
        <ele>345.814</ele>
        <time>2019-06-22T19:19:50Z</time>
      </trkpt>
      <trkpt lat="39.877093" lon="-6.475486">
        <ele>346.908</ele>
        <time>2019-06-22T19:19:51Z</time>
      </trkpt>
      <trkpt lat="39.876883" lon="-6.475518">
        <ele>348.348</ele>
        <time>2019-06-22T19:19:52Z</time>
      </trkpt>
      <trkpt lat="39.876670" lon="-6.475534">
        <ele>350.192</ele>
        <time>2019-06-22T19:19:53Z</time>
      </trkpt>
      <trkpt lat="39.876452" lon="-6.475544">
        <ele>351.724</ele>
        <time>2019-06-22T19:19:54Z</time>
      </trkpt>
      <trkpt lat="39.876227" lon="-6.475545">
        <ele>353.896</ele>
        <time>2019-06-22T19:19:55Z</time>
      </trkpt>
      <trkpt lat="39.875999" lon="-6.475546">
        <ele>354.944</ele>
        <time>2019-06-22T19:19:56Z</time>
      </trkpt>
      <trkpt lat="39.875771" lon="-6.475540">
        <ele>355.723</ele>
        <time>2019-06-22T19:19:57Z</time>
      </trkpt>
      <trkpt lat="39.875534" lon="-6.475539">
        <ele>355.848</ele>
        <time>2019-06-22T19:19:58Z</time>
      </trkpt>
      <trkpt lat="39.875303" lon="-6.475547">
        <ele>355.891</ele>
        <time>2019-06-22T19:19:59Z</time>
      </trkpt>
      <trkpt lat="39.875058" lon="-6.475551">
        <ele>355.059</ele>
        <time>2019-06-22T19:20:00Z</time>
      </trkpt>
      <trkpt lat="39.874811" lon="-6.475563">
        <ele>354.103</ele>
        <time>2019-06-22T19:20:01Z</time>
      </trkpt>
      <trkpt lat="39.874558" lon="-6.475562">
        <ele>352.423</ele>
        <time>2019-06-22T19:20:02Z</time>
      </trkpt>
      <trkpt lat="39.874298" lon="-6.475558">
        <ele>350.508</ele>
        <time>2019-06-22T19:20:03Z</time>
      </trkpt>
      <trkpt lat="39.874039" lon="-6.475557">
        <ele>348.998</ele>
        <time>2019-06-22T19:20:04Z</time>
      </trkpt>
      <trkpt lat="39.873777" lon="-6.475553">
        <ele>347.672</ele>
        <time>2019-06-22T19:20:05Z</time>
      </trkpt>
      <trkpt lat="39.873510" lon="-6.475549">
        <ele>346.524</ele>
        <time>2019-06-22T19:20:06Z</time>
      </trkpt>
      <trkpt lat="39.873245" lon="-6.475544">
        <ele>345.626</ele>
        <time>2019-06-22T19:20:07Z</time>
      </trkpt>
      <trkpt lat="39.872981" lon="-6.475538">
        <ele>344.814</ele>
        <time>2019-06-22T19:20:08Z</time>
      </trkpt>
      <trkpt lat="39.872716" lon="-6.475537">
        <ele>344.173</ele>
        <time>2019-06-22T19:20:09Z</time>
      </trkpt>
      <trkpt lat="39.872447" lon="-6.475539">
        <ele>343.448</ele>
        <time>2019-06-22T19:20:10Z</time>
      </trkpt>
      <trkpt lat="39.872180" lon="-6.475536">
        <ele>342.771</ele>
        <time>2019-06-22T19:20:11Z</time>
      </trkpt>
      <trkpt lat="39.871913" lon="-6.475532">
        <ele>341.225</ele>
        <time>2019-06-22T19:20:12Z</time>
      </trkpt>
      <trkpt lat="39.871639" lon="-6.475532">
        <ele>340.026</ele>
        <time>2019-06-22T19:20:13Z</time>
      </trkpt>
      <trkpt lat="39.871366" lon="-6.475533">
        <ele>338.408</ele>
        <time>2019-06-22T19:20:14Z</time>
      </trkpt>
      <trkpt lat="39.871096" lon="-6.475525">
        <ele>337.208</ele>
        <time>2019-06-22T19:20:15Z</time>
      </trkpt>
      <trkpt lat="39.870826" lon="-6.475527">
        <ele>335.755</ele>
        <time>2019-06-22T19:20:16Z</time>
      </trkpt>
      <trkpt lat="39.870554" lon="-6.475527">
        <ele>335.119</ele>
        <time>2019-06-22T19:20:17Z</time>
      </trkpt>
      <trkpt lat="39.870287" lon="-6.475529">
        <ele>334.891</ele>
        <time>2019-06-22T19:20:18Z</time>
      </trkpt>
      <trkpt lat="39.870015" lon="-6.475521">
        <ele>334.853</ele>
        <time>2019-06-22T19:20:19Z</time>
      </trkpt>
      <trkpt lat="39.869744" lon="-6.475526">
        <ele>335.151</ele>
        <time>2019-06-22T19:20:20Z</time>
      </trkpt>
      <trkpt lat="39.869474" lon="-6.475528">
        <ele>335.340</ele>
        <time>2019-06-22T19:20:21Z</time>
      </trkpt>
      <trkpt lat="39.869204" lon="-6.475521">
        <ele>335.335</ele>
        <time>2019-06-22T19:20:22Z</time>
      </trkpt>
      <trkpt lat="39.868937" lon="-6.475530">
        <ele>335.338</ele>
        <time>2019-06-22T19:20:23Z</time>
      </trkpt>
      <trkpt lat="39.868672" lon="-6.475526">
        <ele>335.333</ele>
        <time>2019-06-22T19:20:24Z</time>
      </trkpt>
      <trkpt lat="39.868415" lon="-6.475523">
        <ele>335.323</ele>
        <time>2019-06-22T19:20:25Z</time>
      </trkpt>
      <trkpt lat="39.868168" lon="-6.475531">
        <ele>335.315</ele>
        <time>2019-06-22T19:20:26Z</time>
      </trkpt>
      <trkpt lat="39.867927" lon="-6.475538">
        <ele>335.308</ele>
        <time>2019-06-22T19:20:27Z</time>
      </trkpt>
      <trkpt lat="39.867676" lon="-6.475540">
        <ele>335.136</ele>
        <time>2019-06-22T19:20:28Z</time>
      </trkpt>
      <trkpt lat="39.867433" lon="-6.475535">
        <ele>334.650</ele>
        <time>2019-06-22T19:20:29Z</time>
      </trkpt>
      <trkpt lat="39.867195" lon="-6.475533">
        <ele>334.682</ele>
        <time>2019-06-22T19:20:30Z</time>
      </trkpt>
      <trkpt lat="39.866969" lon="-6.475531">
        <ele>334.244</ele>
        <time>2019-06-22T19:20:31Z</time>
      </trkpt>
      <trkpt lat="39.866747" lon="-6.475532">
        <ele>332.912</ele>
        <time>2019-06-22T19:20:32Z</time>
      </trkpt>
      <trkpt lat="39.866535" lon="-6.475526">
        <ele>331.391</ele>
        <time>2019-06-22T19:20:33Z</time>
      </trkpt>
      <trkpt lat="39.866331" lon="-6.475523">
        <ele>330.176</ele>
        <time>2019-06-22T19:20:34Z</time>
      </trkpt>
      <trkpt lat="39.866132" lon="-6.475517">
        <ele>330.169</ele>
        <time>2019-06-22T19:20:35Z</time>
      </trkpt>
      <trkpt lat="39.865946" lon="-6.475527">
        <ele>329.763</ele>
        <time>2019-06-22T19:20:36Z</time>
      </trkpt>
      <trkpt lat="39.865766" lon="-6.475544">
        <ele>329.244</ele>
        <time>2019-06-22T19:20:37Z</time>
      </trkpt>
      <trkpt lat="39.865589" lon="-6.475595">
        <ele>329.218</ele>
        <time>2019-06-22T19:20:38Z</time>
      </trkpt>
      <trkpt lat="39.865405" lon="-6.475670">
        <ele>329.908</ele>
        <time>2019-06-22T19:20:39Z</time>
      </trkpt>
      <trkpt lat="39.865226" lon="-6.475756">
        <ele>330.219</ele>
        <time>2019-06-22T19:20:40Z</time>
      </trkpt>
      <trkpt lat="39.865040" lon="-6.475884">
        <ele>330.773</ele>
        <time>2019-06-22T19:20:41Z</time>
      </trkpt>
      <trkpt lat="39.864858" lon="-6.475998">
        <ele>332.365</ele>
        <time>2019-06-22T19:20:42Z</time>
      </trkpt>
      <trkpt lat="39.864680" lon="-6.476106">
        <ele>334.157</ele>
        <time>2019-06-22T19:20:43Z</time>
      </trkpt>
      <trkpt lat="39.864505" lon="-6.476213">
        <ele>335.145</ele>
        <time>2019-06-22T19:20:44Z</time>
      </trkpt>
      <trkpt lat="39.864331" lon="-6.476321">
        <ele>335.944</ele>
        <time>2019-06-22T19:20:45Z</time>
      </trkpt>
      <trkpt lat="39.864161" lon="-6.476415">
        <ele>336.299</ele>
        <time>2019-06-22T19:20:46Z</time>
      </trkpt>
      <trkpt lat="39.863968" lon="-6.476432">
        <ele>336.852</ele>
        <time>2019-06-22T19:20:47Z</time>
      </trkpt>
      <trkpt lat="39.863780" lon="-6.476459">
        <ele>336.999</ele>
        <time>2019-06-22T19:20:48Z</time>
      </trkpt>
      <trkpt lat="39.863583" lon="-6.476466">
        <ele>337.307</ele>
        <time>2019-06-22T19:20:49Z</time>
      </trkpt>
      <trkpt lat="39.863373" lon="-6.476485">
        <ele>337.827</ele>
        <time>2019-06-22T19:20:50Z</time>
      </trkpt>
      <trkpt lat="39.863172" lon="-6.476498">
        <ele>338.608</ele>
        <time>2019-06-22T19:20:51Z</time>
      </trkpt>
      <trkpt lat="39.862971" lon="-6.476510">
        <ele>338.632</ele>
        <time>2019-06-22T19:20:52Z</time>
      </trkpt>
      <trkpt lat="39.862756" lon="-6.476526">
        <ele>339.446</ele>
        <time>2019-06-22T19:20:53Z</time>
      </trkpt>
      <trkpt lat="39.862543" lon="-6.476536">
        <ele>340.278</ele>
        <time>2019-06-22T19:20:54Z</time>
      </trkpt>
      <trkpt lat="39.862327" lon="-6.476546">
        <ele>341.090</ele>
        <time>2019-06-22T19:20:55Z</time>
      </trkpt>
      <trkpt lat="39.862112" lon="-6.476557">
        <ele>341.988</ele>
        <time>2019-06-22T19:20:56Z</time>
      </trkpt>
      <trkpt lat="39.861897" lon="-6.476569">
        <ele>342.977</ele>
        <time>2019-06-22T19:20:57Z</time>
      </trkpt>
      <trkpt lat="39.861681" lon="-6.476584">
        <ele>343.732</ele>
        <time>2019-06-22T19:20:58Z</time>
      </trkpt>
      <trkpt lat="39.861455" lon="-6.476598">
        <ele>344.225</ele>
        <time>2019-06-22T19:20:59Z</time>
      </trkpt>
      <trkpt lat="39.861234" lon="-6.476609">
        <ele>344.521</ele>
        <time>2019-06-22T19:21:00Z</time>
      </trkpt>
      <trkpt lat="39.861015" lon="-6.476598">
        <ele>345.141</ele>
        <time>2019-06-22T19:21:01Z</time>
      </trkpt>
      <trkpt lat="39.860792" lon="-6.476601">
        <ele>345.505</ele>
        <time>2019-06-22T19:21:02Z</time>
      </trkpt>
      <trkpt lat="39.860554" lon="-6.476617">
        <ele>345.808</ele>
        <time>2019-06-22T19:21:03Z</time>
      </trkpt>
      <trkpt lat="39.860314" lon="-6.476640">
        <ele>346.325</ele>
        <time>2019-06-22T19:21:04Z</time>
      </trkpt>
      <trkpt lat="39.860086" lon="-6.476653">
        <ele>346.579</ele>
        <time>2019-06-22T19:21:05Z</time>
      </trkpt>
      <trkpt lat="39.859851" lon="-6.476666">
        <ele>347.091</ele>
        <time>2019-06-22T19:21:06Z</time>
      </trkpt>
      <trkpt lat="39.859620" lon="-6.476675">
        <ele>347.963</ele>
        <time>2019-06-22T19:21:07Z</time>
      </trkpt>
      <trkpt lat="39.859394" lon="-6.476687">
        <ele>348.451</ele>
        <time>2019-06-22T19:21:08Z</time>
      </trkpt>
      <trkpt lat="39.859167" lon="-6.476696">
        <ele>348.940</ele>
        <time>2019-06-22T19:21:09Z</time>
      </trkpt>
      <trkpt lat="39.858933" lon="-6.476710">
        <ele>349.665</ele>
        <time>2019-06-22T19:21:10Z</time>
      </trkpt>
      <trkpt lat="39.858697" lon="-6.476721">
        <ele>350.218</ele>
        <time>2019-06-22T19:21:11Z</time>
      </trkpt>
      <trkpt lat="39.858459" lon="-6.476735">
        <ele>350.881</ele>
        <time>2019-06-22T19:21:12Z</time>
      </trkpt>
      <trkpt lat="39.858228" lon="-6.476748">
        <ele>351.661</ele>
        <time>2019-06-22T19:21:13Z</time>
      </trkpt>
      <trkpt lat="39.857993" lon="-6.476761">
        <ele>351.917</ele>
        <time>2019-06-22T19:21:14Z</time>
      </trkpt>
      <trkpt lat="39.857760" lon="-6.476771">
        <ele>352.708</ele>
        <time>2019-06-22T19:21:15Z</time>
      </trkpt>
      <trkpt lat="39.857523" lon="-6.476784">
        <ele>352.811</ele>
        <time>2019-06-22T19:21:16Z</time>
      </trkpt>
      <trkpt lat="39.857291" lon="-6.476799">
        <ele>353.195</ele>
        <time>2019-06-22T19:21:17Z</time>
      </trkpt>
      <trkpt lat="39.857051" lon="-6.476816">
        <ele>353.327</ele>
        <time>2019-06-22T19:21:18Z</time>
      </trkpt>
      <trkpt lat="39.856815" lon="-6.476828">
        <ele>354.559</ele>
        <time>2019-06-22T19:21:19Z</time>
      </trkpt>
      <trkpt lat="39.856571" lon="-6.476842">
        <ele>355.577</ele>
        <time>2019-06-22T19:21:20Z</time>
      </trkpt>
      <trkpt lat="39.856339" lon="-6.476848">
        <ele>356.516</ele>
        <time>2019-06-22T19:21:21Z</time>
      </trkpt>
      <trkpt lat="39.856105" lon="-6.476855">
        <ele>357.361</ele>
        <time>2019-06-22T19:21:22Z</time>
      </trkpt>
      <trkpt lat="39.855873" lon="-6.476863">
        <ele>358.044</ele>
        <time>2019-06-22T19:21:23Z</time>
      </trkpt>
      <trkpt lat="39.855639" lon="-6.476880">
        <ele>358.629</ele>
        <time>2019-06-22T19:21:24Z</time>
      </trkpt>
      <trkpt lat="39.855409" lon="-6.476899">
        <ele>359.200</ele>
        <time>2019-06-22T19:21:25Z</time>
      </trkpt>
      <trkpt lat="39.855177" lon="-6.476919">
        <ele>359.920</ele>
        <time>2019-06-22T19:21:26Z</time>
      </trkpt>
      <trkpt lat="39.854947" lon="-6.476936">
        <ele>360.908</ele>
        <time>2019-06-22T19:21:27Z</time>
      </trkpt>
      <trkpt lat="39.854721" lon="-6.476946">
        <ele>361.885</ele>
        <time>2019-06-22T19:21:28Z</time>
      </trkpt>
      <trkpt lat="39.854496" lon="-6.476961">
        <ele>363.139</ele>
        <time>2019-06-22T19:21:29Z</time>
      </trkpt>
      <trkpt lat="39.854269" lon="-6.476978">
        <ele>364.881</ele>
        <time>2019-06-22T19:21:30Z</time>
      </trkpt>
      <trkpt lat="39.854043" lon="-6.476992">
        <ele>366.563</ele>
        <time>2019-06-22T19:21:31Z</time>
      </trkpt>
      <trkpt lat="39.853822" lon="-6.476998">
        <ele>367.851</ele>
        <time>2019-06-22T19:21:32Z</time>
      </trkpt>
      <trkpt lat="39.853597" lon="-6.477014">
        <ele>369.760</ele>
        <time>2019-06-22T19:21:33Z</time>
      </trkpt>
      <trkpt lat="39.853372" lon="-6.477026">
        <ele>371.295</ele>
        <time>2019-06-22T19:21:34Z</time>
      </trkpt>
      <trkpt lat="39.853151" lon="-6.477036">
        <ele>372.298</ele>
        <time>2019-06-22T19:21:35Z</time>
      </trkpt>
      <trkpt lat="39.852929" lon="-6.477042">
        <ele>373.572</ele>
        <time>2019-06-22T19:21:36Z</time>
      </trkpt>
      <trkpt lat="39.852705" lon="-6.477041">
        <ele>373.513</ele>
        <time>2019-06-22T19:21:37Z</time>
      </trkpt>
      <trkpt lat="39.852484" lon="-6.477039">
        <ele>375.214</ele>
        <time>2019-06-22T19:21:38Z</time>
      </trkpt>
      <trkpt lat="39.852261" lon="-6.477030">
        <ele>376.608</ele>
        <time>2019-06-22T19:21:39Z</time>
      </trkpt>
      <trkpt lat="39.852042" lon="-6.477021">
        <ele>378.090</ele>
        <time>2019-06-22T19:21:40Z</time>
      </trkpt>
      <trkpt lat="39.851818" lon="-6.477012">
        <ele>378.924</ele>
        <time>2019-06-22T19:21:41Z</time>
      </trkpt>
      <trkpt lat="39.851595" lon="-6.477006">
        <ele>379.286</ele>
        <time>2019-06-22T19:21:42Z</time>
      </trkpt>
      <trkpt lat="39.851369" lon="-6.477001">
        <ele>379.478</ele>
        <time>2019-06-22T19:21:43Z</time>
      </trkpt>
      <trkpt lat="39.851141" lon="-6.476998">
        <ele>379.976</ele>
        <time>2019-06-22T19:21:44Z</time>
      </trkpt>
      <trkpt lat="39.850907" lon="-6.476989">
        <ele>379.955</ele>
        <time>2019-06-22T19:21:45Z</time>
      </trkpt>
      <trkpt lat="39.850673" lon="-6.476982">
        <ele>380.230</ele>
        <time>2019-06-22T19:21:46Z</time>
      </trkpt>
      <trkpt lat="39.850438" lon="-6.476970">
        <ele>380.733</ele>
        <time>2019-06-22T19:21:47Z</time>
      </trkpt>
      <trkpt lat="39.850203" lon="-6.476962">
        <ele>381.277</ele>
        <time>2019-06-22T19:21:48Z</time>
      </trkpt>
      <trkpt lat="39.849961" lon="-6.476946">
        <ele>381.461</ele>
        <time>2019-06-22T19:21:49Z</time>
      </trkpt>
      <trkpt lat="39.849720" lon="-6.476926">
        <ele>381.727</ele>
        <time>2019-06-22T19:21:50Z</time>
      </trkpt>
      <trkpt lat="39.849474" lon="-6.476912">
        <ele>381.908</ele>
        <time>2019-06-22T19:21:51Z</time>
      </trkpt>
      <trkpt lat="39.849236" lon="-6.476898">
        <ele>382.530</ele>
        <time>2019-06-22T19:21:52Z</time>
      </trkpt>
      <trkpt lat="39.848993" lon="-6.476891">
        <ele>383.254</ele>
        <time>2019-06-22T19:21:53Z</time>
      </trkpt>
      <trkpt lat="39.848751" lon="-6.476881">
        <ele>383.916</ele>
        <time>2019-06-22T19:21:54Z</time>
      </trkpt>
      <trkpt lat="39.848504" lon="-6.476863">
        <ele>384.128</ele>
        <time>2019-06-22T19:21:55Z</time>
      </trkpt>
      <trkpt lat="39.848260" lon="-6.476849">
        <ele>385.366</ele>
        <time>2019-06-22T19:21:56Z</time>
      </trkpt>
      <trkpt lat="39.848019" lon="-6.476836">
        <ele>385.775</ele>
        <time>2019-06-22T19:21:57Z</time>
      </trkpt>
      <trkpt lat="39.847770" lon="-6.476823">
        <ele>386.270</ele>
        <time>2019-06-22T19:21:58Z</time>
      </trkpt>
      <trkpt lat="39.847522" lon="-6.476818">
        <ele>386.853</ele>
        <time>2019-06-22T19:21:59Z</time>
      </trkpt>
      <trkpt lat="39.847270" lon="-6.476807">
        <ele>387.639</ele>
        <time>2019-06-22T19:22:00Z</time>
      </trkpt>
      <trkpt lat="39.847027" lon="-6.476806">
        <ele>388.301</ele>
        <time>2019-06-22T19:22:01Z</time>
      </trkpt>
      <trkpt lat="39.846782" lon="-6.476791">
        <ele>388.421</ele>
        <time>2019-06-22T19:22:02Z</time>
      </trkpt>
      <trkpt lat="39.846552" lon="-6.476787">
        <ele>388.508</ele>
        <time>2019-06-22T19:22:03Z</time>
      </trkpt>
      <trkpt lat="39.846330" lon="-6.476774">
        <ele>388.896</ele>
        <time>2019-06-22T19:22:04Z</time>
      </trkpt>
      <trkpt lat="39.846108" lon="-6.476765">
        <ele>389.350</ele>
        <time>2019-06-22T19:22:05Z</time>
      </trkpt>
      <trkpt lat="39.845887" lon="-6.476757">
        <ele>389.362</ele>
        <time>2019-06-22T19:22:06Z</time>
      </trkpt>
      <trkpt lat="39.845669" lon="-6.476747">
        <ele>389.164</ele>
        <time>2019-06-22T19:22:07Z</time>
      </trkpt>
      <trkpt lat="39.845451" lon="-6.476742">
        <ele>389.112</ele>
        <time>2019-06-22T19:22:08Z</time>
      </trkpt>
      <trkpt lat="39.845226" lon="-6.476731">
        <ele>389.241</ele>
        <time>2019-06-22T19:22:09Z</time>
      </trkpt>
      <trkpt lat="39.845001" lon="-6.476724">
        <ele>389.266</ele>
        <time>2019-06-22T19:22:10Z</time>
      </trkpt>
      <trkpt lat="39.844775" lon="-6.476714">
        <ele>389.229</ele>
        <time>2019-06-22T19:22:11Z</time>
      </trkpt>
      <trkpt lat="39.844542" lon="-6.476704">
        <ele>389.685</ele>
        <time>2019-06-22T19:22:12Z</time>
      </trkpt>
      <trkpt lat="39.844303" lon="-6.476692">
        <ele>390.589</ele>
        <time>2019-06-22T19:22:13Z</time>
      </trkpt>
      <trkpt lat="39.844059" lon="-6.476685">
        <ele>391.117</ele>
        <time>2019-06-22T19:22:14Z</time>
      </trkpt>
      <trkpt lat="39.843804" lon="-6.476678">
        <ele>391.308</ele>
        <time>2019-06-22T19:22:15Z</time>
      </trkpt>
      <trkpt lat="39.843547" lon="-6.476666">
        <ele>391.561</ele>
        <time>2019-06-22T19:22:16Z</time>
      </trkpt>
      <trkpt lat="39.843284" lon="-6.476649">
        <ele>391.545</ele>
        <time>2019-06-22T19:22:17Z</time>
      </trkpt>
      <trkpt lat="39.843015" lon="-6.476636">
        <ele>390.677</ele>
        <time>2019-06-22T19:22:18Z</time>
      </trkpt>
      <trkpt lat="39.842746" lon="-6.476613">
        <ele>389.559</ele>
        <time>2019-06-22T19:22:19Z</time>
      </trkpt>
      <trkpt lat="39.842471" lon="-6.476600">
        <ele>387.487</ele>
        <time>2019-06-22T19:22:20Z</time>
      </trkpt>
      <trkpt lat="39.842197" lon="-6.476581">
        <ele>384.986</ele>
        <time>2019-06-22T19:22:21Z</time>
      </trkpt>
      <trkpt lat="39.841920" lon="-6.476560">
        <ele>382.431</ele>
        <time>2019-06-22T19:22:22Z</time>
      </trkpt>
      <trkpt lat="39.841633" lon="-6.476545">
        <ele>380.234</ele>
        <time>2019-06-22T19:22:23Z</time>
      </trkpt>
      <trkpt lat="39.841347" lon="-6.476532">
        <ele>378.064</ele>
        <time>2019-06-22T19:22:24Z</time>
      </trkpt>
      <trkpt lat="39.841056" lon="-6.476513">
        <ele>376.006</ele>
        <time>2019-06-22T19:22:25Z</time>
      </trkpt>
      <trkpt lat="39.840766" lon="-6.476499">
        <ele>374.516</ele>
        <time>2019-06-22T19:22:26Z</time>
      </trkpt>
      <trkpt lat="39.840488" lon="-6.476487">
        <ele>373.108</ele>
        <time>2019-06-22T19:22:27Z</time>
      </trkpt>
      <trkpt lat="39.840219" lon="-6.476475">
        <ele>371.449</ele>
        <time>2019-06-22T19:22:28Z</time>
      </trkpt>
      <trkpt lat="39.839950" lon="-6.476455">
        <ele>369.793</ele>
        <time>2019-06-22T19:22:29Z</time>
      </trkpt>
      <trkpt lat="39.839680" lon="-6.476436">
        <ele>368.145</ele>
        <time>2019-06-22T19:22:30Z</time>
      </trkpt>
      <trkpt lat="39.839408" lon="-6.476421">
        <ele>366.627</ele>
        <time>2019-06-22T19:22:31Z</time>
      </trkpt>
      <trkpt lat="39.839143" lon="-6.476410">
        <ele>365.685</ele>
        <time>2019-06-22T19:22:32Z</time>
      </trkpt>
      <trkpt lat="39.838880" lon="-6.476399">
        <ele>365.584</ele>
        <time>2019-06-22T19:22:33Z</time>
      </trkpt>
      <trkpt lat="39.838609" lon="-6.476381">
        <ele>365.539</ele>
        <time>2019-06-22T19:22:34Z</time>
      </trkpt>
      <trkpt lat="39.838342" lon="-6.476365">
        <ele>366.632</ele>
        <time>2019-06-22T19:22:35Z</time>
      </trkpt>
      <trkpt lat="39.838074" lon="-6.476349">
        <ele>366.956</ele>
        <time>2019-06-22T19:22:36Z</time>
      </trkpt>
      <trkpt lat="39.837807" lon="-6.476332">
        <ele>367.759</ele>
        <time>2019-06-22T19:22:37Z</time>
      </trkpt>
      <trkpt lat="39.837538" lon="-6.476319">
        <ele>368.014</ele>
        <time>2019-06-22T19:22:38Z</time>
      </trkpt>
      <trkpt lat="39.837275" lon="-6.476307">
        <ele>368.008</ele>
        <time>2019-06-22T19:22:39Z</time>
      </trkpt>
      <trkpt lat="39.837011" lon="-6.476295">
        <ele>367.288</ele>
        <time>2019-06-22T19:22:40Z</time>
      </trkpt>
      <trkpt lat="39.836746" lon="-6.476277">
        <ele>367.292</ele>
        <time>2019-06-22T19:22:41Z</time>
      </trkpt>
      <trkpt lat="39.836477" lon="-6.476268">
        <ele>365.164</ele>
        <time>2019-06-22T19:22:42Z</time>
      </trkpt>
      <trkpt lat="39.836208" lon="-6.476255">
        <ele>365.146</ele>
        <time>2019-06-22T19:22:43Z</time>
      </trkpt>
      <trkpt lat="39.835941" lon="-6.476239">
        <ele>364.184</ele>
        <time>2019-06-22T19:22:44Z</time>
      </trkpt>
      <trkpt lat="39.835673" lon="-6.476222">
        <ele>363.473</ele>
        <time>2019-06-22T19:22:45Z</time>
      </trkpt>
      <trkpt lat="39.835410" lon="-6.476195">
        <ele>363.498</ele>
        <time>2019-06-22T19:22:46Z</time>
      </trkpt>
      <trkpt lat="39.835139" lon="-6.476181">
        <ele>363.631</ele>
        <time>2019-06-22T19:22:47Z</time>
      </trkpt>
      <trkpt lat="39.834865" lon="-6.476168">
        <ele>363.745</ele>
        <time>2019-06-22T19:22:48Z</time>
      </trkpt>
      <trkpt lat="39.834594" lon="-6.476153">
        <ele>363.947</ele>
        <time>2019-06-22T19:22:49Z</time>
      </trkpt>
      <trkpt lat="39.834323" lon="-6.476138">
        <ele>363.911</ele>
        <time>2019-06-22T19:22:50Z</time>
      </trkpt>
      <trkpt lat="39.834051" lon="-6.476121">
        <ele>364.008</ele>
        <time>2019-06-22T19:22:51Z</time>
      </trkpt>
      <trkpt lat="39.833781" lon="-6.476110">
        <ele>364.187</ele>
        <time>2019-06-22T19:22:52Z</time>
      </trkpt>
      <trkpt lat="39.833508" lon="-6.476098">
        <ele>364.241</ele>
        <time>2019-06-22T19:22:53Z</time>
      </trkpt>
      <trkpt lat="39.833238" lon="-6.476086">
        <ele>364.183</ele>
        <time>2019-06-22T19:22:54Z</time>
      </trkpt>
      <trkpt lat="39.832967" lon="-6.476074">
        <ele>364.335</ele>
        <time>2019-06-22T19:22:55Z</time>
      </trkpt>
      <trkpt lat="39.832705" lon="-6.476059">
        <ele>364.553</ele>
        <time>2019-06-22T19:22:56Z</time>
      </trkpt>
      <trkpt lat="39.832441" lon="-6.476048">
        <ele>365.052</ele>
        <time>2019-06-22T19:22:57Z</time>
      </trkpt>
      <trkpt lat="39.832184" lon="-6.476033">
        <ele>365.837</ele>
        <time>2019-06-22T19:22:58Z</time>
      </trkpt>
      <trkpt lat="39.831925" lon="-6.476021">
        <ele>366.680</ele>
        <time>2019-06-22T19:22:59Z</time>
      </trkpt>
      <trkpt lat="39.831671" lon="-6.476013">
        <ele>367.936</ele>
        <time>2019-06-22T19:23:00Z</time>
      </trkpt>
      <trkpt lat="39.831416" lon="-6.476004">
        <ele>368.517</ele>
        <time>2019-06-22T19:23:01Z</time>
      </trkpt>
      <trkpt lat="39.831166" lon="-6.475993">
        <ele>369.118</ele>
        <time>2019-06-22T19:23:02Z</time>
      </trkpt>
      <trkpt lat="39.830916" lon="-6.475981">
        <ele>369.808</ele>
        <time>2019-06-22T19:23:03Z</time>
      </trkpt>
      <trkpt lat="39.830669" lon="-6.475958">
        <ele>370.596</ele>
        <time>2019-06-22T19:23:04Z</time>
      </trkpt>
      <trkpt lat="39.830431" lon="-6.475947">
        <ele>371.240</ele>
        <time>2019-06-22T19:23:05Z</time>
      </trkpt>
      <trkpt lat="39.830201" lon="-6.475933">
        <ele>372.412</ele>
        <time>2019-06-22T19:23:06Z</time>
      </trkpt>
      <trkpt lat="39.829970" lon="-6.475921">
        <ele>373.354</ele>
        <time>2019-06-22T19:23:07Z</time>
      </trkpt>
      <trkpt lat="39.829740" lon="-6.475908">
        <ele>374.452</ele>
        <time>2019-06-22T19:23:08Z</time>
      </trkpt>
      <trkpt lat="39.829502" lon="-6.475888">
        <ele>375.531</ele>
        <time>2019-06-22T19:23:09Z</time>
      </trkpt>
      <trkpt lat="39.829264" lon="-6.475870">
        <ele>375.856</ele>
        <time>2019-06-22T19:23:10Z</time>
      </trkpt>
      <trkpt lat="39.829024" lon="-6.475854">
        <ele>375.829</ele>
        <time>2019-06-22T19:23:11Z</time>
      </trkpt>
      <trkpt lat="39.828790" lon="-6.475834">
        <ele>375.554</ele>
        <time>2019-06-22T19:23:12Z</time>
      </trkpt>
      <trkpt lat="39.828547" lon="-6.475831">
        <ele>375.156</ele>
        <time>2019-06-22T19:23:13Z</time>
      </trkpt>
      <trkpt lat="39.828298" lon="-6.475818">
        <ele>374.611</ele>
        <time>2019-06-22T19:23:14Z</time>
      </trkpt>
      <trkpt lat="39.828054" lon="-6.475787">
        <ele>374.608</ele>
        <time>2019-06-22T19:23:15Z</time>
      </trkpt>
      <trkpt lat="39.827802" lon="-6.475772">
        <ele>374.778</ele>
        <time>2019-06-22T19:23:16Z</time>
      </trkpt>
      <trkpt lat="39.827548" lon="-6.475754">
        <ele>375.412</ele>
        <time>2019-06-22T19:23:17Z</time>
      </trkpt>
      <trkpt lat="39.827292" lon="-6.475742">
        <ele>375.574</ele>
        <time>2019-06-22T19:23:18Z</time>
      </trkpt>
      <trkpt lat="39.827038" lon="-6.475726">
        <ele>375.626</ele>
        <time>2019-06-22T19:23:19Z</time>
      </trkpt>
      <trkpt lat="39.826783" lon="-6.475710">
        <ele>375.974</ele>
        <time>2019-06-22T19:23:20Z</time>
      </trkpt>
      <trkpt lat="39.826521" lon="-6.475694">
        <ele>376.183</ele>
        <time>2019-06-22T19:23:21Z</time>
      </trkpt>
      <trkpt lat="39.826263" lon="-6.475683">
        <ele>376.338</ele>
        <time>2019-06-22T19:23:22Z</time>
      </trkpt>
      <trkpt lat="39.826005" lon="-6.475676">
        <ele>376.721</ele>
        <time>2019-06-22T19:23:23Z</time>
      </trkpt>
      <trkpt lat="39.825743" lon="-6.475662">
        <ele>377.359</ele>
        <time>2019-06-22T19:23:24Z</time>
      </trkpt>
      <trkpt lat="39.825481" lon="-6.475647">
        <ele>377.703</ele>
        <time>2019-06-22T19:23:25Z</time>
      </trkpt>
      <trkpt lat="39.825219" lon="-6.475629">
        <ele>377.723</ele>
        <time>2019-06-22T19:23:26Z</time>
      </trkpt>
      <trkpt lat="39.824956" lon="-6.475611">
        <ele>377.708</ele>
        <time>2019-06-22T19:23:27Z</time>
      </trkpt>
      <trkpt lat="39.824693" lon="-6.475587">
        <ele>377.728</ele>
        <time>2019-06-22T19:23:28Z</time>
      </trkpt>
      <trkpt lat="39.824432" lon="-6.475569">
        <ele>377.772</ele>
        <time>2019-06-22T19:23:29Z</time>
      </trkpt>
      <trkpt lat="39.824166" lon="-6.475553">
        <ele>377.924</ele>
        <time>2019-06-22T19:23:30Z</time>
      </trkpt>
      <trkpt lat="39.823902" lon="-6.475538">
        <ele>377.956</ele>
        <time>2019-06-22T19:23:31Z</time>
      </trkpt>
      <trkpt lat="39.823639" lon="-6.475525">
        <ele>378.314</ele>
        <time>2019-06-22T19:23:32Z</time>
      </trkpt>
      <trkpt lat="39.823375" lon="-6.475513">
        <ele>378.683</ele>
        <time>2019-06-22T19:23:33Z</time>
      </trkpt>
      <trkpt lat="39.823115" lon="-6.475496">
        <ele>379.168</ele>
        <time>2019-06-22T19:23:34Z</time>
      </trkpt>
      <trkpt lat="39.822859" lon="-6.475484">
        <ele>379.981</ele>
        <time>2019-06-22T19:23:35Z</time>
      </trkpt>
      <trkpt lat="39.822603" lon="-6.475468">
        <ele>380.775</ele>
        <time>2019-06-22T19:23:36Z</time>
      </trkpt>
      <trkpt lat="39.822353" lon="-6.475455">
        <ele>381.428</ele>
        <time>2019-06-22T19:23:37Z</time>
      </trkpt>
      <trkpt lat="39.822101" lon="-6.475443">
        <ele>382.320</ele>
        <time>2019-06-22T19:23:38Z</time>
      </trkpt>
      <trkpt lat="39.821852" lon="-6.475429">
        <ele>382.908</ele>
        <time>2019-06-22T19:23:39Z</time>
      </trkpt>
      <trkpt lat="39.821603" lon="-6.475416">
        <ele>383.240</ele>
        <time>2019-06-22T19:23:40Z</time>
      </trkpt>
      <trkpt lat="39.821354" lon="-6.475399">
        <ele>383.764</ele>
        <time>2019-06-22T19:23:41Z</time>
      </trkpt>
      <trkpt lat="39.821118" lon="-6.475373">
        <ele>384.056</ele>
        <time>2019-06-22T19:23:42Z</time>
      </trkpt>
      <trkpt lat="39.820897" lon="-6.475359">
        <ele>384.378</ele>
        <time>2019-06-22T19:23:43Z</time>
      </trkpt>
      <trkpt lat="39.820693" lon="-6.475344">
        <ele>384.336</ele>
        <time>2019-06-22T19:23:44Z</time>
      </trkpt>
      <trkpt lat="39.820495" lon="-6.475334">
        <ele>385.865</ele>
        <time>2019-06-22T19:23:45Z</time>
      </trkpt>
      <trkpt lat="39.820305" lon="-6.475323">
        <ele>386.620</ele>
        <time>2019-06-22T19:23:46Z</time>
      </trkpt>
      <trkpt lat="39.820130" lon="-6.475322">
        <ele>387.643</ele>
        <time>2019-06-22T19:23:47Z</time>
      </trkpt>
      <trkpt lat="39.819954" lon="-6.475329">
        <ele>389.692</ele>
        <time>2019-06-22T19:23:48Z</time>
      </trkpt>
      <trkpt lat="39.819780" lon="-6.475344">
        <ele>389.673</ele>
        <time>2019-06-22T19:23:49Z</time>
      </trkpt>
      <trkpt lat="39.819613" lon="-6.475358">
        <ele>391.420</ele>
        <time>2019-06-22T19:23:50Z</time>
      </trkpt>
      <trkpt lat="39.819448" lon="-6.475371">
        <ele>391.408</ele>
        <time>2019-06-22T19:23:51Z</time>
      </trkpt>
      <trkpt lat="39.819292" lon="-6.475382">
        <ele>392.172</ele>
        <time>2019-06-22T19:23:52Z</time>
      </trkpt>
      <trkpt lat="39.819150" lon="-6.475412">
        <ele>392.126</ele>
        <time>2019-06-22T19:23:53Z</time>
      </trkpt>
      <trkpt lat="39.818998" lon="-6.475432">
        <ele>392.138</ele>
        <time>2019-06-22T19:23:54Z</time>
      </trkpt>
      <trkpt lat="39.818843" lon="-6.475453">
        <ele>392.270</ele>
        <time>2019-06-22T19:23:55Z</time>
      </trkpt>
      <trkpt lat="39.818688" lon="-6.475476">
        <ele>392.278</ele>
        <time>2019-06-22T19:23:56Z</time>
      </trkpt>
      <trkpt lat="39.818540" lon="-6.475498">
        <ele>391.737</ele>
        <time>2019-06-22T19:23:57Z</time>
      </trkpt>
      <trkpt lat="39.818390" lon="-6.475518">
        <ele>391.162</ele>
        <time>2019-06-22T19:23:58Z</time>
      </trkpt>
      <trkpt lat="39.818244" lon="-6.475533">
        <ele>390.495</ele>
        <time>2019-06-22T19:23:59Z</time>
      </trkpt>
      <trkpt lat="39.818100" lon="-6.475554">
        <ele>389.586</ele>
        <time>2019-06-22T19:24:00Z</time>
      </trkpt>
      <trkpt lat="39.817958" lon="-6.475563">
        <ele>387.960</ele>
        <time>2019-06-22T19:24:01Z</time>
      </trkpt>
      <trkpt lat="39.817819" lon="-6.475580">
        <ele>386.826</ele>
        <time>2019-06-22T19:24:02Z</time>
      </trkpt>
      <trkpt lat="39.817688" lon="-6.475606">
        <ele>386.008</ele>
        <time>2019-06-22T19:24:03Z</time>
      </trkpt>
      <trkpt lat="39.817557" lon="-6.475623">
        <ele>385.161</ele>
        <time>2019-06-22T19:24:04Z</time>
      </trkpt>
      <trkpt lat="39.817427" lon="-6.475636">
        <ele>383.965</ele>
        <time>2019-06-22T19:24:05Z</time>
      </trkpt>
      <trkpt lat="39.817306" lon="-6.475646">
        <ele>383.327</ele>
        <time>2019-06-22T19:24:06Z</time>
      </trkpt>
      <trkpt lat="39.817185" lon="-6.475655">
        <ele>382.729</ele>
        <time>2019-06-22T19:24:07Z</time>
      </trkpt>
      <trkpt lat="39.817071" lon="-6.475663">
        <ele>381.937</ele>
        <time>2019-06-22T19:24:08Z</time>
      </trkpt>
      <trkpt lat="39.816956" lon="-6.475674">
        <ele>381.156</ele>
        <time>2019-06-22T19:24:09Z</time>
      </trkpt>
      <trkpt lat="39.816846" lon="-6.475689">
        <ele>380.881</ele>
        <time>2019-06-22T19:24:10Z</time>
      </trkpt>
      <trkpt lat="39.816749" lon="-6.475705">
        <ele>380.374</ele>
        <time>2019-06-22T19:24:11Z</time>
      </trkpt>
      <trkpt lat="39.816646" lon="-6.475714">
        <ele>379.978</ele>
        <time>2019-06-22T19:24:12Z</time>
      </trkpt>
      <trkpt lat="39.816548" lon="-6.475719">
        <ele>379.633</ele>
        <time>2019-06-22T19:24:13Z</time>
      </trkpt>
      <trkpt lat="39.816456" lon="-6.475737">
        <ele>379.626</ele>
        <time>2019-06-22T19:24:14Z</time>
      </trkpt>
      <trkpt lat="39.816385" lon="-6.475743">
        <ele>379.308</ele>
        <time>2019-06-22T19:24:15Z</time>
      </trkpt>
      <trkpt lat="39.816317" lon="-6.475749">
        <ele>379.380</ele>
        <time>2019-06-22T19:24:16Z</time>
      </trkpt>
      <trkpt lat="39.816243" lon="-6.475758">
        <ele>379.454</ele>
        <time>2019-06-22T19:24:17Z</time>
      </trkpt>
      <trkpt lat="39.816169" lon="-6.475765">
        <ele>379.436</ele>
        <time>2019-06-22T19:24:18Z</time>
      </trkpt>
      <trkpt lat="39.816101" lon="-6.475769">
        <ele>379.478</ele>
        <time>2019-06-22T19:24:19Z</time>
      </trkpt>
      <trkpt lat="39.816047" lon="-6.475762">
        <ele>379.316</ele>
        <time>2019-06-22T19:24:20Z</time>
      </trkpt>
      <trkpt lat="39.815990" lon="-6.475772">
        <ele>379.325</ele>
        <time>2019-06-22T19:24:21Z</time>
      </trkpt>
      <trkpt lat="39.815940" lon="-6.475773">
        <ele>379.040</ele>
        <time>2019-06-22T19:24:22Z</time>
      </trkpt>
      <trkpt lat="39.815886" lon="-6.475778">
        <ele>378.773</ele>
        <time>2019-06-22T19:24:23Z</time>
      </trkpt>
      <trkpt lat="39.815823" lon="-6.475788">
        <ele>378.512</ele>
        <time>2019-06-22T19:24:24Z</time>
      </trkpt>
      <trkpt lat="39.815750" lon="-6.475797">
        <ele>378.432</ele>
        <time>2019-06-22T19:24:25Z</time>
      </trkpt>
      <trkpt lat="39.815679" lon="-6.475802">
        <ele>378.005</ele>
        <time>2019-06-22T19:24:26Z</time>
      </trkpt>
      <trkpt lat="39.815623" lon="-6.475802">
        <ele>377.508</ele>
        <time>2019-06-22T19:24:27Z</time>
      </trkpt>
      <trkpt lat="39.815571" lon="-6.475812">
        <ele>377.254</ele>
        <time>2019-06-22T19:24:28Z</time>
      </trkpt>
      <trkpt lat="39.815523" lon="-6.475816">
        <ele>376.958</ele>
        <time>2019-06-22T19:24:29Z</time>
      </trkpt>
      <trkpt lat="39.815454" lon="-6.475831">
        <ele>376.240</ele>
        <time>2019-06-22T19:24:31Z</time>
      </trkpt>
      <trkpt lat="39.815388" lon="-6.475853">
        <ele>376.632</ele>
        <time>2019-06-22T19:24:38Z</time>
      </trkpt>
      <trkpt lat="39.815336" lon="-6.475858">
        <ele>376.510</ele>
        <time>2019-06-22T19:24:39Z</time>
      </trkpt>
      <trkpt lat="39.815282" lon="-6.475868">
        <ele>376.269</ele>
        <time>2019-06-22T19:24:40Z</time>
      </trkpt>
      <trkpt lat="39.815236" lon="-6.475874">
        <ele>375.964</ele>
        <time>2019-06-22T19:24:41Z</time>
      </trkpt>
      <trkpt lat="39.815167" lon="-6.475890">
        <ele>375.237</ele>
        <time>2019-06-22T19:24:43Z</time>
      </trkpt>
      <trkpt lat="39.815100" lon="-6.475901">
        <ele>375.216</ele>
        <time>2019-06-22T19:24:45Z</time>
      </trkpt>
      <trkpt lat="39.815046" lon="-6.475908">
        <ele>375.776</ele>
        <time>2019-06-22T19:24:48Z</time>
      </trkpt>
      <trkpt lat="39.814978" lon="-6.475899">
        <ele>376.213</ele>
        <time>2019-06-22T19:25:47Z</time>
      </trkpt>
      <trkpt lat="39.814867" lon="-6.475924">
        <ele>376.208</ele>
        <time>2019-06-22T19:25:48Z</time>
      </trkpt>
      <trkpt lat="39.814703" lon="-6.475945">
        <ele>376.134</ele>
        <time>2019-06-22T19:25:49Z</time>
      </trkpt>
      <trkpt lat="39.814591" lon="-6.475950">
        <ele>375.738</ele>
        <time>2019-06-22T19:25:50Z</time>
      </trkpt>
      <trkpt lat="39.814463" lon="-6.475967">
        <ele>375.430</ele>
        <time>2019-06-22T19:25:51Z</time>
      </trkpt>
      <trkpt lat="39.814351" lon="-6.475986">
        <ele>375.072</ele>
        <time>2019-06-22T19:25:52Z</time>
      </trkpt>
      <trkpt lat="39.814241" lon="-6.475991">
        <ele>374.820</ele>
        <time>2019-06-22T19:25:53Z</time>
      </trkpt>
      <trkpt lat="39.814123" lon="-6.476003">
        <ele>374.679</ele>
        <time>2019-06-22T19:25:54Z</time>
      </trkpt>
      <trkpt lat="39.814021" lon="-6.476015">
        <ele>374.564</ele>
        <time>2019-06-22T19:25:55Z</time>
      </trkpt>
      <trkpt lat="39.813907" lon="-6.476031">
        <ele>374.597</ele>
        <time>2019-06-22T19:25:56Z</time>
      </trkpt>
      <trkpt lat="39.813798" lon="-6.476036">
        <ele>374.979</ele>
        <time>2019-06-22T19:25:57Z</time>
      </trkpt>
      <trkpt lat="39.813684" lon="-6.476048">
        <ele>375.305</ele>
        <time>2019-06-22T19:25:58Z</time>
      </trkpt>
      <trkpt lat="39.813567" lon="-6.476064">
        <ele>375.625</ele>
        <time>2019-06-22T19:25:59Z</time>
      </trkpt>
      <trkpt lat="39.813449" lon="-6.476077">
        <ele>376.108</ele>
        <time>2019-06-22T19:26:00Z</time>
      </trkpt>
      <trkpt lat="39.813342" lon="-6.476086">
        <ele>376.150</ele>
        <time>2019-06-22T19:26:01Z</time>
      </trkpt>
      <trkpt lat="39.813246" lon="-6.476095">
        <ele>375.784</ele>
        <time>2019-06-22T19:26:02Z</time>
      </trkpt>
      <trkpt lat="39.813151" lon="-6.476109">
        <ele>375.546</ele>
        <time>2019-06-22T19:26:03Z</time>
      </trkpt>
      <trkpt lat="39.813057" lon="-6.476120">
        <ele>375.448</ele>
        <time>2019-06-22T19:26:04Z</time>
      </trkpt>
      <trkpt lat="39.812960" lon="-6.476118">
        <ele>375.496</ele>
        <time>2019-06-22T19:26:05Z</time>
      </trkpt>
      <trkpt lat="39.812858" lon="-6.476106">
        <ele>375.635</ele>
        <time>2019-06-22T19:26:06Z</time>
      </trkpt>
      <trkpt lat="39.812754" lon="-6.476076">
        <ele>376.160</ele>
        <time>2019-06-22T19:26:07Z</time>
      </trkpt>
      <trkpt lat="39.812652" lon="-6.476025">
        <ele>376.233</ele>
        <time>2019-06-22T19:26:08Z</time>
      </trkpt>
      <trkpt lat="39.812553" lon="-6.475956">
        <ele>376.274</ele>
        <time>2019-06-22T19:26:09Z</time>
      </trkpt>
      <trkpt lat="39.812457" lon="-6.475882">
        <ele>376.256</ele>
        <time>2019-06-22T19:26:10Z</time>
      </trkpt>
      <trkpt lat="39.812375" lon="-6.475801">
        <ele>376.221</ele>
        <time>2019-06-22T19:26:11Z</time>
      </trkpt>
      <trkpt lat="39.812278" lon="-6.475723">
        <ele>376.008</ele>
        <time>2019-06-22T19:26:12Z</time>
      </trkpt>
      <trkpt lat="39.812175" lon="-6.475646">
        <ele>375.640</ele>
        <time>2019-06-22T19:26:13Z</time>
      </trkpt>
      <trkpt lat="39.812071" lon="-6.475587">
        <ele>375.054</ele>
        <time>2019-06-22T19:26:14Z</time>
      </trkpt>
      <trkpt lat="39.811959" lon="-6.475546">
        <ele>374.436</ele>
        <time>2019-06-22T19:26:15Z</time>
      </trkpt>
      <trkpt lat="39.811846" lon="-6.475513">
        <ele>374.428</ele>
        <time>2019-06-22T19:26:16Z</time>
      </trkpt>
      <trkpt lat="39.811721" lon="-6.475495">
        <ele>374.356</ele>
        <time>2019-06-22T19:26:17Z</time>
      </trkpt>
      <trkpt lat="39.811595" lon="-6.475495">
        <ele>374.235</ele>
        <time>2019-06-22T19:26:18Z</time>
      </trkpt>
      <trkpt lat="39.811443" lon="-6.475515">
        <ele>374.230</ele>
        <time>2019-06-22T19:26:19Z</time>
      </trkpt>
      <trkpt lat="39.811283" lon="-6.475550">
        <ele>374.283</ele>
        <time>2019-06-22T19:26:20Z</time>
      </trkpt>
      <trkpt lat="39.811124" lon="-6.475602">
        <ele>374.071</ele>
        <time>2019-06-22T19:26:21Z</time>
      </trkpt>
      <trkpt lat="39.810954" lon="-6.475679">
        <ele>373.341</ele>
        <time>2019-06-22T19:26:22Z</time>
      </trkpt>
      <trkpt lat="39.810764" lon="-6.475782">
        <ele>372.415</ele>
        <time>2019-06-22T19:26:23Z</time>
      </trkpt>
      <trkpt lat="39.810583" lon="-6.475887">
        <ele>372.308</ele>
        <time>2019-06-22T19:26:24Z</time>
      </trkpt>
      <trkpt lat="39.810396" lon="-6.475999">
        <ele>371.790</ele>
        <time>2019-06-22T19:26:25Z</time>
      </trkpt>
      <trkpt lat="39.810199" lon="-6.476111">
        <ele>371.594</ele>
        <time>2019-06-22T19:26:26Z</time>
      </trkpt>
      <trkpt lat="39.809995" lon="-6.476218">
        <ele>371.516</ele>
        <time>2019-06-22T19:26:27Z</time>
      </trkpt>
      <trkpt lat="39.809794" lon="-6.476320">
        <ele>371.438</ele>
        <time>2019-06-22T19:26:28Z</time>
      </trkpt>
      <trkpt lat="39.809583" lon="-6.476424">
        <ele>371.466</ele>
        <time>2019-06-22T19:26:29Z</time>
      </trkpt>
      <trkpt lat="39.809363" lon="-6.476528">
        <ele>371.185</ele>
        <time>2019-06-22T19:26:30Z</time>
      </trkpt>
      <trkpt lat="39.809132" lon="-6.476632">
        <ele>370.560</ele>
        <time>2019-06-22T19:26:31Z</time>
      </trkpt>
      <trkpt lat="39.808913" lon="-6.476725">
        <ele>370.183</ele>
        <time>2019-06-22T19:26:32Z</time>
      </trkpt>
      <trkpt lat="39.808688" lon="-6.476820">
        <ele>369.913</ele>
        <time>2019-06-22T19:26:33Z</time>
      </trkpt>
      <trkpt lat="39.808477" lon="-6.476912">
        <ele>369.843</ele>
        <time>2019-06-22T19:26:34Z</time>
      </trkpt>
      <trkpt lat="39.808267" lon="-6.477011">
        <ele>369.107</ele>
        <time>2019-06-22T19:26:35Z</time>
      </trkpt>
      <trkpt lat="39.808055" lon="-6.477091">
        <ele>369.108</ele>
        <time>2019-06-22T19:26:36Z</time>
      </trkpt>
      <trkpt lat="39.807849" lon="-6.477155">
        <ele>369.164</ele>
        <time>2019-06-22T19:26:37Z</time>
      </trkpt>
      <trkpt lat="39.807644" lon="-6.477201">
        <ele>369.778</ele>
        <time>2019-06-22T19:26:38Z</time>
      </trkpt>
      <trkpt lat="39.807415" lon="-6.477227">
        <ele>370.270</ele>
        <time>2019-06-22T19:26:39Z</time>
      </trkpt>
      <trkpt lat="39.807182" lon="-6.477227">
        <ele>370.422</ele>
        <time>2019-06-22T19:26:40Z</time>
      </trkpt>
      <trkpt lat="39.806946" lon="-6.477211">
        <ele>370.970</ele>
        <time>2019-06-22T19:26:41Z</time>
      </trkpt>
      <trkpt lat="39.806703" lon="-6.477176">
        <ele>370.999</ele>
        <time>2019-06-22T19:26:42Z</time>
      </trkpt>
      <trkpt lat="39.806460" lon="-6.477136">
        <ele>370.774</ele>
        <time>2019-06-22T19:26:43Z</time>
      </trkpt>
      <trkpt lat="39.806217" lon="-6.477093">
        <ele>368.887</ele>
        <time>2019-06-22T19:26:44Z</time>
      </trkpt>
      <trkpt lat="39.805981" lon="-6.477062">
        <ele>367.619</ele>
        <time>2019-06-22T19:26:45Z</time>
      </trkpt>
      <trkpt lat="39.805748" lon="-6.477015">
        <ele>365.109</ele>
        <time>2019-06-22T19:26:46Z</time>
      </trkpt>
      <trkpt lat="39.805517" lon="-6.476985">
        <ele>363.019</ele>
        <time>2019-06-22T19:26:47Z</time>
      </trkpt>
      <trkpt lat="39.805290" lon="-6.476957">
        <ele>361.108</ele>
        <time>2019-06-22T19:26:48Z</time>
      </trkpt>
      <trkpt lat="39.805075" lon="-6.476922">
        <ele>361.024</ele>
        <time>2019-06-22T19:26:49Z</time>
      </trkpt>
      <trkpt lat="39.804864" lon="-6.476884">
        <ele>361.018</ele>
        <time>2019-06-22T19:26:50Z</time>
      </trkpt>
      <trkpt lat="39.804669" lon="-6.476818">
        <ele>362.050</ele>
        <time>2019-06-22T19:26:51Z</time>
      </trkpt>
      <trkpt lat="39.804468" lon="-6.476738">
        <ele>362.322</ele>
        <time>2019-06-22T19:26:52Z</time>
      </trkpt>
      <trkpt lat="39.804264" lon="-6.476644">
        <ele>362.670</ele>
        <time>2019-06-22T19:26:53Z</time>
      </trkpt>
      <trkpt lat="39.804067" lon="-6.476531">
        <ele>362.739</ele>
        <time>2019-06-22T19:26:54Z</time>
      </trkpt>
      <trkpt lat="39.803873" lon="-6.476396">
        <ele>362.854</ele>
        <time>2019-06-22T19:26:55Z</time>
      </trkpt>
      <trkpt lat="39.803682" lon="-6.476240">
        <ele>362.857</ele>
        <time>2019-06-22T19:26:56Z</time>
      </trkpt>
      <trkpt lat="39.803484" lon="-6.476075">
        <ele>362.115</ele>
        <time>2019-06-22T19:26:57Z</time>
      </trkpt>
      <trkpt lat="39.803288" lon="-6.475902">
        <ele>361.165</ele>
        <time>2019-06-22T19:26:58Z</time>
      </trkpt>
      <trkpt lat="39.803091" lon="-6.475718">
        <ele>360.411</ele>
        <time>2019-06-22T19:26:59Z</time>
      </trkpt>
      <trkpt lat="39.802894" lon="-6.475532">
        <ele>357.208</ele>
        <time>2019-06-22T19:27:00Z</time>
      </trkpt>
      <trkpt lat="39.802692" lon="-6.475355">
        <ele>355.084</ele>
        <time>2019-06-22T19:27:01Z</time>
      </trkpt>
      <trkpt lat="39.802484" lon="-6.475176">
        <ele>353.058</ele>
        <time>2019-06-22T19:27:02Z</time>
      </trkpt>
      <trkpt lat="39.802275" lon="-6.474992">
        <ele>352.320</ele>
        <time>2019-06-22T19:27:03Z</time>
      </trkpt>
      <trkpt lat="39.802069" lon="-6.474807">
        <ele>352.382</ele>
        <time>2019-06-22T19:27:04Z</time>
      </trkpt>
      <trkpt lat="39.801855" lon="-6.474618">
        <ele>352.520</ele>
        <time>2019-06-22T19:27:05Z</time>
      </trkpt>
      <trkpt lat="39.801638" lon="-6.474433">
        <ele>352.529</ele>
        <time>2019-06-22T19:27:06Z</time>
      </trkpt>
      <trkpt lat="39.801411" lon="-6.474262">
        <ele>351.874</ele>
        <time>2019-06-22T19:27:07Z</time>
      </trkpt>
      <trkpt lat="39.801176" lon="-6.474100">
        <ele>349.977</ele>
        <time>2019-06-22T19:27:08Z</time>
      </trkpt>
      <trkpt lat="39.800934" lon="-6.473951">
        <ele>346.477</ele>
        <time>2019-06-22T19:27:09Z</time>
      </trkpt>
      <trkpt lat="39.800683" lon="-6.473824">
        <ele>342.961</ele>
        <time>2019-06-22T19:27:10Z</time>
      </trkpt>
      <trkpt lat="39.800427" lon="-6.473707">
        <ele>339.027</ele>
        <time>2019-06-22T19:27:11Z</time>
      </trkpt>
      <trkpt lat="39.800164" lon="-6.473607">
        <ele>337.008</ele>
        <time>2019-06-22T19:27:12Z</time>
      </trkpt>
      <trkpt lat="39.799908" lon="-6.473513">
        <ele>336.150</ele>
        <time>2019-06-22T19:27:13Z</time>
      </trkpt>
      <trkpt lat="39.799644" lon="-6.473420">
        <ele>336.184</ele>
        <time>2019-06-22T19:27:14Z</time>
      </trkpt>
      <trkpt lat="39.799376" lon="-6.473320">
        <ele>336.186</ele>
        <time>2019-06-22T19:27:15Z</time>
      </trkpt>
      <trkpt lat="39.799112" lon="-6.473219">
        <ele>336.178</ele>
        <time>2019-06-22T19:27:16Z</time>
      </trkpt>
      <trkpt lat="39.798849" lon="-6.473123">
        <ele>336.356</ele>
        <time>2019-06-22T19:27:17Z</time>
      </trkpt>
      <trkpt lat="39.798591" lon="-6.473024">
        <ele>336.635</ele>
        <time>2019-06-22T19:27:18Z</time>
      </trkpt>
      <trkpt lat="39.798341" lon="-6.472929">
        <ele>336.640</ele>
        <time>2019-06-22T19:27:19Z</time>
      </trkpt>
      <trkpt lat="39.798090" lon="-6.472829">
        <ele>336.643</ele>
        <time>2019-06-22T19:27:20Z</time>
      </trkpt>
      <trkpt lat="39.797848" lon="-6.472715">
        <ele>336.911</ele>
        <time>2019-06-22T19:27:21Z</time>
      </trkpt>
      <trkpt lat="39.797620" lon="-6.472586">
        <ele>338.921</ele>
        <time>2019-06-22T19:27:22Z</time>
      </trkpt>
      <trkpt lat="39.797398" lon="-6.472457">
        <ele>340.603</ele>
        <time>2019-06-22T19:27:23Z</time>
      </trkpt>
      <trkpt lat="39.797192" lon="-6.472294">
        <ele>342.408</ele>
        <time>2019-06-22T19:27:24Z</time>
      </trkpt>
      <trkpt lat="39.797027" lon="-6.472039">
        <ele>342.794</ele>
        <time>2019-06-22T19:27:25Z</time>
      </trkpt>
      <trkpt lat="39.796855" lon="-6.471826">
        <ele>345.958</ele>
        <time>2019-06-22T19:27:26Z</time>
      </trkpt>
      <trkpt lat="39.796705" lon="-6.471585">
        <ele>345.970</ele>
        <time>2019-06-22T19:27:27Z</time>
      </trkpt>
      <trkpt lat="39.796558" lon="-6.471350">
        <ele>347.262</ele>
        <time>2019-06-22T19:27:28Z</time>
      </trkpt>
      <trkpt lat="39.796411" lon="-6.471108">
        <ele>347.890</ele>
        <time>2019-06-22T19:27:29Z</time>
      </trkpt>
      <trkpt lat="39.796266" lon="-6.470859">
        <ele>349.259</ele>
        <time>2019-06-22T19:27:30Z</time>
      </trkpt>
      <trkpt lat="39.796112" lon="-6.470620">
        <ele>349.364</ele>
        <time>2019-06-22T19:27:31Z</time>
      </trkpt>
      <trkpt lat="39.795956" lon="-6.470375">
        <ele>349.277</ele>
        <time>2019-06-22T19:27:32Z</time>
      </trkpt>
      <trkpt lat="39.795803" lon="-6.470125">
        <ele>348.271</ele>
        <time>2019-06-22T19:27:33Z</time>
      </trkpt>
      <trkpt lat="39.795649" lon="-6.469875">
        <ele>347.441</ele>
        <time>2019-06-22T19:27:34Z</time>
      </trkpt>
      <trkpt lat="39.795492" lon="-6.469617">
        <ele>347.015</ele>
        <time>2019-06-22T19:27:35Z</time>
      </trkpt>
      <trkpt lat="39.795332" lon="-6.469359">
        <ele>346.108</ele>
        <time>2019-06-22T19:27:36Z</time>
      </trkpt>
      <trkpt lat="39.795175" lon="-6.469099">
        <ele>345.070</ele>
        <time>2019-06-22T19:27:37Z</time>
      </trkpt>
      <trkpt lat="39.795017" lon="-6.468849">
        <ele>344.984</ele>
        <time>2019-06-22T19:27:38Z</time>
      </trkpt>
      <trkpt lat="39.794858" lon="-6.468606">
        <ele>344.966</ele>
        <time>2019-06-22T19:27:39Z</time>
      </trkpt>
      <trkpt lat="39.794697" lon="-6.468372">
        <ele>344.378</ele>
        <time>2019-06-22T19:27:40Z</time>
      </trkpt>
      <trkpt lat="39.794528" lon="-6.468142">
        <ele>343.716</ele>
        <time>2019-06-22T19:27:41Z</time>
      </trkpt>
      <trkpt lat="39.794342" lon="-6.467982">
        <ele>342.945</ele>
        <time>2019-06-22T19:27:42Z</time>
      </trkpt>
      <trkpt lat="39.794143" lon="-6.467814">
        <ele>342.920</ele>
        <time>2019-06-22T19:27:43Z</time>
      </trkpt>
      <trkpt lat="39.793927" lon="-6.467679">
        <ele>342.923</ele>
        <time>2019-06-22T19:27:44Z</time>
      </trkpt>
      <trkpt lat="39.793725" lon="-6.467585">
        <ele>343.035</ele>
        <time>2019-06-22T19:27:45Z</time>
      </trkpt>
      <trkpt lat="39.793464" lon="-6.467561">
        <ele>344.186</ele>
        <time>2019-06-22T19:27:46Z</time>
      </trkpt>
      <trkpt lat="39.793251" lon="-6.467515">
        <ele>345.514</ele>
        <time>2019-06-22T19:27:47Z</time>
      </trkpt>
      <trkpt lat="39.793023" lon="-6.467507">
        <ele>347.408</ele>
        <time>2019-06-22T19:27:48Z</time>
      </trkpt>
      <trkpt lat="39.792796" lon="-6.467504">
        <ele>349.076</ele>
        <time>2019-06-22T19:27:49Z</time>
      </trkpt>
      <trkpt lat="39.792579" lon="-6.467524">
        <ele>351.330</ele>
        <time>2019-06-22T19:27:50Z</time>
      </trkpt>
      <trkpt lat="39.792372" lon="-6.467541">
        <ele>353.242</ele>
        <time>2019-06-22T19:27:51Z</time>
      </trkpt>
      <trkpt lat="39.792149" lon="-6.467596">
        <ele>355.654</ele>
        <time>2019-06-22T19:27:52Z</time>
      </trkpt>
      <trkpt lat="39.791938" lon="-6.467637">
        <ele>357.262</ele>
        <time>2019-06-22T19:27:53Z</time>
      </trkpt>
      <trkpt lat="39.791715" lon="-6.467716">
        <ele>358.041</ele>
        <time>2019-06-22T19:27:54Z</time>
      </trkpt>
      <trkpt lat="39.791508" lon="-6.467816">
        <ele>359.396</ele>
        <time>2019-06-22T19:27:55Z</time>
      </trkpt>
      <trkpt lat="39.791306" lon="-6.467939">
        <ele>360.319</ele>
        <time>2019-06-22T19:27:56Z</time>
      </trkpt>
      <trkpt lat="39.791109" lon="-6.468071">
        <ele>361.154</ele>
        <time>2019-06-22T19:27:57Z</time>
      </trkpt>
      <trkpt lat="39.790927" lon="-6.468220">
        <ele>362.256</ele>
        <time>2019-06-22T19:27:58Z</time>
      </trkpt>
      <trkpt lat="39.790740" lon="-6.468371">
        <ele>364.311</ele>
        <time>2019-06-22T19:27:59Z</time>
      </trkpt>
      <trkpt lat="39.790553" lon="-6.468532">
        <ele>365.908</ele>
        <time>2019-06-22T19:28:00Z</time>
      </trkpt>
      <trkpt lat="39.790370" lon="-6.468693">
        <ele>366.828</ele>
        <time>2019-06-22T19:28:01Z</time>
      </trkpt>
      <trkpt lat="39.790184" lon="-6.468850">
        <ele>368.662</ele>
        <time>2019-06-22T19:28:02Z</time>
      </trkpt>
      <trkpt lat="39.789997" lon="-6.469001">
        <ele>370.194</ele>
        <time>2019-06-22T19:28:03Z</time>
      </trkpt>
      <trkpt lat="39.789809" lon="-6.469155">
        <ele>370.156</ele>
        <time>2019-06-22T19:28:04Z</time>
      </trkpt>
      <trkpt lat="39.789624" lon="-6.469312">
        <ele>372.534</ele>
        <time>2019-06-22T19:28:05Z</time>
      </trkpt>
      <trkpt lat="39.789445" lon="-6.469462">
        <ele>374.213</ele>
        <time>2019-06-22T19:28:06Z</time>
      </trkpt>
      <trkpt lat="39.789259" lon="-6.469615">
        <ele>375.428</ele>
        <time>2019-06-22T19:28:07Z</time>
      </trkpt>
      <trkpt lat="39.789071" lon="-6.469769">
        <ele>376.731</ele>
        <time>2019-06-22T19:28:08Z</time>
      </trkpt>
      <trkpt lat="39.788883" lon="-6.469924">
        <ele>378.153</ele>
        <time>2019-06-22T19:28:09Z</time>
      </trkpt>
      <trkpt lat="39.788692" lon="-6.470065">
        <ele>379.404</ele>
        <time>2019-06-22T19:28:10Z</time>
      </trkpt>
      <trkpt lat="39.788494" lon="-6.470189">
        <ele>380.814</ele>
        <time>2019-06-22T19:28:11Z</time>
      </trkpt>
      <trkpt lat="39.788294" lon="-6.470297">
        <ele>381.808</ele>
        <time>2019-06-22T19:28:12Z</time>
      </trkpt>
      <trkpt lat="39.788090" lon="-6.470390">
        <ele>383.098</ele>
        <time>2019-06-22T19:28:13Z</time>
      </trkpt>
      <trkpt lat="39.787882" lon="-6.470470">
        <ele>384.152</ele>
        <time>2019-06-22T19:28:14Z</time>
      </trkpt>
      <trkpt lat="39.787666" lon="-6.470536">
        <ele>385.424</ele>
        <time>2019-06-22T19:28:15Z</time>
      </trkpt>
      <trkpt lat="39.787444" lon="-6.470609">
        <ele>386.136</ele>
        <time>2019-06-22T19:28:16Z</time>
      </trkpt>
      <trkpt lat="39.787226" lon="-6.470677">
        <ele>387.394</ele>
        <time>2019-06-22T19:28:17Z</time>
      </trkpt>
      <trkpt lat="39.787006" lon="-6.470744">
        <ele>388.593</ele>
        <time>2019-06-22T19:28:18Z</time>
      </trkpt>
      <trkpt lat="39.786799" lon="-6.470797">
        <ele>389.148</ele>
        <time>2019-06-22T19:28:19Z</time>
      </trkpt>
      <trkpt lat="39.786599" lon="-6.470841">
        <ele>389.541</ele>
        <time>2019-06-22T19:28:20Z</time>
      </trkpt>
      <trkpt lat="39.786396" lon="-6.470870">
        <ele>389.511</ele>
        <time>2019-06-22T19:28:21Z</time>
      </trkpt>
      <trkpt lat="39.786185" lon="-6.470879">
        <ele>390.521</ele>
        <time>2019-06-22T19:28:22Z</time>
      </trkpt>
      <trkpt lat="39.785969" lon="-6.470870">
        <ele>391.503</ele>
        <time>2019-06-22T19:28:23Z</time>
      </trkpt>
      <trkpt lat="39.785749" lon="-6.470846">
        <ele>391.808</ele>
        <time>2019-06-22T19:28:24Z</time>
      </trkpt>
      <trkpt lat="39.785524" lon="-6.470819">
        <ele>391.824</ele>
        <time>2019-06-22T19:28:25Z</time>
      </trkpt>
      <trkpt lat="39.785291" lon="-6.470783">
        <ele>391.818</ele>
        <time>2019-06-22T19:28:26Z</time>
      </trkpt>
      <trkpt lat="39.785055" lon="-6.470747">
        <ele>390.510</ele>
        <time>2019-06-22T19:28:27Z</time>
      </trkpt>
      <trkpt lat="39.784807" lon="-6.470717">
        <ele>388.752</ele>
        <time>2019-06-22T19:28:28Z</time>
      </trkpt>
      <trkpt lat="39.784551" lon="-6.470687">
        <ele>387.560</ele>
        <time>2019-06-22T19:28:29Z</time>
      </trkpt>
      <trkpt lat="39.784295" lon="-6.470649">
        <ele>385.439</ele>
        <time>2019-06-22T19:28:30Z</time>
      </trkpt>
      <trkpt lat="39.784034" lon="-6.470614">
        <ele>382.874</ele>
        <time>2019-06-22T19:28:31Z</time>
      </trkpt>
      <trkpt lat="39.783765" lon="-6.470580">
        <ele>380.917</ele>
        <time>2019-06-22T19:28:32Z</time>
      </trkpt>
      <trkpt lat="39.783496" lon="-6.470540">
        <ele>379.181</ele>
        <time>2019-06-22T19:28:33Z</time>
      </trkpt>
      <trkpt lat="39.783219" lon="-6.470504">
        <ele>376.861</ele>
        <time>2019-06-22T19:28:34Z</time>
      </trkpt>
      <trkpt lat="39.782943" lon="-6.470468">
        <ele>374.717</ele>
        <time>2019-06-22T19:28:35Z</time>
      </trkpt>
      <trkpt lat="39.782664" lon="-6.470433">
        <ele>374.708</ele>
        <time>2019-06-22T19:28:36Z</time>
      </trkpt>
      <trkpt lat="39.782380" lon="-6.470394">
        <ele>374.421</ele>
        <time>2019-06-22T19:28:37Z</time>
      </trkpt>
      <trkpt lat="39.782095" lon="-6.470357">
        <ele>372.045</ele>
        <time>2019-06-22T19:28:38Z</time>
      </trkpt>
      <trkpt lat="39.781809" lon="-6.470316">
        <ele>370.597</ele>
        <time>2019-06-22T19:28:39Z</time>
      </trkpt>
      <trkpt lat="39.781522" lon="-6.470280">
        <ele>368.759</ele>
        <time>2019-06-22T19:28:40Z</time>
      </trkpt>
      <trkpt lat="39.781237" lon="-6.470241">
        <ele>366.287</ele>
        <time>2019-06-22T19:28:41Z</time>
      </trkpt>
      <trkpt lat="39.780952" lon="-6.470201">
        <ele>363.746</ele>
        <time>2019-06-22T19:28:42Z</time>
      </trkpt>
      <trkpt lat="39.780665" lon="-6.470163">
        <ele>362.431</ele>
        <time>2019-06-22T19:28:43Z</time>
      </trkpt>
      <trkpt lat="39.780384" lon="-6.470126">
        <ele>361.664</ele>
        <time>2019-06-22T19:28:44Z</time>
      </trkpt>
      <trkpt lat="39.780107" lon="-6.470085">
        <ele>360.499</ele>
        <time>2019-06-22T19:28:45Z</time>
      </trkpt>
      <trkpt lat="39.779829" lon="-6.470041">
        <ele>359.707</ele>
        <time>2019-06-22T19:28:46Z</time>
      </trkpt>
      <trkpt lat="39.779552" lon="-6.469989">
        <ele>359.027</ele>
        <time>2019-06-22T19:28:47Z</time>
      </trkpt>
      <trkpt lat="39.779293" lon="-6.469936">
        <ele>358.808</ele>
        <time>2019-06-22T19:28:48Z</time>
      </trkpt>
      <trkpt lat="39.779019" lon="-6.469873">
        <ele>358.812</ele>
        <time>2019-06-22T19:28:49Z</time>
      </trkpt>
      <trkpt lat="39.778748" lon="-6.469797">
        <ele>358.846</ele>
        <time>2019-06-22T19:28:50Z</time>
      </trkpt>
      <trkpt lat="39.778481" lon="-6.469730">
        <ele>358.648</ele>
        <time>2019-06-22T19:28:51Z</time>
      </trkpt>
      <trkpt lat="39.778214" lon="-6.469656">
        <ele>357.640</ele>
        <time>2019-06-22T19:28:52Z</time>
      </trkpt>
      <trkpt lat="39.777950" lon="-6.469587">
        <ele>356.618</ele>
        <time>2019-06-22T19:28:53Z</time>
      </trkpt>
      <trkpt lat="39.777682" lon="-6.469523">
        <ele>355.147</ele>
        <time>2019-06-22T19:28:54Z</time>
      </trkpt>
      <trkpt lat="39.777416" lon="-6.469457">
        <ele>353.612</ele>
        <time>2019-06-22T19:28:55Z</time>
      </trkpt>
      <trkpt lat="39.777149" lon="-6.469394">
        <ele>353.665</ele>
        <time>2019-06-22T19:28:56Z</time>
      </trkpt>
      <trkpt lat="39.776884" lon="-6.469325">
        <ele>353.913</ele>
        <time>2019-06-22T19:28:57Z</time>
      </trkpt>
      <trkpt lat="39.776620" lon="-6.469257">
        <ele>354.043</ele>
        <time>2019-06-22T19:28:58Z</time>
      </trkpt>
      <trkpt lat="39.776353" lon="-6.469189">
        <ele>354.007</ele>
        <time>2019-06-22T19:28:59Z</time>
      </trkpt>
      <trkpt lat="39.776093" lon="-6.469120">
        <ele>353.108</ele>
        <time>2019-06-22T19:29:00Z</time>
      </trkpt>
      <trkpt lat="39.775835" lon="-6.469058">
        <ele>351.434</ele>
        <time>2019-06-22T19:29:01Z</time>
      </trkpt>
      <trkpt lat="39.775589" lon="-6.468985">
        <ele>349.748</ele>
        <time>2019-06-22T19:29:02Z</time>
      </trkpt>
      <trkpt lat="39.775350" lon="-6.468919">
        <ele>348.370</ele>
        <time>2019-06-22T19:29:03Z</time>
      </trkpt>
      <trkpt lat="39.775116" lon="-6.468863">
        <ele>347.352</ele>
        <time>2019-06-22T19:29:04Z</time>
      </trkpt>
      <trkpt lat="39.774898" lon="-6.468807">
        <ele>347.360</ele>
        <time>2019-06-22T19:29:05Z</time>
      </trkpt>
      <trkpt lat="39.774689" lon="-6.468748">
        <ele>348.219</ele>
        <time>2019-06-22T19:29:06Z</time>
      </trkpt>
      <trkpt lat="39.774485" lon="-6.468676">
        <ele>348.294</ele>
        <time>2019-06-22T19:29:07Z</time>
      </trkpt>
      <trkpt lat="39.774284" lon="-6.468586">
        <ele>348.217</ele>
        <time>2019-06-22T19:29:08Z</time>
      </trkpt>
      <trkpt lat="39.774087" lon="-6.468476">
        <ele>348.274</ele>
        <time>2019-06-22T19:29:09Z</time>
      </trkpt>
      <trkpt lat="39.773894" lon="-6.468342">
        <ele>347.856</ele>
        <time>2019-06-22T19:29:10Z</time>
      </trkpt>
      <trkpt lat="39.773706" lon="-6.468191">
        <ele>347.221</ele>
        <time>2019-06-22T19:29:11Z</time>
      </trkpt>
      <trkpt lat="39.773532" lon="-6.468017">
        <ele>346.808</ele>
        <time>2019-06-22T19:29:12Z</time>
      </trkpt>
      <trkpt lat="39.773364" lon="-6.467825">
        <ele>346.350</ele>
        <time>2019-06-22T19:29:13Z</time>
      </trkpt>
      <trkpt lat="39.773219" lon="-6.467613">
        <ele>345.384</ele>
        <time>2019-06-22T19:29:14Z</time>
      </trkpt>
      <trkpt lat="39.773064" lon="-6.467409">
        <ele>343.696</ele>
        <time>2019-06-22T19:29:15Z</time>
      </trkpt>
      <trkpt lat="39.772908" lon="-6.467200">
        <ele>341.858</ele>
        <time>2019-06-22T19:29:16Z</time>
      </trkpt>
      <trkpt lat="39.772750" lon="-6.466995">
        <ele>340.096</ele>
        <time>2019-06-22T19:29:17Z</time>
      </trkpt>
      <trkpt lat="39.772587" lon="-6.466789">
        <ele>338.255</ele>
        <time>2019-06-22T19:29:18Z</time>
      </trkpt>
      <trkpt lat="39.772419" lon="-6.466591">
        <ele>336.250</ele>
        <time>2019-06-22T19:29:19Z</time>
      </trkpt>
      <trkpt lat="39.772244" lon="-6.466403">
        <ele>335.083</ele>
        <time>2019-06-22T19:29:20Z</time>
      </trkpt>
      <trkpt lat="39.772060" lon="-6.466216">
        <ele>333.643</ele>
        <time>2019-06-22T19:29:21Z</time>
      </trkpt>
      <trkpt lat="39.771865" lon="-6.466028">
        <ele>330.964</ele>
        <time>2019-06-22T19:29:22Z</time>
      </trkpt>
      <trkpt lat="39.771668" lon="-6.465847">
        <ele>327.910</ele>
        <time>2019-06-22T19:29:23Z</time>
      </trkpt>
      <trkpt lat="39.771467" lon="-6.465668">
        <ele>324.908</ele>
        <time>2019-06-22T19:29:24Z</time>
      </trkpt>
      <trkpt lat="39.771261" lon="-6.465487">
        <ele>322.027</ele>
        <time>2019-06-22T19:29:25Z</time>
      </trkpt>
      <trkpt lat="39.771056" lon="-6.465302">
        <ele>319.491</ele>
        <time>2019-06-22T19:29:26Z</time>
      </trkpt>
      <trkpt lat="39.770851" lon="-6.465117">
        <ele>315.343</ele>
        <time>2019-06-22T19:29:27Z</time>
      </trkpt>
      <trkpt lat="39.770647" lon="-6.464932">
        <ele>315.335</ele>
        <time>2019-06-22T19:29:28Z</time>
      </trkpt>
      <trkpt lat="39.770437" lon="-6.464751">
        <ele>313.723</ele>
        <time>2019-06-22T19:29:29Z</time>
      </trkpt>
      <trkpt lat="39.770226" lon="-6.464572">
        <ele>311.752</ele>
        <time>2019-06-22T19:29:30Z</time>
      </trkpt>
      <trkpt lat="39.770013" lon="-6.464392">
        <ele>310.397</ele>
        <time>2019-06-22T19:29:31Z</time>
      </trkpt>
      <trkpt lat="39.769797" lon="-6.464217">
        <ele>309.720</ele>
        <time>2019-06-22T19:29:32Z</time>
      </trkpt>
      <trkpt lat="39.769573" lon="-6.464045">
        <ele>309.186</ele>
        <time>2019-06-22T19:29:33Z</time>
      </trkpt>
      <trkpt lat="39.769343" lon="-6.463887">
        <ele>309.760</ele>
        <time>2019-06-22T19:29:34Z</time>
      </trkpt>
      <trkpt lat="39.769115" lon="-6.463736">
        <ele>309.126</ele>
        <time>2019-06-22T19:29:35Z</time>
      </trkpt>
      <trkpt lat="39.768890" lon="-6.463600">
        <ele>309.008</ele>
        <time>2019-06-22T19:29:36Z</time>
      </trkpt>
      <trkpt lat="39.768666" lon="-6.463467">
        <ele>308.571</ele>
        <time>2019-06-22T19:29:37Z</time>
      </trkpt>
      <trkpt lat="39.768453" lon="-6.463333">
        <ele>308.555</ele>
        <time>2019-06-22T19:29:38Z</time>
      </trkpt>
      <trkpt lat="39.768243" lon="-6.463188">
        <ele>307.947</ele>
        <time>2019-06-22T19:29:39Z</time>
      </trkpt>
      <trkpt lat="39.768043" lon="-6.463031">
        <ele>308.769</ele>
        <time>2019-06-22T19:29:40Z</time>
      </trkpt>
      <trkpt lat="39.767847" lon="-6.462858">
        <ele>309.287</ele>
        <time>2019-06-22T19:29:41Z</time>
      </trkpt>
      <trkpt lat="39.767671" lon="-6.462661">
        <ele>312.256</ele>
        <time>2019-06-22T19:29:42Z</time>
      </trkpt>
      <trkpt lat="39.767506" lon="-6.462442">
        <ele>314.361</ele>
        <time>2019-06-22T19:29:43Z</time>
      </trkpt>
      <trkpt lat="39.767340" lon="-6.462210">
        <ele>315.954</ele>
        <time>2019-06-22T19:29:44Z</time>
      </trkpt>
      <trkpt lat="39.767174" lon="-6.461968">
        <ele>316.138</ele>
        <time>2019-06-22T19:29:45Z</time>
      </trkpt>
      <trkpt lat="39.767004" lon="-6.461716">
        <ele>316.170</ele>
        <time>2019-06-22T19:29:46Z</time>
      </trkpt>
      <trkpt lat="39.766835" lon="-6.461463">
        <ele>313.517</ele>
        <time>2019-06-22T19:29:47Z</time>
      </trkpt>
      <trkpt lat="39.766660" lon="-6.461204">
        <ele>310.508</ele>
        <time>2019-06-22T19:29:48Z</time>
      </trkpt>
      <trkpt lat="39.766478" lon="-6.460946">
        <ele>305.386</ele>
        <time>2019-06-22T19:29:49Z</time>
      </trkpt>
      <trkpt lat="39.766297" lon="-6.460681">
        <ele>301.490</ele>
        <time>2019-06-22T19:29:50Z</time>
      </trkpt>
      <trkpt lat="39.766112" lon="-6.460415">
        <ele>299.332</ele>
        <time>2019-06-22T19:29:51Z</time>
      </trkpt>
      <trkpt lat="39.765927" lon="-6.460149">
        <ele>297.164</ele>
        <time>2019-06-22T19:29:52Z</time>
      </trkpt>
      <trkpt lat="39.765739" lon="-6.459877">
        <ele>295.232</ele>
        <time>2019-06-22T19:29:53Z</time>
      </trkpt>
      <trkpt lat="39.765550" lon="-6.459602">
        <ele>292.731</ele>
        <time>2019-06-22T19:29:54Z</time>
      </trkpt>
      <trkpt lat="39.765363" lon="-6.459323">
        <ele>292.516</ele>
        <time>2019-06-22T19:29:55Z</time>
      </trkpt>
      <trkpt lat="39.765171" lon="-6.459045">
        <ele>291.369</ele>
        <time>2019-06-22T19:29:56Z</time>
      </trkpt>
      <trkpt lat="39.764984" lon="-6.458766">
        <ele>289.641</ele>
        <time>2019-06-22T19:29:57Z</time>
      </trkpt>
      <trkpt lat="39.764791" lon="-6.458486">
        <ele>286.781</ele>
        <time>2019-06-22T19:29:58Z</time>
      </trkpt>
      <trkpt lat="39.764600" lon="-6.458204">
        <ele>284.509</ele>
        <time>2019-06-22T19:29:59Z</time>
      </trkpt>
      <trkpt lat="39.764412" lon="-6.457916">
        <ele>279.608</ele>
        <time>2019-06-22T19:30:00Z</time>
      </trkpt>
      <trkpt lat="39.764224" lon="-6.457629">
        <ele>273.237</ele>
        <time>2019-06-22T19:30:01Z</time>
      </trkpt>
      <trkpt lat="39.764034" lon="-6.457344">
        <ele>269.641</ele>
        <time>2019-06-22T19:30:02Z</time>
      </trkpt>
      <trkpt lat="39.763848" lon="-6.457062">
        <ele>268.323</ele>
        <time>2019-06-22T19:30:03Z</time>
      </trkpt>
      <trkpt lat="39.763665" lon="-6.456788">
        <ele>268.315</ele>
        <time>2019-06-22T19:30:04Z</time>
      </trkpt>
      <trkpt lat="39.763479" lon="-6.456516">
        <ele>268.863</ele>
        <time>2019-06-22T19:30:05Z</time>
      </trkpt>
      <trkpt lat="39.763296" lon="-6.456236">
        <ele>274.982</ele>
        <time>2019-06-22T19:30:06Z</time>
      </trkpt>
      <trkpt lat="39.763116" lon="-6.455958">
        <ele>277.757</ele>
        <time>2019-06-22T19:30:07Z</time>
      </trkpt>
      <trkpt lat="39.762935" lon="-6.455683">
        <ele>279.880</ele>
        <time>2019-06-22T19:30:08Z</time>
      </trkpt>
      <trkpt lat="39.762763" lon="-6.455411">
        <ele>283.421</ele>
        <time>2019-06-22T19:30:09Z</time>
      </trkpt>
      <trkpt lat="39.762589" lon="-6.455141">
        <ele>283.441</ele>
        <time>2019-06-22T19:30:10Z</time>
      </trkpt>
      <trkpt lat="39.762419" lon="-6.454870">
        <ele>283.305</ele>
        <time>2019-06-22T19:30:11Z</time>
      </trkpt>
      <trkpt lat="39.762257" lon="-6.454605">
        <ele>283.308</ele>
        <time>2019-06-22T19:30:12Z</time>
      </trkpt>
      <trkpt lat="39.762099" lon="-6.454345">
        <ele>284.545</ele>
        <time>2019-06-22T19:30:13Z</time>
      </trkpt>
      <trkpt lat="39.761946" lon="-6.454090">
        <ele>286.779</ele>
        <time>2019-06-22T19:30:14Z</time>
      </trkpt>
      <trkpt lat="39.761787" lon="-6.453835">
        <ele>288.511</ele>
        <time>2019-06-22T19:30:15Z</time>
      </trkpt>
      <trkpt lat="39.761616" lon="-6.453589">
        <ele>289.643</ele>
        <time>2019-06-22T19:30:16Z</time>
      </trkpt>
      <trkpt lat="39.761439" lon="-6.453351">
        <ele>289.661</ele>
        <time>2019-06-22T19:30:17Z</time>
      </trkpt>
      <trkpt lat="39.761254" lon="-6.453122">
        <ele>289.470</ele>
        <time>2019-06-22T19:30:18Z</time>
      </trkpt>
      <trkpt lat="39.761062" lon="-6.452892">
        <ele>283.455</ele>
        <time>2019-06-22T19:30:19Z</time>
      </trkpt>
      <trkpt lat="39.760862" lon="-6.452671">
        <ele>277.578</ele>
        <time>2019-06-22T19:30:20Z</time>
      </trkpt>
      <trkpt lat="39.760663" lon="-6.452454">
        <ele>273.437</ele>
        <time>2019-06-22T19:30:21Z</time>
      </trkpt>
      <trkpt lat="39.760466" lon="-6.452237">
        <ele>270.549</ele>
        <time>2019-06-22T19:30:22Z</time>
      </trkpt>
      <trkpt lat="39.760269" lon="-6.452021">
        <ele>268.313</ele>
        <time>2019-06-22T19:30:23Z</time>
      </trkpt>
      <trkpt lat="39.760074" lon="-6.451811">
        <ele>268.308</ele>
        <time>2019-06-22T19:30:24Z</time>
      </trkpt>
      <trkpt lat="39.759882" lon="-6.451592">
        <ele>269.686</ele>
        <time>2019-06-22T19:30:25Z</time>
      </trkpt>
      <trkpt lat="39.759697" lon="-6.451371">
        <ele>271.350</ele>
        <time>2019-06-22T19:30:26Z</time>
      </trkpt>
      <trkpt lat="39.759523" lon="-6.451132">
        <ele>272.152</ele>
        <time>2019-06-22T19:30:27Z</time>
      </trkpt>
      <trkpt lat="39.759363" lon="-6.450878">
        <ele>273.364</ele>
        <time>2019-06-22T19:30:28Z</time>
      </trkpt>
      <trkpt lat="39.759222" lon="-6.450612">
        <ele>275.142</ele>
        <time>2019-06-22T19:30:29Z</time>
      </trkpt>
      <trkpt lat="39.759088" lon="-6.450332">
        <ele>275.241</ele>
        <time>2019-06-22T19:30:30Z</time>
      </trkpt>
      <trkpt lat="39.758957" lon="-6.450050">
        <ele>275.746</ele>
        <time>2019-06-22T19:30:31Z</time>
      </trkpt>
      <trkpt lat="39.758837" lon="-6.449782">
        <ele>275.779</ele>
        <time>2019-06-22T19:30:32Z</time>
      </trkpt>
      <trkpt lat="39.758723" lon="-6.449521">
        <ele>273.453</ele>
        <time>2019-06-22T19:30:33Z</time>
      </trkpt>
      <trkpt lat="39.758613" lon="-6.449282">
        <ele>273.404</ele>
        <time>2019-06-22T19:30:34Z</time>
      </trkpt>
      <trkpt lat="39.758502" lon="-6.449049">
        <ele>269.714</ele>
        <time>2019-06-22T19:30:35Z</time>
      </trkpt>
      <trkpt lat="39.758383" lon="-6.448834">
        <ele>265.808</ele>
        <time>2019-06-22T19:30:36Z</time>
      </trkpt>
      <trkpt lat="39.758250" lon="-6.448649">
        <ele>265.848</ele>
        <time>2019-06-22T19:30:37Z</time>
      </trkpt>
      <trkpt lat="39.758102" lon="-6.448469">
        <ele>263.512</ele>
        <time>2019-06-22T19:30:38Z</time>
      </trkpt>
      <trkpt lat="39.757936" lon="-6.448310">
        <ele>264.654</ele>
        <time>2019-06-22T19:30:39Z</time>
      </trkpt>
      <trkpt lat="39.757753" lon="-6.448170">
        <ele>264.656</ele>
        <time>2019-06-22T19:30:40Z</time>
      </trkpt>
      <trkpt lat="39.757566" lon="-6.448049">
        <ele>264.714</ele>
        <time>2019-06-22T19:30:41Z</time>
      </trkpt>
      <trkpt lat="39.757374" lon="-6.447955">
        <ele>264.743</ele>
        <time>2019-06-22T19:30:42Z</time>
      </trkpt>
      <trkpt lat="39.757176" lon="-6.447882">
        <ele>265.118</ele>
        <time>2019-06-22T19:30:43Z</time>
      </trkpt>
      <trkpt lat="39.756977" lon="-6.447821">
        <ele>265.161</ele>
        <time>2019-06-22T19:30:44Z</time>
      </trkpt>
      <trkpt lat="39.756789" lon="-6.447757">
        <ele>265.112</ele>
        <time>2019-06-22T19:30:45Z</time>
      </trkpt>
      <trkpt lat="39.756602" lon="-6.447690">
        <ele>266.932</ele>
        <time>2019-06-22T19:30:46Z</time>
      </trkpt>
      <trkpt lat="39.756421" lon="-6.447618">
        <ele>269.505</ele>
        <time>2019-06-22T19:30:47Z</time>
      </trkpt>
      <trkpt lat="39.756250" lon="-6.447534">
        <ele>273.108</ele>
        <time>2019-06-22T19:30:48Z</time>
      </trkpt>
      <trkpt lat="39.756080" lon="-6.447415">
        <ele>275.584</ele>
        <time>2019-06-22T19:30:49Z</time>
      </trkpt>
      <trkpt lat="39.755921" lon="-6.447284">
        <ele>277.928</ele>
        <time>2019-06-22T19:30:50Z</time>
      </trkpt>
      <trkpt lat="39.755768" lon="-6.447135">
        <ele>277.960</ele>
        <time>2019-06-22T19:30:51Z</time>
      </trkpt>
      <trkpt lat="39.755628" lon="-6.446968">
        <ele>276.362</ele>
        <time>2019-06-22T19:30:52Z</time>
      </trkpt>
      <trkpt lat="39.755494" lon="-6.446782">
        <ele>274.660</ele>
        <time>2019-06-22T19:30:53Z</time>
      </trkpt>
      <trkpt lat="39.755383" lon="-6.446564">
        <ele>272.919</ele>
        <time>2019-06-22T19:30:54Z</time>
      </trkpt>
      <trkpt lat="39.755285" lon="-6.446329">
        <ele>271.224</ele>
        <time>2019-06-22T19:30:55Z</time>
      </trkpt>
      <trkpt lat="39.755197" lon="-6.446075">
        <ele>270.477</ele>
        <time>2019-06-22T19:30:56Z</time>
      </trkpt>
      <trkpt lat="39.755114" lon="-6.445802">
        <ele>270.499</ele>
        <time>2019-06-22T19:30:57Z</time>
      </trkpt>
      <trkpt lat="39.755031" lon="-6.445526">
        <ele>269.807</ele>
        <time>2019-06-22T19:30:58Z</time>
      </trkpt>
      <trkpt lat="39.754939" lon="-6.445247">
        <ele>267.827</ele>
        <time>2019-06-22T19:30:59Z</time>
      </trkpt>
      <trkpt lat="39.754849" lon="-6.444974">
        <ele>265.408</ele>
        <time>2019-06-22T19:31:00Z</time>
      </trkpt>
      <trkpt lat="39.754760" lon="-6.444700">
        <ele>263.172</ele>
        <time>2019-06-22T19:31:01Z</time>
      </trkpt>
      <trkpt lat="39.754674" lon="-6.444428">
        <ele>260.786</ele>
        <time>2019-06-22T19:31:02Z</time>
      </trkpt>
      <trkpt lat="39.754586" lon="-6.444165">
        <ele>259.258</ele>
        <time>2019-06-22T19:31:03Z</time>
      </trkpt>
      <trkpt lat="39.754502" lon="-6.443905">
        <ele>258.730</ele>
        <time>2019-06-22T19:31:04Z</time>
      </trkpt>
      <trkpt lat="39.754420" lon="-6.443647">
        <ele>258.078</ele>
        <time>2019-06-22T19:31:05Z</time>
      </trkpt>
      <trkpt lat="39.754339" lon="-6.443390">
        <ele>257.197</ele>
        <time>2019-06-22T19:31:06Z</time>
      </trkpt>
      <trkpt lat="39.754251" lon="-6.443129">
        <ele>256.762</ele>
        <time>2019-06-22T19:31:07Z</time>
      </trkpt>
      <trkpt lat="39.754170" lon="-6.442871">
        <ele>254.375</ele>
        <time>2019-06-22T19:31:08Z</time>
      </trkpt>
      <trkpt lat="39.754086" lon="-6.442618">
        <ele>252.792</ele>
        <time>2019-06-22T19:31:09Z</time>
      </trkpt>
      <trkpt lat="39.754010" lon="-6.442373">
        <ele>251.573</ele>
        <time>2019-06-22T19:31:10Z</time>
      </trkpt>
      <trkpt lat="39.753933" lon="-6.442130">
        <ele>249.920</ele>
        <time>2019-06-22T19:31:11Z</time>
      </trkpt>
      <trkpt lat="39.753859" lon="-6.441901">
        <ele>248.208</ele>
        <time>2019-06-22T19:31:12Z</time>
      </trkpt>
      <trkpt lat="39.753786" lon="-6.441670">
        <ele>247.472</ele>
        <time>2019-06-22T19:31:13Z</time>
      </trkpt>
      <trkpt lat="39.753722" lon="-6.441448">
        <ele>246.926</ele>
        <time>2019-06-22T19:31:14Z</time>
      </trkpt>
      <trkpt lat="39.753677" lon="-6.441216">
        <ele>246.178</ele>
        <time>2019-06-22T19:31:15Z</time>
      </trkpt>
      <trkpt lat="39.753644" lon="-6.441002">
        <ele>246.150</ele>
        <time>2019-06-22T19:31:16Z</time>
      </trkpt>
      <trkpt lat="39.753629" lon="-6.440777">
        <ele>246.628</ele>
        <time>2019-06-22T19:31:17Z</time>
      </trkpt>
      <trkpt lat="39.753621" lon="-6.440555">
        <ele>247.797</ele>
        <time>2019-06-22T19:31:18Z</time>
      </trkpt>
      <trkpt lat="39.753635" lon="-6.440345">
        <ele>247.872</ele>
        <time>2019-06-22T19:31:19Z</time>
      </trkpt>
      <trkpt lat="39.753671" lon="-6.440119">
        <ele>247.875</ele>
        <time>2019-06-22T19:31:20Z</time>
      </trkpt>
      <trkpt lat="39.753730" lon="-6.439894">
        <ele>247.824</ele>
        <time>2019-06-22T19:31:21Z</time>
      </trkpt>
      <trkpt lat="39.753787" lon="-6.439670">
        <ele>246.904</ele>
        <time>2019-06-22T19:31:22Z</time>
      </trkpt>
      <trkpt lat="39.753895" lon="-6.439457">
        <ele>246.514</ele>
        <time>2019-06-22T19:31:23Z</time>
      </trkpt>
      <trkpt lat="39.754000" lon="-6.439251">
        <ele>246.508</ele>
        <time>2019-06-22T19:31:24Z</time>
      </trkpt>
      <trkpt lat="39.754115" lon="-6.439053">
        <ele>246.935</ele>
        <time>2019-06-22T19:31:25Z</time>
      </trkpt>
      <trkpt lat="39.754216" lon="-6.438852">
        <ele>246.939</ele>
        <time>2019-06-22T19:31:26Z</time>
      </trkpt>
      <trkpt lat="39.754333" lon="-6.438649">
        <ele>247.541</ele>
        <time>2019-06-22T19:31:27Z</time>
      </trkpt>
      <trkpt lat="39.754450" lon="-6.438449">
        <ele>247.863</ele>
        <time>2019-06-22T19:31:28Z</time>
      </trkpt>
      <trkpt lat="39.754569" lon="-6.438246">
        <ele>247.931</ele>
        <time>2019-06-22T19:31:29Z</time>
      </trkpt>
      <trkpt lat="39.754700" lon="-6.438046">
        <ele>248.110</ele>
        <time>2019-06-22T19:31:30Z</time>
      </trkpt>
      <trkpt lat="39.754840" lon="-6.437853">
        <ele>248.775</ele>
        <time>2019-06-22T19:31:31Z</time>
      </trkpt>
      <trkpt lat="39.755002" lon="-6.437687">
        <ele>249.268</ele>
        <time>2019-06-22T19:31:32Z</time>
      </trkpt>
      <trkpt lat="39.755175" lon="-6.437532">
        <ele>249.743</ele>
        <time>2019-06-22T19:31:33Z</time>
      </trkpt>
      <trkpt lat="39.755360" lon="-6.437390">
        <ele>249.764</ele>
        <time>2019-06-22T19:31:34Z</time>
      </trkpt>
      <trkpt lat="39.755565" lon="-6.437271">
        <ele>249.810</ele>
        <time>2019-06-22T19:31:35Z</time>
      </trkpt>
      <trkpt lat="39.755767" lon="-6.437139">
        <ele>249.808</ele>
        <time>2019-06-22T19:31:36Z</time>
      </trkpt>
      <trkpt lat="39.755964" lon="-6.437018">
        <ele>249.887</ele>
        <time>2019-06-22T19:31:37Z</time>
      </trkpt>
      <trkpt lat="39.756159" lon="-6.436900">
        <ele>249.891</ele>
        <time>2019-06-22T19:31:38Z</time>
      </trkpt>
      <trkpt lat="39.756354" lon="-6.436781">
        <ele>249.823</ele>
        <time>2019-06-22T19:31:39Z</time>
      </trkpt>
      <trkpt lat="39.756561" lon="-6.436668">
        <ele>249.865</ele>
        <time>2019-06-22T19:31:40Z</time>
      </trkpt>
      <trkpt lat="39.756754" lon="-6.436548">
        <ele>249.583</ele>
        <time>2019-06-22T19:31:41Z</time>
      </trkpt>
      <trkpt lat="39.756956" lon="-6.436423">
        <ele>249.592</ele>
        <time>2019-06-22T19:31:42Z</time>
      </trkpt>
      <trkpt lat="39.757164" lon="-6.436297">
        <ele>249.587</ele>
        <time>2019-06-22T19:31:43Z</time>
      </trkpt>
      <trkpt lat="39.757364" lon="-6.436163">
        <ele>250.160</ele>
        <time>2019-06-22T19:31:44Z</time>
      </trkpt>
      <trkpt lat="39.757568" lon="-6.436036">
        <ele>250.699</ele>
        <time>2019-06-22T19:31:45Z</time>
      </trkpt>
      <trkpt lat="39.757763" lon="-6.435911">
        <ele>250.907</ele>
        <time>2019-06-22T19:31:46Z</time>
      </trkpt>
      <trkpt lat="39.757952" lon="-6.435788">
        <ele>250.927</ele>
        <time>2019-06-22T19:31:47Z</time>
      </trkpt>
      <trkpt lat="39.758140" lon="-6.435675">
        <ele>250.908</ele>
        <time>2019-06-22T19:31:48Z</time>
      </trkpt>
      <trkpt lat="39.758323" lon="-6.435552">
        <ele>250.142</ele>
        <time>2019-06-22T19:31:49Z</time>
      </trkpt>
      <trkpt lat="39.758508" lon="-6.435434">
        <ele>249.896</ele>
        <time>2019-06-22T19:31:50Z</time>
      </trkpt>
      <trkpt lat="39.758689" lon="-6.435318">
        <ele>249.798</ele>
        <time>2019-06-22T19:31:51Z</time>
      </trkpt>
      <trkpt lat="39.758868" lon="-6.435210">
        <ele>249.840</ele>
        <time>2019-06-22T19:31:52Z</time>
      </trkpt>
      <trkpt lat="39.759046" lon="-6.435104">
        <ele>249.868</ele>
        <time>2019-06-22T19:31:53Z</time>
      </trkpt>
      <trkpt lat="39.759218" lon="-6.434996">
        <ele>249.867</ele>
        <time>2019-06-22T19:31:54Z</time>
      </trkpt>
      <trkpt lat="39.759378" lon="-6.434888">
        <ele>249.812</ele>
        <time>2019-06-22T19:31:55Z</time>
      </trkpt>
      <trkpt lat="39.759541" lon="-6.434789">
        <ele>249.875</ele>
        <time>2019-06-22T19:31:56Z</time>
      </trkpt>
      <trkpt lat="39.759699" lon="-6.434687">
        <ele>250.111</ele>
        <time>2019-06-22T19:31:57Z</time>
      </trkpt>
      <trkpt lat="39.759847" lon="-6.434605">
        <ele>250.121</ele>
        <time>2019-06-22T19:31:58Z</time>
      </trkpt>
      <trkpt lat="39.759993" lon="-6.434512">
        <ele>249.903</ele>
        <time>2019-06-22T19:31:59Z</time>
      </trkpt>
      <trkpt lat="39.760133" lon="-6.434414">
        <ele>249.608</ele>
        <time>2019-06-22T19:32:00Z</time>
      </trkpt>
      <trkpt lat="39.760265" lon="-6.434324">
        <ele>249.694</ele>
        <time>2019-06-22T19:32:01Z</time>
      </trkpt>
      <trkpt lat="39.760391" lon="-6.434222">
        <ele>248.718</ele>
        <time>2019-06-22T19:32:02Z</time>
      </trkpt>
      <trkpt lat="39.760506" lon="-6.434108">
        <ele>247.550</ele>
        <time>2019-06-22T19:32:03Z</time>
      </trkpt>
      <trkpt lat="39.760606" lon="-6.433988">
        <ele>247.062</ele>
        <time>2019-06-22T19:32:04Z</time>
      </trkpt>
      <trkpt lat="39.760691" lon="-6.433863">
        <ele>246.410</ele>
        <time>2019-06-22T19:32:05Z</time>
      </trkpt>
      <trkpt lat="39.760760" lon="-6.433730">
        <ele>245.759</ele>
        <time>2019-06-22T19:32:06Z</time>
      </trkpt>
      <trkpt lat="39.760814" lon="-6.433593">
        <ele>245.754</ele>
        <time>2019-06-22T19:32:07Z</time>
      </trkpt>
      <trkpt lat="39.760858" lon="-6.433465">
        <ele>245.977</ele>
        <time>2019-06-22T19:32:08Z</time>
      </trkpt>
      <trkpt lat="39.760887" lon="-6.433344">
        <ele>246.099</ele>
        <time>2019-06-22T19:32:09Z</time>
      </trkpt>
      <trkpt lat="39.760903" lon="-6.433234">
        <ele>246.307</ele>
        <time>2019-06-22T19:32:10Z</time>
      </trkpt>
      <trkpt lat="39.760889" lon="-6.433146">
        <ele>246.927</ele>
        <time>2019-06-22T19:32:11Z</time>
      </trkpt>
      <trkpt lat="39.760870" lon="-6.433075">
        <ele>247.808</ele>
        <time>2019-06-22T19:32:12Z</time>
      </trkpt>
      <trkpt lat="39.760840" lon="-6.433020">
        <ele>248.542</ele>
        <time>2019-06-22T19:32:13Z</time>
      </trkpt>
      <trkpt lat="39.760763" lon="-6.432957">
        <ele>249.796</ele>
        <time>2019-06-22T19:32:15Z</time>
      </trkpt>
      <trkpt lat="39.760698" lon="-6.432918">
        <ele>250.388</ele>
        <time>2019-06-22T19:32:17Z</time>
      </trkpt>
      <trkpt lat="39.760657" lon="-6.432879">
        <ele>252.170</ele>
        <time>2019-06-22T19:33:16Z</time>
      </trkpt>
      <trkpt lat="39.760584" lon="-6.432834">
        <ele>252.028</ele>
        <time>2019-06-22T19:33:18Z</time>
      </trkpt>
      <trkpt lat="39.760517" lon="-6.432794">
        <ele>251.917</ele>
        <time>2019-06-22T19:33:19Z</time>
      </trkpt>
      <trkpt lat="39.760427" lon="-6.432743">
        <ele>251.952</ele>
        <time>2019-06-22T19:33:20Z</time>
      </trkpt>
      <trkpt lat="39.760330" lon="-6.432686">
        <ele>251.735</ele>
        <time>2019-06-22T19:33:21Z</time>
      </trkpt>
      <trkpt lat="39.760218" lon="-6.432626">
        <ele>251.383</ele>
        <time>2019-06-22T19:33:22Z</time>
      </trkpt>
      <trkpt lat="39.760094" lon="-6.432561">
        <ele>251.125</ele>
        <time>2019-06-22T19:33:23Z</time>
      </trkpt>
      <trkpt lat="39.759939" lon="-6.432493">
        <ele>250.817</ele>
        <time>2019-06-22T19:33:24Z</time>
      </trkpt>
      <trkpt lat="39.759789" lon="-6.432420">
        <ele>250.408</ele>
        <time>2019-06-22T19:33:25Z</time>
      </trkpt>
      <trkpt lat="39.759632" lon="-6.432337">
        <ele>249.841</ele>
        <time>2019-06-22T19:33:26Z</time>
      </trkpt>
      <trkpt lat="39.759466" lon="-6.432255">
        <ele>249.395</ele>
        <time>2019-06-22T19:33:27Z</time>
      </trkpt>
      <trkpt lat="39.759291" lon="-6.432164">
        <ele>248.967</ele>
        <time>2019-06-22T19:33:28Z</time>
      </trkpt>
      <trkpt lat="39.759113" lon="-6.432066">
        <ele>248.499</ele>
        <time>2019-06-22T19:33:29Z</time>
      </trkpt>
      <trkpt lat="39.758916" lon="-6.431961">
        <ele>247.667</ele>
        <time>2019-06-22T19:33:30Z</time>
      </trkpt>
      <trkpt lat="39.758714" lon="-6.431858">
        <ele>247.356</ele>
        <time>2019-06-22T19:33:31Z</time>
      </trkpt>
      <trkpt lat="39.758509" lon="-6.431757">
        <ele>247.261</ele>
        <time>2019-06-22T19:33:32Z</time>
      </trkpt>
      <trkpt lat="39.758302" lon="-6.431660">
        <ele>246.624</ele>
        <time>2019-06-22T19:33:33Z</time>
      </trkpt>
      <trkpt lat="39.758093" lon="-6.431565">
        <ele>246.314</ele>
        <time>2019-06-22T19:33:34Z</time>
      </trkpt>
      <trkpt lat="39.757903" lon="-6.431468">
        <ele>245.854</ele>
        <time>2019-06-22T19:33:35Z</time>
      </trkpt>
      <trkpt lat="39.757692" lon="-6.431385">
        <ele>245.309</ele>
        <time>2019-06-22T19:33:36Z</time>
      </trkpt>
      <trkpt lat="39.757468" lon="-6.431322">
        <ele>244.708</ele>
        <time>2019-06-22T19:33:37Z</time>
      </trkpt>
      <trkpt lat="39.757243" lon="-6.431278">
        <ele>244.674</ele>
        <time>2019-06-22T19:33:38Z</time>
      </trkpt>
      <trkpt lat="39.757012" lon="-6.431257">
        <ele>244.238</ele>
        <time>2019-06-22T19:33:39Z</time>
      </trkpt>
      <trkpt lat="39.756784" lon="-6.431259">
        <ele>243.870</ele>
        <time>2019-06-22T19:33:40Z</time>
      </trkpt>
      <trkpt lat="39.756553" lon="-6.431292">
        <ele>243.152</ele>
        <time>2019-06-22T19:33:41Z</time>
      </trkpt>
      <trkpt lat="39.756334" lon="-6.431322">
        <ele>242.640</ele>
        <time>2019-06-22T19:33:42Z</time>
      </trkpt>
      <trkpt lat="39.756093" lon="-6.431438">
        <ele>242.649</ele>
        <time>2019-06-22T19:33:43Z</time>
      </trkpt>
      <trkpt lat="39.755860" lon="-6.431553">
        <ele>242.894</ele>
        <time>2019-06-22T19:33:44Z</time>
      </trkpt>
      <trkpt lat="39.755648" lon="-6.431688">
        <ele>243.157</ele>
        <time>2019-06-22T19:33:45Z</time>
      </trkpt>
      <trkpt lat="39.755456" lon="-6.431853">
        <ele>244.176</ele>
        <time>2019-06-22T19:33:46Z</time>
      </trkpt>
      <trkpt lat="39.755279" lon="-6.432025">
        <ele>244.890</ele>
        <time>2019-06-22T19:33:47Z</time>
      </trkpt>
      <trkpt lat="39.755107" lon="-6.432227">
        <ele>246.219</ele>
        <time>2019-06-22T19:33:48Z</time>
      </trkpt>
      <trkpt lat="39.754923" lon="-6.432434">
        <ele>247.208</ele>
        <time>2019-06-22T19:33:49Z</time>
      </trkpt>
      <trkpt lat="39.754766" lon="-6.432676">
        <ele>247.280</ele>
        <time>2019-06-22T19:33:50Z</time>
      </trkpt>
      <trkpt lat="39.754589" lon="-6.432912">
        <ele>249.074</ele>
        <time>2019-06-22T19:33:51Z</time>
      </trkpt>
      <trkpt lat="39.754403" lon="-6.433150">
        <ele>250.676</ele>
        <time>2019-06-22T19:33:52Z</time>
      </trkpt>
      <trkpt lat="39.754222" lon="-6.433389">
        <ele>251.078</ele>
        <time>2019-06-22T19:33:53Z</time>
      </trkpt>
      <trkpt lat="39.754038" lon="-6.433631">
        <ele>251.076</ele>
        <time>2019-06-22T19:33:54Z</time>
      </trkpt>
      <trkpt lat="39.753853" lon="-6.433873">
        <ele>250.355</ele>
        <time>2019-06-22T19:33:55Z</time>
      </trkpt>
      <trkpt lat="39.753664" lon="-6.434121">
        <ele>248.740</ele>
        <time>2019-06-22T19:33:56Z</time>
      </trkpt>
      <trkpt lat="39.753480" lon="-6.434378">
        <ele>248.083</ele>
        <time>2019-06-22T19:33:57Z</time>
      </trkpt>
      <trkpt lat="39.753307" lon="-6.434609">
        <ele>247.971</ele>
        <time>2019-06-22T19:33:58Z</time>
      </trkpt>
      <trkpt lat="39.753141" lon="-6.434829">
        <ele>247.341</ele>
        <time>2019-06-22T19:33:59Z</time>
      </trkpt>
      <trkpt lat="39.752962" lon="-6.435038">
        <ele>246.315</ele>
        <time>2019-06-22T19:34:00Z</time>
      </trkpt>
      <trkpt lat="39.752835" lon="-6.435220">
        <ele>244.808</ele>
        <time>2019-06-22T19:34:01Z</time>
      </trkpt>
      <trkpt lat="39.752689" lon="-6.435402">
        <ele>241.730</ele>
        <time>2019-06-22T19:34:02Z</time>
      </trkpt>
      <trkpt lat="39.752547" lon="-6.435566">
        <ele>239.064</ele>
        <time>2019-06-22T19:34:03Z</time>
      </trkpt>
      <trkpt lat="39.752397" lon="-6.435716">
        <ele>239.056</ele>
        <time>2019-06-22T19:34:04Z</time>
      </trkpt>
      <trkpt lat="39.752233" lon="-6.435858">
        <ele>238.978</ele>
        <time>2019-06-22T19:34:05Z</time>
      </trkpt>
      <trkpt lat="39.752070" lon="-6.435990">
        <ele>239.246</ele>
        <time>2019-06-22T19:34:06Z</time>
      </trkpt>
      <trkpt lat="39.751904" lon="-6.436121">
        <ele>239.875</ele>
        <time>2019-06-22T19:34:07Z</time>
      </trkpt>
      <trkpt lat="39.751740" lon="-6.436264">
        <ele>241.050</ele>
        <time>2019-06-22T19:34:08Z</time>
      </trkpt>
      <trkpt lat="39.751577" lon="-6.436401">
        <ele>241.043</ele>
        <time>2019-06-22T19:34:09Z</time>
      </trkpt>
      <trkpt lat="39.751419" lon="-6.436537">
        <ele>241.561</ele>
        <time>2019-06-22T19:34:10Z</time>
      </trkpt>
      <trkpt lat="39.751248" lon="-6.436680">
        <ele>241.921</ele>
        <time>2019-06-22T19:34:11Z</time>
      </trkpt>
      <trkpt lat="39.751087" lon="-6.436816">
        <ele>243.513</ele>
        <time>2019-06-22T19:34:12Z</time>
      </trkpt>
      <trkpt lat="39.750929" lon="-6.436943">
        <ele>244.908</ele>
        <time>2019-06-22T19:34:13Z</time>
      </trkpt>
      <trkpt lat="39.750766" lon="-6.437063">
        <ele>245.159</ele>
        <time>2019-06-22T19:34:14Z</time>
      </trkpt>
      <trkpt lat="39.750591" lon="-6.437174">
        <ele>245.463</ele>
        <time>2019-06-22T19:34:15Z</time>
      </trkpt>
      <trkpt lat="39.750408" lon="-6.437268">
        <ele>245.425</ele>
        <time>2019-06-22T19:34:16Z</time>
      </trkpt>
      <trkpt lat="39.750225" lon="-6.437362">
        <ele>246.187</ele>
        <time>2019-06-22T19:34:17Z</time>
      </trkpt>
      <trkpt lat="39.750042" lon="-6.437449">
        <ele>246.125</ele>
        <time>2019-06-22T19:34:18Z</time>
      </trkpt>
      <trkpt lat="39.749837" lon="-6.437521">
        <ele>245.714</ele>
        <time>2019-06-22T19:34:19Z</time>
      </trkpt>
      <trkpt lat="39.749603" lon="-6.437591">
        <ele>245.049</ele>
        <time>2019-06-22T19:34:20Z</time>
      </trkpt>
      <trkpt lat="39.749385" lon="-6.437671">
        <ele>244.552</ele>
        <time>2019-06-22T19:34:21Z</time>
      </trkpt>
      <trkpt lat="39.749168" lon="-6.437749">
        <ele>244.363</ele>
        <time>2019-06-22T19:34:22Z</time>
      </trkpt>
      <trkpt lat="39.748935" lon="-6.437823">
        <ele>244.044</ele>
        <time>2019-06-22T19:34:23Z</time>
      </trkpt>
      <trkpt lat="39.748706" lon="-6.437914">
        <ele>244.018</ele>
        <time>2019-06-22T19:34:24Z</time>
      </trkpt>
      <trkpt lat="39.748476" lon="-6.438015">
        <ele>244.108</ele>
        <time>2019-06-22T19:34:25Z</time>
      </trkpt>
      <trkpt lat="39.748248" lon="-6.438129">
        <ele>244.139</ele>
        <time>2019-06-22T19:34:26Z</time>
      </trkpt>
      <trkpt lat="39.748016" lon="-6.438266">
        <ele>244.133</ele>
        <time>2019-06-22T19:34:27Z</time>
      </trkpt>
      <trkpt lat="39.747795" lon="-6.438423">
        <ele>244.195</ele>
        <time>2019-06-22T19:34:28Z</time>
      </trkpt>
      <trkpt lat="39.747572" lon="-6.438590">
        <ele>244.737</ele>
        <time>2019-06-22T19:34:29Z</time>
      </trkpt>
      <trkpt lat="39.747379" lon="-6.438742">
        <ele>244.925</ele>
        <time>2019-06-22T19:34:30Z</time>
      </trkpt>
      <trkpt lat="39.747166" lon="-6.438900">
        <ele>245.484</ele>
        <time>2019-06-22T19:34:31Z</time>
      </trkpt>
      <trkpt lat="39.746943" lon="-6.439075">
        <ele>245.839</ele>
        <time>2019-06-22T19:34:32Z</time>
      </trkpt>
      <trkpt lat="39.746724" lon="-6.439236">
        <ele>245.822</ele>
        <time>2019-06-22T19:34:33Z</time>
      </trkpt>
      <trkpt lat="39.746494" lon="-6.439413">
        <ele>244.482</ele>
        <time>2019-06-22T19:34:34Z</time>
      </trkpt>
      <trkpt lat="39.746267" lon="-6.439587">
        <ele>244.243</ele>
        <time>2019-06-22T19:34:35Z</time>
      </trkpt>
      <trkpt lat="39.746042" lon="-6.439765">
        <ele>243.517</ele>
        <time>2019-06-22T19:34:36Z</time>
      </trkpt>
      <trkpt lat="39.745814" lon="-6.439939">
        <ele>243.508</ele>
        <time>2019-06-22T19:34:37Z</time>
      </trkpt>
      <trkpt lat="39.745583" lon="-6.440116">
        <ele>244.031</ele>
        <time>2019-06-22T19:34:38Z</time>
      </trkpt>
      <trkpt lat="39.745345" lon="-6.440285">
        <ele>244.835</ele>
        <time>2019-06-22T19:34:39Z</time>
      </trkpt>
      <trkpt lat="39.745107" lon="-6.440461">
        <ele>245.037</ele>
        <time>2019-06-22T19:34:40Z</time>
      </trkpt>
      <trkpt lat="39.744872" lon="-6.440639">
        <ele>245.349</ele>
        <time>2019-06-22T19:34:41Z</time>
      </trkpt>
      <trkpt lat="39.744649" lon="-6.440815">
        <ele>245.097</ele>
        <time>2019-06-22T19:34:42Z</time>
      </trkpt>
      <trkpt lat="39.744419" lon="-6.440992">
        <ele>245.036</ele>
        <time>2019-06-22T19:34:43Z</time>
      </trkpt>
      <trkpt lat="39.744192" lon="-6.441161">
        <ele>244.771</ele>
        <time>2019-06-22T19:34:44Z</time>
      </trkpt>
      <trkpt lat="39.743963" lon="-6.441340">
        <ele>244.894</ele>
        <time>2019-06-22T19:34:45Z</time>
      </trkpt>
      <trkpt lat="39.743732" lon="-6.441518">
        <ele>244.716</ele>
        <time>2019-06-22T19:34:46Z</time>
      </trkpt>
      <trkpt lat="39.743499" lon="-6.441696">
        <ele>244.876</ele>
        <time>2019-06-22T19:34:47Z</time>
      </trkpt>
      <trkpt lat="39.743269" lon="-6.441876">
        <ele>245.213</ele>
        <time>2019-06-22T19:34:48Z</time>
      </trkpt>
      <trkpt lat="39.743038" lon="-6.442052">
        <ele>245.308</ele>
        <time>2019-06-22T19:34:49Z</time>
      </trkpt>
      <trkpt lat="39.742816" lon="-6.442219">
        <ele>245.354</ele>
        <time>2019-06-22T19:34:50Z</time>
      </trkpt>
      <trkpt lat="39.742585" lon="-6.442391">
        <ele>245.388</ele>
        <time>2019-06-22T19:34:51Z</time>
      </trkpt>
      <trkpt lat="39.742358" lon="-6.442563">
        <ele>245.610</ele>
        <time>2019-06-22T19:34:52Z</time>
      </trkpt>
      <trkpt lat="39.742132" lon="-6.442733">
        <ele>245.622</ele>
        <time>2019-06-22T19:34:53Z</time>
      </trkpt>
      <trkpt lat="39.741907" lon="-6.442907">
        <ele>245.810</ele>
        <time>2019-06-22T19:34:54Z</time>
      </trkpt>
      <trkpt lat="39.741681" lon="-6.443077">
        <ele>246.089</ele>
        <time>2019-06-22T19:34:55Z</time>
      </trkpt>
      <trkpt lat="39.741458" lon="-6.443248">
        <ele>246.864</ele>
        <time>2019-06-22T19:34:56Z</time>
      </trkpt>
      <trkpt lat="39.741233" lon="-6.443420">
        <ele>246.827</ele>
        <time>2019-06-22T19:34:57Z</time>
      </trkpt>
      <trkpt lat="39.741010" lon="-6.443586">
        <ele>247.522</ele>
        <time>2019-06-22T19:34:58Z</time>
      </trkpt>
      <trkpt lat="39.740787" lon="-6.443759">
        <ele>247.562</ele>
        <time>2019-06-22T19:34:59Z</time>
      </trkpt>
      <trkpt lat="39.740564" lon="-6.443931">
        <ele>247.508</ele>
        <time>2019-06-22T19:35:00Z</time>
      </trkpt>
      <trkpt lat="39.740349" lon="-6.444098">
        <ele>247.308</ele>
        <time>2019-06-22T19:35:01Z</time>
      </trkpt>
      <trkpt lat="39.740125" lon="-6.444279">
        <ele>247.355</ele>
        <time>2019-06-22T19:35:02Z</time>
      </trkpt>
      <trkpt lat="39.739918" lon="-6.444476">
        <ele>247.189</ele>
        <time>2019-06-22T19:35:03Z</time>
      </trkpt>
      <trkpt lat="39.739716" lon="-6.444689">
        <ele>247.191</ele>
        <time>2019-06-22T19:35:04Z</time>
      </trkpt>
      <trkpt lat="39.739523" lon="-6.444914">
        <ele>247.363</ele>
        <time>2019-06-22T19:35:05Z</time>
      </trkpt>
      <trkpt lat="39.739336" lon="-6.445142">
        <ele>247.321</ele>
        <time>2019-06-22T19:35:06Z</time>
      </trkpt>
      <trkpt lat="39.739153" lon="-6.445371">
        <ele>247.360</ele>
        <time>2019-06-22T19:35:07Z</time>
      </trkpt>
      <trkpt lat="39.738961" lon="-6.445598">
        <ele>247.355</ele>
        <time>2019-06-22T19:35:08Z</time>
      </trkpt>
      <trkpt lat="39.738766" lon="-6.445820">
        <ele>248.268</ele>
        <time>2019-06-22T19:35:09Z</time>
      </trkpt>
      <trkpt lat="39.738563" lon="-6.446035">
        <ele>248.329</ele>
        <time>2019-06-22T19:35:10Z</time>
      </trkpt>
      <trkpt lat="39.738357" lon="-6.446242">
        <ele>248.700</ele>
        <time>2019-06-22T19:35:11Z</time>
      </trkpt>
      <trkpt lat="39.738140" lon="-6.446433">
        <ele>249.620</ele>
        <time>2019-06-22T19:35:12Z</time>
      </trkpt>
      <trkpt lat="39.737920" lon="-6.446613">
        <ele>250.308</ele>
        <time>2019-06-22T19:35:13Z</time>
      </trkpt>
      <trkpt lat="39.737687" lon="-6.446764">
        <ele>250.445</ele>
        <time>2019-06-22T19:35:14Z</time>
      </trkpt>
      <trkpt lat="39.737448" lon="-6.446899">
        <ele>251.079</ele>
        <time>2019-06-22T19:35:15Z</time>
      </trkpt>
      <trkpt lat="39.737206" lon="-6.447022">
        <ele>251.651</ele>
        <time>2019-06-22T19:35:16Z</time>
      </trkpt>
      <trkpt lat="39.736956" lon="-6.447116">
        <ele>252.153</ele>
        <time>2019-06-22T19:35:17Z</time>
      </trkpt>
      <trkpt lat="39.736699" lon="-6.447207">
        <ele>252.161</ele>
        <time>2019-06-22T19:35:18Z</time>
      </trkpt>
      <trkpt lat="39.736445" lon="-6.447297">
        <ele>251.860</ele>
        <time>2019-06-22T19:35:19Z</time>
      </trkpt>
      <trkpt lat="39.736192" lon="-6.447387">
        <ele>251.195</ele>
        <time>2019-06-22T19:35:20Z</time>
      </trkpt>
      <trkpt lat="39.735935" lon="-6.447479">
        <ele>251.088</ele>
        <time>2019-06-22T19:35:21Z</time>
      </trkpt>
      <trkpt lat="39.735680" lon="-6.447570">
        <ele>250.972</ele>
        <time>2019-06-22T19:35:22Z</time>
      </trkpt>
      <trkpt lat="39.735423" lon="-6.447664">
        <ele>250.913</ele>
        <time>2019-06-22T19:35:23Z</time>
      </trkpt>
      <trkpt lat="39.735170" lon="-6.447759">
        <ele>250.914</ele>
        <time>2019-06-22T19:35:24Z</time>
      </trkpt>
      <trkpt lat="39.734925" lon="-6.447851">
        <ele>251.208</ele>
        <time>2019-06-22T19:35:25Z</time>
      </trkpt>
      <trkpt lat="39.734674" lon="-6.447947">
        <ele>251.590</ele>
        <time>2019-06-22T19:35:26Z</time>
      </trkpt>
      <trkpt lat="39.734435" lon="-6.448045">
        <ele>251.894</ele>
        <time>2019-06-22T19:35:27Z</time>
      </trkpt>
      <trkpt lat="39.734183" lon="-6.448153">
        <ele>251.976</ele>
        <time>2019-06-22T19:35:28Z</time>
      </trkpt>
      <trkpt lat="39.733965" lon="-6.448241">
        <ele>251.938</ele>
        <time>2019-06-22T19:35:29Z</time>
      </trkpt>
      <trkpt lat="39.733737" lon="-6.448373">
        <ele>250.546</ele>
        <time>2019-06-22T19:35:30Z</time>
      </trkpt>
      <trkpt lat="39.733521" lon="-6.448522">
        <ele>250.095</ele>
        <time>2019-06-22T19:35:31Z</time>
      </trkpt>
      <trkpt lat="39.733303" lon="-6.448703">
        <ele>249.110</ele>
        <time>2019-06-22T19:35:32Z</time>
      </trkpt>
      <trkpt lat="39.733082" lon="-6.448892">
        <ele>248.853</ele>
        <time>2019-06-22T19:35:33Z</time>
      </trkpt>
      <trkpt lat="39.732870" lon="-6.449071">
        <ele>248.858</ele>
        <time>2019-06-22T19:35:34Z</time>
      </trkpt>
      <trkpt lat="39.732653" lon="-6.449248">
        <ele>250.352</ele>
        <time>2019-06-22T19:35:35Z</time>
      </trkpt>
      <trkpt lat="39.732439" lon="-6.449423">
        <ele>252.117</ele>
        <time>2019-06-22T19:35:36Z</time>
      </trkpt>
      <trkpt lat="39.732225" lon="-6.449606">
        <ele>253.508</ele>
        <time>2019-06-22T19:35:37Z</time>
      </trkpt>
      <trkpt lat="39.732016" lon="-6.449790">
        <ele>254.378</ele>
        <time>2019-06-22T19:35:38Z</time>
      </trkpt>
      <trkpt lat="39.731821" lon="-6.449965">
        <ele>255.752</ele>
        <time>2019-06-22T19:35:39Z</time>
      </trkpt>
      <trkpt lat="39.731640" lon="-6.450122">
        <ele>256.714</ele>
        <time>2019-06-22T19:35:40Z</time>
      </trkpt>
      <trkpt lat="39.731465" lon="-6.450260">
        <ele>257.976</ele>
        <time>2019-06-22T19:35:41Z</time>
      </trkpt>
      <trkpt lat="39.731294" lon="-6.450381">
        <ele>258.664</ele>
        <time>2019-06-22T19:35:42Z</time>
      </trkpt>
      <trkpt lat="39.731117" lon="-6.450469">
        <ele>259.533</ele>
        <time>2019-06-22T19:35:43Z</time>
      </trkpt>
      <trkpt lat="39.730940" lon="-6.450527">
        <ele>260.288</ele>
        <time>2019-06-22T19:35:44Z</time>
      </trkpt>
      <trkpt lat="39.730765" lon="-6.450545">
        <ele>261.941</ele>
        <time>2019-06-22T19:35:45Z</time>
      </trkpt>
      <trkpt lat="39.730594" lon="-6.450522">
        <ele>263.241</ele>
        <time>2019-06-22T19:35:46Z</time>
      </trkpt>
      <trkpt lat="39.730423" lon="-6.450462">
        <ele>264.781</ele>
        <time>2019-06-22T19:35:47Z</time>
      </trkpt>
      <trkpt lat="39.730263" lon="-6.450364">
        <ele>266.309</ele>
        <time>2019-06-22T19:35:48Z</time>
      </trkpt>
      <trkpt lat="39.730117" lon="-6.450230">
        <ele>268.008</ele>
        <time>2019-06-22T19:35:49Z</time>
      </trkpt>
      <trkpt lat="39.729975" lon="-6.450074">
        <ele>269.067</ele>
        <time>2019-06-22T19:35:50Z</time>
      </trkpt>
      <trkpt lat="39.729851" lon="-6.449910">
        <ele>269.941</ele>
        <time>2019-06-22T19:35:51Z</time>
      </trkpt>
      <trkpt lat="39.729736" lon="-6.449745">
        <ele>270.483</ele>
        <time>2019-06-22T19:35:52Z</time>
      </trkpt>
      <trkpt lat="39.729615" lon="-6.449571">
        <ele>271.365</ele>
        <time>2019-06-22T19:35:53Z</time>
      </trkpt>
      <trkpt lat="39.729488" lon="-6.449405">
        <ele>271.663</ele>
        <time>2019-06-22T19:35:54Z</time>
      </trkpt>
      <trkpt lat="39.729344" lon="-6.449262">
        <ele>272.342</ele>
        <time>2019-06-22T19:35:55Z</time>
      </trkpt>
      <trkpt lat="39.729185" lon="-6.449147">
        <ele>272.697</ele>
        <time>2019-06-22T19:35:56Z</time>
      </trkpt>
      <trkpt lat="39.729012" lon="-6.449067">
        <ele>272.750</ele>
        <time>2019-06-22T19:35:57Z</time>
      </trkpt>
      <trkpt lat="39.728825" lon="-6.449018">
        <ele>272.947</ele>
        <time>2019-06-22T19:35:58Z</time>
      </trkpt>
      <trkpt lat="39.728636" lon="-6.449007">
        <ele>273.729</ele>
        <time>2019-06-22T19:35:59Z</time>
      </trkpt>
      <trkpt lat="39.728441" lon="-6.449013">
        <ele>274.021</ele>
        <time>2019-06-22T19:36:00Z</time>
      </trkpt>
      <trkpt lat="39.728241" lon="-6.449027">
        <ele>274.808</ele>
        <time>2019-06-22T19:36:01Z</time>
      </trkpt>
      <trkpt lat="39.728043" lon="-6.449032">
        <ele>274.887</ele>
        <time>2019-06-22T19:36:02Z</time>
      </trkpt>
      <trkpt lat="39.727842" lon="-6.449008">
        <ele>276.971</ele>
        <time>2019-06-22T19:36:03Z</time>
      </trkpt>
      <trkpt lat="39.727634" lon="-6.448967">
        <ele>278.623</ele>
        <time>2019-06-22T19:36:04Z</time>
      </trkpt>
      <trkpt lat="39.727432" lon="-6.448912">
        <ele>280.395</ele>
        <time>2019-06-22T19:36:05Z</time>
      </trkpt>
      <trkpt lat="39.727225" lon="-6.448853">
        <ele>282.023</ele>
        <time>2019-06-22T19:36:06Z</time>
      </trkpt>
      <trkpt lat="39.727024" lon="-6.448790">
        <ele>283.562</ele>
        <time>2019-06-22T19:36:07Z</time>
      </trkpt>
      <trkpt lat="39.726817" lon="-6.448734">
        <ele>284.297</ele>
        <time>2019-06-22T19:36:08Z</time>
      </trkpt>
      <trkpt lat="39.726613" lon="-6.448677">
        <ele>284.410</ele>
        <time>2019-06-22T19:36:09Z</time>
      </trkpt>
      <trkpt lat="39.726404" lon="-6.448616">
        <ele>284.725</ele>
        <time>2019-06-22T19:36:10Z</time>
      </trkpt>
      <trkpt lat="39.726201" lon="-6.448558">
        <ele>285.726</ele>
        <time>2019-06-22T19:36:11Z</time>
      </trkpt>
      <trkpt lat="39.725993" lon="-6.448494">
        <ele>286.608</ele>
        <time>2019-06-22T19:36:12Z</time>
      </trkpt>
      <trkpt lat="39.725788" lon="-6.448422">
        <ele>287.408</ele>
        <time>2019-06-22T19:36:13Z</time>
      </trkpt>
      <trkpt lat="39.725584" lon="-6.448363">
        <ele>287.475</ele>
        <time>2019-06-22T19:36:14Z</time>
      </trkpt>
      <trkpt lat="39.725377" lon="-6.448300">
        <ele>287.219</ele>
        <time>2019-06-22T19:36:15Z</time>
      </trkpt>
      <trkpt lat="39.725178" lon="-6.448239">
        <ele>284.371</ele>
        <time>2019-06-22T19:36:16Z</time>
      </trkpt>
      <trkpt lat="39.724977" lon="-6.448183">
        <ele>282.143</ele>
        <time>2019-06-22T19:36:17Z</time>
      </trkpt>
      <trkpt lat="39.724773" lon="-6.448123">
        <ele>279.621</ele>
        <time>2019-06-22T19:36:18Z</time>
      </trkpt>
      <trkpt lat="39.724575" lon="-6.448072">
        <ele>276.680</ele>
        <time>2019-06-22T19:36:19Z</time>
      </trkpt>
      <trkpt lat="39.724385" lon="-6.448046">
        <ele>274.665</ele>
        <time>2019-06-22T19:36:20Z</time>
      </trkpt>
      <trkpt lat="39.724193" lon="-6.448038">
        <ele>274.378</ele>
        <time>2019-06-22T19:36:21Z</time>
      </trkpt>
      <trkpt lat="39.724002" lon="-6.448068">
        <ele>272.085</ele>
        <time>2019-06-22T19:36:22Z</time>
      </trkpt>
      <trkpt lat="39.723811" lon="-6.448131">
        <ele>270.589</ele>
        <time>2019-06-22T19:36:23Z</time>
      </trkpt>
      <trkpt lat="39.723623" lon="-6.448213">
        <ele>270.517</ele>
        <time>2019-06-22T19:36:24Z</time>
      </trkpt>
      <trkpt lat="39.723420" lon="-6.448302">
        <ele>270.308</ele>
        <time>2019-06-22T19:36:25Z</time>
      </trkpt>
      <trkpt lat="39.723219" lon="-6.448388">
        <ele>270.681</ele>
        <time>2019-06-22T19:36:26Z</time>
      </trkpt>
      <trkpt lat="39.723030" lon="-6.448474">
        <ele>270.875</ele>
        <time>2019-06-22T19:36:27Z</time>
      </trkpt>
      <trkpt lat="39.722833" lon="-6.448559">
        <ele>271.417</ele>
        <time>2019-06-22T19:36:28Z</time>
      </trkpt>
      <trkpt lat="39.722625" lon="-6.448649">
        <ele>271.489</ele>
        <time>2019-06-22T19:36:29Z</time>
      </trkpt>
      <trkpt lat="39.722419" lon="-6.448741">
        <ele>270.667</ele>
        <time>2019-06-22T19:36:30Z</time>
      </trkpt>
      <trkpt lat="39.722218" lon="-6.448829">
        <ele>269.876</ele>
        <time>2019-06-22T19:36:31Z</time>
      </trkpt>
      <trkpt lat="39.722026" lon="-6.448909">
        <ele>268.591</ele>
        <time>2019-06-22T19:36:32Z</time>
      </trkpt>
      <trkpt lat="39.721844" lon="-6.448980">
        <ele>266.034</ele>
        <time>2019-06-22T19:36:33Z</time>
      </trkpt>
      <trkpt lat="39.721664" lon="-6.449053">
        <ele>263.824</ele>
        <time>2019-06-22T19:36:34Z</time>
      </trkpt>
      <trkpt lat="39.721486" lon="-6.449095">
        <ele>261.904</ele>
        <time>2019-06-22T19:36:35Z</time>
      </trkpt>
      <trkpt lat="39.721304" lon="-6.449145">
        <ele>261.014</ele>
        <time>2019-06-22T19:36:36Z</time>
      </trkpt>
      <trkpt lat="39.721145" lon="-6.449103">
        <ele>260.908</ele>
        <time>2019-06-22T19:36:37Z</time>
      </trkpt>
      <trkpt lat="39.720971" lon="-6.449068">
        <ele>260.945</ele>
        <time>2019-06-22T19:36:38Z</time>
      </trkpt>
      <trkpt lat="39.720804" lon="-6.448979">
        <ele>261.379</ele>
        <time>2019-06-22T19:36:39Z</time>
      </trkpt>
      <trkpt lat="39.720646" lon="-6.448871">
        <ele>261.311</ele>
        <time>2019-06-22T19:36:40Z</time>
      </trkpt>
      <trkpt lat="39.720481" lon="-6.448767">
        <ele>261.133</ele>
        <time>2019-06-22T19:36:41Z</time>
      </trkpt>
      <trkpt lat="39.720318" lon="-6.448677">
        <ele>259.721</ele>
        <time>2019-06-22T19:36:42Z</time>
      </trkpt>
      <trkpt lat="39.720167" lon="-6.448593">
        <ele>257.780</ele>
        <time>2019-06-22T19:36:43Z</time>
      </trkpt>
      <trkpt lat="39.720002" lon="-6.448548">
        <ele>254.985</ele>
        <time>2019-06-22T19:36:44Z</time>
      </trkpt>
      <trkpt lat="39.719838" lon="-6.448500">
        <ele>252.918</ele>
        <time>2019-06-22T19:36:45Z</time>
      </trkpt>
      <trkpt lat="39.719690" lon="-6.448527">
        <ele>251.315</ele>
        <time>2019-06-22T19:36:46Z</time>
      </trkpt>
      <trkpt lat="39.719536" lon="-6.448564">
        <ele>250.965</ele>
        <time>2019-06-22T19:36:47Z</time>
      </trkpt>
      <trkpt lat="39.719379" lon="-6.448622">
        <ele>250.911</ele>
        <time>2019-06-22T19:36:48Z</time>
      </trkpt>
      <trkpt lat="39.719220" lon="-6.448705">
        <ele>252.308</ele>
        <time>2019-06-22T19:36:49Z</time>
      </trkpt>
      <trkpt lat="39.719054" lon="-6.448785">
        <ele>253.824</ele>
        <time>2019-06-22T19:36:50Z</time>
      </trkpt>
      <trkpt lat="39.718878" lon="-6.448863">
        <ele>254.958</ele>
        <time>2019-06-22T19:36:51Z</time>
      </trkpt>
      <trkpt lat="39.718677" lon="-6.448957">
        <ele>255.890</ele>
        <time>2019-06-22T19:36:52Z</time>
      </trkpt>
      <trkpt lat="39.718491" lon="-6.449051">
        <ele>256.552</ele>
        <time>2019-06-22T19:36:53Z</time>
      </trkpt>
      <trkpt lat="39.718288" lon="-6.449148">
        <ele>256.720</ele>
        <time>2019-06-22T19:36:54Z</time>
      </trkpt>
      <trkpt lat="39.718093" lon="-6.449237">
        <ele>256.739</ele>
        <time>2019-06-22T19:36:55Z</time>
      </trkpt>
      <trkpt lat="39.717889" lon="-6.449326">
        <ele>256.794</ele>
        <time>2019-06-22T19:36:56Z</time>
      </trkpt>
      <trkpt lat="39.717685" lon="-6.449432">
        <ele>256.787</ele>
        <time>2019-06-22T19:36:57Z</time>
      </trkpt>
      <trkpt lat="39.717472" lon="-6.449524">
        <ele>256.727</ele>
        <time>2019-06-22T19:36:58Z</time>
      </trkpt>
      <trkpt lat="39.717261" lon="-6.449615">
        <ele>256.768</ele>
        <time>2019-06-22T19:36:59Z</time>
      </trkpt>
      <trkpt lat="39.717042" lon="-6.449725">
        <ele>256.714</ele>
        <time>2019-06-22T19:37:00Z</time>
      </trkpt>
      <trkpt lat="39.716824" lon="-6.449827">
        <ele>256.708</ele>
        <time>2019-06-22T19:37:01Z</time>
      </trkpt>
      <trkpt lat="39.716628" lon="-6.449917">
        <ele>256.115</ele>
        <time>2019-06-22T19:37:02Z</time>
      </trkpt>
      <trkpt lat="39.716418" lon="-6.450013">
        <ele>254.629</ele>
        <time>2019-06-22T19:37:03Z</time>
      </trkpt>
      <trkpt lat="39.716207" lon="-6.450107">
        <ele>253.361</ele>
        <time>2019-06-22T19:37:04Z</time>
      </trkpt>
      <trkpt lat="39.716005" lon="-6.450204">
        <ele>252.473</ele>
        <time>2019-06-22T19:37:05Z</time>
      </trkpt>
      <trkpt lat="39.715810" lon="-6.450291">
        <ele>251.431</ele>
        <time>2019-06-22T19:37:06Z</time>
      </trkpt>
      <trkpt lat="39.715619" lon="-6.450370">
        <ele>251.420</ele>
        <time>2019-06-22T19:37:07Z</time>
      </trkpt>
      <trkpt lat="39.715451" lon="-6.450448">
        <ele>251.455</ele>
        <time>2019-06-22T19:37:08Z</time>
      </trkpt>
      <trkpt lat="39.715298" lon="-6.450550">
        <ele>251.958</ele>
        <time>2019-06-22T19:37:09Z</time>
      </trkpt>
      <trkpt lat="39.715145" lon="-6.450678">
        <ele>252.267</ele>
        <time>2019-06-22T19:37:10Z</time>
      </trkpt>
      <trkpt lat="39.715021" lon="-6.450834">
        <ele>252.681</ele>
        <time>2019-06-22T19:37:11Z</time>
      </trkpt>
      <trkpt lat="39.714915" lon="-6.451023">
        <ele>253.019</ele>
        <time>2019-06-22T19:37:12Z</time>
      </trkpt>
      <trkpt lat="39.714818" lon="-6.451230">
        <ele>253.508</ele>
        <time>2019-06-22T19:37:13Z</time>
      </trkpt>
      <trkpt lat="39.714731" lon="-6.451445">
        <ele>254.549</ele>
        <time>2019-06-22T19:37:14Z</time>
      </trkpt>
      <trkpt lat="39.714647" lon="-6.451657">
        <ele>255.593</ele>
        <time>2019-06-22T19:37:15Z</time>
      </trkpt>
      <trkpt lat="39.714544" lon="-6.451857">
        <ele>256.315</ele>
        <time>2019-06-22T19:37:16Z</time>
      </trkpt>
      <trkpt lat="39.714427" lon="-6.452044">
        <ele>257.647</ele>
        <time>2019-06-22T19:37:17Z</time>
      </trkpt>
      <trkpt lat="39.714287" lon="-6.452201">
        <ele>258.775</ele>
        <time>2019-06-22T19:37:18Z</time>
      </trkpt>
      <trkpt lat="39.714146" lon="-6.452350">
        <ele>259.674</ele>
        <time>2019-06-22T19:37:19Z</time>
      </trkpt>
      <trkpt lat="39.713969" lon="-6.452469">
        <ele>260.389</ele>
        <time>2019-06-22T19:37:20Z</time>
      </trkpt>
      <trkpt lat="39.713782" lon="-6.452562">
        <ele>261.282</ele>
        <time>2019-06-22T19:37:21Z</time>
      </trkpt>
      <trkpt lat="39.713591" lon="-6.452641">
        <ele>261.547</ele>
        <time>2019-06-22T19:37:22Z</time>
      </trkpt>
      <trkpt lat="39.713392" lon="-6.452652">
        <ele>261.929</ele>
        <time>2019-06-22T19:37:23Z</time>
      </trkpt>
      <trkpt lat="39.713203" lon="-6.452699">
        <ele>262.421</ele>
        <time>2019-06-22T19:37:24Z</time>
      </trkpt>
      <trkpt lat="39.713016" lon="-6.452743">
        <ele>262.808</ele>
        <time>2019-06-22T19:37:25Z</time>
      </trkpt>
      <trkpt lat="39.712824" lon="-6.452806">
        <ele>263.047</ele>
        <time>2019-06-22T19:37:26Z</time>
      </trkpt>
      <trkpt lat="39.712664" lon="-6.452899">
        <ele>263.361</ele>
        <time>2019-06-22T19:37:27Z</time>
      </trkpt>
      <trkpt lat="39.712499" lon="-6.453042">
        <ele>263.623</ele>
        <time>2019-06-22T19:37:28Z</time>
      </trkpt>
      <trkpt lat="39.712357" lon="-6.453204">
        <ele>263.715</ele>
        <time>2019-06-22T19:37:29Z</time>
      </trkpt>
      <trkpt lat="39.712223" lon="-6.453385">
        <ele>263.873</ele>
        <time>2019-06-22T19:37:30Z</time>
      </trkpt>
      <trkpt lat="39.712083" lon="-6.453579">
        <ele>264.072</ele>
        <time>2019-06-22T19:37:31Z</time>
      </trkpt>
      <trkpt lat="39.711948" lon="-6.453780">
        <ele>264.497</ele>
        <time>2019-06-22T19:37:32Z</time>
      </trkpt>
      <trkpt lat="39.711821" lon="-6.453971">
        <ele>265.420</ele>
        <time>2019-06-22T19:37:33Z</time>
      </trkpt>
      <trkpt lat="39.711686" lon="-6.454152">
        <ele>266.547</ele>
        <time>2019-06-22T19:37:34Z</time>
      </trkpt>
      <trkpt lat="39.711545" lon="-6.454333">
        <ele>267.529</ele>
        <time>2019-06-22T19:37:35Z</time>
      </trkpt>
      <trkpt lat="39.711387" lon="-6.454513">
        <ele>268.721</ele>
        <time>2019-06-22T19:37:36Z</time>
      </trkpt>
      <trkpt lat="39.711214" lon="-6.454653">
        <ele>269.808</ele>
        <time>2019-06-22T19:37:37Z</time>
      </trkpt>
      <trkpt lat="39.711032" lon="-6.454784">
        <ele>270.317</ele>
        <time>2019-06-22T19:37:38Z</time>
      </trkpt>
      <trkpt lat="39.710851" lon="-6.454912">
        <ele>270.841</ele>
        <time>2019-06-22T19:37:39Z</time>
      </trkpt>
      <trkpt lat="39.710673" lon="-6.455040">
        <ele>270.913</ele>
        <time>2019-06-22T19:37:40Z</time>
      </trkpt>
      <trkpt lat="39.710489" lon="-6.455174">
        <ele>270.985</ele>
        <time>2019-06-22T19:37:41Z</time>
      </trkpt>
      <trkpt lat="39.710305" lon="-6.455314">
        <ele>270.963</ele>
        <time>2019-06-22T19:37:42Z</time>
      </trkpt>
      <trkpt lat="39.710113" lon="-6.455455">
        <ele>271.292</ele>
        <time>2019-06-22T19:37:43Z</time>
      </trkpt>
      <trkpt lat="39.709918" lon="-6.455605">
        <ele>271.827</ele>
        <time>2019-06-22T19:37:44Z</time>
      </trkpt>
      <trkpt lat="39.709723" lon="-6.455740">
        <ele>272.550</ele>
        <time>2019-06-22T19:37:45Z</time>
      </trkpt>
      <trkpt lat="39.709524" lon="-6.455878">
        <ele>274.356</ele>
        <time>2019-06-22T19:37:46Z</time>
      </trkpt>
      <trkpt lat="39.709322" lon="-6.456021">
        <ele>275.459</ele>
        <time>2019-06-22T19:37:47Z</time>
      </trkpt>
      <trkpt lat="39.709123" lon="-6.456170">
        <ele>275.714</ele>
        <time>2019-06-22T19:37:48Z</time>
      </trkpt>
      <trkpt lat="39.708931" lon="-6.456314">
        <ele>276.308</ele>
        <time>2019-06-22T19:37:49Z</time>
      </trkpt>
      <trkpt lat="39.708707" lon="-6.456481">
        <ele>276.338</ele>
        <time>2019-06-22T19:37:50Z</time>
      </trkpt>
      <trkpt lat="39.708516" lon="-6.456628">
        <ele>276.372</ele>
        <time>2019-06-22T19:37:51Z</time>
      </trkpt>
      <trkpt lat="39.708354" lon="-6.456724">
        <ele>276.954</ele>
        <time>2019-06-22T19:37:52Z</time>
      </trkpt>
      <trkpt lat="39.708218" lon="-6.456804">
        <ele>277.836</ele>
        <time>2019-06-22T19:37:53Z</time>
      </trkpt>
      <trkpt lat="39.708056" lon="-6.456843">
        <ele>278.774</ele>
        <time>2019-06-22T19:37:54Z</time>
      </trkpt>
      <trkpt lat="39.707886" lon="-6.456859">
        <ele>280.093</ele>
        <time>2019-06-22T19:37:55Z</time>
      </trkpt>
      <trkpt lat="39.707704" lon="-6.456850">
        <ele>281.348</ele>
        <time>2019-06-22T19:37:56Z</time>
      </trkpt>
      <trkpt lat="39.707517" lon="-6.456824">
        <ele>282.361</ele>
        <time>2019-06-22T19:37:57Z</time>
      </trkpt>
      <trkpt lat="39.707324" lon="-6.456779">
        <ele>283.067</ele>
        <time>2019-06-22T19:37:58Z</time>
      </trkpt>
      <trkpt lat="39.707129" lon="-6.456743">
        <ele>283.081</ele>
        <time>2019-06-22T19:37:59Z</time>
      </trkpt>
      <trkpt lat="39.706929" lon="-6.456702">
        <ele>282.819</ele>
        <time>2019-06-22T19:38:00Z</time>
      </trkpt>
      <trkpt lat="39.706719" lon="-6.456670">
        <ele>282.508</ele>
        <time>2019-06-22T19:38:01Z</time>
      </trkpt>
      <trkpt lat="39.706506" lon="-6.456637">
        <ele>282.519</ele>
        <time>2019-06-22T19:38:02Z</time>
      </trkpt>
      <trkpt lat="39.706286" lon="-6.456611">
        <ele>282.523</ele>
        <time>2019-06-22T19:38:03Z</time>
      </trkpt>
      <trkpt lat="39.706063" lon="-6.456607">
        <ele>282.315</ele>
        <time>2019-06-22T19:38:04Z</time>
      </trkpt>
      <trkpt lat="39.705833" lon="-6.456619">
        <ele>281.937</ele>
        <time>2019-06-22T19:38:05Z</time>
      </trkpt>
      <trkpt lat="39.705595" lon="-6.456644">
        <ele>281.385</ele>
        <time>2019-06-22T19:38:06Z</time>
      </trkpt>
      <trkpt lat="39.705358" lon="-6.456660">
        <ele>280.654</ele>
        <time>2019-06-22T19:38:07Z</time>
      </trkpt>
      <trkpt lat="39.705121" lon="-6.456682">
        <ele>280.019</ele>
        <time>2019-06-22T19:38:08Z</time>
      </trkpt>
      <trkpt lat="39.704880" lon="-6.456709">
        <ele>279.622</ele>
        <time>2019-06-22T19:38:09Z</time>
      </trkpt>
      <trkpt lat="39.704636" lon="-6.456736">
        <ele>279.525</ele>
        <time>2019-06-22T19:38:10Z</time>
      </trkpt>
      <trkpt lat="39.704397" lon="-6.456762">
        <ele>279.626</ele>
        <time>2019-06-22T19:38:11Z</time>
      </trkpt>
      <trkpt lat="39.704165" lon="-6.456787">
        <ele>279.608</ele>
        <time>2019-06-22T19:38:12Z</time>
      </trkpt>
      <trkpt lat="39.703939" lon="-6.456809">
        <ele>279.708</ele>
        <time>2019-06-22T19:38:13Z</time>
      </trkpt>
      <trkpt lat="39.703723" lon="-6.456831">
        <ele>279.725</ele>
        <time>2019-06-22T19:38:14Z</time>
      </trkpt>
      <trkpt lat="39.703506" lon="-6.456856">
        <ele>279.739</ele>
        <time>2019-06-22T19:38:15Z</time>
      </trkpt>
      <trkpt lat="39.703300" lon="-6.456880">
        <ele>280.151</ele>
        <time>2019-06-22T19:38:16Z</time>
      </trkpt>
      <trkpt lat="39.703086" lon="-6.456901">
        <ele>280.123</ele>
        <time>2019-06-22T19:38:17Z</time>
      </trkpt>
      <trkpt lat="39.702869" lon="-6.456924">
        <ele>280.021</ele>
        <time>2019-06-22T19:38:18Z</time>
      </trkpt>
      <trkpt lat="39.702660" lon="-6.456946">
        <ele>279.850</ele>
        <time>2019-06-22T19:38:19Z</time>
      </trkpt>
      <trkpt lat="39.702453" lon="-6.456974">
        <ele>279.345</ele>
        <time>2019-06-22T19:38:20Z</time>
      </trkpt>
      <trkpt lat="39.702255" lon="-6.456996">
        <ele>278.378</ele>
        <time>2019-06-22T19:38:21Z</time>
      </trkpt>
      <trkpt lat="39.702053" lon="-6.457014">
        <ele>277.887</ele>
        <time>2019-06-22T19:38:22Z</time>
      </trkpt>
      <trkpt lat="39.701847" lon="-6.457038">
        <ele>277.242</ele>
        <time>2019-06-22T19:38:23Z</time>
      </trkpt>
      <trkpt lat="39.701648" lon="-6.457065">
        <ele>277.226</ele>
        <time>2019-06-22T19:38:24Z</time>
      </trkpt>
      <trkpt lat="39.701454" lon="-6.457132">
        <ele>276.808</ele>
        <time>2019-06-22T19:38:25Z</time>
      </trkpt>
      <trkpt lat="39.701282" lon="-6.457215">
        <ele>276.471</ele>
        <time>2019-06-22T19:38:26Z</time>
      </trkpt>
      <trkpt lat="39.701124" lon="-6.457339">
        <ele>275.735</ele>
        <time>2019-06-22T19:38:27Z</time>
      </trkpt>
      <trkpt lat="39.700977" lon="-6.457502">
        <ele>274.487</ele>
        <time>2019-06-22T19:38:28Z</time>
      </trkpt>
      <trkpt lat="39.700865" lon="-6.457693">
        <ele>273.279</ele>
        <time>2019-06-22T19:38:29Z</time>
      </trkpt>
      <trkpt lat="39.700773" lon="-6.457908">
        <ele>273.257</ele>
        <time>2019-06-22T19:38:30Z</time>
      </trkpt>
      <trkpt lat="39.700701" lon="-6.458143">
        <ele>273.656</ele>
        <time>2019-06-22T19:38:31Z</time>
      </trkpt>
      <trkpt lat="39.700620" lon="-6.458393">
        <ele>274.441</ele>
        <time>2019-06-22T19:38:32Z</time>
      </trkpt>
      <trkpt lat="39.700549" lon="-6.458644">
        <ele>276.234</ele>
        <time>2019-06-22T19:38:33Z</time>
      </trkpt>
      <trkpt lat="39.700479" lon="-6.458891">
        <ele>278.278</ele>
        <time>2019-06-22T19:38:34Z</time>
      </trkpt>
      <trkpt lat="39.700412" lon="-6.459142">
        <ele>278.733</ele>
        <time>2019-06-22T19:38:35Z</time>
      </trkpt>
      <trkpt lat="39.700348" lon="-6.459371">
        <ele>278.726</ele>
        <time>2019-06-22T19:38:36Z</time>
      </trkpt>
      <trkpt lat="39.700292" lon="-6.459612">
        <ele>278.308</ele>
        <time>2019-06-22T19:38:37Z</time>
      </trkpt>
      <trkpt lat="39.700231" lon="-6.459836">
        <ele>277.120</ele>
        <time>2019-06-22T19:38:38Z</time>
      </trkpt>
      <trkpt lat="39.700169" lon="-6.460046">
        <ele>275.884</ele>
        <time>2019-06-22T19:38:39Z</time>
      </trkpt>
      <trkpt lat="39.700095" lon="-6.460256">
        <ele>275.196</ele>
        <time>2019-06-22T19:38:40Z</time>
      </trkpt>
      <trkpt lat="39.700011" lon="-6.460468">
        <ele>273.678</ele>
        <time>2019-06-22T19:38:41Z</time>
      </trkpt>
      <trkpt lat="39.699909" lon="-6.460682">
        <ele>273.076</ele>
        <time>2019-06-22T19:38:42Z</time>
      </trkpt>
      <trkpt lat="39.699811" lon="-6.460868">
        <ele>272.845</ele>
        <time>2019-06-22T19:38:43Z</time>
      </trkpt>
      <trkpt lat="39.699700" lon="-6.461097">
        <ele>271.950</ele>
        <time>2019-06-22T19:38:44Z</time>
      </trkpt>
      <trkpt lat="39.699597" lon="-6.461283">
        <ele>271.753</ele>
        <time>2019-06-22T19:38:45Z</time>
      </trkpt>
      <trkpt lat="39.699489" lon="-6.461478">
        <ele>271.635</ele>
        <time>2019-06-22T19:38:46Z</time>
      </trkpt>
      <trkpt lat="39.699383" lon="-6.461671">
        <ele>271.786</ele>
        <time>2019-06-22T19:38:47Z</time>
      </trkpt>
      <trkpt lat="39.699274" lon="-6.461881">
        <ele>271.714</ele>
        <time>2019-06-22T19:38:48Z</time>
      </trkpt>
      <trkpt lat="39.699171" lon="-6.462073">
        <ele>271.708</ele>
        <time>2019-06-22T19:38:49Z</time>
      </trkpt>
      <trkpt lat="39.699040" lon="-6.462281">
        <ele>271.566</ele>
        <time>2019-06-22T19:38:50Z</time>
      </trkpt>
      <trkpt lat="39.698923" lon="-6.462490">
        <ele>270.870</ele>
        <time>2019-06-22T19:38:51Z</time>
      </trkpt>
      <trkpt lat="39.698807" lon="-6.462683">
        <ele>270.522</ele>
        <time>2019-06-22T19:38:52Z</time>
      </trkpt>
      <trkpt lat="39.698671" lon="-6.462859">
        <ele>269.844</ele>
        <time>2019-06-22T19:38:53Z</time>
      </trkpt>
      <trkpt lat="39.698534" lon="-6.463031">
        <ele>269.112</ele>
        <time>2019-06-22T19:38:54Z</time>
      </trkpt>
      <trkpt lat="39.698378" lon="-6.463179">
        <ele>268.471</ele>
        <time>2019-06-22T19:38:55Z</time>
      </trkpt>
      <trkpt lat="39.698189" lon="-6.463272">
        <ele>267.836</ele>
        <time>2019-06-22T19:38:56Z</time>
      </trkpt>
      <trkpt lat="39.697971" lon="-6.463267">
        <ele>267.239</ele>
        <time>2019-06-22T19:38:57Z</time>
      </trkpt>
      <trkpt lat="39.697761" lon="-6.463305">
        <ele>266.742</ele>
        <time>2019-06-22T19:38:58Z</time>
      </trkpt>
      <trkpt lat="39.697552" lon="-6.463340">
        <ele>266.122</ele>
        <time>2019-06-22T19:38:59Z</time>
      </trkpt>
      <trkpt lat="39.697340" lon="-6.463374">
        <ele>264.914</ele>
        <time>2019-06-22T19:39:00Z</time>
      </trkpt>
      <trkpt lat="39.697138" lon="-6.463411">
        <ele>263.508</ele>
        <time>2019-06-22T19:39:01Z</time>
      </trkpt>
      <trkpt lat="39.696943" lon="-6.463459">
        <ele>262.057</ele>
        <time>2019-06-22T19:39:02Z</time>
      </trkpt>
      <trkpt lat="39.696744" lon="-6.463515">
        <ele>260.171</ele>
        <time>2019-06-22T19:39:03Z</time>
      </trkpt>
      <trkpt lat="39.696554" lon="-6.463603">
        <ele>258.353</ele>
        <time>2019-06-22T19:39:04Z</time>
      </trkpt>
      <trkpt lat="39.696392" lon="-6.463708">
        <ele>257.215</ele>
        <time>2019-06-22T19:39:05Z</time>
      </trkpt>
      <trkpt lat="39.696241" lon="-6.463864">
        <ele>256.183</ele>
        <time>2019-06-22T19:39:06Z</time>
      </trkpt>
      <trkpt lat="39.696118" lon="-6.464027">
        <ele>255.492</ele>
        <time>2019-06-22T19:39:07Z</time>
      </trkpt>
      <trkpt lat="39.695985" lon="-6.464187">
        <ele>254.757</ele>
        <time>2019-06-22T19:39:08Z</time>
      </trkpt>
      <trkpt lat="39.695899" lon="-6.464314">
        <ele>254.550</ele>
        <time>2019-06-22T19:39:09Z</time>
      </trkpt>
      <trkpt lat="39.695809" lon="-6.464424">
        <ele>254.226</ele>
        <time>2019-06-22T19:39:10Z</time>
      </trkpt>
      <trkpt lat="39.695747" lon="-6.464496">
        <ele>254.247</ele>
        <time>2019-06-22T19:39:11Z</time>
      </trkpt>
      <trkpt lat="39.695683" lon="-6.464573">
        <ele>254.311</ele>
        <time>2019-06-22T19:39:12Z</time>
      </trkpt>
      <trkpt lat="39.695634" lon="-6.464606">
        <ele>256.408</ele>
        <time>2019-06-22T19:39:14Z</time>
      </trkpt>
      <trkpt lat="39.695576" lon="-6.464645">
        <ele>257.585</ele>
        <time>2019-06-22T19:39:15Z</time>
      </trkpt>
      <trkpt lat="39.695507" lon="-6.464677">
        <ele>258.539</ele>
        <time>2019-06-22T19:39:16Z</time>
      </trkpt>
      <trkpt lat="39.695417" lon="-6.464730">
        <ele>258.541</ele>
        <time>2019-06-22T19:39:17Z</time>
      </trkpt>
      <trkpt lat="39.695300" lon="-6.464777">
        <ele>258.583</ele>
        <time>2019-06-22T19:39:18Z</time>
      </trkpt>
      <trkpt lat="39.695163" lon="-6.464821">
        <ele>258.391</ele>
        <time>2019-06-22T19:39:19Z</time>
      </trkpt>
      <trkpt lat="39.695016" lon="-6.464848">
        <ele>258.320</ele>
        <time>2019-06-22T19:39:20Z</time>
      </trkpt>
      <trkpt lat="39.694861" lon="-6.464846">
        <ele>258.095</ele>
        <time>2019-06-22T19:39:21Z</time>
      </trkpt>
      <trkpt lat="39.694703" lon="-6.464838">
        <ele>257.568</ele>
        <time>2019-06-22T19:39:22Z</time>
      </trkpt>
      <trkpt lat="39.694533" lon="-6.464782">
        <ele>257.062</ele>
        <time>2019-06-22T19:39:23Z</time>
      </trkpt>
      <trkpt lat="39.694346" lon="-6.464671">
        <ele>256.683</ele>
        <time>2019-06-22T19:39:24Z</time>
      </trkpt>
      <trkpt lat="39.694171" lon="-6.464572">
        <ele>256.111</ele>
        <time>2019-06-22T19:39:25Z</time>
      </trkpt>
      <trkpt lat="39.693987" lon="-6.464475">
        <ele>255.308</ele>
        <time>2019-06-22T19:39:26Z</time>
      </trkpt>
      <trkpt lat="39.693811" lon="-6.464379">
        <ele>254.619</ele>
        <time>2019-06-22T19:39:27Z</time>
      </trkpt>
      <trkpt lat="39.693631" lon="-6.464277">
        <ele>254.113</ele>
        <time>2019-06-22T19:39:28Z</time>
      </trkpt>
      <trkpt lat="39.693446" lon="-6.464176">
        <ele>253.985</ele>
        <time>2019-06-22T19:39:29Z</time>
      </trkpt>
      <trkpt lat="39.693269" lon="-6.464091">
        <ele>253.237</ele>
        <time>2019-06-22T19:39:30Z</time>
      </trkpt>
      <trkpt lat="39.693094" lon="-6.464012">
        <ele>252.365</ele>
        <time>2019-06-22T19:39:31Z</time>
      </trkpt>
      <trkpt lat="39.692923" lon="-6.463941">
        <ele>251.754</ele>
        <time>2019-06-22T19:39:32Z</time>
      </trkpt>
      <trkpt lat="39.692755" lon="-6.463885">
        <ele>251.369</ele>
        <time>2019-06-22T19:39:33Z</time>
      </trkpt>
      <trkpt lat="39.692597" lon="-6.463854">
        <ele>251.322</ele>
        <time>2019-06-22T19:39:34Z</time>
      </trkpt>
      <trkpt lat="39.692437" lon="-6.463849">
        <ele>251.695</ele>
        <time>2019-06-22T19:39:35Z</time>
      </trkpt>
      <trkpt lat="39.692284" lon="-6.463870">
        <ele>252.749</ele>
        <time>2019-06-22T19:39:36Z</time>
      </trkpt>
      <trkpt lat="39.692143" lon="-6.463918">
        <ele>253.423</ele>
        <time>2019-06-22T19:39:37Z</time>
      </trkpt>
      <trkpt lat="39.692005" lon="-6.463991">
        <ele>253.608</ele>
        <time>2019-06-22T19:39:38Z</time>
      </trkpt>
      <trkpt lat="39.691892" lon="-6.464067">
        <ele>253.672</ele>
        <time>2019-06-22T19:39:39Z</time>
      </trkpt>
      <trkpt lat="39.691792" lon="-6.464166">
        <ele>253.666</ele>
        <time>2019-06-22T19:39:40Z</time>
      </trkpt>
      <trkpt lat="39.691701" lon="-6.464278">
        <ele>253.688</ele>
        <time>2019-06-22T19:39:41Z</time>
      </trkpt>
      <trkpt lat="39.691620" lon="-6.464416">
        <ele>253.890</ele>
        <time>2019-06-22T19:39:42Z</time>
      </trkpt>
      <trkpt lat="39.691546" lon="-6.464565">
        <ele>254.288</ele>
        <time>2019-06-22T19:39:43Z</time>
      </trkpt>
      <trkpt lat="39.691486" lon="-6.464734">
        <ele>255.057</ele>
        <time>2019-06-22T19:39:44Z</time>
      </trkpt>
      <trkpt lat="39.691422" lon="-6.464916">
        <ele>255.422</ele>
        <time>2019-06-22T19:39:45Z</time>
      </trkpt>
      <trkpt lat="39.691359" lon="-6.465086">
        <ele>255.515</ele>
        <time>2019-06-22T19:39:46Z</time>
      </trkpt>
      <trkpt lat="39.691300" lon="-6.465264">
        <ele>255.577</ele>
        <time>2019-06-22T19:39:47Z</time>
      </trkpt>
      <trkpt lat="39.691234" lon="-6.465441">
        <ele>255.361</ele>
        <time>2019-06-22T19:39:48Z</time>
      </trkpt>
      <trkpt lat="39.691172" lon="-6.465619">
        <ele>255.327</ele>
        <time>2019-06-22T19:39:49Z</time>
      </trkpt>
      <trkpt lat="39.691103" lon="-6.465801">
        <ele>255.708</ele>
        <time>2019-06-22T19:39:50Z</time>
      </trkpt>
      <trkpt lat="39.691039" lon="-6.465990">
        <ele>256.170</ele>
        <time>2019-06-22T19:39:51Z</time>
      </trkpt>
      <trkpt lat="39.690967" lon="-6.466180">
        <ele>256.774</ele>
        <time>2019-06-22T19:39:52Z</time>
      </trkpt>
      <trkpt lat="39.690893" lon="-6.466368">
        <ele>257.586</ele>
        <time>2019-06-22T19:39:53Z</time>
      </trkpt>
      <trkpt lat="39.690827" lon="-6.466554">
        <ele>257.558</ele>
        <time>2019-06-22T19:39:54Z</time>
      </trkpt>
      <trkpt lat="39.690758" lon="-6.466748">
        <ele>257.566</ele>
        <time>2019-06-22T19:39:55Z</time>
      </trkpt>
      <trkpt lat="39.690685" lon="-6.466950">
        <ele>257.355</ele>
        <time>2019-06-22T19:39:56Z</time>
      </trkpt>
      <trkpt lat="39.690608" lon="-6.467148">
        <ele>257.280</ele>
        <time>2019-06-22T19:39:57Z</time>
      </trkpt>
      <trkpt lat="39.690527" lon="-6.467369">
        <ele>256.923</ele>
        <time>2019-06-22T19:39:58Z</time>
      </trkpt>
      <trkpt lat="39.690449" lon="-6.467591">
        <ele>256.696</ele>
        <time>2019-06-22T19:39:59Z</time>
      </trkpt>
      <trkpt lat="39.690362" lon="-6.467824">
        <ele>256.531</ele>
        <time>2019-06-22T19:40:00Z</time>
      </trkpt>
      <trkpt lat="39.690265" lon="-6.468060">
        <ele>256.424</ele>
        <time>2019-06-22T19:40:01Z</time>
      </trkpt>
      <trkpt lat="39.690175" lon="-6.468291">
        <ele>256.008</ele>
        <time>2019-06-22T19:40:02Z</time>
      </trkpt>
      <trkpt lat="39.690076" lon="-6.468534">
        <ele>255.832</ele>
        <time>2019-06-22T19:40:03Z</time>
      </trkpt>
      <trkpt lat="39.689961" lon="-6.468795">
        <ele>255.576</ele>
        <time>2019-06-22T19:40:04Z</time>
      </trkpt>
      <trkpt lat="39.689869" lon="-6.469053">
        <ele>254.928</ele>
        <time>2019-06-22T19:40:05Z</time>
      </trkpt>
      <trkpt lat="39.689782" lon="-6.469300">
        <ele>254.910</ele>
        <time>2019-06-22T19:40:06Z</time>
      </trkpt>
      <trkpt lat="39.689694" lon="-6.469532">
        <ele>255.788</ele>
        <time>2019-06-22T19:40:07Z</time>
      </trkpt>
      <trkpt lat="39.689598" lon="-6.469750">
        <ele>256.977</ele>
        <time>2019-06-22T19:40:08Z</time>
      </trkpt>
      <trkpt lat="39.689498" lon="-6.469950">
        <ele>258.112</ele>
        <time>2019-06-22T19:40:09Z</time>
      </trkpt>
      <trkpt lat="39.689380" lon="-6.470126">
        <ele>259.855</ele>
        <time>2019-06-22T19:40:10Z</time>
      </trkpt>
      <trkpt lat="39.689262" lon="-6.470289">
        <ele>261.132</ele>
        <time>2019-06-22T19:40:11Z</time>
      </trkpt>
      <trkpt lat="39.689101" lon="-6.470429">
        <ele>262.092</ele>
        <time>2019-06-22T19:40:12Z</time>
      </trkpt>
      <trkpt lat="39.688909" lon="-6.470479">
        <ele>262.511</ele>
        <time>2019-06-22T19:40:13Z</time>
      </trkpt>
      <trkpt lat="39.688717" lon="-6.470546">
        <ele>263.208</ele>
        <time>2019-06-22T19:40:14Z</time>
      </trkpt>
      <trkpt lat="39.688522" lon="-6.470596">
        <ele>263.636</ele>
        <time>2019-06-22T19:40:15Z</time>
      </trkpt>
      <trkpt lat="39.688320" lon="-6.470643">
        <ele>263.980</ele>
        <time>2019-06-22T19:40:16Z</time>
      </trkpt>
      <trkpt lat="39.688112" lon="-6.470711">
        <ele>263.992</ele>
        <time>2019-06-22T19:40:17Z</time>
      </trkpt>
      <trkpt lat="39.687918" lon="-6.470790">
        <ele>263.994</ele>
        <time>2019-06-22T19:40:18Z</time>
      </trkpt>
      <trkpt lat="39.687745" lon="-6.470923">
        <ele>264.222</ele>
        <time>2019-06-22T19:40:19Z</time>
      </trkpt>
      <trkpt lat="39.687577" lon="-6.471053">
        <ele>264.611</ele>
        <time>2019-06-22T19:40:20Z</time>
      </trkpt>
      <trkpt lat="39.687411" lon="-6.471215">
        <ele>265.556</ele>
        <time>2019-06-22T19:40:21Z</time>
      </trkpt>
      <trkpt lat="39.687249" lon="-6.471362">
        <ele>267.149</ele>
        <time>2019-06-22T19:40:22Z</time>
      </trkpt>
      <trkpt lat="39.687079" lon="-6.471487">
        <ele>268.568</ele>
        <time>2019-06-22T19:40:23Z</time>
      </trkpt>
      <trkpt lat="39.686908" lon="-6.471577">
        <ele>269.642</ele>
        <time>2019-06-22T19:40:24Z</time>
      </trkpt>
      <trkpt lat="39.686728" lon="-6.471624">
        <ele>269.626</ele>
        <time>2019-06-22T19:40:25Z</time>
      </trkpt>
      <trkpt lat="39.686542" lon="-6.471631">
        <ele>270.708</ele>
        <time>2019-06-22T19:40:26Z</time>
      </trkpt>
      <trkpt lat="39.686351" lon="-6.471585">
        <ele>271.869</ele>
        <time>2019-06-22T19:40:27Z</time>
      </trkpt>
      <trkpt lat="39.686166" lon="-6.471518">
        <ele>272.573</ele>
        <time>2019-06-22T19:40:28Z</time>
      </trkpt>
      <trkpt lat="39.685987" lon="-6.471447">
        <ele>273.635</ele>
        <time>2019-06-22T19:40:29Z</time>
      </trkpt>
      <trkpt lat="39.685813" lon="-6.471332">
        <ele>274.877</ele>
        <time>2019-06-22T19:40:30Z</time>
      </trkpt>
      <trkpt lat="39.685638" lon="-6.471245">
        <ele>275.775</ele>
        <time>2019-06-22T19:40:31Z</time>
      </trkpt>
      <trkpt lat="39.685455" lon="-6.471176">
        <ele>275.744</ele>
        <time>2019-06-22T19:40:32Z</time>
      </trkpt>
      <trkpt lat="39.685263" lon="-6.471141">
        <ele>275.319</ele>
        <time>2019-06-22T19:40:33Z</time>
      </trkpt>
      <trkpt lat="39.685083" lon="-6.471147">
        <ele>275.142</ele>
        <time>2019-06-22T19:40:34Z</time>
      </trkpt>
      <trkpt lat="39.684896" lon="-6.471212">
        <ele>274.884</ele>
        <time>2019-06-22T19:40:35Z</time>
      </trkpt>
      <trkpt lat="39.684718" lon="-6.471311">
        <ele>274.807</ele>
        <time>2019-06-22T19:40:36Z</time>
      </trkpt>
      <trkpt lat="39.684552" lon="-6.471442">
        <ele>275.217</ele>
        <time>2019-06-22T19:40:37Z</time>
      </trkpt>
      <trkpt lat="39.684410" lon="-6.471614">
        <ele>275.508</ele>
        <time>2019-06-22T19:40:38Z</time>
      </trkpt>
      <trkpt lat="39.684298" lon="-6.471810">
        <ele>276.161</ele>
        <time>2019-06-22T19:40:39Z</time>
      </trkpt>
      <trkpt lat="39.684184" lon="-6.472009">
        <ele>276.685</ele>
        <time>2019-06-22T19:40:40Z</time>
      </trkpt>
      <trkpt lat="39.684082" lon="-6.472244">
        <ele>277.427</ele>
        <time>2019-06-22T19:40:41Z</time>
      </trkpt>
      <trkpt lat="39.684068" lon="-6.472473">
        <ele>278.799</ele>
        <time>2019-06-22T19:40:42Z</time>
      </trkpt>
      <trkpt lat="39.684015" lon="-6.472703">
        <ele>281.547</ele>
        <time>2019-06-22T19:40:43Z</time>
      </trkpt>
      <trkpt lat="39.683961" lon="-6.472924">
        <ele>283.526</ele>
        <time>2019-06-22T19:40:44Z</time>
      </trkpt>
      <trkpt lat="39.683896" lon="-6.473129">
        <ele>285.921</ele>
        <time>2019-06-22T19:40:45Z</time>
      </trkpt>
      <trkpt lat="39.683813" lon="-6.473293">
        <ele>287.644</ele>
        <time>2019-06-22T19:40:46Z</time>
      </trkpt>
      <trkpt lat="39.683707" lon="-6.473454">
        <ele>288.922</ele>
        <time>2019-06-22T19:40:47Z</time>
      </trkpt>
      <trkpt lat="39.683575" lon="-6.473592">
        <ele>289.662</ele>
        <time>2019-06-22T19:40:48Z</time>
      </trkpt>
      <trkpt lat="39.683424" lon="-6.473701">
        <ele>290.008</ele>
        <time>2019-06-22T19:40:49Z</time>
      </trkpt>
      <trkpt lat="39.683268" lon="-6.473811">
        <ele>290.008</ele>
        <time>2019-06-22T19:40:50Z</time>
      </trkpt>
      <trkpt lat="39.683093" lon="-6.473879">
        <ele>290.135</ele>
        <time>2019-06-22T19:40:51Z</time>
      </trkpt>
      <trkpt lat="39.682883" lon="-6.473887">
        <ele>290.159</ele>
        <time>2019-06-22T19:40:52Z</time>
      </trkpt>
      <trkpt lat="39.682677" lon="-6.473916">
        <ele>289.741</ele>
        <time>2019-06-22T19:40:53Z</time>
      </trkpt>
      <trkpt lat="39.682477" lon="-6.473932">
        <ele>289.233</ele>
        <time>2019-06-22T19:40:54Z</time>
      </trkpt>
      <trkpt lat="39.682270" lon="-6.473951">
        <ele>289.091</ele>
        <time>2019-06-22T19:40:55Z</time>
      </trkpt>
      <trkpt lat="39.682067" lon="-6.474000">
        <ele>288.180</ele>
        <time>2019-06-22T19:40:56Z</time>
      </trkpt>
      <trkpt lat="39.681864" lon="-6.474090">
        <ele>286.445</ele>
        <time>2019-06-22T19:40:57Z</time>
      </trkpt>
      <trkpt lat="39.681683" lon="-6.474181">
        <ele>284.788</ele>
        <time>2019-06-22T19:40:58Z</time>
      </trkpt>
      <trkpt lat="39.681520" lon="-6.474318">
        <ele>283.843</ele>
        <time>2019-06-22T19:40:59Z</time>
      </trkpt>
      <trkpt lat="39.681374" lon="-6.474446">
        <ele>283.364</ele>
        <time>2019-06-22T19:41:00Z</time>
      </trkpt>
      <trkpt lat="39.681235" lon="-6.474541">
        <ele>283.310</ele>
        <time>2019-06-22T19:41:01Z</time>
      </trkpt>
      <trkpt lat="39.681073" lon="-6.474638">
        <ele>285.008</ele>
        <time>2019-06-22T19:41:02Z</time>
      </trkpt>
      <trkpt lat="39.680904" lon="-6.474707">
        <ele>287.457</ele>
        <time>2019-06-22T19:41:03Z</time>
      </trkpt>
      <trkpt lat="39.680723" lon="-6.474757">
        <ele>289.791</ele>
        <time>2019-06-22T19:41:04Z</time>
      </trkpt>
      <trkpt lat="39.680540" lon="-6.474785">
        <ele>291.093</ele>
        <time>2019-06-22T19:41:05Z</time>
      </trkpt>
      <trkpt lat="39.680352" lon="-6.474811">
        <ele>292.325</ele>
        <time>2019-06-22T19:41:06Z</time>
      </trkpt>
      <trkpt lat="39.680161" lon="-6.474837">
        <ele>292.783</ele>
        <time>2019-06-22T19:41:07Z</time>
      </trkpt>
      <trkpt lat="39.679959" lon="-6.474878">
        <ele>293.122</ele>
        <time>2019-06-22T19:41:08Z</time>
      </trkpt>
      <trkpt lat="39.679757" lon="-6.474909">
        <ele>293.437</ele>
        <time>2019-06-22T19:41:09Z</time>
      </trkpt>
      <trkpt lat="39.679567" lon="-6.474929">
        <ele>293.470</ele>
        <time>2019-06-22T19:41:10Z</time>
      </trkpt>
      <trkpt lat="39.679370" lon="-6.474933">
        <ele>294.314</ele>
        <time>2019-06-22T19:41:11Z</time>
      </trkpt>
      <trkpt lat="39.679168" lon="-6.474892">
        <ele>296.154</ele>
        <time>2019-06-22T19:41:12Z</time>
      </trkpt>
      <trkpt lat="39.678976" lon="-6.474847">
        <ele>297.409</ele>
        <time>2019-06-22T19:41:13Z</time>
      </trkpt>
      <trkpt lat="39.678790" lon="-6.474764">
        <ele>299.108</ele>
        <time>2019-06-22T19:41:14Z</time>
      </trkpt>
      <trkpt lat="39.678606" lon="-6.474639">
        <ele>301.294</ele>
        <time>2019-06-22T19:41:15Z</time>
      </trkpt>
      <trkpt lat="39.678436" lon="-6.474501">
        <ele>302.638</ele>
        <time>2019-06-22T19:41:16Z</time>
      </trkpt>
      <trkpt lat="39.678257" lon="-6.474364">
        <ele>303.230</ele>
        <time>2019-06-22T19:41:17Z</time>
      </trkpt>
      <trkpt lat="39.678078" lon="-6.474234">
        <ele>304.262</ele>
        <time>2019-06-22T19:41:18Z</time>
      </trkpt>
      <trkpt lat="39.677899" lon="-6.474113">
        <ele>304.250</ele>
        <time>2019-06-22T19:41:19Z</time>
      </trkpt>
      <trkpt lat="39.677720" lon="-6.474013">
        <ele>304.169</ele>
        <time>2019-06-22T19:41:20Z</time>
      </trkpt>
      <trkpt lat="39.677542" lon="-6.473912">
        <ele>303.734</ele>
        <time>2019-06-22T19:41:21Z</time>
      </trkpt>
      <trkpt lat="39.677357" lon="-6.473907">
        <ele>303.687</ele>
        <time>2019-06-22T19:41:22Z</time>
      </trkpt>
      <trkpt lat="39.677157" lon="-6.473912">
        <ele>303.145</ele>
        <time>2019-06-22T19:41:23Z</time>
      </trkpt>
      <trkpt lat="39.676962" lon="-6.473957">
        <ele>303.147</ele>
        <time>2019-06-22T19:41:24Z</time>
      </trkpt>
      <trkpt lat="39.676751" lon="-6.474020">
        <ele>303.511</ele>
        <time>2019-06-22T19:41:25Z</time>
      </trkpt>
      <trkpt lat="39.676553" lon="-6.474090">
        <ele>305.308</ele>
        <time>2019-06-22T19:41:26Z</time>
      </trkpt>
      <trkpt lat="39.676361" lon="-6.474158">
        <ele>307.797</ele>
        <time>2019-06-22T19:41:27Z</time>
      </trkpt>
      <trkpt lat="39.676175" lon="-6.474207">
        <ele>309.961</ele>
        <time>2019-06-22T19:41:28Z</time>
      </trkpt>
      <trkpt lat="39.675995" lon="-6.474234">
        <ele>312.553</ele>
        <time>2019-06-22T19:41:29Z</time>
      </trkpt>
      <trkpt lat="39.675810" lon="-6.474229">
        <ele>314.635</ele>
        <time>2019-06-22T19:41:30Z</time>
      </trkpt>
      <trkpt lat="39.675628" lon="-6.474183">
        <ele>314.643</ele>
        <time>2019-06-22T19:41:31Z</time>
      </trkpt>
      <trkpt lat="39.675444" lon="-6.474137">
        <ele>316.112</ele>
        <time>2019-06-22T19:41:32Z</time>
      </trkpt>
      <trkpt lat="39.675296" lon="-6.473985">
        <ele>317.127</ele>
        <time>2019-06-22T19:41:33Z</time>
      </trkpt>
      <trkpt lat="39.675154" lon="-6.473831">
        <ele>317.980</ele>
        <time>2019-06-22T19:41:34Z</time>
      </trkpt>
      <trkpt lat="39.675035" lon="-6.473641">
        <ele>318.612</ele>
        <time>2019-06-22T19:41:35Z</time>
      </trkpt>
      <trkpt lat="39.674917" lon="-6.473454">
        <ele>319.232</ele>
        <time>2019-06-22T19:41:36Z</time>
      </trkpt>
      <trkpt lat="39.674837" lon="-6.473221">
        <ele>320.005</ele>
        <time>2019-06-22T19:41:37Z</time>
      </trkpt>
      <trkpt lat="39.674733" lon="-6.472993">
        <ele>320.408</ele>
        <time>2019-06-22T19:41:38Z</time>
      </trkpt>
      <trkpt lat="39.674626" lon="-6.472765">
        <ele>320.484</ele>
        <time>2019-06-22T19:41:39Z</time>
      </trkpt>
      <trkpt lat="39.674508" lon="-6.472546">
        <ele>320.258</ele>
        <time>2019-06-22T19:41:40Z</time>
      </trkpt>
      <trkpt lat="39.674386" lon="-6.472325">
        <ele>320.250</ele>
        <time>2019-06-22T19:41:41Z</time>
      </trkpt>
      <trkpt lat="39.674249" lon="-6.472099">
        <ele>319.732</ele>
        <time>2019-06-22T19:41:42Z</time>
      </trkpt>
      <trkpt lat="39.674042" lon="-6.472009">
        <ele>319.350</ele>
        <time>2019-06-22T19:41:43Z</time>
      </trkpt>
      <trkpt lat="39.673853" lon="-6.471872">
        <ele>319.359</ele>
        <time>2019-06-22T19:41:44Z</time>
      </trkpt>
      <trkpt lat="39.673659" lon="-6.471739">
        <ele>319.574</ele>
        <time>2019-06-22T19:41:45Z</time>
      </trkpt>
      <trkpt lat="39.673462" lon="-6.471602">
        <ele>319.527</ele>
        <time>2019-06-22T19:41:46Z</time>
      </trkpt>
      <trkpt lat="39.673266" lon="-6.471458">
        <ele>320.436</ele>
        <time>2019-06-22T19:41:47Z</time>
      </trkpt>
      <trkpt lat="39.673059" lon="-6.471329">
        <ele>321.217</ele>
        <time>2019-06-22T19:41:48Z</time>
      </trkpt>
      <trkpt lat="39.672870" lon="-6.471203">
        <ele>323.218</ele>
        <time>2019-06-22T19:41:49Z</time>
      </trkpt>
      <trkpt lat="39.672688" lon="-6.471075">
        <ele>325.108</ele>
        <time>2019-06-22T19:41:50Z</time>
      </trkpt>
      <trkpt lat="39.672526" lon="-6.470943">
        <ele>325.616</ele>
        <time>2019-06-22T19:41:51Z</time>
      </trkpt>
      <trkpt lat="39.672356" lon="-6.470826">
        <ele>325.690</ele>
        <time>2019-06-22T19:41:52Z</time>
      </trkpt>
      <trkpt lat="39.672200" lon="-6.470720">
        <ele>325.192</ele>
        <time>2019-06-22T19:41:53Z</time>
      </trkpt>
      <trkpt lat="39.672047" lon="-6.470649">
        <ele>324.224</ele>
        <time>2019-06-22T19:41:54Z</time>
      </trkpt>
      <trkpt lat="39.671886" lon="-6.470601">
        <ele>322.982</ele>
        <time>2019-06-22T19:41:55Z</time>
      </trkpt>
      <trkpt lat="39.671715" lon="-6.470586">
        <ele>322.571</ele>
        <time>2019-06-22T19:41:56Z</time>
      </trkpt>
      <trkpt lat="39.671539" lon="-6.470609">
        <ele>322.596</ele>
        <time>2019-06-22T19:41:57Z</time>
      </trkpt>
      <trkpt lat="39.671369" lon="-6.470675">
        <ele>322.799</ele>
        <time>2019-06-22T19:41:58Z</time>
      </trkpt>
      <trkpt lat="39.671209" lon="-6.470767">
        <ele>322.965</ele>
        <time>2019-06-22T19:41:59Z</time>
      </trkpt>
      <trkpt lat="39.671053" lon="-6.470892">
        <ele>322.968</ele>
        <time>2019-06-22T19:42:00Z</time>
      </trkpt>
      <trkpt lat="39.670893" lon="-6.471032">
        <ele>322.914</ele>
        <time>2019-06-22T19:42:01Z</time>
      </trkpt>
      <trkpt lat="39.670784" lon="-6.471258">
        <ele>322.908</ele>
        <time>2019-06-22T19:42:02Z</time>
      </trkpt>
      <trkpt lat="39.670683" lon="-6.471462">
        <ele>323.429</ele>
        <time>2019-06-22T19:42:03Z</time>
      </trkpt>
      <trkpt lat="39.670591" lon="-6.471667">
        <ele>323.433</ele>
        <time>2019-06-22T19:42:04Z</time>
      </trkpt>
      <trkpt lat="39.670500" lon="-6.471875">
        <ele>323.885</ele>
        <time>2019-06-22T19:42:05Z</time>
      </trkpt>
      <trkpt lat="39.670393" lon="-6.472096">
        <ele>323.847</ele>
        <time>2019-06-22T19:42:06Z</time>
      </trkpt>
      <trkpt lat="39.670294" lon="-6.472315">
        <ele>323.875</ele>
        <time>2019-06-22T19:42:07Z</time>
      </trkpt>
      <trkpt lat="39.670189" lon="-6.472543">
        <ele>323.634</ele>
        <time>2019-06-22T19:42:08Z</time>
      </trkpt>
      <trkpt lat="39.670088" lon="-6.472770">
        <ele>323.659</ele>
        <time>2019-06-22T19:42:09Z</time>
      </trkpt>
      <trkpt lat="39.669970" lon="-6.472983">
        <ele>324.142</ele>
        <time>2019-06-22T19:42:10Z</time>
      </trkpt>
      <trkpt lat="39.669847" lon="-6.473187">
        <ele>324.935</ele>
        <time>2019-06-22T19:42:11Z</time>
      </trkpt>
      <trkpt lat="39.669697" lon="-6.473383">
        <ele>325.586</ele>
        <time>2019-06-22T19:42:12Z</time>
      </trkpt>
      <trkpt lat="39.669543" lon="-6.473576">
        <ele>325.714</ele>
        <time>2019-06-22T19:42:13Z</time>
      </trkpt>
      <trkpt lat="39.669387" lon="-6.473777">
        <ele>326.808</ele>
        <time>2019-06-22T19:42:14Z</time>
      </trkpt>
      <trkpt lat="39.669230" lon="-6.473983">
        <ele>326.986</ele>
        <time>2019-06-22T19:42:15Z</time>
      </trkpt>
      <trkpt lat="39.669069" lon="-6.474194">
        <ele>326.970</ele>
        <time>2019-06-22T19:42:16Z</time>
      </trkpt>
      <trkpt lat="39.668902" lon="-6.474402">
        <ele>326.982</ele>
        <time>2019-06-22T19:42:17Z</time>
      </trkpt>
      <trkpt lat="39.668742" lon="-6.474612">
        <ele>327.724</ele>
        <time>2019-06-22T19:42:18Z</time>
      </trkpt>
      <trkpt lat="39.668589" lon="-6.474810">
        <ele>328.312</ele>
        <time>2019-06-22T19:42:19Z</time>
      </trkpt>
      <trkpt lat="39.668434" lon="-6.475009">
        <ele>328.731</ele>
        <time>2019-06-22T19:42:20Z</time>
      </trkpt>
      <trkpt lat="39.668275" lon="-6.475231">
        <ele>330.516</ele>
        <time>2019-06-22T19:42:21Z</time>
      </trkpt>
      <trkpt lat="39.668109" lon="-6.475441">
        <ele>331.349</ele>
        <time>2019-06-22T19:42:22Z</time>
      </trkpt>
      <trkpt lat="39.667954" lon="-6.475632">
        <ele>331.339</ele>
        <time>2019-06-22T19:42:23Z</time>
      </trkpt>
      <trkpt lat="39.667790" lon="-6.475830">
        <ele>332.801</ele>
        <time>2019-06-22T19:42:24Z</time>
      </trkpt>
      <trkpt lat="39.667639" lon="-6.476029">
        <ele>334.121</ele>
        <time>2019-06-22T19:42:25Z</time>
      </trkpt>
      <trkpt lat="39.667487" lon="-6.476231">
        <ele>334.408</ele>
        <time>2019-06-22T19:42:26Z</time>
      </trkpt>
      <trkpt lat="39.667334" lon="-6.476436">
        <ele>335.436</ele>
        <time>2019-06-22T19:42:27Z</time>
      </trkpt>
      <trkpt lat="39.667181" lon="-6.476640">
        <ele>336.420</ele>
        <time>2019-06-22T19:42:28Z</time>
      </trkpt>
      <trkpt lat="39.667031" lon="-6.476851">
        <ele>336.412</ele>
        <time>2019-06-22T19:42:29Z</time>
      </trkpt>
      <trkpt lat="39.666895" lon="-6.477077">
        <ele>335.754</ele>
        <time>2019-06-22T19:42:30Z</time>
      </trkpt>
      <trkpt lat="39.666768" lon="-6.477319">
        <ele>335.342</ele>
        <time>2019-06-22T19:42:31Z</time>
      </trkpt>
      <trkpt lat="39.666655" lon="-6.477580">
        <ele>334.781</ele>
        <time>2019-06-22T19:42:32Z</time>
      </trkpt>
      <trkpt lat="39.666556" lon="-6.477832">
        <ele>334.776</ele>
        <time>2019-06-22T19:42:33Z</time>
      </trkpt>
      <trkpt lat="39.666455" lon="-6.478096">
        <ele>335.569</ele>
        <time>2019-06-22T19:42:34Z</time>
      </trkpt>
      <trkpt lat="39.666357" lon="-6.478365">
        <ele>336.512</ele>
        <time>2019-06-22T19:42:35Z</time>
      </trkpt>
      <trkpt lat="39.666252" lon="-6.478638">
        <ele>337.732</ele>
        <time>2019-06-22T19:42:36Z</time>
      </trkpt>
      <trkpt lat="39.666151" lon="-6.478913">
        <ele>337.705</ele>
        <time>2019-06-22T19:42:37Z</time>
      </trkpt>
      <trkpt lat="39.666045" lon="-6.479190">
        <ele>338.708</ele>
        <time>2019-06-22T19:42:38Z</time>
      </trkpt>
      <trkpt lat="39.665949" lon="-6.479465">
        <ele>339.434</ele>
        <time>2019-06-22T19:42:39Z</time>
      </trkpt>
      <trkpt lat="39.665842" lon="-6.479745">
        <ele>340.148</ele>
        <time>2019-06-22T19:42:40Z</time>
      </trkpt>
      <trkpt lat="39.665732" lon="-6.480032">
        <ele>340.630</ele>
        <time>2019-06-22T19:42:41Z</time>
      </trkpt>
      <trkpt lat="39.665629" lon="-6.480308">
        <ele>340.932</ele>
        <time>2019-06-22T19:42:42Z</time>
      </trkpt>
      <trkpt lat="39.665517" lon="-6.480588">
        <ele>341.180</ele>
        <time>2019-06-22T19:42:43Z</time>
      </trkpt>
      <trkpt lat="39.665409" lon="-6.480875">
        <ele>341.669</ele>
        <time>2019-06-22T19:42:44Z</time>
      </trkpt>
      <trkpt lat="39.665298" lon="-6.481159">
        <ele>341.664</ele>
        <time>2019-06-22T19:42:45Z</time>
      </trkpt>
      <trkpt lat="39.665190" lon="-6.481439">
        <ele>341.437</ele>
        <time>2019-06-22T19:42:46Z</time>
      </trkpt>
      <trkpt lat="39.665079" lon="-6.481715">
        <ele>341.483</ele>
        <time>2019-06-22T19:42:47Z</time>
      </trkpt>
      <trkpt lat="39.664964" lon="-6.481969">
        <ele>342.025</ele>
        <time>2019-06-22T19:42:48Z</time>
      </trkpt>
      <trkpt lat="39.664826" lon="-6.482234">
        <ele>343.417</ele>
        <time>2019-06-22T19:42:49Z</time>
      </trkpt>
      <trkpt lat="39.664669" lon="-6.482472">
        <ele>344.408</ele>
        <time>2019-06-22T19:42:50Z</time>
      </trkpt>
      <trkpt lat="39.664499" lon="-6.482691">
        <ele>345.931</ele>
        <time>2019-06-22T19:42:51Z</time>
      </trkpt>
      <trkpt lat="39.664309" lon="-6.482894">
        <ele>348.055</ele>
        <time>2019-06-22T19:42:52Z</time>
      </trkpt>
      <trkpt lat="39.664109" lon="-6.483071">
        <ele>349.697</ele>
        <time>2019-06-22T19:42:53Z</time>
      </trkpt>
      <trkpt lat="39.663902" lon="-6.483244">
        <ele>349.819</ele>
        <time>2019-06-22T19:42:54Z</time>
      </trkpt>
      <trkpt lat="39.663665" lon="-6.483349">
        <ele>349.867</ele>
        <time>2019-06-22T19:42:55Z</time>
      </trkpt>
      <trkpt lat="39.663428" lon="-6.483457">
        <ele>349.956</ele>
        <time>2019-06-22T19:42:56Z</time>
      </trkpt>
      <trkpt lat="39.663191" lon="-6.483536">
        <ele>350.181</ele>
        <time>2019-06-22T19:42:57Z</time>
      </trkpt>
      <trkpt lat="39.662966" lon="-6.483574">
        <ele>350.144</ele>
        <time>2019-06-22T19:42:58Z</time>
      </trkpt>
      <trkpt lat="39.662718" lon="-6.483597">
        <ele>350.297</ele>
        <time>2019-06-22T19:42:59Z</time>
      </trkpt>
      <trkpt lat="39.662476" lon="-6.483605">
        <ele>350.523</ele>
        <time>2019-06-22T19:43:00Z</time>
      </trkpt>
      <trkpt lat="39.662230" lon="-6.483598">
        <ele>352.025</ele>
        <time>2019-06-22T19:43:01Z</time>
      </trkpt>
      <trkpt lat="39.661983" lon="-6.483582">
        <ele>353.108</ele>
        <time>2019-06-22T19:43:02Z</time>
      </trkpt>
      <trkpt lat="39.661728" lon="-6.483573">
        <ele>353.892</ele>
        <time>2019-06-22T19:43:03Z</time>
      </trkpt>
      <trkpt lat="39.661475" lon="-6.483564">
        <ele>354.026</ele>
        <time>2019-06-22T19:43:04Z</time>
      </trkpt>
      <trkpt lat="39.661224" lon="-6.483554">
        <ele>354.028</ele>
        <time>2019-06-22T19:43:05Z</time>
      </trkpt>
      <trkpt lat="39.660971" lon="-6.483543">
        <ele>353.270</ele>
        <time>2019-06-22T19:43:06Z</time>
      </trkpt>
      <trkpt lat="39.660705" lon="-6.483530">
        <ele>352.338</ele>
        <time>2019-06-22T19:43:07Z</time>
      </trkpt>
      <trkpt lat="39.660439" lon="-6.483522">
        <ele>352.167</ele>
        <time>2019-06-22T19:43:08Z</time>
      </trkpt>
      <trkpt lat="39.660173" lon="-6.483504">
        <ele>352.132</ele>
        <time>2019-06-22T19:43:09Z</time>
      </trkpt>
      <trkpt lat="39.659896" lon="-6.483495">
        <ele>352.165</ele>
        <time>2019-06-22T19:43:10Z</time>
      </trkpt>
      <trkpt lat="39.659626" lon="-6.483486">
        <ele>352.133</ele>
        <time>2019-06-22T19:43:11Z</time>
      </trkpt>
      <trkpt lat="39.659347" lon="-6.483469">
        <ele>351.723</ele>
        <time>2019-06-22T19:43:12Z</time>
      </trkpt>
      <trkpt lat="39.659065" lon="-6.483454">
        <ele>350.115</ele>
        <time>2019-06-22T19:43:13Z</time>
      </trkpt>
      <trkpt lat="39.658783" lon="-6.483439">
        <ele>348.608</ele>
        <time>2019-06-22T19:43:14Z</time>
      </trkpt>
      <trkpt lat="39.658497" lon="-6.483431">
        <ele>347.086</ele>
        <time>2019-06-22T19:43:15Z</time>
      </trkpt>
      <trkpt lat="39.658209" lon="-6.483428">
        <ele>345.730</ele>
        <time>2019-06-22T19:43:16Z</time>
      </trkpt>
      <trkpt lat="39.657922" lon="-6.483424">
        <ele>345.292</ele>
        <time>2019-06-22T19:43:17Z</time>
      </trkpt>
      <trkpt lat="39.657636" lon="-6.483422">
        <ele>344.954</ele>
        <time>2019-06-22T19:43:18Z</time>
      </trkpt>
      <trkpt lat="39.657346" lon="-6.483412">
        <ele>344.652</ele>
        <time>2019-06-22T19:43:19Z</time>
      </trkpt>
      <trkpt lat="39.657055" lon="-6.483402">
        <ele>344.641</ele>
        <time>2019-06-22T19:43:20Z</time>
      </trkpt>
      <trkpt lat="39.656766" lon="-6.483393">
        <ele>344.516</ele>
        <time>2019-06-22T19:43:21Z</time>
      </trkpt>
      <trkpt lat="39.656476" lon="-6.483382">
        <ele>344.039</ele>
        <time>2019-06-22T19:43:22Z</time>
      </trkpt>
      <trkpt lat="39.656186" lon="-6.483373">
        <ele>343.531</ele>
        <time>2019-06-22T19:43:23Z</time>
      </trkpt>
      <trkpt lat="39.655894" lon="-6.483366">
        <ele>342.961</ele>
        <time>2019-06-22T19:43:24Z</time>
      </trkpt>
      <trkpt lat="39.655605" lon="-6.483354">
        <ele>341.907</ele>
        <time>2019-06-22T19:43:25Z</time>
      </trkpt>
      <trkpt lat="39.655314" lon="-6.483342">
        <ele>340.708</ele>
        <time>2019-06-22T19:43:26Z</time>
      </trkpt>
      <trkpt lat="39.655026" lon="-6.483330">
        <ele>339.896</ele>
        <time>2019-06-22T19:43:27Z</time>
      </trkpt>
      <trkpt lat="39.654738" lon="-6.483315">
        <ele>339.460</ele>
        <time>2019-06-22T19:43:28Z</time>
      </trkpt>
      <trkpt lat="39.654454" lon="-6.483292">
        <ele>339.182</ele>
        <time>2019-06-22T19:43:29Z</time>
      </trkpt>
      <trkpt lat="39.654170" lon="-6.483263">
        <ele>339.044</ele>
        <time>2019-06-22T19:43:30Z</time>
      </trkpt>
      <trkpt lat="39.653891" lon="-6.483226">
        <ele>338.882</ele>
        <time>2019-06-22T19:43:31Z</time>
      </trkpt>
      <trkpt lat="39.653607" lon="-6.483179">
        <ele>338.871</ele>
        <time>2019-06-22T19:43:32Z</time>
      </trkpt>
      <trkpt lat="39.653324" lon="-6.483131">
        <ele>338.526</ele>
        <time>2019-06-22T19:43:33Z</time>
      </trkpt>
      <trkpt lat="39.653048" lon="-6.483076">
        <ele>337.749</ele>
        <time>2019-06-22T19:43:34Z</time>
      </trkpt>
      <trkpt lat="39.652769" lon="-6.483022">
        <ele>337.662</ele>
        <time>2019-06-22T19:43:35Z</time>
      </trkpt>
      <trkpt lat="39.652498" lon="-6.482961">
        <ele>337.283</ele>
        <time>2019-06-22T19:43:36Z</time>
      </trkpt>
      <trkpt lat="39.652227" lon="-6.482900">
        <ele>337.211</ele>
        <time>2019-06-22T19:43:37Z</time>
      </trkpt>
      <trkpt lat="39.651964" lon="-6.482826">
        <ele>337.208</ele>
        <time>2019-06-22T19:43:38Z</time>
      </trkpt>
      <trkpt lat="39.651706" lon="-6.482758">
        <ele>337.639</ele>
        <time>2019-06-22T19:43:39Z</time>
      </trkpt>
      <trkpt lat="39.651454" lon="-6.482684">
        <ele>338.133</ele>
        <time>2019-06-22T19:43:40Z</time>
      </trkpt>
      <trkpt lat="39.651190" lon="-6.482620">
        <ele>338.965</ele>
        <time>2019-06-22T19:43:41Z</time>
      </trkpt>
      <trkpt lat="39.650930" lon="-6.482551">
        <ele>339.797</ele>
        <time>2019-06-22T19:43:42Z</time>
      </trkpt>
      <trkpt lat="39.650673" lon="-6.482487">
        <ele>340.245</ele>
        <time>2019-06-22T19:43:43Z</time>
      </trkpt>
      <trkpt lat="39.650417" lon="-6.482421">
        <ele>340.234</ele>
        <time>2019-06-22T19:43:44Z</time>
      </trkpt>
      <trkpt lat="39.650155" lon="-6.482349">
        <ele>341.169</ele>
        <time>2019-06-22T19:43:45Z</time>
      </trkpt>
      <trkpt lat="39.649894" lon="-6.482284">
        <ele>342.162</ele>
        <time>2019-06-22T19:43:46Z</time>
      </trkpt>
      <trkpt lat="39.649644" lon="-6.482216">
        <ele>342.943</ele>
        <time>2019-06-22T19:43:47Z</time>
      </trkpt>
      <trkpt lat="39.649383" lon="-6.482159">
        <ele>343.864</ele>
        <time>2019-06-22T19:43:48Z</time>
      </trkpt>
      <trkpt lat="39.649127" lon="-6.482104">
        <ele>344.610</ele>
        <time>2019-06-22T19:43:49Z</time>
      </trkpt>
      <trkpt lat="39.648863" lon="-6.482071">
        <ele>345.408</ele>
        <time>2019-06-22T19:43:50Z</time>
      </trkpt>
      <trkpt lat="39.648621" lon="-6.482039">
        <ele>346.147</ele>
        <time>2019-06-22T19:43:51Z</time>
      </trkpt>
      <trkpt lat="39.648377" lon="-6.482023">
        <ele>346.961</ele>
        <time>2019-06-22T19:43:52Z</time>
      </trkpt>
      <trkpt lat="39.648128" lon="-6.482005">
        <ele>347.373</ele>
        <time>2019-06-22T19:43:53Z</time>
      </trkpt>
      <trkpt lat="39.647876" lon="-6.481996">
        <ele>347.425</ele>
        <time>2019-06-22T19:43:54Z</time>
      </trkpt>
      <trkpt lat="39.647626" lon="-6.481996">
        <ele>347.433</ele>
        <time>2019-06-22T19:43:55Z</time>
      </trkpt>
      <trkpt lat="39.647377" lon="-6.482008">
        <ele>347.622</ele>
        <time>2019-06-22T19:43:56Z</time>
      </trkpt>
      <trkpt lat="39.647134" lon="-6.482032">
        <ele>348.027</ele>
        <time>2019-06-22T19:43:57Z</time>
      </trkpt>
      <trkpt lat="39.646892" lon="-6.482068">
        <ele>348.850</ele>
        <time>2019-06-22T19:43:58Z</time>
      </trkpt>
      <trkpt lat="39.646651" lon="-6.482109">
        <ele>350.177</ele>
        <time>2019-06-22T19:43:59Z</time>
      </trkpt>
      <trkpt lat="39.646410" lon="-6.482156">
        <ele>352.161</ele>
        <time>2019-06-22T19:44:00Z</time>
      </trkpt>
      <trkpt lat="39.646174" lon="-6.482212">
        <ele>354.427</ele>
        <time>2019-06-22T19:44:01Z</time>
      </trkpt>
      <trkpt lat="39.645941" lon="-6.482277">
        <ele>356.308</ele>
        <time>2019-06-22T19:44:02Z</time>
      </trkpt>
      <trkpt lat="39.645708" lon="-6.482345">
        <ele>357.660</ele>
        <time>2019-06-22T19:44:03Z</time>
      </trkpt>
      <trkpt lat="39.645473" lon="-6.482412">
        <ele>358.634</ele>
        <time>2019-06-22T19:44:04Z</time>
      </trkpt>
      <trkpt lat="39.645241" lon="-6.482481">
        <ele>359.146</ele>
        <time>2019-06-22T19:44:05Z</time>
      </trkpt>
      <trkpt lat="39.645018" lon="-6.482550">
        <ele>359.598</ele>
        <time>2019-06-22T19:44:06Z</time>
      </trkpt>
      <trkpt lat="39.644786" lon="-6.482611">
        <ele>359.996</ele>
        <time>2019-06-22T19:44:07Z</time>
      </trkpt>
      <trkpt lat="39.644557" lon="-6.482670">
        <ele>361.335</ele>
        <time>2019-06-22T19:44:08Z</time>
      </trkpt>
      <trkpt lat="39.644328" lon="-6.482711">
        <ele>363.280</ele>
        <time>2019-06-22T19:44:09Z</time>
      </trkpt>
      <trkpt lat="39.644093" lon="-6.482750">
        <ele>364.943</ele>
        <time>2019-06-22T19:44:10Z</time>
      </trkpt>
      <trkpt lat="39.643858" lon="-6.482771">
        <ele>366.437</ele>
        <time>2019-06-22T19:44:11Z</time>
      </trkpt>
      <trkpt lat="39.643619" lon="-6.482783">
        <ele>367.349</ele>
        <time>2019-06-22T19:44:12Z</time>
      </trkpt>
      <trkpt lat="39.643376" lon="-6.482783">
        <ele>367.613</ele>
        <time>2019-06-22T19:44:13Z</time>
      </trkpt>
      <trkpt lat="39.643134" lon="-6.482771">
        <ele>367.608</ele>
        <time>2019-06-22T19:44:14Z</time>
      </trkpt>
      <trkpt lat="39.642890" lon="-6.482749">
        <ele>367.616</ele>
        <time>2019-06-22T19:44:15Z</time>
      </trkpt>
      <trkpt lat="39.642647" lon="-6.482716">
        <ele>367.690</ele>
        <time>2019-06-22T19:44:16Z</time>
      </trkpt>
      <trkpt lat="39.642397" lon="-6.482671">
        <ele>367.552</ele>
        <time>2019-06-22T19:44:17Z</time>
      </trkpt>
      <trkpt lat="39.642145" lon="-6.482607">
        <ele>367.694</ele>
        <time>2019-06-22T19:44:18Z</time>
      </trkpt>
      <trkpt lat="39.641876" lon="-6.482534">
        <ele>367.742</ele>
        <time>2019-06-22T19:44:19Z</time>
      </trkpt>
      <trkpt lat="39.641629" lon="-6.482465">
        <ele>367.761</ele>
        <time>2019-06-22T19:44:20Z</time>
      </trkpt>
      <trkpt lat="39.641365" lon="-6.482402">
        <ele>367.876</ele>
        <time>2019-06-22T19:44:21Z</time>
      </trkpt>
      <trkpt lat="39.641103" lon="-6.482335">
        <ele>368.569</ele>
        <time>2019-06-22T19:44:22Z</time>
      </trkpt>
      <trkpt lat="39.640841" lon="-6.482263">
        <ele>369.186</ele>
        <time>2019-06-22T19:44:23Z</time>
      </trkpt>
      <trkpt lat="39.640566" lon="-6.482194">
        <ele>369.460</ele>
        <time>2019-06-22T19:44:24Z</time>
      </trkpt>
      <trkpt lat="39.640289" lon="-6.482119">
        <ele>369.426</ele>
        <time>2019-06-22T19:44:25Z</time>
      </trkpt>
      <trkpt lat="39.640033" lon="-6.482056">
        <ele>369.008</ele>
        <time>2019-06-22T19:44:26Z</time>
      </trkpt>
      <trkpt lat="39.639755" lon="-6.481979">
        <ele>366.661</ele>
        <time>2019-06-22T19:44:27Z</time>
      </trkpt>
      <trkpt lat="39.639469" lon="-6.481904">
        <ele>364.365</ele>
        <time>2019-06-22T19:44:28Z</time>
      </trkpt>
      <trkpt lat="39.639178" lon="-6.481831">
        <ele>361.957</ele>
        <time>2019-06-22T19:44:29Z</time>
      </trkpt>
      <trkpt lat="39.638924" lon="-6.481764">
        <ele>359.749</ele>
        <time>2019-06-22T19:44:30Z</time>
      </trkpt>
      <trkpt lat="39.638641" lon="-6.481679">
        <ele>358.197</ele>
        <time>2019-06-22T19:44:31Z</time>
      </trkpt>
      <trkpt lat="39.638357" lon="-6.481601">
        <ele>356.536</ele>
        <time>2019-06-22T19:44:32Z</time>
      </trkpt>
      <trkpt lat="39.638068" lon="-6.481527">
        <ele>355.441</ele>
        <time>2019-06-22T19:44:33Z</time>
      </trkpt>
      <trkpt lat="39.637782" lon="-6.481453">
        <ele>354.174</ele>
        <time>2019-06-22T19:44:34Z</time>
      </trkpt>
      <trkpt lat="39.637496" lon="-6.481386">
        <ele>352.922</ele>
        <time>2019-06-22T19:44:35Z</time>
      </trkpt>
      <trkpt lat="39.637215" lon="-6.481319">
        <ele>351.862</ele>
        <time>2019-06-22T19:44:36Z</time>
      </trkpt>
      <trkpt lat="39.636942" lon="-6.481256">
        <ele>351.108</ele>
        <time>2019-06-22T19:44:37Z</time>
      </trkpt>
      <trkpt lat="39.636676" lon="-6.481187">
        <ele>350.408</ele>
        <time>2019-06-22T19:44:38Z</time>
      </trkpt>
      <trkpt lat="39.636405" lon="-6.481136">
        <ele>350.095</ele>
        <time>2019-06-22T19:44:39Z</time>
      </trkpt>
      <trkpt lat="39.636137" lon="-6.481086">
        <ele>349.559</ele>
        <time>2019-06-22T19:44:40Z</time>
      </trkpt>
      <trkpt lat="39.635868" lon="-6.481042">
        <ele>349.511</ele>
        <time>2019-06-22T19:44:41Z</time>
      </trkpt>
      <trkpt lat="39.635601" lon="-6.481004">
        <ele>349.943</ele>
        <time>2019-06-22T19:44:42Z</time>
      </trkpt>
      <trkpt lat="39.635333" lon="-6.480979">
        <ele>350.341</ele>
        <time>2019-06-22T19:44:43Z</time>
      </trkpt>
      <trkpt lat="39.635073" lon="-6.480943">
        <ele>350.870</ele>
        <time>2019-06-22T19:44:44Z</time>
      </trkpt>
      <trkpt lat="39.634817" lon="-6.480908">
        <ele>351.615</ele>
        <time>2019-06-22T19:44:45Z</time>
      </trkpt>
      <trkpt lat="39.634558" lon="-6.480876">
        <ele>352.028</ele>
        <time>2019-06-22T19:44:46Z</time>
      </trkpt>
      <trkpt lat="39.634286" lon="-6.480830">
        <ele>352.525</ele>
        <time>2019-06-22T19:44:47Z</time>
      </trkpt>
      <trkpt lat="39.634036" lon="-6.480814">
        <ele>352.926</ele>
        <time>2019-06-22T19:44:48Z</time>
      </trkpt>
      <trkpt lat="39.633772" lon="-6.480787">
        <ele>352.908</ele>
        <time>2019-06-22T19:44:49Z</time>
      </trkpt>
      <trkpt lat="39.633510" lon="-6.480759">
        <ele>353.308</ele>
        <time>2019-06-22T19:44:50Z</time>
      </trkpt>
      <trkpt lat="39.633242" lon="-6.480746">
        <ele>353.835</ele>
        <time>2019-06-22T19:44:51Z</time>
      </trkpt>
      <trkpt lat="39.632973" lon="-6.480733">
        <ele>354.399</ele>
        <time>2019-06-22T19:44:52Z</time>
      </trkpt>
      <trkpt lat="39.632704" lon="-6.480728">
        <ele>354.741</ele>
        <time>2019-06-22T19:44:53Z</time>
      </trkpt>
      <trkpt lat="39.632435" lon="-6.480722">
        <ele>354.793</ele>
        <time>2019-06-22T19:44:54Z</time>
      </trkpt>
      <trkpt lat="39.632169" lon="-6.480724">
        <ele>354.371</ele>
        <time>2019-06-22T19:44:55Z</time>
      </trkpt>
      <trkpt lat="39.631902" lon="-6.480726">
        <ele>354.240</ele>
        <time>2019-06-22T19:44:56Z</time>
      </trkpt>
      <trkpt lat="39.631636" lon="-6.480729">
        <ele>353.955</ele>
        <time>2019-06-22T19:44:57Z</time>
      </trkpt>
      <trkpt lat="39.631370" lon="-6.480733">
        <ele>353.388</ele>
        <time>2019-06-22T19:44:58Z</time>
      </trkpt>
      <trkpt lat="39.631102" lon="-6.480736">
        <ele>353.395</ele>
        <time>2019-06-22T19:44:59Z</time>
      </trkpt>
      <trkpt lat="39.630836" lon="-6.480739">
        <ele>353.749</ele>
        <time>2019-06-22T19:45:00Z</time>
      </trkpt>
      <trkpt lat="39.630569" lon="-6.480745">
        <ele>354.023</ele>
        <time>2019-06-22T19:45:01Z</time>
      </trkpt>
      <trkpt lat="39.630299" lon="-6.480756">
        <ele>354.008</ele>
        <time>2019-06-22T19:45:02Z</time>
      </trkpt>
      <trkpt lat="39.630031" lon="-6.480760">
        <ele>354.632</ele>
        <time>2019-06-22T19:45:03Z</time>
      </trkpt>
      <trkpt lat="39.629763" lon="-6.480764">
        <ele>355.096</ele>
        <time>2019-06-22T19:45:04Z</time>
      </trkpt>
      <trkpt lat="39.629496" lon="-6.480771">
        <ele>355.318</ele>
        <time>2019-06-22T19:45:05Z</time>
      </trkpt>
      <trkpt lat="39.629232" lon="-6.480773">
        <ele>356.060</ele>
        <time>2019-06-22T19:45:06Z</time>
      </trkpt>
      <trkpt lat="39.628981" lon="-6.480784">
        <ele>356.938</ele>
        <time>2019-06-22T19:45:07Z</time>
      </trkpt>
      <trkpt lat="39.628720" lon="-6.480784">
        <ele>357.977</ele>
        <time>2019-06-22T19:45:08Z</time>
      </trkpt>
      <trkpt lat="39.628456" lon="-6.480786">
        <ele>358.612</ele>
        <time>2019-06-22T19:45:09Z</time>
      </trkpt>
      <trkpt lat="39.628194" lon="-6.480785">
        <ele>359.355</ele>
        <time>2019-06-22T19:45:10Z</time>
      </trkpt>
      <trkpt lat="39.627931" lon="-6.480784">
        <ele>359.513</ele>
        <time>2019-06-22T19:45:11Z</time>
      </trkpt>
      <trkpt lat="39.627664" lon="-6.480783">
        <ele>360.043</ele>
        <time>2019-06-22T19:45:12Z</time>
      </trkpt>
      <trkpt lat="39.627397" lon="-6.480786">
        <ele>360.207</ele>
        <time>2019-06-22T19:45:13Z</time>
      </trkpt>
      <trkpt lat="39.627134" lon="-6.480787">
        <ele>360.408</ele>
        <time>2019-06-22T19:45:14Z</time>
      </trkpt>
      <trkpt lat="39.626870" lon="-6.480783">
        <ele>360.684</ele>
        <time>2019-06-22T19:45:15Z</time>
      </trkpt>
      <trkpt lat="39.626602" lon="-6.480779">
        <ele>360.638</ele>
        <time>2019-06-22T19:45:16Z</time>
      </trkpt>
      <trkpt lat="39.626326" lon="-6.480774">
        <ele>360.660</ele>
        <time>2019-06-22T19:45:17Z</time>
      </trkpt>
      <trkpt lat="39.626046" lon="-6.480762">
        <ele>360.372</ele>
        <time>2019-06-22T19:45:18Z</time>
      </trkpt>
      <trkpt lat="39.625783" lon="-6.480754">
        <ele>359.470</ele>
        <time>2019-06-22T19:45:19Z</time>
      </trkpt>
      <trkpt lat="39.625507" lon="-6.480729">
        <ele>358.279</ele>
        <time>2019-06-22T19:45:20Z</time>
      </trkpt>
      <trkpt lat="39.625229" lon="-6.480686">
        <ele>357.224</ele>
        <time>2019-06-22T19:45:21Z</time>
      </trkpt>
      <trkpt lat="39.624955" lon="-6.480646">
        <ele>355.557</ele>
        <time>2019-06-22T19:45:22Z</time>
      </trkpt>
      <trkpt lat="39.624685" lon="-6.480625">
        <ele>353.571</ele>
        <time>2019-06-22T19:45:23Z</time>
      </trkpt>
      <trkpt lat="39.624408" lon="-6.480587">
        <ele>351.841</ele>
        <time>2019-06-22T19:45:24Z</time>
      </trkpt>
      <trkpt lat="39.624131" lon="-6.480558">
        <ele>351.115</ele>
        <time>2019-06-22T19:45:25Z</time>
      </trkpt>
      <trkpt lat="39.623853" lon="-6.480528">
        <ele>350.608</ele>
        <time>2019-06-22T19:45:26Z</time>
      </trkpt>
      <trkpt lat="39.623578" lon="-6.480493">
        <ele>350.620</ele>
        <time>2019-06-22T19:45:27Z</time>
      </trkpt>
      <trkpt lat="39.623308" lon="-6.480457">
        <ele>351.054</ele>
        <time>2019-06-22T19:45:28Z</time>
      </trkpt>
      <trkpt lat="39.623038" lon="-6.480433">
        <ele>352.636</ele>
        <time>2019-06-22T19:45:29Z</time>
      </trkpt>
      <trkpt lat="39.622757" lon="-6.480395">
        <ele>353.788</ele>
        <time>2019-06-22T19:45:30Z</time>
      </trkpt>
      <trkpt lat="39.622483" lon="-6.480362">
        <ele>353.956</ele>
        <time>2019-06-22T19:45:31Z</time>
      </trkpt>
      <trkpt lat="39.622210" lon="-6.480325">
        <ele>354.275</ele>
        <time>2019-06-22T19:45:32Z</time>
      </trkpt>
      <trkpt lat="39.621938" lon="-6.480294">
        <ele>354.270</ele>
        <time>2019-06-22T19:45:33Z</time>
      </trkpt>
      <trkpt lat="39.621667" lon="-6.480268">
        <ele>353.813</ele>
        <time>2019-06-22T19:45:34Z</time>
      </trkpt>
      <trkpt lat="39.621395" lon="-6.480234">
        <ele>353.857</ele>
        <time>2019-06-22T19:45:35Z</time>
      </trkpt>
      <trkpt lat="39.621125" lon="-6.480194">
        <ele>354.100</ele>
        <time>2019-06-22T19:45:36Z</time>
      </trkpt>
      <trkpt lat="39.620856" lon="-6.480157">
        <ele>354.920</ele>
        <time>2019-06-22T19:45:37Z</time>
      </trkpt>
      <trkpt lat="39.620593" lon="-6.480117">
        <ele>354.908</ele>
        <time>2019-06-22T19:45:38Z</time>
      </trkpt>
      <trkpt lat="39.620327" lon="-6.480082">
        <ele>355.068</ele>
        <time>2019-06-22T19:45:39Z</time>
      </trkpt>
      <trkpt lat="39.620064" lon="-6.480047">
        <ele>355.382</ele>
        <time>2019-06-22T19:45:40Z</time>
      </trkpt>
      <trkpt lat="39.619792" lon="-6.480016">
        <ele>355.044</ele>
        <time>2019-06-22T19:45:41Z</time>
      </trkpt>
      <trkpt lat="39.619533" lon="-6.479976">
        <ele>355.096</ele>
        <time>2019-06-22T19:45:42Z</time>
      </trkpt>
      <trkpt lat="39.619262" lon="-6.479944">
        <ele>354.884</ele>
        <time>2019-06-22T19:45:43Z</time>
      </trkpt>
      <trkpt lat="39.618979" lon="-6.479936">
        <ele>354.693</ele>
        <time>2019-06-22T19:45:44Z</time>
      </trkpt>
      <trkpt lat="39.618712" lon="-6.479905">
        <ele>354.018</ele>
        <time>2019-06-22T19:45:45Z</time>
      </trkpt>
      <trkpt lat="39.618437" lon="-6.479870">
        <ele>353.751</ele>
        <time>2019-06-22T19:45:46Z</time>
      </trkpt>
      <trkpt lat="39.618165" lon="-6.479839">
        <ele>353.478</ele>
        <time>2019-06-22T19:45:47Z</time>
      </trkpt>
      <trkpt lat="39.617895" lon="-6.479806">
        <ele>353.233</ele>
        <time>2019-06-22T19:45:48Z</time>
      </trkpt>
      <trkpt lat="39.617626" lon="-6.479771">
        <ele>353.426</ele>
        <time>2019-06-22T19:45:49Z</time>
      </trkpt>
      <trkpt lat="39.617354" lon="-6.479735">
        <ele>353.708</ele>
        <time>2019-06-22T19:45:50Z</time>
      </trkpt>
      <trkpt lat="39.617083" lon="-6.479706">
        <ele>354.580</ele>
        <time>2019-06-22T19:45:51Z</time>
      </trkpt>
      <trkpt lat="39.616811" lon="-6.479673">
        <ele>354.594</ele>
        <time>2019-06-22T19:45:52Z</time>
      </trkpt>
      <trkpt lat="39.616540" lon="-6.479640">
        <ele>353.846</ele>
        <time>2019-06-22T19:45:53Z</time>
      </trkpt>
      <trkpt lat="39.616266" lon="-6.479609">
        <ele>353.878</ele>
        <time>2019-06-22T19:45:54Z</time>
      </trkpt>
      <trkpt lat="39.615999" lon="-6.479577">
        <ele>353.266</ele>
        <time>2019-06-22T19:45:55Z</time>
      </trkpt>
      <trkpt lat="39.615731" lon="-6.479541">
        <ele>353.215</ele>
        <time>2019-06-22T19:45:56Z</time>
      </trkpt>
      <trkpt lat="39.615458" lon="-6.479510">
        <ele>352.170</ele>
        <time>2019-06-22T19:45:57Z</time>
      </trkpt>
      <trkpt lat="39.615211" lon="-6.479459">
        <ele>351.563</ele>
        <time>2019-06-22T19:45:58Z</time>
      </trkpt>
      <trkpt lat="39.614947" lon="-6.479445">
        <ele>351.294</ele>
        <time>2019-06-22T19:45:59Z</time>
      </trkpt>
      <trkpt lat="39.614678" lon="-6.479443">
        <ele>351.257</ele>
        <time>2019-06-22T19:46:00Z</time>
      </trkpt>
      <trkpt lat="39.614412" lon="-6.479451">
        <ele>351.422</ele>
        <time>2019-06-22T19:46:01Z</time>
      </trkpt>
      <trkpt lat="39.614140" lon="-6.479460">
        <ele>351.408</ele>
        <time>2019-06-22T19:46:02Z</time>
      </trkpt>
      <trkpt lat="39.613873" lon="-6.479479">
        <ele>352.092</ele>
        <time>2019-06-22T19:46:03Z</time>
      </trkpt>
      <trkpt lat="39.613608" lon="-6.479508">
        <ele>352.676</ele>
        <time>2019-06-22T19:46:04Z</time>
      </trkpt>
      <trkpt lat="39.613341" lon="-6.479533">
        <ele>353.268</ele>
        <time>2019-06-22T19:46:05Z</time>
      </trkpt>
      <trkpt lat="39.613073" lon="-6.479557">
        <ele>353.920</ele>
        <time>2019-06-22T19:46:06Z</time>
      </trkpt>
      <trkpt lat="39.612806" lon="-6.479578">
        <ele>354.178</ele>
        <time>2019-06-22T19:46:07Z</time>
      </trkpt>
      <trkpt lat="39.612539" lon="-6.479603">
        <ele>354.367</ele>
        <time>2019-06-22T19:46:08Z</time>
      </trkpt>
      <trkpt lat="39.612275" lon="-6.479629">
        <ele>354.692</ele>
        <time>2019-06-22T19:46:09Z</time>
      </trkpt>
      <trkpt lat="39.612008" lon="-6.479660">
        <ele>355.085</ele>
        <time>2019-06-22T19:46:10Z</time>
      </trkpt>
      <trkpt lat="39.611749" lon="-6.479677">
        <ele>355.499</ele>
        <time>2019-06-22T19:46:11Z</time>
      </trkpt>
      <trkpt lat="39.611492" lon="-6.479685">
        <ele>356.107</ele>
        <time>2019-06-22T19:46:12Z</time>
      </trkpt>
      <trkpt lat="39.611225" lon="-6.479665">
        <ele>357.227</ele>
        <time>2019-06-22T19:46:13Z</time>
      </trkpt>
      <trkpt lat="39.610969" lon="-6.479627">
        <ele>358.008</ele>
        <time>2019-06-22T19:46:14Z</time>
      </trkpt>
      <trkpt lat="39.610717" lon="-6.479569">
        <ele>358.992</ele>
        <time>2019-06-22T19:46:15Z</time>
      </trkpt>
      <trkpt lat="39.610463" lon="-6.479498">
        <ele>359.596</ele>
        <time>2019-06-22T19:46:16Z</time>
      </trkpt>
      <trkpt lat="39.610211" lon="-6.479416">
        <ele>359.958</ele>
        <time>2019-06-22T19:46:17Z</time>
      </trkpt>
      <trkpt lat="39.609959" lon="-6.479335">
        <ele>359.990</ele>
        <time>2019-06-22T19:46:18Z</time>
      </trkpt>
      <trkpt lat="39.609708" lon="-6.479254">
        <ele>360.018</ele>
        <time>2019-06-22T19:46:19Z</time>
      </trkpt>
      <trkpt lat="39.609456" lon="-6.479169">
        <ele>360.157</ele>
        <time>2019-06-22T19:46:20Z</time>
      </trkpt>
      <trkpt lat="39.609202" lon="-6.479086">
        <ele>360.342</ele>
        <time>2019-06-22T19:46:21Z</time>
      </trkpt>
      <trkpt lat="39.608950" lon="-6.479001">
        <ele>360.485</ele>
        <time>2019-06-22T19:46:22Z</time>
      </trkpt>
      <trkpt lat="39.608698" lon="-6.478919">
        <ele>360.533</ele>
        <time>2019-06-22T19:46:23Z</time>
      </trkpt>
      <trkpt lat="39.608447" lon="-6.478837">
        <ele>360.723</ele>
        <time>2019-06-22T19:46:24Z</time>
      </trkpt>
      <trkpt lat="39.608198" lon="-6.478755">
        <ele>360.715</ele>
        <time>2019-06-22T19:46:25Z</time>
      </trkpt>
      <trkpt lat="39.607946" lon="-6.478679">
        <ele>360.708</ele>
        <time>2019-06-22T19:46:26Z</time>
      </trkpt>
      <trkpt lat="39.607693" lon="-6.478599">
        <ele>361.346</ele>
        <time>2019-06-22T19:46:27Z</time>
      </trkpt>
      <trkpt lat="39.607436" lon="-6.478522">
        <ele>361.810</ele>
        <time>2019-06-22T19:46:28Z</time>
      </trkpt>
      <trkpt lat="39.607185" lon="-6.478438">
        <ele>362.342</ele>
        <time>2019-06-22T19:46:29Z</time>
      </trkpt>
      <trkpt lat="39.606939" lon="-6.478352">
        <ele>363.294</ele>
        <time>2019-06-22T19:46:30Z</time>
      </trkpt>
      <trkpt lat="39.606696" lon="-6.478265">
        <ele>364.982</ele>
        <time>2019-06-22T19:46:31Z</time>
      </trkpt>
      <trkpt lat="39.606456" lon="-6.478174">
        <ele>365.541</ele>
        <time>2019-06-22T19:46:32Z</time>
      </trkpt>
      <trkpt lat="39.606207" lon="-6.478089">
        <ele>365.816</ele>
        <time>2019-06-22T19:46:33Z</time>
      </trkpt>
      <trkpt lat="39.605959" lon="-6.478005">
        <ele>366.169</ele>
        <time>2019-06-22T19:46:34Z</time>
      </trkpt>
      <trkpt lat="39.605709" lon="-6.477918">
        <ele>366.278</ele>
        <time>2019-06-22T19:46:35Z</time>
      </trkpt>
      <trkpt lat="39.605460" lon="-6.477825">
        <ele>366.333</ele>
        <time>2019-06-22T19:46:36Z</time>
      </trkpt>
      <trkpt lat="39.605215" lon="-6.477727">
        <ele>366.326</ele>
        <time>2019-06-22T19:46:37Z</time>
      </trkpt>
      <trkpt lat="39.604973" lon="-6.477617">
        <ele>367.208</ele>
        <time>2019-06-22T19:46:38Z</time>
      </trkpt>
      <trkpt lat="39.604732" lon="-6.477496">
        <ele>368.260</ele>
        <time>2019-06-22T19:46:39Z</time>
      </trkpt>
      <trkpt lat="39.604497" lon="-6.477368">
        <ele>368.974</ele>
        <time>2019-06-22T19:46:40Z</time>
      </trkpt>
      <trkpt lat="39.604259" lon="-6.477243">
        <ele>369.946</ele>
        <time>2019-06-22T19:46:41Z</time>
      </trkpt>
      <trkpt lat="39.604020" lon="-6.477124">
        <ele>370.868</ele>
        <time>2019-06-22T19:46:42Z</time>
      </trkpt>
      <trkpt lat="39.603778" lon="-6.477002">
        <ele>371.626</ele>
        <time>2019-06-22T19:46:43Z</time>
      </trkpt>
      <trkpt lat="39.603536" lon="-6.476881">
        <ele>371.945</ele>
        <time>2019-06-22T19:46:44Z</time>
      </trkpt>
      <trkpt lat="39.603299" lon="-6.476758">
        <ele>372.710</ele>
        <time>2019-06-22T19:46:45Z</time>
      </trkpt>
      <trkpt lat="39.603061" lon="-6.476635">
        <ele>373.343</ele>
        <time>2019-06-22T19:46:46Z</time>
      </trkpt>
      <trkpt lat="39.602823" lon="-6.476508">
        <ele>373.867</ele>
        <time>2019-06-22T19:46:47Z</time>
      </trkpt>
      <trkpt lat="39.602587" lon="-6.476387">
        <ele>374.581</ele>
        <time>2019-06-22T19:46:48Z</time>
      </trkpt>
      <trkpt lat="39.602352" lon="-6.476267">
        <ele>375.219</ele>
        <time>2019-06-22T19:46:49Z</time>
      </trkpt>
      <trkpt lat="39.602114" lon="-6.476145">
        <ele>376.108</ele>
        <time>2019-06-22T19:46:50Z</time>
      </trkpt>
      <trkpt lat="39.601879" lon="-6.476022">
        <ele>376.989</ele>
        <time>2019-06-22T19:46:51Z</time>
      </trkpt>
      <trkpt lat="39.601645" lon="-6.475901">
        <ele>377.793</ele>
        <time>2019-06-22T19:46:52Z</time>
      </trkpt>
      <trkpt lat="39.601408" lon="-6.475783">
        <ele>378.975</ele>
        <time>2019-06-22T19:46:53Z</time>
      </trkpt>
      <trkpt lat="39.601162" lon="-6.475661">
        <ele>379.827</ele>
        <time>2019-06-22T19:46:54Z</time>
      </trkpt>
      <trkpt lat="39.600926" lon="-6.475539">
        <ele>380.565</ele>
        <time>2019-06-22T19:46:55Z</time>
      </trkpt>
      <trkpt lat="39.600688" lon="-6.475419">
        <ele>381.054</ele>
        <time>2019-06-22T19:46:56Z</time>
      </trkpt>
      <trkpt lat="39.600447" lon="-6.475301">
        <ele>381.939</ele>
        <time>2019-06-22T19:46:57Z</time>
      </trkpt>
      <trkpt lat="39.600209" lon="-6.475186">
        <ele>382.492</ele>
        <time>2019-06-22T19:46:58Z</time>
      </trkpt>
      <trkpt lat="39.599965" lon="-6.475081">
        <ele>382.924</ele>
        <time>2019-06-22T19:46:59Z</time>
      </trkpt>
      <trkpt lat="39.599715" lon="-6.474981">
        <ele>384.104</ele>
        <time>2019-06-22T19:47:00Z</time>
      </trkpt>
      <trkpt lat="39.599461" lon="-6.474889">
        <ele>384.114</ele>
        <time>2019-06-22T19:47:01Z</time>
      </trkpt>
      <trkpt lat="39.599208" lon="-6.474801">
        <ele>385.608</ele>
        <time>2019-06-22T19:47:02Z</time>
      </trkpt>
      <trkpt lat="39.598952" lon="-6.474715">
        <ele>385.985</ele>
        <time>2019-06-22T19:47:03Z</time>
      </trkpt>
      <trkpt lat="39.598692" lon="-6.474635">
        <ele>385.989</ele>
        <time>2019-06-22T19:47:04Z</time>
      </trkpt>
      <trkpt lat="39.598436" lon="-6.474556">
        <ele>385.471</ele>
        <time>2019-06-22T19:47:05Z</time>
      </trkpt>
      <trkpt lat="39.598177" lon="-6.474473">
        <ele>384.283</ele>
        <time>2019-06-22T19:47:06Z</time>
      </trkpt>
      <trkpt lat="39.597916" lon="-6.474391">
        <ele>382.681</ele>
        <time>2019-06-22T19:47:07Z</time>
      </trkpt>
      <trkpt lat="39.597649" lon="-6.474305">
        <ele>381.720</ele>
        <time>2019-06-22T19:47:08Z</time>
      </trkpt>
      <trkpt lat="39.597383" lon="-6.474220">
        <ele>381.375</ele>
        <time>2019-06-22T19:47:09Z</time>
      </trkpt>
      <trkpt lat="39.597151" lon="-6.474138">
        <ele>380.688</ele>
        <time>2019-06-22T19:47:10Z</time>
      </trkpt>
      <trkpt lat="39.596886" lon="-6.474050">
        <ele>380.035</ele>
        <time>2019-06-22T19:47:11Z</time>
      </trkpt>
      <trkpt lat="39.596620" lon="-6.473964">
        <ele>379.486</ele>
        <time>2019-06-22T19:47:12Z</time>
      </trkpt>
      <trkpt lat="39.596354" lon="-6.473873">
        <ele>378.614</ele>
        <time>2019-06-22T19:47:13Z</time>
      </trkpt>
      <trkpt lat="39.596090" lon="-6.473768">
        <ele>377.508</ele>
        <time>2019-06-22T19:47:14Z</time>
      </trkpt>
      <trkpt lat="39.595829" lon="-6.473652">
        <ele>377.226</ele>
        <time>2019-06-22T19:47:15Z</time>
      </trkpt>
      <trkpt lat="39.595575" lon="-6.473517">
        <ele>377.260</ele>
        <time>2019-06-22T19:47:16Z</time>
      </trkpt>
      <trkpt lat="39.595326" lon="-6.473365">
        <ele>377.232</ele>
        <time>2019-06-22T19:47:17Z</time>
      </trkpt>
      <trkpt lat="39.595083" lon="-6.473204">
        <ele>377.314</ele>
        <time>2019-06-22T19:47:18Z</time>
      </trkpt>
      <trkpt lat="39.594844" lon="-6.473030">
        <ele>377.342</ele>
        <time>2019-06-22T19:47:19Z</time>
      </trkpt>
      <trkpt lat="39.594606" lon="-6.472859">
        <ele>377.341</ele>
        <time>2019-06-22T19:47:20Z</time>
      </trkpt>
      <trkpt lat="39.594364" lon="-6.472691">
        <ele>377.286</ele>
        <time>2019-06-22T19:47:21Z</time>
      </trkpt>
      <trkpt lat="39.594127" lon="-6.472522">
        <ele>377.239</ele>
        <time>2019-06-22T19:47:22Z</time>
      </trkpt>
      <trkpt lat="39.593890" lon="-6.472352">
        <ele>377.427</ele>
        <time>2019-06-22T19:47:23Z</time>
      </trkpt>
      <trkpt lat="39.593655" lon="-6.472183">
        <ele>377.768</ele>
        <time>2019-06-22T19:47:24Z</time>
      </trkpt>
      <trkpt lat="39.593421" lon="-6.472017">
        <ele>378.014</ele>
        <time>2019-06-22T19:47:25Z</time>
      </trkpt>
      <trkpt lat="39.593190" lon="-6.471846">
        <ele>378.708</ele>
        <time>2019-06-22T19:47:26Z</time>
      </trkpt>
      <trkpt lat="39.592965" lon="-6.471666">
        <ele>379.215</ele>
        <time>2019-06-22T19:47:27Z</time>
      </trkpt>
      <trkpt lat="39.592742" lon="-6.471480">
        <ele>379.639</ele>
        <time>2019-06-22T19:47:28Z</time>
      </trkpt>
      <trkpt lat="39.592521" lon="-6.471285">
        <ele>380.291</ele>
        <time>2019-06-22T19:47:29Z</time>
      </trkpt>
      <trkpt lat="39.592305" lon="-6.471086">
        <ele>380.933</ele>
        <time>2019-06-22T19:47:30Z</time>
      </trkpt>
      <trkpt lat="39.592109" lon="-6.470864">
        <ele>381.231</ele>
        <time>2019-06-22T19:47:31Z</time>
      </trkpt>
      <trkpt lat="39.591900" lon="-6.470655">
        <ele>381.560</ele>
        <time>2019-06-22T19:47:32Z</time>
      </trkpt>
      <trkpt lat="39.591696" lon="-6.470444">
        <ele>382.155</ele>
        <time>2019-06-22T19:47:33Z</time>
      </trkpt>
      <trkpt lat="39.591504" lon="-6.470231">
        <ele>382.488</ele>
        <time>2019-06-22T19:47:34Z</time>
      </trkpt>
      <trkpt lat="39.591310" lon="-6.470029">
        <ele>383.175</ele>
        <time>2019-06-22T19:47:35Z</time>
      </trkpt>
      <trkpt lat="39.591100" lon="-6.469825">
        <ele>384.028</ele>
        <time>2019-06-22T19:47:36Z</time>
      </trkpt>
      <trkpt lat="39.590892" lon="-6.469622">
        <ele>385.120</ele>
        <time>2019-06-22T19:47:37Z</time>
      </trkpt>
      <trkpt lat="39.590685" lon="-6.469418">
        <ele>386.408</ele>
        <time>2019-06-22T19:47:38Z</time>
      </trkpt>
      <trkpt lat="39.590475" lon="-6.469205">
        <ele>387.440</ele>
        <time>2019-06-22T19:47:39Z</time>
      </trkpt>
      <trkpt lat="39.590265" lon="-6.469010">
        <ele>388.394</ele>
        <time>2019-06-22T19:47:40Z</time>
      </trkpt>
      <trkpt lat="39.590058" lon="-6.468805">
        <ele>389.336</ele>
        <time>2019-06-22T19:47:41Z</time>
      </trkpt>
      <trkpt lat="39.589852" lon="-6.468598">
        <ele>390.358</ele>
        <time>2019-06-22T19:47:42Z</time>
      </trkpt>
      <trkpt lat="39.589646" lon="-6.468401">
        <ele>390.736</ele>
        <time>2019-06-22T19:47:43Z</time>
      </trkpt>
      <trkpt lat="39.589442" lon="-6.468194">
        <ele>391.435</ele>
        <time>2019-06-22T19:47:44Z</time>
      </trkpt>
      <trkpt lat="39.589242" lon="-6.468004">
        <ele>392.450</ele>
        <time>2019-06-22T19:47:45Z</time>
      </trkpt>
      <trkpt lat="39.589043" lon="-6.467802">
        <ele>393.333</ele>
        <time>2019-06-22T19:47:46Z</time>
      </trkpt>
      <trkpt lat="39.588849" lon="-6.467589">
        <ele>394.387</ele>
        <time>2019-06-22T19:47:47Z</time>
      </trkpt>
      <trkpt lat="39.588661" lon="-6.467367">
        <ele>395.542</ele>
        <time>2019-06-22T19:47:48Z</time>
      </trkpt>
      <trkpt lat="39.588474" lon="-6.467135">
        <ele>396.826</ele>
        <time>2019-06-22T19:47:49Z</time>
      </trkpt>
      <trkpt lat="39.588289" lon="-6.466901">
        <ele>397.808</ele>
        <time>2019-06-22T19:47:50Z</time>
      </trkpt>
      <trkpt lat="39.588104" lon="-6.466660">
        <ele>398.111</ele>
        <time>2019-06-22T19:47:51Z</time>
      </trkpt>
      <trkpt lat="39.587922" lon="-6.466416">
        <ele>398.165</ele>
        <time>2019-06-22T19:47:52Z</time>
      </trkpt>
      <trkpt lat="39.587741" lon="-6.466169">
        <ele>397.827</ele>
        <time>2019-06-22T19:47:53Z</time>
      </trkpt>
      <trkpt lat="39.587560" lon="-6.465914">
        <ele>397.059</ele>
        <time>2019-06-22T19:47:54Z</time>
      </trkpt>
      <trkpt lat="39.587376" lon="-6.465665">
        <ele>396.497</ele>
        <time>2019-06-22T19:47:55Z</time>
      </trkpt>
      <trkpt lat="39.587191" lon="-6.465411">
        <ele>396.316</ele>
        <time>2019-06-22T19:47:56Z</time>
      </trkpt>
      <trkpt lat="39.587003" lon="-6.465161">
        <ele>396.361</ele>
        <time>2019-06-22T19:47:57Z</time>
      </trkpt>
      <trkpt lat="39.586814" lon="-6.464908">
        <ele>396.744</ele>
        <time>2019-06-22T19:47:58Z</time>
      </trkpt>
      <trkpt lat="39.586627" lon="-6.464655">
        <ele>397.273</ele>
        <time>2019-06-22T19:47:59Z</time>
      </trkpt>
      <trkpt lat="39.586437" lon="-6.464394">
        <ele>398.585</ele>
        <time>2019-06-22T19:48:00Z</time>
      </trkpt>
      <trkpt lat="39.586250" lon="-6.464132">
        <ele>399.013</ele>
        <time>2019-06-22T19:48:01Z</time>
      </trkpt>
      <trkpt lat="39.586065" lon="-6.463878">
        <ele>399.008</ele>
        <time>2019-06-22T19:48:02Z</time>
      </trkpt>
      <trkpt lat="39.585885" lon="-6.463617">
        <ele>399.010</ele>
        <time>2019-06-22T19:48:03Z</time>
      </trkpt>
      <trkpt lat="39.585702" lon="-6.463356">
        <ele>399.054</ele>
        <time>2019-06-22T19:48:04Z</time>
      </trkpt>
      <trkpt lat="39.585519" lon="-6.463093">
        <ele>398.436</ele>
        <time>2019-06-22T19:48:05Z</time>
      </trkpt>
      <trkpt lat="39.585332" lon="-6.462832">
        <ele>398.488</ele>
        <time>2019-06-22T19:48:06Z</time>
      </trkpt>
      <trkpt lat="39.585141" lon="-6.462578">
        <ele>398.456</ele>
        <time>2019-06-22T19:48:07Z</time>
      </trkpt>
      <trkpt lat="39.584949" lon="-6.462324">
        <ele>398.975</ele>
        <time>2019-06-22T19:48:08Z</time>
      </trkpt>
      <trkpt lat="39.584765" lon="-6.462066">
        <ele>399.620</ele>
        <time>2019-06-22T19:48:09Z</time>
      </trkpt>
      <trkpt lat="39.584580" lon="-6.461808">
        <ele>400.423</ele>
        <time>2019-06-22T19:48:10Z</time>
      </trkpt>
      <trkpt lat="39.584395" lon="-6.461559">
        <ele>401.431</ele>
        <time>2019-06-22T19:48:11Z</time>
      </trkpt>
      <trkpt lat="39.584210" lon="-6.461311">
        <ele>402.461</ele>
        <time>2019-06-22T19:48:12Z</time>
      </trkpt>
      <trkpt lat="39.584025" lon="-6.461062">
        <ele>403.207</ele>
        <time>2019-06-22T19:48:13Z</time>
      </trkpt>
      <trkpt lat="39.583840" lon="-6.460827">
        <ele>404.008</ele>
        <time>2019-06-22T19:48:14Z</time>
      </trkpt>
      <trkpt lat="39.583655" lon="-6.460600">
        <ele>404.766</ele>
        <time>2019-06-22T19:48:15Z</time>
      </trkpt>
      <trkpt lat="39.583461" lon="-6.460402">
        <ele>405.630</ele>
        <time>2019-06-22T19:48:16Z</time>
      </trkpt>
      <trkpt lat="39.583251" lon="-6.460213">
        <ele>406.172</ele>
        <time>2019-06-22T19:48:17Z</time>
      </trkpt>
      <trkpt lat="39.583030" lon="-6.460040">
        <ele>406.624</ele>
        <time>2019-06-22T19:48:18Z</time>
      </trkpt>
      <trkpt lat="39.582798" lon="-6.459882">
        <ele>408.052</ele>
        <time>2019-06-22T19:48:19Z</time>
      </trkpt>
      <trkpt lat="39.582562" lon="-6.459732">
        <ele>408.851</ele>
        <time>2019-06-22T19:48:20Z</time>
      </trkpt>
      <trkpt lat="39.582321" lon="-6.459577">
        <ele>408.896</ele>
        <time>2019-06-22T19:48:21Z</time>
      </trkpt>
      <trkpt lat="39.582075" lon="-6.459429">
        <ele>408.889</ele>
        <time>2019-06-22T19:48:22Z</time>
      </trkpt>
      <trkpt lat="39.581823" lon="-6.459277">
        <ele>408.358</ele>
        <time>2019-06-22T19:48:23Z</time>
      </trkpt>
      <trkpt lat="39.581574" lon="-6.459132">
        <ele>407.252</ele>
        <time>2019-06-22T19:48:24Z</time>
      </trkpt>
      <trkpt lat="39.581319" lon="-6.458975">
        <ele>405.717</ele>
        <time>2019-06-22T19:48:25Z</time>
      </trkpt>
      <trkpt lat="39.581062" lon="-6.458816">
        <ele>404.708</ele>
        <time>2019-06-22T19:48:26Z</time>
      </trkpt>
      <trkpt lat="39.580804" lon="-6.458662">
        <ele>403.378</ele>
        <time>2019-06-22T19:48:27Z</time>
      </trkpt>
      <trkpt lat="39.580550" lon="-6.458515">
        <ele>402.142</ele>
        <time>2019-06-22T19:48:28Z</time>
      </trkpt>
      <trkpt lat="39.580288" lon="-6.458356">
        <ele>400.484</ele>
        <time>2019-06-22T19:48:29Z</time>
      </trkpt>
      <trkpt lat="39.580023" lon="-6.458198">
        <ele>398.946</ele>
        <time>2019-06-22T19:48:30Z</time>
      </trkpt>
      <trkpt lat="39.579764" lon="-6.458043">
        <ele>397.944</ele>
        <time>2019-06-22T19:48:31Z</time>
      </trkpt>
      <trkpt lat="39.579501" lon="-6.457885">
        <ele>396.693</ele>
        <time>2019-06-22T19:48:32Z</time>
      </trkpt>
      <trkpt lat="39.579237" lon="-6.457724">
        <ele>395.378</ele>
        <time>2019-06-22T19:48:33Z</time>
      </trkpt>
      <trkpt lat="39.578980" lon="-6.457561">
        <ele>394.391</ele>
        <time>2019-06-22T19:48:34Z</time>
      </trkpt>
      <trkpt lat="39.578720" lon="-6.457404">
        <ele>393.019</ele>
        <time>2019-06-22T19:48:35Z</time>
      </trkpt>
      <trkpt lat="39.578459" lon="-6.457247">
        <ele>391.809</ele>
        <time>2019-06-22T19:48:36Z</time>
      </trkpt>
      <trkpt lat="39.578193" lon="-6.457088">
        <ele>391.019</ele>
        <time>2019-06-22T19:48:37Z</time>
      </trkpt>
      <trkpt lat="39.577946" lon="-6.456941">
        <ele>390.408</ele>
        <time>2019-06-22T19:48:38Z</time>
      </trkpt>
      <trkpt lat="39.577689" lon="-6.456786">
        <ele>390.234</ele>
        <time>2019-06-22T19:48:39Z</time>
      </trkpt>
      <trkpt lat="39.577430" lon="-6.456631">
        <ele>389.638</ele>
        <time>2019-06-22T19:48:40Z</time>
      </trkpt>
      <trkpt lat="39.577174" lon="-6.456472">
        <ele>388.850</ele>
        <time>2019-06-22T19:48:41Z</time>
      </trkpt>
      <trkpt lat="39.576916" lon="-6.456323">
        <ele>388.482</ele>
        <time>2019-06-22T19:48:42Z</time>
      </trkpt>
      <trkpt lat="39.576661" lon="-6.456173">
        <ele>387.910</ele>
        <time>2019-06-22T19:48:43Z</time>
      </trkpt>
      <trkpt lat="39.576405" lon="-6.456022">
        <ele>387.279</ele>
        <time>2019-06-22T19:48:44Z</time>
      </trkpt>
      <trkpt lat="39.576145" lon="-6.455868">
        <ele>386.654</ele>
        <time>2019-06-22T19:48:45Z</time>
      </trkpt>
      <trkpt lat="39.575889" lon="-6.455719">
        <ele>386.337</ele>
        <time>2019-06-22T19:48:46Z</time>
      </trkpt>
      <trkpt lat="39.575637" lon="-6.455560">
        <ele>386.121</ele>
        <time>2019-06-22T19:48:47Z</time>
      </trkpt>
      <trkpt lat="39.575380" lon="-6.455406">
        <ele>385.641</ele>
        <time>2019-06-22T19:48:48Z</time>
      </trkpt>
      <trkpt lat="39.575124" lon="-6.455250">
        <ele>385.105</ele>
        <time>2019-06-22T19:48:49Z</time>
      </trkpt>
      <trkpt lat="39.574870" lon="-6.455098">
        <ele>384.708</ele>
        <time>2019-06-22T19:48:50Z</time>
      </trkpt>
      <trkpt lat="39.574617" lon="-6.454950">
        <ele>384.335</ele>
        <time>2019-06-22T19:48:51Z</time>
      </trkpt>
      <trkpt lat="39.574361" lon="-6.454792">
        <ele>383.699</ele>
        <time>2019-06-22T19:48:52Z</time>
      </trkpt>
      <trkpt lat="39.574117" lon="-6.454658">
        <ele>382.981</ele>
        <time>2019-06-22T19:48:53Z</time>
      </trkpt>
      <trkpt lat="39.573861" lon="-6.454532">
        <ele>382.433</ele>
        <time>2019-06-22T19:48:54Z</time>
      </trkpt>
      <trkpt lat="39.573600" lon="-6.454405">
        <ele>382.371</ele>
        <time>2019-06-22T19:48:55Z</time>
      </trkpt>
      <trkpt lat="39.573340" lon="-6.454284">
        <ele>382.160</ele>
        <time>2019-06-22T19:48:56Z</time>
      </trkpt>
      <trkpt lat="39.573076" lon="-6.454179">
        <ele>382.055</ele>
        <time>2019-06-22T19:48:57Z</time>
      </trkpt>
      <trkpt lat="39.572811" lon="-6.454086">
        <ele>381.988</ele>
        <time>2019-06-22T19:48:58Z</time>
      </trkpt>
      <trkpt lat="39.572549" lon="-6.453991">
        <ele>381.878</ele>
        <time>2019-06-22T19:48:59Z</time>
      </trkpt>
      <trkpt lat="39.572287" lon="-6.453893">
        <ele>381.833</ele>
        <time>2019-06-22T19:49:00Z</time>
      </trkpt>
      <trkpt lat="39.572025" lon="-6.453801">
        <ele>381.826</ele>
        <time>2019-06-22T19:49:01Z</time>
      </trkpt>
      <trkpt lat="39.571763" lon="-6.453710">
        <ele>381.808</ele>
        <time>2019-06-22T19:49:02Z</time>
      </trkpt>
      <trkpt lat="39.571509" lon="-6.453619">
        <ele>381.950</ele>
        <time>2019-06-22T19:49:03Z</time>
      </trkpt>
      <trkpt lat="39.571260" lon="-6.453530">
        <ele>382.794</ele>
        <time>2019-06-22T19:49:04Z</time>
      </trkpt>
      <trkpt lat="39.571005" lon="-6.453448">
        <ele>383.156</ele>
        <time>2019-06-22T19:49:05Z</time>
      </trkpt>
      <trkpt lat="39.570757" lon="-6.453365">
        <ele>384.298</ele>
        <time>2019-06-22T19:49:06Z</time>
      </trkpt>
      <trkpt lat="39.570517" lon="-6.453280">
        <ele>385.756</ele>
        <time>2019-06-22T19:49:07Z</time>
      </trkpt>
      <trkpt lat="39.570270" lon="-6.453198">
        <ele>387.245</ele>
        <time>2019-06-22T19:49:08Z</time>
      </trkpt>
      <trkpt lat="39.570022" lon="-6.453117">
        <ele>388.590</ele>
        <time>2019-06-22T19:49:09Z</time>
      </trkpt>
      <trkpt lat="39.569782" lon="-6.453023">
        <ele>390.083</ele>
        <time>2019-06-22T19:49:10Z</time>
      </trkpt>
      <trkpt lat="39.569547" lon="-6.452917">
        <ele>391.828</ele>
        <time>2019-06-22T19:49:11Z</time>
      </trkpt>
      <trkpt lat="39.569325" lon="-6.452813">
        <ele>392.989</ele>
        <time>2019-06-22T19:49:12Z</time>
      </trkpt>
      <trkpt lat="39.569091" lon="-6.452692">
        <ele>392.917</ele>
        <time>2019-06-22T19:49:13Z</time>
      </trkpt>
      <trkpt lat="39.568862" lon="-6.452563">
        <ele>393.008</ele>
        <time>2019-06-22T19:49:14Z</time>
      </trkpt>
      <trkpt lat="39.568628" lon="-6.452444">
        <ele>393.235</ele>
        <time>2019-06-22T19:49:15Z</time>
      </trkpt>
      <trkpt lat="39.568394" lon="-6.452334">
        <ele>393.059</ele>
        <time>2019-06-22T19:49:16Z</time>
      </trkpt>
      <trkpt lat="39.568158" lon="-6.452220">
        <ele>393.011</ele>
        <time>2019-06-22T19:49:17Z</time>
      </trkpt>
      <trkpt lat="39.567924" lon="-6.452103">
        <ele>392.873</ele>
        <time>2019-06-22T19:49:18Z</time>
      </trkpt>
      <trkpt lat="39.567693" lon="-6.451994">
        <ele>392.811</ele>
        <time>2019-06-22T19:49:19Z</time>
      </trkpt>
      <trkpt lat="39.567462" lon="-6.451871">
        <ele>393.530</ele>
        <time>2019-06-22T19:49:20Z</time>
      </trkpt>
      <trkpt lat="39.567229" lon="-6.451750">
        <ele>393.615</ele>
        <time>2019-06-22T19:49:21Z</time>
      </trkpt>
      <trkpt lat="39.567001" lon="-6.451629">
        <ele>393.728</ele>
        <time>2019-06-22T19:49:22Z</time>
      </trkpt>
      <trkpt lat="39.566770" lon="-6.451495">
        <ele>394.248</ele>
        <time>2019-06-22T19:49:23Z</time>
      </trkpt>
      <trkpt lat="39.566536" lon="-6.451379">
        <ele>394.861</ele>
        <time>2019-06-22T19:49:24Z</time>
      </trkpt>
      <trkpt lat="39.566306" lon="-6.451263">
        <ele>395.117</ele>
        <time>2019-06-22T19:49:25Z</time>
      </trkpt>
      <trkpt lat="39.566077" lon="-6.451145">
        <ele>395.608</ele>
        <time>2019-06-22T19:49:26Z</time>
      </trkpt>
      <trkpt lat="39.565845" lon="-6.451032">
        <ele>396.247</ele>
        <time>2019-06-22T19:49:27Z</time>
      </trkpt>
      <trkpt lat="39.565618" lon="-6.450919">
        <ele>396.821</ele>
        <time>2019-06-22T19:49:28Z</time>
      </trkpt>
      <trkpt lat="39.565395" lon="-6.450802">
        <ele>397.353</ele>
        <time>2019-06-22T19:49:29Z</time>
      </trkpt>
      <trkpt lat="39.565166" lon="-6.450683">
        <ele>398.245</ele>
        <time>2019-06-22T19:49:30Z</time>
      </trkpt>
      <trkpt lat="39.564945" lon="-6.450537">
        <ele>398.853</ele>
        <time>2019-06-22T19:49:31Z</time>
      </trkpt>
      <trkpt lat="39.564722" lon="-6.450384">
        <ele>399.272</ele>
        <time>2019-06-22T19:49:32Z</time>
      </trkpt>
      <trkpt lat="39.564510" lon="-6.450206">
        <ele>399.977</ele>
        <time>2019-06-22T19:49:33Z</time>
      </trkpt>
      <trkpt lat="39.564301" lon="-6.450017">
        <ele>400.650</ele>
        <time>2019-06-22T19:49:34Z</time>
      </trkpt>
      <trkpt lat="39.564091" lon="-6.449827">
        <ele>400.667</ele>
        <time>2019-06-22T19:49:35Z</time>
      </trkpt>
      <trkpt lat="39.563885" lon="-6.449628">
        <ele>400.681</ele>
        <time>2019-06-22T19:49:36Z</time>
      </trkpt>
      <trkpt lat="39.563679" lon="-6.449430">
        <ele>400.219</ele>
        <time>2019-06-22T19:49:37Z</time>
      </trkpt>
      <trkpt lat="39.563465" lon="-6.449228">
        <ele>399.308</ele>
        <time>2019-06-22T19:49:38Z</time>
      </trkpt>
      <trkpt lat="39.563252" lon="-6.449025">
        <ele>398.069</ele>
        <time>2019-06-22T19:49:39Z</time>
      </trkpt>
      <trkpt lat="39.563046" lon="-6.448811">
        <ele>397.043</ele>
        <time>2019-06-22T19:49:40Z</time>
      </trkpt>
      <trkpt lat="39.562828" lon="-6.448600">
        <ele>396.095</ele>
        <time>2019-06-22T19:49:41Z</time>
      </trkpt>
      <trkpt lat="39.562659" lon="-6.448334">
        <ele>395.527</ele>
        <time>2019-06-22T19:49:42Z</time>
      </trkpt>
      <trkpt lat="39.562487" lon="-6.448067">
        <ele>394.875</ele>
        <time>2019-06-22T19:49:43Z</time>
      </trkpt>
      <trkpt lat="39.562339" lon="-6.447781">
        <ele>394.384</ele>
        <time>2019-06-22T19:49:44Z</time>
      </trkpt>
      <trkpt lat="39.562193" lon="-6.447507">
        <ele>393.949</ele>
        <time>2019-06-22T19:49:45Z</time>
      </trkpt>
      <trkpt lat="39.562050" lon="-6.447214">
        <ele>393.472</ele>
        <time>2019-06-22T19:49:46Z</time>
      </trkpt>
      <trkpt lat="39.561913" lon="-6.446950">
        <ele>392.565</ele>
        <time>2019-06-22T19:49:47Z</time>
      </trkpt>
      <trkpt lat="39.561779" lon="-6.446700">
        <ele>391.868</ele>
        <time>2019-06-22T19:49:48Z</time>
      </trkpt>
      <trkpt lat="39.561651" lon="-6.446461">
        <ele>391.314</ele>
        <time>2019-06-22T19:49:49Z</time>
      </trkpt>
      <trkpt lat="39.561517" lon="-6.446241">
        <ele>391.308</ele>
        <time>2019-06-22T19:49:50Z</time>
      </trkpt>
      <trkpt lat="39.561381" lon="-6.446032">
        <ele>391.379</ele>
        <time>2019-06-22T19:49:51Z</time>
      </trkpt>
      <trkpt lat="39.561225" lon="-6.445845">
        <ele>391.483</ele>
        <time>2019-06-22T19:49:52Z</time>
      </trkpt>
      <trkpt lat="39.561051" lon="-6.445677">
        <ele>392.475</ele>
        <time>2019-06-22T19:49:53Z</time>
      </trkpt>
      <trkpt lat="39.560871" lon="-6.445519">
        <ele>393.217</ele>
        <time>2019-06-22T19:49:54Z</time>
      </trkpt>
      <trkpt lat="39.560704" lon="-6.445372">
        <ele>393.215</ele>
        <time>2019-06-22T19:49:55Z</time>
      </trkpt>
      <trkpt lat="39.560545" lon="-6.445247">
        <ele>391.644</ele>
        <time>2019-06-22T19:49:56Z</time>
      </trkpt>
      <trkpt lat="39.560393" lon="-6.445133">
        <ele>390.179</ele>
        <time>2019-06-22T19:49:57Z</time>
      </trkpt>
      <trkpt lat="39.560249" lon="-6.445018">
        <ele>389.052</ele>
        <time>2019-06-22T19:49:58Z</time>
      </trkpt>
      <trkpt lat="39.560105" lon="-6.444912">
        <ele>388.571</ele>
        <time>2019-06-22T19:49:59Z</time>
      </trkpt>
      <trkpt lat="39.559954" lon="-6.444786">
        <ele>388.541</ele>
        <time>2019-06-22T19:50:00Z</time>
      </trkpt>
      <trkpt lat="39.559797" lon="-6.444656">
        <ele>389.515</ele>
        <time>2019-06-22T19:50:01Z</time>
      </trkpt>
      <trkpt lat="39.559662" lon="-6.444526">
        <ele>391.808</ele>
        <time>2019-06-22T19:50:02Z</time>
      </trkpt>
      <trkpt lat="39.559467" lon="-6.444390">
        <ele>392.950</ele>
        <time>2019-06-22T19:50:03Z</time>
      </trkpt>
      <trkpt lat="39.559279" lon="-6.444253">
        <ele>393.874</ele>
        <time>2019-06-22T19:50:04Z</time>
      </trkpt>
      <trkpt lat="39.559097" lon="-6.444111">
        <ele>394.636</ele>
        <time>2019-06-22T19:50:05Z</time>
      </trkpt>
      <trkpt lat="39.558903" lon="-6.443957">
        <ele>395.118</ele>
        <time>2019-06-22T19:50:06Z</time>
      </trkpt>
      <trkpt lat="39.558714" lon="-6.443810">
        <ele>395.766</ele>
        <time>2019-06-22T19:50:07Z</time>
      </trkpt>
      <trkpt lat="39.558516" lon="-6.443648">
        <ele>395.825</ele>
        <time>2019-06-22T19:50:08Z</time>
      </trkpt>
      <trkpt lat="39.558317" lon="-6.443491">
        <ele>395.920</ele>
        <time>2019-06-22T19:50:09Z</time>
      </trkpt>
      <trkpt lat="39.558112" lon="-6.443329">
        <ele>396.073</ele>
        <time>2019-06-22T19:50:10Z</time>
      </trkpt>
      <trkpt lat="39.557903" lon="-6.443170">
        <ele>396.019</ele>
        <time>2019-06-22T19:50:11Z</time>
      </trkpt>
      <trkpt lat="39.557704" lon="-6.443010">
        <ele>395.109</ele>
        <time>2019-06-22T19:50:12Z</time>
      </trkpt>
      <trkpt lat="39.557500" lon="-6.442850">
        <ele>394.819</ele>
        <time>2019-06-22T19:50:13Z</time>
      </trkpt>
      <trkpt lat="39.557299" lon="-6.442675">
        <ele>394.608</ele>
        <time>2019-06-22T19:50:14Z</time>
      </trkpt>
      <trkpt lat="39.557086" lon="-6.442515">
        <ele>393.494</ele>
        <time>2019-06-22T19:50:15Z</time>
      </trkpt>
      <trkpt lat="39.556875" lon="-6.442351">
        <ele>392.988</ele>
        <time>2019-06-22T19:50:16Z</time>
      </trkpt>
      <trkpt lat="39.556664" lon="-6.442185">
        <ele>392.840</ele>
        <time>2019-06-22T19:50:17Z</time>
      </trkpt>
      <trkpt lat="39.556448" lon="-6.442026">
        <ele>392.822</ele>
        <time>2019-06-22T19:50:18Z</time>
      </trkpt>
      <trkpt lat="39.556228" lon="-6.441885">
        <ele>392.760</ele>
        <time>2019-06-22T19:50:19Z</time>
      </trkpt>
      <trkpt lat="39.556000" lon="-6.441751">
        <ele>392.719</ele>
        <time>2019-06-22T19:50:20Z</time>
      </trkpt>
      <trkpt lat="39.555765" lon="-6.441621">
        <ele>392.794</ele>
        <time>2019-06-22T19:50:21Z</time>
      </trkpt>
      <trkpt lat="39.555532" lon="-6.441487">
        <ele>393.167</ele>
        <time>2019-06-22T19:50:22Z</time>
      </trkpt>
      <trkpt lat="39.555294" lon="-6.441362">
        <ele>393.427</ele>
        <time>2019-06-22T19:50:23Z</time>
      </trkpt>
      <trkpt lat="39.555064" lon="-6.441236">
        <ele>393.468</ele>
        <time>2019-06-22T19:50:24Z</time>
      </trkpt>
      <trkpt lat="39.554834" lon="-6.441118">
        <ele>393.314</ele>
        <time>2019-06-22T19:50:25Z</time>
      </trkpt>
      <trkpt lat="39.554610" lon="-6.441000">
        <ele>393.108</ele>
        <time>2019-06-22T19:50:26Z</time>
      </trkpt>
      <trkpt lat="39.554384" lon="-6.440888">
        <ele>392.675</ele>
        <time>2019-06-22T19:50:27Z</time>
      </trkpt>
      <trkpt lat="39.554167" lon="-6.440775">
        <ele>392.559</ele>
        <time>2019-06-22T19:50:28Z</time>
      </trkpt>
      <trkpt lat="39.553949" lon="-6.440664">
        <ele>392.541</ele>
        <time>2019-06-22T19:50:29Z</time>
      </trkpt>
      <trkpt lat="39.553741" lon="-6.440545">
        <ele>393.073</ele>
        <time>2019-06-22T19:50:30Z</time>
      </trkpt>
      <trkpt lat="39.553527" lon="-6.440433">
        <ele>393.731</ele>
        <time>2019-06-22T19:50:31Z</time>
      </trkpt>
      <trkpt lat="39.553310" lon="-6.440313">
        <ele>394.820</ele>
        <time>2019-06-22T19:50:32Z</time>
      </trkpt>
      <trkpt lat="39.553084" lon="-6.440197">
        <ele>396.075</ele>
        <time>2019-06-22T19:50:33Z</time>
      </trkpt>
      <trkpt lat="39.552864" lon="-6.440082">
        <ele>396.948</ele>
        <time>2019-06-22T19:50:34Z</time>
      </trkpt>
      <trkpt lat="39.552638" lon="-6.439953">
        <ele>396.935</ele>
        <time>2019-06-22T19:50:35Z</time>
      </trkpt>
      <trkpt lat="39.552406" lon="-6.439848">
        <ele>396.386</ele>
        <time>2019-06-22T19:50:36Z</time>
      </trkpt>
      <trkpt lat="39.552164" lon="-6.439735">
        <ele>395.914</ele>
        <time>2019-06-22T19:50:37Z</time>
      </trkpt>
      <trkpt lat="39.551932" lon="-6.439612">
        <ele>395.208</ele>
        <time>2019-06-22T19:50:38Z</time>
      </trkpt>
      <trkpt lat="39.551709" lon="-6.439479">
        <ele>394.536</ele>
        <time>2019-06-22T19:50:39Z</time>
      </trkpt>
      <trkpt lat="39.551492" lon="-6.439367">
        <ele>394.530</ele>
        <time>2019-06-22T19:50:40Z</time>
      </trkpt>
      <trkpt lat="39.551263" lon="-6.439248">
        <ele>394.552</ele>
        <time>2019-06-22T19:50:41Z</time>
      </trkpt>
      <trkpt lat="39.551049" lon="-6.439163">
        <ele>394.514</ele>
        <time>2019-06-22T19:50:42Z</time>
      </trkpt>
      <trkpt lat="39.550845" lon="-6.439076">
        <ele>394.542</ele>
        <time>2019-06-22T19:50:43Z</time>
      </trkpt>
      <trkpt lat="39.550668" lon="-6.438983">
        <ele>394.581</ele>
        <time>2019-06-22T19:50:44Z</time>
      </trkpt>
      <trkpt lat="39.550495" lon="-6.438886">
        <ele>394.856</ele>
        <time>2019-06-22T19:50:45Z</time>
      </trkpt>
      <trkpt lat="39.550307" lon="-6.438790">
        <ele>396.029</ele>
        <time>2019-06-22T19:50:46Z</time>
      </trkpt>
      <trkpt lat="39.550118" lon="-6.438671">
        <ele>397.576</ele>
        <time>2019-06-22T19:50:47Z</time>
      </trkpt>
      <trkpt lat="39.549920" lon="-6.438550">
        <ele>398.690</ele>
        <time>2019-06-22T19:50:48Z</time>
      </trkpt>
      <trkpt lat="39.549720" lon="-6.438434">
        <ele>400.219</ele>
        <time>2019-06-22T19:50:49Z</time>
      </trkpt>
      <trkpt lat="39.549514" lon="-6.438308">
        <ele>401.408</ele>
        <time>2019-06-22T19:50:50Z</time>
      </trkpt>
      <trkpt lat="39.549306" lon="-6.438181">
        <ele>401.520</ele>
        <time>2019-06-22T19:50:51Z</time>
      </trkpt>
      <trkpt lat="39.549094" lon="-6.438045">
        <ele>401.664</ele>
        <time>2019-06-22T19:50:52Z</time>
      </trkpt>
      <trkpt lat="39.548882" lon="-6.437894">
        <ele>401.956</ele>
        <time>2019-06-22T19:50:53Z</time>
      </trkpt>
      <trkpt lat="39.548682" lon="-6.437754">
        <ele>401.978</ele>
        <time>2019-06-22T19:50:54Z</time>
      </trkpt>
      <trkpt lat="39.548468" lon="-6.437608">
        <ele>401.726</ele>
        <time>2019-06-22T19:50:55Z</time>
      </trkpt>
      <trkpt lat="39.548255" lon="-6.437461">
        <ele>401.275</ele>
        <time>2019-06-22T19:50:56Z</time>
      </trkpt>
      <trkpt lat="39.548044" lon="-6.437322">
        <ele>400.650</ele>
        <time>2019-06-22T19:50:57Z</time>
      </trkpt>
      <trkpt lat="39.547836" lon="-6.437184">
        <ele>400.633</ele>
        <time>2019-06-22T19:50:58Z</time>
      </trkpt>
      <trkpt lat="39.547625" lon="-6.437035">
        <ele>400.623</ele>
        <time>2019-06-22T19:50:59Z</time>
      </trkpt>
      <trkpt lat="39.547412" lon="-6.436883">
        <ele>402.083</ele>
        <time>2019-06-22T19:51:00Z</time>
      </trkpt>
      <trkpt lat="39.547197" lon="-6.436736">
        <ele>403.311</ele>
        <time>2019-06-22T19:51:01Z</time>
      </trkpt>
      <trkpt lat="39.546978" lon="-6.436589">
        <ele>404.208</ele>
        <time>2019-06-22T19:51:02Z</time>
      </trkpt>
      <trkpt lat="39.546756" lon="-6.436454">
        <ele>404.545</ele>
        <time>2019-06-22T19:51:03Z</time>
      </trkpt>
      <trkpt lat="39.546536" lon="-6.436330">
        <ele>404.579</ele>
        <time>2019-06-22T19:51:04Z</time>
      </trkpt>
      <trkpt lat="39.546307" lon="-6.436215">
        <ele>404.361</ele>
        <time>2019-06-22T19:51:05Z</time>
      </trkpt>
      <trkpt lat="39.546072" lon="-6.436106">
        <ele>404.263</ele>
        <time>2019-06-22T19:51:06Z</time>
      </trkpt>
      <trkpt lat="39.545831" lon="-6.436020">
        <ele>404.131</ele>
        <time>2019-06-22T19:51:07Z</time>
      </trkpt>
      <trkpt lat="39.545590" lon="-6.435938">
        <ele>404.150</ele>
        <time>2019-06-22T19:51:08Z</time>
      </trkpt>
      <trkpt lat="39.545344" lon="-6.435855">
        <ele>403.835</ele>
        <time>2019-06-22T19:51:09Z</time>
      </trkpt>
      <trkpt lat="39.545101" lon="-6.435768">
        <ele>403.868</ele>
        <time>2019-06-22T19:51:10Z</time>
      </trkpt>
      <trkpt lat="39.544863" lon="-6.435674">
        <ele>403.981</ele>
        <time>2019-06-22T19:51:11Z</time>
      </trkpt>
      <trkpt lat="39.544619" lon="-6.435586">
        <ele>404.061</ele>
        <time>2019-06-22T19:51:12Z</time>
      </trkpt>
      <trkpt lat="39.544372" lon="-6.435497">
        <ele>404.217</ele>
        <time>2019-06-22T19:51:13Z</time>
      </trkpt>
      <trkpt lat="39.544125" lon="-6.435409">
        <ele>404.808</ele>
        <time>2019-06-22T19:51:14Z</time>
      </trkpt>
      <trkpt lat="39.543875" lon="-6.435321">
        <ele>405.971</ele>
        <time>2019-06-22T19:51:15Z</time>
      </trkpt>
      <trkpt lat="39.543627" lon="-6.435235">
        <ele>406.265</ele>
        <time>2019-06-22T19:51:16Z</time>
      </trkpt>
      <trkpt lat="39.543379" lon="-6.435148">
        <ele>406.627</ele>
        <time>2019-06-22T19:51:17Z</time>
      </trkpt>
      <trkpt lat="39.543135" lon="-6.435061">
        <ele>407.119</ele>
        <time>2019-06-22T19:51:18Z</time>
      </trkpt>
      <trkpt lat="39.542893" lon="-6.434977">
        <ele>408.257</ele>
        <time>2019-06-22T19:51:19Z</time>
      </trkpt>
      <trkpt lat="39.542657" lon="-6.434888">
        <ele>409.036</ele>
        <time>2019-06-22T19:51:20Z</time>
      </trkpt>
      <trkpt lat="39.542424" lon="-6.434801">
        <ele>409.481</ele>
        <time>2019-06-22T19:51:21Z</time>
      </trkpt>
      <trkpt lat="39.542197" lon="-6.434704">
        <ele>409.454</ele>
        <time>2019-06-22T19:51:22Z</time>
      </trkpt>
      <trkpt lat="39.541956" lon="-6.434626">
        <ele>409.438</ele>
        <time>2019-06-22T19:51:23Z</time>
      </trkpt>
      <trkpt lat="39.541727" lon="-6.434542">
        <ele>409.470</ele>
        <time>2019-06-22T19:51:24Z</time>
      </trkpt>
      <trkpt lat="39.541498" lon="-6.434463">
        <ele>409.317</ele>
        <time>2019-06-22T19:51:25Z</time>
      </trkpt>
      <trkpt lat="39.541262" lon="-6.434399">
        <ele>409.008</ele>
        <time>2019-06-22T19:51:26Z</time>
      </trkpt>
      <trkpt lat="39.541031" lon="-6.434307">
        <ele>409.086</ele>
        <time>2019-06-22T19:51:27Z</time>
      </trkpt>
      <trkpt lat="39.540800" lon="-6.434208">
        <ele>409.990</ele>
        <time>2019-06-22T19:51:28Z</time>
      </trkpt>
      <trkpt lat="39.540566" lon="-6.434127">
        <ele>410.282</ele>
        <time>2019-06-22T19:51:29Z</time>
      </trkpt>
      <trkpt lat="39.540316" lon="-6.434047">
        <ele>410.924</ele>
        <time>2019-06-22T19:51:30Z</time>
      </trkpt>
      <trkpt lat="39.540072" lon="-6.433978">
        <ele>410.982</ele>
        <time>2019-06-22T19:51:31Z</time>
      </trkpt>
      <trkpt lat="39.539813" lon="-6.433918">
        <ele>410.431</ele>
        <time>2019-06-22T19:51:32Z</time>
      </trkpt>
      <trkpt lat="39.539558" lon="-6.433888">
        <ele>409.766</ele>
        <time>2019-06-22T19:51:33Z</time>
      </trkpt>
      <trkpt lat="39.539309" lon="-6.433860">
        <ele>408.929</ele>
        <time>2019-06-22T19:51:34Z</time>
      </trkpt>
      <trkpt lat="39.539055" lon="-6.433852">
        <ele>407.759</ele>
        <time>2019-06-22T19:51:35Z</time>
      </trkpt>
      <trkpt lat="39.538801" lon="-6.433850">
        <ele>407.003</ele>
        <time>2019-06-22T19:51:36Z</time>
      </trkpt>
      <trkpt lat="39.538552" lon="-6.433870">
        <ele>406.723</ele>
        <time>2019-06-22T19:51:37Z</time>
      </trkpt>
      <trkpt lat="39.538304" lon="-6.433896">
        <ele>406.708</ele>
        <time>2019-06-22T19:51:38Z</time>
      </trkpt>
      <trkpt lat="39.538059" lon="-6.433930">
        <ele>406.988</ele>
        <time>2019-06-22T19:51:39Z</time>
      </trkpt>
      <trkpt lat="39.537814" lon="-6.433966">
        <ele>408.162</ele>
        <time>2019-06-22T19:51:40Z</time>
      </trkpt>
      <trkpt lat="39.537569" lon="-6.434003">
        <ele>409.354</ele>
        <time>2019-06-22T19:51:41Z</time>
      </trkpt>
      <trkpt lat="39.537324" lon="-6.434037">
        <ele>411.766</ele>
        <time>2019-06-22T19:51:42Z</time>
      </trkpt>
      <trkpt lat="39.537088" lon="-6.434062">
        <ele>413.844</ele>
        <time>2019-06-22T19:51:43Z</time>
      </trkpt>
      <trkpt lat="39.536848" lon="-6.434085">
        <ele>415.753</ele>
        <time>2019-06-22T19:51:44Z</time>
      </trkpt>
      <trkpt lat="39.536625" lon="-6.434095">
        <ele>416.978</ele>
        <time>2019-06-22T19:51:45Z</time>
      </trkpt>
      <trkpt lat="39.536393" lon="-6.434092">
        <ele>418.421</ele>
        <time>2019-06-22T19:51:46Z</time>
      </trkpt>
      <trkpt lat="39.536150" lon="-6.434060">
        <ele>419.271</ele>
        <time>2019-06-22T19:51:47Z</time>
      </trkpt>
      <trkpt lat="39.535912" lon="-6.434019">
        <ele>419.241</ele>
        <time>2019-06-22T19:51:48Z</time>
      </trkpt>
      <trkpt lat="39.535684" lon="-6.433968">
        <ele>419.015</ele>
        <time>2019-06-22T19:51:49Z</time>
      </trkpt>
      <trkpt lat="39.535459" lon="-6.433883">
        <ele>418.908</ele>
        <time>2019-06-22T19:51:50Z</time>
      </trkpt>
      <trkpt lat="39.535231" lon="-6.433783">
        <ele>418.870</ele>
        <time>2019-06-22T19:51:51Z</time>
      </trkpt>
      <trkpt lat="39.534977" lon="-6.433644">
        <ele>417.894</ele>
        <time>2019-06-22T19:51:52Z</time>
      </trkpt>
      <trkpt lat="39.534748" lon="-6.433514">
        <ele>416.826</ele>
        <time>2019-06-22T19:51:53Z</time>
      </trkpt>
      <trkpt lat="39.534520" lon="-6.433387">
        <ele>416.548</ele>
        <time>2019-06-22T19:51:54Z</time>
      </trkpt>
      <trkpt lat="39.534288" lon="-6.433269">
        <ele>415.776</ele>
        <time>2019-06-22T19:51:55Z</time>
      </trkpt>
      <trkpt lat="39.534047" lon="-6.433137">
        <ele>414.945</ele>
        <time>2019-06-22T19:51:56Z</time>
      </trkpt>
      <trkpt lat="39.533804" lon="-6.433021">
        <ele>414.480</ele>
        <time>2019-06-22T19:51:57Z</time>
      </trkpt>
      <trkpt lat="39.533554" lon="-6.432904">
        <ele>413.943</ele>
        <time>2019-06-22T19:51:58Z</time>
      </trkpt>
      <trkpt lat="39.533308" lon="-6.432778">
        <ele>413.958</ele>
        <time>2019-06-22T19:51:59Z</time>
      </trkpt>
      <trkpt lat="39.533054" lon="-6.432652">
        <ele>414.152</ele>
        <time>2019-06-22T19:52:00Z</time>
      </trkpt>
      <trkpt lat="39.532797" lon="-6.432532">
        <ele>414.117</ele>
        <time>2019-06-22T19:52:01Z</time>
      </trkpt>
      <trkpt lat="39.532540" lon="-6.432410">
        <ele>413.808</ele>
        <time>2019-06-22T19:52:02Z</time>
      </trkpt>
      <trkpt lat="39.532287" lon="-6.432283">
        <ele>413.398</ele>
        <time>2019-06-22T19:52:03Z</time>
      </trkpt>
      <trkpt lat="39.532028" lon="-6.432162">
        <ele>412.992</ele>
        <time>2019-06-22T19:52:04Z</time>
      </trkpt>
      <trkpt lat="39.531772" lon="-6.432036">
        <ele>412.134</ele>
        <time>2019-06-22T19:52:05Z</time>
      </trkpt>
      <trkpt lat="39.531517" lon="-6.431908">
        <ele>411.876</ele>
        <time>2019-06-22T19:52:06Z</time>
      </trkpt>
      <trkpt lat="39.531265" lon="-6.431774">
        <ele>411.694</ele>
        <time>2019-06-22T19:52:07Z</time>
      </trkpt>
      <trkpt lat="39.531010" lon="-6.431646">
        <ele>411.443</ele>
        <time>2019-06-22T19:52:08Z</time>
      </trkpt>
      <trkpt lat="39.530757" lon="-6.431526">
        <ele>411.338</ele>
        <time>2019-06-22T19:52:09Z</time>
      </trkpt>
      <trkpt lat="39.530498" lon="-6.431401">
        <ele>411.381</ele>
        <time>2019-06-22T19:52:10Z</time>
      </trkpt>
      <trkpt lat="39.530240" lon="-6.431273">
        <ele>411.461</ele>
        <time>2019-06-22T19:52:11Z</time>
      </trkpt>
      <trkpt lat="39.529987" lon="-6.431148">
        <ele>411.921</ele>
        <time>2019-06-22T19:52:12Z</time>
      </trkpt>
      <trkpt lat="39.529734" lon="-6.431026">
        <ele>412.413</ele>
        <time>2019-06-22T19:52:13Z</time>
      </trkpt>
      <trkpt lat="39.529485" lon="-6.430903">
        <ele>412.708</ele>
        <time>2019-06-22T19:52:14Z</time>
      </trkpt>
      <trkpt lat="39.529236" lon="-6.430777">
        <ele>413.199</ele>
        <time>2019-06-22T19:52:15Z</time>
      </trkpt>
      <trkpt lat="39.528991" lon="-6.430663">
        <ele>413.413</ele>
        <time>2019-06-22T19:52:16Z</time>
      </trkpt>
      <trkpt lat="39.528740" lon="-6.430539">
        <ele>413.625</ele>
        <time>2019-06-22T19:52:17Z</time>
      </trkpt>
      <trkpt lat="39.528504" lon="-6.430413">
        <ele>414.127</ele>
        <time>2019-06-22T19:52:18Z</time>
      </trkpt>
      <trkpt lat="39.528253" lon="-6.430288">
        <ele>414.395</ele>
        <time>2019-06-22T19:52:19Z</time>
      </trkpt>
      <trkpt lat="39.528008" lon="-6.430171">
        <ele>414.644</ele>
        <time>2019-06-22T19:52:20Z</time>
      </trkpt>
      <trkpt lat="39.527764" lon="-6.430051">
        <ele>414.829</ele>
        <time>2019-06-22T19:52:21Z</time>
      </trkpt>
      <trkpt lat="39.527520" lon="-6.429933">
        <ele>415.452</ele>
        <time>2019-06-22T19:52:22Z</time>
      </trkpt>
      <trkpt lat="39.527278" lon="-6.429811">
        <ele>415.645</ele>
        <time>2019-06-22T19:52:23Z</time>
      </trkpt>
      <trkpt lat="39.527037" lon="-6.429689">
        <ele>416.247</ele>
        <time>2019-06-22T19:52:24Z</time>
      </trkpt>
      <trkpt lat="39.526794" lon="-6.429574">
        <ele>416.911</ele>
        <time>2019-06-22T19:52:25Z</time>
      </trkpt>
      <trkpt lat="39.526548" lon="-6.429456">
        <ele>417.808</ele>
        <time>2019-06-22T19:52:26Z</time>
      </trkpt>
      <trkpt lat="39.526311" lon="-6.429330">
        <ele>417.897</ele>
        <time>2019-06-22T19:52:27Z</time>
      </trkpt>
      <trkpt lat="39.526068" lon="-6.429212">
        <ele>418.081</ele>
        <time>2019-06-22T19:52:28Z</time>
      </trkpt>
      <trkpt lat="39.525824" lon="-6.429097">
        <ele>418.073</ele>
        <time>2019-06-22T19:52:29Z</time>
      </trkpt>
      <trkpt lat="39.525582" lon="-6.428971">
        <ele>418.135</ele>
        <time>2019-06-22T19:52:30Z</time>
      </trkpt>
      <trkpt lat="39.525334" lon="-6.428856">
        <ele>418.123</ele>
        <time>2019-06-22T19:52:31Z</time>
      </trkpt>
      <trkpt lat="39.525085" lon="-6.428737">
        <ele>418.352</ele>
        <time>2019-06-22T19:52:32Z</time>
      </trkpt>
      <trkpt lat="39.524850" lon="-6.428608">
        <ele>418.557</ele>
        <time>2019-06-22T19:52:33Z</time>
      </trkpt>
      <trkpt lat="39.524610" lon="-6.428506">
        <ele>418.570</ele>
        <time>2019-06-22T19:52:34Z</time>
      </trkpt>
      <trkpt lat="39.524380" lon="-6.428389">
        <ele>417.578</ele>
        <time>2019-06-22T19:52:35Z</time>
      </trkpt>
      <trkpt lat="39.524169" lon="-6.428267">
        <ele>415.933</ele>
        <time>2019-06-22T19:52:36Z</time>
      </trkpt>
      <trkpt lat="39.523939" lon="-6.428147">
        <ele>415.926</ele>
        <time>2019-06-22T19:52:37Z</time>
      </trkpt>
      <trkpt lat="39.523716" lon="-6.428023">
        <ele>416.108</ele>
        <time>2019-06-22T19:52:38Z</time>
      </trkpt>
      <trkpt lat="39.523485" lon="-6.427907">
        <ele>416.650</ele>
        <time>2019-06-22T19:52:39Z</time>
      </trkpt>
      <trkpt lat="39.523254" lon="-6.427788">
        <ele>417.764</ele>
        <time>2019-06-22T19:52:40Z</time>
      </trkpt>
      <trkpt lat="39.523020" lon="-6.427684">
        <ele>419.726</ele>
        <time>2019-06-22T19:52:41Z</time>
      </trkpt>
      <trkpt lat="39.522802" lon="-6.427570">
        <ele>419.728</ele>
        <time>2019-06-22T19:52:42Z</time>
      </trkpt>
      <trkpt lat="39.522577" lon="-6.427452">
        <ele>419.726</ele>
        <time>2019-06-22T19:52:43Z</time>
      </trkpt>
      <trkpt lat="39.522360" lon="-6.427341">
        <ele>418.315</ele>
        <time>2019-06-22T19:52:44Z</time>
      </trkpt>
      <trkpt lat="39.522149" lon="-6.427236">
        <ele>417.490</ele>
        <time>2019-06-22T19:52:45Z</time>
      </trkpt>
      <trkpt lat="39.521946" lon="-6.427142">
        <ele>416.583</ele>
        <time>2019-06-22T19:52:46Z</time>
      </trkpt>
      <trkpt lat="39.521740" lon="-6.427049">
        <ele>415.488</ele>
        <time>2019-06-22T19:52:47Z</time>
      </trkpt>
      <trkpt lat="39.521553" lon="-6.426956">
        <ele>413.724</ele>
        <time>2019-06-22T19:52:48Z</time>
      </trkpt>
      <trkpt lat="39.521368" lon="-6.426867">
        <ele>412.326</ele>
        <time>2019-06-22T19:52:49Z</time>
      </trkpt>
      <trkpt lat="39.521194" lon="-6.426786">
        <ele>411.108</ele>
        <time>2019-06-22T19:52:50Z</time>
      </trkpt>
      <trkpt lat="39.521044" lon="-6.426685">
        <ele>410.221</ele>
        <time>2019-06-22T19:52:51Z</time>
      </trkpt>
      <trkpt lat="39.520895" lon="-6.426600">
        <ele>410.295</ele>
        <time>2019-06-22T19:52:52Z</time>
      </trkpt>
      <trkpt lat="39.520734" lon="-6.426540">
        <ele>410.857</ele>
        <time>2019-06-22T19:52:53Z</time>
      </trkpt>
      <trkpt lat="39.520580" lon="-6.426486">
        <ele>411.819</ele>
        <time>2019-06-22T19:52:54Z</time>
      </trkpt>
      <trkpt lat="39.520436" lon="-6.426435">
        <ele>413.427</ele>
        <time>2019-06-22T19:52:55Z</time>
      </trkpt>
      <trkpt lat="39.520291" lon="-6.426392">
        <ele>414.556</ele>
        <time>2019-06-22T19:52:56Z</time>
      </trkpt>
      <trkpt lat="39.520167" lon="-6.426361">
        <ele>414.811</ele>
        <time>2019-06-22T19:52:57Z</time>
      </trkpt>
      <trkpt lat="39.520062" lon="-6.426338">
        <ele>414.984</ele>
        <time>2019-06-22T19:52:58Z</time>
      </trkpt>
      <trkpt lat="39.519949" lon="-6.426339">
        <ele>415.333</ele>
        <time>2019-06-22T19:52:59Z</time>
      </trkpt>
      <trkpt lat="39.519853" lon="-6.426358">
        <ele>415.823</ele>
        <time>2019-06-22T19:53:00Z</time>
      </trkpt>
      <trkpt lat="39.519765" lon="-6.426377">
        <ele>416.215</ele>
        <time>2019-06-22T19:53:01Z</time>
      </trkpt>
      <trkpt lat="39.519685" lon="-6.426367">
        <ele>417.008</ele>
        <time>2019-06-22T19:53:02Z</time>
      </trkpt>
      <trkpt lat="39.519608" lon="-6.426331">
        <ele>418.276</ele>
        <time>2019-06-22T19:53:03Z</time>
      </trkpt>
      <trkpt lat="39.519533" lon="-6.426300">
        <ele>419.690</ele>
        <time>2019-06-22T19:53:04Z</time>
      </trkpt>
      <trkpt lat="39.519451" lon="-6.426251">
        <ele>420.552</ele>
        <time>2019-06-22T19:53:05Z</time>
      </trkpt>
      <trkpt lat="39.519354" lon="-6.426168">
        <ele>421.174</ele>
        <time>2019-06-22T19:53:06Z</time>
      </trkpt>
      <trkpt lat="39.519238" lon="-6.426122">
        <ele>421.142</ele>
        <time>2019-06-22T19:53:07Z</time>
      </trkpt>
      <trkpt lat="39.519103" lon="-6.426067">
        <ele>421.091</ele>
        <time>2019-06-22T19:53:08Z</time>
      </trkpt>
      <trkpt lat="39.518954" lon="-6.426030">
        <ele>420.816</ele>
        <time>2019-06-22T19:53:09Z</time>
      </trkpt>
      <trkpt lat="39.518797" lon="-6.425989">
        <ele>420.459</ele>
        <time>2019-06-22T19:53:10Z</time>
      </trkpt>
      <trkpt lat="39.518633" lon="-6.425939">
        <ele>419.948</ele>
        <time>2019-06-22T19:53:11Z</time>
      </trkpt>
      <trkpt lat="39.518463" lon="-6.425889">
        <ele>419.661</ele>
        <time>2019-06-22T19:53:12Z</time>
      </trkpt>
      <trkpt lat="39.518306" lon="-6.425836">
        <ele>419.417</ele>
        <time>2019-06-22T19:53:13Z</time>
      </trkpt>
      <trkpt lat="39.518134" lon="-6.425788">
        <ele>418.808</ele>
        <time>2019-06-22T19:53:14Z</time>
      </trkpt>
      <trkpt lat="39.517969" lon="-6.425725">
        <ele>417.927</ele>
        <time>2019-06-22T19:53:15Z</time>
      </trkpt>
      <trkpt lat="39.517789" lon="-6.425675">
        <ele>417.341</ele>
        <time>2019-06-22T19:53:16Z</time>
      </trkpt>
      <trkpt lat="39.517617" lon="-6.425613">
        <ele>416.683</ele>
        <time>2019-06-22T19:53:17Z</time>
      </trkpt>
      <trkpt lat="39.517447" lon="-6.425559">
        <ele>416.175</ele>
        <time>2019-06-22T19:53:18Z</time>
      </trkpt>
      <trkpt lat="39.517276" lon="-6.425514">
        <ele>415.643</ele>
        <time>2019-06-22T19:53:19Z</time>
      </trkpt>
      <trkpt lat="39.517111" lon="-6.425473">
        <ele>415.192</ele>
        <time>2019-06-22T19:53:20Z</time>
      </trkpt>
      <trkpt lat="39.516951" lon="-6.425448">
        <ele>414.257</ele>
        <time>2019-06-22T19:53:21Z</time>
      </trkpt>
      <trkpt lat="39.516800" lon="-6.425426">
        <ele>413.780</ele>
        <time>2019-06-22T19:53:22Z</time>
      </trkpt>
      <trkpt lat="39.516657" lon="-6.425410">
        <ele>413.484</ele>
        <time>2019-06-22T19:53:23Z</time>
      </trkpt>
      <trkpt lat="39.516518" lon="-6.425406">
        <ele>412.607</ele>
        <time>2019-06-22T19:53:24Z</time>
      </trkpt>
      <trkpt lat="39.516385" lon="-6.425420">
        <ele>411.917</ele>
        <time>2019-06-22T19:53:25Z</time>
      </trkpt>
      <trkpt lat="39.516254" lon="-6.425435">
        <ele>411.908</ele>
        <time>2019-06-22T19:53:26Z</time>
      </trkpt>
      <trkpt lat="39.516171" lon="-6.425467">
        <ele>411.841</ele>
        <time>2019-06-22T19:53:27Z</time>
      </trkpt>
      <trkpt lat="39.516076" lon="-6.425524">
        <ele>411.845</ele>
        <time>2019-06-22T19:53:28Z</time>
      </trkpt>
      <trkpt lat="39.515998" lon="-6.425597">
        <ele>412.097</ele>
        <time>2019-06-22T19:53:29Z</time>
      </trkpt>
      <trkpt lat="39.515919" lon="-6.425696">
        <ele>413.439</ele>
        <time>2019-06-22T19:53:30Z</time>
      </trkpt>
      <trkpt lat="39.515831" lon="-6.425795">
        <ele>414.937</ele>
        <time>2019-06-22T19:53:31Z</time>
      </trkpt>
      <trkpt lat="39.515723" lon="-6.425876">
        <ele>416.236</ele>
        <time>2019-06-22T19:53:32Z</time>
      </trkpt>
      <trkpt lat="39.515606" lon="-6.425925">
        <ele>417.671</ele>
        <time>2019-06-22T19:53:33Z</time>
      </trkpt>
      <trkpt lat="39.515483" lon="-6.425959">
        <ele>418.374</ele>
        <time>2019-06-22T19:53:34Z</time>
      </trkpt>
      <trkpt lat="39.515353" lon="-6.425965">
        <ele>418.735</ele>
        <time>2019-06-22T19:53:35Z</time>
      </trkpt>
      <trkpt lat="39.515221" lon="-6.425953">
        <ele>418.786</ele>
        <time>2019-06-22T19:53:36Z</time>
      </trkpt>
      <trkpt lat="39.515092" lon="-6.425926">
        <ele>418.714</ele>
        <time>2019-06-22T19:53:37Z</time>
      </trkpt>
      <trkpt lat="39.514982" lon="-6.425896">
        <ele>418.808</ele>
        <time>2019-06-22T19:53:38Z</time>
      </trkpt>
      <trkpt lat="39.514894" lon="-6.425749">
        <ele>419.326</ele>
        <time>2019-06-22T19:53:39Z</time>
      </trkpt>
      <trkpt lat="39.514807" lon="-6.425642">
        <ele>419.610</ele>
        <time>2019-06-22T19:53:40Z</time>
      </trkpt>
      <trkpt lat="39.514734" lon="-6.425523">
        <ele>419.822</ele>
        <time>2019-06-22T19:53:41Z</time>
      </trkpt>
      <trkpt lat="39.514683" lon="-6.425369">
        <ele>419.874</ele>
        <time>2019-06-22T19:53:42Z</time>
      </trkpt>
      <trkpt lat="39.514622" lon="-6.425239">
        <ele>419.872</ele>
        <time>2019-06-22T19:53:43Z</time>
      </trkpt>
      <trkpt lat="39.514546" lon="-6.425107">
        <ele>419.771</ele>
        <time>2019-06-22T19:53:44Z</time>
      </trkpt>
      <trkpt lat="39.514442" lon="-6.425001">
        <ele>419.316</ele>
        <time>2019-06-22T19:53:45Z</time>
      </trkpt>
      <trkpt lat="39.514321" lon="-6.424898">
        <ele>418.619</ele>
        <time>2019-06-22T19:53:46Z</time>
      </trkpt>
      <trkpt lat="39.514175" lon="-6.424831">
        <ele>417.759</ele>
        <time>2019-06-22T19:53:47Z</time>
      </trkpt>
      <trkpt lat="39.514029" lon="-6.424774">
        <ele>416.603</ele>
        <time>2019-06-22T19:53:48Z</time>
      </trkpt>
      <trkpt lat="39.513866" lon="-6.424708">
        <ele>416.023</ele>
        <time>2019-06-22T19:53:49Z</time>
      </trkpt>
      <trkpt lat="39.513693" lon="-6.424635">
        <ele>416.008</ele>
        <time>2019-06-22T19:53:50Z</time>
      </trkpt>
      <trkpt lat="39.513512" lon="-6.424576">
        <ele>416.128</ele>
        <time>2019-06-22T19:53:51Z</time>
      </trkpt>
      <trkpt lat="39.513326" lon="-6.424515">
        <ele>416.472</ele>
        <time>2019-06-22T19:53:52Z</time>
      </trkpt>
      <trkpt lat="39.513137" lon="-6.424453">
        <ele>416.984</ele>
        <time>2019-06-22T19:53:53Z</time>
      </trkpt>
      <trkpt lat="39.512935" lon="-6.424392">
        <ele>416.946</ele>
        <time>2019-06-22T19:53:54Z</time>
      </trkpt>
      <trkpt lat="39.512731" lon="-6.424327">
        <ele>416.834</ele>
        <time>2019-06-22T19:53:55Z</time>
      </trkpt>
      <trkpt lat="39.512540" lon="-6.424265">
        <ele>416.493</ele>
        <time>2019-06-22T19:53:56Z</time>
      </trkpt>
      <trkpt lat="39.512336" lon="-6.424200">
        <ele>415.778</ele>
        <time>2019-06-22T19:53:57Z</time>
      </trkpt>
      <trkpt lat="39.512125" lon="-6.424131">
        <ele>415.741</ele>
        <time>2019-06-22T19:53:58Z</time>
      </trkpt>
      <trkpt lat="39.511914" lon="-6.424063">
        <ele>415.874</ele>
        <time>2019-06-22T19:53:59Z</time>
      </trkpt>
      <trkpt lat="39.511692" lon="-6.423988">
        <ele>416.056</ele>
        <time>2019-06-22T19:54:00Z</time>
      </trkpt>
      <trkpt lat="39.511489" lon="-6.423927">
        <ele>416.321</ele>
        <time>2019-06-22T19:54:01Z</time>
      </trkpt>
      <trkpt lat="39.511274" lon="-6.423860">
        <ele>417.308</ele>
        <time>2019-06-22T19:54:02Z</time>
      </trkpt>
      <trkpt lat="39.511057" lon="-6.423798">
        <ele>417.330</ele>
        <time>2019-06-22T19:54:03Z</time>
      </trkpt>
      <trkpt lat="39.510837" lon="-6.423736">
        <ele>417.314</ele>
        <time>2019-06-22T19:54:04Z</time>
      </trkpt>
      <trkpt lat="39.510617" lon="-6.423670">
        <ele>417.236</ele>
        <time>2019-06-22T19:54:05Z</time>
      </trkpt>
      <trkpt lat="39.510396" lon="-6.423601">
        <ele>417.138</ele>
        <time>2019-06-22T19:54:06Z</time>
      </trkpt>
      <trkpt lat="39.510172" lon="-6.423533">
        <ele>417.136</ele>
        <time>2019-06-22T19:54:07Z</time>
      </trkpt>
      <trkpt lat="39.509940" lon="-6.423468">
        <ele>417.215</ele>
        <time>2019-06-22T19:54:08Z</time>
      </trkpt>
      <trkpt lat="39.509715" lon="-6.423403">
        <ele>417.530</ele>
        <time>2019-06-22T19:54:09Z</time>
      </trkpt>
      <trkpt lat="39.509489" lon="-6.423337">
        <ele>418.013</ele>
        <time>2019-06-22T19:54:10Z</time>
      </trkpt>
      <trkpt lat="39.509260" lon="-6.423276">
        <ele>418.297</ele>
        <time>2019-06-22T19:54:11Z</time>
      </trkpt>
      <trkpt lat="39.509035" lon="-6.423209">
        <ele>418.723</ele>
        <time>2019-06-22T19:54:12Z</time>
      </trkpt>
      <trkpt lat="39.508804" lon="-6.423142">
        <ele>419.425</ele>
        <time>2019-06-22T19:54:13Z</time>
      </trkpt>
      <trkpt lat="39.508573" lon="-6.423074">
        <ele>419.908</ele>
        <time>2019-06-22T19:54:14Z</time>
      </trkpt>
      <trkpt lat="39.508350" lon="-6.423005">
        <ele>420.452</ele>
        <time>2019-06-22T19:54:15Z</time>
      </trkpt>
      <trkpt lat="39.508127" lon="-6.422936">
        <ele>421.186</ele>
        <time>2019-06-22T19:54:16Z</time>
      </trkpt>
      <trkpt lat="39.507901" lon="-6.422872">
        <ele>421.368</ele>
        <time>2019-06-22T19:54:17Z</time>
      </trkpt>
      <trkpt lat="39.507671" lon="-6.422805">
        <ele>421.920</ele>
        <time>2019-06-22T19:54:18Z</time>
      </trkpt>
      <trkpt lat="39.507447" lon="-6.422740">
        <ele>422.128</ele>
        <time>2019-06-22T19:54:19Z</time>
      </trkpt>
      <trkpt lat="39.507224" lon="-6.422673">
        <ele>422.567</ele>
        <time>2019-06-22T19:54:20Z</time>
      </trkpt>
      <trkpt lat="39.506993" lon="-6.422616">
        <ele>422.992</ele>
        <time>2019-06-22T19:54:21Z</time>
      </trkpt>
      <trkpt lat="39.506764" lon="-6.422554">
        <ele>423.265</ele>
        <time>2019-06-22T19:54:22Z</time>
      </trkpt>
      <trkpt lat="39.506553" lon="-6.422513">
        <ele>423.281</ele>
        <time>2019-06-22T19:54:23Z</time>
      </trkpt>
      <trkpt lat="39.506377" lon="-6.422429">
        <ele>422.861</ele>
        <time>2019-06-22T19:54:24Z</time>
      </trkpt>
      <trkpt lat="39.506171" lon="-6.422388">
        <ele>422.517</ele>
        <time>2019-06-22T19:54:25Z</time>
      </trkpt>
      <trkpt lat="39.505957" lon="-6.422348">
        <ele>421.408</ele>
        <time>2019-06-22T19:54:26Z</time>
      </trkpt>
      <trkpt lat="39.505740" lon="-6.422299">
        <ele>421.321</ele>
        <time>2019-06-22T19:54:27Z</time>
      </trkpt>
      <trkpt lat="39.505534" lon="-6.422258">
        <ele>421.245</ele>
        <time>2019-06-22T19:54:28Z</time>
      </trkpt>
      <trkpt lat="39.505336" lon="-6.422238">
        <ele>420.737</ele>
        <time>2019-06-22T19:54:29Z</time>
      </trkpt>
      <trkpt lat="39.505141" lon="-6.422224">
        <ele>420.199</ele>
        <time>2019-06-22T19:54:30Z</time>
      </trkpt>
      <trkpt lat="39.504964" lon="-6.422197">
        <ele>420.177</ele>
        <time>2019-06-22T19:54:31Z</time>
      </trkpt>
      <trkpt lat="39.504794" lon="-6.422179">
        <ele>420.686</ele>
        <time>2019-06-22T19:54:32Z</time>
      </trkpt>
      <trkpt lat="39.504649" lon="-6.422162">
        <ele>420.871</ele>
        <time>2019-06-22T19:54:33Z</time>
      </trkpt>
      <trkpt lat="39.504491" lon="-6.422144">
        <ele>421.674</ele>
        <time>2019-06-22T19:54:34Z</time>
      </trkpt>
      <trkpt lat="39.504340" lon="-6.422135">
        <ele>424.299</ele>
        <time>2019-06-22T19:54:35Z</time>
      </trkpt>
      <trkpt lat="39.504202" lon="-6.422130">
        <ele>426.307</ele>
        <time>2019-06-22T19:54:36Z</time>
      </trkpt>
      <trkpt lat="39.504071" lon="-6.422126">
        <ele>428.027</ele>
        <time>2019-06-22T19:54:37Z</time>
      </trkpt>
      <trkpt lat="39.503954" lon="-6.422137">
        <ele>429.708</ele>
        <time>2019-06-22T19:54:38Z</time>
      </trkpt>
      <trkpt lat="39.503836" lon="-6.422164">
        <ele>429.772</ele>
        <time>2019-06-22T19:54:39Z</time>
      </trkpt>
      <trkpt lat="39.503739" lon="-6.422213">
        <ele>430.746</ele>
        <time>2019-06-22T19:54:40Z</time>
      </trkpt>
      <trkpt lat="39.503650" lon="-6.422283">
        <ele>430.778</ele>
        <time>2019-06-22T19:54:41Z</time>
      </trkpt>
      <trkpt lat="39.503558" lon="-6.422359">
        <ele>430.740</ele>
        <time>2019-06-22T19:54:42Z</time>
      </trkpt>
      <trkpt lat="39.503471" lon="-6.422422">
        <ele>430.978</ele>
        <time>2019-06-22T19:54:43Z</time>
      </trkpt>
      <trkpt lat="39.503373" lon="-6.422456">
        <ele>431.457</ele>
        <time>2019-06-22T19:54:44Z</time>
      </trkpt>
      <trkpt lat="39.503271" lon="-6.422454">
        <ele>432.792</ele>
        <time>2019-06-22T19:54:45Z</time>
      </trkpt>
      <trkpt lat="39.503175" lon="-6.422418">
        <ele>434.065</ele>
        <time>2019-06-22T19:54:46Z</time>
      </trkpt>
      <trkpt lat="39.503090" lon="-6.422380">
        <ele>435.688</ele>
        <time>2019-06-22T19:54:47Z</time>
      </trkpt>
      <trkpt lat="39.502995" lon="-6.422344">
        <ele>435.624</ele>
        <time>2019-06-22T19:54:48Z</time>
      </trkpt>
      <trkpt lat="39.502921" lon="-6.422284">
        <ele>435.826</ele>
        <time>2019-06-22T19:54:49Z</time>
      </trkpt>
      <trkpt lat="39.502826" lon="-6.422134">
        <ele>435.808</ele>
        <time>2019-06-22T19:54:50Z</time>
      </trkpt>
      <trkpt lat="39.502706" lon="-6.422031">
        <ele>435.071</ele>
        <time>2019-06-22T19:54:51Z</time>
      </trkpt>
      <trkpt lat="39.502588" lon="-6.422020">
        <ele>433.985</ele>
        <time>2019-06-22T19:54:52Z</time>
      </trkpt>
      <trkpt lat="39.502451" lon="-6.421995">
        <ele>433.047</ele>
        <time>2019-06-22T19:54:53Z</time>
      </trkpt>
      <trkpt lat="39.502306" lon="-6.421983">
        <ele>432.039</ele>
        <time>2019-06-22T19:54:54Z</time>
      </trkpt>
      <trkpt lat="39.502155" lon="-6.421961">
        <ele>431.667</ele>
        <time>2019-06-22T19:54:55Z</time>
      </trkpt>
      <trkpt lat="39.501978" lon="-6.421947">
        <ele>431.656</ele>
        <time>2019-06-22T19:54:56Z</time>
      </trkpt>
      <trkpt lat="39.501798" lon="-6.421940">
        <ele>432.411</ele>
        <time>2019-06-22T19:54:57Z</time>
      </trkpt>
      <trkpt lat="39.501616" lon="-6.421924">
        <ele>433.324</ele>
        <time>2019-06-22T19:54:58Z</time>
      </trkpt>
      <trkpt lat="39.501444" lon="-6.421889">
        <ele>433.742</ele>
        <time>2019-06-22T19:54:59Z</time>
      </trkpt>
      <trkpt lat="39.501255" lon="-6.421876">
        <ele>433.722</ele>
        <time>2019-06-22T19:55:00Z</time>
      </trkpt>
      <trkpt lat="39.501056" lon="-6.421853">
        <ele>433.714</ele>
        <time>2019-06-22T19:55:01Z</time>
      </trkpt>
      <trkpt lat="39.500840" lon="-6.421827">
        <ele>433.708</ele>
        <time>2019-06-22T19:55:02Z</time>
      </trkpt>
      <trkpt lat="39.500633" lon="-6.421803">
        <ele>433.857</ele>
        <time>2019-06-22T19:55:03Z</time>
      </trkpt>
      <trkpt lat="39.500412" lon="-6.421777">
        <ele>434.161</ele>
        <time>2019-06-22T19:55:04Z</time>
      </trkpt>
      <trkpt lat="39.500194" lon="-6.421732">
        <ele>434.513</ele>
        <time>2019-06-22T19:55:05Z</time>
      </trkpt>
      <trkpt lat="39.499973" lon="-6.421674">
        <ele>435.285</ele>
        <time>2019-06-22T19:55:06Z</time>
      </trkpt>
      <trkpt lat="39.499751" lon="-6.421610">
        <ele>435.733</ele>
        <time>2019-06-22T19:55:07Z</time>
      </trkpt>
      <trkpt lat="39.499530" lon="-6.421535">
        <ele>435.872</ele>
        <time>2019-06-22T19:55:08Z</time>
      </trkpt>
      <trkpt lat="39.499313" lon="-6.421445">
        <ele>435.947</ele>
        <time>2019-06-22T19:55:09Z</time>
      </trkpt>
      <trkpt lat="39.499092" lon="-6.421349">
        <ele>436.090</ele>
        <time>2019-06-22T19:55:10Z</time>
      </trkpt>
      <trkpt lat="39.498868" lon="-6.421222">
        <ele>436.079</ele>
        <time>2019-06-22T19:55:11Z</time>
      </trkpt>
      <trkpt lat="39.498652" lon="-6.421103">
        <ele>436.005</ele>
        <time>2019-06-22T19:55:12Z</time>
      </trkpt>
      <trkpt lat="39.498441" lon="-6.420963">
        <ele>436.025</ele>
        <time>2019-06-22T19:55:13Z</time>
      </trkpt>
      <trkpt lat="39.498227" lon="-6.420820">
        <ele>436.008</ele>
        <time>2019-06-22T19:55:14Z</time>
      </trkpt>
      <trkpt lat="39.498021" lon="-6.420665">
        <ele>436.110</ele>
        <time>2019-06-22T19:55:15Z</time>
      </trkpt>
      <trkpt lat="39.497815" lon="-6.420508">
        <ele>436.214</ele>
        <time>2019-06-22T19:55:16Z</time>
      </trkpt>
      <trkpt lat="39.497612" lon="-6.420348">
        <ele>436.266</ele>
        <time>2019-06-22T19:55:17Z</time>
      </trkpt>
      <trkpt lat="39.497412" lon="-6.420192">
        <ele>436.598</ele>
        <time>2019-06-22T19:55:18Z</time>
      </trkpt>
      <trkpt lat="39.497215" lon="-6.420025">
        <ele>436.536</ele>
        <time>2019-06-22T19:55:19Z</time>
      </trkpt>
      <trkpt lat="39.497024" lon="-6.419874">
        <ele>436.385</ele>
        <time>2019-06-22T19:55:20Z</time>
      </trkpt>
      <trkpt lat="39.496833" lon="-6.419724">
        <ele>435.640</ele>
        <time>2019-06-22T19:55:21Z</time>
      </trkpt>
      <trkpt lat="39.496663" lon="-6.419588">
        <ele>435.143</ele>
        <time>2019-06-22T19:55:22Z</time>
      </trkpt>
      <trkpt lat="39.496493" lon="-6.419442">
        <ele>434.545</ele>
        <time>2019-06-22T19:55:23Z</time>
      </trkpt>
      <trkpt lat="39.496320" lon="-6.419309">
        <ele>433.947</ele>
        <time>2019-06-22T19:55:24Z</time>
      </trkpt>
      <trkpt lat="39.496152" lon="-6.419177">
        <ele>433.911</ele>
        <time>2019-06-22T19:55:25Z</time>
      </trkpt>
      <trkpt lat="39.495982" lon="-6.419043">
        <ele>433.908</ele>
        <time>2019-06-22T19:55:26Z</time>
      </trkpt>
      <trkpt lat="39.495819" lon="-6.418909">
        <ele>434.137</ele>
        <time>2019-06-22T19:55:27Z</time>
      </trkpt>
      <trkpt lat="39.495656" lon="-6.418777">
        <ele>434.171</ele>
        <time>2019-06-22T19:55:28Z</time>
      </trkpt>
      <trkpt lat="39.495490" lon="-6.418643">
        <ele>434.683</ele>
        <time>2019-06-22T19:55:29Z</time>
      </trkpt>
      <trkpt lat="39.495327" lon="-6.418513">
        <ele>435.145</ele>
        <time>2019-06-22T19:55:30Z</time>
      </trkpt>
      <trkpt lat="39.495169" lon="-6.418389">
        <ele>435.763</ele>
        <time>2019-06-22T19:55:31Z</time>
      </trkpt>
      <trkpt lat="39.495014" lon="-6.418265">
        <ele>436.132</ele>
        <time>2019-06-22T19:55:32Z</time>
      </trkpt>
      <trkpt lat="39.494864" lon="-6.418141">
        <ele>436.797</ele>
        <time>2019-06-22T19:55:33Z</time>
      </trkpt>
      <trkpt lat="39.494715" lon="-6.418033">
        <ele>437.150</ele>
        <time>2019-06-22T19:55:34Z</time>
      </trkpt>
      <trkpt lat="39.494574" lon="-6.417921">
        <ele>437.444</ele>
        <time>2019-06-22T19:55:35Z</time>
      </trkpt>
      <trkpt lat="39.494435" lon="-6.417806">
        <ele>438.105</ele>
        <time>2019-06-22T19:55:36Z</time>
      </trkpt>
      <trkpt lat="39.494300" lon="-6.417704">
        <ele>438.115</ele>
        <time>2019-06-22T19:55:37Z</time>
      </trkpt>
      <trkpt lat="39.494168" lon="-6.417601">
        <ele>437.808</ele>
        <time>2019-06-22T19:55:38Z</time>
      </trkpt>
      <trkpt lat="39.494054" lon="-6.417511">
        <ele>437.817</ele>
        <time>2019-06-22T19:55:39Z</time>
      </trkpt>
      <trkpt lat="39.493936" lon="-6.417426">
        <ele>437.811</ele>
        <time>2019-06-22T19:55:40Z</time>
      </trkpt>
      <trkpt lat="39.493824" lon="-6.417338">
        <ele>437.333</ele>
        <time>2019-06-22T19:55:41Z</time>
      </trkpt>
      <trkpt lat="39.493722" lon="-6.417247">
        <ele>437.385</ele>
        <time>2019-06-22T19:55:42Z</time>
      </trkpt>
      <trkpt lat="39.493619" lon="-6.417159">
        <ele>438.013</ele>
        <time>2019-06-22T19:55:43Z</time>
      </trkpt>
      <trkpt lat="39.493521" lon="-6.417082">
        <ele>438.362</ele>
        <time>2019-06-22T19:55:44Z</time>
      </trkpt>
      <trkpt lat="39.493418" lon="-6.417010">
        <ele>438.697</ele>
        <time>2019-06-22T19:55:45Z</time>
      </trkpt>
      <trkpt lat="39.493310" lon="-6.416968">
        <ele>438.660</ele>
        <time>2019-06-22T19:55:46Z</time>
      </trkpt>
      <trkpt lat="39.493207" lon="-6.416960">
        <ele>438.941</ele>
        <time>2019-06-22T19:55:47Z</time>
      </trkpt>
      <trkpt lat="39.493108" lon="-6.416968">
        <ele>438.981</ele>
        <time>2019-06-22T19:55:48Z</time>
      </trkpt>
      <trkpt lat="39.492997" lon="-6.416987">
        <ele>439.209</ele>
        <time>2019-06-22T19:55:49Z</time>
      </trkpt>
      <trkpt lat="39.492884" lon="-6.416989">
        <ele>439.708</ele>
        <time>2019-06-22T19:55:50Z</time>
      </trkpt>
      <trkpt lat="39.492774" lon="-6.416978">
        <ele>440.367</ele>
        <time>2019-06-22T19:55:51Z</time>
      </trkpt>
      <trkpt lat="39.492672" lon="-6.416933">
        <ele>440.631</ele>
        <time>2019-06-22T19:55:52Z</time>
      </trkpt>
      <trkpt lat="39.492596" lon="-6.416859">
        <ele>441.813</ele>
        <time>2019-06-22T19:55:53Z</time>
      </trkpt>
      <trkpt lat="39.492527" lon="-6.416770">
        <ele>442.555</ele>
        <time>2019-06-22T19:55:54Z</time>
      </trkpt>
      <trkpt lat="39.492478" lon="-6.416652">
        <ele>443.153</ele>
        <time>2019-06-22T19:55:55Z</time>
      </trkpt>
      <trkpt lat="39.492428" lon="-6.416516">
        <ele>443.232</ele>
        <time>2019-06-22T19:55:56Z</time>
      </trkpt>
      <trkpt lat="39.492376" lon="-6.416385">
        <ele>443.757</ele>
        <time>2019-06-22T19:55:57Z</time>
      </trkpt>
      <trkpt lat="39.492307" lon="-6.416267">
        <ele>443.720</ele>
        <time>2019-06-22T19:55:58Z</time>
      </trkpt>
      <trkpt lat="39.492212" lon="-6.416166">
        <ele>443.287</ele>
        <time>2019-06-22T19:55:59Z</time>
      </trkpt>
      <trkpt lat="39.492100" lon="-6.416062">
        <ele>442.942</ele>
        <time>2019-06-22T19:56:00Z</time>
      </trkpt>
      <trkpt lat="39.491969" lon="-6.415964">
        <ele>442.426</ele>
        <time>2019-06-22T19:56:01Z</time>
      </trkpt>
      <trkpt lat="39.491824" lon="-6.415871">
        <ele>441.708</ele>
        <time>2019-06-22T19:56:02Z</time>
      </trkpt>
      <trkpt lat="39.491667" lon="-6.415765">
        <ele>440.621</ele>
        <time>2019-06-22T19:56:03Z</time>
      </trkpt>
      <trkpt lat="39.491496" lon="-6.415670">
        <ele>440.675</ele>
        <time>2019-06-22T19:56:04Z</time>
      </trkpt>
      <trkpt lat="39.491315" lon="-6.415582">
        <ele>440.677</ele>
        <time>2019-06-22T19:56:05Z</time>
      </trkpt>
      <trkpt lat="39.491125" lon="-6.415497">
        <ele>440.549</ele>
        <time>2019-06-22T19:56:06Z</time>
      </trkpt>
      <trkpt lat="39.490925" lon="-6.415404">
        <ele>439.917</ele>
        <time>2019-06-22T19:56:07Z</time>
      </trkpt>
      <trkpt lat="39.490725" lon="-6.415310">
        <ele>439.936</ele>
        <time>2019-06-22T19:56:08Z</time>
      </trkpt>
      <trkpt lat="39.490514" lon="-6.415224">
        <ele>439.761</ele>
        <time>2019-06-22T19:56:09Z</time>
      </trkpt>
      <trkpt lat="39.490301" lon="-6.415134">
        <ele>438.794</ele>
        <time>2019-06-22T19:56:10Z</time>
      </trkpt>
      <trkpt lat="39.490079" lon="-6.415049">
        <ele>437.877</ele>
        <time>2019-06-22T19:56:11Z</time>
      </trkpt>
      <trkpt lat="39.489857" lon="-6.414955">
        <ele>436.961</ele>
        <time>2019-06-22T19:56:12Z</time>
      </trkpt>
      <trkpt lat="39.489634" lon="-6.414862">
        <ele>436.727</ele>
        <time>2019-06-22T19:56:13Z</time>
      </trkpt>
      <trkpt lat="39.489412" lon="-6.414769">
        <ele>436.508</ele>
        <time>2019-06-22T19:56:14Z</time>
      </trkpt>
      <trkpt lat="39.489188" lon="-6.414673">
        <ele>435.670</ele>
        <time>2019-06-22T19:56:15Z</time>
      </trkpt>
      <trkpt lat="39.488961" lon="-6.414591">
        <ele>434.934</ele>
        <time>2019-06-22T19:56:16Z</time>
      </trkpt>
      <trkpt lat="39.488738" lon="-6.414503">
        <ele>434.196</ele>
        <time>2019-06-22T19:56:17Z</time>
      </trkpt>
      <trkpt lat="39.488507" lon="-6.414423">
        <ele>432.858</ele>
        <time>2019-06-22T19:56:18Z</time>
      </trkpt>
      <trkpt lat="39.488275" lon="-6.414345">
        <ele>432.136</ele>
        <time>2019-06-22T19:56:19Z</time>
      </trkpt>
      <trkpt lat="39.488043" lon="-6.414252">
        <ele>432.185</ele>
        <time>2019-06-22T19:56:20Z</time>
      </trkpt>
      <trkpt lat="39.487814" lon="-6.414163">
        <ele>432.520</ele>
        <time>2019-06-22T19:56:21Z</time>
      </trkpt>
      <trkpt lat="39.487587" lon="-6.414060">
        <ele>433.513</ele>
        <time>2019-06-22T19:56:22Z</time>
      </trkpt>
      <trkpt lat="39.487359" lon="-6.413965">
        <ele>433.813</ele>
        <time>2019-06-22T19:56:23Z</time>
      </trkpt>
      <trkpt lat="39.487137" lon="-6.413875">
        <ele>434.443</ele>
        <time>2019-06-22T19:56:24Z</time>
      </trkpt>
      <trkpt lat="39.486923" lon="-6.413784">
        <ele>435.007</ele>
        <time>2019-06-22T19:56:25Z</time>
      </trkpt>
      <trkpt lat="39.486717" lon="-6.413694">
        <ele>435.108</ele>
        <time>2019-06-22T19:56:26Z</time>
      </trkpt>
      <trkpt lat="39.486513" lon="-6.413607">
        <ele>435.734</ele>
        <time>2019-06-22T19:56:27Z</time>
      </trkpt>
      <trkpt lat="39.486312" lon="-6.413518">
        <ele>436.748</ele>
        <time>2019-06-22T19:56:28Z</time>
      </trkpt>
      <trkpt lat="39.486103" lon="-6.413416">
        <ele>437.160</ele>
        <time>2019-06-22T19:56:29Z</time>
      </trkpt>
      <trkpt lat="39.485900" lon="-6.413326">
        <ele>437.192</ele>
        <time>2019-06-22T19:56:30Z</time>
      </trkpt>
      <trkpt lat="39.485687" lon="-6.413243">
        <ele>437.170</ele>
        <time>2019-06-22T19:56:31Z</time>
      </trkpt>
      <trkpt lat="39.485476" lon="-6.413172">
        <ele>436.729</ele>
        <time>2019-06-22T19:56:32Z</time>
      </trkpt>
      <trkpt lat="39.485269" lon="-6.413086">
        <ele>436.224</ele>
        <time>2019-06-22T19:56:33Z</time>
      </trkpt>
      <trkpt lat="39.485058" lon="-6.412999">
        <ele>435.917</ele>
        <time>2019-06-22T19:56:34Z</time>
      </trkpt>
      <trkpt lat="39.484852" lon="-6.412887">
        <ele>435.879</ele>
        <time>2019-06-22T19:56:35Z</time>
      </trkpt>
      <trkpt lat="39.484639" lon="-6.412785">
        <ele>435.505</ele>
        <time>2019-06-22T19:56:36Z</time>
      </trkpt>
      <trkpt lat="39.484427" lon="-6.412666">
        <ele>435.425</ele>
        <time>2019-06-22T19:56:37Z</time>
      </trkpt>
      <trkpt lat="39.484224" lon="-6.412530">
        <ele>435.308</ele>
        <time>2019-06-22T19:56:38Z</time>
      </trkpt>
      <trkpt lat="39.484026" lon="-6.412392">
        <ele>435.010</ele>
        <time>2019-06-22T19:56:39Z</time>
      </trkpt>
      <trkpt lat="39.483836" lon="-6.412254">
        <ele>434.554</ele>
        <time>2019-06-22T19:56:40Z</time>
      </trkpt>
      <trkpt lat="39.483647" lon="-6.412123">
        <ele>433.776</ele>
        <time>2019-06-22T19:56:41Z</time>
      </trkpt>
      <trkpt lat="39.483464" lon="-6.411996">
        <ele>433.448</ele>
        <time>2019-06-22T19:56:42Z</time>
      </trkpt>
      <trkpt lat="39.483286" lon="-6.411875">
        <ele>432.766</ele>
        <time>2019-06-22T19:56:43Z</time>
      </trkpt>
      <trkpt lat="39.483119" lon="-6.411756">
        <ele>432.185</ele>
        <time>2019-06-22T19:56:44Z</time>
      </trkpt>
      <trkpt lat="39.482963" lon="-6.411642">
        <ele>431.010</ele>
        <time>2019-06-22T19:56:45Z</time>
      </trkpt>
      <trkpt lat="39.482808" lon="-6.411528">
        <ele>430.063</ele>
        <time>2019-06-22T19:56:46Z</time>
      </trkpt>
      <trkpt lat="39.482673" lon="-6.411423">
        <ele>428.474</ele>
        <time>2019-06-22T19:56:47Z</time>
      </trkpt>
      <trkpt lat="39.482536" lon="-6.411323">
        <ele>427.356</ele>
        <time>2019-06-22T19:56:48Z</time>
      </trkpt>
      <trkpt lat="39.482399" lon="-6.411230">
        <ele>426.821</ele>
        <time>2019-06-22T19:56:49Z</time>
      </trkpt>
      <trkpt lat="39.482274" lon="-6.411148">
        <ele>426.808</ele>
        <time>2019-06-22T19:56:50Z</time>
      </trkpt>
      <trkpt lat="39.482149" lon="-6.411076">
        <ele>427.520</ele>
        <time>2019-06-22T19:56:51Z</time>
      </trkpt>
      <trkpt lat="39.482038" lon="-6.410998">
        <ele>428.634</ele>
        <time>2019-06-22T19:56:52Z</time>
      </trkpt>
      <trkpt lat="39.481926" lon="-6.410946">
        <ele>428.626</ele>
        <time>2019-06-22T19:56:53Z</time>
      </trkpt>
      <trkpt lat="39.481825" lon="-6.410922">
        <ele>429.738</ele>
        <time>2019-06-22T19:56:54Z</time>
      </trkpt>
      <trkpt lat="39.481731" lon="-6.410932">
        <ele>431.656</ele>
        <time>2019-06-22T19:56:55Z</time>
      </trkpt>
      <trkpt lat="39.481643" lon="-6.410954">
        <ele>431.615</ele>
        <time>2019-06-22T19:56:56Z</time>
      </trkpt>
      <trkpt lat="39.481556" lon="-6.410980">
        <ele>432.310</ele>
        <time>2019-06-22T19:56:57Z</time>
      </trkpt>
      <trkpt lat="39.481467" lon="-6.410988">
        <ele>433.293</ele>
        <time>2019-06-22T19:56:58Z</time>
      </trkpt>
      <trkpt lat="39.481370" lon="-6.410972">
        <ele>434.583</ele>
        <time>2019-06-22T19:56:59Z</time>
      </trkpt>
      <trkpt lat="39.481280" lon="-6.410931">
        <ele>435.625</ele>
        <time>2019-06-22T19:57:00Z</time>
      </trkpt>
      <trkpt lat="39.481197" lon="-6.410866">
        <ele>436.917</ele>
        <time>2019-06-22T19:57:01Z</time>
      </trkpt>
      <trkpt lat="39.481128" lon="-6.410781">
        <ele>438.208</ele>
        <time>2019-06-22T19:57:02Z</time>
      </trkpt>
      <trkpt lat="39.481078" lon="-6.410667">
        <ele>439.141</ele>
        <time>2019-06-22T19:57:03Z</time>
      </trkpt>
      <trkpt lat="39.481031" lon="-6.410559">
        <ele>439.365</ele>
        <time>2019-06-22T19:57:04Z</time>
      </trkpt>
      <trkpt lat="39.480992" lon="-6.410429">
        <ele>439.557</ele>
        <time>2019-06-22T19:57:05Z</time>
      </trkpt>
      <trkpt lat="39.480935" lon="-6.410302">
        <ele>439.539</ele>
        <time>2019-06-22T19:57:06Z</time>
      </trkpt>
      <trkpt lat="39.480861" lon="-6.410194">
        <ele>439.067</ele>
        <time>2019-06-22T19:57:07Z</time>
      </trkpt>
      <trkpt lat="39.480761" lon="-6.410101">
        <ele>438.246</ele>
        <time>2019-06-22T19:57:08Z</time>
      </trkpt>
      <trkpt lat="39.480644" lon="-6.410016">
        <ele>437.351</ele>
        <time>2019-06-22T19:57:09Z</time>
      </trkpt>
      <trkpt lat="39.480509" lon="-6.409923">
        <ele>436.774</ele>
        <time>2019-06-22T19:57:10Z</time>
      </trkpt>
      <trkpt lat="39.480372" lon="-6.409830">
        <ele>436.782</ele>
        <time>2019-06-22T19:57:11Z</time>
      </trkpt>
      <trkpt lat="39.480230" lon="-6.409735">
        <ele>436.743</ele>
        <time>2019-06-22T19:57:12Z</time>
      </trkpt>
      <trkpt lat="39.480083" lon="-6.409630">
        <ele>437.317</ele>
        <time>2019-06-22T19:57:13Z</time>
      </trkpt>
      <trkpt lat="39.479932" lon="-6.409524">
        <ele>438.008</ele>
        <time>2019-06-22T19:57:14Z</time>
      </trkpt>
      <trkpt lat="39.479775" lon="-6.409412">
        <ele>438.711</ele>
        <time>2019-06-22T19:57:15Z</time>
      </trkpt>
      <trkpt lat="39.479617" lon="-6.409304">
        <ele>438.835</ele>
        <time>2019-06-22T19:57:16Z</time>
      </trkpt>
      <trkpt lat="39.479449" lon="-6.409184">
        <ele>439.127</ele>
        <time>2019-06-22T19:57:17Z</time>
      </trkpt>
      <trkpt lat="39.479276" lon="-6.409057">
        <ele>439.599</ele>
        <time>2019-06-22T19:57:18Z</time>
      </trkpt>
      <trkpt lat="39.479105" lon="-6.408924">
        <ele>439.717</ele>
        <time>2019-06-22T19:57:19Z</time>
      </trkpt>
      <trkpt lat="39.478934" lon="-6.408795">
        <ele>439.736</ele>
        <time>2019-06-22T19:57:20Z</time>
      </trkpt>
      <trkpt lat="39.478760" lon="-6.408659">
        <ele>440.031</ele>
        <time>2019-06-22T19:57:21Z</time>
      </trkpt>
      <trkpt lat="39.478586" lon="-6.408517">
        <ele>440.014</ele>
        <time>2019-06-22T19:57:22Z</time>
      </trkpt>
      <trkpt lat="39.478407" lon="-6.408375">
        <ele>440.189</ele>
        <time>2019-06-22T19:57:23Z</time>
      </trkpt>
      <trkpt lat="39.478225" lon="-6.408226">
        <ele>440.306</ele>
        <time>2019-06-22T19:57:24Z</time>
      </trkpt>
      <trkpt lat="39.478045" lon="-6.408091">
        <ele>440.826</ele>
        <time>2019-06-22T19:57:25Z</time>
      </trkpt>
      <trkpt lat="39.477872" lon="-6.407951">
        <ele>441.808</ele>
        <time>2019-06-22T19:57:26Z</time>
      </trkpt>
      <trkpt lat="39.477695" lon="-6.407800">
        <ele>442.541</ele>
        <time>2019-06-22T19:57:27Z</time>
      </trkpt>
      <trkpt lat="39.477519" lon="-6.407644">
        <ele>443.235</ele>
        <time>2019-06-22T19:57:28Z</time>
      </trkpt>
      <trkpt lat="39.477345" lon="-6.407484">
        <ele>443.377</ele>
        <time>2019-06-22T19:57:29Z</time>
      </trkpt>
      <trkpt lat="39.477174" lon="-6.407318">
        <ele>443.429</ele>
        <time>2019-06-22T19:57:30Z</time>
      </trkpt>
      <trkpt lat="39.477001" lon="-6.407144">
        <ele>443.737</ele>
        <time>2019-06-22T19:57:31Z</time>
      </trkpt>
      <trkpt lat="39.476847" lon="-6.406960">
        <ele>443.966</ele>
        <time>2019-06-22T19:57:32Z</time>
      </trkpt>
      <trkpt lat="39.476699" lon="-6.406775">
        <ele>444.031</ele>
        <time>2019-06-22T19:57:33Z</time>
      </trkpt>
      <trkpt lat="39.476557" lon="-6.406583">
        <ele>444.414</ele>
        <time>2019-06-22T19:57:34Z</time>
      </trkpt>
      <trkpt lat="39.476411" lon="-6.406385">
        <ele>445.113</ele>
        <time>2019-06-22T19:57:35Z</time>
      </trkpt>
      <trkpt lat="39.476266" lon="-6.406186">
        <ele>445.743</ele>
        <time>2019-06-22T19:57:36Z</time>
      </trkpt>
      <trkpt lat="39.476127" lon="-6.405983">
        <ele>446.007</ele>
        <time>2019-06-22T19:57:37Z</time>
      </trkpt>
      <trkpt lat="39.475991" lon="-6.405767">
        <ele>446.408</ele>
        <time>2019-06-22T19:57:38Z</time>
      </trkpt>
      <trkpt lat="39.475864" lon="-6.405553">
        <ele>446.914</ele>
        <time>2019-06-22T19:57:39Z</time>
      </trkpt>
      <trkpt lat="39.475739" lon="-6.405326">
        <ele>447.248</ele>
        <time>2019-06-22T19:57:40Z</time>
      </trkpt>
      <trkpt lat="39.475627" lon="-6.405100">
        <ele>447.680</ele>
        <time>2019-06-22T19:57:41Z</time>
      </trkpt>
      <trkpt lat="39.475521" lon="-6.404881">
        <ele>447.772</ele>
        <time>2019-06-22T19:57:42Z</time>
      </trkpt>
      <trkpt lat="39.475428" lon="-6.404673">
        <ele>447.710</ele>
        <time>2019-06-22T19:57:43Z</time>
      </trkpt>
      <trkpt lat="39.475341" lon="-6.404475">
        <ele>447.329</ele>
        <time>2019-06-22T19:57:44Z</time>
      </trkpt>
      <trkpt lat="39.475265" lon="-6.404283">
        <ele>446.274</ele>
        <time>2019-06-22T19:57:45Z</time>
      </trkpt>
      <trkpt lat="39.475192" lon="-6.404092">
        <ele>445.517</ele>
        <time>2019-06-22T19:57:46Z</time>
      </trkpt>
      <trkpt lat="39.475132" lon="-6.403923">
        <ele>445.564</ele>
        <time>2019-06-22T19:57:47Z</time>
      </trkpt>
      <trkpt lat="39.475071" lon="-6.403749">
        <ele>445.606</ele>
        <time>2019-06-22T19:57:48Z</time>
      </trkpt>
      <trkpt lat="39.475010" lon="-6.403576">
        <ele>446.716</ele>
        <time>2019-06-22T19:57:49Z</time>
      </trkpt>
      <trkpt lat="39.474961" lon="-6.403416">
        <ele>448.008</ele>
        <time>2019-06-22T19:57:50Z</time>
      </trkpt>
      <trkpt lat="39.474921" lon="-6.403267">
        <ele>449.529</ele>
        <time>2019-06-22T19:57:51Z</time>
      </trkpt>
      <trkpt lat="39.474872" lon="-6.403130">
        <ele>450.863</ele>
        <time>2019-06-22T19:57:52Z</time>
      </trkpt>
      <trkpt lat="39.474831" lon="-6.403016">
        <ele>451.725</ele>
        <time>2019-06-22T19:57:53Z</time>
      </trkpt>
      <trkpt lat="39.474771" lon="-6.402904">
        <ele>451.817</ele>
        <time>2019-06-22T19:57:54Z</time>
      </trkpt>
      <trkpt lat="39.474695" lon="-6.402808">
        <ele>452.285</ele>
        <time>2019-06-22T19:57:55Z</time>
      </trkpt>
      <trkpt lat="39.474608" lon="-6.402714">
        <ele>452.254</ele>
        <time>2019-06-22T19:57:56Z</time>
      </trkpt>
      <trkpt lat="39.474512" lon="-6.402627">
        <ele>452.499</ele>
        <time>2019-06-22T19:57:57Z</time>
      </trkpt>
      <trkpt lat="39.474420" lon="-6.402535">
        <ele>453.032</ele>
        <time>2019-06-22T19:57:58Z</time>
      </trkpt>
      <trkpt lat="39.474352" lon="-6.402423">
        <ele>453.732</ele>
        <time>2019-06-22T19:57:59Z</time>
      </trkpt>
      <trkpt lat="39.474299" lon="-6.402292">
        <ele>454.492</ele>
        <time>2019-06-22T19:58:00Z</time>
      </trkpt>
      <trkpt lat="39.474271" lon="-6.402145">
        <ele>455.211</ele>
        <time>2019-06-22T19:58:01Z</time>
      </trkpt>
      <trkpt lat="39.474265" lon="-6.401997">
        <ele>456.008</ele>
        <time>2019-06-22T19:58:02Z</time>
      </trkpt>
      <trkpt lat="39.474280" lon="-6.401858">
        <ele>456.766</ele>
        <time>2019-06-22T19:58:03Z</time>
      </trkpt>
      <trkpt lat="39.474321" lon="-6.401725">
        <ele>457.340</ele>
        <time>2019-06-22T19:58:04Z</time>
      </trkpt>
      <trkpt lat="39.474382" lon="-6.401599">
        <ele>457.882</ele>
        <time>2019-06-22T19:58:05Z</time>
      </trkpt>
      <trkpt lat="39.474454" lon="-6.401495">
        <ele>458.434</ele>
        <time>2019-06-22T19:58:06Z</time>
      </trkpt>
      <trkpt lat="39.474498" lon="-6.401378">
        <ele>459.242</ele>
        <time>2019-06-22T19:58:07Z</time>
      </trkpt>
      <trkpt lat="39.474529" lon="-6.401257">
        <ele>459.751</ele>
        <time>2019-06-22T19:58:08Z</time>
      </trkpt>
      <trkpt lat="39.474539" lon="-6.401131">
        <ele>460.136</ele>
        <time>2019-06-22T19:58:09Z</time>
      </trkpt>
      <trkpt lat="39.474536" lon="-6.400984">
        <ele>460.279</ele>
        <time>2019-06-22T19:58:10Z</time>
      </trkpt>
      <trkpt lat="39.474536" lon="-6.400835">
        <ele>460.492</ele>
        <time>2019-06-22T19:58:11Z</time>
      </trkpt>
      <trkpt lat="39.474539" lon="-6.400693">
        <ele>460.873</ele>
        <time>2019-06-22T19:58:12Z</time>
      </trkpt>
      <trkpt lat="39.474542" lon="-6.400559">
        <ele>461.320</ele>
        <time>2019-06-22T19:58:13Z</time>
      </trkpt>
      <trkpt lat="39.474544" lon="-6.400430">
        <ele>461.708</ele>
        <time>2019-06-22T19:58:14Z</time>
      </trkpt>
      <trkpt lat="39.474548" lon="-6.400293">
        <ele>462.562</ele>
        <time>2019-06-22T19:58:15Z</time>
      </trkpt>
      <trkpt lat="39.474547" lon="-6.400165">
        <ele>463.176</ele>
        <time>2019-06-22T19:58:16Z</time>
      </trkpt>
      <trkpt lat="39.474546" lon="-6.400034">
        <ele>463.498</ele>
        <time>2019-06-22T19:58:17Z</time>
      </trkpt>
      <trkpt lat="39.474549" lon="-6.399904">
        <ele>463.830</ele>
        <time>2019-06-22T19:58:18Z</time>
      </trkpt>
      <trkpt lat="39.474550" lon="-6.399772">
        <ele>464.338</ele>
        <time>2019-06-22T19:58:19Z</time>
      </trkpt>
      <trkpt lat="39.474552" lon="-6.399648">
        <ele>464.827</ele>
        <time>2019-06-22T19:58:20Z</time>
      </trkpt>
      <trkpt lat="39.474550" lon="-6.399491">
        <ele>465.592</ele>
        <time>2019-06-22T19:58:21Z</time>
      </trkpt>
      <trkpt lat="39.474552" lon="-6.399313">
        <ele>466.085</ele>
        <time>2019-06-22T19:58:22Z</time>
      </trkpt>
      <trkpt lat="39.474553" lon="-6.399131">
        <ele>466.548</ele>
        <time>2019-06-22T19:58:23Z</time>
      </trkpt>
      <trkpt lat="39.474531" lon="-6.398934">
        <ele>467.061</ele>
        <time>2019-06-22T19:58:24Z</time>
      </trkpt>
      <trkpt lat="39.474536" lon="-6.398720">
        <ele>467.417</ele>
        <time>2019-06-22T19:58:25Z</time>
      </trkpt>
      <trkpt lat="39.474509" lon="-6.398492">
        <ele>467.708</ele>
        <time>2019-06-22T19:58:26Z</time>
      </trkpt>
      <trkpt lat="39.474481" lon="-6.398305">
        <ele>468.537</ele>
        <time>2019-06-22T19:58:27Z</time>
      </trkpt>
      <trkpt lat="39.474452" lon="-6.398098">
        <ele>469.261</ele>
        <time>2019-06-22T19:58:28Z</time>
      </trkpt>
      <trkpt lat="39.474405" lon="-6.397902">
        <ele>470.023</ele>
        <time>2019-06-22T19:58:29Z</time>
      </trkpt>
      <trkpt lat="39.474350" lon="-6.397682">
        <ele>470.935</ele>
        <time>2019-06-22T19:58:30Z</time>
      </trkpt>
      <trkpt lat="39.474287" lon="-6.397468">
        <ele>472.083</ele>
        <time>2019-06-22T19:58:31Z</time>
      </trkpt>
      <trkpt lat="39.474213" lon="-6.397246">
        <ele>472.752</ele>
        <time>2019-06-22T19:58:32Z</time>
      </trkpt>
      <trkpt lat="39.474143" lon="-6.397034">
        <ele>472.797</ele>
        <time>2019-06-22T19:58:33Z</time>
      </trkpt>
      <trkpt lat="39.474068" lon="-6.396827">
        <ele>472.710</ele>
        <time>2019-06-22T19:58:34Z</time>
      </trkpt>
      <trkpt lat="39.473996" lon="-6.396622">
        <ele>472.815</ele>
        <time>2019-06-22T19:58:35Z</time>
      </trkpt>
      <trkpt lat="39.473926" lon="-6.396414">
        <ele>472.965</ele>
        <time>2019-06-22T19:58:36Z</time>
      </trkpt>
      <trkpt lat="39.473855" lon="-6.396205">
        <ele>473.011</ele>
        <time>2019-06-22T19:58:37Z</time>
      </trkpt>
      <trkpt lat="39.473786" lon="-6.396006">
        <ele>473.008</ele>
        <time>2019-06-22T19:58:38Z</time>
      </trkpt>
      <trkpt lat="39.473714" lon="-6.395818">
        <ele>472.754</ele>
        <time>2019-06-22T19:58:39Z</time>
      </trkpt>
      <trkpt lat="39.473647" lon="-6.395619">
        <ele>472.228</ele>
        <time>2019-06-22T19:58:40Z</time>
      </trkpt>
      <trkpt lat="39.473581" lon="-6.395430">
        <ele>472.260</ele>
        <time>2019-06-22T19:58:41Z</time>
      </trkpt>
      <trkpt lat="39.473518" lon="-6.395253">
        <ele>471.732</ele>
        <time>2019-06-22T19:58:42Z</time>
      </trkpt>
      <trkpt lat="39.473459" lon="-6.395076">
        <ele>471.740</ele>
        <time>2019-06-22T19:58:43Z</time>
      </trkpt>
      <trkpt lat="39.473405" lon="-6.394902">
        <ele>472.469</ele>
        <time>2019-06-22T19:58:44Z</time>
      </trkpt>
      <trkpt lat="39.473347" lon="-6.394733">
        <ele>472.614</ele>
        <time>2019-06-22T19:58:45Z</time>
      </trkpt>
      <trkpt lat="39.473293" lon="-6.394574">
        <ele>472.627</ele>
        <time>2019-06-22T19:58:46Z</time>
      </trkpt>
      <trkpt lat="39.473240" lon="-6.394409">
        <ele>472.265</ele>
        <time>2019-06-22T19:58:47Z</time>
      </trkpt>
      <trkpt lat="39.473189" lon="-6.394267">
        <ele>472.068</ele>
        <time>2019-06-22T19:58:48Z</time>
      </trkpt>
      <trkpt lat="39.473141" lon="-6.394125">
        <ele>471.314</ele>
        <time>2019-06-22T19:58:49Z</time>
      </trkpt>
      <trkpt lat="39.473097" lon="-6.393977">
        <ele>471.308</ele>
        <time>2019-06-22T19:58:50Z</time>
      </trkpt>
      <trkpt lat="39.473049" lon="-6.393852">
        <ele>471.389</ele>
        <time>2019-06-22T19:58:51Z</time>
      </trkpt>
      <trkpt lat="39.473008" lon="-6.393724">
        <ele>471.893</ele>
        <time>2019-06-22T19:58:52Z</time>
      </trkpt>
      <trkpt lat="39.472957" lon="-6.393615">
        <ele>472.385</ele>
        <time>2019-06-22T19:58:53Z</time>
      </trkpt>
      <trkpt lat="39.472910" lon="-6.393503">
        <ele>472.817</ele>
        <time>2019-06-22T19:58:54Z</time>
      </trkpt>
      <trkpt lat="39.472873" lon="-6.393396">
        <ele>473.275</ele>
        <time>2019-06-22T19:58:55Z</time>
      </trkpt>
      <trkpt lat="39.472820" lon="-6.393294">
        <ele>473.494</ele>
        <time>2019-06-22T19:58:56Z</time>
      </trkpt>
      <trkpt lat="39.472762" lon="-6.393199">
        <ele>473.489</ele>
        <time>2019-06-22T19:58:57Z</time>
      </trkpt>
      <trkpt lat="39.472687" lon="-6.393148">
        <ele>473.612</ele>
        <time>2019-06-22T19:58:58Z</time>
      </trkpt>
      <trkpt lat="39.472604" lon="-6.393094">
        <ele>473.614</ele>
        <time>2019-06-22T19:58:59Z</time>
      </trkpt>
      <trkpt lat="39.472520" lon="-6.393039">
        <ele>473.554</ele>
        <time>2019-06-22T19:59:00Z</time>
      </trkpt>
      <trkpt lat="39.472446" lon="-6.393039">
        <ele>473.409</ele>
        <time>2019-06-22T19:59:01Z</time>
      </trkpt>
      <trkpt lat="39.472357" lon="-6.393035">
        <ele>473.408</ele>
        <time>2019-06-22T19:59:02Z</time>
      </trkpt>
      <trkpt lat="39.472256" lon="-6.393047">
        <ele>473.214</ele>
        <time>2019-06-22T19:59:03Z</time>
      </trkpt>
      <trkpt lat="39.472151" lon="-6.393065">
        <ele>472.898</ele>
        <time>2019-06-22T19:59:04Z</time>
      </trkpt>
      <trkpt lat="39.472038" lon="-6.393059">
        <ele>472.560</ele>
        <time>2019-06-22T19:59:05Z</time>
      </trkpt>
      <trkpt lat="39.471935" lon="-6.393046">
        <ele>472.362</ele>
        <time>2019-06-22T19:59:06Z</time>
      </trkpt>
      <trkpt lat="39.471825" lon="-6.393021">
        <ele>472.040</ele>
        <time>2019-06-22T19:59:07Z</time>
      </trkpt>
      <trkpt lat="39.471712" lon="-6.392983">
        <ele>471.649</ele>
        <time>2019-06-22T19:59:08Z</time>
      </trkpt>
      <trkpt lat="39.471604" lon="-6.392943">
        <ele>471.284</ele>
        <time>2019-06-22T19:59:09Z</time>
      </trkpt>
      <trkpt lat="39.471512" lon="-6.392892">
        <ele>470.717</ele>
        <time>2019-06-22T19:59:10Z</time>
      </trkpt>
      <trkpt lat="39.471432" lon="-6.392848">
        <ele>470.268</ele>
        <time>2019-06-22T19:59:11Z</time>
      </trkpt>
      <trkpt lat="39.471365" lon="-6.392804">
        <ele>469.342</ele>
        <time>2019-06-22T19:59:12Z</time>
      </trkpt>
      <trkpt lat="39.471313" lon="-6.392768">
        <ele>468.526</ele>
        <time>2019-06-22T19:59:13Z</time>
      </trkpt>
      <trkpt lat="39.471231" lon="-6.392743">
        <ele>467.908</ele>
        <time>2019-06-22T19:59:14Z</time>
      </trkpt>
      <trkpt lat="39.471169" lon="-6.392735">
        <ele>467.549</ele>
        <time>2019-06-22T19:59:15Z</time>
      </trkpt>
      <trkpt lat="39.471075" lon="-6.392709">
        <ele>467.233</ele>
        <time>2019-06-22T19:59:17Z</time>
      </trkpt>
      <trkpt lat="39.471022" lon="-6.392670">
        <ele>467.235</ele>
        <time>2019-06-22T19:59:18Z</time>
      </trkpt>
      <trkpt lat="39.470978" lon="-6.392642">
        <ele>467.197</ele>
        <time>2019-06-22T19:59:19Z</time>
      </trkpt>
      <trkpt lat="39.470930" lon="-6.392594">
        <ele>466.935</ele>
        <time>2019-06-22T19:59:20Z</time>
      </trkpt>
      <trkpt lat="39.470880" lon="-6.392545">
        <ele>466.784</ele>
        <time>2019-06-22T19:59:21Z</time>
      </trkpt>
      <trkpt lat="39.470819" lon="-6.392507">
        <ele>466.569</ele>
        <time>2019-06-22T19:59:22Z</time>
      </trkpt>
      <trkpt lat="39.470750" lon="-6.392455">
        <ele>466.372</ele>
        <time>2019-06-22T19:59:23Z</time>
      </trkpt>
      <trkpt lat="39.470675" lon="-6.392430">
        <ele>466.192</ele>
        <time>2019-06-22T19:59:24Z</time>
      </trkpt>
      <trkpt lat="39.470600" lon="-6.392408">
        <ele>465.873</ele>
        <time>2019-06-22T19:59:25Z</time>
      </trkpt>
      <trkpt lat="39.470550" lon="-6.392389">
        <ele>465.120</ele>
        <time>2019-06-22T19:59:26Z</time>
      </trkpt>
      <trkpt lat="39.470502" lon="-6.392402">
        <ele>464.408</ele>
        <time>2019-06-22T19:59:27Z</time>
      </trkpt>
      <trkpt lat="39.470441" lon="-6.392369">
        <ele>463.552</ele>
        <time>2019-06-22T19:59:29Z</time>
      </trkpt>
      <trkpt lat="39.470374" lon="-6.392321">
        <ele>463.646</ele>
        <time>2019-06-22T19:59:38Z</time>
      </trkpt>
      <trkpt lat="39.470294" lon="-6.392299">
        <ele>463.028</ele>
        <time>2019-06-22T19:59:40Z</time>
      </trkpt>
      <trkpt lat="39.470222" lon="-6.392318">
        <ele>462.330</ele>
        <time>2019-06-22T19:59:42Z</time>
      </trkpt>
      <trkpt lat="39.470126" lon="-6.392363">
        <ele>461.978</ele>
        <time>2019-06-22T19:59:44Z</time>
      </trkpt>
      <trkpt lat="39.470068" lon="-6.392384">
        <ele>461.977</ele>
        <time>2019-06-22T19:59:45Z</time>
      </trkpt>
      <trkpt lat="39.469993" lon="-6.392441">
        <ele>461.862</ele>
        <time>2019-06-22T19:59:46Z</time>
      </trkpt>
      <trkpt lat="39.469926" lon="-6.392486">
        <ele>461.725</ele>
        <time>2019-06-22T19:59:47Z</time>
      </trkpt>
      <trkpt lat="39.469878" lon="-6.392545">
        <ele>461.561</ele>
        <time>2019-06-22T19:59:48Z</time>
      </trkpt>
      <trkpt lat="39.469845" lon="-6.392632">
        <ele>461.121</ele>
        <time>2019-06-22T19:59:49Z</time>
      </trkpt>
      <trkpt lat="39.469810" lon="-6.392756">
        <ele>460.613</ele>
        <time>2019-06-22T19:59:50Z</time>
      </trkpt>
      <trkpt lat="39.469794" lon="-6.392853">
        <ele>460.208</ele>
        <time>2019-06-22T19:59:51Z</time>
      </trkpt>
      <trkpt lat="39.469769" lon="-6.393001">
        <ele>459.949</ele>
        <time>2019-06-22T19:59:52Z</time>
      </trkpt>
      <trkpt lat="39.469719" lon="-6.393111">
        <ele>459.653</ele>
        <time>2019-06-22T19:59:53Z</time>
      </trkpt>
      <trkpt lat="39.469685" lon="-6.393234">
        <ele>459.485</ele>
        <time>2019-06-22T19:59:54Z</time>
      </trkpt>
      <trkpt lat="39.469669" lon="-6.393379">
        <ele>459.327</ele>
        <time>2019-06-22T19:59:55Z</time>
      </trkpt>
      <trkpt lat="39.469639" lon="-6.393513">
        <ele>459.225</ele>
        <time>2019-06-22T19:59:56Z</time>
      </trkpt>
      <trkpt lat="39.469596" lon="-6.393672">
        <ele>459.264</ele>
        <time>2019-06-22T19:59:57Z</time>
      </trkpt>
      <trkpt lat="39.469553" lon="-6.393772">
        <ele>459.299</ele>
        <time>2019-06-22T19:59:58Z</time>
      </trkpt>
      <trkpt lat="39.469539" lon="-6.393847">
        <ele>459.222</ele>
        <time>2019-06-22T19:59:59Z</time>
      </trkpt>
      <trkpt lat="39.469574" lon="-6.393919">
        <ele>459.562</ele>
        <time>2019-06-22T20:00:01Z</time>
      </trkpt>
      <trkpt lat="39.469590" lon="-6.393988">
        <ele>459.583</ele>
        <time>2019-06-22T20:00:02Z</time>
      </trkpt>
      <trkpt lat="39.469582" lon="-6.394103">
        <ele>459.711</ele>
        <time>2019-06-22T20:00:03Z</time>
      </trkpt>
      <trkpt lat="39.469570" lon="-6.394209">
        <ele>459.908</ele>
        <time>2019-06-22T20:00:04Z</time>
      </trkpt>
      <trkpt lat="39.469548" lon="-6.394299">
        <ele>460.179</ele>
        <time>2019-06-22T20:00:05Z</time>
      </trkpt>
      <trkpt lat="39.469525" lon="-6.394393">
        <ele>460.273</ele>
        <time>2019-06-22T20:00:06Z</time>
      </trkpt>
      <trkpt lat="39.469467" lon="-6.394465">
        <ele>460.375</ele>
        <time>2019-06-22T20:00:07Z</time>
      </trkpt>
      <trkpt lat="39.469402" lon="-6.394539">
        <ele>460.337</ele>
        <time>2019-06-22T20:00:08Z</time>
      </trkpt>
      <trkpt lat="39.469337" lon="-6.394566">
        <ele>460.395</ele>
        <time>2019-06-22T20:00:09Z</time>
      </trkpt>
      <trkpt lat="39.469266" lon="-6.394538">
        <ele>460.314</ele>
        <time>2019-06-22T20:00:10Z</time>
      </trkpt>
      <trkpt lat="39.469182" lon="-6.394536">
        <ele>460.329</ele>
        <time>2019-06-22T20:00:11Z</time>
      </trkpt>
      <trkpt lat="39.469129" lon="-6.394493">
        <ele>460.382</ele>
        <time>2019-06-22T20:00:12Z</time>
      </trkpt>
      <trkpt lat="39.469070" lon="-6.394434">
        <ele>460.176</ele>
        <time>2019-06-22T20:00:13Z</time>
      </trkpt>
      <trkpt lat="39.469035" lon="-6.394358">
        <ele>460.090</ele>
        <time>2019-06-22T20:00:14Z</time>
      </trkpt>
      <trkpt lat="39.469013" lon="-6.394269">
        <ele>459.919</ele>
        <time>2019-06-22T20:00:15Z</time>
      </trkpt>
      <trkpt lat="39.468994" lon="-6.394199">
        <ele>459.708</ele>
        <time>2019-06-22T20:00:16Z</time>
      </trkpt>
      <trkpt lat="39.468984" lon="-6.394118">
        <ele>459.640</ele>
        <time>2019-06-22T20:00:17Z</time>
      </trkpt>
      <trkpt lat="39.468970" lon="-6.394056">
        <ele>459.674</ele>
        <time>2019-06-22T20:00:18Z</time>
      </trkpt>
      <trkpt lat="39.468950" lon="-6.393990">
        <ele>459.696</ele>
        <time>2019-06-22T20:00:19Z</time>
      </trkpt>
      <trkpt lat="39.468913" lon="-6.393914">
        <ele>459.418</ele>
        <time>2019-06-22T20:00:20Z</time>
      </trkpt>
      <trkpt lat="39.468874" lon="-6.393834">
        <ele>459.196</ele>
        <time>2019-06-22T20:00:21Z</time>
      </trkpt>
      <trkpt lat="39.468823" lon="-6.393769">
        <ele>458.995</ele>
        <time>2019-06-22T20:00:22Z</time>
      </trkpt>
      <trkpt lat="39.468772" lon="-6.393707">
        <ele>458.790</ele>
        <time>2019-06-22T20:00:23Z</time>
      </trkpt>
      <trkpt lat="39.468707" lon="-6.393616">
        <ele>458.743</ele>
        <time>2019-06-22T20:00:24Z</time>
      </trkpt>
      <trkpt lat="39.468630" lon="-6.393487">
        <ele>458.752</ele>
        <time>2019-06-22T20:00:25Z</time>
      </trkpt>
      <trkpt lat="39.468556" lon="-6.393351">
        <ele>458.753</ele>
        <time>2019-06-22T20:00:26Z</time>
      </trkpt>
      <trkpt lat="39.468472" lon="-6.393211">
        <ele>458.608</ele>
        <time>2019-06-22T20:00:27Z</time>
      </trkpt>
      <trkpt lat="39.468394" lon="-6.393063">
        <ele>458.308</ele>
        <time>2019-06-22T20:00:28Z</time>
      </trkpt>
      <trkpt lat="39.468310" lon="-6.392898">
        <ele>457.928</ele>
        <time>2019-06-22T20:00:29Z</time>
      </trkpt>
      <trkpt lat="39.468229" lon="-6.392728">
        <ele>457.682</ele>
        <time>2019-06-22T20:00:30Z</time>
      </trkpt>
      <trkpt lat="39.468155" lon="-6.392549">
        <ele>457.054</ele>
        <time>2019-06-22T20:00:31Z</time>
      </trkpt>
      <trkpt lat="39.468082" lon="-6.392380">
        <ele>456.746</ele>
        <time>2019-06-22T20:00:32Z</time>
      </trkpt>
      <trkpt lat="39.468017" lon="-6.392188">
        <ele>455.864</ele>
        <time>2019-06-22T20:00:33Z</time>
      </trkpt>
      <trkpt lat="39.467951" lon="-6.391995">
        <ele>455.843</ele>
        <time>2019-06-22T20:00:34Z</time>
      </trkpt>
      <trkpt lat="39.467895" lon="-6.391814">
        <ele>455.588</ele>
        <time>2019-06-22T20:00:35Z</time>
      </trkpt>
      <trkpt lat="39.467841" lon="-6.391638">
        <ele>455.011</ele>
        <time>2019-06-22T20:00:36Z</time>
      </trkpt>
      <trkpt lat="39.467793" lon="-6.391455">
        <ele>455.076</ele>
        <time>2019-06-22T20:00:37Z</time>
      </trkpt>
      <trkpt lat="39.467743" lon="-6.391270">
        <ele>455.490</ele>
        <time>2019-06-22T20:00:38Z</time>
      </trkpt>
      <trkpt lat="39.467689" lon="-6.391085">
        <ele>455.419</ele>
        <time>2019-06-22T20:00:39Z</time>
      </trkpt>
      <trkpt lat="39.467632" lon="-6.390904">
        <ele>455.408</ele>
        <time>2019-06-22T20:00:40Z</time>
      </trkpt>
      <trkpt lat="39.467572" lon="-6.390717">
        <ele>455.820</ele>
        <time>2019-06-22T20:00:41Z</time>
      </trkpt>
      <trkpt lat="39.467505" lon="-6.390536">
        <ele>455.834</ele>
        <time>2019-06-22T20:00:42Z</time>
      </trkpt>
      <trkpt lat="39.467444" lon="-6.390343">
        <ele>455.696</ele>
        <time>2019-06-22T20:00:43Z</time>
      </trkpt>
      <trkpt lat="39.467378" lon="-6.390177">
        <ele>455.658</ele>
        <time>2019-06-22T20:00:44Z</time>
      </trkpt>
      <trkpt lat="39.467317" lon="-6.390014">
        <ele>456.036</ele>
        <time>2019-06-22T20:00:45Z</time>
      </trkpt>
      <trkpt lat="39.467255" lon="-6.389848">
        <ele>456.275</ele>
        <time>2019-06-22T20:00:46Z</time>
      </trkpt>
      <trkpt lat="39.467186" lon="-6.389668">
        <ele>456.620</ele>
        <time>2019-06-22T20:00:47Z</time>
      </trkpt>
      <trkpt lat="39.467112" lon="-6.389515">
        <ele>457.133</ele>
        <time>2019-06-22T20:00:48Z</time>
      </trkpt>
      <trkpt lat="39.467038" lon="-6.389349">
        <ele>457.641</ele>
        <time>2019-06-22T20:00:49Z</time>
      </trkpt>
      <trkpt lat="39.466968" lon="-6.389196">
        <ele>458.081</ele>
        <time>2019-06-22T20:00:50Z</time>
      </trkpt>
      <trkpt lat="39.466900" lon="-6.389055">
        <ele>458.109</ele>
        <time>2019-06-22T20:00:51Z</time>
      </trkpt>
      <trkpt lat="39.466836" lon="-6.388922">
        <ele>458.308</ele>
        <time>2019-06-22T20:00:52Z</time>
      </trkpt>
      <trkpt lat="39.466770" lon="-6.388807">
        <ele>458.357</ele>
        <time>2019-06-22T20:00:53Z</time>
      </trkpt>
      <trkpt lat="39.466704" lon="-6.388696">
        <ele>458.371</ele>
        <time>2019-06-22T20:00:54Z</time>
      </trkpt>
      <trkpt lat="39.466651" lon="-6.388597">
        <ele>458.353</ele>
        <time>2019-06-22T20:00:55Z</time>
      </trkpt>
      <trkpt lat="39.466598" lon="-6.388514">
        <ele>458.555</ele>
        <time>2019-06-22T20:00:56Z</time>
      </trkpt>
      <trkpt lat="39.466551" lon="-6.388438">
        <ele>458.863</ele>
        <time>2019-06-22T20:00:57Z</time>
      </trkpt>
      <trkpt lat="39.466514" lon="-6.388368">
        <ele>459.032</ele>
        <time>2019-06-22T20:00:58Z</time>
      </trkpt>
      <trkpt lat="39.466474" lon="-6.388292">
        <ele>459.357</ele>
        <time>2019-06-22T20:00:59Z</time>
      </trkpt>
      <trkpt lat="39.466433" lon="-6.388242">
        <ele>459.650</ele>
        <time>2019-06-22T20:01:00Z</time>
      </trkpt>
      <trkpt lat="39.466387" lon="-6.388200">
        <ele>459.771</ele>
        <time>2019-06-22T20:01:01Z</time>
      </trkpt>
      <trkpt lat="39.466330" lon="-6.388149">
        <ele>459.741</ele>
        <time>2019-06-22T20:01:02Z</time>
      </trkpt>
      <trkpt lat="39.466270" lon="-6.388110">
        <ele>459.715</ele>
        <time>2019-06-22T20:01:03Z</time>
      </trkpt>
      <trkpt lat="39.466197" lon="-6.388094">
        <ele>459.708</ele>
        <time>2019-06-22T20:01:04Z</time>
      </trkpt>
      <trkpt lat="39.466125" lon="-6.388058">
        <ele>459.640</ele>
        <time>2019-06-22T20:01:05Z</time>
      </trkpt>
      <trkpt lat="39.466055" lon="-6.388011">
        <ele>459.674</ele>
        <time>2019-06-22T20:01:06Z</time>
      </trkpt>
      <trkpt lat="39.466007" lon="-6.387941">
        <ele>459.636</ele>
        <time>2019-06-22T20:01:07Z</time>
      </trkpt>
      <trkpt lat="39.465965" lon="-6.387865">
        <ele>459.618</ele>
        <time>2019-06-22T20:01:08Z</time>
      </trkpt>
      <trkpt lat="39.465941" lon="-6.387750">
        <ele>459.686</ele>
        <time>2019-06-22T20:01:09Z</time>
      </trkpt>
      <trkpt lat="39.465916" lon="-6.387643">
        <ele>459.625</ele>
        <time>2019-06-22T20:01:10Z</time>
      </trkpt>
      <trkpt lat="39.465885" lon="-6.387512">
        <ele>459.540</ele>
        <time>2019-06-22T20:01:11Z</time>
      </trkpt>
      <trkpt lat="39.465837" lon="-6.387392">
        <ele>459.253</ele>
        <time>2019-06-22T20:01:12Z</time>
      </trkpt>
      <trkpt lat="39.465769" lon="-6.387276">
        <ele>458.827</ele>
        <time>2019-06-22T20:01:13Z</time>
      </trkpt>
      <trkpt lat="39.465684" lon="-6.387172">
        <ele>458.768</ele>
        <time>2019-06-22T20:01:14Z</time>
      </trkpt>
      <trkpt lat="39.465589" lon="-6.387071">
        <ele>458.414</ele>
        <time>2019-06-22T20:01:15Z</time>
      </trkpt>
      <trkpt lat="39.465502" lon="-6.386967">
        <ele>458.108</ele>
        <time>2019-06-22T20:01:16Z</time>
      </trkpt>
      <trkpt lat="39.465416" lon="-6.386867">
        <ele>458.185</ele>
        <time>2019-06-22T20:01:17Z</time>
      </trkpt>
      <trkpt lat="39.465321" lon="-6.386776">
        <ele>458.149</ele>
        <time>2019-06-22T20:01:18Z</time>
      </trkpt>
      <trkpt lat="39.465229" lon="-6.386690">
        <ele>458.361</ele>
        <time>2019-06-22T20:01:19Z</time>
      </trkpt>
      <trkpt lat="39.465104" lon="-6.386546">
        <ele>458.593</ele>
        <time>2019-06-22T20:01:20Z</time>
      </trkpt>
      <trkpt lat="39.464985" lon="-6.386435">
        <ele>458.711</ele>
        <time>2019-06-22T20:01:21Z</time>
      </trkpt>
      <trkpt lat="39.464857" lon="-6.386324">
        <ele>459.280</ele>
        <time>2019-06-22T20:01:22Z</time>
      </trkpt>
      <trkpt lat="39.464720" lon="-6.386196">
        <ele>459.515</ele>
        <time>2019-06-22T20:01:23Z</time>
      </trkpt>
      <trkpt lat="39.464579" lon="-6.386057">
        <ele>460.278</ele>
        <time>2019-06-22T20:01:24Z</time>
      </trkpt>
      <trkpt lat="39.464436" lon="-6.385924">
        <ele>460.615</ele>
        <time>2019-06-22T20:01:25Z</time>
      </trkpt>
      <trkpt lat="39.464280" lon="-6.385805">
        <ele>461.065</ele>
        <time>2019-06-22T20:01:26Z</time>
      </trkpt>
      <trkpt lat="39.464130" lon="-6.385684">
        <ele>461.611</ele>
        <time>2019-06-22T20:01:27Z</time>
      </trkpt>
      <trkpt lat="39.463978" lon="-6.385551">
        <ele>462.308</ele>
        <time>2019-06-22T20:01:28Z</time>
      </trkpt>
      <trkpt lat="39.463832" lon="-6.385416">
        <ele>462.344</ele>
        <time>2019-06-22T20:01:29Z</time>
      </trkpt>
      <trkpt lat="39.463685" lon="-6.385305">
        <ele>462.388</ele>
        <time>2019-06-22T20:01:30Z</time>
      </trkpt>
      <trkpt lat="39.463552" lon="-6.385198">
        <ele>462.320</ele>
        <time>2019-06-22T20:01:31Z</time>
      </trkpt>
      <trkpt lat="39.463422" lon="-6.385106">
        <ele>462.352</ele>
        <time>2019-06-22T20:01:32Z</time>
      </trkpt>
      <trkpt lat="39.463295" lon="-6.385016">
        <ele>462.390</ele>
        <time>2019-06-22T20:01:33Z</time>
      </trkpt>
      <trkpt lat="39.463159" lon="-6.384933">
        <ele>462.439</ele>
        <time>2019-06-22T20:01:34Z</time>
      </trkpt>
      <trkpt lat="39.463018" lon="-6.384864">
        <ele>462.714</ele>
        <time>2019-06-22T20:01:35Z</time>
      </trkpt>
      <trkpt lat="39.462878" lon="-6.384802">
        <ele>463.227</ele>
        <time>2019-06-22T20:01:36Z</time>
      </trkpt>
      <trkpt lat="39.462742" lon="-6.384739">
        <ele>464.022</ele>
        <time>2019-06-22T20:01:37Z</time>
      </trkpt>
      <trkpt lat="39.462611" lon="-6.384694">
        <ele>464.662</ele>
        <time>2019-06-22T20:01:38Z</time>
      </trkpt>
      <trkpt lat="39.462487" lon="-6.384664">
        <ele>464.908</ele>
        <time>2019-06-22T20:01:39Z</time>
      </trkpt>
      <trkpt lat="39.462359" lon="-6.384619">
        <ele>465.308</ele>
        <time>2019-06-22T20:01:40Z</time>
      </trkpt>
      <trkpt lat="39.462221" lon="-6.384585">
        <ele>465.575</ele>
        <time>2019-06-22T20:01:41Z</time>
      </trkpt>
      <trkpt lat="39.462092" lon="-6.384560">
        <ele>465.559</ele>
        <time>2019-06-22T20:01:42Z</time>
      </trkpt>
      <trkpt lat="39.461960" lon="-6.384551">
        <ele>465.191</ele>
        <time>2019-06-22T20:01:43Z</time>
      </trkpt>
      <trkpt lat="39.461835" lon="-6.384550">
        <ele>464.933</ele>
        <time>2019-06-22T20:01:44Z</time>
      </trkpt>
      <trkpt lat="39.461716" lon="-6.384544">
        <ele>464.671</ele>
        <time>2019-06-22T20:01:45Z</time>
      </trkpt>
      <trkpt lat="39.461601" lon="-6.384564">
        <ele>463.850</ele>
        <time>2019-06-22T20:01:46Z</time>
      </trkpt>
      <trkpt lat="39.461501" lon="-6.384585">
        <ele>463.245</ele>
        <time>2019-06-22T20:01:47Z</time>
      </trkpt>
      <trkpt lat="39.461403" lon="-6.384612">
        <ele>463.148</ele>
        <time>2019-06-22T20:01:48Z</time>
      </trkpt>
      <trkpt lat="39.461326" lon="-6.384642">
        <ele>462.611</ele>
        <time>2019-06-22T20:01:49Z</time>
      </trkpt>
      <trkpt lat="39.461242" lon="-6.384678">
        <ele>462.221</ele>
        <time>2019-06-22T20:01:50Z</time>
      </trkpt>
      <trkpt lat="39.461166" lon="-6.384704">
        <ele>462.203</ele>
        <time>2019-06-22T20:01:51Z</time>
      </trkpt>
      <trkpt lat="39.461087" lon="-6.384697">
        <ele>462.508</ele>
        <time>2019-06-22T20:01:52Z</time>
      </trkpt>
      <trkpt lat="39.461006" lon="-6.384676">
        <ele>462.534</ele>
        <time>2019-06-22T20:01:53Z</time>
      </trkpt>
      <trkpt lat="39.460931" lon="-6.384627">
        <ele>462.678</ele>
        <time>2019-06-22T20:01:54Z</time>
      </trkpt>
      <trkpt lat="39.460864" lon="-6.384561">
        <ele>462.930</ele>
        <time>2019-06-22T20:01:55Z</time>
      </trkpt>
      <trkpt lat="39.460817" lon="-6.384485">
        <ele>462.942</ele>
        <time>2019-06-22T20:01:56Z</time>
      </trkpt>
      <trkpt lat="39.460807" lon="-6.384381">
        <ele>462.480</ele>
        <time>2019-06-22T20:01:57Z</time>
      </trkpt>
      <trkpt lat="39.460807" lon="-6.384258">
        <ele>462.059</ele>
        <time>2019-06-22T20:01:58Z</time>
      </trkpt>
      <trkpt lat="39.460823" lon="-6.384150">
        <ele>461.614</ele>
        <time>2019-06-22T20:01:59Z</time>
      </trkpt>
      <trkpt lat="39.460857" lon="-6.384063">
        <ele>461.227</ele>
        <time>2019-06-22T20:02:00Z</time>
      </trkpt>
      <trkpt lat="39.460906" lon="-6.383962">
        <ele>460.899</ele>
        <time>2019-06-22T20:02:01Z</time>
      </trkpt>
      <trkpt lat="39.460961" lon="-6.383883">
        <ele>460.807</ele>
        <time>2019-06-22T20:02:02Z</time>
      </trkpt>
      <trkpt lat="39.461000" lon="-6.383762">
        <ele>460.727</ele>
        <time>2019-06-22T20:02:03Z</time>
      </trkpt>
      <trkpt lat="39.461025" lon="-6.383640">
        <ele>460.508</ele>
        <time>2019-06-22T20:02:04Z</time>
      </trkpt>
      <trkpt lat="39.461012" lon="-6.383505">
        <ele>460.012</ele>
        <time>2019-06-22T20:02:05Z</time>
      </trkpt>
      <trkpt lat="39.460999" lon="-6.383360">
        <ele>459.426</ele>
        <time>2019-06-22T20:02:06Z</time>
      </trkpt>
      <trkpt lat="39.461003" lon="-6.383200">
        <ele>458.868</ele>
        <time>2019-06-22T20:02:07Z</time>
      </trkpt>
      <trkpt lat="39.461004" lon="-6.383034">
        <ele>458.210</ele>
        <time>2019-06-22T20:02:08Z</time>
      </trkpt>
      <trkpt lat="39.461004" lon="-6.382889">
        <ele>457.648</ele>
        <time>2019-06-22T20:02:09Z</time>
      </trkpt>
      <trkpt lat="39.461003" lon="-6.382725">
        <ele>456.997</ele>
        <time>2019-06-22T20:02:10Z</time>
      </trkpt>
      <trkpt lat="39.461017" lon="-6.382561">
        <ele>456.272</ele>
        <time>2019-06-22T20:02:11Z</time>
      </trkpt>
      <trkpt lat="39.461017" lon="-6.382397">
        <ele>455.345</ele>
        <time>2019-06-22T20:02:12Z</time>
      </trkpt>
      <trkpt lat="39.461008" lon="-6.382239">
        <ele>454.451</ele>
        <time>2019-06-22T20:02:13Z</time>
      </trkpt>
      <trkpt lat="39.460994" lon="-6.382084">
        <ele>453.401</ele>
        <time>2019-06-22T20:02:14Z</time>
      </trkpt>
      <trkpt lat="39.460982" lon="-6.381935">
        <ele>452.911</ele>
        <time>2019-06-22T20:02:15Z</time>
      </trkpt>
      <trkpt lat="39.460973" lon="-6.381785">
        <ele>452.408</ele>
        <time>2019-06-22T20:02:16Z</time>
      </trkpt>
      <trkpt lat="39.460965" lon="-6.381651">
        <ele>452.058</ele>
        <time>2019-06-22T20:02:17Z</time>
      </trkpt>
      <trkpt lat="39.460957" lon="-6.381499">
        <ele>451.882</ele>
        <time>2019-06-22T20:02:18Z</time>
      </trkpt>
      <trkpt lat="39.460964" lon="-6.381329">
        <ele>451.654</ele>
        <time>2019-06-22T20:02:19Z</time>
      </trkpt>
      <trkpt lat="39.460942" lon="-6.381145">
        <ele>451.026</ele>
        <time>2019-06-22T20:02:20Z</time>
      </trkpt>
      <trkpt lat="39.460939" lon="-6.380972">
        <ele>451.054</ele>
        <time>2019-06-22T20:02:21Z</time>
      </trkpt>
      <trkpt lat="39.460926" lon="-6.380804">
        <ele>451.023</ele>
        <time>2019-06-22T20:02:22Z</time>
      </trkpt>
      <trkpt lat="39.460921" lon="-6.380635">
        <ele>451.048</ele>
        <time>2019-06-22T20:02:23Z</time>
      </trkpt>
      <trkpt lat="39.460923" lon="-6.380478">
        <ele>451.031</ele>
        <time>2019-06-22T20:02:24Z</time>
      </trkpt>
      <trkpt lat="39.460913" lon="-6.380315">
        <ele>451.032</ele>
        <time>2019-06-22T20:02:25Z</time>
      </trkpt>
      <trkpt lat="39.460900" lon="-6.380152">
        <ele>451.092</ele>
        <time>2019-06-22T20:02:26Z</time>
      </trkpt>
      <trkpt lat="39.460897" lon="-6.380010">
        <ele>451.011</ele>
        <time>2019-06-22T20:02:27Z</time>
      </trkpt>
      <trkpt lat="39.460874" lon="-6.379886">
        <ele>451.008</ele>
        <time>2019-06-22T20:02:28Z</time>
      </trkpt>
      <trkpt lat="39.460857" lon="-6.379798">
        <ele>451.096</ele>
        <time>2019-06-22T20:02:29Z</time>
      </trkpt>
      <trkpt lat="39.460842" lon="-6.379702">
        <ele>451.090</ele>
        <time>2019-06-22T20:02:30Z</time>
      </trkpt>
      <trkpt lat="39.460821" lon="-6.379615">
        <ele>451.412</ele>
        <time>2019-06-22T20:02:31Z</time>
      </trkpt>
      <trkpt lat="39.460812" lon="-6.379534">
        <ele>451.424</ele>
        <time>2019-06-22T20:02:32Z</time>
      </trkpt>
      <trkpt lat="39.460815" lon="-6.379456">
        <ele>451.392</ele>
        <time>2019-06-22T20:02:33Z</time>
      </trkpt>
      <trkpt lat="39.460841" lon="-6.379363">
        <ele>451.261</ele>
        <time>2019-06-22T20:02:34Z</time>
      </trkpt>
      <trkpt lat="39.460847" lon="-6.379250">
        <ele>451.096</ele>
        <time>2019-06-22T20:02:35Z</time>
      </trkpt>
      <trkpt lat="39.460843" lon="-6.379059">
        <ele>450.729</ele>
        <time>2019-06-22T20:02:36Z</time>
      </trkpt>
      <trkpt lat="39.460838" lon="-6.378913">
        <ele>450.592</ele>
        <time>2019-06-22T20:02:37Z</time>
      </trkpt>
      <trkpt lat="39.460826" lon="-6.378735">
        <ele>450.173</ele>
        <time>2019-06-22T20:02:38Z</time>
      </trkpt>
      <trkpt lat="39.460822" lon="-6.378580">
        <ele>449.920</ele>
        <time>2019-06-22T20:02:39Z</time>
      </trkpt>
      <trkpt lat="39.460827" lon="-6.378425">
        <ele>449.808</ele>
        <time>2019-06-22T20:02:40Z</time>
      </trkpt>
      <trkpt lat="39.460827" lon="-6.378290">
        <ele>449.812</ele>
        <time>2019-06-22T20:02:41Z</time>
      </trkpt>
      <trkpt lat="39.460828" lon="-6.378162">
        <ele>449.826</ele>
        <time>2019-06-22T20:02:42Z</time>
      </trkpt>
      <trkpt lat="39.460837" lon="-6.378057">
        <ele>449.918</ele>
        <time>2019-06-22T20:02:43Z</time>
      </trkpt>
      <trkpt lat="39.460834" lon="-6.377960">
        <ele>450.030</ele>
        <time>2019-06-22T20:02:44Z</time>
      </trkpt>
      <trkpt lat="39.460834" lon="-6.377895">
        <ele>450.048</ele>
        <time>2019-06-22T20:02:45Z</time>
      </trkpt>
      <trkpt lat="39.460821" lon="-6.377830">
        <ele>449.957</ele>
        <time>2019-06-22T20:02:46Z</time>
      </trkpt>
      <trkpt lat="39.460805" lon="-6.377772">
        <ele>449.882</ele>
        <time>2019-06-22T20:02:47Z</time>
      </trkpt>
      <trkpt lat="39.460780" lon="-6.377717">
        <ele>449.875</ele>
        <time>2019-06-22T20:02:48Z</time>
      </trkpt>
      <trkpt lat="39.460722" lon="-6.377705">
        <ele>449.729</ele>
        <time>2019-06-22T20:02:49Z</time>
      </trkpt>
      <trkpt lat="39.460647" lon="-6.377685">
        <ele>449.400</ele>
        <time>2019-06-22T20:02:50Z</time>
      </trkpt>
      <trkpt lat="39.460560" lon="-6.377682">
        <ele>449.220</ele>
        <time>2019-06-22T20:02:51Z</time>
      </trkpt>
      <trkpt lat="39.460453" lon="-6.377668">
        <ele>449.008</ele>
        <time>2019-06-22T20:02:52Z</time>
      </trkpt>
      <trkpt lat="39.460344" lon="-6.377635">
        <ele>449.035</ele>
        <time>2019-06-22T20:02:53Z</time>
      </trkpt>
      <trkpt lat="39.460217" lon="-6.377611">
        <ele>449.289</ele>
        <time>2019-06-22T20:02:54Z</time>
      </trkpt>
      <trkpt lat="39.460081" lon="-6.377599">
        <ele>449.741</ele>
        <time>2019-06-22T20:02:55Z</time>
      </trkpt>
      <trkpt lat="39.459935" lon="-6.377584">
        <ele>450.443</ele>
        <time>2019-06-22T20:02:56Z</time>
      </trkpt>
      <trkpt lat="39.459793" lon="-6.377574">
        <ele>451.221</ele>
        <time>2019-06-22T20:02:57Z</time>
      </trkpt>
      <trkpt lat="39.459652" lon="-6.377557">
        <ele>451.860</ele>
        <time>2019-06-22T20:02:58Z</time>
      </trkpt>
      <trkpt lat="39.459510" lon="-6.377535">
        <ele>452.125</ele>
        <time>2019-06-22T20:02:59Z</time>
      </trkpt>
      <trkpt lat="39.459379" lon="-6.377534">
        <ele>452.378</ele>
        <time>2019-06-22T20:03:00Z</time>
      </trkpt>
      <trkpt lat="39.459243" lon="-6.377526">
        <ele>452.584</ele>
        <time>2019-06-22T20:03:01Z</time>
      </trkpt>
      <trkpt lat="39.459110" lon="-6.377498">
        <ele>452.707</ele>
        <time>2019-06-22T20:03:02Z</time>
      </trkpt>
      <trkpt lat="39.458963" lon="-6.377485">
        <ele>453.317</ele>
        <time>2019-06-22T20:03:03Z</time>
      </trkpt>
      <trkpt lat="39.458817" lon="-6.377459">
        <ele>454.208</ele>
        <time>2019-06-22T20:03:04Z</time>
      </trkpt>
      <trkpt lat="39.458665" lon="-6.377439">
        <ele>454.671</ele>
        <time>2019-06-22T20:03:05Z</time>
      </trkpt>
      <trkpt lat="39.458514" lon="-6.377404">
        <ele>454.915</ele>
        <time>2019-06-22T20:03:06Z</time>
      </trkpt>
      <trkpt lat="39.458362" lon="-6.377360">
        <ele>455.437</ele>
        <time>2019-06-22T20:03:07Z</time>
      </trkpt>
      <trkpt lat="39.458210" lon="-6.377329">
        <ele>455.619</ele>
        <time>2019-06-22T20:03:08Z</time>
      </trkpt>
      <trkpt lat="39.458054" lon="-6.377294">
        <ele>455.617</ele>
        <time>2019-06-22T20:03:09Z</time>
      </trkpt>
      <trkpt lat="39.457899" lon="-6.377247">
        <ele>455.826</ele>
        <time>2019-06-22T20:03:10Z</time>
      </trkpt>
      <trkpt lat="39.457740" lon="-6.377208">
        <ele>455.891</ele>
        <time>2019-06-22T20:03:11Z</time>
      </trkpt>
      <trkpt lat="39.457591" lon="-6.377163">
        <ele>455.764</ele>
        <time>2019-06-22T20:03:12Z</time>
      </trkpt>
      <trkpt lat="39.457437" lon="-6.377121">
        <ele>455.534</ele>
        <time>2019-06-22T20:03:13Z</time>
      </trkpt>
      <trkpt lat="39.457285" lon="-6.377091">
        <ele>455.455</ele>
        <time>2019-06-22T20:03:14Z</time>
      </trkpt>
      <trkpt lat="39.457149" lon="-6.377060">
        <ele>455.410</ele>
        <time>2019-06-22T20:03:15Z</time>
      </trkpt>
      <trkpt lat="39.457016" lon="-6.377030">
        <ele>456.008</ele>
        <time>2019-06-22T20:03:16Z</time>
      </trkpt>
      <trkpt lat="39.456890" lon="-6.377002">
        <ele>456.856</ele>
        <time>2019-06-22T20:03:17Z</time>
      </trkpt>
      <trkpt lat="39.456775" lon="-6.376972">
        <ele>457.640</ele>
        <time>2019-06-22T20:03:18Z</time>
      </trkpt>
      <trkpt lat="39.456664" lon="-6.376942">
        <ele>458.342</ele>
        <time>2019-06-22T20:03:19Z</time>
      </trkpt>
      <trkpt lat="39.456580" lon="-6.376935">
        <ele>459.044</ele>
        <time>2019-06-22T20:03:20Z</time>
      </trkpt>
      <trkpt lat="39.456501" lon="-6.376923">
        <ele>459.372</ele>
        <time>2019-06-22T20:03:21Z</time>
      </trkpt>
      <trkpt lat="39.456431" lon="-6.376932">
        <ele>459.381</ele>
        <time>2019-06-22T20:03:22Z</time>
      </trkpt>
      <trkpt lat="39.456358" lon="-6.376949">
        <ele>459.656</ele>
        <time>2019-06-22T20:03:23Z</time>
      </trkpt>
      <trkpt lat="39.456291" lon="-6.376964">
        <ele>459.929</ele>
        <time>2019-06-22T20:03:24Z</time>
      </trkpt>
      <trkpt lat="39.456233" lon="-6.376966">
        <ele>460.395</ele>
        <time>2019-06-22T20:03:25Z</time>
      </trkpt>
      <trkpt lat="39.456184" lon="-6.376940">
        <ele>461.049</ele>
        <time>2019-06-22T20:03:26Z</time>
      </trkpt>
      <trkpt lat="39.456144" lon="-6.376880">
        <ele>461.623</ele>
        <time>2019-06-22T20:03:27Z</time>
      </trkpt>
      <trkpt lat="39.456126" lon="-6.376805">
        <ele>462.008</ele>
        <time>2019-06-22T20:03:28Z</time>
      </trkpt>
      <trkpt lat="39.456126" lon="-6.376742">
        <ele>462.342</ele>
        <time>2019-06-22T20:03:29Z</time>
      </trkpt>
      <trkpt lat="39.456149" lon="-6.376646">
        <ele>462.456</ele>
        <time>2019-06-22T20:03:30Z</time>
      </trkpt>
      <trkpt lat="39.456168" lon="-6.376526">
        <ele>462.438</ele>
        <time>2019-06-22T20:03:31Z</time>
      </trkpt>
      <trkpt lat="39.456186" lon="-6.376396">
        <ele>462.330</ele>
        <time>2019-06-22T20:03:32Z</time>
      </trkpt>
      <trkpt lat="39.456203" lon="-6.376254">
        <ele>462.258</ele>
        <time>2019-06-22T20:03:33Z</time>
      </trkpt>
      <trkpt lat="39.456229" lon="-6.376106">
        <ele>462.167</ele>
        <time>2019-06-22T20:03:34Z</time>
      </trkpt>
      <trkpt lat="39.456257" lon="-6.375968">
        <ele>462.122</ele>
        <time>2019-06-22T20:03:35Z</time>
      </trkpt>
      <trkpt lat="39.456278" lon="-6.375828">
        <ele>462.095</ele>
        <time>2019-06-22T20:03:36Z</time>
      </trkpt>
      <trkpt lat="39.456298" lon="-6.375700">
        <ele>462.045</ele>
        <time>2019-06-22T20:03:37Z</time>
      </trkpt>
      <trkpt lat="39.456323" lon="-6.375568">
        <ele>462.047</ele>
        <time>2019-06-22T20:03:38Z</time>
      </trkpt>
      <trkpt lat="39.456352" lon="-6.375448">
        <ele>461.911</ele>
        <time>2019-06-22T20:03:39Z</time>
      </trkpt>
      <trkpt lat="39.456369" lon="-6.375328">
        <ele>461.908</ele>
        <time>2019-06-22T20:03:40Z</time>
      </trkpt>
      <trkpt lat="39.456386" lon="-6.375220">
        <ele>461.927</ele>
        <time>2019-06-22T20:03:41Z</time>
      </trkpt>
      <trkpt lat="39.456398" lon="-6.375110">
        <ele>461.721</ele>
        <time>2019-06-22T20:03:42Z</time>
      </trkpt>
      <trkpt lat="39.456417" lon="-6.375038">
        <ele>461.513</ele>
        <time>2019-06-22T20:03:43Z</time>
      </trkpt>
      <trkpt lat="39.456426" lon="-6.374973">
        <ele>461.275</ele>
        <time>2019-06-22T20:03:44Z</time>
      </trkpt>
      <trkpt lat="39.456426" lon="-6.374904">
        <ele>460.633</ele>
        <time>2019-06-22T20:03:46Z</time>
      </trkpt>
      <trkpt lat="39.456417" lon="-6.374807">
        <ele>460.232</ele>
        <time>2019-06-22T20:03:48Z</time>
      </trkpt>
      <trkpt lat="39.456419" lon="-6.374730">
        <ele>460.067</ele>
        <time>2019-06-22T20:03:49Z</time>
      </trkpt>
      <trkpt lat="39.456435" lon="-6.374654">
        <ele>459.970</ele>
        <time>2019-06-22T20:03:50Z</time>
      </trkpt>
      <trkpt lat="39.456491" lon="-6.374564">
        <ele>459.783</ele>
        <time>2019-06-22T20:03:51Z</time>
      </trkpt>
      <trkpt lat="39.456545" lon="-6.374481">
        <ele>459.525</ele>
        <time>2019-06-22T20:03:52Z</time>
      </trkpt>
      <trkpt lat="39.456609" lon="-6.374398">
        <ele>459.317</ele>
        <time>2019-06-22T20:03:53Z</time>
      </trkpt>
      <trkpt lat="39.456641" lon="-6.374280">
        <ele>459.108</ele>
        <time>2019-06-22T20:03:54Z</time>
      </trkpt>
      <trkpt lat="39.456664" lon="-6.374130">
        <ele>458.971</ele>
        <time>2019-06-22T20:03:55Z</time>
      </trkpt>
      <trkpt lat="39.456686" lon="-6.373973">
        <ele>458.785</ele>
        <time>2019-06-22T20:03:56Z</time>
      </trkpt>
      <trkpt lat="39.456708" lon="-6.373831">
        <ele>458.667</ele>
        <time>2019-06-22T20:03:57Z</time>
      </trkpt>
      <trkpt lat="39.456729" lon="-6.373693">
        <ele>458.549</ele>
        <time>2019-06-22T20:03:58Z</time>
      </trkpt>
      <trkpt lat="39.456751" lon="-6.373553">
        <ele>458.437</ele>
        <time>2019-06-22T20:03:59Z</time>
      </trkpt>
      <trkpt lat="39.456773" lon="-6.373404">
        <ele>458.316</ele>
        <time>2019-06-22T20:04:00Z</time>
      </trkpt>
      <trkpt lat="39.456785" lon="-6.373251">
        <ele>458.321</ele>
        <time>2019-06-22T20:04:01Z</time>
      </trkpt>
      <trkpt lat="39.456807" lon="-6.373093">
        <ele>458.464</ele>
        <time>2019-06-22T20:04:02Z</time>
      </trkpt>
      <trkpt lat="39.456828" lon="-6.372943">
        <ele>458.679</ele>
        <time>2019-06-22T20:04:03Z</time>
      </trkpt>
      <trkpt lat="39.456845" lon="-6.372802">
        <ele>458.805</ele>
        <time>2019-06-22T20:04:04Z</time>
      </trkpt>
      <trkpt lat="39.456864" lon="-6.372661">
        <ele>459.125</ele>
        <time>2019-06-22T20:04:05Z</time>
      </trkpt>
      <trkpt lat="39.456882" lon="-6.372525">
        <ele>459.208</ele>
        <time>2019-06-22T20:04:06Z</time>
      </trkpt>
      <trkpt lat="39.456894" lon="-6.372408">
        <ele>459.480</ele>
        <time>2019-06-22T20:04:07Z</time>
      </trkpt>
      <trkpt lat="39.456913" lon="-6.372298">
        <ele>459.454</ele>
        <time>2019-06-22T20:04:08Z</time>
      </trkpt>
      <trkpt lat="39.456928" lon="-6.372191">
        <ele>459.416</ele>
        <time>2019-06-22T20:04:09Z</time>
      </trkpt>
      <trkpt lat="39.456928" lon="-6.372095">
        <ele>459.448</ele>
        <time>2019-06-22T20:04:10Z</time>
      </trkpt>
      <trkpt lat="39.456927" lon="-6.372000">
        <ele>459.656</ele>
        <time>2019-06-22T20:04:11Z</time>
      </trkpt>
      <trkpt lat="39.456907" lon="-6.371919">
        <ele>459.715</ele>
        <time>2019-06-22T20:04:12Z</time>
      </trkpt>
      <trkpt lat="39.456896" lon="-6.371825">
        <ele>459.930</ele>
        <time>2019-06-22T20:04:13Z</time>
      </trkpt>
      <trkpt lat="39.456898" lon="-6.371737">
        <ele>460.393</ele>
        <time>2019-06-22T20:04:14Z</time>
      </trkpt>
      <trkpt lat="39.456922" lon="-6.371664">
        <ele>460.559</ele>
        <time>2019-06-22T20:04:15Z</time>
      </trkpt>
      <trkpt lat="39.456961" lon="-6.371599">
        <ele>460.503</ele>
        <time>2019-06-22T20:04:16Z</time>
      </trkpt>
      <trkpt lat="39.457005" lon="-6.371504">
        <ele>460.623</ele>
        <time>2019-06-22T20:04:17Z</time>
      </trkpt>
      <trkpt lat="39.457047" lon="-6.371390">
        <ele>460.608</ele>
        <time>2019-06-22T20:04:18Z</time>
      </trkpt>
      <trkpt lat="39.457060" lon="-6.371189">
        <ele>460.438</ele>
        <time>2019-06-22T20:04:19Z</time>
      </trkpt>
      <trkpt lat="39.457071" lon="-6.371010">
        <ele>459.912</ele>
        <time>2019-06-22T20:04:20Z</time>
      </trkpt>
      <trkpt lat="39.457084" lon="-6.370848">
        <ele>459.224</ele>
        <time>2019-06-22T20:04:21Z</time>
      </trkpt>
      <trkpt lat="39.457101" lon="-6.370704">
        <ele>458.486</ele>
        <time>2019-06-22T20:04:22Z</time>
      </trkpt>
      <trkpt lat="39.457122" lon="-6.370505">
        <ele>457.644</ele>
        <time>2019-06-22T20:04:23Z</time>
      </trkpt>
      <trkpt lat="39.457152" lon="-6.370363">
        <ele>456.873</ele>
        <time>2019-06-22T20:04:24Z</time>
      </trkpt>
      <trkpt lat="39.457175" lon="-6.370218">
        <ele>456.018</ele>
        <time>2019-06-22T20:04:25Z</time>
      </trkpt>
      <trkpt lat="39.457201" lon="-6.370059">
        <ele>455.251</ele>
        <time>2019-06-22T20:04:26Z</time>
      </trkpt>
      <trkpt lat="39.457217" lon="-6.369907">
        <ele>454.457</ele>
        <time>2019-06-22T20:04:27Z</time>
      </trkpt>
      <trkpt lat="39.457236" lon="-6.369743">
        <ele>453.100</ele>
        <time>2019-06-22T20:04:28Z</time>
      </trkpt>
      <trkpt lat="39.457246" lon="-6.369596">
        <ele>451.920</ele>
        <time>2019-06-22T20:04:29Z</time>
      </trkpt>
      <trkpt lat="39.457245" lon="-6.369493">
        <ele>450.908</ele>
        <time>2019-06-22T20:04:30Z</time>
      </trkpt>
      <trkpt lat="39.457241" lon="-6.369381">
        <ele>450.168</ele>
        <time>2019-06-22T20:04:31Z</time>
      </trkpt>
      <trkpt lat="39.457215" lon="-6.369254">
        <ele>449.492</ele>
        <time>2019-06-22T20:04:32Z</time>
      </trkpt>
      <trkpt lat="39.457180" lon="-6.369158">
        <ele>449.214</ele>
        <time>2019-06-22T20:04:33Z</time>
      </trkpt>
      <trkpt lat="39.457119" lon="-6.369027">
        <ele>449.066</ele>
        <time>2019-06-22T20:04:34Z</time>
      </trkpt>
      <trkpt lat="39.457062" lon="-6.368958">
        <ele>448.724</ele>
        <time>2019-06-22T20:04:35Z</time>
      </trkpt>
      <trkpt lat="39.457023" lon="-6.368907">
        <ele>448.333</ele>
        <time>2019-06-22T20:04:36Z</time>
      </trkpt>
      <trkpt lat="39.456977" lon="-6.368854">
        <ele>448.068</ele>
        <time>2019-06-22T20:04:38Z</time>
      </trkpt>
      <trkpt lat="39.456924" lon="-6.368814">
        <ele>449.131</ele>
        <time>2019-06-22T20:04:54Z</time>
      </trkpt>
      <trkpt lat="39.456840" lon="-6.368752">
        <ele>449.074</ele>
        <time>2019-06-22T20:04:57Z</time>
      </trkpt>
      <trkpt lat="39.456786" lon="-6.368710">
        <ele>448.956</ele>
        <time>2019-06-22T20:04:58Z</time>
      </trkpt>
      <trkpt lat="39.456697" lon="-6.368657">
        <ele>448.821</ele>
        <time>2019-06-22T20:04:59Z</time>
      </trkpt>
      <trkpt lat="39.456609" lon="-6.368584">
        <ele>448.608</ele>
        <time>2019-06-22T20:05:00Z</time>
      </trkpt>
      <trkpt lat="39.456507" lon="-6.368518">
        <ele>448.320</ele>
        <time>2019-06-22T20:05:01Z</time>
      </trkpt>
      <trkpt lat="39.456409" lon="-6.368434">
        <ele>447.934</ele>
        <time>2019-06-22T20:05:02Z</time>
      </trkpt>
      <trkpt lat="39.456302" lon="-6.368359">
        <ele>447.556</ele>
        <time>2019-06-22T20:05:03Z</time>
      </trkpt>
      <trkpt lat="39.456200" lon="-6.368268">
        <ele>447.058</ele>
        <time>2019-06-22T20:05:04Z</time>
      </trkpt>
      <trkpt lat="39.456103" lon="-6.368173">
        <ele>446.596</ele>
        <time>2019-06-22T20:05:05Z</time>
      </trkpt>
      <trkpt lat="39.455993" lon="-6.368091">
        <ele>446.045</ele>
        <time>2019-06-22T20:05:06Z</time>
      </trkpt>
      <trkpt lat="39.455871" lon="-6.367992">
        <ele>445.530</ele>
        <time>2019-06-22T20:05:07Z</time>
      </trkpt>
      <trkpt lat="39.455733" lon="-6.367908">
        <ele>445.583</ele>
        <time>2019-06-22T20:05:08Z</time>
      </trkpt>
      <trkpt lat="39.455624" lon="-6.367825">
        <ele>445.755</ele>
        <time>2019-06-22T20:05:09Z</time>
      </trkpt>
      <trkpt lat="39.455511" lon="-6.367721">
        <ele>445.807</ele>
        <time>2019-06-22T20:05:10Z</time>
      </trkpt>
      <trkpt lat="39.455396" lon="-6.367615">
        <ele>446.417</ele>
        <time>2019-06-22T20:05:11Z</time>
      </trkpt>
      <trkpt lat="39.455275" lon="-6.367494">
        <ele>447.008</ele>
        <time>2019-06-22T20:05:12Z</time>
      </trkpt>
      <trkpt lat="39.455153" lon="-6.367384">
        <ele>447.228</ele>
        <time>2019-06-22T20:05:13Z</time>
      </trkpt>
      <trkpt lat="39.455024" lon="-6.367261">
        <ele>447.512</ele>
        <time>2019-06-22T20:05:14Z</time>
      </trkpt>
      <trkpt lat="39.454890" lon="-6.367141">
        <ele>447.934</ele>
        <time>2019-06-22T20:05:15Z</time>
      </trkpt>
      <trkpt lat="39.454756" lon="-6.367025">
        <ele>447.946</ele>
        <time>2019-06-22T20:05:16Z</time>
      </trkpt>
      <trkpt lat="39.454624" lon="-6.366921">
        <ele>447.454</ele>
        <time>2019-06-22T20:05:17Z</time>
      </trkpt>
      <trkpt lat="39.454481" lon="-6.366794">
        <ele>447.443</ele>
        <time>2019-06-22T20:05:18Z</time>
      </trkpt>
      <trkpt lat="39.454335" lon="-6.366684">
        <ele>446.958</ele>
        <time>2019-06-22T20:05:19Z</time>
      </trkpt>
      <trkpt lat="39.454173" lon="-6.366568">
        <ele>446.471</ele>
        <time>2019-06-22T20:05:20Z</time>
      </trkpt>
      <trkpt lat="39.454024" lon="-6.366464">
        <ele>446.222</ele>
        <time>2019-06-22T20:05:21Z</time>
      </trkpt>
      <trkpt lat="39.453870" lon="-6.366329">
        <ele>446.262</ele>
        <time>2019-06-22T20:05:22Z</time>
      </trkpt>
      <trkpt lat="39.453728" lon="-6.366209">
        <ele>445.908</ele>
        <time>2019-06-22T20:05:23Z</time>
      </trkpt>
      <trkpt lat="39.453577" lon="-6.366091">
        <ele>445.108</ele>
        <time>2019-06-22T20:05:24Z</time>
      </trkpt>
      <trkpt lat="39.453431" lon="-6.365965">
        <ele>445.145</ele>
        <time>2019-06-22T20:05:25Z</time>
      </trkpt>
      <trkpt lat="39.453282" lon="-6.365855">
        <ele>445.119</ele>
        <time>2019-06-22T20:05:26Z</time>
      </trkpt>
      <trkpt lat="39.453145" lon="-6.365689">
        <ele>445.141</ele>
        <time>2019-06-22T20:05:27Z</time>
      </trkpt>
      <trkpt lat="39.452988" lon="-6.365552">
        <ele>445.613</ele>
        <time>2019-06-22T20:05:28Z</time>
      </trkpt>
      <trkpt lat="39.452816" lon="-6.365403">
        <ele>446.461</ele>
        <time>2019-06-22T20:05:29Z</time>
      </trkpt>
      <trkpt lat="39.452642" lon="-6.365257">
        <ele>447.330</ele>
        <time>2019-06-22T20:05:30Z</time>
      </trkpt>
      <trkpt lat="39.452468" lon="-6.365109">
        <ele>447.965</ele>
        <time>2019-06-22T20:05:31Z</time>
      </trkpt>
      <trkpt lat="39.452288" lon="-6.364961">
        <ele>448.688</ele>
        <time>2019-06-22T20:05:32Z</time>
      </trkpt>
      <trkpt lat="39.452111" lon="-6.364821">
        <ele>449.466</ele>
        <time>2019-06-22T20:05:33Z</time>
      </trkpt>
      <trkpt lat="39.451936" lon="-6.364686">
        <ele>449.429</ele>
        <time>2019-06-22T20:05:34Z</time>
      </trkpt>
      <trkpt lat="39.451759" lon="-6.364551">
        <ele>448.621</ele>
        <time>2019-06-22T20:05:35Z</time>
      </trkpt>
      <trkpt lat="39.451589" lon="-6.364404">
        <ele>447.808</ele>
        <time>2019-06-22T20:05:36Z</time>
      </trkpt>
      <trkpt lat="39.451422" lon="-6.364256">
        <ele>447.099</ele>
        <time>2019-06-22T20:05:37Z</time>
      </trkpt>
      <trkpt lat="39.451259" lon="-6.364094">
        <ele>446.233</ele>
        <time>2019-06-22T20:05:38Z</time>
      </trkpt>
      <trkpt lat="39.451113" lon="-6.363916">
        <ele>446.235</ele>
        <time>2019-06-22T20:05:39Z</time>
      </trkpt>
      <trkpt lat="39.450981" lon="-6.363713">
        <ele>446.587</ele>
        <time>2019-06-22T20:05:40Z</time>
      </trkpt>
      <trkpt lat="39.450843" lon="-6.363495">
        <ele>446.945</ele>
        <time>2019-06-22T20:05:41Z</time>
      </trkpt>
      <trkpt lat="39.450700" lon="-6.363264">
        <ele>447.374</ele>
        <time>2019-06-22T20:05:42Z</time>
      </trkpt>
      <trkpt lat="39.450557" lon="-6.363036">
        <ele>447.499</ele>
        <time>2019-06-22T20:05:43Z</time>
      </trkpt>
      <trkpt lat="39.450409" lon="-6.362798">
        <ele>447.442</ele>
        <time>2019-06-22T20:05:44Z</time>
      </trkpt>
      <trkpt lat="39.450259" lon="-6.362555">
        <ele>447.795</ele>
        <time>2019-06-22T20:05:45Z</time>
      </trkpt>
      <trkpt lat="39.450109" lon="-6.362305">
        <ele>447.849</ele>
        <time>2019-06-22T20:05:46Z</time>
      </trkpt>
      <trkpt lat="39.449957" lon="-6.362054">
        <ele>447.823</ele>
        <time>2019-06-22T20:05:47Z</time>
      </trkpt>
      <trkpt lat="39.449803" lon="-6.361806">
        <ele>447.608</ele>
        <time>2019-06-22T20:05:48Z</time>
      </trkpt>
      <trkpt lat="39.449650" lon="-6.361555">
        <ele>447.192</ele>
        <time>2019-06-22T20:05:49Z</time>
      </trkpt>
      <trkpt lat="39.449497" lon="-6.361300">
        <ele>446.726</ele>
        <time>2019-06-22T20:05:50Z</time>
      </trkpt>
      <trkpt lat="39.449345" lon="-6.361045">
        <ele>446.298</ele>
        <time>2019-06-22T20:05:51Z</time>
      </trkpt>
      <trkpt lat="39.449192" lon="-6.360790">
        <ele>446.220</ele>
        <time>2019-06-22T20:05:52Z</time>
      </trkpt>
      <trkpt lat="39.449041" lon="-6.360535">
        <ele>446.248</ele>
        <time>2019-06-22T20:05:53Z</time>
      </trkpt>
      <trkpt lat="39.448888" lon="-6.360282">
        <ele>446.347</ele>
        <time>2019-06-22T20:05:54Z</time>
      </trkpt>
      <trkpt lat="39.448735" lon="-6.360029">
        <ele>447.032</ele>
        <time>2019-06-22T20:05:55Z</time>
      </trkpt>
      <trkpt lat="39.448585" lon="-6.359773">
        <ele>447.495</ele>
        <time>2019-06-22T20:05:56Z</time>
      </trkpt>
      <trkpt lat="39.448433" lon="-6.359519">
        <ele>447.416</ele>
        <time>2019-06-22T20:05:57Z</time>
      </trkpt>
      <trkpt lat="39.448276" lon="-6.359265">
        <ele>447.576</ele>
        <time>2019-06-22T20:05:58Z</time>
      </trkpt>
      <trkpt lat="39.448122" lon="-6.359008">
        <ele>447.913</ele>
        <time>2019-06-22T20:05:59Z</time>
      </trkpt>
      <trkpt lat="39.447968" lon="-6.358756">
        <ele>447.908</ele>
        <time>2019-06-22T20:06:00Z</time>
      </trkpt>
      <trkpt lat="39.447812" lon="-6.358507">
        <ele>447.914</ele>
        <time>2019-06-22T20:06:01Z</time>
      </trkpt>
      <trkpt lat="39.447662" lon="-6.358253">
        <ele>448.538</ele>
        <time>2019-06-22T20:06:02Z</time>
      </trkpt>
      <trkpt lat="39.447510" lon="-6.358002">
        <ele>448.960</ele>
        <time>2019-06-22T20:06:03Z</time>
      </trkpt>
      <trkpt lat="39.447358" lon="-6.357756">
        <ele>449.072</ele>
        <time>2019-06-22T20:06:04Z</time>
      </trkpt>
      <trkpt lat="39.447210" lon="-6.357512">
        <ele>449.350</ele>
        <time>2019-06-22T20:06:05Z</time>
      </trkpt>
      <trkpt lat="39.447064" lon="-6.357268">
        <ele>450.029</ele>
        <time>2019-06-22T20:06:06Z</time>
      </trkpt>
      <trkpt lat="39.446917" lon="-6.357028">
        <ele>450.414</ele>
        <time>2019-06-22T20:06:07Z</time>
      </trkpt>
      <trkpt lat="39.446770" lon="-6.356796">
        <ele>451.027</ele>
        <time>2019-06-22T20:06:08Z</time>
      </trkpt>
      <trkpt lat="39.446633" lon="-6.356567">
        <ele>451.374</ele>
        <time>2019-06-22T20:06:09Z</time>
      </trkpt>
      <trkpt lat="39.446499" lon="-6.356343">
        <ele>451.856</ele>
        <time>2019-06-22T20:06:10Z</time>
      </trkpt>
      <trkpt lat="39.446370" lon="-6.356112">
        <ele>452.221</ele>
        <time>2019-06-22T20:06:11Z</time>
      </trkpt>
      <trkpt lat="39.446244" lon="-6.355893">
        <ele>452.708</ele>
        <time>2019-06-22T20:06:12Z</time>
      </trkpt>
      <trkpt lat="39.446120" lon="-6.355670">
        <ele>453.240</ele>
        <time>2019-06-22T20:06:13Z</time>
      </trkpt>
      <trkpt lat="39.445999" lon="-6.355445">
        <ele>453.854</ele>
        <time>2019-06-22T20:06:14Z</time>
      </trkpt>
      <trkpt lat="39.445879" lon="-6.355222">
        <ele>455.026</ele>
        <time>2019-06-22T20:06:15Z</time>
      </trkpt>
      <trkpt lat="39.445757" lon="-6.354990">
        <ele>455.658</ele>
        <time>2019-06-22T20:06:16Z</time>
      </trkpt>
      <trkpt lat="39.445638" lon="-6.354758">
        <ele>456.216</ele>
        <time>2019-06-22T20:06:17Z</time>
      </trkpt>
      <trkpt lat="39.445520" lon="-6.354533">
        <ele>457.165</ele>
        <time>2019-06-22T20:06:18Z</time>
      </trkpt>
      <trkpt lat="39.445399" lon="-6.354305">
        <ele>457.180</ele>
        <time>2019-06-22T20:06:19Z</time>
      </trkpt>
      <trkpt lat="39.445284" lon="-6.354072">
        <ele>456.743</ele>
        <time>2019-06-22T20:06:20Z</time>
      </trkpt>
      <trkpt lat="39.445165" lon="-6.353841">
        <ele>456.275</ele>
        <time>2019-06-22T20:06:21Z</time>
      </trkpt>
      <trkpt lat="39.445039" lon="-6.353624">
        <ele>456.028</ele>
        <time>2019-06-22T20:06:22Z</time>
      </trkpt>
      <trkpt lat="39.444920" lon="-6.353405">
        <ele>455.820</ele>
        <time>2019-06-22T20:06:23Z</time>
      </trkpt>
      <trkpt lat="39.444802" lon="-6.353178">
        <ele>455.808</ele>
        <time>2019-06-22T20:06:24Z</time>
      </trkpt>
      <trkpt lat="39.444684" lon="-6.352954">
        <ele>456.770</ele>
        <time>2019-06-22T20:06:25Z</time>
      </trkpt>
      <trkpt lat="39.444575" lon="-6.352754">
        <ele>457.294</ele>
        <time>2019-06-22T20:06:26Z</time>
      </trkpt>
      <trkpt lat="39.444469" lon="-6.352539">
        <ele>457.856</ele>
        <time>2019-06-22T20:06:27Z</time>
      </trkpt>
      <trkpt lat="39.444358" lon="-6.352320">
        <ele>458.038</ele>
        <time>2019-06-22T20:06:28Z</time>
      </trkpt>
      <trkpt lat="39.444245" lon="-6.352094">
        <ele>458.636</ele>
        <time>2019-06-22T20:06:29Z</time>
      </trkpt>
      <trkpt lat="39.444132" lon="-6.351852">
        <ele>458.635</ele>
        <time>2019-06-22T20:06:30Z</time>
      </trkpt>
      <trkpt lat="39.444025" lon="-6.351613">
        <ele>458.610</ele>
        <time>2019-06-22T20:06:31Z</time>
      </trkpt>
      <trkpt lat="39.443904" lon="-6.351362">
        <ele>459.463</ele>
        <time>2019-06-22T20:06:32Z</time>
      </trkpt>
      <trkpt lat="39.443781" lon="-6.351116">
        <ele>460.424</ele>
        <time>2019-06-22T20:06:33Z</time>
      </trkpt>
      <trkpt lat="39.443655" lon="-6.350878">
        <ele>461.304</ele>
        <time>2019-06-22T20:06:34Z</time>
      </trkpt>
      <trkpt lat="39.443520" lon="-6.350627">
        <ele>461.914</ele>
        <time>2019-06-22T20:06:35Z</time>
      </trkpt>
      <trkpt lat="39.443386" lon="-6.350373">
        <ele>462.508</ele>
        <time>2019-06-22T20:06:36Z</time>
      </trkpt>
      <trkpt lat="39.443246" lon="-6.350127">
        <ele>463.135</ele>
        <time>2019-06-22T20:06:37Z</time>
      </trkpt>
      <trkpt lat="39.443109" lon="-6.349881">
        <ele>463.339</ele>
        <time>2019-06-22T20:06:38Z</time>
      </trkpt>
      <trkpt lat="39.442970" lon="-6.349632">
        <ele>463.311</ele>
        <time>2019-06-22T20:06:39Z</time>
      </trkpt>
      <trkpt lat="39.442831" lon="-6.349366">
        <ele>463.353</ele>
        <time>2019-06-22T20:06:40Z</time>
      </trkpt>
      <trkpt lat="39.442696" lon="-6.349091">
        <ele>463.411</ele>
        <time>2019-06-22T20:06:41Z</time>
      </trkpt>
      <trkpt lat="39.442555" lon="-6.348819">
        <ele>463.840</ele>
        <time>2019-06-22T20:06:42Z</time>
      </trkpt>
      <trkpt lat="39.442415" lon="-6.348550">
        <ele>463.975</ele>
        <time>2019-06-22T20:06:43Z</time>
      </trkpt>
      <trkpt lat="39.442272" lon="-6.348282">
        <ele>464.148</ele>
        <time>2019-06-22T20:06:44Z</time>
      </trkpt>
      <trkpt lat="39.442128" lon="-6.348015">
        <ele>464.716</ele>
        <time>2019-06-22T20:06:45Z</time>
      </trkpt>
      <trkpt lat="39.441997" lon="-6.347743">
        <ele>465.376</ele>
        <time>2019-06-22T20:06:46Z</time>
      </trkpt>
      <trkpt lat="39.441865" lon="-6.347464">
        <ele>465.813</ele>
        <time>2019-06-22T20:06:47Z</time>
      </trkpt>
      <trkpt lat="39.441728" lon="-6.347191">
        <ele>466.608</ele>
        <time>2019-06-22T20:06:48Z</time>
      </trkpt>
      <trkpt lat="39.441586" lon="-6.346926">
        <ele>467.674</ele>
        <time>2019-06-22T20:06:49Z</time>
      </trkpt>
      <trkpt lat="39.441449" lon="-6.346658">
        <ele>468.258</ele>
        <time>2019-06-22T20:06:50Z</time>
      </trkpt>
      <trkpt lat="39.441312" lon="-6.346383">
        <ele>469.040</ele>
        <time>2019-06-22T20:06:51Z</time>
      </trkpt>
      <trkpt lat="39.441173" lon="-6.346108">
        <ele>469.852</ele>
        <time>2019-06-22T20:06:52Z</time>
      </trkpt>
      <trkpt lat="39.441036" lon="-6.345837">
        <ele>470.530</ele>
        <time>2019-06-22T20:06:53Z</time>
      </trkpt>
      <trkpt lat="39.440896" lon="-6.345564">
        <ele>470.919</ele>
        <time>2019-06-22T20:06:54Z</time>
      </trkpt>
      <trkpt lat="39.440756" lon="-6.345289">
        <ele>471.324</ele>
        <time>2019-06-22T20:06:55Z</time>
      </trkpt>
      <trkpt lat="39.440614" lon="-6.345011">
        <ele>471.997</ele>
        <time>2019-06-22T20:06:56Z</time>
      </trkpt>
      <trkpt lat="39.440474" lon="-6.344729">
        <ele>472.582</ele>
        <time>2019-06-22T20:06:57Z</time>
      </trkpt>
      <trkpt lat="39.440348" lon="-6.344452">
        <ele>473.143</ele>
        <time>2019-06-22T20:06:58Z</time>
      </trkpt>
      <trkpt lat="39.440202" lon="-6.344173">
        <ele>473.117</ele>
        <time>2019-06-22T20:06:59Z</time>
      </trkpt>
      <trkpt lat="39.440057" lon="-6.343895">
        <ele>473.608</ele>
        <time>2019-06-22T20:07:00Z</time>
      </trkpt>
      <trkpt lat="39.439910" lon="-6.343609">
        <ele>474.021</ele>
        <time>2019-06-22T20:07:01Z</time>
      </trkpt>
      <trkpt lat="39.439764" lon="-6.343325">
        <ele>474.515</ele>
        <time>2019-06-22T20:07:02Z</time>
      </trkpt>
      <trkpt lat="39.439622" lon="-6.343035">
        <ele>475.067</ele>
        <time>2019-06-22T20:07:03Z</time>
      </trkpt>
      <trkpt lat="39.439481" lon="-6.342750">
        <ele>475.319</ele>
        <time>2019-06-22T20:07:04Z</time>
      </trkpt>
      <trkpt lat="39.439335" lon="-6.342466">
        <ele>475.677</ele>
        <time>2019-06-22T20:07:05Z</time>
      </trkpt>
      <trkpt lat="39.439193" lon="-6.342185">
        <ele>475.856</ele>
        <time>2019-06-22T20:07:06Z</time>
      </trkpt>
      <trkpt lat="39.439053" lon="-6.341917">
        <ele>475.921</ele>
        <time>2019-06-22T20:07:07Z</time>
      </trkpt>
      <trkpt lat="39.438911" lon="-6.341642">
        <ele>476.224</ele>
        <time>2019-06-22T20:07:08Z</time>
      </trkpt>
      <trkpt lat="39.438776" lon="-6.341373">
        <ele>476.528</ele>
        <time>2019-06-22T20:07:09Z</time>
      </trkpt>
      <trkpt lat="39.438639" lon="-6.341113">
        <ele>476.889</ele>
        <time>2019-06-22T20:07:10Z</time>
      </trkpt>
      <trkpt lat="39.438510" lon="-6.340861">
        <ele>477.217</ele>
        <time>2019-06-22T20:07:11Z</time>
      </trkpt>
      <trkpt lat="39.438377" lon="-6.340611">
        <ele>477.608</ele>
        <time>2019-06-22T20:07:12Z</time>
      </trkpt>
      <trkpt lat="39.438241" lon="-6.340360">
        <ele>478.295</ele>
        <time>2019-06-22T20:07:13Z</time>
      </trkpt>
      <trkpt lat="39.438105" lon="-6.340111">
        <ele>478.849</ele>
        <time>2019-06-22T20:07:14Z</time>
      </trkpt>
      <trkpt lat="39.437967" lon="-6.339866">
        <ele>479.561</ele>
        <time>2019-06-22T20:07:15Z</time>
      </trkpt>
      <trkpt lat="39.437831" lon="-6.339623">
        <ele>480.453</ele>
        <time>2019-06-22T20:07:16Z</time>
      </trkpt>
      <trkpt lat="39.437696" lon="-6.339373">
        <ele>481.131</ele>
        <time>2019-06-22T20:07:17Z</time>
      </trkpt>
      <trkpt lat="39.437566" lon="-6.339125">
        <ele>481.140</ele>
        <time>2019-06-22T20:07:18Z</time>
      </trkpt>
      <trkpt lat="39.437424" lon="-6.338871">
        <ele>481.265</ele>
        <time>2019-06-22T20:07:19Z</time>
      </trkpt>
      <trkpt lat="39.437289" lon="-6.338619">
        <ele>481.558</ele>
        <time>2019-06-22T20:07:20Z</time>
      </trkpt>
      <trkpt lat="39.437146" lon="-6.338365">
        <ele>481.579</ele>
        <time>2019-06-22T20:07:21Z</time>
      </trkpt>
      <trkpt lat="39.437008" lon="-6.338129">
        <ele>481.505</ele>
        <time>2019-06-22T20:07:22Z</time>
      </trkpt>
      <trkpt lat="39.436863" lon="-6.337882">
        <ele>481.525</ele>
        <time>2019-06-22T20:07:23Z</time>
      </trkpt>
      <trkpt lat="39.436724" lon="-6.337634">
        <ele>481.408</ele>
        <time>2019-06-22T20:07:24Z</time>
      </trkpt>
      <trkpt lat="39.436574" lon="-6.337369">
        <ele>480.830</ele>
        <time>2019-06-22T20:07:25Z</time>
      </trkpt>
      <trkpt lat="39.436427" lon="-6.337102">
        <ele>480.434</ele>
        <time>2019-06-22T20:07:26Z</time>
      </trkpt>
      <trkpt lat="39.436273" lon="-6.336827">
        <ele>480.256</ele>
        <time>2019-06-22T20:07:27Z</time>
      </trkpt>
      <trkpt lat="39.436118" lon="-6.336537">
        <ele>480.088</ele>
        <time>2019-06-22T20:07:28Z</time>
      </trkpt>
      <trkpt lat="39.435964" lon="-6.336262">
        <ele>479.216</ele>
        <time>2019-06-22T20:07:29Z</time>
      </trkpt>
      <trkpt lat="39.435810" lon="-6.335989">
        <ele>478.635</ele>
        <time>2019-06-22T20:07:30Z</time>
      </trkpt>
      <trkpt lat="39.435662" lon="-6.335703">
        <ele>477.620</ele>
        <time>2019-06-22T20:07:31Z</time>
      </trkpt>
      <trkpt lat="39.435499" lon="-6.335418">
        <ele>476.413</ele>
        <time>2019-06-22T20:07:32Z</time>
      </trkpt>
      <trkpt lat="39.435339" lon="-6.335134">
        <ele>475.326</ele>
        <time>2019-06-22T20:07:33Z</time>
      </trkpt>
      <trkpt lat="39.435175" lon="-6.334832">
        <ele>474.747</ele>
        <time>2019-06-22T20:07:34Z</time>
      </trkpt>
      <trkpt lat="39.435010" lon="-6.334530">
        <ele>473.911</ele>
        <time>2019-06-22T20:07:35Z</time>
      </trkpt>
      <trkpt lat="39.434855" lon="-6.334239">
        <ele>472.208</ele>
        <time>2019-06-22T20:07:36Z</time>
      </trkpt>
      <trkpt lat="39.434699" lon="-6.333962">
        <ele>471.245</ele>
        <time>2019-06-22T20:07:37Z</time>
      </trkpt>
      <trkpt lat="39.434547" lon="-6.333685">
        <ele>469.269</ele>
        <time>2019-06-22T20:07:38Z</time>
      </trkpt>
      <trkpt lat="39.434386" lon="-6.333404">
        <ele>468.551</ele>
        <time>2019-06-22T20:07:39Z</time>
      </trkpt>
      <trkpt lat="39.434225" lon="-6.333140">
        <ele>467.463</ele>
        <time>2019-06-22T20:07:40Z</time>
      </trkpt>
      <trkpt lat="39.434056" lon="-6.332900">
        <ele>467.191</ele>
        <time>2019-06-22T20:07:41Z</time>
      </trkpt>
      <trkpt lat="39.433880" lon="-6.332656">
        <ele>467.180</ele>
        <time>2019-06-22T20:07:42Z</time>
      </trkpt>
      <trkpt lat="39.433700" lon="-6.332428">
        <ele>467.915</ele>
        <time>2019-06-22T20:07:43Z</time>
      </trkpt>
      <trkpt lat="39.433515" lon="-6.332188">
        <ele>468.018</ele>
        <time>2019-06-22T20:07:44Z</time>
      </trkpt>
      <trkpt lat="39.433323" lon="-6.331947">
        <ele>468.234</ele>
        <time>2019-06-22T20:07:45Z</time>
      </trkpt>
      <trkpt lat="39.433128" lon="-6.331699">
        <ele>468.655</ele>
        <time>2019-06-22T20:07:46Z</time>
      </trkpt>
      <trkpt lat="39.432930" lon="-6.331458">
        <ele>468.610</ele>
        <time>2019-06-22T20:07:47Z</time>
      </trkpt>
      <trkpt lat="39.432733" lon="-6.331209">
        <ele>468.208</ele>
        <time>2019-06-22T20:07:48Z</time>
      </trkpt>
      <trkpt lat="39.432534" lon="-6.330956">
        <ele>467.636</ele>
        <time>2019-06-22T20:07:49Z</time>
      </trkpt>
      <trkpt lat="39.432332" lon="-6.330708">
        <ele>466.750</ele>
        <time>2019-06-22T20:07:50Z</time>
      </trkpt>
      <trkpt lat="39.432129" lon="-6.330470">
        <ele>465.862</ele>
        <time>2019-06-22T20:07:51Z</time>
      </trkpt>
      <trkpt lat="39.431929" lon="-6.330224">
        <ele>464.854</ele>
        <time>2019-06-22T20:07:52Z</time>
      </trkpt>
      <trkpt lat="39.431734" lon="-6.329984">
        <ele>464.142</ele>
        <time>2019-06-22T20:07:53Z</time>
      </trkpt>
      <trkpt lat="39.431539" lon="-6.329748">
        <ele>463.471</ele>
        <time>2019-06-22T20:07:54Z</time>
      </trkpt>
      <trkpt lat="39.431343" lon="-6.329509">
        <ele>462.986</ele>
        <time>2019-06-22T20:07:55Z</time>
      </trkpt>
      <trkpt lat="39.431149" lon="-6.329268">
        <ele>462.479</ele>
        <time>2019-06-22T20:07:56Z</time>
      </trkpt>
      <trkpt lat="39.430958" lon="-6.329038">
        <ele>462.397</ele>
        <time>2019-06-22T20:07:57Z</time>
      </trkpt>
      <trkpt lat="39.430767" lon="-6.328799">
        <ele>461.923</ele>
        <time>2019-06-22T20:07:58Z</time>
      </trkpt>
      <trkpt lat="39.430567" lon="-6.328560">
        <ele>461.625</ele>
        <time>2019-06-22T20:07:59Z</time>
      </trkpt>
      <trkpt lat="39.430370" lon="-6.328319">
        <ele>461.508</ele>
        <time>2019-06-22T20:08:00Z</time>
      </trkpt>
      <trkpt lat="39.430170" lon="-6.328079">
        <ele>460.852</ele>
        <time>2019-06-22T20:08:01Z</time>
      </trkpt>
      <trkpt lat="39.429968" lon="-6.327836">
        <ele>459.866</ele>
        <time>2019-06-22T20:08:02Z</time>
      </trkpt>
      <trkpt lat="39.429765" lon="-6.327601">
        <ele>459.138</ele>
        <time>2019-06-22T20:08:03Z</time>
      </trkpt>
      <trkpt lat="39.429565" lon="-6.327357">
        <ele>459.150</ele>
        <time>2019-06-22T20:08:04Z</time>
      </trkpt>
      <trkpt lat="39.429360" lon="-6.327109">
        <ele>458.428</ele>
        <time>2019-06-22T20:08:05Z</time>
      </trkpt>
      <trkpt lat="39.429157" lon="-6.326863">
        <ele>458.457</ele>
        <time>2019-06-22T20:08:06Z</time>
      </trkpt>
      <trkpt lat="39.428948" lon="-6.326613">
        <ele>458.472</ele>
        <time>2019-06-22T20:08:07Z</time>
      </trkpt>
      <trkpt lat="39.428748" lon="-6.326364">
        <ele>458.675</ele>
        <time>2019-06-22T20:08:08Z</time>
      </trkpt>
      <trkpt lat="39.428546" lon="-6.326114">
        <ele>459.291</ele>
        <time>2019-06-22T20:08:09Z</time>
      </trkpt>
      <trkpt lat="39.428348" lon="-6.325858">
        <ele>459.381</ele>
        <time>2019-06-22T20:08:10Z</time>
      </trkpt>
      <trkpt lat="39.428148" lon="-6.325613">
        <ele>459.219</ele>
        <time>2019-06-22T20:08:11Z</time>
      </trkpt>
      <trkpt lat="39.427949" lon="-6.325362">
        <ele>458.408</ele>
        <time>2019-06-22T20:08:12Z</time>
      </trkpt>
      <trkpt lat="39.427746" lon="-6.325104">
        <ele>457.412</ele>
        <time>2019-06-22T20:08:13Z</time>
      </trkpt>
      <trkpt lat="39.427546" lon="-6.324850">
        <ele>455.916</ele>
        <time>2019-06-22T20:08:14Z</time>
      </trkpt>
      <trkpt lat="39.427341" lon="-6.324600">
        <ele>455.068</ele>
        <time>2019-06-22T20:08:15Z</time>
      </trkpt>
      <trkpt lat="39.427137" lon="-6.324347">
        <ele>454.490</ele>
        <time>2019-06-22T20:08:16Z</time>
      </trkpt>
      <trkpt lat="39.426936" lon="-6.324096">
        <ele>453.928</ele>
        <time>2019-06-22T20:08:17Z</time>
      </trkpt>
      <trkpt lat="39.426737" lon="-6.323854">
        <ele>453.277</ele>
        <time>2019-06-22T20:08:18Z</time>
      </trkpt>
      <trkpt lat="39.426534" lon="-6.323612">
        <ele>452.772</ele>
        <time>2019-06-22T20:08:19Z</time>
      </trkpt>
      <trkpt lat="39.426335" lon="-6.323369">
        <ele>452.445</ele>
        <time>2019-06-22T20:08:20Z</time>
      </trkpt>
      <trkpt lat="39.426136" lon="-6.323123">
        <ele>452.112</ele>
        <time>2019-06-22T20:08:21Z</time>
      </trkpt>
      <trkpt lat="39.425935" lon="-6.322872">
        <ele>451.832</ele>
        <time>2019-06-22T20:08:22Z</time>
      </trkpt>
      <trkpt lat="39.425733" lon="-6.322633">
        <ele>451.705</ele>
        <time>2019-06-22T20:08:23Z</time>
      </trkpt>
      <trkpt lat="39.425531" lon="-6.322393">
        <ele>451.708</ele>
        <time>2019-06-22T20:08:24Z</time>
      </trkpt>
      <trkpt lat="39.425332" lon="-6.322156">
        <ele>451.714</ele>
        <time>2019-06-22T20:08:25Z</time>
      </trkpt>
      <trkpt lat="39.425137" lon="-6.321919">
        <ele>451.758</ele>
        <time>2019-06-22T20:08:26Z</time>
      </trkpt>
      <trkpt lat="39.424946" lon="-6.321681">
        <ele>451.480</ele>
        <time>2019-06-22T20:08:27Z</time>
      </trkpt>
      <trkpt lat="39.424758" lon="-6.321447">
        <ele>451.432</ele>
        <time>2019-06-22T20:08:28Z</time>
      </trkpt>
      <trkpt lat="39.424569" lon="-6.321217">
        <ele>452.040</ele>
        <time>2019-06-22T20:08:29Z</time>
      </trkpt>
      <trkpt lat="39.424384" lon="-6.320983">
        <ele>452.139</ele>
        <time>2019-06-22T20:08:30Z</time>
      </trkpt>
      <trkpt lat="39.424205" lon="-6.320746">
        <ele>452.264</ele>
        <time>2019-06-22T20:08:31Z</time>
      </trkpt>
      <trkpt lat="39.424024" lon="-6.320499">
        <ele>452.287</ele>
        <time>2019-06-22T20:08:32Z</time>
      </trkpt>
      <trkpt lat="39.423855" lon="-6.320258">
        <ele>452.295</ele>
        <time>2019-06-22T20:08:33Z</time>
      </trkpt>
      <trkpt lat="39.423691" lon="-6.320004">
        <ele>452.249</ele>
        <time>2019-06-22T20:08:34Z</time>
      </trkpt>
      <trkpt lat="39.423531" lon="-6.319746">
        <ele>452.223</ele>
        <time>2019-06-22T20:08:35Z</time>
      </trkpt>
      <trkpt lat="39.423377" lon="-6.319475">
        <ele>452.908</ele>
        <time>2019-06-22T20:08:36Z</time>
      </trkpt>
      <trkpt lat="39.423234" lon="-6.319196">
        <ele>453.272</ele>
        <time>2019-06-22T20:08:37Z</time>
      </trkpt>
      <trkpt lat="39.423088" lon="-6.318912">
        <ele>453.786</ele>
        <time>2019-06-22T20:08:38Z</time>
      </trkpt>
      <trkpt lat="39.422946" lon="-6.318623">
        <ele>453.968</ele>
        <time>2019-06-22T20:08:39Z</time>
      </trkpt>
      <trkpt lat="39.422805" lon="-6.318326">
        <ele>453.940</ele>
        <time>2019-06-22T20:08:40Z</time>
      </trkpt>
      <trkpt lat="39.422672" lon="-6.318020">
        <ele>453.628</ele>
        <time>2019-06-22T20:08:41Z</time>
      </trkpt>
      <trkpt lat="39.422546" lon="-6.317717">
        <ele>452.967</ele>
        <time>2019-06-22T20:08:42Z</time>
      </trkpt>
      <trkpt lat="39.422412" lon="-6.317399">
        <ele>452.622</ele>
        <time>2019-06-22T20:08:43Z</time>
      </trkpt>
      <trkpt lat="39.422291" lon="-6.317092">
        <ele>452.255</ele>
        <time>2019-06-22T20:08:44Z</time>
      </trkpt>
      <trkpt lat="39.422162" lon="-6.316782">
        <ele>451.172</ele>
        <time>2019-06-22T20:08:45Z</time>
      </trkpt>
      <trkpt lat="39.422037" lon="-6.316468">
        <ele>450.213</ele>
        <time>2019-06-22T20:08:46Z</time>
      </trkpt>
      <trkpt lat="39.421921" lon="-6.316146">
        <ele>449.714</ele>
        <time>2019-06-22T20:08:47Z</time>
      </trkpt>
      <trkpt lat="39.421795" lon="-6.315837">
        <ele>449.208</ele>
        <time>2019-06-22T20:08:48Z</time>
      </trkpt>
      <trkpt lat="39.421669" lon="-6.315531">
        <ele>449.280</ele>
        <time>2019-06-22T20:08:49Z</time>
      </trkpt>
      <trkpt lat="39.421542" lon="-6.315212">
        <ele>449.184</ele>
        <time>2019-06-22T20:08:50Z</time>
      </trkpt>
      <trkpt lat="39.421416" lon="-6.314882">
        <ele>449.116</ele>
        <time>2019-06-22T20:08:51Z</time>
      </trkpt>
      <trkpt lat="39.421292" lon="-6.314554">
        <ele>449.198</ele>
        <time>2019-06-22T20:08:52Z</time>
      </trkpt>
      <trkpt lat="39.421184" lon="-6.314237">
        <ele>449.496</ele>
        <time>2019-06-22T20:08:53Z</time>
      </trkpt>
      <trkpt lat="39.421080" lon="-6.313916">
        <ele>449.675</ele>
        <time>2019-06-22T20:08:54Z</time>
      </trkpt>
      <trkpt lat="39.420980" lon="-6.313586">
        <ele>449.690</ele>
        <time>2019-06-22T20:08:55Z</time>
      </trkpt>
      <trkpt lat="39.420877" lon="-6.313253">
        <ele>450.393</ele>
        <time>2019-06-22T20:08:56Z</time>
      </trkpt>
      <trkpt lat="39.420785" lon="-6.312926">
        <ele>450.333</ele>
        <time>2019-06-22T20:08:57Z</time>
      </trkpt>
      <trkpt lat="39.420692" lon="-6.312597">
        <ele>450.223</ele>
        <time>2019-06-22T20:08:58Z</time>
      </trkpt>
      <trkpt lat="39.420604" lon="-6.312261">
        <ele>449.915</ele>
        <time>2019-06-22T20:08:59Z</time>
      </trkpt>
      <trkpt lat="39.420520" lon="-6.311931">
        <ele>449.608</ele>
        <time>2019-06-22T20:09:00Z</time>
      </trkpt>
      <trkpt lat="39.420442" lon="-6.311603">
        <ele>449.486</ele>
        <time>2019-06-22T20:09:01Z</time>
      </trkpt>
      <trkpt lat="39.420348" lon="-6.311264">
        <ele>449.140</ele>
        <time>2019-06-22T20:09:02Z</time>
      </trkpt>
      <trkpt lat="39.420269" lon="-6.310942">
        <ele>448.862</ele>
        <time>2019-06-22T20:09:03Z</time>
      </trkpt>
      <trkpt lat="39.420195" lon="-6.310624">
        <ele>448.894</ele>
        <time>2019-06-22T20:09:04Z</time>
      </trkpt>
      <trkpt lat="39.420115" lon="-6.310289">
        <ele>449.052</ele>
        <time>2019-06-22T20:09:05Z</time>
      </trkpt>
      <trkpt lat="39.420028" lon="-6.309958">
        <ele>449.031</ele>
        <time>2019-06-22T20:09:06Z</time>
      </trkpt>
      <trkpt lat="39.419947" lon="-6.309633">
        <ele>449.026</ele>
        <time>2019-06-22T20:09:07Z</time>
      </trkpt>
      <trkpt lat="39.419868" lon="-6.309318">
        <ele>448.639</ele>
        <time>2019-06-22T20:09:08Z</time>
      </trkpt>
      <trkpt lat="39.419789" lon="-6.309008">
        <ele>447.927</ele>
        <time>2019-06-22T20:09:09Z</time>
      </trkpt>
      <trkpt lat="39.419721" lon="-6.308711">
        <ele>447.968</ele>
        <time>2019-06-22T20:09:10Z</time>
      </trkpt>
      <trkpt lat="39.419654" lon="-6.308422">
        <ele>447.414</ele>
        <time>2019-06-22T20:09:11Z</time>
      </trkpt>
      <trkpt lat="39.419600" lon="-6.308129">
        <ele>446.308</ele>
        <time>2019-06-22T20:09:12Z</time>
      </trkpt>
      <trkpt lat="39.419553" lon="-6.307825">
        <ele>446.385</ele>
        <time>2019-06-22T20:09:13Z</time>
      </trkpt>
      <trkpt lat="39.419516" lon="-6.307512">
        <ele>446.869</ele>
        <time>2019-06-22T20:09:14Z</time>
      </trkpt>
      <trkpt lat="39.419490" lon="-6.307188">
        <ele>447.791</ele>
        <time>2019-06-22T20:09:15Z</time>
      </trkpt>
      <trkpt lat="39.419465" lon="-6.306859">
        <ele>448.333</ele>
        <time>2019-06-22T20:09:16Z</time>
      </trkpt>
      <trkpt lat="39.419444" lon="-6.306521">
        <ele>449.451</ele>
        <time>2019-06-22T20:09:17Z</time>
      </trkpt>
      <trkpt lat="39.419428" lon="-6.306171">
        <ele>449.440</ele>
        <time>2019-06-22T20:09:18Z</time>
      </trkpt>
      <trkpt lat="39.419407" lon="-6.305833">
        <ele>449.385</ele>
        <time>2019-06-22T20:09:19Z</time>
      </trkpt>
      <trkpt lat="39.419383" lon="-6.305490">
        <ele>448.928</ele>
        <time>2019-06-22T20:09:20Z</time>
      </trkpt>
      <trkpt lat="39.419348" lon="-6.305127">
        <ele>447.789</ele>
        <time>2019-06-22T20:09:21Z</time>
      </trkpt>
      <trkpt lat="39.419298" lon="-6.304777">
        <ele>446.106</ele>
        <time>2019-06-22T20:09:22Z</time>
      </trkpt>
      <trkpt lat="39.419240" lon="-6.304438">
        <ele>444.526</ele>
        <time>2019-06-22T20:09:23Z</time>
      </trkpt>
      <trkpt lat="39.419169" lon="-6.304105">
        <ele>443.608</ele>
        <time>2019-06-22T20:09:24Z</time>
      </trkpt>
      <trkpt lat="39.419080" lon="-6.303766">
        <ele>442.241</ele>
        <time>2019-06-22T20:09:25Z</time>
      </trkpt>
      <trkpt lat="39.418991" lon="-6.303443">
        <ele>442.275</ele>
        <time>2019-06-22T20:09:26Z</time>
      </trkpt>
      <trkpt lat="39.418893" lon="-6.303126">
        <ele>442.267</ele>
        <time>2019-06-22T20:09:27Z</time>
      </trkpt>
      <trkpt lat="39.418782" lon="-6.302817">
        <ele>442.239</ele>
        <time>2019-06-22T20:09:28Z</time>
      </trkpt>
      <trkpt lat="39.418659" lon="-6.302514">
        <ele>442.157</ele>
        <time>2019-06-22T20:09:29Z</time>
      </trkpt>
      <trkpt lat="39.418528" lon="-6.302230">
        <ele>442.116</ele>
        <time>2019-06-22T20:09:30Z</time>
      </trkpt>
      <trkpt lat="39.418389" lon="-6.301950">
        <ele>442.641</ele>
        <time>2019-06-22T20:09:31Z</time>
      </trkpt>
      <trkpt lat="39.418250" lon="-6.301670">
        <ele>443.264</ele>
        <time>2019-06-22T20:09:32Z</time>
      </trkpt>
      <trkpt lat="39.418112" lon="-6.301394">
        <ele>444.323</ele>
        <time>2019-06-22T20:09:33Z</time>
      </trkpt>
      <trkpt lat="39.417974" lon="-6.301117">
        <ele>445.683</ele>
        <time>2019-06-22T20:09:34Z</time>
      </trkpt>
      <trkpt lat="39.417841" lon="-6.300837">
        <ele>447.411</ele>
        <time>2019-06-22T20:09:35Z</time>
      </trkpt>
      <trkpt lat="39.417709" lon="-6.300560">
        <ele>448.808</ele>
        <time>2019-06-22T20:09:36Z</time>
      </trkpt>
      <trkpt lat="39.417576" lon="-6.300284">
        <ele>449.795</ele>
        <time>2019-06-22T20:09:37Z</time>
      </trkpt>
      <trkpt lat="39.417441" lon="-6.300009">
        <ele>450.629</ele>
        <time>2019-06-22T20:09:38Z</time>
      </trkpt>
      <trkpt lat="39.417302" lon="-6.299729">
        <ele>451.971</ele>
        <time>2019-06-22T20:09:39Z</time>
      </trkpt>
      <trkpt lat="39.417165" lon="-6.299446">
        <ele>452.713</ele>
        <time>2019-06-22T20:09:40Z</time>
      </trkpt>
      <trkpt lat="39.417027" lon="-6.299161">
        <ele>453.031</ele>
        <time>2019-06-22T20:09:41Z</time>
      </trkpt>
      <trkpt lat="39.416891" lon="-6.298873">
        <ele>453.420</ele>
        <time>2019-06-22T20:09:42Z</time>
      </trkpt>
      <trkpt lat="39.416754" lon="-6.298578">
        <ele>453.855</ele>
        <time>2019-06-22T20:09:43Z</time>
      </trkpt>
      <trkpt lat="39.416616" lon="-6.298293">
        <ele>453.848</ele>
        <time>2019-06-22T20:09:44Z</time>
      </trkpt>
      <trkpt lat="39.416474" lon="-6.297997">
        <ele>453.627</ele>
        <time>2019-06-22T20:09:45Z</time>
      </trkpt>
      <trkpt lat="39.416331" lon="-6.297710">
        <ele>453.668</ele>
        <time>2019-06-22T20:09:46Z</time>
      </trkpt>
      <trkpt lat="39.416184" lon="-6.297421">
        <ele>453.514</ele>
        <time>2019-06-22T20:09:47Z</time>
      </trkpt>
      <trkpt lat="39.416040" lon="-6.297124">
        <ele>453.608</ele>
        <time>2019-06-22T20:09:48Z</time>
      </trkpt>
      <trkpt lat="39.415892" lon="-6.296830">
        <ele>453.685</ele>
        <time>2019-06-22T20:09:49Z</time>
      </trkpt>
      <trkpt lat="39.415745" lon="-6.296528">
        <ele>454.149</ele>
        <time>2019-06-22T20:09:50Z</time>
      </trkpt>
      <trkpt lat="39.415602" lon="-6.296226">
        <ele>454.441</ele>
        <time>2019-06-22T20:09:51Z</time>
      </trkpt>
      <trkpt lat="39.415459" lon="-6.295919">
        <ele>454.583</ele>
        <time>2019-06-22T20:09:52Z</time>
      </trkpt>
      <trkpt lat="39.415314" lon="-6.295625">
        <ele>454.721</ele>
        <time>2019-06-22T20:09:53Z</time>
      </trkpt>
      <trkpt lat="39.415169" lon="-6.295331">
        <ele>454.910</ele>
        <time>2019-06-22T20:09:54Z</time>
      </trkpt>
      <trkpt lat="39.415027" lon="-6.295042">
        <ele>455.795</ele>
        <time>2019-06-22T20:09:55Z</time>
      </trkpt>
      <trkpt lat="39.414891" lon="-6.294748">
        <ele>456.098</ele>
        <time>2019-06-22T20:09:56Z</time>
      </trkpt>
      <trkpt lat="39.414755" lon="-6.294463">
        <ele>456.512</ele>
        <time>2019-06-22T20:09:57Z</time>
      </trkpt>
      <trkpt lat="39.414618" lon="-6.294185">
        <ele>456.932</ele>
        <time>2019-06-22T20:09:58Z</time>
      </trkpt>
      <trkpt lat="39.414479" lon="-6.293897">
        <ele>456.905</ele>
        <time>2019-06-22T20:09:59Z</time>
      </trkpt>
      <trkpt lat="39.414342" lon="-6.293616">
        <ele>457.008</ele>
        <time>2019-06-22T20:10:00Z</time>
      </trkpt>
      <trkpt lat="39.414202" lon="-6.293340">
        <ele>457.244</ele>
        <time>2019-06-22T20:10:01Z</time>
      </trkpt>
      <trkpt lat="39.414069" lon="-6.293065">
        <ele>457.798</ele>
        <time>2019-06-22T20:10:02Z</time>
      </trkpt>
      <trkpt lat="39.413938" lon="-6.292796">
        <ele>458.480</ele>
        <time>2019-06-22T20:10:03Z</time>
      </trkpt>
      <trkpt lat="39.413806" lon="-6.292517">
        <ele>459.242</ele>
        <time>2019-06-22T20:10:04Z</time>
      </trkpt>
      <trkpt lat="39.413677" lon="-6.292254">
        <ele>460.250</ele>
        <time>2019-06-22T20:10:05Z</time>
      </trkpt>
      <trkpt lat="39.413547" lon="-6.291974">
        <ele>460.949</ele>
        <time>2019-06-22T20:10:06Z</time>
      </trkpt>
      <trkpt lat="39.413421" lon="-6.291696">
        <ele>462.094</ele>
        <time>2019-06-22T20:10:07Z</time>
      </trkpt>
      <trkpt lat="39.413303" lon="-6.291418">
        <ele>463.647</ele>
        <time>2019-06-22T20:10:08Z</time>
      </trkpt>
      <trkpt lat="39.413187" lon="-6.291128">
        <ele>465.629</ele>
        <time>2019-06-22T20:10:09Z</time>
      </trkpt>
      <trkpt lat="39.413088" lon="-6.290829">
        <ele>467.300</ele>
        <time>2019-06-22T20:10:10Z</time>
      </trkpt>
      <trkpt lat="39.412991" lon="-6.290548">
        <ele>469.420</ele>
        <time>2019-06-22T20:10:11Z</time>
      </trkpt>
      <trkpt lat="39.412902" lon="-6.290239">
        <ele>471.208</ele>
        <time>2019-06-22T20:10:12Z</time>
      </trkpt>
      <trkpt lat="39.412821" lon="-6.289955">
        <ele>472.235</ele>
        <time>2019-06-22T20:10:13Z</time>
      </trkpt>
      <trkpt lat="39.412749" lon="-6.289665">
        <ele>472.779</ele>
        <time>2019-06-22T20:10:14Z</time>
      </trkpt>
      <trkpt lat="39.412687" lon="-6.289386">
        <ele>473.061</ele>
        <time>2019-06-22T20:10:15Z</time>
      </trkpt>
      <trkpt lat="39.412626" lon="-6.289093">
        <ele>473.083</ele>
        <time>2019-06-22T20:10:16Z</time>
      </trkpt>
      <trkpt lat="39.412571" lon="-6.288794">
        <ele>473.051</ele>
        <time>2019-06-22T20:10:17Z</time>
      </trkpt>
      <trkpt lat="39.412510" lon="-6.288494">
        <ele>472.860</ele>
        <time>2019-06-22T20:10:18Z</time>
      </trkpt>
      <trkpt lat="39.412455" lon="-6.288199">
        <ele>472.415</ele>
        <time>2019-06-22T20:10:19Z</time>
      </trkpt>
      <trkpt lat="39.412399" lon="-6.287914">
        <ele>471.458</ele>
        <time>2019-06-22T20:10:20Z</time>
      </trkpt>
      <trkpt lat="39.412345" lon="-6.287640">
        <ele>469.818</ele>
        <time>2019-06-22T20:10:21Z</time>
      </trkpt>
      <trkpt lat="39.412299" lon="-6.287385">
        <ele>468.698</ele>
        <time>2019-06-22T20:10:22Z</time>
      </trkpt>
      <trkpt lat="39.412245" lon="-6.287129">
        <ele>468.217</ele>
        <time>2019-06-22T20:10:23Z</time>
      </trkpt>
      <trkpt lat="39.412202" lon="-6.286873">
        <ele>466.908</ele>
        <time>2019-06-22T20:10:24Z</time>
      </trkpt>
      <trkpt lat="39.412157" lon="-6.286614">
        <ele>466.924</ele>
        <time>2019-06-22T20:10:25Z</time>
      </trkpt>
      <trkpt lat="39.412109" lon="-6.286354">
        <ele>466.968</ele>
        <time>2019-06-22T20:10:26Z</time>
      </trkpt>
      <trkpt lat="39.412069" lon="-6.286098">
        <ele>466.930</ele>
        <time>2019-06-22T20:10:27Z</time>
      </trkpt>
      <trkpt lat="39.412018" lon="-6.285842">
        <ele>466.512</ele>
        <time>2019-06-22T20:10:28Z</time>
      </trkpt>
      <trkpt lat="39.411969" lon="-6.285598">
        <ele>465.190</ele>
        <time>2019-06-22T20:10:29Z</time>
      </trkpt>
      <trkpt lat="39.411918" lon="-6.285362">
        <ele>464.159</ele>
        <time>2019-06-22T20:10:30Z</time>
      </trkpt>
      <trkpt lat="39.411864" lon="-6.285134">
        <ele>462.334</ele>
        <time>2019-06-22T20:10:31Z</time>
      </trkpt>
      <trkpt lat="39.411815" lon="-6.284909">
        <ele>461.327</ele>
        <time>2019-06-22T20:10:32Z</time>
      </trkpt>
      <trkpt lat="39.411763" lon="-6.284681">
        <ele>459.953</ele>
        <time>2019-06-22T20:10:33Z</time>
      </trkpt>
      <trkpt lat="39.411715" lon="-6.284445">
        <ele>459.004</ele>
        <time>2019-06-22T20:10:34Z</time>
      </trkpt>
      <trkpt lat="39.411673" lon="-6.284196">
        <ele>458.914</ele>
        <time>2019-06-22T20:10:35Z</time>
      </trkpt>
      <trkpt lat="39.411626" lon="-6.283937">
        <ele>458.908</ele>
        <time>2019-06-22T20:10:36Z</time>
      </trkpt>
      <trkpt lat="39.411580" lon="-6.283665">
        <ele>458.388</ele>
        <time>2019-06-22T20:10:37Z</time>
      </trkpt>
      <trkpt lat="39.411533" lon="-6.283384">
        <ele>457.772</ele>
        <time>2019-06-22T20:10:38Z</time>
      </trkpt>
      <trkpt lat="39.411477" lon="-6.283098">
        <ele>456.614</ele>
        <time>2019-06-22T20:10:39Z</time>
      </trkpt>
      <trkpt lat="39.411408" lon="-6.282798">
        <ele>455.616</ele>
        <time>2019-06-22T20:10:40Z</time>
      </trkpt>
      <trkpt lat="39.411334" lon="-6.282492">
        <ele>454.334</ele>
        <time>2019-06-22T20:10:41Z</time>
      </trkpt>
      <trkpt lat="39.411264" lon="-6.282198">
        <ele>452.853</ele>
        <time>2019-06-22T20:10:42Z</time>
      </trkpt>
      <trkpt lat="39.411187" lon="-6.281884">
        <ele>450.838</ele>
        <time>2019-06-22T20:10:43Z</time>
      </trkpt>
      <trkpt lat="39.411105" lon="-6.281583">
        <ele>449.711</ele>
        <time>2019-06-22T20:10:44Z</time>
      </trkpt>
      <trkpt lat="39.411012" lon="-6.281274">
        <ele>447.935</ele>
        <time>2019-06-22T20:10:45Z</time>
      </trkpt>
      <trkpt lat="39.410906" lon="-6.280984">
        <ele>446.286</ele>
        <time>2019-06-22T20:10:46Z</time>
      </trkpt>
      <trkpt lat="39.410791" lon="-6.280678">
        <ele>444.814</ele>
        <time>2019-06-22T20:10:47Z</time>
      </trkpt>
      <trkpt lat="39.410675" lon="-6.280381">
        <ele>443.208</ele>
        <time>2019-06-22T20:10:48Z</time>
      </trkpt>
      <trkpt lat="39.410555" lon="-6.280079">
        <ele>442.266</ele>
        <time>2019-06-22T20:10:49Z</time>
      </trkpt>
      <trkpt lat="39.410438" lon="-6.279776">
        <ele>440.990</ele>
        <time>2019-06-22T20:10:50Z</time>
      </trkpt>
      <trkpt lat="39.410325" lon="-6.279465">
        <ele>440.482</ele>
        <time>2019-06-22T20:10:51Z</time>
      </trkpt>
      <trkpt lat="39.410212" lon="-6.279153">
        <ele>439.664</ele>
        <time>2019-06-22T20:10:52Z</time>
      </trkpt>
      <trkpt lat="39.410103" lon="-6.278848">
        <ele>439.162</ele>
        <time>2019-06-22T20:10:53Z</time>
      </trkpt>
      <trkpt lat="39.409984" lon="-6.278544">
        <ele>438.341</ele>
        <time>2019-06-22T20:10:54Z</time>
      </trkpt>
      <trkpt lat="39.409860" lon="-6.278230">
        <ele>438.056</ele>
        <time>2019-06-22T20:10:55Z</time>
      </trkpt>
      <trkpt lat="39.409735" lon="-6.277917">
        <ele>437.449</ele>
        <time>2019-06-22T20:10:56Z</time>
      </trkpt>
      <trkpt lat="39.409611" lon="-6.277605">
        <ele>437.117</ele>
        <time>2019-06-22T20:10:57Z</time>
      </trkpt>
      <trkpt lat="39.409486" lon="-6.277300">
        <ele>436.987</ele>
        <time>2019-06-22T20:10:58Z</time>
      </trkpt>
      <trkpt lat="39.409365" lon="-6.276991">
        <ele>436.915</ele>
        <time>2019-06-22T20:10:59Z</time>
      </trkpt>
      <trkpt lat="39.409245" lon="-6.276679">
        <ele>436.808</ele>
        <time>2019-06-22T20:11:00Z</time>
      </trkpt>
      <trkpt lat="39.409121" lon="-6.276376">
        <ele>436.544</ele>
        <time>2019-06-22T20:11:01Z</time>
      </trkpt>
      <trkpt lat="39.409001" lon="-6.276087">
        <ele>436.398</ele>
        <time>2019-06-22T20:11:02Z</time>
      </trkpt>
      <trkpt lat="39.408883" lon="-6.275812">
        <ele>435.620</ele>
        <time>2019-06-22T20:11:03Z</time>
      </trkpt>
      <trkpt lat="39.408757" lon="-6.275531">
        <ele>435.632</ele>
        <time>2019-06-22T20:11:04Z</time>
      </trkpt>
      <trkpt lat="39.408626" lon="-6.275265">
        <ele>436.850</ele>
        <time>2019-06-22T20:11:05Z</time>
      </trkpt>
      <trkpt lat="39.408487" lon="-6.275003">
        <ele>438.079</ele>
        <time>2019-06-22T20:11:06Z</time>
      </trkpt>
      <trkpt lat="39.408329" lon="-6.274766">
        <ele>438.514</ele>
        <time>2019-06-22T20:11:07Z</time>
      </trkpt>
      <trkpt lat="39.408160" lon="-6.274550">
        <ele>439.657</ele>
        <time>2019-06-22T20:11:08Z</time>
      </trkpt>
      <trkpt lat="39.407981" lon="-6.274316">
        <ele>440.683</ele>
        <time>2019-06-22T20:11:09Z</time>
      </trkpt>
      <trkpt lat="39.407800" lon="-6.274064">
        <ele>440.625</ele>
        <time>2019-06-22T20:11:10Z</time>
      </trkpt>
      <trkpt lat="39.407607" lon="-6.273844">
        <ele>440.217</ele>
        <time>2019-06-22T20:11:11Z</time>
      </trkpt>
      <trkpt lat="39.407402" lon="-6.273625">
        <ele>440.208</ele>
        <time>2019-06-22T20:11:12Z</time>
      </trkpt>
      <trkpt lat="39.407187" lon="-6.273404">
        <ele>439.871</ele>
        <time>2019-06-22T20:11:13Z</time>
      </trkpt>
      <trkpt lat="39.406969" lon="-6.273204">
        <ele>439.285</ele>
        <time>2019-06-22T20:11:14Z</time>
      </trkpt>
      <trkpt lat="39.406750" lon="-6.272987">
        <ele>437.687</ele>
        <time>2019-06-22T20:11:15Z</time>
      </trkpt>
      <trkpt lat="39.406527" lon="-6.272781">
        <ele>436.629</ele>
        <time>2019-06-22T20:11:16Z</time>
      </trkpt>
      <trkpt lat="39.406316" lon="-6.272565">
        <ele>435.247</ele>
        <time>2019-06-22T20:11:17Z</time>
      </trkpt>
      <trkpt lat="39.406113" lon="-6.272363">
        <ele>434.116</ele>
        <time>2019-06-22T20:11:18Z</time>
      </trkpt>
      <trkpt lat="39.405885" lon="-6.272155">
        <ele>432.451</ele>
        <time>2019-06-22T20:11:19Z</time>
      </trkpt>
      <trkpt lat="39.405678" lon="-6.271968">
        <ele>431.294</ele>
        <time>2019-06-22T20:11:20Z</time>
      </trkpt>
      <trkpt lat="39.405460" lon="-6.271760">
        <ele>430.319</ele>
        <time>2019-06-22T20:11:21Z</time>
      </trkpt>
      <trkpt lat="39.405238" lon="-6.271564">
        <ele>430.309</ele>
        <time>2019-06-22T20:11:22Z</time>
      </trkpt>
      <trkpt lat="39.405026" lon="-6.271396">
        <ele>430.119</ele>
        <time>2019-06-22T20:11:23Z</time>
      </trkpt>
      <trkpt lat="39.404824" lon="-6.271206">
        <ele>430.108</ele>
        <time>2019-06-22T20:11:24Z</time>
      </trkpt>
      <trkpt lat="39.404628" lon="-6.271080">
        <ele>430.234</ele>
        <time>2019-06-22T20:11:25Z</time>
      </trkpt>
      <trkpt lat="39.404406" lon="-6.270908">
        <ele>430.968</ele>
        <time>2019-06-22T20:11:26Z</time>
      </trkpt>
      <trkpt lat="39.404192" lon="-6.270728">
        <ele>431.890</ele>
        <time>2019-06-22T20:11:27Z</time>
      </trkpt>
      <trkpt lat="39.403986" lon="-6.270539">
        <ele>432.212</ele>
        <time>2019-06-22T20:11:28Z</time>
      </trkpt>
      <trkpt lat="39.403774" lon="-6.270365">
        <ele>432.920</ele>
        <time>2019-06-22T20:11:29Z</time>
      </trkpt>
      <trkpt lat="39.403573" lon="-6.270195">
        <ele>433.619</ele>
        <time>2019-06-22T20:11:30Z</time>
      </trkpt>
      <trkpt lat="39.403372" lon="-6.269997">
        <ele>434.384</ele>
        <time>2019-06-22T20:11:31Z</time>
      </trkpt>
      <trkpt lat="39.403170" lon="-6.269796">
        <ele>435.437</ele>
        <time>2019-06-22T20:11:32Z</time>
      </trkpt>
      <trkpt lat="39.402969" lon="-6.269592">
        <ele>436.328</ele>
        <time>2019-06-22T20:11:33Z</time>
      </trkpt>
      <trkpt lat="39.402780" lon="-6.269393">
        <ele>437.289</ele>
        <time>2019-06-22T20:11:34Z</time>
      </trkpt>
      <trkpt lat="39.402596" lon="-6.269195">
        <ele>437.217</ele>
        <time>2019-06-22T20:11:35Z</time>
      </trkpt>
      <trkpt lat="39.402417" lon="-6.268999">
        <ele>437.208</ele>
        <time>2019-06-22T20:11:36Z</time>
      </trkpt>
      <trkpt lat="39.402244" lon="-6.268809">
        <ele>435.755</ele>
        <time>2019-06-22T20:11:37Z</time>
      </trkpt>
      <trkpt lat="39.402080" lon="-6.268634">
        <ele>433.769</ele>
        <time>2019-06-22T20:11:38Z</time>
      </trkpt>
      <trkpt lat="39.401923" lon="-6.268456">
        <ele>430.981</ele>
        <time>2019-06-22T20:11:39Z</time>
      </trkpt>
      <trkpt lat="39.401763" lon="-6.268270">
        <ele>428.753</ele>
        <time>2019-06-22T20:11:40Z</time>
      </trkpt>
      <trkpt lat="39.401599" lon="-6.268103">
        <ele>427.651</ele>
        <time>2019-06-22T20:11:41Z</time>
      </trkpt>
      <trkpt lat="39.401436" lon="-6.267921">
        <ele>427.690</ele>
        <time>2019-06-22T20:11:42Z</time>
      </trkpt>
      <trkpt lat="39.401266" lon="-6.267729">
        <ele>427.785</ele>
        <time>2019-06-22T20:11:43Z</time>
      </trkpt>
      <trkpt lat="39.401107" lon="-6.267560">
        <ele>428.898</ele>
        <time>2019-06-22T20:11:44Z</time>
      </trkpt>
      <trkpt lat="39.400945" lon="-6.267387">
        <ele>429.779</ele>
        <time>2019-06-22T20:11:45Z</time>
      </trkpt>
      <trkpt lat="39.400782" lon="-6.267205">
        <ele>430.005</ele>
        <time>2019-06-22T20:11:46Z</time>
      </trkpt>
      <trkpt lat="39.400615" lon="-6.267035">
        <ele>430.225</ele>
        <time>2019-06-22T20:11:47Z</time>
      </trkpt>
      <trkpt lat="39.400446" lon="-6.266856">
        <ele>430.408</ele>
        <time>2019-06-22T20:11:48Z</time>
      </trkpt>
      <trkpt lat="39.400279" lon="-6.266664">
        <ele>430.810</ele>
        <time>2019-06-22T20:11:49Z</time>
      </trkpt>
      <trkpt lat="39.400112" lon="-6.266480">
        <ele>431.264</ele>
        <time>2019-06-22T20:11:50Z</time>
      </trkpt>
      <trkpt lat="39.399951" lon="-6.266297">
        <ele>431.756</ele>
        <time>2019-06-22T20:11:51Z</time>
      </trkpt>
      <trkpt lat="39.399791" lon="-6.266118">
        <ele>432.358</ele>
        <time>2019-06-22T20:11:52Z</time>
      </trkpt>
      <trkpt lat="39.399626" lon="-6.265939">
        <ele>432.386</ele>
        <time>2019-06-22T20:11:53Z</time>
      </trkpt>
      <trkpt lat="39.399455" lon="-6.265759">
        <ele>432.815</ele>
        <time>2019-06-22T20:11:54Z</time>
      </trkpt>
      <trkpt lat="39.399289" lon="-6.265585">
        <ele>433.380</ele>
        <time>2019-06-22T20:11:55Z</time>
      </trkpt>
      <trkpt lat="39.399122" lon="-6.265402">
        <ele>433.573</ele>
        <time>2019-06-22T20:11:56Z</time>
      </trkpt>
      <trkpt lat="39.398962" lon="-6.265218">
        <ele>433.937</ele>
        <time>2019-06-22T20:11:57Z</time>
      </trkpt>
      <trkpt lat="39.398794" lon="-6.265029">
        <ele>434.949</ele>
        <time>2019-06-22T20:11:58Z</time>
      </trkpt>
      <trkpt lat="39.398626" lon="-6.264855">
        <ele>435.613</ele>
        <time>2019-06-22T20:11:59Z</time>
      </trkpt>
      <trkpt lat="39.398463" lon="-6.264671">
        <ele>436.308</ele>
        <time>2019-06-22T20:12:00Z</time>
      </trkpt>
      <trkpt lat="39.398293" lon="-6.264487">
        <ele>436.616</ele>
        <time>2019-06-22T20:12:01Z</time>
      </trkpt>
      <trkpt lat="39.398124" lon="-6.264304">
        <ele>436.650</ele>
        <time>2019-06-22T20:12:02Z</time>
      </trkpt>
      <trkpt lat="39.397957" lon="-6.264118">
        <ele>436.482</ele>
        <time>2019-06-22T20:12:03Z</time>
      </trkpt>
      <trkpt lat="39.397792" lon="-6.263929">
        <ele>435.794</ele>
        <time>2019-06-22T20:12:04Z</time>
      </trkpt>
      <trkpt lat="39.397624" lon="-6.263744">
        <ele>435.012</ele>
        <time>2019-06-22T20:12:05Z</time>
      </trkpt>
      <trkpt lat="39.397454" lon="-6.263556">
        <ele>434.691</ele>
        <time>2019-06-22T20:12:06Z</time>
      </trkpt>
      <trkpt lat="39.397282" lon="-6.263367">
        <ele>434.116</ele>
        <time>2019-06-22T20:12:07Z</time>
      </trkpt>
      <trkpt lat="39.397109" lon="-6.263174">
        <ele>433.469</ele>
        <time>2019-06-22T20:12:08Z</time>
      </trkpt>
      <trkpt lat="39.396935" lon="-6.262987">
        <ele>432.544</ele>
        <time>2019-06-22T20:12:09Z</time>
      </trkpt>
      <trkpt lat="39.396767" lon="-6.262803">
        <ele>431.705</ele>
        <time>2019-06-22T20:12:10Z</time>
      </trkpt>
      <trkpt lat="39.396597" lon="-6.262615">
        <ele>430.715</ele>
        <time>2019-06-22T20:12:11Z</time>
      </trkpt>
      <trkpt lat="39.396422" lon="-6.262422">
        <ele>429.708</ele>
        <time>2019-06-22T20:12:12Z</time>
      </trkpt>
      <trkpt lat="39.396240" lon="-6.262228">
        <ele>428.917</ele>
        <time>2019-06-22T20:12:13Z</time>
      </trkpt>
      <trkpt lat="39.396061" lon="-6.262031">
        <ele>428.341</ele>
        <time>2019-06-22T20:12:14Z</time>
      </trkpt>
      <trkpt lat="39.395882" lon="-6.261838">
        <ele>427.783</ele>
        <time>2019-06-22T20:12:15Z</time>
      </trkpt>
      <trkpt lat="39.395694" lon="-6.261644">
        <ele>427.045</ele>
        <time>2019-06-22T20:12:16Z</time>
      </trkpt>
      <trkpt lat="39.395528" lon="-6.261460">
        <ele>426.253</ele>
        <time>2019-06-22T20:12:17Z</time>
      </trkpt>
      <trkpt lat="39.395354" lon="-6.261261">
        <ele>425.522</ele>
        <time>2019-06-22T20:12:18Z</time>
      </trkpt>
      <trkpt lat="39.395178" lon="-6.261080">
        <ele>424.897</ele>
        <time>2019-06-22T20:12:19Z</time>
      </trkpt>
      <trkpt lat="39.395010" lon="-6.260888">
        <ele>424.310</ele>
        <time>2019-06-22T20:12:20Z</time>
      </trkpt>
      <trkpt lat="39.394837" lon="-6.260686">
        <ele>424.283</ele>
        <time>2019-06-22T20:12:21Z</time>
      </trkpt>
      <trkpt lat="39.394662" lon="-6.260491">
        <ele>424.125</ele>
        <time>2019-06-22T20:12:22Z</time>
      </trkpt>
      <trkpt lat="39.394490" lon="-6.260290">
        <ele>423.917</ele>
        <time>2019-06-22T20:12:23Z</time>
      </trkpt>
      <trkpt lat="39.394317" lon="-6.260106">
        <ele>423.908</ele>
        <time>2019-06-22T20:12:24Z</time>
      </trkpt>
      <trkpt lat="39.394140" lon="-6.259914">
        <ele>424.311</ele>
        <time>2019-06-22T20:12:25Z</time>
      </trkpt>
      <trkpt lat="39.393957" lon="-6.259728">
        <ele>424.385</ele>
        <time>2019-06-22T20:12:26Z</time>
      </trkpt>
      <trkpt lat="39.393779" lon="-6.259530">
        <ele>425.137</ele>
        <time>2019-06-22T20:12:27Z</time>
      </trkpt>
      <trkpt lat="39.393602" lon="-6.259343">
        <ele>425.199</ele>
        <time>2019-06-22T20:12:28Z</time>
      </trkpt>
      <trkpt lat="39.393425" lon="-6.259134">
        <ele>425.977</ele>
        <time>2019-06-22T20:12:29Z</time>
      </trkpt>
      <trkpt lat="39.393244" lon="-6.258936">
        <ele>426.536</ele>
        <time>2019-06-22T20:12:30Z</time>
      </trkpt>
      <trkpt lat="39.393064" lon="-6.258737">
        <ele>426.551</ele>
        <time>2019-06-22T20:12:31Z</time>
      </trkpt>
      <trkpt lat="39.392885" lon="-6.258538">
        <ele>426.544</ele>
        <time>2019-06-22T20:12:32Z</time>
      </trkpt>
      <trkpt lat="39.392701" lon="-6.258337">
        <ele>426.129</ele>
        <time>2019-06-22T20:12:33Z</time>
      </trkpt>
      <trkpt lat="39.392514" lon="-6.258133">
        <ele>425.500</ele>
        <time>2019-06-22T20:12:34Z</time>
      </trkpt>
      <trkpt lat="39.392325" lon="-6.257922">
        <ele>424.820</ele>
        <time>2019-06-22T20:12:35Z</time>
      </trkpt>
      <trkpt lat="39.392133" lon="-6.257712">
        <ele>424.408</ele>
        <time>2019-06-22T20:12:36Z</time>
      </trkpt>
      <trkpt lat="39.391946" lon="-6.257504">
        <ele>423.975</ele>
        <time>2019-06-22T20:12:37Z</time>
      </trkpt>
      <trkpt lat="39.391761" lon="-6.257296">
        <ele>423.059</ele>
        <time>2019-06-22T20:12:38Z</time>
      </trkpt>
      <trkpt lat="39.391581" lon="-6.257107">
        <ele>422.031</ele>
        <time>2019-06-22T20:12:39Z</time>
      </trkpt>
      <trkpt lat="39.391402" lon="-6.256915">
        <ele>421.033</ele>
        <time>2019-06-22T20:12:40Z</time>
      </trkpt>
      <trkpt lat="39.391232" lon="-6.256722">
        <ele>420.261</ele>
        <time>2019-06-22T20:12:41Z</time>
      </trkpt>
      <trkpt lat="39.391062" lon="-6.256546">
        <ele>419.650</ele>
        <time>2019-06-22T20:12:42Z</time>
      </trkpt>
      <trkpt lat="39.390898" lon="-6.256361">
        <ele>419.615</ele>
        <time>2019-06-22T20:12:43Z</time>
      </trkpt>
      <trkpt lat="39.390729" lon="-6.256169">
        <ele>420.358</ele>
        <time>2019-06-22T20:12:44Z</time>
      </trkpt>
      <trkpt lat="39.390558" lon="-6.255981">
        <ele>420.986</ele>
        <time>2019-06-22T20:12:45Z</time>
      </trkpt>
      <trkpt lat="39.390394" lon="-6.255811">
        <ele>421.160</ele>
        <time>2019-06-22T20:12:46Z</time>
      </trkpt>
      <trkpt lat="39.390234" lon="-6.255630">
        <ele>422.126</ele>
        <time>2019-06-22T20:12:47Z</time>
      </trkpt>
      <trkpt lat="39.390076" lon="-6.255452">
        <ele>422.708</ele>
        <time>2019-06-22T20:12:48Z</time>
      </trkpt>
      <trkpt lat="39.389931" lon="-6.255303">
        <ele>422.981</ele>
        <time>2019-06-22T20:12:49Z</time>
      </trkpt>
      <trkpt lat="39.389776" lon="-6.255142">
        <ele>423.555</ele>
        <time>2019-06-22T20:12:50Z</time>
      </trkpt>
      <trkpt lat="39.389627" lon="-6.254978">
        <ele>423.737</ele>
        <time>2019-06-22T20:12:51Z</time>
      </trkpt>
      <trkpt lat="39.389475" lon="-6.254813">
        <ele>423.929</ele>
        <time>2019-06-22T20:12:52Z</time>
      </trkpt>
      <trkpt lat="39.389321" lon="-6.254636">
        <ele>424.437</ele>
        <time>2019-06-22T20:12:53Z</time>
      </trkpt>
      <trkpt lat="39.389169" lon="-6.254459">
        <ele>425.146</ele>
        <time>2019-06-22T20:12:54Z</time>
      </trkpt>
      <trkpt lat="39.389015" lon="-6.254269">
        <ele>425.541</ele>
        <time>2019-06-22T20:12:55Z</time>
      </trkpt>
      <trkpt lat="39.388869" lon="-6.254075">
        <ele>426.034</ele>
        <time>2019-06-22T20:12:56Z</time>
      </trkpt>
      <trkpt lat="39.388719" lon="-6.253872">
        <ele>426.533</ele>
        <time>2019-06-22T20:12:57Z</time>
      </trkpt>
      <trkpt lat="39.388565" lon="-6.253676">
        <ele>426.523</ele>
        <time>2019-06-22T20:12:58Z</time>
      </trkpt>
      <trkpt lat="39.388413" lon="-6.253481">
        <ele>426.515</ele>
        <time>2019-06-22T20:12:59Z</time>
      </trkpt>
      <trkpt lat="39.388267" lon="-6.253295">
        <ele>426.508</ele>
        <time>2019-06-22T20:13:00Z</time>
      </trkpt>
      <trkpt lat="39.388122" lon="-6.253099">
        <ele>426.526</ele>
        <time>2019-06-22T20:13:01Z</time>
      </trkpt>
      <trkpt lat="39.387968" lon="-6.252901">
        <ele>426.470</ele>
        <time>2019-06-22T20:13:02Z</time>
      </trkpt>
      <trkpt lat="39.387825" lon="-6.252696">
        <ele>426.482</ele>
        <time>2019-06-22T20:13:03Z</time>
      </trkpt>
      <trkpt lat="39.387674" lon="-6.252491">
        <ele>426.414</ele>
        <time>2019-06-22T20:13:04Z</time>
      </trkpt>
      <trkpt lat="39.387516" lon="-6.252281">
        <ele>426.492</ele>
        <time>2019-06-22T20:13:05Z</time>
      </trkpt>
      <trkpt lat="39.387356" lon="-6.252065">
        <ele>426.231</ele>
        <time>2019-06-22T20:13:06Z</time>
      </trkpt>
      <trkpt lat="39.387195" lon="-6.251844">
        <ele>426.066</ele>
        <time>2019-06-22T20:13:07Z</time>
      </trkpt>
      <trkpt lat="39.387030" lon="-6.251617">
        <ele>425.969</ele>
        <time>2019-06-22T20:13:08Z</time>
      </trkpt>
      <trkpt lat="39.386862" lon="-6.251383">
        <ele>425.591</ele>
        <time>2019-06-22T20:13:09Z</time>
      </trkpt>
      <trkpt lat="39.386697" lon="-6.251159">
        <ele>424.581</ele>
        <time>2019-06-22T20:13:10Z</time>
      </trkpt>
      <trkpt lat="39.386522" lon="-6.250937">
        <ele>423.819</ele>
        <time>2019-06-22T20:13:11Z</time>
      </trkpt>
      <trkpt lat="39.386359" lon="-6.250738">
        <ele>422.808</ele>
        <time>2019-06-22T20:13:12Z</time>
      </trkpt>
      <trkpt lat="39.386195" lon="-6.250523">
        <ele>422.212</ele>
        <time>2019-06-22T20:13:13Z</time>
      </trkpt>
      <trkpt lat="39.386038" lon="-6.250308">
        <ele>422.276</ele>
        <time>2019-06-22T20:13:14Z</time>
      </trkpt>
      <trkpt lat="39.385887" lon="-6.250112">
        <ele>422.518</ele>
        <time>2019-06-22T20:13:15Z</time>
      </trkpt>
      <trkpt lat="39.385744" lon="-6.249913">
        <ele>423.030</ele>
        <time>2019-06-22T20:13:16Z</time>
      </trkpt>
      <trkpt lat="39.385610" lon="-6.249728">
        <ele>423.548</ele>
        <time>2019-06-22T20:13:17Z</time>
      </trkpt>
      <trkpt lat="39.385480" lon="-6.249564">
        <ele>424.537</ele>
        <time>2019-06-22T20:13:18Z</time>
      </trkpt>
      <trkpt lat="39.385369" lon="-6.249402">
        <ele>425.442</ele>
        <time>2019-06-22T20:13:19Z</time>
      </trkpt>
      <trkpt lat="39.385267" lon="-6.249267">
        <ele>426.635</ele>
        <time>2019-06-22T20:13:20Z</time>
      </trkpt>
      <trkpt lat="39.385165" lon="-6.249132">
        <ele>427.826</ele>
        <time>2019-06-22T20:13:21Z</time>
      </trkpt>
      <trkpt lat="39.385075" lon="-6.249016">
        <ele>429.447</ele>
        <time>2019-06-22T20:13:22Z</time>
      </trkpt>
      <trkpt lat="39.384982" lon="-6.248894">
        <ele>430.011</ele>
        <time>2019-06-22T20:13:23Z</time>
      </trkpt>
      <trkpt lat="39.384890" lon="-6.248761">
        <ele>431.008</ele>
        <time>2019-06-22T20:13:24Z</time>
      </trkpt>
      <trkpt lat="39.384794" lon="-6.248628">
        <ele>432.175</ele>
        <time>2019-06-22T20:13:25Z</time>
      </trkpt>
      <trkpt lat="39.384685" lon="-6.248486">
        <ele>433.129</ele>
        <time>2019-06-22T20:13:26Z</time>
      </trkpt>
      <trkpt lat="39.384573" lon="-6.248337">
        <ele>433.861</ele>
        <time>2019-06-22T20:13:27Z</time>
      </trkpt>
      <trkpt lat="39.384464" lon="-6.248198">
        <ele>434.983</ele>
        <time>2019-06-22T20:13:28Z</time>
      </trkpt>
      <trkpt lat="39.384360" lon="-6.248061">
        <ele>435.921</ele>
        <time>2019-06-22T20:13:29Z</time>
      </trkpt>
      <trkpt lat="39.384269" lon="-6.247939">
        <ele>436.760</ele>
        <time>2019-06-22T20:13:30Z</time>
      </trkpt>
      <trkpt lat="39.384172" lon="-6.247809">
        <ele>437.385</ele>
        <time>2019-06-22T20:13:31Z</time>
      </trkpt>
      <trkpt lat="39.384075" lon="-6.247677">
        <ele>437.658</ele>
        <time>2019-06-22T20:13:32Z</time>
      </trkpt>
      <trkpt lat="39.383974" lon="-6.247545">
        <ele>438.382</ele>
        <time>2019-06-22T20:13:33Z</time>
      </trkpt>
      <trkpt lat="39.383868" lon="-6.247394">
        <ele>438.843</ele>
        <time>2019-06-22T20:13:34Z</time>
      </trkpt>
      <trkpt lat="39.383760" lon="-6.247254">
        <ele>438.817</ele>
        <time>2019-06-22T20:13:35Z</time>
      </trkpt>
      <trkpt lat="39.383655" lon="-6.247113">
        <ele>439.108</ele>
        <time>2019-06-22T20:13:36Z</time>
      </trkpt>
      <trkpt lat="39.383553" lon="-6.246976">
        <ele>439.781</ele>
        <time>2019-06-22T20:13:37Z</time>
      </trkpt>
      <trkpt lat="39.383452" lon="-6.246840">
        <ele>440.625</ele>
        <time>2019-06-22T20:13:38Z</time>
      </trkpt>
      <trkpt lat="39.383353" lon="-6.246696">
        <ele>441.437</ele>
        <time>2019-06-22T20:13:39Z</time>
      </trkpt>
      <trkpt lat="39.383253" lon="-6.246561">
        <ele>442.219</ele>
        <time>2019-06-22T20:13:40Z</time>
      </trkpt>
      <trkpt lat="39.383158" lon="-6.246414">
        <ele>442.267</ele>
        <time>2019-06-22T20:13:41Z</time>
      </trkpt>
      <trkpt lat="39.383083" lon="-6.246306">
        <ele>442.276</ele>
        <time>2019-06-22T20:13:42Z</time>
      </trkpt>
      <trkpt lat="39.382992" lon="-6.246179">
        <ele>441.511</ele>
        <time>2019-06-22T20:13:43Z</time>
      </trkpt>
      <trkpt lat="39.382916" lon="-6.246074">
        <ele>441.354</ele>
        <time>2019-06-22T20:13:44Z</time>
      </trkpt>
      <trkpt lat="39.382828" lon="-6.245969">
        <ele>440.978</ele>
        <time>2019-06-22T20:13:45Z</time>
      </trkpt>
      <trkpt lat="39.382730" lon="-6.245848">
        <ele>440.933</ele>
        <time>2019-06-22T20:13:46Z</time>
      </trkpt>
      <trkpt lat="39.382626" lon="-6.245711">
        <ele>441.726</ele>
        <time>2019-06-22T20:13:47Z</time>
      </trkpt>
      <trkpt lat="39.382519" lon="-6.245576">
        <ele>442.608</ele>
        <time>2019-06-22T20:13:48Z</time>
      </trkpt>
      <trkpt lat="39.382404" lon="-6.245423">
        <ele>442.950</ele>
        <time>2019-06-22T20:13:49Z</time>
      </trkpt>
      <trkpt lat="39.382284" lon="-6.245263">
        <ele>443.194</ele>
        <time>2019-06-22T20:13:50Z</time>
      </trkpt>
      <trkpt lat="39.382161" lon="-6.245090">
        <ele>443.196</ele>
        <time>2019-06-22T20:13:51Z</time>
      </trkpt>
      <trkpt lat="39.382030" lon="-6.244910">
        <ele>442.658</ele>
        <time>2019-06-22T20:13:52Z</time>
      </trkpt>
      <trkpt lat="39.381891" lon="-6.244720">
        <ele>442.066</ele>
        <time>2019-06-22T20:13:53Z</time>
      </trkpt>
      <trkpt lat="39.381748" lon="-6.244524">
        <ele>441.665</ele>
        <time>2019-06-22T20:13:54Z</time>
      </trkpt>
      <trkpt lat="39.381599" lon="-6.244329">
        <ele>441.180</ele>
        <time>2019-06-22T20:13:55Z</time>
      </trkpt>
      <trkpt lat="39.381449" lon="-6.244130">
        <ele>440.783</ele>
        <time>2019-06-22T20:13:56Z</time>
      </trkpt>
      <trkpt lat="39.381292" lon="-6.243920">
        <ele>440.148</ele>
        <time>2019-06-22T20:13:57Z</time>
      </trkpt>
      <trkpt lat="39.381134" lon="-6.243707">
        <ele>439.661</ele>
        <time>2019-06-22T20:13:58Z</time>
      </trkpt>
      <trkpt lat="39.380968" lon="-6.243487">
        <ele>439.317</ele>
        <time>2019-06-22T20:13:59Z</time>
      </trkpt>
      <trkpt lat="39.380799" lon="-6.243251">
        <ele>438.808</ele>
        <time>2019-06-22T20:14:00Z</time>
      </trkpt>
      <trkpt lat="39.380629" lon="-6.243024">
        <ele>438.097</ele>
        <time>2019-06-22T20:14:01Z</time>
      </trkpt>
      <trkpt lat="39.380454" lon="-6.242791">
        <ele>437.891</ele>
        <time>2019-06-22T20:14:02Z</time>
      </trkpt>
      <trkpt lat="39.380278" lon="-6.242560">
        <ele>437.153</ele>
        <time>2019-06-22T20:14:03Z</time>
      </trkpt>
      <trkpt lat="39.380096" lon="-6.242322">
        <ele>435.875</ele>
        <time>2019-06-22T20:14:04Z</time>
      </trkpt>
      <trkpt lat="39.379915" lon="-6.242086">
        <ele>435.193</ele>
        <time>2019-06-22T20:14:05Z</time>
      </trkpt>
      <trkpt lat="39.379729" lon="-6.241843">
        <ele>434.832</ele>
        <time>2019-06-22T20:14:06Z</time>
      </trkpt>
      <trkpt lat="39.379546" lon="-6.241598">
        <ele>434.247</ele>
        <time>2019-06-22T20:14:07Z</time>
      </trkpt>
      <trkpt lat="39.379357" lon="-6.241350">
        <ele>433.820</ele>
        <time>2019-06-22T20:14:08Z</time>
      </trkpt>
      <trkpt lat="39.379170" lon="-6.241099">
        <ele>433.853</ele>
        <time>2019-06-22T20:14:09Z</time>
      </trkpt>
      <trkpt lat="39.378985" lon="-6.240846">
        <ele>433.504</ele>
        <time>2019-06-22T20:14:10Z</time>
      </trkpt>
      <trkpt lat="39.378797" lon="-6.240597">
        <ele>433.214</ele>
        <time>2019-06-22T20:14:11Z</time>
      </trkpt>
      <trkpt lat="39.378615" lon="-6.240351">
        <ele>432.808</ele>
        <time>2019-06-22T20:14:12Z</time>
      </trkpt>
      <trkpt lat="39.378430" lon="-6.240103">
        <ele>432.518</ele>
        <time>2019-06-22T20:14:13Z</time>
      </trkpt>
      <trkpt lat="39.378258" lon="-6.239886">
        <ele>432.572</ele>
        <time>2019-06-22T20:14:14Z</time>
      </trkpt>
      <trkpt lat="39.378073" lon="-6.239634">
        <ele>432.574</ele>
        <time>2019-06-22T20:14:15Z</time>
      </trkpt>
      <trkpt lat="39.377883" lon="-6.239374">
        <ele>432.746</ele>
        <time>2019-06-22T20:14:16Z</time>
      </trkpt>
      <trkpt lat="39.377691" lon="-6.239126">
        <ele>433.324</ele>
        <time>2019-06-22T20:14:17Z</time>
      </trkpt>
      <trkpt lat="39.377515" lon="-6.238884">
        <ele>433.853</ele>
        <time>2019-06-22T20:14:18Z</time>
      </trkpt>
      <trkpt lat="39.377341" lon="-6.238649">
        <ele>434.948</ele>
        <time>2019-06-22T20:14:19Z</time>
      </trkpt>
      <trkpt lat="39.377165" lon="-6.238404">
        <ele>435.751</ele>
        <time>2019-06-22T20:14:20Z</time>
      </trkpt>
      <trkpt lat="39.376992" lon="-6.238166">
        <ele>436.457</ele>
        <time>2019-06-22T20:14:21Z</time>
      </trkpt>
      <trkpt lat="39.376815" lon="-6.237921">
        <ele>436.800</ele>
        <time>2019-06-22T20:14:22Z</time>
      </trkpt>
      <trkpt lat="39.376635" lon="-6.237684">
        <ele>437.720</ele>
        <time>2019-06-22T20:14:23Z</time>
      </trkpt>
      <trkpt lat="39.376459" lon="-6.237445">
        <ele>437.808</ele>
        <time>2019-06-22T20:14:24Z</time>
      </trkpt>
      <trkpt lat="39.376270" lon="-6.237212">
        <ele>438.298</ele>
        <time>2019-06-22T20:14:25Z</time>
      </trkpt>
      <trkpt lat="39.376093" lon="-6.236976">
        <ele>439.012</ele>
        <time>2019-06-22T20:14:26Z</time>
      </trkpt>
      <trkpt lat="39.375916" lon="-6.236750">
        <ele>439.694</ele>
        <time>2019-06-22T20:14:27Z</time>
      </trkpt>
      <trkpt lat="39.375737" lon="-6.236506">
        <ele>440.036</ele>
        <time>2019-06-22T20:14:28Z</time>
      </trkpt>
      <trkpt lat="39.375559" lon="-6.236264">
        <ele>440.984</ele>
        <time>2019-06-22T20:14:29Z</time>
      </trkpt>
      <trkpt lat="39.375385" lon="-6.236030">
        <ele>441.593</ele>
        <time>2019-06-22T20:14:30Z</time>
      </trkpt>
      <trkpt lat="39.375212" lon="-6.235779">
        <ele>441.948</ele>
        <time>2019-06-22T20:14:31Z</time>
      </trkpt>
      <trkpt lat="39.375038" lon="-6.235527">
        <ele>442.631</ele>
        <time>2019-06-22T20:14:32Z</time>
      </trkpt>
      <trkpt lat="39.374869" lon="-6.235257">
        <ele>443.221</ele>
        <time>2019-06-22T20:14:33Z</time>
      </trkpt>
      <trkpt lat="39.374703" lon="-6.234993">
        <ele>443.741</ele>
        <time>2019-06-22T20:14:34Z</time>
      </trkpt>
      <trkpt lat="39.374542" lon="-6.234727">
        <ele>443.905</ele>
        <time>2019-06-22T20:14:35Z</time>
      </trkpt>
      <trkpt lat="39.374393" lon="-6.234450">
        <ele>444.108</ele>
        <time>2019-06-22T20:14:36Z</time>
      </trkpt>
      <trkpt lat="39.374245" lon="-6.234166">
        <ele>444.585</ele>
        <time>2019-06-22T20:14:37Z</time>
      </trkpt>
      <trkpt lat="39.374109" lon="-6.233874">
        <ele>444.519</ele>
        <time>2019-06-22T20:14:38Z</time>
      </trkpt>
      <trkpt lat="39.373972" lon="-6.233573">
        <ele>444.541</ele>
        <time>2019-06-22T20:14:39Z</time>
      </trkpt>
      <trkpt lat="39.373844" lon="-6.233264">
        <ele>444.573</ele>
        <time>2019-06-22T20:14:40Z</time>
      </trkpt>
      <trkpt lat="39.373717" lon="-6.232947">
        <ele>444.421</ele>
        <time>2019-06-22T20:14:41Z</time>
      </trkpt>
      <trkpt lat="39.373595" lon="-6.232626">
        <ele>444.430</ele>
        <time>2019-06-22T20:14:42Z</time>
      </trkpt>
      <trkpt lat="39.373473" lon="-6.232300">
        <ele>443.785</ele>
        <time>2019-06-22T20:14:43Z</time>
      </trkpt>
      <trkpt lat="39.373357" lon="-6.231971">
        <ele>443.018</ele>
        <time>2019-06-22T20:14:44Z</time>
      </trkpt>
      <trkpt lat="39.373237" lon="-6.231643">
        <ele>442.526</ele>
        <time>2019-06-22T20:14:45Z</time>
      </trkpt>
      <trkpt lat="39.373116" lon="-6.231314">
        <ele>441.547</ele>
        <time>2019-06-22T20:14:46Z</time>
      </trkpt>
      <trkpt lat="39.372991" lon="-6.230988">
        <ele>440.311</ele>
        <time>2019-06-22T20:14:47Z</time>
      </trkpt>
      <trkpt lat="39.372870" lon="-6.230664">
        <ele>439.208</ele>
        <time>2019-06-22T20:14:48Z</time>
      </trkpt>
      <trkpt lat="39.372754" lon="-6.230341">
        <ele>438.435</ele>
        <time>2019-06-22T20:14:49Z</time>
      </trkpt>
      <trkpt lat="39.372651" lon="-6.230014">
        <ele>437.649</ele>
        <time>2019-06-22T20:14:50Z</time>
      </trkpt>
      <trkpt lat="39.372540" lon="-6.229697">
        <ele>437.511</ele>
        <time>2019-06-22T20:14:51Z</time>
      </trkpt>
      <trkpt lat="39.372428" lon="-6.229378">
        <ele>437.523</ele>
        <time>2019-06-22T20:14:52Z</time>
      </trkpt>
      <trkpt lat="39.372312" lon="-6.229062">
        <ele>438.041</ele>
        <time>2019-06-22T20:14:53Z</time>
      </trkpt>
      <trkpt lat="39.372196" lon="-6.228749">
        <ele>438.660</ele>
        <time>2019-06-22T20:14:54Z</time>
      </trkpt>
      <trkpt lat="39.372081" lon="-6.228432">
        <ele>439.145</ele>
        <time>2019-06-22T20:14:55Z</time>
      </trkpt>
      <trkpt lat="39.371969" lon="-6.228119">
        <ele>439.528</ele>
        <time>2019-06-22T20:14:56Z</time>
      </trkpt>
      <trkpt lat="39.371856" lon="-6.227804">
        <ele>439.818</ele>
        <time>2019-06-22T20:14:57Z</time>
      </trkpt>
      <trkpt lat="39.371745" lon="-6.227490">
        <ele>439.898</ele>
        <time>2019-06-22T20:14:58Z</time>
      </trkpt>
      <trkpt lat="39.371634" lon="-6.227183">
        <ele>439.617</ele>
        <time>2019-06-22T20:14:59Z</time>
      </trkpt>
      <trkpt lat="39.371530" lon="-6.226874">
        <ele>439.308</ele>
        <time>2019-06-22T20:15:00Z</time>
      </trkpt>
      <trkpt lat="39.371431" lon="-6.226578">
        <ele>439.154</ele>
        <time>2019-06-22T20:15:01Z</time>
      </trkpt>
      <trkpt lat="39.371324" lon="-6.226282">
        <ele>438.958</ele>
        <time>2019-06-22T20:15:02Z</time>
      </trkpt>
      <trkpt lat="39.371216" lon="-6.225980">
        <ele>438.950</ele>
        <time>2019-06-22T20:15:03Z</time>
      </trkpt>
      <trkpt lat="39.371107" lon="-6.225685">
        <ele>439.232</ele>
        <time>2019-06-22T20:15:04Z</time>
      </trkpt>
      <trkpt lat="39.370998" lon="-6.225395">
        <ele>439.570</ele>
        <time>2019-06-22T20:15:05Z</time>
      </trkpt>
      <trkpt lat="39.370886" lon="-6.225107">
        <ele>439.719</ele>
        <time>2019-06-22T20:15:06Z</time>
      </trkpt>
      <trkpt lat="39.370773" lon="-6.224827">
        <ele>440.684</ele>
        <time>2019-06-22T20:15:07Z</time>
      </trkpt>
      <trkpt lat="39.370648" lon="-6.224550">
        <ele>441.257</ele>
        <time>2019-06-22T20:15:08Z</time>
      </trkpt>
      <trkpt lat="39.370513" lon="-6.224273">
        <ele>441.881</ele>
        <time>2019-06-22T20:15:09Z</time>
      </trkpt>
      <trkpt lat="39.370369" lon="-6.224000">
        <ele>442.361</ele>
        <time>2019-06-22T20:15:10Z</time>
      </trkpt>
      <trkpt lat="39.370219" lon="-6.223729">
        <ele>442.617</ele>
        <time>2019-06-22T20:15:11Z</time>
      </trkpt>
      <trkpt lat="39.370064" lon="-6.223462">
        <ele>442.608</ele>
        <time>2019-06-22T20:15:12Z</time>
      </trkpt>
      <trkpt lat="39.369908" lon="-6.223219">
        <ele>442.261</ele>
        <time>2019-06-22T20:15:13Z</time>
      </trkpt>
      <trkpt lat="39.369761" lon="-6.222996">
        <ele>441.155</ele>
        <time>2019-06-22T20:15:14Z</time>
      </trkpt>
      <trkpt lat="39.369620" lon="-6.222774">
        <ele>440.037</ele>
        <time>2019-06-22T20:15:15Z</time>
      </trkpt>
      <trkpt lat="39.369485" lon="-6.222577">
        <ele>438.679</ele>
        <time>2019-06-22T20:15:16Z</time>
      </trkpt>
      <trkpt lat="39.369354" lon="-6.222380">
        <ele>437.577</ele>
        <time>2019-06-22T20:15:17Z</time>
      </trkpt>
      <trkpt lat="39.369234" lon="-6.222200">
        <ele>437.556</ele>
        <time>2019-06-22T20:15:18Z</time>
      </trkpt>
      <trkpt lat="39.369124" lon="-6.222034">
        <ele>438.171</ele>
        <time>2019-06-22T20:15:19Z</time>
      </trkpt>
      <trkpt lat="39.369030" lon="-6.221887">
        <ele>438.444</ele>
        <time>2019-06-22T20:15:20Z</time>
      </trkpt>
      <trkpt lat="39.368936" lon="-6.221747">
        <ele>440.028</ele>
        <time>2019-06-22T20:15:21Z</time>
      </trkpt>
      <trkpt lat="39.368850" lon="-6.221614">
        <ele>441.689</ele>
        <time>2019-06-22T20:15:22Z</time>
      </trkpt>
      <trkpt lat="39.368771" lon="-6.221489">
        <ele>442.617</ele>
        <time>2019-06-22T20:15:23Z</time>
      </trkpt>
      <trkpt lat="39.368691" lon="-6.221371">
        <ele>443.908</ele>
        <time>2019-06-22T20:15:24Z</time>
      </trkpt>
      <trkpt lat="39.368602" lon="-6.221246">
        <ele>445.655</ele>
        <time>2019-06-22T20:15:25Z</time>
      </trkpt>
      <trkpt lat="39.368521" lon="-6.221115">
        <ele>446.319</ele>
        <time>2019-06-22T20:15:26Z</time>
      </trkpt>
      <trkpt lat="39.368432" lon="-6.220985">
        <ele>447.161</ele>
        <time>2019-06-22T20:15:27Z</time>
      </trkpt>
      <trkpt lat="39.368347" lon="-6.220854">
        <ele>447.133</ele>
        <time>2019-06-22T20:15:28Z</time>
      </trkpt>
      <trkpt lat="39.368261" lon="-6.220719">
        <ele>447.191</ele>
        <time>2019-06-22T20:15:29Z</time>
      </trkpt>
      <trkpt lat="39.368173" lon="-6.220593">
        <ele>446.890</ele>
        <time>2019-06-22T20:15:30Z</time>
      </trkpt>
      <trkpt lat="39.368082" lon="-6.220467">
        <ele>446.215</ele>
        <time>2019-06-22T20:15:31Z</time>
      </trkpt>
      <trkpt lat="39.367991" lon="-6.220330">
        <ele>445.528</ele>
        <time>2019-06-22T20:15:32Z</time>
      </trkpt>
      <trkpt lat="39.367899" lon="-6.220190">
        <ele>445.269</ele>
        <time>2019-06-22T20:15:33Z</time>
      </trkpt>
      <trkpt lat="39.367800" lon="-6.220047">
        <ele>445.204</ele>
        <time>2019-06-22T20:15:34Z</time>
      </trkpt>
      <trkpt lat="39.367699" lon="-6.219895">
        <ele>445.024</ele>
        <time>2019-06-22T20:15:35Z</time>
      </trkpt>
      <trkpt lat="39.367595" lon="-6.219732">
        <ele>445.008</ele>
        <time>2019-06-22T20:15:36Z</time>
      </trkpt>
      <trkpt lat="39.367487" lon="-6.219579">
        <ele>445.629</ele>
        <time>2019-06-22T20:15:37Z</time>
      </trkpt>
      <trkpt lat="39.367380" lon="-6.219418">
        <ele>446.293</ele>
        <time>2019-06-22T20:15:38Z</time>
      </trkpt>
      <trkpt lat="39.367273" lon="-6.219258">
        <ele>446.245</ele>
        <time>2019-06-22T20:15:39Z</time>
      </trkpt>
      <trkpt lat="39.367179" lon="-6.219111">
        <ele>446.517</ele>
        <time>2019-06-22T20:15:40Z</time>
      </trkpt>
      <trkpt lat="39.367087" lon="-6.218966">
        <ele>447.135</ele>
        <time>2019-06-22T20:15:41Z</time>
      </trkpt>
      <trkpt lat="39.367004" lon="-6.218840">
        <ele>447.614</ele>
        <time>2019-06-22T20:15:42Z</time>
      </trkpt>
      <trkpt lat="39.366922" lon="-6.218716">
        <ele>447.619</ele>
        <time>2019-06-22T20:15:43Z</time>
      </trkpt>
      <trkpt lat="39.366846" lon="-6.218599">
        <ele>448.042</ele>
        <time>2019-06-22T20:15:44Z</time>
      </trkpt>
      <trkpt lat="39.366784" lon="-6.218502">
        <ele>448.774</ele>
        <time>2019-06-22T20:15:45Z</time>
      </trkpt>
      <trkpt lat="39.366713" lon="-6.218395">
        <ele>449.656</ele>
        <time>2019-06-22T20:15:46Z</time>
      </trkpt>
      <trkpt lat="39.366629" lon="-6.218277">
        <ele>450.121</ele>
        <time>2019-06-22T20:15:47Z</time>
      </trkpt>
      <trkpt lat="39.366544" lon="-6.218158">
        <ele>450.408</ele>
        <time>2019-06-22T20:15:48Z</time>
      </trkpt>
      <trkpt lat="39.366460" lon="-6.218029">
        <ele>450.780</ele>
        <time>2019-06-22T20:15:49Z</time>
      </trkpt>
      <trkpt lat="39.366362" lon="-6.217891">
        <ele>451.074</ele>
        <time>2019-06-22T20:15:50Z</time>
      </trkpt>
      <trkpt lat="39.366264" lon="-6.217740">
        <ele>451.016</ele>
        <time>2019-06-22T20:15:51Z</time>
      </trkpt>
      <trkpt lat="39.366162" lon="-6.217581">
        <ele>450.638</ele>
        <time>2019-06-22T20:15:52Z</time>
      </trkpt>
      <trkpt lat="39.366049" lon="-6.217424">
        <ele>450.456</ele>
        <time>2019-06-22T20:15:53Z</time>
      </trkpt>
      <trkpt lat="39.365938" lon="-6.217247">
        <ele>449.865</ele>
        <time>2019-06-22T20:15:54Z</time>
      </trkpt>
      <trkpt lat="39.365819" lon="-6.217060">
        <ele>448.260</ele>
        <time>2019-06-22T20:15:55Z</time>
      </trkpt>
      <trkpt lat="39.365689" lon="-6.216872">
        <ele>446.693</ele>
        <time>2019-06-22T20:15:56Z</time>
      </trkpt>
      <trkpt lat="39.365560" lon="-6.216675">
        <ele>445.511</ele>
        <time>2019-06-22T20:15:57Z</time>
      </trkpt>
      <trkpt lat="39.365422" lon="-6.216460">
        <ele>445.521</ele>
        <time>2019-06-22T20:15:58Z</time>
      </trkpt>
      <trkpt lat="39.365282" lon="-6.216243">
        <ele>445.503</ele>
        <time>2019-06-22T20:15:59Z</time>
      </trkpt>
      <trkpt lat="39.365138" lon="-6.216021">
        <ele>445.508</ele>
        <time>2019-06-22T20:16:00Z</time>
      </trkpt>
      <trkpt lat="39.364990" lon="-6.215796">
        <ele>446.094</ele>
        <time>2019-06-22T20:16:01Z</time>
      </trkpt>
      <trkpt lat="39.364833" lon="-6.215572">
        <ele>446.378</ele>
        <time>2019-06-22T20:16:02Z</time>
      </trkpt>
      <trkpt lat="39.364675" lon="-6.215333">
        <ele>446.340</ele>
        <time>2019-06-22T20:16:03Z</time>
      </trkpt>
      <trkpt lat="39.364513" lon="-6.215087">
        <ele>446.212</ele>
        <time>2019-06-22T20:16:04Z</time>
      </trkpt>
      <trkpt lat="39.364349" lon="-6.214846">
        <ele>445.910</ele>
        <time>2019-06-22T20:16:05Z</time>
      </trkpt>
      <trkpt lat="39.364189" lon="-6.214599">
        <ele>444.999</ele>
        <time>2019-06-22T20:16:06Z</time>
      </trkpt>
      <trkpt lat="39.364029" lon="-6.214350">
        <ele>443.854</ele>
        <time>2019-06-22T20:16:07Z</time>
      </trkpt>
      <trkpt lat="39.363867" lon="-6.214112">
        <ele>442.727</ele>
        <time>2019-06-22T20:16:08Z</time>
      </trkpt>
      <trkpt lat="39.363715" lon="-6.213884">
        <ele>441.561</ele>
        <time>2019-06-22T20:16:09Z</time>
      </trkpt>
      <trkpt lat="39.363567" lon="-6.213663">
        <ele>439.821</ele>
        <time>2019-06-22T20:16:10Z</time>
      </trkpt>
      <trkpt lat="39.363430" lon="-6.213456">
        <ele>438.113</ele>
        <time>2019-06-22T20:16:11Z</time>
      </trkpt>
      <trkpt lat="39.363297" lon="-6.213238">
        <ele>438.108</ele>
        <time>2019-06-22T20:16:12Z</time>
      </trkpt>
      <trkpt lat="39.363158" lon="-6.213020">
        <ele>438.529</ele>
        <time>2019-06-22T20:16:13Z</time>
      </trkpt>
      <trkpt lat="39.363016" lon="-6.212804">
        <ele>438.913</ele>
        <time>2019-06-22T20:16:14Z</time>
      </trkpt>
      <trkpt lat="39.362878" lon="-6.212590">
        <ele>440.125</ele>
        <time>2019-06-22T20:16:15Z</time>
      </trkpt>
      <trkpt lat="39.362738" lon="-6.212388">
        <ele>442.257</ele>
        <time>2019-06-22T20:16:16Z</time>
      </trkpt>
      <trkpt lat="39.362619" lon="-6.212200">
        <ele>443.035</ele>
        <time>2019-06-22T20:16:17Z</time>
      </trkpt>
      <trkpt lat="39.362489" lon="-6.212008">
        <ele>443.024</ele>
        <time>2019-06-22T20:16:18Z</time>
      </trkpt>
      <trkpt lat="39.362374" lon="-6.211836">
        <ele>442.539</ele>
        <time>2019-06-22T20:16:19Z</time>
      </trkpt>
      <trkpt lat="39.362262" lon="-6.211671">
        <ele>442.092</ele>
        <time>2019-06-22T20:16:20Z</time>
      </trkpt>
      <trkpt lat="39.362151" lon="-6.211511">
        <ele>441.426</ele>
        <time>2019-06-22T20:16:21Z</time>
      </trkpt>
      <trkpt lat="39.362050" lon="-6.211361">
        <ele>441.447</ele>
        <time>2019-06-22T20:16:22Z</time>
      </trkpt>
      <trkpt lat="39.361953" lon="-6.211217">
        <ele>441.511</ele>
        <time>2019-06-22T20:16:23Z</time>
      </trkpt>
      <trkpt lat="39.361861" lon="-6.211073">
        <ele>442.408</ele>
        <time>2019-06-22T20:16:24Z</time>
      </trkpt>
      <trkpt lat="39.361778" lon="-6.210932">
        <ele>443.415</ele>
        <time>2019-06-22T20:16:25Z</time>
      </trkpt>
      <trkpt lat="39.361696" lon="-6.210823">
        <ele>444.789</ele>
        <time>2019-06-22T20:16:26Z</time>
      </trkpt>
      <trkpt lat="39.361622" lon="-6.210746">
        <ele>445.791</ele>
        <time>2019-06-22T20:16:27Z</time>
      </trkpt>
      <trkpt lat="39.361541" lon="-6.210690">
        <ele>446.643</ele>
        <time>2019-06-22T20:16:28Z</time>
      </trkpt>
      <trkpt lat="39.361455" lon="-6.210643">
        <ele>447.431</ele>
        <time>2019-06-22T20:16:29Z</time>
      </trkpt>
      <trkpt lat="39.361367" lon="-6.210580">
        <ele>448.130</ele>
        <time>2019-06-22T20:16:30Z</time>
      </trkpt>
      <trkpt lat="39.361297" lon="-6.210520">
        <ele>449.345</ele>
        <time>2019-06-22T20:16:31Z</time>
      </trkpt>
      <trkpt lat="39.361242" lon="-6.210449">
        <ele>450.518</ele>
        <time>2019-06-22T20:16:32Z</time>
      </trkpt>
      <trkpt lat="39.361213" lon="-6.210350">
        <ele>451.382</ele>
        <time>2019-06-22T20:16:33Z</time>
      </trkpt>
      <trkpt lat="39.361188" lon="-6.210231">
        <ele>452.343</ele>
        <time>2019-06-22T20:16:34Z</time>
      </trkpt>
      <trkpt lat="39.361167" lon="-6.210080">
        <ele>453.117</ele>
        <time>2019-06-22T20:16:35Z</time>
      </trkpt>
      <trkpt lat="39.361121" lon="-6.209944">
        <ele>453.108</ele>
        <time>2019-06-22T20:16:36Z</time>
      </trkpt>
      <trkpt lat="39.361050" lon="-6.209809">
        <ele>452.961</ele>
        <time>2019-06-22T20:16:37Z</time>
      </trkpt>
      <trkpt lat="39.360963" lon="-6.209680">
        <ele>452.565</ele>
        <time>2019-06-22T20:16:38Z</time>
      </trkpt>
      <trkpt lat="39.360872" lon="-6.209549">
        <ele>452.137</ele>
        <time>2019-06-22T20:16:39Z</time>
      </trkpt>
      <trkpt lat="39.360753" lon="-6.209381">
        <ele>452.059</ele>
        <time>2019-06-22T20:16:40Z</time>
      </trkpt>
      <trkpt lat="39.360638" lon="-6.209228">
        <ele>451.937</ele>
        <time>2019-06-22T20:16:41Z</time>
      </trkpt>
      <trkpt lat="39.360522" lon="-6.209060">
        <ele>451.896</ele>
        <time>2019-06-22T20:16:42Z</time>
      </trkpt>
      <trkpt lat="39.360397" lon="-6.208830">
        <ele>451.631</ele>
        <time>2019-06-22T20:16:43Z</time>
      </trkpt>
      <trkpt lat="39.360265" lon="-6.208625">
        <ele>451.114</ele>
        <time>2019-06-22T20:16:44Z</time>
      </trkpt>
      <trkpt lat="39.360129" lon="-6.208427">
        <ele>450.239</ele>
        <time>2019-06-22T20:16:45Z</time>
      </trkpt>
      <trkpt lat="39.359993" lon="-6.208218">
        <ele>449.201</ele>
        <time>2019-06-22T20:16:46Z</time>
      </trkpt>
      <trkpt lat="39.359853" lon="-6.208004">
        <ele>448.421</ele>
        <time>2019-06-22T20:16:47Z</time>
      </trkpt>
      <trkpt lat="39.359702" lon="-6.207782">
        <ele>448.408</ele>
        <time>2019-06-22T20:16:48Z</time>
      </trkpt>
      <trkpt lat="39.359558" lon="-6.207564">
        <ele>447.686</ele>
        <time>2019-06-22T20:16:49Z</time>
      </trkpt>
      <trkpt lat="39.359410" lon="-6.207349">
        <ele>446.720</ele>
        <time>2019-06-22T20:16:50Z</time>
      </trkpt>
      <trkpt lat="39.359270" lon="-6.207136">
        <ele>446.182</ele>
        <time>2019-06-22T20:16:51Z</time>
      </trkpt>
      <trkpt lat="39.359124" lon="-6.206913">
        <ele>445.754</ele>
        <time>2019-06-22T20:16:52Z</time>
      </trkpt>
      <trkpt lat="39.358976" lon="-6.206694">
        <ele>445.442</ele>
        <time>2019-06-22T20:16:53Z</time>
      </trkpt>
      <trkpt lat="39.358835" lon="-6.206482">
        <ele>445.431</ele>
        <time>2019-06-22T20:16:54Z</time>
      </trkpt>
      <trkpt lat="39.358700" lon="-6.206271">
        <ele>445.426</ele>
        <time>2019-06-22T20:16:55Z</time>
      </trkpt>
      <trkpt lat="39.358576" lon="-6.206061">
        <ele>445.969</ele>
        <time>2019-06-22T20:16:56Z</time>
      </trkpt>
      <trkpt lat="39.358457" lon="-6.205846">
        <ele>446.617</ele>
        <time>2019-06-22T20:16:57Z</time>
      </trkpt>
      <trkpt lat="39.358340" lon="-6.205617">
        <ele>447.487</ele>
        <time>2019-06-22T20:16:58Z</time>
      </trkpt>
      <trkpt lat="39.358227" lon="-6.205378">
        <ele>448.115</ele>
        <time>2019-06-22T20:16:59Z</time>
      </trkpt>
      <trkpt lat="39.358115" lon="-6.205120">
        <ele>448.908</ele>
        <time>2019-06-22T20:17:00Z</time>
      </trkpt>
      <trkpt lat="39.357999" lon="-6.204847">
        <ele>449.264</ele>
        <time>2019-06-22T20:17:01Z</time>
      </trkpt>
      <trkpt lat="39.357889" lon="-6.204565">
        <ele>449.228</ele>
        <time>2019-06-22T20:17:02Z</time>
      </trkpt>
      <trkpt lat="39.357778" lon="-6.204282">
        <ele>448.920</ele>
        <time>2019-06-22T20:17:03Z</time>
      </trkpt>
      <trkpt lat="39.357666" lon="-6.203997">
        <ele>447.832</ele>
        <time>2019-06-22T20:17:04Z</time>
      </trkpt>
      <trkpt lat="39.357556" lon="-6.203711">
        <ele>447.120</ele>
        <time>2019-06-22T20:17:05Z</time>
      </trkpt>
      <trkpt lat="39.357443" lon="-6.203424">
        <ele>446.339</ele>
        <time>2019-06-22T20:17:06Z</time>
      </trkpt>
      <trkpt lat="39.357332" lon="-6.203122">
        <ele>445.414</ele>
        <time>2019-06-22T20:17:07Z</time>
      </trkpt>
      <trkpt lat="39.357218" lon="-6.202825">
        <ele>444.487</ele>
        <time>2019-06-22T20:17:08Z</time>
      </trkpt>
      <trkpt lat="39.357103" lon="-6.202525">
        <ele>444.175</ele>
        <time>2019-06-22T20:17:09Z</time>
      </trkpt>
      <trkpt lat="39.356989" lon="-6.202218">
        <ele>443.828</ele>
        <time>2019-06-22T20:17:10Z</time>
      </trkpt>
      <trkpt lat="39.356874" lon="-6.201911">
        <ele>443.520</ele>
        <time>2019-06-22T20:17:11Z</time>
      </trkpt>
      <trkpt lat="39.356762" lon="-6.201602">
        <ele>443.508</ele>
        <time>2019-06-22T20:17:12Z</time>
      </trkpt>
      <trkpt lat="39.356648" lon="-6.201297">
        <ele>443.690</ele>
        <time>2019-06-22T20:17:13Z</time>
      </trkpt>
      <trkpt lat="39.356532" lon="-6.200990">
        <ele>444.064</ele>
        <time>2019-06-22T20:17:14Z</time>
      </trkpt>
      <trkpt lat="39.356415" lon="-6.200685">
        <ele>444.586</ele>
        <time>2019-06-22T20:17:15Z</time>
      </trkpt>
      <trkpt lat="39.356298" lon="-6.200373">
        <ele>444.928</ele>
        <time>2019-06-22T20:17:16Z</time>
      </trkpt>
      <trkpt lat="39.356182" lon="-6.200065">
        <ele>444.996</ele>
        <time>2019-06-22T20:17:17Z</time>
      </trkpt>
      <trkpt lat="39.356066" lon="-6.199758">
        <ele>444.815</ele>
        <time>2019-06-22T20:17:18Z</time>
      </trkpt>
      <trkpt lat="39.355948" lon="-6.199464">
        <ele>444.740</ele>
        <time>2019-06-22T20:17:19Z</time>
      </trkpt>
      <trkpt lat="39.355833" lon="-6.199155">
        <ele>444.543</ele>
        <time>2019-06-22T20:17:20Z</time>
      </trkpt>
      <trkpt lat="39.355733" lon="-6.198891">
        <ele>444.436</ele>
        <time>2019-06-22T20:17:21Z</time>
      </trkpt>
      <trkpt lat="39.355615" lon="-6.198572">
        <ele>444.417</ele>
        <time>2019-06-22T20:17:22Z</time>
      </trkpt>
      <trkpt lat="39.355501" lon="-6.198260">
        <ele>444.518</ele>
        <time>2019-06-22T20:17:23Z</time>
      </trkpt>
      <trkpt lat="39.355384" lon="-6.197949">
        <ele>444.508</ele>
        <time>2019-06-22T20:17:24Z</time>
      </trkpt>
      <trkpt lat="39.355270" lon="-6.197641">
        <ele>444.356</ele>
        <time>2019-06-22T20:17:25Z</time>
      </trkpt>
      <trkpt lat="39.355155" lon="-6.197333">
        <ele>443.970</ele>
        <time>2019-06-22T20:17:26Z</time>
      </trkpt>
      <trkpt lat="39.355039" lon="-6.197032">
        <ele>443.722</ele>
        <time>2019-06-22T20:17:27Z</time>
      </trkpt>
      <trkpt lat="39.354920" lon="-6.196726">
        <ele>443.344</ele>
        <time>2019-06-22T20:17:28Z</time>
      </trkpt>
      <trkpt lat="39.354805" lon="-6.196423">
        <ele>442.682</ele>
        <time>2019-06-22T20:17:29Z</time>
      </trkpt>
      <trkpt lat="39.354690" lon="-6.196121">
        <ele>441.861</ele>
        <time>2019-06-22T20:17:30Z</time>
      </trkpt>
      <trkpt lat="39.354570" lon="-6.195821">
        <ele>441.336</ele>
        <time>2019-06-22T20:17:31Z</time>
      </trkpt>
      <trkpt lat="39.354454" lon="-6.195519">
        <ele>440.839</ele>
        <time>2019-06-22T20:17:32Z</time>
      </trkpt>
      <trkpt lat="39.354338" lon="-6.195211">
        <ele>440.254</ele>
        <time>2019-06-22T20:17:33Z</time>
      </trkpt>
      <trkpt lat="39.354218" lon="-6.194893">
        <ele>439.456</ele>
        <time>2019-06-22T20:17:34Z</time>
      </trkpt>
      <trkpt lat="39.354097" lon="-6.194562">
        <ele>439.111</ele>
        <time>2019-06-22T20:17:35Z</time>
      </trkpt>
      <trkpt lat="39.353971" lon="-6.194244">
        <ele>438.708</ele>
        <time>2019-06-22T20:17:36Z</time>
      </trkpt>
      <trkpt lat="39.353854" lon="-6.193937">
        <ele>438.058</ele>
        <time>2019-06-22T20:17:37Z</time>
      </trkpt>
      <trkpt lat="39.353730" lon="-6.193619">
        <ele>437.642</ele>
        <time>2019-06-22T20:17:38Z</time>
      </trkpt>
      <trkpt lat="39.353612" lon="-6.193303">
        <ele>437.344</ele>
        <time>2019-06-22T20:17:39Z</time>
      </trkpt>
      <trkpt lat="39.353491" lon="-6.192988">
        <ele>437.146</ele>
        <time>2019-06-22T20:17:40Z</time>
      </trkpt>
      <trkpt lat="39.353361" lon="-6.192671">
        <ele>437.194</ele>
        <time>2019-06-22T20:17:41Z</time>
      </trkpt>
      <trkpt lat="39.353219" lon="-6.192357">
        <ele>437.113</ele>
        <time>2019-06-22T20:17:42Z</time>
      </trkpt>
      <trkpt lat="39.353129" lon="-6.192053">
        <ele>437.938</ele>
        <time>2019-06-22T20:17:43Z</time>
      </trkpt>
      <trkpt lat="39.353014" lon="-6.191743">
        <ele>439.291</ele>
        <time>2019-06-22T20:17:44Z</time>
      </trkpt>
      <trkpt lat="39.352900" lon="-6.191437">
        <ele>440.792</ele>
        <time>2019-06-22T20:17:45Z</time>
      </trkpt>
      <trkpt lat="39.352783" lon="-6.191128">
        <ele>442.673</ele>
        <time>2019-06-22T20:17:46Z</time>
      </trkpt>
      <trkpt lat="39.352668" lon="-6.190822">
        <ele>443.820</ele>
        <time>2019-06-22T20:17:47Z</time>
      </trkpt>
      <trkpt lat="39.352555" lon="-6.190527">
        <ele>444.808</ele>
        <time>2019-06-22T20:17:48Z</time>
      </trkpt>
      <trkpt lat="39.352442" lon="-6.190226">
        <ele>445.012</ele>
        <time>2019-06-22T20:17:49Z</time>
      </trkpt>
      <trkpt lat="39.352332" lon="-6.189923">
        <ele>445.746</ele>
        <time>2019-06-22T20:17:50Z</time>
      </trkpt>
      <trkpt lat="39.352219" lon="-6.189618">
        <ele>445.828</ele>
        <time>2019-06-22T20:17:51Z</time>
      </trkpt>
      <trkpt lat="39.352106" lon="-6.189312">
        <ele>446.640</ele>
        <time>2019-06-22T20:17:52Z</time>
      </trkpt>
      <trkpt lat="39.351991" lon="-6.189014">
        <ele>446.658</ele>
        <time>2019-06-22T20:17:53Z</time>
      </trkpt>
      <trkpt lat="39.351883" lon="-6.188719">
        <ele>447.667</ele>
        <time>2019-06-22T20:17:54Z</time>
      </trkpt>
      <trkpt lat="39.351773" lon="-6.188419">
        <ele>448.432</ele>
        <time>2019-06-22T20:17:55Z</time>
      </trkpt>
      <trkpt lat="39.351660" lon="-6.188120">
        <ele>449.275</ele>
        <time>2019-06-22T20:17:56Z</time>
      </trkpt>
      <trkpt lat="39.351538" lon="-6.187801">
        <ele>449.739</ele>
        <time>2019-06-22T20:17:57Z</time>
      </trkpt>
      <trkpt lat="39.351415" lon="-6.187489">
        <ele>450.301</ele>
        <time>2019-06-22T20:17:58Z</time>
      </trkpt>
      <trkpt lat="39.351302" lon="-6.187192">
        <ele>450.421</ele>
        <time>2019-06-22T20:17:59Z</time>
      </trkpt>
      <trkpt lat="39.351186" lon="-6.186889">
        <ele>450.608</ele>
        <time>2019-06-22T20:18:00Z</time>
      </trkpt>
      <trkpt lat="39.351074" lon="-6.186584">
        <ele>450.876</ele>
        <time>2019-06-22T20:18:01Z</time>
      </trkpt>
      <trkpt lat="39.350963" lon="-6.186280">
        <ele>451.050</ele>
        <time>2019-06-22T20:18:02Z</time>
      </trkpt>
      <trkpt lat="39.350846" lon="-6.185988">
        <ele>451.132</ele>
        <time>2019-06-22T20:18:03Z</time>
      </trkpt>
      <trkpt lat="39.350729" lon="-6.185718">
        <ele>451.484</ele>
        <time>2019-06-22T20:18:04Z</time>
      </trkpt>
      <trkpt lat="39.350623" lon="-6.185430">
        <ele>451.712</ele>
        <time>2019-06-22T20:18:05Z</time>
      </trkpt>
      <trkpt lat="39.350514" lon="-6.185142">
        <ele>452.161</ele>
        <time>2019-06-22T20:18:06Z</time>
      </trkpt>
      <trkpt lat="39.350406" lon="-6.184849">
        <ele>452.626</ele>
        <time>2019-06-22T20:18:07Z</time>
      </trkpt>
      <trkpt lat="39.350288" lon="-6.184549">
        <ele>453.349</ele>
        <time>2019-06-22T20:18:08Z</time>
      </trkpt>
      <trkpt lat="39.350179" lon="-6.184255">
        <ele>453.525</ele>
        <time>2019-06-22T20:18:09Z</time>
      </trkpt>
      <trkpt lat="39.350066" lon="-6.183965">
        <ele>453.526</ele>
        <time>2019-06-22T20:18:10Z</time>
      </trkpt>
      <trkpt lat="39.349957" lon="-6.183674">
        <ele>453.408</ele>
        <time>2019-06-22T20:18:11Z</time>
      </trkpt>
      <trkpt lat="39.349846" lon="-6.183379">
        <ele>453.208</ele>
        <time>2019-06-22T20:18:12Z</time>
      </trkpt>
      <trkpt lat="39.349734" lon="-6.183085">
        <ele>452.895</ele>
        <time>2019-06-22T20:18:13Z</time>
      </trkpt>
      <trkpt lat="39.349620" lon="-6.182792">
        <ele>452.069</ele>
        <time>2019-06-22T20:18:14Z</time>
      </trkpt>
      <trkpt lat="39.349504" lon="-6.182499">
        <ele>451.381</ele>
        <time>2019-06-22T20:18:15Z</time>
      </trkpt>
      <trkpt lat="39.349390" lon="-6.182201">
        <ele>450.593</ele>
        <time>2019-06-22T20:18:16Z</time>
      </trkpt>
      <trkpt lat="39.349294" lon="-6.181960">
        <ele>449.041</ele>
        <time>2019-06-22T20:18:17Z</time>
      </trkpt>
      <trkpt lat="39.349202" lon="-6.181699">
        <ele>447.460</ele>
        <time>2019-06-22T20:18:18Z</time>
      </trkpt>
      <trkpt lat="39.349108" lon="-6.181455">
        <ele>446.385</ele>
        <time>2019-06-22T20:18:19Z</time>
      </trkpt>
      <trkpt lat="39.349019" lon="-6.181217">
        <ele>445.288</ele>
        <time>2019-06-22T20:18:20Z</time>
      </trkpt>
      <trkpt lat="39.348936" lon="-6.180992">
        <ele>444.012</ele>
        <time>2019-06-22T20:18:21Z</time>
      </trkpt>
      <trkpt lat="39.348855" lon="-6.180761">
        <ele>444.032</ele>
        <time>2019-06-22T20:18:22Z</time>
      </trkpt>
      <trkpt lat="39.348781" lon="-6.180527">
        <ele>445.405</ele>
        <time>2019-06-22T20:18:23Z</time>
      </trkpt>
      <trkpt lat="39.348710" lon="-6.180284">
        <ele>446.508</ele>
        <time>2019-06-22T20:18:24Z</time>
      </trkpt>
      <trkpt lat="39.348654" lon="-6.180022">
        <ele>447.834</ele>
        <time>2019-06-22T20:18:25Z</time>
      </trkpt>
      <trkpt lat="39.348608" lon="-6.179759">
        <ele>449.338</ele>
        <time>2019-06-22T20:18:26Z</time>
      </trkpt>
      <trkpt lat="39.348579" lon="-6.179489">
        <ele>450.730</ele>
        <time>2019-06-22T20:18:27Z</time>
      </trkpt>
      <trkpt lat="39.348562" lon="-6.179213">
        <ele>450.792</ele>
        <time>2019-06-22T20:18:28Z</time>
      </trkpt>
      <trkpt lat="39.348551" lon="-6.178909">
        <ele>450.680</ele>
        <time>2019-06-22T20:18:29Z</time>
      </trkpt>
      <trkpt lat="39.348555" lon="-6.178613">
        <ele>450.269</ele>
        <time>2019-06-22T20:18:30Z</time>
      </trkpt>
      <trkpt lat="39.348577" lon="-6.178317">
        <ele>450.224</ele>
        <time>2019-06-22T20:18:31Z</time>
      </trkpt>
      <trkpt lat="39.348619" lon="-6.178027">
        <ele>449.927</ele>
        <time>2019-06-22T20:18:32Z</time>
      </trkpt>
      <trkpt lat="39.348688" lon="-6.177748">
        <ele>449.914</ele>
        <time>2019-06-22T20:18:33Z</time>
      </trkpt>
      <trkpt lat="39.348772" lon="-6.177460">
        <ele>450.154</ele>
        <time>2019-06-22T20:18:34Z</time>
      </trkpt>
      <trkpt lat="39.348862" lon="-6.177177">
        <ele>450.809</ele>
        <time>2019-06-22T20:18:35Z</time>
      </trkpt>
      <trkpt lat="39.348962" lon="-6.176889">
        <ele>451.808</ele>
        <time>2019-06-22T20:18:36Z</time>
      </trkpt>
      <trkpt lat="39.349068" lon="-6.176611">
        <ele>452.864</ele>
        <time>2019-06-22T20:18:37Z</time>
      </trkpt>
      <trkpt lat="39.349174" lon="-6.176335">
        <ele>454.398</ele>
        <time>2019-06-22T20:18:38Z</time>
      </trkpt>
      <trkpt lat="39.349267" lon="-6.176042">
        <ele>455.240</ele>
        <time>2019-06-22T20:18:39Z</time>
      </trkpt>
      <trkpt lat="39.349349" lon="-6.175742">
        <ele>455.662</ele>
        <time>2019-06-22T20:18:40Z</time>
      </trkpt>
      <trkpt lat="39.349415" lon="-6.175448">
        <ele>455.670</ele>
        <time>2019-06-22T20:18:41Z</time>
      </trkpt>
      <trkpt lat="39.349455" lon="-6.175150">
        <ele>454.789</ele>
        <time>2019-06-22T20:18:42Z</time>
      </trkpt>
      <trkpt lat="39.349501" lon="-6.174872">
        <ele>453.674</ele>
        <time>2019-06-22T20:18:43Z</time>
      </trkpt>
      <trkpt lat="39.349537" lon="-6.174595">
        <ele>452.677</ele>
        <time>2019-06-22T20:18:44Z</time>
      </trkpt>
      <trkpt lat="39.349569" lon="-6.174328">
        <ele>451.974</ele>
        <time>2019-06-22T20:18:45Z</time>
      </trkpt>
      <trkpt lat="39.349595" lon="-6.174066">
        <ele>451.856</ele>
        <time>2019-06-22T20:18:46Z</time>
      </trkpt>
      <trkpt lat="39.349623" lon="-6.173816">
        <ele>451.821</ele>
        <time>2019-06-22T20:18:47Z</time>
      </trkpt>
      <trkpt lat="39.349632" lon="-6.173564">
        <ele>451.908</ele>
        <time>2019-06-22T20:18:48Z</time>
      </trkpt>
      <trkpt lat="39.349636" lon="-6.173321">
        <ele>451.930</ele>
        <time>2019-06-22T20:18:49Z</time>
      </trkpt>
      <trkpt lat="39.349628" lon="-6.173087">
        <ele>451.964</ele>
        <time>2019-06-22T20:18:50Z</time>
      </trkpt>
      <trkpt lat="39.349614" lon="-6.172858">
        <ele>451.856</ele>
        <time>2019-06-22T20:18:51Z</time>
      </trkpt>
      <trkpt lat="39.349592" lon="-6.172650">
        <ele>451.878</ele>
        <time>2019-06-22T20:18:52Z</time>
      </trkpt>
      <trkpt lat="39.349566" lon="-6.172460">
        <ele>452.336</ele>
        <time>2019-06-22T20:18:53Z</time>
      </trkpt>
      <trkpt lat="39.349543" lon="-6.172293">
        <ele>453.475</ele>
        <time>2019-06-22T20:18:54Z</time>
      </trkpt>
      <trkpt lat="39.349527" lon="-6.172145">
        <ele>454.830</ele>
        <time>2019-06-22T20:18:55Z</time>
      </trkpt>
      <trkpt lat="39.349502" lon="-6.172020">
        <ele>456.513</ele>
        <time>2019-06-22T20:18:56Z</time>
      </trkpt>
      <trkpt lat="39.349479" lon="-6.171901">
        <ele>458.043</ele>
        <time>2019-06-22T20:18:57Z</time>
      </trkpt>
      <trkpt lat="39.349466" lon="-6.171801">
        <ele>458.064</ele>
        <time>2019-06-22T20:18:58Z</time>
      </trkpt>
      <trkpt lat="39.349459" lon="-6.171720">
        <ele>458.910</ele>
        <time>2019-06-22T20:18:59Z</time>
      </trkpt>
      <trkpt lat="39.349447" lon="-6.171640">
        <ele>459.308</ele>
        <time>2019-06-22T20:19:00Z</time>
      </trkpt>
      <trkpt lat="39.349445" lon="-6.171554">
        <ele>459.857</ele>
        <time>2019-06-22T20:19:01Z</time>
      </trkpt>
      <trkpt lat="39.349427" lon="-6.171471">
        <ele>460.071</ele>
        <time>2019-06-22T20:19:02Z</time>
      </trkpt>
      <trkpt lat="39.349416" lon="-6.171384">
        <ele>460.353</ele>
        <time>2019-06-22T20:19:03Z</time>
      </trkpt>
      <trkpt lat="39.349407" lon="-6.171281">
        <ele>460.445</ele>
        <time>2019-06-22T20:19:04Z</time>
      </trkpt>
      <trkpt lat="39.349387" lon="-6.171160">
        <ele>460.453</ele>
        <time>2019-06-22T20:19:05Z</time>
      </trkpt>
      <trkpt lat="39.349361" lon="-6.171022">
        <ele>460.462</ele>
        <time>2019-06-22T20:19:06Z</time>
      </trkpt>
      <trkpt lat="39.349341" lon="-6.170884">
        <ele>460.457</ele>
        <time>2019-06-22T20:19:07Z</time>
      </trkpt>
      <trkpt lat="39.349313" lon="-6.170755">
        <ele>460.480</ele>
        <time>2019-06-22T20:19:08Z</time>
      </trkpt>
      <trkpt lat="39.349280" lon="-6.170613">
        <ele>460.354</ele>
        <time>2019-06-22T20:19:09Z</time>
      </trkpt>
      <trkpt lat="39.349244" lon="-6.170481">
        <ele>460.156</ele>
        <time>2019-06-22T20:19:10Z</time>
      </trkpt>
      <trkpt lat="39.349197" lon="-6.170349">
        <ele>459.811</ele>
        <time>2019-06-22T20:19:11Z</time>
      </trkpt>
      <trkpt lat="39.349146" lon="-6.170223">
        <ele>459.508</ele>
        <time>2019-06-22T20:19:12Z</time>
      </trkpt>
      <trkpt lat="39.349087" lon="-6.170099">
        <ele>459.178</ele>
        <time>2019-06-22T20:19:13Z</time>
      </trkpt>
      <trkpt lat="39.349020" lon="-6.169980">
        <ele>458.582</ele>
        <time>2019-06-22T20:19:14Z</time>
      </trkpt>
      <trkpt lat="39.348947" lon="-6.169866">
        <ele>458.114</ele>
        <time>2019-06-22T20:19:15Z</time>
      </trkpt>
      <trkpt lat="39.348868" lon="-6.169757">
        <ele>457.746</ele>
        <time>2019-06-22T20:19:16Z</time>
      </trkpt>
      <trkpt lat="39.348795" lon="-6.169664">
        <ele>457.624</ele>
        <time>2019-06-22T20:19:17Z</time>
      </trkpt>
      <trkpt lat="39.348722" lon="-6.169577">
        <ele>457.183</ele>
        <time>2019-06-22T20:19:18Z</time>
      </trkpt>
      <trkpt lat="39.348649" lon="-6.169482">
        <ele>457.178</ele>
        <time>2019-06-22T20:19:19Z</time>
      </trkpt>
      <trkpt lat="39.348579" lon="-6.169395">
        <ele>457.071</ele>
        <time>2019-06-22T20:19:20Z</time>
      </trkpt>
      <trkpt lat="39.348507" lon="-6.169295">
        <ele>456.936</ele>
        <time>2019-06-22T20:19:21Z</time>
      </trkpt>
      <trkpt lat="39.348434" lon="-6.169211">
        <ele>456.617</ele>
        <time>2019-06-22T20:19:22Z</time>
      </trkpt>
      <trkpt lat="39.348375" lon="-6.169137">
        <ele>456.518</ele>
        <time>2019-06-22T20:19:23Z</time>
      </trkpt>
      <trkpt lat="39.348322" lon="-6.169074">
        <ele>456.508</ele>
        <time>2019-06-22T20:19:24Z</time>
      </trkpt>
      <trkpt lat="39.348276" lon="-6.169013">
        <ele>456.426</ele>
        <time>2019-06-22T20:19:25Z</time>
      </trkpt>
      <trkpt lat="39.348252" lon="-6.168950">
        <ele>456.480</ele>
        <time>2019-06-22T20:19:26Z</time>
      </trkpt>
      <trkpt lat="39.348249" lon="-6.168891">
        <ele>456.552</ele>
        <time>2019-06-22T20:19:27Z</time>
      </trkpt>
      <trkpt lat="39.348266" lon="-6.168836">
        <ele>456.674</ele>
        <time>2019-06-22T20:19:28Z</time>
      </trkpt>
      <trkpt lat="39.348333" lon="-6.168740">
        <ele>456.742</ele>
        <time>2019-06-22T20:19:30Z</time>
      </trkpt>
      <trkpt lat="39.348386" lon="-6.168656">
        <ele>456.711</ele>
        <time>2019-06-22T20:19:31Z</time>
      </trkpt>
      <trkpt lat="39.348445" lon="-6.168557">
        <ele>456.796</ele>
        <time>2019-06-22T20:19:32Z</time>
      </trkpt>
      <trkpt lat="39.348512" lon="-6.168446">
        <ele>456.769</ele>
        <time>2019-06-22T20:19:33Z</time>
      </trkpt>
      <trkpt lat="39.348587" lon="-6.168321">
        <ele>456.764</ele>
        <time>2019-06-22T20:19:34Z</time>
      </trkpt>
      <trkpt lat="39.348670" lon="-6.168179">
        <ele>456.606</ele>
        <time>2019-06-22T20:19:35Z</time>
      </trkpt>
      <trkpt lat="39.348759" lon="-6.168017">
        <ele>456.516</ele>
        <time>2019-06-22T20:19:36Z</time>
      </trkpt>
      <trkpt lat="39.348845" lon="-6.167857">
        <ele>456.508</ele>
        <time>2019-06-22T20:19:37Z</time>
      </trkpt>
      <trkpt lat="39.348941" lon="-6.167695">
        <ele>456.569</ele>
        <time>2019-06-22T20:19:38Z</time>
      </trkpt>
      <trkpt lat="39.349039" lon="-6.167527">
        <ele>456.583</ele>
        <time>2019-06-22T20:19:39Z</time>
      </trkpt>
      <trkpt lat="39.349142" lon="-6.167352">
        <ele>456.615</ele>
        <time>2019-06-22T20:19:40Z</time>
      </trkpt>
      <trkpt lat="39.349248" lon="-6.167169">
        <ele>456.927</ele>
        <time>2019-06-22T20:19:41Z</time>
      </trkpt>
      <trkpt lat="39.349363" lon="-6.166983">
        <ele>457.315</ele>
        <time>2019-06-22T20:19:42Z</time>
      </trkpt>
      <trkpt lat="39.349479" lon="-6.166794">
        <ele>457.584</ele>
        <time>2019-06-22T20:19:43Z</time>
      </trkpt>
      <trkpt lat="39.349598" lon="-6.166604">
        <ele>457.929</ele>
        <time>2019-06-22T20:19:44Z</time>
      </trkpt>
      <trkpt lat="39.349729" lon="-6.166405">
        <ele>458.222</ele>
        <time>2019-06-22T20:19:45Z</time>
      </trkpt>
      <trkpt lat="39.349864" lon="-6.166208">
        <ele>458.379</ele>
        <time>2019-06-22T20:19:46Z</time>
      </trkpt>
      <trkpt lat="39.350001" lon="-6.166012">
        <ele>458.305</ele>
        <time>2019-06-22T20:19:47Z</time>
      </trkpt>
      <trkpt lat="39.350140" lon="-6.165816">
        <ele>458.325</ele>
        <time>2019-06-22T20:19:48Z</time>
      </trkpt>
      <trkpt lat="39.350283" lon="-6.165610">
        <ele>458.708</ele>
        <time>2019-06-22T20:19:49Z</time>
      </trkpt>
      <trkpt lat="39.350427" lon="-6.165400">
        <ele>459.140</ele>
        <time>2019-06-22T20:19:50Z</time>
      </trkpt>
      <trkpt lat="39.350572" lon="-6.165175">
        <ele>459.774</ele>
        <time>2019-06-22T20:19:51Z</time>
      </trkpt>
      <trkpt lat="39.350710" lon="-6.164938">
        <ele>460.016</ele>
        <time>2019-06-22T20:19:52Z</time>
      </trkpt>
      <trkpt lat="39.350848" lon="-6.164695">
        <ele>460.598</ele>
        <time>2019-06-22T20:19:53Z</time>
      </trkpt>
      <trkpt lat="39.350994" lon="-6.164437">
        <ele>460.996</ele>
        <time>2019-06-22T20:19:54Z</time>
      </trkpt>
      <trkpt lat="39.351130" lon="-6.164186">
        <ele>461.365</ele>
        <time>2019-06-22T20:19:55Z</time>
      </trkpt>
      <trkpt lat="39.351273" lon="-6.163929">
        <ele>461.920</ele>
        <time>2019-06-22T20:19:56Z</time>
      </trkpt>
      <trkpt lat="39.351413" lon="-6.163682">
        <ele>462.523</ele>
        <time>2019-06-22T20:19:57Z</time>
      </trkpt>
      <trkpt lat="39.351553" lon="-6.163424">
        <ele>463.376</ele>
        <time>2019-06-22T20:19:58Z</time>
      </trkpt>
      <trkpt lat="39.351696" lon="-6.163172">
        <ele>463.790</ele>
        <time>2019-06-22T20:19:59Z</time>
      </trkpt>
      <trkpt lat="39.351834" lon="-6.162911">
        <ele>464.119</ele>
        <time>2019-06-22T20:20:00Z</time>
      </trkpt>
      <trkpt lat="39.351972" lon="-6.162657">
        <ele>464.508</ele>
        <time>2019-06-22T20:20:01Z</time>
      </trkpt>
      <trkpt lat="39.352116" lon="-6.162416">
        <ele>464.520</ele>
        <time>2019-06-22T20:20:02Z</time>
      </trkpt>
      <trkpt lat="39.352256" lon="-6.162166">
        <ele>465.074</ele>
        <time>2019-06-22T20:20:03Z</time>
      </trkpt>
      <trkpt lat="39.352384" lon="-6.161918">
        <ele>465.556</ele>
        <time>2019-06-22T20:20:04Z</time>
      </trkpt>
      <trkpt lat="39.352514" lon="-6.161682">
        <ele>466.068</ele>
        <time>2019-06-22T20:20:05Z</time>
      </trkpt>
      <trkpt lat="39.352633" lon="-6.161460">
        <ele>467.466</ele>
        <time>2019-06-22T20:20:06Z</time>
      </trkpt>
      <trkpt lat="39.352751" lon="-6.161237">
        <ele>467.495</ele>
        <time>2019-06-22T20:20:07Z</time>
      </trkpt>
      <trkpt lat="39.352891" lon="-6.161027">
        <ele>468.140</ele>
        <time>2019-06-22T20:20:08Z</time>
      </trkpt>
      <trkpt lat="39.353033" lon="-6.160805">
        <ele>468.953</ele>
        <time>2019-06-22T20:20:09Z</time>
      </trkpt>
      <trkpt lat="39.353193" lon="-6.160615">
        <ele>469.843</ele>
        <time>2019-06-22T20:20:10Z</time>
      </trkpt>
      <trkpt lat="39.353364" lon="-6.160405">
        <ele>470.564</ele>
        <time>2019-06-22T20:20:11Z</time>
      </trkpt>
      <trkpt lat="39.353533" lon="-6.160203">
        <ele>471.310</ele>
        <time>2019-06-22T20:20:12Z</time>
      </trkpt>
      <trkpt lat="39.353700" lon="-6.160016">
        <ele>472.108</ele>
        <time>2019-06-22T20:20:13Z</time>
      </trkpt>
      <trkpt lat="39.353870" lon="-6.159824">
        <ele>472.727</ele>
        <time>2019-06-22T20:20:14Z</time>
      </trkpt>
      <trkpt lat="39.354033" lon="-6.159636">
        <ele>473.561</ele>
        <time>2019-06-22T20:20:15Z</time>
      </trkpt>
      <trkpt lat="39.354187" lon="-6.159486">
        <ele>474.253</ele>
        <time>2019-06-22T20:20:16Z</time>
      </trkpt>
      <trkpt lat="39.354354" lon="-6.159346">
        <ele>475.115</ele>
        <time>2019-06-22T20:20:17Z</time>
      </trkpt>
      <trkpt lat="39.354510" lon="-6.159216">
        <ele>476.163</ele>
        <time>2019-06-22T20:20:18Z</time>
      </trkpt>
      <trkpt lat="39.354663" lon="-6.159102">
        <ele>477.142</ele>
        <time>2019-06-22T20:20:19Z</time>
      </trkpt>
      <trkpt lat="39.354800" lon="-6.158979">
        <ele>478.117</ele>
        <time>2019-06-22T20:20:20Z</time>
      </trkpt>
      <trkpt lat="39.354929" lon="-6.158863">
        <ele>479.290</ele>
        <time>2019-06-22T20:20:21Z</time>
      </trkpt>
      <trkpt lat="39.355028" lon="-6.158715">
        <ele>480.331</ele>
        <time>2019-06-22T20:20:22Z</time>
      </trkpt>
      <trkpt lat="39.355127" lon="-6.158533">
        <ele>481.361</ele>
        <time>2019-06-22T20:20:23Z</time>
      </trkpt>
      <trkpt lat="39.355221" lon="-6.158333">
        <ele>482.207</ele>
        <time>2019-06-22T20:20:24Z</time>
      </trkpt>
      <trkpt lat="39.355315" lon="-6.158130">
        <ele>482.908</ele>
        <time>2019-06-22T20:20:25Z</time>
      </trkpt>
      <trkpt lat="39.355412" lon="-6.157937">
        <ele>483.776</ele>
        <time>2019-06-22T20:20:26Z</time>
      </trkpt>
      <trkpt lat="39.355517" lon="-6.157755">
        <ele>484.790</ele>
        <time>2019-06-22T20:20:27Z</time>
      </trkpt>
      <trkpt lat="39.355636" lon="-6.157561">
        <ele>485.642</ele>
        <time>2019-06-22T20:20:28Z</time>
      </trkpt>
      <trkpt lat="39.355773" lon="-6.157359">
        <ele>486.574</ele>
        <time>2019-06-22T20:20:29Z</time>
      </trkpt>
      <trkpt lat="39.355937" lon="-6.157283">
        <ele>487.692</ele>
        <time>2019-06-22T20:20:30Z</time>
      </trkpt>
      <trkpt lat="39.356089" lon="-6.157155">
        <ele>488.671</ele>
        <time>2019-06-22T20:20:31Z</time>
      </trkpt>
      <trkpt lat="39.356236" lon="-6.157030">
        <ele>489.386</ele>
        <time>2019-06-22T20:20:32Z</time>
      </trkpt>
      <trkpt lat="39.356391" lon="-6.156907">
        <ele>490.029</ele>
        <time>2019-06-22T20:20:33Z</time>
      </trkpt>
      <trkpt lat="39.356566" lon="-6.156794">
        <ele>490.762</ele>
        <time>2019-06-22T20:20:34Z</time>
      </trkpt>
      <trkpt lat="39.356735" lon="-6.156670">
        <ele>491.283</ele>
        <time>2019-06-22T20:20:35Z</time>
      </trkpt>
      <trkpt lat="39.356917" lon="-6.156541">
        <ele>491.711</ele>
        <time>2019-06-22T20:20:36Z</time>
      </trkpt>
      <trkpt lat="39.357100" lon="-6.156402">
        <ele>492.008</ele>
        <time>2019-06-22T20:20:37Z</time>
      </trkpt>
      <trkpt lat="39.357287" lon="-6.156271">
        <ele>492.399</ele>
        <time>2019-06-22T20:20:38Z</time>
      </trkpt>
      <trkpt lat="39.357475" lon="-6.156135">
        <ele>492.343</ele>
        <time>2019-06-22T20:20:39Z</time>
      </trkpt>
      <trkpt lat="39.357667" lon="-6.155995">
        <ele>492.325</ele>
        <time>2019-06-22T20:20:40Z</time>
      </trkpt>
      <trkpt lat="39.357862" lon="-6.155856">
        <ele>492.157</ele>
        <time>2019-06-22T20:20:41Z</time>
      </trkpt>
      <trkpt lat="39.358052" lon="-6.155728">
        <ele>491.785</ele>
        <time>2019-06-22T20:20:42Z</time>
      </trkpt>
      <trkpt lat="39.358247" lon="-6.155581">
        <ele>491.274</ele>
        <time>2019-06-22T20:20:43Z</time>
      </trkpt>
      <trkpt lat="39.358444" lon="-6.155419">
        <ele>490.879</ele>
        <time>2019-06-22T20:20:44Z</time>
      </trkpt>
      <trkpt lat="39.358642" lon="-6.155234">
        <ele>490.432</ele>
        <time>2019-06-22T20:20:45Z</time>
      </trkpt>
      <trkpt lat="39.358842" lon="-6.155047">
        <ele>490.019</ele>
        <time>2019-06-22T20:20:46Z</time>
      </trkpt>
      <trkpt lat="39.359039" lon="-6.154845">
        <ele>489.709</ele>
        <time>2019-06-22T20:20:47Z</time>
      </trkpt>
      <trkpt lat="39.359242" lon="-6.154641">
        <ele>489.219</ele>
        <time>2019-06-22T20:20:48Z</time>
      </trkpt>
      <trkpt lat="39.359443" lon="-6.154431">
        <ele>488.608</ele>
        <time>2019-06-22T20:20:49Z</time>
      </trkpt>
      <trkpt lat="39.359649" lon="-6.154213">
        <ele>488.074</ele>
        <time>2019-06-22T20:20:50Z</time>
      </trkpt>
      <trkpt lat="39.359844" lon="-6.153998">
        <ele>487.578</ele>
        <time>2019-06-22T20:20:51Z</time>
      </trkpt>
      <trkpt lat="39.360055" lon="-6.153780">
        <ele>487.090</ele>
        <time>2019-06-22T20:20:52Z</time>
      </trkpt>
      <trkpt lat="39.360269" lon="-6.153554">
        <ele>486.862</ele>
        <time>2019-06-22T20:20:53Z</time>
      </trkpt>
      <trkpt lat="39.360478" lon="-6.153331">
        <ele>486.650</ele>
        <time>2019-06-22T20:20:54Z</time>
      </trkpt>
      <trkpt lat="39.360696" lon="-6.153108">
        <ele>486.589</ele>
        <time>2019-06-22T20:20:55Z</time>
      </trkpt>
      <trkpt lat="39.360915" lon="-6.152878">
        <ele>486.294</ele>
        <time>2019-06-22T20:20:56Z</time>
      </trkpt>
      <trkpt lat="39.361128" lon="-6.152649">
        <ele>485.857</ele>
        <time>2019-06-22T20:20:57Z</time>
      </trkpt>
      <trkpt lat="39.361340" lon="-6.152420">
        <ele>485.327</ele>
        <time>2019-06-22T20:20:58Z</time>
      </trkpt>
      <trkpt lat="39.361549" lon="-6.152197">
        <ele>484.968</ele>
        <time>2019-06-22T20:20:59Z</time>
      </trkpt>
      <trkpt lat="39.361747" lon="-6.151979">
        <ele>484.414</ele>
        <time>2019-06-22T20:21:00Z</time>
      </trkpt>
      <trkpt lat="39.361948" lon="-6.151756">
        <ele>484.008</ele>
        <time>2019-06-22T20:21:01Z</time>
      </trkpt>
      <trkpt lat="39.362147" lon="-6.151550">
        <ele>483.735</ele>
        <time>2019-06-22T20:21:02Z</time>
      </trkpt>
      <trkpt lat="39.362344" lon="-6.151341">
        <ele>483.479</ele>
        <time>2019-06-22T20:21:03Z</time>
      </trkpt>
      <trkpt lat="39.362539" lon="-6.151129">
        <ele>482.961</ele>
        <time>2019-06-22T20:21:04Z</time>
      </trkpt>
      <trkpt lat="39.362735" lon="-6.150928">
        <ele>482.513</ele>
        <time>2019-06-22T20:21:05Z</time>
      </trkpt>
      <trkpt lat="39.362945" lon="-6.150735">
        <ele>482.211</ele>
        <time>2019-06-22T20:21:06Z</time>
      </trkpt>
      <trkpt lat="39.363162" lon="-6.150546">
        <ele>482.040</ele>
        <time>2019-06-22T20:21:07Z</time>
      </trkpt>
      <trkpt lat="39.363390" lon="-6.150370">
        <ele>482.065</ele>
        <time>2019-06-22T20:21:08Z</time>
      </trkpt>
      <trkpt lat="39.363625" lon="-6.150206">
        <ele>481.948</ele>
        <time>2019-06-22T20:21:09Z</time>
      </trkpt>
      <trkpt lat="39.363864" lon="-6.150054">
        <ele>481.968</ele>
        <time>2019-06-22T20:21:10Z</time>
      </trkpt>
      <trkpt lat="39.364105" lon="-6.149905">
        <ele>482.142</ele>
        <time>2019-06-22T20:21:11Z</time>
      </trkpt>
      <trkpt lat="39.364348" lon="-6.149760">
        <ele>482.426</ele>
        <time>2019-06-22T20:21:12Z</time>
      </trkpt>
      <trkpt lat="39.364595" lon="-6.149618">
        <ele>482.708</ele>
        <time>2019-06-22T20:21:13Z</time>
      </trkpt>
      <trkpt lat="39.364844" lon="-6.149475">
        <ele>483.019</ele>
        <time>2019-06-22T20:21:14Z</time>
      </trkpt>
      <trkpt lat="39.365092" lon="-6.149335">
        <ele>483.633</ele>
        <time>2019-06-22T20:21:15Z</time>
      </trkpt>
      <trkpt lat="39.365329" lon="-6.149196">
        <ele>484.135</ele>
        <time>2019-06-22T20:21:16Z</time>
      </trkpt>
      <trkpt lat="39.365566" lon="-6.149057">
        <ele>484.797</ele>
        <time>2019-06-22T20:21:17Z</time>
      </trkpt>
      <trkpt lat="39.365801" lon="-6.148918">
        <ele>485.435</ele>
        <time>2019-06-22T20:21:18Z</time>
      </trkpt>
      <trkpt lat="39.366036" lon="-6.148782">
        <ele>485.924</ele>
        <time>2019-06-22T20:21:19Z</time>
      </trkpt>
      <trkpt lat="39.366277" lon="-6.148643">
        <ele>486.549</ele>
        <time>2019-06-22T20:21:20Z</time>
      </trkpt>
      <trkpt lat="39.366517" lon="-6.148500">
        <ele>487.172</ele>
        <time>2019-06-22T20:21:21Z</time>
      </trkpt>
      <trkpt lat="39.366756" lon="-6.148352">
        <ele>487.724</ele>
        <time>2019-06-22T20:21:22Z</time>
      </trkpt>
      <trkpt lat="39.366991" lon="-6.148191">
        <ele>488.004</ele>
        <time>2019-06-22T20:21:23Z</time>
      </trkpt>
      <trkpt lat="39.367226" lon="-6.148026">
        <ele>488.514</ele>
        <time>2019-06-22T20:21:24Z</time>
      </trkpt>
      <trkpt lat="39.367456" lon="-6.147856">
        <ele>488.808</ele>
        <time>2019-06-22T20:21:25Z</time>
      </trkpt>
      <trkpt lat="39.367683" lon="-6.147675">
        <ele>489.035</ele>
        <time>2019-06-22T20:21:26Z</time>
      </trkpt>
      <trkpt lat="39.367915" lon="-6.147506">
        <ele>489.019</ele>
        <time>2019-06-22T20:21:27Z</time>
      </trkpt>
      <trkpt lat="39.368154" lon="-6.147326">
        <ele>489.171</ele>
        <time>2019-06-22T20:21:28Z</time>
      </trkpt>
      <trkpt lat="39.368384" lon="-6.147168">
        <ele>489.293</ele>
        <time>2019-06-22T20:21:29Z</time>
      </trkpt>
      <trkpt lat="39.368606" lon="-6.147015">
        <ele>489.211</ele>
        <time>2019-06-22T20:21:30Z</time>
      </trkpt>
      <trkpt lat="39.368827" lon="-6.146869">
        <ele>489.220</ele>
        <time>2019-06-22T20:21:31Z</time>
      </trkpt>
      <trkpt lat="39.369041" lon="-6.146719">
        <ele>489.155</ele>
        <time>2019-06-22T20:21:32Z</time>
      </trkpt>
      <trkpt lat="39.369244" lon="-6.146575">
        <ele>489.188</ele>
        <time>2019-06-22T20:21:33Z</time>
      </trkpt>
      <trkpt lat="39.369441" lon="-6.146429">
        <ele>489.076</ele>
        <time>2019-06-22T20:21:34Z</time>
      </trkpt>
      <trkpt lat="39.369628" lon="-6.146289">
        <ele>488.690</ele>
        <time>2019-06-22T20:21:35Z</time>
      </trkpt>
      <trkpt lat="39.369808" lon="-6.146148">
        <ele>488.219</ele>
        <time>2019-06-22T20:21:36Z</time>
      </trkpt>
      <trkpt lat="39.369971" lon="-6.145984">
        <ele>488.108</ele>
        <time>2019-06-22T20:21:37Z</time>
      </trkpt>
      <trkpt lat="39.370116" lon="-6.145793">
        <ele>488.050</ele>
        <time>2019-06-22T20:21:38Z</time>
      </trkpt>
      <trkpt lat="39.370263" lon="-6.145597">
        <ele>487.794</ele>
        <time>2019-06-22T20:21:39Z</time>
      </trkpt>
      <trkpt lat="39.370358" lon="-6.145331">
        <ele>487.516</ele>
        <time>2019-06-22T20:21:40Z</time>
      </trkpt>
      <trkpt lat="39.370468" lon="-6.145080">
        <ele>487.358</ele>
        <time>2019-06-22T20:21:41Z</time>
      </trkpt>
      <trkpt lat="39.370585" lon="-6.144816">
        <ele>487.216</ele>
        <time>2019-06-22T20:21:42Z</time>
      </trkpt>
      <trkpt lat="39.370702" lon="-6.144548">
        <ele>487.125</ele>
        <time>2019-06-22T20:21:43Z</time>
      </trkpt>
      <trkpt lat="39.370816" lon="-6.144280">
        <ele>487.120</ele>
        <time>2019-06-22T20:21:44Z</time>
      </trkpt>
      <trkpt lat="39.370934" lon="-6.144011">
        <ele>487.783</ele>
        <time>2019-06-22T20:21:45Z</time>
      </trkpt>
      <trkpt lat="39.371055" lon="-6.143749">
        <ele>488.648</ele>
        <time>2019-06-22T20:21:46Z</time>
      </trkpt>
      <trkpt lat="39.371179" lon="-6.143486">
        <ele>489.361</ele>
        <time>2019-06-22T20:21:47Z</time>
      </trkpt>
      <trkpt lat="39.371308" lon="-6.143214">
        <ele>490.117</ele>
        <time>2019-06-22T20:21:48Z</time>
      </trkpt>
      <trkpt lat="39.371436" lon="-6.142934">
        <ele>491.308</ele>
        <time>2019-06-22T20:21:49Z</time>
      </trkpt>
      <trkpt lat="39.371565" lon="-6.142655">
        <ele>492.047</ele>
        <time>2019-06-22T20:21:50Z</time>
      </trkpt>
      <trkpt lat="39.371695" lon="-6.142372">
        <ele>492.021</ele>
        <time>2019-06-22T20:21:51Z</time>
      </trkpt>
      <trkpt lat="39.371827" lon="-6.142085">
        <ele>492.323</ele>
        <time>2019-06-22T20:21:52Z</time>
      </trkpt>
      <trkpt lat="39.371956" lon="-6.141796">
        <ele>492.355</ele>
        <time>2019-06-22T20:21:53Z</time>
      </trkpt>
      <trkpt lat="39.372090" lon="-6.141507">
        <ele>491.643</ele>
        <time>2019-06-22T20:21:54Z</time>
      </trkpt>
      <trkpt lat="39.372222" lon="-6.141228">
        <ele>490.912</ele>
        <time>2019-06-22T20:21:55Z</time>
      </trkpt>
      <trkpt lat="39.372350" lon="-6.140952">
        <ele>490.567</ele>
        <time>2019-06-22T20:21:56Z</time>
      </trkpt>
      <trkpt lat="39.372477" lon="-6.140676">
        <ele>489.540</ele>
        <time>2019-06-22T20:21:57Z</time>
      </trkpt>
      <trkpt lat="39.372599" lon="-6.140404">
        <ele>488.882</ele>
        <time>2019-06-22T20:21:58Z</time>
      </trkpt>
      <trkpt lat="39.372722" lon="-6.140138">
        <ele>488.843</ele>
        <time>2019-06-22T20:21:59Z</time>
      </trkpt>
      <trkpt lat="39.372845" lon="-6.139872">
        <ele>488.817</ele>
        <time>2019-06-22T20:22:00Z</time>
      </trkpt>
      <trkpt lat="39.372969" lon="-6.139614">
        <ele>488.808</ele>
        <time>2019-06-22T20:22:01Z</time>
      </trkpt>
      <trkpt lat="39.373087" lon="-6.139357">
        <ele>487.781</ele>
        <time>2019-06-22T20:22:02Z</time>
      </trkpt>
      <trkpt lat="39.373201" lon="-6.139115">
        <ele>486.595</ele>
        <time>2019-06-22T20:22:03Z</time>
      </trkpt>
      <trkpt lat="39.373302" lon="-6.138882">
        <ele>485.157</ele>
        <time>2019-06-22T20:22:04Z</time>
      </trkpt>
      <trkpt lat="39.373392" lon="-6.138670">
        <ele>483.739</ele>
        <time>2019-06-22T20:22:05Z</time>
      </trkpt>
      <trkpt lat="39.373472" lon="-6.138475">
        <ele>482.857</ele>
        <time>2019-06-22T20:22:06Z</time>
      </trkpt>
      <trkpt lat="39.373536" lon="-6.138287">
        <ele>482.816</ele>
        <time>2019-06-22T20:22:07Z</time>
      </trkpt>
      <trkpt lat="39.373571" lon="-6.138115">
        <ele>482.861</ele>
        <time>2019-06-22T20:22:08Z</time>
      </trkpt>
      <trkpt lat="39.373568" lon="-6.137939">
        <ele>483.184</ele>
        <time>2019-06-22T20:22:09Z</time>
      </trkpt>
      <trkpt lat="39.373555" lon="-6.137764">
        <ele>483.148</ele>
        <time>2019-06-22T20:22:10Z</time>
      </trkpt>
      <trkpt lat="39.373475" lon="-6.137601">
        <ele>482.961</ele>
        <time>2019-06-22T20:22:11Z</time>
      </trkpt>
      <trkpt lat="39.373395" lon="-6.137415">
        <ele>482.917</ele>
        <time>2019-06-22T20:22:12Z</time>
      </trkpt>
      <trkpt lat="39.373321" lon="-6.137226">
        <ele>482.908</ele>
        <time>2019-06-22T20:22:13Z</time>
      </trkpt>
      <trkpt lat="39.373253" lon="-6.137036">
        <ele>483.917</ele>
        <time>2019-06-22T20:22:14Z</time>
      </trkpt>
      <trkpt lat="39.373189" lon="-6.136836">
        <ele>484.981</ele>
        <time>2019-06-22T20:22:15Z</time>
      </trkpt>
      <trkpt lat="39.373150" lon="-6.136613">
        <ele>485.733</ele>
        <time>2019-06-22T20:22:16Z</time>
      </trkpt>
      <trkpt lat="39.373124" lon="-6.136373">
        <ele>486.375</ele>
        <time>2019-06-22T20:22:17Z</time>
      </trkpt>
      <trkpt lat="39.373100" lon="-6.136127">
        <ele>486.433</ele>
        <time>2019-06-22T20:22:18Z</time>
      </trkpt>
      <trkpt lat="39.373081" lon="-6.135878">
        <ele>486.412</ele>
        <time>2019-06-22T20:22:19Z</time>
      </trkpt>
      <trkpt lat="39.373063" lon="-6.135643">
        <ele>485.967</ele>
        <time>2019-06-22T20:22:20Z</time>
      </trkpt>
      <trkpt lat="39.373039" lon="-6.135405">
        <ele>485.070</ele>
        <time>2019-06-22T20:22:21Z</time>
      </trkpt>
      <trkpt lat="39.373014" lon="-6.135181">
        <ele>484.344</ele>
        <time>2019-06-22T20:22:22Z</time>
      </trkpt>
      <trkpt lat="39.372977" lon="-6.134925">
        <ele>483.905</ele>
        <time>2019-06-22T20:22:23Z</time>
      </trkpt>
      <trkpt lat="39.372930" lon="-6.134691">
        <ele>483.415</ele>
        <time>2019-06-22T20:22:24Z</time>
      </trkpt>
      <trkpt lat="39.372867" lon="-6.134452">
        <ele>482.408</ele>
        <time>2019-06-22T20:22:25Z</time>
      </trkpt>
      <trkpt lat="39.372788" lon="-6.134226">
        <ele>481.917</ele>
        <time>2019-06-22T20:22:26Z</time>
      </trkpt>
      <trkpt lat="39.372708" lon="-6.133991">
        <ele>481.341</ele>
        <time>2019-06-22T20:22:27Z</time>
      </trkpt>
      <trkpt lat="39.372627" lon="-6.133745">
        <ele>481.093</ele>
        <time>2019-06-22T20:22:28Z</time>
      </trkpt>
      <trkpt lat="39.372551" lon="-6.133509">
        <ele>480.955</ele>
        <time>2019-06-22T20:22:29Z</time>
      </trkpt>
      <trkpt lat="39.372462" lon="-6.133243">
        <ele>480.893</ele>
        <time>2019-06-22T20:22:30Z</time>
      </trkpt>
      <trkpt lat="39.372370" lon="-6.132978">
        <ele>480.882</ele>
        <time>2019-06-22T20:22:31Z</time>
      </trkpt>
      <trkpt lat="39.372281" lon="-6.132706">
        <ele>480.557</ele>
        <time>2019-06-22T20:22:32Z</time>
      </trkpt>
      <trkpt lat="39.372194" lon="-6.132443">
        <ele>479.570</ele>
        <time>2019-06-22T20:22:33Z</time>
      </trkpt>
      <trkpt lat="39.372105" lon="-6.132185">
        <ele>477.673</ele>
        <time>2019-06-22T20:22:34Z</time>
      </trkpt>
      <trkpt lat="39.372022" lon="-6.131938">
        <ele>474.885</ele>
        <time>2019-06-22T20:22:35Z</time>
      </trkpt>
      <trkpt lat="39.371940" lon="-6.131682">
        <ele>472.113</ele>
        <time>2019-06-22T20:22:36Z</time>
      </trkpt>
      <trkpt lat="39.371849" lon="-6.131420">
        <ele>470.508</ele>
        <time>2019-06-22T20:22:37Z</time>
      </trkpt>
      <trkpt lat="39.371759" lon="-6.131151">
        <ele>469.050</ele>
        <time>2019-06-22T20:22:38Z</time>
      </trkpt>
      <trkpt lat="39.371667" lon="-6.130871">
        <ele>468.584</ele>
        <time>2019-06-22T20:22:39Z</time>
      </trkpt>
      <trkpt lat="39.371577" lon="-6.130595">
        <ele>468.536</ele>
        <time>2019-06-22T20:22:40Z</time>
      </trkpt>
      <trkpt lat="39.371481" lon="-6.130315">
        <ele>468.598</ele>
        <time>2019-06-22T20:22:41Z</time>
      </trkpt>
      <trkpt lat="39.371390" lon="-6.130045">
        <ele>466.946</ele>
        <time>2019-06-22T20:22:42Z</time>
      </trkpt>
      <trkpt lat="39.371298" lon="-6.129778">
        <ele>464.665</ele>
        <time>2019-06-22T20:22:43Z</time>
      </trkpt>
      <trkpt lat="39.371211" lon="-6.129517">
        <ele>462.070</ele>
        <time>2019-06-22T20:22:44Z</time>
      </trkpt>
      <trkpt lat="39.371127" lon="-6.129262">
        <ele>459.773</ele>
        <time>2019-06-22T20:22:45Z</time>
      </trkpt>
      <trkpt lat="39.371047" lon="-6.129004">
        <ele>457.525</ele>
        <time>2019-06-22T20:22:46Z</time>
      </trkpt>
      <trkpt lat="39.370961" lon="-6.128756">
        <ele>456.326</ele>
        <time>2019-06-22T20:22:47Z</time>
      </trkpt>
      <trkpt lat="39.370881" lon="-6.128515">
        <ele>455.808</ele>
        <time>2019-06-22T20:22:48Z</time>
      </trkpt>
      <trkpt lat="39.370801" lon="-6.128283">
        <ele>455.708</ele>
        <time>2019-06-22T20:22:49Z</time>
      </trkpt>
      <trkpt lat="39.370713" lon="-6.128046">
        <ele>455.515</ele>
        <time>2019-06-22T20:22:50Z</time>
      </trkpt>
      <trkpt lat="39.370613" lon="-6.127836">
        <ele>454.759</ele>
        <time>2019-06-22T20:22:51Z</time>
      </trkpt>
      <trkpt lat="39.370492" lon="-6.127623">
        <ele>454.441</ele>
        <time>2019-06-22T20:22:52Z</time>
      </trkpt>
      <trkpt lat="39.370361" lon="-6.127432">
        <ele>454.213</ele>
        <time>2019-06-22T20:22:53Z</time>
      </trkpt>
      <trkpt lat="39.370210" lon="-6.127246">
        <ele>453.961</ele>
        <time>2019-06-22T20:22:54Z</time>
      </trkpt>
      <trkpt lat="39.370054" lon="-6.127053">
        <ele>453.980</ele>
        <time>2019-06-22T20:22:55Z</time>
      </trkpt>
      <trkpt lat="39.369905" lon="-6.126869">
        <ele>454.145</ele>
        <time>2019-06-22T20:22:56Z</time>
      </trkpt>
      <trkpt lat="39.369753" lon="-6.126694">
        <ele>454.478</ele>
        <time>2019-06-22T20:22:57Z</time>
      </trkpt>
      <trkpt lat="39.369595" lon="-6.126501">
        <ele>454.431</ele>
        <time>2019-06-22T20:22:58Z</time>
      </trkpt>
      <trkpt lat="39.369448" lon="-6.126324">
        <ele>454.261</ele>
        <time>2019-06-22T20:22:59Z</time>
      </trkpt>
      <trkpt lat="39.369305" lon="-6.126150">
        <ele>453.607</ele>
        <time>2019-06-22T20:23:00Z</time>
      </trkpt>
      <trkpt lat="39.369154" lon="-6.125971">
        <ele>453.008</ele>
        <time>2019-06-22T20:23:01Z</time>
      </trkpt>
      <trkpt lat="39.369016" lon="-6.125800">
        <ele>451.726</ele>
        <time>2019-06-22T20:23:02Z</time>
      </trkpt>
      <trkpt lat="39.368877" lon="-6.125628">
        <ele>450.230</ele>
        <time>2019-06-22T20:23:03Z</time>
      </trkpt>
      <trkpt lat="39.368751" lon="-6.125468">
        <ele>448.962</ele>
        <time>2019-06-22T20:23:04Z</time>
      </trkpt>
      <trkpt lat="39.368634" lon="-6.125299">
        <ele>448.444</ele>
        <time>2019-06-22T20:23:05Z</time>
      </trkpt>
      <trkpt lat="39.368529" lon="-6.125107">
        <ele>448.422</ele>
        <time>2019-06-22T20:23:06Z</time>
      </trkpt>
      <trkpt lat="39.368438" lon="-6.124866">
        <ele>449.281</ele>
        <time>2019-06-22T20:23:07Z</time>
      </trkpt>
      <trkpt lat="39.368349" lon="-6.124628">
        <ele>450.256</ele>
        <time>2019-06-22T20:23:08Z</time>
      </trkpt>
      <trkpt lat="39.368259" lon="-6.124371">
        <ele>450.849</ele>
        <time>2019-06-22T20:23:09Z</time>
      </trkpt>
      <trkpt lat="39.368169" lon="-6.124116">
        <ele>450.846</ele>
        <time>2019-06-22T20:23:10Z</time>
      </trkpt>
      <trkpt lat="39.368075" lon="-6.123861">
        <ele>449.788</ele>
        <time>2019-06-22T20:23:11Z</time>
      </trkpt>
      <trkpt lat="39.367984" lon="-6.123606">
        <ele>447.616</ele>
        <time>2019-06-22T20:23:12Z</time>
      </trkpt>
      <trkpt lat="39.367893" lon="-6.123356">
        <ele>445.208</ele>
        <time>2019-06-22T20:23:13Z</time>
      </trkpt>
      <trkpt lat="39.367809" lon="-6.123115">
        <ele>443.237</ele>
        <time>2019-06-22T20:23:14Z</time>
      </trkpt>
      <trkpt lat="39.367723" lon="-6.122876">
        <ele>441.021</ele>
        <time>2019-06-22T20:23:15Z</time>
      </trkpt>
      <trkpt lat="39.367635" lon="-6.122636">
        <ele>439.393</ele>
        <time>2019-06-22T20:23:16Z</time>
      </trkpt>
      <trkpt lat="39.367546" lon="-6.122397">
        <ele>438.145</ele>
        <time>2019-06-22T20:23:17Z</time>
      </trkpt>
      <trkpt lat="39.367457" lon="-6.122160">
        <ele>437.213</ele>
        <time>2019-06-22T20:23:18Z</time>
      </trkpt>
      <trkpt lat="39.367367" lon="-6.121922">
        <ele>437.252</ele>
        <time>2019-06-22T20:23:19Z</time>
      </trkpt>
      <trkpt lat="39.367278" lon="-6.121699">
        <ele>435.837</ele>
        <time>2019-06-22T20:23:20Z</time>
      </trkpt>
      <trkpt lat="39.367197" lon="-6.121478">
        <ele>435.130</ele>
        <time>2019-06-22T20:23:21Z</time>
      </trkpt>
      <trkpt lat="39.367139" lon="-6.121254">
        <ele>434.242</ele>
        <time>2019-06-22T20:23:22Z</time>
      </trkpt>
      <trkpt lat="39.367103" lon="-6.121037">
        <ele>433.522</ele>
        <time>2019-06-22T20:23:23Z</time>
      </trkpt>
      <trkpt lat="39.367101" lon="-6.120816">
        <ele>433.514</ele>
        <time>2019-06-22T20:23:24Z</time>
      </trkpt>
      <trkpt lat="39.367116" lon="-6.120571">
        <ele>433.508</ele>
        <time>2019-06-22T20:23:25Z</time>
      </trkpt>
      <trkpt lat="39.367141" lon="-6.120338">
        <ele>433.947</ele>
        <time>2019-06-22T20:23:26Z</time>
      </trkpt>
      <trkpt lat="39.367167" lon="-6.120100">
        <ele>434.061</ele>
        <time>2019-06-22T20:23:27Z</time>
      </trkpt>
      <trkpt lat="39.367187" lon="-6.119867">
        <ele>434.093</ele>
        <time>2019-06-22T20:23:28Z</time>
      </trkpt>
      <trkpt lat="39.367201" lon="-6.119656">
        <ele>433.525</ele>
        <time>2019-06-22T20:23:29Z</time>
      </trkpt>
      <trkpt lat="39.367207" lon="-6.119489">
        <ele>432.243</ele>
        <time>2019-06-22T20:23:30Z</time>
      </trkpt>
      <trkpt lat="39.367196" lon="-6.119332">
        <ele>431.112</ele>
        <time>2019-06-22T20:23:31Z</time>
      </trkpt>
      <trkpt lat="39.367162" lon="-6.119213">
        <ele>429.687</ele>
        <time>2019-06-22T20:23:32Z</time>
      </trkpt>
      <trkpt lat="39.367101" lon="-6.119125">
        <ele>428.720</ele>
        <time>2019-06-22T20:23:33Z</time>
      </trkpt>
      <trkpt lat="39.367017" lon="-6.119056">
        <ele>428.268</ele>
        <time>2019-06-22T20:23:34Z</time>
      </trkpt>
      <trkpt lat="39.366912" lon="-6.119009">
        <ele>428.142</ele>
        <time>2019-06-22T20:23:35Z</time>
      </trkpt>
      <trkpt lat="39.366796" lon="-6.118958">
        <ele>428.226</ele>
        <time>2019-06-22T20:23:36Z</time>
      </trkpt>
      <trkpt lat="39.366666" lon="-6.118903">
        <ele>428.908</ele>
        <time>2019-06-22T20:23:37Z</time>
      </trkpt>
      <trkpt lat="39.366528" lon="-6.118840">
        <ele>428.979</ele>
        <time>2019-06-22T20:23:38Z</time>
      </trkpt>
      <trkpt lat="39.366364" lon="-6.118754">
        <ele>429.553</ele>
        <time>2019-06-22T20:23:39Z</time>
      </trkpt>
      <trkpt lat="39.366215" lon="-6.118678">
        <ele>429.585</ele>
        <time>2019-06-22T20:23:40Z</time>
      </trkpt>
      <trkpt lat="39.366084" lon="-6.118609">
        <ele>429.267</ele>
        <time>2019-06-22T20:23:41Z</time>
      </trkpt>
      <trkpt lat="39.365938" lon="-6.118527">
        <ele>429.175</ele>
        <time>2019-06-22T20:23:42Z</time>
      </trkpt>
      <trkpt lat="39.365784" lon="-6.118444">
        <ele>428.874</ele>
        <time>2019-06-22T20:23:43Z</time>
      </trkpt>
      <trkpt lat="39.365634" lon="-6.118338">
        <ele>428.889</ele>
        <time>2019-06-22T20:23:44Z</time>
      </trkpt>
      <trkpt lat="39.365494" lon="-6.118204">
        <ele>429.132</ele>
        <time>2019-06-22T20:23:45Z</time>
      </trkpt>
      <trkpt lat="39.365365" lon="-6.118048">
        <ele>429.833</ele>
        <time>2019-06-22T20:23:46Z</time>
      </trkpt>
      <trkpt lat="39.365251" lon="-6.117876">
        <ele>430.123</ele>
        <time>2019-06-22T20:23:47Z</time>
      </trkpt>
      <trkpt lat="39.365149" lon="-6.117686">
        <ele>430.715</ele>
        <time>2019-06-22T20:23:48Z</time>
      </trkpt>
      <trkpt lat="39.365055" lon="-6.117482">
        <ele>430.708</ele>
        <time>2019-06-22T20:23:49Z</time>
      </trkpt>
      <trkpt lat="39.364968" lon="-6.117288">
        <ele>430.896</ele>
        <time>2019-06-22T20:23:50Z</time>
      </trkpt>
      <trkpt lat="39.364875" lon="-6.117104">
        <ele>430.860</ele>
        <time>2019-06-22T20:23:51Z</time>
      </trkpt>
      <trkpt lat="39.364760" lon="-6.116944">
        <ele>431.342</ele>
        <time>2019-06-22T20:23:52Z</time>
      </trkpt>
      <trkpt lat="39.364629" lon="-6.116787">
        <ele>431.624</ele>
        <time>2019-06-22T20:23:53Z</time>
      </trkpt>
      <trkpt lat="39.364480" lon="-6.116656">
        <ele>432.662</ele>
        <time>2019-06-22T20:23:54Z</time>
      </trkpt>
      <trkpt lat="39.364317" lon="-6.116524">
        <ele>433.841</ele>
        <time>2019-06-22T20:23:55Z</time>
      </trkpt>
      <trkpt lat="39.364156" lon="-6.116396">
        <ele>434.956</ele>
        <time>2019-06-22T20:23:56Z</time>
      </trkpt>
      <trkpt lat="39.363998" lon="-6.116268">
        <ele>435.699</ele>
        <time>2019-06-22T20:23:57Z</time>
      </trkpt>
      <trkpt lat="39.363835" lon="-6.116140">
        <ele>436.729</ele>
        <time>2019-06-22T20:23:58Z</time>
      </trkpt>
      <trkpt lat="39.363675" lon="-6.116013">
        <ele>436.800</ele>
        <time>2019-06-22T20:23:59Z</time>
      </trkpt>
      <trkpt lat="39.363509" lon="-6.115885">
        <ele>436.820</ele>
        <time>2019-06-22T20:24:00Z</time>
      </trkpt>
      <trkpt lat="39.363344" lon="-6.115765">
        <ele>436.408</ele>
        <time>2019-06-22T20:24:01Z</time>
      </trkpt>
      <trkpt lat="39.363190" lon="-6.115642">
        <ele>435.995</ele>
        <time>2019-06-22T20:24:02Z</time>
      </trkpt>
      <trkpt lat="39.363044" lon="-6.115530">
        <ele>435.539</ele>
        <time>2019-06-22T20:24:03Z</time>
      </trkpt>
      <trkpt lat="39.362903" lon="-6.115400">
        <ele>435.511</ele>
        <time>2019-06-22T20:24:04Z</time>
      </trkpt>
      <trkpt lat="39.362766" lon="-6.115262">
        <ele>435.993</ele>
        <time>2019-06-22T20:24:05Z</time>
      </trkpt>
      <trkpt lat="39.362632" lon="-6.115083">
        <ele>437.571</ele>
        <time>2019-06-22T20:24:06Z</time>
      </trkpt>
      <trkpt lat="39.362501" lon="-6.114882">
        <ele>438.780</ele>
        <time>2019-06-22T20:24:07Z</time>
      </trkpt>
      <trkpt lat="39.362366" lon="-6.114684">
        <ele>439.995</ele>
        <time>2019-06-22T20:24:08Z</time>
      </trkpt>
      <trkpt lat="39.362227" lon="-6.114469">
        <ele>440.068</ele>
        <time>2019-06-22T20:24:09Z</time>
      </trkpt>
      <trkpt lat="39.362084" lon="-6.114250">
        <ele>440.048</ele>
        <time>2019-06-22T20:24:10Z</time>
      </trkpt>
      <trkpt lat="39.361949" lon="-6.114028">
        <ele>438.461</ele>
        <time>2019-06-22T20:24:11Z</time>
      </trkpt>
      <trkpt lat="39.361821" lon="-6.113811">
        <ele>437.317</ele>
        <time>2019-06-22T20:24:12Z</time>
      </trkpt>
      <trkpt lat="39.361693" lon="-6.113595">
        <ele>435.708</ele>
        <time>2019-06-22T20:24:13Z</time>
      </trkpt>
      <trkpt lat="39.361572" lon="-6.113397">
        <ele>433.617</ele>
        <time>2019-06-22T20:24:14Z</time>
      </trkpt>
      <trkpt lat="39.361442" lon="-6.113195">
        <ele>431.581</ele>
        <time>2019-06-22T20:24:15Z</time>
      </trkpt>
      <trkpt lat="39.361314" lon="-6.113006">
        <ele>429.413</ele>
        <time>2019-06-22T20:24:16Z</time>
      </trkpt>
      <trkpt lat="39.361191" lon="-6.112828">
        <ele>427.635</ele>
        <time>2019-06-22T20:24:17Z</time>
      </trkpt>
      <trkpt lat="39.361071" lon="-6.112643">
        <ele>426.043</ele>
        <time>2019-06-22T20:24:18Z</time>
      </trkpt>
      <trkpt lat="39.360958" lon="-6.112454">
        <ele>424.842</ele>
        <time>2019-06-22T20:24:19Z</time>
      </trkpt>
      <trkpt lat="39.360846" lon="-6.112286">
        <ele>424.877</ele>
        <time>2019-06-22T20:24:20Z</time>
      </trkpt>
      <trkpt lat="39.360740" lon="-6.112132">
        <ele>424.860</ele>
        <time>2019-06-22T20:24:21Z</time>
      </trkpt>
      <trkpt lat="39.360632" lon="-6.111997">
        <ele>424.899</ele>
        <time>2019-06-22T20:24:22Z</time>
      </trkpt>
      <trkpt lat="39.360524" lon="-6.111882">
        <ele>425.007</ele>
        <time>2019-06-22T20:24:23Z</time>
      </trkpt>
      <trkpt lat="39.360417" lon="-6.111823">
        <ele>425.327</ele>
        <time>2019-06-22T20:24:24Z</time>
      </trkpt>
      <trkpt lat="39.360303" lon="-6.111790">
        <ele>425.508</ele>
        <time>2019-06-22T20:24:25Z</time>
      </trkpt>
      <trkpt lat="39.360180" lon="-6.111775">
        <ele>425.572</ele>
        <time>2019-06-22T20:24:26Z</time>
      </trkpt>
      <trkpt lat="39.360045" lon="-6.111766">
        <ele>426.046</ele>
        <time>2019-06-22T20:24:27Z</time>
      </trkpt>
      <trkpt lat="39.359905" lon="-6.111750">
        <ele>427.188</ele>
        <time>2019-06-22T20:24:28Z</time>
      </trkpt>
      <trkpt lat="39.359763" lon="-6.111733">
        <ele>427.770</ele>
        <time>2019-06-22T20:24:29Z</time>
      </trkpt>
      <trkpt lat="39.359628" lon="-6.111717">
        <ele>428.428</ele>
        <time>2019-06-22T20:24:30Z</time>
      </trkpt>
      <trkpt lat="39.359493" lon="-6.111699">
        <ele>428.517</ele>
        <time>2019-06-22T20:24:31Z</time>
      </trkpt>
      <trkpt lat="39.359346" lon="-6.111658">
        <ele>428.632</ele>
        <time>2019-06-22T20:24:32Z</time>
      </trkpt>
      <trkpt lat="39.359194" lon="-6.111584">
        <ele>428.765</ele>
        <time>2019-06-22T20:24:33Z</time>
      </trkpt>
      <trkpt lat="39.359039" lon="-6.111476">
        <ele>428.713</ele>
        <time>2019-06-22T20:24:34Z</time>
      </trkpt>
      <trkpt lat="39.358885" lon="-6.111357">
        <ele>428.743</ele>
        <time>2019-06-22T20:24:35Z</time>
      </trkpt>
      <trkpt lat="39.358742" lon="-6.111229">
        <ele>428.707</ele>
        <time>2019-06-22T20:24:36Z</time>
      </trkpt>
      <trkpt lat="39.358609" lon="-6.111102">
        <ele>428.508</ele>
        <time>2019-06-22T20:24:37Z</time>
      </trkpt>
      <trkpt lat="39.358491" lon="-6.110977">
        <ele>428.054</ele>
        <time>2019-06-22T20:24:38Z</time>
      </trkpt>
      <trkpt lat="39.358393" lon="-6.110858">
        <ele>427.228</ele>
        <time>2019-06-22T20:24:39Z</time>
      </trkpt>
      <trkpt lat="39.358324" lon="-6.110753">
        <ele>426.790</ele>
        <time>2019-06-22T20:24:40Z</time>
      </trkpt>
      <trkpt lat="39.358274" lon="-6.110650">
        <ele>426.792</ele>
        <time>2019-06-22T20:24:41Z</time>
      </trkpt>
      <trkpt lat="39.358251" lon="-6.110539">
        <ele>427.370</ele>
        <time>2019-06-22T20:24:42Z</time>
      </trkpt>
      <trkpt lat="39.358258" lon="-6.110422">
        <ele>428.649</ele>
        <time>2019-06-22T20:24:43Z</time>
      </trkpt>
      <trkpt lat="39.358301" lon="-6.110308">
        <ele>429.964</ele>
        <time>2019-06-22T20:24:44Z</time>
      </trkpt>
      <trkpt lat="39.358352" lon="-6.110203">
        <ele>431.537</ele>
        <time>2019-06-22T20:24:45Z</time>
      </trkpt>
      <trkpt lat="39.358386" lon="-6.110087">
        <ele>432.637</ele>
        <time>2019-06-22T20:24:46Z</time>
      </trkpt>
      <trkpt lat="39.358392" lon="-6.109977">
        <ele>433.249</ele>
        <time>2019-06-22T20:24:47Z</time>
      </trkpt>
      <trkpt lat="39.358369" lon="-6.109865">
        <ele>433.313</ele>
        <time>2019-06-22T20:24:48Z</time>
      </trkpt>
      <trkpt lat="39.358312" lon="-6.109782">
        <ele>433.308</ele>
        <time>2019-06-22T20:24:49Z</time>
      </trkpt>
      <trkpt lat="39.358231" lon="-6.109714">
        <ele>433.566</ele>
        <time>2019-06-22T20:24:50Z</time>
      </trkpt>
      <trkpt lat="39.358143" lon="-6.109631">
        <ele>433.730</ele>
        <time>2019-06-22T20:24:51Z</time>
      </trkpt>
      <trkpt lat="39.358062" lon="-6.109520">
        <ele>434.052</ele>
        <time>2019-06-22T20:24:52Z</time>
      </trkpt>
      <trkpt lat="39.357983" lon="-6.109370">
        <ele>434.584</ele>
        <time>2019-06-22T20:24:53Z</time>
      </trkpt>
      <trkpt lat="39.357905" lon="-6.109207">
        <ele>435.012</ele>
        <time>2019-06-22T20:24:54Z</time>
      </trkpt>
      <trkpt lat="39.357829" lon="-6.109021">
        <ele>435.081</ele>
        <time>2019-06-22T20:24:55Z</time>
      </trkpt>
      <trkpt lat="39.357752" lon="-6.108832">
        <ele>434.896</ele>
        <time>2019-06-22T20:24:56Z</time>
      </trkpt>
      <trkpt lat="39.357673" lon="-6.108633">
        <ele>434.449</ele>
        <time>2019-06-22T20:24:57Z</time>
      </trkpt>
      <trkpt lat="39.357598" lon="-6.108436">
        <ele>434.173</ele>
        <time>2019-06-22T20:24:58Z</time>
      </trkpt>
      <trkpt lat="39.357518" lon="-6.108233">
        <ele>434.185</ele>
        <time>2019-06-22T20:24:59Z</time>
      </trkpt>
      <trkpt lat="39.357437" lon="-6.108026">
        <ele>434.113</ele>
        <time>2019-06-22T20:25:00Z</time>
      </trkpt>
      <trkpt lat="39.357353" lon="-6.107822">
        <ele>434.108</ele>
        <time>2019-06-22T20:25:01Z</time>
      </trkpt>
      <trkpt lat="39.357270" lon="-6.107618">
        <ele>434.080</ele>
        <time>2019-06-22T20:25:02Z</time>
      </trkpt>
      <trkpt lat="39.357189" lon="-6.107416">
        <ele>433.494</ele>
        <time>2019-06-22T20:25:03Z</time>
      </trkpt>
      <trkpt lat="39.357111" lon="-6.107218">
        <ele>432.666</ele>
        <time>2019-06-22T20:25:04Z</time>
      </trkpt>
      <trkpt lat="39.357032" lon="-6.107032">
        <ele>431.868</ele>
        <time>2019-06-22T20:25:05Z</time>
      </trkpt>
      <trkpt lat="39.356946" lon="-6.106854">
        <ele>431.036</ele>
        <time>2019-06-22T20:25:06Z</time>
      </trkpt>
      <trkpt lat="39.356842" lon="-6.106677">
        <ele>431.085</ele>
        <time>2019-06-22T20:25:07Z</time>
      </trkpt>
      <trkpt lat="39.356718" lon="-6.106501">
        <ele>431.190</ele>
        <time>2019-06-22T20:25:08Z</time>
      </trkpt>
      <trkpt lat="39.356591" lon="-6.106336">
        <ele>431.123</ele>
        <time>2019-06-22T20:25:09Z</time>
      </trkpt>
      <trkpt lat="39.356458" lon="-6.106156">
        <ele>430.925</ele>
        <time>2019-06-22T20:25:10Z</time>
      </trkpt>
      <trkpt lat="39.356324" lon="-6.105973">
        <ele>430.326</ele>
        <time>2019-06-22T20:25:11Z</time>
      </trkpt>
      <trkpt lat="39.356188" lon="-6.105779">
        <ele>429.808</ele>
        <time>2019-06-22T20:25:12Z</time>
      </trkpt>
      <trkpt lat="39.356043" lon="-6.105585">
        <ele>428.608</ele>
        <time>2019-06-22T20:25:13Z</time>
      </trkpt>
      <trkpt lat="39.355901" lon="-6.105393">
        <ele>427.475</ele>
        <time>2019-06-22T20:25:14Z</time>
      </trkpt>
      <trkpt lat="39.355755" lon="-6.105194">
        <ele>426.249</ele>
        <time>2019-06-22T20:25:15Z</time>
      </trkpt>
      <trkpt lat="39.355616" lon="-6.104995">
        <ele>425.371</ele>
        <time>2019-06-22T20:25:16Z</time>
      </trkpt>
      <trkpt lat="39.355471" lon="-6.104796">
        <ele>424.283</ele>
        <time>2019-06-22T20:25:17Z</time>
      </trkpt>
      <trkpt lat="39.355329" lon="-6.104595">
        <ele>423.121</ele>
        <time>2019-06-22T20:25:18Z</time>
      </trkpt>
      <trkpt lat="39.355188" lon="-6.104403">
        <ele>421.850</ele>
        <time>2019-06-22T20:25:19Z</time>
      </trkpt>
      <trkpt lat="39.355048" lon="-6.104218">
        <ele>420.975</ele>
        <time>2019-06-22T20:25:20Z</time>
      </trkpt>
      <trkpt lat="39.354906" lon="-6.104029">
        <ele>420.478</ele>
        <time>2019-06-22T20:25:21Z</time>
      </trkpt>
      <trkpt lat="39.354764" lon="-6.103840">
        <ele>419.277</ele>
        <time>2019-06-22T20:25:22Z</time>
      </trkpt>
      <trkpt lat="39.354623" lon="-6.103657">
        <ele>418.561</ele>
        <time>2019-06-22T20:25:23Z</time>
      </trkpt>
      <trkpt lat="39.354469" lon="-6.103456">
        <ele>418.227</ele>
        <time>2019-06-22T20:25:24Z</time>
      </trkpt>
      <trkpt lat="39.354340" lon="-6.103234">
        <ele>418.208</ele>
        <time>2019-06-22T20:25:25Z</time>
      </trkpt>
      <trkpt lat="39.354219" lon="-6.103013">
        <ele>417.660</ele>
        <time>2019-06-22T20:25:26Z</time>
      </trkpt>
      <trkpt lat="39.354107" lon="-6.102784">
        <ele>417.564</ele>
        <time>2019-06-22T20:25:27Z</time>
      </trkpt>
      <trkpt lat="39.353996" lon="-6.102550">
        <ele>417.076</ele>
        <time>2019-06-22T20:25:28Z</time>
      </trkpt>
      <trkpt lat="39.353883" lon="-6.102320">
        <ele>416.588</ele>
        <time>2019-06-22T20:25:29Z</time>
      </trkpt>
      <trkpt lat="39.353774" lon="-6.102090">
        <ele>415.896</ele>
        <time>2019-06-22T20:25:30Z</time>
      </trkpt>
      <trkpt lat="39.353667" lon="-6.101868">
        <ele>415.255</ele>
        <time>2019-06-22T20:25:31Z</time>
      </trkpt>
      <trkpt lat="39.353563" lon="-6.101647">
        <ele>415.210</ele>
        <time>2019-06-22T20:25:32Z</time>
      </trkpt>
      <trkpt lat="39.353450" lon="-6.101418">
        <ele>414.423</ele>
        <time>2019-06-22T20:25:33Z</time>
      </trkpt>
      <trkpt lat="39.353336" lon="-6.101181">
        <ele>414.062</ele>
        <time>2019-06-22T20:25:34Z</time>
      </trkpt>
      <trkpt lat="39.353213" lon="-6.100941">
        <ele>413.083</ele>
        <time>2019-06-22T20:25:35Z</time>
      </trkpt>
      <trkpt lat="39.353077" lon="-6.100706">
        <ele>412.011</ele>
        <time>2019-06-22T20:25:36Z</time>
      </trkpt>
      <trkpt lat="39.352939" lon="-6.100487">
        <ele>411.508</ele>
        <time>2019-06-22T20:25:37Z</time>
      </trkpt>
      <trkpt lat="39.352795" lon="-6.100259">
        <ele>411.389</ele>
        <time>2019-06-22T20:25:38Z</time>
      </trkpt>
      <trkpt lat="39.352647" lon="-6.100037">
        <ele>410.063</ele>
        <time>2019-06-22T20:25:39Z</time>
      </trkpt>
      <trkpt lat="39.352504" lon="-6.099815">
        <ele>409.625</ele>
        <time>2019-06-22T20:25:40Z</time>
      </trkpt>
      <trkpt lat="39.352355" lon="-6.099593">
        <ele>408.767</ele>
        <time>2019-06-22T20:25:41Z</time>
      </trkpt>
      <trkpt lat="39.352214" lon="-6.099363">
        <ele>408.035</ele>
        <time>2019-06-22T20:25:42Z</time>
      </trkpt>
      <trkpt lat="39.352065" lon="-6.099142">
        <ele>407.644</ele>
        <time>2019-06-22T20:25:43Z</time>
      </trkpt>
      <trkpt lat="39.351924" lon="-6.098898">
        <ele>407.699</ele>
        <time>2019-06-22T20:25:44Z</time>
      </trkpt>
      <trkpt lat="39.351782" lon="-6.098653">
        <ele>407.652</ele>
        <time>2019-06-22T20:25:45Z</time>
      </trkpt>
      <trkpt lat="39.351654" lon="-6.098398">
        <ele>407.453</ele>
        <time>2019-06-22T20:25:46Z</time>
      </trkpt>
      <trkpt lat="39.351531" lon="-6.098143">
        <ele>406.804</ele>
        <time>2019-06-22T20:25:47Z</time>
      </trkpt>
      <trkpt lat="39.351410" lon="-6.097894">
        <ele>406.314</ele>
        <time>2019-06-22T20:25:48Z</time>
      </trkpt>
      <trkpt lat="39.351289" lon="-6.097661">
        <ele>405.008</ele>
        <time>2019-06-22T20:25:49Z</time>
      </trkpt>
      <trkpt lat="39.351170" lon="-6.097445">
        <ele>403.168</ele>
        <time>2019-06-22T20:25:50Z</time>
      </trkpt>
      <trkpt lat="39.351045" lon="-6.097242">
        <ele>401.032</ele>
        <time>2019-06-22T20:25:51Z</time>
      </trkpt>
      <trkpt lat="39.350902" lon="-6.097060">
        <ele>399.754</ele>
        <time>2019-06-22T20:25:52Z</time>
      </trkpt>
      <trkpt lat="39.350745" lon="-6.096888">
        <ele>398.816</ele>
        <time>2019-06-22T20:25:53Z</time>
      </trkpt>
      <trkpt lat="39.350574" lon="-6.096736">
        <ele>398.494</ele>
        <time>2019-06-22T20:25:54Z</time>
      </trkpt>
      <trkpt lat="39.350397" lon="-6.096581">
        <ele>398.473</ele>
        <time>2019-06-22T20:25:55Z</time>
      </trkpt>
      <trkpt lat="39.350228" lon="-6.096432">
        <ele>399.138</ele>
        <time>2019-06-22T20:25:56Z</time>
      </trkpt>
      <trkpt lat="39.350056" lon="-6.096292">
        <ele>399.111</ele>
        <time>2019-06-22T20:25:57Z</time>
      </trkpt>
      <trkpt lat="39.349903" lon="-6.096150">
        <ele>399.127</ele>
        <time>2019-06-22T20:25:58Z</time>
      </trkpt>
      <trkpt lat="39.349739" lon="-6.096002">
        <ele>399.068</ele>
        <time>2019-06-22T20:25:59Z</time>
      </trkpt>
      <trkpt lat="39.349574" lon="-6.095863">
        <ele>399.014</ele>
        <time>2019-06-22T20:26:00Z</time>
      </trkpt>
      <trkpt lat="39.349417" lon="-6.095721">
        <ele>399.008</ele>
        <time>2019-06-22T20:26:01Z</time>
      </trkpt>
      <trkpt lat="39.349272" lon="-6.095558">
        <ele>399.115</ele>
        <time>2019-06-22T20:26:02Z</time>
      </trkpt>
      <trkpt lat="39.349146" lon="-6.095377">
        <ele>399.129</ele>
        <time>2019-06-22T20:26:03Z</time>
      </trkpt>
      <trkpt lat="39.349042" lon="-6.095173">
        <ele>399.261</ele>
        <time>2019-06-22T20:26:04Z</time>
      </trkpt>
      <trkpt lat="39.348937" lon="-6.094962">
        <ele>399.583</ele>
        <time>2019-06-22T20:26:05Z</time>
      </trkpt>
      <trkpt lat="39.348836" lon="-6.094756">
        <ele>400.391</ele>
        <time>2019-06-22T20:26:06Z</time>
      </trkpt>
      <trkpt lat="39.348743" lon="-6.094557">
        <ele>400.770</ele>
        <time>2019-06-22T20:26:07Z</time>
      </trkpt>
      <trkpt lat="39.348665" lon="-6.094352">
        <ele>400.925</ele>
        <time>2019-06-22T20:26:08Z</time>
      </trkpt>
      <trkpt lat="39.348606" lon="-6.094139">
        <ele>401.678</ele>
        <time>2019-06-22T20:26:09Z</time>
      </trkpt>
      <trkpt lat="39.348571" lon="-6.093909">
        <ele>401.731</ele>
        <time>2019-06-22T20:26:10Z</time>
      </trkpt>
      <trkpt lat="39.348543" lon="-6.093655">
        <ele>401.761</ele>
        <time>2019-06-22T20:26:11Z</time>
      </trkpt>
      <trkpt lat="39.348527" lon="-6.093398">
        <ele>401.707</ele>
        <time>2019-06-22T20:26:12Z</time>
      </trkpt>
      <trkpt lat="39.348520" lon="-6.093136">
        <ele>402.008</ele>
        <time>2019-06-22T20:26:13Z</time>
      </trkpt>
      <trkpt lat="39.348518" lon="-6.092858">
        <ele>402.136</ele>
        <time>2019-06-22T20:26:14Z</time>
      </trkpt>
      <trkpt lat="39.348516" lon="-6.092580">
        <ele>402.310</ele>
        <time>2019-06-22T20:26:15Z</time>
      </trkpt>
      <trkpt lat="39.348510" lon="-6.092307">
        <ele>402.722</ele>
        <time>2019-06-22T20:26:16Z</time>
      </trkpt>
      <trkpt lat="39.348506" lon="-6.092036">
        <ele>403.264</ele>
        <time>2019-06-22T20:26:17Z</time>
      </trkpt>
      <trkpt lat="39.348504" lon="-6.091779">
        <ele>403.832</ele>
        <time>2019-06-22T20:26:18Z</time>
      </trkpt>
      <trkpt lat="39.348501" lon="-6.091538">
        <ele>404.231</ele>
        <time>2019-06-22T20:26:19Z</time>
      </trkpt>
      <trkpt lat="39.348499" lon="-6.091288">
        <ele>404.696</ele>
        <time>2019-06-22T20:26:20Z</time>
      </trkpt>
      <trkpt lat="39.348496" lon="-6.091049">
        <ele>405.039</ele>
        <time>2019-06-22T20:26:21Z</time>
      </trkpt>
      <trkpt lat="39.348496" lon="-6.090811">
        <ele>405.026</ele>
        <time>2019-06-22T20:26:22Z</time>
      </trkpt>
      <trkpt lat="39.348494" lon="-6.090577">
        <ele>404.547</ele>
        <time>2019-06-22T20:26:23Z</time>
      </trkpt>
      <trkpt lat="39.348488" lon="-6.090354">
        <ele>404.011</ele>
        <time>2019-06-22T20:26:24Z</time>
      </trkpt>
      <trkpt lat="39.348469" lon="-6.090148">
        <ele>403.208</ele>
        <time>2019-06-22T20:26:25Z</time>
      </trkpt>
      <trkpt lat="39.348434" lon="-6.089969">
        <ele>402.295</ele>
        <time>2019-06-22T20:26:26Z</time>
      </trkpt>
      <trkpt lat="39.348384" lon="-6.089801">
        <ele>401.659</ele>
        <time>2019-06-22T20:26:27Z</time>
      </trkpt>
      <trkpt lat="39.348343" lon="-6.089667">
        <ele>401.621</ele>
        <time>2019-06-22T20:26:28Z</time>
      </trkpt>
      <trkpt lat="39.348329" lon="-6.089550">
        <ele>402.693</ele>
        <time>2019-06-22T20:26:29Z</time>
      </trkpt>
      <trkpt lat="39.348314" lon="-6.089434">
        <ele>403.791</ele>
        <time>2019-06-22T20:26:30Z</time>
      </trkpt>
      <trkpt lat="39.348378" lon="-6.089327">
        <ele>404.770</ele>
        <time>2019-06-22T20:26:31Z</time>
      </trkpt>
      <trkpt lat="39.348430" lon="-6.089222">
        <ele>405.865</ele>
        <time>2019-06-22T20:26:32Z</time>
      </trkpt>
      <trkpt lat="39.348492" lon="-6.089123">
        <ele>406.338</ele>
        <time>2019-06-22T20:26:33Z</time>
      </trkpt>
      <trkpt lat="39.348549" lon="-6.089009">
        <ele>406.386</ele>
        <time>2019-06-22T20:26:34Z</time>
      </trkpt>
      <trkpt lat="39.348587" lon="-6.088881">
        <ele>405.960</ele>
        <time>2019-06-22T20:26:35Z</time>
      </trkpt>
      <trkpt lat="39.348605" lon="-6.088745">
        <ele>405.926</ele>
        <time>2019-06-22T20:26:36Z</time>
      </trkpt>
      <trkpt lat="39.348594" lon="-6.088611">
        <ele>405.408</ele>
        <time>2019-06-22T20:26:37Z</time>
      </trkpt>
      <trkpt lat="39.348554" lon="-6.088460">
        <ele>405.121</ele>
        <time>2019-06-22T20:26:38Z</time>
      </trkpt>
      <trkpt lat="39.348501" lon="-6.088303">
        <ele>405.065</ele>
        <time>2019-06-22T20:26:39Z</time>
      </trkpt>
      <trkpt lat="39.348445" lon="-6.088134">
        <ele>404.897</ele>
        <time>2019-06-22T20:26:40Z</time>
      </trkpt>
      <trkpt lat="39.348386" lon="-6.087949">
        <ele>404.669</ele>
        <time>2019-06-22T20:26:41Z</time>
      </trkpt>
      <trkpt lat="39.348319" lon="-6.087755">
        <ele>404.517</ele>
        <time>2019-06-22T20:26:42Z</time>
      </trkpt>
      <trkpt lat="39.348242" lon="-6.087557">
        <ele>404.566</ele>
        <time>2019-06-22T20:26:43Z</time>
      </trkpt>
      <trkpt lat="39.348165" lon="-6.087354">
        <ele>404.381</ele>
        <time>2019-06-22T20:26:44Z</time>
      </trkpt>
      <trkpt lat="39.348105" lon="-6.087121">
        <ele>404.324</ele>
        <time>2019-06-22T20:26:45Z</time>
      </trkpt>
      <trkpt lat="39.348037" lon="-6.086901">
        <ele>404.167</ele>
        <time>2019-06-22T20:26:46Z</time>
      </trkpt>
      <trkpt lat="39.347965" lon="-6.086667">
        <ele>403.781</ele>
        <time>2019-06-22T20:26:47Z</time>
      </trkpt>
      <trkpt lat="39.347894" lon="-6.086432">
        <ele>403.719</ele>
        <time>2019-06-22T20:26:48Z</time>
      </trkpt>
      <trkpt lat="39.347826" lon="-6.086196">
        <ele>403.908</ele>
        <time>2019-06-22T20:26:49Z</time>
      </trkpt>
      <trkpt lat="39.347758" lon="-6.085965">
        <ele>404.179</ele>
        <time>2019-06-22T20:26:50Z</time>
      </trkpt>
      <trkpt lat="39.347688" lon="-6.085733">
        <ele>404.393</ele>
        <time>2019-06-22T20:26:51Z</time>
      </trkpt>
      <trkpt lat="39.347619" lon="-6.085504">
        <ele>404.845</ele>
        <time>2019-06-22T20:26:52Z</time>
      </trkpt>
      <trkpt lat="39.347553" lon="-6.085279">
        <ele>405.057</ele>
        <time>2019-06-22T20:26:53Z</time>
      </trkpt>
      <trkpt lat="39.347517" lon="-6.085028">
        <ele>405.245</ele>
        <time>2019-06-22T20:26:54Z</time>
      </trkpt>
      <trkpt lat="39.347484" lon="-6.084763">
        <ele>405.994</ele>
        <time>2019-06-22T20:26:55Z</time>
      </trkpt>
      <trkpt lat="39.347466" lon="-6.084499">
        <ele>406.979</ele>
        <time>2019-06-22T20:26:56Z</time>
      </trkpt>
      <trkpt lat="39.347456" lon="-6.084239">
        <ele>407.912</ele>
        <time>2019-06-22T20:26:57Z</time>
      </trkpt>
      <trkpt lat="39.347443" lon="-6.083984">
        <ele>409.758</ele>
        <time>2019-06-22T20:26:58Z</time>
      </trkpt>
      <trkpt lat="39.347437" lon="-6.083744">
        <ele>411.652</ele>
        <time>2019-06-22T20:26:59Z</time>
      </trkpt>
      <trkpt lat="39.347443" lon="-6.083518">
        <ele>412.617</ele>
        <time>2019-06-22T20:27:00Z</time>
      </trkpt>
      <trkpt lat="39.347447" lon="-6.083263">
        <ele>413.508</ele>
        <time>2019-06-22T20:27:01Z</time>
      </trkpt>
      <trkpt lat="39.347449" lon="-6.083000">
        <ele>414.798</ele>
        <time>2019-06-22T20:27:02Z</time>
      </trkpt>
      <trkpt lat="39.347448" lon="-6.082746">
        <ele>415.962</ele>
        <time>2019-06-22T20:27:03Z</time>
      </trkpt>
      <trkpt lat="39.347450" lon="-6.082493">
        <ele>416.754</ele>
        <time>2019-06-22T20:27:04Z</time>
      </trkpt>
      <trkpt lat="39.347450" lon="-6.082243">
        <ele>417.536</ele>
        <time>2019-06-22T20:27:05Z</time>
      </trkpt>
      <trkpt lat="39.347452" lon="-6.081991">
        <ele>418.344</ele>
        <time>2019-06-22T20:27:06Z</time>
      </trkpt>
      <trkpt lat="39.347455" lon="-6.081748">
        <ele>418.373</ele>
        <time>2019-06-22T20:27:07Z</time>
      </trkpt>
      <trkpt lat="39.347459" lon="-6.081507">
        <ele>418.698</ele>
        <time>2019-06-22T20:27:08Z</time>
      </trkpt>
      <trkpt lat="39.347458" lon="-6.081263">
        <ele>418.821</ele>
        <time>2019-06-22T20:27:09Z</time>
      </trkpt>
      <trkpt lat="39.347455" lon="-6.081034">
        <ele>419.132</ele>
        <time>2019-06-22T20:27:10Z</time>
      </trkpt>
      <trkpt lat="39.347458" lon="-6.080805">
        <ele>419.592</ele>
        <time>2019-06-22T20:27:11Z</time>
      </trkpt>
      <trkpt lat="39.347463" lon="-6.080576">
        <ele>420.311</ele>
        <time>2019-06-22T20:27:12Z</time>
      </trkpt>
      <trkpt lat="39.347464" lon="-6.080352">
        <ele>420.708</ele>
        <time>2019-06-22T20:27:13Z</time>
      </trkpt>
      <trkpt lat="39.347465" lon="-6.080141">
        <ele>421.086</ele>
        <time>2019-06-22T20:27:14Z</time>
      </trkpt>
      <trkpt lat="39.347467" lon="-6.079936">
        <ele>421.510</ele>
        <time>2019-06-22T20:27:15Z</time>
      </trkpt>
      <trkpt lat="39.347466" lon="-6.079730">
        <ele>421.912</ele>
        <time>2019-06-22T20:27:16Z</time>
      </trkpt>
      <trkpt lat="39.347460" lon="-6.079521">
        <ele>422.454</ele>
        <time>2019-06-22T20:27:17Z</time>
      </trkpt>
      <trkpt lat="39.347448" lon="-6.079302">
        <ele>422.882</ele>
        <time>2019-06-22T20:27:18Z</time>
      </trkpt>
      <trkpt lat="39.347428" lon="-6.079078">
        <ele>423.361</ele>
        <time>2019-06-22T20:27:19Z</time>
      </trkpt>
      <trkpt lat="39.347403" lon="-6.078846">
        <ele>423.516</ele>
        <time>2019-06-22T20:27:20Z</time>
      </trkpt>
      <trkpt lat="39.347376" lon="-6.078608">
        <ele>423.659</ele>
        <time>2019-06-22T20:27:21Z</time>
      </trkpt>
      <trkpt lat="39.347349" lon="-6.078390">
        <ele>423.993</ele>
        <time>2019-06-22T20:27:22Z</time>
      </trkpt>
      <trkpt lat="39.347322" lon="-6.078173">
        <ele>424.365</ele>
        <time>2019-06-22T20:27:23Z</time>
      </trkpt>
      <trkpt lat="39.347294" lon="-6.077965">
        <ele>424.321</ele>
        <time>2019-06-22T20:27:24Z</time>
      </trkpt>
      <trkpt lat="39.347267" lon="-6.077768">
        <ele>424.408</ele>
        <time>2019-06-22T20:27:25Z</time>
      </trkpt>
      <trkpt lat="39.347241" lon="-6.077572">
        <ele>424.942</ele>
        <time>2019-06-22T20:27:26Z</time>
      </trkpt>
      <trkpt lat="39.347221" lon="-6.077392">
        <ele>425.136</ele>
        <time>2019-06-22T20:27:27Z</time>
      </trkpt>
      <trkpt lat="39.347200" lon="-6.077227">
        <ele>425.358</ele>
        <time>2019-06-22T20:27:28Z</time>
      </trkpt>
      <trkpt lat="39.347180" lon="-6.077065">
        <ele>425.920</ele>
        <time>2019-06-22T20:27:29Z</time>
      </trkpt>
      <trkpt lat="39.347159" lon="-6.076923">
        <ele>426.628</ele>
        <time>2019-06-22T20:27:30Z</time>
      </trkpt>
      <trkpt lat="39.347144" lon="-6.076786">
        <ele>427.467</ele>
        <time>2019-06-22T20:27:31Z</time>
      </trkpt>
      <trkpt lat="39.347125" lon="-6.076643">
        <ele>428.232</ele>
        <time>2019-06-22T20:27:32Z</time>
      </trkpt>
      <trkpt lat="39.347104" lon="-6.076508">
        <ele>429.195</ele>
        <time>2019-06-22T20:27:33Z</time>
      </trkpt>
      <trkpt lat="39.347082" lon="-6.076379">
        <ele>429.742</ele>
        <time>2019-06-22T20:27:34Z</time>
      </trkpt>
      <trkpt lat="39.347061" lon="-6.076260">
        <ele>430.422</ele>
        <time>2019-06-22T20:27:35Z</time>
      </trkpt>
      <trkpt lat="39.347038" lon="-6.076143">
        <ele>430.714</ele>
        <time>2019-06-22T20:27:36Z</time>
      </trkpt>
      <trkpt lat="39.347013" lon="-6.076035">
        <ele>430.908</ele>
        <time>2019-06-22T20:27:37Z</time>
      </trkpt>
      <trkpt lat="39.346978" lon="-6.075944">
        <ele>430.927</ele>
        <time>2019-06-22T20:27:38Z</time>
      </trkpt>
      <trkpt lat="39.346943" lon="-6.075877">
        <ele>430.911</ele>
        <time>2019-06-22T20:27:39Z</time>
      </trkpt>
      <trkpt lat="39.346909" lon="-6.075812">
        <ele>430.993</ele>
        <time>2019-06-22T20:27:40Z</time>
      </trkpt>
      <trkpt lat="39.346881" lon="-6.075744">
        <ele>430.695</ele>
        <time>2019-06-22T20:27:41Z</time>
      </trkpt>
      <trkpt lat="39.346863" lon="-6.075660">
        <ele>430.663</ele>
        <time>2019-06-22T20:27:42Z</time>
      </trkpt>
      <trkpt lat="39.346862" lon="-6.075557">
        <ele>430.522</ele>
        <time>2019-06-22T20:27:43Z</time>
      </trkpt>
      <trkpt lat="39.346877" lon="-6.075441">
        <ele>430.487</ele>
        <time>2019-06-22T20:27:44Z</time>
      </trkpt>
      <trkpt lat="39.346899" lon="-6.075317">
        <ele>430.330</ele>
        <time>2019-06-22T20:27:45Z</time>
      </trkpt>
      <trkpt lat="39.346914" lon="-6.075187">
        <ele>430.351</ele>
        <time>2019-06-22T20:27:46Z</time>
      </trkpt>
      <trkpt lat="39.346930" lon="-6.075038">
        <ele>430.301</ele>
        <time>2019-06-22T20:27:47Z</time>
      </trkpt>
      <trkpt lat="39.346948" lon="-6.074869">
        <ele>430.511</ele>
        <time>2019-06-22T20:27:48Z</time>
      </trkpt>
      <trkpt lat="39.346973" lon="-6.074712">
        <ele>430.608</ele>
        <time>2019-06-22T20:27:49Z</time>
      </trkpt>
      <trkpt lat="39.346991" lon="-6.074555">
        <ele>430.878</ele>
        <time>2019-06-22T20:27:50Z</time>
      </trkpt>
      <trkpt lat="39.347010" lon="-6.074409">
        <ele>431.082</ele>
        <time>2019-06-22T20:27:51Z</time>
      </trkpt>
      <trkpt lat="39.347032" lon="-6.074274">
        <ele>431.134</ele>
        <time>2019-06-22T20:27:52Z</time>
      </trkpt>
      <trkpt lat="39.347054" lon="-6.074141">
        <ele>431.276</ele>
        <time>2019-06-22T20:27:53Z</time>
      </trkpt>
      <trkpt lat="39.347075" lon="-6.073991">
        <ele>431.274</ele>
        <time>2019-06-22T20:27:54Z</time>
      </trkpt>
      <trkpt lat="39.347101" lon="-6.073812">
        <ele>431.453</ele>
        <time>2019-06-22T20:27:55Z</time>
      </trkpt>
      <trkpt lat="39.347125" lon="-6.073625">
        <ele>431.798</ele>
        <time>2019-06-22T20:27:56Z</time>
      </trkpt>
      <trkpt lat="39.347148" lon="-6.073432">
        <ele>432.061</ele>
        <time>2019-06-22T20:27:57Z</time>
      </trkpt>
      <trkpt lat="39.347180" lon="-6.073238">
        <ele>432.644</ele>
        <time>2019-06-22T20:27:58Z</time>
      </trkpt>
      <trkpt lat="39.347215" lon="-6.073039">
        <ele>433.205</ele>
        <time>2019-06-22T20:27:59Z</time>
      </trkpt>
      <trkpt lat="39.347245" lon="-6.072832">
        <ele>434.315</ele>
        <time>2019-06-22T20:28:00Z</time>
      </trkpt>
      <trkpt lat="39.347269" lon="-6.072644">
        <ele>434.308</ele>
        <time>2019-06-22T20:28:01Z</time>
      </trkpt>
      <trkpt lat="39.347295" lon="-6.072460">
        <ele>434.757</ele>
        <time>2019-06-22T20:28:02Z</time>
      </trkpt>
      <trkpt lat="39.347314" lon="-6.072289">
        <ele>435.061</ele>
        <time>2019-06-22T20:28:03Z</time>
      </trkpt>
      <trkpt lat="39.347344" lon="-6.072125">
        <ele>435.473</ele>
        <time>2019-06-22T20:28:04Z</time>
      </trkpt>
      <trkpt lat="39.347384" lon="-6.071958">
        <ele>436.035</ele>
        <time>2019-06-22T20:28:05Z</time>
      </trkpt>
      <trkpt lat="39.347429" lon="-6.071788">
        <ele>436.863</ele>
        <time>2019-06-22T20:28:06Z</time>
      </trkpt>
      <trkpt lat="39.347493" lon="-6.071612">
        <ele>437.632</ele>
        <time>2019-06-22T20:28:07Z</time>
      </trkpt>
      <trkpt lat="39.347562" lon="-6.071426">
        <ele>438.677</ele>
        <time>2019-06-22T20:28:08Z</time>
      </trkpt>
      <trkpt lat="39.347654" lon="-6.071238">
        <ele>439.570</ele>
        <time>2019-06-22T20:28:09Z</time>
      </trkpt>
      <trkpt lat="39.347761" lon="-6.071062">
        <ele>440.176</ele>
        <time>2019-06-22T20:28:10Z</time>
      </trkpt>
      <trkpt lat="39.347885" lon="-6.070886">
        <ele>440.590</ele>
        <time>2019-06-22T20:28:11Z</time>
      </trkpt>
      <trkpt lat="39.348027" lon="-6.070721">
        <ele>441.019</ele>
        <time>2019-06-22T20:28:12Z</time>
      </trkpt>
      <trkpt lat="39.348182" lon="-6.070563">
        <ele>441.308</ele>
        <time>2019-06-22T20:28:13Z</time>
      </trkpt>
      <trkpt lat="39.348349" lon="-6.070415">
        <ele>441.690</ele>
        <time>2019-06-22T20:28:14Z</time>
      </trkpt>
      <trkpt lat="39.348522" lon="-6.070272">
        <ele>442.114</ele>
        <time>2019-06-22T20:28:15Z</time>
      </trkpt>
      <trkpt lat="39.348701" lon="-6.070126">
        <ele>442.476</ele>
        <time>2019-06-22T20:28:16Z</time>
      </trkpt>
      <trkpt lat="39.348888" lon="-6.069976">
        <ele>442.738</ele>
        <time>2019-06-22T20:28:17Z</time>
      </trkpt>
      <trkpt lat="39.349077" lon="-6.069821">
        <ele>443.016</ele>
        <time>2019-06-22T20:28:18Z</time>
      </trkpt>
      <trkpt lat="39.349270" lon="-6.069659">
        <ele>443.435</ele>
        <time>2019-06-22T20:28:19Z</time>
      </trkpt>
      <trkpt lat="39.349463" lon="-6.069502">
        <ele>443.880</ele>
        <time>2019-06-22T20:28:20Z</time>
      </trkpt>
      <trkpt lat="39.349664" lon="-6.069343">
        <ele>444.293</ele>
        <time>2019-06-22T20:28:21Z</time>
      </trkpt>
      <trkpt lat="39.349868" lon="-6.069188">
        <ele>444.494</ele>
        <time>2019-06-22T20:28:22Z</time>
      </trkpt>
      <trkpt lat="39.350077" lon="-6.069022">
        <ele>444.557</ele>
        <time>2019-06-22T20:28:23Z</time>
      </trkpt>
      <trkpt lat="39.350281" lon="-6.068857">
        <ele>444.522</ele>
        <time>2019-06-22T20:28:24Z</time>
      </trkpt>
      <trkpt lat="39.350488" lon="-6.068689">
        <ele>444.508</ele>
        <time>2019-06-22T20:28:25Z</time>
      </trkpt>
      <trkpt lat="39.350697" lon="-6.068516">
        <ele>444.522</ele>
        <time>2019-06-22T20:28:26Z</time>
      </trkpt>
      <trkpt lat="39.350909" lon="-6.068349">
        <ele>444.676</ele>
        <time>2019-06-22T20:28:27Z</time>
      </trkpt>
      <trkpt lat="39.351115" lon="-6.068174">
        <ele>445.098</ele>
        <time>2019-06-22T20:28:28Z</time>
      </trkpt>
      <trkpt lat="39.351324" lon="-6.068008">
        <ele>445.460</ele>
        <time>2019-06-22T20:28:29Z</time>
      </trkpt>
      <trkpt lat="39.351532" lon="-6.067840">
        <ele>445.978</ele>
        <time>2019-06-22T20:28:30Z</time>
      </trkpt>
      <trkpt lat="39.351736" lon="-6.067669">
        <ele>446.387</ele>
        <time>2019-06-22T20:28:31Z</time>
      </trkpt>
      <trkpt lat="39.351942" lon="-6.067510">
        <ele>446.792</ele>
        <time>2019-06-22T20:28:32Z</time>
      </trkpt>
      <trkpt lat="39.352138" lon="-6.067347">
        <ele>447.055</ele>
        <time>2019-06-22T20:28:33Z</time>
      </trkpt>
      <trkpt lat="39.352332" lon="-6.067192">
        <ele>447.265</ele>
        <time>2019-06-22T20:28:34Z</time>
      </trkpt>
      <trkpt lat="39.352523" lon="-6.067043">
        <ele>447.568</ele>
        <time>2019-06-22T20:28:35Z</time>
      </trkpt>
      <trkpt lat="39.352715" lon="-6.066902">
        <ele>447.514</ele>
        <time>2019-06-22T20:28:36Z</time>
      </trkpt>
      <trkpt lat="39.352916" lon="-6.066761">
        <ele>447.408</ele>
        <time>2019-06-22T20:28:37Z</time>
      </trkpt>
      <trkpt lat="39.353131" lon="-6.066622">
        <ele>447.369</ele>
        <time>2019-06-22T20:28:38Z</time>
      </trkpt>
      <trkpt lat="39.353357" lon="-6.066488">
        <ele>447.153</ele>
        <time>2019-06-22T20:28:39Z</time>
      </trkpt>
      <trkpt lat="39.353591" lon="-6.066363">
        <ele>446.645</ele>
        <time>2019-06-22T20:28:40Z</time>
      </trkpt>
      <trkpt lat="39.353828" lon="-6.066247">
        <ele>445.977</ele>
        <time>2019-06-22T20:28:41Z</time>
      </trkpt>
      <trkpt lat="39.354039" lon="-6.066140">
        <ele>445.385</ele>
        <time>2019-06-22T20:28:42Z</time>
      </trkpt>
      <trkpt lat="39.354270" lon="-6.066030">
        <ele>444.164</ele>
        <time>2019-06-22T20:28:43Z</time>
      </trkpt>
      <trkpt lat="39.354494" lon="-6.065922">
        <ele>443.479</ele>
        <time>2019-06-22T20:28:44Z</time>
      </trkpt>
      <trkpt lat="39.354714" lon="-6.065814">
        <ele>442.372</ele>
        <time>2019-06-22T20:28:45Z</time>
      </trkpt>
      <trkpt lat="39.354935" lon="-6.065705">
        <ele>441.981</ele>
        <time>2019-06-22T20:28:46Z</time>
      </trkpt>
      <trkpt lat="39.355155" lon="-6.065599">
        <ele>441.961</ele>
        <time>2019-06-22T20:28:47Z</time>
      </trkpt>
      <trkpt lat="39.355382" lon="-6.065487">
        <ele>441.117</ele>
        <time>2019-06-22T20:28:48Z</time>
      </trkpt>
      <trkpt lat="39.355616" lon="-6.065380">
        <ele>440.608</ele>
        <time>2019-06-22T20:28:49Z</time>
      </trkpt>
      <trkpt lat="39.355858" lon="-6.065274">
        <ele>440.061</ele>
        <time>2019-06-22T20:28:50Z</time>
      </trkpt>
      <trkpt lat="39.356108" lon="-6.065163">
        <ele>439.565</ele>
        <time>2019-06-22T20:28:51Z</time>
      </trkpt>
      <trkpt lat="39.356341" lon="-6.065054">
        <ele>438.437</ele>
        <time>2019-06-22T20:28:52Z</time>
      </trkpt>
      <trkpt lat="39.356574" lon="-6.064940">
        <ele>437.799</ele>
        <time>2019-06-22T20:28:53Z</time>
      </trkpt>
      <trkpt lat="39.356811" lon="-6.064830">
        <ele>436.977</ele>
        <time>2019-06-22T20:28:54Z</time>
      </trkpt>
      <trkpt lat="39.357048" lon="-6.064718">
        <ele>436.076</ele>
        <time>2019-06-22T20:28:55Z</time>
      </trkpt>
      <trkpt lat="39.357290" lon="-6.064606">
        <ele>434.991</ele>
        <time>2019-06-22T20:28:56Z</time>
      </trkpt>
      <trkpt lat="39.357539" lon="-6.064490">
        <ele>433.894</ele>
        <time>2019-06-22T20:28:57Z</time>
      </trkpt>
      <trkpt lat="39.357787" lon="-6.064374">
        <ele>432.941</ele>
        <time>2019-06-22T20:28:58Z</time>
      </trkpt>
      <trkpt lat="39.358045" lon="-6.064259">
        <ele>431.281</ele>
        <time>2019-06-22T20:28:59Z</time>
      </trkpt>
      <trkpt lat="39.358305" lon="-6.064137">
        <ele>430.009</ele>
        <time>2019-06-22T20:29:00Z</time>
      </trkpt>
      <trkpt lat="39.358562" lon="-6.064027">
        <ele>428.608</ele>
        <time>2019-06-22T20:29:01Z</time>
      </trkpt>
      <trkpt lat="39.358814" lon="-6.063915">
        <ele>427.137</ele>
        <time>2019-06-22T20:29:02Z</time>
      </trkpt>
      <trkpt lat="39.359046" lon="-6.063799">
        <ele>425.761</ele>
        <time>2019-06-22T20:29:03Z</time>
      </trkpt>
      <trkpt lat="39.359278" lon="-6.063687">
        <ele>424.713</ele>
        <time>2019-06-22T20:29:04Z</time>
      </trkpt>
      <trkpt lat="39.359510" lon="-6.063579">
        <ele>423.395</ele>
        <time>2019-06-22T20:29:05Z</time>
      </trkpt>
      <trkpt lat="39.359731" lon="-6.063472">
        <ele>422.223</ele>
        <time>2019-06-22T20:29:06Z</time>
      </trkpt>
      <trkpt lat="39.359955" lon="-6.063363">
        <ele>421.622</ele>
        <time>2019-06-22T20:29:07Z</time>
      </trkpt>
      <trkpt lat="39.360178" lon="-6.063258">
        <ele>421.327</ele>
        <time>2019-06-22T20:29:08Z</time>
      </trkpt>
      <trkpt lat="39.360411" lon="-6.063145">
        <ele>421.360</ele>
        <time>2019-06-22T20:29:09Z</time>
      </trkpt>
      <trkpt lat="39.360654" lon="-6.063035">
        <ele>421.397</ele>
        <time>2019-06-22T20:29:10Z</time>
      </trkpt>
      <trkpt lat="39.360892" lon="-6.062919">
        <ele>421.223</ele>
        <time>2019-06-22T20:29:11Z</time>
      </trkpt>
      <trkpt lat="39.361128" lon="-6.062809">
        <ele>421.125</ele>
        <time>2019-06-22T20:29:12Z</time>
      </trkpt>
      <trkpt lat="39.361361" lon="-6.062696">
        <ele>420.608</ele>
        <time>2019-06-22T20:29:13Z</time>
      </trkpt>
      <trkpt lat="39.361596" lon="-6.062587">
        <ele>420.062</ele>
        <time>2019-06-22T20:29:14Z</time>
      </trkpt>
      <trkpt lat="39.361829" lon="-6.062485">
        <ele>419.486</ele>
        <time>2019-06-22T20:29:15Z</time>
      </trkpt>
      <trkpt lat="39.362059" lon="-6.062383">
        <ele>418.818</ele>
        <time>2019-06-22T20:29:16Z</time>
      </trkpt>
      <trkpt lat="39.362296" lon="-6.062287">
        <ele>418.250</ele>
        <time>2019-06-22T20:29:17Z</time>
      </trkpt>
      <trkpt lat="39.362492" lon="-6.062207">
        <ele>417.688</ele>
        <time>2019-06-22T20:29:18Z</time>
      </trkpt>
      <trkpt lat="39.362692" lon="-6.062151">
        <ele>417.187</ele>
        <time>2019-06-22T20:29:19Z</time>
      </trkpt>
      <trkpt lat="39.362944" lon="-6.062123">
        <ele>416.812</ele>
        <time>2019-06-22T20:29:20Z</time>
      </trkpt>
      <trkpt lat="39.363195" lon="-6.062097">
        <ele>416.625</ele>
        <time>2019-06-22T20:29:21Z</time>
      </trkpt>
      <trkpt lat="39.363441" lon="-6.062074">
        <ele>416.359</ele>
        <time>2019-06-22T20:29:22Z</time>
      </trkpt>
      <trkpt lat="39.363675" lon="-6.062043">
        <ele>416.003</ele>
        <time>2019-06-22T20:29:23Z</time>
      </trkpt>
      <trkpt lat="39.363902" lon="-6.062013">
        <ele>415.723</ele>
        <time>2019-06-22T20:29:24Z</time>
      </trkpt>
      <trkpt lat="39.364123" lon="-6.061980">
        <ele>415.008</ele>
        <time>2019-06-22T20:29:25Z</time>
      </trkpt>
      <trkpt lat="39.364339" lon="-6.061951">
        <ele>413.638</ele>
        <time>2019-06-22T20:29:26Z</time>
      </trkpt>
      <trkpt lat="39.364548" lon="-6.061901">
        <ele>412.292</ele>
        <time>2019-06-22T20:29:27Z</time>
      </trkpt>
      <trkpt lat="39.364756" lon="-6.061839">
        <ele>411.634</ele>
        <time>2019-06-22T20:29:28Z</time>
      </trkpt>
      <trkpt lat="39.364961" lon="-6.061743">
        <ele>411.516</ele>
        <time>2019-06-22T20:29:29Z</time>
      </trkpt>
      <trkpt lat="39.365163" lon="-6.061631">
        <ele>411.584</ele>
        <time>2019-06-22T20:29:30Z</time>
      </trkpt>
      <trkpt lat="39.365373" lon="-6.061504">
        <ele>412.413</ele>
        <time>2019-06-22T20:29:31Z</time>
      </trkpt>
      <trkpt lat="39.365585" lon="-6.061372">
        <ele>413.778</ele>
        <time>2019-06-22T20:29:32Z</time>
      </trkpt>
      <trkpt lat="39.365806" lon="-6.061237">
        <ele>413.841</ele>
        <time>2019-06-22T20:29:33Z</time>
      </trkpt>
      <trkpt lat="39.366019" lon="-6.061102">
        <ele>413.817</ele>
        <time>2019-06-22T20:29:34Z</time>
      </trkpt>
      <trkpt lat="39.366237" lon="-6.060963">
        <ele>413.487</ele>
        <time>2019-06-22T20:29:35Z</time>
      </trkpt>
      <trkpt lat="39.366457" lon="-6.060824">
        <ele>412.815</ele>
        <time>2019-06-22T20:29:36Z</time>
      </trkpt>
      <trkpt lat="39.366674" lon="-6.060679">
        <ele>412.208</ele>
        <time>2019-06-22T20:29:37Z</time>
      </trkpt>
      <trkpt lat="39.366917" lon="-6.060528">
        <ele>411.654</ele>
        <time>2019-06-22T20:29:38Z</time>
      </trkpt>
      <trkpt lat="39.367142" lon="-6.060390">
        <ele>411.218</ele>
        <time>2019-06-22T20:29:39Z</time>
      </trkpt>
      <trkpt lat="39.367379" lon="-6.060233">
        <ele>411.280</ele>
        <time>2019-06-22T20:29:40Z</time>
      </trkpt>
      <trkpt lat="39.367601" lon="-6.060092">
        <ele>411.282</ele>
        <time>2019-06-22T20:29:41Z</time>
      </trkpt>
      <trkpt lat="39.367830" lon="-6.059946">
        <ele>411.210</ele>
        <time>2019-06-22T20:29:42Z</time>
      </trkpt>
      <trkpt lat="39.368063" lon="-6.059808">
        <ele>411.749</ele>
        <time>2019-06-22T20:29:43Z</time>
      </trkpt>
      <trkpt lat="39.368283" lon="-6.059664">
        <ele>412.394</ele>
        <time>2019-06-22T20:29:44Z</time>
      </trkpt>
      <trkpt lat="39.368504" lon="-6.059520">
        <ele>413.097</ele>
        <time>2019-06-22T20:29:45Z</time>
      </trkpt>
      <trkpt lat="39.368724" lon="-6.059378">
        <ele>413.859</ele>
        <time>2019-06-22T20:29:46Z</time>
      </trkpt>
      <trkpt lat="39.368936" lon="-6.059242">
        <ele>414.403</ele>
        <time>2019-06-22T20:29:47Z</time>
      </trkpt>
      <trkpt lat="39.369135" lon="-6.059106">
        <ele>415.223</ele>
        <time>2019-06-22T20:29:48Z</time>
      </trkpt>
      <trkpt lat="39.369329" lon="-6.058981">
        <ele>416.308</ele>
        <time>2019-06-22T20:29:49Z</time>
      </trkpt>
      <trkpt lat="39.369506" lon="-6.058868">
        <ele>417.748</ele>
        <time>2019-06-22T20:29:50Z</time>
      </trkpt>
      <trkpt lat="39.369685" lon="-6.058747">
        <ele>419.132</ele>
        <time>2019-06-22T20:29:51Z</time>
      </trkpt>
      <trkpt lat="39.369858" lon="-6.058641">
        <ele>419.174</ele>
        <time>2019-06-22T20:29:52Z</time>
      </trkpt>
      <trkpt lat="39.370027" lon="-6.058550">
        <ele>420.666</ele>
        <time>2019-06-22T20:29:53Z</time>
      </trkpt>
      <trkpt lat="39.370192" lon="-6.058457">
        <ele>422.214</ele>
        <time>2019-06-22T20:29:54Z</time>
      </trkpt>
      <trkpt lat="39.370354" lon="-6.058377">
        <ele>423.653</ele>
        <time>2019-06-22T20:29:55Z</time>
      </trkpt>
      <trkpt lat="39.370510" lon="-6.058299">
        <ele>424.768</ele>
        <time>2019-06-22T20:29:56Z</time>
      </trkpt>
      <trkpt lat="39.370666" lon="-6.058222">
        <ele>425.751</ele>
        <time>2019-06-22T20:29:57Z</time>
      </trkpt>
      <trkpt lat="39.370809" lon="-6.058131">
        <ele>426.884</ele>
        <time>2019-06-22T20:29:58Z</time>
      </trkpt>
      <trkpt lat="39.370969" lon="-6.058044">
        <ele>427.607</ele>
        <time>2019-06-22T20:29:59Z</time>
      </trkpt>
      <trkpt lat="39.371136" lon="-6.057960">
        <ele>428.017</ele>
        <time>2019-06-22T20:30:00Z</time>
      </trkpt>
      <trkpt lat="39.371307" lon="-6.057871">
        <ele>428.408</ele>
        <time>2019-06-22T20:30:01Z</time>
      </trkpt>
      <trkpt lat="39.371492" lon="-6.057779">
        <ele>428.841</ele>
        <time>2019-06-22T20:30:02Z</time>
      </trkpt>
      <trkpt lat="39.371667" lon="-6.057694">
        <ele>429.155</ele>
        <time>2019-06-22T20:30:03Z</time>
      </trkpt>
      <trkpt lat="39.371847" lon="-6.057602">
        <ele>429.217</ele>
        <time>2019-06-22T20:30:04Z</time>
      </trkpt>
      <trkpt lat="39.372024" lon="-6.057511">
        <ele>429.559</ele>
        <time>2019-06-22T20:30:05Z</time>
      </trkpt>
      <trkpt lat="39.372200" lon="-6.057423">
        <ele>429.977</ele>
        <time>2019-06-22T20:30:06Z</time>
      </trkpt>
      <trkpt lat="39.372374" lon="-6.057333">
        <ele>430.126</ele>
        <time>2019-06-22T20:30:07Z</time>
      </trkpt>
      <trkpt lat="39.372549" lon="-6.057244">
        <ele>430.541</ele>
        <time>2019-06-22T20:30:08Z</time>
      </trkpt>
      <trkpt lat="39.372721" lon="-6.057154">
        <ele>431.034</ele>
        <time>2019-06-22T20:30:09Z</time>
      </trkpt>
      <trkpt lat="39.372892" lon="-6.057061">
        <ele>431.418</ele>
        <time>2019-06-22T20:30:10Z</time>
      </trkpt>
      <trkpt lat="39.373062" lon="-6.056973">
        <ele>431.898</ele>
        <time>2019-06-22T20:30:11Z</time>
      </trkpt>
      <trkpt lat="39.373229" lon="-6.056882">
        <ele>432.217</ele>
        <time>2019-06-22T20:30:12Z</time>
      </trkpt>
      <trkpt lat="39.373405" lon="-6.056795">
        <ele>432.508</ele>
        <time>2019-06-22T20:30:13Z</time>
      </trkpt>
      <trkpt lat="39.373581" lon="-6.056707">
        <ele>432.734</ele>
        <time>2019-06-22T20:30:14Z</time>
      </trkpt>
      <trkpt lat="39.373757" lon="-6.056614">
        <ele>432.818</ele>
        <time>2019-06-22T20:30:15Z</time>
      </trkpt>
      <trkpt lat="39.373933" lon="-6.056511">
        <ele>433.070</ele>
        <time>2019-06-22T20:30:16Z</time>
      </trkpt>
      <trkpt lat="39.374108" lon="-6.056377">
        <ele>433.152</ele>
        <time>2019-06-22T20:30:17Z</time>
      </trkpt>
      <trkpt lat="39.374272" lon="-6.056223">
        <ele>433.240</ele>
        <time>2019-06-22T20:30:18Z</time>
      </trkpt>
      <trkpt lat="39.374424" lon="-6.056046">
        <ele>433.439</ele>
        <time>2019-06-22T20:30:19Z</time>
      </trkpt>
      <trkpt lat="39.374573" lon="-6.055859">
        <ele>433.714</ele>
        <time>2019-06-22T20:30:20Z</time>
      </trkpt>
      <trkpt lat="39.374725" lon="-6.055658">
        <ele>433.957</ele>
        <time>2019-06-22T20:30:21Z</time>
      </trkpt>
      <trkpt lat="39.374877" lon="-6.055449">
        <ele>434.278</ele>
        <time>2019-06-22T20:30:22Z</time>
      </trkpt>
      <trkpt lat="39.375032" lon="-6.055240">
        <ele>434.533</ele>
        <time>2019-06-22T20:30:23Z</time>
      </trkpt>
      <trkpt lat="39.375189" lon="-6.055040">
        <ele>434.826</ele>
        <time>2019-06-22T20:30:24Z</time>
      </trkpt>
      <trkpt lat="39.375348" lon="-6.054831">
        <ele>435.008</ele>
        <time>2019-06-22T20:30:25Z</time>
      </trkpt>
      <trkpt lat="39.375509" lon="-6.054614">
        <ele>435.230</ele>
        <time>2019-06-22T20:30:26Z</time>
      </trkpt>
      <trkpt lat="39.375670" lon="-6.054394">
        <ele>435.554</ele>
        <time>2019-06-22T20:30:27Z</time>
      </trkpt>
      <trkpt lat="39.375835" lon="-6.054185">
        <ele>435.776</ele>
        <time>2019-06-22T20:30:28Z</time>
      </trkpt>
      <trkpt lat="39.375990" lon="-6.053969">
        <ele>435.958</ele>
        <time>2019-06-22T20:30:29Z</time>
      </trkpt>
      <trkpt lat="39.376144" lon="-6.053762">
        <ele>436.076</ele>
        <time>2019-06-22T20:30:30Z</time>
      </trkpt>
      <trkpt lat="39.376300" lon="-6.053560">
        <ele>436.285</ele>
        <time>2019-06-22T20:30:31Z</time>
      </trkpt>
      <trkpt lat="39.376455" lon="-6.053350">
        <ele>436.480</ele>
        <time>2019-06-22T20:30:32Z</time>
      </trkpt>
      <trkpt lat="39.376604" lon="-6.053147">
        <ele>436.633</ele>
        <time>2019-06-22T20:30:33Z</time>
      </trkpt>
      <trkpt lat="39.376749" lon="-6.052959">
        <ele>436.892</ele>
        <time>2019-06-22T20:30:34Z</time>
      </trkpt>
      <trkpt lat="39.376887" lon="-6.052770">
        <ele>437.073</ele>
        <time>2019-06-22T20:30:35Z</time>
      </trkpt>
      <trkpt lat="39.377029" lon="-6.052581">
        <ele>437.120</ele>
        <time>2019-06-22T20:30:36Z</time>
      </trkpt>
      <trkpt lat="39.377168" lon="-6.052394">
        <ele>437.108</ele>
        <time>2019-06-22T20:30:37Z</time>
      </trkpt>
      <trkpt lat="39.377308" lon="-6.052211">
        <ele>437.142</ele>
        <time>2019-06-22T20:30:38Z</time>
      </trkpt>
      <trkpt lat="39.377458" lon="-6.052032">
        <ele>437.086</ele>
        <time>2019-06-22T20:30:39Z</time>
      </trkpt>
      <trkpt lat="39.377618" lon="-6.051855">
        <ele>436.878</ele>
        <time>2019-06-22T20:30:40Z</time>
      </trkpt>
      <trkpt lat="39.377786" lon="-6.051684">
        <ele>436.440</ele>
        <time>2019-06-22T20:30:41Z</time>
      </trkpt>
      <trkpt lat="39.377952" lon="-6.051508">
        <ele>435.828</ele>
        <time>2019-06-22T20:30:42Z</time>
      </trkpt>
      <trkpt lat="39.378121" lon="-6.051355">
        <ele>435.357</ele>
        <time>2019-06-22T20:30:43Z</time>
      </trkpt>
      <trkpt lat="39.378297" lon="-6.051198">
        <ele>434.622</ele>
        <time>2019-06-22T20:30:44Z</time>
      </trkpt>
      <trkpt lat="39.378475" lon="-6.051038">
        <ele>434.285</ele>
        <time>2019-06-22T20:30:45Z</time>
      </trkpt>
      <trkpt lat="39.378640" lon="-6.050887">
        <ele>433.976</ele>
        <time>2019-06-22T20:30:46Z</time>
      </trkpt>
      <trkpt lat="39.378796" lon="-6.050739">
        <ele>433.890</ele>
        <time>2019-06-22T20:30:47Z</time>
      </trkpt>
      <trkpt lat="39.378947" lon="-6.050595">
        <ele>433.819</ele>
        <time>2019-06-22T20:30:48Z</time>
      </trkpt>
      <trkpt lat="39.379091" lon="-6.050463">
        <ele>434.308</ele>
        <time>2019-06-22T20:30:49Z</time>
      </trkpt>
      <trkpt lat="39.379222" lon="-6.050344">
        <ele>434.710</ele>
        <time>2019-06-22T20:30:50Z</time>
      </trkpt>
      <trkpt lat="39.379352" lon="-6.050230">
        <ele>435.284</ele>
        <time>2019-06-22T20:30:51Z</time>
      </trkpt>
      <trkpt lat="39.379449" lon="-6.050127">
        <ele>435.976</ele>
        <time>2019-06-22T20:30:52Z</time>
      </trkpt>
      <trkpt lat="39.379540" lon="-6.050020">
        <ele>436.448</ele>
        <time>2019-06-22T20:30:53Z</time>
      </trkpt>
      <trkpt lat="39.379606" lon="-6.049920">
        <ele>436.686</ele>
        <time>2019-06-22T20:30:54Z</time>
      </trkpt>
      <trkpt lat="39.379663" lon="-6.049810">
        <ele>437.175</ele>
        <time>2019-06-22T20:30:55Z</time>
      </trkpt>
      <trkpt lat="39.379696" lon="-6.049707">
        <ele>437.410</ele>
        <time>2019-06-22T20:30:56Z</time>
      </trkpt>
      <trkpt lat="39.379740" lon="-6.049598">
        <ele>437.683</ele>
        <time>2019-06-22T20:30:57Z</time>
      </trkpt>
      <trkpt lat="39.379784" lon="-6.049498">
        <ele>437.615</ele>
        <time>2019-06-22T20:30:58Z</time>
      </trkpt>
      <trkpt lat="39.379826" lon="-6.049399">
        <ele>437.765</ele>
        <time>2019-06-22T20:30:59Z</time>
      </trkpt>
      <trkpt lat="39.379862" lon="-6.049321">
        <ele>437.811</ele>
        <time>2019-06-22T20:31:00Z</time>
      </trkpt>
      <trkpt lat="39.379894" lon="-6.049236">
        <ele>437.808</ele>
        <time>2019-06-22T20:31:01Z</time>
      </trkpt>
      <trkpt lat="39.379936" lon="-6.049144">
        <ele>437.724</ele>
        <time>2019-06-22T20:31:02Z</time>
      </trkpt>
      <trkpt lat="39.379976" lon="-6.049057">
        <ele>437.628</ele>
        <time>2019-06-22T20:31:03Z</time>
      </trkpt>
      <trkpt lat="39.380008" lon="-6.048972">
        <ele>437.580</ele>
        <time>2019-06-22T20:31:04Z</time>
      </trkpt>
      <trkpt lat="39.380040" lon="-6.048896">
        <ele>437.592</ele>
        <time>2019-06-22T20:31:05Z</time>
      </trkpt>
      <trkpt lat="39.380066" lon="-6.048832">
        <ele>437.430</ele>
        <time>2019-06-22T20:31:06Z</time>
      </trkpt>
      <trkpt lat="39.380080" lon="-6.048742">
        <ele>437.199</ele>
        <time>2019-06-22T20:31:08Z</time>
      </trkpt>
      <trkpt lat="39.380077" lon="-6.048667">
        <ele>437.044</ele>
        <time>2019-06-22T20:31:10Z</time>
      </trkpt>
      <trkpt lat="39.380070" lon="-6.048566">
        <ele>437.027</ele>
        <time>2019-06-22T20:31:12Z</time>
      </trkpt>
      <trkpt lat="39.380036" lon="-6.048494">
        <ele>437.122</ele>
        <time>2019-06-22T20:31:14Z</time>
      </trkpt>
      <trkpt lat="39.379991" lon="-6.048429">
        <ele>437.362</ele>
        <time>2019-06-22T20:31:16Z</time>
      </trkpt>
      <trkpt lat="39.379978" lon="-6.048358">
        <ele>437.608</ele>
        <time>2019-06-22T20:31:18Z</time>
      </trkpt>
      <trkpt lat="39.380012" lon="-6.048268">
        <ele>437.808</ele>
        <time>2019-06-22T20:31:20Z</time>
      </trkpt>
      <trkpt lat="39.380091" lon="-6.048254">
        <ele>437.815</ele>
        <time>2019-06-22T20:31:21Z</time>
      </trkpt>
      <trkpt lat="39.380139" lon="-6.048217">
        <ele>437.889</ele>
        <time>2019-06-22T20:31:22Z</time>
      </trkpt>
      <trkpt lat="39.380192" lon="-6.048193">
        <ele>437.831</ele>
        <time>2019-06-22T20:31:23Z</time>
      </trkpt>
      <trkpt lat="39.380245" lon="-6.048171">
        <ele>437.873</ele>
        <time>2019-06-22T20:31:24Z</time>
      </trkpt>
      <trkpt lat="39.380328" lon="-6.048148">
        <ele>438.041</ele>
        <time>2019-06-22T20:31:26Z</time>
      </trkpt>
      <trkpt lat="39.380380" lon="-6.048110">
        <ele>438.360</ele>
        <time>2019-06-22T20:31:28Z</time>
      </trkpt>
      <trkpt lat="39.380400" lon="-6.048044">
        <ele>438.635</ele>
        <time>2019-06-22T20:31:30Z</time>
      </trkpt>
      <trkpt lat="39.380387" lon="-6.047975">
        <ele>438.948</ele>
        <time>2019-06-22T20:31:33Z</time>
      </trkpt>
      <trkpt lat="39.380345" lon="-6.047889">
        <ele>439.078</ele>
        <time>2019-06-22T20:31:35Z</time>
      </trkpt>
      <trkpt lat="39.380319" lon="-6.047766">
        <ele>439.233</ele>
        <time>2019-06-22T20:31:37Z</time>
      </trkpt>
      <trkpt lat="39.380303" lon="-6.047694">
        <ele>439.426</ele>
        <time>2019-06-22T20:31:38Z</time>
      </trkpt>
      <trkpt lat="39.380277" lon="-6.047628">
        <ele>439.608</ele>
        <time>2019-06-22T20:31:39Z</time>
      </trkpt>
      <trkpt lat="39.380253" lon="-6.047554">
        <ele>439.970</ele>
        <time>2019-06-22T20:31:40Z</time>
      </trkpt>
      <trkpt lat="39.380234" lon="-6.047438">
        <ele>440.334</ele>
        <time>2019-06-22T20:31:42Z</time>
      </trkpt>
      <trkpt lat="39.380219" lon="-6.047327">
        <ele>440.636</ele>
        <time>2019-06-22T20:31:44Z</time>
      </trkpt>
      <trkpt lat="39.380211" lon="-6.047239">
        <ele>440.828</ele>
        <time>2019-06-22T20:31:46Z</time>
      </trkpt>
      <trkpt lat="39.380214" lon="-6.047180">
        <ele>441.026</ele>
        <time>2019-06-22T20:31:48Z</time>
      </trkpt>
      <trkpt lat="39.380220" lon="-6.047118">
        <ele>441.355</ele>
        <time>2019-06-22T20:31:50Z</time>
      </trkpt>
      <trkpt lat="39.380191" lon="-6.047060">
        <ele>442.280</ele>
        <time>2019-06-22T20:32:00Z</time>
      </trkpt>
      <trkpt lat="39.380166" lon="-6.046989">
        <ele>442.463</ele>
        <time>2019-06-22T20:32:24Z</time>
      </trkpt>
      <trkpt lat="39.380165" lon="-6.047048">
        <ele>442.545</ele>
        <time>2019-06-22T20:34:56Z</time>
      </trkpt>
    </trkseg>
  </trk>
</gpx>
